<?xml version="1.0" encoding="UTF-8"?>
<gpx version="1.1" creator="https://www.youtrack.es" xsi:schemaLocation="http://www.topografix.com/GPX/1/1 http://www.topografix.com/GPX/1/1/gpx.xsd http://www.garmin.com/xmlschemas/GpxExtensions/v3 http://www.garmin.com/xmlschemas/GpxExtensionsv3.xsd http://www.garmin.com/xmlschemas/TrackPointExtension/v1 http://www.garmin.com/xmlschemas/TrackPointExtensionv1.xsd" xmlns:gpxtpx="http://www.garmin.com/xmlschemas/TrackPointExtension/v1" xmlns:gpxx="http://www.garmin.com/xmlschemas/GpxExtensions/v3" xmlns:xsi="http://www.w3.org/2001/XMLSchema-instance">
  <metadata>
    <link href="https://www.youtrack.es">
      <text>YouTrack.es</text>
    </link>
    <time>2026-05-08T13:03:42Z</time>
  </metadata>
  <trk>
    <src>https://www.youtrack.es</src>
    <link href="https://www.youtrack.es/ruta/32616-kromvojoj">
      <text>YouTrack.es</text>
    </link>
    <trkseg>
      <trkpt lat="41.15321" lon="1.0942">
        <ele>106.2</ele>
        <time>2022-05-20 19:12:13</time>
      </trkpt>
      <trkpt lat="41.15321" lon="1.0942">
        <ele>106.2</ele>
        <time>2022-05-20 19:12:14</time>
      </trkpt>
      <trkpt lat="41.15322" lon="1.0942">
        <ele>106.2</ele>
        <time>2022-05-20 19:12:15</time>
      </trkpt>
      <trkpt lat="41.15322" lon="1.09419">
        <ele>106.2</ele>
        <time>2022-05-20 19:12:16</time>
      </trkpt>
      <trkpt lat="41.15321" lon="1.09418">
        <ele>106.2</ele>
        <time>2022-05-20 19:12:17</time>
      </trkpt>
      <trkpt lat="41.15321" lon="1.09417">
        <ele>106.2</ele>
        <time>2022-05-20 19:12:18</time>
      </trkpt>
      <trkpt lat="41.1532" lon="1.09415">
        <ele>106.2</ele>
        <time>2022-05-20 19:12:19</time>
      </trkpt>
      <trkpt lat="41.1532" lon="1.09414">
        <ele>106.2</ele>
        <time>2022-05-20 19:12:20</time>
      </trkpt>
      <trkpt lat="41.15319" lon="1.09413">
        <ele>106.2</ele>
        <time>2022-05-20 19:12:21</time>
      </trkpt>
      <trkpt lat="41.15319" lon="1.09412">
        <ele>106.2</ele>
        <time>2022-05-20 19:12:22</time>
      </trkpt>
      <trkpt lat="41.15319" lon="1.0941">
        <ele>106.2</ele>
        <time>2022-05-20 19:12:23</time>
      </trkpt>
      <trkpt lat="41.15318" lon="1.09408">
        <ele>106.2</ele>
        <time>2022-05-20 19:12:24</time>
      </trkpt>
      <trkpt lat="41.15317" lon="1.09406">
        <ele>106.2</ele>
        <time>2022-05-20 19:12:25</time>
      </trkpt>
      <trkpt lat="41.15316" lon="1.09405">
        <ele>106</ele>
        <time>2022-05-20 19:12:26</time>
      </trkpt>
      <trkpt lat="41.15316" lon="1.09403">
        <ele>106</ele>
        <time>2022-05-20 19:12:27</time>
      </trkpt>
      <trkpt lat="41.15315" lon="1.09401">
        <ele>105.8</ele>
        <time>2022-05-20 19:12:28</time>
      </trkpt>
      <trkpt lat="41.15315" lon="1.09399">
        <ele>105.8</ele>
        <time>2022-05-20 19:12:29</time>
      </trkpt>
      <trkpt lat="41.15314" lon="1.09397">
        <ele>105.6</ele>
        <time>2022-05-20 19:12:30</time>
      </trkpt>
      <trkpt lat="41.15314" lon="1.09395">
        <ele>105.6</ele>
        <time>2022-05-20 19:12:31</time>
      </trkpt>
      <trkpt lat="41.15314" lon="1.09393">
        <ele>105.4</ele>
        <time>2022-05-20 19:12:32</time>
      </trkpt>
      <trkpt lat="41.15315" lon="1.0939">
        <ele>105.4</ele>
        <time>2022-05-20 19:12:33</time>
      </trkpt>
      <trkpt lat="41.15314" lon="1.09388">
        <ele>105.4</ele>
        <time>2022-05-20 19:12:34</time>
      </trkpt>
      <trkpt lat="41.15313" lon="1.09387">
        <ele>105.2</ele>
        <time>2022-05-20 19:12:35</time>
      </trkpt>
      <trkpt lat="41.15311" lon="1.09386">
        <ele>105.2</ele>
        <time>2022-05-20 19:12:36</time>
      </trkpt>
      <trkpt lat="41.15308" lon="1.09385">
        <ele>105.2</ele>
        <time>2022-05-20 19:12:37</time>
      </trkpt>
      <trkpt lat="41.15305" lon="1.09385">
        <ele>105</ele>
        <time>2022-05-20 19:12:38</time>
      </trkpt>
      <trkpt lat="41.15302" lon="1.09386">
        <ele>105</ele>
        <time>2022-05-20 19:12:39</time>
      </trkpt>
      <trkpt lat="41.15298" lon="1.09386">
        <ele>104.8</ele>
        <time>2022-05-20 19:12:40</time>
      </trkpt>
      <trkpt lat="41.15294" lon="1.09387">
        <ele>104.8</ele>
        <time>2022-05-20 19:12:41</time>
      </trkpt>
      <trkpt lat="41.1529" lon="1.09388">
        <ele>104.6</ele>
        <time>2022-05-20 19:12:42</time>
      </trkpt>
      <trkpt lat="41.15285" lon="1.09389">
        <ele>104.6</ele>
        <time>2022-05-20 19:12:43</time>
      </trkpt>
      <trkpt lat="41.15281" lon="1.09391">
        <ele>104.4</ele>
        <time>2022-05-20 19:12:44</time>
      </trkpt>
      <trkpt lat="41.15277" lon="1.09392">
        <ele>104.2</ele>
        <time>2022-05-20 19:12:45</time>
      </trkpt>
      <trkpt lat="41.15272" lon="1.09394">
        <ele>104.2</ele>
        <time>2022-05-20 19:12:46</time>
      </trkpt>
      <trkpt lat="41.15268" lon="1.09396">
        <ele>104</ele>
        <time>2022-05-20 19:12:47</time>
      </trkpt>
      <trkpt lat="41.15263" lon="1.09398">
        <ele>103.8</ele>
        <time>2022-05-20 19:12:48</time>
      </trkpt>
      <trkpt lat="41.15258" lon="1.094">
        <ele>103.8</ele>
        <time>2022-05-20 19:12:49</time>
      </trkpt>
      <trkpt lat="41.15254" lon="1.09402">
        <ele>103.6</ele>
        <time>2022-05-20 19:12:50</time>
      </trkpt>
      <trkpt lat="41.15249" lon="1.09404">
        <ele>103.4</ele>
        <time>2022-05-20 19:12:51</time>
      </trkpt>
      <trkpt lat="41.15244" lon="1.09405">
        <ele>103.2</ele>
        <time>2022-05-20 19:12:52</time>
      </trkpt>
      <trkpt lat="41.15239" lon="1.09406">
        <ele>103</ele>
        <time>2022-05-20 19:12:53</time>
      </trkpt>
      <trkpt lat="41.15234" lon="1.09405">
        <ele>103</ele>
        <time>2022-05-20 19:12:54</time>
      </trkpt>
      <trkpt lat="41.15229" lon="1.09403">
        <ele>102.8</ele>
        <time>2022-05-20 19:12:55</time>
      </trkpt>
      <trkpt lat="41.15225" lon="1.09399">
        <ele>102.8</ele>
        <time>2022-05-20 19:12:56</time>
      </trkpt>
      <trkpt lat="41.15221" lon="1.09394">
        <ele>102.8</ele>
        <time>2022-05-20 19:12:57</time>
      </trkpt>
      <trkpt lat="41.15216" lon="1.0939">
        <ele>102.8</ele>
        <time>2022-05-20 19:12:58</time>
      </trkpt>
      <trkpt lat="41.15212" lon="1.09386">
        <ele>102.8</ele>
        <time>2022-05-20 19:12:59</time>
      </trkpt>
      <trkpt lat="41.15207" lon="1.09382">
        <ele>102.8</ele>
        <time>2022-05-20 19:13:00</time>
      </trkpt>
      <trkpt lat="41.15202" lon="1.09379">
        <ele>103</ele>
        <time>2022-05-20 19:13:01</time>
      </trkpt>
      <trkpt lat="41.15197" lon="1.09377">
        <ele>103</ele>
        <time>2022-05-20 19:13:02</time>
      </trkpt>
      <trkpt lat="41.15192" lon="1.09375">
        <ele>103</ele>
        <time>2022-05-20 19:13:03</time>
      </trkpt>
      <trkpt lat="41.15187" lon="1.09375">
        <ele>102.8</ele>
        <time>2022-05-20 19:13:04</time>
      </trkpt>
      <trkpt lat="41.15182" lon="1.09376">
        <ele>102.8</ele>
        <time>2022-05-20 19:13:05</time>
      </trkpt>
      <trkpt lat="41.15178" lon="1.09378">
        <ele>102.8</ele>
        <time>2022-05-20 19:13:06</time>
      </trkpt>
      <trkpt lat="41.15174" lon="1.09381">
        <ele>103</ele>
        <time>2022-05-20 19:13:07</time>
      </trkpt>
      <trkpt lat="41.15171" lon="1.09387">
        <ele>103</ele>
        <time>2022-05-20 19:13:08</time>
      </trkpt>
      <trkpt lat="41.1517" lon="1.09394">
        <ele>103</ele>
        <time>2022-05-20 19:13:09</time>
      </trkpt>
      <trkpt lat="41.1517" lon="1.094">
        <ele>103</ele>
        <time>2022-05-20 19:13:10</time>
      </trkpt>
      <trkpt lat="41.15171" lon="1.09406">
        <ele>103</ele>
        <time>2022-05-20 19:13:11</time>
      </trkpt>
      <trkpt lat="41.15174" lon="1.09412">
        <ele>103</ele>
        <time>2022-05-20 19:13:12</time>
      </trkpt>
      <trkpt lat="41.15177" lon="1.09417">
        <ele>102.8</ele>
        <time>2022-05-20 19:13:13</time>
      </trkpt>
      <trkpt lat="41.15181" lon="1.09422">
        <ele>102.8</ele>
        <time>2022-05-20 19:13:14</time>
      </trkpt>
      <trkpt lat="41.15185" lon="1.09427">
        <ele>102.8</ele>
        <time>2022-05-20 19:13:15</time>
      </trkpt>
      <trkpt lat="41.1519" lon="1.09432">
        <ele>102.8</ele>
        <time>2022-05-20 19:13:16</time>
      </trkpt>
      <trkpt lat="41.15195" lon="1.09436">
        <ele>102.8</ele>
        <time>2022-05-20 19:13:17</time>
      </trkpt>
      <trkpt lat="41.152" lon="1.09439">
        <ele>102.6</ele>
        <time>2022-05-20 19:13:18</time>
      </trkpt>
      <trkpt lat="41.15205" lon="1.09443">
        <ele>102.6</ele>
        <time>2022-05-20 19:13:19</time>
      </trkpt>
      <trkpt lat="41.1521" lon="1.09446">
        <ele>102.6</ele>
        <time>2022-05-20 19:13:20</time>
      </trkpt>
      <trkpt lat="41.15215" lon="1.09449">
        <ele>102.6</ele>
        <time>2022-05-20 19:13:21</time>
      </trkpt>
      <trkpt lat="41.1522" lon="1.09452">
        <ele>102.6</ele>
        <time>2022-05-20 19:13:22</time>
      </trkpt>
      <trkpt lat="41.15224" lon="1.09456">
        <ele>102.6</ele>
        <time>2022-05-20 19:13:23</time>
      </trkpt>
      <trkpt lat="41.15229" lon="1.09461">
        <ele>102.6</ele>
        <time>2022-05-20 19:13:24</time>
      </trkpt>
      <trkpt lat="41.15233" lon="1.09466">
        <ele>102.6</ele>
        <time>2022-05-20 19:13:25</time>
      </trkpt>
      <trkpt lat="41.15236" lon="1.09471">
        <ele>102.8</ele>
        <time>2022-05-20 19:13:26</time>
      </trkpt>
      <trkpt lat="41.15239" lon="1.09475">
        <ele>102.8</ele>
        <time>2022-05-20 19:13:27</time>
      </trkpt>
      <trkpt lat="41.15243" lon="1.09482">
        <ele>102.8</ele>
        <time>2022-05-20 19:13:28</time>
      </trkpt>
      <trkpt lat="41.15247" lon="1.09488">
        <ele>103</ele>
        <time>2022-05-20 19:13:29</time>
      </trkpt>
      <trkpt lat="41.1525" lon="1.09493">
        <ele>103</ele>
        <time>2022-05-20 19:13:30</time>
      </trkpt>
      <trkpt lat="41.15253" lon="1.09499">
        <ele>103</ele>
        <time>2022-05-20 19:13:31</time>
      </trkpt>
      <trkpt lat="41.15256" lon="1.09505">
        <ele>103</ele>
        <time>2022-05-20 19:13:32</time>
      </trkpt>
      <trkpt lat="41.15259" lon="1.09511">
        <ele>103</ele>
        <time>2022-05-20 19:13:33</time>
      </trkpt>
      <trkpt lat="41.15262" lon="1.09516">
        <ele>103</ele>
        <time>2022-05-20 19:13:34</time>
      </trkpt>
      <trkpt lat="41.15265" lon="1.09522">
        <ele>103</ele>
        <time>2022-05-20 19:13:35</time>
      </trkpt>
      <trkpt lat="41.15268" lon="1.09528">
        <ele>103</ele>
        <time>2022-05-20 19:13:36</time>
      </trkpt>
      <trkpt lat="41.1527" lon="1.09534">
        <ele>103</ele>
        <time>2022-05-20 19:13:37</time>
      </trkpt>
      <trkpt lat="41.15273" lon="1.0954">
        <ele>103.2</ele>
        <time>2022-05-20 19:13:38</time>
      </trkpt>
      <trkpt lat="41.15275" lon="1.09546">
        <ele>103.2</ele>
        <time>2022-05-20 19:13:39</time>
      </trkpt>
      <trkpt lat="41.15277" lon="1.09552">
        <ele>103.2</ele>
        <time>2022-05-20 19:13:40</time>
      </trkpt>
      <trkpt lat="41.15279" lon="1.09559">
        <ele>103.2</ele>
        <time>2022-05-20 19:13:41</time>
      </trkpt>
      <trkpt lat="41.15282" lon="1.09565">
        <ele>103.2</ele>
        <time>2022-05-20 19:13:42</time>
      </trkpt>
      <trkpt lat="41.15284" lon="1.09572">
        <ele>103.2</ele>
        <time>2022-05-20 19:13:43</time>
      </trkpt>
      <trkpt lat="41.15286" lon="1.09579">
        <ele>103.2</ele>
        <time>2022-05-20 19:13:44</time>
      </trkpt>
      <trkpt lat="41.15289" lon="1.09586">
        <ele>103.2</ele>
        <time>2022-05-20 19:13:45</time>
      </trkpt>
      <trkpt lat="41.1529" lon="1.09594">
        <ele>103.2</ele>
        <time>2022-05-20 19:13:46</time>
      </trkpt>
      <trkpt lat="41.15292" lon="1.096">
        <ele>103.2</ele>
        <time>2022-05-20 19:13:47</time>
      </trkpt>
      <trkpt lat="41.15294" lon="1.09607">
        <ele>103.2</ele>
        <time>2022-05-20 19:13:48</time>
      </trkpt>
      <trkpt lat="41.15295" lon="1.09614">
        <ele>103.4</ele>
        <time>2022-05-20 19:13:49</time>
      </trkpt>
      <trkpt lat="41.15297" lon="1.09621">
        <ele>103.4</ele>
        <time>2022-05-20 19:13:50</time>
      </trkpt>
      <trkpt lat="41.15298" lon="1.09628">
        <ele>103.4</ele>
        <time>2022-05-20 19:13:51</time>
      </trkpt>
      <trkpt lat="41.15298" lon="1.09635">
        <ele>103.6</ele>
        <time>2022-05-20 19:13:52</time>
      </trkpt>
      <trkpt lat="41.153" lon="1.09642">
        <ele>103.6</ele>
        <time>2022-05-20 19:13:53</time>
      </trkpt>
      <trkpt lat="41.15301" lon="1.09649">
        <ele>103.6</ele>
        <time>2022-05-20 19:13:54</time>
      </trkpt>
      <trkpt lat="41.15302" lon="1.09656">
        <ele>103.6</ele>
        <time>2022-05-20 19:13:55</time>
      </trkpt>
      <trkpt lat="41.15302" lon="1.09663">
        <ele>103.6</ele>
        <time>2022-05-20 19:13:56</time>
      </trkpt>
      <trkpt lat="41.15303" lon="1.09671">
        <ele>103.8</ele>
        <time>2022-05-20 19:13:57</time>
      </trkpt>
      <trkpt lat="41.15304" lon="1.09678">
        <ele>103.8</ele>
        <time>2022-05-20 19:13:58</time>
      </trkpt>
      <trkpt lat="41.15305" lon="1.09685">
        <ele>103.8</ele>
        <time>2022-05-20 19:13:59</time>
      </trkpt>
      <trkpt lat="41.15305" lon="1.09691">
        <ele>104</ele>
        <time>2022-05-20 19:14:00</time>
      </trkpt>
      <trkpt lat="41.15306" lon="1.09698">
        <ele>104</ele>
        <time>2022-05-20 19:14:01</time>
      </trkpt>
      <trkpt lat="41.15307" lon="1.09706">
        <ele>104.2</ele>
        <time>2022-05-20 19:14:02</time>
      </trkpt>
      <trkpt lat="41.15307" lon="1.09713">
        <ele>104.2</ele>
        <time>2022-05-20 19:14:03</time>
      </trkpt>
      <trkpt lat="41.15308" lon="1.09721">
        <ele>104.2</ele>
        <time>2022-05-20 19:14:04</time>
      </trkpt>
      <trkpt lat="41.15308" lon="1.09728">
        <ele>104.4</ele>
        <time>2022-05-20 19:14:05</time>
      </trkpt>
      <trkpt lat="41.15308" lon="1.09735">
        <ele>104.4</ele>
        <time>2022-05-20 19:14:06</time>
      </trkpt>
      <trkpt lat="41.15309" lon="1.09742">
        <ele>104.4</ele>
        <time>2022-05-20 19:14:07</time>
      </trkpt>
      <trkpt lat="41.15311" lon="1.09747">
        <ele>104.4</ele>
        <time>2022-05-20 19:14:08</time>
      </trkpt>
      <trkpt lat="41.15315" lon="1.0975">
        <ele>104.2</ele>
        <time>2022-05-20 19:14:09</time>
      </trkpt>
      <trkpt lat="41.1532" lon="1.0975">
        <ele>104.2</ele>
        <time>2022-05-20 19:14:10</time>
      </trkpt>
      <trkpt lat="41.15325" lon="1.09748">
        <ele>104.2</ele>
        <time>2022-05-20 19:14:11</time>
      </trkpt>
      <trkpt lat="41.15329" lon="1.09747">
        <ele>104.4</ele>
        <time>2022-05-20 19:14:12</time>
      </trkpt>
      <trkpt lat="41.15334" lon="1.09746">
        <ele>104.6</ele>
        <time>2022-05-20 19:14:13</time>
      </trkpt>
      <trkpt lat="41.15338" lon="1.09746">
        <ele>104.6</ele>
        <time>2022-05-20 19:14:14</time>
      </trkpt>
      <trkpt lat="41.15342" lon="1.09746">
        <ele>104.8</ele>
        <time>2022-05-20 19:14:15</time>
      </trkpt>
      <trkpt lat="41.15347" lon="1.09746">
        <ele>105</ele>
        <time>2022-05-20 19:14:16</time>
      </trkpt>
      <trkpt lat="41.15351" lon="1.09745">
        <ele>105.2</ele>
        <time>2022-05-20 19:14:17</time>
      </trkpt>
      <trkpt lat="41.15355" lon="1.09744">
        <ele>105.4</ele>
        <time>2022-05-20 19:14:18</time>
      </trkpt>
      <trkpt lat="41.15361" lon="1.09742">
        <ele>105.4</ele>
        <time>2022-05-20 19:14:19</time>
      </trkpt>
      <trkpt lat="41.15366" lon="1.0974">
        <ele>105.6</ele>
        <time>2022-05-20 19:14:20</time>
      </trkpt>
      <trkpt lat="41.15371" lon="1.09738">
        <ele>105.8</ele>
        <time>2022-05-20 19:14:21</time>
      </trkpt>
      <trkpt lat="41.15376" lon="1.09737">
        <ele>106</ele>
        <time>2022-05-20 19:14:22</time>
      </trkpt>
      <trkpt lat="41.15381" lon="1.09736">
        <ele>106.2</ele>
        <time>2022-05-20 19:14:23</time>
      </trkpt>
      <trkpt lat="41.15386" lon="1.09735">
        <ele>106.2</ele>
        <time>2022-05-20 19:14:24</time>
      </trkpt>
      <trkpt lat="41.15391" lon="1.09734">
        <ele>106.4</ele>
        <time>2022-05-20 19:14:25</time>
      </trkpt>
      <trkpt lat="41.15395" lon="1.09733">
        <ele>106.6</ele>
        <time>2022-05-20 19:14:26</time>
      </trkpt>
      <trkpt lat="41.154" lon="1.09732">
        <ele>106.6</ele>
        <time>2022-05-20 19:14:27</time>
      </trkpt>
      <trkpt lat="41.15405" lon="1.0973">
        <ele>106.8</ele>
        <time>2022-05-20 19:14:28</time>
      </trkpt>
      <trkpt lat="41.1541" lon="1.09729">
        <ele>107</ele>
        <time>2022-05-20 19:14:29</time>
      </trkpt>
      <trkpt lat="41.15416" lon="1.09727">
        <ele>107</ele>
        <time>2022-05-20 19:14:30</time>
      </trkpt>
      <trkpt lat="41.15421" lon="1.09726">
        <ele>107.2</ele>
        <time>2022-05-20 19:14:31</time>
      </trkpt>
      <trkpt lat="41.15425" lon="1.09724">
        <ele>107.2</ele>
        <time>2022-05-20 19:14:32</time>
      </trkpt>
      <trkpt lat="41.1543" lon="1.09723">
        <ele>107.4</ele>
        <time>2022-05-20 19:14:33</time>
      </trkpt>
      <trkpt lat="41.15434" lon="1.09722">
        <ele>107.4</ele>
        <time>2022-05-20 19:14:34</time>
      </trkpt>
      <trkpt lat="41.15438" lon="1.09721">
        <ele>107.4</ele>
        <time>2022-05-20 19:14:35</time>
      </trkpt>
      <trkpt lat="41.15441" lon="1.09721">
        <ele>107.6</ele>
        <time>2022-05-20 19:14:36</time>
      </trkpt>
      <trkpt lat="41.15445" lon="1.0972">
        <ele>107.6</ele>
        <time>2022-05-20 19:14:37</time>
      </trkpt>
      <trkpt lat="41.15448" lon="1.09719">
        <ele>107.8</ele>
        <time>2022-05-20 19:14:38</time>
      </trkpt>
      <trkpt lat="41.1545" lon="1.09719">
        <ele>108</ele>
        <time>2022-05-20 19:14:39</time>
      </trkpt>
      <trkpt lat="41.15453" lon="1.09719">
        <ele>108</ele>
        <time>2022-05-20 19:14:40</time>
      </trkpt>
      <trkpt lat="41.15456" lon="1.09719">
        <ele>108.2</ele>
        <time>2022-05-20 19:14:41</time>
      </trkpt>
      <trkpt lat="41.15458" lon="1.09718">
        <ele>108.4</ele>
        <time>2022-05-20 19:14:42</time>
      </trkpt>
      <trkpt lat="41.15461" lon="1.09718">
        <ele>108.4</ele>
        <time>2022-05-20 19:14:43</time>
      </trkpt>
      <trkpt lat="41.15463" lon="1.09718">
        <ele>108.4</ele>
        <time>2022-05-20 19:14:44</time>
      </trkpt>
      <trkpt lat="41.15465" lon="1.09717">
        <ele>108.6</ele>
        <time>2022-05-20 19:14:45</time>
      </trkpt>
      <trkpt lat="41.15467" lon="1.09716">
        <ele>108.6</ele>
        <time>2022-05-20 19:14:46</time>
      </trkpt>
      <trkpt lat="41.15469" lon="1.09716">
        <ele>108.8</ele>
        <time>2022-05-20 19:14:47</time>
      </trkpt>
      <trkpt lat="41.15471" lon="1.09715">
        <ele>108.8</ele>
        <time>2022-05-20 19:14:48</time>
      </trkpt>
      <trkpt lat="41.15472" lon="1.09714">
        <ele>108.8</ele>
        <time>2022-05-20 19:14:49</time>
      </trkpt>
      <trkpt lat="41.15474" lon="1.09713">
        <ele>108.8</ele>
        <time>2022-05-20 19:14:50</time>
      </trkpt>
      <trkpt lat="41.15475" lon="1.09713">
        <ele>108.8</ele>
        <time>2022-05-20 19:14:51</time>
      </trkpt>
      <trkpt lat="41.15478" lon="1.09712">
        <ele>108.8</ele>
        <time>2022-05-20 19:14:52</time>
      </trkpt>
      <trkpt lat="41.1548" lon="1.09711">
        <ele>109</ele>
        <time>2022-05-20 19:14:53</time>
      </trkpt>
      <trkpt lat="41.15483" lon="1.0971">
        <ele>109</ele>
        <time>2022-05-20 19:14:54</time>
      </trkpt>
      <trkpt lat="41.15487" lon="1.09709">
        <ele>109</ele>
        <time>2022-05-20 19:14:55</time>
      </trkpt>
      <trkpt lat="41.1549" lon="1.09709">
        <ele>109</ele>
        <time>2022-05-20 19:14:56</time>
      </trkpt>
      <trkpt lat="41.15493" lon="1.09708">
        <ele>109.2</ele>
        <time>2022-05-20 19:14:57</time>
      </trkpt>
      <trkpt lat="41.15497" lon="1.09707">
        <ele>109.2</ele>
        <time>2022-05-20 19:14:58</time>
      </trkpt>
      <trkpt lat="41.15501" lon="1.09705">
        <ele>109.2</ele>
        <time>2022-05-20 19:14:59</time>
      </trkpt>
      <trkpt lat="41.15506" lon="1.09703">
        <ele>109.2</ele>
        <time>2022-05-20 19:15:00</time>
      </trkpt>
      <trkpt lat="41.1551" lon="1.09702">
        <ele>109.2</ele>
        <time>2022-05-20 19:15:01</time>
      </trkpt>
      <trkpt lat="41.15515" lon="1.09702">
        <ele>109.4</ele>
        <time>2022-05-20 19:15:02</time>
      </trkpt>
      <trkpt lat="41.15519" lon="1.09702">
        <ele>109.6</ele>
        <time>2022-05-20 19:15:03</time>
      </trkpt>
      <trkpt lat="41.15525" lon="1.09701">
        <ele>109.6</ele>
        <time>2022-05-20 19:15:04</time>
      </trkpt>
      <trkpt lat="41.15529" lon="1.097">
        <ele>109.8</ele>
        <time>2022-05-20 19:15:05</time>
      </trkpt>
      <trkpt lat="41.15534" lon="1.097">
        <ele>110</ele>
        <time>2022-05-20 19:15:06</time>
      </trkpt>
      <trkpt lat="41.15539" lon="1.09699">
        <ele>110</ele>
        <time>2022-05-20 19:15:07</time>
      </trkpt>
      <trkpt lat="41.15544" lon="1.09699">
        <ele>110.2</ele>
        <time>2022-05-20 19:15:08</time>
      </trkpt>
      <trkpt lat="41.15549" lon="1.09698">
        <ele>110.4</ele>
        <time>2022-05-20 19:15:09</time>
      </trkpt>
      <trkpt lat="41.15554" lon="1.09697">
        <ele>110.4</ele>
        <time>2022-05-20 19:15:10</time>
      </trkpt>
      <trkpt lat="41.15558" lon="1.09697">
        <ele>110.6</ele>
        <time>2022-05-20 19:15:11</time>
      </trkpt>
      <trkpt lat="41.15562" lon="1.09696">
        <ele>110.6</ele>
        <time>2022-05-20 19:15:12</time>
      </trkpt>
      <trkpt lat="41.15566" lon="1.09696">
        <ele>110.8</ele>
        <time>2022-05-20 19:15:13</time>
      </trkpt>
      <trkpt lat="41.15569" lon="1.09695">
        <ele>111</ele>
        <time>2022-05-20 19:15:14</time>
      </trkpt>
      <trkpt lat="41.15573" lon="1.09694">
        <ele>111</ele>
        <time>2022-05-20 19:15:15</time>
      </trkpt>
      <trkpt lat="41.15577" lon="1.09694">
        <ele>111.2</ele>
        <time>2022-05-20 19:15:16</time>
      </trkpt>
      <trkpt lat="41.15581" lon="1.09693">
        <ele>111.4</ele>
        <time>2022-05-20 19:15:17</time>
      </trkpt>
      <trkpt lat="41.15586" lon="1.09692">
        <ele>111.4</ele>
        <time>2022-05-20 19:15:18</time>
      </trkpt>
      <trkpt lat="41.15592" lon="1.09691">
        <ele>111.6</ele>
        <time>2022-05-20 19:15:19</time>
      </trkpt>
      <trkpt lat="41.15598" lon="1.09691">
        <ele>111.6</ele>
        <time>2022-05-20 19:15:20</time>
      </trkpt>
      <trkpt lat="41.15604" lon="1.0969">
        <ele>111.6</ele>
        <time>2022-05-20 19:15:21</time>
      </trkpt>
      <trkpt lat="41.15609" lon="1.09689">
        <ele>111.8</ele>
        <time>2022-05-20 19:15:22</time>
      </trkpt>
      <trkpt lat="41.15614" lon="1.09689">
        <ele>111.8</ele>
        <time>2022-05-20 19:15:23</time>
      </trkpt>
      <trkpt lat="41.15619" lon="1.09688">
        <ele>112</ele>
        <time>2022-05-20 19:15:24</time>
      </trkpt>
      <trkpt lat="41.15623" lon="1.09688">
        <ele>112.2</ele>
        <time>2022-05-20 19:15:25</time>
      </trkpt>
      <trkpt lat="41.15627" lon="1.09688">
        <ele>112.4</ele>
        <time>2022-05-20 19:15:26</time>
      </trkpt>
      <trkpt lat="41.15632" lon="1.09688">
        <ele>112.4</ele>
        <time>2022-05-20 19:15:27</time>
      </trkpt>
      <trkpt lat="41.15636" lon="1.09687">
        <ele>112.6</ele>
        <time>2022-05-20 19:15:28</time>
      </trkpt>
      <trkpt lat="41.15641" lon="1.09686">
        <ele>112.8</ele>
        <time>2022-05-20 19:15:29</time>
      </trkpt>
      <trkpt lat="41.15645" lon="1.09685">
        <ele>113</ele>
        <time>2022-05-20 19:15:30</time>
      </trkpt>
      <trkpt lat="41.15649" lon="1.09684">
        <ele>113.2</ele>
        <time>2022-05-20 19:15:31</time>
      </trkpt>
      <trkpt lat="41.15655" lon="1.09682">
        <ele>113.2</ele>
        <time>2022-05-20 19:15:32</time>
      </trkpt>
      <trkpt lat="41.1566" lon="1.0968">
        <ele>113.4</ele>
        <time>2022-05-20 19:15:33</time>
      </trkpt>
      <trkpt lat="41.15666" lon="1.09677">
        <ele>113.4</ele>
        <time>2022-05-20 19:15:34</time>
      </trkpt>
      <trkpt lat="41.15671" lon="1.09674">
        <ele>113.4</ele>
        <time>2022-05-20 19:15:35</time>
      </trkpt>
      <trkpt lat="41.15676" lon="1.09674">
        <ele>113.6</ele>
        <time>2022-05-20 19:15:36</time>
      </trkpt>
      <trkpt lat="41.15681" lon="1.09672">
        <ele>113.6</ele>
        <time>2022-05-20 19:15:37</time>
      </trkpt>
      <trkpt lat="41.15686" lon="1.09671">
        <ele>113.6</ele>
        <time>2022-05-20 19:15:38</time>
      </trkpt>
      <trkpt lat="41.15691" lon="1.0967">
        <ele>113.6</ele>
        <time>2022-05-20 19:15:39</time>
      </trkpt>
      <trkpt lat="41.15695" lon="1.09669">
        <ele>113.6</ele>
        <time>2022-05-20 19:15:40</time>
      </trkpt>
      <trkpt lat="41.157" lon="1.09667">
        <ele>113.8</ele>
        <time>2022-05-20 19:15:41</time>
      </trkpt>
      <trkpt lat="41.15706" lon="1.09665">
        <ele>113.8</ele>
        <time>2022-05-20 19:15:42</time>
      </trkpt>
      <trkpt lat="41.15712" lon="1.09662">
        <ele>114</ele>
        <time>2022-05-20 19:15:43</time>
      </trkpt>
      <trkpt lat="41.15718" lon="1.0966">
        <ele>114</ele>
        <time>2022-05-20 19:15:44</time>
      </trkpt>
      <trkpt lat="41.15724" lon="1.09658">
        <ele>114.2</ele>
        <time>2022-05-20 19:15:45</time>
      </trkpt>
      <trkpt lat="41.1573" lon="1.09657">
        <ele>114.2</ele>
        <time>2022-05-20 19:15:46</time>
      </trkpt>
      <trkpt lat="41.15736" lon="1.09655">
        <ele>114.4</ele>
        <time>2022-05-20 19:15:47</time>
      </trkpt>
      <trkpt lat="41.15741" lon="1.09654">
        <ele>114.6</ele>
        <time>2022-05-20 19:15:48</time>
      </trkpt>
      <trkpt lat="41.15746" lon="1.09653">
        <ele>114.6</ele>
        <time>2022-05-20 19:15:49</time>
      </trkpt>
      <trkpt lat="41.15751" lon="1.09652">
        <ele>114.8</ele>
        <time>2022-05-20 19:15:50</time>
      </trkpt>
      <trkpt lat="41.15756" lon="1.0965">
        <ele>115</ele>
        <time>2022-05-20 19:15:51</time>
      </trkpt>
      <trkpt lat="41.15761" lon="1.09649">
        <ele>115.2</ele>
        <time>2022-05-20 19:15:52</time>
      </trkpt>
      <trkpt lat="41.15766" lon="1.09647">
        <ele>115.4</ele>
        <time>2022-05-20 19:15:53</time>
      </trkpt>
      <trkpt lat="41.1577" lon="1.09646">
        <ele>115.8</ele>
        <time>2022-05-20 19:15:54</time>
      </trkpt>
      <trkpt lat="41.15775" lon="1.09643">
        <ele>116</ele>
        <time>2022-05-20 19:15:55</time>
      </trkpt>
      <trkpt lat="41.15779" lon="1.09642">
        <ele>116.2</ele>
        <time>2022-05-20 19:15:56</time>
      </trkpt>
      <trkpt lat="41.15784" lon="1.09641">
        <ele>116.4</ele>
        <time>2022-05-20 19:15:57</time>
      </trkpt>
      <trkpt lat="41.1579" lon="1.0964">
        <ele>116.4</ele>
        <time>2022-05-20 19:15:58</time>
      </trkpt>
      <trkpt lat="41.15796" lon="1.09637">
        <ele>116.6</ele>
        <time>2022-05-20 19:15:59</time>
      </trkpt>
      <trkpt lat="41.15801" lon="1.09634">
        <ele>116.8</ele>
        <time>2022-05-20 19:16:00</time>
      </trkpt>
      <trkpt lat="41.15807" lon="1.09632">
        <ele>117</ele>
        <time>2022-05-20 19:16:01</time>
      </trkpt>
      <trkpt lat="41.15812" lon="1.09629">
        <ele>117.2</ele>
        <time>2022-05-20 19:16:02</time>
      </trkpt>
      <trkpt lat="41.15817" lon="1.09627">
        <ele>117.2</ele>
        <time>2022-05-20 19:16:03</time>
      </trkpt>
      <trkpt lat="41.15821" lon="1.09626">
        <ele>117.4</ele>
        <time>2022-05-20 19:16:04</time>
      </trkpt>
      <trkpt lat="41.15827" lon="1.09627">
        <ele>117.6</ele>
        <time>2022-05-20 19:16:05</time>
      </trkpt>
      <trkpt lat="41.15831" lon="1.0963">
        <ele>117.6</ele>
        <time>2022-05-20 19:16:06</time>
      </trkpt>
      <trkpt lat="41.15834" lon="1.09634">
        <ele>117.8</ele>
        <time>2022-05-20 19:16:07</time>
      </trkpt>
      <trkpt lat="41.15837" lon="1.09639">
        <ele>117.8</ele>
        <time>2022-05-20 19:16:08</time>
      </trkpt>
      <trkpt lat="41.1584" lon="1.09645">
        <ele>118</ele>
        <time>2022-05-20 19:16:09</time>
      </trkpt>
      <trkpt lat="41.15843" lon="1.09652">
        <ele>118</ele>
        <time>2022-05-20 19:16:10</time>
      </trkpt>
      <trkpt lat="41.15845" lon="1.0966">
        <ele>118.2</ele>
        <time>2022-05-20 19:16:11</time>
      </trkpt>
      <trkpt lat="41.15848" lon="1.09667">
        <ele>118.2</ele>
        <time>2022-05-20 19:16:12</time>
      </trkpt>
      <trkpt lat="41.15851" lon="1.09674">
        <ele>118.4</ele>
        <time>2022-05-20 19:16:13</time>
      </trkpt>
      <trkpt lat="41.15854" lon="1.09681">
        <ele>118.4</ele>
        <time>2022-05-20 19:16:14</time>
      </trkpt>
      <trkpt lat="41.15857" lon="1.09689">
        <ele>118.6</ele>
        <time>2022-05-20 19:16:15</time>
      </trkpt>
      <trkpt lat="41.15859" lon="1.09696">
        <ele>118.6</ele>
        <time>2022-05-20 19:16:16</time>
      </trkpt>
      <trkpt lat="41.15861" lon="1.09704">
        <ele>118.8</ele>
        <time>2022-05-20 19:16:17</time>
      </trkpt>
      <trkpt lat="41.15863" lon="1.09712">
        <ele>118.8</ele>
        <time>2022-05-20 19:16:18</time>
      </trkpt>
      <trkpt lat="41.15864" lon="1.09719">
        <ele>118.8</ele>
        <time>2022-05-20 19:16:19</time>
      </trkpt>
      <trkpt lat="41.15866" lon="1.09727">
        <ele>119</ele>
        <time>2022-05-20 19:16:20</time>
      </trkpt>
      <trkpt lat="41.15868" lon="1.09734">
        <ele>119</ele>
        <time>2022-05-20 19:16:21</time>
      </trkpt>
      <trkpt lat="41.1587" lon="1.09742">
        <ele>119</ele>
        <time>2022-05-20 19:16:22</time>
      </trkpt>
      <trkpt lat="41.15871" lon="1.09749">
        <ele>119.2</ele>
        <time>2022-05-20 19:16:23</time>
      </trkpt>
      <trkpt lat="41.15873" lon="1.09757">
        <ele>119.2</ele>
        <time>2022-05-20 19:16:24</time>
      </trkpt>
      <trkpt lat="41.15875" lon="1.09764">
        <ele>119.2</ele>
        <time>2022-05-20 19:16:25</time>
      </trkpt>
      <trkpt lat="41.15876" lon="1.09771">
        <ele>119.2</ele>
        <time>2022-05-20 19:16:26</time>
      </trkpt>
      <trkpt lat="41.15878" lon="1.09779">
        <ele>119.4</ele>
        <time>2022-05-20 19:16:27</time>
      </trkpt>
      <trkpt lat="41.1588" lon="1.09786">
        <ele>119.4</ele>
        <time>2022-05-20 19:16:28</time>
      </trkpt>
      <trkpt lat="41.15884" lon="1.09793">
        <ele>119.4</ele>
        <time>2022-05-20 19:16:29</time>
      </trkpt>
      <trkpt lat="41.15888" lon="1.098">
        <ele>119.6</ele>
        <time>2022-05-20 19:16:30</time>
      </trkpt>
      <trkpt lat="41.15891" lon="1.09808">
        <ele>119.6</ele>
        <time>2022-05-20 19:16:31</time>
      </trkpt>
      <trkpt lat="41.15894" lon="1.09816">
        <ele>119.6</ele>
        <time>2022-05-20 19:16:32</time>
      </trkpt>
      <trkpt lat="41.15895" lon="1.09823">
        <ele>119.6</ele>
        <time>2022-05-20 19:16:33</time>
      </trkpt>
      <trkpt lat="41.15898" lon="1.0983">
        <ele>119.6</ele>
        <time>2022-05-20 19:16:34</time>
      </trkpt>
      <trkpt lat="41.159" lon="1.09837">
        <ele>119.6</ele>
        <time>2022-05-20 19:16:35</time>
      </trkpt>
      <trkpt lat="41.15901" lon="1.09844">
        <ele>119.8</ele>
        <time>2022-05-20 19:16:36</time>
      </trkpt>
      <trkpt lat="41.15903" lon="1.09851">
        <ele>119.8</ele>
        <time>2022-05-20 19:16:37</time>
      </trkpt>
      <trkpt lat="41.15905" lon="1.09859">
        <ele>119.8</ele>
        <time>2022-05-20 19:16:38</time>
      </trkpt>
      <trkpt lat="41.15907" lon="1.09865">
        <ele>119.8</ele>
        <time>2022-05-20 19:16:39</time>
      </trkpt>
      <trkpt lat="41.1591" lon="1.09872">
        <ele>119.8</ele>
        <time>2022-05-20 19:16:40</time>
      </trkpt>
      <trkpt lat="41.15911" lon="1.09879">
        <ele>119.8</ele>
        <time>2022-05-20 19:16:41</time>
      </trkpt>
      <trkpt lat="41.15913" lon="1.09887">
        <ele>119.8</ele>
        <time>2022-05-20 19:16:42</time>
      </trkpt>
      <trkpt lat="41.15914" lon="1.09894">
        <ele>119.8</ele>
        <time>2022-05-20 19:16:43</time>
      </trkpt>
      <trkpt lat="41.15915" lon="1.099">
        <ele>120</ele>
        <time>2022-05-20 19:16:44</time>
      </trkpt>
      <trkpt lat="41.15917" lon="1.09907">
        <ele>120.2</ele>
        <time>2022-05-20 19:16:45</time>
      </trkpt>
      <trkpt lat="41.15919" lon="1.09913">
        <ele>120.2</ele>
        <time>2022-05-20 19:16:46</time>
      </trkpt>
      <trkpt lat="41.15921" lon="1.0992">
        <ele>120.4</ele>
        <time>2022-05-20 19:16:47</time>
      </trkpt>
      <trkpt lat="41.15922" lon="1.09927">
        <ele>120.4</ele>
        <time>2022-05-20 19:16:48</time>
      </trkpt>
      <trkpt lat="41.15923" lon="1.09935">
        <ele>120.4</ele>
        <time>2022-05-20 19:16:49</time>
      </trkpt>
      <trkpt lat="41.15923" lon="1.09942">
        <ele>120.4</ele>
        <time>2022-05-20 19:16:50</time>
      </trkpt>
      <trkpt lat="41.15923" lon="1.0995">
        <ele>120.6</ele>
        <time>2022-05-20 19:16:51</time>
      </trkpt>
      <trkpt lat="41.15923" lon="1.09958">
        <ele>120.6</ele>
        <time>2022-05-20 19:16:52</time>
      </trkpt>
      <trkpt lat="41.15921" lon="1.09965">
        <ele>120.6</ele>
        <time>2022-05-20 19:16:53</time>
      </trkpt>
      <trkpt lat="41.1592" lon="1.09972">
        <ele>120.6</ele>
        <time>2022-05-20 19:16:54</time>
      </trkpt>
      <trkpt lat="41.15919" lon="1.09979">
        <ele>120.8</ele>
        <time>2022-05-20 19:16:55</time>
      </trkpt>
      <trkpt lat="41.15919" lon="1.09985">
        <ele>120.8</ele>
        <time>2022-05-20 19:16:56</time>
      </trkpt>
      <trkpt lat="41.15918" lon="1.09992">
        <ele>121</ele>
        <time>2022-05-20 19:16:57</time>
      </trkpt>
      <trkpt lat="41.15916" lon="1.09998">
        <ele>121</ele>
        <time>2022-05-20 19:16:58</time>
      </trkpt>
      <trkpt lat="41.15915" lon="1.10004">
        <ele>121</ele>
        <time>2022-05-20 19:16:59</time>
      </trkpt>
      <trkpt lat="41.15913" lon="1.10011">
        <ele>121</ele>
        <time>2022-05-20 19:17:00</time>
      </trkpt>
      <trkpt lat="41.15911" lon="1.10017">
        <ele>121.2</ele>
        <time>2022-05-20 19:17:01</time>
      </trkpt>
      <trkpt lat="41.1591" lon="1.10024">
        <ele>121.2</ele>
        <time>2022-05-20 19:17:02</time>
      </trkpt>
      <trkpt lat="41.15909" lon="1.1003">
        <ele>121.2</ele>
        <time>2022-05-20 19:17:03</time>
      </trkpt>
      <trkpt lat="41.15909" lon="1.10037">
        <ele>121.4</ele>
        <time>2022-05-20 19:17:04</time>
      </trkpt>
      <trkpt lat="41.15909" lon="1.10043">
        <ele>121.4</ele>
        <time>2022-05-20 19:17:05</time>
      </trkpt>
      <trkpt lat="41.15909" lon="1.1005">
        <ele>121.4</ele>
        <time>2022-05-20 19:17:06</time>
      </trkpt>
      <trkpt lat="41.1591" lon="1.10056">
        <ele>121.6</ele>
        <time>2022-05-20 19:17:07</time>
      </trkpt>
      <trkpt lat="41.15913" lon="1.10062">
        <ele>121.6</ele>
        <time>2022-05-20 19:17:08</time>
      </trkpt>
      <trkpt lat="41.15917" lon="1.10068">
        <ele>121.6</ele>
        <time>2022-05-20 19:17:09</time>
      </trkpt>
      <trkpt lat="41.15922" lon="1.10072">
        <ele>121.8</ele>
        <time>2022-05-20 19:17:10</time>
      </trkpt>
      <trkpt lat="41.15926" lon="1.10076">
        <ele>121.8</ele>
        <time>2022-05-20 19:17:11</time>
      </trkpt>
      <trkpt lat="41.1593" lon="1.10079">
        <ele>122</ele>
        <time>2022-05-20 19:17:12</time>
      </trkpt>
      <trkpt lat="41.15934" lon="1.10082">
        <ele>122</ele>
        <time>2022-05-20 19:17:13</time>
      </trkpt>
      <trkpt lat="41.15937" lon="1.10086">
        <ele>122.2</ele>
        <time>2022-05-20 19:17:14</time>
      </trkpt>
      <trkpt lat="41.15941" lon="1.1009">
        <ele>122.2</ele>
        <time>2022-05-20 19:17:15</time>
      </trkpt>
      <trkpt lat="41.15945" lon="1.10094">
        <ele>122.4</ele>
        <time>2022-05-20 19:17:16</time>
      </trkpt>
      <trkpt lat="41.15948" lon="1.10098">
        <ele>122.4</ele>
        <time>2022-05-20 19:17:17</time>
      </trkpt>
      <trkpt lat="41.15952" lon="1.10102">
        <ele>122.6</ele>
        <time>2022-05-20 19:17:18</time>
      </trkpt>
      <trkpt lat="41.15957" lon="1.10106">
        <ele>122.8</ele>
        <time>2022-05-20 19:17:19</time>
      </trkpt>
      <trkpt lat="41.15962" lon="1.1011">
        <ele>122.8</ele>
        <time>2022-05-20 19:17:20</time>
      </trkpt>
      <trkpt lat="41.15966" lon="1.10115">
        <ele>122.8</ele>
        <time>2022-05-20 19:17:21</time>
      </trkpt>
      <trkpt lat="41.15971" lon="1.10119">
        <ele>122.8</ele>
        <time>2022-05-20 19:17:22</time>
      </trkpt>
      <trkpt lat="41.15976" lon="1.10124">
        <ele>122.6</ele>
        <time>2022-05-20 19:17:23</time>
      </trkpt>
      <trkpt lat="41.15979" lon="1.10128">
        <ele>122.8</ele>
        <time>2022-05-20 19:17:24</time>
      </trkpt>
      <trkpt lat="41.15984" lon="1.10133">
        <ele>122.8</ele>
        <time>2022-05-20 19:17:25</time>
      </trkpt>
      <trkpt lat="41.15989" lon="1.10138">
        <ele>122.8</ele>
        <time>2022-05-20 19:17:26</time>
      </trkpt>
      <trkpt lat="41.15993" lon="1.10142">
        <ele>122.8</ele>
        <time>2022-05-20 19:17:27</time>
      </trkpt>
      <trkpt lat="41.15998" lon="1.10147">
        <ele>123</ele>
        <time>2022-05-20 19:17:28</time>
      </trkpt>
      <trkpt lat="41.16003" lon="1.10152">
        <ele>123</ele>
        <time>2022-05-20 19:17:29</time>
      </trkpt>
      <trkpt lat="41.16007" lon="1.10156">
        <ele>123</ele>
        <time>2022-05-20 19:17:30</time>
      </trkpt>
      <trkpt lat="41.16012" lon="1.10161">
        <ele>123.2</ele>
        <time>2022-05-20 19:17:31</time>
      </trkpt>
      <trkpt lat="41.16016" lon="1.10166">
        <ele>123.2</ele>
        <time>2022-05-20 19:17:32</time>
      </trkpt>
      <trkpt lat="41.1602" lon="1.10171">
        <ele>123.4</ele>
        <time>2022-05-20 19:17:33</time>
      </trkpt>
      <trkpt lat="41.16024" lon="1.10176">
        <ele>123.4</ele>
        <time>2022-05-20 19:17:34</time>
      </trkpt>
      <trkpt lat="41.16028" lon="1.10181">
        <ele>123.6</ele>
        <time>2022-05-20 19:17:35</time>
      </trkpt>
      <trkpt lat="41.16031" lon="1.10185">
        <ele>123.6</ele>
        <time>2022-05-20 19:17:36</time>
      </trkpt>
      <trkpt lat="41.16035" lon="1.1019">
        <ele>123.8</ele>
        <time>2022-05-20 19:17:37</time>
      </trkpt>
      <trkpt lat="41.1604" lon="1.10194">
        <ele>123.8</ele>
        <time>2022-05-20 19:17:38</time>
      </trkpt>
      <trkpt lat="41.16045" lon="1.10199">
        <ele>123.8</ele>
        <time>2022-05-20 19:17:39</time>
      </trkpt>
      <trkpt lat="41.16049" lon="1.10204">
        <ele>123.8</ele>
        <time>2022-05-20 19:17:40</time>
      </trkpt>
      <trkpt lat="41.16054" lon="1.10209">
        <ele>123.8</ele>
        <time>2022-05-20 19:17:41</time>
      </trkpt>
      <trkpt lat="41.16059" lon="1.10214">
        <ele>124</ele>
        <time>2022-05-20 19:17:42</time>
      </trkpt>
      <trkpt lat="41.16064" lon="1.10219">
        <ele>124</ele>
        <time>2022-05-20 19:17:43</time>
      </trkpt>
      <trkpt lat="41.16068" lon="1.10224">
        <ele>124</ele>
        <time>2022-05-20 19:17:44</time>
      </trkpt>
      <trkpt lat="41.16072" lon="1.10229">
        <ele>124.2</ele>
        <time>2022-05-20 19:17:45</time>
      </trkpt>
      <trkpt lat="41.16076" lon="1.10234">
        <ele>124.2</ele>
        <time>2022-05-20 19:17:46</time>
      </trkpt>
      <trkpt lat="41.16081" lon="1.10239">
        <ele>124.2</ele>
        <time>2022-05-20 19:17:47</time>
      </trkpt>
      <trkpt lat="41.16085" lon="1.10243">
        <ele>124.2</ele>
        <time>2022-05-20 19:17:48</time>
      </trkpt>
      <trkpt lat="41.1609" lon="1.10248">
        <ele>124.2</ele>
        <time>2022-05-20 19:17:49</time>
      </trkpt>
      <trkpt lat="41.16095" lon="1.10253">
        <ele>124.4</ele>
        <time>2022-05-20 19:17:50</time>
      </trkpt>
      <trkpt lat="41.16099" lon="1.10257">
        <ele>124.4</ele>
        <time>2022-05-20 19:17:51</time>
      </trkpt>
      <trkpt lat="41.16103" lon="1.10262">
        <ele>124.4</ele>
        <time>2022-05-20 19:17:52</time>
      </trkpt>
      <trkpt lat="41.16108" lon="1.10267">
        <ele>124.4</ele>
        <time>2022-05-20 19:17:53</time>
      </trkpt>
      <trkpt lat="41.16112" lon="1.10271">
        <ele>124.4</ele>
        <time>2022-05-20 19:17:54</time>
      </trkpt>
      <trkpt lat="41.16116" lon="1.10276">
        <ele>124.4</ele>
        <time>2022-05-20 19:17:55</time>
      </trkpt>
      <trkpt lat="41.1612" lon="1.10281">
        <ele>124.4</ele>
        <time>2022-05-20 19:17:56</time>
      </trkpt>
      <trkpt lat="41.16123" lon="1.10286">
        <ele>124.4</ele>
        <time>2022-05-20 19:17:57</time>
      </trkpt>
      <trkpt lat="41.16127" lon="1.10291">
        <ele>124.4</ele>
        <time>2022-05-20 19:17:58</time>
      </trkpt>
      <trkpt lat="41.16131" lon="1.10297">
        <ele>124.4</ele>
        <time>2022-05-20 19:17:59</time>
      </trkpt>
      <trkpt lat="41.16135" lon="1.10301">
        <ele>124.2</ele>
        <time>2022-05-20 19:18:00</time>
      </trkpt>
      <trkpt lat="41.16139" lon="1.10305">
        <ele>124</ele>
        <time>2022-05-20 19:18:01</time>
      </trkpt>
      <trkpt lat="41.16143" lon="1.10309">
        <ele>124</ele>
        <time>2022-05-20 19:18:02</time>
      </trkpt>
      <trkpt lat="41.16148" lon="1.10312">
        <ele>124.2</ele>
        <time>2022-05-20 19:18:03</time>
      </trkpt>
      <trkpt lat="41.16152" lon="1.10316">
        <ele>124.2</ele>
        <time>2022-05-20 19:18:04</time>
      </trkpt>
      <trkpt lat="41.16156" lon="1.10321">
        <ele>124.4</ele>
        <time>2022-05-20 19:18:05</time>
      </trkpt>
      <trkpt lat="41.16159" lon="1.10326">
        <ele>124.6</ele>
        <time>2022-05-20 19:18:06</time>
      </trkpt>
      <trkpt lat="41.16162" lon="1.10331">
        <ele>124.6</ele>
        <time>2022-05-20 19:18:07</time>
      </trkpt>
      <trkpt lat="41.16165" lon="1.10336">
        <ele>124.8</ele>
        <time>2022-05-20 19:18:08</time>
      </trkpt>
      <trkpt lat="41.16169" lon="1.10342">
        <ele>125</ele>
        <time>2022-05-20 19:18:09</time>
      </trkpt>
      <trkpt lat="41.16172" lon="1.10347">
        <ele>125.2</ele>
        <time>2022-05-20 19:18:10</time>
      </trkpt>
      <trkpt lat="41.16176" lon="1.10353">
        <ele>125.4</ele>
        <time>2022-05-20 19:18:11</time>
      </trkpt>
      <trkpt lat="41.16179" lon="1.10358">
        <ele>125.4</ele>
        <time>2022-05-20 19:18:12</time>
      </trkpt>
      <trkpt lat="41.16182" lon="1.10363">
        <ele>125.6</ele>
        <time>2022-05-20 19:18:13</time>
      </trkpt>
      <trkpt lat="41.16185" lon="1.10368">
        <ele>125.8</ele>
        <time>2022-05-20 19:18:14</time>
      </trkpt>
      <trkpt lat="41.16189" lon="1.10373">
        <ele>126</ele>
        <time>2022-05-20 19:18:15</time>
      </trkpt>
      <trkpt lat="41.16193" lon="1.10378">
        <ele>126.2</ele>
        <time>2022-05-20 19:18:16</time>
      </trkpt>
      <trkpt lat="41.16196" lon="1.10382">
        <ele>126.4</ele>
        <time>2022-05-20 19:18:17</time>
      </trkpt>
      <trkpt lat="41.16199" lon="1.10386">
        <ele>126.4</ele>
        <time>2022-05-20 19:18:18</time>
      </trkpt>
      <trkpt lat="41.16201" lon="1.1039">
        <ele>126.6</ele>
        <time>2022-05-20 19:18:19</time>
      </trkpt>
      <trkpt lat="41.16204" lon="1.10394">
        <ele>126.6</ele>
        <time>2022-05-20 19:18:20</time>
      </trkpt>
      <trkpt lat="41.16206" lon="1.10398">
        <ele>126.6</ele>
        <time>2022-05-20 19:18:21</time>
      </trkpt>
      <trkpt lat="41.16208" lon="1.10402">
        <ele>126.6</ele>
        <time>2022-05-20 19:18:22</time>
      </trkpt>
      <trkpt lat="41.1621" lon="1.10408">
        <ele>126.8</ele>
        <time>2022-05-20 19:18:23</time>
      </trkpt>
      <trkpt lat="41.16212" lon="1.10411">
        <ele>126.8</ele>
        <time>2022-05-20 19:18:24</time>
      </trkpt>
      <trkpt lat="41.16213" lon="1.10414">
        <ele>126.8</ele>
        <time>2022-05-20 19:18:25</time>
      </trkpt>
      <trkpt lat="41.16214" lon="1.10415">
        <ele>126.8</ele>
        <time>2022-05-20 19:18:26</time>
      </trkpt>
      <trkpt lat="41.16215" lon="1.10417">
        <ele>126.8</ele>
        <time>2022-05-20 19:18:27</time>
      </trkpt>
      <trkpt lat="41.16216" lon="1.1042">
        <ele>126.8</ele>
        <time>2022-05-20 19:18:28</time>
      </trkpt>
      <trkpt lat="41.16218" lon="1.10422">
        <ele>126.8</ele>
        <time>2022-05-20 19:18:29</time>
      </trkpt>
      <trkpt lat="41.1622" lon="1.10427">
        <ele>126.8</ele>
        <time>2022-05-20 19:18:30</time>
      </trkpt>
      <trkpt lat="41.16223" lon="1.10432">
        <ele>126.8</ele>
        <time>2022-05-20 19:18:31</time>
      </trkpt>
      <trkpt lat="41.16226" lon="1.10438">
        <ele>126.6</ele>
        <time>2022-05-20 19:18:32</time>
      </trkpt>
      <trkpt lat="41.16229" lon="1.10443">
        <ele>126.6</ele>
        <time>2022-05-20 19:18:33</time>
      </trkpt>
      <trkpt lat="41.16233" lon="1.10449">
        <ele>126.4</ele>
        <time>2022-05-20 19:18:34</time>
      </trkpt>
      <trkpt lat="41.16235" lon="1.10454">
        <ele>126.4</ele>
        <time>2022-05-20 19:18:35</time>
      </trkpt>
      <trkpt lat="41.16239" lon="1.1046">
        <ele>126.6</ele>
        <time>2022-05-20 19:18:36</time>
      </trkpt>
      <trkpt lat="41.16243" lon="1.10466">
        <ele>126.6</ele>
        <time>2022-05-20 19:18:37</time>
      </trkpt>
      <trkpt lat="41.16246" lon="1.10473">
        <ele>126.6</ele>
        <time>2022-05-20 19:18:38</time>
      </trkpt>
      <trkpt lat="41.16251" lon="1.10479">
        <ele>126.4</ele>
        <time>2022-05-20 19:18:39</time>
      </trkpt>
      <trkpt lat="41.16256" lon="1.10485">
        <ele>126.4</ele>
        <time>2022-05-20 19:18:40</time>
      </trkpt>
      <trkpt lat="41.1626" lon="1.10491">
        <ele>126.4</ele>
        <time>2022-05-20 19:18:41</time>
      </trkpt>
      <trkpt lat="41.16264" lon="1.10497">
        <ele>126.4</ele>
        <time>2022-05-20 19:18:42</time>
      </trkpt>
      <trkpt lat="41.16267" lon="1.10503">
        <ele>126.4</ele>
        <time>2022-05-20 19:18:43</time>
      </trkpt>
      <trkpt lat="41.16271" lon="1.1051">
        <ele>126.4</ele>
        <time>2022-05-20 19:18:44</time>
      </trkpt>
      <trkpt lat="41.16274" lon="1.10516">
        <ele>126.4</ele>
        <time>2022-05-20 19:18:45</time>
      </trkpt>
      <trkpt lat="41.16278" lon="1.10523">
        <ele>126.2</ele>
        <time>2022-05-20 19:18:46</time>
      </trkpt>
      <trkpt lat="41.16282" lon="1.1053">
        <ele>126.2</ele>
        <time>2022-05-20 19:18:47</time>
      </trkpt>
      <trkpt lat="41.16286" lon="1.10537">
        <ele>126</ele>
        <time>2022-05-20 19:18:48</time>
      </trkpt>
      <trkpt lat="41.1629" lon="1.10543">
        <ele>126</ele>
        <time>2022-05-20 19:18:49</time>
      </trkpt>
      <trkpt lat="41.16294" lon="1.1055">
        <ele>125.8</ele>
        <time>2022-05-20 19:18:50</time>
      </trkpt>
      <trkpt lat="41.16298" lon="1.10556">
        <ele>125.8</ele>
        <time>2022-05-20 19:18:51</time>
      </trkpt>
      <trkpt lat="41.16302" lon="1.10563">
        <ele>125.6</ele>
        <time>2022-05-20 19:18:52</time>
      </trkpt>
      <trkpt lat="41.16306" lon="1.10569">
        <ele>125.6</ele>
        <time>2022-05-20 19:18:53</time>
      </trkpt>
      <trkpt lat="41.16309" lon="1.10576">
        <ele>125.6</ele>
        <time>2022-05-20 19:18:54</time>
      </trkpt>
      <trkpt lat="41.16314" lon="1.10583">
        <ele>125.6</ele>
        <time>2022-05-20 19:18:55</time>
      </trkpt>
      <trkpt lat="41.16318" lon="1.1059">
        <ele>125.6</ele>
        <time>2022-05-20 19:18:56</time>
      </trkpt>
      <trkpt lat="41.16322" lon="1.10597">
        <ele>125.6</ele>
        <time>2022-05-20 19:18:57</time>
      </trkpt>
      <trkpt lat="41.16327" lon="1.10604">
        <ele>125.4</ele>
        <time>2022-05-20 19:18:58</time>
      </trkpt>
      <trkpt lat="41.16333" lon="1.10612">
        <ele>125.4</ele>
        <time>2022-05-20 19:18:59</time>
      </trkpt>
      <trkpt lat="41.16337" lon="1.10619">
        <ele>125.4</ele>
        <time>2022-05-20 19:19:00</time>
      </trkpt>
      <trkpt lat="41.16342" lon="1.10626">
        <ele>125.4</ele>
        <time>2022-05-20 19:19:01</time>
      </trkpt>
      <trkpt lat="41.16347" lon="1.10633">
        <ele>125.2</ele>
        <time>2022-05-20 19:19:02</time>
      </trkpt>
      <trkpt lat="41.16352" lon="1.1064">
        <ele>125.4</ele>
        <time>2022-05-20 19:19:03</time>
      </trkpt>
      <trkpt lat="41.16356" lon="1.10647">
        <ele>125.2</ele>
        <time>2022-05-20 19:19:04</time>
      </trkpt>
      <trkpt lat="41.16361" lon="1.10654">
        <ele>125.2</ele>
        <time>2022-05-20 19:19:05</time>
      </trkpt>
      <trkpt lat="41.16365" lon="1.10661">
        <ele>125.2</ele>
        <time>2022-05-20 19:19:06</time>
      </trkpt>
      <trkpt lat="41.1637" lon="1.10667">
        <ele>125</ele>
        <time>2022-05-20 19:19:07</time>
      </trkpt>
      <trkpt lat="41.16375" lon="1.10675">
        <ele>125</ele>
        <time>2022-05-20 19:19:08</time>
      </trkpt>
      <trkpt lat="41.1638" lon="1.10683">
        <ele>125</ele>
        <time>2022-05-20 19:19:09</time>
      </trkpt>
      <trkpt lat="41.16385" lon="1.1069">
        <ele>125</ele>
        <time>2022-05-20 19:19:10</time>
      </trkpt>
      <trkpt lat="41.16389" lon="1.10699">
        <ele>125</ele>
        <time>2022-05-20 19:19:11</time>
      </trkpt>
      <trkpt lat="41.16393" lon="1.10707">
        <ele>125</ele>
        <time>2022-05-20 19:19:12</time>
      </trkpt>
      <trkpt lat="41.16396" lon="1.10715">
        <ele>125</ele>
        <time>2022-05-20 19:19:13</time>
      </trkpt>
      <trkpt lat="41.16399" lon="1.10724">
        <ele>125</ele>
        <time>2022-05-20 19:19:14</time>
      </trkpt>
      <trkpt lat="41.16403" lon="1.10732">
        <ele>124.8</ele>
        <time>2022-05-20 19:19:15</time>
      </trkpt>
      <trkpt lat="41.16406" lon="1.10741">
        <ele>125</ele>
        <time>2022-05-20 19:19:16</time>
      </trkpt>
      <trkpt lat="41.16409" lon="1.1075">
        <ele>124.8</ele>
        <time>2022-05-20 19:19:17</time>
      </trkpt>
      <trkpt lat="41.16412" lon="1.10759">
        <ele>124.8</ele>
        <time>2022-05-20 19:19:18</time>
      </trkpt>
      <trkpt lat="41.16415" lon="1.10768">
        <ele>124.8</ele>
        <time>2022-05-20 19:19:19</time>
      </trkpt>
      <trkpt lat="41.16418" lon="1.10777">
        <ele>124.6</ele>
        <time>2022-05-20 19:19:20</time>
      </trkpt>
      <trkpt lat="41.1642" lon="1.10786">
        <ele>124.6</ele>
        <time>2022-05-20 19:19:21</time>
      </trkpt>
      <trkpt lat="41.16422" lon="1.10795">
        <ele>124.6</ele>
        <time>2022-05-20 19:19:22</time>
      </trkpt>
      <trkpt lat="41.16424" lon="1.10805">
        <ele>124.6</ele>
        <time>2022-05-20 19:19:23</time>
      </trkpt>
      <trkpt lat="41.16425" lon="1.10815">
        <ele>124.4</ele>
        <time>2022-05-20 19:19:24</time>
      </trkpt>
      <trkpt lat="41.16426" lon="1.10824">
        <ele>124.4</ele>
        <time>2022-05-20 19:19:25</time>
      </trkpt>
      <trkpt lat="41.16427" lon="1.10834">
        <ele>124.4</ele>
        <time>2022-05-20 19:19:26</time>
      </trkpt>
      <trkpt lat="41.16428" lon="1.10844">
        <ele>124.4</ele>
        <time>2022-05-20 19:19:27</time>
      </trkpt>
      <trkpt lat="41.16428" lon="1.10855">
        <ele>124.4</ele>
        <time>2022-05-20 19:19:28</time>
      </trkpt>
      <trkpt lat="41.16429" lon="1.10865">
        <ele>124.4</ele>
        <time>2022-05-20 19:19:29</time>
      </trkpt>
      <trkpt lat="41.16429" lon="1.10876">
        <ele>124.2</ele>
        <time>2022-05-20 19:19:30</time>
      </trkpt>
      <trkpt lat="41.1643" lon="1.10886">
        <ele>124.2</ele>
        <time>2022-05-20 19:19:31</time>
      </trkpt>
      <trkpt lat="41.1643" lon="1.10896">
        <ele>124</ele>
        <time>2022-05-20 19:19:32</time>
      </trkpt>
      <trkpt lat="41.1643" lon="1.10907">
        <ele>124</ele>
        <time>2022-05-20 19:19:33</time>
      </trkpt>
      <trkpt lat="41.1643" lon="1.10917">
        <ele>124</ele>
        <time>2022-05-20 19:19:34</time>
      </trkpt>
      <trkpt lat="41.16431" lon="1.10927">
        <ele>124</ele>
        <time>2022-05-20 19:19:35</time>
      </trkpt>
      <trkpt lat="41.16431" lon="1.10937">
        <ele>124</ele>
        <time>2022-05-20 19:19:36</time>
      </trkpt>
      <trkpt lat="41.16431" lon="1.10947">
        <ele>123.8</ele>
        <time>2022-05-20 19:19:37</time>
      </trkpt>
      <trkpt lat="41.16432" lon="1.10957">
        <ele>123.8</ele>
        <time>2022-05-20 19:19:38</time>
      </trkpt>
      <trkpt lat="41.16432" lon="1.10967">
        <ele>123.8</ele>
        <time>2022-05-20 19:19:39</time>
      </trkpt>
      <trkpt lat="41.16432" lon="1.10978">
        <ele>123.8</ele>
        <time>2022-05-20 19:19:40</time>
      </trkpt>
      <trkpt lat="41.16432" lon="1.10988">
        <ele>123.6</ele>
        <time>2022-05-20 19:19:41</time>
      </trkpt>
      <trkpt lat="41.16431" lon="1.10999">
        <ele>123.6</ele>
        <time>2022-05-20 19:19:42</time>
      </trkpt>
      <trkpt lat="41.1643" lon="1.1101">
        <ele>123.6</ele>
        <time>2022-05-20 19:19:43</time>
      </trkpt>
      <trkpt lat="41.16428" lon="1.1102">
        <ele>123.4</ele>
        <time>2022-05-20 19:19:44</time>
      </trkpt>
      <trkpt lat="41.16426" lon="1.11031">
        <ele>123.2</ele>
        <time>2022-05-20 19:19:45</time>
      </trkpt>
      <trkpt lat="41.16424" lon="1.1104">
        <ele>123</ele>
        <time>2022-05-20 19:19:46</time>
      </trkpt>
      <trkpt lat="41.16421" lon="1.11049">
        <ele>123</ele>
        <time>2022-05-20 19:19:47</time>
      </trkpt>
      <trkpt lat="41.16417" lon="1.11057">
        <ele>122.8</ele>
        <time>2022-05-20 19:19:48</time>
      </trkpt>
      <trkpt lat="41.16413" lon="1.11065">
        <ele>122.6</ele>
        <time>2022-05-20 19:19:49</time>
      </trkpt>
      <trkpt lat="41.16408" lon="1.11072">
        <ele>122.6</ele>
        <time>2022-05-20 19:19:50</time>
      </trkpt>
      <trkpt lat="41.16402" lon="1.11079">
        <ele>122.4</ele>
        <time>2022-05-20 19:19:51</time>
      </trkpt>
      <trkpt lat="41.16397" lon="1.11084">
        <ele>122.4</ele>
        <time>2022-05-20 19:19:52</time>
      </trkpt>
      <trkpt lat="41.16391" lon="1.11089">
        <ele>122</ele>
        <time>2022-05-20 19:19:53</time>
      </trkpt>
      <trkpt lat="41.16384" lon="1.11093">
        <ele>122</ele>
        <time>2022-05-20 19:19:54</time>
      </trkpt>
      <trkpt lat="41.16377" lon="1.11096">
        <ele>121.8</ele>
        <time>2022-05-20 19:19:55</time>
      </trkpt>
      <trkpt lat="41.1637" lon="1.11099">
        <ele>121.6</ele>
        <time>2022-05-20 19:19:56</time>
      </trkpt>
      <trkpt lat="41.16362" lon="1.11102">
        <ele>121.4</ele>
        <time>2022-05-20 19:19:57</time>
      </trkpt>
      <trkpt lat="41.16355" lon="1.11105">
        <ele>121.2</ele>
        <time>2022-05-20 19:19:58</time>
      </trkpt>
      <trkpt lat="41.16347" lon="1.11107">
        <ele>121</ele>
        <time>2022-05-20 19:19:59</time>
      </trkpt>
      <trkpt lat="41.16339" lon="1.1111">
        <ele>120.8</ele>
        <time>2022-05-20 19:20:00</time>
      </trkpt>
      <trkpt lat="41.16331" lon="1.11113">
        <ele>120.6</ele>
        <time>2022-05-20 19:20:01</time>
      </trkpt>
      <trkpt lat="41.16324" lon="1.11115">
        <ele>120.4</ele>
        <time>2022-05-20 19:20:02</time>
      </trkpt>
      <trkpt lat="41.16316" lon="1.11117">
        <ele>120.2</ele>
        <time>2022-05-20 19:20:03</time>
      </trkpt>
      <trkpt lat="41.16309" lon="1.1112">
        <ele>120.2</ele>
        <time>2022-05-20 19:20:04</time>
      </trkpt>
      <trkpt lat="41.16302" lon="1.11122">
        <ele>120</ele>
        <time>2022-05-20 19:20:05</time>
      </trkpt>
      <trkpt lat="41.16294" lon="1.11124">
        <ele>120</ele>
        <time>2022-05-20 19:20:06</time>
      </trkpt>
      <trkpt lat="41.16286" lon="1.11125">
        <ele>119.8</ele>
        <time>2022-05-20 19:20:07</time>
      </trkpt>
      <trkpt lat="41.16279" lon="1.11126">
        <ele>119.4</ele>
        <time>2022-05-20 19:20:08</time>
      </trkpt>
      <trkpt lat="41.16272" lon="1.11126">
        <ele>119.2</ele>
        <time>2022-05-20 19:20:09</time>
      </trkpt>
      <trkpt lat="41.16264" lon="1.11125">
        <ele>118.8</ele>
        <time>2022-05-20 19:20:10</time>
      </trkpt>
      <trkpt lat="41.16257" lon="1.11125">
        <ele>118.6</ele>
        <time>2022-05-20 19:20:11</time>
      </trkpt>
      <trkpt lat="41.16251" lon="1.11124">
        <ele>118.2</ele>
        <time>2022-05-20 19:20:12</time>
      </trkpt>
      <trkpt lat="41.16245" lon="1.11122">
        <ele>117.8</ele>
        <time>2022-05-20 19:20:13</time>
      </trkpt>
      <trkpt lat="41.16239" lon="1.1112">
        <ele>117.6</ele>
        <time>2022-05-20 19:20:14</time>
      </trkpt>
      <trkpt lat="41.16234" lon="1.11117">
        <ele>117.2</ele>
        <time>2022-05-20 19:20:15</time>
      </trkpt>
      <trkpt lat="41.1623" lon="1.11115">
        <ele>117</ele>
        <time>2022-05-20 19:20:16</time>
      </trkpt>
      <trkpt lat="41.16227" lon="1.11112">
        <ele>116.8</ele>
        <time>2022-05-20 19:20:17</time>
      </trkpt>
      <trkpt lat="41.16224" lon="1.1111">
        <ele>116.8</ele>
        <time>2022-05-20 19:20:18</time>
      </trkpt>
      <trkpt lat="41.1622" lon="1.11108">
        <ele>116.6</ele>
        <time>2022-05-20 19:20:19</time>
      </trkpt>
      <trkpt lat="41.16216" lon="1.11106">
        <ele>116.4</ele>
        <time>2022-05-20 19:20:20</time>
      </trkpt>
      <trkpt lat="41.16211" lon="1.11103">
        <ele>116.4</ele>
        <time>2022-05-20 19:20:21</time>
      </trkpt>
      <trkpt lat="41.16207" lon="1.11102">
        <ele>116.4</ele>
        <time>2022-05-20 19:20:22</time>
      </trkpt>
      <trkpt lat="41.16204" lon="1.11102">
        <ele>116.4</ele>
        <time>2022-05-20 19:20:23</time>
      </trkpt>
      <trkpt lat="41.162" lon="1.11103">
        <ele>116.4</ele>
        <time>2022-05-20 19:20:24</time>
      </trkpt>
      <trkpt lat="41.16197" lon="1.11104">
        <ele>116.4</ele>
        <time>2022-05-20 19:20:25</time>
      </trkpt>
      <trkpt lat="41.16194" lon="1.11106">
        <ele>116.4</ele>
        <time>2022-05-20 19:20:26</time>
      </trkpt>
      <trkpt lat="41.16191" lon="1.11107">
        <ele>116.4</ele>
        <time>2022-05-20 19:20:27</time>
      </trkpt>
      <trkpt lat="41.1619" lon="1.11109">
        <ele>116.4</ele>
        <time>2022-05-20 19:20:28</time>
      </trkpt>
      <trkpt lat="41.16188" lon="1.1111">
        <ele>116.4</ele>
        <time>2022-05-20 19:20:29</time>
      </trkpt>
      <trkpt lat="41.16186" lon="1.11111">
        <ele>116.4</ele>
        <time>2022-05-20 19:20:30</time>
      </trkpt>
      <trkpt lat="41.16185" lon="1.11113">
        <ele>116.2</ele>
        <time>2022-05-20 19:20:31</time>
      </trkpt>
      <trkpt lat="41.16183" lon="1.11116">
        <ele>116.2</ele>
        <time>2022-05-20 19:20:32</time>
      </trkpt>
      <trkpt lat="41.16181" lon="1.1112">
        <ele>116.2</ele>
        <time>2022-05-20 19:20:33</time>
      </trkpt>
      <trkpt lat="41.1618" lon="1.11124">
        <ele>116.2</ele>
        <time>2022-05-20 19:20:34</time>
      </trkpt>
      <trkpt lat="41.1618" lon="1.11129">
        <ele>116.2</ele>
        <time>2022-05-20 19:20:35</time>
      </trkpt>
      <trkpt lat="41.16181" lon="1.11133">
        <ele>116.2</ele>
        <time>2022-05-20 19:20:36</time>
      </trkpt>
      <trkpt lat="41.16182" lon="1.11137">
        <ele>116.2</ele>
        <time>2022-05-20 19:20:37</time>
      </trkpt>
      <trkpt lat="41.16182" lon="1.1114">
        <ele>116.2</ele>
        <time>2022-05-20 19:20:38</time>
      </trkpt>
      <trkpt lat="41.16183" lon="1.11142">
        <ele>116.4</ele>
        <time>2022-05-20 19:20:39</time>
      </trkpt>
      <trkpt lat="41.16183" lon="1.11145">
        <ele>116.4</ele>
        <time>2022-05-20 19:20:40</time>
      </trkpt>
      <trkpt lat="41.16184" lon="1.11148">
        <ele>116.4</ele>
        <time>2022-05-20 19:20:41</time>
      </trkpt>
      <trkpt lat="41.16185" lon="1.11151">
        <ele>116.4</ele>
        <time>2022-05-20 19:20:42</time>
      </trkpt>
      <trkpt lat="41.16185" lon="1.11155">
        <ele>116.4</ele>
        <time>2022-05-20 19:20:43</time>
      </trkpt>
      <trkpt lat="41.16185" lon="1.1116">
        <ele>116.4</ele>
        <time>2022-05-20 19:20:44</time>
      </trkpt>
      <trkpt lat="41.16185" lon="1.11165">
        <ele>116.4</ele>
        <time>2022-05-20 19:20:45</time>
      </trkpt>
      <trkpt lat="41.16184" lon="1.11171">
        <ele>116.4</ele>
        <time>2022-05-20 19:20:46</time>
      </trkpt>
      <trkpt lat="41.16183" lon="1.11177">
        <ele>116.2</ele>
        <time>2022-05-20 19:20:47</time>
      </trkpt>
      <trkpt lat="41.16182" lon="1.11184">
        <ele>116.2</ele>
        <time>2022-05-20 19:20:48</time>
      </trkpt>
      <trkpt lat="41.1618" lon="1.11191">
        <ele>116</ele>
        <time>2022-05-20 19:20:49</time>
      </trkpt>
      <trkpt lat="41.16179" lon="1.11198">
        <ele>116</ele>
        <time>2022-05-20 19:20:50</time>
      </trkpt>
      <trkpt lat="41.16179" lon="1.11205">
        <ele>116</ele>
        <time>2022-05-20 19:20:51</time>
      </trkpt>
      <trkpt lat="41.16177" lon="1.11213">
        <ele>116</ele>
        <time>2022-05-20 19:20:52</time>
      </trkpt>
      <trkpt lat="41.16176" lon="1.11221">
        <ele>115.8</ele>
        <time>2022-05-20 19:20:53</time>
      </trkpt>
      <trkpt lat="41.16174" lon="1.11229">
        <ele>115.6</ele>
        <time>2022-05-20 19:20:54</time>
      </trkpt>
      <trkpt lat="41.16173" lon="1.11237">
        <ele>115.6</ele>
        <time>2022-05-20 19:20:55</time>
      </trkpt>
      <trkpt lat="41.16171" lon="1.11246">
        <ele>115.6</ele>
        <time>2022-05-20 19:20:56</time>
      </trkpt>
      <trkpt lat="41.16169" lon="1.11254">
        <ele>115.6</ele>
        <time>2022-05-20 19:20:57</time>
      </trkpt>
      <trkpt lat="41.16167" lon="1.11262">
        <ele>115.6</ele>
        <time>2022-05-20 19:20:58</time>
      </trkpt>
      <trkpt lat="41.16166" lon="1.1127">
        <ele>115.6</ele>
        <time>2022-05-20 19:20:59</time>
      </trkpt>
      <trkpt lat="41.16164" lon="1.11278">
        <ele>115.6</ele>
        <time>2022-05-20 19:21:00</time>
      </trkpt>
      <trkpt lat="41.16162" lon="1.11285">
        <ele>115.4</ele>
        <time>2022-05-20 19:21:01</time>
      </trkpt>
      <trkpt lat="41.1616" lon="1.11292">
        <ele>115.4</ele>
        <time>2022-05-20 19:21:02</time>
      </trkpt>
      <trkpt lat="41.16158" lon="1.11301">
        <ele>115.4</ele>
        <time>2022-05-20 19:21:03</time>
      </trkpt>
      <trkpt lat="41.16156" lon="1.11309">
        <ele>115.4</ele>
        <time>2022-05-20 19:21:04</time>
      </trkpt>
      <trkpt lat="41.16153" lon="1.11317">
        <ele>115.4</ele>
        <time>2022-05-20 19:21:05</time>
      </trkpt>
      <trkpt lat="41.16151" lon="1.11326">
        <ele>115.2</ele>
        <time>2022-05-20 19:21:06</time>
      </trkpt>
      <trkpt lat="41.16148" lon="1.11333">
        <ele>115.2</ele>
        <time>2022-05-20 19:21:07</time>
      </trkpt>
      <trkpt lat="41.16146" lon="1.11341">
        <ele>115.2</ele>
        <time>2022-05-20 19:21:08</time>
      </trkpt>
      <trkpt lat="41.16144" lon="1.11349">
        <ele>115</ele>
        <time>2022-05-20 19:21:09</time>
      </trkpt>
      <trkpt lat="41.16141" lon="1.11357">
        <ele>114.8</ele>
        <time>2022-05-20 19:21:10</time>
      </trkpt>
      <trkpt lat="41.16138" lon="1.11365">
        <ele>114.8</ele>
        <time>2022-05-20 19:21:11</time>
      </trkpt>
      <trkpt lat="41.16136" lon="1.11373">
        <ele>114.8</ele>
        <time>2022-05-20 19:21:12</time>
      </trkpt>
      <trkpt lat="41.16134" lon="1.11381">
        <ele>114.8</ele>
        <time>2022-05-20 19:21:13</time>
      </trkpt>
      <trkpt lat="41.16133" lon="1.11389">
        <ele>114.8</ele>
        <time>2022-05-20 19:21:14</time>
      </trkpt>
      <trkpt lat="41.16131" lon="1.11396">
        <ele>114.6</ele>
        <time>2022-05-20 19:21:15</time>
      </trkpt>
      <trkpt lat="41.16129" lon="1.11404">
        <ele>114.6</ele>
        <time>2022-05-20 19:21:16</time>
      </trkpt>
      <trkpt lat="41.16126" lon="1.11412">
        <ele>114.6</ele>
        <time>2022-05-20 19:21:17</time>
      </trkpt>
      <trkpt lat="41.16124" lon="1.11418">
        <ele>114.6</ele>
        <time>2022-05-20 19:21:18</time>
      </trkpt>
      <trkpt lat="41.16121" lon="1.11424">
        <ele>114.6</ele>
        <time>2022-05-20 19:21:19</time>
      </trkpt>
      <trkpt lat="41.16119" lon="1.11429">
        <ele>114.4</ele>
        <time>2022-05-20 19:21:20</time>
      </trkpt>
      <trkpt lat="41.16116" lon="1.11432">
        <ele>114.4</ele>
        <time>2022-05-20 19:21:21</time>
      </trkpt>
      <trkpt lat="41.16114" lon="1.11436">
        <ele>114.4</ele>
        <time>2022-05-20 19:21:22</time>
      </trkpt>
      <trkpt lat="41.16113" lon="1.11439">
        <ele>114.4</ele>
        <time>2022-05-20 19:21:23</time>
      </trkpt>
      <trkpt lat="41.16111" lon="1.11441">
        <ele>114.2</ele>
        <time>2022-05-20 19:21:24</time>
      </trkpt>
      <trkpt lat="41.16108" lon="1.11444">
        <ele>114.2</ele>
        <time>2022-05-20 19:21:25</time>
      </trkpt>
      <trkpt lat="41.16106" lon="1.11448">
        <ele>114.2</ele>
        <time>2022-05-20 19:21:26</time>
      </trkpt>
      <trkpt lat="41.16103" lon="1.11452">
        <ele>114.2</ele>
        <time>2022-05-20 19:21:27</time>
      </trkpt>
      <trkpt lat="41.16102" lon="1.11457">
        <ele>114</ele>
        <time>2022-05-20 19:21:28</time>
      </trkpt>
      <trkpt lat="41.16101" lon="1.11461">
        <ele>114</ele>
        <time>2022-05-20 19:21:29</time>
      </trkpt>
      <trkpt lat="41.161" lon="1.11465">
        <ele>114</ele>
        <time>2022-05-20 19:21:30</time>
      </trkpt>
      <trkpt lat="41.16098" lon="1.11468">
        <ele>113.8</ele>
        <time>2022-05-20 19:21:31</time>
      </trkpt>
      <trkpt lat="41.16095" lon="1.11472">
        <ele>113.8</ele>
        <time>2022-05-20 19:21:32</time>
      </trkpt>
      <trkpt lat="41.16093" lon="1.11478">
        <ele>113.8</ele>
        <time>2022-05-20 19:21:33</time>
      </trkpt>
      <trkpt lat="41.16091" lon="1.11483">
        <ele>113.8</ele>
        <time>2022-05-20 19:21:34</time>
      </trkpt>
      <trkpt lat="41.16088" lon="1.11488">
        <ele>113.6</ele>
        <time>2022-05-20 19:21:35</time>
      </trkpt>
      <trkpt lat="41.16085" lon="1.11492">
        <ele>113.6</ele>
        <time>2022-05-20 19:21:36</time>
      </trkpt>
      <trkpt lat="41.16082" lon="1.11497">
        <ele>113.6</ele>
        <time>2022-05-20 19:21:37</time>
      </trkpt>
      <trkpt lat="41.1608" lon="1.11501">
        <ele>113.6</ele>
        <time>2022-05-20 19:21:38</time>
      </trkpt>
      <trkpt lat="41.16077" lon="1.11505">
        <ele>113.6</ele>
        <time>2022-05-20 19:21:39</time>
      </trkpt>
      <trkpt lat="41.16074" lon="1.1151">
        <ele>113.4</ele>
        <time>2022-05-20 19:21:40</time>
      </trkpt>
      <trkpt lat="41.16071" lon="1.11513">
        <ele>113.4</ele>
        <time>2022-05-20 19:21:41</time>
      </trkpt>
      <trkpt lat="41.16069" lon="1.11517">
        <ele>113.4</ele>
        <time>2022-05-20 19:21:42</time>
      </trkpt>
      <trkpt lat="41.16066" lon="1.1152">
        <ele>113.2</ele>
        <time>2022-05-20 19:21:43</time>
      </trkpt>
      <trkpt lat="41.16064" lon="1.11524">
        <ele>113.2</ele>
        <time>2022-05-20 19:21:44</time>
      </trkpt>
      <trkpt lat="41.16061" lon="1.11528">
        <ele>113.2</ele>
        <time>2022-05-20 19:21:45</time>
      </trkpt>
      <trkpt lat="41.16057" lon="1.11532">
        <ele>113.2</ele>
        <time>2022-05-20 19:21:46</time>
      </trkpt>
      <trkpt lat="41.16053" lon="1.11536">
        <ele>113.2</ele>
        <time>2022-05-20 19:21:47</time>
      </trkpt>
      <trkpt lat="41.1605" lon="1.1154">
        <ele>113.2</ele>
        <time>2022-05-20 19:21:48</time>
      </trkpt>
      <trkpt lat="41.16047" lon="1.11544">
        <ele>113.2</ele>
        <time>2022-05-20 19:21:49</time>
      </trkpt>
      <trkpt lat="41.16043" lon="1.11548">
        <ele>113.2</ele>
        <time>2022-05-20 19:21:50</time>
      </trkpt>
      <trkpt lat="41.16039" lon="1.11551">
        <ele>113.2</ele>
        <time>2022-05-20 19:21:51</time>
      </trkpt>
      <trkpt lat="41.16036" lon="1.11554">
        <ele>113.2</ele>
        <time>2022-05-20 19:21:52</time>
      </trkpt>
      <trkpt lat="41.16032" lon="1.11556">
        <ele>113.2</ele>
        <time>2022-05-20 19:21:53</time>
      </trkpt>
      <trkpt lat="41.16029" lon="1.11558">
        <ele>113.2</ele>
        <time>2022-05-20 19:21:54</time>
      </trkpt>
      <trkpt lat="41.16024" lon="1.1156">
        <ele>113</ele>
        <time>2022-05-20 19:21:55</time>
      </trkpt>
      <trkpt lat="41.1602" lon="1.11564">
        <ele>113</ele>
        <time>2022-05-20 19:21:56</time>
      </trkpt>
      <trkpt lat="41.16016" lon="1.11568">
        <ele>113</ele>
        <time>2022-05-20 19:21:57</time>
      </trkpt>
      <trkpt lat="41.16012" lon="1.11573">
        <ele>112.8</ele>
        <time>2022-05-20 19:21:58</time>
      </trkpt>
      <trkpt lat="41.16009" lon="1.1158">
        <ele>112.8</ele>
        <time>2022-05-20 19:21:59</time>
      </trkpt>
      <trkpt lat="41.16007" lon="1.11587">
        <ele>112.6</ele>
        <time>2022-05-20 19:22:00</time>
      </trkpt>
      <trkpt lat="41.16007" lon="1.11594">
        <ele>112.4</ele>
        <time>2022-05-20 19:22:01</time>
      </trkpt>
      <trkpt lat="41.1601" lon="1.11601">
        <ele>112.2</ele>
        <time>2022-05-20 19:22:02</time>
      </trkpt>
      <trkpt lat="41.16014" lon="1.11606">
        <ele>112.2</ele>
        <time>2022-05-20 19:22:03</time>
      </trkpt>
      <trkpt lat="41.16019" lon="1.1161">
        <ele>112.2</ele>
        <time>2022-05-20 19:22:04</time>
      </trkpt>
      <trkpt lat="41.16026" lon="1.11613">
        <ele>112.2</ele>
        <time>2022-05-20 19:22:05</time>
      </trkpt>
      <trkpt lat="41.16031" lon="1.11615">
        <ele>112.4</ele>
        <time>2022-05-20 19:22:06</time>
      </trkpt>
      <trkpt lat="41.16037" lon="1.11617">
        <ele>112.6</ele>
        <time>2022-05-20 19:22:07</time>
      </trkpt>
      <trkpt lat="41.16042" lon="1.11619">
        <ele>112.6</ele>
        <time>2022-05-20 19:22:08</time>
      </trkpt>
      <trkpt lat="41.16047" lon="1.11623">
        <ele>112.8</ele>
        <time>2022-05-20 19:22:09</time>
      </trkpt>
      <trkpt lat="41.16052" lon="1.11627">
        <ele>113</ele>
        <time>2022-05-20 19:22:10</time>
      </trkpt>
      <trkpt lat="41.16056" lon="1.11632">
        <ele>113.2</ele>
        <time>2022-05-20 19:22:11</time>
      </trkpt>
      <trkpt lat="41.16061" lon="1.11637">
        <ele>113.2</ele>
        <time>2022-05-20 19:22:12</time>
      </trkpt>
      <trkpt lat="41.16065" lon="1.11642">
        <ele>113.2</ele>
        <time>2022-05-20 19:22:13</time>
      </trkpt>
      <trkpt lat="41.16069" lon="1.11648">
        <ele>113.2</ele>
        <time>2022-05-20 19:22:14</time>
      </trkpt>
      <trkpt lat="41.16073" lon="1.11654">
        <ele>113.4</ele>
        <time>2022-05-20 19:22:15</time>
      </trkpt>
      <trkpt lat="41.16077" lon="1.11659">
        <ele>113.4</ele>
        <time>2022-05-20 19:22:16</time>
      </trkpt>
      <trkpt lat="41.16082" lon="1.11665">
        <ele>113.6</ele>
        <time>2022-05-20 19:22:17</time>
      </trkpt>
      <trkpt lat="41.16086" lon="1.11671">
        <ele>113.6</ele>
        <time>2022-05-20 19:22:18</time>
      </trkpt>
      <trkpt lat="41.1609" lon="1.11676">
        <ele>113.8</ele>
        <time>2022-05-20 19:22:19</time>
      </trkpt>
      <trkpt lat="41.16094" lon="1.11683">
        <ele>113.8</ele>
        <time>2022-05-20 19:22:20</time>
      </trkpt>
      <trkpt lat="41.16098" lon="1.1169">
        <ele>114</ele>
        <time>2022-05-20 19:22:21</time>
      </trkpt>
      <trkpt lat="41.16102" lon="1.11696">
        <ele>114</ele>
        <time>2022-05-20 19:22:22</time>
      </trkpt>
      <trkpt lat="41.16106" lon="1.11702">
        <ele>114.2</ele>
        <time>2022-05-20 19:22:23</time>
      </trkpt>
      <trkpt lat="41.16111" lon="1.11707">
        <ele>114.2</ele>
        <time>2022-05-20 19:22:24</time>
      </trkpt>
      <trkpt lat="41.16116" lon="1.11715">
        <ele>114.2</ele>
        <time>2022-05-20 19:22:25</time>
      </trkpt>
      <trkpt lat="41.16121" lon="1.11722">
        <ele>114.4</ele>
        <time>2022-05-20 19:22:26</time>
      </trkpt>
      <trkpt lat="41.16125" lon="1.11728">
        <ele>114.4</ele>
        <time>2022-05-20 19:22:27</time>
      </trkpt>
      <trkpt lat="41.1613" lon="1.11734">
        <ele>114.4</ele>
        <time>2022-05-20 19:22:28</time>
      </trkpt>
      <trkpt lat="41.16135" lon="1.11741">
        <ele>114.4</ele>
        <time>2022-05-20 19:22:29</time>
      </trkpt>
      <trkpt lat="41.1614" lon="1.11748">
        <ele>114.4</ele>
        <time>2022-05-20 19:22:30</time>
      </trkpt>
      <trkpt lat="41.16145" lon="1.11754">
        <ele>114.4</ele>
        <time>2022-05-20 19:22:31</time>
      </trkpt>
      <trkpt lat="41.1615" lon="1.1176">
        <ele>114.4</ele>
        <time>2022-05-20 19:22:32</time>
      </trkpt>
      <trkpt lat="41.16155" lon="1.11767">
        <ele>114.4</ele>
        <time>2022-05-20 19:22:33</time>
      </trkpt>
      <trkpt lat="41.1616" lon="1.11774">
        <ele>114.4</ele>
        <time>2022-05-20 19:22:34</time>
      </trkpt>
      <trkpt lat="41.16165" lon="1.11781">
        <ele>114.4</ele>
        <time>2022-05-20 19:22:35</time>
      </trkpt>
      <trkpt lat="41.1617" lon="1.11788">
        <ele>114.4</ele>
        <time>2022-05-20 19:22:36</time>
      </trkpt>
      <trkpt lat="41.16175" lon="1.11796">
        <ele>114.6</ele>
        <time>2022-05-20 19:22:37</time>
      </trkpt>
      <trkpt lat="41.1618" lon="1.11803">
        <ele>114.6</ele>
        <time>2022-05-20 19:22:38</time>
      </trkpt>
      <trkpt lat="41.16186" lon="1.11812">
        <ele>114.6</ele>
        <time>2022-05-20 19:22:39</time>
      </trkpt>
      <trkpt lat="41.16191" lon="1.1182">
        <ele>114.6</ele>
        <time>2022-05-20 19:22:40</time>
      </trkpt>
      <trkpt lat="41.16196" lon="1.11828">
        <ele>114.6</ele>
        <time>2022-05-20 19:22:41</time>
      </trkpt>
      <trkpt lat="41.16202" lon="1.11836">
        <ele>114.6</ele>
        <time>2022-05-20 19:22:42</time>
      </trkpt>
      <trkpt lat="41.16207" lon="1.11843">
        <ele>114.8</ele>
        <time>2022-05-20 19:22:43</time>
      </trkpt>
      <trkpt lat="41.16212" lon="1.11851">
        <ele>114.8</ele>
        <time>2022-05-20 19:22:44</time>
      </trkpt>
      <trkpt lat="41.16217" lon="1.11857">
        <ele>114.8</ele>
        <time>2022-05-20 19:22:45</time>
      </trkpt>
      <trkpt lat="41.16223" lon="1.11864">
        <ele>114.6</ele>
        <time>2022-05-20 19:22:46</time>
      </trkpt>
      <trkpt lat="41.16228" lon="1.11872">
        <ele>114.6</ele>
        <time>2022-05-20 19:22:47</time>
      </trkpt>
      <trkpt lat="41.16234" lon="1.11879">
        <ele>114.8</ele>
        <time>2022-05-20 19:22:48</time>
      </trkpt>
      <trkpt lat="41.1624" lon="1.11887">
        <ele>114.8</ele>
        <time>2022-05-20 19:22:49</time>
      </trkpt>
      <trkpt lat="41.16245" lon="1.11895">
        <ele>114.8</ele>
        <time>2022-05-20 19:22:50</time>
      </trkpt>
      <trkpt lat="41.16251" lon="1.11902">
        <ele>114.6</ele>
        <time>2022-05-20 19:22:51</time>
      </trkpt>
      <trkpt lat="41.16257" lon="1.1191">
        <ele>114.6</ele>
        <time>2022-05-20 19:22:52</time>
      </trkpt>
      <trkpt lat="41.16262" lon="1.11918">
        <ele>114.8</ele>
        <time>2022-05-20 19:22:53</time>
      </trkpt>
      <trkpt lat="41.16268" lon="1.11926">
        <ele>114.6</ele>
        <time>2022-05-20 19:22:54</time>
      </trkpt>
      <trkpt lat="41.16274" lon="1.11934">
        <ele>114.6</ele>
        <time>2022-05-20 19:22:55</time>
      </trkpt>
      <trkpt lat="41.1628" lon="1.11942">
        <ele>114.6</ele>
        <time>2022-05-20 19:22:56</time>
      </trkpt>
      <trkpt lat="41.16286" lon="1.11949">
        <ele>114.6</ele>
        <time>2022-05-20 19:22:57</time>
      </trkpt>
      <trkpt lat="41.16292" lon="1.11957">
        <ele>114.6</ele>
        <time>2022-05-20 19:22:58</time>
      </trkpt>
      <trkpt lat="41.16298" lon="1.11965">
        <ele>114.6</ele>
        <time>2022-05-20 19:22:59</time>
      </trkpt>
      <trkpt lat="41.16304" lon="1.11974">
        <ele>114.6</ele>
        <time>2022-05-20 19:23:00</time>
      </trkpt>
      <trkpt lat="41.1631" lon="1.11981">
        <ele>114.6</ele>
        <time>2022-05-20 19:23:01</time>
      </trkpt>
      <trkpt lat="41.16315" lon="1.11989">
        <ele>114.6</ele>
        <time>2022-05-20 19:23:02</time>
      </trkpt>
      <trkpt lat="41.16321" lon="1.11997">
        <ele>114.6</ele>
        <time>2022-05-20 19:23:03</time>
      </trkpt>
      <trkpt lat="41.16328" lon="1.12005">
        <ele>114.8</ele>
        <time>2022-05-20 19:23:04</time>
      </trkpt>
      <trkpt lat="41.16333" lon="1.12013">
        <ele>115</ele>
        <time>2022-05-20 19:23:05</time>
      </trkpt>
      <trkpt lat="41.16339" lon="1.12021">
        <ele>115</ele>
        <time>2022-05-20 19:23:06</time>
      </trkpt>
      <trkpt lat="41.16344" lon="1.12029">
        <ele>115.4</ele>
        <time>2022-05-20 19:23:07</time>
      </trkpt>
      <trkpt lat="41.1635" lon="1.12037">
        <ele>115.6</ele>
        <time>2022-05-20 19:23:08</time>
      </trkpt>
      <trkpt lat="41.16356" lon="1.12045">
        <ele>115.8</ele>
        <time>2022-05-20 19:23:09</time>
      </trkpt>
      <trkpt lat="41.16362" lon="1.12053">
        <ele>116</ele>
        <time>2022-05-20 19:23:10</time>
      </trkpt>
      <trkpt lat="41.16367" lon="1.1206">
        <ele>116.4</ele>
        <time>2022-05-20 19:23:11</time>
      </trkpt>
      <trkpt lat="41.16372" lon="1.12067">
        <ele>116.6</ele>
        <time>2022-05-20 19:23:12</time>
      </trkpt>
      <trkpt lat="41.16377" lon="1.12074">
        <ele>117</ele>
        <time>2022-05-20 19:23:13</time>
      </trkpt>
      <trkpt lat="41.16383" lon="1.12081">
        <ele>117.2</ele>
        <time>2022-05-20 19:23:14</time>
      </trkpt>
      <trkpt lat="41.16388" lon="1.12088">
        <ele>117.6</ele>
        <time>2022-05-20 19:23:15</time>
      </trkpt>
      <trkpt lat="41.16393" lon="1.12095">
        <ele>118</ele>
        <time>2022-05-20 19:23:16</time>
      </trkpt>
      <trkpt lat="41.16397" lon="1.12102">
        <ele>118.2</ele>
        <time>2022-05-20 19:23:17</time>
      </trkpt>
      <trkpt lat="41.16402" lon="1.12109">
        <ele>118.6</ele>
        <time>2022-05-20 19:23:18</time>
      </trkpt>
      <trkpt lat="41.16407" lon="1.12115">
        <ele>118.8</ele>
        <time>2022-05-20 19:23:19</time>
      </trkpt>
      <trkpt lat="41.16411" lon="1.12121">
        <ele>119</ele>
        <time>2022-05-20 19:23:20</time>
      </trkpt>
      <trkpt lat="41.16416" lon="1.12128">
        <ele>119.4</ele>
        <time>2022-05-20 19:23:21</time>
      </trkpt>
      <trkpt lat="41.16422" lon="1.12135">
        <ele>119.8</ele>
        <time>2022-05-20 19:23:22</time>
      </trkpt>
      <trkpt lat="41.16426" lon="1.12141">
        <ele>120.2</ele>
        <time>2022-05-20 19:23:23</time>
      </trkpt>
      <trkpt lat="41.16431" lon="1.12148">
        <ele>120.8</ele>
        <time>2022-05-20 19:23:24</time>
      </trkpt>
      <trkpt lat="41.16436" lon="1.12154">
        <ele>121.2</ele>
        <time>2022-05-20 19:23:25</time>
      </trkpt>
      <trkpt lat="41.16441" lon="1.12161">
        <ele>121.8</ele>
        <time>2022-05-20 19:23:26</time>
      </trkpt>
      <trkpt lat="41.16445" lon="1.12167">
        <ele>122.2</ele>
        <time>2022-05-20 19:23:27</time>
      </trkpt>
      <trkpt lat="41.1645" lon="1.12173">
        <ele>122.4</ele>
        <time>2022-05-20 19:23:28</time>
      </trkpt>
      <trkpt lat="41.16455" lon="1.12179">
        <ele>122.8</ele>
        <time>2022-05-20 19:23:29</time>
      </trkpt>
      <trkpt lat="41.1646" lon="1.12186">
        <ele>123.2</ele>
        <time>2022-05-20 19:23:30</time>
      </trkpt>
      <trkpt lat="41.16464" lon="1.12192">
        <ele>123.4</ele>
        <time>2022-05-20 19:23:31</time>
      </trkpt>
      <trkpt lat="41.16468" lon="1.12198">
        <ele>123.8</ele>
        <time>2022-05-20 19:23:32</time>
      </trkpt>
      <trkpt lat="41.16473" lon="1.12204">
        <ele>124.2</ele>
        <time>2022-05-20 19:23:33</time>
      </trkpt>
      <trkpt lat="41.16477" lon="1.1221">
        <ele>124.4</ele>
        <time>2022-05-20 19:23:34</time>
      </trkpt>
      <trkpt lat="41.16481" lon="1.12216">
        <ele>124.8</ele>
        <time>2022-05-20 19:23:35</time>
      </trkpt>
      <trkpt lat="41.16486" lon="1.12223">
        <ele>125</ele>
        <time>2022-05-20 19:23:36</time>
      </trkpt>
      <trkpt lat="41.16491" lon="1.12229">
        <ele>125</ele>
        <time>2022-05-20 19:23:37</time>
      </trkpt>
      <trkpt lat="41.16496" lon="1.12236">
        <ele>125.2</ele>
        <time>2022-05-20 19:23:38</time>
      </trkpt>
      <trkpt lat="41.16501" lon="1.12243">
        <ele>125.2</ele>
        <time>2022-05-20 19:23:39</time>
      </trkpt>
      <trkpt lat="41.16507" lon="1.1225">
        <ele>125.2</ele>
        <time>2022-05-20 19:23:40</time>
      </trkpt>
      <trkpt lat="41.16512" lon="1.12258">
        <ele>125</ele>
        <time>2022-05-20 19:23:41</time>
      </trkpt>
      <trkpt lat="41.16518" lon="1.12265">
        <ele>124.8</ele>
        <time>2022-05-20 19:23:42</time>
      </trkpt>
      <trkpt lat="41.16524" lon="1.12273">
        <ele>124.6</ele>
        <time>2022-05-20 19:23:43</time>
      </trkpt>
      <trkpt lat="41.16531" lon="1.12281">
        <ele>124.4</ele>
        <time>2022-05-20 19:23:44</time>
      </trkpt>
      <trkpt lat="41.16537" lon="1.1229">
        <ele>124</ele>
        <time>2022-05-20 19:23:45</time>
      </trkpt>
      <trkpt lat="41.16544" lon="1.12299">
        <ele>123.8</ele>
        <time>2022-05-20 19:23:46</time>
      </trkpt>
      <trkpt lat="41.16551" lon="1.12308">
        <ele>123.4</ele>
        <time>2022-05-20 19:23:47</time>
      </trkpt>
      <trkpt lat="41.16558" lon="1.12318">
        <ele>123.2</ele>
        <time>2022-05-20 19:23:48</time>
      </trkpt>
      <trkpt lat="41.16565" lon="1.12327">
        <ele>122.8</ele>
        <time>2022-05-20 19:23:49</time>
      </trkpt>
      <trkpt lat="41.16571" lon="1.12337">
        <ele>122.6</ele>
        <time>2022-05-20 19:23:50</time>
      </trkpt>
      <trkpt lat="41.16578" lon="1.12346">
        <ele>122.2</ele>
        <time>2022-05-20 19:23:51</time>
      </trkpt>
      <trkpt lat="41.16586" lon="1.12356">
        <ele>122</ele>
        <time>2022-05-20 19:23:52</time>
      </trkpt>
      <trkpt lat="41.16592" lon="1.12366">
        <ele>122</ele>
        <time>2022-05-20 19:23:53</time>
      </trkpt>
      <trkpt lat="41.16599" lon="1.12376">
        <ele>121.8</ele>
        <time>2022-05-20 19:23:54</time>
      </trkpt>
      <trkpt lat="41.16606" lon="1.12386">
        <ele>121.6</ele>
        <time>2022-05-20 19:23:55</time>
      </trkpt>
      <trkpt lat="41.16613" lon="1.12397">
        <ele>121.4</ele>
        <time>2022-05-20 19:23:56</time>
      </trkpt>
      <trkpt lat="41.16619" lon="1.12407">
        <ele>121.4</ele>
        <time>2022-05-20 19:23:57</time>
      </trkpt>
      <trkpt lat="41.16626" lon="1.12417">
        <ele>121.2</ele>
        <time>2022-05-20 19:23:58</time>
      </trkpt>
      <trkpt lat="41.16634" lon="1.12427">
        <ele>121.2</ele>
        <time>2022-05-20 19:23:59</time>
      </trkpt>
      <trkpt lat="41.16641" lon="1.12437">
        <ele>121.2</ele>
        <time>2022-05-20 19:24:00</time>
      </trkpt>
      <trkpt lat="41.16648" lon="1.12446">
        <ele>121</ele>
        <time>2022-05-20 19:24:01</time>
      </trkpt>
      <trkpt lat="41.16655" lon="1.12456">
        <ele>120.8</ele>
        <time>2022-05-20 19:24:02</time>
      </trkpt>
      <trkpt lat="41.16662" lon="1.12466">
        <ele>120.8</ele>
        <time>2022-05-20 19:24:03</time>
      </trkpt>
      <trkpt lat="41.16669" lon="1.12476">
        <ele>120.6</ele>
        <time>2022-05-20 19:24:04</time>
      </trkpt>
      <trkpt lat="41.16676" lon="1.12486">
        <ele>120.6</ele>
        <time>2022-05-20 19:24:05</time>
      </trkpt>
      <trkpt lat="41.16684" lon="1.12495">
        <ele>120.4</ele>
        <time>2022-05-20 19:24:06</time>
      </trkpt>
      <trkpt lat="41.16691" lon="1.12504">
        <ele>120.4</ele>
        <time>2022-05-20 19:24:07</time>
      </trkpt>
      <trkpt lat="41.16698" lon="1.12514">
        <ele>120.4</ele>
        <time>2022-05-20 19:24:08</time>
      </trkpt>
      <trkpt lat="41.16705" lon="1.12523">
        <ele>120.6</ele>
        <time>2022-05-20 19:24:09</time>
      </trkpt>
      <trkpt lat="41.16712" lon="1.12532">
        <ele>120.6</ele>
        <time>2022-05-20 19:24:10</time>
      </trkpt>
      <trkpt lat="41.16719" lon="1.12541">
        <ele>120.8</ele>
        <time>2022-05-20 19:24:11</time>
      </trkpt>
      <trkpt lat="41.16726" lon="1.12549">
        <ele>121</ele>
        <time>2022-05-20 19:24:12</time>
      </trkpt>
      <trkpt lat="41.16733" lon="1.12557">
        <ele>121.2</ele>
        <time>2022-05-20 19:24:13</time>
      </trkpt>
      <trkpt lat="41.16741" lon="1.12565">
        <ele>121.2</ele>
        <time>2022-05-20 19:24:14</time>
      </trkpt>
      <trkpt lat="41.16748" lon="1.12573">
        <ele>121.4</ele>
        <time>2022-05-20 19:24:15</time>
      </trkpt>
      <trkpt lat="41.16756" lon="1.12581">
        <ele>121.8</ele>
        <time>2022-05-20 19:24:16</time>
      </trkpt>
      <trkpt lat="41.16763" lon="1.12588">
        <ele>122</ele>
        <time>2022-05-20 19:24:17</time>
      </trkpt>
      <trkpt lat="41.16771" lon="1.12595">
        <ele>122.2</ele>
        <time>2022-05-20 19:24:18</time>
      </trkpt>
      <trkpt lat="41.16779" lon="1.12601">
        <ele>122.6</ele>
        <time>2022-05-20 19:24:19</time>
      </trkpt>
      <trkpt lat="41.16786" lon="1.12608">
        <ele>122.8</ele>
        <time>2022-05-20 19:24:20</time>
      </trkpt>
      <trkpt lat="41.16794" lon="1.12614">
        <ele>123</ele>
        <time>2022-05-20 19:24:21</time>
      </trkpt>
      <trkpt lat="41.16802" lon="1.12621">
        <ele>123.2</ele>
        <time>2022-05-20 19:24:22</time>
      </trkpt>
      <trkpt lat="41.1681" lon="1.12627">
        <ele>123.4</ele>
        <time>2022-05-20 19:24:23</time>
      </trkpt>
      <trkpt lat="41.16818" lon="1.12633">
        <ele>123.6</ele>
        <time>2022-05-20 19:24:24</time>
      </trkpt>
      <trkpt lat="41.16826" lon="1.12639">
        <ele>124</ele>
        <time>2022-05-20 19:24:25</time>
      </trkpt>
      <trkpt lat="41.16834" lon="1.12644">
        <ele>124.2</ele>
        <time>2022-05-20 19:24:26</time>
      </trkpt>
      <trkpt lat="41.16842" lon="1.12649">
        <ele>124.2</ele>
        <time>2022-05-20 19:24:27</time>
      </trkpt>
      <trkpt lat="41.1685" lon="1.12654">
        <ele>124.4</ele>
        <time>2022-05-20 19:24:28</time>
      </trkpt>
      <trkpt lat="41.16858" lon="1.12659">
        <ele>124.8</ele>
        <time>2022-05-20 19:24:29</time>
      </trkpt>
      <trkpt lat="41.16866" lon="1.12664">
        <ele>125</ele>
        <time>2022-05-20 19:24:30</time>
      </trkpt>
      <trkpt lat="41.16875" lon="1.12669">
        <ele>125.2</ele>
        <time>2022-05-20 19:24:31</time>
      </trkpt>
      <trkpt lat="41.16883" lon="1.12673">
        <ele>125.4</ele>
        <time>2022-05-20 19:24:32</time>
      </trkpt>
      <trkpt lat="41.16891" lon="1.12677">
        <ele>125.4</ele>
        <time>2022-05-20 19:24:33</time>
      </trkpt>
      <trkpt lat="41.16899" lon="1.12681">
        <ele>125.6</ele>
        <time>2022-05-20 19:24:34</time>
      </trkpt>
      <trkpt lat="41.16907" lon="1.12685">
        <ele>125.8</ele>
        <time>2022-05-20 19:24:35</time>
      </trkpt>
      <trkpt lat="41.16915" lon="1.1269">
        <ele>126</ele>
        <time>2022-05-20 19:24:36</time>
      </trkpt>
      <trkpt lat="41.16923" lon="1.12694">
        <ele>126.2</ele>
        <time>2022-05-20 19:24:37</time>
      </trkpt>
      <trkpt lat="41.16932" lon="1.12698">
        <ele>126.4</ele>
        <time>2022-05-20 19:24:38</time>
      </trkpt>
      <trkpt lat="41.1694" lon="1.12702">
        <ele>126.6</ele>
        <time>2022-05-20 19:24:39</time>
      </trkpt>
      <trkpt lat="41.16948" lon="1.12706">
        <ele>126.8</ele>
        <time>2022-05-20 19:24:40</time>
      </trkpt>
      <trkpt lat="41.16955" lon="1.12711">
        <ele>126.8</ele>
        <time>2022-05-20 19:24:41</time>
      </trkpt>
      <trkpt lat="41.16963" lon="1.12715">
        <ele>127</ele>
        <time>2022-05-20 19:24:42</time>
      </trkpt>
      <trkpt lat="41.16971" lon="1.12719">
        <ele>127</ele>
        <time>2022-05-20 19:24:43</time>
      </trkpt>
      <trkpt lat="41.16979" lon="1.12723">
        <ele>127</ele>
        <time>2022-05-20 19:24:44</time>
      </trkpt>
      <trkpt lat="41.16987" lon="1.12727">
        <ele>127.2</ele>
        <time>2022-05-20 19:24:45</time>
      </trkpt>
      <trkpt lat="41.16996" lon="1.12732">
        <ele>127.2</ele>
        <time>2022-05-20 19:24:46</time>
      </trkpt>
      <trkpt lat="41.17004" lon="1.12736">
        <ele>127.4</ele>
        <time>2022-05-20 19:24:47</time>
      </trkpt>
      <trkpt lat="41.17011" lon="1.1274">
        <ele>127.4</ele>
        <time>2022-05-20 19:24:48</time>
      </trkpt>
      <trkpt lat="41.17019" lon="1.12745">
        <ele>127.6</ele>
        <time>2022-05-20 19:24:49</time>
      </trkpt>
      <trkpt lat="41.17028" lon="1.1275">
        <ele>127.6</ele>
        <time>2022-05-20 19:24:50</time>
      </trkpt>
      <trkpt lat="41.17036" lon="1.12754">
        <ele>127.8</ele>
        <time>2022-05-20 19:24:51</time>
      </trkpt>
      <trkpt lat="41.17043" lon="1.12758">
        <ele>127.8</ele>
        <time>2022-05-20 19:24:52</time>
      </trkpt>
      <trkpt lat="41.17051" lon="1.12763">
        <ele>128</ele>
        <time>2022-05-20 19:24:53</time>
      </trkpt>
      <trkpt lat="41.1706" lon="1.12767">
        <ele>128</ele>
        <time>2022-05-20 19:24:54</time>
      </trkpt>
      <trkpt lat="41.17068" lon="1.12772">
        <ele>128.2</ele>
        <time>2022-05-20 19:24:55</time>
      </trkpt>
      <trkpt lat="41.17076" lon="1.12776">
        <ele>128.2</ele>
        <time>2022-05-20 19:24:56</time>
      </trkpt>
      <trkpt lat="41.17084" lon="1.12781">
        <ele>128.2</ele>
        <time>2022-05-20 19:24:57</time>
      </trkpt>
      <trkpt lat="41.17092" lon="1.12785">
        <ele>128.2</ele>
        <time>2022-05-20 19:24:58</time>
      </trkpt>
      <trkpt lat="41.17101" lon="1.12789">
        <ele>128.4</ele>
        <time>2022-05-20 19:24:59</time>
      </trkpt>
      <trkpt lat="41.17109" lon="1.12793">
        <ele>128.4</ele>
        <time>2022-05-20 19:25:00</time>
      </trkpt>
      <trkpt lat="41.17117" lon="1.12798">
        <ele>128.4</ele>
        <time>2022-05-20 19:25:01</time>
      </trkpt>
      <trkpt lat="41.17125" lon="1.12802">
        <ele>128.4</ele>
        <time>2022-05-20 19:25:02</time>
      </trkpt>
      <trkpt lat="41.17133" lon="1.12807">
        <ele>128.4</ele>
        <time>2022-05-20 19:25:03</time>
      </trkpt>
      <trkpt lat="41.17141" lon="1.12811">
        <ele>128.4</ele>
        <time>2022-05-20 19:25:04</time>
      </trkpt>
      <trkpt lat="41.17149" lon="1.12815">
        <ele>128.4</ele>
        <time>2022-05-20 19:25:05</time>
      </trkpt>
      <trkpt lat="41.17157" lon="1.1282">
        <ele>128.4</ele>
        <time>2022-05-20 19:25:06</time>
      </trkpt>
      <trkpt lat="41.17165" lon="1.12824">
        <ele>128.4</ele>
        <time>2022-05-20 19:25:07</time>
      </trkpt>
      <trkpt lat="41.17173" lon="1.12828">
        <ele>128.4</ele>
        <time>2022-05-20 19:25:08</time>
      </trkpt>
      <trkpt lat="41.17181" lon="1.12833">
        <ele>128.4</ele>
        <time>2022-05-20 19:25:09</time>
      </trkpt>
      <trkpt lat="41.17189" lon="1.12837">
        <ele>128.6</ele>
        <time>2022-05-20 19:25:10</time>
      </trkpt>
      <trkpt lat="41.17197" lon="1.12841">
        <ele>128.6</ele>
        <time>2022-05-20 19:25:11</time>
      </trkpt>
      <trkpt lat="41.17205" lon="1.12846">
        <ele>128.8</ele>
        <time>2022-05-20 19:25:12</time>
      </trkpt>
      <trkpt lat="41.17213" lon="1.1285">
        <ele>128.8</ele>
        <time>2022-05-20 19:25:13</time>
      </trkpt>
      <trkpt lat="41.17222" lon="1.12855">
        <ele>129</ele>
        <time>2022-05-20 19:25:14</time>
      </trkpt>
      <trkpt lat="41.1723" lon="1.12859">
        <ele>129</ele>
        <time>2022-05-20 19:25:15</time>
      </trkpt>
      <trkpt lat="41.17239" lon="1.12863">
        <ele>129</ele>
        <time>2022-05-20 19:25:16</time>
      </trkpt>
      <trkpt lat="41.17247" lon="1.12868">
        <ele>129</ele>
        <time>2022-05-20 19:25:17</time>
      </trkpt>
      <trkpt lat="41.17255" lon="1.12872">
        <ele>129</ele>
        <time>2022-05-20 19:25:18</time>
      </trkpt>
      <trkpt lat="41.17264" lon="1.12876">
        <ele>129.2</ele>
        <time>2022-05-20 19:25:19</time>
      </trkpt>
      <trkpt lat="41.17272" lon="1.1288">
        <ele>129.2</ele>
        <time>2022-05-20 19:25:20</time>
      </trkpt>
      <trkpt lat="41.17281" lon="1.12884">
        <ele>129.4</ele>
        <time>2022-05-20 19:25:21</time>
      </trkpt>
      <trkpt lat="41.17289" lon="1.12888">
        <ele>129.6</ele>
        <time>2022-05-20 19:25:22</time>
      </trkpt>
      <trkpt lat="41.17297" lon="1.12892">
        <ele>129.6</ele>
        <time>2022-05-20 19:25:23</time>
      </trkpt>
      <trkpt lat="41.17305" lon="1.12897">
        <ele>129.6</ele>
        <time>2022-05-20 19:25:24</time>
      </trkpt>
      <trkpt lat="41.17314" lon="1.12901">
        <ele>129.6</ele>
        <time>2022-05-20 19:25:25</time>
      </trkpt>
      <trkpt lat="41.17322" lon="1.12905">
        <ele>129.8</ele>
        <time>2022-05-20 19:25:26</time>
      </trkpt>
      <trkpt lat="41.17331" lon="1.1291">
        <ele>130</ele>
        <time>2022-05-20 19:25:27</time>
      </trkpt>
      <trkpt lat="41.17339" lon="1.12914">
        <ele>130</ele>
        <time>2022-05-20 19:25:28</time>
      </trkpt>
      <trkpt lat="41.17347" lon="1.12918">
        <ele>130.2</ele>
        <time>2022-05-20 19:25:29</time>
      </trkpt>
      <trkpt lat="41.17355" lon="1.12923">
        <ele>130.2</ele>
        <time>2022-05-20 19:25:30</time>
      </trkpt>
      <trkpt lat="41.17363" lon="1.12927">
        <ele>130.4</ele>
        <time>2022-05-20 19:25:31</time>
      </trkpt>
      <trkpt lat="41.17371" lon="1.12931">
        <ele>130.6</ele>
        <time>2022-05-20 19:25:32</time>
      </trkpt>
      <trkpt lat="41.17379" lon="1.12935">
        <ele>130.6</ele>
        <time>2022-05-20 19:25:33</time>
      </trkpt>
      <trkpt lat="41.17388" lon="1.12939">
        <ele>130.8</ele>
        <time>2022-05-20 19:25:34</time>
      </trkpt>
      <trkpt lat="41.17395" lon="1.12944">
        <ele>131.2</ele>
        <time>2022-05-20 19:25:35</time>
      </trkpt>
      <trkpt lat="41.17403" lon="1.12948">
        <ele>131.4</ele>
        <time>2022-05-20 19:25:36</time>
      </trkpt>
      <trkpt lat="41.17412" lon="1.12952">
        <ele>131.6</ele>
        <time>2022-05-20 19:25:37</time>
      </trkpt>
      <trkpt lat="41.1742" lon="1.12956">
        <ele>131.8</ele>
        <time>2022-05-20 19:25:38</time>
      </trkpt>
      <trkpt lat="41.17428" lon="1.12961">
        <ele>132</ele>
        <time>2022-05-20 19:25:39</time>
      </trkpt>
      <trkpt lat="41.17436" lon="1.12965">
        <ele>132.2</ele>
        <time>2022-05-20 19:25:40</time>
      </trkpt>
      <trkpt lat="41.17445" lon="1.1297">
        <ele>132.4</ele>
        <time>2022-05-20 19:25:41</time>
      </trkpt>
      <trkpt lat="41.17453" lon="1.12975">
        <ele>132.2</ele>
        <time>2022-05-20 19:25:42</time>
      </trkpt>
      <trkpt lat="41.17461" lon="1.12982">
        <ele>132.2</ele>
        <time>2022-05-20 19:25:43</time>
      </trkpt>
      <trkpt lat="41.17468" lon="1.1299">
        <ele>132</ele>
        <time>2022-05-20 19:25:44</time>
      </trkpt>
      <trkpt lat="41.17474" lon="1.13">
        <ele>131.6</ele>
        <time>2022-05-20 19:25:45</time>
      </trkpt>
      <trkpt lat="41.17477" lon="1.13012">
        <ele>131.4</ele>
        <time>2022-05-20 19:25:46</time>
      </trkpt>
      <trkpt lat="41.17476" lon="1.13024">
        <ele>131.2</ele>
        <time>2022-05-20 19:25:47</time>
      </trkpt>
      <trkpt lat="41.17472" lon="1.13035">
        <ele>131</ele>
        <time>2022-05-20 19:25:48</time>
      </trkpt>
      <trkpt lat="41.17467" lon="1.13046">
        <ele>130.8</ele>
        <time>2022-05-20 19:25:49</time>
      </trkpt>
      <trkpt lat="41.17463" lon="1.13057">
        <ele>130.6</ele>
        <time>2022-05-20 19:25:50</time>
      </trkpt>
      <trkpt lat="41.17459" lon="1.13068">
        <ele>130.6</ele>
        <time>2022-05-20 19:25:51</time>
      </trkpt>
      <trkpt lat="41.17457" lon="1.1308">
        <ele>130.6</ele>
        <time>2022-05-20 19:25:52</time>
      </trkpt>
      <trkpt lat="41.17456" lon="1.13093">
        <ele>130.6</ele>
        <time>2022-05-20 19:25:53</time>
      </trkpt>
      <trkpt lat="41.17457" lon="1.13106">
        <ele>130.6</ele>
        <time>2022-05-20 19:25:54</time>
      </trkpt>
      <trkpt lat="41.1746" lon="1.13118">
        <ele>130.6</ele>
        <time>2022-05-20 19:25:55</time>
      </trkpt>
      <trkpt lat="41.17466" lon="1.13129">
        <ele>130.6</ele>
        <time>2022-05-20 19:25:56</time>
      </trkpt>
      <trkpt lat="41.17474" lon="1.13138">
        <ele>130.6</ele>
        <time>2022-05-20 19:25:57</time>
      </trkpt>
      <trkpt lat="41.17482" lon="1.13146">
        <ele>130.6</ele>
        <time>2022-05-20 19:25:58</time>
      </trkpt>
      <trkpt lat="41.1749" lon="1.13154">
        <ele>130.6</ele>
        <time>2022-05-20 19:25:59</time>
      </trkpt>
      <trkpt lat="41.17498" lon="1.13162">
        <ele>130.8</ele>
        <time>2022-05-20 19:26:00</time>
      </trkpt>
      <trkpt lat="41.17506" lon="1.13167">
        <ele>131.2</ele>
        <time>2022-05-20 19:26:01</time>
      </trkpt>
      <trkpt lat="41.17513" lon="1.13169">
        <ele>131.6</ele>
        <time>2022-05-20 19:26:02</time>
      </trkpt>
      <trkpt lat="41.17519" lon="1.13168">
        <ele>132.2</ele>
        <time>2022-05-20 19:26:03</time>
      </trkpt>
      <trkpt lat="41.17527" lon="1.13165">
        <ele>132.8</ele>
        <time>2022-05-20 19:26:04</time>
      </trkpt>
      <trkpt lat="41.17533" lon="1.13161">
        <ele>133.6</ele>
        <time>2022-05-20 19:26:05</time>
      </trkpt>
      <trkpt lat="41.1754" lon="1.13157">
        <ele>134</ele>
        <time>2022-05-20 19:26:06</time>
      </trkpt>
      <trkpt lat="41.17546" lon="1.13154">
        <ele>134.6</ele>
        <time>2022-05-20 19:26:07</time>
      </trkpt>
      <trkpt lat="41.17552" lon="1.13151">
        <ele>135</ele>
        <time>2022-05-20 19:26:08</time>
      </trkpt>
      <trkpt lat="41.17558" lon="1.13149">
        <ele>135.6</ele>
        <time>2022-05-20 19:26:09</time>
      </trkpt>
      <trkpt lat="41.17565" lon="1.13147">
        <ele>136</ele>
        <time>2022-05-20 19:26:10</time>
      </trkpt>
      <trkpt lat="41.17571" lon="1.13145">
        <ele>136.4</ele>
        <time>2022-05-20 19:26:11</time>
      </trkpt>
      <trkpt lat="41.17578" lon="1.13144">
        <ele>137</ele>
        <time>2022-05-20 19:26:12</time>
      </trkpt>
      <trkpt lat="41.17585" lon="1.13142">
        <ele>137.2</ele>
        <time>2022-05-20 19:26:13</time>
      </trkpt>
      <trkpt lat="41.17591" lon="1.13141">
        <ele>137.6</ele>
        <time>2022-05-20 19:26:14</time>
      </trkpt>
      <trkpt lat="41.17598" lon="1.1314">
        <ele>137.8</ele>
        <time>2022-05-20 19:26:15</time>
      </trkpt>
      <trkpt lat="41.17605" lon="1.13139">
        <ele>138</ele>
        <time>2022-05-20 19:26:16</time>
      </trkpt>
      <trkpt lat="41.17612" lon="1.13139">
        <ele>138.4</ele>
        <time>2022-05-20 19:26:17</time>
      </trkpt>
      <trkpt lat="41.17619" lon="1.13139">
        <ele>138.6</ele>
        <time>2022-05-20 19:26:18</time>
      </trkpt>
      <trkpt lat="41.17625" lon="1.13139">
        <ele>139</ele>
        <time>2022-05-20 19:26:19</time>
      </trkpt>
      <trkpt lat="41.17632" lon="1.13139">
        <ele>139.4</ele>
        <time>2022-05-20 19:26:20</time>
      </trkpt>
      <trkpt lat="41.17638" lon="1.13139">
        <ele>139.6</ele>
        <time>2022-05-20 19:26:21</time>
      </trkpt>
      <trkpt lat="41.17644" lon="1.1314">
        <ele>140</ele>
        <time>2022-05-20 19:26:22</time>
      </trkpt>
      <trkpt lat="41.17651" lon="1.1314">
        <ele>140.6</ele>
        <time>2022-05-20 19:26:23</time>
      </trkpt>
      <trkpt lat="41.17657" lon="1.13141">
        <ele>140.8</ele>
        <time>2022-05-20 19:26:24</time>
      </trkpt>
      <trkpt lat="41.17664" lon="1.13141">
        <ele>141.2</ele>
        <time>2022-05-20 19:26:25</time>
      </trkpt>
      <trkpt lat="41.17671" lon="1.13142">
        <ele>141.4</ele>
        <time>2022-05-20 19:26:26</time>
      </trkpt>
      <trkpt lat="41.17678" lon="1.13144">
        <ele>141.8</ele>
        <time>2022-05-20 19:26:27</time>
      </trkpt>
      <trkpt lat="41.17684" lon="1.13146">
        <ele>142</ele>
        <time>2022-05-20 19:26:28</time>
      </trkpt>
      <trkpt lat="41.17691" lon="1.13148">
        <ele>142.2</ele>
        <time>2022-05-20 19:26:29</time>
      </trkpt>
      <trkpt lat="41.17698" lon="1.1315">
        <ele>142.6</ele>
        <time>2022-05-20 19:26:30</time>
      </trkpt>
      <trkpt lat="41.17705" lon="1.13152">
        <ele>142.6</ele>
        <time>2022-05-20 19:26:31</time>
      </trkpt>
      <trkpt lat="41.17712" lon="1.13154">
        <ele>142.8</ele>
        <time>2022-05-20 19:26:32</time>
      </trkpt>
      <trkpt lat="41.17719" lon="1.13156">
        <ele>142.8</ele>
        <time>2022-05-20 19:26:33</time>
      </trkpt>
      <trkpt lat="41.17727" lon="1.13159">
        <ele>142.8</ele>
        <time>2022-05-20 19:26:34</time>
      </trkpt>
      <trkpt lat="41.17734" lon="1.13161">
        <ele>142.8</ele>
        <time>2022-05-20 19:26:35</time>
      </trkpt>
      <trkpt lat="41.17742" lon="1.13164">
        <ele>142.6</ele>
        <time>2022-05-20 19:26:36</time>
      </trkpt>
      <trkpt lat="41.17751" lon="1.13167">
        <ele>142.4</ele>
        <time>2022-05-20 19:26:37</time>
      </trkpt>
      <trkpt lat="41.17759" lon="1.13171">
        <ele>142.2</ele>
        <time>2022-05-20 19:26:38</time>
      </trkpt>
      <trkpt lat="41.17767" lon="1.13174">
        <ele>142</ele>
        <time>2022-05-20 19:26:39</time>
      </trkpt>
      <trkpt lat="41.17776" lon="1.13178">
        <ele>141.8</ele>
        <time>2022-05-20 19:26:40</time>
      </trkpt>
      <trkpt lat="41.17786" lon="1.13181">
        <ele>141.6</ele>
        <time>2022-05-20 19:26:41</time>
      </trkpt>
      <trkpt lat="41.17794" lon="1.13185">
        <ele>141.4</ele>
        <time>2022-05-20 19:26:42</time>
      </trkpt>
      <trkpt lat="41.17802" lon="1.13188">
        <ele>141.2</ele>
        <time>2022-05-20 19:26:43</time>
      </trkpt>
      <trkpt lat="41.17813" lon="1.13194">
        <ele>141</ele>
        <time>2022-05-20 19:26:44</time>
      </trkpt>
      <trkpt lat="41.17822" lon="1.13199">
        <ele>141</ele>
        <time>2022-05-20 19:26:45</time>
      </trkpt>
      <trkpt lat="41.17831" lon="1.13205">
        <ele>140.8</ele>
        <time>2022-05-20 19:26:46</time>
      </trkpt>
      <trkpt lat="41.17839" lon="1.13211">
        <ele>140.8</ele>
        <time>2022-05-20 19:26:47</time>
      </trkpt>
      <trkpt lat="41.17847" lon="1.13218">
        <ele>140.8</ele>
        <time>2022-05-20 19:26:48</time>
      </trkpt>
      <trkpt lat="41.17854" lon="1.13226">
        <ele>140.8</ele>
        <time>2022-05-20 19:26:49</time>
      </trkpt>
      <trkpt lat="41.1786" lon="1.13235">
        <ele>140.8</ele>
        <time>2022-05-20 19:26:50</time>
      </trkpt>
      <trkpt lat="41.17865" lon="1.13246">
        <ele>140.8</ele>
        <time>2022-05-20 19:26:51</time>
      </trkpt>
      <trkpt lat="41.17867" lon="1.13257">
        <ele>140.6</ele>
        <time>2022-05-20 19:26:52</time>
      </trkpt>
      <trkpt lat="41.17867" lon="1.13269">
        <ele>140.4</ele>
        <time>2022-05-20 19:26:53</time>
      </trkpt>
      <trkpt lat="41.17863" lon="1.1328">
        <ele>140.2</ele>
        <time>2022-05-20 19:26:54</time>
      </trkpt>
      <trkpt lat="41.1786" lon="1.13291">
        <ele>139.8</ele>
        <time>2022-05-20 19:26:55</time>
      </trkpt>
      <trkpt lat="41.17857" lon="1.13303">
        <ele>139.6</ele>
        <time>2022-05-20 19:26:56</time>
      </trkpt>
      <trkpt lat="41.17857" lon="1.13314">
        <ele>139.6</ele>
        <time>2022-05-20 19:26:57</time>
      </trkpt>
      <trkpt lat="41.17859" lon="1.13326">
        <ele>139.4</ele>
        <time>2022-05-20 19:26:58</time>
      </trkpt>
      <trkpt lat="41.17864" lon="1.13336">
        <ele>139.4</ele>
        <time>2022-05-20 19:26:59</time>
      </trkpt>
      <trkpt lat="41.1787" lon="1.13345">
        <ele>139.4</ele>
        <time>2022-05-20 19:27:00</time>
      </trkpt>
      <trkpt lat="41.17878" lon="1.13352">
        <ele>139.4</ele>
        <time>2022-05-20 19:27:01</time>
      </trkpt>
      <trkpt lat="41.17886" lon="1.13358">
        <ele>139.6</ele>
        <time>2022-05-20 19:27:02</time>
      </trkpt>
      <trkpt lat="41.17896" lon="1.13363">
        <ele>139.6</ele>
        <time>2022-05-20 19:27:03</time>
      </trkpt>
      <trkpt lat="41.17905" lon="1.13366">
        <ele>139.6</ele>
        <time>2022-05-20 19:27:04</time>
      </trkpt>
      <trkpt lat="41.17915" lon="1.13368">
        <ele>139.6</ele>
        <time>2022-05-20 19:27:05</time>
      </trkpt>
      <trkpt lat="41.17926" lon="1.13369">
        <ele>139.6</ele>
        <time>2022-05-20 19:27:06</time>
      </trkpt>
      <trkpt lat="41.17936" lon="1.13369">
        <ele>139.8</ele>
        <time>2022-05-20 19:27:07</time>
      </trkpt>
      <trkpt lat="41.17946" lon="1.1337">
        <ele>139.8</ele>
        <time>2022-05-20 19:27:08</time>
      </trkpt>
      <trkpt lat="41.17956" lon="1.13371">
        <ele>140</ele>
        <time>2022-05-20 19:27:09</time>
      </trkpt>
      <trkpt lat="41.17966" lon="1.13373">
        <ele>140</ele>
        <time>2022-05-20 19:27:10</time>
      </trkpt>
      <trkpt lat="41.17977" lon="1.13377">
        <ele>140.2</ele>
        <time>2022-05-20 19:27:11</time>
      </trkpt>
      <trkpt lat="41.17986" lon="1.1338">
        <ele>140.4</ele>
        <time>2022-05-20 19:27:12</time>
      </trkpt>
      <trkpt lat="41.17995" lon="1.13385">
        <ele>140.4</ele>
        <time>2022-05-20 19:27:13</time>
      </trkpt>
      <trkpt lat="41.18006" lon="1.13392">
        <ele>140.6</ele>
        <time>2022-05-20 19:27:14</time>
      </trkpt>
      <trkpt lat="41.18016" lon="1.13399">
        <ele>140.6</ele>
        <time>2022-05-20 19:27:15</time>
      </trkpt>
      <trkpt lat="41.18026" lon="1.13406">
        <ele>140.4</ele>
        <time>2022-05-20 19:27:16</time>
      </trkpt>
      <trkpt lat="41.18036" lon="1.13413">
        <ele>140.4</ele>
        <time>2022-05-20 19:27:17</time>
      </trkpt>
      <trkpt lat="41.18045" lon="1.1342">
        <ele>140.2</ele>
        <time>2022-05-20 19:27:18</time>
      </trkpt>
      <trkpt lat="41.18056" lon="1.13425">
        <ele>140</ele>
        <time>2022-05-20 19:27:19</time>
      </trkpt>
      <trkpt lat="41.18067" lon="1.13429">
        <ele>139.8</ele>
        <time>2022-05-20 19:27:20</time>
      </trkpt>
      <trkpt lat="41.18077" lon="1.13429">
        <ele>139.8</ele>
        <time>2022-05-20 19:27:21</time>
      </trkpt>
      <trkpt lat="41.18086" lon="1.13425">
        <ele>139.8</ele>
        <time>2022-05-20 19:27:22</time>
      </trkpt>
      <trkpt lat="41.18093" lon="1.13417">
        <ele>139.8</ele>
        <time>2022-05-20 19:27:23</time>
      </trkpt>
      <trkpt lat="41.181" lon="1.13409">
        <ele>139.8</ele>
        <time>2022-05-20 19:27:24</time>
      </trkpt>
      <trkpt lat="41.18107" lon="1.134">
        <ele>140</ele>
        <time>2022-05-20 19:27:25</time>
      </trkpt>
      <trkpt lat="41.18114" lon="1.13391">
        <ele>140</ele>
        <time>2022-05-20 19:27:26</time>
      </trkpt>
      <trkpt lat="41.18122" lon="1.13385">
        <ele>140.4</ele>
        <time>2022-05-20 19:27:27</time>
      </trkpt>
      <trkpt lat="41.1813" lon="1.1338">
        <ele>140.8</ele>
        <time>2022-05-20 19:27:28</time>
      </trkpt>
      <trkpt lat="41.18138" lon="1.13379">
        <ele>141.4</ele>
        <time>2022-05-20 19:27:29</time>
      </trkpt>
      <trkpt lat="41.18147" lon="1.1338">
        <ele>142</ele>
        <time>2022-05-20 19:27:30</time>
      </trkpt>
      <trkpt lat="41.18155" lon="1.13383">
        <ele>142.6</ele>
        <time>2022-05-20 19:27:31</time>
      </trkpt>
      <trkpt lat="41.18163" lon="1.13386">
        <ele>143.2</ele>
        <time>2022-05-20 19:27:32</time>
      </trkpt>
      <trkpt lat="41.18171" lon="1.1339">
        <ele>143.6</ele>
        <time>2022-05-20 19:27:33</time>
      </trkpt>
      <trkpt lat="41.18179" lon="1.13395">
        <ele>144</ele>
        <time>2022-05-20 19:27:34</time>
      </trkpt>
      <trkpt lat="41.18187" lon="1.13399">
        <ele>144.4</ele>
        <time>2022-05-20 19:27:35</time>
      </trkpt>
      <trkpt lat="41.18194" lon="1.13403">
        <ele>144.8</ele>
        <time>2022-05-20 19:27:36</time>
      </trkpt>
      <trkpt lat="41.18201" lon="1.13407">
        <ele>145</ele>
        <time>2022-05-20 19:27:37</time>
      </trkpt>
      <trkpt lat="41.18209" lon="1.13412">
        <ele>145.4</ele>
        <time>2022-05-20 19:27:38</time>
      </trkpt>
      <trkpt lat="41.18217" lon="1.13416">
        <ele>145.6</ele>
        <time>2022-05-20 19:27:39</time>
      </trkpt>
      <trkpt lat="41.18224" lon="1.1342">
        <ele>145.8</ele>
        <time>2022-05-20 19:27:40</time>
      </trkpt>
      <trkpt lat="41.18231" lon="1.13424">
        <ele>146.2</ele>
        <time>2022-05-20 19:27:41</time>
      </trkpt>
      <trkpt lat="41.18238" lon="1.13428">
        <ele>146.4</ele>
        <time>2022-05-20 19:27:42</time>
      </trkpt>
      <trkpt lat="41.18246" lon="1.13432">
        <ele>146.8</ele>
        <time>2022-05-20 19:27:43</time>
      </trkpt>
      <trkpt lat="41.18253" lon="1.13435">
        <ele>147</ele>
        <time>2022-05-20 19:27:44</time>
      </trkpt>
      <trkpt lat="41.18259" lon="1.13439">
        <ele>147.4</ele>
        <time>2022-05-20 19:27:45</time>
      </trkpt>
      <trkpt lat="41.18267" lon="1.13442">
        <ele>147.8</ele>
        <time>2022-05-20 19:27:46</time>
      </trkpt>
      <trkpt lat="41.18274" lon="1.13445">
        <ele>148</ele>
        <time>2022-05-20 19:27:47</time>
      </trkpt>
      <trkpt lat="41.18281" lon="1.13449">
        <ele>148.4</ele>
        <time>2022-05-20 19:27:48</time>
      </trkpt>
      <trkpt lat="41.18288" lon="1.13452">
        <ele>148.6</ele>
        <time>2022-05-20 19:27:49</time>
      </trkpt>
      <trkpt lat="41.18295" lon="1.13455">
        <ele>148.8</ele>
        <time>2022-05-20 19:27:50</time>
      </trkpt>
      <trkpt lat="41.18302" lon="1.13459">
        <ele>149.2</ele>
        <time>2022-05-20 19:27:51</time>
      </trkpt>
      <trkpt lat="41.18309" lon="1.13463">
        <ele>149.4</ele>
        <time>2022-05-20 19:27:52</time>
      </trkpt>
      <trkpt lat="41.18316" lon="1.13467">
        <ele>149.6</ele>
        <time>2022-05-20 19:27:53</time>
      </trkpt>
      <trkpt lat="41.18324" lon="1.13471">
        <ele>149.8</ele>
        <time>2022-05-20 19:27:54</time>
      </trkpt>
      <trkpt lat="41.18331" lon="1.13475">
        <ele>150</ele>
        <time>2022-05-20 19:27:55</time>
      </trkpt>
      <trkpt lat="41.18338" lon="1.1348">
        <ele>150.2</ele>
        <time>2022-05-20 19:27:56</time>
      </trkpt>
      <trkpt lat="41.18346" lon="1.13484">
        <ele>150.4</ele>
        <time>2022-05-20 19:27:57</time>
      </trkpt>
      <trkpt lat="41.18353" lon="1.13488">
        <ele>150.4</ele>
        <time>2022-05-20 19:27:58</time>
      </trkpt>
      <trkpt lat="41.18361" lon="1.13492">
        <ele>150.6</ele>
        <time>2022-05-20 19:27:59</time>
      </trkpt>
      <trkpt lat="41.18368" lon="1.13496">
        <ele>150.6</ele>
        <time>2022-05-20 19:28:00</time>
      </trkpt>
      <trkpt lat="41.18375" lon="1.135">
        <ele>150.8</ele>
        <time>2022-05-20 19:28:01</time>
      </trkpt>
      <trkpt lat="41.18383" lon="1.13504">
        <ele>150.8</ele>
        <time>2022-05-20 19:28:02</time>
      </trkpt>
      <trkpt lat="41.1839" lon="1.13508">
        <ele>151</ele>
        <time>2022-05-20 19:28:03</time>
      </trkpt>
      <trkpt lat="41.18399" lon="1.13513">
        <ele>151.2</ele>
        <time>2022-05-20 19:28:04</time>
      </trkpt>
      <trkpt lat="41.18407" lon="1.13517">
        <ele>151.4</ele>
        <time>2022-05-20 19:28:05</time>
      </trkpt>
      <trkpt lat="41.18414" lon="1.13522">
        <ele>151.4</ele>
        <time>2022-05-20 19:28:06</time>
      </trkpt>
      <trkpt lat="41.18422" lon="1.13527">
        <ele>151.6</ele>
        <time>2022-05-20 19:28:07</time>
      </trkpt>
      <trkpt lat="41.1843" lon="1.13531">
        <ele>151.6</ele>
        <time>2022-05-20 19:28:08</time>
      </trkpt>
      <trkpt lat="41.18438" lon="1.13536">
        <ele>151.8</ele>
        <time>2022-05-20 19:28:09</time>
      </trkpt>
      <trkpt lat="41.18446" lon="1.1354">
        <ele>151.8</ele>
        <time>2022-05-20 19:28:10</time>
      </trkpt>
      <trkpt lat="41.18455" lon="1.13544">
        <ele>151.8</ele>
        <time>2022-05-20 19:28:11</time>
      </trkpt>
      <trkpt lat="41.18463" lon="1.13549">
        <ele>152</ele>
        <time>2022-05-20 19:28:12</time>
      </trkpt>
      <trkpt lat="41.18471" lon="1.13553">
        <ele>152</ele>
        <time>2022-05-20 19:28:13</time>
      </trkpt>
      <trkpt lat="41.18479" lon="1.13558">
        <ele>152.2</ele>
        <time>2022-05-20 19:28:14</time>
      </trkpt>
      <trkpt lat="41.18487" lon="1.13563">
        <ele>152.4</ele>
        <time>2022-05-20 19:28:15</time>
      </trkpt>
      <trkpt lat="41.18495" lon="1.13567">
        <ele>152.6</ele>
        <time>2022-05-20 19:28:16</time>
      </trkpt>
      <trkpt lat="41.18503" lon="1.13572">
        <ele>152.6</ele>
        <time>2022-05-20 19:28:17</time>
      </trkpt>
      <trkpt lat="41.18511" lon="1.13577">
        <ele>152.8</ele>
        <time>2022-05-20 19:28:18</time>
      </trkpt>
      <trkpt lat="41.18519" lon="1.13582">
        <ele>153</ele>
        <time>2022-05-20 19:28:19</time>
      </trkpt>
      <trkpt lat="41.18526" lon="1.13587">
        <ele>153.2</ele>
        <time>2022-05-20 19:28:20</time>
      </trkpt>
      <trkpt lat="41.18534" lon="1.13592">
        <ele>153.4</ele>
        <time>2022-05-20 19:28:21</time>
      </trkpt>
      <trkpt lat="41.18542" lon="1.13596">
        <ele>153.8</ele>
        <time>2022-05-20 19:28:22</time>
      </trkpt>
      <trkpt lat="41.18549" lon="1.136">
        <ele>154</ele>
        <time>2022-05-20 19:28:23</time>
      </trkpt>
      <trkpt lat="41.18556" lon="1.13604">
        <ele>154.2</ele>
        <time>2022-05-20 19:28:24</time>
      </trkpt>
      <trkpt lat="41.18564" lon="1.13609">
        <ele>154.6</ele>
        <time>2022-05-20 19:28:25</time>
      </trkpt>
      <trkpt lat="41.18572" lon="1.13613">
        <ele>154.8</ele>
        <time>2022-05-20 19:28:26</time>
      </trkpt>
      <trkpt lat="41.18579" lon="1.13617">
        <ele>155</ele>
        <time>2022-05-20 19:28:27</time>
      </trkpt>
      <trkpt lat="41.18586" lon="1.13622">
        <ele>155.2</ele>
        <time>2022-05-20 19:28:28</time>
      </trkpt>
      <trkpt lat="41.18595" lon="1.13626">
        <ele>155.4</ele>
        <time>2022-05-20 19:28:29</time>
      </trkpt>
      <trkpt lat="41.18602" lon="1.13631">
        <ele>155.6</ele>
        <time>2022-05-20 19:28:30</time>
      </trkpt>
      <trkpt lat="41.1861" lon="1.13635">
        <ele>155.8</ele>
        <time>2022-05-20 19:28:31</time>
      </trkpt>
      <trkpt lat="41.18618" lon="1.13639">
        <ele>156</ele>
        <time>2022-05-20 19:28:32</time>
      </trkpt>
      <trkpt lat="41.18625" lon="1.13644">
        <ele>156.2</ele>
        <time>2022-05-20 19:28:33</time>
      </trkpt>
      <trkpt lat="41.18633" lon="1.13648">
        <ele>156.4</ele>
        <time>2022-05-20 19:28:34</time>
      </trkpt>
      <trkpt lat="41.18641" lon="1.13652">
        <ele>156.4</ele>
        <time>2022-05-20 19:28:35</time>
      </trkpt>
      <trkpt lat="41.18649" lon="1.13657">
        <ele>156.6</ele>
        <time>2022-05-20 19:28:36</time>
      </trkpt>
      <trkpt lat="41.18657" lon="1.13661">
        <ele>156.8</ele>
        <time>2022-05-20 19:28:37</time>
      </trkpt>
      <trkpt lat="41.18665" lon="1.13666">
        <ele>156.8</ele>
        <time>2022-05-20 19:28:38</time>
      </trkpt>
      <trkpt lat="41.18673" lon="1.1367">
        <ele>156.8</ele>
        <time>2022-05-20 19:28:39</time>
      </trkpt>
      <trkpt lat="41.18681" lon="1.13675">
        <ele>157</ele>
        <time>2022-05-20 19:28:40</time>
      </trkpt>
      <trkpt lat="41.18689" lon="1.13679">
        <ele>157</ele>
        <time>2022-05-20 19:28:41</time>
      </trkpt>
      <trkpt lat="41.18697" lon="1.13684">
        <ele>157</ele>
        <time>2022-05-20 19:28:42</time>
      </trkpt>
      <trkpt lat="41.18704" lon="1.13688">
        <ele>157.2</ele>
        <time>2022-05-20 19:28:43</time>
      </trkpt>
      <trkpt lat="41.18712" lon="1.13693">
        <ele>157.4</ele>
        <time>2022-05-20 19:28:44</time>
      </trkpt>
      <trkpt lat="41.1872" lon="1.13697">
        <ele>157.6</ele>
        <time>2022-05-20 19:28:45</time>
      </trkpt>
      <trkpt lat="41.18728" lon="1.13701">
        <ele>157.8</ele>
        <time>2022-05-20 19:28:46</time>
      </trkpt>
      <trkpt lat="41.18736" lon="1.13706">
        <ele>158</ele>
        <time>2022-05-20 19:28:47</time>
      </trkpt>
      <trkpt lat="41.18744" lon="1.1371">
        <ele>158.2</ele>
        <time>2022-05-20 19:28:48</time>
      </trkpt>
      <trkpt lat="41.18752" lon="1.13714">
        <ele>158.4</ele>
        <time>2022-05-20 19:28:49</time>
      </trkpt>
      <trkpt lat="41.18759" lon="1.13718">
        <ele>158.6</ele>
        <time>2022-05-20 19:28:50</time>
      </trkpt>
      <trkpt lat="41.18767" lon="1.13723">
        <ele>158.8</ele>
        <time>2022-05-20 19:28:51</time>
      </trkpt>
      <trkpt lat="41.18774" lon="1.13727">
        <ele>159</ele>
        <time>2022-05-20 19:28:52</time>
      </trkpt>
      <trkpt lat="41.18781" lon="1.13731">
        <ele>159.2</ele>
        <time>2022-05-20 19:28:53</time>
      </trkpt>
      <trkpt lat="41.18789" lon="1.13735">
        <ele>159.6</ele>
        <time>2022-05-20 19:28:54</time>
      </trkpt>
      <trkpt lat="41.18797" lon="1.1374">
        <ele>159.8</ele>
        <time>2022-05-20 19:28:55</time>
      </trkpt>
      <trkpt lat="41.18805" lon="1.13745">
        <ele>160</ele>
        <time>2022-05-20 19:28:56</time>
      </trkpt>
      <trkpt lat="41.18813" lon="1.1375">
        <ele>160.2</ele>
        <time>2022-05-20 19:28:57</time>
      </trkpt>
      <trkpt lat="41.18821" lon="1.13754">
        <ele>160.4</ele>
        <time>2022-05-20 19:28:58</time>
      </trkpt>
      <trkpt lat="41.18829" lon="1.13759">
        <ele>160.6</ele>
        <time>2022-05-20 19:28:59</time>
      </trkpt>
      <trkpt lat="41.18837" lon="1.13763">
        <ele>160.8</ele>
        <time>2022-05-20 19:29:00</time>
      </trkpt>
      <trkpt lat="41.18845" lon="1.13768">
        <ele>161</ele>
        <time>2022-05-20 19:29:01</time>
      </trkpt>
      <trkpt lat="41.18853" lon="1.13772">
        <ele>161.2</ele>
        <time>2022-05-20 19:29:02</time>
      </trkpt>
      <trkpt lat="41.18861" lon="1.13777">
        <ele>161.2</ele>
        <time>2022-05-20 19:29:03</time>
      </trkpt>
      <trkpt lat="41.18869" lon="1.13782">
        <ele>161.4</ele>
        <time>2022-05-20 19:29:04</time>
      </trkpt>
      <trkpt lat="41.18877" lon="1.13786">
        <ele>161.4</ele>
        <time>2022-05-20 19:29:05</time>
      </trkpt>
      <trkpt lat="41.18886" lon="1.13791">
        <ele>161.4</ele>
        <time>2022-05-20 19:29:06</time>
      </trkpt>
      <trkpt lat="41.18894" lon="1.13796">
        <ele>161.6</ele>
        <time>2022-05-20 19:29:07</time>
      </trkpt>
      <trkpt lat="41.18903" lon="1.13801">
        <ele>161.6</ele>
        <time>2022-05-20 19:29:08</time>
      </trkpt>
      <trkpt lat="41.18911" lon="1.13805">
        <ele>161.8</ele>
        <time>2022-05-20 19:29:09</time>
      </trkpt>
      <trkpt lat="41.1892" lon="1.1381">
        <ele>161.8</ele>
        <time>2022-05-20 19:29:10</time>
      </trkpt>
      <trkpt lat="41.18928" lon="1.13815">
        <ele>162</ele>
        <time>2022-05-20 19:29:11</time>
      </trkpt>
      <trkpt lat="41.18937" lon="1.13819">
        <ele>162</ele>
        <time>2022-05-20 19:29:12</time>
      </trkpt>
      <trkpt lat="41.18945" lon="1.13824">
        <ele>162.2</ele>
        <time>2022-05-20 19:29:13</time>
      </trkpt>
      <trkpt lat="41.18954" lon="1.13829">
        <ele>162.2</ele>
        <time>2022-05-20 19:29:14</time>
      </trkpt>
      <trkpt lat="41.18962" lon="1.13834">
        <ele>162.4</ele>
        <time>2022-05-20 19:29:15</time>
      </trkpt>
      <trkpt lat="41.1897" lon="1.13839">
        <ele>162.6</ele>
        <time>2022-05-20 19:29:16</time>
      </trkpt>
      <trkpt lat="41.18979" lon="1.13844">
        <ele>162.6</ele>
        <time>2022-05-20 19:29:17</time>
      </trkpt>
      <trkpt lat="41.18987" lon="1.13849">
        <ele>162.8</ele>
        <time>2022-05-20 19:29:18</time>
      </trkpt>
      <trkpt lat="41.18996" lon="1.13854">
        <ele>163</ele>
        <time>2022-05-20 19:29:19</time>
      </trkpt>
      <trkpt lat="41.19004" lon="1.1386">
        <ele>163.2</ele>
        <time>2022-05-20 19:29:20</time>
      </trkpt>
      <trkpt lat="41.19011" lon="1.13865">
        <ele>163.6</ele>
        <time>2022-05-20 19:29:21</time>
      </trkpt>
      <trkpt lat="41.19018" lon="1.1387">
        <ele>164</ele>
        <time>2022-05-20 19:29:22</time>
      </trkpt>
      <trkpt lat="41.19025" lon="1.13875">
        <ele>164.6</ele>
        <time>2022-05-20 19:29:23</time>
      </trkpt>
      <trkpt lat="41.19031" lon="1.1388">
        <ele>165.4</ele>
        <time>2022-05-20 19:29:24</time>
      </trkpt>
      <trkpt lat="41.19037" lon="1.13884">
        <ele>166</ele>
        <time>2022-05-20 19:29:25</time>
      </trkpt>
      <trkpt lat="41.19042" lon="1.13888">
        <ele>166.6</ele>
        <time>2022-05-20 19:29:26</time>
      </trkpt>
      <trkpt lat="41.19048" lon="1.13893">
        <ele>167.2</ele>
        <time>2022-05-20 19:29:27</time>
      </trkpt>
      <trkpt lat="41.19053" lon="1.13896">
        <ele>168</ele>
        <time>2022-05-20 19:29:28</time>
      </trkpt>
      <trkpt lat="41.19057" lon="1.139">
        <ele>168.6</ele>
        <time>2022-05-20 19:29:29</time>
      </trkpt>
      <trkpt lat="41.19062" lon="1.13904">
        <ele>169.2</ele>
        <time>2022-05-20 19:29:30</time>
      </trkpt>
      <trkpt lat="41.19067" lon="1.13907">
        <ele>169.6</ele>
        <time>2022-05-20 19:29:31</time>
      </trkpt>
      <trkpt lat="41.19073" lon="1.13911">
        <ele>170</ele>
        <time>2022-05-20 19:29:32</time>
      </trkpt>
      <trkpt lat="41.19078" lon="1.13914">
        <ele>170.4</ele>
        <time>2022-05-20 19:29:33</time>
      </trkpt>
      <trkpt lat="41.19083" lon="1.13918">
        <ele>170.8</ele>
        <time>2022-05-20 19:29:34</time>
      </trkpt>
      <trkpt lat="41.1909" lon="1.13921">
        <ele>171</ele>
        <time>2022-05-20 19:29:35</time>
      </trkpt>
      <trkpt lat="41.19096" lon="1.13925">
        <ele>171</ele>
        <time>2022-05-20 19:29:36</time>
      </trkpt>
      <trkpt lat="41.19103" lon="1.13928">
        <ele>171.2</ele>
        <time>2022-05-20 19:29:37</time>
      </trkpt>
      <trkpt lat="41.1911" lon="1.13932">
        <ele>171.2</ele>
        <time>2022-05-20 19:29:38</time>
      </trkpt>
      <trkpt lat="41.19118" lon="1.13936">
        <ele>171.2</ele>
        <time>2022-05-20 19:29:39</time>
      </trkpt>
      <trkpt lat="41.19126" lon="1.13939">
        <ele>171.2</ele>
        <time>2022-05-20 19:29:40</time>
      </trkpt>
      <trkpt lat="41.19135" lon="1.13943">
        <ele>170.6</ele>
        <time>2022-05-20 19:29:41</time>
      </trkpt>
      <trkpt lat="41.19144" lon="1.13946">
        <ele>170</ele>
        <time>2022-05-20 19:29:42</time>
      </trkpt>
      <trkpt lat="41.19154" lon="1.13949">
        <ele>169.2</ele>
        <time>2022-05-20 19:29:43</time>
      </trkpt>
      <trkpt lat="41.19166" lon="1.13953">
        <ele>168.4</ele>
        <time>2022-05-20 19:29:44</time>
      </trkpt>
      <trkpt lat="41.19178" lon="1.13957">
        <ele>167.4</ele>
        <time>2022-05-20 19:29:45</time>
      </trkpt>
      <trkpt lat="41.19189" lon="1.13963">
        <ele>166.6</ele>
        <time>2022-05-20 19:29:46</time>
      </trkpt>
      <trkpt lat="41.19201" lon="1.1397">
        <ele>165.6</ele>
        <time>2022-05-20 19:29:47</time>
      </trkpt>
      <trkpt lat="41.19212" lon="1.13978">
        <ele>165</ele>
        <time>2022-05-20 19:29:48</time>
      </trkpt>
      <trkpt lat="41.19223" lon="1.13985">
        <ele>164.6</ele>
        <time>2022-05-20 19:29:49</time>
      </trkpt>
      <trkpt lat="41.19235" lon="1.13991">
        <ele>164.4</ele>
        <time>2022-05-20 19:29:50</time>
      </trkpt>
      <trkpt lat="41.19246" lon="1.13998">
        <ele>164.4</ele>
        <time>2022-05-20 19:29:51</time>
      </trkpt>
      <trkpt lat="41.19257" lon="1.14004">
        <ele>164.2</ele>
        <time>2022-05-20 19:29:52</time>
      </trkpt>
      <trkpt lat="41.19269" lon="1.14009">
        <ele>164.2</ele>
        <time>2022-05-20 19:29:53</time>
      </trkpt>
      <trkpt lat="41.1928" lon="1.14015">
        <ele>164.2</ele>
        <time>2022-05-20 19:29:54</time>
      </trkpt>
      <trkpt lat="41.19291" lon="1.1402">
        <ele>164.2</ele>
        <time>2022-05-20 19:29:55</time>
      </trkpt>
      <trkpt lat="41.19302" lon="1.14026">
        <ele>164.2</ele>
        <time>2022-05-20 19:29:56</time>
      </trkpt>
      <trkpt lat="41.19313" lon="1.14032">
        <ele>164.2</ele>
        <time>2022-05-20 19:29:57</time>
      </trkpt>
      <trkpt lat="41.19324" lon="1.14038">
        <ele>164.2</ele>
        <time>2022-05-20 19:29:58</time>
      </trkpt>
      <trkpt lat="41.19335" lon="1.14044">
        <ele>164.2</ele>
        <time>2022-05-20 19:29:59</time>
      </trkpt>
      <trkpt lat="41.19345" lon="1.14049">
        <ele>164.4</ele>
        <time>2022-05-20 19:30:00</time>
      </trkpt>
      <trkpt lat="41.19356" lon="1.14054">
        <ele>164.6</ele>
        <time>2022-05-20 19:30:01</time>
      </trkpt>
      <trkpt lat="41.19366" lon="1.1406">
        <ele>164.6</ele>
        <time>2022-05-20 19:30:02</time>
      </trkpt>
      <trkpt lat="41.19377" lon="1.14066">
        <ele>164.8</ele>
        <time>2022-05-20 19:30:03</time>
      </trkpt>
      <trkpt lat="41.19387" lon="1.14071">
        <ele>164.8</ele>
        <time>2022-05-20 19:30:04</time>
      </trkpt>
      <trkpt lat="41.19397" lon="1.14077">
        <ele>164.8</ele>
        <time>2022-05-20 19:30:05</time>
      </trkpt>
      <trkpt lat="41.19409" lon="1.14083">
        <ele>164.6</ele>
        <time>2022-05-20 19:30:06</time>
      </trkpt>
      <trkpt lat="41.19419" lon="1.14089">
        <ele>164.6</ele>
        <time>2022-05-20 19:30:07</time>
      </trkpt>
      <trkpt lat="41.1943" lon="1.14094">
        <ele>164.6</ele>
        <time>2022-05-20 19:30:08</time>
      </trkpt>
      <trkpt lat="41.1944" lon="1.14099">
        <ele>164.6</ele>
        <time>2022-05-20 19:30:09</time>
      </trkpt>
      <trkpt lat="41.19451" lon="1.14105">
        <ele>164.8</ele>
        <time>2022-05-20 19:30:10</time>
      </trkpt>
      <trkpt lat="41.19461" lon="1.1411">
        <ele>164.8</ele>
        <time>2022-05-20 19:30:11</time>
      </trkpt>
      <trkpt lat="41.19471" lon="1.14116">
        <ele>164.8</ele>
        <time>2022-05-20 19:30:12</time>
      </trkpt>
      <trkpt lat="41.19481" lon="1.14122">
        <ele>164.8</ele>
        <time>2022-05-20 19:30:13</time>
      </trkpt>
      <trkpt lat="41.1949" lon="1.14127">
        <ele>165</ele>
        <time>2022-05-20 19:30:14</time>
      </trkpt>
      <trkpt lat="41.195" lon="1.14133">
        <ele>165</ele>
        <time>2022-05-20 19:30:15</time>
      </trkpt>
      <trkpt lat="41.1951" lon="1.14138">
        <ele>165</ele>
        <time>2022-05-20 19:30:16</time>
      </trkpt>
      <trkpt lat="41.1952" lon="1.14143">
        <ele>165</ele>
        <time>2022-05-20 19:30:17</time>
      </trkpt>
      <trkpt lat="41.1953" lon="1.14149">
        <ele>165</ele>
        <time>2022-05-20 19:30:18</time>
      </trkpt>
      <trkpt lat="41.1954" lon="1.14154">
        <ele>165.2</ele>
        <time>2022-05-20 19:30:19</time>
      </trkpt>
      <trkpt lat="41.1955" lon="1.1416">
        <ele>165.2</ele>
        <time>2022-05-20 19:30:20</time>
      </trkpt>
      <trkpt lat="41.19559" lon="1.14165">
        <ele>165.2</ele>
        <time>2022-05-20 19:30:21</time>
      </trkpt>
      <trkpt lat="41.19569" lon="1.1417">
        <ele>165.4</ele>
        <time>2022-05-20 19:30:22</time>
      </trkpt>
      <trkpt lat="41.19578" lon="1.14176">
        <ele>165.4</ele>
        <time>2022-05-20 19:30:23</time>
      </trkpt>
      <trkpt lat="41.19588" lon="1.14181">
        <ele>165.6</ele>
        <time>2022-05-20 19:30:24</time>
      </trkpt>
      <trkpt lat="41.19597" lon="1.14186">
        <ele>165.8</ele>
        <time>2022-05-20 19:30:25</time>
      </trkpt>
      <trkpt lat="41.19606" lon="1.14192">
        <ele>165.8</ele>
        <time>2022-05-20 19:30:26</time>
      </trkpt>
      <trkpt lat="41.19616" lon="1.14197">
        <ele>165.8</ele>
        <time>2022-05-20 19:30:27</time>
      </trkpt>
      <trkpt lat="41.19625" lon="1.14202">
        <ele>165.8</ele>
        <time>2022-05-20 19:30:28</time>
      </trkpt>
      <trkpt lat="41.19635" lon="1.14207">
        <ele>166</ele>
        <time>2022-05-20 19:30:29</time>
      </trkpt>
      <trkpt lat="41.19644" lon="1.14212">
        <ele>166</ele>
        <time>2022-05-20 19:30:30</time>
      </trkpt>
      <trkpt lat="41.19654" lon="1.14217">
        <ele>166</ele>
        <time>2022-05-20 19:30:31</time>
      </trkpt>
      <trkpt lat="41.19663" lon="1.14222">
        <ele>166</ele>
        <time>2022-05-20 19:30:32</time>
      </trkpt>
      <trkpt lat="41.19672" lon="1.14227">
        <ele>166</ele>
        <time>2022-05-20 19:30:33</time>
      </trkpt>
      <trkpt lat="41.19682" lon="1.14232">
        <ele>166</ele>
        <time>2022-05-20 19:30:34</time>
      </trkpt>
      <trkpt lat="41.19691" lon="1.14237">
        <ele>166</ele>
        <time>2022-05-20 19:30:35</time>
      </trkpt>
      <trkpt lat="41.19701" lon="1.14242">
        <ele>166.2</ele>
        <time>2022-05-20 19:30:36</time>
      </trkpt>
      <trkpt lat="41.1971" lon="1.14247">
        <ele>166.4</ele>
        <time>2022-05-20 19:30:37</time>
      </trkpt>
      <trkpt lat="41.19719" lon="1.14252">
        <ele>166.4</ele>
        <time>2022-05-20 19:30:38</time>
      </trkpt>
      <trkpt lat="41.19727" lon="1.14257">
        <ele>166.6</ele>
        <time>2022-05-20 19:30:39</time>
      </trkpt>
      <trkpt lat="41.19736" lon="1.14262">
        <ele>166.6</ele>
        <time>2022-05-20 19:30:40</time>
      </trkpt>
      <trkpt lat="41.19745" lon="1.14267">
        <ele>166.8</ele>
        <time>2022-05-20 19:30:41</time>
      </trkpt>
      <trkpt lat="41.19754" lon="1.14272">
        <ele>166.8</ele>
        <time>2022-05-20 19:30:42</time>
      </trkpt>
      <trkpt lat="41.19763" lon="1.14277">
        <ele>167.2</ele>
        <time>2022-05-20 19:30:43</time>
      </trkpt>
      <trkpt lat="41.19772" lon="1.14282">
        <ele>167.4</ele>
        <time>2022-05-20 19:30:44</time>
      </trkpt>
      <trkpt lat="41.19781" lon="1.14287">
        <ele>167.6</ele>
        <time>2022-05-20 19:30:45</time>
      </trkpt>
      <trkpt lat="41.1979" lon="1.14292">
        <ele>167.8</ele>
        <time>2022-05-20 19:30:46</time>
      </trkpt>
      <trkpt lat="41.19799" lon="1.14296">
        <ele>168</ele>
        <time>2022-05-20 19:30:47</time>
      </trkpt>
      <trkpt lat="41.19807" lon="1.14301">
        <ele>168.2</ele>
        <time>2022-05-20 19:30:48</time>
      </trkpt>
      <trkpt lat="41.19816" lon="1.14305">
        <ele>168.4</ele>
        <time>2022-05-20 19:30:49</time>
      </trkpt>
      <trkpt lat="41.19825" lon="1.14309">
        <ele>168.8</ele>
        <time>2022-05-20 19:30:50</time>
      </trkpt>
      <trkpt lat="41.19833" lon="1.14315">
        <ele>169</ele>
        <time>2022-05-20 19:30:51</time>
      </trkpt>
      <trkpt lat="41.19841" lon="1.1432">
        <ele>169.4</ele>
        <time>2022-05-20 19:30:52</time>
      </trkpt>
      <trkpt lat="41.19849" lon="1.14326">
        <ele>169.6</ele>
        <time>2022-05-20 19:30:53</time>
      </trkpt>
      <trkpt lat="41.19858" lon="1.14332">
        <ele>170</ele>
        <time>2022-05-20 19:30:54</time>
      </trkpt>
      <trkpt lat="41.19866" lon="1.14337">
        <ele>170.2</ele>
        <time>2022-05-20 19:30:55</time>
      </trkpt>
      <trkpt lat="41.19874" lon="1.14342">
        <ele>170.4</ele>
        <time>2022-05-20 19:30:56</time>
      </trkpt>
      <trkpt lat="41.19883" lon="1.14346">
        <ele>170.6</ele>
        <time>2022-05-20 19:30:57</time>
      </trkpt>
      <trkpt lat="41.19891" lon="1.14351">
        <ele>170.6</ele>
        <time>2022-05-20 19:30:58</time>
      </trkpt>
      <trkpt lat="41.199" lon="1.14355">
        <ele>170.8</ele>
        <time>2022-05-20 19:30:59</time>
      </trkpt>
      <trkpt lat="41.19909" lon="1.1436">
        <ele>171</ele>
        <time>2022-05-20 19:31:00</time>
      </trkpt>
      <trkpt lat="41.19918" lon="1.14365">
        <ele>171</ele>
        <time>2022-05-20 19:31:01</time>
      </trkpt>
      <trkpt lat="41.19927" lon="1.1437">
        <ele>171.2</ele>
        <time>2022-05-20 19:31:02</time>
      </trkpt>
      <trkpt lat="41.19936" lon="1.14375">
        <ele>171.2</ele>
        <time>2022-05-20 19:31:03</time>
      </trkpt>
      <trkpt lat="41.19944" lon="1.1438">
        <ele>171.4</ele>
        <time>2022-05-20 19:31:04</time>
      </trkpt>
      <trkpt lat="41.19952" lon="1.14385">
        <ele>171.4</ele>
        <time>2022-05-20 19:31:05</time>
      </trkpt>
      <trkpt lat="41.1996" lon="1.14389">
        <ele>171.6</ele>
        <time>2022-05-20 19:31:06</time>
      </trkpt>
      <trkpt lat="41.19968" lon="1.14394">
        <ele>171.8</ele>
        <time>2022-05-20 19:31:07</time>
      </trkpt>
      <trkpt lat="41.19976" lon="1.14399">
        <ele>171.8</ele>
        <time>2022-05-20 19:31:08</time>
      </trkpt>
      <trkpt lat="41.19984" lon="1.14404">
        <ele>172</ele>
        <time>2022-05-20 19:31:09</time>
      </trkpt>
      <trkpt lat="41.19992" lon="1.14409">
        <ele>172</ele>
        <time>2022-05-20 19:31:10</time>
      </trkpt>
      <trkpt lat="41.2" lon="1.14414">
        <ele>172.2</ele>
        <time>2022-05-20 19:31:11</time>
      </trkpt>
      <trkpt lat="41.20008" lon="1.14418">
        <ele>172.4</ele>
        <time>2022-05-20 19:31:12</time>
      </trkpt>
      <trkpt lat="41.20016" lon="1.14423">
        <ele>172.4</ele>
        <time>2022-05-20 19:31:13</time>
      </trkpt>
      <trkpt lat="41.20024" lon="1.14428">
        <ele>172.4</ele>
        <time>2022-05-20 19:31:14</time>
      </trkpt>
      <trkpt lat="41.20032" lon="1.14433">
        <ele>172.6</ele>
        <time>2022-05-20 19:31:15</time>
      </trkpt>
      <trkpt lat="41.2004" lon="1.14438">
        <ele>172.6</ele>
        <time>2022-05-20 19:31:16</time>
      </trkpt>
      <trkpt lat="41.20047" lon="1.14442">
        <ele>172.8</ele>
        <time>2022-05-20 19:31:17</time>
      </trkpt>
      <trkpt lat="41.20055" lon="1.14447">
        <ele>172.8</ele>
        <time>2022-05-20 19:31:18</time>
      </trkpt>
      <trkpt lat="41.20063" lon="1.14451">
        <ele>173</ele>
        <time>2022-05-20 19:31:19</time>
      </trkpt>
      <trkpt lat="41.20071" lon="1.14456">
        <ele>173</ele>
        <time>2022-05-20 19:31:20</time>
      </trkpt>
      <trkpt lat="41.20079" lon="1.14461">
        <ele>173.2</ele>
        <time>2022-05-20 19:31:21</time>
      </trkpt>
      <trkpt lat="41.20087" lon="1.14466">
        <ele>173.2</ele>
        <time>2022-05-20 19:31:22</time>
      </trkpt>
      <trkpt lat="41.20095" lon="1.14471">
        <ele>173.2</ele>
        <time>2022-05-20 19:31:23</time>
      </trkpt>
      <trkpt lat="41.20103" lon="1.14476">
        <ele>173.4</ele>
        <time>2022-05-20 19:31:24</time>
      </trkpt>
      <trkpt lat="41.20111" lon="1.14481">
        <ele>173.4</ele>
        <time>2022-05-20 19:31:25</time>
      </trkpt>
      <trkpt lat="41.20118" lon="1.14486">
        <ele>173.6</ele>
        <time>2022-05-20 19:31:26</time>
      </trkpt>
      <trkpt lat="41.20126" lon="1.14491">
        <ele>173.8</ele>
        <time>2022-05-20 19:31:27</time>
      </trkpt>
      <trkpt lat="41.20133" lon="1.14496">
        <ele>173.8</ele>
        <time>2022-05-20 19:31:28</time>
      </trkpt>
      <trkpt lat="41.2014" lon="1.14501">
        <ele>174</ele>
        <time>2022-05-20 19:31:29</time>
      </trkpt>
      <trkpt lat="41.20146" lon="1.14509">
        <ele>174</ele>
        <time>2022-05-20 19:31:30</time>
      </trkpt>
      <trkpt lat="41.2015" lon="1.14518">
        <ele>173.8</ele>
        <time>2022-05-20 19:31:31</time>
      </trkpt>
      <trkpt lat="41.20152" lon="1.14528">
        <ele>173.6</ele>
        <time>2022-05-20 19:31:32</time>
      </trkpt>
      <trkpt lat="41.2015" lon="1.14539">
        <ele>173.4</ele>
        <time>2022-05-20 19:31:33</time>
      </trkpt>
      <trkpt lat="41.20146" lon="1.14549">
        <ele>173.4</ele>
        <time>2022-05-20 19:31:34</time>
      </trkpt>
      <trkpt lat="41.2014" lon="1.14558">
        <ele>173.2</ele>
        <time>2022-05-20 19:31:35</time>
      </trkpt>
      <trkpt lat="41.20134" lon="1.14566">
        <ele>173</ele>
        <time>2022-05-20 19:31:36</time>
      </trkpt>
      <trkpt lat="41.20127" lon="1.14573">
        <ele>173</ele>
        <time>2022-05-20 19:31:37</time>
      </trkpt>
      <trkpt lat="41.20121" lon="1.1458">
        <ele>172.8</ele>
        <time>2022-05-20 19:31:38</time>
      </trkpt>
      <trkpt lat="41.20115" lon="1.14587">
        <ele>172.8</ele>
        <time>2022-05-20 19:31:39</time>
      </trkpt>
      <trkpt lat="41.2011" lon="1.14593">
        <ele>172.8</ele>
        <time>2022-05-20 19:31:40</time>
      </trkpt>
      <trkpt lat="41.20106" lon="1.14598">
        <ele>172.8</ele>
        <time>2022-05-20 19:31:41</time>
      </trkpt>
      <trkpt lat="41.20104" lon="1.14605">
        <ele>172.6</ele>
        <time>2022-05-20 19:31:42</time>
      </trkpt>
      <trkpt lat="41.20106" lon="1.14612">
        <ele>172.8</ele>
        <time>2022-05-20 19:31:43</time>
      </trkpt>
      <trkpt lat="41.20109" lon="1.14619">
        <ele>172.8</ele>
        <time>2022-05-20 19:31:44</time>
      </trkpt>
      <trkpt lat="41.20113" lon="1.14625">
        <ele>172.8</ele>
        <time>2022-05-20 19:31:45</time>
      </trkpt>
      <trkpt lat="41.20118" lon="1.14632">
        <ele>172.8</ele>
        <time>2022-05-20 19:31:46</time>
      </trkpt>
      <trkpt lat="41.20124" lon="1.14639">
        <ele>172.6</ele>
        <time>2022-05-20 19:31:47</time>
      </trkpt>
      <trkpt lat="41.20129" lon="1.14647">
        <ele>172.4</ele>
        <time>2022-05-20 19:31:48</time>
      </trkpt>
      <trkpt lat="41.20136" lon="1.14655">
        <ele>172.4</ele>
        <time>2022-05-20 19:31:49</time>
      </trkpt>
      <trkpt lat="41.20142" lon="1.14664">
        <ele>172</ele>
        <time>2022-05-20 19:31:50</time>
      </trkpt>
      <trkpt lat="41.20148" lon="1.14672">
        <ele>171.8</ele>
        <time>2022-05-20 19:31:51</time>
      </trkpt>
      <trkpt lat="41.20155" lon="1.14681">
        <ele>171.8</ele>
        <time>2022-05-20 19:31:52</time>
      </trkpt>
      <trkpt lat="41.20161" lon="1.1469">
        <ele>171.6</ele>
        <time>2022-05-20 19:31:53</time>
      </trkpt>
      <trkpt lat="41.20168" lon="1.14699">
        <ele>171.6</ele>
        <time>2022-05-20 19:31:54</time>
      </trkpt>
      <trkpt lat="41.20174" lon="1.14707">
        <ele>171.8</ele>
        <time>2022-05-20 19:31:55</time>
      </trkpt>
      <trkpt lat="41.2018" lon="1.14716">
        <ele>171.8</ele>
        <time>2022-05-20 19:31:56</time>
      </trkpt>
      <trkpt lat="41.20186" lon="1.14724">
        <ele>172</ele>
        <time>2022-05-20 19:31:57</time>
      </trkpt>
      <trkpt lat="41.20192" lon="1.14733">
        <ele>172</ele>
        <time>2022-05-20 19:31:58</time>
      </trkpt>
      <trkpt lat="41.20198" lon="1.14742">
        <ele>172.2</ele>
        <time>2022-05-20 19:31:59</time>
      </trkpt>
      <trkpt lat="41.20205" lon="1.1475">
        <ele>172.2</ele>
        <time>2022-05-20 19:32:00</time>
      </trkpt>
      <trkpt lat="41.20211" lon="1.14758">
        <ele>172.4</ele>
        <time>2022-05-20 19:32:01</time>
      </trkpt>
      <trkpt lat="41.20217" lon="1.14767">
        <ele>172.6</ele>
        <time>2022-05-20 19:32:02</time>
      </trkpt>
      <trkpt lat="41.20223" lon="1.14775">
        <ele>172.8</ele>
        <time>2022-05-20 19:32:03</time>
      </trkpt>
      <trkpt lat="41.20228" lon="1.14784">
        <ele>172.8</ele>
        <time>2022-05-20 19:32:04</time>
      </trkpt>
      <trkpt lat="41.20234" lon="1.14793">
        <ele>172.8</ele>
        <time>2022-05-20 19:32:05</time>
      </trkpt>
      <trkpt lat="41.20239" lon="1.14802">
        <ele>172.8</ele>
        <time>2022-05-20 19:32:06</time>
      </trkpt>
      <trkpt lat="41.20245" lon="1.14811">
        <ele>173</ele>
        <time>2022-05-20 19:32:07</time>
      </trkpt>
      <trkpt lat="41.20251" lon="1.14821">
        <ele>173</ele>
        <time>2022-05-20 19:32:08</time>
      </trkpt>
      <trkpt lat="41.20258" lon="1.1483">
        <ele>173</ele>
        <time>2022-05-20 19:32:09</time>
      </trkpt>
      <trkpt lat="41.20264" lon="1.14839">
        <ele>173</ele>
        <time>2022-05-20 19:32:10</time>
      </trkpt>
      <trkpt lat="41.20271" lon="1.14848">
        <ele>173</ele>
        <time>2022-05-20 19:32:11</time>
      </trkpt>
      <trkpt lat="41.20277" lon="1.14857">
        <ele>173</ele>
        <time>2022-05-20 19:32:12</time>
      </trkpt>
      <trkpt lat="41.20284" lon="1.14865">
        <ele>172.8</ele>
        <time>2022-05-20 19:32:13</time>
      </trkpt>
      <trkpt lat="41.20291" lon="1.14874">
        <ele>172.6</ele>
        <time>2022-05-20 19:32:14</time>
      </trkpt>
      <trkpt lat="41.20297" lon="1.14883">
        <ele>172.6</ele>
        <time>2022-05-20 19:32:15</time>
      </trkpt>
      <trkpt lat="41.20303" lon="1.14892">
        <ele>172.6</ele>
        <time>2022-05-20 19:32:16</time>
      </trkpt>
      <trkpt lat="41.2031" lon="1.149">
        <ele>172.6</ele>
        <time>2022-05-20 19:32:17</time>
      </trkpt>
      <trkpt lat="41.20315" lon="1.14908">
        <ele>172.8</ele>
        <time>2022-05-20 19:32:18</time>
      </trkpt>
      <trkpt lat="41.20319" lon="1.14915">
        <ele>172.8</ele>
        <time>2022-05-20 19:32:19</time>
      </trkpt>
      <trkpt lat="41.20323" lon="1.1492">
        <ele>172.8</ele>
        <time>2022-05-20 19:32:20</time>
      </trkpt>
      <trkpt lat="41.20326" lon="1.14924">
        <ele>172.8</ele>
        <time>2022-05-20 19:32:21</time>
      </trkpt>
      <trkpt lat="41.20329" lon="1.14927">
        <ele>172.8</ele>
        <time>2022-05-20 19:32:22</time>
      </trkpt>
      <trkpt lat="41.20331" lon="1.14929">
        <ele>172.8</ele>
        <time>2022-05-20 19:32:23</time>
      </trkpt>
      <trkpt lat="41.20334" lon="1.1493">
        <ele>172.8</ele>
        <time>2022-05-20 19:32:24</time>
      </trkpt>
      <trkpt lat="41.20337" lon="1.14929">
        <ele>172.8</ele>
        <time>2022-05-20 19:32:25</time>
      </trkpt>
      <trkpt lat="41.2034" lon="1.14927">
        <ele>172.8</ele>
        <time>2022-05-20 19:32:26</time>
      </trkpt>
      <trkpt lat="41.20344" lon="1.14925">
        <ele>172.6</ele>
        <time>2022-05-20 19:32:27</time>
      </trkpt>
      <trkpt lat="41.20348" lon="1.14922">
        <ele>172.8</ele>
        <time>2022-05-20 19:32:28</time>
      </trkpt>
      <trkpt lat="41.20352" lon="1.14918">
        <ele>172.8</ele>
        <time>2022-05-20 19:32:29</time>
      </trkpt>
      <trkpt lat="41.20356" lon="1.14914">
        <ele>172.8</ele>
        <time>2022-05-20 19:32:30</time>
      </trkpt>
      <trkpt lat="41.20359" lon="1.14909">
        <ele>173</ele>
        <time>2022-05-20 19:32:31</time>
      </trkpt>
      <trkpt lat="41.20363" lon="1.14905">
        <ele>173</ele>
        <time>2022-05-20 19:32:32</time>
      </trkpt>
      <trkpt lat="41.20367" lon="1.14899">
        <ele>173.2</ele>
        <time>2022-05-20 19:32:33</time>
      </trkpt>
      <trkpt lat="41.20372" lon="1.14894">
        <ele>173.4</ele>
        <time>2022-05-20 19:32:34</time>
      </trkpt>
      <trkpt lat="41.20376" lon="1.14889">
        <ele>173.6</ele>
        <time>2022-05-20 19:32:35</time>
      </trkpt>
      <trkpt lat="41.2038" lon="1.14883">
        <ele>174</ele>
        <time>2022-05-20 19:32:36</time>
      </trkpt>
      <trkpt lat="41.20383" lon="1.14878">
        <ele>174.2</ele>
        <time>2022-05-20 19:32:37</time>
      </trkpt>
      <trkpt lat="41.20388" lon="1.14874">
        <ele>174.4</ele>
        <time>2022-05-20 19:32:38</time>
      </trkpt>
      <trkpt lat="41.20391" lon="1.14869">
        <ele>174.8</ele>
        <time>2022-05-20 19:32:39</time>
      </trkpt>
      <trkpt lat="41.20395" lon="1.14865">
        <ele>175</ele>
        <time>2022-05-20 19:32:40</time>
      </trkpt>
      <trkpt lat="41.20399" lon="1.1486">
        <ele>175.4</ele>
        <time>2022-05-20 19:32:41</time>
      </trkpt>
      <trkpt lat="41.20403" lon="1.14856">
        <ele>175.6</ele>
        <time>2022-05-20 19:32:42</time>
      </trkpt>
      <trkpt lat="41.20406" lon="1.14851">
        <ele>176</ele>
        <time>2022-05-20 19:32:43</time>
      </trkpt>
      <trkpt lat="41.2041" lon="1.14847">
        <ele>176.2</ele>
        <time>2022-05-20 19:32:44</time>
      </trkpt>
      <trkpt lat="41.20414" lon="1.14842">
        <ele>176.6</ele>
        <time>2022-05-20 19:32:45</time>
      </trkpt>
      <trkpt lat="41.20419" lon="1.14837">
        <ele>176.8</ele>
        <time>2022-05-20 19:32:46</time>
      </trkpt>
      <trkpt lat="41.20422" lon="1.14833">
        <ele>177.2</ele>
        <time>2022-05-20 19:32:47</time>
      </trkpt>
      <trkpt lat="41.20426" lon="1.14828">
        <ele>177.6</ele>
        <time>2022-05-20 19:32:48</time>
      </trkpt>
      <trkpt lat="41.2043" lon="1.14823">
        <ele>177.8</ele>
        <time>2022-05-20 19:32:49</time>
      </trkpt>
      <trkpt lat="41.20433" lon="1.14818">
        <ele>178.2</ele>
        <time>2022-05-20 19:32:50</time>
      </trkpt>
      <trkpt lat="41.20437" lon="1.14814">
        <ele>178.4</ele>
        <time>2022-05-20 19:32:51</time>
      </trkpt>
      <trkpt lat="41.20441" lon="1.1481">
        <ele>178.8</ele>
        <time>2022-05-20 19:32:52</time>
      </trkpt>
      <trkpt lat="41.20445" lon="1.14805">
        <ele>179.2</ele>
        <time>2022-05-20 19:32:53</time>
      </trkpt>
      <trkpt lat="41.20449" lon="1.14802">
        <ele>179.6</ele>
        <time>2022-05-20 19:32:54</time>
      </trkpt>
      <trkpt lat="41.20452" lon="1.14798">
        <ele>179.8</ele>
        <time>2022-05-20 19:32:55</time>
      </trkpt>
      <trkpt lat="41.20456" lon="1.14794">
        <ele>180.2</ele>
        <time>2022-05-20 19:32:56</time>
      </trkpt>
      <trkpt lat="41.20461" lon="1.14791">
        <ele>180.6</ele>
        <time>2022-05-20 19:32:57</time>
      </trkpt>
      <trkpt lat="41.20464" lon="1.14788">
        <ele>180.8</ele>
        <time>2022-05-20 19:32:58</time>
      </trkpt>
      <trkpt lat="41.20469" lon="1.14786">
        <ele>181.2</ele>
        <time>2022-05-20 19:32:59</time>
      </trkpt>
      <trkpt lat="41.20473" lon="1.14783">
        <ele>181.6</ele>
        <time>2022-05-20 19:33:00</time>
      </trkpt>
      <trkpt lat="41.20477" lon="1.14781">
        <ele>181.8</ele>
        <time>2022-05-20 19:33:01</time>
      </trkpt>
      <trkpt lat="41.20481" lon="1.14778">
        <ele>182.2</ele>
        <time>2022-05-20 19:33:02</time>
      </trkpt>
      <trkpt lat="41.20485" lon="1.14776">
        <ele>182.6</ele>
        <time>2022-05-20 19:33:03</time>
      </trkpt>
      <trkpt lat="41.2049" lon="1.14773">
        <ele>182.8</ele>
        <time>2022-05-20 19:33:04</time>
      </trkpt>
      <trkpt lat="41.20494" lon="1.14771">
        <ele>183.2</ele>
        <time>2022-05-20 19:33:05</time>
      </trkpt>
      <trkpt lat="41.20498" lon="1.14769">
        <ele>183.4</ele>
        <time>2022-05-20 19:33:06</time>
      </trkpt>
      <trkpt lat="41.20502" lon="1.14766">
        <ele>183.6</ele>
        <time>2022-05-20 19:33:07</time>
      </trkpt>
      <trkpt lat="41.20507" lon="1.14764">
        <ele>184</ele>
        <time>2022-05-20 19:33:08</time>
      </trkpt>
      <trkpt lat="41.20511" lon="1.14761">
        <ele>184.4</ele>
        <time>2022-05-20 19:33:09</time>
      </trkpt>
      <trkpt lat="41.20515" lon="1.14759">
        <ele>184.6</ele>
        <time>2022-05-20 19:33:10</time>
      </trkpt>
      <trkpt lat="41.20519" lon="1.14756">
        <ele>185</ele>
        <time>2022-05-20 19:33:11</time>
      </trkpt>
      <trkpt lat="41.20523" lon="1.14753">
        <ele>185.2</ele>
        <time>2022-05-20 19:33:12</time>
      </trkpt>
      <trkpt lat="41.20527" lon="1.1475">
        <ele>185.4</ele>
        <time>2022-05-20 19:33:13</time>
      </trkpt>
      <trkpt lat="41.20531" lon="1.14746">
        <ele>185.8</ele>
        <time>2022-05-20 19:33:14</time>
      </trkpt>
      <trkpt lat="41.20535" lon="1.14742">
        <ele>186</ele>
        <time>2022-05-20 19:33:15</time>
      </trkpt>
      <trkpt lat="41.20539" lon="1.14738">
        <ele>186.4</ele>
        <time>2022-05-20 19:33:16</time>
      </trkpt>
      <trkpt lat="41.20543" lon="1.14734">
        <ele>186.6</ele>
        <time>2022-05-20 19:33:17</time>
      </trkpt>
      <trkpt lat="41.20548" lon="1.14732">
        <ele>186.8</ele>
        <time>2022-05-20 19:33:18</time>
      </trkpt>
      <trkpt lat="41.20552" lon="1.14729">
        <ele>187</ele>
        <time>2022-05-20 19:33:19</time>
      </trkpt>
      <trkpt lat="41.20557" lon="1.14728">
        <ele>187</ele>
        <time>2022-05-20 19:33:20</time>
      </trkpt>
      <trkpt lat="41.20562" lon="1.14727">
        <ele>187.2</ele>
        <time>2022-05-20 19:33:21</time>
      </trkpt>
      <trkpt lat="41.20567" lon="1.14727">
        <ele>187.4</ele>
        <time>2022-05-20 19:33:22</time>
      </trkpt>
      <trkpt lat="41.20572" lon="1.14728">
        <ele>187.4</ele>
        <time>2022-05-20 19:33:23</time>
      </trkpt>
      <trkpt lat="41.20578" lon="1.14731">
        <ele>187.4</ele>
        <time>2022-05-20 19:33:24</time>
      </trkpt>
      <trkpt lat="41.20584" lon="1.14734">
        <ele>187.2</ele>
        <time>2022-05-20 19:33:25</time>
      </trkpt>
      <trkpt lat="41.20591" lon="1.14738">
        <ele>187</ele>
        <time>2022-05-20 19:33:26</time>
      </trkpt>
      <trkpt lat="41.20599" lon="1.14742">
        <ele>186.8</ele>
        <time>2022-05-20 19:33:27</time>
      </trkpt>
      <trkpt lat="41.20607" lon="1.14746">
        <ele>186.4</ele>
        <time>2022-05-20 19:33:28</time>
      </trkpt>
      <trkpt lat="41.20615" lon="1.14751">
        <ele>185.8</ele>
        <time>2022-05-20 19:33:29</time>
      </trkpt>
      <trkpt lat="41.20624" lon="1.14756">
        <ele>185.4</ele>
        <time>2022-05-20 19:33:30</time>
      </trkpt>
      <trkpt lat="41.20633" lon="1.14762">
        <ele>184.8</ele>
        <time>2022-05-20 19:33:31</time>
      </trkpt>
      <trkpt lat="41.20642" lon="1.14768">
        <ele>184.2</ele>
        <time>2022-05-20 19:33:32</time>
      </trkpt>
      <trkpt lat="41.20652" lon="1.14774">
        <ele>183.6</ele>
        <time>2022-05-20 19:33:33</time>
      </trkpt>
      <trkpt lat="41.20662" lon="1.14781">
        <ele>183.2</ele>
        <time>2022-05-20 19:33:34</time>
      </trkpt>
      <trkpt lat="41.20671" lon="1.14787">
        <ele>182.8</ele>
        <time>2022-05-20 19:33:35</time>
      </trkpt>
      <trkpt lat="41.20681" lon="1.14793">
        <ele>182.6</ele>
        <time>2022-05-20 19:33:36</time>
      </trkpt>
      <trkpt lat="41.20689" lon="1.148">
        <ele>182.4</ele>
        <time>2022-05-20 19:33:37</time>
      </trkpt>
      <trkpt lat="41.20697" lon="1.14809">
        <ele>182.4</ele>
        <time>2022-05-20 19:33:38</time>
      </trkpt>
      <trkpt lat="41.20704" lon="1.14817">
        <ele>182</ele>
        <time>2022-05-20 19:33:39</time>
      </trkpt>
      <trkpt lat="41.20713" lon="1.14825">
        <ele>181.8</ele>
        <time>2022-05-20 19:33:40</time>
      </trkpt>
      <trkpt lat="41.20722" lon="1.14832">
        <ele>181.4</ele>
        <time>2022-05-20 19:33:41</time>
      </trkpt>
      <trkpt lat="41.20731" lon="1.14839">
        <ele>181.2</ele>
        <time>2022-05-20 19:33:42</time>
      </trkpt>
      <trkpt lat="41.2074" lon="1.14845">
        <ele>181</ele>
        <time>2022-05-20 19:33:43</time>
      </trkpt>
      <trkpt lat="41.20749" lon="1.14851">
        <ele>180.8</ele>
        <time>2022-05-20 19:33:44</time>
      </trkpt>
      <trkpt lat="41.20759" lon="1.14857">
        <ele>180.8</ele>
        <time>2022-05-20 19:33:45</time>
      </trkpt>
      <trkpt lat="41.20768" lon="1.14862">
        <ele>180.8</ele>
        <time>2022-05-20 19:33:46</time>
      </trkpt>
      <trkpt lat="41.20778" lon="1.14868">
        <ele>180.8</ele>
        <time>2022-05-20 19:33:47</time>
      </trkpt>
      <trkpt lat="41.20788" lon="1.14872">
        <ele>180.8</ele>
        <time>2022-05-20 19:33:48</time>
      </trkpt>
      <trkpt lat="41.20797" lon="1.14876">
        <ele>181</ele>
        <time>2022-05-20 19:33:49</time>
      </trkpt>
      <trkpt lat="41.20807" lon="1.1488">
        <ele>181.2</ele>
        <time>2022-05-20 19:33:50</time>
      </trkpt>
      <trkpt lat="41.20816" lon="1.14885">
        <ele>181.2</ele>
        <time>2022-05-20 19:33:51</time>
      </trkpt>
      <trkpt lat="41.20825" lon="1.14889">
        <ele>181.4</ele>
        <time>2022-05-20 19:33:52</time>
      </trkpt>
      <trkpt lat="41.20834" lon="1.14894">
        <ele>181.6</ele>
        <time>2022-05-20 19:33:53</time>
      </trkpt>
      <trkpt lat="41.20843" lon="1.14898">
        <ele>181.8</ele>
        <time>2022-05-20 19:33:54</time>
      </trkpt>
      <trkpt lat="41.20852" lon="1.14902">
        <ele>182</ele>
        <time>2022-05-20 19:33:55</time>
      </trkpt>
      <trkpt lat="41.20861" lon="1.14906">
        <ele>182.2</ele>
        <time>2022-05-20 19:33:56</time>
      </trkpt>
      <trkpt lat="41.20869" lon="1.1491">
        <ele>182.6</ele>
        <time>2022-05-20 19:33:57</time>
      </trkpt>
      <trkpt lat="41.20878" lon="1.14913">
        <ele>182.8</ele>
        <time>2022-05-20 19:33:58</time>
      </trkpt>
      <trkpt lat="41.20885" lon="1.14917">
        <ele>183</ele>
        <time>2022-05-20 19:33:59</time>
      </trkpt>
      <trkpt lat="41.20893" lon="1.14921">
        <ele>183.4</ele>
        <time>2022-05-20 19:34:00</time>
      </trkpt>
      <trkpt lat="41.20901" lon="1.14926">
        <ele>183.6</ele>
        <time>2022-05-20 19:34:01</time>
      </trkpt>
      <trkpt lat="41.20909" lon="1.14931">
        <ele>183.8</ele>
        <time>2022-05-20 19:34:02</time>
      </trkpt>
      <trkpt lat="41.20916" lon="1.14936">
        <ele>184</ele>
        <time>2022-05-20 19:34:03</time>
      </trkpt>
      <trkpt lat="41.20924" lon="1.1494">
        <ele>184</ele>
        <time>2022-05-20 19:34:04</time>
      </trkpt>
      <trkpt lat="41.20932" lon="1.14944">
        <ele>184.2</ele>
        <time>2022-05-20 19:34:05</time>
      </trkpt>
      <trkpt lat="41.2094" lon="1.14949">
        <ele>184.4</ele>
        <time>2022-05-20 19:34:06</time>
      </trkpt>
      <trkpt lat="41.20947" lon="1.14953">
        <ele>184.6</ele>
        <time>2022-05-20 19:34:07</time>
      </trkpt>
      <trkpt lat="41.20955" lon="1.14957">
        <ele>184.6</ele>
        <time>2022-05-20 19:34:08</time>
      </trkpt>
      <trkpt lat="41.20963" lon="1.14961">
        <ele>184.8</ele>
        <time>2022-05-20 19:34:09</time>
      </trkpt>
      <trkpt lat="41.20971" lon="1.14965">
        <ele>185</ele>
        <time>2022-05-20 19:34:10</time>
      </trkpt>
      <trkpt lat="41.20979" lon="1.1497">
        <ele>185.2</ele>
        <time>2022-05-20 19:34:11</time>
      </trkpt>
      <trkpt lat="41.20986" lon="1.14974">
        <ele>185.4</ele>
        <time>2022-05-20 19:34:12</time>
      </trkpt>
      <trkpt lat="41.20994" lon="1.14978">
        <ele>185.4</ele>
        <time>2022-05-20 19:34:13</time>
      </trkpt>
      <trkpt lat="41.21002" lon="1.14982">
        <ele>185.6</ele>
        <time>2022-05-20 19:34:14</time>
      </trkpt>
      <trkpt lat="41.2101" lon="1.14985">
        <ele>185.8</ele>
        <time>2022-05-20 19:34:15</time>
      </trkpt>
      <trkpt lat="41.21018" lon="1.1499">
        <ele>186</ele>
        <time>2022-05-20 19:34:16</time>
      </trkpt>
      <trkpt lat="41.21025" lon="1.14994">
        <ele>186.2</ele>
        <time>2022-05-20 19:34:17</time>
      </trkpt>
      <trkpt lat="41.21033" lon="1.14998">
        <ele>186.4</ele>
        <time>2022-05-20 19:34:18</time>
      </trkpt>
      <trkpt lat="41.21041" lon="1.15002">
        <ele>186.6</ele>
        <time>2022-05-20 19:34:19</time>
      </trkpt>
      <trkpt lat="41.21048" lon="1.15006">
        <ele>186.8</ele>
        <time>2022-05-20 19:34:20</time>
      </trkpt>
      <trkpt lat="41.21056" lon="1.15011">
        <ele>187</ele>
        <time>2022-05-20 19:34:21</time>
      </trkpt>
      <trkpt lat="41.21064" lon="1.15015">
        <ele>187</ele>
        <time>2022-05-20 19:34:22</time>
      </trkpt>
      <trkpt lat="41.21071" lon="1.15019">
        <ele>187.2</ele>
        <time>2022-05-20 19:34:23</time>
      </trkpt>
      <trkpt lat="41.2108" lon="1.15024">
        <ele>187.2</ele>
        <time>2022-05-20 19:34:24</time>
      </trkpt>
      <trkpt lat="41.21088" lon="1.15029">
        <ele>187.2</ele>
        <time>2022-05-20 19:34:25</time>
      </trkpt>
      <trkpt lat="41.21095" lon="1.15034">
        <ele>187.2</ele>
        <time>2022-05-20 19:34:26</time>
      </trkpt>
      <trkpt lat="41.21104" lon="1.15039">
        <ele>187.2</ele>
        <time>2022-05-20 19:34:27</time>
      </trkpt>
      <trkpt lat="41.21112" lon="1.15043">
        <ele>187.2</ele>
        <time>2022-05-20 19:34:28</time>
      </trkpt>
      <trkpt lat="41.2112" lon="1.15048">
        <ele>187.2</ele>
        <time>2022-05-20 19:34:29</time>
      </trkpt>
      <trkpt lat="41.21128" lon="1.15052">
        <ele>187.2</ele>
        <time>2022-05-20 19:34:30</time>
      </trkpt>
      <trkpt lat="41.21137" lon="1.15057">
        <ele>187.4</ele>
        <time>2022-05-20 19:34:31</time>
      </trkpt>
      <trkpt lat="41.21145" lon="1.15061">
        <ele>187.4</ele>
        <time>2022-05-20 19:34:32</time>
      </trkpt>
      <trkpt lat="41.21154" lon="1.15065">
        <ele>187.4</ele>
        <time>2022-05-20 19:34:33</time>
      </trkpt>
      <trkpt lat="41.21162" lon="1.15068">
        <ele>187.4</ele>
        <time>2022-05-20 19:34:34</time>
      </trkpt>
      <trkpt lat="41.21171" lon="1.1507">
        <ele>187.6</ele>
        <time>2022-05-20 19:34:35</time>
      </trkpt>
      <trkpt lat="41.21178" lon="1.15072">
        <ele>187.8</ele>
        <time>2022-05-20 19:34:36</time>
      </trkpt>
      <trkpt lat="41.21186" lon="1.15073">
        <ele>188</ele>
        <time>2022-05-20 19:34:37</time>
      </trkpt>
      <trkpt lat="41.21193" lon="1.15075">
        <ele>188.2</ele>
        <time>2022-05-20 19:34:38</time>
      </trkpt>
      <trkpt lat="41.212" lon="1.15078">
        <ele>188.4</ele>
        <time>2022-05-20 19:34:39</time>
      </trkpt>
      <trkpt lat="41.21207" lon="1.15081">
        <ele>188.4</ele>
        <time>2022-05-20 19:34:40</time>
      </trkpt>
      <trkpt lat="41.21214" lon="1.15085">
        <ele>188.6</ele>
        <time>2022-05-20 19:34:41</time>
      </trkpt>
      <trkpt lat="41.21221" lon="1.15088">
        <ele>188.6</ele>
        <time>2022-05-20 19:34:42</time>
      </trkpt>
      <trkpt lat="41.21228" lon="1.15092">
        <ele>188.8</ele>
        <time>2022-05-20 19:34:43</time>
      </trkpt>
      <trkpt lat="41.21235" lon="1.15096">
        <ele>188.8</ele>
        <time>2022-05-20 19:34:44</time>
      </trkpt>
      <trkpt lat="41.21241" lon="1.15099">
        <ele>188.8</ele>
        <time>2022-05-20 19:34:45</time>
      </trkpt>
      <trkpt lat="41.21249" lon="1.15103">
        <ele>189</ele>
        <time>2022-05-20 19:34:46</time>
      </trkpt>
      <trkpt lat="41.21256" lon="1.15107">
        <ele>189</ele>
        <time>2022-05-20 19:34:47</time>
      </trkpt>
      <trkpt lat="41.21263" lon="1.15111">
        <ele>189</ele>
        <time>2022-05-20 19:34:48</time>
      </trkpt>
      <trkpt lat="41.2127" lon="1.15115">
        <ele>189</ele>
        <time>2022-05-20 19:34:49</time>
      </trkpt>
      <trkpt lat="41.21277" lon="1.15119">
        <ele>189</ele>
        <time>2022-05-20 19:34:50</time>
      </trkpt>
      <trkpt lat="41.21285" lon="1.15123">
        <ele>189.2</ele>
        <time>2022-05-20 19:34:51</time>
      </trkpt>
      <trkpt lat="41.21292" lon="1.15127">
        <ele>189.2</ele>
        <time>2022-05-20 19:34:52</time>
      </trkpt>
      <trkpt lat="41.213" lon="1.15132">
        <ele>189.2</ele>
        <time>2022-05-20 19:34:53</time>
      </trkpt>
      <trkpt lat="41.21308" lon="1.15136">
        <ele>189.2</ele>
        <time>2022-05-20 19:34:54</time>
      </trkpt>
      <trkpt lat="41.21316" lon="1.1514">
        <ele>189.2</ele>
        <time>2022-05-20 19:34:55</time>
      </trkpt>
      <trkpt lat="41.21324" lon="1.15144">
        <ele>189.2</ele>
        <time>2022-05-20 19:34:56</time>
      </trkpt>
      <trkpt lat="41.21332" lon="1.15148">
        <ele>189.2</ele>
        <time>2022-05-20 19:34:57</time>
      </trkpt>
      <trkpt lat="41.21341" lon="1.15152">
        <ele>189.2</ele>
        <time>2022-05-20 19:34:58</time>
      </trkpt>
      <trkpt lat="41.21349" lon="1.15156">
        <ele>189.2</ele>
        <time>2022-05-20 19:34:59</time>
      </trkpt>
      <trkpt lat="41.21356" lon="1.1516">
        <ele>189.2</ele>
        <time>2022-05-20 19:35:00</time>
      </trkpt>
      <trkpt lat="41.21364" lon="1.15164">
        <ele>189.4</ele>
        <time>2022-05-20 19:35:01</time>
      </trkpt>
      <trkpt lat="41.21373" lon="1.15168">
        <ele>189.6</ele>
        <time>2022-05-20 19:35:02</time>
      </trkpt>
      <trkpt lat="41.2138" lon="1.15173">
        <ele>190</ele>
        <time>2022-05-20 19:35:03</time>
      </trkpt>
      <trkpt lat="41.21386" lon="1.15177">
        <ele>190.4</ele>
        <time>2022-05-20 19:35:04</time>
      </trkpt>
      <trkpt lat="41.21393" lon="1.1518">
        <ele>190.8</ele>
        <time>2022-05-20 19:35:05</time>
      </trkpt>
      <trkpt lat="41.21399" lon="1.15184">
        <ele>191.4</ele>
        <time>2022-05-20 19:35:06</time>
      </trkpt>
      <trkpt lat="41.21405" lon="1.15187">
        <ele>191.8</ele>
        <time>2022-05-20 19:35:07</time>
      </trkpt>
      <trkpt lat="41.2141" lon="1.15191">
        <ele>192.4</ele>
        <time>2022-05-20 19:35:08</time>
      </trkpt>
      <trkpt lat="41.21415" lon="1.15195">
        <ele>192.8</ele>
        <time>2022-05-20 19:35:09</time>
      </trkpt>
      <trkpt lat="41.2142" lon="1.152">
        <ele>193.4</ele>
        <time>2022-05-20 19:35:10</time>
      </trkpt>
      <trkpt lat="41.21424" lon="1.15205">
        <ele>194</ele>
        <time>2022-05-20 19:35:11</time>
      </trkpt>
      <trkpt lat="41.21427" lon="1.15211">
        <ele>194.4</ele>
        <time>2022-05-20 19:35:12</time>
      </trkpt>
      <trkpt lat="41.2143" lon="1.15217">
        <ele>195</ele>
        <time>2022-05-20 19:35:13</time>
      </trkpt>
      <trkpt lat="41.21432" lon="1.15223">
        <ele>195.4</ele>
        <time>2022-05-20 19:35:14</time>
      </trkpt>
      <trkpt lat="41.21433" lon="1.15231">
        <ele>195.6</ele>
        <time>2022-05-20 19:35:15</time>
      </trkpt>
      <trkpt lat="41.21434" lon="1.15239">
        <ele>195.6</ele>
        <time>2022-05-20 19:35:16</time>
      </trkpt>
      <trkpt lat="41.21435" lon="1.15248">
        <ele>195.6</ele>
        <time>2022-05-20 19:35:17</time>
      </trkpt>
      <trkpt lat="41.21435" lon="1.15258">
        <ele>195.2</ele>
        <time>2022-05-20 19:35:18</time>
      </trkpt>
      <trkpt lat="41.21435" lon="1.1527">
        <ele>194.8</ele>
        <time>2022-05-20 19:35:19</time>
      </trkpt>
      <trkpt lat="41.21433" lon="1.15282">
        <ele>194.2</ele>
        <time>2022-05-20 19:35:20</time>
      </trkpt>
      <trkpt lat="41.21432" lon="1.15295">
        <ele>193.6</ele>
        <time>2022-05-20 19:35:21</time>
      </trkpt>
      <trkpt lat="41.2143" lon="1.15308">
        <ele>192.8</ele>
        <time>2022-05-20 19:35:22</time>
      </trkpt>
      <trkpt lat="41.21428" lon="1.15322">
        <ele>192</ele>
        <time>2022-05-20 19:35:23</time>
      </trkpt>
      <trkpt lat="41.21425" lon="1.15337">
        <ele>191</ele>
        <time>2022-05-20 19:35:24</time>
      </trkpt>
      <trkpt lat="41.21423" lon="1.15353">
        <ele>190</ele>
        <time>2022-05-20 19:35:25</time>
      </trkpt>
      <trkpt lat="41.21421" lon="1.15369">
        <ele>189</ele>
        <time>2022-05-20 19:35:26</time>
      </trkpt>
      <trkpt lat="41.21419" lon="1.15385">
        <ele>188</ele>
        <time>2022-05-20 19:35:27</time>
      </trkpt>
      <trkpt lat="41.21417" lon="1.15403">
        <ele>186.8</ele>
        <time>2022-05-20 19:35:28</time>
      </trkpt>
      <trkpt lat="41.21415" lon="1.1542">
        <ele>185.8</ele>
        <time>2022-05-20 19:35:29</time>
      </trkpt>
      <trkpt lat="41.21414" lon="1.15438">
        <ele>185</ele>
        <time>2022-05-20 19:35:30</time>
      </trkpt>
      <trkpt lat="41.21413" lon="1.15456">
        <ele>184.2</ele>
        <time>2022-05-20 19:35:31</time>
      </trkpt>
      <trkpt lat="41.21414" lon="1.15474">
        <ele>183.6</ele>
        <time>2022-05-20 19:35:32</time>
      </trkpt>
      <trkpt lat="41.21415" lon="1.15492">
        <ele>183</ele>
        <time>2022-05-20 19:35:33</time>
      </trkpt>
      <trkpt lat="41.21418" lon="1.1551">
        <ele>182.6</ele>
        <time>2022-05-20 19:35:34</time>
      </trkpt>
      <trkpt lat="41.2142" lon="1.15528">
        <ele>182.2</ele>
        <time>2022-05-20 19:35:35</time>
      </trkpt>
      <trkpt lat="41.21423" lon="1.15546">
        <ele>181.8</ele>
        <time>2022-05-20 19:35:36</time>
      </trkpt>
      <trkpt lat="41.21425" lon="1.15563">
        <ele>181.6</ele>
        <time>2022-05-20 19:35:37</time>
      </trkpt>
      <trkpt lat="41.21427" lon="1.15579">
        <ele>181.2</ele>
        <time>2022-05-20 19:35:38</time>
      </trkpt>
      <trkpt lat="41.21429" lon="1.15596">
        <ele>181</ele>
        <time>2022-05-20 19:35:39</time>
      </trkpt>
      <trkpt lat="41.21431" lon="1.15613">
        <ele>180.6</ele>
        <time>2022-05-20 19:35:40</time>
      </trkpt>
      <trkpt lat="41.21433" lon="1.15631">
        <ele>180.4</ele>
        <time>2022-05-20 19:35:41</time>
      </trkpt>
      <trkpt lat="41.21435" lon="1.15648">
        <ele>180</ele>
        <time>2022-05-20 19:35:42</time>
      </trkpt>
      <trkpt lat="41.21436" lon="1.15665">
        <ele>179.6</ele>
        <time>2022-05-20 19:35:43</time>
      </trkpt>
      <trkpt lat="41.21436" lon="1.15683">
        <ele>179</ele>
        <time>2022-05-20 19:35:44</time>
      </trkpt>
      <trkpt lat="41.21433" lon="1.157">
        <ele>178.6</ele>
        <time>2022-05-20 19:35:45</time>
      </trkpt>
      <trkpt lat="41.21429" lon="1.15716">
        <ele>178.2</ele>
        <time>2022-05-20 19:35:46</time>
      </trkpt>
      <trkpt lat="41.21424" lon="1.15732">
        <ele>177.8</ele>
        <time>2022-05-20 19:35:47</time>
      </trkpt>
      <trkpt lat="41.21418" lon="1.15747">
        <ele>177.4</ele>
        <time>2022-05-20 19:35:48</time>
      </trkpt>
      <trkpt lat="41.21413" lon="1.15763">
        <ele>177</ele>
        <time>2022-05-20 19:35:49</time>
      </trkpt>
      <trkpt lat="41.21407" lon="1.15778">
        <ele>176.6</ele>
        <time>2022-05-20 19:35:50</time>
      </trkpt>
      <trkpt lat="41.21402" lon="1.15794">
        <ele>176.2</ele>
        <time>2022-05-20 19:35:51</time>
      </trkpt>
      <trkpt lat="41.21397" lon="1.15809">
        <ele>175.8</ele>
        <time>2022-05-20 19:35:52</time>
      </trkpt>
      <trkpt lat="41.21391" lon="1.15823">
        <ele>175.6</ele>
        <time>2022-05-20 19:35:53</time>
      </trkpt>
      <trkpt lat="41.21386" lon="1.15838">
        <ele>175.2</ele>
        <time>2022-05-20 19:35:54</time>
      </trkpt>
      <trkpt lat="41.21382" lon="1.15853">
        <ele>175</ele>
        <time>2022-05-20 19:35:55</time>
      </trkpt>
      <trkpt lat="41.21378" lon="1.15869">
        <ele>174.6</ele>
        <time>2022-05-20 19:35:56</time>
      </trkpt>
      <trkpt lat="41.21376" lon="1.15884">
        <ele>174.4</ele>
        <time>2022-05-20 19:35:57</time>
      </trkpt>
      <trkpt lat="41.21376" lon="1.159">
        <ele>174.2</ele>
        <time>2022-05-20 19:35:58</time>
      </trkpt>
      <trkpt lat="41.21378" lon="1.15917">
        <ele>174</ele>
        <time>2022-05-20 19:35:59</time>
      </trkpt>
      <trkpt lat="41.2138" lon="1.15933">
        <ele>173.6</ele>
        <time>2022-05-20 19:36:00</time>
      </trkpt>
      <trkpt lat="41.21383" lon="1.15949">
        <ele>173.4</ele>
        <time>2022-05-20 19:36:01</time>
      </trkpt>
      <trkpt lat="41.21384" lon="1.15966">
        <ele>173</ele>
        <time>2022-05-20 19:36:02</time>
      </trkpt>
      <trkpt lat="41.21386" lon="1.15983">
        <ele>172.6</ele>
        <time>2022-05-20 19:36:03</time>
      </trkpt>
      <trkpt lat="41.21387" lon="1.15999">
        <ele>172.2</ele>
        <time>2022-05-20 19:36:04</time>
      </trkpt>
      <trkpt lat="41.21387" lon="1.16016">
        <ele>171.8</ele>
        <time>2022-05-20 19:36:05</time>
      </trkpt>
      <trkpt lat="41.21385" lon="1.16033">
        <ele>171.4</ele>
        <time>2022-05-20 19:36:06</time>
      </trkpt>
      <trkpt lat="41.21383" lon="1.1605">
        <ele>171</ele>
        <time>2022-05-20 19:36:07</time>
      </trkpt>
      <trkpt lat="41.2138" lon="1.16067">
        <ele>170.6</ele>
        <time>2022-05-20 19:36:08</time>
      </trkpt>
      <trkpt lat="41.21377" lon="1.16083">
        <ele>170.2</ele>
        <time>2022-05-20 19:36:09</time>
      </trkpt>
      <trkpt lat="41.21375" lon="1.161">
        <ele>169.8</ele>
        <time>2022-05-20 19:36:10</time>
      </trkpt>
      <trkpt lat="41.21372" lon="1.16117">
        <ele>169.4</ele>
        <time>2022-05-20 19:36:11</time>
      </trkpt>
      <trkpt lat="41.2137" lon="1.16133">
        <ele>169.2</ele>
        <time>2022-05-20 19:36:12</time>
      </trkpt>
      <trkpt lat="41.21367" lon="1.1615">
        <ele>168.8</ele>
        <time>2022-05-20 19:36:13</time>
      </trkpt>
      <trkpt lat="41.21364" lon="1.16166">
        <ele>168.4</ele>
        <time>2022-05-20 19:36:14</time>
      </trkpt>
      <trkpt lat="41.21362" lon="1.16183">
        <ele>168</ele>
        <time>2022-05-20 19:36:15</time>
      </trkpt>
      <trkpt lat="41.21359" lon="1.16199">
        <ele>167.6</ele>
        <time>2022-05-20 19:36:16</time>
      </trkpt>
      <trkpt lat="41.21356" lon="1.16215">
        <ele>167.4</ele>
        <time>2022-05-20 19:36:17</time>
      </trkpt>
      <trkpt lat="41.21354" lon="1.16231">
        <ele>167</ele>
        <time>2022-05-20 19:36:18</time>
      </trkpt>
      <trkpt lat="41.21351" lon="1.16247">
        <ele>166.8</ele>
        <time>2022-05-20 19:36:19</time>
      </trkpt>
      <trkpt lat="41.21349" lon="1.16262">
        <ele>166.4</ele>
        <time>2022-05-20 19:36:20</time>
      </trkpt>
      <trkpt lat="41.21349" lon="1.16278">
        <ele>166.4</ele>
        <time>2022-05-20 19:36:21</time>
      </trkpt>
      <trkpt lat="41.21351" lon="1.16294">
        <ele>166.2</ele>
        <time>2022-05-20 19:36:22</time>
      </trkpt>
      <trkpt lat="41.21355" lon="1.1631">
        <ele>166</ele>
        <time>2022-05-20 19:36:23</time>
      </trkpt>
      <trkpt lat="41.2136" lon="1.16326">
        <ele>165.8</ele>
        <time>2022-05-20 19:36:24</time>
      </trkpt>
      <trkpt lat="41.21366" lon="1.16341">
        <ele>165.4</ele>
        <time>2022-05-20 19:36:25</time>
      </trkpt>
      <trkpt lat="41.21372" lon="1.16357">
        <ele>165</ele>
        <time>2022-05-20 19:36:26</time>
      </trkpt>
      <trkpt lat="41.21378" lon="1.16373">
        <ele>165</ele>
        <time>2022-05-20 19:36:27</time>
      </trkpt>
      <trkpt lat="41.21383" lon="1.16388">
        <ele>164.6</ele>
        <time>2022-05-20 19:36:28</time>
      </trkpt>
      <trkpt lat="41.21389" lon="1.16403">
        <ele>164.4</ele>
        <time>2022-05-20 19:36:29</time>
      </trkpt>
      <trkpt lat="41.21395" lon="1.16418">
        <ele>164</ele>
        <time>2022-05-20 19:36:30</time>
      </trkpt>
      <trkpt lat="41.214" lon="1.16433">
        <ele>163.8</ele>
        <time>2022-05-20 19:36:31</time>
      </trkpt>
      <trkpt lat="41.21407" lon="1.16449">
        <ele>163.6</ele>
        <time>2022-05-20 19:36:32</time>
      </trkpt>
      <trkpt lat="41.21412" lon="1.16463">
        <ele>163.6</ele>
        <time>2022-05-20 19:36:33</time>
      </trkpt>
      <trkpt lat="41.21418" lon="1.16478">
        <ele>163.4</ele>
        <time>2022-05-20 19:36:34</time>
      </trkpt>
      <trkpt lat="41.21423" lon="1.16493">
        <ele>163.4</ele>
        <time>2022-05-20 19:36:35</time>
      </trkpt>
      <trkpt lat="41.21429" lon="1.16508">
        <ele>163.2</ele>
        <time>2022-05-20 19:36:36</time>
      </trkpt>
      <trkpt lat="41.21434" lon="1.16522">
        <ele>163</ele>
        <time>2022-05-20 19:36:37</time>
      </trkpt>
      <trkpt lat="41.21439" lon="1.16537">
        <ele>162.8</ele>
        <time>2022-05-20 19:36:38</time>
      </trkpt>
      <trkpt lat="41.21444" lon="1.16552">
        <ele>162.8</ele>
        <time>2022-05-20 19:36:39</time>
      </trkpt>
      <trkpt lat="41.21449" lon="1.16567">
        <ele>162.8</ele>
        <time>2022-05-20 19:36:40</time>
      </trkpt>
      <trkpt lat="41.21453" lon="1.16581">
        <ele>162.6</ele>
        <time>2022-05-20 19:36:41</time>
      </trkpt>
      <trkpt lat="41.21457" lon="1.16596">
        <ele>162.6</ele>
        <time>2022-05-20 19:36:42</time>
      </trkpt>
      <trkpt lat="41.21461" lon="1.16611">
        <ele>162.4</ele>
        <time>2022-05-20 19:36:43</time>
      </trkpt>
      <trkpt lat="41.21465" lon="1.16626">
        <ele>162.4</ele>
        <time>2022-05-20 19:36:44</time>
      </trkpt>
      <trkpt lat="41.21469" lon="1.1664">
        <ele>162.4</ele>
        <time>2022-05-20 19:36:45</time>
      </trkpt>
      <trkpt lat="41.21473" lon="1.16655">
        <ele>162.4</ele>
        <time>2022-05-20 19:36:46</time>
      </trkpt>
      <trkpt lat="41.21476" lon="1.16669">
        <ele>162.2</ele>
        <time>2022-05-20 19:36:47</time>
      </trkpt>
      <trkpt lat="41.21481" lon="1.16683">
        <ele>162.2</ele>
        <time>2022-05-20 19:36:48</time>
      </trkpt>
      <trkpt lat="41.21485" lon="1.16697">
        <ele>162</ele>
        <time>2022-05-20 19:36:49</time>
      </trkpt>
      <trkpt lat="41.21489" lon="1.16711">
        <ele>161.8</ele>
        <time>2022-05-20 19:36:50</time>
      </trkpt>
      <trkpt lat="41.21493" lon="1.16725">
        <ele>161.6</ele>
        <time>2022-05-20 19:36:51</time>
      </trkpt>
      <trkpt lat="41.21497" lon="1.1674">
        <ele>161.4</ele>
        <time>2022-05-20 19:36:52</time>
      </trkpt>
      <trkpt lat="41.21501" lon="1.16754">
        <ele>161.2</ele>
        <time>2022-05-20 19:36:53</time>
      </trkpt>
      <trkpt lat="41.21505" lon="1.16768">
        <ele>161</ele>
        <time>2022-05-20 19:36:54</time>
      </trkpt>
      <trkpt lat="41.21509" lon="1.16782">
        <ele>161</ele>
        <time>2022-05-20 19:36:55</time>
      </trkpt>
      <trkpt lat="41.21513" lon="1.16796">
        <ele>160.8</ele>
        <time>2022-05-20 19:36:56</time>
      </trkpt>
      <trkpt lat="41.21518" lon="1.16809">
        <ele>160.6</ele>
        <time>2022-05-20 19:36:57</time>
      </trkpt>
      <trkpt lat="41.21522" lon="1.16823">
        <ele>160.4</ele>
        <time>2022-05-20 19:36:58</time>
      </trkpt>
      <trkpt lat="41.21526" lon="1.16837">
        <ele>160.2</ele>
        <time>2022-05-20 19:36:59</time>
      </trkpt>
      <trkpt lat="41.21531" lon="1.1685">
        <ele>160.2</ele>
        <time>2022-05-20 19:37:00</time>
      </trkpt>
      <trkpt lat="41.21535" lon="1.16864">
        <ele>159.8</ele>
        <time>2022-05-20 19:37:01</time>
      </trkpt>
      <trkpt lat="41.21538" lon="1.16879">
        <ele>159.6</ele>
        <time>2022-05-20 19:37:02</time>
      </trkpt>
      <trkpt lat="41.21539" lon="1.16893">
        <ele>159.2</ele>
        <time>2022-05-20 19:37:03</time>
      </trkpt>
      <trkpt lat="41.21539" lon="1.16908">
        <ele>159</ele>
        <time>2022-05-20 19:37:04</time>
      </trkpt>
      <trkpt lat="41.21537" lon="1.16922">
        <ele>158.8</ele>
        <time>2022-05-20 19:37:05</time>
      </trkpt>
      <trkpt lat="41.21534" lon="1.16936">
        <ele>158.6</ele>
        <time>2022-05-20 19:37:06</time>
      </trkpt>
      <trkpt lat="41.21532" lon="1.1695">
        <ele>158.4</ele>
        <time>2022-05-20 19:37:07</time>
      </trkpt>
      <trkpt lat="41.21529" lon="1.16965">
        <ele>158.2</ele>
        <time>2022-05-20 19:37:08</time>
      </trkpt>
      <trkpt lat="41.21526" lon="1.16979">
        <ele>158.2</ele>
        <time>2022-05-20 19:37:09</time>
      </trkpt>
      <trkpt lat="41.21524" lon="1.16993">
        <ele>158</ele>
        <time>2022-05-20 19:37:10</time>
      </trkpt>
      <trkpt lat="41.21521" lon="1.17007">
        <ele>157.8</ele>
        <time>2022-05-20 19:37:11</time>
      </trkpt>
      <trkpt lat="41.21518" lon="1.17021">
        <ele>157.8</ele>
        <time>2022-05-20 19:37:12</time>
      </trkpt>
      <trkpt lat="41.21515" lon="1.17035">
        <ele>157.6</ele>
        <time>2022-05-20 19:37:13</time>
      </trkpt>
      <trkpt lat="41.21513" lon="1.17049">
        <ele>157.4</ele>
        <time>2022-05-20 19:37:14</time>
      </trkpt>
      <trkpt lat="41.2151" lon="1.17063">
        <ele>157.2</ele>
        <time>2022-05-20 19:37:15</time>
      </trkpt>
      <trkpt lat="41.21507" lon="1.17077">
        <ele>157</ele>
        <time>2022-05-20 19:37:16</time>
      </trkpt>
      <trkpt lat="41.21505" lon="1.1709">
        <ele>156.8</ele>
        <time>2022-05-20 19:37:17</time>
      </trkpt>
      <trkpt lat="41.21502" lon="1.17104">
        <ele>156.6</ele>
        <time>2022-05-20 19:37:18</time>
      </trkpt>
      <trkpt lat="41.21499" lon="1.17118">
        <ele>156.4</ele>
        <time>2022-05-20 19:37:19</time>
      </trkpt>
      <trkpt lat="41.21497" lon="1.17131">
        <ele>156.4</ele>
        <time>2022-05-20 19:37:20</time>
      </trkpt>
      <trkpt lat="41.21494" lon="1.17146">
        <ele>156.2</ele>
        <time>2022-05-20 19:37:21</time>
      </trkpt>
      <trkpt lat="41.21491" lon="1.1716">
        <ele>156</ele>
        <time>2022-05-20 19:37:22</time>
      </trkpt>
      <trkpt lat="41.21488" lon="1.17174">
        <ele>155.8</ele>
        <time>2022-05-20 19:37:23</time>
      </trkpt>
      <trkpt lat="41.21485" lon="1.17188">
        <ele>155.6</ele>
        <time>2022-05-20 19:37:24</time>
      </trkpt>
      <trkpt lat="41.21481" lon="1.17202">
        <ele>155.4</ele>
        <time>2022-05-20 19:37:25</time>
      </trkpt>
      <trkpt lat="41.21478" lon="1.17216">
        <ele>155</ele>
        <time>2022-05-20 19:37:26</time>
      </trkpt>
      <trkpt lat="41.21474" lon="1.17231">
        <ele>154.8</ele>
        <time>2022-05-20 19:37:27</time>
      </trkpt>
      <trkpt lat="41.21471" lon="1.17245">
        <ele>154.6</ele>
        <time>2022-05-20 19:37:28</time>
      </trkpt>
      <trkpt lat="41.21468" lon="1.17259">
        <ele>154.4</ele>
        <time>2022-05-20 19:37:29</time>
      </trkpt>
      <trkpt lat="41.21466" lon="1.17273">
        <ele>154</ele>
        <time>2022-05-20 19:37:30</time>
      </trkpt>
      <trkpt lat="41.21463" lon="1.17287">
        <ele>153.8</ele>
        <time>2022-05-20 19:37:31</time>
      </trkpt>
      <trkpt lat="41.2146" lon="1.17301">
        <ele>153.6</ele>
        <time>2022-05-20 19:37:32</time>
      </trkpt>
      <trkpt lat="41.21456" lon="1.17315">
        <ele>153.4</ele>
        <time>2022-05-20 19:37:33</time>
      </trkpt>
      <trkpt lat="41.21453" lon="1.17329">
        <ele>153.2</ele>
        <time>2022-05-20 19:37:34</time>
      </trkpt>
      <trkpt lat="41.2145" lon="1.17343">
        <ele>153</ele>
        <time>2022-05-20 19:37:35</time>
      </trkpt>
      <trkpt lat="41.21446" lon="1.17358">
        <ele>152.6</ele>
        <time>2022-05-20 19:37:36</time>
      </trkpt>
      <trkpt lat="41.21442" lon="1.17373">
        <ele>152.4</ele>
        <time>2022-05-20 19:37:37</time>
      </trkpt>
      <trkpt lat="41.21439" lon="1.17387">
        <ele>152</ele>
        <time>2022-05-20 19:37:38</time>
      </trkpt>
      <trkpt lat="41.21435" lon="1.17401">
        <ele>151.8</ele>
        <time>2022-05-20 19:37:39</time>
      </trkpt>
      <trkpt lat="41.21432" lon="1.17414">
        <ele>151.4</ele>
        <time>2022-05-20 19:37:40</time>
      </trkpt>
      <trkpt lat="41.21428" lon="1.17429">
        <ele>151.2</ele>
        <time>2022-05-20 19:37:41</time>
      </trkpt>
      <trkpt lat="41.21425" lon="1.17443">
        <ele>151</ele>
        <time>2022-05-20 19:37:42</time>
      </trkpt>
      <trkpt lat="41.21422" lon="1.17458">
        <ele>150.8</ele>
        <time>2022-05-20 19:37:43</time>
      </trkpt>
      <trkpt lat="41.2142" lon="1.17472">
        <ele>150.6</ele>
        <time>2022-05-20 19:37:44</time>
      </trkpt>
      <trkpt lat="41.21417" lon="1.17486">
        <ele>150.4</ele>
        <time>2022-05-20 19:37:45</time>
      </trkpt>
      <trkpt lat="41.21416" lon="1.17501">
        <ele>150.2</ele>
        <time>2022-05-20 19:37:46</time>
      </trkpt>
      <trkpt lat="41.21415" lon="1.17516">
        <ele>149.8</ele>
        <time>2022-05-20 19:37:47</time>
      </trkpt>
      <trkpt lat="41.21415" lon="1.17531">
        <ele>149.6</ele>
        <time>2022-05-20 19:37:48</time>
      </trkpt>
      <trkpt lat="41.21415" lon="1.17547">
        <ele>149</ele>
        <time>2022-05-20 19:37:49</time>
      </trkpt>
      <trkpt lat="41.21415" lon="1.17562">
        <ele>148.6</ele>
        <time>2022-05-20 19:37:50</time>
      </trkpt>
      <trkpt lat="41.21415" lon="1.17578">
        <ele>148.2</ele>
        <time>2022-05-20 19:37:51</time>
      </trkpt>
      <trkpt lat="41.21414" lon="1.17593">
        <ele>147.8</ele>
        <time>2022-05-20 19:37:52</time>
      </trkpt>
      <trkpt lat="41.21412" lon="1.17608">
        <ele>147.4</ele>
        <time>2022-05-20 19:37:53</time>
      </trkpt>
      <trkpt lat="41.21409" lon="1.17623">
        <ele>147.2</ele>
        <time>2022-05-20 19:37:54</time>
      </trkpt>
      <trkpt lat="41.21407" lon="1.17637">
        <ele>146.8</ele>
        <time>2022-05-20 19:37:55</time>
      </trkpt>
      <trkpt lat="41.21403" lon="1.17651">
        <ele>146.4</ele>
        <time>2022-05-20 19:37:56</time>
      </trkpt>
      <trkpt lat="41.21399" lon="1.17665">
        <ele>146.2</ele>
        <time>2022-05-20 19:37:57</time>
      </trkpt>
      <trkpt lat="41.21396" lon="1.1768">
        <ele>145.8</ele>
        <time>2022-05-20 19:37:58</time>
      </trkpt>
      <trkpt lat="41.21393" lon="1.17694">
        <ele>145.4</ele>
        <time>2022-05-20 19:37:59</time>
      </trkpt>
      <trkpt lat="41.2139" lon="1.17708">
        <ele>145.2</ele>
        <time>2022-05-20 19:38:00</time>
      </trkpt>
      <trkpt lat="41.21388" lon="1.17724">
        <ele>144.8</ele>
        <time>2022-05-20 19:38:01</time>
      </trkpt>
      <trkpt lat="41.21387" lon="1.1774">
        <ele>144.6</ele>
        <time>2022-05-20 19:38:02</time>
      </trkpt>
      <trkpt lat="41.21386" lon="1.17755">
        <ele>144.4</ele>
        <time>2022-05-20 19:38:03</time>
      </trkpt>
      <trkpt lat="41.21384" lon="1.1777">
        <ele>144</ele>
        <time>2022-05-20 19:38:04</time>
      </trkpt>
      <trkpt lat="41.21384" lon="1.17786">
        <ele>143.8</ele>
        <time>2022-05-20 19:38:05</time>
      </trkpt>
      <trkpt lat="41.21383" lon="1.178">
        <ele>143.8</ele>
        <time>2022-05-20 19:38:06</time>
      </trkpt>
      <trkpt lat="41.21381" lon="1.17815">
        <ele>143.6</ele>
        <time>2022-05-20 19:38:07</time>
      </trkpt>
      <trkpt lat="41.2138" lon="1.17831">
        <ele>143.2</ele>
        <time>2022-05-20 19:38:08</time>
      </trkpt>
      <trkpt lat="41.21378" lon="1.17845">
        <ele>143</ele>
        <time>2022-05-20 19:38:09</time>
      </trkpt>
      <trkpt lat="41.21377" lon="1.1786">
        <ele>142.8</ele>
        <time>2022-05-20 19:38:10</time>
      </trkpt>
      <trkpt lat="41.21375" lon="1.17875">
        <ele>142.4</ele>
        <time>2022-05-20 19:38:11</time>
      </trkpt>
      <trkpt lat="41.21374" lon="1.1789">
        <ele>142.2</ele>
        <time>2022-05-20 19:38:12</time>
      </trkpt>
      <trkpt lat="41.21372" lon="1.17904">
        <ele>142</ele>
        <time>2022-05-20 19:38:13</time>
      </trkpt>
      <trkpt lat="41.2137" lon="1.17919">
        <ele>141.8</ele>
        <time>2022-05-20 19:38:14</time>
      </trkpt>
      <trkpt lat="41.21369" lon="1.17933">
        <ele>141.6</ele>
        <time>2022-05-20 19:38:15</time>
      </trkpt>
      <trkpt lat="41.21367" lon="1.17948">
        <ele>141.6</ele>
        <time>2022-05-20 19:38:16</time>
      </trkpt>
      <trkpt lat="41.21365" lon="1.17962">
        <ele>141.2</ele>
        <time>2022-05-20 19:38:17</time>
      </trkpt>
      <trkpt lat="41.21363" lon="1.17977">
        <ele>141</ele>
        <time>2022-05-20 19:38:18</time>
      </trkpt>
      <trkpt lat="41.21362" lon="1.17991">
        <ele>140.6</ele>
        <time>2022-05-20 19:38:19</time>
      </trkpt>
      <trkpt lat="41.2136" lon="1.18006">
        <ele>140.4</ele>
        <time>2022-05-20 19:38:20</time>
      </trkpt>
      <trkpt lat="41.21358" lon="1.1802">
        <ele>140.2</ele>
        <time>2022-05-20 19:38:21</time>
      </trkpt>
      <trkpt lat="41.21357" lon="1.18035">
        <ele>140</ele>
        <time>2022-05-20 19:38:22</time>
      </trkpt>
      <trkpt lat="41.21355" lon="1.18049">
        <ele>139.8</ele>
        <time>2022-05-20 19:38:23</time>
      </trkpt>
      <trkpt lat="41.21353" lon="1.18064">
        <ele>139.6</ele>
        <time>2022-05-20 19:38:24</time>
      </trkpt>
      <trkpt lat="41.21351" lon="1.18078">
        <ele>139.4</ele>
        <time>2022-05-20 19:38:25</time>
      </trkpt>
      <trkpt lat="41.2135" lon="1.18093">
        <ele>139.2</ele>
        <time>2022-05-20 19:38:26</time>
      </trkpt>
      <trkpt lat="41.21349" lon="1.18108">
        <ele>139</ele>
        <time>2022-05-20 19:38:27</time>
      </trkpt>
      <trkpt lat="41.21348" lon="1.18123">
        <ele>138.8</ele>
        <time>2022-05-20 19:38:28</time>
      </trkpt>
      <trkpt lat="41.21347" lon="1.18138">
        <ele>138.4</ele>
        <time>2022-05-20 19:38:29</time>
      </trkpt>
      <trkpt lat="41.21346" lon="1.18152">
        <ele>138.2</ele>
        <time>2022-05-20 19:38:30</time>
      </trkpt>
      <trkpt lat="41.21344" lon="1.18167">
        <ele>137.8</ele>
        <time>2022-05-20 19:38:31</time>
      </trkpt>
      <trkpt lat="41.21343" lon="1.18182">
        <ele>137.6</ele>
        <time>2022-05-20 19:38:32</time>
      </trkpt>
      <trkpt lat="41.21342" lon="1.18197">
        <ele>137.4</ele>
        <time>2022-05-20 19:38:33</time>
      </trkpt>
      <trkpt lat="41.2134" lon="1.18212">
        <ele>137.2</ele>
        <time>2022-05-20 19:38:34</time>
      </trkpt>
      <trkpt lat="41.21339" lon="1.18226">
        <ele>136.8</ele>
        <time>2022-05-20 19:38:35</time>
      </trkpt>
      <trkpt lat="41.21338" lon="1.1824">
        <ele>136.6</ele>
        <time>2022-05-20 19:38:36</time>
      </trkpt>
      <trkpt lat="41.21336" lon="1.18255">
        <ele>136.4</ele>
        <time>2022-05-20 19:38:37</time>
      </trkpt>
      <trkpt lat="41.21335" lon="1.1827">
        <ele>136.2</ele>
        <time>2022-05-20 19:38:38</time>
      </trkpt>
      <trkpt lat="41.21334" lon="1.18284">
        <ele>136</ele>
        <time>2022-05-20 19:38:39</time>
      </trkpt>
      <trkpt lat="41.21333" lon="1.18298">
        <ele>136</ele>
        <time>2022-05-20 19:38:40</time>
      </trkpt>
      <trkpt lat="41.21332" lon="1.18313">
        <ele>135.8</ele>
        <time>2022-05-20 19:38:41</time>
      </trkpt>
      <trkpt lat="41.2133" lon="1.18327">
        <ele>135.6</ele>
        <time>2022-05-20 19:38:42</time>
      </trkpt>
      <trkpt lat="41.21329" lon="1.1834">
        <ele>135.4</ele>
        <time>2022-05-20 19:38:43</time>
      </trkpt>
      <trkpt lat="41.21328" lon="1.18355">
        <ele>135.2</ele>
        <time>2022-05-20 19:38:44</time>
      </trkpt>
      <trkpt lat="41.21326" lon="1.18369">
        <ele>135.2</ele>
        <time>2022-05-20 19:38:45</time>
      </trkpt>
      <trkpt lat="41.21323" lon="1.18384">
        <ele>134.8</ele>
        <time>2022-05-20 19:38:46</time>
      </trkpt>
      <trkpt lat="41.2132" lon="1.18399">
        <ele>134.6</ele>
        <time>2022-05-20 19:38:47</time>
      </trkpt>
      <trkpt lat="41.21318" lon="1.18413">
        <ele>134.4</ele>
        <time>2022-05-20 19:38:48</time>
      </trkpt>
      <trkpt lat="41.21315" lon="1.18428">
        <ele>134.2</ele>
        <time>2022-05-20 19:38:49</time>
      </trkpt>
      <trkpt lat="41.21313" lon="1.18442">
        <ele>133.8</ele>
        <time>2022-05-20 19:38:50</time>
      </trkpt>
      <trkpt lat="41.2131" lon="1.18457">
        <ele>133.4</ele>
        <time>2022-05-20 19:38:51</time>
      </trkpt>
      <trkpt lat="41.21308" lon="1.18471">
        <ele>133.2</ele>
        <time>2022-05-20 19:38:52</time>
      </trkpt>
      <trkpt lat="41.21305" lon="1.18485">
        <ele>133</ele>
        <time>2022-05-20 19:38:53</time>
      </trkpt>
      <trkpt lat="41.21303" lon="1.185">
        <ele>132.6</ele>
        <time>2022-05-20 19:38:54</time>
      </trkpt>
      <trkpt lat="41.21301" lon="1.18515">
        <ele>132.4</ele>
        <time>2022-05-20 19:38:55</time>
      </trkpt>
      <trkpt lat="41.21298" lon="1.1853">
        <ele>132.4</ele>
        <time>2022-05-20 19:38:56</time>
      </trkpt>
      <trkpt lat="41.21296" lon="1.18544">
        <ele>132.2</ele>
        <time>2022-05-20 19:38:57</time>
      </trkpt>
      <trkpt lat="41.21295" lon="1.18558">
        <ele>132</ele>
        <time>2022-05-20 19:38:58</time>
      </trkpt>
      <trkpt lat="41.21294" lon="1.18573">
        <ele>131.8</ele>
        <time>2022-05-20 19:38:59</time>
      </trkpt>
      <trkpt lat="41.21293" lon="1.18588">
        <ele>131.6</ele>
        <time>2022-05-20 19:39:00</time>
      </trkpt>
      <trkpt lat="41.21294" lon="1.18603">
        <ele>131.4</ele>
        <time>2022-05-20 19:39:01</time>
      </trkpt>
      <trkpt lat="41.21294" lon="1.18618">
        <ele>131.2</ele>
        <time>2022-05-20 19:39:02</time>
      </trkpt>
      <trkpt lat="41.21296" lon="1.18633">
        <ele>131</ele>
        <time>2022-05-20 19:39:03</time>
      </trkpt>
      <trkpt lat="41.21297" lon="1.18648">
        <ele>131</ele>
        <time>2022-05-20 19:39:04</time>
      </trkpt>
      <trkpt lat="41.21299" lon="1.18663">
        <ele>130.8</ele>
        <time>2022-05-20 19:39:05</time>
      </trkpt>
      <trkpt lat="41.213" lon="1.18678">
        <ele>130.6</ele>
        <time>2022-05-20 19:39:06</time>
      </trkpt>
      <trkpt lat="41.21302" lon="1.18693">
        <ele>130.2</ele>
        <time>2022-05-20 19:39:07</time>
      </trkpt>
      <trkpt lat="41.21303" lon="1.18708">
        <ele>130</ele>
        <time>2022-05-20 19:39:08</time>
      </trkpt>
      <trkpt lat="41.21305" lon="1.18722">
        <ele>129.8</ele>
        <time>2022-05-20 19:39:09</time>
      </trkpt>
      <trkpt lat="41.21306" lon="1.18737">
        <ele>129.6</ele>
        <time>2022-05-20 19:39:10</time>
      </trkpt>
      <trkpt lat="41.21308" lon="1.18752">
        <ele>129.4</ele>
        <time>2022-05-20 19:39:11</time>
      </trkpt>
      <trkpt lat="41.21309" lon="1.18767">
        <ele>129</ele>
        <time>2022-05-20 19:39:12</time>
      </trkpt>
      <trkpt lat="41.21311" lon="1.18782">
        <ele>128.8</ele>
        <time>2022-05-20 19:39:13</time>
      </trkpt>
      <trkpt lat="41.21312" lon="1.18798">
        <ele>128.8</ele>
        <time>2022-05-20 19:39:14</time>
      </trkpt>
      <trkpt lat="41.21314" lon="1.18813">
        <ele>128.6</ele>
        <time>2022-05-20 19:39:15</time>
      </trkpt>
      <trkpt lat="41.21315" lon="1.18829">
        <ele>128.2</ele>
        <time>2022-05-20 19:39:16</time>
      </trkpt>
      <trkpt lat="41.21317" lon="1.18845">
        <ele>127.8</ele>
        <time>2022-05-20 19:39:17</time>
      </trkpt>
      <trkpt lat="41.21318" lon="1.18861">
        <ele>127.6</ele>
        <time>2022-05-20 19:39:18</time>
      </trkpt>
      <trkpt lat="41.2132" lon="1.18877">
        <ele>127.2</ele>
        <time>2022-05-20 19:39:19</time>
      </trkpt>
      <trkpt lat="41.21323" lon="1.18892">
        <ele>127</ele>
        <time>2022-05-20 19:39:20</time>
      </trkpt>
      <trkpt lat="41.21325" lon="1.18906">
        <ele>126.8</ele>
        <time>2022-05-20 19:39:21</time>
      </trkpt>
      <trkpt lat="41.21328" lon="1.18922">
        <ele>126.6</ele>
        <time>2022-05-20 19:39:22</time>
      </trkpt>
      <trkpt lat="41.21331" lon="1.18938">
        <ele>126.4</ele>
        <time>2022-05-20 19:39:23</time>
      </trkpt>
      <trkpt lat="41.21334" lon="1.18953">
        <ele>126.2</ele>
        <time>2022-05-20 19:39:24</time>
      </trkpt>
      <trkpt lat="41.21338" lon="1.18969">
        <ele>126</ele>
        <time>2022-05-20 19:39:25</time>
      </trkpt>
      <trkpt lat="41.21341" lon="1.18985">
        <ele>125.8</ele>
        <time>2022-05-20 19:39:26</time>
      </trkpt>
      <trkpt lat="41.21343" lon="1.19">
        <ele>125.6</ele>
        <time>2022-05-20 19:39:27</time>
      </trkpt>
      <trkpt lat="41.21346" lon="1.19015">
        <ele>125.4</ele>
        <time>2022-05-20 19:39:28</time>
      </trkpt>
      <trkpt lat="41.21349" lon="1.19031">
        <ele>125.4</ele>
        <time>2022-05-20 19:39:29</time>
      </trkpt>
      <trkpt lat="41.21352" lon="1.19045">
        <ele>125</ele>
        <time>2022-05-20 19:39:30</time>
      </trkpt>
      <trkpt lat="41.21355" lon="1.19061">
        <ele>125</ele>
        <time>2022-05-20 19:39:31</time>
      </trkpt>
      <trkpt lat="41.21358" lon="1.19076">
        <ele>124.8</ele>
        <time>2022-05-20 19:39:32</time>
      </trkpt>
      <trkpt lat="41.21361" lon="1.19091">
        <ele>124.4</ele>
        <time>2022-05-20 19:39:33</time>
      </trkpt>
      <trkpt lat="41.21363" lon="1.19106">
        <ele>124.2</ele>
        <time>2022-05-20 19:39:34</time>
      </trkpt>
      <trkpt lat="41.21366" lon="1.19122">
        <ele>123.8</ele>
        <time>2022-05-20 19:39:35</time>
      </trkpt>
      <trkpt lat="41.21368" lon="1.19138">
        <ele>123.6</ele>
        <time>2022-05-20 19:39:36</time>
      </trkpt>
      <trkpt lat="41.21369" lon="1.19153">
        <ele>123.2</ele>
        <time>2022-05-20 19:39:37</time>
      </trkpt>
      <trkpt lat="41.21369" lon="1.19169">
        <ele>123</ele>
        <time>2022-05-20 19:39:38</time>
      </trkpt>
      <trkpt lat="41.21369" lon="1.19184">
        <ele>122.6</ele>
        <time>2022-05-20 19:39:39</time>
      </trkpt>
      <trkpt lat="41.21368" lon="1.192">
        <ele>122.4</ele>
        <time>2022-05-20 19:39:40</time>
      </trkpt>
      <trkpt lat="41.21367" lon="1.19216">
        <ele>122.2</ele>
        <time>2022-05-20 19:39:41</time>
      </trkpt>
      <trkpt lat="41.21366" lon="1.19231">
        <ele>122</ele>
        <time>2022-05-20 19:39:42</time>
      </trkpt>
      <trkpt lat="41.21365" lon="1.19247">
        <ele>121.6</ele>
        <time>2022-05-20 19:39:43</time>
      </trkpt>
      <trkpt lat="41.21363" lon="1.19263">
        <ele>121.4</ele>
        <time>2022-05-20 19:39:44</time>
      </trkpt>
      <trkpt lat="41.21362" lon="1.19278">
        <ele>121.2</ele>
        <time>2022-05-20 19:39:45</time>
      </trkpt>
      <trkpt lat="41.21362" lon="1.19294">
        <ele>121</ele>
        <time>2022-05-20 19:39:46</time>
      </trkpt>
      <trkpt lat="41.2136" lon="1.19309">
        <ele>120.8</ele>
        <time>2022-05-20 19:39:47</time>
      </trkpt>
      <trkpt lat="41.2136" lon="1.19325">
        <ele>120.4</ele>
        <time>2022-05-20 19:39:48</time>
      </trkpt>
      <trkpt lat="41.21359" lon="1.1934">
        <ele>120.2</ele>
        <time>2022-05-20 19:39:49</time>
      </trkpt>
      <trkpt lat="41.21358" lon="1.19356">
        <ele>120</ele>
        <time>2022-05-20 19:39:50</time>
      </trkpt>
      <trkpt lat="41.21357" lon="1.19371">
        <ele>119.6</ele>
        <time>2022-05-20 19:39:51</time>
      </trkpt>
      <trkpt lat="41.21356" lon="1.19387">
        <ele>119.4</ele>
        <time>2022-05-20 19:39:52</time>
      </trkpt>
      <trkpt lat="41.21355" lon="1.19403">
        <ele>119.4</ele>
        <time>2022-05-20 19:39:53</time>
      </trkpt>
      <trkpt lat="41.21354" lon="1.19418">
        <ele>119</ele>
        <time>2022-05-20 19:39:54</time>
      </trkpt>
      <trkpt lat="41.21353" lon="1.19433">
        <ele>118.8</ele>
        <time>2022-05-20 19:39:55</time>
      </trkpt>
      <trkpt lat="41.21352" lon="1.19448">
        <ele>118.6</ele>
        <time>2022-05-20 19:39:56</time>
      </trkpt>
      <trkpt lat="41.21352" lon="1.19463">
        <ele>118.2</ele>
        <time>2022-05-20 19:39:57</time>
      </trkpt>
      <trkpt lat="41.2135" lon="1.19478">
        <ele>118</ele>
        <time>2022-05-20 19:39:58</time>
      </trkpt>
      <trkpt lat="41.2135" lon="1.19493">
        <ele>117.8</ele>
        <time>2022-05-20 19:39:59</time>
      </trkpt>
      <trkpt lat="41.21349" lon="1.19507">
        <ele>117.6</ele>
        <time>2022-05-20 19:40:00</time>
      </trkpt>
      <trkpt lat="41.21348" lon="1.19521">
        <ele>117.2</ele>
        <time>2022-05-20 19:40:01</time>
      </trkpt>
      <trkpt lat="41.21347" lon="1.19535">
        <ele>117</ele>
        <time>2022-05-20 19:40:02</time>
      </trkpt>
      <trkpt lat="41.21346" lon="1.19549">
        <ele>116.8</ele>
        <time>2022-05-20 19:40:03</time>
      </trkpt>
      <trkpt lat="41.21344" lon="1.19562">
        <ele>116.6</ele>
        <time>2022-05-20 19:40:04</time>
      </trkpt>
      <trkpt lat="41.21341" lon="1.19576">
        <ele>116.4</ele>
        <time>2022-05-20 19:40:05</time>
      </trkpt>
      <trkpt lat="41.21337" lon="1.19589">
        <ele>116.2</ele>
        <time>2022-05-20 19:40:06</time>
      </trkpt>
      <trkpt lat="41.21333" lon="1.19602">
        <ele>115.8</ele>
        <time>2022-05-20 19:40:07</time>
      </trkpt>
      <trkpt lat="41.21328" lon="1.19615">
        <ele>115.6</ele>
        <time>2022-05-20 19:40:08</time>
      </trkpt>
      <trkpt lat="41.21324" lon="1.19628">
        <ele>115.2</ele>
        <time>2022-05-20 19:40:09</time>
      </trkpt>
      <trkpt lat="41.2132" lon="1.19641">
        <ele>115</ele>
        <time>2022-05-20 19:40:10</time>
      </trkpt>
      <trkpt lat="41.21315" lon="1.19655">
        <ele>114.8</ele>
        <time>2022-05-20 19:40:11</time>
      </trkpt>
      <trkpt lat="41.21311" lon="1.19667">
        <ele>114.8</ele>
        <time>2022-05-20 19:40:12</time>
      </trkpt>
      <trkpt lat="41.21307" lon="1.1968">
        <ele>114.6</ele>
        <time>2022-05-20 19:40:13</time>
      </trkpt>
      <trkpt lat="41.21302" lon="1.19694">
        <ele>114.4</ele>
        <time>2022-05-20 19:40:14</time>
      </trkpt>
      <trkpt lat="41.21297" lon="1.19707">
        <ele>114.4</ele>
        <time>2022-05-20 19:40:15</time>
      </trkpt>
      <trkpt lat="41.21293" lon="1.19719">
        <ele>114.4</ele>
        <time>2022-05-20 19:40:16</time>
      </trkpt>
      <trkpt lat="41.21289" lon="1.19732">
        <ele>114.2</ele>
        <time>2022-05-20 19:40:17</time>
      </trkpt>
      <trkpt lat="41.21284" lon="1.19743">
        <ele>114</ele>
        <time>2022-05-20 19:40:18</time>
      </trkpt>
      <trkpt lat="41.2128" lon="1.19754">
        <ele>114</ele>
        <time>2022-05-20 19:40:19</time>
      </trkpt>
      <trkpt lat="41.21274" lon="1.19763">
        <ele>113.8</ele>
        <time>2022-05-20 19:40:20</time>
      </trkpt>
      <trkpt lat="41.21268" lon="1.19771">
        <ele>113.8</ele>
        <time>2022-05-20 19:40:21</time>
      </trkpt>
      <trkpt lat="41.21263" lon="1.1978">
        <ele>113.8</ele>
        <time>2022-05-20 19:40:22</time>
      </trkpt>
      <trkpt lat="41.2126" lon="1.19789">
        <ele>113.8</ele>
        <time>2022-05-20 19:40:23</time>
      </trkpt>
      <trkpt lat="41.21261" lon="1.19797">
        <ele>113.8</ele>
        <time>2022-05-20 19:40:24</time>
      </trkpt>
      <trkpt lat="41.21265" lon="1.19804">
        <ele>113.8</ele>
        <time>2022-05-20 19:40:25</time>
      </trkpt>
      <trkpt lat="41.21272" lon="1.19808">
        <ele>113.8</ele>
        <time>2022-05-20 19:40:26</time>
      </trkpt>
      <trkpt lat="41.21279" lon="1.1981">
        <ele>113.8</ele>
        <time>2022-05-20 19:40:27</time>
      </trkpt>
      <trkpt lat="41.21287" lon="1.19812">
        <ele>113.8</ele>
        <time>2022-05-20 19:40:28</time>
      </trkpt>
      <trkpt lat="41.21296" lon="1.19814">
        <ele>113.8</ele>
        <time>2022-05-20 19:40:29</time>
      </trkpt>
      <trkpt lat="41.21304" lon="1.19819">
        <ele>113.6</ele>
        <time>2022-05-20 19:40:30</time>
      </trkpt>
      <trkpt lat="41.21312" lon="1.19826">
        <ele>113.4</ele>
        <time>2022-05-20 19:40:31</time>
      </trkpt>
      <trkpt lat="41.2132" lon="1.19833">
        <ele>113.4</ele>
        <time>2022-05-20 19:40:32</time>
      </trkpt>
      <trkpt lat="41.21328" lon="1.19841">
        <ele>113.2</ele>
        <time>2022-05-20 19:40:33</time>
      </trkpt>
      <trkpt lat="41.21336" lon="1.19849">
        <ele>113</ele>
        <time>2022-05-20 19:40:34</time>
      </trkpt>
      <trkpt lat="41.21344" lon="1.19859">
        <ele>112.8</ele>
        <time>2022-05-20 19:40:35</time>
      </trkpt>
      <trkpt lat="41.21351" lon="1.19868">
        <ele>112.8</ele>
        <time>2022-05-20 19:40:36</time>
      </trkpt>
      <trkpt lat="41.21358" lon="1.19878">
        <ele>112.6</ele>
        <time>2022-05-20 19:40:37</time>
      </trkpt>
      <trkpt lat="41.21365" lon="1.19889">
        <ele>112.4</ele>
        <time>2022-05-20 19:40:38</time>
      </trkpt>
      <trkpt lat="41.21371" lon="1.19901">
        <ele>112.2</ele>
        <time>2022-05-20 19:40:39</time>
      </trkpt>
      <trkpt lat="41.21377" lon="1.19912">
        <ele>112.2</ele>
        <time>2022-05-20 19:40:40</time>
      </trkpt>
      <trkpt lat="41.21383" lon="1.19925">
        <ele>112</ele>
        <time>2022-05-20 19:40:41</time>
      </trkpt>
      <trkpt lat="41.21388" lon="1.19937">
        <ele>111.8</ele>
        <time>2022-05-20 19:40:42</time>
      </trkpt>
      <trkpt lat="41.21393" lon="1.1995">
        <ele>111.8</ele>
        <time>2022-05-20 19:40:43</time>
      </trkpt>
      <trkpt lat="41.21397" lon="1.19963">
        <ele>111.8</ele>
        <time>2022-05-20 19:40:44</time>
      </trkpt>
      <trkpt lat="41.21402" lon="1.19977">
        <ele>111.8</ele>
        <time>2022-05-20 19:40:45</time>
      </trkpt>
      <trkpt lat="41.21405" lon="1.1999">
        <ele>111.8</ele>
        <time>2022-05-20 19:40:46</time>
      </trkpt>
      <trkpt lat="41.21409" lon="1.20003">
        <ele>111.6</ele>
        <time>2022-05-20 19:40:47</time>
      </trkpt>
      <trkpt lat="41.21413" lon="1.20017">
        <ele>111.6</ele>
        <time>2022-05-20 19:40:48</time>
      </trkpt>
      <trkpt lat="41.21416" lon="1.2003">
        <ele>111.4</ele>
        <time>2022-05-20 19:40:49</time>
      </trkpt>
      <trkpt lat="41.21419" lon="1.20043">
        <ele>111.4</ele>
        <time>2022-05-20 19:40:50</time>
      </trkpt>
      <trkpt lat="41.21422" lon="1.20056">
        <ele>111.2</ele>
        <time>2022-05-20 19:40:51</time>
      </trkpt>
      <trkpt lat="41.21426" lon="1.20069">
        <ele>111</ele>
        <time>2022-05-20 19:40:52</time>
      </trkpt>
      <trkpt lat="41.21429" lon="1.20082">
        <ele>111</ele>
        <time>2022-05-20 19:40:53</time>
      </trkpt>
      <trkpt lat="41.21432" lon="1.20094">
        <ele>111</ele>
        <time>2022-05-20 19:40:54</time>
      </trkpt>
      <trkpt lat="41.21436" lon="1.20106">
        <ele>111</ele>
        <time>2022-05-20 19:40:55</time>
      </trkpt>
      <trkpt lat="41.2144" lon="1.20119">
        <ele>111</ele>
        <time>2022-05-20 19:40:56</time>
      </trkpt>
      <trkpt lat="41.21444" lon="1.20131">
        <ele>111.2</ele>
        <time>2022-05-20 19:40:57</time>
      </trkpt>
      <trkpt lat="41.21449" lon="1.20143">
        <ele>111</ele>
        <time>2022-05-20 19:40:58</time>
      </trkpt>
      <trkpt lat="41.21453" lon="1.20155">
        <ele>111</ele>
        <time>2022-05-20 19:40:59</time>
      </trkpt>
      <trkpt lat="41.21458" lon="1.20167">
        <ele>111</ele>
        <time>2022-05-20 19:41:00</time>
      </trkpt>
      <trkpt lat="41.21463" lon="1.20179">
        <ele>111</ele>
        <time>2022-05-20 19:41:01</time>
      </trkpt>
      <trkpt lat="41.21468" lon="1.20191">
        <ele>110.8</ele>
        <time>2022-05-20 19:41:02</time>
      </trkpt>
      <trkpt lat="41.21473" lon="1.20203">
        <ele>110.8</ele>
        <time>2022-05-20 19:41:03</time>
      </trkpt>
      <trkpt lat="41.21478" lon="1.20215">
        <ele>110.8</ele>
        <time>2022-05-20 19:41:04</time>
      </trkpt>
      <trkpt lat="41.21482" lon="1.20226">
        <ele>110.8</ele>
        <time>2022-05-20 19:41:05</time>
      </trkpt>
      <trkpt lat="41.21488" lon="1.20238">
        <ele>110.6</ele>
        <time>2022-05-20 19:41:06</time>
      </trkpt>
      <trkpt lat="41.21493" lon="1.2025">
        <ele>110.4</ele>
        <time>2022-05-20 19:41:07</time>
      </trkpt>
      <trkpt lat="41.21498" lon="1.20262">
        <ele>110.4</ele>
        <time>2022-05-20 19:41:08</time>
      </trkpt>
      <trkpt lat="41.21503" lon="1.20274">
        <ele>110.2</ele>
        <time>2022-05-20 19:41:09</time>
      </trkpt>
      <trkpt lat="41.21508" lon="1.20286">
        <ele>110</ele>
        <time>2022-05-20 19:41:10</time>
      </trkpt>
      <trkpt lat="41.21513" lon="1.20298">
        <ele>110</ele>
        <time>2022-05-20 19:41:11</time>
      </trkpt>
      <trkpt lat="41.21517" lon="1.2031">
        <ele>109.8</ele>
        <time>2022-05-20 19:41:12</time>
      </trkpt>
      <trkpt lat="41.2152" lon="1.20323">
        <ele>109.4</ele>
        <time>2022-05-20 19:41:13</time>
      </trkpt>
      <trkpt lat="41.21522" lon="1.20336">
        <ele>109.2</ele>
        <time>2022-05-20 19:41:14</time>
      </trkpt>
      <trkpt lat="41.21523" lon="1.2035">
        <ele>109</ele>
        <time>2022-05-20 19:41:15</time>
      </trkpt>
      <trkpt lat="41.21523" lon="1.20364">
        <ele>108.6</ele>
        <time>2022-05-20 19:41:16</time>
      </trkpt>
      <trkpt lat="41.21524" lon="1.20378">
        <ele>108.4</ele>
        <time>2022-05-20 19:41:17</time>
      </trkpt>
      <trkpt lat="41.21523" lon="1.20391">
        <ele>108.2</ele>
        <time>2022-05-20 19:41:18</time>
      </trkpt>
      <trkpt lat="41.2152" lon="1.20405">
        <ele>108</ele>
        <time>2022-05-20 19:41:19</time>
      </trkpt>
      <trkpt lat="41.21516" lon="1.20418">
        <ele>107.8</ele>
        <time>2022-05-20 19:41:20</time>
      </trkpt>
      <trkpt lat="41.21511" lon="1.2043">
        <ele>107.6</ele>
        <time>2022-05-20 19:41:21</time>
      </trkpt>
      <trkpt lat="41.21506" lon="1.20442">
        <ele>107.6</ele>
        <time>2022-05-20 19:41:22</time>
      </trkpt>
      <trkpt lat="41.21501" lon="1.20454">
        <ele>107.6</ele>
        <time>2022-05-20 19:41:23</time>
      </trkpt>
      <trkpt lat="41.21495" lon="1.20466">
        <ele>107.4</ele>
        <time>2022-05-20 19:41:24</time>
      </trkpt>
      <trkpt lat="41.2149" lon="1.20477">
        <ele>107.4</ele>
        <time>2022-05-20 19:41:25</time>
      </trkpt>
      <trkpt lat="41.21484" lon="1.20489">
        <ele>107.2</ele>
        <time>2022-05-20 19:41:26</time>
      </trkpt>
      <trkpt lat="41.21479" lon="1.20501">
        <ele>107</ele>
        <time>2022-05-20 19:41:27</time>
      </trkpt>
      <trkpt lat="41.21474" lon="1.20512">
        <ele>106.8</ele>
        <time>2022-05-20 19:41:28</time>
      </trkpt>
      <trkpt lat="41.21469" lon="1.20522">
        <ele>106.6</ele>
        <time>2022-05-20 19:41:29</time>
      </trkpt>
      <trkpt lat="41.21463" lon="1.20535">
        <ele>106.6</ele>
        <time>2022-05-20 19:41:30</time>
      </trkpt>
      <trkpt lat="41.21458" lon="1.20546">
        <ele>106.2</ele>
        <time>2022-05-20 19:41:31</time>
      </trkpt>
      <trkpt lat="41.21454" lon="1.20556">
        <ele>106</ele>
        <time>2022-05-20 19:41:32</time>
      </trkpt>
      <trkpt lat="41.21448" lon="1.20571">
        <ele>106</ele>
        <time>2022-05-20 19:41:33</time>
      </trkpt>
      <trkpt lat="41.21444" lon="1.20584">
        <ele>105.8</ele>
        <time>2022-05-20 19:41:34</time>
      </trkpt>
      <trkpt lat="41.21441" lon="1.20597">
        <ele>105.8</ele>
        <time>2022-05-20 19:41:35</time>
      </trkpt>
      <trkpt lat="41.21437" lon="1.2061">
        <ele>105.8</ele>
        <time>2022-05-20 19:41:36</time>
      </trkpt>
      <trkpt lat="41.21434" lon="1.20622">
        <ele>105.8</ele>
        <time>2022-05-20 19:41:37</time>
      </trkpt>
      <trkpt lat="41.21431" lon="1.20635">
        <ele>105.6</ele>
        <time>2022-05-20 19:41:38</time>
      </trkpt>
      <trkpt lat="41.21427" lon="1.20647">
        <ele>105.4</ele>
        <time>2022-05-20 19:41:39</time>
      </trkpt>
      <trkpt lat="41.21423" lon="1.20659">
        <ele>105.4</ele>
        <time>2022-05-20 19:41:40</time>
      </trkpt>
      <trkpt lat="41.21418" lon="1.20671">
        <ele>105.2</ele>
        <time>2022-05-20 19:41:41</time>
      </trkpt>
      <trkpt lat="41.21413" lon="1.20682">
        <ele>105</ele>
        <time>2022-05-20 19:41:42</time>
      </trkpt>
      <trkpt lat="41.21407" lon="1.20693">
        <ele>104.8</ele>
        <time>2022-05-20 19:41:43</time>
      </trkpt>
      <trkpt lat="41.214" lon="1.20704">
        <ele>104.8</ele>
        <time>2022-05-20 19:41:44</time>
      </trkpt>
      <trkpt lat="41.21392" lon="1.20715">
        <ele>104.6</ele>
        <time>2022-05-20 19:41:45</time>
      </trkpt>
      <trkpt lat="41.21386" lon="1.20726">
        <ele>104.4</ele>
        <time>2022-05-20 19:41:46</time>
      </trkpt>
      <trkpt lat="41.21379" lon="1.20736">
        <ele>104.4</ele>
        <time>2022-05-20 19:41:47</time>
      </trkpt>
      <trkpt lat="41.21373" lon="1.20746">
        <ele>104.2</ele>
        <time>2022-05-20 19:41:48</time>
      </trkpt>
      <trkpt lat="41.21366" lon="1.20757">
        <ele>104</ele>
        <time>2022-05-20 19:41:49</time>
      </trkpt>
      <trkpt lat="41.2136" lon="1.20768">
        <ele>103.8</ele>
        <time>2022-05-20 19:41:50</time>
      </trkpt>
      <trkpt lat="41.21354" lon="1.20778">
        <ele>103.8</ele>
        <time>2022-05-20 19:41:51</time>
      </trkpt>
      <trkpt lat="41.2135" lon="1.20789">
        <ele>103.6</ele>
        <time>2022-05-20 19:41:52</time>
      </trkpt>
      <trkpt lat="41.21348" lon="1.20798">
        <ele>103.4</ele>
        <time>2022-05-20 19:41:53</time>
      </trkpt>
      <trkpt lat="41.21346" lon="1.20813">
        <ele>103.4</ele>
        <time>2022-05-20 19:41:54</time>
      </trkpt>
      <trkpt lat="41.21343" lon="1.20824">
        <ele>103.4</ele>
        <time>2022-05-20 19:41:55</time>
      </trkpt>
      <trkpt lat="41.21342" lon="1.20835">
        <ele>103.2</ele>
        <time>2022-05-20 19:41:56</time>
      </trkpt>
      <trkpt lat="41.21342" lon="1.20845">
        <ele>103.2</ele>
        <time>2022-05-20 19:41:57</time>
      </trkpt>
      <trkpt lat="41.21345" lon="1.20853">
        <ele>103.2</ele>
        <time>2022-05-20 19:41:58</time>
      </trkpt>
      <trkpt lat="41.2135" lon="1.20858">
        <ele>103.2</ele>
        <time>2022-05-20 19:41:59</time>
      </trkpt>
      <trkpt lat="41.21357" lon="1.20859">
        <ele>103.4</ele>
        <time>2022-05-20 19:42:00</time>
      </trkpt>
      <trkpt lat="41.21363" lon="1.20857">
        <ele>103.4</ele>
        <time>2022-05-20 19:42:01</time>
      </trkpt>
      <trkpt lat="41.21369" lon="1.20852">
        <ele>103.6</ele>
        <time>2022-05-20 19:42:02</time>
      </trkpt>
      <trkpt lat="41.21374" lon="1.20846">
        <ele>103.6</ele>
        <time>2022-05-20 19:42:03</time>
      </trkpt>
      <trkpt lat="41.21379" lon="1.2084">
        <ele>103.8</ele>
        <time>2022-05-20 19:42:04</time>
      </trkpt>
      <trkpt lat="41.21386" lon="1.20835">
        <ele>104</ele>
        <time>2022-05-20 19:42:05</time>
      </trkpt>
      <trkpt lat="41.21392" lon="1.20831">
        <ele>104.2</ele>
        <time>2022-05-20 19:42:06</time>
      </trkpt>
      <trkpt lat="41.214" lon="1.20828">
        <ele>104.4</ele>
        <time>2022-05-20 19:42:07</time>
      </trkpt>
      <trkpt lat="41.21407" lon="1.20826">
        <ele>104.6</ele>
        <time>2022-05-20 19:42:08</time>
      </trkpt>
      <trkpt lat="41.21415" lon="1.20826">
        <ele>104.8</ele>
        <time>2022-05-20 19:42:09</time>
      </trkpt>
      <trkpt lat="41.21423" lon="1.20827">
        <ele>105</ele>
        <time>2022-05-20 19:42:10</time>
      </trkpt>
      <trkpt lat="41.21431" lon="1.2083">
        <ele>105.4</ele>
        <time>2022-05-20 19:42:11</time>
      </trkpt>
      <trkpt lat="41.21438" lon="1.20835">
        <ele>105.6</ele>
        <time>2022-05-20 19:42:12</time>
      </trkpt>
      <trkpt lat="41.21444" lon="1.20841">
        <ele>106</ele>
        <time>2022-05-20 19:42:13</time>
      </trkpt>
      <trkpt lat="41.21451" lon="1.20847">
        <ele>106.2</ele>
        <time>2022-05-20 19:42:14</time>
      </trkpt>
      <trkpt lat="41.21457" lon="1.20854">
        <ele>106.6</ele>
        <time>2022-05-20 19:42:15</time>
      </trkpt>
      <trkpt lat="41.21463" lon="1.2086">
        <ele>107</ele>
        <time>2022-05-20 19:42:16</time>
      </trkpt>
      <trkpt lat="41.21468" lon="1.20867">
        <ele>107.4</ele>
        <time>2022-05-20 19:42:17</time>
      </trkpt>
      <trkpt lat="41.21474" lon="1.20873">
        <ele>107.8</ele>
        <time>2022-05-20 19:42:18</time>
      </trkpt>
      <trkpt lat="41.2148" lon="1.2088">
        <ele>108</ele>
        <time>2022-05-20 19:42:19</time>
      </trkpt>
      <trkpt lat="41.21485" lon="1.20887">
        <ele>108.4</ele>
        <time>2022-05-20 19:42:20</time>
      </trkpt>
      <trkpt lat="41.2149" lon="1.20893">
        <ele>108.8</ele>
        <time>2022-05-20 19:42:21</time>
      </trkpt>
      <trkpt lat="41.21497" lon="1.209">
        <ele>109.2</ele>
        <time>2022-05-20 19:42:22</time>
      </trkpt>
      <trkpt lat="41.21502" lon="1.20907">
        <ele>109.6</ele>
        <time>2022-05-20 19:42:23</time>
      </trkpt>
      <trkpt lat="41.21507" lon="1.20913">
        <ele>110</ele>
        <time>2022-05-20 19:42:24</time>
      </trkpt>
      <trkpt lat="41.21513" lon="1.2092">
        <ele>110.2</ele>
        <time>2022-05-20 19:42:25</time>
      </trkpt>
      <trkpt lat="41.21518" lon="1.20926">
        <ele>110.4</ele>
        <time>2022-05-20 19:42:26</time>
      </trkpt>
      <trkpt lat="41.21525" lon="1.20933">
        <ele>110.6</ele>
        <time>2022-05-20 19:42:27</time>
      </trkpt>
      <trkpt lat="41.21531" lon="1.2094">
        <ele>110.8</ele>
        <time>2022-05-20 19:42:28</time>
      </trkpt>
      <trkpt lat="41.21537" lon="1.20947">
        <ele>111</ele>
        <time>2022-05-20 19:42:29</time>
      </trkpt>
      <trkpt lat="41.21544" lon="1.20954">
        <ele>111</ele>
        <time>2022-05-20 19:42:30</time>
      </trkpt>
      <trkpt lat="41.21551" lon="1.2096">
        <ele>111.2</ele>
        <time>2022-05-20 19:42:31</time>
      </trkpt>
      <trkpt lat="41.21558" lon="1.20967">
        <ele>111.2</ele>
        <time>2022-05-20 19:42:32</time>
      </trkpt>
      <trkpt lat="41.21566" lon="1.20973">
        <ele>111.4</ele>
        <time>2022-05-20 19:42:33</time>
      </trkpt>
      <trkpt lat="41.21573" lon="1.2098">
        <ele>111.4</ele>
        <time>2022-05-20 19:42:34</time>
      </trkpt>
      <trkpt lat="41.21581" lon="1.20986">
        <ele>111.4</ele>
        <time>2022-05-20 19:42:35</time>
      </trkpt>
      <trkpt lat="41.21589" lon="1.20992">
        <ele>111.4</ele>
        <time>2022-05-20 19:42:36</time>
      </trkpt>
      <trkpt lat="41.21596" lon="1.20997">
        <ele>111.4</ele>
        <time>2022-05-20 19:42:37</time>
      </trkpt>
      <trkpt lat="41.21605" lon="1.21003">
        <ele>111.4</ele>
        <time>2022-05-20 19:42:38</time>
      </trkpt>
      <trkpt lat="41.21613" lon="1.21009">
        <ele>111.6</ele>
        <time>2022-05-20 19:42:39</time>
      </trkpt>
      <trkpt lat="41.21621" lon="1.21014">
        <ele>111.6</ele>
        <time>2022-05-20 19:42:40</time>
      </trkpt>
      <trkpt lat="41.21629" lon="1.21019">
        <ele>111.6</ele>
        <time>2022-05-20 19:42:41</time>
      </trkpt>
      <trkpt lat="41.21638" lon="1.21025">
        <ele>111.6</ele>
        <time>2022-05-20 19:42:42</time>
      </trkpt>
      <trkpt lat="41.21646" lon="1.2103">
        <ele>111.6</ele>
        <time>2022-05-20 19:42:43</time>
      </trkpt>
      <trkpt lat="41.21655" lon="1.21035">
        <ele>111.6</ele>
        <time>2022-05-20 19:42:44</time>
      </trkpt>
      <trkpt lat="41.21663" lon="1.21041">
        <ele>111.6</ele>
        <time>2022-05-20 19:42:45</time>
      </trkpt>
      <trkpt lat="41.21672" lon="1.21046">
        <ele>111.6</ele>
        <time>2022-05-20 19:42:46</time>
      </trkpt>
      <trkpt lat="41.2168" lon="1.21052">
        <ele>111.6</ele>
        <time>2022-05-20 19:42:47</time>
      </trkpt>
      <trkpt lat="41.21689" lon="1.21057">
        <ele>111.6</ele>
        <time>2022-05-20 19:42:48</time>
      </trkpt>
      <trkpt lat="41.21698" lon="1.21063">
        <ele>111.4</ele>
        <time>2022-05-20 19:42:49</time>
      </trkpt>
      <trkpt lat="41.21706" lon="1.21068">
        <ele>111.4</ele>
        <time>2022-05-20 19:42:50</time>
      </trkpt>
      <trkpt lat="41.21715" lon="1.21073">
        <ele>111.6</ele>
        <time>2022-05-20 19:42:51</time>
      </trkpt>
      <trkpt lat="41.21724" lon="1.21079">
        <ele>111.4</ele>
        <time>2022-05-20 19:42:52</time>
      </trkpt>
      <trkpt lat="41.21732" lon="1.21084">
        <ele>111.6</ele>
        <time>2022-05-20 19:42:53</time>
      </trkpt>
      <trkpt lat="41.21741" lon="1.21089">
        <ele>111.6</ele>
        <time>2022-05-20 19:42:54</time>
      </trkpt>
      <trkpt lat="41.21749" lon="1.21094">
        <ele>111.6</ele>
        <time>2022-05-20 19:42:55</time>
      </trkpt>
      <trkpt lat="41.21758" lon="1.21099">
        <ele>111.6</ele>
        <time>2022-05-20 19:42:56</time>
      </trkpt>
      <trkpt lat="41.21767" lon="1.21103">
        <ele>111.4</ele>
        <time>2022-05-20 19:42:57</time>
      </trkpt>
      <trkpt lat="41.21775" lon="1.21108">
        <ele>111.4</ele>
        <time>2022-05-20 19:42:58</time>
      </trkpt>
      <trkpt lat="41.21785" lon="1.21112">
        <ele>111.4</ele>
        <time>2022-05-20 19:42:59</time>
      </trkpt>
      <trkpt lat="41.21794" lon="1.21116">
        <ele>111.2</ele>
        <time>2022-05-20 19:43:00</time>
      </trkpt>
      <trkpt lat="41.21803" lon="1.21119">
        <ele>111</ele>
        <time>2022-05-20 19:43:01</time>
      </trkpt>
      <trkpt lat="41.21812" lon="1.21123">
        <ele>111</ele>
        <time>2022-05-20 19:43:02</time>
      </trkpt>
      <trkpt lat="41.21822" lon="1.21127">
        <ele>110.8</ele>
        <time>2022-05-20 19:43:03</time>
      </trkpt>
      <trkpt lat="41.21832" lon="1.2113">
        <ele>110.4</ele>
        <time>2022-05-20 19:43:04</time>
      </trkpt>
      <trkpt lat="41.21843" lon="1.21134">
        <ele>110.2</ele>
        <time>2022-05-20 19:43:05</time>
      </trkpt>
      <trkpt lat="41.21854" lon="1.21137">
        <ele>109.8</ele>
        <time>2022-05-20 19:43:06</time>
      </trkpt>
      <trkpt lat="41.21864" lon="1.21141">
        <ele>109.2</ele>
        <time>2022-05-20 19:43:07</time>
      </trkpt>
      <trkpt lat="41.21875" lon="1.21145">
        <ele>108.8</ele>
        <time>2022-05-20 19:43:08</time>
      </trkpt>
      <trkpt lat="41.21887" lon="1.21149">
        <ele>108.2</ele>
        <time>2022-05-20 19:43:09</time>
      </trkpt>
      <trkpt lat="41.21898" lon="1.21153">
        <ele>107.6</ele>
        <time>2022-05-20 19:43:10</time>
      </trkpt>
      <trkpt lat="41.2191" lon="1.21157">
        <ele>107</ele>
        <time>2022-05-20 19:43:11</time>
      </trkpt>
      <trkpt lat="41.21922" lon="1.2116">
        <ele>106.2</ele>
        <time>2022-05-20 19:43:12</time>
      </trkpt>
      <trkpt lat="41.21935" lon="1.21164">
        <ele>105.6</ele>
        <time>2022-05-20 19:43:13</time>
      </trkpt>
      <trkpt lat="41.21947" lon="1.21168">
        <ele>105</ele>
        <time>2022-05-20 19:43:14</time>
      </trkpt>
      <trkpt lat="41.21959" lon="1.21171">
        <ele>104.2</ele>
        <time>2022-05-20 19:43:15</time>
      </trkpt>
      <trkpt lat="41.21971" lon="1.21172">
        <ele>103.6</ele>
        <time>2022-05-20 19:43:16</time>
      </trkpt>
      <trkpt lat="41.21984" lon="1.21173">
        <ele>103.2</ele>
        <time>2022-05-20 19:43:17</time>
      </trkpt>
      <trkpt lat="41.21996" lon="1.21172">
        <ele>102.8</ele>
        <time>2022-05-20 19:43:18</time>
      </trkpt>
      <trkpt lat="41.22008" lon="1.21169">
        <ele>102.4</ele>
        <time>2022-05-20 19:43:19</time>
      </trkpt>
      <trkpt lat="41.22019" lon="1.21166">
        <ele>102.4</ele>
        <time>2022-05-20 19:43:20</time>
      </trkpt>
      <trkpt lat="41.22029" lon="1.21163">
        <ele>102.4</ele>
        <time>2022-05-20 19:43:21</time>
      </trkpt>
      <trkpt lat="41.2204" lon="1.21161">
        <ele>102.8</ele>
        <time>2022-05-20 19:43:22</time>
      </trkpt>
      <trkpt lat="41.2205" lon="1.21158">
        <ele>103</ele>
        <time>2022-05-20 19:43:23</time>
      </trkpt>
      <trkpt lat="41.2206" lon="1.21157">
        <ele>103.4</ele>
        <time>2022-05-20 19:43:24</time>
      </trkpt>
      <trkpt lat="41.2207" lon="1.21158">
        <ele>103.8</ele>
        <time>2022-05-20 19:43:25</time>
      </trkpt>
      <trkpt lat="41.22078" lon="1.21161">
        <ele>104.2</ele>
        <time>2022-05-20 19:43:26</time>
      </trkpt>
      <trkpt lat="41.22087" lon="1.21166">
        <ele>104.6</ele>
        <time>2022-05-20 19:43:27</time>
      </trkpt>
      <trkpt lat="41.22095" lon="1.21174">
        <ele>105</ele>
        <time>2022-05-20 19:43:28</time>
      </trkpt>
      <trkpt lat="41.22102" lon="1.21182">
        <ele>105.4</ele>
        <time>2022-05-20 19:43:29</time>
      </trkpt>
      <trkpt lat="41.22109" lon="1.21191">
        <ele>105.6</ele>
        <time>2022-05-20 19:43:30</time>
      </trkpt>
      <trkpt lat="41.22115" lon="1.212">
        <ele>105.8</ele>
        <time>2022-05-20 19:43:31</time>
      </trkpt>
      <trkpt lat="41.22121" lon="1.21209">
        <ele>106.2</ele>
        <time>2022-05-20 19:43:32</time>
      </trkpt>
      <trkpt lat="41.22126" lon="1.21219">
        <ele>106.4</ele>
        <time>2022-05-20 19:43:33</time>
      </trkpt>
      <trkpt lat="41.22128" lon="1.21229">
        <ele>106.6</ele>
        <time>2022-05-20 19:43:34</time>
      </trkpt>
      <trkpt lat="41.22131" lon="1.21241">
        <ele>106.8</ele>
        <time>2022-05-20 19:43:35</time>
      </trkpt>
      <trkpt lat="41.22134" lon="1.21251">
        <ele>107</ele>
        <time>2022-05-20 19:43:36</time>
      </trkpt>
      <trkpt lat="41.22138" lon="1.21258">
        <ele>107.4</ele>
        <time>2022-05-20 19:43:37</time>
      </trkpt>
      <trkpt lat="41.22143" lon="1.21265">
        <ele>107.6</ele>
        <time>2022-05-20 19:43:38</time>
      </trkpt>
      <trkpt lat="41.22151" lon="1.21274">
        <ele>107.8</ele>
        <time>2022-05-20 19:43:39</time>
      </trkpt>
      <trkpt lat="41.22157" lon="1.21282">
        <ele>108.2</ele>
        <time>2022-05-20 19:43:40</time>
      </trkpt>
      <trkpt lat="41.22161" lon="1.21291">
        <ele>108.4</ele>
        <time>2022-05-20 19:43:41</time>
      </trkpt>
      <trkpt lat="41.22166" lon="1.21301">
        <ele>108.4</ele>
        <time>2022-05-20 19:43:42</time>
      </trkpt>
      <trkpt lat="41.2217" lon="1.21311">
        <ele>108.6</ele>
        <time>2022-05-20 19:43:43</time>
      </trkpt>
      <trkpt lat="41.22174" lon="1.21322">
        <ele>108.6</ele>
        <time>2022-05-20 19:43:44</time>
      </trkpt>
      <trkpt lat="41.22176" lon="1.21333">
        <ele>108.6</ele>
        <time>2022-05-20 19:43:45</time>
      </trkpt>
      <trkpt lat="41.22178" lon="1.21344">
        <ele>108.6</ele>
        <time>2022-05-20 19:43:46</time>
      </trkpt>
      <trkpt lat="41.22179" lon="1.21356">
        <ele>108.6</ele>
        <time>2022-05-20 19:43:47</time>
      </trkpt>
      <trkpt lat="41.22181" lon="1.21367">
        <ele>108.4</ele>
        <time>2022-05-20 19:43:48</time>
      </trkpt>
      <trkpt lat="41.22185" lon="1.21378">
        <ele>108.4</ele>
        <time>2022-05-20 19:43:49</time>
      </trkpt>
      <trkpt lat="41.2219" lon="1.21388">
        <ele>108.2</ele>
        <time>2022-05-20 19:43:50</time>
      </trkpt>
      <trkpt lat="41.22196" lon="1.21398">
        <ele>108</ele>
        <time>2022-05-20 19:43:51</time>
      </trkpt>
      <trkpt lat="41.22202" lon="1.2141">
        <ele>107.8</ele>
        <time>2022-05-20 19:43:52</time>
      </trkpt>
      <trkpt lat="41.22206" lon="1.21421">
        <ele>107.6</ele>
        <time>2022-05-20 19:43:53</time>
      </trkpt>
      <trkpt lat="41.22211" lon="1.21434">
        <ele>107.2</ele>
        <time>2022-05-20 19:43:54</time>
      </trkpt>
      <trkpt lat="41.22214" lon="1.21447">
        <ele>107</ele>
        <time>2022-05-20 19:43:55</time>
      </trkpt>
      <trkpt lat="41.22218" lon="1.2146">
        <ele>106.6</ele>
        <time>2022-05-20 19:43:56</time>
      </trkpt>
      <trkpt lat="41.22221" lon="1.21473">
        <ele>106.2</ele>
        <time>2022-05-20 19:43:57</time>
      </trkpt>
      <trkpt lat="41.22225" lon="1.21487">
        <ele>106</ele>
        <time>2022-05-20 19:43:58</time>
      </trkpt>
      <trkpt lat="41.22229" lon="1.215">
        <ele>105.6</ele>
        <time>2022-05-20 19:43:59</time>
      </trkpt>
      <trkpt lat="41.22232" lon="1.21514">
        <ele>105.2</ele>
        <time>2022-05-20 19:44:00</time>
      </trkpt>
      <trkpt lat="41.22236" lon="1.21528">
        <ele>104.8</ele>
        <time>2022-05-20 19:44:01</time>
      </trkpt>
      <trkpt lat="41.2224" lon="1.21542">
        <ele>104.4</ele>
        <time>2022-05-20 19:44:02</time>
      </trkpt>
      <trkpt lat="41.22244" lon="1.21556">
        <ele>104</ele>
        <time>2022-05-20 19:44:03</time>
      </trkpt>
      <trkpt lat="41.22248" lon="1.2157">
        <ele>103.6</ele>
        <time>2022-05-20 19:44:04</time>
      </trkpt>
      <trkpt lat="41.22253" lon="1.21584">
        <ele>103.2</ele>
        <time>2022-05-20 19:44:05</time>
      </trkpt>
      <trkpt lat="41.22256" lon="1.21598">
        <ele>102.8</ele>
        <time>2022-05-20 19:44:06</time>
      </trkpt>
      <trkpt lat="41.2226" lon="1.21612">
        <ele>102.6</ele>
        <time>2022-05-20 19:44:07</time>
      </trkpt>
      <trkpt lat="41.22264" lon="1.21626">
        <ele>102.2</ele>
        <time>2022-05-20 19:44:08</time>
      </trkpt>
      <trkpt lat="41.22268" lon="1.2164">
        <ele>102.2</ele>
        <time>2022-05-20 19:44:09</time>
      </trkpt>
      <trkpt lat="41.22272" lon="1.21652">
        <ele>102</ele>
        <time>2022-05-20 19:44:10</time>
      </trkpt>
      <trkpt lat="41.22276" lon="1.21665">
        <ele>101.8</ele>
        <time>2022-05-20 19:44:11</time>
      </trkpt>
      <trkpt lat="41.2228" lon="1.21679">
        <ele>101.6</ele>
        <time>2022-05-20 19:44:12</time>
      </trkpt>
      <trkpt lat="41.22283" lon="1.21692">
        <ele>101.4</ele>
        <time>2022-05-20 19:44:13</time>
      </trkpt>
      <trkpt lat="41.22286" lon="1.21704">
        <ele>101.6</ele>
        <time>2022-05-20 19:44:14</time>
      </trkpt>
      <trkpt lat="41.22289" lon="1.21716">
        <ele>101.6</ele>
        <time>2022-05-20 19:44:15</time>
      </trkpt>
      <trkpt lat="41.22292" lon="1.21728">
        <ele>101.4</ele>
        <time>2022-05-20 19:44:16</time>
      </trkpt>
      <trkpt lat="41.22295" lon="1.21738">
        <ele>101.4</ele>
        <time>2022-05-20 19:44:17</time>
      </trkpt>
      <trkpt lat="41.22298" lon="1.21748">
        <ele>101.4</ele>
        <time>2022-05-20 19:44:18</time>
      </trkpt>
      <trkpt lat="41.22303" lon="1.21756">
        <ele>101.4</ele>
        <time>2022-05-20 19:44:19</time>
      </trkpt>
      <trkpt lat="41.22309" lon="1.21763">
        <ele>101.4</ele>
        <time>2022-05-20 19:44:20</time>
      </trkpt>
      <trkpt lat="41.22314" lon="1.21768">
        <ele>101.4</ele>
        <time>2022-05-20 19:44:21</time>
      </trkpt>
      <trkpt lat="41.22321" lon="1.21772">
        <ele>101.4</ele>
        <time>2022-05-20 19:44:22</time>
      </trkpt>
      <trkpt lat="41.22328" lon="1.21774">
        <ele>101.4</ele>
        <time>2022-05-20 19:44:23</time>
      </trkpt>
      <trkpt lat="41.22336" lon="1.21774">
        <ele>101.6</ele>
        <time>2022-05-20 19:44:24</time>
      </trkpt>
      <trkpt lat="41.22345" lon="1.21774">
        <ele>101.6</ele>
        <time>2022-05-20 19:44:25</time>
      </trkpt>
      <trkpt lat="41.22355" lon="1.21774">
        <ele>101.6</ele>
        <time>2022-05-20 19:44:26</time>
      </trkpt>
      <trkpt lat="41.22364" lon="1.21776">
        <ele>101.8</ele>
        <time>2022-05-20 19:44:27</time>
      </trkpt>
      <trkpt lat="41.22373" lon="1.21776">
        <ele>102.2</ele>
        <time>2022-05-20 19:44:28</time>
      </trkpt>
      <trkpt lat="41.22382" lon="1.21776">
        <ele>102.2</ele>
        <time>2022-05-20 19:44:29</time>
      </trkpt>
      <trkpt lat="41.22392" lon="1.21776">
        <ele>102.4</ele>
        <time>2022-05-20 19:44:30</time>
      </trkpt>
      <trkpt lat="41.22402" lon="1.21776">
        <ele>102.6</ele>
        <time>2022-05-20 19:44:31</time>
      </trkpt>
      <trkpt lat="41.22411" lon="1.21777">
        <ele>102.8</ele>
        <time>2022-05-20 19:44:32</time>
      </trkpt>
      <trkpt lat="41.22421" lon="1.21778">
        <ele>102.8</ele>
        <time>2022-05-20 19:44:33</time>
      </trkpt>
      <trkpt lat="41.2243" lon="1.2178">
        <ele>103</ele>
        <time>2022-05-20 19:44:34</time>
      </trkpt>
      <trkpt lat="41.22439" lon="1.21781">
        <ele>103.2</ele>
        <time>2022-05-20 19:44:35</time>
      </trkpt>
      <trkpt lat="41.22448" lon="1.21783">
        <ele>103.4</ele>
        <time>2022-05-20 19:44:36</time>
      </trkpt>
      <trkpt lat="41.22457" lon="1.21784">
        <ele>103.4</ele>
        <time>2022-05-20 19:44:37</time>
      </trkpt>
      <trkpt lat="41.22466" lon="1.21785">
        <ele>103.6</ele>
        <time>2022-05-20 19:44:38</time>
      </trkpt>
      <trkpt lat="41.22474" lon="1.21786">
        <ele>103.8</ele>
        <time>2022-05-20 19:44:39</time>
      </trkpt>
      <trkpt lat="41.22482" lon="1.21787">
        <ele>103.8</ele>
        <time>2022-05-20 19:44:40</time>
      </trkpt>
      <trkpt lat="41.2249" lon="1.21788">
        <ele>104</ele>
        <time>2022-05-20 19:44:41</time>
      </trkpt>
      <trkpt lat="41.22497" lon="1.21789">
        <ele>104</ele>
        <time>2022-05-20 19:44:42</time>
      </trkpt>
      <trkpt lat="41.22504" lon="1.2179">
        <ele>104</ele>
        <time>2022-05-20 19:44:43</time>
      </trkpt>
      <trkpt lat="41.22512" lon="1.21791">
        <ele>103.8</ele>
        <time>2022-05-20 19:44:44</time>
      </trkpt>
      <trkpt lat="41.22521" lon="1.21791">
        <ele>103.6</ele>
        <time>2022-05-20 19:44:45</time>
      </trkpt>
      <trkpt lat="41.2253" lon="1.21792">
        <ele>103.4</ele>
        <time>2022-05-20 19:44:46</time>
      </trkpt>
      <trkpt lat="41.22539" lon="1.21792">
        <ele>103</ele>
        <time>2022-05-20 19:44:47</time>
      </trkpt>
      <trkpt lat="41.22548" lon="1.21792">
        <ele>102.8</ele>
        <time>2022-05-20 19:44:48</time>
      </trkpt>
      <trkpt lat="41.22558" lon="1.21792">
        <ele>102.4</ele>
        <time>2022-05-20 19:44:49</time>
      </trkpt>
      <trkpt lat="41.22568" lon="1.21792">
        <ele>102</ele>
        <time>2022-05-20 19:44:50</time>
      </trkpt>
      <trkpt lat="41.22578" lon="1.21792">
        <ele>101.6</ele>
        <time>2022-05-20 19:44:51</time>
      </trkpt>
      <trkpt lat="41.22588" lon="1.21791">
        <ele>101.4</ele>
        <time>2022-05-20 19:44:52</time>
      </trkpt>
      <trkpt lat="41.22597" lon="1.2179">
        <ele>101.4</ele>
        <time>2022-05-20 19:44:53</time>
      </trkpt>
      <trkpt lat="41.22607" lon="1.21789">
        <ele>101.2</ele>
        <time>2022-05-20 19:44:54</time>
      </trkpt>
      <trkpt lat="41.22617" lon="1.21788">
        <ele>101</ele>
        <time>2022-05-20 19:44:55</time>
      </trkpt>
      <trkpt lat="41.22626" lon="1.21787">
        <ele>100.8</ele>
        <time>2022-05-20 19:44:56</time>
      </trkpt>
      <trkpt lat="41.22636" lon="1.21786">
        <ele>100.8</ele>
        <time>2022-05-20 19:44:57</time>
      </trkpt>
      <trkpt lat="41.22647" lon="1.21784">
        <ele>100.6</ele>
        <time>2022-05-20 19:44:58</time>
      </trkpt>
      <trkpt lat="41.22657" lon="1.21783">
        <ele>100.6</ele>
        <time>2022-05-20 19:44:59</time>
      </trkpt>
      <trkpt lat="41.22666" lon="1.21782">
        <ele>100.6</ele>
        <time>2022-05-20 19:45:00</time>
      </trkpt>
      <trkpt lat="41.22676" lon="1.21779">
        <ele>100.6</ele>
        <time>2022-05-20 19:45:01</time>
      </trkpt>
      <trkpt lat="41.22685" lon="1.21777">
        <ele>100.6</ele>
        <time>2022-05-20 19:45:02</time>
      </trkpt>
      <trkpt lat="41.22694" lon="1.21773">
        <ele>100.6</ele>
        <time>2022-05-20 19:45:03</time>
      </trkpt>
      <trkpt lat="41.22703" lon="1.21769">
        <ele>100.6</ele>
        <time>2022-05-20 19:45:04</time>
      </trkpt>
      <trkpt lat="41.22712" lon="1.21764">
        <ele>100.6</ele>
        <time>2022-05-20 19:45:05</time>
      </trkpt>
      <trkpt lat="41.2272" lon="1.2176">
        <ele>100.6</ele>
        <time>2022-05-20 19:45:06</time>
      </trkpt>
      <trkpt lat="41.22729" lon="1.21756">
        <ele>100.8</ele>
        <time>2022-05-20 19:45:07</time>
      </trkpt>
      <trkpt lat="41.22738" lon="1.21752">
        <ele>100.8</ele>
        <time>2022-05-20 19:45:08</time>
      </trkpt>
      <trkpt lat="41.22747" lon="1.21748">
        <ele>101</ele>
        <time>2022-05-20 19:45:09</time>
      </trkpt>
      <trkpt lat="41.22756" lon="1.21744">
        <ele>101</ele>
        <time>2022-05-20 19:45:10</time>
      </trkpt>
      <trkpt lat="41.22765" lon="1.2174">
        <ele>101</ele>
        <time>2022-05-20 19:45:11</time>
      </trkpt>
      <trkpt lat="41.22775" lon="1.21736">
        <ele>101.2</ele>
        <time>2022-05-20 19:45:12</time>
      </trkpt>
      <trkpt lat="41.22784" lon="1.21732">
        <ele>101.2</ele>
        <time>2022-05-20 19:45:13</time>
      </trkpt>
      <trkpt lat="41.22792" lon="1.21728">
        <ele>101.2</ele>
        <time>2022-05-20 19:45:14</time>
      </trkpt>
      <trkpt lat="41.22801" lon="1.21724">
        <ele>101.2</ele>
        <time>2022-05-20 19:45:15</time>
      </trkpt>
      <trkpt lat="41.2281" lon="1.2172">
        <ele>101.4</ele>
        <time>2022-05-20 19:45:16</time>
      </trkpt>
      <trkpt lat="41.22818" lon="1.21716">
        <ele>101.4</ele>
        <time>2022-05-20 19:45:17</time>
      </trkpt>
      <trkpt lat="41.22827" lon="1.21712">
        <ele>101.4</ele>
        <time>2022-05-20 19:45:18</time>
      </trkpt>
      <trkpt lat="41.22836" lon="1.21708">
        <ele>101.4</ele>
        <time>2022-05-20 19:45:19</time>
      </trkpt>
      <trkpt lat="41.22845" lon="1.21704">
        <ele>101.6</ele>
        <time>2022-05-20 19:45:20</time>
      </trkpt>
      <trkpt lat="41.22853" lon="1.217">
        <ele>101.6</ele>
        <time>2022-05-20 19:45:21</time>
      </trkpt>
      <trkpt lat="41.22862" lon="1.21696">
        <ele>101.8</ele>
        <time>2022-05-20 19:45:22</time>
      </trkpt>
      <trkpt lat="41.22871" lon="1.21692">
        <ele>101.8</ele>
        <time>2022-05-20 19:45:23</time>
      </trkpt>
      <trkpt lat="41.2288" lon="1.21688">
        <ele>102</ele>
        <time>2022-05-20 19:45:24</time>
      </trkpt>
      <trkpt lat="41.22889" lon="1.21684">
        <ele>102</ele>
        <time>2022-05-20 19:45:25</time>
      </trkpt>
      <trkpt lat="41.22897" lon="1.21679">
        <ele>102</ele>
        <time>2022-05-20 19:45:26</time>
      </trkpt>
      <trkpt lat="41.22906" lon="1.21675">
        <ele>102.2</ele>
        <time>2022-05-20 19:45:27</time>
      </trkpt>
      <trkpt lat="41.22914" lon="1.21671">
        <ele>102.2</ele>
        <time>2022-05-20 19:45:28</time>
      </trkpt>
      <trkpt lat="41.22923" lon="1.21667">
        <ele>102.2</ele>
        <time>2022-05-20 19:45:29</time>
      </trkpt>
      <trkpt lat="41.22931" lon="1.21662">
        <ele>102.2</ele>
        <time>2022-05-20 19:45:30</time>
      </trkpt>
      <trkpt lat="41.2294" lon="1.21658">
        <ele>102.4</ele>
        <time>2022-05-20 19:45:31</time>
      </trkpt>
      <trkpt lat="41.22948" lon="1.21654">
        <ele>102.6</ele>
        <time>2022-05-20 19:45:32</time>
      </trkpt>
      <trkpt lat="41.22956" lon="1.2165">
        <ele>102.6</ele>
        <time>2022-05-20 19:45:33</time>
      </trkpt>
      <trkpt lat="41.22965" lon="1.21646">
        <ele>102.6</ele>
        <time>2022-05-20 19:45:34</time>
      </trkpt>
      <trkpt lat="41.22973" lon="1.21642">
        <ele>102.8</ele>
        <time>2022-05-20 19:45:35</time>
      </trkpt>
      <trkpt lat="41.22982" lon="1.21638">
        <ele>102.8</ele>
        <time>2022-05-20 19:45:36</time>
      </trkpt>
      <trkpt lat="41.2299" lon="1.21634">
        <ele>102.8</ele>
        <time>2022-05-20 19:45:37</time>
      </trkpt>
      <trkpt lat="41.22999" lon="1.2163">
        <ele>102.8</ele>
        <time>2022-05-20 19:45:38</time>
      </trkpt>
      <trkpt lat="41.23008" lon="1.21626">
        <ele>103</ele>
        <time>2022-05-20 19:45:39</time>
      </trkpt>
      <trkpt lat="41.23016" lon="1.21622">
        <ele>103</ele>
        <time>2022-05-20 19:45:40</time>
      </trkpt>
      <trkpt lat="41.23025" lon="1.21619">
        <ele>103.2</ele>
        <time>2022-05-20 19:45:41</time>
      </trkpt>
      <trkpt lat="41.23033" lon="1.21616">
        <ele>103.2</ele>
        <time>2022-05-20 19:45:42</time>
      </trkpt>
      <trkpt lat="41.23042" lon="1.21614">
        <ele>103.2</ele>
        <time>2022-05-20 19:45:43</time>
      </trkpt>
      <trkpt lat="41.23051" lon="1.21612">
        <ele>103.2</ele>
        <time>2022-05-20 19:45:44</time>
      </trkpt>
      <trkpt lat="41.2306" lon="1.21612">
        <ele>103.4</ele>
        <time>2022-05-20 19:45:45</time>
      </trkpt>
      <trkpt lat="41.23069" lon="1.21613">
        <ele>103.4</ele>
        <time>2022-05-20 19:45:46</time>
      </trkpt>
      <trkpt lat="41.23077" lon="1.21614">
        <ele>103.4</ele>
        <time>2022-05-20 19:45:47</time>
      </trkpt>
      <trkpt lat="41.23085" lon="1.21616">
        <ele>103.6</ele>
        <time>2022-05-20 19:45:48</time>
      </trkpt>
      <trkpt lat="41.23092" lon="1.21619">
        <ele>103.6</ele>
        <time>2022-05-20 19:45:49</time>
      </trkpt>
      <trkpt lat="41.23099" lon="1.21625">
        <ele>103.6</ele>
        <time>2022-05-20 19:45:50</time>
      </trkpt>
      <trkpt lat="41.23105" lon="1.21633">
        <ele>103.6</ele>
        <time>2022-05-20 19:45:51</time>
      </trkpt>
      <trkpt lat="41.23109" lon="1.21643">
        <ele>103.6</ele>
        <time>2022-05-20 19:45:52</time>
      </trkpt>
      <trkpt lat="41.23114" lon="1.21653">
        <ele>103.4</ele>
        <time>2022-05-20 19:45:53</time>
      </trkpt>
      <trkpt lat="41.23117" lon="1.21664">
        <ele>103.4</ele>
        <time>2022-05-20 19:45:54</time>
      </trkpt>
      <trkpt lat="41.23121" lon="1.21676">
        <ele>103.2</ele>
        <time>2022-05-20 19:45:55</time>
      </trkpt>
      <trkpt lat="41.23125" lon="1.21689">
        <ele>103</ele>
        <time>2022-05-20 19:45:56</time>
      </trkpt>
      <trkpt lat="41.2313" lon="1.21701">
        <ele>102.8</ele>
        <time>2022-05-20 19:45:57</time>
      </trkpt>
      <trkpt lat="41.23134" lon="1.21713">
        <ele>102.6</ele>
        <time>2022-05-20 19:45:58</time>
      </trkpt>
      <trkpt lat="41.23139" lon="1.21725">
        <ele>102.4</ele>
        <time>2022-05-20 19:45:59</time>
      </trkpt>
      <trkpt lat="41.23143" lon="1.21736">
        <ele>102.2</ele>
        <time>2022-05-20 19:46:00</time>
      </trkpt>
      <trkpt lat="41.23148" lon="1.21748">
        <ele>102</ele>
        <time>2022-05-20 19:46:01</time>
      </trkpt>
      <trkpt lat="41.23153" lon="1.21761">
        <ele>102</ele>
        <time>2022-05-20 19:46:02</time>
      </trkpt>
      <trkpt lat="41.23157" lon="1.21774">
        <ele>101.8</ele>
        <time>2022-05-20 19:46:03</time>
      </trkpt>
      <trkpt lat="41.23162" lon="1.21786">
        <ele>101.8</ele>
        <time>2022-05-20 19:46:04</time>
      </trkpt>
      <trkpt lat="41.23166" lon="1.21798">
        <ele>101.6</ele>
        <time>2022-05-20 19:46:05</time>
      </trkpt>
      <trkpt lat="41.23171" lon="1.21811">
        <ele>101.6</ele>
        <time>2022-05-20 19:46:06</time>
      </trkpt>
      <trkpt lat="41.23175" lon="1.21823">
        <ele>101.6</ele>
        <time>2022-05-20 19:46:07</time>
      </trkpt>
      <trkpt lat="41.2318" lon="1.21835">
        <ele>101.6</ele>
        <time>2022-05-20 19:46:08</time>
      </trkpt>
      <trkpt lat="41.23185" lon="1.21847">
        <ele>101.6</ele>
        <time>2022-05-20 19:46:09</time>
      </trkpt>
      <trkpt lat="41.23189" lon="1.21859">
        <ele>101.6</ele>
        <time>2022-05-20 19:46:10</time>
      </trkpt>
      <trkpt lat="41.23194" lon="1.21872">
        <ele>101.6</ele>
        <time>2022-05-20 19:46:11</time>
      </trkpt>
      <trkpt lat="41.23198" lon="1.21884">
        <ele>101.8</ele>
        <time>2022-05-20 19:46:12</time>
      </trkpt>
      <trkpt lat="41.23203" lon="1.21896">
        <ele>101.8</ele>
        <time>2022-05-20 19:46:13</time>
      </trkpt>
      <trkpt lat="41.23207" lon="1.21908">
        <ele>101.8</ele>
        <time>2022-05-20 19:46:14</time>
      </trkpt>
      <trkpt lat="41.23212" lon="1.2192">
        <ele>101.8</ele>
        <time>2022-05-20 19:46:15</time>
      </trkpt>
      <trkpt lat="41.23217" lon="1.21932">
        <ele>101.8</ele>
        <time>2022-05-20 19:46:16</time>
      </trkpt>
      <trkpt lat="41.23221" lon="1.21943">
        <ele>101.8</ele>
        <time>2022-05-20 19:46:17</time>
      </trkpt>
      <trkpt lat="41.23225" lon="1.21955">
        <ele>101.8</ele>
        <time>2022-05-20 19:46:18</time>
      </trkpt>
      <trkpt lat="41.2323" lon="1.21966">
        <ele>101.8</ele>
        <time>2022-05-20 19:46:19</time>
      </trkpt>
      <trkpt lat="41.23234" lon="1.21978">
        <ele>101.6</ele>
        <time>2022-05-20 19:46:20</time>
      </trkpt>
      <trkpt lat="41.23239" lon="1.21989">
        <ele>101.4</ele>
        <time>2022-05-20 19:46:21</time>
      </trkpt>
      <trkpt lat="41.23243" lon="1.22">
        <ele>101.4</ele>
        <time>2022-05-20 19:46:22</time>
      </trkpt>
      <trkpt lat="41.23248" lon="1.22011">
        <ele>101.2</ele>
        <time>2022-05-20 19:46:23</time>
      </trkpt>
      <trkpt lat="41.23252" lon="1.22022">
        <ele>101.2</ele>
        <time>2022-05-20 19:46:24</time>
      </trkpt>
      <trkpt lat="41.23256" lon="1.22034">
        <ele>101.4</ele>
        <time>2022-05-20 19:46:25</time>
      </trkpt>
      <trkpt lat="41.23261" lon="1.22045">
        <ele>101.4</ele>
        <time>2022-05-20 19:46:26</time>
      </trkpt>
      <trkpt lat="41.23265" lon="1.22057">
        <ele>101.4</ele>
        <time>2022-05-20 19:46:27</time>
      </trkpt>
      <trkpt lat="41.2327" lon="1.22068">
        <ele>101.4</ele>
        <time>2022-05-20 19:46:28</time>
      </trkpt>
      <trkpt lat="41.23274" lon="1.2208">
        <ele>101.4</ele>
        <time>2022-05-20 19:46:29</time>
      </trkpt>
      <trkpt lat="41.23278" lon="1.22091">
        <ele>101.6</ele>
        <time>2022-05-20 19:46:30</time>
      </trkpt>
      <trkpt lat="41.23283" lon="1.22102">
        <ele>101.6</ele>
        <time>2022-05-20 19:46:31</time>
      </trkpt>
      <trkpt lat="41.23287" lon="1.22112">
        <ele>101.6</ele>
        <time>2022-05-20 19:46:32</time>
      </trkpt>
      <trkpt lat="41.23291" lon="1.22124">
        <ele>101.8</ele>
        <time>2022-05-20 19:46:33</time>
      </trkpt>
      <trkpt lat="41.23295" lon="1.22135">
        <ele>101.8</ele>
        <time>2022-05-20 19:46:34</time>
      </trkpt>
      <trkpt lat="41.23299" lon="1.22147">
        <ele>101.8</ele>
        <time>2022-05-20 19:46:35</time>
      </trkpt>
      <trkpt lat="41.23302" lon="1.22159">
        <ele>101.8</ele>
        <time>2022-05-20 19:46:36</time>
      </trkpt>
      <trkpt lat="41.23305" lon="1.22171">
        <ele>101.8</ele>
        <time>2022-05-20 19:46:37</time>
      </trkpt>
      <trkpt lat="41.23308" lon="1.22182">
        <ele>101.8</ele>
        <time>2022-05-20 19:46:38</time>
      </trkpt>
      <trkpt lat="41.23311" lon="1.22194">
        <ele>102</ele>
        <time>2022-05-20 19:46:39</time>
      </trkpt>
      <trkpt lat="41.23314" lon="1.22206">
        <ele>102</ele>
        <time>2022-05-20 19:46:40</time>
      </trkpt>
      <trkpt lat="41.23317" lon="1.22218">
        <ele>102</ele>
        <time>2022-05-20 19:46:41</time>
      </trkpt>
      <trkpt lat="41.23321" lon="1.22229">
        <ele>102</ele>
        <time>2022-05-20 19:46:42</time>
      </trkpt>
      <trkpt lat="41.23323" lon="1.2224">
        <ele>102</ele>
        <time>2022-05-20 19:46:43</time>
      </trkpt>
      <trkpt lat="41.23326" lon="1.22251">
        <ele>102</ele>
        <time>2022-05-20 19:46:44</time>
      </trkpt>
      <trkpt lat="41.23329" lon="1.22262">
        <ele>102</ele>
        <time>2022-05-20 19:46:45</time>
      </trkpt>
      <trkpt lat="41.23332" lon="1.22273">
        <ele>102</ele>
        <time>2022-05-20 19:46:46</time>
      </trkpt>
      <trkpt lat="41.23335" lon="1.22284">
        <ele>101.8</ele>
        <time>2022-05-20 19:46:47</time>
      </trkpt>
      <trkpt lat="41.23338" lon="1.22294">
        <ele>101.8</ele>
        <time>2022-05-20 19:46:48</time>
      </trkpt>
      <trkpt lat="41.23341" lon="1.22305">
        <ele>101.8</ele>
        <time>2022-05-20 19:46:49</time>
      </trkpt>
      <trkpt lat="41.23343" lon="1.22315">
        <ele>101.6</ele>
        <time>2022-05-20 19:46:50</time>
      </trkpt>
      <trkpt lat="41.23346" lon="1.22324">
        <ele>101.6</ele>
        <time>2022-05-20 19:46:51</time>
      </trkpt>
      <trkpt lat="41.23347" lon="1.22332">
        <ele>101.6</ele>
        <time>2022-05-20 19:46:52</time>
      </trkpt>
      <trkpt lat="41.23349" lon="1.22338">
        <ele>101.6</ele>
        <time>2022-05-20 19:46:53</time>
      </trkpt>
      <trkpt lat="41.2335" lon="1.22344">
        <ele>101.6</ele>
        <time>2022-05-20 19:46:54</time>
      </trkpt>
      <trkpt lat="41.23351" lon="1.22348">
        <ele>101.6</ele>
        <time>2022-05-20 19:46:55</time>
      </trkpt>
      <trkpt lat="41.23352" lon="1.22351">
        <ele>101.6</ele>
        <time>2022-05-20 19:46:56</time>
      </trkpt>
      <trkpt lat="41.23353" lon="1.22353">
        <ele>101.6</ele>
        <time>2022-05-20 19:46:57</time>
      </trkpt>
      <trkpt lat="41.23354" lon="1.22355">
        <ele>101.6</ele>
        <time>2022-05-20 19:46:58</time>
      </trkpt>
      <trkpt lat="41.23355" lon="1.22356">
        <ele>101.4</ele>
        <time>2022-05-20 19:46:59</time>
      </trkpt>
      <trkpt lat="41.23355" lon="1.22358">
        <ele>101.4</ele>
        <time>2022-05-20 19:47:00</time>
      </trkpt>
      <trkpt lat="41.23356" lon="1.22362">
        <ele>101.4</ele>
        <time>2022-05-20 19:47:06</time>
      </trkpt>
      <trkpt lat="41.23357" lon="1.22366">
        <ele>101.4</ele>
        <time>2022-05-20 19:47:07</time>
      </trkpt>
      <trkpt lat="41.23358" lon="1.22369">
        <ele>101.4</ele>
        <time>2022-05-20 19:47:08</time>
      </trkpt>
      <trkpt lat="41.23359" lon="1.22374">
        <ele>101.2</ele>
        <time>2022-05-20 19:47:09</time>
      </trkpt>
      <trkpt lat="41.23361" lon="1.22379">
        <ele>101.2</ele>
        <time>2022-05-20 19:47:10</time>
      </trkpt>
      <trkpt lat="41.23363" lon="1.22384">
        <ele>101.2</ele>
        <time>2022-05-20 19:47:11</time>
      </trkpt>
      <trkpt lat="41.23365" lon="1.22389">
        <ele>101</ele>
        <time>2022-05-20 19:47:12</time>
      </trkpt>
      <trkpt lat="41.23368" lon="1.22395">
        <ele>101</ele>
        <time>2022-05-20 19:47:13</time>
      </trkpt>
      <trkpt lat="41.2337" lon="1.22402">
        <ele>101</ele>
        <time>2022-05-20 19:47:14</time>
      </trkpt>
      <trkpt lat="41.23373" lon="1.22408">
        <ele>100.8</ele>
        <time>2022-05-20 19:47:15</time>
      </trkpt>
      <trkpt lat="41.23377" lon="1.22414">
        <ele>100.8</ele>
        <time>2022-05-20 19:47:16</time>
      </trkpt>
      <trkpt lat="41.23381" lon="1.22421">
        <ele>100.6</ele>
        <time>2022-05-20 19:47:17</time>
      </trkpt>
      <trkpt lat="41.23385" lon="1.22429">
        <ele>100.2</ele>
        <time>2022-05-20 19:47:18</time>
      </trkpt>
      <trkpt lat="41.23389" lon="1.22438">
        <ele>100</ele>
        <time>2022-05-20 19:47:19</time>
      </trkpt>
      <trkpt lat="41.23392" lon="1.22446">
        <ele>99.8</ele>
        <time>2022-05-20 19:47:20</time>
      </trkpt>
      <trkpt lat="41.23396" lon="1.22455">
        <ele>99.4</ele>
        <time>2022-05-20 19:47:21</time>
      </trkpt>
      <trkpt lat="41.234" lon="1.22464">
        <ele>99.2</ele>
        <time>2022-05-20 19:47:22</time>
      </trkpt>
      <trkpt lat="41.23404" lon="1.22475">
        <ele>99.2</ele>
        <time>2022-05-20 19:47:23</time>
      </trkpt>
      <trkpt lat="41.23407" lon="1.22485">
        <ele>99</ele>
        <time>2022-05-20 19:47:24</time>
      </trkpt>
      <trkpt lat="41.23409" lon="1.22495">
        <ele>98.8</ele>
        <time>2022-05-20 19:47:25</time>
      </trkpt>
      <trkpt lat="41.23412" lon="1.22505">
        <ele>98.6</ele>
        <time>2022-05-20 19:47:26</time>
      </trkpt>
      <trkpt lat="41.23415" lon="1.22516">
        <ele>98.6</ele>
        <time>2022-05-20 19:47:27</time>
      </trkpt>
      <trkpt lat="41.23417" lon="1.22528">
        <ele>98.4</ele>
        <time>2022-05-20 19:47:28</time>
      </trkpt>
      <trkpt lat="41.23419" lon="1.22539">
        <ele>98.2</ele>
        <time>2022-05-20 19:47:29</time>
      </trkpt>
      <trkpt lat="41.23421" lon="1.2255">
        <ele>98</ele>
        <time>2022-05-20 19:47:30</time>
      </trkpt>
      <trkpt lat="41.23423" lon="1.2256">
        <ele>98</ele>
        <time>2022-05-20 19:47:31</time>
      </trkpt>
      <trkpt lat="41.23426" lon="1.22571">
        <ele>98</ele>
        <time>2022-05-20 19:47:32</time>
      </trkpt>
      <trkpt lat="41.23428" lon="1.22583">
        <ele>98</ele>
        <time>2022-05-20 19:47:33</time>
      </trkpt>
      <trkpt lat="41.2343" lon="1.22593">
        <ele>97.8</ele>
        <time>2022-05-20 19:47:34</time>
      </trkpt>
      <trkpt lat="41.23433" lon="1.22606">
        <ele>97.8</ele>
        <time>2022-05-20 19:47:35</time>
      </trkpt>
      <trkpt lat="41.23436" lon="1.22617">
        <ele>97.6</ele>
        <time>2022-05-20 19:47:36</time>
      </trkpt>
      <trkpt lat="41.23438" lon="1.22629">
        <ele>97.6</ele>
        <time>2022-05-20 19:47:37</time>
      </trkpt>
      <trkpt lat="41.23441" lon="1.2264">
        <ele>97.4</ele>
        <time>2022-05-20 19:47:38</time>
      </trkpt>
      <trkpt lat="41.23444" lon="1.22651">
        <ele>97.4</ele>
        <time>2022-05-20 19:47:39</time>
      </trkpt>
      <trkpt lat="41.23446" lon="1.22662">
        <ele>97.4</ele>
        <time>2022-05-20 19:47:40</time>
      </trkpt>
      <trkpt lat="41.23448" lon="1.22673">
        <ele>97.4</ele>
        <time>2022-05-20 19:47:41</time>
      </trkpt>
      <trkpt lat="41.2345" lon="1.22684">
        <ele>97.4</ele>
        <time>2022-05-20 19:47:42</time>
      </trkpt>
      <trkpt lat="41.23451" lon="1.22696">
        <ele>97.2</ele>
        <time>2022-05-20 19:47:43</time>
      </trkpt>
      <trkpt lat="41.2345" lon="1.22707">
        <ele>97</ele>
        <time>2022-05-20 19:47:44</time>
      </trkpt>
      <trkpt lat="41.23446" lon="1.22718">
        <ele>96.6</ele>
        <time>2022-05-20 19:47:45</time>
      </trkpt>
      <trkpt lat="41.2344" lon="1.22728">
        <ele>96.2</ele>
        <time>2022-05-20 19:47:46</time>
      </trkpt>
      <trkpt lat="41.23433" lon="1.22735">
        <ele>95.6</ele>
        <time>2022-05-20 19:47:47</time>
      </trkpt>
      <trkpt lat="41.23423" lon="1.2274">
        <ele>95.4</ele>
        <time>2022-05-20 19:47:48</time>
      </trkpt>
      <trkpt lat="41.23413" lon="1.22743">
        <ele>95</ele>
        <time>2022-05-20 19:47:49</time>
      </trkpt>
      <trkpt lat="41.23402" lon="1.22744">
        <ele>94.8</ele>
        <time>2022-05-20 19:47:50</time>
      </trkpt>
      <trkpt lat="41.23392" lon="1.22747">
        <ele>94.4</ele>
        <time>2022-05-20 19:47:51</time>
      </trkpt>
      <trkpt lat="41.23382" lon="1.22751">
        <ele>94.2</ele>
        <time>2022-05-20 19:47:52</time>
      </trkpt>
      <trkpt lat="41.23372" lon="1.22757">
        <ele>93.8</ele>
        <time>2022-05-20 19:47:53</time>
      </trkpt>
      <trkpt lat="41.23364" lon="1.22765">
        <ele>93.6</ele>
        <time>2022-05-20 19:47:54</time>
      </trkpt>
      <trkpt lat="41.23358" lon="1.22776">
        <ele>93.6</ele>
        <time>2022-05-20 19:47:55</time>
      </trkpt>
      <trkpt lat="41.23353" lon="1.22789">
        <ele>93.4</ele>
        <time>2022-05-20 19:47:56</time>
      </trkpt>
      <trkpt lat="41.2335" lon="1.22802">
        <ele>93.2</ele>
        <time>2022-05-20 19:47:57</time>
      </trkpt>
      <trkpt lat="41.23347" lon="1.22815">
        <ele>93</ele>
        <time>2022-05-20 19:47:58</time>
      </trkpt>
      <trkpt lat="41.23344" lon="1.22828">
        <ele>92.8</ele>
        <time>2022-05-20 19:47:59</time>
      </trkpt>
      <trkpt lat="41.23341" lon="1.2284">
        <ele>92.8</ele>
        <time>2022-05-20 19:48:00</time>
      </trkpt>
      <trkpt lat="41.23338" lon="1.22853">
        <ele>92.8</ele>
        <time>2022-05-20 19:48:01</time>
      </trkpt>
      <trkpt lat="41.23334" lon="1.22865">
        <ele>92.8</ele>
        <time>2022-05-20 19:48:02</time>
      </trkpt>
      <trkpt lat="41.23331" lon="1.22877">
        <ele>92.8</ele>
        <time>2022-05-20 19:48:03</time>
      </trkpt>
      <trkpt lat="41.23328" lon="1.22889">
        <ele>92.8</ele>
        <time>2022-05-20 19:48:04</time>
      </trkpt>
      <trkpt lat="41.23325" lon="1.22901">
        <ele>92.8</ele>
        <time>2022-05-20 19:48:05</time>
      </trkpt>
      <trkpt lat="41.23322" lon="1.22913">
        <ele>92.8</ele>
        <time>2022-05-20 19:48:06</time>
      </trkpt>
      <trkpt lat="41.23319" lon="1.22925">
        <ele>92.8</ele>
        <time>2022-05-20 19:48:07</time>
      </trkpt>
      <trkpt lat="41.23318" lon="1.22937">
        <ele>93</ele>
        <time>2022-05-20 19:48:08</time>
      </trkpt>
      <trkpt lat="41.23318" lon="1.22949">
        <ele>93.2</ele>
        <time>2022-05-20 19:48:09</time>
      </trkpt>
      <trkpt lat="41.23319" lon="1.22961">
        <ele>93.4</ele>
        <time>2022-05-20 19:48:10</time>
      </trkpt>
      <trkpt lat="41.2332" lon="1.22972">
        <ele>93.6</ele>
        <time>2022-05-20 19:48:11</time>
      </trkpt>
      <trkpt lat="41.23321" lon="1.22983">
        <ele>94</ele>
        <time>2022-05-20 19:48:12</time>
      </trkpt>
      <trkpt lat="41.23322" lon="1.22994">
        <ele>94.2</ele>
        <time>2022-05-20 19:48:13</time>
      </trkpt>
      <trkpt lat="41.23323" lon="1.23004">
        <ele>94.6</ele>
        <time>2022-05-20 19:48:14</time>
      </trkpt>
      <trkpt lat="41.23324" lon="1.23015">
        <ele>95</ele>
        <time>2022-05-20 19:48:15</time>
      </trkpt>
      <trkpt lat="41.23325" lon="1.23025">
        <ele>95.4</ele>
        <time>2022-05-20 19:48:16</time>
      </trkpt>
      <trkpt lat="41.23326" lon="1.23034">
        <ele>95.6</ele>
        <time>2022-05-20 19:48:17</time>
      </trkpt>
      <trkpt lat="41.23328" lon="1.23044">
        <ele>96.2</ele>
        <time>2022-05-20 19:48:18</time>
      </trkpt>
      <trkpt lat="41.23329" lon="1.23053">
        <ele>96.6</ele>
        <time>2022-05-20 19:48:19</time>
      </trkpt>
      <trkpt lat="41.2333" lon="1.23062">
        <ele>96.8</ele>
        <time>2022-05-20 19:48:20</time>
      </trkpt>
      <trkpt lat="41.23331" lon="1.23071">
        <ele>97.2</ele>
        <time>2022-05-20 19:48:21</time>
      </trkpt>
      <trkpt lat="41.23333" lon="1.23079">
        <ele>97.6</ele>
        <time>2022-05-20 19:48:22</time>
      </trkpt>
      <trkpt lat="41.23334" lon="1.23088">
        <ele>98</ele>
        <time>2022-05-20 19:48:23</time>
      </trkpt>
      <trkpt lat="41.23336" lon="1.23096">
        <ele>98.2</ele>
        <time>2022-05-20 19:48:24</time>
      </trkpt>
      <trkpt lat="41.23338" lon="1.23105">
        <ele>98.6</ele>
        <time>2022-05-20 19:48:25</time>
      </trkpt>
      <trkpt lat="41.23341" lon="1.23113">
        <ele>99</ele>
        <time>2022-05-20 19:48:26</time>
      </trkpt>
      <trkpt lat="41.23344" lon="1.23121">
        <ele>99.2</ele>
        <time>2022-05-20 19:48:27</time>
      </trkpt>
      <trkpt lat="41.23347" lon="1.23128">
        <ele>99.6</ele>
        <time>2022-05-20 19:48:28</time>
      </trkpt>
      <trkpt lat="41.23351" lon="1.23135">
        <ele>100</ele>
        <time>2022-05-20 19:48:29</time>
      </trkpt>
      <trkpt lat="41.23355" lon="1.23141">
        <ele>100.4</ele>
        <time>2022-05-20 19:48:30</time>
      </trkpt>
      <trkpt lat="41.2336" lon="1.23146">
        <ele>100.8</ele>
        <time>2022-05-20 19:48:31</time>
      </trkpt>
      <trkpt lat="41.23364" lon="1.23151">
        <ele>101.2</ele>
        <time>2022-05-20 19:48:32</time>
      </trkpt>
      <trkpt lat="41.2337" lon="1.23155">
        <ele>101.4</ele>
        <time>2022-05-20 19:48:33</time>
      </trkpt>
      <trkpt lat="41.23375" lon="1.23159">
        <ele>101.8</ele>
        <time>2022-05-20 19:48:34</time>
      </trkpt>
      <trkpt lat="41.23381" lon="1.23163">
        <ele>102.2</ele>
        <time>2022-05-20 19:48:35</time>
      </trkpt>
      <trkpt lat="41.23386" lon="1.23166">
        <ele>102.4</ele>
        <time>2022-05-20 19:48:36</time>
      </trkpt>
      <trkpt lat="41.23391" lon="1.23169">
        <ele>102.8</ele>
        <time>2022-05-20 19:48:37</time>
      </trkpt>
      <trkpt lat="41.23396" lon="1.23173">
        <ele>103</ele>
        <time>2022-05-20 19:48:38</time>
      </trkpt>
      <trkpt lat="41.23402" lon="1.23176">
        <ele>103.4</ele>
        <time>2022-05-20 19:48:39</time>
      </trkpt>
      <trkpt lat="41.23407" lon="1.23179">
        <ele>103.6</ele>
        <time>2022-05-20 19:48:40</time>
      </trkpt>
      <trkpt lat="41.23413" lon="1.23182">
        <ele>103.8</ele>
        <time>2022-05-20 19:48:41</time>
      </trkpt>
      <trkpt lat="41.23417" lon="1.23186">
        <ele>104.2</ele>
        <time>2022-05-20 19:48:42</time>
      </trkpt>
      <trkpt lat="41.23423" lon="1.2319">
        <ele>104.4</ele>
        <time>2022-05-20 19:48:43</time>
      </trkpt>
      <trkpt lat="41.23427" lon="1.23194">
        <ele>104.8</ele>
        <time>2022-05-20 19:48:44</time>
      </trkpt>
      <trkpt lat="41.23431" lon="1.232">
        <ele>105</ele>
        <time>2022-05-20 19:48:45</time>
      </trkpt>
      <trkpt lat="41.23435" lon="1.23205">
        <ele>105.2</ele>
        <time>2022-05-20 19:48:46</time>
      </trkpt>
      <trkpt lat="41.23438" lon="1.23211">
        <ele>105.6</ele>
        <time>2022-05-20 19:48:47</time>
      </trkpt>
      <trkpt lat="41.2344" lon="1.23218">
        <ele>105.8</ele>
        <time>2022-05-20 19:48:48</time>
      </trkpt>
      <trkpt lat="41.23441" lon="1.23225">
        <ele>106.2</ele>
        <time>2022-05-20 19:48:49</time>
      </trkpt>
      <trkpt lat="41.2344" lon="1.23232">
        <ele>106.6</ele>
        <time>2022-05-20 19:48:50</time>
      </trkpt>
      <trkpt lat="41.23439" lon="1.23239">
        <ele>107</ele>
        <time>2022-05-20 19:48:51</time>
      </trkpt>
      <trkpt lat="41.23437" lon="1.23245">
        <ele>107.2</ele>
        <time>2022-05-20 19:48:52</time>
      </trkpt>
      <trkpt lat="41.23435" lon="1.23251">
        <ele>107.6</ele>
        <time>2022-05-20 19:48:53</time>
      </trkpt>
      <trkpt lat="41.23433" lon="1.23256">
        <ele>108</ele>
        <time>2022-05-20 19:48:54</time>
      </trkpt>
      <trkpt lat="41.2343" lon="1.23262">
        <ele>108.2</ele>
        <time>2022-05-20 19:48:55</time>
      </trkpt>
      <trkpt lat="41.23428" lon="1.23267">
        <ele>108.6</ele>
        <time>2022-05-20 19:48:56</time>
      </trkpt>
      <trkpt lat="41.23425" lon="1.23272">
        <ele>109</ele>
        <time>2022-05-20 19:48:57</time>
      </trkpt>
      <trkpt lat="41.23422" lon="1.23277">
        <ele>109.4</ele>
        <time>2022-05-20 19:48:58</time>
      </trkpt>
      <trkpt lat="41.23419" lon="1.23282">
        <ele>109.6</ele>
        <time>2022-05-20 19:48:59</time>
      </trkpt>
      <trkpt lat="41.23416" lon="1.23287">
        <ele>110</ele>
        <time>2022-05-20 19:49:00</time>
      </trkpt>
      <trkpt lat="41.23413" lon="1.23292">
        <ele>110.2</ele>
        <time>2022-05-20 19:49:01</time>
      </trkpt>
      <trkpt lat="41.2341" lon="1.23297">
        <ele>110.6</ele>
        <time>2022-05-20 19:49:02</time>
      </trkpt>
      <trkpt lat="41.23407" lon="1.23302">
        <ele>110.8</ele>
        <time>2022-05-20 19:49:03</time>
      </trkpt>
      <trkpt lat="41.23404" lon="1.23307">
        <ele>111.2</ele>
        <time>2022-05-20 19:49:04</time>
      </trkpt>
      <trkpt lat="41.23401" lon="1.23312">
        <ele>111.4</ele>
        <time>2022-05-20 19:49:05</time>
      </trkpt>
      <trkpt lat="41.23398" lon="1.23318">
        <ele>111.8</ele>
        <time>2022-05-20 19:49:06</time>
      </trkpt>
      <trkpt lat="41.23395" lon="1.23323">
        <ele>112.2</ele>
        <time>2022-05-20 19:49:07</time>
      </trkpt>
      <trkpt lat="41.23392" lon="1.23328">
        <ele>112.4</ele>
        <time>2022-05-20 19:49:08</time>
      </trkpt>
      <trkpt lat="41.2339" lon="1.23334">
        <ele>112.8</ele>
        <time>2022-05-20 19:49:09</time>
      </trkpt>
      <trkpt lat="41.23387" lon="1.2334">
        <ele>113.2</ele>
        <time>2022-05-20 19:49:10</time>
      </trkpt>
      <trkpt lat="41.23385" lon="1.23345">
        <ele>113.4</ele>
        <time>2022-05-20 19:49:11</time>
      </trkpt>
      <trkpt lat="41.23383" lon="1.23351">
        <ele>113.6</ele>
        <time>2022-05-20 19:49:12</time>
      </trkpt>
      <trkpt lat="41.23381" lon="1.23356">
        <ele>114</ele>
        <time>2022-05-20 19:49:13</time>
      </trkpt>
      <trkpt lat="41.2338" lon="1.23362">
        <ele>114.4</ele>
        <time>2022-05-20 19:49:14</time>
      </trkpt>
      <trkpt lat="41.2338" lon="1.23368">
        <ele>114.6</ele>
        <time>2022-05-20 19:49:15</time>
      </trkpt>
      <trkpt lat="41.23379" lon="1.23374">
        <ele>115</ele>
        <time>2022-05-20 19:49:16</time>
      </trkpt>
      <trkpt lat="41.23378" lon="1.2338">
        <ele>115.2</ele>
        <time>2022-05-20 19:49:17</time>
      </trkpt>
      <trkpt lat="41.23378" lon="1.23386">
        <ele>115.6</ele>
        <time>2022-05-20 19:49:18</time>
      </trkpt>
      <trkpt lat="41.23377" lon="1.23392">
        <ele>116</ele>
        <time>2022-05-20 19:49:19</time>
      </trkpt>
      <trkpt lat="41.23377" lon="1.23399">
        <ele>116.2</ele>
        <time>2022-05-20 19:49:20</time>
      </trkpt>
      <trkpt lat="41.23378" lon="1.23405">
        <ele>116.6</ele>
        <time>2022-05-20 19:49:21</time>
      </trkpt>
      <trkpt lat="41.23378" lon="1.23411">
        <ele>116.8</ele>
        <time>2022-05-20 19:49:22</time>
      </trkpt>
      <trkpt lat="41.23378" lon="1.23417">
        <ele>117.2</ele>
        <time>2022-05-20 19:49:23</time>
      </trkpt>
      <trkpt lat="41.23378" lon="1.23423">
        <ele>117.4</ele>
        <time>2022-05-20 19:49:24</time>
      </trkpt>
      <trkpt lat="41.23378" lon="1.23429">
        <ele>117.8</ele>
        <time>2022-05-20 19:49:25</time>
      </trkpt>
      <trkpt lat="41.23378" lon="1.23434">
        <ele>118</ele>
        <time>2022-05-20 19:49:26</time>
      </trkpt>
      <trkpt lat="41.23378" lon="1.2344">
        <ele>118.4</ele>
        <time>2022-05-20 19:49:27</time>
      </trkpt>
      <trkpt lat="41.23378" lon="1.23446">
        <ele>118.6</ele>
        <time>2022-05-20 19:49:28</time>
      </trkpt>
      <trkpt lat="41.23378" lon="1.23452">
        <ele>119</ele>
        <time>2022-05-20 19:49:29</time>
      </trkpt>
      <trkpt lat="41.23379" lon="1.23457">
        <ele>119.2</ele>
        <time>2022-05-20 19:49:30</time>
      </trkpt>
      <trkpt lat="41.23379" lon="1.23463">
        <ele>119.6</ele>
        <time>2022-05-20 19:49:31</time>
      </trkpt>
      <trkpt lat="41.23379" lon="1.23469">
        <ele>119.8</ele>
        <time>2022-05-20 19:49:32</time>
      </trkpt>
      <trkpt lat="41.2338" lon="1.23475">
        <ele>120.2</ele>
        <time>2022-05-20 19:49:33</time>
      </trkpt>
      <trkpt lat="41.2338" lon="1.23481">
        <ele>120.4</ele>
        <time>2022-05-20 19:49:34</time>
      </trkpt>
      <trkpt lat="41.2338" lon="1.23487">
        <ele>120.6</ele>
        <time>2022-05-20 19:49:35</time>
      </trkpt>
      <trkpt lat="41.2338" lon="1.23493">
        <ele>121</ele>
        <time>2022-05-20 19:49:36</time>
      </trkpt>
      <trkpt lat="41.2338" lon="1.23499">
        <ele>121.2</ele>
        <time>2022-05-20 19:49:37</time>
      </trkpt>
      <trkpt lat="41.2338" lon="1.23506">
        <ele>121.4</ele>
        <time>2022-05-20 19:49:38</time>
      </trkpt>
      <trkpt lat="41.2338" lon="1.23512">
        <ele>121.6</ele>
        <time>2022-05-20 19:49:39</time>
      </trkpt>
      <trkpt lat="41.23381" lon="1.23518">
        <ele>122</ele>
        <time>2022-05-20 19:49:40</time>
      </trkpt>
      <trkpt lat="41.23381" lon="1.23524">
        <ele>122.2</ele>
        <time>2022-05-20 19:49:41</time>
      </trkpt>
      <trkpt lat="41.23381" lon="1.2353">
        <ele>122.6</ele>
        <time>2022-05-20 19:49:42</time>
      </trkpt>
      <trkpt lat="41.23381" lon="1.23536">
        <ele>122.8</ele>
        <time>2022-05-20 19:49:43</time>
      </trkpt>
      <trkpt lat="41.23381" lon="1.23542">
        <ele>123</ele>
        <time>2022-05-20 19:49:44</time>
      </trkpt>
      <trkpt lat="41.23382" lon="1.23549">
        <ele>123.4</ele>
        <time>2022-05-20 19:49:45</time>
      </trkpt>
      <trkpt lat="41.23382" lon="1.23555">
        <ele>123.8</ele>
        <time>2022-05-20 19:49:46</time>
      </trkpt>
      <trkpt lat="41.23382" lon="1.23562">
        <ele>124</ele>
        <time>2022-05-20 19:49:47</time>
      </trkpt>
      <trkpt lat="41.23383" lon="1.23568">
        <ele>124.2</ele>
        <time>2022-05-20 19:49:48</time>
      </trkpt>
      <trkpt lat="41.23383" lon="1.23575">
        <ele>124.4</ele>
        <time>2022-05-20 19:49:49</time>
      </trkpt>
      <trkpt lat="41.23383" lon="1.23581">
        <ele>124.6</ele>
        <time>2022-05-20 19:49:50</time>
      </trkpt>
      <trkpt lat="41.23384" lon="1.23588">
        <ele>124.8</ele>
        <time>2022-05-20 19:49:51</time>
      </trkpt>
      <trkpt lat="41.23385" lon="1.23595">
        <ele>125</ele>
        <time>2022-05-20 19:49:52</time>
      </trkpt>
      <trkpt lat="41.23386" lon="1.23602">
        <ele>125.2</ele>
        <time>2022-05-20 19:49:53</time>
      </trkpt>
      <trkpt lat="41.23387" lon="1.23609">
        <ele>125.2</ele>
        <time>2022-05-20 19:49:54</time>
      </trkpt>
      <trkpt lat="41.23389" lon="1.23616">
        <ele>125.4</ele>
        <time>2022-05-20 19:49:55</time>
      </trkpt>
      <trkpt lat="41.2339" lon="1.23624">
        <ele>125.6</ele>
        <time>2022-05-20 19:49:56</time>
      </trkpt>
      <trkpt lat="41.23392" lon="1.23631">
        <ele>125.8</ele>
        <time>2022-05-20 19:49:57</time>
      </trkpt>
      <trkpt lat="41.23395" lon="1.23638">
        <ele>126</ele>
        <time>2022-05-20 19:49:58</time>
      </trkpt>
      <trkpt lat="41.23397" lon="1.23645">
        <ele>126.2</ele>
        <time>2022-05-20 19:49:59</time>
      </trkpt>
      <trkpt lat="41.23399" lon="1.23653">
        <ele>126.4</ele>
        <time>2022-05-20 19:50:00</time>
      </trkpt>
      <trkpt lat="41.23402" lon="1.2366">
        <ele>126.6</ele>
        <time>2022-05-20 19:50:01</time>
      </trkpt>
      <trkpt lat="41.23404" lon="1.23668">
        <ele>126.8</ele>
        <time>2022-05-20 19:50:02</time>
      </trkpt>
      <trkpt lat="41.23407" lon="1.23675">
        <ele>126.8</ele>
        <time>2022-05-20 19:50:03</time>
      </trkpt>
      <trkpt lat="41.2341" lon="1.23683">
        <ele>127</ele>
        <time>2022-05-20 19:50:04</time>
      </trkpt>
      <trkpt lat="41.23412" lon="1.2369">
        <ele>127.2</ele>
        <time>2022-05-20 19:50:05</time>
      </trkpt>
      <trkpt lat="41.23415" lon="1.23698">
        <ele>127.4</ele>
        <time>2022-05-20 19:50:06</time>
      </trkpt>
      <trkpt lat="41.23418" lon="1.23705">
        <ele>127.6</ele>
        <time>2022-05-20 19:50:07</time>
      </trkpt>
      <trkpt lat="41.2342" lon="1.23712">
        <ele>127.8</ele>
        <time>2022-05-20 19:50:08</time>
      </trkpt>
      <trkpt lat="41.23423" lon="1.23719">
        <ele>128</ele>
        <time>2022-05-20 19:50:09</time>
      </trkpt>
      <trkpt lat="41.23425" lon="1.23727">
        <ele>128.2</ele>
        <time>2022-05-20 19:50:10</time>
      </trkpt>
      <trkpt lat="41.23428" lon="1.23734">
        <ele>128.2</ele>
        <time>2022-05-20 19:50:11</time>
      </trkpt>
      <trkpt lat="41.23431" lon="1.23742">
        <ele>128.4</ele>
        <time>2022-05-20 19:50:12</time>
      </trkpt>
      <trkpt lat="41.23434" lon="1.23749">
        <ele>128.6</ele>
        <time>2022-05-20 19:50:13</time>
      </trkpt>
      <trkpt lat="41.23437" lon="1.23757">
        <ele>128.6</ele>
        <time>2022-05-20 19:50:14</time>
      </trkpt>
      <trkpt lat="41.2344" lon="1.23765">
        <ele>128.8</ele>
        <time>2022-05-20 19:50:15</time>
      </trkpt>
      <trkpt lat="41.23442" lon="1.23772">
        <ele>129</ele>
        <time>2022-05-20 19:50:16</time>
      </trkpt>
      <trkpt lat="41.23445" lon="1.2378">
        <ele>129.2</ele>
        <time>2022-05-20 19:50:17</time>
      </trkpt>
      <trkpt lat="41.23448" lon="1.23789">
        <ele>129.4</ele>
        <time>2022-05-20 19:50:18</time>
      </trkpt>
      <trkpt lat="41.23452" lon="1.23797">
        <ele>129.6</ele>
        <time>2022-05-20 19:50:19</time>
      </trkpt>
      <trkpt lat="41.23454" lon="1.23805">
        <ele>129.6</ele>
        <time>2022-05-20 19:50:20</time>
      </trkpt>
      <trkpt lat="41.23457" lon="1.23813">
        <ele>129.8</ele>
        <time>2022-05-20 19:50:21</time>
      </trkpt>
      <trkpt lat="41.2346" lon="1.23821">
        <ele>129.8</ele>
        <time>2022-05-20 19:50:22</time>
      </trkpt>
      <trkpt lat="41.23463" lon="1.2383">
        <ele>129.8</ele>
        <time>2022-05-20 19:50:23</time>
      </trkpt>
      <trkpt lat="41.23467" lon="1.23838">
        <ele>129.8</ele>
        <time>2022-05-20 19:50:24</time>
      </trkpt>
      <trkpt lat="41.2347" lon="1.23847">
        <ele>129.8</ele>
        <time>2022-05-20 19:50:25</time>
      </trkpt>
      <trkpt lat="41.23473" lon="1.23855">
        <ele>129.8</ele>
        <time>2022-05-20 19:50:26</time>
      </trkpt>
      <trkpt lat="41.23476" lon="1.23864">
        <ele>129.8</ele>
        <time>2022-05-20 19:50:27</time>
      </trkpt>
      <trkpt lat="41.2348" lon="1.23873">
        <ele>129.8</ele>
        <time>2022-05-20 19:50:28</time>
      </trkpt>
      <trkpt lat="41.23483" lon="1.23883">
        <ele>129.8</ele>
        <time>2022-05-20 19:50:29</time>
      </trkpt>
      <trkpt lat="41.23487" lon="1.23892">
        <ele>129.8</ele>
        <time>2022-05-20 19:50:30</time>
      </trkpt>
      <trkpt lat="41.2349" lon="1.23902">
        <ele>129.8</ele>
        <time>2022-05-20 19:50:31</time>
      </trkpt>
      <trkpt lat="41.23494" lon="1.23911">
        <ele>129.8</ele>
        <time>2022-05-20 19:50:32</time>
      </trkpt>
      <trkpt lat="41.23497" lon="1.23921">
        <ele>129.8</ele>
        <time>2022-05-20 19:50:33</time>
      </trkpt>
      <trkpt lat="41.23502" lon="1.2393">
        <ele>129.6</ele>
        <time>2022-05-20 19:50:34</time>
      </trkpt>
      <trkpt lat="41.23505" lon="1.2394">
        <ele>129.6</ele>
        <time>2022-05-20 19:50:35</time>
      </trkpt>
      <trkpt lat="41.2351" lon="1.23949">
        <ele>129.6</ele>
        <time>2022-05-20 19:50:36</time>
      </trkpt>
      <trkpt lat="41.23515" lon="1.23958">
        <ele>129.4</ele>
        <time>2022-05-20 19:50:37</time>
      </trkpt>
      <trkpt lat="41.2352" lon="1.23968">
        <ele>129.4</ele>
        <time>2022-05-20 19:50:38</time>
      </trkpt>
      <trkpt lat="41.23525" lon="1.23977">
        <ele>129.4</ele>
        <time>2022-05-20 19:50:39</time>
      </trkpt>
      <trkpt lat="41.2353" lon="1.23986">
        <ele>129.4</ele>
        <time>2022-05-20 19:50:40</time>
      </trkpt>
      <trkpt lat="41.23536" lon="1.23995">
        <ele>129.2</ele>
        <time>2022-05-20 19:50:41</time>
      </trkpt>
      <trkpt lat="41.23542" lon="1.24003">
        <ele>129.4</ele>
        <time>2022-05-20 19:50:42</time>
      </trkpt>
      <trkpt lat="41.23548" lon="1.24012">
        <ele>129.4</ele>
        <time>2022-05-20 19:50:43</time>
      </trkpt>
      <trkpt lat="41.23555" lon="1.24019">
        <ele>129.2</ele>
        <time>2022-05-20 19:50:44</time>
      </trkpt>
      <trkpt lat="41.23562" lon="1.24027">
        <ele>129.2</ele>
        <time>2022-05-20 19:50:45</time>
      </trkpt>
      <trkpt lat="41.23569" lon="1.24033">
        <ele>129.2</ele>
        <time>2022-05-20 19:50:46</time>
      </trkpt>
      <trkpt lat="41.23577" lon="1.24038">
        <ele>129.2</ele>
        <time>2022-05-20 19:50:47</time>
      </trkpt>
      <trkpt lat="41.23585" lon="1.24043">
        <ele>129.2</ele>
        <time>2022-05-20 19:50:48</time>
      </trkpt>
      <trkpt lat="41.23593" lon="1.24048">
        <ele>129.2</ele>
        <time>2022-05-20 19:50:49</time>
      </trkpt>
      <trkpt lat="41.23601" lon="1.24053">
        <ele>129.2</ele>
        <time>2022-05-20 19:50:50</time>
      </trkpt>
      <trkpt lat="41.23609" lon="1.24058">
        <ele>129.2</ele>
        <time>2022-05-20 19:50:51</time>
      </trkpt>
      <trkpt lat="41.23617" lon="1.24063">
        <ele>129.2</ele>
        <time>2022-05-20 19:50:52</time>
      </trkpt>
      <trkpt lat="41.23626" lon="1.24069">
        <ele>129</ele>
        <time>2022-05-20 19:50:53</time>
      </trkpt>
      <trkpt lat="41.23633" lon="1.24074">
        <ele>129.2</ele>
        <time>2022-05-20 19:50:54</time>
      </trkpt>
      <trkpt lat="41.23641" lon="1.24079">
        <ele>129.2</ele>
        <time>2022-05-20 19:50:55</time>
      </trkpt>
      <trkpt lat="41.2365" lon="1.24085">
        <ele>129.2</ele>
        <time>2022-05-20 19:50:56</time>
      </trkpt>
      <trkpt lat="41.23658" lon="1.24091">
        <ele>129.2</ele>
        <time>2022-05-20 19:50:57</time>
      </trkpt>
      <trkpt lat="41.23666" lon="1.24098">
        <ele>129.2</ele>
        <time>2022-05-20 19:50:58</time>
      </trkpt>
      <trkpt lat="41.23673" lon="1.24105">
        <ele>129.4</ele>
        <time>2022-05-20 19:50:59</time>
      </trkpt>
      <trkpt lat="41.2368" lon="1.24113">
        <ele>129.4</ele>
        <time>2022-05-20 19:51:00</time>
      </trkpt>
      <trkpt lat="41.23685" lon="1.2412">
        <ele>129.6</ele>
        <time>2022-05-20 19:51:01</time>
      </trkpt>
      <trkpt lat="41.23691" lon="1.24128">
        <ele>129.8</ele>
        <time>2022-05-20 19:51:02</time>
      </trkpt>
      <trkpt lat="41.23699" lon="1.24137">
        <ele>130</ele>
        <time>2022-05-20 19:51:03</time>
      </trkpt>
      <trkpt lat="41.23705" lon="1.24145">
        <ele>130.2</ele>
        <time>2022-05-20 19:51:04</time>
      </trkpt>
      <trkpt lat="41.23711" lon="1.24152">
        <ele>130.4</ele>
        <time>2022-05-20 19:51:05</time>
      </trkpt>
      <trkpt lat="41.23717" lon="1.2416">
        <ele>130.4</ele>
        <time>2022-05-20 19:51:06</time>
      </trkpt>
      <trkpt lat="41.23724" lon="1.24168">
        <ele>130.6</ele>
        <time>2022-05-20 19:51:07</time>
      </trkpt>
      <trkpt lat="41.23731" lon="1.24175">
        <ele>130.8</ele>
        <time>2022-05-20 19:51:08</time>
      </trkpt>
      <trkpt lat="41.23738" lon="1.24181">
        <ele>131</ele>
        <time>2022-05-20 19:51:09</time>
      </trkpt>
      <trkpt lat="41.23745" lon="1.24188">
        <ele>131.2</ele>
        <time>2022-05-20 19:51:10</time>
      </trkpt>
      <trkpt lat="41.23752" lon="1.24195">
        <ele>131.4</ele>
        <time>2022-05-20 19:51:11</time>
      </trkpt>
      <trkpt lat="41.23758" lon="1.24202">
        <ele>131.4</ele>
        <time>2022-05-20 19:51:12</time>
      </trkpt>
      <trkpt lat="41.23764" lon="1.24209">
        <ele>131.6</ele>
        <time>2022-05-20 19:51:13</time>
      </trkpt>
      <trkpt lat="41.23772" lon="1.24216">
        <ele>131.8</ele>
        <time>2022-05-20 19:51:14</time>
      </trkpt>
      <trkpt lat="41.23778" lon="1.24223">
        <ele>132</ele>
        <time>2022-05-20 19:51:15</time>
      </trkpt>
      <trkpt lat="41.23785" lon="1.2423">
        <ele>132.2</ele>
        <time>2022-05-20 19:51:16</time>
      </trkpt>
      <trkpt lat="41.23791" lon="1.24236">
        <ele>132.4</ele>
        <time>2022-05-20 19:51:17</time>
      </trkpt>
      <trkpt lat="41.23798" lon="1.24243">
        <ele>132.6</ele>
        <time>2022-05-20 19:51:18</time>
      </trkpt>
      <trkpt lat="41.23804" lon="1.24249">
        <ele>132.8</ele>
        <time>2022-05-20 19:51:19</time>
      </trkpt>
      <trkpt lat="41.23811" lon="1.24256">
        <ele>132.8</ele>
        <time>2022-05-20 19:51:20</time>
      </trkpt>
      <trkpt lat="41.23817" lon="1.24263">
        <ele>133</ele>
        <time>2022-05-20 19:51:21</time>
      </trkpt>
      <trkpt lat="41.23823" lon="1.2427">
        <ele>133.2</ele>
        <time>2022-05-20 19:51:22</time>
      </trkpt>
      <trkpt lat="41.2383" lon="1.24277">
        <ele>133.4</ele>
        <time>2022-05-20 19:51:23</time>
      </trkpt>
      <trkpt lat="41.23836" lon="1.24285">
        <ele>133.6</ele>
        <time>2022-05-20 19:51:24</time>
      </trkpt>
      <trkpt lat="41.23842" lon="1.24292">
        <ele>133.6</ele>
        <time>2022-05-20 19:51:25</time>
      </trkpt>
      <trkpt lat="41.23848" lon="1.243">
        <ele>133.8</ele>
        <time>2022-05-20 19:51:26</time>
      </trkpt>
      <trkpt lat="41.23854" lon="1.24309">
        <ele>133.8</ele>
        <time>2022-05-20 19:51:27</time>
      </trkpt>
      <trkpt lat="41.23861" lon="1.24317">
        <ele>133.8</ele>
        <time>2022-05-20 19:51:28</time>
      </trkpt>
      <trkpt lat="41.23867" lon="1.24326">
        <ele>134</ele>
        <time>2022-05-20 19:51:29</time>
      </trkpt>
      <trkpt lat="41.23872" lon="1.24334">
        <ele>134</ele>
        <time>2022-05-20 19:51:30</time>
      </trkpt>
      <trkpt lat="41.23878" lon="1.24342">
        <ele>134.2</ele>
        <time>2022-05-20 19:51:31</time>
      </trkpt>
      <trkpt lat="41.23883" lon="1.2435">
        <ele>134.2</ele>
        <time>2022-05-20 19:51:32</time>
      </trkpt>
      <trkpt lat="41.23889" lon="1.24358">
        <ele>134.4</ele>
        <time>2022-05-20 19:51:33</time>
      </trkpt>
      <trkpt lat="41.23894" lon="1.24366">
        <ele>134.4</ele>
        <time>2022-05-20 19:51:34</time>
      </trkpt>
      <trkpt lat="41.23901" lon="1.24374">
        <ele>134.6</ele>
        <time>2022-05-20 19:51:35</time>
      </trkpt>
      <trkpt lat="41.23906" lon="1.24382">
        <ele>134.6</ele>
        <time>2022-05-20 19:51:36</time>
      </trkpt>
      <trkpt lat="41.23911" lon="1.2439">
        <ele>134.8</ele>
        <time>2022-05-20 19:51:37</time>
      </trkpt>
      <trkpt lat="41.23917" lon="1.24398">
        <ele>134.8</ele>
        <time>2022-05-20 19:51:38</time>
      </trkpt>
      <trkpt lat="41.23923" lon="1.24406">
        <ele>135</ele>
        <time>2022-05-20 19:51:39</time>
      </trkpt>
      <trkpt lat="41.23928" lon="1.24414">
        <ele>135.2</ele>
        <time>2022-05-20 19:51:40</time>
      </trkpt>
      <trkpt lat="41.23934" lon="1.24421">
        <ele>135.2</ele>
        <time>2022-05-20 19:51:41</time>
      </trkpt>
      <trkpt lat="41.2394" lon="1.24429">
        <ele>135.4</ele>
        <time>2022-05-20 19:51:42</time>
      </trkpt>
      <trkpt lat="41.23946" lon="1.24438">
        <ele>135.6</ele>
        <time>2022-05-20 19:51:43</time>
      </trkpt>
      <trkpt lat="41.23952" lon="1.24446">
        <ele>135.8</ele>
        <time>2022-05-20 19:51:44</time>
      </trkpt>
      <trkpt lat="41.23959" lon="1.24455">
        <ele>136</ele>
        <time>2022-05-20 19:51:45</time>
      </trkpt>
      <trkpt lat="41.23965" lon="1.24463">
        <ele>136</ele>
        <time>2022-05-20 19:51:46</time>
      </trkpt>
      <trkpt lat="41.23971" lon="1.24471">
        <ele>136</ele>
        <time>2022-05-20 19:51:47</time>
      </trkpt>
      <trkpt lat="41.23977" lon="1.24479">
        <ele>136.2</ele>
        <time>2022-05-20 19:51:48</time>
      </trkpt>
      <trkpt lat="41.23982" lon="1.24487">
        <ele>136.2</ele>
        <time>2022-05-20 19:51:49</time>
      </trkpt>
      <trkpt lat="41.23989" lon="1.24495">
        <ele>136.4</ele>
        <time>2022-05-20 19:51:50</time>
      </trkpt>
      <trkpt lat="41.23994" lon="1.24503">
        <ele>136.4</ele>
        <time>2022-05-20 19:51:51</time>
      </trkpt>
      <trkpt lat="41.24" lon="1.24511">
        <ele>136.6</ele>
        <time>2022-05-20 19:51:52</time>
      </trkpt>
      <trkpt lat="41.24006" lon="1.24519">
        <ele>136.8</ele>
        <time>2022-05-20 19:51:53</time>
      </trkpt>
      <trkpt lat="41.24012" lon="1.24527">
        <ele>136.8</ele>
        <time>2022-05-20 19:51:54</time>
      </trkpt>
      <trkpt lat="41.24017" lon="1.24535">
        <ele>137</ele>
        <time>2022-05-20 19:51:55</time>
      </trkpt>
      <trkpt lat="41.24023" lon="1.24543">
        <ele>137.2</ele>
        <time>2022-05-20 19:51:56</time>
      </trkpt>
      <trkpt lat="41.24028" lon="1.24551">
        <ele>137.2</ele>
        <time>2022-05-20 19:51:57</time>
      </trkpt>
      <trkpt lat="41.24033" lon="1.24559">
        <ele>137.4</ele>
        <time>2022-05-20 19:51:58</time>
      </trkpt>
      <trkpt lat="41.24038" lon="1.24567">
        <ele>137.4</ele>
        <time>2022-05-20 19:51:59</time>
      </trkpt>
      <trkpt lat="41.24044" lon="1.24574">
        <ele>137.6</ele>
        <time>2022-05-20 19:52:00</time>
      </trkpt>
      <trkpt lat="41.24049" lon="1.24582">
        <ele>137.8</ele>
        <time>2022-05-20 19:52:01</time>
      </trkpt>
      <trkpt lat="41.24055" lon="1.2459">
        <ele>137.8</ele>
        <time>2022-05-20 19:52:02</time>
      </trkpt>
      <trkpt lat="41.24059" lon="1.24597">
        <ele>138</ele>
        <time>2022-05-20 19:52:03</time>
      </trkpt>
      <trkpt lat="41.24064" lon="1.24605">
        <ele>138.2</ele>
        <time>2022-05-20 19:52:04</time>
      </trkpt>
      <trkpt lat="41.24069" lon="1.24613">
        <ele>138.4</ele>
        <time>2022-05-20 19:52:05</time>
      </trkpt>
      <trkpt lat="41.24073" lon="1.24622">
        <ele>138.4</ele>
        <time>2022-05-20 19:52:06</time>
      </trkpt>
      <trkpt lat="41.24076" lon="1.24631">
        <ele>138.6</ele>
        <time>2022-05-20 19:52:07</time>
      </trkpt>
      <trkpt lat="41.24077" lon="1.2464">
        <ele>138.8</ele>
        <time>2022-05-20 19:52:08</time>
      </trkpt>
      <trkpt lat="41.24078" lon="1.2465">
        <ele>139</ele>
        <time>2022-05-20 19:52:09</time>
      </trkpt>
      <trkpt lat="41.2408" lon="1.2466">
        <ele>139</ele>
        <time>2022-05-20 19:52:10</time>
      </trkpt>
      <trkpt lat="41.24081" lon="1.2467">
        <ele>139</ele>
        <time>2022-05-20 19:52:11</time>
      </trkpt>
      <trkpt lat="41.24084" lon="1.2468">
        <ele>139</ele>
        <time>2022-05-20 19:52:12</time>
      </trkpt>
      <trkpt lat="41.24087" lon="1.2469">
        <ele>139.2</ele>
        <time>2022-05-20 19:52:13</time>
      </trkpt>
      <trkpt lat="41.24089" lon="1.24699">
        <ele>139.2</ele>
        <time>2022-05-20 19:52:14</time>
      </trkpt>
      <trkpt lat="41.24091" lon="1.24709">
        <ele>139.4</ele>
        <time>2022-05-20 19:52:15</time>
      </trkpt>
      <trkpt lat="41.24092" lon="1.24719">
        <ele>139.4</ele>
        <time>2022-05-20 19:52:16</time>
      </trkpt>
      <trkpt lat="41.24093" lon="1.2473">
        <ele>139.4</ele>
        <time>2022-05-20 19:52:17</time>
      </trkpt>
      <trkpt lat="41.24093" lon="1.24741">
        <ele>139.4</ele>
        <time>2022-05-20 19:52:18</time>
      </trkpt>
      <trkpt lat="41.24094" lon="1.24751">
        <ele>139.4</ele>
        <time>2022-05-20 19:52:19</time>
      </trkpt>
      <trkpt lat="41.24094" lon="1.24763">
        <ele>139.4</ele>
        <time>2022-05-20 19:52:20</time>
      </trkpt>
      <trkpt lat="41.24095" lon="1.24774">
        <ele>139.4</ele>
        <time>2022-05-20 19:52:21</time>
      </trkpt>
      <trkpt lat="41.24095" lon="1.24785">
        <ele>139.4</ele>
        <time>2022-05-20 19:52:22</time>
      </trkpt>
      <trkpt lat="41.24096" lon="1.24797">
        <ele>139.4</ele>
        <time>2022-05-20 19:52:23</time>
      </trkpt>
      <trkpt lat="41.24096" lon="1.24808">
        <ele>139.4</ele>
        <time>2022-05-20 19:52:24</time>
      </trkpt>
      <trkpt lat="41.24096" lon="1.24819">
        <ele>139.4</ele>
        <time>2022-05-20 19:52:25</time>
      </trkpt>
      <trkpt lat="41.24097" lon="1.2483">
        <ele>139.2</ele>
        <time>2022-05-20 19:52:26</time>
      </trkpt>
      <trkpt lat="41.24097" lon="1.24841">
        <ele>139.2</ele>
        <time>2022-05-20 19:52:27</time>
      </trkpt>
      <trkpt lat="41.24098" lon="1.24853">
        <ele>139.2</ele>
        <time>2022-05-20 19:52:28</time>
      </trkpt>
      <trkpt lat="41.24099" lon="1.24864">
        <ele>139</ele>
        <time>2022-05-20 19:52:29</time>
      </trkpt>
      <trkpt lat="41.241" lon="1.24876">
        <ele>138.8</ele>
        <time>2022-05-20 19:52:30</time>
      </trkpt>
      <trkpt lat="41.24102" lon="1.24886">
        <ele>138.8</ele>
        <time>2022-05-20 19:52:31</time>
      </trkpt>
      <trkpt lat="41.24105" lon="1.24897">
        <ele>138.6</ele>
        <time>2022-05-20 19:52:32</time>
      </trkpt>
      <trkpt lat="41.2411" lon="1.24906">
        <ele>138.6</ele>
        <time>2022-05-20 19:52:33</time>
      </trkpt>
      <trkpt lat="41.24116" lon="1.24915">
        <ele>138.6</ele>
        <time>2022-05-20 19:52:34</time>
      </trkpt>
      <trkpt lat="41.24122" lon="1.24923">
        <ele>138.6</ele>
        <time>2022-05-20 19:52:35</time>
      </trkpt>
      <trkpt lat="41.24128" lon="1.2493">
        <ele>138.4</ele>
        <time>2022-05-20 19:52:36</time>
      </trkpt>
      <trkpt lat="41.24134" lon="1.24938">
        <ele>138.4</ele>
        <time>2022-05-20 19:52:37</time>
      </trkpt>
      <trkpt lat="41.24141" lon="1.24947">
        <ele>138.2</ele>
        <time>2022-05-20 19:52:38</time>
      </trkpt>
      <trkpt lat="41.24147" lon="1.24956">
        <ele>138</ele>
        <time>2022-05-20 19:52:39</time>
      </trkpt>
      <trkpt lat="41.24153" lon="1.24964">
        <ele>138</ele>
        <time>2022-05-20 19:52:40</time>
      </trkpt>
      <trkpt lat="41.24159" lon="1.24974">
        <ele>137.8</ele>
        <time>2022-05-20 19:52:41</time>
      </trkpt>
      <trkpt lat="41.24165" lon="1.24982">
        <ele>137.4</ele>
        <time>2022-05-20 19:52:42</time>
      </trkpt>
      <trkpt lat="41.24171" lon="1.24991">
        <ele>137.2</ele>
        <time>2022-05-20 19:52:43</time>
      </trkpt>
      <trkpt lat="41.24177" lon="1.24999">
        <ele>136.8</ele>
        <time>2022-05-20 19:52:44</time>
      </trkpt>
      <trkpt lat="41.24182" lon="1.25007">
        <ele>136.6</ele>
        <time>2022-05-20 19:52:45</time>
      </trkpt>
      <trkpt lat="41.24186" lon="1.25014">
        <ele>136.4</ele>
        <time>2022-05-20 19:52:46</time>
      </trkpt>
      <trkpt lat="41.24189" lon="1.2502">
        <ele>136</ele>
        <time>2022-05-20 19:52:47</time>
      </trkpt>
      <trkpt lat="41.24189" lon="1.25027">
        <ele>135.6</ele>
        <time>2022-05-20 19:52:48</time>
      </trkpt>
      <trkpt lat="41.24187" lon="1.25033">
        <ele>135.2</ele>
        <time>2022-05-20 19:52:49</time>
      </trkpt>
      <trkpt lat="41.24182" lon="1.25039">
        <ele>134.6</ele>
        <time>2022-05-20 19:52:50</time>
      </trkpt>
      <trkpt lat="41.24176" lon="1.25044">
        <ele>134</ele>
        <time>2022-05-20 19:52:51</time>
      </trkpt>
      <trkpt lat="41.24168" lon="1.25048">
        <ele>133.6</ele>
        <time>2022-05-20 19:52:52</time>
      </trkpt>
      <trkpt lat="41.24158" lon="1.25051">
        <ele>133</ele>
        <time>2022-05-20 19:52:53</time>
      </trkpt>
      <trkpt lat="41.24147" lon="1.25055">
        <ele>132.6</ele>
        <time>2022-05-20 19:52:54</time>
      </trkpt>
      <trkpt lat="41.24137" lon="1.2506">
        <ele>132</ele>
        <time>2022-05-20 19:52:55</time>
      </trkpt>
      <trkpt lat="41.24129" lon="1.25067">
        <ele>131.4</ele>
        <time>2022-05-20 19:52:56</time>
      </trkpt>
      <trkpt lat="41.2412" lon="1.25073">
        <ele>130.6</ele>
        <time>2022-05-20 19:52:57</time>
      </trkpt>
      <trkpt lat="41.2411" lon="1.25079">
        <ele>129.8</ele>
        <time>2022-05-20 19:52:58</time>
      </trkpt>
      <trkpt lat="41.24102" lon="1.25085">
        <ele>129.2</ele>
        <time>2022-05-20 19:52:59</time>
      </trkpt>
      <trkpt lat="41.24092" lon="1.25092">
        <ele>128.6</ele>
        <time>2022-05-20 19:53:00</time>
      </trkpt>
      <trkpt lat="41.24084" lon="1.25098">
        <ele>128</ele>
        <time>2022-05-20 19:53:01</time>
      </trkpt>
      <trkpt lat="41.24075" lon="1.25103">
        <ele>127.6</ele>
        <time>2022-05-20 19:53:02</time>
      </trkpt>
      <trkpt lat="41.24066" lon="1.25109">
        <ele>127.2</ele>
        <time>2022-05-20 19:53:03</time>
      </trkpt>
      <trkpt lat="41.24059" lon="1.25118">
        <ele>126.8</ele>
        <time>2022-05-20 19:53:04</time>
      </trkpt>
      <trkpt lat="41.24054" lon="1.25129">
        <ele>126.4</ele>
        <time>2022-05-20 19:53:05</time>
      </trkpt>
      <trkpt lat="41.2405" lon="1.25142">
        <ele>126.4</ele>
        <time>2022-05-20 19:53:06</time>
      </trkpt>
      <trkpt lat="41.24047" lon="1.25154">
        <ele>126.2</ele>
        <time>2022-05-20 19:53:07</time>
      </trkpt>
      <trkpt lat="41.24044" lon="1.25164">
        <ele>126.2</ele>
        <time>2022-05-20 19:53:08</time>
      </trkpt>
      <trkpt lat="41.24041" lon="1.25173">
        <ele>126.2</ele>
        <time>2022-05-20 19:53:09</time>
      </trkpt>
      <trkpt lat="41.24036" lon="1.25181">
        <ele>126.2</ele>
        <time>2022-05-20 19:53:10</time>
      </trkpt>
      <trkpt lat="41.2403" lon="1.25185">
        <ele>126.2</ele>
        <time>2022-05-20 19:53:11</time>
      </trkpt>
      <trkpt lat="41.24023" lon="1.25186">
        <ele>126.2</ele>
        <time>2022-05-20 19:53:12</time>
      </trkpt>
      <trkpt lat="41.24016" lon="1.25185">
        <ele>126.4</ele>
        <time>2022-05-20 19:53:13</time>
      </trkpt>
      <trkpt lat="41.24007" lon="1.25182">
        <ele>126.4</ele>
        <time>2022-05-20 19:53:14</time>
      </trkpt>
      <trkpt lat="41.23999" lon="1.2518">
        <ele>126.4</ele>
        <time>2022-05-20 19:53:15</time>
      </trkpt>
      <trkpt lat="41.23991" lon="1.25177">
        <ele>126.4</ele>
        <time>2022-05-20 19:53:16</time>
      </trkpt>
      <trkpt lat="41.23982" lon="1.25174">
        <ele>126.4</ele>
        <time>2022-05-20 19:53:17</time>
      </trkpt>
      <trkpt lat="41.23973" lon="1.25172">
        <ele>126.2</ele>
        <time>2022-05-20 19:53:18</time>
      </trkpt>
      <trkpt lat="41.23964" lon="1.25169">
        <ele>126.4</ele>
        <time>2022-05-20 19:53:19</time>
      </trkpt>
      <trkpt lat="41.23956" lon="1.25166">
        <ele>126.4</ele>
        <time>2022-05-20 19:53:20</time>
      </trkpt>
      <trkpt lat="41.23946" lon="1.25163">
        <ele>126.4</ele>
        <time>2022-05-20 19:53:21</time>
      </trkpt>
      <trkpt lat="41.23938" lon="1.2516">
        <ele>126.2</ele>
        <time>2022-05-20 19:53:22</time>
      </trkpt>
      <trkpt lat="41.23929" lon="1.25157">
        <ele>126.2</ele>
        <time>2022-05-20 19:53:23</time>
      </trkpt>
      <trkpt lat="41.2392" lon="1.25154">
        <ele>126.2</ele>
        <time>2022-05-20 19:53:24</time>
      </trkpt>
      <trkpt lat="41.23912" lon="1.25151">
        <ele>126.4</ele>
        <time>2022-05-20 19:53:25</time>
      </trkpt>
      <trkpt lat="41.23904" lon="1.25148">
        <ele>126.4</ele>
        <time>2022-05-20 19:53:26</time>
      </trkpt>
      <trkpt lat="41.23895" lon="1.25146">
        <ele>126.6</ele>
        <time>2022-05-20 19:53:27</time>
      </trkpt>
      <trkpt lat="41.23888" lon="1.25143">
        <ele>126.6</ele>
        <time>2022-05-20 19:53:28</time>
      </trkpt>
      <trkpt lat="41.23878" lon="1.2514">
        <ele>126.6</ele>
        <time>2022-05-20 19:53:29</time>
      </trkpt>
      <trkpt lat="41.2387" lon="1.25137">
        <ele>126.6</ele>
        <time>2022-05-20 19:53:30</time>
      </trkpt>
      <trkpt lat="41.23862" lon="1.25135">
        <ele>126.8</ele>
        <time>2022-05-20 19:53:31</time>
      </trkpt>
      <trkpt lat="41.23854" lon="1.25132">
        <ele>126.8</ele>
        <time>2022-05-20 19:53:32</time>
      </trkpt>
      <trkpt lat="41.23845" lon="1.2513">
        <ele>126.8</ele>
        <time>2022-05-20 19:53:33</time>
      </trkpt>
      <trkpt lat="41.23837" lon="1.25128">
        <ele>126.6</ele>
        <time>2022-05-20 19:53:34</time>
      </trkpt>
      <trkpt lat="41.23829" lon="1.25125">
        <ele>126.8</ele>
        <time>2022-05-20 19:53:35</time>
      </trkpt>
      <trkpt lat="41.23821" lon="1.25123">
        <ele>126.8</ele>
        <time>2022-05-20 19:53:36</time>
      </trkpt>
      <trkpt lat="41.23813" lon="1.25121">
        <ele>127</ele>
        <time>2022-05-20 19:53:37</time>
      </trkpt>
      <trkpt lat="41.23804" lon="1.25118">
        <ele>127</ele>
        <time>2022-05-20 19:53:38</time>
      </trkpt>
      <trkpt lat="41.23796" lon="1.25116">
        <ele>127</ele>
        <time>2022-05-20 19:53:39</time>
      </trkpt>
      <trkpt lat="41.23788" lon="1.25113">
        <ele>127</ele>
        <time>2022-05-20 19:53:40</time>
      </trkpt>
      <trkpt lat="41.23779" lon="1.25111">
        <ele>127.2</ele>
        <time>2022-05-20 19:53:41</time>
      </trkpt>
      <trkpt lat="41.23771" lon="1.25109">
        <ele>127.2</ele>
        <time>2022-05-20 19:53:42</time>
      </trkpt>
      <trkpt lat="41.23762" lon="1.25106">
        <ele>127.2</ele>
        <time>2022-05-20 19:53:43</time>
      </trkpt>
      <trkpt lat="41.23754" lon="1.25104">
        <ele>127.2</ele>
        <time>2022-05-20 19:53:44</time>
      </trkpt>
      <trkpt lat="41.23746" lon="1.25102">
        <ele>127.2</ele>
        <time>2022-05-20 19:53:45</time>
      </trkpt>
      <trkpt lat="41.23737" lon="1.25099">
        <ele>127.2</ele>
        <time>2022-05-20 19:53:46</time>
      </trkpt>
      <trkpt lat="41.23728" lon="1.25097">
        <ele>127.2</ele>
        <time>2022-05-20 19:53:47</time>
      </trkpt>
      <trkpt lat="41.2372" lon="1.25095">
        <ele>127</ele>
        <time>2022-05-20 19:53:48</time>
      </trkpt>
      <trkpt lat="41.23711" lon="1.25092">
        <ele>127</ele>
        <time>2022-05-20 19:53:49</time>
      </trkpt>
      <trkpt lat="41.23703" lon="1.2509">
        <ele>127</ele>
        <time>2022-05-20 19:53:50</time>
      </trkpt>
      <trkpt lat="41.23694" lon="1.25088">
        <ele>127</ele>
        <time>2022-05-20 19:53:51</time>
      </trkpt>
      <trkpt lat="41.23685" lon="1.25085">
        <ele>127</ele>
        <time>2022-05-20 19:53:52</time>
      </trkpt>
      <trkpt lat="41.23677" lon="1.25082">
        <ele>126.8</ele>
        <time>2022-05-20 19:53:53</time>
      </trkpt>
      <trkpt lat="41.23669" lon="1.2508">
        <ele>126.8</ele>
        <time>2022-05-20 19:53:54</time>
      </trkpt>
      <trkpt lat="41.2366" lon="1.25076">
        <ele>126.8</ele>
        <time>2022-05-20 19:53:55</time>
      </trkpt>
      <trkpt lat="41.23652" lon="1.25073">
        <ele>126.8</ele>
        <time>2022-05-20 19:53:56</time>
      </trkpt>
      <trkpt lat="41.23644" lon="1.25071">
        <ele>127</ele>
        <time>2022-05-20 19:53:57</time>
      </trkpt>
      <trkpt lat="41.23636" lon="1.25068">
        <ele>127</ele>
        <time>2022-05-20 19:53:58</time>
      </trkpt>
      <trkpt lat="41.23629" lon="1.25065">
        <ele>127.2</ele>
        <time>2022-05-20 19:53:59</time>
      </trkpt>
      <trkpt lat="41.23621" lon="1.25063">
        <ele>127.4</ele>
        <time>2022-05-20 19:54:00</time>
      </trkpt>
      <trkpt lat="41.23614" lon="1.25061">
        <ele>127.4</ele>
        <time>2022-05-20 19:54:01</time>
      </trkpt>
      <trkpt lat="41.23606" lon="1.2506">
        <ele>127.6</ele>
        <time>2022-05-20 19:54:02</time>
      </trkpt>
      <trkpt lat="41.23599" lon="1.25059">
        <ele>127.4</ele>
        <time>2022-05-20 19:54:03</time>
      </trkpt>
      <trkpt lat="41.23592" lon="1.25059">
        <ele>127.6</ele>
        <time>2022-05-20 19:54:04</time>
      </trkpt>
      <trkpt lat="41.23584" lon="1.25058">
        <ele>127.6</ele>
        <time>2022-05-20 19:54:05</time>
      </trkpt>
      <trkpt lat="41.23577" lon="1.25058">
        <ele>127.6</ele>
        <time>2022-05-20 19:54:06</time>
      </trkpt>
      <trkpt lat="41.23571" lon="1.25056">
        <ele>127.8</ele>
        <time>2022-05-20 19:54:07</time>
      </trkpt>
      <trkpt lat="41.23564" lon="1.25055">
        <ele>128</ele>
        <time>2022-05-20 19:54:08</time>
      </trkpt>
      <trkpt lat="41.23558" lon="1.25053">
        <ele>128.2</ele>
        <time>2022-05-20 19:54:09</time>
      </trkpt>
      <trkpt lat="41.23551" lon="1.25051">
        <ele>128.6</ele>
        <time>2022-05-20 19:54:10</time>
      </trkpt>
      <trkpt lat="41.23545" lon="1.25049">
        <ele>128.8</ele>
        <time>2022-05-20 19:54:11</time>
      </trkpt>
      <trkpt lat="41.23539" lon="1.25048">
        <ele>129</ele>
        <time>2022-05-20 19:54:12</time>
      </trkpt>
      <trkpt lat="41.23532" lon="1.25046">
        <ele>129.2</ele>
        <time>2022-05-20 19:54:13</time>
      </trkpt>
      <trkpt lat="41.23526" lon="1.25045">
        <ele>129.6</ele>
        <time>2022-05-20 19:54:14</time>
      </trkpt>
      <trkpt lat="41.2352" lon="1.25044">
        <ele>129.8</ele>
        <time>2022-05-20 19:54:15</time>
      </trkpt>
      <trkpt lat="41.23514" lon="1.25044">
        <ele>130</ele>
        <time>2022-05-20 19:54:16</time>
      </trkpt>
      <trkpt lat="41.23509" lon="1.25045">
        <ele>130.2</ele>
        <time>2022-05-20 19:54:17</time>
      </trkpt>
      <trkpt lat="41.23505" lon="1.25047">
        <ele>130.4</ele>
        <time>2022-05-20 19:54:18</time>
      </trkpt>
      <trkpt lat="41.23502" lon="1.25053">
        <ele>130.8</ele>
        <time>2022-05-20 19:54:19</time>
      </trkpt>
      <trkpt lat="41.23501" lon="1.25061">
        <ele>131</ele>
        <time>2022-05-20 19:54:20</time>
      </trkpt>
      <trkpt lat="41.23501" lon="1.2507">
        <ele>131.2</ele>
        <time>2022-05-20 19:54:21</time>
      </trkpt>
      <trkpt lat="41.23502" lon="1.25078">
        <ele>131.4</ele>
        <time>2022-05-20 19:54:22</time>
      </trkpt>
      <trkpt lat="41.23502" lon="1.25087">
        <ele>131.8</ele>
        <time>2022-05-20 19:54:23</time>
      </trkpt>
      <trkpt lat="41.23501" lon="1.25095">
        <ele>132</ele>
        <time>2022-05-20 19:54:24</time>
      </trkpt>
      <trkpt lat="41.23499" lon="1.25102">
        <ele>132.4</ele>
        <time>2022-05-20 19:54:25</time>
      </trkpt>
      <trkpt lat="41.23498" lon="1.25109">
        <ele>132.8</ele>
        <time>2022-05-20 19:54:26</time>
      </trkpt>
      <trkpt lat="41.23496" lon="1.25116">
        <ele>133.2</ele>
        <time>2022-05-20 19:54:27</time>
      </trkpt>
      <trkpt lat="41.23493" lon="1.25123">
        <ele>133.6</ele>
        <time>2022-05-20 19:54:28</time>
      </trkpt>
      <trkpt lat="41.23491" lon="1.25129">
        <ele>134.2</ele>
        <time>2022-05-20 19:54:29</time>
      </trkpt>
      <trkpt lat="41.23489" lon="1.25136">
        <ele>134.6</ele>
        <time>2022-05-20 19:54:30</time>
      </trkpt>
      <trkpt lat="41.23487" lon="1.25142">
        <ele>135</ele>
        <time>2022-05-20 19:54:31</time>
      </trkpt>
      <trkpt lat="41.23485" lon="1.25148">
        <ele>135.2</ele>
        <time>2022-05-20 19:54:32</time>
      </trkpt>
      <trkpt lat="41.23483" lon="1.25154">
        <ele>135.6</ele>
        <time>2022-05-20 19:54:33</time>
      </trkpt>
      <trkpt lat="41.23481" lon="1.25161">
        <ele>136</ele>
        <time>2022-05-20 19:54:34</time>
      </trkpt>
      <trkpt lat="41.23478" lon="1.25167">
        <ele>136.4</ele>
        <time>2022-05-20 19:54:35</time>
      </trkpt>
      <trkpt lat="41.23476" lon="1.25174">
        <ele>137</ele>
        <time>2022-05-20 19:54:36</time>
      </trkpt>
      <trkpt lat="41.23474" lon="1.2518">
        <ele>137.4</ele>
        <time>2022-05-20 19:54:37</time>
      </trkpt>
      <trkpt lat="41.23472" lon="1.25186">
        <ele>137.8</ele>
        <time>2022-05-20 19:54:38</time>
      </trkpt>
      <trkpt lat="41.2347" lon="1.25192">
        <ele>138.2</ele>
        <time>2022-05-20 19:54:39</time>
      </trkpt>
      <trkpt lat="41.23468" lon="1.25198">
        <ele>138.6</ele>
        <time>2022-05-20 19:54:40</time>
      </trkpt>
      <trkpt lat="41.23466" lon="1.25203">
        <ele>139</ele>
        <time>2022-05-20 19:54:41</time>
      </trkpt>
      <trkpt lat="41.23463" lon="1.25209">
        <ele>139.4</ele>
        <time>2022-05-20 19:54:42</time>
      </trkpt>
      <trkpt lat="41.23462" lon="1.25215">
        <ele>139.8</ele>
        <time>2022-05-20 19:54:43</time>
      </trkpt>
      <trkpt lat="41.23459" lon="1.25221">
        <ele>140.2</ele>
        <time>2022-05-20 19:54:44</time>
      </trkpt>
      <trkpt lat="41.23457" lon="1.25227">
        <ele>140.4</ele>
        <time>2022-05-20 19:54:45</time>
      </trkpt>
      <trkpt lat="41.23455" lon="1.25232">
        <ele>140.8</ele>
        <time>2022-05-20 19:54:46</time>
      </trkpt>
      <trkpt lat="41.23453" lon="1.25238">
        <ele>141.2</ele>
        <time>2022-05-20 19:54:47</time>
      </trkpt>
      <trkpt lat="41.23451" lon="1.25243">
        <ele>141.4</ele>
        <time>2022-05-20 19:54:48</time>
      </trkpt>
      <trkpt lat="41.23448" lon="1.25249">
        <ele>141.8</ele>
        <time>2022-05-20 19:54:49</time>
      </trkpt>
      <trkpt lat="41.23446" lon="1.25254">
        <ele>142.2</ele>
        <time>2022-05-20 19:54:50</time>
      </trkpt>
      <trkpt lat="41.23444" lon="1.25259">
        <ele>142.4</ele>
        <time>2022-05-20 19:54:51</time>
      </trkpt>
      <trkpt lat="41.23441" lon="1.25265">
        <ele>142.8</ele>
        <time>2022-05-20 19:54:52</time>
      </trkpt>
      <trkpt lat="41.23439" lon="1.2527">
        <ele>143</ele>
        <time>2022-05-20 19:54:53</time>
      </trkpt>
      <trkpt lat="41.23438" lon="1.25275">
        <ele>143.4</ele>
        <time>2022-05-20 19:54:54</time>
      </trkpt>
      <trkpt lat="41.23436" lon="1.2528">
        <ele>143.8</ele>
        <time>2022-05-20 19:54:55</time>
      </trkpt>
      <trkpt lat="41.23433" lon="1.25286">
        <ele>144</ele>
        <time>2022-05-20 19:54:56</time>
      </trkpt>
      <trkpt lat="41.23431" lon="1.25291">
        <ele>144.4</ele>
        <time>2022-05-20 19:54:57</time>
      </trkpt>
      <trkpt lat="41.23429" lon="1.25296">
        <ele>144.6</ele>
        <time>2022-05-20 19:54:58</time>
      </trkpt>
      <trkpt lat="41.23427" lon="1.25301">
        <ele>145</ele>
        <time>2022-05-20 19:54:59</time>
      </trkpt>
      <trkpt lat="41.23425" lon="1.25306">
        <ele>145.4</ele>
        <time>2022-05-20 19:55:00</time>
      </trkpt>
      <trkpt lat="41.23423" lon="1.25312">
        <ele>145.6</ele>
        <time>2022-05-20 19:55:01</time>
      </trkpt>
      <trkpt lat="41.23421" lon="1.25317">
        <ele>146</ele>
        <time>2022-05-20 19:55:02</time>
      </trkpt>
      <trkpt lat="41.23418" lon="1.25322">
        <ele>146.2</ele>
        <time>2022-05-20 19:55:03</time>
      </trkpt>
      <trkpt lat="41.23416" lon="1.25327">
        <ele>146.6</ele>
        <time>2022-05-20 19:55:04</time>
      </trkpt>
      <trkpt lat="41.23414" lon="1.25333">
        <ele>146.8</ele>
        <time>2022-05-20 19:55:05</time>
      </trkpt>
      <trkpt lat="41.23412" lon="1.25338">
        <ele>147.2</ele>
        <time>2022-05-20 19:55:06</time>
      </trkpt>
      <trkpt lat="41.2341" lon="1.25344">
        <ele>147.6</ele>
        <time>2022-05-20 19:55:07</time>
      </trkpt>
      <trkpt lat="41.23409" lon="1.25349">
        <ele>147.8</ele>
        <time>2022-05-20 19:55:08</time>
      </trkpt>
      <trkpt lat="41.23407" lon="1.25355">
        <ele>148.2</ele>
        <time>2022-05-20 19:55:09</time>
      </trkpt>
      <trkpt lat="41.23405" lon="1.2536">
        <ele>148.4</ele>
        <time>2022-05-20 19:55:10</time>
      </trkpt>
      <trkpt lat="41.23404" lon="1.25366">
        <ele>148.8</ele>
        <time>2022-05-20 19:55:11</time>
      </trkpt>
      <trkpt lat="41.23403" lon="1.25372">
        <ele>149</ele>
        <time>2022-05-20 19:55:12</time>
      </trkpt>
      <trkpt lat="41.23401" lon="1.25378">
        <ele>149.4</ele>
        <time>2022-05-20 19:55:13</time>
      </trkpt>
      <trkpt lat="41.234" lon="1.25384">
        <ele>149.6</ele>
        <time>2022-05-20 19:55:14</time>
      </trkpt>
      <trkpt lat="41.23399" lon="1.2539">
        <ele>150</ele>
        <time>2022-05-20 19:55:15</time>
      </trkpt>
      <trkpt lat="41.23398" lon="1.25397">
        <ele>150.2</ele>
        <time>2022-05-20 19:55:16</time>
      </trkpt>
      <trkpt lat="41.23397" lon="1.25403">
        <ele>150.4</ele>
        <time>2022-05-20 19:55:17</time>
      </trkpt>
      <trkpt lat="41.23396" lon="1.25409">
        <ele>150.8</ele>
        <time>2022-05-20 19:55:18</time>
      </trkpt>
      <trkpt lat="41.23396" lon="1.25415">
        <ele>151</ele>
        <time>2022-05-20 19:55:19</time>
      </trkpt>
      <trkpt lat="41.23395" lon="1.25422">
        <ele>151.4</ele>
        <time>2022-05-20 19:55:20</time>
      </trkpt>
      <trkpt lat="41.23395" lon="1.25427">
        <ele>151.6</ele>
        <time>2022-05-20 19:55:21</time>
      </trkpt>
      <trkpt lat="41.23394" lon="1.25431">
        <ele>152</ele>
        <time>2022-05-20 19:55:22</time>
      </trkpt>
      <trkpt lat="41.23394" lon="1.2544">
        <ele>152.2</ele>
        <time>2022-05-20 19:55:23</time>
      </trkpt>
      <trkpt lat="41.23394" lon="1.25446">
        <ele>152.4</ele>
        <time>2022-05-20 19:55:24</time>
      </trkpt>
      <trkpt lat="41.23394" lon="1.25453">
        <ele>152.6</ele>
        <time>2022-05-20 19:55:25</time>
      </trkpt>
      <trkpt lat="41.23395" lon="1.25459">
        <ele>153</ele>
        <time>2022-05-20 19:55:26</time>
      </trkpt>
      <trkpt lat="41.23395" lon="1.25466">
        <ele>153.2</ele>
        <time>2022-05-20 19:55:27</time>
      </trkpt>
      <trkpt lat="41.23395" lon="1.25472">
        <ele>153.4</ele>
        <time>2022-05-20 19:55:28</time>
      </trkpt>
      <trkpt lat="41.23395" lon="1.25479">
        <ele>153.8</ele>
        <time>2022-05-20 19:55:29</time>
      </trkpt>
      <trkpt lat="41.23395" lon="1.25486">
        <ele>154</ele>
        <time>2022-05-20 19:55:30</time>
      </trkpt>
      <trkpt lat="41.23396" lon="1.25493">
        <ele>154.2</ele>
        <time>2022-05-20 19:55:31</time>
      </trkpt>
      <trkpt lat="41.23396" lon="1.255">
        <ele>154.6</ele>
        <time>2022-05-20 19:55:32</time>
      </trkpt>
      <trkpt lat="41.23397" lon="1.25506">
        <ele>154.8</ele>
        <time>2022-05-20 19:55:33</time>
      </trkpt>
      <trkpt lat="41.23397" lon="1.25513">
        <ele>155</ele>
        <time>2022-05-20 19:55:34</time>
      </trkpt>
      <trkpt lat="41.23397" lon="1.2552">
        <ele>155.4</ele>
        <time>2022-05-20 19:55:35</time>
      </trkpt>
      <trkpt lat="41.23397" lon="1.25526">
        <ele>155.6</ele>
        <time>2022-05-20 19:55:36</time>
      </trkpt>
      <trkpt lat="41.23396" lon="1.25533">
        <ele>155.8</ele>
        <time>2022-05-20 19:55:37</time>
      </trkpt>
      <trkpt lat="41.23396" lon="1.25539">
        <ele>156</ele>
        <time>2022-05-20 19:55:38</time>
      </trkpt>
      <trkpt lat="41.23396" lon="1.25546">
        <ele>156.2</ele>
        <time>2022-05-20 19:55:39</time>
      </trkpt>
      <trkpt lat="41.23395" lon="1.25553">
        <ele>156.4</ele>
        <time>2022-05-20 19:55:40</time>
      </trkpt>
      <trkpt lat="41.23394" lon="1.2556">
        <ele>156.6</ele>
        <time>2022-05-20 19:55:41</time>
      </trkpt>
      <trkpt lat="41.23392" lon="1.25567">
        <ele>157</ele>
        <time>2022-05-20 19:55:42</time>
      </trkpt>
      <trkpt lat="41.23391" lon="1.25573">
        <ele>157.2</ele>
        <time>2022-05-20 19:55:43</time>
      </trkpt>
      <trkpt lat="41.23389" lon="1.2558">
        <ele>157.4</ele>
        <time>2022-05-20 19:55:44</time>
      </trkpt>
      <trkpt lat="41.23387" lon="1.25586">
        <ele>157.4</ele>
        <time>2022-05-20 19:55:45</time>
      </trkpt>
      <trkpt lat="41.23385" lon="1.25593">
        <ele>157.6</ele>
        <time>2022-05-20 19:55:46</time>
      </trkpt>
      <trkpt lat="41.23383" lon="1.256">
        <ele>157.8</ele>
        <time>2022-05-20 19:55:47</time>
      </trkpt>
      <trkpt lat="41.2338" lon="1.25607">
        <ele>158</ele>
        <time>2022-05-20 19:55:48</time>
      </trkpt>
      <trkpt lat="41.23377" lon="1.25613">
        <ele>158.2</ele>
        <time>2022-05-20 19:55:49</time>
      </trkpt>
      <trkpt lat="41.23373" lon="1.2562">
        <ele>158.2</ele>
        <time>2022-05-20 19:55:50</time>
      </trkpt>
      <trkpt lat="41.2337" lon="1.25627">
        <ele>158.4</ele>
        <time>2022-05-20 19:55:51</time>
      </trkpt>
      <trkpt lat="41.23366" lon="1.25633">
        <ele>158.4</ele>
        <time>2022-05-20 19:55:52</time>
      </trkpt>
      <trkpt lat="41.23362" lon="1.2564">
        <ele>158.6</ele>
        <time>2022-05-20 19:55:53</time>
      </trkpt>
      <trkpt lat="41.23358" lon="1.25646">
        <ele>158.6</ele>
        <time>2022-05-20 19:55:54</time>
      </trkpt>
      <trkpt lat="41.23354" lon="1.25652">
        <ele>158.6</ele>
        <time>2022-05-20 19:55:55</time>
      </trkpt>
      <trkpt lat="41.23349" lon="1.25659">
        <ele>158.6</ele>
        <time>2022-05-20 19:55:56</time>
      </trkpt>
      <trkpt lat="41.23344" lon="1.25665">
        <ele>158.6</ele>
        <time>2022-05-20 19:55:57</time>
      </trkpt>
      <trkpt lat="41.23339" lon="1.25671">
        <ele>158.6</ele>
        <time>2022-05-20 19:55:58</time>
      </trkpt>
      <trkpt lat="41.23334" lon="1.25678">
        <ele>158.4</ele>
        <time>2022-05-20 19:55:59</time>
      </trkpt>
      <trkpt lat="41.23328" lon="1.25684">
        <ele>158.2</ele>
        <time>2022-05-20 19:56:00</time>
      </trkpt>
      <trkpt lat="41.23323" lon="1.25691">
        <ele>158.2</ele>
        <time>2022-05-20 19:56:01</time>
      </trkpt>
      <trkpt lat="41.23317" lon="1.25698">
        <ele>158</ele>
        <time>2022-05-20 19:56:02</time>
      </trkpt>
      <trkpt lat="41.23312" lon="1.25705">
        <ele>157.8</ele>
        <time>2022-05-20 19:56:03</time>
      </trkpt>
      <trkpt lat="41.23306" lon="1.25712">
        <ele>157.8</ele>
        <time>2022-05-20 19:56:04</time>
      </trkpt>
      <trkpt lat="41.23299" lon="1.2572">
        <ele>157.4</ele>
        <time>2022-05-20 19:56:05</time>
      </trkpt>
      <trkpt lat="41.23293" lon="1.25728">
        <ele>157.2</ele>
        <time>2022-05-20 19:56:06</time>
      </trkpt>
      <trkpt lat="41.23286" lon="1.25736">
        <ele>156.8</ele>
        <time>2022-05-20 19:56:07</time>
      </trkpt>
      <trkpt lat="41.2328" lon="1.25744">
        <ele>156.4</ele>
        <time>2022-05-20 19:56:08</time>
      </trkpt>
      <trkpt lat="41.23273" lon="1.25752">
        <ele>156.2</ele>
        <time>2022-05-20 19:56:09</time>
      </trkpt>
      <trkpt lat="41.23266" lon="1.25761">
        <ele>155.6</ele>
        <time>2022-05-20 19:56:10</time>
      </trkpt>
      <trkpt lat="41.23259" lon="1.2577">
        <ele>155.2</ele>
        <time>2022-05-20 19:56:11</time>
      </trkpt>
      <trkpt lat="41.23252" lon="1.25779">
        <ele>154.6</ele>
        <time>2022-05-20 19:56:12</time>
      </trkpt>
      <trkpt lat="41.23244" lon="1.25788">
        <ele>154.2</ele>
        <time>2022-05-20 19:56:13</time>
      </trkpt>
      <trkpt lat="41.23237" lon="1.25797">
        <ele>153.8</ele>
        <time>2022-05-20 19:56:14</time>
      </trkpt>
      <trkpt lat="41.23229" lon="1.25807">
        <ele>153.4</ele>
        <time>2022-05-20 19:56:15</time>
      </trkpt>
      <trkpt lat="41.23222" lon="1.25815">
        <ele>153</ele>
        <time>2022-05-20 19:56:16</time>
      </trkpt>
      <trkpt lat="41.23214" lon="1.25823">
        <ele>152.6</ele>
        <time>2022-05-20 19:56:17</time>
      </trkpt>
      <trkpt lat="41.23206" lon="1.25829">
        <ele>152.4</ele>
        <time>2022-05-20 19:56:18</time>
      </trkpt>
      <trkpt lat="41.23197" lon="1.25835">
        <ele>152.2</ele>
        <time>2022-05-20 19:56:19</time>
      </trkpt>
      <trkpt lat="41.2319" lon="1.25843">
        <ele>152</ele>
        <time>2022-05-20 19:56:20</time>
      </trkpt>
      <trkpt lat="41.23183" lon="1.25853">
        <ele>151.8</ele>
        <time>2022-05-20 19:56:21</time>
      </trkpt>
      <trkpt lat="41.23178" lon="1.25864">
        <ele>151.6</ele>
        <time>2022-05-20 19:56:22</time>
      </trkpt>
      <trkpt lat="41.23172" lon="1.25874">
        <ele>151.2</ele>
        <time>2022-05-20 19:56:23</time>
      </trkpt>
      <trkpt lat="41.23165" lon="1.25884">
        <ele>150.8</ele>
        <time>2022-05-20 19:56:24</time>
      </trkpt>
      <trkpt lat="41.23157" lon="1.25893">
        <ele>150.4</ele>
        <time>2022-05-20 19:56:25</time>
      </trkpt>
      <trkpt lat="41.23148" lon="1.25902">
        <ele>150</ele>
        <time>2022-05-20 19:56:26</time>
      </trkpt>
      <trkpt lat="41.23139" lon="1.25912">
        <ele>149.4</ele>
        <time>2022-05-20 19:56:27</time>
      </trkpt>
      <trkpt lat="41.2313" lon="1.25921">
        <ele>148.8</ele>
        <time>2022-05-20 19:56:28</time>
      </trkpt>
      <trkpt lat="41.2312" lon="1.25931">
        <ele>148.2</ele>
        <time>2022-05-20 19:56:29</time>
      </trkpt>
      <trkpt lat="41.23111" lon="1.25941">
        <ele>147.6</ele>
        <time>2022-05-20 19:56:30</time>
      </trkpt>
      <trkpt lat="41.23102" lon="1.2595">
        <ele>147</ele>
        <time>2022-05-20 19:56:31</time>
      </trkpt>
      <trkpt lat="41.23092" lon="1.2596">
        <ele>146.6</ele>
        <time>2022-05-20 19:56:32</time>
      </trkpt>
      <trkpt lat="41.23083" lon="1.25969">
        <ele>146</ele>
        <time>2022-05-20 19:56:33</time>
      </trkpt>
      <trkpt lat="41.23073" lon="1.25978">
        <ele>145.6</ele>
        <time>2022-05-20 19:56:34</time>
      </trkpt>
      <trkpt lat="41.23063" lon="1.25988">
        <ele>145.2</ele>
        <time>2022-05-20 19:56:35</time>
      </trkpt>
      <trkpt lat="41.23054" lon="1.25997">
        <ele>144.8</ele>
        <time>2022-05-20 19:56:36</time>
      </trkpt>
      <trkpt lat="41.23045" lon="1.26007">
        <ele>144.4</ele>
        <time>2022-05-20 19:56:37</time>
      </trkpt>
      <trkpt lat="41.23035" lon="1.26015">
        <ele>144.2</ele>
        <time>2022-05-20 19:56:38</time>
      </trkpt>
      <trkpt lat="41.23026" lon="1.26025">
        <ele>143.8</ele>
        <time>2022-05-20 19:56:39</time>
      </trkpt>
      <trkpt lat="41.23017" lon="1.26034">
        <ele>143.4</ele>
        <time>2022-05-20 19:56:40</time>
      </trkpt>
      <trkpt lat="41.23008" lon="1.26042">
        <ele>143.2</ele>
        <time>2022-05-20 19:56:41</time>
      </trkpt>
      <trkpt lat="41.22999" lon="1.26051">
        <ele>143.2</ele>
        <time>2022-05-20 19:56:42</time>
      </trkpt>
      <trkpt lat="41.2299" lon="1.26059">
        <ele>142.8</ele>
        <time>2022-05-20 19:56:43</time>
      </trkpt>
      <trkpt lat="41.22982" lon="1.26068">
        <ele>142.6</ele>
        <time>2022-05-20 19:56:44</time>
      </trkpt>
      <trkpt lat="41.22972" lon="1.26077">
        <ele>142.4</ele>
        <time>2022-05-20 19:56:45</time>
      </trkpt>
      <trkpt lat="41.22964" lon="1.26086">
        <ele>142.2</ele>
        <time>2022-05-20 19:56:46</time>
      </trkpt>
      <trkpt lat="41.22955" lon="1.26096">
        <ele>142</ele>
        <time>2022-05-20 19:56:47</time>
      </trkpt>
      <trkpt lat="41.22947" lon="1.26105">
        <ele>141.6</ele>
        <time>2022-05-20 19:56:48</time>
      </trkpt>
      <trkpt lat="41.22939" lon="1.26115">
        <ele>141.4</ele>
        <time>2022-05-20 19:56:49</time>
      </trkpt>
      <trkpt lat="41.22931" lon="1.26125">
        <ele>141.2</ele>
        <time>2022-05-20 19:56:50</time>
      </trkpt>
      <trkpt lat="41.22923" lon="1.26135">
        <ele>141</ele>
        <time>2022-05-20 19:56:51</time>
      </trkpt>
      <trkpt lat="41.22915" lon="1.26144">
        <ele>140.8</ele>
        <time>2022-05-20 19:56:52</time>
      </trkpt>
      <trkpt lat="41.22907" lon="1.26154">
        <ele>140.4</ele>
        <time>2022-05-20 19:56:53</time>
      </trkpt>
      <trkpt lat="41.22899" lon="1.26164">
        <ele>140.2</ele>
        <time>2022-05-20 19:56:54</time>
      </trkpt>
      <trkpt lat="41.22892" lon="1.26174">
        <ele>140</ele>
        <time>2022-05-20 19:56:55</time>
      </trkpt>
      <trkpt lat="41.22884" lon="1.26184">
        <ele>139.8</ele>
        <time>2022-05-20 19:56:56</time>
      </trkpt>
      <trkpt lat="41.22876" lon="1.26194">
        <ele>139.6</ele>
        <time>2022-05-20 19:56:57</time>
      </trkpt>
      <trkpt lat="41.22868" lon="1.26204">
        <ele>139.2</ele>
        <time>2022-05-20 19:56:58</time>
      </trkpt>
      <trkpt lat="41.2286" lon="1.26214">
        <ele>139</ele>
        <time>2022-05-20 19:56:59</time>
      </trkpt>
      <trkpt lat="41.22852" lon="1.26225">
        <ele>139</ele>
        <time>2022-05-20 19:57:00</time>
      </trkpt>
      <trkpt lat="41.22845" lon="1.26235">
        <ele>138.8</ele>
        <time>2022-05-20 19:57:01</time>
      </trkpt>
      <trkpt lat="41.22837" lon="1.26245">
        <ele>138.4</ele>
        <time>2022-05-20 19:57:02</time>
      </trkpt>
      <trkpt lat="41.22829" lon="1.26256">
        <ele>138.2</ele>
        <time>2022-05-20 19:57:03</time>
      </trkpt>
      <trkpt lat="41.22821" lon="1.26266">
        <ele>137.8</ele>
        <time>2022-05-20 19:57:04</time>
      </trkpt>
      <trkpt lat="41.22813" lon="1.26276">
        <ele>137.8</ele>
        <time>2022-05-20 19:57:05</time>
      </trkpt>
      <trkpt lat="41.22806" lon="1.26286">
        <ele>137.6</ele>
        <time>2022-05-20 19:57:06</time>
      </trkpt>
      <trkpt lat="41.22798" lon="1.26296">
        <ele>137.6</ele>
        <time>2022-05-20 19:57:07</time>
      </trkpt>
      <trkpt lat="41.22791" lon="1.26306">
        <ele>137.4</ele>
        <time>2022-05-20 19:57:08</time>
      </trkpt>
      <trkpt lat="41.22783" lon="1.26316">
        <ele>137.2</ele>
        <time>2022-05-20 19:57:09</time>
      </trkpt>
      <trkpt lat="41.22775" lon="1.26326">
        <ele>137</ele>
        <time>2022-05-20 19:57:10</time>
      </trkpt>
      <trkpt lat="41.22768" lon="1.26336">
        <ele>136.6</ele>
        <time>2022-05-20 19:57:11</time>
      </trkpt>
      <trkpt lat="41.2276" lon="1.26346">
        <ele>136.4</ele>
        <time>2022-05-20 19:57:12</time>
      </trkpt>
      <trkpt lat="41.22753" lon="1.26356">
        <ele>136</ele>
        <time>2022-05-20 19:57:13</time>
      </trkpt>
      <trkpt lat="41.22746" lon="1.26366">
        <ele>135.8</ele>
        <time>2022-05-20 19:57:14</time>
      </trkpt>
      <trkpt lat="41.22738" lon="1.26376">
        <ele>135.6</ele>
        <time>2022-05-20 19:57:15</time>
      </trkpt>
      <trkpt lat="41.22731" lon="1.26386">
        <ele>135.4</ele>
        <time>2022-05-20 19:57:16</time>
      </trkpt>
      <trkpt lat="41.22723" lon="1.26396">
        <ele>135.2</ele>
        <time>2022-05-20 19:57:17</time>
      </trkpt>
      <trkpt lat="41.22715" lon="1.26406">
        <ele>135</ele>
        <time>2022-05-20 19:57:18</time>
      </trkpt>
      <trkpt lat="41.22708" lon="1.26416">
        <ele>134.6</ele>
        <time>2022-05-20 19:57:19</time>
      </trkpt>
      <trkpt lat="41.227" lon="1.26426">
        <ele>134.6</ele>
        <time>2022-05-20 19:57:20</time>
      </trkpt>
      <trkpt lat="41.22693" lon="1.26436">
        <ele>134.4</ele>
        <time>2022-05-20 19:57:21</time>
      </trkpt>
      <trkpt lat="41.22685" lon="1.26445">
        <ele>134.2</ele>
        <time>2022-05-20 19:57:22</time>
      </trkpt>
      <trkpt lat="41.22677" lon="1.26455">
        <ele>134</ele>
        <time>2022-05-20 19:57:23</time>
      </trkpt>
      <trkpt lat="41.22669" lon="1.26465">
        <ele>134</ele>
        <time>2022-05-20 19:57:24</time>
      </trkpt>
      <trkpt lat="41.22662" lon="1.26475">
        <ele>133.8</ele>
        <time>2022-05-20 19:57:25</time>
      </trkpt>
      <trkpt lat="41.22655" lon="1.26485">
        <ele>133.6</ele>
        <time>2022-05-20 19:57:26</time>
      </trkpt>
      <trkpt lat="41.22649" lon="1.26496">
        <ele>133.8</ele>
        <time>2022-05-20 19:57:27</time>
      </trkpt>
      <trkpt lat="41.22644" lon="1.26507">
        <ele>133.8</ele>
        <time>2022-05-20 19:57:28</time>
      </trkpt>
      <trkpt lat="41.22639" lon="1.26518">
        <ele>133.8</ele>
        <time>2022-05-20 19:57:29</time>
      </trkpt>
      <trkpt lat="41.22633" lon="1.26529">
        <ele>133.8</ele>
        <time>2022-05-20 19:57:30</time>
      </trkpt>
      <trkpt lat="41.22627" lon="1.2654">
        <ele>133.8</ele>
        <time>2022-05-20 19:57:31</time>
      </trkpt>
      <trkpt lat="41.22621" lon="1.26551">
        <ele>134</ele>
        <time>2022-05-20 19:57:32</time>
      </trkpt>
      <trkpt lat="41.22615" lon="1.26562">
        <ele>133.8</ele>
        <time>2022-05-20 19:57:33</time>
      </trkpt>
      <trkpt lat="41.22608" lon="1.26571">
        <ele>133.8</ele>
        <time>2022-05-20 19:57:34</time>
      </trkpt>
      <trkpt lat="41.22602" lon="1.26581">
        <ele>133.6</ele>
        <time>2022-05-20 19:57:35</time>
      </trkpt>
      <trkpt lat="41.22595" lon="1.2659">
        <ele>133.8</ele>
        <time>2022-05-20 19:57:36</time>
      </trkpt>
      <trkpt lat="41.22589" lon="1.26599">
        <ele>133.8</ele>
        <time>2022-05-20 19:57:37</time>
      </trkpt>
      <trkpt lat="41.22582" lon="1.26608">
        <ele>133.8</ele>
        <time>2022-05-20 19:57:38</time>
      </trkpt>
      <trkpt lat="41.22576" lon="1.26617">
        <ele>134.2</ele>
        <time>2022-05-20 19:57:39</time>
      </trkpt>
      <trkpt lat="41.2257" lon="1.26625">
        <ele>134.4</ele>
        <time>2022-05-20 19:57:40</time>
      </trkpt>
      <trkpt lat="41.22564" lon="1.26633">
        <ele>134.8</ele>
        <time>2022-05-20 19:57:41</time>
      </trkpt>
      <trkpt lat="41.22558" lon="1.26641">
        <ele>135.2</ele>
        <time>2022-05-20 19:57:42</time>
      </trkpt>
      <trkpt lat="41.22553" lon="1.26648">
        <ele>135.4</ele>
        <time>2022-05-20 19:57:43</time>
      </trkpt>
      <trkpt lat="41.22547" lon="1.26656">
        <ele>135.8</ele>
        <time>2022-05-20 19:57:44</time>
      </trkpt>
      <trkpt lat="41.22542" lon="1.26663">
        <ele>136.2</ele>
        <time>2022-05-20 19:57:45</time>
      </trkpt>
      <trkpt lat="41.22536" lon="1.26671">
        <ele>136.4</ele>
        <time>2022-05-20 19:57:46</time>
      </trkpt>
      <trkpt lat="41.22531" lon="1.26678">
        <ele>136.8</ele>
        <time>2022-05-20 19:57:47</time>
      </trkpt>
      <trkpt lat="41.22526" lon="1.26685">
        <ele>137.2</ele>
        <time>2022-05-20 19:57:48</time>
      </trkpt>
      <trkpt lat="41.22521" lon="1.26692">
        <ele>137.6</ele>
        <time>2022-05-20 19:57:49</time>
      </trkpt>
      <trkpt lat="41.22517" lon="1.26699">
        <ele>138</ele>
        <time>2022-05-20 19:57:50</time>
      </trkpt>
      <trkpt lat="41.22512" lon="1.26705">
        <ele>138.4</ele>
        <time>2022-05-20 19:57:51</time>
      </trkpt>
      <trkpt lat="41.22507" lon="1.26712">
        <ele>138.6</ele>
        <time>2022-05-20 19:57:52</time>
      </trkpt>
      <trkpt lat="41.22503" lon="1.26718">
        <ele>139</ele>
        <time>2022-05-20 19:57:53</time>
      </trkpt>
      <trkpt lat="41.22498" lon="1.26725">
        <ele>139.4</ele>
        <time>2022-05-20 19:57:54</time>
      </trkpt>
      <trkpt lat="41.22493" lon="1.26731">
        <ele>139.8</ele>
        <time>2022-05-20 19:57:55</time>
      </trkpt>
      <trkpt lat="41.22488" lon="1.26737">
        <ele>140</ele>
        <time>2022-05-20 19:57:56</time>
      </trkpt>
      <trkpt lat="41.22484" lon="1.26743">
        <ele>140.4</ele>
        <time>2022-05-20 19:57:57</time>
      </trkpt>
      <trkpt lat="41.22479" lon="1.2675">
        <ele>140.8</ele>
        <time>2022-05-20 19:57:58</time>
      </trkpt>
      <trkpt lat="41.22475" lon="1.26756">
        <ele>141</ele>
        <time>2022-05-20 19:57:59</time>
      </trkpt>
      <trkpt lat="41.22471" lon="1.26762">
        <ele>141.4</ele>
        <time>2022-05-20 19:58:00</time>
      </trkpt>
      <trkpt lat="41.22466" lon="1.26769">
        <ele>141.6</ele>
        <time>2022-05-20 19:58:01</time>
      </trkpt>
      <trkpt lat="41.22462" lon="1.26775">
        <ele>142</ele>
        <time>2022-05-20 19:58:02</time>
      </trkpt>
      <trkpt lat="41.22458" lon="1.26782">
        <ele>142.2</ele>
        <time>2022-05-20 19:58:03</time>
      </trkpt>
      <trkpt lat="41.22454" lon="1.26788">
        <ele>142.6</ele>
        <time>2022-05-20 19:58:04</time>
      </trkpt>
      <trkpt lat="41.22451" lon="1.26795">
        <ele>142.8</ele>
        <time>2022-05-20 19:58:05</time>
      </trkpt>
      <trkpt lat="41.22447" lon="1.26801">
        <ele>143</ele>
        <time>2022-05-20 19:58:06</time>
      </trkpt>
      <trkpt lat="41.22443" lon="1.26808">
        <ele>143.4</ele>
        <time>2022-05-20 19:58:07</time>
      </trkpt>
      <trkpt lat="41.2244" lon="1.26815">
        <ele>143.6</ele>
        <time>2022-05-20 19:58:08</time>
      </trkpt>
      <trkpt lat="41.22436" lon="1.26822">
        <ele>144</ele>
        <time>2022-05-20 19:58:09</time>
      </trkpt>
      <trkpt lat="41.22433" lon="1.26829">
        <ele>144.2</ele>
        <time>2022-05-20 19:58:10</time>
      </trkpt>
      <trkpt lat="41.22429" lon="1.26836">
        <ele>144.4</ele>
        <time>2022-05-20 19:58:11</time>
      </trkpt>
      <trkpt lat="41.22426" lon="1.26844">
        <ele>144.6</ele>
        <time>2022-05-20 19:58:12</time>
      </trkpt>
      <trkpt lat="41.22423" lon="1.26851">
        <ele>145</ele>
        <time>2022-05-20 19:58:13</time>
      </trkpt>
      <trkpt lat="41.2242" lon="1.26858">
        <ele>145.2</ele>
        <time>2022-05-20 19:58:14</time>
      </trkpt>
      <trkpt lat="41.22416" lon="1.26865">
        <ele>145.4</ele>
        <time>2022-05-20 19:58:15</time>
      </trkpt>
      <trkpt lat="41.22413" lon="1.26873">
        <ele>145.6</ele>
        <time>2022-05-20 19:58:16</time>
      </trkpt>
      <trkpt lat="41.2241" lon="1.2688">
        <ele>145.8</ele>
        <time>2022-05-20 19:58:17</time>
      </trkpt>
      <trkpt lat="41.22408" lon="1.26887">
        <ele>146</ele>
        <time>2022-05-20 19:58:18</time>
      </trkpt>
      <trkpt lat="41.22404" lon="1.26894">
        <ele>146.4</ele>
        <time>2022-05-20 19:58:19</time>
      </trkpt>
      <trkpt lat="41.22401" lon="1.26901">
        <ele>146.6</ele>
        <time>2022-05-20 19:58:20</time>
      </trkpt>
      <trkpt lat="41.22398" lon="1.26908">
        <ele>146.8</ele>
        <time>2022-05-20 19:58:21</time>
      </trkpt>
      <trkpt lat="41.22396" lon="1.26915">
        <ele>147</ele>
        <time>2022-05-20 19:58:22</time>
      </trkpt>
      <trkpt lat="41.22393" lon="1.26923">
        <ele>147.2</ele>
        <time>2022-05-20 19:58:23</time>
      </trkpt>
      <trkpt lat="41.2239" lon="1.26931">
        <ele>147.4</ele>
        <time>2022-05-20 19:58:24</time>
      </trkpt>
      <trkpt lat="41.22388" lon="1.26938">
        <ele>147.6</ele>
        <time>2022-05-20 19:58:25</time>
      </trkpt>
      <trkpt lat="41.22385" lon="1.26945">
        <ele>147.8</ele>
        <time>2022-05-20 19:58:26</time>
      </trkpt>
      <trkpt lat="41.22382" lon="1.26953">
        <ele>148.2</ele>
        <time>2022-05-20 19:58:27</time>
      </trkpt>
      <trkpt lat="41.2238" lon="1.2696">
        <ele>148.4</ele>
        <time>2022-05-20 19:58:28</time>
      </trkpt>
      <trkpt lat="41.22377" lon="1.26968">
        <ele>148.6</ele>
        <time>2022-05-20 19:58:29</time>
      </trkpt>
      <trkpt lat="41.22375" lon="1.26976">
        <ele>148.8</ele>
        <time>2022-05-20 19:58:30</time>
      </trkpt>
      <trkpt lat="41.22372" lon="1.26983">
        <ele>149</ele>
        <time>2022-05-20 19:58:31</time>
      </trkpt>
      <trkpt lat="41.2237" lon="1.2699">
        <ele>149.4</ele>
        <time>2022-05-20 19:58:32</time>
      </trkpt>
      <trkpt lat="41.22367" lon="1.26998">
        <ele>149.6</ele>
        <time>2022-05-20 19:58:33</time>
      </trkpt>
      <trkpt lat="41.22364" lon="1.27005">
        <ele>149.8</ele>
        <time>2022-05-20 19:58:34</time>
      </trkpt>
      <trkpt lat="41.2236" lon="1.27012">
        <ele>150</ele>
        <time>2022-05-20 19:58:35</time>
      </trkpt>
      <trkpt lat="41.22356" lon="1.27019">
        <ele>150.2</ele>
        <time>2022-05-20 19:58:36</time>
      </trkpt>
      <trkpt lat="41.22352" lon="1.27025">
        <ele>150.4</ele>
        <time>2022-05-20 19:58:37</time>
      </trkpt>
      <trkpt lat="41.22348" lon="1.27031">
        <ele>150.6</ele>
        <time>2022-05-20 19:58:38</time>
      </trkpt>
      <trkpt lat="41.22343" lon="1.27036">
        <ele>150.6</ele>
        <time>2022-05-20 19:58:39</time>
      </trkpt>
      <trkpt lat="41.22338" lon="1.27041">
        <ele>151</ele>
        <time>2022-05-20 19:58:40</time>
      </trkpt>
      <trkpt lat="41.22332" lon="1.27046">
        <ele>151.2</ele>
        <time>2022-05-20 19:58:41</time>
      </trkpt>
      <trkpt lat="41.22328" lon="1.2705">
        <ele>151.2</ele>
        <time>2022-05-20 19:58:42</time>
      </trkpt>
      <trkpt lat="41.22325" lon="1.27052">
        <ele>151.4</ele>
        <time>2022-05-20 19:58:43</time>
      </trkpt>
      <trkpt lat="41.22317" lon="1.27059">
        <ele>151.6</ele>
        <time>2022-05-20 19:58:44</time>
      </trkpt>
      <trkpt lat="41.22312" lon="1.27063">
        <ele>152</ele>
        <time>2022-05-20 19:58:45</time>
      </trkpt>
      <trkpt lat="41.22307" lon="1.27067">
        <ele>152.2</ele>
        <time>2022-05-20 19:58:46</time>
      </trkpt>
      <trkpt lat="41.22302" lon="1.27072">
        <ele>152.4</ele>
        <time>2022-05-20 19:58:47</time>
      </trkpt>
      <trkpt lat="41.22297" lon="1.27076">
        <ele>152.6</ele>
        <time>2022-05-20 19:58:48</time>
      </trkpt>
      <trkpt lat="41.22291" lon="1.27081">
        <ele>153</ele>
        <time>2022-05-20 19:58:49</time>
      </trkpt>
      <trkpt lat="41.22286" lon="1.27085">
        <ele>153.2</ele>
        <time>2022-05-20 19:58:50</time>
      </trkpt>
      <trkpt lat="41.2228" lon="1.27089">
        <ele>153.4</ele>
        <time>2022-05-20 19:58:51</time>
      </trkpt>
      <trkpt lat="41.22275" lon="1.27094">
        <ele>153.8</ele>
        <time>2022-05-20 19:58:52</time>
      </trkpt>
      <trkpt lat="41.22269" lon="1.27098">
        <ele>154</ele>
        <time>2022-05-20 19:58:53</time>
      </trkpt>
      <trkpt lat="41.22264" lon="1.27103">
        <ele>154</ele>
        <time>2022-05-20 19:58:54</time>
      </trkpt>
      <trkpt lat="41.22258" lon="1.27107">
        <ele>154.2</ele>
        <time>2022-05-20 19:58:55</time>
      </trkpt>
      <trkpt lat="41.22252" lon="1.27112">
        <ele>154.4</ele>
        <time>2022-05-20 19:58:56</time>
      </trkpt>
      <trkpt lat="41.22247" lon="1.27116">
        <ele>154.4</ele>
        <time>2022-05-20 19:58:57</time>
      </trkpt>
      <trkpt lat="41.22241" lon="1.27121">
        <ele>154.4</ele>
        <time>2022-05-20 19:58:58</time>
      </trkpt>
      <trkpt lat="41.22235" lon="1.27127">
        <ele>154.4</ele>
        <time>2022-05-20 19:58:59</time>
      </trkpt>
      <trkpt lat="41.22229" lon="1.27133">
        <ele>154.4</ele>
        <time>2022-05-20 19:59:00</time>
      </trkpt>
      <trkpt lat="41.22223" lon="1.27138">
        <ele>154.4</ele>
        <time>2022-05-20 19:59:01</time>
      </trkpt>
      <trkpt lat="41.22216" lon="1.27144">
        <ele>154.2</ele>
        <time>2022-05-20 19:59:02</time>
      </trkpt>
      <trkpt lat="41.2221" lon="1.2715">
        <ele>154.2</ele>
        <time>2022-05-20 19:59:03</time>
      </trkpt>
      <trkpt lat="41.22204" lon="1.27156">
        <ele>154.2</ele>
        <time>2022-05-20 19:59:04</time>
      </trkpt>
      <trkpt lat="41.22198" lon="1.27163">
        <ele>154</ele>
        <time>2022-05-20 19:59:05</time>
      </trkpt>
      <trkpt lat="41.22191" lon="1.27169">
        <ele>154</ele>
        <time>2022-05-20 19:59:06</time>
      </trkpt>
      <trkpt lat="41.22185" lon="1.27176">
        <ele>154</ele>
        <time>2022-05-20 19:59:07</time>
      </trkpt>
      <trkpt lat="41.22178" lon="1.27182">
        <ele>154</ele>
        <time>2022-05-20 19:59:08</time>
      </trkpt>
      <trkpt lat="41.22171" lon="1.27189">
        <ele>154</ele>
        <time>2022-05-20 19:59:09</time>
      </trkpt>
      <trkpt lat="41.22165" lon="1.27195">
        <ele>154</ele>
        <time>2022-05-20 19:59:10</time>
      </trkpt>
      <trkpt lat="41.22158" lon="1.27202">
        <ele>154</ele>
        <time>2022-05-20 19:59:11</time>
      </trkpt>
      <trkpt lat="41.22151" lon="1.27208">
        <ele>154</ele>
        <time>2022-05-20 19:59:12</time>
      </trkpt>
      <trkpt lat="41.22144" lon="1.27215">
        <ele>154</ele>
        <time>2022-05-20 19:59:13</time>
      </trkpt>
      <trkpt lat="41.22138" lon="1.27221">
        <ele>153.8</ele>
        <time>2022-05-20 19:59:14</time>
      </trkpt>
      <trkpt lat="41.22131" lon="1.27228">
        <ele>153.8</ele>
        <time>2022-05-20 19:59:15</time>
      </trkpt>
      <trkpt lat="41.22124" lon="1.27235">
        <ele>153.6</ele>
        <time>2022-05-20 19:59:16</time>
      </trkpt>
      <trkpt lat="41.22118" lon="1.27241">
        <ele>153.4</ele>
        <time>2022-05-20 19:59:17</time>
      </trkpt>
      <trkpt lat="41.22111" lon="1.27248">
        <ele>153.4</ele>
        <time>2022-05-20 19:59:18</time>
      </trkpt>
      <trkpt lat="41.22104" lon="1.27254">
        <ele>153.2</ele>
        <time>2022-05-20 19:59:19</time>
      </trkpt>
      <trkpt lat="41.22098" lon="1.27261">
        <ele>153.2</ele>
        <time>2022-05-20 19:59:20</time>
      </trkpt>
      <trkpt lat="41.22091" lon="1.27268">
        <ele>153</ele>
        <time>2022-05-20 19:59:21</time>
      </trkpt>
      <trkpt lat="41.22084" lon="1.27275">
        <ele>153</ele>
        <time>2022-05-20 19:59:22</time>
      </trkpt>
      <trkpt lat="41.22078" lon="1.27282">
        <ele>153</ele>
        <time>2022-05-20 19:59:23</time>
      </trkpt>
      <trkpt lat="41.22071" lon="1.27289">
        <ele>153</ele>
        <time>2022-05-20 19:59:24</time>
      </trkpt>
      <trkpt lat="41.22063" lon="1.27297">
        <ele>152.8</ele>
        <time>2022-05-20 19:59:25</time>
      </trkpt>
      <trkpt lat="41.22057" lon="1.27305">
        <ele>152.8</ele>
        <time>2022-05-20 19:59:26</time>
      </trkpt>
      <trkpt lat="41.2205" lon="1.27312">
        <ele>152.8</ele>
        <time>2022-05-20 19:59:27</time>
      </trkpt>
      <trkpt lat="41.22044" lon="1.27319">
        <ele>152.8</ele>
        <time>2022-05-20 19:59:28</time>
      </trkpt>
      <trkpt lat="41.22037" lon="1.27327">
        <ele>152.6</ele>
        <time>2022-05-20 19:59:29</time>
      </trkpt>
      <trkpt lat="41.2203" lon="1.27334">
        <ele>152.6</ele>
        <time>2022-05-20 19:59:30</time>
      </trkpt>
      <trkpt lat="41.22023" lon="1.27342">
        <ele>152.4</ele>
        <time>2022-05-20 19:59:31</time>
      </trkpt>
      <trkpt lat="41.22017" lon="1.27349">
        <ele>152.4</ele>
        <time>2022-05-20 19:59:32</time>
      </trkpt>
      <trkpt lat="41.2201" lon="1.27356">
        <ele>152.2</ele>
        <time>2022-05-20 19:59:33</time>
      </trkpt>
      <trkpt lat="41.22003" lon="1.27363">
        <ele>152.2</ele>
        <time>2022-05-20 19:59:34</time>
      </trkpt>
      <trkpt lat="41.21996" lon="1.2737">
        <ele>152.2</ele>
        <time>2022-05-20 19:59:35</time>
      </trkpt>
      <trkpt lat="41.21988" lon="1.27377">
        <ele>152</ele>
        <time>2022-05-20 19:59:36</time>
      </trkpt>
      <trkpt lat="41.2198" lon="1.27382">
        <ele>152</ele>
        <time>2022-05-20 19:59:37</time>
      </trkpt>
      <trkpt lat="41.21973" lon="1.27387">
        <ele>151.8</ele>
        <time>2022-05-20 19:59:38</time>
      </trkpt>
      <trkpt lat="41.21964" lon="1.27391">
        <ele>151.8</ele>
        <time>2022-05-20 19:59:39</time>
      </trkpt>
      <trkpt lat="41.21956" lon="1.27395">
        <ele>151.8</ele>
        <time>2022-05-20 19:59:40</time>
      </trkpt>
      <trkpt lat="41.21948" lon="1.27399">
        <ele>151.8</ele>
        <time>2022-05-20 19:59:41</time>
      </trkpt>
      <trkpt lat="41.2194" lon="1.27403">
        <ele>151.6</ele>
        <time>2022-05-20 19:59:42</time>
      </trkpt>
      <trkpt lat="41.21932" lon="1.27406">
        <ele>151.6</ele>
        <time>2022-05-20 19:59:43</time>
      </trkpt>
      <trkpt lat="41.21925" lon="1.2741">
        <ele>151.4</ele>
        <time>2022-05-20 19:59:44</time>
      </trkpt>
      <trkpt lat="41.21915" lon="1.27416">
        <ele>151.2</ele>
        <time>2022-05-20 19:59:45</time>
      </trkpt>
      <trkpt lat="41.21907" lon="1.27421">
        <ele>150.8</ele>
        <time>2022-05-20 19:59:46</time>
      </trkpt>
      <trkpt lat="41.21898" lon="1.27426">
        <ele>150.6</ele>
        <time>2022-05-20 19:59:47</time>
      </trkpt>
      <trkpt lat="41.21889" lon="1.27432">
        <ele>150.2</ele>
        <time>2022-05-20 19:59:48</time>
      </trkpt>
      <trkpt lat="41.2188" lon="1.27438">
        <ele>149.8</ele>
        <time>2022-05-20 19:59:49</time>
      </trkpt>
      <trkpt lat="41.21872" lon="1.27443">
        <ele>149.4</ele>
        <time>2022-05-20 19:59:50</time>
      </trkpt>
      <trkpt lat="41.21863" lon="1.2745">
        <ele>148.8</ele>
        <time>2022-05-20 19:59:51</time>
      </trkpt>
      <trkpt lat="41.21853" lon="1.27456">
        <ele>148.2</ele>
        <time>2022-05-20 19:59:52</time>
      </trkpt>
      <trkpt lat="41.21843" lon="1.27462">
        <ele>147.6</ele>
        <time>2022-05-20 19:59:53</time>
      </trkpt>
      <trkpt lat="41.21834" lon="1.27468">
        <ele>147</ele>
        <time>2022-05-20 19:59:54</time>
      </trkpt>
      <trkpt lat="41.21824" lon="1.27475">
        <ele>146.6</ele>
        <time>2022-05-20 19:59:55</time>
      </trkpt>
      <trkpt lat="41.21814" lon="1.27481">
        <ele>146</ele>
        <time>2022-05-20 19:59:56</time>
      </trkpt>
      <trkpt lat="41.21803" lon="1.27487">
        <ele>145.4</ele>
        <time>2022-05-20 19:59:57</time>
      </trkpt>
      <trkpt lat="41.21792" lon="1.27493">
        <ele>144.8</ele>
        <time>2022-05-20 19:59:58</time>
      </trkpt>
      <trkpt lat="41.21781" lon="1.27499">
        <ele>144.2</ele>
        <time>2022-05-20 19:59:59</time>
      </trkpt>
      <trkpt lat="41.21769" lon="1.27504">
        <ele>143.6</ele>
        <time>2022-05-20 20:00:00</time>
      </trkpt>
      <trkpt lat="41.21758" lon="1.2751">
        <ele>143</ele>
        <time>2022-05-20 20:00:01</time>
      </trkpt>
      <trkpt lat="41.21747" lon="1.27516">
        <ele>142.4</ele>
        <time>2022-05-20 20:00:02</time>
      </trkpt>
      <trkpt lat="41.21736" lon="1.27521">
        <ele>141.8</ele>
        <time>2022-05-20 20:00:03</time>
      </trkpt>
      <trkpt lat="41.21725" lon="1.27527">
        <ele>141.2</ele>
        <time>2022-05-20 20:00:04</time>
      </trkpt>
      <trkpt lat="41.21713" lon="1.27533">
        <ele>140.6</ele>
        <time>2022-05-20 20:00:05</time>
      </trkpt>
      <trkpt lat="41.21701" lon="1.27538">
        <ele>139.8</ele>
        <time>2022-05-20 20:00:06</time>
      </trkpt>
      <trkpt lat="41.21689" lon="1.27543">
        <ele>139</ele>
        <time>2022-05-20 20:00:07</time>
      </trkpt>
      <trkpt lat="41.21677" lon="1.27548">
        <ele>138.6</ele>
        <time>2022-05-20 20:00:08</time>
      </trkpt>
      <trkpt lat="41.21666" lon="1.27553">
        <ele>138</ele>
        <time>2022-05-20 20:00:09</time>
      </trkpt>
      <trkpt lat="41.21655" lon="1.27558">
        <ele>137.2</ele>
        <time>2022-05-20 20:00:10</time>
      </trkpt>
      <trkpt lat="41.21643" lon="1.27563">
        <ele>136.2</ele>
        <time>2022-05-20 20:00:11</time>
      </trkpt>
      <trkpt lat="41.2163" lon="1.27568">
        <ele>135.4</ele>
        <time>2022-05-20 20:00:12</time>
      </trkpt>
      <trkpt lat="41.21619" lon="1.27573">
        <ele>134.8</ele>
        <time>2022-05-20 20:00:13</time>
      </trkpt>
      <trkpt lat="41.21606" lon="1.27578">
        <ele>134.2</ele>
        <time>2022-05-20 20:00:14</time>
      </trkpt>
      <trkpt lat="41.21594" lon="1.27584">
        <ele>133.6</ele>
        <time>2022-05-20 20:00:15</time>
      </trkpt>
      <trkpt lat="41.21582" lon="1.27589">
        <ele>133</ele>
        <time>2022-05-20 20:00:16</time>
      </trkpt>
      <trkpt lat="41.21571" lon="1.27594">
        <ele>132.6</ele>
        <time>2022-05-20 20:00:17</time>
      </trkpt>
      <trkpt lat="41.2156" lon="1.27599">
        <ele>132.2</ele>
        <time>2022-05-20 20:00:18</time>
      </trkpt>
      <trkpt lat="41.21548" lon="1.27604">
        <ele>131.8</ele>
        <time>2022-05-20 20:00:19</time>
      </trkpt>
      <trkpt lat="41.21537" lon="1.27609">
        <ele>131.6</ele>
        <time>2022-05-20 20:00:20</time>
      </trkpt>
      <trkpt lat="41.21526" lon="1.27614">
        <ele>131.2</ele>
        <time>2022-05-20 20:00:21</time>
      </trkpt>
      <trkpt lat="41.21515" lon="1.27619">
        <ele>130.8</ele>
        <time>2022-05-20 20:00:22</time>
      </trkpt>
      <trkpt lat="41.21503" lon="1.27623">
        <ele>130.6</ele>
        <time>2022-05-20 20:00:23</time>
      </trkpt>
      <trkpt lat="41.21492" lon="1.27628">
        <ele>130.2</ele>
        <time>2022-05-20 20:00:24</time>
      </trkpt>
      <trkpt lat="41.21481" lon="1.27633">
        <ele>129.8</ele>
        <time>2022-05-20 20:00:25</time>
      </trkpt>
      <trkpt lat="41.21471" lon="1.27638">
        <ele>129.4</ele>
        <time>2022-05-20 20:00:26</time>
      </trkpt>
      <trkpt lat="41.2146" lon="1.27643">
        <ele>129.2</ele>
        <time>2022-05-20 20:00:27</time>
      </trkpt>
      <trkpt lat="41.21449" lon="1.27647">
        <ele>129</ele>
        <time>2022-05-20 20:00:28</time>
      </trkpt>
      <trkpt lat="41.21439" lon="1.27651">
        <ele>128.8</ele>
        <time>2022-05-20 20:00:29</time>
      </trkpt>
      <trkpt lat="41.21428" lon="1.27656">
        <ele>128.4</ele>
        <time>2022-05-20 20:00:30</time>
      </trkpt>
      <trkpt lat="41.21418" lon="1.2766">
        <ele>128.2</ele>
        <time>2022-05-20 20:00:31</time>
      </trkpt>
      <trkpt lat="41.21407" lon="1.27664">
        <ele>128</ele>
        <time>2022-05-20 20:00:32</time>
      </trkpt>
      <trkpt lat="41.21396" lon="1.27668">
        <ele>127.8</ele>
        <time>2022-05-20 20:00:33</time>
      </trkpt>
      <trkpt lat="41.21385" lon="1.27673">
        <ele>127.6</ele>
        <time>2022-05-20 20:00:34</time>
      </trkpt>
      <trkpt lat="41.21375" lon="1.27677">
        <ele>127.4</ele>
        <time>2022-05-20 20:00:35</time>
      </trkpt>
      <trkpt lat="41.21364" lon="1.27681">
        <ele>127.4</ele>
        <time>2022-05-20 20:00:36</time>
      </trkpt>
      <trkpt lat="41.21354" lon="1.27685">
        <ele>127.2</ele>
        <time>2022-05-20 20:00:37</time>
      </trkpt>
      <trkpt lat="41.21343" lon="1.27689">
        <ele>127.2</ele>
        <time>2022-05-20 20:00:38</time>
      </trkpt>
      <trkpt lat="41.21333" lon="1.27692">
        <ele>127</ele>
        <time>2022-05-20 20:00:39</time>
      </trkpt>
      <trkpt lat="41.21323" lon="1.27696">
        <ele>127</ele>
        <time>2022-05-20 20:00:40</time>
      </trkpt>
      <trkpt lat="41.21314" lon="1.277">
        <ele>127</ele>
        <time>2022-05-20 20:00:41</time>
      </trkpt>
      <trkpt lat="41.21304" lon="1.27704">
        <ele>127</ele>
        <time>2022-05-20 20:00:42</time>
      </trkpt>
      <trkpt lat="41.21295" lon="1.27707">
        <ele>127</ele>
        <time>2022-05-20 20:00:43</time>
      </trkpt>
      <trkpt lat="41.21285" lon="1.27711">
        <ele>127</ele>
        <time>2022-05-20 20:00:44</time>
      </trkpt>
      <trkpt lat="41.21276" lon="1.27715">
        <ele>126.8</ele>
        <time>2022-05-20 20:00:45</time>
      </trkpt>
      <trkpt lat="41.21266" lon="1.27718">
        <ele>126.8</ele>
        <time>2022-05-20 20:00:46</time>
      </trkpt>
      <trkpt lat="41.21257" lon="1.27722">
        <ele>126.8</ele>
        <time>2022-05-20 20:00:47</time>
      </trkpt>
      <trkpt lat="41.21247" lon="1.27725">
        <ele>126.8</ele>
        <time>2022-05-20 20:00:48</time>
      </trkpt>
      <trkpt lat="41.21238" lon="1.27729">
        <ele>126.6</ele>
        <time>2022-05-20 20:00:49</time>
      </trkpt>
      <trkpt lat="41.21229" lon="1.27733">
        <ele>126.6</ele>
        <time>2022-05-20 20:00:50</time>
      </trkpt>
      <trkpt lat="41.2122" lon="1.27737">
        <ele>126.6</ele>
        <time>2022-05-20 20:00:51</time>
      </trkpt>
      <trkpt lat="41.21212" lon="1.27741">
        <ele>126.6</ele>
        <time>2022-05-20 20:00:52</time>
      </trkpt>
      <trkpt lat="41.21204" lon="1.27745">
        <ele>126.8</ele>
        <time>2022-05-20 20:00:53</time>
      </trkpt>
      <trkpt lat="41.21196" lon="1.27749">
        <ele>126.8</ele>
        <time>2022-05-20 20:00:54</time>
      </trkpt>
      <trkpt lat="41.21188" lon="1.27754">
        <ele>126.8</ele>
        <time>2022-05-20 20:00:55</time>
      </trkpt>
      <trkpt lat="41.21179" lon="1.27759">
        <ele>126.8</ele>
        <time>2022-05-20 20:00:56</time>
      </trkpt>
      <trkpt lat="41.21171" lon="1.27765">
        <ele>126.6</ele>
        <time>2022-05-20 20:00:57</time>
      </trkpt>
      <trkpt lat="41.21163" lon="1.27771">
        <ele>126.6</ele>
        <time>2022-05-20 20:00:58</time>
      </trkpt>
      <trkpt lat="41.21154" lon="1.27777">
        <ele>126.4</ele>
        <time>2022-05-20 20:00:59</time>
      </trkpt>
      <trkpt lat="41.21144" lon="1.27782">
        <ele>126.2</ele>
        <time>2022-05-20 20:01:00</time>
      </trkpt>
      <trkpt lat="41.21135" lon="1.27787">
        <ele>125.8</ele>
        <time>2022-05-20 20:01:01</time>
      </trkpt>
      <trkpt lat="41.21125" lon="1.27792">
        <ele>125.6</ele>
        <time>2022-05-20 20:01:02</time>
      </trkpt>
      <trkpt lat="41.21116" lon="1.27798">
        <ele>125.4</ele>
        <time>2022-05-20 20:01:03</time>
      </trkpt>
      <trkpt lat="41.21106" lon="1.27804">
        <ele>125</ele>
        <time>2022-05-20 20:01:04</time>
      </trkpt>
      <trkpt lat="41.21097" lon="1.27809">
        <ele>124.6</ele>
        <time>2022-05-20 20:01:05</time>
      </trkpt>
      <trkpt lat="41.21088" lon="1.27814">
        <ele>124.2</ele>
        <time>2022-05-20 20:01:06</time>
      </trkpt>
      <trkpt lat="41.2108" lon="1.27818">
        <ele>124</ele>
        <time>2022-05-20 20:01:07</time>
      </trkpt>
      <trkpt lat="41.21072" lon="1.2782">
        <ele>123.6</ele>
        <time>2022-05-20 20:01:08</time>
      </trkpt>
      <trkpt lat="41.21057" lon="1.27824">
        <ele>123.2</ele>
        <time>2022-05-20 20:01:09</time>
      </trkpt>
      <trkpt lat="41.21046" lon="1.27826">
        <ele>122.8</ele>
        <time>2022-05-20 20:01:10</time>
      </trkpt>
      <trkpt lat="41.21036" lon="1.27827">
        <ele>122.6</ele>
        <time>2022-05-20 20:01:11</time>
      </trkpt>
      <trkpt lat="41.21025" lon="1.27829">
        <ele>122.2</ele>
        <time>2022-05-20 20:01:12</time>
      </trkpt>
      <trkpt lat="41.21014" lon="1.27831">
        <ele>121.8</ele>
        <time>2022-05-20 20:01:13</time>
      </trkpt>
      <trkpt lat="41.21003" lon="1.27834">
        <ele>121.6</ele>
        <time>2022-05-20 20:01:14</time>
      </trkpt>
      <trkpt lat="41.20992" lon="1.27836">
        <ele>121.2</ele>
        <time>2022-05-20 20:01:15</time>
      </trkpt>
      <trkpt lat="41.20982" lon="1.27838">
        <ele>121.2</ele>
        <time>2022-05-20 20:01:16</time>
      </trkpt>
      <trkpt lat="41.20973" lon="1.27841">
        <ele>121</ele>
        <time>2022-05-20 20:01:17</time>
      </trkpt>
      <trkpt lat="41.20963" lon="1.27843">
        <ele>120.8</ele>
        <time>2022-05-20 20:01:18</time>
      </trkpt>
      <trkpt lat="41.20953" lon="1.27846">
        <ele>120.8</ele>
        <time>2022-05-20 20:01:19</time>
      </trkpt>
      <trkpt lat="41.20943" lon="1.27849">
        <ele>121</ele>
        <time>2022-05-20 20:01:20</time>
      </trkpt>
      <trkpt lat="41.20934" lon="1.27852">
        <ele>121</ele>
        <time>2022-05-20 20:01:21</time>
      </trkpt>
      <trkpt lat="41.20925" lon="1.27856">
        <ele>120.8</ele>
        <time>2022-05-20 20:01:22</time>
      </trkpt>
      <trkpt lat="41.20916" lon="1.2786">
        <ele>120.8</ele>
        <time>2022-05-20 20:01:23</time>
      </trkpt>
      <trkpt lat="41.20905" lon="1.27865">
        <ele>120.8</ele>
        <time>2022-05-20 20:01:24</time>
      </trkpt>
      <trkpt lat="41.20895" lon="1.27869">
        <ele>120.6</ele>
        <time>2022-05-20 20:01:25</time>
      </trkpt>
      <trkpt lat="41.20886" lon="1.27872">
        <ele>120.6</ele>
        <time>2022-05-20 20:01:26</time>
      </trkpt>
      <trkpt lat="41.20877" lon="1.27876">
        <ele>120.6</ele>
        <time>2022-05-20 20:01:27</time>
      </trkpt>
      <trkpt lat="41.20868" lon="1.27881">
        <ele>120.6</ele>
        <time>2022-05-20 20:01:28</time>
      </trkpt>
      <trkpt lat="41.20859" lon="1.27885">
        <ele>120.6</ele>
        <time>2022-05-20 20:01:29</time>
      </trkpt>
      <trkpt lat="41.2085" lon="1.27889">
        <ele>120.8</ele>
        <time>2022-05-20 20:01:30</time>
      </trkpt>
      <trkpt lat="41.20842" lon="1.27893">
        <ele>121</ele>
        <time>2022-05-20 20:01:31</time>
      </trkpt>
      <trkpt lat="41.20834" lon="1.27897">
        <ele>121.2</ele>
        <time>2022-05-20 20:01:32</time>
      </trkpt>
      <trkpt lat="41.20824" lon="1.279">
        <ele>121.4</ele>
        <time>2022-05-20 20:01:33</time>
      </trkpt>
      <trkpt lat="41.20815" lon="1.27903">
        <ele>121.8</ele>
        <time>2022-05-20 20:01:34</time>
      </trkpt>
      <trkpt lat="41.20807" lon="1.27906">
        <ele>122.2</ele>
        <time>2022-05-20 20:01:35</time>
      </trkpt>
      <trkpt lat="41.208" lon="1.27909">
        <ele>122.6</ele>
        <time>2022-05-20 20:01:36</time>
      </trkpt>
      <trkpt lat="41.20794" lon="1.27911">
        <ele>123.2</ele>
        <time>2022-05-20 20:01:37</time>
      </trkpt>
      <trkpt lat="41.20786" lon="1.27912">
        <ele>123.6</ele>
        <time>2022-05-20 20:01:38</time>
      </trkpt>
      <trkpt lat="41.20779" lon="1.27912">
        <ele>124</ele>
        <time>2022-05-20 20:01:39</time>
      </trkpt>
      <trkpt lat="41.20772" lon="1.27912">
        <ele>124.4</ele>
        <time>2022-05-20 20:01:40</time>
      </trkpt>
      <trkpt lat="41.20766" lon="1.27911">
        <ele>125</ele>
        <time>2022-05-20 20:01:41</time>
      </trkpt>
      <trkpt lat="41.2076" lon="1.27908">
        <ele>125.4</ele>
        <time>2022-05-20 20:01:42</time>
      </trkpt>
      <trkpt lat="41.20754" lon="1.27906">
        <ele>125.8</ele>
        <time>2022-05-20 20:01:43</time>
      </trkpt>
      <trkpt lat="41.20747" lon="1.27903">
        <ele>126.2</ele>
        <time>2022-05-20 20:01:44</time>
      </trkpt>
      <trkpt lat="41.20742" lon="1.27899">
        <ele>126.6</ele>
        <time>2022-05-20 20:01:45</time>
      </trkpt>
      <trkpt lat="41.20736" lon="1.27896">
        <ele>126.8</ele>
        <time>2022-05-20 20:01:46</time>
      </trkpt>
      <trkpt lat="41.2073" lon="1.27893">
        <ele>127.2</ele>
        <time>2022-05-20 20:01:47</time>
      </trkpt>
      <trkpt lat="41.20725" lon="1.2789">
        <ele>127.6</ele>
        <time>2022-05-20 20:01:48</time>
      </trkpt>
      <trkpt lat="41.2072" lon="1.27886">
        <ele>128</ele>
        <time>2022-05-20 20:01:49</time>
      </trkpt>
      <trkpt lat="41.20714" lon="1.27883">
        <ele>128.4</ele>
        <time>2022-05-20 20:01:50</time>
      </trkpt>
      <trkpt lat="41.20709" lon="1.2788">
        <ele>128.6</ele>
        <time>2022-05-20 20:01:51</time>
      </trkpt>
      <trkpt lat="41.20704" lon="1.27876">
        <ele>129</ele>
        <time>2022-05-20 20:01:52</time>
      </trkpt>
      <trkpt lat="41.20699" lon="1.27873">
        <ele>129.4</ele>
        <time>2022-05-20 20:01:53</time>
      </trkpt>
      <trkpt lat="41.20694" lon="1.2787">
        <ele>129.8</ele>
        <time>2022-05-20 20:01:54</time>
      </trkpt>
      <trkpt lat="41.20689" lon="1.27868">
        <ele>130</ele>
        <time>2022-05-20 20:01:55</time>
      </trkpt>
      <trkpt lat="41.20684" lon="1.27865">
        <ele>130.4</ele>
        <time>2022-05-20 20:01:56</time>
      </trkpt>
      <trkpt lat="41.20679" lon="1.27862">
        <ele>130.6</ele>
        <time>2022-05-20 20:01:57</time>
      </trkpt>
      <trkpt lat="41.20674" lon="1.27859">
        <ele>131</ele>
        <time>2022-05-20 20:01:58</time>
      </trkpt>
      <trkpt lat="41.20669" lon="1.27857">
        <ele>131.2</ele>
        <time>2022-05-20 20:01:59</time>
      </trkpt>
      <trkpt lat="41.20664" lon="1.27854">
        <ele>131.4</ele>
        <time>2022-05-20 20:02:00</time>
      </trkpt>
      <trkpt lat="41.20659" lon="1.27852">
        <ele>131.8</ele>
        <time>2022-05-20 20:02:01</time>
      </trkpt>
      <trkpt lat="41.20655" lon="1.2785">
        <ele>132</ele>
        <time>2022-05-20 20:02:02</time>
      </trkpt>
      <trkpt lat="41.2065" lon="1.27849">
        <ele>132.2</ele>
        <time>2022-05-20 20:02:03</time>
      </trkpt>
      <trkpt lat="41.20646" lon="1.27847">
        <ele>132.6</ele>
        <time>2022-05-20 20:02:04</time>
      </trkpt>
      <trkpt lat="41.20641" lon="1.27846">
        <ele>132.8</ele>
        <time>2022-05-20 20:02:05</time>
      </trkpt>
      <trkpt lat="41.20635" lon="1.27845">
        <ele>133</ele>
        <time>2022-05-20 20:02:06</time>
      </trkpt>
      <trkpt lat="41.2063" lon="1.27843">
        <ele>133.2</ele>
        <time>2022-05-20 20:02:07</time>
      </trkpt>
      <trkpt lat="41.20623" lon="1.27842">
        <ele>133.4</ele>
        <time>2022-05-20 20:02:08</time>
      </trkpt>
      <trkpt lat="41.20617" lon="1.27841">
        <ele>133.4</ele>
        <time>2022-05-20 20:02:09</time>
      </trkpt>
      <trkpt lat="41.2061" lon="1.27839">
        <ele>133.6</ele>
        <time>2022-05-20 20:02:10</time>
      </trkpt>
      <trkpt lat="41.20604" lon="1.27838">
        <ele>133.8</ele>
        <time>2022-05-20 20:02:11</time>
      </trkpt>
      <trkpt lat="41.20597" lon="1.27837">
        <ele>133.8</ele>
        <time>2022-05-20 20:02:12</time>
      </trkpt>
      <trkpt lat="41.20591" lon="1.27837">
        <ele>134</ele>
        <time>2022-05-20 20:02:13</time>
      </trkpt>
      <trkpt lat="41.20584" lon="1.27836">
        <ele>134</ele>
        <time>2022-05-20 20:02:14</time>
      </trkpt>
      <trkpt lat="41.20577" lon="1.27835">
        <ele>134</ele>
        <time>2022-05-20 20:02:15</time>
      </trkpt>
      <trkpt lat="41.2057" lon="1.27835">
        <ele>134</ele>
        <time>2022-05-20 20:02:16</time>
      </trkpt>
      <trkpt lat="41.20563" lon="1.27834">
        <ele>134.2</ele>
        <time>2022-05-20 20:02:17</time>
      </trkpt>
      <trkpt lat="41.20556" lon="1.27833">
        <ele>134.2</ele>
        <time>2022-05-20 20:02:18</time>
      </trkpt>
      <trkpt lat="41.20549" lon="1.27832">
        <ele>134.4</ele>
        <time>2022-05-20 20:02:19</time>
      </trkpt>
      <trkpt lat="41.20542" lon="1.27831">
        <ele>134.4</ele>
        <time>2022-05-20 20:02:20</time>
      </trkpt>
      <trkpt lat="41.20535" lon="1.2783">
        <ele>134.6</ele>
        <time>2022-05-20 20:02:21</time>
      </trkpt>
      <trkpt lat="41.20528" lon="1.27829">
        <ele>134.6</ele>
        <time>2022-05-20 20:02:22</time>
      </trkpt>
      <trkpt lat="41.2052" lon="1.27828">
        <ele>134.8</ele>
        <time>2022-05-20 20:02:23</time>
      </trkpt>
      <trkpt lat="41.20514" lon="1.27827">
        <ele>135</ele>
        <time>2022-05-20 20:02:24</time>
      </trkpt>
      <trkpt lat="41.20507" lon="1.27826">
        <ele>135</ele>
        <time>2022-05-20 20:02:25</time>
      </trkpt>
      <trkpt lat="41.205" lon="1.27826">
        <ele>135.2</ele>
        <time>2022-05-20 20:02:26</time>
      </trkpt>
      <trkpt lat="41.20493" lon="1.27825">
        <ele>135.4</ele>
        <time>2022-05-20 20:02:27</time>
      </trkpt>
      <trkpt lat="41.20486" lon="1.27824">
        <ele>135.4</ele>
        <time>2022-05-20 20:02:28</time>
      </trkpt>
      <trkpt lat="41.20479" lon="1.27823">
        <ele>135.6</ele>
        <time>2022-05-20 20:02:29</time>
      </trkpt>
      <trkpt lat="41.20472" lon="1.27822">
        <ele>135.6</ele>
        <time>2022-05-20 20:02:30</time>
      </trkpt>
      <trkpt lat="41.20465" lon="1.27822">
        <ele>135.8</ele>
        <time>2022-05-20 20:02:31</time>
      </trkpt>
      <trkpt lat="41.20458" lon="1.27821">
        <ele>135.8</ele>
        <time>2022-05-20 20:02:32</time>
      </trkpt>
      <trkpt lat="41.20451" lon="1.2782">
        <ele>136</ele>
        <time>2022-05-20 20:02:33</time>
      </trkpt>
      <trkpt lat="41.20444" lon="1.27819">
        <ele>136</ele>
        <time>2022-05-20 20:02:34</time>
      </trkpt>
      <trkpt lat="41.20438" lon="1.27818">
        <ele>136.2</ele>
        <time>2022-05-20 20:02:35</time>
      </trkpt>
      <trkpt lat="41.2043" lon="1.27817">
        <ele>136.2</ele>
        <time>2022-05-20 20:02:36</time>
      </trkpt>
      <trkpt lat="41.20424" lon="1.27816">
        <ele>136.4</ele>
        <time>2022-05-20 20:02:37</time>
      </trkpt>
      <trkpt lat="41.20417" lon="1.27815">
        <ele>136.4</ele>
        <time>2022-05-20 20:02:38</time>
      </trkpt>
      <trkpt lat="41.2041" lon="1.27814">
        <ele>136.4</ele>
        <time>2022-05-20 20:02:39</time>
      </trkpt>
      <trkpt lat="41.20403" lon="1.27814">
        <ele>136.4</ele>
        <time>2022-05-20 20:02:40</time>
      </trkpt>
      <trkpt lat="41.20396" lon="1.27813">
        <ele>136.6</ele>
        <time>2022-05-20 20:02:41</time>
      </trkpt>
      <trkpt lat="41.20389" lon="1.27812">
        <ele>136.6</ele>
        <time>2022-05-20 20:02:42</time>
      </trkpt>
      <trkpt lat="41.20382" lon="1.27811">
        <ele>136.6</ele>
        <time>2022-05-20 20:02:43</time>
      </trkpt>
      <trkpt lat="41.20375" lon="1.2781">
        <ele>136.6</ele>
        <time>2022-05-20 20:02:44</time>
      </trkpt>
      <trkpt lat="41.20368" lon="1.2781">
        <ele>136.6</ele>
        <time>2022-05-20 20:02:45</time>
      </trkpt>
      <trkpt lat="41.20361" lon="1.27809">
        <ele>136.6</ele>
        <time>2022-05-20 20:02:46</time>
      </trkpt>
      <trkpt lat="41.20354" lon="1.27808">
        <ele>136.6</ele>
        <time>2022-05-20 20:02:47</time>
      </trkpt>
      <trkpt lat="41.20347" lon="1.27808">
        <ele>136.8</ele>
        <time>2022-05-20 20:02:48</time>
      </trkpt>
      <trkpt lat="41.2034" lon="1.27807">
        <ele>137</ele>
        <time>2022-05-20 20:02:49</time>
      </trkpt>
      <trkpt lat="41.20333" lon="1.27806">
        <ele>137</ele>
        <time>2022-05-20 20:02:50</time>
      </trkpt>
      <trkpt lat="41.20327" lon="1.27805">
        <ele>137</ele>
        <time>2022-05-20 20:02:51</time>
      </trkpt>
      <trkpt lat="41.2032" lon="1.27805">
        <ele>137.2</ele>
        <time>2022-05-20 20:02:52</time>
      </trkpt>
      <trkpt lat="41.20313" lon="1.27805">
        <ele>137.4</ele>
        <time>2022-05-20 20:02:53</time>
      </trkpt>
      <trkpt lat="41.20306" lon="1.27806">
        <ele>137.6</ele>
        <time>2022-05-20 20:02:54</time>
      </trkpt>
      <trkpt lat="41.20299" lon="1.27808">
        <ele>137.6</ele>
        <time>2022-05-20 20:02:55</time>
      </trkpt>
      <trkpt lat="41.20293" lon="1.2781">
        <ele>137.8</ele>
        <time>2022-05-20 20:02:56</time>
      </trkpt>
      <trkpt lat="41.20286" lon="1.27813">
        <ele>138</ele>
        <time>2022-05-20 20:02:57</time>
      </trkpt>
      <trkpt lat="41.2028" lon="1.27816">
        <ele>138.2</ele>
        <time>2022-05-20 20:02:58</time>
      </trkpt>
      <trkpt lat="41.20274" lon="1.2782">
        <ele>138.4</ele>
        <time>2022-05-20 20:02:59</time>
      </trkpt>
      <trkpt lat="41.20268" lon="1.27825">
        <ele>138.6</ele>
        <time>2022-05-20 20:03:00</time>
      </trkpt>
      <trkpt lat="41.20263" lon="1.2783">
        <ele>138.8</ele>
        <time>2022-05-20 20:03:01</time>
      </trkpt>
      <trkpt lat="41.20258" lon="1.27836">
        <ele>139</ele>
        <time>2022-05-20 20:03:02</time>
      </trkpt>
      <trkpt lat="41.20253" lon="1.27841">
        <ele>139</ele>
        <time>2022-05-20 20:03:03</time>
      </trkpt>
      <trkpt lat="41.20248" lon="1.27848">
        <ele>139.2</ele>
        <time>2022-05-20 20:03:04</time>
      </trkpt>
      <trkpt lat="41.20243" lon="1.27855">
        <ele>139.6</ele>
        <time>2022-05-20 20:03:05</time>
      </trkpt>
      <trkpt lat="41.20239" lon="1.27862">
        <ele>139.8</ele>
        <time>2022-05-20 20:03:06</time>
      </trkpt>
      <trkpt lat="41.20236" lon="1.2787">
        <ele>140</ele>
        <time>2022-05-20 20:03:07</time>
      </trkpt>
      <trkpt lat="41.20234" lon="1.27878">
        <ele>140.4</ele>
        <time>2022-05-20 20:03:08</time>
      </trkpt>
      <trkpt lat="41.20233" lon="1.27887">
        <ele>140.6</ele>
        <time>2022-05-20 20:03:09</time>
      </trkpt>
      <trkpt lat="41.20231" lon="1.27895">
        <ele>141</ele>
        <time>2022-05-20 20:03:10</time>
      </trkpt>
      <trkpt lat="41.2023" lon="1.27904">
        <ele>141.2</ele>
        <time>2022-05-20 20:03:11</time>
      </trkpt>
      <trkpt lat="41.20229" lon="1.27912">
        <ele>141.4</ele>
        <time>2022-05-20 20:03:12</time>
      </trkpt>
      <trkpt lat="41.20227" lon="1.27921">
        <ele>141.2</ele>
        <time>2022-05-20 20:03:13</time>
      </trkpt>
      <trkpt lat="41.20226" lon="1.2793">
        <ele>141.2</ele>
        <time>2022-05-20 20:03:14</time>
      </trkpt>
      <trkpt lat="41.20225" lon="1.27939">
        <ele>141</ele>
        <time>2022-05-20 20:03:15</time>
      </trkpt>
      <trkpt lat="41.20224" lon="1.2795">
        <ele>140.8</ele>
        <time>2022-05-20 20:03:16</time>
      </trkpt>
      <trkpt lat="41.20222" lon="1.27961">
        <ele>140.6</ele>
        <time>2022-05-20 20:03:17</time>
      </trkpt>
      <trkpt lat="41.20221" lon="1.27972">
        <ele>140.2</ele>
        <time>2022-05-20 20:03:18</time>
      </trkpt>
      <trkpt lat="41.20219" lon="1.27983">
        <ele>139.8</ele>
        <time>2022-05-20 20:03:19</time>
      </trkpt>
      <trkpt lat="41.20218" lon="1.27995">
        <ele>139.2</ele>
        <time>2022-05-20 20:03:20</time>
      </trkpt>
      <trkpt lat="41.20216" lon="1.28006">
        <ele>138.8</ele>
        <time>2022-05-20 20:03:21</time>
      </trkpt>
      <trkpt lat="41.20214" lon="1.28017">
        <ele>138.4</ele>
        <time>2022-05-20 20:03:22</time>
      </trkpt>
      <trkpt lat="41.20212" lon="1.28027">
        <ele>138.2</ele>
        <time>2022-05-20 20:03:23</time>
      </trkpt>
      <trkpt lat="41.20209" lon="1.28036">
        <ele>138</ele>
        <time>2022-05-20 20:03:24</time>
      </trkpt>
      <trkpt lat="41.20206" lon="1.28044">
        <ele>137.8</ele>
        <time>2022-05-20 20:03:25</time>
      </trkpt>
      <trkpt lat="41.20206" lon="1.28052">
        <ele>137.6</ele>
        <time>2022-05-20 20:03:26</time>
      </trkpt>
      <trkpt lat="41.20208" lon="1.28058">
        <ele>137.4</ele>
        <time>2022-05-20 20:03:27</time>
      </trkpt>
      <trkpt lat="41.20212" lon="1.28061">
        <ele>137.4</ele>
        <time>2022-05-20 20:03:28</time>
      </trkpt>
      <trkpt lat="41.20217" lon="1.28061">
        <ele>137.4</ele>
        <time>2022-05-20 20:03:29</time>
      </trkpt>
      <trkpt lat="41.20223" lon="1.28059">
        <ele>137.6</ele>
        <time>2022-05-20 20:03:30</time>
      </trkpt>
      <trkpt lat="41.20229" lon="1.28057">
        <ele>137.8</ele>
        <time>2022-05-20 20:03:31</time>
      </trkpt>
      <trkpt lat="41.20234" lon="1.28056">
        <ele>138</ele>
        <time>2022-05-20 20:03:32</time>
      </trkpt>
      <trkpt lat="41.2024" lon="1.28055">
        <ele>138.4</ele>
        <time>2022-05-20 20:03:33</time>
      </trkpt>
      <trkpt lat="41.20246" lon="1.28056">
        <ele>138.8</ele>
        <time>2022-05-20 20:03:34</time>
      </trkpt>
      <trkpt lat="41.20251" lon="1.28057">
        <ele>139</ele>
        <time>2022-05-20 20:03:35</time>
      </trkpt>
      <trkpt lat="41.20257" lon="1.28058">
        <ele>139.4</ele>
        <time>2022-05-20 20:03:36</time>
      </trkpt>
      <trkpt lat="41.20263" lon="1.28059">
        <ele>139.8</ele>
        <time>2022-05-20 20:03:37</time>
      </trkpt>
      <trkpt lat="41.20268" lon="1.2806">
        <ele>140.4</ele>
        <time>2022-05-20 20:03:38</time>
      </trkpt>
      <trkpt lat="41.20273" lon="1.28061">
        <ele>140.8</ele>
        <time>2022-05-20 20:03:39</time>
      </trkpt>
      <trkpt lat="41.20279" lon="1.28063">
        <ele>141.2</ele>
        <time>2022-05-20 20:03:40</time>
      </trkpt>
      <trkpt lat="41.20284" lon="1.28065">
        <ele>141.6</ele>
        <time>2022-05-20 20:03:41</time>
      </trkpt>
      <trkpt lat="41.2029" lon="1.28066">
        <ele>141.8</ele>
        <time>2022-05-20 20:03:42</time>
      </trkpt>
      <trkpt lat="41.20295" lon="1.28068">
        <ele>142.2</ele>
        <time>2022-05-20 20:03:43</time>
      </trkpt>
      <trkpt lat="41.203" lon="1.28071">
        <ele>142.4</ele>
        <time>2022-05-20 20:03:44</time>
      </trkpt>
      <trkpt lat="41.20305" lon="1.28073">
        <ele>142.8</ele>
        <time>2022-05-20 20:03:45</time>
      </trkpt>
      <trkpt lat="41.20311" lon="1.28075">
        <ele>143</ele>
        <time>2022-05-20 20:03:46</time>
      </trkpt>
      <trkpt lat="41.20316" lon="1.28077">
        <ele>143.4</ele>
        <time>2022-05-20 20:03:47</time>
      </trkpt>
      <trkpt lat="41.20321" lon="1.28079">
        <ele>143.6</ele>
        <time>2022-05-20 20:03:48</time>
      </trkpt>
      <trkpt lat="41.20326" lon="1.28081">
        <ele>143.8</ele>
        <time>2022-05-20 20:03:49</time>
      </trkpt>
      <trkpt lat="41.20331" lon="1.28084">
        <ele>144</ele>
        <time>2022-05-20 20:03:50</time>
      </trkpt>
      <trkpt lat="41.20336" lon="1.28086">
        <ele>144.4</ele>
        <time>2022-05-20 20:03:51</time>
      </trkpt>
      <trkpt lat="41.20341" lon="1.28089">
        <ele>144.6</ele>
        <time>2022-05-20 20:03:52</time>
      </trkpt>
      <trkpt lat="41.20347" lon="1.28091">
        <ele>144.8</ele>
        <time>2022-05-20 20:03:53</time>
      </trkpt>
      <trkpt lat="41.20352" lon="1.28093">
        <ele>145.2</ele>
        <time>2022-05-20 20:03:54</time>
      </trkpt>
      <trkpt lat="41.20358" lon="1.28096">
        <ele>145.4</ele>
        <time>2022-05-20 20:03:55</time>
      </trkpt>
      <trkpt lat="41.20363" lon="1.28099">
        <ele>145.4</ele>
        <time>2022-05-20 20:03:56</time>
      </trkpt>
      <trkpt lat="41.20369" lon="1.28102">
        <ele>145.6</ele>
        <time>2022-05-20 20:03:57</time>
      </trkpt>
      <trkpt lat="41.20375" lon="1.28105">
        <ele>145.8</ele>
        <time>2022-05-20 20:03:58</time>
      </trkpt>
      <trkpt lat="41.2038" lon="1.28108">
        <ele>146</ele>
        <time>2022-05-20 20:03:59</time>
      </trkpt>
      <trkpt lat="41.20385" lon="1.28111">
        <ele>146.2</ele>
        <time>2022-05-20 20:04:00</time>
      </trkpt>
      <trkpt lat="41.2039" lon="1.28114">
        <ele>146.4</ele>
        <time>2022-05-20 20:04:01</time>
      </trkpt>
      <trkpt lat="41.20396" lon="1.28117">
        <ele>146.6</ele>
        <time>2022-05-20 20:04:02</time>
      </trkpt>
      <trkpt lat="41.20401" lon="1.2812">
        <ele>146.8</ele>
        <time>2022-05-20 20:04:03</time>
      </trkpt>
      <trkpt lat="41.20407" lon="1.28123">
        <ele>147</ele>
        <time>2022-05-20 20:04:04</time>
      </trkpt>
      <trkpt lat="41.20412" lon="1.28126">
        <ele>147.2</ele>
        <time>2022-05-20 20:04:05</time>
      </trkpt>
      <trkpt lat="41.20418" lon="1.28128">
        <ele>147.4</ele>
        <time>2022-05-20 20:04:06</time>
      </trkpt>
      <trkpt lat="41.20422" lon="1.28131">
        <ele>147.6</ele>
        <time>2022-05-20 20:04:07</time>
      </trkpt>
      <trkpt lat="41.20428" lon="1.28134">
        <ele>147.8</ele>
        <time>2022-05-20 20:04:08</time>
      </trkpt>
      <trkpt lat="41.20433" lon="1.28137">
        <ele>148</ele>
        <time>2022-05-20 20:04:09</time>
      </trkpt>
      <trkpt lat="41.20438" lon="1.2814">
        <ele>148.4</ele>
        <time>2022-05-20 20:04:10</time>
      </trkpt>
      <trkpt lat="41.20443" lon="1.28142">
        <ele>148.6</ele>
        <time>2022-05-20 20:04:11</time>
      </trkpt>
      <trkpt lat="41.20448" lon="1.28145">
        <ele>149</ele>
        <time>2022-05-20 20:04:12</time>
      </trkpt>
      <trkpt lat="41.20452" lon="1.28148">
        <ele>149.2</ele>
        <time>2022-05-20 20:04:13</time>
      </trkpt>
      <trkpt lat="41.20457" lon="1.28151">
        <ele>149.4</ele>
        <time>2022-05-20 20:04:14</time>
      </trkpt>
      <trkpt lat="41.20462" lon="1.28153">
        <ele>149.8</ele>
        <time>2022-05-20 20:04:15</time>
      </trkpt>
      <trkpt lat="41.20466" lon="1.28155">
        <ele>150.2</ele>
        <time>2022-05-20 20:04:16</time>
      </trkpt>
      <trkpt lat="41.2047" lon="1.28158">
        <ele>150.6</ele>
        <time>2022-05-20 20:04:17</time>
      </trkpt>
      <trkpt lat="41.20475" lon="1.28161">
        <ele>150.8</ele>
        <time>2022-05-20 20:04:18</time>
      </trkpt>
      <trkpt lat="41.20479" lon="1.28165">
        <ele>151.2</ele>
        <time>2022-05-20 20:04:19</time>
      </trkpt>
      <trkpt lat="41.20484" lon="1.28169">
        <ele>151.4</ele>
        <time>2022-05-20 20:04:20</time>
      </trkpt>
      <trkpt lat="41.20488" lon="1.28173">
        <ele>151.4</ele>
        <time>2022-05-20 20:04:21</time>
      </trkpt>
      <trkpt lat="41.20492" lon="1.28177">
        <ele>151.6</ele>
        <time>2022-05-20 20:04:22</time>
      </trkpt>
      <trkpt lat="41.20495" lon="1.28183">
        <ele>151.8</ele>
        <time>2022-05-20 20:04:23</time>
      </trkpt>
      <trkpt lat="41.20499" lon="1.2819">
        <ele>151.8</ele>
        <time>2022-05-20 20:04:24</time>
      </trkpt>
      <trkpt lat="41.20504" lon="1.28196">
        <ele>152</ele>
        <time>2022-05-20 20:04:25</time>
      </trkpt>
      <trkpt lat="41.20508" lon="1.28203">
        <ele>152.2</ele>
        <time>2022-05-20 20:04:26</time>
      </trkpt>
      <trkpt lat="41.20512" lon="1.28209">
        <ele>152.2</ele>
        <time>2022-05-20 20:04:27</time>
      </trkpt>
      <trkpt lat="41.20517" lon="1.28215">
        <ele>152.4</ele>
        <time>2022-05-20 20:04:28</time>
      </trkpt>
      <trkpt lat="41.2052" lon="1.28222">
        <ele>152.6</ele>
        <time>2022-05-20 20:04:29</time>
      </trkpt>
      <trkpt lat="41.20524" lon="1.28229">
        <ele>152.8</ele>
        <time>2022-05-20 20:04:30</time>
      </trkpt>
      <trkpt lat="41.20528" lon="1.28236">
        <ele>153</ele>
        <time>2022-05-20 20:04:31</time>
      </trkpt>
      <trkpt lat="41.20531" lon="1.28244">
        <ele>153.2</ele>
        <time>2022-05-20 20:04:32</time>
      </trkpt>
      <trkpt lat="41.20533" lon="1.28252">
        <ele>153.4</ele>
        <time>2022-05-20 20:04:33</time>
      </trkpt>
      <trkpt lat="41.20536" lon="1.2826">
        <ele>153.6</ele>
        <time>2022-05-20 20:04:34</time>
      </trkpt>
      <trkpt lat="41.2054" lon="1.28267">
        <ele>153.6</ele>
        <time>2022-05-20 20:04:35</time>
      </trkpt>
      <trkpt lat="41.20543" lon="1.28275">
        <ele>153.8</ele>
        <time>2022-05-20 20:04:36</time>
      </trkpt>
      <trkpt lat="41.20546" lon="1.28284">
        <ele>153.6</ele>
        <time>2022-05-20 20:04:37</time>
      </trkpt>
      <trkpt lat="41.20551" lon="1.28293">
        <ele>153.6</ele>
        <time>2022-05-20 20:04:38</time>
      </trkpt>
      <trkpt lat="41.20555" lon="1.28301">
        <ele>153.4</ele>
        <time>2022-05-20 20:04:39</time>
      </trkpt>
      <trkpt lat="41.2056" lon="1.2831">
        <ele>153</ele>
        <time>2022-05-20 20:04:40</time>
      </trkpt>
      <trkpt lat="41.20567" lon="1.28318">
        <ele>152.6</ele>
        <time>2022-05-20 20:04:41</time>
      </trkpt>
      <trkpt lat="41.20573" lon="1.28327">
        <ele>152.2</ele>
        <time>2022-05-20 20:04:42</time>
      </trkpt>
      <trkpt lat="41.20581" lon="1.28335">
        <ele>151.8</ele>
        <time>2022-05-20 20:04:43</time>
      </trkpt>
      <trkpt lat="41.20589" lon="1.28344">
        <ele>151.4</ele>
        <time>2022-05-20 20:04:44</time>
      </trkpt>
      <trkpt lat="41.20596" lon="1.28353">
        <ele>150.6</ele>
        <time>2022-05-20 20:04:45</time>
      </trkpt>
      <trkpt lat="41.20605" lon="1.28363">
        <ele>150</ele>
        <time>2022-05-20 20:04:46</time>
      </trkpt>
      <trkpt lat="41.20613" lon="1.28373">
        <ele>149.6</ele>
        <time>2022-05-20 20:04:47</time>
      </trkpt>
      <trkpt lat="41.20621" lon="1.28384">
        <ele>149</ele>
        <time>2022-05-20 20:04:48</time>
      </trkpt>
      <trkpt lat="41.2063" lon="1.28394">
        <ele>148.4</ele>
        <time>2022-05-20 20:04:49</time>
      </trkpt>
      <trkpt lat="41.20638" lon="1.28404">
        <ele>147.8</ele>
        <time>2022-05-20 20:04:50</time>
      </trkpt>
      <trkpt lat="41.20647" lon="1.28414">
        <ele>147.6</ele>
        <time>2022-05-20 20:04:51</time>
      </trkpt>
      <trkpt lat="41.20655" lon="1.28424">
        <ele>147.4</ele>
        <time>2022-05-20 20:04:52</time>
      </trkpt>
      <trkpt lat="41.20664" lon="1.28434">
        <ele>147.2</ele>
        <time>2022-05-20 20:04:53</time>
      </trkpt>
      <trkpt lat="41.20671" lon="1.28443">
        <ele>147.2</ele>
        <time>2022-05-20 20:04:54</time>
      </trkpt>
      <trkpt lat="41.20678" lon="1.28452">
        <ele>147.2</ele>
        <time>2022-05-20 20:04:55</time>
      </trkpt>
      <trkpt lat="41.20684" lon="1.2846">
        <ele>147.2</ele>
        <time>2022-05-20 20:04:56</time>
      </trkpt>
      <trkpt lat="41.20692" lon="1.28469">
        <ele>147.4</ele>
        <time>2022-05-20 20:04:57</time>
      </trkpt>
      <trkpt lat="41.20698" lon="1.28477">
        <ele>147.6</ele>
        <time>2022-05-20 20:04:58</time>
      </trkpt>
      <trkpt lat="41.20705" lon="1.28485">
        <ele>147.8</ele>
        <time>2022-05-20 20:04:59</time>
      </trkpt>
      <trkpt lat="41.20713" lon="1.28494">
        <ele>148</ele>
        <time>2022-05-20 20:05:00</time>
      </trkpt>
      <trkpt lat="41.2072" lon="1.28503">
        <ele>148</ele>
        <time>2022-05-20 20:05:01</time>
      </trkpt>
      <trkpt lat="41.20727" lon="1.28511">
        <ele>148.2</ele>
        <time>2022-05-20 20:05:02</time>
      </trkpt>
      <trkpt lat="41.20735" lon="1.2852">
        <ele>148.2</ele>
        <time>2022-05-20 20:05:03</time>
      </trkpt>
      <trkpt lat="41.20742" lon="1.28529">
        <ele>148.4</ele>
        <time>2022-05-20 20:05:04</time>
      </trkpt>
      <trkpt lat="41.2075" lon="1.28538">
        <ele>148.4</ele>
        <time>2022-05-20 20:05:05</time>
      </trkpt>
      <trkpt lat="41.20757" lon="1.28546">
        <ele>148.6</ele>
        <time>2022-05-20 20:05:06</time>
      </trkpt>
      <trkpt lat="41.20765" lon="1.28555">
        <ele>148.6</ele>
        <time>2022-05-20 20:05:07</time>
      </trkpt>
      <trkpt lat="41.20772" lon="1.28564">
        <ele>148.6</ele>
        <time>2022-05-20 20:05:08</time>
      </trkpt>
      <trkpt lat="41.20779" lon="1.28572">
        <ele>148.6</ele>
        <time>2022-05-20 20:05:09</time>
      </trkpt>
      <trkpt lat="41.20787" lon="1.28581">
        <ele>148.6</ele>
        <time>2022-05-20 20:05:10</time>
      </trkpt>
      <trkpt lat="41.20794" lon="1.28589">
        <ele>148.6</ele>
        <time>2022-05-20 20:05:11</time>
      </trkpt>
      <trkpt lat="41.20801" lon="1.28598">
        <ele>148.6</ele>
        <time>2022-05-20 20:05:12</time>
      </trkpt>
      <trkpt lat="41.20808" lon="1.28606">
        <ele>148.6</ele>
        <time>2022-05-20 20:05:13</time>
      </trkpt>
      <trkpt lat="41.20815" lon="1.28614">
        <ele>148.6</ele>
        <time>2022-05-20 20:05:14</time>
      </trkpt>
      <trkpt lat="41.20823" lon="1.28623">
        <ele>148.4</ele>
        <time>2022-05-20 20:05:15</time>
      </trkpt>
      <trkpt lat="41.2083" lon="1.28632">
        <ele>148.4</ele>
        <time>2022-05-20 20:05:16</time>
      </trkpt>
      <trkpt lat="41.20838" lon="1.28641">
        <ele>148.4</ele>
        <time>2022-05-20 20:05:17</time>
      </trkpt>
      <trkpt lat="41.20844" lon="1.28651">
        <ele>148.4</ele>
        <time>2022-05-20 20:05:18</time>
      </trkpt>
      <trkpt lat="41.2085" lon="1.2866">
        <ele>148.4</ele>
        <time>2022-05-20 20:05:19</time>
      </trkpt>
      <trkpt lat="41.20855" lon="1.2867">
        <ele>148.4</ele>
        <time>2022-05-20 20:05:20</time>
      </trkpt>
      <trkpt lat="41.20858" lon="1.2868">
        <ele>148.4</ele>
        <time>2022-05-20 20:05:21</time>
      </trkpt>
      <trkpt lat="41.20863" lon="1.28691">
        <ele>148.4</ele>
        <time>2022-05-20 20:05:22</time>
      </trkpt>
      <trkpt lat="41.20867" lon="1.28703">
        <ele>148.4</ele>
        <time>2022-05-20 20:05:23</time>
      </trkpt>
      <trkpt lat="41.20871" lon="1.28715">
        <ele>148.4</ele>
        <time>2022-05-20 20:05:24</time>
      </trkpt>
      <trkpt lat="41.20875" lon="1.28727">
        <ele>148.2</ele>
        <time>2022-05-20 20:05:25</time>
      </trkpt>
      <trkpt lat="41.20879" lon="1.28739">
        <ele>148.2</ele>
        <time>2022-05-20 20:05:26</time>
      </trkpt>
      <trkpt lat="41.20883" lon="1.28752">
        <ele>148.2</ele>
        <time>2022-05-20 20:05:27</time>
      </trkpt>
      <trkpt lat="41.20887" lon="1.28764">
        <ele>148</ele>
        <time>2022-05-20 20:05:28</time>
      </trkpt>
      <trkpt lat="41.20891" lon="1.28775">
        <ele>147.8</ele>
        <time>2022-05-20 20:05:29</time>
      </trkpt>
      <trkpt lat="41.20896" lon="1.28787">
        <ele>147.6</ele>
        <time>2022-05-20 20:05:30</time>
      </trkpt>
      <trkpt lat="41.20901" lon="1.28799">
        <ele>147.4</ele>
        <time>2022-05-20 20:05:31</time>
      </trkpt>
      <trkpt lat="41.20906" lon="1.28811">
        <ele>147.2</ele>
        <time>2022-05-20 20:05:32</time>
      </trkpt>
      <trkpt lat="41.20911" lon="1.28823">
        <ele>147.2</ele>
        <time>2022-05-20 20:05:33</time>
      </trkpt>
      <trkpt lat="41.20916" lon="1.28835">
        <ele>147.4</ele>
        <time>2022-05-20 20:05:34</time>
      </trkpt>
      <trkpt lat="41.2092" lon="1.28845">
        <ele>147.4</ele>
        <time>2022-05-20 20:05:35</time>
      </trkpt>
      <trkpt lat="41.20925" lon="1.28854">
        <ele>147.6</ele>
        <time>2022-05-20 20:05:36</time>
      </trkpt>
      <trkpt lat="41.2093" lon="1.28862">
        <ele>147.8</ele>
        <time>2022-05-20 20:05:37</time>
      </trkpt>
      <trkpt lat="41.20937" lon="1.28869">
        <ele>148.2</ele>
        <time>2022-05-20 20:05:38</time>
      </trkpt>
      <trkpt lat="41.20943" lon="1.28876">
        <ele>148.4</ele>
        <time>2022-05-20 20:05:39</time>
      </trkpt>
      <trkpt lat="41.2095" lon="1.28883">
        <ele>148.6</ele>
        <time>2022-05-20 20:05:40</time>
      </trkpt>
      <trkpt lat="41.20956" lon="1.28889">
        <ele>148.8</ele>
        <time>2022-05-20 20:05:41</time>
      </trkpt>
      <trkpt lat="41.20962" lon="1.28896">
        <ele>149</ele>
        <time>2022-05-20 20:05:42</time>
      </trkpt>
      <trkpt lat="41.20969" lon="1.28903">
        <ele>149.2</ele>
        <time>2022-05-20 20:05:43</time>
      </trkpt>
      <trkpt lat="41.20975" lon="1.28909">
        <ele>149.4</ele>
        <time>2022-05-20 20:05:44</time>
      </trkpt>
      <trkpt lat="41.20982" lon="1.28916">
        <ele>149.6</ele>
        <time>2022-05-20 20:05:45</time>
      </trkpt>
      <trkpt lat="41.20988" lon="1.28922">
        <ele>149.8</ele>
        <time>2022-05-20 20:05:46</time>
      </trkpt>
      <trkpt lat="41.20995" lon="1.28929">
        <ele>149.8</ele>
        <time>2022-05-20 20:05:47</time>
      </trkpt>
      <trkpt lat="41.21001" lon="1.28935">
        <ele>150</ele>
        <time>2022-05-20 20:05:48</time>
      </trkpt>
      <trkpt lat="41.21008" lon="1.28942">
        <ele>150.2</ele>
        <time>2022-05-20 20:05:49</time>
      </trkpt>
      <trkpt lat="41.21014" lon="1.28948">
        <ele>150.2</ele>
        <time>2022-05-20 20:05:50</time>
      </trkpt>
      <trkpt lat="41.21021" lon="1.28954">
        <ele>150.4</ele>
        <time>2022-05-20 20:05:51</time>
      </trkpt>
      <trkpt lat="41.21027" lon="1.28961">
        <ele>150.6</ele>
        <time>2022-05-20 20:05:52</time>
      </trkpt>
      <trkpt lat="41.21033" lon="1.28968">
        <ele>150.6</ele>
        <time>2022-05-20 20:05:53</time>
      </trkpt>
      <trkpt lat="41.2104" lon="1.28974">
        <ele>150.8</ele>
        <time>2022-05-20 20:05:54</time>
      </trkpt>
      <trkpt lat="41.21046" lon="1.28981">
        <ele>151</ele>
        <time>2022-05-20 20:05:55</time>
      </trkpt>
      <trkpt lat="41.21053" lon="1.28988">
        <ele>151.2</ele>
        <time>2022-05-20 20:05:56</time>
      </trkpt>
      <trkpt lat="41.21058" lon="1.28995">
        <ele>151.4</ele>
        <time>2022-05-20 20:05:57</time>
      </trkpt>
      <trkpt lat="41.21064" lon="1.29003">
        <ele>151.6</ele>
        <time>2022-05-20 20:05:58</time>
      </trkpt>
      <trkpt lat="41.21068" lon="1.29011">
        <ele>151.8</ele>
        <time>2022-05-20 20:05:59</time>
      </trkpt>
      <trkpt lat="41.21072" lon="1.29021">
        <ele>152</ele>
        <time>2022-05-20 20:06:00</time>
      </trkpt>
      <trkpt lat="41.21075" lon="1.2903">
        <ele>152.2</ele>
        <time>2022-05-20 20:06:01</time>
      </trkpt>
      <trkpt lat="41.21077" lon="1.2904">
        <ele>152.2</ele>
        <time>2022-05-20 20:06:02</time>
      </trkpt>
      <trkpt lat="41.21078" lon="1.29051">
        <ele>152.4</ele>
        <time>2022-05-20 20:06:03</time>
      </trkpt>
      <trkpt lat="41.21078" lon="1.29061">
        <ele>152.4</ele>
        <time>2022-05-20 20:06:04</time>
      </trkpt>
      <trkpt lat="41.21077" lon="1.29071">
        <ele>152.8</ele>
        <time>2022-05-20 20:06:05</time>
      </trkpt>
      <trkpt lat="41.21076" lon="1.29081">
        <ele>153</ele>
        <time>2022-05-20 20:06:06</time>
      </trkpt>
      <trkpt lat="41.21075" lon="1.2909">
        <ele>153.2</ele>
        <time>2022-05-20 20:06:07</time>
      </trkpt>
      <trkpt lat="41.21077" lon="1.29097">
        <ele>153.4</ele>
        <time>2022-05-20 20:06:08</time>
      </trkpt>
      <trkpt lat="41.21082" lon="1.29102">
        <ele>153.4</ele>
        <time>2022-05-20 20:06:09</time>
      </trkpt>
      <trkpt lat="41.21088" lon="1.29104">
        <ele>153.4</ele>
        <time>2022-05-20 20:06:10</time>
      </trkpt>
      <trkpt lat="41.21095" lon="1.29103">
        <ele>153.2</ele>
        <time>2022-05-20 20:06:11</time>
      </trkpt>
      <trkpt lat="41.21102" lon="1.29103">
        <ele>153</ele>
        <time>2022-05-20 20:06:12</time>
      </trkpt>
      <trkpt lat="41.21109" lon="1.29106">
        <ele>153</ele>
        <time>2022-05-20 20:06:13</time>
      </trkpt>
      <trkpt lat="41.21117" lon="1.29109">
        <ele>152.8</ele>
        <time>2022-05-20 20:06:14</time>
      </trkpt>
      <trkpt lat="41.21125" lon="1.29113">
        <ele>152.6</ele>
        <time>2022-05-20 20:06:15</time>
      </trkpt>
      <trkpt lat="41.21133" lon="1.29118">
        <ele>152.2</ele>
        <time>2022-05-20 20:06:16</time>
      </trkpt>
      <trkpt lat="41.21142" lon="1.29123">
        <ele>152</ele>
        <time>2022-05-20 20:06:17</time>
      </trkpt>
      <trkpt lat="41.21151" lon="1.29129">
        <ele>151.6</ele>
        <time>2022-05-20 20:06:18</time>
      </trkpt>
      <trkpt lat="41.21161" lon="1.29135">
        <ele>151.4</ele>
        <time>2022-05-20 20:06:19</time>
      </trkpt>
      <trkpt lat="41.2117" lon="1.29141">
        <ele>151</ele>
        <time>2022-05-20 20:06:20</time>
      </trkpt>
      <trkpt lat="41.2118" lon="1.29147">
        <ele>150.8</ele>
        <time>2022-05-20 20:06:21</time>
      </trkpt>
      <trkpt lat="41.2119" lon="1.29153">
        <ele>150.4</ele>
        <time>2022-05-20 20:06:22</time>
      </trkpt>
      <trkpt lat="41.212" lon="1.29159">
        <ele>150.4</ele>
        <time>2022-05-20 20:06:23</time>
      </trkpt>
      <trkpt lat="41.21209" lon="1.29165">
        <ele>150.2</ele>
        <time>2022-05-20 20:06:24</time>
      </trkpt>
      <trkpt lat="41.21218" lon="1.2917">
        <ele>150</ele>
        <time>2022-05-20 20:06:25</time>
      </trkpt>
      <trkpt lat="41.21227" lon="1.29176">
        <ele>150</ele>
        <time>2022-05-20 20:06:26</time>
      </trkpt>
      <trkpt lat="41.21236" lon="1.29181">
        <ele>149.8</ele>
        <time>2022-05-20 20:06:27</time>
      </trkpt>
      <trkpt lat="41.21246" lon="1.29186">
        <ele>149.8</ele>
        <time>2022-05-20 20:06:28</time>
      </trkpt>
      <trkpt lat="41.21254" lon="1.29191">
        <ele>150</ele>
        <time>2022-05-20 20:06:29</time>
      </trkpt>
      <trkpt lat="41.21263" lon="1.29197">
        <ele>150</ele>
        <time>2022-05-20 20:06:30</time>
      </trkpt>
      <trkpt lat="41.21271" lon="1.29202">
        <ele>150.2</ele>
        <time>2022-05-20 20:06:31</time>
      </trkpt>
      <trkpt lat="41.2128" lon="1.29207">
        <ele>150.4</ele>
        <time>2022-05-20 20:06:32</time>
      </trkpt>
      <trkpt lat="41.21289" lon="1.29212">
        <ele>150.4</ele>
        <time>2022-05-20 20:06:33</time>
      </trkpt>
      <trkpt lat="41.21297" lon="1.29217">
        <ele>150.6</ele>
        <time>2022-05-20 20:06:34</time>
      </trkpt>
      <trkpt lat="41.21305" lon="1.29222">
        <ele>150.8</ele>
        <time>2022-05-20 20:06:35</time>
      </trkpt>
      <trkpt lat="41.21313" lon="1.29227">
        <ele>151</ele>
        <time>2022-05-20 20:06:36</time>
      </trkpt>
      <trkpt lat="41.21321" lon="1.29232">
        <ele>151.2</ele>
        <time>2022-05-20 20:06:37</time>
      </trkpt>
      <trkpt lat="41.21329" lon="1.29237">
        <ele>151.4</ele>
        <time>2022-05-20 20:06:38</time>
      </trkpt>
      <trkpt lat="41.21337" lon="1.29241">
        <ele>151.6</ele>
        <time>2022-05-20 20:06:39</time>
      </trkpt>
      <trkpt lat="41.21344" lon="1.29245">
        <ele>151.8</ele>
        <time>2022-05-20 20:06:40</time>
      </trkpt>
      <trkpt lat="41.21352" lon="1.2925">
        <ele>152</ele>
        <time>2022-05-20 20:06:41</time>
      </trkpt>
      <trkpt lat="41.21359" lon="1.29254">
        <ele>152</ele>
        <time>2022-05-20 20:06:42</time>
      </trkpt>
      <trkpt lat="41.21367" lon="1.29258">
        <ele>152.2</ele>
        <time>2022-05-20 20:06:43</time>
      </trkpt>
      <trkpt lat="41.21374" lon="1.29262">
        <ele>152.4</ele>
        <time>2022-05-20 20:06:44</time>
      </trkpt>
      <trkpt lat="41.21381" lon="1.29266">
        <ele>152.6</ele>
        <time>2022-05-20 20:06:45</time>
      </trkpt>
      <trkpt lat="41.21388" lon="1.2927">
        <ele>152.8</ele>
        <time>2022-05-20 20:06:46</time>
      </trkpt>
      <trkpt lat="41.21395" lon="1.29274">
        <ele>153</ele>
        <time>2022-05-20 20:06:47</time>
      </trkpt>
      <trkpt lat="41.21403" lon="1.29277">
        <ele>153</ele>
        <time>2022-05-20 20:06:48</time>
      </trkpt>
      <trkpt lat="41.2141" lon="1.2928">
        <ele>153.2</ele>
        <time>2022-05-20 20:06:49</time>
      </trkpt>
      <trkpt lat="41.21418" lon="1.29283">
        <ele>153.2</ele>
        <time>2022-05-20 20:06:50</time>
      </trkpt>
      <trkpt lat="41.21426" lon="1.29286">
        <ele>153.4</ele>
        <time>2022-05-20 20:06:51</time>
      </trkpt>
      <trkpt lat="41.21434" lon="1.29289">
        <ele>153.4</ele>
        <time>2022-05-20 20:06:52</time>
      </trkpt>
      <trkpt lat="41.21441" lon="1.29292">
        <ele>153.6</ele>
        <time>2022-05-20 20:06:53</time>
      </trkpt>
      <trkpt lat="41.21449" lon="1.29294">
        <ele>153.8</ele>
        <time>2022-05-20 20:06:54</time>
      </trkpt>
      <trkpt lat="41.21457" lon="1.29296">
        <ele>153.8</ele>
        <time>2022-05-20 20:06:55</time>
      </trkpt>
      <trkpt lat="41.21465" lon="1.29298">
        <ele>154</ele>
        <time>2022-05-20 20:06:56</time>
      </trkpt>
      <trkpt lat="41.21473" lon="1.293">
        <ele>154</ele>
        <time>2022-05-20 20:06:57</time>
      </trkpt>
      <trkpt lat="41.2148" lon="1.29301">
        <ele>154.2</ele>
        <time>2022-05-20 20:06:58</time>
      </trkpt>
      <trkpt lat="41.21488" lon="1.29302">
        <ele>154.2</ele>
        <time>2022-05-20 20:06:59</time>
      </trkpt>
      <trkpt lat="41.21495" lon="1.29303">
        <ele>154.2</ele>
        <time>2022-05-20 20:07:00</time>
      </trkpt>
      <trkpt lat="41.21503" lon="1.29304">
        <ele>154.4</ele>
        <time>2022-05-20 20:07:01</time>
      </trkpt>
      <trkpt lat="41.21511" lon="1.29304">
        <ele>154.6</ele>
        <time>2022-05-20 20:07:02</time>
      </trkpt>
      <trkpt lat="41.21519" lon="1.29305">
        <ele>154.6</ele>
        <time>2022-05-20 20:07:03</time>
      </trkpt>
      <trkpt lat="41.21527" lon="1.29305">
        <ele>154.6</ele>
        <time>2022-05-20 20:07:04</time>
      </trkpt>
      <trkpt lat="41.21535" lon="1.29305">
        <ele>154.6</ele>
        <time>2022-05-20 20:07:05</time>
      </trkpt>
      <trkpt lat="41.21543" lon="1.29305">
        <ele>154.6</ele>
        <time>2022-05-20 20:07:06</time>
      </trkpt>
      <trkpt lat="41.21551" lon="1.29305">
        <ele>154.8</ele>
        <time>2022-05-20 20:07:07</time>
      </trkpt>
      <trkpt lat="41.21559" lon="1.29305">
        <ele>154.8</ele>
        <time>2022-05-20 20:07:08</time>
      </trkpt>
      <trkpt lat="41.21567" lon="1.29305">
        <ele>155</ele>
        <time>2022-05-20 20:07:09</time>
      </trkpt>
      <trkpt lat="41.21576" lon="1.29305">
        <ele>155</ele>
        <time>2022-05-20 20:07:10</time>
      </trkpt>
      <trkpt lat="41.21584" lon="1.29305">
        <ele>155</ele>
        <time>2022-05-20 20:07:11</time>
      </trkpt>
      <trkpt lat="41.21591" lon="1.29305">
        <ele>155</ele>
        <time>2022-05-20 20:07:12</time>
      </trkpt>
      <trkpt lat="41.21599" lon="1.29305">
        <ele>155.2</ele>
        <time>2022-05-20 20:07:13</time>
      </trkpt>
      <trkpt lat="41.21607" lon="1.29305">
        <ele>155.2</ele>
        <time>2022-05-20 20:07:14</time>
      </trkpt>
      <trkpt lat="41.21615" lon="1.29306">
        <ele>155.4</ele>
        <time>2022-05-20 20:07:15</time>
      </trkpt>
      <trkpt lat="41.21623" lon="1.29307">
        <ele>155.4</ele>
        <time>2022-05-20 20:07:16</time>
      </trkpt>
      <trkpt lat="41.21631" lon="1.29308">
        <ele>155.6</ele>
        <time>2022-05-20 20:07:17</time>
      </trkpt>
      <trkpt lat="41.21639" lon="1.2931">
        <ele>155.8</ele>
        <time>2022-05-20 20:07:18</time>
      </trkpt>
      <trkpt lat="41.21647" lon="1.29311">
        <ele>156</ele>
        <time>2022-05-20 20:07:19</time>
      </trkpt>
      <trkpt lat="41.21655" lon="1.29313">
        <ele>156</ele>
        <time>2022-05-20 20:07:20</time>
      </trkpt>
      <trkpt lat="41.21663" lon="1.29315">
        <ele>156.2</ele>
        <time>2022-05-20 20:07:21</time>
      </trkpt>
      <trkpt lat="41.21671" lon="1.29317">
        <ele>156.6</ele>
        <time>2022-05-20 20:07:22</time>
      </trkpt>
      <trkpt lat="41.21679" lon="1.29319">
        <ele>156.8</ele>
        <time>2022-05-20 20:07:23</time>
      </trkpt>
      <trkpt lat="41.21686" lon="1.29322">
        <ele>157</ele>
        <time>2022-05-20 20:07:24</time>
      </trkpt>
      <trkpt lat="41.21695" lon="1.29324">
        <ele>157.2</ele>
        <time>2022-05-20 20:07:25</time>
      </trkpt>
      <trkpt lat="41.21702" lon="1.29327">
        <ele>157.4</ele>
        <time>2022-05-20 20:07:26</time>
      </trkpt>
      <trkpt lat="41.2171" lon="1.2933">
        <ele>157.6</ele>
        <time>2022-05-20 20:07:27</time>
      </trkpt>
      <trkpt lat="41.21717" lon="1.29333">
        <ele>157.8</ele>
        <time>2022-05-20 20:07:28</time>
      </trkpt>
      <trkpt lat="41.21725" lon="1.29336">
        <ele>158</ele>
        <time>2022-05-20 20:07:29</time>
      </trkpt>
      <trkpt lat="41.21732" lon="1.29339">
        <ele>158.2</ele>
        <time>2022-05-20 20:07:30</time>
      </trkpt>
      <trkpt lat="41.2174" lon="1.29342">
        <ele>158.4</ele>
        <time>2022-05-20 20:07:31</time>
      </trkpt>
      <trkpt lat="41.21747" lon="1.29345">
        <ele>158.6</ele>
        <time>2022-05-20 20:07:32</time>
      </trkpt>
      <trkpt lat="41.21754" lon="1.29348">
        <ele>158.8</ele>
        <time>2022-05-20 20:07:33</time>
      </trkpt>
      <trkpt lat="41.21761" lon="1.29351">
        <ele>159</ele>
        <time>2022-05-20 20:07:34</time>
      </trkpt>
      <trkpt lat="41.21769" lon="1.29354">
        <ele>159.2</ele>
        <time>2022-05-20 20:07:35</time>
      </trkpt>
      <trkpt lat="41.21776" lon="1.29357">
        <ele>159.4</ele>
        <time>2022-05-20 20:07:36</time>
      </trkpt>
      <trkpt lat="41.21783" lon="1.2936">
        <ele>159.6</ele>
        <time>2022-05-20 20:07:37</time>
      </trkpt>
      <trkpt lat="41.2179" lon="1.29363">
        <ele>159.8</ele>
        <time>2022-05-20 20:07:38</time>
      </trkpt>
      <trkpt lat="41.21797" lon="1.29366">
        <ele>160</ele>
        <time>2022-05-20 20:07:39</time>
      </trkpt>
      <trkpt lat="41.21804" lon="1.29369">
        <ele>160.2</ele>
        <time>2022-05-20 20:07:40</time>
      </trkpt>
      <trkpt lat="41.21811" lon="1.29371">
        <ele>160.4</ele>
        <time>2022-05-20 20:07:41</time>
      </trkpt>
      <trkpt lat="41.21819" lon="1.29374">
        <ele>160.8</ele>
        <time>2022-05-20 20:07:42</time>
      </trkpt>
      <trkpt lat="41.21826" lon="1.29377">
        <ele>161</ele>
        <time>2022-05-20 20:07:43</time>
      </trkpt>
      <trkpt lat="41.21833" lon="1.2938">
        <ele>161</ele>
        <time>2022-05-20 20:07:44</time>
      </trkpt>
      <trkpt lat="41.21841" lon="1.29382">
        <ele>161.2</ele>
        <time>2022-05-20 20:07:45</time>
      </trkpt>
      <trkpt lat="41.21848" lon="1.29384">
        <ele>161.4</ele>
        <time>2022-05-20 20:07:46</time>
      </trkpt>
      <trkpt lat="41.21855" lon="1.29387">
        <ele>161.6</ele>
        <time>2022-05-20 20:07:47</time>
      </trkpt>
      <trkpt lat="41.21862" lon="1.29389">
        <ele>161.8</ele>
        <time>2022-05-20 20:07:48</time>
      </trkpt>
      <trkpt lat="41.2187" lon="1.29392">
        <ele>162</ele>
        <time>2022-05-20 20:07:49</time>
      </trkpt>
      <trkpt lat="41.21877" lon="1.29394">
        <ele>162.2</ele>
        <time>2022-05-20 20:07:50</time>
      </trkpt>
      <trkpt lat="41.21884" lon="1.29395">
        <ele>162.4</ele>
        <time>2022-05-20 20:07:51</time>
      </trkpt>
      <trkpt lat="41.21891" lon="1.29397">
        <ele>162.6</ele>
        <time>2022-05-20 20:07:52</time>
      </trkpt>
      <trkpt lat="41.21899" lon="1.29399">
        <ele>162.6</ele>
        <time>2022-05-20 20:07:53</time>
      </trkpt>
      <trkpt lat="41.21906" lon="1.29401">
        <ele>162.8</ele>
        <time>2022-05-20 20:07:54</time>
      </trkpt>
      <trkpt lat="41.21913" lon="1.29403">
        <ele>163</ele>
        <time>2022-05-20 20:07:55</time>
      </trkpt>
      <trkpt lat="41.2192" lon="1.29404">
        <ele>163.4</ele>
        <time>2022-05-20 20:07:56</time>
      </trkpt>
      <trkpt lat="41.21927" lon="1.29406">
        <ele>163.6</ele>
        <time>2022-05-20 20:07:57</time>
      </trkpt>
      <trkpt lat="41.21935" lon="1.29407">
        <ele>163.8</ele>
        <time>2022-05-20 20:07:58</time>
      </trkpt>
      <trkpt lat="41.21942" lon="1.29409">
        <ele>164</ele>
        <time>2022-05-20 20:07:59</time>
      </trkpt>
      <trkpt lat="41.21949" lon="1.2941">
        <ele>164.2</ele>
        <time>2022-05-20 20:08:00</time>
      </trkpt>
      <trkpt lat="41.21957" lon="1.29411">
        <ele>164.4</ele>
        <time>2022-05-20 20:08:01</time>
      </trkpt>
      <trkpt lat="41.21964" lon="1.29413">
        <ele>164.4</ele>
        <time>2022-05-20 20:08:02</time>
      </trkpt>
      <trkpt lat="41.21972" lon="1.29414">
        <ele>164.6</ele>
        <time>2022-05-20 20:08:03</time>
      </trkpt>
      <trkpt lat="41.2198" lon="1.29415">
        <ele>164.6</ele>
        <time>2022-05-20 20:08:04</time>
      </trkpt>
      <trkpt lat="41.21987" lon="1.29416">
        <ele>164.8</ele>
        <time>2022-05-20 20:08:05</time>
      </trkpt>
      <trkpt lat="41.21995" lon="1.29417">
        <ele>164.8</ele>
        <time>2022-05-20 20:08:06</time>
      </trkpt>
      <trkpt lat="41.22003" lon="1.29418">
        <ele>165</ele>
        <time>2022-05-20 20:08:07</time>
      </trkpt>
      <trkpt lat="41.22011" lon="1.29418">
        <ele>165</ele>
        <time>2022-05-20 20:08:08</time>
      </trkpt>
      <trkpt lat="41.2202" lon="1.29418">
        <ele>165</ele>
        <time>2022-05-20 20:08:09</time>
      </trkpt>
      <trkpt lat="41.22028" lon="1.29418">
        <ele>165</ele>
        <time>2022-05-20 20:08:10</time>
      </trkpt>
      <trkpt lat="41.22036" lon="1.29417">
        <ele>165</ele>
        <time>2022-05-20 20:08:11</time>
      </trkpt>
      <trkpt lat="41.22044" lon="1.29416">
        <ele>165</ele>
        <time>2022-05-20 20:08:12</time>
      </trkpt>
      <trkpt lat="41.22053" lon="1.29415">
        <ele>165</ele>
        <time>2022-05-20 20:08:13</time>
      </trkpt>
      <trkpt lat="41.22062" lon="1.29414">
        <ele>165</ele>
        <time>2022-05-20 20:08:14</time>
      </trkpt>
      <trkpt lat="41.22071" lon="1.29412">
        <ele>165</ele>
        <time>2022-05-20 20:08:15</time>
      </trkpt>
      <trkpt lat="41.22079" lon="1.29411">
        <ele>164.8</ele>
        <time>2022-05-20 20:08:16</time>
      </trkpt>
      <trkpt lat="41.22089" lon="1.29408">
        <ele>164.6</ele>
        <time>2022-05-20 20:08:17</time>
      </trkpt>
      <trkpt lat="41.22098" lon="1.29407">
        <ele>164.6</ele>
        <time>2022-05-20 20:08:18</time>
      </trkpt>
      <trkpt lat="41.22108" lon="1.29405">
        <ele>164.4</ele>
        <time>2022-05-20 20:08:19</time>
      </trkpt>
      <trkpt lat="41.22117" lon="1.29403">
        <ele>164.2</ele>
        <time>2022-05-20 20:08:20</time>
      </trkpt>
      <trkpt lat="41.22126" lon="1.29402">
        <ele>164.2</ele>
        <time>2022-05-20 20:08:21</time>
      </trkpt>
      <trkpt lat="41.22136" lon="1.29401">
        <ele>164</ele>
        <time>2022-05-20 20:08:22</time>
      </trkpt>
      <trkpt lat="41.22146" lon="1.29399">
        <ele>163.8</ele>
        <time>2022-05-20 20:08:23</time>
      </trkpt>
      <trkpt lat="41.22156" lon="1.29398">
        <ele>163.6</ele>
        <time>2022-05-20 20:08:24</time>
      </trkpt>
      <trkpt lat="41.22166" lon="1.29396">
        <ele>163.4</ele>
        <time>2022-05-20 20:08:25</time>
      </trkpt>
      <trkpt lat="41.22175" lon="1.29393">
        <ele>163.4</ele>
        <time>2022-05-20 20:08:26</time>
      </trkpt>
      <trkpt lat="41.22184" lon="1.2939">
        <ele>163.2</ele>
        <time>2022-05-20 20:08:27</time>
      </trkpt>
      <trkpt lat="41.22193" lon="1.29388">
        <ele>163</ele>
        <time>2022-05-20 20:08:28</time>
      </trkpt>
      <trkpt lat="41.22202" lon="1.29386">
        <ele>162.8</ele>
        <time>2022-05-20 20:08:29</time>
      </trkpt>
      <trkpt lat="41.22211" lon="1.29385">
        <ele>162.8</ele>
        <time>2022-05-20 20:08:30</time>
      </trkpt>
      <trkpt lat="41.22221" lon="1.29383">
        <ele>162.8</ele>
        <time>2022-05-20 20:08:31</time>
      </trkpt>
      <trkpt lat="41.22231" lon="1.29382">
        <ele>162.8</ele>
        <time>2022-05-20 20:08:32</time>
      </trkpt>
      <trkpt lat="41.2224" lon="1.2938">
        <ele>162.6</ele>
        <time>2022-05-20 20:08:33</time>
      </trkpt>
      <trkpt lat="41.22248" lon="1.29378">
        <ele>162.6</ele>
        <time>2022-05-20 20:08:34</time>
      </trkpt>
      <trkpt lat="41.22258" lon="1.29376">
        <ele>162.6</ele>
        <time>2022-05-20 20:08:35</time>
      </trkpt>
      <trkpt lat="41.22266" lon="1.29374">
        <ele>162.6</ele>
        <time>2022-05-20 20:08:36</time>
      </trkpt>
      <trkpt lat="41.22276" lon="1.29372">
        <ele>162.4</ele>
        <time>2022-05-20 20:08:37</time>
      </trkpt>
      <trkpt lat="41.22285" lon="1.2937">
        <ele>162.4</ele>
        <time>2022-05-20 20:08:38</time>
      </trkpt>
      <trkpt lat="41.22295" lon="1.29368">
        <ele>162.4</ele>
        <time>2022-05-20 20:08:39</time>
      </trkpt>
      <trkpt lat="41.22304" lon="1.29366">
        <ele>162.2</ele>
        <time>2022-05-20 20:08:40</time>
      </trkpt>
      <trkpt lat="41.22313" lon="1.29364">
        <ele>162.2</ele>
        <time>2022-05-20 20:08:41</time>
      </trkpt>
      <trkpt lat="41.22323" lon="1.29362">
        <ele>162.2</ele>
        <time>2022-05-20 20:08:42</time>
      </trkpt>
      <trkpt lat="41.22332" lon="1.29361">
        <ele>162.2</ele>
        <time>2022-05-20 20:08:43</time>
      </trkpt>
      <trkpt lat="41.2234" lon="1.29361">
        <ele>162</ele>
        <time>2022-05-20 20:08:44</time>
      </trkpt>
      <trkpt lat="41.22348" lon="1.29361">
        <ele>162</ele>
        <time>2022-05-20 20:08:45</time>
      </trkpt>
      <trkpt lat="41.22356" lon="1.29358">
        <ele>162</ele>
        <time>2022-05-20 20:08:46</time>
      </trkpt>
      <trkpt lat="41.22363" lon="1.29352">
        <ele>162</ele>
        <time>2022-05-20 20:08:47</time>
      </trkpt>
      <trkpt lat="41.2237" lon="1.29346">
        <ele>162</ele>
        <time>2022-05-20 20:08:48</time>
      </trkpt>
      <trkpt lat="41.22377" lon="1.2934">
        <ele>162.2</ele>
        <time>2022-05-20 20:08:49</time>
      </trkpt>
      <trkpt lat="41.22385" lon="1.29335">
        <ele>162.2</ele>
        <time>2022-05-20 20:08:50</time>
      </trkpt>
      <trkpt lat="41.22392" lon="1.29331">
        <ele>162.4</ele>
        <time>2022-05-20 20:08:51</time>
      </trkpt>
      <trkpt lat="41.224" lon="1.29327">
        <ele>162.6</ele>
        <time>2022-05-20 20:08:52</time>
      </trkpt>
      <trkpt lat="41.22407" lon="1.29323">
        <ele>162.8</ele>
        <time>2022-05-20 20:08:53</time>
      </trkpt>
      <trkpt lat="41.22414" lon="1.29319">
        <ele>163</ele>
        <time>2022-05-20 20:08:54</time>
      </trkpt>
      <trkpt lat="41.22421" lon="1.29315">
        <ele>163.4</ele>
        <time>2022-05-20 20:08:55</time>
      </trkpt>
      <trkpt lat="41.22429" lon="1.29312">
        <ele>163.6</ele>
        <time>2022-05-20 20:08:56</time>
      </trkpt>
      <trkpt lat="41.22435" lon="1.29308">
        <ele>164</ele>
        <time>2022-05-20 20:08:57</time>
      </trkpt>
      <trkpt lat="41.22442" lon="1.29304">
        <ele>164.4</ele>
        <time>2022-05-20 20:08:58</time>
      </trkpt>
      <trkpt lat="41.22448" lon="1.29301">
        <ele>164.8</ele>
        <time>2022-05-20 20:08:59</time>
      </trkpt>
      <trkpt lat="41.22455" lon="1.29297">
        <ele>165</ele>
        <time>2022-05-20 20:09:00</time>
      </trkpt>
      <trkpt lat="41.22461" lon="1.29294">
        <ele>165.2</ele>
        <time>2022-05-20 20:09:01</time>
      </trkpt>
      <trkpt lat="41.22465" lon="1.29292">
        <ele>165.4</ele>
        <time>2022-05-20 20:09:02</time>
      </trkpt>
      <trkpt lat="41.22473" lon="1.29289">
        <ele>165.6</ele>
        <time>2022-05-20 20:09:03</time>
      </trkpt>
      <trkpt lat="41.22478" lon="1.29287">
        <ele>166</ele>
        <time>2022-05-20 20:09:04</time>
      </trkpt>
      <trkpt lat="41.22482" lon="1.29286">
        <ele>166.2</ele>
        <time>2022-05-20 20:09:05</time>
      </trkpt>
      <trkpt lat="41.22487" lon="1.29284">
        <ele>166.6</ele>
        <time>2022-05-20 20:09:06</time>
      </trkpt>
      <trkpt lat="41.22499" lon="1.2928">
        <ele>167</ele>
        <time>2022-05-20 20:09:07</time>
      </trkpt>
      <trkpt lat="41.22505" lon="1.29279">
        <ele>167.4</ele>
        <time>2022-05-20 20:09:08</time>
      </trkpt>
      <trkpt lat="41.22511" lon="1.29277">
        <ele>167.6</ele>
        <time>2022-05-20 20:09:09</time>
      </trkpt>
      <trkpt lat="41.22517" lon="1.29276">
        <ele>168</ele>
        <time>2022-05-20 20:09:10</time>
      </trkpt>
      <trkpt lat="41.22522" lon="1.29275">
        <ele>168.4</ele>
        <time>2022-05-20 20:09:11</time>
      </trkpt>
      <trkpt lat="41.22528" lon="1.29275">
        <ele>168.8</ele>
        <time>2022-05-20 20:09:12</time>
      </trkpt>
      <trkpt lat="41.22534" lon="1.29274">
        <ele>169.2</ele>
        <time>2022-05-20 20:09:13</time>
      </trkpt>
      <trkpt lat="41.2254" lon="1.29273">
        <ele>169.4</ele>
        <time>2022-05-20 20:09:14</time>
      </trkpt>
      <trkpt lat="41.22545" lon="1.29273">
        <ele>169.8</ele>
        <time>2022-05-20 20:09:15</time>
      </trkpt>
      <trkpt lat="41.22551" lon="1.29272">
        <ele>170.2</ele>
        <time>2022-05-20 20:09:16</time>
      </trkpt>
      <trkpt lat="41.22556" lon="1.29271">
        <ele>170.6</ele>
        <time>2022-05-20 20:09:17</time>
      </trkpt>
      <trkpt lat="41.22562" lon="1.2927">
        <ele>170.8</ele>
        <time>2022-05-20 20:09:18</time>
      </trkpt>
      <trkpt lat="41.22567" lon="1.2927">
        <ele>171.2</ele>
        <time>2022-05-20 20:09:19</time>
      </trkpt>
      <trkpt lat="41.22572" lon="1.29269">
        <ele>171.4</ele>
        <time>2022-05-20 20:09:20</time>
      </trkpt>
      <trkpt lat="41.22578" lon="1.29268">
        <ele>171.8</ele>
        <time>2022-05-20 20:09:21</time>
      </trkpt>
      <trkpt lat="41.22583" lon="1.29268">
        <ele>172.2</ele>
        <time>2022-05-20 20:09:22</time>
      </trkpt>
      <trkpt lat="41.22588" lon="1.29267">
        <ele>172.4</ele>
        <time>2022-05-20 20:09:23</time>
      </trkpt>
      <trkpt lat="41.22594" lon="1.29266">
        <ele>172.8</ele>
        <time>2022-05-20 20:09:24</time>
      </trkpt>
      <trkpt lat="41.22599" lon="1.29266">
        <ele>173.2</ele>
        <time>2022-05-20 20:09:25</time>
      </trkpt>
      <trkpt lat="41.22604" lon="1.29265">
        <ele>173.4</ele>
        <time>2022-05-20 20:09:26</time>
      </trkpt>
      <trkpt lat="41.22609" lon="1.29264">
        <ele>173.8</ele>
        <time>2022-05-20 20:09:27</time>
      </trkpt>
      <trkpt lat="41.22612" lon="1.29264">
        <ele>174</ele>
        <time>2022-05-20 20:09:28</time>
      </trkpt>
      <trkpt lat="41.22618" lon="1.29263">
        <ele>174</ele>
        <time>2022-05-20 20:09:29</time>
      </trkpt>
      <trkpt lat="41.22625" lon="1.29262">
        <ele>174.4</ele>
        <time>2022-05-20 20:09:30</time>
      </trkpt>
      <trkpt lat="41.22631" lon="1.29261">
        <ele>174.6</ele>
        <time>2022-05-20 20:09:31</time>
      </trkpt>
      <trkpt lat="41.22636" lon="1.2926">
        <ele>175</ele>
        <time>2022-05-20 20:09:32</time>
      </trkpt>
      <trkpt lat="41.22641" lon="1.29259">
        <ele>175.2</ele>
        <time>2022-05-20 20:09:33</time>
      </trkpt>
      <trkpt lat="41.22646" lon="1.29259">
        <ele>175.6</ele>
        <time>2022-05-20 20:09:34</time>
      </trkpt>
      <trkpt lat="41.22652" lon="1.29258">
        <ele>176</ele>
        <time>2022-05-20 20:09:35</time>
      </trkpt>
      <trkpt lat="41.22657" lon="1.29258">
        <ele>176.2</ele>
        <time>2022-05-20 20:09:36</time>
      </trkpt>
      <trkpt lat="41.22662" lon="1.29257">
        <ele>176.6</ele>
        <time>2022-05-20 20:09:37</time>
      </trkpt>
      <trkpt lat="41.22668" lon="1.29256">
        <ele>176.8</ele>
        <time>2022-05-20 20:09:38</time>
      </trkpt>
      <trkpt lat="41.22673" lon="1.29256">
        <ele>177.2</ele>
        <time>2022-05-20 20:09:39</time>
      </trkpt>
      <trkpt lat="41.22678" lon="1.29255">
        <ele>177.4</ele>
        <time>2022-05-20 20:09:40</time>
      </trkpt>
      <trkpt lat="41.22683" lon="1.29254">
        <ele>177.8</ele>
        <time>2022-05-20 20:09:41</time>
      </trkpt>
      <trkpt lat="41.22688" lon="1.29253">
        <ele>178.2</ele>
        <time>2022-05-20 20:09:42</time>
      </trkpt>
      <trkpt lat="41.22693" lon="1.29253">
        <ele>178.4</ele>
        <time>2022-05-20 20:09:43</time>
      </trkpt>
      <trkpt lat="41.22698" lon="1.29252">
        <ele>178.6</ele>
        <time>2022-05-20 20:09:44</time>
      </trkpt>
      <trkpt lat="41.22703" lon="1.29252">
        <ele>179</ele>
        <time>2022-05-20 20:09:45</time>
      </trkpt>
      <trkpt lat="41.22708" lon="1.29251">
        <ele>179.2</ele>
        <time>2022-05-20 20:09:46</time>
      </trkpt>
      <trkpt lat="41.22713" lon="1.2925">
        <ele>179.6</ele>
        <time>2022-05-20 20:09:47</time>
      </trkpt>
      <trkpt lat="41.22718" lon="1.29249">
        <ele>180</ele>
        <time>2022-05-20 20:09:48</time>
      </trkpt>
      <trkpt lat="41.22723" lon="1.29248">
        <ele>180.2</ele>
        <time>2022-05-20 20:09:49</time>
      </trkpt>
      <trkpt lat="41.22728" lon="1.29248">
        <ele>180.6</ele>
        <time>2022-05-20 20:09:50</time>
      </trkpt>
      <trkpt lat="41.22733" lon="1.29247">
        <ele>180.8</ele>
        <time>2022-05-20 20:09:51</time>
      </trkpt>
      <trkpt lat="41.22737" lon="1.29247">
        <ele>181.2</ele>
        <time>2022-05-20 20:09:52</time>
      </trkpt>
      <trkpt lat="41.22742" lon="1.29246">
        <ele>181.4</ele>
        <time>2022-05-20 20:09:53</time>
      </trkpt>
      <trkpt lat="41.22747" lon="1.29246">
        <ele>181.8</ele>
        <time>2022-05-20 20:09:54</time>
      </trkpt>
      <trkpt lat="41.22752" lon="1.29245">
        <ele>182</ele>
        <time>2022-05-20 20:09:55</time>
      </trkpt>
      <trkpt lat="41.22757" lon="1.29244">
        <ele>182.4</ele>
        <time>2022-05-20 20:09:56</time>
      </trkpt>
      <trkpt lat="41.22762" lon="1.29243">
        <ele>182.6</ele>
        <time>2022-05-20 20:09:57</time>
      </trkpt>
      <trkpt lat="41.22767" lon="1.29243">
        <ele>183</ele>
        <time>2022-05-20 20:09:58</time>
      </trkpt>
      <trkpt lat="41.22772" lon="1.29242">
        <ele>183.2</ele>
        <time>2022-05-20 20:09:59</time>
      </trkpt>
      <trkpt lat="41.22777" lon="1.29241">
        <ele>183.6</ele>
        <time>2022-05-20 20:10:00</time>
      </trkpt>
      <trkpt lat="41.22782" lon="1.2924">
        <ele>183.8</ele>
        <time>2022-05-20 20:10:01</time>
      </trkpt>
      <trkpt lat="41.22786" lon="1.2924">
        <ele>184.2</ele>
        <time>2022-05-20 20:10:02</time>
      </trkpt>
      <trkpt lat="41.22791" lon="1.29239">
        <ele>184.4</ele>
        <time>2022-05-20 20:10:03</time>
      </trkpt>
      <trkpt lat="41.22796" lon="1.29238">
        <ele>184.8</ele>
        <time>2022-05-20 20:10:04</time>
      </trkpt>
      <trkpt lat="41.22801" lon="1.29237">
        <ele>185</ele>
        <time>2022-05-20 20:10:05</time>
      </trkpt>
      <trkpt lat="41.22806" lon="1.29236">
        <ele>185.4</ele>
        <time>2022-05-20 20:10:06</time>
      </trkpt>
      <trkpt lat="41.22811" lon="1.29235">
        <ele>185.6</ele>
        <time>2022-05-20 20:10:07</time>
      </trkpt>
      <trkpt lat="41.22816" lon="1.29234">
        <ele>186</ele>
        <time>2022-05-20 20:10:08</time>
      </trkpt>
      <trkpt lat="41.2282" lon="1.29233">
        <ele>186.2</ele>
        <time>2022-05-20 20:10:09</time>
      </trkpt>
      <trkpt lat="41.22825" lon="1.29232">
        <ele>186.6</ele>
        <time>2022-05-20 20:10:10</time>
      </trkpt>
      <trkpt lat="41.2283" lon="1.2923">
        <ele>186.8</ele>
        <time>2022-05-20 20:10:11</time>
      </trkpt>
      <trkpt lat="41.22835" lon="1.29228">
        <ele>187.2</ele>
        <time>2022-05-20 20:10:12</time>
      </trkpt>
      <trkpt lat="41.2284" lon="1.29226">
        <ele>187.4</ele>
        <time>2022-05-20 20:10:13</time>
      </trkpt>
      <trkpt lat="41.22845" lon="1.29225">
        <ele>187.8</ele>
        <time>2022-05-20 20:10:14</time>
      </trkpt>
      <trkpt lat="41.2285" lon="1.29222">
        <ele>188</ele>
        <time>2022-05-20 20:10:15</time>
      </trkpt>
      <trkpt lat="41.22855" lon="1.2922">
        <ele>188.4</ele>
        <time>2022-05-20 20:10:16</time>
      </trkpt>
      <trkpt lat="41.2286" lon="1.29217">
        <ele>188.6</ele>
        <time>2022-05-20 20:10:17</time>
      </trkpt>
      <trkpt lat="41.22865" lon="1.29215">
        <ele>189</ele>
        <time>2022-05-20 20:10:18</time>
      </trkpt>
      <trkpt lat="41.22869" lon="1.29212">
        <ele>189.2</ele>
        <time>2022-05-20 20:10:19</time>
      </trkpt>
      <trkpt lat="41.22874" lon="1.29209">
        <ele>189.4</ele>
        <time>2022-05-20 20:10:20</time>
      </trkpt>
      <trkpt lat="41.22879" lon="1.29206">
        <ele>189.8</ele>
        <time>2022-05-20 20:10:21</time>
      </trkpt>
      <trkpt lat="41.22884" lon="1.29203">
        <ele>190</ele>
        <time>2022-05-20 20:10:22</time>
      </trkpt>
      <trkpt lat="41.22889" lon="1.29199">
        <ele>190.4</ele>
        <time>2022-05-20 20:10:23</time>
      </trkpt>
      <trkpt lat="41.22895" lon="1.29196">
        <ele>190.6</ele>
        <time>2022-05-20 20:10:24</time>
      </trkpt>
      <trkpt lat="41.229" lon="1.29193">
        <ele>190.8</ele>
        <time>2022-05-20 20:10:25</time>
      </trkpt>
      <trkpt lat="41.22905" lon="1.2919">
        <ele>191.2</ele>
        <time>2022-05-20 20:10:26</time>
      </trkpt>
      <trkpt lat="41.2291" lon="1.29187">
        <ele>191.4</ele>
        <time>2022-05-20 20:10:27</time>
      </trkpt>
      <trkpt lat="41.22915" lon="1.29183">
        <ele>191.6</ele>
        <time>2022-05-20 20:10:28</time>
      </trkpt>
      <trkpt lat="41.2292" lon="1.2918">
        <ele>191.8</ele>
        <time>2022-05-20 20:10:29</time>
      </trkpt>
      <trkpt lat="41.22924" lon="1.29176">
        <ele>192.2</ele>
        <time>2022-05-20 20:10:30</time>
      </trkpt>
      <trkpt lat="41.22929" lon="1.29173">
        <ele>192.4</ele>
        <time>2022-05-20 20:10:31</time>
      </trkpt>
      <trkpt lat="41.22934" lon="1.2917">
        <ele>192.4</ele>
        <time>2022-05-20 20:10:32</time>
      </trkpt>
      <trkpt lat="41.22939" lon="1.29166">
        <ele>192.6</ele>
        <time>2022-05-20 20:10:33</time>
      </trkpt>
      <trkpt lat="41.22944" lon="1.29163">
        <ele>192.8</ele>
        <time>2022-05-20 20:10:34</time>
      </trkpt>
      <trkpt lat="41.2295" lon="1.2916">
        <ele>193</ele>
        <time>2022-05-20 20:10:35</time>
      </trkpt>
      <trkpt lat="41.22955" lon="1.29157">
        <ele>193.2</ele>
        <time>2022-05-20 20:10:36</time>
      </trkpt>
      <trkpt lat="41.2296" lon="1.29154">
        <ele>193.4</ele>
        <time>2022-05-20 20:10:37</time>
      </trkpt>
      <trkpt lat="41.22966" lon="1.29152">
        <ele>193.6</ele>
        <time>2022-05-20 20:10:38</time>
      </trkpt>
      <trkpt lat="41.22972" lon="1.29149">
        <ele>193.8</ele>
        <time>2022-05-20 20:10:39</time>
      </trkpt>
      <trkpt lat="41.22977" lon="1.29147">
        <ele>194</ele>
        <time>2022-05-20 20:10:40</time>
      </trkpt>
      <trkpt lat="41.22983" lon="1.29145">
        <ele>194.2</ele>
        <time>2022-05-20 20:10:41</time>
      </trkpt>
      <trkpt lat="41.22989" lon="1.29143">
        <ele>194.2</ele>
        <time>2022-05-20 20:10:42</time>
      </trkpt>
      <trkpt lat="41.22995" lon="1.29141">
        <ele>194.4</ele>
        <time>2022-05-20 20:10:43</time>
      </trkpt>
      <trkpt lat="41.23" lon="1.2914">
        <ele>194.6</ele>
        <time>2022-05-20 20:10:44</time>
      </trkpt>
      <trkpt lat="41.23006" lon="1.29139">
        <ele>194.8</ele>
        <time>2022-05-20 20:10:45</time>
      </trkpt>
      <trkpt lat="41.23012" lon="1.29138">
        <ele>195</ele>
        <time>2022-05-20 20:10:46</time>
      </trkpt>
      <trkpt lat="41.23018" lon="1.29137">
        <ele>195.2</ele>
        <time>2022-05-20 20:10:47</time>
      </trkpt>
      <trkpt lat="41.23024" lon="1.29137">
        <ele>195.4</ele>
        <time>2022-05-20 20:10:48</time>
      </trkpt>
      <trkpt lat="41.23029" lon="1.29137">
        <ele>195.6</ele>
        <time>2022-05-20 20:10:49</time>
      </trkpt>
      <trkpt lat="41.23035" lon="1.29137">
        <ele>195.8</ele>
        <time>2022-05-20 20:10:50</time>
      </trkpt>
      <trkpt lat="41.23041" lon="1.29138">
        <ele>196</ele>
        <time>2022-05-20 20:10:51</time>
      </trkpt>
      <trkpt lat="41.23047" lon="1.29138">
        <ele>196.2</ele>
        <time>2022-05-20 20:10:52</time>
      </trkpt>
      <trkpt lat="41.23053" lon="1.29139">
        <ele>196.4</ele>
        <time>2022-05-20 20:10:53</time>
      </trkpt>
      <trkpt lat="41.23059" lon="1.2914">
        <ele>196.6</ele>
        <time>2022-05-20 20:10:54</time>
      </trkpt>
      <trkpt lat="41.23065" lon="1.29141">
        <ele>196.8</ele>
        <time>2022-05-20 20:10:55</time>
      </trkpt>
      <trkpt lat="41.23071" lon="1.29143">
        <ele>197</ele>
        <time>2022-05-20 20:10:56</time>
      </trkpt>
      <trkpt lat="41.23077" lon="1.29145">
        <ele>197.2</ele>
        <time>2022-05-20 20:10:57</time>
      </trkpt>
      <trkpt lat="41.23083" lon="1.29147">
        <ele>197.4</ele>
        <time>2022-05-20 20:10:58</time>
      </trkpt>
      <trkpt lat="41.23089" lon="1.29149">
        <ele>197.6</ele>
        <time>2022-05-20 20:10:59</time>
      </trkpt>
      <trkpt lat="41.23095" lon="1.29152">
        <ele>198</ele>
        <time>2022-05-20 20:11:00</time>
      </trkpt>
      <trkpt lat="41.23101" lon="1.29154">
        <ele>198.2</ele>
        <time>2022-05-20 20:11:01</time>
      </trkpt>
      <trkpt lat="41.23107" lon="1.29157">
        <ele>198.4</ele>
        <time>2022-05-20 20:11:02</time>
      </trkpt>
      <trkpt lat="41.23112" lon="1.2916">
        <ele>198.6</ele>
        <time>2022-05-20 20:11:03</time>
      </trkpt>
      <trkpt lat="41.23118" lon="1.29164">
        <ele>198.8</ele>
        <time>2022-05-20 20:11:04</time>
      </trkpt>
      <trkpt lat="41.23124" lon="1.29168">
        <ele>199</ele>
        <time>2022-05-20 20:11:05</time>
      </trkpt>
      <trkpt lat="41.2313" lon="1.29171">
        <ele>199.2</ele>
        <time>2022-05-20 20:11:06</time>
      </trkpt>
      <trkpt lat="41.23135" lon="1.29175">
        <ele>199.4</ele>
        <time>2022-05-20 20:11:07</time>
      </trkpt>
      <trkpt lat="41.23141" lon="1.29179">
        <ele>199.6</ele>
        <time>2022-05-20 20:11:08</time>
      </trkpt>
      <trkpt lat="41.23146" lon="1.29183">
        <ele>200</ele>
        <time>2022-05-20 20:11:09</time>
      </trkpt>
      <trkpt lat="41.23152" lon="1.29187">
        <ele>200.2</ele>
        <time>2022-05-20 20:11:10</time>
      </trkpt>
      <trkpt lat="41.23158" lon="1.29191">
        <ele>200.2</ele>
        <time>2022-05-20 20:11:11</time>
      </trkpt>
      <trkpt lat="41.23164" lon="1.29195">
        <ele>200.4</ele>
        <time>2022-05-20 20:11:12</time>
      </trkpt>
      <trkpt lat="41.23169" lon="1.292">
        <ele>200.6</ele>
        <time>2022-05-20 20:11:13</time>
      </trkpt>
      <trkpt lat="41.23175" lon="1.29204">
        <ele>200.8</ele>
        <time>2022-05-20 20:11:14</time>
      </trkpt>
      <trkpt lat="41.23181" lon="1.29208">
        <ele>201</ele>
        <time>2022-05-20 20:11:15</time>
      </trkpt>
      <trkpt lat="41.23186" lon="1.29212">
        <ele>201.2</ele>
        <time>2022-05-20 20:11:16</time>
      </trkpt>
      <trkpt lat="41.23192" lon="1.29215">
        <ele>201.4</ele>
        <time>2022-05-20 20:11:17</time>
      </trkpt>
      <trkpt lat="41.23198" lon="1.29219">
        <ele>201.6</ele>
        <time>2022-05-20 20:11:18</time>
      </trkpt>
      <trkpt lat="41.23204" lon="1.29223">
        <ele>201.8</ele>
        <time>2022-05-20 20:11:19</time>
      </trkpt>
      <trkpt lat="41.23209" lon="1.29226">
        <ele>202</ele>
        <time>2022-05-20 20:11:20</time>
      </trkpt>
      <trkpt lat="41.23215" lon="1.2923">
        <ele>202.2</ele>
        <time>2022-05-20 20:11:21</time>
      </trkpt>
      <trkpt lat="41.23221" lon="1.29233">
        <ele>202.4</ele>
        <time>2022-05-20 20:11:22</time>
      </trkpt>
      <trkpt lat="41.23228" lon="1.29236">
        <ele>202.6</ele>
        <time>2022-05-20 20:11:23</time>
      </trkpt>
      <trkpt lat="41.23234" lon="1.29239">
        <ele>202.8</ele>
        <time>2022-05-20 20:11:24</time>
      </trkpt>
      <trkpt lat="41.2324" lon="1.29241">
        <ele>203</ele>
        <time>2022-05-20 20:11:25</time>
      </trkpt>
      <trkpt lat="41.23247" lon="1.29243">
        <ele>203.2</ele>
        <time>2022-05-20 20:11:26</time>
      </trkpt>
      <trkpt lat="41.23254" lon="1.29245">
        <ele>203.4</ele>
        <time>2022-05-20 20:11:27</time>
      </trkpt>
      <trkpt lat="41.2326" lon="1.29247">
        <ele>203.6</ele>
        <time>2022-05-20 20:11:28</time>
      </trkpt>
      <trkpt lat="41.23267" lon="1.29248">
        <ele>203.8</ele>
        <time>2022-05-20 20:11:29</time>
      </trkpt>
      <trkpt lat="41.23273" lon="1.29249">
        <ele>204</ele>
        <time>2022-05-20 20:11:30</time>
      </trkpt>
      <trkpt lat="41.2328" lon="1.29251">
        <ele>204.2</ele>
        <time>2022-05-20 20:11:31</time>
      </trkpt>
      <trkpt lat="41.23287" lon="1.29252">
        <ele>204.4</ele>
        <time>2022-05-20 20:11:32</time>
      </trkpt>
      <trkpt lat="41.23294" lon="1.29252">
        <ele>204.6</ele>
        <time>2022-05-20 20:11:33</time>
      </trkpt>
      <trkpt lat="41.233" lon="1.29253">
        <ele>204.8</ele>
        <time>2022-05-20 20:11:34</time>
      </trkpt>
      <trkpt lat="41.23307" lon="1.29254">
        <ele>205</ele>
        <time>2022-05-20 20:11:35</time>
      </trkpt>
      <trkpt lat="41.23314" lon="1.29255">
        <ele>205.2</ele>
        <time>2022-05-20 20:11:36</time>
      </trkpt>
      <trkpt lat="41.2332" lon="1.29256">
        <ele>205.4</ele>
        <time>2022-05-20 20:11:37</time>
      </trkpt>
      <trkpt lat="41.23327" lon="1.29257">
        <ele>205.6</ele>
        <time>2022-05-20 20:11:38</time>
      </trkpt>
      <trkpt lat="41.23334" lon="1.29257">
        <ele>205.8</ele>
        <time>2022-05-20 20:11:39</time>
      </trkpt>
      <trkpt lat="41.23341" lon="1.29258">
        <ele>206</ele>
        <time>2022-05-20 20:11:40</time>
      </trkpt>
      <trkpt lat="41.23348" lon="1.29259">
        <ele>206.2</ele>
        <time>2022-05-20 20:11:41</time>
      </trkpt>
      <trkpt lat="41.23355" lon="1.2926">
        <ele>206.6</ele>
        <time>2022-05-20 20:11:42</time>
      </trkpt>
      <trkpt lat="41.23362" lon="1.29261">
        <ele>206.8</ele>
        <time>2022-05-20 20:11:43</time>
      </trkpt>
      <trkpt lat="41.23368" lon="1.29261">
        <ele>207</ele>
        <time>2022-05-20 20:11:44</time>
      </trkpt>
      <trkpt lat="41.23376" lon="1.29262">
        <ele>207.2</ele>
        <time>2022-05-20 20:11:45</time>
      </trkpt>
      <trkpt lat="41.23383" lon="1.29263">
        <ele>207.4</ele>
        <time>2022-05-20 20:11:46</time>
      </trkpt>
      <trkpt lat="41.2339" lon="1.29264">
        <ele>207.6</ele>
        <time>2022-05-20 20:11:47</time>
      </trkpt>
      <trkpt lat="41.23397" lon="1.29265">
        <ele>208</ele>
        <time>2022-05-20 20:11:48</time>
      </trkpt>
      <trkpt lat="41.23404" lon="1.29266">
        <ele>208.2</ele>
        <time>2022-05-20 20:11:49</time>
      </trkpt>
      <trkpt lat="41.2341" lon="1.29267">
        <ele>208.4</ele>
        <time>2022-05-20 20:11:50</time>
      </trkpt>
      <trkpt lat="41.23418" lon="1.29268">
        <ele>208.6</ele>
        <time>2022-05-20 20:11:51</time>
      </trkpt>
      <trkpt lat="41.23425" lon="1.29269">
        <ele>208.8</ele>
        <time>2022-05-20 20:11:52</time>
      </trkpt>
      <trkpt lat="41.23431" lon="1.29269">
        <ele>209</ele>
        <time>2022-05-20 20:11:53</time>
      </trkpt>
      <trkpt lat="41.23438" lon="1.2927">
        <ele>209</ele>
        <time>2022-05-20 20:11:54</time>
      </trkpt>
      <trkpt lat="41.23446" lon="1.29271">
        <ele>209.2</ele>
        <time>2022-05-20 20:11:55</time>
      </trkpt>
      <trkpt lat="41.23452" lon="1.29272">
        <ele>209.4</ele>
        <time>2022-05-20 20:11:56</time>
      </trkpt>
      <trkpt lat="41.2346" lon="1.29273">
        <ele>209.4</ele>
        <time>2022-05-20 20:11:57</time>
      </trkpt>
      <trkpt lat="41.23467" lon="1.29274">
        <ele>209.6</ele>
        <time>2022-05-20 20:11:58</time>
      </trkpt>
      <trkpt lat="41.23474" lon="1.29275">
        <ele>209.6</ele>
        <time>2022-05-20 20:11:59</time>
      </trkpt>
      <trkpt lat="41.23482" lon="1.29276">
        <ele>209.6</ele>
        <time>2022-05-20 20:12:00</time>
      </trkpt>
      <trkpt lat="41.2349" lon="1.29277">
        <ele>209.8</ele>
        <time>2022-05-20 20:12:01</time>
      </trkpt>
      <trkpt lat="41.23497" lon="1.29278">
        <ele>209.8</ele>
        <time>2022-05-20 20:12:02</time>
      </trkpt>
      <trkpt lat="41.23505" lon="1.29279">
        <ele>210</ele>
        <time>2022-05-20 20:12:03</time>
      </trkpt>
      <trkpt lat="41.23512" lon="1.2928">
        <ele>210</ele>
        <time>2022-05-20 20:12:04</time>
      </trkpt>
      <trkpt lat="41.2352" lon="1.2928">
        <ele>210</ele>
        <time>2022-05-20 20:12:05</time>
      </trkpt>
      <trkpt lat="41.23528" lon="1.29281">
        <ele>210</ele>
        <time>2022-05-20 20:12:06</time>
      </trkpt>
      <trkpt lat="41.23536" lon="1.29283">
        <ele>210</ele>
        <time>2022-05-20 20:12:07</time>
      </trkpt>
      <trkpt lat="41.23544" lon="1.29284">
        <ele>210</ele>
        <time>2022-05-20 20:12:08</time>
      </trkpt>
      <trkpt lat="41.23552" lon="1.29285">
        <ele>210.2</ele>
        <time>2022-05-20 20:12:09</time>
      </trkpt>
      <trkpt lat="41.2356" lon="1.29287">
        <ele>210.2</ele>
        <time>2022-05-20 20:12:10</time>
      </trkpt>
      <trkpt lat="41.23568" lon="1.29288">
        <ele>210.2</ele>
        <time>2022-05-20 20:12:11</time>
      </trkpt>
      <trkpt lat="41.23576" lon="1.2929">
        <ele>210.2</ele>
        <time>2022-05-20 20:12:12</time>
      </trkpt>
      <trkpt lat="41.23584" lon="1.29293">
        <ele>210.2</ele>
        <time>2022-05-20 20:12:13</time>
      </trkpt>
      <trkpt lat="41.23592" lon="1.29296">
        <ele>210.2</ele>
        <time>2022-05-20 20:12:14</time>
      </trkpt>
      <trkpt lat="41.236" lon="1.29299">
        <ele>210.2</ele>
        <time>2022-05-20 20:12:15</time>
      </trkpt>
      <trkpt lat="41.23608" lon="1.29302">
        <ele>210.2</ele>
        <time>2022-05-20 20:12:16</time>
      </trkpt>
      <trkpt lat="41.23616" lon="1.29306">
        <ele>210.2</ele>
        <time>2022-05-20 20:12:17</time>
      </trkpt>
      <trkpt lat="41.23624" lon="1.2931">
        <ele>210.4</ele>
        <time>2022-05-20 20:12:18</time>
      </trkpt>
      <trkpt lat="41.23632" lon="1.29315">
        <ele>210.4</ele>
        <time>2022-05-20 20:12:19</time>
      </trkpt>
      <trkpt lat="41.23639" lon="1.2932">
        <ele>210.4</ele>
        <time>2022-05-20 20:12:20</time>
      </trkpt>
      <trkpt lat="41.23646" lon="1.29324">
        <ele>210.4</ele>
        <time>2022-05-20 20:12:21</time>
      </trkpt>
      <trkpt lat="41.23653" lon="1.29328">
        <ele>210.6</ele>
        <time>2022-05-20 20:12:22</time>
      </trkpt>
      <trkpt lat="41.23662" lon="1.29334">
        <ele>210.6</ele>
        <time>2022-05-20 20:12:23</time>
      </trkpt>
      <trkpt lat="41.2367" lon="1.2934">
        <ele>210.6</ele>
        <time>2022-05-20 20:12:24</time>
      </trkpt>
      <trkpt lat="41.23677" lon="1.29344">
        <ele>210.6</ele>
        <time>2022-05-20 20:12:25</time>
      </trkpt>
      <trkpt lat="41.23684" lon="1.29349">
        <ele>210.6</ele>
        <time>2022-05-20 20:12:26</time>
      </trkpt>
      <trkpt lat="41.23693" lon="1.29355">
        <ele>210.6</ele>
        <time>2022-05-20 20:12:27</time>
      </trkpt>
      <trkpt lat="41.23701" lon="1.2936">
        <ele>210.6</ele>
        <time>2022-05-20 20:12:28</time>
      </trkpt>
      <trkpt lat="41.23709" lon="1.29364">
        <ele>210.8</ele>
        <time>2022-05-20 20:12:29</time>
      </trkpt>
      <trkpt lat="41.23716" lon="1.29368">
        <ele>210.8</ele>
        <time>2022-05-20 20:12:30</time>
      </trkpt>
      <trkpt lat="41.23725" lon="1.29372">
        <ele>210.6</ele>
        <time>2022-05-20 20:12:31</time>
      </trkpt>
      <trkpt lat="41.23734" lon="1.29376">
        <ele>210.6</ele>
        <time>2022-05-20 20:12:32</time>
      </trkpt>
      <trkpt lat="41.23742" lon="1.2938">
        <ele>210.6</ele>
        <time>2022-05-20 20:12:33</time>
      </trkpt>
      <trkpt lat="41.23751" lon="1.29383">
        <ele>210.6</ele>
        <time>2022-05-20 20:12:34</time>
      </trkpt>
      <trkpt lat="41.23759" lon="1.29386">
        <ele>210.4</ele>
        <time>2022-05-20 20:12:35</time>
      </trkpt>
      <trkpt lat="41.23768" lon="1.2939">
        <ele>210.4</ele>
        <time>2022-05-20 20:12:36</time>
      </trkpt>
      <trkpt lat="41.23777" lon="1.29393">
        <ele>210.4</ele>
        <time>2022-05-20 20:12:37</time>
      </trkpt>
      <trkpt lat="41.23786" lon="1.29396">
        <ele>210.4</ele>
        <time>2022-05-20 20:12:38</time>
      </trkpt>
      <trkpt lat="41.23795" lon="1.29398">
        <ele>210.4</ele>
        <time>2022-05-20 20:12:39</time>
      </trkpt>
      <trkpt lat="41.23803" lon="1.29401">
        <ele>210.4</ele>
        <time>2022-05-20 20:12:40</time>
      </trkpt>
      <trkpt lat="41.23812" lon="1.29403">
        <ele>210.2</ele>
        <time>2022-05-20 20:12:41</time>
      </trkpt>
      <trkpt lat="41.23821" lon="1.29406">
        <ele>210.2</ele>
        <time>2022-05-20 20:12:42</time>
      </trkpt>
      <trkpt lat="41.23829" lon="1.29408">
        <ele>210.2</ele>
        <time>2022-05-20 20:12:43</time>
      </trkpt>
      <trkpt lat="41.23838" lon="1.2941">
        <ele>210.2</ele>
        <time>2022-05-20 20:12:44</time>
      </trkpt>
      <trkpt lat="41.23848" lon="1.29412">
        <ele>210.2</ele>
        <time>2022-05-20 20:12:45</time>
      </trkpt>
      <trkpt lat="41.23856" lon="1.29414">
        <ele>210.2</ele>
        <time>2022-05-20 20:12:46</time>
      </trkpt>
      <trkpt lat="41.23865" lon="1.29416">
        <ele>210.2</ele>
        <time>2022-05-20 20:12:47</time>
      </trkpt>
      <trkpt lat="41.23873" lon="1.29419">
        <ele>210.2</ele>
        <time>2022-05-20 20:12:48</time>
      </trkpt>
      <trkpt lat="41.23882" lon="1.29422">
        <ele>210.2</ele>
        <time>2022-05-20 20:12:49</time>
      </trkpt>
      <trkpt lat="41.23891" lon="1.29424">
        <ele>210</ele>
        <time>2022-05-20 20:12:50</time>
      </trkpt>
      <trkpt lat="41.239" lon="1.29427">
        <ele>210</ele>
        <time>2022-05-20 20:12:51</time>
      </trkpt>
      <trkpt lat="41.23911" lon="1.29429">
        <ele>210</ele>
        <time>2022-05-20 20:12:52</time>
      </trkpt>
      <trkpt lat="41.2392" lon="1.29431">
        <ele>210</ele>
        <time>2022-05-20 20:12:53</time>
      </trkpt>
      <trkpt lat="41.2393" lon="1.29433">
        <ele>210</ele>
        <time>2022-05-20 20:12:54</time>
      </trkpt>
      <trkpt lat="41.2394" lon="1.29436">
        <ele>210</ele>
        <time>2022-05-20 20:12:55</time>
      </trkpt>
      <trkpt lat="41.23949" lon="1.29439">
        <ele>210</ele>
        <time>2022-05-20 20:12:56</time>
      </trkpt>
      <trkpt lat="41.23959" lon="1.29441">
        <ele>210</ele>
        <time>2022-05-20 20:12:57</time>
      </trkpt>
      <trkpt lat="41.23968" lon="1.29444">
        <ele>210</ele>
        <time>2022-05-20 20:12:58</time>
      </trkpt>
      <trkpt lat="41.23977" lon="1.29446">
        <ele>210</ele>
        <time>2022-05-20 20:12:59</time>
      </trkpt>
      <trkpt lat="41.23986" lon="1.29449">
        <ele>210</ele>
        <time>2022-05-20 20:13:00</time>
      </trkpt>
      <trkpt lat="41.23994" lon="1.29452">
        <ele>210</ele>
        <time>2022-05-20 20:13:01</time>
      </trkpt>
      <trkpt lat="41.24004" lon="1.29455">
        <ele>210</ele>
        <time>2022-05-20 20:13:02</time>
      </trkpt>
      <trkpt lat="41.24013" lon="1.29457">
        <ele>210</ele>
        <time>2022-05-20 20:13:03</time>
      </trkpt>
      <trkpt lat="41.24022" lon="1.29459">
        <ele>210</ele>
        <time>2022-05-20 20:13:04</time>
      </trkpt>
      <trkpt lat="41.2403" lon="1.29462">
        <ele>210</ele>
        <time>2022-05-20 20:13:05</time>
      </trkpt>
      <trkpt lat="41.24039" lon="1.29464">
        <ele>210.2</ele>
        <time>2022-05-20 20:13:06</time>
      </trkpt>
      <trkpt lat="41.24047" lon="1.29467">
        <ele>210.2</ele>
        <time>2022-05-20 20:13:07</time>
      </trkpt>
      <trkpt lat="41.24056" lon="1.29471">
        <ele>210.4</ele>
        <time>2022-05-20 20:13:08</time>
      </trkpt>
      <trkpt lat="41.24064" lon="1.29474">
        <ele>210.4</ele>
        <time>2022-05-20 20:13:09</time>
      </trkpt>
      <trkpt lat="41.24072" lon="1.29479">
        <ele>210.4</ele>
        <time>2022-05-20 20:13:10</time>
      </trkpt>
      <trkpt lat="41.2408" lon="1.29483">
        <ele>210.6</ele>
        <time>2022-05-20 20:13:11</time>
      </trkpt>
      <trkpt lat="41.24088" lon="1.29488">
        <ele>210.6</ele>
        <time>2022-05-20 20:13:12</time>
      </trkpt>
      <trkpt lat="41.24094" lon="1.29493">
        <ele>211</ele>
        <time>2022-05-20 20:13:13</time>
      </trkpt>
      <trkpt lat="41.24102" lon="1.29498">
        <ele>211.2</ele>
        <time>2022-05-20 20:13:14</time>
      </trkpt>
      <trkpt lat="41.24109" lon="1.29504">
        <ele>211.4</ele>
        <time>2022-05-20 20:13:15</time>
      </trkpt>
      <trkpt lat="41.24115" lon="1.2951">
        <ele>211.8</ele>
        <time>2022-05-20 20:13:16</time>
      </trkpt>
      <trkpt lat="41.24121" lon="1.29516">
        <ele>212</ele>
        <time>2022-05-20 20:13:17</time>
      </trkpt>
      <trkpt lat="41.24127" lon="1.29522">
        <ele>212.4</ele>
        <time>2022-05-20 20:13:18</time>
      </trkpt>
      <trkpt lat="41.24133" lon="1.29527">
        <ele>212.6</ele>
        <time>2022-05-20 20:13:19</time>
      </trkpt>
      <trkpt lat="41.24138" lon="1.29533">
        <ele>213</ele>
        <time>2022-05-20 20:13:20</time>
      </trkpt>
      <trkpt lat="41.24144" lon="1.29538">
        <ele>213.4</ele>
        <time>2022-05-20 20:13:21</time>
      </trkpt>
      <trkpt lat="41.24149" lon="1.29544">
        <ele>213.8</ele>
        <time>2022-05-20 20:13:22</time>
      </trkpt>
      <trkpt lat="41.24154" lon="1.29549">
        <ele>214.2</ele>
        <time>2022-05-20 20:13:23</time>
      </trkpt>
      <trkpt lat="41.2416" lon="1.29554">
        <ele>214.4</ele>
        <time>2022-05-20 20:13:24</time>
      </trkpt>
      <trkpt lat="41.24165" lon="1.29559">
        <ele>214.8</ele>
        <time>2022-05-20 20:13:25</time>
      </trkpt>
      <trkpt lat="41.2417" lon="1.29564">
        <ele>215.2</ele>
        <time>2022-05-20 20:13:26</time>
      </trkpt>
      <trkpt lat="41.24175" lon="1.29569">
        <ele>215.6</ele>
        <time>2022-05-20 20:13:27</time>
      </trkpt>
      <trkpt lat="41.2418" lon="1.29574">
        <ele>216</ele>
        <time>2022-05-20 20:13:28</time>
      </trkpt>
      <trkpt lat="41.24186" lon="1.29578">
        <ele>216.2</ele>
        <time>2022-05-20 20:13:29</time>
      </trkpt>
      <trkpt lat="41.24191" lon="1.29582">
        <ele>216.6</ele>
        <time>2022-05-20 20:13:30</time>
      </trkpt>
      <trkpt lat="41.24196" lon="1.29586">
        <ele>217</ele>
        <time>2022-05-20 20:13:31</time>
      </trkpt>
      <trkpt lat="41.24202" lon="1.2959">
        <ele>217.2</ele>
        <time>2022-05-20 20:13:32</time>
      </trkpt>
      <trkpt lat="41.24208" lon="1.29594">
        <ele>217.6</ele>
        <time>2022-05-20 20:13:33</time>
      </trkpt>
      <trkpt lat="41.24214" lon="1.29598">
        <ele>217.8</ele>
        <time>2022-05-20 20:13:34</time>
      </trkpt>
      <trkpt lat="41.2422" lon="1.29601">
        <ele>218</ele>
        <time>2022-05-20 20:13:35</time>
      </trkpt>
      <trkpt lat="41.24226" lon="1.29604">
        <ele>218.4</ele>
        <time>2022-05-20 20:13:36</time>
      </trkpt>
      <trkpt lat="41.24233" lon="1.29606">
        <ele>218.6</ele>
        <time>2022-05-20 20:13:37</time>
      </trkpt>
      <trkpt lat="41.2424" lon="1.29609">
        <ele>218.8</ele>
        <time>2022-05-20 20:13:38</time>
      </trkpt>
      <trkpt lat="41.24246" lon="1.29611">
        <ele>219</ele>
        <time>2022-05-20 20:13:39</time>
      </trkpt>
      <trkpt lat="41.24252" lon="1.29613">
        <ele>219.4</ele>
        <time>2022-05-20 20:13:40</time>
      </trkpt>
      <trkpt lat="41.24259" lon="1.29614">
        <ele>219.6</ele>
        <time>2022-05-20 20:13:41</time>
      </trkpt>
      <trkpt lat="41.24266" lon="1.29615">
        <ele>219.8</ele>
        <time>2022-05-20 20:13:42</time>
      </trkpt>
      <trkpt lat="41.24272" lon="1.29616">
        <ele>220</ele>
        <time>2022-05-20 20:13:43</time>
      </trkpt>
      <trkpt lat="41.24279" lon="1.29617">
        <ele>220.2</ele>
        <time>2022-05-20 20:13:44</time>
      </trkpt>
      <trkpt lat="41.24286" lon="1.29617">
        <ele>220.4</ele>
        <time>2022-05-20 20:13:45</time>
      </trkpt>
      <trkpt lat="41.24293" lon="1.29617">
        <ele>220.4</ele>
        <time>2022-05-20 20:13:46</time>
      </trkpt>
      <trkpt lat="41.243" lon="1.29617">
        <ele>220.6</ele>
        <time>2022-05-20 20:13:47</time>
      </trkpt>
      <trkpt lat="41.24306" lon="1.29616">
        <ele>220.8</ele>
        <time>2022-05-20 20:13:48</time>
      </trkpt>
      <trkpt lat="41.24313" lon="1.29616">
        <ele>220.8</ele>
        <time>2022-05-20 20:13:49</time>
      </trkpt>
      <trkpt lat="41.2432" lon="1.29615">
        <ele>221</ele>
        <time>2022-05-20 20:13:50</time>
      </trkpt>
      <trkpt lat="41.24327" lon="1.29615">
        <ele>221</ele>
        <time>2022-05-20 20:13:51</time>
      </trkpt>
      <trkpt lat="41.24334" lon="1.29614">
        <ele>221.2</ele>
        <time>2022-05-20 20:13:52</time>
      </trkpt>
      <trkpt lat="41.24342" lon="1.29614">
        <ele>221.2</ele>
        <time>2022-05-20 20:13:53</time>
      </trkpt>
      <trkpt lat="41.24348" lon="1.29613">
        <ele>221.4</ele>
        <time>2022-05-20 20:13:54</time>
      </trkpt>
      <trkpt lat="41.24356" lon="1.29613">
        <ele>221.4</ele>
        <time>2022-05-20 20:13:55</time>
      </trkpt>
      <trkpt lat="41.24364" lon="1.29612">
        <ele>221.6</ele>
        <time>2022-05-20 20:13:56</time>
      </trkpt>
      <trkpt lat="41.24371" lon="1.29611">
        <ele>221.6</ele>
        <time>2022-05-20 20:13:57</time>
      </trkpt>
      <trkpt lat="41.24379" lon="1.29611">
        <ele>221.6</ele>
        <time>2022-05-20 20:13:58</time>
      </trkpt>
      <trkpt lat="41.24387" lon="1.2961">
        <ele>221.6</ele>
        <time>2022-05-20 20:13:59</time>
      </trkpt>
      <trkpt lat="41.24395" lon="1.29609">
        <ele>221.6</ele>
        <time>2022-05-20 20:14:00</time>
      </trkpt>
      <trkpt lat="41.24403" lon="1.29608">
        <ele>221.6</ele>
        <time>2022-05-20 20:14:01</time>
      </trkpt>
      <trkpt lat="41.2441" lon="1.29608">
        <ele>221.6</ele>
        <time>2022-05-20 20:14:02</time>
      </trkpt>
      <trkpt lat="41.24418" lon="1.29607">
        <ele>221.6</ele>
        <time>2022-05-20 20:14:03</time>
      </trkpt>
      <trkpt lat="41.24426" lon="1.29606">
        <ele>221.4</ele>
        <time>2022-05-20 20:14:04</time>
      </trkpt>
      <trkpt lat="41.24435" lon="1.29606">
        <ele>221.4</ele>
        <time>2022-05-20 20:14:05</time>
      </trkpt>
      <trkpt lat="41.24443" lon="1.29605">
        <ele>221.2</ele>
        <time>2022-05-20 20:14:06</time>
      </trkpt>
      <trkpt lat="41.24451" lon="1.29604">
        <ele>221.2</ele>
        <time>2022-05-20 20:14:07</time>
      </trkpt>
      <trkpt lat="41.24459" lon="1.29604">
        <ele>221</ele>
        <time>2022-05-20 20:14:08</time>
      </trkpt>
      <trkpt lat="41.24467" lon="1.29606">
        <ele>221</ele>
        <time>2022-05-20 20:14:09</time>
      </trkpt>
      <trkpt lat="41.24475" lon="1.29609">
        <ele>221</ele>
        <time>2022-05-20 20:14:10</time>
      </trkpt>
      <trkpt lat="41.24482" lon="1.29614">
        <ele>221</ele>
        <time>2022-05-20 20:14:11</time>
      </trkpt>
      <trkpt lat="41.24489" lon="1.29618">
        <ele>220.8</ele>
        <time>2022-05-20 20:14:12</time>
      </trkpt>
      <trkpt lat="41.24497" lon="1.29621">
        <ele>220.8</ele>
        <time>2022-05-20 20:14:13</time>
      </trkpt>
      <trkpt lat="41.24504" lon="1.29622">
        <ele>220.6</ele>
        <time>2022-05-20 20:14:14</time>
      </trkpt>
      <trkpt lat="41.24512" lon="1.2962">
        <ele>220.4</ele>
        <time>2022-05-20 20:14:15</time>
      </trkpt>
      <trkpt lat="41.24521" lon="1.29619">
        <ele>220.2</ele>
        <time>2022-05-20 20:14:16</time>
      </trkpt>
      <trkpt lat="41.2453" lon="1.29618">
        <ele>219.8</ele>
        <time>2022-05-20 20:14:17</time>
      </trkpt>
      <trkpt lat="41.24539" lon="1.29619">
        <ele>219.6</ele>
        <time>2022-05-20 20:14:18</time>
      </trkpt>
      <trkpt lat="41.24549" lon="1.29621">
        <ele>219.2</ele>
        <time>2022-05-20 20:14:19</time>
      </trkpt>
      <trkpt lat="41.24557" lon="1.29622">
        <ele>218.8</ele>
        <time>2022-05-20 20:14:20</time>
      </trkpt>
      <trkpt lat="41.24567" lon="1.29625">
        <ele>218.4</ele>
        <time>2022-05-20 20:14:21</time>
      </trkpt>
      <trkpt lat="41.24577" lon="1.2963">
        <ele>218</ele>
        <time>2022-05-20 20:14:22</time>
      </trkpt>
      <trkpt lat="41.24588" lon="1.29635">
        <ele>217.6</ele>
        <time>2022-05-20 20:14:23</time>
      </trkpt>
      <trkpt lat="41.24598" lon="1.29642">
        <ele>217.2</ele>
        <time>2022-05-20 20:14:24</time>
      </trkpt>
      <trkpt lat="41.24607" lon="1.2965">
        <ele>216.8</ele>
        <time>2022-05-20 20:14:25</time>
      </trkpt>
      <trkpt lat="41.24616" lon="1.29659">
        <ele>216.4</ele>
        <time>2022-05-20 20:14:26</time>
      </trkpt>
      <trkpt lat="41.24624" lon="1.29668">
        <ele>216</ele>
        <time>2022-05-20 20:14:27</time>
      </trkpt>
      <trkpt lat="41.24633" lon="1.29678">
        <ele>215.6</ele>
        <time>2022-05-20 20:14:28</time>
      </trkpt>
      <trkpt lat="41.24642" lon="1.29688">
        <ele>215.4</ele>
        <time>2022-05-20 20:14:29</time>
      </trkpt>
      <trkpt lat="41.2465" lon="1.29698">
        <ele>215.2</ele>
        <time>2022-05-20 20:14:30</time>
      </trkpt>
      <trkpt lat="41.24658" lon="1.29708">
        <ele>215</ele>
        <time>2022-05-20 20:14:31</time>
      </trkpt>
      <trkpt lat="41.24664" lon="1.29719">
        <ele>214.8</ele>
        <time>2022-05-20 20:14:32</time>
      </trkpt>
      <trkpt lat="41.2467" lon="1.2973">
        <ele>214.8</ele>
        <time>2022-05-20 20:14:33</time>
      </trkpt>
      <trkpt lat="41.24675" lon="1.29741">
        <ele>214.6</ele>
        <time>2022-05-20 20:14:34</time>
      </trkpt>
      <trkpt lat="41.24679" lon="1.29753">
        <ele>214.6</ele>
        <time>2022-05-20 20:14:35</time>
      </trkpt>
      <trkpt lat="41.24681" lon="1.29766">
        <ele>214.6</ele>
        <time>2022-05-20 20:14:36</time>
      </trkpt>
      <trkpt lat="41.2468" lon="1.29779">
        <ele>214.6</ele>
        <time>2022-05-20 20:14:37</time>
      </trkpt>
      <trkpt lat="41.24682" lon="1.2979">
        <ele>214.6</ele>
        <time>2022-05-20 20:14:38</time>
      </trkpt>
      <trkpt lat="41.24686" lon="1.29799">
        <ele>214.8</ele>
        <time>2022-05-20 20:14:39</time>
      </trkpt>
      <trkpt lat="41.24693" lon="1.29805">
        <ele>215</ele>
        <time>2022-05-20 20:14:40</time>
      </trkpt>
      <trkpt lat="41.247" lon="1.29809">
        <ele>215</ele>
        <time>2022-05-20 20:14:41</time>
      </trkpt>
      <trkpt lat="41.24708" lon="1.29814">
        <ele>215.2</ele>
        <time>2022-05-20 20:14:42</time>
      </trkpt>
      <trkpt lat="41.24715" lon="1.29819">
        <ele>215.2</ele>
        <time>2022-05-20 20:14:43</time>
      </trkpt>
      <trkpt lat="41.24722" lon="1.29827">
        <ele>215.4</ele>
        <time>2022-05-20 20:14:44</time>
      </trkpt>
      <trkpt lat="41.24728" lon="1.29835">
        <ele>215.6</ele>
        <time>2022-05-20 20:14:45</time>
      </trkpt>
      <trkpt lat="41.24733" lon="1.29845">
        <ele>215.8</ele>
        <time>2022-05-20 20:14:46</time>
      </trkpt>
      <trkpt lat="41.24737" lon="1.29855">
        <ele>216.2</ele>
        <time>2022-05-20 20:14:47</time>
      </trkpt>
      <trkpt lat="41.24742" lon="1.29864">
        <ele>216.4</ele>
        <time>2022-05-20 20:14:48</time>
      </trkpt>
      <trkpt lat="41.24746" lon="1.29874">
        <ele>216.6</ele>
        <time>2022-05-20 20:14:49</time>
      </trkpt>
      <trkpt lat="41.24751" lon="1.29884">
        <ele>216.8</ele>
        <time>2022-05-20 20:14:50</time>
      </trkpt>
      <trkpt lat="41.24755" lon="1.29893">
        <ele>217</ele>
        <time>2022-05-20 20:14:51</time>
      </trkpt>
      <trkpt lat="41.2476" lon="1.29902">
        <ele>217.2</ele>
        <time>2022-05-20 20:14:52</time>
      </trkpt>
      <trkpt lat="41.24765" lon="1.29912">
        <ele>217.4</ele>
        <time>2022-05-20 20:14:53</time>
      </trkpt>
      <trkpt lat="41.24769" lon="1.29921">
        <ele>217.6</ele>
        <time>2022-05-20 20:14:54</time>
      </trkpt>
      <trkpt lat="41.24774" lon="1.2993">
        <ele>217.8</ele>
        <time>2022-05-20 20:14:55</time>
      </trkpt>
      <trkpt lat="41.24779" lon="1.29939">
        <ele>217.8</ele>
        <time>2022-05-20 20:14:56</time>
      </trkpt>
      <trkpt lat="41.24784" lon="1.29948">
        <ele>218</ele>
        <time>2022-05-20 20:14:57</time>
      </trkpt>
      <trkpt lat="41.24789" lon="1.29957">
        <ele>218</ele>
        <time>2022-05-20 20:14:58</time>
      </trkpt>
      <trkpt lat="41.24794" lon="1.29965">
        <ele>218</ele>
        <time>2022-05-20 20:14:59</time>
      </trkpt>
      <trkpt lat="41.24799" lon="1.29974">
        <ele>218</ele>
        <time>2022-05-20 20:15:00</time>
      </trkpt>
      <trkpt lat="41.24804" lon="1.29983">
        <ele>218</ele>
        <time>2022-05-20 20:15:01</time>
      </trkpt>
      <trkpt lat="41.2481" lon="1.29992">
        <ele>217.8</ele>
        <time>2022-05-20 20:15:02</time>
      </trkpt>
      <trkpt lat="41.24815" lon="1.30001">
        <ele>217.8</ele>
        <time>2022-05-20 20:15:03</time>
      </trkpt>
      <trkpt lat="41.24821" lon="1.3001">
        <ele>217.8</ele>
        <time>2022-05-20 20:15:04</time>
      </trkpt>
      <trkpt lat="41.24827" lon="1.30019">
        <ele>217.6</ele>
        <time>2022-05-20 20:15:05</time>
      </trkpt>
      <trkpt lat="41.24833" lon="1.30027">
        <ele>217.6</ele>
        <time>2022-05-20 20:15:06</time>
      </trkpt>
      <trkpt lat="41.2484" lon="1.30035">
        <ele>217.4</ele>
        <time>2022-05-20 20:15:07</time>
      </trkpt>
      <trkpt lat="41.24847" lon="1.30044">
        <ele>217.4</ele>
        <time>2022-05-20 20:15:08</time>
      </trkpt>
      <trkpt lat="41.24855" lon="1.30051">
        <ele>217.2</ele>
        <time>2022-05-20 20:15:09</time>
      </trkpt>
      <trkpt lat="41.24863" lon="1.30059">
        <ele>217</ele>
        <time>2022-05-20 20:15:10</time>
      </trkpt>
      <trkpt lat="41.24871" lon="1.30067">
        <ele>217</ele>
        <time>2022-05-20 20:15:11</time>
      </trkpt>
      <trkpt lat="41.24878" lon="1.30075">
        <ele>216.8</ele>
        <time>2022-05-20 20:15:12</time>
      </trkpt>
      <trkpt lat="41.24886" lon="1.30082">
        <ele>216.8</ele>
        <time>2022-05-20 20:15:13</time>
      </trkpt>
      <trkpt lat="41.24894" lon="1.3009">
        <ele>216.6</ele>
        <time>2022-05-20 20:15:14</time>
      </trkpt>
      <trkpt lat="41.24902" lon="1.30096">
        <ele>216.6</ele>
        <time>2022-05-20 20:15:15</time>
      </trkpt>
      <trkpt lat="41.2491" lon="1.30102">
        <ele>216.4</ele>
        <time>2022-05-20 20:15:16</time>
      </trkpt>
      <trkpt lat="41.24918" lon="1.30108">
        <ele>216.6</ele>
        <time>2022-05-20 20:15:17</time>
      </trkpt>
      <trkpt lat="41.24926" lon="1.30113">
        <ele>216.6</ele>
        <time>2022-05-20 20:15:18</time>
      </trkpt>
      <trkpt lat="41.24934" lon="1.30117">
        <ele>216.8</ele>
        <time>2022-05-20 20:15:19</time>
      </trkpt>
      <trkpt lat="41.24943" lon="1.30122">
        <ele>217</ele>
        <time>2022-05-20 20:15:20</time>
      </trkpt>
      <trkpt lat="41.24951" lon="1.30126">
        <ele>217.2</ele>
        <time>2022-05-20 20:15:21</time>
      </trkpt>
      <trkpt lat="41.24959" lon="1.30129">
        <ele>217.4</ele>
        <time>2022-05-20 20:15:22</time>
      </trkpt>
      <trkpt lat="41.24967" lon="1.30133">
        <ele>217.8</ele>
        <time>2022-05-20 20:15:23</time>
      </trkpt>
      <trkpt lat="41.24975" lon="1.30137">
        <ele>218.2</ele>
        <time>2022-05-20 20:15:24</time>
      </trkpt>
      <trkpt lat="41.24982" lon="1.3014">
        <ele>218.6</ele>
        <time>2022-05-20 20:15:25</time>
      </trkpt>
      <trkpt lat="41.2499" lon="1.30143">
        <ele>218.8</ele>
        <time>2022-05-20 20:15:26</time>
      </trkpt>
      <trkpt lat="41.24997" lon="1.30146">
        <ele>219.2</ele>
        <time>2022-05-20 20:15:27</time>
      </trkpt>
      <trkpt lat="41.25004" lon="1.30149">
        <ele>219.6</ele>
        <time>2022-05-20 20:15:28</time>
      </trkpt>
      <trkpt lat="41.25011" lon="1.30151">
        <ele>220</ele>
        <time>2022-05-20 20:15:29</time>
      </trkpt>
      <trkpt lat="41.25017" lon="1.30154">
        <ele>220.6</ele>
        <time>2022-05-20 20:15:30</time>
      </trkpt>
      <trkpt lat="41.25024" lon="1.30157">
        <ele>221</ele>
        <time>2022-05-20 20:15:31</time>
      </trkpt>
      <trkpt lat="41.2503" lon="1.3016">
        <ele>221.4</ele>
        <time>2022-05-20 20:15:32</time>
      </trkpt>
      <trkpt lat="41.25035" lon="1.30163">
        <ele>221.6</ele>
        <time>2022-05-20 20:15:33</time>
      </trkpt>
      <trkpt lat="41.25041" lon="1.30168">
        <ele>222</ele>
        <time>2022-05-20 20:15:34</time>
      </trkpt>
      <trkpt lat="41.25047" lon="1.30173">
        <ele>222.2</ele>
        <time>2022-05-20 20:15:35</time>
      </trkpt>
      <trkpt lat="41.25051" lon="1.30178">
        <ele>222.6</ele>
        <time>2022-05-20 20:15:36</time>
      </trkpt>
      <trkpt lat="41.25057" lon="1.30181">
        <ele>222.8</ele>
        <time>2022-05-20 20:15:37</time>
      </trkpt>
      <trkpt lat="41.25063" lon="1.30184">
        <ele>223.2</ele>
        <time>2022-05-20 20:15:38</time>
      </trkpt>
      <trkpt lat="41.25069" lon="1.30186">
        <ele>223.4</ele>
        <time>2022-05-20 20:15:39</time>
      </trkpt>
      <trkpt lat="41.25074" lon="1.30189">
        <ele>223.8</ele>
        <time>2022-05-20 20:15:40</time>
      </trkpt>
      <trkpt lat="41.2508" lon="1.30192">
        <ele>224</ele>
        <time>2022-05-20 20:15:41</time>
      </trkpt>
      <trkpt lat="41.25085" lon="1.30196">
        <ele>224.4</ele>
        <time>2022-05-20 20:15:42</time>
      </trkpt>
      <trkpt lat="41.2509" lon="1.30201">
        <ele>224.6</ele>
        <time>2022-05-20 20:15:43</time>
      </trkpt>
      <trkpt lat="41.25095" lon="1.30207">
        <ele>224.8</ele>
        <time>2022-05-20 20:15:44</time>
      </trkpt>
      <trkpt lat="41.251" lon="1.30213">
        <ele>225</ele>
        <time>2022-05-20 20:15:45</time>
      </trkpt>
      <trkpt lat="41.25104" lon="1.30219">
        <ele>225.2</ele>
        <time>2022-05-20 20:15:46</time>
      </trkpt>
      <trkpt lat="41.25109" lon="1.30225">
        <ele>225.6</ele>
        <time>2022-05-20 20:15:47</time>
      </trkpt>
      <trkpt lat="41.25113" lon="1.30231">
        <ele>225.6</ele>
        <time>2022-05-20 20:15:48</time>
      </trkpt>
      <trkpt lat="41.25117" lon="1.30238">
        <ele>225.8</ele>
        <time>2022-05-20 20:15:49</time>
      </trkpt>
      <trkpt lat="41.25122" lon="1.30245">
        <ele>226</ele>
        <time>2022-05-20 20:15:50</time>
      </trkpt>
      <trkpt lat="41.25127" lon="1.30252">
        <ele>226.2</ele>
        <time>2022-05-20 20:15:51</time>
      </trkpt>
      <trkpt lat="41.25131" lon="1.30259">
        <ele>226.2</ele>
        <time>2022-05-20 20:15:52</time>
      </trkpt>
      <trkpt lat="41.25135" lon="1.30267">
        <ele>226.4</ele>
        <time>2022-05-20 20:15:53</time>
      </trkpt>
      <trkpt lat="41.25139" lon="1.30274">
        <ele>226.4</ele>
        <time>2022-05-20 20:15:54</time>
      </trkpt>
      <trkpt lat="41.25143" lon="1.30282">
        <ele>226.6</ele>
        <time>2022-05-20 20:15:55</time>
      </trkpt>
      <trkpt lat="41.25147" lon="1.3029">
        <ele>226.8</ele>
        <time>2022-05-20 20:15:56</time>
      </trkpt>
      <trkpt lat="41.25151" lon="1.30298">
        <ele>226.8</ele>
        <time>2022-05-20 20:15:57</time>
      </trkpt>
      <trkpt lat="41.25154" lon="1.30307">
        <ele>227</ele>
        <time>2022-05-20 20:15:58</time>
      </trkpt>
      <trkpt lat="41.25158" lon="1.30315">
        <ele>227</ele>
        <time>2022-05-20 20:15:59</time>
      </trkpt>
      <trkpt lat="41.25161" lon="1.30324">
        <ele>227.2</ele>
        <time>2022-05-20 20:16:00</time>
      </trkpt>
      <trkpt lat="41.25164" lon="1.30332">
        <ele>227.2</ele>
        <time>2022-05-20 20:16:01</time>
      </trkpt>
      <trkpt lat="41.25167" lon="1.30341">
        <ele>227.4</ele>
        <time>2022-05-20 20:16:02</time>
      </trkpt>
      <trkpt lat="41.25171" lon="1.30349">
        <ele>227.6</ele>
        <time>2022-05-20 20:16:03</time>
      </trkpt>
      <trkpt lat="41.25174" lon="1.30357">
        <ele>227.8</ele>
        <time>2022-05-20 20:16:04</time>
      </trkpt>
      <trkpt lat="41.25177" lon="1.30365">
        <ele>228</ele>
        <time>2022-05-20 20:16:05</time>
      </trkpt>
      <trkpt lat="41.2518" lon="1.30374">
        <ele>228.2</ele>
        <time>2022-05-20 20:16:06</time>
      </trkpt>
      <trkpt lat="41.25183" lon="1.30382">
        <ele>228.2</ele>
        <time>2022-05-20 20:16:07</time>
      </trkpt>
      <trkpt lat="41.25186" lon="1.30391">
        <ele>228.4</ele>
        <time>2022-05-20 20:16:08</time>
      </trkpt>
      <trkpt lat="41.2519" lon="1.304">
        <ele>228.4</ele>
        <time>2022-05-20 20:16:09</time>
      </trkpt>
      <trkpt lat="41.25193" lon="1.30408">
        <ele>228.6</ele>
        <time>2022-05-20 20:16:10</time>
      </trkpt>
      <trkpt lat="41.25196" lon="1.30417">
        <ele>228.6</ele>
        <time>2022-05-20 20:16:11</time>
      </trkpt>
      <trkpt lat="41.25199" lon="1.30425">
        <ele>228.8</ele>
        <time>2022-05-20 20:16:12</time>
      </trkpt>
      <trkpt lat="41.25202" lon="1.30434">
        <ele>229</ele>
        <time>2022-05-20 20:16:13</time>
      </trkpt>
      <trkpt lat="41.25206" lon="1.30443">
        <ele>229.2</ele>
        <time>2022-05-20 20:16:14</time>
      </trkpt>
      <trkpt lat="41.25209" lon="1.30451">
        <ele>229.2</ele>
        <time>2022-05-20 20:16:15</time>
      </trkpt>
      <trkpt lat="41.25212" lon="1.3046">
        <ele>229.4</ele>
        <time>2022-05-20 20:16:16</time>
      </trkpt>
      <trkpt lat="41.25215" lon="1.30468">
        <ele>229.4</ele>
        <time>2022-05-20 20:16:17</time>
      </trkpt>
      <trkpt lat="41.25218" lon="1.30477">
        <ele>229.6</ele>
        <time>2022-05-20 20:16:18</time>
      </trkpt>
      <trkpt lat="41.25221" lon="1.30486">
        <ele>229.8</ele>
        <time>2022-05-20 20:16:19</time>
      </trkpt>
      <trkpt lat="41.25224" lon="1.30494">
        <ele>230</ele>
        <time>2022-05-20 20:16:20</time>
      </trkpt>
      <trkpt lat="41.25227" lon="1.30503">
        <ele>230</ele>
        <time>2022-05-20 20:16:21</time>
      </trkpt>
      <trkpt lat="41.2523" lon="1.30512">
        <ele>230.2</ele>
        <time>2022-05-20 20:16:22</time>
      </trkpt>
      <trkpt lat="41.25234" lon="1.30521">
        <ele>230.4</ele>
        <time>2022-05-20 20:16:23</time>
      </trkpt>
      <trkpt lat="41.25237" lon="1.3053">
        <ele>230.4</ele>
        <time>2022-05-20 20:16:24</time>
      </trkpt>
      <trkpt lat="41.25241" lon="1.30539">
        <ele>230.4</ele>
        <time>2022-05-20 20:16:25</time>
      </trkpt>
      <trkpt lat="41.25244" lon="1.30548">
        <ele>230.6</ele>
        <time>2022-05-20 20:16:26</time>
      </trkpt>
      <trkpt lat="41.25248" lon="1.30557">
        <ele>230.6</ele>
        <time>2022-05-20 20:16:27</time>
      </trkpt>
      <trkpt lat="41.25251" lon="1.30567">
        <ele>230.6</ele>
        <time>2022-05-20 20:16:28</time>
      </trkpt>
      <trkpt lat="41.25254" lon="1.30576">
        <ele>230.6</ele>
        <time>2022-05-20 20:16:29</time>
      </trkpt>
      <trkpt lat="41.25257" lon="1.30585">
        <ele>230.6</ele>
        <time>2022-05-20 20:16:30</time>
      </trkpt>
      <trkpt lat="41.25261" lon="1.30596">
        <ele>230.6</ele>
        <time>2022-05-20 20:16:31</time>
      </trkpt>
      <trkpt lat="41.25265" lon="1.30605">
        <ele>230.6</ele>
        <time>2022-05-20 20:16:32</time>
      </trkpt>
      <trkpt lat="41.25269" lon="1.30615">
        <ele>230.6</ele>
        <time>2022-05-20 20:16:33</time>
      </trkpt>
      <trkpt lat="41.25272" lon="1.30625">
        <ele>230.6</ele>
        <time>2022-05-20 20:16:34</time>
      </trkpt>
      <trkpt lat="41.25276" lon="1.30634">
        <ele>230.6</ele>
        <time>2022-05-20 20:16:35</time>
      </trkpt>
      <trkpt lat="41.2528" lon="1.30644">
        <ele>230.6</ele>
        <time>2022-05-20 20:16:36</time>
      </trkpt>
      <trkpt lat="41.25283" lon="1.30653">
        <ele>230.8</ele>
        <time>2022-05-20 20:16:37</time>
      </trkpt>
      <trkpt lat="41.25286" lon="1.30663">
        <ele>230.8</ele>
        <time>2022-05-20 20:16:38</time>
      </trkpt>
      <trkpt lat="41.2529" lon="1.30673">
        <ele>230.6</ele>
        <time>2022-05-20 20:16:39</time>
      </trkpt>
      <trkpt lat="41.25294" lon="1.30683">
        <ele>230.8</ele>
        <time>2022-05-20 20:16:40</time>
      </trkpt>
      <trkpt lat="41.25298" lon="1.30692">
        <ele>230.6</ele>
        <time>2022-05-20 20:16:41</time>
      </trkpt>
      <trkpt lat="41.25301" lon="1.30702">
        <ele>230.6</ele>
        <time>2022-05-20 20:16:42</time>
      </trkpt>
      <trkpt lat="41.25305" lon="1.30712">
        <ele>230.6</ele>
        <time>2022-05-20 20:16:43</time>
      </trkpt>
      <trkpt lat="41.25309" lon="1.30722">
        <ele>230.6</ele>
        <time>2022-05-20 20:16:44</time>
      </trkpt>
      <trkpt lat="41.25312" lon="1.30732">
        <ele>230.6</ele>
        <time>2022-05-20 20:16:45</time>
      </trkpt>
      <trkpt lat="41.25316" lon="1.30742">
        <ele>230.6</ele>
        <time>2022-05-20 20:16:46</time>
      </trkpt>
      <trkpt lat="41.2532" lon="1.30752">
        <ele>230.6</ele>
        <time>2022-05-20 20:16:47</time>
      </trkpt>
      <trkpt lat="41.25323" lon="1.30762">
        <ele>230.8</ele>
        <time>2022-05-20 20:16:48</time>
      </trkpt>
      <trkpt lat="41.25327" lon="1.30772">
        <ele>230.8</ele>
        <time>2022-05-20 20:16:49</time>
      </trkpt>
      <trkpt lat="41.25331" lon="1.30782">
        <ele>230.8</ele>
        <time>2022-05-20 20:16:50</time>
      </trkpt>
      <trkpt lat="41.25335" lon="1.30792">
        <ele>230.8</ele>
        <time>2022-05-20 20:16:51</time>
      </trkpt>
      <trkpt lat="41.25338" lon="1.30802">
        <ele>230.8</ele>
        <time>2022-05-20 20:16:52</time>
      </trkpt>
      <trkpt lat="41.25342" lon="1.30813">
        <ele>230.8</ele>
        <time>2022-05-20 20:16:53</time>
      </trkpt>
      <trkpt lat="41.25346" lon="1.30823">
        <ele>230.8</ele>
        <time>2022-05-20 20:16:54</time>
      </trkpt>
      <trkpt lat="41.25349" lon="1.30833">
        <ele>230.6</ele>
        <time>2022-05-20 20:16:55</time>
      </trkpt>
      <trkpt lat="41.25353" lon="1.30843">
        <ele>230.6</ele>
        <time>2022-05-20 20:16:56</time>
      </trkpt>
      <trkpt lat="41.25357" lon="1.30854">
        <ele>230.6</ele>
        <time>2022-05-20 20:16:57</time>
      </trkpt>
      <trkpt lat="41.25361" lon="1.30864">
        <ele>230.4</ele>
        <time>2022-05-20 20:16:58</time>
      </trkpt>
      <trkpt lat="41.25365" lon="1.30874">
        <ele>230.4</ele>
        <time>2022-05-20 20:16:59</time>
      </trkpt>
      <trkpt lat="41.25368" lon="1.30885">
        <ele>230.2</ele>
        <time>2022-05-20 20:17:00</time>
      </trkpt>
      <trkpt lat="41.25372" lon="1.30895">
        <ele>230.2</ele>
        <time>2022-05-20 20:17:01</time>
      </trkpt>
      <trkpt lat="41.25376" lon="1.30905">
        <ele>230.2</ele>
        <time>2022-05-20 20:17:02</time>
      </trkpt>
      <trkpt lat="41.2538" lon="1.30916">
        <ele>230</ele>
        <time>2022-05-20 20:17:03</time>
      </trkpt>
      <trkpt lat="41.25385" lon="1.30927">
        <ele>230</ele>
        <time>2022-05-20 20:17:04</time>
      </trkpt>
      <trkpt lat="41.25388" lon="1.30938">
        <ele>230</ele>
        <time>2022-05-20 20:17:05</time>
      </trkpt>
      <trkpt lat="41.25393" lon="1.30949">
        <ele>230</ele>
        <time>2022-05-20 20:17:06</time>
      </trkpt>
      <trkpt lat="41.25397" lon="1.3096">
        <ele>230</ele>
        <time>2022-05-20 20:17:07</time>
      </trkpt>
      <trkpt lat="41.25401" lon="1.30971">
        <ele>230</ele>
        <time>2022-05-20 20:17:08</time>
      </trkpt>
      <trkpt lat="41.25405" lon="1.30981">
        <ele>230.2</ele>
        <time>2022-05-20 20:17:09</time>
      </trkpt>
      <trkpt lat="41.25409" lon="1.30992">
        <ele>230.2</ele>
        <time>2022-05-20 20:17:10</time>
      </trkpt>
      <trkpt lat="41.25412" lon="1.31002">
        <ele>230.4</ele>
        <time>2022-05-20 20:17:11</time>
      </trkpt>
      <trkpt lat="41.25416" lon="1.31012">
        <ele>230.4</ele>
        <time>2022-05-20 20:17:12</time>
      </trkpt>
      <trkpt lat="41.2542" lon="1.31022">
        <ele>230.6</ele>
        <time>2022-05-20 20:17:13</time>
      </trkpt>
      <trkpt lat="41.25423" lon="1.31032">
        <ele>230.6</ele>
        <time>2022-05-20 20:17:14</time>
      </trkpt>
      <trkpt lat="41.25427" lon="1.31042">
        <ele>230.6</ele>
        <time>2022-05-20 20:17:15</time>
      </trkpt>
      <trkpt lat="41.25431" lon="1.31053">
        <ele>230.6</ele>
        <time>2022-05-20 20:17:16</time>
      </trkpt>
      <trkpt lat="41.25435" lon="1.31062">
        <ele>230.6</ele>
        <time>2022-05-20 20:17:17</time>
      </trkpt>
      <trkpt lat="41.25438" lon="1.31072">
        <ele>230.8</ele>
        <time>2022-05-20 20:17:18</time>
      </trkpt>
      <trkpt lat="41.25442" lon="1.31082">
        <ele>231</ele>
        <time>2022-05-20 20:17:19</time>
      </trkpt>
      <trkpt lat="41.25445" lon="1.31092">
        <ele>231</ele>
        <time>2022-05-20 20:17:20</time>
      </trkpt>
      <trkpt lat="41.25449" lon="1.31101">
        <ele>231.2</ele>
        <time>2022-05-20 20:17:21</time>
      </trkpt>
      <trkpt lat="41.25452" lon="1.31111">
        <ele>231.4</ele>
        <time>2022-05-20 20:17:22</time>
      </trkpt>
      <trkpt lat="41.25456" lon="1.31121">
        <ele>231.6</ele>
        <time>2022-05-20 20:17:23</time>
      </trkpt>
      <trkpt lat="41.2546" lon="1.3113">
        <ele>231.8</ele>
        <time>2022-05-20 20:17:24</time>
      </trkpt>
      <trkpt lat="41.25463" lon="1.3114">
        <ele>232</ele>
        <time>2022-05-20 20:17:25</time>
      </trkpt>
      <trkpt lat="41.25467" lon="1.3115">
        <ele>232.2</ele>
        <time>2022-05-20 20:17:26</time>
      </trkpt>
      <trkpt lat="41.2547" lon="1.31158">
        <ele>232.4</ele>
        <time>2022-05-20 20:17:27</time>
      </trkpt>
      <trkpt lat="41.25473" lon="1.31167">
        <ele>232.6</ele>
        <time>2022-05-20 20:17:28</time>
      </trkpt>
      <trkpt lat="41.25477" lon="1.31177">
        <ele>232.8</ele>
        <time>2022-05-20 20:17:29</time>
      </trkpt>
      <trkpt lat="41.2548" lon="1.31186">
        <ele>232.8</ele>
        <time>2022-05-20 20:17:30</time>
      </trkpt>
      <trkpt lat="41.25484" lon="1.31195">
        <ele>233</ele>
        <time>2022-05-20 20:17:31</time>
      </trkpt>
      <trkpt lat="41.25487" lon="1.31204">
        <ele>233.2</ele>
        <time>2022-05-20 20:17:32</time>
      </trkpt>
      <trkpt lat="41.2549" lon="1.31213">
        <ele>233.4</ele>
        <time>2022-05-20 20:17:33</time>
      </trkpt>
      <trkpt lat="41.25494" lon="1.31222">
        <ele>233.6</ele>
        <time>2022-05-20 20:17:34</time>
      </trkpt>
      <trkpt lat="41.25497" lon="1.31231">
        <ele>233.8</ele>
        <time>2022-05-20 20:17:35</time>
      </trkpt>
      <trkpt lat="41.255" lon="1.3124">
        <ele>233.8</ele>
        <time>2022-05-20 20:17:36</time>
      </trkpt>
      <trkpt lat="41.25503" lon="1.31248">
        <ele>234</ele>
        <time>2022-05-20 20:17:37</time>
      </trkpt>
      <trkpt lat="41.25507" lon="1.31257">
        <ele>234.2</ele>
        <time>2022-05-20 20:17:38</time>
      </trkpt>
      <trkpt lat="41.2551" lon="1.31266">
        <ele>234.4</ele>
        <time>2022-05-20 20:17:39</time>
      </trkpt>
      <trkpt lat="41.25513" lon="1.31275">
        <ele>234.6</ele>
        <time>2022-05-20 20:17:40</time>
      </trkpt>
      <trkpt lat="41.25517" lon="1.31284">
        <ele>234.8</ele>
        <time>2022-05-20 20:17:41</time>
      </trkpt>
      <trkpt lat="41.2552" lon="1.31292">
        <ele>235</ele>
        <time>2022-05-20 20:17:42</time>
      </trkpt>
      <trkpt lat="41.25523" lon="1.31301">
        <ele>235.2</ele>
        <time>2022-05-20 20:17:43</time>
      </trkpt>
      <trkpt lat="41.25526" lon="1.3131">
        <ele>235.4</ele>
        <time>2022-05-20 20:17:44</time>
      </trkpt>
      <trkpt lat="41.25529" lon="1.31319">
        <ele>235.6</ele>
        <time>2022-05-20 20:17:45</time>
      </trkpt>
      <trkpt lat="41.25533" lon="1.31328">
        <ele>235.6</ele>
        <time>2022-05-20 20:17:46</time>
      </trkpt>
      <trkpt lat="41.25536" lon="1.31337">
        <ele>235.8</ele>
        <time>2022-05-20 20:17:47</time>
      </trkpt>
      <trkpt lat="41.25539" lon="1.31346">
        <ele>236</ele>
        <time>2022-05-20 20:17:48</time>
      </trkpt>
      <trkpt lat="41.25542" lon="1.31355">
        <ele>236.2</ele>
        <time>2022-05-20 20:17:49</time>
      </trkpt>
      <trkpt lat="41.25545" lon="1.31363">
        <ele>236.4</ele>
        <time>2022-05-20 20:17:50</time>
      </trkpt>
      <trkpt lat="41.25549" lon="1.31372">
        <ele>236.6</ele>
        <time>2022-05-20 20:17:51</time>
      </trkpt>
      <trkpt lat="41.25552" lon="1.3138">
        <ele>236.8</ele>
        <time>2022-05-20 20:17:52</time>
      </trkpt>
      <trkpt lat="41.25555" lon="1.31389">
        <ele>237</ele>
        <time>2022-05-20 20:17:53</time>
      </trkpt>
      <trkpt lat="41.25558" lon="1.31396">
        <ele>237.2</ele>
        <time>2022-05-20 20:17:54</time>
      </trkpt>
      <trkpt lat="41.25562" lon="1.31406">
        <ele>237.4</ele>
        <time>2022-05-20 20:17:55</time>
      </trkpt>
      <trkpt lat="41.25565" lon="1.31415">
        <ele>237.6</ele>
        <time>2022-05-20 20:17:56</time>
      </trkpt>
      <trkpt lat="41.25569" lon="1.31423">
        <ele>237.8</ele>
        <time>2022-05-20 20:17:57</time>
      </trkpt>
      <trkpt lat="41.25572" lon="1.31431">
        <ele>238</ele>
        <time>2022-05-20 20:17:58</time>
      </trkpt>
      <trkpt lat="41.25576" lon="1.3144">
        <ele>238.2</ele>
        <time>2022-05-20 20:17:59</time>
      </trkpt>
      <trkpt lat="41.2558" lon="1.31447">
        <ele>238.6</ele>
        <time>2022-05-20 20:18:00</time>
      </trkpt>
      <trkpt lat="41.25583" lon="1.31455">
        <ele>238.8</ele>
        <time>2022-05-20 20:18:01</time>
      </trkpt>
      <trkpt lat="41.25587" lon="1.31463">
        <ele>239</ele>
        <time>2022-05-20 20:18:02</time>
      </trkpt>
      <trkpt lat="41.2559" lon="1.31469">
        <ele>239.2</ele>
        <time>2022-05-20 20:18:03</time>
      </trkpt>
      <trkpt lat="41.25595" lon="1.31478">
        <ele>239.4</ele>
        <time>2022-05-20 20:18:04</time>
      </trkpt>
      <trkpt lat="41.25599" lon="1.31484">
        <ele>239.6</ele>
        <time>2022-05-20 20:18:05</time>
      </trkpt>
      <trkpt lat="41.25603" lon="1.31493">
        <ele>239.8</ele>
        <time>2022-05-20 20:18:06</time>
      </trkpt>
      <trkpt lat="41.25606" lon="1.31497">
        <ele>239.8</ele>
        <time>2022-05-20 20:18:07</time>
      </trkpt>
      <trkpt lat="41.25613" lon="1.31508">
        <ele>240.2</ele>
        <time>2022-05-20 20:18:08</time>
      </trkpt>
      <trkpt lat="41.25617" lon="1.31515">
        <ele>240.4</ele>
        <time>2022-05-20 20:18:09</time>
      </trkpt>
      <trkpt lat="41.25622" lon="1.31522">
        <ele>240.6</ele>
        <time>2022-05-20 20:18:10</time>
      </trkpt>
      <trkpt lat="41.25627" lon="1.31529">
        <ele>240.8</ele>
        <time>2022-05-20 20:18:11</time>
      </trkpt>
      <trkpt lat="41.25632" lon="1.31536">
        <ele>241</ele>
        <time>2022-05-20 20:18:12</time>
      </trkpt>
      <trkpt lat="41.25637" lon="1.31543">
        <ele>241.2</ele>
        <time>2022-05-20 20:18:13</time>
      </trkpt>
      <trkpt lat="41.25642" lon="1.3155">
        <ele>241.2</ele>
        <time>2022-05-20 20:18:14</time>
      </trkpt>
      <trkpt lat="41.25648" lon="1.31557">
        <ele>241.4</ele>
        <time>2022-05-20 20:18:15</time>
      </trkpt>
      <trkpt lat="41.25653" lon="1.31564">
        <ele>241.6</ele>
        <time>2022-05-20 20:18:16</time>
      </trkpt>
      <trkpt lat="41.25659" lon="1.31571">
        <ele>241.6</ele>
        <time>2022-05-20 20:18:17</time>
      </trkpt>
      <trkpt lat="41.25664" lon="1.31578">
        <ele>241.6</ele>
        <time>2022-05-20 20:18:18</time>
      </trkpt>
      <trkpt lat="41.25669" lon="1.31586">
        <ele>241.8</ele>
        <time>2022-05-20 20:18:19</time>
      </trkpt>
      <trkpt lat="41.25675" lon="1.31593">
        <ele>241.8</ele>
        <time>2022-05-20 20:18:20</time>
      </trkpt>
      <trkpt lat="41.25681" lon="1.316">
        <ele>241.8</ele>
        <time>2022-05-20 20:18:21</time>
      </trkpt>
      <trkpt lat="41.25686" lon="1.31608">
        <ele>241.8</ele>
        <time>2022-05-20 20:18:22</time>
      </trkpt>
      <trkpt lat="41.25692" lon="1.31615">
        <ele>241.8</ele>
        <time>2022-05-20 20:18:23</time>
      </trkpt>
      <trkpt lat="41.25697" lon="1.31622">
        <ele>241.8</ele>
        <time>2022-05-20 20:18:24</time>
      </trkpt>
      <trkpt lat="41.25703" lon="1.3163">
        <ele>241.8</ele>
        <time>2022-05-20 20:18:25</time>
      </trkpt>
      <trkpt lat="41.2571" lon="1.31638">
        <ele>241.8</ele>
        <time>2022-05-20 20:18:26</time>
      </trkpt>
      <trkpt lat="41.25716" lon="1.31645">
        <ele>241.8</ele>
        <time>2022-05-20 20:18:27</time>
      </trkpt>
      <trkpt lat="41.25721" lon="1.31653">
        <ele>241.8</ele>
        <time>2022-05-20 20:18:28</time>
      </trkpt>
      <trkpt lat="41.25727" lon="1.3166">
        <ele>241.8</ele>
        <time>2022-05-20 20:18:29</time>
      </trkpt>
      <trkpt lat="41.25733" lon="1.31668">
        <ele>241.8</ele>
        <time>2022-05-20 20:18:30</time>
      </trkpt>
      <trkpt lat="41.25739" lon="1.31676">
        <ele>241.6</ele>
        <time>2022-05-20 20:18:31</time>
      </trkpt>
      <trkpt lat="41.25745" lon="1.31683">
        <ele>241.6</ele>
        <time>2022-05-20 20:18:32</time>
      </trkpt>
      <trkpt lat="41.25751" lon="1.31691">
        <ele>241.6</ele>
        <time>2022-05-20 20:18:33</time>
      </trkpt>
      <trkpt lat="41.25756" lon="1.31698">
        <ele>241.6</ele>
        <time>2022-05-20 20:18:34</time>
      </trkpt>
      <trkpt lat="41.25763" lon="1.31706">
        <ele>241.6</ele>
        <time>2022-05-20 20:18:35</time>
      </trkpt>
      <trkpt lat="41.25768" lon="1.31714">
        <ele>241.6</ele>
        <time>2022-05-20 20:18:36</time>
      </trkpt>
      <trkpt lat="41.25774" lon="1.31722">
        <ele>241.4</ele>
        <time>2022-05-20 20:18:37</time>
      </trkpt>
      <trkpt lat="41.2578" lon="1.3173">
        <ele>241.4</ele>
        <time>2022-05-20 20:18:38</time>
      </trkpt>
      <trkpt lat="41.25786" lon="1.31737">
        <ele>241.4</ele>
        <time>2022-05-20 20:18:39</time>
      </trkpt>
      <trkpt lat="41.25792" lon="1.31745">
        <ele>241.4</ele>
        <time>2022-05-20 20:18:40</time>
      </trkpt>
      <trkpt lat="41.25798" lon="1.31753">
        <ele>241.4</ele>
        <time>2022-05-20 20:18:41</time>
      </trkpt>
      <trkpt lat="41.25805" lon="1.31761">
        <ele>241.4</ele>
        <time>2022-05-20 20:18:42</time>
      </trkpt>
      <trkpt lat="41.25811" lon="1.31769">
        <ele>241.2</ele>
        <time>2022-05-20 20:18:43</time>
      </trkpt>
      <trkpt lat="41.25817" lon="1.31777">
        <ele>241.2</ele>
        <time>2022-05-20 20:18:44</time>
      </trkpt>
      <trkpt lat="41.25824" lon="1.31786">
        <ele>241.2</ele>
        <time>2022-05-20 20:18:45</time>
      </trkpt>
      <trkpt lat="41.2583" lon="1.31794">
        <ele>241</ele>
        <time>2022-05-20 20:18:46</time>
      </trkpt>
      <trkpt lat="41.25836" lon="1.31802">
        <ele>240.8</ele>
        <time>2022-05-20 20:18:47</time>
      </trkpt>
      <trkpt lat="41.25843" lon="1.3181">
        <ele>240.8</ele>
        <time>2022-05-20 20:18:48</time>
      </trkpt>
      <trkpt lat="41.2585" lon="1.31819">
        <ele>240.6</ele>
        <time>2022-05-20 20:18:49</time>
      </trkpt>
      <trkpt lat="41.25856" lon="1.31827">
        <ele>240.4</ele>
        <time>2022-05-20 20:18:50</time>
      </trkpt>
      <trkpt lat="41.25862" lon="1.31836">
        <ele>240.2</ele>
        <time>2022-05-20 20:18:51</time>
      </trkpt>
      <trkpt lat="41.25869" lon="1.31844">
        <ele>240</ele>
        <time>2022-05-20 20:18:52</time>
      </trkpt>
      <trkpt lat="41.25876" lon="1.31853">
        <ele>240</ele>
        <time>2022-05-20 20:18:53</time>
      </trkpt>
      <trkpt lat="41.25882" lon="1.31862">
        <ele>239.8</ele>
        <time>2022-05-20 20:18:54</time>
      </trkpt>
      <trkpt lat="41.25889" lon="1.31872">
        <ele>239.8</ele>
        <time>2022-05-20 20:18:55</time>
      </trkpt>
      <trkpt lat="41.25895" lon="1.31881">
        <ele>239.8</ele>
        <time>2022-05-20 20:18:56</time>
      </trkpt>
      <trkpt lat="41.25901" lon="1.3189">
        <ele>239.6</ele>
        <time>2022-05-20 20:18:57</time>
      </trkpt>
      <trkpt lat="41.25908" lon="1.31898">
        <ele>239.6</ele>
        <time>2022-05-20 20:18:58</time>
      </trkpt>
      <trkpt lat="41.25914" lon="1.31906">
        <ele>239.6</ele>
        <time>2022-05-20 20:18:59</time>
      </trkpt>
      <trkpt lat="41.2592" lon="1.31914">
        <ele>239.6</ele>
        <time>2022-05-20 20:19:00</time>
      </trkpt>
      <trkpt lat="41.25925" lon="1.31923">
        <ele>239.6</ele>
        <time>2022-05-20 20:19:01</time>
      </trkpt>
      <trkpt lat="41.25928" lon="1.31932">
        <ele>239.6</ele>
        <time>2022-05-20 20:19:02</time>
      </trkpt>
      <trkpt lat="41.25932" lon="1.31942">
        <ele>239.4</ele>
        <time>2022-05-20 20:19:03</time>
      </trkpt>
      <trkpt lat="41.25937" lon="1.31952">
        <ele>239.2</ele>
        <time>2022-05-20 20:19:04</time>
      </trkpt>
      <trkpt lat="41.25943" lon="1.31959">
        <ele>239.2</ele>
        <time>2022-05-20 20:19:05</time>
      </trkpt>
      <trkpt lat="41.25951" lon="1.31964">
        <ele>239</ele>
        <time>2022-05-20 20:19:06</time>
      </trkpt>
      <trkpt lat="41.25959" lon="1.31969">
        <ele>239</ele>
        <time>2022-05-20 20:19:07</time>
      </trkpt>
      <trkpt lat="41.25966" lon="1.31974">
        <ele>239</ele>
        <time>2022-05-20 20:19:08</time>
      </trkpt>
      <trkpt lat="41.25973" lon="1.31981">
        <ele>239</ele>
        <time>2022-05-20 20:19:09</time>
      </trkpt>
      <trkpt lat="41.2598" lon="1.31989">
        <ele>239</ele>
        <time>2022-05-20 20:19:10</time>
      </trkpt>
      <trkpt lat="41.25987" lon="1.31997">
        <ele>239</ele>
        <time>2022-05-20 20:19:11</time>
      </trkpt>
      <trkpt lat="41.25994" lon="1.32006">
        <ele>239</ele>
        <time>2022-05-20 20:19:12</time>
      </trkpt>
      <trkpt lat="41.26001" lon="1.32015">
        <ele>239</ele>
        <time>2022-05-20 20:19:13</time>
      </trkpt>
      <trkpt lat="41.26007" lon="1.32023">
        <ele>239</ele>
        <time>2022-05-20 20:19:14</time>
      </trkpt>
      <trkpt lat="41.26014" lon="1.32032">
        <ele>239</ele>
        <time>2022-05-20 20:19:15</time>
      </trkpt>
      <trkpt lat="41.2602" lon="1.32041">
        <ele>239</ele>
        <time>2022-05-20 20:19:16</time>
      </trkpt>
      <trkpt lat="41.26028" lon="1.3205">
        <ele>239</ele>
        <time>2022-05-20 20:19:17</time>
      </trkpt>
      <trkpt lat="41.26036" lon="1.32059">
        <ele>239</ele>
        <time>2022-05-20 20:19:18</time>
      </trkpt>
      <trkpt lat="41.26043" lon="1.32068">
        <ele>239</ele>
        <time>2022-05-20 20:19:19</time>
      </trkpt>
      <trkpt lat="41.26049" lon="1.32076">
        <ele>239</ele>
        <time>2022-05-20 20:19:20</time>
      </trkpt>
      <trkpt lat="41.26056" lon="1.32085">
        <ele>238.8</ele>
        <time>2022-05-20 20:19:21</time>
      </trkpt>
      <trkpt lat="41.26062" lon="1.32094">
        <ele>238.8</ele>
        <time>2022-05-20 20:19:22</time>
      </trkpt>
      <trkpt lat="41.26069" lon="1.32102">
        <ele>238.8</ele>
        <time>2022-05-20 20:19:23</time>
      </trkpt>
      <trkpt lat="41.26075" lon="1.32111">
        <ele>238.8</ele>
        <time>2022-05-20 20:19:24</time>
      </trkpt>
      <trkpt lat="41.26081" lon="1.32119">
        <ele>238.8</ele>
        <time>2022-05-20 20:19:25</time>
      </trkpt>
      <trkpt lat="41.26087" lon="1.32128">
        <ele>238.8</ele>
        <time>2022-05-20 20:19:26</time>
      </trkpt>
      <trkpt lat="41.26094" lon="1.32137">
        <ele>238.8</ele>
        <time>2022-05-20 20:19:27</time>
      </trkpt>
      <trkpt lat="41.26101" lon="1.32147">
        <ele>238.6</ele>
        <time>2022-05-20 20:19:28</time>
      </trkpt>
      <trkpt lat="41.26107" lon="1.32157">
        <ele>238.6</ele>
        <time>2022-05-20 20:19:29</time>
      </trkpt>
      <trkpt lat="41.26113" lon="1.32166">
        <ele>238.6</ele>
        <time>2022-05-20 20:19:30</time>
      </trkpt>
      <trkpt lat="41.26118" lon="1.32176">
        <ele>238.6</ele>
        <time>2022-05-20 20:19:31</time>
      </trkpt>
      <trkpt lat="41.26125" lon="1.32187">
        <ele>238.6</ele>
        <time>2022-05-20 20:19:32</time>
      </trkpt>
      <trkpt lat="41.2613" lon="1.32197">
        <ele>238.6</ele>
        <time>2022-05-20 20:19:33</time>
      </trkpt>
      <trkpt lat="41.26137" lon="1.32208">
        <ele>238.4</ele>
        <time>2022-05-20 20:19:34</time>
      </trkpt>
      <trkpt lat="41.26143" lon="1.32218">
        <ele>238.4</ele>
        <time>2022-05-20 20:19:35</time>
      </trkpt>
      <trkpt lat="41.26148" lon="1.32229">
        <ele>238.2</ele>
        <time>2022-05-20 20:19:36</time>
      </trkpt>
      <trkpt lat="41.26153" lon="1.3224">
        <ele>238.2</ele>
        <time>2022-05-20 20:19:37</time>
      </trkpt>
      <trkpt lat="41.26157" lon="1.32252">
        <ele>238</ele>
        <time>2022-05-20 20:19:38</time>
      </trkpt>
      <trkpt lat="41.26162" lon="1.32264">
        <ele>238</ele>
        <time>2022-05-20 20:19:39</time>
      </trkpt>
      <trkpt lat="41.26165" lon="1.32276">
        <ele>237.8</ele>
        <time>2022-05-20 20:19:40</time>
      </trkpt>
      <trkpt lat="41.26169" lon="1.32287">
        <ele>237.8</ele>
        <time>2022-05-20 20:19:41</time>
      </trkpt>
      <trkpt lat="41.26173" lon="1.32299">
        <ele>237.8</ele>
        <time>2022-05-20 20:19:42</time>
      </trkpt>
      <trkpt lat="41.26178" lon="1.32311">
        <ele>237.6</ele>
        <time>2022-05-20 20:19:43</time>
      </trkpt>
      <trkpt lat="41.26182" lon="1.32323">
        <ele>237.6</ele>
        <time>2022-05-20 20:19:44</time>
      </trkpt>
      <trkpt lat="41.26185" lon="1.32334">
        <ele>237.4</ele>
        <time>2022-05-20 20:19:45</time>
      </trkpt>
      <trkpt lat="41.26189" lon="1.32346">
        <ele>237.4</ele>
        <time>2022-05-20 20:19:46</time>
      </trkpt>
      <trkpt lat="41.26192" lon="1.32358">
        <ele>237.4</ele>
        <time>2022-05-20 20:19:47</time>
      </trkpt>
      <trkpt lat="41.26195" lon="1.32371">
        <ele>237.4</ele>
        <time>2022-05-20 20:19:48</time>
      </trkpt>
      <trkpt lat="41.26198" lon="1.32383">
        <ele>237.2</ele>
        <time>2022-05-20 20:19:49</time>
      </trkpt>
      <trkpt lat="41.26202" lon="1.32395">
        <ele>237.2</ele>
        <time>2022-05-20 20:19:50</time>
      </trkpt>
      <trkpt lat="41.26205" lon="1.32407">
        <ele>237.2</ele>
        <time>2022-05-20 20:19:51</time>
      </trkpt>
      <trkpt lat="41.26208" lon="1.32419">
        <ele>237.2</ele>
        <time>2022-05-20 20:19:52</time>
      </trkpt>
      <trkpt lat="41.26211" lon="1.32432">
        <ele>237.2</ele>
        <time>2022-05-20 20:19:53</time>
      </trkpt>
      <trkpt lat="41.26215" lon="1.32445">
        <ele>237</ele>
        <time>2022-05-20 20:19:54</time>
      </trkpt>
      <trkpt lat="41.26218" lon="1.32457">
        <ele>237</ele>
        <time>2022-05-20 20:19:55</time>
      </trkpt>
      <trkpt lat="41.26221" lon="1.32469">
        <ele>237</ele>
        <time>2022-05-20 20:19:56</time>
      </trkpt>
      <trkpt lat="41.26225" lon="1.32481">
        <ele>236.8</ele>
        <time>2022-05-20 20:19:57</time>
      </trkpt>
      <trkpt lat="41.26228" lon="1.32493">
        <ele>236.8</ele>
        <time>2022-05-20 20:19:58</time>
      </trkpt>
      <trkpt lat="41.26231" lon="1.32505">
        <ele>236.8</ele>
        <time>2022-05-20 20:19:59</time>
      </trkpt>
      <trkpt lat="41.26235" lon="1.32517">
        <ele>236.8</ele>
        <time>2022-05-20 20:20:00</time>
      </trkpt>
      <trkpt lat="41.26239" lon="1.32529">
        <ele>236.8</ele>
        <time>2022-05-20 20:20:01</time>
      </trkpt>
      <trkpt lat="41.26243" lon="1.3254">
        <ele>236.6</ele>
        <time>2022-05-20 20:20:02</time>
      </trkpt>
      <trkpt lat="41.26246" lon="1.32552">
        <ele>236.8</ele>
        <time>2022-05-20 20:20:03</time>
      </trkpt>
      <trkpt lat="41.26249" lon="1.32564">
        <ele>236.8</ele>
        <time>2022-05-20 20:20:04</time>
      </trkpt>
      <trkpt lat="41.26252" lon="1.32577">
        <ele>236.8</ele>
        <time>2022-05-20 20:20:05</time>
      </trkpt>
      <trkpt lat="41.26256" lon="1.32588">
        <ele>236.8</ele>
        <time>2022-05-20 20:20:06</time>
      </trkpt>
      <trkpt lat="41.26259" lon="1.32599">
        <ele>236.8</ele>
        <time>2022-05-20 20:20:07</time>
      </trkpt>
      <trkpt lat="41.26263" lon="1.32611">
        <ele>236.8</ele>
        <time>2022-05-20 20:20:08</time>
      </trkpt>
      <trkpt lat="41.26266" lon="1.32624">
        <ele>237</ele>
        <time>2022-05-20 20:20:09</time>
      </trkpt>
      <trkpt lat="41.26269" lon="1.32635">
        <ele>237</ele>
        <time>2022-05-20 20:20:10</time>
      </trkpt>
      <trkpt lat="41.26273" lon="1.32647">
        <ele>237</ele>
        <time>2022-05-20 20:20:11</time>
      </trkpt>
      <trkpt lat="41.26276" lon="1.32658">
        <ele>237</ele>
        <time>2022-05-20 20:20:12</time>
      </trkpt>
      <trkpt lat="41.26279" lon="1.32669">
        <ele>237.2</ele>
        <time>2022-05-20 20:20:13</time>
      </trkpt>
      <trkpt lat="41.26282" lon="1.3268">
        <ele>237.2</ele>
        <time>2022-05-20 20:20:14</time>
      </trkpt>
      <trkpt lat="41.26284" lon="1.32692">
        <ele>237.2</ele>
        <time>2022-05-20 20:20:15</time>
      </trkpt>
      <trkpt lat="41.26287" lon="1.32703">
        <ele>237.2</ele>
        <time>2022-05-20 20:20:16</time>
      </trkpt>
      <trkpt lat="41.2629" lon="1.32714">
        <ele>237.2</ele>
        <time>2022-05-20 20:20:17</time>
      </trkpt>
      <trkpt lat="41.26294" lon="1.32726">
        <ele>237.4</ele>
        <time>2022-05-20 20:20:18</time>
      </trkpt>
      <trkpt lat="41.26297" lon="1.32737">
        <ele>237.4</ele>
        <time>2022-05-20 20:20:19</time>
      </trkpt>
      <trkpt lat="41.26301" lon="1.32749">
        <ele>237.4</ele>
        <time>2022-05-20 20:20:20</time>
      </trkpt>
      <trkpt lat="41.26303" lon="1.3276">
        <ele>237.4</ele>
        <time>2022-05-20 20:20:21</time>
      </trkpt>
      <trkpt lat="41.26306" lon="1.3277">
        <ele>237.4</ele>
        <time>2022-05-20 20:20:22</time>
      </trkpt>
      <trkpt lat="41.26309" lon="1.3278">
        <ele>237.6</ele>
        <time>2022-05-20 20:20:23</time>
      </trkpt>
      <trkpt lat="41.26312" lon="1.32792">
        <ele>237.6</ele>
        <time>2022-05-20 20:20:24</time>
      </trkpt>
      <trkpt lat="41.26316" lon="1.32803">
        <ele>237.6</ele>
        <time>2022-05-20 20:20:25</time>
      </trkpt>
      <trkpt lat="41.26319" lon="1.32815">
        <ele>237.8</ele>
        <time>2022-05-20 20:20:26</time>
      </trkpt>
      <trkpt lat="41.26322" lon="1.32827">
        <ele>237.8</ele>
        <time>2022-05-20 20:20:27</time>
      </trkpt>
      <trkpt lat="41.26325" lon="1.32838">
        <ele>237.8</ele>
        <time>2022-05-20 20:20:28</time>
      </trkpt>
      <trkpt lat="41.26328" lon="1.32849">
        <ele>237.8</ele>
        <time>2022-05-20 20:20:29</time>
      </trkpt>
      <trkpt lat="41.26331" lon="1.3286">
        <ele>237.8</ele>
        <time>2022-05-20 20:20:30</time>
      </trkpt>
      <trkpt lat="41.26334" lon="1.32871">
        <ele>237.8</ele>
        <time>2022-05-20 20:20:31</time>
      </trkpt>
      <trkpt lat="41.26337" lon="1.32882">
        <ele>238</ele>
        <time>2022-05-20 20:20:32</time>
      </trkpt>
      <trkpt lat="41.2634" lon="1.32893">
        <ele>238</ele>
        <time>2022-05-20 20:20:33</time>
      </trkpt>
      <trkpt lat="41.26343" lon="1.32904">
        <ele>238</ele>
        <time>2022-05-20 20:20:34</time>
      </trkpt>
      <trkpt lat="41.26346" lon="1.32915">
        <ele>238</ele>
        <time>2022-05-20 20:20:35</time>
      </trkpt>
      <trkpt lat="41.26349" lon="1.32926">
        <ele>238</ele>
        <time>2022-05-20 20:20:36</time>
      </trkpt>
      <trkpt lat="41.26353" lon="1.32937">
        <ele>238</ele>
        <time>2022-05-20 20:20:37</time>
      </trkpt>
      <trkpt lat="41.26356" lon="1.32948">
        <ele>238</ele>
        <time>2022-05-20 20:20:38</time>
      </trkpt>
      <trkpt lat="41.2636" lon="1.3296">
        <ele>238</ele>
        <time>2022-05-20 20:20:39</time>
      </trkpt>
      <trkpt lat="41.26364" lon="1.32972">
        <ele>237.8</ele>
        <time>2022-05-20 20:20:40</time>
      </trkpt>
      <trkpt lat="41.26367" lon="1.32984">
        <ele>237.8</ele>
        <time>2022-05-20 20:20:41</time>
      </trkpt>
      <trkpt lat="41.2637" lon="1.32995">
        <ele>237.8</ele>
        <time>2022-05-20 20:20:42</time>
      </trkpt>
      <trkpt lat="41.26373" lon="1.33007">
        <ele>237.8</ele>
        <time>2022-05-20 20:20:43</time>
      </trkpt>
      <trkpt lat="41.26376" lon="1.33019">
        <ele>237.8</ele>
        <time>2022-05-20 20:20:44</time>
      </trkpt>
      <trkpt lat="41.26379" lon="1.33031">
        <ele>237.6</ele>
        <time>2022-05-20 20:20:45</time>
      </trkpt>
      <trkpt lat="41.26381" lon="1.33042">
        <ele>237.6</ele>
        <time>2022-05-20 20:20:46</time>
      </trkpt>
      <trkpt lat="41.26384" lon="1.33053">
        <ele>237.6</ele>
        <time>2022-05-20 20:20:47</time>
      </trkpt>
      <trkpt lat="41.26387" lon="1.33064">
        <ele>237.6</ele>
        <time>2022-05-20 20:20:48</time>
      </trkpt>
      <trkpt lat="41.26391" lon="1.33076">
        <ele>237.6</ele>
        <time>2022-05-20 20:20:49</time>
      </trkpt>
      <trkpt lat="41.26395" lon="1.33087">
        <ele>237.6</ele>
        <time>2022-05-20 20:20:50</time>
      </trkpt>
      <trkpt lat="41.26398" lon="1.33099">
        <ele>237.4</ele>
        <time>2022-05-20 20:20:51</time>
      </trkpt>
      <trkpt lat="41.26401" lon="1.33111">
        <ele>237.4</ele>
        <time>2022-05-20 20:20:52</time>
      </trkpt>
      <trkpt lat="41.26404" lon="1.33123">
        <ele>237.4</ele>
        <time>2022-05-20 20:20:53</time>
      </trkpt>
      <trkpt lat="41.26407" lon="1.33134">
        <ele>237.4</ele>
        <time>2022-05-20 20:20:54</time>
      </trkpt>
      <trkpt lat="41.2641" lon="1.33145">
        <ele>237.4</ele>
        <time>2022-05-20 20:20:55</time>
      </trkpt>
      <trkpt lat="41.26414" lon="1.33157">
        <ele>237.2</ele>
        <time>2022-05-20 20:20:56</time>
      </trkpt>
      <trkpt lat="41.26417" lon="1.33169">
        <ele>237.2</ele>
        <time>2022-05-20 20:20:57</time>
      </trkpt>
      <trkpt lat="41.2642" lon="1.33181">
        <ele>237.2</ele>
        <time>2022-05-20 20:20:58</time>
      </trkpt>
      <trkpt lat="41.26424" lon="1.33192">
        <ele>237.2</ele>
        <time>2022-05-20 20:20:59</time>
      </trkpt>
      <trkpt lat="41.26427" lon="1.33204">
        <ele>237.2</ele>
        <time>2022-05-20 20:21:00</time>
      </trkpt>
      <trkpt lat="41.2643" lon="1.33215">
        <ele>237.2</ele>
        <time>2022-05-20 20:21:01</time>
      </trkpt>
      <trkpt lat="41.26433" lon="1.33226">
        <ele>237.2</ele>
        <time>2022-05-20 20:21:02</time>
      </trkpt>
      <trkpt lat="41.26437" lon="1.33238">
        <ele>237.2</ele>
        <time>2022-05-20 20:21:03</time>
      </trkpt>
      <trkpt lat="41.2644" lon="1.33249">
        <ele>237</ele>
        <time>2022-05-20 20:21:04</time>
      </trkpt>
      <trkpt lat="41.26442" lon="1.33261">
        <ele>237</ele>
        <time>2022-05-20 20:21:05</time>
      </trkpt>
      <trkpt lat="41.26445" lon="1.33272">
        <ele>237</ele>
        <time>2022-05-20 20:21:06</time>
      </trkpt>
      <trkpt lat="41.26448" lon="1.33284">
        <ele>237</ele>
        <time>2022-05-20 20:21:07</time>
      </trkpt>
      <trkpt lat="41.2645" lon="1.33295">
        <ele>237</ele>
        <time>2022-05-20 20:21:08</time>
      </trkpt>
      <trkpt lat="41.26453" lon="1.33306">
        <ele>237</ele>
        <time>2022-05-20 20:21:09</time>
      </trkpt>
      <trkpt lat="41.26456" lon="1.33317">
        <ele>237.2</ele>
        <time>2022-05-20 20:21:10</time>
      </trkpt>
      <trkpt lat="41.26459" lon="1.33328">
        <ele>237.2</ele>
        <time>2022-05-20 20:21:11</time>
      </trkpt>
      <trkpt lat="41.26461" lon="1.33338">
        <ele>237.2</ele>
        <time>2022-05-20 20:21:12</time>
      </trkpt>
      <trkpt lat="41.26465" lon="1.33349">
        <ele>237.2</ele>
        <time>2022-05-20 20:21:13</time>
      </trkpt>
      <trkpt lat="41.26468" lon="1.33359">
        <ele>237.2</ele>
        <time>2022-05-20 20:21:14</time>
      </trkpt>
      <trkpt lat="41.26471" lon="1.3337">
        <ele>237.2</ele>
        <time>2022-05-20 20:21:15</time>
      </trkpt>
      <trkpt lat="41.26474" lon="1.3338">
        <ele>237.2</ele>
        <time>2022-05-20 20:21:16</time>
      </trkpt>
      <trkpt lat="41.26478" lon="1.3339">
        <ele>237.2</ele>
        <time>2022-05-20 20:21:17</time>
      </trkpt>
      <trkpt lat="41.26482" lon="1.334">
        <ele>237</ele>
        <time>2022-05-20 20:21:18</time>
      </trkpt>
      <trkpt lat="41.26487" lon="1.33411">
        <ele>237</ele>
        <time>2022-05-20 20:21:19</time>
      </trkpt>
      <trkpt lat="41.26492" lon="1.33421">
        <ele>236.8</ele>
        <time>2022-05-20 20:21:20</time>
      </trkpt>
      <trkpt lat="41.26497" lon="1.3343">
        <ele>236.4</ele>
        <time>2022-05-20 20:21:21</time>
      </trkpt>
      <trkpt lat="41.26501" lon="1.33439">
        <ele>236.2</ele>
        <time>2022-05-20 20:21:22</time>
      </trkpt>
      <trkpt lat="41.26505" lon="1.33449">
        <ele>236</ele>
        <time>2022-05-20 20:21:23</time>
      </trkpt>
      <trkpt lat="41.26507" lon="1.33459">
        <ele>235.8</ele>
        <time>2022-05-20 20:21:24</time>
      </trkpt>
      <trkpt lat="41.26509" lon="1.3347">
        <ele>235.4</ele>
        <time>2022-05-20 20:21:25</time>
      </trkpt>
      <trkpt lat="41.26513" lon="1.33479">
        <ele>235.2</ele>
        <time>2022-05-20 20:21:26</time>
      </trkpt>
      <trkpt lat="41.26519" lon="1.33485">
        <ele>234.8</ele>
        <time>2022-05-20 20:21:27</time>
      </trkpt>
      <trkpt lat="41.26527" lon="1.33488">
        <ele>234.6</ele>
        <time>2022-05-20 20:21:28</time>
      </trkpt>
      <trkpt lat="41.26535" lon="1.33491">
        <ele>234.2</ele>
        <time>2022-05-20 20:21:29</time>
      </trkpt>
      <trkpt lat="41.26542" lon="1.33496">
        <ele>234</ele>
        <time>2022-05-20 20:21:30</time>
      </trkpt>
      <trkpt lat="41.26551" lon="1.33502">
        <ele>233.6</ele>
        <time>2022-05-20 20:21:31</time>
      </trkpt>
      <trkpt lat="41.26559" lon="1.3351">
        <ele>233.4</ele>
        <time>2022-05-20 20:21:32</time>
      </trkpt>
      <trkpt lat="41.26568" lon="1.33518">
        <ele>233</ele>
        <time>2022-05-20 20:21:33</time>
      </trkpt>
      <trkpt lat="41.26577" lon="1.33525">
        <ele>232.6</ele>
        <time>2022-05-20 20:21:34</time>
      </trkpt>
      <trkpt lat="41.26587" lon="1.33531">
        <ele>232.2</ele>
        <time>2022-05-20 20:21:35</time>
      </trkpt>
      <trkpt lat="41.26597" lon="1.33537">
        <ele>231.8</ele>
        <time>2022-05-20 20:21:36</time>
      </trkpt>
      <trkpt lat="41.26607" lon="1.33543">
        <ele>231.6</ele>
        <time>2022-05-20 20:21:37</time>
      </trkpt>
      <trkpt lat="41.26617" lon="1.33548">
        <ele>231.2</ele>
        <time>2022-05-20 20:21:38</time>
      </trkpt>
      <trkpt lat="41.26627" lon="1.33553">
        <ele>231</ele>
        <time>2022-05-20 20:21:39</time>
      </trkpt>
      <trkpt lat="41.26637" lon="1.33558">
        <ele>230.6</ele>
        <time>2022-05-20 20:21:40</time>
      </trkpt>
      <trkpt lat="41.26647" lon="1.33563">
        <ele>230.4</ele>
        <time>2022-05-20 20:21:41</time>
      </trkpt>
      <trkpt lat="41.26658" lon="1.33568">
        <ele>230</ele>
        <time>2022-05-20 20:21:42</time>
      </trkpt>
      <trkpt lat="41.26669" lon="1.33573">
        <ele>229.8</ele>
        <time>2022-05-20 20:21:43</time>
      </trkpt>
      <trkpt lat="41.2668" lon="1.33577">
        <ele>229.6</ele>
        <time>2022-05-20 20:21:44</time>
      </trkpt>
      <trkpt lat="41.26691" lon="1.33582">
        <ele>229.4</ele>
        <time>2022-05-20 20:21:45</time>
      </trkpt>
      <trkpt lat="41.26701" lon="1.33587">
        <ele>229.2</ele>
        <time>2022-05-20 20:21:46</time>
      </trkpt>
      <trkpt lat="41.26711" lon="1.33592">
        <ele>229.2</ele>
        <time>2022-05-20 20:21:47</time>
      </trkpt>
      <trkpt lat="41.26722" lon="1.33597">
        <ele>229</ele>
        <time>2022-05-20 20:21:48</time>
      </trkpt>
      <trkpt lat="41.26731" lon="1.33602">
        <ele>228.8</ele>
        <time>2022-05-20 20:21:49</time>
      </trkpt>
      <trkpt lat="41.26741" lon="1.33607">
        <ele>228.6</ele>
        <time>2022-05-20 20:21:50</time>
      </trkpt>
      <trkpt lat="41.26752" lon="1.33612">
        <ele>228.4</ele>
        <time>2022-05-20 20:21:51</time>
      </trkpt>
      <trkpt lat="41.26762" lon="1.33617">
        <ele>228.2</ele>
        <time>2022-05-20 20:21:52</time>
      </trkpt>
      <trkpt lat="41.26772" lon="1.33622">
        <ele>228</ele>
        <time>2022-05-20 20:21:53</time>
      </trkpt>
      <trkpt lat="41.26782" lon="1.33627">
        <ele>227.8</ele>
        <time>2022-05-20 20:21:54</time>
      </trkpt>
      <trkpt lat="41.26792" lon="1.33632">
        <ele>227.6</ele>
        <time>2022-05-20 20:21:55</time>
      </trkpt>
      <trkpt lat="41.26802" lon="1.33637">
        <ele>227.4</ele>
        <time>2022-05-20 20:21:56</time>
      </trkpt>
      <trkpt lat="41.26812" lon="1.33642">
        <ele>227</ele>
        <time>2022-05-20 20:21:57</time>
      </trkpt>
      <trkpt lat="41.26822" lon="1.33646">
        <ele>226.8</ele>
        <time>2022-05-20 20:21:58</time>
      </trkpt>
      <trkpt lat="41.26831" lon="1.33651">
        <ele>226.6</ele>
        <time>2022-05-20 20:21:59</time>
      </trkpt>
      <trkpt lat="41.26841" lon="1.33656">
        <ele>226.2</ele>
        <time>2022-05-20 20:22:00</time>
      </trkpt>
      <trkpt lat="41.26851" lon="1.33661">
        <ele>226</ele>
        <time>2022-05-20 20:22:01</time>
      </trkpt>
      <trkpt lat="41.2686" lon="1.33665">
        <ele>225.8</ele>
        <time>2022-05-20 20:22:02</time>
      </trkpt>
      <trkpt lat="41.26871" lon="1.3367">
        <ele>225.6</ele>
        <time>2022-05-20 20:22:03</time>
      </trkpt>
      <trkpt lat="41.26881" lon="1.33675">
        <ele>225.6</ele>
        <time>2022-05-20 20:22:04</time>
      </trkpt>
      <trkpt lat="41.2689" lon="1.33679">
        <ele>225.4</ele>
        <time>2022-05-20 20:22:05</time>
      </trkpt>
      <trkpt lat="41.269" lon="1.33684">
        <ele>225.4</ele>
        <time>2022-05-20 20:22:06</time>
      </trkpt>
      <trkpt lat="41.2691" lon="1.33688">
        <ele>225.4</ele>
        <time>2022-05-20 20:22:07</time>
      </trkpt>
      <trkpt lat="41.2692" lon="1.33693">
        <ele>225.4</ele>
        <time>2022-05-20 20:22:08</time>
      </trkpt>
      <trkpt lat="41.26929" lon="1.33697">
        <ele>225.6</ele>
        <time>2022-05-20 20:22:09</time>
      </trkpt>
      <trkpt lat="41.26939" lon="1.33702">
        <ele>225.6</ele>
        <time>2022-05-20 20:22:10</time>
      </trkpt>
      <trkpt lat="41.26949" lon="1.33706">
        <ele>225.6</ele>
        <time>2022-05-20 20:22:11</time>
      </trkpt>
      <trkpt lat="41.26958" lon="1.33711">
        <ele>225.8</ele>
        <time>2022-05-20 20:22:12</time>
      </trkpt>
      <trkpt lat="41.26966" lon="1.33715">
        <ele>225.8</ele>
        <time>2022-05-20 20:22:13</time>
      </trkpt>
      <trkpt lat="41.26974" lon="1.3372">
        <ele>226</ele>
        <time>2022-05-20 20:22:14</time>
      </trkpt>
      <trkpt lat="41.26982" lon="1.33725">
        <ele>226.2</ele>
        <time>2022-05-20 20:22:15</time>
      </trkpt>
      <trkpt lat="41.2699" lon="1.3373">
        <ele>226.4</ele>
        <time>2022-05-20 20:22:16</time>
      </trkpt>
      <trkpt lat="41.26998" lon="1.33734">
        <ele>226.6</ele>
        <time>2022-05-20 20:22:17</time>
      </trkpt>
      <trkpt lat="41.27006" lon="1.33738">
        <ele>226.8</ele>
        <time>2022-05-20 20:22:18</time>
      </trkpt>
      <trkpt lat="41.27013" lon="1.33742">
        <ele>227</ele>
        <time>2022-05-20 20:22:19</time>
      </trkpt>
      <trkpt lat="41.27021" lon="1.33746">
        <ele>227</ele>
        <time>2022-05-20 20:22:20</time>
      </trkpt>
      <trkpt lat="41.2703" lon="1.3375">
        <ele>226.8</ele>
        <time>2022-05-20 20:22:21</time>
      </trkpt>
      <trkpt lat="41.27038" lon="1.33755">
        <ele>226.6</ele>
        <time>2022-05-20 20:22:22</time>
      </trkpt>
      <trkpt lat="41.27046" lon="1.33761">
        <ele>226.4</ele>
        <time>2022-05-20 20:22:23</time>
      </trkpt>
      <trkpt lat="41.27055" lon="1.33767">
        <ele>226</ele>
        <time>2022-05-20 20:22:24</time>
      </trkpt>
      <trkpt lat="41.27064" lon="1.33776">
        <ele>225.8</ele>
        <time>2022-05-20 20:22:25</time>
      </trkpt>
      <trkpt lat="41.27072" lon="1.33785">
        <ele>225.6</ele>
        <time>2022-05-20 20:22:26</time>
      </trkpt>
      <trkpt lat="41.27079" lon="1.33794">
        <ele>225.2</ele>
        <time>2022-05-20 20:22:27</time>
      </trkpt>
      <trkpt lat="41.27086" lon="1.33804">
        <ele>224.8</ele>
        <time>2022-05-20 20:22:28</time>
      </trkpt>
      <trkpt lat="41.27093" lon="1.33814">
        <ele>224.4</ele>
        <time>2022-05-20 20:22:29</time>
      </trkpt>
      <trkpt lat="41.27099" lon="1.33824">
        <ele>224</ele>
        <time>2022-05-20 20:22:30</time>
      </trkpt>
      <trkpt lat="41.27104" lon="1.33833">
        <ele>223.6</ele>
        <time>2022-05-20 20:22:31</time>
      </trkpt>
      <trkpt lat="41.27108" lon="1.33842">
        <ele>223.4</ele>
        <time>2022-05-20 20:22:32</time>
      </trkpt>
      <trkpt lat="41.27114" lon="1.33853">
        <ele>223</ele>
        <time>2022-05-20 20:22:33</time>
      </trkpt>
      <trkpt lat="41.27121" lon="1.33861">
        <ele>222.8</ele>
        <time>2022-05-20 20:22:34</time>
      </trkpt>
      <trkpt lat="41.2713" lon="1.33866">
        <ele>222.6</ele>
        <time>2022-05-20 20:22:35</time>
      </trkpt>
      <trkpt lat="41.2714" lon="1.33873">
        <ele>222.4</ele>
        <time>2022-05-20 20:22:36</time>
      </trkpt>
      <trkpt lat="41.27148" lon="1.33881">
        <ele>222.2</ele>
        <time>2022-05-20 20:22:37</time>
      </trkpt>
      <trkpt lat="41.27155" lon="1.33889">
        <ele>222</ele>
        <time>2022-05-20 20:22:38</time>
      </trkpt>
      <trkpt lat="41.27163" lon="1.33899">
        <ele>222</ele>
        <time>2022-05-20 20:22:39</time>
      </trkpt>
      <trkpt lat="41.2717" lon="1.33908">
        <ele>221.8</ele>
        <time>2022-05-20 20:22:40</time>
      </trkpt>
      <trkpt lat="41.27177" lon="1.33917">
        <ele>222</ele>
        <time>2022-05-20 20:22:41</time>
      </trkpt>
      <trkpt lat="41.27184" lon="1.33926">
        <ele>222</ele>
        <time>2022-05-20 20:22:42</time>
      </trkpt>
      <trkpt lat="41.27191" lon="1.33933">
        <ele>222.2</ele>
        <time>2022-05-20 20:22:43</time>
      </trkpt>
      <trkpt lat="41.27199" lon="1.33941">
        <ele>222.2</ele>
        <time>2022-05-20 20:22:44</time>
      </trkpt>
      <trkpt lat="41.27206" lon="1.33951">
        <ele>222.2</ele>
        <time>2022-05-20 20:22:45</time>
      </trkpt>
      <trkpt lat="41.27214" lon="1.33959">
        <ele>222.4</ele>
        <time>2022-05-20 20:22:46</time>
      </trkpt>
      <trkpt lat="41.27224" lon="1.33967">
        <ele>222.4</ele>
        <time>2022-05-20 20:22:47</time>
      </trkpt>
      <trkpt lat="41.27231" lon="1.33976">
        <ele>222.4</ele>
        <time>2022-05-20 20:22:48</time>
      </trkpt>
      <trkpt lat="41.27238" lon="1.33984">
        <ele>222.6</ele>
        <time>2022-05-20 20:22:49</time>
      </trkpt>
      <trkpt lat="41.27244" lon="1.33993">
        <ele>222.6</ele>
        <time>2022-05-20 20:22:50</time>
      </trkpt>
      <trkpt lat="41.27251" lon="1.34002">
        <ele>222.8</ele>
        <time>2022-05-20 20:22:51</time>
      </trkpt>
      <trkpt lat="41.27257" lon="1.3401">
        <ele>222.8</ele>
        <time>2022-05-20 20:22:52</time>
      </trkpt>
      <trkpt lat="41.27263" lon="1.34018">
        <ele>222.8</ele>
        <time>2022-05-20 20:22:53</time>
      </trkpt>
      <trkpt lat="41.27269" lon="1.34026">
        <ele>222.8</ele>
        <time>2022-05-20 20:22:54</time>
      </trkpt>
      <trkpt lat="41.27275" lon="1.34034">
        <ele>222.8</ele>
        <time>2022-05-20 20:22:55</time>
      </trkpt>
      <trkpt lat="41.27282" lon="1.34043">
        <ele>223</ele>
        <time>2022-05-20 20:22:56</time>
      </trkpt>
      <trkpt lat="41.27288" lon="1.34051">
        <ele>223</ele>
        <time>2022-05-20 20:22:57</time>
      </trkpt>
      <trkpt lat="41.27293" lon="1.34059">
        <ele>223</ele>
        <time>2022-05-20 20:22:58</time>
      </trkpt>
      <trkpt lat="41.273" lon="1.34068">
        <ele>223</ele>
        <time>2022-05-20 20:22:59</time>
      </trkpt>
      <trkpt lat="41.27306" lon="1.34076">
        <ele>223</ele>
        <time>2022-05-20 20:23:00</time>
      </trkpt>
      <trkpt lat="41.27312" lon="1.34085">
        <ele>223</ele>
        <time>2022-05-20 20:23:01</time>
      </trkpt>
      <trkpt lat="41.27318" lon="1.34093">
        <ele>223</ele>
        <time>2022-05-20 20:23:02</time>
      </trkpt>
      <trkpt lat="41.27324" lon="1.34102">
        <ele>223</ele>
        <time>2022-05-20 20:23:03</time>
      </trkpt>
      <trkpt lat="41.27331" lon="1.3411">
        <ele>223</ele>
        <time>2022-05-20 20:23:04</time>
      </trkpt>
      <trkpt lat="41.27337" lon="1.34118">
        <ele>223</ele>
        <time>2022-05-20 20:23:05</time>
      </trkpt>
      <trkpt lat="41.27344" lon="1.34127">
        <ele>223</ele>
        <time>2022-05-20 20:23:06</time>
      </trkpt>
      <trkpt lat="41.27351" lon="1.34136">
        <ele>223</ele>
        <time>2022-05-20 20:23:07</time>
      </trkpt>
      <trkpt lat="41.27358" lon="1.34144">
        <ele>223.2</ele>
        <time>2022-05-20 20:23:08</time>
      </trkpt>
      <trkpt lat="41.27365" lon="1.34152">
        <ele>223.2</ele>
        <time>2022-05-20 20:23:09</time>
      </trkpt>
      <trkpt lat="41.27372" lon="1.34159">
        <ele>223.2</ele>
        <time>2022-05-20 20:23:10</time>
      </trkpt>
      <trkpt lat="41.27378" lon="1.34167">
        <ele>223.4</ele>
        <time>2022-05-20 20:23:11</time>
      </trkpt>
      <trkpt lat="41.27385" lon="1.34175">
        <ele>223.6</ele>
        <time>2022-05-20 20:23:12</time>
      </trkpt>
      <trkpt lat="41.27391" lon="1.34183">
        <ele>223.8</ele>
        <time>2022-05-20 20:23:13</time>
      </trkpt>
      <trkpt lat="41.27398" lon="1.3419">
        <ele>224</ele>
        <time>2022-05-20 20:23:14</time>
      </trkpt>
      <trkpt lat="41.27403" lon="1.34197">
        <ele>224.2</ele>
        <time>2022-05-20 20:23:15</time>
      </trkpt>
      <trkpt lat="41.27409" lon="1.34205">
        <ele>224.4</ele>
        <time>2022-05-20 20:23:16</time>
      </trkpt>
      <trkpt lat="41.27415" lon="1.34212">
        <ele>224.8</ele>
        <time>2022-05-20 20:23:17</time>
      </trkpt>
      <trkpt lat="41.2742" lon="1.34219">
        <ele>225</ele>
        <time>2022-05-20 20:23:18</time>
      </trkpt>
      <trkpt lat="41.27426" lon="1.34226">
        <ele>225.4</ele>
        <time>2022-05-20 20:23:19</time>
      </trkpt>
      <trkpt lat="41.27431" lon="1.34233">
        <ele>225.6</ele>
        <time>2022-05-20 20:23:20</time>
      </trkpt>
      <trkpt lat="41.27436" lon="1.34239">
        <ele>226</ele>
        <time>2022-05-20 20:23:21</time>
      </trkpt>
      <trkpt lat="41.27442" lon="1.34246">
        <ele>226.4</ele>
        <time>2022-05-20 20:23:22</time>
      </trkpt>
      <trkpt lat="41.27447" lon="1.34252">
        <ele>226.8</ele>
        <time>2022-05-20 20:23:23</time>
      </trkpt>
      <trkpt lat="41.27452" lon="1.34258">
        <ele>227</ele>
        <time>2022-05-20 20:23:24</time>
      </trkpt>
      <trkpt lat="41.27456" lon="1.34264">
        <ele>227.4</ele>
        <time>2022-05-20 20:23:25</time>
      </trkpt>
      <trkpt lat="41.2746" lon="1.3427">
        <ele>227.8</ele>
        <time>2022-05-20 20:23:26</time>
      </trkpt>
      <trkpt lat="41.27464" lon="1.34277">
        <ele>228.2</ele>
        <time>2022-05-20 20:23:27</time>
      </trkpt>
      <trkpt lat="41.27466" lon="1.34285">
        <ele>228.4</ele>
        <time>2022-05-20 20:23:28</time>
      </trkpt>
      <trkpt lat="41.27468" lon="1.34293">
        <ele>228.6</ele>
        <time>2022-05-20 20:23:29</time>
      </trkpt>
      <trkpt lat="41.27472" lon="1.343">
        <ele>228.8</ele>
        <time>2022-05-20 20:23:30</time>
      </trkpt>
      <trkpt lat="41.27476" lon="1.34304">
        <ele>229</ele>
        <time>2022-05-20 20:23:31</time>
      </trkpt>
      <trkpt lat="41.27481" lon="1.34307">
        <ele>229.2</ele>
        <time>2022-05-20 20:23:32</time>
      </trkpt>
      <trkpt lat="41.27487" lon="1.34308">
        <ele>229.4</ele>
        <time>2022-05-20 20:23:33</time>
      </trkpt>
      <trkpt lat="41.27494" lon="1.34308">
        <ele>229.6</ele>
        <time>2022-05-20 20:23:34</time>
      </trkpt>
      <trkpt lat="41.27501" lon="1.34308">
        <ele>229.8</ele>
        <time>2022-05-20 20:23:35</time>
      </trkpt>
      <trkpt lat="41.27507" lon="1.34309">
        <ele>230</ele>
        <time>2022-05-20 20:23:36</time>
      </trkpt>
      <trkpt lat="41.27514" lon="1.34311">
        <ele>230.2</ele>
        <time>2022-05-20 20:23:37</time>
      </trkpt>
      <trkpt lat="41.2752" lon="1.34314">
        <ele>230.4</ele>
        <time>2022-05-20 20:23:38</time>
      </trkpt>
      <trkpt lat="41.27527" lon="1.34317">
        <ele>230.8</ele>
        <time>2022-05-20 20:23:39</time>
      </trkpt>
      <trkpt lat="41.27533" lon="1.34319">
        <ele>231</ele>
        <time>2022-05-20 20:23:40</time>
      </trkpt>
      <trkpt lat="41.2754" lon="1.34322">
        <ele>231.2</ele>
        <time>2022-05-20 20:23:41</time>
      </trkpt>
      <trkpt lat="41.27547" lon="1.34324">
        <ele>231.4</ele>
        <time>2022-05-20 20:23:42</time>
      </trkpt>
      <trkpt lat="41.27554" lon="1.34326">
        <ele>231.6</ele>
        <time>2022-05-20 20:23:43</time>
      </trkpt>
      <trkpt lat="41.27561" lon="1.34328">
        <ele>231.6</ele>
        <time>2022-05-20 20:23:44</time>
      </trkpt>
      <trkpt lat="41.27568" lon="1.3433">
        <ele>231.8</ele>
        <time>2022-05-20 20:23:45</time>
      </trkpt>
      <trkpt lat="41.27575" lon="1.34332">
        <ele>232</ele>
        <time>2022-05-20 20:23:46</time>
      </trkpt>
      <trkpt lat="41.27582" lon="1.34335">
        <ele>232.2</ele>
        <time>2022-05-20 20:23:47</time>
      </trkpt>
      <trkpt lat="41.27589" lon="1.34337">
        <ele>232.2</ele>
        <time>2022-05-20 20:23:48</time>
      </trkpt>
      <trkpt lat="41.27596" lon="1.34339">
        <ele>232.4</ele>
        <time>2022-05-20 20:23:49</time>
      </trkpt>
      <trkpt lat="41.27604" lon="1.34341">
        <ele>232.6</ele>
        <time>2022-05-20 20:23:50</time>
      </trkpt>
      <trkpt lat="41.2761" lon="1.34343">
        <ele>232.8</ele>
        <time>2022-05-20 20:23:51</time>
      </trkpt>
      <trkpt lat="41.27618" lon="1.34346">
        <ele>233</ele>
        <time>2022-05-20 20:23:52</time>
      </trkpt>
      <trkpt lat="41.27625" lon="1.34348">
        <ele>233.2</ele>
        <time>2022-05-20 20:23:53</time>
      </trkpt>
      <trkpt lat="41.27632" lon="1.3435">
        <ele>233.2</ele>
        <time>2022-05-20 20:23:54</time>
      </trkpt>
      <trkpt lat="41.27639" lon="1.34352">
        <ele>233.4</ele>
        <time>2022-05-20 20:23:55</time>
      </trkpt>
      <trkpt lat="41.27647" lon="1.34354">
        <ele>233.6</ele>
        <time>2022-05-20 20:23:56</time>
      </trkpt>
      <trkpt lat="41.27654" lon="1.34357">
        <ele>233.6</ele>
        <time>2022-05-20 20:23:57</time>
      </trkpt>
      <trkpt lat="41.27661" lon="1.34359">
        <ele>233.8</ele>
        <time>2022-05-20 20:23:58</time>
      </trkpt>
      <trkpt lat="41.27668" lon="1.34361">
        <ele>234</ele>
        <time>2022-05-20 20:23:59</time>
      </trkpt>
      <trkpt lat="41.27676" lon="1.34363">
        <ele>234.2</ele>
        <time>2022-05-20 20:24:00</time>
      </trkpt>
      <trkpt lat="41.27683" lon="1.34366">
        <ele>234.4</ele>
        <time>2022-05-20 20:24:01</time>
      </trkpt>
      <trkpt lat="41.27691" lon="1.34368">
        <ele>234.6</ele>
        <time>2022-05-20 20:24:02</time>
      </trkpt>
      <trkpt lat="41.27698" lon="1.3437">
        <ele>234.8</ele>
        <time>2022-05-20 20:24:03</time>
      </trkpt>
      <trkpt lat="41.27705" lon="1.34373">
        <ele>235</ele>
        <time>2022-05-20 20:24:04</time>
      </trkpt>
      <trkpt lat="41.27713" lon="1.34375">
        <ele>235</ele>
        <time>2022-05-20 20:24:05</time>
      </trkpt>
      <trkpt lat="41.2772" lon="1.34377">
        <ele>235.2</ele>
        <time>2022-05-20 20:24:06</time>
      </trkpt>
      <trkpt lat="41.27728" lon="1.34379">
        <ele>235.4</ele>
        <time>2022-05-20 20:24:07</time>
      </trkpt>
      <trkpt lat="41.27736" lon="1.34382">
        <ele>235.4</ele>
        <time>2022-05-20 20:24:08</time>
      </trkpt>
      <trkpt lat="41.27743" lon="1.34384">
        <ele>235.6</ele>
        <time>2022-05-20 20:24:09</time>
      </trkpt>
      <trkpt lat="41.27751" lon="1.34386">
        <ele>235.8</ele>
        <time>2022-05-20 20:24:10</time>
      </trkpt>
      <trkpt lat="41.27758" lon="1.34389">
        <ele>235.8</ele>
        <time>2022-05-20 20:24:11</time>
      </trkpt>
      <trkpt lat="41.27766" lon="1.34391">
        <ele>236</ele>
        <time>2022-05-20 20:24:12</time>
      </trkpt>
      <trkpt lat="41.27774" lon="1.34393">
        <ele>236</ele>
        <time>2022-05-20 20:24:13</time>
      </trkpt>
      <trkpt lat="41.27782" lon="1.34396">
        <ele>236</ele>
        <time>2022-05-20 20:24:14</time>
      </trkpt>
      <trkpt lat="41.27789" lon="1.34399">
        <ele>236</ele>
        <time>2022-05-20 20:24:15</time>
      </trkpt>
      <trkpt lat="41.27797" lon="1.34401">
        <ele>236</ele>
        <time>2022-05-20 20:24:16</time>
      </trkpt>
      <trkpt lat="41.27805" lon="1.34404">
        <ele>236.2</ele>
        <time>2022-05-20 20:24:17</time>
      </trkpt>
      <trkpt lat="41.27813" lon="1.34406">
        <ele>236.2</ele>
        <time>2022-05-20 20:24:18</time>
      </trkpt>
      <trkpt lat="41.27821" lon="1.34409">
        <ele>236.2</ele>
        <time>2022-05-20 20:24:19</time>
      </trkpt>
      <trkpt lat="41.27829" lon="1.34411">
        <ele>236.2</ele>
        <time>2022-05-20 20:24:20</time>
      </trkpt>
      <trkpt lat="41.27837" lon="1.34414">
        <ele>236.2</ele>
        <time>2022-05-20 20:24:21</time>
      </trkpt>
      <trkpt lat="41.27845" lon="1.34416">
        <ele>236.2</ele>
        <time>2022-05-20 20:24:22</time>
      </trkpt>
      <trkpt lat="41.27853" lon="1.34418">
        <ele>236.2</ele>
        <time>2022-05-20 20:24:23</time>
      </trkpt>
      <trkpt lat="41.27862" lon="1.34421">
        <ele>236.2</ele>
        <time>2022-05-20 20:24:24</time>
      </trkpt>
      <trkpt lat="41.27871" lon="1.34423">
        <ele>236.4</ele>
        <time>2022-05-20 20:24:25</time>
      </trkpt>
      <trkpt lat="41.27879" lon="1.34425">
        <ele>236.4</ele>
        <time>2022-05-20 20:24:26</time>
      </trkpt>
      <trkpt lat="41.27887" lon="1.34427">
        <ele>236.4</ele>
        <time>2022-05-20 20:24:27</time>
      </trkpt>
      <trkpt lat="41.27896" lon="1.34428">
        <ele>236.4</ele>
        <time>2022-05-20 20:24:28</time>
      </trkpt>
      <trkpt lat="41.27905" lon="1.3443">
        <ele>236.4</ele>
        <time>2022-05-20 20:24:29</time>
      </trkpt>
      <trkpt lat="41.27913" lon="1.34431">
        <ele>236.4</ele>
        <time>2022-05-20 20:24:30</time>
      </trkpt>
      <trkpt lat="41.27922" lon="1.34431">
        <ele>236.4</ele>
        <time>2022-05-20 20:24:31</time>
      </trkpt>
      <trkpt lat="41.27931" lon="1.34432">
        <ele>236.4</ele>
        <time>2022-05-20 20:24:32</time>
      </trkpt>
      <trkpt lat="41.27939" lon="1.34432">
        <ele>236.4</ele>
        <time>2022-05-20 20:24:33</time>
      </trkpt>
      <trkpt lat="41.27948" lon="1.34432">
        <ele>236.4</ele>
        <time>2022-05-20 20:24:34</time>
      </trkpt>
      <trkpt lat="41.27956" lon="1.34431">
        <ele>236.4</ele>
        <time>2022-05-20 20:24:35</time>
      </trkpt>
      <trkpt lat="41.27965" lon="1.34431">
        <ele>236.4</ele>
        <time>2022-05-20 20:24:36</time>
      </trkpt>
      <trkpt lat="41.27974" lon="1.3443">
        <ele>236.4</ele>
        <time>2022-05-20 20:24:37</time>
      </trkpt>
      <trkpt lat="41.27983" lon="1.3443">
        <ele>236.2</ele>
        <time>2022-05-20 20:24:38</time>
      </trkpt>
      <trkpt lat="41.27991" lon="1.34429">
        <ele>236.2</ele>
        <time>2022-05-20 20:24:39</time>
      </trkpt>
      <trkpt lat="41.28001" lon="1.34429">
        <ele>236.2</ele>
        <time>2022-05-20 20:24:40</time>
      </trkpt>
      <trkpt lat="41.28009" lon="1.34428">
        <ele>236</ele>
        <time>2022-05-20 20:24:41</time>
      </trkpt>
      <trkpt lat="41.28018" lon="1.34428">
        <ele>236</ele>
        <time>2022-05-20 20:24:42</time>
      </trkpt>
      <trkpt lat="41.28027" lon="1.34428">
        <ele>236.2</ele>
        <time>2022-05-20 20:24:43</time>
      </trkpt>
      <trkpt lat="41.28035" lon="1.34427">
        <ele>236.2</ele>
        <time>2022-05-20 20:24:44</time>
      </trkpt>
      <trkpt lat="41.28044" lon="1.34427">
        <ele>236.2</ele>
        <time>2022-05-20 20:24:45</time>
      </trkpt>
      <trkpt lat="41.28052" lon="1.34426">
        <ele>236.4</ele>
        <time>2022-05-20 20:24:46</time>
      </trkpt>
      <trkpt lat="41.28061" lon="1.34425">
        <ele>236.4</ele>
        <time>2022-05-20 20:24:47</time>
      </trkpt>
      <trkpt lat="41.2807" lon="1.34425">
        <ele>236.4</ele>
        <time>2022-05-20 20:24:48</time>
      </trkpt>
      <trkpt lat="41.28078" lon="1.34424">
        <ele>236.4</ele>
        <time>2022-05-20 20:24:49</time>
      </trkpt>
      <trkpt lat="41.28087" lon="1.34424">
        <ele>236.6</ele>
        <time>2022-05-20 20:24:50</time>
      </trkpt>
      <trkpt lat="41.28095" lon="1.34424">
        <ele>236.6</ele>
        <time>2022-05-20 20:24:51</time>
      </trkpt>
      <trkpt lat="41.28104" lon="1.34423">
        <ele>236.6</ele>
        <time>2022-05-20 20:24:52</time>
      </trkpt>
      <trkpt lat="41.28112" lon="1.34423">
        <ele>236.8</ele>
        <time>2022-05-20 20:24:53</time>
      </trkpt>
      <trkpt lat="41.2812" lon="1.34422">
        <ele>236.8</ele>
        <time>2022-05-20 20:24:54</time>
      </trkpt>
      <trkpt lat="41.28128" lon="1.34422">
        <ele>236.8</ele>
        <time>2022-05-20 20:24:55</time>
      </trkpt>
      <trkpt lat="41.28137" lon="1.34421">
        <ele>237</ele>
        <time>2022-05-20 20:24:56</time>
      </trkpt>
      <trkpt lat="41.28145" lon="1.34421">
        <ele>237</ele>
        <time>2022-05-20 20:24:57</time>
      </trkpt>
      <trkpt lat="41.28154" lon="1.3442">
        <ele>237</ele>
        <time>2022-05-20 20:24:58</time>
      </trkpt>
      <trkpt lat="41.28162" lon="1.34419">
        <ele>237</ele>
        <time>2022-05-20 20:24:59</time>
      </trkpt>
      <trkpt lat="41.2817" lon="1.34419">
        <ele>237.2</ele>
        <time>2022-05-20 20:25:00</time>
      </trkpt>
      <trkpt lat="41.28178" lon="1.34419">
        <ele>237.2</ele>
        <time>2022-05-20 20:25:01</time>
      </trkpt>
      <trkpt lat="41.28187" lon="1.34418">
        <ele>237.4</ele>
        <time>2022-05-20 20:25:02</time>
      </trkpt>
      <trkpt lat="41.28196" lon="1.34418">
        <ele>237.4</ele>
        <time>2022-05-20 20:25:03</time>
      </trkpt>
      <trkpt lat="41.28204" lon="1.34417">
        <ele>237.4</ele>
        <time>2022-05-20 20:25:04</time>
      </trkpt>
      <trkpt lat="41.28212" lon="1.34417">
        <ele>237.4</ele>
        <time>2022-05-20 20:25:05</time>
      </trkpt>
      <trkpt lat="41.2822" lon="1.34417">
        <ele>237.6</ele>
        <time>2022-05-20 20:25:06</time>
      </trkpt>
      <trkpt lat="41.28229" lon="1.34417">
        <ele>237.6</ele>
        <time>2022-05-20 20:25:07</time>
      </trkpt>
      <trkpt lat="41.28238" lon="1.34417">
        <ele>237.6</ele>
        <time>2022-05-20 20:25:08</time>
      </trkpt>
      <trkpt lat="41.28246" lon="1.34418">
        <ele>237.6</ele>
        <time>2022-05-20 20:25:09</time>
      </trkpt>
      <trkpt lat="41.28255" lon="1.34418">
        <ele>237.6</ele>
        <time>2022-05-20 20:25:10</time>
      </trkpt>
      <trkpt lat="41.28264" lon="1.34419">
        <ele>237.6</ele>
        <time>2022-05-20 20:25:11</time>
      </trkpt>
      <trkpt lat="41.28273" lon="1.34421">
        <ele>237.8</ele>
        <time>2022-05-20 20:25:12</time>
      </trkpt>
      <trkpt lat="41.28281" lon="1.34422">
        <ele>237.8</ele>
        <time>2022-05-20 20:25:13</time>
      </trkpt>
      <trkpt lat="41.28291" lon="1.34423">
        <ele>237.8</ele>
        <time>2022-05-20 20:25:14</time>
      </trkpt>
      <trkpt lat="41.28299" lon="1.34424">
        <ele>238</ele>
        <time>2022-05-20 20:25:15</time>
      </trkpt>
      <trkpt lat="41.28308" lon="1.34426">
        <ele>238</ele>
        <time>2022-05-20 20:25:16</time>
      </trkpt>
      <trkpt lat="41.28317" lon="1.34427">
        <ele>238.2</ele>
        <time>2022-05-20 20:25:17</time>
      </trkpt>
      <trkpt lat="41.28325" lon="1.34428">
        <ele>238.2</ele>
        <time>2022-05-20 20:25:18</time>
      </trkpt>
      <trkpt lat="41.28334" lon="1.34429">
        <ele>238.2</ele>
        <time>2022-05-20 20:25:19</time>
      </trkpt>
      <trkpt lat="41.28343" lon="1.34431">
        <ele>238.2</ele>
        <time>2022-05-20 20:25:20</time>
      </trkpt>
      <trkpt lat="41.28351" lon="1.34432">
        <ele>238.4</ele>
        <time>2022-05-20 20:25:21</time>
      </trkpt>
      <trkpt lat="41.28358" lon="1.34433">
        <ele>238.4</ele>
        <time>2022-05-20 20:25:22</time>
      </trkpt>
      <trkpt lat="41.2837" lon="1.34435">
        <ele>238.4</ele>
        <time>2022-05-20 20:25:23</time>
      </trkpt>
      <trkpt lat="41.28379" lon="1.34437">
        <ele>238.4</ele>
        <time>2022-05-20 20:25:24</time>
      </trkpt>
      <trkpt lat="41.28387" lon="1.34438">
        <ele>238.4</ele>
        <time>2022-05-20 20:25:25</time>
      </trkpt>
      <trkpt lat="41.28396" lon="1.3444">
        <ele>238.6</ele>
        <time>2022-05-20 20:25:26</time>
      </trkpt>
      <trkpt lat="41.28404" lon="1.34441">
        <ele>238.6</ele>
        <time>2022-05-20 20:25:27</time>
      </trkpt>
      <trkpt lat="41.28413" lon="1.34442">
        <ele>238.6</ele>
        <time>2022-05-20 20:25:28</time>
      </trkpt>
      <trkpt lat="41.28422" lon="1.34442">
        <ele>238.6</ele>
        <time>2022-05-20 20:25:29</time>
      </trkpt>
      <trkpt lat="41.28432" lon="1.34442">
        <ele>238.6</ele>
        <time>2022-05-20 20:25:30</time>
      </trkpt>
      <trkpt lat="41.2844" lon="1.34443">
        <ele>238.6</ele>
        <time>2022-05-20 20:25:31</time>
      </trkpt>
      <trkpt lat="41.28449" lon="1.34446">
        <ele>238.8</ele>
        <time>2022-05-20 20:25:32</time>
      </trkpt>
      <trkpt lat="41.28457" lon="1.34448">
        <ele>238.8</ele>
        <time>2022-05-20 20:25:33</time>
      </trkpt>
      <trkpt lat="41.28466" lon="1.34449">
        <ele>238.8</ele>
        <time>2022-05-20 20:25:34</time>
      </trkpt>
      <trkpt lat="41.28474" lon="1.34451">
        <ele>238.8</ele>
        <time>2022-05-20 20:25:35</time>
      </trkpt>
      <trkpt lat="41.28482" lon="1.34452">
        <ele>239</ele>
        <time>2022-05-20 20:25:36</time>
      </trkpt>
      <trkpt lat="41.28491" lon="1.34454">
        <ele>239</ele>
        <time>2022-05-20 20:25:37</time>
      </trkpt>
      <trkpt lat="41.285" lon="1.34455">
        <ele>239</ele>
        <time>2022-05-20 20:25:38</time>
      </trkpt>
      <trkpt lat="41.28508" lon="1.34456">
        <ele>239</ele>
        <time>2022-05-20 20:25:39</time>
      </trkpt>
      <trkpt lat="41.28517" lon="1.34458">
        <ele>239.2</ele>
        <time>2022-05-20 20:25:40</time>
      </trkpt>
      <trkpt lat="41.28526" lon="1.34459">
        <ele>239.2</ele>
        <time>2022-05-20 20:25:41</time>
      </trkpt>
      <trkpt lat="41.28534" lon="1.34461">
        <ele>239.2</ele>
        <time>2022-05-20 20:25:42</time>
      </trkpt>
      <trkpt lat="41.28542" lon="1.34462">
        <ele>239.2</ele>
        <time>2022-05-20 20:25:43</time>
      </trkpt>
      <trkpt lat="41.28551" lon="1.34464">
        <ele>239.2</ele>
        <time>2022-05-20 20:25:44</time>
      </trkpt>
      <trkpt lat="41.2856" lon="1.34465">
        <ele>239.2</ele>
        <time>2022-05-20 20:25:45</time>
      </trkpt>
      <trkpt lat="41.28569" lon="1.34467">
        <ele>239.4</ele>
        <time>2022-05-20 20:25:46</time>
      </trkpt>
      <trkpt lat="41.28577" lon="1.34469">
        <ele>239.4</ele>
        <time>2022-05-20 20:25:47</time>
      </trkpt>
      <trkpt lat="41.28587" lon="1.34471">
        <ele>239.4</ele>
        <time>2022-05-20 20:25:48</time>
      </trkpt>
      <trkpt lat="41.28595" lon="1.34474">
        <ele>239.4</ele>
        <time>2022-05-20 20:25:49</time>
      </trkpt>
      <trkpt lat="41.28604" lon="1.34476">
        <ele>239.4</ele>
        <time>2022-05-20 20:25:50</time>
      </trkpt>
      <trkpt lat="41.28612" lon="1.3448">
        <ele>239.4</ele>
        <time>2022-05-20 20:25:51</time>
      </trkpt>
      <trkpt lat="41.28621" lon="1.34484">
        <ele>239.4</ele>
        <time>2022-05-20 20:25:52</time>
      </trkpt>
      <trkpt lat="41.28629" lon="1.34488">
        <ele>239.6</ele>
        <time>2022-05-20 20:25:53</time>
      </trkpt>
      <trkpt lat="41.28636" lon="1.34492">
        <ele>239.6</ele>
        <time>2022-05-20 20:25:54</time>
      </trkpt>
      <trkpt lat="41.28644" lon="1.34497">
        <ele>239.6</ele>
        <time>2022-05-20 20:25:55</time>
      </trkpt>
      <trkpt lat="41.28651" lon="1.34502">
        <ele>239.6</ele>
        <time>2022-05-20 20:25:56</time>
      </trkpt>
      <trkpt lat="41.28659" lon="1.34507">
        <ele>239.6</ele>
        <time>2022-05-20 20:25:57</time>
      </trkpt>
      <trkpt lat="41.28667" lon="1.34513">
        <ele>239.6</ele>
        <time>2022-05-20 20:25:58</time>
      </trkpt>
      <trkpt lat="41.28675" lon="1.3452">
        <ele>239.6</ele>
        <time>2022-05-20 20:25:59</time>
      </trkpt>
      <trkpt lat="41.28682" lon="1.34526">
        <ele>239.6</ele>
        <time>2022-05-20 20:26:00</time>
      </trkpt>
      <trkpt lat="41.28689" lon="1.34533">
        <ele>239.6</ele>
        <time>2022-05-20 20:26:01</time>
      </trkpt>
      <trkpt lat="41.28696" lon="1.34539">
        <ele>239.6</ele>
        <time>2022-05-20 20:26:02</time>
      </trkpt>
      <trkpt lat="41.28703" lon="1.34546">
        <ele>239.6</ele>
        <time>2022-05-20 20:26:03</time>
      </trkpt>
      <trkpt lat="41.2871" lon="1.34553">
        <ele>239.8</ele>
        <time>2022-05-20 20:26:04</time>
      </trkpt>
      <trkpt lat="41.28717" lon="1.34559">
        <ele>239.8</ele>
        <time>2022-05-20 20:26:05</time>
      </trkpt>
      <trkpt lat="41.28724" lon="1.34567">
        <ele>239.8</ele>
        <time>2022-05-20 20:26:06</time>
      </trkpt>
      <trkpt lat="41.28731" lon="1.34574">
        <ele>240</ele>
        <time>2022-05-20 20:26:07</time>
      </trkpt>
      <trkpt lat="41.28738" lon="1.34581">
        <ele>240</ele>
        <time>2022-05-20 20:26:08</time>
      </trkpt>
      <trkpt lat="41.28745" lon="1.34588">
        <ele>240</ele>
        <time>2022-05-20 20:26:09</time>
      </trkpt>
      <trkpt lat="41.28752" lon="1.34595">
        <ele>240.2</ele>
        <time>2022-05-20 20:26:10</time>
      </trkpt>
      <trkpt lat="41.28759" lon="1.34602">
        <ele>240.2</ele>
        <time>2022-05-20 20:26:11</time>
      </trkpt>
      <trkpt lat="41.28766" lon="1.34609">
        <ele>240.2</ele>
        <time>2022-05-20 20:26:12</time>
      </trkpt>
      <trkpt lat="41.28772" lon="1.34616">
        <ele>240.4</ele>
        <time>2022-05-20 20:26:13</time>
      </trkpt>
      <trkpt lat="41.28779" lon="1.34623">
        <ele>240.4</ele>
        <time>2022-05-20 20:26:14</time>
      </trkpt>
      <trkpt lat="41.28786" lon="1.3463">
        <ele>240.6</ele>
        <time>2022-05-20 20:26:15</time>
      </trkpt>
      <trkpt lat="41.28793" lon="1.34637">
        <ele>240.6</ele>
        <time>2022-05-20 20:26:16</time>
      </trkpt>
      <trkpt lat="41.28799" lon="1.34644">
        <ele>240.8</ele>
        <time>2022-05-20 20:26:17</time>
      </trkpt>
      <trkpt lat="41.28806" lon="1.34651">
        <ele>240.8</ele>
        <time>2022-05-20 20:26:18</time>
      </trkpt>
      <trkpt lat="41.28812" lon="1.34658">
        <ele>241</ele>
        <time>2022-05-20 20:26:19</time>
      </trkpt>
      <trkpt lat="41.28819" lon="1.34665">
        <ele>241</ele>
        <time>2022-05-20 20:26:20</time>
      </trkpt>
      <trkpt lat="41.28825" lon="1.34671">
        <ele>241.2</ele>
        <time>2022-05-20 20:26:21</time>
      </trkpt>
      <trkpt lat="41.28832" lon="1.34678">
        <ele>241.4</ele>
        <time>2022-05-20 20:26:22</time>
      </trkpt>
      <trkpt lat="41.28839" lon="1.34685">
        <ele>241.4</ele>
        <time>2022-05-20 20:26:23</time>
      </trkpt>
      <trkpt lat="41.28844" lon="1.34691">
        <ele>241.6</ele>
        <time>2022-05-20 20:26:24</time>
      </trkpt>
      <trkpt lat="41.28852" lon="1.34698">
        <ele>241.8</ele>
        <time>2022-05-20 20:26:25</time>
      </trkpt>
      <trkpt lat="41.28858" lon="1.34705">
        <ele>241.8</ele>
        <time>2022-05-20 20:26:26</time>
      </trkpt>
      <trkpt lat="41.28865" lon="1.34711">
        <ele>242</ele>
        <time>2022-05-20 20:26:27</time>
      </trkpt>
      <trkpt lat="41.28872" lon="1.34718">
        <ele>242</ele>
        <time>2022-05-20 20:26:28</time>
      </trkpt>
      <trkpt lat="41.28878" lon="1.34725">
        <ele>242.2</ele>
        <time>2022-05-20 20:26:29</time>
      </trkpt>
      <trkpt lat="41.28885" lon="1.34731">
        <ele>242.2</ele>
        <time>2022-05-20 20:26:30</time>
      </trkpt>
      <trkpt lat="41.28891" lon="1.34738">
        <ele>242.2</ele>
        <time>2022-05-20 20:26:31</time>
      </trkpt>
      <trkpt lat="41.28898" lon="1.34745">
        <ele>242.4</ele>
        <time>2022-05-20 20:26:32</time>
      </trkpt>
      <trkpt lat="41.28904" lon="1.34751">
        <ele>242.6</ele>
        <time>2022-05-20 20:26:33</time>
      </trkpt>
      <trkpt lat="41.2891" lon="1.34758">
        <ele>242.6</ele>
        <time>2022-05-20 20:26:34</time>
      </trkpt>
      <trkpt lat="41.28917" lon="1.34765">
        <ele>242.8</ele>
        <time>2022-05-20 20:26:35</time>
      </trkpt>
      <trkpt lat="41.28924" lon="1.34771">
        <ele>242.8</ele>
        <time>2022-05-20 20:26:36</time>
      </trkpt>
      <trkpt lat="41.2893" lon="1.34778">
        <ele>242.8</ele>
        <time>2022-05-20 20:26:37</time>
      </trkpt>
      <trkpt lat="41.28936" lon="1.34784">
        <ele>243</ele>
        <time>2022-05-20 20:26:38</time>
      </trkpt>
      <trkpt lat="41.28943" lon="1.34791">
        <ele>243</ele>
        <time>2022-05-20 20:26:39</time>
      </trkpt>
      <trkpt lat="41.2895" lon="1.34798">
        <ele>243.2</ele>
        <time>2022-05-20 20:26:40</time>
      </trkpt>
      <trkpt lat="41.28957" lon="1.34804">
        <ele>243.4</ele>
        <time>2022-05-20 20:26:41</time>
      </trkpt>
      <trkpt lat="41.28963" lon="1.34811">
        <ele>243.4</ele>
        <time>2022-05-20 20:26:42</time>
      </trkpt>
      <trkpt lat="41.28969" lon="1.34817">
        <ele>243.6</ele>
        <time>2022-05-20 20:26:43</time>
      </trkpt>
      <trkpt lat="41.28975" lon="1.34823">
        <ele>243.8</ele>
        <time>2022-05-20 20:26:44</time>
      </trkpt>
      <trkpt lat="41.28982" lon="1.3483">
        <ele>243.8</ele>
        <time>2022-05-20 20:26:45</time>
      </trkpt>
      <trkpt lat="41.28988" lon="1.34837">
        <ele>244</ele>
        <time>2022-05-20 20:26:46</time>
      </trkpt>
      <trkpt lat="41.28995" lon="1.34843">
        <ele>244</ele>
        <time>2022-05-20 20:26:47</time>
      </trkpt>
      <trkpt lat="41.29001" lon="1.3485">
        <ele>244</ele>
        <time>2022-05-20 20:26:48</time>
      </trkpt>
      <trkpt lat="41.29008" lon="1.34856">
        <ele>244.2</ele>
        <time>2022-05-20 20:26:49</time>
      </trkpt>
      <trkpt lat="41.29014" lon="1.34862">
        <ele>244.2</ele>
        <time>2022-05-20 20:26:50</time>
      </trkpt>
      <trkpt lat="41.2902" lon="1.34868">
        <ele>244.4</ele>
        <time>2022-05-20 20:26:51</time>
      </trkpt>
      <trkpt lat="41.29026" lon="1.34874">
        <ele>244.4</ele>
        <time>2022-05-20 20:26:52</time>
      </trkpt>
      <trkpt lat="41.29031" lon="1.3488">
        <ele>244.4</ele>
        <time>2022-05-20 20:26:53</time>
      </trkpt>
      <trkpt lat="41.29037" lon="1.34886">
        <ele>244.4</ele>
        <time>2022-05-20 20:26:54</time>
      </trkpt>
      <trkpt lat="41.29043" lon="1.34892">
        <ele>244.2</ele>
        <time>2022-05-20 20:26:55</time>
      </trkpt>
      <trkpt lat="41.29049" lon="1.34898">
        <ele>244</ele>
        <time>2022-05-20 20:26:56</time>
      </trkpt>
      <trkpt lat="41.29056" lon="1.34905">
        <ele>243.8</ele>
        <time>2022-05-20 20:26:57</time>
      </trkpt>
      <trkpt lat="41.29063" lon="1.34912">
        <ele>243.4</ele>
        <time>2022-05-20 20:26:58</time>
      </trkpt>
      <trkpt lat="41.2907" lon="1.34921">
        <ele>242.8</ele>
        <time>2022-05-20 20:26:59</time>
      </trkpt>
      <trkpt lat="41.29075" lon="1.34931">
        <ele>242.2</ele>
        <time>2022-05-20 20:27:00</time>
      </trkpt>
      <trkpt lat="41.29079" lon="1.34944">
        <ele>241.8</ele>
        <time>2022-05-20 20:27:01</time>
      </trkpt>
      <trkpt lat="41.29083" lon="1.34956">
        <ele>241.4</ele>
        <time>2022-05-20 20:27:02</time>
      </trkpt>
      <trkpt lat="41.29089" lon="1.34966">
        <ele>241.2</ele>
        <time>2022-05-20 20:27:03</time>
      </trkpt>
      <trkpt lat="41.29096" lon="1.34971">
        <ele>241</ele>
        <time>2022-05-20 20:27:04</time>
      </trkpt>
      <trkpt lat="41.29104" lon="1.34972">
        <ele>240.8</ele>
        <time>2022-05-20 20:27:05</time>
      </trkpt>
      <trkpt lat="41.29113" lon="1.34973">
        <ele>240.8</ele>
        <time>2022-05-20 20:27:06</time>
      </trkpt>
      <trkpt lat="41.29122" lon="1.34975">
        <ele>240.8</ele>
        <time>2022-05-20 20:27:07</time>
      </trkpt>
      <trkpt lat="41.29131" lon="1.34978">
        <ele>241</ele>
        <time>2022-05-20 20:27:08</time>
      </trkpt>
      <trkpt lat="41.29139" lon="1.34982">
        <ele>241</ele>
        <time>2022-05-20 20:27:09</time>
      </trkpt>
      <trkpt lat="41.29147" lon="1.34986">
        <ele>241</ele>
        <time>2022-05-20 20:27:10</time>
      </trkpt>
      <trkpt lat="41.29156" lon="1.3499">
        <ele>241</ele>
        <time>2022-05-20 20:27:11</time>
      </trkpt>
      <trkpt lat="41.29164" lon="1.34995">
        <ele>241</ele>
        <time>2022-05-20 20:27:12</time>
      </trkpt>
      <trkpt lat="41.29172" lon="1.35">
        <ele>241</ele>
        <time>2022-05-20 20:27:13</time>
      </trkpt>
      <trkpt lat="41.29181" lon="1.35004">
        <ele>241</ele>
        <time>2022-05-20 20:27:14</time>
      </trkpt>
      <trkpt lat="41.2919" lon="1.35008">
        <ele>241</ele>
        <time>2022-05-20 20:27:15</time>
      </trkpt>
      <trkpt lat="41.29198" lon="1.35013">
        <ele>241</ele>
        <time>2022-05-20 20:27:16</time>
      </trkpt>
      <trkpt lat="41.29207" lon="1.35018">
        <ele>241</ele>
        <time>2022-05-20 20:27:17</time>
      </trkpt>
      <trkpt lat="41.29215" lon="1.35023">
        <ele>240.8</ele>
        <time>2022-05-20 20:27:18</time>
      </trkpt>
      <trkpt lat="41.29223" lon="1.35027">
        <ele>240.8</ele>
        <time>2022-05-20 20:27:19</time>
      </trkpt>
      <trkpt lat="41.29232" lon="1.35032">
        <ele>240.8</ele>
        <time>2022-05-20 20:27:20</time>
      </trkpt>
      <trkpt lat="41.2924" lon="1.35036">
        <ele>240.8</ele>
        <time>2022-05-20 20:27:21</time>
      </trkpt>
      <trkpt lat="41.29248" lon="1.35041">
        <ele>240.8</ele>
        <time>2022-05-20 20:27:22</time>
      </trkpt>
      <trkpt lat="41.29257" lon="1.35046">
        <ele>240.8</ele>
        <time>2022-05-20 20:27:23</time>
      </trkpt>
      <trkpt lat="41.29264" lon="1.35051">
        <ele>240.8</ele>
        <time>2022-05-20 20:27:24</time>
      </trkpt>
      <trkpt lat="41.29272" lon="1.35055">
        <ele>240.8</ele>
        <time>2022-05-20 20:27:25</time>
      </trkpt>
      <trkpt lat="41.2928" lon="1.35061">
        <ele>240.8</ele>
        <time>2022-05-20 20:27:26</time>
      </trkpt>
      <trkpt lat="41.29288" lon="1.35065">
        <ele>241</ele>
        <time>2022-05-20 20:27:27</time>
      </trkpt>
      <trkpt lat="41.29296" lon="1.35069">
        <ele>241</ele>
        <time>2022-05-20 20:27:28</time>
      </trkpt>
      <trkpt lat="41.29305" lon="1.35073">
        <ele>241</ele>
        <time>2022-05-20 20:27:29</time>
      </trkpt>
      <trkpt lat="41.29313" lon="1.35078">
        <ele>241</ele>
        <time>2022-05-20 20:27:30</time>
      </trkpt>
      <trkpt lat="41.29321" lon="1.35081">
        <ele>241</ele>
        <time>2022-05-20 20:27:31</time>
      </trkpt>
      <trkpt lat="41.29329" lon="1.35085">
        <ele>241</ele>
        <time>2022-05-20 20:27:32</time>
      </trkpt>
      <trkpt lat="41.29337" lon="1.35088">
        <ele>241</ele>
        <time>2022-05-20 20:27:33</time>
      </trkpt>
      <trkpt lat="41.29346" lon="1.3509">
        <ele>241</ele>
        <time>2022-05-20 20:27:34</time>
      </trkpt>
      <trkpt lat="41.29354" lon="1.35093">
        <ele>241</ele>
        <time>2022-05-20 20:27:35</time>
      </trkpt>
      <trkpt lat="41.29363" lon="1.35095">
        <ele>241</ele>
        <time>2022-05-20 20:27:36</time>
      </trkpt>
      <trkpt lat="41.29372" lon="1.35098">
        <ele>240.8</ele>
        <time>2022-05-20 20:27:37</time>
      </trkpt>
      <trkpt lat="41.29381" lon="1.351">
        <ele>240.8</ele>
        <time>2022-05-20 20:27:38</time>
      </trkpt>
      <trkpt lat="41.29389" lon="1.35103">
        <ele>240.8</ele>
        <time>2022-05-20 20:27:39</time>
      </trkpt>
      <trkpt lat="41.29398" lon="1.35106">
        <ele>240.8</ele>
        <time>2022-05-20 20:27:40</time>
      </trkpt>
      <trkpt lat="41.29406" lon="1.35108">
        <ele>241</ele>
        <time>2022-05-20 20:27:41</time>
      </trkpt>
      <trkpt lat="41.29414" lon="1.3511">
        <ele>241.2</ele>
        <time>2022-05-20 20:27:42</time>
      </trkpt>
      <trkpt lat="41.29422" lon="1.35112">
        <ele>241.4</ele>
        <time>2022-05-20 20:27:43</time>
      </trkpt>
      <trkpt lat="41.29429" lon="1.35114">
        <ele>241.8</ele>
        <time>2022-05-20 20:27:44</time>
      </trkpt>
      <trkpt lat="41.29437" lon="1.35116">
        <ele>242</ele>
        <time>2022-05-20 20:27:45</time>
      </trkpt>
      <trkpt lat="41.29444" lon="1.35118">
        <ele>242.4</ele>
        <time>2022-05-20 20:27:46</time>
      </trkpt>
      <trkpt lat="41.29451" lon="1.35119">
        <ele>242.8</ele>
        <time>2022-05-20 20:27:47</time>
      </trkpt>
      <trkpt lat="41.29458" lon="1.35121">
        <ele>243</ele>
        <time>2022-05-20 20:27:48</time>
      </trkpt>
      <trkpt lat="41.29464" lon="1.35123">
        <ele>243.4</ele>
        <time>2022-05-20 20:27:49</time>
      </trkpt>
      <trkpt lat="41.29471" lon="1.35125">
        <ele>243.8</ele>
        <time>2022-05-20 20:27:50</time>
      </trkpt>
      <trkpt lat="41.29478" lon="1.35126">
        <ele>244</ele>
        <time>2022-05-20 20:27:51</time>
      </trkpt>
      <trkpt lat="41.29485" lon="1.35128">
        <ele>244.4</ele>
        <time>2022-05-20 20:27:52</time>
      </trkpt>
      <trkpt lat="41.29491" lon="1.3513">
        <ele>244.6</ele>
        <time>2022-05-20 20:27:53</time>
      </trkpt>
      <trkpt lat="41.29498" lon="1.35132">
        <ele>245</ele>
        <time>2022-05-20 20:27:54</time>
      </trkpt>
      <trkpt lat="41.29504" lon="1.35133">
        <ele>245.2</ele>
        <time>2022-05-20 20:27:55</time>
      </trkpt>
      <trkpt lat="41.29511" lon="1.35135">
        <ele>245.4</ele>
        <time>2022-05-20 20:27:56</time>
      </trkpt>
      <trkpt lat="41.29518" lon="1.35137">
        <ele>245.6</ele>
        <time>2022-05-20 20:27:57</time>
      </trkpt>
      <trkpt lat="41.29525" lon="1.35139">
        <ele>245.8</ele>
        <time>2022-05-20 20:27:58</time>
      </trkpt>
      <trkpt lat="41.29532" lon="1.3514">
        <ele>246</ele>
        <time>2022-05-20 20:27:59</time>
      </trkpt>
      <trkpt lat="41.29539" lon="1.35142">
        <ele>246.2</ele>
        <time>2022-05-20 20:28:00</time>
      </trkpt>
      <trkpt lat="41.29546" lon="1.35144">
        <ele>246.4</ele>
        <time>2022-05-20 20:28:01</time>
      </trkpt>
      <trkpt lat="41.29554" lon="1.35147">
        <ele>246.4</ele>
        <time>2022-05-20 20:28:02</time>
      </trkpt>
      <trkpt lat="41.29562" lon="1.35149">
        <ele>246.4</ele>
        <time>2022-05-20 20:28:03</time>
      </trkpt>
      <trkpt lat="41.29569" lon="1.35151">
        <ele>246.4</ele>
        <time>2022-05-20 20:28:04</time>
      </trkpt>
      <trkpt lat="41.29576" lon="1.35153">
        <ele>246.4</ele>
        <time>2022-05-20 20:28:05</time>
      </trkpt>
      <trkpt lat="41.29584" lon="1.35155">
        <ele>246.2</ele>
        <time>2022-05-20 20:28:06</time>
      </trkpt>
      <trkpt lat="41.29591" lon="1.35157">
        <ele>246</ele>
        <time>2022-05-20 20:28:07</time>
      </trkpt>
      <trkpt lat="41.296" lon="1.35159">
        <ele>246</ele>
        <time>2022-05-20 20:28:08</time>
      </trkpt>
      <trkpt lat="41.29609" lon="1.35161">
        <ele>245.8</ele>
        <time>2022-05-20 20:28:09</time>
      </trkpt>
      <trkpt lat="41.29618" lon="1.35164">
        <ele>245.4</ele>
        <time>2022-05-20 20:28:10</time>
      </trkpt>
      <trkpt lat="41.29627" lon="1.35166">
        <ele>245</ele>
        <time>2022-05-20 20:28:11</time>
      </trkpt>
      <trkpt lat="41.29637" lon="1.35168">
        <ele>244.8</ele>
        <time>2022-05-20 20:28:12</time>
      </trkpt>
      <trkpt lat="41.29647" lon="1.35171">
        <ele>244.4</ele>
        <time>2022-05-20 20:28:13</time>
      </trkpt>
      <trkpt lat="41.29658" lon="1.35173">
        <ele>244</ele>
        <time>2022-05-20 20:28:14</time>
      </trkpt>
      <trkpt lat="41.29668" lon="1.35176">
        <ele>243.6</ele>
        <time>2022-05-20 20:28:15</time>
      </trkpt>
      <trkpt lat="41.29678" lon="1.35179">
        <ele>243.2</ele>
        <time>2022-05-20 20:28:16</time>
      </trkpt>
      <trkpt lat="41.29688" lon="1.35182">
        <ele>242.8</ele>
        <time>2022-05-20 20:28:17</time>
      </trkpt>
      <trkpt lat="41.29699" lon="1.35185">
        <ele>242.4</ele>
        <time>2022-05-20 20:28:18</time>
      </trkpt>
      <trkpt lat="41.29709" lon="1.35187">
        <ele>242</ele>
        <time>2022-05-20 20:28:19</time>
      </trkpt>
      <trkpt lat="41.2972" lon="1.3519">
        <ele>241.6</ele>
        <time>2022-05-20 20:28:20</time>
      </trkpt>
      <trkpt lat="41.29731" lon="1.35192">
        <ele>241.4</ele>
        <time>2022-05-20 20:28:21</time>
      </trkpt>
      <trkpt lat="41.29741" lon="1.35194">
        <ele>241.2</ele>
        <time>2022-05-20 20:28:22</time>
      </trkpt>
      <trkpt lat="41.29751" lon="1.35197">
        <ele>241.2</ele>
        <time>2022-05-20 20:28:23</time>
      </trkpt>
      <trkpt lat="41.2976" lon="1.35199">
        <ele>241</ele>
        <time>2022-05-20 20:28:24</time>
      </trkpt>
      <trkpt lat="41.2977" lon="1.35201">
        <ele>241</ele>
        <time>2022-05-20 20:28:25</time>
      </trkpt>
      <trkpt lat="41.29779" lon="1.35203">
        <ele>241</ele>
        <time>2022-05-20 20:28:26</time>
      </trkpt>
      <trkpt lat="41.29788" lon="1.35206">
        <ele>241</ele>
        <time>2022-05-20 20:28:27</time>
      </trkpt>
      <trkpt lat="41.29798" lon="1.35209">
        <ele>241</ele>
        <time>2022-05-20 20:28:28</time>
      </trkpt>
      <trkpt lat="41.29808" lon="1.35212">
        <ele>241.2</ele>
        <time>2022-05-20 20:28:29</time>
      </trkpt>
      <trkpt lat="41.29816" lon="1.35214">
        <ele>241.2</ele>
        <time>2022-05-20 20:28:30</time>
      </trkpt>
      <trkpt lat="41.29825" lon="1.35217">
        <ele>241.4</ele>
        <time>2022-05-20 20:28:31</time>
      </trkpt>
      <trkpt lat="41.29834" lon="1.35219">
        <ele>241.4</ele>
        <time>2022-05-20 20:28:32</time>
      </trkpt>
      <trkpt lat="41.29843" lon="1.35221">
        <ele>241.6</ele>
        <time>2022-05-20 20:28:33</time>
      </trkpt>
      <trkpt lat="41.29852" lon="1.35224">
        <ele>241.6</ele>
        <time>2022-05-20 20:28:34</time>
      </trkpt>
      <trkpt lat="41.29861" lon="1.35226">
        <ele>241.6</ele>
        <time>2022-05-20 20:28:35</time>
      </trkpt>
      <trkpt lat="41.2987" lon="1.35227">
        <ele>241.6</ele>
        <time>2022-05-20 20:28:36</time>
      </trkpt>
      <trkpt lat="41.29879" lon="1.35229">
        <ele>241.8</ele>
        <time>2022-05-20 20:28:37</time>
      </trkpt>
      <trkpt lat="41.29888" lon="1.35231">
        <ele>241.8</ele>
        <time>2022-05-20 20:28:38</time>
      </trkpt>
      <trkpt lat="41.29898" lon="1.35233">
        <ele>241.8</ele>
        <time>2022-05-20 20:28:39</time>
      </trkpt>
      <trkpt lat="41.29907" lon="1.35234">
        <ele>241.6</ele>
        <time>2022-05-20 20:28:40</time>
      </trkpt>
      <trkpt lat="41.29916" lon="1.35235">
        <ele>241.6</ele>
        <time>2022-05-20 20:28:41</time>
      </trkpt>
      <trkpt lat="41.29924" lon="1.35237">
        <ele>241.6</ele>
        <time>2022-05-20 20:28:42</time>
      </trkpt>
      <trkpt lat="41.29934" lon="1.35239">
        <ele>241.6</ele>
        <time>2022-05-20 20:28:43</time>
      </trkpt>
      <trkpt lat="41.29943" lon="1.35241">
        <ele>241.6</ele>
        <time>2022-05-20 20:28:44</time>
      </trkpt>
      <trkpt lat="41.29953" lon="1.35243">
        <ele>241.6</ele>
        <time>2022-05-20 20:28:45</time>
      </trkpt>
      <trkpt lat="41.29962" lon="1.35245">
        <ele>241.4</ele>
        <time>2022-05-20 20:28:46</time>
      </trkpt>
      <trkpt lat="41.29971" lon="1.35246">
        <ele>241.4</ele>
        <time>2022-05-20 20:28:47</time>
      </trkpt>
      <trkpt lat="41.2998" lon="1.35248">
        <ele>241.2</ele>
        <time>2022-05-20 20:28:48</time>
      </trkpt>
      <trkpt lat="41.2999" lon="1.3525">
        <ele>241.2</ele>
        <time>2022-05-20 20:28:49</time>
      </trkpt>
      <trkpt lat="41.3" lon="1.35251">
        <ele>241.2</ele>
        <time>2022-05-20 20:28:50</time>
      </trkpt>
      <trkpt lat="41.30009" lon="1.35253">
        <ele>241</ele>
        <time>2022-05-20 20:28:51</time>
      </trkpt>
      <trkpt lat="41.30018" lon="1.35255">
        <ele>241</ele>
        <time>2022-05-20 20:28:52</time>
      </trkpt>
      <trkpt lat="41.30029" lon="1.35256">
        <ele>240.8</ele>
        <time>2022-05-20 20:28:53</time>
      </trkpt>
      <trkpt lat="41.30038" lon="1.35258">
        <ele>240.8</ele>
        <time>2022-05-20 20:28:54</time>
      </trkpt>
      <trkpt lat="41.30048" lon="1.3526">
        <ele>240.6</ele>
        <time>2022-05-20 20:28:55</time>
      </trkpt>
      <trkpt lat="41.30058" lon="1.35262">
        <ele>240.6</ele>
        <time>2022-05-20 20:28:56</time>
      </trkpt>
      <trkpt lat="41.30067" lon="1.35264">
        <ele>240.4</ele>
        <time>2022-05-20 20:28:57</time>
      </trkpt>
      <trkpt lat="41.30077" lon="1.35265">
        <ele>240.4</ele>
        <time>2022-05-20 20:28:58</time>
      </trkpt>
      <trkpt lat="41.30087" lon="1.35267">
        <ele>240.2</ele>
        <time>2022-05-20 20:28:59</time>
      </trkpt>
      <trkpt lat="41.30095" lon="1.35268">
        <ele>240.2</ele>
        <time>2022-05-20 20:29:00</time>
      </trkpt>
      <trkpt lat="41.30105" lon="1.35269">
        <ele>240</ele>
        <time>2022-05-20 20:29:01</time>
      </trkpt>
      <trkpt lat="41.30114" lon="1.35271">
        <ele>239.8</ele>
        <time>2022-05-20 20:29:02</time>
      </trkpt>
      <trkpt lat="41.30125" lon="1.35273">
        <ele>239.8</ele>
        <time>2022-05-20 20:29:03</time>
      </trkpt>
      <trkpt lat="41.30134" lon="1.35275">
        <ele>239.6</ele>
        <time>2022-05-20 20:29:04</time>
      </trkpt>
      <trkpt lat="41.30143" lon="1.35277">
        <ele>239.4</ele>
        <time>2022-05-20 20:29:05</time>
      </trkpt>
      <trkpt lat="41.30153" lon="1.35279">
        <ele>239.4</ele>
        <time>2022-05-20 20:29:06</time>
      </trkpt>
      <trkpt lat="41.30163" lon="1.35281">
        <ele>239.2</ele>
        <time>2022-05-20 20:29:07</time>
      </trkpt>
      <trkpt lat="41.30172" lon="1.35283">
        <ele>239.2</ele>
        <time>2022-05-20 20:29:08</time>
      </trkpt>
      <trkpt lat="41.30182" lon="1.35284">
        <ele>239</ele>
        <time>2022-05-20 20:29:09</time>
      </trkpt>
      <trkpt lat="41.30191" lon="1.35286">
        <ele>238.8</ele>
        <time>2022-05-20 20:29:10</time>
      </trkpt>
      <trkpt lat="41.30201" lon="1.35288">
        <ele>238.8</ele>
        <time>2022-05-20 20:29:11</time>
      </trkpt>
      <trkpt lat="41.30211" lon="1.3529">
        <ele>238.6</ele>
        <time>2022-05-20 20:29:12</time>
      </trkpt>
      <trkpt lat="41.30222" lon="1.35292">
        <ele>238.6</ele>
        <time>2022-05-20 20:29:13</time>
      </trkpt>
      <trkpt lat="41.30231" lon="1.35294">
        <ele>238.4</ele>
        <time>2022-05-20 20:29:14</time>
      </trkpt>
      <trkpt lat="41.30241" lon="1.35296">
        <ele>238.4</ele>
        <time>2022-05-20 20:29:15</time>
      </trkpt>
      <trkpt lat="41.30251" lon="1.35297">
        <ele>238.2</ele>
        <time>2022-05-20 20:29:16</time>
      </trkpt>
      <trkpt lat="41.3026" lon="1.35299">
        <ele>238.2</ele>
        <time>2022-05-20 20:29:17</time>
      </trkpt>
      <trkpt lat="41.30269" lon="1.353">
        <ele>238.2</ele>
        <time>2022-05-20 20:29:18</time>
      </trkpt>
      <trkpt lat="41.30278" lon="1.35301">
        <ele>238.2</ele>
        <time>2022-05-20 20:29:19</time>
      </trkpt>
      <trkpt lat="41.30288" lon="1.35303">
        <ele>238.2</ele>
        <time>2022-05-20 20:29:20</time>
      </trkpt>
      <trkpt lat="41.30298" lon="1.35305">
        <ele>238</ele>
        <time>2022-05-20 20:29:21</time>
      </trkpt>
      <trkpt lat="41.30308" lon="1.35307">
        <ele>238</ele>
        <time>2022-05-20 20:29:22</time>
      </trkpt>
      <trkpt lat="41.30317" lon="1.35309">
        <ele>238</ele>
        <time>2022-05-20 20:29:23</time>
      </trkpt>
      <trkpt lat="41.30326" lon="1.35311">
        <ele>238</ele>
        <time>2022-05-20 20:29:24</time>
      </trkpt>
      <trkpt lat="41.30336" lon="1.35314">
        <ele>238</ele>
        <time>2022-05-20 20:29:25</time>
      </trkpt>
      <trkpt lat="41.30346" lon="1.35317">
        <ele>238</ele>
        <time>2022-05-20 20:29:26</time>
      </trkpt>
      <trkpt lat="41.30355" lon="1.35318">
        <ele>238</ele>
        <time>2022-05-20 20:29:27</time>
      </trkpt>
      <trkpt lat="41.30364" lon="1.3532">
        <ele>238</ele>
        <time>2022-05-20 20:29:28</time>
      </trkpt>
      <trkpt lat="41.30374" lon="1.35322">
        <ele>238</ele>
        <time>2022-05-20 20:29:29</time>
      </trkpt>
      <trkpt lat="41.30384" lon="1.35323">
        <ele>238</ele>
        <time>2022-05-20 20:29:30</time>
      </trkpt>
      <trkpt lat="41.30393" lon="1.35325">
        <ele>237.8</ele>
        <time>2022-05-20 20:29:31</time>
      </trkpt>
      <trkpt lat="41.30403" lon="1.35327">
        <ele>237.6</ele>
        <time>2022-05-20 20:29:32</time>
      </trkpt>
      <trkpt lat="41.30413" lon="1.35328">
        <ele>237.4</ele>
        <time>2022-05-20 20:29:33</time>
      </trkpt>
      <trkpt lat="41.30423" lon="1.3533">
        <ele>237.2</ele>
        <time>2022-05-20 20:29:34</time>
      </trkpt>
      <trkpt lat="41.30434" lon="1.35333">
        <ele>237</ele>
        <time>2022-05-20 20:29:35</time>
      </trkpt>
      <trkpt lat="41.30444" lon="1.35335">
        <ele>236.8</ele>
        <time>2022-05-20 20:29:36</time>
      </trkpt>
      <trkpt lat="41.30455" lon="1.35338">
        <ele>236.8</ele>
        <time>2022-05-20 20:29:37</time>
      </trkpt>
      <trkpt lat="41.30466" lon="1.3534">
        <ele>236.6</ele>
        <time>2022-05-20 20:29:38</time>
      </trkpt>
      <trkpt lat="41.30477" lon="1.35342">
        <ele>236.4</ele>
        <time>2022-05-20 20:29:39</time>
      </trkpt>
      <trkpt lat="41.30487" lon="1.35344">
        <ele>236.2</ele>
        <time>2022-05-20 20:29:40</time>
      </trkpt>
      <trkpt lat="41.30496" lon="1.35346">
        <ele>236</ele>
        <time>2022-05-20 20:29:41</time>
      </trkpt>
      <trkpt lat="41.30505" lon="1.35348">
        <ele>235.8</ele>
        <time>2022-05-20 20:29:42</time>
      </trkpt>
      <trkpt lat="41.30515" lon="1.3535">
        <ele>235.6</ele>
        <time>2022-05-20 20:29:43</time>
      </trkpt>
      <trkpt lat="41.30523" lon="1.35352">
        <ele>235.4</ele>
        <time>2022-05-20 20:29:44</time>
      </trkpt>
      <trkpt lat="41.30532" lon="1.35355">
        <ele>235.2</ele>
        <time>2022-05-20 20:29:45</time>
      </trkpt>
      <trkpt lat="41.3054" lon="1.3536">
        <ele>235</ele>
        <time>2022-05-20 20:29:46</time>
      </trkpt>
      <trkpt lat="41.30548" lon="1.35363">
        <ele>234.8</ele>
        <time>2022-05-20 20:29:47</time>
      </trkpt>
      <trkpt lat="41.30557" lon="1.35363">
        <ele>234.8</ele>
        <time>2022-05-20 20:29:48</time>
      </trkpt>
      <trkpt lat="41.30565" lon="1.3536">
        <ele>234.6</ele>
        <time>2022-05-20 20:29:49</time>
      </trkpt>
      <trkpt lat="41.30573" lon="1.35356">
        <ele>234.6</ele>
        <time>2022-05-20 20:29:50</time>
      </trkpt>
      <trkpt lat="41.30581" lon="1.35352">
        <ele>234.6</ele>
        <time>2022-05-20 20:29:51</time>
      </trkpt>
      <trkpt lat="41.30589" lon="1.3535">
        <ele>234.6</ele>
        <time>2022-05-20 20:29:52</time>
      </trkpt>
      <trkpt lat="41.30596" lon="1.35348">
        <ele>234.6</ele>
        <time>2022-05-20 20:29:53</time>
      </trkpt>
      <trkpt lat="41.30605" lon="1.35345">
        <ele>234.6</ele>
        <time>2022-05-20 20:29:54</time>
      </trkpt>
      <trkpt lat="41.30613" lon="1.35343">
        <ele>234.4</ele>
        <time>2022-05-20 20:29:55</time>
      </trkpt>
      <trkpt lat="41.30622" lon="1.35341">
        <ele>234.4</ele>
        <time>2022-05-20 20:29:56</time>
      </trkpt>
      <trkpt lat="41.30631" lon="1.35339">
        <ele>234.4</ele>
        <time>2022-05-20 20:29:57</time>
      </trkpt>
      <trkpt lat="41.3064" lon="1.35337">
        <ele>234.4</ele>
        <time>2022-05-20 20:29:58</time>
      </trkpt>
      <trkpt lat="41.30649" lon="1.35334">
        <ele>234.4</ele>
        <time>2022-05-20 20:29:59</time>
      </trkpt>
      <trkpt lat="41.30658" lon="1.35332">
        <ele>234.2</ele>
        <time>2022-05-20 20:30:00</time>
      </trkpt>
      <trkpt lat="41.30666" lon="1.35329">
        <ele>234.4</ele>
        <time>2022-05-20 20:30:01</time>
      </trkpt>
      <trkpt lat="41.30675" lon="1.35327">
        <ele>234.4</ele>
        <time>2022-05-20 20:30:02</time>
      </trkpt>
      <trkpt lat="41.30684" lon="1.35324">
        <ele>234.4</ele>
        <time>2022-05-20 20:30:03</time>
      </trkpt>
      <trkpt lat="41.30692" lon="1.35321">
        <ele>234.4</ele>
        <time>2022-05-20 20:30:04</time>
      </trkpt>
      <trkpt lat="41.30701" lon="1.35319">
        <ele>234.4</ele>
        <time>2022-05-20 20:30:05</time>
      </trkpt>
      <trkpt lat="41.3071" lon="1.35316">
        <ele>234.4</ele>
        <time>2022-05-20 20:30:06</time>
      </trkpt>
      <trkpt lat="41.30719" lon="1.35315">
        <ele>234.4</ele>
        <time>2022-05-20 20:30:07</time>
      </trkpt>
      <trkpt lat="41.30728" lon="1.35313">
        <ele>234.4</ele>
        <time>2022-05-20 20:30:08</time>
      </trkpt>
      <trkpt lat="41.30737" lon="1.35311">
        <ele>234.4</ele>
        <time>2022-05-20 20:30:09</time>
      </trkpt>
      <trkpt lat="41.30746" lon="1.3531">
        <ele>234.6</ele>
        <time>2022-05-20 20:30:10</time>
      </trkpt>
      <trkpt lat="41.30754" lon="1.35308">
        <ele>234.6</ele>
        <time>2022-05-20 20:30:11</time>
      </trkpt>
      <trkpt lat="41.30763" lon="1.35306">
        <ele>234.8</ele>
        <time>2022-05-20 20:30:12</time>
      </trkpt>
      <trkpt lat="41.30771" lon="1.35304">
        <ele>234.8</ele>
        <time>2022-05-20 20:30:13</time>
      </trkpt>
      <trkpt lat="41.30779" lon="1.35302">
        <ele>235</ele>
        <time>2022-05-20 20:30:14</time>
      </trkpt>
      <trkpt lat="41.30787" lon="1.353">
        <ele>235.2</ele>
        <time>2022-05-20 20:30:15</time>
      </trkpt>
      <trkpt lat="41.30795" lon="1.35298">
        <ele>235.4</ele>
        <time>2022-05-20 20:30:16</time>
      </trkpt>
      <trkpt lat="41.30803" lon="1.35296">
        <ele>235.6</ele>
        <time>2022-05-20 20:30:17</time>
      </trkpt>
      <trkpt lat="41.3081" lon="1.35294">
        <ele>235.8</ele>
        <time>2022-05-20 20:30:18</time>
      </trkpt>
      <trkpt lat="41.30818" lon="1.35292">
        <ele>236</ele>
        <time>2022-05-20 20:30:19</time>
      </trkpt>
      <trkpt lat="41.30825" lon="1.3529">
        <ele>236.2</ele>
        <time>2022-05-20 20:30:20</time>
      </trkpt>
      <trkpt lat="41.30833" lon="1.35288">
        <ele>236.4</ele>
        <time>2022-05-20 20:30:21</time>
      </trkpt>
      <trkpt lat="41.3084" lon="1.35286">
        <ele>236.6</ele>
        <time>2022-05-20 20:30:22</time>
      </trkpt>
      <trkpt lat="41.30847" lon="1.35283">
        <ele>236.8</ele>
        <time>2022-05-20 20:30:23</time>
      </trkpt>
      <trkpt lat="41.30854" lon="1.35281">
        <ele>237</ele>
        <time>2022-05-20 20:30:24</time>
      </trkpt>
      <trkpt lat="41.30862" lon="1.35277">
        <ele>237.2</ele>
        <time>2022-05-20 20:30:25</time>
      </trkpt>
      <trkpt lat="41.30869" lon="1.35273">
        <ele>237.4</ele>
        <time>2022-05-20 20:30:26</time>
      </trkpt>
      <trkpt lat="41.30876" lon="1.35269">
        <ele>237.4</ele>
        <time>2022-05-20 20:30:27</time>
      </trkpt>
      <trkpt lat="41.30883" lon="1.35265">
        <ele>237.6</ele>
        <time>2022-05-20 20:30:28</time>
      </trkpt>
      <trkpt lat="41.30889" lon="1.35262">
        <ele>237.8</ele>
        <time>2022-05-20 20:30:29</time>
      </trkpt>
      <trkpt lat="41.30896" lon="1.35258">
        <ele>238</ele>
        <time>2022-05-20 20:30:30</time>
      </trkpt>
      <trkpt lat="41.30902" lon="1.35254">
        <ele>238.2</ele>
        <time>2022-05-20 20:30:31</time>
      </trkpt>
      <trkpt lat="41.30909" lon="1.3525">
        <ele>238.4</ele>
        <time>2022-05-20 20:30:32</time>
      </trkpt>
      <trkpt lat="41.30915" lon="1.35246">
        <ele>238.6</ele>
        <time>2022-05-20 20:30:33</time>
      </trkpt>
      <trkpt lat="41.30922" lon="1.35242">
        <ele>238.8</ele>
        <time>2022-05-20 20:30:34</time>
      </trkpt>
      <trkpt lat="41.30928" lon="1.35238">
        <ele>239</ele>
        <time>2022-05-20 20:30:35</time>
      </trkpt>
      <trkpt lat="41.30935" lon="1.35234">
        <ele>239.2</ele>
        <time>2022-05-20 20:30:36</time>
      </trkpt>
      <trkpt lat="41.30941" lon="1.3523">
        <ele>239.4</ele>
        <time>2022-05-20 20:30:37</time>
      </trkpt>
      <trkpt lat="41.30947" lon="1.35226">
        <ele>239.6</ele>
        <time>2022-05-20 20:30:38</time>
      </trkpt>
      <trkpt lat="41.30954" lon="1.35223">
        <ele>239.8</ele>
        <time>2022-05-20 20:30:39</time>
      </trkpt>
      <trkpt lat="41.3096" lon="1.35219">
        <ele>240</ele>
        <time>2022-05-20 20:30:40</time>
      </trkpt>
      <trkpt lat="41.30966" lon="1.35215">
        <ele>240.2</ele>
        <time>2022-05-20 20:30:41</time>
      </trkpt>
      <trkpt lat="41.30972" lon="1.35212">
        <ele>240.4</ele>
        <time>2022-05-20 20:30:42</time>
      </trkpt>
      <trkpt lat="41.30978" lon="1.35209">
        <ele>240.6</ele>
        <time>2022-05-20 20:30:43</time>
      </trkpt>
      <trkpt lat="41.30985" lon="1.35205">
        <ele>240.8</ele>
        <time>2022-05-20 20:30:44</time>
      </trkpt>
      <trkpt lat="41.30991" lon="1.35201">
        <ele>241</ele>
        <time>2022-05-20 20:30:45</time>
      </trkpt>
      <trkpt lat="41.30997" lon="1.35198">
        <ele>241.2</ele>
        <time>2022-05-20 20:30:46</time>
      </trkpt>
      <trkpt lat="41.31003" lon="1.35194">
        <ele>241.4</ele>
        <time>2022-05-20 20:30:47</time>
      </trkpt>
      <trkpt lat="41.31009" lon="1.35191">
        <ele>241.4</ele>
        <time>2022-05-20 20:30:48</time>
      </trkpt>
      <trkpt lat="41.31016" lon="1.35187">
        <ele>241.6</ele>
        <time>2022-05-20 20:30:49</time>
      </trkpt>
      <trkpt lat="41.31022" lon="1.35185">
        <ele>241.8</ele>
        <time>2022-05-20 20:30:50</time>
      </trkpt>
      <trkpt lat="41.31029" lon="1.35182">
        <ele>242</ele>
        <time>2022-05-20 20:30:51</time>
      </trkpt>
      <trkpt lat="41.31036" lon="1.3518">
        <ele>242.2</ele>
        <time>2022-05-20 20:30:52</time>
      </trkpt>
      <trkpt lat="41.31043" lon="1.35179">
        <ele>242.4</ele>
        <time>2022-05-20 20:30:53</time>
      </trkpt>
      <trkpt lat="41.3105" lon="1.35178">
        <ele>242.4</ele>
        <time>2022-05-20 20:30:54</time>
      </trkpt>
      <trkpt lat="41.31057" lon="1.35178">
        <ele>242.6</ele>
        <time>2022-05-20 20:30:55</time>
      </trkpt>
      <trkpt lat="41.31063" lon="1.35177">
        <ele>242.8</ele>
        <time>2022-05-20 20:30:56</time>
      </trkpt>
      <trkpt lat="41.3107" lon="1.35177">
        <ele>243</ele>
        <time>2022-05-20 20:30:57</time>
      </trkpt>
      <trkpt lat="41.31076" lon="1.35177">
        <ele>243</ele>
        <time>2022-05-20 20:30:58</time>
      </trkpt>
      <trkpt lat="41.31084" lon="1.35177">
        <ele>243.2</ele>
        <time>2022-05-20 20:30:59</time>
      </trkpt>
      <trkpt lat="41.31091" lon="1.35176">
        <ele>243.2</ele>
        <time>2022-05-20 20:31:00</time>
      </trkpt>
      <trkpt lat="41.31099" lon="1.35176">
        <ele>243.2</ele>
        <time>2022-05-20 20:31:01</time>
      </trkpt>
      <trkpt lat="41.31106" lon="1.35176">
        <ele>243.2</ele>
        <time>2022-05-20 20:31:02</time>
      </trkpt>
      <trkpt lat="41.31113" lon="1.35176">
        <ele>243.4</ele>
        <time>2022-05-20 20:31:03</time>
      </trkpt>
      <trkpt lat="41.31121" lon="1.35176">
        <ele>243.4</ele>
        <time>2022-05-20 20:31:04</time>
      </trkpt>
      <trkpt lat="41.31128" lon="1.35176">
        <ele>243.6</ele>
        <time>2022-05-20 20:31:05</time>
      </trkpt>
      <trkpt lat="41.31136" lon="1.35177">
        <ele>243.6</ele>
        <time>2022-05-20 20:31:06</time>
      </trkpt>
      <trkpt lat="41.31143" lon="1.35176">
        <ele>243.8</ele>
        <time>2022-05-20 20:31:07</time>
      </trkpt>
      <trkpt lat="41.3115" lon="1.35176">
        <ele>243.8</ele>
        <time>2022-05-20 20:31:08</time>
      </trkpt>
      <trkpt lat="41.31158" lon="1.35176">
        <ele>243.8</ele>
        <time>2022-05-20 20:31:09</time>
      </trkpt>
      <trkpt lat="41.31165" lon="1.35176">
        <ele>244</ele>
        <time>2022-05-20 20:31:10</time>
      </trkpt>
      <trkpt lat="41.31173" lon="1.35176">
        <ele>244</ele>
        <time>2022-05-20 20:31:11</time>
      </trkpt>
      <trkpt lat="41.31181" lon="1.35176">
        <ele>244.2</ele>
        <time>2022-05-20 20:31:12</time>
      </trkpt>
      <trkpt lat="41.31188" lon="1.35176">
        <ele>244.2</ele>
        <time>2022-05-20 20:31:13</time>
      </trkpt>
      <trkpt lat="41.31195" lon="1.35175">
        <ele>244.4</ele>
        <time>2022-05-20 20:31:14</time>
      </trkpt>
      <trkpt lat="41.31203" lon="1.35175">
        <ele>244.4</ele>
        <time>2022-05-20 20:31:15</time>
      </trkpt>
      <trkpt lat="41.31211" lon="1.35175">
        <ele>244.6</ele>
        <time>2022-05-20 20:31:16</time>
      </trkpt>
      <trkpt lat="41.31218" lon="1.35175">
        <ele>244.6</ele>
        <time>2022-05-20 20:31:17</time>
      </trkpt>
      <trkpt lat="41.31226" lon="1.35175">
        <ele>244.8</ele>
        <time>2022-05-20 20:31:18</time>
      </trkpt>
      <trkpt lat="41.31233" lon="1.35175">
        <ele>244.8</ele>
        <time>2022-05-20 20:31:19</time>
      </trkpt>
      <trkpt lat="41.3124" lon="1.35175">
        <ele>244.8</ele>
        <time>2022-05-20 20:31:20</time>
      </trkpt>
      <trkpt lat="41.31248" lon="1.35175">
        <ele>244.8</ele>
        <time>2022-05-20 20:31:21</time>
      </trkpt>
      <trkpt lat="41.31255" lon="1.35175">
        <ele>245</ele>
        <time>2022-05-20 20:31:22</time>
      </trkpt>
      <trkpt lat="41.31262" lon="1.35175">
        <ele>245</ele>
        <time>2022-05-20 20:31:23</time>
      </trkpt>
      <trkpt lat="41.3127" lon="1.35175">
        <ele>245</ele>
        <time>2022-05-20 20:31:24</time>
      </trkpt>
      <trkpt lat="41.31277" lon="1.35175">
        <ele>245.2</ele>
        <time>2022-05-20 20:31:25</time>
      </trkpt>
      <trkpt lat="41.31284" lon="1.35175">
        <ele>245.2</ele>
        <time>2022-05-20 20:31:26</time>
      </trkpt>
      <trkpt lat="41.31292" lon="1.35175">
        <ele>245.2</ele>
        <time>2022-05-20 20:31:27</time>
      </trkpt>
      <trkpt lat="41.313" lon="1.35175">
        <ele>245.4</ele>
        <time>2022-05-20 20:31:28</time>
      </trkpt>
      <trkpt lat="41.31307" lon="1.35175">
        <ele>245.4</ele>
        <time>2022-05-20 20:31:29</time>
      </trkpt>
      <trkpt lat="41.31315" lon="1.35174">
        <ele>245.4</ele>
        <time>2022-05-20 20:31:30</time>
      </trkpt>
      <trkpt lat="41.31323" lon="1.35174">
        <ele>245.6</ele>
        <time>2022-05-20 20:31:31</time>
      </trkpt>
      <trkpt lat="41.3133" lon="1.35174">
        <ele>245.6</ele>
        <time>2022-05-20 20:31:32</time>
      </trkpt>
      <trkpt lat="41.31338" lon="1.35174">
        <ele>245.6</ele>
        <time>2022-05-20 20:31:33</time>
      </trkpt>
      <trkpt lat="41.31346" lon="1.35174">
        <ele>245.8</ele>
        <time>2022-05-20 20:31:34</time>
      </trkpt>
      <trkpt lat="41.31353" lon="1.35174">
        <ele>245.8</ele>
        <time>2022-05-20 20:31:35</time>
      </trkpt>
      <trkpt lat="41.31362" lon="1.35174">
        <ele>246</ele>
        <time>2022-05-20 20:31:36</time>
      </trkpt>
      <trkpt lat="41.3137" lon="1.35175">
        <ele>246</ele>
        <time>2022-05-20 20:31:37</time>
      </trkpt>
      <trkpt lat="41.31377" lon="1.35175">
        <ele>246</ele>
        <time>2022-05-20 20:31:38</time>
      </trkpt>
      <trkpt lat="41.31385" lon="1.35176">
        <ele>246.2</ele>
        <time>2022-05-20 20:31:39</time>
      </trkpt>
      <trkpt lat="41.31393" lon="1.35177">
        <ele>246.2</ele>
        <time>2022-05-20 20:31:40</time>
      </trkpt>
      <trkpt lat="41.31401" lon="1.35178">
        <ele>246.4</ele>
        <time>2022-05-20 20:31:41</time>
      </trkpt>
      <trkpt lat="41.31409" lon="1.35179">
        <ele>246.4</ele>
        <time>2022-05-20 20:31:42</time>
      </trkpt>
      <trkpt lat="41.31417" lon="1.35181">
        <ele>246.6</ele>
        <time>2022-05-20 20:31:43</time>
      </trkpt>
      <trkpt lat="41.31425" lon="1.35182">
        <ele>246.6</ele>
        <time>2022-05-20 20:31:44</time>
      </trkpt>
      <trkpt lat="41.31433" lon="1.35184">
        <ele>246.8</ele>
        <time>2022-05-20 20:31:45</time>
      </trkpt>
      <trkpt lat="41.31441" lon="1.35185">
        <ele>246.8</ele>
        <time>2022-05-20 20:31:46</time>
      </trkpt>
      <trkpt lat="41.31449" lon="1.35187">
        <ele>247</ele>
        <time>2022-05-20 20:31:47</time>
      </trkpt>
      <trkpt lat="41.31458" lon="1.35188">
        <ele>247</ele>
        <time>2022-05-20 20:31:48</time>
      </trkpt>
      <trkpt lat="41.31466" lon="1.3519">
        <ele>247.2</ele>
        <time>2022-05-20 20:31:49</time>
      </trkpt>
      <trkpt lat="41.31473" lon="1.35191">
        <ele>247.2</ele>
        <time>2022-05-20 20:31:50</time>
      </trkpt>
      <trkpt lat="41.31481" lon="1.35192">
        <ele>247.4</ele>
        <time>2022-05-20 20:31:51</time>
      </trkpt>
      <trkpt lat="41.31489" lon="1.35194">
        <ele>247.4</ele>
        <time>2022-05-20 20:31:52</time>
      </trkpt>
      <trkpt lat="41.31497" lon="1.35195">
        <ele>247.4</ele>
        <time>2022-05-20 20:31:53</time>
      </trkpt>
      <trkpt lat="41.31505" lon="1.35196">
        <ele>247.6</ele>
        <time>2022-05-20 20:31:54</time>
      </trkpt>
      <trkpt lat="41.31512" lon="1.35197">
        <ele>247.6</ele>
        <time>2022-05-20 20:31:55</time>
      </trkpt>
      <trkpt lat="41.3152" lon="1.35197">
        <ele>247.8</ele>
        <time>2022-05-20 20:31:56</time>
      </trkpt>
      <trkpt lat="41.31529" lon="1.35198">
        <ele>247.8</ele>
        <time>2022-05-20 20:31:57</time>
      </trkpt>
      <trkpt lat="41.31537" lon="1.35198">
        <ele>247.8</ele>
        <time>2022-05-20 20:31:58</time>
      </trkpt>
      <trkpt lat="41.31545" lon="1.35198">
        <ele>248</ele>
        <time>2022-05-20 20:31:59</time>
      </trkpt>
      <trkpt lat="41.31553" lon="1.35198">
        <ele>248</ele>
        <time>2022-05-20 20:32:00</time>
      </trkpt>
      <trkpt lat="41.31561" lon="1.35197">
        <ele>248.2</ele>
        <time>2022-05-20 20:32:01</time>
      </trkpt>
      <trkpt lat="41.31569" lon="1.35197">
        <ele>248.2</ele>
        <time>2022-05-20 20:32:02</time>
      </trkpt>
      <trkpt lat="41.31577" lon="1.35196">
        <ele>248.4</ele>
        <time>2022-05-20 20:32:03</time>
      </trkpt>
      <trkpt lat="41.31585" lon="1.35195">
        <ele>248.4</ele>
        <time>2022-05-20 20:32:04</time>
      </trkpt>
      <trkpt lat="41.31593" lon="1.35194">
        <ele>248.6</ele>
        <time>2022-05-20 20:32:05</time>
      </trkpt>
      <trkpt lat="41.31601" lon="1.35193">
        <ele>248.8</ele>
        <time>2022-05-20 20:32:06</time>
      </trkpt>
      <trkpt lat="41.31609" lon="1.35193">
        <ele>248.8</ele>
        <time>2022-05-20 20:32:07</time>
      </trkpt>
      <trkpt lat="41.31617" lon="1.35192">
        <ele>249</ele>
        <time>2022-05-20 20:32:08</time>
      </trkpt>
      <trkpt lat="41.31625" lon="1.35191">
        <ele>249.2</ele>
        <time>2022-05-20 20:32:09</time>
      </trkpt>
      <trkpt lat="41.31633" lon="1.3519">
        <ele>249.4</ele>
        <time>2022-05-20 20:32:10</time>
      </trkpt>
      <trkpt lat="41.3164" lon="1.35189">
        <ele>249.6</ele>
        <time>2022-05-20 20:32:11</time>
      </trkpt>
      <trkpt lat="41.31648" lon="1.35188">
        <ele>249.8</ele>
        <time>2022-05-20 20:32:12</time>
      </trkpt>
      <trkpt lat="41.31656" lon="1.35188">
        <ele>250</ele>
        <time>2022-05-20 20:32:13</time>
      </trkpt>
      <trkpt lat="41.31663" lon="1.35187">
        <ele>250.2</ele>
        <time>2022-05-20 20:32:14</time>
      </trkpt>
      <trkpt lat="41.3167" lon="1.35186">
        <ele>250.4</ele>
        <time>2022-05-20 20:32:15</time>
      </trkpt>
      <trkpt lat="41.31678" lon="1.35186">
        <ele>250.4</ele>
        <time>2022-05-20 20:32:16</time>
      </trkpt>
      <trkpt lat="41.31685" lon="1.35185">
        <ele>250.6</ele>
        <time>2022-05-20 20:32:17</time>
      </trkpt>
      <trkpt lat="41.31692" lon="1.35184">
        <ele>250.8</ele>
        <time>2022-05-20 20:32:18</time>
      </trkpt>
      <trkpt lat="41.31699" lon="1.35183">
        <ele>250.8</ele>
        <time>2022-05-20 20:32:19</time>
      </trkpt>
      <trkpt lat="41.31707" lon="1.35183">
        <ele>251</ele>
        <time>2022-05-20 20:32:20</time>
      </trkpt>
      <trkpt lat="41.31714" lon="1.35182">
        <ele>251.2</ele>
        <time>2022-05-20 20:32:21</time>
      </trkpt>
      <trkpt lat="41.31721" lon="1.35181">
        <ele>251.4</ele>
        <time>2022-05-20 20:32:22</time>
      </trkpt>
      <trkpt lat="41.31729" lon="1.3518">
        <ele>251.6</ele>
        <time>2022-05-20 20:32:23</time>
      </trkpt>
      <trkpt lat="41.31736" lon="1.3518">
        <ele>251.8</ele>
        <time>2022-05-20 20:32:24</time>
      </trkpt>
      <trkpt lat="41.31744" lon="1.35179">
        <ele>251.8</ele>
        <time>2022-05-20 20:32:25</time>
      </trkpt>
      <trkpt lat="41.31751" lon="1.35178">
        <ele>252</ele>
        <time>2022-05-20 20:32:26</time>
      </trkpt>
      <trkpt lat="41.31759" lon="1.35177">
        <ele>252.2</ele>
        <time>2022-05-20 20:32:27</time>
      </trkpt>
      <trkpt lat="41.31767" lon="1.35177">
        <ele>252.4</ele>
        <time>2022-05-20 20:32:28</time>
      </trkpt>
      <trkpt lat="41.31774" lon="1.35176">
        <ele>252.6</ele>
        <time>2022-05-20 20:32:29</time>
      </trkpt>
      <trkpt lat="41.31781" lon="1.35175">
        <ele>252.8</ele>
        <time>2022-05-20 20:32:30</time>
      </trkpt>
      <trkpt lat="41.31789" lon="1.35174">
        <ele>252.8</ele>
        <time>2022-05-20 20:32:31</time>
      </trkpt>
      <trkpt lat="41.31796" lon="1.35174">
        <ele>253</ele>
        <time>2022-05-20 20:32:32</time>
      </trkpt>
      <trkpt lat="41.31803" lon="1.35173">
        <ele>253.2</ele>
        <time>2022-05-20 20:32:33</time>
      </trkpt>
      <trkpt lat="41.31811" lon="1.35172">
        <ele>253.4</ele>
        <time>2022-05-20 20:32:34</time>
      </trkpt>
      <trkpt lat="41.31818" lon="1.35172">
        <ele>253.6</ele>
        <time>2022-05-20 20:32:35</time>
      </trkpt>
      <trkpt lat="41.31826" lon="1.35171">
        <ele>253.6</ele>
        <time>2022-05-20 20:32:36</time>
      </trkpt>
      <trkpt lat="41.31834" lon="1.3517">
        <ele>253.8</ele>
        <time>2022-05-20 20:32:37</time>
      </trkpt>
      <trkpt lat="41.31841" lon="1.35169">
        <ele>254</ele>
        <time>2022-05-20 20:32:38</time>
      </trkpt>
      <trkpt lat="41.31849" lon="1.35168">
        <ele>254.2</ele>
        <time>2022-05-20 20:32:39</time>
      </trkpt>
      <trkpt lat="41.31856" lon="1.35168">
        <ele>254.2</ele>
        <time>2022-05-20 20:32:40</time>
      </trkpt>
      <trkpt lat="41.31864" lon="1.35167">
        <ele>254.4</ele>
        <time>2022-05-20 20:32:41</time>
      </trkpt>
      <trkpt lat="41.31871" lon="1.35166">
        <ele>254.6</ele>
        <time>2022-05-20 20:32:42</time>
      </trkpt>
      <trkpt lat="41.31879" lon="1.35165">
        <ele>254.6</ele>
        <time>2022-05-20 20:32:43</time>
      </trkpt>
      <trkpt lat="41.31886" lon="1.35164">
        <ele>254.8</ele>
        <time>2022-05-20 20:32:44</time>
      </trkpt>
      <trkpt lat="41.31893" lon="1.35164">
        <ele>255</ele>
        <time>2022-05-20 20:32:45</time>
      </trkpt>
      <trkpt lat="41.319" lon="1.35163">
        <ele>255</ele>
        <time>2022-05-20 20:32:46</time>
      </trkpt>
      <trkpt lat="41.31908" lon="1.35162">
        <ele>255.2</ele>
        <time>2022-05-20 20:32:47</time>
      </trkpt>
      <trkpt lat="41.31915" lon="1.35162">
        <ele>255.4</ele>
        <time>2022-05-20 20:32:48</time>
      </trkpt>
      <trkpt lat="41.31922" lon="1.35161">
        <ele>255.6</ele>
        <time>2022-05-20 20:32:49</time>
      </trkpt>
      <trkpt lat="41.31929" lon="1.3516">
        <ele>255.8</ele>
        <time>2022-05-20 20:32:50</time>
      </trkpt>
      <trkpt lat="41.31936" lon="1.3516">
        <ele>255.8</ele>
        <time>2022-05-20 20:32:51</time>
      </trkpt>
      <trkpt lat="41.31944" lon="1.35159">
        <ele>256</ele>
        <time>2022-05-20 20:32:52</time>
      </trkpt>
      <trkpt lat="41.31951" lon="1.35158">
        <ele>256.2</ele>
        <time>2022-05-20 20:32:53</time>
      </trkpt>
      <trkpt lat="41.31958" lon="1.35157">
        <ele>256.2</ele>
        <time>2022-05-20 20:32:54</time>
      </trkpt>
      <trkpt lat="41.31965" lon="1.35156">
        <ele>256.4</ele>
        <time>2022-05-20 20:32:55</time>
      </trkpt>
      <trkpt lat="41.31973" lon="1.35156">
        <ele>256.6</ele>
        <time>2022-05-20 20:32:56</time>
      </trkpt>
      <trkpt lat="41.3198" lon="1.35155">
        <ele>256.8</ele>
        <time>2022-05-20 20:32:57</time>
      </trkpt>
      <trkpt lat="41.31987" lon="1.35154">
        <ele>257</ele>
        <time>2022-05-20 20:32:58</time>
      </trkpt>
      <trkpt lat="41.31995" lon="1.35154">
        <ele>257.2</ele>
        <time>2022-05-20 20:32:59</time>
      </trkpt>
      <trkpt lat="41.32002" lon="1.35153">
        <ele>257.4</ele>
        <time>2022-05-20 20:33:00</time>
      </trkpt>
      <trkpt lat="41.32009" lon="1.35152">
        <ele>257.6</ele>
        <time>2022-05-20 20:33:01</time>
      </trkpt>
      <trkpt lat="41.32016" lon="1.35151">
        <ele>257.8</ele>
        <time>2022-05-20 20:33:02</time>
      </trkpt>
      <trkpt lat="41.32024" lon="1.3515">
        <ele>258</ele>
        <time>2022-05-20 20:33:03</time>
      </trkpt>
      <trkpt lat="41.32031" lon="1.3515">
        <ele>258.2</ele>
        <time>2022-05-20 20:33:04</time>
      </trkpt>
      <trkpt lat="41.32038" lon="1.35149">
        <ele>258.4</ele>
        <time>2022-05-20 20:33:05</time>
      </trkpt>
      <trkpt lat="41.32046" lon="1.35148">
        <ele>258.6</ele>
        <time>2022-05-20 20:33:06</time>
      </trkpt>
      <trkpt lat="41.32054" lon="1.35147">
        <ele>258.8</ele>
        <time>2022-05-20 20:33:07</time>
      </trkpt>
      <trkpt lat="41.32061" lon="1.35147">
        <ele>259</ele>
        <time>2022-05-20 20:33:08</time>
      </trkpt>
      <trkpt lat="41.32069" lon="1.35146">
        <ele>259.2</ele>
        <time>2022-05-20 20:33:09</time>
      </trkpt>
      <trkpt lat="41.32076" lon="1.35145">
        <ele>259.4</ele>
        <time>2022-05-20 20:33:10</time>
      </trkpt>
      <trkpt lat="41.32083" lon="1.35144">
        <ele>259.6</ele>
        <time>2022-05-20 20:33:11</time>
      </trkpt>
      <trkpt lat="41.32091" lon="1.35143">
        <ele>259.8</ele>
        <time>2022-05-20 20:33:12</time>
      </trkpt>
      <trkpt lat="41.32098" lon="1.35143">
        <ele>259.8</ele>
        <time>2022-05-20 20:33:13</time>
      </trkpt>
      <trkpt lat="41.32105" lon="1.35142">
        <ele>260</ele>
        <time>2022-05-20 20:33:14</time>
      </trkpt>
      <trkpt lat="41.32113" lon="1.35141">
        <ele>260.2</ele>
        <time>2022-05-20 20:33:15</time>
      </trkpt>
      <trkpt lat="41.3212" lon="1.3514">
        <ele>260.4</ele>
        <time>2022-05-20 20:33:16</time>
      </trkpt>
      <trkpt lat="41.32128" lon="1.3514">
        <ele>260.6</ele>
        <time>2022-05-20 20:33:17</time>
      </trkpt>
      <trkpt lat="41.32135" lon="1.35139">
        <ele>260.8</ele>
        <time>2022-05-20 20:33:18</time>
      </trkpt>
      <trkpt lat="41.32143" lon="1.35139">
        <ele>261</ele>
        <time>2022-05-20 20:33:19</time>
      </trkpt>
      <trkpt lat="41.32151" lon="1.35139">
        <ele>261.2</ele>
        <time>2022-05-20 20:33:20</time>
      </trkpt>
      <trkpt lat="41.32159" lon="1.35139">
        <ele>261.2</ele>
        <time>2022-05-20 20:33:21</time>
      </trkpt>
      <trkpt lat="41.32166" lon="1.3514">
        <ele>261.4</ele>
        <time>2022-05-20 20:33:22</time>
      </trkpt>
      <trkpt lat="41.32174" lon="1.35142">
        <ele>261.6</ele>
        <time>2022-05-20 20:33:23</time>
      </trkpt>
      <trkpt lat="41.32181" lon="1.35144">
        <ele>261.8</ele>
        <time>2022-05-20 20:33:24</time>
      </trkpt>
      <trkpt lat="41.32188" lon="1.35147">
        <ele>262</ele>
        <time>2022-05-20 20:33:25</time>
      </trkpt>
      <trkpt lat="41.32195" lon="1.3515">
        <ele>262</ele>
        <time>2022-05-20 20:33:26</time>
      </trkpt>
      <trkpt lat="41.32203" lon="1.35153">
        <ele>262.2</ele>
        <time>2022-05-20 20:33:27</time>
      </trkpt>
      <trkpt lat="41.32211" lon="1.35156">
        <ele>262.4</ele>
        <time>2022-05-20 20:33:28</time>
      </trkpt>
      <trkpt lat="41.32218" lon="1.35159">
        <ele>262.6</ele>
        <time>2022-05-20 20:33:29</time>
      </trkpt>
      <trkpt lat="41.32225" lon="1.35162">
        <ele>262.6</ele>
        <time>2022-05-20 20:33:30</time>
      </trkpt>
      <trkpt lat="41.32233" lon="1.35166">
        <ele>262.6</ele>
        <time>2022-05-20 20:33:31</time>
      </trkpt>
      <trkpt lat="41.3224" lon="1.35169">
        <ele>262.8</ele>
        <time>2022-05-20 20:33:32</time>
      </trkpt>
      <trkpt lat="41.32248" lon="1.35173">
        <ele>263</ele>
        <time>2022-05-20 20:33:33</time>
      </trkpt>
      <trkpt lat="41.32255" lon="1.35176">
        <ele>263</ele>
        <time>2022-05-20 20:33:34</time>
      </trkpt>
      <trkpt lat="41.32263" lon="1.35179">
        <ele>263.2</ele>
        <time>2022-05-20 20:33:35</time>
      </trkpt>
      <trkpt lat="41.3227" lon="1.35182">
        <ele>263.4</ele>
        <time>2022-05-20 20:33:36</time>
      </trkpt>
      <trkpt lat="41.32277" lon="1.35185">
        <ele>263.4</ele>
        <time>2022-05-20 20:33:37</time>
      </trkpt>
      <trkpt lat="41.32285" lon="1.35188">
        <ele>263.6</ele>
        <time>2022-05-20 20:33:38</time>
      </trkpt>
      <trkpt lat="41.32292" lon="1.35191">
        <ele>263.8</ele>
        <time>2022-05-20 20:33:39</time>
      </trkpt>
      <trkpt lat="41.323" lon="1.35192">
        <ele>263.8</ele>
        <time>2022-05-20 20:33:40</time>
      </trkpt>
      <trkpt lat="41.32307" lon="1.35192">
        <ele>264</ele>
        <time>2022-05-20 20:33:41</time>
      </trkpt>
      <trkpt lat="41.32315" lon="1.35192">
        <ele>264.2</ele>
        <time>2022-05-20 20:33:42</time>
      </trkpt>
      <trkpt lat="41.32323" lon="1.35192">
        <ele>264.2</ele>
        <time>2022-05-20 20:33:43</time>
      </trkpt>
      <trkpt lat="41.32331" lon="1.35191">
        <ele>264.4</ele>
        <time>2022-05-20 20:33:44</time>
      </trkpt>
      <trkpt lat="41.32339" lon="1.35191">
        <ele>264.4</ele>
        <time>2022-05-20 20:33:45</time>
      </trkpt>
      <trkpt lat="41.32347" lon="1.35191">
        <ele>264.6</ele>
        <time>2022-05-20 20:33:46</time>
      </trkpt>
      <trkpt lat="41.32356" lon="1.35191">
        <ele>264.8</ele>
        <time>2022-05-20 20:33:47</time>
      </trkpt>
      <trkpt lat="41.32364" lon="1.35191">
        <ele>265</ele>
        <time>2022-05-20 20:33:48</time>
      </trkpt>
      <trkpt lat="41.32372" lon="1.35192">
        <ele>265</ele>
        <time>2022-05-20 20:33:49</time>
      </trkpt>
      <trkpt lat="41.3238" lon="1.35192">
        <ele>265</ele>
        <time>2022-05-20 20:33:50</time>
      </trkpt>
      <trkpt lat="41.32389" lon="1.35193">
        <ele>265.2</ele>
        <time>2022-05-20 20:33:51</time>
      </trkpt>
      <trkpt lat="41.32397" lon="1.35194">
        <ele>265.2</ele>
        <time>2022-05-20 20:33:52</time>
      </trkpt>
      <trkpt lat="41.32405" lon="1.35196">
        <ele>265.4</ele>
        <time>2022-05-20 20:33:53</time>
      </trkpt>
      <trkpt lat="41.32413" lon="1.35197">
        <ele>265.6</ele>
        <time>2022-05-20 20:33:54</time>
      </trkpt>
      <trkpt lat="41.32421" lon="1.35199">
        <ele>265.6</ele>
        <time>2022-05-20 20:33:55</time>
      </trkpt>
      <trkpt lat="41.3243" lon="1.35201">
        <ele>265.6</ele>
        <time>2022-05-20 20:33:56</time>
      </trkpt>
      <trkpt lat="41.32438" lon="1.35202">
        <ele>265.8</ele>
        <time>2022-05-20 20:33:57</time>
      </trkpt>
      <trkpt lat="41.32446" lon="1.35204">
        <ele>265.8</ele>
        <time>2022-05-20 20:33:58</time>
      </trkpt>
      <trkpt lat="41.32454" lon="1.35206">
        <ele>266</ele>
        <time>2022-05-20 20:33:59</time>
      </trkpt>
      <trkpt lat="41.32463" lon="1.35208">
        <ele>266.2</ele>
        <time>2022-05-20 20:34:00</time>
      </trkpt>
      <trkpt lat="41.32471" lon="1.3521">
        <ele>266.2</ele>
        <time>2022-05-20 20:34:01</time>
      </trkpt>
      <trkpt lat="41.32479" lon="1.35212">
        <ele>266.4</ele>
        <time>2022-05-20 20:34:02</time>
      </trkpt>
      <trkpt lat="41.32487" lon="1.35213">
        <ele>266.4</ele>
        <time>2022-05-20 20:34:03</time>
      </trkpt>
      <trkpt lat="41.32495" lon="1.35215">
        <ele>266.6</ele>
        <time>2022-05-20 20:34:04</time>
      </trkpt>
      <trkpt lat="41.32504" lon="1.35217">
        <ele>266.6</ele>
        <time>2022-05-20 20:34:05</time>
      </trkpt>
      <trkpt lat="41.32512" lon="1.35219">
        <ele>266.8</ele>
        <time>2022-05-20 20:34:06</time>
      </trkpt>
      <trkpt lat="41.3252" lon="1.35221">
        <ele>266.8</ele>
        <time>2022-05-20 20:34:07</time>
      </trkpt>
      <trkpt lat="41.32528" lon="1.35222">
        <ele>267</ele>
        <time>2022-05-20 20:34:08</time>
      </trkpt>
      <trkpt lat="41.32536" lon="1.35224">
        <ele>267</ele>
        <time>2022-05-20 20:34:09</time>
      </trkpt>
      <trkpt lat="41.32544" lon="1.35226">
        <ele>267.2</ele>
        <time>2022-05-20 20:34:10</time>
      </trkpt>
      <trkpt lat="41.32552" lon="1.35228">
        <ele>267.4</ele>
        <time>2022-05-20 20:34:11</time>
      </trkpt>
      <trkpt lat="41.3256" lon="1.35229">
        <ele>267.4</ele>
        <time>2022-05-20 20:34:12</time>
      </trkpt>
      <trkpt lat="41.32568" lon="1.35231">
        <ele>267.6</ele>
        <time>2022-05-20 20:34:13</time>
      </trkpt>
      <trkpt lat="41.32576" lon="1.35233">
        <ele>267.6</ele>
        <time>2022-05-20 20:34:14</time>
      </trkpt>
      <trkpt lat="41.32584" lon="1.35234">
        <ele>267.8</ele>
        <time>2022-05-20 20:34:15</time>
      </trkpt>
      <trkpt lat="41.32591" lon="1.35236">
        <ele>267.8</ele>
        <time>2022-05-20 20:34:16</time>
      </trkpt>
      <trkpt lat="41.32599" lon="1.35238">
        <ele>268</ele>
        <time>2022-05-20 20:34:17</time>
      </trkpt>
      <trkpt lat="41.32608" lon="1.3524">
        <ele>268</ele>
        <time>2022-05-20 20:34:18</time>
      </trkpt>
      <trkpt lat="41.32616" lon="1.35241">
        <ele>268.2</ele>
        <time>2022-05-20 20:34:19</time>
      </trkpt>
      <trkpt lat="41.32623" lon="1.35243">
        <ele>268.2</ele>
        <time>2022-05-20 20:34:20</time>
      </trkpt>
      <trkpt lat="41.32631" lon="1.35245">
        <ele>268.4</ele>
        <time>2022-05-20 20:34:21</time>
      </trkpt>
      <trkpt lat="41.32639" lon="1.35247">
        <ele>268.4</ele>
        <time>2022-05-20 20:34:22</time>
      </trkpt>
      <trkpt lat="41.32647" lon="1.35248">
        <ele>268.6</ele>
        <time>2022-05-20 20:34:23</time>
      </trkpt>
      <trkpt lat="41.32655" lon="1.3525">
        <ele>268.6</ele>
        <time>2022-05-20 20:34:24</time>
      </trkpt>
      <trkpt lat="41.32663" lon="1.35252">
        <ele>268.6</ele>
        <time>2022-05-20 20:34:25</time>
      </trkpt>
      <trkpt lat="41.32672" lon="1.35253">
        <ele>268.8</ele>
        <time>2022-05-20 20:34:26</time>
      </trkpt>
      <trkpt lat="41.3268" lon="1.35255">
        <ele>268.8</ele>
        <time>2022-05-20 20:34:27</time>
      </trkpt>
      <trkpt lat="41.32688" lon="1.35257">
        <ele>269</ele>
        <time>2022-05-20 20:34:28</time>
      </trkpt>
      <trkpt lat="41.32697" lon="1.35259">
        <ele>269</ele>
        <time>2022-05-20 20:34:29</time>
      </trkpt>
      <trkpt lat="41.32705" lon="1.3526">
        <ele>269.2</ele>
        <time>2022-05-20 20:34:30</time>
      </trkpt>
      <trkpt lat="41.32713" lon="1.35262">
        <ele>269.2</ele>
        <time>2022-05-20 20:34:31</time>
      </trkpt>
      <trkpt lat="41.32721" lon="1.35264">
        <ele>269.2</ele>
        <time>2022-05-20 20:34:32</time>
      </trkpt>
      <trkpt lat="41.32729" lon="1.35265">
        <ele>269.4</ele>
        <time>2022-05-20 20:34:33</time>
      </trkpt>
      <trkpt lat="41.32738" lon="1.35267">
        <ele>269.4</ele>
        <time>2022-05-20 20:34:34</time>
      </trkpt>
      <trkpt lat="41.32746" lon="1.35269">
        <ele>269.6</ele>
        <time>2022-05-20 20:34:35</time>
      </trkpt>
      <trkpt lat="41.32754" lon="1.3527">
        <ele>269.8</ele>
        <time>2022-05-20 20:34:36</time>
      </trkpt>
      <trkpt lat="41.32763" lon="1.35272">
        <ele>269.8</ele>
        <time>2022-05-20 20:34:37</time>
      </trkpt>
      <trkpt lat="41.32771" lon="1.35274">
        <ele>270</ele>
        <time>2022-05-20 20:34:38</time>
      </trkpt>
      <trkpt lat="41.32778" lon="1.35275">
        <ele>270</ele>
        <time>2022-05-20 20:34:39</time>
      </trkpt>
      <trkpt lat="41.32784" lon="1.35276">
        <ele>270.2</ele>
        <time>2022-05-20 20:34:40</time>
      </trkpt>
      <trkpt lat="41.32791" lon="1.35277">
        <ele>270.4</ele>
        <time>2022-05-20 20:34:41</time>
      </trkpt>
      <trkpt lat="41.32799" lon="1.35279">
        <ele>270.4</ele>
        <time>2022-05-20 20:34:42</time>
      </trkpt>
      <trkpt lat="41.32807" lon="1.35281">
        <ele>270.6</ele>
        <time>2022-05-20 20:34:43</time>
      </trkpt>
      <trkpt lat="41.32816" lon="1.35283">
        <ele>270.6</ele>
        <time>2022-05-20 20:34:44</time>
      </trkpt>
      <trkpt lat="41.32824" lon="1.35284">
        <ele>270.8</ele>
        <time>2022-05-20 20:34:45</time>
      </trkpt>
      <trkpt lat="41.32832" lon="1.35286">
        <ele>271</ele>
        <time>2022-05-20 20:34:46</time>
      </trkpt>
      <trkpt lat="41.3284" lon="1.35289">
        <ele>271</ele>
        <time>2022-05-20 20:34:47</time>
      </trkpt>
      <trkpt lat="41.32848" lon="1.35292">
        <ele>271.2</ele>
        <time>2022-05-20 20:34:48</time>
      </trkpt>
      <trkpt lat="41.32856" lon="1.35297">
        <ele>271.2</ele>
        <time>2022-05-20 20:34:49</time>
      </trkpt>
      <trkpt lat="41.32864" lon="1.35301">
        <ele>271.4</ele>
        <time>2022-05-20 20:34:50</time>
      </trkpt>
      <trkpt lat="41.32871" lon="1.35305">
        <ele>271.4</ele>
        <time>2022-05-20 20:34:51</time>
      </trkpt>
      <trkpt lat="41.32879" lon="1.3531">
        <ele>271.4</ele>
        <time>2022-05-20 20:34:52</time>
      </trkpt>
      <trkpt lat="41.32887" lon="1.35316">
        <ele>271.6</ele>
        <time>2022-05-20 20:34:53</time>
      </trkpt>
      <trkpt lat="41.32893" lon="1.35321">
        <ele>271.6</ele>
        <time>2022-05-20 20:34:54</time>
      </trkpt>
      <trkpt lat="41.32901" lon="1.35326">
        <ele>271.8</ele>
        <time>2022-05-20 20:34:55</time>
      </trkpt>
      <trkpt lat="41.32909" lon="1.35332">
        <ele>271.8</ele>
        <time>2022-05-20 20:34:56</time>
      </trkpt>
      <trkpt lat="41.32916" lon="1.35337">
        <ele>272</ele>
        <time>2022-05-20 20:34:57</time>
      </trkpt>
      <trkpt lat="41.32924" lon="1.35341">
        <ele>272</ele>
        <time>2022-05-20 20:34:58</time>
      </trkpt>
      <trkpt lat="41.32932" lon="1.35345">
        <ele>272.2</ele>
        <time>2022-05-20 20:34:59</time>
      </trkpt>
      <trkpt lat="41.3294" lon="1.35349">
        <ele>272.2</ele>
        <time>2022-05-20 20:35:00</time>
      </trkpt>
      <trkpt lat="41.32947" lon="1.35353">
        <ele>272.4</ele>
        <time>2022-05-20 20:35:01</time>
      </trkpt>
      <trkpt lat="41.32955" lon="1.35356">
        <ele>272.6</ele>
        <time>2022-05-20 20:35:02</time>
      </trkpt>
      <trkpt lat="41.32963" lon="1.3536">
        <ele>272.6</ele>
        <time>2022-05-20 20:35:03</time>
      </trkpt>
      <trkpt lat="41.32971" lon="1.35362">
        <ele>272.8</ele>
        <time>2022-05-20 20:35:04</time>
      </trkpt>
      <trkpt lat="41.32978" lon="1.35365">
        <ele>273</ele>
        <time>2022-05-20 20:35:05</time>
      </trkpt>
      <trkpt lat="41.32986" lon="1.35367">
        <ele>273</ele>
        <time>2022-05-20 20:35:06</time>
      </trkpt>
      <trkpt lat="41.32994" lon="1.3537">
        <ele>273</ele>
        <time>2022-05-20 20:35:07</time>
      </trkpt>
      <trkpt lat="41.33002" lon="1.35372">
        <ele>273.2</ele>
        <time>2022-05-20 20:35:08</time>
      </trkpt>
      <trkpt lat="41.3301" lon="1.35375">
        <ele>273.2</ele>
        <time>2022-05-20 20:35:09</time>
      </trkpt>
      <trkpt lat="41.33018" lon="1.35377">
        <ele>273.4</ele>
        <time>2022-05-20 20:35:10</time>
      </trkpt>
      <trkpt lat="41.33026" lon="1.3538">
        <ele>273.4</ele>
        <time>2022-05-20 20:35:11</time>
      </trkpt>
      <trkpt lat="41.33034" lon="1.35382">
        <ele>273.6</ele>
        <time>2022-05-20 20:35:12</time>
      </trkpt>
      <trkpt lat="41.33042" lon="1.35385">
        <ele>273.6</ele>
        <time>2022-05-20 20:35:13</time>
      </trkpt>
      <trkpt lat="41.3305" lon="1.35388">
        <ele>273.8</ele>
        <time>2022-05-20 20:35:14</time>
      </trkpt>
      <trkpt lat="41.33058" lon="1.35391">
        <ele>273.8</ele>
        <time>2022-05-20 20:35:15</time>
      </trkpt>
      <trkpt lat="41.33066" lon="1.35394">
        <ele>274</ele>
        <time>2022-05-20 20:35:16</time>
      </trkpt>
      <trkpt lat="41.33075" lon="1.35397">
        <ele>274</ele>
        <time>2022-05-20 20:35:17</time>
      </trkpt>
      <trkpt lat="41.33082" lon="1.354">
        <ele>274.2</ele>
        <time>2022-05-20 20:35:18</time>
      </trkpt>
      <trkpt lat="41.3309" lon="1.35403">
        <ele>274.2</ele>
        <time>2022-05-20 20:35:19</time>
      </trkpt>
      <trkpt lat="41.33098" lon="1.35407">
        <ele>274.4</ele>
        <time>2022-05-20 20:35:20</time>
      </trkpt>
      <trkpt lat="41.33105" lon="1.35411">
        <ele>274.4</ele>
        <time>2022-05-20 20:35:21</time>
      </trkpt>
      <trkpt lat="41.33113" lon="1.35415">
        <ele>274.6</ele>
        <time>2022-05-20 20:35:22</time>
      </trkpt>
      <trkpt lat="41.33121" lon="1.3542">
        <ele>274.6</ele>
        <time>2022-05-20 20:35:23</time>
      </trkpt>
      <trkpt lat="41.33129" lon="1.35424">
        <ele>274.4</ele>
        <time>2022-05-20 20:35:24</time>
      </trkpt>
      <trkpt lat="41.33137" lon="1.35429">
        <ele>274.4</ele>
        <time>2022-05-20 20:35:25</time>
      </trkpt>
      <trkpt lat="41.33145" lon="1.35433">
        <ele>274.4</ele>
        <time>2022-05-20 20:35:26</time>
      </trkpt>
      <trkpt lat="41.33153" lon="1.35437">
        <ele>274.2</ele>
        <time>2022-05-20 20:35:27</time>
      </trkpt>
      <trkpt lat="41.33163" lon="1.35441">
        <ele>274.2</ele>
        <time>2022-05-20 20:35:28</time>
      </trkpt>
      <trkpt lat="41.33173" lon="1.35445">
        <ele>274</ele>
        <time>2022-05-20 20:35:29</time>
      </trkpt>
      <trkpt lat="41.33182" lon="1.35448">
        <ele>274</ele>
        <time>2022-05-20 20:35:30</time>
      </trkpt>
      <trkpt lat="41.33191" lon="1.3545">
        <ele>273.8</ele>
        <time>2022-05-20 20:35:31</time>
      </trkpt>
      <trkpt lat="41.33201" lon="1.35453">
        <ele>273.6</ele>
        <time>2022-05-20 20:35:32</time>
      </trkpt>
      <trkpt lat="41.33211" lon="1.35455">
        <ele>273.4</ele>
        <time>2022-05-20 20:35:33</time>
      </trkpt>
      <trkpt lat="41.3322" lon="1.35456">
        <ele>273.4</ele>
        <time>2022-05-20 20:35:34</time>
      </trkpt>
      <trkpt lat="41.3323" lon="1.35458">
        <ele>273.2</ele>
        <time>2022-05-20 20:35:35</time>
      </trkpt>
      <trkpt lat="41.33239" lon="1.3546">
        <ele>273</ele>
        <time>2022-05-20 20:35:36</time>
      </trkpt>
      <trkpt lat="41.33248" lon="1.35462">
        <ele>273</ele>
        <time>2022-05-20 20:35:37</time>
      </trkpt>
      <trkpt lat="41.33257" lon="1.35464">
        <ele>272.8</ele>
        <time>2022-05-20 20:35:38</time>
      </trkpt>
      <trkpt lat="41.33266" lon="1.35466">
        <ele>272.8</ele>
        <time>2022-05-20 20:35:39</time>
      </trkpt>
      <trkpt lat="41.33276" lon="1.3547">
        <ele>272.6</ele>
        <time>2022-05-20 20:35:40</time>
      </trkpt>
      <trkpt lat="41.33285" lon="1.35473">
        <ele>272.6</ele>
        <time>2022-05-20 20:35:41</time>
      </trkpt>
      <trkpt lat="41.33294" lon="1.35477">
        <ele>272.4</ele>
        <time>2022-05-20 20:35:42</time>
      </trkpt>
      <trkpt lat="41.33303" lon="1.35481">
        <ele>272.4</ele>
        <time>2022-05-20 20:35:43</time>
      </trkpt>
      <trkpt lat="41.33313" lon="1.35486">
        <ele>272.4</ele>
        <time>2022-05-20 20:35:44</time>
      </trkpt>
      <trkpt lat="41.33321" lon="1.35491">
        <ele>272.2</ele>
        <time>2022-05-20 20:35:45</time>
      </trkpt>
      <trkpt lat="41.33331" lon="1.35495">
        <ele>272</ele>
        <time>2022-05-20 20:35:46</time>
      </trkpt>
      <trkpt lat="41.3334" lon="1.355">
        <ele>271.8</ele>
        <time>2022-05-20 20:35:47</time>
      </trkpt>
      <trkpt lat="41.33349" lon="1.35504">
        <ele>271.8</ele>
        <time>2022-05-20 20:35:48</time>
      </trkpt>
      <trkpt lat="41.33358" lon="1.35508">
        <ele>271.6</ele>
        <time>2022-05-20 20:35:49</time>
      </trkpt>
      <trkpt lat="41.33368" lon="1.35512">
        <ele>271.4</ele>
        <time>2022-05-20 20:35:50</time>
      </trkpt>
      <trkpt lat="41.33377" lon="1.35517">
        <ele>271.2</ele>
        <time>2022-05-20 20:35:51</time>
      </trkpt>
      <trkpt lat="41.33386" lon="1.35522">
        <ele>271.2</ele>
        <time>2022-05-20 20:35:52</time>
      </trkpt>
      <trkpt lat="41.33395" lon="1.35527">
        <ele>271</ele>
        <time>2022-05-20 20:35:53</time>
      </trkpt>
      <trkpt lat="41.33403" lon="1.35532">
        <ele>270.8</ele>
        <time>2022-05-20 20:35:54</time>
      </trkpt>
      <trkpt lat="41.33412" lon="1.35536">
        <ele>270.8</ele>
        <time>2022-05-20 20:35:55</time>
      </trkpt>
      <trkpt lat="41.33421" lon="1.35542">
        <ele>270.6</ele>
        <time>2022-05-20 20:35:56</time>
      </trkpt>
      <trkpt lat="41.3343" lon="1.35547">
        <ele>270.4</ele>
        <time>2022-05-20 20:35:57</time>
      </trkpt>
      <trkpt lat="41.33439" lon="1.35552">
        <ele>270.2</ele>
        <time>2022-05-20 20:35:58</time>
      </trkpt>
      <trkpt lat="41.33448" lon="1.35556">
        <ele>270</ele>
        <time>2022-05-20 20:35:59</time>
      </trkpt>
      <trkpt lat="41.33458" lon="1.3556">
        <ele>270</ele>
        <time>2022-05-20 20:36:00</time>
      </trkpt>
      <trkpt lat="41.33467" lon="1.35565">
        <ele>269.8</ele>
        <time>2022-05-20 20:36:01</time>
      </trkpt>
      <trkpt lat="41.33477" lon="1.3557">
        <ele>269.6</ele>
        <time>2022-05-20 20:36:02</time>
      </trkpt>
      <trkpt lat="41.33486" lon="1.35574">
        <ele>269.6</ele>
        <time>2022-05-20 20:36:03</time>
      </trkpt>
      <trkpt lat="41.33496" lon="1.3558">
        <ele>269.4</ele>
        <time>2022-05-20 20:36:04</time>
      </trkpt>
      <trkpt lat="41.33504" lon="1.35585">
        <ele>269.4</ele>
        <time>2022-05-20 20:36:05</time>
      </trkpt>
      <trkpt lat="41.33514" lon="1.3559">
        <ele>269.2</ele>
        <time>2022-05-20 20:36:06</time>
      </trkpt>
      <trkpt lat="41.33523" lon="1.35595">
        <ele>269.2</ele>
        <time>2022-05-20 20:36:07</time>
      </trkpt>
      <trkpt lat="41.33532" lon="1.356">
        <ele>269</ele>
        <time>2022-05-20 20:36:08</time>
      </trkpt>
      <trkpt lat="41.33542" lon="1.35605">
        <ele>268.8</ele>
        <time>2022-05-20 20:36:09</time>
      </trkpt>
      <trkpt lat="41.33551" lon="1.3561">
        <ele>268.8</ele>
        <time>2022-05-20 20:36:10</time>
      </trkpt>
      <trkpt lat="41.3356" lon="1.35615">
        <ele>268.8</ele>
        <time>2022-05-20 20:36:11</time>
      </trkpt>
      <trkpt lat="41.33569" lon="1.3562">
        <ele>268.6</ele>
        <time>2022-05-20 20:36:12</time>
      </trkpt>
      <trkpt lat="41.33578" lon="1.35624">
        <ele>268.6</ele>
        <time>2022-05-20 20:36:13</time>
      </trkpt>
      <trkpt lat="41.33588" lon="1.35629">
        <ele>268.4</ele>
        <time>2022-05-20 20:36:14</time>
      </trkpt>
      <trkpt lat="41.33598" lon="1.35633">
        <ele>268.2</ele>
        <time>2022-05-20 20:36:15</time>
      </trkpt>
      <trkpt lat="41.33607" lon="1.35639">
        <ele>268.2</ele>
        <time>2022-05-20 20:36:16</time>
      </trkpt>
      <trkpt lat="41.33617" lon="1.35643">
        <ele>268</ele>
        <time>2022-05-20 20:36:17</time>
      </trkpt>
      <trkpt lat="41.33627" lon="1.35648">
        <ele>267.8</ele>
        <time>2022-05-20 20:36:18</time>
      </trkpt>
      <trkpt lat="41.33637" lon="1.35653">
        <ele>267.6</ele>
        <time>2022-05-20 20:36:19</time>
      </trkpt>
      <trkpt lat="41.33647" lon="1.35657">
        <ele>267.6</ele>
        <time>2022-05-20 20:36:20</time>
      </trkpt>
      <trkpt lat="41.33657" lon="1.35661">
        <ele>267.6</ele>
        <time>2022-05-20 20:36:21</time>
      </trkpt>
      <trkpt lat="41.33666" lon="1.35664">
        <ele>267.6</ele>
        <time>2022-05-20 20:36:22</time>
      </trkpt>
      <trkpt lat="41.33675" lon="1.35667">
        <ele>267.6</ele>
        <time>2022-05-20 20:36:23</time>
      </trkpt>
      <trkpt lat="41.33685" lon="1.3567">
        <ele>267.8</ele>
        <time>2022-05-20 20:36:24</time>
      </trkpt>
      <trkpt lat="41.33693" lon="1.35674">
        <ele>268</ele>
        <time>2022-05-20 20:36:25</time>
      </trkpt>
      <trkpt lat="41.33701" lon="1.35677">
        <ele>268.2</ele>
        <time>2022-05-20 20:36:26</time>
      </trkpt>
      <trkpt lat="41.33709" lon="1.3568">
        <ele>268.4</ele>
        <time>2022-05-20 20:36:27</time>
      </trkpt>
      <trkpt lat="41.33716" lon="1.35683">
        <ele>268.8</ele>
        <time>2022-05-20 20:36:28</time>
      </trkpt>
      <trkpt lat="41.33723" lon="1.35686">
        <ele>269</ele>
        <time>2022-05-20 20:36:29</time>
      </trkpt>
      <trkpt lat="41.33729" lon="1.35689">
        <ele>269.2</ele>
        <time>2022-05-20 20:36:30</time>
      </trkpt>
      <trkpt lat="41.33736" lon="1.35692">
        <ele>269.6</ele>
        <time>2022-05-20 20:36:31</time>
      </trkpt>
      <trkpt lat="41.33742" lon="1.35694">
        <ele>269.8</ele>
        <time>2022-05-20 20:36:32</time>
      </trkpt>
      <trkpt lat="41.33749" lon="1.35697">
        <ele>270.2</ele>
        <time>2022-05-20 20:36:33</time>
      </trkpt>
      <trkpt lat="41.33756" lon="1.35699">
        <ele>270.4</ele>
        <time>2022-05-20 20:36:34</time>
      </trkpt>
      <trkpt lat="41.33763" lon="1.35701">
        <ele>270.6</ele>
        <time>2022-05-20 20:36:35</time>
      </trkpt>
      <trkpt lat="41.3377" lon="1.35704">
        <ele>271</ele>
        <time>2022-05-20 20:36:36</time>
      </trkpt>
      <trkpt lat="41.33777" lon="1.35706">
        <ele>271.2</ele>
        <time>2022-05-20 20:36:37</time>
      </trkpt>
      <trkpt lat="41.33784" lon="1.35708">
        <ele>271.4</ele>
        <time>2022-05-20 20:36:38</time>
      </trkpt>
      <trkpt lat="41.33791" lon="1.3571">
        <ele>271.8</ele>
        <time>2022-05-20 20:36:39</time>
      </trkpt>
      <trkpt lat="41.33797" lon="1.35712">
        <ele>272</ele>
        <time>2022-05-20 20:36:40</time>
      </trkpt>
      <trkpt lat="41.33803" lon="1.35715">
        <ele>272.2</ele>
        <time>2022-05-20 20:36:41</time>
      </trkpt>
      <trkpt lat="41.33809" lon="1.35717">
        <ele>272.6</ele>
        <time>2022-05-20 20:36:42</time>
      </trkpt>
      <trkpt lat="41.33815" lon="1.35719">
        <ele>272.8</ele>
        <time>2022-05-20 20:36:43</time>
      </trkpt>
      <trkpt lat="41.3382" lon="1.35721">
        <ele>273.2</ele>
        <time>2022-05-20 20:36:44</time>
      </trkpt>
      <trkpt lat="41.33826" lon="1.35723">
        <ele>273.6</ele>
        <time>2022-05-20 20:36:45</time>
      </trkpt>
      <trkpt lat="41.33832" lon="1.35725">
        <ele>274</ele>
        <time>2022-05-20 20:36:46</time>
      </trkpt>
      <trkpt lat="41.33837" lon="1.35727">
        <ele>274.4</ele>
        <time>2022-05-20 20:36:47</time>
      </trkpt>
      <trkpt lat="41.33842" lon="1.35729">
        <ele>274.6</ele>
        <time>2022-05-20 20:36:48</time>
      </trkpt>
      <trkpt lat="41.33847" lon="1.35731">
        <ele>275</ele>
        <time>2022-05-20 20:36:49</time>
      </trkpt>
      <trkpt lat="41.33852" lon="1.35733">
        <ele>275.4</ele>
        <time>2022-05-20 20:36:50</time>
      </trkpt>
      <trkpt lat="41.33856" lon="1.35735">
        <ele>275.8</ele>
        <time>2022-05-20 20:36:51</time>
      </trkpt>
      <trkpt lat="41.33861" lon="1.35737">
        <ele>276</ele>
        <time>2022-05-20 20:36:52</time>
      </trkpt>
      <trkpt lat="41.33865" lon="1.35739">
        <ele>276.4</ele>
        <time>2022-05-20 20:36:53</time>
      </trkpt>
      <trkpt lat="41.33871" lon="1.3574">
        <ele>276.8</ele>
        <time>2022-05-20 20:36:54</time>
      </trkpt>
      <trkpt lat="41.33876" lon="1.35742">
        <ele>277</ele>
        <time>2022-05-20 20:36:55</time>
      </trkpt>
      <trkpt lat="41.33881" lon="1.35744">
        <ele>277.4</ele>
        <time>2022-05-20 20:36:56</time>
      </trkpt>
      <trkpt lat="41.33885" lon="1.35746">
        <ele>277.6</ele>
        <time>2022-05-20 20:36:57</time>
      </trkpt>
      <trkpt lat="41.33889" lon="1.35747">
        <ele>278</ele>
        <time>2022-05-20 20:36:58</time>
      </trkpt>
      <trkpt lat="41.33894" lon="1.3575">
        <ele>278.4</ele>
        <time>2022-05-20 20:36:59</time>
      </trkpt>
      <trkpt lat="41.33898" lon="1.35752">
        <ele>278.6</ele>
        <time>2022-05-20 20:37:00</time>
      </trkpt>
      <trkpt lat="41.33903" lon="1.35755">
        <ele>279</ele>
        <time>2022-05-20 20:37:01</time>
      </trkpt>
      <trkpt lat="41.33907" lon="1.35757">
        <ele>279.4</ele>
        <time>2022-05-20 20:37:02</time>
      </trkpt>
      <trkpt lat="41.33912" lon="1.35761">
        <ele>279.6</ele>
        <time>2022-05-20 20:37:03</time>
      </trkpt>
      <trkpt lat="41.33915" lon="1.35764">
        <ele>280</ele>
        <time>2022-05-20 20:37:04</time>
      </trkpt>
      <trkpt lat="41.3392" lon="1.35767">
        <ele>280.4</ele>
        <time>2022-05-20 20:37:05</time>
      </trkpt>
      <trkpt lat="41.33924" lon="1.35772">
        <ele>280.6</ele>
        <time>2022-05-20 20:37:06</time>
      </trkpt>
      <trkpt lat="41.33928" lon="1.35776">
        <ele>281</ele>
        <time>2022-05-20 20:37:07</time>
      </trkpt>
      <trkpt lat="41.33932" lon="1.35781">
        <ele>281.2</ele>
        <time>2022-05-20 20:37:08</time>
      </trkpt>
      <trkpt lat="41.33937" lon="1.35786">
        <ele>281.6</ele>
        <time>2022-05-20 20:37:09</time>
      </trkpt>
      <trkpt lat="41.33941" lon="1.35791">
        <ele>282</ele>
        <time>2022-05-20 20:37:10</time>
      </trkpt>
      <trkpt lat="41.33945" lon="1.35796">
        <ele>282.2</ele>
        <time>2022-05-20 20:37:11</time>
      </trkpt>
      <trkpt lat="41.33949" lon="1.358">
        <ele>282.6</ele>
        <time>2022-05-20 20:37:12</time>
      </trkpt>
      <trkpt lat="41.33952" lon="1.35805">
        <ele>283</ele>
        <time>2022-05-20 20:37:13</time>
      </trkpt>
      <trkpt lat="41.33956" lon="1.35809">
        <ele>283.4</ele>
        <time>2022-05-20 20:37:14</time>
      </trkpt>
      <trkpt lat="41.3396" lon="1.35812">
        <ele>283.8</ele>
        <time>2022-05-20 20:37:15</time>
      </trkpt>
      <trkpt lat="41.33963" lon="1.35816">
        <ele>284.2</ele>
        <time>2022-05-20 20:37:16</time>
      </trkpt>
      <trkpt lat="41.33968" lon="1.3582">
        <ele>284.4</ele>
        <time>2022-05-20 20:37:17</time>
      </trkpt>
      <trkpt lat="41.33972" lon="1.35823">
        <ele>284.8</ele>
        <time>2022-05-20 20:37:18</time>
      </trkpt>
      <trkpt lat="41.33976" lon="1.35826">
        <ele>285.2</ele>
        <time>2022-05-20 20:37:19</time>
      </trkpt>
      <trkpt lat="41.33981" lon="1.35829">
        <ele>285.4</ele>
        <time>2022-05-20 20:37:20</time>
      </trkpt>
      <trkpt lat="41.33986" lon="1.35831">
        <ele>285.8</ele>
        <time>2022-05-20 20:37:21</time>
      </trkpt>
      <trkpt lat="41.33992" lon="1.35833">
        <ele>286</ele>
        <time>2022-05-20 20:37:22</time>
      </trkpt>
      <trkpt lat="41.33997" lon="1.35834">
        <ele>286.4</ele>
        <time>2022-05-20 20:37:23</time>
      </trkpt>
      <trkpt lat="41.34003" lon="1.35835">
        <ele>286.6</ele>
        <time>2022-05-20 20:37:24</time>
      </trkpt>
      <trkpt lat="41.34008" lon="1.35836">
        <ele>286.8</ele>
        <time>2022-05-20 20:37:25</time>
      </trkpt>
      <trkpt lat="41.34014" lon="1.35837">
        <ele>287</ele>
        <time>2022-05-20 20:37:26</time>
      </trkpt>
      <trkpt lat="41.34021" lon="1.35837">
        <ele>287.2</ele>
        <time>2022-05-20 20:37:27</time>
      </trkpt>
      <trkpt lat="41.34027" lon="1.35837">
        <ele>287.2</ele>
        <time>2022-05-20 20:37:28</time>
      </trkpt>
      <trkpt lat="41.34033" lon="1.35836">
        <ele>287.4</ele>
        <time>2022-05-20 20:37:29</time>
      </trkpt>
      <trkpt lat="41.3404" lon="1.35835">
        <ele>287.4</ele>
        <time>2022-05-20 20:37:30</time>
      </trkpt>
      <trkpt lat="41.34047" lon="1.35835">
        <ele>287.4</ele>
        <time>2022-05-20 20:37:31</time>
      </trkpt>
      <trkpt lat="41.34054" lon="1.35833">
        <ele>287.4</ele>
        <time>2022-05-20 20:37:32</time>
      </trkpt>
      <trkpt lat="41.34061" lon="1.35832">
        <ele>287.4</ele>
        <time>2022-05-20 20:37:33</time>
      </trkpt>
      <trkpt lat="41.34068" lon="1.35831">
        <ele>287.2</ele>
        <time>2022-05-20 20:37:34</time>
      </trkpt>
      <trkpt lat="41.34075" lon="1.3583">
        <ele>287.2</ele>
        <time>2022-05-20 20:37:35</time>
      </trkpt>
      <trkpt lat="41.34083" lon="1.35827">
        <ele>287</ele>
        <time>2022-05-20 20:37:36</time>
      </trkpt>
      <trkpt lat="41.34091" lon="1.35825">
        <ele>286.8</ele>
        <time>2022-05-20 20:37:37</time>
      </trkpt>
      <trkpt lat="41.34098" lon="1.35822">
        <ele>286.6</ele>
        <time>2022-05-20 20:37:38</time>
      </trkpt>
      <trkpt lat="41.34106" lon="1.35819">
        <ele>286.4</ele>
        <time>2022-05-20 20:37:39</time>
      </trkpt>
      <trkpt lat="41.34114" lon="1.35815">
        <ele>286.2</ele>
        <time>2022-05-20 20:37:40</time>
      </trkpt>
      <trkpt lat="41.34122" lon="1.35812">
        <ele>286.2</ele>
        <time>2022-05-20 20:37:41</time>
      </trkpt>
      <trkpt lat="41.34129" lon="1.35808">
        <ele>286</ele>
        <time>2022-05-20 20:37:42</time>
      </trkpt>
      <trkpt lat="41.34137" lon="1.35805">
        <ele>286</ele>
        <time>2022-05-20 20:37:43</time>
      </trkpt>
      <trkpt lat="41.34145" lon="1.35801">
        <ele>285.8</ele>
        <time>2022-05-20 20:37:44</time>
      </trkpt>
      <trkpt lat="41.34153" lon="1.35798">
        <ele>285.8</ele>
        <time>2022-05-20 20:37:45</time>
      </trkpt>
      <trkpt lat="41.34159" lon="1.35794">
        <ele>286</ele>
        <time>2022-05-20 20:37:46</time>
      </trkpt>
      <trkpt lat="41.34167" lon="1.35791">
        <ele>286</ele>
        <time>2022-05-20 20:37:47</time>
      </trkpt>
      <trkpt lat="41.34175" lon="1.35789">
        <ele>286</ele>
        <time>2022-05-20 20:37:48</time>
      </trkpt>
      <trkpt lat="41.34183" lon="1.35787">
        <ele>286</ele>
        <time>2022-05-20 20:37:49</time>
      </trkpt>
      <trkpt lat="41.34191" lon="1.35786">
        <ele>286</ele>
        <time>2022-05-20 20:37:50</time>
      </trkpt>
      <trkpt lat="41.34199" lon="1.35786">
        <ele>286.2</ele>
        <time>2022-05-20 20:37:51</time>
      </trkpt>
      <trkpt lat="41.34206" lon="1.35785">
        <ele>286.2</ele>
        <time>2022-05-20 20:37:52</time>
      </trkpt>
      <trkpt lat="41.34213" lon="1.35784">
        <ele>286.4</ele>
        <time>2022-05-20 20:37:53</time>
      </trkpt>
      <trkpt lat="41.34221" lon="1.35783">
        <ele>286.4</ele>
        <time>2022-05-20 20:37:54</time>
      </trkpt>
      <trkpt lat="41.34229" lon="1.35782">
        <ele>286.6</ele>
        <time>2022-05-20 20:37:55</time>
      </trkpt>
      <trkpt lat="41.34237" lon="1.35782">
        <ele>286.6</ele>
        <time>2022-05-20 20:37:56</time>
      </trkpt>
      <trkpt lat="41.34244" lon="1.35782">
        <ele>286.6</ele>
        <time>2022-05-20 20:37:57</time>
      </trkpt>
      <trkpt lat="41.34252" lon="1.35782">
        <ele>286.8</ele>
        <time>2022-05-20 20:37:58</time>
      </trkpt>
      <trkpt lat="41.3426" lon="1.35782">
        <ele>286.8</ele>
        <time>2022-05-20 20:37:59</time>
      </trkpt>
      <trkpt lat="41.34267" lon="1.35783">
        <ele>286.8</ele>
        <time>2022-05-20 20:38:00</time>
      </trkpt>
      <trkpt lat="41.34275" lon="1.35784">
        <ele>286.8</ele>
        <time>2022-05-20 20:38:01</time>
      </trkpt>
      <trkpt lat="41.34282" lon="1.35785">
        <ele>287</ele>
        <time>2022-05-20 20:38:02</time>
      </trkpt>
      <trkpt lat="41.3429" lon="1.35787">
        <ele>287</ele>
        <time>2022-05-20 20:38:03</time>
      </trkpt>
      <trkpt lat="41.34298" lon="1.35789">
        <ele>287.2</ele>
        <time>2022-05-20 20:38:04</time>
      </trkpt>
      <trkpt lat="41.34305" lon="1.35791">
        <ele>287.2</ele>
        <time>2022-05-20 20:38:05</time>
      </trkpt>
      <trkpt lat="41.34311" lon="1.35793">
        <ele>287.4</ele>
        <time>2022-05-20 20:38:06</time>
      </trkpt>
      <trkpt lat="41.34319" lon="1.35795">
        <ele>287.4</ele>
        <time>2022-05-20 20:38:07</time>
      </trkpt>
      <trkpt lat="41.34327" lon="1.35796">
        <ele>287.6</ele>
        <time>2022-05-20 20:38:08</time>
      </trkpt>
      <trkpt lat="41.34334" lon="1.35797">
        <ele>287.8</ele>
        <time>2022-05-20 20:38:09</time>
      </trkpt>
      <trkpt lat="41.34342" lon="1.35798">
        <ele>288</ele>
        <time>2022-05-20 20:38:10</time>
      </trkpt>
      <trkpt lat="41.34349" lon="1.35799">
        <ele>288.2</ele>
        <time>2022-05-20 20:38:11</time>
      </trkpt>
      <trkpt lat="41.34357" lon="1.35799">
        <ele>288.6</ele>
        <time>2022-05-20 20:38:12</time>
      </trkpt>
      <trkpt lat="41.34364" lon="1.358">
        <ele>288.8</ele>
        <time>2022-05-20 20:38:13</time>
      </trkpt>
      <trkpt lat="41.34371" lon="1.35799">
        <ele>289</ele>
        <time>2022-05-20 20:38:14</time>
      </trkpt>
      <trkpt lat="41.34378" lon="1.35799">
        <ele>289.2</ele>
        <time>2022-05-20 20:38:15</time>
      </trkpt>
      <trkpt lat="41.34385" lon="1.35798">
        <ele>289.4</ele>
        <time>2022-05-20 20:38:16</time>
      </trkpt>
      <trkpt lat="41.34391" lon="1.35798">
        <ele>289.6</ele>
        <time>2022-05-20 20:38:17</time>
      </trkpt>
      <trkpt lat="41.34398" lon="1.35797">
        <ele>289.8</ele>
        <time>2022-05-20 20:38:18</time>
      </trkpt>
      <trkpt lat="41.34405" lon="1.35796">
        <ele>290</ele>
        <time>2022-05-20 20:38:19</time>
      </trkpt>
      <trkpt lat="41.34412" lon="1.35796">
        <ele>290.2</ele>
        <time>2022-05-20 20:38:20</time>
      </trkpt>
      <trkpt lat="41.34419" lon="1.35795">
        <ele>290.4</ele>
        <time>2022-05-20 20:38:21</time>
      </trkpt>
      <trkpt lat="41.34426" lon="1.35794">
        <ele>290.8</ele>
        <time>2022-05-20 20:38:22</time>
      </trkpt>
      <trkpt lat="41.34433" lon="1.35794">
        <ele>291</ele>
        <time>2022-05-20 20:38:23</time>
      </trkpt>
      <trkpt lat="41.34439" lon="1.35793">
        <ele>291.2</ele>
        <time>2022-05-20 20:38:24</time>
      </trkpt>
      <trkpt lat="41.34445" lon="1.35793">
        <ele>291.4</ele>
        <time>2022-05-20 20:38:25</time>
      </trkpt>
      <trkpt lat="41.34451" lon="1.35792">
        <ele>291.6</ele>
        <time>2022-05-20 20:38:26</time>
      </trkpt>
      <trkpt lat="41.34458" lon="1.35792">
        <ele>291.8</ele>
        <time>2022-05-20 20:38:27</time>
      </trkpt>
      <trkpt lat="41.34465" lon="1.35792">
        <ele>292</ele>
        <time>2022-05-20 20:38:28</time>
      </trkpt>
      <trkpt lat="41.34472" lon="1.35791">
        <ele>292.2</ele>
        <time>2022-05-20 20:38:29</time>
      </trkpt>
      <trkpt lat="41.34478" lon="1.3579">
        <ele>292.4</ele>
        <time>2022-05-20 20:38:30</time>
      </trkpt>
      <trkpt lat="41.34485" lon="1.3579">
        <ele>292.6</ele>
        <time>2022-05-20 20:38:31</time>
      </trkpt>
      <trkpt lat="41.34492" lon="1.3579">
        <ele>292.8</ele>
        <time>2022-05-20 20:38:32</time>
      </trkpt>
      <trkpt lat="41.34498" lon="1.35789">
        <ele>293</ele>
        <time>2022-05-20 20:38:33</time>
      </trkpt>
      <trkpt lat="41.34505" lon="1.35788">
        <ele>293.2</ele>
        <time>2022-05-20 20:38:34</time>
      </trkpt>
      <trkpt lat="41.34511" lon="1.35788">
        <ele>293.4</ele>
        <time>2022-05-20 20:38:35</time>
      </trkpt>
      <trkpt lat="41.34517" lon="1.35787">
        <ele>293.6</ele>
        <time>2022-05-20 20:38:36</time>
      </trkpt>
      <trkpt lat="41.34524" lon="1.35787">
        <ele>294</ele>
        <time>2022-05-20 20:38:37</time>
      </trkpt>
      <trkpt lat="41.3453" lon="1.35786">
        <ele>294.2</ele>
        <time>2022-05-20 20:38:38</time>
      </trkpt>
      <trkpt lat="41.34537" lon="1.35785">
        <ele>294.4</ele>
        <time>2022-05-20 20:38:39</time>
      </trkpt>
      <trkpt lat="41.34543" lon="1.35784">
        <ele>294.6</ele>
        <time>2022-05-20 20:38:40</time>
      </trkpt>
      <trkpt lat="41.34549" lon="1.35784">
        <ele>294.8</ele>
        <time>2022-05-20 20:38:41</time>
      </trkpt>
      <trkpt lat="41.34555" lon="1.35783">
        <ele>295</ele>
        <time>2022-05-20 20:38:42</time>
      </trkpt>
      <trkpt lat="41.34562" lon="1.35782">
        <ele>295.2</ele>
        <time>2022-05-20 20:38:43</time>
      </trkpt>
      <trkpt lat="41.34569" lon="1.35781">
        <ele>295.6</ele>
        <time>2022-05-20 20:38:44</time>
      </trkpt>
      <trkpt lat="41.34575" lon="1.3578">
        <ele>295.8</ele>
        <time>2022-05-20 20:38:45</time>
      </trkpt>
      <trkpt lat="41.34581" lon="1.35779">
        <ele>296</ele>
        <time>2022-05-20 20:38:46</time>
      </trkpt>
      <trkpt lat="41.34587" lon="1.35779">
        <ele>296</ele>
        <time>2022-05-20 20:38:47</time>
      </trkpt>
      <trkpt lat="41.34594" lon="1.35779">
        <ele>296.2</ele>
        <time>2022-05-20 20:38:48</time>
      </trkpt>
      <trkpt lat="41.34601" lon="1.3578">
        <ele>296.2</ele>
        <time>2022-05-20 20:38:49</time>
      </trkpt>
      <trkpt lat="41.34608" lon="1.35782">
        <ele>296.4</ele>
        <time>2022-05-20 20:38:50</time>
      </trkpt>
      <trkpt lat="41.34614" lon="1.35785">
        <ele>296.4</ele>
        <time>2022-05-20 20:38:51</time>
      </trkpt>
      <trkpt lat="41.34621" lon="1.35788">
        <ele>296.4</ele>
        <time>2022-05-20 20:38:52</time>
      </trkpt>
      <trkpt lat="41.34627" lon="1.35792">
        <ele>296.4</ele>
        <time>2022-05-20 20:38:53</time>
      </trkpt>
      <trkpt lat="41.34634" lon="1.35796">
        <ele>296.6</ele>
        <time>2022-05-20 20:38:54</time>
      </trkpt>
      <trkpt lat="41.3464" lon="1.35801">
        <ele>296.6</ele>
        <time>2022-05-20 20:38:55</time>
      </trkpt>
      <trkpt lat="41.34646" lon="1.35806">
        <ele>296.4</ele>
        <time>2022-05-20 20:38:56</time>
      </trkpt>
      <trkpt lat="41.34653" lon="1.3581">
        <ele>296.4</ele>
        <time>2022-05-20 20:38:57</time>
      </trkpt>
      <trkpt lat="41.34659" lon="1.35815">
        <ele>296.4</ele>
        <time>2022-05-20 20:38:58</time>
      </trkpt>
      <trkpt lat="41.34666" lon="1.35821">
        <ele>296.2</ele>
        <time>2022-05-20 20:38:59</time>
      </trkpt>
      <trkpt lat="41.34673" lon="1.35826">
        <ele>296</ele>
        <time>2022-05-20 20:39:00</time>
      </trkpt>
      <trkpt lat="41.3468" lon="1.35832">
        <ele>295.8</ele>
        <time>2022-05-20 20:39:01</time>
      </trkpt>
      <trkpt lat="41.34687" lon="1.35837">
        <ele>295.4</ele>
        <time>2022-05-20 20:39:02</time>
      </trkpt>
      <trkpt lat="41.34695" lon="1.35843">
        <ele>295.2</ele>
        <time>2022-05-20 20:39:03</time>
      </trkpt>
      <trkpt lat="41.34702" lon="1.35849">
        <ele>294.8</ele>
        <time>2022-05-20 20:39:04</time>
      </trkpt>
      <trkpt lat="41.3471" lon="1.35855">
        <ele>294.4</ele>
        <time>2022-05-20 20:39:05</time>
      </trkpt>
      <trkpt lat="41.34716" lon="1.35861">
        <ele>294</ele>
        <time>2022-05-20 20:39:06</time>
      </trkpt>
      <trkpt lat="41.34724" lon="1.35869">
        <ele>293.6</ele>
        <time>2022-05-20 20:39:07</time>
      </trkpt>
      <trkpt lat="41.34733" lon="1.35877">
        <ele>293.2</ele>
        <time>2022-05-20 20:39:08</time>
      </trkpt>
      <trkpt lat="41.34743" lon="1.35885">
        <ele>292.6</ele>
        <time>2022-05-20 20:39:09</time>
      </trkpt>
      <trkpt lat="41.34752" lon="1.35893">
        <ele>292.2</ele>
        <time>2022-05-20 20:39:10</time>
      </trkpt>
      <trkpt lat="41.3476" lon="1.359">
        <ele>291.8</ele>
        <time>2022-05-20 20:39:11</time>
      </trkpt>
      <trkpt lat="41.34769" lon="1.35908">
        <ele>291.4</ele>
        <time>2022-05-20 20:39:12</time>
      </trkpt>
      <trkpt lat="41.3478" lon="1.35916">
        <ele>290.8</ele>
        <time>2022-05-20 20:39:13</time>
      </trkpt>
      <trkpt lat="41.34789" lon="1.35925">
        <ele>290.2</ele>
        <time>2022-05-20 20:39:14</time>
      </trkpt>
      <trkpt lat="41.34797" lon="1.35934">
        <ele>289.8</ele>
        <time>2022-05-20 20:39:15</time>
      </trkpt>
      <trkpt lat="41.34806" lon="1.35943">
        <ele>289.2</ele>
        <time>2022-05-20 20:39:16</time>
      </trkpt>
      <trkpt lat="41.34814" lon="1.35954">
        <ele>288.8</ele>
        <time>2022-05-20 20:39:17</time>
      </trkpt>
      <trkpt lat="41.34822" lon="1.35967">
        <ele>288.2</ele>
        <time>2022-05-20 20:39:18</time>
      </trkpt>
      <trkpt lat="41.3483" lon="1.35978">
        <ele>287.8</ele>
        <time>2022-05-20 20:39:19</time>
      </trkpt>
      <trkpt lat="41.34838" lon="1.3599">
        <ele>287.2</ele>
        <time>2022-05-20 20:39:20</time>
      </trkpt>
      <trkpt lat="41.34846" lon="1.36002">
        <ele>286.6</ele>
        <time>2022-05-20 20:39:21</time>
      </trkpt>
      <trkpt lat="41.34853" lon="1.36013">
        <ele>286.2</ele>
        <time>2022-05-20 20:39:22</time>
      </trkpt>
      <trkpt lat="41.3486" lon="1.36024">
        <ele>285.8</ele>
        <time>2022-05-20 20:39:23</time>
      </trkpt>
      <trkpt lat="41.34868" lon="1.36035">
        <ele>285.2</ele>
        <time>2022-05-20 20:39:24</time>
      </trkpt>
      <trkpt lat="41.34875" lon="1.36045">
        <ele>284.6</ele>
        <time>2022-05-20 20:39:25</time>
      </trkpt>
      <trkpt lat="41.34883" lon="1.36056">
        <ele>284.2</ele>
        <time>2022-05-20 20:39:26</time>
      </trkpt>
      <trkpt lat="41.34892" lon="1.36066">
        <ele>283.6</ele>
        <time>2022-05-20 20:39:27</time>
      </trkpt>
      <trkpt lat="41.34902" lon="1.36076">
        <ele>283</ele>
        <time>2022-05-20 20:39:28</time>
      </trkpt>
      <trkpt lat="41.34912" lon="1.36085">
        <ele>282.4</ele>
        <time>2022-05-20 20:39:29</time>
      </trkpt>
      <trkpt lat="41.34921" lon="1.36095">
        <ele>282</ele>
        <time>2022-05-20 20:39:30</time>
      </trkpt>
      <trkpt lat="41.34931" lon="1.36104">
        <ele>281.4</ele>
        <time>2022-05-20 20:39:31</time>
      </trkpt>
      <trkpt lat="41.34941" lon="1.36114">
        <ele>280.8</ele>
        <time>2022-05-20 20:39:32</time>
      </trkpt>
      <trkpt lat="41.3495" lon="1.36124">
        <ele>280.2</ele>
        <time>2022-05-20 20:39:33</time>
      </trkpt>
      <trkpt lat="41.34961" lon="1.36134">
        <ele>279.6</ele>
        <time>2022-05-20 20:39:34</time>
      </trkpt>
      <trkpt lat="41.34971" lon="1.36143">
        <ele>279</ele>
        <time>2022-05-20 20:39:35</time>
      </trkpt>
      <trkpt lat="41.34982" lon="1.3615">
        <ele>278.4</ele>
        <time>2022-05-20 20:39:36</time>
      </trkpt>
      <trkpt lat="41.34995" lon="1.36154">
        <ele>277.8</ele>
        <time>2022-05-20 20:39:37</time>
      </trkpt>
      <trkpt lat="41.35007" lon="1.36157">
        <ele>277.6</ele>
        <time>2022-05-20 20:39:38</time>
      </trkpt>
      <trkpt lat="41.3502" lon="1.36158">
        <ele>277.4</ele>
        <time>2022-05-20 20:39:39</time>
      </trkpt>
      <trkpt lat="41.35032" lon="1.36158">
        <ele>277.4</ele>
        <time>2022-05-20 20:39:40</time>
      </trkpt>
      <trkpt lat="41.35043" lon="1.36157">
        <ele>277.4</ele>
        <time>2022-05-20 20:39:41</time>
      </trkpt>
      <trkpt lat="41.35053" lon="1.36157">
        <ele>277.4</ele>
        <time>2022-05-20 20:39:42</time>
      </trkpt>
      <trkpt lat="41.35063" lon="1.3616">
        <ele>277.6</ele>
        <time>2022-05-20 20:39:43</time>
      </trkpt>
      <trkpt lat="41.35073" lon="1.36165">
        <ele>277.6</ele>
        <time>2022-05-20 20:39:44</time>
      </trkpt>
      <trkpt lat="41.35082" lon="1.36171">
        <ele>277.8</ele>
        <time>2022-05-20 20:39:45</time>
      </trkpt>
      <trkpt lat="41.3509" lon="1.36177">
        <ele>278</ele>
        <time>2022-05-20 20:39:46</time>
      </trkpt>
      <trkpt lat="41.35098" lon="1.36183">
        <ele>278.2</ele>
        <time>2022-05-20 20:39:47</time>
      </trkpt>
      <trkpt lat="41.35107" lon="1.36188">
        <ele>278.4</ele>
        <time>2022-05-20 20:39:48</time>
      </trkpt>
      <trkpt lat="41.35115" lon="1.36191">
        <ele>278.6</ele>
        <time>2022-05-20 20:39:49</time>
      </trkpt>
      <trkpt lat="41.35123" lon="1.36195">
        <ele>278.8</ele>
        <time>2022-05-20 20:39:50</time>
      </trkpt>
      <trkpt lat="41.35131" lon="1.36198">
        <ele>279.2</ele>
        <time>2022-05-20 20:39:51</time>
      </trkpt>
      <trkpt lat="41.35139" lon="1.36201">
        <ele>279.4</ele>
        <time>2022-05-20 20:39:52</time>
      </trkpt>
      <trkpt lat="41.35148" lon="1.36205">
        <ele>279.6</ele>
        <time>2022-05-20 20:39:53</time>
      </trkpt>
      <trkpt lat="41.35156" lon="1.36208">
        <ele>279.8</ele>
        <time>2022-05-20 20:39:54</time>
      </trkpt>
      <trkpt lat="41.35164" lon="1.36211">
        <ele>280.2</ele>
        <time>2022-05-20 20:39:55</time>
      </trkpt>
      <trkpt lat="41.35171" lon="1.36214">
        <ele>280.4</ele>
        <time>2022-05-20 20:39:56</time>
      </trkpt>
      <trkpt lat="41.35179" lon="1.36216">
        <ele>280.6</ele>
        <time>2022-05-20 20:39:57</time>
      </trkpt>
      <trkpt lat="41.35186" lon="1.36219">
        <ele>281</ele>
        <time>2022-05-20 20:39:58</time>
      </trkpt>
      <trkpt lat="41.35193" lon="1.36222">
        <ele>281.2</ele>
        <time>2022-05-20 20:39:59</time>
      </trkpt>
      <trkpt lat="41.352" lon="1.36224">
        <ele>281.4</ele>
        <time>2022-05-20 20:40:00</time>
      </trkpt>
      <trkpt lat="41.35207" lon="1.36227">
        <ele>281.6</ele>
        <time>2022-05-20 20:40:01</time>
      </trkpt>
      <trkpt lat="41.35215" lon="1.36229">
        <ele>281.8</ele>
        <time>2022-05-20 20:40:02</time>
      </trkpt>
      <trkpt lat="41.35222" lon="1.36231">
        <ele>282.2</ele>
        <time>2022-05-20 20:40:03</time>
      </trkpt>
      <trkpt lat="41.35229" lon="1.36233">
        <ele>282.4</ele>
        <time>2022-05-20 20:40:04</time>
      </trkpt>
      <trkpt lat="41.35236" lon="1.36235">
        <ele>282.6</ele>
        <time>2022-05-20 20:40:05</time>
      </trkpt>
      <trkpt lat="41.35244" lon="1.36236">
        <ele>282.8</ele>
        <time>2022-05-20 20:40:06</time>
      </trkpt>
      <trkpt lat="41.35251" lon="1.36237">
        <ele>283</ele>
        <time>2022-05-20 20:40:07</time>
      </trkpt>
      <trkpt lat="41.35258" lon="1.36238">
        <ele>283.2</ele>
        <time>2022-05-20 20:40:08</time>
      </trkpt>
      <trkpt lat="41.35265" lon="1.36239">
        <ele>283.4</ele>
        <time>2022-05-20 20:40:09</time>
      </trkpt>
      <trkpt lat="41.35273" lon="1.3624">
        <ele>283.6</ele>
        <time>2022-05-20 20:40:10</time>
      </trkpt>
      <trkpt lat="41.35279" lon="1.36242">
        <ele>283.8</ele>
        <time>2022-05-20 20:40:11</time>
      </trkpt>
      <trkpt lat="41.35286" lon="1.36243">
        <ele>284</ele>
        <time>2022-05-20 20:40:12</time>
      </trkpt>
      <trkpt lat="41.35294" lon="1.36245">
        <ele>284.2</ele>
        <time>2022-05-20 20:40:13</time>
      </trkpt>
      <trkpt lat="41.35301" lon="1.36247">
        <ele>284.2</ele>
        <time>2022-05-20 20:40:14</time>
      </trkpt>
      <trkpt lat="41.35308" lon="1.3625">
        <ele>284.4</ele>
        <time>2022-05-20 20:40:15</time>
      </trkpt>
      <trkpt lat="41.35314" lon="1.36253">
        <ele>284.6</ele>
        <time>2022-05-20 20:40:16</time>
      </trkpt>
      <trkpt lat="41.35321" lon="1.36256">
        <ele>284.8</ele>
        <time>2022-05-20 20:40:17</time>
      </trkpt>
      <trkpt lat="41.35328" lon="1.36259">
        <ele>284.8</ele>
        <time>2022-05-20 20:40:18</time>
      </trkpt>
      <trkpt lat="41.35334" lon="1.36262">
        <ele>285</ele>
        <time>2022-05-20 20:40:19</time>
      </trkpt>
      <trkpt lat="41.35341" lon="1.36264">
        <ele>285.2</ele>
        <time>2022-05-20 20:40:20</time>
      </trkpt>
      <trkpt lat="41.35348" lon="1.36267">
        <ele>285.4</ele>
        <time>2022-05-20 20:40:21</time>
      </trkpt>
      <trkpt lat="41.35355" lon="1.3627">
        <ele>285.4</ele>
        <time>2022-05-20 20:40:22</time>
      </trkpt>
      <trkpt lat="41.35361" lon="1.36272">
        <ele>285.6</ele>
        <time>2022-05-20 20:40:23</time>
      </trkpt>
      <trkpt lat="41.35368" lon="1.36274">
        <ele>285.8</ele>
        <time>2022-05-20 20:40:24</time>
      </trkpt>
      <trkpt lat="41.35376" lon="1.36276">
        <ele>286</ele>
        <time>2022-05-20 20:40:25</time>
      </trkpt>
      <trkpt lat="41.35383" lon="1.36278">
        <ele>286</ele>
        <time>2022-05-20 20:40:26</time>
      </trkpt>
      <trkpt lat="41.3539" lon="1.3628">
        <ele>286.2</ele>
        <time>2022-05-20 20:40:27</time>
      </trkpt>
      <trkpt lat="41.35398" lon="1.36282">
        <ele>286.4</ele>
        <time>2022-05-20 20:40:28</time>
      </trkpt>
      <trkpt lat="41.35405" lon="1.36284">
        <ele>286.4</ele>
        <time>2022-05-20 20:40:29</time>
      </trkpt>
      <trkpt lat="41.35412" lon="1.36286">
        <ele>286.6</ele>
        <time>2022-05-20 20:40:30</time>
      </trkpt>
      <trkpt lat="41.35419" lon="1.36288">
        <ele>286.6</ele>
        <time>2022-05-20 20:40:31</time>
      </trkpt>
      <trkpt lat="41.35426" lon="1.3629">
        <ele>286.8</ele>
        <time>2022-05-20 20:40:32</time>
      </trkpt>
      <trkpt lat="41.35433" lon="1.36292">
        <ele>287</ele>
        <time>2022-05-20 20:40:33</time>
      </trkpt>
      <trkpt lat="41.3544" lon="1.36294">
        <ele>287</ele>
        <time>2022-05-20 20:40:34</time>
      </trkpt>
      <trkpt lat="41.35447" lon="1.36296">
        <ele>287.2</ele>
        <time>2022-05-20 20:40:35</time>
      </trkpt>
      <trkpt lat="41.35454" lon="1.36298">
        <ele>287.4</ele>
        <time>2022-05-20 20:40:36</time>
      </trkpt>
      <trkpt lat="41.35461" lon="1.363">
        <ele>287.4</ele>
        <time>2022-05-20 20:40:37</time>
      </trkpt>
      <trkpt lat="41.35468" lon="1.36302">
        <ele>287.6</ele>
        <time>2022-05-20 20:40:38</time>
      </trkpt>
      <trkpt lat="41.35475" lon="1.36304">
        <ele>287.6</ele>
        <time>2022-05-20 20:40:39</time>
      </trkpt>
      <trkpt lat="41.35482" lon="1.36306">
        <ele>287.8</ele>
        <time>2022-05-20 20:40:40</time>
      </trkpt>
      <trkpt lat="41.3549" lon="1.36308">
        <ele>287.8</ele>
        <time>2022-05-20 20:40:41</time>
      </trkpt>
      <trkpt lat="41.35497" lon="1.36311">
        <ele>287.8</ele>
        <time>2022-05-20 20:40:42</time>
      </trkpt>
      <trkpt lat="41.35505" lon="1.36313">
        <ele>287.8</ele>
        <time>2022-05-20 20:40:43</time>
      </trkpt>
      <trkpt lat="41.35513" lon="1.36315">
        <ele>287.8</ele>
        <time>2022-05-20 20:40:44</time>
      </trkpt>
      <trkpt lat="41.3552" lon="1.36317">
        <ele>287.8</ele>
        <time>2022-05-20 20:40:45</time>
      </trkpt>
      <trkpt lat="41.35528" lon="1.3632">
        <ele>288</ele>
        <time>2022-05-20 20:40:46</time>
      </trkpt>
      <trkpt lat="41.35536" lon="1.36322">
        <ele>288</ele>
        <time>2022-05-20 20:40:47</time>
      </trkpt>
      <trkpt lat="41.35543" lon="1.36324">
        <ele>288</ele>
        <time>2022-05-20 20:40:48</time>
      </trkpt>
      <trkpt lat="41.35551" lon="1.36325">
        <ele>288</ele>
        <time>2022-05-20 20:40:49</time>
      </trkpt>
      <trkpt lat="41.35559" lon="1.36327">
        <ele>288</ele>
        <time>2022-05-20 20:40:50</time>
      </trkpt>
      <trkpt lat="41.35567" lon="1.36328">
        <ele>287.8</ele>
        <time>2022-05-20 20:40:51</time>
      </trkpt>
      <trkpt lat="41.35576" lon="1.36328">
        <ele>287.8</ele>
        <time>2022-05-20 20:40:52</time>
      </trkpt>
      <trkpt lat="41.35584" lon="1.36328">
        <ele>287.8</ele>
        <time>2022-05-20 20:40:53</time>
      </trkpt>
      <trkpt lat="41.35593" lon="1.36327">
        <ele>288</ele>
        <time>2022-05-20 20:40:54</time>
      </trkpt>
      <trkpt lat="41.35601" lon="1.36327">
        <ele>287.8</ele>
        <time>2022-05-20 20:40:55</time>
      </trkpt>
      <trkpt lat="41.35609" lon="1.36326">
        <ele>287.8</ele>
        <time>2022-05-20 20:40:56</time>
      </trkpt>
      <trkpt lat="41.35617" lon="1.36326">
        <ele>287.8</ele>
        <time>2022-05-20 20:40:57</time>
      </trkpt>
      <trkpt lat="41.35625" lon="1.36325">
        <ele>288</ele>
        <time>2022-05-20 20:40:58</time>
      </trkpt>
      <trkpt lat="41.35634" lon="1.36324">
        <ele>288</ele>
        <time>2022-05-20 20:40:59</time>
      </trkpt>
      <trkpt lat="41.35643" lon="1.36324">
        <ele>288</ele>
        <time>2022-05-20 20:41:00</time>
      </trkpt>
      <trkpt lat="41.35651" lon="1.36323">
        <ele>287.8</ele>
        <time>2022-05-20 20:41:01</time>
      </trkpt>
      <trkpt lat="41.3566" lon="1.36323">
        <ele>287.8</ele>
        <time>2022-05-20 20:41:02</time>
      </trkpt>
      <trkpt lat="41.35668" lon="1.36322">
        <ele>287.8</ele>
        <time>2022-05-20 20:41:03</time>
      </trkpt>
      <trkpt lat="41.35677" lon="1.36323">
        <ele>287.8</ele>
        <time>2022-05-20 20:41:04</time>
      </trkpt>
      <trkpt lat="41.35686" lon="1.36324">
        <ele>287.8</ele>
        <time>2022-05-20 20:41:05</time>
      </trkpt>
      <trkpt lat="41.35694" lon="1.36325">
        <ele>287.8</ele>
        <time>2022-05-20 20:41:06</time>
      </trkpt>
      <trkpt lat="41.35703" lon="1.36327">
        <ele>287.8</ele>
        <time>2022-05-20 20:41:07</time>
      </trkpt>
      <trkpt lat="41.35711" lon="1.36329">
        <ele>287.8</ele>
        <time>2022-05-20 20:41:08</time>
      </trkpt>
      <trkpt lat="41.35719" lon="1.36331">
        <ele>287.8</ele>
        <time>2022-05-20 20:41:09</time>
      </trkpt>
      <trkpt lat="41.35728" lon="1.36334">
        <ele>287.8</ele>
        <time>2022-05-20 20:41:10</time>
      </trkpt>
      <trkpt lat="41.35736" lon="1.36336">
        <ele>287.8</ele>
        <time>2022-05-20 20:41:11</time>
      </trkpt>
      <trkpt lat="41.35744" lon="1.36339">
        <ele>287.8</ele>
        <time>2022-05-20 20:41:12</time>
      </trkpt>
      <trkpt lat="41.35752" lon="1.36341">
        <ele>288</ele>
        <time>2022-05-20 20:41:13</time>
      </trkpt>
      <trkpt lat="41.35761" lon="1.36344">
        <ele>288</ele>
        <time>2022-05-20 20:41:14</time>
      </trkpt>
      <trkpt lat="41.35769" lon="1.36346">
        <ele>288</ele>
        <time>2022-05-20 20:41:15</time>
      </trkpt>
      <trkpt lat="41.35777" lon="1.36349">
        <ele>288</ele>
        <time>2022-05-20 20:41:16</time>
      </trkpt>
      <trkpt lat="41.35786" lon="1.36351">
        <ele>288</ele>
        <time>2022-05-20 20:41:17</time>
      </trkpt>
      <trkpt lat="41.35794" lon="1.36353">
        <ele>288</ele>
        <time>2022-05-20 20:41:18</time>
      </trkpt>
      <trkpt lat="41.35802" lon="1.36353">
        <ele>288</ele>
        <time>2022-05-20 20:41:19</time>
      </trkpt>
      <trkpt lat="41.35811" lon="1.36353">
        <ele>288.2</ele>
        <time>2022-05-20 20:41:20</time>
      </trkpt>
      <trkpt lat="41.35819" lon="1.36352">
        <ele>288.2</ele>
        <time>2022-05-20 20:41:21</time>
      </trkpt>
      <trkpt lat="41.35827" lon="1.36351">
        <ele>288.4</ele>
        <time>2022-05-20 20:41:22</time>
      </trkpt>
      <trkpt lat="41.35835" lon="1.36349">
        <ele>288.6</ele>
        <time>2022-05-20 20:41:23</time>
      </trkpt>
      <trkpt lat="41.35843" lon="1.36347">
        <ele>289</ele>
        <time>2022-05-20 20:41:24</time>
      </trkpt>
      <trkpt lat="41.3585" lon="1.36346">
        <ele>289.2</ele>
        <time>2022-05-20 20:41:25</time>
      </trkpt>
      <trkpt lat="41.35858" lon="1.36345">
        <ele>289.4</ele>
        <time>2022-05-20 20:41:26</time>
      </trkpt>
      <trkpt lat="41.35865" lon="1.36343">
        <ele>289.6</ele>
        <time>2022-05-20 20:41:27</time>
      </trkpt>
      <trkpt lat="41.35872" lon="1.36342">
        <ele>289.8</ele>
        <time>2022-05-20 20:41:28</time>
      </trkpt>
      <trkpt lat="41.3588" lon="1.36341">
        <ele>290</ele>
        <time>2022-05-20 20:41:29</time>
      </trkpt>
      <trkpt lat="41.35888" lon="1.36341">
        <ele>290.2</ele>
        <time>2022-05-20 20:41:30</time>
      </trkpt>
      <trkpt lat="41.35895" lon="1.36341">
        <ele>290.4</ele>
        <time>2022-05-20 20:41:31</time>
      </trkpt>
      <trkpt lat="41.35902" lon="1.36342">
        <ele>290.6</ele>
        <time>2022-05-20 20:41:32</time>
      </trkpt>
      <trkpt lat="41.35909" lon="1.36344">
        <ele>291</ele>
        <time>2022-05-20 20:41:33</time>
      </trkpt>
      <trkpt lat="41.35915" lon="1.36347">
        <ele>291.2</ele>
        <time>2022-05-20 20:41:34</time>
      </trkpt>
      <trkpt lat="41.35922" lon="1.36351">
        <ele>291.4</ele>
        <time>2022-05-20 20:41:35</time>
      </trkpt>
      <trkpt lat="41.35928" lon="1.36355">
        <ele>291.8</ele>
        <time>2022-05-20 20:41:36</time>
      </trkpt>
      <trkpt lat="41.35934" lon="1.36359">
        <ele>292</ele>
        <time>2022-05-20 20:41:37</time>
      </trkpt>
      <trkpt lat="41.3594" lon="1.36363">
        <ele>292.2</ele>
        <time>2022-05-20 20:41:38</time>
      </trkpt>
      <trkpt lat="41.35946" lon="1.36367">
        <ele>292.6</ele>
        <time>2022-05-20 20:41:39</time>
      </trkpt>
      <trkpt lat="41.35952" lon="1.36371">
        <ele>292.8</ele>
        <time>2022-05-20 20:41:40</time>
      </trkpt>
      <trkpt lat="41.35958" lon="1.36375">
        <ele>293</ele>
        <time>2022-05-20 20:41:41</time>
      </trkpt>
      <trkpt lat="41.35963" lon="1.36378">
        <ele>293.4</ele>
        <time>2022-05-20 20:41:42</time>
      </trkpt>
      <trkpt lat="41.35969" lon="1.36381">
        <ele>293.8</ele>
        <time>2022-05-20 20:41:43</time>
      </trkpt>
      <trkpt lat="41.35974" lon="1.36384">
        <ele>294.2</ele>
        <time>2022-05-20 20:41:44</time>
      </trkpt>
      <trkpt lat="41.35979" lon="1.36386">
        <ele>294.6</ele>
        <time>2022-05-20 20:41:45</time>
      </trkpt>
      <trkpt lat="41.35985" lon="1.36387">
        <ele>295</ele>
        <time>2022-05-20 20:41:46</time>
      </trkpt>
      <trkpt lat="41.3599" lon="1.36386">
        <ele>295.4</ele>
        <time>2022-05-20 20:41:47</time>
      </trkpt>
      <trkpt lat="41.35995" lon="1.36385">
        <ele>295.8</ele>
        <time>2022-05-20 20:41:48</time>
      </trkpt>
      <trkpt lat="41.36" lon="1.36382">
        <ele>296.4</ele>
        <time>2022-05-20 20:41:49</time>
      </trkpt>
      <trkpt lat="41.36005" lon="1.3638">
        <ele>296.8</ele>
        <time>2022-05-20 20:41:50</time>
      </trkpt>
      <trkpt lat="41.3601" lon="1.36377">
        <ele>297.2</ele>
        <time>2022-05-20 20:41:51</time>
      </trkpt>
      <trkpt lat="41.36014" lon="1.36374">
        <ele>297.6</ele>
        <time>2022-05-20 20:41:52</time>
      </trkpt>
      <trkpt lat="41.36018" lon="1.36371">
        <ele>298</ele>
        <time>2022-05-20 20:41:53</time>
      </trkpt>
      <trkpt lat="41.36022" lon="1.36368">
        <ele>298.4</ele>
        <time>2022-05-20 20:41:54</time>
      </trkpt>
      <trkpt lat="41.36026" lon="1.36366">
        <ele>298.8</ele>
        <time>2022-05-20 20:41:55</time>
      </trkpt>
      <trkpt lat="41.36031" lon="1.36363">
        <ele>299.2</ele>
        <time>2022-05-20 20:41:56</time>
      </trkpt>
      <trkpt lat="41.36034" lon="1.3636">
        <ele>299.6</ele>
        <time>2022-05-20 20:41:57</time>
      </trkpt>
      <trkpt lat="41.36038" lon="1.36358">
        <ele>300</ele>
        <time>2022-05-20 20:41:58</time>
      </trkpt>
      <trkpt lat="41.36042" lon="1.36355">
        <ele>300.4</ele>
        <time>2022-05-20 20:41:59</time>
      </trkpt>
      <trkpt lat="41.36046" lon="1.36352">
        <ele>300.8</ele>
        <time>2022-05-20 20:42:00</time>
      </trkpt>
      <trkpt lat="41.36049" lon="1.36349">
        <ele>301.2</ele>
        <time>2022-05-20 20:42:01</time>
      </trkpt>
      <trkpt lat="41.36053" lon="1.36347">
        <ele>301.6</ele>
        <time>2022-05-20 20:42:02</time>
      </trkpt>
      <trkpt lat="41.36057" lon="1.36344">
        <ele>302</ele>
        <time>2022-05-20 20:42:03</time>
      </trkpt>
      <trkpt lat="41.3606" lon="1.36342">
        <ele>302.4</ele>
        <time>2022-05-20 20:42:04</time>
      </trkpt>
      <trkpt lat="41.36064" lon="1.36339">
        <ele>302.6</ele>
        <time>2022-05-20 20:42:05</time>
      </trkpt>
      <trkpt lat="41.36068" lon="1.36336">
        <ele>303</ele>
        <time>2022-05-20 20:42:06</time>
      </trkpt>
      <trkpt lat="41.36071" lon="1.36333">
        <ele>303.4</ele>
        <time>2022-05-20 20:42:07</time>
      </trkpt>
      <trkpt lat="41.36075" lon="1.36331">
        <ele>303.8</ele>
        <time>2022-05-20 20:42:08</time>
      </trkpt>
      <trkpt lat="41.36079" lon="1.36328">
        <ele>304.2</ele>
        <time>2022-05-20 20:42:09</time>
      </trkpt>
      <trkpt lat="41.36082" lon="1.36325">
        <ele>304.6</ele>
        <time>2022-05-20 20:42:10</time>
      </trkpt>
      <trkpt lat="41.36086" lon="1.36322">
        <ele>305</ele>
        <time>2022-05-20 20:42:11</time>
      </trkpt>
      <trkpt lat="41.36089" lon="1.36319">
        <ele>305.2</ele>
        <time>2022-05-20 20:42:12</time>
      </trkpt>
      <trkpt lat="41.36092" lon="1.36316">
        <ele>305.6</ele>
        <time>2022-05-20 20:42:13</time>
      </trkpt>
      <trkpt lat="41.36095" lon="1.36313">
        <ele>306</ele>
        <time>2022-05-20 20:42:14</time>
      </trkpt>
      <trkpt lat="41.36099" lon="1.36309">
        <ele>306.4</ele>
        <time>2022-05-20 20:42:15</time>
      </trkpt>
      <trkpt lat="41.36102" lon="1.36307">
        <ele>306.8</ele>
        <time>2022-05-20 20:42:16</time>
      </trkpt>
      <trkpt lat="41.36106" lon="1.36304">
        <ele>307</ele>
        <time>2022-05-20 20:42:17</time>
      </trkpt>
      <trkpt lat="41.36109" lon="1.36301">
        <ele>307.4</ele>
        <time>2022-05-20 20:42:18</time>
      </trkpt>
      <trkpt lat="41.36113" lon="1.36298">
        <ele>307.8</ele>
        <time>2022-05-20 20:42:19</time>
      </trkpt>
      <trkpt lat="41.36116" lon="1.36295">
        <ele>308</ele>
        <time>2022-05-20 20:42:20</time>
      </trkpt>
      <trkpt lat="41.36119" lon="1.36292">
        <ele>308.4</ele>
        <time>2022-05-20 20:42:21</time>
      </trkpt>
      <trkpt lat="41.36123" lon="1.36289">
        <ele>308.6</ele>
        <time>2022-05-20 20:42:22</time>
      </trkpt>
      <trkpt lat="41.36127" lon="1.36286">
        <ele>309</ele>
        <time>2022-05-20 20:42:23</time>
      </trkpt>
      <trkpt lat="41.3613" lon="1.36284">
        <ele>309.4</ele>
        <time>2022-05-20 20:42:24</time>
      </trkpt>
      <trkpt lat="41.36134" lon="1.36282">
        <ele>309.8</ele>
        <time>2022-05-20 20:42:25</time>
      </trkpt>
      <trkpt lat="41.36138" lon="1.3628">
        <ele>310</ele>
        <time>2022-05-20 20:42:26</time>
      </trkpt>
      <trkpt lat="41.36142" lon="1.36279">
        <ele>310.4</ele>
        <time>2022-05-20 20:42:27</time>
      </trkpt>
      <trkpt lat="41.36146" lon="1.36279">
        <ele>310.8</ele>
        <time>2022-05-20 20:42:28</time>
      </trkpt>
      <trkpt lat="41.3615" lon="1.36279">
        <ele>311</ele>
        <time>2022-05-20 20:42:29</time>
      </trkpt>
      <trkpt lat="41.36154" lon="1.3628">
        <ele>311.4</ele>
        <time>2022-05-20 20:42:30</time>
      </trkpt>
      <trkpt lat="41.36158" lon="1.36282">
        <ele>311.6</ele>
        <time>2022-05-20 20:42:31</time>
      </trkpt>
      <trkpt lat="41.36163" lon="1.36284">
        <ele>311.8</ele>
        <time>2022-05-20 20:42:32</time>
      </trkpt>
      <trkpt lat="41.36168" lon="1.36286">
        <ele>312</ele>
        <time>2022-05-20 20:42:33</time>
      </trkpt>
      <trkpt lat="41.36172" lon="1.36288">
        <ele>312.2</ele>
        <time>2022-05-20 20:42:34</time>
      </trkpt>
      <trkpt lat="41.36177" lon="1.3629">
        <ele>312.4</ele>
        <time>2022-05-20 20:42:35</time>
      </trkpt>
      <trkpt lat="41.36182" lon="1.36292">
        <ele>312.6</ele>
        <time>2022-05-20 20:42:36</time>
      </trkpt>
      <trkpt lat="41.36187" lon="1.36295">
        <ele>312.8</ele>
        <time>2022-05-20 20:42:37</time>
      </trkpt>
      <trkpt lat="41.36192" lon="1.36297">
        <ele>313</ele>
        <time>2022-05-20 20:42:38</time>
      </trkpt>
      <trkpt lat="41.36197" lon="1.36299">
        <ele>313.2</ele>
        <time>2022-05-20 20:42:39</time>
      </trkpt>
      <trkpt lat="41.36202" lon="1.36302">
        <ele>313.4</ele>
        <time>2022-05-20 20:42:40</time>
      </trkpt>
      <trkpt lat="41.36207" lon="1.36304">
        <ele>313.4</ele>
        <time>2022-05-20 20:42:41</time>
      </trkpt>
      <trkpt lat="41.36212" lon="1.36307">
        <ele>313.6</ele>
        <time>2022-05-20 20:42:42</time>
      </trkpt>
      <trkpt lat="41.36217" lon="1.36309">
        <ele>313.8</ele>
        <time>2022-05-20 20:42:43</time>
      </trkpt>
      <trkpt lat="41.36222" lon="1.36311">
        <ele>314</ele>
        <time>2022-05-20 20:42:44</time>
      </trkpt>
      <trkpt lat="41.36228" lon="1.36314">
        <ele>314.2</ele>
        <time>2022-05-20 20:42:45</time>
      </trkpt>
      <trkpt lat="41.36233" lon="1.36316">
        <ele>314.4</ele>
        <time>2022-05-20 20:42:46</time>
      </trkpt>
      <trkpt lat="41.36238" lon="1.36318">
        <ele>314.8</ele>
        <time>2022-05-20 20:42:47</time>
      </trkpt>
      <trkpt lat="41.36243" lon="1.36321">
        <ele>315</ele>
        <time>2022-05-20 20:42:48</time>
      </trkpt>
      <trkpt lat="41.36248" lon="1.36323">
        <ele>315.2</ele>
        <time>2022-05-20 20:42:49</time>
      </trkpt>
      <trkpt lat="41.36253" lon="1.36325">
        <ele>315.4</ele>
        <time>2022-05-20 20:42:50</time>
      </trkpt>
      <trkpt lat="41.36258" lon="1.36328">
        <ele>315.6</ele>
        <time>2022-05-20 20:42:51</time>
      </trkpt>
      <trkpt lat="41.36263" lon="1.3633">
        <ele>315.8</ele>
        <time>2022-05-20 20:42:52</time>
      </trkpt>
      <trkpt lat="41.36269" lon="1.36333">
        <ele>316</ele>
        <time>2022-05-20 20:42:53</time>
      </trkpt>
      <trkpt lat="41.36274" lon="1.36335">
        <ele>316.2</ele>
        <time>2022-05-20 20:42:54</time>
      </trkpt>
      <trkpt lat="41.36279" lon="1.36337">
        <ele>316.4</ele>
        <time>2022-05-20 20:42:55</time>
      </trkpt>
      <trkpt lat="41.36285" lon="1.3634">
        <ele>316.6</ele>
        <time>2022-05-20 20:42:56</time>
      </trkpt>
      <trkpt lat="41.3629" lon="1.36342">
        <ele>316.8</ele>
        <time>2022-05-20 20:42:57</time>
      </trkpt>
      <trkpt lat="41.36295" lon="1.36344">
        <ele>317</ele>
        <time>2022-05-20 20:42:58</time>
      </trkpt>
      <trkpt lat="41.363" lon="1.36347">
        <ele>317.4</ele>
        <time>2022-05-20 20:42:59</time>
      </trkpt>
      <trkpt lat="41.36306" lon="1.36349">
        <ele>317.6</ele>
        <time>2022-05-20 20:43:00</time>
      </trkpt>
      <trkpt lat="41.36311" lon="1.36352">
        <ele>317.8</ele>
        <time>2022-05-20 20:43:01</time>
      </trkpt>
      <trkpt lat="41.36316" lon="1.36354">
        <ele>318</ele>
        <time>2022-05-20 20:43:02</time>
      </trkpt>
      <trkpt lat="41.36322" lon="1.36357">
        <ele>318.2</ele>
        <time>2022-05-20 20:43:03</time>
      </trkpt>
      <trkpt lat="41.36327" lon="1.36359">
        <ele>318.4</ele>
        <time>2022-05-20 20:43:04</time>
      </trkpt>
      <trkpt lat="41.36333" lon="1.36362">
        <ele>318.6</ele>
        <time>2022-05-20 20:43:05</time>
      </trkpt>
      <trkpt lat="41.36338" lon="1.36364">
        <ele>318.8</ele>
        <time>2022-05-20 20:43:06</time>
      </trkpt>
      <trkpt lat="41.36344" lon="1.36367">
        <ele>319.2</ele>
        <time>2022-05-20 20:43:07</time>
      </trkpt>
      <trkpt lat="41.36349" lon="1.3637">
        <ele>319.4</ele>
        <time>2022-05-20 20:43:08</time>
      </trkpt>
      <trkpt lat="41.36355" lon="1.36372">
        <ele>319.6</ele>
        <time>2022-05-20 20:43:09</time>
      </trkpt>
      <trkpt lat="41.36361" lon="1.36375">
        <ele>319.6</ele>
        <time>2022-05-20 20:43:10</time>
      </trkpt>
      <trkpt lat="41.36367" lon="1.36378">
        <ele>319.8</ele>
        <time>2022-05-20 20:43:11</time>
      </trkpt>
      <trkpt lat="41.36373" lon="1.3638">
        <ele>320</ele>
        <time>2022-05-20 20:43:12</time>
      </trkpt>
      <trkpt lat="41.36379" lon="1.36383">
        <ele>320.2</ele>
        <time>2022-05-20 20:43:13</time>
      </trkpt>
      <trkpt lat="41.36386" lon="1.36386">
        <ele>320.4</ele>
        <time>2022-05-20 20:43:14</time>
      </trkpt>
      <trkpt lat="41.36392" lon="1.36389">
        <ele>320.4</ele>
        <time>2022-05-20 20:43:15</time>
      </trkpt>
      <trkpt lat="41.36399" lon="1.36392">
        <ele>320.6</ele>
        <time>2022-05-20 20:43:16</time>
      </trkpt>
      <trkpt lat="41.36405" lon="1.36395">
        <ele>320.6</ele>
        <time>2022-05-20 20:43:17</time>
      </trkpt>
      <trkpt lat="41.36411" lon="1.36398">
        <ele>320.8</ele>
        <time>2022-05-20 20:43:18</time>
      </trkpt>
      <trkpt lat="41.36418" lon="1.36401">
        <ele>320.8</ele>
        <time>2022-05-20 20:43:19</time>
      </trkpt>
      <trkpt lat="41.36425" lon="1.36405">
        <ele>320.8</ele>
        <time>2022-05-20 20:43:20</time>
      </trkpt>
      <trkpt lat="41.36432" lon="1.36408">
        <ele>320.8</ele>
        <time>2022-05-20 20:43:21</time>
      </trkpt>
      <trkpt lat="41.3644" lon="1.36411">
        <ele>320.8</ele>
        <time>2022-05-20 20:43:22</time>
      </trkpt>
      <trkpt lat="41.36446" lon="1.36414">
        <ele>320.8</ele>
        <time>2022-05-20 20:43:23</time>
      </trkpt>
      <trkpt lat="41.36454" lon="1.36418">
        <ele>320.8</ele>
        <time>2022-05-20 20:43:24</time>
      </trkpt>
      <trkpt lat="41.36461" lon="1.36421">
        <ele>321</ele>
        <time>2022-05-20 20:43:25</time>
      </trkpt>
      <trkpt lat="41.36468" lon="1.36424">
        <ele>321</ele>
        <time>2022-05-20 20:43:26</time>
      </trkpt>
      <trkpt lat="41.36475" lon="1.36427">
        <ele>321</ele>
        <time>2022-05-20 20:43:27</time>
      </trkpt>
      <trkpt lat="41.36482" lon="1.3643">
        <ele>321</ele>
        <time>2022-05-20 20:43:28</time>
      </trkpt>
      <trkpt lat="41.3649" lon="1.36433">
        <ele>321</ele>
        <time>2022-05-20 20:43:29</time>
      </trkpt>
      <trkpt lat="41.36497" lon="1.36435">
        <ele>321</ele>
        <time>2022-05-20 20:43:30</time>
      </trkpt>
      <trkpt lat="41.36505" lon="1.36436">
        <ele>321</ele>
        <time>2022-05-20 20:43:31</time>
      </trkpt>
      <trkpt lat="41.36513" lon="1.36437">
        <ele>321</ele>
        <time>2022-05-20 20:43:32</time>
      </trkpt>
      <trkpt lat="41.3652" lon="1.36436">
        <ele>321</ele>
        <time>2022-05-20 20:43:33</time>
      </trkpt>
      <trkpt lat="41.36528" lon="1.36434">
        <ele>321</ele>
        <time>2022-05-20 20:43:34</time>
      </trkpt>
      <trkpt lat="41.36536" lon="1.36432">
        <ele>320.8</ele>
        <time>2022-05-20 20:43:35</time>
      </trkpt>
      <trkpt lat="41.36543" lon="1.36429">
        <ele>320.8</ele>
        <time>2022-05-20 20:43:36</time>
      </trkpt>
      <trkpt lat="41.36551" lon="1.36425">
        <ele>320.8</ele>
        <time>2022-05-20 20:43:37</time>
      </trkpt>
      <trkpt lat="41.36559" lon="1.36422">
        <ele>320.8</ele>
        <time>2022-05-20 20:43:38</time>
      </trkpt>
      <trkpt lat="41.36567" lon="1.36418">
        <ele>320.6</ele>
        <time>2022-05-20 20:43:39</time>
      </trkpt>
      <trkpt lat="41.36575" lon="1.36415">
        <ele>320.6</ele>
        <time>2022-05-20 20:43:40</time>
      </trkpt>
      <trkpt lat="41.36583" lon="1.36411">
        <ele>320.6</ele>
        <time>2022-05-20 20:43:41</time>
      </trkpt>
      <trkpt lat="41.36591" lon="1.36408">
        <ele>320.4</ele>
        <time>2022-05-20 20:43:42</time>
      </trkpt>
      <trkpt lat="41.366" lon="1.36404">
        <ele>320.4</ele>
        <time>2022-05-20 20:43:43</time>
      </trkpt>
      <trkpt lat="41.36608" lon="1.364">
        <ele>320.4</ele>
        <time>2022-05-20 20:43:44</time>
      </trkpt>
      <trkpt lat="41.36615" lon="1.36397">
        <ele>320.4</ele>
        <time>2022-05-20 20:43:45</time>
      </trkpt>
      <trkpt lat="41.36624" lon="1.36393">
        <ele>320.4</ele>
        <time>2022-05-20 20:43:46</time>
      </trkpt>
      <trkpt lat="41.36631" lon="1.3639">
        <ele>320.4</ele>
        <time>2022-05-20 20:43:47</time>
      </trkpt>
      <trkpt lat="41.36639" lon="1.36386">
        <ele>320.4</ele>
        <time>2022-05-20 20:43:48</time>
      </trkpt>
      <trkpt lat="41.36647" lon="1.36383">
        <ele>320.6</ele>
        <time>2022-05-20 20:43:49</time>
      </trkpt>
      <trkpt lat="41.36654" lon="1.3638">
        <ele>320.6</ele>
        <time>2022-05-20 20:43:50</time>
      </trkpt>
      <trkpt lat="41.36662" lon="1.36377">
        <ele>320.6</ele>
        <time>2022-05-20 20:43:51</time>
      </trkpt>
      <trkpt lat="41.3667" lon="1.36374">
        <ele>320.6</ele>
        <time>2022-05-20 20:43:52</time>
      </trkpt>
      <trkpt lat="41.36678" lon="1.36372">
        <ele>320.6</ele>
        <time>2022-05-20 20:43:53</time>
      </trkpt>
      <trkpt lat="41.36686" lon="1.36371">
        <ele>320.6</ele>
        <time>2022-05-20 20:43:54</time>
      </trkpt>
      <trkpt lat="41.36695" lon="1.36371">
        <ele>320.6</ele>
        <time>2022-05-20 20:43:55</time>
      </trkpt>
      <trkpt lat="41.36703" lon="1.36371">
        <ele>320.6</ele>
        <time>2022-05-20 20:43:56</time>
      </trkpt>
      <trkpt lat="41.36711" lon="1.36371">
        <ele>320.6</ele>
        <time>2022-05-20 20:43:57</time>
      </trkpt>
      <trkpt lat="41.3672" lon="1.36372">
        <ele>320.8</ele>
        <time>2022-05-20 20:43:58</time>
      </trkpt>
      <trkpt lat="41.36728" lon="1.36372">
        <ele>320.8</ele>
        <time>2022-05-20 20:43:59</time>
      </trkpt>
      <trkpt lat="41.36736" lon="1.36373">
        <ele>320.8</ele>
        <time>2022-05-20 20:44:00</time>
      </trkpt>
      <trkpt lat="41.36744" lon="1.36373">
        <ele>320.8</ele>
        <time>2022-05-20 20:44:01</time>
      </trkpt>
      <trkpt lat="41.36752" lon="1.36374">
        <ele>321</ele>
        <time>2022-05-20 20:44:02</time>
      </trkpt>
      <trkpt lat="41.3676" lon="1.36374">
        <ele>321</ele>
        <time>2022-05-20 20:44:03</time>
      </trkpt>
      <trkpt lat="41.36769" lon="1.36375">
        <ele>320.8</ele>
        <time>2022-05-20 20:44:04</time>
      </trkpt>
      <trkpt lat="41.36778" lon="1.36375">
        <ele>320.8</ele>
        <time>2022-05-20 20:44:05</time>
      </trkpt>
      <trkpt lat="41.36787" lon="1.36375">
        <ele>320.6</ele>
        <time>2022-05-20 20:44:06</time>
      </trkpt>
      <trkpt lat="41.36796" lon="1.36375">
        <ele>320.4</ele>
        <time>2022-05-20 20:44:07</time>
      </trkpt>
      <trkpt lat="41.36805" lon="1.36376">
        <ele>320.2</ele>
        <time>2022-05-20 20:44:08</time>
      </trkpt>
      <trkpt lat="41.36814" lon="1.36377">
        <ele>320</ele>
        <time>2022-05-20 20:44:09</time>
      </trkpt>
      <trkpt lat="41.36823" lon="1.36377">
        <ele>319.6</ele>
        <time>2022-05-20 20:44:10</time>
      </trkpt>
      <trkpt lat="41.36832" lon="1.36377">
        <ele>319.4</ele>
        <time>2022-05-20 20:44:11</time>
      </trkpt>
      <trkpt lat="41.36841" lon="1.36378">
        <ele>319.2</ele>
        <time>2022-05-20 20:44:12</time>
      </trkpt>
      <trkpt lat="41.3685" lon="1.36379">
        <ele>318.8</ele>
        <time>2022-05-20 20:44:13</time>
      </trkpt>
      <trkpt lat="41.3686" lon="1.3638">
        <ele>318.6</ele>
        <time>2022-05-20 20:44:14</time>
      </trkpt>
      <trkpt lat="41.36871" lon="1.36381">
        <ele>318.2</ele>
        <time>2022-05-20 20:44:15</time>
      </trkpt>
      <trkpt lat="41.3688" lon="1.36381">
        <ele>318</ele>
        <time>2022-05-20 20:44:16</time>
      </trkpt>
      <trkpt lat="41.36889" lon="1.36381">
        <ele>317.8</ele>
        <time>2022-05-20 20:44:17</time>
      </trkpt>
      <trkpt lat="41.36899" lon="1.36381">
        <ele>317.6</ele>
        <time>2022-05-20 20:44:18</time>
      </trkpt>
      <trkpt lat="41.36908" lon="1.36382">
        <ele>317.4</ele>
        <time>2022-05-20 20:44:19</time>
      </trkpt>
      <trkpt lat="41.36918" lon="1.36383">
        <ele>317.4</ele>
        <time>2022-05-20 20:44:20</time>
      </trkpt>
      <trkpt lat="41.36927" lon="1.36384">
        <ele>317.4</ele>
        <time>2022-05-20 20:44:21</time>
      </trkpt>
      <trkpt lat="41.36937" lon="1.36384">
        <ele>317.2</ele>
        <time>2022-05-20 20:44:22</time>
      </trkpt>
      <trkpt lat="41.36947" lon="1.36384">
        <ele>317.2</ele>
        <time>2022-05-20 20:44:23</time>
      </trkpt>
      <trkpt lat="41.36956" lon="1.36384">
        <ele>317.2</ele>
        <time>2022-05-20 20:44:24</time>
      </trkpt>
      <trkpt lat="41.36965" lon="1.36384">
        <ele>317</ele>
        <time>2022-05-20 20:44:25</time>
      </trkpt>
      <trkpt lat="41.36974" lon="1.36385">
        <ele>317</ele>
        <time>2022-05-20 20:44:26</time>
      </trkpt>
      <trkpt lat="41.36982" lon="1.36386">
        <ele>317</ele>
        <time>2022-05-20 20:44:27</time>
      </trkpt>
      <trkpt lat="41.36992" lon="1.36387">
        <ele>317</ele>
        <time>2022-05-20 20:44:28</time>
      </trkpt>
      <trkpt lat="41.37" lon="1.36387">
        <ele>317.2</ele>
        <time>2022-05-20 20:44:29</time>
      </trkpt>
      <trkpt lat="41.37009" lon="1.36387">
        <ele>317.2</ele>
        <time>2022-05-20 20:44:30</time>
      </trkpt>
      <trkpt lat="41.37018" lon="1.36388">
        <ele>317.4</ele>
        <time>2022-05-20 20:44:31</time>
      </trkpt>
      <trkpt lat="41.37027" lon="1.36388">
        <ele>317.4</ele>
        <time>2022-05-20 20:44:32</time>
      </trkpt>
      <trkpt lat="41.37035" lon="1.36389">
        <ele>317.6</ele>
        <time>2022-05-20 20:44:33</time>
      </trkpt>
      <trkpt lat="41.37043" lon="1.36389">
        <ele>317.6</ele>
        <time>2022-05-20 20:44:34</time>
      </trkpt>
      <trkpt lat="41.37052" lon="1.3639">
        <ele>317.8</ele>
        <time>2022-05-20 20:44:35</time>
      </trkpt>
      <trkpt lat="41.3706" lon="1.36391">
        <ele>317.8</ele>
        <time>2022-05-20 20:44:36</time>
      </trkpt>
      <trkpt lat="41.37068" lon="1.36391">
        <ele>318</ele>
        <time>2022-05-20 20:44:37</time>
      </trkpt>
      <trkpt lat="41.37076" lon="1.36391">
        <ele>318.2</ele>
        <time>2022-05-20 20:44:38</time>
      </trkpt>
      <trkpt lat="41.37084" lon="1.36392">
        <ele>318.2</ele>
        <time>2022-05-20 20:44:39</time>
      </trkpt>
      <trkpt lat="41.37093" lon="1.36392">
        <ele>318.4</ele>
        <time>2022-05-20 20:44:40</time>
      </trkpt>
      <trkpt lat="41.37101" lon="1.36393">
        <ele>318.4</ele>
        <time>2022-05-20 20:44:41</time>
      </trkpt>
      <trkpt lat="41.37108" lon="1.36393">
        <ele>318.6</ele>
        <time>2022-05-20 20:44:42</time>
      </trkpt>
      <trkpt lat="41.37117" lon="1.36394">
        <ele>318.8</ele>
        <time>2022-05-20 20:44:43</time>
      </trkpt>
      <trkpt lat="41.37124" lon="1.36394">
        <ele>318.8</ele>
        <time>2022-05-20 20:44:44</time>
      </trkpt>
      <trkpt lat="41.37132" lon="1.36394">
        <ele>319</ele>
        <time>2022-05-20 20:44:45</time>
      </trkpt>
      <trkpt lat="41.37141" lon="1.36395">
        <ele>319.2</ele>
        <time>2022-05-20 20:44:46</time>
      </trkpt>
      <trkpt lat="41.37149" lon="1.36395">
        <ele>319.2</ele>
        <time>2022-05-20 20:44:47</time>
      </trkpt>
      <trkpt lat="41.37157" lon="1.36395">
        <ele>319.4</ele>
        <time>2022-05-20 20:44:48</time>
      </trkpt>
      <trkpt lat="41.37165" lon="1.36396">
        <ele>319.6</ele>
        <time>2022-05-20 20:44:49</time>
      </trkpt>
      <trkpt lat="41.37172" lon="1.36397">
        <ele>319.8</ele>
        <time>2022-05-20 20:44:50</time>
      </trkpt>
      <trkpt lat="41.3718" lon="1.36398">
        <ele>319.8</ele>
        <time>2022-05-20 20:44:51</time>
      </trkpt>
      <trkpt lat="41.37188" lon="1.36398">
        <ele>320</ele>
        <time>2022-05-20 20:44:52</time>
      </trkpt>
      <trkpt lat="41.37196" lon="1.36399">
        <ele>320.2</ele>
        <time>2022-05-20 20:44:53</time>
      </trkpt>
      <trkpt lat="41.37203" lon="1.36399">
        <ele>320.2</ele>
        <time>2022-05-20 20:44:54</time>
      </trkpt>
      <trkpt lat="41.3721" lon="1.36399">
        <ele>320.4</ele>
        <time>2022-05-20 20:44:55</time>
      </trkpt>
      <trkpt lat="41.37218" lon="1.364">
        <ele>320.4</ele>
        <time>2022-05-20 20:44:56</time>
      </trkpt>
      <trkpt lat="41.37226" lon="1.364">
        <ele>320.6</ele>
        <time>2022-05-20 20:44:57</time>
      </trkpt>
      <trkpt lat="41.37234" lon="1.36401">
        <ele>320.6</ele>
        <time>2022-05-20 20:44:58</time>
      </trkpt>
      <trkpt lat="41.37242" lon="1.36401">
        <ele>320.8</ele>
        <time>2022-05-20 20:44:59</time>
      </trkpt>
      <trkpt lat="41.3725" lon="1.36402">
        <ele>320.8</ele>
        <time>2022-05-20 20:45:00</time>
      </trkpt>
      <trkpt lat="41.37258" lon="1.36402">
        <ele>321</ele>
        <time>2022-05-20 20:45:01</time>
      </trkpt>
      <trkpt lat="41.37266" lon="1.36402">
        <ele>321</ele>
        <time>2022-05-20 20:45:02</time>
      </trkpt>
      <trkpt lat="41.37275" lon="1.36403">
        <ele>321</ele>
        <time>2022-05-20 20:45:03</time>
      </trkpt>
      <trkpt lat="41.37283" lon="1.36403">
        <ele>321</ele>
        <time>2022-05-20 20:45:04</time>
      </trkpt>
      <trkpt lat="41.37291" lon="1.36403">
        <ele>321.2</ele>
        <time>2022-05-20 20:45:05</time>
      </trkpt>
      <trkpt lat="41.37298" lon="1.36404">
        <ele>321.2</ele>
        <time>2022-05-20 20:45:06</time>
      </trkpt>
      <trkpt lat="41.37306" lon="1.36404">
        <ele>321.2</ele>
        <time>2022-05-20 20:45:07</time>
      </trkpt>
      <trkpt lat="41.37314" lon="1.36404">
        <ele>321.2</ele>
        <time>2022-05-20 20:45:08</time>
      </trkpt>
      <trkpt lat="41.37322" lon="1.36405">
        <ele>321</ele>
        <time>2022-05-20 20:45:09</time>
      </trkpt>
      <trkpt lat="41.37331" lon="1.36405">
        <ele>321.2</ele>
        <time>2022-05-20 20:45:10</time>
      </trkpt>
      <trkpt lat="41.37339" lon="1.36406">
        <ele>321.2</ele>
        <time>2022-05-20 20:45:11</time>
      </trkpt>
      <trkpt lat="41.37347" lon="1.36406">
        <ele>321.2</ele>
        <time>2022-05-20 20:45:12</time>
      </trkpt>
      <trkpt lat="41.37355" lon="1.36407">
        <ele>321.2</ele>
        <time>2022-05-20 20:45:13</time>
      </trkpt>
      <trkpt lat="41.37364" lon="1.36407">
        <ele>321.2</ele>
        <time>2022-05-20 20:45:14</time>
      </trkpt>
      <trkpt lat="41.37372" lon="1.36407">
        <ele>321.2</ele>
        <time>2022-05-20 20:45:15</time>
      </trkpt>
      <trkpt lat="41.37381" lon="1.36407">
        <ele>321.2</ele>
        <time>2022-05-20 20:45:16</time>
      </trkpt>
      <trkpt lat="41.37389" lon="1.36408">
        <ele>321</ele>
        <time>2022-05-20 20:45:17</time>
      </trkpt>
      <trkpt lat="41.37398" lon="1.36408">
        <ele>321</ele>
        <time>2022-05-20 20:45:18</time>
      </trkpt>
      <trkpt lat="41.37407" lon="1.36408">
        <ele>320.8</ele>
        <time>2022-05-20 20:45:19</time>
      </trkpt>
      <trkpt lat="41.37416" lon="1.36407">
        <ele>320.4</ele>
        <time>2022-05-20 20:45:20</time>
      </trkpt>
      <trkpt lat="41.37425" lon="1.36407">
        <ele>320.2</ele>
        <time>2022-05-20 20:45:21</time>
      </trkpt>
      <trkpt lat="41.37434" lon="1.36407">
        <ele>320</ele>
        <time>2022-05-20 20:45:22</time>
      </trkpt>
      <trkpt lat="41.37444" lon="1.36407">
        <ele>319.6</ele>
        <time>2022-05-20 20:45:23</time>
      </trkpt>
      <trkpt lat="41.37453" lon="1.36407">
        <ele>319.2</ele>
        <time>2022-05-20 20:45:24</time>
      </trkpt>
      <trkpt lat="41.37462" lon="1.36407">
        <ele>318.8</ele>
        <time>2022-05-20 20:45:25</time>
      </trkpt>
      <trkpt lat="41.37473" lon="1.36407">
        <ele>318.4</ele>
        <time>2022-05-20 20:45:26</time>
      </trkpt>
      <trkpt lat="41.37483" lon="1.36407">
        <ele>318</ele>
        <time>2022-05-20 20:45:27</time>
      </trkpt>
      <trkpt lat="41.37493" lon="1.36407">
        <ele>317.4</ele>
        <time>2022-05-20 20:45:28</time>
      </trkpt>
      <trkpt lat="41.37504" lon="1.36408">
        <ele>317</ele>
        <time>2022-05-20 20:45:29</time>
      </trkpt>
      <trkpt lat="41.37515" lon="1.36408">
        <ele>316.4</ele>
        <time>2022-05-20 20:45:30</time>
      </trkpt>
      <trkpt lat="41.37526" lon="1.36408">
        <ele>316</ele>
        <time>2022-05-20 20:45:31</time>
      </trkpt>
      <trkpt lat="41.37537" lon="1.36409">
        <ele>315.6</ele>
        <time>2022-05-20 20:45:32</time>
      </trkpt>
      <trkpt lat="41.37548" lon="1.36408">
        <ele>315.4</ele>
        <time>2022-05-20 20:45:33</time>
      </trkpt>
      <trkpt lat="41.37559" lon="1.36408">
        <ele>315.2</ele>
        <time>2022-05-20 20:45:34</time>
      </trkpt>
      <trkpt lat="41.37569" lon="1.36408">
        <ele>314.8</ele>
        <time>2022-05-20 20:45:35</time>
      </trkpt>
      <trkpt lat="41.3758" lon="1.36409">
        <ele>314.6</ele>
        <time>2022-05-20 20:45:36</time>
      </trkpt>
      <trkpt lat="41.37589" lon="1.36409">
        <ele>314.4</ele>
        <time>2022-05-20 20:45:37</time>
      </trkpt>
      <trkpt lat="41.376" lon="1.36409">
        <ele>314.4</ele>
        <time>2022-05-20 20:45:38</time>
      </trkpt>
      <trkpt lat="41.37609" lon="1.36409">
        <ele>314.2</ele>
        <time>2022-05-20 20:45:39</time>
      </trkpt>
      <trkpt lat="41.37618" lon="1.36409">
        <ele>314.2</ele>
        <time>2022-05-20 20:45:40</time>
      </trkpt>
      <trkpt lat="41.37629" lon="1.36409">
        <ele>314.2</ele>
        <time>2022-05-20 20:45:41</time>
      </trkpt>
      <trkpt lat="41.37638" lon="1.36409">
        <ele>314.2</ele>
        <time>2022-05-20 20:45:42</time>
      </trkpt>
      <trkpt lat="41.37648" lon="1.36409">
        <ele>314.4</ele>
        <time>2022-05-20 20:45:43</time>
      </trkpt>
      <trkpt lat="41.37657" lon="1.36409">
        <ele>314.4</ele>
        <time>2022-05-20 20:45:44</time>
      </trkpt>
      <trkpt lat="41.37666" lon="1.3641">
        <ele>314.6</ele>
        <time>2022-05-20 20:45:45</time>
      </trkpt>
      <trkpt lat="41.37674" lon="1.3641">
        <ele>314.8</ele>
        <time>2022-05-20 20:45:46</time>
      </trkpt>
      <trkpt lat="41.37683" lon="1.3641">
        <ele>315</ele>
        <time>2022-05-20 20:45:47</time>
      </trkpt>
      <trkpt lat="41.37692" lon="1.36411">
        <ele>315.2</ele>
        <time>2022-05-20 20:45:48</time>
      </trkpt>
      <trkpt lat="41.377" lon="1.36411">
        <ele>315.2</ele>
        <time>2022-05-20 20:45:49</time>
      </trkpt>
      <trkpt lat="41.37709" lon="1.36411">
        <ele>315.4</ele>
        <time>2022-05-20 20:45:50</time>
      </trkpt>
      <trkpt lat="41.37717" lon="1.36411">
        <ele>315.6</ele>
        <time>2022-05-20 20:45:51</time>
      </trkpt>
      <trkpt lat="41.37725" lon="1.36411">
        <ele>315.8</ele>
        <time>2022-05-20 20:45:52</time>
      </trkpt>
      <trkpt lat="41.37732" lon="1.36411">
        <ele>315.8</ele>
        <time>2022-05-20 20:45:53</time>
      </trkpt>
      <trkpt lat="41.3774" lon="1.36411">
        <ele>316</ele>
        <time>2022-05-20 20:45:54</time>
      </trkpt>
      <trkpt lat="41.37748" lon="1.36411">
        <ele>316.2</ele>
        <time>2022-05-20 20:45:55</time>
      </trkpt>
      <trkpt lat="41.37756" lon="1.36411">
        <ele>316.2</ele>
        <time>2022-05-20 20:45:56</time>
      </trkpt>
      <trkpt lat="41.37764" lon="1.3641">
        <ele>316.4</ele>
        <time>2022-05-20 20:45:57</time>
      </trkpt>
      <trkpt lat="41.37772" lon="1.36409">
        <ele>316.6</ele>
        <time>2022-05-20 20:45:58</time>
      </trkpt>
      <trkpt lat="41.3778" lon="1.36407">
        <ele>316.8</ele>
        <time>2022-05-20 20:45:59</time>
      </trkpt>
      <trkpt lat="41.37787" lon="1.36404">
        <ele>316.8</ele>
        <time>2022-05-20 20:46:00</time>
      </trkpt>
      <trkpt lat="41.37795" lon="1.36401">
        <ele>317</ele>
        <time>2022-05-20 20:46:01</time>
      </trkpt>
      <trkpt lat="41.37803" lon="1.36398">
        <ele>317.2</ele>
        <time>2022-05-20 20:46:02</time>
      </trkpt>
      <trkpt lat="41.3781" lon="1.36395">
        <ele>317.4</ele>
        <time>2022-05-20 20:46:03</time>
      </trkpt>
      <trkpt lat="41.37817" lon="1.36392">
        <ele>317.4</ele>
        <time>2022-05-20 20:46:04</time>
      </trkpt>
      <trkpt lat="41.37825" lon="1.36389">
        <ele>317.6</ele>
        <time>2022-05-20 20:46:05</time>
      </trkpt>
      <trkpt lat="41.37832" lon="1.36386">
        <ele>317.8</ele>
        <time>2022-05-20 20:46:06</time>
      </trkpt>
      <trkpt lat="41.37839" lon="1.36382">
        <ele>317.8</ele>
        <time>2022-05-20 20:46:07</time>
      </trkpt>
      <trkpt lat="41.37846" lon="1.36378">
        <ele>318</ele>
        <time>2022-05-20 20:46:08</time>
      </trkpt>
      <trkpt lat="41.37852" lon="1.36374">
        <ele>318</ele>
        <time>2022-05-20 20:46:09</time>
      </trkpt>
      <trkpt lat="41.3786" lon="1.3637">
        <ele>318.2</ele>
        <time>2022-05-20 20:46:10</time>
      </trkpt>
      <trkpt lat="41.37867" lon="1.36365">
        <ele>318.2</ele>
        <time>2022-05-20 20:46:11</time>
      </trkpt>
      <trkpt lat="41.37873" lon="1.3636">
        <ele>318.4</ele>
        <time>2022-05-20 20:46:12</time>
      </trkpt>
      <trkpt lat="41.3788" lon="1.36356">
        <ele>318.4</ele>
        <time>2022-05-20 20:46:13</time>
      </trkpt>
      <trkpt lat="41.37886" lon="1.3635">
        <ele>318.6</ele>
        <time>2022-05-20 20:46:14</time>
      </trkpt>
      <trkpt lat="41.37891" lon="1.36345">
        <ele>318.6</ele>
        <time>2022-05-20 20:46:15</time>
      </trkpt>
      <trkpt lat="41.37897" lon="1.36339">
        <ele>318.8</ele>
        <time>2022-05-20 20:46:16</time>
      </trkpt>
      <trkpt lat="41.37902" lon="1.36334">
        <ele>319</ele>
        <time>2022-05-20 20:46:17</time>
      </trkpt>
      <trkpt lat="41.37908" lon="1.36327">
        <ele>319.2</ele>
        <time>2022-05-20 20:46:18</time>
      </trkpt>
      <trkpt lat="41.37913" lon="1.36321">
        <ele>319.4</ele>
        <time>2022-05-20 20:46:19</time>
      </trkpt>
      <trkpt lat="41.37918" lon="1.36315">
        <ele>319.6</ele>
        <time>2022-05-20 20:46:20</time>
      </trkpt>
      <trkpt lat="41.37923" lon="1.36309">
        <ele>319.8</ele>
        <time>2022-05-20 20:46:21</time>
      </trkpt>
      <trkpt lat="41.37928" lon="1.36303">
        <ele>320</ele>
        <time>2022-05-20 20:46:22</time>
      </trkpt>
      <trkpt lat="41.37933" lon="1.36297">
        <ele>320.2</ele>
        <time>2022-05-20 20:46:23</time>
      </trkpt>
      <trkpt lat="41.37937" lon="1.36291">
        <ele>320.4</ele>
        <time>2022-05-20 20:46:24</time>
      </trkpt>
      <trkpt lat="41.37943" lon="1.36285">
        <ele>320.6</ele>
        <time>2022-05-20 20:46:25</time>
      </trkpt>
      <trkpt lat="41.37947" lon="1.36279">
        <ele>320.8</ele>
        <time>2022-05-20 20:46:26</time>
      </trkpt>
      <trkpt lat="41.37952" lon="1.36273">
        <ele>321</ele>
        <time>2022-05-20 20:46:27</time>
      </trkpt>
      <trkpt lat="41.37957" lon="1.36267">
        <ele>321.2</ele>
        <time>2022-05-20 20:46:28</time>
      </trkpt>
      <trkpt lat="41.37962" lon="1.36262">
        <ele>321.4</ele>
        <time>2022-05-20 20:46:29</time>
      </trkpt>
      <trkpt lat="41.37967" lon="1.36256">
        <ele>321.6</ele>
        <time>2022-05-20 20:46:30</time>
      </trkpt>
      <trkpt lat="41.37971" lon="1.3625">
        <ele>321.8</ele>
        <time>2022-05-20 20:46:31</time>
      </trkpt>
      <trkpt lat="41.37976" lon="1.36244">
        <ele>321.8</ele>
        <time>2022-05-20 20:46:32</time>
      </trkpt>
      <trkpt lat="41.3798" lon="1.36237">
        <ele>322</ele>
        <time>2022-05-20 20:46:33</time>
      </trkpt>
      <trkpt lat="41.37984" lon="1.36231">
        <ele>322.2</ele>
        <time>2022-05-20 20:46:34</time>
      </trkpt>
      <trkpt lat="41.37988" lon="1.36225">
        <ele>322.4</ele>
        <time>2022-05-20 20:46:35</time>
      </trkpt>
      <trkpt lat="41.37993" lon="1.36218">
        <ele>322.6</ele>
        <time>2022-05-20 20:46:36</time>
      </trkpt>
      <trkpt lat="41.37998" lon="1.36211">
        <ele>322.6</ele>
        <time>2022-05-20 20:46:37</time>
      </trkpt>
      <trkpt lat="41.38002" lon="1.36205">
        <ele>322.6</ele>
        <time>2022-05-20 20:46:38</time>
      </trkpt>
      <trkpt lat="41.38007" lon="1.36198">
        <ele>322.8</ele>
        <time>2022-05-20 20:46:39</time>
      </trkpt>
      <trkpt lat="41.38012" lon="1.36191">
        <ele>322.8</ele>
        <time>2022-05-20 20:46:40</time>
      </trkpt>
      <trkpt lat="41.38017" lon="1.36185">
        <ele>322.8</ele>
        <time>2022-05-20 20:46:41</time>
      </trkpt>
      <trkpt lat="41.38023" lon="1.36178">
        <ele>322.8</ele>
        <time>2022-05-20 20:46:42</time>
      </trkpt>
      <trkpt lat="41.38028" lon="1.36172">
        <ele>322.8</ele>
        <time>2022-05-20 20:46:43</time>
      </trkpt>
      <trkpt lat="41.38034" lon="1.36167">
        <ele>322.6</ele>
        <time>2022-05-20 20:46:44</time>
      </trkpt>
      <trkpt lat="41.38041" lon="1.36161">
        <ele>322.6</ele>
        <time>2022-05-20 20:46:45</time>
      </trkpt>
      <trkpt lat="41.38046" lon="1.36156">
        <ele>322.8</ele>
        <time>2022-05-20 20:46:46</time>
      </trkpt>
      <trkpt lat="41.38052" lon="1.36152">
        <ele>322.8</ele>
        <time>2022-05-20 20:46:47</time>
      </trkpt>
      <trkpt lat="41.38058" lon="1.36146">
        <ele>322.8</ele>
        <time>2022-05-20 20:46:48</time>
      </trkpt>
      <trkpt lat="41.38064" lon="1.36142">
        <ele>322.8</ele>
        <time>2022-05-20 20:46:49</time>
      </trkpt>
      <trkpt lat="41.3807" lon="1.36137">
        <ele>323</ele>
        <time>2022-05-20 20:46:50</time>
      </trkpt>
      <trkpt lat="41.38076" lon="1.36133">
        <ele>323</ele>
        <time>2022-05-20 20:46:51</time>
      </trkpt>
      <trkpt lat="41.38082" lon="1.36129">
        <ele>323.2</ele>
        <time>2022-05-20 20:46:52</time>
      </trkpt>
      <trkpt lat="41.38089" lon="1.36126">
        <ele>323.2</ele>
        <time>2022-05-20 20:46:53</time>
      </trkpt>
      <trkpt lat="41.38095" lon="1.36122">
        <ele>323.4</ele>
        <time>2022-05-20 20:46:54</time>
      </trkpt>
      <trkpt lat="41.38102" lon="1.36119">
        <ele>323.6</ele>
        <time>2022-05-20 20:46:55</time>
      </trkpt>
      <trkpt lat="41.38108" lon="1.36116">
        <ele>324</ele>
        <time>2022-05-20 20:46:56</time>
      </trkpt>
      <trkpt lat="41.38113" lon="1.36114">
        <ele>324.2</ele>
        <time>2022-05-20 20:46:57</time>
      </trkpt>
      <trkpt lat="41.38119" lon="1.36111">
        <ele>324.6</ele>
        <time>2022-05-20 20:46:58</time>
      </trkpt>
      <trkpt lat="41.38125" lon="1.36109">
        <ele>324.8</ele>
        <time>2022-05-20 20:46:59</time>
      </trkpt>
      <trkpt lat="41.38131" lon="1.36108">
        <ele>325.2</ele>
        <time>2022-05-20 20:47:00</time>
      </trkpt>
      <trkpt lat="41.38136" lon="1.36106">
        <ele>325.6</ele>
        <time>2022-05-20 20:47:01</time>
      </trkpt>
      <trkpt lat="41.38141" lon="1.36105">
        <ele>325.8</ele>
        <time>2022-05-20 20:47:02</time>
      </trkpt>
      <trkpt lat="41.38147" lon="1.36105">
        <ele>326</ele>
        <time>2022-05-20 20:47:03</time>
      </trkpt>
      <trkpt lat="41.38153" lon="1.36106">
        <ele>326.2</ele>
        <time>2022-05-20 20:47:04</time>
      </trkpt>
      <trkpt lat="41.38159" lon="1.36108">
        <ele>326.4</ele>
        <time>2022-05-20 20:47:05</time>
      </trkpt>
      <trkpt lat="41.38164" lon="1.36112">
        <ele>326.6</ele>
        <time>2022-05-20 20:47:06</time>
      </trkpt>
      <trkpt lat="41.38169" lon="1.36116">
        <ele>326.8</ele>
        <time>2022-05-20 20:47:07</time>
      </trkpt>
      <trkpt lat="41.38173" lon="1.36121">
        <ele>327</ele>
        <time>2022-05-20 20:47:08</time>
      </trkpt>
      <trkpt lat="41.38178" lon="1.36126">
        <ele>327.2</ele>
        <time>2022-05-20 20:47:09</time>
      </trkpt>
      <trkpt lat="41.38182" lon="1.36132">
        <ele>327.4</ele>
        <time>2022-05-20 20:47:10</time>
      </trkpt>
      <trkpt lat="41.38186" lon="1.36138">
        <ele>327.6</ele>
        <time>2022-05-20 20:47:11</time>
      </trkpt>
      <trkpt lat="41.3819" lon="1.36143">
        <ele>327.6</ele>
        <time>2022-05-20 20:47:12</time>
      </trkpt>
      <trkpt lat="41.38194" lon="1.36148">
        <ele>327.8</ele>
        <time>2022-05-20 20:47:13</time>
      </trkpt>
      <trkpt lat="41.38197" lon="1.36153">
        <ele>328</ele>
        <time>2022-05-20 20:47:14</time>
      </trkpt>
      <trkpt lat="41.38202" lon="1.36158">
        <ele>328.2</ele>
        <time>2022-05-20 20:47:15</time>
      </trkpt>
      <trkpt lat="41.38206" lon="1.36161">
        <ele>328.6</ele>
        <time>2022-05-20 20:47:16</time>
      </trkpt>
      <trkpt lat="41.38211" lon="1.36165">
        <ele>328.8</ele>
        <time>2022-05-20 20:47:17</time>
      </trkpt>
      <trkpt lat="41.38216" lon="1.36167">
        <ele>329</ele>
        <time>2022-05-20 20:47:18</time>
      </trkpt>
      <trkpt lat="41.38221" lon="1.36168">
        <ele>329.2</ele>
        <time>2022-05-20 20:47:19</time>
      </trkpt>
      <trkpt lat="41.38227" lon="1.36167">
        <ele>329.4</ele>
        <time>2022-05-20 20:47:20</time>
      </trkpt>
      <trkpt lat="41.38232" lon="1.36165">
        <ele>329.6</ele>
        <time>2022-05-20 20:47:21</time>
      </trkpt>
      <trkpt lat="41.38237" lon="1.36163">
        <ele>329.6</ele>
        <time>2022-05-20 20:47:22</time>
      </trkpt>
      <trkpt lat="41.38241" lon="1.3616">
        <ele>329.8</ele>
        <time>2022-05-20 20:47:23</time>
      </trkpt>
      <trkpt lat="41.38245" lon="1.36157">
        <ele>330</ele>
        <time>2022-05-20 20:47:24</time>
      </trkpt>
      <trkpt lat="41.3825" lon="1.36153">
        <ele>330.4</ele>
        <time>2022-05-20 20:47:25</time>
      </trkpt>
      <trkpt lat="41.38254" lon="1.36151">
        <ele>330.6</ele>
        <time>2022-05-20 20:47:26</time>
      </trkpt>
      <trkpt lat="41.38258" lon="1.36148">
        <ele>330.8</ele>
        <time>2022-05-20 20:47:27</time>
      </trkpt>
      <trkpt lat="41.38262" lon="1.36146">
        <ele>331.2</ele>
        <time>2022-05-20 20:47:28</time>
      </trkpt>
      <trkpt lat="41.38266" lon="1.36143">
        <ele>331.4</ele>
        <time>2022-05-20 20:47:29</time>
      </trkpt>
      <trkpt lat="41.38271" lon="1.3614">
        <ele>331.6</ele>
        <time>2022-05-20 20:47:30</time>
      </trkpt>
      <trkpt lat="41.38274" lon="1.36137">
        <ele>332</ele>
        <time>2022-05-20 20:47:31</time>
      </trkpt>
      <trkpt lat="41.38278" lon="1.36135">
        <ele>332.2</ele>
        <time>2022-05-20 20:47:32</time>
      </trkpt>
      <trkpt lat="41.38282" lon="1.36132">
        <ele>332.4</ele>
        <time>2022-05-20 20:47:33</time>
      </trkpt>
      <trkpt lat="41.38287" lon="1.36129">
        <ele>332.6</ele>
        <time>2022-05-20 20:47:34</time>
      </trkpt>
      <trkpt lat="41.3829" lon="1.36127">
        <ele>332.8</ele>
        <time>2022-05-20 20:47:35</time>
      </trkpt>
      <trkpt lat="41.38294" lon="1.36124">
        <ele>333.2</ele>
        <time>2022-05-20 20:47:36</time>
      </trkpt>
      <trkpt lat="41.38298" lon="1.36121">
        <ele>333.4</ele>
        <time>2022-05-20 20:47:37</time>
      </trkpt>
      <trkpt lat="41.38303" lon="1.36119">
        <ele>333.6</ele>
        <time>2022-05-20 20:47:38</time>
      </trkpt>
      <trkpt lat="41.38306" lon="1.36117">
        <ele>333.8</ele>
        <time>2022-05-20 20:47:39</time>
      </trkpt>
      <trkpt lat="41.38309" lon="1.36116">
        <ele>334</ele>
        <time>2022-05-20 20:47:40</time>
      </trkpt>
      <trkpt lat="41.38315" lon="1.36114">
        <ele>334.4</ele>
        <time>2022-05-20 20:47:41</time>
      </trkpt>
      <trkpt lat="41.38319" lon="1.36114">
        <ele>334.6</ele>
        <time>2022-05-20 20:47:42</time>
      </trkpt>
      <trkpt lat="41.38323" lon="1.36114">
        <ele>334.8</ele>
        <time>2022-05-20 20:47:43</time>
      </trkpt>
      <trkpt lat="41.38327" lon="1.36114">
        <ele>335.2</ele>
        <time>2022-05-20 20:47:44</time>
      </trkpt>
      <trkpt lat="41.38332" lon="1.36115">
        <ele>335.4</ele>
        <time>2022-05-20 20:47:45</time>
      </trkpt>
      <trkpt lat="41.38337" lon="1.36115">
        <ele>335.8</ele>
        <time>2022-05-20 20:47:46</time>
      </trkpt>
      <trkpt lat="41.38341" lon="1.36116">
        <ele>336</ele>
        <time>2022-05-20 20:47:47</time>
      </trkpt>
      <trkpt lat="41.38345" lon="1.36117">
        <ele>336.2</ele>
        <time>2022-05-20 20:47:48</time>
      </trkpt>
      <trkpt lat="41.3835" lon="1.36117">
        <ele>336.4</ele>
        <time>2022-05-20 20:47:49</time>
      </trkpt>
      <trkpt lat="41.38354" lon="1.36118">
        <ele>336.4</ele>
        <time>2022-05-20 20:47:50</time>
      </trkpt>
      <trkpt lat="41.38359" lon="1.36119">
        <ele>336.6</ele>
        <time>2022-05-20 20:47:51</time>
      </trkpt>
      <trkpt lat="41.38364" lon="1.36119">
        <ele>336.8</ele>
        <time>2022-05-20 20:47:52</time>
      </trkpt>
      <trkpt lat="41.3837" lon="1.3612">
        <ele>337</ele>
        <time>2022-05-20 20:47:53</time>
      </trkpt>
      <trkpt lat="41.38374" lon="1.36121">
        <ele>337</ele>
        <time>2022-05-20 20:47:54</time>
      </trkpt>
      <trkpt lat="41.38379" lon="1.36121">
        <ele>337.2</ele>
        <time>2022-05-20 20:47:55</time>
      </trkpt>
      <trkpt lat="41.38384" lon="1.36122">
        <ele>337.4</ele>
        <time>2022-05-20 20:47:56</time>
      </trkpt>
      <trkpt lat="41.3839" lon="1.36122">
        <ele>337.6</ele>
        <time>2022-05-20 20:47:57</time>
      </trkpt>
      <trkpt lat="41.38395" lon="1.36123">
        <ele>337.8</ele>
        <time>2022-05-20 20:47:58</time>
      </trkpt>
      <trkpt lat="41.384" lon="1.36123">
        <ele>338</ele>
        <time>2022-05-20 20:47:59</time>
      </trkpt>
      <trkpt lat="41.38405" lon="1.36123">
        <ele>338.2</ele>
        <time>2022-05-20 20:48:00</time>
      </trkpt>
      <trkpt lat="41.3841" lon="1.36123">
        <ele>338.4</ele>
        <time>2022-05-20 20:48:01</time>
      </trkpt>
      <trkpt lat="41.38415" lon="1.36121">
        <ele>338.6</ele>
        <time>2022-05-20 20:48:02</time>
      </trkpt>
      <trkpt lat="41.38418" lon="1.36118">
        <ele>338.8</ele>
        <time>2022-05-20 20:48:03</time>
      </trkpt>
      <trkpt lat="41.38421" lon="1.36114">
        <ele>339</ele>
        <time>2022-05-20 20:48:04</time>
      </trkpt>
      <trkpt lat="41.38424" lon="1.36108">
        <ele>339.4</ele>
        <time>2022-05-20 20:48:05</time>
      </trkpt>
      <trkpt lat="41.38426" lon="1.36102">
        <ele>339.6</ele>
        <time>2022-05-20 20:48:06</time>
      </trkpt>
      <trkpt lat="41.38427" lon="1.36096">
        <ele>340</ele>
        <time>2022-05-20 20:48:07</time>
      </trkpt>
      <trkpt lat="41.38428" lon="1.36091">
        <ele>340.2</ele>
        <time>2022-05-20 20:48:08</time>
      </trkpt>
      <trkpt lat="41.38429" lon="1.36086">
        <ele>340.6</ele>
        <time>2022-05-20 20:48:09</time>
      </trkpt>
      <trkpt lat="41.38431" lon="1.36082">
        <ele>341</ele>
        <time>2022-05-20 20:48:10</time>
      </trkpt>
      <trkpt lat="41.38433" lon="1.36079">
        <ele>341.4</ele>
        <time>2022-05-20 20:48:11</time>
      </trkpt>
      <trkpt lat="41.38436" lon="1.36077">
        <ele>341.6</ele>
        <time>2022-05-20 20:48:12</time>
      </trkpt>
      <trkpt lat="41.3844" lon="1.36076">
        <ele>341.8</ele>
        <time>2022-05-20 20:48:13</time>
      </trkpt>
      <trkpt lat="41.38445" lon="1.36076">
        <ele>342</ele>
        <time>2022-05-20 20:48:14</time>
      </trkpt>
      <trkpt lat="41.38449" lon="1.36076">
        <ele>342.2</ele>
        <time>2022-05-20 20:48:15</time>
      </trkpt>
      <trkpt lat="41.38454" lon="1.36077">
        <ele>342.2</ele>
        <time>2022-05-20 20:48:16</time>
      </trkpt>
      <trkpt lat="41.38459" lon="1.36077">
        <ele>342.4</ele>
        <time>2022-05-20 20:48:17</time>
      </trkpt>
      <trkpt lat="41.38464" lon="1.36077">
        <ele>342.4</ele>
        <time>2022-05-20 20:48:18</time>
      </trkpt>
      <trkpt lat="41.38469" lon="1.36078">
        <ele>342.4</ele>
        <time>2022-05-20 20:48:19</time>
      </trkpt>
      <trkpt lat="41.38474" lon="1.36078">
        <ele>342.4</ele>
        <time>2022-05-20 20:48:20</time>
      </trkpt>
      <trkpt lat="41.3848" lon="1.36079">
        <ele>342.4</ele>
        <time>2022-05-20 20:48:21</time>
      </trkpt>
      <trkpt lat="41.38485" lon="1.36081">
        <ele>342.6</ele>
        <time>2022-05-20 20:48:22</time>
      </trkpt>
      <trkpt lat="41.3849" lon="1.36082">
        <ele>342.6</ele>
        <time>2022-05-20 20:48:23</time>
      </trkpt>
      <trkpt lat="41.38495" lon="1.36085">
        <ele>342.6</ele>
        <time>2022-05-20 20:48:24</time>
      </trkpt>
      <trkpt lat="41.38501" lon="1.36087">
        <ele>342.4</ele>
        <time>2022-05-20 20:48:25</time>
      </trkpt>
      <trkpt lat="41.38508" lon="1.36088">
        <ele>342.2</ele>
        <time>2022-05-20 20:48:26</time>
      </trkpt>
      <trkpt lat="41.38515" lon="1.36087">
        <ele>342</ele>
        <time>2022-05-20 20:48:27</time>
      </trkpt>
      <trkpt lat="41.38522" lon="1.36085">
        <ele>341.6</ele>
        <time>2022-05-20 20:48:28</time>
      </trkpt>
      <trkpt lat="41.38528" lon="1.36081">
        <ele>341.4</ele>
        <time>2022-05-20 20:48:29</time>
      </trkpt>
      <trkpt lat="41.38535" lon="1.36077">
        <ele>341</ele>
        <time>2022-05-20 20:48:30</time>
      </trkpt>
      <trkpt lat="41.38542" lon="1.36072">
        <ele>340.6</ele>
        <time>2022-05-20 20:48:31</time>
      </trkpt>
      <trkpt lat="41.38549" lon="1.36066">
        <ele>340</ele>
        <time>2022-05-20 20:48:32</time>
      </trkpt>
      <trkpt lat="41.38557" lon="1.36061">
        <ele>339.6</ele>
        <time>2022-05-20 20:48:33</time>
      </trkpt>
      <trkpt lat="41.38565" lon="1.36057">
        <ele>339</ele>
        <time>2022-05-20 20:48:34</time>
      </trkpt>
      <trkpt lat="41.38573" lon="1.36055">
        <ele>338.6</ele>
        <time>2022-05-20 20:48:35</time>
      </trkpt>
      <trkpt lat="41.38583" lon="1.36056">
        <ele>338</ele>
        <time>2022-05-20 20:48:36</time>
      </trkpt>
      <trkpt lat="41.38592" lon="1.3606">
        <ele>337.6</ele>
        <time>2022-05-20 20:48:37</time>
      </trkpt>
      <trkpt lat="41.38601" lon="1.36065">
        <ele>337.2</ele>
        <time>2022-05-20 20:48:38</time>
      </trkpt>
      <trkpt lat="41.3861" lon="1.36071">
        <ele>337</ele>
        <time>2022-05-20 20:48:39</time>
      </trkpt>
      <trkpt lat="41.38617" lon="1.36078">
        <ele>337</ele>
        <time>2022-05-20 20:48:40</time>
      </trkpt>
      <trkpt lat="41.38624" lon="1.36086">
        <ele>337</ele>
        <time>2022-05-20 20:48:41</time>
      </trkpt>
      <trkpt lat="41.38628" lon="1.36095">
        <ele>337.2</ele>
        <time>2022-05-20 20:48:42</time>
      </trkpt>
      <trkpt lat="41.38629" lon="1.36104">
        <ele>337.4</ele>
        <time>2022-05-20 20:48:43</time>
      </trkpt>
      <trkpt lat="41.38628" lon="1.36112">
        <ele>337.8</ele>
        <time>2022-05-20 20:48:44</time>
      </trkpt>
      <trkpt lat="41.38626" lon="1.3612">
        <ele>338</ele>
        <time>2022-05-20 20:48:45</time>
      </trkpt>
      <trkpt lat="41.38622" lon="1.36127">
        <ele>338.4</ele>
        <time>2022-05-20 20:48:46</time>
      </trkpt>
      <trkpt lat="41.38617" lon="1.36133">
        <ele>338.6</ele>
        <time>2022-05-20 20:48:47</time>
      </trkpt>
      <trkpt lat="41.38613" lon="1.36138">
        <ele>339</ele>
        <time>2022-05-20 20:48:48</time>
      </trkpt>
      <trkpt lat="41.38609" lon="1.36144">
        <ele>339.2</ele>
        <time>2022-05-20 20:48:49</time>
      </trkpt>
      <trkpt lat="41.38604" lon="1.36149">
        <ele>339.4</ele>
        <time>2022-05-20 20:48:50</time>
      </trkpt>
      <trkpt lat="41.386" lon="1.36155">
        <ele>339.6</ele>
        <time>2022-05-20 20:48:51</time>
      </trkpt>
      <trkpt lat="41.38595" lon="1.36161">
        <ele>339.8</ele>
        <time>2022-05-20 20:48:52</time>
      </trkpt>
      <trkpt lat="41.38591" lon="1.36167">
        <ele>339.8</ele>
        <time>2022-05-20 20:48:53</time>
      </trkpt>
      <trkpt lat="41.38586" lon="1.36173">
        <ele>339.8</ele>
        <time>2022-05-20 20:48:54</time>
      </trkpt>
      <trkpt lat="41.38582" lon="1.3618">
        <ele>340</ele>
        <time>2022-05-20 20:48:55</time>
      </trkpt>
      <trkpt lat="41.38577" lon="1.36186">
        <ele>340</ele>
        <time>2022-05-20 20:48:56</time>
      </trkpt>
      <trkpt lat="41.38573" lon="1.36193">
        <ele>340</ele>
        <time>2022-05-20 20:48:57</time>
      </trkpt>
      <trkpt lat="41.38568" lon="1.362">
        <ele>339.8</ele>
        <time>2022-05-20 20:48:58</time>
      </trkpt>
      <trkpt lat="41.38563" lon="1.36206">
        <ele>339.8</ele>
        <time>2022-05-20 20:48:59</time>
      </trkpt>
      <trkpt lat="41.38557" lon="1.36213">
        <ele>339.8</ele>
        <time>2022-05-20 20:49:00</time>
      </trkpt>
      <trkpt lat="41.38552" lon="1.3622">
        <ele>339.6</ele>
        <time>2022-05-20 20:49:01</time>
      </trkpt>
      <trkpt lat="41.38546" lon="1.36227">
        <ele>339.6</ele>
        <time>2022-05-20 20:49:02</time>
      </trkpt>
      <trkpt lat="41.38541" lon="1.36234">
        <ele>339.4</ele>
        <time>2022-05-20 20:49:03</time>
      </trkpt>
      <trkpt lat="41.38536" lon="1.36241">
        <ele>339.4</ele>
        <time>2022-05-20 20:49:04</time>
      </trkpt>
      <trkpt lat="41.38531" lon="1.36248">
        <ele>339.2</ele>
        <time>2022-05-20 20:49:05</time>
      </trkpt>
      <trkpt lat="41.38525" lon="1.36256">
        <ele>339.2</ele>
        <time>2022-05-20 20:49:06</time>
      </trkpt>
      <trkpt lat="41.3852" lon="1.36263">
        <ele>339</ele>
        <time>2022-05-20 20:49:07</time>
      </trkpt>
      <trkpt lat="41.38515" lon="1.36271">
        <ele>339</ele>
        <time>2022-05-20 20:49:08</time>
      </trkpt>
      <trkpt lat="41.38509" lon="1.36278">
        <ele>338.8</ele>
        <time>2022-05-20 20:49:09</time>
      </trkpt>
      <trkpt lat="41.38504" lon="1.36286">
        <ele>338.8</ele>
        <time>2022-05-20 20:49:10</time>
      </trkpt>
      <trkpt lat="41.38499" lon="1.36294">
        <ele>338.6</ele>
        <time>2022-05-20 20:49:11</time>
      </trkpt>
      <trkpt lat="41.38494" lon="1.36302">
        <ele>338.6</ele>
        <time>2022-05-20 20:49:12</time>
      </trkpt>
      <trkpt lat="41.38489" lon="1.36311">
        <ele>338.4</ele>
        <time>2022-05-20 20:49:13</time>
      </trkpt>
      <trkpt lat="41.38485" lon="1.36319">
        <ele>338.4</ele>
        <time>2022-05-20 20:49:14</time>
      </trkpt>
      <trkpt lat="41.38481" lon="1.36329">
        <ele>338.2</ele>
        <time>2022-05-20 20:49:15</time>
      </trkpt>
      <trkpt lat="41.38477" lon="1.36338">
        <ele>338.2</ele>
        <time>2022-05-20 20:49:16</time>
      </trkpt>
      <trkpt lat="41.38474" lon="1.36348">
        <ele>338</ele>
        <time>2022-05-20 20:49:17</time>
      </trkpt>
      <trkpt lat="41.3847" lon="1.36358">
        <ele>338</ele>
        <time>2022-05-20 20:49:18</time>
      </trkpt>
      <trkpt lat="41.38467" lon="1.36367">
        <ele>337.8</ele>
        <time>2022-05-20 20:49:19</time>
      </trkpt>
      <trkpt lat="41.38463" lon="1.36377">
        <ele>337.8</ele>
        <time>2022-05-20 20:49:20</time>
      </trkpt>
      <trkpt lat="41.3846" lon="1.36388">
        <ele>337.8</ele>
        <time>2022-05-20 20:49:21</time>
      </trkpt>
      <trkpt lat="41.38457" lon="1.36398">
        <ele>337.8</ele>
        <time>2022-05-20 20:49:22</time>
      </trkpt>
      <trkpt lat="41.38454" lon="1.36408">
        <ele>337.8</ele>
        <time>2022-05-20 20:49:23</time>
      </trkpt>
      <trkpt lat="41.38451" lon="1.36418">
        <ele>337.8</ele>
        <time>2022-05-20 20:49:24</time>
      </trkpt>
      <trkpt lat="41.38449" lon="1.36428">
        <ele>338</ele>
        <time>2022-05-20 20:49:25</time>
      </trkpt>
      <trkpt lat="41.38446" lon="1.36437">
        <ele>338.2</ele>
        <time>2022-05-20 20:49:26</time>
      </trkpt>
      <trkpt lat="41.38443" lon="1.36447">
        <ele>338.4</ele>
        <time>2022-05-20 20:49:27</time>
      </trkpt>
      <trkpt lat="41.38441" lon="1.36455">
        <ele>338.6</ele>
        <time>2022-05-20 20:49:28</time>
      </trkpt>
      <trkpt lat="41.38438" lon="1.36464">
        <ele>338.8</ele>
        <time>2022-05-20 20:49:29</time>
      </trkpt>
      <trkpt lat="41.38436" lon="1.36473">
        <ele>338.8</ele>
        <time>2022-05-20 20:49:30</time>
      </trkpt>
      <trkpt lat="41.38433" lon="1.36482">
        <ele>338.8</ele>
        <time>2022-05-20 20:49:31</time>
      </trkpt>
      <trkpt lat="41.38431" lon="1.36492">
        <ele>338.8</ele>
        <time>2022-05-20 20:49:32</time>
      </trkpt>
      <trkpt lat="41.38428" lon="1.36502">
        <ele>338.8</ele>
        <time>2022-05-20 20:49:33</time>
      </trkpt>
      <trkpt lat="41.38427" lon="1.36512">
        <ele>338.8</ele>
        <time>2022-05-20 20:49:34</time>
      </trkpt>
      <trkpt lat="41.38426" lon="1.36523">
        <ele>338.6</ele>
        <time>2022-05-20 20:49:35</time>
      </trkpt>
      <trkpt lat="41.38425" lon="1.36534">
        <ele>338.4</ele>
        <time>2022-05-20 20:49:36</time>
      </trkpt>
      <trkpt lat="41.38425" lon="1.36546">
        <ele>338.4</ele>
        <time>2022-05-20 20:49:37</time>
      </trkpt>
      <trkpt lat="41.38426" lon="1.36557">
        <ele>338.2</ele>
        <time>2022-05-20 20:49:38</time>
      </trkpt>
      <trkpt lat="41.38427" lon="1.36568">
        <ele>338</ele>
        <time>2022-05-20 20:49:39</time>
      </trkpt>
      <trkpt lat="41.38428" lon="1.36579">
        <ele>337.8</ele>
        <time>2022-05-20 20:49:40</time>
      </trkpt>
      <trkpt lat="41.38429" lon="1.36591">
        <ele>337.6</ele>
        <time>2022-05-20 20:49:41</time>
      </trkpt>
      <trkpt lat="41.3843" lon="1.36602">
        <ele>337.4</ele>
        <time>2022-05-20 20:49:42</time>
      </trkpt>
      <trkpt lat="41.38431" lon="1.36614">
        <ele>337.2</ele>
        <time>2022-05-20 20:49:43</time>
      </trkpt>
      <trkpt lat="41.38432" lon="1.36625">
        <ele>337</ele>
        <time>2022-05-20 20:49:44</time>
      </trkpt>
      <trkpt lat="41.38434" lon="1.36637">
        <ele>336.8</ele>
        <time>2022-05-20 20:49:45</time>
      </trkpt>
      <trkpt lat="41.38437" lon="1.36647">
        <ele>336.6</ele>
        <time>2022-05-20 20:49:46</time>
      </trkpt>
      <trkpt lat="41.38441" lon="1.36657">
        <ele>336.4</ele>
        <time>2022-05-20 20:49:47</time>
      </trkpt>
      <trkpt lat="41.38446" lon="1.36667">
        <ele>336.2</ele>
        <time>2022-05-20 20:49:48</time>
      </trkpt>
      <trkpt lat="41.38451" lon="1.36677">
        <ele>336</ele>
        <time>2022-05-20 20:49:49</time>
      </trkpt>
      <trkpt lat="41.38456" lon="1.36686">
        <ele>335.8</ele>
        <time>2022-05-20 20:49:50</time>
      </trkpt>
      <trkpt lat="41.38461" lon="1.36695">
        <ele>335.6</ele>
        <time>2022-05-20 20:49:51</time>
      </trkpt>
      <trkpt lat="41.38468" lon="1.36703">
        <ele>335.4</ele>
        <time>2022-05-20 20:49:52</time>
      </trkpt>
      <trkpt lat="41.38475" lon="1.3671">
        <ele>335.2</ele>
        <time>2022-05-20 20:49:53</time>
      </trkpt>
      <trkpt lat="41.38483" lon="1.36716">
        <ele>334.8</ele>
        <time>2022-05-20 20:49:54</time>
      </trkpt>
      <trkpt lat="41.38491" lon="1.36721">
        <ele>334.6</ele>
        <time>2022-05-20 20:49:55</time>
      </trkpt>
      <trkpt lat="41.38499" lon="1.36725">
        <ele>334.2</ele>
        <time>2022-05-20 20:49:56</time>
      </trkpt>
      <trkpt lat="41.38507" lon="1.3673">
        <ele>334</ele>
        <time>2022-05-20 20:49:57</time>
      </trkpt>
      <trkpt lat="41.38515" lon="1.36737">
        <ele>333.6</ele>
        <time>2022-05-20 20:49:58</time>
      </trkpt>
      <trkpt lat="41.38524" lon="1.36743">
        <ele>333.4</ele>
        <time>2022-05-20 20:49:59</time>
      </trkpt>
      <trkpt lat="41.38532" lon="1.36751">
        <ele>333.2</ele>
        <time>2022-05-20 20:50:00</time>
      </trkpt>
      <trkpt lat="41.38539" lon="1.36758">
        <ele>333</ele>
        <time>2022-05-20 20:50:01</time>
      </trkpt>
      <trkpt lat="41.38546" lon="1.36767">
        <ele>332.8</ele>
        <time>2022-05-20 20:50:02</time>
      </trkpt>
      <trkpt lat="41.38552" lon="1.36775">
        <ele>332.8</ele>
        <time>2022-05-20 20:50:03</time>
      </trkpt>
      <trkpt lat="41.38559" lon="1.36782">
        <ele>332.8</ele>
        <time>2022-05-20 20:50:04</time>
      </trkpt>
      <trkpt lat="41.38565" lon="1.3679">
        <ele>332.6</ele>
        <time>2022-05-20 20:50:05</time>
      </trkpt>
      <trkpt lat="41.38572" lon="1.36797">
        <ele>332.6</ele>
        <time>2022-05-20 20:50:06</time>
      </trkpt>
      <trkpt lat="41.38578" lon="1.36804">
        <ele>332.6</ele>
        <time>2022-05-20 20:50:07</time>
      </trkpt>
      <trkpt lat="41.38584" lon="1.36812">
        <ele>332.8</ele>
        <time>2022-05-20 20:50:08</time>
      </trkpt>
      <trkpt lat="41.3859" lon="1.36819">
        <ele>332.8</ele>
        <time>2022-05-20 20:50:09</time>
      </trkpt>
      <trkpt lat="41.38596" lon="1.36825">
        <ele>333</ele>
        <time>2022-05-20 20:50:10</time>
      </trkpt>
      <trkpt lat="41.38602" lon="1.36831">
        <ele>333</ele>
        <time>2022-05-20 20:50:11</time>
      </trkpt>
      <trkpt lat="41.38609" lon="1.36835">
        <ele>333.2</ele>
        <time>2022-05-20 20:50:12</time>
      </trkpt>
      <trkpt lat="41.38617" lon="1.36837">
        <ele>333.4</ele>
        <time>2022-05-20 20:50:13</time>
      </trkpt>
      <trkpt lat="41.38624" lon="1.36836">
        <ele>333.6</ele>
        <time>2022-05-20 20:50:14</time>
      </trkpt>
      <trkpt lat="41.38631" lon="1.36833">
        <ele>334</ele>
        <time>2022-05-20 20:50:15</time>
      </trkpt>
      <trkpt lat="41.38638" lon="1.36828">
        <ele>334.2</ele>
        <time>2022-05-20 20:50:16</time>
      </trkpt>
      <trkpt lat="41.38644" lon="1.36823">
        <ele>334.4</ele>
        <time>2022-05-20 20:50:17</time>
      </trkpt>
      <trkpt lat="41.3865" lon="1.36818">
        <ele>334.8</ele>
        <time>2022-05-20 20:50:18</time>
      </trkpt>
      <trkpt lat="41.38657" lon="1.36814">
        <ele>335</ele>
        <time>2022-05-20 20:50:19</time>
      </trkpt>
      <trkpt lat="41.38663" lon="1.3681">
        <ele>335.4</ele>
        <time>2022-05-20 20:50:20</time>
      </trkpt>
      <trkpt lat="41.38669" lon="1.36806">
        <ele>335.6</ele>
        <time>2022-05-20 20:50:21</time>
      </trkpt>
      <trkpt lat="41.38675" lon="1.36801">
        <ele>336</ele>
        <time>2022-05-20 20:50:22</time>
      </trkpt>
      <trkpt lat="41.38681" lon="1.36797">
        <ele>336.2</ele>
        <time>2022-05-20 20:50:23</time>
      </trkpt>
      <trkpt lat="41.38687" lon="1.36793">
        <ele>336.6</ele>
        <time>2022-05-20 20:50:24</time>
      </trkpt>
      <trkpt lat="41.38692" lon="1.36789">
        <ele>336.8</ele>
        <time>2022-05-20 20:50:25</time>
      </trkpt>
      <trkpt lat="41.38698" lon="1.36784">
        <ele>337</ele>
        <time>2022-05-20 20:50:26</time>
      </trkpt>
      <trkpt lat="41.38704" lon="1.3678">
        <ele>337.4</ele>
        <time>2022-05-20 20:50:27</time>
      </trkpt>
      <trkpt lat="41.38709" lon="1.36777">
        <ele>337.6</ele>
        <time>2022-05-20 20:50:28</time>
      </trkpt>
      <trkpt lat="41.38715" lon="1.36773">
        <ele>338</ele>
        <time>2022-05-20 20:50:29</time>
      </trkpt>
      <trkpt lat="41.3872" lon="1.36769">
        <ele>338.2</ele>
        <time>2022-05-20 20:50:30</time>
      </trkpt>
      <trkpt lat="41.38725" lon="1.36765">
        <ele>338.6</ele>
        <time>2022-05-20 20:50:31</time>
      </trkpt>
      <trkpt lat="41.3873" lon="1.36762">
        <ele>338.8</ele>
        <time>2022-05-20 20:50:32</time>
      </trkpt>
      <trkpt lat="41.38735" lon="1.36758">
        <ele>339</ele>
        <time>2022-05-20 20:50:33</time>
      </trkpt>
      <trkpt lat="41.3874" lon="1.36754">
        <ele>339.2</ele>
        <time>2022-05-20 20:50:34</time>
      </trkpt>
      <trkpt lat="41.38745" lon="1.3675">
        <ele>339.6</ele>
        <time>2022-05-20 20:50:35</time>
      </trkpt>
      <trkpt lat="41.3875" lon="1.36747">
        <ele>339.8</ele>
        <time>2022-05-20 20:50:36</time>
      </trkpt>
      <trkpt lat="41.38755" lon="1.36744">
        <ele>340</ele>
        <time>2022-05-20 20:50:37</time>
      </trkpt>
      <trkpt lat="41.3876" lon="1.36741">
        <ele>340.2</ele>
        <time>2022-05-20 20:50:38</time>
      </trkpt>
      <trkpt lat="41.38765" lon="1.36737">
        <ele>340.4</ele>
        <time>2022-05-20 20:50:39</time>
      </trkpt>
      <trkpt lat="41.3877" lon="1.36734">
        <ele>340.6</ele>
        <time>2022-05-20 20:50:40</time>
      </trkpt>
      <trkpt lat="41.38774" lon="1.3673">
        <ele>341</ele>
        <time>2022-05-20 20:50:41</time>
      </trkpt>
      <trkpt lat="41.38779" lon="1.36727">
        <ele>341.2</ele>
        <time>2022-05-20 20:50:42</time>
      </trkpt>
      <trkpt lat="41.38784" lon="1.36723">
        <ele>341.4</ele>
        <time>2022-05-20 20:50:43</time>
      </trkpt>
      <trkpt lat="41.38789" lon="1.3672">
        <ele>341.6</ele>
        <time>2022-05-20 20:50:44</time>
      </trkpt>
      <trkpt lat="41.38794" lon="1.36717">
        <ele>341.8</ele>
        <time>2022-05-20 20:50:45</time>
      </trkpt>
      <trkpt lat="41.38798" lon="1.36713">
        <ele>342</ele>
        <time>2022-05-20 20:50:46</time>
      </trkpt>
      <trkpt lat="41.38803" lon="1.3671">
        <ele>342.2</ele>
        <time>2022-05-20 20:50:47</time>
      </trkpt>
      <trkpt lat="41.38807" lon="1.36707">
        <ele>342.4</ele>
        <time>2022-05-20 20:50:48</time>
      </trkpt>
      <trkpt lat="41.38811" lon="1.36704">
        <ele>342.6</ele>
        <time>2022-05-20 20:50:49</time>
      </trkpt>
      <trkpt lat="41.38816" lon="1.36701">
        <ele>342.8</ele>
        <time>2022-05-20 20:50:50</time>
      </trkpt>
      <trkpt lat="41.38821" lon="1.36697">
        <ele>343</ele>
        <time>2022-05-20 20:50:51</time>
      </trkpt>
      <trkpt lat="41.38825" lon="1.36695">
        <ele>343.2</ele>
        <time>2022-05-20 20:50:52</time>
      </trkpt>
      <trkpt lat="41.3883" lon="1.36692">
        <ele>343.4</ele>
        <time>2022-05-20 20:50:53</time>
      </trkpt>
      <trkpt lat="41.38834" lon="1.36688">
        <ele>343.6</ele>
        <time>2022-05-20 20:50:54</time>
      </trkpt>
      <trkpt lat="41.38839" lon="1.36685">
        <ele>344</ele>
        <time>2022-05-20 20:50:55</time>
      </trkpt>
      <trkpt lat="41.38843" lon="1.36682">
        <ele>344.2</ele>
        <time>2022-05-20 20:50:56</time>
      </trkpt>
      <trkpt lat="41.38848" lon="1.36679">
        <ele>344.4</ele>
        <time>2022-05-20 20:50:57</time>
      </trkpt>
      <trkpt lat="41.38852" lon="1.36676">
        <ele>344.6</ele>
        <time>2022-05-20 20:50:58</time>
      </trkpt>
      <trkpt lat="41.38857" lon="1.36673">
        <ele>344.8</ele>
        <time>2022-05-20 20:50:59</time>
      </trkpt>
      <trkpt lat="41.38861" lon="1.36669">
        <ele>345</ele>
        <time>2022-05-20 20:51:00</time>
      </trkpt>
      <trkpt lat="41.38865" lon="1.36666">
        <ele>345.2</ele>
        <time>2022-05-20 20:51:01</time>
      </trkpt>
      <trkpt lat="41.3887" lon="1.36663">
        <ele>345.4</ele>
        <time>2022-05-20 20:51:02</time>
      </trkpt>
      <trkpt lat="41.38874" lon="1.3666">
        <ele>345.6</ele>
        <time>2022-05-20 20:51:03</time>
      </trkpt>
      <trkpt lat="41.38879" lon="1.36657">
        <ele>345.8</ele>
        <time>2022-05-20 20:51:04</time>
      </trkpt>
      <trkpt lat="41.38884" lon="1.36654">
        <ele>346</ele>
        <time>2022-05-20 20:51:05</time>
      </trkpt>
      <trkpt lat="41.38888" lon="1.36651">
        <ele>346</ele>
        <time>2022-05-20 20:51:06</time>
      </trkpt>
      <trkpt lat="41.38893" lon="1.36648">
        <ele>346.2</ele>
        <time>2022-05-20 20:51:07</time>
      </trkpt>
      <trkpt lat="41.38898" lon="1.36647">
        <ele>346.4</ele>
        <time>2022-05-20 20:51:08</time>
      </trkpt>
      <trkpt lat="41.38903" lon="1.36646">
        <ele>346.6</ele>
        <time>2022-05-20 20:51:09</time>
      </trkpt>
      <trkpt lat="41.38908" lon="1.36645">
        <ele>346.8</ele>
        <time>2022-05-20 20:51:10</time>
      </trkpt>
      <trkpt lat="41.38913" lon="1.36645">
        <ele>347</ele>
        <time>2022-05-20 20:51:11</time>
      </trkpt>
      <trkpt lat="41.38919" lon="1.36647">
        <ele>347.2</ele>
        <time>2022-05-20 20:51:12</time>
      </trkpt>
      <trkpt lat="41.38924" lon="1.36648">
        <ele>347.4</ele>
        <time>2022-05-20 20:51:13</time>
      </trkpt>
      <trkpt lat="41.38929" lon="1.36651">
        <ele>347.6</ele>
        <time>2022-05-20 20:51:14</time>
      </trkpt>
      <trkpt lat="41.38933" lon="1.36653">
        <ele>347.8</ele>
        <time>2022-05-20 20:51:15</time>
      </trkpt>
      <trkpt lat="41.38938" lon="1.36656">
        <ele>348</ele>
        <time>2022-05-20 20:51:16</time>
      </trkpt>
      <trkpt lat="41.38943" lon="1.36658">
        <ele>348.2</ele>
        <time>2022-05-20 20:51:17</time>
      </trkpt>
      <trkpt lat="41.38948" lon="1.36661">
        <ele>348.4</ele>
        <time>2022-05-20 20:51:18</time>
      </trkpt>
      <trkpt lat="41.38953" lon="1.36664">
        <ele>348.6</ele>
        <time>2022-05-20 20:51:19</time>
      </trkpt>
      <trkpt lat="41.38958" lon="1.36667">
        <ele>348.8</ele>
        <time>2022-05-20 20:51:20</time>
      </trkpt>
      <trkpt lat="41.38963" lon="1.3667">
        <ele>349</ele>
        <time>2022-05-20 20:51:21</time>
      </trkpt>
      <trkpt lat="41.38968" lon="1.36673">
        <ele>349.2</ele>
        <time>2022-05-20 20:51:22</time>
      </trkpt>
      <trkpt lat="41.38972" lon="1.36675">
        <ele>349.4</ele>
        <time>2022-05-20 20:51:23</time>
      </trkpt>
      <trkpt lat="41.38977" lon="1.36678">
        <ele>349.6</ele>
        <time>2022-05-20 20:51:24</time>
      </trkpt>
      <trkpt lat="41.38983" lon="1.36681">
        <ele>349.8</ele>
        <time>2022-05-20 20:51:25</time>
      </trkpt>
      <trkpt lat="41.38988" lon="1.36683">
        <ele>350</ele>
        <time>2022-05-20 20:51:26</time>
      </trkpt>
      <trkpt lat="41.38993" lon="1.36686">
        <ele>350.2</ele>
        <time>2022-05-20 20:51:27</time>
      </trkpt>
      <trkpt lat="41.38997" lon="1.36688">
        <ele>350.4</ele>
        <time>2022-05-20 20:51:28</time>
      </trkpt>
      <trkpt lat="41.39002" lon="1.36691">
        <ele>350.6</ele>
        <time>2022-05-20 20:51:29</time>
      </trkpt>
      <trkpt lat="41.39007" lon="1.36694">
        <ele>350.8</ele>
        <time>2022-05-20 20:51:30</time>
      </trkpt>
      <trkpt lat="41.39012" lon="1.36697">
        <ele>351</ele>
        <time>2022-05-20 20:51:31</time>
      </trkpt>
      <trkpt lat="41.39017" lon="1.367">
        <ele>351.2</ele>
        <time>2022-05-20 20:51:32</time>
      </trkpt>
      <trkpt lat="41.39022" lon="1.36702">
        <ele>351.4</ele>
        <time>2022-05-20 20:51:33</time>
      </trkpt>
      <trkpt lat="41.39027" lon="1.36704">
        <ele>351.6</ele>
        <time>2022-05-20 20:51:34</time>
      </trkpt>
      <trkpt lat="41.39032" lon="1.36705">
        <ele>351.8</ele>
        <time>2022-05-20 20:51:35</time>
      </trkpt>
      <trkpt lat="41.39037" lon="1.36706">
        <ele>352</ele>
        <time>2022-05-20 20:51:36</time>
      </trkpt>
      <trkpt lat="41.39043" lon="1.36706">
        <ele>352.2</ele>
        <time>2022-05-20 20:51:37</time>
      </trkpt>
      <trkpt lat="41.39048" lon="1.36707">
        <ele>352.4</ele>
        <time>2022-05-20 20:51:38</time>
      </trkpt>
      <trkpt lat="41.39054" lon="1.36707">
        <ele>352.6</ele>
        <time>2022-05-20 20:51:39</time>
      </trkpt>
      <trkpt lat="41.39059" lon="1.36707">
        <ele>352.8</ele>
        <time>2022-05-20 20:51:40</time>
      </trkpt>
      <trkpt lat="41.39064" lon="1.36707">
        <ele>353</ele>
        <time>2022-05-20 20:51:41</time>
      </trkpt>
      <trkpt lat="41.3907" lon="1.36707">
        <ele>353.4</ele>
        <time>2022-05-20 20:51:42</time>
      </trkpt>
      <trkpt lat="41.39075" lon="1.36707">
        <ele>353.6</ele>
        <time>2022-05-20 20:51:43</time>
      </trkpt>
      <trkpt lat="41.3908" lon="1.36707">
        <ele>353.8</ele>
        <time>2022-05-20 20:51:44</time>
      </trkpt>
      <trkpt lat="41.39086" lon="1.36707">
        <ele>354</ele>
        <time>2022-05-20 20:51:45</time>
      </trkpt>
      <trkpt lat="41.39091" lon="1.36707">
        <ele>354.2</ele>
        <time>2022-05-20 20:51:46</time>
      </trkpt>
      <trkpt lat="41.39096" lon="1.36707">
        <ele>354.4</ele>
        <time>2022-05-20 20:51:47</time>
      </trkpt>
      <trkpt lat="41.39101" lon="1.36708">
        <ele>354.6</ele>
        <time>2022-05-20 20:51:48</time>
      </trkpt>
      <trkpt lat="41.39106" lon="1.36708">
        <ele>354.8</ele>
        <time>2022-05-20 20:51:49</time>
      </trkpt>
      <trkpt lat="41.39111" lon="1.36708">
        <ele>355</ele>
        <time>2022-05-20 20:51:50</time>
      </trkpt>
      <trkpt lat="41.39116" lon="1.36709">
        <ele>355.2</ele>
        <time>2022-05-20 20:51:51</time>
      </trkpt>
      <trkpt lat="41.39121" lon="1.36711">
        <ele>355.4</ele>
        <time>2022-05-20 20:51:52</time>
      </trkpt>
      <trkpt lat="41.39125" lon="1.36713">
        <ele>355.6</ele>
        <time>2022-05-20 20:51:53</time>
      </trkpt>
      <trkpt lat="41.3913" lon="1.36717">
        <ele>355.8</ele>
        <time>2022-05-20 20:51:54</time>
      </trkpt>
      <trkpt lat="41.39134" lon="1.36722">
        <ele>356</ele>
        <time>2022-05-20 20:51:55</time>
      </trkpt>
      <trkpt lat="41.39137" lon="1.36727">
        <ele>356.4</ele>
        <time>2022-05-20 20:51:56</time>
      </trkpt>
      <trkpt lat="41.39138" lon="1.36733">
        <ele>356.6</ele>
        <time>2022-05-20 20:51:57</time>
      </trkpt>
      <trkpt lat="41.3914" lon="1.36739">
        <ele>356.8</ele>
        <time>2022-05-20 20:51:58</time>
      </trkpt>
      <trkpt lat="41.39141" lon="1.36746">
        <ele>357</ele>
        <time>2022-05-20 20:51:59</time>
      </trkpt>
      <trkpt lat="41.39143" lon="1.36753">
        <ele>357.2</ele>
        <time>2022-05-20 20:52:00</time>
      </trkpt>
      <trkpt lat="41.39144" lon="1.36761">
        <ele>357.4</ele>
        <time>2022-05-20 20:52:01</time>
      </trkpt>
      <trkpt lat="41.39144" lon="1.36768">
        <ele>357.4</ele>
        <time>2022-05-20 20:52:02</time>
      </trkpt>
      <trkpt lat="41.39145" lon="1.36776">
        <ele>357.6</ele>
        <time>2022-05-20 20:52:03</time>
      </trkpt>
      <trkpt lat="41.39145" lon="1.36783">
        <ele>357.6</ele>
        <time>2022-05-20 20:52:04</time>
      </trkpt>
      <trkpt lat="41.39145" lon="1.36791">
        <ele>357.6</ele>
        <time>2022-05-20 20:52:05</time>
      </trkpt>
      <trkpt lat="41.39144" lon="1.368">
        <ele>357.6</ele>
        <time>2022-05-20 20:52:06</time>
      </trkpt>
      <trkpt lat="41.39144" lon="1.36808">
        <ele>357.6</ele>
        <time>2022-05-20 20:52:07</time>
      </trkpt>
      <trkpt lat="41.39145" lon="1.36816">
        <ele>357.6</ele>
        <time>2022-05-20 20:52:08</time>
      </trkpt>
      <trkpt lat="41.39146" lon="1.36825">
        <ele>357.6</ele>
        <time>2022-05-20 20:52:09</time>
      </trkpt>
      <trkpt lat="41.39148" lon="1.36832">
        <ele>357.6</ele>
        <time>2022-05-20 20:52:10</time>
      </trkpt>
      <trkpt lat="41.39151" lon="1.36839">
        <ele>357.6</ele>
        <time>2022-05-20 20:52:11</time>
      </trkpt>
      <trkpt lat="41.39156" lon="1.36843">
        <ele>357.6</ele>
        <time>2022-05-20 20:52:12</time>
      </trkpt>
      <trkpt lat="41.39162" lon="1.36846">
        <ele>357.6</ele>
        <time>2022-05-20 20:52:13</time>
      </trkpt>
      <trkpt lat="41.39167" lon="1.36846">
        <ele>357.6</ele>
        <time>2022-05-20 20:52:14</time>
      </trkpt>
      <trkpt lat="41.39174" lon="1.36844">
        <ele>357.8</ele>
        <time>2022-05-20 20:52:15</time>
      </trkpt>
      <trkpt lat="41.39181" lon="1.36842">
        <ele>357.8</ele>
        <time>2022-05-20 20:52:16</time>
      </trkpt>
      <trkpt lat="41.39187" lon="1.36839">
        <ele>358</ele>
        <time>2022-05-20 20:52:17</time>
      </trkpt>
      <trkpt lat="41.39194" lon="1.36836">
        <ele>358.2</ele>
        <time>2022-05-20 20:52:18</time>
      </trkpt>
      <trkpt lat="41.39199" lon="1.36833">
        <ele>358.4</ele>
        <time>2022-05-20 20:52:19</time>
      </trkpt>
      <trkpt lat="41.39204" lon="1.36828">
        <ele>358.8</ele>
        <time>2022-05-20 20:52:20</time>
      </trkpt>
      <trkpt lat="41.39209" lon="1.36824">
        <ele>359</ele>
        <time>2022-05-20 20:52:21</time>
      </trkpt>
      <trkpt lat="41.39213" lon="1.36819">
        <ele>359.2</ele>
        <time>2022-05-20 20:52:22</time>
      </trkpt>
      <trkpt lat="41.39217" lon="1.36814">
        <ele>359.6</ele>
        <time>2022-05-20 20:52:23</time>
      </trkpt>
      <trkpt lat="41.39221" lon="1.3681">
        <ele>359.8</ele>
        <time>2022-05-20 20:52:24</time>
      </trkpt>
      <trkpt lat="41.39224" lon="1.36805">
        <ele>360</ele>
        <time>2022-05-20 20:52:25</time>
      </trkpt>
      <trkpt lat="41.39228" lon="1.36799">
        <ele>360.4</ele>
        <time>2022-05-20 20:52:26</time>
      </trkpt>
      <trkpt lat="41.39232" lon="1.36794">
        <ele>360.6</ele>
        <time>2022-05-20 20:52:27</time>
      </trkpt>
      <trkpt lat="41.39237" lon="1.3679">
        <ele>360.8</ele>
        <time>2022-05-20 20:52:28</time>
      </trkpt>
      <trkpt lat="41.39242" lon="1.36787">
        <ele>361</ele>
        <time>2022-05-20 20:52:29</time>
      </trkpt>
      <trkpt lat="41.39247" lon="1.36784">
        <ele>361.4</ele>
        <time>2022-05-20 20:52:30</time>
      </trkpt>
      <trkpt lat="41.39252" lon="1.36783">
        <ele>361.6</ele>
        <time>2022-05-20 20:52:31</time>
      </trkpt>
      <trkpt lat="41.39258" lon="1.36785">
        <ele>361.8</ele>
        <time>2022-05-20 20:52:32</time>
      </trkpt>
      <trkpt lat="41.39262" lon="1.36787">
        <ele>362.2</ele>
        <time>2022-05-20 20:52:33</time>
      </trkpt>
      <trkpt lat="41.39267" lon="1.3679">
        <ele>362.4</ele>
        <time>2022-05-20 20:52:34</time>
      </trkpt>
      <trkpt lat="41.39271" lon="1.36794">
        <ele>362.8</ele>
        <time>2022-05-20 20:52:35</time>
      </trkpt>
      <trkpt lat="41.39276" lon="1.36796">
        <ele>363</ele>
        <time>2022-05-20 20:52:36</time>
      </trkpt>
      <trkpt lat="41.3928" lon="1.36799">
        <ele>363.2</ele>
        <time>2022-05-20 20:52:37</time>
      </trkpt>
      <trkpt lat="41.39285" lon="1.36802">
        <ele>363.4</ele>
        <time>2022-05-20 20:52:38</time>
      </trkpt>
      <trkpt lat="41.39289" lon="1.36805">
        <ele>363.6</ele>
        <time>2022-05-20 20:52:39</time>
      </trkpt>
      <trkpt lat="41.39293" lon="1.36808">
        <ele>363.8</ele>
        <time>2022-05-20 20:52:40</time>
      </trkpt>
      <trkpt lat="41.39297" lon="1.36811">
        <ele>364</ele>
        <time>2022-05-20 20:52:41</time>
      </trkpt>
      <trkpt lat="41.39302" lon="1.36814">
        <ele>364.4</ele>
        <time>2022-05-20 20:52:42</time>
      </trkpt>
      <trkpt lat="41.39306" lon="1.36817">
        <ele>364.6</ele>
        <time>2022-05-20 20:52:43</time>
      </trkpt>
      <trkpt lat="41.39311" lon="1.3682">
        <ele>364.8</ele>
        <time>2022-05-20 20:52:44</time>
      </trkpt>
      <trkpt lat="41.39315" lon="1.36822">
        <ele>365</ele>
        <time>2022-05-20 20:52:45</time>
      </trkpt>
      <trkpt lat="41.3932" lon="1.36825">
        <ele>365.2</ele>
        <time>2022-05-20 20:52:46</time>
      </trkpt>
      <trkpt lat="41.39325" lon="1.36827">
        <ele>365.4</ele>
        <time>2022-05-20 20:52:47</time>
      </trkpt>
      <trkpt lat="41.3933" lon="1.36829">
        <ele>365.8</ele>
        <time>2022-05-20 20:52:48</time>
      </trkpt>
      <trkpt lat="41.39334" lon="1.36831">
        <ele>366</ele>
        <time>2022-05-20 20:52:49</time>
      </trkpt>
      <trkpt lat="41.39339" lon="1.36832">
        <ele>366.2</ele>
        <time>2022-05-20 20:52:50</time>
      </trkpt>
      <trkpt lat="41.39345" lon="1.36833">
        <ele>366.4</ele>
        <time>2022-05-20 20:52:51</time>
      </trkpt>
      <trkpt lat="41.3935" lon="1.36834">
        <ele>366.6</ele>
        <time>2022-05-20 20:52:52</time>
      </trkpt>
      <trkpt lat="41.39355" lon="1.36835">
        <ele>366.8</ele>
        <time>2022-05-20 20:52:53</time>
      </trkpt>
      <trkpt lat="41.3936" lon="1.36835">
        <ele>366.8</ele>
        <time>2022-05-20 20:52:54</time>
      </trkpt>
      <trkpt lat="41.39365" lon="1.36836">
        <ele>367</ele>
        <time>2022-05-20 20:52:55</time>
      </trkpt>
      <trkpt lat="41.3937" lon="1.36837">
        <ele>367.2</ele>
        <time>2022-05-20 20:52:56</time>
      </trkpt>
      <trkpt lat="41.39375" lon="1.36837">
        <ele>367.4</ele>
        <time>2022-05-20 20:52:57</time>
      </trkpt>
      <trkpt lat="41.3938" lon="1.36838">
        <ele>367.6</ele>
        <time>2022-05-20 20:52:58</time>
      </trkpt>
      <trkpt lat="41.39384" lon="1.36839">
        <ele>367.8</ele>
        <time>2022-05-20 20:52:59</time>
      </trkpt>
      <trkpt lat="41.39389" lon="1.3684">
        <ele>368</ele>
        <time>2022-05-20 20:53:00</time>
      </trkpt>
      <trkpt lat="41.39394" lon="1.36841">
        <ele>368.2</ele>
        <time>2022-05-20 20:53:01</time>
      </trkpt>
      <trkpt lat="41.39399" lon="1.36841">
        <ele>368.6</ele>
        <time>2022-05-20 20:53:02</time>
      </trkpt>
      <trkpt lat="41.39404" lon="1.36842">
        <ele>368.8</ele>
        <time>2022-05-20 20:53:03</time>
      </trkpt>
      <trkpt lat="41.39408" lon="1.36843">
        <ele>369</ele>
        <time>2022-05-20 20:53:04</time>
      </trkpt>
      <trkpt lat="41.39413" lon="1.36844">
        <ele>369.2</ele>
        <time>2022-05-20 20:53:05</time>
      </trkpt>
      <trkpt lat="41.39418" lon="1.36845">
        <ele>369.4</ele>
        <time>2022-05-20 20:53:06</time>
      </trkpt>
      <trkpt lat="41.39423" lon="1.36846">
        <ele>369.6</ele>
        <time>2022-05-20 20:53:07</time>
      </trkpt>
      <trkpt lat="41.39428" lon="1.36849">
        <ele>369.6</ele>
        <time>2022-05-20 20:53:08</time>
      </trkpt>
      <trkpt lat="41.39433" lon="1.36852">
        <ele>369.8</ele>
        <time>2022-05-20 20:53:09</time>
      </trkpt>
      <trkpt lat="41.39436" lon="1.36858">
        <ele>370</ele>
        <time>2022-05-20 20:53:10</time>
      </trkpt>
      <trkpt lat="41.39439" lon="1.36868">
        <ele>370.2</ele>
        <time>2022-05-20 20:53:11</time>
      </trkpt>
      <trkpt lat="41.39442" lon="1.36877">
        <ele>370.2</ele>
        <time>2022-05-20 20:53:12</time>
      </trkpt>
      <trkpt lat="41.39444" lon="1.36885">
        <ele>370.4</ele>
        <time>2022-05-20 20:53:13</time>
      </trkpt>
      <trkpt lat="41.39445" lon="1.36891">
        <ele>370.4</ele>
        <time>2022-05-20 20:53:14</time>
      </trkpt>
      <trkpt lat="41.39446" lon="1.36897">
        <ele>370.4</ele>
        <time>2022-05-20 20:53:15</time>
      </trkpt>
      <trkpt lat="41.39448" lon="1.36903">
        <ele>370.6</ele>
        <time>2022-05-20 20:53:16</time>
      </trkpt>
      <trkpt lat="41.39452" lon="1.36907">
        <ele>370.6</ele>
        <time>2022-05-20 20:53:17</time>
      </trkpt>
      <trkpt lat="41.39456" lon="1.36911">
        <ele>370.6</ele>
        <time>2022-05-20 20:53:18</time>
      </trkpt>
      <trkpt lat="41.39461" lon="1.36913">
        <ele>370.6</ele>
        <time>2022-05-20 20:53:19</time>
      </trkpt>
      <trkpt lat="41.39467" lon="1.36913">
        <ele>370.6</ele>
        <time>2022-05-20 20:53:20</time>
      </trkpt>
      <trkpt lat="41.39473" lon="1.36911">
        <ele>370.8</ele>
        <time>2022-05-20 20:53:21</time>
      </trkpt>
      <trkpt lat="41.39478" lon="1.36907">
        <ele>370.8</ele>
        <time>2022-05-20 20:53:22</time>
      </trkpt>
      <trkpt lat="41.39483" lon="1.36903">
        <ele>371</ele>
        <time>2022-05-20 20:53:23</time>
      </trkpt>
      <trkpt lat="41.39488" lon="1.36899">
        <ele>371</ele>
        <time>2022-05-20 20:53:24</time>
      </trkpt>
      <trkpt lat="41.39494" lon="1.36897">
        <ele>371.2</ele>
        <time>2022-05-20 20:53:25</time>
      </trkpt>
      <trkpt lat="41.395" lon="1.36895">
        <ele>371.4</ele>
        <time>2022-05-20 20:53:26</time>
      </trkpt>
      <trkpt lat="41.39505" lon="1.36895">
        <ele>371.8</ele>
        <time>2022-05-20 20:53:27</time>
      </trkpt>
      <trkpt lat="41.39511" lon="1.36895">
        <ele>372</ele>
        <time>2022-05-20 20:53:28</time>
      </trkpt>
      <trkpt lat="41.39516" lon="1.36895">
        <ele>372.2</ele>
        <time>2022-05-20 20:53:29</time>
      </trkpt>
      <trkpt lat="41.39521" lon="1.36896">
        <ele>372.4</ele>
        <time>2022-05-20 20:53:30</time>
      </trkpt>
      <trkpt lat="41.39526" lon="1.36897">
        <ele>372.6</ele>
        <time>2022-05-20 20:53:31</time>
      </trkpt>
      <trkpt lat="41.39531" lon="1.36898">
        <ele>373</ele>
        <time>2022-05-20 20:53:32</time>
      </trkpt>
      <trkpt lat="41.39537" lon="1.36899">
        <ele>373.2</ele>
        <time>2022-05-20 20:53:33</time>
      </trkpt>
      <trkpt lat="41.39541" lon="1.36901">
        <ele>373.4</ele>
        <time>2022-05-20 20:53:34</time>
      </trkpt>
      <trkpt lat="41.39546" lon="1.36903">
        <ele>373.6</ele>
        <time>2022-05-20 20:53:35</time>
      </trkpt>
      <trkpt lat="41.39551" lon="1.36906">
        <ele>373.8</ele>
        <time>2022-05-20 20:53:36</time>
      </trkpt>
      <trkpt lat="41.39555" lon="1.3691">
        <ele>374</ele>
        <time>2022-05-20 20:53:37</time>
      </trkpt>
      <trkpt lat="41.39559" lon="1.36914">
        <ele>374.2</ele>
        <time>2022-05-20 20:53:38</time>
      </trkpt>
      <trkpt lat="41.39563" lon="1.36919">
        <ele>374.4</ele>
        <time>2022-05-20 20:53:39</time>
      </trkpt>
      <trkpt lat="41.39566" lon="1.36924">
        <ele>374.6</ele>
        <time>2022-05-20 20:53:40</time>
      </trkpt>
      <trkpt lat="41.39568" lon="1.3693">
        <ele>374.8</ele>
        <time>2022-05-20 20:53:41</time>
      </trkpt>
      <trkpt lat="41.39571" lon="1.36936">
        <ele>375.2</ele>
        <time>2022-05-20 20:53:42</time>
      </trkpt>
      <trkpt lat="41.39574" lon="1.36942">
        <ele>375.4</ele>
        <time>2022-05-20 20:53:43</time>
      </trkpt>
      <trkpt lat="41.39577" lon="1.36947">
        <ele>375.6</ele>
        <time>2022-05-20 20:53:44</time>
      </trkpt>
      <trkpt lat="41.3958" lon="1.36952">
        <ele>375.8</ele>
        <time>2022-05-20 20:53:45</time>
      </trkpt>
      <trkpt lat="41.39584" lon="1.36957">
        <ele>376</ele>
        <time>2022-05-20 20:53:46</time>
      </trkpt>
      <trkpt lat="41.39588" lon="1.3696">
        <ele>376.2</ele>
        <time>2022-05-20 20:53:47</time>
      </trkpt>
      <trkpt lat="41.39593" lon="1.36962">
        <ele>376.4</ele>
        <time>2022-05-20 20:53:48</time>
      </trkpt>
      <trkpt lat="41.39597" lon="1.36964">
        <ele>376.6</ele>
        <time>2022-05-20 20:53:49</time>
      </trkpt>
      <trkpt lat="41.39602" lon="1.36965">
        <ele>376.8</ele>
        <time>2022-05-20 20:53:50</time>
      </trkpt>
      <trkpt lat="41.39606" lon="1.36966">
        <ele>377</ele>
        <time>2022-05-20 20:53:51</time>
      </trkpt>
      <trkpt lat="41.39611" lon="1.36967">
        <ele>377.2</ele>
        <time>2022-05-20 20:53:52</time>
      </trkpt>
      <trkpt lat="41.39616" lon="1.36969">
        <ele>377.4</ele>
        <time>2022-05-20 20:53:53</time>
      </trkpt>
      <trkpt lat="41.39621" lon="1.36972">
        <ele>377.6</ele>
        <time>2022-05-20 20:53:54</time>
      </trkpt>
      <trkpt lat="41.39625" lon="1.36976">
        <ele>377.8</ele>
        <time>2022-05-20 20:53:55</time>
      </trkpt>
      <trkpt lat="41.39628" lon="1.36981">
        <ele>377.8</ele>
        <time>2022-05-20 20:53:56</time>
      </trkpt>
      <trkpt lat="41.39632" lon="1.36986">
        <ele>378</ele>
        <time>2022-05-20 20:53:57</time>
      </trkpt>
      <trkpt lat="41.39636" lon="1.36992">
        <ele>378</ele>
        <time>2022-05-20 20:53:58</time>
      </trkpt>
      <trkpt lat="41.3964" lon="1.36998">
        <ele>378.2</ele>
        <time>2022-05-20 20:53:59</time>
      </trkpt>
      <trkpt lat="41.39643" lon="1.37005">
        <ele>378</ele>
        <time>2022-05-20 20:54:00</time>
      </trkpt>
      <trkpt lat="41.39646" lon="1.37013">
        <ele>378</ele>
        <time>2022-05-20 20:54:01</time>
      </trkpt>
      <trkpt lat="41.39649" lon="1.37021">
        <ele>378</ele>
        <time>2022-05-20 20:54:02</time>
      </trkpt>
      <trkpt lat="41.39652" lon="1.3703">
        <ele>377.8</ele>
        <time>2022-05-20 20:54:03</time>
      </trkpt>
      <trkpt lat="41.39654" lon="1.3704">
        <ele>377.6</ele>
        <time>2022-05-20 20:54:04</time>
      </trkpt>
      <trkpt lat="41.39656" lon="1.37049">
        <ele>377.4</ele>
        <time>2022-05-20 20:54:05</time>
      </trkpt>
      <trkpt lat="41.39658" lon="1.37059">
        <ele>377.2</ele>
        <time>2022-05-20 20:54:06</time>
      </trkpt>
      <trkpt lat="41.3966" lon="1.37069">
        <ele>377</ele>
        <time>2022-05-20 20:54:07</time>
      </trkpt>
      <trkpt lat="41.39663" lon="1.3708">
        <ele>376.8</ele>
        <time>2022-05-20 20:54:08</time>
      </trkpt>
      <trkpt lat="41.39666" lon="1.3709">
        <ele>376.6</ele>
        <time>2022-05-20 20:54:09</time>
      </trkpt>
      <trkpt lat="41.39669" lon="1.37101">
        <ele>376.4</ele>
        <time>2022-05-20 20:54:10</time>
      </trkpt>
      <trkpt lat="41.39673" lon="1.3711">
        <ele>376.2</ele>
        <time>2022-05-20 20:54:11</time>
      </trkpt>
      <trkpt lat="41.39679" lon="1.37115">
        <ele>376</ele>
        <time>2022-05-20 20:54:12</time>
      </trkpt>
      <trkpt lat="41.39685" lon="1.37115">
        <ele>376</ele>
        <time>2022-05-20 20:54:13</time>
      </trkpt>
      <trkpt lat="41.3969" lon="1.37113">
        <ele>376</ele>
        <time>2022-05-20 20:54:14</time>
      </trkpt>
      <trkpt lat="41.39696" lon="1.37109">
        <ele>376</ele>
        <time>2022-05-20 20:54:15</time>
      </trkpt>
      <trkpt lat="41.39701" lon="1.37102">
        <ele>376.2</ele>
        <time>2022-05-20 20:54:16</time>
      </trkpt>
      <trkpt lat="41.39705" lon="1.37095">
        <ele>376.2</ele>
        <time>2022-05-20 20:54:17</time>
      </trkpt>
      <trkpt lat="41.39709" lon="1.37086">
        <ele>376.4</ele>
        <time>2022-05-20 20:54:18</time>
      </trkpt>
      <trkpt lat="41.39713" lon="1.37079">
        <ele>376.4</ele>
        <time>2022-05-20 20:54:19</time>
      </trkpt>
      <trkpt lat="41.39717" lon="1.37071">
        <ele>376.6</ele>
        <time>2022-05-20 20:54:20</time>
      </trkpt>
      <trkpt lat="41.39721" lon="1.37063">
        <ele>376.6</ele>
        <time>2022-05-20 20:54:21</time>
      </trkpt>
      <trkpt lat="41.39726" lon="1.37056">
        <ele>376.8</ele>
        <time>2022-05-20 20:54:22</time>
      </trkpt>
      <trkpt lat="41.39731" lon="1.37048">
        <ele>377</ele>
        <time>2022-05-20 20:54:23</time>
      </trkpt>
      <trkpt lat="41.39736" lon="1.37042">
        <ele>377.2</ele>
        <time>2022-05-20 20:54:24</time>
      </trkpt>
      <trkpt lat="41.39741" lon="1.37035">
        <ele>377.2</ele>
        <time>2022-05-20 20:54:25</time>
      </trkpt>
      <trkpt lat="41.39747" lon="1.3703">
        <ele>377.4</ele>
        <time>2022-05-20 20:54:26</time>
      </trkpt>
      <trkpt lat="41.39753" lon="1.37024">
        <ele>377.4</ele>
        <time>2022-05-20 20:54:27</time>
      </trkpt>
      <trkpt lat="41.39759" lon="1.37019">
        <ele>377.6</ele>
        <time>2022-05-20 20:54:28</time>
      </trkpt>
      <trkpt lat="41.39766" lon="1.37016">
        <ele>377.8</ele>
        <time>2022-05-20 20:54:29</time>
      </trkpt>
      <trkpt lat="41.39772" lon="1.37012">
        <ele>377.8</ele>
        <time>2022-05-20 20:54:30</time>
      </trkpt>
      <trkpt lat="41.39779" lon="1.37009">
        <ele>378</ele>
        <time>2022-05-20 20:54:31</time>
      </trkpt>
      <trkpt lat="41.39786" lon="1.37007">
        <ele>378</ele>
        <time>2022-05-20 20:54:32</time>
      </trkpt>
      <trkpt lat="41.39793" lon="1.37006">
        <ele>378.2</ele>
        <time>2022-05-20 20:54:33</time>
      </trkpt>
      <trkpt lat="41.398" lon="1.37004">
        <ele>378.2</ele>
        <time>2022-05-20 20:54:34</time>
      </trkpt>
      <trkpt lat="41.39808" lon="1.37002">
        <ele>378.4</ele>
        <time>2022-05-20 20:54:35</time>
      </trkpt>
      <trkpt lat="41.39815" lon="1.37">
        <ele>378.6</ele>
        <time>2022-05-20 20:54:36</time>
      </trkpt>
      <trkpt lat="41.39822" lon="1.36999">
        <ele>378.8</ele>
        <time>2022-05-20 20:54:37</time>
      </trkpt>
      <trkpt lat="41.3983" lon="1.36997">
        <ele>378.8</ele>
        <time>2022-05-20 20:54:38</time>
      </trkpt>
      <trkpt lat="41.39837" lon="1.36993">
        <ele>379</ele>
        <time>2022-05-20 20:54:39</time>
      </trkpt>
      <trkpt lat="41.39843" lon="1.36989">
        <ele>379.2</ele>
        <time>2022-05-20 20:54:40</time>
      </trkpt>
      <trkpt lat="41.39848" lon="1.36984">
        <ele>379.4</ele>
        <time>2022-05-20 20:54:41</time>
      </trkpt>
      <trkpt lat="41.39853" lon="1.36977">
        <ele>379.6</ele>
        <time>2022-05-20 20:54:42</time>
      </trkpt>
      <trkpt lat="41.39856" lon="1.36969">
        <ele>379.8</ele>
        <time>2022-05-20 20:54:43</time>
      </trkpt>
      <trkpt lat="41.39859" lon="1.36961">
        <ele>380</ele>
        <time>2022-05-20 20:54:44</time>
      </trkpt>
      <trkpt lat="41.39862" lon="1.36953">
        <ele>380.2</ele>
        <time>2022-05-20 20:54:45</time>
      </trkpt>
      <trkpt lat="41.39864" lon="1.36944">
        <ele>380.2</ele>
        <time>2022-05-20 20:54:46</time>
      </trkpt>
      <trkpt lat="41.39864" lon="1.36936">
        <ele>380.4</ele>
        <time>2022-05-20 20:54:47</time>
      </trkpt>
      <trkpt lat="41.39861" lon="1.36929">
        <ele>380.6</ele>
        <time>2022-05-20 20:54:48</time>
      </trkpt>
      <trkpt lat="41.39858" lon="1.36922">
        <ele>380.6</ele>
        <time>2022-05-20 20:54:49</time>
      </trkpt>
      <trkpt lat="41.39854" lon="1.36916">
        <ele>381</ele>
        <time>2022-05-20 20:54:50</time>
      </trkpt>
      <trkpt lat="41.39849" lon="1.3691">
        <ele>381.2</ele>
        <time>2022-05-20 20:54:51</time>
      </trkpt>
      <trkpt lat="41.39845" lon="1.36904">
        <ele>381.4</ele>
        <time>2022-05-20 20:54:52</time>
      </trkpt>
      <trkpt lat="41.3984" lon="1.36899">
        <ele>381.8</ele>
        <time>2022-05-20 20:54:53</time>
      </trkpt>
      <trkpt lat="41.39837" lon="1.36893">
        <ele>382</ele>
        <time>2022-05-20 20:54:54</time>
      </trkpt>
      <trkpt lat="41.39834" lon="1.36888">
        <ele>382.4</ele>
        <time>2022-05-20 20:54:55</time>
      </trkpt>
      <trkpt lat="41.39831" lon="1.36882">
        <ele>382.6</ele>
        <time>2022-05-20 20:54:56</time>
      </trkpt>
      <trkpt lat="41.39829" lon="1.36875">
        <ele>383</ele>
        <time>2022-05-20 20:54:57</time>
      </trkpt>
      <trkpt lat="41.39828" lon="1.36868">
        <ele>383.4</ele>
        <time>2022-05-20 20:54:58</time>
      </trkpt>
      <trkpt lat="41.39828" lon="1.36861">
        <ele>383.6</ele>
        <time>2022-05-20 20:54:59</time>
      </trkpt>
      <trkpt lat="41.3983" lon="1.36855">
        <ele>384</ele>
        <time>2022-05-20 20:55:00</time>
      </trkpt>
      <trkpt lat="41.39832" lon="1.36848">
        <ele>384.2</ele>
        <time>2022-05-20 20:55:01</time>
      </trkpt>
      <trkpt lat="41.39836" lon="1.36843">
        <ele>384.6</ele>
        <time>2022-05-20 20:55:02</time>
      </trkpt>
      <trkpt lat="41.39841" lon="1.36839">
        <ele>384.6</ele>
        <time>2022-05-20 20:55:03</time>
      </trkpt>
      <trkpt lat="41.39847" lon="1.36837">
        <ele>384.8</ele>
        <time>2022-05-20 20:55:04</time>
      </trkpt>
      <trkpt lat="41.39853" lon="1.36836">
        <ele>385</ele>
        <time>2022-05-20 20:55:05</time>
      </trkpt>
      <trkpt lat="41.39859" lon="1.36837">
        <ele>385</ele>
        <time>2022-05-20 20:55:06</time>
      </trkpt>
      <trkpt lat="41.39864" lon="1.3684">
        <ele>385</ele>
        <time>2022-05-20 20:55:07</time>
      </trkpt>
      <trkpt lat="41.3987" lon="1.36843">
        <ele>385</ele>
        <time>2022-05-20 20:55:08</time>
      </trkpt>
      <trkpt lat="41.39876" lon="1.36847">
        <ele>385.2</ele>
        <time>2022-05-20 20:55:09</time>
      </trkpt>
      <trkpt lat="41.39882" lon="1.36851">
        <ele>385</ele>
        <time>2022-05-20 20:55:10</time>
      </trkpt>
      <trkpt lat="41.39888" lon="1.36855">
        <ele>385</ele>
        <time>2022-05-20 20:55:11</time>
      </trkpt>
      <trkpt lat="41.39895" lon="1.36859">
        <ele>385</ele>
        <time>2022-05-20 20:55:12</time>
      </trkpt>
      <trkpt lat="41.39901" lon="1.36862">
        <ele>385</ele>
        <time>2022-05-20 20:55:13</time>
      </trkpt>
      <trkpt lat="41.39908" lon="1.36865">
        <ele>385</ele>
        <time>2022-05-20 20:55:14</time>
      </trkpt>
      <trkpt lat="41.39914" lon="1.36868">
        <ele>385.2</ele>
        <time>2022-05-20 20:55:15</time>
      </trkpt>
      <trkpt lat="41.39921" lon="1.36869">
        <ele>385.2</ele>
        <time>2022-05-20 20:55:16</time>
      </trkpt>
      <trkpt lat="41.39927" lon="1.3687">
        <ele>385.4</ele>
        <time>2022-05-20 20:55:17</time>
      </trkpt>
      <trkpt lat="41.39934" lon="1.36871">
        <ele>385.6</ele>
        <time>2022-05-20 20:55:18</time>
      </trkpt>
      <trkpt lat="41.3994" lon="1.36871">
        <ele>385.8</ele>
        <time>2022-05-20 20:55:19</time>
      </trkpt>
      <trkpt lat="41.39946" lon="1.36871">
        <ele>386</ele>
        <time>2022-05-20 20:55:20</time>
      </trkpt>
      <trkpt lat="41.39952" lon="1.36871">
        <ele>386.4</ele>
        <time>2022-05-20 20:55:21</time>
      </trkpt>
      <trkpt lat="41.39957" lon="1.36871">
        <ele>386.6</ele>
        <time>2022-05-20 20:55:22</time>
      </trkpt>
      <trkpt lat="41.39963" lon="1.36871">
        <ele>387</ele>
        <time>2022-05-20 20:55:23</time>
      </trkpt>
      <trkpt lat="41.39968" lon="1.36871">
        <ele>387.2</ele>
        <time>2022-05-20 20:55:24</time>
      </trkpt>
      <trkpt lat="41.39973" lon="1.3687">
        <ele>387.6</ele>
        <time>2022-05-20 20:55:25</time>
      </trkpt>
      <trkpt lat="41.39979" lon="1.3687">
        <ele>387.8</ele>
        <time>2022-05-20 20:55:26</time>
      </trkpt>
      <trkpt lat="41.39984" lon="1.36869">
        <ele>388.2</ele>
        <time>2022-05-20 20:55:27</time>
      </trkpt>
      <trkpt lat="41.39988" lon="1.36868">
        <ele>388.4</ele>
        <time>2022-05-20 20:55:28</time>
      </trkpt>
      <trkpt lat="41.39993" lon="1.36867">
        <ele>388.8</ele>
        <time>2022-05-20 20:55:29</time>
      </trkpt>
      <trkpt lat="41.39997" lon="1.36865">
        <ele>389</ele>
        <time>2022-05-20 20:55:30</time>
      </trkpt>
      <trkpt lat="41.40002" lon="1.36863">
        <ele>389.2</ele>
        <time>2022-05-20 20:55:31</time>
      </trkpt>
      <trkpt lat="41.40007" lon="1.36861">
        <ele>389.6</ele>
        <time>2022-05-20 20:55:32</time>
      </trkpt>
      <trkpt lat="41.40011" lon="1.36859">
        <ele>389.8</ele>
        <time>2022-05-20 20:55:33</time>
      </trkpt>
      <trkpt lat="41.40016" lon="1.36857">
        <ele>390</ele>
        <time>2022-05-20 20:55:34</time>
      </trkpt>
      <trkpt lat="41.4002" lon="1.36855">
        <ele>390.4</ele>
        <time>2022-05-20 20:55:35</time>
      </trkpt>
      <trkpt lat="41.40025" lon="1.36853">
        <ele>390.6</ele>
        <time>2022-05-20 20:55:36</time>
      </trkpt>
      <trkpt lat="41.40029" lon="1.36851">
        <ele>391</ele>
        <time>2022-05-20 20:55:37</time>
      </trkpt>
      <trkpt lat="41.40033" lon="1.36849">
        <ele>391.2</ele>
        <time>2022-05-20 20:55:38</time>
      </trkpt>
      <trkpt lat="41.40037" lon="1.36848">
        <ele>391.6</ele>
        <time>2022-05-20 20:55:39</time>
      </trkpt>
      <trkpt lat="41.40041" lon="1.36848">
        <ele>391.8</ele>
        <time>2022-05-20 20:55:40</time>
      </trkpt>
      <trkpt lat="41.40045" lon="1.36849">
        <ele>392</ele>
        <time>2022-05-20 20:55:41</time>
      </trkpt>
      <trkpt lat="41.40048" lon="1.36851">
        <ele>392.4</ele>
        <time>2022-05-20 20:55:42</time>
      </trkpt>
      <trkpt lat="41.4005" lon="1.36855">
        <ele>392.8</ele>
        <time>2022-05-20 20:55:43</time>
      </trkpt>
      <trkpt lat="41.40052" lon="1.36858">
        <ele>393.2</ele>
        <time>2022-05-20 20:55:44</time>
      </trkpt>
      <trkpt lat="41.40055" lon="1.36863">
        <ele>393.4</ele>
        <time>2022-05-20 20:55:45</time>
      </trkpt>
      <trkpt lat="41.40057" lon="1.36867">
        <ele>393.8</ele>
        <time>2022-05-20 20:55:46</time>
      </trkpt>
      <trkpt lat="41.40059" lon="1.36872">
        <ele>394.2</ele>
        <time>2022-05-20 20:55:47</time>
      </trkpt>
      <trkpt lat="41.40061" lon="1.36876">
        <ele>394.4</ele>
        <time>2022-05-20 20:55:48</time>
      </trkpt>
      <trkpt lat="41.40063" lon="1.36881">
        <ele>394.8</ele>
        <time>2022-05-20 20:55:49</time>
      </trkpt>
      <trkpt lat="41.40065" lon="1.36886">
        <ele>395</ele>
        <time>2022-05-20 20:55:50</time>
      </trkpt>
      <trkpt lat="41.40067" lon="1.3689">
        <ele>395.4</ele>
        <time>2022-05-20 20:55:51</time>
      </trkpt>
      <trkpt lat="41.40069" lon="1.36895">
        <ele>395.6</ele>
        <time>2022-05-20 20:55:52</time>
      </trkpt>
      <trkpt lat="41.40071" lon="1.36899">
        <ele>395.8</ele>
        <time>2022-05-20 20:55:53</time>
      </trkpt>
      <trkpt lat="41.40073" lon="1.36903">
        <ele>396.2</ele>
        <time>2022-05-20 20:55:54</time>
      </trkpt>
      <trkpt lat="41.40075" lon="1.36908">
        <ele>396.4</ele>
        <time>2022-05-20 20:55:55</time>
      </trkpt>
      <trkpt lat="41.40077" lon="1.36912">
        <ele>396.8</ele>
        <time>2022-05-20 20:55:56</time>
      </trkpt>
      <trkpt lat="41.40079" lon="1.36917">
        <ele>397</ele>
        <time>2022-05-20 20:55:57</time>
      </trkpt>
      <trkpt lat="41.40081" lon="1.36921">
        <ele>397.2</ele>
        <time>2022-05-20 20:55:58</time>
      </trkpt>
      <trkpt lat="41.40084" lon="1.36925">
        <ele>397.6</ele>
        <time>2022-05-20 20:55:59</time>
      </trkpt>
      <trkpt lat="41.40086" lon="1.36929">
        <ele>397.8</ele>
        <time>2022-05-20 20:56:00</time>
      </trkpt>
      <trkpt lat="41.40088" lon="1.36933">
        <ele>398</ele>
        <time>2022-05-20 20:56:01</time>
      </trkpt>
      <trkpt lat="41.40091" lon="1.36937">
        <ele>398.4</ele>
        <time>2022-05-20 20:56:02</time>
      </trkpt>
      <trkpt lat="41.40094" lon="1.36941">
        <ele>398.6</ele>
        <time>2022-05-20 20:56:03</time>
      </trkpt>
      <trkpt lat="41.40097" lon="1.36944">
        <ele>398.8</ele>
        <time>2022-05-20 20:56:04</time>
      </trkpt>
      <trkpt lat="41.40099" lon="1.36947">
        <ele>399</ele>
        <time>2022-05-20 20:56:05</time>
      </trkpt>
      <trkpt lat="41.40102" lon="1.36949">
        <ele>399.2</ele>
        <time>2022-05-20 20:56:06</time>
      </trkpt>
      <trkpt lat="41.40105" lon="1.36951">
        <ele>399.4</ele>
        <time>2022-05-20 20:56:07</time>
      </trkpt>
      <trkpt lat="41.40109" lon="1.36953">
        <ele>399.6</ele>
        <time>2022-05-20 20:56:08</time>
      </trkpt>
      <trkpt lat="41.40112" lon="1.36955">
        <ele>399.8</ele>
        <time>2022-05-20 20:56:09</time>
      </trkpt>
      <trkpt lat="41.40116" lon="1.36955">
        <ele>400</ele>
        <time>2022-05-20 20:56:10</time>
      </trkpt>
      <trkpt lat="41.40121" lon="1.36956">
        <ele>400.2</ele>
        <time>2022-05-20 20:56:11</time>
      </trkpt>
      <trkpt lat="41.40125" lon="1.36957">
        <ele>400.2</ele>
        <time>2022-05-20 20:56:12</time>
      </trkpt>
      <trkpt lat="41.4013" lon="1.36958">
        <ele>400.4</ele>
        <time>2022-05-20 20:56:13</time>
      </trkpt>
      <trkpt lat="41.40134" lon="1.3696">
        <ele>400.6</ele>
        <time>2022-05-20 20:56:14</time>
      </trkpt>
      <trkpt lat="41.40138" lon="1.36961">
        <ele>400.8</ele>
        <time>2022-05-20 20:56:15</time>
      </trkpt>
      <trkpt lat="41.40143" lon="1.36962">
        <ele>401</ele>
        <time>2022-05-20 20:56:16</time>
      </trkpt>
      <trkpt lat="41.40148" lon="1.36964">
        <ele>401.4</ele>
        <time>2022-05-20 20:56:17</time>
      </trkpt>
      <trkpt lat="41.40152" lon="1.36965">
        <ele>401.6</ele>
        <time>2022-05-20 20:56:18</time>
      </trkpt>
      <trkpt lat="41.40157" lon="1.36966">
        <ele>401.8</ele>
        <time>2022-05-20 20:56:19</time>
      </trkpt>
      <trkpt lat="41.40161" lon="1.36968">
        <ele>402</ele>
        <time>2022-05-20 20:56:20</time>
      </trkpt>
      <trkpt lat="41.40165" lon="1.36969">
        <ele>402.2</ele>
        <time>2022-05-20 20:56:21</time>
      </trkpt>
      <trkpt lat="41.40169" lon="1.3697">
        <ele>402.4</ele>
        <time>2022-05-20 20:56:22</time>
      </trkpt>
      <trkpt lat="41.40174" lon="1.36972">
        <ele>402.6</ele>
        <time>2022-05-20 20:56:23</time>
      </trkpt>
      <trkpt lat="41.40178" lon="1.36973">
        <ele>402.8</ele>
        <time>2022-05-20 20:56:24</time>
      </trkpt>
      <trkpt lat="41.40181" lon="1.36974">
        <ele>403</ele>
        <time>2022-05-20 20:56:25</time>
      </trkpt>
      <trkpt lat="41.40185" lon="1.36975">
        <ele>403.2</ele>
        <time>2022-05-20 20:56:26</time>
      </trkpt>
      <trkpt lat="41.40189" lon="1.36976">
        <ele>403.4</ele>
        <time>2022-05-20 20:56:27</time>
      </trkpt>
      <trkpt lat="41.40193" lon="1.36977">
        <ele>403.6</ele>
        <time>2022-05-20 20:56:28</time>
      </trkpt>
      <trkpt lat="41.40197" lon="1.36978">
        <ele>403.8</ele>
        <time>2022-05-20 20:56:29</time>
      </trkpt>
      <trkpt lat="41.40201" lon="1.3698">
        <ele>404</ele>
        <time>2022-05-20 20:56:30</time>
      </trkpt>
      <trkpt lat="41.40205" lon="1.36981">
        <ele>404.2</ele>
        <time>2022-05-20 20:56:31</time>
      </trkpt>
      <trkpt lat="41.40209" lon="1.36982">
        <ele>404.4</ele>
        <time>2022-05-20 20:56:32</time>
      </trkpt>
      <trkpt lat="41.40213" lon="1.36983">
        <ele>404.6</ele>
        <time>2022-05-20 20:56:33</time>
      </trkpt>
      <trkpt lat="41.40218" lon="1.36984">
        <ele>404.8</ele>
        <time>2022-05-20 20:56:34</time>
      </trkpt>
      <trkpt lat="41.40221" lon="1.36985">
        <ele>405</ele>
        <time>2022-05-20 20:56:35</time>
      </trkpt>
      <trkpt lat="41.40226" lon="1.36987">
        <ele>405.2</ele>
        <time>2022-05-20 20:56:36</time>
      </trkpt>
      <trkpt lat="41.4023" lon="1.36988">
        <ele>405.4</ele>
        <time>2022-05-20 20:56:37</time>
      </trkpt>
      <trkpt lat="41.40234" lon="1.36989">
        <ele>405.6</ele>
        <time>2022-05-20 20:56:38</time>
      </trkpt>
      <trkpt lat="41.40239" lon="1.36991">
        <ele>405.8</ele>
        <time>2022-05-20 20:56:39</time>
      </trkpt>
      <trkpt lat="41.40243" lon="1.36992">
        <ele>406</ele>
        <time>2022-05-20 20:56:40</time>
      </trkpt>
      <trkpt lat="41.40247" lon="1.36994">
        <ele>406.2</ele>
        <time>2022-05-20 20:56:41</time>
      </trkpt>
      <trkpt lat="41.40251" lon="1.36996">
        <ele>406.4</ele>
        <time>2022-05-20 20:56:42</time>
      </trkpt>
      <trkpt lat="41.40255" lon="1.36998">
        <ele>406.6</ele>
        <time>2022-05-20 20:56:43</time>
      </trkpt>
      <trkpt lat="41.40259" lon="1.37">
        <ele>406.8</ele>
        <time>2022-05-20 20:56:44</time>
      </trkpt>
      <trkpt lat="41.40263" lon="1.37002">
        <ele>407</ele>
        <time>2022-05-20 20:56:45</time>
      </trkpt>
      <trkpt lat="41.40266" lon="1.37005">
        <ele>407.2</ele>
        <time>2022-05-20 20:56:46</time>
      </trkpt>
      <trkpt lat="41.4027" lon="1.37008">
        <ele>407.4</ele>
        <time>2022-05-20 20:56:47</time>
      </trkpt>
      <trkpt lat="41.40274" lon="1.37011">
        <ele>407.6</ele>
        <time>2022-05-20 20:56:48</time>
      </trkpt>
      <trkpt lat="41.40277" lon="1.37014">
        <ele>407.8</ele>
        <time>2022-05-20 20:56:49</time>
      </trkpt>
      <trkpt lat="41.40281" lon="1.37017">
        <ele>408</ele>
        <time>2022-05-20 20:56:50</time>
      </trkpt>
      <trkpt lat="41.40284" lon="1.3702">
        <ele>408.2</ele>
        <time>2022-05-20 20:56:51</time>
      </trkpt>
      <trkpt lat="41.40287" lon="1.37023">
        <ele>408.4</ele>
        <time>2022-05-20 20:56:52</time>
      </trkpt>
      <trkpt lat="41.40291" lon="1.37026">
        <ele>408.6</ele>
        <time>2022-05-20 20:56:53</time>
      </trkpt>
      <trkpt lat="41.40294" lon="1.37029">
        <ele>408.8</ele>
        <time>2022-05-20 20:56:54</time>
      </trkpt>
      <trkpt lat="41.40297" lon="1.37031">
        <ele>409</ele>
        <time>2022-05-20 20:56:55</time>
      </trkpt>
      <trkpt lat="41.40301" lon="1.37035">
        <ele>409.2</ele>
        <time>2022-05-20 20:56:56</time>
      </trkpt>
      <trkpt lat="41.40305" lon="1.37039">
        <ele>409.4</ele>
        <time>2022-05-20 20:56:57</time>
      </trkpt>
      <trkpt lat="41.40309" lon="1.37042">
        <ele>409.6</ele>
        <time>2022-05-20 20:56:58</time>
      </trkpt>
      <trkpt lat="41.40312" lon="1.37046">
        <ele>409.8</ele>
        <time>2022-05-20 20:56:59</time>
      </trkpt>
      <trkpt lat="41.40316" lon="1.37049">
        <ele>410</ele>
        <time>2022-05-20 20:57:00</time>
      </trkpt>
      <trkpt lat="41.40319" lon="1.37052">
        <ele>410</ele>
        <time>2022-05-20 20:57:01</time>
      </trkpt>
      <trkpt lat="41.40322" lon="1.37056">
        <ele>410.2</ele>
        <time>2022-05-20 20:57:02</time>
      </trkpt>
      <trkpt lat="41.40324" lon="1.37059">
        <ele>410.6</ele>
        <time>2022-05-20 20:57:03</time>
      </trkpt>
      <trkpt lat="41.40327" lon="1.37063">
        <ele>410.8</ele>
        <time>2022-05-20 20:57:04</time>
      </trkpt>
      <trkpt lat="41.4033" lon="1.37067">
        <ele>411</ele>
        <time>2022-05-20 20:57:05</time>
      </trkpt>
      <trkpt lat="41.40332" lon="1.37072">
        <ele>411.2</ele>
        <time>2022-05-20 20:57:06</time>
      </trkpt>
      <trkpt lat="41.40334" lon="1.37077">
        <ele>411.4</ele>
        <time>2022-05-20 20:57:07</time>
      </trkpt>
      <trkpt lat="41.40336" lon="1.37082">
        <ele>411.8</ele>
        <time>2022-05-20 20:57:08</time>
      </trkpt>
      <trkpt lat="41.40338" lon="1.37088">
        <ele>412</ele>
        <time>2022-05-20 20:57:09</time>
      </trkpt>
      <trkpt lat="41.4034" lon="1.37093">
        <ele>412.2</ele>
        <time>2022-05-20 20:57:10</time>
      </trkpt>
      <trkpt lat="41.40341" lon="1.37098">
        <ele>412.4</ele>
        <time>2022-05-20 20:57:11</time>
      </trkpt>
      <trkpt lat="41.40342" lon="1.37103">
        <ele>412.6</ele>
        <time>2022-05-20 20:57:12</time>
      </trkpt>
      <trkpt lat="41.40343" lon="1.37108">
        <ele>412.8</ele>
        <time>2022-05-20 20:57:13</time>
      </trkpt>
      <trkpt lat="41.40345" lon="1.37113">
        <ele>413</ele>
        <time>2022-05-20 20:57:14</time>
      </trkpt>
      <trkpt lat="41.40346" lon="1.37118">
        <ele>413.2</ele>
        <time>2022-05-20 20:57:15</time>
      </trkpt>
      <trkpt lat="41.40348" lon="1.37123">
        <ele>413.4</ele>
        <time>2022-05-20 20:57:16</time>
      </trkpt>
      <trkpt lat="41.40349" lon="1.37128">
        <ele>413.6</ele>
        <time>2022-05-20 20:57:17</time>
      </trkpt>
      <trkpt lat="41.40351" lon="1.37132">
        <ele>413.8</ele>
        <time>2022-05-20 20:57:18</time>
      </trkpt>
      <trkpt lat="41.40353" lon="1.37137">
        <ele>414</ele>
        <time>2022-05-20 20:57:19</time>
      </trkpt>
      <trkpt lat="41.40355" lon="1.37142">
        <ele>414.2</ele>
        <time>2022-05-20 20:57:20</time>
      </trkpt>
      <trkpt lat="41.40357" lon="1.37146">
        <ele>414.4</ele>
        <time>2022-05-20 20:57:21</time>
      </trkpt>
      <trkpt lat="41.40359" lon="1.37151">
        <ele>414.6</ele>
        <time>2022-05-20 20:57:22</time>
      </trkpt>
      <trkpt lat="41.40362" lon="1.37155">
        <ele>414.8</ele>
        <time>2022-05-20 20:57:23</time>
      </trkpt>
      <trkpt lat="41.40365" lon="1.37159">
        <ele>415</ele>
        <time>2022-05-20 20:57:24</time>
      </trkpt>
      <trkpt lat="41.40369" lon="1.37164">
        <ele>415.2</ele>
        <time>2022-05-20 20:57:25</time>
      </trkpt>
      <trkpt lat="41.40372" lon="1.37168">
        <ele>415.4</ele>
        <time>2022-05-20 20:57:26</time>
      </trkpt>
      <trkpt lat="41.40375" lon="1.37172">
        <ele>415.6</ele>
        <time>2022-05-20 20:57:27</time>
      </trkpt>
      <trkpt lat="41.40378" lon="1.37175">
        <ele>415.8</ele>
        <time>2022-05-20 20:57:28</time>
      </trkpt>
      <trkpt lat="41.40381" lon="1.37178">
        <ele>416</ele>
        <time>2022-05-20 20:57:29</time>
      </trkpt>
      <trkpt lat="41.40384" lon="1.3718">
        <ele>416.2</ele>
        <time>2022-05-20 20:57:30</time>
      </trkpt>
      <trkpt lat="41.40387" lon="1.37183">
        <ele>416.4</ele>
        <time>2022-05-20 20:57:31</time>
      </trkpt>
      <trkpt lat="41.4039" lon="1.37185">
        <ele>416.6</ele>
        <time>2022-05-20 20:57:32</time>
      </trkpt>
      <trkpt lat="41.40394" lon="1.37188">
        <ele>416.8</ele>
        <time>2022-05-20 20:57:33</time>
      </trkpt>
      <trkpt lat="41.40398" lon="1.37191">
        <ele>417</ele>
        <time>2022-05-20 20:57:34</time>
      </trkpt>
      <trkpt lat="41.40401" lon="1.37193">
        <ele>417.2</ele>
        <time>2022-05-20 20:57:35</time>
      </trkpt>
      <trkpt lat="41.40405" lon="1.37195">
        <ele>417.4</ele>
        <time>2022-05-20 20:57:36</time>
      </trkpt>
      <trkpt lat="41.40408" lon="1.37198">
        <ele>417.6</ele>
        <time>2022-05-20 20:57:37</time>
      </trkpt>
      <trkpt lat="41.40412" lon="1.372">
        <ele>417.8</ele>
        <time>2022-05-20 20:57:38</time>
      </trkpt>
      <trkpt lat="41.40416" lon="1.37202">
        <ele>418</ele>
        <time>2022-05-20 20:57:39</time>
      </trkpt>
      <trkpt lat="41.40421" lon="1.37203">
        <ele>418.2</ele>
        <time>2022-05-20 20:57:40</time>
      </trkpt>
      <trkpt lat="41.40425" lon="1.37203">
        <ele>418.4</ele>
        <time>2022-05-20 20:57:41</time>
      </trkpt>
      <trkpt lat="41.4043" lon="1.37202">
        <ele>418.6</ele>
        <time>2022-05-20 20:57:42</time>
      </trkpt>
      <trkpt lat="41.40434" lon="1.372">
        <ele>418.8</ele>
        <time>2022-05-20 20:57:43</time>
      </trkpt>
      <trkpt lat="41.40437" lon="1.37198">
        <ele>419</ele>
        <time>2022-05-20 20:57:44</time>
      </trkpt>
      <trkpt lat="41.4044" lon="1.37195">
        <ele>419.2</ele>
        <time>2022-05-20 20:57:45</time>
      </trkpt>
      <trkpt lat="41.40442" lon="1.37192">
        <ele>419.4</ele>
        <time>2022-05-20 20:57:46</time>
      </trkpt>
      <trkpt lat="41.40445" lon="1.37189">
        <ele>419.8</ele>
        <time>2022-05-20 20:57:47</time>
      </trkpt>
      <trkpt lat="41.40448" lon="1.37185">
        <ele>420</ele>
        <time>2022-05-20 20:57:48</time>
      </trkpt>
      <trkpt lat="41.4045" lon="1.37182">
        <ele>420.2</ele>
        <time>2022-05-20 20:57:49</time>
      </trkpt>
      <trkpt lat="41.40453" lon="1.37178">
        <ele>420.4</ele>
        <time>2022-05-20 20:57:50</time>
      </trkpt>
      <trkpt lat="41.40455" lon="1.37174">
        <ele>420.6</ele>
        <time>2022-05-20 20:57:51</time>
      </trkpt>
      <trkpt lat="41.40458" lon="1.3717">
        <ele>421</ele>
        <time>2022-05-20 20:57:52</time>
      </trkpt>
      <trkpt lat="41.40461" lon="1.37167">
        <ele>421.2</ele>
        <time>2022-05-20 20:57:53</time>
      </trkpt>
      <trkpt lat="41.40464" lon="1.37163">
        <ele>421.4</ele>
        <time>2022-05-20 20:57:54</time>
      </trkpt>
      <trkpt lat="41.40468" lon="1.3716">
        <ele>421.6</ele>
        <time>2022-05-20 20:57:55</time>
      </trkpt>
      <trkpt lat="41.40471" lon="1.37156">
        <ele>421.8</ele>
        <time>2022-05-20 20:57:56</time>
      </trkpt>
      <trkpt lat="41.40475" lon="1.37153">
        <ele>422</ele>
        <time>2022-05-20 20:57:57</time>
      </trkpt>
      <trkpt lat="41.40478" lon="1.3715">
        <ele>422.2</ele>
        <time>2022-05-20 20:57:58</time>
      </trkpt>
      <trkpt lat="41.40482" lon="1.37147">
        <ele>422.4</ele>
        <time>2022-05-20 20:57:59</time>
      </trkpt>
      <trkpt lat="41.40485" lon="1.37145">
        <ele>422.6</ele>
        <time>2022-05-20 20:58:00</time>
      </trkpt>
      <trkpt lat="41.40489" lon="1.37143">
        <ele>422.8</ele>
        <time>2022-05-20 20:58:01</time>
      </trkpt>
      <trkpt lat="41.40493" lon="1.37143">
        <ele>423.2</ele>
        <time>2022-05-20 20:58:02</time>
      </trkpt>
      <trkpt lat="41.40497" lon="1.37143">
        <ele>423.4</ele>
        <time>2022-05-20 20:58:03</time>
      </trkpt>
      <trkpt lat="41.40501" lon="1.37143">
        <ele>423.6</ele>
        <time>2022-05-20 20:58:04</time>
      </trkpt>
      <trkpt lat="41.40505" lon="1.37143">
        <ele>423.8</ele>
        <time>2022-05-20 20:58:05</time>
      </trkpt>
      <trkpt lat="41.40509" lon="1.37143">
        <ele>424.2</ele>
        <time>2022-05-20 20:58:06</time>
      </trkpt>
      <trkpt lat="41.40513" lon="1.37144">
        <ele>424.4</ele>
        <time>2022-05-20 20:58:07</time>
      </trkpt>
      <trkpt lat="41.40518" lon="1.37144">
        <ele>424.6</ele>
        <time>2022-05-20 20:58:08</time>
      </trkpt>
      <trkpt lat="41.40522" lon="1.37145">
        <ele>424.8</ele>
        <time>2022-05-20 20:58:09</time>
      </trkpt>
      <trkpt lat="41.40526" lon="1.37145">
        <ele>425</ele>
        <time>2022-05-20 20:58:10</time>
      </trkpt>
      <trkpt lat="41.4053" lon="1.37146">
        <ele>425.2</ele>
        <time>2022-05-20 20:58:11</time>
      </trkpt>
      <trkpt lat="41.40535" lon="1.37147">
        <ele>425.4</ele>
        <time>2022-05-20 20:58:12</time>
      </trkpt>
      <trkpt lat="41.4054" lon="1.37149">
        <ele>425.6</ele>
        <time>2022-05-20 20:58:13</time>
      </trkpt>
      <trkpt lat="41.40543" lon="1.3715">
        <ele>425.8</ele>
        <time>2022-05-20 20:58:14</time>
      </trkpt>
      <trkpt lat="41.40547" lon="1.37153">
        <ele>426</ele>
        <time>2022-05-20 20:58:15</time>
      </trkpt>
      <trkpt lat="41.40551" lon="1.37156">
        <ele>426.2</ele>
        <time>2022-05-20 20:58:16</time>
      </trkpt>
      <trkpt lat="41.40553" lon="1.37159">
        <ele>426.4</ele>
        <time>2022-05-20 20:58:17</time>
      </trkpt>
      <trkpt lat="41.40556" lon="1.37163">
        <ele>426.6</ele>
        <time>2022-05-20 20:58:18</time>
      </trkpt>
      <trkpt lat="41.40559" lon="1.37167">
        <ele>426.8</ele>
        <time>2022-05-20 20:58:19</time>
      </trkpt>
      <trkpt lat="41.40561" lon="1.37171">
        <ele>427</ele>
        <time>2022-05-20 20:58:20</time>
      </trkpt>
      <trkpt lat="41.40564" lon="1.37176">
        <ele>427.2</ele>
        <time>2022-05-20 20:58:21</time>
      </trkpt>
      <trkpt lat="41.40566" lon="1.37182">
        <ele>427.4</ele>
        <time>2022-05-20 20:58:22</time>
      </trkpt>
      <trkpt lat="41.40567" lon="1.37187">
        <ele>427.6</ele>
        <time>2022-05-20 20:58:23</time>
      </trkpt>
      <trkpt lat="41.40569" lon="1.37192">
        <ele>427.8</ele>
        <time>2022-05-20 20:58:24</time>
      </trkpt>
      <trkpt lat="41.4057" lon="1.37197">
        <ele>428</ele>
        <time>2022-05-20 20:58:25</time>
      </trkpt>
      <trkpt lat="41.40572" lon="1.37202">
        <ele>428</ele>
        <time>2022-05-20 20:58:26</time>
      </trkpt>
      <trkpt lat="41.40573" lon="1.37207">
        <ele>428.2</ele>
        <time>2022-05-20 20:58:27</time>
      </trkpt>
      <trkpt lat="41.40574" lon="1.37213">
        <ele>428.4</ele>
        <time>2022-05-20 20:58:28</time>
      </trkpt>
      <trkpt lat="41.40575" lon="1.37218">
        <ele>428.6</ele>
        <time>2022-05-20 20:58:29</time>
      </trkpt>
      <trkpt lat="41.40576" lon="1.37223">
        <ele>428.8</ele>
        <time>2022-05-20 20:58:30</time>
      </trkpt>
      <trkpt lat="41.40577" lon="1.37228">
        <ele>428.8</ele>
        <time>2022-05-20 20:58:31</time>
      </trkpt>
      <trkpt lat="41.40578" lon="1.37234">
        <ele>429</ele>
        <time>2022-05-20 20:58:32</time>
      </trkpt>
      <trkpt lat="41.40579" lon="1.3724">
        <ele>429</ele>
        <time>2022-05-20 20:58:33</time>
      </trkpt>
      <trkpt lat="41.4058" lon="1.37246">
        <ele>429.2</ele>
        <time>2022-05-20 20:58:34</time>
      </trkpt>
      <trkpt lat="41.40581" lon="1.37252">
        <ele>429.4</ele>
        <time>2022-05-20 20:58:35</time>
      </trkpt>
      <trkpt lat="41.40582" lon="1.37258">
        <ele>429.4</ele>
        <time>2022-05-20 20:58:36</time>
      </trkpt>
      <trkpt lat="41.40583" lon="1.37264">
        <ele>429.6</ele>
        <time>2022-05-20 20:58:37</time>
      </trkpt>
      <trkpt lat="41.40585" lon="1.3727">
        <ele>429.6</ele>
        <time>2022-05-20 20:58:38</time>
      </trkpt>
      <trkpt lat="41.40586" lon="1.37276">
        <ele>429.8</ele>
        <time>2022-05-20 20:58:39</time>
      </trkpt>
      <trkpt lat="41.40588" lon="1.37282">
        <ele>430</ele>
        <time>2022-05-20 20:58:40</time>
      </trkpt>
      <trkpt lat="41.40589" lon="1.37288">
        <ele>430</ele>
        <time>2022-05-20 20:58:41</time>
      </trkpt>
      <trkpt lat="41.4059" lon="1.37294">
        <ele>430.2</ele>
        <time>2022-05-20 20:58:42</time>
      </trkpt>
      <trkpt lat="41.4059" lon="1.37301">
        <ele>430.2</ele>
        <time>2022-05-20 20:58:43</time>
      </trkpt>
      <trkpt lat="41.4059" lon="1.37307">
        <ele>430.4</ele>
        <time>2022-05-20 20:58:44</time>
      </trkpt>
      <trkpt lat="41.4059" lon="1.37313">
        <ele>430.6</ele>
        <time>2022-05-20 20:58:45</time>
      </trkpt>
      <trkpt lat="41.4059" lon="1.37318">
        <ele>430.6</ele>
        <time>2022-05-20 20:58:46</time>
      </trkpt>
      <trkpt lat="41.40589" lon="1.37324">
        <ele>430.8</ele>
        <time>2022-05-20 20:58:47</time>
      </trkpt>
      <trkpt lat="41.40588" lon="1.37329">
        <ele>431</ele>
        <time>2022-05-20 20:58:48</time>
      </trkpt>
      <trkpt lat="41.40588" lon="1.37335">
        <ele>431</ele>
        <time>2022-05-20 20:58:49</time>
      </trkpt>
      <trkpt lat="41.40587" lon="1.37341">
        <ele>431.2</ele>
        <time>2022-05-20 20:58:50</time>
      </trkpt>
      <trkpt lat="41.40586" lon="1.37347">
        <ele>431.2</ele>
        <time>2022-05-20 20:58:51</time>
      </trkpt>
      <trkpt lat="41.40586" lon="1.37353">
        <ele>431.4</ele>
        <time>2022-05-20 20:58:52</time>
      </trkpt>
      <trkpt lat="41.40585" lon="1.3736">
        <ele>431.4</ele>
        <time>2022-05-20 20:58:53</time>
      </trkpt>
      <trkpt lat="41.40585" lon="1.37368">
        <ele>431.6</ele>
        <time>2022-05-20 20:58:54</time>
      </trkpt>
      <trkpt lat="41.40585" lon="1.37376">
        <ele>431.6</ele>
        <time>2022-05-20 20:58:55</time>
      </trkpt>
      <trkpt lat="41.40585" lon="1.37382">
        <ele>431.8</ele>
        <time>2022-05-20 20:58:56</time>
      </trkpt>
      <trkpt lat="41.40585" lon="1.37389">
        <ele>432</ele>
        <time>2022-05-20 20:58:57</time>
      </trkpt>
      <trkpt lat="41.40586" lon="1.37395">
        <ele>432</ele>
        <time>2022-05-20 20:58:58</time>
      </trkpt>
      <trkpt lat="41.40587" lon="1.374">
        <ele>432.2</ele>
        <time>2022-05-20 20:58:59</time>
      </trkpt>
      <trkpt lat="41.40589" lon="1.37406">
        <ele>432.2</ele>
        <time>2022-05-20 20:59:00</time>
      </trkpt>
      <trkpt lat="41.40592" lon="1.37415">
        <ele>432.4</ele>
        <time>2022-05-20 20:59:01</time>
      </trkpt>
      <trkpt lat="41.40594" lon="1.37424">
        <ele>432.4</ele>
        <time>2022-05-20 20:59:02</time>
      </trkpt>
      <trkpt lat="41.40597" lon="1.37429">
        <ele>432.6</ele>
        <time>2022-05-20 20:59:03</time>
      </trkpt>
      <trkpt lat="41.40598" lon="1.37432">
        <ele>432.6</ele>
        <time>2022-05-20 20:59:04</time>
      </trkpt>
      <trkpt lat="41.40602" lon="1.3744">
        <ele>432.8</ele>
        <time>2022-05-20 20:59:05</time>
      </trkpt>
      <trkpt lat="41.40604" lon="1.37446">
        <ele>433</ele>
        <time>2022-05-20 20:59:06</time>
      </trkpt>
      <trkpt lat="41.40607" lon="1.37454">
        <ele>433.2</ele>
        <time>2022-05-20 20:59:07</time>
      </trkpt>
      <trkpt lat="41.4061" lon="1.37461">
        <ele>433.2</ele>
        <time>2022-05-20 20:59:08</time>
      </trkpt>
      <trkpt lat="41.40612" lon="1.37469">
        <ele>433.4</ele>
        <time>2022-05-20 20:59:09</time>
      </trkpt>
      <trkpt lat="41.40614" lon="1.37476">
        <ele>433.6</ele>
        <time>2022-05-20 20:59:10</time>
      </trkpt>
      <trkpt lat="41.40616" lon="1.37483">
        <ele>433.8</ele>
        <time>2022-05-20 20:59:11</time>
      </trkpt>
      <trkpt lat="41.40619" lon="1.37491">
        <ele>433.8</ele>
        <time>2022-05-20 20:59:12</time>
      </trkpt>
      <trkpt lat="41.40622" lon="1.37498">
        <ele>434</ele>
        <time>2022-05-20 20:59:13</time>
      </trkpt>
      <trkpt lat="41.40625" lon="1.37504">
        <ele>434</ele>
        <time>2022-05-20 20:59:14</time>
      </trkpt>
      <trkpt lat="41.40627" lon="1.3751">
        <ele>434.2</ele>
        <time>2022-05-20 20:59:15</time>
      </trkpt>
      <trkpt lat="41.4063" lon="1.37516">
        <ele>434.4</ele>
        <time>2022-05-20 20:59:16</time>
      </trkpt>
      <trkpt lat="41.40633" lon="1.37522">
        <ele>434.6</ele>
        <time>2022-05-20 20:59:17</time>
      </trkpt>
      <trkpt lat="41.40635" lon="1.37527">
        <ele>434.6</ele>
        <time>2022-05-20 20:59:18</time>
      </trkpt>
      <trkpt lat="41.40638" lon="1.37532">
        <ele>434.8</ele>
        <time>2022-05-20 20:59:19</time>
      </trkpt>
      <trkpt lat="41.4064" lon="1.37538">
        <ele>435</ele>
        <time>2022-05-20 20:59:20</time>
      </trkpt>
      <trkpt lat="41.40643" lon="1.37544">
        <ele>435</ele>
        <time>2022-05-20 20:59:21</time>
      </trkpt>
      <trkpt lat="41.40646" lon="1.37549">
        <ele>435.2</ele>
        <time>2022-05-20 20:59:22</time>
      </trkpt>
      <trkpt lat="41.40649" lon="1.37555">
        <ele>435.2</ele>
        <time>2022-05-20 20:59:23</time>
      </trkpt>
      <trkpt lat="41.40652" lon="1.37561">
        <ele>435.4</ele>
        <time>2022-05-20 20:59:24</time>
      </trkpt>
      <trkpt lat="41.40654" lon="1.37568">
        <ele>435.4</ele>
        <time>2022-05-20 20:59:25</time>
      </trkpt>
      <trkpt lat="41.40657" lon="1.37574">
        <ele>435.6</ele>
        <time>2022-05-20 20:59:26</time>
      </trkpt>
      <trkpt lat="41.4066" lon="1.3758">
        <ele>435.6</ele>
        <time>2022-05-20 20:59:27</time>
      </trkpt>
      <trkpt lat="41.40663" lon="1.37585">
        <ele>435.8</ele>
        <time>2022-05-20 20:59:28</time>
      </trkpt>
      <trkpt lat="41.40665" lon="1.37591">
        <ele>435.8</ele>
        <time>2022-05-20 20:59:29</time>
      </trkpt>
      <trkpt lat="41.40668" lon="1.37597">
        <ele>436</ele>
        <time>2022-05-20 20:59:30</time>
      </trkpt>
      <trkpt lat="41.4067" lon="1.37603">
        <ele>436.2</ele>
        <time>2022-05-20 20:59:31</time>
      </trkpt>
      <trkpt lat="41.40673" lon="1.37609">
        <ele>436.2</ele>
        <time>2022-05-20 20:59:32</time>
      </trkpt>
      <trkpt lat="41.40675" lon="1.37615">
        <ele>436.2</ele>
        <time>2022-05-20 20:59:33</time>
      </trkpt>
      <trkpt lat="41.40677" lon="1.37621">
        <ele>436.4</ele>
        <time>2022-05-20 20:59:34</time>
      </trkpt>
      <trkpt lat="41.4068" lon="1.37628">
        <ele>436.4</ele>
        <time>2022-05-20 20:59:35</time>
      </trkpt>
      <trkpt lat="41.40683" lon="1.37634">
        <ele>436.4</ele>
        <time>2022-05-20 20:59:36</time>
      </trkpt>
      <trkpt lat="41.40686" lon="1.37641">
        <ele>436.4</ele>
        <time>2022-05-20 20:59:37</time>
      </trkpt>
      <trkpt lat="41.40689" lon="1.37648">
        <ele>436.4</ele>
        <time>2022-05-20 20:59:38</time>
      </trkpt>
      <trkpt lat="41.40693" lon="1.37655">
        <ele>436.6</ele>
        <time>2022-05-20 20:59:39</time>
      </trkpt>
      <trkpt lat="41.40696" lon="1.37662">
        <ele>436.6</ele>
        <time>2022-05-20 20:59:40</time>
      </trkpt>
      <trkpt lat="41.40699" lon="1.37668">
        <ele>436.8</ele>
        <time>2022-05-20 20:59:41</time>
      </trkpt>
      <trkpt lat="41.40702" lon="1.37675">
        <ele>436.8</ele>
        <time>2022-05-20 20:59:42</time>
      </trkpt>
      <trkpt lat="41.40705" lon="1.37681">
        <ele>437</ele>
        <time>2022-05-20 20:59:43</time>
      </trkpt>
      <trkpt lat="41.40708" lon="1.37688">
        <ele>437</ele>
        <time>2022-05-20 20:59:44</time>
      </trkpt>
      <trkpt lat="41.4071" lon="1.37694">
        <ele>437.2</ele>
        <time>2022-05-20 20:59:45</time>
      </trkpt>
      <trkpt lat="41.40713" lon="1.37701">
        <ele>437.4</ele>
        <time>2022-05-20 20:59:46</time>
      </trkpt>
      <trkpt lat="41.40716" lon="1.37707">
        <ele>437.8</ele>
        <time>2022-05-20 20:59:47</time>
      </trkpt>
      <trkpt lat="41.40718" lon="1.37713">
        <ele>438</ele>
        <time>2022-05-20 20:59:48</time>
      </trkpt>
      <trkpt lat="41.40721" lon="1.37718">
        <ele>438.4</ele>
        <time>2022-05-20 20:59:49</time>
      </trkpt>
      <trkpt lat="41.40724" lon="1.37723">
        <ele>438.6</ele>
        <time>2022-05-20 20:59:50</time>
      </trkpt>
      <trkpt lat="41.40726" lon="1.37728">
        <ele>439</ele>
        <time>2022-05-20 20:59:51</time>
      </trkpt>
      <trkpt lat="41.4073" lon="1.37732">
        <ele>439.2</ele>
        <time>2022-05-20 20:59:52</time>
      </trkpt>
      <trkpt lat="41.40733" lon="1.37736">
        <ele>439.6</ele>
        <time>2022-05-20 20:59:53</time>
      </trkpt>
      <trkpt lat="41.40737" lon="1.3774">
        <ele>439.8</ele>
        <time>2022-05-20 20:59:54</time>
      </trkpt>
      <trkpt lat="41.40741" lon="1.37743">
        <ele>440.2</ele>
        <time>2022-05-20 20:59:55</time>
      </trkpt>
      <trkpt lat="41.40745" lon="1.37746">
        <ele>440.4</ele>
        <time>2022-05-20 20:59:56</time>
      </trkpt>
      <trkpt lat="41.40749" lon="1.37749">
        <ele>440.6</ele>
        <time>2022-05-20 20:59:57</time>
      </trkpt>
      <trkpt lat="41.40752" lon="1.37751">
        <ele>441</ele>
        <time>2022-05-20 20:59:58</time>
      </trkpt>
      <trkpt lat="41.40757" lon="1.37753">
        <ele>441.2</ele>
        <time>2022-05-20 20:59:59</time>
      </trkpt>
      <trkpt lat="41.40761" lon="1.37755">
        <ele>441.4</ele>
        <time>2022-05-20 21:00:00</time>
      </trkpt>
      <trkpt lat="41.40765" lon="1.37756">
        <ele>441.6</ele>
        <time>2022-05-20 21:00:01</time>
      </trkpt>
      <trkpt lat="41.4077" lon="1.37757">
        <ele>442</ele>
        <time>2022-05-20 21:00:02</time>
      </trkpt>
      <trkpt lat="41.40774" lon="1.37758">
        <ele>442.2</ele>
        <time>2022-05-20 21:00:03</time>
      </trkpt>
      <trkpt lat="41.40778" lon="1.37759">
        <ele>442.4</ele>
        <time>2022-05-20 21:00:04</time>
      </trkpt>
      <trkpt lat="41.40782" lon="1.3776">
        <ele>442.8</ele>
        <time>2022-05-20 21:00:05</time>
      </trkpt>
      <trkpt lat="41.40786" lon="1.37761">
        <ele>443</ele>
        <time>2022-05-20 21:00:06</time>
      </trkpt>
      <trkpt lat="41.40791" lon="1.37763">
        <ele>443.2</ele>
        <time>2022-05-20 21:00:07</time>
      </trkpt>
      <trkpt lat="41.40794" lon="1.37764">
        <ele>443.4</ele>
        <time>2022-05-20 21:00:08</time>
      </trkpt>
      <trkpt lat="41.40798" lon="1.37766">
        <ele>443.8</ele>
        <time>2022-05-20 21:00:09</time>
      </trkpt>
      <trkpt lat="41.40802" lon="1.37768">
        <ele>444</ele>
        <time>2022-05-20 21:00:10</time>
      </trkpt>
      <trkpt lat="41.40806" lon="1.37771">
        <ele>444.2</ele>
        <time>2022-05-20 21:00:11</time>
      </trkpt>
      <trkpt lat="41.4081" lon="1.37773">
        <ele>444.4</ele>
        <time>2022-05-20 21:00:12</time>
      </trkpt>
      <trkpt lat="41.40813" lon="1.37776">
        <ele>444.8</ele>
        <time>2022-05-20 21:00:13</time>
      </trkpt>
      <trkpt lat="41.40817" lon="1.37778">
        <ele>445</ele>
        <time>2022-05-20 21:00:14</time>
      </trkpt>
      <trkpt lat="41.40821" lon="1.3778">
        <ele>445.2</ele>
        <time>2022-05-20 21:00:15</time>
      </trkpt>
      <trkpt lat="41.40825" lon="1.37783">
        <ele>445.4</ele>
        <time>2022-05-20 21:00:16</time>
      </trkpt>
      <trkpt lat="41.40828" lon="1.37786">
        <ele>445.6</ele>
        <time>2022-05-20 21:00:17</time>
      </trkpt>
      <trkpt lat="41.40831" lon="1.37788">
        <ele>445.8</ele>
        <time>2022-05-20 21:00:18</time>
      </trkpt>
      <trkpt lat="41.40835" lon="1.37791">
        <ele>446.2</ele>
        <time>2022-05-20 21:00:19</time>
      </trkpt>
      <trkpt lat="41.40838" lon="1.37794">
        <ele>446.4</ele>
        <time>2022-05-20 21:00:20</time>
      </trkpt>
      <trkpt lat="41.40842" lon="1.37797">
        <ele>446.6</ele>
        <time>2022-05-20 21:00:21</time>
      </trkpt>
      <trkpt lat="41.40845" lon="1.37799">
        <ele>447</ele>
        <time>2022-05-20 21:00:22</time>
      </trkpt>
      <trkpt lat="41.40849" lon="1.37802">
        <ele>447.2</ele>
        <time>2022-05-20 21:00:23</time>
      </trkpt>
      <trkpt lat="41.40853" lon="1.37804">
        <ele>447.4</ele>
        <time>2022-05-20 21:00:24</time>
      </trkpt>
      <trkpt lat="41.40857" lon="1.37807">
        <ele>447.6</ele>
        <time>2022-05-20 21:00:25</time>
      </trkpt>
      <trkpt lat="41.4086" lon="1.37809">
        <ele>448</ele>
        <time>2022-05-20 21:00:26</time>
      </trkpt>
      <trkpt lat="41.40864" lon="1.37812">
        <ele>448.2</ele>
        <time>2022-05-20 21:00:27</time>
      </trkpt>
      <trkpt lat="41.40868" lon="1.37814">
        <ele>448.4</ele>
        <time>2022-05-20 21:00:28</time>
      </trkpt>
      <trkpt lat="41.40871" lon="1.37817">
        <ele>448.6</ele>
        <time>2022-05-20 21:00:29</time>
      </trkpt>
      <trkpt lat="41.40874" lon="1.3782">
        <ele>448.8</ele>
        <time>2022-05-20 21:00:30</time>
      </trkpt>
      <trkpt lat="41.40878" lon="1.37822">
        <ele>449</ele>
        <time>2022-05-20 21:00:31</time>
      </trkpt>
      <trkpt lat="41.40881" lon="1.37825">
        <ele>449.2</ele>
        <time>2022-05-20 21:00:32</time>
      </trkpt>
      <trkpt lat="41.40884" lon="1.37828">
        <ele>449.4</ele>
        <time>2022-05-20 21:00:33</time>
      </trkpt>
      <trkpt lat="41.40886" lon="1.37831">
        <ele>449.8</ele>
        <time>2022-05-20 21:00:34</time>
      </trkpt>
      <trkpt lat="41.40888" lon="1.37834">
        <ele>450</ele>
        <time>2022-05-20 21:00:35</time>
      </trkpt>
      <trkpt lat="41.4089" lon="1.37837">
        <ele>450.2</ele>
        <time>2022-05-20 21:00:36</time>
      </trkpt>
      <trkpt lat="41.40892" lon="1.37841">
        <ele>450.4</ele>
        <time>2022-05-20 21:00:37</time>
      </trkpt>
      <trkpt lat="41.40893" lon="1.37844">
        <ele>450.8</ele>
        <time>2022-05-20 21:00:38</time>
      </trkpt>
      <trkpt lat="41.40894" lon="1.37848">
        <ele>451</ele>
        <time>2022-05-20 21:00:39</time>
      </trkpt>
      <trkpt lat="41.40895" lon="1.37852">
        <ele>451.2</ele>
        <time>2022-05-20 21:00:40</time>
      </trkpt>
      <trkpt lat="41.40895" lon="1.37856">
        <ele>451.4</ele>
        <time>2022-05-20 21:00:41</time>
      </trkpt>
      <trkpt lat="41.40896" lon="1.37859">
        <ele>451.6</ele>
        <time>2022-05-20 21:00:42</time>
      </trkpt>
      <trkpt lat="41.40896" lon="1.37865">
        <ele>451.8</ele>
        <time>2022-05-20 21:00:43</time>
      </trkpt>
      <trkpt lat="41.40897" lon="1.3787">
        <ele>452</ele>
        <time>2022-05-20 21:00:44</time>
      </trkpt>
      <trkpt lat="41.40896" lon="1.37874">
        <ele>452.4</ele>
        <time>2022-05-20 21:00:45</time>
      </trkpt>
      <trkpt lat="41.40895" lon="1.37878">
        <ele>452.6</ele>
        <time>2022-05-20 21:00:46</time>
      </trkpt>
      <trkpt lat="41.40894" lon="1.37882">
        <ele>452.8</ele>
        <time>2022-05-20 21:00:47</time>
      </trkpt>
      <trkpt lat="41.40894" lon="1.37886">
        <ele>453</ele>
        <time>2022-05-20 21:00:48</time>
      </trkpt>
      <trkpt lat="41.40892" lon="1.37889">
        <ele>453.2</ele>
        <time>2022-05-20 21:00:49</time>
      </trkpt>
      <trkpt lat="41.40891" lon="1.37893">
        <ele>453.6</ele>
        <time>2022-05-20 21:00:50</time>
      </trkpt>
      <trkpt lat="41.4089" lon="1.37897">
        <ele>453.8</ele>
        <time>2022-05-20 21:00:51</time>
      </trkpt>
      <trkpt lat="41.40889" lon="1.379">
        <ele>454</ele>
        <time>2022-05-20 21:00:52</time>
      </trkpt>
      <trkpt lat="41.40888" lon="1.37904">
        <ele>454.2</ele>
        <time>2022-05-20 21:00:53</time>
      </trkpt>
      <trkpt lat="41.40887" lon="1.37907">
        <ele>454.4</ele>
        <time>2022-05-20 21:00:54</time>
      </trkpt>
      <trkpt lat="41.40886" lon="1.37911">
        <ele>454.6</ele>
        <time>2022-05-20 21:00:55</time>
      </trkpt>
      <trkpt lat="41.40885" lon="1.37915">
        <ele>454.8</ele>
        <time>2022-05-20 21:00:56</time>
      </trkpt>
      <trkpt lat="41.40884" lon="1.37919">
        <ele>455</ele>
        <time>2022-05-20 21:00:57</time>
      </trkpt>
      <trkpt lat="41.40883" lon="1.37923">
        <ele>455.2</ele>
        <time>2022-05-20 21:00:58</time>
      </trkpt>
      <trkpt lat="41.40882" lon="1.37927">
        <ele>455.4</ele>
        <time>2022-05-20 21:00:59</time>
      </trkpt>
      <trkpt lat="41.40881" lon="1.3793">
        <ele>455.8</ele>
        <time>2022-05-20 21:01:00</time>
      </trkpt>
      <trkpt lat="41.40879" lon="1.37933">
        <ele>456</ele>
        <time>2022-05-20 21:01:01</time>
      </trkpt>
      <trkpt lat="41.40879" lon="1.37936">
        <ele>456.2</ele>
        <time>2022-05-20 21:01:02</time>
      </trkpt>
      <trkpt lat="41.40878" lon="1.37939">
        <ele>456.2</ele>
        <time>2022-05-20 21:01:03</time>
      </trkpt>
      <trkpt lat="41.40876" lon="1.37942">
        <ele>456.4</ele>
        <time>2022-05-20 21:01:04</time>
      </trkpt>
      <trkpt lat="41.40874" lon="1.37945">
        <ele>456.6</ele>
        <time>2022-05-20 21:01:05</time>
      </trkpt>
      <trkpt lat="41.40873" lon="1.37949">
        <ele>456.8</ele>
        <time>2022-05-20 21:01:06</time>
      </trkpt>
      <trkpt lat="41.40871" lon="1.37953">
        <ele>457</ele>
        <time>2022-05-20 21:01:07</time>
      </trkpt>
      <trkpt lat="41.40869" lon="1.37956">
        <ele>457.2</ele>
        <time>2022-05-20 21:01:08</time>
      </trkpt>
      <trkpt lat="41.40868" lon="1.37959">
        <ele>457.2</ele>
        <time>2022-05-20 21:01:09</time>
      </trkpt>
      <trkpt lat="41.40866" lon="1.37962">
        <ele>457.4</ele>
        <time>2022-05-20 21:01:10</time>
      </trkpt>
      <trkpt lat="41.40864" lon="1.37966">
        <ele>457.6</ele>
        <time>2022-05-20 21:01:11</time>
      </trkpt>
      <trkpt lat="41.40862" lon="1.37969">
        <ele>457.8</ele>
        <time>2022-05-20 21:01:12</time>
      </trkpt>
      <trkpt lat="41.40861" lon="1.37973">
        <ele>458</ele>
        <time>2022-05-20 21:01:13</time>
      </trkpt>
      <trkpt lat="41.40859" lon="1.37979">
        <ele>458.2</ele>
        <time>2022-05-20 21:01:14</time>
      </trkpt>
      <trkpt lat="41.40857" lon="1.37983">
        <ele>458.4</ele>
        <time>2022-05-20 21:01:15</time>
      </trkpt>
      <trkpt lat="41.40855" lon="1.37988">
        <ele>458.6</ele>
        <time>2022-05-20 21:01:16</time>
      </trkpt>
      <trkpt lat="41.40854" lon="1.37992">
        <ele>458.6</ele>
        <time>2022-05-20 21:01:17</time>
      </trkpt>
      <trkpt lat="41.40852" lon="1.37997">
        <ele>458.8</ele>
        <time>2022-05-20 21:01:18</time>
      </trkpt>
      <trkpt lat="41.4085" lon="1.38002">
        <ele>459</ele>
        <time>2022-05-20 21:01:19</time>
      </trkpt>
      <trkpt lat="41.40849" lon="1.38008">
        <ele>459.2</ele>
        <time>2022-05-20 21:01:20</time>
      </trkpt>
      <trkpt lat="41.40847" lon="1.38016">
        <ele>459.4</ele>
        <time>2022-05-20 21:01:21</time>
      </trkpt>
      <trkpt lat="41.40845" lon="1.38024">
        <ele>459.6</ele>
        <time>2022-05-20 21:01:22</time>
      </trkpt>
      <trkpt lat="41.40844" lon="1.38032">
        <ele>459.6</ele>
        <time>2022-05-20 21:01:23</time>
      </trkpt>
      <trkpt lat="41.40844" lon="1.38041">
        <ele>459.8</ele>
        <time>2022-05-20 21:01:24</time>
      </trkpt>
      <trkpt lat="41.40844" lon="1.3805">
        <ele>460</ele>
        <time>2022-05-20 21:01:25</time>
      </trkpt>
      <trkpt lat="41.40844" lon="1.3806">
        <ele>460.2</ele>
        <time>2022-05-20 21:01:26</time>
      </trkpt>
      <trkpt lat="41.40845" lon="1.38069">
        <ele>460.4</ele>
        <time>2022-05-20 21:01:27</time>
      </trkpt>
      <trkpt lat="41.40847" lon="1.38077">
        <ele>460.6</ele>
        <time>2022-05-20 21:01:28</time>
      </trkpt>
      <trkpt lat="41.40849" lon="1.38083">
        <ele>460.8</ele>
        <time>2022-05-20 21:01:29</time>
      </trkpt>
      <trkpt lat="41.40851" lon="1.38089">
        <ele>461</ele>
        <time>2022-05-20 21:01:30</time>
      </trkpt>
      <trkpt lat="41.40854" lon="1.38095">
        <ele>461.2</ele>
        <time>2022-05-20 21:01:31</time>
      </trkpt>
      <trkpt lat="41.40855" lon="1.38101">
        <ele>461.4</ele>
        <time>2022-05-20 21:01:32</time>
      </trkpt>
      <trkpt lat="41.40857" lon="1.38106">
        <ele>461.4</ele>
        <time>2022-05-20 21:01:33</time>
      </trkpt>
      <trkpt lat="41.40859" lon="1.38112">
        <ele>461.6</ele>
        <time>2022-05-20 21:01:34</time>
      </trkpt>
      <trkpt lat="41.40861" lon="1.38117">
        <ele>461.8</ele>
        <time>2022-05-20 21:01:35</time>
      </trkpt>
      <trkpt lat="41.40863" lon="1.38122">
        <ele>462</ele>
        <time>2022-05-20 21:01:36</time>
      </trkpt>
      <trkpt lat="41.40865" lon="1.38126">
        <ele>462.2</ele>
        <time>2022-05-20 21:01:37</time>
      </trkpt>
      <trkpt lat="41.40867" lon="1.38131">
        <ele>462.2</ele>
        <time>2022-05-20 21:01:38</time>
      </trkpt>
      <trkpt lat="41.4087" lon="1.38136">
        <ele>462.4</ele>
        <time>2022-05-20 21:01:39</time>
      </trkpt>
      <trkpt lat="41.40872" lon="1.38141">
        <ele>462.6</ele>
        <time>2022-05-20 21:01:40</time>
      </trkpt>
      <trkpt lat="41.40874" lon="1.38146">
        <ele>462.8</ele>
        <time>2022-05-20 21:01:41</time>
      </trkpt>
      <trkpt lat="41.40877" lon="1.38151">
        <ele>463</ele>
        <time>2022-05-20 21:01:42</time>
      </trkpt>
      <trkpt lat="41.4088" lon="1.38156">
        <ele>463</ele>
        <time>2022-05-20 21:01:43</time>
      </trkpt>
      <trkpt lat="41.40882" lon="1.38161">
        <ele>463.2</ele>
        <time>2022-05-20 21:01:44</time>
      </trkpt>
      <trkpt lat="41.40884" lon="1.38165">
        <ele>463.4</ele>
        <time>2022-05-20 21:01:45</time>
      </trkpt>
      <trkpt lat="41.40886" lon="1.38169">
        <ele>463.6</ele>
        <time>2022-05-20 21:01:46</time>
      </trkpt>
      <trkpt lat="41.40889" lon="1.38173">
        <ele>463.8</ele>
        <time>2022-05-20 21:01:47</time>
      </trkpt>
      <trkpt lat="41.40892" lon="1.38177">
        <ele>464</ele>
        <time>2022-05-20 21:01:48</time>
      </trkpt>
      <trkpt lat="41.40895" lon="1.38181">
        <ele>464.2</ele>
        <time>2022-05-20 21:01:49</time>
      </trkpt>
      <trkpt lat="41.40899" lon="1.38184">
        <ele>464.4</ele>
        <time>2022-05-20 21:01:50</time>
      </trkpt>
      <trkpt lat="41.40903" lon="1.38186">
        <ele>464.6</ele>
        <time>2022-05-20 21:01:51</time>
      </trkpt>
      <trkpt lat="41.40907" lon="1.38187">
        <ele>464.8</ele>
        <time>2022-05-20 21:01:52</time>
      </trkpt>
      <trkpt lat="41.40911" lon="1.38188">
        <ele>465</ele>
        <time>2022-05-20 21:01:53</time>
      </trkpt>
      <trkpt lat="41.40916" lon="1.38189">
        <ele>465.2</ele>
        <time>2022-05-20 21:01:54</time>
      </trkpt>
      <trkpt lat="41.4092" lon="1.3819">
        <ele>465.4</ele>
        <time>2022-05-20 21:01:55</time>
      </trkpt>
      <trkpt lat="41.40924" lon="1.38191">
        <ele>465.6</ele>
        <time>2022-05-20 21:01:56</time>
      </trkpt>
      <trkpt lat="41.40929" lon="1.38192">
        <ele>465.8</ele>
        <time>2022-05-20 21:01:57</time>
      </trkpt>
      <trkpt lat="41.40933" lon="1.38193">
        <ele>466</ele>
        <time>2022-05-20 21:01:58</time>
      </trkpt>
      <trkpt lat="41.40938" lon="1.38195">
        <ele>466.2</ele>
        <time>2022-05-20 21:01:59</time>
      </trkpt>
      <trkpt lat="41.40942" lon="1.38196">
        <ele>466.4</ele>
        <time>2022-05-20 21:02:00</time>
      </trkpt>
      <trkpt lat="41.40946" lon="1.38198">
        <ele>466.4</ele>
        <time>2022-05-20 21:02:01</time>
      </trkpt>
      <trkpt lat="41.4095" lon="1.382">
        <ele>466.6</ele>
        <time>2022-05-20 21:02:02</time>
      </trkpt>
      <trkpt lat="41.40953" lon="1.38203">
        <ele>466.8</ele>
        <time>2022-05-20 21:02:03</time>
      </trkpt>
      <trkpt lat="41.40957" lon="1.38206">
        <ele>467</ele>
        <time>2022-05-20 21:02:04</time>
      </trkpt>
      <trkpt lat="41.4096" lon="1.3821">
        <ele>467.2</ele>
        <time>2022-05-20 21:02:05</time>
      </trkpt>
      <trkpt lat="41.40963" lon="1.38213">
        <ele>467.4</ele>
        <time>2022-05-20 21:02:06</time>
      </trkpt>
      <trkpt lat="41.40966" lon="1.38217">
        <ele>467.6</ele>
        <time>2022-05-20 21:02:07</time>
      </trkpt>
      <trkpt lat="41.40969" lon="1.3822">
        <ele>467.8</ele>
        <time>2022-05-20 21:02:08</time>
      </trkpt>
      <trkpt lat="41.40972" lon="1.38224">
        <ele>468</ele>
        <time>2022-05-20 21:02:09</time>
      </trkpt>
      <trkpt lat="41.40975" lon="1.38228">
        <ele>468</ele>
        <time>2022-05-20 21:02:10</time>
      </trkpt>
      <trkpt lat="41.40978" lon="1.38232">
        <ele>468.2</ele>
        <time>2022-05-20 21:02:11</time>
      </trkpt>
      <trkpt lat="41.40981" lon="1.38236">
        <ele>468.4</ele>
        <time>2022-05-20 21:02:12</time>
      </trkpt>
      <trkpt lat="41.40983" lon="1.38239">
        <ele>468.6</ele>
        <time>2022-05-20 21:02:13</time>
      </trkpt>
      <trkpt lat="41.40987" lon="1.38244">
        <ele>468.6</ele>
        <time>2022-05-20 21:02:14</time>
      </trkpt>
      <trkpt lat="41.4099" lon="1.38249">
        <ele>468.8</ele>
        <time>2022-05-20 21:02:15</time>
      </trkpt>
      <trkpt lat="41.40992" lon="1.38254">
        <ele>469</ele>
        <time>2022-05-20 21:02:16</time>
      </trkpt>
      <trkpt lat="41.40995" lon="1.38259">
        <ele>469.2</ele>
        <time>2022-05-20 21:02:17</time>
      </trkpt>
      <trkpt lat="41.40998" lon="1.38264">
        <ele>469.4</ele>
        <time>2022-05-20 21:02:18</time>
      </trkpt>
      <trkpt lat="41.41" lon="1.3827">
        <ele>469.6</ele>
        <time>2022-05-20 21:02:19</time>
      </trkpt>
      <trkpt lat="41.41002" lon="1.38275">
        <ele>469.6</ele>
        <time>2022-05-20 21:02:20</time>
      </trkpt>
      <trkpt lat="41.41004" lon="1.3828">
        <ele>469.8</ele>
        <time>2022-05-20 21:02:21</time>
      </trkpt>
      <trkpt lat="41.41005" lon="1.38285">
        <ele>470</ele>
        <time>2022-05-20 21:02:22</time>
      </trkpt>
      <trkpt lat="41.41005" lon="1.3829">
        <ele>470.2</ele>
        <time>2022-05-20 21:02:23</time>
      </trkpt>
      <trkpt lat="41.41006" lon="1.38295">
        <ele>470.2</ele>
        <time>2022-05-20 21:02:24</time>
      </trkpt>
      <trkpt lat="41.41006" lon="1.383">
        <ele>470.4</ele>
        <time>2022-05-20 21:02:25</time>
      </trkpt>
      <trkpt lat="41.41005" lon="1.38305">
        <ele>470.6</ele>
        <time>2022-05-20 21:02:26</time>
      </trkpt>
      <trkpt lat="41.41005" lon="1.38311">
        <ele>470.8</ele>
        <time>2022-05-20 21:02:27</time>
      </trkpt>
      <trkpt lat="41.41005" lon="1.38316">
        <ele>471</ele>
        <time>2022-05-20 21:02:28</time>
      </trkpt>
      <trkpt lat="41.41005" lon="1.38321">
        <ele>471.2</ele>
        <time>2022-05-20 21:02:29</time>
      </trkpt>
      <trkpt lat="41.41004" lon="1.38326">
        <ele>471.2</ele>
        <time>2022-05-20 21:02:30</time>
      </trkpt>
      <trkpt lat="41.41004" lon="1.38331">
        <ele>471.4</ele>
        <time>2022-05-20 21:02:31</time>
      </trkpt>
      <trkpt lat="41.41004" lon="1.38337">
        <ele>471.6</ele>
        <time>2022-05-20 21:02:32</time>
      </trkpt>
      <trkpt lat="41.41003" lon="1.38343">
        <ele>471.8</ele>
        <time>2022-05-20 21:02:33</time>
      </trkpt>
      <trkpt lat="41.41003" lon="1.38349">
        <ele>471.8</ele>
        <time>2022-05-20 21:02:34</time>
      </trkpt>
      <trkpt lat="41.41002" lon="1.38356">
        <ele>472.2</ele>
        <time>2022-05-20 21:02:35</time>
      </trkpt>
      <trkpt lat="41.41002" lon="1.38362">
        <ele>472.4</ele>
        <time>2022-05-20 21:02:36</time>
      </trkpt>
      <trkpt lat="41.41001" lon="1.38367">
        <ele>472.4</ele>
        <time>2022-05-20 21:02:37</time>
      </trkpt>
      <trkpt lat="41.40999" lon="1.38372">
        <ele>472.6</ele>
        <time>2022-05-20 21:02:38</time>
      </trkpt>
      <trkpt lat="41.40997" lon="1.38378">
        <ele>472.8</ele>
        <time>2022-05-20 21:02:39</time>
      </trkpt>
      <trkpt lat="41.40995" lon="1.38383">
        <ele>473</ele>
        <time>2022-05-20 21:02:40</time>
      </trkpt>
      <trkpt lat="41.40992" lon="1.38388">
        <ele>473.2</ele>
        <time>2022-05-20 21:02:41</time>
      </trkpt>
      <trkpt lat="41.4099" lon="1.38394">
        <ele>473.4</ele>
        <time>2022-05-20 21:02:42</time>
      </trkpt>
      <trkpt lat="41.40987" lon="1.38399">
        <ele>473.4</ele>
        <time>2022-05-20 21:02:43</time>
      </trkpt>
      <trkpt lat="41.40984" lon="1.38405">
        <ele>473.6</ele>
        <time>2022-05-20 21:02:44</time>
      </trkpt>
      <trkpt lat="41.40982" lon="1.38411">
        <ele>473.8</ele>
        <time>2022-05-20 21:02:45</time>
      </trkpt>
      <trkpt lat="41.4098" lon="1.38416">
        <ele>474</ele>
        <time>2022-05-20 21:02:46</time>
      </trkpt>
      <trkpt lat="41.40978" lon="1.3842">
        <ele>474.2</ele>
        <time>2022-05-20 21:02:47</time>
      </trkpt>
      <trkpt lat="41.40976" lon="1.38425">
        <ele>474.2</ele>
        <time>2022-05-20 21:02:48</time>
      </trkpt>
      <trkpt lat="41.40974" lon="1.3843">
        <ele>474.4</ele>
        <time>2022-05-20 21:02:49</time>
      </trkpt>
      <trkpt lat="41.40974" lon="1.38436">
        <ele>474.4</ele>
        <time>2022-05-20 21:02:50</time>
      </trkpt>
      <trkpt lat="41.40974" lon="1.38443">
        <ele>474.6</ele>
        <time>2022-05-20 21:02:51</time>
      </trkpt>
      <trkpt lat="41.40975" lon="1.38449">
        <ele>474.8</ele>
        <time>2022-05-20 21:02:52</time>
      </trkpt>
      <trkpt lat="41.40977" lon="1.38457">
        <ele>474.8</ele>
        <time>2022-05-20 21:02:53</time>
      </trkpt>
      <trkpt lat="41.40979" lon="1.38464">
        <ele>475</ele>
        <time>2022-05-20 21:02:54</time>
      </trkpt>
      <trkpt lat="41.40981" lon="1.38471">
        <ele>475</ele>
        <time>2022-05-20 21:02:55</time>
      </trkpt>
      <trkpt lat="41.40983" lon="1.38478">
        <ele>475</ele>
        <time>2022-05-20 21:02:56</time>
      </trkpt>
      <trkpt lat="41.40985" lon="1.38486">
        <ele>475.2</ele>
        <time>2022-05-20 21:02:57</time>
      </trkpt>
      <trkpt lat="41.40988" lon="1.38494">
        <ele>475.2</ele>
        <time>2022-05-20 21:02:58</time>
      </trkpt>
      <trkpt lat="41.40991" lon="1.38501">
        <ele>475.2</ele>
        <time>2022-05-20 21:02:59</time>
      </trkpt>
      <trkpt lat="41.40993" lon="1.38508">
        <ele>475.2</ele>
        <time>2022-05-20 21:03:00</time>
      </trkpt>
      <trkpt lat="41.40994" lon="1.38515">
        <ele>475.2</ele>
        <time>2022-05-20 21:03:01</time>
      </trkpt>
      <trkpt lat="41.40996" lon="1.38523">
        <ele>475.2</ele>
        <time>2022-05-20 21:03:02</time>
      </trkpt>
      <trkpt lat="41.40997" lon="1.38529">
        <ele>475.4</ele>
        <time>2022-05-20 21:03:03</time>
      </trkpt>
      <trkpt lat="41.40998" lon="1.38536">
        <ele>475.4</ele>
        <time>2022-05-20 21:03:04</time>
      </trkpt>
      <trkpt lat="41.40998" lon="1.38543">
        <ele>475.4</ele>
        <time>2022-05-20 21:03:05</time>
      </trkpt>
      <trkpt lat="41.40998" lon="1.3855">
        <ele>475.6</ele>
        <time>2022-05-20 21:03:06</time>
      </trkpt>
      <trkpt lat="41.40997" lon="1.38558">
        <ele>475.6</ele>
        <time>2022-05-20 21:03:07</time>
      </trkpt>
      <trkpt lat="41.40998" lon="1.38567">
        <ele>475.6</ele>
        <time>2022-05-20 21:03:08</time>
      </trkpt>
      <trkpt lat="41.41" lon="1.38575">
        <ele>475.6</ele>
        <time>2022-05-20 21:03:09</time>
      </trkpt>
      <trkpt lat="41.41003" lon="1.38583">
        <ele>475.8</ele>
        <time>2022-05-20 21:03:10</time>
      </trkpt>
      <trkpt lat="41.41006" lon="1.38589">
        <ele>475.8</ele>
        <time>2022-05-20 21:03:11</time>
      </trkpt>
      <trkpt lat="41.41011" lon="1.38593">
        <ele>475.8</ele>
        <time>2022-05-20 21:03:12</time>
      </trkpt>
      <trkpt lat="41.41017" lon="1.38597">
        <ele>475.8</ele>
        <time>2022-05-20 21:03:13</time>
      </trkpt>
      <trkpt lat="41.41023" lon="1.38599">
        <ele>476</ele>
        <time>2022-05-20 21:03:14</time>
      </trkpt>
      <trkpt lat="41.41028" lon="1.386">
        <ele>476</ele>
        <time>2022-05-20 21:03:15</time>
      </trkpt>
      <trkpt lat="41.41034" lon="1.38601">
        <ele>476.2</ele>
        <time>2022-05-20 21:03:16</time>
      </trkpt>
      <trkpt lat="41.41039" lon="1.38601">
        <ele>476.2</ele>
        <time>2022-05-20 21:03:17</time>
      </trkpt>
      <trkpt lat="41.41043" lon="1.38601">
        <ele>476.4</ele>
        <time>2022-05-20 21:03:18</time>
      </trkpt>
      <trkpt lat="41.41048" lon="1.38602">
        <ele>476.6</ele>
        <time>2022-05-20 21:03:19</time>
      </trkpt>
      <trkpt lat="41.41053" lon="1.38602">
        <ele>476.8</ele>
        <time>2022-05-20 21:03:20</time>
      </trkpt>
      <trkpt lat="41.41058" lon="1.38602">
        <ele>477</ele>
        <time>2022-05-20 21:03:21</time>
      </trkpt>
      <trkpt lat="41.41063" lon="1.38602">
        <ele>477.2</ele>
        <time>2022-05-20 21:03:22</time>
      </trkpt>
      <trkpt lat="41.41067" lon="1.38602">
        <ele>477.4</ele>
        <time>2022-05-20 21:03:23</time>
      </trkpt>
      <trkpt lat="41.41072" lon="1.38602">
        <ele>477.6</ele>
        <time>2022-05-20 21:03:24</time>
      </trkpt>
      <trkpt lat="41.41077" lon="1.38603">
        <ele>477.8</ele>
        <time>2022-05-20 21:03:25</time>
      </trkpt>
      <trkpt lat="41.41082" lon="1.38603">
        <ele>478</ele>
        <time>2022-05-20 21:03:26</time>
      </trkpt>
      <trkpt lat="41.41086" lon="1.38604">
        <ele>478.4</ele>
        <time>2022-05-20 21:03:27</time>
      </trkpt>
      <trkpt lat="41.4109" lon="1.38606">
        <ele>478.6</ele>
        <time>2022-05-20 21:03:28</time>
      </trkpt>
      <trkpt lat="41.41094" lon="1.38608">
        <ele>478.8</ele>
        <time>2022-05-20 21:03:29</time>
      </trkpt>
      <trkpt lat="41.41098" lon="1.3861">
        <ele>479</ele>
        <time>2022-05-20 21:03:30</time>
      </trkpt>
      <trkpt lat="41.41102" lon="1.38613">
        <ele>479.4</ele>
        <time>2022-05-20 21:03:31</time>
      </trkpt>
      <trkpt lat="41.41106" lon="1.38616">
        <ele>479.6</ele>
        <time>2022-05-20 21:03:32</time>
      </trkpt>
      <trkpt lat="41.4111" lon="1.38619">
        <ele>479.8</ele>
        <time>2022-05-20 21:03:33</time>
      </trkpt>
      <trkpt lat="41.41114" lon="1.38623">
        <ele>480</ele>
        <time>2022-05-20 21:03:34</time>
      </trkpt>
      <trkpt lat="41.41118" lon="1.38628">
        <ele>480.2</ele>
        <time>2022-05-20 21:03:35</time>
      </trkpt>
      <trkpt lat="41.41122" lon="1.38632">
        <ele>480.4</ele>
        <time>2022-05-20 21:03:36</time>
      </trkpt>
      <trkpt lat="41.41125" lon="1.38636">
        <ele>480.6</ele>
        <time>2022-05-20 21:03:37</time>
      </trkpt>
      <trkpt lat="41.41129" lon="1.38639">
        <ele>481</ele>
        <time>2022-05-20 21:03:38</time>
      </trkpt>
      <trkpt lat="41.41132" lon="1.38644">
        <ele>481.2</ele>
        <time>2022-05-20 21:03:39</time>
      </trkpt>
      <trkpt lat="41.41136" lon="1.38648">
        <ele>481.4</ele>
        <time>2022-05-20 21:03:40</time>
      </trkpt>
      <trkpt lat="41.41139" lon="1.38652">
        <ele>481.6</ele>
        <time>2022-05-20 21:03:41</time>
      </trkpt>
      <trkpt lat="41.41143" lon="1.38656">
        <ele>481.8</ele>
        <time>2022-05-20 21:03:42</time>
      </trkpt>
      <trkpt lat="41.41146" lon="1.38659">
        <ele>482</ele>
        <time>2022-05-20 21:03:43</time>
      </trkpt>
      <trkpt lat="41.41149" lon="1.38663">
        <ele>482.2</ele>
        <time>2022-05-20 21:03:44</time>
      </trkpt>
      <trkpt lat="41.41152" lon="1.38666">
        <ele>482.4</ele>
        <time>2022-05-20 21:03:45</time>
      </trkpt>
      <trkpt lat="41.41155" lon="1.3867">
        <ele>482.6</ele>
        <time>2022-05-20 21:03:46</time>
      </trkpt>
      <trkpt lat="41.41158" lon="1.38675">
        <ele>482.8</ele>
        <time>2022-05-20 21:03:47</time>
      </trkpt>
      <trkpt lat="41.41161" lon="1.38679">
        <ele>483.2</ele>
        <time>2022-05-20 21:03:48</time>
      </trkpt>
      <trkpt lat="41.41164" lon="1.38684">
        <ele>483.2</ele>
        <time>2022-05-20 21:03:49</time>
      </trkpt>
      <trkpt lat="41.41166" lon="1.38689">
        <ele>483.4</ele>
        <time>2022-05-20 21:03:50</time>
      </trkpt>
      <trkpt lat="41.41169" lon="1.38695">
        <ele>483.6</ele>
        <time>2022-05-20 21:03:51</time>
      </trkpt>
      <trkpt lat="41.41172" lon="1.387">
        <ele>483.8</ele>
        <time>2022-05-20 21:03:52</time>
      </trkpt>
      <trkpt lat="41.41175" lon="1.38706">
        <ele>484</ele>
        <time>2022-05-20 21:03:53</time>
      </trkpt>
      <trkpt lat="41.41179" lon="1.38711">
        <ele>484.2</ele>
        <time>2022-05-20 21:03:54</time>
      </trkpt>
      <trkpt lat="41.41181" lon="1.38717">
        <ele>484.4</ele>
        <time>2022-05-20 21:03:55</time>
      </trkpt>
      <trkpt lat="41.41183" lon="1.38722">
        <ele>484.6</ele>
        <time>2022-05-20 21:03:56</time>
      </trkpt>
      <trkpt lat="41.41186" lon="1.38727">
        <ele>484.8</ele>
        <time>2022-05-20 21:03:57</time>
      </trkpt>
      <trkpt lat="41.41188" lon="1.38732">
        <ele>485</ele>
        <time>2022-05-20 21:03:58</time>
      </trkpt>
      <trkpt lat="41.4119" lon="1.38737">
        <ele>485.2</ele>
        <time>2022-05-20 21:03:59</time>
      </trkpt>
      <trkpt lat="41.41193" lon="1.38742">
        <ele>485.4</ele>
        <time>2022-05-20 21:04:00</time>
      </trkpt>
      <trkpt lat="41.41195" lon="1.38748">
        <ele>485.6</ele>
        <time>2022-05-20 21:04:01</time>
      </trkpt>
      <trkpt lat="41.41197" lon="1.38753">
        <ele>485.8</ele>
        <time>2022-05-20 21:04:02</time>
      </trkpt>
      <trkpt lat="41.41199" lon="1.38757">
        <ele>486</ele>
        <time>2022-05-20 21:04:03</time>
      </trkpt>
      <trkpt lat="41.41201" lon="1.38762">
        <ele>486</ele>
        <time>2022-05-20 21:04:04</time>
      </trkpt>
      <trkpt lat="41.41204" lon="1.38767">
        <ele>486.2</ele>
        <time>2022-05-20 21:04:05</time>
      </trkpt>
      <trkpt lat="41.41206" lon="1.38772">
        <ele>486.4</ele>
        <time>2022-05-20 21:04:06</time>
      </trkpt>
      <trkpt lat="41.41208" lon="1.38777">
        <ele>486.6</ele>
        <time>2022-05-20 21:04:07</time>
      </trkpt>
      <trkpt lat="41.41211" lon="1.38782">
        <ele>486.8</ele>
        <time>2022-05-20 21:04:08</time>
      </trkpt>
      <trkpt lat="41.41213" lon="1.38788">
        <ele>487</ele>
        <time>2022-05-20 21:04:09</time>
      </trkpt>
      <trkpt lat="41.41216" lon="1.38793">
        <ele>487.2</ele>
        <time>2022-05-20 21:04:10</time>
      </trkpt>
      <trkpt lat="41.41218" lon="1.38798">
        <ele>487.2</ele>
        <time>2022-05-20 21:04:11</time>
      </trkpt>
      <trkpt lat="41.4122" lon="1.38805">
        <ele>487.4</ele>
        <time>2022-05-20 21:04:12</time>
      </trkpt>
      <trkpt lat="41.41221" lon="1.38811">
        <ele>487.6</ele>
        <time>2022-05-20 21:04:13</time>
      </trkpt>
      <trkpt lat="41.41222" lon="1.38817">
        <ele>487.8</ele>
        <time>2022-05-20 21:04:14</time>
      </trkpt>
      <trkpt lat="41.41223" lon="1.38823">
        <ele>487.8</ele>
        <time>2022-05-20 21:04:15</time>
      </trkpt>
      <trkpt lat="41.41223" lon="1.38829">
        <ele>488</ele>
        <time>2022-05-20 21:04:16</time>
      </trkpt>
      <trkpt lat="41.41223" lon="1.38836">
        <ele>488.2</ele>
        <time>2022-05-20 21:04:17</time>
      </trkpt>
      <trkpt lat="41.41223" lon="1.38843">
        <ele>488.2</ele>
        <time>2022-05-20 21:04:18</time>
      </trkpt>
      <trkpt lat="41.41222" lon="1.3885">
        <ele>488.4</ele>
        <time>2022-05-20 21:04:19</time>
      </trkpt>
      <trkpt lat="41.41222" lon="1.38857">
        <ele>488.4</ele>
        <time>2022-05-20 21:04:20</time>
      </trkpt>
      <trkpt lat="41.41221" lon="1.38863">
        <ele>488.6</ele>
        <time>2022-05-20 21:04:21</time>
      </trkpt>
      <trkpt lat="41.41221" lon="1.3887">
        <ele>488.6</ele>
        <time>2022-05-20 21:04:22</time>
      </trkpt>
      <trkpt lat="41.4122" lon="1.38877">
        <ele>488.6</ele>
        <time>2022-05-20 21:04:23</time>
      </trkpt>
      <trkpt lat="41.4122" lon="1.38883">
        <ele>488.8</ele>
        <time>2022-05-20 21:04:24</time>
      </trkpt>
      <trkpt lat="41.41221" lon="1.3889">
        <ele>488.8</ele>
        <time>2022-05-20 21:04:25</time>
      </trkpt>
      <trkpt lat="41.4122" lon="1.38896">
        <ele>489</ele>
        <time>2022-05-20 21:04:26</time>
      </trkpt>
      <trkpt lat="41.4122" lon="1.38902">
        <ele>489</ele>
        <time>2022-05-20 21:04:27</time>
      </trkpt>
      <trkpt lat="41.41219" lon="1.38908">
        <ele>489</ele>
        <time>2022-05-20 21:04:28</time>
      </trkpt>
      <trkpt lat="41.41218" lon="1.38914">
        <ele>489.2</ele>
        <time>2022-05-20 21:04:29</time>
      </trkpt>
      <trkpt lat="41.41216" lon="1.3892">
        <ele>489.2</ele>
        <time>2022-05-20 21:04:30</time>
      </trkpt>
      <trkpt lat="41.41215" lon="1.38925">
        <ele>489.4</ele>
        <time>2022-05-20 21:04:31</time>
      </trkpt>
      <trkpt lat="41.41213" lon="1.3893">
        <ele>489.6</ele>
        <time>2022-05-20 21:04:32</time>
      </trkpt>
      <trkpt lat="41.41212" lon="1.38935">
        <ele>489.6</ele>
        <time>2022-05-20 21:04:33</time>
      </trkpt>
      <trkpt lat="41.41211" lon="1.38939">
        <ele>489.6</ele>
        <time>2022-05-20 21:04:34</time>
      </trkpt>
      <trkpt lat="41.41209" lon="1.38942">
        <ele>489.8</ele>
        <time>2022-05-20 21:04:35</time>
      </trkpt>
      <trkpt lat="41.41208" lon="1.38946">
        <ele>489.8</ele>
        <time>2022-05-20 21:04:36</time>
      </trkpt>
      <trkpt lat="41.41206" lon="1.3895">
        <ele>490</ele>
        <time>2022-05-20 21:04:37</time>
      </trkpt>
      <trkpt lat="41.41205" lon="1.38955">
        <ele>490.2</ele>
        <time>2022-05-20 21:04:38</time>
      </trkpt>
      <trkpt lat="41.41204" lon="1.38961">
        <ele>490.2</ele>
        <time>2022-05-20 21:04:39</time>
      </trkpt>
      <trkpt lat="41.41204" lon="1.38967">
        <ele>490.2</ele>
        <time>2022-05-20 21:04:40</time>
      </trkpt>
      <trkpt lat="41.41203" lon="1.38973">
        <ele>490.4</ele>
        <time>2022-05-20 21:04:41</time>
      </trkpt>
      <trkpt lat="41.41203" lon="1.38979">
        <ele>490.4</ele>
        <time>2022-05-20 21:04:42</time>
      </trkpt>
      <trkpt lat="41.41203" lon="1.38984">
        <ele>490.6</ele>
        <time>2022-05-20 21:04:43</time>
      </trkpt>
      <trkpt lat="41.41202" lon="1.3899">
        <ele>490.8</ele>
        <time>2022-05-20 21:04:44</time>
      </trkpt>
      <trkpt lat="41.41201" lon="1.38997">
        <ele>490.8</ele>
        <time>2022-05-20 21:04:45</time>
      </trkpt>
      <trkpt lat="41.41201" lon="1.39005">
        <ele>491</ele>
        <time>2022-05-20 21:04:46</time>
      </trkpt>
      <trkpt lat="41.412" lon="1.39012">
        <ele>491</ele>
        <time>2022-05-20 21:04:47</time>
      </trkpt>
      <trkpt lat="41.412" lon="1.3902">
        <ele>491.2</ele>
        <time>2022-05-20 21:04:48</time>
      </trkpt>
      <trkpt lat="41.41199" lon="1.39028">
        <ele>491.2</ele>
        <time>2022-05-20 21:04:49</time>
      </trkpt>
      <trkpt lat="41.41198" lon="1.39034">
        <ele>491.4</ele>
        <time>2022-05-20 21:04:50</time>
      </trkpt>
      <trkpt lat="41.41197" lon="1.39042">
        <ele>491.6</ele>
        <time>2022-05-20 21:04:51</time>
      </trkpt>
      <trkpt lat="41.41196" lon="1.3905">
        <ele>491.6</ele>
        <time>2022-05-20 21:04:52</time>
      </trkpt>
      <trkpt lat="41.41196" lon="1.39056">
        <ele>491.8</ele>
        <time>2022-05-20 21:04:53</time>
      </trkpt>
      <trkpt lat="41.41194" lon="1.39064">
        <ele>491.8</ele>
        <time>2022-05-20 21:04:54</time>
      </trkpt>
      <trkpt lat="41.41192" lon="1.39072">
        <ele>492</ele>
        <time>2022-05-20 21:04:55</time>
      </trkpt>
      <trkpt lat="41.41191" lon="1.3908">
        <ele>492.2</ele>
        <time>2022-05-20 21:04:56</time>
      </trkpt>
      <trkpt lat="41.4119" lon="1.39087">
        <ele>492.2</ele>
        <time>2022-05-20 21:04:57</time>
      </trkpt>
      <trkpt lat="41.4119" lon="1.39093">
        <ele>492.4</ele>
        <time>2022-05-20 21:04:58</time>
      </trkpt>
      <trkpt lat="41.41189" lon="1.39101">
        <ele>492.4</ele>
        <time>2022-05-20 21:04:59</time>
      </trkpt>
      <trkpt lat="41.41189" lon="1.39109">
        <ele>492.6</ele>
        <time>2022-05-20 21:05:00</time>
      </trkpt>
      <trkpt lat="41.41189" lon="1.39116">
        <ele>492.6</ele>
        <time>2022-05-20 21:05:01</time>
      </trkpt>
      <trkpt lat="41.41189" lon="1.39123">
        <ele>492.8</ele>
        <time>2022-05-20 21:05:02</time>
      </trkpt>
      <trkpt lat="41.41189" lon="1.39129">
        <ele>493</ele>
        <time>2022-05-20 21:05:03</time>
      </trkpt>
      <trkpt lat="41.4119" lon="1.39136">
        <ele>493.2</ele>
        <time>2022-05-20 21:05:04</time>
      </trkpt>
      <trkpt lat="41.4119" lon="1.39142">
        <ele>493.4</ele>
        <time>2022-05-20 21:05:05</time>
      </trkpt>
      <trkpt lat="41.41191" lon="1.39147">
        <ele>493.6</ele>
        <time>2022-05-20 21:05:06</time>
      </trkpt>
      <trkpt lat="41.41191" lon="1.39152">
        <ele>493.8</ele>
        <time>2022-05-20 21:05:07</time>
      </trkpt>
      <trkpt lat="41.41191" lon="1.39159">
        <ele>493.8</ele>
        <time>2022-05-20 21:05:08</time>
      </trkpt>
      <trkpt lat="41.41191" lon="1.39163">
        <ele>494</ele>
        <time>2022-05-20 21:05:09</time>
      </trkpt>
      <trkpt lat="41.41192" lon="1.39167">
        <ele>494.4</ele>
        <time>2022-05-20 21:05:10</time>
      </trkpt>
      <trkpt lat="41.41192" lon="1.39172">
        <ele>494.4</ele>
        <time>2022-05-20 21:05:11</time>
      </trkpt>
      <trkpt lat="41.41192" lon="1.39176">
        <ele>494.6</ele>
        <time>2022-05-20 21:05:12</time>
      </trkpt>
      <trkpt lat="41.41192" lon="1.39181">
        <ele>495</ele>
        <time>2022-05-20 21:05:13</time>
      </trkpt>
      <trkpt lat="41.41193" lon="1.39186">
        <ele>495.2</ele>
        <time>2022-05-20 21:05:14</time>
      </trkpt>
      <trkpt lat="41.41192" lon="1.39191">
        <ele>495.4</ele>
        <time>2022-05-20 21:05:15</time>
      </trkpt>
      <trkpt lat="41.41191" lon="1.39196">
        <ele>495.6</ele>
        <time>2022-05-20 21:05:16</time>
      </trkpt>
      <trkpt lat="41.4119" lon="1.39201">
        <ele>495.8</ele>
        <time>2022-05-20 21:05:17</time>
      </trkpt>
      <trkpt lat="41.4119" lon="1.39206">
        <ele>496.2</ele>
        <time>2022-05-20 21:05:18</time>
      </trkpt>
      <trkpt lat="41.41188" lon="1.39212">
        <ele>496.4</ele>
        <time>2022-05-20 21:05:19</time>
      </trkpt>
      <trkpt lat="41.41188" lon="1.39218">
        <ele>496.6</ele>
        <time>2022-05-20 21:05:20</time>
      </trkpt>
      <trkpt lat="41.41188" lon="1.39225">
        <ele>496.8</ele>
        <time>2022-05-20 21:05:21</time>
      </trkpt>
      <trkpt lat="41.41187" lon="1.3923">
        <ele>497</ele>
        <time>2022-05-20 21:05:22</time>
      </trkpt>
      <trkpt lat="41.41187" lon="1.39236">
        <ele>497.2</ele>
        <time>2022-05-20 21:05:23</time>
      </trkpt>
      <trkpt lat="41.41187" lon="1.39242">
        <ele>497.6</ele>
        <time>2022-05-20 21:05:24</time>
      </trkpt>
      <trkpt lat="41.41187" lon="1.39248">
        <ele>497.8</ele>
        <time>2022-05-20 21:05:25</time>
      </trkpt>
      <trkpt lat="41.41187" lon="1.39253">
        <ele>498</ele>
        <time>2022-05-20 21:05:26</time>
      </trkpt>
      <trkpt lat="41.41187" lon="1.39259">
        <ele>498.2</ele>
        <time>2022-05-20 21:05:27</time>
      </trkpt>
      <trkpt lat="41.41188" lon="1.39264">
        <ele>498.4</ele>
        <time>2022-05-20 21:05:28</time>
      </trkpt>
      <trkpt lat="41.41188" lon="1.39269">
        <ele>498.6</ele>
        <time>2022-05-20 21:05:29</time>
      </trkpt>
      <trkpt lat="41.41189" lon="1.39274">
        <ele>498.8</ele>
        <time>2022-05-20 21:05:30</time>
      </trkpt>
      <trkpt lat="41.4119" lon="1.3928">
        <ele>499</ele>
        <time>2022-05-20 21:05:31</time>
      </trkpt>
      <trkpt lat="41.4119" lon="1.39285">
        <ele>499.2</ele>
        <time>2022-05-20 21:05:32</time>
      </trkpt>
      <trkpt lat="41.41191" lon="1.3929">
        <ele>499.2</ele>
        <time>2022-05-20 21:05:33</time>
      </trkpt>
      <trkpt lat="41.41191" lon="1.39296">
        <ele>499.4</ele>
        <time>2022-05-20 21:05:34</time>
      </trkpt>
      <trkpt lat="41.41192" lon="1.39302">
        <ele>499.6</ele>
        <time>2022-05-20 21:05:35</time>
      </trkpt>
      <trkpt lat="41.41193" lon="1.39308">
        <ele>499.8</ele>
        <time>2022-05-20 21:05:36</time>
      </trkpt>
      <trkpt lat="41.41193" lon="1.39312">
        <ele>500</ele>
        <time>2022-05-20 21:05:37</time>
      </trkpt>
      <trkpt lat="41.41194" lon="1.39317">
        <ele>500.2</ele>
        <time>2022-05-20 21:05:38</time>
      </trkpt>
      <trkpt lat="41.41195" lon="1.39323">
        <ele>500.4</ele>
        <time>2022-05-20 21:05:39</time>
      </trkpt>
      <trkpt lat="41.41196" lon="1.39328">
        <ele>500.6</ele>
        <time>2022-05-20 21:05:40</time>
      </trkpt>
      <trkpt lat="41.41197" lon="1.39333">
        <ele>500.8</ele>
        <time>2022-05-20 21:05:41</time>
      </trkpt>
      <trkpt lat="41.41198" lon="1.39339">
        <ele>501</ele>
        <time>2022-05-20 21:05:42</time>
      </trkpt>
      <trkpt lat="41.41199" lon="1.39349">
        <ele>501.2</ele>
        <time>2022-05-20 21:05:43</time>
      </trkpt>
      <trkpt lat="41.41201" lon="1.39358">
        <ele>501.4</ele>
        <time>2022-05-20 21:05:44</time>
      </trkpt>
      <trkpt lat="41.41204" lon="1.39366">
        <ele>501.6</ele>
        <time>2022-05-20 21:05:45</time>
      </trkpt>
      <trkpt lat="41.41206" lon="1.39372">
        <ele>501.8</ele>
        <time>2022-05-20 21:05:46</time>
      </trkpt>
      <trkpt lat="41.4121" lon="1.39377">
        <ele>502</ele>
        <time>2022-05-20 21:05:47</time>
      </trkpt>
      <trkpt lat="41.41214" lon="1.3938">
        <ele>502</ele>
        <time>2022-05-20 21:05:48</time>
      </trkpt>
      <trkpt lat="41.41219" lon="1.39383">
        <ele>502.2</ele>
        <time>2022-05-20 21:05:49</time>
      </trkpt>
      <trkpt lat="41.41224" lon="1.39384">
        <ele>502.2</ele>
        <time>2022-05-20 21:05:50</time>
      </trkpt>
      <trkpt lat="41.4123" lon="1.39384">
        <ele>502.2</ele>
        <time>2022-05-20 21:05:51</time>
      </trkpt>
      <trkpt lat="41.41235" lon="1.39382">
        <ele>502.2</ele>
        <time>2022-05-20 21:05:52</time>
      </trkpt>
      <trkpt lat="41.41239" lon="1.39378">
        <ele>502.2</ele>
        <time>2022-05-20 21:05:53</time>
      </trkpt>
      <trkpt lat="41.41242" lon="1.39373">
        <ele>502.2</ele>
        <time>2022-05-20 21:05:54</time>
      </trkpt>
      <trkpt lat="41.41245" lon="1.39367">
        <ele>502.2</ele>
        <time>2022-05-20 21:05:55</time>
      </trkpt>
      <trkpt lat="41.41248" lon="1.39361">
        <ele>502.4</ele>
        <time>2022-05-20 21:05:56</time>
      </trkpt>
      <trkpt lat="41.41251" lon="1.39355">
        <ele>502.4</ele>
        <time>2022-05-20 21:05:57</time>
      </trkpt>
      <trkpt lat="41.41253" lon="1.39349">
        <ele>502.4</ele>
        <time>2022-05-20 21:05:58</time>
      </trkpt>
      <trkpt lat="41.41256" lon="1.39344">
        <ele>502.6</ele>
        <time>2022-05-20 21:05:59</time>
      </trkpt>
      <trkpt lat="41.41259" lon="1.39339">
        <ele>502.6</ele>
        <time>2022-05-20 21:06:00</time>
      </trkpt>
      <trkpt lat="41.41264" lon="1.39335">
        <ele>502.8</ele>
        <time>2022-05-20 21:06:01</time>
      </trkpt>
      <trkpt lat="41.41267" lon="1.39331">
        <ele>502.8</ele>
        <time>2022-05-20 21:06:02</time>
      </trkpt>
      <trkpt lat="41.41272" lon="1.39327">
        <ele>503</ele>
        <time>2022-05-20 21:06:03</time>
      </trkpt>
      <trkpt lat="41.41275" lon="1.39323">
        <ele>503.2</ele>
        <time>2022-05-20 21:06:04</time>
      </trkpt>
      <trkpt lat="41.41279" lon="1.3932">
        <ele>503.2</ele>
        <time>2022-05-20 21:06:05</time>
      </trkpt>
      <trkpt lat="41.41283" lon="1.39316">
        <ele>503.4</ele>
        <time>2022-05-20 21:06:06</time>
      </trkpt>
      <trkpt lat="41.41288" lon="1.39311">
        <ele>503.6</ele>
        <time>2022-05-20 21:06:07</time>
      </trkpt>
      <trkpt lat="41.41291" lon="1.39307">
        <ele>503.6</ele>
        <time>2022-05-20 21:06:08</time>
      </trkpt>
      <trkpt lat="41.41294" lon="1.39303">
        <ele>503.8</ele>
        <time>2022-05-20 21:06:09</time>
      </trkpt>
      <trkpt lat="41.41297" lon="1.39299">
        <ele>504</ele>
        <time>2022-05-20 21:06:10</time>
      </trkpt>
      <trkpt lat="41.413" lon="1.39296">
        <ele>504</ele>
        <time>2022-05-20 21:06:11</time>
      </trkpt>
      <trkpt lat="41.41304" lon="1.39292">
        <ele>504.2</ele>
        <time>2022-05-20 21:06:12</time>
      </trkpt>
      <trkpt lat="41.41307" lon="1.39289">
        <ele>504.4</ele>
        <time>2022-05-20 21:06:13</time>
      </trkpt>
      <trkpt lat="41.41311" lon="1.39285">
        <ele>504.4</ele>
        <time>2022-05-20 21:06:14</time>
      </trkpt>
      <trkpt lat="41.41314" lon="1.39281">
        <ele>504.6</ele>
        <time>2022-05-20 21:06:15</time>
      </trkpt>
      <trkpt lat="41.41317" lon="1.39278">
        <ele>504.8</ele>
        <time>2022-05-20 21:06:16</time>
      </trkpt>
      <trkpt lat="41.41321" lon="1.39274">
        <ele>504.8</ele>
        <time>2022-05-20 21:06:17</time>
      </trkpt>
      <trkpt lat="41.41325" lon="1.3927">
        <ele>505</ele>
        <time>2022-05-20 21:06:18</time>
      </trkpt>
      <trkpt lat="41.4133" lon="1.39266">
        <ele>505.2</ele>
        <time>2022-05-20 21:06:19</time>
      </trkpt>
      <trkpt lat="41.41334" lon="1.39262">
        <ele>505.2</ele>
        <time>2022-05-20 21:06:20</time>
      </trkpt>
      <trkpt lat="41.41339" lon="1.39258">
        <ele>505.4</ele>
        <time>2022-05-20 21:06:21</time>
      </trkpt>
      <trkpt lat="41.41343" lon="1.39253">
        <ele>505.4</ele>
        <time>2022-05-20 21:06:22</time>
      </trkpt>
      <trkpt lat="41.41347" lon="1.39247">
        <ele>505.6</ele>
        <time>2022-05-20 21:06:23</time>
      </trkpt>
      <trkpt lat="41.41351" lon="1.39241">
        <ele>505.6</ele>
        <time>2022-05-20 21:06:24</time>
      </trkpt>
      <trkpt lat="41.41354" lon="1.39234">
        <ele>505.8</ele>
        <time>2022-05-20 21:06:25</time>
      </trkpt>
      <trkpt lat="41.41356" lon="1.39227">
        <ele>506</ele>
        <time>2022-05-20 21:06:26</time>
      </trkpt>
      <trkpt lat="41.41359" lon="1.3922">
        <ele>506.2</ele>
        <time>2022-05-20 21:06:27</time>
      </trkpt>
      <trkpt lat="41.41361" lon="1.39214">
        <ele>506.4</ele>
        <time>2022-05-20 21:06:28</time>
      </trkpt>
      <trkpt lat="41.41363" lon="1.39207">
        <ele>506.6</ele>
        <time>2022-05-20 21:06:29</time>
      </trkpt>
      <trkpt lat="41.41367" lon="1.39201">
        <ele>506.8</ele>
        <time>2022-05-20 21:06:30</time>
      </trkpt>
      <trkpt lat="41.41371" lon="1.39196">
        <ele>507</ele>
        <time>2022-05-20 21:06:31</time>
      </trkpt>
      <trkpt lat="41.41376" lon="1.39192">
        <ele>507.2</ele>
        <time>2022-05-20 21:06:32</time>
      </trkpt>
      <trkpt lat="41.41382" lon="1.3919">
        <ele>507.4</ele>
        <time>2022-05-20 21:06:33</time>
      </trkpt>
      <trkpt lat="41.41388" lon="1.3919">
        <ele>507.6</ele>
        <time>2022-05-20 21:06:34</time>
      </trkpt>
      <trkpt lat="41.41394" lon="1.39192">
        <ele>507.8</ele>
        <time>2022-05-20 21:06:35</time>
      </trkpt>
      <trkpt lat="41.414" lon="1.39195">
        <ele>508</ele>
        <time>2022-05-20 21:06:36</time>
      </trkpt>
      <trkpt lat="41.41405" lon="1.39198">
        <ele>508.2</ele>
        <time>2022-05-20 21:06:37</time>
      </trkpt>
      <trkpt lat="41.4141" lon="1.39202">
        <ele>508.2</ele>
        <time>2022-05-20 21:06:38</time>
      </trkpt>
      <trkpt lat="41.41415" lon="1.39206">
        <ele>508.4</ele>
        <time>2022-05-20 21:06:39</time>
      </trkpt>
      <trkpt lat="41.4142" lon="1.3921">
        <ele>508.4</ele>
        <time>2022-05-20 21:06:40</time>
      </trkpt>
      <trkpt lat="41.41425" lon="1.39214">
        <ele>508.6</ele>
        <time>2022-05-20 21:06:41</time>
      </trkpt>
      <trkpt lat="41.4143" lon="1.39218">
        <ele>508.8</ele>
        <time>2022-05-20 21:06:42</time>
      </trkpt>
      <trkpt lat="41.41434" lon="1.39221">
        <ele>508.8</ele>
        <time>2022-05-20 21:06:43</time>
      </trkpt>
      <trkpt lat="41.41439" lon="1.39225">
        <ele>509</ele>
        <time>2022-05-20 21:06:44</time>
      </trkpt>
      <trkpt lat="41.41444" lon="1.39229">
        <ele>509.2</ele>
        <time>2022-05-20 21:06:45</time>
      </trkpt>
      <trkpt lat="41.41449" lon="1.39233">
        <ele>509.2</ele>
        <time>2022-05-20 21:06:46</time>
      </trkpt>
      <trkpt lat="41.41454" lon="1.39236">
        <ele>509.4</ele>
        <time>2022-05-20 21:06:47</time>
      </trkpt>
      <trkpt lat="41.41459" lon="1.39238">
        <ele>509.6</ele>
        <time>2022-05-20 21:06:48</time>
      </trkpt>
      <trkpt lat="41.41464" lon="1.3924">
        <ele>509.6</ele>
        <time>2022-05-20 21:06:49</time>
      </trkpt>
      <trkpt lat="41.41469" lon="1.39241">
        <ele>509.8</ele>
        <time>2022-05-20 21:06:50</time>
      </trkpt>
      <trkpt lat="41.41474" lon="1.39242">
        <ele>510</ele>
        <time>2022-05-20 21:06:51</time>
      </trkpt>
      <trkpt lat="41.41479" lon="1.39242">
        <ele>510</ele>
        <time>2022-05-20 21:06:52</time>
      </trkpt>
      <trkpt lat="41.41484" lon="1.39242">
        <ele>510.2</ele>
        <time>2022-05-20 21:06:53</time>
      </trkpt>
      <trkpt lat="41.41489" lon="1.39242">
        <ele>510.4</ele>
        <time>2022-05-20 21:06:54</time>
      </trkpt>
      <trkpt lat="41.41494" lon="1.39241">
        <ele>510.6</ele>
        <time>2022-05-20 21:06:55</time>
      </trkpt>
      <trkpt lat="41.415" lon="1.39239">
        <ele>510.6</ele>
        <time>2022-05-20 21:06:56</time>
      </trkpt>
      <trkpt lat="41.41505" lon="1.39236">
        <ele>510.8</ele>
        <time>2022-05-20 21:06:57</time>
      </trkpt>
      <trkpt lat="41.41509" lon="1.39232">
        <ele>511</ele>
        <time>2022-05-20 21:06:58</time>
      </trkpt>
      <trkpt lat="41.41514" lon="1.39228">
        <ele>511</ele>
        <time>2022-05-20 21:06:59</time>
      </trkpt>
      <trkpt lat="41.41518" lon="1.39223">
        <ele>511.2</ele>
        <time>2022-05-20 21:07:00</time>
      </trkpt>
      <trkpt lat="41.41522" lon="1.39217">
        <ele>511.4</ele>
        <time>2022-05-20 21:07:01</time>
      </trkpt>
      <trkpt lat="41.41526" lon="1.39212">
        <ele>511.6</ele>
        <time>2022-05-20 21:07:02</time>
      </trkpt>
      <trkpt lat="41.4153" lon="1.39206">
        <ele>511.8</ele>
        <time>2022-05-20 21:07:03</time>
      </trkpt>
      <trkpt lat="41.41534" lon="1.392">
        <ele>511.8</ele>
        <time>2022-05-20 21:07:04</time>
      </trkpt>
      <trkpt lat="41.41538" lon="1.39194">
        <ele>512</ele>
        <time>2022-05-20 21:07:05</time>
      </trkpt>
      <trkpt lat="41.41542" lon="1.39188">
        <ele>512</ele>
        <time>2022-05-20 21:07:06</time>
      </trkpt>
      <trkpt lat="41.41546" lon="1.39182">
        <ele>512</ele>
        <time>2022-05-20 21:07:07</time>
      </trkpt>
      <trkpt lat="41.4155" lon="1.39178">
        <ele>512.2</ele>
        <time>2022-05-20 21:07:08</time>
      </trkpt>
      <trkpt lat="41.41556" lon="1.39174">
        <ele>512.2</ele>
        <time>2022-05-20 21:07:09</time>
      </trkpt>
      <trkpt lat="41.41562" lon="1.39172">
        <ele>512.4</ele>
        <time>2022-05-20 21:07:10</time>
      </trkpt>
      <trkpt lat="41.41568" lon="1.39169">
        <ele>512.4</ele>
        <time>2022-05-20 21:07:11</time>
      </trkpt>
      <trkpt lat="41.41575" lon="1.39167">
        <ele>512.4</ele>
        <time>2022-05-20 21:07:12</time>
      </trkpt>
      <trkpt lat="41.41582" lon="1.39166">
        <ele>512.6</ele>
        <time>2022-05-20 21:07:13</time>
      </trkpt>
      <trkpt lat="41.41589" lon="1.39164">
        <ele>512.6</ele>
        <time>2022-05-20 21:07:14</time>
      </trkpt>
      <trkpt lat="41.41595" lon="1.39163">
        <ele>512.6</ele>
        <time>2022-05-20 21:07:15</time>
      </trkpt>
      <trkpt lat="41.41602" lon="1.39162">
        <ele>512.6</ele>
        <time>2022-05-20 21:07:16</time>
      </trkpt>
      <trkpt lat="41.41609" lon="1.39161">
        <ele>512.8</ele>
        <time>2022-05-20 21:07:17</time>
      </trkpt>
      <trkpt lat="41.41616" lon="1.39159">
        <ele>512.8</ele>
        <time>2022-05-20 21:07:18</time>
      </trkpt>
      <trkpt lat="41.41623" lon="1.39159">
        <ele>512.8</ele>
        <time>2022-05-20 21:07:19</time>
      </trkpt>
      <trkpt lat="41.4163" lon="1.3916">
        <ele>512.8</ele>
        <time>2022-05-20 21:07:20</time>
      </trkpt>
      <trkpt lat="41.41637" lon="1.39162">
        <ele>512.8</ele>
        <time>2022-05-20 21:07:21</time>
      </trkpt>
      <trkpt lat="41.41644" lon="1.39166">
        <ele>512.8</ele>
        <time>2022-05-20 21:07:22</time>
      </trkpt>
      <trkpt lat="41.4165" lon="1.3917">
        <ele>513</ele>
        <time>2022-05-20 21:07:23</time>
      </trkpt>
      <trkpt lat="41.41656" lon="1.39174">
        <ele>513</ele>
        <time>2022-05-20 21:07:24</time>
      </trkpt>
      <trkpt lat="41.41663" lon="1.39179">
        <ele>513</ele>
        <time>2022-05-20 21:07:25</time>
      </trkpt>
      <trkpt lat="41.41669" lon="1.39184">
        <ele>513</ele>
        <time>2022-05-20 21:07:26</time>
      </trkpt>
      <trkpt lat="41.41675" lon="1.39188">
        <ele>513</ele>
        <time>2022-05-20 21:07:27</time>
      </trkpt>
      <trkpt lat="41.41681" lon="1.39193">
        <ele>513</ele>
        <time>2022-05-20 21:07:28</time>
      </trkpt>
      <trkpt lat="41.41687" lon="1.39197">
        <ele>513</ele>
        <time>2022-05-20 21:07:29</time>
      </trkpt>
      <trkpt lat="41.41693" lon="1.39201">
        <ele>513</ele>
        <time>2022-05-20 21:07:30</time>
      </trkpt>
      <trkpt lat="41.417" lon="1.39206">
        <ele>513</ele>
        <time>2022-05-20 21:07:31</time>
      </trkpt>
      <trkpt lat="41.41706" lon="1.3921">
        <ele>512.8</ele>
        <time>2022-05-20 21:07:32</time>
      </trkpt>
      <trkpt lat="41.41713" lon="1.39215">
        <ele>512.8</ele>
        <time>2022-05-20 21:07:33</time>
      </trkpt>
      <trkpt lat="41.4172" lon="1.3922">
        <ele>512.8</ele>
        <time>2022-05-20 21:07:34</time>
      </trkpt>
      <trkpt lat="41.41727" lon="1.39225">
        <ele>512.8</ele>
        <time>2022-05-20 21:07:35</time>
      </trkpt>
      <trkpt lat="41.41733" lon="1.3923">
        <ele>512.6</ele>
        <time>2022-05-20 21:07:36</time>
      </trkpt>
      <trkpt lat="41.41739" lon="1.39235">
        <ele>512.6</ele>
        <time>2022-05-20 21:07:37</time>
      </trkpt>
      <trkpt lat="41.41745" lon="1.3924">
        <ele>512.6</ele>
        <time>2022-05-20 21:07:38</time>
      </trkpt>
      <trkpt lat="41.41751" lon="1.39246">
        <ele>512.6</ele>
        <time>2022-05-20 21:07:39</time>
      </trkpt>
      <trkpt lat="41.41757" lon="1.39252">
        <ele>512.8</ele>
        <time>2022-05-20 21:07:40</time>
      </trkpt>
      <trkpt lat="41.41763" lon="1.39259">
        <ele>512.8</ele>
        <time>2022-05-20 21:07:41</time>
      </trkpt>
      <trkpt lat="41.41768" lon="1.39265">
        <ele>512.8</ele>
        <time>2022-05-20 21:07:42</time>
      </trkpt>
      <trkpt lat="41.41773" lon="1.39272">
        <ele>512.8</ele>
        <time>2022-05-20 21:07:43</time>
      </trkpt>
      <trkpt lat="41.41777" lon="1.39279">
        <ele>512.8</ele>
        <time>2022-05-20 21:07:44</time>
      </trkpt>
      <trkpt lat="41.41782" lon="1.39287">
        <ele>512.8</ele>
        <time>2022-05-20 21:07:45</time>
      </trkpt>
      <trkpt lat="41.41788" lon="1.39294">
        <ele>512.8</ele>
        <time>2022-05-20 21:07:46</time>
      </trkpt>
      <trkpt lat="41.41793" lon="1.39299">
        <ele>512.6</ele>
        <time>2022-05-20 21:07:47</time>
      </trkpt>
      <trkpt lat="41.41799" lon="1.39304">
        <ele>512.6</ele>
        <time>2022-05-20 21:07:48</time>
      </trkpt>
      <trkpt lat="41.41805" lon="1.39308">
        <ele>512.6</ele>
        <time>2022-05-20 21:07:49</time>
      </trkpt>
      <trkpt lat="41.4181" lon="1.39312">
        <ele>512.6</ele>
        <time>2022-05-20 21:07:50</time>
      </trkpt>
      <trkpt lat="41.41817" lon="1.39315">
        <ele>512.6</ele>
        <time>2022-05-20 21:07:51</time>
      </trkpt>
      <trkpt lat="41.41824" lon="1.39318">
        <ele>512.6</ele>
        <time>2022-05-20 21:07:52</time>
      </trkpt>
      <trkpt lat="41.41831" lon="1.39321">
        <ele>512.6</ele>
        <time>2022-05-20 21:07:53</time>
      </trkpt>
      <trkpt lat="41.41838" lon="1.39324">
        <ele>512.6</ele>
        <time>2022-05-20 21:07:54</time>
      </trkpt>
      <trkpt lat="41.41846" lon="1.39326">
        <ele>512.6</ele>
        <time>2022-05-20 21:07:55</time>
      </trkpt>
      <trkpt lat="41.41854" lon="1.39329">
        <ele>512.6</ele>
        <time>2022-05-20 21:07:56</time>
      </trkpt>
      <trkpt lat="41.41862" lon="1.39331">
        <ele>512.6</ele>
        <time>2022-05-20 21:07:57</time>
      </trkpt>
      <trkpt lat="41.4187" lon="1.39333">
        <ele>512.8</ele>
        <time>2022-05-20 21:07:58</time>
      </trkpt>
      <trkpt lat="41.41879" lon="1.39335">
        <ele>512.8</ele>
        <time>2022-05-20 21:07:59</time>
      </trkpt>
      <trkpt lat="41.41885" lon="1.39337">
        <ele>512.8</ele>
        <time>2022-05-20 21:08:00</time>
      </trkpt>
      <trkpt lat="41.41892" lon="1.3934">
        <ele>513</ele>
        <time>2022-05-20 21:08:01</time>
      </trkpt>
      <trkpt lat="41.41899" lon="1.39342">
        <ele>513</ele>
        <time>2022-05-20 21:08:02</time>
      </trkpt>
      <trkpt lat="41.41906" lon="1.39345">
        <ele>513</ele>
        <time>2022-05-20 21:08:03</time>
      </trkpt>
      <trkpt lat="41.41912" lon="1.39348">
        <ele>513.2</ele>
        <time>2022-05-20 21:08:04</time>
      </trkpt>
      <trkpt lat="41.41919" lon="1.39353">
        <ele>513.4</ele>
        <time>2022-05-20 21:08:05</time>
      </trkpt>
      <trkpt lat="41.41924" lon="1.39359">
        <ele>513.6</ele>
        <time>2022-05-20 21:08:06</time>
      </trkpt>
      <trkpt lat="41.41929" lon="1.39366">
        <ele>513.6</ele>
        <time>2022-05-20 21:08:07</time>
      </trkpt>
      <trkpt lat="41.41934" lon="1.39373">
        <ele>513.8</ele>
        <time>2022-05-20 21:08:08</time>
      </trkpt>
      <trkpt lat="41.41939" lon="1.39382">
        <ele>514</ele>
        <time>2022-05-20 21:08:09</time>
      </trkpt>
      <trkpt lat="41.41944" lon="1.3939">
        <ele>514</ele>
        <time>2022-05-20 21:08:10</time>
      </trkpt>
      <trkpt lat="41.41948" lon="1.39398">
        <ele>514.2</ele>
        <time>2022-05-20 21:08:11</time>
      </trkpt>
      <trkpt lat="41.41953" lon="1.39405">
        <ele>514.4</ele>
        <time>2022-05-20 21:08:12</time>
      </trkpt>
      <trkpt lat="41.41957" lon="1.39412">
        <ele>514.4</ele>
        <time>2022-05-20 21:08:13</time>
      </trkpt>
      <trkpt lat="41.41962" lon="1.39418">
        <ele>514.4</ele>
        <time>2022-05-20 21:08:14</time>
      </trkpt>
      <trkpt lat="41.41968" lon="1.39424">
        <ele>514.6</ele>
        <time>2022-05-20 21:08:15</time>
      </trkpt>
      <trkpt lat="41.41975" lon="1.39429">
        <ele>514.6</ele>
        <time>2022-05-20 21:08:16</time>
      </trkpt>
      <trkpt lat="41.41983" lon="1.39434">
        <ele>514.4</ele>
        <time>2022-05-20 21:08:17</time>
      </trkpt>
      <trkpt lat="41.41991" lon="1.39439">
        <ele>514.4</ele>
        <time>2022-05-20 21:08:18</time>
      </trkpt>
      <trkpt lat="41.41999" lon="1.39443">
        <ele>514.4</ele>
        <time>2022-05-20 21:08:19</time>
      </trkpt>
      <trkpt lat="41.42007" lon="1.39447">
        <ele>514.2</ele>
        <time>2022-05-20 21:08:20</time>
      </trkpt>
      <trkpt lat="41.42015" lon="1.39452">
        <ele>514.2</ele>
        <time>2022-05-20 21:08:21</time>
      </trkpt>
      <trkpt lat="41.42022" lon="1.39457">
        <ele>514</ele>
        <time>2022-05-20 21:08:22</time>
      </trkpt>
      <trkpt lat="41.4203" lon="1.39462">
        <ele>514</ele>
        <time>2022-05-20 21:08:23</time>
      </trkpt>
      <trkpt lat="41.42037" lon="1.39467">
        <ele>514</ele>
        <time>2022-05-20 21:08:24</time>
      </trkpt>
      <trkpt lat="41.42043" lon="1.39474">
        <ele>514</ele>
        <time>2022-05-20 21:08:25</time>
      </trkpt>
      <trkpt lat="41.42049" lon="1.39482">
        <ele>513.8</ele>
        <time>2022-05-20 21:08:26</time>
      </trkpt>
      <trkpt lat="41.42056" lon="1.3949">
        <ele>513.8</ele>
        <time>2022-05-20 21:08:27</time>
      </trkpt>
      <trkpt lat="41.42062" lon="1.39499">
        <ele>513.6</ele>
        <time>2022-05-20 21:08:28</time>
      </trkpt>
      <trkpt lat="41.42067" lon="1.39506">
        <ele>513.6</ele>
        <time>2022-05-20 21:08:29</time>
      </trkpt>
      <trkpt lat="41.42074" lon="1.39513">
        <ele>513.6</ele>
        <time>2022-05-20 21:08:30</time>
      </trkpt>
      <trkpt lat="41.42081" lon="1.39519">
        <ele>513.6</ele>
        <time>2022-05-20 21:08:31</time>
      </trkpt>
      <trkpt lat="41.42089" lon="1.39524">
        <ele>513.4</ele>
        <time>2022-05-20 21:08:32</time>
      </trkpt>
      <trkpt lat="41.42097" lon="1.39529">
        <ele>513.4</ele>
        <time>2022-05-20 21:08:33</time>
      </trkpt>
      <trkpt lat="41.42104" lon="1.39534">
        <ele>513.4</ele>
        <time>2022-05-20 21:08:34</time>
      </trkpt>
      <trkpt lat="41.42111" lon="1.39541">
        <ele>513.4</ele>
        <time>2022-05-20 21:08:35</time>
      </trkpt>
      <trkpt lat="41.42117" lon="1.39549">
        <ele>513.4</ele>
        <time>2022-05-20 21:08:36</time>
      </trkpt>
      <trkpt lat="41.42122" lon="1.39558">
        <ele>513.2</ele>
        <time>2022-05-20 21:08:37</time>
      </trkpt>
      <trkpt lat="41.42127" lon="1.39566">
        <ele>513.2</ele>
        <time>2022-05-20 21:08:38</time>
      </trkpt>
      <trkpt lat="41.42131" lon="1.39575">
        <ele>513</ele>
        <time>2022-05-20 21:08:39</time>
      </trkpt>
      <trkpt lat="41.42136" lon="1.39584">
        <ele>513</ele>
        <time>2022-05-20 21:08:40</time>
      </trkpt>
      <trkpt lat="41.42141" lon="1.39594">
        <ele>512.8</ele>
        <time>2022-05-20 21:08:41</time>
      </trkpt>
      <trkpt lat="41.42146" lon="1.39603">
        <ele>512.8</ele>
        <time>2022-05-20 21:08:42</time>
      </trkpt>
      <trkpt lat="41.42151" lon="1.39613">
        <ele>512.6</ele>
        <time>2022-05-20 21:08:43</time>
      </trkpt>
      <trkpt lat="41.42156" lon="1.39621">
        <ele>512.6</ele>
        <time>2022-05-20 21:08:44</time>
      </trkpt>
      <trkpt lat="41.42162" lon="1.39629">
        <ele>512.4</ele>
        <time>2022-05-20 21:08:45</time>
      </trkpt>
      <trkpt lat="41.42168" lon="1.39637">
        <ele>512.4</ele>
        <time>2022-05-20 21:08:46</time>
      </trkpt>
      <trkpt lat="41.42175" lon="1.39644">
        <ele>512.4</ele>
        <time>2022-05-20 21:08:47</time>
      </trkpt>
      <trkpt lat="41.42182" lon="1.3965">
        <ele>512.4</ele>
        <time>2022-05-20 21:08:48</time>
      </trkpt>
      <trkpt lat="41.4219" lon="1.39654">
        <ele>512.4</ele>
        <time>2022-05-20 21:08:49</time>
      </trkpt>
      <trkpt lat="41.42198" lon="1.39656">
        <ele>512.4</ele>
        <time>2022-05-20 21:08:50</time>
      </trkpt>
      <trkpt lat="41.42207" lon="1.39657">
        <ele>512.4</ele>
        <time>2022-05-20 21:08:51</time>
      </trkpt>
      <trkpt lat="41.42215" lon="1.39656">
        <ele>512.4</ele>
        <time>2022-05-20 21:08:52</time>
      </trkpt>
      <trkpt lat="41.42224" lon="1.39654">
        <ele>512.6</ele>
        <time>2022-05-20 21:08:53</time>
      </trkpt>
      <trkpt lat="41.42232" lon="1.39653">
        <ele>512.6</ele>
        <time>2022-05-20 21:08:54</time>
      </trkpt>
      <trkpt lat="41.42239" lon="1.39651">
        <ele>512.6</ele>
        <time>2022-05-20 21:08:55</time>
      </trkpt>
      <trkpt lat="41.42247" lon="1.39649">
        <ele>512.8</ele>
        <time>2022-05-20 21:08:56</time>
      </trkpt>
      <trkpt lat="41.42255" lon="1.39647">
        <ele>512.8</ele>
        <time>2022-05-20 21:08:57</time>
      </trkpt>
      <trkpt lat="41.42264" lon="1.39646">
        <ele>512.8</ele>
        <time>2022-05-20 21:08:58</time>
      </trkpt>
      <trkpt lat="41.42272" lon="1.39644">
        <ele>512.8</ele>
        <time>2022-05-20 21:08:59</time>
      </trkpt>
      <trkpt lat="41.42279" lon="1.39643">
        <ele>512.8</ele>
        <time>2022-05-20 21:09:00</time>
      </trkpt>
      <trkpt lat="41.42287" lon="1.39642">
        <ele>512.8</ele>
        <time>2022-05-20 21:09:01</time>
      </trkpt>
      <trkpt lat="41.42295" lon="1.39641">
        <ele>512.8</ele>
        <time>2022-05-20 21:09:02</time>
      </trkpt>
      <trkpt lat="41.42302" lon="1.3964">
        <ele>513</ele>
        <time>2022-05-20 21:09:03</time>
      </trkpt>
      <trkpt lat="41.4231" lon="1.39639">
        <ele>513.2</ele>
        <time>2022-05-20 21:09:04</time>
      </trkpt>
      <trkpt lat="41.42317" lon="1.39639">
        <ele>513.4</ele>
        <time>2022-05-20 21:09:05</time>
      </trkpt>
      <trkpt lat="41.42324" lon="1.39641">
        <ele>513.6</ele>
        <time>2022-05-20 21:09:06</time>
      </trkpt>
      <trkpt lat="41.42332" lon="1.39644">
        <ele>513.8</ele>
        <time>2022-05-20 21:09:07</time>
      </trkpt>
      <trkpt lat="41.42339" lon="1.3965">
        <ele>513.8</ele>
        <time>2022-05-20 21:09:08</time>
      </trkpt>
      <trkpt lat="41.42345" lon="1.39657">
        <ele>514</ele>
        <time>2022-05-20 21:09:09</time>
      </trkpt>
      <trkpt lat="41.42352" lon="1.39664">
        <ele>514</ele>
        <time>2022-05-20 21:09:10</time>
      </trkpt>
      <trkpt lat="41.42358" lon="1.39672">
        <ele>513.6</ele>
        <time>2022-05-20 21:09:11</time>
      </trkpt>
      <trkpt lat="41.42365" lon="1.3968">
        <ele>513.6</ele>
        <time>2022-05-20 21:09:12</time>
      </trkpt>
      <trkpt lat="41.42371" lon="1.39688">
        <ele>513.2</ele>
        <time>2022-05-20 21:09:13</time>
      </trkpt>
      <trkpt lat="41.42377" lon="1.39696">
        <ele>513</ele>
        <time>2022-05-20 21:09:14</time>
      </trkpt>
      <trkpt lat="41.42384" lon="1.39705">
        <ele>512.8</ele>
        <time>2022-05-20 21:09:15</time>
      </trkpt>
      <trkpt lat="41.42391" lon="1.39713">
        <ele>512.6</ele>
        <time>2022-05-20 21:09:16</time>
      </trkpt>
      <trkpt lat="41.42397" lon="1.39722">
        <ele>512.4</ele>
        <time>2022-05-20 21:09:17</time>
      </trkpt>
      <trkpt lat="41.42404" lon="1.39731">
        <ele>512</ele>
        <time>2022-05-20 21:09:18</time>
      </trkpt>
      <trkpt lat="41.42411" lon="1.39739">
        <ele>511.8</ele>
        <time>2022-05-20 21:09:19</time>
      </trkpt>
      <trkpt lat="41.42418" lon="1.39748">
        <ele>511.6</ele>
        <time>2022-05-20 21:09:20</time>
      </trkpt>
      <trkpt lat="41.42424" lon="1.39756">
        <ele>511.4</ele>
        <time>2022-05-20 21:09:21</time>
      </trkpt>
      <trkpt lat="41.42431" lon="1.39764">
        <ele>511.2</ele>
        <time>2022-05-20 21:09:22</time>
      </trkpt>
      <trkpt lat="41.42437" lon="1.39774">
        <ele>511.2</ele>
        <time>2022-05-20 21:09:23</time>
      </trkpt>
      <trkpt lat="41.42444" lon="1.39782">
        <ele>511</ele>
        <time>2022-05-20 21:09:24</time>
      </trkpt>
      <trkpt lat="41.4245" lon="1.39791">
        <ele>510.8</ele>
        <time>2022-05-20 21:09:25</time>
      </trkpt>
      <trkpt lat="41.42455" lon="1.398">
        <ele>510.8</ele>
        <time>2022-05-20 21:09:26</time>
      </trkpt>
      <trkpt lat="41.4246" lon="1.39809">
        <ele>510.6</ele>
        <time>2022-05-20 21:09:27</time>
      </trkpt>
      <trkpt lat="41.42464" lon="1.39819">
        <ele>510.4</ele>
        <time>2022-05-20 21:09:28</time>
      </trkpt>
      <trkpt lat="41.42466" lon="1.3983">
        <ele>510.4</ele>
        <time>2022-05-20 21:09:29</time>
      </trkpt>
      <trkpt lat="41.42468" lon="1.3984">
        <ele>510.2</ele>
        <time>2022-05-20 21:09:30</time>
      </trkpt>
      <trkpt lat="41.4247" lon="1.39851">
        <ele>510.2</ele>
        <time>2022-05-20 21:09:31</time>
      </trkpt>
      <trkpt lat="41.42471" lon="1.39861">
        <ele>510</ele>
        <time>2022-05-20 21:09:32</time>
      </trkpt>
      <trkpt lat="41.42473" lon="1.39872">
        <ele>510</ele>
        <time>2022-05-20 21:09:33</time>
      </trkpt>
      <trkpt lat="41.42474" lon="1.39883">
        <ele>509.8</ele>
        <time>2022-05-20 21:09:34</time>
      </trkpt>
      <trkpt lat="41.42476" lon="1.39894">
        <ele>509.8</ele>
        <time>2022-05-20 21:09:35</time>
      </trkpt>
      <trkpt lat="41.42477" lon="1.39904">
        <ele>509.6</ele>
        <time>2022-05-20 21:09:36</time>
      </trkpt>
      <trkpt lat="41.42479" lon="1.39915">
        <ele>509.6</ele>
        <time>2022-05-20 21:09:37</time>
      </trkpt>
      <trkpt lat="41.4248" lon="1.39926">
        <ele>509.4</ele>
        <time>2022-05-20 21:09:38</time>
      </trkpt>
      <trkpt lat="41.42483" lon="1.39937">
        <ele>509.2</ele>
        <time>2022-05-20 21:09:39</time>
      </trkpt>
      <trkpt lat="41.42485" lon="1.39948">
        <ele>509.2</ele>
        <time>2022-05-20 21:09:40</time>
      </trkpt>
      <trkpt lat="41.42487" lon="1.39959">
        <ele>509</ele>
        <time>2022-05-20 21:09:41</time>
      </trkpt>
      <trkpt lat="41.4249" lon="1.39971">
        <ele>508.8</ele>
        <time>2022-05-20 21:09:42</time>
      </trkpt>
      <trkpt lat="41.42492" lon="1.39982">
        <ele>508.6</ele>
        <time>2022-05-20 21:09:43</time>
      </trkpt>
      <trkpt lat="41.42495" lon="1.39993">
        <ele>508.4</ele>
        <time>2022-05-20 21:09:44</time>
      </trkpt>
      <trkpt lat="41.42498" lon="1.40004">
        <ele>508.2</ele>
        <time>2022-05-20 21:09:45</time>
      </trkpt>
      <trkpt lat="41.42503" lon="1.40013">
        <ele>507.8</ele>
        <time>2022-05-20 21:09:46</time>
      </trkpt>
      <trkpt lat="41.42509" lon="1.40022">
        <ele>507.6</ele>
        <time>2022-05-20 21:09:47</time>
      </trkpt>
      <trkpt lat="41.42516" lon="1.40027">
        <ele>507.2</ele>
        <time>2022-05-20 21:09:48</time>
      </trkpt>
      <trkpt lat="41.42523" lon="1.40027">
        <ele>507</ele>
        <time>2022-05-20 21:09:49</time>
      </trkpt>
      <trkpt lat="41.42533" lon="1.40023">
        <ele>506.6</ele>
        <time>2022-05-20 21:09:50</time>
      </trkpt>
      <trkpt lat="41.42543" lon="1.4002">
        <ele>506.4</ele>
        <time>2022-05-20 21:09:51</time>
      </trkpt>
      <trkpt lat="41.42553" lon="1.40017">
        <ele>506</ele>
        <time>2022-05-20 21:09:52</time>
      </trkpt>
      <trkpt lat="41.42562" lon="1.40015">
        <ele>505.8</ele>
        <time>2022-05-20 21:09:53</time>
      </trkpt>
      <trkpt lat="41.42572" lon="1.40013">
        <ele>505.6</ele>
        <time>2022-05-20 21:09:54</time>
      </trkpt>
      <trkpt lat="41.42582" lon="1.4001">
        <ele>505.4</ele>
        <time>2022-05-20 21:09:55</time>
      </trkpt>
      <trkpt lat="41.42591" lon="1.40008">
        <ele>505.2</ele>
        <time>2022-05-20 21:09:56</time>
      </trkpt>
      <trkpt lat="41.42601" lon="1.40009">
        <ele>505</ele>
        <time>2022-05-20 21:09:57</time>
      </trkpt>
      <trkpt lat="41.42609" lon="1.40013">
        <ele>504.8</ele>
        <time>2022-05-20 21:09:58</time>
      </trkpt>
      <trkpt lat="41.42619" lon="1.40018">
        <ele>504.6</ele>
        <time>2022-05-20 21:09:59</time>
      </trkpt>
      <trkpt lat="41.42628" lon="1.40022">
        <ele>504.2</ele>
        <time>2022-05-20 21:10:00</time>
      </trkpt>
      <trkpt lat="41.42638" lon="1.40027">
        <ele>504</ele>
        <time>2022-05-20 21:10:01</time>
      </trkpt>
      <trkpt lat="41.42647" lon="1.40033">
        <ele>503.8</ele>
        <time>2022-05-20 21:10:02</time>
      </trkpt>
      <trkpt lat="41.42656" lon="1.40038">
        <ele>503.4</ele>
        <time>2022-05-20 21:10:03</time>
      </trkpt>
      <trkpt lat="41.42665" lon="1.40043">
        <ele>503.2</ele>
        <time>2022-05-20 21:10:04</time>
      </trkpt>
      <trkpt lat="41.42675" lon="1.40048">
        <ele>503</ele>
        <time>2022-05-20 21:10:05</time>
      </trkpt>
      <trkpt lat="41.42684" lon="1.40053">
        <ele>502.8</ele>
        <time>2022-05-20 21:10:06</time>
      </trkpt>
      <trkpt lat="41.42693" lon="1.40058">
        <ele>502.6</ele>
        <time>2022-05-20 21:10:07</time>
      </trkpt>
      <trkpt lat="41.42701" lon="1.40065">
        <ele>502.4</ele>
        <time>2022-05-20 21:10:08</time>
      </trkpt>
      <trkpt lat="41.42709" lon="1.40073">
        <ele>502.2</ele>
        <time>2022-05-20 21:10:09</time>
      </trkpt>
      <trkpt lat="41.42714" lon="1.40083">
        <ele>502</ele>
        <time>2022-05-20 21:10:10</time>
      </trkpt>
      <trkpt lat="41.42719" lon="1.40094">
        <ele>501.8</ele>
        <time>2022-05-20 21:10:11</time>
      </trkpt>
      <trkpt lat="41.42723" lon="1.40106">
        <ele>501.6</ele>
        <time>2022-05-20 21:10:12</time>
      </trkpt>
      <trkpt lat="41.42727" lon="1.40117">
        <ele>501.6</ele>
        <time>2022-05-20 21:10:13</time>
      </trkpt>
      <trkpt lat="41.4273" lon="1.40128">
        <ele>501.4</ele>
        <time>2022-05-20 21:10:14</time>
      </trkpt>
      <trkpt lat="41.42734" lon="1.4014">
        <ele>501.2</ele>
        <time>2022-05-20 21:10:15</time>
      </trkpt>
      <trkpt lat="41.42738" lon="1.40151">
        <ele>501.2</ele>
        <time>2022-05-20 21:10:16</time>
      </trkpt>
      <trkpt lat="41.42743" lon="1.40163">
        <ele>501.2</ele>
        <time>2022-05-20 21:10:17</time>
      </trkpt>
      <trkpt lat="41.42747" lon="1.40173">
        <ele>501</ele>
        <time>2022-05-20 21:10:18</time>
      </trkpt>
      <trkpt lat="41.42751" lon="1.40183">
        <ele>501</ele>
        <time>2022-05-20 21:10:19</time>
      </trkpt>
      <trkpt lat="41.42755" lon="1.40194">
        <ele>501</ele>
        <time>2022-05-20 21:10:20</time>
      </trkpt>
      <trkpt lat="41.42759" lon="1.40205">
        <ele>500.8</ele>
        <time>2022-05-20 21:10:21</time>
      </trkpt>
      <trkpt lat="41.42761" lon="1.40215">
        <ele>500.8</ele>
        <time>2022-05-20 21:10:22</time>
      </trkpt>
      <trkpt lat="41.42763" lon="1.40225">
        <ele>500.8</ele>
        <time>2022-05-20 21:10:23</time>
      </trkpt>
      <trkpt lat="41.42765" lon="1.40235">
        <ele>500.8</ele>
        <time>2022-05-20 21:10:24</time>
      </trkpt>
      <trkpt lat="41.42767" lon="1.40245">
        <ele>500.6</ele>
        <time>2022-05-20 21:10:25</time>
      </trkpt>
      <trkpt lat="41.42768" lon="1.40256">
        <ele>500.6</ele>
        <time>2022-05-20 21:10:26</time>
      </trkpt>
      <trkpt lat="41.4277" lon="1.40267">
        <ele>500.6</ele>
        <time>2022-05-20 21:10:27</time>
      </trkpt>
      <trkpt lat="41.42772" lon="1.40278">
        <ele>500.6</ele>
        <time>2022-05-20 21:10:28</time>
      </trkpt>
      <trkpt lat="41.42773" lon="1.40289">
        <ele>500.6</ele>
        <time>2022-05-20 21:10:29</time>
      </trkpt>
      <trkpt lat="41.42775" lon="1.403">
        <ele>500.6</ele>
        <time>2022-05-20 21:10:30</time>
      </trkpt>
      <trkpt lat="41.42776" lon="1.4031">
        <ele>500.6</ele>
        <time>2022-05-20 21:10:31</time>
      </trkpt>
      <trkpt lat="41.42777" lon="1.4032">
        <ele>500.4</ele>
        <time>2022-05-20 21:10:32</time>
      </trkpt>
      <trkpt lat="41.42778" lon="1.40331">
        <ele>500.4</ele>
        <time>2022-05-20 21:10:33</time>
      </trkpt>
      <trkpt lat="41.42777" lon="1.40342">
        <ele>500.2</ele>
        <time>2022-05-20 21:10:34</time>
      </trkpt>
      <trkpt lat="41.42776" lon="1.40352">
        <ele>500</ele>
        <time>2022-05-20 21:10:35</time>
      </trkpt>
      <trkpt lat="41.42774" lon="1.40363">
        <ele>500</ele>
        <time>2022-05-20 21:10:36</time>
      </trkpt>
      <trkpt lat="41.42773" lon="1.40374">
        <ele>499.8</ele>
        <time>2022-05-20 21:10:37</time>
      </trkpt>
      <trkpt lat="41.42771" lon="1.40386">
        <ele>499.6</ele>
        <time>2022-05-20 21:10:38</time>
      </trkpt>
      <trkpt lat="41.42769" lon="1.40397">
        <ele>499.6</ele>
        <time>2022-05-20 21:10:39</time>
      </trkpt>
      <trkpt lat="41.42767" lon="1.4041">
        <ele>499.2</ele>
        <time>2022-05-20 21:10:40</time>
      </trkpt>
      <trkpt lat="41.42765" lon="1.40424">
        <ele>499</ele>
        <time>2022-05-20 21:10:41</time>
      </trkpt>
      <trkpt lat="41.42762" lon="1.40439">
        <ele>498.6</ele>
        <time>2022-05-20 21:10:42</time>
      </trkpt>
      <trkpt lat="41.42761" lon="1.40453">
        <ele>498.2</ele>
        <time>2022-05-20 21:10:43</time>
      </trkpt>
      <trkpt lat="41.4276" lon="1.40469">
        <ele>497.8</ele>
        <time>2022-05-20 21:10:44</time>
      </trkpt>
      <trkpt lat="41.4276" lon="1.40485">
        <ele>497.4</ele>
        <time>2022-05-20 21:10:45</time>
      </trkpt>
      <trkpt lat="41.42761" lon="1.40499">
        <ele>497</ele>
        <time>2022-05-20 21:10:46</time>
      </trkpt>
      <trkpt lat="41.42764" lon="1.40513">
        <ele>496.4</ele>
        <time>2022-05-20 21:10:47</time>
      </trkpt>
      <trkpt lat="41.42766" lon="1.40527">
        <ele>496</ele>
        <time>2022-05-20 21:10:48</time>
      </trkpt>
      <trkpt lat="41.42769" lon="1.40538">
        <ele>495.6</ele>
        <time>2022-05-20 21:10:49</time>
      </trkpt>
      <trkpt lat="41.42775" lon="1.40548">
        <ele>495.2</ele>
        <time>2022-05-20 21:10:50</time>
      </trkpt>
      <trkpt lat="41.42783" lon="1.40557">
        <ele>494.8</ele>
        <time>2022-05-20 21:10:51</time>
      </trkpt>
      <trkpt lat="41.42793" lon="1.40565">
        <ele>494.2</ele>
        <time>2022-05-20 21:10:52</time>
      </trkpt>
      <trkpt lat="41.42804" lon="1.40572">
        <ele>493.8</ele>
        <time>2022-05-20 21:10:53</time>
      </trkpt>
      <trkpt lat="41.42814" lon="1.40578">
        <ele>493.6</ele>
        <time>2022-05-20 21:10:54</time>
      </trkpt>
      <trkpt lat="41.42823" lon="1.40583">
        <ele>493.4</ele>
        <time>2022-05-20 21:10:55</time>
      </trkpt>
      <trkpt lat="41.42832" lon="1.40586">
        <ele>493.4</ele>
        <time>2022-05-20 21:10:56</time>
      </trkpt>
      <trkpt lat="41.4284" lon="1.40585">
        <ele>493.4</ele>
        <time>2022-05-20 21:10:57</time>
      </trkpt>
      <trkpt lat="41.42845" lon="1.4058">
        <ele>493.6</ele>
        <time>2022-05-20 21:10:58</time>
      </trkpt>
      <trkpt lat="41.42848" lon="1.40571">
        <ele>493.8</ele>
        <time>2022-05-20 21:10:59</time>
      </trkpt>
      <trkpt lat="41.4285" lon="1.40561">
        <ele>494</ele>
        <time>2022-05-20 21:11:00</time>
      </trkpt>
      <trkpt lat="41.4285" lon="1.40551">
        <ele>494.4</ele>
        <time>2022-05-20 21:11:01</time>
      </trkpt>
      <trkpt lat="41.42851" lon="1.40542">
        <ele>494.6</ele>
        <time>2022-05-20 21:11:02</time>
      </trkpt>
      <trkpt lat="41.42852" lon="1.40533">
        <ele>495</ele>
        <time>2022-05-20 21:11:03</time>
      </trkpt>
      <trkpt lat="41.42853" lon="1.40525">
        <ele>495.2</ele>
        <time>2022-05-20 21:11:04</time>
      </trkpt>
      <trkpt lat="41.42855" lon="1.40518">
        <ele>495.6</ele>
        <time>2022-05-20 21:11:05</time>
      </trkpt>
      <trkpt lat="41.42857" lon="1.40511">
        <ele>496</ele>
        <time>2022-05-20 21:11:06</time>
      </trkpt>
      <trkpt lat="41.4286" lon="1.40506">
        <ele>496.2</ele>
        <time>2022-05-20 21:11:07</time>
      </trkpt>
      <trkpt lat="41.42865" lon="1.40502">
        <ele>496.6</ele>
        <time>2022-05-20 21:11:08</time>
      </trkpt>
      <trkpt lat="41.42869" lon="1.40497">
        <ele>497</ele>
        <time>2022-05-20 21:11:09</time>
      </trkpt>
      <trkpt lat="41.42874" lon="1.40493">
        <ele>497.2</ele>
        <time>2022-05-20 21:11:10</time>
      </trkpt>
      <trkpt lat="41.42879" lon="1.4049">
        <ele>497.6</ele>
        <time>2022-05-20 21:11:11</time>
      </trkpt>
      <trkpt lat="41.42884" lon="1.40487">
        <ele>497.8</ele>
        <time>2022-05-20 21:11:12</time>
      </trkpt>
      <trkpt lat="41.42888" lon="1.40484">
        <ele>498.2</ele>
        <time>2022-05-20 21:11:13</time>
      </trkpt>
      <trkpt lat="41.42893" lon="1.40481">
        <ele>498.6</ele>
        <time>2022-05-20 21:11:14</time>
      </trkpt>
      <trkpt lat="41.42897" lon="1.40479">
        <ele>499</ele>
        <time>2022-05-20 21:11:15</time>
      </trkpt>
      <trkpt lat="41.42902" lon="1.40478">
        <ele>499.2</ele>
        <time>2022-05-20 21:11:16</time>
      </trkpt>
      <trkpt lat="41.42907" lon="1.40477">
        <ele>499.6</ele>
        <time>2022-05-20 21:11:17</time>
      </trkpt>
      <trkpt lat="41.42911" lon="1.40476">
        <ele>500</ele>
        <time>2022-05-20 21:11:18</time>
      </trkpt>
      <trkpt lat="41.42916" lon="1.40476">
        <ele>500.2</ele>
        <time>2022-05-20 21:11:19</time>
      </trkpt>
      <trkpt lat="41.4292" lon="1.40477">
        <ele>500.6</ele>
        <time>2022-05-20 21:11:20</time>
      </trkpt>
      <trkpt lat="41.42924" lon="1.40477">
        <ele>500.8</ele>
        <time>2022-05-20 21:11:21</time>
      </trkpt>
      <trkpt lat="41.42928" lon="1.40479">
        <ele>501</ele>
        <time>2022-05-20 21:11:22</time>
      </trkpt>
      <trkpt lat="41.42933" lon="1.40481">
        <ele>501.4</ele>
        <time>2022-05-20 21:11:23</time>
      </trkpt>
      <trkpt lat="41.42937" lon="1.40484">
        <ele>501.6</ele>
        <time>2022-05-20 21:11:24</time>
      </trkpt>
      <trkpt lat="41.42941" lon="1.40486">
        <ele>501.8</ele>
        <time>2022-05-20 21:11:25</time>
      </trkpt>
      <trkpt lat="41.42945" lon="1.40488">
        <ele>502.2</ele>
        <time>2022-05-20 21:11:26</time>
      </trkpt>
      <trkpt lat="41.42949" lon="1.40489">
        <ele>502.4</ele>
        <time>2022-05-20 21:11:27</time>
      </trkpt>
      <trkpt lat="41.42952" lon="1.40491">
        <ele>502.6</ele>
        <time>2022-05-20 21:11:28</time>
      </trkpt>
      <trkpt lat="41.42954" lon="1.40492">
        <ele>502.8</ele>
        <time>2022-05-20 21:11:29</time>
      </trkpt>
      <trkpt lat="41.42959" lon="1.40494">
        <ele>503.2</ele>
        <time>2022-05-20 21:11:30</time>
      </trkpt>
      <trkpt lat="41.42963" lon="1.40495">
        <ele>503.4</ele>
        <time>2022-05-20 21:11:31</time>
      </trkpt>
      <trkpt lat="41.42967" lon="1.40496">
        <ele>503.6</ele>
        <time>2022-05-20 21:11:32</time>
      </trkpt>
      <trkpt lat="41.42971" lon="1.40497">
        <ele>503.8</ele>
        <time>2022-05-20 21:11:33</time>
      </trkpt>
      <trkpt lat="41.42976" lon="1.40498">
        <ele>504</ele>
        <time>2022-05-20 21:11:34</time>
      </trkpt>
      <trkpt lat="41.4298" lon="1.40498">
        <ele>504.2</ele>
        <time>2022-05-20 21:11:35</time>
      </trkpt>
      <trkpt lat="41.42984" lon="1.40499">
        <ele>504.4</ele>
        <time>2022-05-20 21:11:36</time>
      </trkpt>
      <trkpt lat="41.42988" lon="1.405">
        <ele>504.6</ele>
        <time>2022-05-20 21:11:37</time>
      </trkpt>
      <trkpt lat="41.42993" lon="1.40501">
        <ele>504.8</ele>
        <time>2022-05-20 21:11:38</time>
      </trkpt>
      <trkpt lat="41.42998" lon="1.40501">
        <ele>505.2</ele>
        <time>2022-05-20 21:11:39</time>
      </trkpt>
      <trkpt lat="41.43002" lon="1.40501">
        <ele>505.4</ele>
        <time>2022-05-20 21:11:40</time>
      </trkpt>
      <trkpt lat="41.43007" lon="1.40501">
        <ele>505.6</ele>
        <time>2022-05-20 21:11:41</time>
      </trkpt>
      <trkpt lat="41.43011" lon="1.40501">
        <ele>505.8</ele>
        <time>2022-05-20 21:11:42</time>
      </trkpt>
      <trkpt lat="41.43016" lon="1.405">
        <ele>506</ele>
        <time>2022-05-20 21:11:43</time>
      </trkpt>
      <trkpt lat="41.4302" lon="1.405">
        <ele>506.2</ele>
        <time>2022-05-20 21:11:44</time>
      </trkpt>
      <trkpt lat="41.43024" lon="1.40499">
        <ele>506.4</ele>
        <time>2022-05-20 21:11:45</time>
      </trkpt>
      <trkpt lat="41.43028" lon="1.40499">
        <ele>506.6</ele>
        <time>2022-05-20 21:11:46</time>
      </trkpt>
      <trkpt lat="41.43032" lon="1.40498">
        <ele>507</ele>
        <time>2022-05-20 21:11:47</time>
      </trkpt>
      <trkpt lat="41.43036" lon="1.40497">
        <ele>507.2</ele>
        <time>2022-05-20 21:11:48</time>
      </trkpt>
      <trkpt lat="41.4304" lon="1.40497">
        <ele>507.4</ele>
        <time>2022-05-20 21:11:49</time>
      </trkpt>
      <trkpt lat="41.43045" lon="1.40497">
        <ele>507.6</ele>
        <time>2022-05-20 21:11:50</time>
      </trkpt>
      <trkpt lat="41.43049" lon="1.40497">
        <ele>507.8</ele>
        <time>2022-05-20 21:11:51</time>
      </trkpt>
      <trkpt lat="41.43053" lon="1.40499">
        <ele>508.2</ele>
        <time>2022-05-20 21:11:52</time>
      </trkpt>
      <trkpt lat="41.43056" lon="1.40501">
        <ele>508.4</ele>
        <time>2022-05-20 21:11:53</time>
      </trkpt>
      <trkpt lat="41.4306" lon="1.40503">
        <ele>508.6</ele>
        <time>2022-05-20 21:11:54</time>
      </trkpt>
      <trkpt lat="41.43063" lon="1.40506">
        <ele>508.8</ele>
        <time>2022-05-20 21:11:55</time>
      </trkpt>
      <trkpt lat="41.43067" lon="1.40508">
        <ele>509.2</ele>
        <time>2022-05-20 21:11:56</time>
      </trkpt>
      <trkpt lat="41.4307" lon="1.40511">
        <ele>509.4</ele>
        <time>2022-05-20 21:11:57</time>
      </trkpt>
      <trkpt lat="41.43074" lon="1.40514">
        <ele>509.6</ele>
        <time>2022-05-20 21:11:58</time>
      </trkpt>
      <trkpt lat="41.43077" lon="1.40517">
        <ele>509.8</ele>
        <time>2022-05-20 21:11:59</time>
      </trkpt>
      <trkpt lat="41.43081" lon="1.4052">
        <ele>510</ele>
        <time>2022-05-20 21:12:00</time>
      </trkpt>
      <trkpt lat="41.43084" lon="1.40523">
        <ele>510.2</ele>
        <time>2022-05-20 21:12:01</time>
      </trkpt>
      <trkpt lat="41.43088" lon="1.40527">
        <ele>510.4</ele>
        <time>2022-05-20 21:12:02</time>
      </trkpt>
      <trkpt lat="41.43092" lon="1.4053">
        <ele>510.4</ele>
        <time>2022-05-20 21:12:03</time>
      </trkpt>
      <trkpt lat="41.43097" lon="1.40534">
        <ele>510.4</ele>
        <time>2022-05-20 21:12:04</time>
      </trkpt>
      <trkpt lat="41.43102" lon="1.40538">
        <ele>510.4</ele>
        <time>2022-05-20 21:12:05</time>
      </trkpt>
      <trkpt lat="41.43106" lon="1.40542">
        <ele>510.4</ele>
        <time>2022-05-20 21:12:06</time>
      </trkpt>
      <trkpt lat="41.43111" lon="1.40547">
        <ele>510.4</ele>
        <time>2022-05-20 21:12:07</time>
      </trkpt>
      <trkpt lat="41.43116" lon="1.40551">
        <ele>510.4</ele>
        <time>2022-05-20 21:12:08</time>
      </trkpt>
      <trkpt lat="41.43121" lon="1.40556">
        <ele>510.2</ele>
        <time>2022-05-20 21:12:09</time>
      </trkpt>
      <trkpt lat="41.43126" lon="1.4056">
        <ele>510.2</ele>
        <time>2022-05-20 21:12:10</time>
      </trkpt>
      <trkpt lat="41.43132" lon="1.40565">
        <ele>510.2</ele>
        <time>2022-05-20 21:12:11</time>
      </trkpt>
      <trkpt lat="41.43137" lon="1.4057">
        <ele>510</ele>
        <time>2022-05-20 21:12:12</time>
      </trkpt>
      <trkpt lat="41.43143" lon="1.40574">
        <ele>510</ele>
        <time>2022-05-20 21:12:13</time>
      </trkpt>
      <trkpt lat="41.43149" lon="1.40578">
        <ele>510</ele>
        <time>2022-05-20 21:12:14</time>
      </trkpt>
      <trkpt lat="41.43155" lon="1.40582">
        <ele>510</ele>
        <time>2022-05-20 21:12:15</time>
      </trkpt>
      <trkpt lat="41.4316" lon="1.40586">
        <ele>509.8</ele>
        <time>2022-05-20 21:12:16</time>
      </trkpt>
      <trkpt lat="41.43167" lon="1.40591">
        <ele>509.8</ele>
        <time>2022-05-20 21:12:17</time>
      </trkpt>
      <trkpt lat="41.43174" lon="1.40595">
        <ele>509.8</ele>
        <time>2022-05-20 21:12:18</time>
      </trkpt>
      <trkpt lat="41.4318" lon="1.406">
        <ele>509.6</ele>
        <time>2022-05-20 21:12:19</time>
      </trkpt>
      <trkpt lat="41.43187" lon="1.40604">
        <ele>509.6</ele>
        <time>2022-05-20 21:12:20</time>
      </trkpt>
      <trkpt lat="41.43193" lon="1.40608">
        <ele>509.6</ele>
        <time>2022-05-20 21:12:21</time>
      </trkpt>
      <trkpt lat="41.432" lon="1.40612">
        <ele>509.6</ele>
        <time>2022-05-20 21:12:22</time>
      </trkpt>
      <trkpt lat="41.43206" lon="1.40616">
        <ele>509.4</ele>
        <time>2022-05-20 21:12:23</time>
      </trkpt>
      <trkpt lat="41.43213" lon="1.40621">
        <ele>509.4</ele>
        <time>2022-05-20 21:12:24</time>
      </trkpt>
      <trkpt lat="41.43218" lon="1.40625">
        <ele>509.4</ele>
        <time>2022-05-20 21:12:25</time>
      </trkpt>
      <trkpt lat="41.43225" lon="1.4063">
        <ele>509.4</ele>
        <time>2022-05-20 21:12:26</time>
      </trkpt>
      <trkpt lat="41.43231" lon="1.40634">
        <ele>509.2</ele>
        <time>2022-05-20 21:12:27</time>
      </trkpt>
      <trkpt lat="41.43237" lon="1.40639">
        <ele>509.2</ele>
        <time>2022-05-20 21:12:28</time>
      </trkpt>
      <trkpt lat="41.43244" lon="1.40643">
        <ele>509.2</ele>
        <time>2022-05-20 21:12:29</time>
      </trkpt>
      <trkpt lat="41.4325" lon="1.40648">
        <ele>509</ele>
        <time>2022-05-20 21:12:30</time>
      </trkpt>
      <trkpt lat="41.43257" lon="1.40652">
        <ele>509</ele>
        <time>2022-05-20 21:12:31</time>
      </trkpt>
      <trkpt lat="41.43264" lon="1.40657">
        <ele>509</ele>
        <time>2022-05-20 21:12:32</time>
      </trkpt>
      <trkpt lat="41.4327" lon="1.40661">
        <ele>508.8</ele>
        <time>2022-05-20 21:12:33</time>
      </trkpt>
      <trkpt lat="41.43277" lon="1.40664">
        <ele>508.8</ele>
        <time>2022-05-20 21:12:34</time>
      </trkpt>
      <trkpt lat="41.43283" lon="1.40667">
        <ele>508.8</ele>
        <time>2022-05-20 21:12:35</time>
      </trkpt>
      <trkpt lat="41.4329" lon="1.4067">
        <ele>508.8</ele>
        <time>2022-05-20 21:12:36</time>
      </trkpt>
      <trkpt lat="41.43297" lon="1.40672">
        <ele>508.6</ele>
        <time>2022-05-20 21:12:37</time>
      </trkpt>
      <trkpt lat="41.43304" lon="1.40673">
        <ele>508.6</ele>
        <time>2022-05-20 21:12:38</time>
      </trkpt>
      <trkpt lat="41.43311" lon="1.40675">
        <ele>508.6</ele>
        <time>2022-05-20 21:12:39</time>
      </trkpt>
      <trkpt lat="41.43317" lon="1.40676">
        <ele>508.6</ele>
        <time>2022-05-20 21:12:40</time>
      </trkpt>
      <trkpt lat="41.43324" lon="1.40677">
        <ele>508.4</ele>
        <time>2022-05-20 21:12:41</time>
      </trkpt>
      <trkpt lat="41.43331" lon="1.40677">
        <ele>508.2</ele>
        <time>2022-05-20 21:12:42</time>
      </trkpt>
      <trkpt lat="41.43338" lon="1.40678">
        <ele>508</ele>
        <time>2022-05-20 21:12:43</time>
      </trkpt>
      <trkpt lat="41.43345" lon="1.40678">
        <ele>507.6</ele>
        <time>2022-05-20 21:12:44</time>
      </trkpt>
      <trkpt lat="41.43353" lon="1.40679">
        <ele>507.2</ele>
        <time>2022-05-20 21:12:45</time>
      </trkpt>
      <trkpt lat="41.43361" lon="1.4068">
        <ele>506.8</ele>
        <time>2022-05-20 21:12:46</time>
      </trkpt>
      <trkpt lat="41.43369" lon="1.40683">
        <ele>506.2</ele>
        <time>2022-05-20 21:12:47</time>
      </trkpt>
      <trkpt lat="41.43377" lon="1.40687">
        <ele>505.6</ele>
        <time>2022-05-20 21:12:48</time>
      </trkpt>
      <trkpt lat="41.43383" lon="1.40692">
        <ele>505</ele>
        <time>2022-05-20 21:12:49</time>
      </trkpt>
      <trkpt lat="41.43388" lon="1.40699">
        <ele>504.4</ele>
        <time>2022-05-20 21:12:50</time>
      </trkpt>
      <trkpt lat="41.43389" lon="1.4071">
        <ele>503.6</ele>
        <time>2022-05-20 21:12:51</time>
      </trkpt>
      <trkpt lat="41.43386" lon="1.40722">
        <ele>503</ele>
        <time>2022-05-20 21:12:52</time>
      </trkpt>
      <trkpt lat="41.43383" lon="1.40735">
        <ele>502.6</ele>
        <time>2022-05-20 21:12:53</time>
      </trkpt>
      <trkpt lat="41.43382" lon="1.40747">
        <ele>502</ele>
        <time>2022-05-20 21:12:54</time>
      </trkpt>
      <trkpt lat="41.4338" lon="1.40756">
        <ele>501.6</ele>
        <time>2022-05-20 21:12:55</time>
      </trkpt>
      <trkpt lat="41.43379" lon="1.40782">
        <ele>501.2</ele>
        <time>2022-05-20 21:12:56</time>
      </trkpt>
      <trkpt lat="41.4338" lon="1.40796">
        <ele>500.8</ele>
        <time>2022-05-20 21:12:57</time>
      </trkpt>
      <trkpt lat="41.4338" lon="1.40815">
        <ele>500.2</ele>
        <time>2022-05-20 21:12:58</time>
      </trkpt>
      <trkpt lat="41.43382" lon="1.40829">
        <ele>499.6</ele>
        <time>2022-05-20 21:12:59</time>
      </trkpt>
      <trkpt lat="41.43385" lon="1.40841">
        <ele>499.2</ele>
        <time>2022-05-20 21:13:00</time>
      </trkpt>
      <trkpt lat="41.4339" lon="1.40849">
        <ele>498.8</ele>
        <time>2022-05-20 21:13:01</time>
      </trkpt>
      <trkpt lat="41.43396" lon="1.40853">
        <ele>498.4</ele>
        <time>2022-05-20 21:13:02</time>
      </trkpt>
      <trkpt lat="41.43404" lon="1.40851">
        <ele>497.8</ele>
        <time>2022-05-20 21:13:03</time>
      </trkpt>
      <trkpt lat="41.43413" lon="1.40845">
        <ele>497.4</ele>
        <time>2022-05-20 21:13:04</time>
      </trkpt>
      <trkpt lat="41.4342" lon="1.40837">
        <ele>497</ele>
        <time>2022-05-20 21:13:05</time>
      </trkpt>
      <trkpt lat="41.43428" lon="1.40828">
        <ele>496.8</ele>
        <time>2022-05-20 21:13:06</time>
      </trkpt>
      <trkpt lat="41.43435" lon="1.40819">
        <ele>496.6</ele>
        <time>2022-05-20 21:13:07</time>
      </trkpt>
      <trkpt lat="41.43444" lon="1.40813">
        <ele>496.6</ele>
        <time>2022-05-20 21:13:08</time>
      </trkpt>
      <trkpt lat="41.43452" lon="1.40809">
        <ele>496.6</ele>
        <time>2022-05-20 21:13:09</time>
      </trkpt>
      <trkpt lat="41.4346" lon="1.40807">
        <ele>496.8</ele>
        <time>2022-05-20 21:13:10</time>
      </trkpt>
      <trkpt lat="41.43468" lon="1.40806">
        <ele>497.2</ele>
        <time>2022-05-20 21:13:11</time>
      </trkpt>
      <trkpt lat="41.43476" lon="1.40806">
        <ele>497.6</ele>
        <time>2022-05-20 21:13:12</time>
      </trkpt>
      <trkpt lat="41.43483" lon="1.40805">
        <ele>498.2</ele>
        <time>2022-05-20 21:13:13</time>
      </trkpt>
      <trkpt lat="41.43488" lon="1.40803">
        <ele>498.6</ele>
        <time>2022-05-20 21:13:14</time>
      </trkpt>
      <trkpt lat="41.43494" lon="1.40801">
        <ele>499.2</ele>
        <time>2022-05-20 21:13:15</time>
      </trkpt>
      <trkpt lat="41.43498" lon="1.40799">
        <ele>499.6</ele>
        <time>2022-05-20 21:13:16</time>
      </trkpt>
      <trkpt lat="41.43502" lon="1.40798">
        <ele>500.2</ele>
        <time>2022-05-20 21:13:17</time>
      </trkpt>
      <trkpt lat="41.43506" lon="1.40797">
        <ele>500.6</ele>
        <time>2022-05-20 21:13:18</time>
      </trkpt>
      <trkpt lat="41.4351" lon="1.40796">
        <ele>501</ele>
        <time>2022-05-20 21:13:19</time>
      </trkpt>
      <trkpt lat="41.43514" lon="1.40795">
        <ele>501.4</ele>
        <time>2022-05-20 21:13:20</time>
      </trkpt>
      <trkpt lat="41.43518" lon="1.40795">
        <ele>501.8</ele>
        <time>2022-05-20 21:13:21</time>
      </trkpt>
      <trkpt lat="41.43522" lon="1.40796">
        <ele>502.2</ele>
        <time>2022-05-20 21:13:22</time>
      </trkpt>
      <trkpt lat="41.43525" lon="1.40797">
        <ele>502.6</ele>
        <time>2022-05-20 21:13:23</time>
      </trkpt>
      <trkpt lat="41.43528" lon="1.40799">
        <ele>503</ele>
        <time>2022-05-20 21:13:24</time>
      </trkpt>
      <trkpt lat="41.43532" lon="1.408">
        <ele>503.4</ele>
        <time>2022-05-20 21:13:25</time>
      </trkpt>
      <trkpt lat="41.43534" lon="1.40802">
        <ele>503.8</ele>
        <time>2022-05-20 21:13:26</time>
      </trkpt>
      <trkpt lat="41.43538" lon="1.40804">
        <ele>504.2</ele>
        <time>2022-05-20 21:13:27</time>
      </trkpt>
      <trkpt lat="41.43541" lon="1.40805">
        <ele>504.6</ele>
        <time>2022-05-20 21:13:28</time>
      </trkpt>
      <trkpt lat="41.43544" lon="1.40807">
        <ele>505</ele>
        <time>2022-05-20 21:13:29</time>
      </trkpt>
      <trkpt lat="41.43547" lon="1.4081">
        <ele>505.2</ele>
        <time>2022-05-20 21:13:30</time>
      </trkpt>
      <trkpt lat="41.4355" lon="1.40812">
        <ele>505.6</ele>
        <time>2022-05-20 21:13:31</time>
      </trkpt>
      <trkpt lat="41.43553" lon="1.40814">
        <ele>505.8</ele>
        <time>2022-05-20 21:13:32</time>
      </trkpt>
      <trkpt lat="41.43556" lon="1.40817">
        <ele>506.2</ele>
        <time>2022-05-20 21:13:33</time>
      </trkpt>
      <trkpt lat="41.4356" lon="1.4082">
        <ele>506.4</ele>
        <time>2022-05-20 21:13:34</time>
      </trkpt>
      <trkpt lat="41.43562" lon="1.40823">
        <ele>506.8</ele>
        <time>2022-05-20 21:13:35</time>
      </trkpt>
      <trkpt lat="41.43565" lon="1.40825">
        <ele>507</ele>
        <time>2022-05-20 21:13:36</time>
      </trkpt>
      <trkpt lat="41.43567" lon="1.40827">
        <ele>507.2</ele>
        <time>2022-05-20 21:13:37</time>
      </trkpt>
      <trkpt lat="41.43569" lon="1.40831">
        <ele>507.6</ele>
        <time>2022-05-20 21:13:38</time>
      </trkpt>
      <trkpt lat="41.43571" lon="1.40834">
        <ele>508</ele>
        <time>2022-05-20 21:13:39</time>
      </trkpt>
      <trkpt lat="41.43574" lon="1.40837">
        <ele>508.2</ele>
        <time>2022-05-20 21:13:40</time>
      </trkpt>
      <trkpt lat="41.43576" lon="1.40841">
        <ele>508.6</ele>
        <time>2022-05-20 21:13:41</time>
      </trkpt>
      <trkpt lat="41.43579" lon="1.40846">
        <ele>508.8</ele>
        <time>2022-05-20 21:13:42</time>
      </trkpt>
      <trkpt lat="41.43581" lon="1.4085">
        <ele>509</ele>
        <time>2022-05-20 21:13:43</time>
      </trkpt>
      <trkpt lat="41.43583" lon="1.40854">
        <ele>509.4</ele>
        <time>2022-05-20 21:13:44</time>
      </trkpt>
      <trkpt lat="41.43586" lon="1.40859">
        <ele>509.6</ele>
        <time>2022-05-20 21:13:45</time>
      </trkpt>
      <trkpt lat="41.43588" lon="1.40864">
        <ele>510</ele>
        <time>2022-05-20 21:13:46</time>
      </trkpt>
      <trkpt lat="41.4359" lon="1.40868">
        <ele>510.2</ele>
        <time>2022-05-20 21:13:47</time>
      </trkpt>
      <trkpt lat="41.43592" lon="1.40872">
        <ele>510.4</ele>
        <time>2022-05-20 21:13:48</time>
      </trkpt>
      <trkpt lat="41.43593" lon="1.40876">
        <ele>510.8</ele>
        <time>2022-05-20 21:13:49</time>
      </trkpt>
      <trkpt lat="41.43595" lon="1.40879">
        <ele>511</ele>
        <time>2022-05-20 21:13:50</time>
      </trkpt>
      <trkpt lat="41.43596" lon="1.40884">
        <ele>511.2</ele>
        <time>2022-05-20 21:13:51</time>
      </trkpt>
      <trkpt lat="41.43598" lon="1.40888">
        <ele>511.4</ele>
        <time>2022-05-20 21:13:52</time>
      </trkpt>
      <trkpt lat="41.43599" lon="1.40893">
        <ele>511.6</ele>
        <time>2022-05-20 21:13:53</time>
      </trkpt>
      <trkpt lat="41.43601" lon="1.40896">
        <ele>512</ele>
        <time>2022-05-20 21:13:54</time>
      </trkpt>
      <trkpt lat="41.43602" lon="1.409">
        <ele>512.2</ele>
        <time>2022-05-20 21:13:55</time>
      </trkpt>
      <trkpt lat="41.43604" lon="1.40904">
        <ele>512.4</ele>
        <time>2022-05-20 21:13:56</time>
      </trkpt>
      <trkpt lat="41.43606" lon="1.40907">
        <ele>512.6</ele>
        <time>2022-05-20 21:13:57</time>
      </trkpt>
      <trkpt lat="41.43608" lon="1.4091">
        <ele>513</ele>
        <time>2022-05-20 21:13:58</time>
      </trkpt>
      <trkpt lat="41.4361" lon="1.40913">
        <ele>513.2</ele>
        <time>2022-05-20 21:13:59</time>
      </trkpt>
      <trkpt lat="41.43613" lon="1.40916">
        <ele>513.4</ele>
        <time>2022-05-20 21:14:00</time>
      </trkpt>
      <trkpt lat="41.43615" lon="1.4092">
        <ele>513.6</ele>
        <time>2022-05-20 21:14:01</time>
      </trkpt>
      <trkpt lat="41.43617" lon="1.40923">
        <ele>513.8</ele>
        <time>2022-05-20 21:14:02</time>
      </trkpt>
      <trkpt lat="41.43619" lon="1.40926">
        <ele>514.2</ele>
        <time>2022-05-20 21:14:03</time>
      </trkpt>
      <trkpt lat="41.43621" lon="1.4093">
        <ele>514.4</ele>
        <time>2022-05-20 21:14:04</time>
      </trkpt>
      <trkpt lat="41.43623" lon="1.40933">
        <ele>514.6</ele>
        <time>2022-05-20 21:14:05</time>
      </trkpt>
      <trkpt lat="41.43625" lon="1.40936">
        <ele>514.8</ele>
        <time>2022-05-20 21:14:06</time>
      </trkpt>
      <trkpt lat="41.43627" lon="1.40939">
        <ele>515</ele>
        <time>2022-05-20 21:14:07</time>
      </trkpt>
      <trkpt lat="41.43629" lon="1.40942">
        <ele>515.4</ele>
        <time>2022-05-20 21:14:08</time>
      </trkpt>
      <trkpt lat="41.43631" lon="1.40944">
        <ele>515.6</ele>
        <time>2022-05-20 21:14:09</time>
      </trkpt>
      <trkpt lat="41.43634" lon="1.40947">
        <ele>515.8</ele>
        <time>2022-05-20 21:14:10</time>
      </trkpt>
      <trkpt lat="41.43637" lon="1.4095">
        <ele>516.2</ele>
        <time>2022-05-20 21:14:11</time>
      </trkpt>
      <trkpt lat="41.43639" lon="1.40953">
        <ele>516.4</ele>
        <time>2022-05-20 21:14:12</time>
      </trkpt>
      <trkpt lat="41.43642" lon="1.40956">
        <ele>516.6</ele>
        <time>2022-05-20 21:14:13</time>
      </trkpt>
      <trkpt lat="41.43644" lon="1.40959">
        <ele>516.8</ele>
        <time>2022-05-20 21:14:14</time>
      </trkpt>
      <trkpt lat="41.43647" lon="1.40962">
        <ele>517.2</ele>
        <time>2022-05-20 21:14:15</time>
      </trkpt>
      <trkpt lat="41.43649" lon="1.40964">
        <ele>517.4</ele>
        <time>2022-05-20 21:14:16</time>
      </trkpt>
      <trkpt lat="41.43652" lon="1.40967">
        <ele>517.6</ele>
        <time>2022-05-20 21:14:17</time>
      </trkpt>
      <trkpt lat="41.43655" lon="1.4097">
        <ele>517.8</ele>
        <time>2022-05-20 21:14:18</time>
      </trkpt>
      <trkpt lat="41.43657" lon="1.40973">
        <ele>518.2</ele>
        <time>2022-05-20 21:14:19</time>
      </trkpt>
      <trkpt lat="41.43658" lon="1.40976">
        <ele>518.4</ele>
        <time>2022-05-20 21:14:20</time>
      </trkpt>
      <trkpt lat="41.4366" lon="1.4098">
        <ele>518.6</ele>
        <time>2022-05-20 21:14:21</time>
      </trkpt>
      <trkpt lat="41.43663" lon="1.40983">
        <ele>518.8</ele>
        <time>2022-05-20 21:14:22</time>
      </trkpt>
      <trkpt lat="41.43665" lon="1.40986">
        <ele>519</ele>
        <time>2022-05-20 21:14:23</time>
      </trkpt>
      <trkpt lat="41.43668" lon="1.40989">
        <ele>519.4</ele>
        <time>2022-05-20 21:14:24</time>
      </trkpt>
      <trkpt lat="41.4367" lon="1.40993">
        <ele>519.6</ele>
        <time>2022-05-20 21:14:25</time>
      </trkpt>
      <trkpt lat="41.43672" lon="1.40996">
        <ele>519.8</ele>
        <time>2022-05-20 21:14:26</time>
      </trkpt>
      <trkpt lat="41.43674" lon="1.41">
        <ele>520</ele>
        <time>2022-05-20 21:14:27</time>
      </trkpt>
      <trkpt lat="41.43677" lon="1.41003">
        <ele>520.2</ele>
        <time>2022-05-20 21:14:28</time>
      </trkpt>
      <trkpt lat="41.43679" lon="1.41007">
        <ele>520.4</ele>
        <time>2022-05-20 21:14:29</time>
      </trkpt>
      <trkpt lat="41.43682" lon="1.41011">
        <ele>520.4</ele>
        <time>2022-05-20 21:14:30</time>
      </trkpt>
      <trkpt lat="41.43684" lon="1.41014">
        <ele>520.6</ele>
        <time>2022-05-20 21:14:31</time>
      </trkpt>
      <trkpt lat="41.43688" lon="1.4102">
        <ele>520.6</ele>
        <time>2022-05-20 21:14:32</time>
      </trkpt>
      <trkpt lat="41.43691" lon="1.41025">
        <ele>520.6</ele>
        <time>2022-05-20 21:14:33</time>
      </trkpt>
      <trkpt lat="41.43694" lon="1.4103">
        <ele>520.6</ele>
        <time>2022-05-20 21:14:34</time>
      </trkpt>
      <trkpt lat="41.43697" lon="1.41035">
        <ele>520.8</ele>
        <time>2022-05-20 21:14:35</time>
      </trkpt>
      <trkpt lat="41.437" lon="1.4104">
        <ele>520.8</ele>
        <time>2022-05-20 21:14:36</time>
      </trkpt>
      <trkpt lat="41.43703" lon="1.41045">
        <ele>520.8</ele>
        <time>2022-05-20 21:14:37</time>
      </trkpt>
      <trkpt lat="41.43707" lon="1.4105">
        <ele>521</ele>
        <time>2022-05-20 21:14:38</time>
      </trkpt>
      <trkpt lat="41.43711" lon="1.41055">
        <ele>521</ele>
        <time>2022-05-20 21:14:39</time>
      </trkpt>
      <trkpt lat="41.43714" lon="1.41059">
        <ele>521</ele>
        <time>2022-05-20 21:14:40</time>
      </trkpt>
      <trkpt lat="41.43718" lon="1.41064">
        <ele>521</ele>
        <time>2022-05-20 21:14:41</time>
      </trkpt>
      <trkpt lat="41.43721" lon="1.41069">
        <ele>521</ele>
        <time>2022-05-20 21:14:42</time>
      </trkpt>
      <trkpt lat="41.43725" lon="1.41074">
        <ele>521</ele>
        <time>2022-05-20 21:14:43</time>
      </trkpt>
      <trkpt lat="41.43729" lon="1.41078">
        <ele>521</ele>
        <time>2022-05-20 21:14:44</time>
      </trkpt>
      <trkpt lat="41.43733" lon="1.41083">
        <ele>521</ele>
        <time>2022-05-20 21:14:45</time>
      </trkpt>
      <trkpt lat="41.43737" lon="1.41088">
        <ele>521.2</ele>
        <time>2022-05-20 21:14:46</time>
      </trkpt>
      <trkpt lat="41.43742" lon="1.41092">
        <ele>521.2</ele>
        <time>2022-05-20 21:14:47</time>
      </trkpt>
      <trkpt lat="41.43745" lon="1.41097">
        <ele>521.2</ele>
        <time>2022-05-20 21:14:48</time>
      </trkpt>
      <trkpt lat="41.4375" lon="1.41101">
        <ele>521.2</ele>
        <time>2022-05-20 21:14:49</time>
      </trkpt>
      <trkpt lat="41.43754" lon="1.41106">
        <ele>521.2</ele>
        <time>2022-05-20 21:14:50</time>
      </trkpt>
      <trkpt lat="41.43758" lon="1.41111">
        <ele>521.4</ele>
        <time>2022-05-20 21:14:51</time>
      </trkpt>
      <trkpt lat="41.43763" lon="1.41115">
        <ele>521.4</ele>
        <time>2022-05-20 21:14:52</time>
      </trkpt>
      <trkpt lat="41.43767" lon="1.4112">
        <ele>521.4</ele>
        <time>2022-05-20 21:14:53</time>
      </trkpt>
      <trkpt lat="41.43772" lon="1.41125">
        <ele>521.4</ele>
        <time>2022-05-20 21:14:54</time>
      </trkpt>
      <trkpt lat="41.43776" lon="1.4113">
        <ele>521.4</ele>
        <time>2022-05-20 21:14:55</time>
      </trkpt>
      <trkpt lat="41.4378" lon="1.41134">
        <ele>521.4</ele>
        <time>2022-05-20 21:14:56</time>
      </trkpt>
      <trkpt lat="41.43785" lon="1.41139">
        <ele>521.4</ele>
        <time>2022-05-20 21:14:57</time>
      </trkpt>
      <trkpt lat="41.43789" lon="1.41144">
        <ele>521.4</ele>
        <time>2022-05-20 21:14:58</time>
      </trkpt>
      <trkpt lat="41.43793" lon="1.41149">
        <ele>521.4</ele>
        <time>2022-05-20 21:14:59</time>
      </trkpt>
      <trkpt lat="41.43798" lon="1.41154">
        <ele>521.4</ele>
        <time>2022-05-20 21:15:00</time>
      </trkpt>
      <trkpt lat="41.43803" lon="1.41159">
        <ele>521.6</ele>
        <time>2022-05-20 21:15:01</time>
      </trkpt>
      <trkpt lat="41.43807" lon="1.41164">
        <ele>521.6</ele>
        <time>2022-05-20 21:15:02</time>
      </trkpt>
      <trkpt lat="41.43812" lon="1.41169">
        <ele>521.6</ele>
        <time>2022-05-20 21:15:03</time>
      </trkpt>
      <trkpt lat="41.43817" lon="1.41173">
        <ele>521.6</ele>
        <time>2022-05-20 21:15:04</time>
      </trkpt>
      <trkpt lat="41.43821" lon="1.41178">
        <ele>521.6</ele>
        <time>2022-05-20 21:15:05</time>
      </trkpt>
      <trkpt lat="41.43826" lon="1.41183">
        <ele>521.8</ele>
        <time>2022-05-20 21:15:06</time>
      </trkpt>
      <trkpt lat="41.43832" lon="1.41187">
        <ele>521.8</ele>
        <time>2022-05-20 21:15:07</time>
      </trkpt>
      <trkpt lat="41.43836" lon="1.41192">
        <ele>521.8</ele>
        <time>2022-05-20 21:15:08</time>
      </trkpt>
      <trkpt lat="41.43841" lon="1.41197">
        <ele>522</ele>
        <time>2022-05-20 21:15:09</time>
      </trkpt>
      <trkpt lat="41.43845" lon="1.41201">
        <ele>522</ele>
        <time>2022-05-20 21:15:10</time>
      </trkpt>
      <trkpt lat="41.4385" lon="1.41206">
        <ele>522.2</ele>
        <time>2022-05-20 21:15:11</time>
      </trkpt>
      <trkpt lat="41.43854" lon="1.41211">
        <ele>522.4</ele>
        <time>2022-05-20 21:15:12</time>
      </trkpt>
      <trkpt lat="41.43858" lon="1.41216">
        <ele>522.6</ele>
        <time>2022-05-20 21:15:13</time>
      </trkpt>
      <trkpt lat="41.43863" lon="1.41221">
        <ele>522.6</ele>
        <time>2022-05-20 21:15:14</time>
      </trkpt>
      <trkpt lat="41.43866" lon="1.41227">
        <ele>522.8</ele>
        <time>2022-05-20 21:15:15</time>
      </trkpt>
      <trkpt lat="41.43869" lon="1.41233">
        <ele>523</ele>
        <time>2022-05-20 21:15:16</time>
      </trkpt>
      <trkpt lat="41.43872" lon="1.41239">
        <ele>523.2</ele>
        <time>2022-05-20 21:15:17</time>
      </trkpt>
      <trkpt lat="41.43875" lon="1.41244">
        <ele>523.4</ele>
        <time>2022-05-20 21:15:18</time>
      </trkpt>
      <trkpt lat="41.43878" lon="1.4125">
        <ele>523.4</ele>
        <time>2022-05-20 21:15:19</time>
      </trkpt>
      <trkpt lat="41.4388" lon="1.41256">
        <ele>523.6</ele>
        <time>2022-05-20 21:15:20</time>
      </trkpt>
      <trkpt lat="41.43883" lon="1.41262">
        <ele>523.8</ele>
        <time>2022-05-20 21:15:21</time>
      </trkpt>
      <trkpt lat="41.43886" lon="1.41267">
        <ele>524</ele>
        <time>2022-05-20 21:15:22</time>
      </trkpt>
      <trkpt lat="41.4389" lon="1.41272">
        <ele>524.4</ele>
        <time>2022-05-20 21:15:23</time>
      </trkpt>
      <trkpt lat="41.43893" lon="1.41278">
        <ele>524.6</ele>
        <time>2022-05-20 21:15:24</time>
      </trkpt>
      <trkpt lat="41.43896" lon="1.41284">
        <ele>524.6</ele>
        <time>2022-05-20 21:15:25</time>
      </trkpt>
      <trkpt lat="41.439" lon="1.41291">
        <ele>524.8</ele>
        <time>2022-05-20 21:15:26</time>
      </trkpt>
      <trkpt lat="41.43903" lon="1.41298">
        <ele>525</ele>
        <time>2022-05-20 21:15:27</time>
      </trkpt>
      <trkpt lat="41.43907" lon="1.41305">
        <ele>525.2</ele>
        <time>2022-05-20 21:15:28</time>
      </trkpt>
      <trkpt lat="41.4391" lon="1.41312">
        <ele>525.2</ele>
        <time>2022-05-20 21:15:29</time>
      </trkpt>
      <trkpt lat="41.43913" lon="1.41319">
        <ele>525.4</ele>
        <time>2022-05-20 21:15:30</time>
      </trkpt>
      <trkpt lat="41.43915" lon="1.41326">
        <ele>525.6</ele>
        <time>2022-05-20 21:15:31</time>
      </trkpt>
      <trkpt lat="41.43917" lon="1.41332">
        <ele>525.6</ele>
        <time>2022-05-20 21:15:32</time>
      </trkpt>
      <trkpt lat="41.43918" lon="1.41339">
        <ele>525.8</ele>
        <time>2022-05-20 21:15:33</time>
      </trkpt>
      <trkpt lat="41.43919" lon="1.41346">
        <ele>526</ele>
        <time>2022-05-20 21:15:34</time>
      </trkpt>
      <trkpt lat="41.43919" lon="1.41353">
        <ele>526.2</ele>
        <time>2022-05-20 21:15:35</time>
      </trkpt>
      <trkpt lat="41.43919" lon="1.4136">
        <ele>526.4</ele>
        <time>2022-05-20 21:15:36</time>
      </trkpt>
      <trkpt lat="41.43919" lon="1.41367">
        <ele>526.6</ele>
        <time>2022-05-20 21:15:37</time>
      </trkpt>
      <trkpt lat="41.43919" lon="1.41374">
        <ele>526.8</ele>
        <time>2022-05-20 21:15:38</time>
      </trkpt>
      <trkpt lat="41.43919" lon="1.41381">
        <ele>527</ele>
        <time>2022-05-20 21:15:39</time>
      </trkpt>
      <trkpt lat="41.4392" lon="1.41389">
        <ele>527</ele>
        <time>2022-05-20 21:15:40</time>
      </trkpt>
      <trkpt lat="41.43921" lon="1.41398">
        <ele>527.2</ele>
        <time>2022-05-20 21:15:41</time>
      </trkpt>
      <trkpt lat="41.43923" lon="1.41406">
        <ele>527.4</ele>
        <time>2022-05-20 21:15:42</time>
      </trkpt>
      <trkpt lat="41.43926" lon="1.41414">
        <ele>527.4</ele>
        <time>2022-05-20 21:15:43</time>
      </trkpt>
      <trkpt lat="41.43929" lon="1.41421">
        <ele>527.6</ele>
        <time>2022-05-20 21:15:44</time>
      </trkpt>
      <trkpt lat="41.43932" lon="1.41428">
        <ele>527.8</ele>
        <time>2022-05-20 21:15:45</time>
      </trkpt>
      <trkpt lat="41.43935" lon="1.41435">
        <ele>528</ele>
        <time>2022-05-20 21:15:46</time>
      </trkpt>
      <trkpt lat="41.43938" lon="1.41441">
        <ele>528.2</ele>
        <time>2022-05-20 21:15:47</time>
      </trkpt>
      <trkpt lat="41.43941" lon="1.41447">
        <ele>528.4</ele>
        <time>2022-05-20 21:15:48</time>
      </trkpt>
      <trkpt lat="41.43945" lon="1.41453">
        <ele>528.4</ele>
        <time>2022-05-20 21:15:49</time>
      </trkpt>
      <trkpt lat="41.43948" lon="1.41459">
        <ele>528.6</ele>
        <time>2022-05-20 21:15:50</time>
      </trkpt>
      <trkpt lat="41.43952" lon="1.41465">
        <ele>528.8</ele>
        <time>2022-05-20 21:15:51</time>
      </trkpt>
      <trkpt lat="41.43955" lon="1.41471">
        <ele>529</ele>
        <time>2022-05-20 21:15:52</time>
      </trkpt>
      <trkpt lat="41.43959" lon="1.41476">
        <ele>529.2</ele>
        <time>2022-05-20 21:15:53</time>
      </trkpt>
      <trkpt lat="41.43962" lon="1.41482">
        <ele>529.4</ele>
        <time>2022-05-20 21:15:54</time>
      </trkpt>
      <trkpt lat="41.43966" lon="1.41487">
        <ele>529.6</ele>
        <time>2022-05-20 21:15:55</time>
      </trkpt>
      <trkpt lat="41.4397" lon="1.41493">
        <ele>529.8</ele>
        <time>2022-05-20 21:15:56</time>
      </trkpt>
      <trkpt lat="41.43974" lon="1.41498">
        <ele>530</ele>
        <time>2022-05-20 21:15:57</time>
      </trkpt>
      <trkpt lat="41.43978" lon="1.41502">
        <ele>530.2</ele>
        <time>2022-05-20 21:15:58</time>
      </trkpt>
      <trkpt lat="41.43982" lon="1.41506">
        <ele>530.4</ele>
        <time>2022-05-20 21:15:59</time>
      </trkpt>
      <trkpt lat="41.43986" lon="1.4151">
        <ele>530.6</ele>
        <time>2022-05-20 21:16:00</time>
      </trkpt>
      <trkpt lat="41.4399" lon="1.41514">
        <ele>531</ele>
        <time>2022-05-20 21:16:01</time>
      </trkpt>
      <trkpt lat="41.43994" lon="1.41519">
        <ele>531.2</ele>
        <time>2022-05-20 21:16:02</time>
      </trkpt>
      <trkpt lat="41.43998" lon="1.41523">
        <ele>531.4</ele>
        <time>2022-05-20 21:16:03</time>
      </trkpt>
      <trkpt lat="41.44002" lon="1.41528">
        <ele>531.6</ele>
        <time>2022-05-20 21:16:04</time>
      </trkpt>
      <trkpt lat="41.44005" lon="1.41534">
        <ele>531.8</ele>
        <time>2022-05-20 21:16:05</time>
      </trkpt>
      <trkpt lat="41.44009" lon="1.4154">
        <ele>532</ele>
        <time>2022-05-20 21:16:06</time>
      </trkpt>
      <trkpt lat="41.44012" lon="1.41547">
        <ele>532.2</ele>
        <time>2022-05-20 21:16:07</time>
      </trkpt>
      <trkpt lat="41.44014" lon="1.41553">
        <ele>532.4</ele>
        <time>2022-05-20 21:16:08</time>
      </trkpt>
      <trkpt lat="41.44016" lon="1.4156">
        <ele>532.6</ele>
        <time>2022-05-20 21:16:09</time>
      </trkpt>
      <trkpt lat="41.44019" lon="1.41567">
        <ele>532.8</ele>
        <time>2022-05-20 21:16:10</time>
      </trkpt>
      <trkpt lat="41.4402" lon="1.41574">
        <ele>532.8</ele>
        <time>2022-05-20 21:16:11</time>
      </trkpt>
      <trkpt lat="41.44022" lon="1.41581">
        <ele>533</ele>
        <time>2022-05-20 21:16:12</time>
      </trkpt>
      <trkpt lat="41.44024" lon="1.41588">
        <ele>533.2</ele>
        <time>2022-05-20 21:16:13</time>
      </trkpt>
      <trkpt lat="41.44026" lon="1.41594">
        <ele>533.4</ele>
        <time>2022-05-20 21:16:14</time>
      </trkpt>
      <trkpt lat="41.44028" lon="1.41602">
        <ele>533.6</ele>
        <time>2022-05-20 21:16:15</time>
      </trkpt>
      <trkpt lat="41.4403" lon="1.41609">
        <ele>533.8</ele>
        <time>2022-05-20 21:16:16</time>
      </trkpt>
      <trkpt lat="41.44032" lon="1.41616">
        <ele>534</ele>
        <time>2022-05-20 21:16:17</time>
      </trkpt>
      <trkpt lat="41.44035" lon="1.41623">
        <ele>534.2</ele>
        <time>2022-05-20 21:16:18</time>
      </trkpt>
      <trkpt lat="41.44037" lon="1.41629">
        <ele>534.4</ele>
        <time>2022-05-20 21:16:19</time>
      </trkpt>
      <trkpt lat="41.4404" lon="1.41635">
        <ele>534.4</ele>
        <time>2022-05-20 21:16:20</time>
      </trkpt>
      <trkpt lat="41.44043" lon="1.41641">
        <ele>534.6</ele>
        <time>2022-05-20 21:16:21</time>
      </trkpt>
      <trkpt lat="41.44048" lon="1.41646">
        <ele>534.8</ele>
        <time>2022-05-20 21:16:22</time>
      </trkpt>
      <trkpt lat="41.44052" lon="1.4165">
        <ele>535</ele>
        <time>2022-05-20 21:16:23</time>
      </trkpt>
      <trkpt lat="41.44057" lon="1.41654">
        <ele>535</ele>
        <time>2022-05-20 21:16:24</time>
      </trkpt>
      <trkpt lat="41.44062" lon="1.41657">
        <ele>535.2</ele>
        <time>2022-05-20 21:16:25</time>
      </trkpt>
      <trkpt lat="41.44067" lon="1.41661">
        <ele>535.4</ele>
        <time>2022-05-20 21:16:26</time>
      </trkpt>
      <trkpt lat="41.44071" lon="1.41664">
        <ele>535.6</ele>
        <time>2022-05-20 21:16:27</time>
      </trkpt>
      <trkpt lat="41.44076" lon="1.41667">
        <ele>535.8</ele>
        <time>2022-05-20 21:16:28</time>
      </trkpt>
      <trkpt lat="41.4408" lon="1.41671">
        <ele>535.8</ele>
        <time>2022-05-20 21:16:29</time>
      </trkpt>
      <trkpt lat="41.44085" lon="1.41675">
        <ele>536</ele>
        <time>2022-05-20 21:16:30</time>
      </trkpt>
      <trkpt lat="41.4409" lon="1.41679">
        <ele>536.2</ele>
        <time>2022-05-20 21:16:31</time>
      </trkpt>
      <trkpt lat="41.44094" lon="1.41684">
        <ele>536.4</ele>
        <time>2022-05-20 21:16:32</time>
      </trkpt>
      <trkpt lat="41.44098" lon="1.41688">
        <ele>536.6</ele>
        <time>2022-05-20 21:16:33</time>
      </trkpt>
      <trkpt lat="41.44102" lon="1.41693">
        <ele>536.8</ele>
        <time>2022-05-20 21:16:34</time>
      </trkpt>
      <trkpt lat="41.44105" lon="1.41698">
        <ele>537</ele>
        <time>2022-05-20 21:16:35</time>
      </trkpt>
      <trkpt lat="41.44108" lon="1.41702">
        <ele>537.2</ele>
        <time>2022-05-20 21:16:36</time>
      </trkpt>
      <trkpt lat="41.44112" lon="1.41707">
        <ele>537.4</ele>
        <time>2022-05-20 21:16:37</time>
      </trkpt>
      <trkpt lat="41.44115" lon="1.41712">
        <ele>537.6</ele>
        <time>2022-05-20 21:16:38</time>
      </trkpt>
      <trkpt lat="41.44118" lon="1.41716">
        <ele>538</ele>
        <time>2022-05-20 21:16:39</time>
      </trkpt>
      <trkpt lat="41.44121" lon="1.41721">
        <ele>538.2</ele>
        <time>2022-05-20 21:16:40</time>
      </trkpt>
      <trkpt lat="41.44124" lon="1.41726">
        <ele>538.4</ele>
        <time>2022-05-20 21:16:41</time>
      </trkpt>
      <trkpt lat="41.44127" lon="1.4173">
        <ele>538.8</ele>
        <time>2022-05-20 21:16:42</time>
      </trkpt>
      <trkpt lat="41.44131" lon="1.41734">
        <ele>539</ele>
        <time>2022-05-20 21:16:43</time>
      </trkpt>
      <trkpt lat="41.44134" lon="1.41739">
        <ele>539.2</ele>
        <time>2022-05-20 21:16:44</time>
      </trkpt>
      <trkpt lat="41.44137" lon="1.41743">
        <ele>539.6</ele>
        <time>2022-05-20 21:16:45</time>
      </trkpt>
      <trkpt lat="41.4414" lon="1.41747">
        <ele>539.8</ele>
        <time>2022-05-20 21:16:46</time>
      </trkpt>
      <trkpt lat="41.44143" lon="1.41751">
        <ele>540</ele>
        <time>2022-05-20 21:16:47</time>
      </trkpt>
      <trkpt lat="41.44146" lon="1.41755">
        <ele>540.2</ele>
        <time>2022-05-20 21:16:48</time>
      </trkpt>
      <trkpt lat="41.44149" lon="1.41759">
        <ele>540.4</ele>
        <time>2022-05-20 21:16:49</time>
      </trkpt>
      <trkpt lat="41.44152" lon="1.41763">
        <ele>540.8</ele>
        <time>2022-05-20 21:16:50</time>
      </trkpt>
      <trkpt lat="41.44154" lon="1.41768">
        <ele>541</ele>
        <time>2022-05-20 21:16:51</time>
      </trkpt>
      <trkpt lat="41.44157" lon="1.41773">
        <ele>541.2</ele>
        <time>2022-05-20 21:16:52</time>
      </trkpt>
      <trkpt lat="41.44159" lon="1.41777">
        <ele>541.4</ele>
        <time>2022-05-20 21:16:53</time>
      </trkpt>
      <trkpt lat="41.4416" lon="1.41782">
        <ele>541.8</ele>
        <time>2022-05-20 21:16:54</time>
      </trkpt>
      <trkpt lat="41.44162" lon="1.41788">
        <ele>542</ele>
        <time>2022-05-20 21:16:55</time>
      </trkpt>
      <trkpt lat="41.44164" lon="1.41793">
        <ele>542.2</ele>
        <time>2022-05-20 21:16:56</time>
      </trkpt>
      <trkpt lat="41.44166" lon="1.41798">
        <ele>542.6</ele>
        <time>2022-05-20 21:16:57</time>
      </trkpt>
      <trkpt lat="41.44167" lon="1.41803">
        <ele>542.8</ele>
        <time>2022-05-20 21:16:58</time>
      </trkpt>
      <trkpt lat="41.44168" lon="1.41807">
        <ele>543</ele>
        <time>2022-05-20 21:16:59</time>
      </trkpt>
      <trkpt lat="41.44169" lon="1.41812">
        <ele>543.2</ele>
        <time>2022-05-20 21:17:00</time>
      </trkpt>
      <trkpt lat="41.4417" lon="1.41817">
        <ele>543.4</ele>
        <time>2022-05-20 21:17:01</time>
      </trkpt>
      <trkpt lat="41.4417" lon="1.41822">
        <ele>543.6</ele>
        <time>2022-05-20 21:17:02</time>
      </trkpt>
      <trkpt lat="41.44171" lon="1.41828">
        <ele>543.8</ele>
        <time>2022-05-20 21:17:03</time>
      </trkpt>
      <trkpt lat="41.44172" lon="1.41834">
        <ele>544</ele>
        <time>2022-05-20 21:17:04</time>
      </trkpt>
      <trkpt lat="41.44172" lon="1.41839">
        <ele>544.4</ele>
        <time>2022-05-20 21:17:05</time>
      </trkpt>
      <trkpt lat="41.44173" lon="1.41844">
        <ele>544.6</ele>
        <time>2022-05-20 21:17:06</time>
      </trkpt>
      <trkpt lat="41.44174" lon="1.4185">
        <ele>544.8</ele>
        <time>2022-05-20 21:17:07</time>
      </trkpt>
      <trkpt lat="41.44175" lon="1.41855">
        <ele>545.2</ele>
        <time>2022-05-20 21:17:08</time>
      </trkpt>
      <trkpt lat="41.44175" lon="1.41859">
        <ele>545.4</ele>
        <time>2022-05-20 21:17:09</time>
      </trkpt>
      <trkpt lat="41.44176" lon="1.41864">
        <ele>545.8</ele>
        <time>2022-05-20 21:17:10</time>
      </trkpt>
      <trkpt lat="41.44177" lon="1.41869">
        <ele>546</ele>
        <time>2022-05-20 21:17:11</time>
      </trkpt>
      <trkpt lat="41.44178" lon="1.41874">
        <ele>546.4</ele>
        <time>2022-05-20 21:17:12</time>
      </trkpt>
      <trkpt lat="41.44178" lon="1.41879">
        <ele>546.6</ele>
        <time>2022-05-20 21:17:13</time>
      </trkpt>
      <trkpt lat="41.44178" lon="1.41883">
        <ele>547</ele>
        <time>2022-05-20 21:17:14</time>
      </trkpt>
      <trkpt lat="41.44179" lon="1.41887">
        <ele>547.2</ele>
        <time>2022-05-20 21:17:15</time>
      </trkpt>
      <trkpt lat="41.4418" lon="1.41891">
        <ele>547.6</ele>
        <time>2022-05-20 21:17:16</time>
      </trkpt>
      <trkpt lat="41.44181" lon="1.41896">
        <ele>547.8</ele>
        <time>2022-05-20 21:17:17</time>
      </trkpt>
      <trkpt lat="41.44182" lon="1.419">
        <ele>548</ele>
        <time>2022-05-20 21:17:18</time>
      </trkpt>
      <trkpt lat="41.44183" lon="1.41903">
        <ele>548.4</ele>
        <time>2022-05-20 21:17:19</time>
      </trkpt>
      <trkpt lat="41.44184" lon="1.41907">
        <ele>548.6</ele>
        <time>2022-05-20 21:17:20</time>
      </trkpt>
      <trkpt lat="41.44185" lon="1.41911">
        <ele>549</ele>
        <time>2022-05-20 21:17:21</time>
      </trkpt>
      <trkpt lat="41.44187" lon="1.41914">
        <ele>549.2</ele>
        <time>2022-05-20 21:17:22</time>
      </trkpt>
      <trkpt lat="41.44188" lon="1.41918">
        <ele>549.4</ele>
        <time>2022-05-20 21:17:23</time>
      </trkpt>
      <trkpt lat="41.4419" lon="1.41921">
        <ele>549.6</ele>
        <time>2022-05-20 21:17:24</time>
      </trkpt>
      <trkpt lat="41.44192" lon="1.41925">
        <ele>549.8</ele>
        <time>2022-05-20 21:17:25</time>
      </trkpt>
      <trkpt lat="41.44193" lon="1.41928">
        <ele>550.2</ele>
        <time>2022-05-20 21:17:26</time>
      </trkpt>
      <trkpt lat="41.44194" lon="1.41933">
        <ele>550.4</ele>
        <time>2022-05-20 21:17:27</time>
      </trkpt>
      <trkpt lat="41.44195" lon="1.41937">
        <ele>550.6</ele>
        <time>2022-05-20 21:17:28</time>
      </trkpt>
      <trkpt lat="41.44196" lon="1.41941">
        <ele>550.8</ele>
        <time>2022-05-20 21:17:29</time>
      </trkpt>
      <trkpt lat="41.44197" lon="1.41945">
        <ele>551.2</ele>
        <time>2022-05-20 21:17:30</time>
      </trkpt>
      <trkpt lat="41.44198" lon="1.41949">
        <ele>551.4</ele>
        <time>2022-05-20 21:17:31</time>
      </trkpt>
      <trkpt lat="41.44199" lon="1.41953">
        <ele>551.8</ele>
        <time>2022-05-20 21:17:32</time>
      </trkpt>
      <trkpt lat="41.44199" lon="1.41957">
        <ele>552</ele>
        <time>2022-05-20 21:17:33</time>
      </trkpt>
      <trkpt lat="41.442" lon="1.41961">
        <ele>552.2</ele>
        <time>2022-05-20 21:17:34</time>
      </trkpt>
      <trkpt lat="41.44201" lon="1.41966">
        <ele>552.6</ele>
        <time>2022-05-20 21:17:35</time>
      </trkpt>
      <trkpt lat="41.44201" lon="1.4197">
        <ele>552.8</ele>
        <time>2022-05-20 21:17:36</time>
      </trkpt>
      <trkpt lat="41.44201" lon="1.41973">
        <ele>553</ele>
        <time>2022-05-20 21:17:37</time>
      </trkpt>
      <trkpt lat="41.44202" lon="1.41977">
        <ele>553.2</ele>
        <time>2022-05-20 21:17:38</time>
      </trkpt>
      <trkpt lat="41.44203" lon="1.41981">
        <ele>553.6</ele>
        <time>2022-05-20 21:17:39</time>
      </trkpt>
      <trkpt lat="41.44204" lon="1.41985">
        <ele>553.8</ele>
        <time>2022-05-20 21:17:40</time>
      </trkpt>
      <trkpt lat="41.44204" lon="1.41988">
        <ele>554.2</ele>
        <time>2022-05-20 21:17:41</time>
      </trkpt>
      <trkpt lat="41.44204" lon="1.41991">
        <ele>554.2</ele>
        <time>2022-05-20 21:17:42</time>
      </trkpt>
      <trkpt lat="41.44204" lon="1.41993">
        <ele>554.4</ele>
        <time>2022-05-20 21:17:43</time>
      </trkpt>
      <trkpt lat="41.44206" lon="1.41998">
        <ele>554.8</ele>
        <time>2022-05-20 21:17:44</time>
      </trkpt>
      <trkpt lat="41.44207" lon="1.42001">
        <ele>555</ele>
        <time>2022-05-20 21:17:45</time>
      </trkpt>
      <trkpt lat="41.44209" lon="1.42004">
        <ele>555.2</ele>
        <time>2022-05-20 21:17:46</time>
      </trkpt>
      <trkpt lat="41.4421" lon="1.42007">
        <ele>555.6</ele>
        <time>2022-05-20 21:17:47</time>
      </trkpt>
      <trkpt lat="41.44211" lon="1.42009">
        <ele>555.8</ele>
        <time>2022-05-20 21:17:48</time>
      </trkpt>
      <trkpt lat="41.44213" lon="1.42013">
        <ele>556</ele>
        <time>2022-05-20 21:17:49</time>
      </trkpt>
      <trkpt lat="41.44215" lon="1.42016">
        <ele>556.2</ele>
        <time>2022-05-20 21:17:50</time>
      </trkpt>
      <trkpt lat="41.44216" lon="1.4202">
        <ele>556.6</ele>
        <time>2022-05-20 21:17:51</time>
      </trkpt>
      <trkpt lat="41.44218" lon="1.42023">
        <ele>556.8</ele>
        <time>2022-05-20 21:17:52</time>
      </trkpt>
      <trkpt lat="41.44219" lon="1.42027">
        <ele>557</ele>
        <time>2022-05-20 21:17:53</time>
      </trkpt>
      <trkpt lat="41.4422" lon="1.42031">
        <ele>557.2</ele>
        <time>2022-05-20 21:17:54</time>
      </trkpt>
      <trkpt lat="41.44221" lon="1.42035">
        <ele>557.4</ele>
        <time>2022-05-20 21:17:55</time>
      </trkpt>
      <trkpt lat="41.44221" lon="1.42039">
        <ele>557.8</ele>
        <time>2022-05-20 21:17:56</time>
      </trkpt>
      <trkpt lat="41.44221" lon="1.42042">
        <ele>558</ele>
        <time>2022-05-20 21:17:57</time>
      </trkpt>
      <trkpt lat="41.4422" lon="1.42045">
        <ele>558.2</ele>
        <time>2022-05-20 21:17:58</time>
      </trkpt>
      <trkpt lat="41.4422" lon="1.42049">
        <ele>558.6</ele>
        <time>2022-05-20 21:17:59</time>
      </trkpt>
      <trkpt lat="41.44219" lon="1.42053">
        <ele>558.8</ele>
        <time>2022-05-20 21:18:00</time>
      </trkpt>
      <trkpt lat="41.44219" lon="1.42056">
        <ele>559</ele>
        <time>2022-05-20 21:18:01</time>
      </trkpt>
      <trkpt lat="41.44218" lon="1.4206">
        <ele>559.2</ele>
        <time>2022-05-20 21:18:02</time>
      </trkpt>
      <trkpt lat="41.44217" lon="1.42063">
        <ele>559.6</ele>
        <time>2022-05-20 21:18:03</time>
      </trkpt>
      <trkpt lat="41.44217" lon="1.42067">
        <ele>559.8</ele>
        <time>2022-05-20 21:18:04</time>
      </trkpt>
      <trkpt lat="41.44217" lon="1.42071">
        <ele>560</ele>
        <time>2022-05-20 21:18:05</time>
      </trkpt>
      <trkpt lat="41.44217" lon="1.42075">
        <ele>560.2</ele>
        <time>2022-05-20 21:18:06</time>
      </trkpt>
      <trkpt lat="41.44218" lon="1.4208">
        <ele>560.4</ele>
        <time>2022-05-20 21:18:07</time>
      </trkpt>
      <trkpt lat="41.44218" lon="1.42084">
        <ele>560.8</ele>
        <time>2022-05-20 21:18:08</time>
      </trkpt>
      <trkpt lat="41.4422" lon="1.42088">
        <ele>561</ele>
        <time>2022-05-20 21:18:09</time>
      </trkpt>
      <trkpt lat="41.44221" lon="1.42092">
        <ele>561.2</ele>
        <time>2022-05-20 21:18:10</time>
      </trkpt>
      <trkpt lat="41.44223" lon="1.42095">
        <ele>561.4</ele>
        <time>2022-05-20 21:18:11</time>
      </trkpt>
      <trkpt lat="41.44226" lon="1.42099">
        <ele>561.6</ele>
        <time>2022-05-20 21:18:12</time>
      </trkpt>
      <trkpt lat="41.44228" lon="1.42102">
        <ele>562</ele>
        <time>2022-05-20 21:18:13</time>
      </trkpt>
      <trkpt lat="41.4423" lon="1.42105">
        <ele>562.2</ele>
        <time>2022-05-20 21:18:14</time>
      </trkpt>
      <trkpt lat="41.44233" lon="1.42107">
        <ele>562.6</ele>
        <time>2022-05-20 21:18:15</time>
      </trkpt>
      <trkpt lat="41.44235" lon="1.4211">
        <ele>562.8</ele>
        <time>2022-05-20 21:18:16</time>
      </trkpt>
      <trkpt lat="41.44237" lon="1.42113">
        <ele>563</ele>
        <time>2022-05-20 21:18:17</time>
      </trkpt>
      <trkpt lat="41.44239" lon="1.42115">
        <ele>563.4</ele>
        <time>2022-05-20 21:18:18</time>
      </trkpt>
      <trkpt lat="41.44242" lon="1.42118">
        <ele>563.6</ele>
        <time>2022-05-20 21:18:19</time>
      </trkpt>
      <trkpt lat="41.44244" lon="1.4212">
        <ele>563.8</ele>
        <time>2022-05-20 21:18:20</time>
      </trkpt>
      <trkpt lat="41.44247" lon="1.42122">
        <ele>564</ele>
        <time>2022-05-20 21:18:21</time>
      </trkpt>
      <trkpt lat="41.44249" lon="1.42124">
        <ele>564.4</ele>
        <time>2022-05-20 21:18:22</time>
      </trkpt>
      <trkpt lat="41.44252" lon="1.42126">
        <ele>564.6</ele>
        <time>2022-05-20 21:18:23</time>
      </trkpt>
      <trkpt lat="41.44255" lon="1.42127">
        <ele>564.8</ele>
        <time>2022-05-20 21:18:24</time>
      </trkpt>
      <trkpt lat="41.44257" lon="1.4213">
        <ele>565.2</ele>
        <time>2022-05-20 21:18:25</time>
      </trkpt>
      <trkpt lat="41.44261" lon="1.42131">
        <ele>565.4</ele>
        <time>2022-05-20 21:18:26</time>
      </trkpt>
      <trkpt lat="41.44263" lon="1.42133">
        <ele>565.6</ele>
        <time>2022-05-20 21:18:27</time>
      </trkpt>
      <trkpt lat="41.44267" lon="1.42135">
        <ele>565.8</ele>
        <time>2022-05-20 21:18:28</time>
      </trkpt>
      <trkpt lat="41.4427" lon="1.42136">
        <ele>566</ele>
        <time>2022-05-20 21:18:29</time>
      </trkpt>
      <trkpt lat="41.44273" lon="1.42138">
        <ele>566.2</ele>
        <time>2022-05-20 21:18:30</time>
      </trkpt>
      <trkpt lat="41.44277" lon="1.42139">
        <ele>566.4</ele>
        <time>2022-05-20 21:18:31</time>
      </trkpt>
      <trkpt lat="41.44281" lon="1.4214">
        <ele>566.4</ele>
        <time>2022-05-20 21:18:32</time>
      </trkpt>
      <trkpt lat="41.44285" lon="1.4214">
        <ele>566.6</ele>
        <time>2022-05-20 21:18:33</time>
      </trkpt>
      <trkpt lat="41.44289" lon="1.4214">
        <ele>566.6</ele>
        <time>2022-05-20 21:18:34</time>
      </trkpt>
      <trkpt lat="41.44293" lon="1.4214">
        <ele>566.8</ele>
        <time>2022-05-20 21:18:35</time>
      </trkpt>
      <trkpt lat="41.44297" lon="1.42139">
        <ele>566.8</ele>
        <time>2022-05-20 21:18:36</time>
      </trkpt>
      <trkpt lat="41.44301" lon="1.42138">
        <ele>567</ele>
        <time>2022-05-20 21:18:37</time>
      </trkpt>
      <trkpt lat="41.44305" lon="1.42137">
        <ele>567</ele>
        <time>2022-05-20 21:18:38</time>
      </trkpt>
      <trkpt lat="41.44309" lon="1.42137">
        <ele>567.2</ele>
        <time>2022-05-20 21:18:39</time>
      </trkpt>
      <trkpt lat="41.44314" lon="1.42137">
        <ele>567.2</ele>
        <time>2022-05-20 21:18:40</time>
      </trkpt>
      <trkpt lat="41.44319" lon="1.42136">
        <ele>567.2</ele>
        <time>2022-05-20 21:18:41</time>
      </trkpt>
      <trkpt lat="41.44324" lon="1.42136">
        <ele>567.2</ele>
        <time>2022-05-20 21:18:42</time>
      </trkpt>
      <trkpt lat="41.44328" lon="1.42136">
        <ele>567.4</ele>
        <time>2022-05-20 21:18:43</time>
      </trkpt>
      <trkpt lat="41.44333" lon="1.42137">
        <ele>567.4</ele>
        <time>2022-05-20 21:18:44</time>
      </trkpt>
      <trkpt lat="41.44339" lon="1.42137">
        <ele>567.4</ele>
        <time>2022-05-20 21:18:45</time>
      </trkpt>
      <trkpt lat="41.44344" lon="1.42139">
        <ele>567.6</ele>
        <time>2022-05-20 21:18:46</time>
      </trkpt>
      <trkpt lat="41.4435" lon="1.4214">
        <ele>567.6</ele>
        <time>2022-05-20 21:18:47</time>
      </trkpt>
      <trkpt lat="41.44355" lon="1.42142">
        <ele>567.8</ele>
        <time>2022-05-20 21:18:48</time>
      </trkpt>
      <trkpt lat="41.4436" lon="1.42144">
        <ele>568</ele>
        <time>2022-05-20 21:18:49</time>
      </trkpt>
      <trkpt lat="41.44365" lon="1.42146">
        <ele>568.2</ele>
        <time>2022-05-20 21:18:50</time>
      </trkpt>
      <trkpt lat="41.44369" lon="1.42149">
        <ele>568.4</ele>
        <time>2022-05-20 21:18:51</time>
      </trkpt>
      <trkpt lat="41.44373" lon="1.42152">
        <ele>568.6</ele>
        <time>2022-05-20 21:18:52</time>
      </trkpt>
      <trkpt lat="41.44377" lon="1.42154">
        <ele>568.6</ele>
        <time>2022-05-20 21:18:53</time>
      </trkpt>
      <trkpt lat="41.44382" lon="1.42156">
        <ele>568.8</ele>
        <time>2022-05-20 21:18:54</time>
      </trkpt>
      <trkpt lat="41.44386" lon="1.42158">
        <ele>569</ele>
        <time>2022-05-20 21:18:55</time>
      </trkpt>
      <trkpt lat="41.4439" lon="1.4216">
        <ele>569.2</ele>
        <time>2022-05-20 21:18:56</time>
      </trkpt>
      <trkpt lat="41.44395" lon="1.42163">
        <ele>569.4</ele>
        <time>2022-05-20 21:18:57</time>
      </trkpt>
      <trkpt lat="41.44398" lon="1.42167">
        <ele>569.4</ele>
        <time>2022-05-20 21:18:58</time>
      </trkpt>
      <trkpt lat="41.44402" lon="1.42172">
        <ele>569.6</ele>
        <time>2022-05-20 21:18:59</time>
      </trkpt>
      <trkpt lat="41.44404" lon="1.42177">
        <ele>569.6</ele>
        <time>2022-05-20 21:19:00</time>
      </trkpt>
      <trkpt lat="41.44405" lon="1.42182">
        <ele>569.8</ele>
        <time>2022-05-20 21:19:01</time>
      </trkpt>
      <trkpt lat="41.44406" lon="1.42187">
        <ele>570</ele>
        <time>2022-05-20 21:19:02</time>
      </trkpt>
      <trkpt lat="41.44406" lon="1.42193">
        <ele>570.2</ele>
        <time>2022-05-20 21:19:03</time>
      </trkpt>
      <trkpt lat="41.44405" lon="1.42198">
        <ele>570.2</ele>
        <time>2022-05-20 21:19:04</time>
      </trkpt>
      <trkpt lat="41.44404" lon="1.42204">
        <ele>570.4</ele>
        <time>2022-05-20 21:19:05</time>
      </trkpt>
      <trkpt lat="41.44403" lon="1.4221">
        <ele>570.6</ele>
        <time>2022-05-20 21:19:06</time>
      </trkpt>
      <trkpt lat="41.44402" lon="1.42215">
        <ele>570.8</ele>
        <time>2022-05-20 21:19:07</time>
      </trkpt>
      <trkpt lat="41.44402" lon="1.42221">
        <ele>571</ele>
        <time>2022-05-20 21:19:08</time>
      </trkpt>
      <trkpt lat="41.44402" lon="1.42227">
        <ele>571.2</ele>
        <time>2022-05-20 21:19:09</time>
      </trkpt>
      <trkpt lat="41.44403" lon="1.42233">
        <ele>571.4</ele>
        <time>2022-05-20 21:19:10</time>
      </trkpt>
      <trkpt lat="41.44404" lon="1.42239">
        <ele>571.6</ele>
        <time>2022-05-20 21:19:11</time>
      </trkpt>
      <trkpt lat="41.44405" lon="1.42245">
        <ele>571.8</ele>
        <time>2022-05-20 21:19:12</time>
      </trkpt>
      <trkpt lat="41.44406" lon="1.4225">
        <ele>572</ele>
        <time>2022-05-20 21:19:13</time>
      </trkpt>
      <trkpt lat="41.44407" lon="1.42255">
        <ele>572.2</ele>
        <time>2022-05-20 21:19:14</time>
      </trkpt>
      <trkpt lat="41.44408" lon="1.4226">
        <ele>572.4</ele>
        <time>2022-05-20 21:19:15</time>
      </trkpt>
      <trkpt lat="41.4441" lon="1.42265">
        <ele>572.6</ele>
        <time>2022-05-20 21:19:16</time>
      </trkpt>
      <trkpt lat="41.44411" lon="1.42271">
        <ele>572.8</ele>
        <time>2022-05-20 21:19:17</time>
      </trkpt>
      <trkpt lat="41.44413" lon="1.42276">
        <ele>573</ele>
        <time>2022-05-20 21:19:18</time>
      </trkpt>
      <trkpt lat="41.44414" lon="1.42281">
        <ele>573.2</ele>
        <time>2022-05-20 21:19:19</time>
      </trkpt>
      <trkpt lat="41.44415" lon="1.42287">
        <ele>573.4</ele>
        <time>2022-05-20 21:19:20</time>
      </trkpt>
      <trkpt lat="41.44415" lon="1.42293">
        <ele>573.6</ele>
        <time>2022-05-20 21:19:21</time>
      </trkpt>
      <trkpt lat="41.44415" lon="1.42299">
        <ele>574</ele>
        <time>2022-05-20 21:19:22</time>
      </trkpt>
      <trkpt lat="41.44414" lon="1.42304">
        <ele>574.2</ele>
        <time>2022-05-20 21:19:23</time>
      </trkpt>
      <trkpt lat="41.44413" lon="1.4231">
        <ele>574.4</ele>
        <time>2022-05-20 21:19:24</time>
      </trkpt>
      <trkpt lat="41.44411" lon="1.42315">
        <ele>574.6</ele>
        <time>2022-05-20 21:19:25</time>
      </trkpt>
      <trkpt lat="41.4441" lon="1.4232">
        <ele>574.8</ele>
        <time>2022-05-20 21:19:26</time>
      </trkpt>
      <trkpt lat="41.44409" lon="1.42325">
        <ele>575</ele>
        <time>2022-05-20 21:19:27</time>
      </trkpt>
      <trkpt lat="41.44409" lon="1.4233">
        <ele>575.2</ele>
        <time>2022-05-20 21:19:28</time>
      </trkpt>
      <trkpt lat="41.44409" lon="1.42336">
        <ele>575.6</ele>
        <time>2022-05-20 21:19:29</time>
      </trkpt>
      <trkpt lat="41.4441" lon="1.42341">
        <ele>575.8</ele>
        <time>2022-05-20 21:19:30</time>
      </trkpt>
      <trkpt lat="41.44411" lon="1.42347">
        <ele>576</ele>
        <time>2022-05-20 21:19:31</time>
      </trkpt>
      <trkpt lat="41.44413" lon="1.42352">
        <ele>576.2</ele>
        <time>2022-05-20 21:19:32</time>
      </trkpt>
      <trkpt lat="41.44415" lon="1.42356">
        <ele>576.6</ele>
        <time>2022-05-20 21:19:33</time>
      </trkpt>
      <trkpt lat="41.44418" lon="1.42361">
        <ele>576.8</ele>
        <time>2022-05-20 21:19:34</time>
      </trkpt>
      <trkpt lat="41.44421" lon="1.42364">
        <ele>576.8</ele>
        <time>2022-05-20 21:19:35</time>
      </trkpt>
      <trkpt lat="41.44424" lon="1.42368">
        <ele>577</ele>
        <time>2022-05-20 21:19:36</time>
      </trkpt>
      <trkpt lat="41.44427" lon="1.4237">
        <ele>577.2</ele>
        <time>2022-05-20 21:19:37</time>
      </trkpt>
      <trkpt lat="41.44431" lon="1.42373">
        <ele>577.4</ele>
        <time>2022-05-20 21:19:38</time>
      </trkpt>
      <trkpt lat="41.44434" lon="1.42376">
        <ele>577.6</ele>
        <time>2022-05-20 21:19:39</time>
      </trkpt>
      <trkpt lat="41.44437" lon="1.42379">
        <ele>577.8</ele>
        <time>2022-05-20 21:19:40</time>
      </trkpt>
      <trkpt lat="41.44441" lon="1.42382">
        <ele>578</ele>
        <time>2022-05-20 21:19:41</time>
      </trkpt>
      <trkpt lat="41.44444" lon="1.42385">
        <ele>578.2</ele>
        <time>2022-05-20 21:19:42</time>
      </trkpt>
      <trkpt lat="41.44447" lon="1.42388">
        <ele>578.4</ele>
        <time>2022-05-20 21:19:43</time>
      </trkpt>
      <trkpt lat="41.44451" lon="1.42391">
        <ele>578.6</ele>
        <time>2022-05-20 21:19:44</time>
      </trkpt>
      <trkpt lat="41.44454" lon="1.42395">
        <ele>578.8</ele>
        <time>2022-05-20 21:19:45</time>
      </trkpt>
      <trkpt lat="41.44458" lon="1.42398">
        <ele>579</ele>
        <time>2022-05-20 21:19:46</time>
      </trkpt>
      <trkpt lat="41.44461" lon="1.42402">
        <ele>579.2</ele>
        <time>2022-05-20 21:19:47</time>
      </trkpt>
      <trkpt lat="41.44464" lon="1.42405">
        <ele>579.4</ele>
        <time>2022-05-20 21:19:48</time>
      </trkpt>
      <trkpt lat="41.44468" lon="1.42408">
        <ele>579.4</ele>
        <time>2022-05-20 21:19:49</time>
      </trkpt>
      <trkpt lat="41.44471" lon="1.42412">
        <ele>579.6</ele>
        <time>2022-05-20 21:19:50</time>
      </trkpt>
      <trkpt lat="41.44474" lon="1.42415">
        <ele>579.8</ele>
        <time>2022-05-20 21:19:51</time>
      </trkpt>
      <trkpt lat="41.44478" lon="1.42419">
        <ele>580</ele>
        <time>2022-05-20 21:19:52</time>
      </trkpt>
      <trkpt lat="41.44481" lon="1.42423">
        <ele>580.2</ele>
        <time>2022-05-20 21:19:53</time>
      </trkpt>
      <trkpt lat="41.44484" lon="1.42426">
        <ele>580.4</ele>
        <time>2022-05-20 21:19:54</time>
      </trkpt>
      <trkpt lat="41.44487" lon="1.4243">
        <ele>580.6</ele>
        <time>2022-05-20 21:19:55</time>
      </trkpt>
      <trkpt lat="41.4449" lon="1.42434">
        <ele>580.8</ele>
        <time>2022-05-20 21:19:56</time>
      </trkpt>
      <trkpt lat="41.44493" lon="1.42438">
        <ele>581.2</ele>
        <time>2022-05-20 21:19:57</time>
      </trkpt>
      <trkpt lat="41.44495" lon="1.42442">
        <ele>581.4</ele>
        <time>2022-05-20 21:19:58</time>
      </trkpt>
      <trkpt lat="41.44498" lon="1.42446">
        <ele>581.6</ele>
        <time>2022-05-20 21:19:59</time>
      </trkpt>
      <trkpt lat="41.44501" lon="1.4245">
        <ele>581.8</ele>
        <time>2022-05-20 21:20:00</time>
      </trkpt>
      <trkpt lat="41.44503" lon="1.42454">
        <ele>582</ele>
        <time>2022-05-20 21:20:01</time>
      </trkpt>
      <trkpt lat="41.44506" lon="1.42458">
        <ele>582.2</ele>
        <time>2022-05-20 21:20:02</time>
      </trkpt>
      <trkpt lat="41.4451" lon="1.42462">
        <ele>582.4</ele>
        <time>2022-05-20 21:20:03</time>
      </trkpt>
      <trkpt lat="41.44513" lon="1.42466">
        <ele>582.6</ele>
        <time>2022-05-20 21:20:04</time>
      </trkpt>
      <trkpt lat="41.44515" lon="1.4247">
        <ele>582.8</ele>
        <time>2022-05-20 21:20:05</time>
      </trkpt>
      <trkpt lat="41.44518" lon="1.42474">
        <ele>583</ele>
        <time>2022-05-20 21:20:06</time>
      </trkpt>
      <trkpt lat="41.44521" lon="1.42478">
        <ele>583.2</ele>
        <time>2022-05-20 21:20:07</time>
      </trkpt>
      <trkpt lat="41.44524" lon="1.42482">
        <ele>583.4</ele>
        <time>2022-05-20 21:20:08</time>
      </trkpt>
      <trkpt lat="41.44527" lon="1.42486">
        <ele>583.6</ele>
        <time>2022-05-20 21:20:09</time>
      </trkpt>
      <trkpt lat="41.4453" lon="1.4249">
        <ele>583.8</ele>
        <time>2022-05-20 21:20:10</time>
      </trkpt>
      <trkpt lat="41.44532" lon="1.42494">
        <ele>584</ele>
        <time>2022-05-20 21:20:11</time>
      </trkpt>
      <trkpt lat="41.44535" lon="1.42498">
        <ele>584.2</ele>
        <time>2022-05-20 21:20:12</time>
      </trkpt>
      <trkpt lat="41.44537" lon="1.42502">
        <ele>584.4</ele>
        <time>2022-05-20 21:20:13</time>
      </trkpt>
      <trkpt lat="41.4454" lon="1.42506">
        <ele>584.6</ele>
        <time>2022-05-20 21:20:14</time>
      </trkpt>
      <trkpt lat="41.44542" lon="1.42511">
        <ele>584.8</ele>
        <time>2022-05-20 21:20:15</time>
      </trkpt>
      <trkpt lat="41.44543" lon="1.42515">
        <ele>585</ele>
        <time>2022-05-20 21:20:16</time>
      </trkpt>
      <trkpt lat="41.44545" lon="1.4252">
        <ele>585.2</ele>
        <time>2022-05-20 21:20:17</time>
      </trkpt>
      <trkpt lat="41.44547" lon="1.42525">
        <ele>585.6</ele>
        <time>2022-05-20 21:20:18</time>
      </trkpt>
      <trkpt lat="41.44548" lon="1.4253">
        <ele>585.8</ele>
        <time>2022-05-20 21:20:19</time>
      </trkpt>
      <trkpt lat="41.44548" lon="1.42535">
        <ele>586</ele>
        <time>2022-05-20 21:20:20</time>
      </trkpt>
      <trkpt lat="41.44549" lon="1.42541">
        <ele>586.2</ele>
        <time>2022-05-20 21:20:21</time>
      </trkpt>
      <trkpt lat="41.4455" lon="1.42546">
        <ele>586.6</ele>
        <time>2022-05-20 21:20:22</time>
      </trkpt>
      <trkpt lat="41.44551" lon="1.42551">
        <ele>586.8</ele>
        <time>2022-05-20 21:20:23</time>
      </trkpt>
      <trkpt lat="41.44552" lon="1.42556">
        <ele>586.8</ele>
        <time>2022-05-20 21:20:24</time>
      </trkpt>
      <trkpt lat="41.44554" lon="1.42561">
        <ele>587.2</ele>
        <time>2022-05-20 21:20:25</time>
      </trkpt>
      <trkpt lat="41.44556" lon="1.42566">
        <ele>587.2</ele>
        <time>2022-05-20 21:20:26</time>
      </trkpt>
      <trkpt lat="41.44558" lon="1.4257">
        <ele>587.4</ele>
        <time>2022-05-20 21:20:27</time>
      </trkpt>
      <trkpt lat="41.4456" lon="1.42575">
        <ele>587.8</ele>
        <time>2022-05-20 21:20:28</time>
      </trkpt>
      <trkpt lat="41.44562" lon="1.42579">
        <ele>588</ele>
        <time>2022-05-20 21:20:29</time>
      </trkpt>
      <trkpt lat="41.44564" lon="1.42584">
        <ele>588.2</ele>
        <time>2022-05-20 21:20:30</time>
      </trkpt>
      <trkpt lat="41.44565" lon="1.4259">
        <ele>588.4</ele>
        <time>2022-05-20 21:20:31</time>
      </trkpt>
      <trkpt lat="41.44566" lon="1.42595">
        <ele>588.6</ele>
        <time>2022-05-20 21:20:32</time>
      </trkpt>
      <trkpt lat="41.44566" lon="1.426">
        <ele>588.8</ele>
        <time>2022-05-20 21:20:33</time>
      </trkpt>
      <trkpt lat="41.44566" lon="1.42605">
        <ele>589</ele>
        <time>2022-05-20 21:20:34</time>
      </trkpt>
      <trkpt lat="41.44565" lon="1.4261">
        <ele>589.2</ele>
        <time>2022-05-20 21:20:35</time>
      </trkpt>
      <trkpt lat="41.44564" lon="1.42615">
        <ele>589.4</ele>
        <time>2022-05-20 21:20:36</time>
      </trkpt>
      <trkpt lat="41.44563" lon="1.42621">
        <ele>589.6</ele>
        <time>2022-05-20 21:20:37</time>
      </trkpt>
      <trkpt lat="41.44562" lon="1.42626">
        <ele>589.8</ele>
        <time>2022-05-20 21:20:38</time>
      </trkpt>
      <trkpt lat="41.44561" lon="1.42631">
        <ele>590</ele>
        <time>2022-05-20 21:20:39</time>
      </trkpt>
      <trkpt lat="41.4456" lon="1.42636">
        <ele>590.4</ele>
        <time>2022-05-20 21:20:40</time>
      </trkpt>
      <trkpt lat="41.44559" lon="1.4264">
        <ele>590.6</ele>
        <time>2022-05-20 21:20:41</time>
      </trkpt>
      <trkpt lat="41.44558" lon="1.42645">
        <ele>590.8</ele>
        <time>2022-05-20 21:20:42</time>
      </trkpt>
      <trkpt lat="41.44557" lon="1.4265">
        <ele>591</ele>
        <time>2022-05-20 21:20:43</time>
      </trkpt>
      <trkpt lat="41.44556" lon="1.42654">
        <ele>591.2</ele>
        <time>2022-05-20 21:20:44</time>
      </trkpt>
      <trkpt lat="41.44555" lon="1.42658">
        <ele>591.4</ele>
        <time>2022-05-20 21:20:45</time>
      </trkpt>
      <trkpt lat="41.44555" lon="1.42663">
        <ele>591.6</ele>
        <time>2022-05-20 21:20:46</time>
      </trkpt>
      <trkpt lat="41.44555" lon="1.42668">
        <ele>591.8</ele>
        <time>2022-05-20 21:20:47</time>
      </trkpt>
      <trkpt lat="41.44555" lon="1.42674">
        <ele>592</ele>
        <time>2022-05-20 21:20:48</time>
      </trkpt>
      <trkpt lat="41.44556" lon="1.42679">
        <ele>592.2</ele>
        <time>2022-05-20 21:20:49</time>
      </trkpt>
      <trkpt lat="41.44557" lon="1.42683">
        <ele>592.4</ele>
        <time>2022-05-20 21:20:50</time>
      </trkpt>
      <trkpt lat="41.44558" lon="1.42688">
        <ele>592.6</ele>
        <time>2022-05-20 21:20:51</time>
      </trkpt>
      <trkpt lat="41.44559" lon="1.42693">
        <ele>592.8</ele>
        <time>2022-05-20 21:20:52</time>
      </trkpt>
      <trkpt lat="41.44561" lon="1.42697">
        <ele>593</ele>
        <time>2022-05-20 21:20:53</time>
      </trkpt>
      <trkpt lat="41.44563" lon="1.42701">
        <ele>593.2</ele>
        <time>2022-05-20 21:20:54</time>
      </trkpt>
      <trkpt lat="41.44565" lon="1.42705">
        <ele>593.4</ele>
        <time>2022-05-20 21:20:55</time>
      </trkpt>
      <trkpt lat="41.44566" lon="1.42709">
        <ele>593.6</ele>
        <time>2022-05-20 21:20:56</time>
      </trkpt>
      <trkpt lat="41.44569" lon="1.42714">
        <ele>593.8</ele>
        <time>2022-05-20 21:20:57</time>
      </trkpt>
      <trkpt lat="41.44571" lon="1.42718">
        <ele>594</ele>
        <time>2022-05-20 21:20:58</time>
      </trkpt>
      <trkpt lat="41.44573" lon="1.42722">
        <ele>594.2</ele>
        <time>2022-05-20 21:20:59</time>
      </trkpt>
      <trkpt lat="41.44575" lon="1.42727">
        <ele>594.2</ele>
        <time>2022-05-20 21:21:00</time>
      </trkpt>
      <trkpt lat="41.44576" lon="1.42732">
        <ele>594.4</ele>
        <time>2022-05-20 21:21:01</time>
      </trkpt>
      <trkpt lat="41.44577" lon="1.42737">
        <ele>594.6</ele>
        <time>2022-05-20 21:21:02</time>
      </trkpt>
      <trkpt lat="41.44578" lon="1.42742">
        <ele>594.6</ele>
        <time>2022-05-20 21:21:03</time>
      </trkpt>
      <trkpt lat="41.44578" lon="1.42748">
        <ele>594.8</ele>
        <time>2022-05-20 21:21:04</time>
      </trkpt>
      <trkpt lat="41.44578" lon="1.42754">
        <ele>595</ele>
        <time>2022-05-20 21:21:05</time>
      </trkpt>
      <trkpt lat="41.44578" lon="1.42759">
        <ele>595</ele>
        <time>2022-05-20 21:21:06</time>
      </trkpt>
      <trkpt lat="41.44577" lon="1.42764">
        <ele>595.2</ele>
        <time>2022-05-20 21:21:07</time>
      </trkpt>
      <trkpt lat="41.44577" lon="1.4277">
        <ele>595.2</ele>
        <time>2022-05-20 21:21:08</time>
      </trkpt>
      <trkpt lat="41.44576" lon="1.42774">
        <ele>595.4</ele>
        <time>2022-05-20 21:21:09</time>
      </trkpt>
      <trkpt lat="41.44575" lon="1.42779">
        <ele>595.6</ele>
        <time>2022-05-20 21:21:10</time>
      </trkpt>
      <trkpt lat="41.44574" lon="1.42783">
        <ele>595.8</ele>
        <time>2022-05-20 21:21:11</time>
      </trkpt>
      <trkpt lat="41.44573" lon="1.42787">
        <ele>595.8</ele>
        <time>2022-05-20 21:21:12</time>
      </trkpt>
      <trkpt lat="41.44572" lon="1.42791">
        <ele>596</ele>
        <time>2022-05-20 21:21:13</time>
      </trkpt>
      <trkpt lat="41.44572" lon="1.42795">
        <ele>596.2</ele>
        <time>2022-05-20 21:21:14</time>
      </trkpt>
      <trkpt lat="41.44571" lon="1.428">
        <ele>596.4</ele>
        <time>2022-05-20 21:21:15</time>
      </trkpt>
      <trkpt lat="41.44572" lon="1.42805">
        <ele>596.6</ele>
        <time>2022-05-20 21:21:16</time>
      </trkpt>
      <trkpt lat="41.44572" lon="1.4281">
        <ele>597</ele>
        <time>2022-05-20 21:21:17</time>
      </trkpt>
      <trkpt lat="41.44574" lon="1.42815">
        <ele>597.2</ele>
        <time>2022-05-20 21:21:18</time>
      </trkpt>
      <trkpt lat="41.44575" lon="1.4282">
        <ele>597.4</ele>
        <time>2022-05-20 21:21:19</time>
      </trkpt>
      <trkpt lat="41.44576" lon="1.42824">
        <ele>597.6</ele>
        <time>2022-05-20 21:21:20</time>
      </trkpt>
      <trkpt lat="41.44577" lon="1.42829">
        <ele>597.8</ele>
        <time>2022-05-20 21:21:21</time>
      </trkpt>
      <trkpt lat="41.44579" lon="1.42833">
        <ele>598</ele>
        <time>2022-05-20 21:21:22</time>
      </trkpt>
      <trkpt lat="41.4458" lon="1.42837">
        <ele>598.2</ele>
        <time>2022-05-20 21:21:23</time>
      </trkpt>
      <trkpt lat="41.4458" lon="1.42841">
        <ele>598.4</ele>
        <time>2022-05-20 21:21:24</time>
      </trkpt>
      <trkpt lat="41.44581" lon="1.42845">
        <ele>598.6</ele>
        <time>2022-05-20 21:21:25</time>
      </trkpt>
      <trkpt lat="41.44581" lon="1.42849">
        <ele>598.8</ele>
        <time>2022-05-20 21:21:26</time>
      </trkpt>
      <trkpt lat="41.4458" lon="1.42854">
        <ele>599</ele>
        <time>2022-05-20 21:21:27</time>
      </trkpt>
      <trkpt lat="41.44579" lon="1.42858">
        <ele>599.2</ele>
        <time>2022-05-20 21:21:28</time>
      </trkpt>
      <trkpt lat="41.44578" lon="1.42863">
        <ele>599.6</ele>
        <time>2022-05-20 21:21:29</time>
      </trkpt>
      <trkpt lat="41.44576" lon="1.42867">
        <ele>599.8</ele>
        <time>2022-05-20 21:21:30</time>
      </trkpt>
      <trkpt lat="41.44575" lon="1.42871">
        <ele>600.2</ele>
        <time>2022-05-20 21:21:31</time>
      </trkpt>
      <trkpt lat="41.44574" lon="1.42875">
        <ele>600.4</ele>
        <time>2022-05-20 21:21:32</time>
      </trkpt>
      <trkpt lat="41.44572" lon="1.4288">
        <ele>600.6</ele>
        <time>2022-05-20 21:21:33</time>
      </trkpt>
      <trkpt lat="41.44571" lon="1.42884">
        <ele>601</ele>
        <time>2022-05-20 21:21:34</time>
      </trkpt>
      <trkpt lat="41.4457" lon="1.42889">
        <ele>601.2</ele>
        <time>2022-05-20 21:21:35</time>
      </trkpt>
      <trkpt lat="41.44569" lon="1.42893">
        <ele>601.4</ele>
        <time>2022-05-20 21:21:36</time>
      </trkpt>
      <trkpt lat="41.44569" lon="1.42897">
        <ele>601.6</ele>
        <time>2022-05-20 21:21:37</time>
      </trkpt>
      <trkpt lat="41.44569" lon="1.42902">
        <ele>601.8</ele>
        <time>2022-05-20 21:21:38</time>
      </trkpt>
      <trkpt lat="41.44569" lon="1.42907">
        <ele>602.2</ele>
        <time>2022-05-20 21:21:39</time>
      </trkpt>
      <trkpt lat="41.44569" lon="1.42912">
        <ele>602.4</ele>
        <time>2022-05-20 21:21:40</time>
      </trkpt>
      <trkpt lat="41.44569" lon="1.42917">
        <ele>602.6</ele>
        <time>2022-05-20 21:21:41</time>
      </trkpt>
      <trkpt lat="41.4457" lon="1.42922">
        <ele>602.8</ele>
        <time>2022-05-20 21:21:42</time>
      </trkpt>
      <trkpt lat="41.44571" lon="1.42926">
        <ele>603</ele>
        <time>2022-05-20 21:21:43</time>
      </trkpt>
      <trkpt lat="41.44571" lon="1.42931">
        <ele>603.2</ele>
        <time>2022-05-20 21:21:44</time>
      </trkpt>
      <trkpt lat="41.44572" lon="1.42935">
        <ele>603.4</ele>
        <time>2022-05-20 21:21:45</time>
      </trkpt>
      <trkpt lat="41.44574" lon="1.4294">
        <ele>603.6</ele>
        <time>2022-05-20 21:21:46</time>
      </trkpt>
      <trkpt lat="41.44575" lon="1.42944">
        <ele>603.8</ele>
        <time>2022-05-20 21:21:47</time>
      </trkpt>
      <trkpt lat="41.44577" lon="1.42948">
        <ele>604</ele>
        <time>2022-05-20 21:21:48</time>
      </trkpt>
      <trkpt lat="41.44578" lon="1.42952">
        <ele>604.2</ele>
        <time>2022-05-20 21:21:49</time>
      </trkpt>
      <trkpt lat="41.4458" lon="1.42956">
        <ele>604.4</ele>
        <time>2022-05-20 21:21:50</time>
      </trkpt>
      <trkpt lat="41.44581" lon="1.4296">
        <ele>604.6</ele>
        <time>2022-05-20 21:21:51</time>
      </trkpt>
      <trkpt lat="41.44583" lon="1.42963">
        <ele>604.8</ele>
        <time>2022-05-20 21:21:52</time>
      </trkpt>
      <trkpt lat="41.44584" lon="1.42968">
        <ele>605</ele>
        <time>2022-05-20 21:21:53</time>
      </trkpt>
      <trkpt lat="41.44585" lon="1.42972">
        <ele>605.2</ele>
        <time>2022-05-20 21:21:54</time>
      </trkpt>
      <trkpt lat="41.44587" lon="1.42977">
        <ele>605.4</ele>
        <time>2022-05-20 21:21:55</time>
      </trkpt>
      <trkpt lat="41.44588" lon="1.42981">
        <ele>605.6</ele>
        <time>2022-05-20 21:21:56</time>
      </trkpt>
      <trkpt lat="41.4459" lon="1.42985">
        <ele>605.6</ele>
        <time>2022-05-20 21:21:57</time>
      </trkpt>
      <trkpt lat="41.44592" lon="1.42989">
        <ele>605.8</ele>
        <time>2022-05-20 21:21:58</time>
      </trkpt>
      <trkpt lat="41.44593" lon="1.42994">
        <ele>606</ele>
        <time>2022-05-20 21:21:59</time>
      </trkpt>
      <trkpt lat="41.44595" lon="1.42998">
        <ele>606</ele>
        <time>2022-05-20 21:22:00</time>
      </trkpt>
      <trkpt lat="41.44596" lon="1.43003">
        <ele>606.2</ele>
        <time>2022-05-20 21:22:01</time>
      </trkpt>
      <trkpt lat="41.44597" lon="1.43007">
        <ele>606.4</ele>
        <time>2022-05-20 21:22:02</time>
      </trkpt>
      <trkpt lat="41.44598" lon="1.43012">
        <ele>606.4</ele>
        <time>2022-05-20 21:22:03</time>
      </trkpt>
      <trkpt lat="41.44599" lon="1.43017">
        <ele>606.6</ele>
        <time>2022-05-20 21:22:04</time>
      </trkpt>
      <trkpt lat="41.446" lon="1.43022">
        <ele>606.8</ele>
        <time>2022-05-20 21:22:05</time>
      </trkpt>
      <trkpt lat="41.446" lon="1.43028">
        <ele>606.8</ele>
        <time>2022-05-20 21:22:06</time>
      </trkpt>
      <trkpt lat="41.44601" lon="1.43033">
        <ele>607</ele>
        <time>2022-05-20 21:22:07</time>
      </trkpt>
      <trkpt lat="41.44601" lon="1.43038">
        <ele>607.2</ele>
        <time>2022-05-20 21:22:08</time>
      </trkpt>
      <trkpt lat="41.44601" lon="1.43043">
        <ele>607.4</ele>
        <time>2022-05-20 21:22:09</time>
      </trkpt>
      <trkpt lat="41.44602" lon="1.43049">
        <ele>607.4</ele>
        <time>2022-05-20 21:22:10</time>
      </trkpt>
      <trkpt lat="41.44602" lon="1.43054">
        <ele>607.6</ele>
        <time>2022-05-20 21:22:11</time>
      </trkpt>
      <trkpt lat="41.44602" lon="1.43059">
        <ele>607.8</ele>
        <time>2022-05-20 21:22:12</time>
      </trkpt>
      <trkpt lat="41.44603" lon="1.43064">
        <ele>607.8</ele>
        <time>2022-05-20 21:22:13</time>
      </trkpt>
      <trkpt lat="41.44603" lon="1.43069">
        <ele>608</ele>
        <time>2022-05-20 21:22:14</time>
      </trkpt>
      <trkpt lat="41.44604" lon="1.43075">
        <ele>608.2</ele>
        <time>2022-05-20 21:22:15</time>
      </trkpt>
      <trkpt lat="41.44605" lon="1.4308">
        <ele>608.2</ele>
        <time>2022-05-20 21:22:16</time>
      </trkpt>
      <trkpt lat="41.44608" lon="1.43086">
        <ele>608.4</ele>
        <time>2022-05-20 21:22:17</time>
      </trkpt>
      <trkpt lat="41.4461" lon="1.43091">
        <ele>608.4</ele>
        <time>2022-05-20 21:22:18</time>
      </trkpt>
      <trkpt lat="41.44613" lon="1.43095">
        <ele>608.6</ele>
        <time>2022-05-20 21:22:19</time>
      </trkpt>
      <trkpt lat="41.44617" lon="1.43098">
        <ele>608.6</ele>
        <time>2022-05-20 21:22:20</time>
      </trkpt>
      <trkpt lat="41.44621" lon="1.431">
        <ele>608.8</ele>
        <time>2022-05-20 21:22:21</time>
      </trkpt>
      <trkpt lat="41.44624" lon="1.43102">
        <ele>608.8</ele>
        <time>2022-05-20 21:22:22</time>
      </trkpt>
      <trkpt lat="41.4463" lon="1.43103">
        <ele>609</ele>
        <time>2022-05-20 21:22:23</time>
      </trkpt>
      <trkpt lat="41.44635" lon="1.43103">
        <ele>609</ele>
        <time>2022-05-20 21:22:24</time>
      </trkpt>
      <trkpt lat="41.4464" lon="1.43103">
        <ele>609.2</ele>
        <time>2022-05-20 21:22:25</time>
      </trkpt>
      <trkpt lat="41.44644" lon="1.43103">
        <ele>609.4</ele>
        <time>2022-05-20 21:22:26</time>
      </trkpt>
      <trkpt lat="41.44649" lon="1.43104">
        <ele>609.6</ele>
        <time>2022-05-20 21:22:27</time>
      </trkpt>
      <trkpt lat="41.44653" lon="1.43105">
        <ele>609.6</ele>
        <time>2022-05-20 21:22:28</time>
      </trkpt>
      <trkpt lat="41.44657" lon="1.43109">
        <ele>609.8</ele>
        <time>2022-05-20 21:22:29</time>
      </trkpt>
      <trkpt lat="41.4466" lon="1.43113">
        <ele>609.8</ele>
        <time>2022-05-20 21:22:30</time>
      </trkpt>
      <trkpt lat="41.44661" lon="1.43117">
        <ele>610</ele>
        <time>2022-05-20 21:22:31</time>
      </trkpt>
      <trkpt lat="41.44662" lon="1.43122">
        <ele>610</ele>
        <time>2022-05-20 21:22:32</time>
      </trkpt>
      <trkpt lat="41.44661" lon="1.43127">
        <ele>610.2</ele>
        <time>2022-05-20 21:22:33</time>
      </trkpt>
      <trkpt lat="41.4466" lon="1.43132">
        <ele>610.4</ele>
        <time>2022-05-20 21:22:34</time>
      </trkpt>
      <trkpt lat="41.44658" lon="1.43136">
        <ele>610.4</ele>
        <time>2022-05-20 21:22:35</time>
      </trkpt>
      <trkpt lat="41.44656" lon="1.4314">
        <ele>610.6</ele>
        <time>2022-05-20 21:22:36</time>
      </trkpt>
      <trkpt lat="41.44654" lon="1.43144">
        <ele>610.8</ele>
        <time>2022-05-20 21:22:37</time>
      </trkpt>
      <trkpt lat="41.44652" lon="1.43149">
        <ele>611</ele>
        <time>2022-05-20 21:22:38</time>
      </trkpt>
      <trkpt lat="41.44649" lon="1.43153">
        <ele>611.2</ele>
        <time>2022-05-20 21:22:39</time>
      </trkpt>
      <trkpt lat="41.44646" lon="1.43157">
        <ele>611.4</ele>
        <time>2022-05-20 21:22:40</time>
      </trkpt>
      <trkpt lat="41.44644" lon="1.43162">
        <ele>611.4</ele>
        <time>2022-05-20 21:22:41</time>
      </trkpt>
      <trkpt lat="41.44641" lon="1.43166">
        <ele>611.6</ele>
        <time>2022-05-20 21:22:42</time>
      </trkpt>
      <trkpt lat="41.44639" lon="1.43171">
        <ele>611.6</ele>
        <time>2022-05-20 21:22:43</time>
      </trkpt>
      <trkpt lat="41.44636" lon="1.43176">
        <ele>611.8</ele>
        <time>2022-05-20 21:22:44</time>
      </trkpt>
      <trkpt lat="41.44633" lon="1.43181">
        <ele>612</ele>
        <time>2022-05-20 21:22:45</time>
      </trkpt>
      <trkpt lat="41.4463" lon="1.43186">
        <ele>612</ele>
        <time>2022-05-20 21:22:46</time>
      </trkpt>
      <trkpt lat="41.44628" lon="1.43191">
        <ele>612</ele>
        <time>2022-05-20 21:22:47</time>
      </trkpt>
      <trkpt lat="41.44625" lon="1.43196">
        <ele>612.2</ele>
        <time>2022-05-20 21:22:48</time>
      </trkpt>
      <trkpt lat="41.44622" lon="1.43202">
        <ele>612.2</ele>
        <time>2022-05-20 21:22:49</time>
      </trkpt>
      <trkpt lat="41.44619" lon="1.43208">
        <ele>612.4</ele>
        <time>2022-05-20 21:22:50</time>
      </trkpt>
      <trkpt lat="41.44616" lon="1.43214">
        <ele>612.6</ele>
        <time>2022-05-20 21:22:51</time>
      </trkpt>
      <trkpt lat="41.44613" lon="1.4322">
        <ele>612.6</ele>
        <time>2022-05-20 21:22:52</time>
      </trkpt>
      <trkpt lat="41.44611" lon="1.43225">
        <ele>612.8</ele>
        <time>2022-05-20 21:22:53</time>
      </trkpt>
      <trkpt lat="41.44608" lon="1.4323">
        <ele>612.8</ele>
        <time>2022-05-20 21:22:54</time>
      </trkpt>
      <trkpt lat="41.44605" lon="1.43235">
        <ele>613</ele>
        <time>2022-05-20 21:22:55</time>
      </trkpt>
      <trkpt lat="41.44603" lon="1.4324">
        <ele>613.2</ele>
        <time>2022-05-20 21:22:56</time>
      </trkpt>
      <trkpt lat="41.44601" lon="1.43246">
        <ele>613.2</ele>
        <time>2022-05-20 21:22:57</time>
      </trkpt>
      <trkpt lat="41.446" lon="1.43252">
        <ele>613.4</ele>
        <time>2022-05-20 21:22:58</time>
      </trkpt>
      <trkpt lat="41.446" lon="1.43258">
        <ele>613.6</ele>
        <time>2022-05-20 21:22:59</time>
      </trkpt>
      <trkpt lat="41.446" lon="1.43264">
        <ele>613.8</ele>
        <time>2022-05-20 21:23:00</time>
      </trkpt>
      <trkpt lat="41.446" lon="1.4327">
        <ele>613.8</ele>
        <time>2022-05-20 21:23:01</time>
      </trkpt>
      <trkpt lat="41.44601" lon="1.43276">
        <ele>614</ele>
        <time>2022-05-20 21:23:02</time>
      </trkpt>
      <trkpt lat="41.44601" lon="1.43281">
        <ele>614.2</ele>
        <time>2022-05-20 21:23:03</time>
      </trkpt>
      <trkpt lat="41.44602" lon="1.43287">
        <ele>614.2</ele>
        <time>2022-05-20 21:23:04</time>
      </trkpt>
      <trkpt lat="41.44603" lon="1.43293">
        <ele>614.4</ele>
        <time>2022-05-20 21:23:05</time>
      </trkpt>
      <trkpt lat="41.44604" lon="1.43298">
        <ele>614.4</ele>
        <time>2022-05-20 21:23:06</time>
      </trkpt>
      <trkpt lat="41.44605" lon="1.43303">
        <ele>614.6</ele>
        <time>2022-05-20 21:23:07</time>
      </trkpt>
      <trkpt lat="41.44607" lon="1.43307">
        <ele>614.6</ele>
        <time>2022-05-20 21:23:08</time>
      </trkpt>
      <trkpt lat="41.44608" lon="1.43313">
        <ele>614.8</ele>
        <time>2022-05-20 21:23:09</time>
      </trkpt>
      <trkpt lat="41.4461" lon="1.43318">
        <ele>614.8</ele>
        <time>2022-05-20 21:23:10</time>
      </trkpt>
      <trkpt lat="41.44611" lon="1.43324">
        <ele>614.8</ele>
        <time>2022-05-20 21:23:11</time>
      </trkpt>
      <trkpt lat="41.44613" lon="1.43329">
        <ele>615</ele>
        <time>2022-05-20 21:23:12</time>
      </trkpt>
      <trkpt lat="41.44614" lon="1.43334">
        <ele>615</ele>
        <time>2022-05-20 21:23:13</time>
      </trkpt>
      <trkpt lat="41.44615" lon="1.43339">
        <ele>615</ele>
        <time>2022-05-20 21:23:14</time>
      </trkpt>
      <trkpt lat="41.44616" lon="1.43345">
        <ele>615.2</ele>
        <time>2022-05-20 21:23:15</time>
      </trkpt>
      <trkpt lat="41.44616" lon="1.43351">
        <ele>615.2</ele>
        <time>2022-05-20 21:23:16</time>
      </trkpt>
      <trkpt lat="41.44616" lon="1.43357">
        <ele>615.2</ele>
        <time>2022-05-20 21:23:17</time>
      </trkpt>
      <trkpt lat="41.44614" lon="1.43364">
        <ele>615.4</ele>
        <time>2022-05-20 21:23:18</time>
      </trkpt>
      <trkpt lat="41.44613" lon="1.4337">
        <ele>615.4</ele>
        <time>2022-05-20 21:23:19</time>
      </trkpt>
      <trkpt lat="41.44611" lon="1.43375">
        <ele>615.6</ele>
        <time>2022-05-20 21:23:20</time>
      </trkpt>
      <trkpt lat="41.4461" lon="1.4338">
        <ele>615.6</ele>
        <time>2022-05-20 21:23:21</time>
      </trkpt>
      <trkpt lat="41.44608" lon="1.43385">
        <ele>615.6</ele>
        <time>2022-05-20 21:23:22</time>
      </trkpt>
      <trkpt lat="41.44606" lon="1.4339">
        <ele>615.8</ele>
        <time>2022-05-20 21:23:23</time>
      </trkpt>
      <trkpt lat="41.44602" lon="1.43395">
        <ele>616</ele>
        <time>2022-05-20 21:23:24</time>
      </trkpt>
      <trkpt lat="41.44598" lon="1.43399">
        <ele>616</ele>
        <time>2022-05-20 21:23:25</time>
      </trkpt>
      <trkpt lat="41.44594" lon="1.43401">
        <ele>616.2</ele>
        <time>2022-05-20 21:23:26</time>
      </trkpt>
      <trkpt lat="41.44589" lon="1.43403">
        <ele>616.4</ele>
        <time>2022-05-20 21:23:27</time>
      </trkpt>
      <trkpt lat="41.44584" lon="1.43403">
        <ele>616.6</ele>
        <time>2022-05-20 21:23:28</time>
      </trkpt>
      <trkpt lat="41.44579" lon="1.43403">
        <ele>616.8</ele>
        <time>2022-05-20 21:23:29</time>
      </trkpt>
      <trkpt lat="41.44574" lon="1.43404">
        <ele>617</ele>
        <time>2022-05-20 21:23:30</time>
      </trkpt>
      <trkpt lat="41.4457" lon="1.43404">
        <ele>617.2</ele>
        <time>2022-05-20 21:23:31</time>
      </trkpt>
      <trkpt lat="41.44565" lon="1.43406">
        <ele>617.4</ele>
        <time>2022-05-20 21:23:32</time>
      </trkpt>
      <trkpt lat="41.44561" lon="1.43409">
        <ele>617.6</ele>
        <time>2022-05-20 21:23:33</time>
      </trkpt>
      <trkpt lat="41.44557" lon="1.43413">
        <ele>618</ele>
        <time>2022-05-20 21:23:34</time>
      </trkpt>
      <trkpt lat="41.44554" lon="1.43418">
        <ele>618.2</ele>
        <time>2022-05-20 21:23:35</time>
      </trkpt>
      <trkpt lat="41.44551" lon="1.43423">
        <ele>618.4</ele>
        <time>2022-05-20 21:23:36</time>
      </trkpt>
      <trkpt lat="41.44548" lon="1.43429">
        <ele>618.6</ele>
        <time>2022-05-20 21:23:37</time>
      </trkpt>
      <trkpt lat="41.44545" lon="1.43434">
        <ele>618.8</ele>
        <time>2022-05-20 21:23:38</time>
      </trkpt>
      <trkpt lat="41.44543" lon="1.4344">
        <ele>619</ele>
        <time>2022-05-20 21:23:39</time>
      </trkpt>
      <trkpt lat="41.44541" lon="1.43445">
        <ele>619.2</ele>
        <time>2022-05-20 21:23:40</time>
      </trkpt>
      <trkpt lat="41.44538" lon="1.43451">
        <ele>619.4</ele>
        <time>2022-05-20 21:23:41</time>
      </trkpt>
      <trkpt lat="41.44536" lon="1.43456">
        <ele>619.6</ele>
        <time>2022-05-20 21:23:42</time>
      </trkpt>
      <trkpt lat="41.44534" lon="1.43461">
        <ele>619.8</ele>
        <time>2022-05-20 21:23:43</time>
      </trkpt>
      <trkpt lat="41.44532" lon="1.43466">
        <ele>620</ele>
        <time>2022-05-20 21:23:44</time>
      </trkpt>
      <trkpt lat="41.4453" lon="1.43471">
        <ele>620.2</ele>
        <time>2022-05-20 21:23:45</time>
      </trkpt>
      <trkpt lat="41.44528" lon="1.43475">
        <ele>620.4</ele>
        <time>2022-05-20 21:23:46</time>
      </trkpt>
      <trkpt lat="41.44526" lon="1.43481">
        <ele>620.8</ele>
        <time>2022-05-20 21:23:47</time>
      </trkpt>
      <trkpt lat="41.44524" lon="1.43486">
        <ele>621</ele>
        <time>2022-05-20 21:23:48</time>
      </trkpt>
      <trkpt lat="41.44522" lon="1.43491">
        <ele>621.2</ele>
        <time>2022-05-20 21:23:49</time>
      </trkpt>
      <trkpt lat="41.44519" lon="1.43497">
        <ele>621.4</ele>
        <time>2022-05-20 21:23:50</time>
      </trkpt>
      <trkpt lat="41.44517" lon="1.43503">
        <ele>621.6</ele>
        <time>2022-05-20 21:23:51</time>
      </trkpt>
      <trkpt lat="41.44514" lon="1.43508">
        <ele>621.6</ele>
        <time>2022-05-20 21:23:52</time>
      </trkpt>
      <trkpt lat="41.44513" lon="1.43513">
        <ele>621.8</ele>
        <time>2022-05-20 21:23:53</time>
      </trkpt>
      <trkpt lat="41.44511" lon="1.43519">
        <ele>622</ele>
        <time>2022-05-20 21:23:54</time>
      </trkpt>
      <trkpt lat="41.4451" lon="1.43524">
        <ele>622.2</ele>
        <time>2022-05-20 21:23:55</time>
      </trkpt>
      <trkpt lat="41.44509" lon="1.43529">
        <ele>622.4</ele>
        <time>2022-05-20 21:23:56</time>
      </trkpt>
      <trkpt lat="41.44508" lon="1.43534">
        <ele>622.6</ele>
        <time>2022-05-20 21:23:57</time>
      </trkpt>
      <trkpt lat="41.44507" lon="1.43539">
        <ele>622.8</ele>
        <time>2022-05-20 21:23:58</time>
      </trkpt>
      <trkpt lat="41.44506" lon="1.43544">
        <ele>623</ele>
        <time>2022-05-20 21:23:59</time>
      </trkpt>
      <trkpt lat="41.44505" lon="1.43549">
        <ele>623.2</ele>
        <time>2022-05-20 21:24:00</time>
      </trkpt>
      <trkpt lat="41.44505" lon="1.43555">
        <ele>623.4</ele>
        <time>2022-05-20 21:24:01</time>
      </trkpt>
      <trkpt lat="41.44505" lon="1.43561">
        <ele>623.6</ele>
        <time>2022-05-20 21:24:02</time>
      </trkpt>
      <trkpt lat="41.44504" lon="1.43566">
        <ele>624</ele>
        <time>2022-05-20 21:24:03</time>
      </trkpt>
      <trkpt lat="41.44503" lon="1.43571">
        <ele>624.2</ele>
        <time>2022-05-20 21:24:04</time>
      </trkpt>
      <trkpt lat="41.44503" lon="1.43577">
        <ele>624.4</ele>
        <time>2022-05-20 21:24:05</time>
      </trkpt>
      <trkpt lat="41.44501" lon="1.43582">
        <ele>624.6</ele>
        <time>2022-05-20 21:24:06</time>
      </trkpt>
      <trkpt lat="41.445" lon="1.43588">
        <ele>624.8</ele>
        <time>2022-05-20 21:24:07</time>
      </trkpt>
      <trkpt lat="41.44499" lon="1.43593">
        <ele>625.2</ele>
        <time>2022-05-20 21:24:08</time>
      </trkpt>
      <trkpt lat="41.44497" lon="1.43598">
        <ele>625.4</ele>
        <time>2022-05-20 21:24:09</time>
      </trkpt>
      <trkpt lat="41.44496" lon="1.43603">
        <ele>625.6</ele>
        <time>2022-05-20 21:24:10</time>
      </trkpt>
      <trkpt lat="41.44494" lon="1.43608">
        <ele>626</ele>
        <time>2022-05-20 21:24:11</time>
      </trkpt>
      <trkpt lat="41.44493" lon="1.43613">
        <ele>626.2</ele>
        <time>2022-05-20 21:24:12</time>
      </trkpt>
      <trkpt lat="41.44492" lon="1.43619">
        <ele>626.4</ele>
        <time>2022-05-20 21:24:13</time>
      </trkpt>
      <trkpt lat="41.44492" lon="1.43624">
        <ele>626.6</ele>
        <time>2022-05-20 21:24:14</time>
      </trkpt>
      <trkpt lat="41.44491" lon="1.43629">
        <ele>626.8</ele>
        <time>2022-05-20 21:24:15</time>
      </trkpt>
      <trkpt lat="41.44491" lon="1.43635">
        <ele>627</ele>
        <time>2022-05-20 21:24:16</time>
      </trkpt>
      <trkpt lat="41.44491" lon="1.43641">
        <ele>627.2</ele>
        <time>2022-05-20 21:24:17</time>
      </trkpt>
      <trkpt lat="41.44491" lon="1.43647">
        <ele>627.6</ele>
        <time>2022-05-20 21:24:18</time>
      </trkpt>
      <trkpt lat="41.44492" lon="1.43653">
        <ele>627.6</ele>
        <time>2022-05-20 21:24:19</time>
      </trkpt>
      <trkpt lat="41.44494" lon="1.43658">
        <ele>627.8</ele>
        <time>2022-05-20 21:24:20</time>
      </trkpt>
      <trkpt lat="41.44495" lon="1.43664">
        <ele>628</ele>
        <time>2022-05-20 21:24:21</time>
      </trkpt>
      <trkpt lat="41.44497" lon="1.4367">
        <ele>628.2</ele>
        <time>2022-05-20 21:24:22</time>
      </trkpt>
      <trkpt lat="41.44498" lon="1.43676">
        <ele>628.4</ele>
        <time>2022-05-20 21:24:23</time>
      </trkpt>
      <trkpt lat="41.445" lon="1.43682">
        <ele>628.4</ele>
        <time>2022-05-20 21:24:24</time>
      </trkpt>
      <trkpt lat="41.445" lon="1.43688">
        <ele>628.6</ele>
        <time>2022-05-20 21:24:25</time>
      </trkpt>
      <trkpt lat="41.44501" lon="1.43694">
        <ele>628.8</ele>
        <time>2022-05-20 21:24:26</time>
      </trkpt>
      <trkpt lat="41.445" lon="1.43701">
        <ele>628.8</ele>
        <time>2022-05-20 21:24:27</time>
      </trkpt>
      <trkpt lat="41.445" lon="1.43708">
        <ele>629</ele>
        <time>2022-05-20 21:24:28</time>
      </trkpt>
      <trkpt lat="41.44498" lon="1.43715">
        <ele>629</ele>
        <time>2022-05-20 21:24:29</time>
      </trkpt>
      <trkpt lat="41.44497" lon="1.43721">
        <ele>629</ele>
        <time>2022-05-20 21:24:30</time>
      </trkpt>
      <trkpt lat="41.44496" lon="1.43729">
        <ele>629.2</ele>
        <time>2022-05-20 21:24:31</time>
      </trkpt>
      <trkpt lat="41.44495" lon="1.43736">
        <ele>629.2</ele>
        <time>2022-05-20 21:24:32</time>
      </trkpt>
      <trkpt lat="41.44496" lon="1.43743">
        <ele>629.2</ele>
        <time>2022-05-20 21:24:33</time>
      </trkpt>
      <trkpt lat="41.44498" lon="1.43749">
        <ele>629.4</ele>
        <time>2022-05-20 21:24:34</time>
      </trkpt>
      <trkpt lat="41.445" lon="1.43756">
        <ele>629.4</ele>
        <time>2022-05-20 21:24:35</time>
      </trkpt>
      <trkpt lat="41.44503" lon="1.43762">
        <ele>629.6</ele>
        <time>2022-05-20 21:24:36</time>
      </trkpt>
      <trkpt lat="41.44506" lon="1.43768">
        <ele>629.6</ele>
        <time>2022-05-20 21:24:37</time>
      </trkpt>
      <trkpt lat="41.44509" lon="1.43774">
        <ele>629.6</ele>
        <time>2022-05-20 21:24:38</time>
      </trkpt>
      <trkpt lat="41.44513" lon="1.43779">
        <ele>629.6</ele>
        <time>2022-05-20 21:24:39</time>
      </trkpt>
      <trkpt lat="41.44516" lon="1.43785">
        <ele>629.6</ele>
        <time>2022-05-20 21:24:40</time>
      </trkpt>
      <trkpt lat="41.4452" lon="1.4379">
        <ele>629.8</ele>
        <time>2022-05-20 21:24:41</time>
      </trkpt>
      <trkpt lat="41.44523" lon="1.43796">
        <ele>629.8</ele>
        <time>2022-05-20 21:24:42</time>
      </trkpt>
      <trkpt lat="41.44527" lon="1.43801">
        <ele>629.8</ele>
        <time>2022-05-20 21:24:43</time>
      </trkpt>
      <trkpt lat="41.4453" lon="1.43807">
        <ele>630</ele>
        <time>2022-05-20 21:24:44</time>
      </trkpt>
      <trkpt lat="41.44534" lon="1.43812">
        <ele>630</ele>
        <time>2022-05-20 21:24:45</time>
      </trkpt>
      <trkpt lat="41.44537" lon="1.43818">
        <ele>630.2</ele>
        <time>2022-05-20 21:24:46</time>
      </trkpt>
      <trkpt lat="41.4454" lon="1.43824">
        <ele>630.2</ele>
        <time>2022-05-20 21:24:47</time>
      </trkpt>
      <trkpt lat="41.44542" lon="1.43831">
        <ele>630.2</ele>
        <time>2022-05-20 21:24:48</time>
      </trkpt>
      <trkpt lat="41.44541" lon="1.43838">
        <ele>630.4</ele>
        <time>2022-05-20 21:24:49</time>
      </trkpt>
      <trkpt lat="41.44539" lon="1.43844">
        <ele>630.6</ele>
        <time>2022-05-20 21:24:50</time>
      </trkpt>
      <trkpt lat="41.44535" lon="1.4385">
        <ele>630.6</ele>
        <time>2022-05-20 21:24:51</time>
      </trkpt>
      <trkpt lat="41.44531" lon="1.43853">
        <ele>630.8</ele>
        <time>2022-05-20 21:24:52</time>
      </trkpt>
      <trkpt lat="41.44526" lon="1.43855">
        <ele>631</ele>
        <time>2022-05-20 21:24:53</time>
      </trkpt>
      <trkpt lat="41.44521" lon="1.43855">
        <ele>631.2</ele>
        <time>2022-05-20 21:24:54</time>
      </trkpt>
      <trkpt lat="41.44516" lon="1.43856">
        <ele>631.2</ele>
        <time>2022-05-20 21:24:55</time>
      </trkpt>
      <trkpt lat="41.4451" lon="1.43856">
        <ele>631.4</ele>
        <time>2022-05-20 21:24:56</time>
      </trkpt>
      <trkpt lat="41.44505" lon="1.43856">
        <ele>631.6</ele>
        <time>2022-05-20 21:24:57</time>
      </trkpt>
      <trkpt lat="41.445" lon="1.43856">
        <ele>631.6</ele>
        <time>2022-05-20 21:24:58</time>
      </trkpt>
      <trkpt lat="41.44494" lon="1.43857">
        <ele>631.8</ele>
        <time>2022-05-20 21:24:59</time>
      </trkpt>
      <trkpt lat="41.44489" lon="1.43858">
        <ele>632</ele>
        <time>2022-05-20 21:25:00</time>
      </trkpt>
      <trkpt lat="41.44483" lon="1.4386">
        <ele>632.2</ele>
        <time>2022-05-20 21:25:01</time>
      </trkpt>
      <trkpt lat="41.44479" lon="1.43864">
        <ele>632.4</ele>
        <time>2022-05-20 21:25:02</time>
      </trkpt>
      <trkpt lat="41.44475" lon="1.4387">
        <ele>632.4</ele>
        <time>2022-05-20 21:25:03</time>
      </trkpt>
      <trkpt lat="41.44473" lon="1.43877">
        <ele>632.6</ele>
        <time>2022-05-20 21:25:04</time>
      </trkpt>
      <trkpt lat="41.44471" lon="1.43885">
        <ele>632.6</ele>
        <time>2022-05-20 21:25:05</time>
      </trkpt>
      <trkpt lat="41.44469" lon="1.43892">
        <ele>632.8</ele>
        <time>2022-05-20 21:25:06</time>
      </trkpt>
      <trkpt lat="41.44467" lon="1.43899">
        <ele>632.8</ele>
        <time>2022-05-20 21:25:07</time>
      </trkpt>
      <trkpt lat="41.44465" lon="1.43906">
        <ele>632.8</ele>
        <time>2022-05-20 21:25:08</time>
      </trkpt>
      <trkpt lat="41.44463" lon="1.43912">
        <ele>633</ele>
        <time>2022-05-20 21:25:09</time>
      </trkpt>
      <trkpt lat="41.44461" lon="1.4392">
        <ele>633</ele>
        <time>2022-05-20 21:25:10</time>
      </trkpt>
      <trkpt lat="41.44459" lon="1.43927">
        <ele>633</ele>
        <time>2022-05-20 21:25:11</time>
      </trkpt>
      <trkpt lat="41.44457" lon="1.43933">
        <ele>633</ele>
        <time>2022-05-20 21:25:12</time>
      </trkpt>
      <trkpt lat="41.44454" lon="1.4394">
        <ele>633.2</ele>
        <time>2022-05-20 21:25:13</time>
      </trkpt>
      <trkpt lat="41.44451" lon="1.43946">
        <ele>633.2</ele>
        <time>2022-05-20 21:25:14</time>
      </trkpt>
      <trkpt lat="41.44447" lon="1.43951">
        <ele>633.4</ele>
        <time>2022-05-20 21:25:15</time>
      </trkpt>
      <trkpt lat="41.44443" lon="1.43956">
        <ele>633.8</ele>
        <time>2022-05-20 21:25:16</time>
      </trkpt>
      <trkpt lat="41.44439" lon="1.4396">
        <ele>634</ele>
        <time>2022-05-20 21:25:17</time>
      </trkpt>
      <trkpt lat="41.44434" lon="1.43964">
        <ele>634.4</ele>
        <time>2022-05-20 21:25:18</time>
      </trkpt>
      <trkpt lat="41.44431" lon="1.43968">
        <ele>634.8</ele>
        <time>2022-05-20 21:25:19</time>
      </trkpt>
      <trkpt lat="41.44427" lon="1.43972">
        <ele>635</ele>
        <time>2022-05-20 21:25:20</time>
      </trkpt>
      <trkpt lat="41.44424" lon="1.43977">
        <ele>635.4</ele>
        <time>2022-05-20 21:25:21</time>
      </trkpt>
      <trkpt lat="41.44422" lon="1.43982">
        <ele>635.6</ele>
        <time>2022-05-20 21:25:22</time>
      </trkpt>
      <trkpt lat="41.4442" lon="1.43988">
        <ele>635.8</ele>
        <time>2022-05-20 21:25:23</time>
      </trkpt>
      <trkpt lat="41.44418" lon="1.43994">
        <ele>636</ele>
        <time>2022-05-20 21:25:24</time>
      </trkpt>
      <trkpt lat="41.44418" lon="1.44">
        <ele>636.2</ele>
        <time>2022-05-20 21:25:25</time>
      </trkpt>
      <trkpt lat="41.44418" lon="1.44006">
        <ele>636.6</ele>
        <time>2022-05-20 21:25:26</time>
      </trkpt>
      <trkpt lat="41.44418" lon="1.44012">
        <ele>636.8</ele>
        <time>2022-05-20 21:25:27</time>
      </trkpt>
      <trkpt lat="41.44419" lon="1.44018">
        <ele>637</ele>
        <time>2022-05-20 21:25:28</time>
      </trkpt>
      <trkpt lat="41.44421" lon="1.44024">
        <ele>637.2</ele>
        <time>2022-05-20 21:25:29</time>
      </trkpt>
      <trkpt lat="41.44424" lon="1.4403">
        <ele>637.2</ele>
        <time>2022-05-20 21:25:30</time>
      </trkpt>
      <trkpt lat="41.44426" lon="1.44036">
        <ele>637.4</ele>
        <time>2022-05-20 21:25:31</time>
      </trkpt>
      <trkpt lat="41.44429" lon="1.44042">
        <ele>637.4</ele>
        <time>2022-05-20 21:25:32</time>
      </trkpt>
      <trkpt lat="41.44432" lon="1.44048">
        <ele>637.4</ele>
        <time>2022-05-20 21:25:33</time>
      </trkpt>
      <trkpt lat="41.44435" lon="1.44054">
        <ele>637.4</ele>
        <time>2022-05-20 21:25:34</time>
      </trkpt>
      <trkpt lat="41.44439" lon="1.4406">
        <ele>637.4</ele>
        <time>2022-05-20 21:25:35</time>
      </trkpt>
      <trkpt lat="41.44444" lon="1.44065">
        <ele>637.4</ele>
        <time>2022-05-20 21:25:36</time>
      </trkpt>
      <trkpt lat="41.44449" lon="1.44069">
        <ele>637.2</ele>
        <time>2022-05-20 21:25:37</time>
      </trkpt>
      <trkpt lat="41.44455" lon="1.44072">
        <ele>637.2</ele>
        <time>2022-05-20 21:25:38</time>
      </trkpt>
      <trkpt lat="41.44461" lon="1.44076">
        <ele>637</ele>
        <time>2022-05-20 21:25:39</time>
      </trkpt>
      <trkpt lat="41.44467" lon="1.44079">
        <ele>637</ele>
        <time>2022-05-20 21:25:40</time>
      </trkpt>
      <trkpt lat="41.44474" lon="1.44085">
        <ele>636.8</ele>
        <time>2022-05-20 21:25:41</time>
      </trkpt>
      <trkpt lat="41.44479" lon="1.44091">
        <ele>636.6</ele>
        <time>2022-05-20 21:25:42</time>
      </trkpt>
      <trkpt lat="41.44485" lon="1.44097">
        <ele>636.4</ele>
        <time>2022-05-20 21:25:43</time>
      </trkpt>
      <trkpt lat="41.4449" lon="1.44103">
        <ele>636.4</ele>
        <time>2022-05-20 21:25:44</time>
      </trkpt>
      <trkpt lat="41.44493" lon="1.44111">
        <ele>636.4</ele>
        <time>2022-05-20 21:25:45</time>
      </trkpt>
      <trkpt lat="41.44497" lon="1.4412">
        <ele>636.2</ele>
        <time>2022-05-20 21:25:46</time>
      </trkpt>
      <trkpt lat="41.44498" lon="1.44129">
        <ele>636.2</ele>
        <time>2022-05-20 21:25:47</time>
      </trkpt>
      <trkpt lat="41.44498" lon="1.44139">
        <ele>636.2</ele>
        <time>2022-05-20 21:25:48</time>
      </trkpt>
      <trkpt lat="41.44497" lon="1.44148">
        <ele>636.2</ele>
        <time>2022-05-20 21:25:49</time>
      </trkpt>
      <trkpt lat="41.44498" lon="1.44157">
        <ele>636.4</ele>
        <time>2022-05-20 21:25:50</time>
      </trkpt>
      <trkpt lat="41.445" lon="1.44166">
        <ele>636.4</ele>
        <time>2022-05-20 21:25:51</time>
      </trkpt>
      <trkpt lat="41.44502" lon="1.44174">
        <ele>636.6</ele>
        <time>2022-05-20 21:25:52</time>
      </trkpt>
      <trkpt lat="41.44506" lon="1.44182">
        <ele>636.8</ele>
        <time>2022-05-20 21:25:53</time>
      </trkpt>
      <trkpt lat="41.4451" lon="1.44189">
        <ele>636.8</ele>
        <time>2022-05-20 21:25:54</time>
      </trkpt>
      <trkpt lat="41.44515" lon="1.44195">
        <ele>637.2</ele>
        <time>2022-05-20 21:25:55</time>
      </trkpt>
      <trkpt lat="41.44519" lon="1.44201">
        <ele>637.4</ele>
        <time>2022-05-20 21:25:56</time>
      </trkpt>
      <trkpt lat="41.44523" lon="1.44207">
        <ele>637.6</ele>
        <time>2022-05-20 21:25:57</time>
      </trkpt>
      <trkpt lat="41.44527" lon="1.44212">
        <ele>638</ele>
        <time>2022-05-20 21:25:58</time>
      </trkpt>
      <trkpt lat="41.44531" lon="1.44218">
        <ele>638.2</ele>
        <time>2022-05-20 21:25:59</time>
      </trkpt>
      <trkpt lat="41.44535" lon="1.44223">
        <ele>638.6</ele>
        <time>2022-05-20 21:26:00</time>
      </trkpt>
      <trkpt lat="41.44538" lon="1.44228">
        <ele>638.8</ele>
        <time>2022-05-20 21:26:01</time>
      </trkpt>
      <trkpt lat="41.44542" lon="1.44233">
        <ele>639</ele>
        <time>2022-05-20 21:26:02</time>
      </trkpt>
      <trkpt lat="41.44546" lon="1.44239">
        <ele>639.2</ele>
        <time>2022-05-20 21:26:03</time>
      </trkpt>
      <trkpt lat="41.44549" lon="1.44244">
        <ele>639.6</ele>
        <time>2022-05-20 21:26:04</time>
      </trkpt>
      <trkpt lat="41.44553" lon="1.44249">
        <ele>639.8</ele>
        <time>2022-05-20 21:26:05</time>
      </trkpt>
      <trkpt lat="41.44556" lon="1.44254">
        <ele>640</ele>
        <time>2022-05-20 21:26:06</time>
      </trkpt>
      <trkpt lat="41.4456" lon="1.44259">
        <ele>640.2</ele>
        <time>2022-05-20 21:26:07</time>
      </trkpt>
      <trkpt lat="41.44564" lon="1.44264">
        <ele>640.6</ele>
        <time>2022-05-20 21:26:08</time>
      </trkpt>
      <trkpt lat="41.44567" lon="1.44268">
        <ele>640.8</ele>
        <time>2022-05-20 21:26:09</time>
      </trkpt>
      <trkpt lat="41.44571" lon="1.44272">
        <ele>641</ele>
        <time>2022-05-20 21:26:10</time>
      </trkpt>
      <trkpt lat="41.44574" lon="1.44276">
        <ele>641.4</ele>
        <time>2022-05-20 21:26:11</time>
      </trkpt>
      <trkpt lat="41.44578" lon="1.4428">
        <ele>641.6</ele>
        <time>2022-05-20 21:26:12</time>
      </trkpt>
      <trkpt lat="41.44581" lon="1.44283">
        <ele>641.8</ele>
        <time>2022-05-20 21:26:13</time>
      </trkpt>
      <trkpt lat="41.44585" lon="1.44286">
        <ele>642</ele>
        <time>2022-05-20 21:26:14</time>
      </trkpt>
      <trkpt lat="41.44588" lon="1.44288">
        <ele>642.2</ele>
        <time>2022-05-20 21:26:15</time>
      </trkpt>
      <trkpt lat="41.44592" lon="1.4429">
        <ele>642.6</ele>
        <time>2022-05-20 21:26:16</time>
      </trkpt>
      <trkpt lat="41.44596" lon="1.44292">
        <ele>642.8</ele>
        <time>2022-05-20 21:26:17</time>
      </trkpt>
      <trkpt lat="41.446" lon="1.44293">
        <ele>643.2</ele>
        <time>2022-05-20 21:26:18</time>
      </trkpt>
      <trkpt lat="41.44604" lon="1.44293">
        <ele>643.4</ele>
        <time>2022-05-20 21:26:19</time>
      </trkpt>
      <trkpt lat="41.44608" lon="1.44295">
        <ele>643.6</ele>
        <time>2022-05-20 21:26:20</time>
      </trkpt>
      <trkpt lat="41.44612" lon="1.44296">
        <ele>644</ele>
        <time>2022-05-20 21:26:21</time>
      </trkpt>
      <trkpt lat="41.44615" lon="1.44298">
        <ele>644.2</ele>
        <time>2022-05-20 21:26:22</time>
      </trkpt>
      <trkpt lat="41.44619" lon="1.44299">
        <ele>644.6</ele>
        <time>2022-05-20 21:26:23</time>
      </trkpt>
      <trkpt lat="41.44624" lon="1.443">
        <ele>644.8</ele>
        <time>2022-05-20 21:26:24</time>
      </trkpt>
      <trkpt lat="41.44627" lon="1.44301">
        <ele>645.2</ele>
        <time>2022-05-20 21:26:25</time>
      </trkpt>
      <trkpt lat="41.44632" lon="1.44302">
        <ele>645.4</ele>
        <time>2022-05-20 21:26:26</time>
      </trkpt>
      <trkpt lat="41.44636" lon="1.44302">
        <ele>645.6</ele>
        <time>2022-05-20 21:26:27</time>
      </trkpt>
      <trkpt lat="41.4464" lon="1.44303">
        <ele>646</ele>
        <time>2022-05-20 21:26:28</time>
      </trkpt>
      <trkpt lat="41.44644" lon="1.44304">
        <ele>646.2</ele>
        <time>2022-05-20 21:26:29</time>
      </trkpt>
      <trkpt lat="41.44648" lon="1.44305">
        <ele>646.4</ele>
        <time>2022-05-20 21:26:30</time>
      </trkpt>
      <trkpt lat="41.44652" lon="1.44307">
        <ele>646.8</ele>
        <time>2022-05-20 21:26:31</time>
      </trkpt>
      <trkpt lat="41.44656" lon="1.4431">
        <ele>647</ele>
        <time>2022-05-20 21:26:32</time>
      </trkpt>
      <trkpt lat="41.44659" lon="1.44312">
        <ele>647.2</ele>
        <time>2022-05-20 21:26:33</time>
      </trkpt>
      <trkpt lat="41.44663" lon="1.44315">
        <ele>647.6</ele>
        <time>2022-05-20 21:26:34</time>
      </trkpt>
      <trkpt lat="41.44667" lon="1.44318">
        <ele>647.8</ele>
        <time>2022-05-20 21:26:35</time>
      </trkpt>
      <trkpt lat="41.4467" lon="1.44321">
        <ele>648.2</ele>
        <time>2022-05-20 21:26:36</time>
      </trkpt>
      <trkpt lat="41.44674" lon="1.44324">
        <ele>648.4</ele>
        <time>2022-05-20 21:26:37</time>
      </trkpt>
      <trkpt lat="41.44677" lon="1.44327">
        <ele>648.8</ele>
        <time>2022-05-20 21:26:38</time>
      </trkpt>
      <trkpt lat="41.4468" lon="1.4433">
        <ele>649</ele>
        <time>2022-05-20 21:26:39</time>
      </trkpt>
      <trkpt lat="41.44683" lon="1.44333">
        <ele>649.2</ele>
        <time>2022-05-20 21:26:40</time>
      </trkpt>
      <trkpt lat="41.44685" lon="1.44337">
        <ele>649.6</ele>
        <time>2022-05-20 21:26:41</time>
      </trkpt>
      <trkpt lat="41.44688" lon="1.4434">
        <ele>649.8</ele>
        <time>2022-05-20 21:26:42</time>
      </trkpt>
      <trkpt lat="41.44691" lon="1.44343">
        <ele>650</ele>
        <time>2022-05-20 21:26:43</time>
      </trkpt>
      <trkpt lat="41.44694" lon="1.44346">
        <ele>650.4</ele>
        <time>2022-05-20 21:26:44</time>
      </trkpt>
      <trkpt lat="41.44697" lon="1.44349">
        <ele>650.6</ele>
        <time>2022-05-20 21:26:45</time>
      </trkpt>
      <trkpt lat="41.447" lon="1.44352">
        <ele>651</ele>
        <time>2022-05-20 21:26:46</time>
      </trkpt>
      <trkpt lat="41.44703" lon="1.44355">
        <ele>651.2</ele>
        <time>2022-05-20 21:26:47</time>
      </trkpt>
      <trkpt lat="41.44705" lon="1.44359">
        <ele>651.4</ele>
        <time>2022-05-20 21:26:48</time>
      </trkpt>
      <trkpt lat="41.44707" lon="1.44363">
        <ele>651.8</ele>
        <time>2022-05-20 21:26:49</time>
      </trkpt>
      <trkpt lat="41.4471" lon="1.44367">
        <ele>652</ele>
        <time>2022-05-20 21:26:50</time>
      </trkpt>
      <trkpt lat="41.44712" lon="1.44371">
        <ele>652.2</ele>
        <time>2022-05-20 21:26:51</time>
      </trkpt>
      <trkpt lat="41.44714" lon="1.44375">
        <ele>652.6</ele>
        <time>2022-05-20 21:26:52</time>
      </trkpt>
      <trkpt lat="41.44715" lon="1.4438">
        <ele>652.8</ele>
        <time>2022-05-20 21:26:53</time>
      </trkpt>
      <trkpt lat="41.44716" lon="1.44385">
        <ele>653</ele>
        <time>2022-05-20 21:26:54</time>
      </trkpt>
      <trkpt lat="41.44717" lon="1.4439">
        <ele>653.2</ele>
        <time>2022-05-20 21:26:55</time>
      </trkpt>
      <trkpt lat="41.44719" lon="1.44395">
        <ele>653.2</ele>
        <time>2022-05-20 21:26:56</time>
      </trkpt>
      <trkpt lat="41.4472" lon="1.44399">
        <ele>653.6</ele>
        <time>2022-05-20 21:26:57</time>
      </trkpt>
      <trkpt lat="41.4472" lon="1.44404">
        <ele>653.8</ele>
        <time>2022-05-20 21:26:58</time>
      </trkpt>
      <trkpt lat="41.44721" lon="1.44409">
        <ele>654</ele>
        <time>2022-05-20 21:26:59</time>
      </trkpt>
      <trkpt lat="41.44722" lon="1.44413">
        <ele>654.2</ele>
        <time>2022-05-20 21:27:00</time>
      </trkpt>
      <trkpt lat="41.44722" lon="1.44418">
        <ele>654.6</ele>
        <time>2022-05-20 21:27:01</time>
      </trkpt>
      <trkpt lat="41.44723" lon="1.44422">
        <ele>654.8</ele>
        <time>2022-05-20 21:27:02</time>
      </trkpt>
      <trkpt lat="41.44724" lon="1.44427">
        <ele>655</ele>
        <time>2022-05-20 21:27:03</time>
      </trkpt>
      <trkpt lat="41.44725" lon="1.44432">
        <ele>655.4</ele>
        <time>2022-05-20 21:27:04</time>
      </trkpt>
      <trkpt lat="41.44726" lon="1.44436">
        <ele>655.6</ele>
        <time>2022-05-20 21:27:05</time>
      </trkpt>
      <trkpt lat="41.44728" lon="1.4444">
        <ele>655.8</ele>
        <time>2022-05-20 21:27:06</time>
      </trkpt>
      <trkpt lat="41.44729" lon="1.44445">
        <ele>656</ele>
        <time>2022-05-20 21:27:07</time>
      </trkpt>
      <trkpt lat="41.44731" lon="1.4445">
        <ele>656.4</ele>
        <time>2022-05-20 21:27:08</time>
      </trkpt>
      <trkpt lat="41.44732" lon="1.44454">
        <ele>656.6</ele>
        <time>2022-05-20 21:27:09</time>
      </trkpt>
      <trkpt lat="41.44734" lon="1.44458">
        <ele>656.8</ele>
        <time>2022-05-20 21:27:10</time>
      </trkpt>
      <trkpt lat="41.44736" lon="1.44461">
        <ele>657</ele>
        <time>2022-05-20 21:27:11</time>
      </trkpt>
      <trkpt lat="41.44739" lon="1.44465">
        <ele>657.2</ele>
        <time>2022-05-20 21:27:12</time>
      </trkpt>
      <trkpt lat="41.44742" lon="1.44468">
        <ele>657.6</ele>
        <time>2022-05-20 21:27:13</time>
      </trkpt>
      <trkpt lat="41.44744" lon="1.44471">
        <ele>657.8</ele>
        <time>2022-05-20 21:27:14</time>
      </trkpt>
      <trkpt lat="41.44747" lon="1.44474">
        <ele>658</ele>
        <time>2022-05-20 21:27:15</time>
      </trkpt>
      <trkpt lat="41.4475" lon="1.44477">
        <ele>658.2</ele>
        <time>2022-05-20 21:27:16</time>
      </trkpt>
      <trkpt lat="41.44752" lon="1.44481">
        <ele>658.4</ele>
        <time>2022-05-20 21:27:17</time>
      </trkpt>
      <trkpt lat="41.44754" lon="1.44484">
        <ele>658.6</ele>
        <time>2022-05-20 21:27:18</time>
      </trkpt>
      <trkpt lat="41.44757" lon="1.44488">
        <ele>658.8</ele>
        <time>2022-05-20 21:27:19</time>
      </trkpt>
      <trkpt lat="41.44759" lon="1.44492">
        <ele>659</ele>
        <time>2022-05-20 21:27:20</time>
      </trkpt>
      <trkpt lat="41.4476" lon="1.44497">
        <ele>659.2</ele>
        <time>2022-05-20 21:27:21</time>
      </trkpt>
      <trkpt lat="41.44762" lon="1.44501">
        <ele>659.4</ele>
        <time>2022-05-20 21:27:22</time>
      </trkpt>
      <trkpt lat="41.44763" lon="1.44505">
        <ele>659.6</ele>
        <time>2022-05-20 21:27:23</time>
      </trkpt>
      <trkpt lat="41.44765" lon="1.4451">
        <ele>659.8</ele>
        <time>2022-05-20 21:27:24</time>
      </trkpt>
      <trkpt lat="41.44766" lon="1.44514">
        <ele>660</ele>
        <time>2022-05-20 21:27:25</time>
      </trkpt>
      <trkpt lat="41.44767" lon="1.44519">
        <ele>660.2</ele>
        <time>2022-05-20 21:27:26</time>
      </trkpt>
      <trkpt lat="41.44768" lon="1.44524">
        <ele>660.4</ele>
        <time>2022-05-20 21:27:27</time>
      </trkpt>
      <trkpt lat="41.44769" lon="1.44529">
        <ele>660.6</ele>
        <time>2022-05-20 21:27:28</time>
      </trkpt>
      <trkpt lat="41.44769" lon="1.44533">
        <ele>660.8</ele>
        <time>2022-05-20 21:27:29</time>
      </trkpt>
      <trkpt lat="41.44769" lon="1.44538">
        <ele>661</ele>
        <time>2022-05-20 21:27:30</time>
      </trkpt>
      <trkpt lat="41.44769" lon="1.44543">
        <ele>661.2</ele>
        <time>2022-05-20 21:27:31</time>
      </trkpt>
      <trkpt lat="41.4477" lon="1.44548">
        <ele>661.6</ele>
        <time>2022-05-20 21:27:32</time>
      </trkpt>
      <trkpt lat="41.44771" lon="1.44552">
        <ele>661.8</ele>
        <time>2022-05-20 21:27:33</time>
      </trkpt>
      <trkpt lat="41.44773" lon="1.44557">
        <ele>662</ele>
        <time>2022-05-20 21:27:34</time>
      </trkpt>
      <trkpt lat="41.44774" lon="1.44561">
        <ele>662.2</ele>
        <time>2022-05-20 21:27:35</time>
      </trkpt>
      <trkpt lat="41.44776" lon="1.44565">
        <ele>662.4</ele>
        <time>2022-05-20 21:27:36</time>
      </trkpt>
      <trkpt lat="41.44778" lon="1.44568">
        <ele>662.6</ele>
        <time>2022-05-20 21:27:37</time>
      </trkpt>
      <trkpt lat="41.44782" lon="1.44571">
        <ele>662.8</ele>
        <time>2022-05-20 21:27:38</time>
      </trkpt>
      <trkpt lat="41.44785" lon="1.44574">
        <ele>663</ele>
        <time>2022-05-20 21:27:39</time>
      </trkpt>
      <trkpt lat="41.44789" lon="1.44576">
        <ele>663.2</ele>
        <time>2022-05-20 21:27:40</time>
      </trkpt>
      <trkpt lat="41.44792" lon="1.44579">
        <ele>663.4</ele>
        <time>2022-05-20 21:27:41</time>
      </trkpt>
      <trkpt lat="41.44796" lon="1.44582">
        <ele>663.6</ele>
        <time>2022-05-20 21:27:42</time>
      </trkpt>
      <trkpt lat="41.44799" lon="1.44584">
        <ele>663.8</ele>
        <time>2022-05-20 21:27:43</time>
      </trkpt>
      <trkpt lat="41.44802" lon="1.44588">
        <ele>664</ele>
        <time>2022-05-20 21:27:44</time>
      </trkpt>
      <trkpt lat="41.44806" lon="1.44591">
        <ele>664.2</ele>
        <time>2022-05-20 21:27:45</time>
      </trkpt>
      <trkpt lat="41.44809" lon="1.44594">
        <ele>664.6</ele>
        <time>2022-05-20 21:27:46</time>
      </trkpt>
      <trkpt lat="41.44812" lon="1.44597">
        <ele>664.8</ele>
        <time>2022-05-20 21:27:47</time>
      </trkpt>
      <trkpt lat="41.44815" lon="1.44599">
        <ele>665</ele>
        <time>2022-05-20 21:27:48</time>
      </trkpt>
      <trkpt lat="41.44819" lon="1.44602">
        <ele>665.2</ele>
        <time>2022-05-20 21:27:49</time>
      </trkpt>
      <trkpt lat="41.44822" lon="1.44605">
        <ele>665.4</ele>
        <time>2022-05-20 21:27:50</time>
      </trkpt>
      <trkpt lat="41.44825" lon="1.44608">
        <ele>665.8</ele>
        <time>2022-05-20 21:27:51</time>
      </trkpt>
      <trkpt lat="41.44829" lon="1.44611">
        <ele>666</ele>
        <time>2022-05-20 21:27:52</time>
      </trkpt>
      <trkpt lat="41.44831" lon="1.44614">
        <ele>666.2</ele>
        <time>2022-05-20 21:27:53</time>
      </trkpt>
      <trkpt lat="41.44834" lon="1.44618">
        <ele>666.4</ele>
        <time>2022-05-20 21:27:54</time>
      </trkpt>
      <trkpt lat="41.44837" lon="1.44622">
        <ele>666.6</ele>
        <time>2022-05-20 21:27:55</time>
      </trkpt>
      <trkpt lat="41.44839" lon="1.44627">
        <ele>666.6</ele>
        <time>2022-05-20 21:27:56</time>
      </trkpt>
      <trkpt lat="41.44842" lon="1.44632">
        <ele>666.8</ele>
        <time>2022-05-20 21:27:57</time>
      </trkpt>
      <trkpt lat="41.44844" lon="1.44636">
        <ele>667</ele>
        <time>2022-05-20 21:27:58</time>
      </trkpt>
      <trkpt lat="41.44846" lon="1.44641">
        <ele>667.2</ele>
        <time>2022-05-20 21:27:59</time>
      </trkpt>
      <trkpt lat="41.44848" lon="1.44646">
        <ele>667.4</ele>
        <time>2022-05-20 21:28:00</time>
      </trkpt>
      <trkpt lat="41.44851" lon="1.44651">
        <ele>667.6</ele>
        <time>2022-05-20 21:28:01</time>
      </trkpt>
      <trkpt lat="41.44853" lon="1.44656">
        <ele>667.8</ele>
        <time>2022-05-20 21:28:02</time>
      </trkpt>
      <trkpt lat="41.44855" lon="1.44661">
        <ele>667.8</ele>
        <time>2022-05-20 21:28:03</time>
      </trkpt>
      <trkpt lat="41.44857" lon="1.44666">
        <ele>668</ele>
        <time>2022-05-20 21:28:04</time>
      </trkpt>
      <trkpt lat="41.44859" lon="1.44672">
        <ele>668.2</ele>
        <time>2022-05-20 21:28:05</time>
      </trkpt>
      <trkpt lat="41.44862" lon="1.44677">
        <ele>668.4</ele>
        <time>2022-05-20 21:28:06</time>
      </trkpt>
      <trkpt lat="41.44865" lon="1.44682">
        <ele>668.6</ele>
        <time>2022-05-20 21:28:07</time>
      </trkpt>
      <trkpt lat="41.44868" lon="1.44687">
        <ele>668.8</ele>
        <time>2022-05-20 21:28:08</time>
      </trkpt>
      <trkpt lat="41.44871" lon="1.44691">
        <ele>668.8</ele>
        <time>2022-05-20 21:28:09</time>
      </trkpt>
      <trkpt lat="41.44874" lon="1.44696">
        <ele>669</ele>
        <time>2022-05-20 21:28:10</time>
      </trkpt>
      <trkpt lat="41.44876" lon="1.44701">
        <ele>669.2</ele>
        <time>2022-05-20 21:28:11</time>
      </trkpt>
      <trkpt lat="41.44879" lon="1.44706">
        <ele>669.2</ele>
        <time>2022-05-20 21:28:12</time>
      </trkpt>
      <trkpt lat="41.44881" lon="1.44712">
        <ele>669.4</ele>
        <time>2022-05-20 21:28:13</time>
      </trkpt>
      <trkpt lat="41.44883" lon="1.44718">
        <ele>669.6</ele>
        <time>2022-05-20 21:28:14</time>
      </trkpt>
      <trkpt lat="41.44884" lon="1.44724">
        <ele>669.6</ele>
        <time>2022-05-20 21:28:15</time>
      </trkpt>
      <trkpt lat="41.44885" lon="1.4473">
        <ele>669.8</ele>
        <time>2022-05-20 21:28:16</time>
      </trkpt>
      <trkpt lat="41.44886" lon="1.44737">
        <ele>670</ele>
        <time>2022-05-20 21:28:17</time>
      </trkpt>
      <trkpt lat="41.44887" lon="1.44743">
        <ele>670</ele>
        <time>2022-05-20 21:28:18</time>
      </trkpt>
      <trkpt lat="41.44888" lon="1.44749">
        <ele>670.2</ele>
        <time>2022-05-20 21:28:19</time>
      </trkpt>
      <trkpt lat="41.44889" lon="1.44755">
        <ele>670.4</ele>
        <time>2022-05-20 21:28:20</time>
      </trkpt>
      <trkpt lat="41.44891" lon="1.44762">
        <ele>670.6</ele>
        <time>2022-05-20 21:28:21</time>
      </trkpt>
      <trkpt lat="41.44892" lon="1.44768">
        <ele>670.8</ele>
        <time>2022-05-20 21:28:22</time>
      </trkpt>
      <trkpt lat="41.44894" lon="1.44773">
        <ele>670.8</ele>
        <time>2022-05-20 21:28:23</time>
      </trkpt>
      <trkpt lat="41.44897" lon="1.44779">
        <ele>671</ele>
        <time>2022-05-20 21:28:24</time>
      </trkpt>
      <trkpt lat="41.44901" lon="1.44783">
        <ele>671.2</ele>
        <time>2022-05-20 21:28:25</time>
      </trkpt>
      <trkpt lat="41.44904" lon="1.44788">
        <ele>671.4</ele>
        <time>2022-05-20 21:28:26</time>
      </trkpt>
      <trkpt lat="41.44908" lon="1.44792">
        <ele>671.6</ele>
        <time>2022-05-20 21:28:27</time>
      </trkpt>
      <trkpt lat="41.44912" lon="1.44795">
        <ele>671.8</ele>
        <time>2022-05-20 21:28:28</time>
      </trkpt>
      <trkpt lat="41.44915" lon="1.44798">
        <ele>672</ele>
        <time>2022-05-20 21:28:29</time>
      </trkpt>
      <trkpt lat="41.4492" lon="1.448">
        <ele>672.2</ele>
        <time>2022-05-20 21:28:30</time>
      </trkpt>
      <trkpt lat="41.44924" lon="1.44803">
        <ele>672.4</ele>
        <time>2022-05-20 21:28:31</time>
      </trkpt>
      <trkpt lat="41.44928" lon="1.44806">
        <ele>672.4</ele>
        <time>2022-05-20 21:28:32</time>
      </trkpt>
      <trkpt lat="41.44932" lon="1.44809">
        <ele>672.6</ele>
        <time>2022-05-20 21:28:33</time>
      </trkpt>
      <trkpt lat="41.44936" lon="1.44812">
        <ele>673</ele>
        <time>2022-05-20 21:28:34</time>
      </trkpt>
      <trkpt lat="41.44941" lon="1.44815">
        <ele>673</ele>
        <time>2022-05-20 21:28:35</time>
      </trkpt>
      <trkpt lat="41.44944" lon="1.44817">
        <ele>673.2</ele>
        <time>2022-05-20 21:28:36</time>
      </trkpt>
      <trkpt lat="41.44949" lon="1.44819">
        <ele>673.6</ele>
        <time>2022-05-20 21:28:37</time>
      </trkpt>
      <trkpt lat="41.44953" lon="1.44822">
        <ele>673.8</ele>
        <time>2022-05-20 21:28:38</time>
      </trkpt>
      <trkpt lat="41.44957" lon="1.44825">
        <ele>674</ele>
        <time>2022-05-20 21:28:39</time>
      </trkpt>
      <trkpt lat="41.44961" lon="1.44827">
        <ele>674.2</ele>
        <time>2022-05-20 21:28:40</time>
      </trkpt>
      <trkpt lat="41.44965" lon="1.4483">
        <ele>674.4</ele>
        <time>2022-05-20 21:28:41</time>
      </trkpt>
      <trkpt lat="41.44969" lon="1.44833">
        <ele>674.6</ele>
        <time>2022-05-20 21:28:42</time>
      </trkpt>
      <trkpt lat="41.44973" lon="1.44836">
        <ele>674.8</ele>
        <time>2022-05-20 21:28:43</time>
      </trkpt>
      <trkpt lat="41.44978" lon="1.44838">
        <ele>675.2</ele>
        <time>2022-05-20 21:28:44</time>
      </trkpt>
      <trkpt lat="41.44982" lon="1.44841">
        <ele>675.4</ele>
        <time>2022-05-20 21:28:45</time>
      </trkpt>
      <trkpt lat="41.44986" lon="1.44844">
        <ele>675.6</ele>
        <time>2022-05-20 21:28:46</time>
      </trkpt>
      <trkpt lat="41.4499" lon="1.44846">
        <ele>675.8</ele>
        <time>2022-05-20 21:28:47</time>
      </trkpt>
      <trkpt lat="41.44994" lon="1.44849">
        <ele>676</ele>
        <time>2022-05-20 21:28:48</time>
      </trkpt>
      <trkpt lat="41.44998" lon="1.44851">
        <ele>676.2</ele>
        <time>2022-05-20 21:28:49</time>
      </trkpt>
      <trkpt lat="41.45002" lon="1.44853">
        <ele>676.2</ele>
        <time>2022-05-20 21:28:50</time>
      </trkpt>
      <trkpt lat="41.45007" lon="1.44855">
        <ele>676.4</ele>
        <time>2022-05-20 21:28:51</time>
      </trkpt>
      <trkpt lat="41.45011" lon="1.44858">
        <ele>676.6</ele>
        <time>2022-05-20 21:28:52</time>
      </trkpt>
      <trkpt lat="41.45015" lon="1.4486">
        <ele>676.8</ele>
        <time>2022-05-20 21:28:53</time>
      </trkpt>
      <trkpt lat="41.45019" lon="1.44863">
        <ele>677</ele>
        <time>2022-05-20 21:28:54</time>
      </trkpt>
      <trkpt lat="41.45023" lon="1.44866">
        <ele>677</ele>
        <time>2022-05-20 21:28:55</time>
      </trkpt>
      <trkpt lat="41.45028" lon="1.44868">
        <ele>677.2</ele>
        <time>2022-05-20 21:28:56</time>
      </trkpt>
      <trkpt lat="41.45031" lon="1.44871">
        <ele>677.4</ele>
        <time>2022-05-20 21:28:57</time>
      </trkpt>
      <trkpt lat="41.45035" lon="1.44874">
        <ele>677.6</ele>
        <time>2022-05-20 21:28:58</time>
      </trkpt>
      <trkpt lat="41.45039" lon="1.44876">
        <ele>677.8</ele>
        <time>2022-05-20 21:28:59</time>
      </trkpt>
      <trkpt lat="41.45042" lon="1.44878">
        <ele>678</ele>
        <time>2022-05-20 21:29:00</time>
      </trkpt>
      <trkpt lat="41.45046" lon="1.44881">
        <ele>678.4</ele>
        <time>2022-05-20 21:29:01</time>
      </trkpt>
      <trkpt lat="41.4505" lon="1.44883">
        <ele>678.6</ele>
        <time>2022-05-20 21:29:02</time>
      </trkpt>
      <trkpt lat="41.45053" lon="1.44885">
        <ele>678.8</ele>
        <time>2022-05-20 21:29:03</time>
      </trkpt>
      <trkpt lat="41.45056" lon="1.44886">
        <ele>679.2</ele>
        <time>2022-05-20 21:29:04</time>
      </trkpt>
      <trkpt lat="41.4506" lon="1.44887">
        <ele>679.4</ele>
        <time>2022-05-20 21:29:05</time>
      </trkpt>
      <trkpt lat="41.45063" lon="1.44889">
        <ele>679.6</ele>
        <time>2022-05-20 21:29:06</time>
      </trkpt>
      <trkpt lat="41.45067" lon="1.4489">
        <ele>679.8</ele>
        <time>2022-05-20 21:29:07</time>
      </trkpt>
      <trkpt lat="41.45071" lon="1.44892">
        <ele>680</ele>
        <time>2022-05-20 21:29:08</time>
      </trkpt>
      <trkpt lat="41.45074" lon="1.44893">
        <ele>680.4</ele>
        <time>2022-05-20 21:29:09</time>
      </trkpt>
      <trkpt lat="41.45078" lon="1.44894">
        <ele>680.6</ele>
        <time>2022-05-20 21:29:10</time>
      </trkpt>
      <trkpt lat="41.45082" lon="1.44896">
        <ele>680.8</ele>
        <time>2022-05-20 21:29:11</time>
      </trkpt>
      <trkpt lat="41.45085" lon="1.44897">
        <ele>681</ele>
        <time>2022-05-20 21:29:12</time>
      </trkpt>
      <trkpt lat="41.45089" lon="1.44898">
        <ele>681.2</ele>
        <time>2022-05-20 21:29:13</time>
      </trkpt>
      <trkpt lat="41.45092" lon="1.449">
        <ele>681.4</ele>
        <time>2022-05-20 21:29:14</time>
      </trkpt>
      <trkpt lat="41.45096" lon="1.44901">
        <ele>681.6</ele>
        <time>2022-05-20 21:29:15</time>
      </trkpt>
      <trkpt lat="41.45099" lon="1.44902">
        <ele>681.8</ele>
        <time>2022-05-20 21:29:16</time>
      </trkpt>
      <trkpt lat="41.45103" lon="1.44904">
        <ele>682</ele>
        <time>2022-05-20 21:29:17</time>
      </trkpt>
      <trkpt lat="41.45107" lon="1.44905">
        <ele>682.4</ele>
        <time>2022-05-20 21:29:18</time>
      </trkpt>
      <trkpt lat="41.4511" lon="1.44906">
        <ele>682.6</ele>
        <time>2022-05-20 21:29:19</time>
      </trkpt>
      <trkpt lat="41.45113" lon="1.44907">
        <ele>682.8</ele>
        <time>2022-05-20 21:29:20</time>
      </trkpt>
      <trkpt lat="41.45117" lon="1.44908">
        <ele>683</ele>
        <time>2022-05-20 21:29:21</time>
      </trkpt>
      <trkpt lat="41.45121" lon="1.44909">
        <ele>683.2</ele>
        <time>2022-05-20 21:29:22</time>
      </trkpt>
      <trkpt lat="41.45124" lon="1.44911">
        <ele>683.6</ele>
        <time>2022-05-20 21:29:23</time>
      </trkpt>
      <trkpt lat="41.45127" lon="1.44912">
        <ele>683.8</ele>
        <time>2022-05-20 21:29:24</time>
      </trkpt>
      <trkpt lat="41.45131" lon="1.44914">
        <ele>684.2</ele>
        <time>2022-05-20 21:29:25</time>
      </trkpt>
      <trkpt lat="41.45134" lon="1.44916">
        <ele>684.4</ele>
        <time>2022-05-20 21:29:26</time>
      </trkpt>
      <trkpt lat="41.45138" lon="1.44919">
        <ele>684.6</ele>
        <time>2022-05-20 21:29:27</time>
      </trkpt>
      <trkpt lat="41.45142" lon="1.4492">
        <ele>684.8</ele>
        <time>2022-05-20 21:29:28</time>
      </trkpt>
      <trkpt lat="41.45145" lon="1.44922">
        <ele>685</ele>
        <time>2022-05-20 21:29:29</time>
      </trkpt>
      <trkpt lat="41.45149" lon="1.44924">
        <ele>685.2</ele>
        <time>2022-05-20 21:29:30</time>
      </trkpt>
      <trkpt lat="41.45153" lon="1.44926">
        <ele>685.4</ele>
        <time>2022-05-20 21:29:31</time>
      </trkpt>
      <trkpt lat="41.45157" lon="1.44927">
        <ele>685.6</ele>
        <time>2022-05-20 21:29:32</time>
      </trkpt>
      <trkpt lat="41.45161" lon="1.44928">
        <ele>685.8</ele>
        <time>2022-05-20 21:29:33</time>
      </trkpt>
      <trkpt lat="41.45165" lon="1.4493">
        <ele>686</ele>
        <time>2022-05-20 21:29:34</time>
      </trkpt>
      <trkpt lat="41.45169" lon="1.44932">
        <ele>686.2</ele>
        <time>2022-05-20 21:29:35</time>
      </trkpt>
      <trkpt lat="41.45172" lon="1.44934">
        <ele>686.4</ele>
        <time>2022-05-20 21:29:36</time>
      </trkpt>
      <trkpt lat="41.45176" lon="1.44937">
        <ele>686.6</ele>
        <time>2022-05-20 21:29:37</time>
      </trkpt>
      <trkpt lat="41.4518" lon="1.44939">
        <ele>686.8</ele>
        <time>2022-05-20 21:29:38</time>
      </trkpt>
      <trkpt lat="41.45184" lon="1.44941">
        <ele>686.8</ele>
        <time>2022-05-20 21:29:39</time>
      </trkpt>
      <trkpt lat="41.45189" lon="1.44942">
        <ele>687</ele>
        <time>2022-05-20 21:29:40</time>
      </trkpt>
      <trkpt lat="41.45193" lon="1.44944">
        <ele>687.2</ele>
        <time>2022-05-20 21:29:41</time>
      </trkpt>
      <trkpt lat="41.45197" lon="1.44946">
        <ele>687.4</ele>
        <time>2022-05-20 21:29:42</time>
      </trkpt>
      <trkpt lat="41.45201" lon="1.44948">
        <ele>687.6</ele>
        <time>2022-05-20 21:29:43</time>
      </trkpt>
      <trkpt lat="41.45206" lon="1.44949">
        <ele>687.8</ele>
        <time>2022-05-20 21:29:44</time>
      </trkpt>
      <trkpt lat="41.4521" lon="1.44951">
        <ele>687.8</ele>
        <time>2022-05-20 21:29:45</time>
      </trkpt>
      <trkpt lat="41.45214" lon="1.44953">
        <ele>688</ele>
        <time>2022-05-20 21:29:46</time>
      </trkpt>
      <trkpt lat="41.45218" lon="1.44955">
        <ele>688.2</ele>
        <time>2022-05-20 21:29:47</time>
      </trkpt>
      <trkpt lat="41.45222" lon="1.44957">
        <ele>688.4</ele>
        <time>2022-05-20 21:29:48</time>
      </trkpt>
      <trkpt lat="41.45226" lon="1.44959">
        <ele>688.6</ele>
        <time>2022-05-20 21:29:49</time>
      </trkpt>
      <trkpt lat="41.4523" lon="1.44961">
        <ele>688.8</ele>
        <time>2022-05-20 21:29:50</time>
      </trkpt>
      <trkpt lat="41.45234" lon="1.44962">
        <ele>689</ele>
        <time>2022-05-20 21:29:51</time>
      </trkpt>
      <trkpt lat="41.45237" lon="1.44964">
        <ele>689</ele>
        <time>2022-05-20 21:29:52</time>
      </trkpt>
      <trkpt lat="41.45241" lon="1.44966">
        <ele>689.2</ele>
        <time>2022-05-20 21:29:53</time>
      </trkpt>
      <trkpt lat="41.45245" lon="1.44967">
        <ele>689.4</ele>
        <time>2022-05-20 21:29:54</time>
      </trkpt>
      <trkpt lat="41.45248" lon="1.44969">
        <ele>689.6</ele>
        <time>2022-05-20 21:29:55</time>
      </trkpt>
      <trkpt lat="41.45252" lon="1.44971">
        <ele>689.8</ele>
        <time>2022-05-20 21:29:56</time>
      </trkpt>
      <trkpt lat="41.45255" lon="1.44972">
        <ele>690</ele>
        <time>2022-05-20 21:29:57</time>
      </trkpt>
      <trkpt lat="41.45259" lon="1.44975">
        <ele>690.2</ele>
        <time>2022-05-20 21:29:58</time>
      </trkpt>
      <trkpt lat="41.45262" lon="1.44977">
        <ele>690.4</ele>
        <time>2022-05-20 21:29:59</time>
      </trkpt>
      <trkpt lat="41.45265" lon="1.4498">
        <ele>690.6</ele>
        <time>2022-05-20 21:30:00</time>
      </trkpt>
      <trkpt lat="41.45268" lon="1.44983">
        <ele>690.8</ele>
        <time>2022-05-20 21:30:01</time>
      </trkpt>
      <trkpt lat="41.45271" lon="1.44986">
        <ele>691</ele>
        <time>2022-05-20 21:30:02</time>
      </trkpt>
      <trkpt lat="41.45274" lon="1.44989">
        <ele>691.2</ele>
        <time>2022-05-20 21:30:03</time>
      </trkpt>
      <trkpt lat="41.45276" lon="1.44992">
        <ele>691.4</ele>
        <time>2022-05-20 21:30:04</time>
      </trkpt>
      <trkpt lat="41.45279" lon="1.44995">
        <ele>691.8</ele>
        <time>2022-05-20 21:30:05</time>
      </trkpt>
      <trkpt lat="41.45281" lon="1.44998">
        <ele>692</ele>
        <time>2022-05-20 21:30:06</time>
      </trkpt>
      <trkpt lat="41.45284" lon="1.45002">
        <ele>692.2</ele>
        <time>2022-05-20 21:30:07</time>
      </trkpt>
      <trkpt lat="41.45286" lon="1.45005">
        <ele>692.4</ele>
        <time>2022-05-20 21:30:08</time>
      </trkpt>
      <trkpt lat="41.45288" lon="1.45008">
        <ele>692.6</ele>
        <time>2022-05-20 21:30:09</time>
      </trkpt>
      <trkpt lat="41.45291" lon="1.45012">
        <ele>692.8</ele>
        <time>2022-05-20 21:30:10</time>
      </trkpt>
      <trkpt lat="41.45293" lon="1.45016">
        <ele>693</ele>
        <time>2022-05-20 21:30:11</time>
      </trkpt>
      <trkpt lat="41.45295" lon="1.45019">
        <ele>693</ele>
        <time>2022-05-20 21:30:12</time>
      </trkpt>
      <trkpt lat="41.45298" lon="1.45023">
        <ele>693.2</ele>
        <time>2022-05-20 21:30:13</time>
      </trkpt>
      <trkpt lat="41.453" lon="1.45027">
        <ele>693.4</ele>
        <time>2022-05-20 21:30:14</time>
      </trkpt>
      <trkpt lat="41.45302" lon="1.45031">
        <ele>693.8</ele>
        <time>2022-05-20 21:30:15</time>
      </trkpt>
      <trkpt lat="41.45304" lon="1.45034">
        <ele>694</ele>
        <time>2022-05-20 21:30:16</time>
      </trkpt>
      <trkpt lat="41.45307" lon="1.45038">
        <ele>694.2</ele>
        <time>2022-05-20 21:30:17</time>
      </trkpt>
      <trkpt lat="41.45309" lon="1.45042">
        <ele>694.4</ele>
        <time>2022-05-20 21:30:18</time>
      </trkpt>
      <trkpt lat="41.45311" lon="1.45045">
        <ele>694.6</ele>
        <time>2022-05-20 21:30:19</time>
      </trkpt>
      <trkpt lat="41.45314" lon="1.45049">
        <ele>694.8</ele>
        <time>2022-05-20 21:30:20</time>
      </trkpt>
      <trkpt lat="41.45316" lon="1.45052">
        <ele>695</ele>
        <time>2022-05-20 21:30:21</time>
      </trkpt>
      <trkpt lat="41.45319" lon="1.45056">
        <ele>695.2</ele>
        <time>2022-05-20 21:30:22</time>
      </trkpt>
      <trkpt lat="41.45321" lon="1.4506">
        <ele>695.4</ele>
        <time>2022-05-20 21:30:23</time>
      </trkpt>
      <trkpt lat="41.45323" lon="1.45063">
        <ele>695.6</ele>
        <time>2022-05-20 21:30:24</time>
      </trkpt>
      <trkpt lat="41.45325" lon="1.45067">
        <ele>695.8</ele>
        <time>2022-05-20 21:30:25</time>
      </trkpt>
      <trkpt lat="41.45327" lon="1.45071">
        <ele>696</ele>
        <time>2022-05-20 21:30:26</time>
      </trkpt>
      <trkpt lat="41.4533" lon="1.45074">
        <ele>696.2</ele>
        <time>2022-05-20 21:30:27</time>
      </trkpt>
      <trkpt lat="41.45332" lon="1.45078">
        <ele>696.4</ele>
        <time>2022-05-20 21:30:28</time>
      </trkpt>
      <trkpt lat="41.45334" lon="1.45081">
        <ele>696.6</ele>
        <time>2022-05-20 21:30:29</time>
      </trkpt>
      <trkpt lat="41.45337" lon="1.45085">
        <ele>696.8</ele>
        <time>2022-05-20 21:30:30</time>
      </trkpt>
      <trkpt lat="41.45339" lon="1.45089">
        <ele>697</ele>
        <time>2022-05-20 21:30:31</time>
      </trkpt>
      <trkpt lat="41.45341" lon="1.45093">
        <ele>697.2</ele>
        <time>2022-05-20 21:30:32</time>
      </trkpt>
      <trkpt lat="41.45343" lon="1.45097">
        <ele>697.6</ele>
        <time>2022-05-20 21:30:33</time>
      </trkpt>
      <trkpt lat="41.45346" lon="1.45101">
        <ele>697.8</ele>
        <time>2022-05-20 21:30:34</time>
      </trkpt>
      <trkpt lat="41.45348" lon="1.45104">
        <ele>698</ele>
        <time>2022-05-20 21:30:35</time>
      </trkpt>
      <trkpt lat="41.45351" lon="1.45108">
        <ele>698.2</ele>
        <time>2022-05-20 21:30:36</time>
      </trkpt>
      <trkpt lat="41.45353" lon="1.45112">
        <ele>698.4</ele>
        <time>2022-05-20 21:30:37</time>
      </trkpt>
      <trkpt lat="41.45356" lon="1.45116">
        <ele>698.6</ele>
        <time>2022-05-20 21:30:38</time>
      </trkpt>
      <trkpt lat="41.45358" lon="1.4512">
        <ele>698.8</ele>
        <time>2022-05-20 21:30:39</time>
      </trkpt>
      <trkpt lat="41.4536" lon="1.45124">
        <ele>699.2</ele>
        <time>2022-05-20 21:30:40</time>
      </trkpt>
      <trkpt lat="41.45362" lon="1.45127">
        <ele>699.4</ele>
        <time>2022-05-20 21:30:41</time>
      </trkpt>
      <trkpt lat="41.45365" lon="1.45131">
        <ele>699.6</ele>
        <time>2022-05-20 21:30:42</time>
      </trkpt>
      <trkpt lat="41.45368" lon="1.45135">
        <ele>699.8</ele>
        <time>2022-05-20 21:30:43</time>
      </trkpt>
      <trkpt lat="41.4537" lon="1.45139">
        <ele>700</ele>
        <time>2022-05-20 21:30:44</time>
      </trkpt>
      <trkpt lat="41.45373" lon="1.45143">
        <ele>700</ele>
        <time>2022-05-20 21:30:45</time>
      </trkpt>
      <trkpt lat="41.45375" lon="1.45147">
        <ele>700.2</ele>
        <time>2022-05-20 21:30:46</time>
      </trkpt>
      <trkpt lat="41.45378" lon="1.45152">
        <ele>700.4</ele>
        <time>2022-05-20 21:30:47</time>
      </trkpt>
      <trkpt lat="41.45381" lon="1.45156">
        <ele>700.4</ele>
        <time>2022-05-20 21:30:48</time>
      </trkpt>
      <trkpt lat="41.45383" lon="1.4516">
        <ele>700.6</ele>
        <time>2022-05-20 21:30:49</time>
      </trkpt>
      <trkpt lat="41.45386" lon="1.45165">
        <ele>700.6</ele>
        <time>2022-05-20 21:30:50</time>
      </trkpt>
      <trkpt lat="41.45389" lon="1.45169">
        <ele>700.8</ele>
        <time>2022-05-20 21:30:51</time>
      </trkpt>
      <trkpt lat="41.45392" lon="1.45173">
        <ele>700.8</ele>
        <time>2022-05-20 21:30:52</time>
      </trkpt>
      <trkpt lat="41.45395" lon="1.45178">
        <ele>701</ele>
        <time>2022-05-20 21:30:53</time>
      </trkpt>
      <trkpt lat="41.45398" lon="1.45182">
        <ele>701</ele>
        <time>2022-05-20 21:30:54</time>
      </trkpt>
      <trkpt lat="41.45401" lon="1.45187">
        <ele>701</ele>
        <time>2022-05-20 21:30:55</time>
      </trkpt>
      <trkpt lat="41.45403" lon="1.45191">
        <ele>701</ele>
        <time>2022-05-20 21:30:56</time>
      </trkpt>
      <trkpt lat="41.45406" lon="1.45196">
        <ele>701.2</ele>
        <time>2022-05-20 21:30:57</time>
      </trkpt>
      <trkpt lat="41.4541" lon="1.45202">
        <ele>701.2</ele>
        <time>2022-05-20 21:30:58</time>
      </trkpt>
      <trkpt lat="41.45413" lon="1.45206">
        <ele>701.4</ele>
        <time>2022-05-20 21:30:59</time>
      </trkpt>
      <trkpt lat="41.45417" lon="1.45211">
        <ele>701.4</ele>
        <time>2022-05-20 21:31:00</time>
      </trkpt>
      <trkpt lat="41.4542" lon="1.45216">
        <ele>701.6</ele>
        <time>2022-05-20 21:31:01</time>
      </trkpt>
      <trkpt lat="41.45424" lon="1.45221">
        <ele>701.6</ele>
        <time>2022-05-20 21:31:02</time>
      </trkpt>
      <trkpt lat="41.45428" lon="1.45226">
        <ele>701.6</ele>
        <time>2022-05-20 21:31:03</time>
      </trkpt>
      <trkpt lat="41.45432" lon="1.45231">
        <ele>701.8</ele>
        <time>2022-05-20 21:31:04</time>
      </trkpt>
      <trkpt lat="41.45435" lon="1.45236">
        <ele>701.8</ele>
        <time>2022-05-20 21:31:05</time>
      </trkpt>
      <trkpt lat="41.45439" lon="1.4524">
        <ele>701.8</ele>
        <time>2022-05-20 21:31:06</time>
      </trkpt>
      <trkpt lat="41.45443" lon="1.45245">
        <ele>702</ele>
        <time>2022-05-20 21:31:07</time>
      </trkpt>
      <trkpt lat="41.45446" lon="1.4525">
        <ele>702</ele>
        <time>2022-05-20 21:31:08</time>
      </trkpt>
      <trkpt lat="41.4545" lon="1.45254">
        <ele>702.2</ele>
        <time>2022-05-20 21:31:09</time>
      </trkpt>
      <trkpt lat="41.45453" lon="1.45259">
        <ele>702.2</ele>
        <time>2022-05-20 21:31:10</time>
      </trkpt>
      <trkpt lat="41.45457" lon="1.45263">
        <ele>702.4</ele>
        <time>2022-05-20 21:31:11</time>
      </trkpt>
      <trkpt lat="41.45461" lon="1.45268">
        <ele>702.4</ele>
        <time>2022-05-20 21:31:12</time>
      </trkpt>
      <trkpt lat="41.45464" lon="1.45272">
        <ele>702.6</ele>
        <time>2022-05-20 21:31:13</time>
      </trkpt>
      <trkpt lat="41.45468" lon="1.45276">
        <ele>702.8</ele>
        <time>2022-05-20 21:31:14</time>
      </trkpt>
      <trkpt lat="41.45471" lon="1.4528">
        <ele>702.8</ele>
        <time>2022-05-20 21:31:15</time>
      </trkpt>
      <trkpt lat="41.45474" lon="1.45284">
        <ele>703</ele>
        <time>2022-05-20 21:31:16</time>
      </trkpt>
      <trkpt lat="41.45477" lon="1.45288">
        <ele>703</ele>
        <time>2022-05-20 21:31:17</time>
      </trkpt>
      <trkpt lat="41.4548" lon="1.45292">
        <ele>703.2</ele>
        <time>2022-05-20 21:31:18</time>
      </trkpt>
      <trkpt lat="41.45484" lon="1.45297">
        <ele>703.4</ele>
        <time>2022-05-20 21:31:19</time>
      </trkpt>
      <trkpt lat="41.45487" lon="1.45301">
        <ele>703.6</ele>
        <time>2022-05-20 21:31:20</time>
      </trkpt>
      <trkpt lat="41.4549" lon="1.45305">
        <ele>703.6</ele>
        <time>2022-05-20 21:31:21</time>
      </trkpt>
      <trkpt lat="41.45493" lon="1.45309">
        <ele>703.8</ele>
        <time>2022-05-20 21:31:22</time>
      </trkpt>
      <trkpt lat="41.45496" lon="1.45313">
        <ele>703.8</ele>
        <time>2022-05-20 21:31:23</time>
      </trkpt>
      <trkpt lat="41.455" lon="1.45317">
        <ele>704</ele>
        <time>2022-05-20 21:31:24</time>
      </trkpt>
      <trkpt lat="41.45502" lon="1.45321">
        <ele>704.2</ele>
        <time>2022-05-20 21:31:25</time>
      </trkpt>
      <trkpt lat="41.45506" lon="1.45325">
        <ele>704.2</ele>
        <time>2022-05-20 21:31:26</time>
      </trkpt>
      <trkpt lat="41.45509" lon="1.45329">
        <ele>704.2</ele>
        <time>2022-05-20 21:31:27</time>
      </trkpt>
      <trkpt lat="41.45513" lon="1.45333">
        <ele>704.4</ele>
        <time>2022-05-20 21:31:28</time>
      </trkpt>
      <trkpt lat="41.45516" lon="1.45337">
        <ele>704.4</ele>
        <time>2022-05-20 21:31:29</time>
      </trkpt>
      <trkpt lat="41.4552" lon="1.45342">
        <ele>704.6</ele>
        <time>2022-05-20 21:31:30</time>
      </trkpt>
      <trkpt lat="41.45523" lon="1.45346">
        <ele>704.6</ele>
        <time>2022-05-20 21:31:31</time>
      </trkpt>
      <trkpt lat="41.45528" lon="1.45351">
        <ele>704.6</ele>
        <time>2022-05-20 21:31:32</time>
      </trkpt>
      <trkpt lat="41.45532" lon="1.45355">
        <ele>704.4</ele>
        <time>2022-05-20 21:31:33</time>
      </trkpt>
      <trkpt lat="41.45537" lon="1.45359">
        <ele>704.4</ele>
        <time>2022-05-20 21:31:34</time>
      </trkpt>
      <trkpt lat="41.45542" lon="1.45363">
        <ele>704.2</ele>
        <time>2022-05-20 21:31:35</time>
      </trkpt>
      <trkpt lat="41.45547" lon="1.45368">
        <ele>704.2</ele>
        <time>2022-05-20 21:31:36</time>
      </trkpt>
      <trkpt lat="41.45552" lon="1.45372">
        <ele>704</ele>
        <time>2022-05-20 21:31:37</time>
      </trkpt>
      <trkpt lat="41.45557" lon="1.45376">
        <ele>704</ele>
        <time>2022-05-20 21:31:38</time>
      </trkpt>
      <trkpt lat="41.45562" lon="1.4538">
        <ele>703.8</ele>
        <time>2022-05-20 21:31:39</time>
      </trkpt>
      <trkpt lat="41.45568" lon="1.45385">
        <ele>703.6</ele>
        <time>2022-05-20 21:31:40</time>
      </trkpt>
      <trkpt lat="41.45573" lon="1.45389">
        <ele>703.6</ele>
        <time>2022-05-20 21:31:41</time>
      </trkpt>
      <trkpt lat="41.45578" lon="1.45394">
        <ele>703.4</ele>
        <time>2022-05-20 21:31:42</time>
      </trkpt>
      <trkpt lat="41.45583" lon="1.45399">
        <ele>703.4</ele>
        <time>2022-05-20 21:31:43</time>
      </trkpt>
      <trkpt lat="41.45588" lon="1.45404">
        <ele>703.2</ele>
        <time>2022-05-20 21:31:44</time>
      </trkpt>
      <trkpt lat="41.45593" lon="1.4541">
        <ele>703.2</ele>
        <time>2022-05-20 21:31:45</time>
      </trkpt>
      <trkpt lat="41.45598" lon="1.45416">
        <ele>703.2</ele>
        <time>2022-05-20 21:31:46</time>
      </trkpt>
      <trkpt lat="41.45602" lon="1.45422">
        <ele>703</ele>
        <time>2022-05-20 21:31:47</time>
      </trkpt>
      <trkpt lat="41.45606" lon="1.45429">
        <ele>703</ele>
        <time>2022-05-20 21:31:48</time>
      </trkpt>
      <trkpt lat="41.4561" lon="1.45436">
        <ele>702.8</ele>
        <time>2022-05-20 21:31:49</time>
      </trkpt>
      <trkpt lat="41.45614" lon="1.45443">
        <ele>702.6</ele>
        <time>2022-05-20 21:31:50</time>
      </trkpt>
      <trkpt lat="41.45618" lon="1.45451">
        <ele>702.4</ele>
        <time>2022-05-20 21:31:51</time>
      </trkpt>
      <trkpt lat="41.45621" lon="1.45458">
        <ele>702.2</ele>
        <time>2022-05-20 21:31:52</time>
      </trkpt>
      <trkpt lat="41.45626" lon="1.45466">
        <ele>702</ele>
        <time>2022-05-20 21:31:53</time>
      </trkpt>
      <trkpt lat="41.4563" lon="1.45474">
        <ele>701.8</ele>
        <time>2022-05-20 21:31:54</time>
      </trkpt>
      <trkpt lat="41.45634" lon="1.45482">
        <ele>701.8</ele>
        <time>2022-05-20 21:31:55</time>
      </trkpt>
      <trkpt lat="41.45638" lon="1.4549">
        <ele>701.6</ele>
        <time>2022-05-20 21:31:56</time>
      </trkpt>
      <trkpt lat="41.45641" lon="1.45499">
        <ele>701.6</ele>
        <time>2022-05-20 21:31:57</time>
      </trkpt>
      <trkpt lat="41.45645" lon="1.45507">
        <ele>701.4</ele>
        <time>2022-05-20 21:31:58</time>
      </trkpt>
      <trkpt lat="41.45649" lon="1.45516">
        <ele>701.4</ele>
        <time>2022-05-20 21:31:59</time>
      </trkpt>
      <trkpt lat="41.45654" lon="1.45524">
        <ele>701.2</ele>
        <time>2022-05-20 21:32:00</time>
      </trkpt>
      <trkpt lat="41.45658" lon="1.45533">
        <ele>701.2</ele>
        <time>2022-05-20 21:32:01</time>
      </trkpt>
      <trkpt lat="41.45662" lon="1.45543">
        <ele>701</ele>
        <time>2022-05-20 21:32:02</time>
      </trkpt>
      <trkpt lat="41.45666" lon="1.45551">
        <ele>701</ele>
        <time>2022-05-20 21:32:03</time>
      </trkpt>
      <trkpt lat="41.4567" lon="1.4556">
        <ele>701</ele>
        <time>2022-05-20 21:32:04</time>
      </trkpt>
      <trkpt lat="41.45674" lon="1.4557">
        <ele>701</ele>
        <time>2022-05-20 21:32:05</time>
      </trkpt>
      <trkpt lat="41.45678" lon="1.45579">
        <ele>701</ele>
        <time>2022-05-20 21:32:06</time>
      </trkpt>
      <trkpt lat="41.45682" lon="1.45589">
        <ele>700.8</ele>
        <time>2022-05-20 21:32:07</time>
      </trkpt>
      <trkpt lat="41.45686" lon="1.45598">
        <ele>700.8</ele>
        <time>2022-05-20 21:32:08</time>
      </trkpt>
      <trkpt lat="41.45691" lon="1.45607">
        <ele>700.8</ele>
        <time>2022-05-20 21:32:09</time>
      </trkpt>
      <trkpt lat="41.45694" lon="1.45617">
        <ele>700.6</ele>
        <time>2022-05-20 21:32:10</time>
      </trkpt>
      <trkpt lat="41.45698" lon="1.45627">
        <ele>700.4</ele>
        <time>2022-05-20 21:32:11</time>
      </trkpt>
      <trkpt lat="41.45702" lon="1.45637">
        <ele>700.2</ele>
        <time>2022-05-20 21:32:12</time>
      </trkpt>
      <trkpt lat="41.45705" lon="1.45647">
        <ele>699.8</ele>
        <time>2022-05-20 21:32:13</time>
      </trkpt>
      <trkpt lat="41.4571" lon="1.45657">
        <ele>699.2</ele>
        <time>2022-05-20 21:32:14</time>
      </trkpt>
      <trkpt lat="41.45714" lon="1.45669">
        <ele>698.8</ele>
        <time>2022-05-20 21:32:15</time>
      </trkpt>
      <trkpt lat="41.45718" lon="1.45681">
        <ele>698.2</ele>
        <time>2022-05-20 21:32:16</time>
      </trkpt>
      <trkpt lat="41.45723" lon="1.45693">
        <ele>697.6</ele>
        <time>2022-05-20 21:32:17</time>
      </trkpt>
      <trkpt lat="41.45727" lon="1.45705">
        <ele>696.8</ele>
        <time>2022-05-20 21:32:18</time>
      </trkpt>
      <trkpt lat="41.45731" lon="1.45717">
        <ele>696.2</ele>
        <time>2022-05-20 21:32:19</time>
      </trkpt>
      <trkpt lat="41.45736" lon="1.4573">
        <ele>695.4</ele>
        <time>2022-05-20 21:32:20</time>
      </trkpt>
      <trkpt lat="41.45741" lon="1.45743">
        <ele>694.8</ele>
        <time>2022-05-20 21:32:21</time>
      </trkpt>
      <trkpt lat="41.45746" lon="1.45756">
        <ele>693.8</ele>
        <time>2022-05-20 21:32:22</time>
      </trkpt>
      <trkpt lat="41.45751" lon="1.45769">
        <ele>693</ele>
        <time>2022-05-20 21:32:23</time>
      </trkpt>
      <trkpt lat="41.45757" lon="1.45783">
        <ele>692.2</ele>
        <time>2022-05-20 21:32:24</time>
      </trkpt>
      <trkpt lat="41.45762" lon="1.45797">
        <ele>691.4</ele>
        <time>2022-05-20 21:32:25</time>
      </trkpt>
      <trkpt lat="41.45767" lon="1.45812">
        <ele>690.4</ele>
        <time>2022-05-20 21:32:26</time>
      </trkpt>
      <trkpt lat="41.45773" lon="1.45827">
        <ele>689.6</ele>
        <time>2022-05-20 21:32:27</time>
      </trkpt>
      <trkpt lat="41.45779" lon="1.45842">
        <ele>688.4</ele>
        <time>2022-05-20 21:32:28</time>
      </trkpt>
      <trkpt lat="41.45784" lon="1.45858">
        <ele>687.4</ele>
        <time>2022-05-20 21:32:29</time>
      </trkpt>
      <trkpt lat="41.4579" lon="1.45873">
        <ele>686</ele>
        <time>2022-05-20 21:32:30</time>
      </trkpt>
      <trkpt lat="41.45797" lon="1.45889">
        <ele>685.2</ele>
        <time>2022-05-20 21:32:31</time>
      </trkpt>
      <trkpt lat="41.45804" lon="1.45905">
        <ele>684.4</ele>
        <time>2022-05-20 21:32:32</time>
      </trkpt>
      <trkpt lat="41.4581" lon="1.45921">
        <ele>683.2</ele>
        <time>2022-05-20 21:32:33</time>
      </trkpt>
      <trkpt lat="41.45817" lon="1.45937">
        <ele>682.2</ele>
        <time>2022-05-20 21:32:34</time>
      </trkpt>
      <trkpt lat="41.45824" lon="1.45954">
        <ele>681</ele>
        <time>2022-05-20 21:32:35</time>
      </trkpt>
      <trkpt lat="41.4583" lon="1.4597">
        <ele>679.8</ele>
        <time>2022-05-20 21:32:36</time>
      </trkpt>
      <trkpt lat="41.45837" lon="1.45987">
        <ele>678.8</ele>
        <time>2022-05-20 21:32:37</time>
      </trkpt>
      <trkpt lat="41.45844" lon="1.46004">
        <ele>677.6</ele>
        <time>2022-05-20 21:32:38</time>
      </trkpt>
      <trkpt lat="41.4585" lon="1.46022">
        <ele>676.4</ele>
        <time>2022-05-20 21:32:39</time>
      </trkpt>
      <trkpt lat="41.45857" lon="1.46039">
        <ele>675.2</ele>
        <time>2022-05-20 21:32:40</time>
      </trkpt>
      <trkpt lat="41.45864" lon="1.46057">
        <ele>674</ele>
        <time>2022-05-20 21:32:41</time>
      </trkpt>
      <trkpt lat="41.45872" lon="1.46075">
        <ele>672.6</ele>
        <time>2022-05-20 21:32:42</time>
      </trkpt>
      <trkpt lat="41.45879" lon="1.46093">
        <ele>671.6</ele>
        <time>2022-05-20 21:32:43</time>
      </trkpt>
      <trkpt lat="41.45886" lon="1.46111">
        <ele>670.6</ele>
        <time>2022-05-20 21:32:44</time>
      </trkpt>
      <trkpt lat="41.45893" lon="1.46129">
        <ele>669.8</ele>
        <time>2022-05-20 21:32:45</time>
      </trkpt>
      <trkpt lat="41.459" lon="1.46148">
        <ele>669.2</ele>
        <time>2022-05-20 21:32:46</time>
      </trkpt>
      <trkpt lat="41.45907" lon="1.46165">
        <ele>669</ele>
        <time>2022-05-20 21:32:47</time>
      </trkpt>
      <trkpt lat="41.45913" lon="1.46182">
        <ele>668.6</ele>
        <time>2022-05-20 21:32:48</time>
      </trkpt>
      <trkpt lat="41.45918" lon="1.462">
        <ele>668.2</ele>
        <time>2022-05-20 21:32:49</time>
      </trkpt>
      <trkpt lat="41.45923" lon="1.46217">
        <ele>667.8</ele>
        <time>2022-05-20 21:32:50</time>
      </trkpt>
      <trkpt lat="41.45928" lon="1.46235">
        <ele>667.2</ele>
        <time>2022-05-20 21:32:51</time>
      </trkpt>
      <trkpt lat="41.45933" lon="1.46253">
        <ele>666.6</ele>
        <time>2022-05-20 21:32:52</time>
      </trkpt>
      <trkpt lat="41.45937" lon="1.46272">
        <ele>666</ele>
        <time>2022-05-20 21:32:53</time>
      </trkpt>
      <trkpt lat="41.45941" lon="1.46291">
        <ele>665.2</ele>
        <time>2022-05-20 21:32:54</time>
      </trkpt>
      <trkpt lat="41.45945" lon="1.46309">
        <ele>664.4</ele>
        <time>2022-05-20 21:32:55</time>
      </trkpt>
      <trkpt lat="41.45948" lon="1.46328">
        <ele>663.2</ele>
        <time>2022-05-20 21:32:56</time>
      </trkpt>
      <trkpt lat="41.45953" lon="1.46348">
        <ele>662.4</ele>
        <time>2022-05-20 21:32:57</time>
      </trkpt>
      <trkpt lat="41.45956" lon="1.46368">
        <ele>661.4</ele>
        <time>2022-05-20 21:32:58</time>
      </trkpt>
      <trkpt lat="41.45958" lon="1.46389">
        <ele>660.4</ele>
        <time>2022-05-20 21:32:59</time>
      </trkpt>
      <trkpt lat="41.45959" lon="1.46409">
        <ele>659.4</ele>
        <time>2022-05-20 21:33:00</time>
      </trkpt>
      <trkpt lat="41.45958" lon="1.46428">
        <ele>658.4</ele>
        <time>2022-05-20 21:33:01</time>
      </trkpt>
      <trkpt lat="41.45955" lon="1.46447">
        <ele>657.2</ele>
        <time>2022-05-20 21:33:02</time>
      </trkpt>
      <trkpt lat="41.45951" lon="1.46465">
        <ele>656.2</ele>
        <time>2022-05-20 21:33:03</time>
      </trkpt>
      <trkpt lat="41.45946" lon="1.46484">
        <ele>655.2</ele>
        <time>2022-05-20 21:33:04</time>
      </trkpt>
      <trkpt lat="41.45942" lon="1.46502">
        <ele>654.2</ele>
        <time>2022-05-20 21:33:05</time>
      </trkpt>
      <trkpt lat="41.45938" lon="1.46522">
        <ele>653.2</ele>
        <time>2022-05-20 21:33:06</time>
      </trkpt>
      <trkpt lat="41.45937" lon="1.46542">
        <ele>652.2</ele>
        <time>2022-05-20 21:33:07</time>
      </trkpt>
      <trkpt lat="41.45935" lon="1.46562">
        <ele>651.2</ele>
        <time>2022-05-20 21:33:08</time>
      </trkpt>
      <trkpt lat="41.45934" lon="1.46579">
        <ele>649.8</ele>
        <time>2022-05-20 21:33:09</time>
      </trkpt>
      <trkpt lat="41.45933" lon="1.46591">
        <ele>648.6</ele>
        <time>2022-05-20 21:33:10</time>
      </trkpt>
      <trkpt lat="41.4593" lon="1.46622">
        <ele>647.4</ele>
        <time>2022-05-20 21:33:11</time>
      </trkpt>
      <trkpt lat="41.45927" lon="1.46642">
        <ele>646.4</ele>
        <time>2022-05-20 21:33:12</time>
      </trkpt>
      <trkpt lat="41.45924" lon="1.4666">
        <ele>645.2</ele>
        <time>2022-05-20 21:33:13</time>
      </trkpt>
      <trkpt lat="41.45922" lon="1.46676">
        <ele>644.2</ele>
        <time>2022-05-20 21:33:14</time>
      </trkpt>
      <trkpt lat="41.45919" lon="1.46693">
        <ele>643</ele>
        <time>2022-05-20 21:33:15</time>
      </trkpt>
      <trkpt lat="41.45918" lon="1.46709">
        <ele>642</ele>
        <time>2022-05-20 21:33:16</time>
      </trkpt>
      <trkpt lat="41.45919" lon="1.46725">
        <ele>640.8</ele>
        <time>2022-05-20 21:33:17</time>
      </trkpt>
      <trkpt lat="41.45922" lon="1.4674">
        <ele>639.6</ele>
        <time>2022-05-20 21:33:18</time>
      </trkpt>
      <trkpt lat="41.45928" lon="1.46753">
        <ele>638.6</ele>
        <time>2022-05-20 21:33:19</time>
      </trkpt>
      <trkpt lat="41.45935" lon="1.46766">
        <ele>637.8</ele>
        <time>2022-05-20 21:33:20</time>
      </trkpt>
      <trkpt lat="41.45942" lon="1.46776">
        <ele>637</ele>
        <time>2022-05-20 21:33:21</time>
      </trkpt>
      <trkpt lat="41.45953" lon="1.4679">
        <ele>636.2</ele>
        <time>2022-05-20 21:33:22</time>
      </trkpt>
      <trkpt lat="41.45962" lon="1.46802">
        <ele>635.4</ele>
        <time>2022-05-20 21:33:23</time>
      </trkpt>
      <trkpt lat="41.45971" lon="1.46814">
        <ele>634.6</ele>
        <time>2022-05-20 21:33:24</time>
      </trkpt>
      <trkpt lat="41.45979" lon="1.46826">
        <ele>633.6</ele>
        <time>2022-05-20 21:33:25</time>
      </trkpt>
      <trkpt lat="41.45987" lon="1.4684">
        <ele>633</ele>
        <time>2022-05-20 21:33:26</time>
      </trkpt>
      <trkpt lat="41.45994" lon="1.46856">
        <ele>631.8</ele>
        <time>2022-05-20 21:33:27</time>
      </trkpt>
      <trkpt lat="41.46001" lon="1.46872">
        <ele>630.8</ele>
        <time>2022-05-20 21:33:28</time>
      </trkpt>
      <trkpt lat="41.46007" lon="1.46887">
        <ele>630</ele>
        <time>2022-05-20 21:33:29</time>
      </trkpt>
      <trkpt lat="41.46013" lon="1.46903">
        <ele>629.2</ele>
        <time>2022-05-20 21:33:30</time>
      </trkpt>
      <trkpt lat="41.46019" lon="1.46919">
        <ele>628.2</ele>
        <time>2022-05-20 21:33:31</time>
      </trkpt>
      <trkpt lat="41.46026" lon="1.46935">
        <ele>627.2</ele>
        <time>2022-05-20 21:33:32</time>
      </trkpt>
      <trkpt lat="41.46033" lon="1.46952">
        <ele>626.4</ele>
        <time>2022-05-20 21:33:33</time>
      </trkpt>
      <trkpt lat="41.4604" lon="1.46968">
        <ele>625.6</ele>
        <time>2022-05-20 21:33:34</time>
      </trkpt>
      <trkpt lat="41.46047" lon="1.46984">
        <ele>625</ele>
        <time>2022-05-20 21:33:35</time>
      </trkpt>
      <trkpt lat="41.46054" lon="1.47001">
        <ele>624.6</ele>
        <time>2022-05-20 21:33:36</time>
      </trkpt>
      <trkpt lat="41.4606" lon="1.47017">
        <ele>624.2</ele>
        <time>2022-05-20 21:33:37</time>
      </trkpt>
      <trkpt lat="41.46066" lon="1.47034">
        <ele>624</ele>
        <time>2022-05-20 21:33:38</time>
      </trkpt>
      <trkpt lat="41.46072" lon="1.4705">
        <ele>624</ele>
        <time>2022-05-20 21:33:39</time>
      </trkpt>
      <trkpt lat="41.46077" lon="1.47064">
        <ele>623.8</ele>
        <time>2022-05-20 21:33:40</time>
      </trkpt>
      <trkpt lat="41.46082" lon="1.47078">
        <ele>623.8</ele>
        <time>2022-05-20 21:33:41</time>
      </trkpt>
      <trkpt lat="41.46087" lon="1.47089">
        <ele>624</ele>
        <time>2022-05-20 21:33:42</time>
      </trkpt>
      <trkpt lat="41.46092" lon="1.47099">
        <ele>623.8</ele>
        <time>2022-05-20 21:33:43</time>
      </trkpt>
      <trkpt lat="41.46099" lon="1.47108">
        <ele>623.6</ele>
        <time>2022-05-20 21:33:44</time>
      </trkpt>
      <trkpt lat="41.46106" lon="1.47114">
        <ele>623.2</ele>
        <time>2022-05-20 21:33:45</time>
      </trkpt>
      <trkpt lat="41.46115" lon="1.47117">
        <ele>622.6</ele>
        <time>2022-05-20 21:33:46</time>
      </trkpt>
      <trkpt lat="41.46124" lon="1.47119">
        <ele>622</ele>
        <time>2022-05-20 21:33:47</time>
      </trkpt>
      <trkpt lat="41.46133" lon="1.47122">
        <ele>621.4</ele>
        <time>2022-05-20 21:33:48</time>
      </trkpt>
      <trkpt lat="41.4614" lon="1.47127">
        <ele>620.6</ele>
        <time>2022-05-20 21:33:49</time>
      </trkpt>
      <trkpt lat="41.46146" lon="1.47135">
        <ele>619.8</ele>
        <time>2022-05-20 21:33:50</time>
      </trkpt>
      <trkpt lat="41.46149" lon="1.47146">
        <ele>619</ele>
        <time>2022-05-20 21:33:51</time>
      </trkpt>
      <trkpt lat="41.4615" lon="1.47159">
        <ele>618.2</ele>
        <time>2022-05-20 21:33:52</time>
      </trkpt>
      <trkpt lat="41.46152" lon="1.47172">
        <ele>617.4</ele>
        <time>2022-05-20 21:33:53</time>
      </trkpt>
      <trkpt lat="41.46155" lon="1.47186">
        <ele>616.4</ele>
        <time>2022-05-20 21:33:54</time>
      </trkpt>
      <trkpt lat="41.46161" lon="1.472">
        <ele>615.6</ele>
        <time>2022-05-20 21:33:55</time>
      </trkpt>
      <trkpt lat="41.46166" lon="1.47213">
        <ele>614.8</ele>
        <time>2022-05-20 21:33:56</time>
      </trkpt>
      <trkpt lat="41.46172" lon="1.47226">
        <ele>613.8</ele>
        <time>2022-05-20 21:33:57</time>
      </trkpt>
      <trkpt lat="41.46178" lon="1.47239">
        <ele>613</ele>
        <time>2022-05-20 21:33:58</time>
      </trkpt>
      <trkpt lat="41.46184" lon="1.47253">
        <ele>612</ele>
        <time>2022-05-20 21:33:59</time>
      </trkpt>
      <trkpt lat="41.46189" lon="1.47267">
        <ele>611.2</ele>
        <time>2022-05-20 21:34:00</time>
      </trkpt>
      <trkpt lat="41.46194" lon="1.47283">
        <ele>610.2</ele>
        <time>2022-05-20 21:34:01</time>
      </trkpt>
      <trkpt lat="41.46198" lon="1.47298">
        <ele>609.2</ele>
        <time>2022-05-20 21:34:02</time>
      </trkpt>
      <trkpt lat="41.462" lon="1.47314">
        <ele>608.4</ele>
        <time>2022-05-20 21:34:03</time>
      </trkpt>
      <trkpt lat="41.46201" lon="1.47331">
        <ele>607.6</ele>
        <time>2022-05-20 21:34:04</time>
      </trkpt>
      <trkpt lat="41.46202" lon="1.47351">
        <ele>606.6</ele>
        <time>2022-05-20 21:34:05</time>
      </trkpt>
      <trkpt lat="41.46204" lon="1.47369">
        <ele>605.8</ele>
        <time>2022-05-20 21:34:06</time>
      </trkpt>
      <trkpt lat="41.46206" lon="1.47388">
        <ele>605.2</ele>
        <time>2022-05-20 21:34:07</time>
      </trkpt>
      <trkpt lat="41.46209" lon="1.47406">
        <ele>604.6</ele>
        <time>2022-05-20 21:34:08</time>
      </trkpt>
      <trkpt lat="41.46212" lon="1.47424">
        <ele>604</ele>
        <time>2022-05-20 21:34:09</time>
      </trkpt>
      <trkpt lat="41.46215" lon="1.47441">
        <ele>603.6</ele>
        <time>2022-05-20 21:34:10</time>
      </trkpt>
      <trkpt lat="41.46218" lon="1.47457">
        <ele>603.2</ele>
        <time>2022-05-20 21:34:11</time>
      </trkpt>
      <trkpt lat="41.46222" lon="1.47472">
        <ele>602.8</ele>
        <time>2022-05-20 21:34:12</time>
      </trkpt>
      <trkpt lat="41.46224" lon="1.47486">
        <ele>602.2</ele>
        <time>2022-05-20 21:34:13</time>
      </trkpt>
      <trkpt lat="41.46226" lon="1.47498">
        <ele>601.8</ele>
        <time>2022-05-20 21:34:14</time>
      </trkpt>
      <trkpt lat="41.46231" lon="1.47515">
        <ele>601.6</ele>
        <time>2022-05-20 21:34:15</time>
      </trkpt>
      <trkpt lat="41.46236" lon="1.47528">
        <ele>601</ele>
        <time>2022-05-20 21:34:16</time>
      </trkpt>
      <trkpt lat="41.46243" lon="1.47541">
        <ele>600.6</ele>
        <time>2022-05-20 21:34:17</time>
      </trkpt>
      <trkpt lat="41.46251" lon="1.47555">
        <ele>600</ele>
        <time>2022-05-20 21:34:18</time>
      </trkpt>
      <trkpt lat="41.46259" lon="1.47568">
        <ele>599.4</ele>
        <time>2022-05-20 21:34:19</time>
      </trkpt>
      <trkpt lat="41.46268" lon="1.47583">
        <ele>598.6</ele>
        <time>2022-05-20 21:34:20</time>
      </trkpt>
      <trkpt lat="41.46276" lon="1.47597">
        <ele>597.8</ele>
        <time>2022-05-20 21:34:21</time>
      </trkpt>
      <trkpt lat="41.46284" lon="1.47611">
        <ele>597</ele>
        <time>2022-05-20 21:34:22</time>
      </trkpt>
      <trkpt lat="41.46292" lon="1.47625">
        <ele>596.2</ele>
        <time>2022-05-20 21:34:23</time>
      </trkpt>
      <trkpt lat="41.463" lon="1.47636">
        <ele>595.8</ele>
        <time>2022-05-20 21:34:24</time>
      </trkpt>
      <trkpt lat="41.46307" lon="1.47647">
        <ele>595.2</ele>
        <time>2022-05-20 21:34:25</time>
      </trkpt>
      <trkpt lat="41.46316" lon="1.47656">
        <ele>594.4</ele>
        <time>2022-05-20 21:34:26</time>
      </trkpt>
      <trkpt lat="41.46326" lon="1.47662">
        <ele>593.8</ele>
        <time>2022-05-20 21:34:27</time>
      </trkpt>
      <trkpt lat="41.46338" lon="1.47665">
        <ele>592.8</ele>
        <time>2022-05-20 21:34:28</time>
      </trkpt>
      <trkpt lat="41.4635" lon="1.47666">
        <ele>591.8</ele>
        <time>2022-05-20 21:34:29</time>
      </trkpt>
      <trkpt lat="41.46362" lon="1.47667">
        <ele>590.8</ele>
        <time>2022-05-20 21:34:30</time>
      </trkpt>
      <trkpt lat="41.46376" lon="1.47667">
        <ele>589.8</ele>
        <time>2022-05-20 21:34:31</time>
      </trkpt>
      <trkpt lat="41.46388" lon="1.47668">
        <ele>588.8</ele>
        <time>2022-05-20 21:34:32</time>
      </trkpt>
      <trkpt lat="41.46399" lon="1.47669">
        <ele>587.8</ele>
        <time>2022-05-20 21:34:33</time>
      </trkpt>
      <trkpt lat="41.46411" lon="1.4767">
        <ele>587</ele>
        <time>2022-05-20 21:34:34</time>
      </trkpt>
      <trkpt lat="41.46421" lon="1.47671">
        <ele>586.4</ele>
        <time>2022-05-20 21:34:35</time>
      </trkpt>
      <trkpt lat="41.46431" lon="1.47672">
        <ele>585.6</ele>
        <time>2022-05-20 21:34:36</time>
      </trkpt>
      <trkpt lat="41.46442" lon="1.47672">
        <ele>584.6</ele>
        <time>2022-05-20 21:34:37</time>
      </trkpt>
      <trkpt lat="41.46453" lon="1.47673">
        <ele>583.6</ele>
        <time>2022-05-20 21:34:38</time>
      </trkpt>
      <trkpt lat="41.46463" lon="1.47673">
        <ele>582.8</ele>
        <time>2022-05-20 21:34:39</time>
      </trkpt>
      <trkpt lat="41.46471" lon="1.47674">
        <ele>581.8</ele>
        <time>2022-05-20 21:34:40</time>
      </trkpt>
      <trkpt lat="41.46489" lon="1.47675">
        <ele>580.6</ele>
        <time>2022-05-20 21:34:41</time>
      </trkpt>
      <trkpt lat="41.46502" lon="1.47676">
        <ele>579.6</ele>
        <time>2022-05-20 21:34:42</time>
      </trkpt>
      <trkpt lat="41.46515" lon="1.47676">
        <ele>578.6</ele>
        <time>2022-05-20 21:34:43</time>
      </trkpt>
      <trkpt lat="41.46528" lon="1.47677">
        <ele>578</ele>
        <time>2022-05-20 21:34:44</time>
      </trkpt>
      <trkpt lat="41.46542" lon="1.47678">
        <ele>577.4</ele>
        <time>2022-05-20 21:34:45</time>
      </trkpt>
      <trkpt lat="41.46555" lon="1.47678">
        <ele>577</ele>
        <time>2022-05-20 21:34:46</time>
      </trkpt>
      <trkpt lat="41.46568" lon="1.47679">
        <ele>576.6</ele>
        <time>2022-05-20 21:34:47</time>
      </trkpt>
      <trkpt lat="41.4658" lon="1.4768">
        <ele>576.6</ele>
        <time>2022-05-20 21:34:48</time>
      </trkpt>
      <trkpt lat="41.46593" lon="1.47681">
        <ele>576.4</ele>
        <time>2022-05-20 21:34:49</time>
      </trkpt>
      <trkpt lat="41.46606" lon="1.47682">
        <ele>576.2</ele>
        <time>2022-05-20 21:34:50</time>
      </trkpt>
      <trkpt lat="41.46618" lon="1.47683">
        <ele>576.2</ele>
        <time>2022-05-20 21:34:51</time>
      </trkpt>
      <trkpt lat="41.4663" lon="1.47685">
        <ele>576.2</ele>
        <time>2022-05-20 21:34:52</time>
      </trkpt>
      <trkpt lat="41.46641" lon="1.4769">
        <ele>576.2</ele>
        <time>2022-05-20 21:34:53</time>
      </trkpt>
      <trkpt lat="41.46651" lon="1.47698">
        <ele>576.2</ele>
        <time>2022-05-20 21:34:54</time>
      </trkpt>
      <trkpt lat="41.46659" lon="1.47707">
        <ele>576.4</ele>
        <time>2022-05-20 21:34:55</time>
      </trkpt>
      <trkpt lat="41.46669" lon="1.47718">
        <ele>576.6</ele>
        <time>2022-05-20 21:34:56</time>
      </trkpt>
      <trkpt lat="41.46676" lon="1.47728">
        <ele>577</ele>
        <time>2022-05-20 21:34:57</time>
      </trkpt>
      <trkpt lat="41.46683" lon="1.47739">
        <ele>577.2</ele>
        <time>2022-05-20 21:34:58</time>
      </trkpt>
      <trkpt lat="41.4669" lon="1.47749">
        <ele>577.6</ele>
        <time>2022-05-20 21:34:59</time>
      </trkpt>
      <trkpt lat="41.46697" lon="1.47758">
        <ele>577.8</ele>
        <time>2022-05-20 21:35:00</time>
      </trkpt>
      <trkpt lat="41.46703" lon="1.47767">
        <ele>578.2</ele>
        <time>2022-05-20 21:35:01</time>
      </trkpt>
      <trkpt lat="41.46709" lon="1.47777">
        <ele>578.4</ele>
        <time>2022-05-20 21:35:02</time>
      </trkpt>
      <trkpt lat="41.46716" lon="1.47787">
        <ele>578.6</ele>
        <time>2022-05-20 21:35:03</time>
      </trkpt>
      <trkpt lat="41.46723" lon="1.47796">
        <ele>578.8</ele>
        <time>2022-05-20 21:35:04</time>
      </trkpt>
      <trkpt lat="41.4673" lon="1.47805">
        <ele>578.8</ele>
        <time>2022-05-20 21:35:05</time>
      </trkpt>
      <trkpt lat="41.46737" lon="1.47813">
        <ele>578.8</ele>
        <time>2022-05-20 21:35:06</time>
      </trkpt>
      <trkpt lat="41.46744" lon="1.47823">
        <ele>578.8</ele>
        <time>2022-05-20 21:35:07</time>
      </trkpt>
      <trkpt lat="41.46751" lon="1.47833">
        <ele>578.6</ele>
        <time>2022-05-20 21:35:08</time>
      </trkpt>
      <trkpt lat="41.46759" lon="1.47843">
        <ele>578.4</ele>
        <time>2022-05-20 21:35:09</time>
      </trkpt>
      <trkpt lat="41.46766" lon="1.47853">
        <ele>578</ele>
        <time>2022-05-20 21:35:10</time>
      </trkpt>
      <trkpt lat="41.46774" lon="1.47863">
        <ele>577.8</ele>
        <time>2022-05-20 21:35:11</time>
      </trkpt>
      <trkpt lat="41.46781" lon="1.47874">
        <ele>577.4</ele>
        <time>2022-05-20 21:35:12</time>
      </trkpt>
      <trkpt lat="41.46789" lon="1.47884">
        <ele>577</ele>
        <time>2022-05-20 21:35:13</time>
      </trkpt>
      <trkpt lat="41.46797" lon="1.47895">
        <ele>576.8</ele>
        <time>2022-05-20 21:35:14</time>
      </trkpt>
      <trkpt lat="41.46804" lon="1.47906">
        <ele>576.4</ele>
        <time>2022-05-20 21:35:15</time>
      </trkpt>
      <trkpt lat="41.46812" lon="1.47917">
        <ele>576</ele>
        <time>2022-05-20 21:35:16</time>
      </trkpt>
      <trkpt lat="41.4682" lon="1.47929">
        <ele>575.4</ele>
        <time>2022-05-20 21:35:17</time>
      </trkpt>
      <trkpt lat="41.46829" lon="1.4794">
        <ele>575</ele>
        <time>2022-05-20 21:35:18</time>
      </trkpt>
      <trkpt lat="41.46838" lon="1.4795">
        <ele>574.6</ele>
        <time>2022-05-20 21:35:19</time>
      </trkpt>
      <trkpt lat="41.46846" lon="1.47961">
        <ele>574.2</ele>
        <time>2022-05-20 21:35:20</time>
      </trkpt>
      <trkpt lat="41.46854" lon="1.47971">
        <ele>573.8</ele>
        <time>2022-05-20 21:35:21</time>
      </trkpt>
      <trkpt lat="41.46862" lon="1.47981">
        <ele>573.6</ele>
        <time>2022-05-20 21:35:22</time>
      </trkpt>
      <trkpt lat="41.4687" lon="1.47993">
        <ele>573.4</ele>
        <time>2022-05-20 21:35:23</time>
      </trkpt>
      <trkpt lat="41.46879" lon="1.48005">
        <ele>573</ele>
        <time>2022-05-20 21:35:24</time>
      </trkpt>
      <trkpt lat="41.46888" lon="1.48017">
        <ele>572.6</ele>
        <time>2022-05-20 21:35:25</time>
      </trkpt>
      <trkpt lat="41.46896" lon="1.48028">
        <ele>572.2</ele>
        <time>2022-05-20 21:35:26</time>
      </trkpt>
      <trkpt lat="41.46904" lon="1.48039">
        <ele>572</ele>
        <time>2022-05-20 21:35:27</time>
      </trkpt>
      <trkpt lat="41.4691" lon="1.4805">
        <ele>571.8</ele>
        <time>2022-05-20 21:35:28</time>
      </trkpt>
      <trkpt lat="41.46918" lon="1.48061">
        <ele>571.6</ele>
        <time>2022-05-20 21:35:29</time>
      </trkpt>
      <trkpt lat="41.46926" lon="1.48071">
        <ele>571.2</ele>
        <time>2022-05-20 21:35:30</time>
      </trkpt>
      <trkpt lat="41.46935" lon="1.48081">
        <ele>571</ele>
        <time>2022-05-20 21:35:31</time>
      </trkpt>
      <trkpt lat="41.46943" lon="1.48091">
        <ele>570.6</ele>
        <time>2022-05-20 21:35:32</time>
      </trkpt>
      <trkpt lat="41.46951" lon="1.48101">
        <ele>570.4</ele>
        <time>2022-05-20 21:35:33</time>
      </trkpt>
      <trkpt lat="41.46958" lon="1.48112">
        <ele>570</ele>
        <time>2022-05-20 21:35:34</time>
      </trkpt>
      <trkpt lat="41.46966" lon="1.48123">
        <ele>569.6</ele>
        <time>2022-05-20 21:35:35</time>
      </trkpt>
      <trkpt lat="41.46974" lon="1.48133">
        <ele>569.2</ele>
        <time>2022-05-20 21:35:36</time>
      </trkpt>
      <trkpt lat="41.46982" lon="1.48145">
        <ele>568.8</ele>
        <time>2022-05-20 21:35:37</time>
      </trkpt>
      <trkpt lat="41.46991" lon="1.48157">
        <ele>568.2</ele>
        <time>2022-05-20 21:35:38</time>
      </trkpt>
      <trkpt lat="41.46999" lon="1.48168">
        <ele>567.6</ele>
        <time>2022-05-20 21:35:39</time>
      </trkpt>
      <trkpt lat="41.47007" lon="1.4818">
        <ele>567.2</ele>
        <time>2022-05-20 21:35:40</time>
      </trkpt>
      <trkpt lat="41.47016" lon="1.48191">
        <ele>566.6</ele>
        <time>2022-05-20 21:35:41</time>
      </trkpt>
      <trkpt lat="41.47025" lon="1.48202">
        <ele>566</ele>
        <time>2022-05-20 21:35:42</time>
      </trkpt>
      <trkpt lat="41.47033" lon="1.48213">
        <ele>565.4</ele>
        <time>2022-05-20 21:35:43</time>
      </trkpt>
      <trkpt lat="41.47041" lon="1.48225">
        <ele>564.8</ele>
        <time>2022-05-20 21:35:44</time>
      </trkpt>
      <trkpt lat="41.4705" lon="1.48237">
        <ele>564.2</ele>
        <time>2022-05-20 21:35:45</time>
      </trkpt>
      <trkpt lat="41.47058" lon="1.48248">
        <ele>563.4</ele>
        <time>2022-05-20 21:35:46</time>
      </trkpt>
      <trkpt lat="41.47067" lon="1.4826">
        <ele>562.8</ele>
        <time>2022-05-20 21:35:47</time>
      </trkpt>
      <trkpt lat="41.47076" lon="1.48272">
        <ele>562</ele>
        <time>2022-05-20 21:35:48</time>
      </trkpt>
      <trkpt lat="41.47084" lon="1.48283">
        <ele>561.4</ele>
        <time>2022-05-20 21:35:49</time>
      </trkpt>
      <trkpt lat="41.47093" lon="1.48295">
        <ele>560.6</ele>
        <time>2022-05-20 21:35:50</time>
      </trkpt>
      <trkpt lat="41.47101" lon="1.48306">
        <ele>559.8</ele>
        <time>2022-05-20 21:35:51</time>
      </trkpt>
      <trkpt lat="41.4711" lon="1.48317">
        <ele>559</ele>
        <time>2022-05-20 21:35:52</time>
      </trkpt>
      <trkpt lat="41.47119" lon="1.48329">
        <ele>558.2</ele>
        <time>2022-05-20 21:35:53</time>
      </trkpt>
      <trkpt lat="41.47128" lon="1.4834">
        <ele>557.6</ele>
        <time>2022-05-20 21:35:54</time>
      </trkpt>
      <trkpt lat="41.47136" lon="1.48351">
        <ele>556.8</ele>
        <time>2022-05-20 21:35:55</time>
      </trkpt>
      <trkpt lat="41.47145" lon="1.48362">
        <ele>556</ele>
        <time>2022-05-20 21:35:56</time>
      </trkpt>
      <trkpt lat="41.47154" lon="1.48374">
        <ele>555.2</ele>
        <time>2022-05-20 21:35:57</time>
      </trkpt>
      <trkpt lat="41.47163" lon="1.48385">
        <ele>554.4</ele>
        <time>2022-05-20 21:35:58</time>
      </trkpt>
      <trkpt lat="41.47172" lon="1.48398">
        <ele>553.6</ele>
        <time>2022-05-20 21:35:59</time>
      </trkpt>
      <trkpt lat="41.47181" lon="1.4841">
        <ele>552.8</ele>
        <time>2022-05-20 21:36:00</time>
      </trkpt>
      <trkpt lat="41.47189" lon="1.48422">
        <ele>552</ele>
        <time>2022-05-20 21:36:01</time>
      </trkpt>
      <trkpt lat="41.47198" lon="1.48435">
        <ele>551</ele>
        <time>2022-05-20 21:36:02</time>
      </trkpt>
      <trkpt lat="41.47206" lon="1.48448">
        <ele>550.4</ele>
        <time>2022-05-20 21:36:03</time>
      </trkpt>
      <trkpt lat="41.47215" lon="1.48461">
        <ele>549.6</ele>
        <time>2022-05-20 21:36:04</time>
      </trkpt>
      <trkpt lat="41.47224" lon="1.48473">
        <ele>549.2</ele>
        <time>2022-05-20 21:36:05</time>
      </trkpt>
      <trkpt lat="41.47232" lon="1.48486">
        <ele>548.6</ele>
        <time>2022-05-20 21:36:06</time>
      </trkpt>
      <trkpt lat="41.47241" lon="1.48497">
        <ele>548.2</ele>
        <time>2022-05-20 21:36:07</time>
      </trkpt>
      <trkpt lat="41.4725" lon="1.48508">
        <ele>547.8</ele>
        <time>2022-05-20 21:36:08</time>
      </trkpt>
      <trkpt lat="41.4726" lon="1.48519">
        <ele>547.4</ele>
        <time>2022-05-20 21:36:09</time>
      </trkpt>
      <trkpt lat="41.47268" lon="1.48531">
        <ele>547.2</ele>
        <time>2022-05-20 21:36:10</time>
      </trkpt>
      <trkpt lat="41.47277" lon="1.48543">
        <ele>546.8</ele>
        <time>2022-05-20 21:36:11</time>
      </trkpt>
      <trkpt lat="41.47285" lon="1.48556">
        <ele>546.6</ele>
        <time>2022-05-20 21:36:12</time>
      </trkpt>
      <trkpt lat="41.47292" lon="1.48567">
        <ele>546.4</ele>
        <time>2022-05-20 21:36:13</time>
      </trkpt>
      <trkpt lat="41.473" lon="1.48577">
        <ele>546.2</ele>
        <time>2022-05-20 21:36:14</time>
      </trkpt>
      <trkpt lat="41.47307" lon="1.48588">
        <ele>546</ele>
        <time>2022-05-20 21:36:15</time>
      </trkpt>
      <trkpt lat="41.47314" lon="1.486">
        <ele>545.8</ele>
        <time>2022-05-20 21:36:16</time>
      </trkpt>
      <trkpt lat="41.47322" lon="1.48611">
        <ele>545.6</ele>
        <time>2022-05-20 21:36:17</time>
      </trkpt>
      <trkpt lat="41.4733" lon="1.48623">
        <ele>545.4</ele>
        <time>2022-05-20 21:36:18</time>
      </trkpt>
      <trkpt lat="41.47338" lon="1.48634">
        <ele>545.2</ele>
        <time>2022-05-20 21:36:19</time>
      </trkpt>
      <trkpt lat="41.47345" lon="1.48645">
        <ele>545</ele>
        <time>2022-05-20 21:36:20</time>
      </trkpt>
      <trkpt lat="41.47353" lon="1.48655">
        <ele>544.8</ele>
        <time>2022-05-20 21:36:21</time>
      </trkpt>
      <trkpt lat="41.47359" lon="1.48664">
        <ele>544.6</ele>
        <time>2022-05-20 21:36:22</time>
      </trkpt>
      <trkpt lat="41.47367" lon="1.48674">
        <ele>544.4</ele>
        <time>2022-05-20 21:36:23</time>
      </trkpt>
      <trkpt lat="41.47375" lon="1.48686">
        <ele>544</ele>
        <time>2022-05-20 21:36:24</time>
      </trkpt>
      <trkpt lat="41.47383" lon="1.48697">
        <ele>543.8</ele>
        <time>2022-05-20 21:36:25</time>
      </trkpt>
      <trkpt lat="41.47391" lon="1.48708">
        <ele>543.6</ele>
        <time>2022-05-20 21:36:26</time>
      </trkpt>
      <trkpt lat="41.47398" lon="1.48718">
        <ele>543.4</ele>
        <time>2022-05-20 21:36:27</time>
      </trkpt>
      <trkpt lat="41.47406" lon="1.48728">
        <ele>543</ele>
        <time>2022-05-20 21:36:28</time>
      </trkpt>
      <trkpt lat="41.47413" lon="1.48738">
        <ele>542.8</ele>
        <time>2022-05-20 21:36:29</time>
      </trkpt>
      <trkpt lat="41.47421" lon="1.48748">
        <ele>542.6</ele>
        <time>2022-05-20 21:36:30</time>
      </trkpt>
      <trkpt lat="41.47428" lon="1.48759">
        <ele>542.4</ele>
        <time>2022-05-20 21:36:31</time>
      </trkpt>
      <trkpt lat="41.47434" lon="1.4877">
        <ele>542.2</ele>
        <time>2022-05-20 21:36:32</time>
      </trkpt>
      <trkpt lat="41.47441" lon="1.4878">
        <ele>542</ele>
        <time>2022-05-20 21:36:33</time>
      </trkpt>
      <trkpt lat="41.47448" lon="1.4879">
        <ele>541.8</ele>
        <time>2022-05-20 21:36:34</time>
      </trkpt>
      <trkpt lat="41.47456" lon="1.488">
        <ele>541.6</ele>
        <time>2022-05-20 21:36:35</time>
      </trkpt>
      <trkpt lat="41.47463" lon="1.48809">
        <ele>541.4</ele>
        <time>2022-05-20 21:36:36</time>
      </trkpt>
      <trkpt lat="41.4747" lon="1.48819">
        <ele>541.2</ele>
        <time>2022-05-20 21:36:37</time>
      </trkpt>
      <trkpt lat="41.47477" lon="1.48829">
        <ele>541</ele>
        <time>2022-05-20 21:36:38</time>
      </trkpt>
      <trkpt lat="41.47484" lon="1.48839">
        <ele>540.8</ele>
        <time>2022-05-20 21:36:39</time>
      </trkpt>
      <trkpt lat="41.47491" lon="1.48848">
        <ele>540.6</ele>
        <time>2022-05-20 21:36:40</time>
      </trkpt>
      <trkpt lat="41.47498" lon="1.48857">
        <ele>540.2</ele>
        <time>2022-05-20 21:36:41</time>
      </trkpt>
      <trkpt lat="41.47505" lon="1.48866">
        <ele>540</ele>
        <time>2022-05-20 21:36:42</time>
      </trkpt>
      <trkpt lat="41.47512" lon="1.48875">
        <ele>539.8</ele>
        <time>2022-05-20 21:36:43</time>
      </trkpt>
      <trkpt lat="41.47519" lon="1.48884">
        <ele>539.6</ele>
        <time>2022-05-20 21:36:44</time>
      </trkpt>
      <trkpt lat="41.47525" lon="1.48894">
        <ele>539.4</ele>
        <time>2022-05-20 21:36:45</time>
      </trkpt>
      <trkpt lat="41.47532" lon="1.48904">
        <ele>539.2</ele>
        <time>2022-05-20 21:36:46</time>
      </trkpt>
      <trkpt lat="41.47539" lon="1.48914">
        <ele>539</ele>
        <time>2022-05-20 21:36:47</time>
      </trkpt>
      <trkpt lat="41.47546" lon="1.48924">
        <ele>538.8</ele>
        <time>2022-05-20 21:36:48</time>
      </trkpt>
      <trkpt lat="41.47553" lon="1.48933">
        <ele>538.6</ele>
        <time>2022-05-20 21:36:49</time>
      </trkpt>
      <trkpt lat="41.4756" lon="1.48943">
        <ele>538.4</ele>
        <time>2022-05-20 21:36:50</time>
      </trkpt>
      <trkpt lat="41.47568" lon="1.48953">
        <ele>538.2</ele>
        <time>2022-05-20 21:36:51</time>
      </trkpt>
      <trkpt lat="41.47575" lon="1.48962">
        <ele>538</ele>
        <time>2022-05-20 21:36:52</time>
      </trkpt>
      <trkpt lat="41.47582" lon="1.48972">
        <ele>537.8</ele>
        <time>2022-05-20 21:36:53</time>
      </trkpt>
      <trkpt lat="41.47589" lon="1.48983">
        <ele>537.6</ele>
        <time>2022-05-20 21:36:54</time>
      </trkpt>
      <trkpt lat="41.47595" lon="1.48992">
        <ele>537.4</ele>
        <time>2022-05-20 21:36:55</time>
      </trkpt>
      <trkpt lat="41.47602" lon="1.49002">
        <ele>537.4</ele>
        <time>2022-05-20 21:36:56</time>
      </trkpt>
      <trkpt lat="41.47608" lon="1.49011">
        <ele>537.2</ele>
        <time>2022-05-20 21:36:57</time>
      </trkpt>
      <trkpt lat="41.47615" lon="1.49021">
        <ele>537.2</ele>
        <time>2022-05-20 21:36:58</time>
      </trkpt>
      <trkpt lat="41.47622" lon="1.4903">
        <ele>537</ele>
        <time>2022-05-20 21:36:59</time>
      </trkpt>
      <trkpt lat="41.47629" lon="1.49038">
        <ele>537</ele>
        <time>2022-05-20 21:37:00</time>
      </trkpt>
      <trkpt lat="41.47636" lon="1.49045">
        <ele>536.8</ele>
        <time>2022-05-20 21:37:01</time>
      </trkpt>
      <trkpt lat="41.47643" lon="1.49053">
        <ele>536.8</ele>
        <time>2022-05-20 21:37:02</time>
      </trkpt>
      <trkpt lat="41.47652" lon="1.49059">
        <ele>536.6</ele>
        <time>2022-05-20 21:37:03</time>
      </trkpt>
      <trkpt lat="41.47661" lon="1.49063">
        <ele>536.4</ele>
        <time>2022-05-20 21:37:04</time>
      </trkpt>
      <trkpt lat="41.47671" lon="1.49067">
        <ele>536.4</ele>
        <time>2022-05-20 21:37:05</time>
      </trkpt>
      <trkpt lat="41.4768" lon="1.49072">
        <ele>536.2</ele>
        <time>2022-05-20 21:37:06</time>
      </trkpt>
      <trkpt lat="41.47688" lon="1.49078">
        <ele>536.2</ele>
        <time>2022-05-20 21:37:07</time>
      </trkpt>
      <trkpt lat="41.47697" lon="1.49082">
        <ele>536</ele>
        <time>2022-05-20 21:37:08</time>
      </trkpt>
      <trkpt lat="41.47706" lon="1.49087">
        <ele>535.8</ele>
        <time>2022-05-20 21:37:09</time>
      </trkpt>
      <trkpt lat="41.47715" lon="1.49092">
        <ele>535.6</ele>
        <time>2022-05-20 21:37:10</time>
      </trkpt>
      <trkpt lat="41.47724" lon="1.49096">
        <ele>535.6</ele>
        <time>2022-05-20 21:37:11</time>
      </trkpt>
      <trkpt lat="41.47733" lon="1.49101">
        <ele>535.4</ele>
        <time>2022-05-20 21:37:12</time>
      </trkpt>
      <trkpt lat="41.47741" lon="1.49106">
        <ele>535.4</ele>
        <time>2022-05-20 21:37:13</time>
      </trkpt>
      <trkpt lat="41.4775" lon="1.49111">
        <ele>535.4</ele>
        <time>2022-05-20 21:37:14</time>
      </trkpt>
      <trkpt lat="41.47758" lon="1.49116">
        <ele>535.4</ele>
        <time>2022-05-20 21:37:15</time>
      </trkpt>
      <trkpt lat="41.47768" lon="1.49121">
        <ele>535.4</ele>
        <time>2022-05-20 21:37:16</time>
      </trkpt>
      <trkpt lat="41.47777" lon="1.49126">
        <ele>535.4</ele>
        <time>2022-05-20 21:37:17</time>
      </trkpt>
      <trkpt lat="41.47785" lon="1.49131">
        <ele>535.4</ele>
        <time>2022-05-20 21:37:18</time>
      </trkpt>
      <trkpt lat="41.47793" lon="1.49137">
        <ele>535.4</ele>
        <time>2022-05-20 21:37:19</time>
      </trkpt>
      <trkpt lat="41.47801" lon="1.49144">
        <ele>535.2</ele>
        <time>2022-05-20 21:37:20</time>
      </trkpt>
      <trkpt lat="41.47808" lon="1.4915">
        <ele>535.2</ele>
        <time>2022-05-20 21:37:21</time>
      </trkpt>
      <trkpt lat="41.47815" lon="1.49158">
        <ele>535.2</ele>
        <time>2022-05-20 21:37:22</time>
      </trkpt>
      <trkpt lat="41.47822" lon="1.49165">
        <ele>535.2</ele>
        <time>2022-05-20 21:37:23</time>
      </trkpt>
      <trkpt lat="41.47829" lon="1.49173">
        <ele>535.2</ele>
        <time>2022-05-20 21:37:24</time>
      </trkpt>
      <trkpt lat="41.47836" lon="1.49181">
        <ele>535</ele>
        <time>2022-05-20 21:37:25</time>
      </trkpt>
      <trkpt lat="41.47842" lon="1.49189">
        <ele>535</ele>
        <time>2022-05-20 21:37:26</time>
      </trkpt>
      <trkpt lat="41.47848" lon="1.49198">
        <ele>535</ele>
        <time>2022-05-20 21:37:27</time>
      </trkpt>
      <trkpt lat="41.47853" lon="1.49208">
        <ele>534.8</ele>
        <time>2022-05-20 21:37:28</time>
      </trkpt>
      <trkpt lat="41.47858" lon="1.49218">
        <ele>534.8</ele>
        <time>2022-05-20 21:37:29</time>
      </trkpt>
      <trkpt lat="41.47861" lon="1.49229">
        <ele>534.8</ele>
        <time>2022-05-20 21:37:30</time>
      </trkpt>
      <trkpt lat="41.47865" lon="1.4924">
        <ele>534.6</ele>
        <time>2022-05-20 21:37:31</time>
      </trkpt>
      <trkpt lat="41.47868" lon="1.49251">
        <ele>534.6</ele>
        <time>2022-05-20 21:37:32</time>
      </trkpt>
      <trkpt lat="41.47871" lon="1.49262">
        <ele>534.6</ele>
        <time>2022-05-20 21:37:33</time>
      </trkpt>
      <trkpt lat="41.47874" lon="1.49273">
        <ele>534.6</ele>
        <time>2022-05-20 21:37:34</time>
      </trkpt>
      <trkpt lat="41.47878" lon="1.49284">
        <ele>534.4</ele>
        <time>2022-05-20 21:37:35</time>
      </trkpt>
      <trkpt lat="41.47881" lon="1.49295">
        <ele>534.4</ele>
        <time>2022-05-20 21:37:36</time>
      </trkpt>
      <trkpt lat="41.47884" lon="1.49306">
        <ele>534.4</ele>
        <time>2022-05-20 21:37:37</time>
      </trkpt>
      <trkpt lat="41.47887" lon="1.49317">
        <ele>534.2</ele>
        <time>2022-05-20 21:37:38</time>
      </trkpt>
      <trkpt lat="41.4789" lon="1.49328">
        <ele>534.2</ele>
        <time>2022-05-20 21:37:39</time>
      </trkpt>
      <trkpt lat="41.47894" lon="1.49339">
        <ele>534.2</ele>
        <time>2022-05-20 21:37:40</time>
      </trkpt>
      <trkpt lat="41.47897" lon="1.49349">
        <ele>534</ele>
        <time>2022-05-20 21:37:41</time>
      </trkpt>
      <trkpt lat="41.479" lon="1.4936">
        <ele>534</ele>
        <time>2022-05-20 21:37:42</time>
      </trkpt>
      <trkpt lat="41.47903" lon="1.49371">
        <ele>533.8</ele>
        <time>2022-05-20 21:37:43</time>
      </trkpt>
      <trkpt lat="41.47907" lon="1.49383">
        <ele>533.4</ele>
        <time>2022-05-20 21:37:44</time>
      </trkpt>
      <trkpt lat="41.47911" lon="1.49395">
        <ele>533.2</ele>
        <time>2022-05-20 21:37:45</time>
      </trkpt>
      <trkpt lat="41.47915" lon="1.49406">
        <ele>532.8</ele>
        <time>2022-05-20 21:37:46</time>
      </trkpt>
      <trkpt lat="41.47919" lon="1.49418">
        <ele>532.4</ele>
        <time>2022-05-20 21:37:47</time>
      </trkpt>
      <trkpt lat="41.47924" lon="1.4943">
        <ele>532</ele>
        <time>2022-05-20 21:37:48</time>
      </trkpt>
      <trkpt lat="41.47931" lon="1.4944">
        <ele>531.4</ele>
        <time>2022-05-20 21:37:49</time>
      </trkpt>
      <trkpt lat="41.47938" lon="1.49451">
        <ele>531</ele>
        <time>2022-05-20 21:37:50</time>
      </trkpt>
      <trkpt lat="41.47946" lon="1.4946">
        <ele>530.6</ele>
        <time>2022-05-20 21:37:51</time>
      </trkpt>
      <trkpt lat="41.47954" lon="1.49469">
        <ele>530.2</ele>
        <time>2022-05-20 21:37:52</time>
      </trkpt>
      <trkpt lat="41.47961" lon="1.49479">
        <ele>530</ele>
        <time>2022-05-20 21:37:53</time>
      </trkpt>
      <trkpt lat="41.47969" lon="1.49487">
        <ele>529.8</ele>
        <time>2022-05-20 21:37:54</time>
      </trkpt>
      <trkpt lat="41.47978" lon="1.49495">
        <ele>529.8</ele>
        <time>2022-05-20 21:37:55</time>
      </trkpt>
      <trkpt lat="41.47986" lon="1.49503">
        <ele>529.6</ele>
        <time>2022-05-20 21:37:56</time>
      </trkpt>
      <trkpt lat="41.47993" lon="1.49511">
        <ele>529.6</ele>
        <time>2022-05-20 21:37:57</time>
      </trkpt>
      <trkpt lat="41.48" lon="1.4952">
        <ele>529.6</ele>
        <time>2022-05-20 21:37:58</time>
      </trkpt>
      <trkpt lat="41.48007" lon="1.49529">
        <ele>529.4</ele>
        <time>2022-05-20 21:37:59</time>
      </trkpt>
      <trkpt lat="41.48013" lon="1.49537">
        <ele>529.4</ele>
        <time>2022-05-20 21:38:00</time>
      </trkpt>
      <trkpt lat="41.48019" lon="1.49545">
        <ele>529.4</ele>
        <time>2022-05-20 21:38:01</time>
      </trkpt>
      <trkpt lat="41.48025" lon="1.49554">
        <ele>529.6</ele>
        <time>2022-05-20 21:38:02</time>
      </trkpt>
      <trkpt lat="41.4803" lon="1.49562">
        <ele>529.8</ele>
        <time>2022-05-20 21:38:03</time>
      </trkpt>
      <trkpt lat="41.48035" lon="1.49571">
        <ele>529.8</ele>
        <time>2022-05-20 21:38:04</time>
      </trkpt>
      <trkpt lat="41.48039" lon="1.4958">
        <ele>530</ele>
        <time>2022-05-20 21:38:05</time>
      </trkpt>
      <trkpt lat="41.48043" lon="1.49588">
        <ele>530.2</ele>
        <time>2022-05-20 21:38:06</time>
      </trkpt>
      <trkpt lat="41.48047" lon="1.49597">
        <ele>530.4</ele>
        <time>2022-05-20 21:38:07</time>
      </trkpt>
      <trkpt lat="41.4805" lon="1.49606">
        <ele>530.6</ele>
        <time>2022-05-20 21:38:08</time>
      </trkpt>
      <trkpt lat="41.48053" lon="1.49615">
        <ele>530.8</ele>
        <time>2022-05-20 21:38:09</time>
      </trkpt>
      <trkpt lat="41.48056" lon="1.49624">
        <ele>531</ele>
        <time>2022-05-20 21:38:10</time>
      </trkpt>
      <trkpt lat="41.48058" lon="1.49633">
        <ele>531.2</ele>
        <time>2022-05-20 21:38:11</time>
      </trkpt>
      <trkpt lat="41.48061" lon="1.49641">
        <ele>531.2</ele>
        <time>2022-05-20 21:38:12</time>
      </trkpt>
      <trkpt lat="41.48064" lon="1.4965">
        <ele>531.2</ele>
        <time>2022-05-20 21:38:13</time>
      </trkpt>
      <trkpt lat="41.48067" lon="1.49659">
        <ele>531</ele>
        <time>2022-05-20 21:38:14</time>
      </trkpt>
      <trkpt lat="41.48071" lon="1.49668">
        <ele>530.8</ele>
        <time>2022-05-20 21:38:15</time>
      </trkpt>
      <trkpt lat="41.48077" lon="1.49677">
        <ele>530.6</ele>
        <time>2022-05-20 21:38:16</time>
      </trkpt>
      <trkpt lat="41.48082" lon="1.49686">
        <ele>530.2</ele>
        <time>2022-05-20 21:38:17</time>
      </trkpt>
      <trkpt lat="41.48088" lon="1.49695">
        <ele>529.8</ele>
        <time>2022-05-20 21:38:18</time>
      </trkpt>
      <trkpt lat="41.48095" lon="1.49703">
        <ele>529.4</ele>
        <time>2022-05-20 21:38:19</time>
      </trkpt>
      <trkpt lat="41.48101" lon="1.49712">
        <ele>528.8</ele>
        <time>2022-05-20 21:38:20</time>
      </trkpt>
      <trkpt lat="41.48108" lon="1.49722">
        <ele>528.4</ele>
        <time>2022-05-20 21:38:21</time>
      </trkpt>
      <trkpt lat="41.48114" lon="1.49732">
        <ele>527.8</ele>
        <time>2022-05-20 21:38:22</time>
      </trkpt>
      <trkpt lat="41.4812" lon="1.49741">
        <ele>527.2</ele>
        <time>2022-05-20 21:38:23</time>
      </trkpt>
      <trkpt lat="41.48127" lon="1.49751">
        <ele>526.8</ele>
        <time>2022-05-20 21:38:24</time>
      </trkpt>
      <trkpt lat="41.48135" lon="1.4976">
        <ele>526.2</ele>
        <time>2022-05-20 21:38:25</time>
      </trkpt>
      <trkpt lat="41.48143" lon="1.49771">
        <ele>525.6</ele>
        <time>2022-05-20 21:38:26</time>
      </trkpt>
      <trkpt lat="41.48152" lon="1.49781">
        <ele>525</ele>
        <time>2022-05-20 21:38:27</time>
      </trkpt>
      <trkpt lat="41.4816" lon="1.49791">
        <ele>524.6</ele>
        <time>2022-05-20 21:38:28</time>
      </trkpt>
      <trkpt lat="41.48167" lon="1.49801">
        <ele>524.4</ele>
        <time>2022-05-20 21:38:29</time>
      </trkpt>
      <trkpt lat="41.48173" lon="1.49811">
        <ele>524.2</ele>
        <time>2022-05-20 21:38:30</time>
      </trkpt>
      <trkpt lat="41.48178" lon="1.49823">
        <ele>524</ele>
        <time>2022-05-20 21:38:31</time>
      </trkpt>
      <trkpt lat="41.48182" lon="1.49835">
        <ele>523.8</ele>
        <time>2022-05-20 21:38:32</time>
      </trkpt>
      <trkpt lat="41.48186" lon="1.49847">
        <ele>523.6</ele>
        <time>2022-05-20 21:38:33</time>
      </trkpt>
      <trkpt lat="41.4819" lon="1.49859">
        <ele>523.6</ele>
        <time>2022-05-20 21:38:34</time>
      </trkpt>
      <trkpt lat="41.48193" lon="1.4987">
        <ele>523.4</ele>
        <time>2022-05-20 21:38:35</time>
      </trkpt>
      <trkpt lat="41.48197" lon="1.49881">
        <ele>523.4</ele>
        <time>2022-05-20 21:38:36</time>
      </trkpt>
      <trkpt lat="41.482" lon="1.49893">
        <ele>523.2</ele>
        <time>2022-05-20 21:38:37</time>
      </trkpt>
      <trkpt lat="41.48204" lon="1.49904">
        <ele>523.2</ele>
        <time>2022-05-20 21:38:38</time>
      </trkpt>
      <trkpt lat="41.48208" lon="1.49916">
        <ele>523.2</ele>
        <time>2022-05-20 21:38:39</time>
      </trkpt>
      <trkpt lat="41.48212" lon="1.49927">
        <ele>523</ele>
        <time>2022-05-20 21:38:40</time>
      </trkpt>
      <trkpt lat="41.48215" lon="1.49937">
        <ele>523</ele>
        <time>2022-05-20 21:38:41</time>
      </trkpt>
      <trkpt lat="41.48219" lon="1.49948">
        <ele>523</ele>
        <time>2022-05-20 21:38:42</time>
      </trkpt>
      <trkpt lat="41.48222" lon="1.49959">
        <ele>522.8</ele>
        <time>2022-05-20 21:38:43</time>
      </trkpt>
      <trkpt lat="41.48226" lon="1.4997">
        <ele>522.8</ele>
        <time>2022-05-20 21:38:44</time>
      </trkpt>
      <trkpt lat="41.48228" lon="1.49981">
        <ele>522.8</ele>
        <time>2022-05-20 21:38:45</time>
      </trkpt>
      <trkpt lat="41.48232" lon="1.49992">
        <ele>522.6</ele>
        <time>2022-05-20 21:38:46</time>
      </trkpt>
      <trkpt lat="41.48235" lon="1.50003">
        <ele>522.6</ele>
        <time>2022-05-20 21:38:47</time>
      </trkpt>
      <trkpt lat="41.48238" lon="1.50014">
        <ele>522.4</ele>
        <time>2022-05-20 21:38:48</time>
      </trkpt>
      <trkpt lat="41.48241" lon="1.50024">
        <ele>522.4</ele>
        <time>2022-05-20 21:38:49</time>
      </trkpt>
      <trkpt lat="41.48245" lon="1.50035">
        <ele>522.4</ele>
        <time>2022-05-20 21:38:50</time>
      </trkpt>
      <trkpt lat="41.48249" lon="1.50045">
        <ele>522.4</ele>
        <time>2022-05-20 21:38:51</time>
      </trkpt>
      <trkpt lat="41.48254" lon="1.50054">
        <ele>522.2</ele>
        <time>2022-05-20 21:38:52</time>
      </trkpt>
      <trkpt lat="41.48259" lon="1.50063">
        <ele>522.2</ele>
        <time>2022-05-20 21:38:53</time>
      </trkpt>
      <trkpt lat="41.48266" lon="1.50071">
        <ele>522</ele>
        <time>2022-05-20 21:38:54</time>
      </trkpt>
      <trkpt lat="41.48273" lon="1.50077">
        <ele>522</ele>
        <time>2022-05-20 21:38:55</time>
      </trkpt>
      <trkpt lat="41.48281" lon="1.50083">
        <ele>521.8</ele>
        <time>2022-05-20 21:38:56</time>
      </trkpt>
      <trkpt lat="41.48288" lon="1.50088">
        <ele>521.6</ele>
        <time>2022-05-20 21:38:57</time>
      </trkpt>
      <trkpt lat="41.48296" lon="1.50094">
        <ele>521.4</ele>
        <time>2022-05-20 21:38:58</time>
      </trkpt>
      <trkpt lat="41.48304" lon="1.50099">
        <ele>521.2</ele>
        <time>2022-05-20 21:38:59</time>
      </trkpt>
      <trkpt lat="41.48312" lon="1.50105">
        <ele>521</ele>
        <time>2022-05-20 21:39:00</time>
      </trkpt>
      <trkpt lat="41.4832" lon="1.50111">
        <ele>521</ele>
        <time>2022-05-20 21:39:01</time>
      </trkpt>
      <trkpt lat="41.48328" lon="1.50116">
        <ele>520.8</ele>
        <time>2022-05-20 21:39:02</time>
      </trkpt>
      <trkpt lat="41.48336" lon="1.50122">
        <ele>520.6</ele>
        <time>2022-05-20 21:39:03</time>
      </trkpt>
      <trkpt lat="41.48345" lon="1.50127">
        <ele>520.6</ele>
        <time>2022-05-20 21:39:04</time>
      </trkpt>
      <trkpt lat="41.48353" lon="1.50133">
        <ele>520.4</ele>
        <time>2022-05-20 21:39:05</time>
      </trkpt>
      <trkpt lat="41.4836" lon="1.50138">
        <ele>520.4</ele>
        <time>2022-05-20 21:39:06</time>
      </trkpt>
      <trkpt lat="41.48368" lon="1.50144">
        <ele>520.2</ele>
        <time>2022-05-20 21:39:07</time>
      </trkpt>
      <trkpt lat="41.48375" lon="1.5015">
        <ele>520.2</ele>
        <time>2022-05-20 21:39:08</time>
      </trkpt>
      <trkpt lat="41.48383" lon="1.50155">
        <ele>520</ele>
        <time>2022-05-20 21:39:09</time>
      </trkpt>
      <trkpt lat="41.48392" lon="1.50161">
        <ele>520</ele>
        <time>2022-05-20 21:39:10</time>
      </trkpt>
      <trkpt lat="41.484" lon="1.50166">
        <ele>519.8</ele>
        <time>2022-05-20 21:39:11</time>
      </trkpt>
      <trkpt lat="41.48409" lon="1.5017">
        <ele>519.6</ele>
        <time>2022-05-20 21:39:12</time>
      </trkpt>
      <trkpt lat="41.48418" lon="1.50175">
        <ele>519.4</ele>
        <time>2022-05-20 21:39:13</time>
      </trkpt>
      <trkpt lat="41.48427" lon="1.50181">
        <ele>519.2</ele>
        <time>2022-05-20 21:39:14</time>
      </trkpt>
      <trkpt lat="41.48435" lon="1.50186">
        <ele>519</ele>
        <time>2022-05-20 21:39:15</time>
      </trkpt>
      <trkpt lat="41.48443" lon="1.50192">
        <ele>519</ele>
        <time>2022-05-20 21:39:16</time>
      </trkpt>
      <trkpt lat="41.48451" lon="1.50198">
        <ele>518.8</ele>
        <time>2022-05-20 21:39:17</time>
      </trkpt>
      <trkpt lat="41.4846" lon="1.50204">
        <ele>518.8</ele>
        <time>2022-05-20 21:39:18</time>
      </trkpt>
      <trkpt lat="41.48468" lon="1.50209">
        <ele>518.6</ele>
        <time>2022-05-20 21:39:19</time>
      </trkpt>
      <trkpt lat="41.48476" lon="1.50216">
        <ele>518.4</ele>
        <time>2022-05-20 21:39:20</time>
      </trkpt>
      <trkpt lat="41.48483" lon="1.50222">
        <ele>518.2</ele>
        <time>2022-05-20 21:39:21</time>
      </trkpt>
      <trkpt lat="41.48491" lon="1.50229">
        <ele>518</ele>
        <time>2022-05-20 21:39:22</time>
      </trkpt>
      <trkpt lat="41.48497" lon="1.50237">
        <ele>517.8</ele>
        <time>2022-05-20 21:39:23</time>
      </trkpt>
      <trkpt lat="41.48503" lon="1.50247">
        <ele>517.6</ele>
        <time>2022-05-20 21:39:24</time>
      </trkpt>
      <trkpt lat="41.48509" lon="1.50257">
        <ele>517.4</ele>
        <time>2022-05-20 21:39:25</time>
      </trkpt>
      <trkpt lat="41.48513" lon="1.50267">
        <ele>517.2</ele>
        <time>2022-05-20 21:39:26</time>
      </trkpt>
      <trkpt lat="41.48518" lon="1.50277">
        <ele>517</ele>
        <time>2022-05-20 21:39:27</time>
      </trkpt>
      <trkpt lat="41.48523" lon="1.50288">
        <ele>516.8</ele>
        <time>2022-05-20 21:39:28</time>
      </trkpt>
      <trkpt lat="41.48528" lon="1.50298">
        <ele>516.6</ele>
        <time>2022-05-20 21:39:29</time>
      </trkpt>
      <trkpt lat="41.48534" lon="1.50309">
        <ele>516.4</ele>
        <time>2022-05-20 21:39:30</time>
      </trkpt>
      <trkpt lat="41.48539" lon="1.50319">
        <ele>516.2</ele>
        <time>2022-05-20 21:39:31</time>
      </trkpt>
      <trkpt lat="41.48543" lon="1.5033">
        <ele>516</ele>
        <time>2022-05-20 21:39:32</time>
      </trkpt>
      <trkpt lat="41.48547" lon="1.50341">
        <ele>515.8</ele>
        <time>2022-05-20 21:39:33</time>
      </trkpt>
      <trkpt lat="41.48552" lon="1.50352">
        <ele>515.6</ele>
        <time>2022-05-20 21:39:34</time>
      </trkpt>
      <trkpt lat="41.48555" lon="1.50364">
        <ele>515.4</ele>
        <time>2022-05-20 21:39:35</time>
      </trkpt>
      <trkpt lat="41.4856" lon="1.50375">
        <ele>515.2</ele>
        <time>2022-05-20 21:39:36</time>
      </trkpt>
      <trkpt lat="41.48565" lon="1.50385">
        <ele>515</ele>
        <time>2022-05-20 21:39:37</time>
      </trkpt>
      <trkpt lat="41.48569" lon="1.50396">
        <ele>514.8</ele>
        <time>2022-05-20 21:39:38</time>
      </trkpt>
      <trkpt lat="41.48573" lon="1.50406">
        <ele>514.8</ele>
        <time>2022-05-20 21:39:39</time>
      </trkpt>
      <trkpt lat="41.48578" lon="1.50416">
        <ele>514.6</ele>
        <time>2022-05-20 21:39:40</time>
      </trkpt>
      <trkpt lat="41.48581" lon="1.50424">
        <ele>514.6</ele>
        <time>2022-05-20 21:39:41</time>
      </trkpt>
      <trkpt lat="41.48584" lon="1.50429">
        <ele>514.6</ele>
        <time>2022-05-20 21:39:42</time>
      </trkpt>
      <trkpt lat="41.48589" lon="1.5044">
        <ele>514.4</ele>
        <time>2022-05-20 21:39:43</time>
      </trkpt>
      <trkpt lat="41.48595" lon="1.50454">
        <ele>514.4</ele>
        <time>2022-05-20 21:39:44</time>
      </trkpt>
      <trkpt lat="41.486" lon="1.50465">
        <ele>514.2</ele>
        <time>2022-05-20 21:39:45</time>
      </trkpt>
      <trkpt lat="41.48605" lon="1.50475">
        <ele>514.2</ele>
        <time>2022-05-20 21:39:46</time>
      </trkpt>
      <trkpt lat="41.4861" lon="1.50485">
        <ele>514.2</ele>
        <time>2022-05-20 21:39:47</time>
      </trkpt>
      <trkpt lat="41.48615" lon="1.50495">
        <ele>514</ele>
        <time>2022-05-20 21:39:48</time>
      </trkpt>
      <trkpt lat="41.48619" lon="1.50505">
        <ele>514</ele>
        <time>2022-05-20 21:39:49</time>
      </trkpt>
      <trkpt lat="41.48623" lon="1.50515">
        <ele>513.8</ele>
        <time>2022-05-20 21:39:50</time>
      </trkpt>
      <trkpt lat="41.48627" lon="1.50525">
        <ele>513.8</ele>
        <time>2022-05-20 21:39:51</time>
      </trkpt>
      <trkpt lat="41.48632" lon="1.50535">
        <ele>513.6</ele>
        <time>2022-05-20 21:39:52</time>
      </trkpt>
      <trkpt lat="41.48637" lon="1.50545">
        <ele>513.6</ele>
        <time>2022-05-20 21:39:53</time>
      </trkpt>
      <trkpt lat="41.48641" lon="1.50555">
        <ele>513.6</ele>
        <time>2022-05-20 21:39:54</time>
      </trkpt>
      <trkpt lat="41.48645" lon="1.50565">
        <ele>513.4</ele>
        <time>2022-05-20 21:39:55</time>
      </trkpt>
      <trkpt lat="41.4865" lon="1.50575">
        <ele>513.4</ele>
        <time>2022-05-20 21:39:56</time>
      </trkpt>
      <trkpt lat="41.48655" lon="1.50585">
        <ele>513.4</ele>
        <time>2022-05-20 21:39:57</time>
      </trkpt>
      <trkpt lat="41.4866" lon="1.50594">
        <ele>513.4</ele>
        <time>2022-05-20 21:39:58</time>
      </trkpt>
      <trkpt lat="41.48664" lon="1.50604">
        <ele>513.4</ele>
        <time>2022-05-20 21:39:59</time>
      </trkpt>
      <trkpt lat="41.48668" lon="1.50613">
        <ele>513.4</ele>
        <time>2022-05-20 21:40:00</time>
      </trkpt>
      <trkpt lat="41.48673" lon="1.50623">
        <ele>513.2</ele>
        <time>2022-05-20 21:40:01</time>
      </trkpt>
      <trkpt lat="41.48677" lon="1.50633">
        <ele>513.2</ele>
        <time>2022-05-20 21:40:02</time>
      </trkpt>
      <trkpt lat="41.48681" lon="1.50643">
        <ele>513</ele>
        <time>2022-05-20 21:40:03</time>
      </trkpt>
      <trkpt lat="41.48686" lon="1.50654">
        <ele>512.8</ele>
        <time>2022-05-20 21:40:04</time>
      </trkpt>
      <trkpt lat="41.4869" lon="1.50664">
        <ele>512.6</ele>
        <time>2022-05-20 21:40:05</time>
      </trkpt>
      <trkpt lat="41.48695" lon="1.50674">
        <ele>512.4</ele>
        <time>2022-05-20 21:40:06</time>
      </trkpt>
      <trkpt lat="41.487" lon="1.50684">
        <ele>512.2</ele>
        <time>2022-05-20 21:40:07</time>
      </trkpt>
      <trkpt lat="41.48704" lon="1.50694">
        <ele>512</ele>
        <time>2022-05-20 21:40:08</time>
      </trkpt>
      <trkpt lat="41.48709" lon="1.50704">
        <ele>511.8</ele>
        <time>2022-05-20 21:40:09</time>
      </trkpt>
      <trkpt lat="41.48713" lon="1.50715">
        <ele>511.6</ele>
        <time>2022-05-20 21:40:10</time>
      </trkpt>
      <trkpt lat="41.48718" lon="1.50726">
        <ele>511.2</ele>
        <time>2022-05-20 21:40:11</time>
      </trkpt>
      <trkpt lat="41.48722" lon="1.50737">
        <ele>511</ele>
        <time>2022-05-20 21:40:12</time>
      </trkpt>
      <trkpt lat="41.48726" lon="1.50747">
        <ele>510.8</ele>
        <time>2022-05-20 21:40:13</time>
      </trkpt>
      <trkpt lat="41.48731" lon="1.50758">
        <ele>510.4</ele>
        <time>2022-05-20 21:40:14</time>
      </trkpt>
      <trkpt lat="41.48736" lon="1.50768">
        <ele>510</ele>
        <time>2022-05-20 21:40:15</time>
      </trkpt>
      <trkpt lat="41.48741" lon="1.50779">
        <ele>509.8</ele>
        <time>2022-05-20 21:40:16</time>
      </trkpt>
      <trkpt lat="41.48745" lon="1.5079">
        <ele>509.4</ele>
        <time>2022-05-20 21:40:17</time>
      </trkpt>
      <trkpt lat="41.4875" lon="1.50801">
        <ele>509</ele>
        <time>2022-05-20 21:40:18</time>
      </trkpt>
      <trkpt lat="41.48756" lon="1.50812">
        <ele>508.6</ele>
        <time>2022-05-20 21:40:19</time>
      </trkpt>
      <trkpt lat="41.48761" lon="1.50822">
        <ele>508.2</ele>
        <time>2022-05-20 21:40:20</time>
      </trkpt>
      <trkpt lat="41.48767" lon="1.50833">
        <ele>507.8</ele>
        <time>2022-05-20 21:40:21</time>
      </trkpt>
      <trkpt lat="41.48773" lon="1.50844">
        <ele>507.6</ele>
        <time>2022-05-20 21:40:22</time>
      </trkpt>
      <trkpt lat="41.4878" lon="1.50853">
        <ele>507.2</ele>
        <time>2022-05-20 21:40:23</time>
      </trkpt>
      <trkpt lat="41.48788" lon="1.50863">
        <ele>506.8</ele>
        <time>2022-05-20 21:40:24</time>
      </trkpt>
      <trkpt lat="41.48795" lon="1.50871">
        <ele>506.6</ele>
        <time>2022-05-20 21:40:25</time>
      </trkpt>
      <trkpt lat="41.48803" lon="1.50878">
        <ele>506.4</ele>
        <time>2022-05-20 21:40:26</time>
      </trkpt>
      <trkpt lat="41.4881" lon="1.50887">
        <ele>506.4</ele>
        <time>2022-05-20 21:40:27</time>
      </trkpt>
      <trkpt lat="41.48817" lon="1.50895">
        <ele>506.4</ele>
        <time>2022-05-20 21:40:28</time>
      </trkpt>
      <trkpt lat="41.48823" lon="1.50904">
        <ele>506.4</ele>
        <time>2022-05-20 21:40:29</time>
      </trkpt>
      <trkpt lat="41.48829" lon="1.50914">
        <ele>506.4</ele>
        <time>2022-05-20 21:40:30</time>
      </trkpt>
      <trkpt lat="41.48834" lon="1.50923">
        <ele>506.4</ele>
        <time>2022-05-20 21:40:31</time>
      </trkpt>
      <trkpt lat="41.48839" lon="1.50932">
        <ele>506.6</ele>
        <time>2022-05-20 21:40:32</time>
      </trkpt>
      <trkpt lat="41.48843" lon="1.50942">
        <ele>506.8</ele>
        <time>2022-05-20 21:40:33</time>
      </trkpt>
      <trkpt lat="41.48848" lon="1.50951">
        <ele>506.8</ele>
        <time>2022-05-20 21:40:34</time>
      </trkpt>
      <trkpt lat="41.48853" lon="1.5096">
        <ele>507</ele>
        <time>2022-05-20 21:40:35</time>
      </trkpt>
      <trkpt lat="41.48857" lon="1.50969">
        <ele>507</ele>
        <time>2022-05-20 21:40:36</time>
      </trkpt>
      <trkpt lat="41.48862" lon="1.50977">
        <ele>507.2</ele>
        <time>2022-05-20 21:40:37</time>
      </trkpt>
      <trkpt lat="41.48866" lon="1.50985">
        <ele>507.4</ele>
        <time>2022-05-20 21:40:38</time>
      </trkpt>
      <trkpt lat="41.48871" lon="1.50993">
        <ele>507.4</ele>
        <time>2022-05-20 21:40:39</time>
      </trkpt>
      <trkpt lat="41.48875" lon="1.51001">
        <ele>507.6</ele>
        <time>2022-05-20 21:40:40</time>
      </trkpt>
      <trkpt lat="41.48879" lon="1.51009">
        <ele>507.8</ele>
        <time>2022-05-20 21:40:41</time>
      </trkpt>
      <trkpt lat="41.48883" lon="1.51017">
        <ele>508</ele>
        <time>2022-05-20 21:40:42</time>
      </trkpt>
      <trkpt lat="41.48887" lon="1.51025">
        <ele>508</ele>
        <time>2022-05-20 21:40:43</time>
      </trkpt>
      <trkpt lat="41.48892" lon="1.51033">
        <ele>508</ele>
        <time>2022-05-20 21:40:44</time>
      </trkpt>
      <trkpt lat="41.48896" lon="1.51041">
        <ele>508</ele>
        <time>2022-05-20 21:40:45</time>
      </trkpt>
      <trkpt lat="41.489" lon="1.5105">
        <ele>507.8</ele>
        <time>2022-05-20 21:40:46</time>
      </trkpt>
      <trkpt lat="41.48905" lon="1.51058">
        <ele>507.6</ele>
        <time>2022-05-20 21:40:47</time>
      </trkpt>
      <trkpt lat="41.4891" lon="1.51067">
        <ele>507.4</ele>
        <time>2022-05-20 21:40:48</time>
      </trkpt>
      <trkpt lat="41.48914" lon="1.51076">
        <ele>507</ele>
        <time>2022-05-20 21:40:49</time>
      </trkpt>
      <trkpt lat="41.4892" lon="1.51086">
        <ele>506.8</ele>
        <time>2022-05-20 21:40:50</time>
      </trkpt>
      <trkpt lat="41.48925" lon="1.51096">
        <ele>506.4</ele>
        <time>2022-05-20 21:40:51</time>
      </trkpt>
      <trkpt lat="41.4893" lon="1.51105">
        <ele>506.2</ele>
        <time>2022-05-20 21:40:52</time>
      </trkpt>
      <trkpt lat="41.48935" lon="1.51115">
        <ele>505.8</ele>
        <time>2022-05-20 21:40:53</time>
      </trkpt>
      <trkpt lat="41.48939" lon="1.51123">
        <ele>505.6</ele>
        <time>2022-05-20 21:40:54</time>
      </trkpt>
      <trkpt lat="41.48943" lon="1.5113">
        <ele>505.4</ele>
        <time>2022-05-20 21:40:55</time>
      </trkpt>
      <trkpt lat="41.48951" lon="1.51145">
        <ele>504.6</ele>
        <time>2022-05-20 21:40:56</time>
      </trkpt>
      <trkpt lat="41.48956" lon="1.51156">
        <ele>504.2</ele>
        <time>2022-05-20 21:40:57</time>
      </trkpt>
      <trkpt lat="41.48962" lon="1.51167">
        <ele>503.6</ele>
        <time>2022-05-20 21:40:58</time>
      </trkpt>
      <trkpt lat="41.48968" lon="1.51178">
        <ele>503</ele>
        <time>2022-05-20 21:40:59</time>
      </trkpt>
      <trkpt lat="41.48974" lon="1.51189">
        <ele>502.4</ele>
        <time>2022-05-20 21:41:00</time>
      </trkpt>
      <trkpt lat="41.4898" lon="1.512">
        <ele>502</ele>
        <time>2022-05-20 21:41:01</time>
      </trkpt>
      <trkpt lat="41.48986" lon="1.51211">
        <ele>501.8</ele>
        <time>2022-05-20 21:41:02</time>
      </trkpt>
      <trkpt lat="41.48992" lon="1.51222">
        <ele>501.6</ele>
        <time>2022-05-20 21:41:03</time>
      </trkpt>
      <trkpt lat="41.48997" lon="1.51232">
        <ele>501.6</ele>
        <time>2022-05-20 21:41:04</time>
      </trkpt>
      <trkpt lat="41.49003" lon="1.51242">
        <ele>501.6</ele>
        <time>2022-05-20 21:41:05</time>
      </trkpt>
      <trkpt lat="41.49007" lon="1.51252">
        <ele>501.8</ele>
        <time>2022-05-20 21:41:06</time>
      </trkpt>
      <trkpt lat="41.49012" lon="1.51261">
        <ele>502</ele>
        <time>2022-05-20 21:41:07</time>
      </trkpt>
      <trkpt lat="41.49017" lon="1.5127">
        <ele>502.2</ele>
        <time>2022-05-20 21:41:08</time>
      </trkpt>
      <trkpt lat="41.49021" lon="1.51279">
        <ele>502.4</ele>
        <time>2022-05-20 21:41:09</time>
      </trkpt>
      <trkpt lat="41.49026" lon="1.51288">
        <ele>502.6</ele>
        <time>2022-05-20 21:41:10</time>
      </trkpt>
      <trkpt lat="41.4903" lon="1.51296">
        <ele>503</ele>
        <time>2022-05-20 21:41:11</time>
      </trkpt>
      <trkpt lat="41.49033" lon="1.51305">
        <ele>503.2</ele>
        <time>2022-05-20 21:41:12</time>
      </trkpt>
      <trkpt lat="41.49036" lon="1.51314">
        <ele>503.6</ele>
        <time>2022-05-20 21:41:13</time>
      </trkpt>
      <trkpt lat="41.49038" lon="1.51323">
        <ele>503.8</ele>
        <time>2022-05-20 21:41:14</time>
      </trkpt>
      <trkpt lat="41.49038" lon="1.51332">
        <ele>504</ele>
        <time>2022-05-20 21:41:15</time>
      </trkpt>
      <trkpt lat="41.49038" lon="1.51342">
        <ele>504.2</ele>
        <time>2022-05-20 21:41:16</time>
      </trkpt>
      <trkpt lat="41.49039" lon="1.51351">
        <ele>504.4</ele>
        <time>2022-05-20 21:41:17</time>
      </trkpt>
      <trkpt lat="41.49041" lon="1.5136">
        <ele>504.6</ele>
        <time>2022-05-20 21:41:18</time>
      </trkpt>
      <trkpt lat="41.49045" lon="1.51368">
        <ele>504.8</ele>
        <time>2022-05-20 21:41:19</time>
      </trkpt>
      <trkpt lat="41.4905" lon="1.51373">
        <ele>505</ele>
        <time>2022-05-20 21:41:20</time>
      </trkpt>
      <trkpt lat="41.49055" lon="1.51378">
        <ele>505.2</ele>
        <time>2022-05-20 21:41:21</time>
      </trkpt>
      <trkpt lat="41.49061" lon="1.51382">
        <ele>505.4</ele>
        <time>2022-05-20 21:41:22</time>
      </trkpt>
      <trkpt lat="41.49067" lon="1.51386">
        <ele>505.6</ele>
        <time>2022-05-20 21:41:23</time>
      </trkpt>
      <trkpt lat="41.49071" lon="1.51391">
        <ele>505.8</ele>
        <time>2022-05-20 21:41:24</time>
      </trkpt>
      <trkpt lat="41.49076" lon="1.51396">
        <ele>506</ele>
        <time>2022-05-20 21:41:25</time>
      </trkpt>
      <trkpt lat="41.49081" lon="1.51402">
        <ele>506.4</ele>
        <time>2022-05-20 21:41:26</time>
      </trkpt>
      <trkpt lat="41.49085" lon="1.51408">
        <ele>506.6</ele>
        <time>2022-05-20 21:41:27</time>
      </trkpt>
      <trkpt lat="41.49089" lon="1.51413">
        <ele>507</ele>
        <time>2022-05-20 21:41:28</time>
      </trkpt>
      <trkpt lat="41.49092" lon="1.51419">
        <ele>507.4</ele>
        <time>2022-05-20 21:41:29</time>
      </trkpt>
      <trkpt lat="41.49096" lon="1.51425">
        <ele>507.8</ele>
        <time>2022-05-20 21:41:30</time>
      </trkpt>
      <trkpt lat="41.491" lon="1.51431">
        <ele>508</ele>
        <time>2022-05-20 21:41:31</time>
      </trkpt>
      <trkpt lat="41.49103" lon="1.51436">
        <ele>508.4</ele>
        <time>2022-05-20 21:41:32</time>
      </trkpt>
      <trkpt lat="41.49105" lon="1.51442">
        <ele>508.6</ele>
        <time>2022-05-20 21:41:33</time>
      </trkpt>
      <trkpt lat="41.49109" lon="1.51448">
        <ele>509</ele>
        <time>2022-05-20 21:41:34</time>
      </trkpt>
      <trkpt lat="41.49112" lon="1.51453">
        <ele>509.2</ele>
        <time>2022-05-20 21:41:35</time>
      </trkpt>
      <trkpt lat="41.49115" lon="1.51459">
        <ele>509.4</ele>
        <time>2022-05-20 21:41:36</time>
      </trkpt>
      <trkpt lat="41.49118" lon="1.51465">
        <ele>509.6</ele>
        <time>2022-05-20 21:41:37</time>
      </trkpt>
      <trkpt lat="41.49121" lon="1.51471">
        <ele>509.8</ele>
        <time>2022-05-20 21:41:38</time>
      </trkpt>
      <trkpt lat="41.49124" lon="1.51477">
        <ele>510</ele>
        <time>2022-05-20 21:41:39</time>
      </trkpt>
      <trkpt lat="41.49127" lon="1.51483">
        <ele>510</ele>
        <time>2022-05-20 21:41:40</time>
      </trkpt>
      <trkpt lat="41.49131" lon="1.51489">
        <ele>510.2</ele>
        <time>2022-05-20 21:41:41</time>
      </trkpt>
      <trkpt lat="41.49134" lon="1.51495">
        <ele>510.2</ele>
        <time>2022-05-20 21:41:42</time>
      </trkpt>
      <trkpt lat="41.49137" lon="1.51501">
        <ele>510.4</ele>
        <time>2022-05-20 21:41:43</time>
      </trkpt>
      <trkpt lat="41.49141" lon="1.51508">
        <ele>510.4</ele>
        <time>2022-05-20 21:41:44</time>
      </trkpt>
      <trkpt lat="41.49144" lon="1.51514">
        <ele>510.4</ele>
        <time>2022-05-20 21:41:45</time>
      </trkpt>
      <trkpt lat="41.49148" lon="1.51521">
        <ele>510.4</ele>
        <time>2022-05-20 21:41:46</time>
      </trkpt>
      <trkpt lat="41.49151" lon="1.51527">
        <ele>510.6</ele>
        <time>2022-05-20 21:41:47</time>
      </trkpt>
      <trkpt lat="41.49155" lon="1.51534">
        <ele>510.6</ele>
        <time>2022-05-20 21:41:48</time>
      </trkpt>
      <trkpt lat="41.49159" lon="1.51541">
        <ele>510.6</ele>
        <time>2022-05-20 21:41:49</time>
      </trkpt>
      <trkpt lat="41.49163" lon="1.51548">
        <ele>510.4</ele>
        <time>2022-05-20 21:41:50</time>
      </trkpt>
      <trkpt lat="41.49167" lon="1.51555">
        <ele>510.4</ele>
        <time>2022-05-20 21:41:51</time>
      </trkpt>
      <trkpt lat="41.49172" lon="1.51562">
        <ele>510.4</ele>
        <time>2022-05-20 21:41:52</time>
      </trkpt>
      <trkpt lat="41.49177" lon="1.51568">
        <ele>510.2</ele>
        <time>2022-05-20 21:41:53</time>
      </trkpt>
      <trkpt lat="41.49182" lon="1.51572">
        <ele>510.2</ele>
        <time>2022-05-20 21:41:54</time>
      </trkpt>
      <trkpt lat="41.49188" lon="1.51576">
        <ele>510.2</ele>
        <time>2022-05-20 21:41:55</time>
      </trkpt>
      <trkpt lat="41.49195" lon="1.51577">
        <ele>510</ele>
        <time>2022-05-20 21:41:56</time>
      </trkpt>
      <trkpt lat="41.49202" lon="1.51577">
        <ele>509.8</ele>
        <time>2022-05-20 21:41:57</time>
      </trkpt>
      <trkpt lat="41.49209" lon="1.51575">
        <ele>509.6</ele>
        <time>2022-05-20 21:41:58</time>
      </trkpt>
      <trkpt lat="41.49216" lon="1.51571">
        <ele>509.2</ele>
        <time>2022-05-20 21:41:59</time>
      </trkpt>
      <trkpt lat="41.49224" lon="1.51567">
        <ele>508.8</ele>
        <time>2022-05-20 21:42:00</time>
      </trkpt>
      <trkpt lat="41.49232" lon="1.51564">
        <ele>508.2</ele>
        <time>2022-05-20 21:42:01</time>
      </trkpt>
      <trkpt lat="41.4924" lon="1.5156">
        <ele>507.8</ele>
        <time>2022-05-20 21:42:02</time>
      </trkpt>
      <trkpt lat="41.4925" lon="1.51556">
        <ele>507.2</ele>
        <time>2022-05-20 21:42:03</time>
      </trkpt>
      <trkpt lat="41.4926" lon="1.51552">
        <ele>506.6</ele>
        <time>2022-05-20 21:42:04</time>
      </trkpt>
      <trkpt lat="41.49271" lon="1.51552">
        <ele>506</ele>
        <time>2022-05-20 21:42:05</time>
      </trkpt>
      <trkpt lat="41.49281" lon="1.51555">
        <ele>505.4</ele>
        <time>2022-05-20 21:42:06</time>
      </trkpt>
      <trkpt lat="41.49291" lon="1.51562">
        <ele>504.8</ele>
        <time>2022-05-20 21:42:07</time>
      </trkpt>
      <trkpt lat="41.493" lon="1.5157">
        <ele>504.4</ele>
        <time>2022-05-20 21:42:08</time>
      </trkpt>
      <trkpt lat="41.49308" lon="1.51578">
        <ele>504</ele>
        <time>2022-05-20 21:42:09</time>
      </trkpt>
      <trkpt lat="41.49316" lon="1.51587">
        <ele>503.8</ele>
        <time>2022-05-20 21:42:10</time>
      </trkpt>
      <trkpt lat="41.49324" lon="1.51596">
        <ele>503.6</ele>
        <time>2022-05-20 21:42:11</time>
      </trkpt>
      <trkpt lat="41.49331" lon="1.51605">
        <ele>503.4</ele>
        <time>2022-05-20 21:42:12</time>
      </trkpt>
      <trkpt lat="41.49339" lon="1.51614">
        <ele>503.4</ele>
        <time>2022-05-20 21:42:13</time>
      </trkpt>
      <trkpt lat="41.49345" lon="1.51623">
        <ele>503.2</ele>
        <time>2022-05-20 21:42:14</time>
      </trkpt>
      <trkpt lat="41.49351" lon="1.51632">
        <ele>503.2</ele>
        <time>2022-05-20 21:42:15</time>
      </trkpt>
      <trkpt lat="41.49356" lon="1.51642">
        <ele>503.4</ele>
        <time>2022-05-20 21:42:16</time>
      </trkpt>
      <trkpt lat="41.4936" lon="1.51652">
        <ele>503.6</ele>
        <time>2022-05-20 21:42:17</time>
      </trkpt>
      <trkpt lat="41.49363" lon="1.51663">
        <ele>503.8</ele>
        <time>2022-05-20 21:42:18</time>
      </trkpt>
      <trkpt lat="41.49366" lon="1.51674">
        <ele>504</ele>
        <time>2022-05-20 21:42:19</time>
      </trkpt>
      <trkpt lat="41.49368" lon="1.51684">
        <ele>504.2</ele>
        <time>2022-05-20 21:42:20</time>
      </trkpt>
      <trkpt lat="41.4937" lon="1.51694">
        <ele>504.4</ele>
        <time>2022-05-20 21:42:21</time>
      </trkpt>
      <trkpt lat="41.49372" lon="1.51703">
        <ele>504.6</ele>
        <time>2022-05-20 21:42:22</time>
      </trkpt>
      <trkpt lat="41.49373" lon="1.51713">
        <ele>504.8</ele>
        <time>2022-05-20 21:42:23</time>
      </trkpt>
      <trkpt lat="41.49375" lon="1.51723">
        <ele>505</ele>
        <time>2022-05-20 21:42:24</time>
      </trkpt>
      <trkpt lat="41.49377" lon="1.51733">
        <ele>505.2</ele>
        <time>2022-05-20 21:42:25</time>
      </trkpt>
      <trkpt lat="41.49379" lon="1.51742">
        <ele>505.4</ele>
        <time>2022-05-20 21:42:26</time>
      </trkpt>
      <trkpt lat="41.49381" lon="1.51751">
        <ele>505.6</ele>
        <time>2022-05-20 21:42:27</time>
      </trkpt>
      <trkpt lat="41.49383" lon="1.51759">
        <ele>505.8</ele>
        <time>2022-05-20 21:42:28</time>
      </trkpt>
      <trkpt lat="41.49385" lon="1.51768">
        <ele>506</ele>
        <time>2022-05-20 21:42:29</time>
      </trkpt>
      <trkpt lat="41.49387" lon="1.51778">
        <ele>506</ele>
        <time>2022-05-20 21:42:30</time>
      </trkpt>
      <trkpt lat="41.49388" lon="1.51787">
        <ele>506.2</ele>
        <time>2022-05-20 21:42:31</time>
      </trkpt>
      <trkpt lat="41.4939" lon="1.51797">
        <ele>506.2</ele>
        <time>2022-05-20 21:42:32</time>
      </trkpt>
      <trkpt lat="41.49392" lon="1.51806">
        <ele>506.2</ele>
        <time>2022-05-20 21:42:33</time>
      </trkpt>
      <trkpt lat="41.49393" lon="1.51816">
        <ele>506.4</ele>
        <time>2022-05-20 21:42:34</time>
      </trkpt>
      <trkpt lat="41.49396" lon="1.51826">
        <ele>506.4</ele>
        <time>2022-05-20 21:42:35</time>
      </trkpt>
      <trkpt lat="41.49398" lon="1.51835">
        <ele>506.4</ele>
        <time>2022-05-20 21:42:36</time>
      </trkpt>
      <trkpt lat="41.49401" lon="1.51844">
        <ele>506.6</ele>
        <time>2022-05-20 21:42:37</time>
      </trkpt>
      <trkpt lat="41.49405" lon="1.51853">
        <ele>506.6</ele>
        <time>2022-05-20 21:42:38</time>
      </trkpt>
      <trkpt lat="41.49409" lon="1.51861">
        <ele>506.6</ele>
        <time>2022-05-20 21:42:39</time>
      </trkpt>
      <trkpt lat="41.49414" lon="1.51868">
        <ele>506.8</ele>
        <time>2022-05-20 21:42:40</time>
      </trkpt>
      <trkpt lat="41.4942" lon="1.51875">
        <ele>506.8</ele>
        <time>2022-05-20 21:42:41</time>
      </trkpt>
      <trkpt lat="41.49426" lon="1.51881">
        <ele>506.8</ele>
        <time>2022-05-20 21:42:42</time>
      </trkpt>
      <trkpt lat="41.49432" lon="1.51886">
        <ele>506.8</ele>
        <time>2022-05-20 21:42:43</time>
      </trkpt>
      <trkpt lat="41.49439" lon="1.51892">
        <ele>506.8</ele>
        <time>2022-05-20 21:42:44</time>
      </trkpt>
      <trkpt lat="41.49446" lon="1.51897">
        <ele>506.8</ele>
        <time>2022-05-20 21:42:45</time>
      </trkpt>
      <trkpt lat="41.49452" lon="1.51902">
        <ele>506.8</ele>
        <time>2022-05-20 21:42:46</time>
      </trkpt>
      <trkpt lat="41.49459" lon="1.51907">
        <ele>506.6</ele>
        <time>2022-05-20 21:42:47</time>
      </trkpt>
      <trkpt lat="41.49466" lon="1.51912">
        <ele>506.6</ele>
        <time>2022-05-20 21:42:48</time>
      </trkpt>
      <trkpt lat="41.49472" lon="1.51917">
        <ele>506.6</ele>
        <time>2022-05-20 21:42:49</time>
      </trkpt>
      <trkpt lat="41.49479" lon="1.51922">
        <ele>506.6</ele>
        <time>2022-05-20 21:42:50</time>
      </trkpt>
      <trkpt lat="41.49485" lon="1.51926">
        <ele>506.6</ele>
        <time>2022-05-20 21:42:51</time>
      </trkpt>
      <trkpt lat="41.49491" lon="1.5193">
        <ele>506.6</ele>
        <time>2022-05-20 21:42:52</time>
      </trkpt>
      <trkpt lat="41.49499" lon="1.51933">
        <ele>506.4</ele>
        <time>2022-05-20 21:42:53</time>
      </trkpt>
      <trkpt lat="41.49507" lon="1.51935">
        <ele>506</ele>
        <time>2022-05-20 21:42:54</time>
      </trkpt>
      <trkpt lat="41.49517" lon="1.51936">
        <ele>505.6</ele>
        <time>2022-05-20 21:42:55</time>
      </trkpt>
      <trkpt lat="41.49526" lon="1.51936">
        <ele>505.2</ele>
        <time>2022-05-20 21:42:56</time>
      </trkpt>
      <trkpt lat="41.49536" lon="1.51936">
        <ele>504.4</ele>
        <time>2022-05-20 21:42:57</time>
      </trkpt>
      <trkpt lat="41.49546" lon="1.51935">
        <ele>503.8</ele>
        <time>2022-05-20 21:42:58</time>
      </trkpt>
      <trkpt lat="41.49557" lon="1.51935">
        <ele>503.2</ele>
        <time>2022-05-20 21:42:59</time>
      </trkpt>
      <trkpt lat="41.49568" lon="1.51934">
        <ele>502.6</ele>
        <time>2022-05-20 21:43:00</time>
      </trkpt>
      <trkpt lat="41.49579" lon="1.51933">
        <ele>502.2</ele>
        <time>2022-05-20 21:43:01</time>
      </trkpt>
      <trkpt lat="41.4959" lon="1.51932">
        <ele>502</ele>
        <time>2022-05-20 21:43:02</time>
      </trkpt>
      <trkpt lat="41.496" lon="1.51931">
        <ele>501.6</ele>
        <time>2022-05-20 21:43:03</time>
      </trkpt>
      <trkpt lat="41.4961" lon="1.5193">
        <ele>501.6</ele>
        <time>2022-05-20 21:43:04</time>
      </trkpt>
      <trkpt lat="41.4962" lon="1.51931">
        <ele>501.6</ele>
        <time>2022-05-20 21:43:05</time>
      </trkpt>
      <trkpt lat="41.49628" lon="1.51934">
        <ele>501.6</ele>
        <time>2022-05-20 21:43:06</time>
      </trkpt>
      <trkpt lat="41.49636" lon="1.5194">
        <ele>501.6</ele>
        <time>2022-05-20 21:43:07</time>
      </trkpt>
      <trkpt lat="41.49642" lon="1.51948">
        <ele>501.6</ele>
        <time>2022-05-20 21:43:08</time>
      </trkpt>
      <trkpt lat="41.49647" lon="1.51957">
        <ele>501.8</ele>
        <time>2022-05-20 21:43:09</time>
      </trkpt>
      <trkpt lat="41.49652" lon="1.51966">
        <ele>501.8</ele>
        <time>2022-05-20 21:43:10</time>
      </trkpt>
      <trkpt lat="41.49656" lon="1.51975">
        <ele>502</ele>
        <time>2022-05-20 21:43:11</time>
      </trkpt>
      <trkpt lat="41.4966" lon="1.51985">
        <ele>502</ele>
        <time>2022-05-20 21:43:12</time>
      </trkpt>
      <trkpt lat="41.49664" lon="1.51994">
        <ele>502.2</ele>
        <time>2022-05-20 21:43:13</time>
      </trkpt>
      <trkpt lat="41.49668" lon="1.52003">
        <ele>502.2</ele>
        <time>2022-05-20 21:43:14</time>
      </trkpt>
      <trkpt lat="41.49672" lon="1.52012">
        <ele>502.4</ele>
        <time>2022-05-20 21:43:15</time>
      </trkpt>
      <trkpt lat="41.49677" lon="1.52021">
        <ele>502.4</ele>
        <time>2022-05-20 21:43:16</time>
      </trkpt>
      <trkpt lat="41.49681" lon="1.52029">
        <ele>502.4</ele>
        <time>2022-05-20 21:43:17</time>
      </trkpt>
      <trkpt lat="41.49685" lon="1.52038">
        <ele>502.4</ele>
        <time>2022-05-20 21:43:18</time>
      </trkpt>
      <trkpt lat="41.49689" lon="1.52047">
        <ele>502.6</ele>
        <time>2022-05-20 21:43:19</time>
      </trkpt>
      <trkpt lat="41.49694" lon="1.52056">
        <ele>502.6</ele>
        <time>2022-05-20 21:43:20</time>
      </trkpt>
      <trkpt lat="41.49698" lon="1.52065">
        <ele>502.6</ele>
        <time>2022-05-20 21:43:21</time>
      </trkpt>
      <trkpt lat="41.49702" lon="1.52074">
        <ele>502.6</ele>
        <time>2022-05-20 21:43:22</time>
      </trkpt>
      <trkpt lat="41.49706" lon="1.52082">
        <ele>502.6</ele>
        <time>2022-05-20 21:43:23</time>
      </trkpt>
      <trkpt lat="41.4971" lon="1.52091">
        <ele>502.8</ele>
        <time>2022-05-20 21:43:24</time>
      </trkpt>
      <trkpt lat="41.49715" lon="1.521">
        <ele>502.8</ele>
        <time>2022-05-20 21:43:25</time>
      </trkpt>
      <trkpt lat="41.49719" lon="1.52108">
        <ele>502.8</ele>
        <time>2022-05-20 21:43:26</time>
      </trkpt>
      <trkpt lat="41.49724" lon="1.52117">
        <ele>502.8</ele>
        <time>2022-05-20 21:43:27</time>
      </trkpt>
      <trkpt lat="41.49729" lon="1.52126">
        <ele>502.6</ele>
        <time>2022-05-20 21:43:28</time>
      </trkpt>
      <trkpt lat="41.49735" lon="1.52134">
        <ele>502.6</ele>
        <time>2022-05-20 21:43:29</time>
      </trkpt>
      <trkpt lat="41.49741" lon="1.52143">
        <ele>502.4</ele>
        <time>2022-05-20 21:43:30</time>
      </trkpt>
      <trkpt lat="41.49747" lon="1.52151">
        <ele>502</ele>
        <time>2022-05-20 21:43:31</time>
      </trkpt>
      <trkpt lat="41.49753" lon="1.5216">
        <ele>501.6</ele>
        <time>2022-05-20 21:43:32</time>
      </trkpt>
      <trkpt lat="41.49759" lon="1.52169">
        <ele>501.2</ele>
        <time>2022-05-20 21:43:33</time>
      </trkpt>
      <trkpt lat="41.49765" lon="1.52179">
        <ele>501</ele>
        <time>2022-05-20 21:43:34</time>
      </trkpt>
      <trkpt lat="41.49771" lon="1.52188">
        <ele>500.6</ele>
        <time>2022-05-20 21:43:35</time>
      </trkpt>
      <trkpt lat="41.49777" lon="1.52198">
        <ele>500.2</ele>
        <time>2022-05-20 21:43:36</time>
      </trkpt>
      <trkpt lat="41.49783" lon="1.52208">
        <ele>499.8</ele>
        <time>2022-05-20 21:43:37</time>
      </trkpt>
      <trkpt lat="41.49789" lon="1.52218">
        <ele>499.6</ele>
        <time>2022-05-20 21:43:38</time>
      </trkpt>
      <trkpt lat="41.49796" lon="1.52228">
        <ele>499.2</ele>
        <time>2022-05-20 21:43:39</time>
      </trkpt>
      <trkpt lat="41.49802" lon="1.52238">
        <ele>498.8</ele>
        <time>2022-05-20 21:43:40</time>
      </trkpt>
      <trkpt lat="41.49809" lon="1.52247">
        <ele>498.4</ele>
        <time>2022-05-20 21:43:41</time>
      </trkpt>
      <trkpt lat="41.49817" lon="1.52256">
        <ele>498</ele>
        <time>2022-05-20 21:43:42</time>
      </trkpt>
      <trkpt lat="41.49823" lon="1.52267">
        <ele>497.4</ele>
        <time>2022-05-20 21:43:43</time>
      </trkpt>
      <trkpt lat="41.49831" lon="1.52277">
        <ele>497</ele>
        <time>2022-05-20 21:43:44</time>
      </trkpt>
      <trkpt lat="41.49838" lon="1.52287">
        <ele>496.6</ele>
        <time>2022-05-20 21:43:45</time>
      </trkpt>
      <trkpt lat="41.49844" lon="1.52297">
        <ele>496.2</ele>
        <time>2022-05-20 21:43:46</time>
      </trkpt>
      <trkpt lat="41.49851" lon="1.52308">
        <ele>495.6</ele>
        <time>2022-05-20 21:43:47</time>
      </trkpt>
      <trkpt lat="41.49858" lon="1.52319">
        <ele>495.2</ele>
        <time>2022-05-20 21:43:48</time>
      </trkpt>
      <trkpt lat="41.49866" lon="1.5233">
        <ele>494.6</ele>
        <time>2022-05-20 21:43:49</time>
      </trkpt>
      <trkpt lat="41.49873" lon="1.52342">
        <ele>494</ele>
        <time>2022-05-20 21:43:50</time>
      </trkpt>
      <trkpt lat="41.49879" lon="1.52354">
        <ele>493.6</ele>
        <time>2022-05-20 21:43:51</time>
      </trkpt>
      <trkpt lat="41.49886" lon="1.52366">
        <ele>493</ele>
        <time>2022-05-20 21:43:52</time>
      </trkpt>
      <trkpt lat="41.49892" lon="1.52379">
        <ele>492.4</ele>
        <time>2022-05-20 21:43:53</time>
      </trkpt>
      <trkpt lat="41.49898" lon="1.52393">
        <ele>491.8</ele>
        <time>2022-05-20 21:43:54</time>
      </trkpt>
      <trkpt lat="41.49903" lon="1.52407">
        <ele>491.4</ele>
        <time>2022-05-20 21:43:55</time>
      </trkpt>
      <trkpt lat="41.49908" lon="1.5242">
        <ele>491</ele>
        <time>2022-05-20 21:43:56</time>
      </trkpt>
      <trkpt lat="41.49913" lon="1.52433">
        <ele>490.6</ele>
        <time>2022-05-20 21:43:57</time>
      </trkpt>
      <trkpt lat="41.49918" lon="1.52445">
        <ele>490.4</ele>
        <time>2022-05-20 21:43:58</time>
      </trkpt>
      <trkpt lat="41.49923" lon="1.52458">
        <ele>490.2</ele>
        <time>2022-05-20 21:43:59</time>
      </trkpt>
      <trkpt lat="41.49927" lon="1.52471">
        <ele>490</ele>
        <time>2022-05-20 21:44:00</time>
      </trkpt>
      <trkpt lat="41.4993" lon="1.52483">
        <ele>489.8</ele>
        <time>2022-05-20 21:44:01</time>
      </trkpt>
      <trkpt lat="41.49934" lon="1.52494">
        <ele>489.8</ele>
        <time>2022-05-20 21:44:02</time>
      </trkpt>
      <trkpt lat="41.49939" lon="1.52505">
        <ele>489.6</ele>
        <time>2022-05-20 21:44:03</time>
      </trkpt>
      <trkpt lat="41.49944" lon="1.52516">
        <ele>489.4</ele>
        <time>2022-05-20 21:44:04</time>
      </trkpt>
      <trkpt lat="41.49949" lon="1.52527">
        <ele>489.4</ele>
        <time>2022-05-20 21:44:05</time>
      </trkpt>
      <trkpt lat="41.49953" lon="1.52538">
        <ele>489.4</ele>
        <time>2022-05-20 21:44:06</time>
      </trkpt>
      <trkpt lat="41.49957" lon="1.52549">
        <ele>489.2</ele>
        <time>2022-05-20 21:44:07</time>
      </trkpt>
      <trkpt lat="41.49961" lon="1.52559">
        <ele>489.2</ele>
        <time>2022-05-20 21:44:08</time>
      </trkpt>
      <trkpt lat="41.49965" lon="1.52571">
        <ele>489</ele>
        <time>2022-05-20 21:44:09</time>
      </trkpt>
      <trkpt lat="41.49969" lon="1.52582">
        <ele>488.8</ele>
        <time>2022-05-20 21:44:10</time>
      </trkpt>
      <trkpt lat="41.49973" lon="1.52592">
        <ele>488.8</ele>
        <time>2022-05-20 21:44:11</time>
      </trkpt>
      <trkpt lat="41.49977" lon="1.52602">
        <ele>488.6</ele>
        <time>2022-05-20 21:44:12</time>
      </trkpt>
      <trkpt lat="41.49982" lon="1.52611">
        <ele>488.4</ele>
        <time>2022-05-20 21:44:13</time>
      </trkpt>
      <trkpt lat="41.49986" lon="1.52621">
        <ele>488.2</ele>
        <time>2022-05-20 21:44:14</time>
      </trkpt>
      <trkpt lat="41.4999" lon="1.52631">
        <ele>488</ele>
        <time>2022-05-20 21:44:15</time>
      </trkpt>
      <trkpt lat="41.49994" lon="1.52642">
        <ele>488</ele>
        <time>2022-05-20 21:44:16</time>
      </trkpt>
      <trkpt lat="41.49998" lon="1.52652">
        <ele>487.8</ele>
        <time>2022-05-20 21:44:17</time>
      </trkpt>
      <trkpt lat="41.50002" lon="1.52662">
        <ele>487.8</ele>
        <time>2022-05-20 21:44:18</time>
      </trkpt>
      <trkpt lat="41.50006" lon="1.52672">
        <ele>487.6</ele>
        <time>2022-05-20 21:44:19</time>
      </trkpt>
      <trkpt lat="41.5001" lon="1.52682">
        <ele>487.6</ele>
        <time>2022-05-20 21:44:20</time>
      </trkpt>
      <trkpt lat="41.50014" lon="1.52691">
        <ele>487.4</ele>
        <time>2022-05-20 21:44:21</time>
      </trkpt>
      <trkpt lat="41.50018" lon="1.52701">
        <ele>487.4</ele>
        <time>2022-05-20 21:44:22</time>
      </trkpt>
      <trkpt lat="41.50021" lon="1.52711">
        <ele>487.4</ele>
        <time>2022-05-20 21:44:23</time>
      </trkpt>
      <trkpt lat="41.50026" lon="1.52721">
        <ele>487.2</ele>
        <time>2022-05-20 21:44:24</time>
      </trkpt>
      <trkpt lat="41.50029" lon="1.52731">
        <ele>487.2</ele>
        <time>2022-05-20 21:44:25</time>
      </trkpt>
      <trkpt lat="41.50033" lon="1.5274">
        <ele>487</ele>
        <time>2022-05-20 21:44:26</time>
      </trkpt>
      <trkpt lat="41.50037" lon="1.5275">
        <ele>487</ele>
        <time>2022-05-20 21:44:27</time>
      </trkpt>
      <trkpt lat="41.50041" lon="1.5276">
        <ele>487</ele>
        <time>2022-05-20 21:44:28</time>
      </trkpt>
      <trkpt lat="41.50045" lon="1.5277">
        <ele>486.8</ele>
        <time>2022-05-20 21:44:29</time>
      </trkpt>
      <trkpt lat="41.50049" lon="1.5278">
        <ele>486.8</ele>
        <time>2022-05-20 21:44:30</time>
      </trkpt>
      <trkpt lat="41.50053" lon="1.5279">
        <ele>486.6</ele>
        <time>2022-05-20 21:44:31</time>
      </trkpt>
      <trkpt lat="41.50057" lon="1.528">
        <ele>486.6</ele>
        <time>2022-05-20 21:44:32</time>
      </trkpt>
      <trkpt lat="41.50061" lon="1.5281">
        <ele>486.4</ele>
        <time>2022-05-20 21:44:33</time>
      </trkpt>
      <trkpt lat="41.50065" lon="1.52821">
        <ele>486.4</ele>
        <time>2022-05-20 21:44:34</time>
      </trkpt>
      <trkpt lat="41.50069" lon="1.52831">
        <ele>486.2</ele>
        <time>2022-05-20 21:44:35</time>
      </trkpt>
      <trkpt lat="41.50073" lon="1.52842">
        <ele>486</ele>
        <time>2022-05-20 21:44:36</time>
      </trkpt>
      <trkpt lat="41.50078" lon="1.52852">
        <ele>485.8</ele>
        <time>2022-05-20 21:44:37</time>
      </trkpt>
      <trkpt lat="41.50082" lon="1.52863">
        <ele>485.4</ele>
        <time>2022-05-20 21:44:38</time>
      </trkpt>
      <trkpt lat="41.50087" lon="1.52873">
        <ele>485.2</ele>
        <time>2022-05-20 21:44:39</time>
      </trkpt>
      <trkpt lat="41.50092" lon="1.52884">
        <ele>485</ele>
        <time>2022-05-20 21:44:40</time>
      </trkpt>
      <trkpt lat="41.50095" lon="1.52895">
        <ele>484.6</ele>
        <time>2022-05-20 21:44:41</time>
      </trkpt>
      <trkpt lat="41.501" lon="1.52906">
        <ele>484.4</ele>
        <time>2022-05-20 21:44:42</time>
      </trkpt>
      <trkpt lat="41.50105" lon="1.52918">
        <ele>484.2</ele>
        <time>2022-05-20 21:44:43</time>
      </trkpt>
      <trkpt lat="41.50109" lon="1.52929">
        <ele>483.8</ele>
        <time>2022-05-20 21:44:44</time>
      </trkpt>
      <trkpt lat="41.50113" lon="1.5294">
        <ele>483.6</ele>
        <time>2022-05-20 21:44:45</time>
      </trkpt>
      <trkpt lat="41.50117" lon="1.52952">
        <ele>483.2</ele>
        <time>2022-05-20 21:44:46</time>
      </trkpt>
      <trkpt lat="41.50122" lon="1.52963">
        <ele>483</ele>
        <time>2022-05-20 21:44:47</time>
      </trkpt>
      <trkpt lat="41.50127" lon="1.52975">
        <ele>482.8</ele>
        <time>2022-05-20 21:44:48</time>
      </trkpt>
      <trkpt lat="41.50132" lon="1.52987">
        <ele>482.4</ele>
        <time>2022-05-20 21:44:49</time>
      </trkpt>
      <trkpt lat="41.50136" lon="1.52997">
        <ele>482.2</ele>
        <time>2022-05-20 21:44:50</time>
      </trkpt>
      <trkpt lat="41.50142" lon="1.53007">
        <ele>481.8</ele>
        <time>2022-05-20 21:44:51</time>
      </trkpt>
      <trkpt lat="41.50148" lon="1.53016">
        <ele>481.6</ele>
        <time>2022-05-20 21:44:52</time>
      </trkpt>
      <trkpt lat="41.50156" lon="1.53024">
        <ele>481.4</ele>
        <time>2022-05-20 21:44:53</time>
      </trkpt>
      <trkpt lat="41.50163" lon="1.53032">
        <ele>481</ele>
        <time>2022-05-20 21:44:54</time>
      </trkpt>
      <trkpt lat="41.50171" lon="1.53038">
        <ele>480.8</ele>
        <time>2022-05-20 21:44:55</time>
      </trkpt>
      <trkpt lat="41.50179" lon="1.53045">
        <ele>480.6</ele>
        <time>2022-05-20 21:44:56</time>
      </trkpt>
      <trkpt lat="41.50187" lon="1.5305">
        <ele>480.4</ele>
        <time>2022-05-20 21:44:57</time>
      </trkpt>
      <trkpt lat="41.50195" lon="1.53056">
        <ele>480.2</ele>
        <time>2022-05-20 21:44:58</time>
      </trkpt>
      <trkpt lat="41.50203" lon="1.53062">
        <ele>480</ele>
        <time>2022-05-20 21:44:59</time>
      </trkpt>
      <trkpt lat="41.50211" lon="1.53068">
        <ele>479.8</ele>
        <time>2022-05-20 21:45:00</time>
      </trkpt>
      <trkpt lat="41.50218" lon="1.53075">
        <ele>479.6</ele>
        <time>2022-05-20 21:45:01</time>
      </trkpt>
      <trkpt lat="41.50225" lon="1.53082">
        <ele>479.4</ele>
        <time>2022-05-20 21:45:02</time>
      </trkpt>
      <trkpt lat="41.50233" lon="1.53088">
        <ele>479.2</ele>
        <time>2022-05-20 21:45:03</time>
      </trkpt>
      <trkpt lat="41.50241" lon="1.53095">
        <ele>479.2</ele>
        <time>2022-05-20 21:45:04</time>
      </trkpt>
      <trkpt lat="41.50249" lon="1.53101">
        <ele>479</ele>
        <time>2022-05-20 21:45:05</time>
      </trkpt>
      <trkpt lat="41.50257" lon="1.53108">
        <ele>479</ele>
        <time>2022-05-20 21:45:06</time>
      </trkpt>
      <trkpt lat="41.50264" lon="1.53114">
        <ele>479</ele>
        <time>2022-05-20 21:45:07</time>
      </trkpt>
      <trkpt lat="41.50272" lon="1.5312">
        <ele>479</ele>
        <time>2022-05-20 21:45:08</time>
      </trkpt>
      <trkpt lat="41.5028" lon="1.53127">
        <ele>479</ele>
        <time>2022-05-20 21:45:09</time>
      </trkpt>
      <trkpt lat="41.50287" lon="1.53133">
        <ele>479</ele>
        <time>2022-05-20 21:45:10</time>
      </trkpt>
      <trkpt lat="41.50294" lon="1.53139">
        <ele>479</ele>
        <time>2022-05-20 21:45:11</time>
      </trkpt>
      <trkpt lat="41.50301" lon="1.53146">
        <ele>479</ele>
        <time>2022-05-20 21:45:12</time>
      </trkpt>
      <trkpt lat="41.50308" lon="1.53152">
        <ele>479</ele>
        <time>2022-05-20 21:45:13</time>
      </trkpt>
      <trkpt lat="41.50315" lon="1.53158">
        <ele>479</ele>
        <time>2022-05-20 21:45:14</time>
      </trkpt>
      <trkpt lat="41.50321" lon="1.53163">
        <ele>479.2</ele>
        <time>2022-05-20 21:45:15</time>
      </trkpt>
      <trkpt lat="41.50328" lon="1.53169">
        <ele>479.4</ele>
        <time>2022-05-20 21:45:16</time>
      </trkpt>
      <trkpt lat="41.50335" lon="1.53174">
        <ele>479.4</ele>
        <time>2022-05-20 21:45:17</time>
      </trkpt>
      <trkpt lat="41.50341" lon="1.5318">
        <ele>479.6</ele>
        <time>2022-05-20 21:45:18</time>
      </trkpt>
      <trkpt lat="41.50347" lon="1.53185">
        <ele>479.8</ele>
        <time>2022-05-20 21:45:19</time>
      </trkpt>
      <trkpt lat="41.50353" lon="1.53191">
        <ele>479.8</ele>
        <time>2022-05-20 21:45:20</time>
      </trkpt>
      <trkpt lat="41.50359" lon="1.53196">
        <ele>480</ele>
        <time>2022-05-20 21:45:21</time>
      </trkpt>
      <trkpt lat="41.50365" lon="1.532">
        <ele>480</ele>
        <time>2022-05-20 21:45:22</time>
      </trkpt>
      <trkpt lat="41.50373" lon="1.53206">
        <ele>480.2</ele>
        <time>2022-05-20 21:45:23</time>
      </trkpt>
      <trkpt lat="41.5038" lon="1.53211">
        <ele>480.2</ele>
        <time>2022-05-20 21:45:24</time>
      </trkpt>
      <trkpt lat="41.50387" lon="1.53215">
        <ele>480.2</ele>
        <time>2022-05-20 21:45:25</time>
      </trkpt>
      <trkpt lat="41.50394" lon="1.53219">
        <ele>480.4</ele>
        <time>2022-05-20 21:45:26</time>
      </trkpt>
      <trkpt lat="41.50401" lon="1.53223">
        <ele>480.4</ele>
        <time>2022-05-20 21:45:27</time>
      </trkpt>
      <trkpt lat="41.50409" lon="1.53226">
        <ele>480.4</ele>
        <time>2022-05-20 21:45:28</time>
      </trkpt>
      <trkpt lat="41.50416" lon="1.53229">
        <ele>480.4</ele>
        <time>2022-05-20 21:45:29</time>
      </trkpt>
      <trkpt lat="41.50423" lon="1.53231">
        <ele>480.2</ele>
        <time>2022-05-20 21:45:30</time>
      </trkpt>
      <trkpt lat="41.50431" lon="1.53234">
        <ele>480.2</ele>
        <time>2022-05-20 21:45:31</time>
      </trkpt>
      <trkpt lat="41.50439" lon="1.53236">
        <ele>480.2</ele>
        <time>2022-05-20 21:45:32</time>
      </trkpt>
      <trkpt lat="41.50447" lon="1.53239">
        <ele>480.2</ele>
        <time>2022-05-20 21:45:33</time>
      </trkpt>
      <trkpt lat="41.50455" lon="1.53242">
        <ele>480.2</ele>
        <time>2022-05-20 21:45:34</time>
      </trkpt>
      <trkpt lat="41.50462" lon="1.53244">
        <ele>480.2</ele>
        <time>2022-05-20 21:45:35</time>
      </trkpt>
      <trkpt lat="41.5047" lon="1.53246">
        <ele>480.2</ele>
        <time>2022-05-20 21:45:36</time>
      </trkpt>
      <trkpt lat="41.50477" lon="1.53249">
        <ele>480.2</ele>
        <time>2022-05-20 21:45:37</time>
      </trkpt>
      <trkpt lat="41.50484" lon="1.53251">
        <ele>480.2</ele>
        <time>2022-05-20 21:45:38</time>
      </trkpt>
      <trkpt lat="41.50492" lon="1.53253">
        <ele>480.4</ele>
        <time>2022-05-20 21:45:39</time>
      </trkpt>
      <trkpt lat="41.50499" lon="1.53255">
        <ele>480.4</ele>
        <time>2022-05-20 21:45:40</time>
      </trkpt>
      <trkpt lat="41.50507" lon="1.53258">
        <ele>480.4</ele>
        <time>2022-05-20 21:45:41</time>
      </trkpt>
      <trkpt lat="41.50513" lon="1.5326">
        <ele>480.6</ele>
        <time>2022-05-20 21:45:42</time>
      </trkpt>
      <trkpt lat="41.50521" lon="1.53262">
        <ele>480.6</ele>
        <time>2022-05-20 21:45:43</time>
      </trkpt>
      <trkpt lat="41.50528" lon="1.53264">
        <ele>480.6</ele>
        <time>2022-05-20 21:45:44</time>
      </trkpt>
      <trkpt lat="41.50535" lon="1.53266">
        <ele>480.8</ele>
        <time>2022-05-20 21:45:45</time>
      </trkpt>
      <trkpt lat="41.50542" lon="1.53268">
        <ele>480.8</ele>
        <time>2022-05-20 21:45:46</time>
      </trkpt>
      <trkpt lat="41.50549" lon="1.5327">
        <ele>481</ele>
        <time>2022-05-20 21:45:47</time>
      </trkpt>
      <trkpt lat="41.50555" lon="1.53272">
        <ele>481</ele>
        <time>2022-05-20 21:45:48</time>
      </trkpt>
      <trkpt lat="41.50562" lon="1.53274">
        <ele>481.2</ele>
        <time>2022-05-20 21:45:49</time>
      </trkpt>
      <trkpt lat="41.50568" lon="1.53277">
        <ele>481.4</ele>
        <time>2022-05-20 21:45:50</time>
      </trkpt>
      <trkpt lat="41.50575" lon="1.5328">
        <ele>481.4</ele>
        <time>2022-05-20 21:45:51</time>
      </trkpt>
      <trkpt lat="41.50581" lon="1.53284">
        <ele>481.4</ele>
        <time>2022-05-20 21:45:52</time>
      </trkpt>
      <trkpt lat="41.50587" lon="1.53289">
        <ele>481.4</ele>
        <time>2022-05-20 21:45:53</time>
      </trkpt>
      <trkpt lat="41.50593" lon="1.53295">
        <ele>481.6</ele>
        <time>2022-05-20 21:45:54</time>
      </trkpt>
      <trkpt lat="41.50597" lon="1.53302">
        <ele>481.6</ele>
        <time>2022-05-20 21:45:55</time>
      </trkpt>
      <trkpt lat="41.50601" lon="1.5331">
        <ele>481.8</ele>
        <time>2022-05-20 21:45:56</time>
      </trkpt>
      <trkpt lat="41.50603" lon="1.53318">
        <ele>482</ele>
        <time>2022-05-20 21:45:57</time>
      </trkpt>
      <trkpt lat="41.50605" lon="1.53326">
        <ele>482.2</ele>
        <time>2022-05-20 21:45:58</time>
      </trkpt>
      <trkpt lat="41.50607" lon="1.53334">
        <ele>482.2</ele>
        <time>2022-05-20 21:45:59</time>
      </trkpt>
      <trkpt lat="41.50608" lon="1.53342">
        <ele>482.4</ele>
        <time>2022-05-20 21:46:00</time>
      </trkpt>
      <trkpt lat="41.50609" lon="1.53351">
        <ele>482.6</ele>
        <time>2022-05-20 21:46:01</time>
      </trkpt>
      <trkpt lat="41.5061" lon="1.53359">
        <ele>482.6</ele>
        <time>2022-05-20 21:46:02</time>
      </trkpt>
      <trkpt lat="41.50612" lon="1.53367">
        <ele>482.8</ele>
        <time>2022-05-20 21:46:03</time>
      </trkpt>
      <trkpt lat="41.50615" lon="1.53376">
        <ele>483</ele>
        <time>2022-05-20 21:46:04</time>
      </trkpt>
      <trkpt lat="41.50618" lon="1.53383">
        <ele>483</ele>
        <time>2022-05-20 21:46:05</time>
      </trkpt>
      <trkpt lat="41.50621" lon="1.53391">
        <ele>483.2</ele>
        <time>2022-05-20 21:46:06</time>
      </trkpt>
      <trkpt lat="41.50624" lon="1.53398">
        <ele>483.2</ele>
        <time>2022-05-20 21:46:07</time>
      </trkpt>
      <trkpt lat="41.50628" lon="1.53405">
        <ele>483.4</ele>
        <time>2022-05-20 21:46:08</time>
      </trkpt>
      <trkpt lat="41.50634" lon="1.53412">
        <ele>483.4</ele>
        <time>2022-05-20 21:46:09</time>
      </trkpt>
      <trkpt lat="41.50639" lon="1.53417">
        <ele>483.6</ele>
        <time>2022-05-20 21:46:10</time>
      </trkpt>
      <trkpt lat="41.50644" lon="1.53423">
        <ele>483.6</ele>
        <time>2022-05-20 21:46:11</time>
      </trkpt>
      <trkpt lat="41.5065" lon="1.53427">
        <ele>483.6</ele>
        <time>2022-05-20 21:46:12</time>
      </trkpt>
      <trkpt lat="41.50656" lon="1.53432">
        <ele>483.8</ele>
        <time>2022-05-20 21:46:13</time>
      </trkpt>
      <trkpt lat="41.50662" lon="1.53436">
        <ele>483.8</ele>
        <time>2022-05-20 21:46:14</time>
      </trkpt>
      <trkpt lat="41.50668" lon="1.5344">
        <ele>483.8</ele>
        <time>2022-05-20 21:46:15</time>
      </trkpt>
      <trkpt lat="41.50674" lon="1.53444">
        <ele>483.6</ele>
        <time>2022-05-20 21:46:16</time>
      </trkpt>
      <trkpt lat="41.50681" lon="1.53448">
        <ele>483.6</ele>
        <time>2022-05-20 21:46:17</time>
      </trkpt>
      <trkpt lat="41.50687" lon="1.53452">
        <ele>483.6</ele>
        <time>2022-05-20 21:46:18</time>
      </trkpt>
      <trkpt lat="41.50693" lon="1.53456">
        <ele>483.6</ele>
        <time>2022-05-20 21:46:19</time>
      </trkpt>
      <trkpt lat="41.507" lon="1.53461">
        <ele>483.6</ele>
        <time>2022-05-20 21:46:20</time>
      </trkpt>
      <trkpt lat="41.50706" lon="1.53465">
        <ele>483.6</ele>
        <time>2022-05-20 21:46:21</time>
      </trkpt>
      <trkpt lat="41.50713" lon="1.53469">
        <ele>483.6</ele>
        <time>2022-05-20 21:46:22</time>
      </trkpt>
      <trkpt lat="41.50719" lon="1.53473">
        <ele>483.6</ele>
        <time>2022-05-20 21:46:23</time>
      </trkpt>
      <trkpt lat="41.50726" lon="1.53477">
        <ele>483.6</ele>
        <time>2022-05-20 21:46:24</time>
      </trkpt>
      <trkpt lat="41.50732" lon="1.53481">
        <ele>483.8</ele>
        <time>2022-05-20 21:46:25</time>
      </trkpt>
      <trkpt lat="41.50739" lon="1.53485">
        <ele>483.8</ele>
        <time>2022-05-20 21:46:26</time>
      </trkpt>
      <trkpt lat="41.50746" lon="1.53489">
        <ele>483.8</ele>
        <time>2022-05-20 21:46:27</time>
      </trkpt>
      <trkpt lat="41.50752" lon="1.53492">
        <ele>484</ele>
        <time>2022-05-20 21:46:28</time>
      </trkpt>
      <trkpt lat="41.50759" lon="1.53495">
        <ele>484</ele>
        <time>2022-05-20 21:46:29</time>
      </trkpt>
      <trkpt lat="41.50766" lon="1.53496">
        <ele>484</ele>
        <time>2022-05-20 21:46:30</time>
      </trkpt>
      <trkpt lat="41.50772" lon="1.53496">
        <ele>484.2</ele>
        <time>2022-05-20 21:46:31</time>
      </trkpt>
      <trkpt lat="41.50779" lon="1.53495">
        <ele>484.2</ele>
        <time>2022-05-20 21:46:32</time>
      </trkpt>
      <trkpt lat="41.50786" lon="1.53492">
        <ele>484.2</ele>
        <time>2022-05-20 21:46:33</time>
      </trkpt>
      <trkpt lat="41.50792" lon="1.53488">
        <ele>484.2</ele>
        <time>2022-05-20 21:46:34</time>
      </trkpt>
      <trkpt lat="41.50798" lon="1.53483">
        <ele>484</ele>
        <time>2022-05-20 21:46:35</time>
      </trkpt>
      <trkpt lat="41.50804" lon="1.53477">
        <ele>484</ele>
        <time>2022-05-20 21:46:36</time>
      </trkpt>
      <trkpt lat="41.5081" lon="1.53471">
        <ele>483.8</ele>
        <time>2022-05-20 21:46:37</time>
      </trkpt>
      <trkpt lat="41.50816" lon="1.53465">
        <ele>483.8</ele>
        <time>2022-05-20 21:46:38</time>
      </trkpt>
      <trkpt lat="41.50823" lon="1.53459">
        <ele>483.6</ele>
        <time>2022-05-20 21:46:39</time>
      </trkpt>
      <trkpt lat="41.5083" lon="1.53453">
        <ele>483.6</ele>
        <time>2022-05-20 21:46:40</time>
      </trkpt>
      <trkpt lat="41.50836" lon="1.53446">
        <ele>483.4</ele>
        <time>2022-05-20 21:46:41</time>
      </trkpt>
      <trkpt lat="41.50843" lon="1.5344">
        <ele>483.4</ele>
        <time>2022-05-20 21:46:42</time>
      </trkpt>
      <trkpt lat="41.50849" lon="1.53433">
        <ele>483.4</ele>
        <time>2022-05-20 21:46:43</time>
      </trkpt>
      <trkpt lat="41.50855" lon="1.53427">
        <ele>483.2</ele>
        <time>2022-05-20 21:46:44</time>
      </trkpt>
      <trkpt lat="41.50861" lon="1.53421">
        <ele>483.2</ele>
        <time>2022-05-20 21:46:45</time>
      </trkpt>
      <trkpt lat="41.50867" lon="1.53414">
        <ele>483.2</ele>
        <time>2022-05-20 21:46:46</time>
      </trkpt>
      <trkpt lat="41.50874" lon="1.53408">
        <ele>483</ele>
        <time>2022-05-20 21:46:47</time>
      </trkpt>
      <trkpt lat="41.5088" lon="1.53402">
        <ele>483</ele>
        <time>2022-05-20 21:46:48</time>
      </trkpt>
      <trkpt lat="41.50886" lon="1.53395">
        <ele>483</ele>
        <time>2022-05-20 21:46:49</time>
      </trkpt>
      <trkpt lat="41.50892" lon="1.53389">
        <ele>483</ele>
        <time>2022-05-20 21:46:50</time>
      </trkpt>
      <trkpt lat="41.50898" lon="1.53383">
        <ele>482.8</ele>
        <time>2022-05-20 21:46:51</time>
      </trkpt>
      <trkpt lat="41.50905" lon="1.53376">
        <ele>482.8</ele>
        <time>2022-05-20 21:46:52</time>
      </trkpt>
      <trkpt lat="41.50911" lon="1.5337">
        <ele>482.8</ele>
        <time>2022-05-20 21:46:53</time>
      </trkpt>
      <trkpt lat="41.50917" lon="1.53363">
        <ele>482.8</ele>
        <time>2022-05-20 21:46:54</time>
      </trkpt>
      <trkpt lat="41.50923" lon="1.53357">
        <ele>482.6</ele>
        <time>2022-05-20 21:46:55</time>
      </trkpt>
      <trkpt lat="41.50929" lon="1.53349">
        <ele>482.6</ele>
        <time>2022-05-20 21:46:56</time>
      </trkpt>
      <trkpt lat="41.50933" lon="1.53342">
        <ele>482.6</ele>
        <time>2022-05-20 21:46:57</time>
      </trkpt>
      <trkpt lat="41.50938" lon="1.53334">
        <ele>482.6</ele>
        <time>2022-05-20 21:46:58</time>
      </trkpt>
      <trkpt lat="41.50941" lon="1.53325">
        <ele>482.4</ele>
        <time>2022-05-20 21:46:59</time>
      </trkpt>
      <trkpt lat="41.50943" lon="1.53315">
        <ele>482.4</ele>
        <time>2022-05-20 21:47:00</time>
      </trkpt>
      <trkpt lat="41.50944" lon="1.53306">
        <ele>482.4</ele>
        <time>2022-05-20 21:47:01</time>
      </trkpt>
      <trkpt lat="41.50945" lon="1.53296">
        <ele>482.4</ele>
        <time>2022-05-20 21:47:02</time>
      </trkpt>
      <trkpt lat="41.50945" lon="1.53286">
        <ele>482.2</ele>
        <time>2022-05-20 21:47:03</time>
      </trkpt>
      <trkpt lat="41.50945" lon="1.53277">
        <ele>482.2</ele>
        <time>2022-05-20 21:47:04</time>
      </trkpt>
      <trkpt lat="41.50945" lon="1.53268">
        <ele>482</ele>
        <time>2022-05-20 21:47:05</time>
      </trkpt>
      <trkpt lat="41.50946" lon="1.53258">
        <ele>482</ele>
        <time>2022-05-20 21:47:06</time>
      </trkpt>
      <trkpt lat="41.50948" lon="1.53249">
        <ele>481.8</ele>
        <time>2022-05-20 21:47:07</time>
      </trkpt>
      <trkpt lat="41.50951" lon="1.53241">
        <ele>481.8</ele>
        <time>2022-05-20 21:47:08</time>
      </trkpt>
      <trkpt lat="41.50955" lon="1.53232">
        <ele>481.8</ele>
        <time>2022-05-20 21:47:09</time>
      </trkpt>
      <trkpt lat="41.5096" lon="1.53224">
        <ele>481.8</ele>
        <time>2022-05-20 21:47:10</time>
      </trkpt>
      <trkpt lat="41.50965" lon="1.53216">
        <ele>481.6</ele>
        <time>2022-05-20 21:47:11</time>
      </trkpt>
      <trkpt lat="41.5097" lon="1.53208">
        <ele>481.6</ele>
        <time>2022-05-20 21:47:12</time>
      </trkpt>
      <trkpt lat="41.50976" lon="1.532">
        <ele>481.6</ele>
        <time>2022-05-20 21:47:13</time>
      </trkpt>
      <trkpt lat="41.50981" lon="1.53193">
        <ele>481.6</ele>
        <time>2022-05-20 21:47:14</time>
      </trkpt>
      <trkpt lat="41.50987" lon="1.53186">
        <ele>481.6</ele>
        <time>2022-05-20 21:47:15</time>
      </trkpt>
      <trkpt lat="41.50992" lon="1.53179">
        <ele>481.6</ele>
        <time>2022-05-20 21:47:16</time>
      </trkpt>
      <trkpt lat="41.50998" lon="1.53172">
        <ele>481.4</ele>
        <time>2022-05-20 21:47:17</time>
      </trkpt>
      <trkpt lat="41.51003" lon="1.53165">
        <ele>481.4</ele>
        <time>2022-05-20 21:47:18</time>
      </trkpt>
      <trkpt lat="41.51009" lon="1.53157">
        <ele>481.4</ele>
        <time>2022-05-20 21:47:19</time>
      </trkpt>
      <trkpt lat="41.51014" lon="1.5315">
        <ele>481.4</ele>
        <time>2022-05-20 21:47:20</time>
      </trkpt>
      <trkpt lat="41.51019" lon="1.53143">
        <ele>481.4</ele>
        <time>2022-05-20 21:47:21</time>
      </trkpt>
      <trkpt lat="41.51025" lon="1.53136">
        <ele>481.4</ele>
        <time>2022-05-20 21:47:22</time>
      </trkpt>
      <trkpt lat="41.5103" lon="1.53129">
        <ele>481.4</ele>
        <time>2022-05-20 21:47:23</time>
      </trkpt>
      <trkpt lat="41.51035" lon="1.53122">
        <ele>481.4</ele>
        <time>2022-05-20 21:47:24</time>
      </trkpt>
      <trkpt lat="41.5104" lon="1.53116">
        <ele>481.4</ele>
        <time>2022-05-20 21:47:25</time>
      </trkpt>
      <trkpt lat="41.51046" lon="1.53109">
        <ele>481.6</ele>
        <time>2022-05-20 21:47:26</time>
      </trkpt>
      <trkpt lat="41.5105" lon="1.53103">
        <ele>481.8</ele>
        <time>2022-05-20 21:47:27</time>
      </trkpt>
      <trkpt lat="41.51055" lon="1.53098">
        <ele>482</ele>
        <time>2022-05-20 21:47:28</time>
      </trkpt>
      <trkpt lat="41.51059" lon="1.53092">
        <ele>482.2</ele>
        <time>2022-05-20 21:47:29</time>
      </trkpt>
      <trkpt lat="41.51063" lon="1.53087">
        <ele>482.4</ele>
        <time>2022-05-20 21:47:30</time>
      </trkpt>
      <trkpt lat="41.51067" lon="1.53082">
        <ele>482.8</ele>
        <time>2022-05-20 21:47:31</time>
      </trkpt>
      <trkpt lat="41.51071" lon="1.53077">
        <ele>483</ele>
        <time>2022-05-20 21:47:32</time>
      </trkpt>
      <trkpt lat="41.51075" lon="1.53073">
        <ele>483.4</ele>
        <time>2022-05-20 21:47:33</time>
      </trkpt>
      <trkpt lat="41.51078" lon="1.53069">
        <ele>483.8</ele>
        <time>2022-05-20 21:47:34</time>
      </trkpt>
      <trkpt lat="41.51081" lon="1.53065">
        <ele>484.2</ele>
        <time>2022-05-20 21:47:35</time>
      </trkpt>
      <trkpt lat="41.51084" lon="1.53061">
        <ele>484.4</ele>
        <time>2022-05-20 21:47:36</time>
      </trkpt>
      <trkpt lat="41.51087" lon="1.53058">
        <ele>484.8</ele>
        <time>2022-05-20 21:47:37</time>
      </trkpt>
      <trkpt lat="41.5109" lon="1.53054">
        <ele>485</ele>
        <time>2022-05-20 21:47:38</time>
      </trkpt>
      <trkpt lat="41.51093" lon="1.5305">
        <ele>485.4</ele>
        <time>2022-05-20 21:47:39</time>
      </trkpt>
      <trkpt lat="41.51096" lon="1.53046">
        <ele>485.6</ele>
        <time>2022-05-20 21:47:40</time>
      </trkpt>
      <trkpt lat="41.51098" lon="1.53043">
        <ele>486</ele>
        <time>2022-05-20 21:47:41</time>
      </trkpt>
      <trkpt lat="41.51101" lon="1.53039">
        <ele>486.2</ele>
        <time>2022-05-20 21:47:42</time>
      </trkpt>
      <trkpt lat="41.51104" lon="1.53036">
        <ele>486.6</ele>
        <time>2022-05-20 21:47:43</time>
      </trkpt>
      <trkpt lat="41.51107" lon="1.53032">
        <ele>486.8</ele>
        <time>2022-05-20 21:47:44</time>
      </trkpt>
      <trkpt lat="41.51109" lon="1.53029">
        <ele>487</ele>
        <time>2022-05-20 21:47:45</time>
      </trkpt>
      <trkpt lat="41.51112" lon="1.53025">
        <ele>487.4</ele>
        <time>2022-05-20 21:47:46</time>
      </trkpt>
      <trkpt lat="41.51114" lon="1.53022">
        <ele>487.6</ele>
        <time>2022-05-20 21:47:47</time>
      </trkpt>
      <trkpt lat="41.51117" lon="1.53019">
        <ele>487.8</ele>
        <time>2022-05-20 21:47:48</time>
      </trkpt>
      <trkpt lat="41.5112" lon="1.53015">
        <ele>488.2</ele>
        <time>2022-05-20 21:47:49</time>
      </trkpt>
      <trkpt lat="41.51123" lon="1.53012">
        <ele>488.4</ele>
        <time>2022-05-20 21:47:50</time>
      </trkpt>
      <trkpt lat="41.51126" lon="1.53009">
        <ele>488.6</ele>
        <time>2022-05-20 21:47:51</time>
      </trkpt>
      <trkpt lat="41.51128" lon="1.53006">
        <ele>488.8</ele>
        <time>2022-05-20 21:47:52</time>
      </trkpt>
      <trkpt lat="41.51131" lon="1.53003">
        <ele>489.2</ele>
        <time>2022-05-20 21:47:53</time>
      </trkpt>
      <trkpt lat="41.51134" lon="1.52999">
        <ele>489.4</ele>
        <time>2022-05-20 21:47:54</time>
      </trkpt>
      <trkpt lat="41.51136" lon="1.52995">
        <ele>489.6</ele>
        <time>2022-05-20 21:47:55</time>
      </trkpt>
      <trkpt lat="41.51139" lon="1.52992">
        <ele>489.8</ele>
        <time>2022-05-20 21:47:56</time>
      </trkpt>
      <trkpt lat="41.51142" lon="1.52989">
        <ele>490.2</ele>
        <time>2022-05-20 21:47:57</time>
      </trkpt>
      <trkpt lat="41.51144" lon="1.52985">
        <ele>490.4</ele>
        <time>2022-05-20 21:47:58</time>
      </trkpt>
      <trkpt lat="41.51146" lon="1.52981">
        <ele>490.6</ele>
        <time>2022-05-20 21:47:59</time>
      </trkpt>
      <trkpt lat="41.51149" lon="1.52977">
        <ele>490.8</ele>
        <time>2022-05-20 21:48:00</time>
      </trkpt>
      <trkpt lat="41.51152" lon="1.52974">
        <ele>491</ele>
        <time>2022-05-20 21:48:01</time>
      </trkpt>
      <trkpt lat="41.51154" lon="1.5297">
        <ele>491.2</ele>
        <time>2022-05-20 21:48:02</time>
      </trkpt>
      <trkpt lat="41.51157" lon="1.52966">
        <ele>491.4</ele>
        <time>2022-05-20 21:48:03</time>
      </trkpt>
      <trkpt lat="41.51159" lon="1.52962">
        <ele>491.6</ele>
        <time>2022-05-20 21:48:04</time>
      </trkpt>
      <trkpt lat="41.5116" lon="1.52957">
        <ele>491.8</ele>
        <time>2022-05-20 21:48:05</time>
      </trkpt>
      <trkpt lat="41.51163" lon="1.52953">
        <ele>492</ele>
        <time>2022-05-20 21:48:06</time>
      </trkpt>
      <trkpt lat="41.51165" lon="1.52949">
        <ele>492.2</ele>
        <time>2022-05-20 21:48:07</time>
      </trkpt>
      <trkpt lat="41.51167" lon="1.52944">
        <ele>492.4</ele>
        <time>2022-05-20 21:48:08</time>
      </trkpt>
      <trkpt lat="41.51168" lon="1.5294">
        <ele>492.6</ele>
        <time>2022-05-20 21:48:09</time>
      </trkpt>
      <trkpt lat="41.5117" lon="1.52935">
        <ele>492.8</ele>
        <time>2022-05-20 21:48:10</time>
      </trkpt>
      <trkpt lat="41.51172" lon="1.52931">
        <ele>493</ele>
        <time>2022-05-20 21:48:11</time>
      </trkpt>
      <trkpt lat="41.51174" lon="1.52927">
        <ele>493</ele>
        <time>2022-05-20 21:48:12</time>
      </trkpt>
      <trkpt lat="41.51176" lon="1.52922">
        <ele>493.2</ele>
        <time>2022-05-20 21:48:13</time>
      </trkpt>
      <trkpt lat="41.51178" lon="1.52918">
        <ele>493.4</ele>
        <time>2022-05-20 21:48:14</time>
      </trkpt>
      <trkpt lat="41.51179" lon="1.52913">
        <ele>493.6</ele>
        <time>2022-05-20 21:48:15</time>
      </trkpt>
      <trkpt lat="41.51181" lon="1.52909">
        <ele>493.8</ele>
        <time>2022-05-20 21:48:16</time>
      </trkpt>
      <trkpt lat="41.51183" lon="1.52905">
        <ele>494</ele>
        <time>2022-05-20 21:48:17</time>
      </trkpt>
      <trkpt lat="41.51184" lon="1.529">
        <ele>494.2</ele>
        <time>2022-05-20 21:48:18</time>
      </trkpt>
      <trkpt lat="41.51186" lon="1.52896">
        <ele>494.4</ele>
        <time>2022-05-20 21:48:19</time>
      </trkpt>
      <trkpt lat="41.51188" lon="1.52891">
        <ele>494.6</ele>
        <time>2022-05-20 21:48:20</time>
      </trkpt>
      <trkpt lat="41.51189" lon="1.52887">
        <ele>494.8</ele>
        <time>2022-05-20 21:48:21</time>
      </trkpt>
      <trkpt lat="41.51191" lon="1.52883">
        <ele>495</ele>
        <time>2022-05-20 21:48:22</time>
      </trkpt>
      <trkpt lat="41.51193" lon="1.52878">
        <ele>495.2</ele>
        <time>2022-05-20 21:48:23</time>
      </trkpt>
      <trkpt lat="41.51195" lon="1.52874">
        <ele>495.4</ele>
        <time>2022-05-20 21:48:24</time>
      </trkpt>
      <trkpt lat="41.51196" lon="1.5287">
        <ele>495.6</ele>
        <time>2022-05-20 21:48:25</time>
      </trkpt>
      <trkpt lat="41.51198" lon="1.52865">
        <ele>495.8</ele>
        <time>2022-05-20 21:48:26</time>
      </trkpt>
      <trkpt lat="41.51199" lon="1.52861">
        <ele>496</ele>
        <time>2022-05-20 21:48:27</time>
      </trkpt>
      <trkpt lat="41.512" lon="1.52856">
        <ele>496.2</ele>
        <time>2022-05-20 21:48:28</time>
      </trkpt>
      <trkpt lat="41.51202" lon="1.52852">
        <ele>496.4</ele>
        <time>2022-05-20 21:48:29</time>
      </trkpt>
      <trkpt lat="41.51204" lon="1.52848">
        <ele>496.6</ele>
        <time>2022-05-20 21:48:30</time>
      </trkpt>
      <trkpt lat="41.51205" lon="1.52843">
        <ele>496.8</ele>
        <time>2022-05-20 21:48:31</time>
      </trkpt>
      <trkpt lat="41.51207" lon="1.52839">
        <ele>497</ele>
        <time>2022-05-20 21:48:32</time>
      </trkpt>
      <trkpt lat="41.51209" lon="1.52835">
        <ele>497.2</ele>
        <time>2022-05-20 21:48:33</time>
      </trkpt>
      <trkpt lat="41.51211" lon="1.52831">
        <ele>497.4</ele>
        <time>2022-05-20 21:48:34</time>
      </trkpt>
      <trkpt lat="41.51212" lon="1.52826">
        <ele>497.6</ele>
        <time>2022-05-20 21:48:35</time>
      </trkpt>
      <trkpt lat="41.51214" lon="1.52822">
        <ele>497.8</ele>
        <time>2022-05-20 21:48:36</time>
      </trkpt>
      <trkpt lat="41.51216" lon="1.52818">
        <ele>498</ele>
        <time>2022-05-20 21:48:37</time>
      </trkpt>
      <trkpt lat="41.51217" lon="1.52813">
        <ele>498.2</ele>
        <time>2022-05-20 21:48:38</time>
      </trkpt>
      <trkpt lat="41.51219" lon="1.52809">
        <ele>498.4</ele>
        <time>2022-05-20 21:48:39</time>
      </trkpt>
      <trkpt lat="41.5122" lon="1.52805">
        <ele>498.6</ele>
        <time>2022-05-20 21:48:40</time>
      </trkpt>
      <trkpt lat="41.51222" lon="1.528">
        <ele>498.8</ele>
        <time>2022-05-20 21:48:41</time>
      </trkpt>
      <trkpt lat="41.51224" lon="1.52796">
        <ele>499</ele>
        <time>2022-05-20 21:48:42</time>
      </trkpt>
      <trkpt lat="41.51225" lon="1.52792">
        <ele>499.2</ele>
        <time>2022-05-20 21:48:43</time>
      </trkpt>
      <trkpt lat="41.51227" lon="1.52788">
        <ele>499.4</ele>
        <time>2022-05-20 21:48:44</time>
      </trkpt>
      <trkpt lat="41.51229" lon="1.52783">
        <ele>499.6</ele>
        <time>2022-05-20 21:48:45</time>
      </trkpt>
      <trkpt lat="41.51231" lon="1.52779">
        <ele>499.8</ele>
        <time>2022-05-20 21:48:46</time>
      </trkpt>
      <trkpt lat="41.51232" lon="1.52775">
        <ele>500</ele>
        <time>2022-05-20 21:48:47</time>
      </trkpt>
      <trkpt lat="41.51234" lon="1.52771">
        <ele>500.2</ele>
        <time>2022-05-20 21:48:48</time>
      </trkpt>
      <trkpt lat="41.51236" lon="1.52767">
        <ele>500.4</ele>
        <time>2022-05-20 21:48:49</time>
      </trkpt>
      <trkpt lat="41.51237" lon="1.52763">
        <ele>500.6</ele>
        <time>2022-05-20 21:48:50</time>
      </trkpt>
      <trkpt lat="41.51239" lon="1.52758">
        <ele>500.8</ele>
        <time>2022-05-20 21:48:51</time>
      </trkpt>
      <trkpt lat="41.51241" lon="1.52754">
        <ele>501</ele>
        <time>2022-05-20 21:48:52</time>
      </trkpt>
      <trkpt lat="41.51242" lon="1.5275">
        <ele>501.2</ele>
        <time>2022-05-20 21:48:53</time>
      </trkpt>
      <trkpt lat="41.51244" lon="1.52746">
        <ele>501.4</ele>
        <time>2022-05-20 21:48:54</time>
      </trkpt>
      <trkpt lat="41.51245" lon="1.52742">
        <ele>501.4</ele>
        <time>2022-05-20 21:48:55</time>
      </trkpt>
      <trkpt lat="41.51247" lon="1.52738">
        <ele>501.8</ele>
        <time>2022-05-20 21:48:56</time>
      </trkpt>
      <trkpt lat="41.51248" lon="1.52733">
        <ele>502</ele>
        <time>2022-05-20 21:48:57</time>
      </trkpt>
      <trkpt lat="41.51249" lon="1.52729">
        <ele>502.2</ele>
        <time>2022-05-20 21:48:58</time>
      </trkpt>
      <trkpt lat="41.51251" lon="1.52725">
        <ele>502.4</ele>
        <time>2022-05-20 21:48:59</time>
      </trkpt>
      <trkpt lat="41.51252" lon="1.52721">
        <ele>502.6</ele>
        <time>2022-05-20 21:49:00</time>
      </trkpt>
      <trkpt lat="41.51254" lon="1.52717">
        <ele>502.8</ele>
        <time>2022-05-20 21:49:01</time>
      </trkpt>
      <trkpt lat="41.51255" lon="1.52713">
        <ele>503</ele>
        <time>2022-05-20 21:49:02</time>
      </trkpt>
      <trkpt lat="41.51257" lon="1.52709">
        <ele>503.2</ele>
        <time>2022-05-20 21:49:03</time>
      </trkpt>
      <trkpt lat="41.51258" lon="1.52705">
        <ele>503.4</ele>
        <time>2022-05-20 21:49:04</time>
      </trkpt>
      <trkpt lat="41.5126" lon="1.52701">
        <ele>503.6</ele>
        <time>2022-05-20 21:49:05</time>
      </trkpt>
      <trkpt lat="41.51262" lon="1.52697">
        <ele>503.8</ele>
        <time>2022-05-20 21:49:06</time>
      </trkpt>
      <trkpt lat="41.51263" lon="1.52693">
        <ele>504</ele>
        <time>2022-05-20 21:49:07</time>
      </trkpt>
      <trkpt lat="41.51265" lon="1.52689">
        <ele>504.2</ele>
        <time>2022-05-20 21:49:08</time>
      </trkpt>
      <trkpt lat="41.51266" lon="1.52685">
        <ele>504.4</ele>
        <time>2022-05-20 21:49:09</time>
      </trkpt>
      <trkpt lat="41.51268" lon="1.52681">
        <ele>504.6</ele>
        <time>2022-05-20 21:49:10</time>
      </trkpt>
      <trkpt lat="41.51269" lon="1.52677">
        <ele>504.8</ele>
        <time>2022-05-20 21:49:11</time>
      </trkpt>
      <trkpt lat="41.51271" lon="1.52673">
        <ele>505</ele>
        <time>2022-05-20 21:49:12</time>
      </trkpt>
      <trkpt lat="41.51273" lon="1.52668">
        <ele>505.2</ele>
        <time>2022-05-20 21:49:13</time>
      </trkpt>
      <trkpt lat="41.51274" lon="1.52664">
        <ele>505.4</ele>
        <time>2022-05-20 21:49:14</time>
      </trkpt>
      <trkpt lat="41.51275" lon="1.5266">
        <ele>505.6</ele>
        <time>2022-05-20 21:49:15</time>
      </trkpt>
      <trkpt lat="41.51277" lon="1.52656">
        <ele>505.8</ele>
        <time>2022-05-20 21:49:16</time>
      </trkpt>
      <trkpt lat="41.51279" lon="1.52652">
        <ele>506</ele>
        <time>2022-05-20 21:49:17</time>
      </trkpt>
      <trkpt lat="41.51281" lon="1.52648">
        <ele>506.2</ele>
        <time>2022-05-20 21:49:18</time>
      </trkpt>
      <trkpt lat="41.51282" lon="1.52644">
        <ele>506.4</ele>
        <time>2022-05-20 21:49:19</time>
      </trkpt>
      <trkpt lat="41.51283" lon="1.5264">
        <ele>506.6</ele>
        <time>2022-05-20 21:49:20</time>
      </trkpt>
      <trkpt lat="41.51284" lon="1.52636">
        <ele>506.8</ele>
        <time>2022-05-20 21:49:21</time>
      </trkpt>
      <trkpt lat="41.51286" lon="1.52633">
        <ele>507</ele>
        <time>2022-05-20 21:49:22</time>
      </trkpt>
      <trkpt lat="41.51288" lon="1.52629">
        <ele>507.2</ele>
        <time>2022-05-20 21:49:23</time>
      </trkpt>
      <trkpt lat="41.51289" lon="1.52625">
        <ele>507.4</ele>
        <time>2022-05-20 21:49:24</time>
      </trkpt>
      <trkpt lat="41.51291" lon="1.52621">
        <ele>507.6</ele>
        <time>2022-05-20 21:49:25</time>
      </trkpt>
      <trkpt lat="41.51293" lon="1.52618">
        <ele>507.8</ele>
        <time>2022-05-20 21:49:26</time>
      </trkpt>
      <trkpt lat="41.51295" lon="1.52614">
        <ele>507.8</ele>
        <time>2022-05-20 21:49:27</time>
      </trkpt>
      <trkpt lat="41.51297" lon="1.52611">
        <ele>508</ele>
        <time>2022-05-20 21:49:28</time>
      </trkpt>
      <trkpt lat="41.51299" lon="1.52608">
        <ele>508.2</ele>
        <time>2022-05-20 21:49:29</time>
      </trkpt>
      <trkpt lat="41.51302" lon="1.52605">
        <ele>508.4</ele>
        <time>2022-05-20 21:49:30</time>
      </trkpt>
      <trkpt lat="41.51304" lon="1.52603">
        <ele>508.6</ele>
        <time>2022-05-20 21:49:31</time>
      </trkpt>
      <trkpt lat="41.51307" lon="1.52601">
        <ele>508.8</ele>
        <time>2022-05-20 21:49:32</time>
      </trkpt>
      <trkpt lat="41.5131" lon="1.52599">
        <ele>509</ele>
        <time>2022-05-20 21:49:33</time>
      </trkpt>
      <trkpt lat="41.51313" lon="1.52597">
        <ele>509.2</ele>
        <time>2022-05-20 21:49:34</time>
      </trkpt>
      <trkpt lat="41.51317" lon="1.52595">
        <ele>509.4</ele>
        <time>2022-05-20 21:49:35</time>
      </trkpt>
      <trkpt lat="41.5132" lon="1.52594">
        <ele>509.6</ele>
        <time>2022-05-20 21:49:36</time>
      </trkpt>
      <trkpt lat="41.51323" lon="1.52593">
        <ele>509.8</ele>
        <time>2022-05-20 21:49:37</time>
      </trkpt>
      <trkpt lat="41.51326" lon="1.52591">
        <ele>510</ele>
        <time>2022-05-20 21:49:38</time>
      </trkpt>
      <trkpt lat="41.51329" lon="1.5259">
        <ele>510.2</ele>
        <time>2022-05-20 21:49:39</time>
      </trkpt>
      <trkpt lat="41.51333" lon="1.52588">
        <ele>510.4</ele>
        <time>2022-05-20 21:49:40</time>
      </trkpt>
      <trkpt lat="41.51336" lon="1.52587">
        <ele>510.6</ele>
        <time>2022-05-20 21:49:41</time>
      </trkpt>
      <trkpt lat="41.51339" lon="1.52586">
        <ele>510.8</ele>
        <time>2022-05-20 21:49:42</time>
      </trkpt>
      <trkpt lat="41.51342" lon="1.52584">
        <ele>511</ele>
        <time>2022-05-20 21:49:43</time>
      </trkpt>
      <trkpt lat="41.51346" lon="1.52583">
        <ele>511.2</ele>
        <time>2022-05-20 21:49:44</time>
      </trkpt>
      <trkpt lat="41.51349" lon="1.52582">
        <ele>511.4</ele>
        <time>2022-05-20 21:49:45</time>
      </trkpt>
      <trkpt lat="41.51352" lon="1.52581">
        <ele>511.6</ele>
        <time>2022-05-20 21:49:46</time>
      </trkpt>
      <trkpt lat="41.51355" lon="1.52579">
        <ele>511.8</ele>
        <time>2022-05-20 21:49:47</time>
      </trkpt>
      <trkpt lat="41.51359" lon="1.52578">
        <ele>512</ele>
        <time>2022-05-20 21:49:48</time>
      </trkpt>
      <trkpt lat="41.51362" lon="1.52577">
        <ele>512.2</ele>
        <time>2022-05-20 21:49:49</time>
      </trkpt>
      <trkpt lat="41.51365" lon="1.52576">
        <ele>512.4</ele>
        <time>2022-05-20 21:49:50</time>
      </trkpt>
      <trkpt lat="41.51368" lon="1.52575">
        <ele>512.6</ele>
        <time>2022-05-20 21:49:51</time>
      </trkpt>
      <trkpt lat="41.51371" lon="1.52574">
        <ele>512.8</ele>
        <time>2022-05-20 21:49:52</time>
      </trkpt>
      <trkpt lat="41.51374" lon="1.52572">
        <ele>513</ele>
        <time>2022-05-20 21:49:53</time>
      </trkpt>
      <trkpt lat="41.51378" lon="1.52571">
        <ele>513.2</ele>
        <time>2022-05-20 21:49:54</time>
      </trkpt>
      <trkpt lat="41.51381" lon="1.5257">
        <ele>513.4</ele>
        <time>2022-05-20 21:49:55</time>
      </trkpt>
      <trkpt lat="41.51384" lon="1.52569">
        <ele>513.6</ele>
        <time>2022-05-20 21:49:56</time>
      </trkpt>
      <trkpt lat="41.51388" lon="1.52567">
        <ele>513.8</ele>
        <time>2022-05-20 21:49:57</time>
      </trkpt>
      <trkpt lat="41.51392" lon="1.52566">
        <ele>514</ele>
        <time>2022-05-20 21:49:58</time>
      </trkpt>
      <trkpt lat="41.51395" lon="1.52565">
        <ele>514.2</ele>
        <time>2022-05-20 21:49:59</time>
      </trkpt>
      <trkpt lat="41.51399" lon="1.52563">
        <ele>514.4</ele>
        <time>2022-05-20 21:50:00</time>
      </trkpt>
      <trkpt lat="41.51402" lon="1.52562">
        <ele>514.8</ele>
        <time>2022-05-20 21:50:01</time>
      </trkpt>
      <trkpt lat="41.51406" lon="1.52561">
        <ele>515</ele>
        <time>2022-05-20 21:50:02</time>
      </trkpt>
      <trkpt lat="41.51409" lon="1.52559">
        <ele>515.2</ele>
        <time>2022-05-20 21:50:03</time>
      </trkpt>
      <trkpt lat="41.51413" lon="1.52558">
        <ele>515.4</ele>
        <time>2022-05-20 21:50:04</time>
      </trkpt>
      <trkpt lat="41.51416" lon="1.52556">
        <ele>515.6</ele>
        <time>2022-05-20 21:50:05</time>
      </trkpt>
      <trkpt lat="41.51419" lon="1.52555">
        <ele>515.8</ele>
        <time>2022-05-20 21:50:06</time>
      </trkpt>
      <trkpt lat="41.51423" lon="1.52554">
        <ele>516</ele>
        <time>2022-05-20 21:50:07</time>
      </trkpt>
      <trkpt lat="41.51426" lon="1.52553">
        <ele>516.2</ele>
        <time>2022-05-20 21:50:08</time>
      </trkpt>
      <trkpt lat="41.5143" lon="1.52551">
        <ele>516.4</ele>
        <time>2022-05-20 21:50:09</time>
      </trkpt>
      <trkpt lat="41.51433" lon="1.5255">
        <ele>516.6</ele>
        <time>2022-05-20 21:50:10</time>
      </trkpt>
      <trkpt lat="41.51437" lon="1.52548">
        <ele>516.6</ele>
        <time>2022-05-20 21:50:11</time>
      </trkpt>
      <trkpt lat="41.5144" lon="1.52547">
        <ele>516.8</ele>
        <time>2022-05-20 21:50:12</time>
      </trkpt>
      <trkpt lat="41.51443" lon="1.52546">
        <ele>517</ele>
        <time>2022-05-20 21:50:13</time>
      </trkpt>
      <trkpt lat="41.51447" lon="1.52545">
        <ele>517.2</ele>
        <time>2022-05-20 21:50:14</time>
      </trkpt>
      <trkpt lat="41.5145" lon="1.52543">
        <ele>517.4</ele>
        <time>2022-05-20 21:50:15</time>
      </trkpt>
      <trkpt lat="41.51453" lon="1.52542">
        <ele>517.6</ele>
        <time>2022-05-20 21:50:16</time>
      </trkpt>
      <trkpt lat="41.51457" lon="1.52541">
        <ele>517.8</ele>
        <time>2022-05-20 21:50:17</time>
      </trkpt>
      <trkpt lat="41.5146" lon="1.52539">
        <ele>518</ele>
        <time>2022-05-20 21:50:18</time>
      </trkpt>
      <trkpt lat="41.51463" lon="1.52538">
        <ele>518.2</ele>
        <time>2022-05-20 21:50:19</time>
      </trkpt>
      <trkpt lat="41.51467" lon="1.52536">
        <ele>518.4</ele>
        <time>2022-05-20 21:50:20</time>
      </trkpt>
      <trkpt lat="41.5147" lon="1.52535">
        <ele>518.6</ele>
        <time>2022-05-20 21:50:21</time>
      </trkpt>
      <trkpt lat="41.51473" lon="1.52533">
        <ele>518.8</ele>
        <time>2022-05-20 21:50:22</time>
      </trkpt>
      <trkpt lat="41.51477" lon="1.52532">
        <ele>519</ele>
        <time>2022-05-20 21:50:23</time>
      </trkpt>
      <trkpt lat="41.5148" lon="1.52531">
        <ele>519.2</ele>
        <time>2022-05-20 21:50:24</time>
      </trkpt>
      <trkpt lat="41.51484" lon="1.52528">
        <ele>519.4</ele>
        <time>2022-05-20 21:50:25</time>
      </trkpt>
      <trkpt lat="41.51487" lon="1.52526">
        <ele>519.6</ele>
        <time>2022-05-20 21:50:26</time>
      </trkpt>
      <trkpt lat="41.5149" lon="1.52525">
        <ele>519.8</ele>
        <time>2022-05-20 21:50:27</time>
      </trkpt>
      <trkpt lat="41.51493" lon="1.52523">
        <ele>520</ele>
        <time>2022-05-20 21:50:28</time>
      </trkpt>
      <trkpt lat="41.51497" lon="1.52522">
        <ele>520.2</ele>
        <time>2022-05-20 21:50:29</time>
      </trkpt>
      <trkpt lat="41.515" lon="1.5252">
        <ele>520.4</ele>
        <time>2022-05-20 21:50:30</time>
      </trkpt>
      <trkpt lat="41.51504" lon="1.52519">
        <ele>520.6</ele>
        <time>2022-05-20 21:50:31</time>
      </trkpt>
      <trkpt lat="41.51508" lon="1.52518">
        <ele>520.8</ele>
        <time>2022-05-20 21:50:32</time>
      </trkpt>
      <trkpt lat="41.51511" lon="1.52517">
        <ele>521</ele>
        <time>2022-05-20 21:50:33</time>
      </trkpt>
      <trkpt lat="41.51515" lon="1.52516">
        <ele>521.2</ele>
        <time>2022-05-20 21:50:34</time>
      </trkpt>
      <trkpt lat="41.51519" lon="1.52515">
        <ele>521.4</ele>
        <time>2022-05-20 21:50:35</time>
      </trkpt>
      <trkpt lat="41.51522" lon="1.52513">
        <ele>521.6</ele>
        <time>2022-05-20 21:50:36</time>
      </trkpt>
      <trkpt lat="41.51525" lon="1.52512">
        <ele>521.8</ele>
        <time>2022-05-20 21:50:37</time>
      </trkpt>
      <trkpt lat="41.51529" lon="1.5251">
        <ele>522</ele>
        <time>2022-05-20 21:50:38</time>
      </trkpt>
      <trkpt lat="41.51532" lon="1.52509">
        <ele>522.2</ele>
        <time>2022-05-20 21:50:39</time>
      </trkpt>
      <trkpt lat="41.51536" lon="1.52508">
        <ele>522.4</ele>
        <time>2022-05-20 21:50:40</time>
      </trkpt>
      <trkpt lat="41.5154" lon="1.52506">
        <ele>522.6</ele>
        <time>2022-05-20 21:50:41</time>
      </trkpt>
      <trkpt lat="41.51543" lon="1.52505">
        <ele>522.8</ele>
        <time>2022-05-20 21:50:42</time>
      </trkpt>
      <trkpt lat="41.51546" lon="1.52504">
        <ele>523.2</ele>
        <time>2022-05-20 21:50:43</time>
      </trkpt>
      <trkpt lat="41.5155" lon="1.52502">
        <ele>523.4</ele>
        <time>2022-05-20 21:50:44</time>
      </trkpt>
      <trkpt lat="41.51553" lon="1.52501">
        <ele>523.6</ele>
        <time>2022-05-20 21:50:45</time>
      </trkpt>
      <trkpt lat="41.51557" lon="1.52499">
        <ele>523.8</ele>
        <time>2022-05-20 21:50:46</time>
      </trkpt>
      <trkpt lat="41.5156" lon="1.52498">
        <ele>524</ele>
        <time>2022-05-20 21:50:47</time>
      </trkpt>
      <trkpt lat="41.51564" lon="1.52496">
        <ele>524.2</ele>
        <time>2022-05-20 21:50:48</time>
      </trkpt>
      <trkpt lat="41.51567" lon="1.52495">
        <ele>524.4</ele>
        <time>2022-05-20 21:50:49</time>
      </trkpt>
      <trkpt lat="41.51571" lon="1.52494">
        <ele>524.6</ele>
        <time>2022-05-20 21:50:50</time>
      </trkpt>
      <trkpt lat="41.51575" lon="1.52493">
        <ele>524.8</ele>
        <time>2022-05-20 21:50:51</time>
      </trkpt>
      <trkpt lat="41.51578" lon="1.52492">
        <ele>525</ele>
        <time>2022-05-20 21:50:52</time>
      </trkpt>
      <trkpt lat="41.51582" lon="1.52491">
        <ele>525.2</ele>
        <time>2022-05-20 21:50:53</time>
      </trkpt>
      <trkpt lat="41.51585" lon="1.52489">
        <ele>525.4</ele>
        <time>2022-05-20 21:50:54</time>
      </trkpt>
      <trkpt lat="41.51588" lon="1.52488">
        <ele>525.6</ele>
        <time>2022-05-20 21:50:55</time>
      </trkpt>
      <trkpt lat="41.51592" lon="1.52486">
        <ele>525.8</ele>
        <time>2022-05-20 21:50:56</time>
      </trkpt>
      <trkpt lat="41.51595" lon="1.52485">
        <ele>526</ele>
        <time>2022-05-20 21:50:57</time>
      </trkpt>
      <trkpt lat="41.51598" lon="1.52483">
        <ele>526.2</ele>
        <time>2022-05-20 21:50:58</time>
      </trkpt>
      <trkpt lat="41.51602" lon="1.52482">
        <ele>526.4</ele>
        <time>2022-05-20 21:50:59</time>
      </trkpt>
      <trkpt lat="41.51605" lon="1.52481">
        <ele>526.6</ele>
        <time>2022-05-20 21:51:00</time>
      </trkpt>
      <trkpt lat="41.51609" lon="1.52481">
        <ele>526.8</ele>
        <time>2022-05-20 21:51:01</time>
      </trkpt>
      <trkpt lat="41.51612" lon="1.5248">
        <ele>527</ele>
        <time>2022-05-20 21:51:02</time>
      </trkpt>
      <trkpt lat="41.51616" lon="1.5248">
        <ele>527.2</ele>
        <time>2022-05-20 21:51:03</time>
      </trkpt>
      <trkpt lat="41.51619" lon="1.52479">
        <ele>527.4</ele>
        <time>2022-05-20 21:51:04</time>
      </trkpt>
      <trkpt lat="41.51623" lon="1.52479">
        <ele>527.6</ele>
        <time>2022-05-20 21:51:05</time>
      </trkpt>
      <trkpt lat="41.51626" lon="1.52479">
        <ele>527.8</ele>
        <time>2022-05-20 21:51:06</time>
      </trkpt>
      <trkpt lat="41.5163" lon="1.52479">
        <ele>528</ele>
        <time>2022-05-20 21:51:07</time>
      </trkpt>
      <trkpt lat="41.51633" lon="1.52479">
        <ele>528.2</ele>
        <time>2022-05-20 21:51:08</time>
      </trkpt>
      <trkpt lat="41.51637" lon="1.52479">
        <ele>528.4</ele>
        <time>2022-05-20 21:51:09</time>
      </trkpt>
      <trkpt lat="41.51641" lon="1.52479">
        <ele>528.8</ele>
        <time>2022-05-20 21:51:10</time>
      </trkpt>
      <trkpt lat="41.51644" lon="1.52479">
        <ele>529</ele>
        <time>2022-05-20 21:51:11</time>
      </trkpt>
      <trkpt lat="41.51647" lon="1.52479">
        <ele>529.2</ele>
        <time>2022-05-20 21:51:12</time>
      </trkpt>
      <trkpt lat="41.51651" lon="1.5248">
        <ele>529.4</ele>
        <time>2022-05-20 21:51:13</time>
      </trkpt>
      <trkpt lat="41.51654" lon="1.5248">
        <ele>529.6</ele>
        <time>2022-05-20 21:51:14</time>
      </trkpt>
      <trkpt lat="41.51658" lon="1.5248">
        <ele>529.8</ele>
        <time>2022-05-20 21:51:15</time>
      </trkpt>
      <trkpt lat="41.51661" lon="1.52481">
        <ele>530</ele>
        <time>2022-05-20 21:51:16</time>
      </trkpt>
      <trkpt lat="41.51665" lon="1.52481">
        <ele>530.2</ele>
        <time>2022-05-20 21:51:17</time>
      </trkpt>
      <trkpt lat="41.51669" lon="1.52481">
        <ele>530.4</ele>
        <time>2022-05-20 21:51:18</time>
      </trkpt>
      <trkpt lat="41.51672" lon="1.52482">
        <ele>530.6</ele>
        <time>2022-05-20 21:51:19</time>
      </trkpt>
      <trkpt lat="41.51675" lon="1.52482">
        <ele>530.8</ele>
        <time>2022-05-20 21:51:20</time>
      </trkpt>
      <trkpt lat="41.51678" lon="1.52483">
        <ele>531</ele>
        <time>2022-05-20 21:51:21</time>
      </trkpt>
      <trkpt lat="41.51682" lon="1.52483">
        <ele>531.2</ele>
        <time>2022-05-20 21:51:22</time>
      </trkpt>
      <trkpt lat="41.51685" lon="1.52483">
        <ele>531.4</ele>
        <time>2022-05-20 21:51:23</time>
      </trkpt>
      <trkpt lat="41.51688" lon="1.52484">
        <ele>531.6</ele>
        <time>2022-05-20 21:51:24</time>
      </trkpt>
      <trkpt lat="41.51692" lon="1.52484">
        <ele>531.8</ele>
        <time>2022-05-20 21:51:25</time>
      </trkpt>
      <trkpt lat="41.51695" lon="1.52484">
        <ele>532</ele>
        <time>2022-05-20 21:51:26</time>
      </trkpt>
      <trkpt lat="41.51699" lon="1.52484">
        <ele>532.2</ele>
        <time>2022-05-20 21:51:27</time>
      </trkpt>
      <trkpt lat="41.51702" lon="1.52484">
        <ele>532.4</ele>
        <time>2022-05-20 21:51:28</time>
      </trkpt>
      <trkpt lat="41.51705" lon="1.52485">
        <ele>532.6</ele>
        <time>2022-05-20 21:51:29</time>
      </trkpt>
      <trkpt lat="41.51709" lon="1.52485">
        <ele>532.8</ele>
        <time>2022-05-20 21:51:30</time>
      </trkpt>
      <trkpt lat="41.51712" lon="1.52486">
        <ele>533</ele>
        <time>2022-05-20 21:51:31</time>
      </trkpt>
      <trkpt lat="41.51715" lon="1.52486">
        <ele>533.2</ele>
        <time>2022-05-20 21:51:32</time>
      </trkpt>
      <trkpt lat="41.51719" lon="1.52486">
        <ele>533.4</ele>
        <time>2022-05-20 21:51:33</time>
      </trkpt>
      <trkpt lat="41.51722" lon="1.52487">
        <ele>533.6</ele>
        <time>2022-05-20 21:51:34</time>
      </trkpt>
      <trkpt lat="41.51725" lon="1.52487">
        <ele>533.8</ele>
        <time>2022-05-20 21:51:35</time>
      </trkpt>
      <trkpt lat="41.51728" lon="1.52487">
        <ele>534</ele>
        <time>2022-05-20 21:51:36</time>
      </trkpt>
      <trkpt lat="41.51732" lon="1.52487">
        <ele>534.2</ele>
        <time>2022-05-20 21:51:37</time>
      </trkpt>
      <trkpt lat="41.51735" lon="1.52487">
        <ele>534.4</ele>
        <time>2022-05-20 21:51:38</time>
      </trkpt>
      <trkpt lat="41.51738" lon="1.52487">
        <ele>534.6</ele>
        <time>2022-05-20 21:51:39</time>
      </trkpt>
      <trkpt lat="41.51742" lon="1.52488">
        <ele>534.8</ele>
        <time>2022-05-20 21:51:40</time>
      </trkpt>
      <trkpt lat="41.51745" lon="1.52488">
        <ele>535</ele>
        <time>2022-05-20 21:51:41</time>
      </trkpt>
      <trkpt lat="41.51748" lon="1.52488">
        <ele>535.2</ele>
        <time>2022-05-20 21:51:42</time>
      </trkpt>
      <trkpt lat="41.51752" lon="1.52488">
        <ele>535.4</ele>
        <time>2022-05-20 21:51:43</time>
      </trkpt>
      <trkpt lat="41.51755" lon="1.52488">
        <ele>535.6</ele>
        <time>2022-05-20 21:51:44</time>
      </trkpt>
      <trkpt lat="41.51758" lon="1.52488">
        <ele>535.8</ele>
        <time>2022-05-20 21:51:45</time>
      </trkpt>
      <trkpt lat="41.51762" lon="1.52488">
        <ele>536</ele>
        <time>2022-05-20 21:51:46</time>
      </trkpt>
      <trkpt lat="41.51765" lon="1.52488">
        <ele>536.4</ele>
        <time>2022-05-20 21:51:47</time>
      </trkpt>
      <trkpt lat="41.51769" lon="1.52488">
        <ele>536.6</ele>
        <time>2022-05-20 21:51:48</time>
      </trkpt>
      <trkpt lat="41.51772" lon="1.52488">
        <ele>536.8</ele>
        <time>2022-05-20 21:51:49</time>
      </trkpt>
      <trkpt lat="41.51776" lon="1.52487">
        <ele>537</ele>
        <time>2022-05-20 21:51:50</time>
      </trkpt>
      <trkpt lat="41.51779" lon="1.52487">
        <ele>537.2</ele>
        <time>2022-05-20 21:51:51</time>
      </trkpt>
      <trkpt lat="41.51783" lon="1.52486">
        <ele>537.4</ele>
        <time>2022-05-20 21:51:52</time>
      </trkpt>
      <trkpt lat="41.51786" lon="1.52485">
        <ele>537.6</ele>
        <time>2022-05-20 21:51:53</time>
      </trkpt>
      <trkpt lat="41.51789" lon="1.52485">
        <ele>537.8</ele>
        <time>2022-05-20 21:51:54</time>
      </trkpt>
      <trkpt lat="41.51793" lon="1.52484">
        <ele>537.8</ele>
        <time>2022-05-20 21:51:55</time>
      </trkpt>
      <trkpt lat="41.51797" lon="1.52483">
        <ele>538</ele>
        <time>2022-05-20 21:51:56</time>
      </trkpt>
      <trkpt lat="41.51801" lon="1.52481">
        <ele>538.2</ele>
        <time>2022-05-20 21:51:57</time>
      </trkpt>
      <trkpt lat="41.51805" lon="1.5248">
        <ele>538.2</ele>
        <time>2022-05-20 21:51:58</time>
      </trkpt>
      <trkpt lat="41.51809" lon="1.52479">
        <ele>538.2</ele>
        <time>2022-05-20 21:51:59</time>
      </trkpt>
      <trkpt lat="41.51814" lon="1.52478">
        <ele>538.2</ele>
        <time>2022-05-20 21:52:00</time>
      </trkpt>
      <trkpt lat="41.51819" lon="1.52477">
        <ele>538.2</ele>
        <time>2022-05-20 21:52:01</time>
      </trkpt>
      <trkpt lat="41.51824" lon="1.52475">
        <ele>538</ele>
        <time>2022-05-20 21:52:02</time>
      </trkpt>
      <trkpt lat="41.51829" lon="1.52474">
        <ele>538</ele>
        <time>2022-05-20 21:52:03</time>
      </trkpt>
      <trkpt lat="41.51835" lon="1.52472">
        <ele>537.8</ele>
        <time>2022-05-20 21:52:04</time>
      </trkpt>
      <trkpt lat="41.51841" lon="1.52471">
        <ele>537.8</ele>
        <time>2022-05-20 21:52:05</time>
      </trkpt>
      <trkpt lat="41.51846" lon="1.5247">
        <ele>537.6</ele>
        <time>2022-05-20 21:52:06</time>
      </trkpt>
      <trkpt lat="41.51852" lon="1.52469">
        <ele>537.4</ele>
        <time>2022-05-20 21:52:07</time>
      </trkpt>
      <trkpt lat="41.51859" lon="1.52468">
        <ele>537.2</ele>
        <time>2022-05-20 21:52:08</time>
      </trkpt>
      <trkpt lat="41.51864" lon="1.52467">
        <ele>537.2</ele>
        <time>2022-05-20 21:52:09</time>
      </trkpt>
      <trkpt lat="41.51871" lon="1.52466">
        <ele>537</ele>
        <time>2022-05-20 21:52:10</time>
      </trkpt>
      <trkpt lat="41.51878" lon="1.52465">
        <ele>536.8</ele>
        <time>2022-05-20 21:52:11</time>
      </trkpt>
      <trkpt lat="41.51884" lon="1.52464">
        <ele>536.6</ele>
        <time>2022-05-20 21:52:12</time>
      </trkpt>
      <trkpt lat="41.51892" lon="1.52463">
        <ele>536.4</ele>
        <time>2022-05-20 21:52:13</time>
      </trkpt>
      <trkpt lat="41.51899" lon="1.52462">
        <ele>536.2</ele>
        <time>2022-05-20 21:52:14</time>
      </trkpt>
      <trkpt lat="41.51906" lon="1.52461">
        <ele>536.2</ele>
        <time>2022-05-20 21:52:15</time>
      </trkpt>
      <trkpt lat="41.51913" lon="1.52461">
        <ele>536.2</ele>
        <time>2022-05-20 21:52:16</time>
      </trkpt>
      <trkpt lat="41.51921" lon="1.52461">
        <ele>536.2</ele>
        <time>2022-05-20 21:52:17</time>
      </trkpt>
      <trkpt lat="41.51928" lon="1.52463">
        <ele>536.2</ele>
        <time>2022-05-20 21:52:18</time>
      </trkpt>
      <trkpt lat="41.51934" lon="1.52467">
        <ele>536.4</ele>
        <time>2022-05-20 21:52:19</time>
      </trkpt>
      <trkpt lat="41.51939" lon="1.52473">
        <ele>536.6</ele>
        <time>2022-05-20 21:52:20</time>
      </trkpt>
      <trkpt lat="41.51943" lon="1.5248">
        <ele>536.8</ele>
        <time>2022-05-20 21:52:21</time>
      </trkpt>
      <trkpt lat="41.51946" lon="1.52487">
        <ele>537</ele>
        <time>2022-05-20 21:52:22</time>
      </trkpt>
      <trkpt lat="41.51949" lon="1.52495">
        <ele>537.2</ele>
        <time>2022-05-20 21:52:23</time>
      </trkpt>
      <trkpt lat="41.51951" lon="1.52502">
        <ele>537.4</ele>
        <time>2022-05-20 21:52:24</time>
      </trkpt>
      <trkpt lat="41.51954" lon="1.5251">
        <ele>537.6</ele>
        <time>2022-05-20 21:52:25</time>
      </trkpt>
      <trkpt lat="41.51955" lon="1.52519">
        <ele>537.8</ele>
        <time>2022-05-20 21:52:26</time>
      </trkpt>
      <trkpt lat="41.51958" lon="1.52527">
        <ele>537.8</ele>
        <time>2022-05-20 21:52:27</time>
      </trkpt>
      <trkpt lat="41.5196" lon="1.52535">
        <ele>538</ele>
        <time>2022-05-20 21:52:28</time>
      </trkpt>
      <trkpt lat="41.51962" lon="1.52544">
        <ele>538</ele>
        <time>2022-05-20 21:52:29</time>
      </trkpt>
      <trkpt lat="41.51964" lon="1.52553">
        <ele>538.2</ele>
        <time>2022-05-20 21:52:30</time>
      </trkpt>
      <trkpt lat="41.51966" lon="1.52561">
        <ele>538.2</ele>
        <time>2022-05-20 21:52:31</time>
      </trkpt>
      <trkpt lat="41.51969" lon="1.5257">
        <ele>538.2</ele>
        <time>2022-05-20 21:52:32</time>
      </trkpt>
      <trkpt lat="41.51971" lon="1.52579">
        <ele>538.4</ele>
        <time>2022-05-20 21:52:33</time>
      </trkpt>
      <trkpt lat="41.51973" lon="1.52588">
        <ele>538.4</ele>
        <time>2022-05-20 21:52:34</time>
      </trkpt>
      <trkpt lat="41.51974" lon="1.52597">
        <ele>538.4</ele>
        <time>2022-05-20 21:52:35</time>
      </trkpt>
      <trkpt lat="41.51976" lon="1.52606">
        <ele>538.4</ele>
        <time>2022-05-20 21:52:36</time>
      </trkpt>
      <trkpt lat="41.51979" lon="1.52616">
        <ele>538.6</ele>
        <time>2022-05-20 21:52:37</time>
      </trkpt>
      <trkpt lat="41.51981" lon="1.52625">
        <ele>538.6</ele>
        <time>2022-05-20 21:52:38</time>
      </trkpt>
      <trkpt lat="41.51983" lon="1.52634">
        <ele>538.8</ele>
        <time>2022-05-20 21:52:39</time>
      </trkpt>
      <trkpt lat="41.51985" lon="1.52643">
        <ele>538.8</ele>
        <time>2022-05-20 21:52:40</time>
      </trkpt>
      <trkpt lat="41.51987" lon="1.52651">
        <ele>539</ele>
        <time>2022-05-20 21:52:41</time>
      </trkpt>
      <trkpt lat="41.51989" lon="1.5266">
        <ele>539.2</ele>
        <time>2022-05-20 21:52:42</time>
      </trkpt>
      <trkpt lat="41.51991" lon="1.52669">
        <ele>539.4</ele>
        <time>2022-05-20 21:52:43</time>
      </trkpt>
      <trkpt lat="41.51993" lon="1.52678">
        <ele>539.6</ele>
        <time>2022-05-20 21:52:44</time>
      </trkpt>
      <trkpt lat="41.51995" lon="1.52687">
        <ele>539.8</ele>
        <time>2022-05-20 21:52:45</time>
      </trkpt>
      <trkpt lat="41.51997" lon="1.52696">
        <ele>540</ele>
        <time>2022-05-20 21:52:46</time>
      </trkpt>
      <trkpt lat="41.51999" lon="1.52705">
        <ele>540.2</ele>
        <time>2022-05-20 21:52:47</time>
      </trkpt>
      <trkpt lat="41.52001" lon="1.52713">
        <ele>540.4</ele>
        <time>2022-05-20 21:52:48</time>
      </trkpt>
      <trkpt lat="41.52003" lon="1.52721">
        <ele>540.4</ele>
        <time>2022-05-20 21:52:49</time>
      </trkpt>
      <trkpt lat="41.52006" lon="1.5273">
        <ele>540.6</ele>
        <time>2022-05-20 21:52:50</time>
      </trkpt>
      <trkpt lat="41.52009" lon="1.52738">
        <ele>540.6</ele>
        <time>2022-05-20 21:52:51</time>
      </trkpt>
      <trkpt lat="41.52013" lon="1.52746">
        <ele>540.6</ele>
        <time>2022-05-20 21:52:52</time>
      </trkpt>
      <trkpt lat="41.52018" lon="1.52754">
        <ele>540.6</ele>
        <time>2022-05-20 21:52:53</time>
      </trkpt>
      <trkpt lat="41.52023" lon="1.52762">
        <ele>540.4</ele>
        <time>2022-05-20 21:52:54</time>
      </trkpt>
      <trkpt lat="41.52029" lon="1.5277">
        <ele>540.2</ele>
        <time>2022-05-20 21:52:55</time>
      </trkpt>
      <trkpt lat="41.52035" lon="1.52777">
        <ele>540.2</ele>
        <time>2022-05-20 21:52:56</time>
      </trkpt>
      <trkpt lat="41.52041" lon="1.52783">
        <ele>540</ele>
        <time>2022-05-20 21:52:57</time>
      </trkpt>
      <trkpt lat="41.52048" lon="1.52789">
        <ele>539.8</ele>
        <time>2022-05-20 21:52:58</time>
      </trkpt>
      <trkpt lat="41.52056" lon="1.52795">
        <ele>539.4</ele>
        <time>2022-05-20 21:52:59</time>
      </trkpt>
      <trkpt lat="41.52063" lon="1.52801">
        <ele>539.2</ele>
        <time>2022-05-20 21:53:00</time>
      </trkpt>
      <trkpt lat="41.52071" lon="1.52807">
        <ele>539</ele>
        <time>2022-05-20 21:53:01</time>
      </trkpt>
      <trkpt lat="41.52078" lon="1.52813">
        <ele>538.8</ele>
        <time>2022-05-20 21:53:02</time>
      </trkpt>
      <trkpt lat="41.52086" lon="1.52818">
        <ele>538.6</ele>
        <time>2022-05-20 21:53:03</time>
      </trkpt>
      <trkpt lat="41.52094" lon="1.52824">
        <ele>538.2</ele>
        <time>2022-05-20 21:53:04</time>
      </trkpt>
      <trkpt lat="41.52102" lon="1.52829">
        <ele>538</ele>
        <time>2022-05-20 21:53:05</time>
      </trkpt>
      <trkpt lat="41.5211" lon="1.52835">
        <ele>537.8</ele>
        <time>2022-05-20 21:53:06</time>
      </trkpt>
      <trkpt lat="41.52118" lon="1.52841">
        <ele>537.6</ele>
        <time>2022-05-20 21:53:07</time>
      </trkpt>
      <trkpt lat="41.52126" lon="1.52847">
        <ele>537.4</ele>
        <time>2022-05-20 21:53:08</time>
      </trkpt>
      <trkpt lat="41.52134" lon="1.52853">
        <ele>537.2</ele>
        <time>2022-05-20 21:53:09</time>
      </trkpt>
      <trkpt lat="41.52142" lon="1.52859">
        <ele>536.8</ele>
        <time>2022-05-20 21:53:10</time>
      </trkpt>
      <trkpt lat="41.5215" lon="1.52865">
        <ele>536.6</ele>
        <time>2022-05-20 21:53:11</time>
      </trkpt>
      <trkpt lat="41.52158" lon="1.52871">
        <ele>536.2</ele>
        <time>2022-05-20 21:53:12</time>
      </trkpt>
      <trkpt lat="41.52166" lon="1.52878">
        <ele>536</ele>
        <time>2022-05-20 21:53:13</time>
      </trkpt>
      <trkpt lat="41.52174" lon="1.52884">
        <ele>535.8</ele>
        <time>2022-05-20 21:53:14</time>
      </trkpt>
      <trkpt lat="41.52182" lon="1.52889">
        <ele>535.6</ele>
        <time>2022-05-20 21:53:15</time>
      </trkpt>
      <trkpt lat="41.5219" lon="1.52895">
        <ele>535.4</ele>
        <time>2022-05-20 21:53:16</time>
      </trkpt>
      <trkpt lat="41.52198" lon="1.52901">
        <ele>535.4</ele>
        <time>2022-05-20 21:53:17</time>
      </trkpt>
      <trkpt lat="41.52207" lon="1.52906">
        <ele>535.4</ele>
        <time>2022-05-20 21:53:18</time>
      </trkpt>
      <trkpt lat="41.52215" lon="1.52911">
        <ele>535.2</ele>
        <time>2022-05-20 21:53:19</time>
      </trkpt>
      <trkpt lat="41.52223" lon="1.52916">
        <ele>535.2</ele>
        <time>2022-05-20 21:53:20</time>
      </trkpt>
      <trkpt lat="41.5223" lon="1.52921">
        <ele>535.4</ele>
        <time>2022-05-20 21:53:21</time>
      </trkpt>
      <trkpt lat="41.52237" lon="1.52927">
        <ele>535.4</ele>
        <time>2022-05-20 21:53:22</time>
      </trkpt>
      <trkpt lat="41.52243" lon="1.52932">
        <ele>535.4</ele>
        <time>2022-05-20 21:53:23</time>
      </trkpt>
      <trkpt lat="41.5225" lon="1.52938">
        <ele>535.6</ele>
        <time>2022-05-20 21:53:24</time>
      </trkpt>
      <trkpt lat="41.52256" lon="1.52943">
        <ele>535.8</ele>
        <time>2022-05-20 21:53:25</time>
      </trkpt>
      <trkpt lat="41.52261" lon="1.5295">
        <ele>536</ele>
        <time>2022-05-20 21:53:26</time>
      </trkpt>
      <trkpt lat="41.52266" lon="1.52956">
        <ele>536.2</ele>
        <time>2022-05-20 21:53:27</time>
      </trkpt>
      <trkpt lat="41.5227" lon="1.52962">
        <ele>536.4</ele>
        <time>2022-05-20 21:53:28</time>
      </trkpt>
      <trkpt lat="41.52274" lon="1.52968">
        <ele>536.8</ele>
        <time>2022-05-20 21:53:29</time>
      </trkpt>
      <trkpt lat="41.52277" lon="1.52975">
        <ele>537.4</ele>
        <time>2022-05-20 21:53:30</time>
      </trkpt>
      <trkpt lat="41.5228" lon="1.52981">
        <ele>537.6</ele>
        <time>2022-05-20 21:53:31</time>
      </trkpt>
      <trkpt lat="41.52282" lon="1.52988">
        <ele>538</ele>
        <time>2022-05-20 21:53:32</time>
      </trkpt>
      <trkpt lat="41.52284" lon="1.52995">
        <ele>538.4</ele>
        <time>2022-05-20 21:53:33</time>
      </trkpt>
      <trkpt lat="41.52286" lon="1.53001">
        <ele>538.8</ele>
        <time>2022-05-20 21:53:34</time>
      </trkpt>
      <trkpt lat="41.52288" lon="1.53008">
        <ele>539.2</ele>
        <time>2022-05-20 21:53:35</time>
      </trkpt>
      <trkpt lat="41.52289" lon="1.53014">
        <ele>539.4</ele>
        <time>2022-05-20 21:53:36</time>
      </trkpt>
      <trkpt lat="41.52291" lon="1.5302">
        <ele>539.8</ele>
        <time>2022-05-20 21:53:37</time>
      </trkpt>
      <trkpt lat="41.52292" lon="1.53025">
        <ele>540.2</ele>
        <time>2022-05-20 21:53:38</time>
      </trkpt>
      <trkpt lat="41.52293" lon="1.53031">
        <ele>540.4</ele>
        <time>2022-05-20 21:53:39</time>
      </trkpt>
      <trkpt lat="41.52295" lon="1.53037">
        <ele>540.6</ele>
        <time>2022-05-20 21:53:40</time>
      </trkpt>
      <trkpt lat="41.52296" lon="1.53043">
        <ele>541</ele>
        <time>2022-05-20 21:53:41</time>
      </trkpt>
      <trkpt lat="41.52298" lon="1.53049">
        <ele>541.2</ele>
        <time>2022-05-20 21:53:42</time>
      </trkpt>
      <trkpt lat="41.52299" lon="1.53055">
        <ele>541.4</ele>
        <time>2022-05-20 21:53:43</time>
      </trkpt>
      <trkpt lat="41.523" lon="1.53061">
        <ele>541.8</ele>
        <time>2022-05-20 21:53:44</time>
      </trkpt>
      <trkpt lat="41.52302" lon="1.53067">
        <ele>542</ele>
        <time>2022-05-20 21:53:45</time>
      </trkpt>
      <trkpt lat="41.52303" lon="1.53074">
        <ele>542.2</ele>
        <time>2022-05-20 21:53:46</time>
      </trkpt>
      <trkpt lat="41.52304" lon="1.5308">
        <ele>542.6</ele>
        <time>2022-05-20 21:53:47</time>
      </trkpt>
      <trkpt lat="41.52306" lon="1.53086">
        <ele>542.8</ele>
        <time>2022-05-20 21:53:48</time>
      </trkpt>
      <trkpt lat="41.52307" lon="1.53092">
        <ele>543</ele>
        <time>2022-05-20 21:53:49</time>
      </trkpt>
      <trkpt lat="41.52308" lon="1.53097">
        <ele>543.4</ele>
        <time>2022-05-20 21:53:50</time>
      </trkpt>
      <trkpt lat="41.52309" lon="1.53103">
        <ele>543.6</ele>
        <time>2022-05-20 21:53:51</time>
      </trkpt>
      <trkpt lat="41.52311" lon="1.53109">
        <ele>543.8</ele>
        <time>2022-05-20 21:53:52</time>
      </trkpt>
      <trkpt lat="41.52312" lon="1.53114">
        <ele>544</ele>
        <time>2022-05-20 21:53:53</time>
      </trkpt>
      <trkpt lat="41.52313" lon="1.5312">
        <ele>544.4</ele>
        <time>2022-05-20 21:53:54</time>
      </trkpt>
      <trkpt lat="41.52315" lon="1.53125">
        <ele>544.6</ele>
        <time>2022-05-20 21:53:55</time>
      </trkpt>
      <trkpt lat="41.52316" lon="1.53131">
        <ele>544.8</ele>
        <time>2022-05-20 21:53:56</time>
      </trkpt>
      <trkpt lat="41.52317" lon="1.53136">
        <ele>545.2</ele>
        <time>2022-05-20 21:53:57</time>
      </trkpt>
      <trkpt lat="41.52317" lon="1.53141">
        <ele>545.4</ele>
        <time>2022-05-20 21:53:58</time>
      </trkpt>
      <trkpt lat="41.52319" lon="1.53146">
        <ele>545.6</ele>
        <time>2022-05-20 21:53:59</time>
      </trkpt>
      <trkpt lat="41.52321" lon="1.53152">
        <ele>545.8</ele>
        <time>2022-05-20 21:54:00</time>
      </trkpt>
      <trkpt lat="41.52323" lon="1.53157">
        <ele>546.2</ele>
        <time>2022-05-20 21:54:01</time>
      </trkpt>
      <trkpt lat="41.52325" lon="1.53163">
        <ele>546.4</ele>
        <time>2022-05-20 21:54:02</time>
      </trkpt>
      <trkpt lat="41.52327" lon="1.53168">
        <ele>546.6</ele>
        <time>2022-05-20 21:54:03</time>
      </trkpt>
      <trkpt lat="41.5233" lon="1.53173">
        <ele>546.8</ele>
        <time>2022-05-20 21:54:04</time>
      </trkpt>
      <trkpt lat="41.52333" lon="1.53178">
        <ele>547.2</ele>
        <time>2022-05-20 21:54:05</time>
      </trkpt>
      <trkpt lat="41.52337" lon="1.53182">
        <ele>547.4</ele>
        <time>2022-05-20 21:54:06</time>
      </trkpt>
      <trkpt lat="41.5234" lon="1.53185">
        <ele>547.6</ele>
        <time>2022-05-20 21:54:07</time>
      </trkpt>
      <trkpt lat="41.52344" lon="1.53188">
        <ele>547.8</ele>
        <time>2022-05-20 21:54:08</time>
      </trkpt>
      <trkpt lat="41.52349" lon="1.53191">
        <ele>548.2</ele>
        <time>2022-05-20 21:54:09</time>
      </trkpt>
      <trkpt lat="41.52353" lon="1.53193">
        <ele>548.4</ele>
        <time>2022-05-20 21:54:10</time>
      </trkpt>
      <trkpt lat="41.52356" lon="1.53194">
        <ele>548.6</ele>
        <time>2022-05-20 21:54:11</time>
      </trkpt>
      <trkpt lat="41.52359" lon="1.53195">
        <ele>548.8</ele>
        <time>2022-05-20 21:54:12</time>
      </trkpt>
      <trkpt lat="41.52363" lon="1.53196">
        <ele>549</ele>
        <time>2022-05-20 21:54:13</time>
      </trkpt>
      <trkpt lat="41.52367" lon="1.53197">
        <ele>549.2</ele>
        <time>2022-05-20 21:54:14</time>
      </trkpt>
      <trkpt lat="41.5237" lon="1.53198">
        <ele>549.6</ele>
        <time>2022-05-20 21:54:15</time>
      </trkpt>
      <trkpt lat="41.52374" lon="1.53198">
        <ele>549.8</ele>
        <time>2022-05-20 21:54:16</time>
      </trkpt>
      <trkpt lat="41.52378" lon="1.53199">
        <ele>549.8</ele>
        <time>2022-05-20 21:54:17</time>
      </trkpt>
      <trkpt lat="41.52381" lon="1.532">
        <ele>550</ele>
        <time>2022-05-20 21:54:18</time>
      </trkpt>
      <trkpt lat="41.52385" lon="1.53201">
        <ele>550.2</ele>
        <time>2022-05-20 21:54:19</time>
      </trkpt>
      <trkpt lat="41.52388" lon="1.53202">
        <ele>550.4</ele>
        <time>2022-05-20 21:54:20</time>
      </trkpt>
      <trkpt lat="41.52392" lon="1.53202">
        <ele>550.6</ele>
        <time>2022-05-20 21:54:21</time>
      </trkpt>
      <trkpt lat="41.52396" lon="1.53202">
        <ele>551</ele>
        <time>2022-05-20 21:54:22</time>
      </trkpt>
      <trkpt lat="41.524" lon="1.53202">
        <ele>551.2</ele>
        <time>2022-05-20 21:54:23</time>
      </trkpt>
      <trkpt lat="41.52404" lon="1.53202">
        <ele>551.4</ele>
        <time>2022-05-20 21:54:24</time>
      </trkpt>
      <trkpt lat="41.52407" lon="1.53202">
        <ele>551.6</ele>
        <time>2022-05-20 21:54:25</time>
      </trkpt>
      <trkpt lat="41.52411" lon="1.53203">
        <ele>551.8</ele>
        <time>2022-05-20 21:54:26</time>
      </trkpt>
      <trkpt lat="41.52415" lon="1.53203">
        <ele>552</ele>
        <time>2022-05-20 21:54:27</time>
      </trkpt>
      <trkpt lat="41.52418" lon="1.53202">
        <ele>552.2</ele>
        <time>2022-05-20 21:54:28</time>
      </trkpt>
      <trkpt lat="41.52422" lon="1.53201">
        <ele>552.4</ele>
        <time>2022-05-20 21:54:29</time>
      </trkpt>
      <trkpt lat="41.52425" lon="1.532">
        <ele>552.6</ele>
        <time>2022-05-20 21:54:30</time>
      </trkpt>
      <trkpt lat="41.52429" lon="1.53199">
        <ele>552.8</ele>
        <time>2022-05-20 21:54:31</time>
      </trkpt>
      <trkpt lat="41.52433" lon="1.53198">
        <ele>553</ele>
        <time>2022-05-20 21:54:32</time>
      </trkpt>
      <trkpt lat="41.52436" lon="1.53196">
        <ele>553.2</ele>
        <time>2022-05-20 21:54:33</time>
      </trkpt>
      <trkpt lat="41.52438" lon="1.53193">
        <ele>553.4</ele>
        <time>2022-05-20 21:54:34</time>
      </trkpt>
      <trkpt lat="41.52441" lon="1.5319">
        <ele>553.8</ele>
        <time>2022-05-20 21:54:35</time>
      </trkpt>
      <trkpt lat="41.52443" lon="1.53186">
        <ele>554</ele>
        <time>2022-05-20 21:54:36</time>
      </trkpt>
      <trkpt lat="41.52444" lon="1.53182">
        <ele>554.2</ele>
        <time>2022-05-20 21:54:37</time>
      </trkpt>
      <trkpt lat="41.52445" lon="1.53178">
        <ele>554.4</ele>
        <time>2022-05-20 21:54:38</time>
      </trkpt>
      <trkpt lat="41.52446" lon="1.53173">
        <ele>554.6</ele>
        <time>2022-05-20 21:54:39</time>
      </trkpt>
      <trkpt lat="41.52448" lon="1.53168">
        <ele>554.8</ele>
        <time>2022-05-20 21:54:40</time>
      </trkpt>
      <trkpt lat="41.52449" lon="1.53163">
        <ele>554.8</ele>
        <time>2022-05-20 21:54:41</time>
      </trkpt>
      <trkpt lat="41.52449" lon="1.53158">
        <ele>555</ele>
        <time>2022-05-20 21:54:42</time>
      </trkpt>
      <trkpt lat="41.5245" lon="1.53153">
        <ele>555.2</ele>
        <time>2022-05-20 21:54:43</time>
      </trkpt>
      <trkpt lat="41.52451" lon="1.53148">
        <ele>555.4</ele>
        <time>2022-05-20 21:54:44</time>
      </trkpt>
      <trkpt lat="41.52451" lon="1.53143">
        <ele>555.6</ele>
        <time>2022-05-20 21:54:45</time>
      </trkpt>
      <trkpt lat="41.52451" lon="1.53138">
        <ele>555.8</ele>
        <time>2022-05-20 21:54:46</time>
      </trkpt>
      <trkpt lat="41.52451" lon="1.53133">
        <ele>555.8</ele>
        <time>2022-05-20 21:54:47</time>
      </trkpt>
      <trkpt lat="41.52452" lon="1.53128">
        <ele>556</ele>
        <time>2022-05-20 21:54:48</time>
      </trkpt>
      <trkpt lat="41.52453" lon="1.53123">
        <ele>556.2</ele>
        <time>2022-05-20 21:54:49</time>
      </trkpt>
      <trkpt lat="41.52454" lon="1.53117">
        <ele>556.2</ele>
        <time>2022-05-20 21:54:50</time>
      </trkpt>
      <trkpt lat="41.52456" lon="1.53112">
        <ele>556.4</ele>
        <time>2022-05-20 21:54:51</time>
      </trkpt>
      <trkpt lat="41.52457" lon="1.53107">
        <ele>556.4</ele>
        <time>2022-05-20 21:54:52</time>
      </trkpt>
      <trkpt lat="41.52459" lon="1.53102">
        <ele>556.6</ele>
        <time>2022-05-20 21:54:53</time>
      </trkpt>
      <trkpt lat="41.52462" lon="1.53097">
        <ele>556.6</ele>
        <time>2022-05-20 21:54:54</time>
      </trkpt>
      <trkpt lat="41.52465" lon="1.53094">
        <ele>556.6</ele>
        <time>2022-05-20 21:54:55</time>
      </trkpt>
      <trkpt lat="41.5247" lon="1.53092">
        <ele>556.8</ele>
        <time>2022-05-20 21:54:56</time>
      </trkpt>
      <trkpt lat="41.52474" lon="1.53091">
        <ele>556.8</ele>
        <time>2022-05-20 21:54:57</time>
      </trkpt>
      <trkpt lat="41.52479" lon="1.5309">
        <ele>557</ele>
        <time>2022-05-20 21:54:58</time>
      </trkpt>
      <trkpt lat="41.52484" lon="1.5309">
        <ele>557</ele>
        <time>2022-05-20 21:54:59</time>
      </trkpt>
      <trkpt lat="41.52489" lon="1.53091">
        <ele>557.2</ele>
        <time>2022-05-20 21:55:00</time>
      </trkpt>
      <trkpt lat="41.52494" lon="1.53092">
        <ele>557.4</ele>
        <time>2022-05-20 21:55:01</time>
      </trkpt>
      <trkpt lat="41.52499" lon="1.53092">
        <ele>557.4</ele>
        <time>2022-05-20 21:55:02</time>
      </trkpt>
      <trkpt lat="41.52505" lon="1.53093">
        <ele>557.6</ele>
        <time>2022-05-20 21:55:03</time>
      </trkpt>
      <trkpt lat="41.5251" lon="1.53093">
        <ele>557.6</ele>
        <time>2022-05-20 21:55:04</time>
      </trkpt>
      <trkpt lat="41.52515" lon="1.53093">
        <ele>557.8</ele>
        <time>2022-05-20 21:55:05</time>
      </trkpt>
      <trkpt lat="41.5252" lon="1.53093">
        <ele>558</ele>
        <time>2022-05-20 21:55:06</time>
      </trkpt>
      <trkpt lat="41.52525" lon="1.53091">
        <ele>558</ele>
        <time>2022-05-20 21:55:07</time>
      </trkpt>
      <trkpt lat="41.5253" lon="1.53089">
        <ele>558.2</ele>
        <time>2022-05-20 21:55:08</time>
      </trkpt>
      <trkpt lat="41.52534" lon="1.53086">
        <ele>558.4</ele>
        <time>2022-05-20 21:55:09</time>
      </trkpt>
      <trkpt lat="41.52539" lon="1.53083">
        <ele>558.4</ele>
        <time>2022-05-20 21:55:10</time>
      </trkpt>
      <trkpt lat="41.52543" lon="1.5308">
        <ele>558.6</ele>
        <time>2022-05-20 21:55:11</time>
      </trkpt>
      <trkpt lat="41.52547" lon="1.53076">
        <ele>558.6</ele>
        <time>2022-05-20 21:55:12</time>
      </trkpt>
      <trkpt lat="41.52552" lon="1.53073">
        <ele>558.8</ele>
        <time>2022-05-20 21:55:13</time>
      </trkpt>
      <trkpt lat="41.52557" lon="1.5307">
        <ele>558.8</ele>
        <time>2022-05-20 21:55:14</time>
      </trkpt>
      <trkpt lat="41.52562" lon="1.53068">
        <ele>558.8</ele>
        <time>2022-05-20 21:55:15</time>
      </trkpt>
      <trkpt lat="41.52567" lon="1.53066">
        <ele>559</ele>
        <time>2022-05-20 21:55:16</time>
      </trkpt>
      <trkpt lat="41.52571" lon="1.53064">
        <ele>559.2</ele>
        <time>2022-05-20 21:55:17</time>
      </trkpt>
      <trkpt lat="41.52577" lon="1.53062">
        <ele>559.2</ele>
        <time>2022-05-20 21:55:18</time>
      </trkpt>
      <trkpt lat="41.52582" lon="1.53061">
        <ele>559.4</ele>
        <time>2022-05-20 21:55:19</time>
      </trkpt>
      <trkpt lat="41.52587" lon="1.5306">
        <ele>559.6</ele>
        <time>2022-05-20 21:55:20</time>
      </trkpt>
      <trkpt lat="41.52592" lon="1.53059">
        <ele>559.6</ele>
        <time>2022-05-20 21:55:21</time>
      </trkpt>
      <trkpt lat="41.52597" lon="1.53059">
        <ele>560</ele>
        <time>2022-05-20 21:55:22</time>
      </trkpt>
      <trkpt lat="41.52602" lon="1.53058">
        <ele>560.2</ele>
        <time>2022-05-20 21:55:23</time>
      </trkpt>
      <trkpt lat="41.52607" lon="1.53057">
        <ele>560.4</ele>
        <time>2022-05-20 21:55:24</time>
      </trkpt>
      <trkpt lat="41.52611" lon="1.53057">
        <ele>560.6</ele>
        <time>2022-05-20 21:55:25</time>
      </trkpt>
      <trkpt lat="41.52616" lon="1.53057">
        <ele>561</ele>
        <time>2022-05-20 21:55:26</time>
      </trkpt>
      <trkpt lat="41.5262" lon="1.53057">
        <ele>561.2</ele>
        <time>2022-05-20 21:55:27</time>
      </trkpt>
      <trkpt lat="41.52625" lon="1.53057">
        <ele>561.4</ele>
        <time>2022-05-20 21:55:28</time>
      </trkpt>
      <trkpt lat="41.52629" lon="1.53056">
        <ele>561.6</ele>
        <time>2022-05-20 21:55:29</time>
      </trkpt>
      <trkpt lat="41.52634" lon="1.53056">
        <ele>562</ele>
        <time>2022-05-20 21:55:30</time>
      </trkpt>
      <trkpt lat="41.52639" lon="1.53055">
        <ele>562.2</ele>
        <time>2022-05-20 21:55:31</time>
      </trkpt>
      <trkpt lat="41.52643" lon="1.53055">
        <ele>562.4</ele>
        <time>2022-05-20 21:55:32</time>
      </trkpt>
      <trkpt lat="41.52647" lon="1.53054">
        <ele>562.8</ele>
        <time>2022-05-20 21:55:33</time>
      </trkpt>
      <trkpt lat="41.52652" lon="1.53053">
        <ele>563</ele>
        <time>2022-05-20 21:55:34</time>
      </trkpt>
      <trkpt lat="41.52656" lon="1.53053">
        <ele>563.4</ele>
        <time>2022-05-20 21:55:35</time>
      </trkpt>
      <trkpt lat="41.5266" lon="1.53053">
        <ele>563.6</ele>
        <time>2022-05-20 21:55:36</time>
      </trkpt>
      <trkpt lat="41.52664" lon="1.53053">
        <ele>564</ele>
        <time>2022-05-20 21:55:37</time>
      </trkpt>
      <trkpt lat="41.52668" lon="1.53052">
        <ele>564.2</ele>
        <time>2022-05-20 21:55:38</time>
      </trkpt>
      <trkpt lat="41.52672" lon="1.53052">
        <ele>564.4</ele>
        <time>2022-05-20 21:55:39</time>
      </trkpt>
      <trkpt lat="41.52676" lon="1.53051">
        <ele>564.8</ele>
        <time>2022-05-20 21:55:40</time>
      </trkpt>
      <trkpt lat="41.5268" lon="1.53051">
        <ele>565</ele>
        <time>2022-05-20 21:55:41</time>
      </trkpt>
      <trkpt lat="41.52684" lon="1.5305">
        <ele>565.2</ele>
        <time>2022-05-20 21:55:42</time>
      </trkpt>
      <trkpt lat="41.52688" lon="1.53049">
        <ele>565.6</ele>
        <time>2022-05-20 21:55:43</time>
      </trkpt>
      <trkpt lat="41.52692" lon="1.53048">
        <ele>565.8</ele>
        <time>2022-05-20 21:55:44</time>
      </trkpt>
      <trkpt lat="41.52696" lon="1.53047">
        <ele>566</ele>
        <time>2022-05-20 21:55:45</time>
      </trkpt>
      <trkpt lat="41.527" lon="1.53047">
        <ele>566.4</ele>
        <time>2022-05-20 21:55:46</time>
      </trkpt>
      <trkpt lat="41.52705" lon="1.53046">
        <ele>566.6</ele>
        <time>2022-05-20 21:55:47</time>
      </trkpt>
      <trkpt lat="41.52709" lon="1.53045">
        <ele>567</ele>
        <time>2022-05-20 21:55:48</time>
      </trkpt>
      <trkpt lat="41.52713" lon="1.53045">
        <ele>567.2</ele>
        <time>2022-05-20 21:55:49</time>
      </trkpt>
      <trkpt lat="41.52718" lon="1.53044">
        <ele>567.4</ele>
        <time>2022-05-20 21:55:50</time>
      </trkpt>
      <trkpt lat="41.52722" lon="1.53044">
        <ele>567.6</ele>
        <time>2022-05-20 21:55:51</time>
      </trkpt>
      <trkpt lat="41.52726" lon="1.53044">
        <ele>567.8</ele>
        <time>2022-05-20 21:55:52</time>
      </trkpt>
      <trkpt lat="41.52731" lon="1.53043">
        <ele>568</ele>
        <time>2022-05-20 21:55:53</time>
      </trkpt>
      <trkpt lat="41.52734" lon="1.53043">
        <ele>568.2</ele>
        <time>2022-05-20 21:55:54</time>
      </trkpt>
      <trkpt lat="41.52739" lon="1.53042">
        <ele>568.4</ele>
        <time>2022-05-20 21:55:55</time>
      </trkpt>
      <trkpt lat="41.52743" lon="1.53041">
        <ele>568.6</ele>
        <time>2022-05-20 21:55:56</time>
      </trkpt>
      <trkpt lat="41.52746" lon="1.5304">
        <ele>568.6</ele>
        <time>2022-05-20 21:55:57</time>
      </trkpt>
      <trkpt lat="41.5275" lon="1.53039">
        <ele>568.8</ele>
        <time>2022-05-20 21:55:58</time>
      </trkpt>
      <trkpt lat="41.52755" lon="1.53039">
        <ele>568.8</ele>
        <time>2022-05-20 21:55:59</time>
      </trkpt>
      <trkpt lat="41.5276" lon="1.53037">
        <ele>568.8</ele>
        <time>2022-05-20 21:56:00</time>
      </trkpt>
      <trkpt lat="41.52764" lon="1.53036">
        <ele>569</ele>
        <time>2022-05-20 21:56:01</time>
      </trkpt>
      <trkpt lat="41.52768" lon="1.53035">
        <ele>569</ele>
        <time>2022-05-20 21:56:02</time>
      </trkpt>
      <trkpt lat="41.52773" lon="1.53033">
        <ele>568.8</ele>
        <time>2022-05-20 21:56:03</time>
      </trkpt>
      <trkpt lat="41.52778" lon="1.53032">
        <ele>568.8</ele>
        <time>2022-05-20 21:56:04</time>
      </trkpt>
      <trkpt lat="41.52784" lon="1.5303">
        <ele>568.8</ele>
        <time>2022-05-20 21:56:05</time>
      </trkpt>
      <trkpt lat="41.52789" lon="1.53029">
        <ele>568.8</ele>
        <time>2022-05-20 21:56:06</time>
      </trkpt>
      <trkpt lat="41.52795" lon="1.53028">
        <ele>568.8</ele>
        <time>2022-05-20 21:56:07</time>
      </trkpt>
      <trkpt lat="41.52801" lon="1.53027">
        <ele>568.8</ele>
        <time>2022-05-20 21:56:08</time>
      </trkpt>
      <trkpt lat="41.52807" lon="1.53025">
        <ele>568.8</ele>
        <time>2022-05-20 21:56:09</time>
      </trkpt>
      <trkpt lat="41.52813" lon="1.53023">
        <ele>569</ele>
        <time>2022-05-20 21:56:10</time>
      </trkpt>
      <trkpt lat="41.52818" lon="1.53022">
        <ele>569.2</ele>
        <time>2022-05-20 21:56:11</time>
      </trkpt>
      <trkpt lat="41.52824" lon="1.5302">
        <ele>569.2</ele>
        <time>2022-05-20 21:56:12</time>
      </trkpt>
      <trkpt lat="41.52829" lon="1.53019">
        <ele>569.4</ele>
        <time>2022-05-20 21:56:13</time>
      </trkpt>
      <trkpt lat="41.52834" lon="1.53018">
        <ele>569.6</ele>
        <time>2022-05-20 21:56:14</time>
      </trkpt>
      <trkpt lat="41.5284" lon="1.53016">
        <ele>570</ele>
        <time>2022-05-20 21:56:15</time>
      </trkpt>
      <trkpt lat="41.52845" lon="1.53015">
        <ele>570.2</ele>
        <time>2022-05-20 21:56:16</time>
      </trkpt>
      <trkpt lat="41.5285" lon="1.53014">
        <ele>570.4</ele>
        <time>2022-05-20 21:56:17</time>
      </trkpt>
      <trkpt lat="41.52855" lon="1.53013">
        <ele>570.8</ele>
        <time>2022-05-20 21:56:18</time>
      </trkpt>
      <trkpt lat="41.52859" lon="1.53013">
        <ele>571</ele>
        <time>2022-05-20 21:56:19</time>
      </trkpt>
      <trkpt lat="41.52864" lon="1.53013">
        <ele>571.4</ele>
        <time>2022-05-20 21:56:20</time>
      </trkpt>
      <trkpt lat="41.52868" lon="1.53014">
        <ele>571.6</ele>
        <time>2022-05-20 21:56:21</time>
      </trkpt>
      <trkpt lat="41.52872" lon="1.53015">
        <ele>571.8</ele>
        <time>2022-05-20 21:56:22</time>
      </trkpt>
      <trkpt lat="41.52877" lon="1.53017">
        <ele>572.2</ele>
        <time>2022-05-20 21:56:23</time>
      </trkpt>
      <trkpt lat="41.5288" lon="1.53019">
        <ele>572.4</ele>
        <time>2022-05-20 21:56:24</time>
      </trkpt>
      <trkpt lat="41.52883" lon="1.53023">
        <ele>572.8</ele>
        <time>2022-05-20 21:56:25</time>
      </trkpt>
      <trkpt lat="41.52887" lon="1.53026">
        <ele>573</ele>
        <time>2022-05-20 21:56:26</time>
      </trkpt>
      <trkpt lat="41.52889" lon="1.5303">
        <ele>573.2</ele>
        <time>2022-05-20 21:56:27</time>
      </trkpt>
      <trkpt lat="41.52892" lon="1.53034">
        <ele>573.6</ele>
        <time>2022-05-20 21:56:28</time>
      </trkpt>
      <trkpt lat="41.52894" lon="1.53038">
        <ele>573.8</ele>
        <time>2022-05-20 21:56:29</time>
      </trkpt>
      <trkpt lat="41.52897" lon="1.53043">
        <ele>574</ele>
        <time>2022-05-20 21:56:30</time>
      </trkpt>
      <trkpt lat="41.52899" lon="1.53048">
        <ele>574.4</ele>
        <time>2022-05-20 21:56:31</time>
      </trkpt>
      <trkpt lat="41.52901" lon="1.53052">
        <ele>574.6</ele>
        <time>2022-05-20 21:56:32</time>
      </trkpt>
      <trkpt lat="41.52904" lon="1.53057">
        <ele>574.8</ele>
        <time>2022-05-20 21:56:33</time>
      </trkpt>
      <trkpt lat="41.52906" lon="1.53062">
        <ele>575.2</ele>
        <time>2022-05-20 21:56:34</time>
      </trkpt>
      <trkpt lat="41.52908" lon="1.53067">
        <ele>575.4</ele>
        <time>2022-05-20 21:56:35</time>
      </trkpt>
      <trkpt lat="41.5291" lon="1.53072">
        <ele>575.6</ele>
        <time>2022-05-20 21:56:36</time>
      </trkpt>
      <trkpt lat="41.52912" lon="1.53077">
        <ele>576</ele>
        <time>2022-05-20 21:56:37</time>
      </trkpt>
      <trkpt lat="41.52914" lon="1.53081">
        <ele>576.2</ele>
        <time>2022-05-20 21:56:38</time>
      </trkpt>
      <trkpt lat="41.52916" lon="1.53086">
        <ele>576.4</ele>
        <time>2022-05-20 21:56:39</time>
      </trkpt>
      <trkpt lat="41.52919" lon="1.5309">
        <ele>576.6</ele>
        <time>2022-05-20 21:56:40</time>
      </trkpt>
      <trkpt lat="41.52921" lon="1.53095">
        <ele>577</ele>
        <time>2022-05-20 21:56:41</time>
      </trkpt>
      <trkpt lat="41.52923" lon="1.531">
        <ele>577.2</ele>
        <time>2022-05-20 21:56:42</time>
      </trkpt>
      <trkpt lat="41.52925" lon="1.53105">
        <ele>577.4</ele>
        <time>2022-05-20 21:56:43</time>
      </trkpt>
      <trkpt lat="41.52927" lon="1.5311">
        <ele>577.8</ele>
        <time>2022-05-20 21:56:44</time>
      </trkpt>
      <trkpt lat="41.52929" lon="1.53115">
        <ele>578</ele>
        <time>2022-05-20 21:56:45</time>
      </trkpt>
      <trkpt lat="41.52932" lon="1.5312">
        <ele>578.2</ele>
        <time>2022-05-20 21:56:46</time>
      </trkpt>
      <trkpt lat="41.52934" lon="1.53124">
        <ele>578.6</ele>
        <time>2022-05-20 21:56:47</time>
      </trkpt>
      <trkpt lat="41.52936" lon="1.53129">
        <ele>578.8</ele>
        <time>2022-05-20 21:56:48</time>
      </trkpt>
      <trkpt lat="41.52938" lon="1.53134">
        <ele>579</ele>
        <time>2022-05-20 21:56:49</time>
      </trkpt>
      <trkpt lat="41.5294" lon="1.53139">
        <ele>579.2</ele>
        <time>2022-05-20 21:56:50</time>
      </trkpt>
      <trkpt lat="41.52942" lon="1.53144">
        <ele>579.4</ele>
        <time>2022-05-20 21:56:51</time>
      </trkpt>
      <trkpt lat="41.52945" lon="1.53148">
        <ele>579.6</ele>
        <time>2022-05-20 21:56:52</time>
      </trkpt>
      <trkpt lat="41.52947" lon="1.53153">
        <ele>580</ele>
        <time>2022-05-20 21:56:53</time>
      </trkpt>
      <trkpt lat="41.52949" lon="1.53157">
        <ele>580.2</ele>
        <time>2022-05-20 21:56:54</time>
      </trkpt>
      <trkpt lat="41.52951" lon="1.53162">
        <ele>580.4</ele>
        <time>2022-05-20 21:56:55</time>
      </trkpt>
      <trkpt lat="41.52953" lon="1.53166">
        <ele>580.6</ele>
        <time>2022-05-20 21:56:56</time>
      </trkpt>
      <trkpt lat="41.52956" lon="1.53171">
        <ele>581</ele>
        <time>2022-05-20 21:56:57</time>
      </trkpt>
      <trkpt lat="41.52958" lon="1.53176">
        <ele>581.2</ele>
        <time>2022-05-20 21:56:58</time>
      </trkpt>
      <trkpt lat="41.5296" lon="1.53181">
        <ele>581.4</ele>
        <time>2022-05-20 21:56:59</time>
      </trkpt>
      <trkpt lat="41.52962" lon="1.53185">
        <ele>581.6</ele>
        <time>2022-05-20 21:57:00</time>
      </trkpt>
      <trkpt lat="41.52964" lon="1.5319">
        <ele>582</ele>
        <time>2022-05-20 21:57:01</time>
      </trkpt>
      <trkpt lat="41.52966" lon="1.53195">
        <ele>582.2</ele>
        <time>2022-05-20 21:57:02</time>
      </trkpt>
      <trkpt lat="41.52968" lon="1.53199">
        <ele>582.4</ele>
        <time>2022-05-20 21:57:03</time>
      </trkpt>
      <trkpt lat="41.5297" lon="1.53204">
        <ele>582.6</ele>
        <time>2022-05-20 21:57:04</time>
      </trkpt>
      <trkpt lat="41.52972" lon="1.53209">
        <ele>582.8</ele>
        <time>2022-05-20 21:57:05</time>
      </trkpt>
      <trkpt lat="41.52974" lon="1.53214">
        <ele>583</ele>
        <time>2022-05-20 21:57:06</time>
      </trkpt>
      <trkpt lat="41.52976" lon="1.53219">
        <ele>583.4</ele>
        <time>2022-05-20 21:57:07</time>
      </trkpt>
      <trkpt lat="41.52979" lon="1.53223">
        <ele>583.6</ele>
        <time>2022-05-20 21:57:08</time>
      </trkpt>
      <trkpt lat="41.5298" lon="1.53228">
        <ele>583.8</ele>
        <time>2022-05-20 21:57:09</time>
      </trkpt>
      <trkpt lat="41.52982" lon="1.53233">
        <ele>584</ele>
        <time>2022-05-20 21:57:10</time>
      </trkpt>
      <trkpt lat="41.52985" lon="1.53238">
        <ele>584.2</ele>
        <time>2022-05-20 21:57:11</time>
      </trkpt>
      <trkpt lat="41.52987" lon="1.53243">
        <ele>584.4</ele>
        <time>2022-05-20 21:57:12</time>
      </trkpt>
      <trkpt lat="41.52989" lon="1.53248">
        <ele>584.6</ele>
        <time>2022-05-20 21:57:13</time>
      </trkpt>
      <trkpt lat="41.52991" lon="1.53253">
        <ele>584.8</ele>
        <time>2022-05-20 21:57:14</time>
      </trkpt>
      <trkpt lat="41.52992" lon="1.53258">
        <ele>585</ele>
        <time>2022-05-20 21:57:15</time>
      </trkpt>
      <trkpt lat="41.52994" lon="1.53263">
        <ele>585.4</ele>
        <time>2022-05-20 21:57:16</time>
      </trkpt>
      <trkpt lat="41.52996" lon="1.53268">
        <ele>585.6</ele>
        <time>2022-05-20 21:57:17</time>
      </trkpt>
      <trkpt lat="41.52998" lon="1.53272">
        <ele>585.8</ele>
        <time>2022-05-20 21:57:18</time>
      </trkpt>
      <trkpt lat="41.52999" lon="1.53278">
        <ele>586</ele>
        <time>2022-05-20 21:57:19</time>
      </trkpt>
      <trkpt lat="41.53001" lon="1.53283">
        <ele>586.2</ele>
        <time>2022-05-20 21:57:20</time>
      </trkpt>
      <trkpt lat="41.53002" lon="1.53288">
        <ele>586.4</ele>
        <time>2022-05-20 21:57:21</time>
      </trkpt>
      <trkpt lat="41.53003" lon="1.53294">
        <ele>586.6</ele>
        <time>2022-05-20 21:57:22</time>
      </trkpt>
      <trkpt lat="41.53004" lon="1.53299">
        <ele>586.8</ele>
        <time>2022-05-20 21:57:23</time>
      </trkpt>
      <trkpt lat="41.53005" lon="1.53305">
        <ele>586.8</ele>
        <time>2022-05-20 21:57:24</time>
      </trkpt>
      <trkpt lat="41.53006" lon="1.53311">
        <ele>587</ele>
        <time>2022-05-20 21:57:25</time>
      </trkpt>
      <trkpt lat="41.53007" lon="1.53317">
        <ele>587.2</ele>
        <time>2022-05-20 21:57:26</time>
      </trkpt>
      <trkpt lat="41.53008" lon="1.53324">
        <ele>587.2</ele>
        <time>2022-05-20 21:57:27</time>
      </trkpt>
      <trkpt lat="41.53009" lon="1.5333">
        <ele>587.4</ele>
        <time>2022-05-20 21:57:28</time>
      </trkpt>
      <trkpt lat="41.5301" lon="1.53337">
        <ele>587.4</ele>
        <time>2022-05-20 21:57:29</time>
      </trkpt>
      <trkpt lat="41.53011" lon="1.53344">
        <ele>587.4</ele>
        <time>2022-05-20 21:57:30</time>
      </trkpt>
      <trkpt lat="41.53012" lon="1.5335">
        <ele>587.6</ele>
        <time>2022-05-20 21:57:31</time>
      </trkpt>
      <trkpt lat="41.53013" lon="1.53357">
        <ele>587.6</ele>
        <time>2022-05-20 21:57:32</time>
      </trkpt>
      <trkpt lat="41.53014" lon="1.53363">
        <ele>587.8</ele>
        <time>2022-05-20 21:57:33</time>
      </trkpt>
      <trkpt lat="41.53015" lon="1.5337">
        <ele>587.8</ele>
        <time>2022-05-20 21:57:34</time>
      </trkpt>
      <trkpt lat="41.53016" lon="1.53377">
        <ele>587.8</ele>
        <time>2022-05-20 21:57:35</time>
      </trkpt>
      <trkpt lat="41.53017" lon="1.53383">
        <ele>588</ele>
        <time>2022-05-20 21:57:36</time>
      </trkpt>
      <trkpt lat="41.53018" lon="1.5339">
        <ele>588</ele>
        <time>2022-05-20 21:57:37</time>
      </trkpt>
      <trkpt lat="41.53019" lon="1.53396">
        <ele>588.2</ele>
        <time>2022-05-20 21:57:38</time>
      </trkpt>
      <trkpt lat="41.5302" lon="1.53403">
        <ele>588.2</ele>
        <time>2022-05-20 21:57:39</time>
      </trkpt>
      <trkpt lat="41.53021" lon="1.5341">
        <ele>588.4</ele>
        <time>2022-05-20 21:57:40</time>
      </trkpt>
      <trkpt lat="41.53022" lon="1.53417">
        <ele>588.4</ele>
        <time>2022-05-20 21:57:41</time>
      </trkpt>
      <trkpt lat="41.53023" lon="1.53424">
        <ele>588.6</ele>
        <time>2022-05-20 21:57:42</time>
      </trkpt>
      <trkpt lat="41.53024" lon="1.53431">
        <ele>588.6</ele>
        <time>2022-05-20 21:57:43</time>
      </trkpt>
      <trkpt lat="41.53025" lon="1.53438">
        <ele>588.8</ele>
        <time>2022-05-20 21:57:44</time>
      </trkpt>
      <trkpt lat="41.53025" lon="1.53445">
        <ele>589</ele>
        <time>2022-05-20 21:57:45</time>
      </trkpt>
      <trkpt lat="41.53027" lon="1.53452">
        <ele>589</ele>
        <time>2022-05-20 21:57:46</time>
      </trkpt>
      <trkpt lat="41.53028" lon="1.5346">
        <ele>589</ele>
        <time>2022-05-20 21:57:47</time>
      </trkpt>
      <trkpt lat="41.53029" lon="1.53467">
        <ele>589.2</ele>
        <time>2022-05-20 21:57:48</time>
      </trkpt>
      <trkpt lat="41.5303" lon="1.53474">
        <ele>589.2</ele>
        <time>2022-05-20 21:57:49</time>
      </trkpt>
      <trkpt lat="41.5303" lon="1.53481">
        <ele>589.4</ele>
        <time>2022-05-20 21:57:50</time>
      </trkpt>
      <trkpt lat="41.53032" lon="1.53488">
        <ele>589.4</ele>
        <time>2022-05-20 21:57:51</time>
      </trkpt>
      <trkpt lat="41.53032" lon="1.53495">
        <ele>589.6</ele>
        <time>2022-05-20 21:57:52</time>
      </trkpt>
      <trkpt lat="41.53032" lon="1.53502">
        <ele>589.6</ele>
        <time>2022-05-20 21:57:53</time>
      </trkpt>
      <trkpt lat="41.53033" lon="1.5351">
        <ele>589.8</ele>
        <time>2022-05-20 21:57:54</time>
      </trkpt>
      <trkpt lat="41.53033" lon="1.53517">
        <ele>589.8</ele>
        <time>2022-05-20 21:57:55</time>
      </trkpt>
      <trkpt lat="41.53033" lon="1.53525">
        <ele>589.8</ele>
        <time>2022-05-20 21:57:56</time>
      </trkpt>
      <trkpt lat="41.53033" lon="1.53532">
        <ele>590</ele>
        <time>2022-05-20 21:57:57</time>
      </trkpt>
      <trkpt lat="41.53033" lon="1.5354">
        <ele>590</ele>
        <time>2022-05-20 21:57:58</time>
      </trkpt>
      <trkpt lat="41.53032" lon="1.53547">
        <ele>590.2</ele>
        <time>2022-05-20 21:57:59</time>
      </trkpt>
      <trkpt lat="41.53031" lon="1.53554">
        <ele>590.2</ele>
        <time>2022-05-20 21:58:00</time>
      </trkpt>
      <trkpt lat="41.5303" lon="1.53562">
        <ele>590.2</ele>
        <time>2022-05-20 21:58:01</time>
      </trkpt>
      <trkpt lat="41.53029" lon="1.53569">
        <ele>590.4</ele>
        <time>2022-05-20 21:58:02</time>
      </trkpt>
      <trkpt lat="41.53027" lon="1.53577">
        <ele>590.4</ele>
        <time>2022-05-20 21:58:03</time>
      </trkpt>
      <trkpt lat="41.53026" lon="1.53584">
        <ele>590.4</ele>
        <time>2022-05-20 21:58:04</time>
      </trkpt>
      <trkpt lat="41.53025" lon="1.53592">
        <ele>590.4</ele>
        <time>2022-05-20 21:58:05</time>
      </trkpt>
      <trkpt lat="41.53024" lon="1.53599">
        <ele>590.4</ele>
        <time>2022-05-20 21:58:06</time>
      </trkpt>
      <trkpt lat="41.53023" lon="1.53607">
        <ele>590.4</ele>
        <time>2022-05-20 21:58:07</time>
      </trkpt>
      <trkpt lat="41.53022" lon="1.53615">
        <ele>590.4</ele>
        <time>2022-05-20 21:58:08</time>
      </trkpt>
      <trkpt lat="41.53021" lon="1.53623">
        <ele>590.4</ele>
        <time>2022-05-20 21:58:09</time>
      </trkpt>
      <trkpt lat="41.5302" lon="1.53631">
        <ele>590.4</ele>
        <time>2022-05-20 21:58:10</time>
      </trkpt>
      <trkpt lat="41.5302" lon="1.53639">
        <ele>590.4</ele>
        <time>2022-05-20 21:58:11</time>
      </trkpt>
      <trkpt lat="41.5302" lon="1.53648">
        <ele>590.4</ele>
        <time>2022-05-20 21:58:12</time>
      </trkpt>
      <trkpt lat="41.53021" lon="1.53656">
        <ele>590.4</ele>
        <time>2022-05-20 21:58:13</time>
      </trkpt>
      <trkpt lat="41.53022" lon="1.53665">
        <ele>590.4</ele>
        <time>2022-05-20 21:58:14</time>
      </trkpt>
      <trkpt lat="41.53023" lon="1.53674">
        <ele>590.2</ele>
        <time>2022-05-20 21:58:15</time>
      </trkpt>
      <trkpt lat="41.53024" lon="1.53684">
        <ele>590</ele>
        <time>2022-05-20 21:58:16</time>
      </trkpt>
      <trkpt lat="41.53026" lon="1.53694">
        <ele>589.6</ele>
        <time>2022-05-20 21:58:17</time>
      </trkpt>
      <trkpt lat="41.53027" lon="1.53705">
        <ele>589.2</ele>
        <time>2022-05-20 21:58:18</time>
      </trkpt>
      <trkpt lat="41.53028" lon="1.53716">
        <ele>588.8</ele>
        <time>2022-05-20 21:58:19</time>
      </trkpt>
      <trkpt lat="41.5303" lon="1.53727">
        <ele>588.4</ele>
        <time>2022-05-20 21:58:20</time>
      </trkpt>
      <trkpt lat="41.53032" lon="1.53739">
        <ele>588</ele>
        <time>2022-05-20 21:58:21</time>
      </trkpt>
      <trkpt lat="41.53033" lon="1.53752">
        <ele>587.4</ele>
        <time>2022-05-20 21:58:22</time>
      </trkpt>
      <trkpt lat="41.53035" lon="1.53764">
        <ele>586.8</ele>
        <time>2022-05-20 21:58:23</time>
      </trkpt>
      <trkpt lat="41.53037" lon="1.53776">
        <ele>586.4</ele>
        <time>2022-05-20 21:58:24</time>
      </trkpt>
      <trkpt lat="41.53039" lon="1.53789">
        <ele>585.8</ele>
        <time>2022-05-20 21:58:25</time>
      </trkpt>
      <trkpt lat="41.5304" lon="1.53802">
        <ele>585.2</ele>
        <time>2022-05-20 21:58:26</time>
      </trkpt>
      <trkpt lat="41.53042" lon="1.53815">
        <ele>584.6</ele>
        <time>2022-05-20 21:58:27</time>
      </trkpt>
      <trkpt lat="41.53045" lon="1.53829">
        <ele>584</ele>
        <time>2022-05-20 21:58:28</time>
      </trkpt>
      <trkpt lat="41.53048" lon="1.53842">
        <ele>583.4</ele>
        <time>2022-05-20 21:58:29</time>
      </trkpt>
      <trkpt lat="41.53052" lon="1.53856">
        <ele>582.8</ele>
        <time>2022-05-20 21:58:30</time>
      </trkpt>
      <trkpt lat="41.53057" lon="1.53869">
        <ele>582.2</ele>
        <time>2022-05-20 21:58:31</time>
      </trkpt>
      <trkpt lat="41.53063" lon="1.53882">
        <ele>581.6</ele>
        <time>2022-05-20 21:58:32</time>
      </trkpt>
      <trkpt lat="41.53069" lon="1.53894">
        <ele>581</ele>
        <time>2022-05-20 21:58:33</time>
      </trkpt>
      <trkpt lat="41.53074" lon="1.53907">
        <ele>580.4</ele>
        <time>2022-05-20 21:58:34</time>
      </trkpt>
      <trkpt lat="41.5308" lon="1.5392">
        <ele>579.8</ele>
        <time>2022-05-20 21:58:35</time>
      </trkpt>
      <trkpt lat="41.53086" lon="1.53933">
        <ele>579.2</ele>
        <time>2022-05-20 21:58:36</time>
      </trkpt>
      <trkpt lat="41.53092" lon="1.53946">
        <ele>578.6</ele>
        <time>2022-05-20 21:58:37</time>
      </trkpt>
      <trkpt lat="41.53098" lon="1.5396">
        <ele>578</ele>
        <time>2022-05-20 21:58:38</time>
      </trkpt>
      <trkpt lat="41.53104" lon="1.53973">
        <ele>577.2</ele>
        <time>2022-05-20 21:58:39</time>
      </trkpt>
      <trkpt lat="41.53111" lon="1.53988">
        <ele>576.6</ele>
        <time>2022-05-20 21:58:40</time>
      </trkpt>
      <trkpt lat="41.53118" lon="1.54001">
        <ele>576</ele>
        <time>2022-05-20 21:58:41</time>
      </trkpt>
      <trkpt lat="41.53125" lon="1.54015">
        <ele>575.4</ele>
        <time>2022-05-20 21:58:42</time>
      </trkpt>
      <trkpt lat="41.53131" lon="1.54028">
        <ele>574.8</ele>
        <time>2022-05-20 21:58:43</time>
      </trkpt>
      <trkpt lat="41.53138" lon="1.54042">
        <ele>574.2</ele>
        <time>2022-05-20 21:58:44</time>
      </trkpt>
      <trkpt lat="41.53145" lon="1.54056">
        <ele>573.6</ele>
        <time>2022-05-20 21:58:45</time>
      </trkpt>
      <trkpt lat="41.53152" lon="1.5407">
        <ele>572.8</ele>
        <time>2022-05-20 21:58:46</time>
      </trkpt>
      <trkpt lat="41.53158" lon="1.54084">
        <ele>572.2</ele>
        <time>2022-05-20 21:58:47</time>
      </trkpt>
      <trkpt lat="41.53164" lon="1.54098">
        <ele>571.6</ele>
        <time>2022-05-20 21:58:48</time>
      </trkpt>
      <trkpt lat="41.5317" lon="1.54113">
        <ele>571</ele>
        <time>2022-05-20 21:58:49</time>
      </trkpt>
      <trkpt lat="41.53174" lon="1.54128">
        <ele>570.2</ele>
        <time>2022-05-20 21:58:50</time>
      </trkpt>
      <trkpt lat="41.53178" lon="1.54145">
        <ele>569.6</ele>
        <time>2022-05-20 21:58:51</time>
      </trkpt>
      <trkpt lat="41.53181" lon="1.54162">
        <ele>569</ele>
        <time>2022-05-20 21:58:52</time>
      </trkpt>
      <trkpt lat="41.53186" lon="1.54179">
        <ele>568.4</ele>
        <time>2022-05-20 21:58:53</time>
      </trkpt>
      <trkpt lat="41.53189" lon="1.54194">
        <ele>567.8</ele>
        <time>2022-05-20 21:58:54</time>
      </trkpt>
      <trkpt lat="41.53193" lon="1.54208">
        <ele>567.2</ele>
        <time>2022-05-20 21:58:55</time>
      </trkpt>
      <trkpt lat="41.53196" lon="1.54222">
        <ele>566.6</ele>
        <time>2022-05-20 21:58:56</time>
      </trkpt>
      <trkpt lat="41.532" lon="1.54237">
        <ele>566</ele>
        <time>2022-05-20 21:58:57</time>
      </trkpt>
      <trkpt lat="41.53204" lon="1.54253">
        <ele>565.4</ele>
        <time>2022-05-20 21:58:58</time>
      </trkpt>
      <trkpt lat="41.53207" lon="1.54268">
        <ele>564.8</ele>
        <time>2022-05-20 21:58:59</time>
      </trkpt>
      <trkpt lat="41.53211" lon="1.54283">
        <ele>564.2</ele>
        <time>2022-05-20 21:59:00</time>
      </trkpt>
      <trkpt lat="41.53216" lon="1.54298">
        <ele>563.8</ele>
        <time>2022-05-20 21:59:01</time>
      </trkpt>
      <trkpt lat="41.53222" lon="1.54312">
        <ele>563.2</ele>
        <time>2022-05-20 21:59:02</time>
      </trkpt>
      <trkpt lat="41.53226" lon="1.54328">
        <ele>562.6</ele>
        <time>2022-05-20 21:59:03</time>
      </trkpt>
      <trkpt lat="41.5323" lon="1.54342">
        <ele>562.2</ele>
        <time>2022-05-20 21:59:04</time>
      </trkpt>
      <trkpt lat="41.53233" lon="1.54357">
        <ele>561.6</ele>
        <time>2022-05-20 21:59:05</time>
      </trkpt>
      <trkpt lat="41.53237" lon="1.54373">
        <ele>561</ele>
        <time>2022-05-20 21:59:06</time>
      </trkpt>
      <trkpt lat="41.53241" lon="1.54387">
        <ele>560.6</ele>
        <time>2022-05-20 21:59:07</time>
      </trkpt>
      <trkpt lat="41.53242" lon="1.54402">
        <ele>560</ele>
        <time>2022-05-20 21:59:08</time>
      </trkpt>
      <trkpt lat="41.53245" lon="1.54418">
        <ele>559.6</ele>
        <time>2022-05-20 21:59:09</time>
      </trkpt>
      <trkpt lat="41.53249" lon="1.54433">
        <ele>559</ele>
        <time>2022-05-20 21:59:10</time>
      </trkpt>
      <trkpt lat="41.53253" lon="1.54449">
        <ele>558.6</ele>
        <time>2022-05-20 21:59:11</time>
      </trkpt>
      <trkpt lat="41.53257" lon="1.54464">
        <ele>558</ele>
        <time>2022-05-20 21:59:12</time>
      </trkpt>
      <trkpt lat="41.53261" lon="1.54476">
        <ele>557.6</ele>
        <time>2022-05-20 21:59:13</time>
      </trkpt>
      <trkpt lat="41.53265" lon="1.54488">
        <ele>557.2</ele>
        <time>2022-05-20 21:59:14</time>
      </trkpt>
      <trkpt lat="41.53271" lon="1.54503">
        <ele>556.6</ele>
        <time>2022-05-20 21:59:15</time>
      </trkpt>
      <trkpt lat="41.53277" lon="1.54515">
        <ele>556.2</ele>
        <time>2022-05-20 21:59:16</time>
      </trkpt>
      <trkpt lat="41.53285" lon="1.54534">
        <ele>555.4</ele>
        <time>2022-05-20 21:59:17</time>
      </trkpt>
      <trkpt lat="41.53291" lon="1.54548">
        <ele>554.8</ele>
        <time>2022-05-20 21:59:18</time>
      </trkpt>
      <trkpt lat="41.53298" lon="1.54562">
        <ele>554.2</ele>
        <time>2022-05-20 21:59:19</time>
      </trkpt>
      <trkpt lat="41.53304" lon="1.54575">
        <ele>553.8</ele>
        <time>2022-05-20 21:59:20</time>
      </trkpt>
      <trkpt lat="41.5331" lon="1.54589">
        <ele>553.2</ele>
        <time>2022-05-20 21:59:21</time>
      </trkpt>
      <trkpt lat="41.53315" lon="1.54604">
        <ele>552.8</ele>
        <time>2022-05-20 21:59:22</time>
      </trkpt>
      <trkpt lat="41.5332" lon="1.54618">
        <ele>552.2</ele>
        <time>2022-05-20 21:59:23</time>
      </trkpt>
      <trkpt lat="41.53325" lon="1.54632">
        <ele>551.8</ele>
        <time>2022-05-20 21:59:24</time>
      </trkpt>
      <trkpt lat="41.53331" lon="1.54645">
        <ele>551.2</ele>
        <time>2022-05-20 21:59:25</time>
      </trkpt>
      <trkpt lat="41.53337" lon="1.54658">
        <ele>550.6</ele>
        <time>2022-05-20 21:59:26</time>
      </trkpt>
      <trkpt lat="41.53343" lon="1.54672">
        <ele>550.2</ele>
        <time>2022-05-20 21:59:27</time>
      </trkpt>
      <trkpt lat="41.53349" lon="1.54685">
        <ele>549.6</ele>
        <time>2022-05-20 21:59:28</time>
      </trkpt>
      <trkpt lat="41.53355" lon="1.54699">
        <ele>549.2</ele>
        <time>2022-05-20 21:59:29</time>
      </trkpt>
      <trkpt lat="41.53361" lon="1.54714">
        <ele>548.6</ele>
        <time>2022-05-20 21:59:30</time>
      </trkpt>
      <trkpt lat="41.53368" lon="1.54729">
        <ele>548</ele>
        <time>2022-05-20 21:59:31</time>
      </trkpt>
      <trkpt lat="41.53374" lon="1.54744">
        <ele>547.6</ele>
        <time>2022-05-20 21:59:32</time>
      </trkpt>
      <trkpt lat="41.53379" lon="1.54759">
        <ele>547</ele>
        <time>2022-05-20 21:59:33</time>
      </trkpt>
      <trkpt lat="41.53385" lon="1.54773">
        <ele>546.4</ele>
        <time>2022-05-20 21:59:34</time>
      </trkpt>
      <trkpt lat="41.53391" lon="1.54789">
        <ele>545.8</ele>
        <time>2022-05-20 21:59:35</time>
      </trkpt>
      <trkpt lat="41.53397" lon="1.54804">
        <ele>545.4</ele>
        <time>2022-05-20 21:59:36</time>
      </trkpt>
      <trkpt lat="41.53403" lon="1.54818">
        <ele>544.8</ele>
        <time>2022-05-20 21:59:37</time>
      </trkpt>
      <trkpt lat="41.53408" lon="1.54832">
        <ele>544.2</ele>
        <time>2022-05-20 21:59:38</time>
      </trkpt>
      <trkpt lat="41.53414" lon="1.54845">
        <ele>543.8</ele>
        <time>2022-05-20 21:59:39</time>
      </trkpt>
      <trkpt lat="41.5342" lon="1.54859">
        <ele>543.4</ele>
        <time>2022-05-20 21:59:40</time>
      </trkpt>
      <trkpt lat="41.53427" lon="1.54873">
        <ele>542.8</ele>
        <time>2022-05-20 21:59:41</time>
      </trkpt>
      <trkpt lat="41.53434" lon="1.54886">
        <ele>542.4</ele>
        <time>2022-05-20 21:59:42</time>
      </trkpt>
      <trkpt lat="41.53442" lon="1.54897">
        <ele>542</ele>
        <time>2022-05-20 21:59:43</time>
      </trkpt>
      <trkpt lat="41.5345" lon="1.54908">
        <ele>541.4</ele>
        <time>2022-05-20 21:59:44</time>
      </trkpt>
      <trkpt lat="41.53459" lon="1.54917">
        <ele>541</ele>
        <time>2022-05-20 21:59:45</time>
      </trkpt>
      <trkpt lat="41.53468" lon="1.54925">
        <ele>540.6</ele>
        <time>2022-05-20 21:59:46</time>
      </trkpt>
      <trkpt lat="41.53477" lon="1.54934">
        <ele>540</ele>
        <time>2022-05-20 21:59:47</time>
      </trkpt>
      <trkpt lat="41.53486" lon="1.54942">
        <ele>539.6</ele>
        <time>2022-05-20 21:59:48</time>
      </trkpt>
      <trkpt lat="41.53495" lon="1.54952">
        <ele>539</ele>
        <time>2022-05-20 21:59:49</time>
      </trkpt>
      <trkpt lat="41.53503" lon="1.54962">
        <ele>538.6</ele>
        <time>2022-05-20 21:59:50</time>
      </trkpt>
      <trkpt lat="41.53511" lon="1.54974">
        <ele>538</ele>
        <time>2022-05-20 21:59:51</time>
      </trkpt>
      <trkpt lat="41.53517" lon="1.54987">
        <ele>537.6</ele>
        <time>2022-05-20 21:59:52</time>
      </trkpt>
      <trkpt lat="41.53522" lon="1.55001">
        <ele>537.2</ele>
        <time>2022-05-20 21:59:53</time>
      </trkpt>
      <trkpt lat="41.53527" lon="1.55016">
        <ele>536.8</ele>
        <time>2022-05-20 21:59:54</time>
      </trkpt>
      <trkpt lat="41.53531" lon="1.55029">
        <ele>536.4</ele>
        <time>2022-05-20 21:59:55</time>
      </trkpt>
      <trkpt lat="41.53535" lon="1.55043">
        <ele>536</ele>
        <time>2022-05-20 21:59:56</time>
      </trkpt>
      <trkpt lat="41.53539" lon="1.55057">
        <ele>535.8</ele>
        <time>2022-05-20 21:59:57</time>
      </trkpt>
      <trkpt lat="41.53542" lon="1.55072">
        <ele>535.4</ele>
        <time>2022-05-20 21:59:58</time>
      </trkpt>
      <trkpt lat="41.53545" lon="1.55086">
        <ele>535.2</ele>
        <time>2022-05-20 21:59:59</time>
      </trkpt>
      <trkpt lat="41.53548" lon="1.55099">
        <ele>535</ele>
        <time>2022-05-20 22:00:00</time>
      </trkpt>
      <trkpt lat="41.53551" lon="1.55112">
        <ele>534.8</ele>
        <time>2022-05-20 22:00:01</time>
      </trkpt>
      <trkpt lat="41.53555" lon="1.55125">
        <ele>534.4</ele>
        <time>2022-05-20 22:00:02</time>
      </trkpt>
      <trkpt lat="41.53558" lon="1.55137">
        <ele>534.4</ele>
        <time>2022-05-20 22:00:03</time>
      </trkpt>
      <trkpt lat="41.53561" lon="1.5515">
        <ele>534.2</ele>
        <time>2022-05-20 22:00:04</time>
      </trkpt>
      <trkpt lat="41.53564" lon="1.55162">
        <ele>534.2</ele>
        <time>2022-05-20 22:00:05</time>
      </trkpt>
      <trkpt lat="41.53568" lon="1.55174">
        <ele>534</ele>
        <time>2022-05-20 22:00:06</time>
      </trkpt>
      <trkpt lat="41.53571" lon="1.55186">
        <ele>534</ele>
        <time>2022-05-20 22:00:07</time>
      </trkpt>
      <trkpt lat="41.53574" lon="1.55198">
        <ele>534</ele>
        <time>2022-05-20 22:00:08</time>
      </trkpt>
      <trkpt lat="41.53577" lon="1.5521">
        <ele>534</ele>
        <time>2022-05-20 22:00:09</time>
      </trkpt>
      <trkpt lat="41.53581" lon="1.55221">
        <ele>534</ele>
        <time>2022-05-20 22:00:10</time>
      </trkpt>
      <trkpt lat="41.53584" lon="1.55232">
        <ele>533.8</ele>
        <time>2022-05-20 22:00:11</time>
      </trkpt>
      <trkpt lat="41.53586" lon="1.55244">
        <ele>533.6</ele>
        <time>2022-05-20 22:00:12</time>
      </trkpt>
      <trkpt lat="41.53589" lon="1.55255">
        <ele>533.4</ele>
        <time>2022-05-20 22:00:13</time>
      </trkpt>
      <trkpt lat="41.53592" lon="1.55266">
        <ele>533.2</ele>
        <time>2022-05-20 22:00:14</time>
      </trkpt>
      <trkpt lat="41.53595" lon="1.55278">
        <ele>533</ele>
        <time>2022-05-20 22:00:15</time>
      </trkpt>
      <trkpt lat="41.53598" lon="1.55289">
        <ele>532.6</ele>
        <time>2022-05-20 22:00:16</time>
      </trkpt>
      <trkpt lat="41.53601" lon="1.55301">
        <ele>532.4</ele>
        <time>2022-05-20 22:00:17</time>
      </trkpt>
      <trkpt lat="41.53603" lon="1.55313">
        <ele>532</ele>
        <time>2022-05-20 22:00:18</time>
      </trkpt>
      <trkpt lat="41.53606" lon="1.55325">
        <ele>531.6</ele>
        <time>2022-05-20 22:00:19</time>
      </trkpt>
      <trkpt lat="41.53609" lon="1.55337">
        <ele>531.2</ele>
        <time>2022-05-20 22:00:20</time>
      </trkpt>
      <trkpt lat="41.53613" lon="1.55349">
        <ele>530.8</ele>
        <time>2022-05-20 22:00:21</time>
      </trkpt>
      <trkpt lat="41.53616" lon="1.55362">
        <ele>530.4</ele>
        <time>2022-05-20 22:00:22</time>
      </trkpt>
      <trkpt lat="41.53619" lon="1.55375">
        <ele>530</ele>
        <time>2022-05-20 22:00:23</time>
      </trkpt>
      <trkpt lat="41.53622" lon="1.55388">
        <ele>529.6</ele>
        <time>2022-05-20 22:00:24</time>
      </trkpt>
      <trkpt lat="41.53625" lon="1.55401">
        <ele>529.4</ele>
        <time>2022-05-20 22:00:25</time>
      </trkpt>
      <trkpt lat="41.53628" lon="1.55413">
        <ele>529</ele>
        <time>2022-05-20 22:00:26</time>
      </trkpt>
      <trkpt lat="41.53632" lon="1.55426">
        <ele>528.6</ele>
        <time>2022-05-20 22:00:27</time>
      </trkpt>
      <trkpt lat="41.53635" lon="1.55439">
        <ele>528</ele>
        <time>2022-05-20 22:00:28</time>
      </trkpt>
      <trkpt lat="41.53639" lon="1.55451">
        <ele>527.6</ele>
        <time>2022-05-20 22:00:29</time>
      </trkpt>
      <trkpt lat="41.53643" lon="1.55464">
        <ele>527.2</ele>
        <time>2022-05-20 22:00:30</time>
      </trkpt>
      <trkpt lat="41.53646" lon="1.55476">
        <ele>526.8</ele>
        <time>2022-05-20 22:00:31</time>
      </trkpt>
      <trkpt lat="41.53649" lon="1.55489">
        <ele>526.2</ele>
        <time>2022-05-20 22:00:32</time>
      </trkpt>
      <trkpt lat="41.53652" lon="1.55501">
        <ele>525.8</ele>
        <time>2022-05-20 22:00:33</time>
      </trkpt>
      <trkpt lat="41.53655" lon="1.55513">
        <ele>525.4</ele>
        <time>2022-05-20 22:00:34</time>
      </trkpt>
      <trkpt lat="41.53659" lon="1.55527">
        <ele>525</ele>
        <time>2022-05-20 22:00:35</time>
      </trkpt>
      <trkpt lat="41.53662" lon="1.5554">
        <ele>524.6</ele>
        <time>2022-05-20 22:00:36</time>
      </trkpt>
      <trkpt lat="41.53666" lon="1.55554">
        <ele>524.2</ele>
        <time>2022-05-20 22:00:37</time>
      </trkpt>
      <trkpt lat="41.53669" lon="1.55568">
        <ele>523.8</ele>
        <time>2022-05-20 22:00:38</time>
      </trkpt>
      <trkpt lat="41.53674" lon="1.55581">
        <ele>523.2</ele>
        <time>2022-05-20 22:00:39</time>
      </trkpt>
      <trkpt lat="41.53677" lon="1.55595">
        <ele>522.8</ele>
        <time>2022-05-20 22:00:40</time>
      </trkpt>
      <trkpt lat="41.5368" lon="1.55609">
        <ele>522.4</ele>
        <time>2022-05-20 22:00:41</time>
      </trkpt>
      <trkpt lat="41.53683" lon="1.55622">
        <ele>521.8</ele>
        <time>2022-05-20 22:00:42</time>
      </trkpt>
      <trkpt lat="41.53687" lon="1.55636">
        <ele>521.4</ele>
        <time>2022-05-20 22:00:43</time>
      </trkpt>
      <trkpt lat="41.5369" lon="1.55649">
        <ele>520.8</ele>
        <time>2022-05-20 22:00:44</time>
      </trkpt>
      <trkpt lat="41.53693" lon="1.55661">
        <ele>520.4</ele>
        <time>2022-05-20 22:00:45</time>
      </trkpt>
      <trkpt lat="41.53697" lon="1.55673">
        <ele>520</ele>
        <time>2022-05-20 22:00:46</time>
      </trkpt>
      <trkpt lat="41.53699" lon="1.55686">
        <ele>519.8</ele>
        <time>2022-05-20 22:00:47</time>
      </trkpt>
      <trkpt lat="41.53703" lon="1.557">
        <ele>519.4</ele>
        <time>2022-05-20 22:00:48</time>
      </trkpt>
      <trkpt lat="41.53706" lon="1.55712">
        <ele>519.2</ele>
        <time>2022-05-20 22:00:49</time>
      </trkpt>
      <trkpt lat="41.53709" lon="1.55724">
        <ele>518.8</ele>
        <time>2022-05-20 22:00:50</time>
      </trkpt>
      <trkpt lat="41.53714" lon="1.55738">
        <ele>518.4</ele>
        <time>2022-05-20 22:00:51</time>
      </trkpt>
      <trkpt lat="41.53717" lon="1.5575">
        <ele>518.2</ele>
        <time>2022-05-20 22:00:52</time>
      </trkpt>
      <trkpt lat="41.53721" lon="1.55762">
        <ele>517.8</ele>
        <time>2022-05-20 22:00:53</time>
      </trkpt>
      <trkpt lat="41.53726" lon="1.55775">
        <ele>517.4</ele>
        <time>2022-05-20 22:00:54</time>
      </trkpt>
      <trkpt lat="41.5373" lon="1.55787">
        <ele>517</ele>
        <time>2022-05-20 22:00:55</time>
      </trkpt>
      <trkpt lat="41.53735" lon="1.55799">
        <ele>516.8</ele>
        <time>2022-05-20 22:00:56</time>
      </trkpt>
      <trkpt lat="41.53739" lon="1.55811">
        <ele>516.4</ele>
        <time>2022-05-20 22:00:57</time>
      </trkpt>
      <trkpt lat="41.53744" lon="1.55823">
        <ele>516</ele>
        <time>2022-05-20 22:00:58</time>
      </trkpt>
      <trkpt lat="41.53749" lon="1.55834">
        <ele>515.6</ele>
        <time>2022-05-20 22:00:59</time>
      </trkpt>
      <trkpt lat="41.53753" lon="1.55846">
        <ele>515.2</ele>
        <time>2022-05-20 22:01:00</time>
      </trkpt>
      <trkpt lat="41.53757" lon="1.55858">
        <ele>514.8</ele>
        <time>2022-05-20 22:01:01</time>
      </trkpt>
      <trkpt lat="41.53762" lon="1.5587">
        <ele>514.6</ele>
        <time>2022-05-20 22:01:02</time>
      </trkpt>
      <trkpt lat="41.53766" lon="1.55883">
        <ele>514.2</ele>
        <time>2022-05-20 22:01:03</time>
      </trkpt>
      <trkpt lat="41.53771" lon="1.55895">
        <ele>513.8</ele>
        <time>2022-05-20 22:01:04</time>
      </trkpt>
      <trkpt lat="41.53775" lon="1.55907">
        <ele>513.4</ele>
        <time>2022-05-20 22:01:05</time>
      </trkpt>
      <trkpt lat="41.5378" lon="1.55918">
        <ele>513</ele>
        <time>2022-05-20 22:01:06</time>
      </trkpt>
      <trkpt lat="41.53785" lon="1.5593">
        <ele>512.6</ele>
        <time>2022-05-20 22:01:07</time>
      </trkpt>
      <trkpt lat="41.5379" lon="1.55942">
        <ele>512.2</ele>
        <time>2022-05-20 22:01:08</time>
      </trkpt>
      <trkpt lat="41.53795" lon="1.55953">
        <ele>511.8</ele>
        <time>2022-05-20 22:01:09</time>
      </trkpt>
      <trkpt lat="41.53799" lon="1.55964">
        <ele>511.4</ele>
        <time>2022-05-20 22:01:10</time>
      </trkpt>
      <trkpt lat="41.53803" lon="1.55976">
        <ele>511.2</ele>
        <time>2022-05-20 22:01:11</time>
      </trkpt>
      <trkpt lat="41.53807" lon="1.55988">
        <ele>510.8</ele>
        <time>2022-05-20 22:01:12</time>
      </trkpt>
      <trkpt lat="41.53812" lon="1.56">
        <ele>510.4</ele>
        <time>2022-05-20 22:01:13</time>
      </trkpt>
      <trkpt lat="41.53816" lon="1.56012">
        <ele>510</ele>
        <time>2022-05-20 22:01:14</time>
      </trkpt>
      <trkpt lat="41.53821" lon="1.56024">
        <ele>509.6</ele>
        <time>2022-05-20 22:01:15</time>
      </trkpt>
      <trkpt lat="41.53826" lon="1.56036">
        <ele>509.2</ele>
        <time>2022-05-20 22:01:16</time>
      </trkpt>
      <trkpt lat="41.53831" lon="1.56049">
        <ele>508.8</ele>
        <time>2022-05-20 22:01:17</time>
      </trkpt>
      <trkpt lat="41.53836" lon="1.56061">
        <ele>508.4</ele>
        <time>2022-05-20 22:01:18</time>
      </trkpt>
      <trkpt lat="41.5384" lon="1.56073">
        <ele>508.2</ele>
        <time>2022-05-20 22:01:19</time>
      </trkpt>
      <trkpt lat="41.53844" lon="1.56086">
        <ele>507.8</ele>
        <time>2022-05-20 22:01:20</time>
      </trkpt>
      <trkpt lat="41.53849" lon="1.56098">
        <ele>507.4</ele>
        <time>2022-05-20 22:01:21</time>
      </trkpt>
      <trkpt lat="41.53854" lon="1.5611">
        <ele>507.2</ele>
        <time>2022-05-20 22:01:22</time>
      </trkpt>
      <trkpt lat="41.5386" lon="1.56122">
        <ele>506.8</ele>
        <time>2022-05-20 22:01:23</time>
      </trkpt>
      <trkpt lat="41.53865" lon="1.56133">
        <ele>506.4</ele>
        <time>2022-05-20 22:01:24</time>
      </trkpt>
      <trkpt lat="41.53869" lon="1.56147">
        <ele>506.2</ele>
        <time>2022-05-20 22:01:25</time>
      </trkpt>
      <trkpt lat="41.53873" lon="1.56159">
        <ele>505.8</ele>
        <time>2022-05-20 22:01:26</time>
      </trkpt>
      <trkpt lat="41.53878" lon="1.56172">
        <ele>505.4</ele>
        <time>2022-05-20 22:01:27</time>
      </trkpt>
      <trkpt lat="41.53881" lon="1.56185">
        <ele>505</ele>
        <time>2022-05-20 22:01:28</time>
      </trkpt>
      <trkpt lat="41.53885" lon="1.56199">
        <ele>504.6</ele>
        <time>2022-05-20 22:01:29</time>
      </trkpt>
      <trkpt lat="41.53888" lon="1.56212">
        <ele>504.2</ele>
        <time>2022-05-20 22:01:30</time>
      </trkpt>
      <trkpt lat="41.53892" lon="1.56226">
        <ele>503.8</ele>
        <time>2022-05-20 22:01:31</time>
      </trkpt>
      <trkpt lat="41.53895" lon="1.5624">
        <ele>503.4</ele>
        <time>2022-05-20 22:01:32</time>
      </trkpt>
      <trkpt lat="41.53898" lon="1.56253">
        <ele>503</ele>
        <time>2022-05-20 22:01:33</time>
      </trkpt>
      <trkpt lat="41.53901" lon="1.56266">
        <ele>502.6</ele>
        <time>2022-05-20 22:01:34</time>
      </trkpt>
      <trkpt lat="41.53904" lon="1.56279">
        <ele>502.2</ele>
        <time>2022-05-20 22:01:35</time>
      </trkpt>
      <trkpt lat="41.53908" lon="1.56292">
        <ele>501.8</ele>
        <time>2022-05-20 22:01:36</time>
      </trkpt>
      <trkpt lat="41.53911" lon="1.56305">
        <ele>501.4</ele>
        <time>2022-05-20 22:01:37</time>
      </trkpt>
      <trkpt lat="41.53914" lon="1.56319">
        <ele>501</ele>
        <time>2022-05-20 22:01:38</time>
      </trkpt>
      <trkpt lat="41.53917" lon="1.56332">
        <ele>500.6</ele>
        <time>2022-05-20 22:01:39</time>
      </trkpt>
      <trkpt lat="41.5392" lon="1.56345">
        <ele>500.4</ele>
        <time>2022-05-20 22:01:40</time>
      </trkpt>
      <trkpt lat="41.53923" lon="1.56358">
        <ele>500</ele>
        <time>2022-05-20 22:01:41</time>
      </trkpt>
      <trkpt lat="41.53925" lon="1.56371">
        <ele>499.6</ele>
        <time>2022-05-20 22:01:42</time>
      </trkpt>
      <trkpt lat="41.53929" lon="1.56386">
        <ele>499.2</ele>
        <time>2022-05-20 22:01:43</time>
      </trkpt>
      <trkpt lat="41.53932" lon="1.56399">
        <ele>498.8</ele>
        <time>2022-05-20 22:01:44</time>
      </trkpt>
      <trkpt lat="41.53936" lon="1.56412">
        <ele>498.4</ele>
        <time>2022-05-20 22:01:45</time>
      </trkpt>
      <trkpt lat="41.53939" lon="1.56426">
        <ele>498</ele>
        <time>2022-05-20 22:01:46</time>
      </trkpt>
      <trkpt lat="41.53942" lon="1.56439">
        <ele>497.8</ele>
        <time>2022-05-20 22:01:47</time>
      </trkpt>
      <trkpt lat="41.53946" lon="1.56453">
        <ele>497.4</ele>
        <time>2022-05-20 22:01:48</time>
      </trkpt>
      <trkpt lat="41.53949" lon="1.56466">
        <ele>497</ele>
        <time>2022-05-20 22:01:49</time>
      </trkpt>
      <trkpt lat="41.53952" lon="1.5648">
        <ele>496.6</ele>
        <time>2022-05-20 22:01:50</time>
      </trkpt>
      <trkpt lat="41.53955" lon="1.56494">
        <ele>496.2</ele>
        <time>2022-05-20 22:01:51</time>
      </trkpt>
      <trkpt lat="41.53957" lon="1.56508">
        <ele>495.8</ele>
        <time>2022-05-20 22:01:52</time>
      </trkpt>
      <trkpt lat="41.5396" lon="1.56522">
        <ele>495.4</ele>
        <time>2022-05-20 22:01:53</time>
      </trkpt>
      <trkpt lat="41.53964" lon="1.56536">
        <ele>495.2</ele>
        <time>2022-05-20 22:01:54</time>
      </trkpt>
      <trkpt lat="41.53968" lon="1.56549">
        <ele>494.8</ele>
        <time>2022-05-20 22:01:55</time>
      </trkpt>
      <trkpt lat="41.53971" lon="1.56563">
        <ele>494.4</ele>
        <time>2022-05-20 22:01:56</time>
      </trkpt>
      <trkpt lat="41.53974" lon="1.56576">
        <ele>494</ele>
        <time>2022-05-20 22:01:57</time>
      </trkpt>
      <trkpt lat="41.53977" lon="1.56589">
        <ele>493.6</ele>
        <time>2022-05-20 22:01:58</time>
      </trkpt>
      <trkpt lat="41.53981" lon="1.56603">
        <ele>493.4</ele>
        <time>2022-05-20 22:01:59</time>
      </trkpt>
      <trkpt lat="41.53984" lon="1.56617">
        <ele>493</ele>
        <time>2022-05-20 22:02:00</time>
      </trkpt>
      <trkpt lat="41.53987" lon="1.5663">
        <ele>492.6</ele>
        <time>2022-05-20 22:02:01</time>
      </trkpt>
      <trkpt lat="41.5399" lon="1.56643">
        <ele>492.4</ele>
        <time>2022-05-20 22:02:02</time>
      </trkpt>
      <trkpt lat="41.53994" lon="1.56657">
        <ele>492</ele>
        <time>2022-05-20 22:02:03</time>
      </trkpt>
      <trkpt lat="41.53997" lon="1.5667">
        <ele>491.6</ele>
        <time>2022-05-20 22:02:04</time>
      </trkpt>
      <trkpt lat="41.54" lon="1.56684">
        <ele>491.4</ele>
        <time>2022-05-20 22:02:05</time>
      </trkpt>
      <trkpt lat="41.54003" lon="1.56698">
        <ele>491</ele>
        <time>2022-05-20 22:02:06</time>
      </trkpt>
      <trkpt lat="41.54006" lon="1.56712">
        <ele>490.8</ele>
        <time>2022-05-20 22:02:07</time>
      </trkpt>
      <trkpt lat="41.54008" lon="1.56725">
        <ele>490.4</ele>
        <time>2022-05-20 22:02:08</time>
      </trkpt>
      <trkpt lat="41.54012" lon="1.56739">
        <ele>490</ele>
        <time>2022-05-20 22:02:09</time>
      </trkpt>
      <trkpt lat="41.54016" lon="1.56753">
        <ele>489.8</ele>
        <time>2022-05-20 22:02:10</time>
      </trkpt>
      <trkpt lat="41.54019" lon="1.56767">
        <ele>489.4</ele>
        <time>2022-05-20 22:02:11</time>
      </trkpt>
      <trkpt lat="41.54023" lon="1.56781">
        <ele>489.2</ele>
        <time>2022-05-20 22:02:12</time>
      </trkpt>
      <trkpt lat="41.54026" lon="1.56795">
        <ele>488.8</ele>
        <time>2022-05-20 22:02:13</time>
      </trkpt>
      <trkpt lat="41.5403" lon="1.56808">
        <ele>488.4</ele>
        <time>2022-05-20 22:02:14</time>
      </trkpt>
      <trkpt lat="41.54034" lon="1.56821">
        <ele>488</ele>
        <time>2022-05-20 22:02:15</time>
      </trkpt>
      <trkpt lat="41.54038" lon="1.56834">
        <ele>487.6</ele>
        <time>2022-05-20 22:02:16</time>
      </trkpt>
      <trkpt lat="41.54042" lon="1.56847">
        <ele>487.4</ele>
        <time>2022-05-20 22:02:17</time>
      </trkpt>
      <trkpt lat="41.54047" lon="1.56859">
        <ele>487</ele>
        <time>2022-05-20 22:02:18</time>
      </trkpt>
      <trkpt lat="41.54052" lon="1.5687">
        <ele>486.6</ele>
        <time>2022-05-20 22:02:19</time>
      </trkpt>
      <trkpt lat="41.54058" lon="1.56882">
        <ele>486.2</ele>
        <time>2022-05-20 22:02:20</time>
      </trkpt>
      <trkpt lat="41.54063" lon="1.56894">
        <ele>485.8</ele>
        <time>2022-05-20 22:02:21</time>
      </trkpt>
      <trkpt lat="41.54069" lon="1.56905">
        <ele>485.4</ele>
        <time>2022-05-20 22:02:22</time>
      </trkpt>
      <trkpt lat="41.54074" lon="1.56917">
        <ele>485</ele>
        <time>2022-05-20 22:02:23</time>
      </trkpt>
      <trkpt lat="41.54079" lon="1.56928">
        <ele>484.6</ele>
        <time>2022-05-20 22:02:24</time>
      </trkpt>
      <trkpt lat="41.54084" lon="1.56939">
        <ele>484.2</ele>
        <time>2022-05-20 22:02:25</time>
      </trkpt>
      <trkpt lat="41.5409" lon="1.56951">
        <ele>483.8</ele>
        <time>2022-05-20 22:02:26</time>
      </trkpt>
      <trkpt lat="41.54097" lon="1.56963">
        <ele>483.4</ele>
        <time>2022-05-20 22:02:27</time>
      </trkpt>
      <trkpt lat="41.54103" lon="1.56974">
        <ele>483</ele>
        <time>2022-05-20 22:02:28</time>
      </trkpt>
      <trkpt lat="41.5411" lon="1.56985">
        <ele>482.8</ele>
        <time>2022-05-20 22:02:29</time>
      </trkpt>
      <trkpt lat="41.54116" lon="1.56997">
        <ele>482.4</ele>
        <time>2022-05-20 22:02:30</time>
      </trkpt>
      <trkpt lat="41.54122" lon="1.57008">
        <ele>482</ele>
        <time>2022-05-20 22:02:31</time>
      </trkpt>
      <trkpt lat="41.54128" lon="1.57018">
        <ele>481.6</ele>
        <time>2022-05-20 22:02:32</time>
      </trkpt>
      <trkpt lat="41.54133" lon="1.57033">
        <ele>481.2</ele>
        <time>2022-05-20 22:02:33</time>
      </trkpt>
      <trkpt lat="41.54136" lon="1.57046">
        <ele>480.8</ele>
        <time>2022-05-20 22:02:34</time>
      </trkpt>
      <trkpt lat="41.54139" lon="1.5706">
        <ele>480.4</ele>
        <time>2022-05-20 22:02:35</time>
      </trkpt>
      <trkpt lat="41.5414" lon="1.57073">
        <ele>480</ele>
        <time>2022-05-20 22:02:36</time>
      </trkpt>
      <trkpt lat="41.54142" lon="1.57086">
        <ele>479.6</ele>
        <time>2022-05-20 22:02:37</time>
      </trkpt>
      <trkpt lat="41.54143" lon="1.57102">
        <ele>479.2</ele>
        <time>2022-05-20 22:02:38</time>
      </trkpt>
      <trkpt lat="41.54144" lon="1.57117">
        <ele>478.8</ele>
        <time>2022-05-20 22:02:39</time>
      </trkpt>
      <trkpt lat="41.54145" lon="1.57132">
        <ele>478.6</ele>
        <time>2022-05-20 22:02:40</time>
      </trkpt>
      <trkpt lat="41.54147" lon="1.57148">
        <ele>478.2</ele>
        <time>2022-05-20 22:02:41</time>
      </trkpt>
      <trkpt lat="41.54148" lon="1.57163">
        <ele>477.8</ele>
        <time>2022-05-20 22:02:42</time>
      </trkpt>
      <trkpt lat="41.5415" lon="1.57179">
        <ele>477.2</ele>
        <time>2022-05-20 22:02:43</time>
      </trkpt>
      <trkpt lat="41.54153" lon="1.57194">
        <ele>476.8</ele>
        <time>2022-05-20 22:02:44</time>
      </trkpt>
      <trkpt lat="41.54157" lon="1.57209">
        <ele>476.4</ele>
        <time>2022-05-20 22:02:45</time>
      </trkpt>
      <trkpt lat="41.54163" lon="1.57223">
        <ele>476</ele>
        <time>2022-05-20 22:02:46</time>
      </trkpt>
      <trkpt lat="41.5417" lon="1.57235">
        <ele>475.6</ele>
        <time>2022-05-20 22:02:47</time>
      </trkpt>
      <trkpt lat="41.54178" lon="1.57246">
        <ele>475.2</ele>
        <time>2022-05-20 22:02:48</time>
      </trkpt>
      <trkpt lat="41.54186" lon="1.57256">
        <ele>474.8</ele>
        <time>2022-05-20 22:02:49</time>
      </trkpt>
      <trkpt lat="41.54193" lon="1.57267">
        <ele>474.6</ele>
        <time>2022-05-20 22:02:50</time>
      </trkpt>
      <trkpt lat="41.54201" lon="1.57278">
        <ele>474.2</ele>
        <time>2022-05-20 22:02:51</time>
      </trkpt>
      <trkpt lat="41.54209" lon="1.57289">
        <ele>473.8</ele>
        <time>2022-05-20 22:02:52</time>
      </trkpt>
      <trkpt lat="41.54216" lon="1.57301">
        <ele>473.4</ele>
        <time>2022-05-20 22:02:53</time>
      </trkpt>
      <trkpt lat="41.54223" lon="1.57311">
        <ele>473</ele>
        <time>2022-05-20 22:02:54</time>
      </trkpt>
      <trkpt lat="41.54231" lon="1.57322">
        <ele>472.6</ele>
        <time>2022-05-20 22:02:55</time>
      </trkpt>
      <trkpt lat="41.54239" lon="1.57333">
        <ele>472.2</ele>
        <time>2022-05-20 22:02:56</time>
      </trkpt>
      <trkpt lat="41.54247" lon="1.57343">
        <ele>471.6</ele>
        <time>2022-05-20 22:02:57</time>
      </trkpt>
      <trkpt lat="41.54254" lon="1.57352">
        <ele>471.4</ele>
        <time>2022-05-20 22:02:58</time>
      </trkpt>
      <trkpt lat="41.54261" lon="1.57364">
        <ele>470.8</ele>
        <time>2022-05-20 22:02:59</time>
      </trkpt>
      <trkpt lat="41.54268" lon="1.57376">
        <ele>470.4</ele>
        <time>2022-05-20 22:03:00</time>
      </trkpt>
      <trkpt lat="41.54273" lon="1.57389">
        <ele>470</ele>
        <time>2022-05-20 22:03:01</time>
      </trkpt>
      <trkpt lat="41.54277" lon="1.57403">
        <ele>469.4</ele>
        <time>2022-05-20 22:03:02</time>
      </trkpt>
      <trkpt lat="41.5428" lon="1.57418">
        <ele>469</ele>
        <time>2022-05-20 22:03:03</time>
      </trkpt>
      <trkpt lat="41.54282" lon="1.57436">
        <ele>468.4</ele>
        <time>2022-05-20 22:03:04</time>
      </trkpt>
      <trkpt lat="41.54285" lon="1.57451">
        <ele>468</ele>
        <time>2022-05-20 22:03:05</time>
      </trkpt>
      <trkpt lat="41.54287" lon="1.57467">
        <ele>467.4</ele>
        <time>2022-05-20 22:03:06</time>
      </trkpt>
      <trkpt lat="41.5429" lon="1.57483">
        <ele>466.8</ele>
        <time>2022-05-20 22:03:07</time>
      </trkpt>
      <trkpt lat="41.54292" lon="1.57499">
        <ele>466</ele>
        <time>2022-05-20 22:03:08</time>
      </trkpt>
      <trkpt lat="41.54295" lon="1.57515">
        <ele>465.4</ele>
        <time>2022-05-20 22:03:09</time>
      </trkpt>
      <trkpt lat="41.54298" lon="1.5753">
        <ele>465</ele>
        <time>2022-05-20 22:03:10</time>
      </trkpt>
      <trkpt lat="41.54301" lon="1.57545">
        <ele>464.4</ele>
        <time>2022-05-20 22:03:11</time>
      </trkpt>
      <trkpt lat="41.54304" lon="1.57562">
        <ele>463.8</ele>
        <time>2022-05-20 22:03:12</time>
      </trkpt>
      <trkpt lat="41.54307" lon="1.57576">
        <ele>463.2</ele>
        <time>2022-05-20 22:03:13</time>
      </trkpt>
      <trkpt lat="41.5431" lon="1.57591">
        <ele>462.6</ele>
        <time>2022-05-20 22:03:14</time>
      </trkpt>
      <trkpt lat="41.54313" lon="1.57606">
        <ele>462.2</ele>
        <time>2022-05-20 22:03:15</time>
      </trkpt>
      <trkpt lat="41.54316" lon="1.57622">
        <ele>461.4</ele>
        <time>2022-05-20 22:03:16</time>
      </trkpt>
      <trkpt lat="41.54319" lon="1.57639">
        <ele>460.8</ele>
        <time>2022-05-20 22:03:17</time>
      </trkpt>
      <trkpt lat="41.54322" lon="1.57654">
        <ele>460.2</ele>
        <time>2022-05-20 22:03:18</time>
      </trkpt>
      <trkpt lat="41.54324" lon="1.57669">
        <ele>459.8</ele>
        <time>2022-05-20 22:03:19</time>
      </trkpt>
      <trkpt lat="41.54327" lon="1.57683">
        <ele>459.4</ele>
        <time>2022-05-20 22:03:20</time>
      </trkpt>
      <trkpt lat="41.5433" lon="1.57697">
        <ele>458.8</ele>
        <time>2022-05-20 22:03:21</time>
      </trkpt>
      <trkpt lat="41.54334" lon="1.57713">
        <ele>458.2</ele>
        <time>2022-05-20 22:03:22</time>
      </trkpt>
      <trkpt lat="41.54338" lon="1.5773">
        <ele>457.8</ele>
        <time>2022-05-20 22:03:23</time>
      </trkpt>
      <trkpt lat="41.54342" lon="1.57746">
        <ele>457.2</ele>
        <time>2022-05-20 22:03:24</time>
      </trkpt>
      <trkpt lat="41.54346" lon="1.57762">
        <ele>456.6</ele>
        <time>2022-05-20 22:03:25</time>
      </trkpt>
      <trkpt lat="41.5435" lon="1.57777">
        <ele>456.2</ele>
        <time>2022-05-20 22:03:26</time>
      </trkpt>
      <trkpt lat="41.54356" lon="1.57792">
        <ele>455.6</ele>
        <time>2022-05-20 22:03:27</time>
      </trkpt>
      <trkpt lat="41.54361" lon="1.57807">
        <ele>455</ele>
        <time>2022-05-20 22:03:28</time>
      </trkpt>
      <trkpt lat="41.54365" lon="1.57823">
        <ele>454.4</ele>
        <time>2022-05-20 22:03:29</time>
      </trkpt>
      <trkpt lat="41.54369" lon="1.57838">
        <ele>454</ele>
        <time>2022-05-20 22:03:30</time>
      </trkpt>
      <trkpt lat="41.54374" lon="1.57853">
        <ele>453.4</ele>
        <time>2022-05-20 22:03:31</time>
      </trkpt>
      <trkpt lat="41.54378" lon="1.57868">
        <ele>453</ele>
        <time>2022-05-20 22:03:32</time>
      </trkpt>
      <trkpt lat="41.54383" lon="1.57882">
        <ele>452.4</ele>
        <time>2022-05-20 22:03:33</time>
      </trkpt>
      <trkpt lat="41.54388" lon="1.57897">
        <ele>452</ele>
        <time>2022-05-20 22:03:34</time>
      </trkpt>
      <trkpt lat="41.54392" lon="1.57912">
        <ele>451.4</ele>
        <time>2022-05-20 22:03:35</time>
      </trkpt>
      <trkpt lat="41.54396" lon="1.57926">
        <ele>450.8</ele>
        <time>2022-05-20 22:03:36</time>
      </trkpt>
      <trkpt lat="41.54399" lon="1.57941">
        <ele>450.4</ele>
        <time>2022-05-20 22:03:37</time>
      </trkpt>
      <trkpt lat="41.54403" lon="1.57956">
        <ele>450</ele>
        <time>2022-05-20 22:03:38</time>
      </trkpt>
      <trkpt lat="41.54406" lon="1.5797">
        <ele>449.8</ele>
        <time>2022-05-20 22:03:39</time>
      </trkpt>
      <trkpt lat="41.5441" lon="1.57985">
        <ele>449.4</ele>
        <time>2022-05-20 22:03:40</time>
      </trkpt>
      <trkpt lat="41.54413" lon="1.57999">
        <ele>449</ele>
        <time>2022-05-20 22:03:41</time>
      </trkpt>
      <trkpt lat="41.54416" lon="1.58013">
        <ele>448.6</ele>
        <time>2022-05-20 22:03:42</time>
      </trkpt>
      <trkpt lat="41.5442" lon="1.58026">
        <ele>448.2</ele>
        <time>2022-05-20 22:03:43</time>
      </trkpt>
      <trkpt lat="41.54425" lon="1.5804">
        <ele>447.6</ele>
        <time>2022-05-20 22:03:44</time>
      </trkpt>
      <trkpt lat="41.54431" lon="1.58053">
        <ele>447.2</ele>
        <time>2022-05-20 22:03:45</time>
      </trkpt>
      <trkpt lat="41.54437" lon="1.58067">
        <ele>446.8</ele>
        <time>2022-05-20 22:03:46</time>
      </trkpt>
      <trkpt lat="41.54444" lon="1.58078">
        <ele>446.4</ele>
        <time>2022-05-20 22:03:47</time>
      </trkpt>
      <trkpt lat="41.54453" lon="1.58089">
        <ele>446</ele>
        <time>2022-05-20 22:03:48</time>
      </trkpt>
      <trkpt lat="41.54461" lon="1.58099">
        <ele>445.6</ele>
        <time>2022-05-20 22:03:49</time>
      </trkpt>
      <trkpt lat="41.54469" lon="1.58108">
        <ele>445.2</ele>
        <time>2022-05-20 22:03:50</time>
      </trkpt>
      <trkpt lat="41.54478" lon="1.58118">
        <ele>444.8</ele>
        <time>2022-05-20 22:03:51</time>
      </trkpt>
      <trkpt lat="41.54487" lon="1.58127">
        <ele>444.2</ele>
        <time>2022-05-20 22:03:52</time>
      </trkpt>
      <trkpt lat="41.54495" lon="1.58137">
        <ele>443.8</ele>
        <time>2022-05-20 22:03:53</time>
      </trkpt>
      <trkpt lat="41.54504" lon="1.58146">
        <ele>443.4</ele>
        <time>2022-05-20 22:03:54</time>
      </trkpt>
      <trkpt lat="41.54513" lon="1.58155">
        <ele>443</ele>
        <time>2022-05-20 22:03:55</time>
      </trkpt>
      <trkpt lat="41.5452" lon="1.58165">
        <ele>442.6</ele>
        <time>2022-05-20 22:03:56</time>
      </trkpt>
      <trkpt lat="41.54527" lon="1.58176">
        <ele>442</ele>
        <time>2022-05-20 22:03:57</time>
      </trkpt>
      <trkpt lat="41.54533" lon="1.58187">
        <ele>441.6</ele>
        <time>2022-05-20 22:03:58</time>
      </trkpt>
      <trkpt lat="41.54538" lon="1.582">
        <ele>441.4</ele>
        <time>2022-05-20 22:03:59</time>
      </trkpt>
      <trkpt lat="41.54541" lon="1.58215">
        <ele>441</ele>
        <time>2022-05-20 22:04:00</time>
      </trkpt>
      <trkpt lat="41.54544" lon="1.5823">
        <ele>440.6</ele>
        <time>2022-05-20 22:04:01</time>
      </trkpt>
      <trkpt lat="41.54546" lon="1.58245">
        <ele>440.2</ele>
        <time>2022-05-20 22:04:02</time>
      </trkpt>
      <trkpt lat="41.54549" lon="1.58259">
        <ele>439.8</ele>
        <time>2022-05-20 22:04:03</time>
      </trkpt>
      <trkpt lat="41.54553" lon="1.58273">
        <ele>439.4</ele>
        <time>2022-05-20 22:04:04</time>
      </trkpt>
      <trkpt lat="41.54556" lon="1.58288">
        <ele>439</ele>
        <time>2022-05-20 22:04:05</time>
      </trkpt>
      <trkpt lat="41.5456" lon="1.58302">
        <ele>438.6</ele>
        <time>2022-05-20 22:04:06</time>
      </trkpt>
      <trkpt lat="41.54563" lon="1.58316">
        <ele>438.2</ele>
        <time>2022-05-20 22:04:07</time>
      </trkpt>
      <trkpt lat="41.54567" lon="1.58329">
        <ele>437.8</ele>
        <time>2022-05-20 22:04:08</time>
      </trkpt>
      <trkpt lat="41.54573" lon="1.58342">
        <ele>437.4</ele>
        <time>2022-05-20 22:04:09</time>
      </trkpt>
      <trkpt lat="41.54579" lon="1.58355">
        <ele>437</ele>
        <time>2022-05-20 22:04:10</time>
      </trkpt>
      <trkpt lat="41.54584" lon="1.58367">
        <ele>436.6</ele>
        <time>2022-05-20 22:04:11</time>
      </trkpt>
      <trkpt lat="41.54589" lon="1.58379">
        <ele>436.4</ele>
        <time>2022-05-20 22:04:12</time>
      </trkpt>
      <trkpt lat="41.54595" lon="1.58391">
        <ele>436</ele>
        <time>2022-05-20 22:04:13</time>
      </trkpt>
      <trkpt lat="41.54601" lon="1.58403">
        <ele>435.8</ele>
        <time>2022-05-20 22:04:14</time>
      </trkpt>
      <trkpt lat="41.54607" lon="1.58415">
        <ele>435.6</ele>
        <time>2022-05-20 22:04:15</time>
      </trkpt>
      <trkpt lat="41.54613" lon="1.58427">
        <ele>435.4</ele>
        <time>2022-05-20 22:04:16</time>
      </trkpt>
      <trkpt lat="41.54619" lon="1.58439">
        <ele>435.2</ele>
        <time>2022-05-20 22:04:17</time>
      </trkpt>
      <trkpt lat="41.54625" lon="1.58451">
        <ele>435</ele>
        <time>2022-05-20 22:04:18</time>
      </trkpt>
      <trkpt lat="41.54631" lon="1.58463">
        <ele>434.8</ele>
        <time>2022-05-20 22:04:19</time>
      </trkpt>
      <trkpt lat="41.54636" lon="1.58474">
        <ele>434.8</ele>
        <time>2022-05-20 22:04:20</time>
      </trkpt>
      <trkpt lat="41.54641" lon="1.58485">
        <ele>434.6</ele>
        <time>2022-05-20 22:04:21</time>
      </trkpt>
      <trkpt lat="41.54647" lon="1.58495">
        <ele>434.4</ele>
        <time>2022-05-20 22:04:22</time>
      </trkpt>
      <trkpt lat="41.54653" lon="1.58506">
        <ele>434.4</ele>
        <time>2022-05-20 22:04:23</time>
      </trkpt>
      <trkpt lat="41.54659" lon="1.58516">
        <ele>434.2</ele>
        <time>2022-05-20 22:04:24</time>
      </trkpt>
      <trkpt lat="41.54664" lon="1.58527">
        <ele>434</ele>
        <time>2022-05-20 22:04:25</time>
      </trkpt>
      <trkpt lat="41.5467" lon="1.58538">
        <ele>434</ele>
        <time>2022-05-20 22:04:26</time>
      </trkpt>
      <trkpt lat="41.54676" lon="1.58547">
        <ele>434</ele>
        <time>2022-05-20 22:04:27</time>
      </trkpt>
      <trkpt lat="41.54681" lon="1.58557">
        <ele>434</ele>
        <time>2022-05-20 22:04:28</time>
      </trkpt>
      <trkpt lat="41.54687" lon="1.58567">
        <ele>433.8</ele>
        <time>2022-05-20 22:04:29</time>
      </trkpt>
      <trkpt lat="41.54694" lon="1.58575">
        <ele>433.6</ele>
        <time>2022-05-20 22:04:30</time>
      </trkpt>
      <trkpt lat="41.54701" lon="1.58583">
        <ele>433.6</ele>
        <time>2022-05-20 22:04:31</time>
      </trkpt>
      <trkpt lat="41.54708" lon="1.58592">
        <ele>433.4</ele>
        <time>2022-05-20 22:04:32</time>
      </trkpt>
      <trkpt lat="41.54715" lon="1.586">
        <ele>433.2</ele>
        <time>2022-05-20 22:04:33</time>
      </trkpt>
      <trkpt lat="41.54722" lon="1.58608">
        <ele>433.2</ele>
        <time>2022-05-20 22:04:34</time>
      </trkpt>
      <trkpt lat="41.54728" lon="1.58616">
        <ele>433</ele>
        <time>2022-05-20 22:04:35</time>
      </trkpt>
      <trkpt lat="41.54735" lon="1.58624">
        <ele>433</ele>
        <time>2022-05-20 22:04:36</time>
      </trkpt>
      <trkpt lat="41.54741" lon="1.58633">
        <ele>432.8</ele>
        <time>2022-05-20 22:04:37</time>
      </trkpt>
      <trkpt lat="41.54749" lon="1.58643">
        <ele>432.8</ele>
        <time>2022-05-20 22:04:38</time>
      </trkpt>
      <trkpt lat="41.54755" lon="1.58651">
        <ele>432.6</ele>
        <time>2022-05-20 22:04:39</time>
      </trkpt>
      <trkpt lat="41.54762" lon="1.58659">
        <ele>432.6</ele>
        <time>2022-05-20 22:04:40</time>
      </trkpt>
      <trkpt lat="41.54768" lon="1.58668">
        <ele>432.6</ele>
        <time>2022-05-20 22:04:41</time>
      </trkpt>
      <trkpt lat="41.54774" lon="1.58676">
        <ele>432.4</ele>
        <time>2022-05-20 22:04:42</time>
      </trkpt>
      <trkpt lat="41.5478" lon="1.58685">
        <ele>432.4</ele>
        <time>2022-05-20 22:04:43</time>
      </trkpt>
      <trkpt lat="41.54786" lon="1.58694">
        <ele>432.2</ele>
        <time>2022-05-20 22:04:44</time>
      </trkpt>
      <trkpt lat="41.54792" lon="1.58703">
        <ele>432</ele>
        <time>2022-05-20 22:04:45</time>
      </trkpt>
      <trkpt lat="41.54799" lon="1.58712">
        <ele>431.8</ele>
        <time>2022-05-20 22:04:46</time>
      </trkpt>
      <trkpt lat="41.54805" lon="1.58722">
        <ele>431.4</ele>
        <time>2022-05-20 22:04:47</time>
      </trkpt>
      <trkpt lat="41.54812" lon="1.58731">
        <ele>431.2</ele>
        <time>2022-05-20 22:04:48</time>
      </trkpt>
      <trkpt lat="41.54818" lon="1.5874">
        <ele>431</ele>
        <time>2022-05-20 22:04:49</time>
      </trkpt>
      <trkpt lat="41.54824" lon="1.58749">
        <ele>430.6</ele>
        <time>2022-05-20 22:04:50</time>
      </trkpt>
      <trkpt lat="41.54831" lon="1.58759">
        <ele>430.2</ele>
        <time>2022-05-20 22:04:51</time>
      </trkpt>
      <trkpt lat="41.54838" lon="1.58769">
        <ele>430</ele>
        <time>2022-05-20 22:04:52</time>
      </trkpt>
      <trkpt lat="41.54845" lon="1.58778">
        <ele>429.6</ele>
        <time>2022-05-20 22:04:53</time>
      </trkpt>
      <trkpt lat="41.54851" lon="1.58788">
        <ele>429.2</ele>
        <time>2022-05-20 22:04:54</time>
      </trkpt>
      <trkpt lat="41.54858" lon="1.58798">
        <ele>429</ele>
        <time>2022-05-20 22:04:55</time>
      </trkpt>
      <trkpt lat="41.54864" lon="1.58808">
        <ele>428.6</ele>
        <time>2022-05-20 22:04:56</time>
      </trkpt>
      <trkpt lat="41.5487" lon="1.58819">
        <ele>428.4</ele>
        <time>2022-05-20 22:04:57</time>
      </trkpt>
      <trkpt lat="41.54876" lon="1.5883">
        <ele>428</ele>
        <time>2022-05-20 22:04:58</time>
      </trkpt>
      <trkpt lat="41.54882" lon="1.58841">
        <ele>427.6</ele>
        <time>2022-05-20 22:04:59</time>
      </trkpt>
      <trkpt lat="41.54889" lon="1.58852">
        <ele>427.4</ele>
        <time>2022-05-20 22:05:00</time>
      </trkpt>
      <trkpt lat="41.54895" lon="1.58863">
        <ele>427</ele>
        <time>2022-05-20 22:05:01</time>
      </trkpt>
      <trkpt lat="41.54902" lon="1.58875">
        <ele>426.6</ele>
        <time>2022-05-20 22:05:02</time>
      </trkpt>
      <trkpt lat="41.54907" lon="1.58886">
        <ele>426.2</ele>
        <time>2022-05-20 22:05:03</time>
      </trkpt>
      <trkpt lat="41.54913" lon="1.58898">
        <ele>425.8</ele>
        <time>2022-05-20 22:05:04</time>
      </trkpt>
      <trkpt lat="41.54918" lon="1.58909">
        <ele>425.6</ele>
        <time>2022-05-20 22:05:05</time>
      </trkpt>
      <trkpt lat="41.54924" lon="1.58921">
        <ele>425.2</ele>
        <time>2022-05-20 22:05:06</time>
      </trkpt>
      <trkpt lat="41.5493" lon="1.58932">
        <ele>424.8</ele>
        <time>2022-05-20 22:05:07</time>
      </trkpt>
      <trkpt lat="41.54936" lon="1.58944">
        <ele>424.6</ele>
        <time>2022-05-20 22:05:08</time>
      </trkpt>
      <trkpt lat="41.54941" lon="1.58955">
        <ele>424.2</ele>
        <time>2022-05-20 22:05:09</time>
      </trkpt>
      <trkpt lat="41.54947" lon="1.58967">
        <ele>423.8</ele>
        <time>2022-05-20 22:05:10</time>
      </trkpt>
      <trkpt lat="41.54953" lon="1.58979">
        <ele>423.4</ele>
        <time>2022-05-20 22:05:11</time>
      </trkpt>
      <trkpt lat="41.54959" lon="1.58992">
        <ele>423.2</ele>
        <time>2022-05-20 22:05:12</time>
      </trkpt>
      <trkpt lat="41.54965" lon="1.59003">
        <ele>422.8</ele>
        <time>2022-05-20 22:05:13</time>
      </trkpt>
      <trkpt lat="41.54971" lon="1.59015">
        <ele>422.6</ele>
        <time>2022-05-20 22:05:14</time>
      </trkpt>
      <trkpt lat="41.54977" lon="1.59025">
        <ele>422.2</ele>
        <time>2022-05-20 22:05:15</time>
      </trkpt>
      <trkpt lat="41.54984" lon="1.59036">
        <ele>422</ele>
        <time>2022-05-20 22:05:16</time>
      </trkpt>
      <trkpt lat="41.54991" lon="1.59046">
        <ele>421.6</ele>
        <time>2022-05-20 22:05:17</time>
      </trkpt>
      <trkpt lat="41.54998" lon="1.59057">
        <ele>421.4</ele>
        <time>2022-05-20 22:05:18</time>
      </trkpt>
      <trkpt lat="41.55005" lon="1.59067">
        <ele>421</ele>
        <time>2022-05-20 22:05:19</time>
      </trkpt>
      <trkpt lat="41.55013" lon="1.59078">
        <ele>420.6</ele>
        <time>2022-05-20 22:05:20</time>
      </trkpt>
      <trkpt lat="41.5502" lon="1.59089">
        <ele>420.2</ele>
        <time>2022-05-20 22:05:21</time>
      </trkpt>
      <trkpt lat="41.55027" lon="1.59099">
        <ele>419.8</ele>
        <time>2022-05-20 22:05:22</time>
      </trkpt>
      <trkpt lat="41.55036" lon="1.59108">
        <ele>419.4</ele>
        <time>2022-05-20 22:05:23</time>
      </trkpt>
      <trkpt lat="41.55045" lon="1.59114">
        <ele>419.2</ele>
        <time>2022-05-20 22:05:24</time>
      </trkpt>
      <trkpt lat="41.55054" lon="1.59118">
        <ele>418.8</ele>
        <time>2022-05-20 22:05:25</time>
      </trkpt>
      <trkpt lat="41.55064" lon="1.59122">
        <ele>418.4</ele>
        <time>2022-05-20 22:05:26</time>
      </trkpt>
      <trkpt lat="41.55074" lon="1.59127">
        <ele>418.2</ele>
        <time>2022-05-20 22:05:27</time>
      </trkpt>
      <trkpt lat="41.55083" lon="1.59133">
        <ele>418</ele>
        <time>2022-05-20 22:05:28</time>
      </trkpt>
      <trkpt lat="41.55091" lon="1.59141">
        <ele>417.8</ele>
        <time>2022-05-20 22:05:29</time>
      </trkpt>
      <trkpt lat="41.55098" lon="1.59149">
        <ele>417.6</ele>
        <time>2022-05-20 22:05:30</time>
      </trkpt>
      <trkpt lat="41.55105" lon="1.59159">
        <ele>417.4</ele>
        <time>2022-05-20 22:05:31</time>
      </trkpt>
      <trkpt lat="41.5511" lon="1.59171">
        <ele>417.4</ele>
        <time>2022-05-20 22:05:32</time>
      </trkpt>
      <trkpt lat="41.55114" lon="1.59184">
        <ele>417.2</ele>
        <time>2022-05-20 22:05:33</time>
      </trkpt>
      <trkpt lat="41.55119" lon="1.59197">
        <ele>417</ele>
        <time>2022-05-20 22:05:34</time>
      </trkpt>
      <trkpt lat="41.55124" lon="1.59209">
        <ele>416.6</ele>
        <time>2022-05-20 22:05:35</time>
      </trkpt>
      <trkpt lat="41.55129" lon="1.59222">
        <ele>416.2</ele>
        <time>2022-05-20 22:05:36</time>
      </trkpt>
      <trkpt lat="41.55134" lon="1.59234">
        <ele>415.8</ele>
        <time>2022-05-20 22:05:37</time>
      </trkpt>
      <trkpt lat="41.55139" lon="1.59247">
        <ele>415.2</ele>
        <time>2022-05-20 22:05:38</time>
      </trkpt>
      <trkpt lat="41.55144" lon="1.5926">
        <ele>414.8</ele>
        <time>2022-05-20 22:05:39</time>
      </trkpt>
      <trkpt lat="41.55149" lon="1.59274">
        <ele>414.4</ele>
        <time>2022-05-20 22:05:40</time>
      </trkpt>
      <trkpt lat="41.55154" lon="1.59287">
        <ele>413.8</ele>
        <time>2022-05-20 22:05:41</time>
      </trkpt>
      <trkpt lat="41.55159" lon="1.59301">
        <ele>413.2</ele>
        <time>2022-05-20 22:05:42</time>
      </trkpt>
      <trkpt lat="41.55164" lon="1.59315">
        <ele>412.6</ele>
        <time>2022-05-20 22:05:43</time>
      </trkpt>
      <trkpt lat="41.55169" lon="1.5933">
        <ele>412</ele>
        <time>2022-05-20 22:05:44</time>
      </trkpt>
      <trkpt lat="41.55174" lon="1.59344">
        <ele>411.2</ele>
        <time>2022-05-20 22:05:45</time>
      </trkpt>
      <trkpt lat="41.5518" lon="1.59358">
        <ele>410.6</ele>
        <time>2022-05-20 22:05:46</time>
      </trkpt>
      <trkpt lat="41.55185" lon="1.59373">
        <ele>410</ele>
        <time>2022-05-20 22:05:47</time>
      </trkpt>
      <trkpt lat="41.5519" lon="1.59387">
        <ele>409.4</ele>
        <time>2022-05-20 22:05:48</time>
      </trkpt>
      <trkpt lat="41.55195" lon="1.59402">
        <ele>408.6</ele>
        <time>2022-05-20 22:05:49</time>
      </trkpt>
      <trkpt lat="41.55199" lon="1.59417">
        <ele>408</ele>
        <time>2022-05-20 22:05:50</time>
      </trkpt>
      <trkpt lat="41.55203" lon="1.59433">
        <ele>407.4</ele>
        <time>2022-05-20 22:05:51</time>
      </trkpt>
      <trkpt lat="41.55206" lon="1.59448">
        <ele>406.6</ele>
        <time>2022-05-20 22:05:52</time>
      </trkpt>
      <trkpt lat="41.55206" lon="1.59463">
        <ele>406</ele>
        <time>2022-05-20 22:05:53</time>
      </trkpt>
      <trkpt lat="41.55207" lon="1.59478">
        <ele>405.4</ele>
        <time>2022-05-20 22:05:54</time>
      </trkpt>
      <trkpt lat="41.55207" lon="1.59495">
        <ele>404.6</ele>
        <time>2022-05-20 22:05:55</time>
      </trkpt>
      <trkpt lat="41.55206" lon="1.59511">
        <ele>404</ele>
        <time>2022-05-20 22:05:56</time>
      </trkpt>
      <trkpt lat="41.55205" lon="1.59528">
        <ele>403.4</ele>
        <time>2022-05-20 22:05:57</time>
      </trkpt>
      <trkpt lat="41.55204" lon="1.59544">
        <ele>402.6</ele>
        <time>2022-05-20 22:05:58</time>
      </trkpt>
      <trkpt lat="41.55204" lon="1.59561">
        <ele>402</ele>
        <time>2022-05-20 22:05:59</time>
      </trkpt>
      <trkpt lat="41.55206" lon="1.59576">
        <ele>401.4</ele>
        <time>2022-05-20 22:06:00</time>
      </trkpt>
      <trkpt lat="41.55209" lon="1.59592">
        <ele>400.8</ele>
        <time>2022-05-20 22:06:01</time>
      </trkpt>
      <trkpt lat="41.55215" lon="1.59606">
        <ele>400.4</ele>
        <time>2022-05-20 22:06:02</time>
      </trkpt>
      <trkpt lat="41.55223" lon="1.59619">
        <ele>399.8</ele>
        <time>2022-05-20 22:06:03</time>
      </trkpt>
      <trkpt lat="41.55231" lon="1.59632">
        <ele>399.2</ele>
        <time>2022-05-20 22:06:04</time>
      </trkpt>
      <trkpt lat="41.55239" lon="1.59645">
        <ele>398.6</ele>
        <time>2022-05-20 22:06:05</time>
      </trkpt>
      <trkpt lat="41.55247" lon="1.59657">
        <ele>398</ele>
        <time>2022-05-20 22:06:06</time>
      </trkpt>
      <trkpt lat="41.55256" lon="1.59669">
        <ele>397.2</ele>
        <time>2022-05-20 22:06:07</time>
      </trkpt>
      <trkpt lat="41.55265" lon="1.59681">
        <ele>396.6</ele>
        <time>2022-05-20 22:06:08</time>
      </trkpt>
      <trkpt lat="41.55274" lon="1.59693">
        <ele>396</ele>
        <time>2022-05-20 22:06:09</time>
      </trkpt>
      <trkpt lat="41.55283" lon="1.59706">
        <ele>395.2</ele>
        <time>2022-05-20 22:06:10</time>
      </trkpt>
      <trkpt lat="41.55291" lon="1.59719">
        <ele>394.6</ele>
        <time>2022-05-20 22:06:11</time>
      </trkpt>
      <trkpt lat="41.55299" lon="1.59733">
        <ele>393.8</ele>
        <time>2022-05-20 22:06:12</time>
      </trkpt>
      <trkpt lat="41.55305" lon="1.59748">
        <ele>393</ele>
        <time>2022-05-20 22:06:13</time>
      </trkpt>
      <trkpt lat="41.5531" lon="1.59763">
        <ele>392.4</ele>
        <time>2022-05-20 22:06:14</time>
      </trkpt>
      <trkpt lat="41.55315" lon="1.59779">
        <ele>391.6</ele>
        <time>2022-05-20 22:06:15</time>
      </trkpt>
      <trkpt lat="41.55321" lon="1.59794">
        <ele>390.8</ele>
        <time>2022-05-20 22:06:16</time>
      </trkpt>
      <trkpt lat="41.55326" lon="1.5981">
        <ele>390.2</ele>
        <time>2022-05-20 22:06:17</time>
      </trkpt>
      <trkpt lat="41.55333" lon="1.59825">
        <ele>389.6</ele>
        <time>2022-05-20 22:06:18</time>
      </trkpt>
      <trkpt lat="41.55338" lon="1.59839">
        <ele>389</ele>
        <time>2022-05-20 22:06:19</time>
      </trkpt>
      <trkpt lat="41.55344" lon="1.59854">
        <ele>388.6</ele>
        <time>2022-05-20 22:06:20</time>
      </trkpt>
      <trkpt lat="41.55349" lon="1.59868">
        <ele>388.4</ele>
        <time>2022-05-20 22:06:21</time>
      </trkpt>
      <trkpt lat="41.55354" lon="1.59882">
        <ele>388.2</ele>
        <time>2022-05-20 22:06:22</time>
      </trkpt>
      <trkpt lat="41.55359" lon="1.59896">
        <ele>388</ele>
        <time>2022-05-20 22:06:23</time>
      </trkpt>
      <trkpt lat="41.55363" lon="1.59909">
        <ele>388</ele>
        <time>2022-05-20 22:06:24</time>
      </trkpt>
      <trkpt lat="41.55368" lon="1.59921">
        <ele>388</ele>
        <time>2022-05-20 22:06:25</time>
      </trkpt>
      <trkpt lat="41.55373" lon="1.59934">
        <ele>388</ele>
        <time>2022-05-20 22:06:26</time>
      </trkpt>
      <trkpt lat="41.55378" lon="1.59946">
        <ele>388</ele>
        <time>2022-05-20 22:06:27</time>
      </trkpt>
      <trkpt lat="41.55383" lon="1.59956">
        <ele>388</ele>
        <time>2022-05-20 22:06:28</time>
      </trkpt>
      <trkpt lat="41.55389" lon="1.59966">
        <ele>388</ele>
        <time>2022-05-20 22:06:29</time>
      </trkpt>
      <trkpt lat="41.55395" lon="1.59974">
        <ele>388</ele>
        <time>2022-05-20 22:06:30</time>
      </trkpt>
      <trkpt lat="41.55402" lon="1.59984">
        <ele>388</ele>
        <time>2022-05-20 22:06:31</time>
      </trkpt>
      <trkpt lat="41.5541" lon="1.59993">
        <ele>387.8</ele>
        <time>2022-05-20 22:06:32</time>
      </trkpt>
      <trkpt lat="41.55417" lon="1.60001">
        <ele>387.6</ele>
        <time>2022-05-20 22:06:33</time>
      </trkpt>
      <trkpt lat="41.55425" lon="1.60009">
        <ele>387.4</ele>
        <time>2022-05-20 22:06:34</time>
      </trkpt>
      <trkpt lat="41.55433" lon="1.60017">
        <ele>387.2</ele>
        <time>2022-05-20 22:06:35</time>
      </trkpt>
      <trkpt lat="41.55441" lon="1.60026">
        <ele>386.8</ele>
        <time>2022-05-20 22:06:36</time>
      </trkpt>
      <trkpt lat="41.5545" lon="1.60034">
        <ele>386.6</ele>
        <time>2022-05-20 22:06:37</time>
      </trkpt>
      <trkpt lat="41.55458" lon="1.60043">
        <ele>386.4</ele>
        <time>2022-05-20 22:06:38</time>
      </trkpt>
      <trkpt lat="41.55466" lon="1.60051">
        <ele>386</ele>
        <time>2022-05-20 22:06:39</time>
      </trkpt>
      <trkpt lat="41.55474" lon="1.60059">
        <ele>385.6</ele>
        <time>2022-05-20 22:06:40</time>
      </trkpt>
      <trkpt lat="41.55482" lon="1.60068">
        <ele>385.2</ele>
        <time>2022-05-20 22:06:41</time>
      </trkpt>
      <trkpt lat="41.5549" lon="1.60076">
        <ele>385</ele>
        <time>2022-05-20 22:06:42</time>
      </trkpt>
      <trkpt lat="41.55498" lon="1.60084">
        <ele>384.6</ele>
        <time>2022-05-20 22:06:43</time>
      </trkpt>
      <trkpt lat="41.55507" lon="1.60093">
        <ele>384.2</ele>
        <time>2022-05-20 22:06:44</time>
      </trkpt>
      <trkpt lat="41.55515" lon="1.60102">
        <ele>383.8</ele>
        <time>2022-05-20 22:06:45</time>
      </trkpt>
      <trkpt lat="41.55522" lon="1.6011">
        <ele>383.6</ele>
        <time>2022-05-20 22:06:46</time>
      </trkpt>
      <trkpt lat="41.55531" lon="1.60119">
        <ele>383.2</ele>
        <time>2022-05-20 22:06:47</time>
      </trkpt>
      <trkpt lat="41.55539" lon="1.60126">
        <ele>382.8</ele>
        <time>2022-05-20 22:06:48</time>
      </trkpt>
      <trkpt lat="41.55546" lon="1.60134">
        <ele>382.6</ele>
        <time>2022-05-20 22:06:49</time>
      </trkpt>
      <trkpt lat="41.55552" lon="1.60141">
        <ele>382.2</ele>
        <time>2022-05-20 22:06:50</time>
      </trkpt>
      <trkpt lat="41.55559" lon="1.60148">
        <ele>382</ele>
        <time>2022-05-20 22:06:51</time>
      </trkpt>
      <trkpt lat="41.55566" lon="1.60155">
        <ele>381.6</ele>
        <time>2022-05-20 22:06:52</time>
      </trkpt>
      <trkpt lat="41.55572" lon="1.60162">
        <ele>381.4</ele>
        <time>2022-05-20 22:06:53</time>
      </trkpt>
      <trkpt lat="41.55577" lon="1.60168">
        <ele>381.2</ele>
        <time>2022-05-20 22:06:54</time>
      </trkpt>
      <trkpt lat="41.55583" lon="1.60174">
        <ele>381</ele>
        <time>2022-05-20 22:06:55</time>
      </trkpt>
      <trkpt lat="41.55587" lon="1.60179">
        <ele>380.8</ele>
        <time>2022-05-20 22:06:56</time>
      </trkpt>
      <trkpt lat="41.55592" lon="1.60184">
        <ele>380.6</ele>
        <time>2022-05-20 22:06:57</time>
      </trkpt>
      <trkpt lat="41.55597" lon="1.60189">
        <ele>380.4</ele>
        <time>2022-05-20 22:06:58</time>
      </trkpt>
      <trkpt lat="41.55602" lon="1.60195">
        <ele>380.2</ele>
        <time>2022-05-20 22:06:59</time>
      </trkpt>
      <trkpt lat="41.55606" lon="1.602">
        <ele>380</ele>
        <time>2022-05-20 22:07:00</time>
      </trkpt>
      <trkpt lat="41.55611" lon="1.60206">
        <ele>379.8</ele>
        <time>2022-05-20 22:07:01</time>
      </trkpt>
      <trkpt lat="41.55616" lon="1.60211">
        <ele>379.4</ele>
        <time>2022-05-20 22:07:02</time>
      </trkpt>
      <trkpt lat="41.55621" lon="1.60217">
        <ele>379.2</ele>
        <time>2022-05-20 22:07:03</time>
      </trkpt>
      <trkpt lat="41.55626" lon="1.60222">
        <ele>378.8</ele>
        <time>2022-05-20 22:07:04</time>
      </trkpt>
      <trkpt lat="41.55632" lon="1.60228">
        <ele>378.6</ele>
        <time>2022-05-20 22:07:05</time>
      </trkpt>
      <trkpt lat="41.55637" lon="1.60234">
        <ele>378.4</ele>
        <time>2022-05-20 22:07:06</time>
      </trkpt>
      <trkpt lat="41.55642" lon="1.6024">
        <ele>378</ele>
        <time>2022-05-20 22:07:07</time>
      </trkpt>
      <trkpt lat="41.55648" lon="1.60246">
        <ele>377.8</ele>
        <time>2022-05-20 22:07:08</time>
      </trkpt>
      <trkpt lat="41.55654" lon="1.60252">
        <ele>377.6</ele>
        <time>2022-05-20 22:07:09</time>
      </trkpt>
      <trkpt lat="41.55659" lon="1.60259">
        <ele>377.2</ele>
        <time>2022-05-20 22:07:10</time>
      </trkpt>
      <trkpt lat="41.55665" lon="1.60266">
        <ele>377</ele>
        <time>2022-05-20 22:07:11</time>
      </trkpt>
      <trkpt lat="41.55671" lon="1.60273">
        <ele>376.6</ele>
        <time>2022-05-20 22:07:12</time>
      </trkpt>
      <trkpt lat="41.55676" lon="1.6028">
        <ele>376.4</ele>
        <time>2022-05-20 22:07:13</time>
      </trkpt>
      <trkpt lat="41.55682" lon="1.60287">
        <ele>376</ele>
        <time>2022-05-20 22:07:14</time>
      </trkpt>
      <trkpt lat="41.55688" lon="1.60295">
        <ele>375.8</ele>
        <time>2022-05-20 22:07:15</time>
      </trkpt>
      <trkpt lat="41.55694" lon="1.60303">
        <ele>375.4</ele>
        <time>2022-05-20 22:07:16</time>
      </trkpt>
      <trkpt lat="41.55698" lon="1.60312">
        <ele>375.2</ele>
        <time>2022-05-20 22:07:17</time>
      </trkpt>
      <trkpt lat="41.55702" lon="1.60322">
        <ele>375</ele>
        <time>2022-05-20 22:07:18</time>
      </trkpt>
      <trkpt lat="41.55705" lon="1.60332">
        <ele>374.8</ele>
        <time>2022-05-20 22:07:19</time>
      </trkpt>
      <trkpt lat="41.55708" lon="1.60342">
        <ele>374.6</ele>
        <time>2022-05-20 22:07:20</time>
      </trkpt>
      <trkpt lat="41.55711" lon="1.60353">
        <ele>374.4</ele>
        <time>2022-05-20 22:07:21</time>
      </trkpt>
      <trkpt lat="41.55714" lon="1.60364">
        <ele>374.2</ele>
        <time>2022-05-20 22:07:22</time>
      </trkpt>
      <trkpt lat="41.55717" lon="1.60374">
        <ele>374</ele>
        <time>2022-05-20 22:07:23</time>
      </trkpt>
      <trkpt lat="41.55719" lon="1.60384">
        <ele>374</ele>
        <time>2022-05-20 22:07:24</time>
      </trkpt>
      <trkpt lat="41.55721" lon="1.60394">
        <ele>373.8</ele>
        <time>2022-05-20 22:07:25</time>
      </trkpt>
      <trkpt lat="41.55724" lon="1.60405">
        <ele>373.6</ele>
        <time>2022-05-20 22:07:26</time>
      </trkpt>
      <trkpt lat="41.55728" lon="1.60415">
        <ele>373.4</ele>
        <time>2022-05-20 22:07:27</time>
      </trkpt>
      <trkpt lat="41.55732" lon="1.60425">
        <ele>373.2</ele>
        <time>2022-05-20 22:07:28</time>
      </trkpt>
      <trkpt lat="41.55735" lon="1.60435">
        <ele>373</ele>
        <time>2022-05-20 22:07:29</time>
      </trkpt>
      <trkpt lat="41.55737" lon="1.60445">
        <ele>372.8</ele>
        <time>2022-05-20 22:07:30</time>
      </trkpt>
      <trkpt lat="41.5574" lon="1.60455">
        <ele>372.6</ele>
        <time>2022-05-20 22:07:31</time>
      </trkpt>
      <trkpt lat="41.55743" lon="1.60466">
        <ele>372.4</ele>
        <time>2022-05-20 22:07:32</time>
      </trkpt>
      <trkpt lat="41.55746" lon="1.60477">
        <ele>372.2</ele>
        <time>2022-05-20 22:07:33</time>
      </trkpt>
      <trkpt lat="41.55751" lon="1.60488">
        <ele>372</ele>
        <time>2022-05-20 22:07:34</time>
      </trkpt>
      <trkpt lat="41.55754" lon="1.60498">
        <ele>371.6</ele>
        <time>2022-05-20 22:07:35</time>
      </trkpt>
      <trkpt lat="41.55758" lon="1.60507">
        <ele>371.4</ele>
        <time>2022-05-20 22:07:36</time>
      </trkpt>
      <trkpt lat="41.55764" lon="1.60516">
        <ele>371</ele>
        <time>2022-05-20 22:07:37</time>
      </trkpt>
      <trkpt lat="41.55771" lon="1.60525">
        <ele>370.6</ele>
        <time>2022-05-20 22:07:38</time>
      </trkpt>
      <trkpt lat="41.55779" lon="1.60533">
        <ele>370.2</ele>
        <time>2022-05-20 22:07:39</time>
      </trkpt>
      <trkpt lat="41.55787" lon="1.60539">
        <ele>369.8</ele>
        <time>2022-05-20 22:07:40</time>
      </trkpt>
      <trkpt lat="41.55796" lon="1.60545">
        <ele>369.4</ele>
        <time>2022-05-20 22:07:41</time>
      </trkpt>
      <trkpt lat="41.55806" lon="1.60551">
        <ele>368.8</ele>
        <time>2022-05-20 22:07:42</time>
      </trkpt>
      <trkpt lat="41.55815" lon="1.60558">
        <ele>368.2</ele>
        <time>2022-05-20 22:07:43</time>
      </trkpt>
      <trkpt lat="41.55824" lon="1.60565">
        <ele>367.8</ele>
        <time>2022-05-20 22:07:44</time>
      </trkpt>
      <trkpt lat="41.55833" lon="1.60572">
        <ele>367.2</ele>
        <time>2022-05-20 22:07:45</time>
      </trkpt>
      <trkpt lat="41.55843" lon="1.60578">
        <ele>366.6</ele>
        <time>2022-05-20 22:07:46</time>
      </trkpt>
      <trkpt lat="41.55853" lon="1.60585">
        <ele>366</ele>
        <time>2022-05-20 22:07:47</time>
      </trkpt>
      <trkpt lat="41.55862" lon="1.60592">
        <ele>365.6</ele>
        <time>2022-05-20 22:07:48</time>
      </trkpt>
      <trkpt lat="41.55872" lon="1.60599">
        <ele>365</ele>
        <time>2022-05-20 22:07:49</time>
      </trkpt>
      <trkpt lat="41.55882" lon="1.60606">
        <ele>364.4</ele>
        <time>2022-05-20 22:07:50</time>
      </trkpt>
      <trkpt lat="41.55893" lon="1.60612">
        <ele>364</ele>
        <time>2022-05-20 22:07:51</time>
      </trkpt>
      <trkpt lat="41.55903" lon="1.60619">
        <ele>363.6</ele>
        <time>2022-05-20 22:07:52</time>
      </trkpt>
      <trkpt lat="41.55913" lon="1.60625">
        <ele>363.2</ele>
        <time>2022-05-20 22:07:53</time>
      </trkpt>
      <trkpt lat="41.55922" lon="1.60631">
        <ele>362.8</ele>
        <time>2022-05-20 22:07:54</time>
      </trkpt>
      <trkpt lat="41.55931" lon="1.60638">
        <ele>362.6</ele>
        <time>2022-05-20 22:07:55</time>
      </trkpt>
      <trkpt lat="41.55939" lon="1.60645">
        <ele>362.2</ele>
        <time>2022-05-20 22:07:56</time>
      </trkpt>
      <trkpt lat="41.55948" lon="1.60651">
        <ele>362.2</ele>
        <time>2022-05-20 22:07:57</time>
      </trkpt>
      <trkpt lat="41.55957" lon="1.60658">
        <ele>362</ele>
        <time>2022-05-20 22:07:58</time>
      </trkpt>
      <trkpt lat="41.55965" lon="1.60665">
        <ele>362</ele>
        <time>2022-05-20 22:07:59</time>
      </trkpt>
      <trkpt lat="41.55973" lon="1.60673">
        <ele>362</ele>
        <time>2022-05-20 22:08:00</time>
      </trkpt>
      <trkpt lat="41.5598" lon="1.60681">
        <ele>362</ele>
        <time>2022-05-20 22:08:01</time>
      </trkpt>
      <trkpt lat="41.55987" lon="1.6069">
        <ele>362</ele>
        <time>2022-05-20 22:08:02</time>
      </trkpt>
      <trkpt lat="41.55994" lon="1.60699">
        <ele>362</ele>
        <time>2022-05-20 22:08:03</time>
      </trkpt>
      <trkpt lat="41.56" lon="1.60708">
        <ele>362</ele>
        <time>2022-05-20 22:08:04</time>
      </trkpt>
      <trkpt lat="41.56006" lon="1.60717">
        <ele>362</ele>
        <time>2022-05-20 22:08:05</time>
      </trkpt>
      <trkpt lat="41.56013" lon="1.60726">
        <ele>361.8</ele>
        <time>2022-05-20 22:08:06</time>
      </trkpt>
      <trkpt lat="41.5602" lon="1.60734">
        <ele>361.6</ele>
        <time>2022-05-20 22:08:07</time>
      </trkpt>
      <trkpt lat="41.56027" lon="1.60742">
        <ele>361.4</ele>
        <time>2022-05-20 22:08:08</time>
      </trkpt>
      <trkpt lat="41.56035" lon="1.6075">
        <ele>361.2</ele>
        <time>2022-05-20 22:08:09</time>
      </trkpt>
      <trkpt lat="41.56044" lon="1.60757">
        <ele>361</ele>
        <time>2022-05-20 22:08:10</time>
      </trkpt>
      <trkpt lat="41.56052" lon="1.60763">
        <ele>360.6</ele>
        <time>2022-05-20 22:08:11</time>
      </trkpt>
      <trkpt lat="41.56061" lon="1.60769">
        <ele>360.4</ele>
        <time>2022-05-20 22:08:12</time>
      </trkpt>
      <trkpt lat="41.5607" lon="1.60774">
        <ele>360</ele>
        <time>2022-05-20 22:08:13</time>
      </trkpt>
      <trkpt lat="41.56079" lon="1.60779">
        <ele>359.8</ele>
        <time>2022-05-20 22:08:14</time>
      </trkpt>
      <trkpt lat="41.56089" lon="1.60785">
        <ele>359.4</ele>
        <time>2022-05-20 22:08:15</time>
      </trkpt>
      <trkpt lat="41.56098" lon="1.6079">
        <ele>359.2</ele>
        <time>2022-05-20 22:08:16</time>
      </trkpt>
      <trkpt lat="41.56108" lon="1.60795">
        <ele>358.8</ele>
        <time>2022-05-20 22:08:17</time>
      </trkpt>
      <trkpt lat="41.56118" lon="1.608">
        <ele>358.6</ele>
        <time>2022-05-20 22:08:18</time>
      </trkpt>
      <trkpt lat="41.56127" lon="1.60805">
        <ele>358.2</ele>
        <time>2022-05-20 22:08:19</time>
      </trkpt>
      <trkpt lat="41.56136" lon="1.6081">
        <ele>358</ele>
        <time>2022-05-20 22:08:20</time>
      </trkpt>
      <trkpt lat="41.56146" lon="1.60815">
        <ele>357.8</ele>
        <time>2022-05-20 22:08:21</time>
      </trkpt>
      <trkpt lat="41.56155" lon="1.6082">
        <ele>357.4</ele>
        <time>2022-05-20 22:08:22</time>
      </trkpt>
      <trkpt lat="41.56165" lon="1.60825">
        <ele>357.2</ele>
        <time>2022-05-20 22:08:23</time>
      </trkpt>
      <trkpt lat="41.56174" lon="1.60831">
        <ele>357</ele>
        <time>2022-05-20 22:08:24</time>
      </trkpt>
      <trkpt lat="41.56184" lon="1.60836">
        <ele>356.8</ele>
        <time>2022-05-20 22:08:25</time>
      </trkpt>
      <trkpt lat="41.56193" lon="1.60842">
        <ele>356.4</ele>
        <time>2022-05-20 22:08:26</time>
      </trkpt>
      <trkpt lat="41.56202" lon="1.60847">
        <ele>356.2</ele>
        <time>2022-05-20 22:08:27</time>
      </trkpt>
      <trkpt lat="41.56212" lon="1.60852">
        <ele>355.8</ele>
        <time>2022-05-20 22:08:28</time>
      </trkpt>
      <trkpt lat="41.56221" lon="1.60856">
        <ele>355.4</ele>
        <time>2022-05-20 22:08:29</time>
      </trkpt>
      <trkpt lat="41.5623" lon="1.6086">
        <ele>355.2</ele>
        <time>2022-05-20 22:08:30</time>
      </trkpt>
      <trkpt lat="41.56241" lon="1.60867">
        <ele>355</ele>
        <time>2022-05-20 22:08:31</time>
      </trkpt>
      <trkpt lat="41.5625" lon="1.60872">
        <ele>354.8</ele>
        <time>2022-05-20 22:08:32</time>
      </trkpt>
      <trkpt lat="41.5626" lon="1.60877">
        <ele>354.6</ele>
        <time>2022-05-20 22:08:33</time>
      </trkpt>
      <trkpt lat="41.5627" lon="1.60881">
        <ele>354.4</ele>
        <time>2022-05-20 22:08:34</time>
      </trkpt>
      <trkpt lat="41.56279" lon="1.60886">
        <ele>354.2</ele>
        <time>2022-05-20 22:08:35</time>
      </trkpt>
      <trkpt lat="41.56288" lon="1.60891">
        <ele>354</ele>
        <time>2022-05-20 22:08:36</time>
      </trkpt>
      <trkpt lat="41.56297" lon="1.60897">
        <ele>353.8</ele>
        <time>2022-05-20 22:08:37</time>
      </trkpt>
      <trkpt lat="41.56306" lon="1.60903">
        <ele>353.6</ele>
        <time>2022-05-20 22:08:38</time>
      </trkpt>
      <trkpt lat="41.56316" lon="1.60908">
        <ele>353.4</ele>
        <time>2022-05-20 22:08:39</time>
      </trkpt>
      <trkpt lat="41.56325" lon="1.60913">
        <ele>353.2</ele>
        <time>2022-05-20 22:08:40</time>
      </trkpt>
      <trkpt lat="41.56334" lon="1.60917">
        <ele>353</ele>
        <time>2022-05-20 22:08:41</time>
      </trkpt>
      <trkpt lat="41.56344" lon="1.60922">
        <ele>352.8</ele>
        <time>2022-05-20 22:08:42</time>
      </trkpt>
      <trkpt lat="41.56353" lon="1.60927">
        <ele>352.4</ele>
        <time>2022-05-20 22:08:43</time>
      </trkpt>
      <trkpt lat="41.56362" lon="1.60932">
        <ele>352.2</ele>
        <time>2022-05-20 22:08:44</time>
      </trkpt>
      <trkpt lat="41.56372" lon="1.60937">
        <ele>352.2</ele>
        <time>2022-05-20 22:08:45</time>
      </trkpt>
      <trkpt lat="41.56382" lon="1.60942">
        <ele>352</ele>
        <time>2022-05-20 22:08:46</time>
      </trkpt>
      <trkpt lat="41.56392" lon="1.60947">
        <ele>351.6</ele>
        <time>2022-05-20 22:08:47</time>
      </trkpt>
      <trkpt lat="41.56401" lon="1.6095">
        <ele>351.6</ele>
        <time>2022-05-20 22:08:48</time>
      </trkpt>
      <trkpt lat="41.56411" lon="1.60952">
        <ele>351.4</ele>
        <time>2022-05-20 22:08:49</time>
      </trkpt>
      <trkpt lat="41.56422" lon="1.60953">
        <ele>351</ele>
        <time>2022-05-20 22:08:50</time>
      </trkpt>
      <trkpt lat="41.56431" lon="1.60952">
        <ele>350.8</ele>
        <time>2022-05-20 22:08:51</time>
      </trkpt>
      <trkpt lat="41.56441" lon="1.6095">
        <ele>350.8</ele>
        <time>2022-05-20 22:08:52</time>
      </trkpt>
      <trkpt lat="41.56451" lon="1.60948">
        <ele>350.6</ele>
        <time>2022-05-20 22:08:53</time>
      </trkpt>
      <trkpt lat="41.56461" lon="1.60945">
        <ele>350.2</ele>
        <time>2022-05-20 22:08:54</time>
      </trkpt>
      <trkpt lat="41.5647" lon="1.60942">
        <ele>350</ele>
        <time>2022-05-20 22:08:55</time>
      </trkpt>
      <trkpt lat="41.5648" lon="1.60939">
        <ele>349.6</ele>
        <time>2022-05-20 22:08:56</time>
      </trkpt>
      <trkpt lat="41.56489" lon="1.60936">
        <ele>349.2</ele>
        <time>2022-05-20 22:08:57</time>
      </trkpt>
      <trkpt lat="41.56499" lon="1.60934">
        <ele>348.8</ele>
        <time>2022-05-20 22:08:58</time>
      </trkpt>
      <trkpt lat="41.56509" lon="1.60932">
        <ele>348.4</ele>
        <time>2022-05-20 22:08:59</time>
      </trkpt>
      <trkpt lat="41.5652" lon="1.60931">
        <ele>348</ele>
        <time>2022-05-20 22:09:00</time>
      </trkpt>
      <trkpt lat="41.56531" lon="1.60931">
        <ele>347.6</ele>
        <time>2022-05-20 22:09:01</time>
      </trkpt>
      <trkpt lat="41.56541" lon="1.60933">
        <ele>347</ele>
        <time>2022-05-20 22:09:02</time>
      </trkpt>
      <trkpt lat="41.56552" lon="1.60935">
        <ele>346.6</ele>
        <time>2022-05-20 22:09:03</time>
      </trkpt>
      <trkpt lat="41.56563" lon="1.60937">
        <ele>346.2</ele>
        <time>2022-05-20 22:09:04</time>
      </trkpt>
      <trkpt lat="41.56573" lon="1.60941">
        <ele>345.6</ele>
        <time>2022-05-20 22:09:05</time>
      </trkpt>
      <trkpt lat="41.56583" lon="1.60946">
        <ele>345.2</ele>
        <time>2022-05-20 22:09:06</time>
      </trkpt>
      <trkpt lat="41.56591" lon="1.60951">
        <ele>344.8</ele>
        <time>2022-05-20 22:09:07</time>
      </trkpt>
      <trkpt lat="41.566" lon="1.60952">
        <ele>344.6</ele>
        <time>2022-05-20 22:09:08</time>
      </trkpt>
      <trkpt lat="41.56608" lon="1.60949">
        <ele>344.2</ele>
        <time>2022-05-20 22:09:09</time>
      </trkpt>
      <trkpt lat="41.56615" lon="1.60945">
        <ele>344</ele>
        <time>2022-05-20 22:09:10</time>
      </trkpt>
      <trkpt lat="41.56623" lon="1.60939">
        <ele>343.6</ele>
        <time>2022-05-20 22:09:11</time>
      </trkpt>
      <trkpt lat="41.56632" lon="1.60934">
        <ele>343.4</ele>
        <time>2022-05-20 22:09:12</time>
      </trkpt>
      <trkpt lat="41.56641" lon="1.6093">
        <ele>343</ele>
        <time>2022-05-20 22:09:13</time>
      </trkpt>
      <trkpt lat="41.56651" lon="1.60926">
        <ele>342.6</ele>
        <time>2022-05-20 22:09:14</time>
      </trkpt>
      <trkpt lat="41.56661" lon="1.60924">
        <ele>342</ele>
        <time>2022-05-20 22:09:15</time>
      </trkpt>
      <trkpt lat="41.56672" lon="1.60921">
        <ele>341.4</ele>
        <time>2022-05-20 22:09:16</time>
      </trkpt>
      <trkpt lat="41.56682" lon="1.6092">
        <ele>340.8</ele>
        <time>2022-05-20 22:09:17</time>
      </trkpt>
      <trkpt lat="41.56694" lon="1.60919">
        <ele>340.2</ele>
        <time>2022-05-20 22:09:18</time>
      </trkpt>
      <trkpt lat="41.56706" lon="1.60918">
        <ele>339.4</ele>
        <time>2022-05-20 22:09:19</time>
      </trkpt>
      <trkpt lat="41.56717" lon="1.60917">
        <ele>338.8</ele>
        <time>2022-05-20 22:09:20</time>
      </trkpt>
      <trkpt lat="41.56728" lon="1.60917">
        <ele>338</ele>
        <time>2022-05-20 22:09:21</time>
      </trkpt>
      <trkpt lat="41.56739" lon="1.60918">
        <ele>337.2</ele>
        <time>2022-05-20 22:09:22</time>
      </trkpt>
      <trkpt lat="41.56751" lon="1.60921">
        <ele>336.6</ele>
        <time>2022-05-20 22:09:23</time>
      </trkpt>
      <trkpt lat="41.56762" lon="1.60923">
        <ele>336</ele>
        <time>2022-05-20 22:09:24</time>
      </trkpt>
      <trkpt lat="41.56773" lon="1.60925">
        <ele>335.6</ele>
        <time>2022-05-20 22:09:25</time>
      </trkpt>
      <trkpt lat="41.56783" lon="1.60926">
        <ele>335.2</ele>
        <time>2022-05-20 22:09:26</time>
      </trkpt>
      <trkpt lat="41.56793" lon="1.6093">
        <ele>334.6</ele>
        <time>2022-05-20 22:09:27</time>
      </trkpt>
      <trkpt lat="41.56802" lon="1.60938">
        <ele>334.4</ele>
        <time>2022-05-20 22:09:28</time>
      </trkpt>
      <trkpt lat="41.5681" lon="1.60947">
        <ele>334</ele>
        <time>2022-05-20 22:09:29</time>
      </trkpt>
      <trkpt lat="41.5682" lon="1.60952">
        <ele>333.6</ele>
        <time>2022-05-20 22:09:30</time>
      </trkpt>
      <trkpt lat="41.56829" lon="1.60953">
        <ele>333.2</ele>
        <time>2022-05-20 22:09:31</time>
      </trkpt>
      <trkpt lat="41.56838" lon="1.60951">
        <ele>332.8</ele>
        <time>2022-05-20 22:09:32</time>
      </trkpt>
      <trkpt lat="41.56847" lon="1.60945">
        <ele>332.4</ele>
        <time>2022-05-20 22:09:33</time>
      </trkpt>
      <trkpt lat="41.56856" lon="1.60938">
        <ele>332.2</ele>
        <time>2022-05-20 22:09:34</time>
      </trkpt>
      <trkpt lat="41.56864" lon="1.60929">
        <ele>331.8</ele>
        <time>2022-05-20 22:09:35</time>
      </trkpt>
      <trkpt lat="41.56871" lon="1.60921">
        <ele>331.6</ele>
        <time>2022-05-20 22:09:36</time>
      </trkpt>
      <trkpt lat="41.5688" lon="1.60916">
        <ele>331.4</ele>
        <time>2022-05-20 22:09:37</time>
      </trkpt>
      <trkpt lat="41.5689" lon="1.60914">
        <ele>331.2</ele>
        <time>2022-05-20 22:09:38</time>
      </trkpt>
      <trkpt lat="41.56899" lon="1.60917">
        <ele>330.8</ele>
        <time>2022-05-20 22:09:39</time>
      </trkpt>
      <trkpt lat="41.56907" lon="1.60924">
        <ele>330.6</ele>
        <time>2022-05-20 22:09:40</time>
      </trkpt>
      <trkpt lat="41.56915" lon="1.60933">
        <ele>330.2</ele>
        <time>2022-05-20 22:09:41</time>
      </trkpt>
      <trkpt lat="41.56923" lon="1.60941">
        <ele>329.8</ele>
        <time>2022-05-20 22:09:42</time>
      </trkpt>
      <trkpt lat="41.56931" lon="1.60948">
        <ele>329.4</ele>
        <time>2022-05-20 22:09:43</time>
      </trkpt>
      <trkpt lat="41.56941" lon="1.60955">
        <ele>328.8</ele>
        <time>2022-05-20 22:09:44</time>
      </trkpt>
      <trkpt lat="41.56951" lon="1.6096">
        <ele>328.4</ele>
        <time>2022-05-20 22:09:45</time>
      </trkpt>
      <trkpt lat="41.5696" lon="1.60966">
        <ele>327.8</ele>
        <time>2022-05-20 22:09:46</time>
      </trkpt>
      <trkpt lat="41.56971" lon="1.6097">
        <ele>327.2</ele>
        <time>2022-05-20 22:09:47</time>
      </trkpt>
      <trkpt lat="41.56981" lon="1.60973">
        <ele>326.6</ele>
        <time>2022-05-20 22:09:48</time>
      </trkpt>
      <trkpt lat="41.56993" lon="1.60974">
        <ele>326.2</ele>
        <time>2022-05-20 22:09:49</time>
      </trkpt>
      <trkpt lat="41.57004" lon="1.60973">
        <ele>325.6</ele>
        <time>2022-05-20 22:09:50</time>
      </trkpt>
      <trkpt lat="41.57014" lon="1.60971">
        <ele>325.2</ele>
        <time>2022-05-20 22:09:51</time>
      </trkpt>
      <trkpt lat="41.57024" lon="1.60969">
        <ele>324.6</ele>
        <time>2022-05-20 22:09:52</time>
      </trkpt>
      <trkpt lat="41.57035" lon="1.60965">
        <ele>324</ele>
        <time>2022-05-20 22:09:53</time>
      </trkpt>
      <trkpt lat="41.57046" lon="1.60962">
        <ele>323.4</ele>
        <time>2022-05-20 22:09:54</time>
      </trkpt>
      <trkpt lat="41.57056" lon="1.60958">
        <ele>322.8</ele>
        <time>2022-05-20 22:09:55</time>
      </trkpt>
      <trkpt lat="41.57067" lon="1.60954">
        <ele>322.2</ele>
        <time>2022-05-20 22:09:56</time>
      </trkpt>
      <trkpt lat="41.57079" lon="1.6095">
        <ele>321.6</ele>
        <time>2022-05-20 22:09:57</time>
      </trkpt>
      <trkpt lat="41.57089" lon="1.60946">
        <ele>321.2</ele>
        <time>2022-05-20 22:09:58</time>
      </trkpt>
      <trkpt lat="41.571" lon="1.60943">
        <ele>320.6</ele>
        <time>2022-05-20 22:09:59</time>
      </trkpt>
      <trkpt lat="41.5711" lon="1.60939">
        <ele>320</ele>
        <time>2022-05-20 22:10:00</time>
      </trkpt>
      <trkpt lat="41.5712" lon="1.60937">
        <ele>319.6</ele>
        <time>2022-05-20 22:10:01</time>
      </trkpt>
      <trkpt lat="41.57129" lon="1.60934">
        <ele>319.2</ele>
        <time>2022-05-20 22:10:02</time>
      </trkpt>
      <trkpt lat="41.57138" lon="1.60932">
        <ele>318.8</ele>
        <time>2022-05-20 22:10:03</time>
      </trkpt>
      <trkpt lat="41.57149" lon="1.60929">
        <ele>318.4</ele>
        <time>2022-05-20 22:10:04</time>
      </trkpt>
      <trkpt lat="41.57159" lon="1.60926">
        <ele>318.2</ele>
        <time>2022-05-20 22:10:05</time>
      </trkpt>
      <trkpt lat="41.57168" lon="1.60923">
        <ele>317.8</ele>
        <time>2022-05-20 22:10:06</time>
      </trkpt>
      <trkpt lat="41.57177" lon="1.60921">
        <ele>317.2</ele>
        <time>2022-05-20 22:10:07</time>
      </trkpt>
      <trkpt lat="41.57189" lon="1.6092">
        <ele>316.8</ele>
        <time>2022-05-20 22:10:08</time>
      </trkpt>
      <trkpt lat="41.57199" lon="1.60918">
        <ele>316.4</ele>
        <time>2022-05-20 22:10:09</time>
      </trkpt>
      <trkpt lat="41.57209" lon="1.60915">
        <ele>316</ele>
        <time>2022-05-20 22:10:10</time>
      </trkpt>
      <trkpt lat="41.57218" lon="1.60912">
        <ele>315.6</ele>
        <time>2022-05-20 22:10:11</time>
      </trkpt>
      <trkpt lat="41.57227" lon="1.60909">
        <ele>315.4</ele>
        <time>2022-05-20 22:10:12</time>
      </trkpt>
      <trkpt lat="41.57236" lon="1.60907">
        <ele>314.8</ele>
        <time>2022-05-20 22:10:13</time>
      </trkpt>
      <trkpt lat="41.57245" lon="1.60905">
        <ele>314.4</ele>
        <time>2022-05-20 22:10:14</time>
      </trkpt>
      <trkpt lat="41.57254" lon="1.60902">
        <ele>314</ele>
        <time>2022-05-20 22:10:15</time>
      </trkpt>
      <trkpt lat="41.57262" lon="1.609">
        <ele>313.6</ele>
        <time>2022-05-20 22:10:16</time>
      </trkpt>
      <trkpt lat="41.57271" lon="1.60897">
        <ele>313.2</ele>
        <time>2022-05-20 22:10:17</time>
      </trkpt>
      <trkpt lat="41.57279" lon="1.60894">
        <ele>312.8</ele>
        <time>2022-05-20 22:10:18</time>
      </trkpt>
      <trkpt lat="41.57286" lon="1.60891">
        <ele>312.4</ele>
        <time>2022-05-20 22:10:19</time>
      </trkpt>
      <trkpt lat="41.57293" lon="1.60889">
        <ele>312.2</ele>
        <time>2022-05-20 22:10:20</time>
      </trkpt>
      <trkpt lat="41.573" lon="1.60887">
        <ele>311.8</ele>
        <time>2022-05-20 22:10:21</time>
      </trkpt>
      <trkpt lat="41.57307" lon="1.60886">
        <ele>311.6</ele>
        <time>2022-05-20 22:10:22</time>
      </trkpt>
      <trkpt lat="41.57313" lon="1.60884">
        <ele>311.2</ele>
        <time>2022-05-20 22:10:23</time>
      </trkpt>
      <trkpt lat="41.57318" lon="1.60882">
        <ele>311</ele>
        <time>2022-05-20 22:10:24</time>
      </trkpt>
      <trkpt lat="41.57324" lon="1.60881">
        <ele>310.8</ele>
        <time>2022-05-20 22:10:25</time>
      </trkpt>
      <trkpt lat="41.5733" lon="1.60879">
        <ele>310.4</ele>
        <time>2022-05-20 22:10:26</time>
      </trkpt>
      <trkpt lat="41.57335" lon="1.60876">
        <ele>310.2</ele>
        <time>2022-05-20 22:10:27</time>
      </trkpt>
      <trkpt lat="41.57339" lon="1.60874">
        <ele>310</ele>
        <time>2022-05-20 22:10:28</time>
      </trkpt>
      <trkpt lat="41.57344" lon="1.60872">
        <ele>309.6</ele>
        <time>2022-05-20 22:10:29</time>
      </trkpt>
      <trkpt lat="41.57349" lon="1.6087">
        <ele>309.4</ele>
        <time>2022-05-20 22:10:30</time>
      </trkpt>
      <trkpt lat="41.57353" lon="1.60868">
        <ele>309.2</ele>
        <time>2022-05-20 22:10:31</time>
      </trkpt>
      <trkpt lat="41.57358" lon="1.60866">
        <ele>309</ele>
        <time>2022-05-20 22:10:32</time>
      </trkpt>
      <trkpt lat="41.57364" lon="1.60865">
        <ele>308.6</ele>
        <time>2022-05-20 22:10:33</time>
      </trkpt>
      <trkpt lat="41.57369" lon="1.60864">
        <ele>308.4</ele>
        <time>2022-05-20 22:10:34</time>
      </trkpt>
      <trkpt lat="41.57376" lon="1.60862">
        <ele>308</ele>
        <time>2022-05-20 22:10:35</time>
      </trkpt>
      <trkpt lat="41.57382" lon="1.6086">
        <ele>307.6</ele>
        <time>2022-05-20 22:10:36</time>
      </trkpt>
      <trkpt lat="41.57389" lon="1.60858">
        <ele>307.4</ele>
        <time>2022-05-20 22:10:37</time>
      </trkpt>
      <trkpt lat="41.57397" lon="1.60856">
        <ele>307</ele>
        <time>2022-05-20 22:10:38</time>
      </trkpt>
      <trkpt lat="41.57404" lon="1.60854">
        <ele>306.6</ele>
        <time>2022-05-20 22:10:39</time>
      </trkpt>
      <trkpt lat="41.57413" lon="1.60851">
        <ele>306.2</ele>
        <time>2022-05-20 22:10:40</time>
      </trkpt>
      <trkpt lat="41.57421" lon="1.60849">
        <ele>305.8</ele>
        <time>2022-05-20 22:10:41</time>
      </trkpt>
      <trkpt lat="41.57429" lon="1.60846">
        <ele>305.2</ele>
        <time>2022-05-20 22:10:42</time>
      </trkpt>
      <trkpt lat="41.57437" lon="1.60844">
        <ele>304.8</ele>
        <time>2022-05-20 22:10:43</time>
      </trkpt>
      <trkpt lat="41.57445" lon="1.60841">
        <ele>304.4</ele>
        <time>2022-05-20 22:10:44</time>
      </trkpt>
      <trkpt lat="41.57454" lon="1.60838">
        <ele>304</ele>
        <time>2022-05-20 22:10:45</time>
      </trkpt>
      <trkpt lat="41.57462" lon="1.60836">
        <ele>303.4</ele>
        <time>2022-05-20 22:10:46</time>
      </trkpt>
      <trkpt lat="41.57471" lon="1.60833">
        <ele>303</ele>
        <time>2022-05-20 22:10:47</time>
      </trkpt>
      <trkpt lat="41.57479" lon="1.60831">
        <ele>302.6</ele>
        <time>2022-05-20 22:10:48</time>
      </trkpt>
      <trkpt lat="41.57487" lon="1.60828">
        <ele>302.2</ele>
        <time>2022-05-20 22:10:49</time>
      </trkpt>
      <trkpt lat="41.57495" lon="1.60826">
        <ele>301.8</ele>
        <time>2022-05-20 22:10:50</time>
      </trkpt>
      <trkpt lat="41.57502" lon="1.60823">
        <ele>301.4</ele>
        <time>2022-05-20 22:10:51</time>
      </trkpt>
      <trkpt lat="41.57509" lon="1.60822">
        <ele>301.2</ele>
        <time>2022-05-20 22:10:52</time>
      </trkpt>
      <trkpt lat="41.57515" lon="1.6082">
        <ele>300.8</ele>
        <time>2022-05-20 22:10:53</time>
      </trkpt>
      <trkpt lat="41.57521" lon="1.60819">
        <ele>300.4</ele>
        <time>2022-05-20 22:10:54</time>
      </trkpt>
      <trkpt lat="41.57528" lon="1.60819">
        <ele>300</ele>
        <time>2022-05-20 22:10:55</time>
      </trkpt>
      <trkpt lat="41.57536" lon="1.60819">
        <ele>299.8</ele>
        <time>2022-05-20 22:10:56</time>
      </trkpt>
      <trkpt lat="41.57542" lon="1.60818">
        <ele>299.6</ele>
        <time>2022-05-20 22:10:57</time>
      </trkpt>
      <trkpt lat="41.57549" lon="1.60815">
        <ele>299.4</ele>
        <time>2022-05-20 22:10:58</time>
      </trkpt>
      <trkpt lat="41.57556" lon="1.60812">
        <ele>299.2</ele>
        <time>2022-05-20 22:10:59</time>
      </trkpt>
      <trkpt lat="41.57562" lon="1.60809">
        <ele>299</ele>
        <time>2022-05-20 22:11:00</time>
      </trkpt>
      <trkpt lat="41.57569" lon="1.60808">
        <ele>299</ele>
        <time>2022-05-20 22:11:01</time>
      </trkpt>
      <trkpt lat="41.57576" lon="1.60808">
        <ele>299</ele>
        <time>2022-05-20 22:11:02</time>
      </trkpt>
      <trkpt lat="41.57582" lon="1.60808">
        <ele>299</ele>
        <time>2022-05-20 22:11:03</time>
      </trkpt>
      <trkpt lat="41.57589" lon="1.60809">
        <ele>299</ele>
        <time>2022-05-20 22:11:04</time>
      </trkpt>
      <trkpt lat="41.57595" lon="1.60809">
        <ele>299</ele>
        <time>2022-05-20 22:11:05</time>
      </trkpt>
      <trkpt lat="41.57601" lon="1.6081">
        <ele>299</ele>
        <time>2022-05-20 22:11:06</time>
      </trkpt>
      <trkpt lat="41.57607" lon="1.6081">
        <ele>299</ele>
        <time>2022-05-20 22:11:07</time>
      </trkpt>
      <trkpt lat="41.57612" lon="1.60811">
        <ele>299.2</ele>
        <time>2022-05-20 22:11:08</time>
      </trkpt>
      <trkpt lat="41.57617" lon="1.60812">
        <ele>299.2</ele>
        <time>2022-05-20 22:11:09</time>
      </trkpt>
      <trkpt lat="41.57623" lon="1.60812">
        <ele>299.2</ele>
        <time>2022-05-20 22:11:10</time>
      </trkpt>
      <trkpt lat="41.57629" lon="1.60812">
        <ele>299.4</ele>
        <time>2022-05-20 22:11:11</time>
      </trkpt>
      <trkpt lat="41.57634" lon="1.60812">
        <ele>299.6</ele>
        <time>2022-05-20 22:11:12</time>
      </trkpt>
      <trkpt lat="41.57639" lon="1.60811">
        <ele>299.8</ele>
        <time>2022-05-20 22:11:13</time>
      </trkpt>
      <trkpt lat="41.57643" lon="1.60811">
        <ele>299.8</ele>
        <time>2022-05-20 22:11:14</time>
      </trkpt>
      <trkpt lat="41.57647" lon="1.6081">
        <ele>300</ele>
        <time>2022-05-20 22:11:15</time>
      </trkpt>
      <trkpt lat="41.57652" lon="1.60808">
        <ele>300.2</ele>
        <time>2022-05-20 22:11:16</time>
      </trkpt>
      <trkpt lat="41.57656" lon="1.60807">
        <ele>300.4</ele>
        <time>2022-05-20 22:11:17</time>
      </trkpt>
      <trkpt lat="41.57659" lon="1.60806">
        <ele>300.4</ele>
        <time>2022-05-20 22:11:18</time>
      </trkpt>
      <trkpt lat="41.57661" lon="1.60805">
        <ele>300.6</ele>
        <time>2022-05-20 22:11:19</time>
      </trkpt>
      <trkpt lat="41.57664" lon="1.60804">
        <ele>300.6</ele>
        <time>2022-05-20 22:11:20</time>
      </trkpt>
      <trkpt lat="41.57666" lon="1.60802">
        <ele>300.6</ele>
        <time>2022-05-20 22:11:21</time>
      </trkpt>
      <trkpt lat="41.57671" lon="1.60798">
        <ele>300.6</ele>
        <time>2022-05-20 22:11:22</time>
      </trkpt>
      <trkpt lat="41.57675" lon="1.60796">
        <ele>300.6</ele>
        <time>2022-05-20 22:11:23</time>
      </trkpt>
      <trkpt lat="41.5768" lon="1.60794">
        <ele>300.6</ele>
        <time>2022-05-20 22:11:24</time>
      </trkpt>
      <trkpt lat="41.57686" lon="1.60791">
        <ele>300.6</ele>
        <time>2022-05-20 22:11:25</time>
      </trkpt>
      <trkpt lat="41.57692" lon="1.60789">
        <ele>300.8</ele>
        <time>2022-05-20 22:11:26</time>
      </trkpt>
      <trkpt lat="41.57698" lon="1.60787">
        <ele>300.8</ele>
        <time>2022-05-20 22:11:27</time>
      </trkpt>
      <trkpt lat="41.57704" lon="1.60785">
        <ele>300.8</ele>
        <time>2022-05-20 22:11:28</time>
      </trkpt>
      <trkpt lat="41.5771" lon="1.60782">
        <ele>300.8</ele>
        <time>2022-05-20 22:11:29</time>
      </trkpt>
      <trkpt lat="41.57715" lon="1.60779">
        <ele>300.8</ele>
        <time>2022-05-20 22:11:30</time>
      </trkpt>
      <trkpt lat="41.57721" lon="1.60776">
        <ele>300.8</ele>
        <time>2022-05-20 22:11:31</time>
      </trkpt>
      <trkpt lat="41.57726" lon="1.60772">
        <ele>301</ele>
        <time>2022-05-20 22:11:32</time>
      </trkpt>
      <trkpt lat="41.57731" lon="1.60769">
        <ele>301</ele>
        <time>2022-05-20 22:11:33</time>
      </trkpt>
      <trkpt lat="41.57736" lon="1.60766">
        <ele>301</ele>
        <time>2022-05-20 22:11:34</time>
      </trkpt>
      <trkpt lat="41.57741" lon="1.60762">
        <ele>301</ele>
        <time>2022-05-20 22:11:35</time>
      </trkpt>
      <trkpt lat="41.57747" lon="1.6076">
        <ele>301</ele>
        <time>2022-05-20 22:11:36</time>
      </trkpt>
      <trkpt lat="41.57753" lon="1.60757">
        <ele>301</ele>
        <time>2022-05-20 22:11:37</time>
      </trkpt>
      <trkpt lat="41.57759" lon="1.60755">
        <ele>301.2</ele>
        <time>2022-05-20 22:11:38</time>
      </trkpt>
      <trkpt lat="41.57764" lon="1.60752">
        <ele>301.2</ele>
        <time>2022-05-20 22:11:39</time>
      </trkpt>
      <trkpt lat="41.5777" lon="1.60749">
        <ele>301.4</ele>
        <time>2022-05-20 22:11:40</time>
      </trkpt>
      <trkpt lat="41.57775" lon="1.60746">
        <ele>301.4</ele>
        <time>2022-05-20 22:11:41</time>
      </trkpt>
      <trkpt lat="41.57781" lon="1.60743">
        <ele>301.6</ele>
        <time>2022-05-20 22:11:42</time>
      </trkpt>
      <trkpt lat="41.57787" lon="1.6074">
        <ele>301.6</ele>
        <time>2022-05-20 22:11:43</time>
      </trkpt>
      <trkpt lat="41.57793" lon="1.60737">
        <ele>301.6</ele>
        <time>2022-05-20 22:11:44</time>
      </trkpt>
      <trkpt lat="41.57798" lon="1.60734">
        <ele>301.6</ele>
        <time>2022-05-20 22:11:45</time>
      </trkpt>
      <trkpt lat="41.57804" lon="1.60732">
        <ele>301.8</ele>
        <time>2022-05-20 22:11:46</time>
      </trkpt>
      <trkpt lat="41.57811" lon="1.60729">
        <ele>301.8</ele>
        <time>2022-05-20 22:11:47</time>
      </trkpt>
      <trkpt lat="41.57816" lon="1.60727">
        <ele>302</ele>
        <time>2022-05-20 22:11:48</time>
      </trkpt>
      <trkpt lat="41.57821" lon="1.60725">
        <ele>302</ele>
        <time>2022-05-20 22:11:49</time>
      </trkpt>
      <trkpt lat="41.57827" lon="1.60725">
        <ele>302</ele>
        <time>2022-05-20 22:11:50</time>
      </trkpt>
      <trkpt lat="41.57832" lon="1.60726">
        <ele>302.2</ele>
        <time>2022-05-20 22:11:51</time>
      </trkpt>
      <trkpt lat="41.57839" lon="1.60727">
        <ele>302.4</ele>
        <time>2022-05-20 22:11:52</time>
      </trkpt>
      <trkpt lat="41.57845" lon="1.60728">
        <ele>302.6</ele>
        <time>2022-05-20 22:11:53</time>
      </trkpt>
      <trkpt lat="41.57851" lon="1.6073">
        <ele>303</ele>
        <time>2022-05-20 22:11:54</time>
      </trkpt>
      <trkpt lat="41.57856" lon="1.60732">
        <ele>303.2</ele>
        <time>2022-05-20 22:11:55</time>
      </trkpt>
      <trkpt lat="41.5786" lon="1.60736">
        <ele>303.4</ele>
        <time>2022-05-20 22:11:56</time>
      </trkpt>
      <trkpt lat="41.57864" lon="1.60741">
        <ele>303.6</ele>
        <time>2022-05-20 22:11:57</time>
      </trkpt>
      <trkpt lat="41.57869" lon="1.60745">
        <ele>303.8</ele>
        <time>2022-05-20 22:11:58</time>
      </trkpt>
      <trkpt lat="41.57873" lon="1.60749">
        <ele>303.8</ele>
        <time>2022-05-20 22:11:59</time>
      </trkpt>
      <trkpt lat="41.57878" lon="1.60753">
        <ele>304</ele>
        <time>2022-05-20 22:12:00</time>
      </trkpt>
      <trkpt lat="41.57882" lon="1.60758">
        <ele>304.2</ele>
        <time>2022-05-20 22:12:01</time>
      </trkpt>
      <trkpt lat="41.57886" lon="1.60762">
        <ele>304.2</ele>
        <time>2022-05-20 22:12:02</time>
      </trkpt>
      <trkpt lat="41.5789" lon="1.60767">
        <ele>304.2</ele>
        <time>2022-05-20 22:12:03</time>
      </trkpt>
      <trkpt lat="41.57894" lon="1.60772">
        <ele>304.2</ele>
        <time>2022-05-20 22:12:04</time>
      </trkpt>
      <trkpt lat="41.57899" lon="1.60778">
        <ele>304.2</ele>
        <time>2022-05-20 22:12:05</time>
      </trkpt>
      <trkpt lat="41.57903" lon="1.60783">
        <ele>304.2</ele>
        <time>2022-05-20 22:12:06</time>
      </trkpt>
      <trkpt lat="41.57907" lon="1.60788">
        <ele>304.2</ele>
        <time>2022-05-20 22:12:07</time>
      </trkpt>
      <trkpt lat="41.57912" lon="1.60794">
        <ele>304.2</ele>
        <time>2022-05-20 22:12:08</time>
      </trkpt>
      <trkpt lat="41.57917" lon="1.60799">
        <ele>304.2</ele>
        <time>2022-05-20 22:12:09</time>
      </trkpt>
      <trkpt lat="41.57921" lon="1.60804">
        <ele>304.2</ele>
        <time>2022-05-20 22:12:10</time>
      </trkpt>
      <trkpt lat="41.57926" lon="1.6081">
        <ele>304.2</ele>
        <time>2022-05-20 22:12:11</time>
      </trkpt>
      <trkpt lat="41.57931" lon="1.60815">
        <ele>304.2</ele>
        <time>2022-05-20 22:12:12</time>
      </trkpt>
      <trkpt lat="41.57935" lon="1.60821">
        <ele>304.2</ele>
        <time>2022-05-20 22:12:13</time>
      </trkpt>
      <trkpt lat="41.5794" lon="1.60826">
        <ele>304.2</ele>
        <time>2022-05-20 22:12:14</time>
      </trkpt>
      <trkpt lat="41.57946" lon="1.60831">
        <ele>304.2</ele>
        <time>2022-05-20 22:12:15</time>
      </trkpt>
      <trkpt lat="41.57951" lon="1.60836">
        <ele>304.2</ele>
        <time>2022-05-20 22:12:16</time>
      </trkpt>
      <trkpt lat="41.57955" lon="1.60841">
        <ele>304.2</ele>
        <time>2022-05-20 22:12:17</time>
      </trkpt>
      <trkpt lat="41.5796" lon="1.60846">
        <ele>304.2</ele>
        <time>2022-05-20 22:12:18</time>
      </trkpt>
      <trkpt lat="41.57964" lon="1.60852">
        <ele>304.2</ele>
        <time>2022-05-20 22:12:19</time>
      </trkpt>
      <trkpt lat="41.57969" lon="1.60857">
        <ele>304.2</ele>
        <time>2022-05-20 22:12:20</time>
      </trkpt>
      <trkpt lat="41.57973" lon="1.60861">
        <ele>304.2</ele>
        <time>2022-05-20 22:12:21</time>
      </trkpt>
      <trkpt lat="41.57978" lon="1.60863">
        <ele>304.2</ele>
        <time>2022-05-20 22:12:22</time>
      </trkpt>
      <trkpt lat="41.57983" lon="1.60863">
        <ele>304.2</ele>
        <time>2022-05-20 22:12:23</time>
      </trkpt>
      <trkpt lat="41.57988" lon="1.60862">
        <ele>304.4</ele>
        <time>2022-05-20 22:12:24</time>
      </trkpt>
      <trkpt lat="41.57993" lon="1.60859">
        <ele>304.6</ele>
        <time>2022-05-20 22:12:25</time>
      </trkpt>
      <trkpt lat="41.57998" lon="1.60856">
        <ele>304.8</ele>
        <time>2022-05-20 22:12:26</time>
      </trkpt>
      <trkpt lat="41.58001" lon="1.60854">
        <ele>305</ele>
        <time>2022-05-20 22:12:27</time>
      </trkpt>
      <trkpt lat="41.58006" lon="1.60851">
        <ele>305.2</ele>
        <time>2022-05-20 22:12:28</time>
      </trkpt>
      <trkpt lat="41.5801" lon="1.60849">
        <ele>305.4</ele>
        <time>2022-05-20 22:12:29</time>
      </trkpt>
      <trkpt lat="41.58013" lon="1.60848">
        <ele>305.6</ele>
        <time>2022-05-20 22:12:30</time>
      </trkpt>
      <trkpt lat="41.58017" lon="1.60847">
        <ele>306</ele>
        <time>2022-05-20 22:12:31</time>
      </trkpt>
      <trkpt lat="41.58021" lon="1.60846">
        <ele>306.2</ele>
        <time>2022-05-20 22:12:32</time>
      </trkpt>
      <trkpt lat="41.58024" lon="1.60846">
        <ele>306.4</ele>
        <time>2022-05-20 22:12:33</time>
      </trkpt>
      <trkpt lat="41.58028" lon="1.60846">
        <ele>306.8</ele>
        <time>2022-05-20 22:12:34</time>
      </trkpt>
      <trkpt lat="41.58033" lon="1.60846">
        <ele>307</ele>
        <time>2022-05-20 22:12:35</time>
      </trkpt>
      <trkpt lat="41.58036" lon="1.60846">
        <ele>307.2</ele>
        <time>2022-05-20 22:12:36</time>
      </trkpt>
      <trkpt lat="41.5804" lon="1.60846">
        <ele>307.6</ele>
        <time>2022-05-20 22:12:37</time>
      </trkpt>
      <trkpt lat="41.58044" lon="1.60848">
        <ele>307.8</ele>
        <time>2022-05-20 22:12:38</time>
      </trkpt>
      <trkpt lat="41.58049" lon="1.6085">
        <ele>308</ele>
        <time>2022-05-20 22:12:39</time>
      </trkpt>
      <trkpt lat="41.58053" lon="1.60852">
        <ele>308.2</ele>
        <time>2022-05-20 22:12:40</time>
      </trkpt>
      <trkpt lat="41.58057" lon="1.60853">
        <ele>308.6</ele>
        <time>2022-05-20 22:12:41</time>
      </trkpt>
      <trkpt lat="41.58061" lon="1.60854">
        <ele>308.8</ele>
        <time>2022-05-20 22:12:42</time>
      </trkpt>
      <trkpt lat="41.58065" lon="1.60856">
        <ele>309</ele>
        <time>2022-05-20 22:12:43</time>
      </trkpt>
      <trkpt lat="41.58069" lon="1.60859">
        <ele>309.2</ele>
        <time>2022-05-20 22:12:44</time>
      </trkpt>
      <trkpt lat="41.58073" lon="1.60861">
        <ele>309.4</ele>
        <time>2022-05-20 22:12:45</time>
      </trkpt>
      <trkpt lat="41.58078" lon="1.60862">
        <ele>309.6</ele>
        <time>2022-05-20 22:12:46</time>
      </trkpt>
      <trkpt lat="41.58083" lon="1.60864">
        <ele>309.6</ele>
        <time>2022-05-20 22:12:47</time>
      </trkpt>
      <trkpt lat="41.58086" lon="1.60865">
        <ele>309.8</ele>
        <time>2022-05-20 22:12:48</time>
      </trkpt>
      <trkpt lat="41.58091" lon="1.60866">
        <ele>309.8</ele>
        <time>2022-05-20 22:12:49</time>
      </trkpt>
      <trkpt lat="41.58095" lon="1.60867">
        <ele>309.8</ele>
        <time>2022-05-20 22:12:50</time>
      </trkpt>
      <trkpt lat="41.58099" lon="1.60868">
        <ele>310</ele>
        <time>2022-05-20 22:12:51</time>
      </trkpt>
      <trkpt lat="41.58103" lon="1.60869">
        <ele>310</ele>
        <time>2022-05-20 22:12:52</time>
      </trkpt>
      <trkpt lat="41.58107" lon="1.6087">
        <ele>310</ele>
        <time>2022-05-20 22:12:53</time>
      </trkpt>
      <trkpt lat="41.58111" lon="1.60871">
        <ele>310.2</ele>
        <time>2022-05-20 22:12:54</time>
      </trkpt>
      <trkpt lat="41.58116" lon="1.60873">
        <ele>310.4</ele>
        <time>2022-05-20 22:12:55</time>
      </trkpt>
      <trkpt lat="41.5812" lon="1.60874">
        <ele>310.4</ele>
        <time>2022-05-20 22:12:56</time>
      </trkpt>
      <trkpt lat="41.58123" lon="1.60875">
        <ele>310.6</ele>
        <time>2022-05-20 22:12:57</time>
      </trkpt>
      <trkpt lat="41.58127" lon="1.60877">
        <ele>310.8</ele>
        <time>2022-05-20 22:12:58</time>
      </trkpt>
      <trkpt lat="41.58131" lon="1.60878">
        <ele>310.8</ele>
        <time>2022-05-20 22:12:59</time>
      </trkpt>
      <trkpt lat="41.58136" lon="1.60879">
        <ele>311</ele>
        <time>2022-05-20 22:13:00</time>
      </trkpt>
      <trkpt lat="41.5814" lon="1.60881">
        <ele>311.2</ele>
        <time>2022-05-20 22:13:01</time>
      </trkpt>
      <trkpt lat="41.58145" lon="1.60882">
        <ele>311.4</ele>
        <time>2022-05-20 22:13:02</time>
      </trkpt>
      <trkpt lat="41.58149" lon="1.60883">
        <ele>311.6</ele>
        <time>2022-05-20 22:13:03</time>
      </trkpt>
      <trkpt lat="41.58154" lon="1.60884">
        <ele>311.6</ele>
        <time>2022-05-20 22:13:04</time>
      </trkpt>
      <trkpt lat="41.58158" lon="1.60886">
        <ele>311.8</ele>
        <time>2022-05-20 22:13:05</time>
      </trkpt>
      <trkpt lat="41.58163" lon="1.60888">
        <ele>312</ele>
        <time>2022-05-20 22:13:06</time>
      </trkpt>
      <trkpt lat="41.58168" lon="1.60889">
        <ele>312.2</ele>
        <time>2022-05-20 22:13:07</time>
      </trkpt>
      <trkpt lat="41.58175" lon="1.6089">
        <ele>312.4</ele>
        <time>2022-05-20 22:13:08</time>
      </trkpt>
      <trkpt lat="41.58182" lon="1.60891">
        <ele>312.6</ele>
        <time>2022-05-20 22:13:09</time>
      </trkpt>
      <trkpt lat="41.58188" lon="1.60892">
        <ele>312.6</ele>
        <time>2022-05-20 22:13:10</time>
      </trkpt>
      <trkpt lat="41.58194" lon="1.60893">
        <ele>312.8</ele>
        <time>2022-05-20 22:13:11</time>
      </trkpt>
      <trkpt lat="41.582" lon="1.60894">
        <ele>313</ele>
        <time>2022-05-20 22:13:12</time>
      </trkpt>
      <trkpt lat="41.58205" lon="1.60895">
        <ele>313.2</ele>
        <time>2022-05-20 22:13:13</time>
      </trkpt>
      <trkpt lat="41.5821" lon="1.60896">
        <ele>313.4</ele>
        <time>2022-05-20 22:13:14</time>
      </trkpt>
      <trkpt lat="41.58215" lon="1.60897">
        <ele>313.6</ele>
        <time>2022-05-20 22:13:15</time>
      </trkpt>
      <trkpt lat="41.58221" lon="1.60898">
        <ele>313.6</ele>
        <time>2022-05-20 22:13:16</time>
      </trkpt>
      <trkpt lat="41.58226" lon="1.60899">
        <ele>313.8</ele>
        <time>2022-05-20 22:13:17</time>
      </trkpt>
      <trkpt lat="41.58231" lon="1.60901">
        <ele>314</ele>
        <time>2022-05-20 22:13:18</time>
      </trkpt>
      <trkpt lat="41.58237" lon="1.60902">
        <ele>314</ele>
        <time>2022-05-20 22:13:19</time>
      </trkpt>
      <trkpt lat="41.58242" lon="1.60904">
        <ele>314.2</ele>
        <time>2022-05-20 22:13:20</time>
      </trkpt>
      <trkpt lat="41.58247" lon="1.60905">
        <ele>314.2</ele>
        <time>2022-05-20 22:13:21</time>
      </trkpt>
      <trkpt lat="41.58252" lon="1.60906">
        <ele>314.2</ele>
        <time>2022-05-20 22:13:22</time>
      </trkpt>
      <trkpt lat="41.58258" lon="1.60908">
        <ele>314.4</ele>
        <time>2022-05-20 22:13:23</time>
      </trkpt>
      <trkpt lat="41.58263" lon="1.6091">
        <ele>314.4</ele>
        <time>2022-05-20 22:13:24</time>
      </trkpt>
      <trkpt lat="41.58268" lon="1.60912">
        <ele>314.6</ele>
        <time>2022-05-20 22:13:25</time>
      </trkpt>
      <trkpt lat="41.58273" lon="1.60913">
        <ele>314.6</ele>
        <time>2022-05-20 22:13:26</time>
      </trkpt>
      <trkpt lat="41.58278" lon="1.60915">
        <ele>314.6</ele>
        <time>2022-05-20 22:13:27</time>
      </trkpt>
      <trkpt lat="41.58283" lon="1.60916">
        <ele>314.8</ele>
        <time>2022-05-20 22:13:28</time>
      </trkpt>
      <trkpt lat="41.58288" lon="1.60918">
        <ele>314.8</ele>
        <time>2022-05-20 22:13:29</time>
      </trkpt>
      <trkpt lat="41.58294" lon="1.6092">
        <ele>314.8</ele>
        <time>2022-05-20 22:13:30</time>
      </trkpt>
      <trkpt lat="41.58299" lon="1.60922">
        <ele>315</ele>
        <time>2022-05-20 22:13:31</time>
      </trkpt>
      <trkpt lat="41.58305" lon="1.60924">
        <ele>315</ele>
        <time>2022-05-20 22:13:32</time>
      </trkpt>
      <trkpt lat="41.5831" lon="1.60926">
        <ele>315</ele>
        <time>2022-05-20 22:13:33</time>
      </trkpt>
      <trkpt lat="41.58316" lon="1.60928">
        <ele>315.2</ele>
        <time>2022-05-20 22:13:34</time>
      </trkpt>
      <trkpt lat="41.58321" lon="1.6093">
        <ele>315.2</ele>
        <time>2022-05-20 22:13:35</time>
      </trkpt>
      <trkpt lat="41.58327" lon="1.60931">
        <ele>315.2</ele>
        <time>2022-05-20 22:13:36</time>
      </trkpt>
      <trkpt lat="41.58333" lon="1.60933">
        <ele>315.2</ele>
        <time>2022-05-20 22:13:37</time>
      </trkpt>
      <trkpt lat="41.58339" lon="1.60935">
        <ele>315.4</ele>
        <time>2022-05-20 22:13:38</time>
      </trkpt>
      <trkpt lat="41.58344" lon="1.60937">
        <ele>315.4</ele>
        <time>2022-05-20 22:13:39</time>
      </trkpt>
      <trkpt lat="41.58349" lon="1.60938">
        <ele>315.6</ele>
        <time>2022-05-20 22:13:40</time>
      </trkpt>
      <trkpt lat="41.58354" lon="1.6094">
        <ele>315.6</ele>
        <time>2022-05-20 22:13:41</time>
      </trkpt>
      <trkpt lat="41.58359" lon="1.60942">
        <ele>315.8</ele>
        <time>2022-05-20 22:13:42</time>
      </trkpt>
      <trkpt lat="41.58363" lon="1.60943">
        <ele>315.8</ele>
        <time>2022-05-20 22:13:43</time>
      </trkpt>
      <trkpt lat="41.58369" lon="1.60945">
        <ele>316</ele>
        <time>2022-05-20 22:13:44</time>
      </trkpt>
      <trkpt lat="41.58373" lon="1.60947">
        <ele>316</ele>
        <time>2022-05-20 22:13:45</time>
      </trkpt>
      <trkpt lat="41.58378" lon="1.60949">
        <ele>316.2</ele>
        <time>2022-05-20 22:13:46</time>
      </trkpt>
      <trkpt lat="41.58383" lon="1.6095">
        <ele>316.2</ele>
        <time>2022-05-20 22:13:47</time>
      </trkpt>
      <trkpt lat="41.58387" lon="1.60952">
        <ele>316.4</ele>
        <time>2022-05-20 22:13:48</time>
      </trkpt>
      <trkpt lat="41.58391" lon="1.60955">
        <ele>316.6</ele>
        <time>2022-05-20 22:13:49</time>
      </trkpt>
      <trkpt lat="41.58395" lon="1.60958">
        <ele>316.6</ele>
        <time>2022-05-20 22:13:50</time>
      </trkpt>
      <trkpt lat="41.58397" lon="1.60961">
        <ele>316.8</ele>
        <time>2022-05-20 22:13:51</time>
      </trkpt>
      <trkpt lat="41.58399" lon="1.60965">
        <ele>317</ele>
        <time>2022-05-20 22:13:52</time>
      </trkpt>
      <trkpt lat="41.58399" lon="1.6097">
        <ele>317</ele>
        <time>2022-05-20 22:13:53</time>
      </trkpt>
      <trkpt lat="41.584" lon="1.60977">
        <ele>317.2</ele>
        <time>2022-05-20 22:13:54</time>
      </trkpt>
      <trkpt lat="41.58401" lon="1.60982">
        <ele>317.2</ele>
        <time>2022-05-20 22:13:55</time>
      </trkpt>
      <trkpt lat="41.58401" lon="1.60991">
        <ele>317.4</ele>
        <time>2022-05-20 22:13:56</time>
      </trkpt>
      <trkpt lat="41.58402" lon="1.60998">
        <ele>317.4</ele>
        <time>2022-05-20 22:13:57</time>
      </trkpt>
      <trkpt lat="41.58403" lon="1.61005">
        <ele>317.4</ele>
        <time>2022-05-20 22:13:58</time>
      </trkpt>
      <trkpt lat="41.58404" lon="1.61011">
        <ele>317.4</ele>
        <time>2022-05-20 22:13:59</time>
      </trkpt>
      <trkpt lat="41.58404" lon="1.61019">
        <ele>317.6</ele>
        <time>2022-05-20 22:14:00</time>
      </trkpt>
      <trkpt lat="41.58404" lon="1.61026">
        <ele>317.6</ele>
        <time>2022-05-20 22:14:01</time>
      </trkpt>
      <trkpt lat="41.58404" lon="1.61033">
        <ele>317.6</ele>
        <time>2022-05-20 22:14:02</time>
      </trkpt>
      <trkpt lat="41.58404" lon="1.61039">
        <ele>317.6</ele>
        <time>2022-05-20 22:14:03</time>
      </trkpt>
      <trkpt lat="41.58403" lon="1.61046">
        <ele>317.6</ele>
        <time>2022-05-20 22:14:04</time>
      </trkpt>
      <trkpt lat="41.58403" lon="1.61053">
        <ele>317.8</ele>
        <time>2022-05-20 22:14:05</time>
      </trkpt>
      <trkpt lat="41.58403" lon="1.61061">
        <ele>317.8</ele>
        <time>2022-05-20 22:14:06</time>
      </trkpt>
      <trkpt lat="41.58402" lon="1.61068">
        <ele>317.6</ele>
        <time>2022-05-20 22:14:07</time>
      </trkpt>
      <trkpt lat="41.58402" lon="1.61075">
        <ele>317.8</ele>
        <time>2022-05-20 22:14:08</time>
      </trkpt>
      <trkpt lat="41.58403" lon="1.61082">
        <ele>317.8</ele>
        <time>2022-05-20 22:14:09</time>
      </trkpt>
      <trkpt lat="41.58402" lon="1.61089">
        <ele>317.8</ele>
        <time>2022-05-20 22:14:10</time>
      </trkpt>
      <trkpt lat="41.58401" lon="1.61097">
        <ele>317.8</ele>
        <time>2022-05-20 22:14:11</time>
      </trkpt>
      <trkpt lat="41.58401" lon="1.61104">
        <ele>317.8</ele>
        <time>2022-05-20 22:14:12</time>
      </trkpt>
      <trkpt lat="41.584" lon="1.61111">
        <ele>318</ele>
        <time>2022-05-20 22:14:13</time>
      </trkpt>
      <trkpt lat="41.58398" lon="1.61118">
        <ele>318</ele>
        <time>2022-05-20 22:14:14</time>
      </trkpt>
      <trkpt lat="41.58397" lon="1.61126">
        <ele>318</ele>
        <time>2022-05-20 22:14:15</time>
      </trkpt>
      <trkpt lat="41.58397" lon="1.61133">
        <ele>318</ele>
        <time>2022-05-20 22:14:16</time>
      </trkpt>
      <trkpt lat="41.58396" lon="1.6114">
        <ele>318.2</ele>
        <time>2022-05-20 22:14:17</time>
      </trkpt>
      <trkpt lat="41.58395" lon="1.61147">
        <ele>318.2</ele>
        <time>2022-05-20 22:14:18</time>
      </trkpt>
      <trkpt lat="41.58395" lon="1.61154">
        <ele>318.2</ele>
        <time>2022-05-20 22:14:19</time>
      </trkpt>
      <trkpt lat="41.58395" lon="1.61161">
        <ele>318.4</ele>
        <time>2022-05-20 22:14:20</time>
      </trkpt>
      <trkpt lat="41.58395" lon="1.61167">
        <ele>318.6</ele>
        <time>2022-05-20 22:14:21</time>
      </trkpt>
      <trkpt lat="41.58395" lon="1.61173">
        <ele>318.8</ele>
        <time>2022-05-20 22:14:22</time>
      </trkpt>
      <trkpt lat="41.58397" lon="1.61179">
        <ele>318.8</ele>
        <time>2022-05-20 22:14:23</time>
      </trkpt>
      <trkpt lat="41.58398" lon="1.61184">
        <ele>319</ele>
        <time>2022-05-20 22:14:24</time>
      </trkpt>
      <trkpt lat="41.584" lon="1.61188">
        <ele>319.2</ele>
        <time>2022-05-20 22:14:25</time>
      </trkpt>
      <trkpt lat="41.58402" lon="1.61192">
        <ele>319.4</ele>
        <time>2022-05-20 22:14:26</time>
      </trkpt>
      <trkpt lat="41.58405" lon="1.61195">
        <ele>319.6</ele>
        <time>2022-05-20 22:14:27</time>
      </trkpt>
      <trkpt lat="41.58408" lon="1.61198">
        <ele>319.8</ele>
        <time>2022-05-20 22:14:28</time>
      </trkpt>
      <trkpt lat="41.58411" lon="1.61199">
        <ele>320.2</ele>
        <time>2022-05-20 22:14:29</time>
      </trkpt>
      <trkpt lat="41.58413" lon="1.612">
        <ele>320.4</ele>
        <time>2022-05-20 22:14:30</time>
      </trkpt>
      <trkpt lat="41.58415" lon="1.61201">
        <ele>320.6</ele>
        <time>2022-05-20 22:14:31</time>
      </trkpt>
      <trkpt lat="41.58416" lon="1.61201">
        <ele>321.4</ele>
        <time>2022-05-20 22:14:47</time>
      </trkpt>
      <trkpt lat="41.58416" lon="1.61201">
        <ele>321.4</ele>
        <time>2022-05-20 22:14:48</time>
      </trkpt>
      <trkpt lat="41.58416" lon="1.61201">
        <ele>321.4</ele>
        <time>2022-05-20 22:14:49</time>
      </trkpt>
      <trkpt lat="41.58418" lon="1.61203">
        <ele>321.6</ele>
        <time>2022-05-20 22:14:50</time>
      </trkpt>
      <trkpt lat="41.58421" lon="1.61206">
        <ele>321.6</ele>
        <time>2022-05-20 22:14:51</time>
      </trkpt>
      <trkpt lat="41.58423" lon="1.61208">
        <ele>321.8</ele>
        <time>2022-05-20 22:14:52</time>
      </trkpt>
      <trkpt lat="41.58426" lon="1.6121">
        <ele>321.8</ele>
        <time>2022-05-20 22:14:53</time>
      </trkpt>
      <trkpt lat="41.58428" lon="1.61212">
        <ele>322</ele>
        <time>2022-05-20 22:14:54</time>
      </trkpt>
      <trkpt lat="41.58431" lon="1.61214">
        <ele>322.2</ele>
        <time>2022-05-20 22:14:55</time>
      </trkpt>
      <trkpt lat="41.58434" lon="1.61216">
        <ele>322.4</ele>
        <time>2022-05-20 22:14:56</time>
      </trkpt>
      <trkpt lat="41.58437" lon="1.61218">
        <ele>322.8</ele>
        <time>2022-05-20 22:14:57</time>
      </trkpt>
      <trkpt lat="41.58441" lon="1.6122">
        <ele>323</ele>
        <time>2022-05-20 22:14:58</time>
      </trkpt>
      <trkpt lat="41.58444" lon="1.61222">
        <ele>323.2</ele>
        <time>2022-05-20 22:14:59</time>
      </trkpt>
      <trkpt lat="41.58447" lon="1.61224">
        <ele>323.6</ele>
        <time>2022-05-20 22:15:00</time>
      </trkpt>
      <trkpt lat="41.5845" lon="1.61226">
        <ele>324</ele>
        <time>2022-05-20 22:15:01</time>
      </trkpt>
      <trkpt lat="41.58452" lon="1.61229">
        <ele>324.2</ele>
        <time>2022-05-20 22:15:02</time>
      </trkpt>
      <trkpt lat="41.58455" lon="1.61231">
        <ele>324.6</ele>
        <time>2022-05-20 22:15:03</time>
      </trkpt>
      <trkpt lat="41.58458" lon="1.61233">
        <ele>325</ele>
        <time>2022-05-20 22:15:04</time>
      </trkpt>
      <trkpt lat="41.5846" lon="1.61236">
        <ele>325.2</ele>
        <time>2022-05-20 22:15:05</time>
      </trkpt>
      <trkpt lat="41.58463" lon="1.61238">
        <ele>325.6</ele>
        <time>2022-05-20 22:15:06</time>
      </trkpt>
      <trkpt lat="41.58464" lon="1.6124">
        <ele>325.8</ele>
        <time>2022-05-20 22:15:07</time>
      </trkpt>
      <trkpt lat="41.58466" lon="1.61242">
        <ele>326.2</ele>
        <time>2022-05-20 22:15:08</time>
      </trkpt>
      <trkpt lat="41.58469" lon="1.61243">
        <ele>326.6</ele>
        <time>2022-05-20 22:15:09</time>
      </trkpt>
      <trkpt lat="41.5847" lon="1.61245">
        <ele>326.8</ele>
        <time>2022-05-20 22:15:10</time>
      </trkpt>
      <trkpt lat="41.58472" lon="1.61247">
        <ele>327.2</ele>
        <time>2022-05-20 22:15:11</time>
      </trkpt>
      <trkpt lat="41.58474" lon="1.61248">
        <ele>327.6</ele>
        <time>2022-05-20 22:15:12</time>
      </trkpt>
      <trkpt lat="41.58476" lon="1.6125">
        <ele>327.8</ele>
        <time>2022-05-20 22:15:13</time>
      </trkpt>
      <trkpt lat="41.58478" lon="1.61253">
        <ele>328.2</ele>
        <time>2022-05-20 22:15:14</time>
      </trkpt>
      <trkpt lat="41.5848" lon="1.61256">
        <ele>328.6</ele>
        <time>2022-05-20 22:15:15</time>
      </trkpt>
      <trkpt lat="41.58483" lon="1.61259">
        <ele>328.8</ele>
        <time>2022-05-20 22:15:16</time>
      </trkpt>
      <trkpt lat="41.58486" lon="1.61262">
        <ele>329.2</ele>
        <time>2022-05-20 22:15:17</time>
      </trkpt>
      <trkpt lat="41.58488" lon="1.61265">
        <ele>329.6</ele>
        <time>2022-05-20 22:15:18</time>
      </trkpt>
      <trkpt lat="41.58491" lon="1.61268">
        <ele>329.8</ele>
        <time>2022-05-20 22:15:19</time>
      </trkpt>
      <trkpt lat="41.58494" lon="1.61271">
        <ele>330.2</ele>
        <time>2022-05-20 22:15:20</time>
      </trkpt>
      <trkpt lat="41.58498" lon="1.61274">
        <ele>330.4</ele>
        <time>2022-05-20 22:15:21</time>
      </trkpt>
      <trkpt lat="41.585" lon="1.61276">
        <ele>330.8</ele>
        <time>2022-05-20 22:15:22</time>
      </trkpt>
      <trkpt lat="41.58503" lon="1.61279">
        <ele>331</ele>
        <time>2022-05-20 22:15:23</time>
      </trkpt>
      <trkpt lat="41.58505" lon="1.61282">
        <ele>331.4</ele>
        <time>2022-05-20 22:15:24</time>
      </trkpt>
      <trkpt lat="41.58508" lon="1.61283">
        <ele>331.8</ele>
        <time>2022-05-20 22:15:25</time>
      </trkpt>
      <trkpt lat="41.58511" lon="1.61283">
        <ele>332</ele>
        <time>2022-05-20 22:15:26</time>
      </trkpt>
      <trkpt lat="41.58513" lon="1.61285">
        <ele>332.4</ele>
        <time>2022-05-20 22:15:27</time>
      </trkpt>
      <trkpt lat="41.58515" lon="1.61287">
        <ele>332.6</ele>
        <time>2022-05-20 22:15:28</time>
      </trkpt>
      <trkpt lat="41.5852" lon="1.61292">
        <ele>332.8</ele>
        <time>2022-05-20 22:15:29</time>
      </trkpt>
      <trkpt lat="41.58523" lon="1.61295">
        <ele>333.2</ele>
        <time>2022-05-20 22:15:30</time>
      </trkpt>
      <trkpt lat="41.58526" lon="1.61299">
        <ele>333.4</ele>
        <time>2022-05-20 22:15:31</time>
      </trkpt>
      <trkpt lat="41.5853" lon="1.61302">
        <ele>333.6</ele>
        <time>2022-05-20 22:15:32</time>
      </trkpt>
      <trkpt lat="41.58533" lon="1.61305">
        <ele>333.6</ele>
        <time>2022-05-20 22:15:33</time>
      </trkpt>
      <trkpt lat="41.58537" lon="1.61308">
        <ele>333.8</ele>
        <time>2022-05-20 22:15:34</time>
      </trkpt>
      <trkpt lat="41.58539" lon="1.61311">
        <ele>334</ele>
        <time>2022-05-20 22:15:35</time>
      </trkpt>
      <trkpt lat="41.58542" lon="1.61314">
        <ele>334.2</ele>
        <time>2022-05-20 22:15:36</time>
      </trkpt>
      <trkpt lat="41.58545" lon="1.61317">
        <ele>334.4</ele>
        <time>2022-05-20 22:15:37</time>
      </trkpt>
      <trkpt lat="41.58548" lon="1.61321">
        <ele>334.6</ele>
        <time>2022-05-20 22:15:38</time>
      </trkpt>
      <trkpt lat="41.58552" lon="1.61325">
        <ele>334.6</ele>
        <time>2022-05-20 22:15:39</time>
      </trkpt>
      <trkpt lat="41.58556" lon="1.61328">
        <ele>334.8</ele>
        <time>2022-05-20 22:15:40</time>
      </trkpt>
      <trkpt lat="41.58559" lon="1.61331">
        <ele>335</ele>
        <time>2022-05-20 22:15:41</time>
      </trkpt>
      <trkpt lat="41.58562" lon="1.61334">
        <ele>335.2</ele>
        <time>2022-05-20 22:15:42</time>
      </trkpt>
      <trkpt lat="41.58566" lon="1.61337">
        <ele>335.4</ele>
        <time>2022-05-20 22:15:43</time>
      </trkpt>
      <trkpt lat="41.58569" lon="1.6134">
        <ele>335.4</ele>
        <time>2022-05-20 22:15:44</time>
      </trkpt>
      <trkpt lat="41.58573" lon="1.61344">
        <ele>335.6</ele>
        <time>2022-05-20 22:15:45</time>
      </trkpt>
      <trkpt lat="41.58576" lon="1.61347">
        <ele>335.8</ele>
        <time>2022-05-20 22:15:46</time>
      </trkpt>
      <trkpt lat="41.5858" lon="1.6135">
        <ele>336</ele>
        <time>2022-05-20 22:15:47</time>
      </trkpt>
      <trkpt lat="41.58583" lon="1.61353">
        <ele>336</ele>
        <time>2022-05-20 22:15:48</time>
      </trkpt>
      <trkpt lat="41.58587" lon="1.61357">
        <ele>336.2</ele>
        <time>2022-05-20 22:15:49</time>
      </trkpt>
      <trkpt lat="41.5859" lon="1.6136">
        <ele>336.4</ele>
        <time>2022-05-20 22:15:50</time>
      </trkpt>
      <trkpt lat="41.58593" lon="1.61363">
        <ele>336.4</ele>
        <time>2022-05-20 22:15:51</time>
      </trkpt>
      <trkpt lat="41.58597" lon="1.61366">
        <ele>336.6</ele>
        <time>2022-05-20 22:15:52</time>
      </trkpt>
      <trkpt lat="41.58601" lon="1.6137">
        <ele>336.8</ele>
        <time>2022-05-20 22:15:53</time>
      </trkpt>
      <trkpt lat="41.58604" lon="1.61373">
        <ele>337</ele>
        <time>2022-05-20 22:15:54</time>
      </trkpt>
      <trkpt lat="41.58609" lon="1.61377">
        <ele>337</ele>
        <time>2022-05-20 22:15:55</time>
      </trkpt>
      <trkpt lat="41.58612" lon="1.6138">
        <ele>337.2</ele>
        <time>2022-05-20 22:15:56</time>
      </trkpt>
      <trkpt lat="41.58616" lon="1.61383">
        <ele>337.4</ele>
        <time>2022-05-20 22:15:57</time>
      </trkpt>
      <trkpt lat="41.5862" lon="1.61387">
        <ele>337.4</ele>
        <time>2022-05-20 22:15:58</time>
      </trkpt>
      <trkpt lat="41.58624" lon="1.61391">
        <ele>337.6</ele>
        <time>2022-05-20 22:15:59</time>
      </trkpt>
      <trkpt lat="41.58628" lon="1.61395">
        <ele>337.8</ele>
        <time>2022-05-20 22:16:00</time>
      </trkpt>
      <trkpt lat="41.58631" lon="1.61399">
        <ele>337.8</ele>
        <time>2022-05-20 22:16:01</time>
      </trkpt>
      <trkpt lat="41.58634" lon="1.61403">
        <ele>338</ele>
        <time>2022-05-20 22:16:02</time>
      </trkpt>
      <trkpt lat="41.58637" lon="1.61408">
        <ele>338.2</ele>
        <time>2022-05-20 22:16:03</time>
      </trkpt>
      <trkpt lat="41.58641" lon="1.61411">
        <ele>338.2</ele>
        <time>2022-05-20 22:16:04</time>
      </trkpt>
      <trkpt lat="41.58645" lon="1.61414">
        <ele>338.4</ele>
        <time>2022-05-20 22:16:05</time>
      </trkpt>
      <trkpt lat="41.5865" lon="1.61415">
        <ele>338.4</ele>
        <time>2022-05-20 22:16:06</time>
      </trkpt>
      <trkpt lat="41.58655" lon="1.61417">
        <ele>338.6</ele>
        <time>2022-05-20 22:16:07</time>
      </trkpt>
      <trkpt lat="41.58659" lon="1.6142">
        <ele>338.6</ele>
        <time>2022-05-20 22:16:08</time>
      </trkpt>
      <trkpt lat="41.58664" lon="1.61423">
        <ele>338.8</ele>
        <time>2022-05-20 22:16:09</time>
      </trkpt>
      <trkpt lat="41.58668" lon="1.61426">
        <ele>338.8</ele>
        <time>2022-05-20 22:16:10</time>
      </trkpt>
      <trkpt lat="41.58672" lon="1.61429">
        <ele>339</ele>
        <time>2022-05-20 22:16:11</time>
      </trkpt>
      <trkpt lat="41.58677" lon="1.61432">
        <ele>339</ele>
        <time>2022-05-20 22:16:12</time>
      </trkpt>
      <trkpt lat="41.58681" lon="1.61435">
        <ele>339.2</ele>
        <time>2022-05-20 22:16:13</time>
      </trkpt>
      <trkpt lat="41.58686" lon="1.61438">
        <ele>339.2</ele>
        <time>2022-05-20 22:16:14</time>
      </trkpt>
      <trkpt lat="41.58691" lon="1.61441">
        <ele>339.4</ele>
        <time>2022-05-20 22:16:15</time>
      </trkpt>
      <trkpt lat="41.58696" lon="1.61444">
        <ele>339.4</ele>
        <time>2022-05-20 22:16:16</time>
      </trkpt>
      <trkpt lat="41.58702" lon="1.61447">
        <ele>339.6</ele>
        <time>2022-05-20 22:16:17</time>
      </trkpt>
      <trkpt lat="41.58707" lon="1.6145">
        <ele>339.6</ele>
        <time>2022-05-20 22:16:18</time>
      </trkpt>
      <trkpt lat="41.58712" lon="1.61454">
        <ele>339.6</ele>
        <time>2022-05-20 22:16:19</time>
      </trkpt>
      <trkpt lat="41.58718" lon="1.61457">
        <ele>339.8</ele>
        <time>2022-05-20 22:16:20</time>
      </trkpt>
      <trkpt lat="41.58723" lon="1.6146">
        <ele>339.8</ele>
        <time>2022-05-20 22:16:21</time>
      </trkpt>
      <trkpt lat="41.58729" lon="1.61462">
        <ele>339.8</ele>
        <time>2022-05-20 22:16:22</time>
      </trkpt>
      <trkpt lat="41.58734" lon="1.61465">
        <ele>339.8</ele>
        <time>2022-05-20 22:16:23</time>
      </trkpt>
      <trkpt lat="41.58739" lon="1.61468">
        <ele>339.8</ele>
        <time>2022-05-20 22:16:24</time>
      </trkpt>
      <trkpt lat="41.58745" lon="1.6147">
        <ele>339.8</ele>
        <time>2022-05-20 22:16:25</time>
      </trkpt>
      <trkpt lat="41.5875" lon="1.61473">
        <ele>340</ele>
        <time>2022-05-20 22:16:26</time>
      </trkpt>
      <trkpt lat="41.58756" lon="1.61475">
        <ele>340</ele>
        <time>2022-05-20 22:16:27</time>
      </trkpt>
      <trkpt lat="41.58762" lon="1.61477">
        <ele>340.2</ele>
        <time>2022-05-20 22:16:28</time>
      </trkpt>
      <trkpt lat="41.58767" lon="1.6148">
        <ele>340.2</ele>
        <time>2022-05-20 22:16:29</time>
      </trkpt>
      <trkpt lat="41.58773" lon="1.61482">
        <ele>340.2</ele>
        <time>2022-05-20 22:16:30</time>
      </trkpt>
      <trkpt lat="41.58778" lon="1.61485">
        <ele>340.4</ele>
        <time>2022-05-20 22:16:31</time>
      </trkpt>
      <trkpt lat="41.58784" lon="1.61488">
        <ele>340.4</ele>
        <time>2022-05-20 22:16:32</time>
      </trkpt>
      <trkpt lat="41.58789" lon="1.6149">
        <ele>340.4</ele>
        <time>2022-05-20 22:16:33</time>
      </trkpt>
      <trkpt lat="41.58794" lon="1.61493">
        <ele>340.6</ele>
        <time>2022-05-20 22:16:34</time>
      </trkpt>
      <trkpt lat="41.58799" lon="1.61496">
        <ele>340.6</ele>
        <time>2022-05-20 22:16:35</time>
      </trkpt>
      <trkpt lat="41.58803" lon="1.61497">
        <ele>340.8</ele>
        <time>2022-05-20 22:16:36</time>
      </trkpt>
      <trkpt lat="41.58806" lon="1.61499">
        <ele>340.8</ele>
        <time>2022-05-20 22:16:37</time>
      </trkpt>
      <trkpt lat="41.58812" lon="1.61503">
        <ele>340.8</ele>
        <time>2022-05-20 22:16:38</time>
      </trkpt>
      <trkpt lat="41.58817" lon="1.61505">
        <ele>341</ele>
        <time>2022-05-20 22:16:39</time>
      </trkpt>
      <trkpt lat="41.58821" lon="1.61507">
        <ele>341</ele>
        <time>2022-05-20 22:16:40</time>
      </trkpt>
      <trkpt lat="41.58825" lon="1.6151">
        <ele>341.2</ele>
        <time>2022-05-20 22:16:41</time>
      </trkpt>
      <trkpt lat="41.5883" lon="1.61512">
        <ele>341.2</ele>
        <time>2022-05-20 22:16:42</time>
      </trkpt>
      <trkpt lat="41.58835" lon="1.61514">
        <ele>341.2</ele>
        <time>2022-05-20 22:16:43</time>
      </trkpt>
      <trkpt lat="41.58839" lon="1.61516">
        <ele>341.4</ele>
        <time>2022-05-20 22:16:44</time>
      </trkpt>
      <trkpt lat="41.58844" lon="1.61517">
        <ele>341.4</ele>
        <time>2022-05-20 22:16:45</time>
      </trkpt>
      <trkpt lat="41.58848" lon="1.61519">
        <ele>341.4</ele>
        <time>2022-05-20 22:16:46</time>
      </trkpt>
      <trkpt lat="41.58852" lon="1.61521">
        <ele>341.4</ele>
        <time>2022-05-20 22:16:47</time>
      </trkpt>
      <trkpt lat="41.58857" lon="1.61522">
        <ele>341.6</ele>
        <time>2022-05-20 22:16:48</time>
      </trkpt>
      <trkpt lat="41.58862" lon="1.61524">
        <ele>341.6</ele>
        <time>2022-05-20 22:16:49</time>
      </trkpt>
      <trkpt lat="41.58866" lon="1.61526">
        <ele>341.6</ele>
        <time>2022-05-20 22:16:50</time>
      </trkpt>
      <trkpt lat="41.58871" lon="1.61528">
        <ele>341.6</ele>
        <time>2022-05-20 22:16:51</time>
      </trkpt>
      <trkpt lat="41.58876" lon="1.61531">
        <ele>341.8</ele>
        <time>2022-05-20 22:16:52</time>
      </trkpt>
      <trkpt lat="41.5888" lon="1.61533">
        <ele>341.8</ele>
        <time>2022-05-20 22:16:53</time>
      </trkpt>
      <trkpt lat="41.58884" lon="1.61535">
        <ele>341.8</ele>
        <time>2022-05-20 22:16:54</time>
      </trkpt>
      <trkpt lat="41.58888" lon="1.61538">
        <ele>341.8</ele>
        <time>2022-05-20 22:16:55</time>
      </trkpt>
      <trkpt lat="41.58893" lon="1.6154">
        <ele>342</ele>
        <time>2022-05-20 22:16:56</time>
      </trkpt>
      <trkpt lat="41.58899" lon="1.61542">
        <ele>342</ele>
        <time>2022-05-20 22:16:57</time>
      </trkpt>
      <trkpt lat="41.58904" lon="1.61545">
        <ele>342</ele>
        <time>2022-05-20 22:16:58</time>
      </trkpt>
      <trkpt lat="41.5891" lon="1.61546">
        <ele>342.2</ele>
        <time>2022-05-20 22:16:59</time>
      </trkpt>
      <trkpt lat="41.58915" lon="1.61548">
        <ele>342.2</ele>
        <time>2022-05-20 22:17:00</time>
      </trkpt>
      <trkpt lat="41.58921" lon="1.6155">
        <ele>342.4</ele>
        <time>2022-05-20 22:17:01</time>
      </trkpt>
      <trkpt lat="41.58927" lon="1.61552">
        <ele>342.4</ele>
        <time>2022-05-20 22:17:02</time>
      </trkpt>
      <trkpt lat="41.58932" lon="1.61554">
        <ele>342.6</ele>
        <time>2022-05-20 22:17:03</time>
      </trkpt>
      <trkpt lat="41.58937" lon="1.61556">
        <ele>342.6</ele>
        <time>2022-05-20 22:17:04</time>
      </trkpt>
      <trkpt lat="41.58942" lon="1.61556">
        <ele>342.8</ele>
        <time>2022-05-20 22:17:05</time>
      </trkpt>
      <trkpt lat="41.58945" lon="1.61554">
        <ele>342.8</ele>
        <time>2022-05-20 22:17:06</time>
      </trkpt>
      <trkpt lat="41.58947" lon="1.61549">
        <ele>342.8</ele>
        <time>2022-05-20 22:17:07</time>
      </trkpt>
      <trkpt lat="41.58948" lon="1.61544">
        <ele>342.8</ele>
        <time>2022-05-20 22:17:08</time>
      </trkpt>
      <trkpt lat="41.58946" lon="1.61538">
        <ele>342.8</ele>
        <time>2022-05-20 22:17:09</time>
      </trkpt>
      <trkpt lat="41.58943" lon="1.61534">
        <ele>342.8</ele>
        <time>2022-05-20 22:17:10</time>
      </trkpt>
      <trkpt lat="41.58939" lon="1.61531">
        <ele>342.8</ele>
        <time>2022-05-20 22:17:11</time>
      </trkpt>
      <trkpt lat="41.58933" lon="1.61528">
        <ele>342.6</ele>
        <time>2022-05-20 22:17:12</time>
      </trkpt>
      <trkpt lat="41.58928" lon="1.61526">
        <ele>342.6</ele>
        <time>2022-05-20 22:17:13</time>
      </trkpt>
      <trkpt lat="41.58922" lon="1.61523">
        <ele>342.4</ele>
        <time>2022-05-20 22:17:14</time>
      </trkpt>
      <trkpt lat="41.58916" lon="1.61521">
        <ele>342.4</ele>
        <time>2022-05-20 22:17:15</time>
      </trkpt>
      <trkpt lat="41.5891" lon="1.61519">
        <ele>342.2</ele>
        <time>2022-05-20 22:17:16</time>
      </trkpt>
      <trkpt lat="41.58904" lon="1.61516">
        <ele>342.2</ele>
        <time>2022-05-20 22:17:17</time>
      </trkpt>
      <trkpt lat="41.58899" lon="1.61514">
        <ele>342.2</ele>
        <time>2022-05-20 22:17:18</time>
      </trkpt>
      <trkpt lat="41.58892" lon="1.61511">
        <ele>342</ele>
        <time>2022-05-20 22:17:19</time>
      </trkpt>
      <trkpt lat="41.58887" lon="1.61508">
        <ele>342</ele>
        <time>2022-05-20 22:17:20</time>
      </trkpt>
      <trkpt lat="41.5888" lon="1.61505">
        <ele>341.8</ele>
        <time>2022-05-20 22:17:21</time>
      </trkpt>
      <trkpt lat="41.58874" lon="1.61502">
        <ele>341.8</ele>
        <time>2022-05-20 22:17:22</time>
      </trkpt>
      <trkpt lat="41.58868" lon="1.61499">
        <ele>341.8</ele>
        <time>2022-05-20 22:17:23</time>
      </trkpt>
      <trkpt lat="41.58863" lon="1.61496">
        <ele>341.6</ele>
        <time>2022-05-20 22:17:24</time>
      </trkpt>
      <trkpt lat="41.58857" lon="1.61493">
        <ele>341.6</ele>
        <time>2022-05-20 22:17:25</time>
      </trkpt>
      <trkpt lat="41.58851" lon="1.61491">
        <ele>341.6</ele>
        <time>2022-05-20 22:17:26</time>
      </trkpt>
      <trkpt lat="41.58846" lon="1.61489">
        <ele>341.6</ele>
        <time>2022-05-20 22:17:27</time>
      </trkpt>
      <trkpt lat="41.58842" lon="1.61487">
        <ele>341.6</ele>
        <time>2022-05-20 22:17:28</time>
      </trkpt>
      <trkpt lat="41.58838" lon="1.61485">
        <ele>341.4</ele>
        <time>2022-05-20 22:17:29</time>
      </trkpt>
      <trkpt lat="41.58834" lon="1.61484">
        <ele>341.4</ele>
        <time>2022-05-20 22:17:30</time>
      </trkpt>
      <trkpt lat="41.58831" lon="1.61483">
        <ele>341.4</ele>
        <time>2022-05-20 22:17:31</time>
      </trkpt>
      <trkpt lat="41.58827" lon="1.61481">
        <ele>341.4</ele>
        <time>2022-05-20 22:17:32</time>
      </trkpt>
      <trkpt lat="41.58825" lon="1.61482">
        <ele>341.4</ele>
        <time>2022-05-20 22:17:33</time>
      </trkpt>
      <trkpt lat="41.58823" lon="1.61483">
        <ele>341.4</ele>
        <time>2022-05-20 22:17:34</time>
      </trkpt>
      <trkpt lat="41.58821" lon="1.61485">
        <ele>341.4</ele>
        <time>2022-05-20 22:17:35</time>
      </trkpt>
      <trkpt lat="41.5882" lon="1.61486">
        <ele>341.4</ele>
        <time>2022-05-20 22:17:36</time>
      </trkpt>
      <trkpt lat="41.58819" lon="1.61492">
        <ele>341.4</ele>
        <time>2022-05-20 22:17:40</time>
      </trkpt>
      <trkpt lat="41.5882" lon="1.61496">
        <ele>341.4</ele>
        <time>2022-05-20 22:17:41</time>
      </trkpt>
      <trkpt lat="41.58822" lon="1.61498">
        <ele>341.4</ele>
        <time>2022-05-20 22:17:42</time>
      </trkpt>
      <trkpt lat="41.58825" lon="1.615">
        <ele>341.4</ele>
        <time>2022-05-20 22:17:43</time>
      </trkpt>
      <trkpt lat="41.58828" lon="1.615">
        <ele>341.4</ele>
        <time>2022-05-20 22:17:44</time>
      </trkpt>
      <trkpt lat="41.58831" lon="1.61499">
        <ele>341.4</ele>
        <time>2022-05-20 22:17:45</time>
      </trkpt>
      <trkpt lat="41.58834" lon="1.61499">
        <ele>341.4</ele>
        <time>2022-05-20 22:17:46</time>
      </trkpt>
      <trkpt lat="41.58837" lon="1.61498">
        <ele>341.4</ele>
        <time>2022-05-20 22:17:47</time>
      </trkpt>
      <trkpt lat="41.5884" lon="1.61499">
        <ele>341.4</ele>
        <time>2022-05-20 22:17:48</time>
      </trkpt>
      <trkpt lat="41.58844" lon="1.615">
        <ele>341.4</ele>
        <time>2022-05-20 22:17:49</time>
      </trkpt>
      <trkpt lat="41.58849" lon="1.61503">
        <ele>341.4</ele>
        <time>2022-05-20 22:17:50</time>
      </trkpt>
      <trkpt lat="41.58854" lon="1.61506">
        <ele>341.4</ele>
        <time>2022-05-20 22:17:51</time>
      </trkpt>
      <trkpt lat="41.58859" lon="1.61508">
        <ele>341.2</ele>
        <time>2022-05-20 22:17:52</time>
      </trkpt>
      <trkpt lat="41.58865" lon="1.61511">
        <ele>341.2</ele>
        <time>2022-05-20 22:17:53</time>
      </trkpt>
      <trkpt lat="41.5887" lon="1.61513">
        <ele>341</ele>
        <time>2022-05-20 22:17:54</time>
      </trkpt>
      <trkpt lat="41.58876" lon="1.61516">
        <ele>340.6</ele>
        <time>2022-05-20 22:17:55</time>
      </trkpt>
      <trkpt lat="41.58882" lon="1.61519">
        <ele>340.2</ele>
        <time>2022-05-20 22:17:56</time>
      </trkpt>
      <trkpt lat="41.58889" lon="1.61522">
        <ele>339.8</ele>
        <time>2022-05-20 22:17:57</time>
      </trkpt>
      <trkpt lat="41.58897" lon="1.61526">
        <ele>339.4</ele>
        <time>2022-05-20 22:17:58</time>
      </trkpt>
      <trkpt lat="41.58906" lon="1.61529">
        <ele>338.8</ele>
        <time>2022-05-20 22:17:59</time>
      </trkpt>
      <trkpt lat="41.58915" lon="1.61533">
        <ele>338.4</ele>
        <time>2022-05-20 22:18:00</time>
      </trkpt>
      <trkpt lat="41.58923" lon="1.61536">
        <ele>338</ele>
        <time>2022-05-20 22:18:01</time>
      </trkpt>
      <trkpt lat="41.58931" lon="1.61539">
        <ele>337.6</ele>
        <time>2022-05-20 22:18:02</time>
      </trkpt>
      <trkpt lat="41.5894" lon="1.61542">
        <ele>337.6</ele>
        <time>2022-05-20 22:18:03</time>
      </trkpt>
      <trkpt lat="41.58949" lon="1.61545">
        <ele>337.4</ele>
        <time>2022-05-20 22:18:04</time>
      </trkpt>
      <trkpt lat="41.58957" lon="1.61548">
        <ele>337.2</ele>
        <time>2022-05-20 22:18:05</time>
      </trkpt>
      <trkpt lat="41.58965" lon="1.61552">
        <ele>337</ele>
        <time>2022-05-20 22:18:06</time>
      </trkpt>
      <trkpt lat="41.58974" lon="1.61556">
        <ele>337</ele>
        <time>2022-05-20 22:18:07</time>
      </trkpt>
      <trkpt lat="41.58982" lon="1.6156">
        <ele>336.8</ele>
        <time>2022-05-20 22:18:08</time>
      </trkpt>
      <trkpt lat="41.58992" lon="1.61563">
        <ele>336.6</ele>
        <time>2022-05-20 22:18:09</time>
      </trkpt>
      <trkpt lat="41.59001" lon="1.61566">
        <ele>336.6</ele>
        <time>2022-05-20 22:18:10</time>
      </trkpt>
      <trkpt lat="41.59011" lon="1.61568">
        <ele>336.6</ele>
        <time>2022-05-20 22:18:11</time>
      </trkpt>
      <trkpt lat="41.59019" lon="1.6157">
        <ele>336.6</ele>
        <time>2022-05-20 22:18:12</time>
      </trkpt>
      <trkpt lat="41.59028" lon="1.61571">
        <ele>336.6</ele>
        <time>2022-05-20 22:18:13</time>
      </trkpt>
      <trkpt lat="41.59036" lon="1.61572">
        <ele>336.8</ele>
        <time>2022-05-20 22:18:14</time>
      </trkpt>
      <trkpt lat="41.59043" lon="1.61574">
        <ele>336.8</ele>
        <time>2022-05-20 22:18:15</time>
      </trkpt>
      <trkpt lat="41.59052" lon="1.61575">
        <ele>337</ele>
        <time>2022-05-20 22:18:16</time>
      </trkpt>
      <trkpt lat="41.59059" lon="1.61576">
        <ele>337.2</ele>
        <time>2022-05-20 22:18:17</time>
      </trkpt>
      <trkpt lat="41.59066" lon="1.61578">
        <ele>337.2</ele>
        <time>2022-05-20 22:18:18</time>
      </trkpt>
      <trkpt lat="41.59073" lon="1.61581">
        <ele>337.4</ele>
        <time>2022-05-20 22:18:19</time>
      </trkpt>
      <trkpt lat="41.5908" lon="1.61584">
        <ele>337.6</ele>
        <time>2022-05-20 22:18:20</time>
      </trkpt>
      <trkpt lat="41.59086" lon="1.61589">
        <ele>337.6</ele>
        <time>2022-05-20 22:18:21</time>
      </trkpt>
      <trkpt lat="41.59092" lon="1.61594">
        <ele>337.8</ele>
        <time>2022-05-20 22:18:22</time>
      </trkpt>
      <trkpt lat="41.59097" lon="1.61601">
        <ele>337.8</ele>
        <time>2022-05-20 22:18:23</time>
      </trkpt>
      <trkpt lat="41.59102" lon="1.61607">
        <ele>338</ele>
        <time>2022-05-20 22:18:24</time>
      </trkpt>
      <trkpt lat="41.59107" lon="1.61615">
        <ele>338</ele>
        <time>2022-05-20 22:18:25</time>
      </trkpt>
      <trkpt lat="41.59111" lon="1.61622">
        <ele>338.2</ele>
        <time>2022-05-20 22:18:26</time>
      </trkpt>
      <trkpt lat="41.59114" lon="1.61631">
        <ele>338.2</ele>
        <time>2022-05-20 22:18:27</time>
      </trkpt>
      <trkpt lat="41.59117" lon="1.61639">
        <ele>338.4</ele>
        <time>2022-05-20 22:18:28</time>
      </trkpt>
      <trkpt lat="41.59119" lon="1.61647">
        <ele>338.6</ele>
        <time>2022-05-20 22:18:29</time>
      </trkpt>
      <trkpt lat="41.5912" lon="1.61656">
        <ele>338.6</ele>
        <time>2022-05-20 22:18:30</time>
      </trkpt>
      <trkpt lat="41.5912" lon="1.61664">
        <ele>338.6</ele>
        <time>2022-05-20 22:18:31</time>
      </trkpt>
      <trkpt lat="41.5912" lon="1.61673">
        <ele>338.8</ele>
        <time>2022-05-20 22:18:32</time>
      </trkpt>
      <trkpt lat="41.5912" lon="1.61682">
        <ele>338.8</ele>
        <time>2022-05-20 22:18:33</time>
      </trkpt>
      <trkpt lat="41.59119" lon="1.6169">
        <ele>338.8</ele>
        <time>2022-05-20 22:18:34</time>
      </trkpt>
      <trkpt lat="41.59119" lon="1.61699">
        <ele>338.6</ele>
        <time>2022-05-20 22:18:35</time>
      </trkpt>
      <trkpt lat="41.59119" lon="1.61708">
        <ele>338.6</ele>
        <time>2022-05-20 22:18:36</time>
      </trkpt>
      <trkpt lat="41.59118" lon="1.61718">
        <ele>338.6</ele>
        <time>2022-05-20 22:18:37</time>
      </trkpt>
      <trkpt lat="41.59117" lon="1.61727">
        <ele>338.4</ele>
        <time>2022-05-20 22:18:38</time>
      </trkpt>
      <trkpt lat="41.59117" lon="1.61737">
        <ele>338.2</ele>
        <time>2022-05-20 22:18:39</time>
      </trkpt>
      <trkpt lat="41.59116" lon="1.61747">
        <ele>338.2</ele>
        <time>2022-05-20 22:18:40</time>
      </trkpt>
      <trkpt lat="41.59115" lon="1.61757">
        <ele>338</ele>
        <time>2022-05-20 22:18:41</time>
      </trkpt>
      <trkpt lat="41.59114" lon="1.61767">
        <ele>337.8</ele>
        <time>2022-05-20 22:18:42</time>
      </trkpt>
      <trkpt lat="41.59114" lon="1.61777">
        <ele>337.6</ele>
        <time>2022-05-20 22:18:43</time>
      </trkpt>
      <trkpt lat="41.59113" lon="1.61787">
        <ele>337.4</ele>
        <time>2022-05-20 22:18:44</time>
      </trkpt>
      <trkpt lat="41.59111" lon="1.61798">
        <ele>337.2</ele>
        <time>2022-05-20 22:18:45</time>
      </trkpt>
      <trkpt lat="41.5911" lon="1.61809">
        <ele>337</ele>
        <time>2022-05-20 22:18:46</time>
      </trkpt>
      <trkpt lat="41.59109" lon="1.61819">
        <ele>336.8</ele>
        <time>2022-05-20 22:18:47</time>
      </trkpt>
      <trkpt lat="41.59108" lon="1.61829">
        <ele>336.6</ele>
        <time>2022-05-20 22:18:48</time>
      </trkpt>
      <trkpt lat="41.59107" lon="1.6184">
        <ele>336.2</ele>
        <time>2022-05-20 22:18:49</time>
      </trkpt>
      <trkpt lat="41.59106" lon="1.61851">
        <ele>335.8</ele>
        <time>2022-05-20 22:18:50</time>
      </trkpt>
      <trkpt lat="41.59106" lon="1.61862">
        <ele>335.6</ele>
        <time>2022-05-20 22:18:51</time>
      </trkpt>
      <trkpt lat="41.59108" lon="1.61873">
        <ele>335.4</ele>
        <time>2022-05-20 22:18:52</time>
      </trkpt>
      <trkpt lat="41.59109" lon="1.61884">
        <ele>335</ele>
        <time>2022-05-20 22:18:53</time>
      </trkpt>
      <trkpt lat="41.59111" lon="1.61895">
        <ele>334.8</ele>
        <time>2022-05-20 22:18:54</time>
      </trkpt>
      <trkpt lat="41.59112" lon="1.61906">
        <ele>334.6</ele>
        <time>2022-05-20 22:18:55</time>
      </trkpt>
      <trkpt lat="41.59113" lon="1.61918">
        <ele>334.2</ele>
        <time>2022-05-20 22:18:56</time>
      </trkpt>
      <trkpt lat="41.59114" lon="1.61929">
        <ele>334</ele>
        <time>2022-05-20 22:18:57</time>
      </trkpt>
      <trkpt lat="41.59115" lon="1.6194">
        <ele>333.8</ele>
        <time>2022-05-20 22:18:58</time>
      </trkpt>
      <trkpt lat="41.59117" lon="1.61951">
        <ele>333.6</ele>
        <time>2022-05-20 22:18:59</time>
      </trkpt>
      <trkpt lat="41.59118" lon="1.61962">
        <ele>333.2</ele>
        <time>2022-05-20 22:19:00</time>
      </trkpt>
      <trkpt lat="41.59119" lon="1.61973">
        <ele>333</ele>
        <time>2022-05-20 22:19:01</time>
      </trkpt>
      <trkpt lat="41.5912" lon="1.61985">
        <ele>332.6</ele>
        <time>2022-05-20 22:19:02</time>
      </trkpt>
      <trkpt lat="41.59121" lon="1.61996">
        <ele>332.4</ele>
        <time>2022-05-20 22:19:03</time>
      </trkpt>
      <trkpt lat="41.59123" lon="1.62006">
        <ele>332.2</ele>
        <time>2022-05-20 22:19:04</time>
      </trkpt>
      <trkpt lat="41.59125" lon="1.62018">
        <ele>331.8</ele>
        <time>2022-05-20 22:19:05</time>
      </trkpt>
      <trkpt lat="41.59127" lon="1.62029">
        <ele>331.6</ele>
        <time>2022-05-20 22:19:06</time>
      </trkpt>
      <trkpt lat="41.59129" lon="1.62041">
        <ele>331.2</ele>
        <time>2022-05-20 22:19:07</time>
      </trkpt>
      <trkpt lat="41.59131" lon="1.62052">
        <ele>331</ele>
        <time>2022-05-20 22:19:08</time>
      </trkpt>
      <trkpt lat="41.59132" lon="1.62064">
        <ele>330.6</ele>
        <time>2022-05-20 22:19:09</time>
      </trkpt>
      <trkpt lat="41.59134" lon="1.62075">
        <ele>330.4</ele>
        <time>2022-05-20 22:19:10</time>
      </trkpt>
      <trkpt lat="41.59135" lon="1.62087">
        <ele>330.2</ele>
        <time>2022-05-20 22:19:11</time>
      </trkpt>
      <trkpt lat="41.59137" lon="1.62098">
        <ele>329.8</ele>
        <time>2022-05-20 22:19:12</time>
      </trkpt>
      <trkpt lat="41.59139" lon="1.6211">
        <ele>329.6</ele>
        <time>2022-05-20 22:19:13</time>
      </trkpt>
      <trkpt lat="41.5914" lon="1.62121">
        <ele>329.4</ele>
        <time>2022-05-20 22:19:14</time>
      </trkpt>
      <trkpt lat="41.59142" lon="1.62132">
        <ele>329.4</ele>
        <time>2022-05-20 22:19:15</time>
      </trkpt>
      <trkpt lat="41.59143" lon="1.62144">
        <ele>329.2</ele>
        <time>2022-05-20 22:19:16</time>
      </trkpt>
      <trkpt lat="41.59145" lon="1.62155">
        <ele>329</ele>
        <time>2022-05-20 22:19:17</time>
      </trkpt>
      <trkpt lat="41.59146" lon="1.62166">
        <ele>328.8</ele>
        <time>2022-05-20 22:19:18</time>
      </trkpt>
      <trkpt lat="41.59146" lon="1.62177">
        <ele>328.8</ele>
        <time>2022-05-20 22:19:19</time>
      </trkpt>
      <trkpt lat="41.59146" lon="1.62187">
        <ele>328.8</ele>
        <time>2022-05-20 22:19:20</time>
      </trkpt>
      <trkpt lat="41.59146" lon="1.62197">
        <ele>328.6</ele>
        <time>2022-05-20 22:19:21</time>
      </trkpt>
      <trkpt lat="41.59146" lon="1.62208">
        <ele>328.6</ele>
        <time>2022-05-20 22:19:22</time>
      </trkpt>
      <trkpt lat="41.59146" lon="1.62218">
        <ele>328.4</ele>
        <time>2022-05-20 22:19:23</time>
      </trkpt>
      <trkpt lat="41.59148" lon="1.62228">
        <ele>328.4</ele>
        <time>2022-05-20 22:19:24</time>
      </trkpt>
      <trkpt lat="41.59152" lon="1.62238">
        <ele>328.4</ele>
        <time>2022-05-20 22:19:25</time>
      </trkpt>
      <trkpt lat="41.59155" lon="1.62248">
        <ele>328.2</ele>
        <time>2022-05-20 22:19:26</time>
      </trkpt>
      <trkpt lat="41.59158" lon="1.62258">
        <ele>328.2</ele>
        <time>2022-05-20 22:19:27</time>
      </trkpt>
      <trkpt lat="41.59161" lon="1.62268">
        <ele>328</ele>
        <time>2022-05-20 22:19:28</time>
      </trkpt>
      <trkpt lat="41.59164" lon="1.62278">
        <ele>328</ele>
        <time>2022-05-20 22:19:29</time>
      </trkpt>
      <trkpt lat="41.59166" lon="1.62288">
        <ele>328</ele>
        <time>2022-05-20 22:19:30</time>
      </trkpt>
      <trkpt lat="41.59168" lon="1.62299">
        <ele>328</ele>
        <time>2022-05-20 22:19:31</time>
      </trkpt>
      <trkpt lat="41.59171" lon="1.62309">
        <ele>327.8</ele>
        <time>2022-05-20 22:19:32</time>
      </trkpt>
      <trkpt lat="41.59173" lon="1.62319">
        <ele>327.8</ele>
        <time>2022-05-20 22:19:33</time>
      </trkpt>
      <trkpt lat="41.59175" lon="1.62329">
        <ele>327.8</ele>
        <time>2022-05-20 22:19:34</time>
      </trkpt>
      <trkpt lat="41.59177" lon="1.62338">
        <ele>327.6</ele>
        <time>2022-05-20 22:19:35</time>
      </trkpt>
      <trkpt lat="41.5918" lon="1.62348">
        <ele>327.6</ele>
        <time>2022-05-20 22:19:36</time>
      </trkpt>
      <trkpt lat="41.59182" lon="1.62358">
        <ele>327.4</ele>
        <time>2022-05-20 22:19:37</time>
      </trkpt>
      <trkpt lat="41.59184" lon="1.62367">
        <ele>327.4</ele>
        <time>2022-05-20 22:19:38</time>
      </trkpt>
      <trkpt lat="41.59186" lon="1.62376">
        <ele>327.4</ele>
        <time>2022-05-20 22:19:39</time>
      </trkpt>
      <trkpt lat="41.59187" lon="1.62386">
        <ele>327.2</ele>
        <time>2022-05-20 22:19:40</time>
      </trkpt>
      <trkpt lat="41.59188" lon="1.62395">
        <ele>327.2</ele>
        <time>2022-05-20 22:19:41</time>
      </trkpt>
      <trkpt lat="41.59189" lon="1.62404">
        <ele>327</ele>
        <time>2022-05-20 22:19:42</time>
      </trkpt>
      <trkpt lat="41.59191" lon="1.62413">
        <ele>326.8</ele>
        <time>2022-05-20 22:19:43</time>
      </trkpt>
      <trkpt lat="41.59194" lon="1.62422">
        <ele>326.8</ele>
        <time>2022-05-20 22:19:44</time>
      </trkpt>
      <trkpt lat="41.59198" lon="1.6243">
        <ele>326.8</ele>
        <time>2022-05-20 22:19:45</time>
      </trkpt>
      <trkpt lat="41.59203" lon="1.62438">
        <ele>326.8</ele>
        <time>2022-05-20 22:19:46</time>
      </trkpt>
      <trkpt lat="41.59206" lon="1.62445">
        <ele>326.6</ele>
        <time>2022-05-20 22:19:47</time>
      </trkpt>
      <trkpt lat="41.5921" lon="1.62452">
        <ele>326.6</ele>
        <time>2022-05-20 22:19:48</time>
      </trkpt>
      <trkpt lat="41.59213" lon="1.62459">
        <ele>326.8</ele>
        <time>2022-05-20 22:19:49</time>
      </trkpt>
      <trkpt lat="41.59214" lon="1.62464">
        <ele>326.8</ele>
        <time>2022-05-20 22:19:50</time>
      </trkpt>
      <trkpt lat="41.59216" lon="1.62468">
        <ele>327</ele>
        <time>2022-05-20 22:19:51</time>
      </trkpt>
      <trkpt lat="41.59216" lon="1.62473">
        <ele>327</ele>
        <time>2022-05-20 22:19:52</time>
      </trkpt>
      <trkpt lat="41.59217" lon="1.62477">
        <ele>326.8</ele>
        <time>2022-05-20 22:19:53</time>
      </trkpt>
      <trkpt lat="41.59219" lon="1.62482">
        <ele>326.8</ele>
        <time>2022-05-20 22:19:54</time>
      </trkpt>
      <trkpt lat="41.59221" lon="1.62487">
        <ele>326.8</ele>
        <time>2022-05-20 22:19:55</time>
      </trkpt>
      <trkpt lat="41.59223" lon="1.62493">
        <ele>326.8</ele>
        <time>2022-05-20 22:19:56</time>
      </trkpt>
      <trkpt lat="41.59225" lon="1.62499">
        <ele>326.6</ele>
        <time>2022-05-20 22:19:57</time>
      </trkpt>
      <trkpt lat="41.59228" lon="1.62505">
        <ele>326.6</ele>
        <time>2022-05-20 22:19:58</time>
      </trkpt>
      <trkpt lat="41.5923" lon="1.62511">
        <ele>326.4</ele>
        <time>2022-05-20 22:19:59</time>
      </trkpt>
      <trkpt lat="41.59232" lon="1.62517">
        <ele>326.4</ele>
        <time>2022-05-20 22:20:00</time>
      </trkpt>
      <trkpt lat="41.59235" lon="1.62523">
        <ele>326.4</ele>
        <time>2022-05-20 22:20:01</time>
      </trkpt>
      <trkpt lat="41.59237" lon="1.62531">
        <ele>326.4</ele>
        <time>2022-05-20 22:20:02</time>
      </trkpt>
      <trkpt lat="41.59238" lon="1.62538">
        <ele>326.4</ele>
        <time>2022-05-20 22:20:03</time>
      </trkpt>
      <trkpt lat="41.5924" lon="1.62545">
        <ele>326.2</ele>
        <time>2022-05-20 22:20:04</time>
      </trkpt>
      <trkpt lat="41.59242" lon="1.62551">
        <ele>326</ele>
        <time>2022-05-20 22:20:05</time>
      </trkpt>
      <trkpt lat="41.59246" lon="1.62558">
        <ele>326</ele>
        <time>2022-05-20 22:20:06</time>
      </trkpt>
      <trkpt lat="41.59249" lon="1.62565">
        <ele>326</ele>
        <time>2022-05-20 22:20:07</time>
      </trkpt>
      <trkpt lat="41.59252" lon="1.62572">
        <ele>326</ele>
        <time>2022-05-20 22:20:08</time>
      </trkpt>
      <trkpt lat="41.59254" lon="1.62579">
        <ele>325.8</ele>
        <time>2022-05-20 22:20:09</time>
      </trkpt>
      <trkpt lat="41.59257" lon="1.62587">
        <ele>325.8</ele>
        <time>2022-05-20 22:20:10</time>
      </trkpt>
      <trkpt lat="41.5926" lon="1.62594">
        <ele>326</ele>
        <time>2022-05-20 22:20:11</time>
      </trkpt>
      <trkpt lat="41.59263" lon="1.62601">
        <ele>326</ele>
        <time>2022-05-20 22:20:12</time>
      </trkpt>
      <trkpt lat="41.59266" lon="1.62608">
        <ele>326</ele>
        <time>2022-05-20 22:20:13</time>
      </trkpt>
      <trkpt lat="41.5927" lon="1.62616">
        <ele>326</ele>
        <time>2022-05-20 22:20:14</time>
      </trkpt>
      <trkpt lat="41.59274" lon="1.62624">
        <ele>326.2</ele>
        <time>2022-05-20 22:20:15</time>
      </trkpt>
      <trkpt lat="41.59278" lon="1.62632">
        <ele>326.2</ele>
        <time>2022-05-20 22:20:16</time>
      </trkpt>
      <trkpt lat="41.59282" lon="1.62639">
        <ele>326.2</ele>
        <time>2022-05-20 22:20:17</time>
      </trkpt>
      <trkpt lat="41.59286" lon="1.62647">
        <ele>326.2</ele>
        <time>2022-05-20 22:20:18</time>
      </trkpt>
      <trkpt lat="41.5929" lon="1.62655">
        <ele>326.2</ele>
        <time>2022-05-20 22:20:19</time>
      </trkpt>
      <trkpt lat="41.59293" lon="1.62662">
        <ele>326.2</ele>
        <time>2022-05-20 22:20:20</time>
      </trkpt>
      <trkpt lat="41.59298" lon="1.6267">
        <ele>326.4</ele>
        <time>2022-05-20 22:20:21</time>
      </trkpt>
      <trkpt lat="41.59302" lon="1.62677">
        <ele>326.4</ele>
        <time>2022-05-20 22:20:22</time>
      </trkpt>
      <trkpt lat="41.59306" lon="1.62685">
        <ele>326.4</ele>
        <time>2022-05-20 22:20:23</time>
      </trkpt>
      <trkpt lat="41.59309" lon="1.62692">
        <ele>326.4</ele>
        <time>2022-05-20 22:20:24</time>
      </trkpt>
      <trkpt lat="41.59314" lon="1.627">
        <ele>326.4</ele>
        <time>2022-05-20 22:20:25</time>
      </trkpt>
      <trkpt lat="41.59317" lon="1.62707">
        <ele>326.6</ele>
        <time>2022-05-20 22:20:26</time>
      </trkpt>
      <trkpt lat="41.59322" lon="1.62714">
        <ele>326.6</ele>
        <time>2022-05-20 22:20:27</time>
      </trkpt>
      <trkpt lat="41.59326" lon="1.62721">
        <ele>326.6</ele>
        <time>2022-05-20 22:20:28</time>
      </trkpt>
      <trkpt lat="41.5933" lon="1.62728">
        <ele>326.8</ele>
        <time>2022-05-20 22:20:29</time>
      </trkpt>
      <trkpt lat="41.59333" lon="1.62735">
        <ele>326.8</ele>
        <time>2022-05-20 22:20:30</time>
      </trkpt>
      <trkpt lat="41.59337" lon="1.62742">
        <ele>327</ele>
        <time>2022-05-20 22:20:31</time>
      </trkpt>
      <trkpt lat="41.59341" lon="1.62749">
        <ele>327</ele>
        <time>2022-05-20 22:20:32</time>
      </trkpt>
      <trkpt lat="41.59345" lon="1.62756">
        <ele>327.2</ele>
        <time>2022-05-20 22:20:33</time>
      </trkpt>
      <trkpt lat="41.59349" lon="1.62763">
        <ele>327.4</ele>
        <time>2022-05-20 22:20:34</time>
      </trkpt>
      <trkpt lat="41.59353" lon="1.62769">
        <ele>327.6</ele>
        <time>2022-05-20 22:20:35</time>
      </trkpt>
      <trkpt lat="41.59357" lon="1.62775">
        <ele>327.8</ele>
        <time>2022-05-20 22:20:36</time>
      </trkpt>
      <trkpt lat="41.59361" lon="1.62781">
        <ele>327.8</ele>
        <time>2022-05-20 22:20:37</time>
      </trkpt>
      <trkpt lat="41.59365" lon="1.62787">
        <ele>328</ele>
        <time>2022-05-20 22:20:38</time>
      </trkpt>
      <trkpt lat="41.59369" lon="1.62794">
        <ele>328.2</ele>
        <time>2022-05-20 22:20:39</time>
      </trkpt>
      <trkpt lat="41.59374" lon="1.628">
        <ele>328.4</ele>
        <time>2022-05-20 22:20:40</time>
      </trkpt>
      <trkpt lat="41.59378" lon="1.62806">
        <ele>328.6</ele>
        <time>2022-05-20 22:20:41</time>
      </trkpt>
      <trkpt lat="41.59382" lon="1.62812">
        <ele>328.8</ele>
        <time>2022-05-20 22:20:42</time>
      </trkpt>
      <trkpt lat="41.59386" lon="1.62818">
        <ele>329</ele>
        <time>2022-05-20 22:20:43</time>
      </trkpt>
      <trkpt lat="41.59389" lon="1.62824">
        <ele>329.2</ele>
        <time>2022-05-20 22:20:44</time>
      </trkpt>
      <trkpt lat="41.59392" lon="1.62831">
        <ele>329.4</ele>
        <time>2022-05-20 22:20:45</time>
      </trkpt>
      <trkpt lat="41.59394" lon="1.62837">
        <ele>329.6</ele>
        <time>2022-05-20 22:20:46</time>
      </trkpt>
      <trkpt lat="41.59397" lon="1.62844">
        <ele>329.8</ele>
        <time>2022-05-20 22:20:47</time>
      </trkpt>
      <trkpt lat="41.594" lon="1.6285">
        <ele>330</ele>
        <time>2022-05-20 22:20:48</time>
      </trkpt>
      <trkpt lat="41.59403" lon="1.62856">
        <ele>330.2</ele>
        <time>2022-05-20 22:20:49</time>
      </trkpt>
      <trkpt lat="41.59406" lon="1.62862">
        <ele>330.4</ele>
        <time>2022-05-20 22:20:50</time>
      </trkpt>
      <trkpt lat="41.5941" lon="1.62866">
        <ele>330.4</ele>
        <time>2022-05-20 22:20:51</time>
      </trkpt>
      <trkpt lat="41.59414" lon="1.62871">
        <ele>330.6</ele>
        <time>2022-05-20 22:20:52</time>
      </trkpt>
      <trkpt lat="41.59418" lon="1.62875">
        <ele>330.8</ele>
        <time>2022-05-20 22:20:53</time>
      </trkpt>
      <trkpt lat="41.59422" lon="1.6288">
        <ele>330.8</ele>
        <time>2022-05-20 22:20:54</time>
      </trkpt>
      <trkpt lat="41.59426" lon="1.62885">
        <ele>331</ele>
        <time>2022-05-20 22:20:55</time>
      </trkpt>
      <trkpt lat="41.59429" lon="1.62891">
        <ele>331</ele>
        <time>2022-05-20 22:20:56</time>
      </trkpt>
      <trkpt lat="41.59433" lon="1.62896">
        <ele>331.2</ele>
        <time>2022-05-20 22:20:57</time>
      </trkpt>
      <trkpt lat="41.59437" lon="1.62902">
        <ele>331.2</ele>
        <time>2022-05-20 22:20:58</time>
      </trkpt>
      <trkpt lat="41.59441" lon="1.62908">
        <ele>331.4</ele>
        <time>2022-05-20 22:20:59</time>
      </trkpt>
      <trkpt lat="41.59444" lon="1.62914">
        <ele>331.4</ele>
        <time>2022-05-20 22:21:00</time>
      </trkpt>
      <trkpt lat="41.59448" lon="1.6292">
        <ele>331.4</ele>
        <time>2022-05-20 22:21:01</time>
      </trkpt>
      <trkpt lat="41.59451" lon="1.62925">
        <ele>331.6</ele>
        <time>2022-05-20 22:21:02</time>
      </trkpt>
      <trkpt lat="41.59455" lon="1.62931">
        <ele>331.6</ele>
        <time>2022-05-20 22:21:03</time>
      </trkpt>
      <trkpt lat="41.59459" lon="1.62937">
        <ele>331.6</ele>
        <time>2022-05-20 22:21:04</time>
      </trkpt>
      <trkpt lat="41.59462" lon="1.62943">
        <ele>331.8</ele>
        <time>2022-05-20 22:21:05</time>
      </trkpt>
      <trkpt lat="41.59465" lon="1.62948">
        <ele>331.8</ele>
        <time>2022-05-20 22:21:06</time>
      </trkpt>
      <trkpt lat="41.59469" lon="1.62955">
        <ele>331.8</ele>
        <time>2022-05-20 22:21:07</time>
      </trkpt>
      <trkpt lat="41.59472" lon="1.62961">
        <ele>331.8</ele>
        <time>2022-05-20 22:21:08</time>
      </trkpt>
      <trkpt lat="41.59476" lon="1.62967">
        <ele>332</ele>
        <time>2022-05-20 22:21:09</time>
      </trkpt>
      <trkpt lat="41.5948" lon="1.62973">
        <ele>332</ele>
        <time>2022-05-20 22:21:10</time>
      </trkpt>
      <trkpt lat="41.59484" lon="1.62979">
        <ele>332</ele>
        <time>2022-05-20 22:21:11</time>
      </trkpt>
      <trkpt lat="41.59488" lon="1.62985">
        <ele>332</ele>
        <time>2022-05-20 22:21:12</time>
      </trkpt>
      <trkpt lat="41.59491" lon="1.62991">
        <ele>332.2</ele>
        <time>2022-05-20 22:21:13</time>
      </trkpt>
      <trkpt lat="41.59496" lon="1.62998">
        <ele>332.2</ele>
        <time>2022-05-20 22:21:14</time>
      </trkpt>
      <trkpt lat="41.595" lon="1.63004">
        <ele>332.2</ele>
        <time>2022-05-20 22:21:15</time>
      </trkpt>
      <trkpt lat="41.59505" lon="1.63011">
        <ele>332.4</ele>
        <time>2022-05-20 22:21:16</time>
      </trkpt>
      <trkpt lat="41.59509" lon="1.63018">
        <ele>332.4</ele>
        <time>2022-05-20 22:21:17</time>
      </trkpt>
      <trkpt lat="41.59513" lon="1.63024">
        <ele>332.4</ele>
        <time>2022-05-20 22:21:18</time>
      </trkpt>
      <trkpt lat="41.59517" lon="1.63031">
        <ele>332.4</ele>
        <time>2022-05-20 22:21:19</time>
      </trkpt>
      <trkpt lat="41.59521" lon="1.63037">
        <ele>332.4</ele>
        <time>2022-05-20 22:21:20</time>
      </trkpt>
      <trkpt lat="41.59525" lon="1.63044">
        <ele>332.4</ele>
        <time>2022-05-20 22:21:21</time>
      </trkpt>
      <trkpt lat="41.59529" lon="1.6305">
        <ele>332.4</ele>
        <time>2022-05-20 22:21:22</time>
      </trkpt>
      <trkpt lat="41.59533" lon="1.63057">
        <ele>332.4</ele>
        <time>2022-05-20 22:21:23</time>
      </trkpt>
      <trkpt lat="41.59536" lon="1.63064">
        <ele>332.4</ele>
        <time>2022-05-20 22:21:24</time>
      </trkpt>
      <trkpt lat="41.59541" lon="1.6307">
        <ele>332.4</ele>
        <time>2022-05-20 22:21:25</time>
      </trkpt>
      <trkpt lat="41.59545" lon="1.63077">
        <ele>332.4</ele>
        <time>2022-05-20 22:21:26</time>
      </trkpt>
      <trkpt lat="41.5955" lon="1.63084">
        <ele>332.4</ele>
        <time>2022-05-20 22:21:27</time>
      </trkpt>
      <trkpt lat="41.59555" lon="1.63091">
        <ele>332.4</ele>
        <time>2022-05-20 22:21:28</time>
      </trkpt>
      <trkpt lat="41.59561" lon="1.63097">
        <ele>332.4</ele>
        <time>2022-05-20 22:21:29</time>
      </trkpt>
      <trkpt lat="41.59565" lon="1.63104">
        <ele>332.4</ele>
        <time>2022-05-20 22:21:30</time>
      </trkpt>
      <trkpt lat="41.5957" lon="1.6311">
        <ele>332.4</ele>
        <time>2022-05-20 22:21:31</time>
      </trkpt>
      <trkpt lat="41.59576" lon="1.63117">
        <ele>332.4</ele>
        <time>2022-05-20 22:21:32</time>
      </trkpt>
      <trkpt lat="41.59581" lon="1.63124">
        <ele>332.4</ele>
        <time>2022-05-20 22:21:33</time>
      </trkpt>
      <trkpt lat="41.59585" lon="1.63131">
        <ele>332.4</ele>
        <time>2022-05-20 22:21:34</time>
      </trkpt>
      <trkpt lat="41.5959" lon="1.63137">
        <ele>332.6</ele>
        <time>2022-05-20 22:21:35</time>
      </trkpt>
      <trkpt lat="41.59594" lon="1.63143">
        <ele>332.6</ele>
        <time>2022-05-20 22:21:36</time>
      </trkpt>
      <trkpt lat="41.59599" lon="1.6315">
        <ele>332.6</ele>
        <time>2022-05-20 22:21:37</time>
      </trkpt>
      <trkpt lat="41.59604" lon="1.63156">
        <ele>332.6</ele>
        <time>2022-05-20 22:21:38</time>
      </trkpt>
      <trkpt lat="41.59608" lon="1.63162">
        <ele>332.8</ele>
        <time>2022-05-20 22:21:39</time>
      </trkpt>
      <trkpt lat="41.59613" lon="1.63168">
        <ele>332.8</ele>
        <time>2022-05-20 22:21:40</time>
      </trkpt>
      <trkpt lat="41.59617" lon="1.63175">
        <ele>332.8</ele>
        <time>2022-05-20 22:21:41</time>
      </trkpt>
      <trkpt lat="41.59621" lon="1.63182">
        <ele>333</ele>
        <time>2022-05-20 22:21:42</time>
      </trkpt>
      <trkpt lat="41.59625" lon="1.63189">
        <ele>333</ele>
        <time>2022-05-20 22:21:43</time>
      </trkpt>
      <trkpt lat="41.59629" lon="1.63195">
        <ele>333.2</ele>
        <time>2022-05-20 22:21:44</time>
      </trkpt>
      <trkpt lat="41.59633" lon="1.63202">
        <ele>333.2</ele>
        <time>2022-05-20 22:21:45</time>
      </trkpt>
      <trkpt lat="41.59637" lon="1.63208">
        <ele>333.4</ele>
        <time>2022-05-20 22:21:46</time>
      </trkpt>
      <trkpt lat="41.59641" lon="1.63214">
        <ele>333.4</ele>
        <time>2022-05-20 22:21:47</time>
      </trkpt>
      <trkpt lat="41.59645" lon="1.63219">
        <ele>333.6</ele>
        <time>2022-05-20 22:21:48</time>
      </trkpt>
      <trkpt lat="41.59649" lon="1.63225">
        <ele>333.8</ele>
        <time>2022-05-20 22:21:49</time>
      </trkpt>
      <trkpt lat="41.59653" lon="1.63231">
        <ele>333.8</ele>
        <time>2022-05-20 22:21:50</time>
      </trkpt>
      <trkpt lat="41.59657" lon="1.63237">
        <ele>334</ele>
        <time>2022-05-20 22:21:51</time>
      </trkpt>
      <trkpt lat="41.5966" lon="1.63243">
        <ele>334</ele>
        <time>2022-05-20 22:21:52</time>
      </trkpt>
      <trkpt lat="41.59664" lon="1.63249">
        <ele>334.2</ele>
        <time>2022-05-20 22:21:53</time>
      </trkpt>
      <trkpt lat="41.59668" lon="1.63256">
        <ele>334.2</ele>
        <time>2022-05-20 22:21:54</time>
      </trkpt>
      <trkpt lat="41.59671" lon="1.63262">
        <ele>334.2</ele>
        <time>2022-05-20 22:21:55</time>
      </trkpt>
      <trkpt lat="41.59675" lon="1.63268">
        <ele>334.4</ele>
        <time>2022-05-20 22:21:56</time>
      </trkpt>
      <trkpt lat="41.59679" lon="1.63274">
        <ele>334.4</ele>
        <time>2022-05-20 22:21:57</time>
      </trkpt>
      <trkpt lat="41.59683" lon="1.6328">
        <ele>334.6</ele>
        <time>2022-05-20 22:21:58</time>
      </trkpt>
      <trkpt lat="41.59688" lon="1.63286">
        <ele>334.6</ele>
        <time>2022-05-20 22:21:59</time>
      </trkpt>
      <trkpt lat="41.59692" lon="1.63291">
        <ele>334.6</ele>
        <time>2022-05-20 22:22:00</time>
      </trkpt>
      <trkpt lat="41.59696" lon="1.63298">
        <ele>334.6</ele>
        <time>2022-05-20 22:22:01</time>
      </trkpt>
      <trkpt lat="41.597" lon="1.63304">
        <ele>334.6</ele>
        <time>2022-05-20 22:22:02</time>
      </trkpt>
      <trkpt lat="41.59705" lon="1.6331">
        <ele>334.4</ele>
        <time>2022-05-20 22:22:03</time>
      </trkpt>
      <trkpt lat="41.5971" lon="1.63316">
        <ele>334.4</ele>
        <time>2022-05-20 22:22:04</time>
      </trkpt>
      <trkpt lat="41.59715" lon="1.63323">
        <ele>334.2</ele>
        <time>2022-05-20 22:22:05</time>
      </trkpt>
      <trkpt lat="41.5972" lon="1.6333">
        <ele>334</ele>
        <time>2022-05-20 22:22:06</time>
      </trkpt>
      <trkpt lat="41.59725" lon="1.63336">
        <ele>333.8</ele>
        <time>2022-05-20 22:22:07</time>
      </trkpt>
      <trkpt lat="41.5973" lon="1.63343">
        <ele>333.6</ele>
        <time>2022-05-20 22:22:08</time>
      </trkpt>
      <trkpt lat="41.59735" lon="1.6335">
        <ele>333.4</ele>
        <time>2022-05-20 22:22:09</time>
      </trkpt>
      <trkpt lat="41.59741" lon="1.63356">
        <ele>333.2</ele>
        <time>2022-05-20 22:22:10</time>
      </trkpt>
      <trkpt lat="41.59747" lon="1.63363">
        <ele>333</ele>
        <time>2022-05-20 22:22:11</time>
      </trkpt>
      <trkpt lat="41.59752" lon="1.63371">
        <ele>332.6</ele>
        <time>2022-05-20 22:22:12</time>
      </trkpt>
      <trkpt lat="41.59758" lon="1.63378">
        <ele>332.2</ele>
        <time>2022-05-20 22:22:13</time>
      </trkpt>
      <trkpt lat="41.59764" lon="1.63385">
        <ele>331.8</ele>
        <time>2022-05-20 22:22:14</time>
      </trkpt>
      <trkpt lat="41.59771" lon="1.63394">
        <ele>331.2</ele>
        <time>2022-05-20 22:22:15</time>
      </trkpt>
      <trkpt lat="41.59777" lon="1.63402">
        <ele>330.8</ele>
        <time>2022-05-20 22:22:16</time>
      </trkpt>
      <trkpt lat="41.59784" lon="1.63411">
        <ele>330.2</ele>
        <time>2022-05-20 22:22:17</time>
      </trkpt>
      <trkpt lat="41.59791" lon="1.6342">
        <ele>329.6</ele>
        <time>2022-05-20 22:22:18</time>
      </trkpt>
      <trkpt lat="41.59798" lon="1.63428">
        <ele>328.8</ele>
        <time>2022-05-20 22:22:19</time>
      </trkpt>
      <trkpt lat="41.59805" lon="1.63438">
        <ele>328</ele>
        <time>2022-05-20 22:22:20</time>
      </trkpt>
      <trkpt lat="41.59813" lon="1.63447">
        <ele>327.4</ele>
        <time>2022-05-20 22:22:21</time>
      </trkpt>
      <trkpt lat="41.59821" lon="1.63455">
        <ele>326.6</ele>
        <time>2022-05-20 22:22:22</time>
      </trkpt>
      <trkpt lat="41.5983" lon="1.63464">
        <ele>325.8</ele>
        <time>2022-05-20 22:22:23</time>
      </trkpt>
      <trkpt lat="41.59838" lon="1.63473">
        <ele>325</ele>
        <time>2022-05-20 22:22:24</time>
      </trkpt>
      <trkpt lat="41.59847" lon="1.63482">
        <ele>324.2</ele>
        <time>2022-05-20 22:22:25</time>
      </trkpt>
      <trkpt lat="41.59856" lon="1.63492">
        <ele>323.2</ele>
        <time>2022-05-20 22:22:26</time>
      </trkpt>
      <trkpt lat="41.59867" lon="1.63502">
        <ele>322.4</ele>
        <time>2022-05-20 22:22:27</time>
      </trkpt>
      <trkpt lat="41.59877" lon="1.63511">
        <ele>321.6</ele>
        <time>2022-05-20 22:22:28</time>
      </trkpt>
      <trkpt lat="41.59887" lon="1.6352">
        <ele>320.8</ele>
        <time>2022-05-20 22:22:29</time>
      </trkpt>
      <trkpt lat="41.59898" lon="1.63527">
        <ele>320.2</ele>
        <time>2022-05-20 22:22:30</time>
      </trkpt>
      <trkpt lat="41.59908" lon="1.63534">
        <ele>319.8</ele>
        <time>2022-05-20 22:22:31</time>
      </trkpt>
      <trkpt lat="41.59919" lon="1.6354">
        <ele>319.4</ele>
        <time>2022-05-20 22:22:32</time>
      </trkpt>
      <trkpt lat="41.59929" lon="1.63545">
        <ele>319.2</ele>
        <time>2022-05-20 22:22:33</time>
      </trkpt>
      <trkpt lat="41.5994" lon="1.63549">
        <ele>319</ele>
        <time>2022-05-20 22:22:34</time>
      </trkpt>
      <trkpt lat="41.5995" lon="1.63552">
        <ele>319</ele>
        <time>2022-05-20 22:22:35</time>
      </trkpt>
      <trkpt lat="41.59959" lon="1.63555">
        <ele>319</ele>
        <time>2022-05-20 22:22:36</time>
      </trkpt>
      <trkpt lat="41.59968" lon="1.63558">
        <ele>319.2</ele>
        <time>2022-05-20 22:22:37</time>
      </trkpt>
      <trkpt lat="41.59976" lon="1.6356">
        <ele>319.4</ele>
        <time>2022-05-20 22:22:38</time>
      </trkpt>
      <trkpt lat="41.59984" lon="1.63563">
        <ele>319.6</ele>
        <time>2022-05-20 22:22:39</time>
      </trkpt>
      <trkpt lat="41.59991" lon="1.63564">
        <ele>319.8</ele>
        <time>2022-05-20 22:22:40</time>
      </trkpt>
      <trkpt lat="41.59999" lon="1.63566">
        <ele>320.2</ele>
        <time>2022-05-20 22:22:41</time>
      </trkpt>
      <trkpt lat="41.60006" lon="1.63568">
        <ele>320.6</ele>
        <time>2022-05-20 22:22:42</time>
      </trkpt>
      <trkpt lat="41.60013" lon="1.6357">
        <ele>321</ele>
        <time>2022-05-20 22:22:43</time>
      </trkpt>
      <trkpt lat="41.6002" lon="1.63571">
        <ele>321.4</ele>
        <time>2022-05-20 22:22:44</time>
      </trkpt>
      <trkpt lat="41.60025" lon="1.63572">
        <ele>321.8</ele>
        <time>2022-05-20 22:22:45</time>
      </trkpt>
      <trkpt lat="41.60029" lon="1.63574">
        <ele>322.4</ele>
        <time>2022-05-20 22:22:46</time>
      </trkpt>
      <trkpt lat="41.60033" lon="1.63575">
        <ele>322.8</ele>
        <time>2022-05-20 22:22:47</time>
      </trkpt>
      <trkpt lat="41.60038" lon="1.63576">
        <ele>323.4</ele>
        <time>2022-05-20 22:22:48</time>
      </trkpt>
      <trkpt lat="41.60042" lon="1.63576">
        <ele>323.8</ele>
        <time>2022-05-20 22:22:49</time>
      </trkpt>
      <trkpt lat="41.60046" lon="1.63575">
        <ele>324.2</ele>
        <time>2022-05-20 22:22:50</time>
      </trkpt>
      <trkpt lat="41.60049" lon="1.63575">
        <ele>324.6</ele>
        <time>2022-05-20 22:22:51</time>
      </trkpt>
      <trkpt lat="41.60053" lon="1.63575">
        <ele>325</ele>
        <time>2022-05-20 22:22:52</time>
      </trkpt>
      <trkpt lat="41.60056" lon="1.63576">
        <ele>325.4</ele>
        <time>2022-05-20 22:22:53</time>
      </trkpt>
      <trkpt lat="41.6006" lon="1.63577">
        <ele>325.6</ele>
        <time>2022-05-20 22:22:54</time>
      </trkpt>
      <trkpt lat="41.60064" lon="1.63577">
        <ele>326</ele>
        <time>2022-05-20 22:22:55</time>
      </trkpt>
      <trkpt lat="41.60067" lon="1.63578">
        <ele>326.4</ele>
        <time>2022-05-20 22:22:56</time>
      </trkpt>
      <trkpt lat="41.60071" lon="1.63578">
        <ele>326.6</ele>
        <time>2022-05-20 22:22:57</time>
      </trkpt>
      <trkpt lat="41.60075" lon="1.63579">
        <ele>327</ele>
        <time>2022-05-20 22:22:58</time>
      </trkpt>
      <trkpt lat="41.60079" lon="1.63579">
        <ele>327.2</ele>
        <time>2022-05-20 22:22:59</time>
      </trkpt>
      <trkpt lat="41.60082" lon="1.6358">
        <ele>327.6</ele>
        <time>2022-05-20 22:23:00</time>
      </trkpt>
      <trkpt lat="41.60086" lon="1.6358">
        <ele>327.8</ele>
        <time>2022-05-20 22:23:01</time>
      </trkpt>
      <trkpt lat="41.60089" lon="1.63581">
        <ele>328.2</ele>
        <time>2022-05-20 22:23:02</time>
      </trkpt>
      <trkpt lat="41.60093" lon="1.63582">
        <ele>328.4</ele>
        <time>2022-05-20 22:23:03</time>
      </trkpt>
      <trkpt lat="41.60096" lon="1.63582">
        <ele>328.8</ele>
        <time>2022-05-20 22:23:04</time>
      </trkpt>
      <trkpt lat="41.601" lon="1.63583">
        <ele>329</ele>
        <time>2022-05-20 22:23:05</time>
      </trkpt>
      <trkpt lat="41.60104" lon="1.63584">
        <ele>329.2</ele>
        <time>2022-05-20 22:23:06</time>
      </trkpt>
      <trkpt lat="41.60107" lon="1.63585">
        <ele>329.6</ele>
        <time>2022-05-20 22:23:07</time>
      </trkpt>
      <trkpt lat="41.6011" lon="1.63585">
        <ele>329.8</ele>
        <time>2022-05-20 22:23:08</time>
      </trkpt>
      <trkpt lat="41.60114" lon="1.63586">
        <ele>330.2</ele>
        <time>2022-05-20 22:23:09</time>
      </trkpt>
      <trkpt lat="41.60117" lon="1.63586">
        <ele>330.4</ele>
        <time>2022-05-20 22:23:10</time>
      </trkpt>
      <trkpt lat="41.6012" lon="1.63587">
        <ele>330.6</ele>
        <time>2022-05-20 22:23:11</time>
      </trkpt>
      <trkpt lat="41.60123" lon="1.63587">
        <ele>331</ele>
        <time>2022-05-20 22:23:12</time>
      </trkpt>
      <trkpt lat="41.60127" lon="1.63588">
        <ele>331.2</ele>
        <time>2022-05-20 22:23:13</time>
      </trkpt>
      <trkpt lat="41.6013" lon="1.63589">
        <ele>331.4</ele>
        <time>2022-05-20 22:23:14</time>
      </trkpt>
      <trkpt lat="41.60134" lon="1.6359">
        <ele>331.8</ele>
        <time>2022-05-20 22:23:15</time>
      </trkpt>
      <trkpt lat="41.60137" lon="1.63591">
        <ele>332</ele>
        <time>2022-05-20 22:23:16</time>
      </trkpt>
      <trkpt lat="41.6014" lon="1.63592">
        <ele>332.4</ele>
        <time>2022-05-20 22:23:17</time>
      </trkpt>
      <trkpt lat="41.60143" lon="1.63592">
        <ele>332.6</ele>
        <time>2022-05-20 22:23:18</time>
      </trkpt>
      <trkpt lat="41.60146" lon="1.63593">
        <ele>332.8</ele>
        <time>2022-05-20 22:23:19</time>
      </trkpt>
      <trkpt lat="41.6015" lon="1.63594">
        <ele>333.2</ele>
        <time>2022-05-20 22:23:20</time>
      </trkpt>
      <trkpt lat="41.60153" lon="1.63595">
        <ele>333.4</ele>
        <time>2022-05-20 22:23:21</time>
      </trkpt>
      <trkpt lat="41.60156" lon="1.63596">
        <ele>333.6</ele>
        <time>2022-05-20 22:23:22</time>
      </trkpt>
      <trkpt lat="41.60159" lon="1.63597">
        <ele>333.8</ele>
        <time>2022-05-20 22:23:23</time>
      </trkpt>
      <trkpt lat="41.60162" lon="1.63598">
        <ele>334.2</ele>
        <time>2022-05-20 22:23:24</time>
      </trkpt>
      <trkpt lat="41.60165" lon="1.63599">
        <ele>334.4</ele>
        <time>2022-05-20 22:23:25</time>
      </trkpt>
      <trkpt lat="41.60168" lon="1.636">
        <ele>334.6</ele>
        <time>2022-05-20 22:23:26</time>
      </trkpt>
      <trkpt lat="41.60171" lon="1.63602">
        <ele>335</ele>
        <time>2022-05-20 22:23:27</time>
      </trkpt>
      <trkpt lat="41.60174" lon="1.63603">
        <ele>335.2</ele>
        <time>2022-05-20 22:23:28</time>
      </trkpt>
      <trkpt lat="41.60176" lon="1.63604">
        <ele>335.4</ele>
        <time>2022-05-20 22:23:29</time>
      </trkpt>
      <trkpt lat="41.6018" lon="1.63606">
        <ele>335.6</ele>
        <time>2022-05-20 22:23:30</time>
      </trkpt>
      <trkpt lat="41.60182" lon="1.63608">
        <ele>336</ele>
        <time>2022-05-20 22:23:31</time>
      </trkpt>
      <trkpt lat="41.60184" lon="1.63609">
        <ele>336.2</ele>
        <time>2022-05-20 22:23:32</time>
      </trkpt>
      <trkpt lat="41.60187" lon="1.63611">
        <ele>336.4</ele>
        <time>2022-05-20 22:23:33</time>
      </trkpt>
      <trkpt lat="41.6019" lon="1.63613">
        <ele>336.6</ele>
        <time>2022-05-20 22:23:34</time>
      </trkpt>
      <trkpt lat="41.60192" lon="1.63616">
        <ele>336.8</ele>
        <time>2022-05-20 22:23:35</time>
      </trkpt>
      <trkpt lat="41.60194" lon="1.63618">
        <ele>337</ele>
        <time>2022-05-20 22:23:36</time>
      </trkpt>
      <trkpt lat="41.60197" lon="1.6362">
        <ele>337.2</ele>
        <time>2022-05-20 22:23:37</time>
      </trkpt>
      <trkpt lat="41.60199" lon="1.63622">
        <ele>337.4</ele>
        <time>2022-05-20 22:23:38</time>
      </trkpt>
      <trkpt lat="41.60202" lon="1.63625">
        <ele>337.6</ele>
        <time>2022-05-20 22:23:39</time>
      </trkpt>
      <trkpt lat="41.60204" lon="1.63627">
        <ele>337.8</ele>
        <time>2022-05-20 22:23:40</time>
      </trkpt>
      <trkpt lat="41.60206" lon="1.63629">
        <ele>338</ele>
        <time>2022-05-20 22:23:41</time>
      </trkpt>
      <trkpt lat="41.60209" lon="1.63632">
        <ele>338.4</ele>
        <time>2022-05-20 22:23:42</time>
      </trkpt>
      <trkpt lat="41.60211" lon="1.63634">
        <ele>338.6</ele>
        <time>2022-05-20 22:23:43</time>
      </trkpt>
      <trkpt lat="41.60213" lon="1.63637">
        <ele>338.8</ele>
        <time>2022-05-20 22:23:44</time>
      </trkpt>
      <trkpt lat="41.60215" lon="1.6364">
        <ele>339</ele>
        <time>2022-05-20 22:23:45</time>
      </trkpt>
      <trkpt lat="41.60217" lon="1.63642">
        <ele>339.4</ele>
        <time>2022-05-20 22:23:46</time>
      </trkpt>
      <trkpt lat="41.60219" lon="1.63645">
        <ele>339.6</ele>
        <time>2022-05-20 22:23:47</time>
      </trkpt>
      <trkpt lat="41.60221" lon="1.63648">
        <ele>339.8</ele>
        <time>2022-05-20 22:23:48</time>
      </trkpt>
      <trkpt lat="41.60223" lon="1.63651">
        <ele>340.2</ele>
        <time>2022-05-20 22:23:49</time>
      </trkpt>
      <trkpt lat="41.60225" lon="1.63654">
        <ele>340.4</ele>
        <time>2022-05-20 22:23:50</time>
      </trkpt>
      <trkpt lat="41.60228" lon="1.63656">
        <ele>340.6</ele>
        <time>2022-05-20 22:23:51</time>
      </trkpt>
      <trkpt lat="41.6023" lon="1.63659">
        <ele>340.8</ele>
        <time>2022-05-20 22:23:52</time>
      </trkpt>
      <trkpt lat="41.60232" lon="1.63662">
        <ele>341</ele>
        <time>2022-05-20 22:23:53</time>
      </trkpt>
      <trkpt lat="41.60234" lon="1.63665">
        <ele>341.2</ele>
        <time>2022-05-20 22:23:54</time>
      </trkpt>
      <trkpt lat="41.60236" lon="1.63669">
        <ele>341.6</ele>
        <time>2022-05-20 22:23:55</time>
      </trkpt>
      <trkpt lat="41.60237" lon="1.63672">
        <ele>341.8</ele>
        <time>2022-05-20 22:23:56</time>
      </trkpt>
      <trkpt lat="41.60239" lon="1.63676">
        <ele>342</ele>
        <time>2022-05-20 22:23:57</time>
      </trkpt>
      <trkpt lat="41.60241" lon="1.63679">
        <ele>342.2</ele>
        <time>2022-05-20 22:23:58</time>
      </trkpt>
      <trkpt lat="41.60243" lon="1.63683">
        <ele>342.4</ele>
        <time>2022-05-20 22:23:59</time>
      </trkpt>
      <trkpt lat="41.60244" lon="1.63686">
        <ele>342.4</ele>
        <time>2022-05-20 22:24:00</time>
      </trkpt>
      <trkpt lat="41.60246" lon="1.63689">
        <ele>342.6</ele>
        <time>2022-05-20 22:24:01</time>
      </trkpt>
      <trkpt lat="41.60248" lon="1.63694">
        <ele>342.8</ele>
        <time>2022-05-20 22:24:02</time>
      </trkpt>
      <trkpt lat="41.6025" lon="1.63697">
        <ele>343</ele>
        <time>2022-05-20 22:24:03</time>
      </trkpt>
      <trkpt lat="41.60251" lon="1.63701">
        <ele>343.2</ele>
        <time>2022-05-20 22:24:04</time>
      </trkpt>
      <trkpt lat="41.60253" lon="1.63705">
        <ele>343.4</ele>
        <time>2022-05-20 22:24:05</time>
      </trkpt>
      <trkpt lat="41.60254" lon="1.63709">
        <ele>343.6</ele>
        <time>2022-05-20 22:24:06</time>
      </trkpt>
      <trkpt lat="41.60255" lon="1.63712">
        <ele>344</ele>
        <time>2022-05-20 22:24:07</time>
      </trkpt>
      <trkpt lat="41.60256" lon="1.63716">
        <ele>344.2</ele>
        <time>2022-05-20 22:24:08</time>
      </trkpt>
      <trkpt lat="41.60257" lon="1.6372">
        <ele>344.4</ele>
        <time>2022-05-20 22:24:09</time>
      </trkpt>
      <trkpt lat="41.60258" lon="1.63724">
        <ele>344.6</ele>
        <time>2022-05-20 22:24:10</time>
      </trkpt>
      <trkpt lat="41.60259" lon="1.63728">
        <ele>344.8</ele>
        <time>2022-05-20 22:24:11</time>
      </trkpt>
      <trkpt lat="41.6026" lon="1.63731">
        <ele>345</ele>
        <time>2022-05-20 22:24:12</time>
      </trkpt>
      <trkpt lat="41.60262" lon="1.63736">
        <ele>345.2</ele>
        <time>2022-05-20 22:24:13</time>
      </trkpt>
      <trkpt lat="41.60263" lon="1.63741">
        <ele>345.2</ele>
        <time>2022-05-20 22:24:14</time>
      </trkpt>
      <trkpt lat="41.60264" lon="1.63745">
        <ele>345.4</ele>
        <time>2022-05-20 22:24:15</time>
      </trkpt>
      <trkpt lat="41.60265" lon="1.6375">
        <ele>345.6</ele>
        <time>2022-05-20 22:24:16</time>
      </trkpt>
      <trkpt lat="41.60266" lon="1.63754">
        <ele>345.8</ele>
        <time>2022-05-20 22:24:17</time>
      </trkpt>
      <trkpt lat="41.60267" lon="1.63759">
        <ele>346</ele>
        <time>2022-05-20 22:24:18</time>
      </trkpt>
      <trkpt lat="41.60268" lon="1.63764">
        <ele>346.2</ele>
        <time>2022-05-20 22:24:19</time>
      </trkpt>
      <trkpt lat="41.60268" lon="1.63769">
        <ele>346.2</ele>
        <time>2022-05-20 22:24:20</time>
      </trkpt>
      <trkpt lat="41.60269" lon="1.63773">
        <ele>346.4</ele>
        <time>2022-05-20 22:24:21</time>
      </trkpt>
      <trkpt lat="41.6027" lon="1.63778">
        <ele>346.6</ele>
        <time>2022-05-20 22:24:22</time>
      </trkpt>
      <trkpt lat="41.60271" lon="1.63783">
        <ele>346.8</ele>
        <time>2022-05-20 22:24:23</time>
      </trkpt>
      <trkpt lat="41.60271" lon="1.63788">
        <ele>347</ele>
        <time>2022-05-20 22:24:24</time>
      </trkpt>
      <trkpt lat="41.60272" lon="1.63792">
        <ele>347.2</ele>
        <time>2022-05-20 22:24:25</time>
      </trkpt>
      <trkpt lat="41.60273" lon="1.63797">
        <ele>347.4</ele>
        <time>2022-05-20 22:24:26</time>
      </trkpt>
      <trkpt lat="41.60274" lon="1.63802">
        <ele>347.4</ele>
        <time>2022-05-20 22:24:27</time>
      </trkpt>
      <trkpt lat="41.60275" lon="1.63806">
        <ele>347.6</ele>
        <time>2022-05-20 22:24:28</time>
      </trkpt>
      <trkpt lat="41.60275" lon="1.63811">
        <ele>347.8</ele>
        <time>2022-05-20 22:24:29</time>
      </trkpt>
      <trkpt lat="41.60276" lon="1.63816">
        <ele>348</ele>
        <time>2022-05-20 22:24:30</time>
      </trkpt>
      <trkpt lat="41.60277" lon="1.63821">
        <ele>348.2</ele>
        <time>2022-05-20 22:24:31</time>
      </trkpt>
      <trkpt lat="41.60278" lon="1.63825">
        <ele>348.2</ele>
        <time>2022-05-20 22:24:32</time>
      </trkpt>
      <trkpt lat="41.60278" lon="1.6383">
        <ele>348.4</ele>
        <time>2022-05-20 22:24:33</time>
      </trkpt>
      <trkpt lat="41.60279" lon="1.63835">
        <ele>348.6</ele>
        <time>2022-05-20 22:24:34</time>
      </trkpt>
      <trkpt lat="41.6028" lon="1.6384">
        <ele>348.8</ele>
        <time>2022-05-20 22:24:35</time>
      </trkpt>
      <trkpt lat="41.60281" lon="1.63845">
        <ele>349</ele>
        <time>2022-05-20 22:24:36</time>
      </trkpt>
      <trkpt lat="41.60282" lon="1.63849">
        <ele>349</ele>
        <time>2022-05-20 22:24:37</time>
      </trkpt>
      <trkpt lat="41.60283" lon="1.63854">
        <ele>349.2</ele>
        <time>2022-05-20 22:24:38</time>
      </trkpt>
      <trkpt lat="41.60283" lon="1.63858">
        <ele>349.4</ele>
        <time>2022-05-20 22:24:39</time>
      </trkpt>
      <trkpt lat="41.60284" lon="1.63863">
        <ele>349.6</ele>
        <time>2022-05-20 22:24:40</time>
      </trkpt>
      <trkpt lat="41.60285" lon="1.63868">
        <ele>349.8</ele>
        <time>2022-05-20 22:24:41</time>
      </trkpt>
      <trkpt lat="41.60286" lon="1.63872">
        <ele>350</ele>
        <time>2022-05-20 22:24:42</time>
      </trkpt>
      <trkpt lat="41.60287" lon="1.63877">
        <ele>350</ele>
        <time>2022-05-20 22:24:43</time>
      </trkpt>
      <trkpt lat="41.60289" lon="1.63881">
        <ele>350.2</ele>
        <time>2022-05-20 22:24:44</time>
      </trkpt>
      <trkpt lat="41.60291" lon="1.63885">
        <ele>350.4</ele>
        <time>2022-05-20 22:24:45</time>
      </trkpt>
      <trkpt lat="41.60292" lon="1.6389">
        <ele>350.6</ele>
        <time>2022-05-20 22:24:46</time>
      </trkpt>
      <trkpt lat="41.60294" lon="1.63894">
        <ele>350.8</ele>
        <time>2022-05-20 22:24:47</time>
      </trkpt>
      <trkpt lat="41.60295" lon="1.63898">
        <ele>351</ele>
        <time>2022-05-20 22:24:48</time>
      </trkpt>
      <trkpt lat="41.60297" lon="1.63902">
        <ele>351.2</ele>
        <time>2022-05-20 22:24:49</time>
      </trkpt>
      <trkpt lat="41.60299" lon="1.63906">
        <ele>351.2</ele>
        <time>2022-05-20 22:24:50</time>
      </trkpt>
      <trkpt lat="41.60301" lon="1.6391">
        <ele>351.4</ele>
        <time>2022-05-20 22:24:51</time>
      </trkpt>
      <trkpt lat="41.60303" lon="1.63914">
        <ele>351.6</ele>
        <time>2022-05-20 22:24:52</time>
      </trkpt>
      <trkpt lat="41.60305" lon="1.63919">
        <ele>351.8</ele>
        <time>2022-05-20 22:24:53</time>
      </trkpt>
      <trkpt lat="41.60307" lon="1.63923">
        <ele>351.8</ele>
        <time>2022-05-20 22:24:54</time>
      </trkpt>
      <trkpt lat="41.6031" lon="1.63927">
        <ele>352</ele>
        <time>2022-05-20 22:24:55</time>
      </trkpt>
      <trkpt lat="41.60312" lon="1.63931">
        <ele>352.2</ele>
        <time>2022-05-20 22:24:56</time>
      </trkpt>
      <trkpt lat="41.60314" lon="1.63935">
        <ele>352.4</ele>
        <time>2022-05-20 22:24:57</time>
      </trkpt>
      <trkpt lat="41.60316" lon="1.63939">
        <ele>352.4</ele>
        <time>2022-05-20 22:24:58</time>
      </trkpt>
      <trkpt lat="41.60318" lon="1.63943">
        <ele>352.6</ele>
        <time>2022-05-20 22:24:59</time>
      </trkpt>
      <trkpt lat="41.6032" lon="1.63947">
        <ele>352.8</ele>
        <time>2022-05-20 22:25:00</time>
      </trkpt>
      <trkpt lat="41.60322" lon="1.63951">
        <ele>352.8</ele>
        <time>2022-05-20 22:25:01</time>
      </trkpt>
      <trkpt lat="41.60324" lon="1.63956">
        <ele>353</ele>
        <time>2022-05-20 22:25:02</time>
      </trkpt>
      <trkpt lat="41.60326" lon="1.63959">
        <ele>353.2</ele>
        <time>2022-05-20 22:25:03</time>
      </trkpt>
      <trkpt lat="41.60328" lon="1.63963">
        <ele>353.4</ele>
        <time>2022-05-20 22:25:04</time>
      </trkpt>
      <trkpt lat="41.60331" lon="1.63967">
        <ele>353.6</ele>
        <time>2022-05-20 22:25:05</time>
      </trkpt>
      <trkpt lat="41.60333" lon="1.63971">
        <ele>353.8</ele>
        <time>2022-05-20 22:25:06</time>
      </trkpt>
      <trkpt lat="41.60335" lon="1.63975">
        <ele>354</ele>
        <time>2022-05-20 22:25:07</time>
      </trkpt>
      <trkpt lat="41.60337" lon="1.63978">
        <ele>354.2</ele>
        <time>2022-05-20 22:25:08</time>
      </trkpt>
      <trkpt lat="41.60339" lon="1.63982">
        <ele>354.4</ele>
        <time>2022-05-20 22:25:09</time>
      </trkpt>
      <trkpt lat="41.60341" lon="1.63986">
        <ele>354.6</ele>
        <time>2022-05-20 22:25:10</time>
      </trkpt>
      <trkpt lat="41.60343" lon="1.63989">
        <ele>354.8</ele>
        <time>2022-05-20 22:25:11</time>
      </trkpt>
      <trkpt lat="41.60345" lon="1.63993">
        <ele>355</ele>
        <time>2022-05-20 22:25:12</time>
      </trkpt>
      <trkpt lat="41.60348" lon="1.63996">
        <ele>355.2</ele>
        <time>2022-05-20 22:25:13</time>
      </trkpt>
      <trkpt lat="41.6035" lon="1.64">
        <ele>355.4</ele>
        <time>2022-05-20 22:25:14</time>
      </trkpt>
      <trkpt lat="41.60352" lon="1.64004">
        <ele>355.6</ele>
        <time>2022-05-20 22:25:15</time>
      </trkpt>
      <trkpt lat="41.60354" lon="1.64007">
        <ele>355.8</ele>
        <time>2022-05-20 22:25:16</time>
      </trkpt>
      <trkpt lat="41.60356" lon="1.64011">
        <ele>356</ele>
        <time>2022-05-20 22:25:17</time>
      </trkpt>
      <trkpt lat="41.60358" lon="1.64015">
        <ele>356.2</ele>
        <time>2022-05-20 22:25:18</time>
      </trkpt>
      <trkpt lat="41.6036" lon="1.64018">
        <ele>356.4</ele>
        <time>2022-05-20 22:25:19</time>
      </trkpt>
      <trkpt lat="41.60363" lon="1.64021">
        <ele>356.6</ele>
        <time>2022-05-20 22:25:20</time>
      </trkpt>
      <trkpt lat="41.60366" lon="1.64024">
        <ele>356.8</ele>
        <time>2022-05-20 22:25:21</time>
      </trkpt>
      <trkpt lat="41.60369" lon="1.64027">
        <ele>357</ele>
        <time>2022-05-20 22:25:22</time>
      </trkpt>
      <trkpt lat="41.60372" lon="1.64029">
        <ele>357.2</ele>
        <time>2022-05-20 22:25:23</time>
      </trkpt>
      <trkpt lat="41.60375" lon="1.64031">
        <ele>357.4</ele>
        <time>2022-05-20 22:25:24</time>
      </trkpt>
      <trkpt lat="41.60378" lon="1.64033">
        <ele>357.6</ele>
        <time>2022-05-20 22:25:25</time>
      </trkpt>
      <trkpt lat="41.60381" lon="1.64034">
        <ele>357.8</ele>
        <time>2022-05-20 22:25:26</time>
      </trkpt>
      <trkpt lat="41.60384" lon="1.64036">
        <ele>358</ele>
        <time>2022-05-20 22:25:27</time>
      </trkpt>
      <trkpt lat="41.60387" lon="1.64037">
        <ele>358.2</ele>
        <time>2022-05-20 22:25:28</time>
      </trkpt>
      <trkpt lat="41.6039" lon="1.64039">
        <ele>358.4</ele>
        <time>2022-05-20 22:25:29</time>
      </trkpt>
      <trkpt lat="41.60394" lon="1.6404">
        <ele>358.6</ele>
        <time>2022-05-20 22:25:30</time>
      </trkpt>
      <trkpt lat="41.60397" lon="1.64042">
        <ele>358.8</ele>
        <time>2022-05-20 22:25:31</time>
      </trkpt>
      <trkpt lat="41.604" lon="1.64044">
        <ele>359</ele>
        <time>2022-05-20 22:25:32</time>
      </trkpt>
      <trkpt lat="41.60403" lon="1.64045">
        <ele>359.2</ele>
        <time>2022-05-20 22:25:33</time>
      </trkpt>
      <trkpt lat="41.60407" lon="1.64047">
        <ele>359.4</ele>
        <time>2022-05-20 22:25:34</time>
      </trkpt>
      <trkpt lat="41.6041" lon="1.64049">
        <ele>359.4</ele>
        <time>2022-05-20 22:25:35</time>
      </trkpt>
      <trkpt lat="41.60413" lon="1.6405">
        <ele>359.6</ele>
        <time>2022-05-20 22:25:36</time>
      </trkpt>
      <trkpt lat="41.60417" lon="1.64052">
        <ele>359.8</ele>
        <time>2022-05-20 22:25:37</time>
      </trkpt>
      <trkpt lat="41.6042" lon="1.64053">
        <ele>360</ele>
        <time>2022-05-20 22:25:38</time>
      </trkpt>
      <trkpt lat="41.60424" lon="1.64055">
        <ele>360.2</ele>
        <time>2022-05-20 22:25:39</time>
      </trkpt>
      <trkpt lat="41.60427" lon="1.64056">
        <ele>360.4</ele>
        <time>2022-05-20 22:25:40</time>
      </trkpt>
      <trkpt lat="41.6043" lon="1.64058">
        <ele>360.6</ele>
        <time>2022-05-20 22:25:41</time>
      </trkpt>
      <trkpt lat="41.60434" lon="1.6406">
        <ele>360.6</ele>
        <time>2022-05-20 22:25:42</time>
      </trkpt>
      <trkpt lat="41.60437" lon="1.64062">
        <ele>360.8</ele>
        <time>2022-05-20 22:25:43</time>
      </trkpt>
      <trkpt lat="41.6044" lon="1.64064">
        <ele>361</ele>
        <time>2022-05-20 22:25:44</time>
      </trkpt>
      <trkpt lat="41.60443" lon="1.64066">
        <ele>361.2</ele>
        <time>2022-05-20 22:25:45</time>
      </trkpt>
      <trkpt lat="41.60447" lon="1.64068">
        <ele>361.4</ele>
        <time>2022-05-20 22:25:46</time>
      </trkpt>
      <trkpt lat="41.60449" lon="1.64071">
        <ele>361.4</ele>
        <time>2022-05-20 22:25:47</time>
      </trkpt>
      <trkpt lat="41.60452" lon="1.64075">
        <ele>361.6</ele>
        <time>2022-05-20 22:25:48</time>
      </trkpt>
      <trkpt lat="41.60454" lon="1.64078">
        <ele>361.8</ele>
        <time>2022-05-20 22:25:49</time>
      </trkpt>
      <trkpt lat="41.60456" lon="1.64082">
        <ele>362</ele>
        <time>2022-05-20 22:25:50</time>
      </trkpt>
      <trkpt lat="41.60458" lon="1.64086">
        <ele>362.2</ele>
        <time>2022-05-20 22:25:51</time>
      </trkpt>
      <trkpt lat="41.6046" lon="1.6409">
        <ele>362.2</ele>
        <time>2022-05-20 22:25:52</time>
      </trkpt>
      <trkpt lat="41.60462" lon="1.64095">
        <ele>362.4</ele>
        <time>2022-05-20 22:25:53</time>
      </trkpt>
      <trkpt lat="41.60464" lon="1.64099">
        <ele>362.6</ele>
        <time>2022-05-20 22:25:54</time>
      </trkpt>
      <trkpt lat="41.60465" lon="1.64104">
        <ele>362.8</ele>
        <time>2022-05-20 22:25:55</time>
      </trkpt>
      <trkpt lat="41.60467" lon="1.64108">
        <ele>362.8</ele>
        <time>2022-05-20 22:25:56</time>
      </trkpt>
      <trkpt lat="41.60468" lon="1.64113">
        <ele>363</ele>
        <time>2022-05-20 22:25:57</time>
      </trkpt>
      <trkpt lat="41.6047" lon="1.64117">
        <ele>363.2</ele>
        <time>2022-05-20 22:25:58</time>
      </trkpt>
      <trkpt lat="41.60471" lon="1.64122">
        <ele>363.4</ele>
        <time>2022-05-20 22:25:59</time>
      </trkpt>
      <trkpt lat="41.60473" lon="1.64126">
        <ele>363.4</ele>
        <time>2022-05-20 22:26:00</time>
      </trkpt>
      <trkpt lat="41.60474" lon="1.6413">
        <ele>363.6</ele>
        <time>2022-05-20 22:26:01</time>
      </trkpt>
      <trkpt lat="41.60476" lon="1.64135">
        <ele>363.8</ele>
        <time>2022-05-20 22:26:02</time>
      </trkpt>
      <trkpt lat="41.60477" lon="1.64139">
        <ele>364</ele>
        <time>2022-05-20 22:26:03</time>
      </trkpt>
      <trkpt lat="41.60479" lon="1.64143">
        <ele>364.2</ele>
        <time>2022-05-20 22:26:04</time>
      </trkpt>
      <trkpt lat="41.6048" lon="1.64148">
        <ele>364.2</ele>
        <time>2022-05-20 22:26:05</time>
      </trkpt>
      <trkpt lat="41.60481" lon="1.64152">
        <ele>364.4</ele>
        <time>2022-05-20 22:26:06</time>
      </trkpt>
      <trkpt lat="41.60484" lon="1.64156">
        <ele>364.6</ele>
        <time>2022-05-20 22:26:07</time>
      </trkpt>
      <trkpt lat="41.60485" lon="1.64159">
        <ele>364.8</ele>
        <time>2022-05-20 22:26:08</time>
      </trkpt>
      <trkpt lat="41.60488" lon="1.64163">
        <ele>365</ele>
        <time>2022-05-20 22:26:09</time>
      </trkpt>
      <trkpt lat="41.6049" lon="1.64167">
        <ele>365.2</ele>
        <time>2022-05-20 22:26:10</time>
      </trkpt>
      <trkpt lat="41.60493" lon="1.64171">
        <ele>365.2</ele>
        <time>2022-05-20 22:26:11</time>
      </trkpt>
      <trkpt lat="41.60495" lon="1.64174">
        <ele>365.4</ele>
        <time>2022-05-20 22:26:12</time>
      </trkpt>
      <trkpt lat="41.60497" lon="1.64178">
        <ele>365.6</ele>
        <time>2022-05-20 22:26:13</time>
      </trkpt>
      <trkpt lat="41.605" lon="1.64181">
        <ele>365.8</ele>
        <time>2022-05-20 22:26:14</time>
      </trkpt>
      <trkpt lat="41.60503" lon="1.64185">
        <ele>365.8</ele>
        <time>2022-05-20 22:26:15</time>
      </trkpt>
      <trkpt lat="41.60505" lon="1.64188">
        <ele>366</ele>
        <time>2022-05-20 22:26:16</time>
      </trkpt>
      <trkpt lat="41.60508" lon="1.64191">
        <ele>366.2</ele>
        <time>2022-05-20 22:26:17</time>
      </trkpt>
      <trkpt lat="41.60511" lon="1.64194">
        <ele>366.2</ele>
        <time>2022-05-20 22:26:18</time>
      </trkpt>
      <trkpt lat="41.60513" lon="1.64198">
        <ele>366.4</ele>
        <time>2022-05-20 22:26:19</time>
      </trkpt>
      <trkpt lat="41.60516" lon="1.64202">
        <ele>366.6</ele>
        <time>2022-05-20 22:26:20</time>
      </trkpt>
      <trkpt lat="41.60519" lon="1.64206">
        <ele>366.6</ele>
        <time>2022-05-20 22:26:21</time>
      </trkpt>
      <trkpt lat="41.60521" lon="1.64209">
        <ele>366.8</ele>
        <time>2022-05-20 22:26:22</time>
      </trkpt>
      <trkpt lat="41.60523" lon="1.64213">
        <ele>366.8</ele>
        <time>2022-05-20 22:26:23</time>
      </trkpt>
      <trkpt lat="41.60526" lon="1.64217">
        <ele>367</ele>
        <time>2022-05-20 22:26:24</time>
      </trkpt>
      <trkpt lat="41.60528" lon="1.64221">
        <ele>367.2</ele>
        <time>2022-05-20 22:26:25</time>
      </trkpt>
      <trkpt lat="41.6053" lon="1.64226">
        <ele>367.4</ele>
        <time>2022-05-20 22:26:26</time>
      </trkpt>
      <trkpt lat="41.60531" lon="1.6423">
        <ele>367.4</ele>
        <time>2022-05-20 22:26:27</time>
      </trkpt>
      <trkpt lat="41.60532" lon="1.64235">
        <ele>367.6</ele>
        <time>2022-05-20 22:26:28</time>
      </trkpt>
      <trkpt lat="41.60532" lon="1.6424">
        <ele>367.8</ele>
        <time>2022-05-20 22:26:29</time>
      </trkpt>
      <trkpt lat="41.60532" lon="1.64245">
        <ele>368</ele>
        <time>2022-05-20 22:26:30</time>
      </trkpt>
      <trkpt lat="41.60532" lon="1.6425">
        <ele>368.2</ele>
        <time>2022-05-20 22:26:31</time>
      </trkpt>
      <trkpt lat="41.60532" lon="1.64254">
        <ele>368.6</ele>
        <time>2022-05-20 22:26:32</time>
      </trkpt>
      <trkpt lat="41.60532" lon="1.64258">
        <ele>368.8</ele>
        <time>2022-05-20 22:26:33</time>
      </trkpt>
      <trkpt lat="41.60531" lon="1.64263">
        <ele>369</ele>
        <time>2022-05-20 22:26:34</time>
      </trkpt>
      <trkpt lat="41.6053" lon="1.64267">
        <ele>369</ele>
        <time>2022-05-20 22:26:35</time>
      </trkpt>
      <trkpt lat="41.6053" lon="1.64272">
        <ele>369.2</ele>
        <time>2022-05-20 22:26:36</time>
      </trkpt>
      <trkpt lat="41.6053" lon="1.64276">
        <ele>369.4</ele>
        <time>2022-05-20 22:26:37</time>
      </trkpt>
      <trkpt lat="41.60529" lon="1.64281">
        <ele>369.6</ele>
        <time>2022-05-20 22:26:38</time>
      </trkpt>
      <trkpt lat="41.60529" lon="1.64285">
        <ele>369.8</ele>
        <time>2022-05-20 22:26:39</time>
      </trkpt>
      <trkpt lat="41.6053" lon="1.64289">
        <ele>370</ele>
        <time>2022-05-20 22:26:40</time>
      </trkpt>
      <trkpt lat="41.6053" lon="1.64294">
        <ele>370.2</ele>
        <time>2022-05-20 22:26:41</time>
      </trkpt>
      <trkpt lat="41.60532" lon="1.64298">
        <ele>370.4</ele>
        <time>2022-05-20 22:26:42</time>
      </trkpt>
      <trkpt lat="41.60533" lon="1.64303">
        <ele>370.4</ele>
        <time>2022-05-20 22:26:43</time>
      </trkpt>
      <trkpt lat="41.60534" lon="1.64307">
        <ele>370.6</ele>
        <time>2022-05-20 22:26:44</time>
      </trkpt>
      <trkpt lat="41.60535" lon="1.64311">
        <ele>370.8</ele>
        <time>2022-05-20 22:26:45</time>
      </trkpt>
      <trkpt lat="41.60537" lon="1.64315">
        <ele>371</ele>
        <time>2022-05-20 22:26:46</time>
      </trkpt>
      <trkpt lat="41.60539" lon="1.6432">
        <ele>371.2</ele>
        <time>2022-05-20 22:26:47</time>
      </trkpt>
      <trkpt lat="41.60541" lon="1.64324">
        <ele>371.2</ele>
        <time>2022-05-20 22:26:48</time>
      </trkpt>
      <trkpt lat="41.60542" lon="1.64328">
        <ele>371.4</ele>
        <time>2022-05-20 22:26:49</time>
      </trkpt>
      <trkpt lat="41.60543" lon="1.64332">
        <ele>371.6</ele>
        <time>2022-05-20 22:26:50</time>
      </trkpt>
      <trkpt lat="41.60545" lon="1.64337">
        <ele>371.8</ele>
        <time>2022-05-20 22:26:51</time>
      </trkpt>
      <trkpt lat="41.60547" lon="1.64341">
        <ele>371.8</ele>
        <time>2022-05-20 22:26:52</time>
      </trkpt>
      <trkpt lat="41.60549" lon="1.64345">
        <ele>372</ele>
        <time>2022-05-20 22:26:53</time>
      </trkpt>
      <trkpt lat="41.60551" lon="1.64349">
        <ele>372.2</ele>
        <time>2022-05-20 22:26:54</time>
      </trkpt>
      <trkpt lat="41.60554" lon="1.64352">
        <ele>372.4</ele>
        <time>2022-05-20 22:26:55</time>
      </trkpt>
      <trkpt lat="41.60557" lon="1.64355">
        <ele>372.4</ele>
        <time>2022-05-20 22:26:56</time>
      </trkpt>
      <trkpt lat="41.60561" lon="1.64358">
        <ele>372.6</ele>
        <time>2022-05-20 22:26:57</time>
      </trkpt>
      <trkpt lat="41.60564" lon="1.6436">
        <ele>372.6</ele>
        <time>2022-05-20 22:26:58</time>
      </trkpt>
      <trkpt lat="41.60568" lon="1.64363">
        <ele>372.6</ele>
        <time>2022-05-20 22:26:59</time>
      </trkpt>
      <trkpt lat="41.60572" lon="1.64364">
        <ele>372.8</ele>
        <time>2022-05-20 22:27:00</time>
      </trkpt>
      <trkpt lat="41.60575" lon="1.64366">
        <ele>372.8</ele>
        <time>2022-05-20 22:27:01</time>
      </trkpt>
      <trkpt lat="41.60579" lon="1.64367">
        <ele>372.8</ele>
        <time>2022-05-20 22:27:02</time>
      </trkpt>
      <trkpt lat="41.60583" lon="1.64368">
        <ele>372.8</ele>
        <time>2022-05-20 22:27:03</time>
      </trkpt>
      <trkpt lat="41.60587" lon="1.64368">
        <ele>373</ele>
        <time>2022-05-20 22:27:04</time>
      </trkpt>
      <trkpt lat="41.6059" lon="1.64367">
        <ele>373</ele>
        <time>2022-05-20 22:27:05</time>
      </trkpt>
      <trkpt lat="41.60594" lon="1.64366">
        <ele>373</ele>
        <time>2022-05-20 22:27:06</time>
      </trkpt>
      <trkpt lat="41.60598" lon="1.64366">
        <ele>373.2</ele>
        <time>2022-05-20 22:27:07</time>
      </trkpt>
      <trkpt lat="41.60601" lon="1.64365">
        <ele>373.2</ele>
        <time>2022-05-20 22:27:08</time>
      </trkpt>
      <trkpt lat="41.60606" lon="1.64364">
        <ele>373.2</ele>
        <time>2022-05-20 22:27:09</time>
      </trkpt>
      <trkpt lat="41.60609" lon="1.64364">
        <ele>373.4</ele>
        <time>2022-05-20 22:27:10</time>
      </trkpt>
      <trkpt lat="41.60613" lon="1.64363">
        <ele>373.4</ele>
        <time>2022-05-20 22:27:11</time>
      </trkpt>
      <trkpt lat="41.60617" lon="1.64362">
        <ele>373.4</ele>
        <time>2022-05-20 22:27:12</time>
      </trkpt>
      <trkpt lat="41.6062" lon="1.64361">
        <ele>373.4</ele>
        <time>2022-05-20 22:27:13</time>
      </trkpt>
      <trkpt lat="41.60622" lon="1.64361">
        <ele>373.4</ele>
        <time>2022-05-20 22:27:14</time>
      </trkpt>
      <trkpt lat="41.60628" lon="1.6436">
        <ele>373.6</ele>
        <time>2022-05-20 22:27:15</time>
      </trkpt>
      <trkpt lat="41.60633" lon="1.64359">
        <ele>373.8</ele>
        <time>2022-05-20 22:27:16</time>
      </trkpt>
      <trkpt lat="41.60637" lon="1.64359">
        <ele>373.8</ele>
        <time>2022-05-20 22:27:17</time>
      </trkpt>
      <trkpt lat="41.60641" lon="1.64359">
        <ele>373.8</ele>
        <time>2022-05-20 22:27:18</time>
      </trkpt>
      <trkpt lat="41.60645" lon="1.64359">
        <ele>374</ele>
        <time>2022-05-20 22:27:19</time>
      </trkpt>
      <trkpt lat="41.60648" lon="1.6436">
        <ele>374</ele>
        <time>2022-05-20 22:27:20</time>
      </trkpt>
      <trkpt lat="41.60652" lon="1.64361">
        <ele>374</ele>
        <time>2022-05-20 22:27:21</time>
      </trkpt>
      <trkpt lat="41.60656" lon="1.64363">
        <ele>374</ele>
        <time>2022-05-20 22:27:22</time>
      </trkpt>
      <trkpt lat="41.60661" lon="1.64364">
        <ele>374.2</ele>
        <time>2022-05-20 22:27:23</time>
      </trkpt>
      <trkpt lat="41.60664" lon="1.64366">
        <ele>374.2</ele>
        <time>2022-05-20 22:27:24</time>
      </trkpt>
      <trkpt lat="41.60668" lon="1.64369">
        <ele>374.2</ele>
        <time>2022-05-20 22:27:25</time>
      </trkpt>
      <trkpt lat="41.60672" lon="1.64371">
        <ele>374.4</ele>
        <time>2022-05-20 22:27:26</time>
      </trkpt>
      <trkpt lat="41.60676" lon="1.64374">
        <ele>374.4</ele>
        <time>2022-05-20 22:27:27</time>
      </trkpt>
      <trkpt lat="41.6068" lon="1.64377">
        <ele>374.6</ele>
        <time>2022-05-20 22:27:28</time>
      </trkpt>
      <trkpt lat="41.60684" lon="1.6438">
        <ele>374.6</ele>
        <time>2022-05-20 22:27:29</time>
      </trkpt>
      <trkpt lat="41.60688" lon="1.64382">
        <ele>374.8</ele>
        <time>2022-05-20 22:27:30</time>
      </trkpt>
      <trkpt lat="41.60692" lon="1.64385">
        <ele>374.8</ele>
        <time>2022-05-20 22:27:31</time>
      </trkpt>
      <trkpt lat="41.60697" lon="1.64388">
        <ele>375</ele>
        <time>2022-05-20 22:27:32</time>
      </trkpt>
      <trkpt lat="41.60701" lon="1.64391">
        <ele>375</ele>
        <time>2022-05-20 22:27:33</time>
      </trkpt>
      <trkpt lat="41.60704" lon="1.64394">
        <ele>375.2</ele>
        <time>2022-05-20 22:27:34</time>
      </trkpt>
      <trkpt lat="41.60708" lon="1.64397">
        <ele>375.2</ele>
        <time>2022-05-20 22:27:35</time>
      </trkpt>
      <trkpt lat="41.60713" lon="1.644">
        <ele>375.4</ele>
        <time>2022-05-20 22:27:36</time>
      </trkpt>
      <trkpt lat="41.60717" lon="1.64403">
        <ele>375.6</ele>
        <time>2022-05-20 22:27:37</time>
      </trkpt>
      <trkpt lat="41.60722" lon="1.64405">
        <ele>375.6</ele>
        <time>2022-05-20 22:27:38</time>
      </trkpt>
      <trkpt lat="41.60726" lon="1.64408">
        <ele>375.6</ele>
        <time>2022-05-20 22:27:39</time>
      </trkpt>
      <trkpt lat="41.6073" lon="1.6441">
        <ele>375.8</ele>
        <time>2022-05-20 22:27:40</time>
      </trkpt>
      <trkpt lat="41.60735" lon="1.64412">
        <ele>375.8</ele>
        <time>2022-05-20 22:27:41</time>
      </trkpt>
      <trkpt lat="41.6074" lon="1.64413">
        <ele>375.8</ele>
        <time>2022-05-20 22:27:42</time>
      </trkpt>
      <trkpt lat="41.60745" lon="1.64414">
        <ele>376</ele>
        <time>2022-05-20 22:27:43</time>
      </trkpt>
      <trkpt lat="41.6075" lon="1.64414">
        <ele>376</ele>
        <time>2022-05-20 22:27:44</time>
      </trkpt>
      <trkpt lat="41.60754" lon="1.64414">
        <ele>376.2</ele>
        <time>2022-05-20 22:27:45</time>
      </trkpt>
      <trkpt lat="41.6076" lon="1.64414">
        <ele>376.2</ele>
        <time>2022-05-20 22:27:46</time>
      </trkpt>
      <trkpt lat="41.60765" lon="1.64414">
        <ele>376.2</ele>
        <time>2022-05-20 22:27:47</time>
      </trkpt>
      <trkpt lat="41.6077" lon="1.64414">
        <ele>376.4</ele>
        <time>2022-05-20 22:27:48</time>
      </trkpt>
      <trkpt lat="41.60774" lon="1.64413">
        <ele>376.4</ele>
        <time>2022-05-20 22:27:49</time>
      </trkpt>
      <trkpt lat="41.60779" lon="1.64412">
        <ele>376.4</ele>
        <time>2022-05-20 22:27:50</time>
      </trkpt>
      <trkpt lat="41.60784" lon="1.64412">
        <ele>376.6</ele>
        <time>2022-05-20 22:27:51</time>
      </trkpt>
      <trkpt lat="41.60789" lon="1.64412">
        <ele>376.6</ele>
        <time>2022-05-20 22:27:52</time>
      </trkpt>
      <trkpt lat="41.60794" lon="1.64412">
        <ele>376.6</ele>
        <time>2022-05-20 22:27:53</time>
      </trkpt>
      <trkpt lat="41.60799" lon="1.64411">
        <ele>376.6</ele>
        <time>2022-05-20 22:27:54</time>
      </trkpt>
      <trkpt lat="41.60804" lon="1.64411">
        <ele>376.8</ele>
        <time>2022-05-20 22:27:55</time>
      </trkpt>
      <trkpt lat="41.60809" lon="1.64411">
        <ele>376.8</ele>
        <time>2022-05-20 22:27:56</time>
      </trkpt>
      <trkpt lat="41.60814" lon="1.6441">
        <ele>377</ele>
        <time>2022-05-20 22:27:57</time>
      </trkpt>
      <trkpt lat="41.60819" lon="1.6441">
        <ele>377</ele>
        <time>2022-05-20 22:27:58</time>
      </trkpt>
      <trkpt lat="41.60823" lon="1.6441">
        <ele>377.2</ele>
        <time>2022-05-20 22:27:59</time>
      </trkpt>
      <trkpt lat="41.60828" lon="1.64409">
        <ele>377.2</ele>
        <time>2022-05-20 22:28:00</time>
      </trkpt>
      <trkpt lat="41.60833" lon="1.64409">
        <ele>377.4</ele>
        <time>2022-05-20 22:28:01</time>
      </trkpt>
      <trkpt lat="41.60837" lon="1.64409">
        <ele>377.4</ele>
        <time>2022-05-20 22:28:02</time>
      </trkpt>
      <trkpt lat="41.60842" lon="1.64409">
        <ele>377.6</ele>
        <time>2022-05-20 22:28:03</time>
      </trkpt>
      <trkpt lat="41.60847" lon="1.64409">
        <ele>377.6</ele>
        <time>2022-05-20 22:28:04</time>
      </trkpt>
      <trkpt lat="41.60851" lon="1.64409">
        <ele>377.8</ele>
        <time>2022-05-20 22:28:05</time>
      </trkpt>
      <trkpt lat="41.60856" lon="1.64409">
        <ele>378</ele>
        <time>2022-05-20 22:28:06</time>
      </trkpt>
      <trkpt lat="41.6086" lon="1.64409">
        <ele>378</ele>
        <time>2022-05-20 22:28:07</time>
      </trkpt>
      <trkpt lat="41.60865" lon="1.64409">
        <ele>378.2</ele>
        <time>2022-05-20 22:28:08</time>
      </trkpt>
      <trkpt lat="41.6087" lon="1.6441">
        <ele>378.2</ele>
        <time>2022-05-20 22:28:09</time>
      </trkpt>
      <trkpt lat="41.60874" lon="1.64412">
        <ele>378.4</ele>
        <time>2022-05-20 22:28:10</time>
      </trkpt>
      <trkpt lat="41.60878" lon="1.64414">
        <ele>378.4</ele>
        <time>2022-05-20 22:28:11</time>
      </trkpt>
      <trkpt lat="41.60883" lon="1.64415">
        <ele>378.6</ele>
        <time>2022-05-20 22:28:12</time>
      </trkpt>
      <trkpt lat="41.60888" lon="1.64417">
        <ele>378.6</ele>
        <time>2022-05-20 22:28:13</time>
      </trkpt>
      <trkpt lat="41.60892" lon="1.6442">
        <ele>378.6</ele>
        <time>2022-05-20 22:28:14</time>
      </trkpt>
      <trkpt lat="41.60896" lon="1.64423">
        <ele>378.8</ele>
        <time>2022-05-20 22:28:15</time>
      </trkpt>
      <trkpt lat="41.60901" lon="1.64426">
        <ele>378.8</ele>
        <time>2022-05-20 22:28:16</time>
      </trkpt>
      <trkpt lat="41.60904" lon="1.64428">
        <ele>379</ele>
        <time>2022-05-20 22:28:17</time>
      </trkpt>
      <trkpt lat="41.60909" lon="1.64431">
        <ele>379</ele>
        <time>2022-05-20 22:28:18</time>
      </trkpt>
      <trkpt lat="41.60912" lon="1.64433">
        <ele>379.2</ele>
        <time>2022-05-20 22:28:19</time>
      </trkpt>
      <trkpt lat="41.60916" lon="1.64436">
        <ele>379.2</ele>
        <time>2022-05-20 22:28:20</time>
      </trkpt>
      <trkpt lat="41.6092" lon="1.64439">
        <ele>379.4</ele>
        <time>2022-05-20 22:28:21</time>
      </trkpt>
      <trkpt lat="41.60923" lon="1.64443">
        <ele>379.6</ele>
        <time>2022-05-20 22:28:22</time>
      </trkpt>
      <trkpt lat="41.60927" lon="1.64446">
        <ele>379.6</ele>
        <time>2022-05-20 22:28:23</time>
      </trkpt>
      <trkpt lat="41.60931" lon="1.6445">
        <ele>379.8</ele>
        <time>2022-05-20 22:28:24</time>
      </trkpt>
      <trkpt lat="41.60936" lon="1.64453">
        <ele>380</ele>
        <time>2022-05-20 22:28:25</time>
      </trkpt>
      <trkpt lat="41.60939" lon="1.64457">
        <ele>380.2</ele>
        <time>2022-05-20 22:28:26</time>
      </trkpt>
      <trkpt lat="41.60944" lon="1.6446">
        <ele>380.2</ele>
        <time>2022-05-20 22:28:27</time>
      </trkpt>
      <trkpt lat="41.60947" lon="1.64463">
        <ele>380.4</ele>
        <time>2022-05-20 22:28:28</time>
      </trkpt>
      <trkpt lat="41.60951" lon="1.64466">
        <ele>380.6</ele>
        <time>2022-05-20 22:28:29</time>
      </trkpt>
      <trkpt lat="41.60955" lon="1.64469">
        <ele>380.8</ele>
        <time>2022-05-20 22:28:30</time>
      </trkpt>
      <trkpt lat="41.60959" lon="1.64471">
        <ele>381.2</ele>
        <time>2022-05-20 22:28:31</time>
      </trkpt>
      <trkpt lat="41.60963" lon="1.64474">
        <ele>381.4</ele>
        <time>2022-05-20 22:28:32</time>
      </trkpt>
      <trkpt lat="41.60968" lon="1.64476">
        <ele>381.6</ele>
        <time>2022-05-20 22:28:33</time>
      </trkpt>
      <trkpt lat="41.60972" lon="1.64479">
        <ele>381.8</ele>
        <time>2022-05-20 22:28:34</time>
      </trkpt>
      <trkpt lat="41.60976" lon="1.64481">
        <ele>382</ele>
        <time>2022-05-20 22:28:35</time>
      </trkpt>
      <trkpt lat="41.6098" lon="1.64483">
        <ele>382.2</ele>
        <time>2022-05-20 22:28:36</time>
      </trkpt>
      <trkpt lat="41.60984" lon="1.64486">
        <ele>382.4</ele>
        <time>2022-05-20 22:28:37</time>
      </trkpt>
      <trkpt lat="41.60988" lon="1.64489">
        <ele>382.6</ele>
        <time>2022-05-20 22:28:38</time>
      </trkpt>
      <trkpt lat="41.60992" lon="1.64492">
        <ele>382.8</ele>
        <time>2022-05-20 22:28:39</time>
      </trkpt>
      <trkpt lat="41.60996" lon="1.64495">
        <ele>382.8</ele>
        <time>2022-05-20 22:28:40</time>
      </trkpt>
      <trkpt lat="41.61" lon="1.64497">
        <ele>383</ele>
        <time>2022-05-20 22:28:41</time>
      </trkpt>
      <trkpt lat="41.61004" lon="1.645">
        <ele>383.2</ele>
        <time>2022-05-20 22:28:42</time>
      </trkpt>
      <trkpt lat="41.61008" lon="1.64503">
        <ele>383.4</ele>
        <time>2022-05-20 22:28:43</time>
      </trkpt>
      <trkpt lat="41.61012" lon="1.64505">
        <ele>383.6</ele>
        <time>2022-05-20 22:28:44</time>
      </trkpt>
      <trkpt lat="41.61016" lon="1.64507">
        <ele>383.6</ele>
        <time>2022-05-20 22:28:45</time>
      </trkpt>
      <trkpt lat="41.61021" lon="1.6451">
        <ele>383.8</ele>
        <time>2022-05-20 22:28:46</time>
      </trkpt>
      <trkpt lat="41.61024" lon="1.64513">
        <ele>384</ele>
        <time>2022-05-20 22:28:47</time>
      </trkpt>
      <trkpt lat="41.61028" lon="1.64515">
        <ele>384.2</ele>
        <time>2022-05-20 22:28:48</time>
      </trkpt>
      <trkpt lat="41.61032" lon="1.64518">
        <ele>384.4</ele>
        <time>2022-05-20 22:28:49</time>
      </trkpt>
      <trkpt lat="41.61036" lon="1.64521">
        <ele>384.6</ele>
        <time>2022-05-20 22:28:50</time>
      </trkpt>
      <trkpt lat="41.6104" lon="1.64524">
        <ele>384.6</ele>
        <time>2022-05-20 22:28:51</time>
      </trkpt>
      <trkpt lat="41.61043" lon="1.64526">
        <ele>384.8</ele>
        <time>2022-05-20 22:28:52</time>
      </trkpt>
      <trkpt lat="41.61047" lon="1.64529">
        <ele>385</ele>
        <time>2022-05-20 22:28:53</time>
      </trkpt>
      <trkpt lat="41.6105" lon="1.64531">
        <ele>385.2</ele>
        <time>2022-05-20 22:28:54</time>
      </trkpt>
      <trkpt lat="41.61054" lon="1.64534">
        <ele>385.4</ele>
        <time>2022-05-20 22:28:55</time>
      </trkpt>
      <trkpt lat="41.61058" lon="1.64537">
        <ele>385.4</ele>
        <time>2022-05-20 22:28:56</time>
      </trkpt>
      <trkpt lat="41.61062" lon="1.6454">
        <ele>385.6</ele>
        <time>2022-05-20 22:28:57</time>
      </trkpt>
      <trkpt lat="41.61066" lon="1.64542">
        <ele>385.8</ele>
        <time>2022-05-20 22:28:58</time>
      </trkpt>
      <trkpt lat="41.61069" lon="1.64545">
        <ele>386</ele>
        <time>2022-05-20 22:28:59</time>
      </trkpt>
      <trkpt lat="41.61073" lon="1.64548">
        <ele>386</ele>
        <time>2022-05-20 22:29:00</time>
      </trkpt>
      <trkpt lat="41.61076" lon="1.64551">
        <ele>386.2</ele>
        <time>2022-05-20 22:29:01</time>
      </trkpt>
      <trkpt lat="41.61079" lon="1.64555">
        <ele>386.4</ele>
        <time>2022-05-20 22:29:02</time>
      </trkpt>
      <trkpt lat="41.61082" lon="1.64559">
        <ele>386.6</ele>
        <time>2022-05-20 22:29:03</time>
      </trkpt>
      <trkpt lat="41.61085" lon="1.64562">
        <ele>386.8</ele>
        <time>2022-05-20 22:29:04</time>
      </trkpt>
      <trkpt lat="41.61088" lon="1.64566">
        <ele>387</ele>
        <time>2022-05-20 22:29:05</time>
      </trkpt>
      <trkpt lat="41.6109" lon="1.6457">
        <ele>387.2</ele>
        <time>2022-05-20 22:29:06</time>
      </trkpt>
      <trkpt lat="41.61093" lon="1.64574">
        <ele>387.4</ele>
        <time>2022-05-20 22:29:07</time>
      </trkpt>
      <trkpt lat="41.61095" lon="1.64577">
        <ele>387.4</ele>
        <time>2022-05-20 22:29:08</time>
      </trkpt>
      <trkpt lat="41.61098" lon="1.64581">
        <ele>387.6</ele>
        <time>2022-05-20 22:29:09</time>
      </trkpt>
      <trkpt lat="41.61101" lon="1.64585">
        <ele>387.8</ele>
        <time>2022-05-20 22:29:10</time>
      </trkpt>
      <trkpt lat="41.61104" lon="1.64588">
        <ele>388</ele>
        <time>2022-05-20 22:29:11</time>
      </trkpt>
      <trkpt lat="41.61108" lon="1.64591">
        <ele>388.2</ele>
        <time>2022-05-20 22:29:12</time>
      </trkpt>
      <trkpt lat="41.61111" lon="1.64594">
        <ele>388.4</ele>
        <time>2022-05-20 22:29:13</time>
      </trkpt>
      <trkpt lat="41.61114" lon="1.64597">
        <ele>388.6</ele>
        <time>2022-05-20 22:29:14</time>
      </trkpt>
      <trkpt lat="41.61117" lon="1.646">
        <ele>388.8</ele>
        <time>2022-05-20 22:29:15</time>
      </trkpt>
      <trkpt lat="41.6112" lon="1.64602">
        <ele>388.8</ele>
        <time>2022-05-20 22:29:16</time>
      </trkpt>
      <trkpt lat="41.61124" lon="1.64604">
        <ele>389</ele>
        <time>2022-05-20 22:29:17</time>
      </trkpt>
      <trkpt lat="41.61127" lon="1.64607">
        <ele>389.2</ele>
        <time>2022-05-20 22:29:18</time>
      </trkpt>
      <trkpt lat="41.61131" lon="1.64609">
        <ele>389.4</ele>
        <time>2022-05-20 22:29:19</time>
      </trkpt>
      <trkpt lat="41.61135" lon="1.6461">
        <ele>389.4</ele>
        <time>2022-05-20 22:29:20</time>
      </trkpt>
      <trkpt lat="41.61139" lon="1.64612">
        <ele>389.6</ele>
        <time>2022-05-20 22:29:21</time>
      </trkpt>
      <trkpt lat="41.61143" lon="1.64614">
        <ele>389.8</ele>
        <time>2022-05-20 22:29:22</time>
      </trkpt>
      <trkpt lat="41.61147" lon="1.64616">
        <ele>390</ele>
        <time>2022-05-20 22:29:23</time>
      </trkpt>
      <trkpt lat="41.6115" lon="1.64618">
        <ele>390</ele>
        <time>2022-05-20 22:29:24</time>
      </trkpt>
      <trkpt lat="41.61153" lon="1.6462">
        <ele>390.2</ele>
        <time>2022-05-20 22:29:25</time>
      </trkpt>
      <trkpt lat="41.61157" lon="1.64622">
        <ele>390.4</ele>
        <time>2022-05-20 22:29:26</time>
      </trkpt>
      <trkpt lat="41.6116" lon="1.64624">
        <ele>390.6</ele>
        <time>2022-05-20 22:29:27</time>
      </trkpt>
      <trkpt lat="41.61164" lon="1.64626">
        <ele>390.8</ele>
        <time>2022-05-20 22:29:28</time>
      </trkpt>
      <trkpt lat="41.61167" lon="1.64629">
        <ele>390.8</ele>
        <time>2022-05-20 22:29:29</time>
      </trkpt>
      <trkpt lat="41.6117" lon="1.64632">
        <ele>391</ele>
        <time>2022-05-20 22:29:30</time>
      </trkpt>
      <trkpt lat="41.61173" lon="1.64636">
        <ele>391.2</ele>
        <time>2022-05-20 22:29:31</time>
      </trkpt>
      <trkpt lat="41.61176" lon="1.64639">
        <ele>391.4</ele>
        <time>2022-05-20 22:29:32</time>
      </trkpt>
      <trkpt lat="41.61179" lon="1.64642">
        <ele>391.6</ele>
        <time>2022-05-20 22:29:33</time>
      </trkpt>
      <trkpt lat="41.61182" lon="1.64644">
        <ele>391.6</ele>
        <time>2022-05-20 22:29:34</time>
      </trkpt>
      <trkpt lat="41.61184" lon="1.64647">
        <ele>391.8</ele>
        <time>2022-05-20 22:29:35</time>
      </trkpt>
      <trkpt lat="41.61187" lon="1.6465">
        <ele>392</ele>
        <time>2022-05-20 22:29:36</time>
      </trkpt>
      <trkpt lat="41.61189" lon="1.64654">
        <ele>392.2</ele>
        <time>2022-05-20 22:29:37</time>
      </trkpt>
      <trkpt lat="41.61192" lon="1.64657">
        <ele>392.4</ele>
        <time>2022-05-20 22:29:38</time>
      </trkpt>
      <trkpt lat="41.61194" lon="1.64661">
        <ele>392.6</ele>
        <time>2022-05-20 22:29:39</time>
      </trkpt>
      <trkpt lat="41.61196" lon="1.64664">
        <ele>392.8</ele>
        <time>2022-05-20 22:29:40</time>
      </trkpt>
      <trkpt lat="41.61199" lon="1.64667">
        <ele>392.8</ele>
        <time>2022-05-20 22:29:41</time>
      </trkpt>
      <trkpt lat="41.61201" lon="1.6467">
        <ele>393</ele>
        <time>2022-05-20 22:29:42</time>
      </trkpt>
      <trkpt lat="41.61204" lon="1.64674">
        <ele>393.2</ele>
        <time>2022-05-20 22:29:43</time>
      </trkpt>
      <trkpt lat="41.61207" lon="1.64677">
        <ele>393.4</ele>
        <time>2022-05-20 22:29:44</time>
      </trkpt>
      <trkpt lat="41.61209" lon="1.6468">
        <ele>393.4</ele>
        <time>2022-05-20 22:29:45</time>
      </trkpt>
      <trkpt lat="41.61212" lon="1.64684">
        <ele>393.6</ele>
        <time>2022-05-20 22:29:46</time>
      </trkpt>
      <trkpt lat="41.61214" lon="1.64687">
        <ele>393.8</ele>
        <time>2022-05-20 22:29:47</time>
      </trkpt>
      <trkpt lat="41.61217" lon="1.64691">
        <ele>394</ele>
        <time>2022-05-20 22:29:48</time>
      </trkpt>
      <trkpt lat="41.6122" lon="1.64694">
        <ele>394</ele>
        <time>2022-05-20 22:29:49</time>
      </trkpt>
      <trkpt lat="41.61222" lon="1.64698">
        <ele>394.2</ele>
        <time>2022-05-20 22:29:50</time>
      </trkpt>
      <trkpt lat="41.61225" lon="1.64701">
        <ele>394.4</ele>
        <time>2022-05-20 22:29:51</time>
      </trkpt>
      <trkpt lat="41.61227" lon="1.64704">
        <ele>394.4</ele>
        <time>2022-05-20 22:29:52</time>
      </trkpt>
      <trkpt lat="41.6123" lon="1.64708">
        <ele>394.6</ele>
        <time>2022-05-20 22:29:53</time>
      </trkpt>
      <trkpt lat="41.61232" lon="1.64711">
        <ele>394.8</ele>
        <time>2022-05-20 22:29:54</time>
      </trkpt>
      <trkpt lat="41.61235" lon="1.64714">
        <ele>394.8</ele>
        <time>2022-05-20 22:29:55</time>
      </trkpt>
      <trkpt lat="41.61237" lon="1.64718">
        <ele>395</ele>
        <time>2022-05-20 22:29:56</time>
      </trkpt>
      <trkpt lat="41.6124" lon="1.64721">
        <ele>395.2</ele>
        <time>2022-05-20 22:29:57</time>
      </trkpt>
      <trkpt lat="41.61243" lon="1.64725">
        <ele>395.4</ele>
        <time>2022-05-20 22:29:58</time>
      </trkpt>
      <trkpt lat="41.61246" lon="1.64728">
        <ele>395.4</ele>
        <time>2022-05-20 22:29:59</time>
      </trkpt>
      <trkpt lat="41.61249" lon="1.64732">
        <ele>395.6</ele>
        <time>2022-05-20 22:30:00</time>
      </trkpt>
      <trkpt lat="41.61252" lon="1.64735">
        <ele>395.8</ele>
        <time>2022-05-20 22:30:01</time>
      </trkpt>
      <trkpt lat="41.61255" lon="1.64738">
        <ele>395.8</ele>
        <time>2022-05-20 22:30:02</time>
      </trkpt>
      <trkpt lat="41.61258" lon="1.64741">
        <ele>396</ele>
        <time>2022-05-20 22:30:03</time>
      </trkpt>
      <trkpt lat="41.61261" lon="1.64744">
        <ele>396.2</ele>
        <time>2022-05-20 22:30:04</time>
      </trkpt>
      <trkpt lat="41.61264" lon="1.64747">
        <ele>396.4</ele>
        <time>2022-05-20 22:30:05</time>
      </trkpt>
      <trkpt lat="41.61267" lon="1.64749">
        <ele>396.6</ele>
        <time>2022-05-20 22:30:06</time>
      </trkpt>
      <trkpt lat="41.61271" lon="1.64751">
        <ele>396.6</ele>
        <time>2022-05-20 22:30:07</time>
      </trkpt>
      <trkpt lat="41.61274" lon="1.64753">
        <ele>396.8</ele>
        <time>2022-05-20 22:30:08</time>
      </trkpt>
      <trkpt lat="41.61278" lon="1.64755">
        <ele>397</ele>
        <time>2022-05-20 22:30:09</time>
      </trkpt>
      <trkpt lat="41.61282" lon="1.64756">
        <ele>397</ele>
        <time>2022-05-20 22:30:10</time>
      </trkpt>
      <trkpt lat="41.61286" lon="1.64757">
        <ele>397.2</ele>
        <time>2022-05-20 22:30:11</time>
      </trkpt>
      <trkpt lat="41.6129" lon="1.64758">
        <ele>397.4</ele>
        <time>2022-05-20 22:30:12</time>
      </trkpt>
      <trkpt lat="41.61293" lon="1.64759">
        <ele>397.4</ele>
        <time>2022-05-20 22:30:13</time>
      </trkpt>
      <trkpt lat="41.61297" lon="1.6476">
        <ele>397.6</ele>
        <time>2022-05-20 22:30:14</time>
      </trkpt>
      <trkpt lat="41.61301" lon="1.64761">
        <ele>397.8</ele>
        <time>2022-05-20 22:30:15</time>
      </trkpt>
      <trkpt lat="41.61305" lon="1.64762">
        <ele>397.8</ele>
        <time>2022-05-20 22:30:16</time>
      </trkpt>
      <trkpt lat="41.61308" lon="1.64763">
        <ele>398</ele>
        <time>2022-05-20 22:30:17</time>
      </trkpt>
      <trkpt lat="41.61312" lon="1.64763">
        <ele>398.2</ele>
        <time>2022-05-20 22:30:18</time>
      </trkpt>
      <trkpt lat="41.61316" lon="1.64764">
        <ele>398.4</ele>
        <time>2022-05-20 22:30:19</time>
      </trkpt>
      <trkpt lat="41.6132" lon="1.64765">
        <ele>398.4</ele>
        <time>2022-05-20 22:30:20</time>
      </trkpt>
      <trkpt lat="41.61324" lon="1.64766">
        <ele>398.6</ele>
        <time>2022-05-20 22:30:21</time>
      </trkpt>
      <trkpt lat="41.61327" lon="1.64767">
        <ele>398.8</ele>
        <time>2022-05-20 22:30:22</time>
      </trkpt>
      <trkpt lat="41.61331" lon="1.64768">
        <ele>399</ele>
        <time>2022-05-20 22:30:23</time>
      </trkpt>
      <trkpt lat="41.61335" lon="1.64769">
        <ele>399</ele>
        <time>2022-05-20 22:30:24</time>
      </trkpt>
      <trkpt lat="41.61339" lon="1.6477">
        <ele>399.2</ele>
        <time>2022-05-20 22:30:25</time>
      </trkpt>
      <trkpt lat="41.61343" lon="1.64771">
        <ele>399.4</ele>
        <time>2022-05-20 22:30:26</time>
      </trkpt>
      <trkpt lat="41.61346" lon="1.64771">
        <ele>399.6</ele>
        <time>2022-05-20 22:30:27</time>
      </trkpt>
      <trkpt lat="41.61351" lon="1.64772">
        <ele>399.6</ele>
        <time>2022-05-20 22:30:28</time>
      </trkpt>
      <trkpt lat="41.61354" lon="1.64773">
        <ele>399.8</ele>
        <time>2022-05-20 22:30:29</time>
      </trkpt>
      <trkpt lat="41.61358" lon="1.64774">
        <ele>400</ele>
        <time>2022-05-20 22:30:30</time>
      </trkpt>
      <trkpt lat="41.61362" lon="1.64775">
        <ele>400</ele>
        <time>2022-05-20 22:30:31</time>
      </trkpt>
      <trkpt lat="41.61367" lon="1.64776">
        <ele>400.2</ele>
        <time>2022-05-20 22:30:32</time>
      </trkpt>
      <trkpt lat="41.6137" lon="1.64777">
        <ele>400.4</ele>
        <time>2022-05-20 22:30:33</time>
      </trkpt>
      <trkpt lat="41.61374" lon="1.64778">
        <ele>400.6</ele>
        <time>2022-05-20 22:30:34</time>
      </trkpt>
      <trkpt lat="41.61378" lon="1.64779">
        <ele>400.6</ele>
        <time>2022-05-20 22:30:35</time>
      </trkpt>
      <trkpt lat="41.61382" lon="1.64779">
        <ele>400.8</ele>
        <time>2022-05-20 22:30:36</time>
      </trkpt>
      <trkpt lat="41.61386" lon="1.6478">
        <ele>400.8</ele>
        <time>2022-05-20 22:30:37</time>
      </trkpt>
      <trkpt lat="41.6139" lon="1.6478">
        <ele>401</ele>
        <time>2022-05-20 22:30:38</time>
      </trkpt>
      <trkpt lat="41.61394" lon="1.64781">
        <ele>401.2</ele>
        <time>2022-05-20 22:30:39</time>
      </trkpt>
      <trkpt lat="41.61398" lon="1.64782">
        <ele>401.4</ele>
        <time>2022-05-20 22:30:40</time>
      </trkpt>
      <trkpt lat="41.61402" lon="1.64783">
        <ele>401.4</ele>
        <time>2022-05-20 22:30:41</time>
      </trkpt>
      <trkpt lat="41.61406" lon="1.64783">
        <ele>401.6</ele>
        <time>2022-05-20 22:30:42</time>
      </trkpt>
      <trkpt lat="41.61409" lon="1.64784">
        <ele>401.8</ele>
        <time>2022-05-20 22:30:43</time>
      </trkpt>
      <trkpt lat="41.61413" lon="1.64785">
        <ele>402</ele>
        <time>2022-05-20 22:30:44</time>
      </trkpt>
      <trkpt lat="41.61417" lon="1.64786">
        <ele>402</ele>
        <time>2022-05-20 22:30:45</time>
      </trkpt>
      <trkpt lat="41.6142" lon="1.64787">
        <ele>402.2</ele>
        <time>2022-05-20 22:30:46</time>
      </trkpt>
      <trkpt lat="41.61424" lon="1.64788">
        <ele>402.4</ele>
        <time>2022-05-20 22:30:47</time>
      </trkpt>
      <trkpt lat="41.61428" lon="1.64789">
        <ele>402.6</ele>
        <time>2022-05-20 22:30:48</time>
      </trkpt>
      <trkpt lat="41.61432" lon="1.64789">
        <ele>402.6</ele>
        <time>2022-05-20 22:30:49</time>
      </trkpt>
      <trkpt lat="41.61436" lon="1.6479">
        <ele>402.8</ele>
        <time>2022-05-20 22:30:50</time>
      </trkpt>
      <trkpt lat="41.61439" lon="1.64791">
        <ele>403</ele>
        <time>2022-05-20 22:30:51</time>
      </trkpt>
      <trkpt lat="41.61443" lon="1.64792">
        <ele>403.2</ele>
        <time>2022-05-20 22:30:52</time>
      </trkpt>
      <trkpt lat="41.61447" lon="1.64792">
        <ele>403.4</ele>
        <time>2022-05-20 22:30:53</time>
      </trkpt>
      <trkpt lat="41.6145" lon="1.64793">
        <ele>403.4</ele>
        <time>2022-05-20 22:30:54</time>
      </trkpt>
      <trkpt lat="41.61454" lon="1.64794">
        <ele>403.6</ele>
        <time>2022-05-20 22:30:55</time>
      </trkpt>
      <trkpt lat="41.61459" lon="1.64795">
        <ele>403.8</ele>
        <time>2022-05-20 22:30:56</time>
      </trkpt>
      <trkpt lat="41.61462" lon="1.64796">
        <ele>404</ele>
        <time>2022-05-20 22:30:57</time>
      </trkpt>
      <trkpt lat="41.61466" lon="1.64797">
        <ele>404.2</ele>
        <time>2022-05-20 22:30:58</time>
      </trkpt>
      <trkpt lat="41.6147" lon="1.64797">
        <ele>404.2</ele>
        <time>2022-05-20 22:30:59</time>
      </trkpt>
      <trkpt lat="41.61473" lon="1.64799">
        <ele>404.4</ele>
        <time>2022-05-20 22:31:00</time>
      </trkpt>
      <trkpt lat="41.61477" lon="1.648">
        <ele>404.6</ele>
        <time>2022-05-20 22:31:01</time>
      </trkpt>
      <trkpt lat="41.61481" lon="1.64802">
        <ele>404.8</ele>
        <time>2022-05-20 22:31:02</time>
      </trkpt>
      <trkpt lat="41.61485" lon="1.64803">
        <ele>404.8</ele>
        <time>2022-05-20 22:31:03</time>
      </trkpt>
      <trkpt lat="41.61488" lon="1.64805">
        <ele>405</ele>
        <time>2022-05-20 22:31:04</time>
      </trkpt>
      <trkpt lat="41.61491" lon="1.64808">
        <ele>405.2</ele>
        <time>2022-05-20 22:31:05</time>
      </trkpt>
      <trkpt lat="41.61495" lon="1.6481">
        <ele>405.4</ele>
        <time>2022-05-20 22:31:06</time>
      </trkpt>
      <trkpt lat="41.61498" lon="1.64814">
        <ele>405.6</ele>
        <time>2022-05-20 22:31:07</time>
      </trkpt>
      <trkpt lat="41.61501" lon="1.64817">
        <ele>405.6</ele>
        <time>2022-05-20 22:31:08</time>
      </trkpt>
      <trkpt lat="41.61503" lon="1.64821">
        <ele>405.8</ele>
        <time>2022-05-20 22:31:09</time>
      </trkpt>
      <trkpt lat="41.61506" lon="1.64824">
        <ele>406</ele>
        <time>2022-05-20 22:31:10</time>
      </trkpt>
      <trkpt lat="41.61509" lon="1.64828">
        <ele>406.2</ele>
        <time>2022-05-20 22:31:11</time>
      </trkpt>
      <trkpt lat="41.6151" lon="1.64832">
        <ele>406.4</ele>
        <time>2022-05-20 22:31:12</time>
      </trkpt>
      <trkpt lat="41.61512" lon="1.64836">
        <ele>406.6</ele>
        <time>2022-05-20 22:31:13</time>
      </trkpt>
      <trkpt lat="41.61514" lon="1.6484">
        <ele>406.8</ele>
        <time>2022-05-20 22:31:14</time>
      </trkpt>
      <trkpt lat="41.61516" lon="1.64845">
        <ele>407</ele>
        <time>2022-05-20 22:31:15</time>
      </trkpt>
      <trkpt lat="41.61518" lon="1.64849">
        <ele>407</ele>
        <time>2022-05-20 22:31:16</time>
      </trkpt>
      <trkpt lat="41.61521" lon="1.64854">
        <ele>407.2</ele>
        <time>2022-05-20 22:31:17</time>
      </trkpt>
      <trkpt lat="41.61523" lon="1.64858">
        <ele>407.4</ele>
        <time>2022-05-20 22:31:18</time>
      </trkpt>
      <trkpt lat="41.61525" lon="1.64863">
        <ele>407.6</ele>
        <time>2022-05-20 22:31:19</time>
      </trkpt>
      <trkpt lat="41.61528" lon="1.64868">
        <ele>407.8</ele>
        <time>2022-05-20 22:31:20</time>
      </trkpt>
      <trkpt lat="41.6153" lon="1.64873">
        <ele>407.8</ele>
        <time>2022-05-20 22:31:21</time>
      </trkpt>
      <trkpt lat="41.61532" lon="1.64877">
        <ele>408</ele>
        <time>2022-05-20 22:31:22</time>
      </trkpt>
      <trkpt lat="41.61535" lon="1.64882">
        <ele>408.2</ele>
        <time>2022-05-20 22:31:23</time>
      </trkpt>
      <trkpt lat="41.61537" lon="1.64887">
        <ele>408.4</ele>
        <time>2022-05-20 22:31:24</time>
      </trkpt>
      <trkpt lat="41.61539" lon="1.64891">
        <ele>408.6</ele>
        <time>2022-05-20 22:31:25</time>
      </trkpt>
      <trkpt lat="41.61541" lon="1.64896">
        <ele>408.6</ele>
        <time>2022-05-20 22:31:26</time>
      </trkpt>
      <trkpt lat="41.61544" lon="1.64901">
        <ele>408.8</ele>
        <time>2022-05-20 22:31:27</time>
      </trkpt>
      <trkpt lat="41.61546" lon="1.64905">
        <ele>409</ele>
        <time>2022-05-20 22:31:28</time>
      </trkpt>
      <trkpt lat="41.61548" lon="1.6491">
        <ele>409.2</ele>
        <time>2022-05-20 22:31:29</time>
      </trkpt>
      <trkpt lat="41.6155" lon="1.64915">
        <ele>409.2</ele>
        <time>2022-05-20 22:31:30</time>
      </trkpt>
      <trkpt lat="41.61553" lon="1.64919">
        <ele>409.4</ele>
        <time>2022-05-20 22:31:31</time>
      </trkpt>
      <trkpt lat="41.61555" lon="1.64923">
        <ele>409.6</ele>
        <time>2022-05-20 22:31:32</time>
      </trkpt>
      <trkpt lat="41.61557" lon="1.64928">
        <ele>409.8</ele>
        <time>2022-05-20 22:31:33</time>
      </trkpt>
      <trkpt lat="41.61559" lon="1.64932">
        <ele>410</ele>
        <time>2022-05-20 22:31:34</time>
      </trkpt>
      <trkpt lat="41.61561" lon="1.64937">
        <ele>410</ele>
        <time>2022-05-20 22:31:35</time>
      </trkpt>
      <trkpt lat="41.61563" lon="1.64941">
        <ele>410.2</ele>
        <time>2022-05-20 22:31:36</time>
      </trkpt>
      <trkpt lat="41.61566" lon="1.64946">
        <ele>410.4</ele>
        <time>2022-05-20 22:31:37</time>
      </trkpt>
      <trkpt lat="41.61568" lon="1.6495">
        <ele>410.6</ele>
        <time>2022-05-20 22:31:38</time>
      </trkpt>
      <trkpt lat="41.61571" lon="1.64955">
        <ele>410.8</ele>
        <time>2022-05-20 22:31:39</time>
      </trkpt>
      <trkpt lat="41.61573" lon="1.64959">
        <ele>410.8</ele>
        <time>2022-05-20 22:31:40</time>
      </trkpt>
      <trkpt lat="41.61575" lon="1.64964">
        <ele>411</ele>
        <time>2022-05-20 22:31:41</time>
      </trkpt>
      <trkpt lat="41.61577" lon="1.64968">
        <ele>411.2</ele>
        <time>2022-05-20 22:31:42</time>
      </trkpt>
      <trkpt lat="41.61579" lon="1.64972">
        <ele>411.4</ele>
        <time>2022-05-20 22:31:43</time>
      </trkpt>
      <trkpt lat="41.61581" lon="1.64977">
        <ele>411.6</ele>
        <time>2022-05-20 22:31:44</time>
      </trkpt>
      <trkpt lat="41.61583" lon="1.64981">
        <ele>411.8</ele>
        <time>2022-05-20 22:31:45</time>
      </trkpt>
      <trkpt lat="41.61586" lon="1.64986">
        <ele>412</ele>
        <time>2022-05-20 22:31:46</time>
      </trkpt>
      <trkpt lat="41.61588" lon="1.6499">
        <ele>412.2</ele>
        <time>2022-05-20 22:31:47</time>
      </trkpt>
      <trkpt lat="41.6159" lon="1.64995">
        <ele>412.2</ele>
        <time>2022-05-20 22:31:48</time>
      </trkpt>
      <trkpt lat="41.61592" lon="1.64999">
        <ele>412.4</ele>
        <time>2022-05-20 22:31:49</time>
      </trkpt>
      <trkpt lat="41.61595" lon="1.65003">
        <ele>412.6</ele>
        <time>2022-05-20 22:31:50</time>
      </trkpt>
      <trkpt lat="41.61597" lon="1.65008">
        <ele>412.8</ele>
        <time>2022-05-20 22:31:51</time>
      </trkpt>
      <trkpt lat="41.616" lon="1.65012">
        <ele>412.8</ele>
        <time>2022-05-20 22:31:52</time>
      </trkpt>
      <trkpt lat="41.61602" lon="1.65017">
        <ele>413</ele>
        <time>2022-05-20 22:31:53</time>
      </trkpt>
      <trkpt lat="41.61604" lon="1.65021">
        <ele>413.2</ele>
        <time>2022-05-20 22:31:54</time>
      </trkpt>
      <trkpt lat="41.61606" lon="1.65026">
        <ele>413.2</ele>
        <time>2022-05-20 22:31:55</time>
      </trkpt>
      <trkpt lat="41.61609" lon="1.6503">
        <ele>413.2</ele>
        <time>2022-05-20 22:31:56</time>
      </trkpt>
      <trkpt lat="41.61611" lon="1.65035">
        <ele>413.4</ele>
        <time>2022-05-20 22:31:57</time>
      </trkpt>
      <trkpt lat="41.61613" lon="1.65039">
        <ele>413.6</ele>
        <time>2022-05-20 22:31:58</time>
      </trkpt>
      <trkpt lat="41.61616" lon="1.65043">
        <ele>413.8</ele>
        <time>2022-05-20 22:31:59</time>
      </trkpt>
      <trkpt lat="41.61618" lon="1.65047">
        <ele>414</ele>
        <time>2022-05-20 22:32:00</time>
      </trkpt>
      <trkpt lat="41.6162" lon="1.65051">
        <ele>414.4</ele>
        <time>2022-05-20 22:32:01</time>
      </trkpt>
      <trkpt lat="41.61623" lon="1.65055">
        <ele>414.6</ele>
        <time>2022-05-20 22:32:02</time>
      </trkpt>
      <trkpt lat="41.61625" lon="1.65058">
        <ele>414.8</ele>
        <time>2022-05-20 22:32:03</time>
      </trkpt>
      <trkpt lat="41.61628" lon="1.65062">
        <ele>414.8</ele>
        <time>2022-05-20 22:32:04</time>
      </trkpt>
      <trkpt lat="41.61631" lon="1.65065">
        <ele>415</ele>
        <time>2022-05-20 22:32:05</time>
      </trkpt>
      <trkpt lat="41.61633" lon="1.65068">
        <ele>415.2</ele>
        <time>2022-05-20 22:32:06</time>
      </trkpt>
      <trkpt lat="41.61636" lon="1.65071">
        <ele>415.4</ele>
        <time>2022-05-20 22:32:07</time>
      </trkpt>
      <trkpt lat="41.61639" lon="1.65074">
        <ele>415.6</ele>
        <time>2022-05-20 22:32:08</time>
      </trkpt>
      <trkpt lat="41.61642" lon="1.65076">
        <ele>415.8</ele>
        <time>2022-05-20 22:32:09</time>
      </trkpt>
      <trkpt lat="41.61646" lon="1.65078">
        <ele>415.8</ele>
        <time>2022-05-20 22:32:10</time>
      </trkpt>
      <trkpt lat="41.61649" lon="1.65079">
        <ele>416</ele>
        <time>2022-05-20 22:32:11</time>
      </trkpt>
      <trkpt lat="41.61653" lon="1.6508">
        <ele>416.2</ele>
        <time>2022-05-20 22:32:12</time>
      </trkpt>
      <trkpt lat="41.61657" lon="1.65081">
        <ele>416.2</ele>
        <time>2022-05-20 22:32:13</time>
      </trkpt>
      <trkpt lat="41.6166" lon="1.65082">
        <ele>416.4</ele>
        <time>2022-05-20 22:32:14</time>
      </trkpt>
      <trkpt lat="41.61665" lon="1.65083">
        <ele>416.4</ele>
        <time>2022-05-20 22:32:15</time>
      </trkpt>
      <trkpt lat="41.61668" lon="1.65083">
        <ele>416.6</ele>
        <time>2022-05-20 22:32:16</time>
      </trkpt>
      <trkpt lat="41.61672" lon="1.65084">
        <ele>416.8</ele>
        <time>2022-05-20 22:32:17</time>
      </trkpt>
      <trkpt lat="41.61676" lon="1.65085">
        <ele>416.8</ele>
        <time>2022-05-20 22:32:18</time>
      </trkpt>
      <trkpt lat="41.6168" lon="1.65086">
        <ele>417</ele>
        <time>2022-05-20 22:32:19</time>
      </trkpt>
      <trkpt lat="41.61684" lon="1.65087">
        <ele>417</ele>
        <time>2022-05-20 22:32:20</time>
      </trkpt>
      <trkpt lat="41.61687" lon="1.65088">
        <ele>417.2</ele>
        <time>2022-05-20 22:32:21</time>
      </trkpt>
      <trkpt lat="41.61692" lon="1.65089">
        <ele>417.4</ele>
        <time>2022-05-20 22:32:22</time>
      </trkpt>
      <trkpt lat="41.61695" lon="1.65089">
        <ele>417.4</ele>
        <time>2022-05-20 22:32:23</time>
      </trkpt>
      <trkpt lat="41.61699" lon="1.6509">
        <ele>417.6</ele>
        <time>2022-05-20 22:32:24</time>
      </trkpt>
      <trkpt lat="41.61703" lon="1.65091">
        <ele>417.8</ele>
        <time>2022-05-20 22:32:25</time>
      </trkpt>
      <trkpt lat="41.61707" lon="1.65092">
        <ele>418</ele>
        <time>2022-05-20 22:32:26</time>
      </trkpt>
      <trkpt lat="41.61712" lon="1.65092">
        <ele>418</ele>
        <time>2022-05-20 22:32:27</time>
      </trkpt>
      <trkpt lat="41.61715" lon="1.65093">
        <ele>418.2</ele>
        <time>2022-05-20 22:32:28</time>
      </trkpt>
      <trkpt lat="41.61719" lon="1.65095">
        <ele>418.4</ele>
        <time>2022-05-20 22:32:29</time>
      </trkpt>
      <trkpt lat="41.61723" lon="1.65096">
        <ele>418.6</ele>
        <time>2022-05-20 22:32:30</time>
      </trkpt>
      <trkpt lat="41.61728" lon="1.65097">
        <ele>418.6</ele>
        <time>2022-05-20 22:32:31</time>
      </trkpt>
      <trkpt lat="41.61731" lon="1.65099">
        <ele>418.8</ele>
        <time>2022-05-20 22:32:32</time>
      </trkpt>
      <trkpt lat="41.61735" lon="1.65101">
        <ele>419</ele>
        <time>2022-05-20 22:32:33</time>
      </trkpt>
      <trkpt lat="41.61739" lon="1.65103">
        <ele>419</ele>
        <time>2022-05-20 22:32:34</time>
      </trkpt>
      <trkpt lat="41.61742" lon="1.65107">
        <ele>419.2</ele>
        <time>2022-05-20 22:32:35</time>
      </trkpt>
      <trkpt lat="41.61745" lon="1.6511">
        <ele>419.4</ele>
        <time>2022-05-20 22:32:36</time>
      </trkpt>
      <trkpt lat="41.61748" lon="1.65115">
        <ele>419.4</ele>
        <time>2022-05-20 22:32:37</time>
      </trkpt>
      <trkpt lat="41.6175" lon="1.6512">
        <ele>419.6</ele>
        <time>2022-05-20 22:32:38</time>
      </trkpt>
      <trkpt lat="41.61752" lon="1.65124">
        <ele>419.8</ele>
        <time>2022-05-20 22:32:39</time>
      </trkpt>
      <trkpt lat="41.61753" lon="1.6513">
        <ele>420</ele>
        <time>2022-05-20 22:32:40</time>
      </trkpt>
      <trkpt lat="41.61755" lon="1.65135">
        <ele>420.2</ele>
        <time>2022-05-20 22:32:41</time>
      </trkpt>
      <trkpt lat="41.61755" lon="1.6514">
        <ele>420.4</ele>
        <time>2022-05-20 22:32:42</time>
      </trkpt>
      <trkpt lat="41.61757" lon="1.65145">
        <ele>420.6</ele>
        <time>2022-05-20 22:32:43</time>
      </trkpt>
      <trkpt lat="41.61758" lon="1.65151">
        <ele>420.8</ele>
        <time>2022-05-20 22:32:44</time>
      </trkpt>
      <trkpt lat="41.61758" lon="1.65156">
        <ele>421</ele>
        <time>2022-05-20 22:32:45</time>
      </trkpt>
      <trkpt lat="41.61759" lon="1.65161">
        <ele>421</ele>
        <time>2022-05-20 22:32:46</time>
      </trkpt>
      <trkpt lat="41.6176" lon="1.65167">
        <ele>421.2</ele>
        <time>2022-05-20 22:32:47</time>
      </trkpt>
      <trkpt lat="41.6176" lon="1.65173">
        <ele>421.4</ele>
        <time>2022-05-20 22:32:48</time>
      </trkpt>
      <trkpt lat="41.61761" lon="1.65178">
        <ele>421.6</ele>
        <time>2022-05-20 22:32:49</time>
      </trkpt>
      <trkpt lat="41.61762" lon="1.65183">
        <ele>421.6</ele>
        <time>2022-05-20 22:32:50</time>
      </trkpt>
      <trkpt lat="41.61763" lon="1.65189">
        <ele>421.8</ele>
        <time>2022-05-20 22:32:51</time>
      </trkpt>
      <trkpt lat="41.61763" lon="1.65194">
        <ele>422</ele>
        <time>2022-05-20 22:32:52</time>
      </trkpt>
      <trkpt lat="41.61765" lon="1.65199">
        <ele>422.2</ele>
        <time>2022-05-20 22:32:53</time>
      </trkpt>
      <trkpt lat="41.61765" lon="1.65205">
        <ele>422.4</ele>
        <time>2022-05-20 22:32:54</time>
      </trkpt>
      <trkpt lat="41.61766" lon="1.6521">
        <ele>422.4</ele>
        <time>2022-05-20 22:32:55</time>
      </trkpt>
      <trkpt lat="41.61766" lon="1.65215">
        <ele>422.6</ele>
        <time>2022-05-20 22:32:56</time>
      </trkpt>
      <trkpt lat="41.61767" lon="1.6522">
        <ele>422.8</ele>
        <time>2022-05-20 22:32:57</time>
      </trkpt>
      <trkpt lat="41.61768" lon="1.65225">
        <ele>422.8</ele>
        <time>2022-05-20 22:32:58</time>
      </trkpt>
      <trkpt lat="41.61768" lon="1.6523">
        <ele>423</ele>
        <time>2022-05-20 22:32:59</time>
      </trkpt>
      <trkpt lat="41.61769" lon="1.65235">
        <ele>423.2</ele>
        <time>2022-05-20 22:33:00</time>
      </trkpt>
      <trkpt lat="41.61771" lon="1.6524">
        <ele>423.2</ele>
        <time>2022-05-20 22:33:01</time>
      </trkpt>
      <trkpt lat="41.61771" lon="1.65246">
        <ele>423.4</ele>
        <time>2022-05-20 22:33:02</time>
      </trkpt>
      <trkpt lat="41.61772" lon="1.65251">
        <ele>423.6</ele>
        <time>2022-05-20 22:33:03</time>
      </trkpt>
      <trkpt lat="41.61773" lon="1.65256">
        <ele>423.6</ele>
        <time>2022-05-20 22:33:04</time>
      </trkpt>
      <trkpt lat="41.61774" lon="1.65262">
        <ele>423.8</ele>
        <time>2022-05-20 22:33:05</time>
      </trkpt>
      <trkpt lat="41.61775" lon="1.65267">
        <ele>423.8</ele>
        <time>2022-05-20 22:33:06</time>
      </trkpt>
      <trkpt lat="41.61776" lon="1.65273">
        <ele>424</ele>
        <time>2022-05-20 22:33:07</time>
      </trkpt>
      <trkpt lat="41.61776" lon="1.65279">
        <ele>424</ele>
        <time>2022-05-20 22:33:08</time>
      </trkpt>
      <trkpt lat="41.61777" lon="1.65284">
        <ele>424.2</ele>
        <time>2022-05-20 22:33:09</time>
      </trkpt>
      <trkpt lat="41.61778" lon="1.6529">
        <ele>424.2</ele>
        <time>2022-05-20 22:33:10</time>
      </trkpt>
      <trkpt lat="41.61779" lon="1.65295">
        <ele>424.4</ele>
        <time>2022-05-20 22:33:11</time>
      </trkpt>
      <trkpt lat="41.6178" lon="1.65301">
        <ele>424.6</ele>
        <time>2022-05-20 22:33:12</time>
      </trkpt>
      <trkpt lat="41.61781" lon="1.65306">
        <ele>424.8</ele>
        <time>2022-05-20 22:33:13</time>
      </trkpt>
      <trkpt lat="41.61782" lon="1.65312">
        <ele>424.8</ele>
        <time>2022-05-20 22:33:14</time>
      </trkpt>
      <trkpt lat="41.61782" lon="1.65317">
        <ele>425</ele>
        <time>2022-05-20 22:33:15</time>
      </trkpt>
      <trkpt lat="41.61783" lon="1.65322">
        <ele>425.2</ele>
        <time>2022-05-20 22:33:16</time>
      </trkpt>
      <trkpt lat="41.61784" lon="1.65328">
        <ele>425.4</ele>
        <time>2022-05-20 22:33:17</time>
      </trkpt>
      <trkpt lat="41.61785" lon="1.65333">
        <ele>425.4</ele>
        <time>2022-05-20 22:33:18</time>
      </trkpt>
      <trkpt lat="41.61786" lon="1.65338">
        <ele>425.6</ele>
        <time>2022-05-20 22:33:19</time>
      </trkpt>
      <trkpt lat="41.61787" lon="1.65343">
        <ele>425.8</ele>
        <time>2022-05-20 22:33:20</time>
      </trkpt>
      <trkpt lat="41.61789" lon="1.65348">
        <ele>426</ele>
        <time>2022-05-20 22:33:21</time>
      </trkpt>
      <trkpt lat="41.6179" lon="1.65353">
        <ele>426</ele>
        <time>2022-05-20 22:33:22</time>
      </trkpt>
      <trkpt lat="41.61792" lon="1.65358">
        <ele>426.2</ele>
        <time>2022-05-20 22:33:23</time>
      </trkpt>
      <trkpt lat="41.61795" lon="1.65363">
        <ele>426.4</ele>
        <time>2022-05-20 22:33:24</time>
      </trkpt>
      <trkpt lat="41.61797" lon="1.65367">
        <ele>426.6</ele>
        <time>2022-05-20 22:33:25</time>
      </trkpt>
      <trkpt lat="41.618" lon="1.65371">
        <ele>426.6</ele>
        <time>2022-05-20 22:33:26</time>
      </trkpt>
      <trkpt lat="41.61803" lon="1.65373">
        <ele>426.8</ele>
        <time>2022-05-20 22:33:27</time>
      </trkpt>
      <trkpt lat="41.61807" lon="1.65376">
        <ele>427</ele>
        <time>2022-05-20 22:33:28</time>
      </trkpt>
      <trkpt lat="41.61811" lon="1.65377">
        <ele>427</ele>
        <time>2022-05-20 22:33:29</time>
      </trkpt>
      <trkpt lat="41.61815" lon="1.65379">
        <ele>427.2</ele>
        <time>2022-05-20 22:33:30</time>
      </trkpt>
      <trkpt lat="41.61819" lon="1.6538">
        <ele>427.4</ele>
        <time>2022-05-20 22:33:31</time>
      </trkpt>
      <trkpt lat="41.61823" lon="1.65381">
        <ele>427.4</ele>
        <time>2022-05-20 22:33:32</time>
      </trkpt>
      <trkpt lat="41.61827" lon="1.65382">
        <ele>427.6</ele>
        <time>2022-05-20 22:33:33</time>
      </trkpt>
      <trkpt lat="41.61831" lon="1.65383">
        <ele>427.8</ele>
        <time>2022-05-20 22:33:34</time>
      </trkpt>
      <trkpt lat="41.61835" lon="1.65384">
        <ele>427.8</ele>
        <time>2022-05-20 22:33:35</time>
      </trkpt>
      <trkpt lat="41.61839" lon="1.65384">
        <ele>428</ele>
        <time>2022-05-20 22:33:36</time>
      </trkpt>
      <trkpt lat="41.61843" lon="1.65384">
        <ele>428.2</ele>
        <time>2022-05-20 22:33:37</time>
      </trkpt>
      <trkpt lat="41.61847" lon="1.65384">
        <ele>428.4</ele>
        <time>2022-05-20 22:33:38</time>
      </trkpt>
      <trkpt lat="41.61852" lon="1.65383">
        <ele>428.4</ele>
        <time>2022-05-20 22:33:39</time>
      </trkpt>
      <trkpt lat="41.61856" lon="1.65383">
        <ele>428.6</ele>
        <time>2022-05-20 22:33:40</time>
      </trkpt>
      <trkpt lat="41.61861" lon="1.65382">
        <ele>428.6</ele>
        <time>2022-05-20 22:33:41</time>
      </trkpt>
      <trkpt lat="41.61865" lon="1.65381">
        <ele>428.8</ele>
        <time>2022-05-20 22:33:42</time>
      </trkpt>
      <trkpt lat="41.6187" lon="1.65381">
        <ele>428.8</ele>
        <time>2022-05-20 22:33:43</time>
      </trkpt>
      <trkpt lat="41.61874" lon="1.65381">
        <ele>429</ele>
        <time>2022-05-20 22:33:44</time>
      </trkpt>
      <trkpt lat="41.61879" lon="1.65381">
        <ele>429</ele>
        <time>2022-05-20 22:33:45</time>
      </trkpt>
      <trkpt lat="41.61884" lon="1.65383">
        <ele>429.2</ele>
        <time>2022-05-20 22:33:46</time>
      </trkpt>
      <trkpt lat="41.61888" lon="1.65385">
        <ele>429.2</ele>
        <time>2022-05-20 22:33:47</time>
      </trkpt>
      <trkpt lat="41.61891" lon="1.65389">
        <ele>429.4</ele>
        <time>2022-05-20 22:33:48</time>
      </trkpt>
      <trkpt lat="41.61895" lon="1.65393">
        <ele>429.6</ele>
        <time>2022-05-20 22:33:49</time>
      </trkpt>
      <trkpt lat="41.61898" lon="1.65397">
        <ele>429.8</ele>
        <time>2022-05-20 22:33:50</time>
      </trkpt>
      <trkpt lat="41.61901" lon="1.65402">
        <ele>429.8</ele>
        <time>2022-05-20 22:33:51</time>
      </trkpt>
      <trkpt lat="41.61905" lon="1.65406">
        <ele>430</ele>
        <time>2022-05-20 22:33:52</time>
      </trkpt>
      <trkpt lat="41.61908" lon="1.65411">
        <ele>430.2</ele>
        <time>2022-05-20 22:33:53</time>
      </trkpt>
      <trkpt lat="41.6191" lon="1.65416">
        <ele>430.2</ele>
        <time>2022-05-20 22:33:54</time>
      </trkpt>
      <trkpt lat="41.61913" lon="1.65422">
        <ele>430.4</ele>
        <time>2022-05-20 22:33:55</time>
      </trkpt>
      <trkpt lat="41.61916" lon="1.65427">
        <ele>430.4</ele>
        <time>2022-05-20 22:33:56</time>
      </trkpt>
      <trkpt lat="41.6192" lon="1.65431">
        <ele>430.6</ele>
        <time>2022-05-20 22:33:57</time>
      </trkpt>
      <trkpt lat="41.61924" lon="1.65435">
        <ele>430.8</ele>
        <time>2022-05-20 22:33:58</time>
      </trkpt>
      <trkpt lat="41.61927" lon="1.65439">
        <ele>431</ele>
        <time>2022-05-20 22:33:59</time>
      </trkpt>
      <trkpt lat="41.61931" lon="1.65442">
        <ele>431</ele>
        <time>2022-05-20 22:34:00</time>
      </trkpt>
      <trkpt lat="41.61935" lon="1.65445">
        <ele>431.2</ele>
        <time>2022-05-20 22:34:01</time>
      </trkpt>
      <trkpt lat="41.61939" lon="1.65447">
        <ele>431.2</ele>
        <time>2022-05-20 22:34:02</time>
      </trkpt>
      <trkpt lat="41.61944" lon="1.65449">
        <ele>431.4</ele>
        <time>2022-05-20 22:34:03</time>
      </trkpt>
      <trkpt lat="41.61949" lon="1.65449">
        <ele>431.4</ele>
        <time>2022-05-20 22:34:04</time>
      </trkpt>
      <trkpt lat="41.61954" lon="1.6545">
        <ele>431.6</ele>
        <time>2022-05-20 22:34:05</time>
      </trkpt>
      <trkpt lat="41.61959" lon="1.65451">
        <ele>431.6</ele>
        <time>2022-05-20 22:34:06</time>
      </trkpt>
      <trkpt lat="41.61964" lon="1.65451">
        <ele>431.8</ele>
        <time>2022-05-20 22:34:07</time>
      </trkpt>
      <trkpt lat="41.61969" lon="1.65452">
        <ele>431.8</ele>
        <time>2022-05-20 22:34:08</time>
      </trkpt>
      <trkpt lat="41.61974" lon="1.65452">
        <ele>432</ele>
        <time>2022-05-20 22:34:09</time>
      </trkpt>
      <trkpt lat="41.6198" lon="1.65452">
        <ele>432</ele>
        <time>2022-05-20 22:34:10</time>
      </trkpt>
      <trkpt lat="41.61985" lon="1.65453">
        <ele>432.2</ele>
        <time>2022-05-20 22:34:11</time>
      </trkpt>
      <trkpt lat="41.6199" lon="1.65453">
        <ele>432.2</ele>
        <time>2022-05-20 22:34:12</time>
      </trkpt>
      <trkpt lat="41.61995" lon="1.65453">
        <ele>432.4</ele>
        <time>2022-05-20 22:34:13</time>
      </trkpt>
      <trkpt lat="41.62" lon="1.65453">
        <ele>432.6</ele>
        <time>2022-05-20 22:34:14</time>
      </trkpt>
      <trkpt lat="41.62005" lon="1.65453">
        <ele>432.6</ele>
        <time>2022-05-20 22:34:15</time>
      </trkpt>
      <trkpt lat="41.62009" lon="1.65454">
        <ele>432.8</ele>
        <time>2022-05-20 22:34:16</time>
      </trkpt>
      <trkpt lat="41.62014" lon="1.65454">
        <ele>432.8</ele>
        <time>2022-05-20 22:34:17</time>
      </trkpt>
      <trkpt lat="41.62019" lon="1.65454">
        <ele>433</ele>
        <time>2022-05-20 22:34:18</time>
      </trkpt>
      <trkpt lat="41.62024" lon="1.65454">
        <ele>433.2</ele>
        <time>2022-05-20 22:34:19</time>
      </trkpt>
      <trkpt lat="41.62029" lon="1.65454">
        <ele>433.2</ele>
        <time>2022-05-20 22:34:20</time>
      </trkpt>
      <trkpt lat="41.62033" lon="1.65454">
        <ele>433.4</ele>
        <time>2022-05-20 22:34:21</time>
      </trkpt>
      <trkpt lat="41.62037" lon="1.65454">
        <ele>433.6</ele>
        <time>2022-05-20 22:34:22</time>
      </trkpt>
      <trkpt lat="41.62042" lon="1.65454">
        <ele>433.6</ele>
        <time>2022-05-20 22:34:23</time>
      </trkpt>
      <trkpt lat="41.62046" lon="1.65455">
        <ele>433.8</ele>
        <time>2022-05-20 22:34:24</time>
      </trkpt>
      <trkpt lat="41.62051" lon="1.65455">
        <ele>433.8</ele>
        <time>2022-05-20 22:34:25</time>
      </trkpt>
      <trkpt lat="41.62056" lon="1.65456">
        <ele>434</ele>
        <time>2022-05-20 22:34:26</time>
      </trkpt>
      <trkpt lat="41.62061" lon="1.65456">
        <ele>434</ele>
        <time>2022-05-20 22:34:27</time>
      </trkpt>
      <trkpt lat="41.62065" lon="1.65456">
        <ele>434.2</ele>
        <time>2022-05-20 22:34:28</time>
      </trkpt>
      <trkpt lat="41.62069" lon="1.65457">
        <ele>434.4</ele>
        <time>2022-05-20 22:34:29</time>
      </trkpt>
      <trkpt lat="41.62073" lon="1.65458">
        <ele>434.6</ele>
        <time>2022-05-20 22:34:30</time>
      </trkpt>
      <trkpt lat="41.62077" lon="1.6546">
        <ele>434.6</ele>
        <time>2022-05-20 22:34:31</time>
      </trkpt>
      <trkpt lat="41.62082" lon="1.65461">
        <ele>434.8</ele>
        <time>2022-05-20 22:34:32</time>
      </trkpt>
      <trkpt lat="41.62085" lon="1.65462">
        <ele>434.8</ele>
        <time>2022-05-20 22:34:33</time>
      </trkpt>
      <trkpt lat="41.62089" lon="1.65464">
        <ele>435</ele>
        <time>2022-05-20 22:34:34</time>
      </trkpt>
      <trkpt lat="41.62093" lon="1.65467">
        <ele>435</ele>
        <time>2022-05-20 22:34:35</time>
      </trkpt>
      <trkpt lat="41.62096" lon="1.65469">
        <ele>435.2</ele>
        <time>2022-05-20 22:34:36</time>
      </trkpt>
      <trkpt lat="41.621" lon="1.65471">
        <ele>435.4</ele>
        <time>2022-05-20 22:34:37</time>
      </trkpt>
      <trkpt lat="41.62103" lon="1.65473">
        <ele>435.4</ele>
        <time>2022-05-20 22:34:38</time>
      </trkpt>
      <trkpt lat="41.62107" lon="1.65476">
        <ele>435.6</ele>
        <time>2022-05-20 22:34:39</time>
      </trkpt>
      <trkpt lat="41.62111" lon="1.65478">
        <ele>435.8</ele>
        <time>2022-05-20 22:34:40</time>
      </trkpt>
      <trkpt lat="41.62114" lon="1.6548">
        <ele>436</ele>
        <time>2022-05-20 22:34:41</time>
      </trkpt>
      <trkpt lat="41.62117" lon="1.65483">
        <ele>436</ele>
        <time>2022-05-20 22:34:42</time>
      </trkpt>
      <trkpt lat="41.6212" lon="1.65486">
        <ele>436.2</ele>
        <time>2022-05-20 22:34:43</time>
      </trkpt>
      <trkpt lat="41.62124" lon="1.65489">
        <ele>436.4</ele>
        <time>2022-05-20 22:34:44</time>
      </trkpt>
      <trkpt lat="41.62127" lon="1.65492">
        <ele>436.6</ele>
        <time>2022-05-20 22:34:45</time>
      </trkpt>
      <trkpt lat="41.62131" lon="1.65494">
        <ele>436.8</ele>
        <time>2022-05-20 22:34:46</time>
      </trkpt>
      <trkpt lat="41.62135" lon="1.65496">
        <ele>436.8</ele>
        <time>2022-05-20 22:34:47</time>
      </trkpt>
      <trkpt lat="41.62139" lon="1.65499">
        <ele>437</ele>
        <time>2022-05-20 22:34:48</time>
      </trkpt>
      <trkpt lat="41.62142" lon="1.65502">
        <ele>437.2</ele>
        <time>2022-05-20 22:34:49</time>
      </trkpt>
      <trkpt lat="41.62146" lon="1.65505">
        <ele>437.2</ele>
        <time>2022-05-20 22:34:50</time>
      </trkpt>
      <trkpt lat="41.62149" lon="1.65508">
        <ele>437.4</ele>
        <time>2022-05-20 22:34:51</time>
      </trkpt>
      <trkpt lat="41.62152" lon="1.65511">
        <ele>437.6</ele>
        <time>2022-05-20 22:34:52</time>
      </trkpt>
      <trkpt lat="41.62156" lon="1.65515">
        <ele>437.6</ele>
        <time>2022-05-20 22:34:53</time>
      </trkpt>
      <trkpt lat="41.6216" lon="1.65518">
        <ele>437.8</ele>
        <time>2022-05-20 22:34:54</time>
      </trkpt>
      <trkpt lat="41.62164" lon="1.65522">
        <ele>437.8</ele>
        <time>2022-05-20 22:34:55</time>
      </trkpt>
      <trkpt lat="41.62167" lon="1.65526">
        <ele>437.8</ele>
        <time>2022-05-20 22:34:56</time>
      </trkpt>
      <trkpt lat="41.6217" lon="1.65531">
        <ele>438</ele>
        <time>2022-05-20 22:34:57</time>
      </trkpt>
      <trkpt lat="41.62174" lon="1.65535">
        <ele>438</ele>
        <time>2022-05-20 22:34:58</time>
      </trkpt>
      <trkpt lat="41.62177" lon="1.6554">
        <ele>438.2</ele>
        <time>2022-05-20 22:34:59</time>
      </trkpt>
      <trkpt lat="41.6218" lon="1.65545">
        <ele>438.4</ele>
        <time>2022-05-20 22:35:00</time>
      </trkpt>
      <trkpt lat="41.62182" lon="1.6555">
        <ele>438.6</ele>
        <time>2022-05-20 22:35:01</time>
      </trkpt>
      <trkpt lat="41.62184" lon="1.65556">
        <ele>438.6</ele>
        <time>2022-05-20 22:35:02</time>
      </trkpt>
      <trkpt lat="41.62186" lon="1.65561">
        <ele>438.8</ele>
        <time>2022-05-20 22:35:03</time>
      </trkpt>
      <trkpt lat="41.62188" lon="1.65567">
        <ele>439</ele>
        <time>2022-05-20 22:35:04</time>
      </trkpt>
      <trkpt lat="41.62189" lon="1.65573">
        <ele>439.2</ele>
        <time>2022-05-20 22:35:05</time>
      </trkpt>
      <trkpt lat="41.6219" lon="1.65578">
        <ele>439.4</ele>
        <time>2022-05-20 22:35:06</time>
      </trkpt>
      <trkpt lat="41.62191" lon="1.65584">
        <ele>439.6</ele>
        <time>2022-05-20 22:35:07</time>
      </trkpt>
      <trkpt lat="41.62193" lon="1.65589">
        <ele>439.8</ele>
        <time>2022-05-20 22:35:08</time>
      </trkpt>
      <trkpt lat="41.62194" lon="1.65595">
        <ele>439.8</ele>
        <time>2022-05-20 22:35:09</time>
      </trkpt>
      <trkpt lat="41.62196" lon="1.656">
        <ele>440</ele>
        <time>2022-05-20 22:35:10</time>
      </trkpt>
      <trkpt lat="41.62199" lon="1.65605">
        <ele>440.2</ele>
        <time>2022-05-20 22:35:11</time>
      </trkpt>
      <trkpt lat="41.62201" lon="1.6561">
        <ele>440.2</ele>
        <time>2022-05-20 22:35:12</time>
      </trkpt>
      <trkpt lat="41.62204" lon="1.65614">
        <ele>440.4</ele>
        <time>2022-05-20 22:35:13</time>
      </trkpt>
      <trkpt lat="41.62207" lon="1.65619">
        <ele>440.6</ele>
        <time>2022-05-20 22:35:14</time>
      </trkpt>
      <trkpt lat="41.62209" lon="1.65624">
        <ele>440.6</ele>
        <time>2022-05-20 22:35:15</time>
      </trkpt>
      <trkpt lat="41.62212" lon="1.65628">
        <ele>440.8</ele>
        <time>2022-05-20 22:35:16</time>
      </trkpt>
      <trkpt lat="41.62215" lon="1.65632">
        <ele>441</ele>
        <time>2022-05-20 22:35:17</time>
      </trkpt>
      <trkpt lat="41.62219" lon="1.65635">
        <ele>441</ele>
        <time>2022-05-20 22:35:18</time>
      </trkpt>
      <trkpt lat="41.62223" lon="1.65638">
        <ele>441.2</ele>
        <time>2022-05-20 22:35:19</time>
      </trkpt>
      <trkpt lat="41.62227" lon="1.65642">
        <ele>441.4</ele>
        <time>2022-05-20 22:35:20</time>
      </trkpt>
      <trkpt lat="41.62231" lon="1.65646">
        <ele>441.6</ele>
        <time>2022-05-20 22:35:21</time>
      </trkpt>
      <trkpt lat="41.62234" lon="1.65649">
        <ele>441.6</ele>
        <time>2022-05-20 22:35:22</time>
      </trkpt>
      <trkpt lat="41.62238" lon="1.65653">
        <ele>441.8</ele>
        <time>2022-05-20 22:35:23</time>
      </trkpt>
      <trkpt lat="41.62241" lon="1.65656">
        <ele>441.8</ele>
        <time>2022-05-20 22:35:24</time>
      </trkpt>
      <trkpt lat="41.62246" lon="1.6566">
        <ele>442</ele>
        <time>2022-05-20 22:35:25</time>
      </trkpt>
      <trkpt lat="41.62249" lon="1.65663">
        <ele>442.2</ele>
        <time>2022-05-20 22:35:26</time>
      </trkpt>
      <trkpt lat="41.62253" lon="1.65666">
        <ele>442.2</ele>
        <time>2022-05-20 22:35:27</time>
      </trkpt>
      <trkpt lat="41.62257" lon="1.65669">
        <ele>442.4</ele>
        <time>2022-05-20 22:35:28</time>
      </trkpt>
      <trkpt lat="41.62261" lon="1.65672">
        <ele>442.6</ele>
        <time>2022-05-20 22:35:29</time>
      </trkpt>
      <trkpt lat="41.62265" lon="1.65675">
        <ele>442.8</ele>
        <time>2022-05-20 22:35:30</time>
      </trkpt>
      <trkpt lat="41.62268" lon="1.65678">
        <ele>442.8</ele>
        <time>2022-05-20 22:35:31</time>
      </trkpt>
      <trkpt lat="41.62272" lon="1.65681">
        <ele>443</ele>
        <time>2022-05-20 22:35:32</time>
      </trkpt>
      <trkpt lat="41.62276" lon="1.65684">
        <ele>443.2</ele>
        <time>2022-05-20 22:35:33</time>
      </trkpt>
      <trkpt lat="41.6228" lon="1.65687">
        <ele>443.2</ele>
        <time>2022-05-20 22:35:34</time>
      </trkpt>
      <trkpt lat="41.62284" lon="1.6569">
        <ele>443.4</ele>
        <time>2022-05-20 22:35:35</time>
      </trkpt>
      <trkpt lat="41.62288" lon="1.65693">
        <ele>443.4</ele>
        <time>2022-05-20 22:35:36</time>
      </trkpt>
      <trkpt lat="41.62292" lon="1.65697">
        <ele>443.6</ele>
        <time>2022-05-20 22:35:37</time>
      </trkpt>
      <trkpt lat="41.62296" lon="1.657">
        <ele>443.8</ele>
        <time>2022-05-20 22:35:38</time>
      </trkpt>
      <trkpt lat="41.62299" lon="1.65703">
        <ele>443.8</ele>
        <time>2022-05-20 22:35:39</time>
      </trkpt>
      <trkpt lat="41.62303" lon="1.65706">
        <ele>444</ele>
        <time>2022-05-20 22:35:40</time>
      </trkpt>
      <trkpt lat="41.62307" lon="1.65709">
        <ele>444.2</ele>
        <time>2022-05-20 22:35:41</time>
      </trkpt>
      <trkpt lat="41.6231" lon="1.65713">
        <ele>444.2</ele>
        <time>2022-05-20 22:35:42</time>
      </trkpt>
      <trkpt lat="41.62315" lon="1.65716">
        <ele>444.4</ele>
        <time>2022-05-20 22:35:43</time>
      </trkpt>
      <trkpt lat="41.62318" lon="1.6572">
        <ele>444.6</ele>
        <time>2022-05-20 22:35:44</time>
      </trkpt>
      <trkpt lat="41.62321" lon="1.65724">
        <ele>444.6</ele>
        <time>2022-05-20 22:35:45</time>
      </trkpt>
      <trkpt lat="41.62325" lon="1.65727">
        <ele>444.8</ele>
        <time>2022-05-20 22:35:46</time>
      </trkpt>
      <trkpt lat="41.62328" lon="1.65731">
        <ele>445</ele>
        <time>2022-05-20 22:35:47</time>
      </trkpt>
      <trkpt lat="41.62332" lon="1.65735">
        <ele>445.2</ele>
        <time>2022-05-20 22:35:48</time>
      </trkpt>
      <trkpt lat="41.62335" lon="1.65739">
        <ele>445.4</ele>
        <time>2022-05-20 22:35:49</time>
      </trkpt>
      <trkpt lat="41.62338" lon="1.65743">
        <ele>445.4</ele>
        <time>2022-05-20 22:35:50</time>
      </trkpt>
      <trkpt lat="41.62341" lon="1.65747">
        <ele>445.6</ele>
        <time>2022-05-20 22:35:51</time>
      </trkpt>
      <trkpt lat="41.62345" lon="1.65751">
        <ele>445.8</ele>
        <time>2022-05-20 22:35:52</time>
      </trkpt>
      <trkpt lat="41.62348" lon="1.65755">
        <ele>445.8</ele>
        <time>2022-05-20 22:35:53</time>
      </trkpt>
      <trkpt lat="41.62352" lon="1.65759">
        <ele>446</ele>
        <time>2022-05-20 22:35:54</time>
      </trkpt>
      <trkpt lat="41.62355" lon="1.65763">
        <ele>446.2</ele>
        <time>2022-05-20 22:35:55</time>
      </trkpt>
      <trkpt lat="41.62358" lon="1.65768">
        <ele>446.4</ele>
        <time>2022-05-20 22:35:56</time>
      </trkpt>
      <trkpt lat="41.62362" lon="1.65772">
        <ele>446.4</ele>
        <time>2022-05-20 22:35:57</time>
      </trkpt>
      <trkpt lat="41.62365" lon="1.65776">
        <ele>446.6</ele>
        <time>2022-05-20 22:35:58</time>
      </trkpt>
      <trkpt lat="41.62368" lon="1.6578">
        <ele>446.8</ele>
        <time>2022-05-20 22:35:59</time>
      </trkpt>
      <trkpt lat="41.62372" lon="1.65784">
        <ele>446.8</ele>
        <time>2022-05-20 22:36:00</time>
      </trkpt>
      <trkpt lat="41.62375" lon="1.65789">
        <ele>447</ele>
        <time>2022-05-20 22:36:01</time>
      </trkpt>
      <trkpt lat="41.62379" lon="1.65793">
        <ele>447.2</ele>
        <time>2022-05-20 22:36:02</time>
      </trkpt>
      <trkpt lat="41.62382" lon="1.65797">
        <ele>447.2</ele>
        <time>2022-05-20 22:36:03</time>
      </trkpt>
      <trkpt lat="41.62385" lon="1.65802">
        <ele>447.4</ele>
        <time>2022-05-20 22:36:04</time>
      </trkpt>
      <trkpt lat="41.62388" lon="1.65806">
        <ele>447.6</ele>
        <time>2022-05-20 22:36:05</time>
      </trkpt>
      <trkpt lat="41.62392" lon="1.6581">
        <ele>447.6</ele>
        <time>2022-05-20 22:36:06</time>
      </trkpt>
      <trkpt lat="41.62395" lon="1.65814">
        <ele>447.8</ele>
        <time>2022-05-20 22:36:07</time>
      </trkpt>
      <trkpt lat="41.62399" lon="1.65819">
        <ele>447.8</ele>
        <time>2022-05-20 22:36:08</time>
      </trkpt>
      <trkpt lat="41.62402" lon="1.65823">
        <ele>448</ele>
        <time>2022-05-20 22:36:09</time>
      </trkpt>
      <trkpt lat="41.62405" lon="1.65827">
        <ele>448.2</ele>
        <time>2022-05-20 22:36:10</time>
      </trkpt>
      <trkpt lat="41.62409" lon="1.65831">
        <ele>448.2</ele>
        <time>2022-05-20 22:36:11</time>
      </trkpt>
      <trkpt lat="41.62412" lon="1.65835">
        <ele>448.4</ele>
        <time>2022-05-20 22:36:12</time>
      </trkpt>
      <trkpt lat="41.62415" lon="1.6584">
        <ele>448.6</ele>
        <time>2022-05-20 22:36:13</time>
      </trkpt>
      <trkpt lat="41.62418" lon="1.65845">
        <ele>448.8</ele>
        <time>2022-05-20 22:36:14</time>
      </trkpt>
      <trkpt lat="41.62421" lon="1.65849">
        <ele>449</ele>
        <time>2022-05-20 22:36:15</time>
      </trkpt>
      <trkpt lat="41.62424" lon="1.65853">
        <ele>449.2</ele>
        <time>2022-05-20 22:36:16</time>
      </trkpt>
      <trkpt lat="41.62426" lon="1.65857">
        <ele>449.4</ele>
        <time>2022-05-20 22:36:17</time>
      </trkpt>
      <trkpt lat="41.62429" lon="1.65861">
        <ele>449.4</ele>
        <time>2022-05-20 22:36:18</time>
      </trkpt>
      <trkpt lat="41.62432" lon="1.65865">
        <ele>449.6</ele>
        <time>2022-05-20 22:36:19</time>
      </trkpt>
      <trkpt lat="41.62434" lon="1.6587">
        <ele>449.8</ele>
        <time>2022-05-20 22:36:20</time>
      </trkpt>
      <trkpt lat="41.62436" lon="1.65874">
        <ele>450</ele>
        <time>2022-05-20 22:36:21</time>
      </trkpt>
      <trkpt lat="41.62438" lon="1.65878">
        <ele>450.2</ele>
        <time>2022-05-20 22:36:22</time>
      </trkpt>
      <trkpt lat="41.6244" lon="1.65883">
        <ele>450.4</ele>
        <time>2022-05-20 22:36:23</time>
      </trkpt>
      <trkpt lat="41.62443" lon="1.65887">
        <ele>450.6</ele>
        <time>2022-05-20 22:36:24</time>
      </trkpt>
      <trkpt lat="41.62445" lon="1.65891">
        <ele>450.8</ele>
        <time>2022-05-20 22:36:25</time>
      </trkpt>
      <trkpt lat="41.62447" lon="1.65896">
        <ele>451</ele>
        <time>2022-05-20 22:36:26</time>
      </trkpt>
      <trkpt lat="41.62449" lon="1.659">
        <ele>451.2</ele>
        <time>2022-05-20 22:36:27</time>
      </trkpt>
      <trkpt lat="41.62452" lon="1.65904">
        <ele>451.4</ele>
        <time>2022-05-20 22:36:28</time>
      </trkpt>
      <trkpt lat="41.62454" lon="1.65908">
        <ele>451.6</ele>
        <time>2022-05-20 22:36:29</time>
      </trkpt>
      <trkpt lat="41.62456" lon="1.65913">
        <ele>451.8</ele>
        <time>2022-05-20 22:36:30</time>
      </trkpt>
      <trkpt lat="41.62458" lon="1.65917">
        <ele>452</ele>
        <time>2022-05-20 22:36:31</time>
      </trkpt>
      <trkpt lat="41.62461" lon="1.65921">
        <ele>452.2</ele>
        <time>2022-05-20 22:36:32</time>
      </trkpt>
      <trkpt lat="41.62463" lon="1.65925">
        <ele>452.2</ele>
        <time>2022-05-20 22:36:33</time>
      </trkpt>
      <trkpt lat="41.62465" lon="1.6593">
        <ele>452.4</ele>
        <time>2022-05-20 22:36:34</time>
      </trkpt>
      <trkpt lat="41.62468" lon="1.65934">
        <ele>452.6</ele>
        <time>2022-05-20 22:36:35</time>
      </trkpt>
      <trkpt lat="41.6247" lon="1.65938">
        <ele>452.8</ele>
        <time>2022-05-20 22:36:36</time>
      </trkpt>
      <trkpt lat="41.62472" lon="1.65943">
        <ele>453</ele>
        <time>2022-05-20 22:36:37</time>
      </trkpt>
      <trkpt lat="41.62475" lon="1.65947">
        <ele>453.2</ele>
        <time>2022-05-20 22:36:38</time>
      </trkpt>
      <trkpt lat="41.62477" lon="1.65951">
        <ele>453.4</ele>
        <time>2022-05-20 22:36:39</time>
      </trkpt>
      <trkpt lat="41.62479" lon="1.65954">
        <ele>453.6</ele>
        <time>2022-05-20 22:36:40</time>
      </trkpt>
      <trkpt lat="41.62482" lon="1.65959">
        <ele>453.8</ele>
        <time>2022-05-20 22:36:41</time>
      </trkpt>
      <trkpt lat="41.62484" lon="1.65963">
        <ele>454</ele>
        <time>2022-05-20 22:36:42</time>
      </trkpt>
      <trkpt lat="41.62487" lon="1.65966">
        <ele>454.2</ele>
        <time>2022-05-20 22:36:43</time>
      </trkpt>
      <trkpt lat="41.6249" lon="1.6597">
        <ele>454.4</ele>
        <time>2022-05-20 22:36:44</time>
      </trkpt>
      <trkpt lat="41.62492" lon="1.65973">
        <ele>454.6</ele>
        <time>2022-05-20 22:36:45</time>
      </trkpt>
      <trkpt lat="41.62495" lon="1.65977">
        <ele>454.8</ele>
        <time>2022-05-20 22:36:46</time>
      </trkpt>
      <trkpt lat="41.62498" lon="1.6598">
        <ele>455</ele>
        <time>2022-05-20 22:36:47</time>
      </trkpt>
      <trkpt lat="41.625" lon="1.65984">
        <ele>455.4</ele>
        <time>2022-05-20 22:36:48</time>
      </trkpt>
      <trkpt lat="41.62503" lon="1.65987">
        <ele>455.6</ele>
        <time>2022-05-20 22:36:49</time>
      </trkpt>
      <trkpt lat="41.62505" lon="1.65991">
        <ele>455.8</ele>
        <time>2022-05-20 22:36:50</time>
      </trkpt>
      <trkpt lat="41.62508" lon="1.65994">
        <ele>456</ele>
        <time>2022-05-20 22:36:51</time>
      </trkpt>
      <trkpt lat="41.62511" lon="1.65998">
        <ele>456.2</ele>
        <time>2022-05-20 22:36:52</time>
      </trkpt>
      <trkpt lat="41.62513" lon="1.66001">
        <ele>456.4</ele>
        <time>2022-05-20 22:36:53</time>
      </trkpt>
      <trkpt lat="41.62515" lon="1.66006">
        <ele>456.6</ele>
        <time>2022-05-20 22:36:54</time>
      </trkpt>
      <trkpt lat="41.62517" lon="1.6601">
        <ele>456.8</ele>
        <time>2022-05-20 22:36:55</time>
      </trkpt>
      <trkpt lat="41.62519" lon="1.66014">
        <ele>457</ele>
        <time>2022-05-20 22:36:56</time>
      </trkpt>
      <trkpt lat="41.62521" lon="1.66018">
        <ele>457.2</ele>
        <time>2022-05-20 22:36:57</time>
      </trkpt>
      <trkpt lat="41.62523" lon="1.66021">
        <ele>457.4</ele>
        <time>2022-05-20 22:36:58</time>
      </trkpt>
      <trkpt lat="41.62524" lon="1.66023">
        <ele>457.4</ele>
        <time>2022-05-20 22:36:59</time>
      </trkpt>
      <trkpt lat="41.62526" lon="1.66029">
        <ele>457.8</ele>
        <time>2022-05-20 22:37:00</time>
      </trkpt>
      <trkpt lat="41.62528" lon="1.66032">
        <ele>458</ele>
        <time>2022-05-20 22:37:01</time>
      </trkpt>
      <trkpt lat="41.62529" lon="1.66035">
        <ele>458.2</ele>
        <time>2022-05-20 22:37:02</time>
      </trkpt>
      <trkpt lat="41.62533" lon="1.6604">
        <ele>458.6</ele>
        <time>2022-05-20 22:37:03</time>
      </trkpt>
      <trkpt lat="41.62536" lon="1.66043">
        <ele>458.8</ele>
        <time>2022-05-20 22:37:04</time>
      </trkpt>
      <trkpt lat="41.62538" lon="1.66046">
        <ele>459</ele>
        <time>2022-05-20 22:37:05</time>
      </trkpt>
      <trkpt lat="41.6254" lon="1.66048">
        <ele>459</ele>
        <time>2022-05-20 22:37:06</time>
      </trkpt>
      <trkpt lat="41.62543" lon="1.66052">
        <ele>459.2</ele>
        <time>2022-05-20 22:37:07</time>
      </trkpt>
      <trkpt lat="41.62546" lon="1.66055">
        <ele>459.4</ele>
        <time>2022-05-20 22:37:08</time>
      </trkpt>
      <trkpt lat="41.62549" lon="1.66058">
        <ele>459.6</ele>
        <time>2022-05-20 22:37:09</time>
      </trkpt>
      <trkpt lat="41.62552" lon="1.66062">
        <ele>459.6</ele>
        <time>2022-05-20 22:37:10</time>
      </trkpt>
      <trkpt lat="41.62554" lon="1.66066">
        <ele>459.8</ele>
        <time>2022-05-20 22:37:11</time>
      </trkpt>
      <trkpt lat="41.62556" lon="1.66071">
        <ele>460</ele>
        <time>2022-05-20 22:37:12</time>
      </trkpt>
      <trkpt lat="41.62558" lon="1.66075">
        <ele>460.2</ele>
        <time>2022-05-20 22:37:13</time>
      </trkpt>
      <trkpt lat="41.6256" lon="1.6608">
        <ele>460.4</ele>
        <time>2022-05-20 22:37:14</time>
      </trkpt>
      <trkpt lat="41.62561" lon="1.66084">
        <ele>460.8</ele>
        <time>2022-05-20 22:37:15</time>
      </trkpt>
      <trkpt lat="41.62561" lon="1.66089">
        <ele>461</ele>
        <time>2022-05-20 22:37:16</time>
      </trkpt>
      <trkpt lat="41.62562" lon="1.66093">
        <ele>461.2</ele>
        <time>2022-05-20 22:37:17</time>
      </trkpt>
      <trkpt lat="41.62562" lon="1.66097">
        <ele>461.4</ele>
        <time>2022-05-20 22:37:18</time>
      </trkpt>
      <trkpt lat="41.62562" lon="1.66102">
        <ele>461.6</ele>
        <time>2022-05-20 22:37:19</time>
      </trkpt>
      <trkpt lat="41.62561" lon="1.66106">
        <ele>461.8</ele>
        <time>2022-05-20 22:37:20</time>
      </trkpt>
      <trkpt lat="41.62561" lon="1.66111">
        <ele>462</ele>
        <time>2022-05-20 22:37:21</time>
      </trkpt>
      <trkpt lat="41.62561" lon="1.66116">
        <ele>462.2</ele>
        <time>2022-05-20 22:37:22</time>
      </trkpt>
      <trkpt lat="41.62561" lon="1.6612">
        <ele>462.4</ele>
        <time>2022-05-20 22:37:23</time>
      </trkpt>
      <trkpt lat="41.6256" lon="1.66124">
        <ele>462.6</ele>
        <time>2022-05-20 22:37:24</time>
      </trkpt>
      <trkpt lat="41.6256" lon="1.66129">
        <ele>462.8</ele>
        <time>2022-05-20 22:37:25</time>
      </trkpt>
      <trkpt lat="41.62559" lon="1.66133">
        <ele>462.8</ele>
        <time>2022-05-20 22:37:26</time>
      </trkpt>
      <trkpt lat="41.62558" lon="1.66137">
        <ele>463</ele>
        <time>2022-05-20 22:37:27</time>
      </trkpt>
      <trkpt lat="41.62557" lon="1.66142">
        <ele>463.2</ele>
        <time>2022-05-20 22:37:28</time>
      </trkpt>
      <trkpt lat="41.62556" lon="1.66146">
        <ele>463.4</ele>
        <time>2022-05-20 22:37:29</time>
      </trkpt>
      <trkpt lat="41.62555" lon="1.6615">
        <ele>463.6</ele>
        <time>2022-05-20 22:37:30</time>
      </trkpt>
      <trkpt lat="41.62554" lon="1.66155">
        <ele>463.8</ele>
        <time>2022-05-20 22:37:31</time>
      </trkpt>
      <trkpt lat="41.62553" lon="1.66159">
        <ele>464</ele>
        <time>2022-05-20 22:37:32</time>
      </trkpt>
      <trkpt lat="41.62552" lon="1.66163">
        <ele>464.2</ele>
        <time>2022-05-20 22:37:33</time>
      </trkpt>
      <trkpt lat="41.62551" lon="1.66167">
        <ele>464.2</ele>
        <time>2022-05-20 22:37:34</time>
      </trkpt>
      <trkpt lat="41.6255" lon="1.66171">
        <ele>464.4</ele>
        <time>2022-05-20 22:37:35</time>
      </trkpt>
      <trkpt lat="41.6255" lon="1.66175">
        <ele>464.6</ele>
        <time>2022-05-20 22:37:36</time>
      </trkpt>
      <trkpt lat="41.62548" lon="1.66179">
        <ele>464.8</ele>
        <time>2022-05-20 22:37:37</time>
      </trkpt>
      <trkpt lat="41.62547" lon="1.66183">
        <ele>465</ele>
        <time>2022-05-20 22:37:38</time>
      </trkpt>
      <trkpt lat="41.62545" lon="1.66187">
        <ele>465.2</ele>
        <time>2022-05-20 22:37:39</time>
      </trkpt>
      <trkpt lat="41.62543" lon="1.66192">
        <ele>465.4</ele>
        <time>2022-05-20 22:37:40</time>
      </trkpt>
      <trkpt lat="41.62542" lon="1.66196">
        <ele>465.4</ele>
        <time>2022-05-20 22:37:41</time>
      </trkpt>
      <trkpt lat="41.62542" lon="1.662">
        <ele>465.6</ele>
        <time>2022-05-20 22:37:42</time>
      </trkpt>
      <trkpt lat="41.62541" lon="1.66205">
        <ele>465.8</ele>
        <time>2022-05-20 22:37:43</time>
      </trkpt>
      <trkpt lat="41.6254" lon="1.6621">
        <ele>466</ele>
        <time>2022-05-20 22:37:44</time>
      </trkpt>
      <trkpt lat="41.6254" lon="1.66215">
        <ele>466</ele>
        <time>2022-05-20 22:37:45</time>
      </trkpt>
      <trkpt lat="41.62541" lon="1.6622">
        <ele>466.2</ele>
        <time>2022-05-20 22:37:46</time>
      </trkpt>
      <trkpt lat="41.62542" lon="1.66224">
        <ele>466.2</ele>
        <time>2022-05-20 22:37:47</time>
      </trkpt>
      <trkpt lat="41.62544" lon="1.66228">
        <ele>466.4</ele>
        <time>2022-05-20 22:37:48</time>
      </trkpt>
      <trkpt lat="41.62547" lon="1.66232">
        <ele>466.6</ele>
        <time>2022-05-20 22:37:49</time>
      </trkpt>
      <trkpt lat="41.62549" lon="1.66235">
        <ele>466.6</ele>
        <time>2022-05-20 22:37:50</time>
      </trkpt>
      <trkpt lat="41.62552" lon="1.66237">
        <ele>466.8</ele>
        <time>2022-05-20 22:37:51</time>
      </trkpt>
      <trkpt lat="41.62555" lon="1.6624">
        <ele>467</ele>
        <time>2022-05-20 22:37:52</time>
      </trkpt>
      <trkpt lat="41.62557" lon="1.66242">
        <ele>467.2</ele>
        <time>2022-05-20 22:37:53</time>
      </trkpt>
      <trkpt lat="41.6256" lon="1.66244">
        <ele>467.4</ele>
        <time>2022-05-20 22:37:54</time>
      </trkpt>
      <trkpt lat="41.62563" lon="1.66247">
        <ele>467.6</ele>
        <time>2022-05-20 22:37:55</time>
      </trkpt>
      <trkpt lat="41.62565" lon="1.66248">
        <ele>467.8</ele>
        <time>2022-05-20 22:37:56</time>
      </trkpt>
      <trkpt lat="41.62568" lon="1.6625">
        <ele>468</ele>
        <time>2022-05-20 22:37:57</time>
      </trkpt>
      <trkpt lat="41.62571" lon="1.66251">
        <ele>468.2</ele>
        <time>2022-05-20 22:37:58</time>
      </trkpt>
      <trkpt lat="41.62573" lon="1.66253">
        <ele>468.4</ele>
        <time>2022-05-20 22:37:59</time>
      </trkpt>
      <trkpt lat="41.62576" lon="1.66254">
        <ele>468.6</ele>
        <time>2022-05-20 22:38:00</time>
      </trkpt>
      <trkpt lat="41.62578" lon="1.66256">
        <ele>468.6</ele>
        <time>2022-05-20 22:38:01</time>
      </trkpt>
      <trkpt lat="41.62581" lon="1.66258">
        <ele>468.8</ele>
        <time>2022-05-20 22:38:02</time>
      </trkpt>
      <trkpt lat="41.62584" lon="1.6626">
        <ele>469</ele>
        <time>2022-05-20 22:38:03</time>
      </trkpt>
      <trkpt lat="41.62586" lon="1.66263">
        <ele>469.2</ele>
        <time>2022-05-20 22:38:04</time>
      </trkpt>
      <trkpt lat="41.62588" lon="1.66265">
        <ele>469.4</ele>
        <time>2022-05-20 22:38:05</time>
      </trkpt>
      <trkpt lat="41.62591" lon="1.66268">
        <ele>469.6</ele>
        <time>2022-05-20 22:38:06</time>
      </trkpt>
      <trkpt lat="41.62593" lon="1.6627">
        <ele>469.6</ele>
        <time>2022-05-20 22:38:07</time>
      </trkpt>
      <trkpt lat="41.62595" lon="1.66274">
        <ele>469.8</ele>
        <time>2022-05-20 22:38:08</time>
      </trkpt>
      <trkpt lat="41.62597" lon="1.66277">
        <ele>470</ele>
        <time>2022-05-20 22:38:09</time>
      </trkpt>
      <trkpt lat="41.62599" lon="1.66282">
        <ele>470</ele>
        <time>2022-05-20 22:38:10</time>
      </trkpt>
      <trkpt lat="41.62601" lon="1.66287">
        <ele>470.2</ele>
        <time>2022-05-20 22:38:11</time>
      </trkpt>
      <trkpt lat="41.62602" lon="1.66291">
        <ele>470.4</ele>
        <time>2022-05-20 22:38:12</time>
      </trkpt>
      <trkpt lat="41.62604" lon="1.66296">
        <ele>470.4</ele>
        <time>2022-05-20 22:38:13</time>
      </trkpt>
      <trkpt lat="41.62605" lon="1.663">
        <ele>470.6</ele>
        <time>2022-05-20 22:38:14</time>
      </trkpt>
      <trkpt lat="41.62606" lon="1.66304">
        <ele>470.8</ele>
        <time>2022-05-20 22:38:15</time>
      </trkpt>
      <trkpt lat="41.62607" lon="1.66308">
        <ele>471</ele>
        <time>2022-05-20 22:38:16</time>
      </trkpt>
      <trkpt lat="41.62608" lon="1.66312">
        <ele>471.2</ele>
        <time>2022-05-20 22:38:17</time>
      </trkpt>
      <trkpt lat="41.62609" lon="1.66316">
        <ele>471.4</ele>
        <time>2022-05-20 22:38:18</time>
      </trkpt>
      <trkpt lat="41.6261" lon="1.6632">
        <ele>471.6</ele>
        <time>2022-05-20 22:38:19</time>
      </trkpt>
      <trkpt lat="41.62611" lon="1.66324">
        <ele>471.8</ele>
        <time>2022-05-20 22:38:20</time>
      </trkpt>
      <trkpt lat="41.62613" lon="1.66328">
        <ele>472</ele>
        <time>2022-05-20 22:38:21</time>
      </trkpt>
      <trkpt lat="41.62614" lon="1.66333">
        <ele>472.2</ele>
        <time>2022-05-20 22:38:22</time>
      </trkpt>
      <trkpt lat="41.62614" lon="1.66336">
        <ele>472.4</ele>
        <time>2022-05-20 22:38:23</time>
      </trkpt>
      <trkpt lat="41.62616" lon="1.6634">
        <ele>472.6</ele>
        <time>2022-05-20 22:38:24</time>
      </trkpt>
      <trkpt lat="41.62617" lon="1.66344">
        <ele>472.6</ele>
        <time>2022-05-20 22:38:25</time>
      </trkpt>
      <trkpt lat="41.62618" lon="1.66348">
        <ele>472.8</ele>
        <time>2022-05-20 22:38:26</time>
      </trkpt>
      <trkpt lat="41.62619" lon="1.66352">
        <ele>473</ele>
        <time>2022-05-20 22:38:27</time>
      </trkpt>
      <trkpt lat="41.6262" lon="1.66357">
        <ele>473.2</ele>
        <time>2022-05-20 22:38:28</time>
      </trkpt>
      <trkpt lat="41.6262" lon="1.66362">
        <ele>473.4</ele>
        <time>2022-05-20 22:38:29</time>
      </trkpt>
      <trkpt lat="41.62621" lon="1.66366">
        <ele>473.6</ele>
        <time>2022-05-20 22:38:30</time>
      </trkpt>
      <trkpt lat="41.62621" lon="1.66371">
        <ele>473.8</ele>
        <time>2022-05-20 22:38:31</time>
      </trkpt>
      <trkpt lat="41.62622" lon="1.66376">
        <ele>474</ele>
        <time>2022-05-20 22:38:32</time>
      </trkpt>
      <trkpt lat="41.62623" lon="1.6638">
        <ele>474</ele>
        <time>2022-05-20 22:38:33</time>
      </trkpt>
      <trkpt lat="41.62624" lon="1.66384">
        <ele>474.2</ele>
        <time>2022-05-20 22:38:34</time>
      </trkpt>
      <trkpt lat="41.62625" lon="1.66388">
        <ele>474.4</ele>
        <time>2022-05-20 22:38:35</time>
      </trkpt>
      <trkpt lat="41.62626" lon="1.66392">
        <ele>474.6</ele>
        <time>2022-05-20 22:38:36</time>
      </trkpt>
      <trkpt lat="41.62626" lon="1.66396">
        <ele>474.8</ele>
        <time>2022-05-20 22:38:37</time>
      </trkpt>
      <trkpt lat="41.62627" lon="1.664">
        <ele>474.8</ele>
        <time>2022-05-20 22:38:38</time>
      </trkpt>
      <trkpt lat="41.62627" lon="1.66404">
        <ele>475</ele>
        <time>2022-05-20 22:38:39</time>
      </trkpt>
      <trkpt lat="41.62628" lon="1.66408">
        <ele>475.2</ele>
        <time>2022-05-20 22:38:40</time>
      </trkpt>
      <trkpt lat="41.62629" lon="1.66412">
        <ele>475.4</ele>
        <time>2022-05-20 22:38:41</time>
      </trkpt>
      <trkpt lat="41.6263" lon="1.66416">
        <ele>475.4</ele>
        <time>2022-05-20 22:38:42</time>
      </trkpt>
      <trkpt lat="41.6263" lon="1.66419">
        <ele>475.6</ele>
        <time>2022-05-20 22:38:43</time>
      </trkpt>
      <trkpt lat="41.62631" lon="1.66423">
        <ele>475.8</ele>
        <time>2022-05-20 22:38:44</time>
      </trkpt>
      <trkpt lat="41.62632" lon="1.66427">
        <ele>476</ele>
        <time>2022-05-20 22:38:45</time>
      </trkpt>
      <trkpt lat="41.62634" lon="1.66433">
        <ele>476.2</ele>
        <time>2022-05-20 22:38:46</time>
      </trkpt>
      <trkpt lat="41.62635" lon="1.66438">
        <ele>476.4</ele>
        <time>2022-05-20 22:38:47</time>
      </trkpt>
      <trkpt lat="41.62636" lon="1.66442">
        <ele>476.4</ele>
        <time>2022-05-20 22:38:48</time>
      </trkpt>
      <trkpt lat="41.62637" lon="1.66446">
        <ele>476.6</ele>
        <time>2022-05-20 22:38:49</time>
      </trkpt>
      <trkpt lat="41.62638" lon="1.6645">
        <ele>476.8</ele>
        <time>2022-05-20 22:38:50</time>
      </trkpt>
      <trkpt lat="41.6264" lon="1.66455">
        <ele>477</ele>
        <time>2022-05-20 22:38:51</time>
      </trkpt>
      <trkpt lat="41.62641" lon="1.6646">
        <ele>477.2</ele>
        <time>2022-05-20 22:38:52</time>
      </trkpt>
      <trkpt lat="41.62641" lon="1.66465">
        <ele>477.4</ele>
        <time>2022-05-20 22:38:53</time>
      </trkpt>
      <trkpt lat="41.62642" lon="1.6647">
        <ele>477.4</ele>
        <time>2022-05-20 22:38:54</time>
      </trkpt>
      <trkpt lat="41.62643" lon="1.66475">
        <ele>477.6</ele>
        <time>2022-05-20 22:38:55</time>
      </trkpt>
      <trkpt lat="41.62643" lon="1.66479">
        <ele>477.8</ele>
        <time>2022-05-20 22:38:56</time>
      </trkpt>
      <trkpt lat="41.62645" lon="1.66484">
        <ele>478</ele>
        <time>2022-05-20 22:38:57</time>
      </trkpt>
      <trkpt lat="41.62646" lon="1.66489">
        <ele>478.2</ele>
        <time>2022-05-20 22:38:58</time>
      </trkpt>
      <trkpt lat="41.62646" lon="1.66494">
        <ele>478.4</ele>
        <time>2022-05-20 22:38:59</time>
      </trkpt>
      <trkpt lat="41.62647" lon="1.66499">
        <ele>478.6</ele>
        <time>2022-05-20 22:39:00</time>
      </trkpt>
      <trkpt lat="41.62648" lon="1.66504">
        <ele>478.6</ele>
        <time>2022-05-20 22:39:01</time>
      </trkpt>
      <trkpt lat="41.62648" lon="1.66509">
        <ele>478.8</ele>
        <time>2022-05-20 22:39:02</time>
      </trkpt>
      <trkpt lat="41.62649" lon="1.66514">
        <ele>479</ele>
        <time>2022-05-20 22:39:03</time>
      </trkpt>
      <trkpt lat="41.6265" lon="1.66518">
        <ele>479.2</ele>
        <time>2022-05-20 22:39:04</time>
      </trkpt>
      <trkpt lat="41.62651" lon="1.66523">
        <ele>479.2</ele>
        <time>2022-05-20 22:39:05</time>
      </trkpt>
      <trkpt lat="41.62654" lon="1.66527">
        <ele>479.4</ele>
        <time>2022-05-20 22:39:06</time>
      </trkpt>
      <trkpt lat="41.62656" lon="1.66531">
        <ele>479.6</ele>
        <time>2022-05-20 22:39:07</time>
      </trkpt>
      <trkpt lat="41.62659" lon="1.66534">
        <ele>479.6</ele>
        <time>2022-05-20 22:39:08</time>
      </trkpt>
      <trkpt lat="41.62661" lon="1.66538">
        <ele>479.8</ele>
        <time>2022-05-20 22:39:09</time>
      </trkpt>
      <trkpt lat="41.62664" lon="1.66542">
        <ele>480</ele>
        <time>2022-05-20 22:39:10</time>
      </trkpt>
      <trkpt lat="41.62667" lon="1.66545">
        <ele>480.2</ele>
        <time>2022-05-20 22:39:11</time>
      </trkpt>
      <trkpt lat="41.6267" lon="1.66548">
        <ele>480.4</ele>
        <time>2022-05-20 22:39:12</time>
      </trkpt>
      <trkpt lat="41.62672" lon="1.66551">
        <ele>480.6</ele>
        <time>2022-05-20 22:39:13</time>
      </trkpt>
      <trkpt lat="41.62675" lon="1.66555">
        <ele>480.6</ele>
        <time>2022-05-20 22:39:14</time>
      </trkpt>
      <trkpt lat="41.62677" lon="1.66559">
        <ele>480.8</ele>
        <time>2022-05-20 22:39:15</time>
      </trkpt>
      <trkpt lat="41.62679" lon="1.66562">
        <ele>481</ele>
        <time>2022-05-20 22:39:16</time>
      </trkpt>
      <trkpt lat="41.62682" lon="1.66566">
        <ele>481.2</ele>
        <time>2022-05-20 22:39:17</time>
      </trkpt>
      <trkpt lat="41.62684" lon="1.6657">
        <ele>481.4</ele>
        <time>2022-05-20 22:39:18</time>
      </trkpt>
      <trkpt lat="41.62686" lon="1.66574">
        <ele>481.6</ele>
        <time>2022-05-20 22:39:19</time>
      </trkpt>
      <trkpt lat="41.62688" lon="1.66578">
        <ele>481.8</ele>
        <time>2022-05-20 22:39:20</time>
      </trkpt>
      <trkpt lat="41.6269" lon="1.66582">
        <ele>482</ele>
        <time>2022-05-20 22:39:21</time>
      </trkpt>
      <trkpt lat="41.62692" lon="1.66586">
        <ele>482.2</ele>
        <time>2022-05-20 22:39:22</time>
      </trkpt>
      <trkpt lat="41.62694" lon="1.6659">
        <ele>482.4</ele>
        <time>2022-05-20 22:39:23</time>
      </trkpt>
      <trkpt lat="41.62695" lon="1.66595">
        <ele>482.6</ele>
        <time>2022-05-20 22:39:24</time>
      </trkpt>
      <trkpt lat="41.62697" lon="1.66598">
        <ele>482.6</ele>
        <time>2022-05-20 22:39:25</time>
      </trkpt>
      <trkpt lat="41.62698" lon="1.66602">
        <ele>482.8</ele>
        <time>2022-05-20 22:39:26</time>
      </trkpt>
      <trkpt lat="41.627" lon="1.66607">
        <ele>483</ele>
        <time>2022-05-20 22:39:27</time>
      </trkpt>
      <trkpt lat="41.627" lon="1.66611">
        <ele>483.2</ele>
        <time>2022-05-20 22:39:28</time>
      </trkpt>
      <trkpt lat="41.62701" lon="1.66616">
        <ele>483.4</ele>
        <time>2022-05-20 22:39:29</time>
      </trkpt>
      <trkpt lat="41.62701" lon="1.66621">
        <ele>483.6</ele>
        <time>2022-05-20 22:39:30</time>
      </trkpt>
      <trkpt lat="41.627" lon="1.66626">
        <ele>483.6</ele>
        <time>2022-05-20 22:39:31</time>
      </trkpt>
      <trkpt lat="41.627" lon="1.6663">
        <ele>483.8</ele>
        <time>2022-05-20 22:39:32</time>
      </trkpt>
      <trkpt lat="41.62699" lon="1.66634">
        <ele>484</ele>
        <time>2022-05-20 22:39:33</time>
      </trkpt>
      <trkpt lat="41.62698" lon="1.66638">
        <ele>484.2</ele>
        <time>2022-05-20 22:39:34</time>
      </trkpt>
      <trkpt lat="41.62696" lon="1.66643">
        <ele>484.2</ele>
        <time>2022-05-20 22:39:35</time>
      </trkpt>
      <trkpt lat="41.62695" lon="1.66647">
        <ele>484.4</ele>
        <time>2022-05-20 22:39:36</time>
      </trkpt>
      <trkpt lat="41.62693" lon="1.66651">
        <ele>484.6</ele>
        <time>2022-05-20 22:39:37</time>
      </trkpt>
      <trkpt lat="41.62692" lon="1.66654">
        <ele>484.8</ele>
        <time>2022-05-20 22:39:38</time>
      </trkpt>
      <trkpt lat="41.6269" lon="1.66658">
        <ele>485</ele>
        <time>2022-05-20 22:39:39</time>
      </trkpt>
      <trkpt lat="41.62688" lon="1.66663">
        <ele>485</ele>
        <time>2022-05-20 22:39:40</time>
      </trkpt>
      <trkpt lat="41.62687" lon="1.66667">
        <ele>485.2</ele>
        <time>2022-05-20 22:39:41</time>
      </trkpt>
      <trkpt lat="41.62685" lon="1.66671">
        <ele>485.4</ele>
        <time>2022-05-20 22:39:42</time>
      </trkpt>
      <trkpt lat="41.62683" lon="1.66675">
        <ele>485.6</ele>
        <time>2022-05-20 22:39:43</time>
      </trkpt>
      <trkpt lat="41.62682" lon="1.66679">
        <ele>485.8</ele>
        <time>2022-05-20 22:39:44</time>
      </trkpt>
      <trkpt lat="41.6268" lon="1.66683">
        <ele>486</ele>
        <time>2022-05-20 22:39:45</time>
      </trkpt>
      <trkpt lat="41.62678" lon="1.66687">
        <ele>486.2</ele>
        <time>2022-05-20 22:39:46</time>
      </trkpt>
      <trkpt lat="41.62677" lon="1.66691">
        <ele>486.4</ele>
        <time>2022-05-20 22:39:47</time>
      </trkpt>
      <trkpt lat="41.62675" lon="1.66695">
        <ele>486.6</ele>
        <time>2022-05-20 22:39:48</time>
      </trkpt>
      <trkpt lat="41.62673" lon="1.66699">
        <ele>486.8</ele>
        <time>2022-05-20 22:39:49</time>
      </trkpt>
      <trkpt lat="41.62672" lon="1.66703">
        <ele>486.8</ele>
        <time>2022-05-20 22:39:50</time>
      </trkpt>
      <trkpt lat="41.6267" lon="1.66706">
        <ele>487</ele>
        <time>2022-05-20 22:39:51</time>
      </trkpt>
      <trkpt lat="41.62668" lon="1.6671">
        <ele>487.2</ele>
        <time>2022-05-20 22:39:52</time>
      </trkpt>
      <trkpt lat="41.62666" lon="1.66714">
        <ele>487.4</ele>
        <time>2022-05-20 22:39:53</time>
      </trkpt>
      <trkpt lat="41.62664" lon="1.66718">
        <ele>487.6</ele>
        <time>2022-05-20 22:39:54</time>
      </trkpt>
      <trkpt lat="41.62662" lon="1.66722">
        <ele>487.8</ele>
        <time>2022-05-20 22:39:55</time>
      </trkpt>
      <trkpt lat="41.6266" lon="1.66727">
        <ele>488</ele>
        <time>2022-05-20 22:39:56</time>
      </trkpt>
      <trkpt lat="41.62658" lon="1.66731">
        <ele>488.2</ele>
        <time>2022-05-20 22:39:57</time>
      </trkpt>
      <trkpt lat="41.62656" lon="1.66735">
        <ele>488.2</ele>
        <time>2022-05-20 22:39:58</time>
      </trkpt>
      <trkpt lat="41.62655" lon="1.66739">
        <ele>488.4</ele>
        <time>2022-05-20 22:39:59</time>
      </trkpt>
      <trkpt lat="41.62653" lon="1.66743">
        <ele>488.6</ele>
        <time>2022-05-20 22:40:00</time>
      </trkpt>
      <trkpt lat="41.62652" lon="1.66747">
        <ele>488.8</ele>
        <time>2022-05-20 22:40:01</time>
      </trkpt>
      <trkpt lat="41.62651" lon="1.66751">
        <ele>489</ele>
        <time>2022-05-20 22:40:02</time>
      </trkpt>
      <trkpt lat="41.6265" lon="1.66757">
        <ele>489.2</ele>
        <time>2022-05-20 22:40:03</time>
      </trkpt>
      <trkpt lat="41.62649" lon="1.66762">
        <ele>489.4</ele>
        <time>2022-05-20 22:40:04</time>
      </trkpt>
      <trkpt lat="41.62648" lon="1.66767">
        <ele>489.6</ele>
        <time>2022-05-20 22:40:05</time>
      </trkpt>
      <trkpt lat="41.62648" lon="1.66771">
        <ele>489.8</ele>
        <time>2022-05-20 22:40:06</time>
      </trkpt>
      <trkpt lat="41.62648" lon="1.66776">
        <ele>489.8</ele>
        <time>2022-05-20 22:40:07</time>
      </trkpt>
      <trkpt lat="41.62648" lon="1.66781">
        <ele>490</ele>
        <time>2022-05-20 22:40:08</time>
      </trkpt>
      <trkpt lat="41.62649" lon="1.66786">
        <ele>490.2</ele>
        <time>2022-05-20 22:40:09</time>
      </trkpt>
      <trkpt lat="41.6265" lon="1.66791">
        <ele>490.2</ele>
        <time>2022-05-20 22:40:10</time>
      </trkpt>
      <trkpt lat="41.6265" lon="1.66796">
        <ele>490.4</ele>
        <time>2022-05-20 22:40:11</time>
      </trkpt>
      <trkpt lat="41.62651" lon="1.66802">
        <ele>490.6</ele>
        <time>2022-05-20 22:40:12</time>
      </trkpt>
      <trkpt lat="41.62651" lon="1.66807">
        <ele>490.8</ele>
        <time>2022-05-20 22:40:13</time>
      </trkpt>
      <trkpt lat="41.62652" lon="1.66812">
        <ele>491</ele>
        <time>2022-05-20 22:40:14</time>
      </trkpt>
      <trkpt lat="41.62653" lon="1.66818">
        <ele>491</ele>
        <time>2022-05-20 22:40:15</time>
      </trkpt>
      <trkpt lat="41.62654" lon="1.66823">
        <ele>491.2</ele>
        <time>2022-05-20 22:40:16</time>
      </trkpt>
      <trkpt lat="41.62655" lon="1.66828">
        <ele>491.4</ele>
        <time>2022-05-20 22:40:17</time>
      </trkpt>
      <trkpt lat="41.62656" lon="1.66834">
        <ele>491.6</ele>
        <time>2022-05-20 22:40:18</time>
      </trkpt>
      <trkpt lat="41.62656" lon="1.6684">
        <ele>491.8</ele>
        <time>2022-05-20 22:40:19</time>
      </trkpt>
      <trkpt lat="41.62656" lon="1.66846">
        <ele>492</ele>
        <time>2022-05-20 22:40:20</time>
      </trkpt>
      <trkpt lat="41.62656" lon="1.66852">
        <ele>492.2</ele>
        <time>2022-05-20 22:40:21</time>
      </trkpt>
      <trkpt lat="41.62657" lon="1.66857">
        <ele>492.2</ele>
        <time>2022-05-20 22:40:22</time>
      </trkpt>
      <trkpt lat="41.62657" lon="1.66863">
        <ele>492.4</ele>
        <time>2022-05-20 22:40:23</time>
      </trkpt>
      <trkpt lat="41.62658" lon="1.66869">
        <ele>492.6</ele>
        <time>2022-05-20 22:40:24</time>
      </trkpt>
      <trkpt lat="41.62658" lon="1.66874">
        <ele>492.8</ele>
        <time>2022-05-20 22:40:25</time>
      </trkpt>
      <trkpt lat="41.62659" lon="1.66879">
        <ele>493</ele>
        <time>2022-05-20 22:40:26</time>
      </trkpt>
      <trkpt lat="41.6266" lon="1.66885">
        <ele>493.2</ele>
        <time>2022-05-20 22:40:27</time>
      </trkpt>
      <trkpt lat="41.62661" lon="1.6689">
        <ele>493.4</ele>
        <time>2022-05-20 22:40:28</time>
      </trkpt>
      <trkpt lat="41.62661" lon="1.66896">
        <ele>493.6</ele>
        <time>2022-05-20 22:40:29</time>
      </trkpt>
      <trkpt lat="41.62662" lon="1.66901">
        <ele>493.8</ele>
        <time>2022-05-20 22:40:30</time>
      </trkpt>
      <trkpt lat="41.62663" lon="1.66907">
        <ele>494</ele>
        <time>2022-05-20 22:40:31</time>
      </trkpt>
      <trkpt lat="41.62663" lon="1.66912">
        <ele>494.2</ele>
        <time>2022-05-20 22:40:32</time>
      </trkpt>
      <trkpt lat="41.62664" lon="1.66918">
        <ele>494.4</ele>
        <time>2022-05-20 22:40:33</time>
      </trkpt>
      <trkpt lat="41.62665" lon="1.66923">
        <ele>494.6</ele>
        <time>2022-05-20 22:40:34</time>
      </trkpt>
      <trkpt lat="41.62666" lon="1.66929">
        <ele>494.8</ele>
        <time>2022-05-20 22:40:35</time>
      </trkpt>
      <trkpt lat="41.62667" lon="1.66934">
        <ele>495</ele>
        <time>2022-05-20 22:40:36</time>
      </trkpt>
      <trkpt lat="41.62667" lon="1.6694">
        <ele>495.2</ele>
        <time>2022-05-20 22:40:37</time>
      </trkpt>
      <trkpt lat="41.62669" lon="1.66945">
        <ele>495.4</ele>
        <time>2022-05-20 22:40:38</time>
      </trkpt>
      <trkpt lat="41.62669" lon="1.66951">
        <ele>495.6</ele>
        <time>2022-05-20 22:40:39</time>
      </trkpt>
      <trkpt lat="41.62671" lon="1.66956">
        <ele>495.8</ele>
        <time>2022-05-20 22:40:40</time>
      </trkpt>
      <trkpt lat="41.62672" lon="1.66961">
        <ele>496</ele>
        <time>2022-05-20 22:40:41</time>
      </trkpt>
      <trkpt lat="41.62673" lon="1.66966">
        <ele>496.2</ele>
        <time>2022-05-20 22:40:42</time>
      </trkpt>
      <trkpt lat="41.62674" lon="1.66972">
        <ele>496.4</ele>
        <time>2022-05-20 22:40:43</time>
      </trkpt>
      <trkpt lat="41.62675" lon="1.66977">
        <ele>496.6</ele>
        <time>2022-05-20 22:40:44</time>
      </trkpt>
      <trkpt lat="41.62676" lon="1.66983">
        <ele>496.6</ele>
        <time>2022-05-20 22:40:45</time>
      </trkpt>
      <trkpt lat="41.62678" lon="1.66989">
        <ele>496.8</ele>
        <time>2022-05-20 22:40:46</time>
      </trkpt>
      <trkpt lat="41.62679" lon="1.66995">
        <ele>496.8</ele>
        <time>2022-05-20 22:40:47</time>
      </trkpt>
      <trkpt lat="41.62681" lon="1.67001">
        <ele>496.8</ele>
        <time>2022-05-20 22:40:48</time>
      </trkpt>
      <trkpt lat="41.62682" lon="1.67007">
        <ele>496.8</ele>
        <time>2022-05-20 22:40:49</time>
      </trkpt>
      <trkpt lat="41.62683" lon="1.67014">
        <ele>496.8</ele>
        <time>2022-05-20 22:40:50</time>
      </trkpt>
      <trkpt lat="41.62684" lon="1.67021">
        <ele>496.8</ele>
        <time>2022-05-20 22:40:51</time>
      </trkpt>
      <trkpt lat="41.62685" lon="1.67029">
        <ele>496.8</ele>
        <time>2022-05-20 22:40:52</time>
      </trkpt>
      <trkpt lat="41.62685" lon="1.67036">
        <ele>496.8</ele>
        <time>2022-05-20 22:40:53</time>
      </trkpt>
      <trkpt lat="41.62686" lon="1.67043">
        <ele>496.8</ele>
        <time>2022-05-20 22:40:54</time>
      </trkpt>
      <trkpt lat="41.62686" lon="1.67051">
        <ele>496.8</ele>
        <time>2022-05-20 22:40:55</time>
      </trkpt>
      <trkpt lat="41.62685" lon="1.67059">
        <ele>496.8</ele>
        <time>2022-05-20 22:40:56</time>
      </trkpt>
      <trkpt lat="41.62685" lon="1.67066">
        <ele>496.8</ele>
        <time>2022-05-20 22:40:57</time>
      </trkpt>
      <trkpt lat="41.62685" lon="1.67074">
        <ele>496.8</ele>
        <time>2022-05-20 22:40:58</time>
      </trkpt>
      <trkpt lat="41.62685" lon="1.67082">
        <ele>496.8</ele>
        <time>2022-05-20 22:40:59</time>
      </trkpt>
      <trkpt lat="41.62685" lon="1.6709">
        <ele>496.8</ele>
        <time>2022-05-20 22:41:00</time>
      </trkpt>
      <trkpt lat="41.62685" lon="1.67098">
        <ele>496.8</ele>
        <time>2022-05-20 22:41:01</time>
      </trkpt>
      <trkpt lat="41.62685" lon="1.67106">
        <ele>496.8</ele>
        <time>2022-05-20 22:41:02</time>
      </trkpt>
      <trkpt lat="41.62685" lon="1.67114">
        <ele>496.8</ele>
        <time>2022-05-20 22:41:03</time>
      </trkpt>
      <trkpt lat="41.62686" lon="1.67122">
        <ele>496.8</ele>
        <time>2022-05-20 22:41:04</time>
      </trkpt>
      <trkpt lat="41.62687" lon="1.6713">
        <ele>496.8</ele>
        <time>2022-05-20 22:41:05</time>
      </trkpt>
      <trkpt lat="41.62689" lon="1.67138">
        <ele>497</ele>
        <time>2022-05-20 22:41:06</time>
      </trkpt>
      <trkpt lat="41.6269" lon="1.67145">
        <ele>497</ele>
        <time>2022-05-20 22:41:07</time>
      </trkpt>
      <trkpt lat="41.62693" lon="1.67153">
        <ele>497.2</ele>
        <time>2022-05-20 22:41:08</time>
      </trkpt>
      <trkpt lat="41.62695" lon="1.6716">
        <ele>497.2</ele>
        <time>2022-05-20 22:41:09</time>
      </trkpt>
      <trkpt lat="41.62697" lon="1.67168">
        <ele>497.4</ele>
        <time>2022-05-20 22:41:10</time>
      </trkpt>
      <trkpt lat="41.627" lon="1.67175">
        <ele>497.6</ele>
        <time>2022-05-20 22:41:11</time>
      </trkpt>
      <trkpt lat="41.62702" lon="1.67182">
        <ele>497.6</ele>
        <time>2022-05-20 22:41:12</time>
      </trkpt>
      <trkpt lat="41.62704" lon="1.67189">
        <ele>497.8</ele>
        <time>2022-05-20 22:41:13</time>
      </trkpt>
      <trkpt lat="41.62706" lon="1.67195">
        <ele>498</ele>
        <time>2022-05-20 22:41:14</time>
      </trkpt>
      <trkpt lat="41.62708" lon="1.67202">
        <ele>498.2</ele>
        <time>2022-05-20 22:41:15</time>
      </trkpt>
      <trkpt lat="41.6271" lon="1.67209">
        <ele>498.4</ele>
        <time>2022-05-20 22:41:16</time>
      </trkpt>
      <trkpt lat="41.62711" lon="1.67215">
        <ele>498.6</ele>
        <time>2022-05-20 22:41:17</time>
      </trkpt>
      <trkpt lat="41.62712" lon="1.67222">
        <ele>498.8</ele>
        <time>2022-05-20 22:41:18</time>
      </trkpt>
      <trkpt lat="41.62712" lon="1.67229">
        <ele>499</ele>
        <time>2022-05-20 22:41:19</time>
      </trkpt>
      <trkpt lat="41.62712" lon="1.67236">
        <ele>499.2</ele>
        <time>2022-05-20 22:41:20</time>
      </trkpt>
      <trkpt lat="41.62712" lon="1.67243">
        <ele>499.4</ele>
        <time>2022-05-20 22:41:21</time>
      </trkpt>
      <trkpt lat="41.62712" lon="1.67249">
        <ele>499.8</ele>
        <time>2022-05-20 22:41:22</time>
      </trkpt>
      <trkpt lat="41.62711" lon="1.67255">
        <ele>500</ele>
        <time>2022-05-20 22:41:23</time>
      </trkpt>
      <trkpt lat="41.62711" lon="1.67262">
        <ele>500.2</ele>
        <time>2022-05-20 22:41:24</time>
      </trkpt>
      <trkpt lat="41.6271" lon="1.67268">
        <ele>500.4</ele>
        <time>2022-05-20 22:41:25</time>
      </trkpt>
      <trkpt lat="41.6271" lon="1.67274">
        <ele>500.6</ele>
        <time>2022-05-20 22:41:26</time>
      </trkpt>
      <trkpt lat="41.6271" lon="1.6728">
        <ele>500.8</ele>
        <time>2022-05-20 22:41:27</time>
      </trkpt>
      <trkpt lat="41.62711" lon="1.67286">
        <ele>501</ele>
        <time>2022-05-20 22:41:28</time>
      </trkpt>
      <trkpt lat="41.62712" lon="1.67292">
        <ele>501.2</ele>
        <time>2022-05-20 22:41:29</time>
      </trkpt>
      <trkpt lat="41.62714" lon="1.67298">
        <ele>501.4</ele>
        <time>2022-05-20 22:41:30</time>
      </trkpt>
      <trkpt lat="41.62716" lon="1.67304">
        <ele>501.6</ele>
        <time>2022-05-20 22:41:31</time>
      </trkpt>
      <trkpt lat="41.62718" lon="1.67309">
        <ele>501.8</ele>
        <time>2022-05-20 22:41:32</time>
      </trkpt>
      <trkpt lat="41.6272" lon="1.67314">
        <ele>502.2</ele>
        <time>2022-05-20 22:41:33</time>
      </trkpt>
      <trkpt lat="41.62723" lon="1.6732">
        <ele>502.4</ele>
        <time>2022-05-20 22:41:34</time>
      </trkpt>
      <trkpt lat="41.62726" lon="1.67325">
        <ele>502.6</ele>
        <time>2022-05-20 22:41:35</time>
      </trkpt>
      <trkpt lat="41.62729" lon="1.6733">
        <ele>502.8</ele>
        <time>2022-05-20 22:41:36</time>
      </trkpt>
      <trkpt lat="41.62731" lon="1.67335">
        <ele>503</ele>
        <time>2022-05-20 22:41:37</time>
      </trkpt>
      <trkpt lat="41.62733" lon="1.67341">
        <ele>503.2</ele>
        <time>2022-05-20 22:41:38</time>
      </trkpt>
      <trkpt lat="41.62735" lon="1.67347">
        <ele>503.4</ele>
        <time>2022-05-20 22:41:39</time>
      </trkpt>
      <trkpt lat="41.62736" lon="1.67353">
        <ele>503.6</ele>
        <time>2022-05-20 22:41:40</time>
      </trkpt>
      <trkpt lat="41.62736" lon="1.6736">
        <ele>504</ele>
        <time>2022-05-20 22:41:41</time>
      </trkpt>
      <trkpt lat="41.62735" lon="1.67366">
        <ele>504.2</ele>
        <time>2022-05-20 22:41:42</time>
      </trkpt>
      <trkpt lat="41.62735" lon="1.67371">
        <ele>504.6</ele>
        <time>2022-05-20 22:41:43</time>
      </trkpt>
      <trkpt lat="41.62734" lon="1.67377">
        <ele>504.8</ele>
        <time>2022-05-20 22:41:44</time>
      </trkpt>
      <trkpt lat="41.62733" lon="1.67382">
        <ele>505</ele>
        <time>2022-05-20 22:41:45</time>
      </trkpt>
      <trkpt lat="41.62732" lon="1.67387">
        <ele>505.2</ele>
        <time>2022-05-20 22:41:46</time>
      </trkpt>
      <trkpt lat="41.6273" lon="1.67392">
        <ele>505.4</ele>
        <time>2022-05-20 22:41:47</time>
      </trkpt>
      <trkpt lat="41.62729" lon="1.67397">
        <ele>505.8</ele>
        <time>2022-05-20 22:41:48</time>
      </trkpt>
      <trkpt lat="41.62727" lon="1.67402">
        <ele>506</ele>
        <time>2022-05-20 22:41:49</time>
      </trkpt>
      <trkpt lat="41.62725" lon="1.67407">
        <ele>506.2</ele>
        <time>2022-05-20 22:41:50</time>
      </trkpt>
      <trkpt lat="41.62724" lon="1.67412">
        <ele>506.4</ele>
        <time>2022-05-20 22:41:51</time>
      </trkpt>
      <trkpt lat="41.62721" lon="1.67416">
        <ele>506.6</ele>
        <time>2022-05-20 22:41:52</time>
      </trkpt>
      <trkpt lat="41.62719" lon="1.67421">
        <ele>506.8</ele>
        <time>2022-05-20 22:41:53</time>
      </trkpt>
      <trkpt lat="41.62716" lon="1.67424">
        <ele>507</ele>
        <time>2022-05-20 22:41:54</time>
      </trkpt>
      <trkpt lat="41.62713" lon="1.67428">
        <ele>507.2</ele>
        <time>2022-05-20 22:41:55</time>
      </trkpt>
      <trkpt lat="41.62709" lon="1.67431">
        <ele>507.4</ele>
        <time>2022-05-20 22:41:56</time>
      </trkpt>
      <trkpt lat="41.62706" lon="1.67434">
        <ele>507.6</ele>
        <time>2022-05-20 22:41:57</time>
      </trkpt>
      <trkpt lat="41.62703" lon="1.67437">
        <ele>507.8</ele>
        <time>2022-05-20 22:41:58</time>
      </trkpt>
      <trkpt lat="41.627" lon="1.6744">
        <ele>508</ele>
        <time>2022-05-20 22:41:59</time>
      </trkpt>
      <trkpt lat="41.62696" lon="1.67442">
        <ele>508.2</ele>
        <time>2022-05-20 22:42:00</time>
      </trkpt>
      <trkpt lat="41.62693" lon="1.67446">
        <ele>508.4</ele>
        <time>2022-05-20 22:42:01</time>
      </trkpt>
      <trkpt lat="41.6269" lon="1.6745">
        <ele>508.6</ele>
        <time>2022-05-20 22:42:02</time>
      </trkpt>
      <trkpt lat="41.62688" lon="1.67454">
        <ele>508.8</ele>
        <time>2022-05-20 22:42:03</time>
      </trkpt>
      <trkpt lat="41.62686" lon="1.67458">
        <ele>508.8</ele>
        <time>2022-05-20 22:42:04</time>
      </trkpt>
      <trkpt lat="41.62683" lon="1.67463">
        <ele>509</ele>
        <time>2022-05-20 22:42:05</time>
      </trkpt>
      <trkpt lat="41.62682" lon="1.67467">
        <ele>509.2</ele>
        <time>2022-05-20 22:42:06</time>
      </trkpt>
      <trkpt lat="41.62679" lon="1.67472">
        <ele>509.4</ele>
        <time>2022-05-20 22:42:07</time>
      </trkpt>
      <trkpt lat="41.62677" lon="1.67476">
        <ele>509.6</ele>
        <time>2022-05-20 22:42:08</time>
      </trkpt>
      <trkpt lat="41.62675" lon="1.67481">
        <ele>509.8</ele>
        <time>2022-05-20 22:42:09</time>
      </trkpt>
      <trkpt lat="41.62674" lon="1.67485">
        <ele>509.8</ele>
        <time>2022-05-20 22:42:10</time>
      </trkpt>
      <trkpt lat="41.62672" lon="1.6749">
        <ele>510</ele>
        <time>2022-05-20 22:42:11</time>
      </trkpt>
      <trkpt lat="41.6267" lon="1.67494">
        <ele>510.2</ele>
        <time>2022-05-20 22:42:12</time>
      </trkpt>
      <trkpt lat="41.62669" lon="1.67499">
        <ele>510.4</ele>
        <time>2022-05-20 22:42:13</time>
      </trkpt>
      <trkpt lat="41.62669" lon="1.67505">
        <ele>510.6</ele>
        <time>2022-05-20 22:42:14</time>
      </trkpt>
      <trkpt lat="41.62668" lon="1.6751">
        <ele>510.8</ele>
        <time>2022-05-20 22:42:15</time>
      </trkpt>
      <trkpt lat="41.62668" lon="1.67515">
        <ele>511</ele>
        <time>2022-05-20 22:42:16</time>
      </trkpt>
      <trkpt lat="41.62668" lon="1.67521">
        <ele>511.2</ele>
        <time>2022-05-20 22:42:17</time>
      </trkpt>
      <trkpt lat="41.62669" lon="1.67526">
        <ele>511.2</ele>
        <time>2022-05-20 22:42:18</time>
      </trkpt>
      <trkpt lat="41.6267" lon="1.67531">
        <ele>511.4</ele>
        <time>2022-05-20 22:42:19</time>
      </trkpt>
      <trkpt lat="41.62672" lon="1.67536">
        <ele>511.6</ele>
        <time>2022-05-20 22:42:20</time>
      </trkpt>
      <trkpt lat="41.62674" lon="1.6754">
        <ele>511.8</ele>
        <time>2022-05-20 22:42:21</time>
      </trkpt>
      <trkpt lat="41.62676" lon="1.67543">
        <ele>512</ele>
        <time>2022-05-20 22:42:22</time>
      </trkpt>
      <trkpt lat="41.6268" lon="1.67547">
        <ele>512.2</ele>
        <time>2022-05-20 22:42:23</time>
      </trkpt>
      <trkpt lat="41.62683" lon="1.6755">
        <ele>512.4</ele>
        <time>2022-05-20 22:42:24</time>
      </trkpt>
      <trkpt lat="41.62686" lon="1.67553">
        <ele>512.6</ele>
        <time>2022-05-20 22:42:25</time>
      </trkpt>
      <trkpt lat="41.62689" lon="1.67556">
        <ele>512.8</ele>
        <time>2022-05-20 22:42:26</time>
      </trkpt>
      <trkpt lat="41.62692" lon="1.6756">
        <ele>513</ele>
        <time>2022-05-20 22:42:27</time>
      </trkpt>
      <trkpt lat="41.62694" lon="1.67563">
        <ele>513.2</ele>
        <time>2022-05-20 22:42:28</time>
      </trkpt>
      <trkpt lat="41.62696" lon="1.67568">
        <ele>513.4</ele>
        <time>2022-05-20 22:42:29</time>
      </trkpt>
      <trkpt lat="41.62697" lon="1.67573">
        <ele>513.6</ele>
        <time>2022-05-20 22:42:30</time>
      </trkpt>
      <trkpt lat="41.62698" lon="1.67579">
        <ele>513.6</ele>
        <time>2022-05-20 22:42:31</time>
      </trkpt>
      <trkpt lat="41.62698" lon="1.67584">
        <ele>513.8</ele>
        <time>2022-05-20 22:42:32</time>
      </trkpt>
      <trkpt lat="41.62698" lon="1.67589">
        <ele>514</ele>
        <time>2022-05-20 22:42:33</time>
      </trkpt>
      <trkpt lat="41.62698" lon="1.67594">
        <ele>514.2</ele>
        <time>2022-05-20 22:42:34</time>
      </trkpt>
      <trkpt lat="41.62697" lon="1.676">
        <ele>514.4</ele>
        <time>2022-05-20 22:42:35</time>
      </trkpt>
      <trkpt lat="41.62696" lon="1.67605">
        <ele>514.6</ele>
        <time>2022-05-20 22:42:36</time>
      </trkpt>
      <trkpt lat="41.62696" lon="1.6761">
        <ele>514.8</ele>
        <time>2022-05-20 22:42:37</time>
      </trkpt>
      <trkpt lat="41.62694" lon="1.67615">
        <ele>515</ele>
        <time>2022-05-20 22:42:38</time>
      </trkpt>
      <trkpt lat="41.62693" lon="1.6762">
        <ele>515.2</ele>
        <time>2022-05-20 22:42:39</time>
      </trkpt>
      <trkpt lat="41.62692" lon="1.67625">
        <ele>515.4</ele>
        <time>2022-05-20 22:42:40</time>
      </trkpt>
      <trkpt lat="41.62691" lon="1.6763">
        <ele>515.6</ele>
        <time>2022-05-20 22:42:41</time>
      </trkpt>
      <trkpt lat="41.6269" lon="1.67635">
        <ele>515.6</ele>
        <time>2022-05-20 22:42:42</time>
      </trkpt>
      <trkpt lat="41.6269" lon="1.6764">
        <ele>515.8</ele>
        <time>2022-05-20 22:42:43</time>
      </trkpt>
      <trkpt lat="41.62688" lon="1.67645">
        <ele>516</ele>
        <time>2022-05-20 22:42:44</time>
      </trkpt>
      <trkpt lat="41.62687" lon="1.6765">
        <ele>516.2</ele>
        <time>2022-05-20 22:42:45</time>
      </trkpt>
      <trkpt lat="41.62686" lon="1.67655">
        <ele>516.4</ele>
        <time>2022-05-20 22:42:46</time>
      </trkpt>
      <trkpt lat="41.62685" lon="1.6766">
        <ele>516.6</ele>
        <time>2022-05-20 22:42:47</time>
      </trkpt>
      <trkpt lat="41.62684" lon="1.67665">
        <ele>516.8</ele>
        <time>2022-05-20 22:42:48</time>
      </trkpt>
      <trkpt lat="41.62683" lon="1.67671">
        <ele>516.8</ele>
        <time>2022-05-20 22:42:49</time>
      </trkpt>
      <trkpt lat="41.62682" lon="1.67676">
        <ele>517</ele>
        <time>2022-05-20 22:42:50</time>
      </trkpt>
      <trkpt lat="41.62681" lon="1.67682">
        <ele>517.2</ele>
        <time>2022-05-20 22:42:51</time>
      </trkpt>
      <trkpt lat="41.62681" lon="1.67687">
        <ele>517.4</ele>
        <time>2022-05-20 22:42:52</time>
      </trkpt>
      <trkpt lat="41.6268" lon="1.67692">
        <ele>517.6</ele>
        <time>2022-05-20 22:42:53</time>
      </trkpt>
      <trkpt lat="41.6268" lon="1.67697">
        <ele>517.8</ele>
        <time>2022-05-20 22:42:54</time>
      </trkpt>
      <trkpt lat="41.6268" lon="1.67702">
        <ele>518</ele>
        <time>2022-05-20 22:42:55</time>
      </trkpt>
      <trkpt lat="41.6268" lon="1.67707">
        <ele>518.2</ele>
        <time>2022-05-20 22:42:56</time>
      </trkpt>
      <trkpt lat="41.6268" lon="1.67712">
        <ele>518.2</ele>
        <time>2022-05-20 22:42:57</time>
      </trkpt>
      <trkpt lat="41.62681" lon="1.67718">
        <ele>518.4</ele>
        <time>2022-05-20 22:42:58</time>
      </trkpt>
      <trkpt lat="41.62682" lon="1.67723">
        <ele>518.6</ele>
        <time>2022-05-20 22:42:59</time>
      </trkpt>
      <trkpt lat="41.62683" lon="1.67728">
        <ele>518.8</ele>
        <time>2022-05-20 22:43:00</time>
      </trkpt>
      <trkpt lat="41.62684" lon="1.67734">
        <ele>519</ele>
        <time>2022-05-20 22:43:01</time>
      </trkpt>
      <trkpt lat="41.62685" lon="1.67739">
        <ele>519</ele>
        <time>2022-05-20 22:43:02</time>
      </trkpt>
      <trkpt lat="41.62686" lon="1.67745">
        <ele>519.2</ele>
        <time>2022-05-20 22:43:03</time>
      </trkpt>
      <trkpt lat="41.62687" lon="1.6775">
        <ele>519.4</ele>
        <time>2022-05-20 22:43:04</time>
      </trkpt>
      <trkpt lat="41.62687" lon="1.67755">
        <ele>519.6</ele>
        <time>2022-05-20 22:43:05</time>
      </trkpt>
      <trkpt lat="41.62688" lon="1.67761">
        <ele>519.6</ele>
        <time>2022-05-20 22:43:06</time>
      </trkpt>
      <trkpt lat="41.62688" lon="1.67766">
        <ele>519.8</ele>
        <time>2022-05-20 22:43:07</time>
      </trkpt>
      <trkpt lat="41.62688" lon="1.67772">
        <ele>520</ele>
        <time>2022-05-20 22:43:08</time>
      </trkpt>
      <trkpt lat="41.62688" lon="1.67777">
        <ele>520.2</ele>
        <time>2022-05-20 22:43:09</time>
      </trkpt>
      <trkpt lat="41.62687" lon="1.67782">
        <ele>520.4</ele>
        <time>2022-05-20 22:43:10</time>
      </trkpt>
      <trkpt lat="41.62686" lon="1.67787">
        <ele>520.6</ele>
        <time>2022-05-20 22:43:11</time>
      </trkpt>
      <trkpt lat="41.62685" lon="1.67792">
        <ele>520.8</ele>
        <time>2022-05-20 22:43:12</time>
      </trkpt>
      <trkpt lat="41.62683" lon="1.67796">
        <ele>521</ele>
        <time>2022-05-20 22:43:13</time>
      </trkpt>
      <trkpt lat="41.62681" lon="1.67801">
        <ele>521.2</ele>
        <time>2022-05-20 22:43:14</time>
      </trkpt>
      <trkpt lat="41.6268" lon="1.67805">
        <ele>521.4</ele>
        <time>2022-05-20 22:43:15</time>
      </trkpt>
      <trkpt lat="41.62678" lon="1.6781">
        <ele>521.6</ele>
        <time>2022-05-20 22:43:16</time>
      </trkpt>
      <trkpt lat="41.62676" lon="1.67814">
        <ele>521.8</ele>
        <time>2022-05-20 22:43:17</time>
      </trkpt>
      <trkpt lat="41.62674" lon="1.67819">
        <ele>522</ele>
        <time>2022-05-20 22:43:18</time>
      </trkpt>
      <trkpt lat="41.62672" lon="1.67823">
        <ele>522.2</ele>
        <time>2022-05-20 22:43:19</time>
      </trkpt>
      <trkpt lat="41.62671" lon="1.67827">
        <ele>522.4</ele>
        <time>2022-05-20 22:43:20</time>
      </trkpt>
      <trkpt lat="41.62668" lon="1.67831">
        <ele>522.4</ele>
        <time>2022-05-20 22:43:21</time>
      </trkpt>
      <trkpt lat="41.62666" lon="1.67835">
        <ele>522.6</ele>
        <time>2022-05-20 22:43:22</time>
      </trkpt>
      <trkpt lat="41.62664" lon="1.6784">
        <ele>522.8</ele>
        <time>2022-05-20 22:43:23</time>
      </trkpt>
      <trkpt lat="41.62662" lon="1.67844">
        <ele>523</ele>
        <time>2022-05-20 22:43:24</time>
      </trkpt>
      <trkpt lat="41.6266" lon="1.67848">
        <ele>523.2</ele>
        <time>2022-05-20 22:43:25</time>
      </trkpt>
      <trkpt lat="41.62658" lon="1.67852">
        <ele>523.4</ele>
        <time>2022-05-20 22:43:26</time>
      </trkpt>
      <trkpt lat="41.62656" lon="1.67857">
        <ele>523.6</ele>
        <time>2022-05-20 22:43:27</time>
      </trkpt>
      <trkpt lat="41.62653" lon="1.67861">
        <ele>523.8</ele>
        <time>2022-05-20 22:43:28</time>
      </trkpt>
      <trkpt lat="41.62651" lon="1.67865">
        <ele>524</ele>
        <time>2022-05-20 22:43:29</time>
      </trkpt>
      <trkpt lat="41.62648" lon="1.67868">
        <ele>524.2</ele>
        <time>2022-05-20 22:43:30</time>
      </trkpt>
      <trkpt lat="41.62645" lon="1.67872">
        <ele>524.2</ele>
        <time>2022-05-20 22:43:31</time>
      </trkpt>
      <trkpt lat="41.62642" lon="1.67876">
        <ele>524.4</ele>
        <time>2022-05-20 22:43:32</time>
      </trkpt>
      <trkpt lat="41.62639" lon="1.67879">
        <ele>524.6</ele>
        <time>2022-05-20 22:43:33</time>
      </trkpt>
      <trkpt lat="41.62636" lon="1.67883">
        <ele>524.6</ele>
        <time>2022-05-20 22:43:34</time>
      </trkpt>
      <trkpt lat="41.62633" lon="1.67887">
        <ele>524.8</ele>
        <time>2022-05-20 22:43:35</time>
      </trkpt>
      <trkpt lat="41.6263" lon="1.67891">
        <ele>524.8</ele>
        <time>2022-05-20 22:43:36</time>
      </trkpt>
      <trkpt lat="41.62626" lon="1.67895">
        <ele>525</ele>
        <time>2022-05-20 22:43:37</time>
      </trkpt>
      <trkpt lat="41.62623" lon="1.67899">
        <ele>525</ele>
        <time>2022-05-20 22:43:38</time>
      </trkpt>
      <trkpt lat="41.6262" lon="1.67903">
        <ele>525.2</ele>
        <time>2022-05-20 22:43:39</time>
      </trkpt>
      <trkpt lat="41.62616" lon="1.67907">
        <ele>525.2</ele>
        <time>2022-05-20 22:43:40</time>
      </trkpt>
      <trkpt lat="41.62614" lon="1.67911">
        <ele>525.4</ele>
        <time>2022-05-20 22:43:41</time>
      </trkpt>
      <trkpt lat="41.6261" lon="1.67915">
        <ele>525.4</ele>
        <time>2022-05-20 22:43:42</time>
      </trkpt>
      <trkpt lat="41.62607" lon="1.67919">
        <ele>525.6</ele>
        <time>2022-05-20 22:43:43</time>
      </trkpt>
      <trkpt lat="41.62603" lon="1.67923">
        <ele>525.8</ele>
        <time>2022-05-20 22:43:44</time>
      </trkpt>
      <trkpt lat="41.626" lon="1.67927">
        <ele>525.8</ele>
        <time>2022-05-20 22:43:45</time>
      </trkpt>
      <trkpt lat="41.62597" lon="1.67931">
        <ele>526</ele>
        <time>2022-05-20 22:43:46</time>
      </trkpt>
      <trkpt lat="41.62593" lon="1.67935">
        <ele>526.2</ele>
        <time>2022-05-20 22:43:47</time>
      </trkpt>
      <trkpt lat="41.6259" lon="1.67939">
        <ele>526.2</ele>
        <time>2022-05-20 22:43:48</time>
      </trkpt>
      <trkpt lat="41.62587" lon="1.67943">
        <ele>526.4</ele>
        <time>2022-05-20 22:43:49</time>
      </trkpt>
      <trkpt lat="41.62583" lon="1.67947">
        <ele>526.4</ele>
        <time>2022-05-20 22:43:50</time>
      </trkpt>
      <trkpt lat="41.62579" lon="1.67952">
        <ele>526.6</ele>
        <time>2022-05-20 22:43:51</time>
      </trkpt>
      <trkpt lat="41.62576" lon="1.67957">
        <ele>526.6</ele>
        <time>2022-05-20 22:43:52</time>
      </trkpt>
      <trkpt lat="41.62573" lon="1.67961">
        <ele>526.8</ele>
        <time>2022-05-20 22:43:53</time>
      </trkpt>
      <trkpt lat="41.6257" lon="1.67965">
        <ele>526.8</ele>
        <time>2022-05-20 22:43:54</time>
      </trkpt>
      <trkpt lat="41.62567" lon="1.6797">
        <ele>527</ele>
        <time>2022-05-20 22:43:55</time>
      </trkpt>
      <trkpt lat="41.62564" lon="1.67976">
        <ele>527</ele>
        <time>2022-05-20 22:43:56</time>
      </trkpt>
      <trkpt lat="41.62563" lon="1.67983">
        <ele>527.2</ele>
        <time>2022-05-20 22:43:57</time>
      </trkpt>
      <trkpt lat="41.62561" lon="1.67988">
        <ele>527.4</ele>
        <time>2022-05-20 22:43:58</time>
      </trkpt>
      <trkpt lat="41.6256" lon="1.67994">
        <ele>527.4</ele>
        <time>2022-05-20 22:43:59</time>
      </trkpt>
      <trkpt lat="41.6256" lon="1.68">
        <ele>527.6</ele>
        <time>2022-05-20 22:44:00</time>
      </trkpt>
      <trkpt lat="41.6256" lon="1.68006">
        <ele>527.8</ele>
        <time>2022-05-20 22:44:01</time>
      </trkpt>
      <trkpt lat="41.62559" lon="1.68012">
        <ele>528</ele>
        <time>2022-05-20 22:44:02</time>
      </trkpt>
      <trkpt lat="41.62559" lon="1.68019">
        <ele>528</ele>
        <time>2022-05-20 22:44:03</time>
      </trkpt>
      <trkpt lat="41.62558" lon="1.68025">
        <ele>528.2</ele>
        <time>2022-05-20 22:44:04</time>
      </trkpt>
      <trkpt lat="41.62558" lon="1.68031">
        <ele>528.4</ele>
        <time>2022-05-20 22:44:05</time>
      </trkpt>
      <trkpt lat="41.62557" lon="1.68037">
        <ele>528.6</ele>
        <time>2022-05-20 22:44:06</time>
      </trkpt>
      <trkpt lat="41.62556" lon="1.68042">
        <ele>528.8</ele>
        <time>2022-05-20 22:44:07</time>
      </trkpt>
      <trkpt lat="41.62556" lon="1.68048">
        <ele>529</ele>
        <time>2022-05-20 22:44:08</time>
      </trkpt>
      <trkpt lat="41.62555" lon="1.68053">
        <ele>529.2</ele>
        <time>2022-05-20 22:44:09</time>
      </trkpt>
      <trkpt lat="41.62555" lon="1.68059">
        <ele>529.4</ele>
        <time>2022-05-20 22:44:10</time>
      </trkpt>
      <trkpt lat="41.62554" lon="1.68064">
        <ele>529.6</ele>
        <time>2022-05-20 22:44:11</time>
      </trkpt>
      <trkpt lat="41.62553" lon="1.68069">
        <ele>529.8</ele>
        <time>2022-05-20 22:44:12</time>
      </trkpt>
      <trkpt lat="41.62553" lon="1.68075">
        <ele>530.2</ele>
        <time>2022-05-20 22:44:13</time>
      </trkpt>
      <trkpt lat="41.62552" lon="1.6808">
        <ele>530.4</ele>
        <time>2022-05-20 22:44:14</time>
      </trkpt>
      <trkpt lat="41.62552" lon="1.68085">
        <ele>530.6</ele>
        <time>2022-05-20 22:44:15</time>
      </trkpt>
      <trkpt lat="41.62551" lon="1.6809">
        <ele>530.8</ele>
        <time>2022-05-20 22:44:16</time>
      </trkpt>
      <trkpt lat="41.6255" lon="1.68094">
        <ele>531</ele>
        <time>2022-05-20 22:44:17</time>
      </trkpt>
      <trkpt lat="41.6255" lon="1.68099">
        <ele>531.2</ele>
        <time>2022-05-20 22:44:18</time>
      </trkpt>
      <trkpt lat="41.6255" lon="1.68104">
        <ele>531.4</ele>
        <time>2022-05-20 22:44:19</time>
      </trkpt>
      <trkpt lat="41.6255" lon="1.68109">
        <ele>531.6</ele>
        <time>2022-05-20 22:44:20</time>
      </trkpt>
      <trkpt lat="41.62549" lon="1.68114">
        <ele>531.8</ele>
        <time>2022-05-20 22:44:21</time>
      </trkpt>
      <trkpt lat="41.62548" lon="1.68118">
        <ele>532</ele>
        <time>2022-05-20 22:44:22</time>
      </trkpt>
      <trkpt lat="41.62548" lon="1.68123">
        <ele>532.4</ele>
        <time>2022-05-20 22:44:23</time>
      </trkpt>
      <trkpt lat="41.62547" lon="1.68129">
        <ele>532.6</ele>
        <time>2022-05-20 22:44:24</time>
      </trkpt>
      <trkpt lat="41.62547" lon="1.68134">
        <ele>532.8</ele>
        <time>2022-05-20 22:44:25</time>
      </trkpt>
      <trkpt lat="41.62546" lon="1.68138">
        <ele>533</ele>
        <time>2022-05-20 22:44:26</time>
      </trkpt>
      <trkpt lat="41.62545" lon="1.68143">
        <ele>533.2</ele>
        <time>2022-05-20 22:44:27</time>
      </trkpt>
      <trkpt lat="41.62545" lon="1.68148">
        <ele>533.4</ele>
        <time>2022-05-20 22:44:28</time>
      </trkpt>
      <trkpt lat="41.62544" lon="1.68153">
        <ele>533.6</ele>
        <time>2022-05-20 22:44:29</time>
      </trkpt>
      <trkpt lat="41.62544" lon="1.68158">
        <ele>533.8</ele>
        <time>2022-05-20 22:44:30</time>
      </trkpt>
      <trkpt lat="41.62543" lon="1.68163">
        <ele>534</ele>
        <time>2022-05-20 22:44:31</time>
      </trkpt>
      <trkpt lat="41.62543" lon="1.68168">
        <ele>534.2</ele>
        <time>2022-05-20 22:44:32</time>
      </trkpt>
      <trkpt lat="41.62543" lon="1.68173">
        <ele>534.2</ele>
        <time>2022-05-20 22:44:33</time>
      </trkpt>
      <trkpt lat="41.62542" lon="1.68178">
        <ele>534.4</ele>
        <time>2022-05-20 22:44:34</time>
      </trkpt>
      <trkpt lat="41.62542" lon="1.68183">
        <ele>534.6</ele>
        <time>2022-05-20 22:44:35</time>
      </trkpt>
      <trkpt lat="41.62542" lon="1.68187">
        <ele>534.8</ele>
        <time>2022-05-20 22:44:36</time>
      </trkpt>
      <trkpt lat="41.62541" lon="1.68192">
        <ele>535</ele>
        <time>2022-05-20 22:44:37</time>
      </trkpt>
      <trkpt lat="41.62541" lon="1.68197">
        <ele>535.4</ele>
        <time>2022-05-20 22:44:38</time>
      </trkpt>
      <trkpt lat="41.62541" lon="1.68202">
        <ele>535.6</ele>
        <time>2022-05-20 22:44:39</time>
      </trkpt>
      <trkpt lat="41.62541" lon="1.68207">
        <ele>535.8</ele>
        <time>2022-05-20 22:44:40</time>
      </trkpt>
      <trkpt lat="41.62542" lon="1.68212">
        <ele>536</ele>
        <time>2022-05-20 22:44:41</time>
      </trkpt>
      <trkpt lat="41.62543" lon="1.68216">
        <ele>536.2</ele>
        <time>2022-05-20 22:44:42</time>
      </trkpt>
      <trkpt lat="41.62545" lon="1.68219">
        <ele>536.4</ele>
        <time>2022-05-20 22:44:43</time>
      </trkpt>
      <trkpt lat="41.62548" lon="1.68223">
        <ele>536.8</ele>
        <time>2022-05-20 22:44:44</time>
      </trkpt>
      <trkpt lat="41.6255" lon="1.68227">
        <ele>537</ele>
        <time>2022-05-20 22:44:45</time>
      </trkpt>
      <trkpt lat="41.62553" lon="1.6823">
        <ele>537.2</ele>
        <time>2022-05-20 22:44:46</time>
      </trkpt>
      <trkpt lat="41.62555" lon="1.68233">
        <ele>537.6</ele>
        <time>2022-05-20 22:44:47</time>
      </trkpt>
      <trkpt lat="41.62558" lon="1.68236">
        <ele>537.8</ele>
        <time>2022-05-20 22:44:48</time>
      </trkpt>
      <trkpt lat="41.62561" lon="1.68239">
        <ele>538</ele>
        <time>2022-05-20 22:44:49</time>
      </trkpt>
      <trkpt lat="41.62563" lon="1.68242">
        <ele>538.2</ele>
        <time>2022-05-20 22:44:50</time>
      </trkpt>
      <trkpt lat="41.62566" lon="1.68245">
        <ele>538.4</ele>
        <time>2022-05-20 22:44:51</time>
      </trkpt>
      <trkpt lat="41.62568" lon="1.68249">
        <ele>538.6</ele>
        <time>2022-05-20 22:44:52</time>
      </trkpt>
      <trkpt lat="41.62569" lon="1.68253">
        <ele>538.8</ele>
        <time>2022-05-20 22:44:53</time>
      </trkpt>
      <trkpt lat="41.62571" lon="1.68257">
        <ele>539</ele>
        <time>2022-05-20 22:44:54</time>
      </trkpt>
      <trkpt lat="41.62572" lon="1.68261">
        <ele>539.4</ele>
        <time>2022-05-20 22:44:55</time>
      </trkpt>
      <trkpt lat="41.62572" lon="1.68266">
        <ele>539.6</ele>
        <time>2022-05-20 22:44:56</time>
      </trkpt>
      <trkpt lat="41.62572" lon="1.6827">
        <ele>539.8</ele>
        <time>2022-05-20 22:44:57</time>
      </trkpt>
      <trkpt lat="41.62572" lon="1.68273">
        <ele>540.2</ele>
        <time>2022-05-20 22:44:58</time>
      </trkpt>
      <trkpt lat="41.62572" lon="1.68278">
        <ele>540.4</ele>
        <time>2022-05-20 22:44:59</time>
      </trkpt>
      <trkpt lat="41.62571" lon="1.68283">
        <ele>540.6</ele>
        <time>2022-05-20 22:45:00</time>
      </trkpt>
      <trkpt lat="41.62571" lon="1.68287">
        <ele>540.8</ele>
        <time>2022-05-20 22:45:01</time>
      </trkpt>
      <trkpt lat="41.6257" lon="1.68291">
        <ele>541</ele>
        <time>2022-05-20 22:45:02</time>
      </trkpt>
      <trkpt lat="41.62569" lon="1.68295">
        <ele>541.2</ele>
        <time>2022-05-20 22:45:03</time>
      </trkpt>
      <trkpt lat="41.62569" lon="1.68299">
        <ele>541.4</ele>
        <time>2022-05-20 22:45:04</time>
      </trkpt>
      <trkpt lat="41.62568" lon="1.68304">
        <ele>541.6</ele>
        <time>2022-05-20 22:45:05</time>
      </trkpt>
      <trkpt lat="41.62568" lon="1.68308">
        <ele>541.8</ele>
        <time>2022-05-20 22:45:06</time>
      </trkpt>
      <trkpt lat="41.62568" lon="1.68313">
        <ele>542</ele>
        <time>2022-05-20 22:45:07</time>
      </trkpt>
      <trkpt lat="41.62568" lon="1.68317">
        <ele>542.2</ele>
        <time>2022-05-20 22:45:08</time>
      </trkpt>
      <trkpt lat="41.62567" lon="1.68321">
        <ele>542.4</ele>
        <time>2022-05-20 22:45:09</time>
      </trkpt>
      <trkpt lat="41.62567" lon="1.68325">
        <ele>542.6</ele>
        <time>2022-05-20 22:45:10</time>
      </trkpt>
      <trkpt lat="41.62567" lon="1.6833">
        <ele>542.8</ele>
        <time>2022-05-20 22:45:11</time>
      </trkpt>
      <trkpt lat="41.62567" lon="1.68334">
        <ele>543</ele>
        <time>2022-05-20 22:45:12</time>
      </trkpt>
      <trkpt lat="41.62567" lon="1.68338">
        <ele>543.2</ele>
        <time>2022-05-20 22:45:13</time>
      </trkpt>
      <trkpt lat="41.62568" lon="1.68342">
        <ele>543.4</ele>
        <time>2022-05-20 22:45:14</time>
      </trkpt>
      <trkpt lat="41.62569" lon="1.68347">
        <ele>543.6</ele>
        <time>2022-05-20 22:45:15</time>
      </trkpt>
      <trkpt lat="41.6257" lon="1.68351">
        <ele>543.8</ele>
        <time>2022-05-20 22:45:16</time>
      </trkpt>
      <trkpt lat="41.62572" lon="1.68354">
        <ele>544</ele>
        <time>2022-05-20 22:45:17</time>
      </trkpt>
      <trkpt lat="41.62573" lon="1.68358">
        <ele>544.2</ele>
        <time>2022-05-20 22:45:18</time>
      </trkpt>
      <trkpt lat="41.62575" lon="1.68361">
        <ele>544.4</ele>
        <time>2022-05-20 22:45:19</time>
      </trkpt>
      <trkpt lat="41.62577" lon="1.68365">
        <ele>544.6</ele>
        <time>2022-05-20 22:45:20</time>
      </trkpt>
      <trkpt lat="41.62579" lon="1.68368">
        <ele>545</ele>
        <time>2022-05-20 22:45:21</time>
      </trkpt>
      <trkpt lat="41.62582" lon="1.68371">
        <ele>545.2</ele>
        <time>2022-05-20 22:45:22</time>
      </trkpt>
      <trkpt lat="41.62584" lon="1.68375">
        <ele>545.4</ele>
        <time>2022-05-20 22:45:23</time>
      </trkpt>
      <trkpt lat="41.62586" lon="1.68378">
        <ele>545.4</ele>
        <time>2022-05-20 22:45:24</time>
      </trkpt>
      <trkpt lat="41.62588" lon="1.68381">
        <ele>545.6</ele>
        <time>2022-05-20 22:45:25</time>
      </trkpt>
      <trkpt lat="41.62591" lon="1.68385">
        <ele>545.8</ele>
        <time>2022-05-20 22:45:26</time>
      </trkpt>
      <trkpt lat="41.62593" lon="1.68388">
        <ele>546</ele>
        <time>2022-05-20 22:45:27</time>
      </trkpt>
      <trkpt lat="41.62596" lon="1.68391">
        <ele>546.2</ele>
        <time>2022-05-20 22:45:28</time>
      </trkpt>
      <trkpt lat="41.62599" lon="1.68395">
        <ele>546.4</ele>
        <time>2022-05-20 22:45:29</time>
      </trkpt>
      <trkpt lat="41.62601" lon="1.684">
        <ele>546.4</ele>
        <time>2022-05-20 22:45:30</time>
      </trkpt>
      <trkpt lat="41.62603" lon="1.68404">
        <ele>546.6</ele>
        <time>2022-05-20 22:45:31</time>
      </trkpt>
      <trkpt lat="41.62605" lon="1.68409">
        <ele>546.8</ele>
        <time>2022-05-20 22:45:32</time>
      </trkpt>
      <trkpt lat="41.62606" lon="1.68414">
        <ele>546.8</ele>
        <time>2022-05-20 22:45:33</time>
      </trkpt>
      <trkpt lat="41.62608" lon="1.68418">
        <ele>547</ele>
        <time>2022-05-20 22:45:34</time>
      </trkpt>
      <trkpt lat="41.62609" lon="1.68422">
        <ele>547</ele>
        <time>2022-05-20 22:45:35</time>
      </trkpt>
      <trkpt lat="41.62613" lon="1.68428">
        <ele>547.2</ele>
        <time>2022-05-20 22:45:36</time>
      </trkpt>
      <trkpt lat="41.62615" lon="1.68434">
        <ele>547.2</ele>
        <time>2022-05-20 22:45:37</time>
      </trkpt>
      <trkpt lat="41.62617" lon="1.68439">
        <ele>547.4</ele>
        <time>2022-05-20 22:45:38</time>
      </trkpt>
      <trkpt lat="41.62618" lon="1.68444">
        <ele>547.4</ele>
        <time>2022-05-20 22:45:39</time>
      </trkpt>
      <trkpt lat="41.62621" lon="1.6845">
        <ele>547.6</ele>
        <time>2022-05-20 22:45:40</time>
      </trkpt>
      <trkpt lat="41.62622" lon="1.68455">
        <ele>547.6</ele>
        <time>2022-05-20 22:45:41</time>
      </trkpt>
      <trkpt lat="41.62625" lon="1.68461">
        <ele>547.6</ele>
        <time>2022-05-20 22:45:42</time>
      </trkpt>
      <trkpt lat="41.62627" lon="1.68467">
        <ele>547.6</ele>
        <time>2022-05-20 22:45:43</time>
      </trkpt>
      <trkpt lat="41.62629" lon="1.68472">
        <ele>547.8</ele>
        <time>2022-05-20 22:45:44</time>
      </trkpt>
      <trkpt lat="41.62632" lon="1.68478">
        <ele>547.8</ele>
        <time>2022-05-20 22:45:45</time>
      </trkpt>
      <trkpt lat="41.62634" lon="1.68484">
        <ele>547.8</ele>
        <time>2022-05-20 22:45:46</time>
      </trkpt>
      <trkpt lat="41.62636" lon="1.6849">
        <ele>548</ele>
        <time>2022-05-20 22:45:47</time>
      </trkpt>
      <trkpt lat="41.62638" lon="1.68496">
        <ele>548</ele>
        <time>2022-05-20 22:45:48</time>
      </trkpt>
      <trkpt lat="41.62641" lon="1.68503">
        <ele>548</ele>
        <time>2022-05-20 22:45:49</time>
      </trkpt>
      <trkpt lat="41.62643" lon="1.68509">
        <ele>548.2</ele>
        <time>2022-05-20 22:45:50</time>
      </trkpt>
      <trkpt lat="41.62646" lon="1.68515">
        <ele>548.2</ele>
        <time>2022-05-20 22:45:51</time>
      </trkpt>
      <trkpt lat="41.62648" lon="1.68521">
        <ele>548.2</ele>
        <time>2022-05-20 22:45:52</time>
      </trkpt>
      <trkpt lat="41.62651" lon="1.68528">
        <ele>548.4</ele>
        <time>2022-05-20 22:45:53</time>
      </trkpt>
      <trkpt lat="41.62653" lon="1.68534">
        <ele>548.4</ele>
        <time>2022-05-20 22:45:54</time>
      </trkpt>
      <trkpt lat="41.62655" lon="1.68541">
        <ele>548.4</ele>
        <time>2022-05-20 22:45:55</time>
      </trkpt>
      <trkpt lat="41.62657" lon="1.68548">
        <ele>548.4</ele>
        <time>2022-05-20 22:45:56</time>
      </trkpt>
      <trkpt lat="41.62659" lon="1.68555">
        <ele>548.4</ele>
        <time>2022-05-20 22:45:57</time>
      </trkpt>
      <trkpt lat="41.62661" lon="1.68562">
        <ele>548.4</ele>
        <time>2022-05-20 22:45:58</time>
      </trkpt>
      <trkpt lat="41.62663" lon="1.68569">
        <ele>548.6</ele>
        <time>2022-05-20 22:45:59</time>
      </trkpt>
      <trkpt lat="41.62665" lon="1.68576">
        <ele>548.6</ele>
        <time>2022-05-20 22:46:00</time>
      </trkpt>
      <trkpt lat="41.62666" lon="1.68584">
        <ele>548.8</ele>
        <time>2022-05-20 22:46:01</time>
      </trkpt>
      <trkpt lat="41.62667" lon="1.68591">
        <ele>548.8</ele>
        <time>2022-05-20 22:46:02</time>
      </trkpt>
      <trkpt lat="41.62668" lon="1.68599">
        <ele>549</ele>
        <time>2022-05-20 22:46:03</time>
      </trkpt>
      <trkpt lat="41.62669" lon="1.68606">
        <ele>549</ele>
        <time>2022-05-20 22:46:04</time>
      </trkpt>
      <trkpt lat="41.62669" lon="1.68614">
        <ele>549</ele>
        <time>2022-05-20 22:46:05</time>
      </trkpt>
      <trkpt lat="41.6267" lon="1.68622">
        <ele>549.2</ele>
        <time>2022-05-20 22:46:06</time>
      </trkpt>
      <trkpt lat="41.6267" lon="1.68629">
        <ele>549.2</ele>
        <time>2022-05-20 22:46:07</time>
      </trkpt>
      <trkpt lat="41.62671" lon="1.68637">
        <ele>549.4</ele>
        <time>2022-05-20 22:46:08</time>
      </trkpt>
      <trkpt lat="41.62671" lon="1.68644">
        <ele>549.4</ele>
        <time>2022-05-20 22:46:09</time>
      </trkpt>
      <trkpt lat="41.62672" lon="1.68652">
        <ele>549.4</ele>
        <time>2022-05-20 22:46:10</time>
      </trkpt>
      <trkpt lat="41.62674" lon="1.68659">
        <ele>549.6</ele>
        <time>2022-05-20 22:46:11</time>
      </trkpt>
      <trkpt lat="41.62676" lon="1.68666">
        <ele>549.6</ele>
        <time>2022-05-20 22:46:12</time>
      </trkpt>
      <trkpt lat="41.62679" lon="1.68673">
        <ele>549.6</ele>
        <time>2022-05-20 22:46:13</time>
      </trkpt>
      <trkpt lat="41.62683" lon="1.6868">
        <ele>549.6</ele>
        <time>2022-05-20 22:46:14</time>
      </trkpt>
      <trkpt lat="41.62687" lon="1.68687">
        <ele>549.6</ele>
        <time>2022-05-20 22:46:15</time>
      </trkpt>
      <trkpt lat="41.62692" lon="1.68694">
        <ele>549.4</ele>
        <time>2022-05-20 22:46:16</time>
      </trkpt>
      <trkpt lat="41.62697" lon="1.687">
        <ele>549.2</ele>
        <time>2022-05-20 22:46:17</time>
      </trkpt>
      <trkpt lat="41.62702" lon="1.68707">
        <ele>549.2</ele>
        <time>2022-05-20 22:46:18</time>
      </trkpt>
      <trkpt lat="41.62707" lon="1.68714">
        <ele>549</ele>
        <time>2022-05-20 22:46:19</time>
      </trkpt>
      <trkpt lat="41.62713" lon="1.68721">
        <ele>548.8</ele>
        <time>2022-05-20 22:46:20</time>
      </trkpt>
      <trkpt lat="41.62718" lon="1.68729">
        <ele>548.6</ele>
        <time>2022-05-20 22:46:21</time>
      </trkpt>
      <trkpt lat="41.62724" lon="1.68736">
        <ele>548.2</ele>
        <time>2022-05-20 22:46:22</time>
      </trkpt>
      <trkpt lat="41.6273" lon="1.68744">
        <ele>548</ele>
        <time>2022-05-20 22:46:23</time>
      </trkpt>
      <trkpt lat="41.62735" lon="1.68752">
        <ele>547.6</ele>
        <time>2022-05-20 22:46:24</time>
      </trkpt>
      <trkpt lat="41.62742" lon="1.6876">
        <ele>547.4</ele>
        <time>2022-05-20 22:46:25</time>
      </trkpt>
      <trkpt lat="41.62749" lon="1.68767">
        <ele>547.2</ele>
        <time>2022-05-20 22:46:26</time>
      </trkpt>
      <trkpt lat="41.62755" lon="1.68774">
        <ele>547</ele>
        <time>2022-05-20 22:46:27</time>
      </trkpt>
      <trkpt lat="41.62762" lon="1.6878">
        <ele>546.8</ele>
        <time>2022-05-20 22:46:28</time>
      </trkpt>
      <trkpt lat="41.6277" lon="1.68784">
        <ele>546.6</ele>
        <time>2022-05-20 22:46:29</time>
      </trkpt>
      <trkpt lat="41.62778" lon="1.68787">
        <ele>546.6</ele>
        <time>2022-05-20 22:46:30</time>
      </trkpt>
      <trkpt lat="41.62786" lon="1.68789">
        <ele>546.8</ele>
        <time>2022-05-20 22:46:31</time>
      </trkpt>
      <trkpt lat="41.62793" lon="1.6879">
        <ele>546.8</ele>
        <time>2022-05-20 22:46:32</time>
      </trkpt>
      <trkpt lat="41.62801" lon="1.68791">
        <ele>547</ele>
        <time>2022-05-20 22:46:33</time>
      </trkpt>
      <trkpt lat="41.62808" lon="1.68793">
        <ele>547</ele>
        <time>2022-05-20 22:46:34</time>
      </trkpt>
      <trkpt lat="41.62815" lon="1.68797">
        <ele>547.2</ele>
        <time>2022-05-20 22:46:35</time>
      </trkpt>
      <trkpt lat="41.6282" lon="1.68802">
        <ele>547.4</ele>
        <time>2022-05-20 22:46:36</time>
      </trkpt>
      <trkpt lat="41.62826" lon="1.68808">
        <ele>547.6</ele>
        <time>2022-05-20 22:46:37</time>
      </trkpt>
      <trkpt lat="41.6283" lon="1.68816">
        <ele>547.8</ele>
        <time>2022-05-20 22:46:38</time>
      </trkpt>
      <trkpt lat="41.62833" lon="1.68824">
        <ele>548</ele>
        <time>2022-05-20 22:46:39</time>
      </trkpt>
      <trkpt lat="41.62835" lon="1.68832">
        <ele>548.4</ele>
        <time>2022-05-20 22:46:40</time>
      </trkpt>
      <trkpt lat="41.62838" lon="1.6884">
        <ele>548.6</ele>
        <time>2022-05-20 22:46:41</time>
      </trkpt>
      <trkpt lat="41.62841" lon="1.68847">
        <ele>548.8</ele>
        <time>2022-05-20 22:46:42</time>
      </trkpt>
      <trkpt lat="41.62845" lon="1.68855">
        <ele>549</ele>
        <time>2022-05-20 22:46:43</time>
      </trkpt>
      <trkpt lat="41.62849" lon="1.68862">
        <ele>549.2</ele>
        <time>2022-05-20 22:46:44</time>
      </trkpt>
      <trkpt lat="41.62853" lon="1.68868">
        <ele>549.4</ele>
        <time>2022-05-20 22:46:45</time>
      </trkpt>
      <trkpt lat="41.62857" lon="1.68874">
        <ele>549.6</ele>
        <time>2022-05-20 22:46:46</time>
      </trkpt>
      <trkpt lat="41.62863" lon="1.6888">
        <ele>549.6</ele>
        <time>2022-05-20 22:46:47</time>
      </trkpt>
      <trkpt lat="41.62868" lon="1.68886">
        <ele>549.8</ele>
        <time>2022-05-20 22:46:48</time>
      </trkpt>
      <trkpt lat="41.62874" lon="1.68892">
        <ele>549.8</ele>
        <time>2022-05-20 22:46:49</time>
      </trkpt>
      <trkpt lat="41.62879" lon="1.68898">
        <ele>550</ele>
        <time>2022-05-20 22:46:50</time>
      </trkpt>
      <trkpt lat="41.62885" lon="1.68904">
        <ele>550</ele>
        <time>2022-05-20 22:46:51</time>
      </trkpt>
      <trkpt lat="41.6289" lon="1.6891">
        <ele>550.2</ele>
        <time>2022-05-20 22:46:52</time>
      </trkpt>
      <trkpt lat="41.62896" lon="1.68916">
        <ele>550.2</ele>
        <time>2022-05-20 22:46:53</time>
      </trkpt>
      <trkpt lat="41.62901" lon="1.68922">
        <ele>550.4</ele>
        <time>2022-05-20 22:46:54</time>
      </trkpt>
      <trkpt lat="41.62907" lon="1.68927">
        <ele>550.4</ele>
        <time>2022-05-20 22:46:55</time>
      </trkpt>
      <trkpt lat="41.62912" lon="1.68933">
        <ele>550.6</ele>
        <time>2022-05-20 22:46:56</time>
      </trkpt>
      <trkpt lat="41.62917" lon="1.68939">
        <ele>550.8</ele>
        <time>2022-05-20 22:46:57</time>
      </trkpt>
      <trkpt lat="41.62922" lon="1.68944">
        <ele>551</ele>
        <time>2022-05-20 22:46:58</time>
      </trkpt>
      <trkpt lat="41.62928" lon="1.6895">
        <ele>551</ele>
        <time>2022-05-20 22:46:59</time>
      </trkpt>
      <trkpt lat="41.62933" lon="1.68954">
        <ele>551.2</ele>
        <time>2022-05-20 22:47:00</time>
      </trkpt>
      <trkpt lat="41.62938" lon="1.68959">
        <ele>551.4</ele>
        <time>2022-05-20 22:47:01</time>
      </trkpt>
      <trkpt lat="41.62943" lon="1.68964">
        <ele>551.6</ele>
        <time>2022-05-20 22:47:02</time>
      </trkpt>
      <trkpt lat="41.62949" lon="1.68968">
        <ele>551.8</ele>
        <time>2022-05-20 22:47:03</time>
      </trkpt>
      <trkpt lat="41.62954" lon="1.68971">
        <ele>552</ele>
        <time>2022-05-20 22:47:04</time>
      </trkpt>
      <trkpt lat="41.6296" lon="1.68975">
        <ele>552.2</ele>
        <time>2022-05-20 22:47:05</time>
      </trkpt>
      <trkpt lat="41.62966" lon="1.68977">
        <ele>552.4</ele>
        <time>2022-05-20 22:47:06</time>
      </trkpt>
      <trkpt lat="41.62972" lon="1.68979">
        <ele>552.4</ele>
        <time>2022-05-20 22:47:07</time>
      </trkpt>
      <trkpt lat="41.62978" lon="1.68981">
        <ele>552.6</ele>
        <time>2022-05-20 22:47:08</time>
      </trkpt>
      <trkpt lat="41.62983" lon="1.68983">
        <ele>552.8</ele>
        <time>2022-05-20 22:47:09</time>
      </trkpt>
      <trkpt lat="41.62989" lon="1.68984">
        <ele>552.8</ele>
        <time>2022-05-20 22:47:10</time>
      </trkpt>
      <trkpt lat="41.62996" lon="1.68986">
        <ele>552.8</ele>
        <time>2022-05-20 22:47:11</time>
      </trkpt>
      <trkpt lat="41.63002" lon="1.68987">
        <ele>552.8</ele>
        <time>2022-05-20 22:47:12</time>
      </trkpt>
      <trkpt lat="41.63008" lon="1.68988">
        <ele>552.8</ele>
        <time>2022-05-20 22:47:13</time>
      </trkpt>
      <trkpt lat="41.63015" lon="1.68988">
        <ele>552.8</ele>
        <time>2022-05-20 22:47:14</time>
      </trkpt>
      <trkpt lat="41.63021" lon="1.68988">
        <ele>552.8</ele>
        <time>2022-05-20 22:47:15</time>
      </trkpt>
      <trkpt lat="41.63028" lon="1.68988">
        <ele>552.8</ele>
        <time>2022-05-20 22:47:16</time>
      </trkpt>
      <trkpt lat="41.63034" lon="1.68987">
        <ele>552.6</ele>
        <time>2022-05-20 22:47:17</time>
      </trkpt>
      <trkpt lat="41.63041" lon="1.68986">
        <ele>552.4</ele>
        <time>2022-05-20 22:47:18</time>
      </trkpt>
      <trkpt lat="41.63048" lon="1.68985">
        <ele>552.2</ele>
        <time>2022-05-20 22:47:19</time>
      </trkpt>
      <trkpt lat="41.63055" lon="1.68984">
        <ele>552</ele>
        <time>2022-05-20 22:47:20</time>
      </trkpt>
      <trkpt lat="41.63062" lon="1.68984">
        <ele>551.8</ele>
        <time>2022-05-20 22:47:21</time>
      </trkpt>
      <trkpt lat="41.6307" lon="1.68983">
        <ele>551.6</ele>
        <time>2022-05-20 22:47:22</time>
      </trkpt>
      <trkpt lat="41.63077" lon="1.68982">
        <ele>551.4</ele>
        <time>2022-05-20 22:47:23</time>
      </trkpt>
      <trkpt lat="41.63084" lon="1.68981">
        <ele>551.2</ele>
        <time>2022-05-20 22:47:24</time>
      </trkpt>
      <trkpt lat="41.63092" lon="1.68981">
        <ele>550.8</ele>
        <time>2022-05-20 22:47:25</time>
      </trkpt>
      <trkpt lat="41.63099" lon="1.6898">
        <ele>550.6</ele>
        <time>2022-05-20 22:47:26</time>
      </trkpt>
      <trkpt lat="41.63107" lon="1.6898">
        <ele>550.4</ele>
        <time>2022-05-20 22:47:27</time>
      </trkpt>
      <trkpt lat="41.63115" lon="1.68979">
        <ele>550.2</ele>
        <time>2022-05-20 22:47:28</time>
      </trkpt>
      <trkpt lat="41.63123" lon="1.68978">
        <ele>549.8</ele>
        <time>2022-05-20 22:47:29</time>
      </trkpt>
      <trkpt lat="41.6313" lon="1.68978">
        <ele>549.6</ele>
        <time>2022-05-20 22:47:30</time>
      </trkpt>
      <trkpt lat="41.63138" lon="1.68977">
        <ele>549.4</ele>
        <time>2022-05-20 22:47:31</time>
      </trkpt>
      <trkpt lat="41.63145" lon="1.68977">
        <ele>549.2</ele>
        <time>2022-05-20 22:47:32</time>
      </trkpt>
      <trkpt lat="41.63153" lon="1.68977">
        <ele>549.2</ele>
        <time>2022-05-20 22:47:33</time>
      </trkpt>
      <trkpt lat="41.63161" lon="1.68978">
        <ele>549</ele>
        <time>2022-05-20 22:47:34</time>
      </trkpt>
      <trkpt lat="41.63168" lon="1.6898">
        <ele>548.8</ele>
        <time>2022-05-20 22:47:35</time>
      </trkpt>
      <trkpt lat="41.63175" lon="1.68982">
        <ele>548.6</ele>
        <time>2022-05-20 22:47:36</time>
      </trkpt>
      <trkpt lat="41.63182" lon="1.68984">
        <ele>548.4</ele>
        <time>2022-05-20 22:47:37</time>
      </trkpt>
      <trkpt lat="41.63189" lon="1.68987">
        <ele>548.2</ele>
        <time>2022-05-20 22:47:38</time>
      </trkpt>
      <trkpt lat="41.63197" lon="1.68989">
        <ele>548</ele>
        <time>2022-05-20 22:47:39</time>
      </trkpt>
      <trkpt lat="41.63204" lon="1.68989">
        <ele>547.8</ele>
        <time>2022-05-20 22:47:40</time>
      </trkpt>
      <trkpt lat="41.63212" lon="1.68988">
        <ele>547.6</ele>
        <time>2022-05-20 22:47:41</time>
      </trkpt>
      <trkpt lat="41.63219" lon="1.68987">
        <ele>547.4</ele>
        <time>2022-05-20 22:47:42</time>
      </trkpt>
      <trkpt lat="41.63226" lon="1.68984">
        <ele>547.2</ele>
        <time>2022-05-20 22:47:43</time>
      </trkpt>
      <trkpt lat="41.63233" lon="1.6898">
        <ele>547</ele>
        <time>2022-05-20 22:47:44</time>
      </trkpt>
      <trkpt lat="41.6324" lon="1.68976">
        <ele>546.8</ele>
        <time>2022-05-20 22:47:45</time>
      </trkpt>
      <trkpt lat="41.63247" lon="1.68971">
        <ele>546.6</ele>
        <time>2022-05-20 22:47:46</time>
      </trkpt>
      <trkpt lat="41.63253" lon="1.68966">
        <ele>546.4</ele>
        <time>2022-05-20 22:47:47</time>
      </trkpt>
      <trkpt lat="41.6326" lon="1.68961">
        <ele>546.2</ele>
        <time>2022-05-20 22:47:48</time>
      </trkpt>
      <trkpt lat="41.63266" lon="1.68957">
        <ele>546</ele>
        <time>2022-05-20 22:47:49</time>
      </trkpt>
      <trkpt lat="41.63273" lon="1.68952">
        <ele>545.8</ele>
        <time>2022-05-20 22:47:50</time>
      </trkpt>
      <trkpt lat="41.6328" lon="1.68949">
        <ele>545.6</ele>
        <time>2022-05-20 22:47:51</time>
      </trkpt>
      <trkpt lat="41.63288" lon="1.68946">
        <ele>545.2</ele>
        <time>2022-05-20 22:47:52</time>
      </trkpt>
      <trkpt lat="41.63296" lon="1.68946">
        <ele>545</ele>
        <time>2022-05-20 22:47:53</time>
      </trkpt>
      <trkpt lat="41.63303" lon="1.68949">
        <ele>544.8</ele>
        <time>2022-05-20 22:47:54</time>
      </trkpt>
      <trkpt lat="41.63308" lon="1.68954">
        <ele>544.6</ele>
        <time>2022-05-20 22:47:55</time>
      </trkpt>
      <trkpt lat="41.63313" lon="1.68961">
        <ele>544.4</ele>
        <time>2022-05-20 22:47:56</time>
      </trkpt>
      <trkpt lat="41.63314" lon="1.68969">
        <ele>544.4</ele>
        <time>2022-05-20 22:47:57</time>
      </trkpt>
      <trkpt lat="41.63316" lon="1.68978">
        <ele>544.2</ele>
        <time>2022-05-20 22:47:58</time>
      </trkpt>
      <trkpt lat="41.63319" lon="1.68985">
        <ele>544.2</ele>
        <time>2022-05-20 22:47:59</time>
      </trkpt>
      <trkpt lat="41.63321" lon="1.68991">
        <ele>544.2</ele>
        <time>2022-05-20 22:48:00</time>
      </trkpt>
      <trkpt lat="41.63324" lon="1.68996">
        <ele>544.4</ele>
        <time>2022-05-20 22:48:01</time>
      </trkpt>
      <trkpt lat="41.63328" lon="1.69001">
        <ele>544.4</ele>
        <time>2022-05-20 22:48:02</time>
      </trkpt>
      <trkpt lat="41.6333" lon="1.69007">
        <ele>544.4</ele>
        <time>2022-05-20 22:48:03</time>
      </trkpt>
      <trkpt lat="41.63331" lon="1.69014">
        <ele>544.4</ele>
        <time>2022-05-20 22:48:04</time>
      </trkpt>
      <trkpt lat="41.63332" lon="1.69021">
        <ele>544.2</ele>
        <time>2022-05-20 22:48:05</time>
      </trkpt>
      <trkpt lat="41.63331" lon="1.69029">
        <ele>544.2</ele>
        <time>2022-05-20 22:48:06</time>
      </trkpt>
      <trkpt lat="41.6333" lon="1.69036">
        <ele>544.2</ele>
        <time>2022-05-20 22:48:07</time>
      </trkpt>
      <trkpt lat="41.63329" lon="1.69043">
        <ele>544.4</ele>
        <time>2022-05-20 22:48:08</time>
      </trkpt>
      <trkpt lat="41.63327" lon="1.6905">
        <ele>544.4</ele>
        <time>2022-05-20 22:48:09</time>
      </trkpt>
      <trkpt lat="41.63326" lon="1.69056">
        <ele>544.6</ele>
        <time>2022-05-20 22:48:10</time>
      </trkpt>
      <trkpt lat="41.63323" lon="1.69062">
        <ele>544.8</ele>
        <time>2022-05-20 22:48:11</time>
      </trkpt>
      <trkpt lat="41.63321" lon="1.69068">
        <ele>545</ele>
        <time>2022-05-20 22:48:12</time>
      </trkpt>
      <trkpt lat="41.63319" lon="1.69074">
        <ele>545.2</ele>
        <time>2022-05-20 22:48:13</time>
      </trkpt>
      <trkpt lat="41.63317" lon="1.69081">
        <ele>545.2</ele>
        <time>2022-05-20 22:48:14</time>
      </trkpt>
      <trkpt lat="41.63316" lon="1.69087">
        <ele>545.4</ele>
        <time>2022-05-20 22:48:15</time>
      </trkpt>
      <trkpt lat="41.63314" lon="1.69093">
        <ele>545.6</ele>
        <time>2022-05-20 22:48:16</time>
      </trkpt>
      <trkpt lat="41.63312" lon="1.691">
        <ele>545.8</ele>
        <time>2022-05-20 22:48:17</time>
      </trkpt>
      <trkpt lat="41.63311" lon="1.69106">
        <ele>545.8</ele>
        <time>2022-05-20 22:48:18</time>
      </trkpt>
      <trkpt lat="41.6331" lon="1.69113">
        <ele>546</ele>
        <time>2022-05-20 22:48:19</time>
      </trkpt>
      <trkpt lat="41.6331" lon="1.69119">
        <ele>546.2</ele>
        <time>2022-05-20 22:48:20</time>
      </trkpt>
      <trkpt lat="41.6331" lon="1.69125">
        <ele>546.4</ele>
        <time>2022-05-20 22:48:21</time>
      </trkpt>
      <trkpt lat="41.63311" lon="1.69132">
        <ele>546.6</ele>
        <time>2022-05-20 22:48:22</time>
      </trkpt>
      <trkpt lat="41.63312" lon="1.69139">
        <ele>546.8</ele>
        <time>2022-05-20 22:48:23</time>
      </trkpt>
      <trkpt lat="41.63314" lon="1.69145">
        <ele>546.8</ele>
        <time>2022-05-20 22:48:24</time>
      </trkpt>
      <trkpt lat="41.63315" lon="1.69152">
        <ele>547</ele>
        <time>2022-05-20 22:48:25</time>
      </trkpt>
      <trkpt lat="41.63317" lon="1.69158">
        <ele>547</ele>
        <time>2022-05-20 22:48:26</time>
      </trkpt>
      <trkpt lat="41.63318" lon="1.69165">
        <ele>547.2</ele>
        <time>2022-05-20 22:48:27</time>
      </trkpt>
      <trkpt lat="41.6332" lon="1.69171">
        <ele>547.2</ele>
        <time>2022-05-20 22:48:28</time>
      </trkpt>
      <trkpt lat="41.63321" lon="1.69178">
        <ele>547.2</ele>
        <time>2022-05-20 22:48:29</time>
      </trkpt>
      <trkpt lat="41.63323" lon="1.69185">
        <ele>547.4</ele>
        <time>2022-05-20 22:48:30</time>
      </trkpt>
      <trkpt lat="41.63324" lon="1.69192">
        <ele>547.4</ele>
        <time>2022-05-20 22:48:31</time>
      </trkpt>
      <trkpt lat="41.63326" lon="1.69199">
        <ele>547.6</ele>
        <time>2022-05-20 22:48:32</time>
      </trkpt>
      <trkpt lat="41.63327" lon="1.69206">
        <ele>547.6</ele>
        <time>2022-05-20 22:48:33</time>
      </trkpt>
      <trkpt lat="41.63329" lon="1.69213">
        <ele>547.6</ele>
        <time>2022-05-20 22:48:34</time>
      </trkpt>
      <trkpt lat="41.6333" lon="1.6922">
        <ele>547.6</ele>
        <time>2022-05-20 22:48:35</time>
      </trkpt>
      <trkpt lat="41.63333" lon="1.69227">
        <ele>547.8</ele>
        <time>2022-05-20 22:48:36</time>
      </trkpt>
      <trkpt lat="41.63335" lon="1.69233">
        <ele>547.8</ele>
        <time>2022-05-20 22:48:37</time>
      </trkpt>
      <trkpt lat="41.63337" lon="1.6924">
        <ele>547.8</ele>
        <time>2022-05-20 22:48:38</time>
      </trkpt>
      <trkpt lat="41.6334" lon="1.69247">
        <ele>547.8</ele>
        <time>2022-05-20 22:48:39</time>
      </trkpt>
      <trkpt lat="41.63344" lon="1.69253">
        <ele>547.8</ele>
        <time>2022-05-20 22:48:40</time>
      </trkpt>
      <trkpt lat="41.63347" lon="1.6926">
        <ele>547.8</ele>
        <time>2022-05-20 22:48:41</time>
      </trkpt>
      <trkpt lat="41.6335" lon="1.69267">
        <ele>547.6</ele>
        <time>2022-05-20 22:48:42</time>
      </trkpt>
      <trkpt lat="41.63354" lon="1.69273">
        <ele>547.6</ele>
        <time>2022-05-20 22:48:43</time>
      </trkpt>
      <trkpt lat="41.63357" lon="1.6928">
        <ele>547.6</ele>
        <time>2022-05-20 22:48:44</time>
      </trkpt>
      <trkpt lat="41.6336" lon="1.69287">
        <ele>547.6</ele>
        <time>2022-05-20 22:48:45</time>
      </trkpt>
      <trkpt lat="41.63364" lon="1.69294">
        <ele>547.6</ele>
        <time>2022-05-20 22:48:46</time>
      </trkpt>
      <trkpt lat="41.63368" lon="1.69301">
        <ele>547.4</ele>
        <time>2022-05-20 22:48:47</time>
      </trkpt>
      <trkpt lat="41.63372" lon="1.69307">
        <ele>547.4</ele>
        <time>2022-05-20 22:48:48</time>
      </trkpt>
      <trkpt lat="41.63377" lon="1.69312">
        <ele>547.4</ele>
        <time>2022-05-20 22:48:49</time>
      </trkpt>
      <trkpt lat="41.63382" lon="1.69315">
        <ele>547.2</ele>
        <time>2022-05-20 22:48:50</time>
      </trkpt>
      <trkpt lat="41.63388" lon="1.69318">
        <ele>547.2</ele>
        <time>2022-05-20 22:48:51</time>
      </trkpt>
      <trkpt lat="41.63394" lon="1.6932">
        <ele>547</ele>
        <time>2022-05-20 22:48:52</time>
      </trkpt>
      <trkpt lat="41.634" lon="1.69323">
        <ele>547</ele>
        <time>2022-05-20 22:48:53</time>
      </trkpt>
      <trkpt lat="41.63406" lon="1.69327">
        <ele>546.8</ele>
        <time>2022-05-20 22:48:54</time>
      </trkpt>
      <trkpt lat="41.63412" lon="1.69332">
        <ele>546.6</ele>
        <time>2022-05-20 22:48:55</time>
      </trkpt>
      <trkpt lat="41.63417" lon="1.69337">
        <ele>546.6</ele>
        <time>2022-05-20 22:48:56</time>
      </trkpt>
      <trkpt lat="41.63422" lon="1.69343">
        <ele>546.4</ele>
        <time>2022-05-20 22:48:57</time>
      </trkpt>
      <trkpt lat="41.63428" lon="1.69349">
        <ele>546.2</ele>
        <time>2022-05-20 22:48:58</time>
      </trkpt>
      <trkpt lat="41.63434" lon="1.69354">
        <ele>546</ele>
        <time>2022-05-20 22:48:59</time>
      </trkpt>
      <trkpt lat="41.63439" lon="1.6936">
        <ele>545.8</ele>
        <time>2022-05-20 22:49:00</time>
      </trkpt>
      <trkpt lat="41.63445" lon="1.69366">
        <ele>545.6</ele>
        <time>2022-05-20 22:49:01</time>
      </trkpt>
      <trkpt lat="41.6345" lon="1.69373">
        <ele>545.4</ele>
        <time>2022-05-20 22:49:02</time>
      </trkpt>
      <trkpt lat="41.63455" lon="1.6938">
        <ele>545.2</ele>
        <time>2022-05-20 22:49:03</time>
      </trkpt>
      <trkpt lat="41.63459" lon="1.69388">
        <ele>545</ele>
        <time>2022-05-20 22:49:04</time>
      </trkpt>
      <trkpt lat="41.63461" lon="1.69396">
        <ele>545</ele>
        <time>2022-05-20 22:49:05</time>
      </trkpt>
      <trkpt lat="41.63461" lon="1.69406">
        <ele>544.6</ele>
        <time>2022-05-20 22:49:06</time>
      </trkpt>
      <trkpt lat="41.63457" lon="1.69415">
        <ele>544.4</ele>
        <time>2022-05-20 22:49:07</time>
      </trkpt>
      <trkpt lat="41.63452" lon="1.69423">
        <ele>544</ele>
        <time>2022-05-20 22:49:08</time>
      </trkpt>
      <trkpt lat="41.63446" lon="1.69431">
        <ele>543.8</ele>
        <time>2022-05-20 22:49:09</time>
      </trkpt>
      <trkpt lat="41.63441" lon="1.69438">
        <ele>543.6</ele>
        <time>2022-05-20 22:49:10</time>
      </trkpt>
      <trkpt lat="41.63436" lon="1.69445">
        <ele>543.8</ele>
        <time>2022-05-20 22:49:11</time>
      </trkpt>
      <trkpt lat="41.63432" lon="1.69452">
        <ele>543.8</ele>
        <time>2022-05-20 22:49:12</time>
      </trkpt>
      <trkpt lat="41.63429" lon="1.69459">
        <ele>544</ele>
        <time>2022-05-20 22:49:13</time>
      </trkpt>
      <trkpt lat="41.63426" lon="1.69466">
        <ele>544.4</ele>
        <time>2022-05-20 22:49:14</time>
      </trkpt>
      <trkpt lat="41.63424" lon="1.69474">
        <ele>544.6</ele>
        <time>2022-05-20 22:49:15</time>
      </trkpt>
      <trkpt lat="41.63423" lon="1.69482">
        <ele>545</ele>
        <time>2022-05-20 22:49:16</time>
      </trkpt>
      <trkpt lat="41.63422" lon="1.6949">
        <ele>545.2</ele>
        <time>2022-05-20 22:49:17</time>
      </trkpt>
      <trkpt lat="41.63422" lon="1.69498">
        <ele>545.4</ele>
        <time>2022-05-20 22:49:18</time>
      </trkpt>
      <trkpt lat="41.63422" lon="1.69505">
        <ele>545.6</ele>
        <time>2022-05-20 22:49:19</time>
      </trkpt>
      <trkpt lat="41.63421" lon="1.69512">
        <ele>545.8</ele>
        <time>2022-05-20 22:49:20</time>
      </trkpt>
      <trkpt lat="41.63421" lon="1.6952">
        <ele>546</ele>
        <time>2022-05-20 22:49:21</time>
      </trkpt>
      <trkpt lat="41.63421" lon="1.69527">
        <ele>546</ele>
        <time>2022-05-20 22:49:22</time>
      </trkpt>
      <trkpt lat="41.63421" lon="1.69535">
        <ele>546.2</ele>
        <time>2022-05-20 22:49:23</time>
      </trkpt>
      <trkpt lat="41.6342" lon="1.69543">
        <ele>546.4</ele>
        <time>2022-05-20 22:49:24</time>
      </trkpt>
      <trkpt lat="41.6342" lon="1.69551">
        <ele>546.4</ele>
        <time>2022-05-20 22:49:25</time>
      </trkpt>
      <trkpt lat="41.6342" lon="1.69559">
        <ele>546.6</ele>
        <time>2022-05-20 22:49:26</time>
      </trkpt>
      <trkpt lat="41.6342" lon="1.69566">
        <ele>546.8</ele>
        <time>2022-05-20 22:49:27</time>
      </trkpt>
      <trkpt lat="41.63422" lon="1.69574">
        <ele>546.8</ele>
        <time>2022-05-20 22:49:28</time>
      </trkpt>
      <trkpt lat="41.63424" lon="1.69582">
        <ele>547</ele>
        <time>2022-05-20 22:49:29</time>
      </trkpt>
      <trkpt lat="41.63427" lon="1.69589">
        <ele>547</ele>
        <time>2022-05-20 22:49:30</time>
      </trkpt>
      <trkpt lat="41.63432" lon="1.69595">
        <ele>547.2</ele>
        <time>2022-05-20 22:49:31</time>
      </trkpt>
      <trkpt lat="41.63437" lon="1.696">
        <ele>547.2</ele>
        <time>2022-05-20 22:49:32</time>
      </trkpt>
      <trkpt lat="41.63441" lon="1.69605">
        <ele>547.4</ele>
        <time>2022-05-20 22:49:33</time>
      </trkpt>
      <trkpt lat="41.63446" lon="1.69608">
        <ele>547.6</ele>
        <time>2022-05-20 22:49:34</time>
      </trkpt>
      <trkpt lat="41.63451" lon="1.69611">
        <ele>547.6</ele>
        <time>2022-05-20 22:49:35</time>
      </trkpt>
      <trkpt lat="41.63456" lon="1.69614">
        <ele>547.6</ele>
        <time>2022-05-20 22:49:36</time>
      </trkpt>
      <trkpt lat="41.63461" lon="1.69616">
        <ele>547.6</ele>
        <time>2022-05-20 22:49:37</time>
      </trkpt>
      <trkpt lat="41.63467" lon="1.69618">
        <ele>547.2</ele>
        <time>2022-05-20 22:49:38</time>
      </trkpt>
      <trkpt lat="41.63474" lon="1.69619">
        <ele>547</ele>
        <time>2022-05-20 22:49:39</time>
      </trkpt>
      <trkpt lat="41.63482" lon="1.6962">
        <ele>546.4</ele>
        <time>2022-05-20 22:49:40</time>
      </trkpt>
      <trkpt lat="41.63489" lon="1.6962">
        <ele>546</ele>
        <time>2022-05-20 22:49:41</time>
      </trkpt>
      <trkpt lat="41.63496" lon="1.69619">
        <ele>545.6</ele>
        <time>2022-05-20 22:49:42</time>
      </trkpt>
      <trkpt lat="41.63505" lon="1.69618">
        <ele>545</ele>
        <time>2022-05-20 22:49:43</time>
      </trkpt>
      <trkpt lat="41.63513" lon="1.69615">
        <ele>544.6</ele>
        <time>2022-05-20 22:49:44</time>
      </trkpt>
      <trkpt lat="41.63521" lon="1.69611">
        <ele>544</ele>
        <time>2022-05-20 22:49:45</time>
      </trkpt>
      <trkpt lat="41.63529" lon="1.69605">
        <ele>543.4</ele>
        <time>2022-05-20 22:49:46</time>
      </trkpt>
      <trkpt lat="41.63538" lon="1.69598">
        <ele>542.6</ele>
        <time>2022-05-20 22:49:47</time>
      </trkpt>
      <trkpt lat="41.63546" lon="1.6959">
        <ele>542</ele>
        <time>2022-05-20 22:49:48</time>
      </trkpt>
      <trkpt lat="41.63554" lon="1.69583">
        <ele>541.2</ele>
        <time>2022-05-20 22:49:49</time>
      </trkpt>
      <trkpt lat="41.63563" lon="1.69577">
        <ele>540.6</ele>
        <time>2022-05-20 22:49:50</time>
      </trkpt>
      <trkpt lat="41.63573" lon="1.69573">
        <ele>540</ele>
        <time>2022-05-20 22:49:51</time>
      </trkpt>
      <trkpt lat="41.63582" lon="1.69572">
        <ele>539.4</ele>
        <time>2022-05-20 22:49:52</time>
      </trkpt>
      <trkpt lat="41.63592" lon="1.69572">
        <ele>538.8</ele>
        <time>2022-05-20 22:49:53</time>
      </trkpt>
      <trkpt lat="41.63602" lon="1.69573">
        <ele>538.2</ele>
        <time>2022-05-20 22:49:54</time>
      </trkpt>
      <trkpt lat="41.63613" lon="1.69573">
        <ele>537.6</ele>
        <time>2022-05-20 22:49:55</time>
      </trkpt>
      <trkpt lat="41.63623" lon="1.69572">
        <ele>536.8</ele>
        <time>2022-05-20 22:49:56</time>
      </trkpt>
      <trkpt lat="41.63632" lon="1.69569">
        <ele>536.2</ele>
        <time>2022-05-20 22:49:57</time>
      </trkpt>
      <trkpt lat="41.63639" lon="1.69563">
        <ele>535.6</ele>
        <time>2022-05-20 22:49:58</time>
      </trkpt>
      <trkpt lat="41.63646" lon="1.69555">
        <ele>535.2</ele>
        <time>2022-05-20 22:49:59</time>
      </trkpt>
      <trkpt lat="41.63652" lon="1.69547">
        <ele>535</ele>
        <time>2022-05-20 22:50:00</time>
      </trkpt>
      <trkpt lat="41.63657" lon="1.69539">
        <ele>534.6</ele>
        <time>2022-05-20 22:50:01</time>
      </trkpt>
      <trkpt lat="41.63662" lon="1.69531">
        <ele>534.6</ele>
        <time>2022-05-20 22:50:02</time>
      </trkpt>
      <trkpt lat="41.63667" lon="1.69524">
        <ele>534.4</ele>
        <time>2022-05-20 22:50:03</time>
      </trkpt>
      <trkpt lat="41.63673" lon="1.69518">
        <ele>534.6</ele>
        <time>2022-05-20 22:50:04</time>
      </trkpt>
      <trkpt lat="41.6368" lon="1.69513">
        <ele>534.6</ele>
        <time>2022-05-20 22:50:05</time>
      </trkpt>
      <trkpt lat="41.63685" lon="1.69508">
        <ele>534.8</ele>
        <time>2022-05-20 22:50:06</time>
      </trkpt>
      <trkpt lat="41.63691" lon="1.69503">
        <ele>535</ele>
        <time>2022-05-20 22:50:07</time>
      </trkpt>
      <trkpt lat="41.63696" lon="1.69499">
        <ele>535.2</ele>
        <time>2022-05-20 22:50:08</time>
      </trkpt>
      <trkpt lat="41.63701" lon="1.69495">
        <ele>535.2</ele>
        <time>2022-05-20 22:50:09</time>
      </trkpt>
      <trkpt lat="41.63707" lon="1.69491">
        <ele>535.4</ele>
        <time>2022-05-20 22:50:10</time>
      </trkpt>
      <trkpt lat="41.63713" lon="1.69488">
        <ele>535.4</ele>
        <time>2022-05-20 22:50:11</time>
      </trkpt>
      <trkpt lat="41.63719" lon="1.69486">
        <ele>535.6</ele>
        <time>2022-05-20 22:50:12</time>
      </trkpt>
      <trkpt lat="41.63725" lon="1.69487">
        <ele>535.4</ele>
        <time>2022-05-20 22:50:13</time>
      </trkpt>
      <trkpt lat="41.63732" lon="1.69489">
        <ele>535.4</ele>
        <time>2022-05-20 22:50:14</time>
      </trkpt>
      <trkpt lat="41.63739" lon="1.69493">
        <ele>535.4</ele>
        <time>2022-05-20 22:50:15</time>
      </trkpt>
      <trkpt lat="41.63745" lon="1.69498">
        <ele>535.2</ele>
        <time>2022-05-20 22:50:16</time>
      </trkpt>
      <trkpt lat="41.63753" lon="1.69504">
        <ele>534.8</ele>
        <time>2022-05-20 22:50:17</time>
      </trkpt>
      <trkpt lat="41.6376" lon="1.69509">
        <ele>534.6</ele>
        <time>2022-05-20 22:50:18</time>
      </trkpt>
      <trkpt lat="41.63768" lon="1.69515">
        <ele>534</ele>
        <time>2022-05-20 22:50:19</time>
      </trkpt>
      <trkpt lat="41.63775" lon="1.69521">
        <ele>533.6</ele>
        <time>2022-05-20 22:50:20</time>
      </trkpt>
      <trkpt lat="41.63783" lon="1.69527">
        <ele>533.2</ele>
        <time>2022-05-20 22:50:21</time>
      </trkpt>
      <trkpt lat="41.63791" lon="1.69533">
        <ele>532.8</ele>
        <time>2022-05-20 22:50:22</time>
      </trkpt>
      <trkpt lat="41.63799" lon="1.69539">
        <ele>532.2</ele>
        <time>2022-05-20 22:50:23</time>
      </trkpt>
      <trkpt lat="41.63808" lon="1.69545">
        <ele>531.6</ele>
        <time>2022-05-20 22:50:24</time>
      </trkpt>
      <trkpt lat="41.63817" lon="1.6955">
        <ele>531.2</ele>
        <time>2022-05-20 22:50:25</time>
      </trkpt>
      <trkpt lat="41.63826" lon="1.69554">
        <ele>530.6</ele>
        <time>2022-05-20 22:50:26</time>
      </trkpt>
      <trkpt lat="41.63834" lon="1.69558">
        <ele>530</ele>
        <time>2022-05-20 22:50:27</time>
      </trkpt>
      <trkpt lat="41.63841" lon="1.69561">
        <ele>529.4</ele>
        <time>2022-05-20 22:50:28</time>
      </trkpt>
      <trkpt lat="41.63849" lon="1.69562">
        <ele>528.8</ele>
        <time>2022-05-20 22:50:29</time>
      </trkpt>
      <trkpt lat="41.63857" lon="1.69561">
        <ele>528.4</ele>
        <time>2022-05-20 22:50:30</time>
      </trkpt>
      <trkpt lat="41.63863" lon="1.69558">
        <ele>528</ele>
        <time>2022-05-20 22:50:31</time>
      </trkpt>
      <trkpt lat="41.63868" lon="1.69553">
        <ele>527.4</ele>
        <time>2022-05-20 22:50:32</time>
      </trkpt>
      <trkpt lat="41.63872" lon="1.69546">
        <ele>526.8</ele>
        <time>2022-05-20 22:50:33</time>
      </trkpt>
      <trkpt lat="41.63875" lon="1.69538">
        <ele>526.4</ele>
        <time>2022-05-20 22:50:34</time>
      </trkpt>
      <trkpt lat="41.63879" lon="1.69528">
        <ele>525.8</ele>
        <time>2022-05-20 22:50:35</time>
      </trkpt>
      <trkpt lat="41.63885" lon="1.69519">
        <ele>525.2</ele>
        <time>2022-05-20 22:50:36</time>
      </trkpt>
      <trkpt lat="41.63891" lon="1.69511">
        <ele>524.4</ele>
        <time>2022-05-20 22:50:37</time>
      </trkpt>
      <trkpt lat="41.63898" lon="1.69505">
        <ele>523.8</ele>
        <time>2022-05-20 22:50:38</time>
      </trkpt>
      <trkpt lat="41.63907" lon="1.69501">
        <ele>523.2</ele>
        <time>2022-05-20 22:50:39</time>
      </trkpt>
      <trkpt lat="41.63915" lon="1.69501">
        <ele>522.8</ele>
        <time>2022-05-20 22:50:40</time>
      </trkpt>
      <trkpt lat="41.63923" lon="1.69503">
        <ele>522.4</ele>
        <time>2022-05-20 22:50:41</time>
      </trkpt>
      <trkpt lat="41.63931" lon="1.69508">
        <ele>522</ele>
        <time>2022-05-20 22:50:42</time>
      </trkpt>
      <trkpt lat="41.63938" lon="1.69514">
        <ele>521.6</ele>
        <time>2022-05-20 22:50:43</time>
      </trkpt>
      <trkpt lat="41.63945" lon="1.69521">
        <ele>521.2</ele>
        <time>2022-05-20 22:50:44</time>
      </trkpt>
      <trkpt lat="41.63952" lon="1.69529">
        <ele>520.6</ele>
        <time>2022-05-20 22:50:45</time>
      </trkpt>
      <trkpt lat="41.63958" lon="1.69538">
        <ele>520.2</ele>
        <time>2022-05-20 22:50:46</time>
      </trkpt>
      <trkpt lat="41.63963" lon="1.69549">
        <ele>519.8</ele>
        <time>2022-05-20 22:50:47</time>
      </trkpt>
      <trkpt lat="41.63967" lon="1.69561">
        <ele>519.6</ele>
        <time>2022-05-20 22:50:48</time>
      </trkpt>
      <trkpt lat="41.63968" lon="1.69574">
        <ele>519.4</ele>
        <time>2022-05-20 22:50:49</time>
      </trkpt>
      <trkpt lat="41.63969" lon="1.69586">
        <ele>519.2</ele>
        <time>2022-05-20 22:50:50</time>
      </trkpt>
      <trkpt lat="41.63968" lon="1.69598">
        <ele>519</ele>
        <time>2022-05-20 22:50:51</time>
      </trkpt>
      <trkpt lat="41.63968" lon="1.6961">
        <ele>519</ele>
        <time>2022-05-20 22:50:52</time>
      </trkpt>
      <trkpt lat="41.63968" lon="1.69621">
        <ele>518.8</ele>
        <time>2022-05-20 22:50:53</time>
      </trkpt>
      <trkpt lat="41.63969" lon="1.69632">
        <ele>518.8</ele>
        <time>2022-05-20 22:50:54</time>
      </trkpt>
      <trkpt lat="41.63971" lon="1.69644">
        <ele>518.8</ele>
        <time>2022-05-20 22:50:55</time>
      </trkpt>
      <trkpt lat="41.63974" lon="1.69653">
        <ele>518.8</ele>
        <time>2022-05-20 22:50:56</time>
      </trkpt>
      <trkpt lat="41.63979" lon="1.69662">
        <ele>518.8</ele>
        <time>2022-05-20 22:50:57</time>
      </trkpt>
      <trkpt lat="41.63983" lon="1.69671">
        <ele>518.6</ele>
        <time>2022-05-20 22:50:58</time>
      </trkpt>
      <trkpt lat="41.63988" lon="1.69682">
        <ele>518.6</ele>
        <time>2022-05-20 22:50:59</time>
      </trkpt>
      <trkpt lat="41.63993" lon="1.6969">
        <ele>518.4</ele>
        <time>2022-05-20 22:51:00</time>
      </trkpt>
      <trkpt lat="41.63999" lon="1.69698">
        <ele>518.4</ele>
        <time>2022-05-20 22:51:01</time>
      </trkpt>
      <trkpt lat="41.64005" lon="1.69704">
        <ele>518.2</ele>
        <time>2022-05-20 22:51:02</time>
      </trkpt>
      <trkpt lat="41.64011" lon="1.69708">
        <ele>518.2</ele>
        <time>2022-05-20 22:51:03</time>
      </trkpt>
      <trkpt lat="41.64017" lon="1.69709">
        <ele>518</ele>
        <time>2022-05-20 22:51:04</time>
      </trkpt>
      <trkpt lat="41.64022" lon="1.69706">
        <ele>517.8</ele>
        <time>2022-05-20 22:51:05</time>
      </trkpt>
      <trkpt lat="41.64027" lon="1.69701">
        <ele>517.6</ele>
        <time>2022-05-20 22:51:06</time>
      </trkpt>
      <trkpt lat="41.64032" lon="1.69694">
        <ele>517.2</ele>
        <time>2022-05-20 22:51:07</time>
      </trkpt>
      <trkpt lat="41.64038" lon="1.69688">
        <ele>516.8</ele>
        <time>2022-05-20 22:51:08</time>
      </trkpt>
      <trkpt lat="41.64044" lon="1.69683">
        <ele>516.2</ele>
        <time>2022-05-20 22:51:09</time>
      </trkpt>
      <trkpt lat="41.6405" lon="1.69681">
        <ele>515.6</ele>
        <time>2022-05-20 22:51:10</time>
      </trkpt>
      <trkpt lat="41.64056" lon="1.69682">
        <ele>515</ele>
        <time>2022-05-20 22:51:11</time>
      </trkpt>
      <trkpt lat="41.64063" lon="1.69686">
        <ele>514.4</ele>
        <time>2022-05-20 22:51:12</time>
      </trkpt>
      <trkpt lat="41.6407" lon="1.69692">
        <ele>513.8</ele>
        <time>2022-05-20 22:51:13</time>
      </trkpt>
      <trkpt lat="41.64077" lon="1.697">
        <ele>513.2</ele>
        <time>2022-05-20 22:51:14</time>
      </trkpt>
      <trkpt lat="41.64084" lon="1.69708">
        <ele>512.6</ele>
        <time>2022-05-20 22:51:15</time>
      </trkpt>
      <trkpt lat="41.6409" lon="1.69718">
        <ele>512</ele>
        <time>2022-05-20 22:51:16</time>
      </trkpt>
      <trkpt lat="41.64095" lon="1.69728">
        <ele>511.6</ele>
        <time>2022-05-20 22:51:17</time>
      </trkpt>
      <trkpt lat="41.64098" lon="1.6974">
        <ele>511.2</ele>
        <time>2022-05-20 22:51:18</time>
      </trkpt>
      <trkpt lat="41.641" lon="1.69752">
        <ele>511</ele>
        <time>2022-05-20 22:51:19</time>
      </trkpt>
      <trkpt lat="41.64101" lon="1.69765">
        <ele>510.6</ele>
        <time>2022-05-20 22:51:20</time>
      </trkpt>
      <trkpt lat="41.64103" lon="1.69777">
        <ele>510.2</ele>
        <time>2022-05-20 22:51:21</time>
      </trkpt>
      <trkpt lat="41.64106" lon="1.69789">
        <ele>509.8</ele>
        <time>2022-05-20 22:51:22</time>
      </trkpt>
      <trkpt lat="41.64109" lon="1.698">
        <ele>509.6</ele>
        <time>2022-05-20 22:51:23</time>
      </trkpt>
      <trkpt lat="41.64112" lon="1.69811">
        <ele>509.4</ele>
        <time>2022-05-20 22:51:24</time>
      </trkpt>
      <trkpt lat="41.64116" lon="1.69822">
        <ele>509.2</ele>
        <time>2022-05-20 22:51:25</time>
      </trkpt>
      <trkpt lat="41.64118" lon="1.69832">
        <ele>509</ele>
        <time>2022-05-20 22:51:26</time>
      </trkpt>
      <trkpt lat="41.64119" lon="1.69843">
        <ele>509</ele>
        <time>2022-05-20 22:51:27</time>
      </trkpt>
      <trkpt lat="41.64119" lon="1.69854">
        <ele>509.4</ele>
        <time>2022-05-20 22:51:28</time>
      </trkpt>
      <trkpt lat="41.64117" lon="1.69863">
        <ele>509.8</ele>
        <time>2022-05-20 22:51:29</time>
      </trkpt>
      <trkpt lat="41.64115" lon="1.69871">
        <ele>510.2</ele>
        <time>2022-05-20 22:51:30</time>
      </trkpt>
      <trkpt lat="41.64112" lon="1.69878">
        <ele>510.6</ele>
        <time>2022-05-20 22:51:31</time>
      </trkpt>
      <trkpt lat="41.64109" lon="1.69885">
        <ele>511</ele>
        <time>2022-05-20 22:51:32</time>
      </trkpt>
      <trkpt lat="41.64106" lon="1.69891">
        <ele>511.4</ele>
        <time>2022-05-20 22:51:33</time>
      </trkpt>
      <trkpt lat="41.64104" lon="1.69897">
        <ele>511.8</ele>
        <time>2022-05-20 22:51:34</time>
      </trkpt>
      <trkpt lat="41.64101" lon="1.69904">
        <ele>512.2</ele>
        <time>2022-05-20 22:51:35</time>
      </trkpt>
      <trkpt lat="41.64099" lon="1.69909">
        <ele>512.6</ele>
        <time>2022-05-20 22:51:36</time>
      </trkpt>
      <trkpt lat="41.64097" lon="1.69915">
        <ele>512.8</ele>
        <time>2022-05-20 22:51:37</time>
      </trkpt>
      <trkpt lat="41.64095" lon="1.69921">
        <ele>513.2</ele>
        <time>2022-05-20 22:51:38</time>
      </trkpt>
      <trkpt lat="41.64093" lon="1.69927">
        <ele>513.4</ele>
        <time>2022-05-20 22:51:39</time>
      </trkpt>
      <trkpt lat="41.64091" lon="1.69932">
        <ele>513.8</ele>
        <time>2022-05-20 22:51:40</time>
      </trkpt>
      <trkpt lat="41.64089" lon="1.69938">
        <ele>514</ele>
        <time>2022-05-20 22:51:41</time>
      </trkpt>
      <trkpt lat="41.64087" lon="1.69943">
        <ele>514.4</ele>
        <time>2022-05-20 22:51:42</time>
      </trkpt>
      <trkpt lat="41.64086" lon="1.69949">
        <ele>514.6</ele>
        <time>2022-05-20 22:51:43</time>
      </trkpt>
      <trkpt lat="41.64085" lon="1.69954">
        <ele>514.8</ele>
        <time>2022-05-20 22:51:44</time>
      </trkpt>
      <trkpt lat="41.64084" lon="1.69961">
        <ele>515</ele>
        <time>2022-05-20 22:51:45</time>
      </trkpt>
      <trkpt lat="41.64083" lon="1.69967">
        <ele>515.2</ele>
        <time>2022-05-20 22:51:46</time>
      </trkpt>
      <trkpt lat="41.64083" lon="1.69974">
        <ele>515.4</ele>
        <time>2022-05-20 22:51:47</time>
      </trkpt>
      <trkpt lat="41.64084" lon="1.69981">
        <ele>515.6</ele>
        <time>2022-05-20 22:51:48</time>
      </trkpt>
      <trkpt lat="41.64085" lon="1.69987">
        <ele>515.6</ele>
        <time>2022-05-20 22:51:49</time>
      </trkpt>
      <trkpt lat="41.64085" lon="1.69994">
        <ele>515.8</ele>
        <time>2022-05-20 22:51:50</time>
      </trkpt>
      <trkpt lat="41.64086" lon="1.70001">
        <ele>515.8</ele>
        <time>2022-05-20 22:51:51</time>
      </trkpt>
      <trkpt lat="41.64087" lon="1.70008">
        <ele>516</ele>
        <time>2022-05-20 22:51:52</time>
      </trkpt>
      <trkpt lat="41.64088" lon="1.70015">
        <ele>516</ele>
        <time>2022-05-20 22:51:53</time>
      </trkpt>
      <trkpt lat="41.64089" lon="1.70021">
        <ele>516.2</ele>
        <time>2022-05-20 22:51:54</time>
      </trkpt>
      <trkpt lat="41.6409" lon="1.70027">
        <ele>516.4</ele>
        <time>2022-05-20 22:51:55</time>
      </trkpt>
      <trkpt lat="41.64091" lon="1.70035">
        <ele>516.4</ele>
        <time>2022-05-20 22:51:56</time>
      </trkpt>
      <trkpt lat="41.64092" lon="1.70042">
        <ele>516.6</ele>
        <time>2022-05-20 22:51:57</time>
      </trkpt>
      <trkpt lat="41.64093" lon="1.70048">
        <ele>516.8</ele>
        <time>2022-05-20 22:51:58</time>
      </trkpt>
      <trkpt lat="41.64095" lon="1.70055">
        <ele>516.8</ele>
        <time>2022-05-20 22:51:59</time>
      </trkpt>
      <trkpt lat="41.64096" lon="1.70062">
        <ele>517</ele>
        <time>2022-05-20 22:52:00</time>
      </trkpt>
      <trkpt lat="41.64097" lon="1.70068">
        <ele>517.2</ele>
        <time>2022-05-20 22:52:01</time>
      </trkpt>
      <trkpt lat="41.64099" lon="1.70075">
        <ele>517.2</ele>
        <time>2022-05-20 22:52:02</time>
      </trkpt>
      <trkpt lat="41.641" lon="1.70081">
        <ele>517.4</ele>
        <time>2022-05-20 22:52:03</time>
      </trkpt>
      <trkpt lat="41.64102" lon="1.70088">
        <ele>517.4</ele>
        <time>2022-05-20 22:52:04</time>
      </trkpt>
      <trkpt lat="41.64103" lon="1.70095">
        <ele>517.6</ele>
        <time>2022-05-20 22:52:05</time>
      </trkpt>
      <trkpt lat="41.64105" lon="1.70101">
        <ele>517.8</ele>
        <time>2022-05-20 22:52:06</time>
      </trkpt>
      <trkpt lat="41.64106" lon="1.70108">
        <ele>517.8</ele>
        <time>2022-05-20 22:52:07</time>
      </trkpt>
      <trkpt lat="41.64108" lon="1.70115">
        <ele>517.8</ele>
        <time>2022-05-20 22:52:08</time>
      </trkpt>
      <trkpt lat="41.64111" lon="1.70121">
        <ele>518</ele>
        <time>2022-05-20 22:52:09</time>
      </trkpt>
      <trkpt lat="41.64113" lon="1.70128">
        <ele>518</ele>
        <time>2022-05-20 22:52:10</time>
      </trkpt>
      <trkpt lat="41.64115" lon="1.70135">
        <ele>518</ele>
        <time>2022-05-20 22:52:11</time>
      </trkpt>
      <trkpt lat="41.64118" lon="1.70142">
        <ele>518</ele>
        <time>2022-05-20 22:52:12</time>
      </trkpt>
      <trkpt lat="41.64121" lon="1.70149">
        <ele>518</ele>
        <time>2022-05-20 22:52:13</time>
      </trkpt>
      <trkpt lat="41.64124" lon="1.70156">
        <ele>518</ele>
        <time>2022-05-20 22:52:14</time>
      </trkpt>
      <trkpt lat="41.64128" lon="1.70163">
        <ele>517.8</ele>
        <time>2022-05-20 22:52:15</time>
      </trkpt>
      <trkpt lat="41.64131" lon="1.70169">
        <ele>517.8</ele>
        <time>2022-05-20 22:52:16</time>
      </trkpt>
      <trkpt lat="41.64135" lon="1.70176">
        <ele>517.8</ele>
        <time>2022-05-20 22:52:17</time>
      </trkpt>
      <trkpt lat="41.6414" lon="1.70182">
        <ele>517.6</ele>
        <time>2022-05-20 22:52:18</time>
      </trkpt>
      <trkpt lat="41.64145" lon="1.70188">
        <ele>517.2</ele>
        <time>2022-05-20 22:52:19</time>
      </trkpt>
      <trkpt lat="41.64149" lon="1.70195">
        <ele>517</ele>
        <time>2022-05-20 22:52:20</time>
      </trkpt>
      <trkpt lat="41.64155" lon="1.70202">
        <ele>516.6</ele>
        <time>2022-05-20 22:52:21</time>
      </trkpt>
      <trkpt lat="41.64161" lon="1.70208">
        <ele>516.2</ele>
        <time>2022-05-20 22:52:22</time>
      </trkpt>
      <trkpt lat="41.64167" lon="1.70214">
        <ele>515.8</ele>
        <time>2022-05-20 22:52:23</time>
      </trkpt>
      <trkpt lat="41.64174" lon="1.70218">
        <ele>515.2</ele>
        <time>2022-05-20 22:52:24</time>
      </trkpt>
      <trkpt lat="41.64182" lon="1.70222">
        <ele>514.8</ele>
        <time>2022-05-20 22:52:25</time>
      </trkpt>
      <trkpt lat="41.6419" lon="1.70226">
        <ele>514.4</ele>
        <time>2022-05-20 22:52:26</time>
      </trkpt>
      <trkpt lat="41.64198" lon="1.7023">
        <ele>514</ele>
        <time>2022-05-20 22:52:27</time>
      </trkpt>
      <trkpt lat="41.64205" lon="1.70234">
        <ele>513.8</ele>
        <time>2022-05-20 22:52:28</time>
      </trkpt>
      <trkpt lat="41.64212" lon="1.70239">
        <ele>513.8</ele>
        <time>2022-05-20 22:52:29</time>
      </trkpt>
      <trkpt lat="41.64219" lon="1.70244">
        <ele>513.8</ele>
        <time>2022-05-20 22:52:30</time>
      </trkpt>
      <trkpt lat="41.64225" lon="1.70249">
        <ele>513.8</ele>
        <time>2022-05-20 22:52:31</time>
      </trkpt>
      <trkpt lat="41.64231" lon="1.70254">
        <ele>514</ele>
        <time>2022-05-20 22:52:32</time>
      </trkpt>
      <trkpt lat="41.64236" lon="1.7026">
        <ele>514.2</ele>
        <time>2022-05-20 22:52:33</time>
      </trkpt>
      <trkpt lat="41.64241" lon="1.70265">
        <ele>514.4</ele>
        <time>2022-05-20 22:52:34</time>
      </trkpt>
      <trkpt lat="41.64246" lon="1.7027">
        <ele>514.6</ele>
        <time>2022-05-20 22:52:35</time>
      </trkpt>
      <trkpt lat="41.64251" lon="1.70275">
        <ele>514.8</ele>
        <time>2022-05-20 22:52:36</time>
      </trkpt>
      <trkpt lat="41.64257" lon="1.7028">
        <ele>514.8</ele>
        <time>2022-05-20 22:52:37</time>
      </trkpt>
      <trkpt lat="41.64263" lon="1.70284">
        <ele>514.6</ele>
        <time>2022-05-20 22:52:38</time>
      </trkpt>
      <trkpt lat="41.6427" lon="1.70287">
        <ele>514.4</ele>
        <time>2022-05-20 22:52:39</time>
      </trkpt>
      <trkpt lat="41.64277" lon="1.7029">
        <ele>514</ele>
        <time>2022-05-20 22:52:40</time>
      </trkpt>
      <trkpt lat="41.64285" lon="1.70292">
        <ele>513.6</ele>
        <time>2022-05-20 22:52:41</time>
      </trkpt>
      <trkpt lat="41.64293" lon="1.70294">
        <ele>513.2</ele>
        <time>2022-05-20 22:52:42</time>
      </trkpt>
      <trkpt lat="41.64301" lon="1.70294">
        <ele>512.8</ele>
        <time>2022-05-20 22:52:43</time>
      </trkpt>
      <trkpt lat="41.64311" lon="1.70295">
        <ele>512.6</ele>
        <time>2022-05-20 22:52:44</time>
      </trkpt>
      <trkpt lat="41.6432" lon="1.70295">
        <ele>512.2</ele>
        <time>2022-05-20 22:52:45</time>
      </trkpt>
      <trkpt lat="41.64328" lon="1.70295">
        <ele>512</ele>
        <time>2022-05-20 22:52:46</time>
      </trkpt>
      <trkpt lat="41.64336" lon="1.70295">
        <ele>511.8</ele>
        <time>2022-05-20 22:52:47</time>
      </trkpt>
      <trkpt lat="41.64345" lon="1.70294">
        <ele>511.6</ele>
        <time>2022-05-20 22:52:48</time>
      </trkpt>
      <trkpt lat="41.64354" lon="1.70294">
        <ele>511.6</ele>
        <time>2022-05-20 22:52:49</time>
      </trkpt>
      <trkpt lat="41.64362" lon="1.70293">
        <ele>511.4</ele>
        <time>2022-05-20 22:52:50</time>
      </trkpt>
      <trkpt lat="41.6437" lon="1.70291">
        <ele>511.2</ele>
        <time>2022-05-20 22:52:51</time>
      </trkpt>
      <trkpt lat="41.64377" lon="1.70287">
        <ele>511.2</ele>
        <time>2022-05-20 22:52:52</time>
      </trkpt>
      <trkpt lat="41.64384" lon="1.70282">
        <ele>511</ele>
        <time>2022-05-20 22:52:53</time>
      </trkpt>
      <trkpt lat="41.64391" lon="1.70277">
        <ele>510.8</ele>
        <time>2022-05-20 22:52:54</time>
      </trkpt>
      <trkpt lat="41.64398" lon="1.70272">
        <ele>510.4</ele>
        <time>2022-05-20 22:52:55</time>
      </trkpt>
      <trkpt lat="41.64404" lon="1.70265">
        <ele>510</ele>
        <time>2022-05-20 22:52:56</time>
      </trkpt>
      <trkpt lat="41.64408" lon="1.70255">
        <ele>509.4</ele>
        <time>2022-05-20 22:52:57</time>
      </trkpt>
      <trkpt lat="41.64412" lon="1.70245">
        <ele>508.8</ele>
        <time>2022-05-20 22:52:58</time>
      </trkpt>
      <trkpt lat="41.64417" lon="1.70234">
        <ele>508.2</ele>
        <time>2022-05-20 22:52:59</time>
      </trkpt>
      <trkpt lat="41.64421" lon="1.70223">
        <ele>507.4</ele>
        <time>2022-05-20 22:53:00</time>
      </trkpt>
      <trkpt lat="41.64427" lon="1.70213">
        <ele>506.8</ele>
        <time>2022-05-20 22:53:01</time>
      </trkpt>
      <trkpt lat="41.64434" lon="1.70205">
        <ele>506</ele>
        <time>2022-05-20 22:53:02</time>
      </trkpt>
      <trkpt lat="41.64442" lon="1.70198">
        <ele>505.2</ele>
        <time>2022-05-20 22:53:03</time>
      </trkpt>
      <trkpt lat="41.64451" lon="1.70193">
        <ele>504.4</ele>
        <time>2022-05-20 22:53:04</time>
      </trkpt>
      <trkpt lat="41.64461" lon="1.7019">
        <ele>503.6</ele>
        <time>2022-05-20 22:53:05</time>
      </trkpt>
      <trkpt lat="41.64472" lon="1.70188">
        <ele>502.8</ele>
        <time>2022-05-20 22:53:06</time>
      </trkpt>
      <trkpt lat="41.64482" lon="1.70188">
        <ele>502</ele>
        <time>2022-05-20 22:53:07</time>
      </trkpt>
      <trkpt lat="41.64491" lon="1.70187">
        <ele>501.2</ele>
        <time>2022-05-20 22:53:08</time>
      </trkpt>
      <trkpt lat="41.645" lon="1.70188">
        <ele>500.6</ele>
        <time>2022-05-20 22:53:09</time>
      </trkpt>
      <trkpt lat="41.64507" lon="1.70191">
        <ele>500</ele>
        <time>2022-05-20 22:53:10</time>
      </trkpt>
      <trkpt lat="41.64514" lon="1.70196">
        <ele>499.4</ele>
        <time>2022-05-20 22:53:11</time>
      </trkpt>
      <trkpt lat="41.64518" lon="1.70203">
        <ele>499</ele>
        <time>2022-05-20 22:53:12</time>
      </trkpt>
      <trkpt lat="41.6452" lon="1.70212">
        <ele>498.8</ele>
        <time>2022-05-20 22:53:13</time>
      </trkpt>
      <trkpt lat="41.64521" lon="1.7022">
        <ele>498.8</ele>
        <time>2022-05-20 22:53:14</time>
      </trkpt>
      <trkpt lat="41.64521" lon="1.70228">
        <ele>499</ele>
        <time>2022-05-20 22:53:15</time>
      </trkpt>
      <trkpt lat="41.64519" lon="1.70236">
        <ele>499</ele>
        <time>2022-05-20 22:53:16</time>
      </trkpt>
      <trkpt lat="41.64518" lon="1.70245">
        <ele>499.2</ele>
        <time>2022-05-20 22:53:17</time>
      </trkpt>
      <trkpt lat="41.64518" lon="1.70253">
        <ele>499.4</ele>
        <time>2022-05-20 22:53:18</time>
      </trkpt>
      <trkpt lat="41.64518" lon="1.70261">
        <ele>499.6</ele>
        <time>2022-05-20 22:53:19</time>
      </trkpt>
      <trkpt lat="41.64519" lon="1.70269">
        <ele>499.8</ele>
        <time>2022-05-20 22:53:20</time>
      </trkpt>
      <trkpt lat="41.6452" lon="1.70276">
        <ele>500</ele>
        <time>2022-05-20 22:53:21</time>
      </trkpt>
      <trkpt lat="41.64521" lon="1.70284">
        <ele>500.2</ele>
        <time>2022-05-20 22:53:22</time>
      </trkpt>
      <trkpt lat="41.64523" lon="1.70291">
        <ele>500.4</ele>
        <time>2022-05-20 22:53:23</time>
      </trkpt>
      <trkpt lat="41.64524" lon="1.70299">
        <ele>500.6</ele>
        <time>2022-05-20 22:53:24</time>
      </trkpt>
      <trkpt lat="41.64525" lon="1.70307">
        <ele>500.8</ele>
        <time>2022-05-20 22:53:25</time>
      </trkpt>
      <trkpt lat="41.64526" lon="1.70315">
        <ele>501</ele>
        <time>2022-05-20 22:53:26</time>
      </trkpt>
      <trkpt lat="41.64526" lon="1.70323">
        <ele>501.2</ele>
        <time>2022-05-20 22:53:27</time>
      </trkpt>
      <trkpt lat="41.64526" lon="1.70331">
        <ele>501.4</ele>
        <time>2022-05-20 22:53:28</time>
      </trkpt>
      <trkpt lat="41.64526" lon="1.7034">
        <ele>501.6</ele>
        <time>2022-05-20 22:53:29</time>
      </trkpt>
      <trkpt lat="41.64526" lon="1.70348">
        <ele>501.8</ele>
        <time>2022-05-20 22:53:30</time>
      </trkpt>
      <trkpt lat="41.64529" lon="1.70354">
        <ele>501.8</ele>
        <time>2022-05-20 22:53:31</time>
      </trkpt>
      <trkpt lat="41.64535" lon="1.70358">
        <ele>501.8</ele>
        <time>2022-05-20 22:53:32</time>
      </trkpt>
      <trkpt lat="41.64542" lon="1.70361">
        <ele>502</ele>
        <time>2022-05-20 22:53:33</time>
      </trkpt>
      <trkpt lat="41.64548" lon="1.70364">
        <ele>502</ele>
        <time>2022-05-20 22:53:34</time>
      </trkpt>
      <trkpt lat="41.64555" lon="1.70367">
        <ele>502</ele>
        <time>2022-05-20 22:53:35</time>
      </trkpt>
      <trkpt lat="41.64561" lon="1.70372">
        <ele>502</ele>
        <time>2022-05-20 22:53:36</time>
      </trkpt>
      <trkpt lat="41.64567" lon="1.70376">
        <ele>501.8</ele>
        <time>2022-05-20 22:53:37</time>
      </trkpt>
      <trkpt lat="41.64573" lon="1.70382">
        <ele>501.8</ele>
        <time>2022-05-20 22:53:38</time>
      </trkpt>
      <trkpt lat="41.64579" lon="1.70388">
        <ele>501.8</ele>
        <time>2022-05-20 22:53:39</time>
      </trkpt>
      <trkpt lat="41.64585" lon="1.70394">
        <ele>501.6</ele>
        <time>2022-05-20 22:53:40</time>
      </trkpt>
      <trkpt lat="41.6459" lon="1.70399">
        <ele>501.6</ele>
        <time>2022-05-20 22:53:41</time>
      </trkpt>
      <trkpt lat="41.64595" lon="1.70405">
        <ele>501.6</ele>
        <time>2022-05-20 22:53:42</time>
      </trkpt>
      <trkpt lat="41.646" lon="1.7041">
        <ele>501.4</ele>
        <time>2022-05-20 22:53:43</time>
      </trkpt>
      <trkpt lat="41.64603" lon="1.70415">
        <ele>501.4</ele>
        <time>2022-05-20 22:53:44</time>
      </trkpt>
      <trkpt lat="41.64608" lon="1.70419">
        <ele>501.4</ele>
        <time>2022-05-20 22:53:45</time>
      </trkpt>
      <trkpt lat="41.64614" lon="1.70427">
        <ele>501.4</ele>
        <time>2022-05-20 22:53:46</time>
      </trkpt>
      <trkpt lat="41.64618" lon="1.70433">
        <ele>501.2</ele>
        <time>2022-05-20 22:53:47</time>
      </trkpt>
      <trkpt lat="41.64622" lon="1.70439">
        <ele>501.2</ele>
        <time>2022-05-20 22:53:48</time>
      </trkpt>
      <trkpt lat="41.64627" lon="1.70445">
        <ele>501</ele>
        <time>2022-05-20 22:53:49</time>
      </trkpt>
      <trkpt lat="41.64632" lon="1.70451">
        <ele>500.8</ele>
        <time>2022-05-20 22:53:50</time>
      </trkpt>
      <trkpt lat="41.64638" lon="1.70456">
        <ele>500.6</ele>
        <time>2022-05-20 22:53:51</time>
      </trkpt>
      <trkpt lat="41.64644" lon="1.70458">
        <ele>500.4</ele>
        <time>2022-05-20 22:53:52</time>
      </trkpt>
      <trkpt lat="41.6465" lon="1.70457">
        <ele>500</ele>
        <time>2022-05-20 22:53:53</time>
      </trkpt>
      <trkpt lat="41.64655" lon="1.70453">
        <ele>499.8</ele>
        <time>2022-05-20 22:53:54</time>
      </trkpt>
      <trkpt lat="41.6466" lon="1.70447">
        <ele>499.4</ele>
        <time>2022-05-20 22:53:55</time>
      </trkpt>
      <trkpt lat="41.64665" lon="1.70441">
        <ele>499</ele>
        <time>2022-05-20 22:53:56</time>
      </trkpt>
      <trkpt lat="41.64671" lon="1.70435">
        <ele>498.6</ele>
        <time>2022-05-20 22:53:57</time>
      </trkpt>
      <trkpt lat="41.64677" lon="1.70431">
        <ele>498.2</ele>
        <time>2022-05-20 22:53:58</time>
      </trkpt>
      <trkpt lat="41.64684" lon="1.70429">
        <ele>498</ele>
        <time>2022-05-20 22:53:59</time>
      </trkpt>
      <trkpt lat="41.6469" lon="1.70431">
        <ele>497.6</ele>
        <time>2022-05-20 22:54:00</time>
      </trkpt>
      <trkpt lat="41.64697" lon="1.70434">
        <ele>497.2</ele>
        <time>2022-05-20 22:54:01</time>
      </trkpt>
      <trkpt lat="41.64704" lon="1.70438">
        <ele>497</ele>
        <time>2022-05-20 22:54:02</time>
      </trkpt>
      <trkpt lat="41.6471" lon="1.70442">
        <ele>497</ele>
        <time>2022-05-20 22:54:03</time>
      </trkpt>
      <trkpt lat="41.64716" lon="1.70446">
        <ele>497.2</ele>
        <time>2022-05-20 22:54:04</time>
      </trkpt>
      <trkpt lat="41.64721" lon="1.70451">
        <ele>497.4</ele>
        <time>2022-05-20 22:54:05</time>
      </trkpt>
      <trkpt lat="41.64725" lon="1.70456">
        <ele>497.6</ele>
        <time>2022-05-20 22:54:06</time>
      </trkpt>
      <trkpt lat="41.64728" lon="1.70462">
        <ele>498</ele>
        <time>2022-05-20 22:54:07</time>
      </trkpt>
      <trkpt lat="41.6473" lon="1.70468">
        <ele>498.4</ele>
        <time>2022-05-20 22:54:08</time>
      </trkpt>
      <trkpt lat="41.64732" lon="1.70474">
        <ele>498.8</ele>
        <time>2022-05-20 22:54:09</time>
      </trkpt>
      <trkpt lat="41.64734" lon="1.70479">
        <ele>499</ele>
        <time>2022-05-20 22:54:10</time>
      </trkpt>
      <trkpt lat="41.64734" lon="1.70485">
        <ele>499.4</ele>
        <time>2022-05-20 22:54:11</time>
      </trkpt>
      <trkpt lat="41.64735" lon="1.70492">
        <ele>499.8</ele>
        <time>2022-05-20 22:54:12</time>
      </trkpt>
      <trkpt lat="41.64736" lon="1.70498">
        <ele>500.2</ele>
        <time>2022-05-20 22:54:13</time>
      </trkpt>
      <trkpt lat="41.64736" lon="1.70503">
        <ele>500.4</ele>
        <time>2022-05-20 22:54:14</time>
      </trkpt>
      <trkpt lat="41.64735" lon="1.70509">
        <ele>500.8</ele>
        <time>2022-05-20 22:54:15</time>
      </trkpt>
      <trkpt lat="41.64734" lon="1.70514">
        <ele>501</ele>
        <time>2022-05-20 22:54:16</time>
      </trkpt>
      <trkpt lat="41.64733" lon="1.70519">
        <ele>501.2</ele>
        <time>2022-05-20 22:54:17</time>
      </trkpt>
      <trkpt lat="41.64732" lon="1.70524">
        <ele>501.6</ele>
        <time>2022-05-20 22:54:18</time>
      </trkpt>
      <trkpt lat="41.64729" lon="1.7053">
        <ele>501.8</ele>
        <time>2022-05-20 22:54:19</time>
      </trkpt>
      <trkpt lat="41.64727" lon="1.70535">
        <ele>502</ele>
        <time>2022-05-20 22:54:20</time>
      </trkpt>
      <trkpt lat="41.64725" lon="1.70539">
        <ele>502.2</ele>
        <time>2022-05-20 22:54:21</time>
      </trkpt>
      <trkpt lat="41.64723" lon="1.70543">
        <ele>502.4</ele>
        <time>2022-05-20 22:54:22</time>
      </trkpt>
      <trkpt lat="41.64721" lon="1.70548">
        <ele>502.6</ele>
        <time>2022-05-20 22:54:23</time>
      </trkpt>
      <trkpt lat="41.64719" lon="1.70553">
        <ele>503</ele>
        <time>2022-05-20 22:54:24</time>
      </trkpt>
      <trkpt lat="41.64716" lon="1.70558">
        <ele>503.2</ele>
        <time>2022-05-20 22:54:25</time>
      </trkpt>
      <trkpt lat="41.64714" lon="1.70562">
        <ele>503.4</ele>
        <time>2022-05-20 22:54:26</time>
      </trkpt>
      <trkpt lat="41.64711" lon="1.70567">
        <ele>503.6</ele>
        <time>2022-05-20 22:54:27</time>
      </trkpt>
      <trkpt lat="41.64709" lon="1.70571">
        <ele>503.8</ele>
        <time>2022-05-20 22:54:28</time>
      </trkpt>
      <trkpt lat="41.64709" lon="1.70577">
        <ele>503.8</ele>
        <time>2022-05-20 22:54:29</time>
      </trkpt>
      <trkpt lat="41.64708" lon="1.70583">
        <ele>503.8</ele>
        <time>2022-05-20 22:54:30</time>
      </trkpt>
      <trkpt lat="41.64709" lon="1.70591">
        <ele>503.4</ele>
        <time>2022-05-20 22:54:31</time>
      </trkpt>
      <trkpt lat="41.64712" lon="1.70599">
        <ele>503</ele>
        <time>2022-05-20 22:54:32</time>
      </trkpt>
      <trkpt lat="41.64716" lon="1.70608">
        <ele>502.4</ele>
        <time>2022-05-20 22:54:33</time>
      </trkpt>
      <trkpt lat="41.64721" lon="1.70617">
        <ele>501.8</ele>
        <time>2022-05-20 22:54:34</time>
      </trkpt>
      <trkpt lat="41.64727" lon="1.70626">
        <ele>501.2</ele>
        <time>2022-05-20 22:54:35</time>
      </trkpt>
      <trkpt lat="41.64732" lon="1.70635">
        <ele>500.6</ele>
        <time>2022-05-20 22:54:36</time>
      </trkpt>
      <trkpt lat="41.64739" lon="1.70644">
        <ele>500</ele>
        <time>2022-05-20 22:54:37</time>
      </trkpt>
      <trkpt lat="41.64746" lon="1.70652">
        <ele>499.6</ele>
        <time>2022-05-20 22:54:38</time>
      </trkpt>
      <trkpt lat="41.64753" lon="1.7066">
        <ele>499.2</ele>
        <time>2022-05-20 22:54:39</time>
      </trkpt>
      <trkpt lat="41.6476" lon="1.70668">
        <ele>498.8</ele>
        <time>2022-05-20 22:54:40</time>
      </trkpt>
      <trkpt lat="41.64767" lon="1.70676">
        <ele>498.4</ele>
        <time>2022-05-20 22:54:41</time>
      </trkpt>
      <trkpt lat="41.64774" lon="1.70683">
        <ele>498</ele>
        <time>2022-05-20 22:54:42</time>
      </trkpt>
      <trkpt lat="41.64782" lon="1.7069">
        <ele>497.6</ele>
        <time>2022-05-20 22:54:43</time>
      </trkpt>
      <trkpt lat="41.64789" lon="1.70697">
        <ele>497.2</ele>
        <time>2022-05-20 22:54:44</time>
      </trkpt>
      <trkpt lat="41.64797" lon="1.70704">
        <ele>496.8</ele>
        <time>2022-05-20 22:54:45</time>
      </trkpt>
      <trkpt lat="41.64805" lon="1.7071">
        <ele>496.6</ele>
        <time>2022-05-20 22:54:46</time>
      </trkpt>
      <trkpt lat="41.64813" lon="1.70715">
        <ele>496.2</ele>
        <time>2022-05-20 22:54:47</time>
      </trkpt>
      <trkpt lat="41.64821" lon="1.7072">
        <ele>496</ele>
        <time>2022-05-20 22:54:48</time>
      </trkpt>
      <trkpt lat="41.6483" lon="1.70724">
        <ele>495.6</ele>
        <time>2022-05-20 22:54:49</time>
      </trkpt>
      <trkpt lat="41.64838" lon="1.70725">
        <ele>495.4</ele>
        <time>2022-05-20 22:54:50</time>
      </trkpt>
      <trkpt lat="41.64847" lon="1.70725">
        <ele>495</ele>
        <time>2022-05-20 22:54:51</time>
      </trkpt>
      <trkpt lat="41.64856" lon="1.70723">
        <ele>494.6</ele>
        <time>2022-05-20 22:54:52</time>
      </trkpt>
      <trkpt lat="41.64866" lon="1.70721">
        <ele>494.2</ele>
        <time>2022-05-20 22:54:53</time>
      </trkpt>
      <trkpt lat="41.64876" lon="1.70719">
        <ele>493.6</ele>
        <time>2022-05-20 22:54:54</time>
      </trkpt>
      <trkpt lat="41.64886" lon="1.70718">
        <ele>493.2</ele>
        <time>2022-05-20 22:54:55</time>
      </trkpt>
      <trkpt lat="41.64895" lon="1.70717">
        <ele>492.8</ele>
        <time>2022-05-20 22:54:56</time>
      </trkpt>
      <trkpt lat="41.64904" lon="1.70716">
        <ele>492.8</ele>
        <time>2022-05-20 22:54:57</time>
      </trkpt>
      <trkpt lat="41.64912" lon="1.70715">
        <ele>493</ele>
        <time>2022-05-20 22:54:58</time>
      </trkpt>
      <trkpt lat="41.6492" lon="1.70714">
        <ele>493.4</ele>
        <time>2022-05-20 22:54:59</time>
      </trkpt>
      <trkpt lat="41.64926" lon="1.70714">
        <ele>493.8</ele>
        <time>2022-05-20 22:55:00</time>
      </trkpt>
      <trkpt lat="41.64931" lon="1.70713">
        <ele>494.2</ele>
        <time>2022-05-20 22:55:01</time>
      </trkpt>
      <trkpt lat="41.6494" lon="1.70713">
        <ele>494.8</ele>
        <time>2022-05-20 22:55:02</time>
      </trkpt>
      <trkpt lat="41.64946" lon="1.70713">
        <ele>495.2</ele>
        <time>2022-05-20 22:55:03</time>
      </trkpt>
      <trkpt lat="41.64952" lon="1.70713">
        <ele>495.6</ele>
        <time>2022-05-20 22:55:04</time>
      </trkpt>
      <trkpt lat="41.64957" lon="1.70715">
        <ele>495.8</ele>
        <time>2022-05-20 22:55:05</time>
      </trkpt>
      <trkpt lat="41.64963" lon="1.70716">
        <ele>495.8</ele>
        <time>2022-05-20 22:55:06</time>
      </trkpt>
      <trkpt lat="41.64969" lon="1.70719">
        <ele>495.8</ele>
        <time>2022-05-20 22:55:07</time>
      </trkpt>
      <trkpt lat="41.64975" lon="1.70723">
        <ele>495.6</ele>
        <time>2022-05-20 22:55:08</time>
      </trkpt>
      <trkpt lat="41.64982" lon="1.70727">
        <ele>495.2</ele>
        <time>2022-05-20 22:55:09</time>
      </trkpt>
      <trkpt lat="41.6499" lon="1.7073">
        <ele>494.6</ele>
        <time>2022-05-20 22:55:10</time>
      </trkpt>
      <trkpt lat="41.64998" lon="1.70732">
        <ele>494</ele>
        <time>2022-05-20 22:55:11</time>
      </trkpt>
      <trkpt lat="41.65007" lon="1.70732">
        <ele>493.2</ele>
        <time>2022-05-20 22:55:12</time>
      </trkpt>
      <trkpt lat="41.65016" lon="1.7073">
        <ele>492.2</ele>
        <time>2022-05-20 22:55:13</time>
      </trkpt>
      <trkpt lat="41.65025" lon="1.70726">
        <ele>491</ele>
        <time>2022-05-20 22:55:14</time>
      </trkpt>
      <trkpt lat="41.65035" lon="1.70722">
        <ele>490</ele>
        <time>2022-05-20 22:55:15</time>
      </trkpt>
      <trkpt lat="41.65047" lon="1.70717">
        <ele>489.4</ele>
        <time>2022-05-20 22:55:16</time>
      </trkpt>
      <trkpt lat="41.65055" lon="1.70713">
        <ele>488.8</ele>
        <time>2022-05-20 22:55:17</time>
      </trkpt>
      <trkpt lat="41.65063" lon="1.70706">
        <ele>488.2</ele>
        <time>2022-05-20 22:55:18</time>
      </trkpt>
      <trkpt lat="41.65067" lon="1.70699">
        <ele>487.8</ele>
        <time>2022-05-20 22:55:19</time>
      </trkpt>
      <trkpt lat="41.65067" lon="1.7069">
        <ele>487.6</ele>
        <time>2022-05-20 22:55:20</time>
      </trkpt>
      <trkpt lat="41.65066" lon="1.70681">
        <ele>487.2</ele>
        <time>2022-05-20 22:55:21</time>
      </trkpt>
      <trkpt lat="41.65065" lon="1.70672">
        <ele>487</ele>
        <time>2022-05-20 22:55:22</time>
      </trkpt>
      <trkpt lat="41.65064" lon="1.70663">
        <ele>486.6</ele>
        <time>2022-05-20 22:55:23</time>
      </trkpt>
      <trkpt lat="41.65064" lon="1.70654">
        <ele>486.4</ele>
        <time>2022-05-20 22:55:24</time>
      </trkpt>
      <trkpt lat="41.65064" lon="1.70644">
        <ele>486.4</ele>
        <time>2022-05-20 22:55:25</time>
      </trkpt>
      <trkpt lat="41.65064" lon="1.70635">
        <ele>486.2</ele>
        <time>2022-05-20 22:55:26</time>
      </trkpt>
      <trkpt lat="41.65066" lon="1.70626">
        <ele>486</ele>
        <time>2022-05-20 22:55:27</time>
      </trkpt>
      <trkpt lat="41.65068" lon="1.70616">
        <ele>486</ele>
        <time>2022-05-20 22:55:28</time>
      </trkpt>
      <trkpt lat="41.6507" lon="1.70605">
        <ele>485.8</ele>
        <time>2022-05-20 22:55:29</time>
      </trkpt>
      <trkpt lat="41.65071" lon="1.70595">
        <ele>485.6</ele>
        <time>2022-05-20 22:55:30</time>
      </trkpt>
      <trkpt lat="41.65071" lon="1.70584">
        <ele>485.2</ele>
        <time>2022-05-20 22:55:31</time>
      </trkpt>
      <trkpt lat="41.65072" lon="1.70575">
        <ele>485</ele>
        <time>2022-05-20 22:55:32</time>
      </trkpt>
      <trkpt lat="41.65071" lon="1.70565">
        <ele>484.8</ele>
        <time>2022-05-20 22:55:33</time>
      </trkpt>
      <trkpt lat="41.65071" lon="1.70555">
        <ele>484.6</ele>
        <time>2022-05-20 22:55:34</time>
      </trkpt>
      <trkpt lat="41.65071" lon="1.70545">
        <ele>484.4</ele>
        <time>2022-05-20 22:55:35</time>
      </trkpt>
      <trkpt lat="41.65073" lon="1.70536">
        <ele>484.2</ele>
        <time>2022-05-20 22:55:36</time>
      </trkpt>
      <trkpt lat="41.65077" lon="1.70529">
        <ele>484.2</ele>
        <time>2022-05-20 22:55:37</time>
      </trkpt>
      <trkpt lat="41.65082" lon="1.70525">
        <ele>484.2</ele>
        <time>2022-05-20 22:55:38</time>
      </trkpt>
      <trkpt lat="41.65088" lon="1.70525">
        <ele>484.4</ele>
        <time>2022-05-20 22:55:39</time>
      </trkpt>
      <trkpt lat="41.65092" lon="1.70528">
        <ele>484.6</ele>
        <time>2022-05-20 22:55:40</time>
      </trkpt>
      <trkpt lat="41.65098" lon="1.70531">
        <ele>484.6</ele>
        <time>2022-05-20 22:55:41</time>
      </trkpt>
      <trkpt lat="41.65103" lon="1.70535">
        <ele>484.8</ele>
        <time>2022-05-20 22:55:42</time>
      </trkpt>
      <trkpt lat="41.65107" lon="1.70539">
        <ele>485.2</ele>
        <time>2022-05-20 22:55:43</time>
      </trkpt>
      <trkpt lat="41.65112" lon="1.70542">
        <ele>485.4</ele>
        <time>2022-05-20 22:55:44</time>
      </trkpt>
      <trkpt lat="41.65116" lon="1.70545">
        <ele>485.6</ele>
        <time>2022-05-20 22:55:45</time>
      </trkpt>
      <trkpt lat="41.65121" lon="1.70548">
        <ele>485.8</ele>
        <time>2022-05-20 22:55:46</time>
      </trkpt>
      <trkpt lat="41.65125" lon="1.70551">
        <ele>486</ele>
        <time>2022-05-20 22:55:47</time>
      </trkpt>
      <trkpt lat="41.65129" lon="1.70553">
        <ele>486.2</ele>
        <time>2022-05-20 22:55:48</time>
      </trkpt>
      <trkpt lat="41.65134" lon="1.70555">
        <ele>486.2</ele>
        <time>2022-05-20 22:55:49</time>
      </trkpt>
      <trkpt lat="41.65138" lon="1.70557">
        <ele>486.2</ele>
        <time>2022-05-20 22:55:50</time>
      </trkpt>
      <trkpt lat="41.65143" lon="1.70559">
        <ele>486.2</ele>
        <time>2022-05-20 22:55:51</time>
      </trkpt>
      <trkpt lat="41.65149" lon="1.70561">
        <ele>486</ele>
        <time>2022-05-20 22:55:52</time>
      </trkpt>
      <trkpt lat="41.65154" lon="1.70564">
        <ele>485.8</ele>
        <time>2022-05-20 22:55:53</time>
      </trkpt>
      <trkpt lat="41.6516" lon="1.70566">
        <ele>485.8</ele>
        <time>2022-05-20 22:55:54</time>
      </trkpt>
      <trkpt lat="41.65165" lon="1.70569">
        <ele>485.6</ele>
        <time>2022-05-20 22:55:55</time>
      </trkpt>
      <trkpt lat="41.65171" lon="1.70572">
        <ele>485.6</ele>
        <time>2022-05-20 22:55:56</time>
      </trkpt>
      <trkpt lat="41.65177" lon="1.70574">
        <ele>485.8</ele>
        <time>2022-05-20 22:55:57</time>
      </trkpt>
      <trkpt lat="41.65182" lon="1.70578">
        <ele>485.8</ele>
        <time>2022-05-20 22:55:58</time>
      </trkpt>
      <trkpt lat="41.65187" lon="1.70582">
        <ele>485.8</ele>
        <time>2022-05-20 22:55:59</time>
      </trkpt>
      <trkpt lat="41.65191" lon="1.70586">
        <ele>486</ele>
        <time>2022-05-20 22:56:00</time>
      </trkpt>
      <trkpt lat="41.65194" lon="1.70591">
        <ele>486</ele>
        <time>2022-05-20 22:56:01</time>
      </trkpt>
      <trkpt lat="41.65198" lon="1.70599">
        <ele>486</ele>
        <time>2022-05-20 22:56:02</time>
      </trkpt>
      <trkpt lat="41.65201" lon="1.70605">
        <ele>486.2</ele>
        <time>2022-05-20 22:56:03</time>
      </trkpt>
      <trkpt lat="41.65204" lon="1.70611">
        <ele>486.2</ele>
        <time>2022-05-20 22:56:04</time>
      </trkpt>
      <trkpt lat="41.65207" lon="1.70618">
        <ele>486.2</ele>
        <time>2022-05-20 22:56:05</time>
      </trkpt>
      <trkpt lat="41.65208" lon="1.70625">
        <ele>486</ele>
        <time>2022-05-20 22:56:06</time>
      </trkpt>
      <trkpt lat="41.6521" lon="1.70633">
        <ele>486</ele>
        <time>2022-05-20 22:56:07</time>
      </trkpt>
      <trkpt lat="41.65211" lon="1.7064">
        <ele>486</ele>
        <time>2022-05-20 22:56:08</time>
      </trkpt>
      <trkpt lat="41.65211" lon="1.70648">
        <ele>485.8</ele>
        <time>2022-05-20 22:56:09</time>
      </trkpt>
      <trkpt lat="41.6521" lon="1.70656">
        <ele>485.8</ele>
        <time>2022-05-20 22:56:10</time>
      </trkpt>
      <trkpt lat="41.65209" lon="1.70664">
        <ele>485.6</ele>
        <time>2022-05-20 22:56:11</time>
      </trkpt>
      <trkpt lat="41.65207" lon="1.70673">
        <ele>485.4</ele>
        <time>2022-05-20 22:56:12</time>
      </trkpt>
      <trkpt lat="41.65207" lon="1.70681">
        <ele>485</ele>
        <time>2022-05-20 22:56:13</time>
      </trkpt>
      <trkpt lat="41.65207" lon="1.70689">
        <ele>484.8</ele>
        <time>2022-05-20 22:56:14</time>
      </trkpt>
      <trkpt lat="41.6521" lon="1.70697">
        <ele>484.4</ele>
        <time>2022-05-20 22:56:15</time>
      </trkpt>
      <trkpt lat="41.65213" lon="1.70704">
        <ele>484</ele>
        <time>2022-05-20 22:56:16</time>
      </trkpt>
      <trkpt lat="41.65218" lon="1.7071">
        <ele>483.6</ele>
        <time>2022-05-20 22:56:17</time>
      </trkpt>
      <trkpt lat="41.65225" lon="1.70714">
        <ele>483.2</ele>
        <time>2022-05-20 22:56:18</time>
      </trkpt>
      <trkpt lat="41.65232" lon="1.70718">
        <ele>482.8</ele>
        <time>2022-05-20 22:56:19</time>
      </trkpt>
      <trkpt lat="41.65239" lon="1.70722">
        <ele>482.4</ele>
        <time>2022-05-20 22:56:20</time>
      </trkpt>
      <trkpt lat="41.65246" lon="1.70727">
        <ele>482</ele>
        <time>2022-05-20 22:56:21</time>
      </trkpt>
      <trkpt lat="41.65253" lon="1.70732">
        <ele>481.6</ele>
        <time>2022-05-20 22:56:22</time>
      </trkpt>
      <trkpt lat="41.6526" lon="1.70737">
        <ele>481.4</ele>
        <time>2022-05-20 22:56:23</time>
      </trkpt>
      <trkpt lat="41.65268" lon="1.70742">
        <ele>481</ele>
        <time>2022-05-20 22:56:24</time>
      </trkpt>
      <trkpt lat="41.65274" lon="1.70748">
        <ele>480.8</ele>
        <time>2022-05-20 22:56:25</time>
      </trkpt>
      <trkpt lat="41.65281" lon="1.70754">
        <ele>480.6</ele>
        <time>2022-05-20 22:56:26</time>
      </trkpt>
      <trkpt lat="41.65287" lon="1.70761">
        <ele>480.4</ele>
        <time>2022-05-20 22:56:27</time>
      </trkpt>
      <trkpt lat="41.65293" lon="1.70768">
        <ele>480.2</ele>
        <time>2022-05-20 22:56:28</time>
      </trkpt>
      <trkpt lat="41.65299" lon="1.70775">
        <ele>480</ele>
        <time>2022-05-20 22:56:29</time>
      </trkpt>
      <trkpt lat="41.65305" lon="1.70782">
        <ele>479.8</ele>
        <time>2022-05-20 22:56:30</time>
      </trkpt>
      <trkpt lat="41.65311" lon="1.70789">
        <ele>479.6</ele>
        <time>2022-05-20 22:56:31</time>
      </trkpt>
      <trkpt lat="41.65317" lon="1.70797">
        <ele>479.4</ele>
        <time>2022-05-20 22:56:32</time>
      </trkpt>
      <trkpt lat="41.65323" lon="1.70804">
        <ele>479.2</ele>
        <time>2022-05-20 22:56:33</time>
      </trkpt>
      <trkpt lat="41.65329" lon="1.70812">
        <ele>479</ele>
        <time>2022-05-20 22:56:34</time>
      </trkpt>
      <trkpt lat="41.65334" lon="1.7082">
        <ele>478.8</ele>
        <time>2022-05-20 22:56:35</time>
      </trkpt>
      <trkpt lat="41.65339" lon="1.70828">
        <ele>478.6</ele>
        <time>2022-05-20 22:56:36</time>
      </trkpt>
      <trkpt lat="41.65344" lon="1.70837">
        <ele>478.4</ele>
        <time>2022-05-20 22:56:37</time>
      </trkpt>
      <trkpt lat="41.65349" lon="1.70846">
        <ele>478.2</ele>
        <time>2022-05-20 22:56:38</time>
      </trkpt>
      <trkpt lat="41.65353" lon="1.70855">
        <ele>478</ele>
        <time>2022-05-20 22:56:39</time>
      </trkpt>
      <trkpt lat="41.65358" lon="1.70864">
        <ele>478</ele>
        <time>2022-05-20 22:56:40</time>
      </trkpt>
      <trkpt lat="41.65361" lon="1.70874">
        <ele>477.8</ele>
        <time>2022-05-20 22:56:41</time>
      </trkpt>
      <trkpt lat="41.65365" lon="1.70884">
        <ele>477.6</ele>
        <time>2022-05-20 22:56:42</time>
      </trkpt>
      <trkpt lat="41.65369" lon="1.70894">
        <ele>477.4</ele>
        <time>2022-05-20 22:56:43</time>
      </trkpt>
      <trkpt lat="41.65372" lon="1.70904">
        <ele>477.2</ele>
        <time>2022-05-20 22:56:44</time>
      </trkpt>
      <trkpt lat="41.65375" lon="1.70914">
        <ele>477</ele>
        <time>2022-05-20 22:56:45</time>
      </trkpt>
      <trkpt lat="41.65378" lon="1.70924">
        <ele>476.8</ele>
        <time>2022-05-20 22:56:46</time>
      </trkpt>
      <trkpt lat="41.65381" lon="1.70934">
        <ele>476.6</ele>
        <time>2022-05-20 22:56:47</time>
      </trkpt>
      <trkpt lat="41.65384" lon="1.70944">
        <ele>476.6</ele>
        <time>2022-05-20 22:56:48</time>
      </trkpt>
      <trkpt lat="41.65387" lon="1.70954">
        <ele>476.4</ele>
        <time>2022-05-20 22:56:49</time>
      </trkpt>
      <trkpt lat="41.65389" lon="1.70964">
        <ele>476.2</ele>
        <time>2022-05-20 22:56:50</time>
      </trkpt>
      <trkpt lat="41.65392" lon="1.70974">
        <ele>476</ele>
        <time>2022-05-20 22:56:51</time>
      </trkpt>
      <trkpt lat="41.65395" lon="1.70984">
        <ele>475.8</ele>
        <time>2022-05-20 22:56:52</time>
      </trkpt>
      <trkpt lat="41.65398" lon="1.70994">
        <ele>475.6</ele>
        <time>2022-05-20 22:56:53</time>
      </trkpt>
      <trkpt lat="41.65401" lon="1.71004">
        <ele>475.6</ele>
        <time>2022-05-20 22:56:54</time>
      </trkpt>
      <trkpt lat="41.65403" lon="1.71014">
        <ele>475.4</ele>
        <time>2022-05-20 22:56:55</time>
      </trkpt>
      <trkpt lat="41.65406" lon="1.71024">
        <ele>475.2</ele>
        <time>2022-05-20 22:56:56</time>
      </trkpt>
      <trkpt lat="41.65409" lon="1.71033">
        <ele>475</ele>
        <time>2022-05-20 22:56:57</time>
      </trkpt>
      <trkpt lat="41.65412" lon="1.71043">
        <ele>475</ele>
        <time>2022-05-20 22:56:58</time>
      </trkpt>
      <trkpt lat="41.65415" lon="1.71054">
        <ele>474.8</ele>
        <time>2022-05-20 22:56:59</time>
      </trkpt>
      <trkpt lat="41.65418" lon="1.71064">
        <ele>474.6</ele>
        <time>2022-05-20 22:57:00</time>
      </trkpt>
      <trkpt lat="41.65421" lon="1.71075">
        <ele>474.4</ele>
        <time>2022-05-20 22:57:01</time>
      </trkpt>
      <trkpt lat="41.65424" lon="1.71085">
        <ele>474.2</ele>
        <time>2022-05-20 22:57:02</time>
      </trkpt>
      <trkpt lat="41.65427" lon="1.71095">
        <ele>474</ele>
        <time>2022-05-20 22:57:03</time>
      </trkpt>
      <trkpt lat="41.65432" lon="1.71105">
        <ele>473.8</ele>
        <time>2022-05-20 22:57:04</time>
      </trkpt>
      <trkpt lat="41.65436" lon="1.71114">
        <ele>473.8</ele>
        <time>2022-05-20 22:57:05</time>
      </trkpt>
      <trkpt lat="41.6544" lon="1.71123">
        <ele>473.6</ele>
        <time>2022-05-20 22:57:06</time>
      </trkpt>
      <trkpt lat="41.65444" lon="1.71132">
        <ele>473.6</ele>
        <time>2022-05-20 22:57:07</time>
      </trkpt>
      <trkpt lat="41.65448" lon="1.7114">
        <ele>473.4</ele>
        <time>2022-05-20 22:57:08</time>
      </trkpt>
      <trkpt lat="41.65451" lon="1.71149">
        <ele>473.4</ele>
        <time>2022-05-20 22:57:09</time>
      </trkpt>
      <trkpt lat="41.65455" lon="1.71157">
        <ele>473.4</ele>
        <time>2022-05-20 22:57:10</time>
      </trkpt>
      <trkpt lat="41.65459" lon="1.71165">
        <ele>473.4</ele>
        <time>2022-05-20 22:57:11</time>
      </trkpt>
      <trkpt lat="41.65461" lon="1.71174">
        <ele>473.4</ele>
        <time>2022-05-20 22:57:12</time>
      </trkpt>
      <trkpt lat="41.65464" lon="1.71183">
        <ele>473.2</ele>
        <time>2022-05-20 22:57:13</time>
      </trkpt>
      <trkpt lat="41.65466" lon="1.71192">
        <ele>473.2</ele>
        <time>2022-05-20 22:57:14</time>
      </trkpt>
      <trkpt lat="41.65467" lon="1.71201">
        <ele>473.2</ele>
        <time>2022-05-20 22:57:15</time>
      </trkpt>
      <trkpt lat="41.65469" lon="1.71211">
        <ele>473</ele>
        <time>2022-05-20 22:57:16</time>
      </trkpt>
      <trkpt lat="41.65469" lon="1.7122">
        <ele>472.8</ele>
        <time>2022-05-20 22:57:17</time>
      </trkpt>
      <trkpt lat="41.65471" lon="1.7123">
        <ele>472.6</ele>
        <time>2022-05-20 22:57:18</time>
      </trkpt>
      <trkpt lat="41.65472" lon="1.71239">
        <ele>472.4</ele>
        <time>2022-05-20 22:57:19</time>
      </trkpt>
      <trkpt lat="41.65475" lon="1.71249">
        <ele>472.2</ele>
        <time>2022-05-20 22:57:20</time>
      </trkpt>
      <trkpt lat="41.65477" lon="1.71259">
        <ele>472</ele>
        <time>2022-05-20 22:57:21</time>
      </trkpt>
      <trkpt lat="41.6548" lon="1.71269">
        <ele>471.8</ele>
        <time>2022-05-20 22:57:22</time>
      </trkpt>
      <trkpt lat="41.65484" lon="1.71279">
        <ele>471.6</ele>
        <time>2022-05-20 22:57:23</time>
      </trkpt>
      <trkpt lat="41.65487" lon="1.71289">
        <ele>471.6</ele>
        <time>2022-05-20 22:57:24</time>
      </trkpt>
      <trkpt lat="41.6549" lon="1.71299">
        <ele>471.4</ele>
        <time>2022-05-20 22:57:25</time>
      </trkpt>
      <trkpt lat="41.65492" lon="1.71308">
        <ele>471.4</ele>
        <time>2022-05-20 22:57:26</time>
      </trkpt>
      <trkpt lat="41.65495" lon="1.71317">
        <ele>471.4</ele>
        <time>2022-05-20 22:57:27</time>
      </trkpt>
      <trkpt lat="41.65497" lon="1.71326">
        <ele>471.4</ele>
        <time>2022-05-20 22:57:28</time>
      </trkpt>
      <trkpt lat="41.655" lon="1.71334">
        <ele>471.4</ele>
        <time>2022-05-20 22:57:29</time>
      </trkpt>
      <trkpt lat="41.65503" lon="1.71342">
        <ele>471.4</ele>
        <time>2022-05-20 22:57:30</time>
      </trkpt>
      <trkpt lat="41.65506" lon="1.7135">
        <ele>471.4</ele>
        <time>2022-05-20 22:57:31</time>
      </trkpt>
      <trkpt lat="41.65509" lon="1.71358">
        <ele>471.4</ele>
        <time>2022-05-20 22:57:32</time>
      </trkpt>
      <trkpt lat="41.65511" lon="1.71366">
        <ele>471.4</ele>
        <time>2022-05-20 22:57:33</time>
      </trkpt>
      <trkpt lat="41.65514" lon="1.71374">
        <ele>471.4</ele>
        <time>2022-05-20 22:57:34</time>
      </trkpt>
      <trkpt lat="41.65517" lon="1.71382">
        <ele>471.4</ele>
        <time>2022-05-20 22:57:35</time>
      </trkpt>
      <trkpt lat="41.6552" lon="1.71389">
        <ele>471.4</ele>
        <time>2022-05-20 22:57:36</time>
      </trkpt>
      <trkpt lat="41.65524" lon="1.71396">
        <ele>471.2</ele>
        <time>2022-05-20 22:57:37</time>
      </trkpt>
      <trkpt lat="41.65529" lon="1.71401">
        <ele>471.2</ele>
        <time>2022-05-20 22:57:38</time>
      </trkpt>
      <trkpt lat="41.65535" lon="1.71407">
        <ele>471.2</ele>
        <time>2022-05-20 22:57:39</time>
      </trkpt>
      <trkpt lat="41.6554" lon="1.71412">
        <ele>471</ele>
        <time>2022-05-20 22:57:40</time>
      </trkpt>
      <trkpt lat="41.65546" lon="1.71416">
        <ele>471</ele>
        <time>2022-05-20 22:57:41</time>
      </trkpt>
      <trkpt lat="41.65552" lon="1.71421">
        <ele>470.8</ele>
        <time>2022-05-20 22:57:42</time>
      </trkpt>
      <trkpt lat="41.65557" lon="1.71426">
        <ele>470.8</ele>
        <time>2022-05-20 22:57:43</time>
      </trkpt>
      <trkpt lat="41.65561" lon="1.71431">
        <ele>471</ele>
        <time>2022-05-20 22:57:44</time>
      </trkpt>
      <trkpt lat="41.65565" lon="1.71436">
        <ele>471.2</ele>
        <time>2022-05-20 22:57:45</time>
      </trkpt>
      <trkpt lat="41.65568" lon="1.71443">
        <ele>471.4</ele>
        <time>2022-05-20 22:57:46</time>
      </trkpt>
      <trkpt lat="41.65571" lon="1.71449">
        <ele>471.6</ele>
        <time>2022-05-20 22:57:47</time>
      </trkpt>
      <trkpt lat="41.65573" lon="1.71454">
        <ele>471.8</ele>
        <time>2022-05-20 22:57:48</time>
      </trkpt>
      <trkpt lat="41.65574" lon="1.71461">
        <ele>472.2</ele>
        <time>2022-05-20 22:57:49</time>
      </trkpt>
      <trkpt lat="41.65575" lon="1.71467">
        <ele>472.4</ele>
        <time>2022-05-20 22:57:50</time>
      </trkpt>
      <trkpt lat="41.65576" lon="1.71473">
        <ele>472.4</ele>
        <time>2022-05-20 22:57:51</time>
      </trkpt>
      <trkpt lat="41.65577" lon="1.71479">
        <ele>472.6</ele>
        <time>2022-05-20 22:57:52</time>
      </trkpt>
      <trkpt lat="41.65578" lon="1.71486">
        <ele>472.6</ele>
        <time>2022-05-20 22:57:53</time>
      </trkpt>
      <trkpt lat="41.65579" lon="1.71492">
        <ele>472.8</ele>
        <time>2022-05-20 22:57:54</time>
      </trkpt>
      <trkpt lat="41.6558" lon="1.71499">
        <ele>472.8</ele>
        <time>2022-05-20 22:57:55</time>
      </trkpt>
      <trkpt lat="41.6558" lon="1.71506">
        <ele>472.8</ele>
        <time>2022-05-20 22:57:56</time>
      </trkpt>
      <trkpt lat="41.65581" lon="1.71513">
        <ele>473</ele>
        <time>2022-05-20 22:57:57</time>
      </trkpt>
      <trkpt lat="41.65582" lon="1.71521">
        <ele>473</ele>
        <time>2022-05-20 22:57:58</time>
      </trkpt>
      <trkpt lat="41.65583" lon="1.71528">
        <ele>473</ele>
        <time>2022-05-20 22:57:59</time>
      </trkpt>
      <trkpt lat="41.65584" lon="1.71534">
        <ele>473</ele>
        <time>2022-05-20 22:58:00</time>
      </trkpt>
      <trkpt lat="41.65586" lon="1.7154">
        <ele>473</ele>
        <time>2022-05-20 22:58:01</time>
      </trkpt>
      <trkpt lat="41.65589" lon="1.71548">
        <ele>472.8</ele>
        <time>2022-05-20 22:58:02</time>
      </trkpt>
      <trkpt lat="41.65592" lon="1.71555">
        <ele>472.6</ele>
        <time>2022-05-20 22:58:03</time>
      </trkpt>
      <trkpt lat="41.65595" lon="1.71562">
        <ele>472.2</ele>
        <time>2022-05-20 22:58:04</time>
      </trkpt>
      <trkpt lat="41.65599" lon="1.7157">
        <ele>472</ele>
        <time>2022-05-20 22:58:05</time>
      </trkpt>
      <trkpt lat="41.65602" lon="1.71578">
        <ele>471.6</ele>
        <time>2022-05-20 22:58:06</time>
      </trkpt>
      <trkpt lat="41.65603" lon="1.71587">
        <ele>471.2</ele>
        <time>2022-05-20 22:58:07</time>
      </trkpt>
      <trkpt lat="41.65604" lon="1.71596">
        <ele>470.8</ele>
        <time>2022-05-20 22:58:08</time>
      </trkpt>
      <trkpt lat="41.65604" lon="1.71605">
        <ele>470.4</ele>
        <time>2022-05-20 22:58:09</time>
      </trkpt>
      <trkpt lat="41.65602" lon="1.71616">
        <ele>470</ele>
        <time>2022-05-20 22:58:10</time>
      </trkpt>
      <trkpt lat="41.65599" lon="1.71627">
        <ele>469.6</ele>
        <time>2022-05-20 22:58:11</time>
      </trkpt>
      <trkpt lat="41.65597" lon="1.71637">
        <ele>469.2</ele>
        <time>2022-05-20 22:58:12</time>
      </trkpt>
      <trkpt lat="41.65596" lon="1.71648">
        <ele>468.8</ele>
        <time>2022-05-20 22:58:13</time>
      </trkpt>
      <trkpt lat="41.65595" lon="1.71659">
        <ele>468.4</ele>
        <time>2022-05-20 22:58:14</time>
      </trkpt>
      <trkpt lat="41.65595" lon="1.7167">
        <ele>468</ele>
        <time>2022-05-20 22:58:15</time>
      </trkpt>
      <trkpt lat="41.65597" lon="1.71681">
        <ele>467.4</ele>
        <time>2022-05-20 22:58:16</time>
      </trkpt>
      <trkpt lat="41.656" lon="1.71691">
        <ele>467</ele>
        <time>2022-05-20 22:58:17</time>
      </trkpt>
      <trkpt lat="41.65605" lon="1.71699">
        <ele>466.6</ele>
        <time>2022-05-20 22:58:18</time>
      </trkpt>
      <trkpt lat="41.65611" lon="1.71708">
        <ele>466.2</ele>
        <time>2022-05-20 22:58:19</time>
      </trkpt>
      <trkpt lat="41.65617" lon="1.71716">
        <ele>465.6</ele>
        <time>2022-05-20 22:58:20</time>
      </trkpt>
      <trkpt lat="41.65622" lon="1.71726">
        <ele>465</ele>
        <time>2022-05-20 22:58:21</time>
      </trkpt>
      <trkpt lat="41.65626" lon="1.71738">
        <ele>464.2</ele>
        <time>2022-05-20 22:58:22</time>
      </trkpt>
      <trkpt lat="41.65628" lon="1.71751">
        <ele>463.6</ele>
        <time>2022-05-20 22:58:23</time>
      </trkpt>
      <trkpt lat="41.65628" lon="1.71764">
        <ele>463</ele>
        <time>2022-05-20 22:58:24</time>
      </trkpt>
      <trkpt lat="41.65627" lon="1.71778">
        <ele>462.6</ele>
        <time>2022-05-20 22:58:25</time>
      </trkpt>
      <trkpt lat="41.65626" lon="1.71791">
        <ele>461.8</ele>
        <time>2022-05-20 22:58:26</time>
      </trkpt>
      <trkpt lat="41.65625" lon="1.71805">
        <ele>461.2</ele>
        <time>2022-05-20 22:58:27</time>
      </trkpt>
      <trkpt lat="41.65625" lon="1.71819">
        <ele>460.8</ele>
        <time>2022-05-20 22:58:28</time>
      </trkpt>
      <trkpt lat="41.65625" lon="1.71832">
        <ele>460.2</ele>
        <time>2022-05-20 22:58:29</time>
      </trkpt>
      <trkpt lat="41.65626" lon="1.71843">
        <ele>459.8</ele>
        <time>2022-05-20 22:58:30</time>
      </trkpt>
      <trkpt lat="41.65629" lon="1.71853">
        <ele>459.2</ele>
        <time>2022-05-20 22:58:31</time>
      </trkpt>
      <trkpt lat="41.65633" lon="1.7186">
        <ele>458.8</ele>
        <time>2022-05-20 22:58:32</time>
      </trkpt>
      <trkpt lat="41.6564" lon="1.71863">
        <ele>458.2</ele>
        <time>2022-05-20 22:58:33</time>
      </trkpt>
      <trkpt lat="41.65649" lon="1.71863">
        <ele>457.6</ele>
        <time>2022-05-20 22:58:34</time>
      </trkpt>
      <trkpt lat="41.65657" lon="1.71863">
        <ele>457</ele>
        <time>2022-05-20 22:58:35</time>
      </trkpt>
      <trkpt lat="41.65666" lon="1.71863">
        <ele>456.4</ele>
        <time>2022-05-20 22:58:36</time>
      </trkpt>
      <trkpt lat="41.65675" lon="1.71865">
        <ele>455.8</ele>
        <time>2022-05-20 22:58:37</time>
      </trkpt>
      <trkpt lat="41.65685" lon="1.71868">
        <ele>455</ele>
        <time>2022-05-20 22:58:38</time>
      </trkpt>
      <trkpt lat="41.65693" lon="1.71874">
        <ele>454.2</ele>
        <time>2022-05-20 22:58:39</time>
      </trkpt>
      <trkpt lat="41.65701" lon="1.71882">
        <ele>453.6</ele>
        <time>2022-05-20 22:58:40</time>
      </trkpt>
      <trkpt lat="41.6571" lon="1.7189">
        <ele>452.8</ele>
        <time>2022-05-20 22:58:41</time>
      </trkpt>
      <trkpt lat="41.65719" lon="1.71899">
        <ele>452</ele>
        <time>2022-05-20 22:58:42</time>
      </trkpt>
      <trkpt lat="41.65728" lon="1.71909">
        <ele>451.4</ele>
        <time>2022-05-20 22:58:43</time>
      </trkpt>
      <trkpt lat="41.65736" lon="1.71918">
        <ele>450.6</ele>
        <time>2022-05-20 22:58:44</time>
      </trkpt>
      <trkpt lat="41.65744" lon="1.71928">
        <ele>449.8</ele>
        <time>2022-05-20 22:58:45</time>
      </trkpt>
      <trkpt lat="41.65752" lon="1.71938">
        <ele>449.2</ele>
        <time>2022-05-20 22:58:46</time>
      </trkpt>
      <trkpt lat="41.65759" lon="1.71947">
        <ele>448.6</ele>
        <time>2022-05-20 22:58:47</time>
      </trkpt>
      <trkpt lat="41.65766" lon="1.71953">
        <ele>448</ele>
        <time>2022-05-20 22:58:48</time>
      </trkpt>
      <trkpt lat="41.65774" lon="1.71954">
        <ele>447.4</ele>
        <time>2022-05-20 22:58:49</time>
      </trkpt>
      <trkpt lat="41.65782" lon="1.7195">
        <ele>446.8</ele>
        <time>2022-05-20 22:58:50</time>
      </trkpt>
      <trkpt lat="41.65789" lon="1.71944">
        <ele>446</ele>
        <time>2022-05-20 22:58:51</time>
      </trkpt>
      <trkpt lat="41.65796" lon="1.71937">
        <ele>445.4</ele>
        <time>2022-05-20 22:58:52</time>
      </trkpt>
      <trkpt lat="41.65804" lon="1.7193">
        <ele>444.8</ele>
        <time>2022-05-20 22:58:53</time>
      </trkpt>
      <trkpt lat="41.65813" lon="1.71923">
        <ele>444</ele>
        <time>2022-05-20 22:58:54</time>
      </trkpt>
      <trkpt lat="41.65823" lon="1.7192">
        <ele>443.4</ele>
        <time>2022-05-20 22:58:55</time>
      </trkpt>
      <trkpt lat="41.65833" lon="1.71919">
        <ele>442.8</ele>
        <time>2022-05-20 22:58:56</time>
      </trkpt>
      <trkpt lat="41.65844" lon="1.71921">
        <ele>442</ele>
        <time>2022-05-20 22:58:57</time>
      </trkpt>
      <trkpt lat="41.65856" lon="1.71923">
        <ele>441.4</ele>
        <time>2022-05-20 22:58:58</time>
      </trkpt>
      <trkpt lat="41.65866" lon="1.71925">
        <ele>440.6</ele>
        <time>2022-05-20 22:58:59</time>
      </trkpt>
      <trkpt lat="41.65877" lon="1.71926">
        <ele>440</ele>
        <time>2022-05-20 22:59:00</time>
      </trkpt>
      <trkpt lat="41.65888" lon="1.71928">
        <ele>439.2</ele>
        <time>2022-05-20 22:59:01</time>
      </trkpt>
      <trkpt lat="41.65898" lon="1.71931">
        <ele>438.6</ele>
        <time>2022-05-20 22:59:02</time>
      </trkpt>
      <trkpt lat="41.65908" lon="1.71935">
        <ele>437.8</ele>
        <time>2022-05-20 22:59:03</time>
      </trkpt>
      <trkpt lat="41.65918" lon="1.7194">
        <ele>437.2</ele>
        <time>2022-05-20 22:59:04</time>
      </trkpt>
      <trkpt lat="41.65929" lon="1.71947">
        <ele>436.6</ele>
        <time>2022-05-20 22:59:05</time>
      </trkpt>
      <trkpt lat="41.65939" lon="1.71954">
        <ele>435.8</ele>
        <time>2022-05-20 22:59:06</time>
      </trkpt>
      <trkpt lat="41.65948" lon="1.7196">
        <ele>435.2</ele>
        <time>2022-05-20 22:59:07</time>
      </trkpt>
      <trkpt lat="41.65958" lon="1.71967">
        <ele>434.6</ele>
        <time>2022-05-20 22:59:08</time>
      </trkpt>
      <trkpt lat="41.65967" lon="1.71972">
        <ele>434</ele>
        <time>2022-05-20 22:59:09</time>
      </trkpt>
      <trkpt lat="41.65974" lon="1.71978">
        <ele>433.6</ele>
        <time>2022-05-20 22:59:10</time>
      </trkpt>
      <trkpt lat="41.65981" lon="1.71985">
        <ele>433.2</ele>
        <time>2022-05-20 22:59:11</time>
      </trkpt>
      <trkpt lat="41.65987" lon="1.71992">
        <ele>432.6</ele>
        <time>2022-05-20 22:59:12</time>
      </trkpt>
      <trkpt lat="41.65992" lon="1.71999">
        <ele>432.2</ele>
        <time>2022-05-20 22:59:13</time>
      </trkpt>
      <trkpt lat="41.65997" lon="1.72006">
        <ele>431.8</ele>
        <time>2022-05-20 22:59:14</time>
      </trkpt>
      <trkpt lat="41.65999" lon="1.72014">
        <ele>431.2</ele>
        <time>2022-05-20 22:59:15</time>
      </trkpt>
      <trkpt lat="41.65998" lon="1.72023">
        <ele>430.6</ele>
        <time>2022-05-20 22:59:16</time>
      </trkpt>
      <trkpt lat="41.65996" lon="1.72032">
        <ele>430</ele>
        <time>2022-05-20 22:59:17</time>
      </trkpt>
      <trkpt lat="41.65993" lon="1.72042">
        <ele>429.4</ele>
        <time>2022-05-20 22:59:18</time>
      </trkpt>
      <trkpt lat="41.65988" lon="1.72051">
        <ele>428.8</ele>
        <time>2022-05-20 22:59:19</time>
      </trkpt>
      <trkpt lat="41.65984" lon="1.72059">
        <ele>428.4</ele>
        <time>2022-05-20 22:59:20</time>
      </trkpt>
      <trkpt lat="41.65982" lon="1.72067">
        <ele>428</ele>
        <time>2022-05-20 22:59:21</time>
      </trkpt>
      <trkpt lat="41.65979" lon="1.72076">
        <ele>427.8</ele>
        <time>2022-05-20 22:59:22</time>
      </trkpt>
      <trkpt lat="41.65978" lon="1.72083">
        <ele>427.6</ele>
        <time>2022-05-20 22:59:23</time>
      </trkpt>
      <trkpt lat="41.65977" lon="1.72091">
        <ele>427.6</ele>
        <time>2022-05-20 22:59:24</time>
      </trkpt>
      <trkpt lat="41.65976" lon="1.72099">
        <ele>427.4</ele>
        <time>2022-05-20 22:59:25</time>
      </trkpt>
      <trkpt lat="41.65974" lon="1.72107">
        <ele>427.4</ele>
        <time>2022-05-20 22:59:26</time>
      </trkpt>
      <trkpt lat="41.65974" lon="1.72115">
        <ele>427.2</ele>
        <time>2022-05-20 22:59:27</time>
      </trkpt>
      <trkpt lat="41.65974" lon="1.72124">
        <ele>427</ele>
        <time>2022-05-20 22:59:28</time>
      </trkpt>
      <trkpt lat="41.65975" lon="1.72134">
        <ele>426.6</ele>
        <time>2022-05-20 22:59:29</time>
      </trkpt>
      <trkpt lat="41.65977" lon="1.72144">
        <ele>426.2</ele>
        <time>2022-05-20 22:59:30</time>
      </trkpt>
      <trkpt lat="41.65979" lon="1.72154">
        <ele>425.8</ele>
        <time>2022-05-20 22:59:31</time>
      </trkpt>
      <trkpt lat="41.65982" lon="1.72164">
        <ele>425.4</ele>
        <time>2022-05-20 22:59:32</time>
      </trkpt>
      <trkpt lat="41.65987" lon="1.72174">
        <ele>425</ele>
        <time>2022-05-20 22:59:33</time>
      </trkpt>
      <trkpt lat="41.6599" lon="1.72184">
        <ele>424.6</ele>
        <time>2022-05-20 22:59:34</time>
      </trkpt>
      <trkpt lat="41.65995" lon="1.72193">
        <ele>424.4</ele>
        <time>2022-05-20 22:59:35</time>
      </trkpt>
      <trkpt lat="41.66" lon="1.72201">
        <ele>424</ele>
        <time>2022-05-20 22:59:36</time>
      </trkpt>
      <trkpt lat="41.66006" lon="1.72207">
        <ele>423.8</ele>
        <time>2022-05-20 22:59:37</time>
      </trkpt>
      <trkpt lat="41.66013" lon="1.72213">
        <ele>423.6</ele>
        <time>2022-05-20 22:59:38</time>
      </trkpt>
      <trkpt lat="41.66021" lon="1.72217">
        <ele>423.4</ele>
        <time>2022-05-20 22:59:39</time>
      </trkpt>
      <trkpt lat="41.66027" lon="1.72222">
        <ele>423</ele>
        <time>2022-05-20 22:59:40</time>
      </trkpt>
      <trkpt lat="41.66034" lon="1.72229">
        <ele>422.8</ele>
        <time>2022-05-20 22:59:41</time>
      </trkpt>
      <trkpt lat="41.66039" lon="1.72237">
        <ele>422.6</ele>
        <time>2022-05-20 22:59:42</time>
      </trkpt>
      <trkpt lat="41.66043" lon="1.72246">
        <ele>422.6</ele>
        <time>2022-05-20 22:59:43</time>
      </trkpt>
      <trkpt lat="41.66044" lon="1.72256">
        <ele>422.6</ele>
        <time>2022-05-20 22:59:44</time>
      </trkpt>
      <trkpt lat="41.66043" lon="1.72265">
        <ele>422.6</ele>
        <time>2022-05-20 22:59:45</time>
      </trkpt>
      <trkpt lat="41.66042" lon="1.72275">
        <ele>422.8</ele>
        <time>2022-05-20 22:59:46</time>
      </trkpt>
      <trkpt lat="41.6604" lon="1.72285">
        <ele>423</ele>
        <time>2022-05-20 22:59:47</time>
      </trkpt>
      <trkpt lat="41.6604" lon="1.72295">
        <ele>423.2</ele>
        <time>2022-05-20 22:59:48</time>
      </trkpt>
      <trkpt lat="41.6604" lon="1.72303">
        <ele>423.4</ele>
        <time>2022-05-20 22:59:49</time>
      </trkpt>
      <trkpt lat="41.66042" lon="1.72312">
        <ele>423.6</ele>
        <time>2022-05-20 22:59:50</time>
      </trkpt>
      <trkpt lat="41.66045" lon="1.72319">
        <ele>423.6</ele>
        <time>2022-05-20 22:59:51</time>
      </trkpt>
      <trkpt lat="41.66047" lon="1.72326">
        <ele>424</ele>
        <time>2022-05-20 22:59:52</time>
      </trkpt>
      <trkpt lat="41.66052" lon="1.72332">
        <ele>424</ele>
        <time>2022-05-20 22:59:53</time>
      </trkpt>
      <trkpt lat="41.66057" lon="1.72338">
        <ele>424.2</ele>
        <time>2022-05-20 22:59:54</time>
      </trkpt>
      <trkpt lat="41.66063" lon="1.72341">
        <ele>424.4</ele>
        <time>2022-05-20 22:59:55</time>
      </trkpt>
      <trkpt lat="41.66068" lon="1.72343">
        <ele>424.4</ele>
        <time>2022-05-20 22:59:56</time>
      </trkpt>
      <trkpt lat="41.66074" lon="1.72345">
        <ele>424.4</ele>
        <time>2022-05-20 22:59:57</time>
      </trkpt>
      <trkpt lat="41.6608" lon="1.72347">
        <ele>424.6</ele>
        <time>2022-05-20 22:59:58</time>
      </trkpt>
      <trkpt lat="41.66086" lon="1.7235">
        <ele>424.6</ele>
        <time>2022-05-20 22:59:59</time>
      </trkpt>
      <trkpt lat="41.66091" lon="1.72353">
        <ele>424.8</ele>
        <time>2022-05-20 23:00:00</time>
      </trkpt>
      <trkpt lat="41.66095" lon="1.72357">
        <ele>425</ele>
        <time>2022-05-20 23:00:01</time>
      </trkpt>
      <trkpt lat="41.66101" lon="1.72363">
        <ele>425.2</ele>
        <time>2022-05-20 23:00:02</time>
      </trkpt>
      <trkpt lat="41.66106" lon="1.72368">
        <ele>425.4</ele>
        <time>2022-05-20 23:00:03</time>
      </trkpt>
      <trkpt lat="41.6611" lon="1.72373">
        <ele>425.6</ele>
        <time>2022-05-20 23:00:04</time>
      </trkpt>
      <trkpt lat="41.66115" lon="1.72377">
        <ele>425.8</ele>
        <time>2022-05-20 23:00:05</time>
      </trkpt>
      <trkpt lat="41.6612" lon="1.72381">
        <ele>426</ele>
        <time>2022-05-20 23:00:06</time>
      </trkpt>
      <trkpt lat="41.66125" lon="1.72384">
        <ele>426.2</ele>
        <time>2022-05-20 23:00:07</time>
      </trkpt>
      <trkpt lat="41.6613" lon="1.72387">
        <ele>426.4</ele>
        <time>2022-05-20 23:00:08</time>
      </trkpt>
      <trkpt lat="41.66136" lon="1.7239">
        <ele>426.4</ele>
        <time>2022-05-20 23:00:09</time>
      </trkpt>
      <trkpt lat="41.66142" lon="1.72394">
        <ele>426.4</ele>
        <time>2022-05-20 23:00:10</time>
      </trkpt>
      <trkpt lat="41.66147" lon="1.72399">
        <ele>426.4</ele>
        <time>2022-05-20 23:00:11</time>
      </trkpt>
      <trkpt lat="41.66153" lon="1.72404">
        <ele>426.2</ele>
        <time>2022-05-20 23:00:12</time>
      </trkpt>
      <trkpt lat="41.66158" lon="1.72411">
        <ele>426.2</ele>
        <time>2022-05-20 23:00:13</time>
      </trkpt>
      <trkpt lat="41.66162" lon="1.72419">
        <ele>426</ele>
        <time>2022-05-20 23:00:14</time>
      </trkpt>
      <trkpt lat="41.66166" lon="1.72428">
        <ele>426</ele>
        <time>2022-05-20 23:00:15</time>
      </trkpt>
      <trkpt lat="41.6617" lon="1.72438">
        <ele>425.8</ele>
        <time>2022-05-20 23:00:16</time>
      </trkpt>
      <trkpt lat="41.66174" lon="1.72446">
        <ele>425.6</ele>
        <time>2022-05-20 23:00:17</time>
      </trkpt>
      <trkpt lat="41.66177" lon="1.72454">
        <ele>425.6</ele>
        <time>2022-05-20 23:00:18</time>
      </trkpt>
      <trkpt lat="41.66182" lon="1.72465">
        <ele>425.4</ele>
        <time>2022-05-20 23:00:19</time>
      </trkpt>
      <trkpt lat="41.66186" lon="1.72474">
        <ele>425.2</ele>
        <time>2022-05-20 23:00:20</time>
      </trkpt>
      <trkpt lat="41.66189" lon="1.72484">
        <ele>425</ele>
        <time>2022-05-20 23:00:21</time>
      </trkpt>
      <trkpt lat="41.66192" lon="1.72494">
        <ele>424.6</ele>
        <time>2022-05-20 23:00:22</time>
      </trkpt>
      <trkpt lat="41.66193" lon="1.72505">
        <ele>424.4</ele>
        <time>2022-05-20 23:00:23</time>
      </trkpt>
      <trkpt lat="41.66193" lon="1.72517">
        <ele>424.2</ele>
        <time>2022-05-20 23:00:24</time>
      </trkpt>
      <trkpt lat="41.66192" lon="1.72528">
        <ele>424</ele>
        <time>2022-05-20 23:00:25</time>
      </trkpt>
      <trkpt lat="41.66192" lon="1.7254">
        <ele>423.8</ele>
        <time>2022-05-20 23:00:26</time>
      </trkpt>
      <trkpt lat="41.66194" lon="1.7255">
        <ele>423.6</ele>
        <time>2022-05-20 23:00:27</time>
      </trkpt>
      <trkpt lat="41.66198" lon="1.7256">
        <ele>423.4</ele>
        <time>2022-05-20 23:00:28</time>
      </trkpt>
      <trkpt lat="41.66203" lon="1.72568">
        <ele>423</ele>
        <time>2022-05-20 23:00:29</time>
      </trkpt>
      <trkpt lat="41.66209" lon="1.72576">
        <ele>422.8</ele>
        <time>2022-05-20 23:00:30</time>
      </trkpt>
      <trkpt lat="41.66215" lon="1.72585">
        <ele>422.4</ele>
        <time>2022-05-20 23:00:31</time>
      </trkpt>
      <trkpt lat="41.66219" lon="1.72596">
        <ele>422.2</ele>
        <time>2022-05-20 23:00:32</time>
      </trkpt>
      <trkpt lat="41.66223" lon="1.72609">
        <ele>422</ele>
        <time>2022-05-20 23:00:33</time>
      </trkpt>
      <trkpt lat="41.66225" lon="1.72622">
        <ele>422</ele>
        <time>2022-05-20 23:00:34</time>
      </trkpt>
      <trkpt lat="41.66227" lon="1.72635">
        <ele>422</ele>
        <time>2022-05-20 23:00:35</time>
      </trkpt>
      <trkpt lat="41.66228" lon="1.72649">
        <ele>422.2</ele>
        <time>2022-05-20 23:00:36</time>
      </trkpt>
      <trkpt lat="41.6623" lon="1.7266">
        <ele>422.2</ele>
        <time>2022-05-20 23:00:37</time>
      </trkpt>
      <trkpt lat="41.66232" lon="1.72672">
        <ele>422.4</ele>
        <time>2022-05-20 23:00:38</time>
      </trkpt>
      <trkpt lat="41.66235" lon="1.72683">
        <ele>422.6</ele>
        <time>2022-05-20 23:00:39</time>
      </trkpt>
      <trkpt lat="41.66238" lon="1.72693">
        <ele>422.6</ele>
        <time>2022-05-20 23:00:40</time>
      </trkpt>
      <trkpt lat="41.66242" lon="1.72702">
        <ele>422.6</ele>
        <time>2022-05-20 23:00:41</time>
      </trkpt>
      <trkpt lat="41.66247" lon="1.72711">
        <ele>422.6</ele>
        <time>2022-05-20 23:00:42</time>
      </trkpt>
      <trkpt lat="41.66252" lon="1.72721">
        <ele>422.4</ele>
        <time>2022-05-20 23:00:43</time>
      </trkpt>
      <trkpt lat="41.66257" lon="1.72731">
        <ele>422.2</ele>
        <time>2022-05-20 23:00:44</time>
      </trkpt>
      <trkpt lat="41.66262" lon="1.7274">
        <ele>421.8</ele>
        <time>2022-05-20 23:00:45</time>
      </trkpt>
      <trkpt lat="41.66267" lon="1.7275">
        <ele>421.6</ele>
        <time>2022-05-20 23:00:46</time>
      </trkpt>
      <trkpt lat="41.66272" lon="1.72759">
        <ele>421.2</ele>
        <time>2022-05-20 23:00:47</time>
      </trkpt>
      <trkpt lat="41.66278" lon="1.72769">
        <ele>420.8</ele>
        <time>2022-05-20 23:00:48</time>
      </trkpt>
      <trkpt lat="41.66283" lon="1.72778">
        <ele>420.4</ele>
        <time>2022-05-20 23:00:49</time>
      </trkpt>
      <trkpt lat="41.66289" lon="1.72788">
        <ele>420</ele>
        <time>2022-05-20 23:00:50</time>
      </trkpt>
      <trkpt lat="41.66295" lon="1.72799">
        <ele>419.6</ele>
        <time>2022-05-20 23:00:51</time>
      </trkpt>
      <trkpt lat="41.66299" lon="1.72812">
        <ele>419.4</ele>
        <time>2022-05-20 23:00:52</time>
      </trkpt>
      <trkpt lat="41.66303" lon="1.72825">
        <ele>419</ele>
        <time>2022-05-20 23:00:53</time>
      </trkpt>
      <trkpt lat="41.66305" lon="1.72839">
        <ele>418.6</ele>
        <time>2022-05-20 23:00:54</time>
      </trkpt>
      <trkpt lat="41.66305" lon="1.72852">
        <ele>418.2</ele>
        <time>2022-05-20 23:00:55</time>
      </trkpt>
      <trkpt lat="41.66304" lon="1.72866">
        <ele>417.8</ele>
        <time>2022-05-20 23:00:56</time>
      </trkpt>
      <trkpt lat="41.66303" lon="1.72879">
        <ele>417.6</ele>
        <time>2022-05-20 23:00:57</time>
      </trkpt>
      <trkpt lat="41.66303" lon="1.72891">
        <ele>417.2</ele>
        <time>2022-05-20 23:00:58</time>
      </trkpt>
      <trkpt lat="41.66305" lon="1.72903">
        <ele>416.8</ele>
        <time>2022-05-20 23:00:59</time>
      </trkpt>
      <trkpt lat="41.66308" lon="1.72915">
        <ele>416.6</ele>
        <time>2022-05-20 23:01:00</time>
      </trkpt>
      <trkpt lat="41.66312" lon="1.72926">
        <ele>416.2</ele>
        <time>2022-05-20 23:01:01</time>
      </trkpt>
      <trkpt lat="41.66319" lon="1.72936">
        <ele>416</ele>
        <time>2022-05-20 23:01:02</time>
      </trkpt>
      <trkpt lat="41.66325" lon="1.72946">
        <ele>415.8</ele>
        <time>2022-05-20 23:01:03</time>
      </trkpt>
      <trkpt lat="41.66331" lon="1.72955">
        <ele>415.6</ele>
        <time>2022-05-20 23:01:04</time>
      </trkpt>
      <trkpt lat="41.66338" lon="1.72963">
        <ele>415.2</ele>
        <time>2022-05-20 23:01:05</time>
      </trkpt>
      <trkpt lat="41.66344" lon="1.72973">
        <ele>415</ele>
        <time>2022-05-20 23:01:06</time>
      </trkpt>
      <trkpt lat="41.66351" lon="1.72983">
        <ele>414.6</ele>
        <time>2022-05-20 23:01:07</time>
      </trkpt>
      <trkpt lat="41.66357" lon="1.72993">
        <ele>414.4</ele>
        <time>2022-05-20 23:01:08</time>
      </trkpt>
      <trkpt lat="41.66363" lon="1.73002">
        <ele>414.2</ele>
        <time>2022-05-20 23:01:09</time>
      </trkpt>
      <trkpt lat="41.66369" lon="1.73013">
        <ele>413.8</ele>
        <time>2022-05-20 23:01:10</time>
      </trkpt>
      <trkpt lat="41.66376" lon="1.73024">
        <ele>413.6</ele>
        <time>2022-05-20 23:01:11</time>
      </trkpt>
      <trkpt lat="41.66383" lon="1.73034">
        <ele>413.2</ele>
        <time>2022-05-20 23:01:12</time>
      </trkpt>
      <trkpt lat="41.66389" lon="1.73044">
        <ele>413</ele>
        <time>2022-05-20 23:01:13</time>
      </trkpt>
      <trkpt lat="41.66394" lon="1.73055">
        <ele>412.8</ele>
        <time>2022-05-20 23:01:14</time>
      </trkpt>
      <trkpt lat="41.66398" lon="1.73068">
        <ele>412.6</ele>
        <time>2022-05-20 23:01:15</time>
      </trkpt>
      <trkpt lat="41.66401" lon="1.7308">
        <ele>412.4</ele>
        <time>2022-05-20 23:01:16</time>
      </trkpt>
      <trkpt lat="41.66402" lon="1.73093">
        <ele>412.2</ele>
        <time>2022-05-20 23:01:17</time>
      </trkpt>
      <trkpt lat="41.66402" lon="1.73106">
        <ele>412</ele>
        <time>2022-05-20 23:01:18</time>
      </trkpt>
      <trkpt lat="41.66401" lon="1.73118">
        <ele>411.8</ele>
        <time>2022-05-20 23:01:19</time>
      </trkpt>
      <trkpt lat="41.664" lon="1.7313">
        <ele>411.6</ele>
        <time>2022-05-20 23:01:20</time>
      </trkpt>
      <trkpt lat="41.66398" lon="1.73142">
        <ele>411.4</ele>
        <time>2022-05-20 23:01:21</time>
      </trkpt>
      <trkpt lat="41.66396" lon="1.73154">
        <ele>411.2</ele>
        <time>2022-05-20 23:01:22</time>
      </trkpt>
      <trkpt lat="41.66393" lon="1.73167">
        <ele>411</ele>
        <time>2022-05-20 23:01:23</time>
      </trkpt>
      <trkpt lat="41.66391" lon="1.73179">
        <ele>410.8</ele>
        <time>2022-05-20 23:01:24</time>
      </trkpt>
      <trkpt lat="41.66389" lon="1.73191">
        <ele>410.8</ele>
        <time>2022-05-20 23:01:25</time>
      </trkpt>
      <trkpt lat="41.66387" lon="1.73203">
        <ele>410.6</ele>
        <time>2022-05-20 23:01:26</time>
      </trkpt>
      <trkpt lat="41.66387" lon="1.73215">
        <ele>410.4</ele>
        <time>2022-05-20 23:01:27</time>
      </trkpt>
      <trkpt lat="41.66388" lon="1.73228">
        <ele>410</ele>
        <time>2022-05-20 23:01:28</time>
      </trkpt>
      <trkpt lat="41.6639" lon="1.73241">
        <ele>409.6</ele>
        <time>2022-05-20 23:01:29</time>
      </trkpt>
      <trkpt lat="41.66391" lon="1.73254">
        <ele>409.2</ele>
        <time>2022-05-20 23:01:30</time>
      </trkpt>
      <trkpt lat="41.66393" lon="1.73267">
        <ele>408.8</ele>
        <time>2022-05-20 23:01:31</time>
      </trkpt>
      <trkpt lat="41.66393" lon="1.7328">
        <ele>408.4</ele>
        <time>2022-05-20 23:01:32</time>
      </trkpt>
      <trkpt lat="41.66393" lon="1.73294">
        <ele>407.8</ele>
        <time>2022-05-20 23:01:33</time>
      </trkpt>
      <trkpt lat="41.66392" lon="1.73307">
        <ele>407.4</ele>
        <time>2022-05-20 23:01:34</time>
      </trkpt>
      <trkpt lat="41.6639" lon="1.73321">
        <ele>406.8</ele>
        <time>2022-05-20 23:01:35</time>
      </trkpt>
      <trkpt lat="41.66389" lon="1.73335">
        <ele>406.2</ele>
        <time>2022-05-20 23:01:36</time>
      </trkpt>
      <trkpt lat="41.66388" lon="1.7335">
        <ele>405.8</ele>
        <time>2022-05-20 23:01:37</time>
      </trkpt>
      <trkpt lat="41.66389" lon="1.73365">
        <ele>405.2</ele>
        <time>2022-05-20 23:01:38</time>
      </trkpt>
      <trkpt lat="41.6639" lon="1.7338">
        <ele>404.6</ele>
        <time>2022-05-20 23:01:39</time>
      </trkpt>
      <trkpt lat="41.66392" lon="1.73394">
        <ele>404.2</ele>
        <time>2022-05-20 23:01:40</time>
      </trkpt>
      <trkpt lat="41.66394" lon="1.73409">
        <ele>403.6</ele>
        <time>2022-05-20 23:01:41</time>
      </trkpt>
      <trkpt lat="41.66393" lon="1.73421">
        <ele>403</ele>
        <time>2022-05-20 23:01:42</time>
      </trkpt>
      <trkpt lat="41.66389" lon="1.73433">
        <ele>402.6</ele>
        <time>2022-05-20 23:01:43</time>
      </trkpt>
      <trkpt lat="41.66383" lon="1.73444">
        <ele>402.2</ele>
        <time>2022-05-20 23:01:44</time>
      </trkpt>
      <trkpt lat="41.66375" lon="1.73454">
        <ele>401.8</ele>
        <time>2022-05-20 23:01:45</time>
      </trkpt>
      <trkpt lat="41.6637" lon="1.73464">
        <ele>401.4</ele>
        <time>2022-05-20 23:01:46</time>
      </trkpt>
      <trkpt lat="41.66369" lon="1.73474">
        <ele>400.8</ele>
        <time>2022-05-20 23:01:47</time>
      </trkpt>
      <trkpt lat="41.6637" lon="1.73485">
        <ele>400.4</ele>
        <time>2022-05-20 23:01:48</time>
      </trkpt>
      <trkpt lat="41.66372" lon="1.73497">
        <ele>399.6</ele>
        <time>2022-05-20 23:01:49</time>
      </trkpt>
      <trkpt lat="41.66374" lon="1.7351">
        <ele>399</ele>
        <time>2022-05-20 23:01:50</time>
      </trkpt>
      <trkpt lat="41.66373" lon="1.73523">
        <ele>398.4</ele>
        <time>2022-05-20 23:01:51</time>
      </trkpt>
      <trkpt lat="41.66372" lon="1.73534">
        <ele>397.8</ele>
        <time>2022-05-20 23:01:52</time>
      </trkpt>
      <trkpt lat="41.66371" lon="1.73545">
        <ele>397.2</ele>
        <time>2022-05-20 23:01:53</time>
      </trkpt>
      <trkpt lat="41.66373" lon="1.73554">
        <ele>396.8</ele>
        <time>2022-05-20 23:01:54</time>
      </trkpt>
      <trkpt lat="41.66378" lon="1.73559">
        <ele>396.2</ele>
        <time>2022-05-20 23:01:55</time>
      </trkpt>
      <trkpt lat="41.66385" lon="1.73559">
        <ele>395.6</ele>
        <time>2022-05-20 23:01:56</time>
      </trkpt>
      <trkpt lat="41.66391" lon="1.73554">
        <ele>395</ele>
        <time>2022-05-20 23:01:57</time>
      </trkpt>
      <trkpt lat="41.66396" lon="1.73547">
        <ele>394.4</ele>
        <time>2022-05-20 23:01:58</time>
      </trkpt>
      <trkpt lat="41.66401" lon="1.73539">
        <ele>393.8</ele>
        <time>2022-05-20 23:01:59</time>
      </trkpt>
      <trkpt lat="41.66407" lon="1.73533">
        <ele>393.2</ele>
        <time>2022-05-20 23:02:00</time>
      </trkpt>
      <trkpt lat="41.66415" lon="1.73529">
        <ele>392.6</ele>
        <time>2022-05-20 23:02:01</time>
      </trkpt>
      <trkpt lat="41.66423" lon="1.73528">
        <ele>392</ele>
        <time>2022-05-20 23:02:02</time>
      </trkpt>
      <trkpt lat="41.66432" lon="1.73529">
        <ele>391.4</ele>
        <time>2022-05-20 23:02:03</time>
      </trkpt>
      <trkpt lat="41.66439" lon="1.73533">
        <ele>390.8</ele>
        <time>2022-05-20 23:02:04</time>
      </trkpt>
      <trkpt lat="41.66447" lon="1.73541">
        <ele>390.2</ele>
        <time>2022-05-20 23:02:05</time>
      </trkpt>
      <trkpt lat="41.66453" lon="1.73549">
        <ele>389.6</ele>
        <time>2022-05-20 23:02:06</time>
      </trkpt>
      <trkpt lat="41.66458" lon="1.73559">
        <ele>389</ele>
        <time>2022-05-20 23:02:07</time>
      </trkpt>
      <trkpt lat="41.6646" lon="1.73569">
        <ele>388.4</ele>
        <time>2022-05-20 23:02:08</time>
      </trkpt>
      <trkpt lat="41.66462" lon="1.73581">
        <ele>387.8</ele>
        <time>2022-05-20 23:02:09</time>
      </trkpt>
      <trkpt lat="41.66461" lon="1.73594">
        <ele>387</ele>
        <time>2022-05-20 23:02:10</time>
      </trkpt>
      <trkpt lat="41.66458" lon="1.73609">
        <ele>386.2</ele>
        <time>2022-05-20 23:02:11</time>
      </trkpt>
      <trkpt lat="41.66455" lon="1.73625">
        <ele>385.4</ele>
        <time>2022-05-20 23:02:12</time>
      </trkpt>
      <trkpt lat="41.66454" lon="1.73641">
        <ele>384.6</ele>
        <time>2022-05-20 23:02:13</time>
      </trkpt>
      <trkpt lat="41.66452" lon="1.73656">
        <ele>383.8</ele>
        <time>2022-05-20 23:02:14</time>
      </trkpt>
      <trkpt lat="41.66451" lon="1.73671">
        <ele>383</ele>
        <time>2022-05-20 23:02:15</time>
      </trkpt>
      <trkpt lat="41.66447" lon="1.73686">
        <ele>382</ele>
        <time>2022-05-20 23:02:16</time>
      </trkpt>
      <trkpt lat="41.66442" lon="1.737">
        <ele>381.2</ele>
        <time>2022-05-20 23:02:17</time>
      </trkpt>
      <trkpt lat="41.66435" lon="1.73712">
        <ele>380.4</ele>
        <time>2022-05-20 23:02:18</time>
      </trkpt>
      <trkpt lat="41.66425" lon="1.73725">
        <ele>379.6</ele>
        <time>2022-05-20 23:02:19</time>
      </trkpt>
      <trkpt lat="41.66417" lon="1.73738">
        <ele>378.8</ele>
        <time>2022-05-20 23:02:20</time>
      </trkpt>
      <trkpt lat="41.66409" lon="1.7375">
        <ele>378</ele>
        <time>2022-05-20 23:02:21</time>
      </trkpt>
      <trkpt lat="41.66403" lon="1.73764">
        <ele>377.4</ele>
        <time>2022-05-20 23:02:22</time>
      </trkpt>
      <trkpt lat="41.66397" lon="1.73778">
        <ele>376.8</ele>
        <time>2022-05-20 23:02:23</time>
      </trkpt>
      <trkpt lat="41.66394" lon="1.73791">
        <ele>376.2</ele>
        <time>2022-05-20 23:02:24</time>
      </trkpt>
      <trkpt lat="41.66394" lon="1.73803">
        <ele>375.6</ele>
        <time>2022-05-20 23:02:25</time>
      </trkpt>
      <trkpt lat="41.66397" lon="1.73812">
        <ele>375</ele>
        <time>2022-05-20 23:02:26</time>
      </trkpt>
      <trkpt lat="41.66402" lon="1.73819">
        <ele>374.4</ele>
        <time>2022-05-20 23:02:27</time>
      </trkpt>
      <trkpt lat="41.66409" lon="1.73824">
        <ele>374</ele>
        <time>2022-05-20 23:02:28</time>
      </trkpt>
      <trkpt lat="41.66416" lon="1.73825">
        <ele>373.4</ele>
        <time>2022-05-20 23:02:29</time>
      </trkpt>
      <trkpt lat="41.66424" lon="1.73824">
        <ele>372.6</ele>
        <time>2022-05-20 23:02:30</time>
      </trkpt>
      <trkpt lat="41.66432" lon="1.73823">
        <ele>372</ele>
        <time>2022-05-20 23:02:31</time>
      </trkpt>
      <trkpt lat="41.6644" lon="1.73824">
        <ele>371.4</ele>
        <time>2022-05-20 23:02:32</time>
      </trkpt>
      <trkpt lat="41.66447" lon="1.73828">
        <ele>370.6</ele>
        <time>2022-05-20 23:02:33</time>
      </trkpt>
      <trkpt lat="41.66454" lon="1.73834">
        <ele>370</ele>
        <time>2022-05-20 23:02:34</time>
      </trkpt>
      <trkpt lat="41.66459" lon="1.73842">
        <ele>369.2</ele>
        <time>2022-05-20 23:02:35</time>
      </trkpt>
      <trkpt lat="41.66463" lon="1.73851">
        <ele>368.6</ele>
        <time>2022-05-20 23:02:36</time>
      </trkpt>
      <trkpt lat="41.66465" lon="1.73862">
        <ele>367.8</ele>
        <time>2022-05-20 23:02:37</time>
      </trkpt>
      <trkpt lat="41.66467" lon="1.73874">
        <ele>367</ele>
        <time>2022-05-20 23:02:38</time>
      </trkpt>
      <trkpt lat="41.66471" lon="1.73887">
        <ele>366</ele>
        <time>2022-05-20 23:02:39</time>
      </trkpt>
      <trkpt lat="41.66475" lon="1.739">
        <ele>365.2</ele>
        <time>2022-05-20 23:02:40</time>
      </trkpt>
      <trkpt lat="41.66479" lon="1.73912">
        <ele>364.4</ele>
        <time>2022-05-20 23:02:41</time>
      </trkpt>
      <trkpt lat="41.66483" lon="1.73925">
        <ele>363.6</ele>
        <time>2022-05-20 23:02:42</time>
      </trkpt>
      <trkpt lat="41.66488" lon="1.73939">
        <ele>362.8</ele>
        <time>2022-05-20 23:02:43</time>
      </trkpt>
      <trkpt lat="41.66493" lon="1.73952">
        <ele>361.8</ele>
        <time>2022-05-20 23:02:44</time>
      </trkpt>
      <trkpt lat="41.66498" lon="1.73968">
        <ele>361</ele>
        <time>2022-05-20 23:02:45</time>
      </trkpt>
      <trkpt lat="41.66503" lon="1.73983">
        <ele>360</ele>
        <time>2022-05-20 23:02:46</time>
      </trkpt>
      <trkpt lat="41.66508" lon="1.73997">
        <ele>359.2</ele>
        <time>2022-05-20 23:02:47</time>
      </trkpt>
      <trkpt lat="41.66514" lon="1.74013">
        <ele>358.2</ele>
        <time>2022-05-20 23:02:48</time>
      </trkpt>
      <trkpt lat="41.66521" lon="1.74027">
        <ele>357.4</ele>
        <time>2022-05-20 23:02:49</time>
      </trkpt>
      <trkpt lat="41.66527" lon="1.74039">
        <ele>356.6</ele>
        <time>2022-05-20 23:02:50</time>
      </trkpt>
      <trkpt lat="41.66536" lon="1.74048">
        <ele>355.6</ele>
        <time>2022-05-20 23:02:51</time>
      </trkpt>
      <trkpt lat="41.66547" lon="1.74057">
        <ele>354.6</ele>
        <time>2022-05-20 23:02:52</time>
      </trkpt>
      <trkpt lat="41.66557" lon="1.74064">
        <ele>353.6</ele>
        <time>2022-05-20 23:02:53</time>
      </trkpt>
      <trkpt lat="41.66567" lon="1.74069">
        <ele>352.8</ele>
        <time>2022-05-20 23:02:54</time>
      </trkpt>
      <trkpt lat="41.66577" lon="1.74072">
        <ele>352</ele>
        <time>2022-05-20 23:02:55</time>
      </trkpt>
      <trkpt lat="41.66587" lon="1.74073">
        <ele>351</ele>
        <time>2022-05-20 23:02:56</time>
      </trkpt>
      <trkpt lat="41.66596" lon="1.7407">
        <ele>350.2</ele>
        <time>2022-05-20 23:02:57</time>
      </trkpt>
      <trkpt lat="41.66602" lon="1.74063">
        <ele>349.4</ele>
        <time>2022-05-20 23:02:58</time>
      </trkpt>
      <trkpt lat="41.66607" lon="1.74053">
        <ele>348.6</ele>
        <time>2022-05-20 23:02:59</time>
      </trkpt>
      <trkpt lat="41.66611" lon="1.74043">
        <ele>347.8</ele>
        <time>2022-05-20 23:03:00</time>
      </trkpt>
      <trkpt lat="41.66615" lon="1.74029">
        <ele>347</ele>
        <time>2022-05-20 23:03:01</time>
      </trkpt>
      <trkpt lat="41.66619" lon="1.74014">
        <ele>346.2</ele>
        <time>2022-05-20 23:03:02</time>
      </trkpt>
      <trkpt lat="41.66623" lon="1.74001">
        <ele>345.6</ele>
        <time>2022-05-20 23:03:03</time>
      </trkpt>
      <trkpt lat="41.66628" lon="1.7399">
        <ele>344.8</ele>
        <time>2022-05-20 23:03:04</time>
      </trkpt>
      <trkpt lat="41.66632" lon="1.7398">
        <ele>344.2</ele>
        <time>2022-05-20 23:03:05</time>
      </trkpt>
      <trkpt lat="41.66639" lon="1.73972">
        <ele>343.6</ele>
        <time>2022-05-20 23:03:06</time>
      </trkpt>
      <trkpt lat="41.66647" lon="1.73966">
        <ele>342.8</ele>
        <time>2022-05-20 23:03:07</time>
      </trkpt>
      <trkpt lat="41.66655" lon="1.73962">
        <ele>342</ele>
        <time>2022-05-20 23:03:08</time>
      </trkpt>
      <trkpt lat="41.66662" lon="1.73962">
        <ele>341.4</ele>
        <time>2022-05-20 23:03:09</time>
      </trkpt>
      <trkpt lat="41.6667" lon="1.73966">
        <ele>340.8</ele>
        <time>2022-05-20 23:03:10</time>
      </trkpt>
      <trkpt lat="41.66675" lon="1.73973">
        <ele>340.4</ele>
        <time>2022-05-20 23:03:11</time>
      </trkpt>
      <trkpt lat="41.66678" lon="1.73981">
        <ele>339.8</ele>
        <time>2022-05-20 23:03:12</time>
      </trkpt>
      <trkpt lat="41.66678" lon="1.73991">
        <ele>339.2</ele>
        <time>2022-05-20 23:03:13</time>
      </trkpt>
      <trkpt lat="41.66675" lon="1.74004">
        <ele>338.8</ele>
        <time>2022-05-20 23:03:14</time>
      </trkpt>
      <trkpt lat="41.66669" lon="1.74016">
        <ele>338.2</ele>
        <time>2022-05-20 23:03:15</time>
      </trkpt>
      <trkpt lat="41.66665" lon="1.74026">
        <ele>337.6</ele>
        <time>2022-05-20 23:03:16</time>
      </trkpt>
      <trkpt lat="41.66662" lon="1.74039">
        <ele>337</ele>
        <time>2022-05-20 23:03:17</time>
      </trkpt>
      <trkpt lat="41.6666" lon="1.74051">
        <ele>336.4</ele>
        <time>2022-05-20 23:03:18</time>
      </trkpt>
      <trkpt lat="41.6666" lon="1.74063">
        <ele>335.6</ele>
        <time>2022-05-20 23:03:19</time>
      </trkpt>
      <trkpt lat="41.66659" lon="1.74077">
        <ele>334.8</ele>
        <time>2022-05-20 23:03:20</time>
      </trkpt>
      <trkpt lat="41.66659" lon="1.74092">
        <ele>333.8</ele>
        <time>2022-05-20 23:03:21</time>
      </trkpt>
      <trkpt lat="41.66658" lon="1.74107">
        <ele>332.8</ele>
        <time>2022-05-20 23:03:22</time>
      </trkpt>
      <trkpt lat="41.66658" lon="1.74123">
        <ele>331.8</ele>
        <time>2022-05-20 23:03:23</time>
      </trkpt>
      <trkpt lat="41.66659" lon="1.74139">
        <ele>330.8</ele>
        <time>2022-05-20 23:03:24</time>
      </trkpt>
      <trkpt lat="41.6666" lon="1.74157">
        <ele>329.6</ele>
        <time>2022-05-20 23:03:25</time>
      </trkpt>
      <trkpt lat="41.6666" lon="1.74175">
        <ele>328.6</ele>
        <time>2022-05-20 23:03:26</time>
      </trkpt>
      <trkpt lat="41.66661" lon="1.74192">
        <ele>327.4</ele>
        <time>2022-05-20 23:03:27</time>
      </trkpt>
      <trkpt lat="41.66662" lon="1.74208">
        <ele>326.2</ele>
        <time>2022-05-20 23:03:28</time>
      </trkpt>
      <trkpt lat="41.66664" lon="1.74226">
        <ele>325.2</ele>
        <time>2022-05-20 23:03:29</time>
      </trkpt>
      <trkpt lat="41.66665" lon="1.74243">
        <ele>324.2</ele>
        <time>2022-05-20 23:03:30</time>
      </trkpt>
      <trkpt lat="41.66667" lon="1.74257">
        <ele>323.4</ele>
        <time>2022-05-20 23:03:31</time>
      </trkpt>
      <trkpt lat="41.6667" lon="1.74268">
        <ele>322.8</ele>
        <time>2022-05-20 23:03:32</time>
      </trkpt>
      <trkpt lat="41.66674" lon="1.74279">
        <ele>322</ele>
        <time>2022-05-20 23:03:33</time>
      </trkpt>
      <trkpt lat="41.66681" lon="1.74287">
        <ele>321.4</ele>
        <time>2022-05-20 23:03:34</time>
      </trkpt>
      <trkpt lat="41.66689" lon="1.74293">
        <ele>320.6</ele>
        <time>2022-05-20 23:03:35</time>
      </trkpt>
      <trkpt lat="41.66697" lon="1.74298">
        <ele>319.6</ele>
        <time>2022-05-20 23:03:36</time>
      </trkpt>
      <trkpt lat="41.66706" lon="1.74302">
        <ele>319</ele>
        <time>2022-05-20 23:03:37</time>
      </trkpt>
      <trkpt lat="41.66714" lon="1.74306">
        <ele>318.2</ele>
        <time>2022-05-20 23:03:38</time>
      </trkpt>
      <trkpt lat="41.66721" lon="1.74312">
        <ele>317.4</ele>
        <time>2022-05-20 23:03:39</time>
      </trkpt>
      <trkpt lat="41.66726" lon="1.74319">
        <ele>316.8</ele>
        <time>2022-05-20 23:03:40</time>
      </trkpt>
      <trkpt lat="41.66728" lon="1.74329">
        <ele>316.4</ele>
        <time>2022-05-20 23:03:41</time>
      </trkpt>
      <trkpt lat="41.66727" lon="1.74338">
        <ele>316</ele>
        <time>2022-05-20 23:03:42</time>
      </trkpt>
      <trkpt lat="41.66726" lon="1.74346">
        <ele>315.6</ele>
        <time>2022-05-20 23:03:43</time>
      </trkpt>
      <trkpt lat="41.66724" lon="1.74355">
        <ele>315.4</ele>
        <time>2022-05-20 23:03:44</time>
      </trkpt>
      <trkpt lat="41.66722" lon="1.74366">
        <ele>315.2</ele>
        <time>2022-05-20 23:03:45</time>
      </trkpt>
      <trkpt lat="41.66722" lon="1.74375">
        <ele>315</ele>
        <time>2022-05-20 23:03:46</time>
      </trkpt>
      <trkpt lat="41.66723" lon="1.74387">
        <ele>314.8</ele>
        <time>2022-05-20 23:03:47</time>
      </trkpt>
      <trkpt lat="41.66725" lon="1.74396">
        <ele>314.8</ele>
        <time>2022-05-20 23:03:48</time>
      </trkpt>
      <trkpt lat="41.66728" lon="1.74405">
        <ele>314.6</ele>
        <time>2022-05-20 23:03:49</time>
      </trkpt>
      <trkpt lat="41.66732" lon="1.74413">
        <ele>314.6</ele>
        <time>2022-05-20 23:03:50</time>
      </trkpt>
      <trkpt lat="41.66737" lon="1.74422">
        <ele>314.6</ele>
        <time>2022-05-20 23:03:51</time>
      </trkpt>
      <trkpt lat="41.66742" lon="1.74429">
        <ele>314.4</ele>
        <time>2022-05-20 23:03:52</time>
      </trkpt>
      <trkpt lat="41.66748" lon="1.74437">
        <ele>314.4</ele>
        <time>2022-05-20 23:03:53</time>
      </trkpt>
      <trkpt lat="41.66753" lon="1.74445">
        <ele>314.4</ele>
        <time>2022-05-20 23:03:54</time>
      </trkpt>
      <trkpt lat="41.66758" lon="1.74453">
        <ele>314.2</ele>
        <time>2022-05-20 23:03:55</time>
      </trkpt>
      <trkpt lat="41.66763" lon="1.74461">
        <ele>314.2</ele>
        <time>2022-05-20 23:03:56</time>
      </trkpt>
      <trkpt lat="41.66768" lon="1.74468">
        <ele>314.2</ele>
        <time>2022-05-20 23:03:57</time>
      </trkpt>
      <trkpt lat="41.66773" lon="1.74476">
        <ele>314</ele>
        <time>2022-05-20 23:03:58</time>
      </trkpt>
      <trkpt lat="41.66779" lon="1.74485">
        <ele>314</ele>
        <time>2022-05-20 23:03:59</time>
      </trkpt>
      <trkpt lat="41.66784" lon="1.74493">
        <ele>314</ele>
        <time>2022-05-20 23:04:00</time>
      </trkpt>
      <trkpt lat="41.6679" lon="1.74501">
        <ele>313.8</ele>
        <time>2022-05-20 23:04:01</time>
      </trkpt>
      <trkpt lat="41.66795" lon="1.74509">
        <ele>313.8</ele>
        <time>2022-05-20 23:04:02</time>
      </trkpt>
      <trkpt lat="41.668" lon="1.74517">
        <ele>313.8</ele>
        <time>2022-05-20 23:04:03</time>
      </trkpt>
      <trkpt lat="41.66805" lon="1.74525">
        <ele>313.8</ele>
        <time>2022-05-20 23:04:04</time>
      </trkpt>
      <trkpt lat="41.6681" lon="1.74533">
        <ele>313.6</ele>
        <time>2022-05-20 23:04:05</time>
      </trkpt>
      <trkpt lat="41.66816" lon="1.74541">
        <ele>313.6</ele>
        <time>2022-05-20 23:04:06</time>
      </trkpt>
      <trkpt lat="41.66821" lon="1.7455">
        <ele>313.6</ele>
        <time>2022-05-20 23:04:07</time>
      </trkpt>
      <trkpt lat="41.66826" lon="1.74557">
        <ele>313.6</ele>
        <time>2022-05-20 23:04:08</time>
      </trkpt>
      <trkpt lat="41.66831" lon="1.74565">
        <ele>313.4</ele>
        <time>2022-05-20 23:04:09</time>
      </trkpt>
      <trkpt lat="41.66837" lon="1.74575">
        <ele>313.4</ele>
        <time>2022-05-20 23:04:10</time>
      </trkpt>
      <trkpt lat="41.66842" lon="1.74584">
        <ele>313.4</ele>
        <time>2022-05-20 23:04:11</time>
      </trkpt>
      <trkpt lat="41.66848" lon="1.74593">
        <ele>313.4</ele>
        <time>2022-05-20 23:04:12</time>
      </trkpt>
      <trkpt lat="41.66853" lon="1.74601">
        <ele>313.2</ele>
        <time>2022-05-20 23:04:13</time>
      </trkpt>
      <trkpt lat="41.66858" lon="1.7461">
        <ele>313.2</ele>
        <time>2022-05-20 23:04:14</time>
      </trkpt>
      <trkpt lat="41.66864" lon="1.74619">
        <ele>313.2</ele>
        <time>2022-05-20 23:04:15</time>
      </trkpt>
      <trkpt lat="41.66869" lon="1.74628">
        <ele>313.2</ele>
        <time>2022-05-20 23:04:16</time>
      </trkpt>
      <trkpt lat="41.66874" lon="1.74636">
        <ele>313.2</ele>
        <time>2022-05-20 23:04:17</time>
      </trkpt>
      <trkpt lat="41.66879" lon="1.74644">
        <ele>313.2</ele>
        <time>2022-05-20 23:04:18</time>
      </trkpt>
      <trkpt lat="41.66885" lon="1.74652">
        <ele>313.2</ele>
        <time>2022-05-20 23:04:19</time>
      </trkpt>
      <trkpt lat="41.6689" lon="1.74661">
        <ele>313.2</ele>
        <time>2022-05-20 23:04:20</time>
      </trkpt>
      <trkpt lat="41.66896" lon="1.74669">
        <ele>313.2</ele>
        <time>2022-05-20 23:04:21</time>
      </trkpt>
      <trkpt lat="41.66901" lon="1.74678">
        <ele>313.2</ele>
        <time>2022-05-20 23:04:22</time>
      </trkpt>
      <trkpt lat="41.66907" lon="1.74686">
        <ele>313.2</ele>
        <time>2022-05-20 23:04:23</time>
      </trkpt>
      <trkpt lat="41.66912" lon="1.74694">
        <ele>313.2</ele>
        <time>2022-05-20 23:04:24</time>
      </trkpt>
      <trkpt lat="41.66918" lon="1.74702">
        <ele>313.2</ele>
        <time>2022-05-20 23:04:25</time>
      </trkpt>
      <trkpt lat="41.66923" lon="1.7471">
        <ele>313.2</ele>
        <time>2022-05-20 23:04:26</time>
      </trkpt>
      <trkpt lat="41.66929" lon="1.74718">
        <ele>313.2</ele>
        <time>2022-05-20 23:04:27</time>
      </trkpt>
      <trkpt lat="41.66934" lon="1.74725">
        <ele>313.2</ele>
        <time>2022-05-20 23:04:28</time>
      </trkpt>
      <trkpt lat="41.6694" lon="1.74733">
        <ele>313.2</ele>
        <time>2022-05-20 23:04:29</time>
      </trkpt>
      <trkpt lat="41.66945" lon="1.74741">
        <ele>313.2</ele>
        <time>2022-05-20 23:04:30</time>
      </trkpt>
      <trkpt lat="41.6695" lon="1.74749">
        <ele>313.2</ele>
        <time>2022-05-20 23:04:31</time>
      </trkpt>
      <trkpt lat="41.66955" lon="1.74757">
        <ele>313.2</ele>
        <time>2022-05-20 23:04:32</time>
      </trkpt>
      <trkpt lat="41.6696" lon="1.74764">
        <ele>313.2</ele>
        <time>2022-05-20 23:04:33</time>
      </trkpt>
      <trkpt lat="41.66965" lon="1.74772">
        <ele>313.2</ele>
        <time>2022-05-20 23:04:34</time>
      </trkpt>
      <trkpt lat="41.6697" lon="1.7478">
        <ele>313.2</ele>
        <time>2022-05-20 23:04:35</time>
      </trkpt>
      <trkpt lat="41.66976" lon="1.74787">
        <ele>313.2</ele>
        <time>2022-05-20 23:04:36</time>
      </trkpt>
      <trkpt lat="41.66981" lon="1.74795">
        <ele>313.2</ele>
        <time>2022-05-20 23:04:37</time>
      </trkpt>
      <trkpt lat="41.66986" lon="1.74802">
        <ele>313.2</ele>
        <time>2022-05-20 23:04:38</time>
      </trkpt>
      <trkpt lat="41.66991" lon="1.7481">
        <ele>313.2</ele>
        <time>2022-05-20 23:04:39</time>
      </trkpt>
      <trkpt lat="41.66996" lon="1.74817">
        <ele>313</ele>
        <time>2022-05-20 23:04:40</time>
      </trkpt>
      <trkpt lat="41.67001" lon="1.74825">
        <ele>313</ele>
        <time>2022-05-20 23:04:41</time>
      </trkpt>
      <trkpt lat="41.67006" lon="1.74832">
        <ele>313</ele>
        <time>2022-05-20 23:04:42</time>
      </trkpt>
      <trkpt lat="41.67012" lon="1.74839">
        <ele>313</ele>
        <time>2022-05-20 23:04:43</time>
      </trkpt>
      <trkpt lat="41.67017" lon="1.74846">
        <ele>313</ele>
        <time>2022-05-20 23:04:44</time>
      </trkpt>
      <trkpt lat="41.67023" lon="1.74853">
        <ele>313</ele>
        <time>2022-05-20 23:04:45</time>
      </trkpt>
      <trkpt lat="41.67028" lon="1.74859">
        <ele>313</ele>
        <time>2022-05-20 23:04:46</time>
      </trkpt>
      <trkpt lat="41.67035" lon="1.74865">
        <ele>313</ele>
        <time>2022-05-20 23:04:47</time>
      </trkpt>
      <trkpt lat="41.67041" lon="1.74871">
        <ele>312.8</ele>
        <time>2022-05-20 23:04:48</time>
      </trkpt>
      <trkpt lat="41.67047" lon="1.74877">
        <ele>312.8</ele>
        <time>2022-05-20 23:04:49</time>
      </trkpt>
      <trkpt lat="41.67053" lon="1.74883">
        <ele>312.8</ele>
        <time>2022-05-20 23:04:50</time>
      </trkpt>
      <trkpt lat="41.67059" lon="1.74889">
        <ele>312.8</ele>
        <time>2022-05-20 23:04:51</time>
      </trkpt>
      <trkpt lat="41.67064" lon="1.74896">
        <ele>312.6</ele>
        <time>2022-05-20 23:04:52</time>
      </trkpt>
      <trkpt lat="41.6707" lon="1.74902">
        <ele>312.6</ele>
        <time>2022-05-20 23:04:53</time>
      </trkpt>
      <trkpt lat="41.67076" lon="1.74909">
        <ele>312.4</ele>
        <time>2022-05-20 23:04:54</time>
      </trkpt>
      <trkpt lat="41.67081" lon="1.74916">
        <ele>312.2</ele>
        <time>2022-05-20 23:04:55</time>
      </trkpt>
      <trkpt lat="41.67087" lon="1.74923">
        <ele>312</ele>
        <time>2022-05-20 23:04:56</time>
      </trkpt>
      <trkpt lat="41.67093" lon="1.74931">
        <ele>311.8</ele>
        <time>2022-05-20 23:04:57</time>
      </trkpt>
      <trkpt lat="41.67099" lon="1.7494">
        <ele>311.2</ele>
        <time>2022-05-20 23:04:58</time>
      </trkpt>
      <trkpt lat="41.67104" lon="1.74948">
        <ele>310.8</ele>
        <time>2022-05-20 23:04:59</time>
      </trkpt>
      <trkpt lat="41.67109" lon="1.74958">
        <ele>310.2</ele>
        <time>2022-05-20 23:05:00</time>
      </trkpt>
      <trkpt lat="41.67115" lon="1.74969">
        <ele>309.4</ele>
        <time>2022-05-20 23:05:01</time>
      </trkpt>
      <trkpt lat="41.67122" lon="1.7498">
        <ele>308.8</ele>
        <time>2022-05-20 23:05:02</time>
      </trkpt>
      <trkpt lat="41.67128" lon="1.74992">
        <ele>307.8</ele>
        <time>2022-05-20 23:05:03</time>
      </trkpt>
      <trkpt lat="41.67134" lon="1.75004">
        <ele>306.8</ele>
        <time>2022-05-20 23:05:04</time>
      </trkpt>
      <trkpt lat="41.6714" lon="1.75017">
        <ele>305.8</ele>
        <time>2022-05-20 23:05:05</time>
      </trkpt>
      <trkpt lat="41.67146" lon="1.7503">
        <ele>304.6</ele>
        <time>2022-05-20 23:05:06</time>
      </trkpt>
      <trkpt lat="41.67153" lon="1.75043">
        <ele>303.6</ele>
        <time>2022-05-20 23:05:07</time>
      </trkpt>
      <trkpt lat="41.6716" lon="1.75057">
        <ele>302.6</ele>
        <time>2022-05-20 23:05:08</time>
      </trkpt>
      <trkpt lat="41.67167" lon="1.7507">
        <ele>301.6</ele>
        <time>2022-05-20 23:05:09</time>
      </trkpt>
      <trkpt lat="41.67175" lon="1.75083">
        <ele>300.6</ele>
        <time>2022-05-20 23:05:10</time>
      </trkpt>
      <trkpt lat="41.67181" lon="1.75097">
        <ele>300</ele>
        <time>2022-05-20 23:05:11</time>
      </trkpt>
      <trkpt lat="41.67188" lon="1.7511">
        <ele>299.2</ele>
        <time>2022-05-20 23:05:12</time>
      </trkpt>
      <trkpt lat="41.67195" lon="1.75124">
        <ele>298.6</ele>
        <time>2022-05-20 23:05:13</time>
      </trkpt>
      <trkpt lat="41.67202" lon="1.75137">
        <ele>298</ele>
        <time>2022-05-20 23:05:14</time>
      </trkpt>
      <trkpt lat="41.67208" lon="1.75149">
        <ele>297.4</ele>
        <time>2022-05-20 23:05:15</time>
      </trkpt>
      <trkpt lat="41.67214" lon="1.75161">
        <ele>296.8</ele>
        <time>2022-05-20 23:05:16</time>
      </trkpt>
      <trkpt lat="41.67221" lon="1.75176">
        <ele>296.2</ele>
        <time>2022-05-20 23:05:17</time>
      </trkpt>
      <trkpt lat="41.67227" lon="1.75191">
        <ele>295.6</ele>
        <time>2022-05-20 23:05:18</time>
      </trkpt>
      <trkpt lat="41.67232" lon="1.75205">
        <ele>295.2</ele>
        <time>2022-05-20 23:05:19</time>
      </trkpt>
      <trkpt lat="41.67234" lon="1.75219">
        <ele>294.8</ele>
        <time>2022-05-20 23:05:20</time>
      </trkpt>
      <trkpt lat="41.67236" lon="1.75233">
        <ele>294.4</ele>
        <time>2022-05-20 23:05:21</time>
      </trkpt>
      <trkpt lat="41.67236" lon="1.75248">
        <ele>294.4</ele>
        <time>2022-05-20 23:05:22</time>
      </trkpt>
      <trkpt lat="41.67235" lon="1.75261">
        <ele>294.2</ele>
        <time>2022-05-20 23:05:23</time>
      </trkpt>
      <trkpt lat="41.67232" lon="1.75274">
        <ele>294.4</ele>
        <time>2022-05-20 23:05:24</time>
      </trkpt>
      <trkpt lat="41.67227" lon="1.75287">
        <ele>294.4</ele>
        <time>2022-05-20 23:05:25</time>
      </trkpt>
      <trkpt lat="41.67224" lon="1.75299">
        <ele>294.4</ele>
        <time>2022-05-20 23:05:26</time>
      </trkpt>
      <trkpt lat="41.6722" lon="1.75311">
        <ele>294.6</ele>
        <time>2022-05-20 23:05:27</time>
      </trkpt>
      <trkpt lat="41.67217" lon="1.75322">
        <ele>294.8</ele>
        <time>2022-05-20 23:05:28</time>
      </trkpt>
      <trkpt lat="41.67215" lon="1.75333">
        <ele>295</ele>
        <time>2022-05-20 23:05:29</time>
      </trkpt>
      <trkpt lat="41.67213" lon="1.75344">
        <ele>295.2</ele>
        <time>2022-05-20 23:05:30</time>
      </trkpt>
      <trkpt lat="41.67212" lon="1.75355">
        <ele>295.2</ele>
        <time>2022-05-20 23:05:31</time>
      </trkpt>
      <trkpt lat="41.67213" lon="1.75366">
        <ele>295.4</ele>
        <time>2022-05-20 23:05:32</time>
      </trkpt>
      <trkpt lat="41.67215" lon="1.75376">
        <ele>295.4</ele>
        <time>2022-05-20 23:05:33</time>
      </trkpt>
      <trkpt lat="41.67218" lon="1.75386">
        <ele>295.6</ele>
        <time>2022-05-20 23:05:34</time>
      </trkpt>
      <trkpt lat="41.67223" lon="1.75396">
        <ele>295.6</ele>
        <time>2022-05-20 23:05:35</time>
      </trkpt>
      <trkpt lat="41.67229" lon="1.75405">
        <ele>295.4</ele>
        <time>2022-05-20 23:05:36</time>
      </trkpt>
      <trkpt lat="41.67235" lon="1.75412">
        <ele>295.2</ele>
        <time>2022-05-20 23:05:37</time>
      </trkpt>
      <trkpt lat="41.67242" lon="1.75418">
        <ele>295</ele>
        <time>2022-05-20 23:05:38</time>
      </trkpt>
      <trkpt lat="41.67252" lon="1.75422">
        <ele>294.6</ele>
        <time>2022-05-20 23:05:39</time>
      </trkpt>
      <trkpt lat="41.67261" lon="1.75425">
        <ele>294.4</ele>
        <time>2022-05-20 23:05:40</time>
      </trkpt>
      <trkpt lat="41.6727" lon="1.75427">
        <ele>294</ele>
        <time>2022-05-20 23:05:41</time>
      </trkpt>
      <trkpt lat="41.67279" lon="1.75431">
        <ele>293.4</ele>
        <time>2022-05-20 23:05:42</time>
      </trkpt>
      <trkpt lat="41.67288" lon="1.75435">
        <ele>293</ele>
        <time>2022-05-20 23:05:43</time>
      </trkpt>
      <trkpt lat="41.67297" lon="1.75442">
        <ele>292.4</ele>
        <time>2022-05-20 23:05:44</time>
      </trkpt>
      <trkpt lat="41.67304" lon="1.7545">
        <ele>291.8</ele>
        <time>2022-05-20 23:05:45</time>
      </trkpt>
      <trkpt lat="41.67311" lon="1.75459">
        <ele>291.4</ele>
        <time>2022-05-20 23:05:46</time>
      </trkpt>
      <trkpt lat="41.67318" lon="1.75468">
        <ele>291</ele>
        <time>2022-05-20 23:05:47</time>
      </trkpt>
      <trkpt lat="41.67326" lon="1.75479">
        <ele>290.6</ele>
        <time>2022-05-20 23:05:48</time>
      </trkpt>
      <trkpt lat="41.67333" lon="1.75489">
        <ele>290.2</ele>
        <time>2022-05-20 23:05:49</time>
      </trkpt>
      <trkpt lat="41.67339" lon="1.75498">
        <ele>290</ele>
        <time>2022-05-20 23:05:50</time>
      </trkpt>
      <trkpt lat="41.67346" lon="1.75507">
        <ele>289.8</ele>
        <time>2022-05-20 23:05:51</time>
      </trkpt>
      <trkpt lat="41.67353" lon="1.75517">
        <ele>289.6</ele>
        <time>2022-05-20 23:05:52</time>
      </trkpt>
      <trkpt lat="41.6736" lon="1.75526">
        <ele>289.4</ele>
        <time>2022-05-20 23:05:53</time>
      </trkpt>
      <trkpt lat="41.67367" lon="1.75536">
        <ele>289.4</ele>
        <time>2022-05-20 23:05:54</time>
      </trkpt>
      <trkpt lat="41.67374" lon="1.75544">
        <ele>289.2</ele>
        <time>2022-05-20 23:05:55</time>
      </trkpt>
      <trkpt lat="41.67381" lon="1.75553">
        <ele>289.2</ele>
        <time>2022-05-20 23:05:56</time>
      </trkpt>
      <trkpt lat="41.67387" lon="1.75562">
        <ele>289</ele>
        <time>2022-05-20 23:05:57</time>
      </trkpt>
      <trkpt lat="41.67394" lon="1.7557">
        <ele>289</ele>
        <time>2022-05-20 23:05:58</time>
      </trkpt>
      <trkpt lat="41.67401" lon="1.75578">
        <ele>289</ele>
        <time>2022-05-20 23:05:59</time>
      </trkpt>
      <trkpt lat="41.67408" lon="1.75584">
        <ele>289</ele>
        <time>2022-05-20 23:06:00</time>
      </trkpt>
      <trkpt lat="41.67415" lon="1.75589">
        <ele>289</ele>
        <time>2022-05-20 23:06:01</time>
      </trkpt>
      <trkpt lat="41.67424" lon="1.75596">
        <ele>289.2</ele>
        <time>2022-05-20 23:06:02</time>
      </trkpt>
      <trkpt lat="41.67432" lon="1.756">
        <ele>289.2</ele>
        <time>2022-05-20 23:06:03</time>
      </trkpt>
      <trkpt lat="41.67439" lon="1.75605">
        <ele>289.4</ele>
        <time>2022-05-20 23:06:04</time>
      </trkpt>
      <trkpt lat="41.67447" lon="1.75609">
        <ele>289.6</ele>
        <time>2022-05-20 23:06:05</time>
      </trkpt>
      <trkpt lat="41.67454" lon="1.75613">
        <ele>289.8</ele>
        <time>2022-05-20 23:06:06</time>
      </trkpt>
      <trkpt lat="41.6746" lon="1.75616">
        <ele>290</ele>
        <time>2022-05-20 23:06:07</time>
      </trkpt>
      <trkpt lat="41.67467" lon="1.7562">
        <ele>290.2</ele>
        <time>2022-05-20 23:06:08</time>
      </trkpt>
      <trkpt lat="41.67474" lon="1.75624">
        <ele>290.4</ele>
        <time>2022-05-20 23:06:09</time>
      </trkpt>
      <trkpt lat="41.6748" lon="1.75628">
        <ele>290.6</ele>
        <time>2022-05-20 23:06:10</time>
      </trkpt>
      <trkpt lat="41.67487" lon="1.75632">
        <ele>291</ele>
        <time>2022-05-20 23:06:11</time>
      </trkpt>
      <trkpt lat="41.67492" lon="1.75637">
        <ele>291.2</ele>
        <time>2022-05-20 23:06:12</time>
      </trkpt>
      <trkpt lat="41.67496" lon="1.75644">
        <ele>291.4</ele>
        <time>2022-05-20 23:06:13</time>
      </trkpt>
      <trkpt lat="41.675" lon="1.75652">
        <ele>291.6</ele>
        <time>2022-05-20 23:06:14</time>
      </trkpt>
      <trkpt lat="41.67503" lon="1.75659">
        <ele>291.8</ele>
        <time>2022-05-20 23:06:15</time>
      </trkpt>
      <trkpt lat="41.67506" lon="1.75667">
        <ele>292</ele>
        <time>2022-05-20 23:06:16</time>
      </trkpt>
      <trkpt lat="41.67509" lon="1.75675">
        <ele>292.2</ele>
        <time>2022-05-20 23:06:17</time>
      </trkpt>
      <trkpt lat="41.67513" lon="1.75683">
        <ele>292.2</ele>
        <time>2022-05-20 23:06:18</time>
      </trkpt>
      <trkpt lat="41.67516" lon="1.7569">
        <ele>292.4</ele>
        <time>2022-05-20 23:06:19</time>
      </trkpt>
      <trkpt lat="41.67518" lon="1.75698">
        <ele>292.6</ele>
        <time>2022-05-20 23:06:20</time>
      </trkpt>
      <trkpt lat="41.67521" lon="1.75706">
        <ele>292.6</ele>
        <time>2022-05-20 23:06:21</time>
      </trkpt>
      <trkpt lat="41.67524" lon="1.75714">
        <ele>292.8</ele>
        <time>2022-05-20 23:06:22</time>
      </trkpt>
      <trkpt lat="41.67527" lon="1.75721">
        <ele>292.8</ele>
        <time>2022-05-20 23:06:23</time>
      </trkpt>
      <trkpt lat="41.6753" lon="1.75729">
        <ele>293</ele>
        <time>2022-05-20 23:06:24</time>
      </trkpt>
      <trkpt lat="41.67533" lon="1.75737">
        <ele>293.2</ele>
        <time>2022-05-20 23:06:25</time>
      </trkpt>
      <trkpt lat="41.67535" lon="1.75745">
        <ele>293.4</ele>
        <time>2022-05-20 23:06:26</time>
      </trkpt>
      <trkpt lat="41.67538" lon="1.75753">
        <ele>293.4</ele>
        <time>2022-05-20 23:06:27</time>
      </trkpt>
      <trkpt lat="41.67541" lon="1.75761">
        <ele>293.6</ele>
        <time>2022-05-20 23:06:28</time>
      </trkpt>
      <trkpt lat="41.67543" lon="1.75769">
        <ele>293.8</ele>
        <time>2022-05-20 23:06:29</time>
      </trkpt>
      <trkpt lat="41.67545" lon="1.75777">
        <ele>293.8</ele>
        <time>2022-05-20 23:06:30</time>
      </trkpt>
      <trkpt lat="41.67547" lon="1.75785">
        <ele>294</ele>
        <time>2022-05-20 23:06:31</time>
      </trkpt>
      <trkpt lat="41.67549" lon="1.75793">
        <ele>294</ele>
        <time>2022-05-20 23:06:32</time>
      </trkpt>
      <trkpt lat="41.67551" lon="1.75801">
        <ele>294.2</ele>
        <time>2022-05-20 23:06:33</time>
      </trkpt>
      <trkpt lat="41.67553" lon="1.7581">
        <ele>294.2</ele>
        <time>2022-05-20 23:06:34</time>
      </trkpt>
      <trkpt lat="41.67554" lon="1.75818">
        <ele>294.4</ele>
        <time>2022-05-20 23:06:35</time>
      </trkpt>
      <trkpt lat="41.67556" lon="1.75826">
        <ele>294.4</ele>
        <time>2022-05-20 23:06:36</time>
      </trkpt>
      <trkpt lat="41.67558" lon="1.75835">
        <ele>294.4</ele>
        <time>2022-05-20 23:06:37</time>
      </trkpt>
      <trkpt lat="41.6756" lon="1.75844">
        <ele>294.4</ele>
        <time>2022-05-20 23:06:38</time>
      </trkpt>
      <trkpt lat="41.67562" lon="1.75852">
        <ele>294.6</ele>
        <time>2022-05-20 23:06:39</time>
      </trkpt>
      <trkpt lat="41.67563" lon="1.75861">
        <ele>294.6</ele>
        <time>2022-05-20 23:06:40</time>
      </trkpt>
      <trkpt lat="41.67564" lon="1.7587">
        <ele>294.6</ele>
        <time>2022-05-20 23:06:41</time>
      </trkpt>
      <trkpt lat="41.67565" lon="1.75879">
        <ele>294.6</ele>
        <time>2022-05-20 23:06:42</time>
      </trkpt>
      <trkpt lat="41.67565" lon="1.75888">
        <ele>294.8</ele>
        <time>2022-05-20 23:06:43</time>
      </trkpt>
      <trkpt lat="41.67566" lon="1.75897">
        <ele>294.8</ele>
        <time>2022-05-20 23:06:44</time>
      </trkpt>
      <trkpt lat="41.67566" lon="1.75906">
        <ele>294.8</ele>
        <time>2022-05-20 23:06:45</time>
      </trkpt>
      <trkpt lat="41.67566" lon="1.75915">
        <ele>295</ele>
        <time>2022-05-20 23:06:46</time>
      </trkpt>
      <trkpt lat="41.67566" lon="1.75924">
        <ele>295</ele>
        <time>2022-05-20 23:06:47</time>
      </trkpt>
      <trkpt lat="41.67566" lon="1.75933">
        <ele>295</ele>
        <time>2022-05-20 23:06:48</time>
      </trkpt>
      <trkpt lat="41.67567" lon="1.75942">
        <ele>295.2</ele>
        <time>2022-05-20 23:06:49</time>
      </trkpt>
      <trkpt lat="41.67567" lon="1.75951">
        <ele>295.2</ele>
        <time>2022-05-20 23:06:50</time>
      </trkpt>
      <trkpt lat="41.67569" lon="1.7596">
        <ele>295.4</ele>
        <time>2022-05-20 23:06:51</time>
      </trkpt>
      <trkpt lat="41.6757" lon="1.75968">
        <ele>295.4</ele>
        <time>2022-05-20 23:06:52</time>
      </trkpt>
      <trkpt lat="41.67572" lon="1.75977">
        <ele>295.4</ele>
        <time>2022-05-20 23:06:53</time>
      </trkpt>
      <trkpt lat="41.67574" lon="1.75986">
        <ele>295.4</ele>
        <time>2022-05-20 23:06:54</time>
      </trkpt>
      <trkpt lat="41.67577" lon="1.75994">
        <ele>295.4</ele>
        <time>2022-05-20 23:06:55</time>
      </trkpt>
      <trkpt lat="41.6758" lon="1.76003">
        <ele>295.2</ele>
        <time>2022-05-20 23:06:56</time>
      </trkpt>
      <trkpt lat="41.67583" lon="1.76012">
        <ele>295.2</ele>
        <time>2022-05-20 23:06:57</time>
      </trkpt>
      <trkpt lat="41.67587" lon="1.76021">
        <ele>295</ele>
        <time>2022-05-20 23:06:58</time>
      </trkpt>
      <trkpt lat="41.6759" lon="1.76031">
        <ele>294.8</ele>
        <time>2022-05-20 23:06:59</time>
      </trkpt>
      <trkpt lat="41.67593" lon="1.7604">
        <ele>294.6</ele>
        <time>2022-05-20 23:07:00</time>
      </trkpt>
      <trkpt lat="41.67597" lon="1.7605">
        <ele>294.4</ele>
        <time>2022-05-20 23:07:01</time>
      </trkpt>
      <trkpt lat="41.676" lon="1.7606">
        <ele>294</ele>
        <time>2022-05-20 23:07:02</time>
      </trkpt>
      <trkpt lat="41.67603" lon="1.7607">
        <ele>293.8</ele>
        <time>2022-05-20 23:07:03</time>
      </trkpt>
      <trkpt lat="41.67607" lon="1.76081">
        <ele>293.4</ele>
        <time>2022-05-20 23:07:04</time>
      </trkpt>
      <trkpt lat="41.6761" lon="1.76091">
        <ele>293.2</ele>
        <time>2022-05-20 23:07:05</time>
      </trkpt>
      <trkpt lat="41.67612" lon="1.76102">
        <ele>292.6</ele>
        <time>2022-05-20 23:07:06</time>
      </trkpt>
      <trkpt lat="41.67612" lon="1.76113">
        <ele>292.2</ele>
        <time>2022-05-20 23:07:07</time>
      </trkpt>
      <trkpt lat="41.6761" lon="1.76123">
        <ele>292</ele>
        <time>2022-05-20 23:07:08</time>
      </trkpt>
      <trkpt lat="41.67606" lon="1.76132">
        <ele>291.6</ele>
        <time>2022-05-20 23:07:09</time>
      </trkpt>
      <trkpt lat="41.67602" lon="1.7614">
        <ele>291.2</ele>
        <time>2022-05-20 23:07:10</time>
      </trkpt>
      <trkpt lat="41.67599" lon="1.76149">
        <ele>290.8</ele>
        <time>2022-05-20 23:07:11</time>
      </trkpt>
      <trkpt lat="41.67598" lon="1.76159">
        <ele>290.4</ele>
        <time>2022-05-20 23:07:12</time>
      </trkpt>
      <trkpt lat="41.67598" lon="1.7617">
        <ele>290.2</ele>
        <time>2022-05-20 23:07:13</time>
      </trkpt>
      <trkpt lat="41.676" lon="1.7618">
        <ele>290</ele>
        <time>2022-05-20 23:07:14</time>
      </trkpt>
      <trkpt lat="41.67603" lon="1.76189">
        <ele>289.8</ele>
        <time>2022-05-20 23:07:15</time>
      </trkpt>
      <trkpt lat="41.67607" lon="1.76198">
        <ele>289.8</ele>
        <time>2022-05-20 23:07:16</time>
      </trkpt>
      <trkpt lat="41.67612" lon="1.76205">
        <ele>289.8</ele>
        <time>2022-05-20 23:07:17</time>
      </trkpt>
      <trkpt lat="41.67618" lon="1.7621">
        <ele>290</ele>
        <time>2022-05-20 23:07:18</time>
      </trkpt>
      <trkpt lat="41.67624" lon="1.76216">
        <ele>290.2</ele>
        <time>2022-05-20 23:07:19</time>
      </trkpt>
      <trkpt lat="41.6763" lon="1.76221">
        <ele>290.6</ele>
        <time>2022-05-20 23:07:20</time>
      </trkpt>
      <trkpt lat="41.67635" lon="1.76226">
        <ele>290.8</ele>
        <time>2022-05-20 23:07:21</time>
      </trkpt>
      <trkpt lat="41.67641" lon="1.7623">
        <ele>291</ele>
        <time>2022-05-20 23:07:22</time>
      </trkpt>
      <trkpt lat="41.67646" lon="1.76235">
        <ele>291.4</ele>
        <time>2022-05-20 23:07:23</time>
      </trkpt>
      <trkpt lat="41.67651" lon="1.76239">
        <ele>291.6</ele>
        <time>2022-05-20 23:07:24</time>
      </trkpt>
      <trkpt lat="41.67656" lon="1.76243">
        <ele>291.8</ele>
        <time>2022-05-20 23:07:25</time>
      </trkpt>
      <trkpt lat="41.67661" lon="1.76247">
        <ele>292</ele>
        <time>2022-05-20 23:07:26</time>
      </trkpt>
      <trkpt lat="41.67665" lon="1.76251">
        <ele>292</ele>
        <time>2022-05-20 23:07:27</time>
      </trkpt>
      <trkpt lat="41.67671" lon="1.76257">
        <ele>292.2</ele>
        <time>2022-05-20 23:07:28</time>
      </trkpt>
      <trkpt lat="41.67677" lon="1.76263">
        <ele>292.2</ele>
        <time>2022-05-20 23:07:29</time>
      </trkpt>
      <trkpt lat="41.67682" lon="1.76268">
        <ele>292.4</ele>
        <time>2022-05-20 23:07:30</time>
      </trkpt>
      <trkpt lat="41.67688" lon="1.76272">
        <ele>292.4</ele>
        <time>2022-05-20 23:07:31</time>
      </trkpt>
      <trkpt lat="41.67693" lon="1.76276">
        <ele>292.4</ele>
        <time>2022-05-20 23:07:32</time>
      </trkpt>
      <trkpt lat="41.67699" lon="1.7628">
        <ele>292.6</ele>
        <time>2022-05-20 23:07:33</time>
      </trkpt>
      <trkpt lat="41.67705" lon="1.76284">
        <ele>292.6</ele>
        <time>2022-05-20 23:07:34</time>
      </trkpt>
      <trkpt lat="41.6771" lon="1.76289">
        <ele>292.6</ele>
        <time>2022-05-20 23:07:35</time>
      </trkpt>
      <trkpt lat="41.67715" lon="1.76294">
        <ele>292.6</ele>
        <time>2022-05-20 23:07:36</time>
      </trkpt>
      <trkpt lat="41.6772" lon="1.763">
        <ele>292.6</ele>
        <time>2022-05-20 23:07:37</time>
      </trkpt>
      <trkpt lat="41.67725" lon="1.76306">
        <ele>292.6</ele>
        <time>2022-05-20 23:07:38</time>
      </trkpt>
      <trkpt lat="41.6773" lon="1.76312">
        <ele>292.6</ele>
        <time>2022-05-20 23:07:39</time>
      </trkpt>
      <trkpt lat="41.67736" lon="1.76317">
        <ele>292.6</ele>
        <time>2022-05-20 23:07:40</time>
      </trkpt>
      <trkpt lat="41.67741" lon="1.76321">
        <ele>292.6</ele>
        <time>2022-05-20 23:07:41</time>
      </trkpt>
      <trkpt lat="41.67748" lon="1.76322">
        <ele>292.8</ele>
        <time>2022-05-20 23:07:42</time>
      </trkpt>
      <trkpt lat="41.67756" lon="1.76323">
        <ele>292.8</ele>
        <time>2022-05-20 23:07:43</time>
      </trkpt>
      <trkpt lat="41.67762" lon="1.76324">
        <ele>292.8</ele>
        <time>2022-05-20 23:07:44</time>
      </trkpt>
      <trkpt lat="41.67769" lon="1.76325">
        <ele>292.8</ele>
        <time>2022-05-20 23:07:45</time>
      </trkpt>
      <trkpt lat="41.67775" lon="1.76327">
        <ele>292.8</ele>
        <time>2022-05-20 23:07:46</time>
      </trkpt>
      <trkpt lat="41.67782" lon="1.76329">
        <ele>292.8</ele>
        <time>2022-05-20 23:07:47</time>
      </trkpt>
      <trkpt lat="41.67789" lon="1.76332">
        <ele>292.8</ele>
        <time>2022-05-20 23:07:48</time>
      </trkpt>
      <trkpt lat="41.67796" lon="1.76333">
        <ele>292.8</ele>
        <time>2022-05-20 23:07:49</time>
      </trkpt>
      <trkpt lat="41.67802" lon="1.76335">
        <ele>292.8</ele>
        <time>2022-05-20 23:07:50</time>
      </trkpt>
      <trkpt lat="41.67809" lon="1.76337">
        <ele>292.8</ele>
        <time>2022-05-20 23:07:51</time>
      </trkpt>
      <trkpt lat="41.67816" lon="1.76339">
        <ele>292.8</ele>
        <time>2022-05-20 23:07:52</time>
      </trkpt>
      <trkpt lat="41.67823" lon="1.76341">
        <ele>292.8</ele>
        <time>2022-05-20 23:07:53</time>
      </trkpt>
      <trkpt lat="41.67829" lon="1.76343">
        <ele>292.8</ele>
        <time>2022-05-20 23:07:54</time>
      </trkpt>
      <trkpt lat="41.67835" lon="1.76343">
        <ele>292.8</ele>
        <time>2022-05-20 23:07:55</time>
      </trkpt>
      <trkpt lat="41.67844" lon="1.76342">
        <ele>292.8</ele>
        <time>2022-05-20 23:07:56</time>
      </trkpt>
      <trkpt lat="41.6785" lon="1.76339">
        <ele>292.8</ele>
        <time>2022-05-20 23:07:57</time>
      </trkpt>
      <trkpt lat="41.67858" lon="1.76337">
        <ele>292.8</ele>
        <time>2022-05-20 23:07:58</time>
      </trkpt>
      <trkpt lat="41.67865" lon="1.76336">
        <ele>292.8</ele>
        <time>2022-05-20 23:07:59</time>
      </trkpt>
      <trkpt lat="41.67873" lon="1.76336">
        <ele>292.8</ele>
        <time>2022-05-20 23:08:00</time>
      </trkpt>
      <trkpt lat="41.67879" lon="1.76339">
        <ele>292.8</ele>
        <time>2022-05-20 23:08:01</time>
      </trkpt>
      <trkpt lat="41.67887" lon="1.76341">
        <ele>292.6</ele>
        <time>2022-05-20 23:08:02</time>
      </trkpt>
      <trkpt lat="41.67893" lon="1.76345">
        <ele>292.6</ele>
        <time>2022-05-20 23:08:03</time>
      </trkpt>
      <trkpt lat="41.679" lon="1.76349">
        <ele>292.6</ele>
        <time>2022-05-20 23:08:04</time>
      </trkpt>
      <trkpt lat="41.67907" lon="1.76353">
        <ele>292.8</ele>
        <time>2022-05-20 23:08:05</time>
      </trkpt>
      <trkpt lat="41.67913" lon="1.76357">
        <ele>292.8</ele>
        <time>2022-05-20 23:08:06</time>
      </trkpt>
      <trkpt lat="41.6792" lon="1.76361">
        <ele>292.8</ele>
        <time>2022-05-20 23:08:07</time>
      </trkpt>
      <trkpt lat="41.67928" lon="1.76364">
        <ele>292.8</ele>
        <time>2022-05-20 23:08:08</time>
      </trkpt>
      <trkpt lat="41.67934" lon="1.76367">
        <ele>292.8</ele>
        <time>2022-05-20 23:08:09</time>
      </trkpt>
      <trkpt lat="41.67942" lon="1.76369">
        <ele>292.8</ele>
        <time>2022-05-20 23:08:10</time>
      </trkpt>
      <trkpt lat="41.67949" lon="1.76371">
        <ele>292.8</ele>
        <time>2022-05-20 23:08:11</time>
      </trkpt>
      <trkpt lat="41.67956" lon="1.76373">
        <ele>292.8</ele>
        <time>2022-05-20 23:08:12</time>
      </trkpt>
      <trkpt lat="41.67963" lon="1.76374">
        <ele>292.8</ele>
        <time>2022-05-20 23:08:13</time>
      </trkpt>
      <trkpt lat="41.67971" lon="1.76374">
        <ele>293</ele>
        <time>2022-05-20 23:08:14</time>
      </trkpt>
      <trkpt lat="41.67978" lon="1.76373">
        <ele>293</ele>
        <time>2022-05-20 23:08:15</time>
      </trkpt>
      <trkpt lat="41.67985" lon="1.7637">
        <ele>293</ele>
        <time>2022-05-20 23:08:16</time>
      </trkpt>
      <trkpt lat="41.67991" lon="1.76367">
        <ele>293</ele>
        <time>2022-05-20 23:08:17</time>
      </trkpt>
      <trkpt lat="41.67997" lon="1.76363">
        <ele>293</ele>
        <time>2022-05-20 23:08:18</time>
      </trkpt>
      <trkpt lat="41.68004" lon="1.76358">
        <ele>293</ele>
        <time>2022-05-20 23:08:19</time>
      </trkpt>
      <trkpt lat="41.6801" lon="1.76353">
        <ele>293.2</ele>
        <time>2022-05-20 23:08:20</time>
      </trkpt>
      <trkpt lat="41.68016" lon="1.76348">
        <ele>293.2</ele>
        <time>2022-05-20 23:08:21</time>
      </trkpt>
      <trkpt lat="41.68022" lon="1.76343">
        <ele>293.4</ele>
        <time>2022-05-20 23:08:22</time>
      </trkpt>
      <trkpt lat="41.68028" lon="1.76338">
        <ele>293.4</ele>
        <time>2022-05-20 23:08:23</time>
      </trkpt>
      <trkpt lat="41.68034" lon="1.76335">
        <ele>293.6</ele>
        <time>2022-05-20 23:08:24</time>
      </trkpt>
      <trkpt lat="41.6804" lon="1.76333">
        <ele>293.6</ele>
        <time>2022-05-20 23:08:25</time>
      </trkpt>
      <trkpt lat="41.68046" lon="1.76333">
        <ele>293.8</ele>
        <time>2022-05-20 23:08:26</time>
      </trkpt>
      <trkpt lat="41.68052" lon="1.76335">
        <ele>294</ele>
        <time>2022-05-20 23:08:27</time>
      </trkpt>
      <trkpt lat="41.68058" lon="1.76338">
        <ele>294.2</ele>
        <time>2022-05-20 23:08:28</time>
      </trkpt>
      <trkpt lat="41.68064" lon="1.7634">
        <ele>294.4</ele>
        <time>2022-05-20 23:08:29</time>
      </trkpt>
      <trkpt lat="41.6807" lon="1.76342">
        <ele>294.6</ele>
        <time>2022-05-20 23:08:30</time>
      </trkpt>
      <trkpt lat="41.68076" lon="1.76342">
        <ele>294.8</ele>
        <time>2022-05-20 23:08:31</time>
      </trkpt>
      <trkpt lat="41.68081" lon="1.76341">
        <ele>295</ele>
        <time>2022-05-20 23:08:32</time>
      </trkpt>
      <trkpt lat="41.68086" lon="1.76339">
        <ele>295.4</ele>
        <time>2022-05-20 23:08:33</time>
      </trkpt>
      <trkpt lat="41.68091" lon="1.76335">
        <ele>295.6</ele>
        <time>2022-05-20 23:08:34</time>
      </trkpt>
      <trkpt lat="41.68095" lon="1.76331">
        <ele>296</ele>
        <time>2022-05-20 23:08:35</time>
      </trkpt>
      <trkpt lat="41.68098" lon="1.76326">
        <ele>296.2</ele>
        <time>2022-05-20 23:08:36</time>
      </trkpt>
      <trkpt lat="41.68102" lon="1.76322">
        <ele>296.6</ele>
        <time>2022-05-20 23:08:37</time>
      </trkpt>
      <trkpt lat="41.68106" lon="1.76318">
        <ele>296.8</ele>
        <time>2022-05-20 23:08:38</time>
      </trkpt>
      <trkpt lat="41.6811" lon="1.76315">
        <ele>297</ele>
        <time>2022-05-20 23:08:39</time>
      </trkpt>
      <trkpt lat="41.68114" lon="1.76314">
        <ele>297.4</ele>
        <time>2022-05-20 23:08:40</time>
      </trkpt>
      <trkpt lat="41.68119" lon="1.76313">
        <ele>297.6</ele>
        <time>2022-05-20 23:08:41</time>
      </trkpt>
      <trkpt lat="41.68124" lon="1.76314">
        <ele>298</ele>
        <time>2022-05-20 23:08:42</time>
      </trkpt>
      <trkpt lat="41.68128" lon="1.76316">
        <ele>298.2</ele>
        <time>2022-05-20 23:08:43</time>
      </trkpt>
      <trkpt lat="41.68132" lon="1.7632">
        <ele>298.4</ele>
        <time>2022-05-20 23:08:44</time>
      </trkpt>
      <trkpt lat="41.68136" lon="1.76323">
        <ele>298.6</ele>
        <time>2022-05-20 23:08:45</time>
      </trkpt>
      <trkpt lat="41.6814" lon="1.76327">
        <ele>298.8</ele>
        <time>2022-05-20 23:08:46</time>
      </trkpt>
      <trkpt lat="41.68145" lon="1.76331">
        <ele>299</ele>
        <time>2022-05-20 23:08:47</time>
      </trkpt>
      <trkpt lat="41.68149" lon="1.76335">
        <ele>299.2</ele>
        <time>2022-05-20 23:08:48</time>
      </trkpt>
      <trkpt lat="41.68154" lon="1.76338">
        <ele>299.4</ele>
        <time>2022-05-20 23:08:49</time>
      </trkpt>
      <trkpt lat="41.68159" lon="1.76341">
        <ele>299.6</ele>
        <time>2022-05-20 23:08:50</time>
      </trkpt>
      <trkpt lat="41.68164" lon="1.76343">
        <ele>299.6</ele>
        <time>2022-05-20 23:08:51</time>
      </trkpt>
      <trkpt lat="41.68169" lon="1.76345">
        <ele>299.8</ele>
        <time>2022-05-20 23:08:52</time>
      </trkpt>
      <trkpt lat="41.68174" lon="1.76345">
        <ele>300</ele>
        <time>2022-05-20 23:08:53</time>
      </trkpt>
      <trkpt lat="41.68179" lon="1.76344">
        <ele>300</ele>
        <time>2022-05-20 23:08:54</time>
      </trkpt>
      <trkpt lat="41.68184" lon="1.76341">
        <ele>300.2</ele>
        <time>2022-05-20 23:08:55</time>
      </trkpt>
      <trkpt lat="41.68188" lon="1.76337">
        <ele>300.4</ele>
        <time>2022-05-20 23:08:56</time>
      </trkpt>
      <trkpt lat="41.68192" lon="1.76333">
        <ele>300.6</ele>
        <time>2022-05-20 23:08:57</time>
      </trkpt>
      <trkpt lat="41.68195" lon="1.76328">
        <ele>300.8</ele>
        <time>2022-05-20 23:08:58</time>
      </trkpt>
      <trkpt lat="41.682" lon="1.76324">
        <ele>301</ele>
        <time>2022-05-20 23:08:59</time>
      </trkpt>
      <trkpt lat="41.68203" lon="1.7632">
        <ele>301.2</ele>
        <time>2022-05-20 23:09:00</time>
      </trkpt>
      <trkpt lat="41.68207" lon="1.76316">
        <ele>301.2</ele>
        <time>2022-05-20 23:09:01</time>
      </trkpt>
      <trkpt lat="41.68212" lon="1.76314">
        <ele>301.4</ele>
        <time>2022-05-20 23:09:02</time>
      </trkpt>
      <trkpt lat="41.68217" lon="1.76312">
        <ele>301.4</ele>
        <time>2022-05-20 23:09:03</time>
      </trkpt>
      <trkpt lat="41.68222" lon="1.76312">
        <ele>301.6</ele>
        <time>2022-05-20 23:09:04</time>
      </trkpt>
      <trkpt lat="41.68227" lon="1.76312">
        <ele>301.8</ele>
        <time>2022-05-20 23:09:05</time>
      </trkpt>
      <trkpt lat="41.68232" lon="1.76312">
        <ele>302</ele>
        <time>2022-05-20 23:09:06</time>
      </trkpt>
      <trkpt lat="41.68237" lon="1.76312">
        <ele>302.2</ele>
        <time>2022-05-20 23:09:07</time>
      </trkpt>
      <trkpt lat="41.68242" lon="1.76314">
        <ele>302.4</ele>
        <time>2022-05-20 23:09:08</time>
      </trkpt>
      <trkpt lat="41.68246" lon="1.76316">
        <ele>302.6</ele>
        <time>2022-05-20 23:09:09</time>
      </trkpt>
      <trkpt lat="41.68251" lon="1.76319">
        <ele>302.6</ele>
        <time>2022-05-20 23:09:10</time>
      </trkpt>
      <trkpt lat="41.68255" lon="1.76322">
        <ele>302.8</ele>
        <time>2022-05-20 23:09:11</time>
      </trkpt>
      <trkpt lat="41.68259" lon="1.76326">
        <ele>303</ele>
        <time>2022-05-20 23:09:12</time>
      </trkpt>
      <trkpt lat="41.68262" lon="1.7633">
        <ele>303.2</ele>
        <time>2022-05-20 23:09:13</time>
      </trkpt>
      <trkpt lat="41.68266" lon="1.76334">
        <ele>303.4</ele>
        <time>2022-05-20 23:09:14</time>
      </trkpt>
      <trkpt lat="41.68269" lon="1.76338">
        <ele>303.6</ele>
        <time>2022-05-20 23:09:15</time>
      </trkpt>
      <trkpt lat="41.68272" lon="1.76343">
        <ele>303.8</ele>
        <time>2022-05-20 23:09:16</time>
      </trkpt>
      <trkpt lat="41.68275" lon="1.76347">
        <ele>304</ele>
        <time>2022-05-20 23:09:17</time>
      </trkpt>
      <trkpt lat="41.68278" lon="1.76351">
        <ele>304.2</ele>
        <time>2022-05-20 23:09:18</time>
      </trkpt>
      <trkpt lat="41.68281" lon="1.76355">
        <ele>304.4</ele>
        <time>2022-05-20 23:09:19</time>
      </trkpt>
      <trkpt lat="41.68284" lon="1.7636">
        <ele>304.6</ele>
        <time>2022-05-20 23:09:20</time>
      </trkpt>
      <trkpt lat="41.68287" lon="1.76365">
        <ele>304.8</ele>
        <time>2022-05-20 23:09:21</time>
      </trkpt>
      <trkpt lat="41.6829" lon="1.76369">
        <ele>305</ele>
        <time>2022-05-20 23:09:22</time>
      </trkpt>
      <trkpt lat="41.68293" lon="1.76374">
        <ele>305.2</ele>
        <time>2022-05-20 23:09:23</time>
      </trkpt>
      <trkpt lat="41.68295" lon="1.76378">
        <ele>305.4</ele>
        <time>2022-05-20 23:09:24</time>
      </trkpt>
      <trkpt lat="41.68298" lon="1.76383">
        <ele>305.6</ele>
        <time>2022-05-20 23:09:25</time>
      </trkpt>
      <trkpt lat="41.68301" lon="1.76387">
        <ele>305.8</ele>
        <time>2022-05-20 23:09:26</time>
      </trkpt>
      <trkpt lat="41.68304" lon="1.76391">
        <ele>306</ele>
        <time>2022-05-20 23:09:27</time>
      </trkpt>
      <trkpt lat="41.68307" lon="1.76395">
        <ele>306.2</ele>
        <time>2022-05-20 23:09:28</time>
      </trkpt>
      <trkpt lat="41.68309" lon="1.76399">
        <ele>306.4</ele>
        <time>2022-05-20 23:09:29</time>
      </trkpt>
      <trkpt lat="41.68312" lon="1.76403">
        <ele>306.6</ele>
        <time>2022-05-20 23:09:30</time>
      </trkpt>
      <trkpt lat="41.68314" lon="1.76407">
        <ele>307</ele>
        <time>2022-05-20 23:09:31</time>
      </trkpt>
      <trkpt lat="41.68316" lon="1.76412">
        <ele>307.2</ele>
        <time>2022-05-20 23:09:32</time>
      </trkpt>
      <trkpt lat="41.68318" lon="1.76416">
        <ele>307.4</ele>
        <time>2022-05-20 23:09:33</time>
      </trkpt>
      <trkpt lat="41.68319" lon="1.76421">
        <ele>307.6</ele>
        <time>2022-05-20 23:09:34</time>
      </trkpt>
      <trkpt lat="41.68321" lon="1.76426">
        <ele>308</ele>
        <time>2022-05-20 23:09:35</time>
      </trkpt>
      <trkpt lat="41.68322" lon="1.76431">
        <ele>308.2</ele>
        <time>2022-05-20 23:09:36</time>
      </trkpt>
      <trkpt lat="41.68324" lon="1.76436">
        <ele>308.4</ele>
        <time>2022-05-20 23:09:37</time>
      </trkpt>
      <trkpt lat="41.68325" lon="1.7644">
        <ele>308.6</ele>
        <time>2022-05-20 23:09:38</time>
      </trkpt>
      <trkpt lat="41.68326" lon="1.76446">
        <ele>309</ele>
        <time>2022-05-20 23:09:39</time>
      </trkpt>
      <trkpt lat="41.68327" lon="1.76451">
        <ele>309.2</ele>
        <time>2022-05-20 23:09:40</time>
      </trkpt>
      <trkpt lat="41.68328" lon="1.76455">
        <ele>309.4</ele>
        <time>2022-05-20 23:09:41</time>
      </trkpt>
      <trkpt lat="41.6833" lon="1.76461">
        <ele>309.8</ele>
        <time>2022-05-20 23:09:42</time>
      </trkpt>
      <trkpt lat="41.68331" lon="1.76466">
        <ele>310</ele>
        <time>2022-05-20 23:09:43</time>
      </trkpt>
      <trkpt lat="41.68331" lon="1.76471">
        <ele>310.2</ele>
        <time>2022-05-20 23:09:44</time>
      </trkpt>
      <trkpt lat="41.68332" lon="1.76477">
        <ele>310.4</ele>
        <time>2022-05-20 23:09:45</time>
      </trkpt>
      <trkpt lat="41.68332" lon="1.76482">
        <ele>310.6</ele>
        <time>2022-05-20 23:09:46</time>
      </trkpt>
      <trkpt lat="41.68333" lon="1.76487">
        <ele>310.8</ele>
        <time>2022-05-20 23:09:47</time>
      </trkpt>
      <trkpt lat="41.68333" lon="1.76493">
        <ele>310.8</ele>
        <time>2022-05-20 23:09:48</time>
      </trkpt>
      <trkpt lat="41.68333" lon="1.76499">
        <ele>310.8</ele>
        <time>2022-05-20 23:09:49</time>
      </trkpt>
      <trkpt lat="41.68333" lon="1.76505">
        <ele>310.8</ele>
        <time>2022-05-20 23:09:50</time>
      </trkpt>
      <trkpt lat="41.68332" lon="1.76513">
        <ele>310.8</ele>
        <time>2022-05-20 23:09:51</time>
      </trkpt>
      <trkpt lat="41.68332" lon="1.76521">
        <ele>310.6</ele>
        <time>2022-05-20 23:09:52</time>
      </trkpt>
      <trkpt lat="41.68331" lon="1.76529">
        <ele>310.2</ele>
        <time>2022-05-20 23:09:53</time>
      </trkpt>
      <trkpt lat="41.6833" lon="1.76539">
        <ele>309.8</ele>
        <time>2022-05-20 23:09:54</time>
      </trkpt>
      <trkpt lat="41.6833" lon="1.76548">
        <ele>309.4</ele>
        <time>2022-05-20 23:09:55</time>
      </trkpt>
      <trkpt lat="41.68329" lon="1.76559">
        <ele>309</ele>
        <time>2022-05-20 23:09:56</time>
      </trkpt>
      <trkpt lat="41.68328" lon="1.76569">
        <ele>308.4</ele>
        <time>2022-05-20 23:09:57</time>
      </trkpt>
      <trkpt lat="41.68328" lon="1.7658">
        <ele>307.8</ele>
        <time>2022-05-20 23:09:58</time>
      </trkpt>
      <trkpt lat="41.68327" lon="1.76593">
        <ele>307.2</ele>
        <time>2022-05-20 23:09:59</time>
      </trkpt>
      <trkpt lat="41.68327" lon="1.76605">
        <ele>306.6</ele>
        <time>2022-05-20 23:10:00</time>
      </trkpt>
      <trkpt lat="41.68328" lon="1.76617">
        <ele>305.8</ele>
        <time>2022-05-20 23:10:01</time>
      </trkpt>
      <trkpt lat="41.6833" lon="1.76633">
        <ele>305.2</ele>
        <time>2022-05-20 23:10:02</time>
      </trkpt>
      <trkpt lat="41.68332" lon="1.76647">
        <ele>304.4</ele>
        <time>2022-05-20 23:10:03</time>
      </trkpt>
      <trkpt lat="41.68336" lon="1.76662">
        <ele>303.6</ele>
        <time>2022-05-20 23:10:04</time>
      </trkpt>
      <trkpt lat="41.6834" lon="1.76676">
        <ele>303</ele>
        <time>2022-05-20 23:10:05</time>
      </trkpt>
      <trkpt lat="41.68345" lon="1.7669">
        <ele>302.2</ele>
        <time>2022-05-20 23:10:06</time>
      </trkpt>
      <trkpt lat="41.68351" lon="1.76704">
        <ele>301.4</ele>
        <time>2022-05-20 23:10:07</time>
      </trkpt>
      <trkpt lat="41.68356" lon="1.76717">
        <ele>300.6</ele>
        <time>2022-05-20 23:10:08</time>
      </trkpt>
      <trkpt lat="41.68361" lon="1.76731">
        <ele>300</ele>
        <time>2022-05-20 23:10:09</time>
      </trkpt>
      <trkpt lat="41.68366" lon="1.76746">
        <ele>299.2</ele>
        <time>2022-05-20 23:10:10</time>
      </trkpt>
      <trkpt lat="41.68371" lon="1.76761">
        <ele>298.4</ele>
        <time>2022-05-20 23:10:11</time>
      </trkpt>
      <trkpt lat="41.68376" lon="1.76777">
        <ele>297.6</ele>
        <time>2022-05-20 23:10:12</time>
      </trkpt>
      <trkpt lat="41.68382" lon="1.76793">
        <ele>296.8</ele>
        <time>2022-05-20 23:10:13</time>
      </trkpt>
      <trkpt lat="41.68386" lon="1.76809">
        <ele>296</ele>
        <time>2022-05-20 23:10:14</time>
      </trkpt>
      <trkpt lat="41.6839" lon="1.76825">
        <ele>295.2</ele>
        <time>2022-05-20 23:10:15</time>
      </trkpt>
      <trkpt lat="41.68395" lon="1.76841">
        <ele>294.4</ele>
        <time>2022-05-20 23:10:16</time>
      </trkpt>
      <trkpt lat="41.68399" lon="1.76858">
        <ele>293.6</ele>
        <time>2022-05-20 23:10:17</time>
      </trkpt>
      <trkpt lat="41.68404" lon="1.76875">
        <ele>292.8</ele>
        <time>2022-05-20 23:10:18</time>
      </trkpt>
      <trkpt lat="41.68407" lon="1.76892">
        <ele>292.2</ele>
        <time>2022-05-20 23:10:19</time>
      </trkpt>
      <trkpt lat="41.68411" lon="1.76909">
        <ele>291.4</ele>
        <time>2022-05-20 23:10:20</time>
      </trkpt>
      <trkpt lat="41.68415" lon="1.76924">
        <ele>290.6</ele>
        <time>2022-05-20 23:10:21</time>
      </trkpt>
      <trkpt lat="41.6842" lon="1.76939">
        <ele>289.8</ele>
        <time>2022-05-20 23:10:22</time>
      </trkpt>
      <trkpt lat="41.68427" lon="1.76955">
        <ele>288.8</ele>
        <time>2022-05-20 23:10:23</time>
      </trkpt>
      <trkpt lat="41.68433" lon="1.7697">
        <ele>288</ele>
        <time>2022-05-20 23:10:24</time>
      </trkpt>
      <trkpt lat="41.68441" lon="1.76987">
        <ele>286.8</ele>
        <time>2022-05-20 23:10:25</time>
      </trkpt>
      <trkpt lat="41.68448" lon="1.77003">
        <ele>285.8</ele>
        <time>2022-05-20 23:10:26</time>
      </trkpt>
      <trkpt lat="41.68455" lon="1.77018">
        <ele>284.8</ele>
        <time>2022-05-20 23:10:27</time>
      </trkpt>
      <trkpt lat="41.68462" lon="1.77033">
        <ele>283.8</ele>
        <time>2022-05-20 23:10:28</time>
      </trkpt>
      <trkpt lat="41.6847" lon="1.77048">
        <ele>282.8</ele>
        <time>2022-05-20 23:10:29</time>
      </trkpt>
      <trkpt lat="41.68477" lon="1.77064">
        <ele>281.8</ele>
        <time>2022-05-20 23:10:30</time>
      </trkpt>
      <trkpt lat="41.68484" lon="1.77081">
        <ele>280.8</ele>
        <time>2022-05-20 23:10:31</time>
      </trkpt>
      <trkpt lat="41.68489" lon="1.77097">
        <ele>279.8</ele>
        <time>2022-05-20 23:10:32</time>
      </trkpt>
      <trkpt lat="41.68495" lon="1.77113">
        <ele>278.8</ele>
        <time>2022-05-20 23:10:33</time>
      </trkpt>
      <trkpt lat="41.68499" lon="1.77128">
        <ele>278</ele>
        <time>2022-05-20 23:10:34</time>
      </trkpt>
      <trkpt lat="41.68503" lon="1.77144">
        <ele>277</ele>
        <time>2022-05-20 23:10:35</time>
      </trkpt>
      <trkpt lat="41.68506" lon="1.7716">
        <ele>276</ele>
        <time>2022-05-20 23:10:36</time>
      </trkpt>
      <trkpt lat="41.6851" lon="1.77177">
        <ele>275</ele>
        <time>2022-05-20 23:10:37</time>
      </trkpt>
      <trkpt lat="41.68511" lon="1.77195">
        <ele>274.2</ele>
        <time>2022-05-20 23:10:38</time>
      </trkpt>
      <trkpt lat="41.68512" lon="1.77212">
        <ele>273.2</ele>
        <time>2022-05-20 23:10:39</time>
      </trkpt>
      <trkpt lat="41.68513" lon="1.77229">
        <ele>272.6</ele>
        <time>2022-05-20 23:10:40</time>
      </trkpt>
      <trkpt lat="41.68515" lon="1.77245">
        <ele>271.6</ele>
        <time>2022-05-20 23:10:41</time>
      </trkpt>
      <trkpt lat="41.68518" lon="1.77261">
        <ele>270.8</ele>
        <time>2022-05-20 23:10:42</time>
      </trkpt>
      <trkpt lat="41.68524" lon="1.77276">
        <ele>269.8</ele>
        <time>2022-05-20 23:10:43</time>
      </trkpt>
      <trkpt lat="41.6853" lon="1.77291">
        <ele>268.8</ele>
        <time>2022-05-20 23:10:44</time>
      </trkpt>
      <trkpt lat="41.68538" lon="1.77307">
        <ele>268</ele>
        <time>2022-05-20 23:10:45</time>
      </trkpt>
      <trkpt lat="41.68547" lon="1.77322">
        <ele>267</ele>
        <time>2022-05-20 23:10:46</time>
      </trkpt>
      <trkpt lat="41.68555" lon="1.77335">
        <ele>266.2</ele>
        <time>2022-05-20 23:10:47</time>
      </trkpt>
      <trkpt lat="41.68563" lon="1.77347">
        <ele>265.4</ele>
        <time>2022-05-20 23:10:48</time>
      </trkpt>
      <trkpt lat="41.68571" lon="1.77358">
        <ele>264.6</ele>
        <time>2022-05-20 23:10:49</time>
      </trkpt>
      <trkpt lat="41.68579" lon="1.77368">
        <ele>263.8</ele>
        <time>2022-05-20 23:10:50</time>
      </trkpt>
      <trkpt lat="41.68587" lon="1.77377">
        <ele>263.2</ele>
        <time>2022-05-20 23:10:51</time>
      </trkpt>
      <trkpt lat="41.68597" lon="1.77387">
        <ele>262.6</ele>
        <time>2022-05-20 23:10:52</time>
      </trkpt>
      <trkpt lat="41.68606" lon="1.77395">
        <ele>262</ele>
        <time>2022-05-20 23:10:53</time>
      </trkpt>
      <trkpt lat="41.68616" lon="1.77402">
        <ele>261.6</ele>
        <time>2022-05-20 23:10:54</time>
      </trkpt>
      <trkpt lat="41.68626" lon="1.77408">
        <ele>261.2</ele>
        <time>2022-05-20 23:10:55</time>
      </trkpt>
      <trkpt lat="41.68636" lon="1.77413">
        <ele>260.8</ele>
        <time>2022-05-20 23:10:56</time>
      </trkpt>
      <trkpt lat="41.68647" lon="1.77416">
        <ele>260.6</ele>
        <time>2022-05-20 23:10:57</time>
      </trkpt>
      <trkpt lat="41.68657" lon="1.77417">
        <ele>260.4</ele>
        <time>2022-05-20 23:10:58</time>
      </trkpt>
      <trkpt lat="41.68667" lon="1.77419">
        <ele>260.2</ele>
        <time>2022-05-20 23:10:59</time>
      </trkpt>
      <trkpt lat="41.68677" lon="1.7742">
        <ele>260.2</ele>
        <time>2022-05-20 23:11:00</time>
      </trkpt>
      <trkpt lat="41.68686" lon="1.77423">
        <ele>260.2</ele>
        <time>2022-05-20 23:11:01</time>
      </trkpt>
      <trkpt lat="41.68692" lon="1.7743">
        <ele>260.2</ele>
        <time>2022-05-20 23:11:02</time>
      </trkpt>
      <trkpt lat="41.68697" lon="1.77439">
        <ele>260.2</ele>
        <time>2022-05-20 23:11:03</time>
      </trkpt>
      <trkpt lat="41.68699" lon="1.77449">
        <ele>260.2</ele>
        <time>2022-05-20 23:11:04</time>
      </trkpt>
      <trkpt lat="41.687" lon="1.77459">
        <ele>260.2</ele>
        <time>2022-05-20 23:11:05</time>
      </trkpt>
      <trkpt lat="41.687" lon="1.77471">
        <ele>260</ele>
        <time>2022-05-20 23:11:06</time>
      </trkpt>
      <trkpt lat="41.687" lon="1.77482">
        <ele>259.8</ele>
        <time>2022-05-20 23:11:07</time>
      </trkpt>
      <trkpt lat="41.687" lon="1.77494">
        <ele>259.6</ele>
        <time>2022-05-20 23:11:08</time>
      </trkpt>
      <trkpt lat="41.68699" lon="1.77506">
        <ele>259.4</ele>
        <time>2022-05-20 23:11:09</time>
      </trkpt>
      <trkpt lat="41.68699" lon="1.77518">
        <ele>259.2</ele>
        <time>2022-05-20 23:11:10</time>
      </trkpt>
      <trkpt lat="41.68699" lon="1.7753">
        <ele>258.8</ele>
        <time>2022-05-20 23:11:11</time>
      </trkpt>
      <trkpt lat="41.68699" lon="1.77542">
        <ele>258.6</ele>
        <time>2022-05-20 23:11:12</time>
      </trkpt>
      <trkpt lat="41.68698" lon="1.77554">
        <ele>258.6</ele>
        <time>2022-05-20 23:11:13</time>
      </trkpt>
      <trkpt lat="41.68698" lon="1.77565">
        <ele>258.4</ele>
        <time>2022-05-20 23:11:14</time>
      </trkpt>
      <trkpt lat="41.68698" lon="1.77576">
        <ele>258.2</ele>
        <time>2022-05-20 23:11:15</time>
      </trkpt>
      <trkpt lat="41.68697" lon="1.77587">
        <ele>258</ele>
        <time>2022-05-20 23:11:16</time>
      </trkpt>
      <trkpt lat="41.68697" lon="1.77599">
        <ele>257.8</ele>
        <time>2022-05-20 23:11:17</time>
      </trkpt>
      <trkpt lat="41.68696" lon="1.77612">
        <ele>257.6</ele>
        <time>2022-05-20 23:11:18</time>
      </trkpt>
      <trkpt lat="41.68695" lon="1.77624">
        <ele>257.4</ele>
        <time>2022-05-20 23:11:19</time>
      </trkpt>
      <trkpt lat="41.68694" lon="1.77636">
        <ele>257.2</ele>
        <time>2022-05-20 23:11:20</time>
      </trkpt>
      <trkpt lat="41.68693" lon="1.77648">
        <ele>257</ele>
        <time>2022-05-20 23:11:21</time>
      </trkpt>
      <trkpt lat="41.68692" lon="1.7766">
        <ele>256.8</ele>
        <time>2022-05-20 23:11:22</time>
      </trkpt>
      <trkpt lat="41.6869" lon="1.77671">
        <ele>256.8</ele>
        <time>2022-05-20 23:11:23</time>
      </trkpt>
      <trkpt lat="41.68688" lon="1.77683">
        <ele>256.6</ele>
        <time>2022-05-20 23:11:24</time>
      </trkpt>
      <trkpt lat="41.68686" lon="1.77695">
        <ele>256.6</ele>
        <time>2022-05-20 23:11:25</time>
      </trkpt>
      <trkpt lat="41.68684" lon="1.77706">
        <ele>256.6</ele>
        <time>2022-05-20 23:11:26</time>
      </trkpt>
      <trkpt lat="41.68682" lon="1.77716">
        <ele>256.6</ele>
        <time>2022-05-20 23:11:27</time>
      </trkpt>
      <trkpt lat="41.68679" lon="1.77727">
        <ele>256.4</ele>
        <time>2022-05-20 23:11:28</time>
      </trkpt>
      <trkpt lat="41.68677" lon="1.77738">
        <ele>256.4</ele>
        <time>2022-05-20 23:11:29</time>
      </trkpt>
      <trkpt lat="41.68674" lon="1.77748">
        <ele>256.4</ele>
        <time>2022-05-20 23:11:30</time>
      </trkpt>
      <trkpt lat="41.68672" lon="1.77759">
        <ele>256.4</ele>
        <time>2022-05-20 23:11:31</time>
      </trkpt>
      <trkpt lat="41.6867" lon="1.7777">
        <ele>256.4</ele>
        <time>2022-05-20 23:11:32</time>
      </trkpt>
      <trkpt lat="41.68667" lon="1.7778">
        <ele>256.4</ele>
        <time>2022-05-20 23:11:33</time>
      </trkpt>
      <trkpt lat="41.68665" lon="1.7779">
        <ele>256.4</ele>
        <time>2022-05-20 23:11:34</time>
      </trkpt>
      <trkpt lat="41.68663" lon="1.77801">
        <ele>256.4</ele>
        <time>2022-05-20 23:11:35</time>
      </trkpt>
      <trkpt lat="41.68661" lon="1.77811">
        <ele>256.6</ele>
        <time>2022-05-20 23:11:36</time>
      </trkpt>
      <trkpt lat="41.6866" lon="1.77821">
        <ele>256.6</ele>
        <time>2022-05-20 23:11:37</time>
      </trkpt>
      <trkpt lat="41.68659" lon="1.77831">
        <ele>256.6</ele>
        <time>2022-05-20 23:11:38</time>
      </trkpt>
      <trkpt lat="41.68659" lon="1.77841">
        <ele>256.6</ele>
        <time>2022-05-20 23:11:39</time>
      </trkpt>
      <trkpt lat="41.68658" lon="1.77852">
        <ele>256.6</ele>
        <time>2022-05-20 23:11:40</time>
      </trkpt>
      <trkpt lat="41.68659" lon="1.77862">
        <ele>256.6</ele>
        <time>2022-05-20 23:11:41</time>
      </trkpt>
      <trkpt lat="41.68661" lon="1.77873">
        <ele>256.6</ele>
        <time>2022-05-20 23:11:42</time>
      </trkpt>
      <trkpt lat="41.68663" lon="1.77883">
        <ele>256.6</ele>
        <time>2022-05-20 23:11:43</time>
      </trkpt>
      <trkpt lat="41.68665" lon="1.77892">
        <ele>256.6</ele>
        <time>2022-05-20 23:11:44</time>
      </trkpt>
      <trkpt lat="41.68668" lon="1.77902">
        <ele>256.6</ele>
        <time>2022-05-20 23:11:45</time>
      </trkpt>
      <trkpt lat="41.68672" lon="1.77911">
        <ele>256.4</ele>
        <time>2022-05-20 23:11:46</time>
      </trkpt>
      <trkpt lat="41.68677" lon="1.7792">
        <ele>256.4</ele>
        <time>2022-05-20 23:11:47</time>
      </trkpt>
      <trkpt lat="41.68683" lon="1.77927">
        <ele>256.2</ele>
        <time>2022-05-20 23:11:48</time>
      </trkpt>
      <trkpt lat="41.68689" lon="1.77933">
        <ele>256</ele>
        <time>2022-05-20 23:11:49</time>
      </trkpt>
      <trkpt lat="41.68696" lon="1.77937">
        <ele>256</ele>
        <time>2022-05-20 23:11:50</time>
      </trkpt>
      <trkpt lat="41.68704" lon="1.7794">
        <ele>255.8</ele>
        <time>2022-05-20 23:11:51</time>
      </trkpt>
      <trkpt lat="41.68713" lon="1.77943">
        <ele>255.6</ele>
        <time>2022-05-20 23:11:52</time>
      </trkpt>
      <trkpt lat="41.68721" lon="1.77944">
        <ele>255.4</ele>
        <time>2022-05-20 23:11:53</time>
      </trkpt>
      <trkpt lat="41.6873" lon="1.77946">
        <ele>255.2</ele>
        <time>2022-05-20 23:11:54</time>
      </trkpt>
      <trkpt lat="41.68739" lon="1.77948">
        <ele>255</ele>
        <time>2022-05-20 23:11:55</time>
      </trkpt>
      <trkpt lat="41.68747" lon="1.77949">
        <ele>254.8</ele>
        <time>2022-05-20 23:11:56</time>
      </trkpt>
      <trkpt lat="41.68756" lon="1.77951">
        <ele>254.6</ele>
        <time>2022-05-20 23:11:57</time>
      </trkpt>
      <trkpt lat="41.68765" lon="1.77953">
        <ele>254.4</ele>
        <time>2022-05-20 23:11:58</time>
      </trkpt>
      <trkpt lat="41.68774" lon="1.77954">
        <ele>254.2</ele>
        <time>2022-05-20 23:11:59</time>
      </trkpt>
      <trkpt lat="41.68783" lon="1.77956">
        <ele>254</ele>
        <time>2022-05-20 23:12:00</time>
      </trkpt>
      <trkpt lat="41.68791" lon="1.77958">
        <ele>254</ele>
        <time>2022-05-20 23:12:01</time>
      </trkpt>
      <trkpt lat="41.688" lon="1.7796">
        <ele>253.8</ele>
        <time>2022-05-20 23:12:02</time>
      </trkpt>
      <trkpt lat="41.68809" lon="1.77962">
        <ele>253.6</ele>
        <time>2022-05-20 23:12:03</time>
      </trkpt>
      <trkpt lat="41.68818" lon="1.77963">
        <ele>253.6</ele>
        <time>2022-05-20 23:12:04</time>
      </trkpt>
      <trkpt lat="41.68826" lon="1.77965">
        <ele>253.4</ele>
        <time>2022-05-20 23:12:05</time>
      </trkpt>
      <trkpt lat="41.68835" lon="1.77966">
        <ele>253.2</ele>
        <time>2022-05-20 23:12:06</time>
      </trkpt>
      <trkpt lat="41.68844" lon="1.77968">
        <ele>253</ele>
        <time>2022-05-20 23:12:07</time>
      </trkpt>
      <trkpt lat="41.68853" lon="1.7797">
        <ele>252.8</ele>
        <time>2022-05-20 23:12:08</time>
      </trkpt>
      <trkpt lat="41.68861" lon="1.77971">
        <ele>252.6</ele>
        <time>2022-05-20 23:12:09</time>
      </trkpt>
      <trkpt lat="41.6887" lon="1.77973">
        <ele>252.4</ele>
        <time>2022-05-20 23:12:10</time>
      </trkpt>
      <trkpt lat="41.68879" lon="1.77975">
        <ele>252.4</ele>
        <time>2022-05-20 23:12:11</time>
      </trkpt>
      <trkpt lat="41.68888" lon="1.77976">
        <ele>252.2</ele>
        <time>2022-05-20 23:12:12</time>
      </trkpt>
      <trkpt lat="41.68896" lon="1.77978">
        <ele>252</ele>
        <time>2022-05-20 23:12:13</time>
      </trkpt>
      <trkpt lat="41.68904" lon="1.7798">
        <ele>252</ele>
        <time>2022-05-20 23:12:14</time>
      </trkpt>
      <trkpt lat="41.68913" lon="1.77982">
        <ele>251.8</ele>
        <time>2022-05-20 23:12:15</time>
      </trkpt>
      <trkpt lat="41.68921" lon="1.77984">
        <ele>251.6</ele>
        <time>2022-05-20 23:12:16</time>
      </trkpt>
      <trkpt lat="41.68929" lon="1.77987">
        <ele>251.6</ele>
        <time>2022-05-20 23:12:17</time>
      </trkpt>
      <trkpt lat="41.68937" lon="1.77992">
        <ele>251.4</ele>
        <time>2022-05-20 23:12:18</time>
      </trkpt>
      <trkpt lat="41.68945" lon="1.77997">
        <ele>251.4</ele>
        <time>2022-05-20 23:12:19</time>
      </trkpt>
      <trkpt lat="41.68953" lon="1.78003">
        <ele>251.4</ele>
        <time>2022-05-20 23:12:20</time>
      </trkpt>
      <trkpt lat="41.68959" lon="1.7801">
        <ele>251.2</ele>
        <time>2022-05-20 23:12:21</time>
      </trkpt>
      <trkpt lat="41.68966" lon="1.78017">
        <ele>251.2</ele>
        <time>2022-05-20 23:12:22</time>
      </trkpt>
      <trkpt lat="41.68972" lon="1.78025">
        <ele>251.2</ele>
        <time>2022-05-20 23:12:23</time>
      </trkpt>
      <trkpt lat="41.68978" lon="1.78033">
        <ele>251.2</ele>
        <time>2022-05-20 23:12:24</time>
      </trkpt>
      <trkpt lat="41.68984" lon="1.78041">
        <ele>251</ele>
        <time>2022-05-20 23:12:25</time>
      </trkpt>
      <trkpt lat="41.6899" lon="1.78049">
        <ele>251</ele>
        <time>2022-05-20 23:12:26</time>
      </trkpt>
      <trkpt lat="41.68996" lon="1.78057">
        <ele>251</ele>
        <time>2022-05-20 23:12:27</time>
      </trkpt>
      <trkpt lat="41.69002" lon="1.78065">
        <ele>251</ele>
        <time>2022-05-20 23:12:28</time>
      </trkpt>
      <trkpt lat="41.69007" lon="1.78073">
        <ele>251</ele>
        <time>2022-05-20 23:12:29</time>
      </trkpt>
      <trkpt lat="41.69013" lon="1.7808">
        <ele>251</ele>
        <time>2022-05-20 23:12:30</time>
      </trkpt>
      <trkpt lat="41.69019" lon="1.78089">
        <ele>251</ele>
        <time>2022-05-20 23:12:31</time>
      </trkpt>
      <trkpt lat="41.69025" lon="1.78097">
        <ele>251</ele>
        <time>2022-05-20 23:12:32</time>
      </trkpt>
      <trkpt lat="41.6903" lon="1.78104">
        <ele>250.8</ele>
        <time>2022-05-20 23:12:33</time>
      </trkpt>
      <trkpt lat="41.69036" lon="1.78112">
        <ele>250.8</ele>
        <time>2022-05-20 23:12:34</time>
      </trkpt>
      <trkpt lat="41.69042" lon="1.78119">
        <ele>250.8</ele>
        <time>2022-05-20 23:12:35</time>
      </trkpt>
      <trkpt lat="41.69048" lon="1.78127">
        <ele>250.8</ele>
        <time>2022-05-20 23:12:36</time>
      </trkpt>
      <trkpt lat="41.69054" lon="1.78133">
        <ele>250.8</ele>
        <time>2022-05-20 23:12:37</time>
      </trkpt>
      <trkpt lat="41.69061" lon="1.7814">
        <ele>250.8</ele>
        <time>2022-05-20 23:12:38</time>
      </trkpt>
      <trkpt lat="41.69067" lon="1.78145">
        <ele>250.8</ele>
        <time>2022-05-20 23:12:39</time>
      </trkpt>
      <trkpt lat="41.69073" lon="1.78151">
        <ele>250.6</ele>
        <time>2022-05-20 23:12:40</time>
      </trkpt>
      <trkpt lat="41.69081" lon="1.78156">
        <ele>250.6</ele>
        <time>2022-05-20 23:12:41</time>
      </trkpt>
      <trkpt lat="41.69088" lon="1.7816">
        <ele>250.4</ele>
        <time>2022-05-20 23:12:42</time>
      </trkpt>
      <trkpt lat="41.69096" lon="1.78165">
        <ele>250.2</ele>
        <time>2022-05-20 23:12:43</time>
      </trkpt>
      <trkpt lat="41.69104" lon="1.78169">
        <ele>250</ele>
        <time>2022-05-20 23:12:44</time>
      </trkpt>
      <trkpt lat="41.69112" lon="1.78173">
        <ele>249.8</ele>
        <time>2022-05-20 23:12:45</time>
      </trkpt>
      <trkpt lat="41.6912" lon="1.78177">
        <ele>249.4</ele>
        <time>2022-05-20 23:12:46</time>
      </trkpt>
      <trkpt lat="41.69128" lon="1.78181">
        <ele>249.2</ele>
        <time>2022-05-20 23:12:47</time>
      </trkpt>
      <trkpt lat="41.69137" lon="1.78186">
        <ele>248.8</ele>
        <time>2022-05-20 23:12:48</time>
      </trkpt>
      <trkpt lat="41.69145" lon="1.7819">
        <ele>248.6</ele>
        <time>2022-05-20 23:12:49</time>
      </trkpt>
      <trkpt lat="41.69154" lon="1.78194">
        <ele>248.2</ele>
        <time>2022-05-20 23:12:50</time>
      </trkpt>
      <trkpt lat="41.69162" lon="1.78198">
        <ele>248</ele>
        <time>2022-05-20 23:12:51</time>
      </trkpt>
      <trkpt lat="41.6917" lon="1.78202">
        <ele>247.6</ele>
        <time>2022-05-20 23:12:52</time>
      </trkpt>
      <trkpt lat="41.69178" lon="1.78206">
        <ele>247.4</ele>
        <time>2022-05-20 23:12:53</time>
      </trkpt>
      <trkpt lat="41.69186" lon="1.78211">
        <ele>247</ele>
        <time>2022-05-20 23:12:54</time>
      </trkpt>
      <trkpt lat="41.69196" lon="1.78216">
        <ele>246.8</ele>
        <time>2022-05-20 23:12:55</time>
      </trkpt>
      <trkpt lat="41.69205" lon="1.7822">
        <ele>246.4</ele>
        <time>2022-05-20 23:12:56</time>
      </trkpt>
      <trkpt lat="41.69213" lon="1.78224">
        <ele>246.2</ele>
        <time>2022-05-20 23:12:57</time>
      </trkpt>
      <trkpt lat="41.69223" lon="1.78229">
        <ele>245.8</ele>
        <time>2022-05-20 23:12:58</time>
      </trkpt>
      <trkpt lat="41.69232" lon="1.78234">
        <ele>245.6</ele>
        <time>2022-05-20 23:12:59</time>
      </trkpt>
      <trkpt lat="41.69241" lon="1.78238">
        <ele>245.2</ele>
        <time>2022-05-20 23:13:00</time>
      </trkpt>
      <trkpt lat="41.69249" lon="1.78242">
        <ele>244.8</ele>
        <time>2022-05-20 23:13:01</time>
      </trkpt>
      <trkpt lat="41.69258" lon="1.78247">
        <ele>244.6</ele>
        <time>2022-05-20 23:13:02</time>
      </trkpt>
      <trkpt lat="41.69267" lon="1.78252">
        <ele>244.2</ele>
        <time>2022-05-20 23:13:03</time>
      </trkpt>
      <trkpt lat="41.69276" lon="1.78257">
        <ele>244</ele>
        <time>2022-05-20 23:13:04</time>
      </trkpt>
      <trkpt lat="41.69285" lon="1.78263">
        <ele>243.8</ele>
        <time>2022-05-20 23:13:05</time>
      </trkpt>
      <trkpt lat="41.69295" lon="1.78268">
        <ele>243.4</ele>
        <time>2022-05-20 23:13:06</time>
      </trkpt>
      <trkpt lat="41.69304" lon="1.78272">
        <ele>243.2</ele>
        <time>2022-05-20 23:13:07</time>
      </trkpt>
      <trkpt lat="41.69313" lon="1.78276">
        <ele>242.8</ele>
        <time>2022-05-20 23:13:08</time>
      </trkpt>
      <trkpt lat="41.69322" lon="1.78279">
        <ele>242.6</ele>
        <time>2022-05-20 23:13:09</time>
      </trkpt>
      <trkpt lat="41.69331" lon="1.78283">
        <ele>242.4</ele>
        <time>2022-05-20 23:13:10</time>
      </trkpt>
      <trkpt lat="41.6934" lon="1.78288">
        <ele>242</ele>
        <time>2022-05-20 23:13:11</time>
      </trkpt>
      <trkpt lat="41.69349" lon="1.78292">
        <ele>241.6</ele>
        <time>2022-05-20 23:13:12</time>
      </trkpt>
      <trkpt lat="41.69357" lon="1.78297">
        <ele>241.4</ele>
        <time>2022-05-20 23:13:13</time>
      </trkpt>
      <trkpt lat="41.69366" lon="1.78302">
        <ele>241</ele>
        <time>2022-05-20 23:13:14</time>
      </trkpt>
      <trkpt lat="41.69375" lon="1.78307">
        <ele>240.8</ele>
        <time>2022-05-20 23:13:15</time>
      </trkpt>
      <trkpt lat="41.69383" lon="1.78312">
        <ele>240.4</ele>
        <time>2022-05-20 23:13:16</time>
      </trkpt>
      <trkpt lat="41.69391" lon="1.78318">
        <ele>240.2</ele>
        <time>2022-05-20 23:13:17</time>
      </trkpt>
      <trkpt lat="41.69399" lon="1.78325">
        <ele>240.2</ele>
        <time>2022-05-20 23:13:18</time>
      </trkpt>
      <trkpt lat="41.69407" lon="1.78331">
        <ele>240</ele>
        <time>2022-05-20 23:13:19</time>
      </trkpt>
      <trkpt lat="41.69413" lon="1.78338">
        <ele>240</ele>
        <time>2022-05-20 23:13:20</time>
      </trkpt>
      <trkpt lat="41.6942" lon="1.78345">
        <ele>239.8</ele>
        <time>2022-05-20 23:13:21</time>
      </trkpt>
      <trkpt lat="41.69427" lon="1.78353">
        <ele>239.8</ele>
        <time>2022-05-20 23:13:22</time>
      </trkpt>
      <trkpt lat="41.69434" lon="1.7836">
        <ele>239.8</ele>
        <time>2022-05-20 23:13:23</time>
      </trkpt>
      <trkpt lat="41.6944" lon="1.78367">
        <ele>239.8</ele>
        <time>2022-05-20 23:13:24</time>
      </trkpt>
      <trkpt lat="41.69447" lon="1.78374">
        <ele>239.8</ele>
        <time>2022-05-20 23:13:25</time>
      </trkpt>
      <trkpt lat="41.69454" lon="1.78381">
        <ele>239.8</ele>
        <time>2022-05-20 23:13:26</time>
      </trkpt>
      <trkpt lat="41.69461" lon="1.78388">
        <ele>239.8</ele>
        <time>2022-05-20 23:13:27</time>
      </trkpt>
      <trkpt lat="41.69467" lon="1.78394">
        <ele>239.8</ele>
        <time>2022-05-20 23:13:28</time>
      </trkpt>
      <trkpt lat="41.69473" lon="1.78401">
        <ele>239.8</ele>
        <time>2022-05-20 23:13:29</time>
      </trkpt>
      <trkpt lat="41.69479" lon="1.78408">
        <ele>239.8</ele>
        <time>2022-05-20 23:13:30</time>
      </trkpt>
      <trkpt lat="41.69485" lon="1.78414">
        <ele>239.8</ele>
        <time>2022-05-20 23:13:31</time>
      </trkpt>
      <trkpt lat="41.69492" lon="1.78422">
        <ele>239.8</ele>
        <time>2022-05-20 23:13:32</time>
      </trkpt>
      <trkpt lat="41.69497" lon="1.7843">
        <ele>239.8</ele>
        <time>2022-05-20 23:13:33</time>
      </trkpt>
      <trkpt lat="41.69501" lon="1.78438">
        <ele>239.8</ele>
        <time>2022-05-20 23:13:34</time>
      </trkpt>
      <trkpt lat="41.69505" lon="1.78446">
        <ele>239.6</ele>
        <time>2022-05-20 23:13:35</time>
      </trkpt>
      <trkpt lat="41.6951" lon="1.78455">
        <ele>239.6</ele>
        <time>2022-05-20 23:13:36</time>
      </trkpt>
      <trkpt lat="41.69515" lon="1.78464">
        <ele>239.6</ele>
        <time>2022-05-20 23:13:37</time>
      </trkpt>
      <trkpt lat="41.69519" lon="1.78473">
        <ele>239.6</ele>
        <time>2022-05-20 23:13:38</time>
      </trkpt>
      <trkpt lat="41.69523" lon="1.78483">
        <ele>239.6</ele>
        <time>2022-05-20 23:13:39</time>
      </trkpt>
      <trkpt lat="41.69527" lon="1.78492">
        <ele>239.6</ele>
        <time>2022-05-20 23:13:40</time>
      </trkpt>
      <trkpt lat="41.69531" lon="1.78501">
        <ele>239.6</ele>
        <time>2022-05-20 23:13:41</time>
      </trkpt>
      <trkpt lat="41.69535" lon="1.78511">
        <ele>239.6</ele>
        <time>2022-05-20 23:13:42</time>
      </trkpt>
      <trkpt lat="41.69539" lon="1.7852">
        <ele>239.6</ele>
        <time>2022-05-20 23:13:43</time>
      </trkpt>
      <trkpt lat="41.69544" lon="1.78529">
        <ele>239.6</ele>
        <time>2022-05-20 23:13:44</time>
      </trkpt>
      <trkpt lat="41.69548" lon="1.78538">
        <ele>239.6</ele>
        <time>2022-05-20 23:13:45</time>
      </trkpt>
      <trkpt lat="41.69553" lon="1.78547">
        <ele>239.6</ele>
        <time>2022-05-20 23:13:46</time>
      </trkpt>
      <trkpt lat="41.69556" lon="1.78557">
        <ele>239.6</ele>
        <time>2022-05-20 23:13:47</time>
      </trkpt>
      <trkpt lat="41.6956" lon="1.78566">
        <ele>239.6</ele>
        <time>2022-05-20 23:13:48</time>
      </trkpt>
      <trkpt lat="41.69563" lon="1.78575">
        <ele>239.6</ele>
        <time>2022-05-20 23:13:49</time>
      </trkpt>
      <trkpt lat="41.69567" lon="1.78585">
        <ele>239.6</ele>
        <time>2022-05-20 23:13:50</time>
      </trkpt>
      <trkpt lat="41.69571" lon="1.78594">
        <ele>239.6</ele>
        <time>2022-05-20 23:13:51</time>
      </trkpt>
      <trkpt lat="41.69576" lon="1.78604">
        <ele>239.6</ele>
        <time>2022-05-20 23:13:52</time>
      </trkpt>
      <trkpt lat="41.6958" lon="1.78613">
        <ele>239.6</ele>
        <time>2022-05-20 23:13:53</time>
      </trkpt>
      <trkpt lat="41.69584" lon="1.78623">
        <ele>239.6</ele>
        <time>2022-05-20 23:13:54</time>
      </trkpt>
      <trkpt lat="41.69587" lon="1.78632">
        <ele>239.6</ele>
        <time>2022-05-20 23:13:55</time>
      </trkpt>
      <trkpt lat="41.69591" lon="1.78641">
        <ele>239.4</ele>
        <time>2022-05-20 23:13:56</time>
      </trkpt>
      <trkpt lat="41.69595" lon="1.7865">
        <ele>239.4</ele>
        <time>2022-05-20 23:13:57</time>
      </trkpt>
      <trkpt lat="41.69598" lon="1.78659">
        <ele>239.4</ele>
        <time>2022-05-20 23:13:58</time>
      </trkpt>
      <trkpt lat="41.69603" lon="1.78668">
        <ele>239.4</ele>
        <time>2022-05-20 23:13:59</time>
      </trkpt>
      <trkpt lat="41.69607" lon="1.78678">
        <ele>239.4</ele>
        <time>2022-05-20 23:14:00</time>
      </trkpt>
      <trkpt lat="41.69611" lon="1.78687">
        <ele>239.4</ele>
        <time>2022-05-20 23:14:01</time>
      </trkpt>
      <trkpt lat="41.69615" lon="1.78696">
        <ele>239.4</ele>
        <time>2022-05-20 23:14:02</time>
      </trkpt>
      <trkpt lat="41.69619" lon="1.78705">
        <ele>239.4</ele>
        <time>2022-05-20 23:14:03</time>
      </trkpt>
      <trkpt lat="41.69624" lon="1.78714">
        <ele>239.4</ele>
        <time>2022-05-20 23:14:04</time>
      </trkpt>
      <trkpt lat="41.69627" lon="1.78723">
        <ele>239.4</ele>
        <time>2022-05-20 23:14:05</time>
      </trkpt>
      <trkpt lat="41.69631" lon="1.78732">
        <ele>239.4</ele>
        <time>2022-05-20 23:14:06</time>
      </trkpt>
      <trkpt lat="41.69635" lon="1.7874">
        <ele>239.4</ele>
        <time>2022-05-20 23:14:07</time>
      </trkpt>
      <trkpt lat="41.69639" lon="1.78749">
        <ele>239.4</ele>
        <time>2022-05-20 23:14:08</time>
      </trkpt>
      <trkpt lat="41.69643" lon="1.78758">
        <ele>239.2</ele>
        <time>2022-05-20 23:14:09</time>
      </trkpt>
      <trkpt lat="41.69647" lon="1.78768">
        <ele>239.2</ele>
        <time>2022-05-20 23:14:10</time>
      </trkpt>
      <trkpt lat="41.6965" lon="1.78777">
        <ele>239.2</ele>
        <time>2022-05-20 23:14:11</time>
      </trkpt>
      <trkpt lat="41.69652" lon="1.78787">
        <ele>239</ele>
        <time>2022-05-20 23:14:12</time>
      </trkpt>
      <trkpt lat="41.69652" lon="1.78797">
        <ele>239</ele>
        <time>2022-05-20 23:14:13</time>
      </trkpt>
      <trkpt lat="41.6965" lon="1.78806">
        <ele>239.2</ele>
        <time>2022-05-20 23:14:14</time>
      </trkpt>
      <trkpt lat="41.69647" lon="1.78815">
        <ele>239.2</ele>
        <time>2022-05-20 23:14:15</time>
      </trkpt>
      <trkpt lat="41.69644" lon="1.78822">
        <ele>239.4</ele>
        <time>2022-05-20 23:14:16</time>
      </trkpt>
      <trkpt lat="41.6964" lon="1.7883">
        <ele>239.4</ele>
        <time>2022-05-20 23:14:17</time>
      </trkpt>
      <trkpt lat="41.69635" lon="1.78837">
        <ele>239.6</ele>
        <time>2022-05-20 23:14:18</time>
      </trkpt>
      <trkpt lat="41.69631" lon="1.78844">
        <ele>239.6</ele>
        <time>2022-05-20 23:14:19</time>
      </trkpt>
      <trkpt lat="41.69628" lon="1.78851">
        <ele>239.8</ele>
        <time>2022-05-20 23:14:20</time>
      </trkpt>
      <trkpt lat="41.69625" lon="1.78859">
        <ele>239.8</ele>
        <time>2022-05-20 23:14:21</time>
      </trkpt>
      <trkpt lat="41.69625" lon="1.78866">
        <ele>240</ele>
        <time>2022-05-20 23:14:22</time>
      </trkpt>
      <trkpt lat="41.69625" lon="1.78873">
        <ele>240</ele>
        <time>2022-05-20 23:14:23</time>
      </trkpt>
      <trkpt lat="41.69629" lon="1.78879">
        <ele>240.2</ele>
        <time>2022-05-20 23:14:24</time>
      </trkpt>
      <trkpt lat="41.69633" lon="1.78884">
        <ele>240.2</ele>
        <time>2022-05-20 23:14:25</time>
      </trkpt>
      <trkpt lat="41.69638" lon="1.78889">
        <ele>240.2</ele>
        <time>2022-05-20 23:14:26</time>
      </trkpt>
      <trkpt lat="41.69643" lon="1.78893">
        <ele>240.2</ele>
        <time>2022-05-20 23:14:27</time>
      </trkpt>
      <trkpt lat="41.69649" lon="1.78897">
        <ele>240.4</ele>
        <time>2022-05-20 23:14:28</time>
      </trkpt>
      <trkpt lat="41.69654" lon="1.789">
        <ele>240.4</ele>
        <time>2022-05-20 23:14:29</time>
      </trkpt>
      <trkpt lat="41.69659" lon="1.78903">
        <ele>240.6</ele>
        <time>2022-05-20 23:14:30</time>
      </trkpt>
      <trkpt lat="41.69665" lon="1.78906">
        <ele>240.8</ele>
        <time>2022-05-20 23:14:31</time>
      </trkpt>
      <trkpt lat="41.6967" lon="1.78909">
        <ele>241</ele>
        <time>2022-05-20 23:14:32</time>
      </trkpt>
      <trkpt lat="41.69675" lon="1.78912">
        <ele>241.2</ele>
        <time>2022-05-20 23:14:33</time>
      </trkpt>
      <trkpt lat="41.6968" lon="1.78915">
        <ele>241.6</ele>
        <time>2022-05-20 23:14:34</time>
      </trkpt>
      <trkpt lat="41.69684" lon="1.78918">
        <ele>241.8</ele>
        <time>2022-05-20 23:14:35</time>
      </trkpt>
      <trkpt lat="41.69689" lon="1.78921">
        <ele>242</ele>
        <time>2022-05-20 23:14:36</time>
      </trkpt>
      <trkpt lat="41.69693" lon="1.78925">
        <ele>242.2</ele>
        <time>2022-05-20 23:14:37</time>
      </trkpt>
      <trkpt lat="41.69698" lon="1.78928">
        <ele>242.4</ele>
        <time>2022-05-20 23:14:38</time>
      </trkpt>
      <trkpt lat="41.69702" lon="1.78932">
        <ele>242.6</ele>
        <time>2022-05-20 23:14:39</time>
      </trkpt>
      <trkpt lat="41.69707" lon="1.78937">
        <ele>242.8</ele>
        <time>2022-05-20 23:14:40</time>
      </trkpt>
      <trkpt lat="41.69711" lon="1.78941">
        <ele>243</ele>
        <time>2022-05-20 23:14:41</time>
      </trkpt>
      <trkpt lat="41.69714" lon="1.78946">
        <ele>243.2</ele>
        <time>2022-05-20 23:14:42</time>
      </trkpt>
      <trkpt lat="41.69717" lon="1.78951">
        <ele>243.4</ele>
        <time>2022-05-20 23:14:43</time>
      </trkpt>
      <trkpt lat="41.69721" lon="1.78956">
        <ele>243.8</ele>
        <time>2022-05-20 23:14:44</time>
      </trkpt>
      <trkpt lat="41.69724" lon="1.7896">
        <ele>244</ele>
        <time>2022-05-20 23:14:45</time>
      </trkpt>
      <trkpt lat="41.69728" lon="1.78965">
        <ele>244.4</ele>
        <time>2022-05-20 23:14:46</time>
      </trkpt>
      <trkpt lat="41.69732" lon="1.78969">
        <ele>244.6</ele>
        <time>2022-05-20 23:14:47</time>
      </trkpt>
      <trkpt lat="41.69735" lon="1.78973">
        <ele>245</ele>
        <time>2022-05-20 23:14:48</time>
      </trkpt>
      <trkpt lat="41.69739" lon="1.78977">
        <ele>245.2</ele>
        <time>2022-05-20 23:14:49</time>
      </trkpt>
      <trkpt lat="41.69743" lon="1.78981">
        <ele>245.4</ele>
        <time>2022-05-20 23:14:50</time>
      </trkpt>
      <trkpt lat="41.69746" lon="1.78984">
        <ele>245.6</ele>
        <time>2022-05-20 23:14:51</time>
      </trkpt>
      <trkpt lat="41.6975" lon="1.78988">
        <ele>245.8</ele>
        <time>2022-05-20 23:14:52</time>
      </trkpt>
      <trkpt lat="41.69754" lon="1.78992">
        <ele>246.2</ele>
        <time>2022-05-20 23:14:53</time>
      </trkpt>
      <trkpt lat="41.69758" lon="1.78995">
        <ele>246.4</ele>
        <time>2022-05-20 23:14:54</time>
      </trkpt>
      <trkpt lat="41.69762" lon="1.78998">
        <ele>246.6</ele>
        <time>2022-05-20 23:14:55</time>
      </trkpt>
      <trkpt lat="41.69766" lon="1.79002">
        <ele>246.8</ele>
        <time>2022-05-20 23:14:56</time>
      </trkpt>
      <trkpt lat="41.6977" lon="1.79005">
        <ele>247</ele>
        <time>2022-05-20 23:14:57</time>
      </trkpt>
      <trkpt lat="41.69773" lon="1.79009">
        <ele>247.2</ele>
        <time>2022-05-20 23:14:58</time>
      </trkpt>
      <trkpt lat="41.69777" lon="1.79013">
        <ele>247.2</ele>
        <time>2022-05-20 23:14:59</time>
      </trkpt>
      <trkpt lat="41.69781" lon="1.79016">
        <ele>247.4</ele>
        <time>2022-05-20 23:15:00</time>
      </trkpt>
      <trkpt lat="41.69785" lon="1.7902">
        <ele>247.6</ele>
        <time>2022-05-20 23:15:01</time>
      </trkpt>
      <trkpt lat="41.69789" lon="1.79024">
        <ele>247.8</ele>
        <time>2022-05-20 23:15:02</time>
      </trkpt>
      <trkpt lat="41.69793" lon="1.79027">
        <ele>247.8</ele>
        <time>2022-05-20 23:15:03</time>
      </trkpt>
      <trkpt lat="41.69797" lon="1.79031">
        <ele>248</ele>
        <time>2022-05-20 23:15:04</time>
      </trkpt>
      <trkpt lat="41.69801" lon="1.79035">
        <ele>248</ele>
        <time>2022-05-20 23:15:05</time>
      </trkpt>
      <trkpt lat="41.69805" lon="1.79039">
        <ele>248.2</ele>
        <time>2022-05-20 23:15:06</time>
      </trkpt>
      <trkpt lat="41.69809" lon="1.79042">
        <ele>248.4</ele>
        <time>2022-05-20 23:15:07</time>
      </trkpt>
      <trkpt lat="41.69813" lon="1.79046">
        <ele>248.4</ele>
        <time>2022-05-20 23:15:08</time>
      </trkpt>
      <trkpt lat="41.69817" lon="1.7905">
        <ele>248.6</ele>
        <time>2022-05-20 23:15:09</time>
      </trkpt>
      <trkpt lat="41.69821" lon="1.79053">
        <ele>248.8</ele>
        <time>2022-05-20 23:15:10</time>
      </trkpt>
      <trkpt lat="41.69825" lon="1.79057">
        <ele>249</ele>
        <time>2022-05-20 23:15:11</time>
      </trkpt>
      <trkpt lat="41.69829" lon="1.79061">
        <ele>249.2</ele>
        <time>2022-05-20 23:15:12</time>
      </trkpt>
      <trkpt lat="41.69833" lon="1.79064">
        <ele>249.2</ele>
        <time>2022-05-20 23:15:13</time>
      </trkpt>
      <trkpt lat="41.69837" lon="1.79068">
        <ele>249.4</ele>
        <time>2022-05-20 23:15:14</time>
      </trkpt>
      <trkpt lat="41.69841" lon="1.79072">
        <ele>249.6</ele>
        <time>2022-05-20 23:15:15</time>
      </trkpt>
      <trkpt lat="41.69845" lon="1.79076">
        <ele>249.8</ele>
        <time>2022-05-20 23:15:16</time>
      </trkpt>
      <trkpt lat="41.69849" lon="1.7908">
        <ele>249.8</ele>
        <time>2022-05-20 23:15:17</time>
      </trkpt>
      <trkpt lat="41.69853" lon="1.79084">
        <ele>250</ele>
        <time>2022-05-20 23:15:18</time>
      </trkpt>
      <trkpt lat="41.69857" lon="1.79087">
        <ele>250.2</ele>
        <time>2022-05-20 23:15:19</time>
      </trkpt>
      <trkpt lat="41.6986" lon="1.79091">
        <ele>250.2</ele>
        <time>2022-05-20 23:15:20</time>
      </trkpt>
      <trkpt lat="41.69864" lon="1.79095">
        <ele>250.4</ele>
        <time>2022-05-20 23:15:21</time>
      </trkpt>
      <trkpt lat="41.69867" lon="1.79099">
        <ele>250.6</ele>
        <time>2022-05-20 23:15:22</time>
      </trkpt>
      <trkpt lat="41.6987" lon="1.79103">
        <ele>250.8</ele>
        <time>2022-05-20 23:15:23</time>
      </trkpt>
      <trkpt lat="41.69874" lon="1.79107">
        <ele>251</ele>
        <time>2022-05-20 23:15:24</time>
      </trkpt>
      <trkpt lat="41.69878" lon="1.79111">
        <ele>251.2</ele>
        <time>2022-05-20 23:15:25</time>
      </trkpt>
      <trkpt lat="41.69881" lon="1.79115">
        <ele>251.4</ele>
        <time>2022-05-20 23:15:26</time>
      </trkpt>
      <trkpt lat="41.69885" lon="1.79118">
        <ele>251.6</ele>
        <time>2022-05-20 23:15:27</time>
      </trkpt>
      <trkpt lat="41.69889" lon="1.79122">
        <ele>251.8</ele>
        <time>2022-05-20 23:15:28</time>
      </trkpt>
      <trkpt lat="41.69892" lon="1.79126">
        <ele>252</ele>
        <time>2022-05-20 23:15:29</time>
      </trkpt>
      <trkpt lat="41.69896" lon="1.79129">
        <ele>252</ele>
        <time>2022-05-20 23:15:30</time>
      </trkpt>
      <trkpt lat="41.699" lon="1.79133">
        <ele>252.2</ele>
        <time>2022-05-20 23:15:31</time>
      </trkpt>
      <trkpt lat="41.69904" lon="1.79136">
        <ele>252.4</ele>
        <time>2022-05-20 23:15:32</time>
      </trkpt>
      <trkpt lat="41.69907" lon="1.7914">
        <ele>252.6</ele>
        <time>2022-05-20 23:15:33</time>
      </trkpt>
      <trkpt lat="41.69911" lon="1.79143">
        <ele>253</ele>
        <time>2022-05-20 23:15:34</time>
      </trkpt>
      <trkpt lat="41.69915" lon="1.79147">
        <ele>253.2</ele>
        <time>2022-05-20 23:15:35</time>
      </trkpt>
      <trkpt lat="41.69918" lon="1.7915">
        <ele>253.2</ele>
        <time>2022-05-20 23:15:36</time>
      </trkpt>
      <trkpt lat="41.69922" lon="1.79154">
        <ele>253.4</ele>
        <time>2022-05-20 23:15:37</time>
      </trkpt>
      <trkpt lat="41.69926" lon="1.79157">
        <ele>253.6</ele>
        <time>2022-05-20 23:15:38</time>
      </trkpt>
      <trkpt lat="41.69929" lon="1.79161">
        <ele>253.8</ele>
        <time>2022-05-20 23:15:39</time>
      </trkpt>
      <trkpt lat="41.69933" lon="1.79164">
        <ele>254</ele>
        <time>2022-05-20 23:15:40</time>
      </trkpt>
      <trkpt lat="41.69936" lon="1.79168">
        <ele>254.2</ele>
        <time>2022-05-20 23:15:41</time>
      </trkpt>
      <trkpt lat="41.6994" lon="1.79172">
        <ele>254.4</ele>
        <time>2022-05-20 23:15:42</time>
      </trkpt>
      <trkpt lat="41.69944" lon="1.79175">
        <ele>254.6</ele>
        <time>2022-05-20 23:15:43</time>
      </trkpt>
      <trkpt lat="41.69947" lon="1.79179">
        <ele>254.8</ele>
        <time>2022-05-20 23:15:44</time>
      </trkpt>
      <trkpt lat="41.69951" lon="1.79183">
        <ele>255</ele>
        <time>2022-05-20 23:15:45</time>
      </trkpt>
      <trkpt lat="41.69955" lon="1.79186">
        <ele>255.2</ele>
        <time>2022-05-20 23:15:46</time>
      </trkpt>
      <trkpt lat="41.69958" lon="1.7919">
        <ele>255.6</ele>
        <time>2022-05-20 23:15:47</time>
      </trkpt>
      <trkpt lat="41.69962" lon="1.79193">
        <ele>255.8</ele>
        <time>2022-05-20 23:15:48</time>
      </trkpt>
      <trkpt lat="41.69965" lon="1.79197">
        <ele>256</ele>
        <time>2022-05-20 23:15:49</time>
      </trkpt>
      <trkpt lat="41.69969" lon="1.792">
        <ele>256.2</ele>
        <time>2022-05-20 23:15:50</time>
      </trkpt>
      <trkpt lat="41.69973" lon="1.79204">
        <ele>256.4</ele>
        <time>2022-05-20 23:15:51</time>
      </trkpt>
      <trkpt lat="41.69976" lon="1.79208">
        <ele>256.4</ele>
        <time>2022-05-20 23:15:52</time>
      </trkpt>
      <trkpt lat="41.6998" lon="1.79211">
        <ele>256.6</ele>
        <time>2022-05-20 23:15:53</time>
      </trkpt>
      <trkpt lat="41.69984" lon="1.79215">
        <ele>256.8</ele>
        <time>2022-05-20 23:15:54</time>
      </trkpt>
      <trkpt lat="41.69988" lon="1.79218">
        <ele>257</ele>
        <time>2022-05-20 23:15:55</time>
      </trkpt>
      <trkpt lat="41.69991" lon="1.79222">
        <ele>257.2</ele>
        <time>2022-05-20 23:15:56</time>
      </trkpt>
      <trkpt lat="41.69995" lon="1.79226">
        <ele>257.4</ele>
        <time>2022-05-20 23:15:57</time>
      </trkpt>
      <trkpt lat="41.69998" lon="1.79229">
        <ele>257.6</ele>
        <time>2022-05-20 23:15:58</time>
      </trkpt>
      <trkpt lat="41.70002" lon="1.79232">
        <ele>257.8</ele>
        <time>2022-05-20 23:15:59</time>
      </trkpt>
      <trkpt lat="41.70006" lon="1.79236">
        <ele>257.8</ele>
        <time>2022-05-20 23:16:00</time>
      </trkpt>
      <trkpt lat="41.70009" lon="1.7924">
        <ele>258</ele>
        <time>2022-05-20 23:16:01</time>
      </trkpt>
      <trkpt lat="41.70013" lon="1.79243">
        <ele>258.2</ele>
        <time>2022-05-20 23:16:02</time>
      </trkpt>
      <trkpt lat="41.70017" lon="1.79247">
        <ele>258.4</ele>
        <time>2022-05-20 23:16:03</time>
      </trkpt>
      <trkpt lat="41.70021" lon="1.79251">
        <ele>258.4</ele>
        <time>2022-05-20 23:16:04</time>
      </trkpt>
      <trkpt lat="41.70024" lon="1.79254">
        <ele>258.6</ele>
        <time>2022-05-20 23:16:05</time>
      </trkpt>
      <trkpt lat="41.70028" lon="1.79258">
        <ele>258.8</ele>
        <time>2022-05-20 23:16:06</time>
      </trkpt>
      <trkpt lat="41.70032" lon="1.79262">
        <ele>259</ele>
        <time>2022-05-20 23:16:07</time>
      </trkpt>
      <trkpt lat="41.70036" lon="1.79265">
        <ele>259</ele>
        <time>2022-05-20 23:16:08</time>
      </trkpt>
      <trkpt lat="41.7004" lon="1.79269">
        <ele>259.2</ele>
        <time>2022-05-20 23:16:09</time>
      </trkpt>
      <trkpt lat="41.70044" lon="1.79273">
        <ele>259.4</ele>
        <time>2022-05-20 23:16:10</time>
      </trkpt>
      <trkpt lat="41.70049" lon="1.79277">
        <ele>259.4</ele>
        <time>2022-05-20 23:16:11</time>
      </trkpt>
      <trkpt lat="41.70053" lon="1.7928">
        <ele>259.6</ele>
        <time>2022-05-20 23:16:12</time>
      </trkpt>
      <trkpt lat="41.70057" lon="1.79284">
        <ele>259.8</ele>
        <time>2022-05-20 23:16:13</time>
      </trkpt>
      <trkpt lat="41.70061" lon="1.79287">
        <ele>259.8</ele>
        <time>2022-05-20 23:16:14</time>
      </trkpt>
      <trkpt lat="41.70066" lon="1.79291">
        <ele>260</ele>
        <time>2022-05-20 23:16:15</time>
      </trkpt>
      <trkpt lat="41.7007" lon="1.79294">
        <ele>260.2</ele>
        <time>2022-05-20 23:16:16</time>
      </trkpt>
      <trkpt lat="41.70074" lon="1.79298">
        <ele>260.4</ele>
        <time>2022-05-20 23:16:17</time>
      </trkpt>
      <trkpt lat="41.70079" lon="1.79302">
        <ele>260.4</ele>
        <time>2022-05-20 23:16:18</time>
      </trkpt>
      <trkpt lat="41.70083" lon="1.79305">
        <ele>260.6</ele>
        <time>2022-05-20 23:16:19</time>
      </trkpt>
      <trkpt lat="41.70088" lon="1.79309">
        <ele>260.6</ele>
        <time>2022-05-20 23:16:20</time>
      </trkpt>
      <trkpt lat="41.70093" lon="1.79313">
        <ele>260.8</ele>
        <time>2022-05-20 23:16:21</time>
      </trkpt>
      <trkpt lat="41.70098" lon="1.79316">
        <ele>260.8</ele>
        <time>2022-05-20 23:16:22</time>
      </trkpt>
      <trkpt lat="41.70103" lon="1.7932">
        <ele>261</ele>
        <time>2022-05-20 23:16:23</time>
      </trkpt>
      <trkpt lat="41.70108" lon="1.79324">
        <ele>261</ele>
        <time>2022-05-20 23:16:24</time>
      </trkpt>
      <trkpt lat="41.70113" lon="1.79328">
        <ele>261.2</ele>
        <time>2022-05-20 23:16:25</time>
      </trkpt>
      <trkpt lat="41.70118" lon="1.79332">
        <ele>261.2</ele>
        <time>2022-05-20 23:16:26</time>
      </trkpt>
      <trkpt lat="41.70124" lon="1.79335">
        <ele>261.2</ele>
        <time>2022-05-20 23:16:27</time>
      </trkpt>
      <trkpt lat="41.70129" lon="1.79339">
        <ele>261.4</ele>
        <time>2022-05-20 23:16:28</time>
      </trkpt>
      <trkpt lat="41.70135" lon="1.79343">
        <ele>261.4</ele>
        <time>2022-05-20 23:16:29</time>
      </trkpt>
      <trkpt lat="41.7014" lon="1.79347">
        <ele>261.4</ele>
        <time>2022-05-20 23:16:30</time>
      </trkpt>
      <trkpt lat="41.70145" lon="1.79352">
        <ele>261.6</ele>
        <time>2022-05-20 23:16:31</time>
      </trkpt>
      <trkpt lat="41.70151" lon="1.79356">
        <ele>261.6</ele>
        <time>2022-05-20 23:16:32</time>
      </trkpt>
      <trkpt lat="41.70156" lon="1.7936">
        <ele>261.6</ele>
        <time>2022-05-20 23:16:33</time>
      </trkpt>
      <trkpt lat="41.70162" lon="1.79364">
        <ele>261.6</ele>
        <time>2022-05-20 23:16:34</time>
      </trkpt>
      <trkpt lat="41.70168" lon="1.79368">
        <ele>261.8</ele>
        <time>2022-05-20 23:16:35</time>
      </trkpt>
      <trkpt lat="41.70173" lon="1.79373">
        <ele>261.8</ele>
        <time>2022-05-20 23:16:36</time>
      </trkpt>
      <trkpt lat="41.70179" lon="1.79377">
        <ele>261.8</ele>
        <time>2022-05-20 23:16:37</time>
      </trkpt>
      <trkpt lat="41.70185" lon="1.7938">
        <ele>261.8</ele>
        <time>2022-05-20 23:16:38</time>
      </trkpt>
      <trkpt lat="41.7019" lon="1.79384">
        <ele>261.8</ele>
        <time>2022-05-20 23:16:39</time>
      </trkpt>
      <trkpt lat="41.70196" lon="1.79389">
        <ele>261.8</ele>
        <time>2022-05-20 23:16:40</time>
      </trkpt>
      <trkpt lat="41.70201" lon="1.79393">
        <ele>261.8</ele>
        <time>2022-05-20 23:16:41</time>
      </trkpt>
      <trkpt lat="41.70207" lon="1.79397">
        <ele>262</ele>
        <time>2022-05-20 23:16:42</time>
      </trkpt>
      <trkpt lat="41.70213" lon="1.79401">
        <ele>262</ele>
        <time>2022-05-20 23:16:43</time>
      </trkpt>
      <trkpt lat="41.70219" lon="1.79405">
        <ele>262</ele>
        <time>2022-05-20 23:16:44</time>
      </trkpt>
      <trkpt lat="41.70225" lon="1.7941">
        <ele>262</ele>
        <time>2022-05-20 23:16:45</time>
      </trkpt>
      <trkpt lat="41.7023" lon="1.79414">
        <ele>262</ele>
        <time>2022-05-20 23:16:46</time>
      </trkpt>
      <trkpt lat="41.70236" lon="1.79419">
        <ele>262</ele>
        <time>2022-05-20 23:16:47</time>
      </trkpt>
      <trkpt lat="41.70242" lon="1.79424">
        <ele>262</ele>
        <time>2022-05-20 23:16:48</time>
      </trkpt>
      <trkpt lat="41.70248" lon="1.79428">
        <ele>262</ele>
        <time>2022-05-20 23:16:49</time>
      </trkpt>
      <trkpt lat="41.70254" lon="1.79433">
        <ele>262.2</ele>
        <time>2022-05-20 23:16:50</time>
      </trkpt>
      <trkpt lat="41.7026" lon="1.79437">
        <ele>262.2</ele>
        <time>2022-05-20 23:16:51</time>
      </trkpt>
      <trkpt lat="41.70266" lon="1.79442">
        <ele>262.2</ele>
        <time>2022-05-20 23:16:52</time>
      </trkpt>
      <trkpt lat="41.70273" lon="1.79447">
        <ele>262.2</ele>
        <time>2022-05-20 23:16:53</time>
      </trkpt>
      <trkpt lat="41.70279" lon="1.79451">
        <ele>262.4</ele>
        <time>2022-05-20 23:16:54</time>
      </trkpt>
      <trkpt lat="41.70285" lon="1.79456">
        <ele>262.4</ele>
        <time>2022-05-20 23:16:55</time>
      </trkpt>
      <trkpt lat="41.70292" lon="1.79461">
        <ele>262.2</ele>
        <time>2022-05-20 23:16:56</time>
      </trkpt>
      <trkpt lat="41.70298" lon="1.79466">
        <ele>262.2</ele>
        <time>2022-05-20 23:16:57</time>
      </trkpt>
      <trkpt lat="41.70304" lon="1.79471">
        <ele>262.2</ele>
        <time>2022-05-20 23:16:58</time>
      </trkpt>
      <trkpt lat="41.70309" lon="1.79475">
        <ele>262.2</ele>
        <time>2022-05-20 23:16:59</time>
      </trkpt>
      <trkpt lat="41.70313" lon="1.79478">
        <ele>262.2</ele>
        <time>2022-05-20 23:17:00</time>
      </trkpt>
      <trkpt lat="41.7032" lon="1.79484">
        <ele>262.2</ele>
        <time>2022-05-20 23:17:01</time>
      </trkpt>
      <trkpt lat="41.70328" lon="1.79491">
        <ele>262</ele>
        <time>2022-05-20 23:17:02</time>
      </trkpt>
      <trkpt lat="41.70336" lon="1.79499">
        <ele>261.8</ele>
        <time>2022-05-20 23:17:03</time>
      </trkpt>
      <trkpt lat="41.70343" lon="1.79507">
        <ele>261.4</ele>
        <time>2022-05-20 23:17:04</time>
      </trkpt>
      <trkpt lat="41.70349" lon="1.79516">
        <ele>261</ele>
        <time>2022-05-20 23:17:05</time>
      </trkpt>
      <trkpt lat="41.70355" lon="1.79525">
        <ele>260.6</ele>
        <time>2022-05-20 23:17:06</time>
      </trkpt>
      <trkpt lat="41.70361" lon="1.79535">
        <ele>260</ele>
        <time>2022-05-20 23:17:07</time>
      </trkpt>
      <trkpt lat="41.70366" lon="1.79546">
        <ele>259.6</ele>
        <time>2022-05-20 23:17:08</time>
      </trkpt>
      <trkpt lat="41.70372" lon="1.79558">
        <ele>258.8</ele>
        <time>2022-05-20 23:17:09</time>
      </trkpt>
      <trkpt lat="41.70379" lon="1.7957">
        <ele>258.2</ele>
        <time>2022-05-20 23:17:10</time>
      </trkpt>
      <trkpt lat="41.70386" lon="1.79582">
        <ele>257.6</ele>
        <time>2022-05-20 23:17:11</time>
      </trkpt>
      <trkpt lat="41.70393" lon="1.79595">
        <ele>256.8</ele>
        <time>2022-05-20 23:17:12</time>
      </trkpt>
      <trkpt lat="41.704" lon="1.79607">
        <ele>256.2</ele>
        <time>2022-05-20 23:17:13</time>
      </trkpt>
      <trkpt lat="41.70407" lon="1.7962">
        <ele>255.4</ele>
        <time>2022-05-20 23:17:14</time>
      </trkpt>
      <trkpt lat="41.70414" lon="1.79633">
        <ele>254.8</ele>
        <time>2022-05-20 23:17:15</time>
      </trkpt>
      <trkpt lat="41.70421" lon="1.79646">
        <ele>254.2</ele>
        <time>2022-05-20 23:17:16</time>
      </trkpt>
      <trkpt lat="41.70427" lon="1.79659">
        <ele>253.8</ele>
        <time>2022-05-20 23:17:17</time>
      </trkpt>
      <trkpt lat="41.70434" lon="1.79672">
        <ele>253.2</ele>
        <time>2022-05-20 23:17:18</time>
      </trkpt>
      <trkpt lat="41.7044" lon="1.79684">
        <ele>252.8</ele>
        <time>2022-05-20 23:17:19</time>
      </trkpt>
      <trkpt lat="41.70447" lon="1.79697">
        <ele>252.4</ele>
        <time>2022-05-20 23:17:20</time>
      </trkpt>
      <trkpt lat="41.70453" lon="1.79709">
        <ele>252.2</ele>
        <time>2022-05-20 23:17:21</time>
      </trkpt>
      <trkpt lat="41.70459" lon="1.79721">
        <ele>252</ele>
        <time>2022-05-20 23:17:22</time>
      </trkpt>
      <trkpt lat="41.70465" lon="1.79733">
        <ele>251.8</ele>
        <time>2022-05-20 23:17:23</time>
      </trkpt>
      <trkpt lat="41.70472" lon="1.79744">
        <ele>251.8</ele>
        <time>2022-05-20 23:17:24</time>
      </trkpt>
      <trkpt lat="41.70477" lon="1.79755">
        <ele>251.6</ele>
        <time>2022-05-20 23:17:25</time>
      </trkpt>
      <trkpt lat="41.70483" lon="1.79766">
        <ele>251.6</ele>
        <time>2022-05-20 23:17:26</time>
      </trkpt>
      <trkpt lat="41.70489" lon="1.79777">
        <ele>251.6</ele>
        <time>2022-05-20 23:17:27</time>
      </trkpt>
      <trkpt lat="41.70496" lon="1.79787">
        <ele>251.6</ele>
        <time>2022-05-20 23:17:28</time>
      </trkpt>
      <trkpt lat="41.70502" lon="1.79796">
        <ele>251.6</ele>
        <time>2022-05-20 23:17:29</time>
      </trkpt>
      <trkpt lat="41.70508" lon="1.79806">
        <ele>251.4</ele>
        <time>2022-05-20 23:17:30</time>
      </trkpt>
      <trkpt lat="41.70513" lon="1.79815">
        <ele>251.4</ele>
        <time>2022-05-20 23:17:31</time>
      </trkpt>
      <trkpt lat="41.70517" lon="1.79821">
        <ele>251.2</ele>
        <time>2022-05-20 23:17:32</time>
      </trkpt>
      <trkpt lat="41.70528" lon="1.79836">
        <ele>251</ele>
        <time>2022-05-20 23:17:33</time>
      </trkpt>
      <trkpt lat="41.70536" lon="1.79844">
        <ele>250.6</ele>
        <time>2022-05-20 23:17:34</time>
      </trkpt>
      <trkpt lat="41.70543" lon="1.79852">
        <ele>250.2</ele>
        <time>2022-05-20 23:17:35</time>
      </trkpt>
      <trkpt lat="41.70552" lon="1.7986">
        <ele>249.6</ele>
        <time>2022-05-20 23:17:36</time>
      </trkpt>
      <trkpt lat="41.7056" lon="1.79869">
        <ele>249</ele>
        <time>2022-05-20 23:17:37</time>
      </trkpt>
      <trkpt lat="41.70568" lon="1.79877">
        <ele>248.4</ele>
        <time>2022-05-20 23:17:38</time>
      </trkpt>
      <trkpt lat="41.70576" lon="1.79885">
        <ele>247.6</ele>
        <time>2022-05-20 23:17:39</time>
      </trkpt>
      <trkpt lat="41.70584" lon="1.79895">
        <ele>247</ele>
        <time>2022-05-20 23:17:40</time>
      </trkpt>
      <trkpt lat="41.70593" lon="1.79905">
        <ele>246.4</ele>
        <time>2022-05-20 23:17:41</time>
      </trkpt>
      <trkpt lat="41.70603" lon="1.79914">
        <ele>246</ele>
        <time>2022-05-20 23:17:42</time>
      </trkpt>
      <trkpt lat="41.70612" lon="1.79922">
        <ele>245.4</ele>
        <time>2022-05-20 23:17:43</time>
      </trkpt>
      <trkpt lat="41.7062" lon="1.79931">
        <ele>245</ele>
        <time>2022-05-20 23:17:44</time>
      </trkpt>
      <trkpt lat="41.70628" lon="1.79941">
        <ele>244.6</ele>
        <time>2022-05-20 23:17:45</time>
      </trkpt>
      <trkpt lat="41.70636" lon="1.79949">
        <ele>244</ele>
        <time>2022-05-20 23:17:46</time>
      </trkpt>
      <trkpt lat="41.70645" lon="1.79957">
        <ele>243.8</ele>
        <time>2022-05-20 23:17:47</time>
      </trkpt>
      <trkpt lat="41.70653" lon="1.79966">
        <ele>243.4</ele>
        <time>2022-05-20 23:17:48</time>
      </trkpt>
      <trkpt lat="41.70662" lon="1.79975">
        <ele>243.2</ele>
        <time>2022-05-20 23:17:49</time>
      </trkpt>
      <trkpt lat="41.70671" lon="1.79984">
        <ele>243</ele>
        <time>2022-05-20 23:17:50</time>
      </trkpt>
      <trkpt lat="41.7068" lon="1.79994">
        <ele>242.8</ele>
        <time>2022-05-20 23:17:51</time>
      </trkpt>
      <trkpt lat="41.70687" lon="1.80004">
        <ele>242.8</ele>
        <time>2022-05-20 23:17:52</time>
      </trkpt>
      <trkpt lat="41.70694" lon="1.80014">
        <ele>242.8</ele>
        <time>2022-05-20 23:17:53</time>
      </trkpt>
      <trkpt lat="41.707" lon="1.80023">
        <ele>242.8</ele>
        <time>2022-05-20 23:17:54</time>
      </trkpt>
      <trkpt lat="41.70706" lon="1.80033">
        <ele>242.8</ele>
        <time>2022-05-20 23:17:55</time>
      </trkpt>
      <trkpt lat="41.70712" lon="1.80041">
        <ele>242.8</ele>
        <time>2022-05-20 23:17:56</time>
      </trkpt>
      <trkpt lat="41.70718" lon="1.80049">
        <ele>242.6</ele>
        <time>2022-05-20 23:17:57</time>
      </trkpt>
      <trkpt lat="41.70726" lon="1.80059">
        <ele>242.2</ele>
        <time>2022-05-20 23:17:58</time>
      </trkpt>
      <trkpt lat="41.70733" lon="1.80069">
        <ele>241.8</ele>
        <time>2022-05-20 23:17:59</time>
      </trkpt>
      <trkpt lat="41.7074" lon="1.80079">
        <ele>241.4</ele>
        <time>2022-05-20 23:18:00</time>
      </trkpt>
      <trkpt lat="41.70748" lon="1.80089">
        <ele>241</ele>
        <time>2022-05-20 23:18:01</time>
      </trkpt>
      <trkpt lat="41.70755" lon="1.80101">
        <ele>240.4</ele>
        <time>2022-05-20 23:18:02</time>
      </trkpt>
      <trkpt lat="41.70762" lon="1.80112">
        <ele>240</ele>
        <time>2022-05-20 23:18:03</time>
      </trkpt>
      <trkpt lat="41.70769" lon="1.80124">
        <ele>239.4</ele>
        <time>2022-05-20 23:18:04</time>
      </trkpt>
      <trkpt lat="41.70776" lon="1.80135">
        <ele>238.8</ele>
        <time>2022-05-20 23:18:05</time>
      </trkpt>
      <trkpt lat="41.70784" lon="1.80145">
        <ele>238.2</ele>
        <time>2022-05-20 23:18:06</time>
      </trkpt>
      <trkpt lat="41.70792" lon="1.80155">
        <ele>237.4</ele>
        <time>2022-05-20 23:18:07</time>
      </trkpt>
      <trkpt lat="41.70801" lon="1.80166">
        <ele>236.8</ele>
        <time>2022-05-20 23:18:08</time>
      </trkpt>
      <trkpt lat="41.70808" lon="1.80177">
        <ele>236.2</ele>
        <time>2022-05-20 23:18:09</time>
      </trkpt>
      <trkpt lat="41.70816" lon="1.80188">
        <ele>235.4</ele>
        <time>2022-05-20 23:18:10</time>
      </trkpt>
      <trkpt lat="41.70824" lon="1.80199">
        <ele>234.8</ele>
        <time>2022-05-20 23:18:11</time>
      </trkpt>
      <trkpt lat="41.70833" lon="1.80209">
        <ele>234.2</ele>
        <time>2022-05-20 23:18:12</time>
      </trkpt>
      <trkpt lat="41.70842" lon="1.80219">
        <ele>233.6</ele>
        <time>2022-05-20 23:18:13</time>
      </trkpt>
      <trkpt lat="41.70851" lon="1.80228">
        <ele>233</ele>
        <time>2022-05-20 23:18:14</time>
      </trkpt>
      <trkpt lat="41.70861" lon="1.80235">
        <ele>232.4</ele>
        <time>2022-05-20 23:18:15</time>
      </trkpt>
      <trkpt lat="41.70872" lon="1.80241">
        <ele>231.6</ele>
        <time>2022-05-20 23:18:16</time>
      </trkpt>
      <trkpt lat="41.70883" lon="1.80247">
        <ele>231</ele>
        <time>2022-05-20 23:18:17</time>
      </trkpt>
      <trkpt lat="41.70894" lon="1.80252">
        <ele>230.4</ele>
        <time>2022-05-20 23:18:18</time>
      </trkpt>
      <trkpt lat="41.70905" lon="1.80258">
        <ele>229.8</ele>
        <time>2022-05-20 23:18:19</time>
      </trkpt>
      <trkpt lat="41.70916" lon="1.80263">
        <ele>229.2</ele>
        <time>2022-05-20 23:18:20</time>
      </trkpt>
      <trkpt lat="41.70927" lon="1.80269">
        <ele>228.6</ele>
        <time>2022-05-20 23:18:21</time>
      </trkpt>
      <trkpt lat="41.70938" lon="1.80274">
        <ele>228</ele>
        <time>2022-05-20 23:18:22</time>
      </trkpt>
      <trkpt lat="41.70949" lon="1.80281">
        <ele>227.4</ele>
        <time>2022-05-20 23:18:23</time>
      </trkpt>
      <trkpt lat="41.7096" lon="1.80287">
        <ele>226.6</ele>
        <time>2022-05-20 23:18:24</time>
      </trkpt>
      <trkpt lat="41.7097" lon="1.80295">
        <ele>226</ele>
        <time>2022-05-20 23:18:25</time>
      </trkpt>
      <trkpt lat="41.7098" lon="1.80304">
        <ele>225.4</ele>
        <time>2022-05-20 23:18:26</time>
      </trkpt>
      <trkpt lat="41.70989" lon="1.80314">
        <ele>224.6</ele>
        <time>2022-05-20 23:18:27</time>
      </trkpt>
      <trkpt lat="41.70998" lon="1.80325">
        <ele>223.8</ele>
        <time>2022-05-20 23:18:28</time>
      </trkpt>
      <trkpt lat="41.71007" lon="1.80337">
        <ele>223.2</ele>
        <time>2022-05-20 23:18:29</time>
      </trkpt>
      <trkpt lat="41.71016" lon="1.80347">
        <ele>222.4</ele>
        <time>2022-05-20 23:18:30</time>
      </trkpt>
      <trkpt lat="41.71024" lon="1.80358">
        <ele>221.8</ele>
        <time>2022-05-20 23:18:31</time>
      </trkpt>
      <trkpt lat="41.71033" lon="1.80369">
        <ele>221</ele>
        <time>2022-05-20 23:18:32</time>
      </trkpt>
      <trkpt lat="41.71042" lon="1.8038">
        <ele>220.2</ele>
        <time>2022-05-20 23:18:33</time>
      </trkpt>
      <trkpt lat="41.71051" lon="1.80391">
        <ele>219.6</ele>
        <time>2022-05-20 23:18:34</time>
      </trkpt>
      <trkpt lat="41.7106" lon="1.80402">
        <ele>218.8</ele>
        <time>2022-05-20 23:18:35</time>
      </trkpt>
      <trkpt lat="41.71069" lon="1.80413">
        <ele>218.2</ele>
        <time>2022-05-20 23:18:36</time>
      </trkpt>
      <trkpt lat="41.71078" lon="1.80424">
        <ele>217.4</ele>
        <time>2022-05-20 23:18:37</time>
      </trkpt>
      <trkpt lat="41.71086" lon="1.80436">
        <ele>216.6</ele>
        <time>2022-05-20 23:18:38</time>
      </trkpt>
      <trkpt lat="41.71095" lon="1.80449">
        <ele>216</ele>
        <time>2022-05-20 23:18:39</time>
      </trkpt>
      <trkpt lat="41.71103" lon="1.80461">
        <ele>215.2</ele>
        <time>2022-05-20 23:18:40</time>
      </trkpt>
      <trkpt lat="41.71111" lon="1.80474">
        <ele>214.6</ele>
        <time>2022-05-20 23:18:41</time>
      </trkpt>
      <trkpt lat="41.71118" lon="1.80485">
        <ele>214</ele>
        <time>2022-05-20 23:18:42</time>
      </trkpt>
      <trkpt lat="41.71125" lon="1.80498">
        <ele>213.6</ele>
        <time>2022-05-20 23:18:43</time>
      </trkpt>
      <trkpt lat="41.71133" lon="1.8051">
        <ele>213.2</ele>
        <time>2022-05-20 23:18:44</time>
      </trkpt>
      <trkpt lat="41.7114" lon="1.80522">
        <ele>212.8</ele>
        <time>2022-05-20 23:18:45</time>
      </trkpt>
      <trkpt lat="41.71146" lon="1.80533">
        <ele>212.6</ele>
        <time>2022-05-20 23:18:46</time>
      </trkpt>
      <trkpt lat="41.71153" lon="1.80544">
        <ele>212.4</ele>
        <time>2022-05-20 23:18:47</time>
      </trkpt>
      <trkpt lat="41.7116" lon="1.80555">
        <ele>212.4</ele>
        <time>2022-05-20 23:18:48</time>
      </trkpt>
      <trkpt lat="41.71166" lon="1.80566">
        <ele>212.2</ele>
        <time>2022-05-20 23:18:49</time>
      </trkpt>
      <trkpt lat="41.71172" lon="1.80576">
        <ele>212</ele>
        <time>2022-05-20 23:18:50</time>
      </trkpt>
      <trkpt lat="41.71178" lon="1.80586">
        <ele>212</ele>
        <time>2022-05-20 23:18:51</time>
      </trkpt>
      <trkpt lat="41.71185" lon="1.80596">
        <ele>212</ele>
        <time>2022-05-20 23:18:52</time>
      </trkpt>
      <trkpt lat="41.71191" lon="1.80606">
        <ele>212</ele>
        <time>2022-05-20 23:18:53</time>
      </trkpt>
      <trkpt lat="41.71196" lon="1.80616">
        <ele>212</ele>
        <time>2022-05-20 23:18:54</time>
      </trkpt>
      <trkpt lat="41.712" lon="1.80627">
        <ele>212.2</ele>
        <time>2022-05-20 23:18:55</time>
      </trkpt>
      <trkpt lat="41.71203" lon="1.80637">
        <ele>212.2</ele>
        <time>2022-05-20 23:18:56</time>
      </trkpt>
      <trkpt lat="41.71206" lon="1.80648">
        <ele>212.4</ele>
        <time>2022-05-20 23:18:57</time>
      </trkpt>
      <trkpt lat="41.71206" lon="1.80658">
        <ele>212.4</ele>
        <time>2022-05-20 23:18:58</time>
      </trkpt>
      <trkpt lat="41.71207" lon="1.80669">
        <ele>212.6</ele>
        <time>2022-05-20 23:18:59</time>
      </trkpt>
      <trkpt lat="41.71208" lon="1.8068">
        <ele>212.6</ele>
        <time>2022-05-20 23:19:00</time>
      </trkpt>
      <trkpt lat="41.71209" lon="1.80691">
        <ele>212.6</ele>
        <time>2022-05-20 23:19:01</time>
      </trkpt>
      <trkpt lat="41.7121" lon="1.80702">
        <ele>212.6</ele>
        <time>2022-05-20 23:19:02</time>
      </trkpt>
      <trkpt lat="41.71212" lon="1.80713">
        <ele>212.8</ele>
        <time>2022-05-20 23:19:03</time>
      </trkpt>
      <trkpt lat="41.71214" lon="1.80722">
        <ele>212.8</ele>
        <time>2022-05-20 23:19:04</time>
      </trkpt>
      <trkpt lat="41.71217" lon="1.80732">
        <ele>212.8</ele>
        <time>2022-05-20 23:19:05</time>
      </trkpt>
      <trkpt lat="41.71221" lon="1.80742">
        <ele>213</ele>
        <time>2022-05-20 23:19:06</time>
      </trkpt>
      <trkpt lat="41.71225" lon="1.80751">
        <ele>213</ele>
        <time>2022-05-20 23:19:07</time>
      </trkpt>
      <trkpt lat="41.7123" lon="1.80759">
        <ele>213</ele>
        <time>2022-05-20 23:19:08</time>
      </trkpt>
      <trkpt lat="41.71234" lon="1.80768">
        <ele>213.2</ele>
        <time>2022-05-20 23:19:09</time>
      </trkpt>
      <trkpt lat="41.71238" lon="1.80776">
        <ele>213.2</ele>
        <time>2022-05-20 23:19:10</time>
      </trkpt>
      <trkpt lat="41.71242" lon="1.80784">
        <ele>213.4</ele>
        <time>2022-05-20 23:19:11</time>
      </trkpt>
      <trkpt lat="41.71246" lon="1.80792">
        <ele>213.6</ele>
        <time>2022-05-20 23:19:12</time>
      </trkpt>
      <trkpt lat="41.7125" lon="1.80799">
        <ele>213.6</ele>
        <time>2022-05-20 23:19:13</time>
      </trkpt>
      <trkpt lat="41.71254" lon="1.80807">
        <ele>213.8</ele>
        <time>2022-05-20 23:19:14</time>
      </trkpt>
      <trkpt lat="41.71257" lon="1.80814">
        <ele>213.8</ele>
        <time>2022-05-20 23:19:15</time>
      </trkpt>
      <trkpt lat="41.71261" lon="1.80821">
        <ele>214</ele>
        <time>2022-05-20 23:19:16</time>
      </trkpt>
      <trkpt lat="41.71265" lon="1.80828">
        <ele>214.2</ele>
        <time>2022-05-20 23:19:17</time>
      </trkpt>
      <trkpt lat="41.71268" lon="1.80836">
        <ele>214.4</ele>
        <time>2022-05-20 23:19:18</time>
      </trkpt>
      <trkpt lat="41.71272" lon="1.80842">
        <ele>214.6</ele>
        <time>2022-05-20 23:19:19</time>
      </trkpt>
      <trkpt lat="41.71275" lon="1.80849">
        <ele>214.8</ele>
        <time>2022-05-20 23:19:20</time>
      </trkpt>
      <trkpt lat="41.71278" lon="1.80855">
        <ele>215</ele>
        <time>2022-05-20 23:19:21</time>
      </trkpt>
      <trkpt lat="41.71281" lon="1.80861">
        <ele>215.2</ele>
        <time>2022-05-20 23:19:22</time>
      </trkpt>
      <trkpt lat="41.71284" lon="1.80867">
        <ele>215.4</ele>
        <time>2022-05-20 23:19:23</time>
      </trkpt>
      <trkpt lat="41.71287" lon="1.80872">
        <ele>215.6</ele>
        <time>2022-05-20 23:19:24</time>
      </trkpt>
      <trkpt lat="41.7129" lon="1.80877">
        <ele>216</ele>
        <time>2022-05-20 23:19:25</time>
      </trkpt>
      <trkpt lat="41.71292" lon="1.80883">
        <ele>216.2</ele>
        <time>2022-05-20 23:19:26</time>
      </trkpt>
      <trkpt lat="41.71295" lon="1.80888">
        <ele>216.4</ele>
        <time>2022-05-20 23:19:27</time>
      </trkpt>
      <trkpt lat="41.71297" lon="1.80893">
        <ele>216.8</ele>
        <time>2022-05-20 23:19:28</time>
      </trkpt>
      <trkpt lat="41.713" lon="1.80899">
        <ele>217</ele>
        <time>2022-05-20 23:19:29</time>
      </trkpt>
      <trkpt lat="41.71303" lon="1.80904">
        <ele>217.4</ele>
        <time>2022-05-20 23:19:30</time>
      </trkpt>
      <trkpt lat="41.71305" lon="1.80909">
        <ele>217.6</ele>
        <time>2022-05-20 23:19:31</time>
      </trkpt>
      <trkpt lat="41.71308" lon="1.80914">
        <ele>217.8</ele>
        <time>2022-05-20 23:19:32</time>
      </trkpt>
      <trkpt lat="41.7131" lon="1.80919">
        <ele>218.2</ele>
        <time>2022-05-20 23:19:33</time>
      </trkpt>
      <trkpt lat="41.71312" lon="1.80924">
        <ele>218.4</ele>
        <time>2022-05-20 23:19:34</time>
      </trkpt>
      <trkpt lat="41.71315" lon="1.80929">
        <ele>218.8</ele>
        <time>2022-05-20 23:19:35</time>
      </trkpt>
      <trkpt lat="41.71317" lon="1.80934">
        <ele>219</ele>
        <time>2022-05-20 23:19:36</time>
      </trkpt>
      <trkpt lat="41.7132" lon="1.80939">
        <ele>219.2</ele>
        <time>2022-05-20 23:19:37</time>
      </trkpt>
      <trkpt lat="41.71323" lon="1.80943">
        <ele>219.6</ele>
        <time>2022-05-20 23:19:38</time>
      </trkpt>
      <trkpt lat="41.71325" lon="1.80948">
        <ele>219.8</ele>
        <time>2022-05-20 23:19:39</time>
      </trkpt>
      <trkpt lat="41.71328" lon="1.80952">
        <ele>220</ele>
        <time>2022-05-20 23:19:40</time>
      </trkpt>
      <trkpt lat="41.71331" lon="1.80956">
        <ele>220.4</ele>
        <time>2022-05-20 23:19:41</time>
      </trkpt>
      <trkpt lat="41.71333" lon="1.8096">
        <ele>220.6</ele>
        <time>2022-05-20 23:19:42</time>
      </trkpt>
      <trkpt lat="41.71336" lon="1.80964">
        <ele>220.8</ele>
        <time>2022-05-20 23:19:43</time>
      </trkpt>
      <trkpt lat="41.71339" lon="1.80967">
        <ele>221.2</ele>
        <time>2022-05-20 23:19:44</time>
      </trkpt>
      <trkpt lat="41.71341" lon="1.80971">
        <ele>221.4</ele>
        <time>2022-05-20 23:19:45</time>
      </trkpt>
      <trkpt lat="41.71344" lon="1.80975">
        <ele>221.8</ele>
        <time>2022-05-20 23:19:46</time>
      </trkpt>
      <trkpt lat="41.71346" lon="1.80979">
        <ele>222</ele>
        <time>2022-05-20 23:19:47</time>
      </trkpt>
      <trkpt lat="41.71348" lon="1.80983">
        <ele>222.4</ele>
        <time>2022-05-20 23:19:48</time>
      </trkpt>
      <trkpt lat="41.71351" lon="1.80986">
        <ele>222.6</ele>
        <time>2022-05-20 23:19:49</time>
      </trkpt>
      <trkpt lat="41.71354" lon="1.8099">
        <ele>222.8</ele>
        <time>2022-05-20 23:19:50</time>
      </trkpt>
      <trkpt lat="41.71356" lon="1.80994">
        <ele>223</ele>
        <time>2022-05-20 23:19:51</time>
      </trkpt>
      <trkpt lat="41.7136" lon="1.80998">
        <ele>223.2</ele>
        <time>2022-05-20 23:19:52</time>
      </trkpt>
      <trkpt lat="41.71362" lon="1.81003">
        <ele>223.4</ele>
        <time>2022-05-20 23:19:53</time>
      </trkpt>
      <trkpt lat="41.71365" lon="1.81007">
        <ele>223.6</ele>
        <time>2022-05-20 23:19:54</time>
      </trkpt>
      <trkpt lat="41.71369" lon="1.81011">
        <ele>223.8</ele>
        <time>2022-05-20 23:19:55</time>
      </trkpt>
      <trkpt lat="41.71371" lon="1.81015">
        <ele>224</ele>
        <time>2022-05-20 23:19:56</time>
      </trkpt>
      <trkpt lat="41.71375" lon="1.81019">
        <ele>224</ele>
        <time>2022-05-20 23:19:57</time>
      </trkpt>
      <trkpt lat="41.71378" lon="1.81023">
        <ele>224.2</ele>
        <time>2022-05-20 23:19:58</time>
      </trkpt>
      <trkpt lat="41.71381" lon="1.81026">
        <ele>224.4</ele>
        <time>2022-05-20 23:19:59</time>
      </trkpt>
      <trkpt lat="41.71384" lon="1.8103">
        <ele>224.6</ele>
        <time>2022-05-20 23:20:00</time>
      </trkpt>
      <trkpt lat="41.71387" lon="1.81034">
        <ele>224.8</ele>
        <time>2022-05-20 23:20:01</time>
      </trkpt>
      <trkpt lat="41.7139" lon="1.81038">
        <ele>225</ele>
        <time>2022-05-20 23:20:02</time>
      </trkpt>
      <trkpt lat="41.71393" lon="1.81041">
        <ele>225.2</ele>
        <time>2022-05-20 23:20:03</time>
      </trkpt>
      <trkpt lat="41.71395" lon="1.81045">
        <ele>225.4</ele>
        <time>2022-05-20 23:20:04</time>
      </trkpt>
      <trkpt lat="41.71398" lon="1.81049">
        <ele>225.4</ele>
        <time>2022-05-20 23:20:05</time>
      </trkpt>
      <trkpt lat="41.71401" lon="1.81053">
        <ele>225.6</ele>
        <time>2022-05-20 23:20:06</time>
      </trkpt>
      <trkpt lat="41.71404" lon="1.81056">
        <ele>225.8</ele>
        <time>2022-05-20 23:20:07</time>
      </trkpt>
      <trkpt lat="41.71407" lon="1.8106">
        <ele>226</ele>
        <time>2022-05-20 23:20:08</time>
      </trkpt>
      <trkpt lat="41.7141" lon="1.81064">
        <ele>226.2</ele>
        <time>2022-05-20 23:20:09</time>
      </trkpt>
      <trkpt lat="41.71413" lon="1.81067">
        <ele>226.4</ele>
        <time>2022-05-20 23:20:10</time>
      </trkpt>
      <trkpt lat="41.71416" lon="1.81071">
        <ele>226.6</ele>
        <time>2022-05-20 23:20:11</time>
      </trkpt>
      <trkpt lat="41.71419" lon="1.81074">
        <ele>226.8</ele>
        <time>2022-05-20 23:20:12</time>
      </trkpt>
      <trkpt lat="41.71423" lon="1.81078">
        <ele>226.8</ele>
        <time>2022-05-20 23:20:13</time>
      </trkpt>
      <trkpt lat="41.71426" lon="1.81082">
        <ele>227</ele>
        <time>2022-05-20 23:20:14</time>
      </trkpt>
      <trkpt lat="41.71429" lon="1.81086">
        <ele>227.2</ele>
        <time>2022-05-20 23:20:15</time>
      </trkpt>
      <trkpt lat="41.71432" lon="1.8109">
        <ele>227.4</ele>
        <time>2022-05-20 23:20:16</time>
      </trkpt>
      <trkpt lat="41.71435" lon="1.81093">
        <ele>227.6</ele>
        <time>2022-05-20 23:20:17</time>
      </trkpt>
      <trkpt lat="41.71438" lon="1.81097">
        <ele>227.8</ele>
        <time>2022-05-20 23:20:18</time>
      </trkpt>
      <trkpt lat="41.71441" lon="1.81101">
        <ele>228</ele>
        <time>2022-05-20 23:20:19</time>
      </trkpt>
      <trkpt lat="41.71444" lon="1.81104">
        <ele>228.2</ele>
        <time>2022-05-20 23:20:20</time>
      </trkpt>
      <trkpt lat="41.71447" lon="1.81108">
        <ele>228.2</ele>
        <time>2022-05-20 23:20:21</time>
      </trkpt>
      <trkpt lat="41.7145" lon="1.81112">
        <ele>228.4</ele>
        <time>2022-05-20 23:20:22</time>
      </trkpt>
      <trkpt lat="41.71453" lon="1.81115">
        <ele>228.6</ele>
        <time>2022-05-20 23:20:23</time>
      </trkpt>
      <trkpt lat="41.71457" lon="1.81119">
        <ele>228.8</ele>
        <time>2022-05-20 23:20:24</time>
      </trkpt>
      <trkpt lat="41.7146" lon="1.81122">
        <ele>229</ele>
        <time>2022-05-20 23:20:25</time>
      </trkpt>
      <trkpt lat="41.71463" lon="1.81125">
        <ele>229.2</ele>
        <time>2022-05-20 23:20:26</time>
      </trkpt>
      <trkpt lat="41.71466" lon="1.81129">
        <ele>229.2</ele>
        <time>2022-05-20 23:20:27</time>
      </trkpt>
      <trkpt lat="41.71469" lon="1.81133">
        <ele>229.4</ele>
        <time>2022-05-20 23:20:28</time>
      </trkpt>
      <trkpt lat="41.71472" lon="1.81136">
        <ele>229.6</ele>
        <time>2022-05-20 23:20:29</time>
      </trkpt>
      <trkpt lat="41.71475" lon="1.8114">
        <ele>229.8</ele>
        <time>2022-05-20 23:20:30</time>
      </trkpt>
      <trkpt lat="41.71478" lon="1.81144">
        <ele>230</ele>
        <time>2022-05-20 23:20:31</time>
      </trkpt>
      <trkpt lat="41.71481" lon="1.81148">
        <ele>230.2</ele>
        <time>2022-05-20 23:20:32</time>
      </trkpt>
      <trkpt lat="41.71484" lon="1.81152">
        <ele>230.4</ele>
        <time>2022-05-20 23:20:33</time>
      </trkpt>
      <trkpt lat="41.71488" lon="1.81155">
        <ele>230.6</ele>
        <time>2022-05-20 23:20:34</time>
      </trkpt>
      <trkpt lat="41.71491" lon="1.81159">
        <ele>230.8</ele>
        <time>2022-05-20 23:20:35</time>
      </trkpt>
      <trkpt lat="41.71494" lon="1.81163">
        <ele>231</ele>
        <time>2022-05-20 23:20:36</time>
      </trkpt>
      <trkpt lat="41.71497" lon="1.81167">
        <ele>231.2</ele>
        <time>2022-05-20 23:20:37</time>
      </trkpt>
      <trkpt lat="41.715" lon="1.81171">
        <ele>231.2</ele>
        <time>2022-05-20 23:20:38</time>
      </trkpt>
      <trkpt lat="41.71503" lon="1.81174">
        <ele>231.4</ele>
        <time>2022-05-20 23:20:39</time>
      </trkpt>
      <trkpt lat="41.71506" lon="1.81178">
        <ele>231.6</ele>
        <time>2022-05-20 23:20:40</time>
      </trkpt>
      <trkpt lat="41.71509" lon="1.81182">
        <ele>231.8</ele>
        <time>2022-05-20 23:20:41</time>
      </trkpt>
      <trkpt lat="41.71512" lon="1.81186">
        <ele>232</ele>
        <time>2022-05-20 23:20:42</time>
      </trkpt>
      <trkpt lat="41.71515" lon="1.8119">
        <ele>232.2</ele>
        <time>2022-05-20 23:20:43</time>
      </trkpt>
      <trkpt lat="41.71518" lon="1.81194">
        <ele>232.4</ele>
        <time>2022-05-20 23:20:44</time>
      </trkpt>
      <trkpt lat="41.71521" lon="1.81198">
        <ele>232.4</ele>
        <time>2022-05-20 23:20:45</time>
      </trkpt>
      <trkpt lat="41.71524" lon="1.81201">
        <ele>232.6</ele>
        <time>2022-05-20 23:20:46</time>
      </trkpt>
      <trkpt lat="41.71527" lon="1.81205">
        <ele>232.8</ele>
        <time>2022-05-20 23:20:47</time>
      </trkpt>
      <trkpt lat="41.7153" lon="1.81209">
        <ele>233</ele>
        <time>2022-05-20 23:20:48</time>
      </trkpt>
      <trkpt lat="41.71533" lon="1.81212">
        <ele>233.2</ele>
        <time>2022-05-20 23:20:49</time>
      </trkpt>
      <trkpt lat="41.71536" lon="1.81216">
        <ele>233.4</ele>
        <time>2022-05-20 23:20:50</time>
      </trkpt>
      <trkpt lat="41.7154" lon="1.8122">
        <ele>233.6</ele>
        <time>2022-05-20 23:20:51</time>
      </trkpt>
      <trkpt lat="41.71543" lon="1.81223">
        <ele>233.6</ele>
        <time>2022-05-20 23:20:52</time>
      </trkpt>
      <trkpt lat="41.71547" lon="1.81226">
        <ele>233.8</ele>
        <time>2022-05-20 23:20:53</time>
      </trkpt>
      <trkpt lat="41.7155" lon="1.8123">
        <ele>234</ele>
        <time>2022-05-20 23:20:54</time>
      </trkpt>
      <trkpt lat="41.71554" lon="1.81233">
        <ele>234.2</ele>
        <time>2022-05-20 23:20:55</time>
      </trkpt>
      <trkpt lat="41.71557" lon="1.81236">
        <ele>234.2</ele>
        <time>2022-05-20 23:20:56</time>
      </trkpt>
      <trkpt lat="41.71561" lon="1.8124">
        <ele>234.4</ele>
        <time>2022-05-20 23:20:57</time>
      </trkpt>
      <trkpt lat="41.71564" lon="1.81243">
        <ele>234.6</ele>
        <time>2022-05-20 23:20:58</time>
      </trkpt>
      <trkpt lat="41.71568" lon="1.81247">
        <ele>234.8</ele>
        <time>2022-05-20 23:20:59</time>
      </trkpt>
      <trkpt lat="41.71571" lon="1.81251">
        <ele>235</ele>
        <time>2022-05-20 23:21:00</time>
      </trkpt>
      <trkpt lat="41.71575" lon="1.81254">
        <ele>235</ele>
        <time>2022-05-20 23:21:01</time>
      </trkpt>
      <trkpt lat="41.71579" lon="1.81258">
        <ele>235.2</ele>
        <time>2022-05-20 23:21:02</time>
      </trkpt>
      <trkpt lat="41.71582" lon="1.81262">
        <ele>235.4</ele>
        <time>2022-05-20 23:21:03</time>
      </trkpt>
      <trkpt lat="41.71586" lon="1.81266">
        <ele>235.6</ele>
        <time>2022-05-20 23:21:04</time>
      </trkpt>
      <trkpt lat="41.71589" lon="1.81269">
        <ele>235.8</ele>
        <time>2022-05-20 23:21:05</time>
      </trkpt>
      <trkpt lat="41.71593" lon="1.81273">
        <ele>235.8</ele>
        <time>2022-05-20 23:21:06</time>
      </trkpt>
      <trkpt lat="41.71597" lon="1.81277">
        <ele>236</ele>
        <time>2022-05-20 23:21:07</time>
      </trkpt>
      <trkpt lat="41.716" lon="1.8128">
        <ele>236.2</ele>
        <time>2022-05-20 23:21:08</time>
      </trkpt>
      <trkpt lat="41.71604" lon="1.81284">
        <ele>236.4</ele>
        <time>2022-05-20 23:21:09</time>
      </trkpt>
      <trkpt lat="41.71608" lon="1.81288">
        <ele>236.4</ele>
        <time>2022-05-20 23:21:10</time>
      </trkpt>
      <trkpt lat="41.71612" lon="1.81291">
        <ele>236.6</ele>
        <time>2022-05-20 23:21:11</time>
      </trkpt>
      <trkpt lat="41.71616" lon="1.81295">
        <ele>236.8</ele>
        <time>2022-05-20 23:21:12</time>
      </trkpt>
      <trkpt lat="41.71619" lon="1.81299">
        <ele>237</ele>
        <time>2022-05-20 23:21:13</time>
      </trkpt>
      <trkpt lat="41.71623" lon="1.81303">
        <ele>237.2</ele>
        <time>2022-05-20 23:21:14</time>
      </trkpt>
      <trkpt lat="41.71627" lon="1.81306">
        <ele>237.4</ele>
        <time>2022-05-20 23:21:15</time>
      </trkpt>
      <trkpt lat="41.7163" lon="1.8131">
        <ele>237.4</ele>
        <time>2022-05-20 23:21:16</time>
      </trkpt>
      <trkpt lat="41.71634" lon="1.81314">
        <ele>237.6</ele>
        <time>2022-05-20 23:21:17</time>
      </trkpt>
      <trkpt lat="41.71637" lon="1.81318">
        <ele>237.8</ele>
        <time>2022-05-20 23:21:18</time>
      </trkpt>
      <trkpt lat="41.71641" lon="1.81322">
        <ele>237.8</ele>
        <time>2022-05-20 23:21:19</time>
      </trkpt>
      <trkpt lat="41.71645" lon="1.81326">
        <ele>238</ele>
        <time>2022-05-20 23:21:20</time>
      </trkpt>
      <trkpt lat="41.71648" lon="1.8133">
        <ele>238.2</ele>
        <time>2022-05-20 23:21:21</time>
      </trkpt>
      <trkpt lat="41.71652" lon="1.81334">
        <ele>238.4</ele>
        <time>2022-05-20 23:21:22</time>
      </trkpt>
      <trkpt lat="41.71656" lon="1.81338">
        <ele>238.6</ele>
        <time>2022-05-20 23:21:23</time>
      </trkpt>
      <trkpt lat="41.7166" lon="1.81342">
        <ele>238.8</ele>
        <time>2022-05-20 23:21:24</time>
      </trkpt>
      <trkpt lat="41.71664" lon="1.81345">
        <ele>239</ele>
        <time>2022-05-20 23:21:25</time>
      </trkpt>
      <trkpt lat="41.71668" lon="1.81349">
        <ele>239.2</ele>
        <time>2022-05-20 23:21:26</time>
      </trkpt>
      <trkpt lat="41.71672" lon="1.81353">
        <ele>239.4</ele>
        <time>2022-05-20 23:21:27</time>
      </trkpt>
      <trkpt lat="41.71675" lon="1.81357">
        <ele>239.6</ele>
        <time>2022-05-20 23:21:28</time>
      </trkpt>
      <trkpt lat="41.71679" lon="1.8136">
        <ele>239.8</ele>
        <time>2022-05-20 23:21:29</time>
      </trkpt>
      <trkpt lat="41.71683" lon="1.81364">
        <ele>240</ele>
        <time>2022-05-20 23:21:30</time>
      </trkpt>
      <trkpt lat="41.71687" lon="1.81367">
        <ele>240.2</ele>
        <time>2022-05-20 23:21:31</time>
      </trkpt>
      <trkpt lat="41.71691" lon="1.81371">
        <ele>240.4</ele>
        <time>2022-05-20 23:21:32</time>
      </trkpt>
      <trkpt lat="41.71695" lon="1.81374">
        <ele>240.4</ele>
        <time>2022-05-20 23:21:33</time>
      </trkpt>
      <trkpt lat="41.717" lon="1.81378">
        <ele>240.6</ele>
        <time>2022-05-20 23:21:34</time>
      </trkpt>
      <trkpt lat="41.71704" lon="1.81382">
        <ele>240.8</ele>
        <time>2022-05-20 23:21:35</time>
      </trkpt>
      <trkpt lat="41.71708" lon="1.81386">
        <ele>240.8</ele>
        <time>2022-05-20 23:21:36</time>
      </trkpt>
      <trkpt lat="41.71712" lon="1.8139">
        <ele>241</ele>
        <time>2022-05-20 23:21:37</time>
      </trkpt>
      <trkpt lat="41.71716" lon="1.81394">
        <ele>241.2</ele>
        <time>2022-05-20 23:21:38</time>
      </trkpt>
      <trkpt lat="41.71721" lon="1.81398">
        <ele>241.2</ele>
        <time>2022-05-20 23:21:39</time>
      </trkpt>
      <trkpt lat="41.71725" lon="1.81401">
        <ele>241.2</ele>
        <time>2022-05-20 23:21:40</time>
      </trkpt>
      <trkpt lat="41.71729" lon="1.81405">
        <ele>241.4</ele>
        <time>2022-05-20 23:21:41</time>
      </trkpt>
      <trkpt lat="41.71734" lon="1.81409">
        <ele>241.4</ele>
        <time>2022-05-20 23:21:42</time>
      </trkpt>
      <trkpt lat="41.71738" lon="1.81412">
        <ele>241.6</ele>
        <time>2022-05-20 23:21:43</time>
      </trkpt>
      <trkpt lat="41.71743" lon="1.81416">
        <ele>241.6</ele>
        <time>2022-05-20 23:21:44</time>
      </trkpt>
      <trkpt lat="41.71747" lon="1.8142">
        <ele>241.8</ele>
        <time>2022-05-20 23:21:45</time>
      </trkpt>
      <trkpt lat="41.71752" lon="1.81423">
        <ele>241.8</ele>
        <time>2022-05-20 23:21:46</time>
      </trkpt>
      <trkpt lat="41.71756" lon="1.81427">
        <ele>241.8</ele>
        <time>2022-05-20 23:21:47</time>
      </trkpt>
      <trkpt lat="41.71761" lon="1.81431">
        <ele>242</ele>
        <time>2022-05-20 23:21:48</time>
      </trkpt>
      <trkpt lat="41.71766" lon="1.81435">
        <ele>242</ele>
        <time>2022-05-20 23:21:49</time>
      </trkpt>
      <trkpt lat="41.71771" lon="1.81439">
        <ele>242</ele>
        <time>2022-05-20 23:21:50</time>
      </trkpt>
      <trkpt lat="41.71776" lon="1.81443">
        <ele>242</ele>
        <time>2022-05-20 23:21:51</time>
      </trkpt>
      <trkpt lat="41.71782" lon="1.81447">
        <ele>241.8</ele>
        <time>2022-05-20 23:21:52</time>
      </trkpt>
      <trkpt lat="41.71787" lon="1.81451">
        <ele>241.8</ele>
        <time>2022-05-20 23:21:53</time>
      </trkpt>
      <trkpt lat="41.71793" lon="1.81455">
        <ele>241.6</ele>
        <time>2022-05-20 23:21:54</time>
      </trkpt>
      <trkpt lat="41.71799" lon="1.81459">
        <ele>241.2</ele>
        <time>2022-05-20 23:21:55</time>
      </trkpt>
      <trkpt lat="41.71806" lon="1.81463">
        <ele>241</ele>
        <time>2022-05-20 23:21:56</time>
      </trkpt>
      <trkpt lat="41.71813" lon="1.81467">
        <ele>240.6</ele>
        <time>2022-05-20 23:21:57</time>
      </trkpt>
      <trkpt lat="41.7182" lon="1.8147">
        <ele>240.2</ele>
        <time>2022-05-20 23:21:58</time>
      </trkpt>
      <trkpt lat="41.71828" lon="1.81474">
        <ele>239.6</ele>
        <time>2022-05-20 23:21:59</time>
      </trkpt>
      <trkpt lat="41.71837" lon="1.81478">
        <ele>239.2</ele>
        <time>2022-05-20 23:22:00</time>
      </trkpt>
      <trkpt lat="41.71845" lon="1.81482">
        <ele>238.6</ele>
        <time>2022-05-20 23:22:01</time>
      </trkpt>
      <trkpt lat="41.71854" lon="1.81486">
        <ele>237.8</ele>
        <time>2022-05-20 23:22:02</time>
      </trkpt>
      <trkpt lat="41.71864" lon="1.81491">
        <ele>237</ele>
        <time>2022-05-20 23:22:03</time>
      </trkpt>
      <trkpt lat="41.71874" lon="1.81495">
        <ele>236.2</ele>
        <time>2022-05-20 23:22:04</time>
      </trkpt>
      <trkpt lat="41.71884" lon="1.815">
        <ele>235.6</ele>
        <time>2022-05-20 23:22:05</time>
      </trkpt>
      <trkpt lat="41.71894" lon="1.81505">
        <ele>234.6</ele>
        <time>2022-05-20 23:22:06</time>
      </trkpt>
      <trkpt lat="41.71906" lon="1.81509">
        <ele>233.8</ele>
        <time>2022-05-20 23:22:07</time>
      </trkpt>
      <trkpt lat="41.71916" lon="1.81515">
        <ele>232.8</ele>
        <time>2022-05-20 23:22:08</time>
      </trkpt>
      <trkpt lat="41.71927" lon="1.8152">
        <ele>232</ele>
        <time>2022-05-20 23:22:09</time>
      </trkpt>
      <trkpt lat="41.71938" lon="1.81527">
        <ele>231.2</ele>
        <time>2022-05-20 23:22:10</time>
      </trkpt>
      <trkpt lat="41.71949" lon="1.81533">
        <ele>230.2</ele>
        <time>2022-05-20 23:22:11</time>
      </trkpt>
      <trkpt lat="41.71959" lon="1.81541">
        <ele>229.4</ele>
        <time>2022-05-20 23:22:12</time>
      </trkpt>
      <trkpt lat="41.71969" lon="1.81548">
        <ele>228.6</ele>
        <time>2022-05-20 23:22:13</time>
      </trkpt>
      <trkpt lat="41.71979" lon="1.81556">
        <ele>227.8</ele>
        <time>2022-05-20 23:22:14</time>
      </trkpt>
      <trkpt lat="41.71988" lon="1.81569">
        <ele>226.8</ele>
        <time>2022-05-20 23:22:15</time>
      </trkpt>
      <trkpt lat="41.71996" lon="1.81584">
        <ele>225.8</ele>
        <time>2022-05-20 23:22:16</time>
      </trkpt>
      <trkpt lat="41.72002" lon="1.816">
        <ele>224.8</ele>
        <time>2022-05-20 23:22:17</time>
      </trkpt>
      <trkpt lat="41.72006" lon="1.81619">
        <ele>223.6</ele>
        <time>2022-05-20 23:22:18</time>
      </trkpt>
      <trkpt lat="41.72008" lon="1.81638">
        <ele>222.2</ele>
        <time>2022-05-20 23:22:19</time>
      </trkpt>
      <trkpt lat="41.72009" lon="1.81657">
        <ele>221</ele>
        <time>2022-05-20 23:22:20</time>
      </trkpt>
      <trkpt lat="41.72007" lon="1.81677">
        <ele>219.8</ele>
        <time>2022-05-20 23:22:21</time>
      </trkpt>
      <trkpt lat="41.72005" lon="1.81696">
        <ele>218.6</ele>
        <time>2022-05-20 23:22:22</time>
      </trkpt>
      <trkpt lat="41.72001" lon="1.81715">
        <ele>217.4</ele>
        <time>2022-05-20 23:22:23</time>
      </trkpt>
      <trkpt lat="41.71999" lon="1.81733">
        <ele>216.2</ele>
        <time>2022-05-20 23:22:24</time>
      </trkpt>
      <trkpt lat="41.71998" lon="1.81751">
        <ele>215</ele>
        <time>2022-05-20 23:22:25</time>
      </trkpt>
      <trkpt lat="41.71998" lon="1.8177">
        <ele>214</ele>
        <time>2022-05-20 23:22:26</time>
      </trkpt>
      <trkpt lat="41.71997" lon="1.81786">
        <ele>213</ele>
        <time>2022-05-20 23:22:27</time>
      </trkpt>
      <trkpt lat="41.71997" lon="1.81801">
        <ele>212</ele>
        <time>2022-05-20 23:22:28</time>
      </trkpt>
      <trkpt lat="41.71999" lon="1.81816">
        <ele>211</ele>
        <time>2022-05-20 23:22:29</time>
      </trkpt>
      <trkpt lat="41.72004" lon="1.81829">
        <ele>210</ele>
        <time>2022-05-20 23:22:30</time>
      </trkpt>
      <trkpt lat="41.7201" lon="1.81839">
        <ele>209.2</ele>
        <time>2022-05-20 23:22:31</time>
      </trkpt>
      <trkpt lat="41.72018" lon="1.81849">
        <ele>208.2</ele>
        <time>2022-05-20 23:22:32</time>
      </trkpt>
      <trkpt lat="41.72026" lon="1.8186">
        <ele>207.4</ele>
        <time>2022-05-20 23:22:33</time>
      </trkpt>
      <trkpt lat="41.7203" lon="1.81874">
        <ele>206.4</ele>
        <time>2022-05-20 23:22:34</time>
      </trkpt>
      <trkpt lat="41.72032" lon="1.8189">
        <ele>205.6</ele>
        <time>2022-05-20 23:22:35</time>
      </trkpt>
      <trkpt lat="41.72031" lon="1.81905">
        <ele>204.8</ele>
        <time>2022-05-20 23:22:36</time>
      </trkpt>
      <trkpt lat="41.7203" lon="1.8192">
        <ele>204</ele>
        <time>2022-05-20 23:22:37</time>
      </trkpt>
      <trkpt lat="41.72029" lon="1.81936">
        <ele>203.2</ele>
        <time>2022-05-20 23:22:38</time>
      </trkpt>
      <trkpt lat="41.72029" lon="1.81952">
        <ele>202.2</ele>
        <time>2022-05-20 23:22:39</time>
      </trkpt>
      <trkpt lat="41.72028" lon="1.81967">
        <ele>201.6</ele>
        <time>2022-05-20 23:22:40</time>
      </trkpt>
      <trkpt lat="41.72028" lon="1.81983">
        <ele>201</ele>
        <time>2022-05-20 23:22:41</time>
      </trkpt>
      <trkpt lat="41.72028" lon="1.81999">
        <ele>200.6</ele>
        <time>2022-05-20 23:22:42</time>
      </trkpt>
      <trkpt lat="41.72029" lon="1.82014">
        <ele>200.2</ele>
        <time>2022-05-20 23:22:43</time>
      </trkpt>
      <trkpt lat="41.72028" lon="1.82027">
        <ele>200</ele>
        <time>2022-05-20 23:22:44</time>
      </trkpt>
      <trkpt lat="41.72029" lon="1.82038">
        <ele>199.8</ele>
        <time>2022-05-20 23:22:45</time>
      </trkpt>
      <trkpt lat="41.7203" lon="1.82047">
        <ele>199.8</ele>
        <time>2022-05-20 23:22:46</time>
      </trkpt>
      <trkpt lat="41.72032" lon="1.82055">
        <ele>199.6</ele>
        <time>2022-05-20 23:22:47</time>
      </trkpt>
      <trkpt lat="41.72036" lon="1.82062">
        <ele>199.4</ele>
        <time>2022-05-20 23:22:48</time>
      </trkpt>
      <trkpt lat="41.72042" lon="1.82066">
        <ele>199</ele>
        <time>2022-05-20 23:22:49</time>
      </trkpt>
      <trkpt lat="41.72048" lon="1.82069">
        <ele>198.6</ele>
        <time>2022-05-20 23:22:50</time>
      </trkpt>
      <trkpt lat="41.72057" lon="1.82068">
        <ele>198.4</ele>
        <time>2022-05-20 23:22:51</time>
      </trkpt>
      <trkpt lat="41.72066" lon="1.82066">
        <ele>198.2</ele>
        <time>2022-05-20 23:22:52</time>
      </trkpt>
      <trkpt lat="41.72074" lon="1.82065">
        <ele>198.2</ele>
        <time>2022-05-20 23:22:53</time>
      </trkpt>
      <trkpt lat="41.72081" lon="1.82063">
        <ele>198</ele>
        <time>2022-05-20 23:22:54</time>
      </trkpt>
      <trkpt lat="41.72088" lon="1.82061">
        <ele>198</ele>
        <time>2022-05-20 23:22:55</time>
      </trkpt>
      <trkpt lat="41.72095" lon="1.8206">
        <ele>198</ele>
        <time>2022-05-20 23:22:56</time>
      </trkpt>
      <trkpt lat="41.72102" lon="1.82059">
        <ele>198</ele>
        <time>2022-05-20 23:22:57</time>
      </trkpt>
      <trkpt lat="41.72107" lon="1.82058">
        <ele>198</ele>
        <time>2022-05-20 23:22:58</time>
      </trkpt>
      <trkpt lat="41.72113" lon="1.82057">
        <ele>198</ele>
        <time>2022-05-20 23:22:59</time>
      </trkpt>
      <trkpt lat="41.72118" lon="1.82056">
        <ele>198</ele>
        <time>2022-05-20 23:23:00</time>
      </trkpt>
      <trkpt lat="41.72123" lon="1.82056">
        <ele>198.2</ele>
        <time>2022-05-20 23:23:01</time>
      </trkpt>
      <trkpt lat="41.72127" lon="1.82056">
        <ele>198.2</ele>
        <time>2022-05-20 23:23:02</time>
      </trkpt>
      <trkpt lat="41.72129" lon="1.82057">
        <ele>198.2</ele>
        <time>2022-05-20 23:23:03</time>
      </trkpt>
      <trkpt lat="41.72132" lon="1.82057">
        <ele>198.4</ele>
        <time>2022-05-20 23:23:04</time>
      </trkpt>
      <trkpt lat="41.72134" lon="1.82057">
        <ele>198.4</ele>
        <time>2022-05-20 23:23:05</time>
      </trkpt>
      <trkpt lat="41.72136" lon="1.82057">
        <ele>198.4</ele>
        <time>2022-05-20 23:23:06</time>
      </trkpt>
      <trkpt lat="41.72137" lon="1.82057">
        <ele>198.4</ele>
        <time>2022-05-20 23:23:07</time>
      </trkpt>
      <trkpt lat="41.72138" lon="1.82057">
        <ele>198.4</ele>
        <time>2022-05-20 23:23:08</time>
      </trkpt>
      <trkpt lat="41.72144" lon="1.82056">
        <ele>198.6</ele>
        <time>2022-05-20 23:23:20</time>
      </trkpt>
      <trkpt lat="41.72146" lon="1.82057">
        <ele>198.6</ele>
        <time>2022-05-20 23:23:21</time>
      </trkpt>
      <trkpt lat="41.72149" lon="1.82057">
        <ele>198.6</ele>
        <time>2022-05-20 23:23:22</time>
      </trkpt>
      <trkpt lat="41.72153" lon="1.82059">
        <ele>198.6</ele>
        <time>2022-05-20 23:23:23</time>
      </trkpt>
      <trkpt lat="41.72156" lon="1.82061">
        <ele>198.6</ele>
        <time>2022-05-20 23:23:24</time>
      </trkpt>
      <trkpt lat="41.72159" lon="1.82063">
        <ele>198.6</ele>
        <time>2022-05-20 23:23:25</time>
      </trkpt>
      <trkpt lat="41.72162" lon="1.82066">
        <ele>198.6</ele>
        <time>2022-05-20 23:23:26</time>
      </trkpt>
      <trkpt lat="41.72164" lon="1.82068">
        <ele>198.6</ele>
        <time>2022-05-20 23:23:27</time>
      </trkpt>
      <trkpt lat="41.72166" lon="1.82071">
        <ele>198.8</ele>
        <time>2022-05-20 23:23:28</time>
      </trkpt>
      <trkpt lat="41.72168" lon="1.82073">
        <ele>198.8</ele>
        <time>2022-05-20 23:23:29</time>
      </trkpt>
      <trkpt lat="41.7217" lon="1.82077">
        <ele>199</ele>
        <time>2022-05-20 23:23:30</time>
      </trkpt>
      <trkpt lat="41.72172" lon="1.82081">
        <ele>199.2</ele>
        <time>2022-05-20 23:23:31</time>
      </trkpt>
      <trkpt lat="41.72174" lon="1.82085">
        <ele>199.4</ele>
        <time>2022-05-20 23:23:32</time>
      </trkpt>
      <trkpt lat="41.72176" lon="1.8209">
        <ele>199.8</ele>
        <time>2022-05-20 23:23:33</time>
      </trkpt>
      <trkpt lat="41.72178" lon="1.82094">
        <ele>200</ele>
        <time>2022-05-20 23:23:34</time>
      </trkpt>
      <trkpt lat="41.72179" lon="1.82098">
        <ele>200.2</ele>
        <time>2022-05-20 23:23:35</time>
      </trkpt>
      <trkpt lat="41.7218" lon="1.82102">
        <ele>200.6</ele>
        <time>2022-05-20 23:23:36</time>
      </trkpt>
      <trkpt lat="41.72181" lon="1.82106">
        <ele>200.8</ele>
        <time>2022-05-20 23:23:37</time>
      </trkpt>
      <trkpt lat="41.72183" lon="1.8211">
        <ele>201</ele>
        <time>2022-05-20 23:23:38</time>
      </trkpt>
      <trkpt lat="41.72186" lon="1.82113">
        <ele>201.2</ele>
        <time>2022-05-20 23:23:39</time>
      </trkpt>
      <trkpt lat="41.72188" lon="1.82117">
        <ele>201.6</ele>
        <time>2022-05-20 23:23:40</time>
      </trkpt>
      <trkpt lat="41.72191" lon="1.8212">
        <ele>201.8</ele>
        <time>2022-05-20 23:23:41</time>
      </trkpt>
      <trkpt lat="41.72194" lon="1.82124">
        <ele>202</ele>
        <time>2022-05-20 23:23:42</time>
      </trkpt>
      <trkpt lat="41.72196" lon="1.82127">
        <ele>202.4</ele>
        <time>2022-05-20 23:23:43</time>
      </trkpt>
      <trkpt lat="41.722" lon="1.82131">
        <ele>202.6</ele>
        <time>2022-05-20 23:23:44</time>
      </trkpt>
      <trkpt lat="41.72203" lon="1.82134">
        <ele>202.8</ele>
        <time>2022-05-20 23:23:45</time>
      </trkpt>
      <trkpt lat="41.72208" lon="1.82138">
        <ele>203</ele>
        <time>2022-05-20 23:23:46</time>
      </trkpt>
      <trkpt lat="41.72212" lon="1.82141">
        <ele>203.4</ele>
        <time>2022-05-20 23:23:47</time>
      </trkpt>
      <trkpt lat="41.72216" lon="1.82144">
        <ele>203.6</ele>
        <time>2022-05-20 23:23:48</time>
      </trkpt>
      <trkpt lat="41.72219" lon="1.82146">
        <ele>203.8</ele>
        <time>2022-05-20 23:23:49</time>
      </trkpt>
      <trkpt lat="41.72223" lon="1.82148">
        <ele>204</ele>
        <time>2022-05-20 23:23:50</time>
      </trkpt>
      <trkpt lat="41.72225" lon="1.82151">
        <ele>204.4</ele>
        <time>2022-05-20 23:23:51</time>
      </trkpt>
      <trkpt lat="41.72227" lon="1.82156">
        <ele>204.6</ele>
        <time>2022-05-20 23:23:52</time>
      </trkpt>
      <trkpt lat="41.72227" lon="1.82162">
        <ele>204.8</ele>
        <time>2022-05-20 23:23:53</time>
      </trkpt>
      <trkpt lat="41.72228" lon="1.82167">
        <ele>205</ele>
        <time>2022-05-20 23:23:54</time>
      </trkpt>
      <trkpt lat="41.72229" lon="1.82172">
        <ele>205.2</ele>
        <time>2022-05-20 23:23:55</time>
      </trkpt>
      <trkpt lat="41.72229" lon="1.82176">
        <ele>205.6</ele>
        <time>2022-05-20 23:23:56</time>
      </trkpt>
      <trkpt lat="41.72231" lon="1.82178">
        <ele>205.8</ele>
        <time>2022-05-20 23:23:57</time>
      </trkpt>
      <trkpt lat="41.72233" lon="1.8218">
        <ele>206</ele>
        <time>2022-05-20 23:23:58</time>
      </trkpt>
      <trkpt lat="41.72235" lon="1.82183">
        <ele>206.2</ele>
        <time>2022-05-20 23:23:59</time>
      </trkpt>
      <trkpt lat="41.72238" lon="1.82185">
        <ele>206.4</ele>
        <time>2022-05-20 23:24:00</time>
      </trkpt>
      <trkpt lat="41.7224" lon="1.82185">
        <ele>206.6</ele>
        <time>2022-05-20 23:24:01</time>
      </trkpt>
      <trkpt lat="41.72243" lon="1.82185">
        <ele>206.6</ele>
        <time>2022-05-20 23:24:02</time>
      </trkpt>
      <trkpt lat="41.72247" lon="1.82185">
        <ele>206.8</ele>
        <time>2022-05-20 23:24:03</time>
      </trkpt>
      <trkpt lat="41.72249" lon="1.82185">
        <ele>207</ele>
        <time>2022-05-20 23:24:04</time>
      </trkpt>
      <trkpt lat="41.72252" lon="1.82185">
        <ele>207</ele>
        <time>2022-05-20 23:24:05</time>
      </trkpt>
      <trkpt lat="41.72255" lon="1.82184">
        <ele>207.2</ele>
        <time>2022-05-20 23:24:06</time>
      </trkpt>
      <trkpt lat="41.72258" lon="1.82184">
        <ele>207.4</ele>
        <time>2022-05-20 23:24:07</time>
      </trkpt>
      <trkpt lat="41.72261" lon="1.82183">
        <ele>207.4</ele>
        <time>2022-05-20 23:24:08</time>
      </trkpt>
      <trkpt lat="41.72265" lon="1.82182">
        <ele>207.6</ele>
        <time>2022-05-20 23:24:09</time>
      </trkpt>
      <trkpt lat="41.72269" lon="1.82181">
        <ele>207.6</ele>
        <time>2022-05-20 23:24:10</time>
      </trkpt>
      <trkpt lat="41.72272" lon="1.8218">
        <ele>207.8</ele>
        <time>2022-05-20 23:24:11</time>
      </trkpt>
      <trkpt lat="41.72276" lon="1.82179">
        <ele>207.8</ele>
        <time>2022-05-20 23:24:12</time>
      </trkpt>
      <trkpt lat="41.72279" lon="1.82178">
        <ele>208</ele>
        <time>2022-05-20 23:24:13</time>
      </trkpt>
      <trkpt lat="41.72283" lon="1.82178">
        <ele>208</ele>
        <time>2022-05-20 23:24:14</time>
      </trkpt>
      <trkpt lat="41.72287" lon="1.82177">
        <ele>208.2</ele>
        <time>2022-05-20 23:24:15</time>
      </trkpt>
      <trkpt lat="41.7229" lon="1.82176">
        <ele>208.2</ele>
        <time>2022-05-20 23:24:16</time>
      </trkpt>
      <trkpt lat="41.72294" lon="1.82175">
        <ele>208.4</ele>
        <time>2022-05-20 23:24:17</time>
      </trkpt>
      <trkpt lat="41.72298" lon="1.82174">
        <ele>208.4</ele>
        <time>2022-05-20 23:24:18</time>
      </trkpt>
      <trkpt lat="41.72302" lon="1.82174">
        <ele>208.4</ele>
        <time>2022-05-20 23:24:19</time>
      </trkpt>
      <trkpt lat="41.72307" lon="1.82173">
        <ele>208.6</ele>
        <time>2022-05-20 23:24:20</time>
      </trkpt>
      <trkpt lat="41.72311" lon="1.82173">
        <ele>208.6</ele>
        <time>2022-05-20 23:24:21</time>
      </trkpt>
      <trkpt lat="41.72316" lon="1.82172">
        <ele>208.8</ele>
        <time>2022-05-20 23:24:22</time>
      </trkpt>
      <trkpt lat="41.72321" lon="1.82171">
        <ele>208.8</ele>
        <time>2022-05-20 23:24:23</time>
      </trkpt>
      <trkpt lat="41.72325" lon="1.8217">
        <ele>209</ele>
        <time>2022-05-20 23:24:24</time>
      </trkpt>
      <trkpt lat="41.72329" lon="1.82169">
        <ele>209</ele>
        <time>2022-05-20 23:24:25</time>
      </trkpt>
      <trkpt lat="41.72333" lon="1.82169">
        <ele>209.2</ele>
        <time>2022-05-20 23:24:26</time>
      </trkpt>
      <trkpt lat="41.72337" lon="1.82169">
        <ele>209.2</ele>
        <time>2022-05-20 23:24:27</time>
      </trkpt>
      <trkpt lat="41.72341" lon="1.82169">
        <ele>209.4</ele>
        <time>2022-05-20 23:24:28</time>
      </trkpt>
      <trkpt lat="41.72345" lon="1.82169">
        <ele>209.4</ele>
        <time>2022-05-20 23:24:29</time>
      </trkpt>
      <trkpt lat="41.72351" lon="1.82169">
        <ele>209.4</ele>
        <time>2022-05-20 23:24:30</time>
      </trkpt>
      <trkpt lat="41.72358" lon="1.82167">
        <ele>209.4</ele>
        <time>2022-05-20 23:24:31</time>
      </trkpt>
      <trkpt lat="41.72364" lon="1.82166">
        <ele>209.4</ele>
        <time>2022-05-20 23:24:32</time>
      </trkpt>
      <trkpt lat="41.7237" lon="1.82166">
        <ele>209.4</ele>
        <time>2022-05-20 23:24:33</time>
      </trkpt>
      <trkpt lat="41.72377" lon="1.82166">
        <ele>209.2</ele>
        <time>2022-05-20 23:24:34</time>
      </trkpt>
      <trkpt lat="41.72383" lon="1.82167">
        <ele>209.2</ele>
        <time>2022-05-20 23:24:35</time>
      </trkpt>
      <trkpt lat="41.72389" lon="1.82168">
        <ele>209</ele>
        <time>2022-05-20 23:24:36</time>
      </trkpt>
      <trkpt lat="41.72396" lon="1.8217">
        <ele>209</ele>
        <time>2022-05-20 23:24:37</time>
      </trkpt>
      <trkpt lat="41.72403" lon="1.82172">
        <ele>209</ele>
        <time>2022-05-20 23:24:38</time>
      </trkpt>
      <trkpt lat="41.72409" lon="1.82175">
        <ele>208.8</ele>
        <time>2022-05-20 23:24:39</time>
      </trkpt>
      <trkpt lat="41.72416" lon="1.82177">
        <ele>208.8</ele>
        <time>2022-05-20 23:24:40</time>
      </trkpt>
      <trkpt lat="41.72424" lon="1.8218">
        <ele>208.8</ele>
        <time>2022-05-20 23:24:41</time>
      </trkpt>
      <trkpt lat="41.72432" lon="1.82182">
        <ele>208.6</ele>
        <time>2022-05-20 23:24:42</time>
      </trkpt>
      <trkpt lat="41.72439" lon="1.82186">
        <ele>208.6</ele>
        <time>2022-05-20 23:24:43</time>
      </trkpt>
      <trkpt lat="41.72445" lon="1.82189">
        <ele>208.8</ele>
        <time>2022-05-20 23:24:44</time>
      </trkpt>
      <trkpt lat="41.7245" lon="1.82193">
        <ele>208.8</ele>
        <time>2022-05-20 23:24:45</time>
      </trkpt>
      <trkpt lat="41.72456" lon="1.82197">
        <ele>208.8</ele>
        <time>2022-05-20 23:24:46</time>
      </trkpt>
      <trkpt lat="41.72461" lon="1.82201">
        <ele>209</ele>
        <time>2022-05-20 23:24:47</time>
      </trkpt>
      <trkpt lat="41.72467" lon="1.82204">
        <ele>209</ele>
        <time>2022-05-20 23:24:48</time>
      </trkpt>
      <trkpt lat="41.72475" lon="1.82208">
        <ele>209.2</ele>
        <time>2022-05-20 23:24:49</time>
      </trkpt>
      <trkpt lat="41.72481" lon="1.82212">
        <ele>209.4</ele>
        <time>2022-05-20 23:24:50</time>
      </trkpt>
      <trkpt lat="41.72486" lon="1.82216">
        <ele>209.6</ele>
        <time>2022-05-20 23:24:51</time>
      </trkpt>
      <trkpt lat="41.72491" lon="1.82221">
        <ele>209.8</ele>
        <time>2022-05-20 23:24:52</time>
      </trkpt>
      <trkpt lat="41.72495" lon="1.82225">
        <ele>210</ele>
        <time>2022-05-20 23:24:53</time>
      </trkpt>
      <trkpt lat="41.72499" lon="1.82229">
        <ele>210.2</ele>
        <time>2022-05-20 23:24:54</time>
      </trkpt>
      <trkpt lat="41.72502" lon="1.82233">
        <ele>210.4</ele>
        <time>2022-05-20 23:24:55</time>
      </trkpt>
      <trkpt lat="41.72505" lon="1.82237">
        <ele>210.8</ele>
        <time>2022-05-20 23:24:56</time>
      </trkpt>
      <trkpt lat="41.72509" lon="1.82241">
        <ele>211</ele>
        <time>2022-05-20 23:24:57</time>
      </trkpt>
      <trkpt lat="41.72511" lon="1.82245">
        <ele>211.2</ele>
        <time>2022-05-20 23:24:58</time>
      </trkpt>
      <trkpt lat="41.72514" lon="1.8225">
        <ele>211.6</ele>
        <time>2022-05-20 23:24:59</time>
      </trkpt>
      <trkpt lat="41.72516" lon="1.82256">
        <ele>211.8</ele>
        <time>2022-05-20 23:25:00</time>
      </trkpt>
      <trkpt lat="41.72519" lon="1.82261">
        <ele>212</ele>
        <time>2022-05-20 23:25:01</time>
      </trkpt>
      <trkpt lat="41.72521" lon="1.82265">
        <ele>212.2</ele>
        <time>2022-05-20 23:25:02</time>
      </trkpt>
      <trkpt lat="41.72523" lon="1.8227">
        <ele>212.6</ele>
        <time>2022-05-20 23:25:03</time>
      </trkpt>
      <trkpt lat="41.72524" lon="1.82274">
        <ele>212.8</ele>
        <time>2022-05-20 23:25:04</time>
      </trkpt>
      <trkpt lat="41.72526" lon="1.82279">
        <ele>213</ele>
        <time>2022-05-20 23:25:05</time>
      </trkpt>
      <trkpt lat="41.7253" lon="1.82284">
        <ele>213.2</ele>
        <time>2022-05-20 23:25:06</time>
      </trkpt>
      <trkpt lat="41.72533" lon="1.8229">
        <ele>213.6</ele>
        <time>2022-05-20 23:25:07</time>
      </trkpt>
      <trkpt lat="41.72536" lon="1.82295">
        <ele>213.8</ele>
        <time>2022-05-20 23:25:08</time>
      </trkpt>
      <trkpt lat="41.72538" lon="1.82301">
        <ele>214</ele>
        <time>2022-05-20 23:25:09</time>
      </trkpt>
      <trkpt lat="41.72539" lon="1.82307">
        <ele>214</ele>
        <time>2022-05-20 23:25:10</time>
      </trkpt>
      <trkpt lat="41.72539" lon="1.82313">
        <ele>214.2</ele>
        <time>2022-05-20 23:25:11</time>
      </trkpt>
      <trkpt lat="41.7254" lon="1.82318">
        <ele>214.4</ele>
        <time>2022-05-20 23:25:12</time>
      </trkpt>
      <trkpt lat="41.7254" lon="1.82323">
        <ele>214.6</ele>
        <time>2022-05-20 23:25:13</time>
      </trkpt>
      <trkpt lat="41.72541" lon="1.82327">
        <ele>214.8</ele>
        <time>2022-05-20 23:25:14</time>
      </trkpt>
      <trkpt lat="41.72541" lon="1.82332">
        <ele>215</ele>
        <time>2022-05-20 23:25:15</time>
      </trkpt>
      <trkpt lat="41.72542" lon="1.82335">
        <ele>215.2</ele>
        <time>2022-05-20 23:25:16</time>
      </trkpt>
      <trkpt lat="41.72542" lon="1.82339">
        <ele>215.2</ele>
        <time>2022-05-20 23:25:17</time>
      </trkpt>
      <trkpt lat="41.72542" lon="1.82343">
        <ele>215.4</ele>
        <time>2022-05-20 23:25:18</time>
      </trkpt>
      <trkpt lat="41.72541" lon="1.82348">
        <ele>215.6</ele>
        <time>2022-05-20 23:25:19</time>
      </trkpt>
      <trkpt lat="41.72541" lon="1.82352">
        <ele>215.6</ele>
        <time>2022-05-20 23:25:20</time>
      </trkpt>
      <trkpt lat="41.72541" lon="1.82355">
        <ele>215.8</ele>
        <time>2022-05-20 23:25:21</time>
      </trkpt>
      <trkpt lat="41.72542" lon="1.82359">
        <ele>216</ele>
        <time>2022-05-20 23:25:22</time>
      </trkpt>
      <trkpt lat="41.72543" lon="1.82363">
        <ele>216.2</ele>
        <time>2022-05-20 23:25:23</time>
      </trkpt>
      <trkpt lat="41.72544" lon="1.82368">
        <ele>216.4</ele>
        <time>2022-05-20 23:25:24</time>
      </trkpt>
      <trkpt lat="41.72544" lon="1.82373">
        <ele>216.6</ele>
        <time>2022-05-20 23:25:25</time>
      </trkpt>
      <trkpt lat="41.72544" lon="1.82378">
        <ele>216.6</ele>
        <time>2022-05-20 23:25:26</time>
      </trkpt>
      <trkpt lat="41.72544" lon="1.82384">
        <ele>216.8</ele>
        <time>2022-05-20 23:25:27</time>
      </trkpt>
      <trkpt lat="41.72544" lon="1.82388">
        <ele>217</ele>
        <time>2022-05-20 23:25:28</time>
      </trkpt>
      <trkpt lat="41.72545" lon="1.82391">
        <ele>217.2</ele>
        <time>2022-05-20 23:25:29</time>
      </trkpt>
      <trkpt lat="41.72544" lon="1.82395">
        <ele>217.4</ele>
        <time>2022-05-20 23:25:30</time>
      </trkpt>
      <trkpt lat="41.72544" lon="1.82398">
        <ele>217.6</ele>
        <time>2022-05-20 23:25:31</time>
      </trkpt>
      <trkpt lat="41.72544" lon="1.82401">
        <ele>217.8</ele>
        <time>2022-05-20 23:25:32</time>
      </trkpt>
      <trkpt lat="41.72544" lon="1.82405">
        <ele>218</ele>
        <time>2022-05-20 23:25:33</time>
      </trkpt>
      <trkpt lat="41.72544" lon="1.82409">
        <ele>218</ele>
        <time>2022-05-20 23:25:34</time>
      </trkpt>
      <trkpt lat="41.72544" lon="1.82414">
        <ele>218.2</ele>
        <time>2022-05-20 23:25:35</time>
      </trkpt>
      <trkpt lat="41.72543" lon="1.82419">
        <ele>218.2</ele>
        <time>2022-05-20 23:25:36</time>
      </trkpt>
      <trkpt lat="41.72543" lon="1.82425">
        <ele>218.4</ele>
        <time>2022-05-20 23:25:37</time>
      </trkpt>
      <trkpt lat="41.72542" lon="1.8243">
        <ele>218.4</ele>
        <time>2022-05-20 23:25:38</time>
      </trkpt>
      <trkpt lat="41.72542" lon="1.82435">
        <ele>218.6</ele>
        <time>2022-05-20 23:25:39</time>
      </trkpt>
      <trkpt lat="41.72542" lon="1.8244">
        <ele>218.8</ele>
        <time>2022-05-20 23:25:40</time>
      </trkpt>
      <trkpt lat="41.72541" lon="1.82444">
        <ele>219</ele>
        <time>2022-05-20 23:25:41</time>
      </trkpt>
      <trkpt lat="41.72541" lon="1.82449">
        <ele>219.2</ele>
        <time>2022-05-20 23:25:42</time>
      </trkpt>
      <trkpt lat="41.72541" lon="1.82453">
        <ele>219.4</ele>
        <time>2022-05-20 23:25:43</time>
      </trkpt>
      <trkpt lat="41.7254" lon="1.82458">
        <ele>219.8</ele>
        <time>2022-05-20 23:25:44</time>
      </trkpt>
      <trkpt lat="41.7254" lon="1.82463">
        <ele>220</ele>
        <time>2022-05-20 23:25:45</time>
      </trkpt>
      <trkpt lat="41.7254" lon="1.82467">
        <ele>220.2</ele>
        <time>2022-05-20 23:25:46</time>
      </trkpt>
      <trkpt lat="41.7254" lon="1.82471">
        <ele>220.4</ele>
        <time>2022-05-20 23:25:47</time>
      </trkpt>
      <trkpt lat="41.7254" lon="1.82474">
        <ele>220.8</ele>
        <time>2022-05-20 23:25:48</time>
      </trkpt>
      <trkpt lat="41.72539" lon="1.82478">
        <ele>221</ele>
        <time>2022-05-20 23:25:49</time>
      </trkpt>
      <trkpt lat="41.72539" lon="1.82481">
        <ele>221.2</ele>
        <time>2022-05-20 23:25:50</time>
      </trkpt>
      <trkpt lat="41.72539" lon="1.82484">
        <ele>221.4</ele>
        <time>2022-05-20 23:25:51</time>
      </trkpt>
      <trkpt lat="41.72538" lon="1.82487">
        <ele>221.6</ele>
        <time>2022-05-20 23:25:52</time>
      </trkpt>
      <trkpt lat="41.72539" lon="1.82491">
        <ele>222</ele>
        <time>2022-05-20 23:25:53</time>
      </trkpt>
      <trkpt lat="41.72539" lon="1.82494">
        <ele>222.2</ele>
        <time>2022-05-20 23:25:54</time>
      </trkpt>
      <trkpt lat="41.72539" lon="1.82497">
        <ele>222.4</ele>
        <time>2022-05-20 23:25:55</time>
      </trkpt>
      <trkpt lat="41.7254" lon="1.825">
        <ele>222.6</ele>
        <time>2022-05-20 23:25:56</time>
      </trkpt>
      <trkpt lat="41.7254" lon="1.82504">
        <ele>222.8</ele>
        <time>2022-05-20 23:25:57</time>
      </trkpt>
      <trkpt lat="41.7254" lon="1.82508">
        <ele>223.2</ele>
        <time>2022-05-20 23:25:58</time>
      </trkpt>
      <trkpt lat="41.72541" lon="1.82512">
        <ele>223.4</ele>
        <time>2022-05-20 23:25:59</time>
      </trkpt>
      <trkpt lat="41.72541" lon="1.82515">
        <ele>223.6</ele>
        <time>2022-05-20 23:26:00</time>
      </trkpt>
      <trkpt lat="41.72542" lon="1.8252">
        <ele>223.8</ele>
        <time>2022-05-20 23:26:01</time>
      </trkpt>
      <trkpt lat="41.72543" lon="1.82524">
        <ele>224</ele>
        <time>2022-05-20 23:26:02</time>
      </trkpt>
      <trkpt lat="41.72544" lon="1.82529">
        <ele>224.2</ele>
        <time>2022-05-20 23:26:03</time>
      </trkpt>
      <trkpt lat="41.72545" lon="1.82533">
        <ele>224.4</ele>
        <time>2022-05-20 23:26:04</time>
      </trkpt>
      <trkpt lat="41.72547" lon="1.82537">
        <ele>224.6</ele>
        <time>2022-05-20 23:26:05</time>
      </trkpt>
      <trkpt lat="41.72549" lon="1.8254">
        <ele>224.6</ele>
        <time>2022-05-20 23:26:06</time>
      </trkpt>
      <trkpt lat="41.72551" lon="1.82542">
        <ele>224.8</ele>
        <time>2022-05-20 23:26:07</time>
      </trkpt>
      <trkpt lat="41.72554" lon="1.82545">
        <ele>225</ele>
        <time>2022-05-20 23:26:08</time>
      </trkpt>
      <trkpt lat="41.72556" lon="1.82548">
        <ele>225.2</ele>
        <time>2022-05-20 23:26:09</time>
      </trkpt>
      <trkpt lat="41.72559" lon="1.82551">
        <ele>225.4</ele>
        <time>2022-05-20 23:26:10</time>
      </trkpt>
      <trkpt lat="41.7256" lon="1.82554">
        <ele>225.6</ele>
        <time>2022-05-20 23:26:11</time>
      </trkpt>
      <trkpt lat="41.72562" lon="1.82557">
        <ele>225.8</ele>
        <time>2022-05-20 23:26:12</time>
      </trkpt>
      <trkpt lat="41.72565" lon="1.82561">
        <ele>226</ele>
        <time>2022-05-20 23:26:13</time>
      </trkpt>
      <trkpt lat="41.72567" lon="1.82566">
        <ele>226.2</ele>
        <time>2022-05-20 23:26:14</time>
      </trkpt>
      <trkpt lat="41.72569" lon="1.82569">
        <ele>226.4</ele>
        <time>2022-05-20 23:26:15</time>
      </trkpt>
      <trkpt lat="41.72571" lon="1.82572">
        <ele>226.4</ele>
        <time>2022-05-20 23:26:16</time>
      </trkpt>
      <trkpt lat="41.72573" lon="1.82575">
        <ele>226.6</ele>
        <time>2022-05-20 23:26:17</time>
      </trkpt>
      <trkpt lat="41.72574" lon="1.82578">
        <ele>226.8</ele>
        <time>2022-05-20 23:26:18</time>
      </trkpt>
      <trkpt lat="41.72576" lon="1.82582">
        <ele>227</ele>
        <time>2022-05-20 23:26:19</time>
      </trkpt>
      <trkpt lat="41.72578" lon="1.82585">
        <ele>227.2</ele>
        <time>2022-05-20 23:26:20</time>
      </trkpt>
      <trkpt lat="41.72579" lon="1.82587">
        <ele>227.2</ele>
        <time>2022-05-20 23:26:21</time>
      </trkpt>
      <trkpt lat="41.72581" lon="1.82589">
        <ele>227.4</ele>
        <time>2022-05-20 23:26:22</time>
      </trkpt>
      <trkpt lat="41.72583" lon="1.82592">
        <ele>227.6</ele>
        <time>2022-05-20 23:26:23</time>
      </trkpt>
      <trkpt lat="41.72585" lon="1.82594">
        <ele>227.6</ele>
        <time>2022-05-20 23:26:24</time>
      </trkpt>
      <trkpt lat="41.72588" lon="1.82597">
        <ele>227.8</ele>
        <time>2022-05-20 23:26:25</time>
      </trkpt>
      <trkpt lat="41.72591" lon="1.826">
        <ele>228</ele>
        <time>2022-05-20 23:26:26</time>
      </trkpt>
      <trkpt lat="41.72594" lon="1.82603">
        <ele>228.2</ele>
        <time>2022-05-20 23:26:27</time>
      </trkpt>
      <trkpt lat="41.72596" lon="1.82607">
        <ele>228.4</ele>
        <time>2022-05-20 23:26:28</time>
      </trkpt>
      <trkpt lat="41.72599" lon="1.82611">
        <ele>228.4</ele>
        <time>2022-05-20 23:26:29</time>
      </trkpt>
      <trkpt lat="41.72601" lon="1.82615">
        <ele>228.6</ele>
        <time>2022-05-20 23:26:30</time>
      </trkpt>
      <trkpt lat="41.72604" lon="1.82618">
        <ele>228.8</ele>
        <time>2022-05-20 23:26:31</time>
      </trkpt>
      <trkpt lat="41.72607" lon="1.82621">
        <ele>229</ele>
        <time>2022-05-20 23:26:32</time>
      </trkpt>
      <trkpt lat="41.72609" lon="1.82624">
        <ele>229.2</ele>
        <time>2022-05-20 23:26:33</time>
      </trkpt>
      <trkpt lat="41.72612" lon="1.82627">
        <ele>229.4</ele>
        <time>2022-05-20 23:26:34</time>
      </trkpt>
      <trkpt lat="41.72614" lon="1.8263">
        <ele>229.6</ele>
        <time>2022-05-20 23:26:35</time>
      </trkpt>
      <trkpt lat="41.72617" lon="1.82633">
        <ele>229.8</ele>
        <time>2022-05-20 23:26:36</time>
      </trkpt>
      <trkpt lat="41.72619" lon="1.82636">
        <ele>230</ele>
        <time>2022-05-20 23:26:37</time>
      </trkpt>
      <trkpt lat="41.72622" lon="1.82639">
        <ele>230.2</ele>
        <time>2022-05-20 23:26:38</time>
      </trkpt>
      <trkpt lat="41.72624" lon="1.82641">
        <ele>230.4</ele>
        <time>2022-05-20 23:26:39</time>
      </trkpt>
      <trkpt lat="41.72626" lon="1.82644">
        <ele>230.6</ele>
        <time>2022-05-20 23:26:40</time>
      </trkpt>
      <trkpt lat="41.72628" lon="1.82647">
        <ele>230.8</ele>
        <time>2022-05-20 23:26:41</time>
      </trkpt>
      <trkpt lat="41.7263" lon="1.8265">
        <ele>231</ele>
        <time>2022-05-20 23:26:42</time>
      </trkpt>
      <trkpt lat="41.72633" lon="1.82653">
        <ele>231.2</ele>
        <time>2022-05-20 23:26:43</time>
      </trkpt>
      <trkpt lat="41.72635" lon="1.82655">
        <ele>231.4</ele>
        <time>2022-05-20 23:26:44</time>
      </trkpt>
      <trkpt lat="41.72638" lon="1.82658">
        <ele>231.6</ele>
        <time>2022-05-20 23:26:45</time>
      </trkpt>
      <trkpt lat="41.72641" lon="1.82661">
        <ele>231.8</ele>
        <time>2022-05-20 23:26:46</time>
      </trkpt>
      <trkpt lat="41.72644" lon="1.82664">
        <ele>232</ele>
        <time>2022-05-20 23:26:47</time>
      </trkpt>
      <trkpt lat="41.72647" lon="1.82667">
        <ele>232.2</ele>
        <time>2022-05-20 23:26:48</time>
      </trkpt>
      <trkpt lat="41.7265" lon="1.8267">
        <ele>232.4</ele>
        <time>2022-05-20 23:26:49</time>
      </trkpt>
      <trkpt lat="41.72654" lon="1.82674">
        <ele>232.6</ele>
        <time>2022-05-20 23:26:50</time>
      </trkpt>
      <trkpt lat="41.72658" lon="1.82677">
        <ele>232.8</ele>
        <time>2022-05-20 23:26:51</time>
      </trkpt>
      <trkpt lat="41.72661" lon="1.82681">
        <ele>233.2</ele>
        <time>2022-05-20 23:26:52</time>
      </trkpt>
      <trkpt lat="41.72663" lon="1.82684">
        <ele>233.4</ele>
        <time>2022-05-20 23:26:53</time>
      </trkpt>
      <trkpt lat="41.72666" lon="1.82688">
        <ele>233.6</ele>
        <time>2022-05-20 23:26:54</time>
      </trkpt>
      <trkpt lat="41.72668" lon="1.82692">
        <ele>233.8</ele>
        <time>2022-05-20 23:26:55</time>
      </trkpt>
      <trkpt lat="41.7267" lon="1.82696">
        <ele>234</ele>
        <time>2022-05-20 23:26:56</time>
      </trkpt>
      <trkpt lat="41.72673" lon="1.82699">
        <ele>234.2</ele>
        <time>2022-05-20 23:26:57</time>
      </trkpt>
      <trkpt lat="41.72675" lon="1.82702">
        <ele>234.4</ele>
        <time>2022-05-20 23:26:58</time>
      </trkpt>
      <trkpt lat="41.72678" lon="1.82705">
        <ele>234.6</ele>
        <time>2022-05-20 23:26:59</time>
      </trkpt>
      <trkpt lat="41.7268" lon="1.82708">
        <ele>234.8</ele>
        <time>2022-05-20 23:27:00</time>
      </trkpt>
      <trkpt lat="41.72683" lon="1.82711">
        <ele>235</ele>
        <time>2022-05-20 23:27:01</time>
      </trkpt>
      <trkpt lat="41.72685" lon="1.82714">
        <ele>235.2</ele>
        <time>2022-05-20 23:27:02</time>
      </trkpt>
      <trkpt lat="41.72688" lon="1.82717">
        <ele>235.4</ele>
        <time>2022-05-20 23:27:03</time>
      </trkpt>
      <trkpt lat="41.7269" lon="1.8272">
        <ele>235.6</ele>
        <time>2022-05-20 23:27:04</time>
      </trkpt>
      <trkpt lat="41.72692" lon="1.82723">
        <ele>235.8</ele>
        <time>2022-05-20 23:27:05</time>
      </trkpt>
      <trkpt lat="41.72695" lon="1.82726">
        <ele>236</ele>
        <time>2022-05-20 23:27:06</time>
      </trkpt>
      <trkpt lat="41.72698" lon="1.82729">
        <ele>236.2</ele>
        <time>2022-05-20 23:27:07</time>
      </trkpt>
      <trkpt lat="41.727" lon="1.82732">
        <ele>236.4</ele>
        <time>2022-05-20 23:27:08</time>
      </trkpt>
      <trkpt lat="41.72702" lon="1.82734">
        <ele>236.6</ele>
        <time>2022-05-20 23:27:09</time>
      </trkpt>
      <trkpt lat="41.72706" lon="1.82737">
        <ele>236.8</ele>
        <time>2022-05-20 23:27:10</time>
      </trkpt>
      <trkpt lat="41.72709" lon="1.82739">
        <ele>237</ele>
        <time>2022-05-20 23:27:11</time>
      </trkpt>
      <trkpt lat="41.72713" lon="1.82742">
        <ele>237.4</ele>
        <time>2022-05-20 23:27:12</time>
      </trkpt>
      <trkpt lat="41.72716" lon="1.82745">
        <ele>237.6</ele>
        <time>2022-05-20 23:27:13</time>
      </trkpt>
      <trkpt lat="41.72719" lon="1.82747">
        <ele>237.8</ele>
        <time>2022-05-20 23:27:14</time>
      </trkpt>
      <trkpt lat="41.72723" lon="1.8275">
        <ele>238</ele>
        <time>2022-05-20 23:27:15</time>
      </trkpt>
      <trkpt lat="41.72727" lon="1.82753">
        <ele>238</ele>
        <time>2022-05-20 23:27:16</time>
      </trkpt>
      <trkpt lat="41.72729" lon="1.82756">
        <ele>238.2</ele>
        <time>2022-05-20 23:27:17</time>
      </trkpt>
      <trkpt lat="41.72732" lon="1.8276">
        <ele>238.4</ele>
        <time>2022-05-20 23:27:18</time>
      </trkpt>
      <trkpt lat="41.72734" lon="1.82765">
        <ele>238.6</ele>
        <time>2022-05-20 23:27:19</time>
      </trkpt>
      <trkpt lat="41.72737" lon="1.82769">
        <ele>238.8</ele>
        <time>2022-05-20 23:27:20</time>
      </trkpt>
      <trkpt lat="41.7274" lon="1.82773">
        <ele>238.8</ele>
        <time>2022-05-20 23:27:21</time>
      </trkpt>
      <trkpt lat="41.72743" lon="1.82776">
        <ele>239</ele>
        <time>2022-05-20 23:27:22</time>
      </trkpt>
      <trkpt lat="41.72747" lon="1.8278">
        <ele>239.2</ele>
        <time>2022-05-20 23:27:23</time>
      </trkpt>
      <trkpt lat="41.7275" lon="1.82783">
        <ele>239.2</ele>
        <time>2022-05-20 23:27:24</time>
      </trkpt>
      <trkpt lat="41.72754" lon="1.82787">
        <ele>239.4</ele>
        <time>2022-05-20 23:27:25</time>
      </trkpt>
      <trkpt lat="41.72759" lon="1.8279">
        <ele>239.4</ele>
        <time>2022-05-20 23:27:26</time>
      </trkpt>
      <trkpt lat="41.72764" lon="1.82794">
        <ele>239.4</ele>
        <time>2022-05-20 23:27:27</time>
      </trkpt>
      <trkpt lat="41.72767" lon="1.82798">
        <ele>239.6</ele>
        <time>2022-05-20 23:27:28</time>
      </trkpt>
      <trkpt lat="41.72771" lon="1.82803">
        <ele>239.6</ele>
        <time>2022-05-20 23:27:29</time>
      </trkpt>
      <trkpt lat="41.72775" lon="1.82807">
        <ele>239.6</ele>
        <time>2022-05-20 23:27:30</time>
      </trkpt>
      <trkpt lat="41.72779" lon="1.82812">
        <ele>239.6</ele>
        <time>2022-05-20 23:27:31</time>
      </trkpt>
      <trkpt lat="41.72783" lon="1.82816">
        <ele>239.6</ele>
        <time>2022-05-20 23:27:32</time>
      </trkpt>
      <trkpt lat="41.72786" lon="1.82821">
        <ele>239.6</ele>
        <time>2022-05-20 23:27:33</time>
      </trkpt>
      <trkpt lat="41.72789" lon="1.82826">
        <ele>239.8</ele>
        <time>2022-05-20 23:27:34</time>
      </trkpt>
      <trkpt lat="41.72794" lon="1.82831">
        <ele>239.6</ele>
        <time>2022-05-20 23:27:35</time>
      </trkpt>
      <trkpt lat="41.728" lon="1.82836">
        <ele>239.6</ele>
        <time>2022-05-20 23:27:36</time>
      </trkpt>
      <trkpt lat="41.72805" lon="1.82841">
        <ele>239.6</ele>
        <time>2022-05-20 23:27:37</time>
      </trkpt>
      <trkpt lat="41.7281" lon="1.82847">
        <ele>239.6</ele>
        <time>2022-05-20 23:27:38</time>
      </trkpt>
      <trkpt lat="41.72814" lon="1.82853">
        <ele>239.4</ele>
        <time>2022-05-20 23:27:39</time>
      </trkpt>
      <trkpt lat="41.72818" lon="1.82859">
        <ele>239.4</ele>
        <time>2022-05-20 23:27:40</time>
      </trkpt>
      <trkpt lat="41.72822" lon="1.82866">
        <ele>239.2</ele>
        <time>2022-05-20 23:27:41</time>
      </trkpt>
      <trkpt lat="41.72826" lon="1.82873">
        <ele>239.2</ele>
        <time>2022-05-20 23:27:42</time>
      </trkpt>
      <trkpt lat="41.72829" lon="1.8288">
        <ele>239</ele>
        <time>2022-05-20 23:27:43</time>
      </trkpt>
      <trkpt lat="41.72833" lon="1.82887">
        <ele>239</ele>
        <time>2022-05-20 23:27:44</time>
      </trkpt>
      <trkpt lat="41.72837" lon="1.82894">
        <ele>238.8</ele>
        <time>2022-05-20 23:27:45</time>
      </trkpt>
      <trkpt lat="41.72841" lon="1.82901">
        <ele>238.8</ele>
        <time>2022-05-20 23:27:46</time>
      </trkpt>
      <trkpt lat="41.72845" lon="1.82909">
        <ele>238.6</ele>
        <time>2022-05-20 23:27:47</time>
      </trkpt>
      <trkpt lat="41.72849" lon="1.82917">
        <ele>238.4</ele>
        <time>2022-05-20 23:27:48</time>
      </trkpt>
      <trkpt lat="41.72853" lon="1.82925">
        <ele>238.2</ele>
        <time>2022-05-20 23:27:49</time>
      </trkpt>
      <trkpt lat="41.72857" lon="1.82935">
        <ele>238</ele>
        <time>2022-05-20 23:27:50</time>
      </trkpt>
      <trkpt lat="41.72861" lon="1.82944">
        <ele>237.8</ele>
        <time>2022-05-20 23:27:51</time>
      </trkpt>
      <trkpt lat="41.72865" lon="1.82953">
        <ele>237.6</ele>
        <time>2022-05-20 23:27:52</time>
      </trkpt>
      <trkpt lat="41.7287" lon="1.82962">
        <ele>237.4</ele>
        <time>2022-05-20 23:27:53</time>
      </trkpt>
      <trkpt lat="41.72875" lon="1.82971">
        <ele>237.2</ele>
        <time>2022-05-20 23:27:54</time>
      </trkpt>
      <trkpt lat="41.72879" lon="1.82979">
        <ele>236.8</ele>
        <time>2022-05-20 23:27:55</time>
      </trkpt>
      <trkpt lat="41.72884" lon="1.82988">
        <ele>236.6</ele>
        <time>2022-05-20 23:27:56</time>
      </trkpt>
      <trkpt lat="41.72889" lon="1.82997">
        <ele>236.4</ele>
        <time>2022-05-20 23:27:57</time>
      </trkpt>
      <trkpt lat="41.72894" lon="1.83006">
        <ele>236.2</ele>
        <time>2022-05-20 23:27:58</time>
      </trkpt>
      <trkpt lat="41.72898" lon="1.83014">
        <ele>236</ele>
        <time>2022-05-20 23:27:59</time>
      </trkpt>
      <trkpt lat="41.72902" lon="1.83023">
        <ele>235.8</ele>
        <time>2022-05-20 23:28:00</time>
      </trkpt>
      <trkpt lat="41.72906" lon="1.83031">
        <ele>235.6</ele>
        <time>2022-05-20 23:28:01</time>
      </trkpt>
      <trkpt lat="41.7291" lon="1.83039">
        <ele>235.4</ele>
        <time>2022-05-20 23:28:02</time>
      </trkpt>
      <trkpt lat="41.72915" lon="1.83047">
        <ele>235.2</ele>
        <time>2022-05-20 23:28:03</time>
      </trkpt>
      <trkpt lat="41.72919" lon="1.83054">
        <ele>235.2</ele>
        <time>2022-05-20 23:28:04</time>
      </trkpt>
      <trkpt lat="41.72923" lon="1.83061">
        <ele>235</ele>
        <time>2022-05-20 23:28:05</time>
      </trkpt>
      <trkpt lat="41.72927" lon="1.83068">
        <ele>235</ele>
        <time>2022-05-20 23:28:06</time>
      </trkpt>
      <trkpt lat="41.72931" lon="1.83075">
        <ele>234.8</ele>
        <time>2022-05-20 23:28:07</time>
      </trkpt>
      <trkpt lat="41.72936" lon="1.83082">
        <ele>234.6</ele>
        <time>2022-05-20 23:28:08</time>
      </trkpt>
      <trkpt lat="41.7294" lon="1.83089">
        <ele>234.4</ele>
        <time>2022-05-20 23:28:09</time>
      </trkpt>
      <trkpt lat="41.72942" lon="1.83096">
        <ele>234.4</ele>
        <time>2022-05-20 23:28:10</time>
      </trkpt>
      <trkpt lat="41.72943" lon="1.83104">
        <ele>234.2</ele>
        <time>2022-05-20 23:28:11</time>
      </trkpt>
      <trkpt lat="41.72943" lon="1.83114">
        <ele>234</ele>
        <time>2022-05-20 23:28:12</time>
      </trkpt>
      <trkpt lat="41.72943" lon="1.83125">
        <ele>233.8</ele>
        <time>2022-05-20 23:28:13</time>
      </trkpt>
      <trkpt lat="41.72945" lon="1.83134">
        <ele>233.6</ele>
        <time>2022-05-20 23:28:14</time>
      </trkpt>
      <trkpt lat="41.72949" lon="1.8314">
        <ele>233.6</ele>
        <time>2022-05-20 23:28:15</time>
      </trkpt>
      <trkpt lat="41.72955" lon="1.83146">
        <ele>233.4</ele>
        <time>2022-05-20 23:28:16</time>
      </trkpt>
      <trkpt lat="41.7296" lon="1.83151">
        <ele>233.4</ele>
        <time>2022-05-20 23:28:17</time>
      </trkpt>
      <trkpt lat="41.72966" lon="1.83156">
        <ele>233.2</ele>
        <time>2022-05-20 23:28:18</time>
      </trkpt>
      <trkpt lat="41.72971" lon="1.83163">
        <ele>233.2</ele>
        <time>2022-05-20 23:28:19</time>
      </trkpt>
      <trkpt lat="41.72975" lon="1.8317">
        <ele>233</ele>
        <time>2022-05-20 23:28:20</time>
      </trkpt>
      <trkpt lat="41.72979" lon="1.83177">
        <ele>233</ele>
        <time>2022-05-20 23:28:21</time>
      </trkpt>
      <trkpt lat="41.72982" lon="1.83184">
        <ele>232.8</ele>
        <time>2022-05-20 23:28:22</time>
      </trkpt>
      <trkpt lat="41.72986" lon="1.83192">
        <ele>232.8</ele>
        <time>2022-05-20 23:28:23</time>
      </trkpt>
      <trkpt lat="41.7299" lon="1.832">
        <ele>232.6</ele>
        <time>2022-05-20 23:28:24</time>
      </trkpt>
      <trkpt lat="41.72994" lon="1.83207">
        <ele>232.4</ele>
        <time>2022-05-20 23:28:25</time>
      </trkpt>
      <trkpt lat="41.72999" lon="1.83215">
        <ele>232.4</ele>
        <time>2022-05-20 23:28:26</time>
      </trkpt>
      <trkpt lat="41.73003" lon="1.83223">
        <ele>232.2</ele>
        <time>2022-05-20 23:28:27</time>
      </trkpt>
      <trkpt lat="41.73007" lon="1.83231">
        <ele>232.2</ele>
        <time>2022-05-20 23:28:28</time>
      </trkpt>
      <trkpt lat="41.73011" lon="1.83237">
        <ele>232.2</ele>
        <time>2022-05-20 23:28:29</time>
      </trkpt>
      <trkpt lat="41.73016" lon="1.83242">
        <ele>232</ele>
        <time>2022-05-20 23:28:30</time>
      </trkpt>
      <trkpt lat="41.73021" lon="1.83246">
        <ele>232</ele>
        <time>2022-05-20 23:28:31</time>
      </trkpt>
      <trkpt lat="41.73025" lon="1.83251">
        <ele>232</ele>
        <time>2022-05-20 23:28:32</time>
      </trkpt>
      <trkpt lat="41.73029" lon="1.83259">
        <ele>232</ele>
        <time>2022-05-20 23:28:33</time>
      </trkpt>
      <trkpt lat="41.73031" lon="1.83267">
        <ele>231.8</ele>
        <time>2022-05-20 23:28:34</time>
      </trkpt>
      <trkpt lat="41.73034" lon="1.83275">
        <ele>231.8</ele>
        <time>2022-05-20 23:28:35</time>
      </trkpt>
      <trkpt lat="41.73037" lon="1.8328">
        <ele>231.8</ele>
        <time>2022-05-20 23:28:36</time>
      </trkpt>
      <trkpt lat="41.73039" lon="1.83285">
        <ele>231.8</ele>
        <time>2022-05-20 23:28:37</time>
      </trkpt>
      <trkpt lat="41.7304" lon="1.83289">
        <ele>231.8</ele>
        <time>2022-05-20 23:28:38</time>
      </trkpt>
      <trkpt lat="41.7304" lon="1.83291">
        <ele>231.8</ele>
        <time>2022-05-20 23:28:39</time>
      </trkpt>
      <trkpt lat="41.7304" lon="1.83294">
        <ele>231.8</ele>
        <time>2022-05-20 23:28:40</time>
      </trkpt>
      <trkpt lat="41.73039" lon="1.83304">
        <ele>231.8</ele>
        <time>2022-05-20 23:28:54</time>
      </trkpt>
      <trkpt lat="41.7304" lon="1.83307">
        <ele>231.8</ele>
        <time>2022-05-20 23:28:55</time>
      </trkpt>
      <trkpt lat="41.73041" lon="1.83312">
        <ele>231.8</ele>
        <time>2022-05-20 23:28:56</time>
      </trkpt>
      <trkpt lat="41.73043" lon="1.83316">
        <ele>231.6</ele>
        <time>2022-05-20 23:28:57</time>
      </trkpt>
      <trkpt lat="41.73045" lon="1.83321">
        <ele>231.6</ele>
        <time>2022-05-20 23:28:58</time>
      </trkpt>
      <trkpt lat="41.73048" lon="1.83326">
        <ele>231.4</ele>
        <time>2022-05-20 23:28:59</time>
      </trkpt>
      <trkpt lat="41.7305" lon="1.83332">
        <ele>231.4</ele>
        <time>2022-05-20 23:29:00</time>
      </trkpt>
      <trkpt lat="41.73053" lon="1.83338">
        <ele>231.2</ele>
        <time>2022-05-20 23:29:01</time>
      </trkpt>
      <trkpt lat="41.73056" lon="1.83344">
        <ele>231.2</ele>
        <time>2022-05-20 23:29:02</time>
      </trkpt>
      <trkpt lat="41.73059" lon="1.8335">
        <ele>231.2</ele>
        <time>2022-05-20 23:29:03</time>
      </trkpt>
      <trkpt lat="41.73062" lon="1.83356">
        <ele>231</ele>
        <time>2022-05-20 23:29:04</time>
      </trkpt>
      <trkpt lat="41.73064" lon="1.83363">
        <ele>231</ele>
        <time>2022-05-20 23:29:05</time>
      </trkpt>
      <trkpt lat="41.73068" lon="1.8337">
        <ele>231</ele>
        <time>2022-05-20 23:29:06</time>
      </trkpt>
      <trkpt lat="41.73072" lon="1.83377">
        <ele>230.8</ele>
        <time>2022-05-20 23:29:07</time>
      </trkpt>
      <trkpt lat="41.73076" lon="1.83383">
        <ele>230.6</ele>
        <time>2022-05-20 23:29:08</time>
      </trkpt>
      <trkpt lat="41.7308" lon="1.8339">
        <ele>230.6</ele>
        <time>2022-05-20 23:29:09</time>
      </trkpt>
      <trkpt lat="41.73084" lon="1.83397">
        <ele>230.4</ele>
        <time>2022-05-20 23:29:10</time>
      </trkpt>
      <trkpt lat="41.73088" lon="1.83405">
        <ele>230.4</ele>
        <time>2022-05-20 23:29:11</time>
      </trkpt>
      <trkpt lat="41.73092" lon="1.83413">
        <ele>230.2</ele>
        <time>2022-05-20 23:29:12</time>
      </trkpt>
      <trkpt lat="41.73095" lon="1.83421">
        <ele>230.2</ele>
        <time>2022-05-20 23:29:13</time>
      </trkpt>
      <trkpt lat="41.73098" lon="1.83428">
        <ele>230.2</ele>
        <time>2022-05-20 23:29:14</time>
      </trkpt>
      <trkpt lat="41.73102" lon="1.83435">
        <ele>230</ele>
        <time>2022-05-20 23:29:15</time>
      </trkpt>
      <trkpt lat="41.73106" lon="1.83442">
        <ele>230</ele>
        <time>2022-05-20 23:29:16</time>
      </trkpt>
      <trkpt lat="41.7311" lon="1.8345">
        <ele>229.8</ele>
        <time>2022-05-20 23:29:17</time>
      </trkpt>
      <trkpt lat="41.73114" lon="1.83459">
        <ele>229.8</ele>
        <time>2022-05-20 23:29:18</time>
      </trkpt>
      <trkpt lat="41.73118" lon="1.83467">
        <ele>229.8</ele>
        <time>2022-05-20 23:29:19</time>
      </trkpt>
      <trkpt lat="41.73122" lon="1.83477">
        <ele>229.8</ele>
        <time>2022-05-20 23:29:20</time>
      </trkpt>
      <trkpt lat="41.73127" lon="1.83486">
        <ele>229.8</ele>
        <time>2022-05-20 23:29:21</time>
      </trkpt>
      <trkpt lat="41.73131" lon="1.83494">
        <ele>229.8</ele>
        <time>2022-05-20 23:29:22</time>
      </trkpt>
      <trkpt lat="41.73135" lon="1.83501">
        <ele>229.8</ele>
        <time>2022-05-20 23:29:23</time>
      </trkpt>
      <trkpt lat="41.7314" lon="1.83509">
        <ele>229.8</ele>
        <time>2022-05-20 23:29:24</time>
      </trkpt>
      <trkpt lat="41.73145" lon="1.83517">
        <ele>229.8</ele>
        <time>2022-05-20 23:29:25</time>
      </trkpt>
      <trkpt lat="41.73151" lon="1.83525">
        <ele>229.8</ele>
        <time>2022-05-20 23:29:26</time>
      </trkpt>
      <trkpt lat="41.73156" lon="1.83532">
        <ele>229.8</ele>
        <time>2022-05-20 23:29:27</time>
      </trkpt>
      <trkpt lat="41.7316" lon="1.8354">
        <ele>229.8</ele>
        <time>2022-05-20 23:29:28</time>
      </trkpt>
      <trkpt lat="41.73164" lon="1.83548">
        <ele>230</ele>
        <time>2022-05-20 23:29:29</time>
      </trkpt>
      <trkpt lat="41.73169" lon="1.83556">
        <ele>230</ele>
        <time>2022-05-20 23:29:30</time>
      </trkpt>
      <trkpt lat="41.73175" lon="1.83563">
        <ele>230</ele>
        <time>2022-05-20 23:29:31</time>
      </trkpt>
      <trkpt lat="41.73179" lon="1.8357">
        <ele>230</ele>
        <time>2022-05-20 23:29:32</time>
      </trkpt>
      <trkpt lat="41.73184" lon="1.83577">
        <ele>230</ele>
        <time>2022-05-20 23:29:33</time>
      </trkpt>
      <trkpt lat="41.73188" lon="1.83583">
        <ele>230.2</ele>
        <time>2022-05-20 23:29:34</time>
      </trkpt>
      <trkpt lat="41.73192" lon="1.83588">
        <ele>230.2</ele>
        <time>2022-05-20 23:29:35</time>
      </trkpt>
      <trkpt lat="41.73197" lon="1.83594">
        <ele>230.2</ele>
        <time>2022-05-20 23:29:36</time>
      </trkpt>
      <trkpt lat="41.73201" lon="1.836">
        <ele>230.4</ele>
        <time>2022-05-20 23:29:37</time>
      </trkpt>
      <trkpt lat="41.73205" lon="1.83607">
        <ele>230.4</ele>
        <time>2022-05-20 23:29:38</time>
      </trkpt>
      <trkpt lat="41.73209" lon="1.83614">
        <ele>230.4</ele>
        <time>2022-05-20 23:29:39</time>
      </trkpt>
      <trkpt lat="41.73213" lon="1.83622">
        <ele>230.4</ele>
        <time>2022-05-20 23:29:40</time>
      </trkpt>
      <trkpt lat="41.73217" lon="1.8363">
        <ele>230.6</ele>
        <time>2022-05-20 23:29:41</time>
      </trkpt>
      <trkpt lat="41.73221" lon="1.83637">
        <ele>230.6</ele>
        <time>2022-05-20 23:29:42</time>
      </trkpt>
      <trkpt lat="41.73225" lon="1.83646">
        <ele>230.6</ele>
        <time>2022-05-20 23:29:43</time>
      </trkpt>
      <trkpt lat="41.73228" lon="1.83655">
        <ele>230.6</ele>
        <time>2022-05-20 23:29:44</time>
      </trkpt>
      <trkpt lat="41.73231" lon="1.83664">
        <ele>230.6</ele>
        <time>2022-05-20 23:29:45</time>
      </trkpt>
      <trkpt lat="41.73234" lon="1.83673">
        <ele>230.8</ele>
        <time>2022-05-20 23:29:46</time>
      </trkpt>
      <trkpt lat="41.73237" lon="1.83682">
        <ele>230.8</ele>
        <time>2022-05-20 23:29:47</time>
      </trkpt>
      <trkpt lat="41.7324" lon="1.8369">
        <ele>230.8</ele>
        <time>2022-05-20 23:29:48</time>
      </trkpt>
      <trkpt lat="41.73243" lon="1.83697">
        <ele>230.8</ele>
        <time>2022-05-20 23:29:49</time>
      </trkpt>
      <trkpt lat="41.73246" lon="1.83705">
        <ele>231</ele>
        <time>2022-05-20 23:29:50</time>
      </trkpt>
      <trkpt lat="41.73249" lon="1.83713">
        <ele>231</ele>
        <time>2022-05-20 23:29:51</time>
      </trkpt>
      <trkpt lat="41.73253" lon="1.83721">
        <ele>231.2</ele>
        <time>2022-05-20 23:29:52</time>
      </trkpt>
      <trkpt lat="41.73257" lon="1.83729">
        <ele>231.2</ele>
        <time>2022-05-20 23:29:53</time>
      </trkpt>
      <trkpt lat="41.73262" lon="1.83737">
        <ele>231.2</ele>
        <time>2022-05-20 23:29:54</time>
      </trkpt>
      <trkpt lat="41.73266" lon="1.83745">
        <ele>231.4</ele>
        <time>2022-05-20 23:29:55</time>
      </trkpt>
      <trkpt lat="41.7327" lon="1.83752">
        <ele>231.4</ele>
        <time>2022-05-20 23:29:56</time>
      </trkpt>
      <trkpt lat="41.73275" lon="1.8376">
        <ele>231.4</ele>
        <time>2022-05-20 23:29:57</time>
      </trkpt>
      <trkpt lat="41.73279" lon="1.83768">
        <ele>231.6</ele>
        <time>2022-05-20 23:29:58</time>
      </trkpt>
      <trkpt lat="41.73283" lon="1.83776">
        <ele>231.6</ele>
        <time>2022-05-20 23:29:59</time>
      </trkpt>
      <trkpt lat="41.73286" lon="1.83782">
        <ele>231.6</ele>
        <time>2022-05-20 23:30:00</time>
      </trkpt>
      <trkpt lat="41.7329" lon="1.8379">
        <ele>231.8</ele>
        <time>2022-05-20 23:30:01</time>
      </trkpt>
      <trkpt lat="41.73294" lon="1.83798">
        <ele>231.8</ele>
        <time>2022-05-20 23:30:02</time>
      </trkpt>
      <trkpt lat="41.73298" lon="1.83805">
        <ele>232</ele>
        <time>2022-05-20 23:30:03</time>
      </trkpt>
      <trkpt lat="41.73301" lon="1.83812">
        <ele>232</ele>
        <time>2022-05-20 23:30:04</time>
      </trkpt>
      <trkpt lat="41.73304" lon="1.83819">
        <ele>232.2</ele>
        <time>2022-05-20 23:30:05</time>
      </trkpt>
      <trkpt lat="41.73307" lon="1.83825">
        <ele>232.2</ele>
        <time>2022-05-20 23:30:06</time>
      </trkpt>
      <trkpt lat="41.73309" lon="1.83832">
        <ele>232.4</ele>
        <time>2022-05-20 23:30:07</time>
      </trkpt>
      <trkpt lat="41.73312" lon="1.83837">
        <ele>232.4</ele>
        <time>2022-05-20 23:30:08</time>
      </trkpt>
      <trkpt lat="41.73315" lon="1.83843">
        <ele>232.6</ele>
        <time>2022-05-20 23:30:09</time>
      </trkpt>
      <trkpt lat="41.73317" lon="1.83848">
        <ele>232.6</ele>
        <time>2022-05-20 23:30:10</time>
      </trkpt>
      <trkpt lat="41.7332" lon="1.83853">
        <ele>232.6</ele>
        <time>2022-05-20 23:30:11</time>
      </trkpt>
      <trkpt lat="41.73322" lon="1.83858">
        <ele>232.6</ele>
        <time>2022-05-20 23:30:12</time>
      </trkpt>
      <trkpt lat="41.73325" lon="1.83863">
        <ele>232.8</ele>
        <time>2022-05-20 23:30:13</time>
      </trkpt>
      <trkpt lat="41.73326" lon="1.83868">
        <ele>232.8</ele>
        <time>2022-05-20 23:30:14</time>
      </trkpt>
      <trkpt lat="41.73328" lon="1.83873">
        <ele>232.8</ele>
        <time>2022-05-20 23:30:15</time>
      </trkpt>
      <trkpt lat="41.73331" lon="1.83879">
        <ele>232.8</ele>
        <time>2022-05-20 23:30:16</time>
      </trkpt>
      <trkpt lat="41.73333" lon="1.83884">
        <ele>232.8</ele>
        <time>2022-05-20 23:30:17</time>
      </trkpt>
      <trkpt lat="41.73336" lon="1.83891">
        <ele>232.8</ele>
        <time>2022-05-20 23:30:18</time>
      </trkpt>
      <trkpt lat="41.73339" lon="1.83897">
        <ele>232.8</ele>
        <time>2022-05-20 23:30:19</time>
      </trkpt>
      <trkpt lat="41.73342" lon="1.83902">
        <ele>233</ele>
        <time>2022-05-20 23:30:20</time>
      </trkpt>
      <trkpt lat="41.73345" lon="1.83907">
        <ele>233</ele>
        <time>2022-05-20 23:30:21</time>
      </trkpt>
      <trkpt lat="41.73348" lon="1.83913">
        <ele>233</ele>
        <time>2022-05-20 23:30:22</time>
      </trkpt>
      <trkpt lat="41.73351" lon="1.83919">
        <ele>233</ele>
        <time>2022-05-20 23:30:23</time>
      </trkpt>
      <trkpt lat="41.73354" lon="1.83925">
        <ele>233.2</ele>
        <time>2022-05-20 23:30:24</time>
      </trkpt>
      <trkpt lat="41.73357" lon="1.83931">
        <ele>233.2</ele>
        <time>2022-05-20 23:30:25</time>
      </trkpt>
      <trkpt lat="41.7336" lon="1.83937">
        <ele>233.4</ele>
        <time>2022-05-20 23:30:26</time>
      </trkpt>
      <trkpt lat="41.73363" lon="1.83943">
        <ele>233.4</ele>
        <time>2022-05-20 23:30:27</time>
      </trkpt>
      <trkpt lat="41.73367" lon="1.83949">
        <ele>233.6</ele>
        <time>2022-05-20 23:30:28</time>
      </trkpt>
      <trkpt lat="41.7337" lon="1.83955">
        <ele>233.6</ele>
        <time>2022-05-20 23:30:29</time>
      </trkpt>
      <trkpt lat="41.73374" lon="1.83961">
        <ele>233.8</ele>
        <time>2022-05-20 23:30:30</time>
      </trkpt>
      <trkpt lat="41.73377" lon="1.83967">
        <ele>234</ele>
        <time>2022-05-20 23:30:31</time>
      </trkpt>
      <trkpt lat="41.7338" lon="1.83973">
        <ele>234.2</ele>
        <time>2022-05-20 23:30:32</time>
      </trkpt>
      <trkpt lat="41.73383" lon="1.83979">
        <ele>234.4</ele>
        <time>2022-05-20 23:30:33</time>
      </trkpt>
      <trkpt lat="41.73386" lon="1.83985">
        <ele>234.6</ele>
        <time>2022-05-20 23:30:34</time>
      </trkpt>
      <trkpt lat="41.73389" lon="1.83991">
        <ele>234.8</ele>
        <time>2022-05-20 23:30:35</time>
      </trkpt>
      <trkpt lat="41.73392" lon="1.83996">
        <ele>235</ele>
        <time>2022-05-20 23:30:36</time>
      </trkpt>
      <trkpt lat="41.73394" lon="1.84002">
        <ele>235.2</ele>
        <time>2022-05-20 23:30:37</time>
      </trkpt>
      <trkpt lat="41.73397" lon="1.84008">
        <ele>235.4</ele>
        <time>2022-05-20 23:30:38</time>
      </trkpt>
      <trkpt lat="41.734" lon="1.84014">
        <ele>235.6</ele>
        <time>2022-05-20 23:30:39</time>
      </trkpt>
      <trkpt lat="41.73402" lon="1.8402">
        <ele>236</ele>
        <time>2022-05-20 23:30:40</time>
      </trkpt>
      <trkpt lat="41.73405" lon="1.84025">
        <ele>236.2</ele>
        <time>2022-05-20 23:30:41</time>
      </trkpt>
      <trkpt lat="41.73408" lon="1.84031">
        <ele>236.4</ele>
        <time>2022-05-20 23:30:42</time>
      </trkpt>
      <trkpt lat="41.7341" lon="1.84037">
        <ele>236.6</ele>
        <time>2022-05-20 23:30:43</time>
      </trkpt>
      <trkpt lat="41.73413" lon="1.84042">
        <ele>236.8</ele>
        <time>2022-05-20 23:30:44</time>
      </trkpt>
      <trkpt lat="41.73416" lon="1.84047">
        <ele>237</ele>
        <time>2022-05-20 23:30:45</time>
      </trkpt>
      <trkpt lat="41.73418" lon="1.84052">
        <ele>237.2</ele>
        <time>2022-05-20 23:30:46</time>
      </trkpt>
      <trkpt lat="41.73421" lon="1.84057">
        <ele>237.4</ele>
        <time>2022-05-20 23:30:47</time>
      </trkpt>
      <trkpt lat="41.73424" lon="1.84062">
        <ele>237.8</ele>
        <time>2022-05-20 23:30:48</time>
      </trkpt>
      <trkpt lat="41.73427" lon="1.84067">
        <ele>238</ele>
        <time>2022-05-20 23:30:49</time>
      </trkpt>
      <trkpt lat="41.73429" lon="1.84073">
        <ele>238.2</ele>
        <time>2022-05-20 23:30:50</time>
      </trkpt>
      <trkpt lat="41.73431" lon="1.84078">
        <ele>238.4</ele>
        <time>2022-05-20 23:30:51</time>
      </trkpt>
      <trkpt lat="41.73433" lon="1.84083">
        <ele>238.6</ele>
        <time>2022-05-20 23:30:52</time>
      </trkpt>
      <trkpt lat="41.73436" lon="1.84088">
        <ele>239</ele>
        <time>2022-05-20 23:30:53</time>
      </trkpt>
      <trkpt lat="41.73439" lon="1.84093">
        <ele>239.2</ele>
        <time>2022-05-20 23:30:54</time>
      </trkpt>
      <trkpt lat="41.73441" lon="1.84098">
        <ele>239.4</ele>
        <time>2022-05-20 23:30:55</time>
      </trkpt>
      <trkpt lat="41.73444" lon="1.84103">
        <ele>239.6</ele>
        <time>2022-05-20 23:30:56</time>
      </trkpt>
      <trkpt lat="41.73446" lon="1.84109">
        <ele>239.8</ele>
        <time>2022-05-20 23:30:57</time>
      </trkpt>
      <trkpt lat="41.73448" lon="1.84114">
        <ele>240</ele>
        <time>2022-05-20 23:30:58</time>
      </trkpt>
      <trkpt lat="41.73451" lon="1.84119">
        <ele>240.2</ele>
        <time>2022-05-20 23:30:59</time>
      </trkpt>
      <trkpt lat="41.73453" lon="1.84124">
        <ele>240.4</ele>
        <time>2022-05-20 23:31:00</time>
      </trkpt>
      <trkpt lat="41.73456" lon="1.84129">
        <ele>240.6</ele>
        <time>2022-05-20 23:31:01</time>
      </trkpt>
      <trkpt lat="41.73458" lon="1.84133">
        <ele>240.8</ele>
        <time>2022-05-20 23:31:02</time>
      </trkpt>
      <trkpt lat="41.7346" lon="1.84138">
        <ele>241</ele>
        <time>2022-05-20 23:31:03</time>
      </trkpt>
      <trkpt lat="41.73462" lon="1.84143">
        <ele>241.2</ele>
        <time>2022-05-20 23:31:04</time>
      </trkpt>
      <trkpt lat="41.73465" lon="1.84148">
        <ele>241.4</ele>
        <time>2022-05-20 23:31:05</time>
      </trkpt>
      <trkpt lat="41.73467" lon="1.84153">
        <ele>241.6</ele>
        <time>2022-05-20 23:31:06</time>
      </trkpt>
      <trkpt lat="41.73469" lon="1.84158">
        <ele>241.8</ele>
        <time>2022-05-20 23:31:07</time>
      </trkpt>
      <trkpt lat="41.73471" lon="1.84162">
        <ele>242</ele>
        <time>2022-05-20 23:31:08</time>
      </trkpt>
      <trkpt lat="41.73474" lon="1.84167">
        <ele>242.2</ele>
        <time>2022-05-20 23:31:09</time>
      </trkpt>
      <trkpt lat="41.73476" lon="1.84172">
        <ele>242.6</ele>
        <time>2022-05-20 23:31:10</time>
      </trkpt>
      <trkpt lat="41.73479" lon="1.84176">
        <ele>242.8</ele>
        <time>2022-05-20 23:31:11</time>
      </trkpt>
      <trkpt lat="41.73481" lon="1.84181">
        <ele>243</ele>
        <time>2022-05-20 23:31:12</time>
      </trkpt>
      <trkpt lat="41.73483" lon="1.84186">
        <ele>243.2</ele>
        <time>2022-05-20 23:31:13</time>
      </trkpt>
      <trkpt lat="41.73486" lon="1.84191">
        <ele>243.4</ele>
        <time>2022-05-20 23:31:14</time>
      </trkpt>
      <trkpt lat="41.73488" lon="1.84195">
        <ele>243.6</ele>
        <time>2022-05-20 23:31:15</time>
      </trkpt>
      <trkpt lat="41.7349" lon="1.842">
        <ele>243.8</ele>
        <time>2022-05-20 23:31:16</time>
      </trkpt>
      <trkpt lat="41.73492" lon="1.84205">
        <ele>244</ele>
        <time>2022-05-20 23:31:17</time>
      </trkpt>
      <trkpt lat="41.73495" lon="1.8421">
        <ele>244.2</ele>
        <time>2022-05-20 23:31:18</time>
      </trkpt>
      <trkpt lat="41.73497" lon="1.84215">
        <ele>244.4</ele>
        <time>2022-05-20 23:31:19</time>
      </trkpt>
      <trkpt lat="41.735" lon="1.8422">
        <ele>244.6</ele>
        <time>2022-05-20 23:31:20</time>
      </trkpt>
      <trkpt lat="41.73502" lon="1.84224">
        <ele>244.8</ele>
        <time>2022-05-20 23:31:21</time>
      </trkpt>
      <trkpt lat="41.73504" lon="1.84229">
        <ele>245</ele>
        <time>2022-05-20 23:31:22</time>
      </trkpt>
      <trkpt lat="41.73506" lon="1.84234">
        <ele>245.2</ele>
        <time>2022-05-20 23:31:23</time>
      </trkpt>
      <trkpt lat="41.73508" lon="1.84238">
        <ele>245.4</ele>
        <time>2022-05-20 23:31:24</time>
      </trkpt>
      <trkpt lat="41.7351" lon="1.84243">
        <ele>245.6</ele>
        <time>2022-05-20 23:31:25</time>
      </trkpt>
      <trkpt lat="41.73513" lon="1.84247">
        <ele>245.8</ele>
        <time>2022-05-20 23:31:26</time>
      </trkpt>
      <trkpt lat="41.73515" lon="1.84252">
        <ele>246</ele>
        <time>2022-05-20 23:31:27</time>
      </trkpt>
      <trkpt lat="41.73517" lon="1.84256">
        <ele>246.2</ele>
        <time>2022-05-20 23:31:28</time>
      </trkpt>
      <trkpt lat="41.7352" lon="1.84261">
        <ele>246.4</ele>
        <time>2022-05-20 23:31:29</time>
      </trkpt>
      <trkpt lat="41.73522" lon="1.84265">
        <ele>246.6</ele>
        <time>2022-05-20 23:31:30</time>
      </trkpt>
      <trkpt lat="41.73524" lon="1.8427">
        <ele>247</ele>
        <time>2022-05-20 23:31:31</time>
      </trkpt>
      <trkpt lat="41.73526" lon="1.84274">
        <ele>247.2</ele>
        <time>2022-05-20 23:31:32</time>
      </trkpt>
      <trkpt lat="41.73529" lon="1.84279">
        <ele>247.4</ele>
        <time>2022-05-20 23:31:33</time>
      </trkpt>
      <trkpt lat="41.73531" lon="1.84283">
        <ele>247.6</ele>
        <time>2022-05-20 23:31:34</time>
      </trkpt>
      <trkpt lat="41.73533" lon="1.84287">
        <ele>247.8</ele>
        <time>2022-05-20 23:31:35</time>
      </trkpt>
      <trkpt lat="41.73536" lon="1.84291">
        <ele>248</ele>
        <time>2022-05-20 23:31:36</time>
      </trkpt>
      <trkpt lat="41.73538" lon="1.84296">
        <ele>248.2</ele>
        <time>2022-05-20 23:31:37</time>
      </trkpt>
      <trkpt lat="41.7354" lon="1.843">
        <ele>248.4</ele>
        <time>2022-05-20 23:31:38</time>
      </trkpt>
      <trkpt lat="41.73542" lon="1.84304">
        <ele>248.6</ele>
        <time>2022-05-20 23:31:39</time>
      </trkpt>
      <trkpt lat="41.73544" lon="1.84308">
        <ele>248.8</ele>
        <time>2022-05-20 23:31:40</time>
      </trkpt>
      <trkpt lat="41.73547" lon="1.84311">
        <ele>249</ele>
        <time>2022-05-20 23:31:41</time>
      </trkpt>
      <trkpt lat="41.73549" lon="1.84315">
        <ele>249.2</ele>
        <time>2022-05-20 23:31:42</time>
      </trkpt>
      <trkpt lat="41.73552" lon="1.84319">
        <ele>249.4</ele>
        <time>2022-05-20 23:31:43</time>
      </trkpt>
      <trkpt lat="41.73554" lon="1.84324">
        <ele>249.8</ele>
        <time>2022-05-20 23:31:44</time>
      </trkpt>
      <trkpt lat="41.73556" lon="1.84328">
        <ele>250</ele>
        <time>2022-05-20 23:31:45</time>
      </trkpt>
      <trkpt lat="41.73558" lon="1.84332">
        <ele>250.2</ele>
        <time>2022-05-20 23:31:46</time>
      </trkpt>
      <trkpt lat="41.7356" lon="1.84336">
        <ele>250.4</ele>
        <time>2022-05-20 23:31:47</time>
      </trkpt>
      <trkpt lat="41.73562" lon="1.8434">
        <ele>250.6</ele>
        <time>2022-05-20 23:31:48</time>
      </trkpt>
      <trkpt lat="41.73565" lon="1.84344">
        <ele>250.8</ele>
        <time>2022-05-20 23:31:49</time>
      </trkpt>
      <trkpt lat="41.73567" lon="1.84348">
        <ele>251</ele>
        <time>2022-05-20 23:31:50</time>
      </trkpt>
      <trkpt lat="41.73569" lon="1.84352">
        <ele>251.2</ele>
        <time>2022-05-20 23:31:51</time>
      </trkpt>
      <trkpt lat="41.73571" lon="1.84356">
        <ele>251.4</ele>
        <time>2022-05-20 23:31:52</time>
      </trkpt>
      <trkpt lat="41.73573" lon="1.84361">
        <ele>251.6</ele>
        <time>2022-05-20 23:31:53</time>
      </trkpt>
      <trkpt lat="41.73576" lon="1.84365">
        <ele>251.8</ele>
        <time>2022-05-20 23:31:54</time>
      </trkpt>
      <trkpt lat="41.73578" lon="1.84369">
        <ele>252</ele>
        <time>2022-05-20 23:31:55</time>
      </trkpt>
      <trkpt lat="41.7358" lon="1.84374">
        <ele>252.2</ele>
        <time>2022-05-20 23:31:56</time>
      </trkpt>
      <trkpt lat="41.73582" lon="1.84378">
        <ele>252.4</ele>
        <time>2022-05-20 23:31:57</time>
      </trkpt>
      <trkpt lat="41.73584" lon="1.84382">
        <ele>252.6</ele>
        <time>2022-05-20 23:31:58</time>
      </trkpt>
      <trkpt lat="41.73586" lon="1.84387">
        <ele>253</ele>
        <time>2022-05-20 23:31:59</time>
      </trkpt>
      <trkpt lat="41.73588" lon="1.84391">
        <ele>253.2</ele>
        <time>2022-05-20 23:32:00</time>
      </trkpt>
      <trkpt lat="41.73589" lon="1.84395">
        <ele>253.4</ele>
        <time>2022-05-20 23:32:01</time>
      </trkpt>
      <trkpt lat="41.7359" lon="1.844">
        <ele>253.6</ele>
        <time>2022-05-20 23:32:02</time>
      </trkpt>
      <trkpt lat="41.73591" lon="1.84405">
        <ele>253.8</ele>
        <time>2022-05-20 23:32:03</time>
      </trkpt>
      <trkpt lat="41.73592" lon="1.8441">
        <ele>254</ele>
        <time>2022-05-20 23:32:04</time>
      </trkpt>
      <trkpt lat="41.73594" lon="1.84415">
        <ele>254.2</ele>
        <time>2022-05-20 23:32:05</time>
      </trkpt>
      <trkpt lat="41.73594" lon="1.8442">
        <ele>254.4</ele>
        <time>2022-05-20 23:32:06</time>
      </trkpt>
      <trkpt lat="41.73595" lon="1.84425">
        <ele>254.6</ele>
        <time>2022-05-20 23:32:07</time>
      </trkpt>
      <trkpt lat="41.73595" lon="1.8443">
        <ele>254.6</ele>
        <time>2022-05-20 23:32:08</time>
      </trkpt>
      <trkpt lat="41.73596" lon="1.84435">
        <ele>254.8</ele>
        <time>2022-05-20 23:32:09</time>
      </trkpt>
      <trkpt lat="41.73596" lon="1.8444">
        <ele>255</ele>
        <time>2022-05-20 23:32:10</time>
      </trkpt>
      <trkpt lat="41.73597" lon="1.84446">
        <ele>255.2</ele>
        <time>2022-05-20 23:32:11</time>
      </trkpt>
      <trkpt lat="41.73597" lon="1.84451">
        <ele>255.4</ele>
        <time>2022-05-20 23:32:12</time>
      </trkpt>
      <trkpt lat="41.73597" lon="1.84456">
        <ele>255.6</ele>
        <time>2022-05-20 23:32:13</time>
      </trkpt>
      <trkpt lat="41.73598" lon="1.84461">
        <ele>255.8</ele>
        <time>2022-05-20 23:32:14</time>
      </trkpt>
      <trkpt lat="41.73597" lon="1.84466">
        <ele>256</ele>
        <time>2022-05-20 23:32:15</time>
      </trkpt>
      <trkpt lat="41.73597" lon="1.84471">
        <ele>256.2</ele>
        <time>2022-05-20 23:32:16</time>
      </trkpt>
      <trkpt lat="41.73597" lon="1.84477">
        <ele>256.4</ele>
        <time>2022-05-20 23:32:17</time>
      </trkpt>
      <trkpt lat="41.73597" lon="1.84482">
        <ele>256.6</ele>
        <time>2022-05-20 23:32:18</time>
      </trkpt>
      <trkpt lat="41.73597" lon="1.84487">
        <ele>256.8</ele>
        <time>2022-05-20 23:32:19</time>
      </trkpt>
      <trkpt lat="41.73597" lon="1.84493">
        <ele>256.8</ele>
        <time>2022-05-20 23:32:20</time>
      </trkpt>
      <trkpt lat="41.73597" lon="1.84498">
        <ele>257</ele>
        <time>2022-05-20 23:32:21</time>
      </trkpt>
      <trkpt lat="41.73597" lon="1.84503">
        <ele>257.2</ele>
        <time>2022-05-20 23:32:22</time>
      </trkpt>
      <trkpt lat="41.73597" lon="1.84508">
        <ele>257.4</ele>
        <time>2022-05-20 23:32:23</time>
      </trkpt>
      <trkpt lat="41.73597" lon="1.84514">
        <ele>257.6</ele>
        <time>2022-05-20 23:32:24</time>
      </trkpt>
      <trkpt lat="41.73596" lon="1.84519">
        <ele>257.8</ele>
        <time>2022-05-20 23:32:25</time>
      </trkpt>
      <trkpt lat="41.73596" lon="1.84525">
        <ele>258</ele>
        <time>2022-05-20 23:32:26</time>
      </trkpt>
      <trkpt lat="41.73596" lon="1.8453">
        <ele>258.2</ele>
        <time>2022-05-20 23:32:27</time>
      </trkpt>
      <trkpt lat="41.73596" lon="1.84536">
        <ele>258.4</ele>
        <time>2022-05-20 23:32:28</time>
      </trkpt>
      <trkpt lat="41.73595" lon="1.84541">
        <ele>258.4</ele>
        <time>2022-05-20 23:32:29</time>
      </trkpt>
      <trkpt lat="41.73595" lon="1.84547">
        <ele>258.6</ele>
        <time>2022-05-20 23:32:30</time>
      </trkpt>
      <trkpt lat="41.73595" lon="1.84553">
        <ele>258.8</ele>
        <time>2022-05-20 23:32:31</time>
      </trkpt>
      <trkpt lat="41.73595" lon="1.84558">
        <ele>259</ele>
        <time>2022-05-20 23:32:32</time>
      </trkpt>
      <trkpt lat="41.73595" lon="1.84564">
        <ele>259</ele>
        <time>2022-05-20 23:32:33</time>
      </trkpt>
      <trkpt lat="41.73595" lon="1.8457">
        <ele>259.2</ele>
        <time>2022-05-20 23:32:34</time>
      </trkpt>
      <trkpt lat="41.73595" lon="1.84575">
        <ele>259.4</ele>
        <time>2022-05-20 23:32:35</time>
      </trkpt>
      <trkpt lat="41.73595" lon="1.84581">
        <ele>259.6</ele>
        <time>2022-05-20 23:32:36</time>
      </trkpt>
      <trkpt lat="41.73595" lon="1.84587">
        <ele>259.8</ele>
        <time>2022-05-20 23:32:37</time>
      </trkpt>
      <trkpt lat="41.73594" lon="1.84592">
        <ele>260</ele>
        <time>2022-05-20 23:32:38</time>
      </trkpt>
      <trkpt lat="41.73594" lon="1.84598">
        <ele>260.2</ele>
        <time>2022-05-20 23:32:39</time>
      </trkpt>
      <trkpt lat="41.73594" lon="1.84603">
        <ele>260.4</ele>
        <time>2022-05-20 23:32:40</time>
      </trkpt>
      <trkpt lat="41.73594" lon="1.84609">
        <ele>260.6</ele>
        <time>2022-05-20 23:32:41</time>
      </trkpt>
      <trkpt lat="41.73594" lon="1.84614">
        <ele>260.8</ele>
        <time>2022-05-20 23:32:42</time>
      </trkpt>
      <trkpt lat="41.73594" lon="1.8462">
        <ele>261</ele>
        <time>2022-05-20 23:32:43</time>
      </trkpt>
      <trkpt lat="41.73594" lon="1.84625">
        <ele>261</ele>
        <time>2022-05-20 23:32:44</time>
      </trkpt>
      <trkpt lat="41.73594" lon="1.84631">
        <ele>261.4</ele>
        <time>2022-05-20 23:32:45</time>
      </trkpt>
      <trkpt lat="41.73594" lon="1.84636">
        <ele>261.4</ele>
        <time>2022-05-20 23:32:46</time>
      </trkpt>
      <trkpt lat="41.73594" lon="1.84642">
        <ele>261.6</ele>
        <time>2022-05-20 23:32:47</time>
      </trkpt>
      <trkpt lat="41.73594" lon="1.84647">
        <ele>261.8</ele>
        <time>2022-05-20 23:32:48</time>
      </trkpt>
      <trkpt lat="41.73595" lon="1.84652">
        <ele>262</ele>
        <time>2022-05-20 23:32:49</time>
      </trkpt>
      <trkpt lat="41.73595" lon="1.84658">
        <ele>262.2</ele>
        <time>2022-05-20 23:32:50</time>
      </trkpt>
      <trkpt lat="41.73596" lon="1.84663">
        <ele>262.4</ele>
        <time>2022-05-20 23:32:51</time>
      </trkpt>
      <trkpt lat="41.73597" lon="1.84668">
        <ele>262.6</ele>
        <time>2022-05-20 23:32:52</time>
      </trkpt>
      <trkpt lat="41.73598" lon="1.84673">
        <ele>262.8</ele>
        <time>2022-05-20 23:32:53</time>
      </trkpt>
      <trkpt lat="41.736" lon="1.84679">
        <ele>263.2</ele>
        <time>2022-05-20 23:32:54</time>
      </trkpt>
      <trkpt lat="41.73601" lon="1.84684">
        <ele>263.4</ele>
        <time>2022-05-20 23:32:55</time>
      </trkpt>
      <trkpt lat="41.73603" lon="1.84688">
        <ele>263.6</ele>
        <time>2022-05-20 23:32:56</time>
      </trkpt>
      <trkpt lat="41.73604" lon="1.84693">
        <ele>263.8</ele>
        <time>2022-05-20 23:32:57</time>
      </trkpt>
      <trkpt lat="41.73606" lon="1.84698">
        <ele>264</ele>
        <time>2022-05-20 23:32:58</time>
      </trkpt>
      <trkpt lat="41.73607" lon="1.84703">
        <ele>264.2</ele>
        <time>2022-05-20 23:32:59</time>
      </trkpt>
      <trkpt lat="41.73609" lon="1.84707">
        <ele>264.4</ele>
        <time>2022-05-20 23:33:00</time>
      </trkpt>
      <trkpt lat="41.73611" lon="1.84712">
        <ele>264.6</ele>
        <time>2022-05-20 23:33:01</time>
      </trkpt>
      <trkpt lat="41.73613" lon="1.84716">
        <ele>264.8</ele>
        <time>2022-05-20 23:33:02</time>
      </trkpt>
      <trkpt lat="41.73615" lon="1.84721">
        <ele>265</ele>
        <time>2022-05-20 23:33:03</time>
      </trkpt>
      <trkpt lat="41.73617" lon="1.84725">
        <ele>265.2</ele>
        <time>2022-05-20 23:33:04</time>
      </trkpt>
      <trkpt lat="41.73619" lon="1.8473">
        <ele>265.4</ele>
        <time>2022-05-20 23:33:05</time>
      </trkpt>
      <trkpt lat="41.73621" lon="1.84734">
        <ele>265.6</ele>
        <time>2022-05-20 23:33:06</time>
      </trkpt>
      <trkpt lat="41.73623" lon="1.84739">
        <ele>265.8</ele>
        <time>2022-05-20 23:33:07</time>
      </trkpt>
      <trkpt lat="41.73624" lon="1.84744">
        <ele>266</ele>
        <time>2022-05-20 23:33:08</time>
      </trkpt>
      <trkpt lat="41.73626" lon="1.84748">
        <ele>266.2</ele>
        <time>2022-05-20 23:33:09</time>
      </trkpt>
      <trkpt lat="41.73628" lon="1.84753">
        <ele>266.4</ele>
        <time>2022-05-20 23:33:10</time>
      </trkpt>
      <trkpt lat="41.7363" lon="1.84757">
        <ele>266.8</ele>
        <time>2022-05-20 23:33:11</time>
      </trkpt>
      <trkpt lat="41.73632" lon="1.84762">
        <ele>267</ele>
        <time>2022-05-20 23:33:12</time>
      </trkpt>
      <trkpt lat="41.73634" lon="1.84766">
        <ele>267</ele>
        <time>2022-05-20 23:33:13</time>
      </trkpt>
      <trkpt lat="41.73635" lon="1.84771">
        <ele>267.2</ele>
        <time>2022-05-20 23:33:14</time>
      </trkpt>
      <trkpt lat="41.73637" lon="1.84776">
        <ele>267.4</ele>
        <time>2022-05-20 23:33:15</time>
      </trkpt>
      <trkpt lat="41.73639" lon="1.84781">
        <ele>267.6</ele>
        <time>2022-05-20 23:33:16</time>
      </trkpt>
      <trkpt lat="41.7364" lon="1.84786">
        <ele>267.8</ele>
        <time>2022-05-20 23:33:17</time>
      </trkpt>
      <trkpt lat="41.73641" lon="1.84791">
        <ele>268</ele>
        <time>2022-05-20 23:33:18</time>
      </trkpt>
      <trkpt lat="41.7364" lon="1.84796">
        <ele>268</ele>
        <time>2022-05-20 23:33:19</time>
      </trkpt>
      <trkpt lat="41.7364" lon="1.84802">
        <ele>268.2</ele>
        <time>2022-05-20 23:33:20</time>
      </trkpt>
      <trkpt lat="41.7364" lon="1.84807">
        <ele>268.4</ele>
        <time>2022-05-20 23:33:21</time>
      </trkpt>
      <trkpt lat="41.7364" lon="1.84813">
        <ele>268.6</ele>
        <time>2022-05-20 23:33:22</time>
      </trkpt>
      <trkpt lat="41.7364" lon="1.84819">
        <ele>268.8</ele>
        <time>2022-05-20 23:33:23</time>
      </trkpt>
      <trkpt lat="41.73642" lon="1.84824">
        <ele>269</ele>
        <time>2022-05-20 23:33:24</time>
      </trkpt>
      <trkpt lat="41.73644" lon="1.84831">
        <ele>269</ele>
        <time>2022-05-20 23:33:25</time>
      </trkpt>
      <trkpt lat="41.73646" lon="1.84837">
        <ele>269</ele>
        <time>2022-05-20 23:33:26</time>
      </trkpt>
      <trkpt lat="41.73648" lon="1.84844">
        <ele>269</ele>
        <time>2022-05-20 23:33:27</time>
      </trkpt>
      <trkpt lat="41.73651" lon="1.84851">
        <ele>269</ele>
        <time>2022-05-20 23:33:28</time>
      </trkpt>
      <trkpt lat="41.73653" lon="1.84858">
        <ele>269</ele>
        <time>2022-05-20 23:33:29</time>
      </trkpt>
      <trkpt lat="41.73655" lon="1.84866">
        <ele>269</ele>
        <time>2022-05-20 23:33:30</time>
      </trkpt>
      <trkpt lat="41.73657" lon="1.84873">
        <ele>269</ele>
        <time>2022-05-20 23:33:31</time>
      </trkpt>
      <trkpt lat="41.73659" lon="1.84882">
        <ele>269</ele>
        <time>2022-05-20 23:33:32</time>
      </trkpt>
      <trkpt lat="41.73661" lon="1.8489">
        <ele>268.8</ele>
        <time>2022-05-20 23:33:33</time>
      </trkpt>
      <trkpt lat="41.73663" lon="1.84898">
        <ele>268.6</ele>
        <time>2022-05-20 23:33:34</time>
      </trkpt>
      <trkpt lat="41.73666" lon="1.84907">
        <ele>268.4</ele>
        <time>2022-05-20 23:33:35</time>
      </trkpt>
      <trkpt lat="41.73669" lon="1.84917">
        <ele>268</ele>
        <time>2022-05-20 23:33:36</time>
      </trkpt>
      <trkpt lat="41.73673" lon="1.84926">
        <ele>267.8</ele>
        <time>2022-05-20 23:33:37</time>
      </trkpt>
      <trkpt lat="41.73676" lon="1.84936">
        <ele>267.4</ele>
        <time>2022-05-20 23:33:38</time>
      </trkpt>
      <trkpt lat="41.73679" lon="1.84945">
        <ele>267.2</ele>
        <time>2022-05-20 23:33:39</time>
      </trkpt>
      <trkpt lat="41.73683" lon="1.84954">
        <ele>266.6</ele>
        <time>2022-05-20 23:33:40</time>
      </trkpt>
      <trkpt lat="41.73687" lon="1.84963">
        <ele>266.2</ele>
        <time>2022-05-20 23:33:41</time>
      </trkpt>
      <trkpt lat="41.73692" lon="1.84973">
        <ele>265.8</ele>
        <time>2022-05-20 23:33:42</time>
      </trkpt>
      <trkpt lat="41.73698" lon="1.84982">
        <ele>265.4</ele>
        <time>2022-05-20 23:33:43</time>
      </trkpt>
      <trkpt lat="41.73705" lon="1.84991">
        <ele>265</ele>
        <time>2022-05-20 23:33:44</time>
      </trkpt>
      <trkpt lat="41.73711" lon="1.84999">
        <ele>264.8</ele>
        <time>2022-05-20 23:33:45</time>
      </trkpt>
      <trkpt lat="41.73718" lon="1.85007">
        <ele>264.4</ele>
        <time>2022-05-20 23:33:46</time>
      </trkpt>
      <trkpt lat="41.73726" lon="1.85014">
        <ele>264.2</ele>
        <time>2022-05-20 23:33:47</time>
      </trkpt>
      <trkpt lat="41.73733" lon="1.85021">
        <ele>264</ele>
        <time>2022-05-20 23:33:48</time>
      </trkpt>
      <trkpt lat="41.73741" lon="1.85027">
        <ele>263.8</ele>
        <time>2022-05-20 23:33:49</time>
      </trkpt>
      <trkpt lat="41.73748" lon="1.85032">
        <ele>263.6</ele>
        <time>2022-05-20 23:33:50</time>
      </trkpt>
      <trkpt lat="41.73756" lon="1.85036">
        <ele>263.6</ele>
        <time>2022-05-20 23:33:51</time>
      </trkpt>
      <trkpt lat="41.73764" lon="1.8504">
        <ele>263.6</ele>
        <time>2022-05-20 23:33:52</time>
      </trkpt>
      <trkpt lat="41.73772" lon="1.85043">
        <ele>263.6</ele>
        <time>2022-05-20 23:33:53</time>
      </trkpt>
      <trkpt lat="41.7378" lon="1.85047">
        <ele>263.6</ele>
        <time>2022-05-20 23:33:54</time>
      </trkpt>
      <trkpt lat="41.73787" lon="1.8505">
        <ele>263.8</ele>
        <time>2022-05-20 23:33:55</time>
      </trkpt>
      <trkpt lat="41.73795" lon="1.85052">
        <ele>263.8</ele>
        <time>2022-05-20 23:33:56</time>
      </trkpt>
      <trkpt lat="41.73802" lon="1.85053">
        <ele>264</ele>
        <time>2022-05-20 23:33:57</time>
      </trkpt>
      <trkpt lat="41.73809" lon="1.85054">
        <ele>264.4</ele>
        <time>2022-05-20 23:33:58</time>
      </trkpt>
      <trkpt lat="41.73817" lon="1.85054">
        <ele>264.6</ele>
        <time>2022-05-20 23:33:59</time>
      </trkpt>
      <trkpt lat="41.73824" lon="1.85054">
        <ele>264.8</ele>
        <time>2022-05-20 23:34:00</time>
      </trkpt>
      <trkpt lat="41.7383" lon="1.85053">
        <ele>265</ele>
        <time>2022-05-20 23:34:01</time>
      </trkpt>
      <trkpt lat="41.73837" lon="1.85052">
        <ele>265.2</ele>
        <time>2022-05-20 23:34:02</time>
      </trkpt>
      <trkpt lat="41.73844" lon="1.85051">
        <ele>265.4</ele>
        <time>2022-05-20 23:34:03</time>
      </trkpt>
      <trkpt lat="41.7385" lon="1.85049">
        <ele>265.6</ele>
        <time>2022-05-20 23:34:04</time>
      </trkpt>
      <trkpt lat="41.73857" lon="1.85047">
        <ele>265.8</ele>
        <time>2022-05-20 23:34:05</time>
      </trkpt>
      <trkpt lat="41.73863" lon="1.85044">
        <ele>266</ele>
        <time>2022-05-20 23:34:06</time>
      </trkpt>
      <trkpt lat="41.73869" lon="1.85042">
        <ele>266.4</ele>
        <time>2022-05-20 23:34:07</time>
      </trkpt>
      <trkpt lat="41.73875" lon="1.85039">
        <ele>266.4</ele>
        <time>2022-05-20 23:34:08</time>
      </trkpt>
      <trkpt lat="41.7388" lon="1.85036">
        <ele>266.6</ele>
        <time>2022-05-20 23:34:09</time>
      </trkpt>
      <trkpt lat="41.73886" lon="1.85033">
        <ele>266.8</ele>
        <time>2022-05-20 23:34:10</time>
      </trkpt>
      <trkpt lat="41.73892" lon="1.85029">
        <ele>267</ele>
        <time>2022-05-20 23:34:11</time>
      </trkpt>
      <trkpt lat="41.73898" lon="1.85026">
        <ele>267.2</ele>
        <time>2022-05-20 23:34:12</time>
      </trkpt>
      <trkpt lat="41.73903" lon="1.85023">
        <ele>267.4</ele>
        <time>2022-05-20 23:34:13</time>
      </trkpt>
      <trkpt lat="41.73909" lon="1.8502">
        <ele>267.6</ele>
        <time>2022-05-20 23:34:14</time>
      </trkpt>
      <trkpt lat="41.73915" lon="1.85018">
        <ele>267.8</ele>
        <time>2022-05-20 23:34:15</time>
      </trkpt>
      <trkpt lat="41.73922" lon="1.85016">
        <ele>268</ele>
        <time>2022-05-20 23:34:16</time>
      </trkpt>
      <trkpt lat="41.73928" lon="1.85016">
        <ele>268</ele>
        <time>2022-05-20 23:34:17</time>
      </trkpt>
      <trkpt lat="41.73934" lon="1.85016">
        <ele>268.2</ele>
        <time>2022-05-20 23:34:18</time>
      </trkpt>
      <trkpt lat="41.7394" lon="1.85016">
        <ele>268.4</ele>
        <time>2022-05-20 23:34:19</time>
      </trkpt>
      <trkpt lat="41.73946" lon="1.85018">
        <ele>268.6</ele>
        <time>2022-05-20 23:34:20</time>
      </trkpt>
      <trkpt lat="41.73951" lon="1.85021">
        <ele>268.8</ele>
        <time>2022-05-20 23:34:21</time>
      </trkpt>
      <trkpt lat="41.73957" lon="1.85024">
        <ele>269</ele>
        <time>2022-05-20 23:34:22</time>
      </trkpt>
      <trkpt lat="41.73961" lon="1.85028">
        <ele>269.2</ele>
        <time>2022-05-20 23:34:23</time>
      </trkpt>
      <trkpt lat="41.73966" lon="1.85033">
        <ele>269.4</ele>
        <time>2022-05-20 23:34:24</time>
      </trkpt>
      <trkpt lat="41.7397" lon="1.85038">
        <ele>269.4</ele>
        <time>2022-05-20 23:34:25</time>
      </trkpt>
      <trkpt lat="41.73974" lon="1.85043">
        <ele>269.6</ele>
        <time>2022-05-20 23:34:26</time>
      </trkpt>
      <trkpt lat="41.73978" lon="1.85049">
        <ele>269.6</ele>
        <time>2022-05-20 23:34:27</time>
      </trkpt>
      <trkpt lat="41.73982" lon="1.85055">
        <ele>269.6</ele>
        <time>2022-05-20 23:34:28</time>
      </trkpt>
      <trkpt lat="41.73986" lon="1.85061">
        <ele>269.8</ele>
        <time>2022-05-20 23:34:29</time>
      </trkpt>
      <trkpt lat="41.73991" lon="1.85068">
        <ele>269.8</ele>
        <time>2022-05-20 23:34:30</time>
      </trkpt>
      <trkpt lat="41.73995" lon="1.85074">
        <ele>269.8</ele>
        <time>2022-05-20 23:34:31</time>
      </trkpt>
      <trkpt lat="41.74" lon="1.8508">
        <ele>270</ele>
        <time>2022-05-20 23:34:32</time>
      </trkpt>
      <trkpt lat="41.74004" lon="1.85087">
        <ele>270</ele>
        <time>2022-05-20 23:34:33</time>
      </trkpt>
      <trkpt lat="41.74009" lon="1.85093">
        <ele>270</ele>
        <time>2022-05-20 23:34:34</time>
      </trkpt>
      <trkpt lat="41.74013" lon="1.851">
        <ele>270</ele>
        <time>2022-05-20 23:34:35</time>
      </trkpt>
      <trkpt lat="41.74018" lon="1.85107">
        <ele>270</ele>
        <time>2022-05-20 23:34:36</time>
      </trkpt>
      <trkpt lat="41.74022" lon="1.85113">
        <ele>269.8</ele>
        <time>2022-05-20 23:34:37</time>
      </trkpt>
      <trkpt lat="41.74027" lon="1.85119">
        <ele>269.8</ele>
        <time>2022-05-20 23:34:38</time>
      </trkpt>
      <trkpt lat="41.74031" lon="1.85126">
        <ele>269.8</ele>
        <time>2022-05-20 23:34:39</time>
      </trkpt>
      <trkpt lat="41.74036" lon="1.85133">
        <ele>269.6</ele>
        <time>2022-05-20 23:34:40</time>
      </trkpt>
      <trkpt lat="41.7404" lon="1.8514">
        <ele>269.6</ele>
        <time>2022-05-20 23:34:41</time>
      </trkpt>
      <trkpt lat="41.74044" lon="1.85148">
        <ele>269.6</ele>
        <time>2022-05-20 23:34:42</time>
      </trkpt>
      <trkpt lat="41.74049" lon="1.85155">
        <ele>269.6</ele>
        <time>2022-05-20 23:34:43</time>
      </trkpt>
      <trkpt lat="41.74053" lon="1.85162">
        <ele>269.4</ele>
        <time>2022-05-20 23:34:44</time>
      </trkpt>
      <trkpt lat="41.74058" lon="1.85169">
        <ele>269.4</ele>
        <time>2022-05-20 23:34:45</time>
      </trkpt>
      <trkpt lat="41.74063" lon="1.85177">
        <ele>269.2</ele>
        <time>2022-05-20 23:34:46</time>
      </trkpt>
      <trkpt lat="41.74068" lon="1.85185">
        <ele>269</ele>
        <time>2022-05-20 23:34:47</time>
      </trkpt>
      <trkpt lat="41.74073" lon="1.85193">
        <ele>269</ele>
        <time>2022-05-20 23:34:48</time>
      </trkpt>
      <trkpt lat="41.74078" lon="1.85201">
        <ele>268.8</ele>
        <time>2022-05-20 23:34:49</time>
      </trkpt>
      <trkpt lat="41.74083" lon="1.85209">
        <ele>268.8</ele>
        <time>2022-05-20 23:34:50</time>
      </trkpt>
      <trkpt lat="41.74088" lon="1.85217">
        <ele>268.6</ele>
        <time>2022-05-20 23:34:51</time>
      </trkpt>
      <trkpt lat="41.74094" lon="1.85225">
        <ele>268.6</ele>
        <time>2022-05-20 23:34:52</time>
      </trkpt>
      <trkpt lat="41.741" lon="1.85232">
        <ele>268.4</ele>
        <time>2022-05-20 23:34:53</time>
      </trkpt>
      <trkpt lat="41.74105" lon="1.85241">
        <ele>268.2</ele>
        <time>2022-05-20 23:34:54</time>
      </trkpt>
      <trkpt lat="41.74112" lon="1.85249">
        <ele>268.2</ele>
        <time>2022-05-20 23:34:55</time>
      </trkpt>
      <trkpt lat="41.74117" lon="1.85258">
        <ele>268</ele>
        <time>2022-05-20 23:34:56</time>
      </trkpt>
      <trkpt lat="41.74123" lon="1.85267">
        <ele>267.8</ele>
        <time>2022-05-20 23:34:57</time>
      </trkpt>
      <trkpt lat="41.74128" lon="1.85276">
        <ele>267.8</ele>
        <time>2022-05-20 23:34:58</time>
      </trkpt>
      <trkpt lat="41.74133" lon="1.85285">
        <ele>267.6</ele>
        <time>2022-05-20 23:34:59</time>
      </trkpt>
      <trkpt lat="41.74139" lon="1.85293">
        <ele>267.6</ele>
        <time>2022-05-20 23:35:00</time>
      </trkpt>
      <trkpt lat="41.74145" lon="1.85301">
        <ele>267.4</ele>
        <time>2022-05-20 23:35:01</time>
      </trkpt>
      <trkpt lat="41.7415" lon="1.85309">
        <ele>267.4</ele>
        <time>2022-05-20 23:35:02</time>
      </trkpt>
      <trkpt lat="41.74156" lon="1.85318">
        <ele>267.2</ele>
        <time>2022-05-20 23:35:03</time>
      </trkpt>
      <trkpt lat="41.74162" lon="1.85326">
        <ele>267.2</ele>
        <time>2022-05-20 23:35:04</time>
      </trkpt>
      <trkpt lat="41.74168" lon="1.85334">
        <ele>267.2</ele>
        <time>2022-05-20 23:35:05</time>
      </trkpt>
      <trkpt lat="41.74173" lon="1.85342">
        <ele>267</ele>
        <time>2022-05-20 23:35:06</time>
      </trkpt>
      <trkpt lat="41.74178" lon="1.85349">
        <ele>266.8</ele>
        <time>2022-05-20 23:35:07</time>
      </trkpt>
      <trkpt lat="41.74184" lon="1.85358">
        <ele>266.8</ele>
        <time>2022-05-20 23:35:08</time>
      </trkpt>
      <trkpt lat="41.74189" lon="1.85366">
        <ele>266.6</ele>
        <time>2022-05-20 23:35:09</time>
      </trkpt>
      <trkpt lat="41.74195" lon="1.85374">
        <ele>266.4</ele>
        <time>2022-05-20 23:35:10</time>
      </trkpt>
      <trkpt lat="41.742" lon="1.85382">
        <ele>266.2</ele>
        <time>2022-05-20 23:35:11</time>
      </trkpt>
      <trkpt lat="41.74206" lon="1.85391">
        <ele>266.2</ele>
        <time>2022-05-20 23:35:12</time>
      </trkpt>
      <trkpt lat="41.74212" lon="1.85399">
        <ele>266</ele>
        <time>2022-05-20 23:35:13</time>
      </trkpt>
      <trkpt lat="41.74217" lon="1.85407">
        <ele>265.8</ele>
        <time>2022-05-20 23:35:14</time>
      </trkpt>
      <trkpt lat="41.74223" lon="1.85416">
        <ele>265.6</ele>
        <time>2022-05-20 23:35:15</time>
      </trkpt>
      <trkpt lat="41.74228" lon="1.85425">
        <ele>265.4</ele>
        <time>2022-05-20 23:35:16</time>
      </trkpt>
      <trkpt lat="41.74234" lon="1.85433">
        <ele>265.4</ele>
        <time>2022-05-20 23:35:17</time>
      </trkpt>
      <trkpt lat="41.74239" lon="1.85442">
        <ele>265.2</ele>
        <time>2022-05-20 23:35:18</time>
      </trkpt>
      <trkpt lat="41.74245" lon="1.8545">
        <ele>265</ele>
        <time>2022-05-20 23:35:19</time>
      </trkpt>
      <trkpt lat="41.74251" lon="1.85459">
        <ele>264.8</ele>
        <time>2022-05-20 23:35:20</time>
      </trkpt>
      <trkpt lat="41.74257" lon="1.85467">
        <ele>264.6</ele>
        <time>2022-05-20 23:35:21</time>
      </trkpt>
      <trkpt lat="41.74262" lon="1.85476">
        <ele>264.4</ele>
        <time>2022-05-20 23:35:22</time>
      </trkpt>
      <trkpt lat="41.74268" lon="1.85484">
        <ele>264.2</ele>
        <time>2022-05-20 23:35:23</time>
      </trkpt>
      <trkpt lat="41.74274" lon="1.85493">
        <ele>264</ele>
        <time>2022-05-20 23:35:24</time>
      </trkpt>
      <trkpt lat="41.7428" lon="1.85501">
        <ele>263.6</ele>
        <time>2022-05-20 23:35:25</time>
      </trkpt>
      <trkpt lat="41.74286" lon="1.8551">
        <ele>263.4</ele>
        <time>2022-05-20 23:35:26</time>
      </trkpt>
      <trkpt lat="41.74292" lon="1.85519">
        <ele>263.2</ele>
        <time>2022-05-20 23:35:27</time>
      </trkpt>
      <trkpt lat="41.74298" lon="1.85528">
        <ele>263</ele>
        <time>2022-05-20 23:35:28</time>
      </trkpt>
      <trkpt lat="41.74305" lon="1.85538">
        <ele>262.8</ele>
        <time>2022-05-20 23:35:29</time>
      </trkpt>
      <trkpt lat="41.74312" lon="1.85546">
        <ele>262.6</ele>
        <time>2022-05-20 23:35:30</time>
      </trkpt>
      <trkpt lat="41.74318" lon="1.85555">
        <ele>262.4</ele>
        <time>2022-05-20 23:35:31</time>
      </trkpt>
      <trkpt lat="41.74324" lon="1.85563">
        <ele>262</ele>
        <time>2022-05-20 23:35:32</time>
      </trkpt>
      <trkpt lat="41.7433" lon="1.85572">
        <ele>261.8</ele>
        <time>2022-05-20 23:35:33</time>
      </trkpt>
      <trkpt lat="41.74337" lon="1.85581">
        <ele>261.6</ele>
        <time>2022-05-20 23:35:34</time>
      </trkpt>
      <trkpt lat="41.74344" lon="1.8559">
        <ele>261.2</ele>
        <time>2022-05-20 23:35:35</time>
      </trkpt>
      <trkpt lat="41.74351" lon="1.85599">
        <ele>261</ele>
        <time>2022-05-20 23:35:36</time>
      </trkpt>
      <trkpt lat="41.74358" lon="1.85608">
        <ele>260.6</ele>
        <time>2022-05-20 23:35:37</time>
      </trkpt>
      <trkpt lat="41.74365" lon="1.85616">
        <ele>260.4</ele>
        <time>2022-05-20 23:35:38</time>
      </trkpt>
      <trkpt lat="41.74372" lon="1.85625">
        <ele>260</ele>
        <time>2022-05-20 23:35:39</time>
      </trkpt>
      <trkpt lat="41.74378" lon="1.85635">
        <ele>259.6</ele>
        <time>2022-05-20 23:35:40</time>
      </trkpt>
      <trkpt lat="41.74385" lon="1.85644">
        <ele>259.2</ele>
        <time>2022-05-20 23:35:41</time>
      </trkpt>
      <trkpt lat="41.74392" lon="1.85654">
        <ele>258.8</ele>
        <time>2022-05-20 23:35:42</time>
      </trkpt>
      <trkpt lat="41.74398" lon="1.85664">
        <ele>258.4</ele>
        <time>2022-05-20 23:35:43</time>
      </trkpt>
      <trkpt lat="41.74404" lon="1.85674">
        <ele>258</ele>
        <time>2022-05-20 23:35:44</time>
      </trkpt>
      <trkpt lat="41.74411" lon="1.85684">
        <ele>257.4</ele>
        <time>2022-05-20 23:35:45</time>
      </trkpt>
      <trkpt lat="41.74419" lon="1.85694">
        <ele>257</ele>
        <time>2022-05-20 23:35:46</time>
      </trkpt>
      <trkpt lat="41.74426" lon="1.85706">
        <ele>256.6</ele>
        <time>2022-05-20 23:35:47</time>
      </trkpt>
      <trkpt lat="41.74433" lon="1.85717">
        <ele>256.2</ele>
        <time>2022-05-20 23:35:48</time>
      </trkpt>
      <trkpt lat="41.7444" lon="1.85727">
        <ele>255.8</ele>
        <time>2022-05-20 23:35:49</time>
      </trkpt>
      <trkpt lat="41.74447" lon="1.85737">
        <ele>255.2</ele>
        <time>2022-05-20 23:35:50</time>
      </trkpt>
      <trkpt lat="41.74455" lon="1.85748">
        <ele>254.8</ele>
        <time>2022-05-20 23:35:51</time>
      </trkpt>
      <trkpt lat="41.74462" lon="1.85758">
        <ele>254.4</ele>
        <time>2022-05-20 23:35:52</time>
      </trkpt>
      <trkpt lat="41.74469" lon="1.85769">
        <ele>253.8</ele>
        <time>2022-05-20 23:35:53</time>
      </trkpt>
      <trkpt lat="41.74476" lon="1.8578">
        <ele>253.4</ele>
        <time>2022-05-20 23:35:54</time>
      </trkpt>
      <trkpt lat="41.74483" lon="1.85791">
        <ele>252.8</ele>
        <time>2022-05-20 23:35:55</time>
      </trkpt>
      <trkpt lat="41.7449" lon="1.85802">
        <ele>252.4</ele>
        <time>2022-05-20 23:35:56</time>
      </trkpt>
      <trkpt lat="41.74496" lon="1.85812">
        <ele>252</ele>
        <time>2022-05-20 23:35:57</time>
      </trkpt>
      <trkpt lat="41.74503" lon="1.85822">
        <ele>251.8</ele>
        <time>2022-05-20 23:35:58</time>
      </trkpt>
      <trkpt lat="41.74508" lon="1.85834">
        <ele>251.4</ele>
        <time>2022-05-20 23:35:59</time>
      </trkpt>
      <trkpt lat="41.74513" lon="1.85846">
        <ele>251</ele>
        <time>2022-05-20 23:36:00</time>
      </trkpt>
      <trkpt lat="41.74517" lon="1.85858">
        <ele>250.6</ele>
        <time>2022-05-20 23:36:01</time>
      </trkpt>
      <trkpt lat="41.7452" lon="1.8587">
        <ele>250.2</ele>
        <time>2022-05-20 23:36:02</time>
      </trkpt>
      <trkpt lat="41.74525" lon="1.85882">
        <ele>249.6</ele>
        <time>2022-05-20 23:36:03</time>
      </trkpt>
      <trkpt lat="41.74529" lon="1.85895">
        <ele>249.2</ele>
        <time>2022-05-20 23:36:04</time>
      </trkpt>
      <trkpt lat="41.74534" lon="1.85907">
        <ele>248.8</ele>
        <time>2022-05-20 23:36:05</time>
      </trkpt>
      <trkpt lat="41.7454" lon="1.85921">
        <ele>248.4</ele>
        <time>2022-05-20 23:36:06</time>
      </trkpt>
      <trkpt lat="41.74543" lon="1.85935">
        <ele>247.8</ele>
        <time>2022-05-20 23:36:07</time>
      </trkpt>
      <trkpt lat="41.74548" lon="1.85948">
        <ele>247.4</ele>
        <time>2022-05-20 23:36:08</time>
      </trkpt>
      <trkpt lat="41.74553" lon="1.85961">
        <ele>246.8</ele>
        <time>2022-05-20 23:36:09</time>
      </trkpt>
      <trkpt lat="41.74557" lon="1.85975">
        <ele>246.4</ele>
        <time>2022-05-20 23:36:10</time>
      </trkpt>
      <trkpt lat="41.74562" lon="1.85988">
        <ele>245.8</ele>
        <time>2022-05-20 23:36:11</time>
      </trkpt>
      <trkpt lat="41.74567" lon="1.86001">
        <ele>245.4</ele>
        <time>2022-05-20 23:36:12</time>
      </trkpt>
      <trkpt lat="41.74572" lon="1.86014">
        <ele>245</ele>
        <time>2022-05-20 23:36:13</time>
      </trkpt>
      <trkpt lat="41.74577" lon="1.86027">
        <ele>244.8</ele>
        <time>2022-05-20 23:36:14</time>
      </trkpt>
      <trkpt lat="41.74582" lon="1.8604">
        <ele>244.6</ele>
        <time>2022-05-20 23:36:15</time>
      </trkpt>
      <trkpt lat="41.74586" lon="1.86053">
        <ele>244.4</ele>
        <time>2022-05-20 23:36:16</time>
      </trkpt>
      <trkpt lat="41.74591" lon="1.86065">
        <ele>244.2</ele>
        <time>2022-05-20 23:36:17</time>
      </trkpt>
      <trkpt lat="41.74595" lon="1.86078">
        <ele>244</ele>
        <time>2022-05-20 23:36:18</time>
      </trkpt>
      <trkpt lat="41.74599" lon="1.8609">
        <ele>244</ele>
        <time>2022-05-20 23:36:19</time>
      </trkpt>
      <trkpt lat="41.74603" lon="1.86102">
        <ele>244</ele>
        <time>2022-05-20 23:36:20</time>
      </trkpt>
      <trkpt lat="41.74607" lon="1.86113">
        <ele>244</ele>
        <time>2022-05-20 23:36:21</time>
      </trkpt>
      <trkpt lat="41.7461" lon="1.86124">
        <ele>244</ele>
        <time>2022-05-20 23:36:22</time>
      </trkpt>
      <trkpt lat="41.74614" lon="1.86135">
        <ele>244.2</ele>
        <time>2022-05-20 23:36:23</time>
      </trkpt>
      <trkpt lat="41.74618" lon="1.86147">
        <ele>244.2</ele>
        <time>2022-05-20 23:36:24</time>
      </trkpt>
      <trkpt lat="41.74622" lon="1.86158">
        <ele>244.4</ele>
        <time>2022-05-20 23:36:25</time>
      </trkpt>
      <trkpt lat="41.74627" lon="1.86168">
        <ele>244.4</ele>
        <time>2022-05-20 23:36:26</time>
      </trkpt>
      <trkpt lat="41.7463" lon="1.86178">
        <ele>244.4</ele>
        <time>2022-05-20 23:36:27</time>
      </trkpt>
      <trkpt lat="41.74634" lon="1.86189">
        <ele>244.6</ele>
        <time>2022-05-20 23:36:28</time>
      </trkpt>
      <trkpt lat="41.74637" lon="1.86199">
        <ele>244.6</ele>
        <time>2022-05-20 23:36:29</time>
      </trkpt>
      <trkpt lat="41.74641" lon="1.86209">
        <ele>244.6</ele>
        <time>2022-05-20 23:36:30</time>
      </trkpt>
      <trkpt lat="41.74645" lon="1.86219">
        <ele>244.6</ele>
        <time>2022-05-20 23:36:31</time>
      </trkpt>
      <trkpt lat="41.74648" lon="1.86229">
        <ele>244.8</ele>
        <time>2022-05-20 23:36:32</time>
      </trkpt>
      <trkpt lat="41.74652" lon="1.86238">
        <ele>244.8</ele>
        <time>2022-05-20 23:36:33</time>
      </trkpt>
      <trkpt lat="41.74656" lon="1.86248">
        <ele>245</ele>
        <time>2022-05-20 23:36:34</time>
      </trkpt>
      <trkpt lat="41.74659" lon="1.86257">
        <ele>245</ele>
        <time>2022-05-20 23:36:35</time>
      </trkpt>
      <trkpt lat="41.74662" lon="1.86266">
        <ele>245.2</ele>
        <time>2022-05-20 23:36:36</time>
      </trkpt>
      <trkpt lat="41.74665" lon="1.86276">
        <ele>245.2</ele>
        <time>2022-05-20 23:36:37</time>
      </trkpt>
      <trkpt lat="41.74669" lon="1.86285">
        <ele>245.4</ele>
        <time>2022-05-20 23:36:38</time>
      </trkpt>
      <trkpt lat="41.74672" lon="1.86294">
        <ele>245.4</ele>
        <time>2022-05-20 23:36:39</time>
      </trkpt>
      <trkpt lat="41.74675" lon="1.86303">
        <ele>245.6</ele>
        <time>2022-05-20 23:36:40</time>
      </trkpt>
      <trkpt lat="41.74678" lon="1.86312">
        <ele>245.6</ele>
        <time>2022-05-20 23:36:41</time>
      </trkpt>
      <trkpt lat="41.74681" lon="1.86321">
        <ele>245.8</ele>
        <time>2022-05-20 23:36:42</time>
      </trkpt>
      <trkpt lat="41.74685" lon="1.86329">
        <ele>245.8</ele>
        <time>2022-05-20 23:36:43</time>
      </trkpt>
      <trkpt lat="41.74687" lon="1.86338">
        <ele>245.8</ele>
        <time>2022-05-20 23:36:44</time>
      </trkpt>
      <trkpt lat="41.7469" lon="1.86347">
        <ele>246</ele>
        <time>2022-05-20 23:36:45</time>
      </trkpt>
      <trkpt lat="41.74693" lon="1.86355">
        <ele>246</ele>
        <time>2022-05-20 23:36:46</time>
      </trkpt>
      <trkpt lat="41.74696" lon="1.86364">
        <ele>246</ele>
        <time>2022-05-20 23:36:47</time>
      </trkpt>
      <trkpt lat="41.74699" lon="1.86372">
        <ele>246</ele>
        <time>2022-05-20 23:36:48</time>
      </trkpt>
      <trkpt lat="41.74703" lon="1.86381">
        <ele>246</ele>
        <time>2022-05-20 23:36:49</time>
      </trkpt>
      <trkpt lat="41.74706" lon="1.8639">
        <ele>246</ele>
        <time>2022-05-20 23:36:50</time>
      </trkpt>
      <trkpt lat="41.74709" lon="1.86398">
        <ele>246</ele>
        <time>2022-05-20 23:36:51</time>
      </trkpt>
      <trkpt lat="41.74712" lon="1.86407">
        <ele>245.8</ele>
        <time>2022-05-20 23:36:52</time>
      </trkpt>
      <trkpt lat="41.74716" lon="1.86417">
        <ele>245.8</ele>
        <time>2022-05-20 23:36:53</time>
      </trkpt>
      <trkpt lat="41.74719" lon="1.86426">
        <ele>245.6</ele>
        <time>2022-05-20 23:36:54</time>
      </trkpt>
      <trkpt lat="41.74723" lon="1.86435">
        <ele>245.4</ele>
        <time>2022-05-20 23:36:55</time>
      </trkpt>
      <trkpt lat="41.74726" lon="1.86445">
        <ele>245.2</ele>
        <time>2022-05-20 23:36:56</time>
      </trkpt>
      <trkpt lat="41.7473" lon="1.86455">
        <ele>244.8</ele>
        <time>2022-05-20 23:36:57</time>
      </trkpt>
      <trkpt lat="41.74733" lon="1.86465">
        <ele>244.6</ele>
        <time>2022-05-20 23:36:58</time>
      </trkpt>
      <trkpt lat="41.74737" lon="1.86476">
        <ele>244.4</ele>
        <time>2022-05-20 23:36:59</time>
      </trkpt>
      <trkpt lat="41.74741" lon="1.86486">
        <ele>244</ele>
        <time>2022-05-20 23:37:00</time>
      </trkpt>
      <trkpt lat="41.74745" lon="1.86497">
        <ele>243.8</ele>
        <time>2022-05-20 23:37:01</time>
      </trkpt>
      <trkpt lat="41.74749" lon="1.86507">
        <ele>243.6</ele>
        <time>2022-05-20 23:37:02</time>
      </trkpt>
      <trkpt lat="41.74753" lon="1.86518">
        <ele>243.2</ele>
        <time>2022-05-20 23:37:03</time>
      </trkpt>
      <trkpt lat="41.74757" lon="1.86529">
        <ele>242.8</ele>
        <time>2022-05-20 23:37:04</time>
      </trkpt>
      <trkpt lat="41.74762" lon="1.8654">
        <ele>242.6</ele>
        <time>2022-05-20 23:37:05</time>
      </trkpt>
      <trkpt lat="41.74766" lon="1.86552">
        <ele>242.4</ele>
        <time>2022-05-20 23:37:06</time>
      </trkpt>
      <trkpt lat="41.7477" lon="1.86564">
        <ele>242</ele>
        <time>2022-05-20 23:37:07</time>
      </trkpt>
      <trkpt lat="41.74774" lon="1.86575">
        <ele>241.6</ele>
        <time>2022-05-20 23:37:08</time>
      </trkpt>
      <trkpt lat="41.74778" lon="1.86586">
        <ele>241.2</ele>
        <time>2022-05-20 23:37:09</time>
      </trkpt>
      <trkpt lat="41.74781" lon="1.86596">
        <ele>240.8</ele>
        <time>2022-05-20 23:37:10</time>
      </trkpt>
      <trkpt lat="41.74785" lon="1.86607">
        <ele>240.6</ele>
        <time>2022-05-20 23:37:11</time>
      </trkpt>
      <trkpt lat="41.74789" lon="1.86618">
        <ele>240.4</ele>
        <time>2022-05-20 23:37:12</time>
      </trkpt>
      <trkpt lat="41.74794" lon="1.86629">
        <ele>240.2</ele>
        <time>2022-05-20 23:37:13</time>
      </trkpt>
      <trkpt lat="41.74798" lon="1.8664">
        <ele>239.8</ele>
        <time>2022-05-20 23:37:14</time>
      </trkpt>
      <trkpt lat="41.74802" lon="1.86651">
        <ele>239.6</ele>
        <time>2022-05-20 23:37:15</time>
      </trkpt>
      <trkpt lat="41.74806" lon="1.86662">
        <ele>239.4</ele>
        <time>2022-05-20 23:37:16</time>
      </trkpt>
      <trkpt lat="41.7481" lon="1.86674">
        <ele>239</ele>
        <time>2022-05-20 23:37:17</time>
      </trkpt>
      <trkpt lat="41.74814" lon="1.86685">
        <ele>238.8</ele>
        <time>2022-05-20 23:37:18</time>
      </trkpt>
      <trkpt lat="41.74818" lon="1.86697">
        <ele>238.6</ele>
        <time>2022-05-20 23:37:19</time>
      </trkpt>
      <trkpt lat="41.74822" lon="1.86708">
        <ele>238.2</ele>
        <time>2022-05-20 23:37:20</time>
      </trkpt>
      <trkpt lat="41.74826" lon="1.86719">
        <ele>238</ele>
        <time>2022-05-20 23:37:21</time>
      </trkpt>
      <trkpt lat="41.7483" lon="1.8673">
        <ele>237.6</ele>
        <time>2022-05-20 23:37:22</time>
      </trkpt>
      <trkpt lat="41.74833" lon="1.86741">
        <ele>237.4</ele>
        <time>2022-05-20 23:37:23</time>
      </trkpt>
      <trkpt lat="41.74837" lon="1.86752">
        <ele>237.2</ele>
        <time>2022-05-20 23:37:24</time>
      </trkpt>
      <trkpt lat="41.74841" lon="1.86764">
        <ele>236.8</ele>
        <time>2022-05-20 23:37:25</time>
      </trkpt>
      <trkpt lat="41.74846" lon="1.86775">
        <ele>236.4</ele>
        <time>2022-05-20 23:37:26</time>
      </trkpt>
      <trkpt lat="41.7485" lon="1.86786">
        <ele>236.2</ele>
        <time>2022-05-20 23:37:27</time>
      </trkpt>
      <trkpt lat="41.74854" lon="1.86797">
        <ele>235.8</ele>
        <time>2022-05-20 23:37:28</time>
      </trkpt>
      <trkpt lat="41.74858" lon="1.86809">
        <ele>235.6</ele>
        <time>2022-05-20 23:37:29</time>
      </trkpt>
      <trkpt lat="41.74862" lon="1.8682">
        <ele>235.4</ele>
        <time>2022-05-20 23:37:30</time>
      </trkpt>
      <trkpt lat="41.74866" lon="1.86831">
        <ele>235.4</ele>
        <time>2022-05-20 23:37:31</time>
      </trkpt>
      <trkpt lat="41.7487" lon="1.86842">
        <ele>235.2</ele>
        <time>2022-05-20 23:37:32</time>
      </trkpt>
      <trkpt lat="41.74874" lon="1.86853">
        <ele>235</ele>
        <time>2022-05-20 23:37:33</time>
      </trkpt>
      <trkpt lat="41.74878" lon="1.86864">
        <ele>235</ele>
        <time>2022-05-20 23:37:34</time>
      </trkpt>
      <trkpt lat="41.74882" lon="1.86874">
        <ele>235</ele>
        <time>2022-05-20 23:37:35</time>
      </trkpt>
      <trkpt lat="41.74885" lon="1.86885">
        <ele>235</ele>
        <time>2022-05-20 23:37:36</time>
      </trkpt>
      <trkpt lat="41.74889" lon="1.86895">
        <ele>235</ele>
        <time>2022-05-20 23:37:37</time>
      </trkpt>
      <trkpt lat="41.74892" lon="1.86906">
        <ele>235</ele>
        <time>2022-05-20 23:37:38</time>
      </trkpt>
      <trkpt lat="41.74896" lon="1.86916">
        <ele>235</ele>
        <time>2022-05-20 23:37:39</time>
      </trkpt>
      <trkpt lat="41.749" lon="1.86926">
        <ele>235</ele>
        <time>2022-05-20 23:37:40</time>
      </trkpt>
      <trkpt lat="41.74903" lon="1.86936">
        <ele>235</ele>
        <time>2022-05-20 23:37:41</time>
      </trkpt>
      <trkpt lat="41.74907" lon="1.86946">
        <ele>235</ele>
        <time>2022-05-20 23:37:42</time>
      </trkpt>
      <trkpt lat="41.7491" lon="1.86955">
        <ele>235</ele>
        <time>2022-05-20 23:37:43</time>
      </trkpt>
      <trkpt lat="41.74913" lon="1.86966">
        <ele>235</ele>
        <time>2022-05-20 23:37:44</time>
      </trkpt>
      <trkpt lat="41.74915" lon="1.86976">
        <ele>235.2</ele>
        <time>2022-05-20 23:37:45</time>
      </trkpt>
      <trkpt lat="41.74918" lon="1.86986">
        <ele>235.2</ele>
        <time>2022-05-20 23:37:46</time>
      </trkpt>
      <trkpt lat="41.7492" lon="1.86997">
        <ele>235.2</ele>
        <time>2022-05-20 23:37:47</time>
      </trkpt>
      <trkpt lat="41.74921" lon="1.87007">
        <ele>235.2</ele>
        <time>2022-05-20 23:37:48</time>
      </trkpt>
      <trkpt lat="41.74921" lon="1.87017">
        <ele>235.2</ele>
        <time>2022-05-20 23:37:49</time>
      </trkpt>
      <trkpt lat="41.74921" lon="1.87027">
        <ele>235.4</ele>
        <time>2022-05-20 23:37:50</time>
      </trkpt>
      <trkpt lat="41.74919" lon="1.87037">
        <ele>235.4</ele>
        <time>2022-05-20 23:37:51</time>
      </trkpt>
      <trkpt lat="41.74917" lon="1.87047">
        <ele>235.6</ele>
        <time>2022-05-20 23:37:52</time>
      </trkpt>
      <trkpt lat="41.74915" lon="1.87056">
        <ele>235.6</ele>
        <time>2022-05-20 23:37:53</time>
      </trkpt>
      <trkpt lat="41.74913" lon="1.87065">
        <ele>235.8</ele>
        <time>2022-05-20 23:37:54</time>
      </trkpt>
      <trkpt lat="41.74911" lon="1.87074">
        <ele>235.8</ele>
        <time>2022-05-20 23:37:55</time>
      </trkpt>
      <trkpt lat="41.74911" lon="1.87084">
        <ele>236</ele>
        <time>2022-05-20 23:37:56</time>
      </trkpt>
      <trkpt lat="41.74911" lon="1.87093">
        <ele>236.2</ele>
        <time>2022-05-20 23:37:57</time>
      </trkpt>
      <trkpt lat="41.74913" lon="1.87102">
        <ele>236.2</ele>
        <time>2022-05-20 23:37:58</time>
      </trkpt>
      <trkpt lat="41.74915" lon="1.8711">
        <ele>236.4</ele>
        <time>2022-05-20 23:37:59</time>
      </trkpt>
      <trkpt lat="41.74918" lon="1.87117">
        <ele>236.8</ele>
        <time>2022-05-20 23:38:00</time>
      </trkpt>
      <trkpt lat="41.7492" lon="1.87121">
        <ele>237</ele>
        <time>2022-05-20 23:38:01</time>
      </trkpt>
      <trkpt lat="41.74926" lon="1.8713">
        <ele>237.4</ele>
        <time>2022-05-20 23:38:02</time>
      </trkpt>
      <trkpt lat="41.7493" lon="1.87135">
        <ele>237.6</ele>
        <time>2022-05-20 23:38:03</time>
      </trkpt>
      <trkpt lat="41.74935" lon="1.8714">
        <ele>238</ele>
        <time>2022-05-20 23:38:04</time>
      </trkpt>
      <trkpt lat="41.7494" lon="1.87143">
        <ele>238.2</ele>
        <time>2022-05-20 23:38:05</time>
      </trkpt>
      <trkpt lat="41.74945" lon="1.87145">
        <ele>238.6</ele>
        <time>2022-05-20 23:38:06</time>
      </trkpt>
      <trkpt lat="41.7495" lon="1.87146">
        <ele>238.8</ele>
        <time>2022-05-20 23:38:07</time>
      </trkpt>
      <trkpt lat="41.74956" lon="1.87148">
        <ele>239</ele>
        <time>2022-05-20 23:38:08</time>
      </trkpt>
      <trkpt lat="41.74961" lon="1.87149">
        <ele>239.4</ele>
        <time>2022-05-20 23:38:09</time>
      </trkpt>
      <trkpt lat="41.74966" lon="1.8715">
        <ele>239.6</ele>
        <time>2022-05-20 23:38:10</time>
      </trkpt>
      <trkpt lat="41.74971" lon="1.8715">
        <ele>239.8</ele>
        <time>2022-05-20 23:38:11</time>
      </trkpt>
      <trkpt lat="41.74976" lon="1.87151">
        <ele>240</ele>
        <time>2022-05-20 23:38:12</time>
      </trkpt>
      <trkpt lat="41.74981" lon="1.87152">
        <ele>240.2</ele>
        <time>2022-05-20 23:38:13</time>
      </trkpt>
      <trkpt lat="41.74986" lon="1.87153">
        <ele>240.6</ele>
        <time>2022-05-20 23:38:14</time>
      </trkpt>
      <trkpt lat="41.74991" lon="1.87154">
        <ele>240.8</ele>
        <time>2022-05-20 23:38:15</time>
      </trkpt>
      <trkpt lat="41.74995" lon="1.87155">
        <ele>241</ele>
        <time>2022-05-20 23:38:16</time>
      </trkpt>
      <trkpt lat="41.74999" lon="1.87156">
        <ele>241.2</ele>
        <time>2022-05-20 23:38:17</time>
      </trkpt>
      <trkpt lat="41.75003" lon="1.87158">
        <ele>241.4</ele>
        <time>2022-05-20 23:38:18</time>
      </trkpt>
      <trkpt lat="41.75006" lon="1.8716">
        <ele>241.8</ele>
        <time>2022-05-20 23:38:19</time>
      </trkpt>
      <trkpt lat="41.7501" lon="1.87163">
        <ele>242</ele>
        <time>2022-05-20 23:38:20</time>
      </trkpt>
      <trkpt lat="41.75013" lon="1.87166">
        <ele>242.2</ele>
        <time>2022-05-20 23:38:21</time>
      </trkpt>
      <trkpt lat="41.75017" lon="1.87169">
        <ele>242.4</ele>
        <time>2022-05-20 23:38:22</time>
      </trkpt>
      <trkpt lat="41.7502" lon="1.87172">
        <ele>242.6</ele>
        <time>2022-05-20 23:38:23</time>
      </trkpt>
      <trkpt lat="41.75024" lon="1.87176">
        <ele>243</ele>
        <time>2022-05-20 23:38:24</time>
      </trkpt>
      <trkpt lat="41.75027" lon="1.87181">
        <ele>243.2</ele>
        <time>2022-05-20 23:38:25</time>
      </trkpt>
      <trkpt lat="41.75029" lon="1.87185">
        <ele>243.4</ele>
        <time>2022-05-20 23:38:26</time>
      </trkpt>
      <trkpt lat="41.75032" lon="1.8719">
        <ele>243.6</ele>
        <time>2022-05-20 23:38:27</time>
      </trkpt>
      <trkpt lat="41.75034" lon="1.87196">
        <ele>243.8</ele>
        <time>2022-05-20 23:38:28</time>
      </trkpt>
      <trkpt lat="41.75035" lon="1.87201">
        <ele>244</ele>
        <time>2022-05-20 23:38:29</time>
      </trkpt>
      <trkpt lat="41.75038" lon="1.87207">
        <ele>244.2</ele>
        <time>2022-05-20 23:38:30</time>
      </trkpt>
      <trkpt lat="41.7504" lon="1.87212">
        <ele>244.4</ele>
        <time>2022-05-20 23:38:31</time>
      </trkpt>
      <trkpt lat="41.75042" lon="1.87217">
        <ele>244.6</ele>
        <time>2022-05-20 23:38:32</time>
      </trkpt>
      <trkpt lat="41.75043" lon="1.87222">
        <ele>245</ele>
        <time>2022-05-20 23:38:33</time>
      </trkpt>
      <trkpt lat="41.75044" lon="1.87228">
        <ele>245.2</ele>
        <time>2022-05-20 23:38:34</time>
      </trkpt>
      <trkpt lat="41.75045" lon="1.87235">
        <ele>245.4</ele>
        <time>2022-05-20 23:38:35</time>
      </trkpt>
      <trkpt lat="41.75047" lon="1.87241">
        <ele>245.6</ele>
        <time>2022-05-20 23:38:36</time>
      </trkpt>
      <trkpt lat="41.75048" lon="1.87247">
        <ele>245.8</ele>
        <time>2022-05-20 23:38:37</time>
      </trkpt>
      <trkpt lat="41.75048" lon="1.87253">
        <ele>246</ele>
        <time>2022-05-20 23:38:38</time>
      </trkpt>
      <trkpt lat="41.75048" lon="1.87258">
        <ele>246.4</ele>
        <time>2022-05-20 23:38:39</time>
      </trkpt>
      <trkpt lat="41.75048" lon="1.87264">
        <ele>246.6</ele>
        <time>2022-05-20 23:38:40</time>
      </trkpt>
      <trkpt lat="41.75049" lon="1.87269">
        <ele>246.8</ele>
        <time>2022-05-20 23:38:41</time>
      </trkpt>
      <trkpt lat="41.75049" lon="1.87274">
        <ele>247</ele>
        <time>2022-05-20 23:38:42</time>
      </trkpt>
      <trkpt lat="41.75049" lon="1.87279">
        <ele>247.2</ele>
        <time>2022-05-20 23:38:43</time>
      </trkpt>
      <trkpt lat="41.7505" lon="1.87284">
        <ele>247.2</ele>
        <time>2022-05-20 23:38:44</time>
      </trkpt>
      <trkpt lat="41.7505" lon="1.87288">
        <ele>247.4</ele>
        <time>2022-05-20 23:38:45</time>
      </trkpt>
      <trkpt lat="41.7505" lon="1.87293">
        <ele>247.8</ele>
        <time>2022-05-20 23:38:46</time>
      </trkpt>
      <trkpt lat="41.7505" lon="1.87297">
        <ele>248</ele>
        <time>2022-05-20 23:38:47</time>
      </trkpt>
      <trkpt lat="41.75051" lon="1.87302">
        <ele>248.2</ele>
        <time>2022-05-20 23:38:48</time>
      </trkpt>
      <trkpt lat="41.75051" lon="1.87307">
        <ele>248.4</ele>
        <time>2022-05-20 23:38:49</time>
      </trkpt>
      <trkpt lat="41.7505" lon="1.87311">
        <ele>248.6</ele>
        <time>2022-05-20 23:38:50</time>
      </trkpt>
      <trkpt lat="41.7505" lon="1.87313">
        <ele>248.8</ele>
        <time>2022-05-20 23:38:51</time>
      </trkpt>
      <trkpt lat="41.7505" lon="1.87316">
        <ele>248.8</ele>
        <time>2022-05-20 23:38:52</time>
      </trkpt>
      <trkpt lat="41.7505" lon="1.87319">
        <ele>249</ele>
        <time>2022-05-20 23:38:53</time>
      </trkpt>
      <trkpt lat="41.75049" lon="1.87323">
        <ele>249.2</ele>
        <time>2022-05-20 23:38:54</time>
      </trkpt>
      <trkpt lat="41.7505" lon="1.87328">
        <ele>249.2</ele>
        <time>2022-05-20 23:38:55</time>
      </trkpt>
      <trkpt lat="41.7505" lon="1.87332">
        <ele>249.4</ele>
        <time>2022-05-20 23:38:56</time>
      </trkpt>
      <trkpt lat="41.75051" lon="1.87338">
        <ele>249.6</ele>
        <time>2022-05-20 23:38:57</time>
      </trkpt>
      <trkpt lat="41.75052" lon="1.87343">
        <ele>249.6</ele>
        <time>2022-05-20 23:38:58</time>
      </trkpt>
      <trkpt lat="41.75053" lon="1.87348">
        <ele>249.8</ele>
        <time>2022-05-20 23:38:59</time>
      </trkpt>
      <trkpt lat="41.75054" lon="1.87354">
        <ele>250</ele>
        <time>2022-05-20 23:39:00</time>
      </trkpt>
      <trkpt lat="41.75056" lon="1.87359">
        <ele>250.2</ele>
        <time>2022-05-20 23:39:01</time>
      </trkpt>
      <trkpt lat="41.75057" lon="1.87364">
        <ele>250.2</ele>
        <time>2022-05-20 23:39:02</time>
      </trkpt>
      <trkpt lat="41.75058" lon="1.8737">
        <ele>250.4</ele>
        <time>2022-05-20 23:39:03</time>
      </trkpt>
      <trkpt lat="41.75059" lon="1.87376">
        <ele>250.4</ele>
        <time>2022-05-20 23:39:04</time>
      </trkpt>
      <trkpt lat="41.7506" lon="1.87381">
        <ele>250.6</ele>
        <time>2022-05-20 23:39:05</time>
      </trkpt>
      <trkpt lat="41.75062" lon="1.87387">
        <ele>250.6</ele>
        <time>2022-05-20 23:39:06</time>
      </trkpt>
      <trkpt lat="41.75064" lon="1.87393">
        <ele>250.6</ele>
        <time>2022-05-20 23:39:07</time>
      </trkpt>
      <trkpt lat="41.75066" lon="1.87399">
        <ele>250.6</ele>
        <time>2022-05-20 23:39:08</time>
      </trkpt>
      <trkpt lat="41.7507" lon="1.87405">
        <ele>250.8</ele>
        <time>2022-05-20 23:39:09</time>
      </trkpt>
      <trkpt lat="41.75072" lon="1.87411">
        <ele>250.8</ele>
        <time>2022-05-20 23:39:10</time>
      </trkpt>
      <trkpt lat="41.75074" lon="1.87417">
        <ele>250.8</ele>
        <time>2022-05-20 23:39:11</time>
      </trkpt>
      <trkpt lat="41.75077" lon="1.87423">
        <ele>251</ele>
        <time>2022-05-20 23:39:12</time>
      </trkpt>
      <trkpt lat="41.75079" lon="1.87429">
        <ele>251</ele>
        <time>2022-05-20 23:39:13</time>
      </trkpt>
      <trkpt lat="41.75082" lon="1.87436">
        <ele>251</ele>
        <time>2022-05-20 23:39:14</time>
      </trkpt>
      <trkpt lat="41.75085" lon="1.87442">
        <ele>251</ele>
        <time>2022-05-20 23:39:15</time>
      </trkpt>
      <trkpt lat="41.75088" lon="1.87449">
        <ele>251.2</ele>
        <time>2022-05-20 23:39:16</time>
      </trkpt>
      <trkpt lat="41.75091" lon="1.87455">
        <ele>251.2</ele>
        <time>2022-05-20 23:39:17</time>
      </trkpt>
      <trkpt lat="41.75093" lon="1.87461">
        <ele>251.2</ele>
        <time>2022-05-20 23:39:18</time>
      </trkpt>
      <trkpt lat="41.75095" lon="1.87468">
        <ele>251.4</ele>
        <time>2022-05-20 23:39:19</time>
      </trkpt>
      <trkpt lat="41.75097" lon="1.87474">
        <ele>251.4</ele>
        <time>2022-05-20 23:39:20</time>
      </trkpt>
      <trkpt lat="41.75099" lon="1.8748">
        <ele>251.6</ele>
        <time>2022-05-20 23:39:21</time>
      </trkpt>
      <trkpt lat="41.75101" lon="1.87486">
        <ele>251.6</ele>
        <time>2022-05-20 23:39:22</time>
      </trkpt>
      <trkpt lat="41.75103" lon="1.87493">
        <ele>251.8</ele>
        <time>2022-05-20 23:39:23</time>
      </trkpt>
      <trkpt lat="41.75105" lon="1.87499">
        <ele>251.8</ele>
        <time>2022-05-20 23:39:24</time>
      </trkpt>
      <trkpt lat="41.75107" lon="1.87506">
        <ele>251.8</ele>
        <time>2022-05-20 23:39:25</time>
      </trkpt>
      <trkpt lat="41.75109" lon="1.87512">
        <ele>252</ele>
        <time>2022-05-20 23:39:26</time>
      </trkpt>
      <trkpt lat="41.75111" lon="1.87518">
        <ele>252</ele>
        <time>2022-05-20 23:39:27</time>
      </trkpt>
      <trkpt lat="41.75113" lon="1.87525">
        <ele>252.2</ele>
        <time>2022-05-20 23:39:28</time>
      </trkpt>
      <trkpt lat="41.75116" lon="1.87531">
        <ele>252.2</ele>
        <time>2022-05-20 23:39:29</time>
      </trkpt>
      <trkpt lat="41.75117" lon="1.87537">
        <ele>252.4</ele>
        <time>2022-05-20 23:39:30</time>
      </trkpt>
      <trkpt lat="41.7512" lon="1.87541">
        <ele>252.4</ele>
        <time>2022-05-20 23:39:31</time>
      </trkpt>
      <trkpt lat="41.75122" lon="1.87543">
        <ele>252.6</ele>
        <time>2022-05-20 23:39:32</time>
      </trkpt>
      <trkpt lat="41.75123" lon="1.87543">
        <ele>252.8</ele>
        <time>2022-05-20 23:39:33</time>
      </trkpt>
      <trkpt lat="41.75124" lon="1.87544">
        <ele>252.8</ele>
        <time>2022-05-20 23:39:34</time>
      </trkpt>
      <trkpt lat="41.75125" lon="1.87551">
        <ele>253.2</ele>
        <time>2022-05-20 23:40:33</time>
      </trkpt>
      <trkpt lat="41.75126" lon="1.87555">
        <ele>253.2</ele>
        <time>2022-05-20 23:40:34</time>
      </trkpt>
      <trkpt lat="41.75127" lon="1.87559">
        <ele>253.2</ele>
        <time>2022-05-20 23:40:35</time>
      </trkpt>
      <trkpt lat="41.75129" lon="1.87564">
        <ele>253.2</ele>
        <time>2022-05-20 23:40:36</time>
      </trkpt>
      <trkpt lat="41.7513" lon="1.87569">
        <ele>253.4</ele>
        <time>2022-05-20 23:40:37</time>
      </trkpt>
      <trkpt lat="41.75132" lon="1.87574">
        <ele>253.4</ele>
        <time>2022-05-20 23:40:38</time>
      </trkpt>
      <trkpt lat="41.75134" lon="1.87579">
        <ele>253.4</ele>
        <time>2022-05-20 23:40:39</time>
      </trkpt>
      <trkpt lat="41.75135" lon="1.87584">
        <ele>253.4</ele>
        <time>2022-05-20 23:40:40</time>
      </trkpt>
      <trkpt lat="41.75137" lon="1.87589">
        <ele>253.4</ele>
        <time>2022-05-20 23:40:41</time>
      </trkpt>
      <trkpt lat="41.75138" lon="1.87595">
        <ele>253.6</ele>
        <time>2022-05-20 23:40:42</time>
      </trkpt>
      <trkpt lat="41.7514" lon="1.87601">
        <ele>253.6</ele>
        <time>2022-05-20 23:40:43</time>
      </trkpt>
      <trkpt lat="41.75142" lon="1.87606">
        <ele>253.6</ele>
        <time>2022-05-20 23:40:44</time>
      </trkpt>
      <trkpt lat="41.75144" lon="1.87612">
        <ele>253.6</ele>
        <time>2022-05-20 23:40:45</time>
      </trkpt>
      <trkpt lat="41.75146" lon="1.87618">
        <ele>253.6</ele>
        <time>2022-05-20 23:40:46</time>
      </trkpt>
      <trkpt lat="41.75149" lon="1.87624">
        <ele>253.6</ele>
        <time>2022-05-20 23:40:47</time>
      </trkpt>
      <trkpt lat="41.75151" lon="1.8763">
        <ele>253.8</ele>
        <time>2022-05-20 23:40:48</time>
      </trkpt>
      <trkpt lat="41.75153" lon="1.87636">
        <ele>253.8</ele>
        <time>2022-05-20 23:40:49</time>
      </trkpt>
      <trkpt lat="41.75155" lon="1.87643">
        <ele>253.8</ele>
        <time>2022-05-20 23:40:50</time>
      </trkpt>
      <trkpt lat="41.75158" lon="1.87649">
        <ele>253.8</ele>
        <time>2022-05-20 23:40:51</time>
      </trkpt>
      <trkpt lat="41.7516" lon="1.87656">
        <ele>254</ele>
        <time>2022-05-20 23:40:52</time>
      </trkpt>
      <trkpt lat="41.75162" lon="1.87663">
        <ele>254</ele>
        <time>2022-05-20 23:40:53</time>
      </trkpt>
      <trkpt lat="41.75165" lon="1.87669">
        <ele>254</ele>
        <time>2022-05-20 23:40:54</time>
      </trkpt>
      <trkpt lat="41.75167" lon="1.87675">
        <ele>254</ele>
        <time>2022-05-20 23:40:55</time>
      </trkpt>
      <trkpt lat="41.7517" lon="1.87681">
        <ele>254.2</ele>
        <time>2022-05-20 23:40:56</time>
      </trkpt>
      <trkpt lat="41.75173" lon="1.87688">
        <ele>254.2</ele>
        <time>2022-05-20 23:40:57</time>
      </trkpt>
      <trkpt lat="41.75175" lon="1.87694">
        <ele>254.2</ele>
        <time>2022-05-20 23:40:58</time>
      </trkpt>
      <trkpt lat="41.75178" lon="1.87701">
        <ele>254.2</ele>
        <time>2022-05-20 23:40:59</time>
      </trkpt>
      <trkpt lat="41.7518" lon="1.87708">
        <ele>254.2</ele>
        <time>2022-05-20 23:41:00</time>
      </trkpt>
      <trkpt lat="41.75182" lon="1.87715">
        <ele>254.2</ele>
        <time>2022-05-20 23:41:01</time>
      </trkpt>
      <trkpt lat="41.75185" lon="1.87722">
        <ele>254.2</ele>
        <time>2022-05-20 23:41:02</time>
      </trkpt>
      <trkpt lat="41.75187" lon="1.87729">
        <ele>254.2</ele>
        <time>2022-05-20 23:41:03</time>
      </trkpt>
      <trkpt lat="41.75189" lon="1.87735">
        <ele>254.2</ele>
        <time>2022-05-20 23:41:04</time>
      </trkpt>
      <trkpt lat="41.75192" lon="1.87742">
        <ele>254.4</ele>
        <time>2022-05-20 23:41:05</time>
      </trkpt>
      <trkpt lat="41.75194" lon="1.87749">
        <ele>254.6</ele>
        <time>2022-05-20 23:41:06</time>
      </trkpt>
      <trkpt lat="41.75196" lon="1.87756">
        <ele>254.6</ele>
        <time>2022-05-20 23:41:07</time>
      </trkpt>
      <trkpt lat="41.75198" lon="1.87763">
        <ele>254.8</ele>
        <time>2022-05-20 23:41:08</time>
      </trkpt>
      <trkpt lat="41.75201" lon="1.8777">
        <ele>254.8</ele>
        <time>2022-05-20 23:41:09</time>
      </trkpt>
      <trkpt lat="41.75203" lon="1.87777">
        <ele>255</ele>
        <time>2022-05-20 23:41:10</time>
      </trkpt>
      <trkpt lat="41.75205" lon="1.87784">
        <ele>255</ele>
        <time>2022-05-20 23:41:11</time>
      </trkpt>
      <trkpt lat="41.75208" lon="1.87792">
        <ele>255</ele>
        <time>2022-05-20 23:41:12</time>
      </trkpt>
      <trkpt lat="41.75209" lon="1.87799">
        <ele>255.2</ele>
        <time>2022-05-20 23:41:13</time>
      </trkpt>
      <trkpt lat="41.75212" lon="1.87806">
        <ele>255.2</ele>
        <time>2022-05-20 23:41:14</time>
      </trkpt>
      <trkpt lat="41.75214" lon="1.87812">
        <ele>255.2</ele>
        <time>2022-05-20 23:41:15</time>
      </trkpt>
      <trkpt lat="41.75217" lon="1.8782">
        <ele>255.4</ele>
        <time>2022-05-20 23:41:16</time>
      </trkpt>
      <trkpt lat="41.75219" lon="1.87827">
        <ele>255.4</ele>
        <time>2022-05-20 23:41:17</time>
      </trkpt>
      <trkpt lat="41.75221" lon="1.87835">
        <ele>255.6</ele>
        <time>2022-05-20 23:41:18</time>
      </trkpt>
      <trkpt lat="41.75223" lon="1.87842">
        <ele>255.6</ele>
        <time>2022-05-20 23:41:19</time>
      </trkpt>
      <trkpt lat="41.75225" lon="1.8785">
        <ele>255.6</ele>
        <time>2022-05-20 23:41:20</time>
      </trkpt>
      <trkpt lat="41.75228" lon="1.87857">
        <ele>255.8</ele>
        <time>2022-05-20 23:41:21</time>
      </trkpt>
      <trkpt lat="41.7523" lon="1.87864">
        <ele>255.8</ele>
        <time>2022-05-20 23:41:22</time>
      </trkpt>
      <trkpt lat="41.75232" lon="1.87871">
        <ele>256</ele>
        <time>2022-05-20 23:41:23</time>
      </trkpt>
      <trkpt lat="41.75235" lon="1.87878">
        <ele>256.2</ele>
        <time>2022-05-20 23:41:24</time>
      </trkpt>
      <trkpt lat="41.75237" lon="1.87885">
        <ele>256.2</ele>
        <time>2022-05-20 23:41:25</time>
      </trkpt>
      <trkpt lat="41.7524" lon="1.87892">
        <ele>256.2</ele>
        <time>2022-05-20 23:41:26</time>
      </trkpt>
      <trkpt lat="41.75243" lon="1.879">
        <ele>256.4</ele>
        <time>2022-05-20 23:41:27</time>
      </trkpt>
      <trkpt lat="41.75245" lon="1.87907">
        <ele>256.4</ele>
        <time>2022-05-20 23:41:28</time>
      </trkpt>
      <trkpt lat="41.75248" lon="1.87914">
        <ele>256.4</ele>
        <time>2022-05-20 23:41:29</time>
      </trkpt>
      <trkpt lat="41.7525" lon="1.87922">
        <ele>256.6</ele>
        <time>2022-05-20 23:41:30</time>
      </trkpt>
      <trkpt lat="41.75253" lon="1.87929">
        <ele>256.6</ele>
        <time>2022-05-20 23:41:31</time>
      </trkpt>
      <trkpt lat="41.75255" lon="1.87937">
        <ele>256.6</ele>
        <time>2022-05-20 23:41:32</time>
      </trkpt>
      <trkpt lat="41.75257" lon="1.87944">
        <ele>256.8</ele>
        <time>2022-05-20 23:41:33</time>
      </trkpt>
      <trkpt lat="41.75259" lon="1.87951">
        <ele>256.8</ele>
        <time>2022-05-20 23:41:34</time>
      </trkpt>
      <trkpt lat="41.75262" lon="1.87958">
        <ele>257</ele>
        <time>2022-05-20 23:41:35</time>
      </trkpt>
      <trkpt lat="41.75264" lon="1.87966">
        <ele>257</ele>
        <time>2022-05-20 23:41:36</time>
      </trkpt>
      <trkpt lat="41.75267" lon="1.87974">
        <ele>257</ele>
        <time>2022-05-20 23:41:37</time>
      </trkpt>
      <trkpt lat="41.75269" lon="1.87982">
        <ele>257.2</ele>
        <time>2022-05-20 23:41:38</time>
      </trkpt>
      <trkpt lat="41.75272" lon="1.87989">
        <ele>257.2</ele>
        <time>2022-05-20 23:41:39</time>
      </trkpt>
      <trkpt lat="41.75275" lon="1.87997">
        <ele>257.2</ele>
        <time>2022-05-20 23:41:40</time>
      </trkpt>
      <trkpt lat="41.75277" lon="1.88004">
        <ele>257.4</ele>
        <time>2022-05-20 23:41:41</time>
      </trkpt>
      <trkpt lat="41.7528" lon="1.88012">
        <ele>257.4</ele>
        <time>2022-05-20 23:41:42</time>
      </trkpt>
      <trkpt lat="41.75282" lon="1.88019">
        <ele>257.6</ele>
        <time>2022-05-20 23:41:43</time>
      </trkpt>
      <trkpt lat="41.75285" lon="1.88027">
        <ele>257.6</ele>
        <time>2022-05-20 23:41:44</time>
      </trkpt>
      <trkpt lat="41.75288" lon="1.88035">
        <ele>257.6</ele>
        <time>2022-05-20 23:41:45</time>
      </trkpt>
      <trkpt lat="41.75291" lon="1.88043">
        <ele>257.4</ele>
        <time>2022-05-20 23:41:46</time>
      </trkpt>
      <trkpt lat="41.75294" lon="1.88051">
        <ele>257.4</ele>
        <time>2022-05-20 23:41:47</time>
      </trkpt>
      <trkpt lat="41.75297" lon="1.88059">
        <ele>257.2</ele>
        <time>2022-05-20 23:41:48</time>
      </trkpt>
      <trkpt lat="41.75299" lon="1.88068">
        <ele>257</ele>
        <time>2022-05-20 23:41:49</time>
      </trkpt>
      <trkpt lat="41.75303" lon="1.88078">
        <ele>256.6</ele>
        <time>2022-05-20 23:41:50</time>
      </trkpt>
      <trkpt lat="41.75307" lon="1.88087">
        <ele>256.4</ele>
        <time>2022-05-20 23:41:51</time>
      </trkpt>
      <trkpt lat="41.7531" lon="1.88097">
        <ele>256</ele>
        <time>2022-05-20 23:41:52</time>
      </trkpt>
      <trkpt lat="41.75314" lon="1.88107">
        <ele>255.8</ele>
        <time>2022-05-20 23:41:53</time>
      </trkpt>
      <trkpt lat="41.75317" lon="1.88117">
        <ele>255.4</ele>
        <time>2022-05-20 23:41:54</time>
      </trkpt>
      <trkpt lat="41.75321" lon="1.88128">
        <ele>255.2</ele>
        <time>2022-05-20 23:41:55</time>
      </trkpt>
      <trkpt lat="41.75325" lon="1.88139">
        <ele>255</ele>
        <time>2022-05-20 23:41:56</time>
      </trkpt>
      <trkpt lat="41.75328" lon="1.8815">
        <ele>254.8</ele>
        <time>2022-05-20 23:41:57</time>
      </trkpt>
      <trkpt lat="41.75332" lon="1.88161">
        <ele>254.2</ele>
        <time>2022-05-20 23:41:58</time>
      </trkpt>
      <trkpt lat="41.75336" lon="1.88172">
        <ele>253.8</ele>
        <time>2022-05-20 23:41:59</time>
      </trkpt>
      <trkpt lat="41.75341" lon="1.88183">
        <ele>253.4</ele>
        <time>2022-05-20 23:42:00</time>
      </trkpt>
      <trkpt lat="41.75345" lon="1.88195">
        <ele>253</ele>
        <time>2022-05-20 23:42:01</time>
      </trkpt>
      <trkpt lat="41.75349" lon="1.88206">
        <ele>252.6</ele>
        <time>2022-05-20 23:42:02</time>
      </trkpt>
      <trkpt lat="41.75353" lon="1.88218">
        <ele>252.2</ele>
        <time>2022-05-20 23:42:03</time>
      </trkpt>
      <trkpt lat="41.75357" lon="1.88229">
        <ele>251.8</ele>
        <time>2022-05-20 23:42:04</time>
      </trkpt>
      <trkpt lat="41.75361" lon="1.88241">
        <ele>251.6</ele>
        <time>2022-05-20 23:42:05</time>
      </trkpt>
      <trkpt lat="41.75365" lon="1.88253">
        <ele>251</ele>
        <time>2022-05-20 23:42:06</time>
      </trkpt>
      <trkpt lat="41.75369" lon="1.88265">
        <ele>250.6</ele>
        <time>2022-05-20 23:42:07</time>
      </trkpt>
      <trkpt lat="41.75373" lon="1.88277">
        <ele>250.2</ele>
        <time>2022-05-20 23:42:08</time>
      </trkpt>
      <trkpt lat="41.75377" lon="1.88289">
        <ele>249.8</ele>
        <time>2022-05-20 23:42:09</time>
      </trkpt>
      <trkpt lat="41.75382" lon="1.883">
        <ele>249.6</ele>
        <time>2022-05-20 23:42:10</time>
      </trkpt>
      <trkpt lat="41.75386" lon="1.88312">
        <ele>249</ele>
        <time>2022-05-20 23:42:11</time>
      </trkpt>
      <trkpt lat="41.75391" lon="1.88324">
        <ele>248.8</ele>
        <time>2022-05-20 23:42:12</time>
      </trkpt>
      <trkpt lat="41.75395" lon="1.88336">
        <ele>248.2</ele>
        <time>2022-05-20 23:42:13</time>
      </trkpt>
      <trkpt lat="41.754" lon="1.88349">
        <ele>247.8</ele>
        <time>2022-05-20 23:42:14</time>
      </trkpt>
      <trkpt lat="41.75404" lon="1.88361">
        <ele>247.6</ele>
        <time>2022-05-20 23:42:15</time>
      </trkpt>
      <trkpt lat="41.75409" lon="1.88373">
        <ele>247.2</ele>
        <time>2022-05-20 23:42:16</time>
      </trkpt>
      <trkpt lat="41.75413" lon="1.88385">
        <ele>246.8</ele>
        <time>2022-05-20 23:42:17</time>
      </trkpt>
      <trkpt lat="41.75418" lon="1.88397">
        <ele>246.6</ele>
        <time>2022-05-20 23:42:18</time>
      </trkpt>
      <trkpt lat="41.75423" lon="1.88409">
        <ele>246.2</ele>
        <time>2022-05-20 23:42:19</time>
      </trkpt>
      <trkpt lat="41.75427" lon="1.88421">
        <ele>246</ele>
        <time>2022-05-20 23:42:20</time>
      </trkpt>
      <trkpt lat="41.75431" lon="1.88434">
        <ele>245.6</ele>
        <time>2022-05-20 23:42:21</time>
      </trkpt>
      <trkpt lat="41.75435" lon="1.88446">
        <ele>245.4</ele>
        <time>2022-05-20 23:42:22</time>
      </trkpt>
      <trkpt lat="41.75439" lon="1.88457">
        <ele>245.4</ele>
        <time>2022-05-20 23:42:23</time>
      </trkpt>
      <trkpt lat="41.75441" lon="1.88468">
        <ele>245.2</ele>
        <time>2022-05-20 23:42:24</time>
      </trkpt>
      <trkpt lat="41.75445" lon="1.88479">
        <ele>245</ele>
        <time>2022-05-20 23:42:25</time>
      </trkpt>
      <trkpt lat="41.75448" lon="1.8849">
        <ele>245</ele>
        <time>2022-05-20 23:42:26</time>
      </trkpt>
      <trkpt lat="41.75452" lon="1.88502">
        <ele>244.8</ele>
        <time>2022-05-20 23:42:27</time>
      </trkpt>
      <trkpt lat="41.75457" lon="1.88513">
        <ele>244.8</ele>
        <time>2022-05-20 23:42:28</time>
      </trkpt>
      <trkpt lat="41.75461" lon="1.88523">
        <ele>244.8</ele>
        <time>2022-05-20 23:42:29</time>
      </trkpt>
      <trkpt lat="41.75465" lon="1.88534">
        <ele>244.6</ele>
        <time>2022-05-20 23:42:30</time>
      </trkpt>
      <trkpt lat="41.75468" lon="1.88544">
        <ele>244.6</ele>
        <time>2022-05-20 23:42:31</time>
      </trkpt>
      <trkpt lat="41.75472" lon="1.88555">
        <ele>244.6</ele>
        <time>2022-05-20 23:42:32</time>
      </trkpt>
      <trkpt lat="41.75476" lon="1.88565">
        <ele>244.4</ele>
        <time>2022-05-20 23:42:33</time>
      </trkpt>
      <trkpt lat="41.75479" lon="1.88575">
        <ele>244.4</ele>
        <time>2022-05-20 23:42:34</time>
      </trkpt>
      <trkpt lat="41.75483" lon="1.88585">
        <ele>244.2</ele>
        <time>2022-05-20 23:42:35</time>
      </trkpt>
      <trkpt lat="41.75486" lon="1.88596">
        <ele>244</ele>
        <time>2022-05-20 23:42:36</time>
      </trkpt>
      <trkpt lat="41.75489" lon="1.88605">
        <ele>243.6</ele>
        <time>2022-05-20 23:42:37</time>
      </trkpt>
      <trkpt lat="41.75492" lon="1.88616">
        <ele>243.4</ele>
        <time>2022-05-20 23:42:38</time>
      </trkpt>
      <trkpt lat="41.75497" lon="1.88627">
        <ele>243.2</ele>
        <time>2022-05-20 23:42:39</time>
      </trkpt>
      <trkpt lat="41.75501" lon="1.88638">
        <ele>242.8</ele>
        <time>2022-05-20 23:42:40</time>
      </trkpt>
      <trkpt lat="41.75506" lon="1.88651">
        <ele>242.4</ele>
        <time>2022-05-20 23:42:41</time>
      </trkpt>
      <trkpt lat="41.7551" lon="1.88664">
        <ele>242.2</ele>
        <time>2022-05-20 23:42:42</time>
      </trkpt>
      <trkpt lat="41.75515" lon="1.88677">
        <ele>241.8</ele>
        <time>2022-05-20 23:42:43</time>
      </trkpt>
      <trkpt lat="41.7552" lon="1.88688">
        <ele>241.6</ele>
        <time>2022-05-20 23:42:44</time>
      </trkpt>
      <trkpt lat="41.75524" lon="1.88699">
        <ele>241.2</ele>
        <time>2022-05-20 23:42:45</time>
      </trkpt>
      <trkpt lat="41.75528" lon="1.8871">
        <ele>241</ele>
        <time>2022-05-20 23:42:46</time>
      </trkpt>
      <trkpt lat="41.75531" lon="1.88721">
        <ele>240.8</ele>
        <time>2022-05-20 23:42:47</time>
      </trkpt>
      <trkpt lat="41.75534" lon="1.88733">
        <ele>240.4</ele>
        <time>2022-05-20 23:42:48</time>
      </trkpt>
      <trkpt lat="41.75539" lon="1.88744">
        <ele>240.2</ele>
        <time>2022-05-20 23:42:49</time>
      </trkpt>
      <trkpt lat="41.75543" lon="1.88755">
        <ele>239.8</ele>
        <time>2022-05-20 23:42:50</time>
      </trkpt>
      <trkpt lat="41.75547" lon="1.88767">
        <ele>239.6</ele>
        <time>2022-05-20 23:42:51</time>
      </trkpt>
      <trkpt lat="41.7555" lon="1.88778">
        <ele>239.4</ele>
        <time>2022-05-20 23:42:52</time>
      </trkpt>
      <trkpt lat="41.75554" lon="1.8879">
        <ele>239</ele>
        <time>2022-05-20 23:42:53</time>
      </trkpt>
      <trkpt lat="41.75558" lon="1.88801">
        <ele>238.6</ele>
        <time>2022-05-20 23:42:54</time>
      </trkpt>
      <trkpt lat="41.75563" lon="1.88813">
        <ele>238.4</ele>
        <time>2022-05-20 23:42:55</time>
      </trkpt>
      <trkpt lat="41.75567" lon="1.88825">
        <ele>238</ele>
        <time>2022-05-20 23:42:56</time>
      </trkpt>
      <trkpt lat="41.75571" lon="1.88836">
        <ele>237.6</ele>
        <time>2022-05-20 23:42:57</time>
      </trkpt>
      <trkpt lat="41.75575" lon="1.88848">
        <ele>237.2</ele>
        <time>2022-05-20 23:42:58</time>
      </trkpt>
      <trkpt lat="41.75579" lon="1.88859">
        <ele>236.8</ele>
        <time>2022-05-20 23:42:59</time>
      </trkpt>
      <trkpt lat="41.75582" lon="1.88871">
        <ele>236.6</ele>
        <time>2022-05-20 23:43:00</time>
      </trkpt>
      <trkpt lat="41.75586" lon="1.88884">
        <ele>236.2</ele>
        <time>2022-05-20 23:43:01</time>
      </trkpt>
      <trkpt lat="41.75589" lon="1.88897">
        <ele>235.8</ele>
        <time>2022-05-20 23:43:02</time>
      </trkpt>
      <trkpt lat="41.75591" lon="1.8891">
        <ele>235.4</ele>
        <time>2022-05-20 23:43:03</time>
      </trkpt>
      <trkpt lat="41.75593" lon="1.88922">
        <ele>235</ele>
        <time>2022-05-20 23:43:04</time>
      </trkpt>
      <trkpt lat="41.75595" lon="1.88934">
        <ele>234.6</ele>
        <time>2022-05-20 23:43:05</time>
      </trkpt>
      <trkpt lat="41.75597" lon="1.88947">
        <ele>234.2</ele>
        <time>2022-05-20 23:43:06</time>
      </trkpt>
      <trkpt lat="41.75599" lon="1.88961">
        <ele>233.8</ele>
        <time>2022-05-20 23:43:07</time>
      </trkpt>
      <trkpt lat="41.75601" lon="1.88974">
        <ele>233.4</ele>
        <time>2022-05-20 23:43:08</time>
      </trkpt>
      <trkpt lat="41.75602" lon="1.88987">
        <ele>233.2</ele>
        <time>2022-05-20 23:43:09</time>
      </trkpt>
      <trkpt lat="41.75604" lon="1.89001">
        <ele>232.8</ele>
        <time>2022-05-20 23:43:10</time>
      </trkpt>
      <trkpt lat="41.75605" lon="1.89015">
        <ele>232.4</ele>
        <time>2022-05-20 23:43:11</time>
      </trkpt>
      <trkpt lat="41.75607" lon="1.89029">
        <ele>231.8</ele>
        <time>2022-05-20 23:43:12</time>
      </trkpt>
      <trkpt lat="41.75608" lon="1.89043">
        <ele>231.4</ele>
        <time>2022-05-20 23:43:13</time>
      </trkpt>
      <trkpt lat="41.75608" lon="1.89056">
        <ele>231</ele>
        <time>2022-05-20 23:43:14</time>
      </trkpt>
      <trkpt lat="41.7561" lon="1.89069">
        <ele>230.6</ele>
        <time>2022-05-20 23:43:15</time>
      </trkpt>
      <trkpt lat="41.7561" lon="1.89083">
        <ele>230.2</ele>
        <time>2022-05-20 23:43:16</time>
      </trkpt>
      <trkpt lat="41.75611" lon="1.89097">
        <ele>229.8</ele>
        <time>2022-05-20 23:43:17</time>
      </trkpt>
      <trkpt lat="41.75611" lon="1.89111">
        <ele>229.4</ele>
        <time>2022-05-20 23:43:18</time>
      </trkpt>
      <trkpt lat="41.75612" lon="1.89124">
        <ele>228.8</ele>
        <time>2022-05-20 23:43:19</time>
      </trkpt>
      <trkpt lat="41.75613" lon="1.89138">
        <ele>228.4</ele>
        <time>2022-05-20 23:43:20</time>
      </trkpt>
      <trkpt lat="41.75615" lon="1.89152">
        <ele>228</ele>
        <time>2022-05-20 23:43:21</time>
      </trkpt>
      <trkpt lat="41.75616" lon="1.89164">
        <ele>227.6</ele>
        <time>2022-05-20 23:43:22</time>
      </trkpt>
      <trkpt lat="41.75617" lon="1.89177">
        <ele>227.4</ele>
        <time>2022-05-20 23:43:23</time>
      </trkpt>
      <trkpt lat="41.75618" lon="1.89191">
        <ele>227</ele>
        <time>2022-05-20 23:43:24</time>
      </trkpt>
      <trkpt lat="41.75618" lon="1.89203">
        <ele>226.8</ele>
        <time>2022-05-20 23:43:25</time>
      </trkpt>
      <trkpt lat="41.7562" lon="1.89215">
        <ele>226.4</ele>
        <time>2022-05-20 23:43:26</time>
      </trkpt>
      <trkpt lat="41.75624" lon="1.89226">
        <ele>226.2</ele>
        <time>2022-05-20 23:43:27</time>
      </trkpt>
      <trkpt lat="41.75628" lon="1.89237">
        <ele>225.8</ele>
        <time>2022-05-20 23:43:28</time>
      </trkpt>
      <trkpt lat="41.75634" lon="1.89249">
        <ele>225.6</ele>
        <time>2022-05-20 23:43:29</time>
      </trkpt>
      <trkpt lat="41.75639" lon="1.8926">
        <ele>225.4</ele>
        <time>2022-05-20 23:43:30</time>
      </trkpt>
      <trkpt lat="41.75643" lon="1.8927">
        <ele>225</ele>
        <time>2022-05-20 23:43:31</time>
      </trkpt>
      <trkpt lat="41.75648" lon="1.8928">
        <ele>224.8</ele>
        <time>2022-05-20 23:43:32</time>
      </trkpt>
      <trkpt lat="41.75653" lon="1.89291">
        <ele>224.4</ele>
        <time>2022-05-20 23:43:33</time>
      </trkpt>
      <trkpt lat="41.7566" lon="1.89302">
        <ele>224.2</ele>
        <time>2022-05-20 23:43:34</time>
      </trkpt>
      <trkpt lat="41.75666" lon="1.89313">
        <ele>224</ele>
        <time>2022-05-20 23:43:35</time>
      </trkpt>
      <trkpt lat="41.75673" lon="1.89323">
        <ele>223.8</ele>
        <time>2022-05-20 23:43:36</time>
      </trkpt>
      <trkpt lat="41.7568" lon="1.89334">
        <ele>223.6</ele>
        <time>2022-05-20 23:43:37</time>
      </trkpt>
      <trkpt lat="41.75686" lon="1.89343">
        <ele>223.2</ele>
        <time>2022-05-20 23:43:38</time>
      </trkpt>
      <trkpt lat="41.75692" lon="1.89352">
        <ele>223</ele>
        <time>2022-05-20 23:43:39</time>
      </trkpt>
      <trkpt lat="41.75698" lon="1.89362">
        <ele>222.8</ele>
        <time>2022-05-20 23:43:40</time>
      </trkpt>
      <trkpt lat="41.75704" lon="1.89372">
        <ele>222.6</ele>
        <time>2022-05-20 23:43:41</time>
      </trkpt>
      <trkpt lat="41.7571" lon="1.89382">
        <ele>222.4</ele>
        <time>2022-05-20 23:43:42</time>
      </trkpt>
      <trkpt lat="41.75716" lon="1.89392">
        <ele>222.2</ele>
        <time>2022-05-20 23:43:43</time>
      </trkpt>
      <trkpt lat="41.75721" lon="1.89402">
        <ele>222.2</ele>
        <time>2022-05-20 23:43:44</time>
      </trkpt>
      <trkpt lat="41.75726" lon="1.89412">
        <ele>222</ele>
        <time>2022-05-20 23:43:45</time>
      </trkpt>
      <trkpt lat="41.75732" lon="1.89422">
        <ele>221.8</ele>
        <time>2022-05-20 23:43:46</time>
      </trkpt>
      <trkpt lat="41.75737" lon="1.89431">
        <ele>221.8</ele>
        <time>2022-05-20 23:43:47</time>
      </trkpt>
      <trkpt lat="41.75743" lon="1.89441">
        <ele>221.8</ele>
        <time>2022-05-20 23:43:48</time>
      </trkpt>
      <trkpt lat="41.75748" lon="1.89451">
        <ele>221.6</ele>
        <time>2022-05-20 23:43:49</time>
      </trkpt>
      <trkpt lat="41.75753" lon="1.8946">
        <ele>221.6</ele>
        <time>2022-05-20 23:43:50</time>
      </trkpt>
      <trkpt lat="41.75758" lon="1.8947">
        <ele>221.4</ele>
        <time>2022-05-20 23:43:51</time>
      </trkpt>
      <trkpt lat="41.75764" lon="1.89479">
        <ele>221.4</ele>
        <time>2022-05-20 23:43:52</time>
      </trkpt>
      <trkpt lat="41.75769" lon="1.89488">
        <ele>221.4</ele>
        <time>2022-05-20 23:43:53</time>
      </trkpt>
      <trkpt lat="41.75774" lon="1.89497">
        <ele>221.4</ele>
        <time>2022-05-20 23:43:54</time>
      </trkpt>
      <trkpt lat="41.7578" lon="1.89506">
        <ele>221.4</ele>
        <time>2022-05-20 23:43:55</time>
      </trkpt>
      <trkpt lat="41.75785" lon="1.89515">
        <ele>221.4</ele>
        <time>2022-05-20 23:43:56</time>
      </trkpt>
      <trkpt lat="41.7579" lon="1.89524">
        <ele>221.4</ele>
        <time>2022-05-20 23:43:57</time>
      </trkpt>
      <trkpt lat="41.75795" lon="1.89533">
        <ele>221.4</ele>
        <time>2022-05-20 23:43:58</time>
      </trkpt>
      <trkpt lat="41.75799" lon="1.89542">
        <ele>221.4</ele>
        <time>2022-05-20 23:43:59</time>
      </trkpt>
      <trkpt lat="41.75804" lon="1.8955">
        <ele>221.4</ele>
        <time>2022-05-20 23:44:00</time>
      </trkpt>
      <trkpt lat="41.75808" lon="1.89559">
        <ele>221.6</ele>
        <time>2022-05-20 23:44:01</time>
      </trkpt>
      <trkpt lat="41.75813" lon="1.89567">
        <ele>221.6</ele>
        <time>2022-05-20 23:44:02</time>
      </trkpt>
      <trkpt lat="41.75818" lon="1.89575">
        <ele>221.6</ele>
        <time>2022-05-20 23:44:03</time>
      </trkpt>
      <trkpt lat="41.75823" lon="1.89584">
        <ele>221.6</ele>
        <time>2022-05-20 23:44:04</time>
      </trkpt>
      <trkpt lat="41.75827" lon="1.89592">
        <ele>221.8</ele>
        <time>2022-05-20 23:44:05</time>
      </trkpt>
      <trkpt lat="41.75832" lon="1.89599">
        <ele>221.8</ele>
        <time>2022-05-20 23:44:06</time>
      </trkpt>
      <trkpt lat="41.75836" lon="1.89607">
        <ele>221.8</ele>
        <time>2022-05-20 23:44:07</time>
      </trkpt>
      <trkpt lat="41.75841" lon="1.89614">
        <ele>222</ele>
        <time>2022-05-20 23:44:08</time>
      </trkpt>
      <trkpt lat="41.75845" lon="1.89622">
        <ele>222</ele>
        <time>2022-05-20 23:44:09</time>
      </trkpt>
      <trkpt lat="41.7585" lon="1.89629">
        <ele>222</ele>
        <time>2022-05-20 23:44:10</time>
      </trkpt>
      <trkpt lat="41.75854" lon="1.89636">
        <ele>222.2</ele>
        <time>2022-05-20 23:44:11</time>
      </trkpt>
      <trkpt lat="41.75858" lon="1.89643">
        <ele>222.2</ele>
        <time>2022-05-20 23:44:12</time>
      </trkpt>
      <trkpt lat="41.75862" lon="1.8965">
        <ele>222.4</ele>
        <time>2022-05-20 23:44:13</time>
      </trkpt>
      <trkpt lat="41.75866" lon="1.89656">
        <ele>222.4</ele>
        <time>2022-05-20 23:44:14</time>
      </trkpt>
      <trkpt lat="41.7587" lon="1.89663">
        <ele>222.6</ele>
        <time>2022-05-20 23:44:15</time>
      </trkpt>
      <trkpt lat="41.75874" lon="1.89671">
        <ele>222.6</ele>
        <time>2022-05-20 23:44:16</time>
      </trkpt>
      <trkpt lat="41.75878" lon="1.89678">
        <ele>222.6</ele>
        <time>2022-05-20 23:44:17</time>
      </trkpt>
      <trkpt lat="41.75882" lon="1.89685">
        <ele>222.8</ele>
        <time>2022-05-20 23:44:18</time>
      </trkpt>
      <trkpt lat="41.75886" lon="1.89692">
        <ele>222.8</ele>
        <time>2022-05-20 23:44:19</time>
      </trkpt>
      <trkpt lat="41.75889" lon="1.89699">
        <ele>223</ele>
        <time>2022-05-20 23:44:20</time>
      </trkpt>
      <trkpt lat="41.75892" lon="1.89706">
        <ele>223</ele>
        <time>2022-05-20 23:44:21</time>
      </trkpt>
      <trkpt lat="41.75896" lon="1.89714">
        <ele>223</ele>
        <time>2022-05-20 23:44:22</time>
      </trkpt>
      <trkpt lat="41.759" lon="1.89721">
        <ele>223.2</ele>
        <time>2022-05-20 23:44:23</time>
      </trkpt>
      <trkpt lat="41.75903" lon="1.89728">
        <ele>223.2</ele>
        <time>2022-05-20 23:44:24</time>
      </trkpt>
      <trkpt lat="41.75906" lon="1.89735">
        <ele>223.2</ele>
        <time>2022-05-20 23:44:25</time>
      </trkpt>
      <trkpt lat="41.7591" lon="1.89741">
        <ele>223.4</ele>
        <time>2022-05-20 23:44:26</time>
      </trkpt>
      <trkpt lat="41.75914" lon="1.89748">
        <ele>223.4</ele>
        <time>2022-05-20 23:44:27</time>
      </trkpt>
      <trkpt lat="41.75918" lon="1.89754">
        <ele>223.4</ele>
        <time>2022-05-20 23:44:28</time>
      </trkpt>
      <trkpt lat="41.75922" lon="1.89761">
        <ele>223.4</ele>
        <time>2022-05-20 23:44:29</time>
      </trkpt>
      <trkpt lat="41.75926" lon="1.89767">
        <ele>223.6</ele>
        <time>2022-05-20 23:44:30</time>
      </trkpt>
      <trkpt lat="41.7593" lon="1.89772">
        <ele>223.6</ele>
        <time>2022-05-20 23:44:31</time>
      </trkpt>
      <trkpt lat="41.75933" lon="1.89779">
        <ele>223.6</ele>
        <time>2022-05-20 23:44:32</time>
      </trkpt>
      <trkpt lat="41.75937" lon="1.89785">
        <ele>223.8</ele>
        <time>2022-05-20 23:44:33</time>
      </trkpt>
      <trkpt lat="41.75941" lon="1.8979">
        <ele>223.8</ele>
        <time>2022-05-20 23:44:34</time>
      </trkpt>
      <trkpt lat="41.75945" lon="1.89796">
        <ele>223.8</ele>
        <time>2022-05-20 23:44:35</time>
      </trkpt>
      <trkpt lat="41.75949" lon="1.89803">
        <ele>224</ele>
        <time>2022-05-20 23:44:36</time>
      </trkpt>
      <trkpt lat="41.75952" lon="1.89809">
        <ele>224</ele>
        <time>2022-05-20 23:44:37</time>
      </trkpt>
      <trkpt lat="41.75955" lon="1.89815">
        <ele>224</ele>
        <time>2022-05-20 23:44:38</time>
      </trkpt>
      <trkpt lat="41.75958" lon="1.89822">
        <ele>224.2</ele>
        <time>2022-05-20 23:44:39</time>
      </trkpt>
      <trkpt lat="41.75961" lon="1.89829">
        <ele>224.2</ele>
        <time>2022-05-20 23:44:40</time>
      </trkpt>
      <trkpt lat="41.75962" lon="1.89836">
        <ele>224.2</ele>
        <time>2022-05-20 23:44:41</time>
      </trkpt>
      <trkpt lat="41.75963" lon="1.89844">
        <ele>224.4</ele>
        <time>2022-05-20 23:44:42</time>
      </trkpt>
      <trkpt lat="41.75964" lon="1.89851">
        <ele>224.4</ele>
        <time>2022-05-20 23:44:43</time>
      </trkpt>
      <trkpt lat="41.75964" lon="1.89859">
        <ele>224.4</ele>
        <time>2022-05-20 23:44:44</time>
      </trkpt>
      <trkpt lat="41.75965" lon="1.89866">
        <ele>224.4</ele>
        <time>2022-05-20 23:44:45</time>
      </trkpt>
      <trkpt lat="41.75967" lon="1.89873">
        <ele>224.4</ele>
        <time>2022-05-20 23:44:46</time>
      </trkpt>
      <trkpt lat="41.75971" lon="1.89878">
        <ele>224.6</ele>
        <time>2022-05-20 23:44:47</time>
      </trkpt>
      <trkpt lat="41.75976" lon="1.89882">
        <ele>224.6</ele>
        <time>2022-05-20 23:44:48</time>
      </trkpt>
      <trkpt lat="41.75981" lon="1.89885">
        <ele>224.6</ele>
        <time>2022-05-20 23:44:49</time>
      </trkpt>
      <trkpt lat="41.75986" lon="1.89889">
        <ele>224.6</ele>
        <time>2022-05-20 23:44:50</time>
      </trkpt>
      <trkpt lat="41.75991" lon="1.89892">
        <ele>224.6</ele>
        <time>2022-05-20 23:44:51</time>
      </trkpt>
      <trkpt lat="41.75996" lon="1.89897">
        <ele>224.8</ele>
        <time>2022-05-20 23:44:52</time>
      </trkpt>
      <trkpt lat="41.76001" lon="1.89902">
        <ele>224.8</ele>
        <time>2022-05-20 23:44:53</time>
      </trkpt>
      <trkpt lat="41.76005" lon="1.89908">
        <ele>225</ele>
        <time>2022-05-20 23:44:54</time>
      </trkpt>
      <trkpt lat="41.76009" lon="1.89914">
        <ele>225</ele>
        <time>2022-05-20 23:44:55</time>
      </trkpt>
      <trkpt lat="41.76013" lon="1.8992">
        <ele>225.2</ele>
        <time>2022-05-20 23:44:56</time>
      </trkpt>
      <trkpt lat="41.76016" lon="1.89925">
        <ele>225.2</ele>
        <time>2022-05-20 23:44:57</time>
      </trkpt>
      <trkpt lat="41.7602" lon="1.89932">
        <ele>225.2</ele>
        <time>2022-05-20 23:44:58</time>
      </trkpt>
      <trkpt lat="41.76023" lon="1.89938">
        <ele>225.4</ele>
        <time>2022-05-20 23:44:59</time>
      </trkpt>
      <trkpt lat="41.76026" lon="1.89944">
        <ele>225.4</ele>
        <time>2022-05-20 23:45:00</time>
      </trkpt>
      <trkpt lat="41.76029" lon="1.89949">
        <ele>225.4</ele>
        <time>2022-05-20 23:45:01</time>
      </trkpt>
      <trkpt lat="41.76033" lon="1.89956">
        <ele>225.4</ele>
        <time>2022-05-20 23:45:02</time>
      </trkpt>
      <trkpt lat="41.76036" lon="1.89962">
        <ele>225.4</ele>
        <time>2022-05-20 23:45:03</time>
      </trkpt>
      <trkpt lat="41.7604" lon="1.89967">
        <ele>225.4</ele>
        <time>2022-05-20 23:45:04</time>
      </trkpt>
      <trkpt lat="41.76044" lon="1.89974">
        <ele>225.6</ele>
        <time>2022-05-20 23:45:05</time>
      </trkpt>
      <trkpt lat="41.76047" lon="1.89979">
        <ele>225.6</ele>
        <time>2022-05-20 23:45:06</time>
      </trkpt>
      <trkpt lat="41.7605" lon="1.89986">
        <ele>225.6</ele>
        <time>2022-05-20 23:45:07</time>
      </trkpt>
      <trkpt lat="41.76052" lon="1.89993">
        <ele>225.6</ele>
        <time>2022-05-20 23:45:08</time>
      </trkpt>
      <trkpt lat="41.76055" lon="1.9">
        <ele>225.4</ele>
        <time>2022-05-20 23:45:09</time>
      </trkpt>
      <trkpt lat="41.76057" lon="1.90007">
        <ele>225.4</ele>
        <time>2022-05-20 23:45:10</time>
      </trkpt>
      <trkpt lat="41.76059" lon="1.90015">
        <ele>225.4</ele>
        <time>2022-05-20 23:45:11</time>
      </trkpt>
      <trkpt lat="41.7606" lon="1.90023">
        <ele>225.4</ele>
        <time>2022-05-20 23:45:12</time>
      </trkpt>
      <trkpt lat="41.7606" lon="1.90032">
        <ele>225.4</ele>
        <time>2022-05-20 23:45:13</time>
      </trkpt>
      <trkpt lat="41.7606" lon="1.9004">
        <ele>225.2</ele>
        <time>2022-05-20 23:45:14</time>
      </trkpt>
      <trkpt lat="41.7606" lon="1.90048">
        <ele>225.2</ele>
        <time>2022-05-20 23:45:15</time>
      </trkpt>
      <trkpt lat="41.76059" lon="1.90056">
        <ele>225.2</ele>
        <time>2022-05-20 23:45:16</time>
      </trkpt>
      <trkpt lat="41.76056" lon="1.90064">
        <ele>225.2</ele>
        <time>2022-05-20 23:45:17</time>
      </trkpt>
      <trkpt lat="41.76054" lon="1.90072">
        <ele>225.2</ele>
        <time>2022-05-20 23:45:18</time>
      </trkpt>
      <trkpt lat="41.76051" lon="1.90079">
        <ele>225.2</ele>
        <time>2022-05-20 23:45:19</time>
      </trkpt>
      <trkpt lat="41.76048" lon="1.90086">
        <ele>225.2</ele>
        <time>2022-05-20 23:45:20</time>
      </trkpt>
      <trkpt lat="41.76044" lon="1.90093">
        <ele>225.2</ele>
        <time>2022-05-20 23:45:21</time>
      </trkpt>
      <trkpt lat="41.76041" lon="1.901">
        <ele>225.2</ele>
        <time>2022-05-20 23:45:22</time>
      </trkpt>
      <trkpt lat="41.76037" lon="1.90107">
        <ele>225.2</ele>
        <time>2022-05-20 23:45:23</time>
      </trkpt>
      <trkpt lat="41.76034" lon="1.90114">
        <ele>225</ele>
        <time>2022-05-20 23:45:24</time>
      </trkpt>
      <trkpt lat="41.76031" lon="1.90121">
        <ele>225.2</ele>
        <time>2022-05-20 23:45:25</time>
      </trkpt>
      <trkpt lat="41.76027" lon="1.90128">
        <ele>225.2</ele>
        <time>2022-05-20 23:45:26</time>
      </trkpt>
      <trkpt lat="41.76023" lon="1.90135">
        <ele>225.2</ele>
        <time>2022-05-20 23:45:27</time>
      </trkpt>
      <trkpt lat="41.7602" lon="1.90141">
        <ele>225.2</ele>
        <time>2022-05-20 23:45:28</time>
      </trkpt>
      <trkpt lat="41.76016" lon="1.90148">
        <ele>225.2</ele>
        <time>2022-05-20 23:45:29</time>
      </trkpt>
      <trkpt lat="41.76012" lon="1.90154">
        <ele>225.2</ele>
        <time>2022-05-20 23:45:30</time>
      </trkpt>
      <trkpt lat="41.76009" lon="1.90161">
        <ele>225.2</ele>
        <time>2022-05-20 23:45:31</time>
      </trkpt>
      <trkpt lat="41.76006" lon="1.90167">
        <ele>225.2</ele>
        <time>2022-05-20 23:45:32</time>
      </trkpt>
      <trkpt lat="41.76003" lon="1.90174">
        <ele>225.2</ele>
        <time>2022-05-20 23:45:33</time>
      </trkpt>
      <trkpt lat="41.76" lon="1.9018">
        <ele>225.2</ele>
        <time>2022-05-20 23:45:34</time>
      </trkpt>
      <trkpt lat="41.75997" lon="1.90186">
        <ele>225.2</ele>
        <time>2022-05-20 23:45:35</time>
      </trkpt>
      <trkpt lat="41.75994" lon="1.90193">
        <ele>225.2</ele>
        <time>2022-05-20 23:45:36</time>
      </trkpt>
      <trkpt lat="41.7599" lon="1.90199">
        <ele>225.2</ele>
        <time>2022-05-20 23:45:37</time>
      </trkpt>
      <trkpt lat="41.75987" lon="1.90205">
        <ele>225.2</ele>
        <time>2022-05-20 23:45:38</time>
      </trkpt>
      <trkpt lat="41.75984" lon="1.90212">
        <ele>225.2</ele>
        <time>2022-05-20 23:45:39</time>
      </trkpt>
      <trkpt lat="41.75981" lon="1.90218">
        <ele>225.2</ele>
        <time>2022-05-20 23:45:40</time>
      </trkpt>
      <trkpt lat="41.75977" lon="1.90225">
        <ele>225.2</ele>
        <time>2022-05-20 23:45:41</time>
      </trkpt>
      <trkpt lat="41.75974" lon="1.90231">
        <ele>225.2</ele>
        <time>2022-05-20 23:45:42</time>
      </trkpt>
      <trkpt lat="41.7597" lon="1.90238">
        <ele>225.2</ele>
        <time>2022-05-20 23:45:43</time>
      </trkpt>
      <trkpt lat="41.75967" lon="1.90244">
        <ele>225.2</ele>
        <time>2022-05-20 23:45:44</time>
      </trkpt>
      <trkpt lat="41.75964" lon="1.90251">
        <ele>225.2</ele>
        <time>2022-05-20 23:45:45</time>
      </trkpt>
      <trkpt lat="41.7596" lon="1.90257">
        <ele>225.2</ele>
        <time>2022-05-20 23:45:46</time>
      </trkpt>
      <trkpt lat="41.75956" lon="1.90263">
        <ele>225.4</ele>
        <time>2022-05-20 23:45:47</time>
      </trkpt>
      <trkpt lat="41.75952" lon="1.90268">
        <ele>225.4</ele>
        <time>2022-05-20 23:45:48</time>
      </trkpt>
      <trkpt lat="41.75948" lon="1.90273">
        <ele>225.6</ele>
        <time>2022-05-20 23:45:49</time>
      </trkpt>
      <trkpt lat="41.75943" lon="1.90278">
        <ele>225.8</ele>
        <time>2022-05-20 23:45:50</time>
      </trkpt>
      <trkpt lat="41.7594" lon="1.90283">
        <ele>226</ele>
        <time>2022-05-20 23:45:51</time>
      </trkpt>
      <trkpt lat="41.75937" lon="1.90289">
        <ele>226.2</ele>
        <time>2022-05-20 23:45:52</time>
      </trkpt>
      <trkpt lat="41.75937" lon="1.90295">
        <ele>226.4</ele>
        <time>2022-05-20 23:45:53</time>
      </trkpt>
      <trkpt lat="41.75938" lon="1.90301">
        <ele>226.6</ele>
        <time>2022-05-20 23:45:54</time>
      </trkpt>
      <trkpt lat="41.7594" lon="1.90306">
        <ele>226.8</ele>
        <time>2022-05-20 23:45:55</time>
      </trkpt>
      <trkpt lat="41.75942" lon="1.90311">
        <ele>227</ele>
        <time>2022-05-20 23:45:56</time>
      </trkpt>
      <trkpt lat="41.75944" lon="1.90317">
        <ele>227.2</ele>
        <time>2022-05-20 23:45:57</time>
      </trkpt>
      <trkpt lat="41.75947" lon="1.90322">
        <ele>227.4</ele>
        <time>2022-05-20 23:45:58</time>
      </trkpt>
      <trkpt lat="41.75949" lon="1.90327">
        <ele>227.4</ele>
        <time>2022-05-20 23:45:59</time>
      </trkpt>
      <trkpt lat="41.75952" lon="1.90332">
        <ele>227.6</ele>
        <time>2022-05-20 23:46:00</time>
      </trkpt>
      <trkpt lat="41.75955" lon="1.90337">
        <ele>227.8</ele>
        <time>2022-05-20 23:46:01</time>
      </trkpt>
      <trkpt lat="41.75958" lon="1.90342">
        <ele>228.2</ele>
        <time>2022-05-20 23:46:02</time>
      </trkpt>
      <trkpt lat="41.75961" lon="1.90347">
        <ele>228.4</ele>
        <time>2022-05-20 23:46:03</time>
      </trkpt>
      <trkpt lat="41.75963" lon="1.90352">
        <ele>228.6</ele>
        <time>2022-05-20 23:46:04</time>
      </trkpt>
      <trkpt lat="41.75965" lon="1.90356">
        <ele>228.8</ele>
        <time>2022-05-20 23:46:05</time>
      </trkpt>
      <trkpt lat="41.75968" lon="1.9036">
        <ele>229</ele>
        <time>2022-05-20 23:46:06</time>
      </trkpt>
      <trkpt lat="41.75971" lon="1.90364">
        <ele>229.4</ele>
        <time>2022-05-20 23:46:07</time>
      </trkpt>
      <trkpt lat="41.75974" lon="1.90368">
        <ele>229.6</ele>
        <time>2022-05-20 23:46:08</time>
      </trkpt>
      <trkpt lat="41.75977" lon="1.90371">
        <ele>229.8</ele>
        <time>2022-05-20 23:46:09</time>
      </trkpt>
      <trkpt lat="41.7598" lon="1.90375">
        <ele>230</ele>
        <time>2022-05-20 23:46:10</time>
      </trkpt>
      <trkpt lat="41.75982" lon="1.90378">
        <ele>230.2</ele>
        <time>2022-05-20 23:46:11</time>
      </trkpt>
      <trkpt lat="41.75985" lon="1.90382">
        <ele>230.4</ele>
        <time>2022-05-20 23:46:12</time>
      </trkpt>
      <trkpt lat="41.75988" lon="1.90385">
        <ele>230.6</ele>
        <time>2022-05-20 23:46:13</time>
      </trkpt>
      <trkpt lat="41.7599" lon="1.90389">
        <ele>230.8</ele>
        <time>2022-05-20 23:46:14</time>
      </trkpt>
      <trkpt lat="41.75993" lon="1.90392">
        <ele>231</ele>
        <time>2022-05-20 23:46:15</time>
      </trkpt>
      <trkpt lat="41.75995" lon="1.90396">
        <ele>231.2</ele>
        <time>2022-05-20 23:46:16</time>
      </trkpt>
      <trkpt lat="41.75998" lon="1.904">
        <ele>231.4</ele>
        <time>2022-05-20 23:46:17</time>
      </trkpt>
      <trkpt lat="41.76001" lon="1.90404">
        <ele>231.6</ele>
        <time>2022-05-20 23:46:18</time>
      </trkpt>
      <trkpt lat="41.76004" lon="1.90407">
        <ele>231.8</ele>
        <time>2022-05-20 23:46:19</time>
      </trkpt>
      <trkpt lat="41.76006" lon="1.90411">
        <ele>232</ele>
        <time>2022-05-20 23:46:20</time>
      </trkpt>
      <trkpt lat="41.76009" lon="1.90415">
        <ele>232.2</ele>
        <time>2022-05-20 23:46:21</time>
      </trkpt>
      <trkpt lat="41.76011" lon="1.90418">
        <ele>232.4</ele>
        <time>2022-05-20 23:46:22</time>
      </trkpt>
      <trkpt lat="41.76014" lon="1.90422">
        <ele>232.6</ele>
        <time>2022-05-20 23:46:23</time>
      </trkpt>
      <trkpt lat="41.76017" lon="1.90426">
        <ele>232.8</ele>
        <time>2022-05-20 23:46:24</time>
      </trkpt>
      <trkpt lat="41.76019" lon="1.9043">
        <ele>232.8</ele>
        <time>2022-05-20 23:46:25</time>
      </trkpt>
      <trkpt lat="41.76022" lon="1.90433">
        <ele>233</ele>
        <time>2022-05-20 23:46:26</time>
      </trkpt>
      <trkpt lat="41.76025" lon="1.90436">
        <ele>233.4</ele>
        <time>2022-05-20 23:46:27</time>
      </trkpt>
      <trkpt lat="41.76027" lon="1.9044">
        <ele>233.6</ele>
        <time>2022-05-20 23:46:28</time>
      </trkpt>
      <trkpt lat="41.7603" lon="1.90443">
        <ele>233.8</ele>
        <time>2022-05-20 23:46:29</time>
      </trkpt>
      <trkpt lat="41.76032" lon="1.90446">
        <ele>234</ele>
        <time>2022-05-20 23:46:30</time>
      </trkpt>
      <trkpt lat="41.76035" lon="1.90449">
        <ele>234.2</ele>
        <time>2022-05-20 23:46:31</time>
      </trkpt>
      <trkpt lat="41.76038" lon="1.90452">
        <ele>234.4</ele>
        <time>2022-05-20 23:46:32</time>
      </trkpt>
      <trkpt lat="41.76041" lon="1.90456">
        <ele>234.4</ele>
        <time>2022-05-20 23:46:33</time>
      </trkpt>
      <trkpt lat="41.76044" lon="1.90459">
        <ele>234.6</ele>
        <time>2022-05-20 23:46:34</time>
      </trkpt>
      <trkpt lat="41.76046" lon="1.90463">
        <ele>234.8</ele>
        <time>2022-05-20 23:46:35</time>
      </trkpt>
      <trkpt lat="41.76049" lon="1.90466">
        <ele>235</ele>
        <time>2022-05-20 23:46:36</time>
      </trkpt>
      <trkpt lat="41.76051" lon="1.9047">
        <ele>235.2</ele>
        <time>2022-05-20 23:46:37</time>
      </trkpt>
      <trkpt lat="41.76054" lon="1.90473">
        <ele>235.4</ele>
        <time>2022-05-20 23:46:38</time>
      </trkpt>
      <trkpt lat="41.76057" lon="1.90477">
        <ele>235.6</ele>
        <time>2022-05-20 23:46:39</time>
      </trkpt>
      <trkpt lat="41.76059" lon="1.9048">
        <ele>235.8</ele>
        <time>2022-05-20 23:46:40</time>
      </trkpt>
      <trkpt lat="41.76062" lon="1.90483">
        <ele>236</ele>
        <time>2022-05-20 23:46:41</time>
      </trkpt>
      <trkpt lat="41.76065" lon="1.90486">
        <ele>236.2</ele>
        <time>2022-05-20 23:46:42</time>
      </trkpt>
      <trkpt lat="41.76068" lon="1.9049">
        <ele>236.4</ele>
        <time>2022-05-20 23:46:43</time>
      </trkpt>
      <trkpt lat="41.76071" lon="1.90493">
        <ele>236.4</ele>
        <time>2022-05-20 23:46:44</time>
      </trkpt>
      <trkpt lat="41.76073" lon="1.90496">
        <ele>236.6</ele>
        <time>2022-05-20 23:46:45</time>
      </trkpt>
      <trkpt lat="41.76077" lon="1.90499">
        <ele>236.8</ele>
        <time>2022-05-20 23:46:46</time>
      </trkpt>
      <trkpt lat="41.7608" lon="1.90502">
        <ele>237</ele>
        <time>2022-05-20 23:46:47</time>
      </trkpt>
      <trkpt lat="41.76082" lon="1.90505">
        <ele>237.2</ele>
        <time>2022-05-20 23:46:48</time>
      </trkpt>
      <trkpt lat="41.76085" lon="1.90508">
        <ele>237.4</ele>
        <time>2022-05-20 23:46:49</time>
      </trkpt>
      <trkpt lat="41.76088" lon="1.90511">
        <ele>237.6</ele>
        <time>2022-05-20 23:46:50</time>
      </trkpt>
      <trkpt lat="41.76091" lon="1.90514">
        <ele>237.8</ele>
        <time>2022-05-20 23:46:51</time>
      </trkpt>
      <trkpt lat="41.76094" lon="1.90517">
        <ele>238</ele>
        <time>2022-05-20 23:46:52</time>
      </trkpt>
      <trkpt lat="41.76097" lon="1.9052">
        <ele>238</ele>
        <time>2022-05-20 23:46:53</time>
      </trkpt>
      <trkpt lat="41.761" lon="1.90523">
        <ele>238.2</ele>
        <time>2022-05-20 23:46:54</time>
      </trkpt>
      <trkpt lat="41.76103" lon="1.90526">
        <ele>238.4</ele>
        <time>2022-05-20 23:46:55</time>
      </trkpt>
      <trkpt lat="41.76107" lon="1.90529">
        <ele>238.6</ele>
        <time>2022-05-20 23:46:56</time>
      </trkpt>
      <trkpt lat="41.7611" lon="1.90531">
        <ele>238.8</ele>
        <time>2022-05-20 23:46:57</time>
      </trkpt>
      <trkpt lat="41.76113" lon="1.90533">
        <ele>239</ele>
        <time>2022-05-20 23:46:58</time>
      </trkpt>
      <trkpt lat="41.76116" lon="1.90536">
        <ele>239.2</ele>
        <time>2022-05-20 23:46:59</time>
      </trkpt>
      <trkpt lat="41.76119" lon="1.90538">
        <ele>239.4</ele>
        <time>2022-05-20 23:47:00</time>
      </trkpt>
      <trkpt lat="41.76123" lon="1.9054">
        <ele>239.6</ele>
        <time>2022-05-20 23:47:01</time>
      </trkpt>
      <trkpt lat="41.76126" lon="1.90542">
        <ele>239.8</ele>
        <time>2022-05-20 23:47:02</time>
      </trkpt>
      <trkpt lat="41.76129" lon="1.90545">
        <ele>240</ele>
        <time>2022-05-20 23:47:03</time>
      </trkpt>
      <trkpt lat="41.76132" lon="1.90547">
        <ele>240.2</ele>
        <time>2022-05-20 23:47:04</time>
      </trkpt>
      <trkpt lat="41.76136" lon="1.90549">
        <ele>240.4</ele>
        <time>2022-05-20 23:47:05</time>
      </trkpt>
      <trkpt lat="41.76139" lon="1.90551">
        <ele>240.6</ele>
        <time>2022-05-20 23:47:06</time>
      </trkpt>
      <trkpt lat="41.76142" lon="1.90553">
        <ele>240.8</ele>
        <time>2022-05-20 23:47:07</time>
      </trkpt>
      <trkpt lat="41.76145" lon="1.90556">
        <ele>240.8</ele>
        <time>2022-05-20 23:47:08</time>
      </trkpt>
      <trkpt lat="41.76149" lon="1.90558">
        <ele>241</ele>
        <time>2022-05-20 23:47:09</time>
      </trkpt>
      <trkpt lat="41.76152" lon="1.90561">
        <ele>241.2</ele>
        <time>2022-05-20 23:47:10</time>
      </trkpt>
      <trkpt lat="41.76155" lon="1.90563">
        <ele>241.4</ele>
        <time>2022-05-20 23:47:11</time>
      </trkpt>
      <trkpt lat="41.76159" lon="1.90565">
        <ele>241.6</ele>
        <time>2022-05-20 23:47:12</time>
      </trkpt>
      <trkpt lat="41.76162" lon="1.90567">
        <ele>241.8</ele>
        <time>2022-05-20 23:47:13</time>
      </trkpt>
      <trkpt lat="41.76165" lon="1.9057">
        <ele>241.8</ele>
        <time>2022-05-20 23:47:14</time>
      </trkpt>
      <trkpt lat="41.76168" lon="1.90572">
        <ele>242</ele>
        <time>2022-05-20 23:47:15</time>
      </trkpt>
      <trkpt lat="41.76172" lon="1.90575">
        <ele>242.2</ele>
        <time>2022-05-20 23:47:16</time>
      </trkpt>
      <trkpt lat="41.76175" lon="1.90577">
        <ele>242.4</ele>
        <time>2022-05-20 23:47:17</time>
      </trkpt>
      <trkpt lat="41.76178" lon="1.9058">
        <ele>242.6</ele>
        <time>2022-05-20 23:47:18</time>
      </trkpt>
      <trkpt lat="41.76181" lon="1.90582">
        <ele>242.8</ele>
        <time>2022-05-20 23:47:19</time>
      </trkpt>
      <trkpt lat="41.76184" lon="1.90585">
        <ele>243</ele>
        <time>2022-05-20 23:47:20</time>
      </trkpt>
      <trkpt lat="41.76188" lon="1.90587">
        <ele>243</ele>
        <time>2022-05-20 23:47:21</time>
      </trkpt>
      <trkpt lat="41.76191" lon="1.90589">
        <ele>243.2</ele>
        <time>2022-05-20 23:47:22</time>
      </trkpt>
      <trkpt lat="41.76194" lon="1.90592">
        <ele>243.4</ele>
        <time>2022-05-20 23:47:23</time>
      </trkpt>
      <trkpt lat="41.76197" lon="1.90594">
        <ele>243.6</ele>
        <time>2022-05-20 23:47:24</time>
      </trkpt>
      <trkpt lat="41.762" lon="1.90597">
        <ele>243.8</ele>
        <time>2022-05-20 23:47:25</time>
      </trkpt>
      <trkpt lat="41.76204" lon="1.90599">
        <ele>244</ele>
        <time>2022-05-20 23:47:26</time>
      </trkpt>
      <trkpt lat="41.76207" lon="1.90602">
        <ele>244.2</ele>
        <time>2022-05-20 23:47:27</time>
      </trkpt>
      <trkpt lat="41.7621" lon="1.90604">
        <ele>244.4</ele>
        <time>2022-05-20 23:47:28</time>
      </trkpt>
      <trkpt lat="41.76213" lon="1.90607">
        <ele>244.6</ele>
        <time>2022-05-20 23:47:29</time>
      </trkpt>
      <trkpt lat="41.76217" lon="1.90609">
        <ele>244.6</ele>
        <time>2022-05-20 23:47:30</time>
      </trkpt>
      <trkpt lat="41.7622" lon="1.90612">
        <ele>244.8</ele>
        <time>2022-05-20 23:47:31</time>
      </trkpt>
      <trkpt lat="41.76223" lon="1.90614">
        <ele>245</ele>
        <time>2022-05-20 23:47:32</time>
      </trkpt>
      <trkpt lat="41.76226" lon="1.90616">
        <ele>245.2</ele>
        <time>2022-05-20 23:47:33</time>
      </trkpt>
      <trkpt lat="41.7623" lon="1.90619">
        <ele>245.4</ele>
        <time>2022-05-20 23:47:34</time>
      </trkpt>
      <trkpt lat="41.76233" lon="1.90621">
        <ele>245.6</ele>
        <time>2022-05-20 23:47:35</time>
      </trkpt>
      <trkpt lat="41.76237" lon="1.90624">
        <ele>245.8</ele>
        <time>2022-05-20 23:47:36</time>
      </trkpt>
      <trkpt lat="41.7624" lon="1.90626">
        <ele>246</ele>
        <time>2022-05-20 23:47:37</time>
      </trkpt>
      <trkpt lat="41.76243" lon="1.90629">
        <ele>246.2</ele>
        <time>2022-05-20 23:47:38</time>
      </trkpt>
      <trkpt lat="41.76246" lon="1.90632">
        <ele>246.2</ele>
        <time>2022-05-20 23:47:39</time>
      </trkpt>
      <trkpt lat="41.7625" lon="1.90634">
        <ele>246.4</ele>
        <time>2022-05-20 23:47:40</time>
      </trkpt>
      <trkpt lat="41.76253" lon="1.90637">
        <ele>246.6</ele>
        <time>2022-05-20 23:47:41</time>
      </trkpt>
      <trkpt lat="41.76257" lon="1.9064">
        <ele>246.8</ele>
        <time>2022-05-20 23:47:42</time>
      </trkpt>
      <trkpt lat="41.7626" lon="1.90643">
        <ele>247</ele>
        <time>2022-05-20 23:47:43</time>
      </trkpt>
      <trkpt lat="41.76263" lon="1.90646">
        <ele>247.2</ele>
        <time>2022-05-20 23:47:44</time>
      </trkpt>
      <trkpt lat="41.76266" lon="1.90649">
        <ele>247.4</ele>
        <time>2022-05-20 23:47:45</time>
      </trkpt>
      <trkpt lat="41.76269" lon="1.90652">
        <ele>247.6</ele>
        <time>2022-05-20 23:47:46</time>
      </trkpt>
      <trkpt lat="41.76272" lon="1.90655">
        <ele>247.8</ele>
        <time>2022-05-20 23:47:47</time>
      </trkpt>
      <trkpt lat="41.76274" lon="1.90658">
        <ele>248</ele>
        <time>2022-05-20 23:47:48</time>
      </trkpt>
      <trkpt lat="41.76278" lon="1.90662">
        <ele>248.2</ele>
        <time>2022-05-20 23:47:49</time>
      </trkpt>
      <trkpt lat="41.7628" lon="1.90665">
        <ele>248.4</ele>
        <time>2022-05-20 23:47:50</time>
      </trkpt>
      <trkpt lat="41.76283" lon="1.90667">
        <ele>248.4</ele>
        <time>2022-05-20 23:47:51</time>
      </trkpt>
      <trkpt lat="41.76286" lon="1.90671">
        <ele>248.6</ele>
        <time>2022-05-20 23:47:52</time>
      </trkpt>
      <trkpt lat="41.76288" lon="1.90674">
        <ele>248.8</ele>
        <time>2022-05-20 23:47:53</time>
      </trkpt>
      <trkpt lat="41.76291" lon="1.90677">
        <ele>249</ele>
        <time>2022-05-20 23:47:54</time>
      </trkpt>
      <trkpt lat="41.76293" lon="1.90681">
        <ele>249.2</ele>
        <time>2022-05-20 23:47:55</time>
      </trkpt>
      <trkpt lat="41.76296" lon="1.90684">
        <ele>249.4</ele>
        <time>2022-05-20 23:47:56</time>
      </trkpt>
      <trkpt lat="41.76299" lon="1.90687">
        <ele>249.6</ele>
        <time>2022-05-20 23:47:57</time>
      </trkpt>
      <trkpt lat="41.76302" lon="1.90691">
        <ele>249.8</ele>
        <time>2022-05-20 23:47:58</time>
      </trkpt>
      <trkpt lat="41.76304" lon="1.90694">
        <ele>250</ele>
        <time>2022-05-20 23:47:59</time>
      </trkpt>
      <trkpt lat="41.76307" lon="1.90697">
        <ele>250.2</ele>
        <time>2022-05-20 23:48:00</time>
      </trkpt>
      <trkpt lat="41.7631" lon="1.907">
        <ele>250.4</ele>
        <time>2022-05-20 23:48:01</time>
      </trkpt>
      <trkpt lat="41.76313" lon="1.90703">
        <ele>250.6</ele>
        <time>2022-05-20 23:48:02</time>
      </trkpt>
      <trkpt lat="41.76316" lon="1.90706">
        <ele>250.8</ele>
        <time>2022-05-20 23:48:03</time>
      </trkpt>
      <trkpt lat="41.76318" lon="1.9071">
        <ele>251</ele>
        <time>2022-05-20 23:48:04</time>
      </trkpt>
      <trkpt lat="41.76321" lon="1.90713">
        <ele>251.2</ele>
        <time>2022-05-20 23:48:05</time>
      </trkpt>
      <trkpt lat="41.76323" lon="1.90717">
        <ele>251.4</ele>
        <time>2022-05-20 23:48:06</time>
      </trkpt>
      <trkpt lat="41.76326" lon="1.90721">
        <ele>251.6</ele>
        <time>2022-05-20 23:48:07</time>
      </trkpt>
      <trkpt lat="41.76328" lon="1.90724">
        <ele>251.8</ele>
        <time>2022-05-20 23:48:08</time>
      </trkpt>
      <trkpt lat="41.76331" lon="1.90728">
        <ele>252</ele>
        <time>2022-05-20 23:48:09</time>
      </trkpt>
      <trkpt lat="41.76334" lon="1.90731">
        <ele>252.2</ele>
        <time>2022-05-20 23:48:10</time>
      </trkpt>
      <trkpt lat="41.76337" lon="1.90735">
        <ele>252.4</ele>
        <time>2022-05-20 23:48:11</time>
      </trkpt>
      <trkpt lat="41.76339" lon="1.90738">
        <ele>252.4</ele>
        <time>2022-05-20 23:48:12</time>
      </trkpt>
      <trkpt lat="41.76342" lon="1.90742">
        <ele>252.6</ele>
        <time>2022-05-20 23:48:13</time>
      </trkpt>
      <trkpt lat="41.76345" lon="1.90745">
        <ele>252.8</ele>
        <time>2022-05-20 23:48:14</time>
      </trkpt>
      <trkpt lat="41.76348" lon="1.90749">
        <ele>253</ele>
        <time>2022-05-20 23:48:15</time>
      </trkpt>
      <trkpt lat="41.7635" lon="1.90753">
        <ele>253.2</ele>
        <time>2022-05-20 23:48:16</time>
      </trkpt>
      <trkpt lat="41.76353" lon="1.90756">
        <ele>253.4</ele>
        <time>2022-05-20 23:48:17</time>
      </trkpt>
      <trkpt lat="41.76356" lon="1.9076">
        <ele>253.6</ele>
        <time>2022-05-20 23:48:18</time>
      </trkpt>
      <trkpt lat="41.76358" lon="1.90763">
        <ele>253.8</ele>
        <time>2022-05-20 23:48:19</time>
      </trkpt>
      <trkpt lat="41.76361" lon="1.90766">
        <ele>254</ele>
        <time>2022-05-20 23:48:20</time>
      </trkpt>
      <trkpt lat="41.76365" lon="1.90769">
        <ele>254</ele>
        <time>2022-05-20 23:48:21</time>
      </trkpt>
      <trkpt lat="41.76368" lon="1.90773">
        <ele>254.2</ele>
        <time>2022-05-20 23:48:22</time>
      </trkpt>
      <trkpt lat="41.7637" lon="1.90776">
        <ele>254.4</ele>
        <time>2022-05-20 23:48:23</time>
      </trkpt>
      <trkpt lat="41.76373" lon="1.9078">
        <ele>254.6</ele>
        <time>2022-05-20 23:48:24</time>
      </trkpt>
      <trkpt lat="41.76376" lon="1.90783">
        <ele>254.8</ele>
        <time>2022-05-20 23:48:25</time>
      </trkpt>
      <trkpt lat="41.76379" lon="1.90787">
        <ele>255</ele>
        <time>2022-05-20 23:48:26</time>
      </trkpt>
      <trkpt lat="41.76382" lon="1.9079">
        <ele>255</ele>
        <time>2022-05-20 23:48:27</time>
      </trkpt>
      <trkpt lat="41.76385" lon="1.90794">
        <ele>255.2</ele>
        <time>2022-05-20 23:48:28</time>
      </trkpt>
      <trkpt lat="41.76388" lon="1.90798">
        <ele>255.4</ele>
        <time>2022-05-20 23:48:29</time>
      </trkpt>
      <trkpt lat="41.7639" lon="1.90801">
        <ele>255.6</ele>
        <time>2022-05-20 23:48:30</time>
      </trkpt>
      <trkpt lat="41.76393" lon="1.90804">
        <ele>255.8</ele>
        <time>2022-05-20 23:48:31</time>
      </trkpt>
      <trkpt lat="41.76396" lon="1.90808">
        <ele>256</ele>
        <time>2022-05-20 23:48:32</time>
      </trkpt>
      <trkpt lat="41.76398" lon="1.90811">
        <ele>256</ele>
        <time>2022-05-20 23:48:33</time>
      </trkpt>
      <trkpt lat="41.76401" lon="1.90815">
        <ele>256.2</ele>
        <time>2022-05-20 23:48:34</time>
      </trkpt>
      <trkpt lat="41.76404" lon="1.90819">
        <ele>256.4</ele>
        <time>2022-05-20 23:48:35</time>
      </trkpt>
      <trkpt lat="41.76406" lon="1.90822">
        <ele>256.6</ele>
        <time>2022-05-20 23:48:36</time>
      </trkpt>
      <trkpt lat="41.7641" lon="1.90826">
        <ele>256.8</ele>
        <time>2022-05-20 23:48:37</time>
      </trkpt>
      <trkpt lat="41.76413" lon="1.90829">
        <ele>256.8</ele>
        <time>2022-05-20 23:48:38</time>
      </trkpt>
      <trkpt lat="41.76416" lon="1.90833">
        <ele>257</ele>
        <time>2022-05-20 23:48:39</time>
      </trkpt>
      <trkpt lat="41.76418" lon="1.90836">
        <ele>257.2</ele>
        <time>2022-05-20 23:48:40</time>
      </trkpt>
      <trkpt lat="41.76421" lon="1.9084">
        <ele>257.4</ele>
        <time>2022-05-20 23:48:41</time>
      </trkpt>
      <trkpt lat="41.76424" lon="1.90844">
        <ele>257.4</ele>
        <time>2022-05-20 23:48:42</time>
      </trkpt>
      <trkpt lat="41.76427" lon="1.90847">
        <ele>257.6</ele>
        <time>2022-05-20 23:48:43</time>
      </trkpt>
      <trkpt lat="41.7643" lon="1.9085">
        <ele>257.8</ele>
        <time>2022-05-20 23:48:44</time>
      </trkpt>
      <trkpt lat="41.76433" lon="1.90854">
        <ele>258</ele>
        <time>2022-05-20 23:48:45</time>
      </trkpt>
      <trkpt lat="41.76435" lon="1.90857">
        <ele>258.2</ele>
        <time>2022-05-20 23:48:46</time>
      </trkpt>
      <trkpt lat="41.76438" lon="1.90861">
        <ele>258.2</ele>
        <time>2022-05-20 23:48:47</time>
      </trkpt>
      <trkpt lat="41.76441" lon="1.90865">
        <ele>258.4</ele>
        <time>2022-05-20 23:48:48</time>
      </trkpt>
      <trkpt lat="41.76443" lon="1.90868">
        <ele>258.6</ele>
        <time>2022-05-20 23:48:49</time>
      </trkpt>
      <trkpt lat="41.76447" lon="1.90872">
        <ele>258.8</ele>
        <time>2022-05-20 23:48:50</time>
      </trkpt>
      <trkpt lat="41.76449" lon="1.90876">
        <ele>258.8</ele>
        <time>2022-05-20 23:48:51</time>
      </trkpt>
      <trkpt lat="41.76451" lon="1.90881">
        <ele>259</ele>
        <time>2022-05-20 23:48:52</time>
      </trkpt>
      <trkpt lat="41.76453" lon="1.90886">
        <ele>259.2</ele>
        <time>2022-05-20 23:48:53</time>
      </trkpt>
      <trkpt lat="41.76454" lon="1.90891">
        <ele>259.4</ele>
        <time>2022-05-20 23:48:54</time>
      </trkpt>
      <trkpt lat="41.76455" lon="1.90895">
        <ele>259.6</ele>
        <time>2022-05-20 23:48:55</time>
      </trkpt>
      <trkpt lat="41.76456" lon="1.909">
        <ele>259.6</ele>
        <time>2022-05-20 23:48:56</time>
      </trkpt>
      <trkpt lat="41.76455" lon="1.90904">
        <ele>259.8</ele>
        <time>2022-05-20 23:48:57</time>
      </trkpt>
      <trkpt lat="41.76454" lon="1.90908">
        <ele>260.2</ele>
        <time>2022-05-20 23:48:58</time>
      </trkpt>
      <trkpt lat="41.76452" lon="1.90912">
        <ele>260.4</ele>
        <time>2022-05-20 23:48:59</time>
      </trkpt>
      <trkpt lat="41.76451" lon="1.90916">
        <ele>260.6</ele>
        <time>2022-05-20 23:49:00</time>
      </trkpt>
      <trkpt lat="41.76449" lon="1.90919">
        <ele>261</ele>
        <time>2022-05-20 23:49:01</time>
      </trkpt>
      <trkpt lat="41.76448" lon="1.90922">
        <ele>261.2</ele>
        <time>2022-05-20 23:49:02</time>
      </trkpt>
      <trkpt lat="41.76445" lon="1.90925">
        <ele>261.6</ele>
        <time>2022-05-20 23:49:03</time>
      </trkpt>
      <trkpt lat="41.76442" lon="1.90928">
        <ele>261.8</ele>
        <time>2022-05-20 23:49:04</time>
      </trkpt>
      <trkpt lat="41.7644" lon="1.90931">
        <ele>262</ele>
        <time>2022-05-20 23:49:05</time>
      </trkpt>
      <trkpt lat="41.76437" lon="1.90933">
        <ele>262.4</ele>
        <time>2022-05-20 23:49:06</time>
      </trkpt>
      <trkpt lat="41.76434" lon="1.90936">
        <ele>262.6</ele>
        <time>2022-05-20 23:49:07</time>
      </trkpt>
      <trkpt lat="41.76431" lon="1.90938">
        <ele>262.8</ele>
        <time>2022-05-20 23:49:08</time>
      </trkpt>
      <trkpt lat="41.76428" lon="1.9094">
        <ele>263.2</ele>
        <time>2022-05-20 23:49:09</time>
      </trkpt>
      <trkpt lat="41.76426" lon="1.90942">
        <ele>263.4</ele>
        <time>2022-05-20 23:49:10</time>
      </trkpt>
      <trkpt lat="41.76423" lon="1.90944">
        <ele>263.6</ele>
        <time>2022-05-20 23:49:11</time>
      </trkpt>
      <trkpt lat="41.7642" lon="1.90946">
        <ele>263.8</ele>
        <time>2022-05-20 23:49:12</time>
      </trkpt>
      <trkpt lat="41.76416" lon="1.90948">
        <ele>264</ele>
        <time>2022-05-20 23:49:13</time>
      </trkpt>
      <trkpt lat="41.76413" lon="1.90949">
        <ele>264.2</ele>
        <time>2022-05-20 23:49:14</time>
      </trkpt>
      <trkpt lat="41.76411" lon="1.90951">
        <ele>264.4</ele>
        <time>2022-05-20 23:49:15</time>
      </trkpt>
      <trkpt lat="41.76408" lon="1.90953">
        <ele>264.6</ele>
        <time>2022-05-20 23:49:16</time>
      </trkpt>
      <trkpt lat="41.76405" lon="1.90955">
        <ele>264.8</ele>
        <time>2022-05-20 23:49:17</time>
      </trkpt>
      <trkpt lat="41.76402" lon="1.90958">
        <ele>265</ele>
        <time>2022-05-20 23:49:18</time>
      </trkpt>
      <trkpt lat="41.764" lon="1.9096">
        <ele>265.2</ele>
        <time>2022-05-20 23:49:19</time>
      </trkpt>
      <trkpt lat="41.76397" lon="1.90963">
        <ele>265.4</ele>
        <time>2022-05-20 23:49:20</time>
      </trkpt>
      <trkpt lat="41.76395" lon="1.90967">
        <ele>265.6</ele>
        <time>2022-05-20 23:49:21</time>
      </trkpt>
      <trkpt lat="41.76392" lon="1.9097">
        <ele>265.8</ele>
        <time>2022-05-20 23:49:22</time>
      </trkpt>
      <trkpt lat="41.7639" lon="1.90973">
        <ele>266</ele>
        <time>2022-05-20 23:49:23</time>
      </trkpt>
      <trkpt lat="41.76389" lon="1.90977">
        <ele>266.2</ele>
        <time>2022-05-20 23:49:24</time>
      </trkpt>
      <trkpt lat="41.76387" lon="1.90982">
        <ele>266.4</ele>
        <time>2022-05-20 23:49:25</time>
      </trkpt>
      <trkpt lat="41.76386" lon="1.90986">
        <ele>266.6</ele>
        <time>2022-05-20 23:49:26</time>
      </trkpt>
      <trkpt lat="41.76385" lon="1.9099">
        <ele>266.8</ele>
        <time>2022-05-20 23:49:27</time>
      </trkpt>
      <trkpt lat="41.76384" lon="1.90994">
        <ele>267</ele>
        <time>2022-05-20 23:49:28</time>
      </trkpt>
      <trkpt lat="41.76384" lon="1.90999">
        <ele>267.2</ele>
        <time>2022-05-20 23:49:29</time>
      </trkpt>
      <trkpt lat="41.76383" lon="1.91003">
        <ele>267.4</ele>
        <time>2022-05-20 23:49:30</time>
      </trkpt>
      <trkpt lat="41.76383" lon="1.91007">
        <ele>267.6</ele>
        <time>2022-05-20 23:49:31</time>
      </trkpt>
      <trkpt lat="41.76382" lon="1.91012">
        <ele>267.8</ele>
        <time>2022-05-20 23:49:32</time>
      </trkpt>
      <trkpt lat="41.76382" lon="1.91016">
        <ele>268</ele>
        <time>2022-05-20 23:49:33</time>
      </trkpt>
      <trkpt lat="41.76382" lon="1.91021">
        <ele>268.2</ele>
        <time>2022-05-20 23:49:34</time>
      </trkpt>
      <trkpt lat="41.76382" lon="1.91026">
        <ele>268.4</ele>
        <time>2022-05-20 23:49:35</time>
      </trkpt>
      <trkpt lat="41.76382" lon="1.9103">
        <ele>268.6</ele>
        <time>2022-05-20 23:49:36</time>
      </trkpt>
      <trkpt lat="41.76383" lon="1.91035">
        <ele>268.8</ele>
        <time>2022-05-20 23:49:37</time>
      </trkpt>
      <trkpt lat="41.76383" lon="1.9104">
        <ele>269</ele>
        <time>2022-05-20 23:49:38</time>
      </trkpt>
      <trkpt lat="41.76384" lon="1.91044">
        <ele>269.2</ele>
        <time>2022-05-20 23:49:39</time>
      </trkpt>
      <trkpt lat="41.76385" lon="1.91049">
        <ele>269.4</ele>
        <time>2022-05-20 23:49:40</time>
      </trkpt>
      <trkpt lat="41.76385" lon="1.91053">
        <ele>269.6</ele>
        <time>2022-05-20 23:49:41</time>
      </trkpt>
      <trkpt lat="41.76386" lon="1.91058">
        <ele>269.8</ele>
        <time>2022-05-20 23:49:42</time>
      </trkpt>
      <trkpt lat="41.76387" lon="1.91063">
        <ele>270</ele>
        <time>2022-05-20 23:49:43</time>
      </trkpt>
      <trkpt lat="41.76387" lon="1.91067">
        <ele>270.2</ele>
        <time>2022-05-20 23:49:44</time>
      </trkpt>
      <trkpt lat="41.76388" lon="1.91072">
        <ele>270.4</ele>
        <time>2022-05-20 23:49:45</time>
      </trkpt>
      <trkpt lat="41.76389" lon="1.91077">
        <ele>270.6</ele>
        <time>2022-05-20 23:49:46</time>
      </trkpt>
      <trkpt lat="41.7639" lon="1.91081">
        <ele>270.8</ele>
        <time>2022-05-20 23:49:47</time>
      </trkpt>
      <trkpt lat="41.7639" lon="1.91086">
        <ele>271</ele>
        <time>2022-05-20 23:49:48</time>
      </trkpt>
      <trkpt lat="41.76391" lon="1.91091">
        <ele>271.2</ele>
        <time>2022-05-20 23:49:49</time>
      </trkpt>
      <trkpt lat="41.76392" lon="1.91095">
        <ele>271.4</ele>
        <time>2022-05-20 23:49:50</time>
      </trkpt>
      <trkpt lat="41.76393" lon="1.911">
        <ele>271.6</ele>
        <time>2022-05-20 23:49:51</time>
      </trkpt>
      <trkpt lat="41.76394" lon="1.91104">
        <ele>271.6</ele>
        <time>2022-05-20 23:49:52</time>
      </trkpt>
      <trkpt lat="41.76395" lon="1.91108">
        <ele>271.8</ele>
        <time>2022-05-20 23:49:53</time>
      </trkpt>
      <trkpt lat="41.76396" lon="1.91113">
        <ele>272</ele>
        <time>2022-05-20 23:49:54</time>
      </trkpt>
      <trkpt lat="41.76397" lon="1.91117">
        <ele>272.2</ele>
        <time>2022-05-20 23:49:55</time>
      </trkpt>
      <trkpt lat="41.76398" lon="1.91122">
        <ele>272.4</ele>
        <time>2022-05-20 23:49:56</time>
      </trkpt>
      <trkpt lat="41.76398" lon="1.91127">
        <ele>272.6</ele>
        <time>2022-05-20 23:49:57</time>
      </trkpt>
      <trkpt lat="41.76399" lon="1.91131">
        <ele>272.8</ele>
        <time>2022-05-20 23:49:58</time>
      </trkpt>
      <trkpt lat="41.764" lon="1.91136">
        <ele>273</ele>
        <time>2022-05-20 23:49:59</time>
      </trkpt>
      <trkpt lat="41.764" lon="1.9114">
        <ele>273.2</ele>
        <time>2022-05-20 23:50:00</time>
      </trkpt>
      <trkpt lat="41.76401" lon="1.91145">
        <ele>273.4</ele>
        <time>2022-05-20 23:50:01</time>
      </trkpt>
      <trkpt lat="41.76402" lon="1.91149">
        <ele>273.6</ele>
        <time>2022-05-20 23:50:02</time>
      </trkpt>
      <trkpt lat="41.76403" lon="1.91154">
        <ele>273.8</ele>
        <time>2022-05-20 23:50:03</time>
      </trkpt>
      <trkpt lat="41.76403" lon="1.91158">
        <ele>274</ele>
        <time>2022-05-20 23:50:04</time>
      </trkpt>
      <trkpt lat="41.76404" lon="1.91163">
        <ele>274.2</ele>
        <time>2022-05-20 23:50:05</time>
      </trkpt>
      <trkpt lat="41.76405" lon="1.91167">
        <ele>274.4</ele>
        <time>2022-05-20 23:50:06</time>
      </trkpt>
      <trkpt lat="41.76406" lon="1.91172">
        <ele>274.6</ele>
        <time>2022-05-20 23:50:07</time>
      </trkpt>
      <trkpt lat="41.76406" lon="1.91176">
        <ele>274.8</ele>
        <time>2022-05-20 23:50:08</time>
      </trkpt>
      <trkpt lat="41.76407" lon="1.91181">
        <ele>275</ele>
        <time>2022-05-20 23:50:09</time>
      </trkpt>
      <trkpt lat="41.76408" lon="1.91186">
        <ele>275.2</ele>
        <time>2022-05-20 23:50:10</time>
      </trkpt>
      <trkpt lat="41.76409" lon="1.91191">
        <ele>275.2</ele>
        <time>2022-05-20 23:50:11</time>
      </trkpt>
      <trkpt lat="41.7641" lon="1.91195">
        <ele>275.4</ele>
        <time>2022-05-20 23:50:12</time>
      </trkpt>
      <trkpt lat="41.76411" lon="1.912">
        <ele>275.6</ele>
        <time>2022-05-20 23:50:13</time>
      </trkpt>
      <trkpt lat="41.76412" lon="1.91205">
        <ele>275.8</ele>
        <time>2022-05-20 23:50:14</time>
      </trkpt>
      <trkpt lat="41.76413" lon="1.91209">
        <ele>276</ele>
        <time>2022-05-20 23:50:15</time>
      </trkpt>
      <trkpt lat="41.76413" lon="1.91214">
        <ele>276.2</ele>
        <time>2022-05-20 23:50:16</time>
      </trkpt>
      <trkpt lat="41.76414" lon="1.91219">
        <ele>276.4</ele>
        <time>2022-05-20 23:50:17</time>
      </trkpt>
      <trkpt lat="41.76415" lon="1.91224">
        <ele>276.4</ele>
        <time>2022-05-20 23:50:18</time>
      </trkpt>
      <trkpt lat="41.76416" lon="1.91229">
        <ele>276.6</ele>
        <time>2022-05-20 23:50:19</time>
      </trkpt>
      <trkpt lat="41.76417" lon="1.91234">
        <ele>276.8</ele>
        <time>2022-05-20 23:50:20</time>
      </trkpt>
      <trkpt lat="41.76418" lon="1.91239">
        <ele>276.8</ele>
        <time>2022-05-20 23:50:21</time>
      </trkpt>
      <trkpt lat="41.76419" lon="1.91244">
        <ele>277</ele>
        <time>2022-05-20 23:50:22</time>
      </trkpt>
      <trkpt lat="41.7642" lon="1.9125">
        <ele>277.2</ele>
        <time>2022-05-20 23:50:23</time>
      </trkpt>
      <trkpt lat="41.76421" lon="1.91255">
        <ele>277.2</ele>
        <time>2022-05-20 23:50:24</time>
      </trkpt>
      <trkpt lat="41.76422" lon="1.9126">
        <ele>277.4</ele>
        <time>2022-05-20 23:50:25</time>
      </trkpt>
      <trkpt lat="41.76423" lon="1.91265">
        <ele>277.6</ele>
        <time>2022-05-20 23:50:26</time>
      </trkpt>
      <trkpt lat="41.76423" lon="1.91271">
        <ele>277.6</ele>
        <time>2022-05-20 23:50:27</time>
      </trkpt>
      <trkpt lat="41.76424" lon="1.91276">
        <ele>277.8</ele>
        <time>2022-05-20 23:50:28</time>
      </trkpt>
      <trkpt lat="41.76425" lon="1.91281">
        <ele>278</ele>
        <time>2022-05-20 23:50:29</time>
      </trkpt>
      <trkpt lat="41.76426" lon="1.91286">
        <ele>278.2</ele>
        <time>2022-05-20 23:50:30</time>
      </trkpt>
      <trkpt lat="41.76427" lon="1.91292">
        <ele>278.4</ele>
        <time>2022-05-20 23:50:31</time>
      </trkpt>
      <trkpt lat="41.76428" lon="1.91297">
        <ele>278.4</ele>
        <time>2022-05-20 23:50:32</time>
      </trkpt>
      <trkpt lat="41.76429" lon="1.91302">
        <ele>278.6</ele>
        <time>2022-05-20 23:50:33</time>
      </trkpt>
      <trkpt lat="41.76429" lon="1.91307">
        <ele>278.8</ele>
        <time>2022-05-20 23:50:34</time>
      </trkpt>
      <trkpt lat="41.76431" lon="1.91313">
        <ele>279</ele>
        <time>2022-05-20 23:50:35</time>
      </trkpt>
      <trkpt lat="41.76431" lon="1.91318">
        <ele>279</ele>
        <time>2022-05-20 23:50:36</time>
      </trkpt>
      <trkpt lat="41.76432" lon="1.91323">
        <ele>279.2</ele>
        <time>2022-05-20 23:50:37</time>
      </trkpt>
      <trkpt lat="41.76433" lon="1.91328">
        <ele>279.4</ele>
        <time>2022-05-20 23:50:38</time>
      </trkpt>
      <trkpt lat="41.76434" lon="1.91333">
        <ele>279.6</ele>
        <time>2022-05-20 23:50:39</time>
      </trkpt>
      <trkpt lat="41.76435" lon="1.91339">
        <ele>279.8</ele>
        <time>2022-05-20 23:50:40</time>
      </trkpt>
      <trkpt lat="41.76435" lon="1.91344">
        <ele>279.8</ele>
        <time>2022-05-20 23:50:41</time>
      </trkpt>
      <trkpt lat="41.76436" lon="1.91349">
        <ele>280</ele>
        <time>2022-05-20 23:50:42</time>
      </trkpt>
      <trkpt lat="41.76437" lon="1.91354">
        <ele>280.2</ele>
        <time>2022-05-20 23:50:43</time>
      </trkpt>
      <trkpt lat="41.76438" lon="1.91359">
        <ele>280.4</ele>
        <time>2022-05-20 23:50:44</time>
      </trkpt>
      <trkpt lat="41.76439" lon="1.91365">
        <ele>280.4</ele>
        <time>2022-05-20 23:50:45</time>
      </trkpt>
      <trkpt lat="41.7644" lon="1.9137">
        <ele>280.6</ele>
        <time>2022-05-20 23:50:46</time>
      </trkpt>
      <trkpt lat="41.76441" lon="1.91375">
        <ele>280.8</ele>
        <time>2022-05-20 23:50:47</time>
      </trkpt>
      <trkpt lat="41.76442" lon="1.9138">
        <ele>280.8</ele>
        <time>2022-05-20 23:50:48</time>
      </trkpt>
      <trkpt lat="41.76443" lon="1.91386">
        <ele>281</ele>
        <time>2022-05-20 23:50:49</time>
      </trkpt>
      <trkpt lat="41.76444" lon="1.91391">
        <ele>281.2</ele>
        <time>2022-05-20 23:50:50</time>
      </trkpt>
      <trkpt lat="41.76445" lon="1.91396">
        <ele>281.4</ele>
        <time>2022-05-20 23:50:51</time>
      </trkpt>
      <trkpt lat="41.76446" lon="1.91401">
        <ele>281.4</ele>
        <time>2022-05-20 23:50:52</time>
      </trkpt>
      <trkpt lat="41.76447" lon="1.91407">
        <ele>281.6</ele>
        <time>2022-05-20 23:50:53</time>
      </trkpt>
      <trkpt lat="41.76448" lon="1.91412">
        <ele>281.8</ele>
        <time>2022-05-20 23:50:54</time>
      </trkpt>
      <trkpt lat="41.76448" lon="1.91418">
        <ele>281.8</ele>
        <time>2022-05-20 23:50:55</time>
      </trkpt>
      <trkpt lat="41.76449" lon="1.91423">
        <ele>282</ele>
        <time>2022-05-20 23:50:56</time>
      </trkpt>
      <trkpt lat="41.7645" lon="1.91428">
        <ele>282.2</ele>
        <time>2022-05-20 23:50:57</time>
      </trkpt>
      <trkpt lat="41.76451" lon="1.91434">
        <ele>282.2</ele>
        <time>2022-05-20 23:50:58</time>
      </trkpt>
      <trkpt lat="41.76453" lon="1.91439">
        <ele>282.4</ele>
        <time>2022-05-20 23:50:59</time>
      </trkpt>
      <trkpt lat="41.76453" lon="1.91445">
        <ele>282.6</ele>
        <time>2022-05-20 23:51:00</time>
      </trkpt>
      <trkpt lat="41.76455" lon="1.9145">
        <ele>282.8</ele>
        <time>2022-05-20 23:51:01</time>
      </trkpt>
      <trkpt lat="41.76456" lon="1.91455">
        <ele>282.8</ele>
        <time>2022-05-20 23:51:02</time>
      </trkpt>
      <trkpt lat="41.76456" lon="1.91461">
        <ele>283</ele>
        <time>2022-05-20 23:51:03</time>
      </trkpt>
      <trkpt lat="41.76457" lon="1.91466">
        <ele>283.2</ele>
        <time>2022-05-20 23:51:04</time>
      </trkpt>
      <trkpt lat="41.76458" lon="1.91472">
        <ele>283.4</ele>
        <time>2022-05-20 23:51:05</time>
      </trkpt>
      <trkpt lat="41.7646" lon="1.91477">
        <ele>283.4</ele>
        <time>2022-05-20 23:51:06</time>
      </trkpt>
      <trkpt lat="41.76461" lon="1.91482">
        <ele>283.6</ele>
        <time>2022-05-20 23:51:07</time>
      </trkpt>
      <trkpt lat="41.76462" lon="1.91488">
        <ele>283.6</ele>
        <time>2022-05-20 23:51:08</time>
      </trkpt>
      <trkpt lat="41.76463" lon="1.91492">
        <ele>283.8</ele>
        <time>2022-05-20 23:51:09</time>
      </trkpt>
      <trkpt lat="41.76463" lon="1.91495">
        <ele>283.8</ele>
        <time>2022-05-20 23:51:10</time>
      </trkpt>
      <trkpt lat="41.76465" lon="1.91504">
        <ele>284.2</ele>
        <time>2022-05-20 23:51:11</time>
      </trkpt>
      <trkpt lat="41.76466" lon="1.91509">
        <ele>284.4</ele>
        <time>2022-05-20 23:51:12</time>
      </trkpt>
      <trkpt lat="41.76466" lon="1.91514">
        <ele>284.4</ele>
        <time>2022-05-20 23:51:13</time>
      </trkpt>
      <trkpt lat="41.76468" lon="1.9152">
        <ele>284.6</ele>
        <time>2022-05-20 23:51:14</time>
      </trkpt>
      <trkpt lat="41.76468" lon="1.91526">
        <ele>284.8</ele>
        <time>2022-05-20 23:51:15</time>
      </trkpt>
      <trkpt lat="41.76469" lon="1.91531">
        <ele>285</ele>
        <time>2022-05-20 23:51:16</time>
      </trkpt>
      <trkpt lat="41.7647" lon="1.91537">
        <ele>285.2</ele>
        <time>2022-05-20 23:51:17</time>
      </trkpt>
      <trkpt lat="41.76471" lon="1.91542">
        <ele>285.4</ele>
        <time>2022-05-20 23:51:18</time>
      </trkpt>
      <trkpt lat="41.76472" lon="1.91548">
        <ele>285.4</ele>
        <time>2022-05-20 23:51:19</time>
      </trkpt>
      <trkpt lat="41.76472" lon="1.91554">
        <ele>285.6</ele>
        <time>2022-05-20 23:51:20</time>
      </trkpt>
      <trkpt lat="41.76474" lon="1.91559">
        <ele>285.8</ele>
        <time>2022-05-20 23:51:21</time>
      </trkpt>
      <trkpt lat="41.76475" lon="1.91565">
        <ele>285.8</ele>
        <time>2022-05-20 23:51:22</time>
      </trkpt>
      <trkpt lat="41.76476" lon="1.91571">
        <ele>286</ele>
        <time>2022-05-20 23:51:23</time>
      </trkpt>
      <trkpt lat="41.76477" lon="1.91577">
        <ele>286</ele>
        <time>2022-05-20 23:51:24</time>
      </trkpt>
      <trkpt lat="41.76478" lon="1.91582">
        <ele>286.2</ele>
        <time>2022-05-20 23:51:25</time>
      </trkpt>
      <trkpt lat="41.76479" lon="1.91588">
        <ele>286.2</ele>
        <time>2022-05-20 23:51:26</time>
      </trkpt>
      <trkpt lat="41.7648" lon="1.91595">
        <ele>286.2</ele>
        <time>2022-05-20 23:51:27</time>
      </trkpt>
      <trkpt lat="41.76481" lon="1.916">
        <ele>286.4</ele>
        <time>2022-05-20 23:51:28</time>
      </trkpt>
      <trkpt lat="41.76482" lon="1.91604">
        <ele>286.4</ele>
        <time>2022-05-20 23:51:29</time>
      </trkpt>
      <trkpt lat="41.76484" lon="1.91613">
        <ele>286.4</ele>
        <time>2022-05-20 23:51:30</time>
      </trkpt>
      <trkpt lat="41.76485" lon="1.9162">
        <ele>286.4</ele>
        <time>2022-05-20 23:51:31</time>
      </trkpt>
      <trkpt lat="41.76486" lon="1.91626">
        <ele>286.4</ele>
        <time>2022-05-20 23:51:32</time>
      </trkpt>
      <trkpt lat="41.76487" lon="1.91632">
        <ele>286.6</ele>
        <time>2022-05-20 23:51:33</time>
      </trkpt>
      <trkpt lat="41.76488" lon="1.9164">
        <ele>286.6</ele>
        <time>2022-05-20 23:51:34</time>
      </trkpt>
      <trkpt lat="41.76489" lon="1.91647">
        <ele>286.6</ele>
        <time>2022-05-20 23:51:35</time>
      </trkpt>
      <trkpt lat="41.7649" lon="1.91653">
        <ele>286.8</ele>
        <time>2022-05-20 23:51:36</time>
      </trkpt>
      <trkpt lat="41.76492" lon="1.9166">
        <ele>286.8</ele>
        <time>2022-05-20 23:51:37</time>
      </trkpt>
      <trkpt lat="41.76493" lon="1.91667">
        <ele>286.8</ele>
        <time>2022-05-20 23:51:38</time>
      </trkpt>
      <trkpt lat="41.76494" lon="1.91674">
        <ele>286.8</ele>
        <time>2022-05-20 23:51:39</time>
      </trkpt>
      <trkpt lat="41.76495" lon="1.91681">
        <ele>286.8</ele>
        <time>2022-05-20 23:51:40</time>
      </trkpt>
      <trkpt lat="41.76496" lon="1.91687">
        <ele>287</ele>
        <time>2022-05-20 23:51:41</time>
      </trkpt>
      <trkpt lat="41.76497" lon="1.91694">
        <ele>287</ele>
        <time>2022-05-20 23:51:42</time>
      </trkpt>
      <trkpt lat="41.76498" lon="1.91701">
        <ele>287</ele>
        <time>2022-05-20 23:51:43</time>
      </trkpt>
      <trkpt lat="41.765" lon="1.91708">
        <ele>287</ele>
        <time>2022-05-20 23:51:44</time>
      </trkpt>
      <trkpt lat="41.76501" lon="1.91715">
        <ele>287</ele>
        <time>2022-05-20 23:51:45</time>
      </trkpt>
      <trkpt lat="41.76502" lon="1.91722">
        <ele>287.2</ele>
        <time>2022-05-20 23:51:46</time>
      </trkpt>
      <trkpt lat="41.76503" lon="1.91728">
        <ele>287.2</ele>
        <time>2022-05-20 23:51:47</time>
      </trkpt>
      <trkpt lat="41.76505" lon="1.91734">
        <ele>287.4</ele>
        <time>2022-05-20 23:51:48</time>
      </trkpt>
      <trkpt lat="41.76506" lon="1.9174">
        <ele>287.6</ele>
        <time>2022-05-20 23:51:49</time>
      </trkpt>
      <trkpt lat="41.76506" lon="1.91746">
        <ele>287.8</ele>
        <time>2022-05-20 23:51:50</time>
      </trkpt>
      <trkpt lat="41.76508" lon="1.91752">
        <ele>287.8</ele>
        <time>2022-05-20 23:51:51</time>
      </trkpt>
      <trkpt lat="41.76509" lon="1.91758">
        <ele>288</ele>
        <time>2022-05-20 23:51:52</time>
      </trkpt>
      <trkpt lat="41.7651" lon="1.91764">
        <ele>288.2</ele>
        <time>2022-05-20 23:51:53</time>
      </trkpt>
      <trkpt lat="41.76511" lon="1.9177">
        <ele>288.4</ele>
        <time>2022-05-20 23:51:54</time>
      </trkpt>
      <trkpt lat="41.76513" lon="1.91776">
        <ele>288.6</ele>
        <time>2022-05-20 23:51:55</time>
      </trkpt>
      <trkpt lat="41.76514" lon="1.91782">
        <ele>288.8</ele>
        <time>2022-05-20 23:51:56</time>
      </trkpt>
      <trkpt lat="41.76514" lon="1.91787">
        <ele>289</ele>
        <time>2022-05-20 23:51:57</time>
      </trkpt>
      <trkpt lat="41.76515" lon="1.91793">
        <ele>289.2</ele>
        <time>2022-05-20 23:51:58</time>
      </trkpt>
      <trkpt lat="41.76516" lon="1.91798">
        <ele>289.6</ele>
        <time>2022-05-20 23:51:59</time>
      </trkpt>
      <trkpt lat="41.76517" lon="1.91804">
        <ele>289.8</ele>
        <time>2022-05-20 23:52:00</time>
      </trkpt>
      <trkpt lat="41.76518" lon="1.9181">
        <ele>290</ele>
        <time>2022-05-20 23:52:01</time>
      </trkpt>
      <trkpt lat="41.76519" lon="1.91815">
        <ele>290.2</ele>
        <time>2022-05-20 23:52:02</time>
      </trkpt>
      <trkpt lat="41.7652" lon="1.9182">
        <ele>290.6</ele>
        <time>2022-05-20 23:52:03</time>
      </trkpt>
      <trkpt lat="41.76521" lon="1.91825">
        <ele>290.8</ele>
        <time>2022-05-20 23:52:04</time>
      </trkpt>
      <trkpt lat="41.76522" lon="1.9183">
        <ele>291</ele>
        <time>2022-05-20 23:52:05</time>
      </trkpt>
      <trkpt lat="41.76523" lon="1.91835">
        <ele>291.2</ele>
        <time>2022-05-20 23:52:06</time>
      </trkpt>
      <trkpt lat="41.76524" lon="1.9184">
        <ele>291.4</ele>
        <time>2022-05-20 23:52:07</time>
      </trkpt>
      <trkpt lat="41.76524" lon="1.91845">
        <ele>291.6</ele>
        <time>2022-05-20 23:52:08</time>
      </trkpt>
      <trkpt lat="41.76525" lon="1.9185">
        <ele>291.8</ele>
        <time>2022-05-20 23:52:09</time>
      </trkpt>
      <trkpt lat="41.76526" lon="1.91855">
        <ele>292</ele>
        <time>2022-05-20 23:52:10</time>
      </trkpt>
      <trkpt lat="41.76527" lon="1.9186">
        <ele>292.2</ele>
        <time>2022-05-20 23:52:11</time>
      </trkpt>
      <trkpt lat="41.76527" lon="1.91865">
        <ele>292.4</ele>
        <time>2022-05-20 23:52:12</time>
      </trkpt>
      <trkpt lat="41.76529" lon="1.9187">
        <ele>292.6</ele>
        <time>2022-05-20 23:52:13</time>
      </trkpt>
      <trkpt lat="41.76529" lon="1.91875">
        <ele>292.8</ele>
        <time>2022-05-20 23:52:14</time>
      </trkpt>
      <trkpt lat="41.7653" lon="1.9188">
        <ele>293</ele>
        <time>2022-05-20 23:52:15</time>
      </trkpt>
      <trkpt lat="41.76531" lon="1.91885">
        <ele>293</ele>
        <time>2022-05-20 23:52:16</time>
      </trkpt>
      <trkpt lat="41.76532" lon="1.9189">
        <ele>293.2</ele>
        <time>2022-05-20 23:52:17</time>
      </trkpt>
      <trkpt lat="41.76533" lon="1.91895">
        <ele>293.4</ele>
        <time>2022-05-20 23:52:18</time>
      </trkpt>
      <trkpt lat="41.76534" lon="1.919">
        <ele>293.6</ele>
        <time>2022-05-20 23:52:19</time>
      </trkpt>
      <trkpt lat="41.76535" lon="1.91905">
        <ele>293.8</ele>
        <time>2022-05-20 23:52:20</time>
      </trkpt>
      <trkpt lat="41.76535" lon="1.9191">
        <ele>294</ele>
        <time>2022-05-20 23:52:21</time>
      </trkpt>
      <trkpt lat="41.76536" lon="1.91915">
        <ele>294.2</ele>
        <time>2022-05-20 23:52:22</time>
      </trkpt>
      <trkpt lat="41.76537" lon="1.9192">
        <ele>294.4</ele>
        <time>2022-05-20 23:52:23</time>
      </trkpt>
      <trkpt lat="41.76538" lon="1.91925">
        <ele>294.6</ele>
        <time>2022-05-20 23:52:24</time>
      </trkpt>
      <trkpt lat="41.76538" lon="1.9193">
        <ele>294.6</ele>
        <time>2022-05-20 23:52:25</time>
      </trkpt>
      <trkpt lat="41.76539" lon="1.91935">
        <ele>294.8</ele>
        <time>2022-05-20 23:52:26</time>
      </trkpt>
      <trkpt lat="41.7654" lon="1.91941">
        <ele>295</ele>
        <time>2022-05-20 23:52:27</time>
      </trkpt>
      <trkpt lat="41.76541" lon="1.91946">
        <ele>295.2</ele>
        <time>2022-05-20 23:52:28</time>
      </trkpt>
      <trkpt lat="41.76542" lon="1.91951">
        <ele>295.4</ele>
        <time>2022-05-20 23:52:29</time>
      </trkpt>
      <trkpt lat="41.76543" lon="1.91956">
        <ele>295.6</ele>
        <time>2022-05-20 23:52:30</time>
      </trkpt>
      <trkpt lat="41.76544" lon="1.91962">
        <ele>295.8</ele>
        <time>2022-05-20 23:52:31</time>
      </trkpt>
      <trkpt lat="41.76545" lon="1.91967">
        <ele>295.8</ele>
        <time>2022-05-20 23:52:32</time>
      </trkpt>
      <trkpt lat="41.76546" lon="1.91972">
        <ele>296</ele>
        <time>2022-05-20 23:52:33</time>
      </trkpt>
      <trkpt lat="41.76547" lon="1.91977">
        <ele>296.2</ele>
        <time>2022-05-20 23:52:34</time>
      </trkpt>
      <trkpt lat="41.76548" lon="1.91982">
        <ele>296.4</ele>
        <time>2022-05-20 23:52:35</time>
      </trkpt>
      <trkpt lat="41.76549" lon="1.91988">
        <ele>296.6</ele>
        <time>2022-05-20 23:52:36</time>
      </trkpt>
      <trkpt lat="41.7655" lon="1.91993">
        <ele>296.8</ele>
        <time>2022-05-20 23:52:37</time>
      </trkpt>
      <trkpt lat="41.76551" lon="1.91998">
        <ele>296.8</ele>
        <time>2022-05-20 23:52:38</time>
      </trkpt>
      <trkpt lat="41.76551" lon="1.92004">
        <ele>297</ele>
        <time>2022-05-20 23:52:39</time>
      </trkpt>
      <trkpt lat="41.76552" lon="1.92009">
        <ele>297.2</ele>
        <time>2022-05-20 23:52:40</time>
      </trkpt>
      <trkpt lat="41.76553" lon="1.92014">
        <ele>297.4</ele>
        <time>2022-05-20 23:52:41</time>
      </trkpt>
      <trkpt lat="41.76554" lon="1.9202">
        <ele>297.6</ele>
        <time>2022-05-20 23:52:42</time>
      </trkpt>
      <trkpt lat="41.76555" lon="1.92025">
        <ele>297.6</ele>
        <time>2022-05-20 23:52:43</time>
      </trkpt>
      <trkpt lat="41.76556" lon="1.92031">
        <ele>297.8</ele>
        <time>2022-05-20 23:52:44</time>
      </trkpt>
      <trkpt lat="41.76558" lon="1.92036">
        <ele>297.8</ele>
        <time>2022-05-20 23:52:45</time>
      </trkpt>
      <trkpt lat="41.76558" lon="1.92042">
        <ele>298</ele>
        <time>2022-05-20 23:52:46</time>
      </trkpt>
      <trkpt lat="41.76559" lon="1.92048">
        <ele>298</ele>
        <time>2022-05-20 23:52:47</time>
      </trkpt>
      <trkpt lat="41.76561" lon="1.92055">
        <ele>298</ele>
        <time>2022-05-20 23:52:48</time>
      </trkpt>
      <trkpt lat="41.76562" lon="1.92061">
        <ele>298</ele>
        <time>2022-05-20 23:52:49</time>
      </trkpt>
      <trkpt lat="41.76563" lon="1.92068">
        <ele>298</ele>
        <time>2022-05-20 23:52:50</time>
      </trkpt>
      <trkpt lat="41.76564" lon="1.92075">
        <ele>297.8</ele>
        <time>2022-05-20 23:52:51</time>
      </trkpt>
      <trkpt lat="41.76566" lon="1.92082">
        <ele>297.8</ele>
        <time>2022-05-20 23:52:52</time>
      </trkpt>
      <trkpt lat="41.76567" lon="1.92089">
        <ele>297.8</ele>
        <time>2022-05-20 23:52:53</time>
      </trkpt>
      <trkpt lat="41.76568" lon="1.92097">
        <ele>297.8</ele>
        <time>2022-05-20 23:52:54</time>
      </trkpt>
      <trkpt lat="41.76569" lon="1.92104">
        <ele>297.6</ele>
        <time>2022-05-20 23:52:55</time>
      </trkpt>
      <trkpt lat="41.76571" lon="1.92112">
        <ele>297.6</ele>
        <time>2022-05-20 23:52:56</time>
      </trkpt>
      <trkpt lat="41.76572" lon="1.9212">
        <ele>297.4</ele>
        <time>2022-05-20 23:52:57</time>
      </trkpt>
      <trkpt lat="41.76574" lon="1.92128">
        <ele>297.4</ele>
        <time>2022-05-20 23:52:58</time>
      </trkpt>
      <trkpt lat="41.76575" lon="1.92135">
        <ele>297.4</ele>
        <time>2022-05-20 23:52:59</time>
      </trkpt>
      <trkpt lat="41.76576" lon="1.92144">
        <ele>297.2</ele>
        <time>2022-05-20 23:53:00</time>
      </trkpt>
      <trkpt lat="41.76578" lon="1.92152">
        <ele>297.2</ele>
        <time>2022-05-20 23:53:01</time>
      </trkpt>
      <trkpt lat="41.76579" lon="1.9216">
        <ele>297</ele>
        <time>2022-05-20 23:53:02</time>
      </trkpt>
      <trkpt lat="41.7658" lon="1.92168">
        <ele>297</ele>
        <time>2022-05-20 23:53:03</time>
      </trkpt>
      <trkpt lat="41.76582" lon="1.92177">
        <ele>296.8</ele>
        <time>2022-05-20 23:53:04</time>
      </trkpt>
      <trkpt lat="41.76583" lon="1.92185">
        <ele>296.8</ele>
        <time>2022-05-20 23:53:05</time>
      </trkpt>
      <trkpt lat="41.76585" lon="1.92194">
        <ele>296.6</ele>
        <time>2022-05-20 23:53:06</time>
      </trkpt>
      <trkpt lat="41.76586" lon="1.92203">
        <ele>296.4</ele>
        <time>2022-05-20 23:53:07</time>
      </trkpt>
      <trkpt lat="41.76588" lon="1.92212">
        <ele>296.4</ele>
        <time>2022-05-20 23:53:08</time>
      </trkpt>
      <trkpt lat="41.7659" lon="1.92221">
        <ele>296.2</ele>
        <time>2022-05-20 23:53:09</time>
      </trkpt>
      <trkpt lat="41.76591" lon="1.92229">
        <ele>296.2</ele>
        <time>2022-05-20 23:53:10</time>
      </trkpt>
      <trkpt lat="41.76593" lon="1.92238">
        <ele>296</ele>
        <time>2022-05-20 23:53:11</time>
      </trkpt>
      <trkpt lat="41.76594" lon="1.92247">
        <ele>296</ele>
        <time>2022-05-20 23:53:12</time>
      </trkpt>
      <trkpt lat="41.76596" lon="1.92255">
        <ele>295.8</ele>
        <time>2022-05-20 23:53:13</time>
      </trkpt>
      <trkpt lat="41.76598" lon="1.92264">
        <ele>295.8</ele>
        <time>2022-05-20 23:53:14</time>
      </trkpt>
      <trkpt lat="41.76599" lon="1.92273">
        <ele>295.8</ele>
        <time>2022-05-20 23:53:15</time>
      </trkpt>
      <trkpt lat="41.76601" lon="1.92281">
        <ele>295.8</ele>
        <time>2022-05-20 23:53:16</time>
      </trkpt>
      <trkpt lat="41.76602" lon="1.9229">
        <ele>295.8</ele>
        <time>2022-05-20 23:53:17</time>
      </trkpt>
      <trkpt lat="41.76604" lon="1.92298">
        <ele>295.8</ele>
        <time>2022-05-20 23:53:18</time>
      </trkpt>
      <trkpt lat="41.76605" lon="1.92306">
        <ele>295.8</ele>
        <time>2022-05-20 23:53:19</time>
      </trkpt>
      <trkpt lat="41.76606" lon="1.92314">
        <ele>296</ele>
        <time>2022-05-20 23:53:20</time>
      </trkpt>
      <trkpt lat="41.76607" lon="1.92322">
        <ele>296</ele>
        <time>2022-05-20 23:53:21</time>
      </trkpt>
      <trkpt lat="41.76609" lon="1.9233">
        <ele>296</ele>
        <time>2022-05-20 23:53:22</time>
      </trkpt>
      <trkpt lat="41.76611" lon="1.92338">
        <ele>296.2</ele>
        <time>2022-05-20 23:53:23</time>
      </trkpt>
      <trkpt lat="41.76612" lon="1.92346">
        <ele>296.2</ele>
        <time>2022-05-20 23:53:24</time>
      </trkpt>
      <trkpt lat="41.76614" lon="1.92354">
        <ele>296.4</ele>
        <time>2022-05-20 23:53:25</time>
      </trkpt>
      <trkpt lat="41.76616" lon="1.92362">
        <ele>296.4</ele>
        <time>2022-05-20 23:53:26</time>
      </trkpt>
      <trkpt lat="41.76617" lon="1.92369">
        <ele>296.6</ele>
        <time>2022-05-20 23:53:27</time>
      </trkpt>
      <trkpt lat="41.76618" lon="1.92377">
        <ele>296.6</ele>
        <time>2022-05-20 23:53:28</time>
      </trkpt>
      <trkpt lat="41.76619" lon="1.92385">
        <ele>296.8</ele>
        <time>2022-05-20 23:53:29</time>
      </trkpt>
      <trkpt lat="41.7662" lon="1.92392">
        <ele>296.8</ele>
        <time>2022-05-20 23:53:30</time>
      </trkpt>
      <trkpt lat="41.76622" lon="1.924">
        <ele>297</ele>
        <time>2022-05-20 23:53:31</time>
      </trkpt>
      <trkpt lat="41.76623" lon="1.92408">
        <ele>297</ele>
        <time>2022-05-20 23:53:32</time>
      </trkpt>
      <trkpt lat="41.76624" lon="1.92415">
        <ele>297.2</ele>
        <time>2022-05-20 23:53:33</time>
      </trkpt>
      <trkpt lat="41.76626" lon="1.92423">
        <ele>297.4</ele>
        <time>2022-05-20 23:53:34</time>
      </trkpt>
      <trkpt lat="41.76627" lon="1.9243">
        <ele>297.4</ele>
        <time>2022-05-20 23:53:35</time>
      </trkpt>
      <trkpt lat="41.76628" lon="1.92437">
        <ele>297.6</ele>
        <time>2022-05-20 23:53:36</time>
      </trkpt>
      <trkpt lat="41.76629" lon="1.92444">
        <ele>297.8</ele>
        <time>2022-05-20 23:53:37</time>
      </trkpt>
      <trkpt lat="41.7663" lon="1.92451">
        <ele>298</ele>
        <time>2022-05-20 23:53:38</time>
      </trkpt>
      <trkpt lat="41.76632" lon="1.92459">
        <ele>298</ele>
        <time>2022-05-20 23:53:39</time>
      </trkpt>
      <trkpt lat="41.76632" lon="1.92466">
        <ele>298.2</ele>
        <time>2022-05-20 23:53:40</time>
      </trkpt>
      <trkpt lat="41.76632" lon="1.92473">
        <ele>298.4</ele>
        <time>2022-05-20 23:53:41</time>
      </trkpt>
      <trkpt lat="41.76632" lon="1.9248">
        <ele>298.4</ele>
        <time>2022-05-20 23:53:42</time>
      </trkpt>
      <trkpt lat="41.76633" lon="1.92486">
        <ele>298.6</ele>
        <time>2022-05-20 23:53:43</time>
      </trkpt>
      <trkpt lat="41.76636" lon="1.92492">
        <ele>298.8</ele>
        <time>2022-05-20 23:53:44</time>
      </trkpt>
      <trkpt lat="41.76638" lon="1.92499">
        <ele>298.8</ele>
        <time>2022-05-20 23:53:45</time>
      </trkpt>
      <trkpt lat="41.7664" lon="1.92505">
        <ele>299</ele>
        <time>2022-05-20 23:53:46</time>
      </trkpt>
      <trkpt lat="41.76641" lon="1.92512">
        <ele>299.2</ele>
        <time>2022-05-20 23:53:47</time>
      </trkpt>
      <trkpt lat="41.76643" lon="1.92518">
        <ele>299.2</ele>
        <time>2022-05-20 23:53:48</time>
      </trkpt>
      <trkpt lat="41.76643" lon="1.92524">
        <ele>299.4</ele>
        <time>2022-05-20 23:53:49</time>
      </trkpt>
      <trkpt lat="41.76644" lon="1.92531">
        <ele>299.6</ele>
        <time>2022-05-20 23:53:50</time>
      </trkpt>
      <trkpt lat="41.76645" lon="1.92537">
        <ele>299.8</ele>
        <time>2022-05-20 23:53:51</time>
      </trkpt>
      <trkpt lat="41.76646" lon="1.92543">
        <ele>300</ele>
        <time>2022-05-20 23:53:52</time>
      </trkpt>
      <trkpt lat="41.76646" lon="1.92548">
        <ele>300.2</ele>
        <time>2022-05-20 23:53:53</time>
      </trkpt>
      <trkpt lat="41.76648" lon="1.92554">
        <ele>300.2</ele>
        <time>2022-05-20 23:53:54</time>
      </trkpt>
      <trkpt lat="41.76649" lon="1.9256">
        <ele>300.4</ele>
        <time>2022-05-20 23:53:55</time>
      </trkpt>
      <trkpt lat="41.7665" lon="1.92565">
        <ele>300.6</ele>
        <time>2022-05-20 23:53:56</time>
      </trkpt>
      <trkpt lat="41.76651" lon="1.92571">
        <ele>301</ele>
        <time>2022-05-20 23:53:57</time>
      </trkpt>
      <trkpt lat="41.76651" lon="1.92576">
        <ele>301.2</ele>
        <time>2022-05-20 23:53:58</time>
      </trkpt>
      <trkpt lat="41.76653" lon="1.92581">
        <ele>301.4</ele>
        <time>2022-05-20 23:53:59</time>
      </trkpt>
      <trkpt lat="41.76653" lon="1.92587">
        <ele>301.6</ele>
        <time>2022-05-20 23:54:00</time>
      </trkpt>
      <trkpt lat="41.76654" lon="1.92592">
        <ele>301.8</ele>
        <time>2022-05-20 23:54:01</time>
      </trkpt>
      <trkpt lat="41.76655" lon="1.92597">
        <ele>302</ele>
        <time>2022-05-20 23:54:02</time>
      </trkpt>
      <trkpt lat="41.76656" lon="1.92602">
        <ele>302.2</ele>
        <time>2022-05-20 23:54:03</time>
      </trkpt>
      <trkpt lat="41.76656" lon="1.92607">
        <ele>302.4</ele>
        <time>2022-05-20 23:54:04</time>
      </trkpt>
      <trkpt lat="41.76657" lon="1.92612">
        <ele>302.6</ele>
        <time>2022-05-20 23:54:05</time>
      </trkpt>
      <trkpt lat="41.76658" lon="1.92617">
        <ele>302.8</ele>
        <time>2022-05-20 23:54:06</time>
      </trkpt>
      <trkpt lat="41.76659" lon="1.92622">
        <ele>303</ele>
        <time>2022-05-20 23:54:07</time>
      </trkpt>
      <trkpt lat="41.7666" lon="1.92627">
        <ele>303.2</ele>
        <time>2022-05-20 23:54:08</time>
      </trkpt>
      <trkpt lat="41.76661" lon="1.92632">
        <ele>303.4</ele>
        <time>2022-05-20 23:54:09</time>
      </trkpt>
      <trkpt lat="41.76662" lon="1.92637">
        <ele>303.8</ele>
        <time>2022-05-20 23:54:10</time>
      </trkpt>
      <trkpt lat="41.76662" lon="1.92642">
        <ele>304</ele>
        <time>2022-05-20 23:54:11</time>
      </trkpt>
      <trkpt lat="41.76664" lon="1.92647">
        <ele>304.2</ele>
        <time>2022-05-20 23:54:12</time>
      </trkpt>
      <trkpt lat="41.76665" lon="1.92651">
        <ele>304.4</ele>
        <time>2022-05-20 23:54:13</time>
      </trkpt>
      <trkpt lat="41.76666" lon="1.92656">
        <ele>304.6</ele>
        <time>2022-05-20 23:54:14</time>
      </trkpt>
      <trkpt lat="41.76667" lon="1.92661">
        <ele>304.8</ele>
        <time>2022-05-20 23:54:15</time>
      </trkpt>
      <trkpt lat="41.76667" lon="1.92666">
        <ele>305</ele>
        <time>2022-05-20 23:54:16</time>
      </trkpt>
      <trkpt lat="41.76668" lon="1.92671">
        <ele>305.2</ele>
        <time>2022-05-20 23:54:17</time>
      </trkpt>
      <trkpt lat="41.76669" lon="1.92676">
        <ele>305.4</ele>
        <time>2022-05-20 23:54:18</time>
      </trkpt>
      <trkpt lat="41.7667" lon="1.92682">
        <ele>305.6</ele>
        <time>2022-05-20 23:54:19</time>
      </trkpt>
      <trkpt lat="41.76671" lon="1.92687">
        <ele>305.8</ele>
        <time>2022-05-20 23:54:20</time>
      </trkpt>
      <trkpt lat="41.76672" lon="1.92692">
        <ele>306</ele>
        <time>2022-05-20 23:54:21</time>
      </trkpt>
      <trkpt lat="41.76672" lon="1.92697">
        <ele>306.2</ele>
        <time>2022-05-20 23:54:22</time>
      </trkpt>
      <trkpt lat="41.76674" lon="1.92703">
        <ele>306.4</ele>
        <time>2022-05-20 23:54:23</time>
      </trkpt>
      <trkpt lat="41.76674" lon="1.92708">
        <ele>306.6</ele>
        <time>2022-05-20 23:54:24</time>
      </trkpt>
      <trkpt lat="41.76675" lon="1.92713">
        <ele>306.8</ele>
        <time>2022-05-20 23:54:25</time>
      </trkpt>
      <trkpt lat="41.76676" lon="1.92718">
        <ele>307</ele>
        <time>2022-05-20 23:54:26</time>
      </trkpt>
      <trkpt lat="41.76677" lon="1.92723">
        <ele>307.2</ele>
        <time>2022-05-20 23:54:27</time>
      </trkpt>
      <trkpt lat="41.76678" lon="1.92728">
        <ele>307.4</ele>
        <time>2022-05-20 23:54:28</time>
      </trkpt>
      <trkpt lat="41.76678" lon="1.92733">
        <ele>307.6</ele>
        <time>2022-05-20 23:54:29</time>
      </trkpt>
      <trkpt lat="41.76679" lon="1.92738">
        <ele>307.8</ele>
        <time>2022-05-20 23:54:30</time>
      </trkpt>
      <trkpt lat="41.7668" lon="1.92742">
        <ele>308</ele>
        <time>2022-05-20 23:54:31</time>
      </trkpt>
      <trkpt lat="41.7668" lon="1.92747">
        <ele>308.2</ele>
        <time>2022-05-20 23:54:32</time>
      </trkpt>
      <trkpt lat="41.76682" lon="1.92752">
        <ele>308.4</ele>
        <time>2022-05-20 23:54:33</time>
      </trkpt>
      <trkpt lat="41.76683" lon="1.92756">
        <ele>308.8</ele>
        <time>2022-05-20 23:54:34</time>
      </trkpt>
      <trkpt lat="41.76683" lon="1.92761">
        <ele>309</ele>
        <time>2022-05-20 23:54:35</time>
      </trkpt>
      <trkpt lat="41.76684" lon="1.92766">
        <ele>309.2</ele>
        <time>2022-05-20 23:54:36</time>
      </trkpt>
      <trkpt lat="41.76685" lon="1.92771">
        <ele>309.4</ele>
        <time>2022-05-20 23:54:37</time>
      </trkpt>
      <trkpt lat="41.76686" lon="1.92776">
        <ele>309.6</ele>
        <time>2022-05-20 23:54:38</time>
      </trkpt>
      <trkpt lat="41.76686" lon="1.92781">
        <ele>309.8</ele>
        <time>2022-05-20 23:54:39</time>
      </trkpt>
      <trkpt lat="41.76687" lon="1.92786">
        <ele>310</ele>
        <time>2022-05-20 23:54:40</time>
      </trkpt>
      <trkpt lat="41.76688" lon="1.92791">
        <ele>310.2</ele>
        <time>2022-05-20 23:54:41</time>
      </trkpt>
      <trkpt lat="41.76689" lon="1.92796">
        <ele>310.4</ele>
        <time>2022-05-20 23:54:42</time>
      </trkpt>
      <trkpt lat="41.7669" lon="1.928">
        <ele>310.6</ele>
        <time>2022-05-20 23:54:43</time>
      </trkpt>
      <trkpt lat="41.76691" lon="1.92805">
        <ele>310.8</ele>
        <time>2022-05-20 23:54:44</time>
      </trkpt>
      <trkpt lat="41.76693" lon="1.9281">
        <ele>311</ele>
        <time>2022-05-20 23:54:45</time>
      </trkpt>
      <trkpt lat="41.76694" lon="1.92815">
        <ele>311.4</ele>
        <time>2022-05-20 23:54:46</time>
      </trkpt>
      <trkpt lat="41.76695" lon="1.9282">
        <ele>311.6</ele>
        <time>2022-05-20 23:54:47</time>
      </trkpt>
      <trkpt lat="41.76697" lon="1.92824">
        <ele>311.8</ele>
        <time>2022-05-20 23:54:48</time>
      </trkpt>
      <trkpt lat="41.76698" lon="1.92829">
        <ele>312</ele>
        <time>2022-05-20 23:54:49</time>
      </trkpt>
      <trkpt lat="41.767" lon="1.92833">
        <ele>312.2</ele>
        <time>2022-05-20 23:54:50</time>
      </trkpt>
      <trkpt lat="41.76702" lon="1.92838">
        <ele>312.4</ele>
        <time>2022-05-20 23:54:51</time>
      </trkpt>
      <trkpt lat="41.76703" lon="1.92842">
        <ele>312.6</ele>
        <time>2022-05-20 23:54:52</time>
      </trkpt>
      <trkpt lat="41.76705" lon="1.92847">
        <ele>312.8</ele>
        <time>2022-05-20 23:54:53</time>
      </trkpt>
      <trkpt lat="41.76707" lon="1.92852">
        <ele>313</ele>
        <time>2022-05-20 23:54:54</time>
      </trkpt>
      <trkpt lat="41.76709" lon="1.92856">
        <ele>313.2</ele>
        <time>2022-05-20 23:54:55</time>
      </trkpt>
      <trkpt lat="41.76711" lon="1.9286">
        <ele>313.4</ele>
        <time>2022-05-20 23:54:56</time>
      </trkpt>
      <trkpt lat="41.76713" lon="1.92864">
        <ele>313.6</ele>
        <time>2022-05-20 23:54:57</time>
      </trkpt>
      <trkpt lat="41.76715" lon="1.92869">
        <ele>313.8</ele>
        <time>2022-05-20 23:54:58</time>
      </trkpt>
      <trkpt lat="41.76717" lon="1.92874">
        <ele>314</ele>
        <time>2022-05-20 23:54:59</time>
      </trkpt>
      <trkpt lat="41.7672" lon="1.92878">
        <ele>314.2</ele>
        <time>2022-05-20 23:55:00</time>
      </trkpt>
      <trkpt lat="41.76722" lon="1.92882">
        <ele>314.4</ele>
        <time>2022-05-20 23:55:01</time>
      </trkpt>
      <trkpt lat="41.76725" lon="1.92887">
        <ele>314.6</ele>
        <time>2022-05-20 23:55:02</time>
      </trkpt>
      <trkpt lat="41.76727" lon="1.92891">
        <ele>314.6</ele>
        <time>2022-05-20 23:55:03</time>
      </trkpt>
      <trkpt lat="41.7673" lon="1.92896">
        <ele>314.8</ele>
        <time>2022-05-20 23:55:04</time>
      </trkpt>
      <trkpt lat="41.76732" lon="1.92901">
        <ele>314.8</ele>
        <time>2022-05-20 23:55:05</time>
      </trkpt>
      <trkpt lat="41.76735" lon="1.92905">
        <ele>314.8</ele>
        <time>2022-05-20 23:55:06</time>
      </trkpt>
      <trkpt lat="41.76738" lon="1.92909">
        <ele>315</ele>
        <time>2022-05-20 23:55:07</time>
      </trkpt>
      <trkpt lat="41.76741" lon="1.92914">
        <ele>315</ele>
        <time>2022-05-20 23:55:08</time>
      </trkpt>
      <trkpt lat="41.76744" lon="1.92919">
        <ele>315</ele>
        <time>2022-05-20 23:55:09</time>
      </trkpt>
      <trkpt lat="41.76747" lon="1.92924">
        <ele>315.2</ele>
        <time>2022-05-20 23:55:10</time>
      </trkpt>
      <trkpt lat="41.76749" lon="1.9293">
        <ele>315.2</ele>
        <time>2022-05-20 23:55:11</time>
      </trkpt>
      <trkpt lat="41.76752" lon="1.92935">
        <ele>315.2</ele>
        <time>2022-05-20 23:55:12</time>
      </trkpt>
      <trkpt lat="41.76756" lon="1.9294">
        <ele>315.2</ele>
        <time>2022-05-20 23:55:13</time>
      </trkpt>
      <trkpt lat="41.76759" lon="1.92945">
        <ele>315.2</ele>
        <time>2022-05-20 23:55:14</time>
      </trkpt>
      <trkpt lat="41.76762" lon="1.92951">
        <ele>315.4</ele>
        <time>2022-05-20 23:55:15</time>
      </trkpt>
      <trkpt lat="41.76765" lon="1.92956">
        <ele>315.4</ele>
        <time>2022-05-20 23:55:16</time>
      </trkpt>
      <trkpt lat="41.76768" lon="1.92962">
        <ele>315.4</ele>
        <time>2022-05-20 23:55:17</time>
      </trkpt>
      <trkpt lat="41.76772" lon="1.92968">
        <ele>315.4</ele>
        <time>2022-05-20 23:55:18</time>
      </trkpt>
      <trkpt lat="41.76775" lon="1.92973">
        <ele>315.4</ele>
        <time>2022-05-20 23:55:19</time>
      </trkpt>
      <trkpt lat="41.76778" lon="1.92979">
        <ele>315.4</ele>
        <time>2022-05-20 23:55:20</time>
      </trkpt>
      <trkpt lat="41.76781" lon="1.92984">
        <ele>315.6</ele>
        <time>2022-05-20 23:55:21</time>
      </trkpt>
      <trkpt lat="41.76785" lon="1.9299">
        <ele>315.6</ele>
        <time>2022-05-20 23:55:22</time>
      </trkpt>
      <trkpt lat="41.76788" lon="1.92996">
        <ele>315.6</ele>
        <time>2022-05-20 23:55:23</time>
      </trkpt>
      <trkpt lat="41.76791" lon="1.93002">
        <ele>315.6</ele>
        <time>2022-05-20 23:55:24</time>
      </trkpt>
      <trkpt lat="41.76794" lon="1.93007">
        <ele>315.6</ele>
        <time>2022-05-20 23:55:25</time>
      </trkpt>
      <trkpt lat="41.76797" lon="1.93013">
        <ele>315.8</ele>
        <time>2022-05-20 23:55:26</time>
      </trkpt>
      <trkpt lat="41.76801" lon="1.93019">
        <ele>315.8</ele>
        <time>2022-05-20 23:55:27</time>
      </trkpt>
      <trkpt lat="41.76804" lon="1.93025">
        <ele>315.8</ele>
        <time>2022-05-20 23:55:28</time>
      </trkpt>
      <trkpt lat="41.76807" lon="1.93031">
        <ele>315.8</ele>
        <time>2022-05-20 23:55:29</time>
      </trkpt>
      <trkpt lat="41.7681" lon="1.93038">
        <ele>316</ele>
        <time>2022-05-20 23:55:30</time>
      </trkpt>
      <trkpt lat="41.76813" lon="1.93044">
        <ele>316</ele>
        <time>2022-05-20 23:55:31</time>
      </trkpt>
      <trkpt lat="41.76815" lon="1.9305">
        <ele>316</ele>
        <time>2022-05-20 23:55:32</time>
      </trkpt>
      <trkpt lat="41.76818" lon="1.93057">
        <ele>316.2</ele>
        <time>2022-05-20 23:55:33</time>
      </trkpt>
      <trkpt lat="41.7682" lon="1.93063">
        <ele>316.2</ele>
        <time>2022-05-20 23:55:34</time>
      </trkpt>
      <trkpt lat="41.76823" lon="1.9307">
        <ele>316.2</ele>
        <time>2022-05-20 23:55:35</time>
      </trkpt>
      <trkpt lat="41.76825" lon="1.93076">
        <ele>316.4</ele>
        <time>2022-05-20 23:55:36</time>
      </trkpt>
      <trkpt lat="41.76828" lon="1.93082">
        <ele>316.4</ele>
        <time>2022-05-20 23:55:37</time>
      </trkpt>
      <trkpt lat="41.7683" lon="1.93089">
        <ele>316.6</ele>
        <time>2022-05-20 23:55:38</time>
      </trkpt>
      <trkpt lat="41.76833" lon="1.93095">
        <ele>316.6</ele>
        <time>2022-05-20 23:55:39</time>
      </trkpt>
      <trkpt lat="41.76836" lon="1.93101">
        <ele>316.8</ele>
        <time>2022-05-20 23:55:40</time>
      </trkpt>
      <trkpt lat="41.76838" lon="1.93108">
        <ele>316.8</ele>
        <time>2022-05-20 23:55:41</time>
      </trkpt>
      <trkpt lat="41.76841" lon="1.93114">
        <ele>317</ele>
        <time>2022-05-20 23:55:42</time>
      </trkpt>
      <trkpt lat="41.76843" lon="1.9312">
        <ele>317</ele>
        <time>2022-05-20 23:55:43</time>
      </trkpt>
      <trkpt lat="41.76846" lon="1.93127">
        <ele>317</ele>
        <time>2022-05-20 23:55:44</time>
      </trkpt>
      <trkpt lat="41.76848" lon="1.93133">
        <ele>317.2</ele>
        <time>2022-05-20 23:55:45</time>
      </trkpt>
      <trkpt lat="41.76851" lon="1.93139">
        <ele>317.2</ele>
        <time>2022-05-20 23:55:46</time>
      </trkpt>
      <trkpt lat="41.76853" lon="1.93145">
        <ele>317.4</ele>
        <time>2022-05-20 23:55:47</time>
      </trkpt>
      <trkpt lat="41.76856" lon="1.93152">
        <ele>317.4</ele>
        <time>2022-05-20 23:55:48</time>
      </trkpt>
      <trkpt lat="41.76859" lon="1.93158">
        <ele>317.6</ele>
        <time>2022-05-20 23:55:49</time>
      </trkpt>
      <trkpt lat="41.76861" lon="1.93163">
        <ele>317.8</ele>
        <time>2022-05-20 23:55:50</time>
      </trkpt>
      <trkpt lat="41.76863" lon="1.93169">
        <ele>318</ele>
        <time>2022-05-20 23:55:51</time>
      </trkpt>
      <trkpt lat="41.76865" lon="1.93175">
        <ele>318</ele>
        <time>2022-05-20 23:55:52</time>
      </trkpt>
      <trkpt lat="41.76867" lon="1.9318">
        <ele>318.2</ele>
        <time>2022-05-20 23:55:53</time>
      </trkpt>
      <trkpt lat="41.76869" lon="1.93186">
        <ele>318.4</ele>
        <time>2022-05-20 23:55:54</time>
      </trkpt>
      <trkpt lat="41.76871" lon="1.93191">
        <ele>318.6</ele>
        <time>2022-05-20 23:55:55</time>
      </trkpt>
      <trkpt lat="41.76873" lon="1.93197">
        <ele>318.8</ele>
        <time>2022-05-20 23:55:56</time>
      </trkpt>
      <trkpt lat="41.76876" lon="1.93203">
        <ele>319</ele>
        <time>2022-05-20 23:55:57</time>
      </trkpt>
      <trkpt lat="41.76878" lon="1.93208">
        <ele>319.2</ele>
        <time>2022-05-20 23:55:58</time>
      </trkpt>
      <trkpt lat="41.7688" lon="1.93214">
        <ele>319.4</ele>
        <time>2022-05-20 23:55:59</time>
      </trkpt>
      <trkpt lat="41.76882" lon="1.93219">
        <ele>319.6</ele>
        <time>2022-05-20 23:56:00</time>
      </trkpt>
      <trkpt lat="41.76884" lon="1.93224">
        <ele>319.8</ele>
        <time>2022-05-20 23:56:01</time>
      </trkpt>
      <trkpt lat="41.76886" lon="1.9323">
        <ele>320</ele>
        <time>2022-05-20 23:56:02</time>
      </trkpt>
      <trkpt lat="41.76888" lon="1.93235">
        <ele>320.2</ele>
        <time>2022-05-20 23:56:03</time>
      </trkpt>
      <trkpt lat="41.76889" lon="1.9324">
        <ele>320.4</ele>
        <time>2022-05-20 23:56:04</time>
      </trkpt>
      <trkpt lat="41.76891" lon="1.93245">
        <ele>320.6</ele>
        <time>2022-05-20 23:56:05</time>
      </trkpt>
      <trkpt lat="41.76893" lon="1.9325">
        <ele>320.8</ele>
        <time>2022-05-20 23:56:06</time>
      </trkpt>
      <trkpt lat="41.76895" lon="1.93256">
        <ele>321</ele>
        <time>2022-05-20 23:56:07</time>
      </trkpt>
      <trkpt lat="41.76897" lon="1.93261">
        <ele>321.2</ele>
        <time>2022-05-20 23:56:08</time>
      </trkpt>
      <trkpt lat="41.76899" lon="1.93267">
        <ele>321.4</ele>
        <time>2022-05-20 23:56:09</time>
      </trkpt>
      <trkpt lat="41.76901" lon="1.93272">
        <ele>321.8</ele>
        <time>2022-05-20 23:56:10</time>
      </trkpt>
      <trkpt lat="41.76904" lon="1.93277">
        <ele>322</ele>
        <time>2022-05-20 23:56:11</time>
      </trkpt>
      <trkpt lat="41.76905" lon="1.93282">
        <ele>322.2</ele>
        <time>2022-05-20 23:56:12</time>
      </trkpt>
      <trkpt lat="41.76907" lon="1.93288">
        <ele>322.4</ele>
        <time>2022-05-20 23:56:13</time>
      </trkpt>
      <trkpt lat="41.76909" lon="1.93293">
        <ele>322.6</ele>
        <time>2022-05-20 23:56:14</time>
      </trkpt>
      <trkpt lat="41.7691" lon="1.93298">
        <ele>322.8</ele>
        <time>2022-05-20 23:56:15</time>
      </trkpt>
      <trkpt lat="41.76912" lon="1.93303">
        <ele>323</ele>
        <time>2022-05-20 23:56:16</time>
      </trkpt>
      <trkpt lat="41.76913" lon="1.93308">
        <ele>323.2</ele>
        <time>2022-05-20 23:56:17</time>
      </trkpt>
      <trkpt lat="41.76915" lon="1.93314">
        <ele>323.4</ele>
        <time>2022-05-20 23:56:18</time>
      </trkpt>
      <trkpt lat="41.76916" lon="1.93319">
        <ele>323.6</ele>
        <time>2022-05-20 23:56:19</time>
      </trkpt>
      <trkpt lat="41.76917" lon="1.93324">
        <ele>323.8</ele>
        <time>2022-05-20 23:56:20</time>
      </trkpt>
      <trkpt lat="41.76917" lon="1.9333">
        <ele>324.2</ele>
        <time>2022-05-20 23:56:21</time>
      </trkpt>
      <trkpt lat="41.76917" lon="1.93335">
        <ele>324.4</ele>
        <time>2022-05-20 23:56:22</time>
      </trkpt>
      <trkpt lat="41.76917" lon="1.9334">
        <ele>324.6</ele>
        <time>2022-05-20 23:56:23</time>
      </trkpt>
      <trkpt lat="41.76918" lon="1.93346">
        <ele>324.8</ele>
        <time>2022-05-20 23:56:24</time>
      </trkpt>
      <trkpt lat="41.76917" lon="1.93351">
        <ele>325</ele>
        <time>2022-05-20 23:56:25</time>
      </trkpt>
      <trkpt lat="41.76917" lon="1.93356">
        <ele>325.2</ele>
        <time>2022-05-20 23:56:26</time>
      </trkpt>
      <trkpt lat="41.76917" lon="1.93361">
        <ele>325.4</ele>
        <time>2022-05-20 23:56:27</time>
      </trkpt>
      <trkpt lat="41.76916" lon="1.93366">
        <ele>325.6</ele>
        <time>2022-05-20 23:56:28</time>
      </trkpt>
      <trkpt lat="41.76915" lon="1.93371">
        <ele>325.6</ele>
        <time>2022-05-20 23:56:29</time>
      </trkpt>
      <trkpt lat="41.76915" lon="1.93376">
        <ele>325.8</ele>
        <time>2022-05-20 23:56:30</time>
      </trkpt>
      <trkpt lat="41.76914" lon="1.93382">
        <ele>326</ele>
        <time>2022-05-20 23:56:31</time>
      </trkpt>
      <trkpt lat="41.76913" lon="1.93388">
        <ele>326.2</ele>
        <time>2022-05-20 23:56:32</time>
      </trkpt>
      <trkpt lat="41.76913" lon="1.93393">
        <ele>326.4</ele>
        <time>2022-05-20 23:56:33</time>
      </trkpt>
      <trkpt lat="41.76912" lon="1.93399">
        <ele>326.4</ele>
        <time>2022-05-20 23:56:34</time>
      </trkpt>
      <trkpt lat="41.76911" lon="1.93405">
        <ele>326.6</ele>
        <time>2022-05-20 23:56:35</time>
      </trkpt>
      <trkpt lat="41.7691" lon="1.9341">
        <ele>326.8</ele>
        <time>2022-05-20 23:56:36</time>
      </trkpt>
      <trkpt lat="41.7691" lon="1.93416">
        <ele>327</ele>
        <time>2022-05-20 23:56:37</time>
      </trkpt>
      <trkpt lat="41.76908" lon="1.93421">
        <ele>327</ele>
        <time>2022-05-20 23:56:38</time>
      </trkpt>
      <trkpt lat="41.76907" lon="1.93427">
        <ele>327.2</ele>
        <time>2022-05-20 23:56:39</time>
      </trkpt>
      <trkpt lat="41.76907" lon="1.93433">
        <ele>327.4</ele>
        <time>2022-05-20 23:56:40</time>
      </trkpt>
      <trkpt lat="41.76905" lon="1.93438">
        <ele>327.4</ele>
        <time>2022-05-20 23:56:41</time>
      </trkpt>
      <trkpt lat="41.76905" lon="1.93444">
        <ele>327.6</ele>
        <time>2022-05-20 23:56:42</time>
      </trkpt>
      <trkpt lat="41.76904" lon="1.9345">
        <ele>327.8</ele>
        <time>2022-05-20 23:56:43</time>
      </trkpt>
      <trkpt lat="41.76903" lon="1.93456">
        <ele>328</ele>
        <time>2022-05-20 23:56:44</time>
      </trkpt>
      <trkpt lat="41.76902" lon="1.93462">
        <ele>328.2</ele>
        <time>2022-05-20 23:56:45</time>
      </trkpt>
      <trkpt lat="41.76902" lon="1.93468">
        <ele>328.2</ele>
        <time>2022-05-20 23:56:46</time>
      </trkpt>
      <trkpt lat="41.76901" lon="1.93473">
        <ele>328.4</ele>
        <time>2022-05-20 23:56:47</time>
      </trkpt>
      <trkpt lat="41.769" lon="1.93479">
        <ele>328.6</ele>
        <time>2022-05-20 23:56:48</time>
      </trkpt>
      <trkpt lat="41.76899" lon="1.93485">
        <ele>328.6</ele>
        <time>2022-05-20 23:56:49</time>
      </trkpt>
      <trkpt lat="41.76898" lon="1.93491">
        <ele>328.8</ele>
        <time>2022-05-20 23:56:50</time>
      </trkpt>
      <trkpt lat="41.76897" lon="1.93496">
        <ele>329</ele>
        <time>2022-05-20 23:56:51</time>
      </trkpt>
      <trkpt lat="41.76896" lon="1.93502">
        <ele>329.2</ele>
        <time>2022-05-20 23:56:52</time>
      </trkpt>
      <trkpt lat="41.76895" lon="1.93509">
        <ele>329.2</ele>
        <time>2022-05-20 23:56:53</time>
      </trkpt>
      <trkpt lat="41.76894" lon="1.93515">
        <ele>329.4</ele>
        <time>2022-05-20 23:56:54</time>
      </trkpt>
      <trkpt lat="41.76894" lon="1.9352">
        <ele>329.6</ele>
        <time>2022-05-20 23:56:55</time>
      </trkpt>
      <trkpt lat="41.76892" lon="1.93527">
        <ele>329.8</ele>
        <time>2022-05-20 23:56:56</time>
      </trkpt>
      <trkpt lat="41.76892" lon="1.93533">
        <ele>330</ele>
        <time>2022-05-20 23:56:57</time>
      </trkpt>
      <trkpt lat="41.76891" lon="1.93539">
        <ele>330.2</ele>
        <time>2022-05-20 23:56:58</time>
      </trkpt>
      <trkpt lat="41.7689" lon="1.93544">
        <ele>330.4</ele>
        <time>2022-05-20 23:56:59</time>
      </trkpt>
      <trkpt lat="41.76889" lon="1.9355">
        <ele>330.4</ele>
        <time>2022-05-20 23:57:00</time>
      </trkpt>
      <trkpt lat="41.76888" lon="1.93556">
        <ele>330.6</ele>
        <time>2022-05-20 23:57:01</time>
      </trkpt>
      <trkpt lat="41.76887" lon="1.93561">
        <ele>330.8</ele>
        <time>2022-05-20 23:57:02</time>
      </trkpt>
      <trkpt lat="41.76886" lon="1.93567">
        <ele>330.8</ele>
        <time>2022-05-20 23:57:03</time>
      </trkpt>
      <trkpt lat="41.76885" lon="1.93573">
        <ele>331</ele>
        <time>2022-05-20 23:57:04</time>
      </trkpt>
      <trkpt lat="41.76884" lon="1.93578">
        <ele>331.2</ele>
        <time>2022-05-20 23:57:05</time>
      </trkpt>
      <trkpt lat="41.76883" lon="1.93584">
        <ele>331.2</ele>
        <time>2022-05-20 23:57:06</time>
      </trkpt>
      <trkpt lat="41.76882" lon="1.93591">
        <ele>331.4</ele>
        <time>2022-05-20 23:57:07</time>
      </trkpt>
      <trkpt lat="41.76881" lon="1.93597">
        <ele>331.6</ele>
        <time>2022-05-20 23:57:08</time>
      </trkpt>
      <trkpt lat="41.76881" lon="1.93603">
        <ele>331.6</ele>
        <time>2022-05-20 23:57:09</time>
      </trkpt>
      <trkpt lat="41.76881" lon="1.93609">
        <ele>331.8</ele>
        <time>2022-05-20 23:57:10</time>
      </trkpt>
      <trkpt lat="41.7688" lon="1.93615">
        <ele>331.8</ele>
        <time>2022-05-20 23:57:11</time>
      </trkpt>
      <trkpt lat="41.7688" lon="1.93621">
        <ele>332</ele>
        <time>2022-05-20 23:57:12</time>
      </trkpt>
      <trkpt lat="41.7688" lon="1.93627">
        <ele>332</ele>
        <time>2022-05-20 23:57:13</time>
      </trkpt>
      <trkpt lat="41.7688" lon="1.93633">
        <ele>332</ele>
        <time>2022-05-20 23:57:14</time>
      </trkpt>
      <trkpt lat="41.7688" lon="1.9364">
        <ele>332.2</ele>
        <time>2022-05-20 23:57:15</time>
      </trkpt>
      <trkpt lat="41.7688" lon="1.93646">
        <ele>332.2</ele>
        <time>2022-05-20 23:57:16</time>
      </trkpt>
      <trkpt lat="41.7688" lon="1.93653">
        <ele>332.2</ele>
        <time>2022-05-20 23:57:17</time>
      </trkpt>
      <trkpt lat="41.76881" lon="1.93659">
        <ele>332.4</ele>
        <time>2022-05-20 23:57:18</time>
      </trkpt>
      <trkpt lat="41.76882" lon="1.93665">
        <ele>332.4</ele>
        <time>2022-05-20 23:57:19</time>
      </trkpt>
      <trkpt lat="41.76883" lon="1.93672">
        <ele>332.6</ele>
        <time>2022-05-20 23:57:20</time>
      </trkpt>
      <trkpt lat="41.76883" lon="1.93678">
        <ele>332.6</ele>
        <time>2022-05-20 23:57:21</time>
      </trkpt>
      <trkpt lat="41.76884" lon="1.93684">
        <ele>332.6</ele>
        <time>2022-05-20 23:57:22</time>
      </trkpt>
      <trkpt lat="41.76884" lon="1.9369">
        <ele>332.8</ele>
        <time>2022-05-20 23:57:23</time>
      </trkpt>
      <trkpt lat="41.76885" lon="1.93696">
        <ele>333</ele>
        <time>2022-05-20 23:57:24</time>
      </trkpt>
      <trkpt lat="41.76885" lon="1.93702">
        <ele>333</ele>
        <time>2022-05-20 23:57:25</time>
      </trkpt>
      <trkpt lat="41.76886" lon="1.93708">
        <ele>333.2</ele>
        <time>2022-05-20 23:57:26</time>
      </trkpt>
      <trkpt lat="41.76887" lon="1.93715">
        <ele>333.4</ele>
        <time>2022-05-20 23:57:27</time>
      </trkpt>
      <trkpt lat="41.76887" lon="1.93721">
        <ele>333.6</ele>
        <time>2022-05-20 23:57:28</time>
      </trkpt>
      <trkpt lat="41.76888" lon="1.93727">
        <ele>333.6</ele>
        <time>2022-05-20 23:57:29</time>
      </trkpt>
      <trkpt lat="41.76888" lon="1.93733">
        <ele>333.8</ele>
        <time>2022-05-20 23:57:30</time>
      </trkpt>
      <trkpt lat="41.76889" lon="1.93739">
        <ele>334</ele>
        <time>2022-05-20 23:57:31</time>
      </trkpt>
      <trkpt lat="41.76889" lon="1.93744">
        <ele>334.2</ele>
        <time>2022-05-20 23:57:32</time>
      </trkpt>
      <trkpt lat="41.7689" lon="1.9375">
        <ele>334.4</ele>
        <time>2022-05-20 23:57:33</time>
      </trkpt>
      <trkpt lat="41.76891" lon="1.93756">
        <ele>334.6</ele>
        <time>2022-05-20 23:57:34</time>
      </trkpt>
      <trkpt lat="41.76892" lon="1.93761">
        <ele>334.8</ele>
        <time>2022-05-20 23:57:35</time>
      </trkpt>
      <trkpt lat="41.76892" lon="1.93767">
        <ele>335</ele>
        <time>2022-05-20 23:57:36</time>
      </trkpt>
      <trkpt lat="41.76892" lon="1.93773">
        <ele>335.2</ele>
        <time>2022-05-20 23:57:37</time>
      </trkpt>
      <trkpt lat="41.76893" lon="1.93778">
        <ele>335.4</ele>
        <time>2022-05-20 23:57:38</time>
      </trkpt>
      <trkpt lat="41.76893" lon="1.93784">
        <ele>335.6</ele>
        <time>2022-05-20 23:57:39</time>
      </trkpt>
      <trkpt lat="41.76894" lon="1.93789">
        <ele>335.8</ele>
        <time>2022-05-20 23:57:40</time>
      </trkpt>
      <trkpt lat="41.76894" lon="1.93795">
        <ele>336</ele>
        <time>2022-05-20 23:57:41</time>
      </trkpt>
      <trkpt lat="41.76894" lon="1.938">
        <ele>336.2</ele>
        <time>2022-05-20 23:57:42</time>
      </trkpt>
      <trkpt lat="41.76895" lon="1.93805">
        <ele>336.4</ele>
        <time>2022-05-20 23:57:43</time>
      </trkpt>
      <trkpt lat="41.76896" lon="1.9381">
        <ele>336.6</ele>
        <time>2022-05-20 23:57:44</time>
      </trkpt>
      <trkpt lat="41.76896" lon="1.93816">
        <ele>336.8</ele>
        <time>2022-05-20 23:57:45</time>
      </trkpt>
      <trkpt lat="41.76896" lon="1.93821">
        <ele>337</ele>
        <time>2022-05-20 23:57:46</time>
      </trkpt>
      <trkpt lat="41.76896" lon="1.93826">
        <ele>337.2</ele>
        <time>2022-05-20 23:57:47</time>
      </trkpt>
      <trkpt lat="41.76897" lon="1.93832">
        <ele>337.4</ele>
        <time>2022-05-20 23:57:48</time>
      </trkpt>
      <trkpt lat="41.76897" lon="1.93837">
        <ele>337.6</ele>
        <time>2022-05-20 23:57:49</time>
      </trkpt>
      <trkpt lat="41.76898" lon="1.93843">
        <ele>337.8</ele>
        <time>2022-05-20 23:57:50</time>
      </trkpt>
      <trkpt lat="41.76899" lon="1.93848">
        <ele>338</ele>
        <time>2022-05-20 23:57:51</time>
      </trkpt>
      <trkpt lat="41.76899" lon="1.93853">
        <ele>338.2</ele>
        <time>2022-05-20 23:57:52</time>
      </trkpt>
      <trkpt lat="41.769" lon="1.93859">
        <ele>338.4</ele>
        <time>2022-05-20 23:57:53</time>
      </trkpt>
      <trkpt lat="41.769" lon="1.93864">
        <ele>338.6</ele>
        <time>2022-05-20 23:57:54</time>
      </trkpt>
      <trkpt lat="41.769" lon="1.93869">
        <ele>338.8</ele>
        <time>2022-05-20 23:57:55</time>
      </trkpt>
      <trkpt lat="41.769" lon="1.93875">
        <ele>339</ele>
        <time>2022-05-20 23:57:56</time>
      </trkpt>
      <trkpt lat="41.769" lon="1.9388">
        <ele>339.2</ele>
        <time>2022-05-20 23:57:57</time>
      </trkpt>
      <trkpt lat="41.76901" lon="1.93886">
        <ele>339.4</ele>
        <time>2022-05-20 23:57:58</time>
      </trkpt>
      <trkpt lat="41.76902" lon="1.93891">
        <ele>339.6</ele>
        <time>2022-05-20 23:57:59</time>
      </trkpt>
      <trkpt lat="41.76902" lon="1.93896">
        <ele>339.8</ele>
        <time>2022-05-20 23:58:00</time>
      </trkpt>
      <trkpt lat="41.76903" lon="1.93901">
        <ele>340</ele>
        <time>2022-05-20 23:58:01</time>
      </trkpt>
      <trkpt lat="41.76903" lon="1.93906">
        <ele>340.2</ele>
        <time>2022-05-20 23:58:02</time>
      </trkpt>
      <trkpt lat="41.76904" lon="1.93911">
        <ele>340.4</ele>
        <time>2022-05-20 23:58:03</time>
      </trkpt>
      <trkpt lat="41.76904" lon="1.93916">
        <ele>340.6</ele>
        <time>2022-05-20 23:58:04</time>
      </trkpt>
      <trkpt lat="41.76904" lon="1.93922">
        <ele>340.8</ele>
        <time>2022-05-20 23:58:05</time>
      </trkpt>
      <trkpt lat="41.76905" lon="1.93927">
        <ele>341</ele>
        <time>2022-05-20 23:58:06</time>
      </trkpt>
      <trkpt lat="41.76905" lon="1.93933">
        <ele>341.2</ele>
        <time>2022-05-20 23:58:07</time>
      </trkpt>
      <trkpt lat="41.76906" lon="1.93938">
        <ele>341.4</ele>
        <time>2022-05-20 23:58:08</time>
      </trkpt>
      <trkpt lat="41.76906" lon="1.93943">
        <ele>341.6</ele>
        <time>2022-05-20 23:58:09</time>
      </trkpt>
      <trkpt lat="41.76907" lon="1.93949">
        <ele>341.8</ele>
        <time>2022-05-20 23:58:10</time>
      </trkpt>
      <trkpt lat="41.76907" lon="1.93954">
        <ele>342</ele>
        <time>2022-05-20 23:58:11</time>
      </trkpt>
      <trkpt lat="41.76907" lon="1.9396">
        <ele>342.2</ele>
        <time>2022-05-20 23:58:12</time>
      </trkpt>
      <trkpt lat="41.76907" lon="1.93966">
        <ele>342.4</ele>
        <time>2022-05-20 23:58:13</time>
      </trkpt>
      <trkpt lat="41.76907" lon="1.93971">
        <ele>342.6</ele>
        <time>2022-05-20 23:58:14</time>
      </trkpt>
      <trkpt lat="41.76908" lon="1.93977">
        <ele>342.8</ele>
        <time>2022-05-20 23:58:15</time>
      </trkpt>
      <trkpt lat="41.76908" lon="1.93982">
        <ele>343</ele>
        <time>2022-05-20 23:58:16</time>
      </trkpt>
      <trkpt lat="41.76908" lon="1.93988">
        <ele>343.4</ele>
        <time>2022-05-20 23:58:17</time>
      </trkpt>
      <trkpt lat="41.76909" lon="1.93993">
        <ele>343.6</ele>
        <time>2022-05-20 23:58:18</time>
      </trkpt>
      <trkpt lat="41.7691" lon="1.93997">
        <ele>343.8</ele>
        <time>2022-05-20 23:58:19</time>
      </trkpt>
      <trkpt lat="41.7691" lon="1.94002">
        <ele>344</ele>
        <time>2022-05-20 23:58:20</time>
      </trkpt>
      <trkpt lat="41.7691" lon="1.94007">
        <ele>344.2</ele>
        <time>2022-05-20 23:58:21</time>
      </trkpt>
      <trkpt lat="41.76911" lon="1.94012">
        <ele>344.4</ele>
        <time>2022-05-20 23:58:22</time>
      </trkpt>
      <trkpt lat="41.76911" lon="1.94018">
        <ele>344.6</ele>
        <time>2022-05-20 23:58:23</time>
      </trkpt>
      <trkpt lat="41.76912" lon="1.94023">
        <ele>344.8</ele>
        <time>2022-05-20 23:58:24</time>
      </trkpt>
      <trkpt lat="41.76912" lon="1.94028">
        <ele>345</ele>
        <time>2022-05-20 23:58:25</time>
      </trkpt>
      <trkpt lat="41.76912" lon="1.94033">
        <ele>345.2</ele>
        <time>2022-05-20 23:58:26</time>
      </trkpt>
      <trkpt lat="41.76913" lon="1.94038">
        <ele>345.4</ele>
        <time>2022-05-20 23:58:27</time>
      </trkpt>
      <trkpt lat="41.76913" lon="1.94043">
        <ele>345.6</ele>
        <time>2022-05-20 23:58:28</time>
      </trkpt>
      <trkpt lat="41.76913" lon="1.94048">
        <ele>345.8</ele>
        <time>2022-05-20 23:58:29</time>
      </trkpt>
      <trkpt lat="41.76913" lon="1.94053">
        <ele>346</ele>
        <time>2022-05-20 23:58:30</time>
      </trkpt>
      <trkpt lat="41.76913" lon="1.94058">
        <ele>346.2</ele>
        <time>2022-05-20 23:58:31</time>
      </trkpt>
      <trkpt lat="41.76914" lon="1.94063">
        <ele>346.4</ele>
        <time>2022-05-20 23:58:32</time>
      </trkpt>
      <trkpt lat="41.76914" lon="1.94068">
        <ele>346.6</ele>
        <time>2022-05-20 23:58:33</time>
      </trkpt>
      <trkpt lat="41.76915" lon="1.94073">
        <ele>346.8</ele>
        <time>2022-05-20 23:58:34</time>
      </trkpt>
      <trkpt lat="41.76916" lon="1.94078">
        <ele>347</ele>
        <time>2022-05-20 23:58:35</time>
      </trkpt>
      <trkpt lat="41.76917" lon="1.94083">
        <ele>347.2</ele>
        <time>2022-05-20 23:58:36</time>
      </trkpt>
      <trkpt lat="41.76917" lon="1.94087">
        <ele>347.4</ele>
        <time>2022-05-20 23:58:37</time>
      </trkpt>
      <trkpt lat="41.76918" lon="1.94093">
        <ele>347.6</ele>
        <time>2022-05-20 23:58:38</time>
      </trkpt>
      <trkpt lat="41.76919" lon="1.94098">
        <ele>347.6</ele>
        <time>2022-05-20 23:58:39</time>
      </trkpt>
      <trkpt lat="41.7692" lon="1.94103">
        <ele>347.8</ele>
        <time>2022-05-20 23:58:40</time>
      </trkpt>
      <trkpt lat="41.76922" lon="1.94108">
        <ele>348</ele>
        <time>2022-05-20 23:58:41</time>
      </trkpt>
      <trkpt lat="41.76924" lon="1.94113">
        <ele>348.2</ele>
        <time>2022-05-20 23:58:42</time>
      </trkpt>
      <trkpt lat="41.76925" lon="1.94118">
        <ele>348.4</ele>
        <time>2022-05-20 23:58:43</time>
      </trkpt>
      <trkpt lat="41.76927" lon="1.94123">
        <ele>348.4</ele>
        <time>2022-05-20 23:58:44</time>
      </trkpt>
      <trkpt lat="41.76929" lon="1.94127">
        <ele>348.6</ele>
        <time>2022-05-20 23:58:45</time>
      </trkpt>
      <trkpt lat="41.76931" lon="1.94132">
        <ele>348.8</ele>
        <time>2022-05-20 23:58:46</time>
      </trkpt>
      <trkpt lat="41.76933" lon="1.94136">
        <ele>349</ele>
        <time>2022-05-20 23:58:47</time>
      </trkpt>
      <trkpt lat="41.76934" lon="1.94141">
        <ele>349.2</ele>
        <time>2022-05-20 23:58:48</time>
      </trkpt>
      <trkpt lat="41.76936" lon="1.94146">
        <ele>349.4</ele>
        <time>2022-05-20 23:58:49</time>
      </trkpt>
      <trkpt lat="41.76938" lon="1.9415">
        <ele>349.6</ele>
        <time>2022-05-20 23:58:50</time>
      </trkpt>
      <trkpt lat="41.7694" lon="1.94155">
        <ele>349.8</ele>
        <time>2022-05-20 23:58:51</time>
      </trkpt>
      <trkpt lat="41.76942" lon="1.94159">
        <ele>350</ele>
        <time>2022-05-20 23:58:52</time>
      </trkpt>
      <trkpt lat="41.76943" lon="1.94163">
        <ele>350.2</ele>
        <time>2022-05-20 23:58:53</time>
      </trkpt>
      <trkpt lat="41.76945" lon="1.94168">
        <ele>350.4</ele>
        <time>2022-05-20 23:58:54</time>
      </trkpt>
      <trkpt lat="41.76947" lon="1.94172">
        <ele>350.8</ele>
        <time>2022-05-20 23:58:55</time>
      </trkpt>
      <trkpt lat="41.76949" lon="1.94176">
        <ele>351</ele>
        <time>2022-05-20 23:58:56</time>
      </trkpt>
      <trkpt lat="41.76951" lon="1.9418">
        <ele>351.2</ele>
        <time>2022-05-20 23:58:57</time>
      </trkpt>
      <trkpt lat="41.76954" lon="1.94184">
        <ele>351.4</ele>
        <time>2022-05-20 23:58:58</time>
      </trkpt>
      <trkpt lat="41.76955" lon="1.94188">
        <ele>351.6</ele>
        <time>2022-05-20 23:58:59</time>
      </trkpt>
      <trkpt lat="41.76957" lon="1.94193">
        <ele>351.8</ele>
        <time>2022-05-20 23:59:00</time>
      </trkpt>
      <trkpt lat="41.76959" lon="1.94197">
        <ele>352</ele>
        <time>2022-05-20 23:59:01</time>
      </trkpt>
      <trkpt lat="41.7696" lon="1.94202">
        <ele>352.2</ele>
        <time>2022-05-20 23:59:02</time>
      </trkpt>
      <trkpt lat="41.76962" lon="1.94206">
        <ele>352.4</ele>
        <time>2022-05-20 23:59:03</time>
      </trkpt>
      <trkpt lat="41.76964" lon="1.9421">
        <ele>352.6</ele>
        <time>2022-05-20 23:59:04</time>
      </trkpt>
      <trkpt lat="41.76966" lon="1.94214">
        <ele>353</ele>
        <time>2022-05-20 23:59:05</time>
      </trkpt>
      <trkpt lat="41.76967" lon="1.94219">
        <ele>353.2</ele>
        <time>2022-05-20 23:59:06</time>
      </trkpt>
      <trkpt lat="41.76969" lon="1.94223">
        <ele>353.4</ele>
        <time>2022-05-20 23:59:07</time>
      </trkpt>
      <trkpt lat="41.76971" lon="1.94227">
        <ele>353.6</ele>
        <time>2022-05-20 23:59:08</time>
      </trkpt>
      <trkpt lat="41.76973" lon="1.94231">
        <ele>353.8</ele>
        <time>2022-05-20 23:59:09</time>
      </trkpt>
      <trkpt lat="41.76974" lon="1.94235">
        <ele>354</ele>
        <time>2022-05-20 23:59:10</time>
      </trkpt>
      <trkpt lat="41.76976" lon="1.94239">
        <ele>354.2</ele>
        <time>2022-05-20 23:59:11</time>
      </trkpt>
      <trkpt lat="41.76978" lon="1.94243">
        <ele>354.2</ele>
        <time>2022-05-20 23:59:12</time>
      </trkpt>
      <trkpt lat="41.7698" lon="1.94247">
        <ele>354.6</ele>
        <time>2022-05-20 23:59:13</time>
      </trkpt>
      <trkpt lat="41.76982" lon="1.94251">
        <ele>354.8</ele>
        <time>2022-05-20 23:59:14</time>
      </trkpt>
      <trkpt lat="41.76983" lon="1.94254">
        <ele>355</ele>
        <time>2022-05-20 23:59:15</time>
      </trkpt>
      <trkpt lat="41.76985" lon="1.94258">
        <ele>355.2</ele>
        <time>2022-05-20 23:59:16</time>
      </trkpt>
      <trkpt lat="41.76987" lon="1.94262">
        <ele>355.4</ele>
        <time>2022-05-20 23:59:17</time>
      </trkpt>
      <trkpt lat="41.76989" lon="1.94266">
        <ele>355.6</ele>
        <time>2022-05-20 23:59:18</time>
      </trkpt>
      <trkpt lat="41.7699" lon="1.9427">
        <ele>356</ele>
        <time>2022-05-20 23:59:19</time>
      </trkpt>
      <trkpt lat="41.76992" lon="1.94274">
        <ele>356.2</ele>
        <time>2022-05-20 23:59:20</time>
      </trkpt>
      <trkpt lat="41.76993" lon="1.94278">
        <ele>356.4</ele>
        <time>2022-05-20 23:59:21</time>
      </trkpt>
      <trkpt lat="41.76995" lon="1.94282">
        <ele>356.6</ele>
        <time>2022-05-20 23:59:22</time>
      </trkpt>
      <trkpt lat="41.76996" lon="1.94286">
        <ele>356.8</ele>
        <time>2022-05-20 23:59:23</time>
      </trkpt>
      <trkpt lat="41.76998" lon="1.9429">
        <ele>357</ele>
        <time>2022-05-20 23:59:24</time>
      </trkpt>
      <trkpt lat="41.77" lon="1.94295">
        <ele>357.2</ele>
        <time>2022-05-20 23:59:25</time>
      </trkpt>
      <trkpt lat="41.77001" lon="1.94299">
        <ele>357.4</ele>
        <time>2022-05-20 23:59:26</time>
      </trkpt>
      <trkpt lat="41.77003" lon="1.94302">
        <ele>357.6</ele>
        <time>2022-05-20 23:59:27</time>
      </trkpt>
      <trkpt lat="41.77005" lon="1.94306">
        <ele>357.8</ele>
        <time>2022-05-20 23:59:28</time>
      </trkpt>
      <trkpt lat="41.77007" lon="1.9431">
        <ele>358</ele>
        <time>2022-05-20 23:59:29</time>
      </trkpt>
      <trkpt lat="41.77008" lon="1.94314">
        <ele>358.2</ele>
        <time>2022-05-20 23:59:30</time>
      </trkpt>
      <trkpt lat="41.7701" lon="1.94318">
        <ele>358.4</ele>
        <time>2022-05-20 23:59:31</time>
      </trkpt>
      <trkpt lat="41.77011" lon="1.94322">
        <ele>358.6</ele>
        <time>2022-05-20 23:59:32</time>
      </trkpt>
      <trkpt lat="41.77013" lon="1.94326">
        <ele>358.8</ele>
        <time>2022-05-20 23:59:33</time>
      </trkpt>
      <trkpt lat="41.77014" lon="1.94329">
        <ele>359</ele>
        <time>2022-05-20 23:59:34</time>
      </trkpt>
      <trkpt lat="41.77016" lon="1.94333">
        <ele>359.2</ele>
        <time>2022-05-20 23:59:35</time>
      </trkpt>
      <trkpt lat="41.77017" lon="1.94337">
        <ele>359.4</ele>
        <time>2022-05-20 23:59:36</time>
      </trkpt>
      <trkpt lat="41.77019" lon="1.94341">
        <ele>359.6</ele>
        <time>2022-05-20 23:59:37</time>
      </trkpt>
      <trkpt lat="41.7702" lon="1.94345">
        <ele>359.8</ele>
        <time>2022-05-20 23:59:38</time>
      </trkpt>
      <trkpt lat="41.77022" lon="1.94348">
        <ele>360</ele>
        <time>2022-05-20 23:59:39</time>
      </trkpt>
      <trkpt lat="41.77024" lon="1.94352">
        <ele>360.2</ele>
        <time>2022-05-20 23:59:40</time>
      </trkpt>
      <trkpt lat="41.77025" lon="1.94356">
        <ele>360.4</ele>
        <time>2022-05-20 23:59:41</time>
      </trkpt>
      <trkpt lat="41.77027" lon="1.9436">
        <ele>360.8</ele>
        <time>2022-05-20 23:59:42</time>
      </trkpt>
      <trkpt lat="41.77029" lon="1.94363">
        <ele>361</ele>
        <time>2022-05-20 23:59:43</time>
      </trkpt>
      <trkpt lat="41.7703" lon="1.94367">
        <ele>361.2</ele>
        <time>2022-05-20 23:59:44</time>
      </trkpt>
      <trkpt lat="41.77031" lon="1.94371">
        <ele>361.4</ele>
        <time>2022-05-20 23:59:45</time>
      </trkpt>
      <trkpt lat="41.77033" lon="1.94375">
        <ele>361.6</ele>
        <time>2022-05-20 23:59:46</time>
      </trkpt>
      <trkpt lat="41.77034" lon="1.94379">
        <ele>361.8</ele>
        <time>2022-05-20 23:59:47</time>
      </trkpt>
      <trkpt lat="41.77036" lon="1.94383">
        <ele>362</ele>
        <time>2022-05-20 23:59:48</time>
      </trkpt>
      <trkpt lat="41.77037" lon="1.94387">
        <ele>362.2</ele>
        <time>2022-05-20 23:59:49</time>
      </trkpt>
      <trkpt lat="41.77038" lon="1.94391">
        <ele>362.4</ele>
        <time>2022-05-20 23:59:50</time>
      </trkpt>
      <trkpt lat="41.77039" lon="1.94395">
        <ele>362.6</ele>
        <time>2022-05-20 23:59:51</time>
      </trkpt>
      <trkpt lat="41.7704" lon="1.94399">
        <ele>362.8</ele>
        <time>2022-05-20 23:59:52</time>
      </trkpt>
      <trkpt lat="41.77041" lon="1.94403">
        <ele>363</ele>
        <time>2022-05-20 23:59:53</time>
      </trkpt>
      <trkpt lat="41.77042" lon="1.94407">
        <ele>363.2</ele>
        <time>2022-05-20 23:59:54</time>
      </trkpt>
      <trkpt lat="41.77042" lon="1.94412">
        <ele>363.6</ele>
        <time>2022-05-20 23:59:55</time>
      </trkpt>
      <trkpt lat="41.77042" lon="1.94416">
        <ele>363.8</ele>
        <time>2022-05-20 23:59:56</time>
      </trkpt>
      <trkpt lat="41.77042" lon="1.9442">
        <ele>364</ele>
        <time>2022-05-20 23:59:57</time>
      </trkpt>
      <trkpt lat="41.77041" lon="1.94424">
        <ele>364.2</ele>
        <time>2022-05-20 23:59:58</time>
      </trkpt>
      <trkpt lat="41.7704" lon="1.94428">
        <ele>364.4</ele>
        <time>2022-05-20 23:59:59</time>
      </trkpt>
      <trkpt lat="41.77039" lon="1.94432">
        <ele>364.6</ele>
        <time>2022-05-21 00:00:00</time>
      </trkpt>
      <trkpt lat="41.77039" lon="1.94435">
        <ele>365</ele>
        <time>2022-05-21 00:00:01</time>
      </trkpt>
      <trkpt lat="41.77037" lon="1.9444">
        <ele>365.2</ele>
        <time>2022-05-21 00:00:02</time>
      </trkpt>
      <trkpt lat="41.77036" lon="1.94443">
        <ele>365.4</ele>
        <time>2022-05-21 00:00:03</time>
      </trkpt>
      <trkpt lat="41.77034" lon="1.94447">
        <ele>365.6</ele>
        <time>2022-05-21 00:00:04</time>
      </trkpt>
      <trkpt lat="41.77033" lon="1.94451">
        <ele>365.8</ele>
        <time>2022-05-21 00:00:05</time>
      </trkpt>
      <trkpt lat="41.77031" lon="1.94454">
        <ele>366</ele>
        <time>2022-05-21 00:00:06</time>
      </trkpt>
      <trkpt lat="41.7703" lon="1.94458">
        <ele>366.2</ele>
        <time>2022-05-21 00:00:07</time>
      </trkpt>
      <trkpt lat="41.77028" lon="1.94461">
        <ele>366.4</ele>
        <time>2022-05-21 00:00:08</time>
      </trkpt>
      <trkpt lat="41.77027" lon="1.94464">
        <ele>366.6</ele>
        <time>2022-05-21 00:00:09</time>
      </trkpt>
      <trkpt lat="41.77026" lon="1.94468">
        <ele>366.8</ele>
        <time>2022-05-21 00:00:10</time>
      </trkpt>
      <trkpt lat="41.77024" lon="1.94471">
        <ele>367</ele>
        <time>2022-05-21 00:00:11</time>
      </trkpt>
      <trkpt lat="41.77023" lon="1.94474">
        <ele>367.2</ele>
        <time>2022-05-21 00:00:12</time>
      </trkpt>
      <trkpt lat="41.77021" lon="1.94477">
        <ele>367.4</ele>
        <time>2022-05-21 00:00:13</time>
      </trkpt>
      <trkpt lat="41.7702" lon="1.9448">
        <ele>367.6</ele>
        <time>2022-05-21 00:00:14</time>
      </trkpt>
      <trkpt lat="41.77018" lon="1.94483">
        <ele>368</ele>
        <time>2022-05-21 00:00:15</time>
      </trkpt>
      <trkpt lat="41.77016" lon="1.94486">
        <ele>368.2</ele>
        <time>2022-05-21 00:00:16</time>
      </trkpt>
      <trkpt lat="41.77015" lon="1.9449">
        <ele>368.4</ele>
        <time>2022-05-21 00:00:17</time>
      </trkpt>
      <trkpt lat="41.77014" lon="1.94493">
        <ele>368.6</ele>
        <time>2022-05-21 00:00:18</time>
      </trkpt>
      <trkpt lat="41.77013" lon="1.94496">
        <ele>368.8</ele>
        <time>2022-05-21 00:00:19</time>
      </trkpt>
      <trkpt lat="41.77011" lon="1.94499">
        <ele>369</ele>
        <time>2022-05-21 00:00:20</time>
      </trkpt>
      <trkpt lat="41.7701" lon="1.94502">
        <ele>369.2</ele>
        <time>2022-05-21 00:00:21</time>
      </trkpt>
      <trkpt lat="41.77008" lon="1.94505">
        <ele>369.4</ele>
        <time>2022-05-21 00:00:22</time>
      </trkpt>
      <trkpt lat="41.77008" lon="1.94508">
        <ele>369.6</ele>
        <time>2022-05-21 00:00:23</time>
      </trkpt>
      <trkpt lat="41.77007" lon="1.94512">
        <ele>369.8</ele>
        <time>2022-05-21 00:00:24</time>
      </trkpt>
      <trkpt lat="41.77006" lon="1.94516">
        <ele>370</ele>
        <time>2022-05-21 00:00:25</time>
      </trkpt>
      <trkpt lat="41.77005" lon="1.94519">
        <ele>370.2</ele>
        <time>2022-05-21 00:00:26</time>
      </trkpt>
      <trkpt lat="41.77005" lon="1.94523">
        <ele>370.4</ele>
        <time>2022-05-21 00:00:27</time>
      </trkpt>
      <trkpt lat="41.77004" lon="1.94526">
        <ele>370.6</ele>
        <time>2022-05-21 00:00:28</time>
      </trkpt>
      <trkpt lat="41.77003" lon="1.94531">
        <ele>370.8</ele>
        <time>2022-05-21 00:00:29</time>
      </trkpt>
      <trkpt lat="41.77002" lon="1.94535">
        <ele>371</ele>
        <time>2022-05-21 00:00:30</time>
      </trkpt>
      <trkpt lat="41.77002" lon="1.94539">
        <ele>371.2</ele>
        <time>2022-05-21 00:00:31</time>
      </trkpt>
      <trkpt lat="41.77002" lon="1.94544">
        <ele>371.4</ele>
        <time>2022-05-21 00:00:32</time>
      </trkpt>
      <trkpt lat="41.77001" lon="1.94548">
        <ele>371.6</ele>
        <time>2022-05-21 00:00:33</time>
      </trkpt>
      <trkpt lat="41.77001" lon="1.94552">
        <ele>371.8</ele>
        <time>2022-05-21 00:00:34</time>
      </trkpt>
      <trkpt lat="41.77" lon="1.94557">
        <ele>372</ele>
        <time>2022-05-21 00:00:35</time>
      </trkpt>
      <trkpt lat="41.77" lon="1.94561">
        <ele>372.2</ele>
        <time>2022-05-21 00:00:36</time>
      </trkpt>
      <trkpt lat="41.77" lon="1.94565">
        <ele>372.4</ele>
        <time>2022-05-21 00:00:37</time>
      </trkpt>
      <trkpt lat="41.77" lon="1.9457">
        <ele>372.6</ele>
        <time>2022-05-21 00:00:38</time>
      </trkpt>
      <trkpt lat="41.77" lon="1.94575">
        <ele>372.6</ele>
        <time>2022-05-21 00:00:39</time>
      </trkpt>
      <trkpt lat="41.77" lon="1.9458">
        <ele>372.8</ele>
        <time>2022-05-21 00:00:40</time>
      </trkpt>
      <trkpt lat="41.77" lon="1.94585">
        <ele>372.8</ele>
        <time>2022-05-21 00:00:41</time>
      </trkpt>
      <trkpt lat="41.77001" lon="1.9459">
        <ele>373</ele>
        <time>2022-05-21 00:00:42</time>
      </trkpt>
      <trkpt lat="41.77001" lon="1.94596">
        <ele>373</ele>
        <time>2022-05-21 00:00:43</time>
      </trkpt>
      <trkpt lat="41.77002" lon="1.94601">
        <ele>373.2</ele>
        <time>2022-05-21 00:00:44</time>
      </trkpt>
      <trkpt lat="41.77002" lon="1.94607">
        <ele>373.2</ele>
        <time>2022-05-21 00:00:45</time>
      </trkpt>
      <trkpt lat="41.77002" lon="1.94613">
        <ele>373.4</ele>
        <time>2022-05-21 00:00:46</time>
      </trkpt>
      <trkpt lat="41.77003" lon="1.94619">
        <ele>373.4</ele>
        <time>2022-05-21 00:00:47</time>
      </trkpt>
      <trkpt lat="41.77003" lon="1.94625">
        <ele>373.4</ele>
        <time>2022-05-21 00:00:48</time>
      </trkpt>
      <trkpt lat="41.77004" lon="1.94631">
        <ele>373.6</ele>
        <time>2022-05-21 00:00:49</time>
      </trkpt>
      <trkpt lat="41.77005" lon="1.94637">
        <ele>373.6</ele>
        <time>2022-05-21 00:00:50</time>
      </trkpt>
      <trkpt lat="41.77005" lon="1.94643">
        <ele>373.8</ele>
        <time>2022-05-21 00:00:51</time>
      </trkpt>
      <trkpt lat="41.77006" lon="1.94649">
        <ele>373.8</ele>
        <time>2022-05-21 00:00:52</time>
      </trkpt>
      <trkpt lat="41.77006" lon="1.94655">
        <ele>374</ele>
        <time>2022-05-21 00:00:53</time>
      </trkpt>
      <trkpt lat="41.77007" lon="1.94661">
        <ele>374</ele>
        <time>2022-05-21 00:00:54</time>
      </trkpt>
      <trkpt lat="41.77007" lon="1.94667">
        <ele>374.2</ele>
        <time>2022-05-21 00:00:55</time>
      </trkpt>
      <trkpt lat="41.77008" lon="1.94673">
        <ele>374.2</ele>
        <time>2022-05-21 00:00:56</time>
      </trkpt>
      <trkpt lat="41.77008" lon="1.94679">
        <ele>374.4</ele>
        <time>2022-05-21 00:00:57</time>
      </trkpt>
      <trkpt lat="41.77009" lon="1.94685">
        <ele>374.4</ele>
        <time>2022-05-21 00:00:58</time>
      </trkpt>
      <trkpt lat="41.7701" lon="1.94691">
        <ele>374.6</ele>
        <time>2022-05-21 00:00:59</time>
      </trkpt>
      <trkpt lat="41.7701" lon="1.94697">
        <ele>374.6</ele>
        <time>2022-05-21 00:01:00</time>
      </trkpt>
      <trkpt lat="41.77011" lon="1.94703">
        <ele>374.8</ele>
        <time>2022-05-21 00:01:01</time>
      </trkpt>
      <trkpt lat="41.77012" lon="1.94709">
        <ele>374.8</ele>
        <time>2022-05-21 00:01:02</time>
      </trkpt>
      <trkpt lat="41.77014" lon="1.94715">
        <ele>375</ele>
        <time>2022-05-21 00:01:03</time>
      </trkpt>
      <trkpt lat="41.77016" lon="1.94721">
        <ele>375</ele>
        <time>2022-05-21 00:01:04</time>
      </trkpt>
      <trkpt lat="41.77018" lon="1.94726">
        <ele>375.2</ele>
        <time>2022-05-21 00:01:05</time>
      </trkpt>
      <trkpt lat="41.77021" lon="1.94732">
        <ele>375.2</ele>
        <time>2022-05-21 00:01:06</time>
      </trkpt>
      <trkpt lat="41.77023" lon="1.94737">
        <ele>375.2</ele>
        <time>2022-05-21 00:01:07</time>
      </trkpt>
      <trkpt lat="41.77026" lon="1.94742">
        <ele>375.4</ele>
        <time>2022-05-21 00:01:08</time>
      </trkpt>
      <trkpt lat="41.77029" lon="1.94746">
        <ele>375.4</ele>
        <time>2022-05-21 00:01:09</time>
      </trkpt>
      <trkpt lat="41.77033" lon="1.94751">
        <ele>375.4</ele>
        <time>2022-05-21 00:01:10</time>
      </trkpt>
      <trkpt lat="41.77037" lon="1.94755">
        <ele>375.4</ele>
        <time>2022-05-21 00:01:11</time>
      </trkpt>
      <trkpt lat="41.77042" lon="1.94759">
        <ele>375.4</ele>
        <time>2022-05-21 00:01:12</time>
      </trkpt>
      <trkpt lat="41.77046" lon="1.94763">
        <ele>375.4</ele>
        <time>2022-05-21 00:01:13</time>
      </trkpt>
      <trkpt lat="41.7705" lon="1.94767">
        <ele>375.4</ele>
        <time>2022-05-21 00:01:14</time>
      </trkpt>
      <trkpt lat="41.77055" lon="1.94771">
        <ele>375.2</ele>
        <time>2022-05-21 00:01:15</time>
      </trkpt>
      <trkpt lat="41.7706" lon="1.94775">
        <ele>375.2</ele>
        <time>2022-05-21 00:01:16</time>
      </trkpt>
      <trkpt lat="41.77065" lon="1.94779">
        <ele>375.2</ele>
        <time>2022-05-21 00:01:17</time>
      </trkpt>
      <trkpt lat="41.7707" lon="1.94783">
        <ele>375.2</ele>
        <time>2022-05-21 00:01:18</time>
      </trkpt>
      <trkpt lat="41.77075" lon="1.94787">
        <ele>375</ele>
        <time>2022-05-21 00:01:19</time>
      </trkpt>
      <trkpt lat="41.7708" lon="1.94791">
        <ele>375</ele>
        <time>2022-05-21 00:01:20</time>
      </trkpt>
      <trkpt lat="41.77085" lon="1.94795">
        <ele>375</ele>
        <time>2022-05-21 00:01:21</time>
      </trkpt>
      <trkpt lat="41.7709" lon="1.94799">
        <ele>375</ele>
        <time>2022-05-21 00:01:22</time>
      </trkpt>
      <trkpt lat="41.77095" lon="1.94804">
        <ele>375</ele>
        <time>2022-05-21 00:01:23</time>
      </trkpt>
      <trkpt lat="41.77099" lon="1.94809">
        <ele>374.8</ele>
        <time>2022-05-21 00:01:24</time>
      </trkpt>
      <trkpt lat="41.77103" lon="1.94814">
        <ele>374.8</ele>
        <time>2022-05-21 00:01:25</time>
      </trkpt>
      <trkpt lat="41.77107" lon="1.94819">
        <ele>375</ele>
        <time>2022-05-21 00:01:26</time>
      </trkpt>
      <trkpt lat="41.77111" lon="1.94825">
        <ele>375</ele>
        <time>2022-05-21 00:01:27</time>
      </trkpt>
      <trkpt lat="41.77115" lon="1.94831">
        <ele>375</ele>
        <time>2022-05-21 00:01:28</time>
      </trkpt>
      <trkpt lat="41.77119" lon="1.94836">
        <ele>375.2</ele>
        <time>2022-05-21 00:01:29</time>
      </trkpt>
      <trkpt lat="41.77122" lon="1.94842">
        <ele>375.2</ele>
        <time>2022-05-21 00:01:30</time>
      </trkpt>
      <trkpt lat="41.77125" lon="1.94848">
        <ele>375.4</ele>
        <time>2022-05-21 00:01:31</time>
      </trkpt>
      <trkpt lat="41.77127" lon="1.94854">
        <ele>375.4</ele>
        <time>2022-05-21 00:01:32</time>
      </trkpt>
      <trkpt lat="41.7713" lon="1.9486">
        <ele>375.6</ele>
        <time>2022-05-21 00:01:33</time>
      </trkpt>
      <trkpt lat="41.77132" lon="1.94866">
        <ele>375.8</ele>
        <time>2022-05-21 00:01:34</time>
      </trkpt>
      <trkpt lat="41.77135" lon="1.94872">
        <ele>375.8</ele>
        <time>2022-05-21 00:01:35</time>
      </trkpt>
      <trkpt lat="41.77137" lon="1.94878">
        <ele>376</ele>
        <time>2022-05-21 00:01:36</time>
      </trkpt>
      <trkpt lat="41.77139" lon="1.94884">
        <ele>376.2</ele>
        <time>2022-05-21 00:01:37</time>
      </trkpt>
      <trkpt lat="41.77141" lon="1.94889">
        <ele>376.4</ele>
        <time>2022-05-21 00:01:38</time>
      </trkpt>
      <trkpt lat="41.77143" lon="1.94895">
        <ele>376.6</ele>
        <time>2022-05-21 00:01:39</time>
      </trkpt>
      <trkpt lat="41.77146" lon="1.949">
        <ele>376.8</ele>
        <time>2022-05-21 00:01:40</time>
      </trkpt>
      <trkpt lat="41.77148" lon="1.94905">
        <ele>377</ele>
        <time>2022-05-21 00:01:41</time>
      </trkpt>
      <trkpt lat="41.7715" lon="1.94911">
        <ele>377.2</ele>
        <time>2022-05-21 00:01:42</time>
      </trkpt>
      <trkpt lat="41.77151" lon="1.94916">
        <ele>377.4</ele>
        <time>2022-05-21 00:01:43</time>
      </trkpt>
      <trkpt lat="41.77153" lon="1.94921">
        <ele>377.6</ele>
        <time>2022-05-21 00:01:44</time>
      </trkpt>
      <trkpt lat="41.77154" lon="1.94927">
        <ele>377.8</ele>
        <time>2022-05-21 00:01:45</time>
      </trkpt>
      <trkpt lat="41.77155" lon="1.94932">
        <ele>378</ele>
        <time>2022-05-21 00:01:46</time>
      </trkpt>
      <trkpt lat="41.77156" lon="1.94938">
        <ele>378.2</ele>
        <time>2022-05-21 00:01:47</time>
      </trkpt>
      <trkpt lat="41.77157" lon="1.94943">
        <ele>378.4</ele>
        <time>2022-05-21 00:01:48</time>
      </trkpt>
      <trkpt lat="41.77158" lon="1.94948">
        <ele>378.6</ele>
        <time>2022-05-21 00:01:49</time>
      </trkpt>
      <trkpt lat="41.77159" lon="1.94953">
        <ele>378.8</ele>
        <time>2022-05-21 00:01:50</time>
      </trkpt>
      <trkpt lat="41.7716" lon="1.94958">
        <ele>379</ele>
        <time>2022-05-21 00:01:51</time>
      </trkpt>
      <trkpt lat="41.77161" lon="1.94963">
        <ele>379.2</ele>
        <time>2022-05-21 00:01:52</time>
      </trkpt>
      <trkpt lat="41.77162" lon="1.94968">
        <ele>379.4</ele>
        <time>2022-05-21 00:01:53</time>
      </trkpt>
      <trkpt lat="41.77163" lon="1.94972">
        <ele>379.6</ele>
        <time>2022-05-21 00:01:54</time>
      </trkpt>
      <trkpt lat="41.77164" lon="1.94977">
        <ele>379.8</ele>
        <time>2022-05-21 00:01:55</time>
      </trkpt>
      <trkpt lat="41.77164" lon="1.94982">
        <ele>380</ele>
        <time>2022-05-21 00:01:56</time>
      </trkpt>
      <trkpt lat="41.77164" lon="1.94987">
        <ele>380.2</ele>
        <time>2022-05-21 00:01:57</time>
      </trkpt>
      <trkpt lat="41.77165" lon="1.94991">
        <ele>380.4</ele>
        <time>2022-05-21 00:01:58</time>
      </trkpt>
      <trkpt lat="41.77165" lon="1.94994">
        <ele>380.6</ele>
        <time>2022-05-21 00:01:59</time>
      </trkpt>
      <trkpt lat="41.77166" lon="1.95001">
        <ele>380.8</ele>
        <time>2022-05-21 00:02:00</time>
      </trkpt>
      <trkpt lat="41.77167" lon="1.95006">
        <ele>381.2</ele>
        <time>2022-05-21 00:02:01</time>
      </trkpt>
      <trkpt lat="41.77167" lon="1.95012">
        <ele>381.4</ele>
        <time>2022-05-21 00:02:02</time>
      </trkpt>
      <trkpt lat="41.77168" lon="1.95017">
        <ele>381.6</ele>
        <time>2022-05-21 00:02:03</time>
      </trkpt>
      <trkpt lat="41.77168" lon="1.95021">
        <ele>381.8</ele>
        <time>2022-05-21 00:02:04</time>
      </trkpt>
      <trkpt lat="41.77169" lon="1.95026">
        <ele>382</ele>
        <time>2022-05-21 00:02:05</time>
      </trkpt>
      <trkpt lat="41.77169" lon="1.9503">
        <ele>382.2</ele>
        <time>2022-05-21 00:02:06</time>
      </trkpt>
      <trkpt lat="41.7717" lon="1.95035">
        <ele>382.4</ele>
        <time>2022-05-21 00:02:07</time>
      </trkpt>
      <trkpt lat="41.7717" lon="1.95039">
        <ele>382.6</ele>
        <time>2022-05-21 00:02:08</time>
      </trkpt>
      <trkpt lat="41.77171" lon="1.95044">
        <ele>382.8</ele>
        <time>2022-05-21 00:02:09</time>
      </trkpt>
      <trkpt lat="41.77171" lon="1.95048">
        <ele>383</ele>
        <time>2022-05-21 00:02:10</time>
      </trkpt>
      <trkpt lat="41.77171" lon="1.95053">
        <ele>383.2</ele>
        <time>2022-05-21 00:02:11</time>
      </trkpt>
      <trkpt lat="41.77171" lon="1.95058">
        <ele>383.4</ele>
        <time>2022-05-21 00:02:12</time>
      </trkpt>
      <trkpt lat="41.77171" lon="1.95062">
        <ele>383.6</ele>
        <time>2022-05-21 00:02:13</time>
      </trkpt>
      <trkpt lat="41.77171" lon="1.95067">
        <ele>383.8</ele>
        <time>2022-05-21 00:02:14</time>
      </trkpt>
      <trkpt lat="41.77172" lon="1.95071">
        <ele>384.2</ele>
        <time>2022-05-21 00:02:15</time>
      </trkpt>
      <trkpt lat="41.77173" lon="1.95076">
        <ele>384.4</ele>
        <time>2022-05-21 00:02:16</time>
      </trkpt>
      <trkpt lat="41.77174" lon="1.9508">
        <ele>384.6</ele>
        <time>2022-05-21 00:02:17</time>
      </trkpt>
      <trkpt lat="41.77174" lon="1.95085">
        <ele>384.8</ele>
        <time>2022-05-21 00:02:18</time>
      </trkpt>
      <trkpt lat="41.77175" lon="1.9509">
        <ele>385</ele>
        <time>2022-05-21 00:02:19</time>
      </trkpt>
      <trkpt lat="41.77175" lon="1.95094">
        <ele>385.4</ele>
        <time>2022-05-21 00:02:20</time>
      </trkpt>
      <trkpt lat="41.77175" lon="1.95099">
        <ele>385.6</ele>
        <time>2022-05-21 00:02:21</time>
      </trkpt>
      <trkpt lat="41.77176" lon="1.95104">
        <ele>385.8</ele>
        <time>2022-05-21 00:02:22</time>
      </trkpt>
      <trkpt lat="41.77176" lon="1.95108">
        <ele>386</ele>
        <time>2022-05-21 00:02:23</time>
      </trkpt>
      <trkpt lat="41.77176" lon="1.95112">
        <ele>386.2</ele>
        <time>2022-05-21 00:02:24</time>
      </trkpt>
      <trkpt lat="41.77176" lon="1.95116">
        <ele>386.4</ele>
        <time>2022-05-21 00:02:25</time>
      </trkpt>
      <trkpt lat="41.77176" lon="1.9512">
        <ele>386.6</ele>
        <time>2022-05-21 00:02:26</time>
      </trkpt>
      <trkpt lat="41.77176" lon="1.95124">
        <ele>386.8</ele>
        <time>2022-05-21 00:02:27</time>
      </trkpt>
      <trkpt lat="41.77177" lon="1.95128">
        <ele>387.2</ele>
        <time>2022-05-21 00:02:28</time>
      </trkpt>
      <trkpt lat="41.77177" lon="1.95132">
        <ele>387.4</ele>
        <time>2022-05-21 00:02:29</time>
      </trkpt>
      <trkpt lat="41.77177" lon="1.95136">
        <ele>387.6</ele>
        <time>2022-05-21 00:02:30</time>
      </trkpt>
      <trkpt lat="41.77177" lon="1.9514">
        <ele>387.8</ele>
        <time>2022-05-21 00:02:31</time>
      </trkpt>
      <trkpt lat="41.77177" lon="1.95144">
        <ele>388</ele>
        <time>2022-05-21 00:02:32</time>
      </trkpt>
      <trkpt lat="41.77177" lon="1.95147">
        <ele>388.2</ele>
        <time>2022-05-21 00:02:33</time>
      </trkpt>
      <trkpt lat="41.77177" lon="1.95151">
        <ele>388.4</ele>
        <time>2022-05-21 00:02:34</time>
      </trkpt>
      <trkpt lat="41.77177" lon="1.95155">
        <ele>388.6</ele>
        <time>2022-05-21 00:02:35</time>
      </trkpt>
      <trkpt lat="41.77177" lon="1.95159">
        <ele>388.8</ele>
        <time>2022-05-21 00:02:36</time>
      </trkpt>
      <trkpt lat="41.77177" lon="1.95162">
        <ele>389</ele>
        <time>2022-05-21 00:02:37</time>
      </trkpt>
      <trkpt lat="41.77177" lon="1.95166">
        <ele>389</ele>
        <time>2022-05-21 00:02:38</time>
      </trkpt>
      <trkpt lat="41.77176" lon="1.9517">
        <ele>389.2</ele>
        <time>2022-05-21 00:02:39</time>
      </trkpt>
      <trkpt lat="41.77176" lon="1.95174">
        <ele>389.4</ele>
        <time>2022-05-21 00:02:40</time>
      </trkpt>
      <trkpt lat="41.77175" lon="1.95178">
        <ele>389.6</ele>
        <time>2022-05-21 00:02:41</time>
      </trkpt>
      <trkpt lat="41.77175" lon="1.95183">
        <ele>389.8</ele>
        <time>2022-05-21 00:02:42</time>
      </trkpt>
      <trkpt lat="41.77174" lon="1.95187">
        <ele>389.8</ele>
        <time>2022-05-21 00:02:43</time>
      </trkpt>
      <trkpt lat="41.77174" lon="1.95191">
        <ele>390</ele>
        <time>2022-05-21 00:02:44</time>
      </trkpt>
      <trkpt lat="41.77173" lon="1.95195">
        <ele>390.2</ele>
        <time>2022-05-21 00:02:45</time>
      </trkpt>
      <trkpt lat="41.77172" lon="1.95199">
        <ele>390.4</ele>
        <time>2022-05-21 00:02:46</time>
      </trkpt>
      <trkpt lat="41.77171" lon="1.95203">
        <ele>390.6</ele>
        <time>2022-05-21 00:02:47</time>
      </trkpt>
      <trkpt lat="41.77169" lon="1.95206">
        <ele>390.6</ele>
        <time>2022-05-21 00:02:48</time>
      </trkpt>
      <trkpt lat="41.77168" lon="1.9521">
        <ele>390.8</ele>
        <time>2022-05-21 00:02:49</time>
      </trkpt>
      <trkpt lat="41.77167" lon="1.95213">
        <ele>391</ele>
        <time>2022-05-21 00:02:50</time>
      </trkpt>
      <trkpt lat="41.77165" lon="1.95215">
        <ele>391</ele>
        <time>2022-05-21 00:02:51</time>
      </trkpt>
      <trkpt lat="41.77164" lon="1.95218">
        <ele>391.2</ele>
        <time>2022-05-21 00:02:52</time>
      </trkpt>
      <trkpt lat="41.77162" lon="1.95222">
        <ele>391.4</ele>
        <time>2022-05-21 00:02:53</time>
      </trkpt>
      <trkpt lat="41.7716" lon="1.95225">
        <ele>391.6</ele>
        <time>2022-05-21 00:02:54</time>
      </trkpt>
      <trkpt lat="41.77158" lon="1.95228">
        <ele>391.8</ele>
        <time>2022-05-21 00:02:55</time>
      </trkpt>
      <trkpt lat="41.77156" lon="1.9523">
        <ele>392</ele>
        <time>2022-05-21 00:02:56</time>
      </trkpt>
      <trkpt lat="41.77153" lon="1.95232">
        <ele>392.2</ele>
        <time>2022-05-21 00:02:57</time>
      </trkpt>
      <trkpt lat="41.77151" lon="1.95235">
        <ele>392.4</ele>
        <time>2022-05-21 00:02:58</time>
      </trkpt>
      <trkpt lat="41.77148" lon="1.95237">
        <ele>392.6</ele>
        <time>2022-05-21 00:02:59</time>
      </trkpt>
      <trkpt lat="41.77146" lon="1.95238">
        <ele>392.8</ele>
        <time>2022-05-21 00:03:00</time>
      </trkpt>
      <trkpt lat="41.77143" lon="1.9524">
        <ele>393</ele>
        <time>2022-05-21 00:03:01</time>
      </trkpt>
      <trkpt lat="41.77141" lon="1.95242">
        <ele>393.2</ele>
        <time>2022-05-21 00:03:02</time>
      </trkpt>
      <trkpt lat="41.77139" lon="1.95244">
        <ele>393.2</ele>
        <time>2022-05-21 00:03:03</time>
      </trkpt>
      <trkpt lat="41.77135" lon="1.95246">
        <ele>393.4</ele>
        <time>2022-05-21 00:03:04</time>
      </trkpt>
      <trkpt lat="41.77133" lon="1.95248">
        <ele>393.6</ele>
        <time>2022-05-21 00:03:05</time>
      </trkpt>
      <trkpt lat="41.7713" lon="1.95251">
        <ele>393.8</ele>
        <time>2022-05-21 00:03:06</time>
      </trkpt>
      <trkpt lat="41.77127" lon="1.95253">
        <ele>394</ele>
        <time>2022-05-21 00:03:07</time>
      </trkpt>
      <trkpt lat="41.77125" lon="1.95255">
        <ele>394.2</ele>
        <time>2022-05-21 00:03:08</time>
      </trkpt>
      <trkpt lat="41.77122" lon="1.95256">
        <ele>394.4</ele>
        <time>2022-05-21 00:03:09</time>
      </trkpt>
      <trkpt lat="41.77119" lon="1.95258">
        <ele>394.6</ele>
        <time>2022-05-21 00:03:10</time>
      </trkpt>
      <trkpt lat="41.77116" lon="1.9526">
        <ele>394.6</ele>
        <time>2022-05-21 00:03:11</time>
      </trkpt>
      <trkpt lat="41.77114" lon="1.95261">
        <ele>394.8</ele>
        <time>2022-05-21 00:03:12</time>
      </trkpt>
      <trkpt lat="41.77111" lon="1.95263">
        <ele>395</ele>
        <time>2022-05-21 00:03:13</time>
      </trkpt>
      <trkpt lat="41.77108" lon="1.95265">
        <ele>395.2</ele>
        <time>2022-05-21 00:03:14</time>
      </trkpt>
      <trkpt lat="41.77106" lon="1.95266">
        <ele>395.4</ele>
        <time>2022-05-21 00:03:15</time>
      </trkpt>
      <trkpt lat="41.77103" lon="1.95268">
        <ele>395.6</ele>
        <time>2022-05-21 00:03:16</time>
      </trkpt>
      <trkpt lat="41.77101" lon="1.9527">
        <ele>395.8</ele>
        <time>2022-05-21 00:03:17</time>
      </trkpt>
      <trkpt lat="41.77098" lon="1.95272">
        <ele>396</ele>
        <time>2022-05-21 00:03:18</time>
      </trkpt>
      <trkpt lat="41.77096" lon="1.95274">
        <ele>396.2</ele>
        <time>2022-05-21 00:03:19</time>
      </trkpt>
      <trkpt lat="41.77093" lon="1.95276">
        <ele>396.4</ele>
        <time>2022-05-21 00:03:20</time>
      </trkpt>
      <trkpt lat="41.77091" lon="1.95277">
        <ele>396.6</ele>
        <time>2022-05-21 00:03:21</time>
      </trkpt>
      <trkpt lat="41.77088" lon="1.95278">
        <ele>396.8</ele>
        <time>2022-05-21 00:03:22</time>
      </trkpt>
      <trkpt lat="41.77086" lon="1.9528">
        <ele>397</ele>
        <time>2022-05-21 00:03:23</time>
      </trkpt>
      <trkpt lat="41.77083" lon="1.95282">
        <ele>397.2</ele>
        <time>2022-05-21 00:03:24</time>
      </trkpt>
      <trkpt lat="41.77081" lon="1.95284">
        <ele>397.4</ele>
        <time>2022-05-21 00:03:25</time>
      </trkpt>
      <trkpt lat="41.77079" lon="1.95286">
        <ele>397.6</ele>
        <time>2022-05-21 00:03:26</time>
      </trkpt>
      <trkpt lat="41.77076" lon="1.95288">
        <ele>397.8</ele>
        <time>2022-05-21 00:03:27</time>
      </trkpt>
      <trkpt lat="41.77074" lon="1.95291">
        <ele>398</ele>
        <time>2022-05-21 00:03:28</time>
      </trkpt>
      <trkpt lat="41.77071" lon="1.95293">
        <ele>398.2</ele>
        <time>2022-05-21 00:03:29</time>
      </trkpt>
      <trkpt lat="41.77069" lon="1.95296">
        <ele>398.4</ele>
        <time>2022-05-21 00:03:30</time>
      </trkpt>
      <trkpt lat="41.77068" lon="1.95299">
        <ele>398.4</ele>
        <time>2022-05-21 00:03:31</time>
      </trkpt>
      <trkpt lat="41.77066" lon="1.95303">
        <ele>398.6</ele>
        <time>2022-05-21 00:03:32</time>
      </trkpt>
      <trkpt lat="41.77065" lon="1.95306">
        <ele>398.8</ele>
        <time>2022-05-21 00:03:33</time>
      </trkpt>
      <trkpt lat="41.77064" lon="1.95309">
        <ele>399</ele>
        <time>2022-05-21 00:03:34</time>
      </trkpt>
      <trkpt lat="41.77063" lon="1.95313">
        <ele>399.2</ele>
        <time>2022-05-21 00:03:35</time>
      </trkpt>
      <trkpt lat="41.77063" lon="1.95317">
        <ele>399.4</ele>
        <time>2022-05-21 00:03:36</time>
      </trkpt>
      <trkpt lat="41.77062" lon="1.95321">
        <ele>399.6</ele>
        <time>2022-05-21 00:03:37</time>
      </trkpt>
      <trkpt lat="41.77062" lon="1.95325">
        <ele>399.8</ele>
        <time>2022-05-21 00:03:38</time>
      </trkpt>
      <trkpt lat="41.77062" lon="1.95328">
        <ele>400</ele>
        <time>2022-05-21 00:03:39</time>
      </trkpt>
      <trkpt lat="41.77062" lon="1.95332">
        <ele>400.2</ele>
        <time>2022-05-21 00:03:40</time>
      </trkpt>
      <trkpt lat="41.77063" lon="1.95336">
        <ele>400.2</ele>
        <time>2022-05-21 00:03:41</time>
      </trkpt>
      <trkpt lat="41.77063" lon="1.9534">
        <ele>400.4</ele>
        <time>2022-05-21 00:03:42</time>
      </trkpt>
      <trkpt lat="41.77063" lon="1.95343">
        <ele>400.6</ele>
        <time>2022-05-21 00:03:43</time>
      </trkpt>
      <trkpt lat="41.77063" lon="1.95347">
        <ele>400.8</ele>
        <time>2022-05-21 00:03:44</time>
      </trkpt>
      <trkpt lat="41.77064" lon="1.95351">
        <ele>401</ele>
        <time>2022-05-21 00:03:45</time>
      </trkpt>
      <trkpt lat="41.77064" lon="1.95355">
        <ele>401.2</ele>
        <time>2022-05-21 00:03:46</time>
      </trkpt>
      <trkpt lat="41.77065" lon="1.95359">
        <ele>401.2</ele>
        <time>2022-05-21 00:03:47</time>
      </trkpt>
      <trkpt lat="41.77065" lon="1.95362">
        <ele>401.4</ele>
        <time>2022-05-21 00:03:48</time>
      </trkpt>
      <trkpt lat="41.77066" lon="1.95366">
        <ele>401.6</ele>
        <time>2022-05-21 00:03:49</time>
      </trkpt>
      <trkpt lat="41.77067" lon="1.9537">
        <ele>401.8</ele>
        <time>2022-05-21 00:03:50</time>
      </trkpt>
      <trkpt lat="41.77068" lon="1.95374">
        <ele>402</ele>
        <time>2022-05-21 00:03:51</time>
      </trkpt>
      <trkpt lat="41.77069" lon="1.95378">
        <ele>402</ele>
        <time>2022-05-21 00:03:52</time>
      </trkpt>
      <trkpt lat="41.77069" lon="1.95382">
        <ele>402.2</ele>
        <time>2022-05-21 00:03:53</time>
      </trkpt>
      <trkpt lat="41.77071" lon="1.95386">
        <ele>402.4</ele>
        <time>2022-05-21 00:03:54</time>
      </trkpt>
      <trkpt lat="41.77071" lon="1.95389">
        <ele>402.6</ele>
        <time>2022-05-21 00:03:55</time>
      </trkpt>
      <trkpt lat="41.77073" lon="1.95393">
        <ele>402.8</ele>
        <time>2022-05-21 00:03:56</time>
      </trkpt>
      <trkpt lat="41.77074" lon="1.95397">
        <ele>403</ele>
        <time>2022-05-21 00:03:57</time>
      </trkpt>
      <trkpt lat="41.77074" lon="1.954">
        <ele>403</ele>
        <time>2022-05-21 00:03:58</time>
      </trkpt>
      <trkpt lat="41.77075" lon="1.95404">
        <ele>403.2</ele>
        <time>2022-05-21 00:03:59</time>
      </trkpt>
      <trkpt lat="41.77076" lon="1.95408">
        <ele>403.4</ele>
        <time>2022-05-21 00:04:00</time>
      </trkpt>
      <trkpt lat="41.77077" lon="1.95411">
        <ele>403.6</ele>
        <time>2022-05-21 00:04:01</time>
      </trkpt>
      <trkpt lat="41.77078" lon="1.95415">
        <ele>403.6</ele>
        <time>2022-05-21 00:04:02</time>
      </trkpt>
      <trkpt lat="41.77079" lon="1.95419">
        <ele>403.8</ele>
        <time>2022-05-21 00:04:03</time>
      </trkpt>
      <trkpt lat="41.77079" lon="1.95422">
        <ele>404</ele>
        <time>2022-05-21 00:04:04</time>
      </trkpt>
      <trkpt lat="41.77081" lon="1.95426">
        <ele>404.2</ele>
        <time>2022-05-21 00:04:05</time>
      </trkpt>
      <trkpt lat="41.77082" lon="1.95429">
        <ele>404.2</ele>
        <time>2022-05-21 00:04:06</time>
      </trkpt>
      <trkpt lat="41.77083" lon="1.95433">
        <ele>404.4</ele>
        <time>2022-05-21 00:04:07</time>
      </trkpt>
      <trkpt lat="41.77084" lon="1.95436">
        <ele>404.6</ele>
        <time>2022-05-21 00:04:08</time>
      </trkpt>
      <trkpt lat="41.77085" lon="1.9544">
        <ele>404.8</ele>
        <time>2022-05-21 00:04:09</time>
      </trkpt>
      <trkpt lat="41.77087" lon="1.95443">
        <ele>404.8</ele>
        <time>2022-05-21 00:04:10</time>
      </trkpt>
      <trkpt lat="41.77088" lon="1.95446">
        <ele>405</ele>
        <time>2022-05-21 00:04:11</time>
      </trkpt>
      <trkpt lat="41.7709" lon="1.95449">
        <ele>405.2</ele>
        <time>2022-05-21 00:04:12</time>
      </trkpt>
      <trkpt lat="41.77092" lon="1.95452">
        <ele>405.4</ele>
        <time>2022-05-21 00:04:13</time>
      </trkpt>
      <trkpt lat="41.77094" lon="1.95455">
        <ele>405.4</ele>
        <time>2022-05-21 00:04:14</time>
      </trkpt>
      <trkpt lat="41.77096" lon="1.95458">
        <ele>405.6</ele>
        <time>2022-05-21 00:04:15</time>
      </trkpt>
      <trkpt lat="41.77098" lon="1.95461">
        <ele>405.8</ele>
        <time>2022-05-21 00:04:16</time>
      </trkpt>
      <trkpt lat="41.771" lon="1.95464">
        <ele>406</ele>
        <time>2022-05-21 00:04:17</time>
      </trkpt>
      <trkpt lat="41.77102" lon="1.95467">
        <ele>406</ele>
        <time>2022-05-21 00:04:18</time>
      </trkpt>
      <trkpt lat="41.77104" lon="1.95469">
        <ele>406.2</ele>
        <time>2022-05-21 00:04:19</time>
      </trkpt>
      <trkpt lat="41.77106" lon="1.95472">
        <ele>406.4</ele>
        <time>2022-05-21 00:04:20</time>
      </trkpt>
      <trkpt lat="41.77109" lon="1.95474">
        <ele>406.4</ele>
        <time>2022-05-21 00:04:21</time>
      </trkpt>
      <trkpt lat="41.77111" lon="1.95476">
        <ele>406.6</ele>
        <time>2022-05-21 00:04:22</time>
      </trkpt>
      <trkpt lat="41.77114" lon="1.95479">
        <ele>406.8</ele>
        <time>2022-05-21 00:04:23</time>
      </trkpt>
      <trkpt lat="41.77116" lon="1.95481">
        <ele>406.8</ele>
        <time>2022-05-21 00:04:24</time>
      </trkpt>
      <trkpt lat="41.77119" lon="1.95484">
        <ele>407</ele>
        <time>2022-05-21 00:04:25</time>
      </trkpt>
      <trkpt lat="41.77121" lon="1.95486">
        <ele>407.2</ele>
        <time>2022-05-21 00:04:26</time>
      </trkpt>
      <trkpt lat="41.77124" lon="1.95488">
        <ele>407.2</ele>
        <time>2022-05-21 00:04:27</time>
      </trkpt>
      <trkpt lat="41.77126" lon="1.9549">
        <ele>407.4</ele>
        <time>2022-05-21 00:04:28</time>
      </trkpt>
      <trkpt lat="41.77129" lon="1.95492">
        <ele>407.6</ele>
        <time>2022-05-21 00:04:29</time>
      </trkpt>
      <trkpt lat="41.77131" lon="1.95495">
        <ele>407.6</ele>
        <time>2022-05-21 00:04:30</time>
      </trkpt>
      <trkpt lat="41.77134" lon="1.95497">
        <ele>407.8</ele>
        <time>2022-05-21 00:04:31</time>
      </trkpt>
      <trkpt lat="41.77137" lon="1.95499">
        <ele>407.8</ele>
        <time>2022-05-21 00:04:32</time>
      </trkpt>
      <trkpt lat="41.7714" lon="1.95501">
        <ele>408</ele>
        <time>2022-05-21 00:04:33</time>
      </trkpt>
      <trkpt lat="41.77142" lon="1.95504">
        <ele>408</ele>
        <time>2022-05-21 00:04:34</time>
      </trkpt>
      <trkpt lat="41.77145" lon="1.95506">
        <ele>408.2</ele>
        <time>2022-05-21 00:04:35</time>
      </trkpt>
      <trkpt lat="41.77147" lon="1.95509">
        <ele>408.2</ele>
        <time>2022-05-21 00:04:36</time>
      </trkpt>
      <trkpt lat="41.7715" lon="1.95512">
        <ele>408.4</ele>
        <time>2022-05-21 00:04:37</time>
      </trkpt>
      <trkpt lat="41.77153" lon="1.95514">
        <ele>408.4</ele>
        <time>2022-05-21 00:04:38</time>
      </trkpt>
      <trkpt lat="41.77155" lon="1.95517">
        <ele>408.4</ele>
        <time>2022-05-21 00:04:39</time>
      </trkpt>
      <trkpt lat="41.77158" lon="1.95519">
        <ele>408.6</ele>
        <time>2022-05-21 00:04:40</time>
      </trkpt>
      <trkpt lat="41.77161" lon="1.95522">
        <ele>408.6</ele>
        <time>2022-05-21 00:04:41</time>
      </trkpt>
      <trkpt lat="41.77163" lon="1.95525">
        <ele>408.8</ele>
        <time>2022-05-21 00:04:42</time>
      </trkpt>
      <trkpt lat="41.77166" lon="1.95528">
        <ele>408.8</ele>
        <time>2022-05-21 00:04:43</time>
      </trkpt>
      <trkpt lat="41.77169" lon="1.95531">
        <ele>409</ele>
        <time>2022-05-21 00:04:44</time>
      </trkpt>
      <trkpt lat="41.77171" lon="1.95534">
        <ele>409</ele>
        <time>2022-05-21 00:04:45</time>
      </trkpt>
      <trkpt lat="41.77174" lon="1.95537">
        <ele>409.2</ele>
        <time>2022-05-21 00:04:46</time>
      </trkpt>
      <trkpt lat="41.77177" lon="1.9554">
        <ele>409.2</ele>
        <time>2022-05-21 00:04:47</time>
      </trkpt>
      <trkpt lat="41.77179" lon="1.95544">
        <ele>409.4</ele>
        <time>2022-05-21 00:04:48</time>
      </trkpt>
      <trkpt lat="41.77182" lon="1.95547">
        <ele>409.4</ele>
        <time>2022-05-21 00:04:49</time>
      </trkpt>
      <trkpt lat="41.77184" lon="1.95551">
        <ele>409.6</ele>
        <time>2022-05-21 00:04:50</time>
      </trkpt>
      <trkpt lat="41.77186" lon="1.95555">
        <ele>409.6</ele>
        <time>2022-05-21 00:04:51</time>
      </trkpt>
      <trkpt lat="41.77189" lon="1.95559">
        <ele>409.8</ele>
        <time>2022-05-21 00:04:52</time>
      </trkpt>
      <trkpt lat="41.77191" lon="1.95563">
        <ele>409.8</ele>
        <time>2022-05-21 00:04:53</time>
      </trkpt>
      <trkpt lat="41.77193" lon="1.95567">
        <ele>410</ele>
        <time>2022-05-21 00:04:54</time>
      </trkpt>
      <trkpt lat="41.77196" lon="1.95571">
        <ele>410</ele>
        <time>2022-05-21 00:04:55</time>
      </trkpt>
      <trkpt lat="41.77198" lon="1.95575">
        <ele>410</ele>
        <time>2022-05-21 00:04:56</time>
      </trkpt>
      <trkpt lat="41.772" lon="1.95579">
        <ele>410.2</ele>
        <time>2022-05-21 00:04:57</time>
      </trkpt>
      <trkpt lat="41.77202" lon="1.95583">
        <ele>410.2</ele>
        <time>2022-05-21 00:04:58</time>
      </trkpt>
      <trkpt lat="41.77204" lon="1.95588">
        <ele>410.4</ele>
        <time>2022-05-21 00:04:59</time>
      </trkpt>
      <trkpt lat="41.77206" lon="1.95592">
        <ele>410.4</ele>
        <time>2022-05-21 00:05:00</time>
      </trkpt>
      <trkpt lat="41.77208" lon="1.95596">
        <ele>410.6</ele>
        <time>2022-05-21 00:05:01</time>
      </trkpt>
      <trkpt lat="41.77209" lon="1.95601">
        <ele>410.8</ele>
        <time>2022-05-21 00:05:02</time>
      </trkpt>
      <trkpt lat="41.77211" lon="1.95605">
        <ele>410.8</ele>
        <time>2022-05-21 00:05:03</time>
      </trkpt>
      <trkpt lat="41.77213" lon="1.95609">
        <ele>411</ele>
        <time>2022-05-21 00:05:04</time>
      </trkpt>
      <trkpt lat="41.77214" lon="1.95614">
        <ele>411</ele>
        <time>2022-05-21 00:05:05</time>
      </trkpt>
      <trkpt lat="41.77216" lon="1.95618">
        <ele>411.2</ele>
        <time>2022-05-21 00:05:06</time>
      </trkpt>
      <trkpt lat="41.77217" lon="1.95623">
        <ele>411.2</ele>
        <time>2022-05-21 00:05:07</time>
      </trkpt>
      <trkpt lat="41.77218" lon="1.95628">
        <ele>411.4</ele>
        <time>2022-05-21 00:05:08</time>
      </trkpt>
      <trkpt lat="41.7722" lon="1.95633">
        <ele>411.4</ele>
        <time>2022-05-21 00:05:09</time>
      </trkpt>
      <trkpt lat="41.77221" lon="1.95638">
        <ele>411.6</ele>
        <time>2022-05-21 00:05:10</time>
      </trkpt>
      <trkpt lat="41.77222" lon="1.95642">
        <ele>411.6</ele>
        <time>2022-05-21 00:05:11</time>
      </trkpt>
      <trkpt lat="41.77224" lon="1.95647">
        <ele>411.8</ele>
        <time>2022-05-21 00:05:12</time>
      </trkpt>
      <trkpt lat="41.77225" lon="1.95652">
        <ele>411.8</ele>
        <time>2022-05-21 00:05:13</time>
      </trkpt>
      <trkpt lat="41.77226" lon="1.95656">
        <ele>412</ele>
        <time>2022-05-21 00:05:14</time>
      </trkpt>
      <trkpt lat="41.77227" lon="1.95661">
        <ele>412.2</ele>
        <time>2022-05-21 00:05:15</time>
      </trkpt>
      <trkpt lat="41.77227" lon="1.95666">
        <ele>412.2</ele>
        <time>2022-05-21 00:05:16</time>
      </trkpt>
      <trkpt lat="41.77228" lon="1.95671">
        <ele>412.4</ele>
        <time>2022-05-21 00:05:17</time>
      </trkpt>
      <trkpt lat="41.77229" lon="1.95676">
        <ele>412.6</ele>
        <time>2022-05-21 00:05:18</time>
      </trkpt>
      <trkpt lat="41.7723" lon="1.95681">
        <ele>412.6</ele>
        <time>2022-05-21 00:05:19</time>
      </trkpt>
      <trkpt lat="41.7723" lon="1.95686">
        <ele>412.8</ele>
        <time>2022-05-21 00:05:20</time>
      </trkpt>
      <trkpt lat="41.7723" lon="1.95691">
        <ele>413</ele>
        <time>2022-05-21 00:05:21</time>
      </trkpt>
      <trkpt lat="41.77231" lon="1.95697">
        <ele>413</ele>
        <time>2022-05-21 00:05:22</time>
      </trkpt>
      <trkpt lat="41.77231" lon="1.95702">
        <ele>413.2</ele>
        <time>2022-05-21 00:05:23</time>
      </trkpt>
      <trkpt lat="41.77231" lon="1.95708">
        <ele>413.2</ele>
        <time>2022-05-21 00:05:24</time>
      </trkpt>
      <trkpt lat="41.77231" lon="1.95713">
        <ele>413.4</ele>
        <time>2022-05-21 00:05:25</time>
      </trkpt>
      <trkpt lat="41.77231" lon="1.95719">
        <ele>413.4</ele>
        <time>2022-05-21 00:05:26</time>
      </trkpt>
      <trkpt lat="41.7723" lon="1.95724">
        <ele>413.6</ele>
        <time>2022-05-21 00:05:27</time>
      </trkpt>
      <trkpt lat="41.7723" lon="1.95729">
        <ele>413.8</ele>
        <time>2022-05-21 00:05:28</time>
      </trkpt>
      <trkpt lat="41.77229" lon="1.95734">
        <ele>413.8</ele>
        <time>2022-05-21 00:05:29</time>
      </trkpt>
      <trkpt lat="41.77229" lon="1.95739">
        <ele>414</ele>
        <time>2022-05-21 00:05:30</time>
      </trkpt>
      <trkpt lat="41.77228" lon="1.95744">
        <ele>414.2</ele>
        <time>2022-05-21 00:05:31</time>
      </trkpt>
      <trkpt lat="41.77227" lon="1.95749">
        <ele>414.4</ele>
        <time>2022-05-21 00:05:32</time>
      </trkpt>
      <trkpt lat="41.77226" lon="1.95754">
        <ele>414.6</ele>
        <time>2022-05-21 00:05:33</time>
      </trkpt>
      <trkpt lat="41.77225" lon="1.95759">
        <ele>414.6</ele>
        <time>2022-05-21 00:05:34</time>
      </trkpt>
      <trkpt lat="41.77224" lon="1.95764">
        <ele>414.8</ele>
        <time>2022-05-21 00:05:35</time>
      </trkpt>
      <trkpt lat="41.77223" lon="1.95769">
        <ele>415</ele>
        <time>2022-05-21 00:05:36</time>
      </trkpt>
      <trkpt lat="41.77222" lon="1.95774">
        <ele>415</ele>
        <time>2022-05-21 00:05:37</time>
      </trkpt>
      <trkpt lat="41.77221" lon="1.95779">
        <ele>415.2</ele>
        <time>2022-05-21 00:05:38</time>
      </trkpt>
      <trkpt lat="41.7722" lon="1.95783">
        <ele>415.4</ele>
        <time>2022-05-21 00:05:39</time>
      </trkpt>
      <trkpt lat="41.77219" lon="1.95788">
        <ele>415.6</ele>
        <time>2022-05-21 00:05:40</time>
      </trkpt>
      <trkpt lat="41.77218" lon="1.95793">
        <ele>415.8</ele>
        <time>2022-05-21 00:05:41</time>
      </trkpt>
      <trkpt lat="41.77217" lon="1.95797">
        <ele>415.8</ele>
        <time>2022-05-21 00:05:42</time>
      </trkpt>
      <trkpt lat="41.77216" lon="1.95802">
        <ele>416</ele>
        <time>2022-05-21 00:05:43</time>
      </trkpt>
      <trkpt lat="41.77215" lon="1.95807">
        <ele>416.2</ele>
        <time>2022-05-21 00:05:44</time>
      </trkpt>
      <trkpt lat="41.77214" lon="1.95812">
        <ele>416.2</ele>
        <time>2022-05-21 00:05:45</time>
      </trkpt>
      <trkpt lat="41.77213" lon="1.95817">
        <ele>416.4</ele>
        <time>2022-05-21 00:05:46</time>
      </trkpt>
      <trkpt lat="41.77212" lon="1.95822">
        <ele>416.6</ele>
        <time>2022-05-21 00:05:47</time>
      </trkpt>
      <trkpt lat="41.77211" lon="1.95827">
        <ele>416.8</ele>
        <time>2022-05-21 00:05:48</time>
      </trkpt>
      <trkpt lat="41.7721" lon="1.95831">
        <ele>417</ele>
        <time>2022-05-21 00:05:49</time>
      </trkpt>
      <trkpt lat="41.77209" lon="1.95836">
        <ele>417.2</ele>
        <time>2022-05-21 00:05:50</time>
      </trkpt>
      <trkpt lat="41.77209" lon="1.95841">
        <ele>417.2</ele>
        <time>2022-05-21 00:05:51</time>
      </trkpt>
      <trkpt lat="41.77208" lon="1.95846">
        <ele>417.4</ele>
        <time>2022-05-21 00:05:52</time>
      </trkpt>
      <trkpt lat="41.77207" lon="1.95851">
        <ele>417.6</ele>
        <time>2022-05-21 00:05:53</time>
      </trkpt>
      <trkpt lat="41.77206" lon="1.95856">
        <ele>417.8</ele>
        <time>2022-05-21 00:05:54</time>
      </trkpt>
      <trkpt lat="41.77205" lon="1.9586">
        <ele>418</ele>
        <time>2022-05-21 00:05:55</time>
      </trkpt>
      <trkpt lat="41.77205" lon="1.95865">
        <ele>418</ele>
        <time>2022-05-21 00:05:56</time>
      </trkpt>
      <trkpt lat="41.77203" lon="1.9587">
        <ele>418.2</ele>
        <time>2022-05-21 00:05:57</time>
      </trkpt>
      <trkpt lat="41.77203" lon="1.95875">
        <ele>418.4</ele>
        <time>2022-05-21 00:05:58</time>
      </trkpt>
      <trkpt lat="41.77202" lon="1.9588">
        <ele>418.6</ele>
        <time>2022-05-21 00:05:59</time>
      </trkpt>
      <trkpt lat="41.77202" lon="1.95884">
        <ele>418.8</ele>
        <time>2022-05-21 00:06:00</time>
      </trkpt>
      <trkpt lat="41.77201" lon="1.95889">
        <ele>419</ele>
        <time>2022-05-21 00:06:01</time>
      </trkpt>
      <trkpt lat="41.77201" lon="1.95893">
        <ele>419</ele>
        <time>2022-05-21 00:06:02</time>
      </trkpt>
      <trkpt lat="41.77201" lon="1.95898">
        <ele>419.2</ele>
        <time>2022-05-21 00:06:03</time>
      </trkpt>
      <trkpt lat="41.77201" lon="1.95903">
        <ele>419.4</ele>
        <time>2022-05-21 00:06:04</time>
      </trkpt>
      <trkpt lat="41.77201" lon="1.95908">
        <ele>419.6</ele>
        <time>2022-05-21 00:06:05</time>
      </trkpt>
      <trkpt lat="41.77202" lon="1.95912">
        <ele>419.8</ele>
        <time>2022-05-21 00:06:06</time>
      </trkpt>
      <trkpt lat="41.77202" lon="1.95917">
        <ele>420</ele>
        <time>2022-05-21 00:06:07</time>
      </trkpt>
      <trkpt lat="41.77203" lon="1.95921">
        <ele>420.2</ele>
        <time>2022-05-21 00:06:08</time>
      </trkpt>
      <trkpt lat="41.77204" lon="1.95926">
        <ele>420.4</ele>
        <time>2022-05-21 00:06:09</time>
      </trkpt>
      <trkpt lat="41.77205" lon="1.95931">
        <ele>420.6</ele>
        <time>2022-05-21 00:06:10</time>
      </trkpt>
      <trkpt lat="41.77206" lon="1.95935">
        <ele>420.8</ele>
        <time>2022-05-21 00:06:11</time>
      </trkpt>
      <trkpt lat="41.77208" lon="1.9594">
        <ele>421</ele>
        <time>2022-05-21 00:06:12</time>
      </trkpt>
      <trkpt lat="41.77209" lon="1.95944">
        <ele>421</ele>
        <time>2022-05-21 00:06:13</time>
      </trkpt>
      <trkpt lat="41.7721" lon="1.95949">
        <ele>421.2</ele>
        <time>2022-05-21 00:06:14</time>
      </trkpt>
      <trkpt lat="41.77212" lon="1.95953">
        <ele>421.4</ele>
        <time>2022-05-21 00:06:15</time>
      </trkpt>
      <trkpt lat="41.77214" lon="1.95957">
        <ele>421.6</ele>
        <time>2022-05-21 00:06:16</time>
      </trkpt>
      <trkpt lat="41.77216" lon="1.95961">
        <ele>421.8</ele>
        <time>2022-05-21 00:06:17</time>
      </trkpt>
      <trkpt lat="41.77218" lon="1.95965">
        <ele>421.8</ele>
        <time>2022-05-21 00:06:18</time>
      </trkpt>
      <trkpt lat="41.7722" lon="1.95968">
        <ele>422</ele>
        <time>2022-05-21 00:06:19</time>
      </trkpt>
      <trkpt lat="41.77222" lon="1.95972">
        <ele>422.2</ele>
        <time>2022-05-21 00:06:20</time>
      </trkpt>
      <trkpt lat="41.77224" lon="1.95976">
        <ele>422.4</ele>
        <time>2022-05-21 00:06:21</time>
      </trkpt>
      <trkpt lat="41.77226" lon="1.9598">
        <ele>422.4</ele>
        <time>2022-05-21 00:06:22</time>
      </trkpt>
      <trkpt lat="41.77229" lon="1.95983">
        <ele>422.6</ele>
        <time>2022-05-21 00:06:23</time>
      </trkpt>
      <trkpt lat="41.7723" lon="1.95987">
        <ele>422.8</ele>
        <time>2022-05-21 00:06:24</time>
      </trkpt>
      <trkpt lat="41.77232" lon="1.95991">
        <ele>423</ele>
        <time>2022-05-21 00:06:25</time>
      </trkpt>
      <trkpt lat="41.77234" lon="1.95995">
        <ele>423</ele>
        <time>2022-05-21 00:06:26</time>
      </trkpt>
      <trkpt lat="41.77237" lon="1.95998">
        <ele>423.2</ele>
        <time>2022-05-21 00:06:27</time>
      </trkpt>
      <trkpt lat="41.77239" lon="1.96002">
        <ele>423.4</ele>
        <time>2022-05-21 00:06:28</time>
      </trkpt>
      <trkpt lat="41.77241" lon="1.96006">
        <ele>423.4</ele>
        <time>2022-05-21 00:06:29</time>
      </trkpt>
      <trkpt lat="41.77244" lon="1.9601">
        <ele>423.6</ele>
        <time>2022-05-21 00:06:30</time>
      </trkpt>
      <trkpt lat="41.77246" lon="1.96013">
        <ele>423.8</ele>
        <time>2022-05-21 00:06:31</time>
      </trkpt>
      <trkpt lat="41.77248" lon="1.96017">
        <ele>424</ele>
        <time>2022-05-21 00:06:32</time>
      </trkpt>
      <trkpt lat="41.7725" lon="1.96021">
        <ele>424.2</ele>
        <time>2022-05-21 00:06:33</time>
      </trkpt>
      <trkpt lat="41.77253" lon="1.96024">
        <ele>424.2</ele>
        <time>2022-05-21 00:06:34</time>
      </trkpt>
      <trkpt lat="41.77255" lon="1.96028">
        <ele>424.4</ele>
        <time>2022-05-21 00:06:35</time>
      </trkpt>
      <trkpt lat="41.77257" lon="1.96032">
        <ele>424.6</ele>
        <time>2022-05-21 00:06:36</time>
      </trkpt>
      <trkpt lat="41.7726" lon="1.96035">
        <ele>424.6</ele>
        <time>2022-05-21 00:06:37</time>
      </trkpt>
      <trkpt lat="41.77262" lon="1.96039">
        <ele>424.8</ele>
        <time>2022-05-21 00:06:38</time>
      </trkpt>
      <trkpt lat="41.77265" lon="1.96043">
        <ele>424.8</ele>
        <time>2022-05-21 00:06:39</time>
      </trkpt>
      <trkpt lat="41.77267" lon="1.96047">
        <ele>425</ele>
        <time>2022-05-21 00:06:40</time>
      </trkpt>
      <trkpt lat="41.7727" lon="1.96051">
        <ele>425.2</ele>
        <time>2022-05-21 00:06:41</time>
      </trkpt>
      <trkpt lat="41.77273" lon="1.96055">
        <ele>425.2</ele>
        <time>2022-05-21 00:06:42</time>
      </trkpt>
      <trkpt lat="41.77275" lon="1.96059">
        <ele>425.4</ele>
        <time>2022-05-21 00:06:43</time>
      </trkpt>
      <trkpt lat="41.77277" lon="1.96063">
        <ele>425.6</ele>
        <time>2022-05-21 00:06:44</time>
      </trkpt>
      <trkpt lat="41.7728" lon="1.96067">
        <ele>425.8</ele>
        <time>2022-05-21 00:06:45</time>
      </trkpt>
      <trkpt lat="41.77282" lon="1.9607">
        <ele>425.8</ele>
        <time>2022-05-21 00:06:46</time>
      </trkpt>
      <trkpt lat="41.77284" lon="1.96074">
        <ele>426</ele>
        <time>2022-05-21 00:06:47</time>
      </trkpt>
      <trkpt lat="41.77287" lon="1.96078">
        <ele>426.2</ele>
        <time>2022-05-21 00:06:48</time>
      </trkpt>
      <trkpt lat="41.77289" lon="1.96082">
        <ele>426.4</ele>
        <time>2022-05-21 00:06:49</time>
      </trkpt>
      <trkpt lat="41.77291" lon="1.96086">
        <ele>426.4</ele>
        <time>2022-05-21 00:06:50</time>
      </trkpt>
      <trkpt lat="41.77294" lon="1.96091">
        <ele>426.6</ele>
        <time>2022-05-21 00:06:51</time>
      </trkpt>
      <trkpt lat="41.77296" lon="1.96095">
        <ele>426.8</ele>
        <time>2022-05-21 00:06:52</time>
      </trkpt>
      <trkpt lat="41.77299" lon="1.96099">
        <ele>427</ele>
        <time>2022-05-21 00:06:53</time>
      </trkpt>
      <trkpt lat="41.77301" lon="1.96102">
        <ele>427</ele>
        <time>2022-05-21 00:06:54</time>
      </trkpt>
      <trkpt lat="41.77303" lon="1.96106">
        <ele>427.2</ele>
        <time>2022-05-21 00:06:55</time>
      </trkpt>
      <trkpt lat="41.77306" lon="1.9611">
        <ele>427.4</ele>
        <time>2022-05-21 00:06:56</time>
      </trkpt>
      <trkpt lat="41.77309" lon="1.96114">
        <ele>427.6</ele>
        <time>2022-05-21 00:06:57</time>
      </trkpt>
      <trkpt lat="41.77311" lon="1.96117">
        <ele>427.6</ele>
        <time>2022-05-21 00:06:58</time>
      </trkpt>
      <trkpt lat="41.77313" lon="1.96121">
        <ele>427.8</ele>
        <time>2022-05-21 00:06:59</time>
      </trkpt>
      <trkpt lat="41.77316" lon="1.96125">
        <ele>428</ele>
        <time>2022-05-21 00:07:00</time>
      </trkpt>
      <trkpt lat="41.77318" lon="1.96129">
        <ele>428</ele>
        <time>2022-05-21 00:07:01</time>
      </trkpt>
      <trkpt lat="41.7732" lon="1.96133">
        <ele>428.2</ele>
        <time>2022-05-21 00:07:02</time>
      </trkpt>
      <trkpt lat="41.77322" lon="1.96137">
        <ele>428.2</ele>
        <time>2022-05-21 00:07:03</time>
      </trkpt>
      <trkpt lat="41.77325" lon="1.96141">
        <ele>428.4</ele>
        <time>2022-05-21 00:07:04</time>
      </trkpt>
      <trkpt lat="41.77327" lon="1.96145">
        <ele>428.6</ele>
        <time>2022-05-21 00:07:05</time>
      </trkpt>
      <trkpt lat="41.7733" lon="1.96149">
        <ele>428.8</ele>
        <time>2022-05-21 00:07:06</time>
      </trkpt>
      <trkpt lat="41.77332" lon="1.96153">
        <ele>429</ele>
        <time>2022-05-21 00:07:07</time>
      </trkpt>
      <trkpt lat="41.77335" lon="1.96157">
        <ele>429.2</ele>
        <time>2022-05-21 00:07:08</time>
      </trkpt>
      <trkpt lat="41.77337" lon="1.96161">
        <ele>429.2</ele>
        <time>2022-05-21 00:07:09</time>
      </trkpt>
      <trkpt lat="41.7734" lon="1.96165">
        <ele>429.4</ele>
        <time>2022-05-21 00:07:10</time>
      </trkpt>
      <trkpt lat="41.77342" lon="1.96169">
        <ele>429.6</ele>
        <time>2022-05-21 00:07:11</time>
      </trkpt>
      <trkpt lat="41.77344" lon="1.96173">
        <ele>429.8</ele>
        <time>2022-05-21 00:07:12</time>
      </trkpt>
      <trkpt lat="41.77346" lon="1.96176">
        <ele>430</ele>
        <time>2022-05-21 00:07:13</time>
      </trkpt>
      <trkpt lat="41.77349" lon="1.9618">
        <ele>430</ele>
        <time>2022-05-21 00:07:14</time>
      </trkpt>
      <trkpt lat="41.77351" lon="1.96184">
        <ele>430.2</ele>
        <time>2022-05-21 00:07:15</time>
      </trkpt>
      <trkpt lat="41.77354" lon="1.96188">
        <ele>430.4</ele>
        <time>2022-05-21 00:07:16</time>
      </trkpt>
      <trkpt lat="41.77356" lon="1.96191">
        <ele>430.6</ele>
        <time>2022-05-21 00:07:17</time>
      </trkpt>
      <trkpt lat="41.77359" lon="1.96195">
        <ele>430.6</ele>
        <time>2022-05-21 00:07:18</time>
      </trkpt>
      <trkpt lat="41.77361" lon="1.96199">
        <ele>430.8</ele>
        <time>2022-05-21 00:07:19</time>
      </trkpt>
      <trkpt lat="41.77364" lon="1.96202">
        <ele>431</ele>
        <time>2022-05-21 00:07:20</time>
      </trkpt>
      <trkpt lat="41.77366" lon="1.96205">
        <ele>431.2</ele>
        <time>2022-05-21 00:07:21</time>
      </trkpt>
      <trkpt lat="41.77369" lon="1.96209">
        <ele>431.2</ele>
        <time>2022-05-21 00:07:22</time>
      </trkpt>
      <trkpt lat="41.77372" lon="1.96212">
        <ele>431.4</ele>
        <time>2022-05-21 00:07:23</time>
      </trkpt>
      <trkpt lat="41.77375" lon="1.96216">
        <ele>431.6</ele>
        <time>2022-05-21 00:07:24</time>
      </trkpt>
      <trkpt lat="41.77378" lon="1.96219">
        <ele>431.8</ele>
        <time>2022-05-21 00:07:25</time>
      </trkpt>
      <trkpt lat="41.77382" lon="1.96222">
        <ele>432</ele>
        <time>2022-05-21 00:07:26</time>
      </trkpt>
      <trkpt lat="41.77385" lon="1.96224">
        <ele>432</ele>
        <time>2022-05-21 00:07:27</time>
      </trkpt>
      <trkpt lat="41.77388" lon="1.96226">
        <ele>432.2</ele>
        <time>2022-05-21 00:07:28</time>
      </trkpt>
      <trkpt lat="41.77392" lon="1.96229">
        <ele>432.4</ele>
        <time>2022-05-21 00:07:29</time>
      </trkpt>
      <trkpt lat="41.77395" lon="1.96231">
        <ele>432.6</ele>
        <time>2022-05-21 00:07:30</time>
      </trkpt>
      <trkpt lat="41.77399" lon="1.96234">
        <ele>432.8</ele>
        <time>2022-05-21 00:07:31</time>
      </trkpt>
      <trkpt lat="41.77402" lon="1.96237">
        <ele>432.8</ele>
        <time>2022-05-21 00:07:32</time>
      </trkpt>
      <trkpt lat="41.77406" lon="1.96239">
        <ele>433</ele>
        <time>2022-05-21 00:07:33</time>
      </trkpt>
      <trkpt lat="41.77409" lon="1.96242">
        <ele>433.2</ele>
        <time>2022-05-21 00:07:34</time>
      </trkpt>
      <trkpt lat="41.77412" lon="1.96245">
        <ele>433.2</ele>
        <time>2022-05-21 00:07:35</time>
      </trkpt>
      <trkpt lat="41.77416" lon="1.96248">
        <ele>433.4</ele>
        <time>2022-05-21 00:07:36</time>
      </trkpt>
      <trkpt lat="41.77419" lon="1.9625">
        <ele>433.4</ele>
        <time>2022-05-21 00:07:37</time>
      </trkpt>
      <trkpt lat="41.77422" lon="1.96254">
        <ele>433.6</ele>
        <time>2022-05-21 00:07:38</time>
      </trkpt>
      <trkpt lat="41.77425" lon="1.96257">
        <ele>433.6</ele>
        <time>2022-05-21 00:07:39</time>
      </trkpt>
      <trkpt lat="41.77428" lon="1.9626">
        <ele>433.8</ele>
        <time>2022-05-21 00:07:40</time>
      </trkpt>
      <trkpt lat="41.77431" lon="1.96264">
        <ele>434</ele>
        <time>2022-05-21 00:07:41</time>
      </trkpt>
      <trkpt lat="41.77433" lon="1.96268">
        <ele>434</ele>
        <time>2022-05-21 00:07:42</time>
      </trkpt>
      <trkpt lat="41.77436" lon="1.96272">
        <ele>434.2</ele>
        <time>2022-05-21 00:07:43</time>
      </trkpt>
      <trkpt lat="41.77438" lon="1.96276">
        <ele>434.4</ele>
        <time>2022-05-21 00:07:44</time>
      </trkpt>
      <trkpt lat="41.77441" lon="1.9628">
        <ele>434.4</ele>
        <time>2022-05-21 00:07:45</time>
      </trkpt>
      <trkpt lat="41.77443" lon="1.96284">
        <ele>434.6</ele>
        <time>2022-05-21 00:07:46</time>
      </trkpt>
      <trkpt lat="41.77444" lon="1.96288">
        <ele>434.8</ele>
        <time>2022-05-21 00:07:47</time>
      </trkpt>
      <trkpt lat="41.77446" lon="1.96293">
        <ele>434.8</ele>
        <time>2022-05-21 00:07:48</time>
      </trkpt>
      <trkpt lat="41.77447" lon="1.96298">
        <ele>435</ele>
        <time>2022-05-21 00:07:49</time>
      </trkpt>
      <trkpt lat="41.77449" lon="1.96303">
        <ele>435</ele>
        <time>2022-05-21 00:07:50</time>
      </trkpt>
      <trkpt lat="41.7745" lon="1.96308">
        <ele>435.2</ele>
        <time>2022-05-21 00:07:51</time>
      </trkpt>
      <trkpt lat="41.77451" lon="1.96313">
        <ele>435.4</ele>
        <time>2022-05-21 00:07:52</time>
      </trkpt>
      <trkpt lat="41.77452" lon="1.96318">
        <ele>435.4</ele>
        <time>2022-05-21 00:07:53</time>
      </trkpt>
      <trkpt lat="41.77452" lon="1.96324">
        <ele>435.4</ele>
        <time>2022-05-21 00:07:54</time>
      </trkpt>
      <trkpt lat="41.77453" lon="1.9633">
        <ele>435.6</ele>
        <time>2022-05-21 00:07:55</time>
      </trkpt>
      <trkpt lat="41.77453" lon="1.96336">
        <ele>435.6</ele>
        <time>2022-05-21 00:07:56</time>
      </trkpt>
      <trkpt lat="41.77454" lon="1.96342">
        <ele>435.8</ele>
        <time>2022-05-21 00:07:57</time>
      </trkpt>
      <trkpt lat="41.77454" lon="1.96348">
        <ele>435.8</ele>
        <time>2022-05-21 00:07:58</time>
      </trkpt>
      <trkpt lat="41.77454" lon="1.96354">
        <ele>436</ele>
        <time>2022-05-21 00:07:59</time>
      </trkpt>
      <trkpt lat="41.77455" lon="1.9636">
        <ele>436</ele>
        <time>2022-05-21 00:08:00</time>
      </trkpt>
      <trkpt lat="41.77455" lon="1.96366">
        <ele>436.2</ele>
        <time>2022-05-21 00:08:01</time>
      </trkpt>
      <trkpt lat="41.77455" lon="1.96372">
        <ele>436.2</ele>
        <time>2022-05-21 00:08:02</time>
      </trkpt>
      <trkpt lat="41.77455" lon="1.96378">
        <ele>436.4</ele>
        <time>2022-05-21 00:08:03</time>
      </trkpt>
      <trkpt lat="41.77455" lon="1.96384">
        <ele>436.6</ele>
        <time>2022-05-21 00:08:04</time>
      </trkpt>
      <trkpt lat="41.77455" lon="1.9639">
        <ele>436.6</ele>
        <time>2022-05-21 00:08:05</time>
      </trkpt>
      <trkpt lat="41.77456" lon="1.96396">
        <ele>436.8</ele>
        <time>2022-05-21 00:08:06</time>
      </trkpt>
      <trkpt lat="41.77456" lon="1.96402">
        <ele>436.8</ele>
        <time>2022-05-21 00:08:07</time>
      </trkpt>
      <trkpt lat="41.77456" lon="1.96408">
        <ele>437</ele>
        <time>2022-05-21 00:08:08</time>
      </trkpt>
      <trkpt lat="41.77456" lon="1.96414">
        <ele>437</ele>
        <time>2022-05-21 00:08:09</time>
      </trkpt>
      <trkpt lat="41.77456" lon="1.9642">
        <ele>437.2</ele>
        <time>2022-05-21 00:08:10</time>
      </trkpt>
      <trkpt lat="41.77456" lon="1.96425">
        <ele>437.2</ele>
        <time>2022-05-21 00:08:11</time>
      </trkpt>
      <trkpt lat="41.77457" lon="1.96431">
        <ele>437.4</ele>
        <time>2022-05-21 00:08:12</time>
      </trkpt>
      <trkpt lat="41.77457" lon="1.96437">
        <ele>437.4</ele>
        <time>2022-05-21 00:08:13</time>
      </trkpt>
      <trkpt lat="41.77457" lon="1.96443">
        <ele>437.6</ele>
        <time>2022-05-21 00:08:14</time>
      </trkpt>
      <trkpt lat="41.77457" lon="1.96448">
        <ele>437.8</ele>
        <time>2022-05-21 00:08:15</time>
      </trkpt>
      <trkpt lat="41.77458" lon="1.96453">
        <ele>437.8</ele>
        <time>2022-05-21 00:08:16</time>
      </trkpt>
      <trkpt lat="41.77459" lon="1.96458">
        <ele>438</ele>
        <time>2022-05-21 00:08:17</time>
      </trkpt>
      <trkpt lat="41.77461" lon="1.96463">
        <ele>438.2</ele>
        <time>2022-05-21 00:08:18</time>
      </trkpt>
      <trkpt lat="41.77463" lon="1.96469">
        <ele>438.2</ele>
        <time>2022-05-21 00:08:19</time>
      </trkpt>
      <trkpt lat="41.77464" lon="1.96474">
        <ele>438.4</ele>
        <time>2022-05-21 00:08:20</time>
      </trkpt>
      <trkpt lat="41.77466" lon="1.9648">
        <ele>438.4</ele>
        <time>2022-05-21 00:08:21</time>
      </trkpt>
      <trkpt lat="41.77468" lon="1.96485">
        <ele>438.6</ele>
        <time>2022-05-21 00:08:22</time>
      </trkpt>
      <trkpt lat="41.7747" lon="1.9649">
        <ele>438.8</ele>
        <time>2022-05-21 00:08:23</time>
      </trkpt>
      <trkpt lat="41.77471" lon="1.96495">
        <ele>438.8</ele>
        <time>2022-05-21 00:08:24</time>
      </trkpt>
      <trkpt lat="41.77473" lon="1.96501">
        <ele>439</ele>
        <time>2022-05-21 00:08:25</time>
      </trkpt>
      <trkpt lat="41.77475" lon="1.96506">
        <ele>439.2</ele>
        <time>2022-05-21 00:08:26</time>
      </trkpt>
      <trkpt lat="41.77478" lon="1.96511">
        <ele>439.2</ele>
        <time>2022-05-21 00:08:27</time>
      </trkpt>
      <trkpt lat="41.7748" lon="1.96516">
        <ele>439.2</ele>
        <time>2022-05-21 00:08:28</time>
      </trkpt>
      <trkpt lat="41.77483" lon="1.96521">
        <ele>439.4</ele>
        <time>2022-05-21 00:08:29</time>
      </trkpt>
      <trkpt lat="41.77486" lon="1.96526">
        <ele>439.6</ele>
        <time>2022-05-21 00:08:30</time>
      </trkpt>
      <trkpt lat="41.77488" lon="1.96531">
        <ele>439.6</ele>
        <time>2022-05-21 00:08:31</time>
      </trkpt>
      <trkpt lat="41.7749" lon="1.96535">
        <ele>439.8</ele>
        <time>2022-05-21 00:08:32</time>
      </trkpt>
      <trkpt lat="41.77493" lon="1.9654">
        <ele>439.8</ele>
        <time>2022-05-21 00:08:33</time>
      </trkpt>
      <trkpt lat="41.77494" lon="1.96544">
        <ele>440</ele>
        <time>2022-05-21 00:08:34</time>
      </trkpt>
      <trkpt lat="41.77497" lon="1.96548">
        <ele>440.2</ele>
        <time>2022-05-21 00:08:35</time>
      </trkpt>
      <trkpt lat="41.77499" lon="1.96553">
        <ele>440.2</ele>
        <time>2022-05-21 00:08:36</time>
      </trkpt>
      <trkpt lat="41.77502" lon="1.96558">
        <ele>440.4</ele>
        <time>2022-05-21 00:08:37</time>
      </trkpt>
      <trkpt lat="41.77504" lon="1.96562">
        <ele>440.4</ele>
        <time>2022-05-21 00:08:38</time>
      </trkpt>
      <trkpt lat="41.77506" lon="1.96567">
        <ele>440.6</ele>
        <time>2022-05-21 00:08:39</time>
      </trkpt>
      <trkpt lat="41.77509" lon="1.96572">
        <ele>440.8</ele>
        <time>2022-05-21 00:08:40</time>
      </trkpt>
      <trkpt lat="41.77511" lon="1.96576">
        <ele>440.8</ele>
        <time>2022-05-21 00:08:41</time>
      </trkpt>
      <trkpt lat="41.77514" lon="1.96581">
        <ele>441</ele>
        <time>2022-05-21 00:08:42</time>
      </trkpt>
      <trkpt lat="41.77516" lon="1.96585">
        <ele>441</ele>
        <time>2022-05-21 00:08:43</time>
      </trkpt>
      <trkpt lat="41.77518" lon="1.96589">
        <ele>441.2</ele>
        <time>2022-05-21 00:08:44</time>
      </trkpt>
      <trkpt lat="41.77521" lon="1.96593">
        <ele>441.4</ele>
        <time>2022-05-21 00:08:45</time>
      </trkpt>
      <trkpt lat="41.77523" lon="1.96598">
        <ele>441.6</ele>
        <time>2022-05-21 00:08:46</time>
      </trkpt>
      <trkpt lat="41.77525" lon="1.96602">
        <ele>441.6</ele>
        <time>2022-05-21 00:08:47</time>
      </trkpt>
      <trkpt lat="41.77528" lon="1.96606">
        <ele>441.8</ele>
        <time>2022-05-21 00:08:48</time>
      </trkpt>
      <trkpt lat="41.7753" lon="1.96611">
        <ele>442</ele>
        <time>2022-05-21 00:08:49</time>
      </trkpt>
      <trkpt lat="41.77533" lon="1.96616">
        <ele>442.2</ele>
        <time>2022-05-21 00:08:50</time>
      </trkpt>
      <trkpt lat="41.77535" lon="1.9662">
        <ele>442.2</ele>
        <time>2022-05-21 00:08:51</time>
      </trkpt>
      <trkpt lat="41.77538" lon="1.96625">
        <ele>442.2</ele>
        <time>2022-05-21 00:08:52</time>
      </trkpt>
      <trkpt lat="41.77541" lon="1.96629">
        <ele>442.4</ele>
        <time>2022-05-21 00:08:53</time>
      </trkpt>
      <trkpt lat="41.77543" lon="1.96634">
        <ele>442.4</ele>
        <time>2022-05-21 00:08:54</time>
      </trkpt>
      <trkpt lat="41.77545" lon="1.96639">
        <ele>442.4</ele>
        <time>2022-05-21 00:08:55</time>
      </trkpt>
      <trkpt lat="41.77547" lon="1.96643">
        <ele>442.6</ele>
        <time>2022-05-21 00:08:56</time>
      </trkpt>
      <trkpt lat="41.77549" lon="1.96648">
        <ele>442.6</ele>
        <time>2022-05-21 00:08:57</time>
      </trkpt>
      <trkpt lat="41.77552" lon="1.96653">
        <ele>442.8</ele>
        <time>2022-05-21 00:08:58</time>
      </trkpt>
      <trkpt lat="41.77554" lon="1.96658">
        <ele>442.8</ele>
        <time>2022-05-21 00:08:59</time>
      </trkpt>
      <trkpt lat="41.77557" lon="1.96662">
        <ele>443</ele>
        <time>2022-05-21 00:09:00</time>
      </trkpt>
      <trkpt lat="41.77559" lon="1.96667">
        <ele>443</ele>
        <time>2022-05-21 00:09:01</time>
      </trkpt>
      <trkpt lat="41.77561" lon="1.96672">
        <ele>443.2</ele>
        <time>2022-05-21 00:09:02</time>
      </trkpt>
      <trkpt lat="41.77563" lon="1.96677">
        <ele>443.4</ele>
        <time>2022-05-21 00:09:03</time>
      </trkpt>
      <trkpt lat="41.77566" lon="1.96682">
        <ele>443.6</ele>
        <time>2022-05-21 00:09:04</time>
      </trkpt>
      <trkpt lat="41.77568" lon="1.96687">
        <ele>443.8</ele>
        <time>2022-05-21 00:09:05</time>
      </trkpt>
      <trkpt lat="41.7757" lon="1.96692">
        <ele>444</ele>
        <time>2022-05-21 00:09:06</time>
      </trkpt>
      <trkpt lat="41.77572" lon="1.96697">
        <ele>444.2</ele>
        <time>2022-05-21 00:09:07</time>
      </trkpt>
      <trkpt lat="41.77574" lon="1.96702">
        <ele>444.4</ele>
        <time>2022-05-21 00:09:08</time>
      </trkpt>
      <trkpt lat="41.77576" lon="1.96707">
        <ele>444.4</ele>
        <time>2022-05-21 00:09:09</time>
      </trkpt>
      <trkpt lat="41.77578" lon="1.96712">
        <ele>444.6</ele>
        <time>2022-05-21 00:09:10</time>
      </trkpt>
      <trkpt lat="41.77579" lon="1.96718">
        <ele>444.8</ele>
        <time>2022-05-21 00:09:11</time>
      </trkpt>
      <trkpt lat="41.77581" lon="1.96723">
        <ele>445</ele>
        <time>2022-05-21 00:09:12</time>
      </trkpt>
      <trkpt lat="41.77583" lon="1.96728">
        <ele>445.2</ele>
        <time>2022-05-21 00:09:13</time>
      </trkpt>
      <trkpt lat="41.77585" lon="1.96734">
        <ele>445.2</ele>
        <time>2022-05-21 00:09:14</time>
      </trkpt>
      <trkpt lat="41.77587" lon="1.96739">
        <ele>445.4</ele>
        <time>2022-05-21 00:09:15</time>
      </trkpt>
      <trkpt lat="41.77589" lon="1.96744">
        <ele>445.6</ele>
        <time>2022-05-21 00:09:16</time>
      </trkpt>
      <trkpt lat="41.77591" lon="1.9675">
        <ele>445.8</ele>
        <time>2022-05-21 00:09:17</time>
      </trkpt>
      <trkpt lat="41.77592" lon="1.96755">
        <ele>445.8</ele>
        <time>2022-05-21 00:09:18</time>
      </trkpt>
      <trkpt lat="41.77594" lon="1.96761">
        <ele>446</ele>
        <time>2022-05-21 00:09:19</time>
      </trkpt>
      <trkpt lat="41.77596" lon="1.96766">
        <ele>446.2</ele>
        <time>2022-05-21 00:09:20</time>
      </trkpt>
      <trkpt lat="41.77598" lon="1.96772">
        <ele>446.2</ele>
        <time>2022-05-21 00:09:21</time>
      </trkpt>
      <trkpt lat="41.776" lon="1.96778">
        <ele>446.4</ele>
        <time>2022-05-21 00:09:22</time>
      </trkpt>
      <trkpt lat="41.77602" lon="1.96784">
        <ele>446.6</ele>
        <time>2022-05-21 00:09:23</time>
      </trkpt>
      <trkpt lat="41.77604" lon="1.96789">
        <ele>446.8</ele>
        <time>2022-05-21 00:09:24</time>
      </trkpt>
      <trkpt lat="41.77605" lon="1.96795">
        <ele>446.8</ele>
        <time>2022-05-21 00:09:25</time>
      </trkpt>
      <trkpt lat="41.77608" lon="1.96801">
        <ele>447</ele>
        <time>2022-05-21 00:09:26</time>
      </trkpt>
      <trkpt lat="41.7761" lon="1.96806">
        <ele>447.2</ele>
        <time>2022-05-21 00:09:27</time>
      </trkpt>
      <trkpt lat="41.77612" lon="1.96811">
        <ele>447.4</ele>
        <time>2022-05-21 00:09:28</time>
      </trkpt>
      <trkpt lat="41.77614" lon="1.96817">
        <ele>447.4</ele>
        <time>2022-05-21 00:09:29</time>
      </trkpt>
      <trkpt lat="41.77616" lon="1.96822">
        <ele>447.6</ele>
        <time>2022-05-21 00:09:30</time>
      </trkpt>
      <trkpt lat="41.77618" lon="1.96828">
        <ele>447.8</ele>
        <time>2022-05-21 00:09:31</time>
      </trkpt>
      <trkpt lat="41.7762" lon="1.96834">
        <ele>447.8</ele>
        <time>2022-05-21 00:09:32</time>
      </trkpt>
      <trkpt lat="41.77622" lon="1.96839">
        <ele>448</ele>
        <time>2022-05-21 00:09:33</time>
      </trkpt>
      <trkpt lat="41.77624" lon="1.96844">
        <ele>448.2</ele>
        <time>2022-05-21 00:09:34</time>
      </trkpt>
      <trkpt lat="41.77626" lon="1.9685">
        <ele>448.4</ele>
        <time>2022-05-21 00:09:35</time>
      </trkpt>
      <trkpt lat="41.77628" lon="1.96855">
        <ele>448.6</ele>
        <time>2022-05-21 00:09:36</time>
      </trkpt>
      <trkpt lat="41.7763" lon="1.96861">
        <ele>448.8</ele>
        <time>2022-05-21 00:09:37</time>
      </trkpt>
      <trkpt lat="41.77632" lon="1.96866">
        <ele>449</ele>
        <time>2022-05-21 00:09:38</time>
      </trkpt>
      <trkpt lat="41.77633" lon="1.96872">
        <ele>449</ele>
        <time>2022-05-21 00:09:39</time>
      </trkpt>
      <trkpt lat="41.77635" lon="1.96877">
        <ele>449.2</ele>
        <time>2022-05-21 00:09:40</time>
      </trkpt>
      <trkpt lat="41.77637" lon="1.96882">
        <ele>449.4</ele>
        <time>2022-05-21 00:09:41</time>
      </trkpt>
      <trkpt lat="41.77638" lon="1.96887">
        <ele>449.6</ele>
        <time>2022-05-21 00:09:42</time>
      </trkpt>
      <trkpt lat="41.77641" lon="1.96893">
        <ele>449.6</ele>
        <time>2022-05-21 00:09:43</time>
      </trkpt>
      <trkpt lat="41.77642" lon="1.96898">
        <ele>449.8</ele>
        <time>2022-05-21 00:09:44</time>
      </trkpt>
      <trkpt lat="41.77644" lon="1.96903">
        <ele>450</ele>
        <time>2022-05-21 00:09:45</time>
      </trkpt>
      <trkpt lat="41.77647" lon="1.96908">
        <ele>450.2</ele>
        <time>2022-05-21 00:09:46</time>
      </trkpt>
      <trkpt lat="41.77649" lon="1.96913">
        <ele>450.2</ele>
        <time>2022-05-21 00:09:47</time>
      </trkpt>
      <trkpt lat="41.7765" lon="1.96918">
        <ele>450.4</ele>
        <time>2022-05-21 00:09:48</time>
      </trkpt>
      <trkpt lat="41.77652" lon="1.96923">
        <ele>450.4</ele>
        <time>2022-05-21 00:09:49</time>
      </trkpt>
      <trkpt lat="41.77654" lon="1.96928">
        <ele>450.6</ele>
        <time>2022-05-21 00:09:50</time>
      </trkpt>
      <trkpt lat="41.77656" lon="1.96933">
        <ele>450.8</ele>
        <time>2022-05-21 00:09:51</time>
      </trkpt>
      <trkpt lat="41.77658" lon="1.96938">
        <ele>450.8</ele>
        <time>2022-05-21 00:09:52</time>
      </trkpt>
      <trkpt lat="41.7766" lon="1.96944">
        <ele>451</ele>
        <time>2022-05-21 00:09:53</time>
      </trkpt>
      <trkpt lat="41.77662" lon="1.96949">
        <ele>451</ele>
        <time>2022-05-21 00:09:54</time>
      </trkpt>
      <trkpt lat="41.77663" lon="1.96954">
        <ele>451.2</ele>
        <time>2022-05-21 00:09:55</time>
      </trkpt>
      <trkpt lat="41.77665" lon="1.9696">
        <ele>451.4</ele>
        <time>2022-05-21 00:09:56</time>
      </trkpt>
      <trkpt lat="41.77667" lon="1.96965">
        <ele>451.6</ele>
        <time>2022-05-21 00:09:57</time>
      </trkpt>
      <trkpt lat="41.77669" lon="1.9697">
        <ele>451.6</ele>
        <time>2022-05-21 00:09:58</time>
      </trkpt>
      <trkpt lat="41.77671" lon="1.96975">
        <ele>451.8</ele>
        <time>2022-05-21 00:09:59</time>
      </trkpt>
      <trkpt lat="41.77673" lon="1.9698">
        <ele>452</ele>
        <time>2022-05-21 00:10:00</time>
      </trkpt>
      <trkpt lat="41.77674" lon="1.96985">
        <ele>452.2</ele>
        <time>2022-05-21 00:10:01</time>
      </trkpt>
      <trkpt lat="41.77676" lon="1.9699">
        <ele>452.2</ele>
        <time>2022-05-21 00:10:02</time>
      </trkpt>
      <trkpt lat="41.77678" lon="1.96996">
        <ele>452.4</ele>
        <time>2022-05-21 00:10:03</time>
      </trkpt>
      <trkpt lat="41.7768" lon="1.97001">
        <ele>452.4</ele>
        <time>2022-05-21 00:10:04</time>
      </trkpt>
      <trkpt lat="41.77682" lon="1.97007">
        <ele>452.4</ele>
        <time>2022-05-21 00:10:05</time>
      </trkpt>
      <trkpt lat="41.77684" lon="1.97012">
        <ele>452.6</ele>
        <time>2022-05-21 00:10:06</time>
      </trkpt>
      <trkpt lat="41.77686" lon="1.97018">
        <ele>452.6</ele>
        <time>2022-05-21 00:10:07</time>
      </trkpt>
      <trkpt lat="41.77688" lon="1.97024">
        <ele>452.8</ele>
        <time>2022-05-21 00:10:08</time>
      </trkpt>
      <trkpt lat="41.7769" lon="1.97029">
        <ele>452.8</ele>
        <time>2022-05-21 00:10:09</time>
      </trkpt>
      <trkpt lat="41.77692" lon="1.97035">
        <ele>452.8</ele>
        <time>2022-05-21 00:10:10</time>
      </trkpt>
      <trkpt lat="41.77694" lon="1.97041">
        <ele>452.8</ele>
        <time>2022-05-21 00:10:11</time>
      </trkpt>
      <trkpt lat="41.77696" lon="1.97046">
        <ele>452.8</ele>
        <time>2022-05-21 00:10:12</time>
      </trkpt>
      <trkpt lat="41.77699" lon="1.97052">
        <ele>453</ele>
        <time>2022-05-21 00:10:13</time>
      </trkpt>
      <trkpt lat="41.777" lon="1.97058">
        <ele>453</ele>
        <time>2022-05-21 00:10:14</time>
      </trkpt>
      <trkpt lat="41.77702" lon="1.97064">
        <ele>453</ele>
        <time>2022-05-21 00:10:15</time>
      </trkpt>
      <trkpt lat="41.77704" lon="1.9707">
        <ele>453.2</ele>
        <time>2022-05-21 00:10:16</time>
      </trkpt>
      <trkpt lat="41.77707" lon="1.97076">
        <ele>453.2</ele>
        <time>2022-05-21 00:10:17</time>
      </trkpt>
      <trkpt lat="41.77708" lon="1.97082">
        <ele>453.4</ele>
        <time>2022-05-21 00:10:18</time>
      </trkpt>
      <trkpt lat="41.77711" lon="1.97088">
        <ele>453.4</ele>
        <time>2022-05-21 00:10:19</time>
      </trkpt>
      <trkpt lat="41.77713" lon="1.97094">
        <ele>453.4</ele>
        <time>2022-05-21 00:10:20</time>
      </trkpt>
      <trkpt lat="41.77715" lon="1.97101">
        <ele>453.6</ele>
        <time>2022-05-21 00:10:21</time>
      </trkpt>
      <trkpt lat="41.77717" lon="1.97107">
        <ele>453.6</ele>
        <time>2022-05-21 00:10:22</time>
      </trkpt>
      <trkpt lat="41.77719" lon="1.97113">
        <ele>453.6</ele>
        <time>2022-05-21 00:10:23</time>
      </trkpt>
      <trkpt lat="41.77721" lon="1.97119">
        <ele>453.6</ele>
        <time>2022-05-21 00:10:24</time>
      </trkpt>
      <trkpt lat="41.77724" lon="1.97126">
        <ele>453.8</ele>
        <time>2022-05-21 00:10:25</time>
      </trkpt>
      <trkpt lat="41.77726" lon="1.97132">
        <ele>453.8</ele>
        <time>2022-05-21 00:10:26</time>
      </trkpt>
      <trkpt lat="41.77728" lon="1.97138">
        <ele>453.8</ele>
        <time>2022-05-21 00:10:27</time>
      </trkpt>
      <trkpt lat="41.7773" lon="1.97145">
        <ele>453.8</ele>
        <time>2022-05-21 00:10:28</time>
      </trkpt>
      <trkpt lat="41.77732" lon="1.97151">
        <ele>454</ele>
        <time>2022-05-21 00:10:29</time>
      </trkpt>
      <trkpt lat="41.77734" lon="1.97157">
        <ele>454</ele>
        <time>2022-05-21 00:10:30</time>
      </trkpt>
      <trkpt lat="41.77737" lon="1.97163">
        <ele>454.2</ele>
        <time>2022-05-21 00:10:31</time>
      </trkpt>
      <trkpt lat="41.77739" lon="1.9717">
        <ele>454.2</ele>
        <time>2022-05-21 00:10:32</time>
      </trkpt>
      <trkpt lat="41.77741" lon="1.97176">
        <ele>454.4</ele>
        <time>2022-05-21 00:10:33</time>
      </trkpt>
      <trkpt lat="41.77743" lon="1.97182">
        <ele>454.4</ele>
        <time>2022-05-21 00:10:34</time>
      </trkpt>
      <trkpt lat="41.77745" lon="1.97187">
        <ele>454.6</ele>
        <time>2022-05-21 00:10:35</time>
      </trkpt>
      <trkpt lat="41.77747" lon="1.97194">
        <ele>454.8</ele>
        <time>2022-05-21 00:10:36</time>
      </trkpt>
      <trkpt lat="41.77749" lon="1.97199">
        <ele>454.8</ele>
        <time>2022-05-21 00:10:37</time>
      </trkpt>
      <trkpt lat="41.77751" lon="1.97205">
        <ele>455</ele>
        <time>2022-05-21 00:10:38</time>
      </trkpt>
      <trkpt lat="41.77753" lon="1.97211">
        <ele>455.2</ele>
        <time>2022-05-21 00:10:39</time>
      </trkpt>
      <trkpt lat="41.77755" lon="1.97216">
        <ele>455.4</ele>
        <time>2022-05-21 00:10:40</time>
      </trkpt>
      <trkpt lat="41.77757" lon="1.97221">
        <ele>455.6</ele>
        <time>2022-05-21 00:10:41</time>
      </trkpt>
      <trkpt lat="41.77758" lon="1.97227">
        <ele>455.6</ele>
        <time>2022-05-21 00:10:42</time>
      </trkpt>
      <trkpt lat="41.7776" lon="1.97232">
        <ele>455.8</ele>
        <time>2022-05-21 00:10:43</time>
      </trkpt>
      <trkpt lat="41.77762" lon="1.97237">
        <ele>456</ele>
        <time>2022-05-21 00:10:44</time>
      </trkpt>
      <trkpt lat="41.77764" lon="1.97242">
        <ele>456.2</ele>
        <time>2022-05-21 00:10:45</time>
      </trkpt>
      <trkpt lat="41.77765" lon="1.97247">
        <ele>456.4</ele>
        <time>2022-05-21 00:10:46</time>
      </trkpt>
      <trkpt lat="41.77767" lon="1.97252">
        <ele>456.6</ele>
        <time>2022-05-21 00:10:47</time>
      </trkpt>
      <trkpt lat="41.77769" lon="1.97257">
        <ele>456.8</ele>
        <time>2022-05-21 00:10:48</time>
      </trkpt>
      <trkpt lat="41.7777" lon="1.97263">
        <ele>457</ele>
        <time>2022-05-21 00:10:49</time>
      </trkpt>
      <trkpt lat="41.77773" lon="1.97268">
        <ele>457.2</ele>
        <time>2022-05-21 00:10:50</time>
      </trkpt>
      <trkpt lat="41.77774" lon="1.97272">
        <ele>457.4</ele>
        <time>2022-05-21 00:10:51</time>
      </trkpt>
      <trkpt lat="41.77776" lon="1.97277">
        <ele>457.4</ele>
        <time>2022-05-21 00:10:52</time>
      </trkpt>
      <trkpt lat="41.77778" lon="1.97282">
        <ele>457.6</ele>
        <time>2022-05-21 00:10:53</time>
      </trkpt>
      <trkpt lat="41.7778" lon="1.97287">
        <ele>457.8</ele>
        <time>2022-05-21 00:10:54</time>
      </trkpt>
      <trkpt lat="41.77781" lon="1.97291">
        <ele>458</ele>
        <time>2022-05-21 00:10:55</time>
      </trkpt>
      <trkpt lat="41.77783" lon="1.97296">
        <ele>458.2</ele>
        <time>2022-05-21 00:10:56</time>
      </trkpt>
      <trkpt lat="41.77785" lon="1.97301">
        <ele>458.4</ele>
        <time>2022-05-21 00:10:57</time>
      </trkpt>
      <trkpt lat="41.77786" lon="1.97305">
        <ele>458.6</ele>
        <time>2022-05-21 00:10:58</time>
      </trkpt>
      <trkpt lat="41.77788" lon="1.9731">
        <ele>458.8</ele>
        <time>2022-05-21 00:10:59</time>
      </trkpt>
      <trkpt lat="41.7779" lon="1.97315">
        <ele>458.8</ele>
        <time>2022-05-21 00:11:00</time>
      </trkpt>
      <trkpt lat="41.77792" lon="1.97319">
        <ele>459</ele>
        <time>2022-05-21 00:11:01</time>
      </trkpt>
      <trkpt lat="41.77793" lon="1.97324">
        <ele>459.2</ele>
        <time>2022-05-21 00:11:02</time>
      </trkpt>
      <trkpt lat="41.77795" lon="1.97329">
        <ele>459.4</ele>
        <time>2022-05-21 00:11:03</time>
      </trkpt>
      <trkpt lat="41.77797" lon="1.97333">
        <ele>459.6</ele>
        <time>2022-05-21 00:11:04</time>
      </trkpt>
      <trkpt lat="41.77798" lon="1.97338">
        <ele>459.6</ele>
        <time>2022-05-21 00:11:05</time>
      </trkpt>
      <trkpt lat="41.778" lon="1.97343">
        <ele>459.8</ele>
        <time>2022-05-21 00:11:06</time>
      </trkpt>
      <trkpt lat="41.77802" lon="1.97348">
        <ele>460</ele>
        <time>2022-05-21 00:11:07</time>
      </trkpt>
      <trkpt lat="41.77803" lon="1.97353">
        <ele>460.2</ele>
        <time>2022-05-21 00:11:08</time>
      </trkpt>
      <trkpt lat="41.77805" lon="1.97358">
        <ele>460.4</ele>
        <time>2022-05-21 00:11:09</time>
      </trkpt>
      <trkpt lat="41.77807" lon="1.97362">
        <ele>460.4</ele>
        <time>2022-05-21 00:11:10</time>
      </trkpt>
      <trkpt lat="41.77809" lon="1.97367">
        <ele>460.6</ele>
        <time>2022-05-21 00:11:11</time>
      </trkpt>
      <trkpt lat="41.77811" lon="1.97372">
        <ele>460.8</ele>
        <time>2022-05-21 00:11:12</time>
      </trkpt>
      <trkpt lat="41.77813" lon="1.97377">
        <ele>460.8</ele>
        <time>2022-05-21 00:11:13</time>
      </trkpt>
      <trkpt lat="41.77814" lon="1.97381">
        <ele>461</ele>
        <time>2022-05-21 00:11:14</time>
      </trkpt>
      <trkpt lat="41.77816" lon="1.97386">
        <ele>461.2</ele>
        <time>2022-05-21 00:11:15</time>
      </trkpt>
      <trkpt lat="41.77817" lon="1.97391">
        <ele>461.4</ele>
        <time>2022-05-21 00:11:16</time>
      </trkpt>
      <trkpt lat="41.77819" lon="1.97396">
        <ele>461.6</ele>
        <time>2022-05-21 00:11:17</time>
      </trkpt>
      <trkpt lat="41.7782" lon="1.974">
        <ele>461.8</ele>
        <time>2022-05-21 00:11:18</time>
      </trkpt>
      <trkpt lat="41.77822" lon="1.97405">
        <ele>462</ele>
        <time>2022-05-21 00:11:19</time>
      </trkpt>
      <trkpt lat="41.77823" lon="1.97409">
        <ele>462.2</ele>
        <time>2022-05-21 00:11:20</time>
      </trkpt>
      <trkpt lat="41.77825" lon="1.97414">
        <ele>462.4</ele>
        <time>2022-05-21 00:11:21</time>
      </trkpt>
      <trkpt lat="41.77826" lon="1.97418">
        <ele>462.4</ele>
        <time>2022-05-21 00:11:22</time>
      </trkpt>
      <trkpt lat="41.77828" lon="1.97423">
        <ele>462.6</ele>
        <time>2022-05-21 00:11:23</time>
      </trkpt>
      <trkpt lat="41.77829" lon="1.97427">
        <ele>462.8</ele>
        <time>2022-05-21 00:11:24</time>
      </trkpt>
      <trkpt lat="41.77831" lon="1.97432">
        <ele>463</ele>
        <time>2022-05-21 00:11:25</time>
      </trkpt>
      <trkpt lat="41.77832" lon="1.97436">
        <ele>463.2</ele>
        <time>2022-05-21 00:11:26</time>
      </trkpt>
      <trkpt lat="41.77834" lon="1.97441">
        <ele>463.2</ele>
        <time>2022-05-21 00:11:27</time>
      </trkpt>
      <trkpt lat="41.77835" lon="1.97445">
        <ele>463.4</ele>
        <time>2022-05-21 00:11:28</time>
      </trkpt>
      <trkpt lat="41.77836" lon="1.9745">
        <ele>463.6</ele>
        <time>2022-05-21 00:11:29</time>
      </trkpt>
      <trkpt lat="41.77838" lon="1.97454">
        <ele>463.8</ele>
        <time>2022-05-21 00:11:30</time>
      </trkpt>
      <trkpt lat="41.7784" lon="1.97459">
        <ele>463.8</ele>
        <time>2022-05-21 00:11:31</time>
      </trkpt>
      <trkpt lat="41.77841" lon="1.97463">
        <ele>464</ele>
        <time>2022-05-21 00:11:32</time>
      </trkpt>
      <trkpt lat="41.77843" lon="1.97467">
        <ele>464.2</ele>
        <time>2022-05-21 00:11:33</time>
      </trkpt>
      <trkpt lat="41.77845" lon="1.97471">
        <ele>464.4</ele>
        <time>2022-05-21 00:11:34</time>
      </trkpt>
      <trkpt lat="41.77847" lon="1.97476">
        <ele>464.6</ele>
        <time>2022-05-21 00:11:35</time>
      </trkpt>
      <trkpt lat="41.77848" lon="1.9748">
        <ele>464.6</ele>
        <time>2022-05-21 00:11:36</time>
      </trkpt>
      <trkpt lat="41.7785" lon="1.97485">
        <ele>464.8</ele>
        <time>2022-05-21 00:11:37</time>
      </trkpt>
      <trkpt lat="41.77852" lon="1.9749">
        <ele>465</ele>
        <time>2022-05-21 00:11:38</time>
      </trkpt>
      <trkpt lat="41.77854" lon="1.97494">
        <ele>465.2</ele>
        <time>2022-05-21 00:11:39</time>
      </trkpt>
      <trkpt lat="41.77855" lon="1.97499">
        <ele>465.4</ele>
        <time>2022-05-21 00:11:40</time>
      </trkpt>
      <trkpt lat="41.77857" lon="1.97503">
        <ele>465.4</ele>
        <time>2022-05-21 00:11:41</time>
      </trkpt>
      <trkpt lat="41.77859" lon="1.97508">
        <ele>465.6</ele>
        <time>2022-05-21 00:11:42</time>
      </trkpt>
      <trkpt lat="41.77861" lon="1.97512">
        <ele>465.8</ele>
        <time>2022-05-21 00:11:43</time>
      </trkpt>
      <trkpt lat="41.77862" lon="1.97517">
        <ele>465.8</ele>
        <time>2022-05-21 00:11:44</time>
      </trkpt>
      <trkpt lat="41.77863" lon="1.97522">
        <ele>466.2</ele>
        <time>2022-05-21 00:11:45</time>
      </trkpt>
      <trkpt lat="41.77865" lon="1.97527">
        <ele>466.2</ele>
        <time>2022-05-21 00:11:46</time>
      </trkpt>
      <trkpt lat="41.77866" lon="1.97532">
        <ele>466.4</ele>
        <time>2022-05-21 00:11:47</time>
      </trkpt>
      <trkpt lat="41.77868" lon="1.97536">
        <ele>466.4</ele>
        <time>2022-05-21 00:11:48</time>
      </trkpt>
      <trkpt lat="41.7787" lon="1.97541">
        <ele>466.6</ele>
        <time>2022-05-21 00:11:49</time>
      </trkpt>
      <trkpt lat="41.77871" lon="1.97546">
        <ele>466.8</ele>
        <time>2022-05-21 00:11:50</time>
      </trkpt>
      <trkpt lat="41.77873" lon="1.97551">
        <ele>467</ele>
        <time>2022-05-21 00:11:51</time>
      </trkpt>
      <trkpt lat="41.77875" lon="1.97555">
        <ele>467</ele>
        <time>2022-05-21 00:11:52</time>
      </trkpt>
      <trkpt lat="41.77877" lon="1.9756">
        <ele>467.2</ele>
        <time>2022-05-21 00:11:53</time>
      </trkpt>
      <trkpt lat="41.77878" lon="1.97565">
        <ele>467.4</ele>
        <time>2022-05-21 00:11:54</time>
      </trkpt>
      <trkpt lat="41.7788" lon="1.97569">
        <ele>467.4</ele>
        <time>2022-05-21 00:11:55</time>
      </trkpt>
      <trkpt lat="41.77882" lon="1.97574">
        <ele>467.6</ele>
        <time>2022-05-21 00:11:56</time>
      </trkpt>
      <trkpt lat="41.77883" lon="1.97579">
        <ele>467.8</ele>
        <time>2022-05-21 00:11:57</time>
      </trkpt>
      <trkpt lat="41.77885" lon="1.97584">
        <ele>467.8</ele>
        <time>2022-05-21 00:11:58</time>
      </trkpt>
      <trkpt lat="41.77887" lon="1.97588">
        <ele>468</ele>
        <time>2022-05-21 00:11:59</time>
      </trkpt>
      <trkpt lat="41.77888" lon="1.97593">
        <ele>468.2</ele>
        <time>2022-05-21 00:12:00</time>
      </trkpt>
      <trkpt lat="41.7789" lon="1.97598">
        <ele>468.4</ele>
        <time>2022-05-21 00:12:01</time>
      </trkpt>
      <trkpt lat="41.77891" lon="1.97602">
        <ele>468.4</ele>
        <time>2022-05-21 00:12:02</time>
      </trkpt>
      <trkpt lat="41.77893" lon="1.97607">
        <ele>468.6</ele>
        <time>2022-05-21 00:12:03</time>
      </trkpt>
      <trkpt lat="41.77895" lon="1.97611">
        <ele>468.8</ele>
        <time>2022-05-21 00:12:04</time>
      </trkpt>
      <trkpt lat="41.77897" lon="1.97616">
        <ele>469</ele>
        <time>2022-05-21 00:12:05</time>
      </trkpt>
      <trkpt lat="41.77898" lon="1.9762">
        <ele>469.2</ele>
        <time>2022-05-21 00:12:06</time>
      </trkpt>
      <trkpt lat="41.779" lon="1.97625">
        <ele>469.2</ele>
        <time>2022-05-21 00:12:07</time>
      </trkpt>
      <trkpt lat="41.77902" lon="1.9763">
        <ele>469.4</ele>
        <time>2022-05-21 00:12:08</time>
      </trkpt>
      <trkpt lat="41.77903" lon="1.97635">
        <ele>469.6</ele>
        <time>2022-05-21 00:12:09</time>
      </trkpt>
      <trkpt lat="41.77905" lon="1.9764">
        <ele>469.8</ele>
        <time>2022-05-21 00:12:10</time>
      </trkpt>
      <trkpt lat="41.77906" lon="1.97645">
        <ele>469.8</ele>
        <time>2022-05-21 00:12:11</time>
      </trkpt>
      <trkpt lat="41.77908" lon="1.9765">
        <ele>470</ele>
        <time>2022-05-21 00:12:12</time>
      </trkpt>
      <trkpt lat="41.77909" lon="1.97654">
        <ele>470.2</ele>
        <time>2022-05-21 00:12:13</time>
      </trkpt>
      <trkpt lat="41.77911" lon="1.97659">
        <ele>470.4</ele>
        <time>2022-05-21 00:12:14</time>
      </trkpt>
      <trkpt lat="41.77913" lon="1.97664">
        <ele>470.6</ele>
        <time>2022-05-21 00:12:15</time>
      </trkpt>
      <trkpt lat="41.77914" lon="1.97668">
        <ele>470.6</ele>
        <time>2022-05-21 00:12:16</time>
      </trkpt>
      <trkpt lat="41.77916" lon="1.97673">
        <ele>470.8</ele>
        <time>2022-05-21 00:12:17</time>
      </trkpt>
      <trkpt lat="41.77918" lon="1.97678">
        <ele>470.8</ele>
        <time>2022-05-21 00:12:18</time>
      </trkpt>
      <trkpt lat="41.7792" lon="1.97683">
        <ele>471</ele>
        <time>2022-05-21 00:12:19</time>
      </trkpt>
      <trkpt lat="41.77922" lon="1.97688">
        <ele>471</ele>
        <time>2022-05-21 00:12:20</time>
      </trkpt>
      <trkpt lat="41.77924" lon="1.97693">
        <ele>471.2</ele>
        <time>2022-05-21 00:12:21</time>
      </trkpt>
      <trkpt lat="41.77925" lon="1.97698">
        <ele>471.2</ele>
        <time>2022-05-21 00:12:22</time>
      </trkpt>
      <trkpt lat="41.77927" lon="1.97703">
        <ele>471.4</ele>
        <time>2022-05-21 00:12:23</time>
      </trkpt>
      <trkpt lat="41.77929" lon="1.97708">
        <ele>471.4</ele>
        <time>2022-05-21 00:12:24</time>
      </trkpt>
      <trkpt lat="41.77931" lon="1.97713">
        <ele>471.6</ele>
        <time>2022-05-21 00:12:25</time>
      </trkpt>
      <trkpt lat="41.77933" lon="1.97719">
        <ele>471.6</ele>
        <time>2022-05-21 00:12:26</time>
      </trkpt>
      <trkpt lat="41.77935" lon="1.97724">
        <ele>471.8</ele>
        <time>2022-05-21 00:12:27</time>
      </trkpt>
      <trkpt lat="41.77937" lon="1.97729">
        <ele>471.8</ele>
        <time>2022-05-21 00:12:28</time>
      </trkpt>
      <trkpt lat="41.77939" lon="1.97735">
        <ele>471.8</ele>
        <time>2022-05-21 00:12:29</time>
      </trkpt>
      <trkpt lat="41.77941" lon="1.9774">
        <ele>471.8</ele>
        <time>2022-05-21 00:12:30</time>
      </trkpt>
      <trkpt lat="41.77943" lon="1.97745">
        <ele>472</ele>
        <time>2022-05-21 00:12:31</time>
      </trkpt>
      <trkpt lat="41.77945" lon="1.97751">
        <ele>472</ele>
        <time>2022-05-21 00:12:32</time>
      </trkpt>
      <trkpt lat="41.77946" lon="1.97756">
        <ele>472</ele>
        <time>2022-05-21 00:12:33</time>
      </trkpt>
      <trkpt lat="41.77948" lon="1.9776">
        <ele>472.2</ele>
        <time>2022-05-21 00:12:34</time>
      </trkpt>
      <trkpt lat="41.7795" lon="1.97764">
        <ele>472.2</ele>
        <time>2022-05-21 00:12:35</time>
      </trkpt>
      <trkpt lat="41.77952" lon="1.97773">
        <ele>472.4</ele>
        <time>2022-05-21 00:12:36</time>
      </trkpt>
      <trkpt lat="41.77954" lon="1.97778">
        <ele>472.4</ele>
        <time>2022-05-21 00:12:37</time>
      </trkpt>
      <trkpt lat="41.77956" lon="1.97783">
        <ele>472.4</ele>
        <time>2022-05-21 00:12:38</time>
      </trkpt>
      <trkpt lat="41.77958" lon="1.97788">
        <ele>472.6</ele>
        <time>2022-05-21 00:12:39</time>
      </trkpt>
      <trkpt lat="41.77959" lon="1.97794">
        <ele>472.6</ele>
        <time>2022-05-21 00:12:40</time>
      </trkpt>
      <trkpt lat="41.77961" lon="1.978">
        <ele>472.8</ele>
        <time>2022-05-21 00:12:41</time>
      </trkpt>
      <trkpt lat="41.77963" lon="1.97805">
        <ele>472.8</ele>
        <time>2022-05-21 00:12:42</time>
      </trkpt>
      <trkpt lat="41.77965" lon="1.9781">
        <ele>473</ele>
        <time>2022-05-21 00:12:43</time>
      </trkpt>
      <trkpt lat="41.77967" lon="1.97816">
        <ele>473</ele>
        <time>2022-05-21 00:12:44</time>
      </trkpt>
      <trkpt lat="41.77969" lon="1.97821">
        <ele>473</ele>
        <time>2022-05-21 00:12:45</time>
      </trkpt>
      <trkpt lat="41.77971" lon="1.97827">
        <ele>473.2</ele>
        <time>2022-05-21 00:12:46</time>
      </trkpt>
      <trkpt lat="41.77973" lon="1.97833">
        <ele>473.4</ele>
        <time>2022-05-21 00:12:47</time>
      </trkpt>
      <trkpt lat="41.77975" lon="1.97838">
        <ele>473.4</ele>
        <time>2022-05-21 00:12:48</time>
      </trkpt>
      <trkpt lat="41.77977" lon="1.97844">
        <ele>473.6</ele>
        <time>2022-05-21 00:12:49</time>
      </trkpt>
      <trkpt lat="41.77979" lon="1.9785">
        <ele>473.6</ele>
        <time>2022-05-21 00:12:50</time>
      </trkpt>
      <trkpt lat="41.7798" lon="1.97855">
        <ele>473.8</ele>
        <time>2022-05-21 00:12:51</time>
      </trkpt>
      <trkpt lat="41.77982" lon="1.97861">
        <ele>473.8</ele>
        <time>2022-05-21 00:12:52</time>
      </trkpt>
      <trkpt lat="41.77984" lon="1.97867">
        <ele>474</ele>
        <time>2022-05-21 00:12:53</time>
      </trkpt>
      <trkpt lat="41.77986" lon="1.97872">
        <ele>474.2</ele>
        <time>2022-05-21 00:12:54</time>
      </trkpt>
      <trkpt lat="41.77988" lon="1.97877">
        <ele>474.4</ele>
        <time>2022-05-21 00:12:55</time>
      </trkpt>
      <trkpt lat="41.7799" lon="1.97883">
        <ele>474.6</ele>
        <time>2022-05-21 00:12:56</time>
      </trkpt>
      <trkpt lat="41.77992" lon="1.97888">
        <ele>474.6</ele>
        <time>2022-05-21 00:12:57</time>
      </trkpt>
      <trkpt lat="41.77994" lon="1.97894">
        <ele>474.8</ele>
        <time>2022-05-21 00:12:58</time>
      </trkpt>
      <trkpt lat="41.77995" lon="1.97899">
        <ele>475</ele>
        <time>2022-05-21 00:12:59</time>
      </trkpt>
      <trkpt lat="41.77997" lon="1.97904">
        <ele>475</ele>
        <time>2022-05-21 00:13:00</time>
      </trkpt>
      <trkpt lat="41.78" lon="1.97909">
        <ele>475.2</ele>
        <time>2022-05-21 00:13:01</time>
      </trkpt>
      <trkpt lat="41.78001" lon="1.97914">
        <ele>475.4</ele>
        <time>2022-05-21 00:13:02</time>
      </trkpt>
      <trkpt lat="41.78003" lon="1.97919">
        <ele>475.6</ele>
        <time>2022-05-21 00:13:03</time>
      </trkpt>
      <trkpt lat="41.78005" lon="1.97923">
        <ele>475.8</ele>
        <time>2022-05-21 00:13:04</time>
      </trkpt>
      <trkpt lat="41.78006" lon="1.97928">
        <ele>476</ele>
        <time>2022-05-21 00:13:05</time>
      </trkpt>
      <trkpt lat="41.78008" lon="1.97933">
        <ele>476.2</ele>
        <time>2022-05-21 00:13:06</time>
      </trkpt>
      <trkpt lat="41.78009" lon="1.97938">
        <ele>476.2</ele>
        <time>2022-05-21 00:13:07</time>
      </trkpt>
      <trkpt lat="41.78011" lon="1.97943">
        <ele>476.4</ele>
        <time>2022-05-21 00:13:08</time>
      </trkpt>
      <trkpt lat="41.78012" lon="1.97948">
        <ele>476.6</ele>
        <time>2022-05-21 00:13:09</time>
      </trkpt>
      <trkpt lat="41.78014" lon="1.97953">
        <ele>476.8</ele>
        <time>2022-05-21 00:13:10</time>
      </trkpt>
      <trkpt lat="41.78015" lon="1.97958">
        <ele>477</ele>
        <time>2022-05-21 00:13:11</time>
      </trkpt>
      <trkpt lat="41.78017" lon="1.97962">
        <ele>477.2</ele>
        <time>2022-05-21 00:13:12</time>
      </trkpt>
      <trkpt lat="41.78019" lon="1.97967">
        <ele>477.2</ele>
        <time>2022-05-21 00:13:13</time>
      </trkpt>
      <trkpt lat="41.7802" lon="1.97971">
        <ele>477.4</ele>
        <time>2022-05-21 00:13:14</time>
      </trkpt>
      <trkpt lat="41.78022" lon="1.97976">
        <ele>477.4</ele>
        <time>2022-05-21 00:13:15</time>
      </trkpt>
      <trkpt lat="41.78024" lon="1.97981">
        <ele>477.6</ele>
        <time>2022-05-21 00:13:16</time>
      </trkpt>
      <trkpt lat="41.78025" lon="1.97986">
        <ele>477.8</ele>
        <time>2022-05-21 00:13:17</time>
      </trkpt>
      <trkpt lat="41.78027" lon="1.9799">
        <ele>477.8</ele>
        <time>2022-05-21 00:13:18</time>
      </trkpt>
      <trkpt lat="41.78029" lon="1.97996">
        <ele>478</ele>
        <time>2022-05-21 00:13:19</time>
      </trkpt>
      <trkpt lat="41.78031" lon="1.98001">
        <ele>478.2</ele>
        <time>2022-05-21 00:13:20</time>
      </trkpt>
      <trkpt lat="41.78033" lon="1.98005">
        <ele>478.4</ele>
        <time>2022-05-21 00:13:21</time>
      </trkpt>
      <trkpt lat="41.78035" lon="1.9801">
        <ele>478.6</ele>
        <time>2022-05-21 00:13:22</time>
      </trkpt>
      <trkpt lat="41.78037" lon="1.98014">
        <ele>478.8</ele>
        <time>2022-05-21 00:13:23</time>
      </trkpt>
      <trkpt lat="41.78039" lon="1.98019">
        <ele>479</ele>
        <time>2022-05-21 00:13:24</time>
      </trkpt>
      <trkpt lat="41.7804" lon="1.98024">
        <ele>479.2</ele>
        <time>2022-05-21 00:13:25</time>
      </trkpt>
      <trkpt lat="41.78042" lon="1.98029">
        <ele>479.4</ele>
        <time>2022-05-21 00:13:26</time>
      </trkpt>
      <trkpt lat="41.78043" lon="1.98034">
        <ele>479.6</ele>
        <time>2022-05-21 00:13:27</time>
      </trkpt>
      <trkpt lat="41.78045" lon="1.98039">
        <ele>479.8</ele>
        <time>2022-05-21 00:13:28</time>
      </trkpt>
      <trkpt lat="41.78046" lon="1.98044">
        <ele>480</ele>
        <time>2022-05-21 00:13:29</time>
      </trkpt>
      <trkpt lat="41.78048" lon="1.98049">
        <ele>480.2</ele>
        <time>2022-05-21 00:13:30</time>
      </trkpt>
      <trkpt lat="41.7805" lon="1.98054">
        <ele>480.4</ele>
        <time>2022-05-21 00:13:31</time>
      </trkpt>
      <trkpt lat="41.78051" lon="1.98059">
        <ele>480.6</ele>
        <time>2022-05-21 00:13:32</time>
      </trkpt>
      <trkpt lat="41.78053" lon="1.98064">
        <ele>480.8</ele>
        <time>2022-05-21 00:13:33</time>
      </trkpt>
      <trkpt lat="41.78055" lon="1.98069">
        <ele>481</ele>
        <time>2022-05-21 00:13:34</time>
      </trkpt>
      <trkpt lat="41.78056" lon="1.98074">
        <ele>481</ele>
        <time>2022-05-21 00:13:35</time>
      </trkpt>
      <trkpt lat="41.78058" lon="1.98079">
        <ele>481.2</ele>
        <time>2022-05-21 00:13:36</time>
      </trkpt>
      <trkpt lat="41.7806" lon="1.98084">
        <ele>481.4</ele>
        <time>2022-05-21 00:13:37</time>
      </trkpt>
      <trkpt lat="41.78062" lon="1.98088">
        <ele>481.6</ele>
        <time>2022-05-21 00:13:38</time>
      </trkpt>
      <trkpt lat="41.78063" lon="1.98093">
        <ele>481.6</ele>
        <time>2022-05-21 00:13:39</time>
      </trkpt>
      <trkpt lat="41.78065" lon="1.98098">
        <ele>481.8</ele>
        <time>2022-05-21 00:13:40</time>
      </trkpt>
      <trkpt lat="41.78067" lon="1.98102">
        <ele>482</ele>
        <time>2022-05-21 00:13:41</time>
      </trkpt>
      <trkpt lat="41.78069" lon="1.98107">
        <ele>482</ele>
        <time>2022-05-21 00:13:42</time>
      </trkpt>
      <trkpt lat="41.7807" lon="1.98112">
        <ele>482.2</ele>
        <time>2022-05-21 00:13:43</time>
      </trkpt>
      <trkpt lat="41.78072" lon="1.98117">
        <ele>482.4</ele>
        <time>2022-05-21 00:13:44</time>
      </trkpt>
      <trkpt lat="41.78074" lon="1.98121">
        <ele>482.4</ele>
        <time>2022-05-21 00:13:45</time>
      </trkpt>
      <trkpt lat="41.78075" lon="1.98126">
        <ele>482.6</ele>
        <time>2022-05-21 00:13:46</time>
      </trkpt>
      <trkpt lat="41.78077" lon="1.98131">
        <ele>482.8</ele>
        <time>2022-05-21 00:13:47</time>
      </trkpt>
      <trkpt lat="41.78079" lon="1.98135">
        <ele>483</ele>
        <time>2022-05-21 00:13:48</time>
      </trkpt>
      <trkpt lat="41.78081" lon="1.9814">
        <ele>483</ele>
        <time>2022-05-21 00:13:49</time>
      </trkpt>
      <trkpt lat="41.78082" lon="1.98145">
        <ele>483.2</ele>
        <time>2022-05-21 00:13:50</time>
      </trkpt>
      <trkpt lat="41.78084" lon="1.9815">
        <ele>483.4</ele>
        <time>2022-05-21 00:13:51</time>
      </trkpt>
      <trkpt lat="41.78086" lon="1.98155">
        <ele>483.6</ele>
        <time>2022-05-21 00:13:52</time>
      </trkpt>
      <trkpt lat="41.78087" lon="1.98159">
        <ele>483.8</ele>
        <time>2022-05-21 00:13:53</time>
      </trkpt>
      <trkpt lat="41.78089" lon="1.98164">
        <ele>483.8</ele>
        <time>2022-05-21 00:13:54</time>
      </trkpt>
      <trkpt lat="41.7809" lon="1.98169">
        <ele>484</ele>
        <time>2022-05-21 00:13:55</time>
      </trkpt>
      <trkpt lat="41.78092" lon="1.98174">
        <ele>484.2</ele>
        <time>2022-05-21 00:13:56</time>
      </trkpt>
      <trkpt lat="41.78093" lon="1.98179">
        <ele>484.4</ele>
        <time>2022-05-21 00:13:57</time>
      </trkpt>
      <trkpt lat="41.78095" lon="1.98184">
        <ele>484.4</ele>
        <time>2022-05-21 00:13:58</time>
      </trkpt>
      <trkpt lat="41.78096" lon="1.98188">
        <ele>484.6</ele>
        <time>2022-05-21 00:13:59</time>
      </trkpt>
      <trkpt lat="41.78098" lon="1.98193">
        <ele>484.8</ele>
        <time>2022-05-21 00:14:00</time>
      </trkpt>
      <trkpt lat="41.78099" lon="1.98198">
        <ele>485</ele>
        <time>2022-05-21 00:14:01</time>
      </trkpt>
      <trkpt lat="41.78101" lon="1.98203">
        <ele>485.2</ele>
        <time>2022-05-21 00:14:02</time>
      </trkpt>
      <trkpt lat="41.78102" lon="1.98208">
        <ele>485.2</ele>
        <time>2022-05-21 00:14:03</time>
      </trkpt>
      <trkpt lat="41.78104" lon="1.98213">
        <ele>485.4</ele>
        <time>2022-05-21 00:14:04</time>
      </trkpt>
      <trkpt lat="41.78106" lon="1.98217">
        <ele>485.6</ele>
        <time>2022-05-21 00:14:05</time>
      </trkpt>
      <trkpt lat="41.78107" lon="1.98222">
        <ele>485.8</ele>
        <time>2022-05-21 00:14:06</time>
      </trkpt>
      <trkpt lat="41.78109" lon="1.98227">
        <ele>485.8</ele>
        <time>2022-05-21 00:14:07</time>
      </trkpt>
      <trkpt lat="41.78111" lon="1.98231">
        <ele>486</ele>
        <time>2022-05-21 00:14:08</time>
      </trkpt>
      <trkpt lat="41.78112" lon="1.98236">
        <ele>486.2</ele>
        <time>2022-05-21 00:14:09</time>
      </trkpt>
      <trkpt lat="41.78115" lon="1.98241">
        <ele>486.4</ele>
        <time>2022-05-21 00:14:10</time>
      </trkpt>
      <trkpt lat="41.78117" lon="1.98246">
        <ele>486.6</ele>
        <time>2022-05-21 00:14:11</time>
      </trkpt>
      <trkpt lat="41.78118" lon="1.9825">
        <ele>486.8</ele>
        <time>2022-05-21 00:14:12</time>
      </trkpt>
      <trkpt lat="41.7812" lon="1.98255">
        <ele>486.8</ele>
        <time>2022-05-21 00:14:13</time>
      </trkpt>
      <trkpt lat="41.78122" lon="1.9826">
        <ele>487</ele>
        <time>2022-05-21 00:14:14</time>
      </trkpt>
      <trkpt lat="41.78123" lon="1.98265">
        <ele>487.2</ele>
        <time>2022-05-21 00:14:15</time>
      </trkpt>
      <trkpt lat="41.78125" lon="1.9827">
        <ele>487.4</ele>
        <time>2022-05-21 00:14:16</time>
      </trkpt>
      <trkpt lat="41.78126" lon="1.98275">
        <ele>487.6</ele>
        <time>2022-05-21 00:14:17</time>
      </trkpt>
      <trkpt lat="41.78128" lon="1.98279">
        <ele>487.8</ele>
        <time>2022-05-21 00:14:18</time>
      </trkpt>
      <trkpt lat="41.7813" lon="1.98284">
        <ele>487.8</ele>
        <time>2022-05-21 00:14:19</time>
      </trkpt>
      <trkpt lat="41.78131" lon="1.98288">
        <ele>488</ele>
        <time>2022-05-21 00:14:20</time>
      </trkpt>
      <trkpt lat="41.78133" lon="1.98293">
        <ele>488.2</ele>
        <time>2022-05-21 00:14:21</time>
      </trkpt>
      <trkpt lat="41.78135" lon="1.98298">
        <ele>488.4</ele>
        <time>2022-05-21 00:14:22</time>
      </trkpt>
      <trkpt lat="41.78136" lon="1.98302">
        <ele>488.6</ele>
        <time>2022-05-21 00:14:23</time>
      </trkpt>
      <trkpt lat="41.78137" lon="1.98307">
        <ele>488.6</ele>
        <time>2022-05-21 00:14:24</time>
      </trkpt>
      <trkpt lat="41.78139" lon="1.98312">
        <ele>488.8</ele>
        <time>2022-05-21 00:14:25</time>
      </trkpt>
      <trkpt lat="41.78141" lon="1.98317">
        <ele>489</ele>
        <time>2022-05-21 00:14:26</time>
      </trkpt>
      <trkpt lat="41.78143" lon="1.98321">
        <ele>489</ele>
        <time>2022-05-21 00:14:27</time>
      </trkpt>
      <trkpt lat="41.78144" lon="1.98326">
        <ele>489.2</ele>
        <time>2022-05-21 00:14:28</time>
      </trkpt>
      <trkpt lat="41.78146" lon="1.9833">
        <ele>489.4</ele>
        <time>2022-05-21 00:14:29</time>
      </trkpt>
      <trkpt lat="41.78148" lon="1.98335">
        <ele>489.6</ele>
        <time>2022-05-21 00:14:30</time>
      </trkpt>
      <trkpt lat="41.78149" lon="1.98339">
        <ele>489.8</ele>
        <time>2022-05-21 00:14:31</time>
      </trkpt>
      <trkpt lat="41.78151" lon="1.98343">
        <ele>490</ele>
        <time>2022-05-21 00:14:32</time>
      </trkpt>
      <trkpt lat="41.78152" lon="1.98347">
        <ele>490.2</ele>
        <time>2022-05-21 00:14:33</time>
      </trkpt>
      <trkpt lat="41.78153" lon="1.98352">
        <ele>490.2</ele>
        <time>2022-05-21 00:14:34</time>
      </trkpt>
      <trkpt lat="41.78155" lon="1.98356">
        <ele>490.4</ele>
        <time>2022-05-21 00:14:35</time>
      </trkpt>
      <trkpt lat="41.78156" lon="1.98359">
        <ele>490.6</ele>
        <time>2022-05-21 00:14:36</time>
      </trkpt>
      <trkpt lat="41.78158" lon="1.98363">
        <ele>490.8</ele>
        <time>2022-05-21 00:14:37</time>
      </trkpt>
      <trkpt lat="41.7816" lon="1.98368">
        <ele>490.8</ele>
        <time>2022-05-21 00:14:38</time>
      </trkpt>
      <trkpt lat="41.78161" lon="1.98372">
        <ele>491</ele>
        <time>2022-05-21 00:14:39</time>
      </trkpt>
      <trkpt lat="41.78163" lon="1.98376">
        <ele>491.2</ele>
        <time>2022-05-21 00:14:40</time>
      </trkpt>
      <trkpt lat="41.78164" lon="1.98381">
        <ele>491.2</ele>
        <time>2022-05-21 00:14:41</time>
      </trkpt>
      <trkpt lat="41.78165" lon="1.98385">
        <ele>491.4</ele>
        <time>2022-05-21 00:14:42</time>
      </trkpt>
      <trkpt lat="41.78167" lon="1.9839">
        <ele>491.6</ele>
        <time>2022-05-21 00:14:43</time>
      </trkpt>
      <trkpt lat="41.78168" lon="1.98395">
        <ele>491.8</ele>
        <time>2022-05-21 00:14:44</time>
      </trkpt>
      <trkpt lat="41.7817" lon="1.984">
        <ele>491.8</ele>
        <time>2022-05-21 00:14:45</time>
      </trkpt>
      <trkpt lat="41.78172" lon="1.98405">
        <ele>492</ele>
        <time>2022-05-21 00:14:46</time>
      </trkpt>
      <trkpt lat="41.78174" lon="1.9841">
        <ele>492</ele>
        <time>2022-05-21 00:14:47</time>
      </trkpt>
      <trkpt lat="41.78176" lon="1.98415">
        <ele>492.2</ele>
        <time>2022-05-21 00:14:48</time>
      </trkpt>
      <trkpt lat="41.78178" lon="1.98419">
        <ele>492.2</ele>
        <time>2022-05-21 00:14:49</time>
      </trkpt>
      <trkpt lat="41.7818" lon="1.98423">
        <ele>492.4</ele>
        <time>2022-05-21 00:14:50</time>
      </trkpt>
      <trkpt lat="41.78182" lon="1.98428">
        <ele>492.6</ele>
        <time>2022-05-21 00:14:51</time>
      </trkpt>
      <trkpt lat="41.78184" lon="1.98432">
        <ele>492.8</ele>
        <time>2022-05-21 00:14:52</time>
      </trkpt>
      <trkpt lat="41.78186" lon="1.98437">
        <ele>493</ele>
        <time>2022-05-21 00:14:53</time>
      </trkpt>
      <trkpt lat="41.78187" lon="1.98442">
        <ele>493</ele>
        <time>2022-05-21 00:14:54</time>
      </trkpt>
      <trkpt lat="41.78188" lon="1.98447">
        <ele>493.2</ele>
        <time>2022-05-21 00:14:55</time>
      </trkpt>
      <trkpt lat="41.7819" lon="1.98452">
        <ele>493.4</ele>
        <time>2022-05-21 00:14:56</time>
      </trkpt>
      <trkpt lat="41.78191" lon="1.98456">
        <ele>493.4</ele>
        <time>2022-05-21 00:14:57</time>
      </trkpt>
      <trkpt lat="41.78193" lon="1.98461">
        <ele>493.6</ele>
        <time>2022-05-21 00:14:58</time>
      </trkpt>
      <trkpt lat="41.78195" lon="1.98466">
        <ele>493.6</ele>
        <time>2022-05-21 00:14:59</time>
      </trkpt>
      <trkpt lat="41.78197" lon="1.98471">
        <ele>493.8</ele>
        <time>2022-05-21 00:15:00</time>
      </trkpt>
      <trkpt lat="41.78198" lon="1.98475">
        <ele>494</ele>
        <time>2022-05-21 00:15:01</time>
      </trkpt>
      <trkpt lat="41.782" lon="1.9848">
        <ele>494.2</ele>
        <time>2022-05-21 00:15:02</time>
      </trkpt>
      <trkpt lat="41.78202" lon="1.98484">
        <ele>494.2</ele>
        <time>2022-05-21 00:15:03</time>
      </trkpt>
      <trkpt lat="41.78204" lon="1.98489">
        <ele>494.4</ele>
        <time>2022-05-21 00:15:04</time>
      </trkpt>
      <trkpt lat="41.78205" lon="1.98493">
        <ele>494.6</ele>
        <time>2022-05-21 00:15:05</time>
      </trkpt>
      <trkpt lat="41.78207" lon="1.98498">
        <ele>494.8</ele>
        <time>2022-05-21 00:15:06</time>
      </trkpt>
      <trkpt lat="41.78209" lon="1.98502">
        <ele>495</ele>
        <time>2022-05-21 00:15:07</time>
      </trkpt>
      <trkpt lat="41.7821" lon="1.98506">
        <ele>495.2</ele>
        <time>2022-05-21 00:15:08</time>
      </trkpt>
      <trkpt lat="41.78212" lon="1.98511">
        <ele>495.2</ele>
        <time>2022-05-21 00:15:09</time>
      </trkpt>
      <trkpt lat="41.78214" lon="1.98515">
        <ele>495.4</ele>
        <time>2022-05-21 00:15:10</time>
      </trkpt>
      <trkpt lat="41.78216" lon="1.98519">
        <ele>495.6</ele>
        <time>2022-05-21 00:15:11</time>
      </trkpt>
      <trkpt lat="41.78218" lon="1.98523">
        <ele>495.8</ele>
        <time>2022-05-21 00:15:12</time>
      </trkpt>
      <trkpt lat="41.78221" lon="1.98527">
        <ele>495.8</ele>
        <time>2022-05-21 00:15:13</time>
      </trkpt>
      <trkpt lat="41.78223" lon="1.98531">
        <ele>496</ele>
        <time>2022-05-21 00:15:14</time>
      </trkpt>
      <trkpt lat="41.78226" lon="1.98534">
        <ele>496.2</ele>
        <time>2022-05-21 00:15:15</time>
      </trkpt>
      <trkpt lat="41.78228" lon="1.98538">
        <ele>496.4</ele>
        <time>2022-05-21 00:15:16</time>
      </trkpt>
      <trkpt lat="41.78231" lon="1.98542">
        <ele>496.4</ele>
        <time>2022-05-21 00:15:17</time>
      </trkpt>
      <trkpt lat="41.78233" lon="1.98545">
        <ele>496.6</ele>
        <time>2022-05-21 00:15:18</time>
      </trkpt>
      <trkpt lat="41.78236" lon="1.98549">
        <ele>496.8</ele>
        <time>2022-05-21 00:15:19</time>
      </trkpt>
      <trkpt lat="41.78239" lon="1.98552">
        <ele>496.8</ele>
        <time>2022-05-21 00:15:20</time>
      </trkpt>
      <trkpt lat="41.78242" lon="1.98555">
        <ele>497</ele>
        <time>2022-05-21 00:15:21</time>
      </trkpt>
      <trkpt lat="41.78245" lon="1.98558">
        <ele>497</ele>
        <time>2022-05-21 00:15:22</time>
      </trkpt>
      <trkpt lat="41.78249" lon="1.98561">
        <ele>497.2</ele>
        <time>2022-05-21 00:15:23</time>
      </trkpt>
      <trkpt lat="41.78252" lon="1.98564">
        <ele>497.4</ele>
        <time>2022-05-21 00:15:24</time>
      </trkpt>
      <trkpt lat="41.78255" lon="1.98567">
        <ele>497.4</ele>
        <time>2022-05-21 00:15:25</time>
      </trkpt>
      <trkpt lat="41.78259" lon="1.98569">
        <ele>497.6</ele>
        <time>2022-05-21 00:15:26</time>
      </trkpt>
      <trkpt lat="41.78262" lon="1.98572">
        <ele>497.8</ele>
        <time>2022-05-21 00:15:27</time>
      </trkpt>
      <trkpt lat="41.78265" lon="1.98574">
        <ele>497.8</ele>
        <time>2022-05-21 00:15:28</time>
      </trkpt>
      <trkpt lat="41.7827" lon="1.98576">
        <ele>498</ele>
        <time>2022-05-21 00:15:29</time>
      </trkpt>
      <trkpt lat="41.78273" lon="1.98578">
        <ele>498.2</ele>
        <time>2022-05-21 00:15:30</time>
      </trkpt>
      <trkpt lat="41.78277" lon="1.9858">
        <ele>498.2</ele>
        <time>2022-05-21 00:15:31</time>
      </trkpt>
      <trkpt lat="41.7828" lon="1.98582">
        <ele>498.4</ele>
        <time>2022-05-21 00:15:32</time>
      </trkpt>
      <trkpt lat="41.78283" lon="1.98584">
        <ele>498.4</ele>
        <time>2022-05-21 00:15:33</time>
      </trkpt>
      <trkpt lat="41.78286" lon="1.98586">
        <ele>498.6</ele>
        <time>2022-05-21 00:15:34</time>
      </trkpt>
      <trkpt lat="41.78291" lon="1.98589">
        <ele>498.8</ele>
        <time>2022-05-21 00:15:35</time>
      </trkpt>
      <trkpt lat="41.78294" lon="1.98591">
        <ele>499</ele>
        <time>2022-05-21 00:15:36</time>
      </trkpt>
      <trkpt lat="41.78298" lon="1.98593">
        <ele>499.2</ele>
        <time>2022-05-21 00:15:37</time>
      </trkpt>
      <trkpt lat="41.78302" lon="1.98595">
        <ele>499.2</ele>
        <time>2022-05-21 00:15:38</time>
      </trkpt>
      <trkpt lat="41.78305" lon="1.98597">
        <ele>499.4</ele>
        <time>2022-05-21 00:15:39</time>
      </trkpt>
      <trkpt lat="41.78309" lon="1.98598">
        <ele>499.6</ele>
        <time>2022-05-21 00:15:40</time>
      </trkpt>
      <trkpt lat="41.78312" lon="1.98599">
        <ele>499.8</ele>
        <time>2022-05-21 00:15:41</time>
      </trkpt>
      <trkpt lat="41.78317" lon="1.986">
        <ele>500</ele>
        <time>2022-05-21 00:15:42</time>
      </trkpt>
      <trkpt lat="41.78321" lon="1.986">
        <ele>500</ele>
        <time>2022-05-21 00:15:43</time>
      </trkpt>
      <trkpt lat="41.78325" lon="1.98601">
        <ele>500.2</ele>
        <time>2022-05-21 00:15:44</time>
      </trkpt>
      <trkpt lat="41.78329" lon="1.986">
        <ele>500.4</ele>
        <time>2022-05-21 00:15:45</time>
      </trkpt>
      <trkpt lat="41.78333" lon="1.98599">
        <ele>500.6</ele>
        <time>2022-05-21 00:15:46</time>
      </trkpt>
      <trkpt lat="41.78337" lon="1.98598">
        <ele>500.6</ele>
        <time>2022-05-21 00:15:47</time>
      </trkpt>
      <trkpt lat="41.78341" lon="1.98597">
        <ele>500.8</ele>
        <time>2022-05-21 00:15:48</time>
      </trkpt>
      <trkpt lat="41.78345" lon="1.98595">
        <ele>501</ele>
        <time>2022-05-21 00:15:49</time>
      </trkpt>
      <trkpt lat="41.78349" lon="1.98594">
        <ele>501.2</ele>
        <time>2022-05-21 00:15:50</time>
      </trkpt>
      <trkpt lat="41.78352" lon="1.98592">
        <ele>501.4</ele>
        <time>2022-05-21 00:15:51</time>
      </trkpt>
      <trkpt lat="41.78357" lon="1.98591">
        <ele>501.4</ele>
        <time>2022-05-21 00:15:52</time>
      </trkpt>
      <trkpt lat="41.7836" lon="1.9859">
        <ele>501.6</ele>
        <time>2022-05-21 00:15:53</time>
      </trkpt>
      <trkpt lat="41.78365" lon="1.98588">
        <ele>501.8</ele>
        <time>2022-05-21 00:15:54</time>
      </trkpt>
      <trkpt lat="41.78369" lon="1.98587">
        <ele>501.8</ele>
        <time>2022-05-21 00:15:55</time>
      </trkpt>
      <trkpt lat="41.78373" lon="1.98585">
        <ele>502</ele>
        <time>2022-05-21 00:15:56</time>
      </trkpt>
      <trkpt lat="41.78377" lon="1.98584">
        <ele>502.2</ele>
        <time>2022-05-21 00:15:57</time>
      </trkpt>
      <trkpt lat="41.78381" lon="1.98582">
        <ele>502.2</ele>
        <time>2022-05-21 00:15:58</time>
      </trkpt>
      <trkpt lat="41.78386" lon="1.98582">
        <ele>502.4</ele>
        <time>2022-05-21 00:15:59</time>
      </trkpt>
      <trkpt lat="41.7839" lon="1.98582">
        <ele>502.4</ele>
        <time>2022-05-21 00:16:00</time>
      </trkpt>
      <trkpt lat="41.78394" lon="1.98583">
        <ele>502.6</ele>
        <time>2022-05-21 00:16:01</time>
      </trkpt>
      <trkpt lat="41.78397" lon="1.98586">
        <ele>502.6</ele>
        <time>2022-05-21 00:16:02</time>
      </trkpt>
      <trkpt lat="41.78401" lon="1.98589">
        <ele>502.8</ele>
        <time>2022-05-21 00:16:03</time>
      </trkpt>
      <trkpt lat="41.78405" lon="1.98593">
        <ele>502.8</ele>
        <time>2022-05-21 00:16:04</time>
      </trkpt>
      <trkpt lat="41.78407" lon="1.98597">
        <ele>503</ele>
        <time>2022-05-21 00:16:05</time>
      </trkpt>
      <trkpt lat="41.7841" lon="1.98601">
        <ele>503.2</ele>
        <time>2022-05-21 00:16:06</time>
      </trkpt>
      <trkpt lat="41.78413" lon="1.98606">
        <ele>503.4</ele>
        <time>2022-05-21 00:16:07</time>
      </trkpt>
      <trkpt lat="41.78416" lon="1.9861">
        <ele>503.6</ele>
        <time>2022-05-21 00:16:08</time>
      </trkpt>
      <trkpt lat="41.78419" lon="1.98614">
        <ele>503.6</ele>
        <time>2022-05-21 00:16:09</time>
      </trkpt>
      <trkpt lat="41.78423" lon="1.98617">
        <ele>503.8</ele>
        <time>2022-05-21 00:16:10</time>
      </trkpt>
      <trkpt lat="41.78426" lon="1.9862">
        <ele>504</ele>
        <time>2022-05-21 00:16:11</time>
      </trkpt>
      <trkpt lat="41.78429" lon="1.98623">
        <ele>504.2</ele>
        <time>2022-05-21 00:16:12</time>
      </trkpt>
      <trkpt lat="41.78434" lon="1.98626">
        <ele>504.2</ele>
        <time>2022-05-21 00:16:13</time>
      </trkpt>
      <trkpt lat="41.78438" lon="1.98628">
        <ele>504.4</ele>
        <time>2022-05-21 00:16:14</time>
      </trkpt>
      <trkpt lat="41.78442" lon="1.98629">
        <ele>504.6</ele>
        <time>2022-05-21 00:16:15</time>
      </trkpt>
      <trkpt lat="41.78447" lon="1.98631">
        <ele>504.8</ele>
        <time>2022-05-21 00:16:16</time>
      </trkpt>
      <trkpt lat="41.78451" lon="1.98632">
        <ele>505</ele>
        <time>2022-05-21 00:16:17</time>
      </trkpt>
      <trkpt lat="41.78456" lon="1.98634">
        <ele>505.2</ele>
        <time>2022-05-21 00:16:18</time>
      </trkpt>
      <trkpt lat="41.7846" lon="1.98635">
        <ele>505.4</ele>
        <time>2022-05-21 00:16:19</time>
      </trkpt>
      <trkpt lat="41.78465" lon="1.98636">
        <ele>505.6</ele>
        <time>2022-05-21 00:16:20</time>
      </trkpt>
      <trkpt lat="41.7847" lon="1.98636">
        <ele>505.6</ele>
        <time>2022-05-21 00:16:21</time>
      </trkpt>
      <trkpt lat="41.78474" lon="1.98637">
        <ele>505.8</ele>
        <time>2022-05-21 00:16:22</time>
      </trkpt>
      <trkpt lat="41.78479" lon="1.98636">
        <ele>506</ele>
        <time>2022-05-21 00:16:23</time>
      </trkpt>
      <trkpt lat="41.78484" lon="1.98635">
        <ele>506.2</ele>
        <time>2022-05-21 00:16:24</time>
      </trkpt>
      <trkpt lat="41.78489" lon="1.98633">
        <ele>506.2</ele>
        <time>2022-05-21 00:16:25</time>
      </trkpt>
      <trkpt lat="41.78493" lon="1.98631">
        <ele>506.4</ele>
        <time>2022-05-21 00:16:26</time>
      </trkpt>
      <trkpt lat="41.78498" lon="1.98628">
        <ele>506.6</ele>
        <time>2022-05-21 00:16:27</time>
      </trkpt>
      <trkpt lat="41.78502" lon="1.98625">
        <ele>506.6</ele>
        <time>2022-05-21 00:16:28</time>
      </trkpt>
      <trkpt lat="41.78506" lon="1.98622">
        <ele>506.8</ele>
        <time>2022-05-21 00:16:29</time>
      </trkpt>
      <trkpt lat="41.7851" lon="1.98618">
        <ele>507</ele>
        <time>2022-05-21 00:16:30</time>
      </trkpt>
      <trkpt lat="41.78515" lon="1.98614">
        <ele>507</ele>
        <time>2022-05-21 00:16:31</time>
      </trkpt>
      <trkpt lat="41.78519" lon="1.98611">
        <ele>507.2</ele>
        <time>2022-05-21 00:16:32</time>
      </trkpt>
      <trkpt lat="41.78524" lon="1.98608">
        <ele>507.2</ele>
        <time>2022-05-21 00:16:33</time>
      </trkpt>
      <trkpt lat="41.78528" lon="1.98607">
        <ele>507.4</ele>
        <time>2022-05-21 00:16:34</time>
      </trkpt>
      <trkpt lat="41.78533" lon="1.98607">
        <ele>507.6</ele>
        <time>2022-05-21 00:16:35</time>
      </trkpt>
      <trkpt lat="41.78538" lon="1.98608">
        <ele>507.6</ele>
        <time>2022-05-21 00:16:36</time>
      </trkpt>
      <trkpt lat="41.78542" lon="1.9861">
        <ele>507.8</ele>
        <time>2022-05-21 00:16:37</time>
      </trkpt>
      <trkpt lat="41.78547" lon="1.98613">
        <ele>507.8</ele>
        <time>2022-05-21 00:16:38</time>
      </trkpt>
      <trkpt lat="41.78551" lon="1.98616">
        <ele>508</ele>
        <time>2022-05-21 00:16:39</time>
      </trkpt>
      <trkpt lat="41.78556" lon="1.9862">
        <ele>508.2</ele>
        <time>2022-05-21 00:16:40</time>
      </trkpt>
      <trkpt lat="41.7856" lon="1.98623">
        <ele>508.4</ele>
        <time>2022-05-21 00:16:41</time>
      </trkpt>
      <trkpt lat="41.78564" lon="1.98626">
        <ele>508.6</ele>
        <time>2022-05-21 00:16:42</time>
      </trkpt>
      <trkpt lat="41.78569" lon="1.9863">
        <ele>508.6</ele>
        <time>2022-05-21 00:16:43</time>
      </trkpt>
      <trkpt lat="41.78574" lon="1.98633">
        <ele>508.8</ele>
        <time>2022-05-21 00:16:44</time>
      </trkpt>
      <trkpt lat="41.78579" lon="1.98636">
        <ele>509</ele>
        <time>2022-05-21 00:16:45</time>
      </trkpt>
      <trkpt lat="41.78584" lon="1.98639">
        <ele>509</ele>
        <time>2022-05-21 00:16:46</time>
      </trkpt>
      <trkpt lat="41.78588" lon="1.98642">
        <ele>509.2</ele>
        <time>2022-05-21 00:16:47</time>
      </trkpt>
      <trkpt lat="41.78593" lon="1.98644">
        <ele>509.2</ele>
        <time>2022-05-21 00:16:48</time>
      </trkpt>
      <trkpt lat="41.78598" lon="1.98647">
        <ele>509.2</ele>
        <time>2022-05-21 00:16:49</time>
      </trkpt>
      <trkpt lat="41.78604" lon="1.98649">
        <ele>509.2</ele>
        <time>2022-05-21 00:16:50</time>
      </trkpt>
      <trkpt lat="41.78609" lon="1.98651">
        <ele>509.4</ele>
        <time>2022-05-21 00:16:51</time>
      </trkpt>
      <trkpt lat="41.78615" lon="1.98654">
        <ele>509.4</ele>
        <time>2022-05-21 00:16:52</time>
      </trkpt>
      <trkpt lat="41.7862" lon="1.98656">
        <ele>509.4</ele>
        <time>2022-05-21 00:16:53</time>
      </trkpt>
      <trkpt lat="41.78626" lon="1.98658">
        <ele>509.4</ele>
        <time>2022-05-21 00:16:54</time>
      </trkpt>
      <trkpt lat="41.78631" lon="1.9866">
        <ele>509.4</ele>
        <time>2022-05-21 00:16:55</time>
      </trkpt>
      <trkpt lat="41.78637" lon="1.98663">
        <ele>509.4</ele>
        <time>2022-05-21 00:16:56</time>
      </trkpt>
      <trkpt lat="41.78642" lon="1.98665">
        <ele>509.4</ele>
        <time>2022-05-21 00:16:57</time>
      </trkpt>
      <trkpt lat="41.78648" lon="1.98668">
        <ele>509.4</ele>
        <time>2022-05-21 00:16:58</time>
      </trkpt>
      <trkpt lat="41.78653" lon="1.9867">
        <ele>509.2</ele>
        <time>2022-05-21 00:16:59</time>
      </trkpt>
      <trkpt lat="41.78659" lon="1.98673">
        <ele>509.4</ele>
        <time>2022-05-21 00:17:00</time>
      </trkpt>
      <trkpt lat="41.78664" lon="1.98675">
        <ele>509.4</ele>
        <time>2022-05-21 00:17:01</time>
      </trkpt>
      <trkpt lat="41.7867" lon="1.98678">
        <ele>509.4</ele>
        <time>2022-05-21 00:17:02</time>
      </trkpt>
      <trkpt lat="41.78675" lon="1.9868">
        <ele>509.4</ele>
        <time>2022-05-21 00:17:03</time>
      </trkpt>
      <trkpt lat="41.78681" lon="1.98683">
        <ele>509.4</ele>
        <time>2022-05-21 00:17:04</time>
      </trkpt>
      <trkpt lat="41.78687" lon="1.98686">
        <ele>509.4</ele>
        <time>2022-05-21 00:17:05</time>
      </trkpt>
      <trkpt lat="41.78692" lon="1.98689">
        <ele>509.4</ele>
        <time>2022-05-21 00:17:06</time>
      </trkpt>
      <trkpt lat="41.78697" lon="1.98692">
        <ele>509.4</ele>
        <time>2022-05-21 00:17:07</time>
      </trkpt>
      <trkpt lat="41.78703" lon="1.98695">
        <ele>509.4</ele>
        <time>2022-05-21 00:17:08</time>
      </trkpt>
      <trkpt lat="41.78708" lon="1.98698">
        <ele>509.4</ele>
        <time>2022-05-21 00:17:09</time>
      </trkpt>
      <trkpt lat="41.78714" lon="1.98702">
        <ele>509.4</ele>
        <time>2022-05-21 00:17:10</time>
      </trkpt>
      <trkpt lat="41.78718" lon="1.98707">
        <ele>509.4</ele>
        <time>2022-05-21 00:17:11</time>
      </trkpt>
      <trkpt lat="41.78722" lon="1.98712">
        <ele>509.4</ele>
        <time>2022-05-21 00:17:12</time>
      </trkpt>
      <trkpt lat="41.78726" lon="1.98717">
        <ele>509.4</ele>
        <time>2022-05-21 00:17:13</time>
      </trkpt>
      <trkpt lat="41.7873" lon="1.98724">
        <ele>509.4</ele>
        <time>2022-05-21 00:17:14</time>
      </trkpt>
      <trkpt lat="41.78732" lon="1.9873">
        <ele>509.6</ele>
        <time>2022-05-21 00:17:15</time>
      </trkpt>
      <trkpt lat="41.78734" lon="1.98738">
        <ele>509.6</ele>
        <time>2022-05-21 00:17:16</time>
      </trkpt>
      <trkpt lat="41.78735" lon="1.98745">
        <ele>509.8</ele>
        <time>2022-05-21 00:17:17</time>
      </trkpt>
      <trkpt lat="41.78735" lon="1.98753">
        <ele>509.8</ele>
        <time>2022-05-21 00:17:18</time>
      </trkpt>
      <trkpt lat="41.78734" lon="1.98761">
        <ele>510</ele>
        <time>2022-05-21 00:17:19</time>
      </trkpt>
      <trkpt lat="41.78732" lon="1.98767">
        <ele>510.2</ele>
        <time>2022-05-21 00:17:20</time>
      </trkpt>
      <trkpt lat="41.78729" lon="1.98773">
        <ele>510.4</ele>
        <time>2022-05-21 00:17:21</time>
      </trkpt>
      <trkpt lat="41.78726" lon="1.98778">
        <ele>510.6</ele>
        <time>2022-05-21 00:17:22</time>
      </trkpt>
      <trkpt lat="41.78722" lon="1.98783">
        <ele>510.8</ele>
        <time>2022-05-21 00:17:23</time>
      </trkpt>
      <trkpt lat="41.78718" lon="1.98787">
        <ele>511.2</ele>
        <time>2022-05-21 00:17:24</time>
      </trkpt>
      <trkpt lat="41.78714" lon="1.98791">
        <ele>511.4</ele>
        <time>2022-05-21 00:17:25</time>
      </trkpt>
      <trkpt lat="41.78709" lon="1.98796">
        <ele>511.6</ele>
        <time>2022-05-21 00:17:26</time>
      </trkpt>
      <trkpt lat="41.78705" lon="1.988">
        <ele>511.8</ele>
        <time>2022-05-21 00:17:27</time>
      </trkpt>
      <trkpt lat="41.78701" lon="1.98804">
        <ele>512</ele>
        <time>2022-05-21 00:17:28</time>
      </trkpt>
      <trkpt lat="41.78696" lon="1.98808">
        <ele>512.2</ele>
        <time>2022-05-21 00:17:29</time>
      </trkpt>
      <trkpt lat="41.78692" lon="1.98812">
        <ele>512.6</ele>
        <time>2022-05-21 00:17:30</time>
      </trkpt>
      <trkpt lat="41.78688" lon="1.98816">
        <ele>512.8</ele>
        <time>2022-05-21 00:17:31</time>
      </trkpt>
      <trkpt lat="41.78684" lon="1.98821">
        <ele>513</ele>
        <time>2022-05-21 00:17:32</time>
      </trkpt>
      <trkpt lat="41.7868" lon="1.98825">
        <ele>513.2</ele>
        <time>2022-05-21 00:17:33</time>
      </trkpt>
      <trkpt lat="41.78675" lon="1.98829">
        <ele>513.4</ele>
        <time>2022-05-21 00:17:34</time>
      </trkpt>
      <trkpt lat="41.78671" lon="1.98834">
        <ele>513.6</ele>
        <time>2022-05-21 00:17:35</time>
      </trkpt>
      <trkpt lat="41.78667" lon="1.98838">
        <ele>513.8</ele>
        <time>2022-05-21 00:17:36</time>
      </trkpt>
      <trkpt lat="41.78662" lon="1.98842">
        <ele>514</ele>
        <time>2022-05-21 00:17:37</time>
      </trkpt>
      <trkpt lat="41.78658" lon="1.98847">
        <ele>514.2</ele>
        <time>2022-05-21 00:17:38</time>
      </trkpt>
      <trkpt lat="41.78653" lon="1.98851">
        <ele>514.4</ele>
        <time>2022-05-21 00:17:39</time>
      </trkpt>
      <trkpt lat="41.7865" lon="1.98856">
        <ele>514.6</ele>
        <time>2022-05-21 00:17:40</time>
      </trkpt>
      <trkpt lat="41.78645" lon="1.98861">
        <ele>514.8</ele>
        <time>2022-05-21 00:17:41</time>
      </trkpt>
      <trkpt lat="41.78642" lon="1.98866">
        <ele>515</ele>
        <time>2022-05-21 00:17:42</time>
      </trkpt>
      <trkpt lat="41.78638" lon="1.98871">
        <ele>515.2</ele>
        <time>2022-05-21 00:17:43</time>
      </trkpt>
      <trkpt lat="41.78634" lon="1.98876">
        <ele>515.4</ele>
        <time>2022-05-21 00:17:44</time>
      </trkpt>
      <trkpt lat="41.78631" lon="1.98882">
        <ele>515.6</ele>
        <time>2022-05-21 00:17:45</time>
      </trkpt>
      <trkpt lat="41.78629" lon="1.98888">
        <ele>515.8</ele>
        <time>2022-05-21 00:17:46</time>
      </trkpt>
      <trkpt lat="41.78627" lon="1.98895">
        <ele>516</ele>
        <time>2022-05-21 00:17:47</time>
      </trkpt>
      <trkpt lat="41.78626" lon="1.98902">
        <ele>516.2</ele>
        <time>2022-05-21 00:17:48</time>
      </trkpt>
      <trkpt lat="41.78625" lon="1.98908">
        <ele>516.4</ele>
        <time>2022-05-21 00:17:49</time>
      </trkpt>
      <trkpt lat="41.78624" lon="1.98915">
        <ele>516.8</ele>
        <time>2022-05-21 00:17:50</time>
      </trkpt>
      <trkpt lat="41.78622" lon="1.98922">
        <ele>517</ele>
        <time>2022-05-21 00:17:51</time>
      </trkpt>
      <trkpt lat="41.78621" lon="1.98928">
        <ele>517.2</ele>
        <time>2022-05-21 00:17:52</time>
      </trkpt>
      <trkpt lat="41.78621" lon="1.98934">
        <ele>517.4</ele>
        <time>2022-05-21 00:17:53</time>
      </trkpt>
      <trkpt lat="41.7862" lon="1.98941">
        <ele>517.6</ele>
        <time>2022-05-21 00:17:54</time>
      </trkpt>
      <trkpt lat="41.7862" lon="1.98947">
        <ele>517.8</ele>
        <time>2022-05-21 00:17:55</time>
      </trkpt>
      <trkpt lat="41.7862" lon="1.98953">
        <ele>518</ele>
        <time>2022-05-21 00:17:56</time>
      </trkpt>
      <trkpt lat="41.7862" lon="1.98959">
        <ele>518.2</ele>
        <time>2022-05-21 00:17:57</time>
      </trkpt>
      <trkpt lat="41.7862" lon="1.98965">
        <ele>518.6</ele>
        <time>2022-05-21 00:17:58</time>
      </trkpt>
      <trkpt lat="41.7862" lon="1.98971">
        <ele>518.8</ele>
        <time>2022-05-21 00:17:59</time>
      </trkpt>
      <trkpt lat="41.78621" lon="1.98977">
        <ele>519</ele>
        <time>2022-05-21 00:18:00</time>
      </trkpt>
      <trkpt lat="41.78621" lon="1.98983">
        <ele>519.2</ele>
        <time>2022-05-21 00:18:01</time>
      </trkpt>
      <trkpt lat="41.78622" lon="1.98989">
        <ele>519.4</ele>
        <time>2022-05-21 00:18:02</time>
      </trkpt>
      <trkpt lat="41.78623" lon="1.98994">
        <ele>519.6</ele>
        <time>2022-05-21 00:18:03</time>
      </trkpt>
      <trkpt lat="41.78625" lon="1.99">
        <ele>519.6</ele>
        <time>2022-05-21 00:18:04</time>
      </trkpt>
      <trkpt lat="41.78626" lon="1.99006">
        <ele>519.8</ele>
        <time>2022-05-21 00:18:05</time>
      </trkpt>
      <trkpt lat="41.78629" lon="1.99011">
        <ele>520</ele>
        <time>2022-05-21 00:18:06</time>
      </trkpt>
      <trkpt lat="41.7863" lon="1.99016">
        <ele>520.2</ele>
        <time>2022-05-21 00:18:07</time>
      </trkpt>
      <trkpt lat="41.78632" lon="1.99022">
        <ele>520.2</ele>
        <time>2022-05-21 00:18:08</time>
      </trkpt>
      <trkpt lat="41.78635" lon="1.99027">
        <ele>520.4</ele>
        <time>2022-05-21 00:18:09</time>
      </trkpt>
      <trkpt lat="41.78637" lon="1.99033">
        <ele>520.6</ele>
        <time>2022-05-21 00:18:10</time>
      </trkpt>
      <trkpt lat="41.78638" lon="1.99038">
        <ele>520.8</ele>
        <time>2022-05-21 00:18:11</time>
      </trkpt>
      <trkpt lat="41.7864" lon="1.99044">
        <ele>521</ele>
        <time>2022-05-21 00:18:12</time>
      </trkpt>
      <trkpt lat="41.78642" lon="1.99049">
        <ele>521</ele>
        <time>2022-05-21 00:18:13</time>
      </trkpt>
      <trkpt lat="41.78645" lon="1.99054">
        <ele>521.2</ele>
        <time>2022-05-21 00:18:14</time>
      </trkpt>
      <trkpt lat="41.78647" lon="1.99059">
        <ele>521.4</ele>
        <time>2022-05-21 00:18:15</time>
      </trkpt>
      <trkpt lat="41.7865" lon="1.99063">
        <ele>521.6</ele>
        <time>2022-05-21 00:18:16</time>
      </trkpt>
      <trkpt lat="41.78652" lon="1.99068">
        <ele>521.8</ele>
        <time>2022-05-21 00:18:17</time>
      </trkpt>
      <trkpt lat="41.78654" lon="1.99072">
        <ele>522</ele>
        <time>2022-05-21 00:18:18</time>
      </trkpt>
      <trkpt lat="41.78657" lon="1.99077">
        <ele>522</ele>
        <time>2022-05-21 00:18:19</time>
      </trkpt>
      <trkpt lat="41.78659" lon="1.99081">
        <ele>522.2</ele>
        <time>2022-05-21 00:18:20</time>
      </trkpt>
      <trkpt lat="41.78662" lon="1.99086">
        <ele>522.4</ele>
        <time>2022-05-21 00:18:21</time>
      </trkpt>
      <trkpt lat="41.78666" lon="1.9909">
        <ele>522.4</ele>
        <time>2022-05-21 00:18:22</time>
      </trkpt>
      <trkpt lat="41.78669" lon="1.99094">
        <ele>522.6</ele>
        <time>2022-05-21 00:18:23</time>
      </trkpt>
      <trkpt lat="41.78672" lon="1.99098">
        <ele>522.6</ele>
        <time>2022-05-21 00:18:24</time>
      </trkpt>
      <trkpt lat="41.78676" lon="1.99102">
        <ele>522.8</ele>
        <time>2022-05-21 00:18:25</time>
      </trkpt>
      <trkpt lat="41.78679" lon="1.99106">
        <ele>522.8</ele>
        <time>2022-05-21 00:18:26</time>
      </trkpt>
      <trkpt lat="41.78683" lon="1.9911">
        <ele>523</ele>
        <time>2022-05-21 00:18:27</time>
      </trkpt>
      <trkpt lat="41.78687" lon="1.99114">
        <ele>523</ele>
        <time>2022-05-21 00:18:28</time>
      </trkpt>
      <trkpt lat="41.78691" lon="1.99118">
        <ele>523.2</ele>
        <time>2022-05-21 00:18:29</time>
      </trkpt>
      <trkpt lat="41.78695" lon="1.99122">
        <ele>523.2</ele>
        <time>2022-05-21 00:18:30</time>
      </trkpt>
      <trkpt lat="41.78699" lon="1.99126">
        <ele>523.4</ele>
        <time>2022-05-21 00:18:31</time>
      </trkpt>
      <trkpt lat="41.78703" lon="1.9913">
        <ele>523.4</ele>
        <time>2022-05-21 00:18:32</time>
      </trkpt>
      <trkpt lat="41.78706" lon="1.99134">
        <ele>523.6</ele>
        <time>2022-05-21 00:18:33</time>
      </trkpt>
      <trkpt lat="41.78711" lon="1.99137">
        <ele>523.8</ele>
        <time>2022-05-21 00:18:34</time>
      </trkpt>
      <trkpt lat="41.78714" lon="1.99139">
        <ele>523.8</ele>
        <time>2022-05-21 00:18:35</time>
      </trkpt>
      <trkpt lat="41.78719" lon="1.99141">
        <ele>524</ele>
        <time>2022-05-21 00:18:36</time>
      </trkpt>
      <trkpt lat="41.78723" lon="1.99143">
        <ele>524.2</ele>
        <time>2022-05-21 00:18:37</time>
      </trkpt>
      <trkpt lat="41.78728" lon="1.99144">
        <ele>524.2</ele>
        <time>2022-05-21 00:18:38</time>
      </trkpt>
      <trkpt lat="41.78733" lon="1.99145">
        <ele>524.4</ele>
        <time>2022-05-21 00:18:39</time>
      </trkpt>
      <trkpt lat="41.78737" lon="1.99146">
        <ele>524.4</ele>
        <time>2022-05-21 00:18:40</time>
      </trkpt>
      <trkpt lat="41.78742" lon="1.99147">
        <ele>524.6</ele>
        <time>2022-05-21 00:18:41</time>
      </trkpt>
      <trkpt lat="41.78747" lon="1.99147">
        <ele>524.6</ele>
        <time>2022-05-21 00:18:42</time>
      </trkpt>
      <trkpt lat="41.78752" lon="1.99148">
        <ele>524.8</ele>
        <time>2022-05-21 00:18:43</time>
      </trkpt>
      <trkpt lat="41.78756" lon="1.99148">
        <ele>525</ele>
        <time>2022-05-21 00:18:44</time>
      </trkpt>
      <trkpt lat="41.78761" lon="1.99149">
        <ele>525</ele>
        <time>2022-05-21 00:18:45</time>
      </trkpt>
      <trkpt lat="41.78765" lon="1.9915">
        <ele>525.2</ele>
        <time>2022-05-21 00:18:46</time>
      </trkpt>
      <trkpt lat="41.7877" lon="1.99152">
        <ele>525.4</ele>
        <time>2022-05-21 00:18:47</time>
      </trkpt>
      <trkpt lat="41.78775" lon="1.99153">
        <ele>525.6</ele>
        <time>2022-05-21 00:18:48</time>
      </trkpt>
      <trkpt lat="41.78779" lon="1.99153">
        <ele>525.8</ele>
        <time>2022-05-21 00:18:49</time>
      </trkpt>
      <trkpt lat="41.78784" lon="1.99154">
        <ele>525.8</ele>
        <time>2022-05-21 00:18:50</time>
      </trkpt>
      <trkpt lat="41.78788" lon="1.99153">
        <ele>526</ele>
        <time>2022-05-21 00:18:51</time>
      </trkpt>
      <trkpt lat="41.78793" lon="1.99153">
        <ele>526.2</ele>
        <time>2022-05-21 00:18:52</time>
      </trkpt>
      <trkpt lat="41.78797" lon="1.99153">
        <ele>526.4</ele>
        <time>2022-05-21 00:18:53</time>
      </trkpt>
      <trkpt lat="41.78802" lon="1.99152">
        <ele>526.6</ele>
        <time>2022-05-21 00:18:54</time>
      </trkpt>
      <trkpt lat="41.78806" lon="1.99152">
        <ele>526.8</ele>
        <time>2022-05-21 00:18:55</time>
      </trkpt>
      <trkpt lat="41.7881" lon="1.99153">
        <ele>526.8</ele>
        <time>2022-05-21 00:18:56</time>
      </trkpt>
      <trkpt lat="41.78815" lon="1.99154">
        <ele>527</ele>
        <time>2022-05-21 00:18:57</time>
      </trkpt>
      <trkpt lat="41.78819" lon="1.99154">
        <ele>527.2</ele>
        <time>2022-05-21 00:18:58</time>
      </trkpt>
      <trkpt lat="41.78823" lon="1.99155">
        <ele>527.4</ele>
        <time>2022-05-21 00:18:59</time>
      </trkpt>
      <trkpt lat="41.78827" lon="1.99155">
        <ele>527.6</ele>
        <time>2022-05-21 00:19:00</time>
      </trkpt>
      <trkpt lat="41.78831" lon="1.99156">
        <ele>527.8</ele>
        <time>2022-05-21 00:19:01</time>
      </trkpt>
      <trkpt lat="41.78836" lon="1.99157">
        <ele>528</ele>
        <time>2022-05-21 00:19:02</time>
      </trkpt>
      <trkpt lat="41.7884" lon="1.99158">
        <ele>528.2</ele>
        <time>2022-05-21 00:19:03</time>
      </trkpt>
      <trkpt lat="41.78844" lon="1.9916">
        <ele>528.4</ele>
        <time>2022-05-21 00:19:04</time>
      </trkpt>
      <trkpt lat="41.78848" lon="1.99162">
        <ele>528.6</ele>
        <time>2022-05-21 00:19:05</time>
      </trkpt>
      <trkpt lat="41.78851" lon="1.99164">
        <ele>528.8</ele>
        <time>2022-05-21 00:19:06</time>
      </trkpt>
      <trkpt lat="41.78855" lon="1.99167">
        <ele>528.8</ele>
        <time>2022-05-21 00:19:07</time>
      </trkpt>
      <trkpt lat="41.78858" lon="1.9917">
        <ele>529</ele>
        <time>2022-05-21 00:19:08</time>
      </trkpt>
      <trkpt lat="41.78861" lon="1.99174">
        <ele>529.2</ele>
        <time>2022-05-21 00:19:09</time>
      </trkpt>
      <trkpt lat="41.78863" lon="1.99179">
        <ele>529.4</ele>
        <time>2022-05-21 00:19:10</time>
      </trkpt>
      <trkpt lat="41.78864" lon="1.99184">
        <ele>529.6</ele>
        <time>2022-05-21 00:19:11</time>
      </trkpt>
      <trkpt lat="41.78865" lon="1.99189">
        <ele>529.8</ele>
        <time>2022-05-21 00:19:12</time>
      </trkpt>
      <trkpt lat="41.78866" lon="1.99195">
        <ele>530.2</ele>
        <time>2022-05-21 00:19:13</time>
      </trkpt>
      <trkpt lat="41.78865" lon="1.992">
        <ele>530.4</ele>
        <time>2022-05-21 00:19:14</time>
      </trkpt>
      <trkpt lat="41.78864" lon="1.99205">
        <ele>530.6</ele>
        <time>2022-05-21 00:19:15</time>
      </trkpt>
      <trkpt lat="41.78863" lon="1.9921">
        <ele>530.8</ele>
        <time>2022-05-21 00:19:16</time>
      </trkpt>
      <trkpt lat="41.78861" lon="1.99215">
        <ele>530.8</ele>
        <time>2022-05-21 00:19:17</time>
      </trkpt>
      <trkpt lat="41.7886" lon="1.9922">
        <ele>531</ele>
        <time>2022-05-21 00:19:18</time>
      </trkpt>
      <trkpt lat="41.78858" lon="1.99225">
        <ele>531.2</ele>
        <time>2022-05-21 00:19:19</time>
      </trkpt>
      <trkpt lat="41.78856" lon="1.9923">
        <ele>531.4</ele>
        <time>2022-05-21 00:19:20</time>
      </trkpt>
      <trkpt lat="41.78854" lon="1.99235">
        <ele>531.6</ele>
        <time>2022-05-21 00:19:21</time>
      </trkpt>
      <trkpt lat="41.78852" lon="1.9924">
        <ele>531.8</ele>
        <time>2022-05-21 00:19:22</time>
      </trkpt>
      <trkpt lat="41.7885" lon="1.99245">
        <ele>531.8</ele>
        <time>2022-05-21 00:19:23</time>
      </trkpt>
      <trkpt lat="41.78848" lon="1.9925">
        <ele>532</ele>
        <time>2022-05-21 00:19:24</time>
      </trkpt>
      <trkpt lat="41.78846" lon="1.99255">
        <ele>532.2</ele>
        <time>2022-05-21 00:19:25</time>
      </trkpt>
      <trkpt lat="41.78844" lon="1.9926">
        <ele>532.4</ele>
        <time>2022-05-21 00:19:26</time>
      </trkpt>
      <trkpt lat="41.78842" lon="1.99266">
        <ele>532.4</ele>
        <time>2022-05-21 00:19:27</time>
      </trkpt>
      <trkpt lat="41.7884" lon="1.99271">
        <ele>532.6</ele>
        <time>2022-05-21 00:19:28</time>
      </trkpt>
      <trkpt lat="41.78837" lon="1.99276">
        <ele>532.8</ele>
        <time>2022-05-21 00:19:29</time>
      </trkpt>
      <trkpt lat="41.78835" lon="1.99281">
        <ele>532.8</ele>
        <time>2022-05-21 00:19:30</time>
      </trkpt>
      <trkpt lat="41.78833" lon="1.99286">
        <ele>533</ele>
        <time>2022-05-21 00:19:31</time>
      </trkpt>
      <trkpt lat="41.78831" lon="1.99291">
        <ele>533.2</ele>
        <time>2022-05-21 00:19:32</time>
      </trkpt>
      <trkpt lat="41.7883" lon="1.99297">
        <ele>533.2</ele>
        <time>2022-05-21 00:19:33</time>
      </trkpt>
      <trkpt lat="41.78828" lon="1.99302">
        <ele>533.4</ele>
        <time>2022-05-21 00:19:34</time>
      </trkpt>
      <trkpt lat="41.78826" lon="1.99307">
        <ele>533.6</ele>
        <time>2022-05-21 00:19:35</time>
      </trkpt>
      <trkpt lat="41.78825" lon="1.99312">
        <ele>533.8</ele>
        <time>2022-05-21 00:19:36</time>
      </trkpt>
      <trkpt lat="41.78824" lon="1.99318">
        <ele>534</ele>
        <time>2022-05-21 00:19:37</time>
      </trkpt>
      <trkpt lat="41.78823" lon="1.99323">
        <ele>534.2</ele>
        <time>2022-05-21 00:19:38</time>
      </trkpt>
      <trkpt lat="41.78822" lon="1.99329">
        <ele>534.4</ele>
        <time>2022-05-21 00:19:39</time>
      </trkpt>
      <trkpt lat="41.78821" lon="1.99335">
        <ele>534.6</ele>
        <time>2022-05-21 00:19:40</time>
      </trkpt>
      <trkpt lat="41.7882" lon="1.9934">
        <ele>534.8</ele>
        <time>2022-05-21 00:19:41</time>
      </trkpt>
      <trkpt lat="41.7882" lon="1.99346">
        <ele>534.8</ele>
        <time>2022-05-21 00:19:42</time>
      </trkpt>
      <trkpt lat="41.78819" lon="1.99351">
        <ele>535</ele>
        <time>2022-05-21 00:19:43</time>
      </trkpt>
      <trkpt lat="41.78819" lon="1.99357">
        <ele>535.2</ele>
        <time>2022-05-21 00:19:44</time>
      </trkpt>
      <trkpt lat="41.78819" lon="1.99363">
        <ele>535.4</ele>
        <time>2022-05-21 00:19:45</time>
      </trkpt>
      <trkpt lat="41.78819" lon="1.99369">
        <ele>535.6</ele>
        <time>2022-05-21 00:19:46</time>
      </trkpt>
      <trkpt lat="41.78818" lon="1.99375">
        <ele>535.8</ele>
        <time>2022-05-21 00:19:47</time>
      </trkpt>
      <trkpt lat="41.78818" lon="1.9938">
        <ele>536</ele>
        <time>2022-05-21 00:19:48</time>
      </trkpt>
      <trkpt lat="41.78818" lon="1.99386">
        <ele>536.2</ele>
        <time>2022-05-21 00:19:49</time>
      </trkpt>
      <trkpt lat="41.78819" lon="1.99392">
        <ele>536.4</ele>
        <time>2022-05-21 00:19:50</time>
      </trkpt>
      <trkpt lat="41.7882" lon="1.99398">
        <ele>536.6</ele>
        <time>2022-05-21 00:19:51</time>
      </trkpt>
      <trkpt lat="41.7882" lon="1.99403">
        <ele>536.8</ele>
        <time>2022-05-21 00:19:52</time>
      </trkpt>
      <trkpt lat="41.78821" lon="1.99408">
        <ele>537</ele>
        <time>2022-05-21 00:19:53</time>
      </trkpt>
      <trkpt lat="41.78822" lon="1.99414">
        <ele>537</ele>
        <time>2022-05-21 00:19:54</time>
      </trkpt>
      <trkpt lat="41.78824" lon="1.99419">
        <ele>537.2</ele>
        <time>2022-05-21 00:19:55</time>
      </trkpt>
      <trkpt lat="41.78826" lon="1.99423">
        <ele>537.6</ele>
        <time>2022-05-21 00:19:56</time>
      </trkpt>
      <trkpt lat="41.78827" lon="1.99428">
        <ele>537.8</ele>
        <time>2022-05-21 00:19:57</time>
      </trkpt>
      <trkpt lat="41.78829" lon="1.99432">
        <ele>538</ele>
        <time>2022-05-21 00:19:58</time>
      </trkpt>
      <trkpt lat="41.78831" lon="1.99437">
        <ele>538.2</ele>
        <time>2022-05-21 00:19:59</time>
      </trkpt>
      <trkpt lat="41.78833" lon="1.99441">
        <ele>538.4</ele>
        <time>2022-05-21 00:20:00</time>
      </trkpt>
      <trkpt lat="41.78835" lon="1.99445">
        <ele>538.6</ele>
        <time>2022-05-21 00:20:01</time>
      </trkpt>
      <trkpt lat="41.78837" lon="1.99449">
        <ele>538.8</ele>
        <time>2022-05-21 00:20:02</time>
      </trkpt>
      <trkpt lat="41.78839" lon="1.99453">
        <ele>539</ele>
        <time>2022-05-21 00:20:03</time>
      </trkpt>
      <trkpt lat="41.78841" lon="1.99456">
        <ele>539.2</ele>
        <time>2022-05-21 00:20:04</time>
      </trkpt>
      <trkpt lat="41.78844" lon="1.99459">
        <ele>539.4</ele>
        <time>2022-05-21 00:20:05</time>
      </trkpt>
      <trkpt lat="41.78847" lon="1.99463">
        <ele>539.6</ele>
        <time>2022-05-21 00:20:06</time>
      </trkpt>
      <trkpt lat="41.78849" lon="1.99466">
        <ele>539.8</ele>
        <time>2022-05-21 00:20:07</time>
      </trkpt>
      <trkpt lat="41.78852" lon="1.99469">
        <ele>540</ele>
        <time>2022-05-21 00:20:08</time>
      </trkpt>
      <trkpt lat="41.78854" lon="1.99473">
        <ele>540.2</ele>
        <time>2022-05-21 00:20:09</time>
      </trkpt>
      <trkpt lat="41.78857" lon="1.99476">
        <ele>540.6</ele>
        <time>2022-05-21 00:20:10</time>
      </trkpt>
      <trkpt lat="41.78859" lon="1.99479">
        <ele>540.8</ele>
        <time>2022-05-21 00:20:11</time>
      </trkpt>
      <trkpt lat="41.78862" lon="1.99483">
        <ele>541</ele>
        <time>2022-05-21 00:20:12</time>
      </trkpt>
      <trkpt lat="41.78865" lon="1.99487">
        <ele>541.2</ele>
        <time>2022-05-21 00:20:13</time>
      </trkpt>
      <trkpt lat="41.78868" lon="1.9949">
        <ele>541.4</ele>
        <time>2022-05-21 00:20:14</time>
      </trkpt>
      <trkpt lat="41.78871" lon="1.99493">
        <ele>541.6</ele>
        <time>2022-05-21 00:20:15</time>
      </trkpt>
      <trkpt lat="41.78874" lon="1.99496">
        <ele>541.6</ele>
        <time>2022-05-21 00:20:16</time>
      </trkpt>
      <trkpt lat="41.78877" lon="1.995">
        <ele>541.8</ele>
        <time>2022-05-21 00:20:17</time>
      </trkpt>
      <trkpt lat="41.7888" lon="1.99503">
        <ele>542</ele>
        <time>2022-05-21 00:20:18</time>
      </trkpt>
      <trkpt lat="41.78883" lon="1.99506">
        <ele>542.2</ele>
        <time>2022-05-21 00:20:19</time>
      </trkpt>
      <trkpt lat="41.78886" lon="1.99509">
        <ele>542.4</ele>
        <time>2022-05-21 00:20:20</time>
      </trkpt>
      <trkpt lat="41.7889" lon="1.99512">
        <ele>542.6</ele>
        <time>2022-05-21 00:20:21</time>
      </trkpt>
      <trkpt lat="41.78893" lon="1.99515">
        <ele>542.8</ele>
        <time>2022-05-21 00:20:22</time>
      </trkpt>
      <trkpt lat="41.78896" lon="1.99518">
        <ele>543</ele>
        <time>2022-05-21 00:20:23</time>
      </trkpt>
      <trkpt lat="41.789" lon="1.99521">
        <ele>543</ele>
        <time>2022-05-21 00:20:24</time>
      </trkpt>
      <trkpt lat="41.78904" lon="1.99523">
        <ele>543.2</ele>
        <time>2022-05-21 00:20:25</time>
      </trkpt>
      <trkpt lat="41.78907" lon="1.99526">
        <ele>543.2</ele>
        <time>2022-05-21 00:20:26</time>
      </trkpt>
      <trkpt lat="41.78912" lon="1.99529">
        <ele>543.4</ele>
        <time>2022-05-21 00:20:27</time>
      </trkpt>
      <trkpt lat="41.78916" lon="1.99531">
        <ele>543.4</ele>
        <time>2022-05-21 00:20:28</time>
      </trkpt>
      <trkpt lat="41.78921" lon="1.99533">
        <ele>543.4</ele>
        <time>2022-05-21 00:20:29</time>
      </trkpt>
      <trkpt lat="41.78926" lon="1.99535">
        <ele>543.4</ele>
        <time>2022-05-21 00:20:30</time>
      </trkpt>
      <trkpt lat="41.7893" lon="1.99536">
        <ele>543.6</ele>
        <time>2022-05-21 00:20:31</time>
      </trkpt>
      <trkpt lat="41.78935" lon="1.99537">
        <ele>543.6</ele>
        <time>2022-05-21 00:20:32</time>
      </trkpt>
      <trkpt lat="41.7894" lon="1.99537">
        <ele>543.6</ele>
        <time>2022-05-21 00:20:33</time>
      </trkpt>
      <trkpt lat="41.78946" lon="1.99537">
        <ele>543.6</ele>
        <time>2022-05-21 00:20:34</time>
      </trkpt>
      <trkpt lat="41.78951" lon="1.99537">
        <ele>543.6</ele>
        <time>2022-05-21 00:20:35</time>
      </trkpt>
      <trkpt lat="41.78956" lon="1.99536">
        <ele>543.6</ele>
        <time>2022-05-21 00:20:36</time>
      </trkpt>
      <trkpt lat="41.78962" lon="1.99536">
        <ele>543.6</ele>
        <time>2022-05-21 00:20:37</time>
      </trkpt>
      <trkpt lat="41.78967" lon="1.99535">
        <ele>543.4</ele>
        <time>2022-05-21 00:20:38</time>
      </trkpt>
      <trkpt lat="41.78973" lon="1.99534">
        <ele>543.4</ele>
        <time>2022-05-21 00:20:39</time>
      </trkpt>
      <trkpt lat="41.78979" lon="1.99532">
        <ele>543.4</ele>
        <time>2022-05-21 00:20:40</time>
      </trkpt>
      <trkpt lat="41.78985" lon="1.9953">
        <ele>543.4</ele>
        <time>2022-05-21 00:20:41</time>
      </trkpt>
      <trkpt lat="41.78991" lon="1.99529">
        <ele>543.4</ele>
        <time>2022-05-21 00:20:42</time>
      </trkpt>
      <trkpt lat="41.78997" lon="1.99528">
        <ele>543.4</ele>
        <time>2022-05-21 00:20:43</time>
      </trkpt>
      <trkpt lat="41.79003" lon="1.99526">
        <ele>543.2</ele>
        <time>2022-05-21 00:20:44</time>
      </trkpt>
      <trkpt lat="41.79009" lon="1.99525">
        <ele>543.2</ele>
        <time>2022-05-21 00:20:45</time>
      </trkpt>
      <trkpt lat="41.79015" lon="1.99523">
        <ele>543.2</ele>
        <time>2022-05-21 00:20:46</time>
      </trkpt>
      <trkpt lat="41.79022" lon="1.99521">
        <ele>543.2</ele>
        <time>2022-05-21 00:20:47</time>
      </trkpt>
      <trkpt lat="41.79028" lon="1.99519">
        <ele>543.2</ele>
        <time>2022-05-21 00:20:48</time>
      </trkpt>
      <trkpt lat="41.79034" lon="1.99518">
        <ele>543.2</ele>
        <time>2022-05-21 00:20:49</time>
      </trkpt>
      <trkpt lat="41.79041" lon="1.99516">
        <ele>543.2</ele>
        <time>2022-05-21 00:20:50</time>
      </trkpt>
      <trkpt lat="41.79046" lon="1.99515">
        <ele>543.2</ele>
        <time>2022-05-21 00:20:51</time>
      </trkpt>
      <trkpt lat="41.79052" lon="1.99514">
        <ele>543.2</ele>
        <time>2022-05-21 00:20:52</time>
      </trkpt>
      <trkpt lat="41.79058" lon="1.99512">
        <ele>543.4</ele>
        <time>2022-05-21 00:20:53</time>
      </trkpt>
      <trkpt lat="41.79063" lon="1.99511">
        <ele>543.4</ele>
        <time>2022-05-21 00:20:54</time>
      </trkpt>
      <trkpt lat="41.79069" lon="1.9951">
        <ele>543.4</ele>
        <time>2022-05-21 00:20:55</time>
      </trkpt>
      <trkpt lat="41.79074" lon="1.99508">
        <ele>543.4</ele>
        <time>2022-05-21 00:20:56</time>
      </trkpt>
      <trkpt lat="41.7908" lon="1.99507">
        <ele>543.2</ele>
        <time>2022-05-21 00:20:57</time>
      </trkpt>
      <trkpt lat="41.79086" lon="1.99505">
        <ele>543.2</ele>
        <time>2022-05-21 00:20:58</time>
      </trkpt>
      <trkpt lat="41.79092" lon="1.99504">
        <ele>543.2</ele>
        <time>2022-05-21 00:20:59</time>
      </trkpt>
      <trkpt lat="41.79098" lon="1.99502">
        <ele>543</ele>
        <time>2022-05-21 00:21:00</time>
      </trkpt>
      <trkpt lat="41.79104" lon="1.995">
        <ele>542.8</ele>
        <time>2022-05-21 00:21:01</time>
      </trkpt>
      <trkpt lat="41.7911" lon="1.99498">
        <ele>542.8</ele>
        <time>2022-05-21 00:21:02</time>
      </trkpt>
      <trkpt lat="41.79117" lon="1.99496">
        <ele>542.6</ele>
        <time>2022-05-21 00:21:03</time>
      </trkpt>
      <trkpt lat="41.79124" lon="1.99495">
        <ele>542.4</ele>
        <time>2022-05-21 00:21:04</time>
      </trkpt>
      <trkpt lat="41.79131" lon="1.99493">
        <ele>542.4</ele>
        <time>2022-05-21 00:21:05</time>
      </trkpt>
      <trkpt lat="41.79138" lon="1.99492">
        <ele>542.2</ele>
        <time>2022-05-21 00:21:06</time>
      </trkpt>
      <trkpt lat="41.79146" lon="1.9949">
        <ele>542</ele>
        <time>2022-05-21 00:21:07</time>
      </trkpt>
      <trkpt lat="41.79153" lon="1.99489">
        <ele>541.8</ele>
        <time>2022-05-21 00:21:08</time>
      </trkpt>
      <trkpt lat="41.79161" lon="1.99489">
        <ele>541.6</ele>
        <time>2022-05-21 00:21:09</time>
      </trkpt>
      <trkpt lat="41.79169" lon="1.9949">
        <ele>541.4</ele>
        <time>2022-05-21 00:21:10</time>
      </trkpt>
      <trkpt lat="41.79176" lon="1.99493">
        <ele>541</ele>
        <time>2022-05-21 00:21:11</time>
      </trkpt>
      <trkpt lat="41.79184" lon="1.99497">
        <ele>540.8</ele>
        <time>2022-05-21 00:21:12</time>
      </trkpt>
      <trkpt lat="41.79191" lon="1.99502">
        <ele>540.6</ele>
        <time>2022-05-21 00:21:13</time>
      </trkpt>
      <trkpt lat="41.79198" lon="1.99509">
        <ele>540.4</ele>
        <time>2022-05-21 00:21:14</time>
      </trkpt>
      <trkpt lat="41.79205" lon="1.99515">
        <ele>540.2</ele>
        <time>2022-05-21 00:21:15</time>
      </trkpt>
      <trkpt lat="41.79211" lon="1.99521">
        <ele>540</ele>
        <time>2022-05-21 00:21:16</time>
      </trkpt>
      <trkpt lat="41.79219" lon="1.99528">
        <ele>539.8</ele>
        <time>2022-05-21 00:21:17</time>
      </trkpt>
      <trkpt lat="41.79226" lon="1.99534">
        <ele>539.6</ele>
        <time>2022-05-21 00:21:18</time>
      </trkpt>
      <trkpt lat="41.79232" lon="1.9954">
        <ele>539.4</ele>
        <time>2022-05-21 00:21:19</time>
      </trkpt>
      <trkpt lat="41.79239" lon="1.99546">
        <ele>539.4</ele>
        <time>2022-05-21 00:21:20</time>
      </trkpt>
      <trkpt lat="41.79245" lon="1.99552">
        <ele>539.4</ele>
        <time>2022-05-21 00:21:21</time>
      </trkpt>
      <trkpt lat="41.79252" lon="1.99559">
        <ele>539.4</ele>
        <time>2022-05-21 00:21:22</time>
      </trkpt>
      <trkpt lat="41.79258" lon="1.99565">
        <ele>539.2</ele>
        <time>2022-05-21 00:21:23</time>
      </trkpt>
      <trkpt lat="41.79265" lon="1.99571">
        <ele>539.2</ele>
        <time>2022-05-21 00:21:24</time>
      </trkpt>
      <trkpt lat="41.79271" lon="1.99577">
        <ele>539.4</ele>
        <time>2022-05-21 00:21:25</time>
      </trkpt>
      <trkpt lat="41.79277" lon="1.99582">
        <ele>539.4</ele>
        <time>2022-05-21 00:21:26</time>
      </trkpt>
      <trkpt lat="41.79284" lon="1.99588">
        <ele>539.4</ele>
        <time>2022-05-21 00:21:27</time>
      </trkpt>
      <trkpt lat="41.79289" lon="1.99594">
        <ele>539.6</ele>
        <time>2022-05-21 00:21:28</time>
      </trkpt>
      <trkpt lat="41.79295" lon="1.996">
        <ele>539.6</ele>
        <time>2022-05-21 00:21:29</time>
      </trkpt>
      <trkpt lat="41.79301" lon="1.99605">
        <ele>539.6</ele>
        <time>2022-05-21 00:21:30</time>
      </trkpt>
      <trkpt lat="41.79306" lon="1.99611">
        <ele>539.6</ele>
        <time>2022-05-21 00:21:31</time>
      </trkpt>
      <trkpt lat="41.79312" lon="1.99616">
        <ele>539.8</ele>
        <time>2022-05-21 00:21:32</time>
      </trkpt>
      <trkpt lat="41.79317" lon="1.99621">
        <ele>539.8</ele>
        <time>2022-05-21 00:21:33</time>
      </trkpt>
      <trkpt lat="41.79322" lon="1.99627">
        <ele>540</ele>
        <time>2022-05-21 00:21:34</time>
      </trkpt>
      <trkpt lat="41.79328" lon="1.99632">
        <ele>540</ele>
        <time>2022-05-21 00:21:35</time>
      </trkpt>
      <trkpt lat="41.79333" lon="1.99637">
        <ele>540.2</ele>
        <time>2022-05-21 00:21:36</time>
      </trkpt>
      <trkpt lat="41.79338" lon="1.99642">
        <ele>540.4</ele>
        <time>2022-05-21 00:21:37</time>
      </trkpt>
      <trkpt lat="41.79344" lon="1.99647">
        <ele>540.4</ele>
        <time>2022-05-21 00:21:38</time>
      </trkpt>
      <trkpt lat="41.79349" lon="1.99652">
        <ele>540.6</ele>
        <time>2022-05-21 00:21:39</time>
      </trkpt>
      <trkpt lat="41.79354" lon="1.99656">
        <ele>540.6</ele>
        <time>2022-05-21 00:21:40</time>
      </trkpt>
      <trkpt lat="41.79359" lon="1.99661">
        <ele>540.6</ele>
        <time>2022-05-21 00:21:41</time>
      </trkpt>
      <trkpt lat="41.79365" lon="1.99666">
        <ele>540.8</ele>
        <time>2022-05-21 00:21:42</time>
      </trkpt>
      <trkpt lat="41.7937" lon="1.99672">
        <ele>540.8</ele>
        <time>2022-05-21 00:21:43</time>
      </trkpt>
      <trkpt lat="41.79375" lon="1.99677">
        <ele>541</ele>
        <time>2022-05-21 00:21:44</time>
      </trkpt>
      <trkpt lat="41.7938" lon="1.99682">
        <ele>541</ele>
        <time>2022-05-21 00:21:45</time>
      </trkpt>
      <trkpt lat="41.79385" lon="1.99687">
        <ele>541</ele>
        <time>2022-05-21 00:21:46</time>
      </trkpt>
      <trkpt lat="41.79391" lon="1.99692">
        <ele>541</ele>
        <time>2022-05-21 00:21:47</time>
      </trkpt>
      <trkpt lat="41.79396" lon="1.99697">
        <ele>541.2</ele>
        <time>2022-05-21 00:21:48</time>
      </trkpt>
      <trkpt lat="41.79401" lon="1.99701">
        <ele>541.2</ele>
        <time>2022-05-21 00:21:49</time>
      </trkpt>
      <trkpt lat="41.79406" lon="1.99706">
        <ele>541.2</ele>
        <time>2022-05-21 00:21:50</time>
      </trkpt>
      <trkpt lat="41.79411" lon="1.99712">
        <ele>541.4</ele>
        <time>2022-05-21 00:21:51</time>
      </trkpt>
      <trkpt lat="41.79416" lon="1.99717">
        <ele>541.4</ele>
        <time>2022-05-21 00:21:52</time>
      </trkpt>
      <trkpt lat="41.7942" lon="1.99723">
        <ele>541.6</ele>
        <time>2022-05-21 00:21:53</time>
      </trkpt>
      <trkpt lat="41.79425" lon="1.99729">
        <ele>541.6</ele>
        <time>2022-05-21 00:21:54</time>
      </trkpt>
      <trkpt lat="41.79429" lon="1.99735">
        <ele>541.6</ele>
        <time>2022-05-21 00:21:55</time>
      </trkpt>
      <trkpt lat="41.79434" lon="1.9974">
        <ele>541.6</ele>
        <time>2022-05-21 00:21:56</time>
      </trkpt>
      <trkpt lat="41.79438" lon="1.99746">
        <ele>541.8</ele>
        <time>2022-05-21 00:21:57</time>
      </trkpt>
      <trkpt lat="41.79443" lon="1.99752">
        <ele>541.8</ele>
        <time>2022-05-21 00:21:58</time>
      </trkpt>
      <trkpt lat="41.79448" lon="1.99758">
        <ele>541.8</ele>
        <time>2022-05-21 00:21:59</time>
      </trkpt>
      <trkpt lat="41.79452" lon="1.99764">
        <ele>541.8</ele>
        <time>2022-05-21 00:22:00</time>
      </trkpt>
      <trkpt lat="41.79456" lon="1.9977">
        <ele>542</ele>
        <time>2022-05-21 00:22:01</time>
      </trkpt>
      <trkpt lat="41.79461" lon="1.99776">
        <ele>542</ele>
        <time>2022-05-21 00:22:02</time>
      </trkpt>
      <trkpt lat="41.79465" lon="1.99782">
        <ele>542</ele>
        <time>2022-05-21 00:22:03</time>
      </trkpt>
      <trkpt lat="41.79469" lon="1.99788">
        <ele>542</ele>
        <time>2022-05-21 00:22:04</time>
      </trkpt>
      <trkpt lat="41.79473" lon="1.99794">
        <ele>542.2</ele>
        <time>2022-05-21 00:22:05</time>
      </trkpt>
      <trkpt lat="41.79478" lon="1.998">
        <ele>542.4</ele>
        <time>2022-05-21 00:22:06</time>
      </trkpt>
      <trkpt lat="41.79482" lon="1.99806">
        <ele>542.4</ele>
        <time>2022-05-21 00:22:07</time>
      </trkpt>
      <trkpt lat="41.79486" lon="1.99812">
        <ele>542.4</ele>
        <time>2022-05-21 00:22:08</time>
      </trkpt>
      <trkpt lat="41.79491" lon="1.99818">
        <ele>542.4</ele>
        <time>2022-05-21 00:22:09</time>
      </trkpt>
      <trkpt lat="41.79495" lon="1.99824">
        <ele>542.6</ele>
        <time>2022-05-21 00:22:10</time>
      </trkpt>
      <trkpt lat="41.79499" lon="1.99829">
        <ele>542.6</ele>
        <time>2022-05-21 00:22:11</time>
      </trkpt>
      <trkpt lat="41.79504" lon="1.99835">
        <ele>542.6</ele>
        <time>2022-05-21 00:22:12</time>
      </trkpt>
      <trkpt lat="41.79508" lon="1.99841">
        <ele>542.8</ele>
        <time>2022-05-21 00:22:13</time>
      </trkpt>
      <trkpt lat="41.79512" lon="1.99847">
        <ele>542.8</ele>
        <time>2022-05-21 00:22:14</time>
      </trkpt>
      <trkpt lat="41.79517" lon="1.99853">
        <ele>543</ele>
        <time>2022-05-21 00:22:15</time>
      </trkpt>
      <trkpt lat="41.7952" lon="1.99859">
        <ele>543</ele>
        <time>2022-05-21 00:22:16</time>
      </trkpt>
      <trkpt lat="41.79525" lon="1.99864">
        <ele>543.2</ele>
        <time>2022-05-21 00:22:17</time>
      </trkpt>
      <trkpt lat="41.79529" lon="1.9987">
        <ele>543.4</ele>
        <time>2022-05-21 00:22:18</time>
      </trkpt>
      <trkpt lat="41.79533" lon="1.99876">
        <ele>543.4</ele>
        <time>2022-05-21 00:22:19</time>
      </trkpt>
      <trkpt lat="41.79537" lon="1.99881">
        <ele>543.6</ele>
        <time>2022-05-21 00:22:20</time>
      </trkpt>
      <trkpt lat="41.79541" lon="1.99887">
        <ele>543.8</ele>
        <time>2022-05-21 00:22:21</time>
      </trkpt>
      <trkpt lat="41.79545" lon="1.99892">
        <ele>543.8</ele>
        <time>2022-05-21 00:22:22</time>
      </trkpt>
      <trkpt lat="41.79548" lon="1.99896">
        <ele>544</ele>
        <time>2022-05-21 00:22:23</time>
      </trkpt>
      <trkpt lat="41.79552" lon="1.99901">
        <ele>544.2</ele>
        <time>2022-05-21 00:22:24</time>
      </trkpt>
      <trkpt lat="41.79556" lon="1.99906">
        <ele>544.4</ele>
        <time>2022-05-21 00:22:25</time>
      </trkpt>
      <trkpt lat="41.79559" lon="1.99911">
        <ele>544.4</ele>
        <time>2022-05-21 00:22:26</time>
      </trkpt>
      <trkpt lat="41.79563" lon="1.99916">
        <ele>544.6</ele>
        <time>2022-05-21 00:22:27</time>
      </trkpt>
      <trkpt lat="41.79566" lon="1.99921">
        <ele>544.6</ele>
        <time>2022-05-21 00:22:28</time>
      </trkpt>
      <trkpt lat="41.7957" lon="1.99925">
        <ele>544.8</ele>
        <time>2022-05-21 00:22:29</time>
      </trkpt>
      <trkpt lat="41.79573" lon="1.9993">
        <ele>545</ele>
        <time>2022-05-21 00:22:30</time>
      </trkpt>
      <trkpt lat="41.79577" lon="1.99934">
        <ele>545</ele>
        <time>2022-05-21 00:22:31</time>
      </trkpt>
      <trkpt lat="41.7958" lon="1.99939">
        <ele>545.2</ele>
        <time>2022-05-21 00:22:32</time>
      </trkpt>
      <trkpt lat="41.79584" lon="1.99944">
        <ele>545.4</ele>
        <time>2022-05-21 00:22:33</time>
      </trkpt>
      <trkpt lat="41.79587" lon="1.99948">
        <ele>545.6</ele>
        <time>2022-05-21 00:22:34</time>
      </trkpt>
      <trkpt lat="41.7959" lon="1.99953">
        <ele>545.6</ele>
        <time>2022-05-21 00:22:35</time>
      </trkpt>
      <trkpt lat="41.79594" lon="1.99957">
        <ele>545.8</ele>
        <time>2022-05-21 00:22:36</time>
      </trkpt>
      <trkpt lat="41.79597" lon="1.99961">
        <ele>546</ele>
        <time>2022-05-21 00:22:37</time>
      </trkpt>
      <trkpt lat="41.796" lon="1.99966">
        <ele>546</ele>
        <time>2022-05-21 00:22:38</time>
      </trkpt>
      <trkpt lat="41.79603" lon="1.9997">
        <ele>546.2</ele>
        <time>2022-05-21 00:22:39</time>
      </trkpt>
      <trkpt lat="41.79606" lon="1.99974">
        <ele>546.4</ele>
        <time>2022-05-21 00:22:40</time>
      </trkpt>
      <trkpt lat="41.7961" lon="1.99979">
        <ele>546.4</ele>
        <time>2022-05-21 00:22:41</time>
      </trkpt>
      <trkpt lat="41.79613" lon="1.99983">
        <ele>546.6</ele>
        <time>2022-05-21 00:22:42</time>
      </trkpt>
      <trkpt lat="41.79615" lon="1.99988">
        <ele>546.8</ele>
        <time>2022-05-21 00:22:43</time>
      </trkpt>
      <trkpt lat="41.79618" lon="1.99992">
        <ele>546.8</ele>
        <time>2022-05-21 00:22:44</time>
      </trkpt>
      <trkpt lat="41.79622" lon="1.99997">
        <ele>547</ele>
        <time>2022-05-21 00:22:45</time>
      </trkpt>
      <trkpt lat="41.79625" lon="2.00002">
        <ele>547.2</ele>
        <time>2022-05-21 00:22:46</time>
      </trkpt>
      <trkpt lat="41.79628" lon="2.00006">
        <ele>547.4</ele>
        <time>2022-05-21 00:22:47</time>
      </trkpt>
      <trkpt lat="41.79631" lon="2.0001">
        <ele>547.4</ele>
        <time>2022-05-21 00:22:48</time>
      </trkpt>
      <trkpt lat="41.79634" lon="2.00015">
        <ele>547.6</ele>
        <time>2022-05-21 00:22:49</time>
      </trkpt>
      <trkpt lat="41.79638" lon="2.00019">
        <ele>547.8</ele>
        <time>2022-05-21 00:22:50</time>
      </trkpt>
      <trkpt lat="41.79641" lon="2.00024">
        <ele>547.8</ele>
        <time>2022-05-21 00:22:51</time>
      </trkpt>
      <trkpt lat="41.79645" lon="2.00028">
        <ele>548</ele>
        <time>2022-05-21 00:22:52</time>
      </trkpt>
      <trkpt lat="41.79648" lon="2.00033">
        <ele>548</ele>
        <time>2022-05-21 00:22:53</time>
      </trkpt>
      <trkpt lat="41.79652" lon="2.00037">
        <ele>548.2</ele>
        <time>2022-05-21 00:22:54</time>
      </trkpt>
      <trkpt lat="41.79655" lon="2.00041">
        <ele>548.2</ele>
        <time>2022-05-21 00:22:55</time>
      </trkpt>
      <trkpt lat="41.79659" lon="2.00046">
        <ele>548.4</ele>
        <time>2022-05-21 00:22:56</time>
      </trkpt>
      <trkpt lat="41.79662" lon="2.00051">
        <ele>548.4</ele>
        <time>2022-05-21 00:22:57</time>
      </trkpt>
      <trkpt lat="41.79665" lon="2.00056">
        <ele>548.6</ele>
        <time>2022-05-21 00:22:58</time>
      </trkpt>
      <trkpt lat="41.79668" lon="2.0006">
        <ele>548.6</ele>
        <time>2022-05-21 00:22:59</time>
      </trkpt>
      <trkpt lat="41.79672" lon="2.00065">
        <ele>548.6</ele>
        <time>2022-05-21 00:23:00</time>
      </trkpt>
      <trkpt lat="41.79675" lon="2.00069">
        <ele>548.6</ele>
        <time>2022-05-21 00:23:01</time>
      </trkpt>
      <trkpt lat="41.79678" lon="2.00073">
        <ele>548.8</ele>
        <time>2022-05-21 00:23:02</time>
      </trkpt>
      <trkpt lat="41.79681" lon="2.00078">
        <ele>548.8</ele>
        <time>2022-05-21 00:23:03</time>
      </trkpt>
      <trkpt lat="41.79684" lon="2.00082">
        <ele>549</ele>
        <time>2022-05-21 00:23:04</time>
      </trkpt>
      <trkpt lat="41.79687" lon="2.00086">
        <ele>549.2</ele>
        <time>2022-05-21 00:23:05</time>
      </trkpt>
      <trkpt lat="41.7969" lon="2.0009">
        <ele>549.4</ele>
        <time>2022-05-21 00:23:06</time>
      </trkpt>
      <trkpt lat="41.79693" lon="2.00094">
        <ele>549.6</ele>
        <time>2022-05-21 00:23:07</time>
      </trkpt>
      <trkpt lat="41.79696" lon="2.00098">
        <ele>549.8</ele>
        <time>2022-05-21 00:23:08</time>
      </trkpt>
      <trkpt lat="41.79699" lon="2.00102">
        <ele>550</ele>
        <time>2022-05-21 00:23:09</time>
      </trkpt>
      <trkpt lat="41.79702" lon="2.00106">
        <ele>550.2</ele>
        <time>2022-05-21 00:23:10</time>
      </trkpt>
      <trkpt lat="41.79704" lon="2.00109">
        <ele>550.2</ele>
        <time>2022-05-21 00:23:11</time>
      </trkpt>
      <trkpt lat="41.79707" lon="2.00112">
        <ele>550.4</ele>
        <time>2022-05-21 00:23:12</time>
      </trkpt>
      <trkpt lat="41.7971" lon="2.00116">
        <ele>550.6</ele>
        <time>2022-05-21 00:23:13</time>
      </trkpt>
      <trkpt lat="41.79713" lon="2.00119">
        <ele>550.8</ele>
        <time>2022-05-21 00:23:14</time>
      </trkpt>
      <trkpt lat="41.79716" lon="2.00122">
        <ele>551</ele>
        <time>2022-05-21 00:23:15</time>
      </trkpt>
      <trkpt lat="41.7972" lon="2.00126">
        <ele>551.2</ele>
        <time>2022-05-21 00:23:16</time>
      </trkpt>
      <trkpt lat="41.79722" lon="2.00129">
        <ele>551.4</ele>
        <time>2022-05-21 00:23:17</time>
      </trkpt>
      <trkpt lat="41.79725" lon="2.00133">
        <ele>551.6</ele>
        <time>2022-05-21 00:23:18</time>
      </trkpt>
      <trkpt lat="41.79727" lon="2.00137">
        <ele>551.8</ele>
        <time>2022-05-21 00:23:19</time>
      </trkpt>
      <trkpt lat="41.7973" lon="2.00142">
        <ele>552</ele>
        <time>2022-05-21 00:23:20</time>
      </trkpt>
      <trkpt lat="41.79732" lon="2.00145">
        <ele>552.2</ele>
        <time>2022-05-21 00:23:21</time>
      </trkpt>
      <trkpt lat="41.79735" lon="2.00149">
        <ele>552.4</ele>
        <time>2022-05-21 00:23:22</time>
      </trkpt>
      <trkpt lat="41.79737" lon="2.00153">
        <ele>552.6</ele>
        <time>2022-05-21 00:23:23</time>
      </trkpt>
      <trkpt lat="41.7974" lon="2.00156">
        <ele>552.6</ele>
        <time>2022-05-21 00:23:24</time>
      </trkpt>
      <trkpt lat="41.79743" lon="2.00161">
        <ele>552.8</ele>
        <time>2022-05-21 00:23:25</time>
      </trkpt>
      <trkpt lat="41.79745" lon="2.00165">
        <ele>553</ele>
        <time>2022-05-21 00:23:26</time>
      </trkpt>
      <trkpt lat="41.79747" lon="2.00169">
        <ele>553.4</ele>
        <time>2022-05-21 00:23:27</time>
      </trkpt>
      <trkpt lat="41.7975" lon="2.00173">
        <ele>553.6</ele>
        <time>2022-05-21 00:23:28</time>
      </trkpt>
      <trkpt lat="41.79753" lon="2.00178">
        <ele>553.8</ele>
        <time>2022-05-21 00:23:29</time>
      </trkpt>
      <trkpt lat="41.79755" lon="2.00182">
        <ele>554</ele>
        <time>2022-05-21 00:23:30</time>
      </trkpt>
      <trkpt lat="41.79757" lon="2.00187">
        <ele>554.2</ele>
        <time>2022-05-21 00:23:31</time>
      </trkpt>
      <trkpt lat="41.79759" lon="2.00192">
        <ele>554.4</ele>
        <time>2022-05-21 00:23:32</time>
      </trkpt>
      <trkpt lat="41.79762" lon="2.00197">
        <ele>554.6</ele>
        <time>2022-05-21 00:23:33</time>
      </trkpt>
      <trkpt lat="41.79763" lon="2.00201">
        <ele>554.8</ele>
        <time>2022-05-21 00:23:34</time>
      </trkpt>
      <trkpt lat="41.79765" lon="2.00206">
        <ele>554.8</ele>
        <time>2022-05-21 00:23:35</time>
      </trkpt>
      <trkpt lat="41.79766" lon="2.00211">
        <ele>555</ele>
        <time>2022-05-21 00:23:36</time>
      </trkpt>
      <trkpt lat="41.79768" lon="2.00217">
        <ele>555.2</ele>
        <time>2022-05-21 00:23:37</time>
      </trkpt>
      <trkpt lat="41.7977" lon="2.00222">
        <ele>555.4</ele>
        <time>2022-05-21 00:23:38</time>
      </trkpt>
      <trkpt lat="41.79771" lon="2.00227">
        <ele>555.6</ele>
        <time>2022-05-21 00:23:39</time>
      </trkpt>
      <trkpt lat="41.79772" lon="2.00232">
        <ele>555.8</ele>
        <time>2022-05-21 00:23:40</time>
      </trkpt>
      <trkpt lat="41.79773" lon="2.00237">
        <ele>556</ele>
        <time>2022-05-21 00:23:41</time>
      </trkpt>
      <trkpt lat="41.79774" lon="2.00242">
        <ele>556.2</ele>
        <time>2022-05-21 00:23:42</time>
      </trkpt>
      <trkpt lat="41.79776" lon="2.00248">
        <ele>556.2</ele>
        <time>2022-05-21 00:23:43</time>
      </trkpt>
      <trkpt lat="41.79777" lon="2.00253">
        <ele>556.4</ele>
        <time>2022-05-21 00:23:44</time>
      </trkpt>
      <trkpt lat="41.79778" lon="2.00258">
        <ele>556.6</ele>
        <time>2022-05-21 00:23:45</time>
      </trkpt>
      <trkpt lat="41.79779" lon="2.00263">
        <ele>556.8</ele>
        <time>2022-05-21 00:23:46</time>
      </trkpt>
      <trkpt lat="41.7978" lon="2.00269">
        <ele>556.8</ele>
        <time>2022-05-21 00:23:47</time>
      </trkpt>
      <trkpt lat="41.79782" lon="2.00274">
        <ele>557</ele>
        <time>2022-05-21 00:23:48</time>
      </trkpt>
      <trkpt lat="41.79783" lon="2.00279">
        <ele>557.2</ele>
        <time>2022-05-21 00:23:49</time>
      </trkpt>
      <trkpt lat="41.79784" lon="2.00284">
        <ele>557.4</ele>
        <time>2022-05-21 00:23:50</time>
      </trkpt>
      <trkpt lat="41.79786" lon="2.00289">
        <ele>557.6</ele>
        <time>2022-05-21 00:23:51</time>
      </trkpt>
      <trkpt lat="41.79787" lon="2.00295">
        <ele>557.8</ele>
        <time>2022-05-21 00:23:52</time>
      </trkpt>
      <trkpt lat="41.79788" lon="2.003">
        <ele>558</ele>
        <time>2022-05-21 00:23:53</time>
      </trkpt>
      <trkpt lat="41.79789" lon="2.00305">
        <ele>558</ele>
        <time>2022-05-21 00:23:54</time>
      </trkpt>
      <trkpt lat="41.7979" lon="2.0031">
        <ele>558.2</ele>
        <time>2022-05-21 00:23:55</time>
      </trkpt>
      <trkpt lat="41.79791" lon="2.00315">
        <ele>558.4</ele>
        <time>2022-05-21 00:23:56</time>
      </trkpt>
      <trkpt lat="41.79792" lon="2.00321">
        <ele>558.6</ele>
        <time>2022-05-21 00:23:57</time>
      </trkpt>
      <trkpt lat="41.79794" lon="2.00326">
        <ele>558.8</ele>
        <time>2022-05-21 00:23:58</time>
      </trkpt>
      <trkpt lat="41.79795" lon="2.00331">
        <ele>559</ele>
        <time>2022-05-21 00:23:59</time>
      </trkpt>
      <trkpt lat="41.79796" lon="2.00336">
        <ele>559.2</ele>
        <time>2022-05-21 00:24:00</time>
      </trkpt>
      <trkpt lat="41.79797" lon="2.00341">
        <ele>559.4</ele>
        <time>2022-05-21 00:24:01</time>
      </trkpt>
      <trkpt lat="41.79798" lon="2.00346">
        <ele>559.6</ele>
        <time>2022-05-21 00:24:02</time>
      </trkpt>
      <trkpt lat="41.79799" lon="2.00351">
        <ele>559.8</ele>
        <time>2022-05-21 00:24:03</time>
      </trkpt>
      <trkpt lat="41.798" lon="2.00356">
        <ele>560</ele>
        <time>2022-05-21 00:24:04</time>
      </trkpt>
      <trkpt lat="41.79802" lon="2.00361">
        <ele>560.2</ele>
        <time>2022-05-21 00:24:05</time>
      </trkpt>
      <trkpt lat="41.79803" lon="2.00366">
        <ele>560.4</ele>
        <time>2022-05-21 00:24:06</time>
      </trkpt>
      <trkpt lat="41.79804" lon="2.00371">
        <ele>560.6</ele>
        <time>2022-05-21 00:24:07</time>
      </trkpt>
      <trkpt lat="41.79805" lon="2.00376">
        <ele>560.6</ele>
        <time>2022-05-21 00:24:08</time>
      </trkpt>
      <trkpt lat="41.79806" lon="2.00381">
        <ele>560.8</ele>
        <time>2022-05-21 00:24:09</time>
      </trkpt>
      <trkpt lat="41.79807" lon="2.00386">
        <ele>561</ele>
        <time>2022-05-21 00:24:10</time>
      </trkpt>
      <trkpt lat="41.79808" lon="2.00391">
        <ele>561.2</ele>
        <time>2022-05-21 00:24:11</time>
      </trkpt>
      <trkpt lat="41.7981" lon="2.00396">
        <ele>561.4</ele>
        <time>2022-05-21 00:24:12</time>
      </trkpt>
      <trkpt lat="41.79811" lon="2.00401">
        <ele>561.6</ele>
        <time>2022-05-21 00:24:13</time>
      </trkpt>
      <trkpt lat="41.79812" lon="2.00406">
        <ele>561.8</ele>
        <time>2022-05-21 00:24:14</time>
      </trkpt>
      <trkpt lat="41.79813" lon="2.00411">
        <ele>562</ele>
        <time>2022-05-21 00:24:15</time>
      </trkpt>
      <trkpt lat="41.79814" lon="2.00416">
        <ele>562.2</ele>
        <time>2022-05-21 00:24:16</time>
      </trkpt>
      <trkpt lat="41.79815" lon="2.00421">
        <ele>562.4</ele>
        <time>2022-05-21 00:24:17</time>
      </trkpt>
      <trkpt lat="41.79816" lon="2.00426">
        <ele>562.6</ele>
        <time>2022-05-21 00:24:18</time>
      </trkpt>
      <trkpt lat="41.79818" lon="2.00431">
        <ele>562.8</ele>
        <time>2022-05-21 00:24:19</time>
      </trkpt>
      <trkpt lat="41.79819" lon="2.00436">
        <ele>563</ele>
        <time>2022-05-21 00:24:20</time>
      </trkpt>
      <trkpt lat="41.7982" lon="2.0044">
        <ele>563.2</ele>
        <time>2022-05-21 00:24:21</time>
      </trkpt>
      <trkpt lat="41.79821" lon="2.00445">
        <ele>563.4</ele>
        <time>2022-05-21 00:24:22</time>
      </trkpt>
      <trkpt lat="41.79822" lon="2.0045">
        <ele>563.6</ele>
        <time>2022-05-21 00:24:23</time>
      </trkpt>
      <trkpt lat="41.79823" lon="2.00455">
        <ele>564</ele>
        <time>2022-05-21 00:24:24</time>
      </trkpt>
      <trkpt lat="41.79824" lon="2.0046">
        <ele>564.2</ele>
        <time>2022-05-21 00:24:25</time>
      </trkpt>
      <trkpt lat="41.79826" lon="2.00464">
        <ele>564.4</ele>
        <time>2022-05-21 00:24:26</time>
      </trkpt>
      <trkpt lat="41.79827" lon="2.00469">
        <ele>564.6</ele>
        <time>2022-05-21 00:24:27</time>
      </trkpt>
      <trkpt lat="41.79828" lon="2.00473">
        <ele>564.8</ele>
        <time>2022-05-21 00:24:28</time>
      </trkpt>
      <trkpt lat="41.79829" lon="2.00477">
        <ele>565</ele>
        <time>2022-05-21 00:24:29</time>
      </trkpt>
      <trkpt lat="41.7983" lon="2.00482">
        <ele>565.2</ele>
        <time>2022-05-21 00:24:30</time>
      </trkpt>
      <trkpt lat="41.79831" lon="2.00486">
        <ele>565.6</ele>
        <time>2022-05-21 00:24:31</time>
      </trkpt>
      <trkpt lat="41.79832" lon="2.0049">
        <ele>565.8</ele>
        <time>2022-05-21 00:24:32</time>
      </trkpt>
      <trkpt lat="41.79832" lon="2.00494">
        <ele>566</ele>
        <time>2022-05-21 00:24:33</time>
      </trkpt>
      <trkpt lat="41.79833" lon="2.00498">
        <ele>566</ele>
        <time>2022-05-21 00:24:34</time>
      </trkpt>
      <trkpt lat="41.79834" lon="2.00502">
        <ele>566.2</ele>
        <time>2022-05-21 00:24:35</time>
      </trkpt>
      <trkpt lat="41.79836" lon="2.00505">
        <ele>566.4</ele>
        <time>2022-05-21 00:24:36</time>
      </trkpt>
      <trkpt lat="41.79836" lon="2.00509">
        <ele>566.8</ele>
        <time>2022-05-21 00:24:37</time>
      </trkpt>
      <trkpt lat="41.79837" lon="2.00513">
        <ele>566.8</ele>
        <time>2022-05-21 00:24:38</time>
      </trkpt>
      <trkpt lat="41.79838" lon="2.00517">
        <ele>567</ele>
        <time>2022-05-21 00:24:39</time>
      </trkpt>
      <trkpt lat="41.79839" lon="2.00521">
        <ele>567.2</ele>
        <time>2022-05-21 00:24:40</time>
      </trkpt>
      <trkpt lat="41.7984" lon="2.00525">
        <ele>567.4</ele>
        <time>2022-05-21 00:24:41</time>
      </trkpt>
      <trkpt lat="41.79841" lon="2.0053">
        <ele>567.6</ele>
        <time>2022-05-21 00:24:42</time>
      </trkpt>
      <trkpt lat="41.79842" lon="2.00534">
        <ele>567.8</ele>
        <time>2022-05-21 00:24:43</time>
      </trkpt>
      <trkpt lat="41.79844" lon="2.00538">
        <ele>567.8</ele>
        <time>2022-05-21 00:24:44</time>
      </trkpt>
      <trkpt lat="41.79845" lon="2.00542">
        <ele>568</ele>
        <time>2022-05-21 00:24:45</time>
      </trkpt>
      <trkpt lat="41.79846" lon="2.00547">
        <ele>568.2</ele>
        <time>2022-05-21 00:24:46</time>
      </trkpt>
      <trkpt lat="41.79847" lon="2.00551">
        <ele>568.4</ele>
        <time>2022-05-21 00:24:47</time>
      </trkpt>
      <trkpt lat="41.79848" lon="2.00555">
        <ele>568.6</ele>
        <time>2022-05-21 00:24:48</time>
      </trkpt>
      <trkpt lat="41.7985" lon="2.0056">
        <ele>568.8</ele>
        <time>2022-05-21 00:24:49</time>
      </trkpt>
      <trkpt lat="41.7985" lon="2.00564">
        <ele>568.8</ele>
        <time>2022-05-21 00:24:50</time>
      </trkpt>
      <trkpt lat="41.79852" lon="2.00568">
        <ele>569</ele>
        <time>2022-05-21 00:24:51</time>
      </trkpt>
      <trkpt lat="41.79852" lon="2.00573">
        <ele>569.2</ele>
        <time>2022-05-21 00:24:52</time>
      </trkpt>
      <trkpt lat="41.79853" lon="2.00577">
        <ele>569.2</ele>
        <time>2022-05-21 00:24:53</time>
      </trkpt>
      <trkpt lat="41.79854" lon="2.00582">
        <ele>569.4</ele>
        <time>2022-05-21 00:24:54</time>
      </trkpt>
      <trkpt lat="41.79855" lon="2.00587">
        <ele>569.6</ele>
        <time>2022-05-21 00:24:55</time>
      </trkpt>
      <trkpt lat="41.79856" lon="2.00591">
        <ele>569.6</ele>
        <time>2022-05-21 00:24:56</time>
      </trkpt>
      <trkpt lat="41.79857" lon="2.00596">
        <ele>569.8</ele>
        <time>2022-05-21 00:24:57</time>
      </trkpt>
      <trkpt lat="41.79858" lon="2.006">
        <ele>570</ele>
        <time>2022-05-21 00:24:58</time>
      </trkpt>
      <trkpt lat="41.79859" lon="2.00605">
        <ele>570</ele>
        <time>2022-05-21 00:24:59</time>
      </trkpt>
      <trkpt lat="41.7986" lon="2.00609">
        <ele>570.2</ele>
        <time>2022-05-21 00:25:00</time>
      </trkpt>
      <trkpt lat="41.79861" lon="2.00614">
        <ele>570.4</ele>
        <time>2022-05-21 00:25:01</time>
      </trkpt>
      <trkpt lat="41.79862" lon="2.00619">
        <ele>570.6</ele>
        <time>2022-05-21 00:25:02</time>
      </trkpt>
      <trkpt lat="41.79863" lon="2.00623">
        <ele>570.8</ele>
        <time>2022-05-21 00:25:03</time>
      </trkpt>
      <trkpt lat="41.79864" lon="2.00627">
        <ele>571</ele>
        <time>2022-05-21 00:25:04</time>
      </trkpt>
      <trkpt lat="41.79865" lon="2.00632">
        <ele>571</ele>
        <time>2022-05-21 00:25:05</time>
      </trkpt>
      <trkpt lat="41.79866" lon="2.00637">
        <ele>571.2</ele>
        <time>2022-05-21 00:25:06</time>
      </trkpt>
      <trkpt lat="41.79867" lon="2.00641">
        <ele>571.4</ele>
        <time>2022-05-21 00:25:07</time>
      </trkpt>
      <trkpt lat="41.79868" lon="2.00645">
        <ele>571.4</ele>
        <time>2022-05-21 00:25:08</time>
      </trkpt>
      <trkpt lat="41.79869" lon="2.0065">
        <ele>571.6</ele>
        <time>2022-05-21 00:25:09</time>
      </trkpt>
      <trkpt lat="41.79871" lon="2.00655">
        <ele>571.8</ele>
        <time>2022-05-21 00:25:10</time>
      </trkpt>
      <trkpt lat="41.79872" lon="2.00659">
        <ele>572</ele>
        <time>2022-05-21 00:25:11</time>
      </trkpt>
      <trkpt lat="41.79873" lon="2.00664">
        <ele>572</ele>
        <time>2022-05-21 00:25:12</time>
      </trkpt>
      <trkpt lat="41.79874" lon="2.00669">
        <ele>572.2</ele>
        <time>2022-05-21 00:25:13</time>
      </trkpt>
      <trkpt lat="41.79875" lon="2.00673">
        <ele>572.4</ele>
        <time>2022-05-21 00:25:14</time>
      </trkpt>
      <trkpt lat="41.79876" lon="2.00678">
        <ele>572.6</ele>
        <time>2022-05-21 00:25:15</time>
      </trkpt>
      <trkpt lat="41.79877" lon="2.00682">
        <ele>572.6</ele>
        <time>2022-05-21 00:25:16</time>
      </trkpt>
      <trkpt lat="41.79878" lon="2.00687">
        <ele>572.8</ele>
        <time>2022-05-21 00:25:17</time>
      </trkpt>
      <trkpt lat="41.79879" lon="2.00692">
        <ele>573</ele>
        <time>2022-05-21 00:25:18</time>
      </trkpt>
      <trkpt lat="41.79881" lon="2.00696">
        <ele>573</ele>
        <time>2022-05-21 00:25:19</time>
      </trkpt>
      <trkpt lat="41.79882" lon="2.00701">
        <ele>573.2</ele>
        <time>2022-05-21 00:25:20</time>
      </trkpt>
      <trkpt lat="41.79883" lon="2.00705">
        <ele>573.4</ele>
        <time>2022-05-21 00:25:21</time>
      </trkpt>
      <trkpt lat="41.79884" lon="2.0071">
        <ele>573.6</ele>
        <time>2022-05-21 00:25:22</time>
      </trkpt>
      <trkpt lat="41.79885" lon="2.00715">
        <ele>573.8</ele>
        <time>2022-05-21 00:25:23</time>
      </trkpt>
      <trkpt lat="41.79885" lon="2.00719">
        <ele>573.8</ele>
        <time>2022-05-21 00:25:24</time>
      </trkpt>
      <trkpt lat="41.79887" lon="2.00724">
        <ele>574</ele>
        <time>2022-05-21 00:25:25</time>
      </trkpt>
      <trkpt lat="41.79888" lon="2.00729">
        <ele>574.2</ele>
        <time>2022-05-21 00:25:26</time>
      </trkpt>
      <trkpt lat="41.79889" lon="2.00733">
        <ele>574.4</ele>
        <time>2022-05-21 00:25:27</time>
      </trkpt>
      <trkpt lat="41.7989" lon="2.00737">
        <ele>574.4</ele>
        <time>2022-05-21 00:25:28</time>
      </trkpt>
      <trkpt lat="41.79891" lon="2.00742">
        <ele>574.6</ele>
        <time>2022-05-21 00:25:29</time>
      </trkpt>
      <trkpt lat="41.79892" lon="2.00746">
        <ele>574.8</ele>
        <time>2022-05-21 00:25:30</time>
      </trkpt>
      <trkpt lat="41.79893" lon="2.00751">
        <ele>575</ele>
        <time>2022-05-21 00:25:31</time>
      </trkpt>
      <trkpt lat="41.79895" lon="2.00755">
        <ele>575.2</ele>
        <time>2022-05-21 00:25:32</time>
      </trkpt>
      <trkpt lat="41.79896" lon="2.0076">
        <ele>575.4</ele>
        <time>2022-05-21 00:25:33</time>
      </trkpt>
      <trkpt lat="41.79897" lon="2.00764">
        <ele>575.6</ele>
        <time>2022-05-21 00:25:34</time>
      </trkpt>
      <trkpt lat="41.79897" lon="2.00769">
        <ele>575.8</ele>
        <time>2022-05-21 00:25:35</time>
      </trkpt>
      <trkpt lat="41.79898" lon="2.00773">
        <ele>576</ele>
        <time>2022-05-21 00:25:36</time>
      </trkpt>
      <trkpt lat="41.79899" lon="2.00778">
        <ele>576.2</ele>
        <time>2022-05-21 00:25:37</time>
      </trkpt>
      <trkpt lat="41.799" lon="2.00782">
        <ele>576.4</ele>
        <time>2022-05-21 00:25:38</time>
      </trkpt>
      <trkpt lat="41.79901" lon="2.00786">
        <ele>576.6</ele>
        <time>2022-05-21 00:25:39</time>
      </trkpt>
      <trkpt lat="41.79902" lon="2.0079">
        <ele>576.8</ele>
        <time>2022-05-21 00:25:40</time>
      </trkpt>
      <trkpt lat="41.79903" lon="2.00794">
        <ele>577</ele>
        <time>2022-05-21 00:25:41</time>
      </trkpt>
      <trkpt lat="41.79905" lon="2.00799">
        <ele>577</ele>
        <time>2022-05-21 00:25:42</time>
      </trkpt>
      <trkpt lat="41.79906" lon="2.00803">
        <ele>577.2</ele>
        <time>2022-05-21 00:25:43</time>
      </trkpt>
      <trkpt lat="41.79907" lon="2.00807">
        <ele>577.4</ele>
        <time>2022-05-21 00:25:44</time>
      </trkpt>
      <trkpt lat="41.79908" lon="2.00811">
        <ele>577.8</ele>
        <time>2022-05-21 00:25:45</time>
      </trkpt>
      <trkpt lat="41.79908" lon="2.00815">
        <ele>578</ele>
        <time>2022-05-21 00:25:46</time>
      </trkpt>
      <trkpt lat="41.7991" lon="2.0082">
        <ele>578.2</ele>
        <time>2022-05-21 00:25:47</time>
      </trkpt>
      <trkpt lat="41.7991" lon="2.00824">
        <ele>578.4</ele>
        <time>2022-05-21 00:25:48</time>
      </trkpt>
      <trkpt lat="41.79911" lon="2.00828">
        <ele>578.6</ele>
        <time>2022-05-21 00:25:49</time>
      </trkpt>
      <trkpt lat="41.79913" lon="2.00833">
        <ele>578.8</ele>
        <time>2022-05-21 00:25:50</time>
      </trkpt>
      <trkpt lat="41.79913" lon="2.00837">
        <ele>579</ele>
        <time>2022-05-21 00:25:51</time>
      </trkpt>
      <trkpt lat="41.79914" lon="2.00842">
        <ele>579.2</ele>
        <time>2022-05-21 00:25:52</time>
      </trkpt>
      <trkpt lat="41.79915" lon="2.00846">
        <ele>579.2</ele>
        <time>2022-05-21 00:25:53</time>
      </trkpt>
      <trkpt lat="41.79916" lon="2.0085">
        <ele>579.4</ele>
        <time>2022-05-21 00:25:54</time>
      </trkpt>
      <trkpt lat="41.79918" lon="2.00855">
        <ele>579.6</ele>
        <time>2022-05-21 00:25:55</time>
      </trkpt>
      <trkpt lat="41.79919" lon="2.00859">
        <ele>579.8</ele>
        <time>2022-05-21 00:25:56</time>
      </trkpt>
      <trkpt lat="41.79919" lon="2.00863">
        <ele>580</ele>
        <time>2022-05-21 00:25:57</time>
      </trkpt>
      <trkpt lat="41.7992" lon="2.00868">
        <ele>580.2</ele>
        <time>2022-05-21 00:25:58</time>
      </trkpt>
      <trkpt lat="41.79921" lon="2.00872">
        <ele>580.4</ele>
        <time>2022-05-21 00:25:59</time>
      </trkpt>
      <trkpt lat="41.79922" lon="2.00877">
        <ele>580.6</ele>
        <time>2022-05-21 00:26:00</time>
      </trkpt>
      <trkpt lat="41.79924" lon="2.00881">
        <ele>580.8</ele>
        <time>2022-05-21 00:26:01</time>
      </trkpt>
      <trkpt lat="41.79925" lon="2.00885">
        <ele>581</ele>
        <time>2022-05-21 00:26:02</time>
      </trkpt>
      <trkpt lat="41.79926" lon="2.0089">
        <ele>581</ele>
        <time>2022-05-21 00:26:03</time>
      </trkpt>
      <trkpt lat="41.79928" lon="2.00894">
        <ele>581.2</ele>
        <time>2022-05-21 00:26:04</time>
      </trkpt>
      <trkpt lat="41.79929" lon="2.00898">
        <ele>581.4</ele>
        <time>2022-05-21 00:26:05</time>
      </trkpt>
      <trkpt lat="41.7993" lon="2.00902">
        <ele>581.6</ele>
        <time>2022-05-21 00:26:06</time>
      </trkpt>
      <trkpt lat="41.79931" lon="2.00906">
        <ele>581.8</ele>
        <time>2022-05-21 00:26:07</time>
      </trkpt>
      <trkpt lat="41.79932" lon="2.00911">
        <ele>582</ele>
        <time>2022-05-21 00:26:08</time>
      </trkpt>
      <trkpt lat="41.79932" lon="2.00915">
        <ele>582.2</ele>
        <time>2022-05-21 00:26:09</time>
      </trkpt>
      <trkpt lat="41.79934" lon="2.0092">
        <ele>582.2</ele>
        <time>2022-05-21 00:26:10</time>
      </trkpt>
      <trkpt lat="41.79934" lon="2.00924">
        <ele>582.4</ele>
        <time>2022-05-21 00:26:11</time>
      </trkpt>
      <trkpt lat="41.79935" lon="2.00929">
        <ele>582.6</ele>
        <time>2022-05-21 00:26:12</time>
      </trkpt>
      <trkpt lat="41.79936" lon="2.00933">
        <ele>582.8</ele>
        <time>2022-05-21 00:26:13</time>
      </trkpt>
      <trkpt lat="41.79937" lon="2.00938">
        <ele>583</ele>
        <time>2022-05-21 00:26:14</time>
      </trkpt>
      <trkpt lat="41.79939" lon="2.00942">
        <ele>583.2</ele>
        <time>2022-05-21 00:26:15</time>
      </trkpt>
      <trkpt lat="41.79939" lon="2.00947">
        <ele>583.4</ele>
        <time>2022-05-21 00:26:16</time>
      </trkpt>
      <trkpt lat="41.7994" lon="2.00951">
        <ele>583.4</ele>
        <time>2022-05-21 00:26:17</time>
      </trkpt>
      <trkpt lat="41.79942" lon="2.00955">
        <ele>583.6</ele>
        <time>2022-05-21 00:26:18</time>
      </trkpt>
      <trkpt lat="41.79943" lon="2.00959">
        <ele>583.8</ele>
        <time>2022-05-21 00:26:19</time>
      </trkpt>
      <trkpt lat="41.79945" lon="2.00964">
        <ele>584</ele>
        <time>2022-05-21 00:26:20</time>
      </trkpt>
      <trkpt lat="41.79946" lon="2.00968">
        <ele>584.2</ele>
        <time>2022-05-21 00:26:21</time>
      </trkpt>
      <trkpt lat="41.79947" lon="2.00972">
        <ele>584.2</ele>
        <time>2022-05-21 00:26:22</time>
      </trkpt>
      <trkpt lat="41.79948" lon="2.00976">
        <ele>584.4</ele>
        <time>2022-05-21 00:26:23</time>
      </trkpt>
      <trkpt lat="41.79948" lon="2.00981">
        <ele>584.4</ele>
        <time>2022-05-21 00:26:24</time>
      </trkpt>
      <trkpt lat="41.7995" lon="2.00986">
        <ele>584.6</ele>
        <time>2022-05-21 00:26:25</time>
      </trkpt>
      <trkpt lat="41.79951" lon="2.0099">
        <ele>584.6</ele>
        <time>2022-05-21 00:26:26</time>
      </trkpt>
      <trkpt lat="41.79952" lon="2.00995">
        <ele>584.8</ele>
        <time>2022-05-21 00:26:27</time>
      </trkpt>
      <trkpt lat="41.79953" lon="2.01">
        <ele>584.8</ele>
        <time>2022-05-21 00:26:28</time>
      </trkpt>
      <trkpt lat="41.79954" lon="2.01006">
        <ele>584.8</ele>
        <time>2022-05-21 00:26:29</time>
      </trkpt>
      <trkpt lat="41.79955" lon="2.01011">
        <ele>585</ele>
        <time>2022-05-21 00:26:30</time>
      </trkpt>
      <trkpt lat="41.79956" lon="2.01017">
        <ele>585</ele>
        <time>2022-05-21 00:26:31</time>
      </trkpt>
      <trkpt lat="41.79957" lon="2.01022">
        <ele>585</ele>
        <time>2022-05-21 00:26:32</time>
      </trkpt>
      <trkpt lat="41.79958" lon="2.01027">
        <ele>585.2</ele>
        <time>2022-05-21 00:26:33</time>
      </trkpt>
      <trkpt lat="41.7996" lon="2.01033">
        <ele>585.2</ele>
        <time>2022-05-21 00:26:34</time>
      </trkpt>
      <trkpt lat="41.79961" lon="2.01038">
        <ele>585.2</ele>
        <time>2022-05-21 00:26:35</time>
      </trkpt>
      <trkpt lat="41.79963" lon="2.01043">
        <ele>585.2</ele>
        <time>2022-05-21 00:26:36</time>
      </trkpt>
      <trkpt lat="41.79964" lon="2.01049">
        <ele>585.2</ele>
        <time>2022-05-21 00:26:37</time>
      </trkpt>
      <trkpt lat="41.79965" lon="2.01055">
        <ele>585.2</ele>
        <time>2022-05-21 00:26:38</time>
      </trkpt>
      <trkpt lat="41.79966" lon="2.0106">
        <ele>585.2</ele>
        <time>2022-05-21 00:26:39</time>
      </trkpt>
      <trkpt lat="41.79967" lon="2.01066">
        <ele>585.2</ele>
        <time>2022-05-21 00:26:40</time>
      </trkpt>
      <trkpt lat="41.79969" lon="2.01071">
        <ele>585.4</ele>
        <time>2022-05-21 00:26:41</time>
      </trkpt>
      <trkpt lat="41.7997" lon="2.01077">
        <ele>585.4</ele>
        <time>2022-05-21 00:26:42</time>
      </trkpt>
      <trkpt lat="41.79971" lon="2.01082">
        <ele>585.4</ele>
        <time>2022-05-21 00:26:43</time>
      </trkpt>
      <trkpt lat="41.79972" lon="2.01088">
        <ele>585.4</ele>
        <time>2022-05-21 00:26:44</time>
      </trkpt>
      <trkpt lat="41.79974" lon="2.01094">
        <ele>585.4</ele>
        <time>2022-05-21 00:26:45</time>
      </trkpt>
      <trkpt lat="41.79975" lon="2.01099">
        <ele>585.4</ele>
        <time>2022-05-21 00:26:46</time>
      </trkpt>
      <trkpt lat="41.79976" lon="2.01105">
        <ele>585.4</ele>
        <time>2022-05-21 00:26:47</time>
      </trkpt>
      <trkpt lat="41.79978" lon="2.01111">
        <ele>585.4</ele>
        <time>2022-05-21 00:26:48</time>
      </trkpt>
      <trkpt lat="41.79979" lon="2.01117">
        <ele>585.4</ele>
        <time>2022-05-21 00:26:49</time>
      </trkpt>
      <trkpt lat="41.79981" lon="2.01122">
        <ele>585.6</ele>
        <time>2022-05-21 00:26:50</time>
      </trkpt>
      <trkpt lat="41.79982" lon="2.01128">
        <ele>585.4</ele>
        <time>2022-05-21 00:26:51</time>
      </trkpt>
      <trkpt lat="41.79984" lon="2.01133">
        <ele>585.6</ele>
        <time>2022-05-21 00:26:52</time>
      </trkpt>
      <trkpt lat="41.79985" lon="2.01139">
        <ele>585.6</ele>
        <time>2022-05-21 00:26:53</time>
      </trkpt>
      <trkpt lat="41.79986" lon="2.01145">
        <ele>585.8</ele>
        <time>2022-05-21 00:26:54</time>
      </trkpt>
      <trkpt lat="41.79987" lon="2.0115">
        <ele>585.8</ele>
        <time>2022-05-21 00:26:55</time>
      </trkpt>
      <trkpt lat="41.79989" lon="2.01156">
        <ele>585.8</ele>
        <time>2022-05-21 00:26:56</time>
      </trkpt>
      <trkpt lat="41.7999" lon="2.01161">
        <ele>586</ele>
        <time>2022-05-21 00:26:57</time>
      </trkpt>
      <trkpt lat="41.79992" lon="2.01167">
        <ele>586</ele>
        <time>2022-05-21 00:26:58</time>
      </trkpt>
      <trkpt lat="41.79993" lon="2.01172">
        <ele>586.2</ele>
        <time>2022-05-21 00:26:59</time>
      </trkpt>
      <trkpt lat="41.79994" lon="2.01177">
        <ele>586.2</ele>
        <time>2022-05-21 00:27:00</time>
      </trkpt>
      <trkpt lat="41.79995" lon="2.01182">
        <ele>586.4</ele>
        <time>2022-05-21 00:27:01</time>
      </trkpt>
      <trkpt lat="41.79996" lon="2.01188">
        <ele>586.6</ele>
        <time>2022-05-21 00:27:02</time>
      </trkpt>
      <trkpt lat="41.79998" lon="2.01193">
        <ele>586.8</ele>
        <time>2022-05-21 00:27:03</time>
      </trkpt>
      <trkpt lat="41.79999" lon="2.01198">
        <ele>587</ele>
        <time>2022-05-21 00:27:04</time>
      </trkpt>
      <trkpt lat="41.8" lon="2.01203">
        <ele>587</ele>
        <time>2022-05-21 00:27:05</time>
      </trkpt>
      <trkpt lat="41.80001" lon="2.01209">
        <ele>587.2</ele>
        <time>2022-05-21 00:27:06</time>
      </trkpt>
      <trkpt lat="41.80001" lon="2.01214">
        <ele>587.4</ele>
        <time>2022-05-21 00:27:07</time>
      </trkpt>
      <trkpt lat="41.80003" lon="2.01219">
        <ele>587.6</ele>
        <time>2022-05-21 00:27:08</time>
      </trkpt>
      <trkpt lat="41.80005" lon="2.01224">
        <ele>587.6</ele>
        <time>2022-05-21 00:27:09</time>
      </trkpt>
      <trkpt lat="41.80006" lon="2.01229">
        <ele>587.8</ele>
        <time>2022-05-21 00:27:10</time>
      </trkpt>
      <trkpt lat="41.80007" lon="2.01234">
        <ele>587.8</ele>
        <time>2022-05-21 00:27:11</time>
      </trkpt>
      <trkpt lat="41.80008" lon="2.01239">
        <ele>588</ele>
        <time>2022-05-21 00:27:12</time>
      </trkpt>
      <trkpt lat="41.80009" lon="2.01244">
        <ele>588</ele>
        <time>2022-05-21 00:27:13</time>
      </trkpt>
      <trkpt lat="41.80011" lon="2.0125">
        <ele>588.2</ele>
        <time>2022-05-21 00:27:14</time>
      </trkpt>
      <trkpt lat="41.80012" lon="2.01255">
        <ele>588.4</ele>
        <time>2022-05-21 00:27:15</time>
      </trkpt>
      <trkpt lat="41.80013" lon="2.0126">
        <ele>588.4</ele>
        <time>2022-05-21 00:27:16</time>
      </trkpt>
      <trkpt lat="41.80014" lon="2.01265">
        <ele>588.6</ele>
        <time>2022-05-21 00:27:17</time>
      </trkpt>
      <trkpt lat="41.80016" lon="2.0127">
        <ele>588.8</ele>
        <time>2022-05-21 00:27:18</time>
      </trkpt>
      <trkpt lat="41.80017" lon="2.01275">
        <ele>588.8</ele>
        <time>2022-05-21 00:27:19</time>
      </trkpt>
      <trkpt lat="41.80018" lon="2.0128">
        <ele>589</ele>
        <time>2022-05-21 00:27:20</time>
      </trkpt>
      <trkpt lat="41.80019" lon="2.01285">
        <ele>589</ele>
        <time>2022-05-21 00:27:21</time>
      </trkpt>
      <trkpt lat="41.80021" lon="2.01291">
        <ele>589.2</ele>
        <time>2022-05-21 00:27:22</time>
      </trkpt>
      <trkpt lat="41.80022" lon="2.01296">
        <ele>589.4</ele>
        <time>2022-05-21 00:27:23</time>
      </trkpt>
      <trkpt lat="41.80023" lon="2.01302">
        <ele>589.4</ele>
        <time>2022-05-21 00:27:24</time>
      </trkpt>
      <trkpt lat="41.80025" lon="2.01307">
        <ele>589.4</ele>
        <time>2022-05-21 00:27:25</time>
      </trkpt>
      <trkpt lat="41.80026" lon="2.01313">
        <ele>589.4</ele>
        <time>2022-05-21 00:27:26</time>
      </trkpt>
      <trkpt lat="41.80027" lon="2.0132">
        <ele>589.4</ele>
        <time>2022-05-21 00:27:27</time>
      </trkpt>
      <trkpt lat="41.80029" lon="2.01326">
        <ele>589.4</ele>
        <time>2022-05-21 00:27:28</time>
      </trkpt>
      <trkpt lat="41.8003" lon="2.01333">
        <ele>589.4</ele>
        <time>2022-05-21 00:27:29</time>
      </trkpt>
      <trkpt lat="41.80032" lon="2.0134">
        <ele>589.2</ele>
        <time>2022-05-21 00:27:30</time>
      </trkpt>
      <trkpt lat="41.80034" lon="2.01347">
        <ele>589.2</ele>
        <time>2022-05-21 00:27:31</time>
      </trkpt>
      <trkpt lat="41.80036" lon="2.01354">
        <ele>589</ele>
        <time>2022-05-21 00:27:32</time>
      </trkpt>
      <trkpt lat="41.80038" lon="2.01361">
        <ele>588.8</ele>
        <time>2022-05-21 00:27:33</time>
      </trkpt>
      <trkpt lat="41.8004" lon="2.01368">
        <ele>588.8</ele>
        <time>2022-05-21 00:27:34</time>
      </trkpt>
      <trkpt lat="41.80042" lon="2.01376">
        <ele>588.6</ele>
        <time>2022-05-21 00:27:35</time>
      </trkpt>
      <trkpt lat="41.80043" lon="2.01383">
        <ele>588.4</ele>
        <time>2022-05-21 00:27:36</time>
      </trkpt>
      <trkpt lat="41.80045" lon="2.01391">
        <ele>588.2</ele>
        <time>2022-05-21 00:27:37</time>
      </trkpt>
      <trkpt lat="41.80047" lon="2.01399">
        <ele>588.2</ele>
        <time>2022-05-21 00:27:38</time>
      </trkpt>
      <trkpt lat="41.80049" lon="2.01407">
        <ele>588</ele>
        <time>2022-05-21 00:27:39</time>
      </trkpt>
      <trkpt lat="41.8005" lon="2.01415">
        <ele>587.8</ele>
        <time>2022-05-21 00:27:40</time>
      </trkpt>
      <trkpt lat="41.80052" lon="2.01422">
        <ele>587.6</ele>
        <time>2022-05-21 00:27:41</time>
      </trkpt>
      <trkpt lat="41.80054" lon="2.0143">
        <ele>587.4</ele>
        <time>2022-05-21 00:27:42</time>
      </trkpt>
      <trkpt lat="41.80056" lon="2.01439">
        <ele>587.2</ele>
        <time>2022-05-21 00:27:43</time>
      </trkpt>
      <trkpt lat="41.80058" lon="2.01446">
        <ele>587.2</ele>
        <time>2022-05-21 00:27:44</time>
      </trkpt>
      <trkpt lat="41.8006" lon="2.01454">
        <ele>587</ele>
        <time>2022-05-21 00:27:45</time>
      </trkpt>
      <trkpt lat="41.80061" lon="2.01462">
        <ele>587</ele>
        <time>2022-05-21 00:27:46</time>
      </trkpt>
      <trkpt lat="41.80062" lon="2.0147">
        <ele>586.8</ele>
        <time>2022-05-21 00:27:47</time>
      </trkpt>
      <trkpt lat="41.80062" lon="2.01478">
        <ele>586.8</ele>
        <time>2022-05-21 00:27:48</time>
      </trkpt>
      <trkpt lat="41.80063" lon="2.01485">
        <ele>586.8</ele>
        <time>2022-05-21 00:27:49</time>
      </trkpt>
      <trkpt lat="41.80064" lon="2.01492">
        <ele>586.8</ele>
        <time>2022-05-21 00:27:50</time>
      </trkpt>
      <trkpt lat="41.80063" lon="2.01499">
        <ele>587</ele>
        <time>2022-05-21 00:27:51</time>
      </trkpt>
      <trkpt lat="41.80063" lon="2.01505">
        <ele>587</ele>
        <time>2022-05-21 00:27:52</time>
      </trkpt>
      <trkpt lat="41.80062" lon="2.01513">
        <ele>587</ele>
        <time>2022-05-21 00:27:53</time>
      </trkpt>
      <trkpt lat="41.80062" lon="2.01519">
        <ele>587</ele>
        <time>2022-05-21 00:27:54</time>
      </trkpt>
      <trkpt lat="41.80061" lon="2.01526">
        <ele>587</ele>
        <time>2022-05-21 00:27:55</time>
      </trkpt>
      <trkpt lat="41.80061" lon="2.01532">
        <ele>587</ele>
        <time>2022-05-21 00:27:56</time>
      </trkpt>
      <trkpt lat="41.8006" lon="2.01538">
        <ele>587.2</ele>
        <time>2022-05-21 00:27:57</time>
      </trkpt>
      <trkpt lat="41.80059" lon="2.01545">
        <ele>587.2</ele>
        <time>2022-05-21 00:27:58</time>
      </trkpt>
      <trkpt lat="41.80059" lon="2.01551">
        <ele>587.4</ele>
        <time>2022-05-21 00:27:59</time>
      </trkpt>
      <trkpt lat="41.80058" lon="2.01557">
        <ele>587.4</ele>
        <time>2022-05-21 00:28:00</time>
      </trkpt>
      <trkpt lat="41.80057" lon="2.01563">
        <ele>587.6</ele>
        <time>2022-05-21 00:28:01</time>
      </trkpt>
      <trkpt lat="41.80056" lon="2.01568">
        <ele>587.8</ele>
        <time>2022-05-21 00:28:02</time>
      </trkpt>
      <trkpt lat="41.80055" lon="2.01573">
        <ele>587.8</ele>
        <time>2022-05-21 00:28:03</time>
      </trkpt>
      <trkpt lat="41.80055" lon="2.01579">
        <ele>588</ele>
        <time>2022-05-21 00:28:04</time>
      </trkpt>
      <trkpt lat="41.80054" lon="2.01584">
        <ele>588.2</ele>
        <time>2022-05-21 00:28:05</time>
      </trkpt>
      <trkpt lat="41.80053" lon="2.01589">
        <ele>588.2</ele>
        <time>2022-05-21 00:28:06</time>
      </trkpt>
      <trkpt lat="41.80053" lon="2.01594">
        <ele>588.4</ele>
        <time>2022-05-21 00:28:07</time>
      </trkpt>
      <trkpt lat="41.80052" lon="2.016">
        <ele>588.4</ele>
        <time>2022-05-21 00:28:08</time>
      </trkpt>
      <trkpt lat="41.80052" lon="2.01605">
        <ele>588.6</ele>
        <time>2022-05-21 00:28:09</time>
      </trkpt>
      <trkpt lat="41.80051" lon="2.0161">
        <ele>588.8</ele>
        <time>2022-05-21 00:28:10</time>
      </trkpt>
      <trkpt lat="41.8005" lon="2.01616">
        <ele>589</ele>
        <time>2022-05-21 00:28:11</time>
      </trkpt>
      <trkpt lat="41.8005" lon="2.01621">
        <ele>589.2</ele>
        <time>2022-05-21 00:28:12</time>
      </trkpt>
      <trkpt lat="41.80049" lon="2.01627">
        <ele>589.2</ele>
        <time>2022-05-21 00:28:13</time>
      </trkpt>
      <trkpt lat="41.80049" lon="2.01632">
        <ele>589.4</ele>
        <time>2022-05-21 00:28:14</time>
      </trkpt>
      <trkpt lat="41.80048" lon="2.01637">
        <ele>589.6</ele>
        <time>2022-05-21 00:28:15</time>
      </trkpt>
      <trkpt lat="41.80048" lon="2.01642">
        <ele>589.8</ele>
        <time>2022-05-21 00:28:16</time>
      </trkpt>
      <trkpt lat="41.80047" lon="2.01647">
        <ele>589.8</ele>
        <time>2022-05-21 00:28:17</time>
      </trkpt>
      <trkpt lat="41.80046" lon="2.01652">
        <ele>590</ele>
        <time>2022-05-21 00:28:18</time>
      </trkpt>
      <trkpt lat="41.80046" lon="2.01657">
        <ele>590.2</ele>
        <time>2022-05-21 00:28:19</time>
      </trkpt>
      <trkpt lat="41.80045" lon="2.01662">
        <ele>590.4</ele>
        <time>2022-05-21 00:28:20</time>
      </trkpt>
      <trkpt lat="41.80045" lon="2.01667">
        <ele>590.4</ele>
        <time>2022-05-21 00:28:21</time>
      </trkpt>
      <trkpt lat="41.80044" lon="2.01673">
        <ele>590.6</ele>
        <time>2022-05-21 00:28:22</time>
      </trkpt>
      <trkpt lat="41.80044" lon="2.01678">
        <ele>590.8</ele>
        <time>2022-05-21 00:28:23</time>
      </trkpt>
      <trkpt lat="41.80044" lon="2.01684">
        <ele>591</ele>
        <time>2022-05-21 00:28:24</time>
      </trkpt>
      <trkpt lat="41.80043" lon="2.01689">
        <ele>591.2</ele>
        <time>2022-05-21 00:28:25</time>
      </trkpt>
      <trkpt lat="41.80043" lon="2.01695">
        <ele>591.4</ele>
        <time>2022-05-21 00:28:26</time>
      </trkpt>
      <trkpt lat="41.80043" lon="2.017">
        <ele>591.4</ele>
        <time>2022-05-21 00:28:27</time>
      </trkpt>
      <trkpt lat="41.80043" lon="2.01705">
        <ele>591.6</ele>
        <time>2022-05-21 00:28:28</time>
      </trkpt>
      <trkpt lat="41.80044" lon="2.01711">
        <ele>591.8</ele>
        <time>2022-05-21 00:28:29</time>
      </trkpt>
      <trkpt lat="41.80044" lon="2.01716">
        <ele>592</ele>
        <time>2022-05-21 00:28:30</time>
      </trkpt>
      <trkpt lat="41.80044" lon="2.01721">
        <ele>592.2</ele>
        <time>2022-05-21 00:28:31</time>
      </trkpt>
      <trkpt lat="41.80044" lon="2.01727">
        <ele>592.4</ele>
        <time>2022-05-21 00:28:32</time>
      </trkpt>
      <trkpt lat="41.80044" lon="2.01732">
        <ele>592.4</ele>
        <time>2022-05-21 00:28:33</time>
      </trkpt>
      <trkpt lat="41.80045" lon="2.01738">
        <ele>592.6</ele>
        <time>2022-05-21 00:28:34</time>
      </trkpt>
      <trkpt lat="41.80046" lon="2.01743">
        <ele>592.8</ele>
        <time>2022-05-21 00:28:35</time>
      </trkpt>
      <trkpt lat="41.80046" lon="2.01749">
        <ele>593</ele>
        <time>2022-05-21 00:28:36</time>
      </trkpt>
      <trkpt lat="41.80047" lon="2.01754">
        <ele>593</ele>
        <time>2022-05-21 00:28:37</time>
      </trkpt>
      <trkpt lat="41.80048" lon="2.01759">
        <ele>593.2</ele>
        <time>2022-05-21 00:28:38</time>
      </trkpt>
      <trkpt lat="41.80049" lon="2.01765">
        <ele>593.4</ele>
        <time>2022-05-21 00:28:39</time>
      </trkpt>
      <trkpt lat="41.8005" lon="2.0177">
        <ele>593.4</ele>
        <time>2022-05-21 00:28:40</time>
      </trkpt>
      <trkpt lat="41.8005" lon="2.01776">
        <ele>593.6</ele>
        <time>2022-05-21 00:28:41</time>
      </trkpt>
      <trkpt lat="41.80051" lon="2.01781">
        <ele>593.8</ele>
        <time>2022-05-21 00:28:42</time>
      </trkpt>
      <trkpt lat="41.80053" lon="2.01786">
        <ele>593.8</ele>
        <time>2022-05-21 00:28:43</time>
      </trkpt>
      <trkpt lat="41.80054" lon="2.01791">
        <ele>594</ele>
        <time>2022-05-21 00:28:44</time>
      </trkpt>
      <trkpt lat="41.80056" lon="2.01796">
        <ele>594</ele>
        <time>2022-05-21 00:28:45</time>
      </trkpt>
      <trkpt lat="41.80058" lon="2.01802">
        <ele>594.2</ele>
        <time>2022-05-21 00:28:46</time>
      </trkpt>
      <trkpt lat="41.8006" lon="2.01807">
        <ele>594.4</ele>
        <time>2022-05-21 00:28:47</time>
      </trkpt>
      <trkpt lat="41.80062" lon="2.01812">
        <ele>594.4</ele>
        <time>2022-05-21 00:28:48</time>
      </trkpt>
      <trkpt lat="41.80064" lon="2.01817">
        <ele>594.4</ele>
        <time>2022-05-21 00:28:49</time>
      </trkpt>
      <trkpt lat="41.80066" lon="2.01823">
        <ele>594.6</ele>
        <time>2022-05-21 00:28:50</time>
      </trkpt>
      <trkpt lat="41.80067" lon="2.01828">
        <ele>594.6</ele>
        <time>2022-05-21 00:28:51</time>
      </trkpt>
      <trkpt lat="41.80069" lon="2.01834">
        <ele>594.8</ele>
        <time>2022-05-21 00:28:52</time>
      </trkpt>
      <trkpt lat="41.80071" lon="2.01839">
        <ele>594.8</ele>
        <time>2022-05-21 00:28:53</time>
      </trkpt>
      <trkpt lat="41.80073" lon="2.01845">
        <ele>595</ele>
        <time>2022-05-21 00:28:54</time>
      </trkpt>
      <trkpt lat="41.80075" lon="2.0185">
        <ele>595</ele>
        <time>2022-05-21 00:28:55</time>
      </trkpt>
      <trkpt lat="41.80077" lon="2.01855">
        <ele>595.2</ele>
        <time>2022-05-21 00:28:56</time>
      </trkpt>
      <trkpt lat="41.80079" lon="2.01861">
        <ele>595.4</ele>
        <time>2022-05-21 00:28:57</time>
      </trkpt>
      <trkpt lat="41.80081" lon="2.01866">
        <ele>595.6</ele>
        <time>2022-05-21 00:28:58</time>
      </trkpt>
      <trkpt lat="41.80083" lon="2.01871">
        <ele>595.6</ele>
        <time>2022-05-21 00:28:59</time>
      </trkpt>
      <trkpt lat="41.80085" lon="2.01876">
        <ele>595.8</ele>
        <time>2022-05-21 00:29:00</time>
      </trkpt>
      <trkpt lat="41.80087" lon="2.01881">
        <ele>595.8</ele>
        <time>2022-05-21 00:29:01</time>
      </trkpt>
      <trkpt lat="41.80089" lon="2.01886">
        <ele>596</ele>
        <time>2022-05-21 00:29:02</time>
      </trkpt>
      <trkpt lat="41.80091" lon="2.01892">
        <ele>596</ele>
        <time>2022-05-21 00:29:03</time>
      </trkpt>
      <trkpt lat="41.80093" lon="2.01897">
        <ele>596.2</ele>
        <time>2022-05-21 00:29:04</time>
      </trkpt>
      <trkpt lat="41.80095" lon="2.01902">
        <ele>596.2</ele>
        <time>2022-05-21 00:29:05</time>
      </trkpt>
      <trkpt lat="41.80097" lon="2.01907">
        <ele>596.4</ele>
        <time>2022-05-21 00:29:06</time>
      </trkpt>
      <trkpt lat="41.80099" lon="2.01913">
        <ele>596.6</ele>
        <time>2022-05-21 00:29:07</time>
      </trkpt>
      <trkpt lat="41.80101" lon="2.01918">
        <ele>596.6</ele>
        <time>2022-05-21 00:29:08</time>
      </trkpt>
      <trkpt lat="41.80103" lon="2.01924">
        <ele>596.8</ele>
        <time>2022-05-21 00:29:09</time>
      </trkpt>
      <trkpt lat="41.80104" lon="2.01929">
        <ele>597</ele>
        <time>2022-05-21 00:29:10</time>
      </trkpt>
      <trkpt lat="41.80106" lon="2.01935">
        <ele>597.2</ele>
        <time>2022-05-21 00:29:11</time>
      </trkpt>
      <trkpt lat="41.80108" lon="2.0194">
        <ele>597.2</ele>
        <time>2022-05-21 00:29:12</time>
      </trkpt>
      <trkpt lat="41.8011" lon="2.01946">
        <ele>597.4</ele>
        <time>2022-05-21 00:29:13</time>
      </trkpt>
      <trkpt lat="41.80112" lon="2.01951">
        <ele>597.4</ele>
        <time>2022-05-21 00:29:14</time>
      </trkpt>
      <trkpt lat="41.80114" lon="2.01957">
        <ele>597.6</ele>
        <time>2022-05-21 00:29:15</time>
      </trkpt>
      <trkpt lat="41.80116" lon="2.01962">
        <ele>597.6</ele>
        <time>2022-05-21 00:29:16</time>
      </trkpt>
      <trkpt lat="41.80117" lon="2.01967">
        <ele>597.8</ele>
        <time>2022-05-21 00:29:17</time>
      </trkpt>
      <trkpt lat="41.8012" lon="2.01973">
        <ele>598</ele>
        <time>2022-05-21 00:29:18</time>
      </trkpt>
      <trkpt lat="41.80122" lon="2.01978">
        <ele>598</ele>
        <time>2022-05-21 00:29:19</time>
      </trkpt>
      <trkpt lat="41.80124" lon="2.01983">
        <ele>598.2</ele>
        <time>2022-05-21 00:29:20</time>
      </trkpt>
      <trkpt lat="41.80125" lon="2.01988">
        <ele>598.4</ele>
        <time>2022-05-21 00:29:21</time>
      </trkpt>
      <trkpt lat="41.80127" lon="2.01993">
        <ele>598.4</ele>
        <time>2022-05-21 00:29:22</time>
      </trkpt>
      <trkpt lat="41.80129" lon="2.01998">
        <ele>598.6</ele>
        <time>2022-05-21 00:29:23</time>
      </trkpt>
      <trkpt lat="41.80131" lon="2.02003">
        <ele>598.8</ele>
        <time>2022-05-21 00:29:24</time>
      </trkpt>
      <trkpt lat="41.80133" lon="2.02008">
        <ele>599</ele>
        <time>2022-05-21 00:29:25</time>
      </trkpt>
      <trkpt lat="41.80135" lon="2.02014">
        <ele>599</ele>
        <time>2022-05-21 00:29:26</time>
      </trkpt>
      <trkpt lat="41.80137" lon="2.02019">
        <ele>599.2</ele>
        <time>2022-05-21 00:29:27</time>
      </trkpt>
      <trkpt lat="41.80138" lon="2.02024">
        <ele>599.4</ele>
        <time>2022-05-21 00:29:28</time>
      </trkpt>
      <trkpt lat="41.8014" lon="2.02029">
        <ele>599.4</ele>
        <time>2022-05-21 00:29:29</time>
      </trkpt>
      <trkpt lat="41.80142" lon="2.02034">
        <ele>599.6</ele>
        <time>2022-05-21 00:29:30</time>
      </trkpt>
      <trkpt lat="41.80144" lon="2.02039">
        <ele>599.8</ele>
        <time>2022-05-21 00:29:31</time>
      </trkpt>
      <trkpt lat="41.80145" lon="2.02044">
        <ele>599.8</ele>
        <time>2022-05-21 00:29:32</time>
      </trkpt>
      <trkpt lat="41.80147" lon="2.02049">
        <ele>600</ele>
        <time>2022-05-21 00:29:33</time>
      </trkpt>
      <trkpt lat="41.80149" lon="2.02054">
        <ele>600.2</ele>
        <time>2022-05-21 00:29:34</time>
      </trkpt>
      <trkpt lat="41.80151" lon="2.02059">
        <ele>600.4</ele>
        <time>2022-05-21 00:29:35</time>
      </trkpt>
      <trkpt lat="41.80152" lon="2.02064">
        <ele>600.6</ele>
        <time>2022-05-21 00:29:36</time>
      </trkpt>
      <trkpt lat="41.80154" lon="2.02069">
        <ele>600.8</ele>
        <time>2022-05-21 00:29:37</time>
      </trkpt>
      <trkpt lat="41.80156" lon="2.02075">
        <ele>600.8</ele>
        <time>2022-05-21 00:29:38</time>
      </trkpt>
      <trkpt lat="41.80157" lon="2.02079">
        <ele>601</ele>
        <time>2022-05-21 00:29:39</time>
      </trkpt>
      <trkpt lat="41.80159" lon="2.02084">
        <ele>601.2</ele>
        <time>2022-05-21 00:29:40</time>
      </trkpt>
      <trkpt lat="41.80161" lon="2.0209">
        <ele>601.2</ele>
        <time>2022-05-21 00:29:41</time>
      </trkpt>
      <trkpt lat="41.80162" lon="2.02095">
        <ele>601.4</ele>
        <time>2022-05-21 00:29:42</time>
      </trkpt>
      <trkpt lat="41.80164" lon="2.02101">
        <ele>601.6</ele>
        <time>2022-05-21 00:29:43</time>
      </trkpt>
      <trkpt lat="41.80165" lon="2.02106">
        <ele>601.8</ele>
        <time>2022-05-21 00:29:44</time>
      </trkpt>
      <trkpt lat="41.80167" lon="2.02111">
        <ele>602</ele>
        <time>2022-05-21 00:29:45</time>
      </trkpt>
      <trkpt lat="41.80168" lon="2.02116">
        <ele>602.2</ele>
        <time>2022-05-21 00:29:46</time>
      </trkpt>
      <trkpt lat="41.80169" lon="2.02121">
        <ele>602.4</ele>
        <time>2022-05-21 00:29:47</time>
      </trkpt>
      <trkpt lat="41.8017" lon="2.02126">
        <ele>602.6</ele>
        <time>2022-05-21 00:29:48</time>
      </trkpt>
      <trkpt lat="41.80171" lon="2.02131">
        <ele>602.8</ele>
        <time>2022-05-21 00:29:49</time>
      </trkpt>
      <trkpt lat="41.80172" lon="2.02137">
        <ele>602.8</ele>
        <time>2022-05-21 00:29:50</time>
      </trkpt>
      <trkpt lat="41.80173" lon="2.02142">
        <ele>603</ele>
        <time>2022-05-21 00:29:51</time>
      </trkpt>
      <trkpt lat="41.80174" lon="2.02148">
        <ele>603.2</ele>
        <time>2022-05-21 00:29:52</time>
      </trkpt>
      <trkpt lat="41.80175" lon="2.02153">
        <ele>603.4</ele>
        <time>2022-05-21 00:29:53</time>
      </trkpt>
      <trkpt lat="41.80176" lon="2.02159">
        <ele>603.6</ele>
        <time>2022-05-21 00:29:54</time>
      </trkpt>
      <trkpt lat="41.80177" lon="2.02164">
        <ele>603.8</ele>
        <time>2022-05-21 00:29:55</time>
      </trkpt>
      <trkpt lat="41.80178" lon="2.02169">
        <ele>604</ele>
        <time>2022-05-21 00:29:56</time>
      </trkpt>
      <trkpt lat="41.80179" lon="2.02174">
        <ele>604.2</ele>
        <time>2022-05-21 00:29:57</time>
      </trkpt>
      <trkpt lat="41.8018" lon="2.02178">
        <ele>604.4</ele>
        <time>2022-05-21 00:29:58</time>
      </trkpt>
      <trkpt lat="41.80182" lon="2.02183">
        <ele>604.6</ele>
        <time>2022-05-21 00:29:59</time>
      </trkpt>
      <trkpt lat="41.80182" lon="2.02188">
        <ele>604.8</ele>
        <time>2022-05-21 00:30:00</time>
      </trkpt>
      <trkpt lat="41.80183" lon="2.02193">
        <ele>605</ele>
        <time>2022-05-21 00:30:01</time>
      </trkpt>
      <trkpt lat="41.80184" lon="2.02198">
        <ele>605</ele>
        <time>2022-05-21 00:30:02</time>
      </trkpt>
      <trkpt lat="41.80185" lon="2.02203">
        <ele>605.2</ele>
        <time>2022-05-21 00:30:03</time>
      </trkpt>
      <trkpt lat="41.80186" lon="2.02207">
        <ele>605.4</ele>
        <time>2022-05-21 00:30:04</time>
      </trkpt>
      <trkpt lat="41.80187" lon="2.02212">
        <ele>605.6</ele>
        <time>2022-05-21 00:30:05</time>
      </trkpt>
      <trkpt lat="41.80188" lon="2.02217">
        <ele>605.6</ele>
        <time>2022-05-21 00:30:06</time>
      </trkpt>
      <trkpt lat="41.80189" lon="2.02222">
        <ele>605.8</ele>
        <time>2022-05-21 00:30:07</time>
      </trkpt>
      <trkpt lat="41.8019" lon="2.02227">
        <ele>606</ele>
        <time>2022-05-21 00:30:08</time>
      </trkpt>
      <trkpt lat="41.80191" lon="2.02231">
        <ele>606.2</ele>
        <time>2022-05-21 00:30:09</time>
      </trkpt>
      <trkpt lat="41.80192" lon="2.02237">
        <ele>606.2</ele>
        <time>2022-05-21 00:30:10</time>
      </trkpt>
      <trkpt lat="41.80193" lon="2.02242">
        <ele>606.4</ele>
        <time>2022-05-21 00:30:11</time>
      </trkpt>
      <trkpt lat="41.80194" lon="2.02247">
        <ele>606.4</ele>
        <time>2022-05-21 00:30:12</time>
      </trkpt>
      <trkpt lat="41.80194" lon="2.02252">
        <ele>606.6</ele>
        <time>2022-05-21 00:30:13</time>
      </trkpt>
      <trkpt lat="41.80195" lon="2.02258">
        <ele>606.6</ele>
        <time>2022-05-21 00:30:14</time>
      </trkpt>
      <trkpt lat="41.80196" lon="2.02263">
        <ele>606.8</ele>
        <time>2022-05-21 00:30:15</time>
      </trkpt>
      <trkpt lat="41.80197" lon="2.02268">
        <ele>607</ele>
        <time>2022-05-21 00:30:16</time>
      </trkpt>
      <trkpt lat="41.80198" lon="2.02273">
        <ele>607</ele>
        <time>2022-05-21 00:30:17</time>
      </trkpt>
      <trkpt lat="41.80199" lon="2.02278">
        <ele>607.2</ele>
        <time>2022-05-21 00:30:18</time>
      </trkpt>
      <trkpt lat="41.80201" lon="2.02283">
        <ele>607.4</ele>
        <time>2022-05-21 00:30:19</time>
      </trkpt>
      <trkpt lat="41.80202" lon="2.02288">
        <ele>607.4</ele>
        <time>2022-05-21 00:30:20</time>
      </trkpt>
      <trkpt lat="41.80203" lon="2.02293">
        <ele>607.6</ele>
        <time>2022-05-21 00:30:21</time>
      </trkpt>
      <trkpt lat="41.80204" lon="2.02299">
        <ele>607.6</ele>
        <time>2022-05-21 00:30:22</time>
      </trkpt>
      <trkpt lat="41.80205" lon="2.02304">
        <ele>607.8</ele>
        <time>2022-05-21 00:30:23</time>
      </trkpt>
      <trkpt lat="41.80206" lon="2.02309">
        <ele>607.8</ele>
        <time>2022-05-21 00:30:24</time>
      </trkpt>
      <trkpt lat="41.80207" lon="2.02314">
        <ele>608</ele>
        <time>2022-05-21 00:30:25</time>
      </trkpt>
      <trkpt lat="41.80208" lon="2.02318">
        <ele>608.2</ele>
        <time>2022-05-21 00:30:26</time>
      </trkpt>
      <trkpt lat="41.8021" lon="2.02323">
        <ele>608.2</ele>
        <time>2022-05-21 00:30:27</time>
      </trkpt>
      <trkpt lat="41.80211" lon="2.02328">
        <ele>608.4</ele>
        <time>2022-05-21 00:30:28</time>
      </trkpt>
      <trkpt lat="41.80212" lon="2.02333">
        <ele>608.4</ele>
        <time>2022-05-21 00:30:29</time>
      </trkpt>
      <trkpt lat="41.80213" lon="2.02338">
        <ele>608.6</ele>
        <time>2022-05-21 00:30:30</time>
      </trkpt>
      <trkpt lat="41.80214" lon="2.02344">
        <ele>608.8</ele>
        <time>2022-05-21 00:30:31</time>
      </trkpt>
      <trkpt lat="41.80215" lon="2.02349">
        <ele>608.8</ele>
        <time>2022-05-21 00:30:32</time>
      </trkpt>
      <trkpt lat="41.80216" lon="2.02354">
        <ele>609</ele>
        <time>2022-05-21 00:30:33</time>
      </trkpt>
      <trkpt lat="41.80217" lon="2.0236">
        <ele>609.2</ele>
        <time>2022-05-21 00:30:34</time>
      </trkpt>
      <trkpt lat="41.80218" lon="2.02365">
        <ele>609.2</ele>
        <time>2022-05-21 00:30:35</time>
      </trkpt>
      <trkpt lat="41.80219" lon="2.0237">
        <ele>609.4</ele>
        <time>2022-05-21 00:30:36</time>
      </trkpt>
      <trkpt lat="41.8022" lon="2.02375">
        <ele>609.4</ele>
        <time>2022-05-21 00:30:37</time>
      </trkpt>
      <trkpt lat="41.80222" lon="2.0238">
        <ele>609.6</ele>
        <time>2022-05-21 00:30:38</time>
      </trkpt>
      <trkpt lat="41.80222" lon="2.02385">
        <ele>609.8</ele>
        <time>2022-05-21 00:30:39</time>
      </trkpt>
      <trkpt lat="41.80223" lon="2.0239">
        <ele>609.8</ele>
        <time>2022-05-21 00:30:40</time>
      </trkpt>
      <trkpt lat="41.80224" lon="2.02395">
        <ele>610</ele>
        <time>2022-05-21 00:30:41</time>
      </trkpt>
      <trkpt lat="41.80225" lon="2.024">
        <ele>610.2</ele>
        <time>2022-05-21 00:30:42</time>
      </trkpt>
      <trkpt lat="41.80226" lon="2.02405">
        <ele>610.2</ele>
        <time>2022-05-21 00:30:43</time>
      </trkpt>
      <trkpt lat="41.80227" lon="2.0241">
        <ele>610.4</ele>
        <time>2022-05-21 00:30:44</time>
      </trkpt>
      <trkpt lat="41.80228" lon="2.02416">
        <ele>610.6</ele>
        <time>2022-05-21 00:30:45</time>
      </trkpt>
      <trkpt lat="41.80228" lon="2.02421">
        <ele>610.6</ele>
        <time>2022-05-21 00:30:46</time>
      </trkpt>
      <trkpt lat="41.80229" lon="2.02426">
        <ele>610.8</ele>
        <time>2022-05-21 00:30:47</time>
      </trkpt>
      <trkpt lat="41.8023" lon="2.02431">
        <ele>610.8</ele>
        <time>2022-05-21 00:30:48</time>
      </trkpt>
      <trkpt lat="41.8023" lon="2.02437">
        <ele>611</ele>
        <time>2022-05-21 00:30:49</time>
      </trkpt>
      <trkpt lat="41.80231" lon="2.02442">
        <ele>611</ele>
        <time>2022-05-21 00:30:50</time>
      </trkpt>
      <trkpt lat="41.80231" lon="2.02447">
        <ele>611.2</ele>
        <time>2022-05-21 00:30:51</time>
      </trkpt>
      <trkpt lat="41.80231" lon="2.02453">
        <ele>611.4</ele>
        <time>2022-05-21 00:30:52</time>
      </trkpt>
      <trkpt lat="41.80231" lon="2.02458">
        <ele>611.4</ele>
        <time>2022-05-21 00:30:53</time>
      </trkpt>
      <trkpt lat="41.80231" lon="2.02464">
        <ele>611.6</ele>
        <time>2022-05-21 00:30:54</time>
      </trkpt>
      <trkpt lat="41.80231" lon="2.0247">
        <ele>611.6</ele>
        <time>2022-05-21 00:30:55</time>
      </trkpt>
      <trkpt lat="41.80231" lon="2.02475">
        <ele>611.8</ele>
        <time>2022-05-21 00:30:56</time>
      </trkpt>
      <trkpt lat="41.8023" lon="2.0248">
        <ele>611.8</ele>
        <time>2022-05-21 00:30:57</time>
      </trkpt>
      <trkpt lat="41.8023" lon="2.02486">
        <ele>612</ele>
        <time>2022-05-21 00:30:58</time>
      </trkpt>
      <trkpt lat="41.80229" lon="2.02491">
        <ele>612</ele>
        <time>2022-05-21 00:30:59</time>
      </trkpt>
      <trkpt lat="41.80228" lon="2.02496">
        <ele>612.2</ele>
        <time>2022-05-21 00:31:00</time>
      </trkpt>
      <trkpt lat="41.80227" lon="2.02501">
        <ele>612.2</ele>
        <time>2022-05-21 00:31:01</time>
      </trkpt>
      <trkpt lat="41.80225" lon="2.02505">
        <ele>612.4</ele>
        <time>2022-05-21 00:31:02</time>
      </trkpt>
      <trkpt lat="41.80224" lon="2.0251">
        <ele>612.6</ele>
        <time>2022-05-21 00:31:03</time>
      </trkpt>
      <trkpt lat="41.80222" lon="2.02514">
        <ele>612.6</ele>
        <time>2022-05-21 00:31:04</time>
      </trkpt>
      <trkpt lat="41.8022" lon="2.02518">
        <ele>612.8</ele>
        <time>2022-05-21 00:31:05</time>
      </trkpt>
      <trkpt lat="41.80218" lon="2.02522">
        <ele>613</ele>
        <time>2022-05-21 00:31:06</time>
      </trkpt>
      <trkpt lat="41.80216" lon="2.02526">
        <ele>613</ele>
        <time>2022-05-21 00:31:07</time>
      </trkpt>
      <trkpt lat="41.80214" lon="2.02531">
        <ele>613.2</ele>
        <time>2022-05-21 00:31:08</time>
      </trkpt>
      <trkpt lat="41.80212" lon="2.02535">
        <ele>613.4</ele>
        <time>2022-05-21 00:31:09</time>
      </trkpt>
      <trkpt lat="41.80209" lon="2.02539">
        <ele>613.4</ele>
        <time>2022-05-21 00:31:10</time>
      </trkpt>
      <trkpt lat="41.80207" lon="2.02543">
        <ele>613.6</ele>
        <time>2022-05-21 00:31:11</time>
      </trkpt>
      <trkpt lat="41.80206" lon="2.02548">
        <ele>613.6</ele>
        <time>2022-05-21 00:31:12</time>
      </trkpt>
      <trkpt lat="41.80204" lon="2.02552">
        <ele>613.8</ele>
        <time>2022-05-21 00:31:13</time>
      </trkpt>
      <trkpt lat="41.80202" lon="2.02556">
        <ele>614</ele>
        <time>2022-05-21 00:31:14</time>
      </trkpt>
      <trkpt lat="41.802" lon="2.0256">
        <ele>614.2</ele>
        <time>2022-05-21 00:31:15</time>
      </trkpt>
      <trkpt lat="41.80199" lon="2.02564">
        <ele>614.2</ele>
        <time>2022-05-21 00:31:16</time>
      </trkpt>
      <trkpt lat="41.80197" lon="2.02568">
        <ele>614.4</ele>
        <time>2022-05-21 00:31:17</time>
      </trkpt>
      <trkpt lat="41.80195" lon="2.02572">
        <ele>614.6</ele>
        <time>2022-05-21 00:31:18</time>
      </trkpt>
      <trkpt lat="41.80193" lon="2.02576">
        <ele>614.8</ele>
        <time>2022-05-21 00:31:19</time>
      </trkpt>
      <trkpt lat="41.80191" lon="2.0258">
        <ele>614.8</ele>
        <time>2022-05-21 00:31:20</time>
      </trkpt>
      <trkpt lat="41.80189" lon="2.02584">
        <ele>615</ele>
        <time>2022-05-21 00:31:21</time>
      </trkpt>
      <trkpt lat="41.80186" lon="2.02588">
        <ele>615.2</ele>
        <time>2022-05-21 00:31:22</time>
      </trkpt>
      <trkpt lat="41.80185" lon="2.02594">
        <ele>615.4</ele>
        <time>2022-05-21 00:31:23</time>
      </trkpt>
      <trkpt lat="41.80183" lon="2.02599">
        <ele>615.6</ele>
        <time>2022-05-21 00:31:24</time>
      </trkpt>
      <trkpt lat="41.80181" lon="2.02604">
        <ele>615.8</ele>
        <time>2022-05-21 00:31:25</time>
      </trkpt>
      <trkpt lat="41.80179" lon="2.0261">
        <ele>616</ele>
        <time>2022-05-21 00:31:26</time>
      </trkpt>
      <trkpt lat="41.80178" lon="2.02615">
        <ele>616.2</ele>
        <time>2022-05-21 00:31:27</time>
      </trkpt>
      <trkpt lat="41.80177" lon="2.02621">
        <ele>616.2</ele>
        <time>2022-05-21 00:31:28</time>
      </trkpt>
      <trkpt lat="41.80176" lon="2.02627">
        <ele>616.4</ele>
        <time>2022-05-21 00:31:29</time>
      </trkpt>
      <trkpt lat="41.80175" lon="2.02633">
        <ele>616.6</ele>
        <time>2022-05-21 00:31:30</time>
      </trkpt>
      <trkpt lat="41.80174" lon="2.02639">
        <ele>616.8</ele>
        <time>2022-05-21 00:31:31</time>
      </trkpt>
      <trkpt lat="41.80173" lon="2.02645">
        <ele>617</ele>
        <time>2022-05-21 00:31:32</time>
      </trkpt>
      <trkpt lat="41.80173" lon="2.02651">
        <ele>617.2</ele>
        <time>2022-05-21 00:31:33</time>
      </trkpt>
      <trkpt lat="41.80173" lon="2.02657">
        <ele>617.4</ele>
        <time>2022-05-21 00:31:34</time>
      </trkpt>
      <trkpt lat="41.80173" lon="2.02662">
        <ele>617.6</ele>
        <time>2022-05-21 00:31:35</time>
      </trkpt>
      <trkpt lat="41.80173" lon="2.02667">
        <ele>617.8</ele>
        <time>2022-05-21 00:31:36</time>
      </trkpt>
      <trkpt lat="41.80174" lon="2.02673">
        <ele>618</ele>
        <time>2022-05-21 00:31:37</time>
      </trkpt>
      <trkpt lat="41.80174" lon="2.02679">
        <ele>618.2</ele>
        <time>2022-05-21 00:31:38</time>
      </trkpt>
      <trkpt lat="41.80175" lon="2.02684">
        <ele>618.2</ele>
        <time>2022-05-21 00:31:39</time>
      </trkpt>
      <trkpt lat="41.80175" lon="2.02689">
        <ele>618.4</ele>
        <time>2022-05-21 00:31:40</time>
      </trkpt>
      <trkpt lat="41.80176" lon="2.02695">
        <ele>618.6</ele>
        <time>2022-05-21 00:31:41</time>
      </trkpt>
      <trkpt lat="41.80177" lon="2.027">
        <ele>618.8</ele>
        <time>2022-05-21 00:31:42</time>
      </trkpt>
      <trkpt lat="41.80178" lon="2.02705">
        <ele>619</ele>
        <time>2022-05-21 00:31:43</time>
      </trkpt>
      <trkpt lat="41.80179" lon="2.0271">
        <ele>619.2</ele>
        <time>2022-05-21 00:31:44</time>
      </trkpt>
      <trkpt lat="41.8018" lon="2.02715">
        <ele>619.4</ele>
        <time>2022-05-21 00:31:45</time>
      </trkpt>
      <trkpt lat="41.80181" lon="2.0272">
        <ele>619.4</ele>
        <time>2022-05-21 00:31:46</time>
      </trkpt>
      <trkpt lat="41.80182" lon="2.02726">
        <ele>619.6</ele>
        <time>2022-05-21 00:31:47</time>
      </trkpt>
      <trkpt lat="41.80183" lon="2.02731">
        <ele>619.8</ele>
        <time>2022-05-21 00:31:48</time>
      </trkpt>
      <trkpt lat="41.80184" lon="2.02736">
        <ele>620</ele>
        <time>2022-05-21 00:31:49</time>
      </trkpt>
      <trkpt lat="41.80184" lon="2.02741">
        <ele>620.2</ele>
        <time>2022-05-21 00:31:50</time>
      </trkpt>
      <trkpt lat="41.80185" lon="2.02747">
        <ele>620.4</ele>
        <time>2022-05-21 00:31:51</time>
      </trkpt>
      <trkpt lat="41.80185" lon="2.02752">
        <ele>620.6</ele>
        <time>2022-05-21 00:31:52</time>
      </trkpt>
      <trkpt lat="41.80186" lon="2.02757">
        <ele>620.6</ele>
        <time>2022-05-21 00:31:53</time>
      </trkpt>
      <trkpt lat="41.80186" lon="2.02762">
        <ele>620.8</ele>
        <time>2022-05-21 00:31:54</time>
      </trkpt>
      <trkpt lat="41.80187" lon="2.02767">
        <ele>621</ele>
        <time>2022-05-21 00:31:55</time>
      </trkpt>
      <trkpt lat="41.80188" lon="2.02772">
        <ele>621.2</ele>
        <time>2022-05-21 00:31:56</time>
      </trkpt>
      <trkpt lat="41.80189" lon="2.02778">
        <ele>621.2</ele>
        <time>2022-05-21 00:31:57</time>
      </trkpt>
      <trkpt lat="41.8019" lon="2.02783">
        <ele>621.4</ele>
        <time>2022-05-21 00:31:58</time>
      </trkpt>
      <trkpt lat="41.80191" lon="2.02789">
        <ele>621.6</ele>
        <time>2022-05-21 00:31:59</time>
      </trkpt>
      <trkpt lat="41.80193" lon="2.02794">
        <ele>621.6</ele>
        <time>2022-05-21 00:32:00</time>
      </trkpt>
      <trkpt lat="41.80194" lon="2.028">
        <ele>621.8</ele>
        <time>2022-05-21 00:32:01</time>
      </trkpt>
      <trkpt lat="41.80195" lon="2.02805">
        <ele>621.8</ele>
        <time>2022-05-21 00:32:02</time>
      </trkpt>
      <trkpt lat="41.80196" lon="2.02811">
        <ele>622</ele>
        <time>2022-05-21 00:32:03</time>
      </trkpt>
      <trkpt lat="41.80197" lon="2.02817">
        <ele>622</ele>
        <time>2022-05-21 00:32:04</time>
      </trkpt>
      <trkpt lat="41.80198" lon="2.02823">
        <ele>622</ele>
        <time>2022-05-21 00:32:05</time>
      </trkpt>
      <trkpt lat="41.80199" lon="2.02829">
        <ele>622</ele>
        <time>2022-05-21 00:32:06</time>
      </trkpt>
      <trkpt lat="41.802" lon="2.02835">
        <ele>622</ele>
        <time>2022-05-21 00:32:07</time>
      </trkpt>
      <trkpt lat="41.80201" lon="2.02841">
        <ele>622.2</ele>
        <time>2022-05-21 00:32:08</time>
      </trkpt>
      <trkpt lat="41.80202" lon="2.02847">
        <ele>622.2</ele>
        <time>2022-05-21 00:32:09</time>
      </trkpt>
      <trkpt lat="41.80203" lon="2.02854">
        <ele>622.2</ele>
        <time>2022-05-21 00:32:10</time>
      </trkpt>
      <trkpt lat="41.80204" lon="2.0286">
        <ele>622.2</ele>
        <time>2022-05-21 00:32:11</time>
      </trkpt>
      <trkpt lat="41.80204" lon="2.02867">
        <ele>622.2</ele>
        <time>2022-05-21 00:32:12</time>
      </trkpt>
      <trkpt lat="41.80206" lon="2.02873">
        <ele>622.2</ele>
        <time>2022-05-21 00:32:13</time>
      </trkpt>
      <trkpt lat="41.80206" lon="2.02879">
        <ele>622.4</ele>
        <time>2022-05-21 00:32:14</time>
      </trkpt>
      <trkpt lat="41.80207" lon="2.02886">
        <ele>622.4</ele>
        <time>2022-05-21 00:32:15</time>
      </trkpt>
      <trkpt lat="41.80209" lon="2.02892">
        <ele>622.4</ele>
        <time>2022-05-21 00:32:16</time>
      </trkpt>
      <trkpt lat="41.8021" lon="2.02899">
        <ele>622.4</ele>
        <time>2022-05-21 00:32:17</time>
      </trkpt>
      <trkpt lat="41.80211" lon="2.02905">
        <ele>622.4</ele>
        <time>2022-05-21 00:32:18</time>
      </trkpt>
      <trkpt lat="41.80212" lon="2.02912">
        <ele>622.4</ele>
        <time>2022-05-21 00:32:19</time>
      </trkpt>
      <trkpt lat="41.80214" lon="2.02918">
        <ele>622.6</ele>
        <time>2022-05-21 00:32:20</time>
      </trkpt>
      <trkpt lat="41.80215" lon="2.02924">
        <ele>622.6</ele>
        <time>2022-05-21 00:32:21</time>
      </trkpt>
      <trkpt lat="41.80216" lon="2.02931">
        <ele>622.6</ele>
        <time>2022-05-21 00:32:22</time>
      </trkpt>
      <trkpt lat="41.80217" lon="2.02937">
        <ele>622.6</ele>
        <time>2022-05-21 00:32:23</time>
      </trkpt>
      <trkpt lat="41.80218" lon="2.02943">
        <ele>622.8</ele>
        <time>2022-05-21 00:32:24</time>
      </trkpt>
      <trkpt lat="41.80219" lon="2.0295">
        <ele>622.8</ele>
        <time>2022-05-21 00:32:25</time>
      </trkpt>
      <trkpt lat="41.8022" lon="2.02956">
        <ele>623</ele>
        <time>2022-05-21 00:32:26</time>
      </trkpt>
      <trkpt lat="41.80221" lon="2.02963">
        <ele>623</ele>
        <time>2022-05-21 00:32:27</time>
      </trkpt>
      <trkpt lat="41.80222" lon="2.02969">
        <ele>623</ele>
        <time>2022-05-21 00:32:28</time>
      </trkpt>
      <trkpt lat="41.80223" lon="2.02976">
        <ele>623.2</ele>
        <time>2022-05-21 00:32:29</time>
      </trkpt>
      <trkpt lat="41.80224" lon="2.02982">
        <ele>623.2</ele>
        <time>2022-05-21 00:32:30</time>
      </trkpt>
      <trkpt lat="41.80225" lon="2.02988">
        <ele>623.2</ele>
        <time>2022-05-21 00:32:31</time>
      </trkpt>
      <trkpt lat="41.80226" lon="2.02994">
        <ele>623.4</ele>
        <time>2022-05-21 00:32:32</time>
      </trkpt>
      <trkpt lat="41.80227" lon="2.03">
        <ele>623.6</ele>
        <time>2022-05-21 00:32:33</time>
      </trkpt>
      <trkpt lat="41.80228" lon="2.03006">
        <ele>623.6</ele>
        <time>2022-05-21 00:32:34</time>
      </trkpt>
      <trkpt lat="41.80229" lon="2.03012">
        <ele>623.8</ele>
        <time>2022-05-21 00:32:35</time>
      </trkpt>
      <trkpt lat="41.8023" lon="2.03018">
        <ele>624</ele>
        <time>2022-05-21 00:32:36</time>
      </trkpt>
      <trkpt lat="41.8023" lon="2.03024">
        <ele>624.2</ele>
        <time>2022-05-21 00:32:37</time>
      </trkpt>
      <trkpt lat="41.80231" lon="2.03029">
        <ele>624.4</ele>
        <time>2022-05-21 00:32:38</time>
      </trkpt>
      <trkpt lat="41.80232" lon="2.03034">
        <ele>624.4</ele>
        <time>2022-05-21 00:32:39</time>
      </trkpt>
      <trkpt lat="41.80233" lon="2.03039">
        <ele>624.6</ele>
        <time>2022-05-21 00:32:40</time>
      </trkpt>
      <trkpt lat="41.80234" lon="2.03045">
        <ele>624.8</ele>
        <time>2022-05-21 00:32:41</time>
      </trkpt>
      <trkpt lat="41.80235" lon="2.0305">
        <ele>625</ele>
        <time>2022-05-21 00:32:42</time>
      </trkpt>
      <trkpt lat="41.80236" lon="2.03055">
        <ele>625</ele>
        <time>2022-05-21 00:32:43</time>
      </trkpt>
      <trkpt lat="41.80236" lon="2.0306">
        <ele>625.2</ele>
        <time>2022-05-21 00:32:44</time>
      </trkpt>
      <trkpt lat="41.80237" lon="2.03066">
        <ele>625.4</ele>
        <time>2022-05-21 00:32:45</time>
      </trkpt>
      <trkpt lat="41.80238" lon="2.03071">
        <ele>625.6</ele>
        <time>2022-05-21 00:32:46</time>
      </trkpt>
      <trkpt lat="41.80238" lon="2.03076">
        <ele>625.6</ele>
        <time>2022-05-21 00:32:47</time>
      </trkpt>
      <trkpt lat="41.80239" lon="2.03081">
        <ele>625.8</ele>
        <time>2022-05-21 00:32:48</time>
      </trkpt>
      <trkpt lat="41.8024" lon="2.03086">
        <ele>626</ele>
        <time>2022-05-21 00:32:49</time>
      </trkpt>
      <trkpt lat="41.80241" lon="2.03092">
        <ele>626.2</ele>
        <time>2022-05-21 00:32:50</time>
      </trkpt>
      <trkpt lat="41.80242" lon="2.03097">
        <ele>626.4</ele>
        <time>2022-05-21 00:32:51</time>
      </trkpt>
      <trkpt lat="41.80243" lon="2.03102">
        <ele>626.6</ele>
        <time>2022-05-21 00:32:52</time>
      </trkpt>
      <trkpt lat="41.80243" lon="2.03107">
        <ele>626.8</ele>
        <time>2022-05-21 00:32:53</time>
      </trkpt>
      <trkpt lat="41.80244" lon="2.03112">
        <ele>627</ele>
        <time>2022-05-21 00:32:54</time>
      </trkpt>
      <trkpt lat="41.80245" lon="2.03117">
        <ele>627.2</ele>
        <time>2022-05-21 00:32:55</time>
      </trkpt>
      <trkpt lat="41.80246" lon="2.03122">
        <ele>627.4</ele>
        <time>2022-05-21 00:32:56</time>
      </trkpt>
      <trkpt lat="41.80247" lon="2.03127">
        <ele>627.6</ele>
        <time>2022-05-21 00:32:57</time>
      </trkpt>
      <trkpt lat="41.80248" lon="2.03132">
        <ele>627.8</ele>
        <time>2022-05-21 00:32:58</time>
      </trkpt>
      <trkpt lat="41.80248" lon="2.03137">
        <ele>628</ele>
        <time>2022-05-21 00:32:59</time>
      </trkpt>
      <trkpt lat="41.80249" lon="2.03142">
        <ele>628</ele>
        <time>2022-05-21 00:33:00</time>
      </trkpt>
      <trkpt lat="41.80249" lon="2.03146">
        <ele>628.4</ele>
        <time>2022-05-21 00:33:01</time>
      </trkpt>
      <trkpt lat="41.80251" lon="2.03151">
        <ele>628.4</ele>
        <time>2022-05-21 00:33:02</time>
      </trkpt>
      <trkpt lat="41.80251" lon="2.03155">
        <ele>628.6</ele>
        <time>2022-05-21 00:33:03</time>
      </trkpt>
      <trkpt lat="41.80252" lon="2.0316">
        <ele>628.8</ele>
        <time>2022-05-21 00:33:04</time>
      </trkpt>
      <trkpt lat="41.80253" lon="2.03165">
        <ele>629</ele>
        <time>2022-05-21 00:33:05</time>
      </trkpt>
      <trkpt lat="41.80254" lon="2.0317">
        <ele>629</ele>
        <time>2022-05-21 00:33:06</time>
      </trkpt>
      <trkpt lat="41.80255" lon="2.03175">
        <ele>629.2</ele>
        <time>2022-05-21 00:33:07</time>
      </trkpt>
      <trkpt lat="41.80255" lon="2.0318">
        <ele>629.4</ele>
        <time>2022-05-21 00:33:08</time>
      </trkpt>
      <trkpt lat="41.80256" lon="2.03185">
        <ele>629.6</ele>
        <time>2022-05-21 00:33:09</time>
      </trkpt>
      <trkpt lat="41.80257" lon="2.0319">
        <ele>629.6</ele>
        <time>2022-05-21 00:33:10</time>
      </trkpt>
      <trkpt lat="41.80258" lon="2.03194">
        <ele>629.8</ele>
        <time>2022-05-21 00:33:11</time>
      </trkpt>
      <trkpt lat="41.80259" lon="2.03199">
        <ele>630</ele>
        <time>2022-05-21 00:33:12</time>
      </trkpt>
      <trkpt lat="41.80259" lon="2.03204">
        <ele>630.2</ele>
        <time>2022-05-21 00:33:13</time>
      </trkpt>
      <trkpt lat="41.8026" lon="2.03209">
        <ele>630.2</ele>
        <time>2022-05-21 00:33:14</time>
      </trkpt>
      <trkpt lat="41.80261" lon="2.03213">
        <ele>630.4</ele>
        <time>2022-05-21 00:33:15</time>
      </trkpt>
      <trkpt lat="41.80262" lon="2.03219">
        <ele>630.6</ele>
        <time>2022-05-21 00:33:16</time>
      </trkpt>
      <trkpt lat="41.80262" lon="2.03223">
        <ele>630.8</ele>
        <time>2022-05-21 00:33:17</time>
      </trkpt>
      <trkpt lat="41.80263" lon="2.03228">
        <ele>631</ele>
        <time>2022-05-21 00:33:18</time>
      </trkpt>
      <trkpt lat="41.80264" lon="2.03233">
        <ele>631.2</ele>
        <time>2022-05-21 00:33:19</time>
      </trkpt>
      <trkpt lat="41.80265" lon="2.03237">
        <ele>631.4</ele>
        <time>2022-05-21 00:33:20</time>
      </trkpt>
      <trkpt lat="41.80265" lon="2.03242">
        <ele>631.6</ele>
        <time>2022-05-21 00:33:21</time>
      </trkpt>
      <trkpt lat="41.80266" lon="2.03247">
        <ele>631.8</ele>
        <time>2022-05-21 00:33:22</time>
      </trkpt>
      <trkpt lat="41.80267" lon="2.03252">
        <ele>631.8</ele>
        <time>2022-05-21 00:33:23</time>
      </trkpt>
      <trkpt lat="41.80268" lon="2.03257">
        <ele>632</ele>
        <time>2022-05-21 00:33:24</time>
      </trkpt>
      <trkpt lat="41.8027" lon="2.03261">
        <ele>632.2</ele>
        <time>2022-05-21 00:33:25</time>
      </trkpt>
      <trkpt lat="41.80271" lon="2.03266">
        <ele>632.2</ele>
        <time>2022-05-21 00:33:26</time>
      </trkpt>
      <trkpt lat="41.80272" lon="2.0327">
        <ele>632.4</ele>
        <time>2022-05-21 00:33:27</time>
      </trkpt>
      <trkpt lat="41.80274" lon="2.03275">
        <ele>632.6</ele>
        <time>2022-05-21 00:33:28</time>
      </trkpt>
      <trkpt lat="41.80275" lon="2.0328">
        <ele>632.8</ele>
        <time>2022-05-21 00:33:29</time>
      </trkpt>
      <trkpt lat="41.80277" lon="2.03285">
        <ele>633</ele>
        <time>2022-05-21 00:33:30</time>
      </trkpt>
      <trkpt lat="41.80279" lon="2.03289">
        <ele>633.2</ele>
        <time>2022-05-21 00:33:31</time>
      </trkpt>
      <trkpt lat="41.8028" lon="2.03293">
        <ele>633.2</ele>
        <time>2022-05-21 00:33:32</time>
      </trkpt>
      <trkpt lat="41.80283" lon="2.03297">
        <ele>633.4</ele>
        <time>2022-05-21 00:33:33</time>
      </trkpt>
      <trkpt lat="41.80285" lon="2.03302">
        <ele>633.4</ele>
        <time>2022-05-21 00:33:34</time>
      </trkpt>
      <trkpt lat="41.80288" lon="2.03307">
        <ele>633.6</ele>
        <time>2022-05-21 00:33:35</time>
      </trkpt>
      <trkpt lat="41.8029" lon="2.0331">
        <ele>633.8</ele>
        <time>2022-05-21 00:33:36</time>
      </trkpt>
      <trkpt lat="41.80292" lon="2.03314">
        <ele>634</ele>
        <time>2022-05-21 00:33:37</time>
      </trkpt>
      <trkpt lat="41.80295" lon="2.03318">
        <ele>634</ele>
        <time>2022-05-21 00:33:38</time>
      </trkpt>
      <trkpt lat="41.80297" lon="2.03322">
        <ele>634.2</ele>
        <time>2022-05-21 00:33:39</time>
      </trkpt>
      <trkpt lat="41.803" lon="2.03326">
        <ele>634.2</ele>
        <time>2022-05-21 00:33:40</time>
      </trkpt>
      <trkpt lat="41.80303" lon="2.03329">
        <ele>634.4</ele>
        <time>2022-05-21 00:33:41</time>
      </trkpt>
      <trkpt lat="41.80305" lon="2.03333">
        <ele>634.4</ele>
        <time>2022-05-21 00:33:42</time>
      </trkpt>
      <trkpt lat="41.80309" lon="2.03336">
        <ele>634.6</ele>
        <time>2022-05-21 00:33:43</time>
      </trkpt>
      <trkpt lat="41.80312" lon="2.03339">
        <ele>634.8</ele>
        <time>2022-05-21 00:33:44</time>
      </trkpt>
      <trkpt lat="41.80315" lon="2.03342">
        <ele>634.8</ele>
        <time>2022-05-21 00:33:45</time>
      </trkpt>
      <trkpt lat="41.80318" lon="2.03346">
        <ele>635</ele>
        <time>2022-05-21 00:33:46</time>
      </trkpt>
      <trkpt lat="41.80322" lon="2.03349">
        <ele>635</ele>
        <time>2022-05-21 00:33:47</time>
      </trkpt>
      <trkpt lat="41.80325" lon="2.03352">
        <ele>635.2</ele>
        <time>2022-05-21 00:33:48</time>
      </trkpt>
      <trkpt lat="41.80328" lon="2.03356">
        <ele>635.2</ele>
        <time>2022-05-21 00:33:49</time>
      </trkpt>
      <trkpt lat="41.80331" lon="2.03359">
        <ele>635.4</ele>
        <time>2022-05-21 00:33:50</time>
      </trkpt>
      <trkpt lat="41.80335" lon="2.03362">
        <ele>635.4</ele>
        <time>2022-05-21 00:33:51</time>
      </trkpt>
      <trkpt lat="41.80338" lon="2.03366">
        <ele>635.6</ele>
        <time>2022-05-21 00:33:52</time>
      </trkpt>
      <trkpt lat="41.80342" lon="2.03369">
        <ele>635.8</ele>
        <time>2022-05-21 00:33:53</time>
      </trkpt>
      <trkpt lat="41.80345" lon="2.03372">
        <ele>635.8</ele>
        <time>2022-05-21 00:33:54</time>
      </trkpt>
      <trkpt lat="41.80348" lon="2.03375">
        <ele>636</ele>
        <time>2022-05-21 00:33:55</time>
      </trkpt>
      <trkpt lat="41.80351" lon="2.03379">
        <ele>636</ele>
        <time>2022-05-21 00:33:56</time>
      </trkpt>
      <trkpt lat="41.80354" lon="2.03382">
        <ele>636.2</ele>
        <time>2022-05-21 00:33:57</time>
      </trkpt>
      <trkpt lat="41.80358" lon="2.03385">
        <ele>636.4</ele>
        <time>2022-05-21 00:33:58</time>
      </trkpt>
      <trkpt lat="41.8036" lon="2.03389">
        <ele>636.4</ele>
        <time>2022-05-21 00:33:59</time>
      </trkpt>
      <trkpt lat="41.80363" lon="2.03392">
        <ele>636.6</ele>
        <time>2022-05-21 00:34:00</time>
      </trkpt>
      <trkpt lat="41.80366" lon="2.03395">
        <ele>636.6</ele>
        <time>2022-05-21 00:34:01</time>
      </trkpt>
      <trkpt lat="41.8037" lon="2.03399">
        <ele>636.8</ele>
        <time>2022-05-21 00:34:02</time>
      </trkpt>
      <trkpt lat="41.80373" lon="2.03402">
        <ele>637</ele>
        <time>2022-05-21 00:34:03</time>
      </trkpt>
      <trkpt lat="41.80377" lon="2.03406">
        <ele>637</ele>
        <time>2022-05-21 00:34:04</time>
      </trkpt>
      <trkpt lat="41.8038" lon="2.03409">
        <ele>637.2</ele>
        <time>2022-05-21 00:34:05</time>
      </trkpt>
      <trkpt lat="41.80384" lon="2.03413">
        <ele>637.4</ele>
        <time>2022-05-21 00:34:06</time>
      </trkpt>
      <trkpt lat="41.80387" lon="2.03416">
        <ele>637.4</ele>
        <time>2022-05-21 00:34:07</time>
      </trkpt>
      <trkpt lat="41.80391" lon="2.0342">
        <ele>637.6</ele>
        <time>2022-05-21 00:34:08</time>
      </trkpt>
      <trkpt lat="41.80394" lon="2.03424">
        <ele>637.8</ele>
        <time>2022-05-21 00:34:09</time>
      </trkpt>
      <trkpt lat="41.80397" lon="2.03428">
        <ele>637.8</ele>
        <time>2022-05-21 00:34:10</time>
      </trkpt>
      <trkpt lat="41.804" lon="2.03432">
        <ele>638</ele>
        <time>2022-05-21 00:34:11</time>
      </trkpt>
      <trkpt lat="41.80403" lon="2.03436">
        <ele>638.2</ele>
        <time>2022-05-21 00:34:12</time>
      </trkpt>
      <trkpt lat="41.80406" lon="2.0344">
        <ele>638.2</ele>
        <time>2022-05-21 00:34:13</time>
      </trkpt>
      <trkpt lat="41.80409" lon="2.03444">
        <ele>638.4</ele>
        <time>2022-05-21 00:34:14</time>
      </trkpt>
      <trkpt lat="41.80412" lon="2.03448">
        <ele>638.6</ele>
        <time>2022-05-21 00:34:15</time>
      </trkpt>
      <trkpt lat="41.80415" lon="2.03453">
        <ele>638.8</ele>
        <time>2022-05-21 00:34:16</time>
      </trkpt>
      <trkpt lat="41.80418" lon="2.03457">
        <ele>638.8</ele>
        <time>2022-05-21 00:34:17</time>
      </trkpt>
      <trkpt lat="41.8042" lon="2.03462">
        <ele>639</ele>
        <time>2022-05-21 00:34:18</time>
      </trkpt>
      <trkpt lat="41.80423" lon="2.03466">
        <ele>639.2</ele>
        <time>2022-05-21 00:34:19</time>
      </trkpt>
      <trkpt lat="41.80425" lon="2.03471">
        <ele>639.4</ele>
        <time>2022-05-21 00:34:20</time>
      </trkpt>
      <trkpt lat="41.80428" lon="2.03476">
        <ele>639.6</ele>
        <time>2022-05-21 00:34:21</time>
      </trkpt>
      <trkpt lat="41.80429" lon="2.0348">
        <ele>639.8</ele>
        <time>2022-05-21 00:34:22</time>
      </trkpt>
      <trkpt lat="41.80431" lon="2.03485">
        <ele>639.8</ele>
        <time>2022-05-21 00:34:23</time>
      </trkpt>
      <trkpt lat="41.80434" lon="2.0349">
        <ele>640</ele>
        <time>2022-05-21 00:34:24</time>
      </trkpt>
      <trkpt lat="41.80436" lon="2.03495">
        <ele>640.2</ele>
        <time>2022-05-21 00:34:25</time>
      </trkpt>
      <trkpt lat="41.80437" lon="2.03499">
        <ele>640.4</ele>
        <time>2022-05-21 00:34:26</time>
      </trkpt>
      <trkpt lat="41.80439" lon="2.03503">
        <ele>640.6</ele>
        <time>2022-05-21 00:34:27</time>
      </trkpt>
      <trkpt lat="41.80441" lon="2.03508">
        <ele>640.8</ele>
        <time>2022-05-21 00:34:28</time>
      </trkpt>
      <trkpt lat="41.80443" lon="2.03513">
        <ele>641</ele>
        <time>2022-05-21 00:34:29</time>
      </trkpt>
      <trkpt lat="41.80445" lon="2.03518">
        <ele>641.2</ele>
        <time>2022-05-21 00:34:30</time>
      </trkpt>
      <trkpt lat="41.80447" lon="2.03523">
        <ele>641.2</ele>
        <time>2022-05-21 00:34:31</time>
      </trkpt>
      <trkpt lat="41.80449" lon="2.03528">
        <ele>641.4</ele>
        <time>2022-05-21 00:34:32</time>
      </trkpt>
      <trkpt lat="41.80451" lon="2.03533">
        <ele>641.6</ele>
        <time>2022-05-21 00:34:33</time>
      </trkpt>
      <trkpt lat="41.80453" lon="2.03538">
        <ele>641.8</ele>
        <time>2022-05-21 00:34:34</time>
      </trkpt>
      <trkpt lat="41.80455" lon="2.03543">
        <ele>642</ele>
        <time>2022-05-21 00:34:35</time>
      </trkpt>
      <trkpt lat="41.80457" lon="2.03548">
        <ele>642.2</ele>
        <time>2022-05-21 00:34:36</time>
      </trkpt>
      <trkpt lat="41.80458" lon="2.03553">
        <ele>642.4</ele>
        <time>2022-05-21 00:34:37</time>
      </trkpt>
      <trkpt lat="41.8046" lon="2.03558">
        <ele>642.6</ele>
        <time>2022-05-21 00:34:38</time>
      </trkpt>
      <trkpt lat="41.80462" lon="2.03563">
        <ele>642.6</ele>
        <time>2022-05-21 00:34:39</time>
      </trkpt>
      <trkpt lat="41.80464" lon="2.03568">
        <ele>642.8</ele>
        <time>2022-05-21 00:34:40</time>
      </trkpt>
      <trkpt lat="41.80466" lon="2.03573">
        <ele>643</ele>
        <time>2022-05-21 00:34:41</time>
      </trkpt>
      <trkpt lat="41.80468" lon="2.03577">
        <ele>643.2</ele>
        <time>2022-05-21 00:34:42</time>
      </trkpt>
      <trkpt lat="41.8047" lon="2.03582">
        <ele>643.4</ele>
        <time>2022-05-21 00:34:43</time>
      </trkpt>
      <trkpt lat="41.80472" lon="2.03587">
        <ele>643.4</ele>
        <time>2022-05-21 00:34:44</time>
      </trkpt>
      <trkpt lat="41.80474" lon="2.03592">
        <ele>643.6</ele>
        <time>2022-05-21 00:34:45</time>
      </trkpt>
      <trkpt lat="41.80476" lon="2.03597">
        <ele>643.6</ele>
        <time>2022-05-21 00:34:46</time>
      </trkpt>
      <trkpt lat="41.80478" lon="2.03603">
        <ele>643.8</ele>
        <time>2022-05-21 00:34:47</time>
      </trkpt>
      <trkpt lat="41.8048" lon="2.03608">
        <ele>643.8</ele>
        <time>2022-05-21 00:34:48</time>
      </trkpt>
      <trkpt lat="41.80482" lon="2.03614">
        <ele>644</ele>
        <time>2022-05-21 00:34:49</time>
      </trkpt>
      <trkpt lat="41.80484" lon="2.03619">
        <ele>644</ele>
        <time>2022-05-21 00:34:50</time>
      </trkpt>
      <trkpt lat="41.80486" lon="2.03624">
        <ele>644.2</ele>
        <time>2022-05-21 00:34:51</time>
      </trkpt>
      <trkpt lat="41.80488" lon="2.0363">
        <ele>644.2</ele>
        <time>2022-05-21 00:34:52</time>
      </trkpt>
      <trkpt lat="41.8049" lon="2.03635">
        <ele>644.4</ele>
        <time>2022-05-21 00:34:53</time>
      </trkpt>
      <trkpt lat="41.80492" lon="2.0364">
        <ele>644.6</ele>
        <time>2022-05-21 00:34:54</time>
      </trkpt>
      <trkpt lat="41.80494" lon="2.03646">
        <ele>644.6</ele>
        <time>2022-05-21 00:34:55</time>
      </trkpt>
      <trkpt lat="41.80495" lon="2.03652">
        <ele>644.8</ele>
        <time>2022-05-21 00:34:56</time>
      </trkpt>
      <trkpt lat="41.80498" lon="2.03658">
        <ele>644.8</ele>
        <time>2022-05-21 00:34:57</time>
      </trkpt>
      <trkpt lat="41.805" lon="2.03663">
        <ele>645</ele>
        <time>2022-05-21 00:34:58</time>
      </trkpt>
      <trkpt lat="41.80502" lon="2.03669">
        <ele>645.2</ele>
        <time>2022-05-21 00:34:59</time>
      </trkpt>
      <trkpt lat="41.80504" lon="2.03675">
        <ele>645.4</ele>
        <time>2022-05-21 00:35:00</time>
      </trkpt>
      <trkpt lat="41.80507" lon="2.0368">
        <ele>645.4</ele>
        <time>2022-05-21 00:35:01</time>
      </trkpt>
      <trkpt lat="41.80509" lon="2.03686">
        <ele>645.6</ele>
        <time>2022-05-21 00:35:02</time>
      </trkpt>
      <trkpt lat="41.80511" lon="2.03692">
        <ele>645.6</ele>
        <time>2022-05-21 00:35:03</time>
      </trkpt>
      <trkpt lat="41.80513" lon="2.03698">
        <ele>645.6</ele>
        <time>2022-05-21 00:35:04</time>
      </trkpt>
      <trkpt lat="41.80515" lon="2.03703">
        <ele>645.8</ele>
        <time>2022-05-21 00:35:05</time>
      </trkpt>
      <trkpt lat="41.80518" lon="2.03709">
        <ele>645.8</ele>
        <time>2022-05-21 00:35:06</time>
      </trkpt>
      <trkpt lat="41.8052" lon="2.03715">
        <ele>645.8</ele>
        <time>2022-05-21 00:35:07</time>
      </trkpt>
      <trkpt lat="41.80523" lon="2.0372">
        <ele>646</ele>
        <time>2022-05-21 00:35:08</time>
      </trkpt>
      <trkpt lat="41.80526" lon="2.03726">
        <ele>646</ele>
        <time>2022-05-21 00:35:09</time>
      </trkpt>
      <trkpt lat="41.80528" lon="2.03731">
        <ele>646.2</ele>
        <time>2022-05-21 00:35:10</time>
      </trkpt>
      <trkpt lat="41.80531" lon="2.03737">
        <ele>646.2</ele>
        <time>2022-05-21 00:35:11</time>
      </trkpt>
      <trkpt lat="41.80534" lon="2.03742">
        <ele>646.2</ele>
        <time>2022-05-21 00:35:12</time>
      </trkpt>
      <trkpt lat="41.80538" lon="2.03747">
        <ele>646.4</ele>
        <time>2022-05-21 00:35:13</time>
      </trkpt>
      <trkpt lat="41.8054" lon="2.03753">
        <ele>646.4</ele>
        <time>2022-05-21 00:35:14</time>
      </trkpt>
      <trkpt lat="41.80544" lon="2.03758">
        <ele>646.6</ele>
        <time>2022-05-21 00:35:15</time>
      </trkpt>
      <trkpt lat="41.80547" lon="2.03763">
        <ele>646.6</ele>
        <time>2022-05-21 00:35:16</time>
      </trkpt>
      <trkpt lat="41.80551" lon="2.03767">
        <ele>646.8</ele>
        <time>2022-05-21 00:35:17</time>
      </trkpt>
      <trkpt lat="41.80554" lon="2.03772">
        <ele>646.8</ele>
        <time>2022-05-21 00:35:18</time>
      </trkpt>
      <trkpt lat="41.80558" lon="2.03776">
        <ele>647</ele>
        <time>2022-05-21 00:35:19</time>
      </trkpt>
      <trkpt lat="41.80561" lon="2.0378">
        <ele>647</ele>
        <time>2022-05-21 00:35:20</time>
      </trkpt>
      <trkpt lat="41.80564" lon="2.03785">
        <ele>647.2</ele>
        <time>2022-05-21 00:35:21</time>
      </trkpt>
      <trkpt lat="41.80568" lon="2.0379">
        <ele>647.2</ele>
        <time>2022-05-21 00:35:22</time>
      </trkpt>
      <trkpt lat="41.80571" lon="2.03795">
        <ele>647.4</ele>
        <time>2022-05-21 00:35:23</time>
      </trkpt>
      <trkpt lat="41.80574" lon="2.038">
        <ele>647.4</ele>
        <time>2022-05-21 00:35:24</time>
      </trkpt>
      <trkpt lat="41.80577" lon="2.03805">
        <ele>647.6</ele>
        <time>2022-05-21 00:35:25</time>
      </trkpt>
      <trkpt lat="41.8058" lon="2.0381">
        <ele>647.8</ele>
        <time>2022-05-21 00:35:26</time>
      </trkpt>
      <trkpt lat="41.80583" lon="2.03816">
        <ele>648</ele>
        <time>2022-05-21 00:35:27</time>
      </trkpt>
      <trkpt lat="41.80585" lon="2.03821">
        <ele>648</ele>
        <time>2022-05-21 00:35:28</time>
      </trkpt>
      <trkpt lat="41.80587" lon="2.03827">
        <ele>648.2</ele>
        <time>2022-05-21 00:35:29</time>
      </trkpt>
      <trkpt lat="41.80589" lon="2.03833">
        <ele>648.2</ele>
        <time>2022-05-21 00:35:30</time>
      </trkpt>
      <trkpt lat="41.8059" lon="2.03839">
        <ele>648.4</ele>
        <time>2022-05-21 00:35:31</time>
      </trkpt>
      <trkpt lat="41.80591" lon="2.03845">
        <ele>648.4</ele>
        <time>2022-05-21 00:35:32</time>
      </trkpt>
      <trkpt lat="41.80592" lon="2.03851">
        <ele>648.6</ele>
        <time>2022-05-21 00:35:33</time>
      </trkpt>
      <trkpt lat="41.80593" lon="2.03858">
        <ele>648.8</ele>
        <time>2022-05-21 00:35:34</time>
      </trkpt>
      <trkpt lat="41.80593" lon="2.03864">
        <ele>649</ele>
        <time>2022-05-21 00:35:35</time>
      </trkpt>
      <trkpt lat="41.80594" lon="2.03871">
        <ele>649.2</ele>
        <time>2022-05-21 00:35:36</time>
      </trkpt>
      <trkpt lat="41.80595" lon="2.03877">
        <ele>649.2</ele>
        <time>2022-05-21 00:35:37</time>
      </trkpt>
      <trkpt lat="41.80595" lon="2.03883">
        <ele>649.4</ele>
        <time>2022-05-21 00:35:38</time>
      </trkpt>
      <trkpt lat="41.80596" lon="2.03889">
        <ele>649.6</ele>
        <time>2022-05-21 00:35:39</time>
      </trkpt>
      <trkpt lat="41.80596" lon="2.03896">
        <ele>649.6</ele>
        <time>2022-05-21 00:35:40</time>
      </trkpt>
      <trkpt lat="41.80597" lon="2.03902">
        <ele>649.8</ele>
        <time>2022-05-21 00:35:41</time>
      </trkpt>
      <trkpt lat="41.80597" lon="2.03908">
        <ele>650</ele>
        <time>2022-05-21 00:35:42</time>
      </trkpt>
      <trkpt lat="41.80598" lon="2.03914">
        <ele>650.2</ele>
        <time>2022-05-21 00:35:43</time>
      </trkpt>
      <trkpt lat="41.80598" lon="2.0392">
        <ele>650.4</ele>
        <time>2022-05-21 00:35:44</time>
      </trkpt>
      <trkpt lat="41.80598" lon="2.03926">
        <ele>650.4</ele>
        <time>2022-05-21 00:35:45</time>
      </trkpt>
      <trkpt lat="41.80598" lon="2.03932">
        <ele>650.6</ele>
        <time>2022-05-21 00:35:46</time>
      </trkpt>
      <trkpt lat="41.80599" lon="2.03937">
        <ele>650.8</ele>
        <time>2022-05-21 00:35:47</time>
      </trkpt>
      <trkpt lat="41.80599" lon="2.03943">
        <ele>651</ele>
        <time>2022-05-21 00:35:48</time>
      </trkpt>
      <trkpt lat="41.806" lon="2.03949">
        <ele>651.2</ele>
        <time>2022-05-21 00:35:49</time>
      </trkpt>
      <trkpt lat="41.80601" lon="2.03954">
        <ele>651.4</ele>
        <time>2022-05-21 00:35:50</time>
      </trkpt>
      <trkpt lat="41.80601" lon="2.03959">
        <ele>651.6</ele>
        <time>2022-05-21 00:35:51</time>
      </trkpt>
      <trkpt lat="41.80602" lon="2.03964">
        <ele>651.8</ele>
        <time>2022-05-21 00:35:52</time>
      </trkpt>
      <trkpt lat="41.80602" lon="2.03969">
        <ele>652</ele>
        <time>2022-05-21 00:35:53</time>
      </trkpt>
      <trkpt lat="41.80602" lon="2.03974">
        <ele>652.2</ele>
        <time>2022-05-21 00:35:54</time>
      </trkpt>
      <trkpt lat="41.80603" lon="2.03979">
        <ele>652.4</ele>
        <time>2022-05-21 00:35:55</time>
      </trkpt>
      <trkpt lat="41.80603" lon="2.03983">
        <ele>652.4</ele>
        <time>2022-05-21 00:35:56</time>
      </trkpt>
      <trkpt lat="41.80604" lon="2.03988">
        <ele>652.6</ele>
        <time>2022-05-21 00:35:57</time>
      </trkpt>
      <trkpt lat="41.80605" lon="2.03993">
        <ele>652.8</ele>
        <time>2022-05-21 00:35:58</time>
      </trkpt>
      <trkpt lat="41.80605" lon="2.03997">
        <ele>653</ele>
        <time>2022-05-21 00:35:59</time>
      </trkpt>
      <trkpt lat="41.80606" lon="2.04002">
        <ele>653.2</ele>
        <time>2022-05-21 00:36:00</time>
      </trkpt>
      <trkpt lat="41.80606" lon="2.04007">
        <ele>653.4</ele>
        <time>2022-05-21 00:36:01</time>
      </trkpt>
      <trkpt lat="41.80607" lon="2.04012">
        <ele>653.6</ele>
        <time>2022-05-21 00:36:02</time>
      </trkpt>
      <trkpt lat="41.80608" lon="2.04017">
        <ele>653.6</ele>
        <time>2022-05-21 00:36:03</time>
      </trkpt>
      <trkpt lat="41.80608" lon="2.04022">
        <ele>653.8</ele>
        <time>2022-05-21 00:36:04</time>
      </trkpt>
      <trkpt lat="41.80609" lon="2.04026">
        <ele>654</ele>
        <time>2022-05-21 00:36:05</time>
      </trkpt>
      <trkpt lat="41.8061" lon="2.04031">
        <ele>654.2</ele>
        <time>2022-05-21 00:36:06</time>
      </trkpt>
      <trkpt lat="41.80611" lon="2.04036">
        <ele>654.2</ele>
        <time>2022-05-21 00:36:07</time>
      </trkpt>
      <trkpt lat="41.80611" lon="2.04041">
        <ele>654.4</ele>
        <time>2022-05-21 00:36:08</time>
      </trkpt>
      <trkpt lat="41.80612" lon="2.04046">
        <ele>654.6</ele>
        <time>2022-05-21 00:36:09</time>
      </trkpt>
      <trkpt lat="41.80613" lon="2.04051">
        <ele>654.8</ele>
        <time>2022-05-21 00:36:10</time>
      </trkpt>
      <trkpt lat="41.80613" lon="2.04056">
        <ele>654.8</ele>
        <time>2022-05-21 00:36:11</time>
      </trkpt>
      <trkpt lat="41.80613" lon="2.04061">
        <ele>655</ele>
        <time>2022-05-21 00:36:12</time>
      </trkpt>
      <trkpt lat="41.80614" lon="2.04066">
        <ele>655.2</ele>
        <time>2022-05-21 00:36:13</time>
      </trkpt>
      <trkpt lat="41.80614" lon="2.0407">
        <ele>655.2</ele>
        <time>2022-05-21 00:36:14</time>
      </trkpt>
      <trkpt lat="41.80614" lon="2.04076">
        <ele>655.4</ele>
        <time>2022-05-21 00:36:15</time>
      </trkpt>
      <trkpt lat="41.80615" lon="2.04081">
        <ele>655.4</ele>
        <time>2022-05-21 00:36:16</time>
      </trkpt>
      <trkpt lat="41.80616" lon="2.04086">
        <ele>655.6</ele>
        <time>2022-05-21 00:36:17</time>
      </trkpt>
      <trkpt lat="41.80617" lon="2.04091">
        <ele>655.6</ele>
        <time>2022-05-21 00:36:18</time>
      </trkpt>
      <trkpt lat="41.80618" lon="2.04097">
        <ele>655.8</ele>
        <time>2022-05-21 00:36:19</time>
      </trkpt>
      <trkpt lat="41.80619" lon="2.04102">
        <ele>656</ele>
        <time>2022-05-21 00:36:20</time>
      </trkpt>
      <trkpt lat="41.80619" lon="2.04107">
        <ele>656.2</ele>
        <time>2022-05-21 00:36:21</time>
      </trkpt>
      <trkpt lat="41.8062" lon="2.04112">
        <ele>656.2</ele>
        <time>2022-05-21 00:36:22</time>
      </trkpt>
      <trkpt lat="41.80621" lon="2.04117">
        <ele>656.4</ele>
        <time>2022-05-21 00:36:23</time>
      </trkpt>
      <trkpt lat="41.80622" lon="2.04121">
        <ele>656.6</ele>
        <time>2022-05-21 00:36:24</time>
      </trkpt>
      <trkpt lat="41.80623" lon="2.04126">
        <ele>656.6</ele>
        <time>2022-05-21 00:36:25</time>
      </trkpt>
      <trkpt lat="41.80624" lon="2.04131">
        <ele>656.8</ele>
        <time>2022-05-21 00:36:26</time>
      </trkpt>
      <trkpt lat="41.80625" lon="2.04135">
        <ele>657</ele>
        <time>2022-05-21 00:36:27</time>
      </trkpt>
      <trkpt lat="41.80626" lon="2.0414">
        <ele>657</ele>
        <time>2022-05-21 00:36:28</time>
      </trkpt>
      <trkpt lat="41.80627" lon="2.04145">
        <ele>657.2</ele>
        <time>2022-05-21 00:36:29</time>
      </trkpt>
      <trkpt lat="41.80628" lon="2.04149">
        <ele>657.4</ele>
        <time>2022-05-21 00:36:30</time>
      </trkpt>
      <trkpt lat="41.80629" lon="2.04154">
        <ele>657.4</ele>
        <time>2022-05-21 00:36:31</time>
      </trkpt>
      <trkpt lat="41.80631" lon="2.04158">
        <ele>657.6</ele>
        <time>2022-05-21 00:36:32</time>
      </trkpt>
      <trkpt lat="41.80632" lon="2.04162">
        <ele>657.8</ele>
        <time>2022-05-21 00:36:33</time>
      </trkpt>
      <trkpt lat="41.80634" lon="2.04166">
        <ele>658</ele>
        <time>2022-05-21 00:36:34</time>
      </trkpt>
      <trkpt lat="41.80635" lon="2.0417">
        <ele>658</ele>
        <time>2022-05-21 00:36:35</time>
      </trkpt>
      <trkpt lat="41.80637" lon="2.04174">
        <ele>658.2</ele>
        <time>2022-05-21 00:36:36</time>
      </trkpt>
      <trkpt lat="41.80639" lon="2.04178">
        <ele>658.4</ele>
        <time>2022-05-21 00:36:37</time>
      </trkpt>
      <trkpt lat="41.8064" lon="2.04182">
        <ele>658.6</ele>
        <time>2022-05-21 00:36:38</time>
      </trkpt>
      <trkpt lat="41.80642" lon="2.04186">
        <ele>658.6</ele>
        <time>2022-05-21 00:36:39</time>
      </trkpt>
      <trkpt lat="41.80645" lon="2.04189">
        <ele>658.8</ele>
        <time>2022-05-21 00:36:40</time>
      </trkpt>
      <trkpt lat="41.80647" lon="2.04193">
        <ele>659</ele>
        <time>2022-05-21 00:36:41</time>
      </trkpt>
      <trkpt lat="41.80649" lon="2.04197">
        <ele>659.2</ele>
        <time>2022-05-21 00:36:42</time>
      </trkpt>
      <trkpt lat="41.80652" lon="2.04201">
        <ele>659.4</ele>
        <time>2022-05-21 00:36:43</time>
      </trkpt>
      <trkpt lat="41.80654" lon="2.04204">
        <ele>659.4</ele>
        <time>2022-05-21 00:36:44</time>
      </trkpt>
      <trkpt lat="41.80657" lon="2.04208">
        <ele>659.6</ele>
        <time>2022-05-21 00:36:45</time>
      </trkpt>
      <trkpt lat="41.80659" lon="2.04212">
        <ele>659.8</ele>
        <time>2022-05-21 00:36:46</time>
      </trkpt>
      <trkpt lat="41.80661" lon="2.04216">
        <ele>659.8</ele>
        <time>2022-05-21 00:36:47</time>
      </trkpt>
      <trkpt lat="41.80664" lon="2.0422">
        <ele>660</ele>
        <time>2022-05-21 00:36:48</time>
      </trkpt>
      <trkpt lat="41.80667" lon="2.04224">
        <ele>660.2</ele>
        <time>2022-05-21 00:36:49</time>
      </trkpt>
      <trkpt lat="41.80669" lon="2.04227">
        <ele>660.2</ele>
        <time>2022-05-21 00:36:50</time>
      </trkpt>
      <trkpt lat="41.80672" lon="2.04231">
        <ele>660.4</ele>
        <time>2022-05-21 00:36:51</time>
      </trkpt>
      <trkpt lat="41.80675" lon="2.04235">
        <ele>660.6</ele>
        <time>2022-05-21 00:36:52</time>
      </trkpt>
      <trkpt lat="41.80678" lon="2.04238">
        <ele>660.6</ele>
        <time>2022-05-21 00:36:53</time>
      </trkpt>
      <trkpt lat="41.80681" lon="2.04242">
        <ele>660.8</ele>
        <time>2022-05-21 00:36:54</time>
      </trkpt>
      <trkpt lat="41.80684" lon="2.04246">
        <ele>661</ele>
        <time>2022-05-21 00:36:55</time>
      </trkpt>
      <trkpt lat="41.80686" lon="2.04249">
        <ele>661</ele>
        <time>2022-05-21 00:36:56</time>
      </trkpt>
      <trkpt lat="41.80689" lon="2.04253">
        <ele>661</ele>
        <time>2022-05-21 00:36:57</time>
      </trkpt>
      <trkpt lat="41.80693" lon="2.04257">
        <ele>661.2</ele>
        <time>2022-05-21 00:36:58</time>
      </trkpt>
      <trkpt lat="41.80695" lon="2.04261">
        <ele>661.4</ele>
        <time>2022-05-21 00:36:59</time>
      </trkpt>
      <trkpt lat="41.80698" lon="2.04264">
        <ele>661.4</ele>
        <time>2022-05-21 00:37:00</time>
      </trkpt>
      <trkpt lat="41.80701" lon="2.04268">
        <ele>661.4</ele>
        <time>2022-05-21 00:37:01</time>
      </trkpt>
      <trkpt lat="41.80704" lon="2.04272">
        <ele>661.6</ele>
        <time>2022-05-21 00:37:02</time>
      </trkpt>
      <trkpt lat="41.80708" lon="2.04277">
        <ele>661.6</ele>
        <time>2022-05-21 00:37:03</time>
      </trkpt>
      <trkpt lat="41.80711" lon="2.04282">
        <ele>661.4</ele>
        <time>2022-05-21 00:37:04</time>
      </trkpt>
      <trkpt lat="41.80714" lon="2.04287">
        <ele>661.4</ele>
        <time>2022-05-21 00:37:05</time>
      </trkpt>
      <trkpt lat="41.80718" lon="2.04292">
        <ele>661.2</ele>
        <time>2022-05-21 00:37:06</time>
      </trkpt>
      <trkpt lat="41.80722" lon="2.04298">
        <ele>661.2</ele>
        <time>2022-05-21 00:37:07</time>
      </trkpt>
      <trkpt lat="41.80726" lon="2.04303">
        <ele>661</ele>
        <time>2022-05-21 00:37:08</time>
      </trkpt>
      <trkpt lat="41.8073" lon="2.04308">
        <ele>660.8</ele>
        <time>2022-05-21 00:37:09</time>
      </trkpt>
      <trkpt lat="41.80734" lon="2.04314">
        <ele>660.6</ele>
        <time>2022-05-21 00:37:10</time>
      </trkpt>
      <trkpt lat="41.80738" lon="2.0432">
        <ele>660.2</ele>
        <time>2022-05-21 00:37:11</time>
      </trkpt>
      <trkpt lat="41.80742" lon="2.04326">
        <ele>660</ele>
        <time>2022-05-21 00:37:12</time>
      </trkpt>
      <trkpt lat="41.80746" lon="2.04333">
        <ele>659.6</ele>
        <time>2022-05-21 00:37:13</time>
      </trkpt>
      <trkpt lat="41.80751" lon="2.0434">
        <ele>659.4</ele>
        <time>2022-05-21 00:37:14</time>
      </trkpt>
      <trkpt lat="41.80756" lon="2.04348">
        <ele>659</ele>
        <time>2022-05-21 00:37:15</time>
      </trkpt>
      <trkpt lat="41.80761" lon="2.04356">
        <ele>658.6</ele>
        <time>2022-05-21 00:37:16</time>
      </trkpt>
      <trkpt lat="41.80766" lon="2.04365">
        <ele>658.2</ele>
        <time>2022-05-21 00:37:17</time>
      </trkpt>
      <trkpt lat="41.80772" lon="2.04376">
        <ele>658</ele>
        <time>2022-05-21 00:37:18</time>
      </trkpt>
      <trkpt lat="41.80776" lon="2.04387">
        <ele>657.6</ele>
        <time>2022-05-21 00:37:19</time>
      </trkpt>
      <trkpt lat="41.8078" lon="2.04398">
        <ele>657.2</ele>
        <time>2022-05-21 00:37:20</time>
      </trkpt>
      <trkpt lat="41.80784" lon="2.04409">
        <ele>656.8</ele>
        <time>2022-05-21 00:37:21</time>
      </trkpt>
      <trkpt lat="41.80788" lon="2.04421">
        <ele>656.6</ele>
        <time>2022-05-21 00:37:22</time>
      </trkpt>
      <trkpt lat="41.80791" lon="2.04432">
        <ele>656.2</ele>
        <time>2022-05-21 00:37:23</time>
      </trkpt>
      <trkpt lat="41.80795" lon="2.04444">
        <ele>655.8</ele>
        <time>2022-05-21 00:37:24</time>
      </trkpt>
      <trkpt lat="41.80798" lon="2.04456">
        <ele>655.6</ele>
        <time>2022-05-21 00:37:25</time>
      </trkpt>
      <trkpt lat="41.80802" lon="2.04467">
        <ele>655.2</ele>
        <time>2022-05-21 00:37:26</time>
      </trkpt>
      <trkpt lat="41.80805" lon="2.04479">
        <ele>654.8</ele>
        <time>2022-05-21 00:37:27</time>
      </trkpt>
      <trkpt lat="41.80809" lon="2.04491">
        <ele>654.6</ele>
        <time>2022-05-21 00:37:28</time>
      </trkpt>
      <trkpt lat="41.80812" lon="2.04504">
        <ele>654.2</ele>
        <time>2022-05-21 00:37:29</time>
      </trkpt>
      <trkpt lat="41.80815" lon="2.04516">
        <ele>653.8</ele>
        <time>2022-05-21 00:37:30</time>
      </trkpt>
      <trkpt lat="41.80818" lon="2.04529">
        <ele>653.6</ele>
        <time>2022-05-21 00:37:31</time>
      </trkpt>
      <trkpt lat="41.80822" lon="2.04542">
        <ele>653.2</ele>
        <time>2022-05-21 00:37:32</time>
      </trkpt>
      <trkpt lat="41.80825" lon="2.04555">
        <ele>653</ele>
        <time>2022-05-21 00:37:33</time>
      </trkpt>
      <trkpt lat="41.80828" lon="2.04567">
        <ele>652.6</ele>
        <time>2022-05-21 00:37:34</time>
      </trkpt>
      <trkpt lat="41.80832" lon="2.04578">
        <ele>652.4</ele>
        <time>2022-05-21 00:37:35</time>
      </trkpt>
      <trkpt lat="41.80835" lon="2.04589">
        <ele>652.2</ele>
        <time>2022-05-21 00:37:36</time>
      </trkpt>
      <trkpt lat="41.80839" lon="2.04601">
        <ele>652</ele>
        <time>2022-05-21 00:37:37</time>
      </trkpt>
      <trkpt lat="41.80843" lon="2.04612">
        <ele>651.8</ele>
        <time>2022-05-21 00:37:38</time>
      </trkpt>
      <trkpt lat="41.80846" lon="2.04623">
        <ele>651.6</ele>
        <time>2022-05-21 00:37:39</time>
      </trkpt>
      <trkpt lat="41.80849" lon="2.04634">
        <ele>651.2</ele>
        <time>2022-05-21 00:37:40</time>
      </trkpt>
      <trkpt lat="41.80853" lon="2.04645">
        <ele>651</ele>
        <time>2022-05-21 00:37:41</time>
      </trkpt>
      <trkpt lat="41.80855" lon="2.04656">
        <ele>650.8</ele>
        <time>2022-05-21 00:37:42</time>
      </trkpt>
      <trkpt lat="41.80858" lon="2.04668">
        <ele>650.6</ele>
        <time>2022-05-21 00:37:43</time>
      </trkpt>
      <trkpt lat="41.80862" lon="2.04679">
        <ele>650.4</ele>
        <time>2022-05-21 00:37:44</time>
      </trkpt>
      <trkpt lat="41.80864" lon="2.0469">
        <ele>650.4</ele>
        <time>2022-05-21 00:37:45</time>
      </trkpt>
      <trkpt lat="41.80867" lon="2.04701">
        <ele>650.2</ele>
        <time>2022-05-21 00:37:46</time>
      </trkpt>
      <trkpt lat="41.8087" lon="2.04712">
        <ele>650</ele>
        <time>2022-05-21 00:37:47</time>
      </trkpt>
      <trkpt lat="41.80873" lon="2.04723">
        <ele>650</ele>
        <time>2022-05-21 00:37:48</time>
      </trkpt>
      <trkpt lat="41.80876" lon="2.04733">
        <ele>650</ele>
        <time>2022-05-21 00:37:49</time>
      </trkpt>
      <trkpt lat="41.80879" lon="2.04744">
        <ele>649.8</ele>
        <time>2022-05-21 00:37:50</time>
      </trkpt>
      <trkpt lat="41.80882" lon="2.04754">
        <ele>649.8</ele>
        <time>2022-05-21 00:37:51</time>
      </trkpt>
      <trkpt lat="41.80885" lon="2.04765">
        <ele>650</ele>
        <time>2022-05-21 00:37:52</time>
      </trkpt>
      <trkpt lat="41.80888" lon="2.04775">
        <ele>650</ele>
        <time>2022-05-21 00:37:53</time>
      </trkpt>
      <trkpt lat="41.80891" lon="2.04786">
        <ele>650</ele>
        <time>2022-05-21 00:37:54</time>
      </trkpt>
      <trkpt lat="41.80894" lon="2.04796">
        <ele>650</ele>
        <time>2022-05-21 00:37:55</time>
      </trkpt>
      <trkpt lat="41.80896" lon="2.04806">
        <ele>650.2</ele>
        <time>2022-05-21 00:37:56</time>
      </trkpt>
      <trkpt lat="41.80899" lon="2.04817">
        <ele>650.2</ele>
        <time>2022-05-21 00:37:57</time>
      </trkpt>
      <trkpt lat="41.80902" lon="2.04827">
        <ele>650.2</ele>
        <time>2022-05-21 00:37:58</time>
      </trkpt>
      <trkpt lat="41.80904" lon="2.04837">
        <ele>650.2</ele>
        <time>2022-05-21 00:37:59</time>
      </trkpt>
      <trkpt lat="41.80907" lon="2.04847">
        <ele>650.4</ele>
        <time>2022-05-21 00:38:00</time>
      </trkpt>
      <trkpt lat="41.80909" lon="2.04856">
        <ele>650.6</ele>
        <time>2022-05-21 00:38:01</time>
      </trkpt>
      <trkpt lat="41.80912" lon="2.04866">
        <ele>650.6</ele>
        <time>2022-05-21 00:38:02</time>
      </trkpt>
      <trkpt lat="41.80914" lon="2.04875">
        <ele>650.8</ele>
        <time>2022-05-21 00:38:03</time>
      </trkpt>
      <trkpt lat="41.80916" lon="2.04883">
        <ele>651</ele>
        <time>2022-05-21 00:38:04</time>
      </trkpt>
      <trkpt lat="41.80919" lon="2.04893">
        <ele>651</ele>
        <time>2022-05-21 00:38:05</time>
      </trkpt>
      <trkpt lat="41.80921" lon="2.04901">
        <ele>651.2</ele>
        <time>2022-05-21 00:38:06</time>
      </trkpt>
      <trkpt lat="41.80923" lon="2.0491">
        <ele>651.4</ele>
        <time>2022-05-21 00:38:07</time>
      </trkpt>
      <trkpt lat="41.80926" lon="2.04918">
        <ele>651.6</ele>
        <time>2022-05-21 00:38:08</time>
      </trkpt>
      <trkpt lat="41.80929" lon="2.04926">
        <ele>651.8</ele>
        <time>2022-05-21 00:38:09</time>
      </trkpt>
      <trkpt lat="41.80931" lon="2.04934">
        <ele>652</ele>
        <time>2022-05-21 00:38:10</time>
      </trkpt>
      <trkpt lat="41.80933" lon="2.04941">
        <ele>652.2</ele>
        <time>2022-05-21 00:38:11</time>
      </trkpt>
      <trkpt lat="41.80935" lon="2.04949">
        <ele>652.4</ele>
        <time>2022-05-21 00:38:12</time>
      </trkpt>
      <trkpt lat="41.80937" lon="2.04957">
        <ele>652.4</ele>
        <time>2022-05-21 00:38:13</time>
      </trkpt>
      <trkpt lat="41.80939" lon="2.04965">
        <ele>652.6</ele>
        <time>2022-05-21 00:38:14</time>
      </trkpt>
      <trkpt lat="41.80941" lon="2.04972">
        <ele>652.8</ele>
        <time>2022-05-21 00:38:15</time>
      </trkpt>
      <trkpt lat="41.80943" lon="2.04979">
        <ele>653</ele>
        <time>2022-05-21 00:38:16</time>
      </trkpt>
      <trkpt lat="41.80944" lon="2.04985">
        <ele>653.2</ele>
        <time>2022-05-21 00:38:17</time>
      </trkpt>
      <trkpt lat="41.80946" lon="2.04992">
        <ele>653.4</ele>
        <time>2022-05-21 00:38:18</time>
      </trkpt>
      <trkpt lat="41.80947" lon="2.04999">
        <ele>653.6</ele>
        <time>2022-05-21 00:38:19</time>
      </trkpt>
      <trkpt lat="41.80949" lon="2.05005">
        <ele>653.8</ele>
        <time>2022-05-21 00:38:20</time>
      </trkpt>
      <trkpt lat="41.80951" lon="2.05012">
        <ele>654</ele>
        <time>2022-05-21 00:38:21</time>
      </trkpt>
      <trkpt lat="41.80953" lon="2.05018">
        <ele>654.2</ele>
        <time>2022-05-21 00:38:22</time>
      </trkpt>
      <trkpt lat="41.80955" lon="2.05024">
        <ele>654.4</ele>
        <time>2022-05-21 00:38:23</time>
      </trkpt>
      <trkpt lat="41.80956" lon="2.05031">
        <ele>654.6</ele>
        <time>2022-05-21 00:38:24</time>
      </trkpt>
      <trkpt lat="41.80958" lon="2.05037">
        <ele>654.8</ele>
        <time>2022-05-21 00:38:25</time>
      </trkpt>
      <trkpt lat="41.8096" lon="2.05043">
        <ele>655</ele>
        <time>2022-05-21 00:38:26</time>
      </trkpt>
      <trkpt lat="41.80962" lon="2.0505">
        <ele>655</ele>
        <time>2022-05-21 00:38:27</time>
      </trkpt>
      <trkpt lat="41.80963" lon="2.05056">
        <ele>655.4</ele>
        <time>2022-05-21 00:38:28</time>
      </trkpt>
      <trkpt lat="41.80965" lon="2.05062">
        <ele>655.6</ele>
        <time>2022-05-21 00:38:29</time>
      </trkpt>
      <trkpt lat="41.80966" lon="2.05069">
        <ele>655.8</ele>
        <time>2022-05-21 00:38:30</time>
      </trkpt>
      <trkpt lat="41.80968" lon="2.05075">
        <ele>656</ele>
        <time>2022-05-21 00:38:31</time>
      </trkpt>
      <trkpt lat="41.80969" lon="2.0508">
        <ele>656.2</ele>
        <time>2022-05-21 00:38:32</time>
      </trkpt>
      <trkpt lat="41.80971" lon="2.05086">
        <ele>656.4</ele>
        <time>2022-05-21 00:38:33</time>
      </trkpt>
      <trkpt lat="41.80972" lon="2.05092">
        <ele>656.6</ele>
        <time>2022-05-21 00:38:34</time>
      </trkpt>
      <trkpt lat="41.80973" lon="2.05098">
        <ele>656.8</ele>
        <time>2022-05-21 00:38:35</time>
      </trkpt>
      <trkpt lat="41.80975" lon="2.05104">
        <ele>657</ele>
        <time>2022-05-21 00:38:36</time>
      </trkpt>
      <trkpt lat="41.80976" lon="2.05109">
        <ele>657.2</ele>
        <time>2022-05-21 00:38:37</time>
      </trkpt>
      <trkpt lat="41.80978" lon="2.05115">
        <ele>657.4</ele>
        <time>2022-05-21 00:38:38</time>
      </trkpt>
      <trkpt lat="41.80979" lon="2.0512">
        <ele>657.6</ele>
        <time>2022-05-21 00:38:39</time>
      </trkpt>
      <trkpt lat="41.80981" lon="2.05126">
        <ele>657.8</ele>
        <time>2022-05-21 00:38:40</time>
      </trkpt>
      <trkpt lat="41.80982" lon="2.05131">
        <ele>658</ele>
        <time>2022-05-21 00:38:41</time>
      </trkpt>
      <trkpt lat="41.80984" lon="2.05136">
        <ele>658.2</ele>
        <time>2022-05-21 00:38:42</time>
      </trkpt>
      <trkpt lat="41.80985" lon="2.05142">
        <ele>658.2</ele>
        <time>2022-05-21 00:38:43</time>
      </trkpt>
      <trkpt lat="41.80987" lon="2.05147">
        <ele>658.4</ele>
        <time>2022-05-21 00:38:44</time>
      </trkpt>
      <trkpt lat="41.80988" lon="2.05153">
        <ele>658.6</ele>
        <time>2022-05-21 00:38:45</time>
      </trkpt>
      <trkpt lat="41.80989" lon="2.05158">
        <ele>658.8</ele>
        <time>2022-05-21 00:38:46</time>
      </trkpt>
      <trkpt lat="41.80991" lon="2.05163">
        <ele>658.8</ele>
        <time>2022-05-21 00:38:47</time>
      </trkpt>
      <trkpt lat="41.80993" lon="2.05168">
        <ele>659</ele>
        <time>2022-05-21 00:38:48</time>
      </trkpt>
      <trkpt lat="41.80994" lon="2.05173">
        <ele>659.2</ele>
        <time>2022-05-21 00:38:49</time>
      </trkpt>
      <trkpt lat="41.80995" lon="2.05178">
        <ele>659.2</ele>
        <time>2022-05-21 00:38:50</time>
      </trkpt>
      <trkpt lat="41.80997" lon="2.05184">
        <ele>659.4</ele>
        <time>2022-05-21 00:38:51</time>
      </trkpt>
      <trkpt lat="41.80998" lon="2.05189">
        <ele>659.6</ele>
        <time>2022-05-21 00:38:52</time>
      </trkpt>
      <trkpt lat="41.81" lon="2.05194">
        <ele>659.6</ele>
        <time>2022-05-21 00:38:53</time>
      </trkpt>
      <trkpt lat="41.81001" lon="2.05199">
        <ele>659.8</ele>
        <time>2022-05-21 00:38:54</time>
      </trkpt>
      <trkpt lat="41.81003" lon="2.05204">
        <ele>660</ele>
        <time>2022-05-21 00:38:55</time>
      </trkpt>
      <trkpt lat="41.81004" lon="2.05209">
        <ele>660.2</ele>
        <time>2022-05-21 00:38:56</time>
      </trkpt>
      <trkpt lat="41.81005" lon="2.05214">
        <ele>660.2</ele>
        <time>2022-05-21 00:38:57</time>
      </trkpt>
      <trkpt lat="41.81007" lon="2.05219">
        <ele>660.4</ele>
        <time>2022-05-21 00:38:58</time>
      </trkpt>
      <trkpt lat="41.81009" lon="2.05224">
        <ele>660.6</ele>
        <time>2022-05-21 00:38:59</time>
      </trkpt>
      <trkpt lat="41.81011" lon="2.05229">
        <ele>660.6</ele>
        <time>2022-05-21 00:39:00</time>
      </trkpt>
      <trkpt lat="41.81013" lon="2.05234">
        <ele>660.8</ele>
        <time>2022-05-21 00:39:01</time>
      </trkpt>
      <trkpt lat="41.81015" lon="2.05239">
        <ele>661</ele>
        <time>2022-05-21 00:39:02</time>
      </trkpt>
      <trkpt lat="41.81016" lon="2.05244">
        <ele>661.2</ele>
        <time>2022-05-21 00:39:03</time>
      </trkpt>
      <trkpt lat="41.81018" lon="2.05249">
        <ele>661.4</ele>
        <time>2022-05-21 00:39:04</time>
      </trkpt>
      <trkpt lat="41.8102" lon="2.05254">
        <ele>661.4</ele>
        <time>2022-05-21 00:39:05</time>
      </trkpt>
      <trkpt lat="41.81023" lon="2.05258">
        <ele>661.6</ele>
        <time>2022-05-21 00:39:06</time>
      </trkpt>
      <trkpt lat="41.81025" lon="2.05263">
        <ele>661.8</ele>
        <time>2022-05-21 00:39:07</time>
      </trkpt>
      <trkpt lat="41.81027" lon="2.05267">
        <ele>661.8</ele>
        <time>2022-05-21 00:39:08</time>
      </trkpt>
      <trkpt lat="41.8103" lon="2.05272">
        <ele>662</ele>
        <time>2022-05-21 00:39:09</time>
      </trkpt>
      <trkpt lat="41.81032" lon="2.05276">
        <ele>662</ele>
        <time>2022-05-21 00:39:10</time>
      </trkpt>
      <trkpt lat="41.81035" lon="2.0528">
        <ele>662.2</ele>
        <time>2022-05-21 00:39:11</time>
      </trkpt>
      <trkpt lat="41.81038" lon="2.05285">
        <ele>662.4</ele>
        <time>2022-05-21 00:39:12</time>
      </trkpt>
      <trkpt lat="41.8104" lon="2.05289">
        <ele>662.4</ele>
        <time>2022-05-21 00:39:13</time>
      </trkpt>
      <trkpt lat="41.81042" lon="2.05293">
        <ele>662.6</ele>
        <time>2022-05-21 00:39:14</time>
      </trkpt>
      <trkpt lat="41.81044" lon="2.05297">
        <ele>662.8</ele>
        <time>2022-05-21 00:39:15</time>
      </trkpt>
      <trkpt lat="41.81046" lon="2.05301">
        <ele>663</ele>
        <time>2022-05-21 00:39:16</time>
      </trkpt>
      <trkpt lat="41.81049" lon="2.05305">
        <ele>663.2</ele>
        <time>2022-05-21 00:39:17</time>
      </trkpt>
      <trkpt lat="41.81051" lon="2.05309">
        <ele>663.2</ele>
        <time>2022-05-21 00:39:18</time>
      </trkpt>
      <trkpt lat="41.81053" lon="2.05314">
        <ele>663.4</ele>
        <time>2022-05-21 00:39:19</time>
      </trkpt>
      <trkpt lat="41.81056" lon="2.05318">
        <ele>663.6</ele>
        <time>2022-05-21 00:39:20</time>
      </trkpt>
      <trkpt lat="41.81058" lon="2.05322">
        <ele>663.6</ele>
        <time>2022-05-21 00:39:21</time>
      </trkpt>
      <trkpt lat="41.81061" lon="2.05327">
        <ele>663.8</ele>
        <time>2022-05-21 00:39:22</time>
      </trkpt>
      <trkpt lat="41.81063" lon="2.05331">
        <ele>664</ele>
        <time>2022-05-21 00:39:23</time>
      </trkpt>
      <trkpt lat="41.81066" lon="2.05335">
        <ele>664</ele>
        <time>2022-05-21 00:39:24</time>
      </trkpt>
      <trkpt lat="41.81068" lon="2.05339">
        <ele>664.2</ele>
        <time>2022-05-21 00:39:25</time>
      </trkpt>
      <trkpt lat="41.8107" lon="2.05344">
        <ele>664.4</ele>
        <time>2022-05-21 00:39:26</time>
      </trkpt>
      <trkpt lat="41.81072" lon="2.05348">
        <ele>664.4</ele>
        <time>2022-05-21 00:39:27</time>
      </trkpt>
      <trkpt lat="41.81075" lon="2.05352">
        <ele>664.6</ele>
        <time>2022-05-21 00:39:28</time>
      </trkpt>
      <trkpt lat="41.81076" lon="2.05356">
        <ele>664.8</ele>
        <time>2022-05-21 00:39:29</time>
      </trkpt>
      <trkpt lat="41.81078" lon="2.05361">
        <ele>664.8</ele>
        <time>2022-05-21 00:39:30</time>
      </trkpt>
      <trkpt lat="41.8108" lon="2.05366">
        <ele>665</ele>
        <time>2022-05-21 00:39:31</time>
      </trkpt>
      <trkpt lat="41.81081" lon="2.0537">
        <ele>665</ele>
        <time>2022-05-21 00:39:32</time>
      </trkpt>
      <trkpt lat="41.81083" lon="2.05375">
        <ele>665.2</ele>
        <time>2022-05-21 00:39:33</time>
      </trkpt>
      <trkpt lat="41.81085" lon="2.05381">
        <ele>665.2</ele>
        <time>2022-05-21 00:39:34</time>
      </trkpt>
      <trkpt lat="41.81087" lon="2.05386">
        <ele>665.4</ele>
        <time>2022-05-21 00:39:35</time>
      </trkpt>
      <trkpt lat="41.81088" lon="2.05392">
        <ele>665.4</ele>
        <time>2022-05-21 00:39:36</time>
      </trkpt>
      <trkpt lat="41.81089" lon="2.05397">
        <ele>665.6</ele>
        <time>2022-05-21 00:39:37</time>
      </trkpt>
      <trkpt lat="41.8109" lon="2.05403">
        <ele>665.8</ele>
        <time>2022-05-21 00:39:38</time>
      </trkpt>
      <trkpt lat="41.81091" lon="2.05409">
        <ele>665.8</ele>
        <time>2022-05-21 00:39:39</time>
      </trkpt>
      <trkpt lat="41.81092" lon="2.05415">
        <ele>665.8</ele>
        <time>2022-05-21 00:39:40</time>
      </trkpt>
      <trkpt lat="41.81093" lon="2.05421">
        <ele>666</ele>
        <time>2022-05-21 00:39:41</time>
      </trkpt>
      <trkpt lat="41.81094" lon="2.05427">
        <ele>666</ele>
        <time>2022-05-21 00:39:42</time>
      </trkpt>
      <trkpt lat="41.81095" lon="2.05433">
        <ele>666</ele>
        <time>2022-05-21 00:39:43</time>
      </trkpt>
      <trkpt lat="41.81096" lon="2.05438">
        <ele>666.2</ele>
        <time>2022-05-21 00:39:44</time>
      </trkpt>
      <trkpt lat="41.81097" lon="2.05444">
        <ele>666.2</ele>
        <time>2022-05-21 00:39:45</time>
      </trkpt>
      <trkpt lat="41.81098" lon="2.0545">
        <ele>666.4</ele>
        <time>2022-05-21 00:39:46</time>
      </trkpt>
      <trkpt lat="41.81099" lon="2.05456">
        <ele>666.4</ele>
        <time>2022-05-21 00:39:47</time>
      </trkpt>
      <trkpt lat="41.811" lon="2.05462">
        <ele>666.6</ele>
        <time>2022-05-21 00:39:48</time>
      </trkpt>
      <trkpt lat="41.81101" lon="2.05468">
        <ele>666.6</ele>
        <time>2022-05-21 00:39:49</time>
      </trkpt>
      <trkpt lat="41.81102" lon="2.05474">
        <ele>666.8</ele>
        <time>2022-05-21 00:39:50</time>
      </trkpt>
      <trkpt lat="41.81103" lon="2.0548">
        <ele>666.8</ele>
        <time>2022-05-21 00:39:51</time>
      </trkpt>
      <trkpt lat="41.81104" lon="2.05486">
        <ele>667</ele>
        <time>2022-05-21 00:39:52</time>
      </trkpt>
      <trkpt lat="41.81106" lon="2.05492">
        <ele>667</ele>
        <time>2022-05-21 00:39:53</time>
      </trkpt>
      <trkpt lat="41.81107" lon="2.05498">
        <ele>667.2</ele>
        <time>2022-05-21 00:39:54</time>
      </trkpt>
      <trkpt lat="41.81108" lon="2.05504">
        <ele>667.2</ele>
        <time>2022-05-21 00:39:55</time>
      </trkpt>
      <trkpt lat="41.8111" lon="2.0551">
        <ele>667.4</ele>
        <time>2022-05-21 00:39:56</time>
      </trkpt>
      <trkpt lat="41.81111" lon="2.05517">
        <ele>667.4</ele>
        <time>2022-05-21 00:39:57</time>
      </trkpt>
      <trkpt lat="41.81112" lon="2.05523">
        <ele>667.4</ele>
        <time>2022-05-21 00:39:58</time>
      </trkpt>
      <trkpt lat="41.81113" lon="2.05529">
        <ele>667.6</ele>
        <time>2022-05-21 00:39:59</time>
      </trkpt>
      <trkpt lat="41.81113" lon="2.05535">
        <ele>667.6</ele>
        <time>2022-05-21 00:40:00</time>
      </trkpt>
      <trkpt lat="41.81114" lon="2.0554">
        <ele>667.8</ele>
        <time>2022-05-21 00:40:01</time>
      </trkpt>
      <trkpt lat="41.81115" lon="2.05549">
        <ele>667.8</ele>
        <time>2022-05-21 00:40:02</time>
      </trkpt>
      <trkpt lat="41.81115" lon="2.05555">
        <ele>667.8</ele>
        <time>2022-05-21 00:40:03</time>
      </trkpt>
      <trkpt lat="41.81116" lon="2.05562">
        <ele>668</ele>
        <time>2022-05-21 00:40:04</time>
      </trkpt>
      <trkpt lat="41.81117" lon="2.05569">
        <ele>668</ele>
        <time>2022-05-21 00:40:05</time>
      </trkpt>
      <trkpt lat="41.81118" lon="2.05576">
        <ele>668</ele>
        <time>2022-05-21 00:40:06</time>
      </trkpt>
      <trkpt lat="41.8112" lon="2.05582">
        <ele>668</ele>
        <time>2022-05-21 00:40:07</time>
      </trkpt>
      <trkpt lat="41.8112" lon="2.05589">
        <ele>668</ele>
        <time>2022-05-21 00:40:08</time>
      </trkpt>
      <trkpt lat="41.81121" lon="2.05597">
        <ele>668</ele>
        <time>2022-05-21 00:40:09</time>
      </trkpt>
      <trkpt lat="41.81122" lon="2.05605">
        <ele>668</ele>
        <time>2022-05-21 00:40:10</time>
      </trkpt>
      <trkpt lat="41.81123" lon="2.05612">
        <ele>667.8</ele>
        <time>2022-05-21 00:40:11</time>
      </trkpt>
      <trkpt lat="41.81124" lon="2.0562">
        <ele>667.8</ele>
        <time>2022-05-21 00:40:12</time>
      </trkpt>
      <trkpt lat="41.81125" lon="2.05628">
        <ele>667.8</ele>
        <time>2022-05-21 00:40:13</time>
      </trkpt>
      <trkpt lat="41.81126" lon="2.05636">
        <ele>667.8</ele>
        <time>2022-05-21 00:40:14</time>
      </trkpt>
      <trkpt lat="41.81127" lon="2.05645">
        <ele>667.6</ele>
        <time>2022-05-21 00:40:15</time>
      </trkpt>
      <trkpt lat="41.81128" lon="2.05653">
        <ele>667.6</ele>
        <time>2022-05-21 00:40:16</time>
      </trkpt>
      <trkpt lat="41.81128" lon="2.05662">
        <ele>667.4</ele>
        <time>2022-05-21 00:40:17</time>
      </trkpt>
      <trkpt lat="41.81129" lon="2.05671">
        <ele>667.4</ele>
        <time>2022-05-21 00:40:18</time>
      </trkpt>
      <trkpt lat="41.8113" lon="2.05679">
        <ele>667.2</ele>
        <time>2022-05-21 00:40:19</time>
      </trkpt>
      <trkpt lat="41.81131" lon="2.05688">
        <ele>667.2</ele>
        <time>2022-05-21 00:40:20</time>
      </trkpt>
      <trkpt lat="41.81132" lon="2.05697">
        <ele>667</ele>
        <time>2022-05-21 00:40:21</time>
      </trkpt>
      <trkpt lat="41.81133" lon="2.05705">
        <ele>667</ele>
        <time>2022-05-21 00:40:22</time>
      </trkpt>
      <trkpt lat="41.81133" lon="2.05714">
        <ele>666.8</ele>
        <time>2022-05-21 00:40:23</time>
      </trkpt>
      <trkpt lat="41.81134" lon="2.05723">
        <ele>666.8</ele>
        <time>2022-05-21 00:40:24</time>
      </trkpt>
      <trkpt lat="41.81135" lon="2.05731">
        <ele>666.8</ele>
        <time>2022-05-21 00:40:25</time>
      </trkpt>
      <trkpt lat="41.81136" lon="2.0574">
        <ele>666.8</ele>
        <time>2022-05-21 00:40:26</time>
      </trkpt>
      <trkpt lat="41.81137" lon="2.05749">
        <ele>666.8</ele>
        <time>2022-05-21 00:40:27</time>
      </trkpt>
      <trkpt lat="41.81137" lon="2.05757">
        <ele>666.8</ele>
        <time>2022-05-21 00:40:28</time>
      </trkpt>
      <trkpt lat="41.81138" lon="2.05766">
        <ele>666.6</ele>
        <time>2022-05-21 00:40:29</time>
      </trkpt>
      <trkpt lat="41.81139" lon="2.05774">
        <ele>666.6</ele>
        <time>2022-05-21 00:40:30</time>
      </trkpt>
      <trkpt lat="41.8114" lon="2.05783">
        <ele>666.6</ele>
        <time>2022-05-21 00:40:31</time>
      </trkpt>
      <trkpt lat="41.81141" lon="2.05792">
        <ele>666.6</ele>
        <time>2022-05-21 00:40:32</time>
      </trkpt>
      <trkpt lat="41.81141" lon="2.058">
        <ele>666.6</ele>
        <time>2022-05-21 00:40:33</time>
      </trkpt>
      <trkpt lat="41.81142" lon="2.05809">
        <ele>666.6</ele>
        <time>2022-05-21 00:40:34</time>
      </trkpt>
      <trkpt lat="41.81143" lon="2.05817">
        <ele>666.6</ele>
        <time>2022-05-21 00:40:35</time>
      </trkpt>
      <trkpt lat="41.81144" lon="2.05826">
        <ele>666.6</ele>
        <time>2022-05-21 00:40:36</time>
      </trkpt>
      <trkpt lat="41.81145" lon="2.05834">
        <ele>666.6</ele>
        <time>2022-05-21 00:40:37</time>
      </trkpt>
      <trkpt lat="41.81145" lon="2.05843">
        <ele>666.6</ele>
        <time>2022-05-21 00:40:38</time>
      </trkpt>
      <trkpt lat="41.81146" lon="2.05852">
        <ele>666.6</ele>
        <time>2022-05-21 00:40:39</time>
      </trkpt>
      <trkpt lat="41.81147" lon="2.0586">
        <ele>666.6</ele>
        <time>2022-05-21 00:40:40</time>
      </trkpt>
      <trkpt lat="41.81148" lon="2.05869">
        <ele>666.6</ele>
        <time>2022-05-21 00:40:41</time>
      </trkpt>
      <trkpt lat="41.81149" lon="2.05878">
        <ele>666.6</ele>
        <time>2022-05-21 00:40:42</time>
      </trkpt>
      <trkpt lat="41.81149" lon="2.05887">
        <ele>666.6</ele>
        <time>2022-05-21 00:40:43</time>
      </trkpt>
      <trkpt lat="41.8115" lon="2.05896">
        <ele>666.6</ele>
        <time>2022-05-21 00:40:44</time>
      </trkpt>
      <trkpt lat="41.81151" lon="2.05905">
        <ele>666.6</ele>
        <time>2022-05-21 00:40:45</time>
      </trkpt>
      <trkpt lat="41.81152" lon="2.05913">
        <ele>666.6</ele>
        <time>2022-05-21 00:40:46</time>
      </trkpt>
      <trkpt lat="41.81153" lon="2.05922">
        <ele>666.6</ele>
        <time>2022-05-21 00:40:47</time>
      </trkpt>
      <trkpt lat="41.81153" lon="2.05931">
        <ele>666.6</ele>
        <time>2022-05-21 00:40:48</time>
      </trkpt>
      <trkpt lat="41.81154" lon="2.05941">
        <ele>666.6</ele>
        <time>2022-05-21 00:40:49</time>
      </trkpt>
      <trkpt lat="41.81155" lon="2.0595">
        <ele>666.4</ele>
        <time>2022-05-21 00:40:50</time>
      </trkpt>
      <trkpt lat="41.81156" lon="2.05959">
        <ele>666.6</ele>
        <time>2022-05-21 00:40:51</time>
      </trkpt>
      <trkpt lat="41.81157" lon="2.05968">
        <ele>666.6</ele>
        <time>2022-05-21 00:40:52</time>
      </trkpt>
      <trkpt lat="41.81158" lon="2.05977">
        <ele>666.6</ele>
        <time>2022-05-21 00:40:53</time>
      </trkpt>
      <trkpt lat="41.81159" lon="2.05986">
        <ele>666.6</ele>
        <time>2022-05-21 00:40:54</time>
      </trkpt>
      <trkpt lat="41.8116" lon="2.05995">
        <ele>666.6</ele>
        <time>2022-05-21 00:40:55</time>
      </trkpt>
      <trkpt lat="41.81161" lon="2.06004">
        <ele>666.6</ele>
        <time>2022-05-21 00:40:56</time>
      </trkpt>
      <trkpt lat="41.81161" lon="2.06013">
        <ele>666.6</ele>
        <time>2022-05-21 00:40:57</time>
      </trkpt>
      <trkpt lat="41.81162" lon="2.06021">
        <ele>666.6</ele>
        <time>2022-05-21 00:40:58</time>
      </trkpt>
      <trkpt lat="41.81163" lon="2.06031">
        <ele>666.6</ele>
        <time>2022-05-21 00:40:59</time>
      </trkpt>
      <trkpt lat="41.81164" lon="2.06039">
        <ele>666.6</ele>
        <time>2022-05-21 00:41:00</time>
      </trkpt>
      <trkpt lat="41.81165" lon="2.06048">
        <ele>666.6</ele>
        <time>2022-05-21 00:41:01</time>
      </trkpt>
      <trkpt lat="41.81166" lon="2.06057">
        <ele>666.6</ele>
        <time>2022-05-21 00:41:02</time>
      </trkpt>
      <trkpt lat="41.81166" lon="2.06066">
        <ele>666.8</ele>
        <time>2022-05-21 00:41:03</time>
      </trkpt>
      <trkpt lat="41.81167" lon="2.06075">
        <ele>666.8</ele>
        <time>2022-05-21 00:41:04</time>
      </trkpt>
      <trkpt lat="41.81168" lon="2.06084">
        <ele>666.8</ele>
        <time>2022-05-21 00:41:05</time>
      </trkpt>
      <trkpt lat="41.81169" lon="2.06093">
        <ele>666.8</ele>
        <time>2022-05-21 00:41:06</time>
      </trkpt>
      <trkpt lat="41.8117" lon="2.06102">
        <ele>666.8</ele>
        <time>2022-05-21 00:41:07</time>
      </trkpt>
      <trkpt lat="41.81171" lon="2.06111">
        <ele>667</ele>
        <time>2022-05-21 00:41:08</time>
      </trkpt>
      <trkpt lat="41.81171" lon="2.0612">
        <ele>667</ele>
        <time>2022-05-21 00:41:09</time>
      </trkpt>
      <trkpt lat="41.81172" lon="2.06128">
        <ele>667.2</ele>
        <time>2022-05-21 00:41:10</time>
      </trkpt>
      <trkpt lat="41.81173" lon="2.06136">
        <ele>667.2</ele>
        <time>2022-05-21 00:41:11</time>
      </trkpt>
      <trkpt lat="41.81173" lon="2.06144">
        <ele>667.4</ele>
        <time>2022-05-21 00:41:12</time>
      </trkpt>
      <trkpt lat="41.81174" lon="2.06151">
        <ele>667.6</ele>
        <time>2022-05-21 00:41:13</time>
      </trkpt>
      <trkpt lat="41.81174" lon="2.06159">
        <ele>667.8</ele>
        <time>2022-05-21 00:41:14</time>
      </trkpt>
      <trkpt lat="41.81174" lon="2.06166">
        <ele>668</ele>
        <time>2022-05-21 00:41:15</time>
      </trkpt>
      <trkpt lat="41.81175" lon="2.06173">
        <ele>668.2</ele>
        <time>2022-05-21 00:41:16</time>
      </trkpt>
      <trkpt lat="41.81175" lon="2.06179">
        <ele>668.6</ele>
        <time>2022-05-21 00:41:17</time>
      </trkpt>
      <trkpt lat="41.81176" lon="2.06186">
        <ele>668.8</ele>
        <time>2022-05-21 00:41:18</time>
      </trkpt>
      <trkpt lat="41.81176" lon="2.06192">
        <ele>669</ele>
        <time>2022-05-21 00:41:19</time>
      </trkpt>
      <trkpt lat="41.81177" lon="2.06199">
        <ele>669.2</ele>
        <time>2022-05-21 00:41:20</time>
      </trkpt>
      <trkpt lat="41.81177" lon="2.06204">
        <ele>669.4</ele>
        <time>2022-05-21 00:41:21</time>
      </trkpt>
      <trkpt lat="41.81178" lon="2.0621">
        <ele>669.6</ele>
        <time>2022-05-21 00:41:22</time>
      </trkpt>
      <trkpt lat="41.81178" lon="2.06216">
        <ele>669.8</ele>
        <time>2022-05-21 00:41:23</time>
      </trkpt>
      <trkpt lat="41.81178" lon="2.06222">
        <ele>670</ele>
        <time>2022-05-21 00:41:24</time>
      </trkpt>
      <trkpt lat="41.81179" lon="2.06229">
        <ele>670</ele>
        <time>2022-05-21 00:41:25</time>
      </trkpt>
      <trkpt lat="41.81179" lon="2.06235">
        <ele>670.2</ele>
        <time>2022-05-21 00:41:26</time>
      </trkpt>
      <trkpt lat="41.8118" lon="2.06241">
        <ele>670.4</ele>
        <time>2022-05-21 00:41:27</time>
      </trkpt>
      <trkpt lat="41.81181" lon="2.06247">
        <ele>670.6</ele>
        <time>2022-05-21 00:41:28</time>
      </trkpt>
      <trkpt lat="41.81181" lon="2.06253">
        <ele>670.8</ele>
        <time>2022-05-21 00:41:29</time>
      </trkpt>
      <trkpt lat="41.81182" lon="2.0626">
        <ele>671</ele>
        <time>2022-05-21 00:41:30</time>
      </trkpt>
      <trkpt lat="41.81183" lon="2.06266">
        <ele>671.2</ele>
        <time>2022-05-21 00:41:31</time>
      </trkpt>
      <trkpt lat="41.81184" lon="2.06272">
        <ele>671.2</ele>
        <time>2022-05-21 00:41:32</time>
      </trkpt>
      <trkpt lat="41.81185" lon="2.06277">
        <ele>671.4</ele>
        <time>2022-05-21 00:41:33</time>
      </trkpt>
      <trkpt lat="41.81185" lon="2.06283">
        <ele>671.6</ele>
        <time>2022-05-21 00:41:34</time>
      </trkpt>
      <trkpt lat="41.81185" lon="2.06289">
        <ele>671.8</ele>
        <time>2022-05-21 00:41:35</time>
      </trkpt>
      <trkpt lat="41.81186" lon="2.06294">
        <ele>672</ele>
        <time>2022-05-21 00:41:36</time>
      </trkpt>
      <trkpt lat="41.81186" lon="2.063">
        <ele>672.2</ele>
        <time>2022-05-21 00:41:37</time>
      </trkpt>
      <trkpt lat="41.81187" lon="2.06305">
        <ele>672.2</ele>
        <time>2022-05-21 00:41:38</time>
      </trkpt>
      <trkpt lat="41.81188" lon="2.06311">
        <ele>672.4</ele>
        <time>2022-05-21 00:41:39</time>
      </trkpt>
      <trkpt lat="41.81188" lon="2.06317">
        <ele>672.6</ele>
        <time>2022-05-21 00:41:40</time>
      </trkpt>
      <trkpt lat="41.81189" lon="2.06323">
        <ele>672.8</ele>
        <time>2022-05-21 00:41:41</time>
      </trkpt>
      <trkpt lat="41.81189" lon="2.06328">
        <ele>672.8</ele>
        <time>2022-05-21 00:41:42</time>
      </trkpt>
      <trkpt lat="41.81189" lon="2.06334">
        <ele>673</ele>
        <time>2022-05-21 00:41:43</time>
      </trkpt>
      <trkpt lat="41.8119" lon="2.0634">
        <ele>673.2</ele>
        <time>2022-05-21 00:41:44</time>
      </trkpt>
      <trkpt lat="41.81191" lon="2.06346">
        <ele>673.4</ele>
        <time>2022-05-21 00:41:45</time>
      </trkpt>
      <trkpt lat="41.81192" lon="2.06352">
        <ele>673.6</ele>
        <time>2022-05-21 00:41:46</time>
      </trkpt>
      <trkpt lat="41.81192" lon="2.06358">
        <ele>673.6</ele>
        <time>2022-05-21 00:41:47</time>
      </trkpt>
      <trkpt lat="41.81193" lon="2.06364">
        <ele>673.8</ele>
        <time>2022-05-21 00:41:48</time>
      </trkpt>
      <trkpt lat="41.81194" lon="2.0637">
        <ele>674</ele>
        <time>2022-05-21 00:41:49</time>
      </trkpt>
      <trkpt lat="41.81194" lon="2.06376">
        <ele>674</ele>
        <time>2022-05-21 00:41:50</time>
      </trkpt>
      <trkpt lat="41.81195" lon="2.06382">
        <ele>674.2</ele>
        <time>2022-05-21 00:41:51</time>
      </trkpt>
      <trkpt lat="41.81195" lon="2.06388">
        <ele>674.4</ele>
        <time>2022-05-21 00:41:52</time>
      </trkpt>
      <trkpt lat="41.81196" lon="2.06395">
        <ele>674.4</ele>
        <time>2022-05-21 00:41:53</time>
      </trkpt>
      <trkpt lat="41.81196" lon="2.06401">
        <ele>674.6</ele>
        <time>2022-05-21 00:41:54</time>
      </trkpt>
      <trkpt lat="41.81197" lon="2.06407">
        <ele>674.8</ele>
        <time>2022-05-21 00:41:55</time>
      </trkpt>
      <trkpt lat="41.81197" lon="2.06413">
        <ele>674.8</ele>
        <time>2022-05-21 00:41:56</time>
      </trkpt>
      <trkpt lat="41.81198" lon="2.06419">
        <ele>675</ele>
        <time>2022-05-21 00:41:57</time>
      </trkpt>
      <trkpt lat="41.81199" lon="2.06426">
        <ele>675</ele>
        <time>2022-05-21 00:41:58</time>
      </trkpt>
      <trkpt lat="41.81199" lon="2.06432">
        <ele>675.2</ele>
        <time>2022-05-21 00:41:59</time>
      </trkpt>
      <trkpt lat="41.812" lon="2.06437">
        <ele>675.4</ele>
        <time>2022-05-21 00:42:00</time>
      </trkpt>
      <trkpt lat="41.812" lon="2.06441">
        <ele>675.4</ele>
        <time>2022-05-21 00:42:01</time>
      </trkpt>
      <trkpt lat="41.81201" lon="2.0645">
        <ele>675.6</ele>
        <time>2022-05-21 00:42:02</time>
      </trkpt>
      <trkpt lat="41.81201" lon="2.06457">
        <ele>675.6</ele>
        <time>2022-05-21 00:42:03</time>
      </trkpt>
      <trkpt lat="41.81202" lon="2.06463">
        <ele>675.8</ele>
        <time>2022-05-21 00:42:04</time>
      </trkpt>
      <trkpt lat="41.81203" lon="2.06469">
        <ele>675.8</ele>
        <time>2022-05-21 00:42:05</time>
      </trkpt>
      <trkpt lat="41.81203" lon="2.06475">
        <ele>676</ele>
        <time>2022-05-21 00:42:06</time>
      </trkpt>
      <trkpt lat="41.81204" lon="2.06481">
        <ele>676</ele>
        <time>2022-05-21 00:42:07</time>
      </trkpt>
      <trkpt lat="41.81205" lon="2.06487">
        <ele>676.2</ele>
        <time>2022-05-21 00:42:08</time>
      </trkpt>
      <trkpt lat="41.81205" lon="2.06493">
        <ele>676.4</ele>
        <time>2022-05-21 00:42:09</time>
      </trkpt>
      <trkpt lat="41.81206" lon="2.06499">
        <ele>676.6</ele>
        <time>2022-05-21 00:42:10</time>
      </trkpt>
      <trkpt lat="41.81207" lon="2.06504">
        <ele>676.6</ele>
        <time>2022-05-21 00:42:11</time>
      </trkpt>
      <trkpt lat="41.81208" lon="2.0651">
        <ele>676.8</ele>
        <time>2022-05-21 00:42:12</time>
      </trkpt>
      <trkpt lat="41.81208" lon="2.06516">
        <ele>676.8</ele>
        <time>2022-05-21 00:42:13</time>
      </trkpt>
      <trkpt lat="41.81209" lon="2.06522">
        <ele>677</ele>
        <time>2022-05-21 00:42:14</time>
      </trkpt>
      <trkpt lat="41.81209" lon="2.06527">
        <ele>677.2</ele>
        <time>2022-05-21 00:42:15</time>
      </trkpt>
      <trkpt lat="41.8121" lon="2.06533">
        <ele>677.2</ele>
        <time>2022-05-21 00:42:16</time>
      </trkpt>
      <trkpt lat="41.8121" lon="2.06539">
        <ele>677.4</ele>
        <time>2022-05-21 00:42:17</time>
      </trkpt>
      <trkpt lat="41.8121" lon="2.06545">
        <ele>677.6</ele>
        <time>2022-05-21 00:42:18</time>
      </trkpt>
      <trkpt lat="41.81211" lon="2.06551">
        <ele>677.6</ele>
        <time>2022-05-21 00:42:19</time>
      </trkpt>
      <trkpt lat="41.81211" lon="2.06557">
        <ele>677.8</ele>
        <time>2022-05-21 00:42:20</time>
      </trkpt>
      <trkpt lat="41.81212" lon="2.06563">
        <ele>678</ele>
        <time>2022-05-21 00:42:21</time>
      </trkpt>
      <trkpt lat="41.81213" lon="2.06569">
        <ele>678</ele>
        <time>2022-05-21 00:42:22</time>
      </trkpt>
      <trkpt lat="41.81213" lon="2.06575">
        <ele>678.2</ele>
        <time>2022-05-21 00:42:23</time>
      </trkpt>
      <trkpt lat="41.81214" lon="2.06581">
        <ele>678.4</ele>
        <time>2022-05-21 00:42:24</time>
      </trkpt>
      <trkpt lat="41.81215" lon="2.06587">
        <ele>678.4</ele>
        <time>2022-05-21 00:42:25</time>
      </trkpt>
      <trkpt lat="41.81215" lon="2.06593">
        <ele>678.6</ele>
        <time>2022-05-21 00:42:26</time>
      </trkpt>
      <trkpt lat="41.81215" lon="2.06599">
        <ele>678.8</ele>
        <time>2022-05-21 00:42:27</time>
      </trkpt>
      <trkpt lat="41.81216" lon="2.06605">
        <ele>679</ele>
        <time>2022-05-21 00:42:28</time>
      </trkpt>
      <trkpt lat="41.81216" lon="2.06611">
        <ele>679</ele>
        <time>2022-05-21 00:42:29</time>
      </trkpt>
      <trkpt lat="41.81217" lon="2.06617">
        <ele>679.2</ele>
        <time>2022-05-21 00:42:30</time>
      </trkpt>
      <trkpt lat="41.81218" lon="2.06623">
        <ele>679.4</ele>
        <time>2022-05-21 00:42:31</time>
      </trkpt>
      <trkpt lat="41.81219" lon="2.06628">
        <ele>679.6</ele>
        <time>2022-05-21 00:42:32</time>
      </trkpt>
      <trkpt lat="41.81219" lon="2.06634">
        <ele>679.8</ele>
        <time>2022-05-21 00:42:33</time>
      </trkpt>
      <trkpt lat="41.8122" lon="2.0664">
        <ele>680</ele>
        <time>2022-05-21 00:42:34</time>
      </trkpt>
      <trkpt lat="41.8122" lon="2.06645">
        <ele>680.2</ele>
        <time>2022-05-21 00:42:35</time>
      </trkpt>
      <trkpt lat="41.81221" lon="2.06651">
        <ele>680.4</ele>
        <time>2022-05-21 00:42:36</time>
      </trkpt>
      <trkpt lat="41.81221" lon="2.06656">
        <ele>680.4</ele>
        <time>2022-05-21 00:42:37</time>
      </trkpt>
      <trkpt lat="41.81221" lon="2.06661">
        <ele>680.8</ele>
        <time>2022-05-21 00:42:38</time>
      </trkpt>
      <trkpt lat="41.81222" lon="2.06665">
        <ele>681</ele>
        <time>2022-05-21 00:42:39</time>
      </trkpt>
      <trkpt lat="41.81222" lon="2.0667">
        <ele>681.2</ele>
        <time>2022-05-21 00:42:40</time>
      </trkpt>
      <trkpt lat="41.81223" lon="2.06675">
        <ele>681.2</ele>
        <time>2022-05-21 00:42:41</time>
      </trkpt>
      <trkpt lat="41.81223" lon="2.06679">
        <ele>681.4</ele>
        <time>2022-05-21 00:42:42</time>
      </trkpt>
      <trkpt lat="41.81223" lon="2.06684">
        <ele>681.6</ele>
        <time>2022-05-21 00:42:43</time>
      </trkpt>
      <trkpt lat="41.81224" lon="2.06688">
        <ele>681.8</ele>
        <time>2022-05-21 00:42:44</time>
      </trkpt>
      <trkpt lat="41.81224" lon="2.06692">
        <ele>682</ele>
        <time>2022-05-21 00:42:45</time>
      </trkpt>
      <trkpt lat="41.81224" lon="2.06694">
        <ele>682.2</ele>
        <time>2022-05-21 00:42:46</time>
      </trkpt>
      <trkpt lat="41.81225" lon="2.06698">
        <ele>682.4</ele>
        <time>2022-05-21 00:42:47</time>
      </trkpt>
      <trkpt lat="41.81226" lon="2.06706">
        <ele>682.6</ele>
        <time>2022-05-21 00:42:48</time>
      </trkpt>
      <trkpt lat="41.81226" lon="2.06711">
        <ele>682.8</ele>
        <time>2022-05-21 00:42:49</time>
      </trkpt>
      <trkpt lat="41.81226" lon="2.06715">
        <ele>683</ele>
        <time>2022-05-21 00:42:50</time>
      </trkpt>
      <trkpt lat="41.81227" lon="2.0672">
        <ele>683.2</ele>
        <time>2022-05-21 00:42:51</time>
      </trkpt>
      <trkpt lat="41.81227" lon="2.06724">
        <ele>683.4</ele>
        <time>2022-05-21 00:42:52</time>
      </trkpt>
      <trkpt lat="41.81228" lon="2.06729">
        <ele>683.6</ele>
        <time>2022-05-21 00:42:53</time>
      </trkpt>
      <trkpt lat="41.81228" lon="2.06733">
        <ele>683.8</ele>
        <time>2022-05-21 00:42:54</time>
      </trkpt>
      <trkpt lat="41.81229" lon="2.06737">
        <ele>684</ele>
        <time>2022-05-21 00:42:55</time>
      </trkpt>
      <trkpt lat="41.81229" lon="2.06742">
        <ele>684.2</ele>
        <time>2022-05-21 00:42:56</time>
      </trkpt>
      <trkpt lat="41.81229" lon="2.06746">
        <ele>684.2</ele>
        <time>2022-05-21 00:42:57</time>
      </trkpt>
      <trkpt lat="41.81229" lon="2.06751">
        <ele>684.4</ele>
        <time>2022-05-21 00:42:58</time>
      </trkpt>
      <trkpt lat="41.81229" lon="2.06755">
        <ele>684.6</ele>
        <time>2022-05-21 00:42:59</time>
      </trkpt>
      <trkpt lat="41.8123" lon="2.0676">
        <ele>684.8</ele>
        <time>2022-05-21 00:43:00</time>
      </trkpt>
      <trkpt lat="41.8123" lon="2.06765">
        <ele>684.8</ele>
        <time>2022-05-21 00:43:01</time>
      </trkpt>
      <trkpt lat="41.8123" lon="2.06769">
        <ele>685</ele>
        <time>2022-05-21 00:43:02</time>
      </trkpt>
      <trkpt lat="41.81231" lon="2.06773">
        <ele>685.2</ele>
        <time>2022-05-21 00:43:03</time>
      </trkpt>
      <trkpt lat="41.81231" lon="2.06778">
        <ele>685.4</ele>
        <time>2022-05-21 00:43:04</time>
      </trkpt>
      <trkpt lat="41.81231" lon="2.06782">
        <ele>685.4</ele>
        <time>2022-05-21 00:43:05</time>
      </trkpt>
      <trkpt lat="41.81232" lon="2.06787">
        <ele>685.6</ele>
        <time>2022-05-21 00:43:06</time>
      </trkpt>
      <trkpt lat="41.81232" lon="2.06792">
        <ele>685.8</ele>
        <time>2022-05-21 00:43:07</time>
      </trkpt>
      <trkpt lat="41.81233" lon="2.06797">
        <ele>686</ele>
        <time>2022-05-21 00:43:08</time>
      </trkpt>
      <trkpt lat="41.81233" lon="2.06801">
        <ele>686.2</ele>
        <time>2022-05-21 00:43:09</time>
      </trkpt>
      <trkpt lat="41.81234" lon="2.06806">
        <ele>686.4</ele>
        <time>2022-05-21 00:43:10</time>
      </trkpt>
      <trkpt lat="41.81234" lon="2.0681">
        <ele>686.6</ele>
        <time>2022-05-21 00:43:11</time>
      </trkpt>
      <trkpt lat="41.81234" lon="2.06815">
        <ele>686.8</ele>
        <time>2022-05-21 00:43:12</time>
      </trkpt>
      <trkpt lat="41.81235" lon="2.06819">
        <ele>686.8</ele>
        <time>2022-05-21 00:43:13</time>
      </trkpt>
      <trkpt lat="41.81235" lon="2.06824">
        <ele>687</ele>
        <time>2022-05-21 00:43:14</time>
      </trkpt>
      <trkpt lat="41.81236" lon="2.06829">
        <ele>687.2</ele>
        <time>2022-05-21 00:43:15</time>
      </trkpt>
      <trkpt lat="41.81236" lon="2.06833">
        <ele>687.4</ele>
        <time>2022-05-21 00:43:16</time>
      </trkpt>
      <trkpt lat="41.81237" lon="2.06838">
        <ele>687.6</ele>
        <time>2022-05-21 00:43:17</time>
      </trkpt>
      <trkpt lat="41.81237" lon="2.06843">
        <ele>687.8</ele>
        <time>2022-05-21 00:43:18</time>
      </trkpt>
      <trkpt lat="41.81237" lon="2.06847">
        <ele>687.8</ele>
        <time>2022-05-21 00:43:19</time>
      </trkpt>
      <trkpt lat="41.81238" lon="2.06852">
        <ele>688</ele>
        <time>2022-05-21 00:43:20</time>
      </trkpt>
      <trkpt lat="41.81238" lon="2.06857">
        <ele>688.2</ele>
        <time>2022-05-21 00:43:21</time>
      </trkpt>
      <trkpt lat="41.81239" lon="2.06861">
        <ele>688.4</ele>
        <time>2022-05-21 00:43:22</time>
      </trkpt>
      <trkpt lat="41.81239" lon="2.06866">
        <ele>688.6</ele>
        <time>2022-05-21 00:43:23</time>
      </trkpt>
      <trkpt lat="41.8124" lon="2.06871">
        <ele>688.6</ele>
        <time>2022-05-21 00:43:24</time>
      </trkpt>
      <trkpt lat="41.8124" lon="2.06876">
        <ele>688.8</ele>
        <time>2022-05-21 00:43:25</time>
      </trkpt>
      <trkpt lat="41.8124" lon="2.06881">
        <ele>688.8</ele>
        <time>2022-05-21 00:43:26</time>
      </trkpt>
      <trkpt lat="41.81241" lon="2.06886">
        <ele>689</ele>
        <time>2022-05-21 00:43:27</time>
      </trkpt>
      <trkpt lat="41.81241" lon="2.06891">
        <ele>689</ele>
        <time>2022-05-21 00:43:28</time>
      </trkpt>
      <trkpt lat="41.81241" lon="2.06896">
        <ele>689.2</ele>
        <time>2022-05-21 00:43:29</time>
      </trkpt>
      <trkpt lat="41.81241" lon="2.06901">
        <ele>689.2</ele>
        <time>2022-05-21 00:43:30</time>
      </trkpt>
      <trkpt lat="41.81242" lon="2.06905">
        <ele>689.4</ele>
        <time>2022-05-21 00:43:31</time>
      </trkpt>
      <trkpt lat="41.81242" lon="2.0691">
        <ele>689.6</ele>
        <time>2022-05-21 00:43:32</time>
      </trkpt>
      <trkpt lat="41.81243" lon="2.06915">
        <ele>689.6</ele>
        <time>2022-05-21 00:43:33</time>
      </trkpt>
      <trkpt lat="41.81244" lon="2.0692">
        <ele>689.8</ele>
        <time>2022-05-21 00:43:34</time>
      </trkpt>
      <trkpt lat="41.81244" lon="2.06925">
        <ele>690</ele>
        <time>2022-05-21 00:43:35</time>
      </trkpt>
      <trkpt lat="41.81245" lon="2.06929">
        <ele>690</ele>
        <time>2022-05-21 00:43:36</time>
      </trkpt>
      <trkpt lat="41.81245" lon="2.06934">
        <ele>690.2</ele>
        <time>2022-05-21 00:43:37</time>
      </trkpt>
      <trkpt lat="41.81246" lon="2.06939">
        <ele>690.4</ele>
        <time>2022-05-21 00:43:38</time>
      </trkpt>
      <trkpt lat="41.81246" lon="2.06944">
        <ele>690.4</ele>
        <time>2022-05-21 00:43:39</time>
      </trkpt>
      <trkpt lat="41.81247" lon="2.06949">
        <ele>690.6</ele>
        <time>2022-05-21 00:43:40</time>
      </trkpt>
      <trkpt lat="41.81247" lon="2.06954">
        <ele>690.8</ele>
        <time>2022-05-21 00:43:41</time>
      </trkpt>
      <trkpt lat="41.81248" lon="2.06958">
        <ele>691</ele>
        <time>2022-05-21 00:43:42</time>
      </trkpt>
      <trkpt lat="41.81248" lon="2.06963">
        <ele>691</ele>
        <time>2022-05-21 00:43:43</time>
      </trkpt>
      <trkpt lat="41.81248" lon="2.06968">
        <ele>691.2</ele>
        <time>2022-05-21 00:43:44</time>
      </trkpt>
      <trkpt lat="41.81249" lon="2.06972">
        <ele>691.4</ele>
        <time>2022-05-21 00:43:45</time>
      </trkpt>
      <trkpt lat="41.81249" lon="2.06977">
        <ele>691.4</ele>
        <time>2022-05-21 00:43:46</time>
      </trkpt>
      <trkpt lat="41.8125" lon="2.06981">
        <ele>691.6</ele>
        <time>2022-05-21 00:43:47</time>
      </trkpt>
      <trkpt lat="41.8125" lon="2.06986">
        <ele>691.8</ele>
        <time>2022-05-21 00:43:48</time>
      </trkpt>
      <trkpt lat="41.81251" lon="2.0699">
        <ele>691.8</ele>
        <time>2022-05-21 00:43:49</time>
      </trkpt>
      <trkpt lat="41.81251" lon="2.06995">
        <ele>692</ele>
        <time>2022-05-21 00:43:50</time>
      </trkpt>
      <trkpt lat="41.81252" lon="2.06999">
        <ele>692</ele>
        <time>2022-05-21 00:43:51</time>
      </trkpt>
      <trkpt lat="41.81252" lon="2.07003">
        <ele>692.2</ele>
        <time>2022-05-21 00:43:52</time>
      </trkpt>
      <trkpt lat="41.81252" lon="2.07008">
        <ele>692.4</ele>
        <time>2022-05-21 00:43:53</time>
      </trkpt>
      <trkpt lat="41.81253" lon="2.07012">
        <ele>692.6</ele>
        <time>2022-05-21 00:43:54</time>
      </trkpt>
      <trkpt lat="41.81254" lon="2.07016">
        <ele>692.6</ele>
        <time>2022-05-21 00:43:55</time>
      </trkpt>
      <trkpt lat="41.81254" lon="2.07021">
        <ele>692.8</ele>
        <time>2022-05-21 00:43:56</time>
      </trkpt>
      <trkpt lat="41.81255" lon="2.07025">
        <ele>693</ele>
        <time>2022-05-21 00:43:57</time>
      </trkpt>
      <trkpt lat="41.81255" lon="2.0703">
        <ele>693.2</ele>
        <time>2022-05-21 00:43:58</time>
      </trkpt>
      <trkpt lat="41.81255" lon="2.07034">
        <ele>693.2</ele>
        <time>2022-05-21 00:43:59</time>
      </trkpt>
      <trkpt lat="41.81255" lon="2.07038">
        <ele>693.4</ele>
        <time>2022-05-21 00:44:00</time>
      </trkpt>
      <trkpt lat="41.81255" lon="2.07042">
        <ele>693.6</ele>
        <time>2022-05-21 00:44:01</time>
      </trkpt>
      <trkpt lat="41.81256" lon="2.07048">
        <ele>693.8</ele>
        <time>2022-05-21 00:44:02</time>
      </trkpt>
      <trkpt lat="41.81256" lon="2.07052">
        <ele>693.8</ele>
        <time>2022-05-21 00:44:03</time>
      </trkpt>
      <trkpt lat="41.81257" lon="2.07056">
        <ele>694</ele>
        <time>2022-05-21 00:44:04</time>
      </trkpt>
      <trkpt lat="41.81257" lon="2.07061">
        <ele>694.2</ele>
        <time>2022-05-21 00:44:05</time>
      </trkpt>
      <trkpt lat="41.81258" lon="2.07065">
        <ele>694.4</ele>
        <time>2022-05-21 00:44:06</time>
      </trkpt>
      <trkpt lat="41.81258" lon="2.0707">
        <ele>694.4</ele>
        <time>2022-05-21 00:44:07</time>
      </trkpt>
      <trkpt lat="41.81258" lon="2.07074">
        <ele>694.6</ele>
        <time>2022-05-21 00:44:08</time>
      </trkpt>
      <trkpt lat="41.81259" lon="2.07079">
        <ele>694.8</ele>
        <time>2022-05-21 00:44:09</time>
      </trkpt>
      <trkpt lat="41.81259" lon="2.07083">
        <ele>695</ele>
        <time>2022-05-21 00:44:10</time>
      </trkpt>
      <trkpt lat="41.8126" lon="2.07088">
        <ele>695</ele>
        <time>2022-05-21 00:44:11</time>
      </trkpt>
      <trkpt lat="41.8126" lon="2.07092">
        <ele>695.2</ele>
        <time>2022-05-21 00:44:12</time>
      </trkpt>
      <trkpt lat="41.8126" lon="2.07097">
        <ele>695.4</ele>
        <time>2022-05-21 00:44:13</time>
      </trkpt>
      <trkpt lat="41.81261" lon="2.07102">
        <ele>695.4</ele>
        <time>2022-05-21 00:44:14</time>
      </trkpt>
      <trkpt lat="41.81261" lon="2.07106">
        <ele>695.6</ele>
        <time>2022-05-21 00:44:15</time>
      </trkpt>
      <trkpt lat="41.81262" lon="2.07111">
        <ele>695.6</ele>
        <time>2022-05-21 00:44:16</time>
      </trkpt>
      <trkpt lat="41.81262" lon="2.07115">
        <ele>695.8</ele>
        <time>2022-05-21 00:44:17</time>
      </trkpt>
      <trkpt lat="41.81263" lon="2.0712">
        <ele>696</ele>
        <time>2022-05-21 00:44:18</time>
      </trkpt>
      <trkpt lat="41.81263" lon="2.07125">
        <ele>696</ele>
        <time>2022-05-21 00:44:19</time>
      </trkpt>
      <trkpt lat="41.81263" lon="2.07129">
        <ele>696.2</ele>
        <time>2022-05-21 00:44:20</time>
      </trkpt>
      <trkpt lat="41.81264" lon="2.07134">
        <ele>696.4</ele>
        <time>2022-05-21 00:44:21</time>
      </trkpt>
      <trkpt lat="41.81264" lon="2.07139">
        <ele>696.4</ele>
        <time>2022-05-21 00:44:22</time>
      </trkpt>
      <trkpt lat="41.81265" lon="2.07144">
        <ele>696.6</ele>
        <time>2022-05-21 00:44:23</time>
      </trkpt>
      <trkpt lat="41.81265" lon="2.07149">
        <ele>696.8</ele>
        <time>2022-05-21 00:44:24</time>
      </trkpt>
      <trkpt lat="41.81266" lon="2.07153">
        <ele>697</ele>
        <time>2022-05-21 00:44:25</time>
      </trkpt>
      <trkpt lat="41.81266" lon="2.07158">
        <ele>697.2</ele>
        <time>2022-05-21 00:44:26</time>
      </trkpt>
      <trkpt lat="41.81266" lon="2.07163">
        <ele>697.4</ele>
        <time>2022-05-21 00:44:27</time>
      </trkpt>
      <trkpt lat="41.81267" lon="2.07167">
        <ele>697.6</ele>
        <time>2022-05-21 00:44:28</time>
      </trkpt>
      <trkpt lat="41.81267" lon="2.07172">
        <ele>697.6</ele>
        <time>2022-05-21 00:44:29</time>
      </trkpt>
      <trkpt lat="41.81268" lon="2.07177">
        <ele>697.8</ele>
        <time>2022-05-21 00:44:30</time>
      </trkpt>
      <trkpt lat="41.81268" lon="2.07181">
        <ele>698</ele>
        <time>2022-05-21 00:44:31</time>
      </trkpt>
      <trkpt lat="41.81269" lon="2.07186">
        <ele>698.2</ele>
        <time>2022-05-21 00:44:32</time>
      </trkpt>
      <trkpt lat="41.81269" lon="2.07191">
        <ele>698.4</ele>
        <time>2022-05-21 00:44:33</time>
      </trkpt>
      <trkpt lat="41.8127" lon="2.07195">
        <ele>698.6</ele>
        <time>2022-05-21 00:44:34</time>
      </trkpt>
      <trkpt lat="41.81271" lon="2.07199">
        <ele>698.6</ele>
        <time>2022-05-21 00:44:35</time>
      </trkpt>
      <trkpt lat="41.81271" lon="2.07204">
        <ele>698.8</ele>
        <time>2022-05-21 00:44:36</time>
      </trkpt>
      <trkpt lat="41.81272" lon="2.07208">
        <ele>699</ele>
        <time>2022-05-21 00:44:37</time>
      </trkpt>
      <trkpt lat="41.81273" lon="2.07213">
        <ele>699.2</ele>
        <time>2022-05-21 00:44:38</time>
      </trkpt>
      <trkpt lat="41.81273" lon="2.07217">
        <ele>699.4</ele>
        <time>2022-05-21 00:44:39</time>
      </trkpt>
      <trkpt lat="41.81274" lon="2.07222">
        <ele>699.6</ele>
        <time>2022-05-21 00:44:40</time>
      </trkpt>
      <trkpt lat="41.81274" lon="2.07226">
        <ele>699.8</ele>
        <time>2022-05-21 00:44:41</time>
      </trkpt>
      <trkpt lat="41.81274" lon="2.07231">
        <ele>699.8</ele>
        <time>2022-05-21 00:44:42</time>
      </trkpt>
      <trkpt lat="41.81274" lon="2.07235">
        <ele>700</ele>
        <time>2022-05-21 00:44:43</time>
      </trkpt>
      <trkpt lat="41.81275" lon="2.0724">
        <ele>700.2</ele>
        <time>2022-05-21 00:44:44</time>
      </trkpt>
      <trkpt lat="41.81275" lon="2.07245">
        <ele>700.2</ele>
        <time>2022-05-21 00:44:45</time>
      </trkpt>
      <trkpt lat="41.81276" lon="2.07249">
        <ele>700.4</ele>
        <time>2022-05-21 00:44:46</time>
      </trkpt>
      <trkpt lat="41.81277" lon="2.07253">
        <ele>700.6</ele>
        <time>2022-05-21 00:44:47</time>
      </trkpt>
      <trkpt lat="41.81277" lon="2.07258">
        <ele>700.8</ele>
        <time>2022-05-21 00:44:48</time>
      </trkpt>
      <trkpt lat="41.81277" lon="2.07263">
        <ele>700.8</ele>
        <time>2022-05-21 00:44:49</time>
      </trkpt>
      <trkpt lat="41.81278" lon="2.07267">
        <ele>701</ele>
        <time>2022-05-21 00:44:50</time>
      </trkpt>
      <trkpt lat="41.81279" lon="2.07271">
        <ele>701.2</ele>
        <time>2022-05-21 00:44:51</time>
      </trkpt>
      <trkpt lat="41.81279" lon="2.07276">
        <ele>701.4</ele>
        <time>2022-05-21 00:44:52</time>
      </trkpt>
      <trkpt lat="41.8128" lon="2.0728">
        <ele>701.4</ele>
        <time>2022-05-21 00:44:53</time>
      </trkpt>
      <trkpt lat="41.8128" lon="2.07285">
        <ele>701.6</ele>
        <time>2022-05-21 00:44:54</time>
      </trkpt>
      <trkpt lat="41.8128" lon="2.07289">
        <ele>701.8</ele>
        <time>2022-05-21 00:44:55</time>
      </trkpt>
      <trkpt lat="41.81281" lon="2.07294">
        <ele>701.8</ele>
        <time>2022-05-21 00:44:56</time>
      </trkpt>
      <trkpt lat="41.81281" lon="2.07299">
        <ele>702</ele>
        <time>2022-05-21 00:44:57</time>
      </trkpt>
      <trkpt lat="41.81281" lon="2.07303">
        <ele>702.2</ele>
        <time>2022-05-21 00:44:58</time>
      </trkpt>
      <trkpt lat="41.81281" lon="2.07307">
        <ele>702.4</ele>
        <time>2022-05-21 00:44:59</time>
      </trkpt>
      <trkpt lat="41.81282" lon="2.07312">
        <ele>702.4</ele>
        <time>2022-05-21 00:45:00</time>
      </trkpt>
      <trkpt lat="41.81282" lon="2.07316">
        <ele>702.6</ele>
        <time>2022-05-21 00:45:01</time>
      </trkpt>
      <trkpt lat="41.81283" lon="2.07321">
        <ele>702.8</ele>
        <time>2022-05-21 00:45:02</time>
      </trkpt>
      <trkpt lat="41.81283" lon="2.07326">
        <ele>702.8</ele>
        <time>2022-05-21 00:45:03</time>
      </trkpt>
      <trkpt lat="41.81284" lon="2.0733">
        <ele>703</ele>
        <time>2022-05-21 00:45:04</time>
      </trkpt>
      <trkpt lat="41.81284" lon="2.07334">
        <ele>703.2</ele>
        <time>2022-05-21 00:45:05</time>
      </trkpt>
      <trkpt lat="41.81285" lon="2.0734">
        <ele>703.2</ele>
        <time>2022-05-21 00:45:06</time>
      </trkpt>
      <trkpt lat="41.81285" lon="2.07344">
        <ele>703.4</ele>
        <time>2022-05-21 00:45:07</time>
      </trkpt>
      <trkpt lat="41.81285" lon="2.07349">
        <ele>703.6</ele>
        <time>2022-05-21 00:45:08</time>
      </trkpt>
      <trkpt lat="41.81285" lon="2.07354">
        <ele>703.8</ele>
        <time>2022-05-21 00:45:09</time>
      </trkpt>
      <trkpt lat="41.81286" lon="2.07358">
        <ele>703.8</ele>
        <time>2022-05-21 00:45:10</time>
      </trkpt>
      <trkpt lat="41.81286" lon="2.07363">
        <ele>704</ele>
        <time>2022-05-21 00:45:11</time>
      </trkpt>
      <trkpt lat="41.81287" lon="2.07368">
        <ele>704.2</ele>
        <time>2022-05-21 00:45:12</time>
      </trkpt>
      <trkpt lat="41.81287" lon="2.07372">
        <ele>704.2</ele>
        <time>2022-05-21 00:45:13</time>
      </trkpt>
      <trkpt lat="41.81287" lon="2.07377">
        <ele>704.4</ele>
        <time>2022-05-21 00:45:14</time>
      </trkpt>
      <trkpt lat="41.81288" lon="2.07382">
        <ele>704.6</ele>
        <time>2022-05-21 00:45:15</time>
      </trkpt>
      <trkpt lat="41.81288" lon="2.07386">
        <ele>704.8</ele>
        <time>2022-05-21 00:45:16</time>
      </trkpt>
      <trkpt lat="41.81289" lon="2.0739">
        <ele>705</ele>
        <time>2022-05-21 00:45:17</time>
      </trkpt>
      <trkpt lat="41.8129" lon="2.07395">
        <ele>705.2</ele>
        <time>2022-05-21 00:45:18</time>
      </trkpt>
      <trkpt lat="41.8129" lon="2.074">
        <ele>705.2</ele>
        <time>2022-05-21 00:45:19</time>
      </trkpt>
      <trkpt lat="41.81291" lon="2.07404">
        <ele>705.4</ele>
        <time>2022-05-21 00:45:20</time>
      </trkpt>
      <trkpt lat="41.81291" lon="2.07409">
        <ele>705.6</ele>
        <time>2022-05-21 00:45:21</time>
      </trkpt>
      <trkpt lat="41.81292" lon="2.07414">
        <ele>705.8</ele>
        <time>2022-05-21 00:45:22</time>
      </trkpt>
      <trkpt lat="41.81292" lon="2.07419">
        <ele>706</ele>
        <time>2022-05-21 00:45:23</time>
      </trkpt>
      <trkpt lat="41.81293" lon="2.07423">
        <ele>706.2</ele>
        <time>2022-05-21 00:45:24</time>
      </trkpt>
      <trkpt lat="41.81293" lon="2.07428">
        <ele>706.2</ele>
        <time>2022-05-21 00:45:25</time>
      </trkpt>
      <trkpt lat="41.81293" lon="2.07432">
        <ele>706.4</ele>
        <time>2022-05-21 00:45:26</time>
      </trkpt>
      <trkpt lat="41.81294" lon="2.07437">
        <ele>706.6</ele>
        <time>2022-05-21 00:45:27</time>
      </trkpt>
      <trkpt lat="41.81294" lon="2.07442">
        <ele>706.8</ele>
        <time>2022-05-21 00:45:28</time>
      </trkpt>
      <trkpt lat="41.81295" lon="2.07447">
        <ele>707</ele>
        <time>2022-05-21 00:45:29</time>
      </trkpt>
      <trkpt lat="41.81295" lon="2.07451">
        <ele>707</ele>
        <time>2022-05-21 00:45:30</time>
      </trkpt>
      <trkpt lat="41.81296" lon="2.07456">
        <ele>707.2</ele>
        <time>2022-05-21 00:45:31</time>
      </trkpt>
      <trkpt lat="41.81297" lon="2.07461">
        <ele>707.4</ele>
        <time>2022-05-21 00:45:32</time>
      </trkpt>
      <trkpt lat="41.81297" lon="2.07465">
        <ele>707.6</ele>
        <time>2022-05-21 00:45:33</time>
      </trkpt>
      <trkpt lat="41.81298" lon="2.0747">
        <ele>707.6</ele>
        <time>2022-05-21 00:45:34</time>
      </trkpt>
      <trkpt lat="41.81298" lon="2.07474">
        <ele>707.8</ele>
        <time>2022-05-21 00:45:35</time>
      </trkpt>
      <trkpt lat="41.81298" lon="2.07479">
        <ele>708</ele>
        <time>2022-05-21 00:45:36</time>
      </trkpt>
      <trkpt lat="41.81299" lon="2.07482">
        <ele>708.2</ele>
        <time>2022-05-21 00:45:37</time>
      </trkpt>
      <trkpt lat="41.813" lon="2.07489">
        <ele>708.2</ele>
        <time>2022-05-21 00:45:38</time>
      </trkpt>
      <trkpt lat="41.813" lon="2.07494">
        <ele>708.4</ele>
        <time>2022-05-21 00:45:39</time>
      </trkpt>
      <trkpt lat="41.81301" lon="2.07498">
        <ele>708.6</ele>
        <time>2022-05-21 00:45:40</time>
      </trkpt>
      <trkpt lat="41.81301" lon="2.07503">
        <ele>708.8</ele>
        <time>2022-05-21 00:45:41</time>
      </trkpt>
      <trkpt lat="41.81302" lon="2.07508">
        <ele>708.8</ele>
        <time>2022-05-21 00:45:42</time>
      </trkpt>
      <trkpt lat="41.81302" lon="2.07513">
        <ele>709</ele>
        <time>2022-05-21 00:45:43</time>
      </trkpt>
      <trkpt lat="41.81302" lon="2.07517">
        <ele>709.2</ele>
        <time>2022-05-21 00:45:44</time>
      </trkpt>
      <trkpt lat="41.81303" lon="2.07522">
        <ele>709.4</ele>
        <time>2022-05-21 00:45:45</time>
      </trkpt>
      <trkpt lat="41.81303" lon="2.07526">
        <ele>709.4</ele>
        <time>2022-05-21 00:45:46</time>
      </trkpt>
      <trkpt lat="41.81303" lon="2.07531">
        <ele>709.6</ele>
        <time>2022-05-21 00:45:47</time>
      </trkpt>
      <trkpt lat="41.81303" lon="2.07536">
        <ele>709.8</ele>
        <time>2022-05-21 00:45:48</time>
      </trkpt>
      <trkpt lat="41.81304" lon="2.0754">
        <ele>710</ele>
        <time>2022-05-21 00:45:49</time>
      </trkpt>
      <trkpt lat="41.81305" lon="2.07545">
        <ele>710</ele>
        <time>2022-05-21 00:45:50</time>
      </trkpt>
      <trkpt lat="41.81305" lon="2.0755">
        <ele>710.2</ele>
        <time>2022-05-21 00:45:51</time>
      </trkpt>
      <trkpt lat="41.81306" lon="2.07554">
        <ele>710.4</ele>
        <time>2022-05-21 00:45:52</time>
      </trkpt>
      <trkpt lat="41.81306" lon="2.07559">
        <ele>710.6</ele>
        <time>2022-05-21 00:45:53</time>
      </trkpt>
      <trkpt lat="41.81306" lon="2.07565">
        <ele>710.8</ele>
        <time>2022-05-21 00:45:54</time>
      </trkpt>
      <trkpt lat="41.81306" lon="2.0757">
        <ele>710.8</ele>
        <time>2022-05-21 00:45:55</time>
      </trkpt>
      <trkpt lat="41.81306" lon="2.07575">
        <ele>711</ele>
        <time>2022-05-21 00:45:56</time>
      </trkpt>
      <trkpt lat="41.81307" lon="2.0758">
        <ele>711.2</ele>
        <time>2022-05-21 00:45:57</time>
      </trkpt>
      <trkpt lat="41.81308" lon="2.07584">
        <ele>711.2</ele>
        <time>2022-05-21 00:45:58</time>
      </trkpt>
      <trkpt lat="41.81308" lon="2.07589">
        <ele>711.4</ele>
        <time>2022-05-21 00:45:59</time>
      </trkpt>
      <trkpt lat="41.81308" lon="2.07594">
        <ele>711.6</ele>
        <time>2022-05-21 00:46:00</time>
      </trkpt>
      <trkpt lat="41.81309" lon="2.07598">
        <ele>711.6</ele>
        <time>2022-05-21 00:46:01</time>
      </trkpt>
      <trkpt lat="41.81309" lon="2.07603">
        <ele>711.8</ele>
        <time>2022-05-21 00:46:02</time>
      </trkpt>
      <trkpt lat="41.81309" lon="2.07608">
        <ele>712</ele>
        <time>2022-05-21 00:46:03</time>
      </trkpt>
      <trkpt lat="41.8131" lon="2.07613">
        <ele>712.2</ele>
        <time>2022-05-21 00:46:04</time>
      </trkpt>
      <trkpt lat="41.8131" lon="2.07618">
        <ele>712.4</ele>
        <time>2022-05-21 00:46:05</time>
      </trkpt>
      <trkpt lat="41.81311" lon="2.07622">
        <ele>712.4</ele>
        <time>2022-05-21 00:46:06</time>
      </trkpt>
      <trkpt lat="41.81311" lon="2.07627">
        <ele>712.6</ele>
        <time>2022-05-21 00:46:07</time>
      </trkpt>
      <trkpt lat="41.81312" lon="2.07632">
        <ele>712.8</ele>
        <time>2022-05-21 00:46:08</time>
      </trkpt>
      <trkpt lat="41.81312" lon="2.07637">
        <ele>713</ele>
        <time>2022-05-21 00:46:09</time>
      </trkpt>
      <trkpt lat="41.81313" lon="2.07641">
        <ele>713.2</ele>
        <time>2022-05-21 00:46:10</time>
      </trkpt>
      <trkpt lat="41.81313" lon="2.07645">
        <ele>713.4</ele>
        <time>2022-05-21 00:46:11</time>
      </trkpt>
      <trkpt lat="41.81314" lon="2.07651">
        <ele>713.6</ele>
        <time>2022-05-21 00:46:12</time>
      </trkpt>
      <trkpt lat="41.81314" lon="2.07656">
        <ele>713.8</ele>
        <time>2022-05-21 00:46:13</time>
      </trkpt>
      <trkpt lat="41.81314" lon="2.07661">
        <ele>714</ele>
        <time>2022-05-21 00:46:14</time>
      </trkpt>
      <trkpt lat="41.81315" lon="2.07666">
        <ele>714.2</ele>
        <time>2022-05-21 00:46:15</time>
      </trkpt>
      <trkpt lat="41.81316" lon="2.07671">
        <ele>714.4</ele>
        <time>2022-05-21 00:46:16</time>
      </trkpt>
      <trkpt lat="41.81316" lon="2.07676">
        <ele>714.6</ele>
        <time>2022-05-21 00:46:17</time>
      </trkpt>
      <trkpt lat="41.81316" lon="2.07681">
        <ele>714.8</ele>
        <time>2022-05-21 00:46:18</time>
      </trkpt>
      <trkpt lat="41.81316" lon="2.07686">
        <ele>715</ele>
        <time>2022-05-21 00:46:19</time>
      </trkpt>
      <trkpt lat="41.81316" lon="2.0769">
        <ele>715</ele>
        <time>2022-05-21 00:46:20</time>
      </trkpt>
      <trkpt lat="41.81317" lon="2.07695">
        <ele>715.2</ele>
        <time>2022-05-21 00:46:21</time>
      </trkpt>
      <trkpt lat="41.81317" lon="2.077">
        <ele>715.4</ele>
        <time>2022-05-21 00:46:22</time>
      </trkpt>
      <trkpt lat="41.81317" lon="2.07705">
        <ele>715.6</ele>
        <time>2022-05-21 00:46:23</time>
      </trkpt>
      <trkpt lat="41.81318" lon="2.0771">
        <ele>715.8</ele>
        <time>2022-05-21 00:46:24</time>
      </trkpt>
      <trkpt lat="41.81318" lon="2.07715">
        <ele>716</ele>
        <time>2022-05-21 00:46:25</time>
      </trkpt>
      <trkpt lat="41.81318" lon="2.07719">
        <ele>716.2</ele>
        <time>2022-05-21 00:46:26</time>
      </trkpt>
      <trkpt lat="41.81319" lon="2.07724">
        <ele>716.2</ele>
        <time>2022-05-21 00:46:27</time>
      </trkpt>
      <trkpt lat="41.81319" lon="2.07729">
        <ele>716.4</ele>
        <time>2022-05-21 00:46:28</time>
      </trkpt>
      <trkpt lat="41.8132" lon="2.07734">
        <ele>716.4</ele>
        <time>2022-05-21 00:46:29</time>
      </trkpt>
      <trkpt lat="41.8132" lon="2.0774">
        <ele>716.6</ele>
        <time>2022-05-21 00:46:30</time>
      </trkpt>
      <trkpt lat="41.8132" lon="2.07746">
        <ele>716.6</ele>
        <time>2022-05-21 00:46:31</time>
      </trkpt>
      <trkpt lat="41.8132" lon="2.07752">
        <ele>716.6</ele>
        <time>2022-05-21 00:46:32</time>
      </trkpt>
      <trkpt lat="41.8132" lon="2.07758">
        <ele>716.4</ele>
        <time>2022-05-21 00:46:33</time>
      </trkpt>
      <trkpt lat="41.8132" lon="2.07764">
        <ele>716.4</ele>
        <time>2022-05-21 00:46:34</time>
      </trkpt>
      <trkpt lat="41.8132" lon="2.07771">
        <ele>716.2</ele>
        <time>2022-05-21 00:46:35</time>
      </trkpt>
      <trkpt lat="41.81319" lon="2.0778">
        <ele>716</ele>
        <time>2022-05-21 00:46:36</time>
      </trkpt>
      <trkpt lat="41.81319" lon="2.07787">
        <ele>715.8</ele>
        <time>2022-05-21 00:46:37</time>
      </trkpt>
      <trkpt lat="41.81319" lon="2.07796">
        <ele>715.6</ele>
        <time>2022-05-21 00:46:38</time>
      </trkpt>
      <trkpt lat="41.81318" lon="2.07805">
        <ele>715.2</ele>
        <time>2022-05-21 00:46:39</time>
      </trkpt>
      <trkpt lat="41.81318" lon="2.07814">
        <ele>714.8</ele>
        <time>2022-05-21 00:46:40</time>
      </trkpt>
      <trkpt lat="41.81317" lon="2.07823">
        <ele>714.6</ele>
        <time>2022-05-21 00:46:41</time>
      </trkpt>
      <trkpt lat="41.81316" lon="2.07833">
        <ele>714.2</ele>
        <time>2022-05-21 00:46:42</time>
      </trkpt>
      <trkpt lat="41.81315" lon="2.07843">
        <ele>713.8</ele>
        <time>2022-05-21 00:46:43</time>
      </trkpt>
      <trkpt lat="41.81315" lon="2.07853">
        <ele>713.4</ele>
        <time>2022-05-21 00:46:44</time>
      </trkpt>
      <trkpt lat="41.81314" lon="2.07863">
        <ele>713</ele>
        <time>2022-05-21 00:46:45</time>
      </trkpt>
      <trkpt lat="41.81313" lon="2.07874">
        <ele>712.8</ele>
        <time>2022-05-21 00:46:46</time>
      </trkpt>
      <trkpt lat="41.81313" lon="2.07885">
        <ele>712.4</ele>
        <time>2022-05-21 00:46:47</time>
      </trkpt>
      <trkpt lat="41.81311" lon="2.07896">
        <ele>711.8</ele>
        <time>2022-05-21 00:46:48</time>
      </trkpt>
      <trkpt lat="41.8131" lon="2.07907">
        <ele>711.4</ele>
        <time>2022-05-21 00:46:49</time>
      </trkpt>
      <trkpt lat="41.8131" lon="2.0792">
        <ele>710.8</ele>
        <time>2022-05-21 00:46:50</time>
      </trkpt>
      <trkpt lat="41.81309" lon="2.07931">
        <ele>710.4</ele>
        <time>2022-05-21 00:46:51</time>
      </trkpt>
      <trkpt lat="41.81308" lon="2.07945">
        <ele>709.8</ele>
        <time>2022-05-21 00:46:52</time>
      </trkpt>
      <trkpt lat="41.81307" lon="2.07957">
        <ele>709.2</ele>
        <time>2022-05-21 00:46:53</time>
      </trkpt>
      <trkpt lat="41.81306" lon="2.07969">
        <ele>708.8</ele>
        <time>2022-05-21 00:46:54</time>
      </trkpt>
      <trkpt lat="41.81305" lon="2.07982">
        <ele>708.4</ele>
        <time>2022-05-21 00:46:55</time>
      </trkpt>
      <trkpt lat="41.81304" lon="2.07996">
        <ele>707.8</ele>
        <time>2022-05-21 00:46:56</time>
      </trkpt>
      <trkpt lat="41.81303" lon="2.0801">
        <ele>707.4</ele>
        <time>2022-05-21 00:46:57</time>
      </trkpt>
      <trkpt lat="41.81301" lon="2.08024">
        <ele>707</ele>
        <time>2022-05-21 00:46:58</time>
      </trkpt>
      <trkpt lat="41.813" lon="2.08038">
        <ele>706.8</ele>
        <time>2022-05-21 00:46:59</time>
      </trkpt>
      <trkpt lat="41.81299" lon="2.0805">
        <ele>706.6</ele>
        <time>2022-05-21 00:47:00</time>
      </trkpt>
      <trkpt lat="41.81298" lon="2.08061">
        <ele>706.4</ele>
        <time>2022-05-21 00:47:01</time>
      </trkpt>
      <trkpt lat="41.81298" lon="2.08076">
        <ele>706.4</ele>
        <time>2022-05-21 00:47:02</time>
      </trkpt>
      <trkpt lat="41.81297" lon="2.08088">
        <ele>706.6</ele>
        <time>2022-05-21 00:47:03</time>
      </trkpt>
      <trkpt lat="41.81295" lon="2.08099">
        <ele>706.8</ele>
        <time>2022-05-21 00:47:04</time>
      </trkpt>
      <trkpt lat="41.81295" lon="2.0811">
        <ele>707</ele>
        <time>2022-05-21 00:47:05</time>
      </trkpt>
      <trkpt lat="41.81294" lon="2.0812">
        <ele>707.2</ele>
        <time>2022-05-21 00:47:06</time>
      </trkpt>
      <trkpt lat="41.81293" lon="2.08129">
        <ele>707.4</ele>
        <time>2022-05-21 00:47:07</time>
      </trkpt>
      <trkpt lat="41.81292" lon="2.08138">
        <ele>707.8</ele>
        <time>2022-05-21 00:47:08</time>
      </trkpt>
      <trkpt lat="41.8129" lon="2.08148">
        <ele>708</ele>
        <time>2022-05-21 00:47:09</time>
      </trkpt>
      <trkpt lat="41.81288" lon="2.08157">
        <ele>708.2</ele>
        <time>2022-05-21 00:47:10</time>
      </trkpt>
      <trkpt lat="41.81286" lon="2.08167">
        <ele>708.4</ele>
        <time>2022-05-21 00:47:11</time>
      </trkpt>
      <trkpt lat="41.81284" lon="2.08176">
        <ele>708.4</ele>
        <time>2022-05-21 00:47:12</time>
      </trkpt>
      <trkpt lat="41.81282" lon="2.08186">
        <ele>708.4</ele>
        <time>2022-05-21 00:47:13</time>
      </trkpt>
      <trkpt lat="41.8128" lon="2.08195">
        <ele>708.4</ele>
        <time>2022-05-21 00:47:14</time>
      </trkpt>
      <trkpt lat="41.81277" lon="2.08206">
        <ele>708.4</ele>
        <time>2022-05-21 00:47:15</time>
      </trkpt>
      <trkpt lat="41.81275" lon="2.08215">
        <ele>708.2</ele>
        <time>2022-05-21 00:47:16</time>
      </trkpt>
      <trkpt lat="41.81271" lon="2.08226">
        <ele>708.2</ele>
        <time>2022-05-21 00:47:17</time>
      </trkpt>
      <trkpt lat="41.81268" lon="2.08236">
        <ele>708</ele>
        <time>2022-05-21 00:47:18</time>
      </trkpt>
      <trkpt lat="41.81264" lon="2.08246">
        <ele>707.8</ele>
        <time>2022-05-21 00:47:19</time>
      </trkpt>
      <trkpt lat="41.81261" lon="2.08256">
        <ele>707.6</ele>
        <time>2022-05-21 00:47:20</time>
      </trkpt>
      <trkpt lat="41.81258" lon="2.08266">
        <ele>707.4</ele>
        <time>2022-05-21 00:47:21</time>
      </trkpt>
      <trkpt lat="41.81254" lon="2.08276">
        <ele>707</ele>
        <time>2022-05-21 00:47:22</time>
      </trkpt>
      <trkpt lat="41.8125" lon="2.08288">
        <ele>706.8</ele>
        <time>2022-05-21 00:47:23</time>
      </trkpt>
      <trkpt lat="41.81247" lon="2.08298">
        <ele>706.6</ele>
        <time>2022-05-21 00:47:24</time>
      </trkpt>
      <trkpt lat="41.81243" lon="2.0831">
        <ele>706.2</ele>
        <time>2022-05-21 00:47:25</time>
      </trkpt>
      <trkpt lat="41.81239" lon="2.0832">
        <ele>706</ele>
        <time>2022-05-21 00:47:26</time>
      </trkpt>
      <trkpt lat="41.81236" lon="2.08331">
        <ele>705.6</ele>
        <time>2022-05-21 00:47:27</time>
      </trkpt>
      <trkpt lat="41.81232" lon="2.08342">
        <ele>705.4</ele>
        <time>2022-05-21 00:47:28</time>
      </trkpt>
      <trkpt lat="41.81227" lon="2.08355">
        <ele>705.2</ele>
        <time>2022-05-21 00:47:29</time>
      </trkpt>
      <trkpt lat="41.81224" lon="2.08366">
        <ele>705</ele>
        <time>2022-05-21 00:47:30</time>
      </trkpt>
      <trkpt lat="41.8122" lon="2.08377">
        <ele>704.8</ele>
        <time>2022-05-21 00:47:31</time>
      </trkpt>
      <trkpt lat="41.81217" lon="2.08388">
        <ele>704.6</ele>
        <time>2022-05-21 00:47:32</time>
      </trkpt>
      <trkpt lat="41.81214" lon="2.08398">
        <ele>704.4</ele>
        <time>2022-05-21 00:47:33</time>
      </trkpt>
      <trkpt lat="41.81211" lon="2.08409">
        <ele>704.2</ele>
        <time>2022-05-21 00:47:34</time>
      </trkpt>
      <trkpt lat="41.81208" lon="2.08419">
        <ele>704</ele>
        <time>2022-05-21 00:47:35</time>
      </trkpt>
      <trkpt lat="41.81206" lon="2.08431">
        <ele>703.6</ele>
        <time>2022-05-21 00:47:36</time>
      </trkpt>
      <trkpt lat="41.81204" lon="2.08443">
        <ele>703.4</ele>
        <time>2022-05-21 00:47:37</time>
      </trkpt>
      <trkpt lat="41.81202" lon="2.08455">
        <ele>703.2</ele>
        <time>2022-05-21 00:47:38</time>
      </trkpt>
      <trkpt lat="41.81201" lon="2.08467">
        <ele>702.8</ele>
        <time>2022-05-21 00:47:39</time>
      </trkpt>
      <trkpt lat="41.81199" lon="2.0848">
        <ele>702.6</ele>
        <time>2022-05-21 00:47:40</time>
      </trkpt>
      <trkpt lat="41.81198" lon="2.08492">
        <ele>702.2</ele>
        <time>2022-05-21 00:47:41</time>
      </trkpt>
      <trkpt lat="41.81197" lon="2.08504">
        <ele>701.8</ele>
        <time>2022-05-21 00:47:42</time>
      </trkpt>
      <trkpt lat="41.81196" lon="2.08517">
        <ele>701.4</ele>
        <time>2022-05-21 00:47:43</time>
      </trkpt>
      <trkpt lat="41.81196" lon="2.08531">
        <ele>701.2</ele>
        <time>2022-05-21 00:47:44</time>
      </trkpt>
      <trkpt lat="41.81195" lon="2.08544">
        <ele>700.8</ele>
        <time>2022-05-21 00:47:45</time>
      </trkpt>
      <trkpt lat="41.81194" lon="2.08557">
        <ele>700.4</ele>
        <time>2022-05-21 00:47:46</time>
      </trkpt>
      <trkpt lat="41.81193" lon="2.0857">
        <ele>700</ele>
        <time>2022-05-21 00:47:47</time>
      </trkpt>
      <trkpt lat="41.81192" lon="2.08583">
        <ele>699.8</ele>
        <time>2022-05-21 00:47:48</time>
      </trkpt>
      <trkpt lat="41.81191" lon="2.08596">
        <ele>699.4</ele>
        <time>2022-05-21 00:47:49</time>
      </trkpt>
      <trkpt lat="41.8119" lon="2.08608">
        <ele>699</ele>
        <time>2022-05-21 00:47:50</time>
      </trkpt>
      <trkpt lat="41.81189" lon="2.08621">
        <ele>698.6</ele>
        <time>2022-05-21 00:47:51</time>
      </trkpt>
      <trkpt lat="41.81189" lon="2.08634">
        <ele>698.2</ele>
        <time>2022-05-21 00:47:52</time>
      </trkpt>
      <trkpt lat="41.81187" lon="2.08647">
        <ele>697.8</ele>
        <time>2022-05-21 00:47:53</time>
      </trkpt>
      <trkpt lat="41.81187" lon="2.0866">
        <ele>697.4</ele>
        <time>2022-05-21 00:47:54</time>
      </trkpt>
      <trkpt lat="41.81186" lon="2.08672">
        <ele>697.2</ele>
        <time>2022-05-21 00:47:55</time>
      </trkpt>
      <trkpt lat="41.81185" lon="2.08686">
        <ele>696.8</ele>
        <time>2022-05-21 00:47:56</time>
      </trkpt>
      <trkpt lat="41.81183" lon="2.087">
        <ele>696.4</ele>
        <time>2022-05-21 00:47:57</time>
      </trkpt>
      <trkpt lat="41.81182" lon="2.08714">
        <ele>696</ele>
        <time>2022-05-21 00:47:58</time>
      </trkpt>
      <trkpt lat="41.81181" lon="2.08727">
        <ele>695.6</ele>
        <time>2022-05-21 00:47:59</time>
      </trkpt>
      <trkpt lat="41.8118" lon="2.08741">
        <ele>695.2</ele>
        <time>2022-05-21 00:48:00</time>
      </trkpt>
      <trkpt lat="41.81179" lon="2.08753">
        <ele>694.8</ele>
        <time>2022-05-21 00:48:01</time>
      </trkpt>
      <trkpt lat="41.81178" lon="2.08766">
        <ele>694.4</ele>
        <time>2022-05-21 00:48:02</time>
      </trkpt>
      <trkpt lat="41.81177" lon="2.0878">
        <ele>694.2</ele>
        <time>2022-05-21 00:48:03</time>
      </trkpt>
      <trkpt lat="41.81176" lon="2.08793">
        <ele>694</ele>
        <time>2022-05-21 00:48:04</time>
      </trkpt>
      <trkpt lat="41.81176" lon="2.08804">
        <ele>693.8</ele>
        <time>2022-05-21 00:48:05</time>
      </trkpt>
      <trkpt lat="41.81174" lon="2.08817">
        <ele>693.6</ele>
        <time>2022-05-21 00:48:06</time>
      </trkpt>
      <trkpt lat="41.81172" lon="2.0883">
        <ele>693.4</ele>
        <time>2022-05-21 00:48:07</time>
      </trkpt>
      <trkpt lat="41.81171" lon="2.08843">
        <ele>693.2</ele>
        <time>2022-05-21 00:48:08</time>
      </trkpt>
      <trkpt lat="41.8117" lon="2.08855">
        <ele>693</ele>
        <time>2022-05-21 00:48:09</time>
      </trkpt>
      <trkpt lat="41.81169" lon="2.08867">
        <ele>693</ele>
        <time>2022-05-21 00:48:10</time>
      </trkpt>
      <trkpt lat="41.81168" lon="2.0888">
        <ele>693</ele>
        <time>2022-05-21 00:48:11</time>
      </trkpt>
      <trkpt lat="41.81167" lon="2.08891">
        <ele>693</ele>
        <time>2022-05-21 00:48:12</time>
      </trkpt>
      <trkpt lat="41.81165" lon="2.08901">
        <ele>693.2</ele>
        <time>2022-05-21 00:48:13</time>
      </trkpt>
      <trkpt lat="41.81163" lon="2.08912">
        <ele>693.4</ele>
        <time>2022-05-21 00:48:14</time>
      </trkpt>
      <trkpt lat="41.81161" lon="2.08921">
        <ele>693.6</ele>
        <time>2022-05-21 00:48:15</time>
      </trkpt>
      <trkpt lat="41.81159" lon="2.08931">
        <ele>693.8</ele>
        <time>2022-05-21 00:48:16</time>
      </trkpt>
      <trkpt lat="41.81157" lon="2.08939">
        <ele>694</ele>
        <time>2022-05-21 00:48:17</time>
      </trkpt>
      <trkpt lat="41.81155" lon="2.08948">
        <ele>694</ele>
        <time>2022-05-21 00:48:18</time>
      </trkpt>
      <trkpt lat="41.81153" lon="2.08955">
        <ele>694.2</ele>
        <time>2022-05-21 00:48:19</time>
      </trkpt>
      <trkpt lat="41.8115" lon="2.08964">
        <ele>694.4</ele>
        <time>2022-05-21 00:48:20</time>
      </trkpt>
      <trkpt lat="41.81149" lon="2.08972">
        <ele>694.4</ele>
        <time>2022-05-21 00:48:21</time>
      </trkpt>
      <trkpt lat="41.81146" lon="2.08981">
        <ele>694.6</ele>
        <time>2022-05-21 00:48:22</time>
      </trkpt>
      <trkpt lat="41.81144" lon="2.08989">
        <ele>694.6</ele>
        <time>2022-05-21 00:48:23</time>
      </trkpt>
      <trkpt lat="41.81142" lon="2.08998">
        <ele>694.6</ele>
        <time>2022-05-21 00:48:24</time>
      </trkpt>
      <trkpt lat="41.81141" lon="2.09006">
        <ele>694.8</ele>
        <time>2022-05-21 00:48:25</time>
      </trkpt>
      <trkpt lat="41.81139" lon="2.09016">
        <ele>694.8</ele>
        <time>2022-05-21 00:48:26</time>
      </trkpt>
      <trkpt lat="41.81137" lon="2.09025">
        <ele>694.8</ele>
        <time>2022-05-21 00:48:27</time>
      </trkpt>
      <trkpt lat="41.81136" lon="2.09034">
        <ele>694.8</ele>
        <time>2022-05-21 00:48:28</time>
      </trkpt>
      <trkpt lat="41.81134" lon="2.09043">
        <ele>694.8</ele>
        <time>2022-05-21 00:48:29</time>
      </trkpt>
      <trkpt lat="41.81132" lon="2.09052">
        <ele>694.8</ele>
        <time>2022-05-21 00:48:30</time>
      </trkpt>
      <trkpt lat="41.81131" lon="2.09061">
        <ele>694.8</ele>
        <time>2022-05-21 00:48:31</time>
      </trkpt>
      <trkpt lat="41.81129" lon="2.0907">
        <ele>694.8</ele>
        <time>2022-05-21 00:48:32</time>
      </trkpt>
      <trkpt lat="41.81128" lon="2.09078">
        <ele>694.8</ele>
        <time>2022-05-21 00:48:33</time>
      </trkpt>
      <trkpt lat="41.81125" lon="2.09088">
        <ele>694.6</ele>
        <time>2022-05-21 00:48:34</time>
      </trkpt>
      <trkpt lat="41.81123" lon="2.09097">
        <ele>694.6</ele>
        <time>2022-05-21 00:48:35</time>
      </trkpt>
      <trkpt lat="41.81121" lon="2.09107">
        <ele>694.6</ele>
        <time>2022-05-21 00:48:36</time>
      </trkpt>
      <trkpt lat="41.8112" lon="2.09116">
        <ele>694.6</ele>
        <time>2022-05-21 00:48:37</time>
      </trkpt>
      <trkpt lat="41.81117" lon="2.09126">
        <ele>694.6</ele>
        <time>2022-05-21 00:48:38</time>
      </trkpt>
      <trkpt lat="41.81116" lon="2.09135">
        <ele>694.4</ele>
        <time>2022-05-21 00:48:39</time>
      </trkpt>
      <trkpt lat="41.81114" lon="2.09144">
        <ele>694.4</ele>
        <time>2022-05-21 00:48:40</time>
      </trkpt>
      <trkpt lat="41.81112" lon="2.09153">
        <ele>694.2</ele>
        <time>2022-05-21 00:48:41</time>
      </trkpt>
      <trkpt lat="41.8111" lon="2.09163">
        <ele>694.2</ele>
        <time>2022-05-21 00:48:42</time>
      </trkpt>
      <trkpt lat="41.81108" lon="2.09171">
        <ele>694</ele>
        <time>2022-05-21 00:48:43</time>
      </trkpt>
      <trkpt lat="41.81107" lon="2.0918">
        <ele>694</ele>
        <time>2022-05-21 00:48:44</time>
      </trkpt>
      <trkpt lat="41.81105" lon="2.09189">
        <ele>694</ele>
        <time>2022-05-21 00:48:45</time>
      </trkpt>
      <trkpt lat="41.81103" lon="2.09198">
        <ele>693.8</ele>
        <time>2022-05-21 00:48:46</time>
      </trkpt>
      <trkpt lat="41.81102" lon="2.09206">
        <ele>693.8</ele>
        <time>2022-05-21 00:48:47</time>
      </trkpt>
      <trkpt lat="41.811" lon="2.09215">
        <ele>693.6</ele>
        <time>2022-05-21 00:48:48</time>
      </trkpt>
      <trkpt lat="41.81098" lon="2.09223">
        <ele>693.6</ele>
        <time>2022-05-21 00:48:49</time>
      </trkpt>
      <trkpt lat="41.81096" lon="2.09232">
        <ele>693.4</ele>
        <time>2022-05-21 00:48:50</time>
      </trkpt>
      <trkpt lat="41.81094" lon="2.0924">
        <ele>693.4</ele>
        <time>2022-05-21 00:48:51</time>
      </trkpt>
      <trkpt lat="41.81092" lon="2.09249">
        <ele>693.2</ele>
        <time>2022-05-21 00:48:52</time>
      </trkpt>
      <trkpt lat="41.81089" lon="2.09258">
        <ele>693.2</ele>
        <time>2022-05-21 00:48:53</time>
      </trkpt>
      <trkpt lat="41.81087" lon="2.09266">
        <ele>693</ele>
        <time>2022-05-21 00:48:54</time>
      </trkpt>
      <trkpt lat="41.81084" lon="2.09275">
        <ele>692.8</ele>
        <time>2022-05-21 00:48:55</time>
      </trkpt>
      <trkpt lat="41.81081" lon="2.09284">
        <ele>692.8</ele>
        <time>2022-05-21 00:48:56</time>
      </trkpt>
      <trkpt lat="41.81079" lon="2.09292">
        <ele>692.6</ele>
        <time>2022-05-21 00:48:57</time>
      </trkpt>
      <trkpt lat="41.81075" lon="2.09302">
        <ele>692.6</ele>
        <time>2022-05-21 00:48:58</time>
      </trkpt>
      <trkpt lat="41.81072" lon="2.09311">
        <ele>692.4</ele>
        <time>2022-05-21 00:48:59</time>
      </trkpt>
      <trkpt lat="41.8107" lon="2.0932">
        <ele>692.4</ele>
        <time>2022-05-21 00:49:00</time>
      </trkpt>
      <trkpt lat="41.81067" lon="2.09328">
        <ele>692.2</ele>
        <time>2022-05-21 00:49:01</time>
      </trkpt>
      <trkpt lat="41.81063" lon="2.09338">
        <ele>692.2</ele>
        <time>2022-05-21 00:49:02</time>
      </trkpt>
      <trkpt lat="41.81059" lon="2.09347">
        <ele>692</ele>
        <time>2022-05-21 00:49:03</time>
      </trkpt>
      <trkpt lat="41.81055" lon="2.09355">
        <ele>692</ele>
        <time>2022-05-21 00:49:04</time>
      </trkpt>
      <trkpt lat="41.81051" lon="2.09363">
        <ele>691.8</ele>
        <time>2022-05-21 00:49:05</time>
      </trkpt>
      <trkpt lat="41.81047" lon="2.09372">
        <ele>691.8</ele>
        <time>2022-05-21 00:49:06</time>
      </trkpt>
      <trkpt lat="41.81042" lon="2.09381">
        <ele>691.8</ele>
        <time>2022-05-21 00:49:07</time>
      </trkpt>
      <trkpt lat="41.81038" lon="2.0939">
        <ele>691.6</ele>
        <time>2022-05-21 00:49:08</time>
      </trkpt>
      <trkpt lat="41.81034" lon="2.09398">
        <ele>691.6</ele>
        <time>2022-05-21 00:49:09</time>
      </trkpt>
      <trkpt lat="41.81031" lon="2.09407">
        <ele>691.4</ele>
        <time>2022-05-21 00:49:10</time>
      </trkpt>
      <trkpt lat="41.81026" lon="2.09416">
        <ele>691.4</ele>
        <time>2022-05-21 00:49:11</time>
      </trkpt>
      <trkpt lat="41.81022" lon="2.09424">
        <ele>691.2</ele>
        <time>2022-05-21 00:49:12</time>
      </trkpt>
      <trkpt lat="41.81018" lon="2.09433">
        <ele>691</ele>
        <time>2022-05-21 00:49:13</time>
      </trkpt>
      <trkpt lat="41.81014" lon="2.09442">
        <ele>691</ele>
        <time>2022-05-21 00:49:14</time>
      </trkpt>
      <trkpt lat="41.8101" lon="2.09451">
        <ele>690.8</ele>
        <time>2022-05-21 00:49:15</time>
      </trkpt>
      <trkpt lat="41.81005" lon="2.0946">
        <ele>690.8</ele>
        <time>2022-05-21 00:49:16</time>
      </trkpt>
      <trkpt lat="41.81001" lon="2.09469">
        <ele>690.6</ele>
        <time>2022-05-21 00:49:17</time>
      </trkpt>
      <trkpt lat="41.80997" lon="2.09478">
        <ele>690.6</ele>
        <time>2022-05-21 00:49:18</time>
      </trkpt>
      <trkpt lat="41.80993" lon="2.09486">
        <ele>690.4</ele>
        <time>2022-05-21 00:49:19</time>
      </trkpt>
      <trkpt lat="41.80989" lon="2.09496">
        <ele>690.4</ele>
        <time>2022-05-21 00:49:20</time>
      </trkpt>
      <trkpt lat="41.80984" lon="2.09505">
        <ele>690.4</ele>
        <time>2022-05-21 00:49:21</time>
      </trkpt>
      <trkpt lat="41.8098" lon="2.09514">
        <ele>690.2</ele>
        <time>2022-05-21 00:49:22</time>
      </trkpt>
      <trkpt lat="41.80976" lon="2.09523">
        <ele>690.2</ele>
        <time>2022-05-21 00:49:23</time>
      </trkpt>
      <trkpt lat="41.80972" lon="2.09532">
        <ele>690.2</ele>
        <time>2022-05-21 00:49:24</time>
      </trkpt>
      <trkpt lat="41.80967" lon="2.09541">
        <ele>690</ele>
        <time>2022-05-21 00:49:25</time>
      </trkpt>
      <trkpt lat="41.80963" lon="2.0955">
        <ele>690</ele>
        <time>2022-05-21 00:49:26</time>
      </trkpt>
      <trkpt lat="41.80959" lon="2.09559">
        <ele>690</ele>
        <time>2022-05-21 00:49:27</time>
      </trkpt>
      <trkpt lat="41.80954" lon="2.09568">
        <ele>690</ele>
        <time>2022-05-21 00:49:28</time>
      </trkpt>
      <trkpt lat="41.8095" lon="2.09577">
        <ele>689.8</ele>
        <time>2022-05-21 00:49:29</time>
      </trkpt>
      <trkpt lat="41.80946" lon="2.09586">
        <ele>689.8</ele>
        <time>2022-05-21 00:49:30</time>
      </trkpt>
      <trkpt lat="41.80942" lon="2.09595">
        <ele>689.6</ele>
        <time>2022-05-21 00:49:31</time>
      </trkpt>
      <trkpt lat="41.80938" lon="2.09604">
        <ele>689.6</ele>
        <time>2022-05-21 00:49:32</time>
      </trkpt>
      <trkpt lat="41.80934" lon="2.09613">
        <ele>689.4</ele>
        <time>2022-05-21 00:49:33</time>
      </trkpt>
      <trkpt lat="41.80931" lon="2.09623">
        <ele>689.4</ele>
        <time>2022-05-21 00:49:34</time>
      </trkpt>
      <trkpt lat="41.80927" lon="2.09632">
        <ele>689.2</ele>
        <time>2022-05-21 00:49:35</time>
      </trkpt>
      <trkpt lat="41.80925" lon="2.09642">
        <ele>689</ele>
        <time>2022-05-21 00:49:36</time>
      </trkpt>
      <trkpt lat="41.80922" lon="2.09652">
        <ele>689</ele>
        <time>2022-05-21 00:49:37</time>
      </trkpt>
      <trkpt lat="41.8092" lon="2.09662">
        <ele>688.8</ele>
        <time>2022-05-21 00:49:38</time>
      </trkpt>
      <trkpt lat="41.80919" lon="2.09672">
        <ele>688.6</ele>
        <time>2022-05-21 00:49:39</time>
      </trkpt>
      <trkpt lat="41.80918" lon="2.09683">
        <ele>688.4</ele>
        <time>2022-05-21 00:49:40</time>
      </trkpt>
      <trkpt lat="41.80917" lon="2.09694">
        <ele>688.4</ele>
        <time>2022-05-21 00:49:41</time>
      </trkpt>
      <trkpt lat="41.80916" lon="2.09706">
        <ele>688.2</ele>
        <time>2022-05-21 00:49:42</time>
      </trkpt>
      <trkpt lat="41.80915" lon="2.09717">
        <ele>688</ele>
        <time>2022-05-21 00:49:43</time>
      </trkpt>
      <trkpt lat="41.80914" lon="2.09729">
        <ele>687.8</ele>
        <time>2022-05-21 00:49:44</time>
      </trkpt>
      <trkpt lat="41.80913" lon="2.0974">
        <ele>687.6</ele>
        <time>2022-05-21 00:49:45</time>
      </trkpt>
      <trkpt lat="41.80912" lon="2.09752">
        <ele>687.4</ele>
        <time>2022-05-21 00:49:46</time>
      </trkpt>
      <trkpt lat="41.80911" lon="2.09762">
        <ele>687.2</ele>
        <time>2022-05-21 00:49:47</time>
      </trkpt>
      <trkpt lat="41.8091" lon="2.09774">
        <ele>687</ele>
        <time>2022-05-21 00:49:48</time>
      </trkpt>
      <trkpt lat="41.8091" lon="2.09784">
        <ele>686.8</ele>
        <time>2022-05-21 00:49:49</time>
      </trkpt>
      <trkpt lat="41.80909" lon="2.09795">
        <ele>686.6</ele>
        <time>2022-05-21 00:49:50</time>
      </trkpt>
      <trkpt lat="41.80908" lon="2.09803">
        <ele>686.4</ele>
        <time>2022-05-21 00:49:51</time>
      </trkpt>
      <trkpt lat="41.80907" lon="2.09811">
        <ele>686.4</ele>
        <time>2022-05-21 00:49:52</time>
      </trkpt>
      <trkpt lat="41.80907" lon="2.09817">
        <ele>686.2</ele>
        <time>2022-05-21 00:49:53</time>
      </trkpt>
      <trkpt lat="41.80907" lon="2.09823">
        <ele>686.2</ele>
        <time>2022-05-21 00:49:54</time>
      </trkpt>
      <trkpt lat="41.80907" lon="2.09829">
        <ele>686</ele>
        <time>2022-05-21 00:49:55</time>
      </trkpt>
      <trkpt lat="41.80906" lon="2.09835">
        <ele>685.8</ele>
        <time>2022-05-21 00:49:56</time>
      </trkpt>
      <trkpt lat="41.80907" lon="2.09841">
        <ele>685.6</ele>
        <time>2022-05-21 00:49:57</time>
      </trkpt>
      <trkpt lat="41.80908" lon="2.09847">
        <ele>685.4</ele>
        <time>2022-05-21 00:49:58</time>
      </trkpt>
      <trkpt lat="41.80909" lon="2.09854">
        <ele>685.2</ele>
        <time>2022-05-21 00:49:59</time>
      </trkpt>
      <trkpt lat="41.80911" lon="2.09861">
        <ele>685</ele>
        <time>2022-05-21 00:50:00</time>
      </trkpt>
      <trkpt lat="41.80912" lon="2.09866">
        <ele>684.8</ele>
        <time>2022-05-21 00:50:01</time>
      </trkpt>
      <trkpt lat="41.80915" lon="2.09879">
        <ele>684.6</ele>
        <time>2022-05-21 00:50:02</time>
      </trkpt>
      <trkpt lat="41.80918" lon="2.09888">
        <ele>684.2</ele>
        <time>2022-05-21 00:50:03</time>
      </trkpt>
      <trkpt lat="41.80921" lon="2.09897">
        <ele>684</ele>
        <time>2022-05-21 00:50:04</time>
      </trkpt>
      <trkpt lat="41.80924" lon="2.09906">
        <ele>683.6</ele>
        <time>2022-05-21 00:50:05</time>
      </trkpt>
      <trkpt lat="41.80927" lon="2.09915">
        <ele>683.4</ele>
        <time>2022-05-21 00:50:06</time>
      </trkpt>
      <trkpt lat="41.8093" lon="2.09925">
        <ele>683</ele>
        <time>2022-05-21 00:50:07</time>
      </trkpt>
      <trkpt lat="41.80933" lon="2.09934">
        <ele>682.6</ele>
        <time>2022-05-21 00:50:08</time>
      </trkpt>
      <trkpt lat="41.80936" lon="2.09945">
        <ele>682.2</ele>
        <time>2022-05-21 00:50:09</time>
      </trkpt>
      <trkpt lat="41.80939" lon="2.09955">
        <ele>682</ele>
        <time>2022-05-21 00:50:10</time>
      </trkpt>
      <trkpt lat="41.80941" lon="2.09965">
        <ele>681.6</ele>
        <time>2022-05-21 00:50:11</time>
      </trkpt>
      <trkpt lat="41.80944" lon="2.09975">
        <ele>681.2</ele>
        <time>2022-05-21 00:50:12</time>
      </trkpt>
      <trkpt lat="41.80946" lon="2.09988">
        <ele>681</ele>
        <time>2022-05-21 00:50:13</time>
      </trkpt>
      <trkpt lat="41.80948" lon="2.09999">
        <ele>680.6</ele>
        <time>2022-05-21 00:50:14</time>
      </trkpt>
      <trkpt lat="41.80949" lon="2.10011">
        <ele>680.2</ele>
        <time>2022-05-21 00:50:15</time>
      </trkpt>
      <trkpt lat="41.80949" lon="2.10024">
        <ele>679.8</ele>
        <time>2022-05-21 00:50:16</time>
      </trkpt>
      <trkpt lat="41.80949" lon="2.10036">
        <ele>679.6</ele>
        <time>2022-05-21 00:50:17</time>
      </trkpt>
      <trkpt lat="41.80948" lon="2.10048">
        <ele>679.2</ele>
        <time>2022-05-21 00:50:18</time>
      </trkpt>
      <trkpt lat="41.80946" lon="2.1006">
        <ele>678.8</ele>
        <time>2022-05-21 00:50:19</time>
      </trkpt>
      <trkpt lat="41.80944" lon="2.10072">
        <ele>678.4</ele>
        <time>2022-05-21 00:50:20</time>
      </trkpt>
      <trkpt lat="41.80942" lon="2.10085">
        <ele>678</ele>
        <time>2022-05-21 00:50:21</time>
      </trkpt>
      <trkpt lat="41.8094" lon="2.10097">
        <ele>677.6</ele>
        <time>2022-05-21 00:50:22</time>
      </trkpt>
      <trkpt lat="41.80938" lon="2.10109">
        <ele>677.2</ele>
        <time>2022-05-21 00:50:23</time>
      </trkpt>
      <trkpt lat="41.80935" lon="2.10121">
        <ele>676.8</ele>
        <time>2022-05-21 00:50:24</time>
      </trkpt>
      <trkpt lat="41.80932" lon="2.10134">
        <ele>676.4</ele>
        <time>2022-05-21 00:50:25</time>
      </trkpt>
      <trkpt lat="41.80929" lon="2.10147">
        <ele>676</ele>
        <time>2022-05-21 00:50:26</time>
      </trkpt>
      <trkpt lat="41.80927" lon="2.10159">
        <ele>675.8</ele>
        <time>2022-05-21 00:50:27</time>
      </trkpt>
      <trkpt lat="41.80925" lon="2.10172">
        <ele>675.4</ele>
        <time>2022-05-21 00:50:28</time>
      </trkpt>
      <trkpt lat="41.80924" lon="2.10185">
        <ele>675</ele>
        <time>2022-05-21 00:50:29</time>
      </trkpt>
      <trkpt lat="41.80922" lon="2.10198">
        <ele>674.6</ele>
        <time>2022-05-21 00:50:30</time>
      </trkpt>
      <trkpt lat="41.8092" lon="2.10211">
        <ele>674.2</ele>
        <time>2022-05-21 00:50:31</time>
      </trkpt>
      <trkpt lat="41.80918" lon="2.10223">
        <ele>674</ele>
        <time>2022-05-21 00:50:32</time>
      </trkpt>
      <trkpt lat="41.80916" lon="2.10235">
        <ele>673.6</ele>
        <time>2022-05-21 00:50:33</time>
      </trkpt>
      <trkpt lat="41.80915" lon="2.10247">
        <ele>673.4</ele>
        <time>2022-05-21 00:50:34</time>
      </trkpt>
      <trkpt lat="41.80914" lon="2.1026">
        <ele>673.2</ele>
        <time>2022-05-21 00:50:35</time>
      </trkpt>
      <trkpt lat="41.80912" lon="2.10272">
        <ele>673</ele>
        <time>2022-05-21 00:50:36</time>
      </trkpt>
      <trkpt lat="41.8091" lon="2.10284">
        <ele>672.8</ele>
        <time>2022-05-21 00:50:37</time>
      </trkpt>
      <trkpt lat="41.80907" lon="2.10295">
        <ele>672.8</ele>
        <time>2022-05-21 00:50:38</time>
      </trkpt>
      <trkpt lat="41.80906" lon="2.10306">
        <ele>672.8</ele>
        <time>2022-05-21 00:50:39</time>
      </trkpt>
      <trkpt lat="41.80904" lon="2.10317">
        <ele>672.6</ele>
        <time>2022-05-21 00:50:40</time>
      </trkpt>
      <trkpt lat="41.80902" lon="2.10328">
        <ele>672.6</ele>
        <time>2022-05-21 00:50:41</time>
      </trkpt>
      <trkpt lat="41.80901" lon="2.10339">
        <ele>672.6</ele>
        <time>2022-05-21 00:50:42</time>
      </trkpt>
      <trkpt lat="41.80899" lon="2.10349">
        <ele>672.6</ele>
        <time>2022-05-21 00:50:43</time>
      </trkpt>
      <trkpt lat="41.80896" lon="2.10358">
        <ele>672.6</ele>
        <time>2022-05-21 00:50:44</time>
      </trkpt>
      <trkpt lat="41.80892" lon="2.10367">
        <ele>672.4</ele>
        <time>2022-05-21 00:50:45</time>
      </trkpt>
      <trkpt lat="41.80887" lon="2.10375">
        <ele>672.4</ele>
        <time>2022-05-21 00:50:46</time>
      </trkpt>
      <trkpt lat="41.80882" lon="2.10382">
        <ele>672.4</ele>
        <time>2022-05-21 00:50:47</time>
      </trkpt>
      <trkpt lat="41.80878" lon="2.10389">
        <ele>672.4</ele>
        <time>2022-05-21 00:50:48</time>
      </trkpt>
      <trkpt lat="41.80875" lon="2.10398">
        <ele>672.2</ele>
        <time>2022-05-21 00:50:49</time>
      </trkpt>
      <trkpt lat="41.80875" lon="2.10407">
        <ele>672</ele>
        <time>2022-05-21 00:50:50</time>
      </trkpt>
      <trkpt lat="41.80877" lon="2.10416">
        <ele>672</ele>
        <time>2022-05-21 00:50:51</time>
      </trkpt>
      <trkpt lat="41.80879" lon="2.10425">
        <ele>672</ele>
        <time>2022-05-21 00:50:52</time>
      </trkpt>
      <trkpt lat="41.8088" lon="2.10433">
        <ele>672</ele>
        <time>2022-05-21 00:50:53</time>
      </trkpt>
      <trkpt lat="41.8088" lon="2.10441">
        <ele>672</ele>
        <time>2022-05-21 00:50:54</time>
      </trkpt>
      <trkpt lat="41.8088" lon="2.1045">
        <ele>672</ele>
        <time>2022-05-21 00:50:55</time>
      </trkpt>
      <trkpt lat="41.80878" lon="2.10458">
        <ele>672</ele>
        <time>2022-05-21 00:50:56</time>
      </trkpt>
      <trkpt lat="41.80877" lon="2.10467">
        <ele>672</ele>
        <time>2022-05-21 00:50:57</time>
      </trkpt>
      <trkpt lat="41.80875" lon="2.10476">
        <ele>672</ele>
        <time>2022-05-21 00:50:58</time>
      </trkpt>
      <trkpt lat="41.80873" lon="2.10485">
        <ele>672</ele>
        <time>2022-05-21 00:50:59</time>
      </trkpt>
      <trkpt lat="41.80872" lon="2.10493">
        <ele>671.8</ele>
        <time>2022-05-21 00:51:00</time>
      </trkpt>
      <trkpt lat="41.80871" lon="2.10502">
        <ele>671.8</ele>
        <time>2022-05-21 00:51:01</time>
      </trkpt>
      <trkpt lat="41.8087" lon="2.10511">
        <ele>671.8</ele>
        <time>2022-05-21 00:51:02</time>
      </trkpt>
      <trkpt lat="41.8087" lon="2.1052">
        <ele>671.8</ele>
        <time>2022-05-21 00:51:03</time>
      </trkpt>
      <trkpt lat="41.8087" lon="2.10529">
        <ele>671.6</ele>
        <time>2022-05-21 00:51:04</time>
      </trkpt>
      <trkpt lat="41.8087" lon="2.10539">
        <ele>671.4</ele>
        <time>2022-05-21 00:51:05</time>
      </trkpt>
      <trkpt lat="41.80871" lon="2.10549">
        <ele>671.4</ele>
        <time>2022-05-21 00:51:06</time>
      </trkpt>
      <trkpt lat="41.80872" lon="2.10558">
        <ele>671.2</ele>
        <time>2022-05-21 00:51:07</time>
      </trkpt>
      <trkpt lat="41.80872" lon="2.10567">
        <ele>671.2</ele>
        <time>2022-05-21 00:51:08</time>
      </trkpt>
      <trkpt lat="41.80873" lon="2.10576">
        <ele>671</ele>
        <time>2022-05-21 00:51:09</time>
      </trkpt>
      <trkpt lat="41.80875" lon="2.10586">
        <ele>671</ele>
        <time>2022-05-21 00:51:10</time>
      </trkpt>
      <trkpt lat="41.80876" lon="2.10594">
        <ele>670.8</ele>
        <time>2022-05-21 00:51:11</time>
      </trkpt>
      <trkpt lat="41.80878" lon="2.10603">
        <ele>670.8</ele>
        <time>2022-05-21 00:51:12</time>
      </trkpt>
      <trkpt lat="41.8088" lon="2.10611">
        <ele>670.6</ele>
        <time>2022-05-21 00:51:13</time>
      </trkpt>
      <trkpt lat="41.80882" lon="2.1062">
        <ele>670.6</ele>
        <time>2022-05-21 00:51:14</time>
      </trkpt>
      <trkpt lat="41.80884" lon="2.10629">
        <ele>670.4</ele>
        <time>2022-05-21 00:51:15</time>
      </trkpt>
      <trkpt lat="41.80886" lon="2.10638">
        <ele>670.2</ele>
        <time>2022-05-21 00:51:16</time>
      </trkpt>
      <trkpt lat="41.80889" lon="2.10647">
        <ele>670.2</ele>
        <time>2022-05-21 00:51:17</time>
      </trkpt>
      <trkpt lat="41.80891" lon="2.10656">
        <ele>670</ele>
        <time>2022-05-21 00:51:18</time>
      </trkpt>
      <trkpt lat="41.80893" lon="2.10665">
        <ele>670</ele>
        <time>2022-05-21 00:51:19</time>
      </trkpt>
      <trkpt lat="41.80895" lon="2.10675">
        <ele>669.8</ele>
        <time>2022-05-21 00:51:20</time>
      </trkpt>
      <trkpt lat="41.80898" lon="2.10684">
        <ele>669.8</ele>
        <time>2022-05-21 00:51:21</time>
      </trkpt>
      <trkpt lat="41.80902" lon="2.10692">
        <ele>669.6</ele>
        <time>2022-05-21 00:51:22</time>
      </trkpt>
      <trkpt lat="41.80907" lon="2.107">
        <ele>669.4</ele>
        <time>2022-05-21 00:51:23</time>
      </trkpt>
      <trkpt lat="41.80912" lon="2.10708">
        <ele>669.2</ele>
        <time>2022-05-21 00:51:24</time>
      </trkpt>
      <trkpt lat="41.80918" lon="2.10715">
        <ele>669.2</ele>
        <time>2022-05-21 00:51:25</time>
      </trkpt>
      <trkpt lat="41.80925" lon="2.10721">
        <ele>669</ele>
        <time>2022-05-21 00:51:26</time>
      </trkpt>
      <trkpt lat="41.80931" lon="2.10726">
        <ele>668.8</ele>
        <time>2022-05-21 00:51:27</time>
      </trkpt>
      <trkpt lat="41.80938" lon="2.1073">
        <ele>668.6</ele>
        <time>2022-05-21 00:51:28</time>
      </trkpt>
      <trkpt lat="41.80946" lon="2.10734">
        <ele>668.4</ele>
        <time>2022-05-21 00:51:29</time>
      </trkpt>
      <trkpt lat="41.80954" lon="2.10737">
        <ele>668.2</ele>
        <time>2022-05-21 00:51:30</time>
      </trkpt>
      <trkpt lat="41.80962" lon="2.10741">
        <ele>668</ele>
        <time>2022-05-21 00:51:31</time>
      </trkpt>
      <trkpt lat="41.8097" lon="2.10744">
        <ele>667.8</ele>
        <time>2022-05-21 00:51:32</time>
      </trkpt>
      <trkpt lat="41.80978" lon="2.10748">
        <ele>667.6</ele>
        <time>2022-05-21 00:51:33</time>
      </trkpt>
      <trkpt lat="41.80985" lon="2.10752">
        <ele>667.4</ele>
        <time>2022-05-21 00:51:34</time>
      </trkpt>
      <trkpt lat="41.80993" lon="2.10757">
        <ele>667.2</ele>
        <time>2022-05-21 00:51:35</time>
      </trkpt>
      <trkpt lat="41.80999" lon="2.10764">
        <ele>666.8</ele>
        <time>2022-05-21 00:51:36</time>
      </trkpt>
      <trkpt lat="41.81005" lon="2.10772">
        <ele>666.6</ele>
        <time>2022-05-21 00:51:37</time>
      </trkpt>
      <trkpt lat="41.81009" lon="2.10782">
        <ele>666.4</ele>
        <time>2022-05-21 00:51:38</time>
      </trkpt>
      <trkpt lat="41.81012" lon="2.10792">
        <ele>666.2</ele>
        <time>2022-05-21 00:51:39</time>
      </trkpt>
      <trkpt lat="41.81014" lon="2.10804">
        <ele>666</ele>
        <time>2022-05-21 00:51:40</time>
      </trkpt>
      <trkpt lat="41.81016" lon="2.10815">
        <ele>665.8</ele>
        <time>2022-05-21 00:51:41</time>
      </trkpt>
      <trkpt lat="41.81017" lon="2.10827">
        <ele>665.6</ele>
        <time>2022-05-21 00:51:42</time>
      </trkpt>
      <trkpt lat="41.81018" lon="2.10838">
        <ele>665.4</ele>
        <time>2022-05-21 00:51:43</time>
      </trkpt>
      <trkpt lat="41.8102" lon="2.1085">
        <ele>665.2</ele>
        <time>2022-05-21 00:51:44</time>
      </trkpt>
      <trkpt lat="41.8102" lon="2.10861">
        <ele>665.2</ele>
        <time>2022-05-21 00:51:45</time>
      </trkpt>
      <trkpt lat="41.8102" lon="2.10873">
        <ele>665</ele>
        <time>2022-05-21 00:51:46</time>
      </trkpt>
      <trkpt lat="41.81021" lon="2.10884">
        <ele>665</ele>
        <time>2022-05-21 00:51:47</time>
      </trkpt>
      <trkpt lat="41.81022" lon="2.10896">
        <ele>665</ele>
        <time>2022-05-21 00:51:48</time>
      </trkpt>
      <trkpt lat="41.81023" lon="2.10907">
        <ele>665</ele>
        <time>2022-05-21 00:51:49</time>
      </trkpt>
      <trkpt lat="41.81024" lon="2.10917">
        <ele>665</ele>
        <time>2022-05-21 00:51:50</time>
      </trkpt>
      <trkpt lat="41.81025" lon="2.10927">
        <ele>665.2</ele>
        <time>2022-05-21 00:51:51</time>
      </trkpt>
      <trkpt lat="41.81026" lon="2.10937">
        <ele>665.4</ele>
        <time>2022-05-21 00:51:52</time>
      </trkpt>
      <trkpt lat="41.81026" lon="2.10947">
        <ele>665.6</ele>
        <time>2022-05-21 00:51:53</time>
      </trkpt>
      <trkpt lat="41.81027" lon="2.10956">
        <ele>666</ele>
        <time>2022-05-21 00:51:54</time>
      </trkpt>
      <trkpt lat="41.81029" lon="2.10964">
        <ele>666.4</ele>
        <time>2022-05-21 00:51:55</time>
      </trkpt>
      <trkpt lat="41.8103" lon="2.10972">
        <ele>666.6</ele>
        <time>2022-05-21 00:51:56</time>
      </trkpt>
      <trkpt lat="41.81031" lon="2.1098">
        <ele>667</ele>
        <time>2022-05-21 00:51:57</time>
      </trkpt>
      <trkpt lat="41.81032" lon="2.10988">
        <ele>667.4</ele>
        <time>2022-05-21 00:51:58</time>
      </trkpt>
      <trkpt lat="41.81034" lon="2.10995">
        <ele>667.8</ele>
        <time>2022-05-21 00:51:59</time>
      </trkpt>
      <trkpt lat="41.81035" lon="2.11002">
        <ele>668</ele>
        <time>2022-05-21 00:52:00</time>
      </trkpt>
      <trkpt lat="41.81038" lon="2.11009">
        <ele>668.4</ele>
        <time>2022-05-21 00:52:01</time>
      </trkpt>
      <trkpt lat="41.81039" lon="2.11015">
        <ele>668.6</ele>
        <time>2022-05-21 00:52:02</time>
      </trkpt>
      <trkpt lat="41.81042" lon="2.11021">
        <ele>669</ele>
        <time>2022-05-21 00:52:03</time>
      </trkpt>
      <trkpt lat="41.81044" lon="2.11027">
        <ele>669</ele>
        <time>2022-05-21 00:52:04</time>
      </trkpt>
      <trkpt lat="41.81046" lon="2.11033">
        <ele>669.2</ele>
        <time>2022-05-21 00:52:05</time>
      </trkpt>
      <trkpt lat="41.81049" lon="2.11038">
        <ele>669.6</ele>
        <time>2022-05-21 00:52:06</time>
      </trkpt>
      <trkpt lat="41.81052" lon="2.11043">
        <ele>669.8</ele>
        <time>2022-05-21 00:52:07</time>
      </trkpt>
      <trkpt lat="41.81054" lon="2.11048">
        <ele>670</ele>
        <time>2022-05-21 00:52:08</time>
      </trkpt>
      <trkpt lat="41.81057" lon="2.11053">
        <ele>670.4</ele>
        <time>2022-05-21 00:52:09</time>
      </trkpt>
      <trkpt lat="41.81059" lon="2.11058">
        <ele>670.6</ele>
        <time>2022-05-21 00:52:10</time>
      </trkpt>
      <trkpt lat="41.81062" lon="2.11062">
        <ele>670.8</ele>
        <time>2022-05-21 00:52:11</time>
      </trkpt>
      <trkpt lat="41.81065" lon="2.11067">
        <ele>671</ele>
        <time>2022-05-21 00:52:12</time>
      </trkpt>
      <trkpt lat="41.81067" lon="2.11071">
        <ele>671.2</ele>
        <time>2022-05-21 00:52:13</time>
      </trkpt>
      <trkpt lat="41.8107" lon="2.11075">
        <ele>671.4</ele>
        <time>2022-05-21 00:52:14</time>
      </trkpt>
      <trkpt lat="41.81072" lon="2.1108">
        <ele>671.8</ele>
        <time>2022-05-21 00:52:15</time>
      </trkpt>
      <trkpt lat="41.81075" lon="2.11084">
        <ele>672</ele>
        <time>2022-05-21 00:52:16</time>
      </trkpt>
      <trkpt lat="41.81077" lon="2.11088">
        <ele>672.2</ele>
        <time>2022-05-21 00:52:17</time>
      </trkpt>
      <trkpt lat="41.81079" lon="2.11092">
        <ele>672.4</ele>
        <time>2022-05-21 00:52:18</time>
      </trkpt>
      <trkpt lat="41.81082" lon="2.11097">
        <ele>672.6</ele>
        <time>2022-05-21 00:52:19</time>
      </trkpt>
      <trkpt lat="41.81084" lon="2.111">
        <ele>672.8</ele>
        <time>2022-05-21 00:52:20</time>
      </trkpt>
      <trkpt lat="41.81086" lon="2.11104">
        <ele>673</ele>
        <time>2022-05-21 00:52:21</time>
      </trkpt>
      <trkpt lat="41.81088" lon="2.11108">
        <ele>673.2</ele>
        <time>2022-05-21 00:52:22</time>
      </trkpt>
      <trkpt lat="41.81089" lon="2.11112">
        <ele>673.4</ele>
        <time>2022-05-21 00:52:23</time>
      </trkpt>
      <trkpt lat="41.81091" lon="2.11116">
        <ele>673.6</ele>
        <time>2022-05-21 00:52:24</time>
      </trkpt>
      <trkpt lat="41.81093" lon="2.1112">
        <ele>673.6</ele>
        <time>2022-05-21 00:52:25</time>
      </trkpt>
      <trkpt lat="41.81095" lon="2.11123">
        <ele>673.8</ele>
        <time>2022-05-21 00:52:26</time>
      </trkpt>
      <trkpt lat="41.81097" lon="2.11127">
        <ele>674</ele>
        <time>2022-05-21 00:52:27</time>
      </trkpt>
      <trkpt lat="41.81099" lon="2.1113">
        <ele>674.2</ele>
        <time>2022-05-21 00:52:28</time>
      </trkpt>
      <trkpt lat="41.81102" lon="2.11134">
        <ele>674.4</ele>
        <time>2022-05-21 00:52:29</time>
      </trkpt>
      <trkpt lat="41.81104" lon="2.11138">
        <ele>674.6</ele>
        <time>2022-05-21 00:52:30</time>
      </trkpt>
      <trkpt lat="41.81106" lon="2.11141">
        <ele>674.6</ele>
        <time>2022-05-21 00:52:31</time>
      </trkpt>
      <trkpt lat="41.81108" lon="2.11145">
        <ele>674.8</ele>
        <time>2022-05-21 00:52:32</time>
      </trkpt>
      <trkpt lat="41.8111" lon="2.11149">
        <ele>675</ele>
        <time>2022-05-21 00:52:33</time>
      </trkpt>
      <trkpt lat="41.81112" lon="2.11152">
        <ele>675.2</ele>
        <time>2022-05-21 00:52:34</time>
      </trkpt>
      <trkpt lat="41.81114" lon="2.11156">
        <ele>675.4</ele>
        <time>2022-05-21 00:52:35</time>
      </trkpt>
      <trkpt lat="41.81116" lon="2.11159">
        <ele>675.6</ele>
        <time>2022-05-21 00:52:36</time>
      </trkpt>
      <trkpt lat="41.81118" lon="2.11163">
        <ele>675.8</ele>
        <time>2022-05-21 00:52:37</time>
      </trkpt>
      <trkpt lat="41.8112" lon="2.11167">
        <ele>676</ele>
        <time>2022-05-21 00:52:38</time>
      </trkpt>
      <trkpt lat="41.81122" lon="2.11171">
        <ele>676.2</ele>
        <time>2022-05-21 00:52:39</time>
      </trkpt>
      <trkpt lat="41.81125" lon="2.11175">
        <ele>676.4</ele>
        <time>2022-05-21 00:52:40</time>
      </trkpt>
      <trkpt lat="41.81127" lon="2.11178">
        <ele>676.4</ele>
        <time>2022-05-21 00:52:41</time>
      </trkpt>
      <trkpt lat="41.81129" lon="2.11182">
        <ele>676.6</ele>
        <time>2022-05-21 00:52:42</time>
      </trkpt>
      <trkpt lat="41.81131" lon="2.11186">
        <ele>676.8</ele>
        <time>2022-05-21 00:52:43</time>
      </trkpt>
      <trkpt lat="41.81133" lon="2.1119">
        <ele>677</ele>
        <time>2022-05-21 00:52:44</time>
      </trkpt>
      <trkpt lat="41.81134" lon="2.11193">
        <ele>677.2</ele>
        <time>2022-05-21 00:52:45</time>
      </trkpt>
      <trkpt lat="41.81137" lon="2.11197">
        <ele>677.4</ele>
        <time>2022-05-21 00:52:46</time>
      </trkpt>
      <trkpt lat="41.81139" lon="2.11201">
        <ele>677.6</ele>
        <time>2022-05-21 00:52:47</time>
      </trkpt>
      <trkpt lat="41.8114" lon="2.11205">
        <ele>677.6</ele>
        <time>2022-05-21 00:52:48</time>
      </trkpt>
      <trkpt lat="41.81142" lon="2.11208">
        <ele>677.8</ele>
        <time>2022-05-21 00:52:49</time>
      </trkpt>
      <trkpt lat="41.81145" lon="2.11212">
        <ele>678</ele>
        <time>2022-05-21 00:52:50</time>
      </trkpt>
      <trkpt lat="41.81147" lon="2.11215">
        <ele>678.2</ele>
        <time>2022-05-21 00:52:51</time>
      </trkpt>
      <trkpt lat="41.81149" lon="2.11219">
        <ele>678.4</ele>
        <time>2022-05-21 00:52:52</time>
      </trkpt>
      <trkpt lat="41.81151" lon="2.11223">
        <ele>678.6</ele>
        <time>2022-05-21 00:52:53</time>
      </trkpt>
      <trkpt lat="41.81152" lon="2.11227">
        <ele>678.6</ele>
        <time>2022-05-21 00:52:54</time>
      </trkpt>
      <trkpt lat="41.81154" lon="2.11231">
        <ele>678.8</ele>
        <time>2022-05-21 00:52:55</time>
      </trkpt>
      <trkpt lat="41.81156" lon="2.11234">
        <ele>679</ele>
        <time>2022-05-21 00:52:56</time>
      </trkpt>
      <trkpt lat="41.81158" lon="2.11238">
        <ele>679.2</ele>
        <time>2022-05-21 00:52:57</time>
      </trkpt>
      <trkpt lat="41.8116" lon="2.11241">
        <ele>679.4</ele>
        <time>2022-05-21 00:52:58</time>
      </trkpt>
      <trkpt lat="41.81162" lon="2.11244">
        <ele>679.6</ele>
        <time>2022-05-21 00:52:59</time>
      </trkpt>
      <trkpt lat="41.81163" lon="2.11247">
        <ele>679.6</ele>
        <time>2022-05-21 00:53:00</time>
      </trkpt>
      <trkpt lat="41.81166" lon="2.1125">
        <ele>679.8</ele>
        <time>2022-05-21 00:53:01</time>
      </trkpt>
      <trkpt lat="41.81167" lon="2.11253">
        <ele>680</ele>
        <time>2022-05-21 00:53:02</time>
      </trkpt>
      <trkpt lat="41.81169" lon="2.11256">
        <ele>680.2</ele>
        <time>2022-05-21 00:53:03</time>
      </trkpt>
      <trkpt lat="41.81171" lon="2.1126">
        <ele>680.4</ele>
        <time>2022-05-21 00:53:04</time>
      </trkpt>
      <trkpt lat="41.81173" lon="2.11264">
        <ele>680.4</ele>
        <time>2022-05-21 00:53:05</time>
      </trkpt>
      <trkpt lat="41.81175" lon="2.11267">
        <ele>680.6</ele>
        <time>2022-05-21 00:53:06</time>
      </trkpt>
      <trkpt lat="41.81177" lon="2.1127">
        <ele>680.8</ele>
        <time>2022-05-21 00:53:07</time>
      </trkpt>
      <trkpt lat="41.81179" lon="2.11274">
        <ele>681</ele>
        <time>2022-05-21 00:53:08</time>
      </trkpt>
      <trkpt lat="41.81181" lon="2.11277">
        <ele>681.2</ele>
        <time>2022-05-21 00:53:09</time>
      </trkpt>
      <trkpt lat="41.81183" lon="2.11281">
        <ele>681.4</ele>
        <time>2022-05-21 00:53:10</time>
      </trkpt>
      <trkpt lat="41.81185" lon="2.11285">
        <ele>681.4</ele>
        <time>2022-05-21 00:53:11</time>
      </trkpt>
      <trkpt lat="41.81186" lon="2.11288">
        <ele>681.6</ele>
        <time>2022-05-21 00:53:12</time>
      </trkpt>
      <trkpt lat="41.81188" lon="2.11293">
        <ele>681.8</ele>
        <time>2022-05-21 00:53:13</time>
      </trkpt>
      <trkpt lat="41.8119" lon="2.11296">
        <ele>682</ele>
        <time>2022-05-21 00:53:14</time>
      </trkpt>
      <trkpt lat="41.81192" lon="2.113">
        <ele>682.2</ele>
        <time>2022-05-21 00:53:15</time>
      </trkpt>
      <trkpt lat="41.81194" lon="2.11304">
        <ele>682.4</ele>
        <time>2022-05-21 00:53:16</time>
      </trkpt>
      <trkpt lat="41.81196" lon="2.11307">
        <ele>682.4</ele>
        <time>2022-05-21 00:53:17</time>
      </trkpt>
      <trkpt lat="41.81198" lon="2.11309">
        <ele>682.6</ele>
        <time>2022-05-21 00:53:18</time>
      </trkpt>
      <trkpt lat="41.812" lon="2.11314">
        <ele>682.8</ele>
        <time>2022-05-21 00:53:19</time>
      </trkpt>
      <trkpt lat="41.81202" lon="2.11318">
        <ele>683</ele>
        <time>2022-05-21 00:53:20</time>
      </trkpt>
      <trkpt lat="41.81203" lon="2.11322">
        <ele>683</ele>
        <time>2022-05-21 00:53:21</time>
      </trkpt>
      <trkpt lat="41.81205" lon="2.11325">
        <ele>683.2</ele>
        <time>2022-05-21 00:53:22</time>
      </trkpt>
      <trkpt lat="41.81208" lon="2.11329">
        <ele>683.4</ele>
        <time>2022-05-21 00:53:23</time>
      </trkpt>
      <trkpt lat="41.8121" lon="2.11332">
        <ele>683.6</ele>
        <time>2022-05-21 00:53:24</time>
      </trkpt>
      <trkpt lat="41.81212" lon="2.11335">
        <ele>683.8</ele>
        <time>2022-05-21 00:53:25</time>
      </trkpt>
      <trkpt lat="41.81214" lon="2.11339">
        <ele>684</ele>
        <time>2022-05-21 00:53:26</time>
      </trkpt>
      <trkpt lat="41.81216" lon="2.11343">
        <ele>684.2</ele>
        <time>2022-05-21 00:53:27</time>
      </trkpt>
      <trkpt lat="41.81218" lon="2.11346">
        <ele>684.2</ele>
        <time>2022-05-21 00:53:28</time>
      </trkpt>
      <trkpt lat="41.8122" lon="2.1135">
        <ele>684.4</ele>
        <time>2022-05-21 00:53:29</time>
      </trkpt>
      <trkpt lat="41.81222" lon="2.11354">
        <ele>684.6</ele>
        <time>2022-05-21 00:53:30</time>
      </trkpt>
      <trkpt lat="41.81224" lon="2.11357">
        <ele>684.8</ele>
        <time>2022-05-21 00:53:31</time>
      </trkpt>
      <trkpt lat="41.81226" lon="2.1136">
        <ele>685</ele>
        <time>2022-05-21 00:53:32</time>
      </trkpt>
      <trkpt lat="41.81228" lon="2.11364">
        <ele>685</ele>
        <time>2022-05-21 00:53:33</time>
      </trkpt>
      <trkpt lat="41.81229" lon="2.11368">
        <ele>685.2</ele>
        <time>2022-05-21 00:53:34</time>
      </trkpt>
      <trkpt lat="41.81231" lon="2.11371">
        <ele>685.4</ele>
        <time>2022-05-21 00:53:35</time>
      </trkpt>
      <trkpt lat="41.81233" lon="2.11375">
        <ele>685.6</ele>
        <time>2022-05-21 00:53:36</time>
      </trkpt>
      <trkpt lat="41.81234" lon="2.11379">
        <ele>685.8</ele>
        <time>2022-05-21 00:53:37</time>
      </trkpt>
      <trkpt lat="41.81236" lon="2.11383">
        <ele>686</ele>
        <time>2022-05-21 00:53:38</time>
      </trkpt>
      <trkpt lat="41.81239" lon="2.11386">
        <ele>686</ele>
        <time>2022-05-21 00:53:39</time>
      </trkpt>
      <trkpt lat="41.81241" lon="2.1139">
        <ele>686.2</ele>
        <time>2022-05-21 00:53:40</time>
      </trkpt>
      <trkpt lat="41.81243" lon="2.11393">
        <ele>686.4</ele>
        <time>2022-05-21 00:53:41</time>
      </trkpt>
      <trkpt lat="41.81245" lon="2.11397">
        <ele>686.6</ele>
        <time>2022-05-21 00:53:42</time>
      </trkpt>
      <trkpt lat="41.81247" lon="2.11401">
        <ele>686.8</ele>
        <time>2022-05-21 00:53:43</time>
      </trkpt>
      <trkpt lat="41.81249" lon="2.11405">
        <ele>686.8</ele>
        <time>2022-05-21 00:53:44</time>
      </trkpt>
      <trkpt lat="41.8125" lon="2.11409">
        <ele>687</ele>
        <time>2022-05-21 00:53:45</time>
      </trkpt>
      <trkpt lat="41.81252" lon="2.11413">
        <ele>687.2</ele>
        <time>2022-05-21 00:53:46</time>
      </trkpt>
      <trkpt lat="41.81254" lon="2.11417">
        <ele>687.4</ele>
        <time>2022-05-21 00:53:47</time>
      </trkpt>
      <trkpt lat="41.81256" lon="2.1142">
        <ele>687.6</ele>
        <time>2022-05-21 00:53:48</time>
      </trkpt>
      <trkpt lat="41.81258" lon="2.11424">
        <ele>687.6</ele>
        <time>2022-05-21 00:53:49</time>
      </trkpt>
      <trkpt lat="41.81259" lon="2.11428">
        <ele>687.8</ele>
        <time>2022-05-21 00:53:50</time>
      </trkpt>
      <trkpt lat="41.81259" lon="2.11434">
        <ele>688</ele>
        <time>2022-05-21 00:53:51</time>
      </trkpt>
      <trkpt lat="41.81259" lon="2.11439">
        <ele>688.2</ele>
        <time>2022-05-21 00:53:52</time>
      </trkpt>
      <trkpt lat="41.81261" lon="2.11442">
        <ele>688.4</ele>
        <time>2022-05-21 00:53:53</time>
      </trkpt>
      <trkpt lat="41.81265" lon="2.11445">
        <ele>688.4</ele>
        <time>2022-05-21 00:53:54</time>
      </trkpt>
      <trkpt lat="41.81268" lon="2.11448">
        <ele>688.6</ele>
        <time>2022-05-21 00:53:55</time>
      </trkpt>
      <trkpt lat="41.8127" lon="2.11451">
        <ele>688.8</ele>
        <time>2022-05-21 00:53:56</time>
      </trkpt>
      <trkpt lat="41.81273" lon="2.11454">
        <ele>689</ele>
        <time>2022-05-21 00:53:57</time>
      </trkpt>
      <trkpt lat="41.81275" lon="2.11457">
        <ele>689.2</ele>
        <time>2022-05-21 00:53:58</time>
      </trkpt>
      <trkpt lat="41.81277" lon="2.11461">
        <ele>689.4</ele>
        <time>2022-05-21 00:53:59</time>
      </trkpt>
      <trkpt lat="41.81279" lon="2.11464">
        <ele>689.4</ele>
        <time>2022-05-21 00:54:00</time>
      </trkpt>
      <trkpt lat="41.81281" lon="2.11468">
        <ele>689.6</ele>
        <time>2022-05-21 00:54:01</time>
      </trkpt>
      <trkpt lat="41.81283" lon="2.11472">
        <ele>689.8</ele>
        <time>2022-05-21 00:54:02</time>
      </trkpt>
      <trkpt lat="41.81285" lon="2.11475">
        <ele>690</ele>
        <time>2022-05-21 00:54:03</time>
      </trkpt>
      <trkpt lat="41.81287" lon="2.11479">
        <ele>690.2</ele>
        <time>2022-05-21 00:54:04</time>
      </trkpt>
      <trkpt lat="41.81289" lon="2.11482">
        <ele>690.2</ele>
        <time>2022-05-21 00:54:05</time>
      </trkpt>
      <trkpt lat="41.8129" lon="2.11486">
        <ele>690.4</ele>
        <time>2022-05-21 00:54:06</time>
      </trkpt>
      <trkpt lat="41.81292" lon="2.11489">
        <ele>690.6</ele>
        <time>2022-05-21 00:54:07</time>
      </trkpt>
      <trkpt lat="41.81295" lon="2.11493">
        <ele>690.8</ele>
        <time>2022-05-21 00:54:08</time>
      </trkpt>
      <trkpt lat="41.81297" lon="2.11496">
        <ele>691</ele>
        <time>2022-05-21 00:54:09</time>
      </trkpt>
      <trkpt lat="41.81298" lon="2.115">
        <ele>691.2</ele>
        <time>2022-05-21 00:54:10</time>
      </trkpt>
      <trkpt lat="41.813" lon="2.11503">
        <ele>691.2</ele>
        <time>2022-05-21 00:54:11</time>
      </trkpt>
      <trkpt lat="41.81303" lon="2.11507">
        <ele>691.4</ele>
        <time>2022-05-21 00:54:12</time>
      </trkpt>
      <trkpt lat="41.81305" lon="2.11511">
        <ele>691.6</ele>
        <time>2022-05-21 00:54:13</time>
      </trkpt>
      <trkpt lat="41.81306" lon="2.11515">
        <ele>691.8</ele>
        <time>2022-05-21 00:54:14</time>
      </trkpt>
      <trkpt lat="41.81308" lon="2.11519">
        <ele>691.8</ele>
        <time>2022-05-21 00:54:15</time>
      </trkpt>
      <trkpt lat="41.8131" lon="2.11522">
        <ele>692</ele>
        <time>2022-05-21 00:54:16</time>
      </trkpt>
      <trkpt lat="41.81312" lon="2.11526">
        <ele>692.2</ele>
        <time>2022-05-21 00:54:17</time>
      </trkpt>
      <trkpt lat="41.81314" lon="2.1153">
        <ele>692.4</ele>
        <time>2022-05-21 00:54:18</time>
      </trkpt>
      <trkpt lat="41.81316" lon="2.11534">
        <ele>692.4</ele>
        <time>2022-05-21 00:54:19</time>
      </trkpt>
      <trkpt lat="41.81318" lon="2.11538">
        <ele>692.6</ele>
        <time>2022-05-21 00:54:20</time>
      </trkpt>
      <trkpt lat="41.8132" lon="2.11542">
        <ele>692.8</ele>
        <time>2022-05-21 00:54:21</time>
      </trkpt>
      <trkpt lat="41.81322" lon="2.11546">
        <ele>692.8</ele>
        <time>2022-05-21 00:54:22</time>
      </trkpt>
      <trkpt lat="41.81324" lon="2.11551">
        <ele>693</ele>
        <time>2022-05-21 00:54:23</time>
      </trkpt>
      <trkpt lat="41.81326" lon="2.11555">
        <ele>693</ele>
        <time>2022-05-21 00:54:24</time>
      </trkpt>
      <trkpt lat="41.81327" lon="2.1156">
        <ele>693</ele>
        <time>2022-05-21 00:54:25</time>
      </trkpt>
      <trkpt lat="41.81329" lon="2.11565">
        <ele>693.2</ele>
        <time>2022-05-21 00:54:26</time>
      </trkpt>
      <trkpt lat="41.8133" lon="2.1157">
        <ele>693.2</ele>
        <time>2022-05-21 00:54:27</time>
      </trkpt>
      <trkpt lat="41.81332" lon="2.11575">
        <ele>693.2</ele>
        <time>2022-05-21 00:54:28</time>
      </trkpt>
      <trkpt lat="41.81333" lon="2.1158">
        <ele>693.4</ele>
        <time>2022-05-21 00:54:29</time>
      </trkpt>
      <trkpt lat="41.81334" lon="2.11586">
        <ele>693.4</ele>
        <time>2022-05-21 00:54:30</time>
      </trkpt>
      <trkpt lat="41.81335" lon="2.11591">
        <ele>693.6</ele>
        <time>2022-05-21 00:54:31</time>
      </trkpt>
      <trkpt lat="41.81335" lon="2.11597">
        <ele>693.6</ele>
        <time>2022-05-21 00:54:32</time>
      </trkpt>
      <trkpt lat="41.81336" lon="2.11603">
        <ele>693.6</ele>
        <time>2022-05-21 00:54:33</time>
      </trkpt>
      <trkpt lat="41.81336" lon="2.11608">
        <ele>693.8</ele>
        <time>2022-05-21 00:54:34</time>
      </trkpt>
      <trkpt lat="41.81337" lon="2.11614">
        <ele>693.8</ele>
        <time>2022-05-21 00:54:35</time>
      </trkpt>
      <trkpt lat="41.81337" lon="2.1162">
        <ele>694</ele>
        <time>2022-05-21 00:54:36</time>
      </trkpt>
      <trkpt lat="41.81337" lon="2.11626">
        <ele>694</ele>
        <time>2022-05-21 00:54:37</time>
      </trkpt>
      <trkpt lat="41.81338" lon="2.11632">
        <ele>694.2</ele>
        <time>2022-05-21 00:54:38</time>
      </trkpt>
      <trkpt lat="41.81338" lon="2.11638">
        <ele>694.2</ele>
        <time>2022-05-21 00:54:39</time>
      </trkpt>
      <trkpt lat="41.81338" lon="2.11644">
        <ele>694.2</ele>
        <time>2022-05-21 00:54:40</time>
      </trkpt>
      <trkpt lat="41.81338" lon="2.1165">
        <ele>694.4</ele>
        <time>2022-05-21 00:54:41</time>
      </trkpt>
      <trkpt lat="41.81339" lon="2.11655">
        <ele>694.6</ele>
        <time>2022-05-21 00:54:42</time>
      </trkpt>
      <trkpt lat="41.8134" lon="2.11662">
        <ele>694.6</ele>
        <time>2022-05-21 00:54:43</time>
      </trkpt>
      <trkpt lat="41.8134" lon="2.11667">
        <ele>694.6</ele>
        <time>2022-05-21 00:54:44</time>
      </trkpt>
      <trkpt lat="41.8134" lon="2.11673">
        <ele>694.8</ele>
        <time>2022-05-21 00:54:45</time>
      </trkpt>
      <trkpt lat="41.8134" lon="2.11679">
        <ele>694.8</ele>
        <time>2022-05-21 00:54:46</time>
      </trkpt>
      <trkpt lat="41.8134" lon="2.11685">
        <ele>695</ele>
        <time>2022-05-21 00:54:47</time>
      </trkpt>
      <trkpt lat="41.8134" lon="2.11691">
        <ele>695</ele>
        <time>2022-05-21 00:54:48</time>
      </trkpt>
      <trkpt lat="41.81341" lon="2.11698">
        <ele>695</ele>
        <time>2022-05-21 00:54:49</time>
      </trkpt>
      <trkpt lat="41.81341" lon="2.11704">
        <ele>695</ele>
        <time>2022-05-21 00:54:50</time>
      </trkpt>
      <trkpt lat="41.81342" lon="2.1171">
        <ele>695.2</ele>
        <time>2022-05-21 00:54:51</time>
      </trkpt>
      <trkpt lat="41.81342" lon="2.11717">
        <ele>695.2</ele>
        <time>2022-05-21 00:54:52</time>
      </trkpt>
      <trkpt lat="41.81343" lon="2.11723">
        <ele>695.2</ele>
        <time>2022-05-21 00:54:53</time>
      </trkpt>
      <trkpt lat="41.81343" lon="2.11729">
        <ele>695.4</ele>
        <time>2022-05-21 00:54:54</time>
      </trkpt>
      <trkpt lat="41.81343" lon="2.11736">
        <ele>695.4</ele>
        <time>2022-05-21 00:54:55</time>
      </trkpt>
      <trkpt lat="41.81344" lon="2.11742">
        <ele>695.4</ele>
        <time>2022-05-21 00:54:56</time>
      </trkpt>
      <trkpt lat="41.81345" lon="2.11749">
        <ele>695.4</ele>
        <time>2022-05-21 00:54:57</time>
      </trkpt>
      <trkpt lat="41.81345" lon="2.11756">
        <ele>695.4</ele>
        <time>2022-05-21 00:54:58</time>
      </trkpt>
      <trkpt lat="41.81345" lon="2.11763">
        <ele>695.4</ele>
        <time>2022-05-21 00:54:59</time>
      </trkpt>
      <trkpt lat="41.81346" lon="2.11769">
        <ele>695.4</ele>
        <time>2022-05-21 00:55:00</time>
      </trkpt>
      <trkpt lat="41.81346" lon="2.11776">
        <ele>695.6</ele>
        <time>2022-05-21 00:55:01</time>
      </trkpt>
      <trkpt lat="41.81346" lon="2.11783">
        <ele>695.6</ele>
        <time>2022-05-21 00:55:02</time>
      </trkpt>
      <trkpt lat="41.81347" lon="2.1179">
        <ele>695.6</ele>
        <time>2022-05-21 00:55:03</time>
      </trkpt>
      <trkpt lat="41.81347" lon="2.11797">
        <ele>695.8</ele>
        <time>2022-05-21 00:55:04</time>
      </trkpt>
      <trkpt lat="41.81347" lon="2.11804">
        <ele>695.8</ele>
        <time>2022-05-21 00:55:05</time>
      </trkpt>
      <trkpt lat="41.81348" lon="2.11811">
        <ele>695.8</ele>
        <time>2022-05-21 00:55:06</time>
      </trkpt>
      <trkpt lat="41.81348" lon="2.11818">
        <ele>695.8</ele>
        <time>2022-05-21 00:55:07</time>
      </trkpt>
      <trkpt lat="41.81348" lon="2.11825">
        <ele>696</ele>
        <time>2022-05-21 00:55:08</time>
      </trkpt>
      <trkpt lat="41.81348" lon="2.11832">
        <ele>696</ele>
        <time>2022-05-21 00:55:09</time>
      </trkpt>
      <trkpt lat="41.81349" lon="2.11839">
        <ele>696</ele>
        <time>2022-05-21 00:55:10</time>
      </trkpt>
      <trkpt lat="41.81349" lon="2.11845">
        <ele>696.2</ele>
        <time>2022-05-21 00:55:11</time>
      </trkpt>
      <trkpt lat="41.81349" lon="2.11852">
        <ele>696.2</ele>
        <time>2022-05-21 00:55:12</time>
      </trkpt>
      <trkpt lat="41.81349" lon="2.11859">
        <ele>696.4</ele>
        <time>2022-05-21 00:55:13</time>
      </trkpt>
      <trkpt lat="41.8135" lon="2.11865">
        <ele>696.4</ele>
        <time>2022-05-21 00:55:14</time>
      </trkpt>
      <trkpt lat="41.8135" lon="2.11872">
        <ele>696.6</ele>
        <time>2022-05-21 00:55:15</time>
      </trkpt>
      <trkpt lat="41.8135" lon="2.11878">
        <ele>696.8</ele>
        <time>2022-05-21 00:55:16</time>
      </trkpt>
      <trkpt lat="41.81351" lon="2.11884">
        <ele>697</ele>
        <time>2022-05-21 00:55:17</time>
      </trkpt>
      <trkpt lat="41.81351" lon="2.11889">
        <ele>697</ele>
        <time>2022-05-21 00:55:18</time>
      </trkpt>
      <trkpt lat="41.81351" lon="2.11895">
        <ele>697.2</ele>
        <time>2022-05-21 00:55:19</time>
      </trkpt>
      <trkpt lat="41.81352" lon="2.11901">
        <ele>697.4</ele>
        <time>2022-05-21 00:55:20</time>
      </trkpt>
      <trkpt lat="41.81353" lon="2.11907">
        <ele>697.6</ele>
        <time>2022-05-21 00:55:21</time>
      </trkpt>
      <trkpt lat="41.81353" lon="2.11913">
        <ele>697.6</ele>
        <time>2022-05-21 00:55:22</time>
      </trkpt>
      <trkpt lat="41.81353" lon="2.11919">
        <ele>697.8</ele>
        <time>2022-05-21 00:55:23</time>
      </trkpt>
      <trkpt lat="41.81354" lon="2.11925">
        <ele>697.8</ele>
        <time>2022-05-21 00:55:24</time>
      </trkpt>
      <trkpt lat="41.81354" lon="2.11931">
        <ele>698</ele>
        <time>2022-05-21 00:55:25</time>
      </trkpt>
      <trkpt lat="41.81355" lon="2.11937">
        <ele>698.2</ele>
        <time>2022-05-21 00:55:26</time>
      </trkpt>
      <trkpt lat="41.81355" lon="2.11943">
        <ele>698.4</ele>
        <time>2022-05-21 00:55:27</time>
      </trkpt>
      <trkpt lat="41.81355" lon="2.11949">
        <ele>698.6</ele>
        <time>2022-05-21 00:55:28</time>
      </trkpt>
      <trkpt lat="41.81356" lon="2.11955">
        <ele>698.6</ele>
        <time>2022-05-21 00:55:29</time>
      </trkpt>
      <trkpt lat="41.81356" lon="2.11961">
        <ele>698.8</ele>
        <time>2022-05-21 00:55:30</time>
      </trkpt>
      <trkpt lat="41.81356" lon="2.11966">
        <ele>699</ele>
        <time>2022-05-21 00:55:31</time>
      </trkpt>
      <trkpt lat="41.81356" lon="2.11972">
        <ele>699.2</ele>
        <time>2022-05-21 00:55:32</time>
      </trkpt>
      <trkpt lat="41.81357" lon="2.11978">
        <ele>699.4</ele>
        <time>2022-05-21 00:55:33</time>
      </trkpt>
      <trkpt lat="41.81357" lon="2.11984">
        <ele>699.4</ele>
        <time>2022-05-21 00:55:34</time>
      </trkpt>
      <trkpt lat="41.81358" lon="2.11989">
        <ele>699.6</ele>
        <time>2022-05-21 00:55:35</time>
      </trkpt>
      <trkpt lat="41.81358" lon="2.11995">
        <ele>699.8</ele>
        <time>2022-05-21 00:55:36</time>
      </trkpt>
      <trkpt lat="41.81358" lon="2.12001">
        <ele>700</ele>
        <time>2022-05-21 00:55:37</time>
      </trkpt>
      <trkpt lat="41.81358" lon="2.12006">
        <ele>700.2</ele>
        <time>2022-05-21 00:55:38</time>
      </trkpt>
      <trkpt lat="41.81359" lon="2.12012">
        <ele>700.4</ele>
        <time>2022-05-21 00:55:39</time>
      </trkpt>
      <trkpt lat="41.81359" lon="2.12017">
        <ele>700.6</ele>
        <time>2022-05-21 00:55:40</time>
      </trkpt>
      <trkpt lat="41.81359" lon="2.12023">
        <ele>700.6</ele>
        <time>2022-05-21 00:55:41</time>
      </trkpt>
      <trkpt lat="41.81359" lon="2.12029">
        <ele>700.8</ele>
        <time>2022-05-21 00:55:42</time>
      </trkpt>
      <trkpt lat="41.8136" lon="2.12034">
        <ele>701</ele>
        <time>2022-05-21 00:55:43</time>
      </trkpt>
      <trkpt lat="41.8136" lon="2.1204">
        <ele>701</ele>
        <time>2022-05-21 00:55:44</time>
      </trkpt>
      <trkpt lat="41.8136" lon="2.12046">
        <ele>701.2</ele>
        <time>2022-05-21 00:55:45</time>
      </trkpt>
      <trkpt lat="41.81361" lon="2.12052">
        <ele>701.2</ele>
        <time>2022-05-21 00:55:46</time>
      </trkpt>
      <trkpt lat="41.81361" lon="2.12058">
        <ele>701.4</ele>
        <time>2022-05-21 00:55:47</time>
      </trkpt>
      <trkpt lat="41.81361" lon="2.12063">
        <ele>701.6</ele>
        <time>2022-05-21 00:55:48</time>
      </trkpt>
      <trkpt lat="41.81362" lon="2.12069">
        <ele>701.6</ele>
        <time>2022-05-21 00:55:49</time>
      </trkpt>
      <trkpt lat="41.81362" lon="2.12075">
        <ele>701.8</ele>
        <time>2022-05-21 00:55:50</time>
      </trkpt>
      <trkpt lat="41.81363" lon="2.12081">
        <ele>701.8</ele>
        <time>2022-05-21 00:55:51</time>
      </trkpt>
      <trkpt lat="41.81363" lon="2.12087">
        <ele>702</ele>
        <time>2022-05-21 00:55:52</time>
      </trkpt>
      <trkpt lat="41.81363" lon="2.12093">
        <ele>702</ele>
        <time>2022-05-21 00:55:53</time>
      </trkpt>
      <trkpt lat="41.81364" lon="2.12098">
        <ele>702.2</ele>
        <time>2022-05-21 00:55:54</time>
      </trkpt>
      <trkpt lat="41.81364" lon="2.12104">
        <ele>702.2</ele>
        <time>2022-05-21 00:55:55</time>
      </trkpt>
      <trkpt lat="41.81364" lon="2.1211">
        <ele>702.4</ele>
        <time>2022-05-21 00:55:56</time>
      </trkpt>
      <trkpt lat="41.81365" lon="2.12116">
        <ele>702.4</ele>
        <time>2022-05-21 00:55:57</time>
      </trkpt>
      <trkpt lat="41.81365" lon="2.12122">
        <ele>702.6</ele>
        <time>2022-05-21 00:55:58</time>
      </trkpt>
      <trkpt lat="41.81366" lon="2.12128">
        <ele>702.6</ele>
        <time>2022-05-21 00:55:59</time>
      </trkpt>
      <trkpt lat="41.81366" lon="2.12133">
        <ele>702.8</ele>
        <time>2022-05-21 00:56:00</time>
      </trkpt>
      <trkpt lat="41.81367" lon="2.12139">
        <ele>702.8</ele>
        <time>2022-05-21 00:56:01</time>
      </trkpt>
      <trkpt lat="41.81367" lon="2.12145">
        <ele>703</ele>
        <time>2022-05-21 00:56:02</time>
      </trkpt>
      <trkpt lat="41.81368" lon="2.12151">
        <ele>703.2</ele>
        <time>2022-05-21 00:56:03</time>
      </trkpt>
      <trkpt lat="41.81368" lon="2.12157">
        <ele>703.2</ele>
        <time>2022-05-21 00:56:04</time>
      </trkpt>
      <trkpt lat="41.81368" lon="2.12162">
        <ele>703.4</ele>
        <time>2022-05-21 00:56:05</time>
      </trkpt>
      <trkpt lat="41.81368" lon="2.12168">
        <ele>703.6</ele>
        <time>2022-05-21 00:56:06</time>
      </trkpt>
      <trkpt lat="41.81368" lon="2.12174">
        <ele>703.6</ele>
        <time>2022-05-21 00:56:07</time>
      </trkpt>
      <trkpt lat="41.81369" lon="2.1218">
        <ele>703.8</ele>
        <time>2022-05-21 00:56:08</time>
      </trkpt>
      <trkpt lat="41.81369" lon="2.12185">
        <ele>703.8</ele>
        <time>2022-05-21 00:56:09</time>
      </trkpt>
      <trkpt lat="41.81369" lon="2.12191">
        <ele>704</ele>
        <time>2022-05-21 00:56:10</time>
      </trkpt>
      <trkpt lat="41.81369" lon="2.12196">
        <ele>704.2</ele>
        <time>2022-05-21 00:56:11</time>
      </trkpt>
      <trkpt lat="41.8137" lon="2.12202">
        <ele>704.2</ele>
        <time>2022-05-21 00:56:12</time>
      </trkpt>
      <trkpt lat="41.8137" lon="2.12207">
        <ele>704.4</ele>
        <time>2022-05-21 00:56:13</time>
      </trkpt>
      <trkpt lat="41.8137" lon="2.12213">
        <ele>704.6</ele>
        <time>2022-05-21 00:56:14</time>
      </trkpt>
      <trkpt lat="41.81371" lon="2.12218">
        <ele>704.8</ele>
        <time>2022-05-21 00:56:15</time>
      </trkpt>
      <trkpt lat="41.81371" lon="2.12223">
        <ele>705</ele>
        <time>2022-05-21 00:56:16</time>
      </trkpt>
      <trkpt lat="41.81371" lon="2.12228">
        <ele>705</ele>
        <time>2022-05-21 00:56:17</time>
      </trkpt>
      <trkpt lat="41.81371" lon="2.12233">
        <ele>705.2</ele>
        <time>2022-05-21 00:56:18</time>
      </trkpt>
      <trkpt lat="41.81372" lon="2.12238">
        <ele>705.4</ele>
        <time>2022-05-21 00:56:19</time>
      </trkpt>
      <trkpt lat="41.81372" lon="2.12243">
        <ele>705.6</ele>
        <time>2022-05-21 00:56:20</time>
      </trkpt>
      <trkpt lat="41.81372" lon="2.12248">
        <ele>705.8</ele>
        <time>2022-05-21 00:56:21</time>
      </trkpt>
      <trkpt lat="41.81372" lon="2.12253">
        <ele>706</ele>
        <time>2022-05-21 00:56:22</time>
      </trkpt>
      <trkpt lat="41.81373" lon="2.12258">
        <ele>706.2</ele>
        <time>2022-05-21 00:56:23</time>
      </trkpt>
      <trkpt lat="41.81373" lon="2.12262">
        <ele>706.4</ele>
        <time>2022-05-21 00:56:24</time>
      </trkpt>
      <trkpt lat="41.81373" lon="2.12267">
        <ele>706.6</ele>
        <time>2022-05-21 00:56:25</time>
      </trkpt>
      <trkpt lat="41.81374" lon="2.12271">
        <ele>706.8</ele>
        <time>2022-05-21 00:56:26</time>
      </trkpt>
      <trkpt lat="41.81374" lon="2.12276">
        <ele>707</ele>
        <time>2022-05-21 00:56:27</time>
      </trkpt>
      <trkpt lat="41.81374" lon="2.12281">
        <ele>707.2</ele>
        <time>2022-05-21 00:56:28</time>
      </trkpt>
      <trkpt lat="41.81375" lon="2.12285">
        <ele>707.4</ele>
        <time>2022-05-21 00:56:29</time>
      </trkpt>
      <trkpt lat="41.81375" lon="2.12289">
        <ele>707.6</ele>
        <time>2022-05-21 00:56:30</time>
      </trkpt>
      <trkpt lat="41.81375" lon="2.12294">
        <ele>707.8</ele>
        <time>2022-05-21 00:56:31</time>
      </trkpt>
      <trkpt lat="41.81375" lon="2.12298">
        <ele>708</ele>
        <time>2022-05-21 00:56:32</time>
      </trkpt>
      <trkpt lat="41.81376" lon="2.12302">
        <ele>708.2</ele>
        <time>2022-05-21 00:56:33</time>
      </trkpt>
      <trkpt lat="41.81376" lon="2.12306">
        <ele>708.4</ele>
        <time>2022-05-21 00:56:34</time>
      </trkpt>
      <trkpt lat="41.81376" lon="2.12311">
        <ele>708.6</ele>
        <time>2022-05-21 00:56:35</time>
      </trkpt>
      <trkpt lat="41.81376" lon="2.12315">
        <ele>708.8</ele>
        <time>2022-05-21 00:56:36</time>
      </trkpt>
      <trkpt lat="41.81376" lon="2.1232">
        <ele>709</ele>
        <time>2022-05-21 00:56:37</time>
      </trkpt>
      <trkpt lat="41.81376" lon="2.12324">
        <ele>709.2</ele>
        <time>2022-05-21 00:56:38</time>
      </trkpt>
      <trkpt lat="41.81376" lon="2.12328">
        <ele>709.4</ele>
        <time>2022-05-21 00:56:39</time>
      </trkpt>
      <trkpt lat="41.81376" lon="2.12333">
        <ele>709.6</ele>
        <time>2022-05-21 00:56:40</time>
      </trkpt>
      <trkpt lat="41.81377" lon="2.12337">
        <ele>709.8</ele>
        <time>2022-05-21 00:56:41</time>
      </trkpt>
      <trkpt lat="41.81377" lon="2.12342">
        <ele>709.8</ele>
        <time>2022-05-21 00:56:42</time>
      </trkpt>
      <trkpt lat="41.81377" lon="2.12347">
        <ele>710</ele>
        <time>2022-05-21 00:56:43</time>
      </trkpt>
      <trkpt lat="41.81377" lon="2.12351">
        <ele>710.2</ele>
        <time>2022-05-21 00:56:44</time>
      </trkpt>
      <trkpt lat="41.81377" lon="2.12356">
        <ele>710.4</ele>
        <time>2022-05-21 00:56:45</time>
      </trkpt>
      <trkpt lat="41.81378" lon="2.12361">
        <ele>710.6</ele>
        <time>2022-05-21 00:56:46</time>
      </trkpt>
      <trkpt lat="41.81378" lon="2.12365">
        <ele>710.6</ele>
        <time>2022-05-21 00:56:47</time>
      </trkpt>
      <trkpt lat="41.81378" lon="2.1237">
        <ele>710.8</ele>
        <time>2022-05-21 00:56:48</time>
      </trkpt>
      <trkpt lat="41.81379" lon="2.12375">
        <ele>711</ele>
        <time>2022-05-21 00:56:49</time>
      </trkpt>
      <trkpt lat="41.81379" lon="2.1238">
        <ele>711</ele>
        <time>2022-05-21 00:56:50</time>
      </trkpt>
      <trkpt lat="41.81379" lon="2.12385">
        <ele>711.2</ele>
        <time>2022-05-21 00:56:51</time>
      </trkpt>
      <trkpt lat="41.81379" lon="2.12389">
        <ele>711.4</ele>
        <time>2022-05-21 00:56:52</time>
      </trkpt>
      <trkpt lat="41.8138" lon="2.12394">
        <ele>711.4</ele>
        <time>2022-05-21 00:56:53</time>
      </trkpt>
      <trkpt lat="41.8138" lon="2.12399">
        <ele>711.6</ele>
        <time>2022-05-21 00:56:54</time>
      </trkpt>
      <trkpt lat="41.8138" lon="2.12404">
        <ele>711.8</ele>
        <time>2022-05-21 00:56:55</time>
      </trkpt>
      <trkpt lat="41.81381" lon="2.12409">
        <ele>711.8</ele>
        <time>2022-05-21 00:56:56</time>
      </trkpt>
      <trkpt lat="41.81381" lon="2.12414">
        <ele>712</ele>
        <time>2022-05-21 00:56:57</time>
      </trkpt>
      <trkpt lat="41.81381" lon="2.12419">
        <ele>712</ele>
        <time>2022-05-21 00:56:58</time>
      </trkpt>
      <trkpt lat="41.81381" lon="2.12424">
        <ele>712.2</ele>
        <time>2022-05-21 00:56:59</time>
      </trkpt>
      <trkpt lat="41.81381" lon="2.12429">
        <ele>712.4</ele>
        <time>2022-05-21 00:57:00</time>
      </trkpt>
      <trkpt lat="41.81382" lon="2.12434">
        <ele>712.4</ele>
        <time>2022-05-21 00:57:01</time>
      </trkpt>
      <trkpt lat="41.81382" lon="2.12439">
        <ele>712.6</ele>
        <time>2022-05-21 00:57:02</time>
      </trkpt>
      <trkpt lat="41.81382" lon="2.12444">
        <ele>712.6</ele>
        <time>2022-05-21 00:57:03</time>
      </trkpt>
      <trkpt lat="41.81382" lon="2.1245">
        <ele>712.8</ele>
        <time>2022-05-21 00:57:04</time>
      </trkpt>
      <trkpt lat="41.81383" lon="2.12455">
        <ele>712.8</ele>
        <time>2022-05-21 00:57:05</time>
      </trkpt>
      <trkpt lat="41.81383" lon="2.1246">
        <ele>713</ele>
        <time>2022-05-21 00:57:06</time>
      </trkpt>
      <trkpt lat="41.81384" lon="2.12465">
        <ele>713</ele>
        <time>2022-05-21 00:57:07</time>
      </trkpt>
      <trkpt lat="41.81384" lon="2.1247">
        <ele>713.2</ele>
        <time>2022-05-21 00:57:08</time>
      </trkpt>
      <trkpt lat="41.81384" lon="2.12475">
        <ele>713.2</ele>
        <time>2022-05-21 00:57:09</time>
      </trkpt>
      <trkpt lat="41.81385" lon="2.12481">
        <ele>713.4</ele>
        <time>2022-05-21 00:57:10</time>
      </trkpt>
      <trkpt lat="41.81385" lon="2.12486">
        <ele>713.6</ele>
        <time>2022-05-21 00:57:11</time>
      </trkpt>
      <trkpt lat="41.81385" lon="2.12491">
        <ele>713.6</ele>
        <time>2022-05-21 00:57:12</time>
      </trkpt>
      <trkpt lat="41.81385" lon="2.12496">
        <ele>713.8</ele>
        <time>2022-05-21 00:57:13</time>
      </trkpt>
      <trkpt lat="41.81386" lon="2.12502">
        <ele>713.8</ele>
        <time>2022-05-21 00:57:14</time>
      </trkpt>
      <trkpt lat="41.81386" lon="2.12507">
        <ele>714</ele>
        <time>2022-05-21 00:57:15</time>
      </trkpt>
      <trkpt lat="41.81386" lon="2.12512">
        <ele>714.2</ele>
        <time>2022-05-21 00:57:16</time>
      </trkpt>
      <trkpt lat="41.81386" lon="2.12517">
        <ele>714.4</ele>
        <time>2022-05-21 00:57:17</time>
      </trkpt>
      <trkpt lat="41.81386" lon="2.12522">
        <ele>714.4</ele>
        <time>2022-05-21 00:57:18</time>
      </trkpt>
      <trkpt lat="41.81387" lon="2.12528">
        <ele>714.6</ele>
        <time>2022-05-21 00:57:19</time>
      </trkpt>
      <trkpt lat="41.81387" lon="2.12533">
        <ele>714.8</ele>
        <time>2022-05-21 00:57:20</time>
      </trkpt>
      <trkpt lat="41.81387" lon="2.12538">
        <ele>714.8</ele>
        <time>2022-05-21 00:57:21</time>
      </trkpt>
      <trkpt lat="41.81387" lon="2.12543">
        <ele>715</ele>
        <time>2022-05-21 00:57:22</time>
      </trkpt>
      <trkpt lat="41.81388" lon="2.12548">
        <ele>715.2</ele>
        <time>2022-05-21 00:57:23</time>
      </trkpt>
      <trkpt lat="41.81388" lon="2.12553">
        <ele>715.2</ele>
        <time>2022-05-21 00:57:24</time>
      </trkpt>
      <trkpt lat="41.81388" lon="2.12558">
        <ele>715.4</ele>
        <time>2022-05-21 00:57:25</time>
      </trkpt>
      <trkpt lat="41.81388" lon="2.12563">
        <ele>715.6</ele>
        <time>2022-05-21 00:57:26</time>
      </trkpt>
      <trkpt lat="41.81389" lon="2.12568">
        <ele>715.6</ele>
        <time>2022-05-21 00:57:27</time>
      </trkpt>
      <trkpt lat="41.81389" lon="2.12573">
        <ele>715.8</ele>
        <time>2022-05-21 00:57:28</time>
      </trkpt>
      <trkpt lat="41.81389" lon="2.12578">
        <ele>715.8</ele>
        <time>2022-05-21 00:57:29</time>
      </trkpt>
      <trkpt lat="41.8139" lon="2.12583">
        <ele>716</ele>
        <time>2022-05-21 00:57:30</time>
      </trkpt>
      <trkpt lat="41.8139" lon="2.12588">
        <ele>716.2</ele>
        <time>2022-05-21 00:57:31</time>
      </trkpt>
      <trkpt lat="41.8139" lon="2.12593">
        <ele>716.2</ele>
        <time>2022-05-21 00:57:32</time>
      </trkpt>
      <trkpt lat="41.8139" lon="2.12598">
        <ele>716.4</ele>
        <time>2022-05-21 00:57:33</time>
      </trkpt>
      <trkpt lat="41.8139" lon="2.12603">
        <ele>716.6</ele>
        <time>2022-05-21 00:57:34</time>
      </trkpt>
      <trkpt lat="41.81391" lon="2.12608">
        <ele>716.8</ele>
        <time>2022-05-21 00:57:35</time>
      </trkpt>
      <trkpt lat="41.81391" lon="2.12613">
        <ele>716.8</ele>
        <time>2022-05-21 00:57:36</time>
      </trkpt>
      <trkpt lat="41.81391" lon="2.12618">
        <ele>717</ele>
        <time>2022-05-21 00:57:37</time>
      </trkpt>
      <trkpt lat="41.81392" lon="2.12623">
        <ele>717.2</ele>
        <time>2022-05-21 00:57:38</time>
      </trkpt>
      <trkpt lat="41.81392" lon="2.12627">
        <ele>717.4</ele>
        <time>2022-05-21 00:57:39</time>
      </trkpt>
      <trkpt lat="41.81392" lon="2.12632">
        <ele>717.4</ele>
        <time>2022-05-21 00:57:40</time>
      </trkpt>
      <trkpt lat="41.81392" lon="2.12637">
        <ele>717.6</ele>
        <time>2022-05-21 00:57:41</time>
      </trkpt>
      <trkpt lat="41.81393" lon="2.12642">
        <ele>717.8</ele>
        <time>2022-05-21 00:57:42</time>
      </trkpt>
      <trkpt lat="41.81393" lon="2.12646">
        <ele>718</ele>
        <time>2022-05-21 00:57:43</time>
      </trkpt>
      <trkpt lat="41.81393" lon="2.12651">
        <ele>718.2</ele>
        <time>2022-05-21 00:57:44</time>
      </trkpt>
      <trkpt lat="41.81393" lon="2.12656">
        <ele>718.4</ele>
        <time>2022-05-21 00:57:45</time>
      </trkpt>
      <trkpt lat="41.81393" lon="2.1266">
        <ele>718.4</ele>
        <time>2022-05-21 00:57:46</time>
      </trkpt>
      <trkpt lat="41.81394" lon="2.12664">
        <ele>718.6</ele>
        <time>2022-05-21 00:57:47</time>
      </trkpt>
      <trkpt lat="41.81394" lon="2.12669">
        <ele>718.8</ele>
        <time>2022-05-21 00:57:48</time>
      </trkpt>
      <trkpt lat="41.81394" lon="2.12674">
        <ele>719</ele>
        <time>2022-05-21 00:57:49</time>
      </trkpt>
      <trkpt lat="41.81395" lon="2.12678">
        <ele>719.2</ele>
        <time>2022-05-21 00:57:50</time>
      </trkpt>
      <trkpt lat="41.81395" lon="2.12683">
        <ele>719.2</ele>
        <time>2022-05-21 00:57:51</time>
      </trkpt>
      <trkpt lat="41.81395" lon="2.12688">
        <ele>719.4</ele>
        <time>2022-05-21 00:57:52</time>
      </trkpt>
      <trkpt lat="41.81395" lon="2.12693">
        <ele>719.6</ele>
        <time>2022-05-21 00:57:53</time>
      </trkpt>
      <trkpt lat="41.81395" lon="2.12697">
        <ele>719.8</ele>
        <time>2022-05-21 00:57:54</time>
      </trkpt>
      <trkpt lat="41.81396" lon="2.12701">
        <ele>720</ele>
        <time>2022-05-21 00:57:55</time>
      </trkpt>
      <trkpt lat="41.81396" lon="2.12706">
        <ele>720.2</ele>
        <time>2022-05-21 00:57:56</time>
      </trkpt>
      <trkpt lat="41.81396" lon="2.1271">
        <ele>720.4</ele>
        <time>2022-05-21 00:57:57</time>
      </trkpt>
      <trkpt lat="41.81397" lon="2.12715">
        <ele>720.6</ele>
        <time>2022-05-21 00:57:58</time>
      </trkpt>
      <trkpt lat="41.81398" lon="2.1272">
        <ele>720.8</ele>
        <time>2022-05-21 00:57:59</time>
      </trkpt>
      <trkpt lat="41.81398" lon="2.12724">
        <ele>720.8</ele>
        <time>2022-05-21 00:58:00</time>
      </trkpt>
      <trkpt lat="41.81398" lon="2.12729">
        <ele>721</ele>
        <time>2022-05-21 00:58:01</time>
      </trkpt>
      <trkpt lat="41.81398" lon="2.12734">
        <ele>721.2</ele>
        <time>2022-05-21 00:58:02</time>
      </trkpt>
      <trkpt lat="41.81398" lon="2.12738">
        <ele>721.4</ele>
        <time>2022-05-21 00:58:03</time>
      </trkpt>
      <trkpt lat="41.81398" lon="2.12742">
        <ele>721.4</ele>
        <time>2022-05-21 00:58:04</time>
      </trkpt>
      <trkpt lat="41.81398" lon="2.12746">
        <ele>721.6</ele>
        <time>2022-05-21 00:58:05</time>
      </trkpt>
      <trkpt lat="41.81398" lon="2.12751">
        <ele>721.8</ele>
        <time>2022-05-21 00:58:06</time>
      </trkpt>
      <trkpt lat="41.81398" lon="2.12756">
        <ele>722</ele>
        <time>2022-05-21 00:58:07</time>
      </trkpt>
      <trkpt lat="41.81399" lon="2.1276">
        <ele>722.2</ele>
        <time>2022-05-21 00:58:08</time>
      </trkpt>
      <trkpt lat="41.81399" lon="2.12765">
        <ele>722.4</ele>
        <time>2022-05-21 00:58:09</time>
      </trkpt>
      <trkpt lat="41.81399" lon="2.12769">
        <ele>722.4</ele>
        <time>2022-05-21 00:58:10</time>
      </trkpt>
      <trkpt lat="41.81399" lon="2.12773">
        <ele>722.6</ele>
        <time>2022-05-21 00:58:11</time>
      </trkpt>
      <trkpt lat="41.814" lon="2.12777">
        <ele>722.8</ele>
        <time>2022-05-21 00:58:12</time>
      </trkpt>
      <trkpt lat="41.814" lon="2.12781">
        <ele>723</ele>
        <time>2022-05-21 00:58:13</time>
      </trkpt>
      <trkpt lat="41.814" lon="2.12786">
        <ele>723.2</ele>
        <time>2022-05-21 00:58:14</time>
      </trkpt>
      <trkpt lat="41.81401" lon="2.1279">
        <ele>723.4</ele>
        <time>2022-05-21 00:58:15</time>
      </trkpt>
      <trkpt lat="41.81401" lon="2.12794">
        <ele>723.6</ele>
        <time>2022-05-21 00:58:16</time>
      </trkpt>
      <trkpt lat="41.81401" lon="2.12798">
        <ele>723.6</ele>
        <time>2022-05-21 00:58:17</time>
      </trkpt>
      <trkpt lat="41.81401" lon="2.12802">
        <ele>723.8</ele>
        <time>2022-05-21 00:58:18</time>
      </trkpt>
      <trkpt lat="41.81402" lon="2.12807">
        <ele>724</ele>
        <time>2022-05-21 00:58:19</time>
      </trkpt>
      <trkpt lat="41.81403" lon="2.12811">
        <ele>724.2</ele>
        <time>2022-05-21 00:58:20</time>
      </trkpt>
      <trkpt lat="41.81403" lon="2.12815">
        <ele>724.4</ele>
        <time>2022-05-21 00:58:21</time>
      </trkpt>
      <trkpt lat="41.81403" lon="2.1282">
        <ele>724.6</ele>
        <time>2022-05-21 00:58:22</time>
      </trkpt>
      <trkpt lat="41.81403" lon="2.12824">
        <ele>724.6</ele>
        <time>2022-05-21 00:58:23</time>
      </trkpt>
      <trkpt lat="41.81403" lon="2.12828">
        <ele>724.8</ele>
        <time>2022-05-21 00:58:24</time>
      </trkpt>
      <trkpt lat="41.81403" lon="2.12833">
        <ele>725</ele>
        <time>2022-05-21 00:58:25</time>
      </trkpt>
      <trkpt lat="41.81403" lon="2.12837">
        <ele>725.2</ele>
        <time>2022-05-21 00:58:26</time>
      </trkpt>
      <trkpt lat="41.81404" lon="2.12842">
        <ele>725.2</ele>
        <time>2022-05-21 00:58:27</time>
      </trkpt>
      <trkpt lat="41.81404" lon="2.12846">
        <ele>725.4</ele>
        <time>2022-05-21 00:58:28</time>
      </trkpt>
      <trkpt lat="41.81404" lon="2.1285">
        <ele>725.6</ele>
        <time>2022-05-21 00:58:29</time>
      </trkpt>
      <trkpt lat="41.81404" lon="2.12854">
        <ele>725.8</ele>
        <time>2022-05-21 00:58:30</time>
      </trkpt>
      <trkpt lat="41.81404" lon="2.12859">
        <ele>726</ele>
        <time>2022-05-21 00:58:31</time>
      </trkpt>
      <trkpt lat="41.81404" lon="2.12863">
        <ele>726.2</ele>
        <time>2022-05-21 00:58:32</time>
      </trkpt>
      <trkpt lat="41.81405" lon="2.12868">
        <ele>726.2</ele>
        <time>2022-05-21 00:58:33</time>
      </trkpt>
      <trkpt lat="41.81405" lon="2.12872">
        <ele>726.4</ele>
        <time>2022-05-21 00:58:34</time>
      </trkpt>
      <trkpt lat="41.81405" lon="2.12877">
        <ele>726.6</ele>
        <time>2022-05-21 00:58:35</time>
      </trkpt>
      <trkpt lat="41.81405" lon="2.12881">
        <ele>726.8</ele>
        <time>2022-05-21 00:58:36</time>
      </trkpt>
      <trkpt lat="41.81406" lon="2.12886">
        <ele>726.8</ele>
        <time>2022-05-21 00:58:37</time>
      </trkpt>
      <trkpt lat="41.81406" lon="2.1289">
        <ele>727</ele>
        <time>2022-05-21 00:58:38</time>
      </trkpt>
      <trkpt lat="41.81406" lon="2.12894">
        <ele>727.2</ele>
        <time>2022-05-21 00:58:39</time>
      </trkpt>
      <trkpt lat="41.81407" lon="2.12899">
        <ele>727.4</ele>
        <time>2022-05-21 00:58:40</time>
      </trkpt>
      <trkpt lat="41.81407" lon="2.12903">
        <ele>727.6</ele>
        <time>2022-05-21 00:58:41</time>
      </trkpt>
      <trkpt lat="41.81408" lon="2.12907">
        <ele>727.8</ele>
        <time>2022-05-21 00:58:42</time>
      </trkpt>
      <trkpt lat="41.81408" lon="2.12911">
        <ele>728</ele>
        <time>2022-05-21 00:58:43</time>
      </trkpt>
      <trkpt lat="41.81408" lon="2.12915">
        <ele>728.2</ele>
        <time>2022-05-21 00:58:44</time>
      </trkpt>
      <trkpt lat="41.81408" lon="2.1292">
        <ele>728.4</ele>
        <time>2022-05-21 00:58:45</time>
      </trkpt>
      <trkpt lat="41.81409" lon="2.12924">
        <ele>728.6</ele>
        <time>2022-05-21 00:58:46</time>
      </trkpt>
      <trkpt lat="41.81409" lon="2.12929">
        <ele>728.8</ele>
        <time>2022-05-21 00:58:47</time>
      </trkpt>
      <trkpt lat="41.81409" lon="2.12933">
        <ele>728.8</ele>
        <time>2022-05-21 00:58:48</time>
      </trkpt>
      <trkpt lat="41.8141" lon="2.12937">
        <ele>729</ele>
        <time>2022-05-21 00:58:49</time>
      </trkpt>
      <trkpt lat="41.81411" lon="2.12942">
        <ele>729.2</ele>
        <time>2022-05-21 00:58:50</time>
      </trkpt>
      <trkpt lat="41.81412" lon="2.12946">
        <ele>729.4</ele>
        <time>2022-05-21 00:58:51</time>
      </trkpt>
      <trkpt lat="41.81413" lon="2.1295">
        <ele>729.6</ele>
        <time>2022-05-21 00:58:52</time>
      </trkpt>
      <trkpt lat="41.81413" lon="2.12955">
        <ele>729.8</ele>
        <time>2022-05-21 00:58:53</time>
      </trkpt>
      <trkpt lat="41.81414" lon="2.1296">
        <ele>730</ele>
        <time>2022-05-21 00:58:54</time>
      </trkpt>
      <trkpt lat="41.81414" lon="2.12964">
        <ele>730.2</ele>
        <time>2022-05-21 00:58:55</time>
      </trkpt>
      <trkpt lat="41.81414" lon="2.12969">
        <ele>730.4</ele>
        <time>2022-05-21 00:58:56</time>
      </trkpt>
      <trkpt lat="41.81415" lon="2.12973">
        <ele>730.6</ele>
        <time>2022-05-21 00:58:57</time>
      </trkpt>
      <trkpt lat="41.81416" lon="2.12978">
        <ele>730.6</ele>
        <time>2022-05-21 00:58:58</time>
      </trkpt>
      <trkpt lat="41.81417" lon="2.12982">
        <ele>730.8</ele>
        <time>2022-05-21 00:58:59</time>
      </trkpt>
      <trkpt lat="41.81417" lon="2.12987">
        <ele>731</ele>
        <time>2022-05-21 00:59:00</time>
      </trkpt>
      <trkpt lat="41.81418" lon="2.12992">
        <ele>731.2</ele>
        <time>2022-05-21 00:59:01</time>
      </trkpt>
      <trkpt lat="41.81419" lon="2.12996">
        <ele>731.4</ele>
        <time>2022-05-21 00:59:02</time>
      </trkpt>
      <trkpt lat="41.8142" lon="2.13001">
        <ele>731.4</ele>
        <time>2022-05-21 00:59:03</time>
      </trkpt>
      <trkpt lat="41.81421" lon="2.13005">
        <ele>731.6</ele>
        <time>2022-05-21 00:59:04</time>
      </trkpt>
      <trkpt lat="41.81422" lon="2.1301">
        <ele>731.8</ele>
        <time>2022-05-21 00:59:05</time>
      </trkpt>
      <trkpt lat="41.81422" lon="2.13014">
        <ele>732</ele>
        <time>2022-05-21 00:59:06</time>
      </trkpt>
      <trkpt lat="41.81423" lon="2.13019">
        <ele>732.2</ele>
        <time>2022-05-21 00:59:07</time>
      </trkpt>
      <trkpt lat="41.81424" lon="2.13023">
        <ele>732.4</ele>
        <time>2022-05-21 00:59:08</time>
      </trkpt>
      <trkpt lat="41.81425" lon="2.13028">
        <ele>732.4</ele>
        <time>2022-05-21 00:59:09</time>
      </trkpt>
      <trkpt lat="41.81426" lon="2.13032">
        <ele>732.6</ele>
        <time>2022-05-21 00:59:10</time>
      </trkpt>
      <trkpt lat="41.81427" lon="2.13037">
        <ele>732.8</ele>
        <time>2022-05-21 00:59:11</time>
      </trkpt>
      <trkpt lat="41.81427" lon="2.13041">
        <ele>732.8</ele>
        <time>2022-05-21 00:59:12</time>
      </trkpt>
      <trkpt lat="41.81429" lon="2.13045">
        <ele>733</ele>
        <time>2022-05-21 00:59:13</time>
      </trkpt>
      <trkpt lat="41.8143" lon="2.1305">
        <ele>733.2</ele>
        <time>2022-05-21 00:59:14</time>
      </trkpt>
      <trkpt lat="41.81431" lon="2.13054">
        <ele>733.4</ele>
        <time>2022-05-21 00:59:15</time>
      </trkpt>
      <trkpt lat="41.81431" lon="2.13059">
        <ele>733.4</ele>
        <time>2022-05-21 00:59:16</time>
      </trkpt>
      <trkpt lat="41.81432" lon="2.13063">
        <ele>733.6</ele>
        <time>2022-05-21 00:59:17</time>
      </trkpt>
      <trkpt lat="41.81433" lon="2.13068">
        <ele>733.8</ele>
        <time>2022-05-21 00:59:18</time>
      </trkpt>
      <trkpt lat="41.81434" lon="2.13072">
        <ele>733.8</ele>
        <time>2022-05-21 00:59:19</time>
      </trkpt>
      <trkpt lat="41.81435" lon="2.13076">
        <ele>734</ele>
        <time>2022-05-21 00:59:20</time>
      </trkpt>
      <trkpt lat="41.81437" lon="2.13081">
        <ele>734</ele>
        <time>2022-05-21 00:59:21</time>
      </trkpt>
      <trkpt lat="41.81437" lon="2.13086">
        <ele>734.2</ele>
        <time>2022-05-21 00:59:22</time>
      </trkpt>
      <trkpt lat="41.81438" lon="2.1309">
        <ele>734.4</ele>
        <time>2022-05-21 00:59:23</time>
      </trkpt>
      <trkpt lat="41.81439" lon="2.13094">
        <ele>734.6</ele>
        <time>2022-05-21 00:59:24</time>
      </trkpt>
      <trkpt lat="41.8144" lon="2.13099">
        <ele>734.6</ele>
        <time>2022-05-21 00:59:25</time>
      </trkpt>
      <trkpt lat="41.81441" lon="2.13103">
        <ele>734.8</ele>
        <time>2022-05-21 00:59:26</time>
      </trkpt>
      <trkpt lat="41.81441" lon="2.13107">
        <ele>735</ele>
        <time>2022-05-21 00:59:27</time>
      </trkpt>
      <trkpt lat="41.81442" lon="2.13111">
        <ele>735.2</ele>
        <time>2022-05-21 00:59:28</time>
      </trkpt>
      <trkpt lat="41.81443" lon="2.13115">
        <ele>735.4</ele>
        <time>2022-05-21 00:59:29</time>
      </trkpt>
      <trkpt lat="41.81444" lon="2.13119">
        <ele>735.6</ele>
        <time>2022-05-21 00:59:30</time>
      </trkpt>
      <trkpt lat="41.81445" lon="2.13124">
        <ele>735.6</ele>
        <time>2022-05-21 00:59:31</time>
      </trkpt>
      <trkpt lat="41.81446" lon="2.13128">
        <ele>735.8</ele>
        <time>2022-05-21 00:59:32</time>
      </trkpt>
      <trkpt lat="41.81447" lon="2.13132">
        <ele>736</ele>
        <time>2022-05-21 00:59:33</time>
      </trkpt>
      <trkpt lat="41.81448" lon="2.13137">
        <ele>736.2</ele>
        <time>2022-05-21 00:59:34</time>
      </trkpt>
      <trkpt lat="41.81448" lon="2.13141">
        <ele>736.4</ele>
        <time>2022-05-21 00:59:35</time>
      </trkpt>
      <trkpt lat="41.81449" lon="2.13146">
        <ele>736.6</ele>
        <time>2022-05-21 00:59:36</time>
      </trkpt>
      <trkpt lat="41.8145" lon="2.1315">
        <ele>736.8</ele>
        <time>2022-05-21 00:59:37</time>
      </trkpt>
      <trkpt lat="41.81451" lon="2.13154">
        <ele>737</ele>
        <time>2022-05-21 00:59:38</time>
      </trkpt>
      <trkpt lat="41.81451" lon="2.13159">
        <ele>737.2</ele>
        <time>2022-05-21 00:59:39</time>
      </trkpt>
      <trkpt lat="41.81452" lon="2.13163">
        <ele>737.2</ele>
        <time>2022-05-21 00:59:40</time>
      </trkpt>
      <trkpt lat="41.81453" lon="2.13167">
        <ele>737.4</ele>
        <time>2022-05-21 00:59:41</time>
      </trkpt>
      <trkpt lat="41.81454" lon="2.13172">
        <ele>737.6</ele>
        <time>2022-05-21 00:59:42</time>
      </trkpt>
      <trkpt lat="41.81455" lon="2.13176">
        <ele>737.6</ele>
        <time>2022-05-21 00:59:43</time>
      </trkpt>
      <trkpt lat="41.81456" lon="2.13181">
        <ele>737.8</ele>
        <time>2022-05-21 00:59:44</time>
      </trkpt>
      <trkpt lat="41.81456" lon="2.13185">
        <ele>738</ele>
        <time>2022-05-21 00:59:45</time>
      </trkpt>
      <trkpt lat="41.81458" lon="2.1319">
        <ele>738.2</ele>
        <time>2022-05-21 00:59:46</time>
      </trkpt>
      <trkpt lat="41.81458" lon="2.13194">
        <ele>738.2</ele>
        <time>2022-05-21 00:59:47</time>
      </trkpt>
      <trkpt lat="41.81459" lon="2.13198">
        <ele>738.4</ele>
        <time>2022-05-21 00:59:48</time>
      </trkpt>
      <trkpt lat="41.8146" lon="2.13202">
        <ele>738.4</ele>
        <time>2022-05-21 00:59:49</time>
      </trkpt>
      <trkpt lat="41.81461" lon="2.13207">
        <ele>738.6</ele>
        <time>2022-05-21 00:59:50</time>
      </trkpt>
      <trkpt lat="41.81462" lon="2.13211">
        <ele>738.6</ele>
        <time>2022-05-21 00:59:51</time>
      </trkpt>
      <trkpt lat="41.81463" lon="2.13216">
        <ele>738.8</ele>
        <time>2022-05-21 00:59:52</time>
      </trkpt>
      <trkpt lat="41.81464" lon="2.1322">
        <ele>739</ele>
        <time>2022-05-21 00:59:53</time>
      </trkpt>
      <trkpt lat="41.81464" lon="2.13224">
        <ele>739</ele>
        <time>2022-05-21 00:59:54</time>
      </trkpt>
      <trkpt lat="41.81465" lon="2.13228">
        <ele>739.2</ele>
        <time>2022-05-21 00:59:55</time>
      </trkpt>
      <trkpt lat="41.81466" lon="2.13232">
        <ele>739.4</ele>
        <time>2022-05-21 00:59:56</time>
      </trkpt>
      <trkpt lat="41.81467" lon="2.13236">
        <ele>739.6</ele>
        <time>2022-05-21 00:59:57</time>
      </trkpt>
      <trkpt lat="41.81468" lon="2.13241">
        <ele>739.6</ele>
        <time>2022-05-21 00:59:58</time>
      </trkpt>
      <trkpt lat="41.81469" lon="2.13245">
        <ele>739.8</ele>
        <time>2022-05-21 00:59:59</time>
      </trkpt>
      <trkpt lat="41.8147" lon="2.1325">
        <ele>740</ele>
        <time>2022-05-21 01:00:00</time>
      </trkpt>
      <trkpt lat="41.8147" lon="2.13254">
        <ele>740.2</ele>
        <time>2022-05-21 01:00:01</time>
      </trkpt>
      <trkpt lat="41.81471" lon="2.13258">
        <ele>740.4</ele>
        <time>2022-05-21 01:00:02</time>
      </trkpt>
      <trkpt lat="41.81472" lon="2.13263">
        <ele>740.6</ele>
        <time>2022-05-21 01:00:03</time>
      </trkpt>
      <trkpt lat="41.81474" lon="2.13267">
        <ele>740.6</ele>
        <time>2022-05-21 01:00:04</time>
      </trkpt>
      <trkpt lat="41.81475" lon="2.13271">
        <ele>740.8</ele>
        <time>2022-05-21 01:00:05</time>
      </trkpt>
      <trkpt lat="41.81475" lon="2.13276">
        <ele>741</ele>
        <time>2022-05-21 01:00:06</time>
      </trkpt>
      <trkpt lat="41.81476" lon="2.1328">
        <ele>741.2</ele>
        <time>2022-05-21 01:00:07</time>
      </trkpt>
      <trkpt lat="41.81477" lon="2.13284">
        <ele>741.2</ele>
        <time>2022-05-21 01:00:08</time>
      </trkpt>
      <trkpt lat="41.81477" lon="2.13289">
        <ele>741.4</ele>
        <time>2022-05-21 01:00:09</time>
      </trkpt>
      <trkpt lat="41.81478" lon="2.13293">
        <ele>741.6</ele>
        <time>2022-05-21 01:00:10</time>
      </trkpt>
      <trkpt lat="41.81479" lon="2.13297">
        <ele>741.6</ele>
        <time>2022-05-21 01:00:11</time>
      </trkpt>
      <trkpt lat="41.8148" lon="2.13302">
        <ele>741.8</ele>
        <time>2022-05-21 01:00:12</time>
      </trkpt>
      <trkpt lat="41.81481" lon="2.13307">
        <ele>742</ele>
        <time>2022-05-21 01:00:13</time>
      </trkpt>
      <trkpt lat="41.81482" lon="2.13311">
        <ele>742</ele>
        <time>2022-05-21 01:00:14</time>
      </trkpt>
      <trkpt lat="41.81483" lon="2.13315">
        <ele>742.2</ele>
        <time>2022-05-21 01:00:15</time>
      </trkpt>
      <trkpt lat="41.81484" lon="2.1332">
        <ele>742.2</ele>
        <time>2022-05-21 01:00:16</time>
      </trkpt>
      <trkpt lat="41.81485" lon="2.13325">
        <ele>742.4</ele>
        <time>2022-05-21 01:00:17</time>
      </trkpt>
      <trkpt lat="41.81485" lon="2.13329">
        <ele>742.4</ele>
        <time>2022-05-21 01:00:18</time>
      </trkpt>
      <trkpt lat="41.81486" lon="2.13334">
        <ele>742.6</ele>
        <time>2022-05-21 01:00:19</time>
      </trkpt>
      <trkpt lat="41.81487" lon="2.13338">
        <ele>742.8</ele>
        <time>2022-05-21 01:00:20</time>
      </trkpt>
      <trkpt lat="41.81488" lon="2.13342">
        <ele>742.8</ele>
        <time>2022-05-21 01:00:21</time>
      </trkpt>
      <trkpt lat="41.81489" lon="2.13347">
        <ele>743</ele>
        <time>2022-05-21 01:00:22</time>
      </trkpt>
      <trkpt lat="41.8149" lon="2.13351">
        <ele>743</ele>
        <time>2022-05-21 01:00:23</time>
      </trkpt>
      <trkpt lat="41.81491" lon="2.13356">
        <ele>743.2</ele>
        <time>2022-05-21 01:00:24</time>
      </trkpt>
      <trkpt lat="41.81492" lon="2.1336">
        <ele>743.4</ele>
        <time>2022-05-21 01:00:25</time>
      </trkpt>
      <trkpt lat="41.81493" lon="2.13365">
        <ele>743.4</ele>
        <time>2022-05-21 01:00:26</time>
      </trkpt>
      <trkpt lat="41.81493" lon="2.13369">
        <ele>743.6</ele>
        <time>2022-05-21 01:00:27</time>
      </trkpt>
      <trkpt lat="41.81494" lon="2.13373">
        <ele>743.8</ele>
        <time>2022-05-21 01:00:28</time>
      </trkpt>
      <trkpt lat="41.81495" lon="2.13378">
        <ele>744</ele>
        <time>2022-05-21 01:00:29</time>
      </trkpt>
      <trkpt lat="41.81496" lon="2.13382">
        <ele>744</ele>
        <time>2022-05-21 01:00:30</time>
      </trkpt>
      <trkpt lat="41.81497" lon="2.13387">
        <ele>744.2</ele>
        <time>2022-05-21 01:00:31</time>
      </trkpt>
      <trkpt lat="41.81498" lon="2.13391">
        <ele>744.4</ele>
        <time>2022-05-21 01:00:32</time>
      </trkpt>
      <trkpt lat="41.81499" lon="2.13395">
        <ele>744.6</ele>
        <time>2022-05-21 01:00:33</time>
      </trkpt>
      <trkpt lat="41.81499" lon="2.134">
        <ele>744.8</ele>
        <time>2022-05-21 01:00:34</time>
      </trkpt>
      <trkpt lat="41.81501" lon="2.13404">
        <ele>745</ele>
        <time>2022-05-21 01:00:35</time>
      </trkpt>
      <trkpt lat="41.81502" lon="2.13408">
        <ele>745.2</ele>
        <time>2022-05-21 01:00:36</time>
      </trkpt>
      <trkpt lat="41.81503" lon="2.13412">
        <ele>745.4</ele>
        <time>2022-05-21 01:00:37</time>
      </trkpt>
      <trkpt lat="41.81504" lon="2.13417">
        <ele>745.4</ele>
        <time>2022-05-21 01:00:38</time>
      </trkpt>
      <trkpt lat="41.81504" lon="2.13421">
        <ele>745.6</ele>
        <time>2022-05-21 01:00:39</time>
      </trkpt>
      <trkpt lat="41.81505" lon="2.13425">
        <ele>745.8</ele>
        <time>2022-05-21 01:00:40</time>
      </trkpt>
      <trkpt lat="41.81506" lon="2.1343">
        <ele>746</ele>
        <time>2022-05-21 01:00:41</time>
      </trkpt>
      <trkpt lat="41.81506" lon="2.13434">
        <ele>746.2</ele>
        <time>2022-05-21 01:00:42</time>
      </trkpt>
      <trkpt lat="41.81507" lon="2.13438">
        <ele>746.4</ele>
        <time>2022-05-21 01:00:43</time>
      </trkpt>
      <trkpt lat="41.81508" lon="2.13442">
        <ele>746.6</ele>
        <time>2022-05-21 01:00:44</time>
      </trkpt>
      <trkpt lat="41.81509" lon="2.13445">
        <ele>746.8</ele>
        <time>2022-05-21 01:00:45</time>
      </trkpt>
      <trkpt lat="41.8151" lon="2.13449">
        <ele>746.8</ele>
        <time>2022-05-21 01:00:46</time>
      </trkpt>
      <trkpt lat="41.81511" lon="2.13453">
        <ele>747</ele>
        <time>2022-05-21 01:00:47</time>
      </trkpt>
      <trkpt lat="41.81512" lon="2.13457">
        <ele>747.2</ele>
        <time>2022-05-21 01:00:48</time>
      </trkpt>
      <trkpt lat="41.81512" lon="2.13461">
        <ele>747.4</ele>
        <time>2022-05-21 01:00:49</time>
      </trkpt>
      <trkpt lat="41.81513" lon="2.13465">
        <ele>747.6</ele>
        <time>2022-05-21 01:00:50</time>
      </trkpt>
      <trkpt lat="41.81514" lon="2.13469">
        <ele>747.8</ele>
        <time>2022-05-21 01:00:51</time>
      </trkpt>
      <trkpt lat="41.81514" lon="2.13473">
        <ele>748</ele>
        <time>2022-05-21 01:00:52</time>
      </trkpt>
      <trkpt lat="41.81515" lon="2.13477">
        <ele>748.2</ele>
        <time>2022-05-21 01:00:53</time>
      </trkpt>
      <trkpt lat="41.81516" lon="2.13481">
        <ele>748.4</ele>
        <time>2022-05-21 01:00:54</time>
      </trkpt>
      <trkpt lat="41.81517" lon="2.13484">
        <ele>748.6</ele>
        <time>2022-05-21 01:00:55</time>
      </trkpt>
      <trkpt lat="41.81517" lon="2.13488">
        <ele>748.6</ele>
        <time>2022-05-21 01:00:56</time>
      </trkpt>
      <trkpt lat="41.81518" lon="2.13492">
        <ele>748.8</ele>
        <time>2022-05-21 01:00:57</time>
      </trkpt>
      <trkpt lat="41.81519" lon="2.13496">
        <ele>749</ele>
        <time>2022-05-21 01:00:58</time>
      </trkpt>
      <trkpt lat="41.8152" lon="2.13499">
        <ele>749.2</ele>
        <time>2022-05-21 01:00:59</time>
      </trkpt>
      <trkpt lat="41.8152" lon="2.13503">
        <ele>749.4</ele>
        <time>2022-05-21 01:01:00</time>
      </trkpt>
      <trkpt lat="41.81522" lon="2.13507">
        <ele>749.6</ele>
        <time>2022-05-21 01:01:01</time>
      </trkpt>
      <trkpt lat="41.81523" lon="2.13511">
        <ele>749.8</ele>
        <time>2022-05-21 01:01:02</time>
      </trkpt>
      <trkpt lat="41.81524" lon="2.13515">
        <ele>750</ele>
        <time>2022-05-21 01:01:03</time>
      </trkpt>
      <trkpt lat="41.81525" lon="2.13519">
        <ele>750.2</ele>
        <time>2022-05-21 01:01:04</time>
      </trkpt>
      <trkpt lat="41.81525" lon="2.13523">
        <ele>750.4</ele>
        <time>2022-05-21 01:01:05</time>
      </trkpt>
      <trkpt lat="41.81525" lon="2.13527">
        <ele>750.6</ele>
        <time>2022-05-21 01:01:06</time>
      </trkpt>
      <trkpt lat="41.81526" lon="2.13531">
        <ele>750.6</ele>
        <time>2022-05-21 01:01:07</time>
      </trkpt>
      <trkpt lat="41.81527" lon="2.13534">
        <ele>750.8</ele>
        <time>2022-05-21 01:01:08</time>
      </trkpt>
      <trkpt lat="41.81527" lon="2.13538">
        <ele>751</ele>
        <time>2022-05-21 01:01:09</time>
      </trkpt>
      <trkpt lat="41.81528" lon="2.13542">
        <ele>751.2</ele>
        <time>2022-05-21 01:01:10</time>
      </trkpt>
      <trkpt lat="41.81528" lon="2.13546">
        <ele>751.4</ele>
        <time>2022-05-21 01:01:11</time>
      </trkpt>
      <trkpt lat="41.81529" lon="2.13549">
        <ele>751.4</ele>
        <time>2022-05-21 01:01:12</time>
      </trkpt>
      <trkpt lat="41.8153" lon="2.13553">
        <ele>751.6</ele>
        <time>2022-05-21 01:01:13</time>
      </trkpt>
      <trkpt lat="41.8153" lon="2.13556">
        <ele>751.8</ele>
        <time>2022-05-21 01:01:14</time>
      </trkpt>
      <trkpt lat="41.81531" lon="2.1356">
        <ele>752</ele>
        <time>2022-05-21 01:01:15</time>
      </trkpt>
      <trkpt lat="41.81532" lon="2.13563">
        <ele>752.2</ele>
        <time>2022-05-21 01:01:16</time>
      </trkpt>
      <trkpt lat="41.81532" lon="2.13567">
        <ele>752.4</ele>
        <time>2022-05-21 01:01:17</time>
      </trkpt>
      <trkpt lat="41.81532" lon="2.13571">
        <ele>752.6</ele>
        <time>2022-05-21 01:01:18</time>
      </trkpt>
      <trkpt lat="41.81533" lon="2.13574">
        <ele>752.6</ele>
        <time>2022-05-21 01:01:19</time>
      </trkpt>
      <trkpt lat="41.81534" lon="2.13578">
        <ele>752.8</ele>
        <time>2022-05-21 01:01:20</time>
      </trkpt>
      <trkpt lat="41.81535" lon="2.13582">
        <ele>753</ele>
        <time>2022-05-21 01:01:21</time>
      </trkpt>
      <trkpt lat="41.81535" lon="2.13585">
        <ele>753.2</ele>
        <time>2022-05-21 01:01:22</time>
      </trkpt>
      <trkpt lat="41.81536" lon="2.13589">
        <ele>753.4</ele>
        <time>2022-05-21 01:01:23</time>
      </trkpt>
      <trkpt lat="41.81537" lon="2.13592">
        <ele>753.4</ele>
        <time>2022-05-21 01:01:24</time>
      </trkpt>
      <trkpt lat="41.81538" lon="2.13596">
        <ele>753.6</ele>
        <time>2022-05-21 01:01:25</time>
      </trkpt>
      <trkpt lat="41.81539" lon="2.136">
        <ele>753.8</ele>
        <time>2022-05-21 01:01:26</time>
      </trkpt>
      <trkpt lat="41.8154" lon="2.13603">
        <ele>754</ele>
        <time>2022-05-21 01:01:27</time>
      </trkpt>
      <trkpt lat="41.8154" lon="2.13605">
        <ele>754.2</ele>
        <time>2022-05-21 01:01:28</time>
      </trkpt>
      <trkpt lat="41.81541" lon="2.13609">
        <ele>754.4</ele>
        <time>2022-05-21 01:01:29</time>
      </trkpt>
      <trkpt lat="41.81541" lon="2.13612">
        <ele>754.6</ele>
        <time>2022-05-21 01:01:30</time>
      </trkpt>
      <trkpt lat="41.81542" lon="2.13616">
        <ele>754.8</ele>
        <time>2022-05-21 01:01:31</time>
      </trkpt>
      <trkpt lat="41.81543" lon="2.1362">
        <ele>754.8</ele>
        <time>2022-05-21 01:01:32</time>
      </trkpt>
      <trkpt lat="41.81544" lon="2.13623">
        <ele>755</ele>
        <time>2022-05-21 01:01:33</time>
      </trkpt>
      <trkpt lat="41.81545" lon="2.13626">
        <ele>755.2</ele>
        <time>2022-05-21 01:01:34</time>
      </trkpt>
      <trkpt lat="41.81546" lon="2.1363">
        <ele>755.4</ele>
        <time>2022-05-21 01:01:35</time>
      </trkpt>
      <trkpt lat="41.81548" lon="2.13633">
        <ele>755.6</ele>
        <time>2022-05-21 01:01:36</time>
      </trkpt>
      <trkpt lat="41.81549" lon="2.13637">
        <ele>755.8</ele>
        <time>2022-05-21 01:01:37</time>
      </trkpt>
      <trkpt lat="41.8155" lon="2.13641">
        <ele>756</ele>
        <time>2022-05-21 01:01:38</time>
      </trkpt>
      <trkpt lat="41.81551" lon="2.13645">
        <ele>756.2</ele>
        <time>2022-05-21 01:01:39</time>
      </trkpt>
      <trkpt lat="41.81553" lon="2.13649">
        <ele>756.4</ele>
        <time>2022-05-21 01:01:40</time>
      </trkpt>
      <trkpt lat="41.81554" lon="2.13653">
        <ele>756.6</ele>
        <time>2022-05-21 01:01:41</time>
      </trkpt>
      <trkpt lat="41.81555" lon="2.13656">
        <ele>756.8</ele>
        <time>2022-05-21 01:01:42</time>
      </trkpt>
      <trkpt lat="41.81556" lon="2.1366">
        <ele>756.8</ele>
        <time>2022-05-21 01:01:43</time>
      </trkpt>
      <trkpt lat="41.81557" lon="2.13664">
        <ele>757</ele>
        <time>2022-05-21 01:01:44</time>
      </trkpt>
      <trkpt lat="41.81559" lon="2.13667">
        <ele>757.2</ele>
        <time>2022-05-21 01:01:45</time>
      </trkpt>
      <trkpt lat="41.8156" lon="2.13671">
        <ele>757.2</ele>
        <time>2022-05-21 01:01:46</time>
      </trkpt>
      <trkpt lat="41.81562" lon="2.13675">
        <ele>757.4</ele>
        <time>2022-05-21 01:01:47</time>
      </trkpt>
      <trkpt lat="41.81563" lon="2.13679">
        <ele>757.6</ele>
        <time>2022-05-21 01:01:48</time>
      </trkpt>
      <trkpt lat="41.81565" lon="2.13683">
        <ele>757.8</ele>
        <time>2022-05-21 01:01:49</time>
      </trkpt>
      <trkpt lat="41.81566" lon="2.13687">
        <ele>757.8</ele>
        <time>2022-05-21 01:01:50</time>
      </trkpt>
      <trkpt lat="41.81568" lon="2.13691">
        <ele>758</ele>
        <time>2022-05-21 01:01:51</time>
      </trkpt>
      <trkpt lat="41.81569" lon="2.13695">
        <ele>758.2</ele>
        <time>2022-05-21 01:01:52</time>
      </trkpt>
      <trkpt lat="41.81571" lon="2.13699">
        <ele>758.4</ele>
        <time>2022-05-21 01:01:53</time>
      </trkpt>
      <trkpt lat="41.81572" lon="2.13702">
        <ele>758.6</ele>
        <time>2022-05-21 01:01:54</time>
      </trkpt>
      <trkpt lat="41.81574" lon="2.13706">
        <ele>758.6</ele>
        <time>2022-05-21 01:01:55</time>
      </trkpt>
      <trkpt lat="41.81576" lon="2.1371">
        <ele>758.8</ele>
        <time>2022-05-21 01:01:56</time>
      </trkpt>
      <trkpt lat="41.81578" lon="2.13714">
        <ele>759</ele>
        <time>2022-05-21 01:01:57</time>
      </trkpt>
      <trkpt lat="41.8158" lon="2.13717">
        <ele>759.2</ele>
        <time>2022-05-21 01:01:58</time>
      </trkpt>
      <trkpt lat="41.81581" lon="2.13721">
        <ele>759.2</ele>
        <time>2022-05-21 01:01:59</time>
      </trkpt>
      <trkpt lat="41.81583" lon="2.13724">
        <ele>759.4</ele>
        <time>2022-05-21 01:02:00</time>
      </trkpt>
      <trkpt lat="41.81585" lon="2.13728">
        <ele>759.6</ele>
        <time>2022-05-21 01:02:01</time>
      </trkpt>
      <trkpt lat="41.81587" lon="2.13731">
        <ele>759.6</ele>
        <time>2022-05-21 01:02:02</time>
      </trkpt>
      <trkpt lat="41.81589" lon="2.13735">
        <ele>759.8</ele>
        <time>2022-05-21 01:02:03</time>
      </trkpt>
      <trkpt lat="41.81591" lon="2.13738">
        <ele>760</ele>
        <time>2022-05-21 01:02:04</time>
      </trkpt>
      <trkpt lat="41.81593" lon="2.13741">
        <ele>760.2</ele>
        <time>2022-05-21 01:02:05</time>
      </trkpt>
      <trkpt lat="41.81595" lon="2.13745">
        <ele>760.2</ele>
        <time>2022-05-21 01:02:06</time>
      </trkpt>
      <trkpt lat="41.81597" lon="2.13748">
        <ele>760.4</ele>
        <time>2022-05-21 01:02:07</time>
      </trkpt>
      <trkpt lat="41.81599" lon="2.13752">
        <ele>760.6</ele>
        <time>2022-05-21 01:02:08</time>
      </trkpt>
      <trkpt lat="41.81601" lon="2.13755">
        <ele>760.8</ele>
        <time>2022-05-21 01:02:09</time>
      </trkpt>
      <trkpt lat="41.81602" lon="2.13759">
        <ele>761</ele>
        <time>2022-05-21 01:02:10</time>
      </trkpt>
      <trkpt lat="41.81604" lon="2.13762">
        <ele>761</ele>
        <time>2022-05-21 01:02:11</time>
      </trkpt>
      <trkpt lat="41.81606" lon="2.13766">
        <ele>761.2</ele>
        <time>2022-05-21 01:02:12</time>
      </trkpt>
      <trkpt lat="41.81607" lon="2.1377">
        <ele>761.2</ele>
        <time>2022-05-21 01:02:13</time>
      </trkpt>
      <trkpt lat="41.81609" lon="2.13774">
        <ele>761.4</ele>
        <time>2022-05-21 01:02:14</time>
      </trkpt>
      <trkpt lat="41.8161" lon="2.13778">
        <ele>761.4</ele>
        <time>2022-05-21 01:02:15</time>
      </trkpt>
      <trkpt lat="41.81612" lon="2.13783">
        <ele>761.6</ele>
        <time>2022-05-21 01:02:16</time>
      </trkpt>
      <trkpt lat="41.81613" lon="2.13787">
        <ele>761.6</ele>
        <time>2022-05-21 01:02:17</time>
      </trkpt>
      <trkpt lat="41.81614" lon="2.13792">
        <ele>761.8</ele>
        <time>2022-05-21 01:02:18</time>
      </trkpt>
      <trkpt lat="41.81615" lon="2.13797">
        <ele>761.8</ele>
        <time>2022-05-21 01:02:19</time>
      </trkpt>
      <trkpt lat="41.81615" lon="2.13802">
        <ele>761.8</ele>
        <time>2022-05-21 01:02:20</time>
      </trkpt>
      <trkpt lat="41.81615" lon="2.13807">
        <ele>762</ele>
        <time>2022-05-21 01:02:21</time>
      </trkpt>
      <trkpt lat="41.81616" lon="2.13813">
        <ele>762</ele>
        <time>2022-05-21 01:02:22</time>
      </trkpt>
      <trkpt lat="41.81616" lon="2.13818">
        <ele>762</ele>
        <time>2022-05-21 01:02:23</time>
      </trkpt>
      <trkpt lat="41.81616" lon="2.13823">
        <ele>762.2</ele>
        <time>2022-05-21 01:02:24</time>
      </trkpt>
      <trkpt lat="41.81615" lon="2.13829">
        <ele>762.2</ele>
        <time>2022-05-21 01:02:25</time>
      </trkpt>
      <trkpt lat="41.81615" lon="2.13835">
        <ele>762.2</ele>
        <time>2022-05-21 01:02:26</time>
      </trkpt>
      <trkpt lat="41.81614" lon="2.13841">
        <ele>762.2</ele>
        <time>2022-05-21 01:02:27</time>
      </trkpt>
      <trkpt lat="41.81613" lon="2.13847">
        <ele>762.2</ele>
        <time>2022-05-21 01:02:28</time>
      </trkpt>
      <trkpt lat="41.81612" lon="2.13853">
        <ele>762.2</ele>
        <time>2022-05-21 01:02:29</time>
      </trkpt>
      <trkpt lat="41.8161" lon="2.13859">
        <ele>762.2</ele>
        <time>2022-05-21 01:02:30</time>
      </trkpt>
      <trkpt lat="41.81609" lon="2.13865">
        <ele>762.2</ele>
        <time>2022-05-21 01:02:31</time>
      </trkpt>
      <trkpt lat="41.81607" lon="2.13871">
        <ele>762.2</ele>
        <time>2022-05-21 01:02:32</time>
      </trkpt>
      <trkpt lat="41.81605" lon="2.13877">
        <ele>762.4</ele>
        <time>2022-05-21 01:02:33</time>
      </trkpt>
      <trkpt lat="41.81603" lon="2.13883">
        <ele>762.4</ele>
        <time>2022-05-21 01:02:34</time>
      </trkpt>
      <trkpt lat="41.816" lon="2.13888">
        <ele>762.6</ele>
        <time>2022-05-21 01:02:35</time>
      </trkpt>
      <trkpt lat="41.81598" lon="2.13893">
        <ele>762.6</ele>
        <time>2022-05-21 01:02:36</time>
      </trkpt>
      <trkpt lat="41.81594" lon="2.13898">
        <ele>762.8</ele>
        <time>2022-05-21 01:02:37</time>
      </trkpt>
      <trkpt lat="41.81592" lon="2.13902">
        <ele>763</ele>
        <time>2022-05-21 01:02:38</time>
      </trkpt>
      <trkpt lat="41.81589" lon="2.13906">
        <ele>763</ele>
        <time>2022-05-21 01:02:39</time>
      </trkpt>
      <trkpt lat="41.81586" lon="2.1391">
        <ele>763.4</ele>
        <time>2022-05-21 01:02:40</time>
      </trkpt>
      <trkpt lat="41.81582" lon="2.13912">
        <ele>763.6</ele>
        <time>2022-05-21 01:02:41</time>
      </trkpt>
      <trkpt lat="41.81579" lon="2.13915">
        <ele>763.8</ele>
        <time>2022-05-21 01:02:42</time>
      </trkpt>
      <trkpt lat="41.81575" lon="2.13917">
        <ele>764</ele>
        <time>2022-05-21 01:02:43</time>
      </trkpt>
      <trkpt lat="41.81571" lon="2.13919">
        <ele>764.2</ele>
        <time>2022-05-21 01:02:44</time>
      </trkpt>
      <trkpt lat="41.81567" lon="2.1392">
        <ele>764.4</ele>
        <time>2022-05-21 01:02:45</time>
      </trkpt>
      <trkpt lat="41.81563" lon="2.13921">
        <ele>764.6</ele>
        <time>2022-05-21 01:02:46</time>
      </trkpt>
      <trkpt lat="41.81559" lon="2.13922">
        <ele>765</ele>
        <time>2022-05-21 01:02:47</time>
      </trkpt>
      <trkpt lat="41.81556" lon="2.13923">
        <ele>765.2</ele>
        <time>2022-05-21 01:02:48</time>
      </trkpt>
      <trkpt lat="41.81552" lon="2.13924">
        <ele>765.4</ele>
        <time>2022-05-21 01:02:49</time>
      </trkpt>
      <trkpt lat="41.81548" lon="2.13925">
        <ele>765.6</ele>
        <time>2022-05-21 01:02:50</time>
      </trkpt>
      <trkpt lat="41.81544" lon="2.13926">
        <ele>766</ele>
        <time>2022-05-21 01:02:51</time>
      </trkpt>
      <trkpt lat="41.81541" lon="2.13927">
        <ele>766.2</ele>
        <time>2022-05-21 01:02:52</time>
      </trkpt>
      <trkpt lat="41.81537" lon="2.13928">
        <ele>766.4</ele>
        <time>2022-05-21 01:02:53</time>
      </trkpt>
      <trkpt lat="41.81533" lon="2.1393">
        <ele>766.6</ele>
        <time>2022-05-21 01:02:54</time>
      </trkpt>
      <trkpt lat="41.8153" lon="2.13932">
        <ele>766.8</ele>
        <time>2022-05-21 01:02:55</time>
      </trkpt>
      <trkpt lat="41.81527" lon="2.13934">
        <ele>767.2</ele>
        <time>2022-05-21 01:02:56</time>
      </trkpt>
      <trkpt lat="41.81524" lon="2.13936">
        <ele>767.4</ele>
        <time>2022-05-21 01:02:57</time>
      </trkpt>
      <trkpt lat="41.8152" lon="2.13939">
        <ele>767.6</ele>
        <time>2022-05-21 01:02:58</time>
      </trkpt>
      <trkpt lat="41.81518" lon="2.13942">
        <ele>767.8</ele>
        <time>2022-05-21 01:02:59</time>
      </trkpt>
      <trkpt lat="41.81516" lon="2.13945">
        <ele>768</ele>
        <time>2022-05-21 01:03:00</time>
      </trkpt>
      <trkpt lat="41.81514" lon="2.13949">
        <ele>768.2</ele>
        <time>2022-05-21 01:03:01</time>
      </trkpt>
      <trkpt lat="41.81512" lon="2.13952">
        <ele>768.4</ele>
        <time>2022-05-21 01:03:02</time>
      </trkpt>
      <trkpt lat="41.81511" lon="2.13956">
        <ele>768.6</ele>
        <time>2022-05-21 01:03:03</time>
      </trkpt>
      <trkpt lat="41.8151" lon="2.1396">
        <ele>768.8</ele>
        <time>2022-05-21 01:03:04</time>
      </trkpt>
      <trkpt lat="41.81509" lon="2.13965">
        <ele>769</ele>
        <time>2022-05-21 01:03:05</time>
      </trkpt>
      <trkpt lat="41.81508" lon="2.13969">
        <ele>769.2</ele>
        <time>2022-05-21 01:03:06</time>
      </trkpt>
      <trkpt lat="41.81507" lon="2.13973">
        <ele>769.2</ele>
        <time>2022-05-21 01:03:07</time>
      </trkpt>
      <trkpt lat="41.81506" lon="2.13978">
        <ele>769.4</ele>
        <time>2022-05-21 01:03:08</time>
      </trkpt>
      <trkpt lat="41.81505" lon="2.13982">
        <ele>769.6</ele>
        <time>2022-05-21 01:03:09</time>
      </trkpt>
      <trkpt lat="41.81504" lon="2.13986">
        <ele>769.8</ele>
        <time>2022-05-21 01:03:10</time>
      </trkpt>
      <trkpt lat="41.81503" lon="2.1399">
        <ele>770</ele>
        <time>2022-05-21 01:03:11</time>
      </trkpt>
      <trkpt lat="41.81501" lon="2.13994">
        <ele>770.2</ele>
        <time>2022-05-21 01:03:12</time>
      </trkpt>
      <trkpt lat="41.815" lon="2.13998">
        <ele>770.2</ele>
        <time>2022-05-21 01:03:13</time>
      </trkpt>
      <trkpt lat="41.81499" lon="2.14003">
        <ele>770.4</ele>
        <time>2022-05-21 01:03:14</time>
      </trkpt>
      <trkpt lat="41.81498" lon="2.14007">
        <ele>770.6</ele>
        <time>2022-05-21 01:03:15</time>
      </trkpt>
      <trkpt lat="41.81498" lon="2.1401">
        <ele>770.6</ele>
        <time>2022-05-21 01:03:16</time>
      </trkpt>
      <trkpt lat="41.81496" lon="2.14013">
        <ele>770.8</ele>
        <time>2022-05-21 01:03:17</time>
      </trkpt>
      <trkpt lat="41.81495" lon="2.14017">
        <ele>771</ele>
        <time>2022-05-21 01:03:18</time>
      </trkpt>
      <trkpt lat="41.81495" lon="2.14021">
        <ele>771.2</ele>
        <time>2022-05-21 01:03:19</time>
      </trkpt>
      <trkpt lat="41.81494" lon="2.14026">
        <ele>771.2</ele>
        <time>2022-05-21 01:03:20</time>
      </trkpt>
      <trkpt lat="41.81493" lon="2.14031">
        <ele>771.4</ele>
        <time>2022-05-21 01:03:21</time>
      </trkpt>
      <trkpt lat="41.81493" lon="2.14036">
        <ele>771.6</ele>
        <time>2022-05-21 01:03:22</time>
      </trkpt>
      <trkpt lat="41.81493" lon="2.14041">
        <ele>771.8</ele>
        <time>2022-05-21 01:03:23</time>
      </trkpt>
      <trkpt lat="41.81493" lon="2.14046">
        <ele>772</ele>
        <time>2022-05-21 01:03:24</time>
      </trkpt>
      <trkpt lat="41.81493" lon="2.1405">
        <ele>772.2</ele>
        <time>2022-05-21 01:03:25</time>
      </trkpt>
      <trkpt lat="41.81493" lon="2.14054">
        <ele>772.4</ele>
        <time>2022-05-21 01:03:26</time>
      </trkpt>
      <trkpt lat="41.81494" lon="2.14059">
        <ele>772.6</ele>
        <time>2022-05-21 01:03:27</time>
      </trkpt>
      <trkpt lat="41.81495" lon="2.14063">
        <ele>772.6</ele>
        <time>2022-05-21 01:03:28</time>
      </trkpt>
      <trkpt lat="41.81496" lon="2.14067">
        <ele>772.8</ele>
        <time>2022-05-21 01:03:29</time>
      </trkpt>
      <trkpt lat="41.81497" lon="2.14071">
        <ele>773</ele>
        <time>2022-05-21 01:03:30</time>
      </trkpt>
      <trkpt lat="41.81499" lon="2.14075">
        <ele>773.2</ele>
        <time>2022-05-21 01:03:31</time>
      </trkpt>
      <trkpt lat="41.815" lon="2.14079">
        <ele>773.4</ele>
        <time>2022-05-21 01:03:32</time>
      </trkpt>
      <trkpt lat="41.81501" lon="2.14083">
        <ele>773.6</ele>
        <time>2022-05-21 01:03:33</time>
      </trkpt>
      <trkpt lat="41.81503" lon="2.14087">
        <ele>773.8</ele>
        <time>2022-05-21 01:03:34</time>
      </trkpt>
      <trkpt lat="41.81504" lon="2.1409">
        <ele>773.8</ele>
        <time>2022-05-21 01:03:35</time>
      </trkpt>
      <trkpt lat="41.81506" lon="2.14094">
        <ele>774</ele>
        <time>2022-05-21 01:03:36</time>
      </trkpt>
      <trkpt lat="41.81508" lon="2.14097">
        <ele>774.2</ele>
        <time>2022-05-21 01:03:37</time>
      </trkpt>
      <trkpt lat="41.81511" lon="2.141">
        <ele>774.4</ele>
        <time>2022-05-21 01:03:38</time>
      </trkpt>
      <trkpt lat="41.81512" lon="2.14104">
        <ele>774.6</ele>
        <time>2022-05-21 01:03:39</time>
      </trkpt>
      <trkpt lat="41.81515" lon="2.14107">
        <ele>774.6</ele>
        <time>2022-05-21 01:03:40</time>
      </trkpt>
      <trkpt lat="41.81517" lon="2.1411">
        <ele>774.8</ele>
        <time>2022-05-21 01:03:41</time>
      </trkpt>
      <trkpt lat="41.81519" lon="2.14113">
        <ele>775</ele>
        <time>2022-05-21 01:03:42</time>
      </trkpt>
      <trkpt lat="41.81521" lon="2.14116">
        <ele>775.2</ele>
        <time>2022-05-21 01:03:43</time>
      </trkpt>
      <trkpt lat="41.81523" lon="2.14119">
        <ele>775.2</ele>
        <time>2022-05-21 01:03:44</time>
      </trkpt>
      <trkpt lat="41.81525" lon="2.14122">
        <ele>775.4</ele>
        <time>2022-05-21 01:03:45</time>
      </trkpt>
      <trkpt lat="41.81527" lon="2.14125">
        <ele>775.6</ele>
        <time>2022-05-21 01:03:46</time>
      </trkpt>
      <trkpt lat="41.8153" lon="2.14128">
        <ele>775.8</ele>
        <time>2022-05-21 01:03:47</time>
      </trkpt>
      <trkpt lat="41.81532" lon="2.14131">
        <ele>776</ele>
        <time>2022-05-21 01:03:48</time>
      </trkpt>
      <trkpt lat="41.81534" lon="2.14134">
        <ele>776</ele>
        <time>2022-05-21 01:03:49</time>
      </trkpt>
      <trkpt lat="41.81536" lon="2.14136">
        <ele>776.2</ele>
        <time>2022-05-21 01:03:50</time>
      </trkpt>
      <trkpt lat="41.81538" lon="2.14139">
        <ele>776.4</ele>
        <time>2022-05-21 01:03:51</time>
      </trkpt>
      <trkpt lat="41.81541" lon="2.14142">
        <ele>776.6</ele>
        <time>2022-05-21 01:03:52</time>
      </trkpt>
      <trkpt lat="41.81543" lon="2.14145">
        <ele>776.6</ele>
        <time>2022-05-21 01:03:53</time>
      </trkpt>
      <trkpt lat="41.81545" lon="2.14148">
        <ele>776.8</ele>
        <time>2022-05-21 01:03:54</time>
      </trkpt>
      <trkpt lat="41.81547" lon="2.14151">
        <ele>777</ele>
        <time>2022-05-21 01:03:55</time>
      </trkpt>
      <trkpt lat="41.81549" lon="2.14154">
        <ele>777.2</ele>
        <time>2022-05-21 01:03:56</time>
      </trkpt>
      <trkpt lat="41.81551" lon="2.14157">
        <ele>777.2</ele>
        <time>2022-05-21 01:03:57</time>
      </trkpt>
      <trkpt lat="41.81554" lon="2.1416">
        <ele>777.4</ele>
        <time>2022-05-21 01:03:58</time>
      </trkpt>
      <trkpt lat="41.81556" lon="2.14163">
        <ele>777.6</ele>
        <time>2022-05-21 01:03:59</time>
      </trkpt>
      <trkpt lat="41.81558" lon="2.14166">
        <ele>777.6</ele>
        <time>2022-05-21 01:04:00</time>
      </trkpt>
      <trkpt lat="41.81561" lon="2.14169">
        <ele>777.8</ele>
        <time>2022-05-21 01:04:01</time>
      </trkpt>
      <trkpt lat="41.81563" lon="2.14172">
        <ele>778</ele>
        <time>2022-05-21 01:04:02</time>
      </trkpt>
      <trkpt lat="41.81565" lon="2.14175">
        <ele>778</ele>
        <time>2022-05-21 01:04:03</time>
      </trkpt>
      <trkpt lat="41.81567" lon="2.14178">
        <ele>778.2</ele>
        <time>2022-05-21 01:04:04</time>
      </trkpt>
      <trkpt lat="41.8157" lon="2.14181">
        <ele>778.4</ele>
        <time>2022-05-21 01:04:05</time>
      </trkpt>
      <trkpt lat="41.81572" lon="2.14184">
        <ele>778.4</ele>
        <time>2022-05-21 01:04:06</time>
      </trkpt>
      <trkpt lat="41.81574" lon="2.14187">
        <ele>778.6</ele>
        <time>2022-05-21 01:04:07</time>
      </trkpt>
      <trkpt lat="41.81577" lon="2.1419">
        <ele>778.8</ele>
        <time>2022-05-21 01:04:08</time>
      </trkpt>
      <trkpt lat="41.81579" lon="2.14193">
        <ele>778.8</ele>
        <time>2022-05-21 01:04:09</time>
      </trkpt>
      <trkpt lat="41.81581" lon="2.14196">
        <ele>779</ele>
        <time>2022-05-21 01:04:10</time>
      </trkpt>
      <trkpt lat="41.81584" lon="2.14199">
        <ele>779</ele>
        <time>2022-05-21 01:04:11</time>
      </trkpt>
      <trkpt lat="41.81586" lon="2.14202">
        <ele>779.2</ele>
        <time>2022-05-21 01:04:12</time>
      </trkpt>
      <trkpt lat="41.81588" lon="2.14205">
        <ele>779.2</ele>
        <time>2022-05-21 01:04:13</time>
      </trkpt>
      <trkpt lat="41.81591" lon="2.14209">
        <ele>779.4</ele>
        <time>2022-05-21 01:04:14</time>
      </trkpt>
      <trkpt lat="41.81593" lon="2.14212">
        <ele>779.4</ele>
        <time>2022-05-21 01:04:15</time>
      </trkpt>
      <trkpt lat="41.81596" lon="2.14215">
        <ele>779.6</ele>
        <time>2022-05-21 01:04:16</time>
      </trkpt>
      <trkpt lat="41.81598" lon="2.14218">
        <ele>779.8</ele>
        <time>2022-05-21 01:04:17</time>
      </trkpt>
      <trkpt lat="41.816" lon="2.14221">
        <ele>779.8</ele>
        <time>2022-05-21 01:04:18</time>
      </trkpt>
      <trkpt lat="41.81603" lon="2.14224">
        <ele>780</ele>
        <time>2022-05-21 01:04:19</time>
      </trkpt>
      <trkpt lat="41.81606" lon="2.14227">
        <ele>780.2</ele>
        <time>2022-05-21 01:04:20</time>
      </trkpt>
      <trkpt lat="41.81608" lon="2.1423">
        <ele>780.2</ele>
        <time>2022-05-21 01:04:21</time>
      </trkpt>
      <trkpt lat="41.8161" lon="2.14233">
        <ele>780.4</ele>
        <time>2022-05-21 01:04:22</time>
      </trkpt>
      <trkpt lat="41.81613" lon="2.14237">
        <ele>780.6</ele>
        <time>2022-05-21 01:04:23</time>
      </trkpt>
      <trkpt lat="41.81615" lon="2.1424">
        <ele>780.6</ele>
        <time>2022-05-21 01:04:24</time>
      </trkpt>
      <trkpt lat="41.81618" lon="2.14243">
        <ele>780.8</ele>
        <time>2022-05-21 01:04:25</time>
      </trkpt>
      <trkpt lat="41.8162" lon="2.14247">
        <ele>780.8</ele>
        <time>2022-05-21 01:04:26</time>
      </trkpt>
      <trkpt lat="41.81622" lon="2.1425">
        <ele>781</ele>
        <time>2022-05-21 01:04:27</time>
      </trkpt>
      <trkpt lat="41.81625" lon="2.14253">
        <ele>781.2</ele>
        <time>2022-05-21 01:04:28</time>
      </trkpt>
      <trkpt lat="41.81627" lon="2.14256">
        <ele>781.2</ele>
        <time>2022-05-21 01:04:29</time>
      </trkpt>
      <trkpt lat="41.81629" lon="2.1426">
        <ele>781.4</ele>
        <time>2022-05-21 01:04:30</time>
      </trkpt>
      <trkpt lat="41.81631" lon="2.14263">
        <ele>781.4</ele>
        <time>2022-05-21 01:04:31</time>
      </trkpt>
      <trkpt lat="41.81634" lon="2.14266">
        <ele>781.6</ele>
        <time>2022-05-21 01:04:32</time>
      </trkpt>
      <trkpt lat="41.81636" lon="2.1427">
        <ele>781.8</ele>
        <time>2022-05-21 01:04:33</time>
      </trkpt>
      <trkpt lat="41.81639" lon="2.14274">
        <ele>781.8</ele>
        <time>2022-05-21 01:04:34</time>
      </trkpt>
      <trkpt lat="41.81642" lon="2.14277">
        <ele>781.8</ele>
        <time>2022-05-21 01:04:35</time>
      </trkpt>
      <trkpt lat="41.81644" lon="2.14281">
        <ele>782</ele>
        <time>2022-05-21 01:04:36</time>
      </trkpt>
      <trkpt lat="41.81646" lon="2.14285">
        <ele>782.2</ele>
        <time>2022-05-21 01:04:37</time>
      </trkpt>
      <trkpt lat="41.81647" lon="2.14289">
        <ele>782.2</ele>
        <time>2022-05-21 01:04:38</time>
      </trkpt>
      <trkpt lat="41.81649" lon="2.14293">
        <ele>782.4</ele>
        <time>2022-05-21 01:04:39</time>
      </trkpt>
      <trkpt lat="41.81651" lon="2.14298">
        <ele>782.6</ele>
        <time>2022-05-21 01:04:40</time>
      </trkpt>
      <trkpt lat="41.81652" lon="2.14302">
        <ele>782.6</ele>
        <time>2022-05-21 01:04:41</time>
      </trkpt>
      <trkpt lat="41.81654" lon="2.14306">
        <ele>782.8</ele>
        <time>2022-05-21 01:04:42</time>
      </trkpt>
      <trkpt lat="41.81655" lon="2.1431">
        <ele>782.8</ele>
        <time>2022-05-21 01:04:43</time>
      </trkpt>
      <trkpt lat="41.81656" lon="2.14314">
        <ele>783</ele>
        <time>2022-05-21 01:04:44</time>
      </trkpt>
      <trkpt lat="41.81657" lon="2.14318">
        <ele>783.2</ele>
        <time>2022-05-21 01:04:45</time>
      </trkpt>
      <trkpt lat="41.81658" lon="2.14322">
        <ele>783.2</ele>
        <time>2022-05-21 01:04:46</time>
      </trkpt>
      <trkpt lat="41.81659" lon="2.14326">
        <ele>783.4</ele>
        <time>2022-05-21 01:04:47</time>
      </trkpt>
      <trkpt lat="41.8166" lon="2.14331">
        <ele>783.4</ele>
        <time>2022-05-21 01:04:48</time>
      </trkpt>
      <trkpt lat="41.81661" lon="2.14335">
        <ele>783.6</ele>
        <time>2022-05-21 01:04:49</time>
      </trkpt>
      <trkpt lat="41.81662" lon="2.14339">
        <ele>783.8</ele>
        <time>2022-05-21 01:04:50</time>
      </trkpt>
      <trkpt lat="41.81664" lon="2.14343">
        <ele>783.8</ele>
        <time>2022-05-21 01:04:51</time>
      </trkpt>
      <trkpt lat="41.81665" lon="2.14347">
        <ele>784</ele>
        <time>2022-05-21 01:04:52</time>
      </trkpt>
      <trkpt lat="41.81666" lon="2.14351">
        <ele>784</ele>
        <time>2022-05-21 01:04:53</time>
      </trkpt>
      <trkpt lat="41.81667" lon="2.14356">
        <ele>784.2</ele>
        <time>2022-05-21 01:04:54</time>
      </trkpt>
      <trkpt lat="41.81668" lon="2.1436">
        <ele>784.4</ele>
        <time>2022-05-21 01:04:55</time>
      </trkpt>
      <trkpt lat="41.81669" lon="2.14364">
        <ele>784.4</ele>
        <time>2022-05-21 01:04:56</time>
      </trkpt>
      <trkpt lat="41.81671" lon="2.14368">
        <ele>784.6</ele>
        <time>2022-05-21 01:04:57</time>
      </trkpt>
      <trkpt lat="41.81672" lon="2.14372">
        <ele>784.6</ele>
        <time>2022-05-21 01:04:58</time>
      </trkpt>
      <trkpt lat="41.81674" lon="2.14376">
        <ele>784.8</ele>
        <time>2022-05-21 01:04:59</time>
      </trkpt>
      <trkpt lat="41.81675" lon="2.1438">
        <ele>784.8</ele>
        <time>2022-05-21 01:05:00</time>
      </trkpt>
      <trkpt lat="41.81676" lon="2.14385">
        <ele>785</ele>
        <time>2022-05-21 01:05:01</time>
      </trkpt>
      <trkpt lat="41.81678" lon="2.14388">
        <ele>785.2</ele>
        <time>2022-05-21 01:05:02</time>
      </trkpt>
      <trkpt lat="41.81679" lon="2.14393">
        <ele>785.4</ele>
        <time>2022-05-21 01:05:03</time>
      </trkpt>
      <trkpt lat="41.81681" lon="2.14397">
        <ele>785.4</ele>
        <time>2022-05-21 01:05:04</time>
      </trkpt>
      <trkpt lat="41.81682" lon="2.14401">
        <ele>785.6</ele>
        <time>2022-05-21 01:05:05</time>
      </trkpt>
      <trkpt lat="41.81683" lon="2.14406">
        <ele>785.6</ele>
        <time>2022-05-21 01:05:06</time>
      </trkpt>
      <trkpt lat="41.81684" lon="2.1441">
        <ele>785.8</ele>
        <time>2022-05-21 01:05:07</time>
      </trkpt>
      <trkpt lat="41.81686" lon="2.14415">
        <ele>785.8</ele>
        <time>2022-05-21 01:05:08</time>
      </trkpt>
      <trkpt lat="41.81687" lon="2.14419">
        <ele>786</ele>
        <time>2022-05-21 01:05:09</time>
      </trkpt>
      <trkpt lat="41.81688" lon="2.14423">
        <ele>786.2</ele>
        <time>2022-05-21 01:05:10</time>
      </trkpt>
      <trkpt lat="41.81689" lon="2.14428">
        <ele>786.2</ele>
        <time>2022-05-21 01:05:11</time>
      </trkpt>
      <trkpt lat="41.81691" lon="2.14432">
        <ele>786.4</ele>
        <time>2022-05-21 01:05:12</time>
      </trkpt>
      <trkpt lat="41.81692" lon="2.14437">
        <ele>786.4</ele>
        <time>2022-05-21 01:05:13</time>
      </trkpt>
      <trkpt lat="41.81693" lon="2.14441">
        <ele>786.6</ele>
        <time>2022-05-21 01:05:14</time>
      </trkpt>
      <trkpt lat="41.81694" lon="2.14446">
        <ele>786.8</ele>
        <time>2022-05-21 01:05:15</time>
      </trkpt>
      <trkpt lat="41.81696" lon="2.1445">
        <ele>786.8</ele>
        <time>2022-05-21 01:05:16</time>
      </trkpt>
      <trkpt lat="41.81697" lon="2.14455">
        <ele>787</ele>
        <time>2022-05-21 01:05:17</time>
      </trkpt>
      <trkpt lat="41.81699" lon="2.14459">
        <ele>787.2</ele>
        <time>2022-05-21 01:05:18</time>
      </trkpt>
      <trkpt lat="41.817" lon="2.14463">
        <ele>787.4</ele>
        <time>2022-05-21 01:05:19</time>
      </trkpt>
      <trkpt lat="41.81701" lon="2.14468">
        <ele>787.4</ele>
        <time>2022-05-21 01:05:20</time>
      </trkpt>
      <trkpt lat="41.81703" lon="2.14472">
        <ele>787.6</ele>
        <time>2022-05-21 01:05:21</time>
      </trkpt>
      <trkpt lat="41.81705" lon="2.14476">
        <ele>787.8</ele>
        <time>2022-05-21 01:05:22</time>
      </trkpt>
      <trkpt lat="41.81706" lon="2.1448">
        <ele>788</ele>
        <time>2022-05-21 01:05:23</time>
      </trkpt>
      <trkpt lat="41.81707" lon="2.14484">
        <ele>788</ele>
        <time>2022-05-21 01:05:24</time>
      </trkpt>
      <trkpt lat="41.81708" lon="2.14489">
        <ele>788.2</ele>
        <time>2022-05-21 01:05:25</time>
      </trkpt>
      <trkpt lat="41.81709" lon="2.14493">
        <ele>788.2</ele>
        <time>2022-05-21 01:05:26</time>
      </trkpt>
      <trkpt lat="41.8171" lon="2.14498">
        <ele>788.4</ele>
        <time>2022-05-21 01:05:27</time>
      </trkpt>
      <trkpt lat="41.81712" lon="2.14502">
        <ele>788.6</ele>
        <time>2022-05-21 01:05:28</time>
      </trkpt>
      <trkpt lat="41.81713" lon="2.14506">
        <ele>788.6</ele>
        <time>2022-05-21 01:05:29</time>
      </trkpt>
      <trkpt lat="41.81713" lon="2.14511">
        <ele>788.8</ele>
        <time>2022-05-21 01:05:30</time>
      </trkpt>
      <trkpt lat="41.81715" lon="2.14515">
        <ele>789</ele>
        <time>2022-05-21 01:05:31</time>
      </trkpt>
      <trkpt lat="41.81715" lon="2.1452">
        <ele>789</ele>
        <time>2022-05-21 01:05:32</time>
      </trkpt>
      <trkpt lat="41.81717" lon="2.14524">
        <ele>789.2</ele>
        <time>2022-05-21 01:05:33</time>
      </trkpt>
      <trkpt lat="41.81718" lon="2.14528">
        <ele>789.2</ele>
        <time>2022-05-21 01:05:34</time>
      </trkpt>
      <trkpt lat="41.81719" lon="2.14532">
        <ele>789.4</ele>
        <time>2022-05-21 01:05:35</time>
      </trkpt>
      <trkpt lat="41.8172" lon="2.14537">
        <ele>789.4</ele>
        <time>2022-05-21 01:05:36</time>
      </trkpt>
      <trkpt lat="41.81721" lon="2.14542">
        <ele>789.6</ele>
        <time>2022-05-21 01:05:37</time>
      </trkpt>
      <trkpt lat="41.81722" lon="2.14546">
        <ele>789.8</ele>
        <time>2022-05-21 01:05:38</time>
      </trkpt>
      <trkpt lat="41.81723" lon="2.14551">
        <ele>789.8</ele>
        <time>2022-05-21 01:05:39</time>
      </trkpt>
      <trkpt lat="41.81723" lon="2.14555">
        <ele>790</ele>
        <time>2022-05-21 01:05:40</time>
      </trkpt>
      <trkpt lat="41.81723" lon="2.1456">
        <ele>790</ele>
        <time>2022-05-21 01:05:41</time>
      </trkpt>
      <trkpt lat="41.81723" lon="2.14565">
        <ele>790.2</ele>
        <time>2022-05-21 01:05:42</time>
      </trkpt>
      <trkpt lat="41.81722" lon="2.14569">
        <ele>790.4</ele>
        <time>2022-05-21 01:05:43</time>
      </trkpt>
      <trkpt lat="41.81721" lon="2.14574">
        <ele>790.4</ele>
        <time>2022-05-21 01:05:44</time>
      </trkpt>
      <trkpt lat="41.8172" lon="2.14578">
        <ele>790.6</ele>
        <time>2022-05-21 01:05:45</time>
      </trkpt>
      <trkpt lat="41.81719" lon="2.14583">
        <ele>790.8</ele>
        <time>2022-05-21 01:05:46</time>
      </trkpt>
      <trkpt lat="41.81717" lon="2.14587">
        <ele>791</ele>
        <time>2022-05-21 01:05:47</time>
      </trkpt>
      <trkpt lat="41.81716" lon="2.14591">
        <ele>791</ele>
        <time>2022-05-21 01:05:48</time>
      </trkpt>
      <trkpt lat="41.81714" lon="2.14594">
        <ele>791.2</ele>
        <time>2022-05-21 01:05:49</time>
      </trkpt>
      <trkpt lat="41.81712" lon="2.14598">
        <ele>791.4</ele>
        <time>2022-05-21 01:05:50</time>
      </trkpt>
      <trkpt lat="41.8171" lon="2.14601">
        <ele>791.6</ele>
        <time>2022-05-21 01:05:51</time>
      </trkpt>
      <trkpt lat="41.81709" lon="2.14604">
        <ele>791.8</ele>
        <time>2022-05-21 01:05:52</time>
      </trkpt>
      <trkpt lat="41.81707" lon="2.14608">
        <ele>792</ele>
        <time>2022-05-21 01:05:53</time>
      </trkpt>
      <trkpt lat="41.81705" lon="2.14611">
        <ele>792.2</ele>
        <time>2022-05-21 01:05:54</time>
      </trkpt>
      <trkpt lat="41.81704" lon="2.14615">
        <ele>792.4</ele>
        <time>2022-05-21 01:05:55</time>
      </trkpt>
      <trkpt lat="41.81702" lon="2.14618">
        <ele>792.8</ele>
        <time>2022-05-21 01:05:56</time>
      </trkpt>
      <trkpt lat="41.81701" lon="2.14621">
        <ele>793</ele>
        <time>2022-05-21 01:05:57</time>
      </trkpt>
      <trkpt lat="41.81699" lon="2.14625">
        <ele>793.2</ele>
        <time>2022-05-21 01:05:58</time>
      </trkpt>
      <trkpt lat="41.81697" lon="2.14628">
        <ele>793.4</ele>
        <time>2022-05-21 01:05:59</time>
      </trkpt>
      <trkpt lat="41.81695" lon="2.14631">
        <ele>793.6</ele>
        <time>2022-05-21 01:06:00</time>
      </trkpt>
      <trkpt lat="41.81693" lon="2.14634">
        <ele>793.8</ele>
        <time>2022-05-21 01:06:01</time>
      </trkpt>
      <trkpt lat="41.81692" lon="2.14637">
        <ele>794.2</ele>
        <time>2022-05-21 01:06:02</time>
      </trkpt>
      <trkpt lat="41.8169" lon="2.1464">
        <ele>794.4</ele>
        <time>2022-05-21 01:06:03</time>
      </trkpt>
      <trkpt lat="41.81689" lon="2.14644">
        <ele>794.6</ele>
        <time>2022-05-21 01:06:04</time>
      </trkpt>
      <trkpt lat="41.81688" lon="2.14647">
        <ele>794.8</ele>
        <time>2022-05-21 01:06:05</time>
      </trkpt>
      <trkpt lat="41.81687" lon="2.1465">
        <ele>795</ele>
        <time>2022-05-21 01:06:06</time>
      </trkpt>
      <trkpt lat="41.81686" lon="2.14654">
        <ele>795.2</ele>
        <time>2022-05-21 01:06:07</time>
      </trkpt>
      <trkpt lat="41.81685" lon="2.14657">
        <ele>795.6</ele>
        <time>2022-05-21 01:06:08</time>
      </trkpt>
      <trkpt lat="41.81684" lon="2.1466">
        <ele>795.8</ele>
        <time>2022-05-21 01:06:09</time>
      </trkpt>
      <trkpt lat="41.81684" lon="2.14664">
        <ele>796</ele>
        <time>2022-05-21 01:06:10</time>
      </trkpt>
      <trkpt lat="41.81684" lon="2.14667">
        <ele>796.2</ele>
        <time>2022-05-21 01:06:11</time>
      </trkpt>
      <trkpt lat="41.81683" lon="2.14671">
        <ele>796.4</ele>
        <time>2022-05-21 01:06:12</time>
      </trkpt>
      <trkpt lat="41.81683" lon="2.14675">
        <ele>796.6</ele>
        <time>2022-05-21 01:06:13</time>
      </trkpt>
      <trkpt lat="41.81684" lon="2.14679">
        <ele>796.8</ele>
        <time>2022-05-21 01:06:14</time>
      </trkpt>
      <trkpt lat="41.81684" lon="2.14683">
        <ele>797</ele>
        <time>2022-05-21 01:06:15</time>
      </trkpt>
      <trkpt lat="41.81684" lon="2.14687">
        <ele>797.2</ele>
        <time>2022-05-21 01:06:16</time>
      </trkpt>
      <trkpt lat="41.81684" lon="2.14691">
        <ele>797.4</ele>
        <time>2022-05-21 01:06:17</time>
      </trkpt>
      <trkpt lat="41.81685" lon="2.14695">
        <ele>797.6</ele>
        <time>2022-05-21 01:06:18</time>
      </trkpt>
      <trkpt lat="41.81686" lon="2.14698">
        <ele>797.8</ele>
        <time>2022-05-21 01:06:19</time>
      </trkpt>
      <trkpt lat="41.81687" lon="2.147">
        <ele>798</ele>
        <time>2022-05-21 01:06:20</time>
      </trkpt>
      <trkpt lat="41.81688" lon="2.14704">
        <ele>798.2</ele>
        <time>2022-05-21 01:06:21</time>
      </trkpt>
      <trkpt lat="41.8169" lon="2.14707">
        <ele>798.4</ele>
        <time>2022-05-21 01:06:22</time>
      </trkpt>
      <trkpt lat="41.81691" lon="2.1471">
        <ele>798.6</ele>
        <time>2022-05-21 01:06:23</time>
      </trkpt>
      <trkpt lat="41.81694" lon="2.14713">
        <ele>798.8</ele>
        <time>2022-05-21 01:06:24</time>
      </trkpt>
      <trkpt lat="41.81696" lon="2.14716">
        <ele>799</ele>
        <time>2022-05-21 01:06:25</time>
      </trkpt>
      <trkpt lat="41.81698" lon="2.14719">
        <ele>799.2</ele>
        <time>2022-05-21 01:06:26</time>
      </trkpt>
      <trkpt lat="41.81699" lon="2.14723">
        <ele>799.2</ele>
        <time>2022-05-21 01:06:27</time>
      </trkpt>
      <trkpt lat="41.81701" lon="2.14727">
        <ele>799.4</ele>
        <time>2022-05-21 01:06:28</time>
      </trkpt>
      <trkpt lat="41.81702" lon="2.1473">
        <ele>799.6</ele>
        <time>2022-05-21 01:06:29</time>
      </trkpt>
      <trkpt lat="41.81703" lon="2.14734">
        <ele>799.8</ele>
        <time>2022-05-21 01:06:30</time>
      </trkpt>
      <trkpt lat="41.81705" lon="2.14737">
        <ele>799.8</ele>
        <time>2022-05-21 01:06:31</time>
      </trkpt>
      <trkpt lat="41.81707" lon="2.1474">
        <ele>800</ele>
        <time>2022-05-21 01:06:32</time>
      </trkpt>
      <trkpt lat="41.81708" lon="2.14744">
        <ele>800.2</ele>
        <time>2022-05-21 01:06:33</time>
      </trkpt>
      <trkpt lat="41.81709" lon="2.14747">
        <ele>800.2</ele>
        <time>2022-05-21 01:06:34</time>
      </trkpt>
      <trkpt lat="41.8171" lon="2.14751">
        <ele>800.4</ele>
        <time>2022-05-21 01:06:35</time>
      </trkpt>
      <trkpt lat="41.81712" lon="2.14754">
        <ele>800.8</ele>
        <time>2022-05-21 01:06:36</time>
      </trkpt>
      <trkpt lat="41.81713" lon="2.14757">
        <ele>801</ele>
        <time>2022-05-21 01:06:37</time>
      </trkpt>
      <trkpt lat="41.81714" lon="2.1476">
        <ele>801.2</ele>
        <time>2022-05-21 01:06:38</time>
      </trkpt>
      <trkpt lat="41.81715" lon="2.14764">
        <ele>801.4</ele>
        <time>2022-05-21 01:06:39</time>
      </trkpt>
      <trkpt lat="41.81716" lon="2.14768">
        <ele>801.6</ele>
        <time>2022-05-21 01:06:40</time>
      </trkpt>
      <trkpt lat="41.81717" lon="2.14772">
        <ele>801.6</ele>
        <time>2022-05-21 01:06:41</time>
      </trkpt>
      <trkpt lat="41.81718" lon="2.14775">
        <ele>801.8</ele>
        <time>2022-05-21 01:06:42</time>
      </trkpt>
      <trkpt lat="41.81719" lon="2.14779">
        <ele>802</ele>
        <time>2022-05-21 01:06:43</time>
      </trkpt>
      <trkpt lat="41.81719" lon="2.14782">
        <ele>802.2</ele>
        <time>2022-05-21 01:06:44</time>
      </trkpt>
      <trkpt lat="41.8172" lon="2.14786">
        <ele>802.4</ele>
        <time>2022-05-21 01:06:45</time>
      </trkpt>
      <trkpt lat="41.8172" lon="2.14789">
        <ele>802.6</ele>
        <time>2022-05-21 01:06:46</time>
      </trkpt>
      <trkpt lat="41.8172" lon="2.14792">
        <ele>802.8</ele>
        <time>2022-05-21 01:06:47</time>
      </trkpt>
      <trkpt lat="41.8172" lon="2.14795">
        <ele>803</ele>
        <time>2022-05-21 01:06:48</time>
      </trkpt>
      <trkpt lat="41.8172" lon="2.14799">
        <ele>803.2</ele>
        <time>2022-05-21 01:06:49</time>
      </trkpt>
      <trkpt lat="41.81719" lon="2.14802">
        <ele>803.2</ele>
        <time>2022-05-21 01:06:50</time>
      </trkpt>
      <trkpt lat="41.81718" lon="2.14806">
        <ele>803.4</ele>
        <time>2022-05-21 01:06:51</time>
      </trkpt>
      <trkpt lat="41.81718" lon="2.14809">
        <ele>803.6</ele>
        <time>2022-05-21 01:06:52</time>
      </trkpt>
      <trkpt lat="41.81717" lon="2.14813">
        <ele>803.8</ele>
        <time>2022-05-21 01:06:53</time>
      </trkpt>
      <trkpt lat="41.81716" lon="2.14816">
        <ele>804</ele>
        <time>2022-05-21 01:06:54</time>
      </trkpt>
      <trkpt lat="41.81715" lon="2.14819">
        <ele>804.4</ele>
        <time>2022-05-21 01:06:55</time>
      </trkpt>
      <trkpt lat="41.81713" lon="2.14822">
        <ele>804.6</ele>
        <time>2022-05-21 01:06:56</time>
      </trkpt>
      <trkpt lat="41.81712" lon="2.14825">
        <ele>804.8</ele>
        <time>2022-05-21 01:06:57</time>
      </trkpt>
      <trkpt lat="41.8171" lon="2.14828">
        <ele>805</ele>
        <time>2022-05-21 01:06:58</time>
      </trkpt>
      <trkpt lat="41.81709" lon="2.14831">
        <ele>805.2</ele>
        <time>2022-05-21 01:06:59</time>
      </trkpt>
      <trkpt lat="41.81707" lon="2.14835">
        <ele>805.4</ele>
        <time>2022-05-21 01:07:00</time>
      </trkpt>
      <trkpt lat="41.81705" lon="2.14838">
        <ele>805.6</ele>
        <time>2022-05-21 01:07:01</time>
      </trkpt>
      <trkpt lat="41.81704" lon="2.14841">
        <ele>805.8</ele>
        <time>2022-05-21 01:07:02</time>
      </trkpt>
      <trkpt lat="41.81702" lon="2.14844">
        <ele>806.2</ele>
        <time>2022-05-21 01:07:03</time>
      </trkpt>
      <trkpt lat="41.817" lon="2.14847">
        <ele>806.4</ele>
        <time>2022-05-21 01:07:04</time>
      </trkpt>
      <trkpt lat="41.81699" lon="2.1485">
        <ele>806.6</ele>
        <time>2022-05-21 01:07:05</time>
      </trkpt>
      <trkpt lat="41.81697" lon="2.14853">
        <ele>806.8</ele>
        <time>2022-05-21 01:07:06</time>
      </trkpt>
      <trkpt lat="41.81696" lon="2.14856">
        <ele>807</ele>
        <time>2022-05-21 01:07:07</time>
      </trkpt>
      <trkpt lat="41.81694" lon="2.14859">
        <ele>807.2</ele>
        <time>2022-05-21 01:07:08</time>
      </trkpt>
      <trkpt lat="41.81693" lon="2.14862">
        <ele>807.4</ele>
        <time>2022-05-21 01:07:09</time>
      </trkpt>
      <trkpt lat="41.81691" lon="2.14865">
        <ele>807.6</ele>
        <time>2022-05-21 01:07:10</time>
      </trkpt>
      <trkpt lat="41.81689" lon="2.14868">
        <ele>807.8</ele>
        <time>2022-05-21 01:07:11</time>
      </trkpt>
      <trkpt lat="41.81687" lon="2.1487">
        <ele>808</ele>
        <time>2022-05-21 01:07:12</time>
      </trkpt>
      <trkpt lat="41.81685" lon="2.14873">
        <ele>808</ele>
        <time>2022-05-21 01:07:13</time>
      </trkpt>
      <trkpt lat="41.81683" lon="2.14876">
        <ele>808.2</ele>
        <time>2022-05-21 01:07:14</time>
      </trkpt>
      <trkpt lat="41.81681" lon="2.14879">
        <ele>808.4</ele>
        <time>2022-05-21 01:07:15</time>
      </trkpt>
      <trkpt lat="41.8168" lon="2.14882">
        <ele>808.6</ele>
        <time>2022-05-21 01:07:16</time>
      </trkpt>
      <trkpt lat="41.81678" lon="2.14884">
        <ele>809</ele>
        <time>2022-05-21 01:07:17</time>
      </trkpt>
      <trkpt lat="41.81675" lon="2.14887">
        <ele>809.2</ele>
        <time>2022-05-21 01:07:18</time>
      </trkpt>
      <trkpt lat="41.81673" lon="2.14889">
        <ele>809.4</ele>
        <time>2022-05-21 01:07:19</time>
      </trkpt>
      <trkpt lat="41.81671" lon="2.14891">
        <ele>809.4</ele>
        <time>2022-05-21 01:07:20</time>
      </trkpt>
      <trkpt lat="41.81669" lon="2.14894">
        <ele>809.6</ele>
        <time>2022-05-21 01:07:21</time>
      </trkpt>
      <trkpt lat="41.81667" lon="2.14896">
        <ele>809.8</ele>
        <time>2022-05-21 01:07:22</time>
      </trkpt>
      <trkpt lat="41.81664" lon="2.14898">
        <ele>810</ele>
        <time>2022-05-21 01:07:23</time>
      </trkpt>
      <trkpt lat="41.81662" lon="2.14901">
        <ele>810.2</ele>
        <time>2022-05-21 01:07:24</time>
      </trkpt>
      <trkpt lat="41.8166" lon="2.14903">
        <ele>810.4</ele>
        <time>2022-05-21 01:07:25</time>
      </trkpt>
      <trkpt lat="41.81658" lon="2.14905">
        <ele>810.6</ele>
        <time>2022-05-21 01:07:26</time>
      </trkpt>
      <trkpt lat="41.81656" lon="2.14908">
        <ele>810.8</ele>
        <time>2022-05-21 01:07:27</time>
      </trkpt>
      <trkpt lat="41.81653" lon="2.1491">
        <ele>811</ele>
        <time>2022-05-21 01:07:28</time>
      </trkpt>
      <trkpt lat="41.81651" lon="2.14912">
        <ele>811.2</ele>
        <time>2022-05-21 01:07:29</time>
      </trkpt>
      <trkpt lat="41.81649" lon="2.14914">
        <ele>811.2</ele>
        <time>2022-05-21 01:07:30</time>
      </trkpt>
      <trkpt lat="41.81646" lon="2.14916">
        <ele>811.4</ele>
        <time>2022-05-21 01:07:31</time>
      </trkpt>
      <trkpt lat="41.81644" lon="2.14918">
        <ele>811.6</ele>
        <time>2022-05-21 01:07:32</time>
      </trkpt>
      <trkpt lat="41.81642" lon="2.1492">
        <ele>811.8</ele>
        <time>2022-05-21 01:07:33</time>
      </trkpt>
      <trkpt lat="41.8164" lon="2.14922">
        <ele>812</ele>
        <time>2022-05-21 01:07:34</time>
      </trkpt>
      <trkpt lat="41.81637" lon="2.14925">
        <ele>812.2</ele>
        <time>2022-05-21 01:07:35</time>
      </trkpt>
      <trkpt lat="41.81635" lon="2.14927">
        <ele>812.4</ele>
        <time>2022-05-21 01:07:36</time>
      </trkpt>
      <trkpt lat="41.81633" lon="2.1493">
        <ele>812.6</ele>
        <time>2022-05-21 01:07:37</time>
      </trkpt>
      <trkpt lat="41.81631" lon="2.14932">
        <ele>812.8</ele>
        <time>2022-05-21 01:07:38</time>
      </trkpt>
      <trkpt lat="41.81628" lon="2.14934">
        <ele>813</ele>
        <time>2022-05-21 01:07:39</time>
      </trkpt>
      <trkpt lat="41.81626" lon="2.14937">
        <ele>813.2</ele>
        <time>2022-05-21 01:07:40</time>
      </trkpt>
      <trkpt lat="41.81624" lon="2.14939">
        <ele>813.4</ele>
        <time>2022-05-21 01:07:41</time>
      </trkpt>
      <trkpt lat="41.81622" lon="2.14942">
        <ele>813.4</ele>
        <time>2022-05-21 01:07:42</time>
      </trkpt>
      <trkpt lat="41.8162" lon="2.14945">
        <ele>813.6</ele>
        <time>2022-05-21 01:07:43</time>
      </trkpt>
      <trkpt lat="41.81618" lon="2.14947">
        <ele>813.8</ele>
        <time>2022-05-21 01:07:44</time>
      </trkpt>
      <trkpt lat="41.81617" lon="2.1495">
        <ele>814</ele>
        <time>2022-05-21 01:07:45</time>
      </trkpt>
      <trkpt lat="41.81615" lon="2.14953">
        <ele>814.2</ele>
        <time>2022-05-21 01:07:46</time>
      </trkpt>
      <trkpt lat="41.81613" lon="2.14957">
        <ele>814.4</ele>
        <time>2022-05-21 01:07:47</time>
      </trkpt>
      <trkpt lat="41.81611" lon="2.1496">
        <ele>814.6</ele>
        <time>2022-05-21 01:07:48</time>
      </trkpt>
      <trkpt lat="41.81609" lon="2.14963">
        <ele>814.8</ele>
        <time>2022-05-21 01:07:49</time>
      </trkpt>
      <trkpt lat="41.81607" lon="2.14966">
        <ele>815</ele>
        <time>2022-05-21 01:07:50</time>
      </trkpt>
      <trkpt lat="41.81606" lon="2.1497">
        <ele>815.2</ele>
        <time>2022-05-21 01:07:51</time>
      </trkpt>
      <trkpt lat="41.81605" lon="2.14973">
        <ele>815.4</ele>
        <time>2022-05-21 01:07:52</time>
      </trkpt>
      <trkpt lat="41.81604" lon="2.14977">
        <ele>815.6</ele>
        <time>2022-05-21 01:07:53</time>
      </trkpt>
      <trkpt lat="41.81602" lon="2.1498">
        <ele>815.8</ele>
        <time>2022-05-21 01:07:54</time>
      </trkpt>
      <trkpt lat="41.81601" lon="2.14984">
        <ele>816</ele>
        <time>2022-05-21 01:07:55</time>
      </trkpt>
      <trkpt lat="41.816" lon="2.14987">
        <ele>816.2</ele>
        <time>2022-05-21 01:07:56</time>
      </trkpt>
      <trkpt lat="41.81599" lon="2.14991">
        <ele>816.4</ele>
        <time>2022-05-21 01:07:57</time>
      </trkpt>
      <trkpt lat="41.81599" lon="2.14995">
        <ele>816.6</ele>
        <time>2022-05-21 01:07:58</time>
      </trkpt>
      <trkpt lat="41.81599" lon="2.14998">
        <ele>816.8</ele>
        <time>2022-05-21 01:07:59</time>
      </trkpt>
      <trkpt lat="41.81598" lon="2.15002">
        <ele>817</ele>
        <time>2022-05-21 01:08:00</time>
      </trkpt>
      <trkpt lat="41.81598" lon="2.15006">
        <ele>817</ele>
        <time>2022-05-21 01:08:01</time>
      </trkpt>
      <trkpt lat="41.81598" lon="2.1501">
        <ele>817.2</ele>
        <time>2022-05-21 01:08:02</time>
      </trkpt>
      <trkpt lat="41.81598" lon="2.15014">
        <ele>817.4</ele>
        <time>2022-05-21 01:08:03</time>
      </trkpt>
      <trkpt lat="41.81598" lon="2.15018">
        <ele>817.6</ele>
        <time>2022-05-21 01:08:04</time>
      </trkpt>
      <trkpt lat="41.81599" lon="2.15022">
        <ele>817.8</ele>
        <time>2022-05-21 01:08:05</time>
      </trkpt>
      <trkpt lat="41.81599" lon="2.15025">
        <ele>818</ele>
        <time>2022-05-21 01:08:06</time>
      </trkpt>
      <trkpt lat="41.816" lon="2.15029">
        <ele>818.2</ele>
        <time>2022-05-21 01:08:07</time>
      </trkpt>
      <trkpt lat="41.81601" lon="2.15034">
        <ele>818.4</ele>
        <time>2022-05-21 01:08:08</time>
      </trkpt>
      <trkpt lat="41.81602" lon="2.15038">
        <ele>818.6</ele>
        <time>2022-05-21 01:08:09</time>
      </trkpt>
      <trkpt lat="41.81604" lon="2.15043">
        <ele>818.6</ele>
        <time>2022-05-21 01:08:10</time>
      </trkpt>
      <trkpt lat="41.81605" lon="2.15047">
        <ele>818.8</ele>
        <time>2022-05-21 01:08:11</time>
      </trkpt>
      <trkpt lat="41.81606" lon="2.15051">
        <ele>819</ele>
        <time>2022-05-21 01:08:12</time>
      </trkpt>
      <trkpt lat="41.81607" lon="2.15055">
        <ele>819.2</ele>
        <time>2022-05-21 01:08:13</time>
      </trkpt>
      <trkpt lat="41.81608" lon="2.15059">
        <ele>819.2</ele>
        <time>2022-05-21 01:08:14</time>
      </trkpt>
      <trkpt lat="41.81609" lon="2.15063">
        <ele>819.4</ele>
        <time>2022-05-21 01:08:15</time>
      </trkpt>
      <trkpt lat="41.8161" lon="2.15067">
        <ele>819.6</ele>
        <time>2022-05-21 01:08:16</time>
      </trkpt>
      <trkpt lat="41.81612" lon="2.15071">
        <ele>819.8</ele>
        <time>2022-05-21 01:08:17</time>
      </trkpt>
      <trkpt lat="41.81614" lon="2.15074">
        <ele>819.8</ele>
        <time>2022-05-21 01:08:18</time>
      </trkpt>
      <trkpt lat="41.81615" lon="2.15077">
        <ele>820</ele>
        <time>2022-05-21 01:08:19</time>
      </trkpt>
      <trkpt lat="41.81617" lon="2.15081">
        <ele>820.2</ele>
        <time>2022-05-21 01:08:20</time>
      </trkpt>
      <trkpt lat="41.81618" lon="2.15085">
        <ele>820.2</ele>
        <time>2022-05-21 01:08:21</time>
      </trkpt>
      <trkpt lat="41.8162" lon="2.15088">
        <ele>820.4</ele>
        <time>2022-05-21 01:08:22</time>
      </trkpt>
      <trkpt lat="41.81621" lon="2.15092">
        <ele>820.6</ele>
        <time>2022-05-21 01:08:23</time>
      </trkpt>
      <trkpt lat="41.81623" lon="2.15095">
        <ele>820.6</ele>
        <time>2022-05-21 01:08:24</time>
      </trkpt>
      <trkpt lat="41.81625" lon="2.15098">
        <ele>820.8</ele>
        <time>2022-05-21 01:08:25</time>
      </trkpt>
      <trkpt lat="41.81627" lon="2.15102">
        <ele>821</ele>
        <time>2022-05-21 01:08:26</time>
      </trkpt>
      <trkpt lat="41.81629" lon="2.15106">
        <ele>821</ele>
        <time>2022-05-21 01:08:27</time>
      </trkpt>
      <trkpt lat="41.8163" lon="2.1511">
        <ele>821.2</ele>
        <time>2022-05-21 01:08:28</time>
      </trkpt>
      <trkpt lat="41.81632" lon="2.15113">
        <ele>821.4</ele>
        <time>2022-05-21 01:08:29</time>
      </trkpt>
      <trkpt lat="41.81633" lon="2.15117">
        <ele>821.4</ele>
        <time>2022-05-21 01:08:30</time>
      </trkpt>
      <trkpt lat="41.81635" lon="2.15121">
        <ele>821.6</ele>
        <time>2022-05-21 01:08:31</time>
      </trkpt>
      <trkpt lat="41.81636" lon="2.15125">
        <ele>821.8</ele>
        <time>2022-05-21 01:08:32</time>
      </trkpt>
      <trkpt lat="41.81638" lon="2.15128">
        <ele>822</ele>
        <time>2022-05-21 01:08:33</time>
      </trkpt>
      <trkpt lat="41.8164" lon="2.15132">
        <ele>822</ele>
        <time>2022-05-21 01:08:34</time>
      </trkpt>
      <trkpt lat="41.81641" lon="2.15136">
        <ele>822.2</ele>
        <time>2022-05-21 01:08:35</time>
      </trkpt>
      <trkpt lat="41.81643" lon="2.1514">
        <ele>822.4</ele>
        <time>2022-05-21 01:08:36</time>
      </trkpt>
      <trkpt lat="41.81644" lon="2.15144">
        <ele>822.6</ele>
        <time>2022-05-21 01:08:37</time>
      </trkpt>
      <trkpt lat="41.81646" lon="2.15148">
        <ele>822.6</ele>
        <time>2022-05-21 01:08:38</time>
      </trkpt>
      <trkpt lat="41.81648" lon="2.15151">
        <ele>822.8</ele>
        <time>2022-05-21 01:08:39</time>
      </trkpt>
      <trkpt lat="41.8165" lon="2.15155">
        <ele>823</ele>
        <time>2022-05-21 01:08:40</time>
      </trkpt>
      <trkpt lat="41.81651" lon="2.15159">
        <ele>823</ele>
        <time>2022-05-21 01:08:41</time>
      </trkpt>
      <trkpt lat="41.81653" lon="2.15163">
        <ele>823.2</ele>
        <time>2022-05-21 01:08:42</time>
      </trkpt>
      <trkpt lat="41.81655" lon="2.15167">
        <ele>823.4</ele>
        <time>2022-05-21 01:08:43</time>
      </trkpt>
      <trkpt lat="41.81657" lon="2.15171">
        <ele>823.6</ele>
        <time>2022-05-21 01:08:44</time>
      </trkpt>
      <trkpt lat="41.81659" lon="2.15175">
        <ele>823.6</ele>
        <time>2022-05-21 01:08:45</time>
      </trkpt>
      <trkpt lat="41.8166" lon="2.15179">
        <ele>823.8</ele>
        <time>2022-05-21 01:08:46</time>
      </trkpt>
      <trkpt lat="41.81662" lon="2.15183">
        <ele>823.8</ele>
        <time>2022-05-21 01:08:47</time>
      </trkpt>
      <trkpt lat="41.81664" lon="2.15187">
        <ele>824</ele>
        <time>2022-05-21 01:08:48</time>
      </trkpt>
      <trkpt lat="41.81665" lon="2.15191">
        <ele>824.2</ele>
        <time>2022-05-21 01:08:49</time>
      </trkpt>
      <trkpt lat="41.81667" lon="2.15195">
        <ele>824.2</ele>
        <time>2022-05-21 01:08:50</time>
      </trkpt>
      <trkpt lat="41.81669" lon="2.15199">
        <ele>824.4</ele>
        <time>2022-05-21 01:08:51</time>
      </trkpt>
      <trkpt lat="41.81671" lon="2.15203">
        <ele>824.4</ele>
        <time>2022-05-21 01:08:52</time>
      </trkpt>
      <trkpt lat="41.81673" lon="2.15207">
        <ele>824.4</ele>
        <time>2022-05-21 01:08:53</time>
      </trkpt>
      <trkpt lat="41.81675" lon="2.15212">
        <ele>824.6</ele>
        <time>2022-05-21 01:08:54</time>
      </trkpt>
      <trkpt lat="41.81676" lon="2.15216">
        <ele>824.6</ele>
        <time>2022-05-21 01:08:55</time>
      </trkpt>
      <trkpt lat="41.81678" lon="2.1522">
        <ele>824.8</ele>
        <time>2022-05-21 01:08:56</time>
      </trkpt>
      <trkpt lat="41.81681" lon="2.15225">
        <ele>824.8</ele>
        <time>2022-05-21 01:08:57</time>
      </trkpt>
      <trkpt lat="41.81683" lon="2.1523">
        <ele>825</ele>
        <time>2022-05-21 01:08:58</time>
      </trkpt>
      <trkpt lat="41.81685" lon="2.15234">
        <ele>825.2</ele>
        <time>2022-05-21 01:08:59</time>
      </trkpt>
      <trkpt lat="41.81687" lon="2.15239">
        <ele>825.4</ele>
        <time>2022-05-21 01:09:00</time>
      </trkpt>
      <trkpt lat="41.81689" lon="2.15243">
        <ele>825.4</ele>
        <time>2022-05-21 01:09:01</time>
      </trkpt>
      <trkpt lat="41.81691" lon="2.15247">
        <ele>825.6</ele>
        <time>2022-05-21 01:09:02</time>
      </trkpt>
      <trkpt lat="41.81693" lon="2.15252">
        <ele>825.8</ele>
        <time>2022-05-21 01:09:03</time>
      </trkpt>
      <trkpt lat="41.81695" lon="2.15256">
        <ele>825.8</ele>
        <time>2022-05-21 01:09:04</time>
      </trkpt>
      <trkpt lat="41.81697" lon="2.15261">
        <ele>826</ele>
        <time>2022-05-21 01:09:05</time>
      </trkpt>
      <trkpt lat="41.81699" lon="2.15265">
        <ele>826.2</ele>
        <time>2022-05-21 01:09:06</time>
      </trkpt>
      <trkpt lat="41.81701" lon="2.15269">
        <ele>826.4</ele>
        <time>2022-05-21 01:09:07</time>
      </trkpt>
      <trkpt lat="41.81702" lon="2.15274">
        <ele>826.4</ele>
        <time>2022-05-21 01:09:08</time>
      </trkpt>
      <trkpt lat="41.81705" lon="2.15278">
        <ele>826.6</ele>
        <time>2022-05-21 01:09:09</time>
      </trkpt>
      <trkpt lat="41.81707" lon="2.15283">
        <ele>826.6</ele>
        <time>2022-05-21 01:09:10</time>
      </trkpt>
      <trkpt lat="41.81709" lon="2.15287">
        <ele>826.8</ele>
        <time>2022-05-21 01:09:11</time>
      </trkpt>
      <trkpt lat="41.81711" lon="2.15292">
        <ele>826.8</ele>
        <time>2022-05-21 01:09:12</time>
      </trkpt>
      <trkpt lat="41.81713" lon="2.15296">
        <ele>827</ele>
        <time>2022-05-21 01:09:13</time>
      </trkpt>
      <trkpt lat="41.81715" lon="2.15301">
        <ele>827</ele>
        <time>2022-05-21 01:09:14</time>
      </trkpt>
      <trkpt lat="41.81717" lon="2.15305">
        <ele>827.2</ele>
        <time>2022-05-21 01:09:15</time>
      </trkpt>
      <trkpt lat="41.81719" lon="2.1531">
        <ele>827.2</ele>
        <time>2022-05-21 01:09:16</time>
      </trkpt>
      <trkpt lat="41.81721" lon="2.15315">
        <ele>827.4</ele>
        <time>2022-05-21 01:09:17</time>
      </trkpt>
      <trkpt lat="41.81722" lon="2.1532">
        <ele>827.4</ele>
        <time>2022-05-21 01:09:18</time>
      </trkpt>
      <trkpt lat="41.81724" lon="2.15325">
        <ele>827.6</ele>
        <time>2022-05-21 01:09:19</time>
      </trkpt>
      <trkpt lat="41.81726" lon="2.15328">
        <ele>827.6</ele>
        <time>2022-05-21 01:09:20</time>
      </trkpt>
      <trkpt lat="41.81728" lon="2.15333">
        <ele>827.8</ele>
        <time>2022-05-21 01:09:21</time>
      </trkpt>
      <trkpt lat="41.8173" lon="2.15337">
        <ele>828</ele>
        <time>2022-05-21 01:09:22</time>
      </trkpt>
      <trkpt lat="41.81731" lon="2.15342">
        <ele>828</ele>
        <time>2022-05-21 01:09:23</time>
      </trkpt>
      <trkpt lat="41.81734" lon="2.15346">
        <ele>828.2</ele>
        <time>2022-05-21 01:09:24</time>
      </trkpt>
      <trkpt lat="41.81736" lon="2.1535">
        <ele>828.2</ele>
        <time>2022-05-21 01:09:25</time>
      </trkpt>
      <trkpt lat="41.81738" lon="2.15354">
        <ele>828.4</ele>
        <time>2022-05-21 01:09:26</time>
      </trkpt>
      <trkpt lat="41.81739" lon="2.15358">
        <ele>828.6</ele>
        <time>2022-05-21 01:09:27</time>
      </trkpt>
      <trkpt lat="41.81741" lon="2.15363">
        <ele>828.6</ele>
        <time>2022-05-21 01:09:28</time>
      </trkpt>
      <trkpt lat="41.81744" lon="2.15368">
        <ele>828.8</ele>
        <time>2022-05-21 01:09:29</time>
      </trkpt>
      <trkpt lat="41.81746" lon="2.15372">
        <ele>828.8</ele>
        <time>2022-05-21 01:09:30</time>
      </trkpt>
      <trkpt lat="41.81748" lon="2.15376">
        <ele>829</ele>
        <time>2022-05-21 01:09:31</time>
      </trkpt>
      <trkpt lat="41.8175" lon="2.15381">
        <ele>829.2</ele>
        <time>2022-05-21 01:09:32</time>
      </trkpt>
      <trkpt lat="41.81752" lon="2.15385">
        <ele>829.2</ele>
        <time>2022-05-21 01:09:33</time>
      </trkpt>
      <trkpt lat="41.81754" lon="2.1539">
        <ele>829.2</ele>
        <time>2022-05-21 01:09:34</time>
      </trkpt>
      <trkpt lat="41.81755" lon="2.15395">
        <ele>829.2</ele>
        <time>2022-05-21 01:09:35</time>
      </trkpt>
      <trkpt lat="41.81757" lon="2.154">
        <ele>829.4</ele>
        <time>2022-05-21 01:09:36</time>
      </trkpt>
      <trkpt lat="41.81759" lon="2.15405">
        <ele>829.4</ele>
        <time>2022-05-21 01:09:37</time>
      </trkpt>
      <trkpt lat="41.81762" lon="2.1541">
        <ele>829.4</ele>
        <time>2022-05-21 01:09:38</time>
      </trkpt>
      <trkpt lat="41.81763" lon="2.15415">
        <ele>829.6</ele>
        <time>2022-05-21 01:09:39</time>
      </trkpt>
      <trkpt lat="41.81765" lon="2.15419">
        <ele>829.8</ele>
        <time>2022-05-21 01:09:40</time>
      </trkpt>
      <trkpt lat="41.81767" lon="2.15424">
        <ele>829.8</ele>
        <time>2022-05-21 01:09:41</time>
      </trkpt>
      <trkpt lat="41.81769" lon="2.15428">
        <ele>830</ele>
        <time>2022-05-21 01:09:42</time>
      </trkpt>
      <trkpt lat="41.8177" lon="2.15433">
        <ele>830.2</ele>
        <time>2022-05-21 01:09:43</time>
      </trkpt>
      <trkpt lat="41.81772" lon="2.15437">
        <ele>830.4</ele>
        <time>2022-05-21 01:09:44</time>
      </trkpt>
      <trkpt lat="41.81774" lon="2.15441">
        <ele>830.6</ele>
        <time>2022-05-21 01:09:45</time>
      </trkpt>
      <trkpt lat="41.81776" lon="2.15445">
        <ele>830.6</ele>
        <time>2022-05-21 01:09:46</time>
      </trkpt>
      <trkpt lat="41.81778" lon="2.15448">
        <ele>830.8</ele>
        <time>2022-05-21 01:09:47</time>
      </trkpt>
      <trkpt lat="41.8178" lon="2.15452">
        <ele>831</ele>
        <time>2022-05-21 01:09:48</time>
      </trkpt>
      <trkpt lat="41.81782" lon="2.15456">
        <ele>831.2</ele>
        <time>2022-05-21 01:09:49</time>
      </trkpt>
      <trkpt lat="41.81784" lon="2.15459">
        <ele>831.4</ele>
        <time>2022-05-21 01:09:50</time>
      </trkpt>
      <trkpt lat="41.81786" lon="2.15463">
        <ele>831.4</ele>
        <time>2022-05-21 01:09:51</time>
      </trkpt>
      <trkpt lat="41.81787" lon="2.15468">
        <ele>831.6</ele>
        <time>2022-05-21 01:09:52</time>
      </trkpt>
      <trkpt lat="41.81789" lon="2.15473">
        <ele>831.8</ele>
        <time>2022-05-21 01:09:53</time>
      </trkpt>
      <trkpt lat="41.81791" lon="2.15477">
        <ele>832</ele>
        <time>2022-05-21 01:09:54</time>
      </trkpt>
      <trkpt lat="41.81793" lon="2.1548">
        <ele>832.2</ele>
        <time>2022-05-21 01:09:55</time>
      </trkpt>
      <trkpt lat="41.81795" lon="2.15484">
        <ele>832.4</ele>
        <time>2022-05-21 01:09:56</time>
      </trkpt>
      <trkpt lat="41.81796" lon="2.15489">
        <ele>832.4</ele>
        <time>2022-05-21 01:09:57</time>
      </trkpt>
      <trkpt lat="41.81797" lon="2.15493">
        <ele>832.6</ele>
        <time>2022-05-21 01:09:58</time>
      </trkpt>
      <trkpt lat="41.81799" lon="2.15497">
        <ele>832.8</ele>
        <time>2022-05-21 01:09:59</time>
      </trkpt>
      <trkpt lat="41.818" lon="2.15502">
        <ele>832.8</ele>
        <time>2022-05-21 01:10:00</time>
      </trkpt>
      <trkpt lat="41.81802" lon="2.15506">
        <ele>833</ele>
        <time>2022-05-21 01:10:01</time>
      </trkpt>
      <trkpt lat="41.81804" lon="2.15509">
        <ele>833.2</ele>
        <time>2022-05-21 01:10:02</time>
      </trkpt>
      <trkpt lat="41.81805" lon="2.15512">
        <ele>833.4</ele>
        <time>2022-05-21 01:10:03</time>
      </trkpt>
      <trkpt lat="41.81807" lon="2.15515">
        <ele>833.6</ele>
        <time>2022-05-21 01:10:04</time>
      </trkpt>
      <trkpt lat="41.81809" lon="2.15519">
        <ele>833.6</ele>
        <time>2022-05-21 01:10:05</time>
      </trkpt>
      <trkpt lat="41.81811" lon="2.15523">
        <ele>833.8</ele>
        <time>2022-05-21 01:10:06</time>
      </trkpt>
      <trkpt lat="41.81812" lon="2.15527">
        <ele>834</ele>
        <time>2022-05-21 01:10:07</time>
      </trkpt>
      <trkpt lat="41.81813" lon="2.15531">
        <ele>834.2</ele>
        <time>2022-05-21 01:10:08</time>
      </trkpt>
      <trkpt lat="41.81815" lon="2.15534">
        <ele>834.2</ele>
        <time>2022-05-21 01:10:09</time>
      </trkpt>
      <trkpt lat="41.81817" lon="2.15539">
        <ele>834.4</ele>
        <time>2022-05-21 01:10:10</time>
      </trkpt>
      <trkpt lat="41.81818" lon="2.15543">
        <ele>834.6</ele>
        <time>2022-05-21 01:10:11</time>
      </trkpt>
      <trkpt lat="41.8182" lon="2.15547">
        <ele>834.8</ele>
        <time>2022-05-21 01:10:12</time>
      </trkpt>
      <trkpt lat="41.81822" lon="2.15551">
        <ele>834.8</ele>
        <time>2022-05-21 01:10:13</time>
      </trkpt>
      <trkpt lat="41.81824" lon="2.15555">
        <ele>835</ele>
        <time>2022-05-21 01:10:14</time>
      </trkpt>
      <trkpt lat="41.81825" lon="2.15559">
        <ele>835.2</ele>
        <time>2022-05-21 01:10:15</time>
      </trkpt>
      <trkpt lat="41.81827" lon="2.15563">
        <ele>835.4</ele>
        <time>2022-05-21 01:10:16</time>
      </trkpt>
      <trkpt lat="41.81828" lon="2.15567">
        <ele>835.4</ele>
        <time>2022-05-21 01:10:17</time>
      </trkpt>
      <trkpt lat="41.8183" lon="2.15571">
        <ele>835.6</ele>
        <time>2022-05-21 01:10:18</time>
      </trkpt>
      <trkpt lat="41.81832" lon="2.15574">
        <ele>835.8</ele>
        <time>2022-05-21 01:10:19</time>
      </trkpt>
      <trkpt lat="41.81833" lon="2.15578">
        <ele>836</ele>
        <time>2022-05-21 01:10:20</time>
      </trkpt>
      <trkpt lat="41.81835" lon="2.15582">
        <ele>836</ele>
        <time>2022-05-21 01:10:21</time>
      </trkpt>
      <trkpt lat="41.81837" lon="2.15586">
        <ele>836.2</ele>
        <time>2022-05-21 01:10:22</time>
      </trkpt>
      <trkpt lat="41.81838" lon="2.1559">
        <ele>836.4</ele>
        <time>2022-05-21 01:10:23</time>
      </trkpt>
      <trkpt lat="41.8184" lon="2.15593">
        <ele>836.6</ele>
        <time>2022-05-21 01:10:24</time>
      </trkpt>
      <trkpt lat="41.81841" lon="2.15598">
        <ele>836.8</ele>
        <time>2022-05-21 01:10:25</time>
      </trkpt>
      <trkpt lat="41.81842" lon="2.15602">
        <ele>836.8</ele>
        <time>2022-05-21 01:10:26</time>
      </trkpt>
      <trkpt lat="41.81844" lon="2.15606">
        <ele>837</ele>
        <time>2022-05-21 01:10:27</time>
      </trkpt>
      <trkpt lat="41.81846" lon="2.15609">
        <ele>837.2</ele>
        <time>2022-05-21 01:10:28</time>
      </trkpt>
      <trkpt lat="41.81847" lon="2.15613">
        <ele>837.4</ele>
        <time>2022-05-21 01:10:29</time>
      </trkpt>
      <trkpt lat="41.81847" lon="2.15617">
        <ele>837.4</ele>
        <time>2022-05-21 01:10:30</time>
      </trkpt>
      <trkpt lat="41.81849" lon="2.1562">
        <ele>837.6</ele>
        <time>2022-05-21 01:10:31</time>
      </trkpt>
      <trkpt lat="41.81851" lon="2.15623">
        <ele>837.8</ele>
        <time>2022-05-21 01:10:32</time>
      </trkpt>
      <trkpt lat="41.81853" lon="2.15626">
        <ele>838</ele>
        <time>2022-05-21 01:10:33</time>
      </trkpt>
      <trkpt lat="41.81854" lon="2.1563">
        <ele>838</ele>
        <time>2022-05-21 01:10:34</time>
      </trkpt>
      <trkpt lat="41.81856" lon="2.15633">
        <ele>838.2</ele>
        <time>2022-05-21 01:10:35</time>
      </trkpt>
      <trkpt lat="41.81858" lon="2.15637">
        <ele>838.4</ele>
        <time>2022-05-21 01:10:36</time>
      </trkpt>
      <trkpt lat="41.8186" lon="2.15641">
        <ele>838.6</ele>
        <time>2022-05-21 01:10:37</time>
      </trkpt>
      <trkpt lat="41.81862" lon="2.15645">
        <ele>838.8</ele>
        <time>2022-05-21 01:10:38</time>
      </trkpt>
      <trkpt lat="41.81863" lon="2.15649">
        <ele>838.8</ele>
        <time>2022-05-21 01:10:39</time>
      </trkpt>
      <trkpt lat="41.81865" lon="2.15653">
        <ele>839</ele>
        <time>2022-05-21 01:10:40</time>
      </trkpt>
      <trkpt lat="41.81866" lon="2.15657">
        <ele>839.2</ele>
        <time>2022-05-21 01:10:41</time>
      </trkpt>
      <trkpt lat="41.81868" lon="2.15661">
        <ele>839.2</ele>
        <time>2022-05-21 01:10:42</time>
      </trkpt>
      <trkpt lat="41.8187" lon="2.15665">
        <ele>839.4</ele>
        <time>2022-05-21 01:10:43</time>
      </trkpt>
      <trkpt lat="41.81871" lon="2.1567">
        <ele>839.6</ele>
        <time>2022-05-21 01:10:44</time>
      </trkpt>
      <trkpt lat="41.81873" lon="2.15674">
        <ele>839.6</ele>
        <time>2022-05-21 01:10:45</time>
      </trkpt>
      <trkpt lat="41.81875" lon="2.15679">
        <ele>839.8</ele>
        <time>2022-05-21 01:10:46</time>
      </trkpt>
      <trkpt lat="41.81877" lon="2.15683">
        <ele>840</ele>
        <time>2022-05-21 01:10:47</time>
      </trkpt>
      <trkpt lat="41.81879" lon="2.15687">
        <ele>840</ele>
        <time>2022-05-21 01:10:48</time>
      </trkpt>
      <trkpt lat="41.81881" lon="2.15692">
        <ele>840.2</ele>
        <time>2022-05-21 01:10:49</time>
      </trkpt>
      <trkpt lat="41.81883" lon="2.15697">
        <ele>840.2</ele>
        <time>2022-05-21 01:10:50</time>
      </trkpt>
      <trkpt lat="41.81885" lon="2.15702">
        <ele>840.4</ele>
        <time>2022-05-21 01:10:51</time>
      </trkpt>
      <trkpt lat="41.81887" lon="2.15706">
        <ele>840.4</ele>
        <time>2022-05-21 01:10:52</time>
      </trkpt>
      <trkpt lat="41.81889" lon="2.15711">
        <ele>840.6</ele>
        <time>2022-05-21 01:10:53</time>
      </trkpt>
      <trkpt lat="41.81891" lon="2.15715">
        <ele>840.6</ele>
        <time>2022-05-21 01:10:54</time>
      </trkpt>
      <trkpt lat="41.81893" lon="2.1572">
        <ele>840.8</ele>
        <time>2022-05-21 01:10:55</time>
      </trkpt>
      <trkpt lat="41.81895" lon="2.15724">
        <ele>840.8</ele>
        <time>2022-05-21 01:10:56</time>
      </trkpt>
      <trkpt lat="41.81897" lon="2.15729">
        <ele>841</ele>
        <time>2022-05-21 01:10:57</time>
      </trkpt>
      <trkpt lat="41.81899" lon="2.15734">
        <ele>841</ele>
        <time>2022-05-21 01:10:58</time>
      </trkpt>
      <trkpt lat="41.819" lon="2.15738">
        <ele>841.2</ele>
        <time>2022-05-21 01:10:59</time>
      </trkpt>
      <trkpt lat="41.81902" lon="2.15743">
        <ele>841.2</ele>
        <time>2022-05-21 01:11:00</time>
      </trkpt>
      <trkpt lat="41.81904" lon="2.15747">
        <ele>841.4</ele>
        <time>2022-05-21 01:11:01</time>
      </trkpt>
      <trkpt lat="41.81906" lon="2.15752">
        <ele>841.4</ele>
        <time>2022-05-21 01:11:02</time>
      </trkpt>
      <trkpt lat="41.81908" lon="2.15757">
        <ele>841.6</ele>
        <time>2022-05-21 01:11:03</time>
      </trkpt>
      <trkpt lat="41.8191" lon="2.15762">
        <ele>841.6</ele>
        <time>2022-05-21 01:11:04</time>
      </trkpt>
      <trkpt lat="41.81912" lon="2.15767">
        <ele>841.8</ele>
        <time>2022-05-21 01:11:05</time>
      </trkpt>
      <trkpt lat="41.81915" lon="2.15771">
        <ele>841.8</ele>
        <time>2022-05-21 01:11:06</time>
      </trkpt>
      <trkpt lat="41.81916" lon="2.15776">
        <ele>842</ele>
        <time>2022-05-21 01:11:07</time>
      </trkpt>
      <trkpt lat="41.81918" lon="2.1578">
        <ele>842</ele>
        <time>2022-05-21 01:11:08</time>
      </trkpt>
      <trkpt lat="41.8192" lon="2.15785">
        <ele>842.2</ele>
        <time>2022-05-21 01:11:09</time>
      </trkpt>
      <trkpt lat="41.81921" lon="2.1579">
        <ele>842.2</ele>
        <time>2022-05-21 01:11:10</time>
      </trkpt>
      <trkpt lat="41.81923" lon="2.15794">
        <ele>842.2</ele>
        <time>2022-05-21 01:11:11</time>
      </trkpt>
      <trkpt lat="41.81926" lon="2.15798">
        <ele>842.4</ele>
        <time>2022-05-21 01:11:12</time>
      </trkpt>
      <trkpt lat="41.81928" lon="2.15802">
        <ele>842.4</ele>
        <time>2022-05-21 01:11:13</time>
      </trkpt>
      <trkpt lat="41.81931" lon="2.15807">
        <ele>842.4</ele>
        <time>2022-05-21 01:11:14</time>
      </trkpt>
      <trkpt lat="41.81935" lon="2.15811">
        <ele>842.4</ele>
        <time>2022-05-21 01:11:15</time>
      </trkpt>
      <trkpt lat="41.81939" lon="2.15815">
        <ele>842.4</ele>
        <time>2022-05-21 01:11:16</time>
      </trkpt>
      <trkpt lat="41.81943" lon="2.15818">
        <ele>842.4</ele>
        <time>2022-05-21 01:11:17</time>
      </trkpt>
      <trkpt lat="41.81947" lon="2.15821">
        <ele>842.4</ele>
        <time>2022-05-21 01:11:18</time>
      </trkpt>
      <trkpt lat="41.81952" lon="2.15824">
        <ele>842.4</ele>
        <time>2022-05-21 01:11:19</time>
      </trkpt>
      <trkpt lat="41.81956" lon="2.15828">
        <ele>842.4</ele>
        <time>2022-05-21 01:11:20</time>
      </trkpt>
      <trkpt lat="41.8196" lon="2.15832">
        <ele>842.4</ele>
        <time>2022-05-21 01:11:21</time>
      </trkpt>
      <trkpt lat="41.81964" lon="2.15836">
        <ele>842.4</ele>
        <time>2022-05-21 01:11:22</time>
      </trkpt>
      <trkpt lat="41.81969" lon="2.15839">
        <ele>842.4</ele>
        <time>2022-05-21 01:11:23</time>
      </trkpt>
      <trkpt lat="41.81972" lon="2.15842">
        <ele>842.2</ele>
        <time>2022-05-21 01:11:24</time>
      </trkpt>
      <trkpt lat="41.81976" lon="2.15844">
        <ele>842.2</ele>
        <time>2022-05-21 01:11:25</time>
      </trkpt>
      <trkpt lat="41.81981" lon="2.15847">
        <ele>842.2</ele>
        <time>2022-05-21 01:11:26</time>
      </trkpt>
      <trkpt lat="41.81985" lon="2.15851">
        <ele>842.2</ele>
        <time>2022-05-21 01:11:27</time>
      </trkpt>
      <trkpt lat="41.8199" lon="2.15854">
        <ele>842</ele>
        <time>2022-05-21 01:11:28</time>
      </trkpt>
      <trkpt lat="41.81996" lon="2.15858">
        <ele>842</ele>
        <time>2022-05-21 01:11:29</time>
      </trkpt>
      <trkpt lat="41.82001" lon="2.15861">
        <ele>842</ele>
        <time>2022-05-21 01:11:30</time>
      </trkpt>
      <trkpt lat="41.82007" lon="2.15863">
        <ele>842</ele>
        <time>2022-05-21 01:11:31</time>
      </trkpt>
      <trkpt lat="41.82013" lon="2.15866">
        <ele>841.8</ele>
        <time>2022-05-21 01:11:32</time>
      </trkpt>
      <trkpt lat="41.82018" lon="2.15869">
        <ele>841.8</ele>
        <time>2022-05-21 01:11:33</time>
      </trkpt>
      <trkpt lat="41.82024" lon="2.15872">
        <ele>841.6</ele>
        <time>2022-05-21 01:11:34</time>
      </trkpt>
      <trkpt lat="41.82031" lon="2.15874">
        <ele>841.4</ele>
        <time>2022-05-21 01:11:35</time>
      </trkpt>
      <trkpt lat="41.82038" lon="2.15877">
        <ele>841</ele>
        <time>2022-05-21 01:11:36</time>
      </trkpt>
      <trkpt lat="41.82045" lon="2.1588">
        <ele>840.8</ele>
        <time>2022-05-21 01:11:37</time>
      </trkpt>
      <trkpt lat="41.82051" lon="2.15884">
        <ele>840.6</ele>
        <time>2022-05-21 01:11:38</time>
      </trkpt>
      <trkpt lat="41.82058" lon="2.15888">
        <ele>840.2</ele>
        <time>2022-05-21 01:11:39</time>
      </trkpt>
      <trkpt lat="41.82065" lon="2.15893">
        <ele>840</ele>
        <time>2022-05-21 01:11:40</time>
      </trkpt>
      <trkpt lat="41.82072" lon="2.15899">
        <ele>839.6</ele>
        <time>2022-05-21 01:11:41</time>
      </trkpt>
      <trkpt lat="41.82077" lon="2.15906">
        <ele>839.4</ele>
        <time>2022-05-21 01:11:42</time>
      </trkpt>
      <trkpt lat="41.82082" lon="2.15914">
        <ele>839.2</ele>
        <time>2022-05-21 01:11:43</time>
      </trkpt>
      <trkpt lat="41.82087" lon="2.15923">
        <ele>839</ele>
        <time>2022-05-21 01:11:44</time>
      </trkpt>
      <trkpt lat="41.8209" lon="2.15932">
        <ele>839</ele>
        <time>2022-05-21 01:11:45</time>
      </trkpt>
      <trkpt lat="41.82093" lon="2.15941">
        <ele>839</ele>
        <time>2022-05-21 01:11:46</time>
      </trkpt>
      <trkpt lat="41.82095" lon="2.1595">
        <ele>839.2</ele>
        <time>2022-05-21 01:11:47</time>
      </trkpt>
      <trkpt lat="41.82097" lon="2.15959">
        <ele>839.2</ele>
        <time>2022-05-21 01:11:48</time>
      </trkpt>
      <trkpt lat="41.82099" lon="2.15967">
        <ele>839.4</ele>
        <time>2022-05-21 01:11:49</time>
      </trkpt>
      <trkpt lat="41.82101" lon="2.15975">
        <ele>839.6</ele>
        <time>2022-05-21 01:11:50</time>
      </trkpt>
      <trkpt lat="41.82103" lon="2.15983">
        <ele>839.8</ele>
        <time>2022-05-21 01:11:51</time>
      </trkpt>
      <trkpt lat="41.82104" lon="2.1599">
        <ele>840</ele>
        <time>2022-05-21 01:11:52</time>
      </trkpt>
      <trkpt lat="41.82106" lon="2.15997">
        <ele>840.4</ele>
        <time>2022-05-21 01:11:53</time>
      </trkpt>
      <trkpt lat="41.82108" lon="2.16004">
        <ele>840.6</ele>
        <time>2022-05-21 01:11:54</time>
      </trkpt>
      <trkpt lat="41.82109" lon="2.16011">
        <ele>840.6</ele>
        <time>2022-05-21 01:11:55</time>
      </trkpt>
      <trkpt lat="41.8211" lon="2.16018">
        <ele>840.8</ele>
        <time>2022-05-21 01:11:56</time>
      </trkpt>
      <trkpt lat="41.82111" lon="2.16025">
        <ele>841</ele>
        <time>2022-05-21 01:11:57</time>
      </trkpt>
      <trkpt lat="41.82113" lon="2.16032">
        <ele>841.2</ele>
        <time>2022-05-21 01:11:58</time>
      </trkpt>
      <trkpt lat="41.82114" lon="2.16038">
        <ele>841.4</ele>
        <time>2022-05-21 01:11:59</time>
      </trkpt>
      <trkpt lat="41.82116" lon="2.16045">
        <ele>841.6</ele>
        <time>2022-05-21 01:12:00</time>
      </trkpt>
      <trkpt lat="41.82117" lon="2.16051">
        <ele>841.8</ele>
        <time>2022-05-21 01:12:01</time>
      </trkpt>
      <trkpt lat="41.82119" lon="2.16058">
        <ele>842</ele>
        <time>2022-05-21 01:12:02</time>
      </trkpt>
      <trkpt lat="41.8212" lon="2.16064">
        <ele>842.2</ele>
        <time>2022-05-21 01:12:03</time>
      </trkpt>
      <trkpt lat="41.82122" lon="2.1607">
        <ele>842.4</ele>
        <time>2022-05-21 01:12:04</time>
      </trkpt>
      <trkpt lat="41.82123" lon="2.16076">
        <ele>842.6</ele>
        <time>2022-05-21 01:12:05</time>
      </trkpt>
      <trkpt lat="41.82125" lon="2.16081">
        <ele>842.8</ele>
        <time>2022-05-21 01:12:06</time>
      </trkpt>
      <trkpt lat="41.82128" lon="2.16086">
        <ele>843</ele>
        <time>2022-05-21 01:12:07</time>
      </trkpt>
      <trkpt lat="41.8213" lon="2.16092">
        <ele>843.2</ele>
        <time>2022-05-21 01:12:08</time>
      </trkpt>
      <trkpt lat="41.82133" lon="2.16097">
        <ele>843.4</ele>
        <time>2022-05-21 01:12:09</time>
      </trkpt>
      <trkpt lat="41.82137" lon="2.16101">
        <ele>843.6</ele>
        <time>2022-05-21 01:12:10</time>
      </trkpt>
      <trkpt lat="41.8214" lon="2.16105">
        <ele>843.6</ele>
        <time>2022-05-21 01:12:11</time>
      </trkpt>
      <trkpt lat="41.82144" lon="2.16108">
        <ele>843.8</ele>
        <time>2022-05-21 01:12:12</time>
      </trkpt>
      <trkpt lat="41.82148" lon="2.16111">
        <ele>844</ele>
        <time>2022-05-21 01:12:13</time>
      </trkpt>
      <trkpt lat="41.82153" lon="2.16114">
        <ele>844.2</ele>
        <time>2022-05-21 01:12:14</time>
      </trkpt>
      <trkpt lat="41.82157" lon="2.16116">
        <ele>844.6</ele>
        <time>2022-05-21 01:12:15</time>
      </trkpt>
      <trkpt lat="41.82161" lon="2.16119">
        <ele>844.6</ele>
        <time>2022-05-21 01:12:16</time>
      </trkpt>
      <trkpt lat="41.82165" lon="2.16121">
        <ele>844.8</ele>
        <time>2022-05-21 01:12:17</time>
      </trkpt>
      <trkpt lat="41.82169" lon="2.16123">
        <ele>845</ele>
        <time>2022-05-21 01:12:18</time>
      </trkpt>
      <trkpt lat="41.82173" lon="2.16125">
        <ele>845.2</ele>
        <time>2022-05-21 01:12:19</time>
      </trkpt>
      <trkpt lat="41.82177" lon="2.16126">
        <ele>845.2</ele>
        <time>2022-05-21 01:12:20</time>
      </trkpt>
      <trkpt lat="41.82182" lon="2.16128">
        <ele>845.4</ele>
        <time>2022-05-21 01:12:21</time>
      </trkpt>
      <trkpt lat="41.82185" lon="2.16129">
        <ele>845.6</ele>
        <time>2022-05-21 01:12:22</time>
      </trkpt>
      <trkpt lat="41.8219" lon="2.16131">
        <ele>845.6</ele>
        <time>2022-05-21 01:12:23</time>
      </trkpt>
      <trkpt lat="41.82194" lon="2.16132">
        <ele>845.8</ele>
        <time>2022-05-21 01:12:24</time>
      </trkpt>
      <trkpt lat="41.82197" lon="2.16134">
        <ele>846</ele>
        <time>2022-05-21 01:12:25</time>
      </trkpt>
      <trkpt lat="41.82201" lon="2.16135">
        <ele>846</ele>
        <time>2022-05-21 01:12:26</time>
      </trkpt>
      <trkpt lat="41.82206" lon="2.16136">
        <ele>846.2</ele>
        <time>2022-05-21 01:12:27</time>
      </trkpt>
      <trkpt lat="41.82209" lon="2.16138">
        <ele>846.4</ele>
        <time>2022-05-21 01:12:28</time>
      </trkpt>
      <trkpt lat="41.82213" lon="2.16139">
        <ele>846.6</ele>
        <time>2022-05-21 01:12:29</time>
      </trkpt>
      <trkpt lat="41.82217" lon="2.16141">
        <ele>846.6</ele>
        <time>2022-05-21 01:12:30</time>
      </trkpt>
      <trkpt lat="41.8222" lon="2.16142">
        <ele>846.8</ele>
        <time>2022-05-21 01:12:31</time>
      </trkpt>
      <trkpt lat="41.82224" lon="2.16144">
        <ele>846.8</ele>
        <time>2022-05-21 01:12:32</time>
      </trkpt>
      <trkpt lat="41.82228" lon="2.16146">
        <ele>847</ele>
        <time>2022-05-21 01:12:33</time>
      </trkpt>
      <trkpt lat="41.82232" lon="2.16148">
        <ele>847</ele>
        <time>2022-05-21 01:12:34</time>
      </trkpt>
      <trkpt lat="41.82236" lon="2.1615">
        <ele>847.2</ele>
        <time>2022-05-21 01:12:35</time>
      </trkpt>
      <trkpt lat="41.8224" lon="2.16153">
        <ele>847.2</ele>
        <time>2022-05-21 01:12:36</time>
      </trkpt>
      <trkpt lat="41.82243" lon="2.16155">
        <ele>847.2</ele>
        <time>2022-05-21 01:12:37</time>
      </trkpt>
      <trkpt lat="41.82247" lon="2.16158">
        <ele>847.2</ele>
        <time>2022-05-21 01:12:38</time>
      </trkpt>
      <trkpt lat="41.82251" lon="2.16161">
        <ele>847.4</ele>
        <time>2022-05-21 01:12:39</time>
      </trkpt>
      <trkpt lat="41.82255" lon="2.16165">
        <ele>847.4</ele>
        <time>2022-05-21 01:12:40</time>
      </trkpt>
      <trkpt lat="41.82258" lon="2.16169">
        <ele>847.4</ele>
        <time>2022-05-21 01:12:41</time>
      </trkpt>
      <trkpt lat="41.82262" lon="2.16173">
        <ele>847.6</ele>
        <time>2022-05-21 01:12:42</time>
      </trkpt>
      <trkpt lat="41.82265" lon="2.16177">
        <ele>847.6</ele>
        <time>2022-05-21 01:12:43</time>
      </trkpt>
      <trkpt lat="41.82268" lon="2.16181">
        <ele>847.6</ele>
        <time>2022-05-21 01:12:44</time>
      </trkpt>
      <trkpt lat="41.82271" lon="2.16185">
        <ele>847.8</ele>
        <time>2022-05-21 01:12:45</time>
      </trkpt>
      <trkpt lat="41.82274" lon="2.1619">
        <ele>847.8</ele>
        <time>2022-05-21 01:12:46</time>
      </trkpt>
      <trkpt lat="41.82277" lon="2.16194">
        <ele>847.8</ele>
        <time>2022-05-21 01:12:47</time>
      </trkpt>
      <trkpt lat="41.82279" lon="2.16199">
        <ele>848</ele>
        <time>2022-05-21 01:12:48</time>
      </trkpt>
      <trkpt lat="41.82282" lon="2.16204">
        <ele>848</ele>
        <time>2022-05-21 01:12:49</time>
      </trkpt>
      <trkpt lat="41.82285" lon="2.16209">
        <ele>848</ele>
        <time>2022-05-21 01:12:50</time>
      </trkpt>
      <trkpt lat="41.82288" lon="2.16213">
        <ele>848</ele>
        <time>2022-05-21 01:12:51</time>
      </trkpt>
      <trkpt lat="41.8229" lon="2.16218">
        <ele>848.2</ele>
        <time>2022-05-21 01:12:52</time>
      </trkpt>
      <trkpt lat="41.82293" lon="2.16223">
        <ele>848.2</ele>
        <time>2022-05-21 01:12:53</time>
      </trkpt>
      <trkpt lat="41.82296" lon="2.16228">
        <ele>848.2</ele>
        <time>2022-05-21 01:12:54</time>
      </trkpt>
      <trkpt lat="41.82298" lon="2.16233">
        <ele>848.4</ele>
        <time>2022-05-21 01:12:55</time>
      </trkpt>
      <trkpt lat="41.82301" lon="2.16238">
        <ele>848.4</ele>
        <time>2022-05-21 01:12:56</time>
      </trkpt>
      <trkpt lat="41.82303" lon="2.16243">
        <ele>848.6</ele>
        <time>2022-05-21 01:12:57</time>
      </trkpt>
      <trkpt lat="41.82305" lon="2.16248">
        <ele>848.8</ele>
        <time>2022-05-21 01:12:58</time>
      </trkpt>
      <trkpt lat="41.82307" lon="2.16253">
        <ele>848.8</ele>
        <time>2022-05-21 01:12:59</time>
      </trkpt>
      <trkpt lat="41.82309" lon="2.16258">
        <ele>849</ele>
        <time>2022-05-21 01:13:00</time>
      </trkpt>
      <trkpt lat="41.82311" lon="2.16262">
        <ele>849.2</ele>
        <time>2022-05-21 01:13:01</time>
      </trkpt>
      <trkpt lat="41.82314" lon="2.16267">
        <ele>849.4</ele>
        <time>2022-05-21 01:13:02</time>
      </trkpt>
      <trkpt lat="41.82315" lon="2.16271">
        <ele>849.6</ele>
        <time>2022-05-21 01:13:03</time>
      </trkpt>
      <trkpt lat="41.82317" lon="2.16276">
        <ele>849.8</ele>
        <time>2022-05-21 01:13:04</time>
      </trkpt>
      <trkpt lat="41.82319" lon="2.1628">
        <ele>850</ele>
        <time>2022-05-21 01:13:05</time>
      </trkpt>
      <trkpt lat="41.8232" lon="2.16285">
        <ele>850.2</ele>
        <time>2022-05-21 01:13:06</time>
      </trkpt>
      <trkpt lat="41.82321" lon="2.1629">
        <ele>850.4</ele>
        <time>2022-05-21 01:13:07</time>
      </trkpt>
      <trkpt lat="41.82322" lon="2.16295">
        <ele>850.4</ele>
        <time>2022-05-21 01:13:08</time>
      </trkpt>
      <trkpt lat="41.82323" lon="2.163">
        <ele>850.6</ele>
        <time>2022-05-21 01:13:09</time>
      </trkpt>
      <trkpt lat="41.82324" lon="2.16304">
        <ele>850.8</ele>
        <time>2022-05-21 01:13:10</time>
      </trkpt>
      <trkpt lat="41.82326" lon="2.16309">
        <ele>851</ele>
        <time>2022-05-21 01:13:11</time>
      </trkpt>
      <trkpt lat="41.82327" lon="2.16313">
        <ele>851.2</ele>
        <time>2022-05-21 01:13:12</time>
      </trkpt>
      <trkpt lat="41.82329" lon="2.16318">
        <ele>851.4</ele>
        <time>2022-05-21 01:13:13</time>
      </trkpt>
      <trkpt lat="41.8233" lon="2.16322">
        <ele>851.6</ele>
        <time>2022-05-21 01:13:14</time>
      </trkpt>
      <trkpt lat="41.82331" lon="2.16327">
        <ele>851.8</ele>
        <time>2022-05-21 01:13:15</time>
      </trkpt>
      <trkpt lat="41.82333" lon="2.16331">
        <ele>852</ele>
        <time>2022-05-21 01:13:16</time>
      </trkpt>
      <trkpt lat="41.82335" lon="2.16336">
        <ele>852.2</ele>
        <time>2022-05-21 01:13:17</time>
      </trkpt>
      <trkpt lat="41.82336" lon="2.1634">
        <ele>852.4</ele>
        <time>2022-05-21 01:13:18</time>
      </trkpt>
      <trkpt lat="41.82338" lon="2.16344">
        <ele>852.6</ele>
        <time>2022-05-21 01:13:19</time>
      </trkpt>
      <trkpt lat="41.82339" lon="2.16349">
        <ele>852.8</ele>
        <time>2022-05-21 01:13:20</time>
      </trkpt>
      <trkpt lat="41.82341" lon="2.16353">
        <ele>852.8</ele>
        <time>2022-05-21 01:13:21</time>
      </trkpt>
      <trkpt lat="41.82342" lon="2.16357">
        <ele>853</ele>
        <time>2022-05-21 01:13:22</time>
      </trkpt>
      <trkpt lat="41.82344" lon="2.16362">
        <ele>853.2</ele>
        <time>2022-05-21 01:13:23</time>
      </trkpt>
      <trkpt lat="41.82346" lon="2.16366">
        <ele>853.4</ele>
        <time>2022-05-21 01:13:24</time>
      </trkpt>
      <trkpt lat="41.82347" lon="2.16371">
        <ele>853.6</ele>
        <time>2022-05-21 01:13:25</time>
      </trkpt>
      <trkpt lat="41.82348" lon="2.16375">
        <ele>853.8</ele>
        <time>2022-05-21 01:13:26</time>
      </trkpt>
      <trkpt lat="41.82349" lon="2.1638">
        <ele>854</ele>
        <time>2022-05-21 01:13:27</time>
      </trkpt>
      <trkpt lat="41.82351" lon="2.16385">
        <ele>854.2</ele>
        <time>2022-05-21 01:13:28</time>
      </trkpt>
      <trkpt lat="41.82352" lon="2.16389">
        <ele>854.2</ele>
        <time>2022-05-21 01:13:29</time>
      </trkpt>
      <trkpt lat="41.82354" lon="2.16394">
        <ele>854.4</ele>
        <time>2022-05-21 01:13:30</time>
      </trkpt>
      <trkpt lat="41.82355" lon="2.16398">
        <ele>854.6</ele>
        <time>2022-05-21 01:13:31</time>
      </trkpt>
      <trkpt lat="41.82357" lon="2.16403">
        <ele>854.8</ele>
        <time>2022-05-21 01:13:32</time>
      </trkpt>
      <trkpt lat="41.82359" lon="2.16407">
        <ele>854.8</ele>
        <time>2022-05-21 01:13:33</time>
      </trkpt>
      <trkpt lat="41.8236" lon="2.16411">
        <ele>855</ele>
        <time>2022-05-21 01:13:34</time>
      </trkpt>
      <trkpt lat="41.82361" lon="2.16416">
        <ele>855.2</ele>
        <time>2022-05-21 01:13:35</time>
      </trkpt>
      <trkpt lat="41.82363" lon="2.1642">
        <ele>855.4</ele>
        <time>2022-05-21 01:13:36</time>
      </trkpt>
      <trkpt lat="41.82364" lon="2.16425">
        <ele>855.6</ele>
        <time>2022-05-21 01:13:37</time>
      </trkpt>
      <trkpt lat="41.82366" lon="2.16429">
        <ele>855.8</ele>
        <time>2022-05-21 01:13:38</time>
      </trkpt>
      <trkpt lat="41.82368" lon="2.16433">
        <ele>856</ele>
        <time>2022-05-21 01:13:39</time>
      </trkpt>
      <trkpt lat="41.82369" lon="2.16438">
        <ele>856.2</ele>
        <time>2022-05-21 01:13:40</time>
      </trkpt>
      <trkpt lat="41.82371" lon="2.16442">
        <ele>856.2</ele>
        <time>2022-05-21 01:13:41</time>
      </trkpt>
      <trkpt lat="41.82372" lon="2.16446">
        <ele>856.4</ele>
        <time>2022-05-21 01:13:42</time>
      </trkpt>
      <trkpt lat="41.82373" lon="2.16451">
        <ele>856.6</ele>
        <time>2022-05-21 01:13:43</time>
      </trkpt>
      <trkpt lat="41.82375" lon="2.16455">
        <ele>856.8</ele>
        <time>2022-05-21 01:13:44</time>
      </trkpt>
      <trkpt lat="41.82375" lon="2.1646">
        <ele>857</ele>
        <time>2022-05-21 01:13:45</time>
      </trkpt>
      <trkpt lat="41.82376" lon="2.16464">
        <ele>857.2</ele>
        <time>2022-05-21 01:13:46</time>
      </trkpt>
      <trkpt lat="41.82378" lon="2.16468">
        <ele>857.4</ele>
        <time>2022-05-21 01:13:47</time>
      </trkpt>
      <trkpt lat="41.82379" lon="2.16473">
        <ele>857.6</ele>
        <time>2022-05-21 01:13:48</time>
      </trkpt>
      <trkpt lat="41.82381" lon="2.16477">
        <ele>857.6</ele>
        <time>2022-05-21 01:13:49</time>
      </trkpt>
      <trkpt lat="41.82382" lon="2.16481">
        <ele>857.8</ele>
        <time>2022-05-21 01:13:50</time>
      </trkpt>
      <trkpt lat="41.82384" lon="2.16485">
        <ele>858</ele>
        <time>2022-05-21 01:13:51</time>
      </trkpt>
      <trkpt lat="41.82385" lon="2.16489">
        <ele>858.2</ele>
        <time>2022-05-21 01:13:52</time>
      </trkpt>
      <trkpt lat="41.82386" lon="2.16493">
        <ele>858.2</ele>
        <time>2022-05-21 01:13:53</time>
      </trkpt>
      <trkpt lat="41.82388" lon="2.16497">
        <ele>858.4</ele>
        <time>2022-05-21 01:13:54</time>
      </trkpt>
      <trkpt lat="41.82389" lon="2.16502">
        <ele>858.6</ele>
        <time>2022-05-21 01:13:55</time>
      </trkpt>
      <trkpt lat="41.8239" lon="2.16506">
        <ele>858.8</ele>
        <time>2022-05-21 01:13:56</time>
      </trkpt>
      <trkpt lat="41.82392" lon="2.1651">
        <ele>859</ele>
        <time>2022-05-21 01:13:57</time>
      </trkpt>
      <trkpt lat="41.82393" lon="2.16514">
        <ele>859</ele>
        <time>2022-05-21 01:13:58</time>
      </trkpt>
      <trkpt lat="41.82395" lon="2.16518">
        <ele>859.2</ele>
        <time>2022-05-21 01:13:59</time>
      </trkpt>
      <trkpt lat="41.82397" lon="2.16522">
        <ele>859.4</ele>
        <time>2022-05-21 01:14:00</time>
      </trkpt>
      <trkpt lat="41.82398" lon="2.16526">
        <ele>859.6</ele>
        <time>2022-05-21 01:14:01</time>
      </trkpt>
      <trkpt lat="41.824" lon="2.1653">
        <ele>859.8</ele>
        <time>2022-05-21 01:14:02</time>
      </trkpt>
      <trkpt lat="41.82402" lon="2.16534">
        <ele>859.8</ele>
        <time>2022-05-21 01:14:03</time>
      </trkpt>
      <trkpt lat="41.82403" lon="2.16538">
        <ele>860</ele>
        <time>2022-05-21 01:14:04</time>
      </trkpt>
      <trkpt lat="41.82405" lon="2.16543">
        <ele>860.2</ele>
        <time>2022-05-21 01:14:05</time>
      </trkpt>
      <trkpt lat="41.82407" lon="2.16546">
        <ele>860.4</ele>
        <time>2022-05-21 01:14:06</time>
      </trkpt>
      <trkpt lat="41.82409" lon="2.1655">
        <ele>860.6</ele>
        <time>2022-05-21 01:14:07</time>
      </trkpt>
      <trkpt lat="41.8241" lon="2.16553">
        <ele>860.6</ele>
        <time>2022-05-21 01:14:08</time>
      </trkpt>
      <trkpt lat="41.82413" lon="2.16557">
        <ele>860.8</ele>
        <time>2022-05-21 01:14:09</time>
      </trkpt>
      <trkpt lat="41.82415" lon="2.1656">
        <ele>861</ele>
        <time>2022-05-21 01:14:10</time>
      </trkpt>
      <trkpt lat="41.82417" lon="2.16563">
        <ele>861.2</ele>
        <time>2022-05-21 01:14:11</time>
      </trkpt>
      <trkpt lat="41.82419" lon="2.16566">
        <ele>861.4</ele>
        <time>2022-05-21 01:14:12</time>
      </trkpt>
      <trkpt lat="41.82421" lon="2.16569">
        <ele>861.4</ele>
        <time>2022-05-21 01:14:13</time>
      </trkpt>
      <trkpt lat="41.82424" lon="2.16572">
        <ele>861.6</ele>
        <time>2022-05-21 01:14:14</time>
      </trkpt>
      <trkpt lat="41.82426" lon="2.16575">
        <ele>861.8</ele>
        <time>2022-05-21 01:14:15</time>
      </trkpt>
      <trkpt lat="41.82429" lon="2.16578">
        <ele>862</ele>
        <time>2022-05-21 01:14:16</time>
      </trkpt>
      <trkpt lat="41.82431" lon="2.16581">
        <ele>862</ele>
        <time>2022-05-21 01:14:17</time>
      </trkpt>
      <trkpt lat="41.82434" lon="2.16584">
        <ele>862.2</ele>
        <time>2022-05-21 01:14:18</time>
      </trkpt>
      <trkpt lat="41.82437" lon="2.16587">
        <ele>862.4</ele>
        <time>2022-05-21 01:14:19</time>
      </trkpt>
      <trkpt lat="41.8244" lon="2.16591">
        <ele>862.4</ele>
        <time>2022-05-21 01:14:20</time>
      </trkpt>
      <trkpt lat="41.82442" lon="2.16593">
        <ele>862.6</ele>
        <time>2022-05-21 01:14:21</time>
      </trkpt>
      <trkpt lat="41.82446" lon="2.16596">
        <ele>862.6</ele>
        <time>2022-05-21 01:14:22</time>
      </trkpt>
      <trkpt lat="41.82449" lon="2.16599">
        <ele>862.8</ele>
        <time>2022-05-21 01:14:23</time>
      </trkpt>
      <trkpt lat="41.82452" lon="2.16602">
        <ele>863</ele>
        <time>2022-05-21 01:14:24</time>
      </trkpt>
      <trkpt lat="41.82454" lon="2.16605">
        <ele>863</ele>
        <time>2022-05-21 01:14:25</time>
      </trkpt>
      <trkpt lat="41.82457" lon="2.16608">
        <ele>863.2</ele>
        <time>2022-05-21 01:14:26</time>
      </trkpt>
      <trkpt lat="41.8246" lon="2.16611">
        <ele>863.2</ele>
        <time>2022-05-21 01:14:27</time>
      </trkpt>
      <trkpt lat="41.82463" lon="2.16613">
        <ele>863.4</ele>
        <time>2022-05-21 01:14:28</time>
      </trkpt>
      <trkpt lat="41.82466" lon="2.16616">
        <ele>863.4</ele>
        <time>2022-05-21 01:14:29</time>
      </trkpt>
      <trkpt lat="41.82469" lon="2.16619">
        <ele>863.6</ele>
        <time>2022-05-21 01:14:30</time>
      </trkpt>
      <trkpt lat="41.82472" lon="2.16622">
        <ele>863.8</ele>
        <time>2022-05-21 01:14:31</time>
      </trkpt>
      <trkpt lat="41.82475" lon="2.16624">
        <ele>863.8</ele>
        <time>2022-05-21 01:14:32</time>
      </trkpt>
      <trkpt lat="41.82478" lon="2.16627">
        <ele>864</ele>
        <time>2022-05-21 01:14:33</time>
      </trkpt>
      <trkpt lat="41.82481" lon="2.1663">
        <ele>864</ele>
        <time>2022-05-21 01:14:34</time>
      </trkpt>
      <trkpt lat="41.82484" lon="2.16633">
        <ele>864.2</ele>
        <time>2022-05-21 01:14:35</time>
      </trkpt>
      <trkpt lat="41.82487" lon="2.16636">
        <ele>864.4</ele>
        <time>2022-05-21 01:14:36</time>
      </trkpt>
      <trkpt lat="41.8249" lon="2.1664">
        <ele>864.4</ele>
        <time>2022-05-21 01:14:37</time>
      </trkpt>
      <trkpt lat="41.82493" lon="2.16642">
        <ele>864.6</ele>
        <time>2022-05-21 01:14:38</time>
      </trkpt>
      <trkpt lat="41.82496" lon="2.16645">
        <ele>864.6</ele>
        <time>2022-05-21 01:14:39</time>
      </trkpt>
      <trkpt lat="41.82499" lon="2.16648">
        <ele>864.8</ele>
        <time>2022-05-21 01:14:40</time>
      </trkpt>
      <trkpt lat="41.82502" lon="2.16651">
        <ele>865</ele>
        <time>2022-05-21 01:14:41</time>
      </trkpt>
      <trkpt lat="41.82505" lon="2.16653">
        <ele>865</ele>
        <time>2022-05-21 01:14:42</time>
      </trkpt>
      <trkpt lat="41.82508" lon="2.16656">
        <ele>865.2</ele>
        <time>2022-05-21 01:14:43</time>
      </trkpt>
      <trkpt lat="41.8251" lon="2.16659">
        <ele>865.4</ele>
        <time>2022-05-21 01:14:44</time>
      </trkpt>
      <trkpt lat="41.82513" lon="2.16661">
        <ele>865.4</ele>
        <time>2022-05-21 01:14:45</time>
      </trkpt>
      <trkpt lat="41.82516" lon="2.16664">
        <ele>865.6</ele>
        <time>2022-05-21 01:14:46</time>
      </trkpt>
      <trkpt lat="41.82519" lon="2.16667">
        <ele>865.8</ele>
        <time>2022-05-21 01:14:47</time>
      </trkpt>
      <trkpt lat="41.82522" lon="2.16669">
        <ele>865.8</ele>
        <time>2022-05-21 01:14:48</time>
      </trkpt>
      <trkpt lat="41.82525" lon="2.16672">
        <ele>866</ele>
        <time>2022-05-21 01:14:49</time>
      </trkpt>
      <trkpt lat="41.82528" lon="2.16675">
        <ele>866</ele>
        <time>2022-05-21 01:14:50</time>
      </trkpt>
      <trkpt lat="41.82531" lon="2.16678">
        <ele>866.2</ele>
        <time>2022-05-21 01:14:51</time>
      </trkpt>
      <trkpt lat="41.82533" lon="2.1668">
        <ele>866.4</ele>
        <time>2022-05-21 01:14:52</time>
      </trkpt>
      <trkpt lat="41.82536" lon="2.16683">
        <ele>866.4</ele>
        <time>2022-05-21 01:14:53</time>
      </trkpt>
      <trkpt lat="41.82539" lon="2.16686">
        <ele>866.6</ele>
        <time>2022-05-21 01:14:54</time>
      </trkpt>
      <trkpt lat="41.82542" lon="2.16688">
        <ele>866.8</ele>
        <time>2022-05-21 01:14:55</time>
      </trkpt>
      <trkpt lat="41.82544" lon="2.16691">
        <ele>866.8</ele>
        <time>2022-05-21 01:14:56</time>
      </trkpt>
      <trkpt lat="41.82548" lon="2.16694">
        <ele>867</ele>
        <time>2022-05-21 01:14:57</time>
      </trkpt>
      <trkpt lat="41.82551" lon="2.16697">
        <ele>867.2</ele>
        <time>2022-05-21 01:14:58</time>
      </trkpt>
      <trkpt lat="41.82553" lon="2.16699">
        <ele>867.2</ele>
        <time>2022-05-21 01:14:59</time>
      </trkpt>
      <trkpt lat="41.82557" lon="2.16702">
        <ele>867.4</ele>
        <time>2022-05-21 01:15:00</time>
      </trkpt>
      <trkpt lat="41.8256" lon="2.16705">
        <ele>867.4</ele>
        <time>2022-05-21 01:15:01</time>
      </trkpt>
      <trkpt lat="41.82563" lon="2.16707">
        <ele>867.6</ele>
        <time>2022-05-21 01:15:02</time>
      </trkpt>
      <trkpt lat="41.82566" lon="2.1671">
        <ele>867.6</ele>
        <time>2022-05-21 01:15:03</time>
      </trkpt>
      <trkpt lat="41.82569" lon="2.16713">
        <ele>867.8</ele>
        <time>2022-05-21 01:15:04</time>
      </trkpt>
      <trkpt lat="41.82572" lon="2.16717">
        <ele>867.8</ele>
        <time>2022-05-21 01:15:05</time>
      </trkpt>
      <trkpt lat="41.82576" lon="2.1672">
        <ele>867.8</ele>
        <time>2022-05-21 01:15:06</time>
      </trkpt>
      <trkpt lat="41.8258" lon="2.16723">
        <ele>867.8</ele>
        <time>2022-05-21 01:15:07</time>
      </trkpt>
      <trkpt lat="41.82583" lon="2.16726">
        <ele>868</ele>
        <time>2022-05-21 01:15:08</time>
      </trkpt>
      <trkpt lat="41.82587" lon="2.1673">
        <ele>868</ele>
        <time>2022-05-21 01:15:09</time>
      </trkpt>
      <trkpt lat="41.82591" lon="2.16733">
        <ele>868.2</ele>
        <time>2022-05-21 01:15:10</time>
      </trkpt>
      <trkpt lat="41.82595" lon="2.16737">
        <ele>868.2</ele>
        <time>2022-05-21 01:15:11</time>
      </trkpt>
      <trkpt lat="41.82598" lon="2.1674">
        <ele>868.4</ele>
        <time>2022-05-21 01:15:12</time>
      </trkpt>
      <trkpt lat="41.82602" lon="2.16744">
        <ele>868.4</ele>
        <time>2022-05-21 01:15:13</time>
      </trkpt>
      <trkpt lat="41.82605" lon="2.16747">
        <ele>868.6</ele>
        <time>2022-05-21 01:15:14</time>
      </trkpt>
      <trkpt lat="41.82609" lon="2.16751">
        <ele>868.6</ele>
        <time>2022-05-21 01:15:15</time>
      </trkpt>
      <trkpt lat="41.82613" lon="2.16755">
        <ele>868.8</ele>
        <time>2022-05-21 01:15:16</time>
      </trkpt>
      <trkpt lat="41.82616" lon="2.16758">
        <ele>869</ele>
        <time>2022-05-21 01:15:17</time>
      </trkpt>
      <trkpt lat="41.8262" lon="2.16762">
        <ele>869</ele>
        <time>2022-05-21 01:15:18</time>
      </trkpt>
      <trkpt lat="41.82624" lon="2.16765">
        <ele>869.2</ele>
        <time>2022-05-21 01:15:19</time>
      </trkpt>
      <trkpt lat="41.82627" lon="2.16768">
        <ele>869.2</ele>
        <time>2022-05-21 01:15:20</time>
      </trkpt>
      <trkpt lat="41.8263" lon="2.16772">
        <ele>869.4</ele>
        <time>2022-05-21 01:15:21</time>
      </trkpt>
      <trkpt lat="41.82634" lon="2.16776">
        <ele>869.4</ele>
        <time>2022-05-21 01:15:22</time>
      </trkpt>
      <trkpt lat="41.82637" lon="2.1678">
        <ele>869.6</ele>
        <time>2022-05-21 01:15:23</time>
      </trkpt>
      <trkpt lat="41.82641" lon="2.16783">
        <ele>869.6</ele>
        <time>2022-05-21 01:15:24</time>
      </trkpt>
      <trkpt lat="41.82644" lon="2.16787">
        <ele>869.8</ele>
        <time>2022-05-21 01:15:25</time>
      </trkpt>
      <trkpt lat="41.82646" lon="2.16791">
        <ele>869.8</ele>
        <time>2022-05-21 01:15:26</time>
      </trkpt>
      <trkpt lat="41.82649" lon="2.16796">
        <ele>869.8</ele>
        <time>2022-05-21 01:15:27</time>
      </trkpt>
      <trkpt lat="41.82652" lon="2.16801">
        <ele>870</ele>
        <time>2022-05-21 01:15:28</time>
      </trkpt>
      <trkpt lat="41.82654" lon="2.16806">
        <ele>870</ele>
        <time>2022-05-21 01:15:29</time>
      </trkpt>
      <trkpt lat="41.82656" lon="2.16812">
        <ele>870.2</ele>
        <time>2022-05-21 01:15:30</time>
      </trkpt>
      <trkpt lat="41.82658" lon="2.16817">
        <ele>870.2</ele>
        <time>2022-05-21 01:15:31</time>
      </trkpt>
      <trkpt lat="41.8266" lon="2.16823">
        <ele>870.2</ele>
        <time>2022-05-21 01:15:32</time>
      </trkpt>
      <trkpt lat="41.82661" lon="2.16829">
        <ele>870.4</ele>
        <time>2022-05-21 01:15:33</time>
      </trkpt>
      <trkpt lat="41.82662" lon="2.16836">
        <ele>870.4</ele>
        <time>2022-05-21 01:15:34</time>
      </trkpt>
      <trkpt lat="41.82662" lon="2.16842">
        <ele>870.4</ele>
        <time>2022-05-21 01:15:35</time>
      </trkpt>
      <trkpt lat="41.82663" lon="2.16848">
        <ele>870.4</ele>
        <time>2022-05-21 01:15:36</time>
      </trkpt>
      <trkpt lat="41.82663" lon="2.16855">
        <ele>870.2</ele>
        <time>2022-05-21 01:15:37</time>
      </trkpt>
      <trkpt lat="41.82663" lon="2.16862">
        <ele>870.2</ele>
        <time>2022-05-21 01:15:38</time>
      </trkpt>
      <trkpt lat="41.82661" lon="2.16868">
        <ele>870.4</ele>
        <time>2022-05-21 01:15:39</time>
      </trkpt>
      <trkpt lat="41.8266" lon="2.16875">
        <ele>870.4</ele>
        <time>2022-05-21 01:15:40</time>
      </trkpt>
      <trkpt lat="41.82658" lon="2.1688">
        <ele>870.4</ele>
        <time>2022-05-21 01:15:41</time>
      </trkpt>
      <trkpt lat="41.82655" lon="2.16886">
        <ele>870.6</ele>
        <time>2022-05-21 01:15:42</time>
      </trkpt>
      <trkpt lat="41.82653" lon="2.16891">
        <ele>870.8</ele>
        <time>2022-05-21 01:15:43</time>
      </trkpt>
      <trkpt lat="41.8265" lon="2.16895">
        <ele>870.8</ele>
        <time>2022-05-21 01:15:44</time>
      </trkpt>
      <trkpt lat="41.82647" lon="2.16899">
        <ele>871</ele>
        <time>2022-05-21 01:15:45</time>
      </trkpt>
      <trkpt lat="41.82644" lon="2.16903">
        <ele>871.2</ele>
        <time>2022-05-21 01:15:46</time>
      </trkpt>
      <trkpt lat="41.82641" lon="2.16907">
        <ele>871.4</ele>
        <time>2022-05-21 01:15:47</time>
      </trkpt>
      <trkpt lat="41.82639" lon="2.16911">
        <ele>871.6</ele>
        <time>2022-05-21 01:15:48</time>
      </trkpt>
      <trkpt lat="41.82635" lon="2.16915">
        <ele>871.8</ele>
        <time>2022-05-21 01:15:49</time>
      </trkpt>
      <trkpt lat="41.82632" lon="2.16919">
        <ele>872</ele>
        <time>2022-05-21 01:15:50</time>
      </trkpt>
      <trkpt lat="41.82629" lon="2.16922">
        <ele>872.2</ele>
        <time>2022-05-21 01:15:51</time>
      </trkpt>
      <trkpt lat="41.82626" lon="2.16926">
        <ele>872.2</ele>
        <time>2022-05-21 01:15:52</time>
      </trkpt>
      <trkpt lat="41.82624" lon="2.1693">
        <ele>872.4</ele>
        <time>2022-05-21 01:15:53</time>
      </trkpt>
      <trkpt lat="41.82621" lon="2.16933">
        <ele>872.6</ele>
        <time>2022-05-21 01:15:54</time>
      </trkpt>
      <trkpt lat="41.82618" lon="2.16937">
        <ele>872.8</ele>
        <time>2022-05-21 01:15:55</time>
      </trkpt>
      <trkpt lat="41.82615" lon="2.1694">
        <ele>873</ele>
        <time>2022-05-21 01:15:56</time>
      </trkpt>
      <trkpt lat="41.82612" lon="2.16944">
        <ele>873.2</ele>
        <time>2022-05-21 01:15:57</time>
      </trkpt>
      <trkpt lat="41.82609" lon="2.16947">
        <ele>873.2</ele>
        <time>2022-05-21 01:15:58</time>
      </trkpt>
      <trkpt lat="41.82607" lon="2.1695">
        <ele>873.4</ele>
        <time>2022-05-21 01:15:59</time>
      </trkpt>
      <trkpt lat="41.82604" lon="2.16954">
        <ele>873.6</ele>
        <time>2022-05-21 01:16:00</time>
      </trkpt>
      <trkpt lat="41.82601" lon="2.16958">
        <ele>873.6</ele>
        <time>2022-05-21 01:16:01</time>
      </trkpt>
      <trkpt lat="41.82598" lon="2.16961">
        <ele>873.8</ele>
        <time>2022-05-21 01:16:02</time>
      </trkpt>
      <trkpt lat="41.82596" lon="2.16965">
        <ele>874</ele>
        <time>2022-05-21 01:16:03</time>
      </trkpt>
      <trkpt lat="41.82593" lon="2.16968">
        <ele>874.2</ele>
        <time>2022-05-21 01:16:04</time>
      </trkpt>
      <trkpt lat="41.8259" lon="2.16972">
        <ele>874.4</ele>
        <time>2022-05-21 01:16:05</time>
      </trkpt>
      <trkpt lat="41.82588" lon="2.16975">
        <ele>874.4</ele>
        <time>2022-05-21 01:16:06</time>
      </trkpt>
      <trkpt lat="41.82586" lon="2.16979">
        <ele>874.6</ele>
        <time>2022-05-21 01:16:07</time>
      </trkpt>
      <trkpt lat="41.82584" lon="2.16983">
        <ele>874.8</ele>
        <time>2022-05-21 01:16:08</time>
      </trkpt>
      <trkpt lat="41.82582" lon="2.16987">
        <ele>875</ele>
        <time>2022-05-21 01:16:09</time>
      </trkpt>
      <trkpt lat="41.8258" lon="2.16991">
        <ele>875.2</ele>
        <time>2022-05-21 01:16:10</time>
      </trkpt>
      <trkpt lat="41.82578" lon="2.16995">
        <ele>875.2</ele>
        <time>2022-05-21 01:16:11</time>
      </trkpt>
      <trkpt lat="41.82577" lon="2.16999">
        <ele>875.4</ele>
        <time>2022-05-21 01:16:12</time>
      </trkpt>
      <trkpt lat="41.82576" lon="2.17003">
        <ele>875.6</ele>
        <time>2022-05-21 01:16:13</time>
      </trkpt>
      <trkpt lat="41.82575" lon="2.17008">
        <ele>875.8</ele>
        <time>2022-05-21 01:16:14</time>
      </trkpt>
      <trkpt lat="41.82574" lon="2.17012">
        <ele>875.8</ele>
        <time>2022-05-21 01:16:15</time>
      </trkpt>
      <trkpt lat="41.82574" lon="2.17017">
        <ele>876</ele>
        <time>2022-05-21 01:16:16</time>
      </trkpt>
      <trkpt lat="41.82574" lon="2.17021">
        <ele>876.2</ele>
        <time>2022-05-21 01:16:17</time>
      </trkpt>
      <trkpt lat="41.82575" lon="2.17025">
        <ele>876.4</ele>
        <time>2022-05-21 01:16:18</time>
      </trkpt>
      <trkpt lat="41.82576" lon="2.17029">
        <ele>876.6</ele>
        <time>2022-05-21 01:16:19</time>
      </trkpt>
      <trkpt lat="41.82576" lon="2.17034">
        <ele>876.6</ele>
        <time>2022-05-21 01:16:20</time>
      </trkpt>
      <trkpt lat="41.82577" lon="2.17038">
        <ele>876.8</ele>
        <time>2022-05-21 01:16:21</time>
      </trkpt>
      <trkpt lat="41.82578" lon="2.17042">
        <ele>877</ele>
        <time>2022-05-21 01:16:22</time>
      </trkpt>
      <trkpt lat="41.82579" lon="2.17046">
        <ele>877.2</ele>
        <time>2022-05-21 01:16:23</time>
      </trkpt>
      <trkpt lat="41.82581" lon="2.1705">
        <ele>877.4</ele>
        <time>2022-05-21 01:16:24</time>
      </trkpt>
      <trkpt lat="41.82583" lon="2.17053">
        <ele>877.6</ele>
        <time>2022-05-21 01:16:25</time>
      </trkpt>
      <trkpt lat="41.82585" lon="2.17057">
        <ele>877.6</ele>
        <time>2022-05-21 01:16:26</time>
      </trkpt>
      <trkpt lat="41.82587" lon="2.17061">
        <ele>877.8</ele>
        <time>2022-05-21 01:16:27</time>
      </trkpt>
      <trkpt lat="41.82589" lon="2.17064">
        <ele>878</ele>
        <time>2022-05-21 01:16:28</time>
      </trkpt>
      <trkpt lat="41.8259" lon="2.17068">
        <ele>878.2</ele>
        <time>2022-05-21 01:16:29</time>
      </trkpt>
      <trkpt lat="41.82593" lon="2.17071">
        <ele>878.2</ele>
        <time>2022-05-21 01:16:30</time>
      </trkpt>
      <trkpt lat="41.82595" lon="2.17075">
        <ele>878.4</ele>
        <time>2022-05-21 01:16:31</time>
      </trkpt>
      <trkpt lat="41.82597" lon="2.17078">
        <ele>878.6</ele>
        <time>2022-05-21 01:16:32</time>
      </trkpt>
      <trkpt lat="41.82599" lon="2.17082">
        <ele>878.6</ele>
        <time>2022-05-21 01:16:33</time>
      </trkpt>
      <trkpt lat="41.82601" lon="2.17085">
        <ele>878.8</ele>
        <time>2022-05-21 01:16:34</time>
      </trkpt>
      <trkpt lat="41.82602" lon="2.17088">
        <ele>879</ele>
        <time>2022-05-21 01:16:35</time>
      </trkpt>
      <trkpt lat="41.82605" lon="2.17091">
        <ele>879</ele>
        <time>2022-05-21 01:16:36</time>
      </trkpt>
      <trkpt lat="41.82607" lon="2.17094">
        <ele>879.2</ele>
        <time>2022-05-21 01:16:37</time>
      </trkpt>
      <trkpt lat="41.82608" lon="2.17097">
        <ele>879.4</ele>
        <time>2022-05-21 01:16:38</time>
      </trkpt>
      <trkpt lat="41.8261" lon="2.17101">
        <ele>879.4</ele>
        <time>2022-05-21 01:16:39</time>
      </trkpt>
      <trkpt lat="41.82612" lon="2.17104">
        <ele>879.6</ele>
        <time>2022-05-21 01:16:40</time>
      </trkpt>
      <trkpt lat="41.82614" lon="2.17108">
        <ele>879.8</ele>
        <time>2022-05-21 01:16:41</time>
      </trkpt>
      <trkpt lat="41.82616" lon="2.17111">
        <ele>880</ele>
        <time>2022-05-21 01:16:42</time>
      </trkpt>
      <trkpt lat="41.82618" lon="2.17114">
        <ele>880</ele>
        <time>2022-05-21 01:16:43</time>
      </trkpt>
      <trkpt lat="41.82619" lon="2.17117">
        <ele>880.2</ele>
        <time>2022-05-21 01:16:44</time>
      </trkpt>
      <trkpt lat="41.82622" lon="2.1712">
        <ele>880.4</ele>
        <time>2022-05-21 01:16:45</time>
      </trkpt>
      <trkpt lat="41.82623" lon="2.17123">
        <ele>880.4</ele>
        <time>2022-05-21 01:16:46</time>
      </trkpt>
      <trkpt lat="41.82625" lon="2.17126">
        <ele>880.6</ele>
        <time>2022-05-21 01:16:47</time>
      </trkpt>
      <trkpt lat="41.82627" lon="2.17129">
        <ele>880.8</ele>
        <time>2022-05-21 01:16:48</time>
      </trkpt>
      <trkpt lat="41.8263" lon="2.17133">
        <ele>881</ele>
        <time>2022-05-21 01:16:49</time>
      </trkpt>
      <trkpt lat="41.82632" lon="2.17137">
        <ele>881</ele>
        <time>2022-05-21 01:16:50</time>
      </trkpt>
      <trkpt lat="41.82634" lon="2.1714">
        <ele>881.2</ele>
        <time>2022-05-21 01:16:51</time>
      </trkpt>
      <trkpt lat="41.82635" lon="2.17144">
        <ele>881.4</ele>
        <time>2022-05-21 01:16:52</time>
      </trkpt>
      <trkpt lat="41.82638" lon="2.17148">
        <ele>881.4</ele>
        <time>2022-05-21 01:16:53</time>
      </trkpt>
      <trkpt lat="41.8264" lon="2.17151">
        <ele>881.6</ele>
        <time>2022-05-21 01:16:54</time>
      </trkpt>
      <trkpt lat="41.82643" lon="2.17155">
        <ele>881.8</ele>
        <time>2022-05-21 01:16:55</time>
      </trkpt>
      <trkpt lat="41.82645" lon="2.17158">
        <ele>881.8</ele>
        <time>2022-05-21 01:16:56</time>
      </trkpt>
      <trkpt lat="41.82647" lon="2.17162">
        <ele>882</ele>
        <time>2022-05-21 01:16:57</time>
      </trkpt>
      <trkpt lat="41.82649" lon="2.17166">
        <ele>882.2</ele>
        <time>2022-05-21 01:16:58</time>
      </trkpt>
      <trkpt lat="41.82651" lon="2.17169">
        <ele>882.2</ele>
        <time>2022-05-21 01:16:59</time>
      </trkpt>
      <trkpt lat="41.82653" lon="2.17173">
        <ele>882.4</ele>
        <time>2022-05-21 01:17:00</time>
      </trkpt>
      <trkpt lat="41.82655" lon="2.17176">
        <ele>882.6</ele>
        <time>2022-05-21 01:17:01</time>
      </trkpt>
      <trkpt lat="41.82658" lon="2.1718">
        <ele>882.8</ele>
        <time>2022-05-21 01:17:02</time>
      </trkpt>
      <trkpt lat="41.8266" lon="2.17184">
        <ele>882.8</ele>
        <time>2022-05-21 01:17:03</time>
      </trkpt>
      <trkpt lat="41.82663" lon="2.17187">
        <ele>883</ele>
        <time>2022-05-21 01:17:04</time>
      </trkpt>
      <trkpt lat="41.82664" lon="2.17191">
        <ele>883.2</ele>
        <time>2022-05-21 01:17:05</time>
      </trkpt>
      <trkpt lat="41.82667" lon="2.17195">
        <ele>883.4</ele>
        <time>2022-05-21 01:17:06</time>
      </trkpt>
      <trkpt lat="41.82669" lon="2.17198">
        <ele>883.4</ele>
        <time>2022-05-21 01:17:07</time>
      </trkpt>
      <trkpt lat="41.82672" lon="2.17202">
        <ele>883.6</ele>
        <time>2022-05-21 01:17:08</time>
      </trkpt>
      <trkpt lat="41.82674" lon="2.17206">
        <ele>883.8</ele>
        <time>2022-05-21 01:17:09</time>
      </trkpt>
      <trkpt lat="41.82676" lon="2.17209">
        <ele>884</ele>
        <time>2022-05-21 01:17:10</time>
      </trkpt>
      <trkpt lat="41.82679" lon="2.17213">
        <ele>884</ele>
        <time>2022-05-21 01:17:11</time>
      </trkpt>
      <trkpt lat="41.82681" lon="2.17216">
        <ele>884.2</ele>
        <time>2022-05-21 01:17:12</time>
      </trkpt>
      <trkpt lat="41.82683" lon="2.1722">
        <ele>884.4</ele>
        <time>2022-05-21 01:17:13</time>
      </trkpt>
      <trkpt lat="41.82685" lon="2.17224">
        <ele>884.4</ele>
        <time>2022-05-21 01:17:14</time>
      </trkpt>
      <trkpt lat="41.82687" lon="2.17227">
        <ele>884.6</ele>
        <time>2022-05-21 01:17:15</time>
      </trkpt>
      <trkpt lat="41.8269" lon="2.17231">
        <ele>884.8</ele>
        <time>2022-05-21 01:17:16</time>
      </trkpt>
      <trkpt lat="41.82692" lon="2.17235">
        <ele>884.8</ele>
        <time>2022-05-21 01:17:17</time>
      </trkpt>
      <trkpt lat="41.82694" lon="2.17238">
        <ele>885</ele>
        <time>2022-05-21 01:17:18</time>
      </trkpt>
      <trkpt lat="41.82697" lon="2.17242">
        <ele>885.2</ele>
        <time>2022-05-21 01:17:19</time>
      </trkpt>
      <trkpt lat="41.82699" lon="2.17245">
        <ele>885.4</ele>
        <time>2022-05-21 01:17:20</time>
      </trkpt>
      <trkpt lat="41.82701" lon="2.17249">
        <ele>885.4</ele>
        <time>2022-05-21 01:17:21</time>
      </trkpt>
      <trkpt lat="41.82703" lon="2.17253">
        <ele>885.6</ele>
        <time>2022-05-21 01:17:22</time>
      </trkpt>
      <trkpt lat="41.82705" lon="2.17256">
        <ele>885.8</ele>
        <time>2022-05-21 01:17:23</time>
      </trkpt>
      <trkpt lat="41.82707" lon="2.1726">
        <ele>886</ele>
        <time>2022-05-21 01:17:24</time>
      </trkpt>
      <trkpt lat="41.8271" lon="2.17264">
        <ele>886</ele>
        <time>2022-05-21 01:17:25</time>
      </trkpt>
      <trkpt lat="41.82712" lon="2.17267">
        <ele>886.2</ele>
        <time>2022-05-21 01:17:26</time>
      </trkpt>
      <trkpt lat="41.82714" lon="2.17271">
        <ele>886.4</ele>
        <time>2022-05-21 01:17:27</time>
      </trkpt>
      <trkpt lat="41.82716" lon="2.17274">
        <ele>886.6</ele>
        <time>2022-05-21 01:17:28</time>
      </trkpt>
      <trkpt lat="41.82718" lon="2.17278">
        <ele>886.6</ele>
        <time>2022-05-21 01:17:29</time>
      </trkpt>
      <trkpt lat="41.8272" lon="2.17282">
        <ele>886.8</ele>
        <time>2022-05-21 01:17:30</time>
      </trkpt>
      <trkpt lat="41.82723" lon="2.17286">
        <ele>887</ele>
        <time>2022-05-21 01:17:31</time>
      </trkpt>
      <trkpt lat="41.82725" lon="2.17289">
        <ele>887.2</ele>
        <time>2022-05-21 01:17:32</time>
      </trkpt>
      <trkpt lat="41.82727" lon="2.17293">
        <ele>887.4</ele>
        <time>2022-05-21 01:17:33</time>
      </trkpt>
      <trkpt lat="41.82729" lon="2.17297">
        <ele>887.6</ele>
        <time>2022-05-21 01:17:34</time>
      </trkpt>
      <trkpt lat="41.82731" lon="2.173">
        <ele>887.8</ele>
        <time>2022-05-21 01:17:35</time>
      </trkpt>
      <trkpt lat="41.82733" lon="2.17304">
        <ele>887.8</ele>
        <time>2022-05-21 01:17:36</time>
      </trkpt>
      <trkpt lat="41.82735" lon="2.17308">
        <ele>888</ele>
        <time>2022-05-21 01:17:37</time>
      </trkpt>
      <trkpt lat="41.82737" lon="2.17312">
        <ele>888.2</ele>
        <time>2022-05-21 01:17:38</time>
      </trkpt>
      <trkpt lat="41.82738" lon="2.17316">
        <ele>888.4</ele>
        <time>2022-05-21 01:17:39</time>
      </trkpt>
      <trkpt lat="41.8274" lon="2.1732">
        <ele>888.4</ele>
        <time>2022-05-21 01:17:40</time>
      </trkpt>
      <trkpt lat="41.82742" lon="2.17324">
        <ele>888.6</ele>
        <time>2022-05-21 01:17:41</time>
      </trkpt>
      <trkpt lat="41.82743" lon="2.17328">
        <ele>888.8</ele>
        <time>2022-05-21 01:17:42</time>
      </trkpt>
      <trkpt lat="41.82745" lon="2.17332">
        <ele>889</ele>
        <time>2022-05-21 01:17:43</time>
      </trkpt>
      <trkpt lat="41.82746" lon="2.17336">
        <ele>889</ele>
        <time>2022-05-21 01:17:44</time>
      </trkpt>
      <trkpt lat="41.82747" lon="2.17341">
        <ele>889.2</ele>
        <time>2022-05-21 01:17:45</time>
      </trkpt>
      <trkpt lat="41.82748" lon="2.17345">
        <ele>889.4</ele>
        <time>2022-05-21 01:17:46</time>
      </trkpt>
      <trkpt lat="41.8275" lon="2.17349">
        <ele>889.6</ele>
        <time>2022-05-21 01:17:47</time>
      </trkpt>
      <trkpt lat="41.82751" lon="2.17353">
        <ele>889.8</ele>
        <time>2022-05-21 01:17:48</time>
      </trkpt>
      <trkpt lat="41.82752" lon="2.17357">
        <ele>890</ele>
        <time>2022-05-21 01:17:49</time>
      </trkpt>
      <trkpt lat="41.82753" lon="2.17361">
        <ele>890</ele>
        <time>2022-05-21 01:17:50</time>
      </trkpt>
      <trkpt lat="41.82753" lon="2.17365">
        <ele>890.2</ele>
        <time>2022-05-21 01:17:51</time>
      </trkpt>
      <trkpt lat="41.82755" lon="2.17369">
        <ele>890.4</ele>
        <time>2022-05-21 01:17:52</time>
      </trkpt>
      <trkpt lat="41.82755" lon="2.17373">
        <ele>890.6</ele>
        <time>2022-05-21 01:17:53</time>
      </trkpt>
      <trkpt lat="41.82756" lon="2.17377">
        <ele>890.8</ele>
        <time>2022-05-21 01:17:54</time>
      </trkpt>
      <trkpt lat="41.82757" lon="2.17381">
        <ele>891</ele>
        <time>2022-05-21 01:17:55</time>
      </trkpt>
      <trkpt lat="41.82758" lon="2.17386">
        <ele>891</ele>
        <time>2022-05-21 01:17:56</time>
      </trkpt>
      <trkpt lat="41.82759" lon="2.1739">
        <ele>891.2</ele>
        <time>2022-05-21 01:17:57</time>
      </trkpt>
      <trkpt lat="41.82759" lon="2.17394">
        <ele>891.4</ele>
        <time>2022-05-21 01:17:58</time>
      </trkpt>
      <trkpt lat="41.8276" lon="2.17398">
        <ele>891.6</ele>
        <time>2022-05-21 01:17:59</time>
      </trkpt>
      <trkpt lat="41.82761" lon="2.17402">
        <ele>891.8</ele>
        <time>2022-05-21 01:18:00</time>
      </trkpt>
      <trkpt lat="41.82761" lon="2.17407">
        <ele>891.8</ele>
        <time>2022-05-21 01:18:01</time>
      </trkpt>
      <trkpt lat="41.82761" lon="2.17411">
        <ele>892</ele>
        <time>2022-05-21 01:18:02</time>
      </trkpt>
      <trkpt lat="41.82761" lon="2.17415">
        <ele>892.2</ele>
        <time>2022-05-21 01:18:03</time>
      </trkpt>
      <trkpt lat="41.82762" lon="2.17419">
        <ele>892.4</ele>
        <time>2022-05-21 01:18:04</time>
      </trkpt>
      <trkpt lat="41.82763" lon="2.17424">
        <ele>892.4</ele>
        <time>2022-05-21 01:18:05</time>
      </trkpt>
      <trkpt lat="41.82763" lon="2.17428">
        <ele>892.6</ele>
        <time>2022-05-21 01:18:06</time>
      </trkpt>
      <trkpt lat="41.82764" lon="2.17433">
        <ele>892.8</ele>
        <time>2022-05-21 01:18:07</time>
      </trkpt>
      <trkpt lat="41.82765" lon="2.17437">
        <ele>893</ele>
        <time>2022-05-21 01:18:08</time>
      </trkpt>
      <trkpt lat="41.82766" lon="2.17441">
        <ele>893.2</ele>
        <time>2022-05-21 01:18:09</time>
      </trkpt>
      <trkpt lat="41.82767" lon="2.17446">
        <ele>893.2</ele>
        <time>2022-05-21 01:18:10</time>
      </trkpt>
      <trkpt lat="41.82768" lon="2.1745">
        <ele>893.4</ele>
        <time>2022-05-21 01:18:11</time>
      </trkpt>
      <trkpt lat="41.82769" lon="2.17454">
        <ele>893.6</ele>
        <time>2022-05-21 01:18:12</time>
      </trkpt>
      <trkpt lat="41.8277" lon="2.17459">
        <ele>893.6</ele>
        <time>2022-05-21 01:18:13</time>
      </trkpt>
      <trkpt lat="41.82771" lon="2.17463">
        <ele>893.8</ele>
        <time>2022-05-21 01:18:14</time>
      </trkpt>
      <trkpt lat="41.82772" lon="2.17467">
        <ele>893.8</ele>
        <time>2022-05-21 01:18:15</time>
      </trkpt>
      <trkpt lat="41.82774" lon="2.17472">
        <ele>894</ele>
        <time>2022-05-21 01:18:16</time>
      </trkpt>
      <trkpt lat="41.82774" lon="2.17476">
        <ele>894</ele>
        <time>2022-05-21 01:18:17</time>
      </trkpt>
      <trkpt lat="41.82775" lon="2.17481">
        <ele>894.2</ele>
        <time>2022-05-21 01:18:18</time>
      </trkpt>
      <trkpt lat="41.82776" lon="2.17486">
        <ele>894.2</ele>
        <time>2022-05-21 01:18:19</time>
      </trkpt>
      <trkpt lat="41.82777" lon="2.17491">
        <ele>894.2</ele>
        <time>2022-05-21 01:18:20</time>
      </trkpt>
      <trkpt lat="41.82778" lon="2.17496">
        <ele>894.4</ele>
        <time>2022-05-21 01:18:21</time>
      </trkpt>
      <trkpt lat="41.82779" lon="2.17501">
        <ele>894.4</ele>
        <time>2022-05-21 01:18:22</time>
      </trkpt>
      <trkpt lat="41.8278" lon="2.17506">
        <ele>894.4</ele>
        <time>2022-05-21 01:18:23</time>
      </trkpt>
      <trkpt lat="41.82781" lon="2.17512">
        <ele>894.6</ele>
        <time>2022-05-21 01:18:24</time>
      </trkpt>
      <trkpt lat="41.82783" lon="2.17517">
        <ele>894.6</ele>
        <time>2022-05-21 01:18:25</time>
      </trkpt>
      <trkpt lat="41.82784" lon="2.17522">
        <ele>894.6</ele>
        <time>2022-05-21 01:18:26</time>
      </trkpt>
      <trkpt lat="41.82785" lon="2.17527">
        <ele>894.6</ele>
        <time>2022-05-21 01:18:27</time>
      </trkpt>
      <trkpt lat="41.82786" lon="2.17532">
        <ele>894.8</ele>
        <time>2022-05-21 01:18:28</time>
      </trkpt>
      <trkpt lat="41.82788" lon="2.17538">
        <ele>894.8</ele>
        <time>2022-05-21 01:18:29</time>
      </trkpt>
      <trkpt lat="41.82789" lon="2.17543">
        <ele>894.8</ele>
        <time>2022-05-21 01:18:30</time>
      </trkpt>
      <trkpt lat="41.82791" lon="2.17548">
        <ele>894.8</ele>
        <time>2022-05-21 01:18:31</time>
      </trkpt>
      <trkpt lat="41.82792" lon="2.17554">
        <ele>895</ele>
        <time>2022-05-21 01:18:32</time>
      </trkpt>
      <trkpt lat="41.82793" lon="2.1756">
        <ele>895</ele>
        <time>2022-05-21 01:18:33</time>
      </trkpt>
      <trkpt lat="41.82795" lon="2.17566">
        <ele>895</ele>
        <time>2022-05-21 01:18:34</time>
      </trkpt>
      <trkpt lat="41.82796" lon="2.17571">
        <ele>895</ele>
        <time>2022-05-21 01:18:35</time>
      </trkpt>
      <trkpt lat="41.82797" lon="2.17577">
        <ele>895</ele>
        <time>2022-05-21 01:18:36</time>
      </trkpt>
      <trkpt lat="41.82798" lon="2.17584">
        <ele>895</ele>
        <time>2022-05-21 01:18:37</time>
      </trkpt>
      <trkpt lat="41.82799" lon="2.1759">
        <ele>895</ele>
        <time>2022-05-21 01:18:38</time>
      </trkpt>
      <trkpt lat="41.828" lon="2.17596">
        <ele>895</ele>
        <time>2022-05-21 01:18:39</time>
      </trkpt>
      <trkpt lat="41.82801" lon="2.17603">
        <ele>895</ele>
        <time>2022-05-21 01:18:40</time>
      </trkpt>
      <trkpt lat="41.82803" lon="2.1761">
        <ele>895.2</ele>
        <time>2022-05-21 01:18:41</time>
      </trkpt>
      <trkpt lat="41.82804" lon="2.17617">
        <ele>895.2</ele>
        <time>2022-05-21 01:18:42</time>
      </trkpt>
      <trkpt lat="41.82805" lon="2.17623">
        <ele>895.2</ele>
        <time>2022-05-21 01:18:43</time>
      </trkpt>
      <trkpt lat="41.82807" lon="2.17631">
        <ele>895.2</ele>
        <time>2022-05-21 01:18:44</time>
      </trkpt>
      <trkpt lat="41.82809" lon="2.17638">
        <ele>895.2</ele>
        <time>2022-05-21 01:18:45</time>
      </trkpt>
      <trkpt lat="41.8281" lon="2.17645">
        <ele>895.2</ele>
        <time>2022-05-21 01:18:46</time>
      </trkpt>
      <trkpt lat="41.82812" lon="2.17652">
        <ele>895.2</ele>
        <time>2022-05-21 01:18:47</time>
      </trkpt>
      <trkpt lat="41.82813" lon="2.17659">
        <ele>895.4</ele>
        <time>2022-05-21 01:18:48</time>
      </trkpt>
      <trkpt lat="41.82814" lon="2.17666">
        <ele>895.4</ele>
        <time>2022-05-21 01:18:49</time>
      </trkpt>
      <trkpt lat="41.82816" lon="2.17674">
        <ele>895.4</ele>
        <time>2022-05-21 01:18:50</time>
      </trkpt>
      <trkpt lat="41.82817" lon="2.17681">
        <ele>895.6</ele>
        <time>2022-05-21 01:18:51</time>
      </trkpt>
      <trkpt lat="41.82819" lon="2.17687">
        <ele>895.6</ele>
        <time>2022-05-21 01:18:52</time>
      </trkpt>
      <trkpt lat="41.82821" lon="2.17694">
        <ele>895.8</ele>
        <time>2022-05-21 01:18:53</time>
      </trkpt>
      <trkpt lat="41.82822" lon="2.177">
        <ele>896</ele>
        <time>2022-05-21 01:18:54</time>
      </trkpt>
      <trkpt lat="41.82823" lon="2.17707">
        <ele>896</ele>
        <time>2022-05-21 01:18:55</time>
      </trkpt>
      <trkpt lat="41.82825" lon="2.17713">
        <ele>896.2</ele>
        <time>2022-05-21 01:18:56</time>
      </trkpt>
      <trkpt lat="41.82827" lon="2.17719">
        <ele>896.2</ele>
        <time>2022-05-21 01:18:57</time>
      </trkpt>
      <trkpt lat="41.82828" lon="2.17726">
        <ele>896.2</ele>
        <time>2022-05-21 01:18:58</time>
      </trkpt>
      <trkpt lat="41.82829" lon="2.17733">
        <ele>896.4</ele>
        <time>2022-05-21 01:18:59</time>
      </trkpt>
      <trkpt lat="41.8283" lon="2.1774">
        <ele>896.4</ele>
        <time>2022-05-21 01:19:00</time>
      </trkpt>
      <trkpt lat="41.82831" lon="2.17746">
        <ele>896.4</ele>
        <time>2022-05-21 01:19:01</time>
      </trkpt>
      <trkpt lat="41.82832" lon="2.17753">
        <ele>896.6</ele>
        <time>2022-05-21 01:19:02</time>
      </trkpt>
      <trkpt lat="41.82833" lon="2.1776">
        <ele>896.6</ele>
        <time>2022-05-21 01:19:03</time>
      </trkpt>
      <trkpt lat="41.82834" lon="2.17767">
        <ele>896.6</ele>
        <time>2022-05-21 01:19:04</time>
      </trkpt>
      <trkpt lat="41.82835" lon="2.17774">
        <ele>896.6</ele>
        <time>2022-05-21 01:19:05</time>
      </trkpt>
      <trkpt lat="41.82835" lon="2.17781">
        <ele>896.8</ele>
        <time>2022-05-21 01:19:06</time>
      </trkpt>
      <trkpt lat="41.82835" lon="2.17788">
        <ele>896.8</ele>
        <time>2022-05-21 01:19:07</time>
      </trkpt>
      <trkpt lat="41.82836" lon="2.17795">
        <ele>897</ele>
        <time>2022-05-21 01:19:08</time>
      </trkpt>
      <trkpt lat="41.82836" lon="2.17802">
        <ele>897</ele>
        <time>2022-05-21 01:19:09</time>
      </trkpt>
      <trkpt lat="41.82836" lon="2.17808">
        <ele>897</ele>
        <time>2022-05-21 01:19:10</time>
      </trkpt>
      <trkpt lat="41.82835" lon="2.17815">
        <ele>897.2</ele>
        <time>2022-05-21 01:19:11</time>
      </trkpt>
      <trkpt lat="41.82834" lon="2.17822">
        <ele>897.2</ele>
        <time>2022-05-21 01:19:12</time>
      </trkpt>
      <trkpt lat="41.82833" lon="2.17829">
        <ele>897.4</ele>
        <time>2022-05-21 01:19:13</time>
      </trkpt>
      <trkpt lat="41.82831" lon="2.17835">
        <ele>897.4</ele>
        <time>2022-05-21 01:19:14</time>
      </trkpt>
      <trkpt lat="41.82829" lon="2.17841">
        <ele>897.4</ele>
        <time>2022-05-21 01:19:15</time>
      </trkpt>
      <trkpt lat="41.82827" lon="2.17848">
        <ele>897.6</ele>
        <time>2022-05-21 01:19:16</time>
      </trkpt>
      <trkpt lat="41.82825" lon="2.17853">
        <ele>897.6</ele>
        <time>2022-05-21 01:19:17</time>
      </trkpt>
      <trkpt lat="41.82823" lon="2.17859">
        <ele>897.6</ele>
        <time>2022-05-21 01:19:18</time>
      </trkpt>
      <trkpt lat="41.8282" lon="2.17864">
        <ele>897.8</ele>
        <time>2022-05-21 01:19:19</time>
      </trkpt>
      <trkpt lat="41.82817" lon="2.1787">
        <ele>897.8</ele>
        <time>2022-05-21 01:19:20</time>
      </trkpt>
      <trkpt lat="41.82815" lon="2.17875">
        <ele>897.8</ele>
        <time>2022-05-21 01:19:21</time>
      </trkpt>
      <trkpt lat="41.82812" lon="2.1788">
        <ele>898</ele>
        <time>2022-05-21 01:19:22</time>
      </trkpt>
      <trkpt lat="41.82809" lon="2.17885">
        <ele>898</ele>
        <time>2022-05-21 01:19:23</time>
      </trkpt>
      <trkpt lat="41.82806" lon="2.1789">
        <ele>898</ele>
        <time>2022-05-21 01:19:24</time>
      </trkpt>
      <trkpt lat="41.82803" lon="2.17894">
        <ele>898.2</ele>
        <time>2022-05-21 01:19:25</time>
      </trkpt>
      <trkpt lat="41.828" lon="2.17899">
        <ele>898.2</ele>
        <time>2022-05-21 01:19:26</time>
      </trkpt>
      <trkpt lat="41.82797" lon="2.17903">
        <ele>898.4</ele>
        <time>2022-05-21 01:19:27</time>
      </trkpt>
      <trkpt lat="41.82793" lon="2.17908">
        <ele>898.4</ele>
        <time>2022-05-21 01:19:28</time>
      </trkpt>
      <trkpt lat="41.8279" lon="2.17912">
        <ele>898.6</ele>
        <time>2022-05-21 01:19:29</time>
      </trkpt>
      <trkpt lat="41.82786" lon="2.17917">
        <ele>898.6</ele>
        <time>2022-05-21 01:19:30</time>
      </trkpt>
      <trkpt lat="41.82782" lon="2.17921">
        <ele>898.6</ele>
        <time>2022-05-21 01:19:31</time>
      </trkpt>
      <trkpt lat="41.82779" lon="2.17926">
        <ele>898.6</ele>
        <time>2022-05-21 01:19:32</time>
      </trkpt>
      <trkpt lat="41.82775" lon="2.1793">
        <ele>898.6</ele>
        <time>2022-05-21 01:19:33</time>
      </trkpt>
      <trkpt lat="41.82771" lon="2.17935">
        <ele>898.8</ele>
        <time>2022-05-21 01:19:34</time>
      </trkpt>
      <trkpt lat="41.82767" lon="2.1794">
        <ele>898.8</ele>
        <time>2022-05-21 01:19:35</time>
      </trkpt>
      <trkpt lat="41.82763" lon="2.17945">
        <ele>898.8</ele>
        <time>2022-05-21 01:19:36</time>
      </trkpt>
      <trkpt lat="41.82759" lon="2.17951">
        <ele>898.6</ele>
        <time>2022-05-21 01:19:37</time>
      </trkpt>
      <trkpt lat="41.82756" lon="2.17958">
        <ele>898.6</ele>
        <time>2022-05-21 01:19:38</time>
      </trkpt>
      <trkpt lat="41.82753" lon="2.17964">
        <ele>898.6</ele>
        <time>2022-05-21 01:19:39</time>
      </trkpt>
      <trkpt lat="41.8275" lon="2.1797">
        <ele>898.4</ele>
        <time>2022-05-21 01:19:40</time>
      </trkpt>
      <trkpt lat="41.82747" lon="2.17978">
        <ele>898.4</ele>
        <time>2022-05-21 01:19:41</time>
      </trkpt>
      <trkpt lat="41.82745" lon="2.17985">
        <ele>898.2</ele>
        <time>2022-05-21 01:19:42</time>
      </trkpt>
      <trkpt lat="41.82743" lon="2.17992">
        <ele>898.2</ele>
        <time>2022-05-21 01:19:43</time>
      </trkpt>
      <trkpt lat="41.82741" lon="2.17999">
        <ele>898</ele>
        <time>2022-05-21 01:19:44</time>
      </trkpt>
      <trkpt lat="41.8274" lon="2.18007">
        <ele>898</ele>
        <time>2022-05-21 01:19:45</time>
      </trkpt>
      <trkpt lat="41.82739" lon="2.18015">
        <ele>897.8</ele>
        <time>2022-05-21 01:19:46</time>
      </trkpt>
      <trkpt lat="41.82738" lon="2.18024">
        <ele>897.6</ele>
        <time>2022-05-21 01:19:47</time>
      </trkpt>
      <trkpt lat="41.82737" lon="2.18032">
        <ele>897.4</ele>
        <time>2022-05-21 01:19:48</time>
      </trkpt>
      <trkpt lat="41.82735" lon="2.18041">
        <ele>897.4</ele>
        <time>2022-05-21 01:19:49</time>
      </trkpt>
      <trkpt lat="41.82735" lon="2.1805">
        <ele>897.2</ele>
        <time>2022-05-21 01:19:50</time>
      </trkpt>
      <trkpt lat="41.82735" lon="2.18059">
        <ele>897</ele>
        <time>2022-05-21 01:19:51</time>
      </trkpt>
      <trkpt lat="41.82734" lon="2.18068">
        <ele>896.8</ele>
        <time>2022-05-21 01:19:52</time>
      </trkpt>
      <trkpt lat="41.82735" lon="2.18077">
        <ele>896.6</ele>
        <time>2022-05-21 01:19:53</time>
      </trkpt>
      <trkpt lat="41.82735" lon="2.18086">
        <ele>896.4</ele>
        <time>2022-05-21 01:19:54</time>
      </trkpt>
      <trkpt lat="41.82735" lon="2.18096">
        <ele>896.2</ele>
        <time>2022-05-21 01:19:55</time>
      </trkpt>
      <trkpt lat="41.82735" lon="2.18106">
        <ele>896</ele>
        <time>2022-05-21 01:19:56</time>
      </trkpt>
      <trkpt lat="41.82734" lon="2.18116">
        <ele>896</ele>
        <time>2022-05-21 01:19:57</time>
      </trkpt>
      <trkpt lat="41.82734" lon="2.18127">
        <ele>895.8</ele>
        <time>2022-05-21 01:19:58</time>
      </trkpt>
      <trkpt lat="41.82734" lon="2.18137">
        <ele>895.6</ele>
        <time>2022-05-21 01:19:59</time>
      </trkpt>
      <trkpt lat="41.82734" lon="2.18146">
        <ele>895.6</ele>
        <time>2022-05-21 01:20:00</time>
      </trkpt>
      <trkpt lat="41.82733" lon="2.18156">
        <ele>895.4</ele>
        <time>2022-05-21 01:20:01</time>
      </trkpt>
      <trkpt lat="41.82733" lon="2.18167">
        <ele>895.4</ele>
        <time>2022-05-21 01:20:02</time>
      </trkpt>
      <trkpt lat="41.82733" lon="2.18178">
        <ele>895.2</ele>
        <time>2022-05-21 01:20:03</time>
      </trkpt>
      <trkpt lat="41.82732" lon="2.18187">
        <ele>895</ele>
        <time>2022-05-21 01:20:04</time>
      </trkpt>
      <trkpt lat="41.82732" lon="2.18197">
        <ele>895</ele>
        <time>2022-05-21 01:20:05</time>
      </trkpt>
      <trkpt lat="41.82732" lon="2.18208">
        <ele>895</ele>
        <time>2022-05-21 01:20:06</time>
      </trkpt>
      <trkpt lat="41.82732" lon="2.18218">
        <ele>895</ele>
        <time>2022-05-21 01:20:07</time>
      </trkpt>
      <trkpt lat="41.82732" lon="2.18227">
        <ele>895</ele>
        <time>2022-05-21 01:20:08</time>
      </trkpt>
      <trkpt lat="41.82731" lon="2.18236">
        <ele>895</ele>
        <time>2022-05-21 01:20:09</time>
      </trkpt>
      <trkpt lat="41.82731" lon="2.18245">
        <ele>895.2</ele>
        <time>2022-05-21 01:20:10</time>
      </trkpt>
      <trkpt lat="41.82731" lon="2.18254">
        <ele>895.4</ele>
        <time>2022-05-21 01:20:11</time>
      </trkpt>
      <trkpt lat="41.82731" lon="2.18262">
        <ele>895.6</ele>
        <time>2022-05-21 01:20:12</time>
      </trkpt>
      <trkpt lat="41.82731" lon="2.1827">
        <ele>895.8</ele>
        <time>2022-05-21 01:20:13</time>
      </trkpt>
      <trkpt lat="41.8273" lon="2.18277">
        <ele>896</ele>
        <time>2022-05-21 01:20:14</time>
      </trkpt>
      <trkpt lat="41.8273" lon="2.18283">
        <ele>896.4</ele>
        <time>2022-05-21 01:20:15</time>
      </trkpt>
      <trkpt lat="41.8273" lon="2.1829">
        <ele>896.6</ele>
        <time>2022-05-21 01:20:16</time>
      </trkpt>
      <trkpt lat="41.8273" lon="2.18296">
        <ele>896.8</ele>
        <time>2022-05-21 01:20:17</time>
      </trkpt>
      <trkpt lat="41.8273" lon="2.18302">
        <ele>897</ele>
        <time>2022-05-21 01:20:18</time>
      </trkpt>
      <trkpt lat="41.8273" lon="2.18307">
        <ele>897.4</ele>
        <time>2022-05-21 01:20:19</time>
      </trkpt>
      <trkpt lat="41.8273" lon="2.18312">
        <ele>897.6</ele>
        <time>2022-05-21 01:20:20</time>
      </trkpt>
      <trkpt lat="41.8273" lon="2.18318">
        <ele>897.8</ele>
        <time>2022-05-21 01:20:21</time>
      </trkpt>
      <trkpt lat="41.8273" lon="2.18323">
        <ele>898</ele>
        <time>2022-05-21 01:20:22</time>
      </trkpt>
      <trkpt lat="41.8273" lon="2.18328">
        <ele>898.2</ele>
        <time>2022-05-21 01:20:23</time>
      </trkpt>
      <trkpt lat="41.8273" lon="2.18333">
        <ele>898.4</ele>
        <time>2022-05-21 01:20:24</time>
      </trkpt>
      <trkpt lat="41.82729" lon="2.18338">
        <ele>898.6</ele>
        <time>2022-05-21 01:20:25</time>
      </trkpt>
      <trkpt lat="41.82729" lon="2.18343">
        <ele>898.8</ele>
        <time>2022-05-21 01:20:26</time>
      </trkpt>
      <trkpt lat="41.82729" lon="2.18348">
        <ele>899.2</ele>
        <time>2022-05-21 01:20:27</time>
      </trkpt>
      <trkpt lat="41.82728" lon="2.18353">
        <ele>899.4</ele>
        <time>2022-05-21 01:20:28</time>
      </trkpt>
      <trkpt lat="41.82728" lon="2.18357">
        <ele>899.6</ele>
        <time>2022-05-21 01:20:29</time>
      </trkpt>
      <trkpt lat="41.82728" lon="2.18363">
        <ele>899.8</ele>
        <time>2022-05-21 01:20:30</time>
      </trkpt>
      <trkpt lat="41.82728" lon="2.18367">
        <ele>900</ele>
        <time>2022-05-21 01:20:31</time>
      </trkpt>
      <trkpt lat="41.82728" lon="2.18372">
        <ele>900.2</ele>
        <time>2022-05-21 01:20:32</time>
      </trkpt>
      <trkpt lat="41.82728" lon="2.18377">
        <ele>900.4</ele>
        <time>2022-05-21 01:20:33</time>
      </trkpt>
      <trkpt lat="41.82728" lon="2.18382">
        <ele>900.6</ele>
        <time>2022-05-21 01:20:34</time>
      </trkpt>
      <trkpt lat="41.82728" lon="2.18387">
        <ele>900.8</ele>
        <time>2022-05-21 01:20:35</time>
      </trkpt>
      <trkpt lat="41.82727" lon="2.18392">
        <ele>901</ele>
        <time>2022-05-21 01:20:36</time>
      </trkpt>
      <trkpt lat="41.82728" lon="2.18396">
        <ele>901.2</ele>
        <time>2022-05-21 01:20:37</time>
      </trkpt>
      <trkpt lat="41.82729" lon="2.18401">
        <ele>901.4</ele>
        <time>2022-05-21 01:20:38</time>
      </trkpt>
      <trkpt lat="41.8273" lon="2.18406">
        <ele>901.6</ele>
        <time>2022-05-21 01:20:39</time>
      </trkpt>
      <trkpt lat="41.8273" lon="2.1841">
        <ele>901.8</ele>
        <time>2022-05-21 01:20:40</time>
      </trkpt>
      <trkpt lat="41.82731" lon="2.18415">
        <ele>902</ele>
        <time>2022-05-21 01:20:41</time>
      </trkpt>
      <trkpt lat="41.82732" lon="2.1842">
        <ele>902.2</ele>
        <time>2022-05-21 01:20:42</time>
      </trkpt>
      <trkpt lat="41.82732" lon="2.18425">
        <ele>902.4</ele>
        <time>2022-05-21 01:20:43</time>
      </trkpt>
      <trkpt lat="41.82733" lon="2.18429">
        <ele>902.6</ele>
        <time>2022-05-21 01:20:44</time>
      </trkpt>
      <trkpt lat="41.82734" lon="2.18433">
        <ele>902.8</ele>
        <time>2022-05-21 01:20:45</time>
      </trkpt>
      <trkpt lat="41.82735" lon="2.18438">
        <ele>903</ele>
        <time>2022-05-21 01:20:46</time>
      </trkpt>
      <trkpt lat="41.82736" lon="2.18443">
        <ele>903.2</ele>
        <time>2022-05-21 01:20:47</time>
      </trkpt>
      <trkpt lat="41.82737" lon="2.18448">
        <ele>903.4</ele>
        <time>2022-05-21 01:20:48</time>
      </trkpt>
      <trkpt lat="41.82738" lon="2.18452">
        <ele>903.6</ele>
        <time>2022-05-21 01:20:49</time>
      </trkpt>
      <trkpt lat="41.82739" lon="2.18457">
        <ele>903.8</ele>
        <time>2022-05-21 01:20:50</time>
      </trkpt>
      <trkpt lat="41.8274" lon="2.18462">
        <ele>904</ele>
        <time>2022-05-21 01:20:51</time>
      </trkpt>
      <trkpt lat="41.82741" lon="2.18467">
        <ele>904.2</ele>
        <time>2022-05-21 01:20:52</time>
      </trkpt>
      <trkpt lat="41.82742" lon="2.18472">
        <ele>904.4</ele>
        <time>2022-05-21 01:20:53</time>
      </trkpt>
      <trkpt lat="41.82743" lon="2.18477">
        <ele>904.6</ele>
        <time>2022-05-21 01:20:54</time>
      </trkpt>
      <trkpt lat="41.82744" lon="2.18481">
        <ele>904.8</ele>
        <time>2022-05-21 01:20:55</time>
      </trkpt>
      <trkpt lat="41.82744" lon="2.18485">
        <ele>905</ele>
        <time>2022-05-21 01:20:56</time>
      </trkpt>
      <trkpt lat="41.82745" lon="2.18489">
        <ele>905.2</ele>
        <time>2022-05-21 01:20:57</time>
      </trkpt>
      <trkpt lat="41.82745" lon="2.18493">
        <ele>905.4</ele>
        <time>2022-05-21 01:20:58</time>
      </trkpt>
      <trkpt lat="41.82745" lon="2.18497">
        <ele>905.6</ele>
        <time>2022-05-21 01:20:59</time>
      </trkpt>
      <trkpt lat="41.82745" lon="2.18501">
        <ele>905.8</ele>
        <time>2022-05-21 01:21:00</time>
      </trkpt>
      <trkpt lat="41.82745" lon="2.18505">
        <ele>906</ele>
        <time>2022-05-21 01:21:01</time>
      </trkpt>
      <trkpt lat="41.82745" lon="2.18509">
        <ele>906.2</ele>
        <time>2022-05-21 01:21:02</time>
      </trkpt>
      <trkpt lat="41.82745" lon="2.18513">
        <ele>906.4</ele>
        <time>2022-05-21 01:21:03</time>
      </trkpt>
      <trkpt lat="41.82745" lon="2.18517">
        <ele>906.6</ele>
        <time>2022-05-21 01:21:04</time>
      </trkpt>
      <trkpt lat="41.82745" lon="2.1852">
        <ele>906.8</ele>
        <time>2022-05-21 01:21:05</time>
      </trkpt>
      <trkpt lat="41.82746" lon="2.18524">
        <ele>907</ele>
        <time>2022-05-21 01:21:06</time>
      </trkpt>
      <trkpt lat="41.82746" lon="2.18528">
        <ele>907.2</ele>
        <time>2022-05-21 01:21:07</time>
      </trkpt>
      <trkpt lat="41.82745" lon="2.18532">
        <ele>907.4</ele>
        <time>2022-05-21 01:21:08</time>
      </trkpt>
      <trkpt lat="41.82745" lon="2.18536">
        <ele>907.4</ele>
        <time>2022-05-21 01:21:09</time>
      </trkpt>
      <trkpt lat="41.82745" lon="2.1854">
        <ele>907.6</ele>
        <time>2022-05-21 01:21:10</time>
      </trkpt>
      <trkpt lat="41.82745" lon="2.18544">
        <ele>907.8</ele>
        <time>2022-05-21 01:21:11</time>
      </trkpt>
      <trkpt lat="41.82745" lon="2.18548">
        <ele>908</ele>
        <time>2022-05-21 01:21:12</time>
      </trkpt>
      <trkpt lat="41.82745" lon="2.18552">
        <ele>908.2</ele>
        <time>2022-05-21 01:21:13</time>
      </trkpt>
      <trkpt lat="41.82745" lon="2.18556">
        <ele>908.4</ele>
        <time>2022-05-21 01:21:14</time>
      </trkpt>
      <trkpt lat="41.82745" lon="2.1856">
        <ele>908.6</ele>
        <time>2022-05-21 01:21:15</time>
      </trkpt>
      <trkpt lat="41.82745" lon="2.18565">
        <ele>908.8</ele>
        <time>2022-05-21 01:21:16</time>
      </trkpt>
      <trkpt lat="41.82745" lon="2.18569">
        <ele>908.8</ele>
        <time>2022-05-21 01:21:17</time>
      </trkpt>
      <trkpt lat="41.82745" lon="2.18573">
        <ele>909</ele>
        <time>2022-05-21 01:21:18</time>
      </trkpt>
      <trkpt lat="41.82745" lon="2.18578">
        <ele>909.2</ele>
        <time>2022-05-21 01:21:19</time>
      </trkpt>
      <trkpt lat="41.82745" lon="2.18581">
        <ele>909.4</ele>
        <time>2022-05-21 01:21:20</time>
      </trkpt>
      <trkpt lat="41.82745" lon="2.18585">
        <ele>909.6</ele>
        <time>2022-05-21 01:21:21</time>
      </trkpt>
      <trkpt lat="41.82745" lon="2.18589">
        <ele>909.8</ele>
        <time>2022-05-21 01:21:22</time>
      </trkpt>
      <trkpt lat="41.82745" lon="2.18593">
        <ele>910</ele>
        <time>2022-05-21 01:21:23</time>
      </trkpt>
      <trkpt lat="41.82745" lon="2.18598">
        <ele>910.2</ele>
        <time>2022-05-21 01:21:24</time>
      </trkpt>
      <trkpt lat="41.82745" lon="2.18602">
        <ele>910.4</ele>
        <time>2022-05-21 01:21:25</time>
      </trkpt>
      <trkpt lat="41.82745" lon="2.18606">
        <ele>910.4</ele>
        <time>2022-05-21 01:21:26</time>
      </trkpt>
      <trkpt lat="41.82745" lon="2.18611">
        <ele>910.6</ele>
        <time>2022-05-21 01:21:27</time>
      </trkpt>
      <trkpt lat="41.82745" lon="2.18615">
        <ele>910.8</ele>
        <time>2022-05-21 01:21:28</time>
      </trkpt>
      <trkpt lat="41.82744" lon="2.1862">
        <ele>911</ele>
        <time>2022-05-21 01:21:29</time>
      </trkpt>
      <trkpt lat="41.82743" lon="2.18624">
        <ele>911.2</ele>
        <time>2022-05-21 01:21:30</time>
      </trkpt>
      <trkpt lat="41.82743" lon="2.18629">
        <ele>911.4</ele>
        <time>2022-05-21 01:21:31</time>
      </trkpt>
      <trkpt lat="41.82742" lon="2.18634">
        <ele>911.6</ele>
        <time>2022-05-21 01:21:32</time>
      </trkpt>
      <trkpt lat="41.82742" lon="2.18638">
        <ele>911.8</ele>
        <time>2022-05-21 01:21:33</time>
      </trkpt>
      <trkpt lat="41.82742" lon="2.18642">
        <ele>911.8</ele>
        <time>2022-05-21 01:21:34</time>
      </trkpt>
      <trkpt lat="41.82741" lon="2.18647">
        <ele>912</ele>
        <time>2022-05-21 01:21:35</time>
      </trkpt>
      <trkpt lat="41.8274" lon="2.18652">
        <ele>912.2</ele>
        <time>2022-05-21 01:21:36</time>
      </trkpt>
      <trkpt lat="41.8274" lon="2.18657">
        <ele>912.4</ele>
        <time>2022-05-21 01:21:37</time>
      </trkpt>
      <trkpt lat="41.8274" lon="2.18661">
        <ele>912.6</ele>
        <time>2022-05-21 01:21:38</time>
      </trkpt>
      <trkpt lat="41.82739" lon="2.18666">
        <ele>912.8</ele>
        <time>2022-05-21 01:21:39</time>
      </trkpt>
      <trkpt lat="41.82739" lon="2.18671">
        <ele>912.8</ele>
        <time>2022-05-21 01:21:40</time>
      </trkpt>
      <trkpt lat="41.8274" lon="2.18677">
        <ele>913</ele>
        <time>2022-05-21 01:21:41</time>
      </trkpt>
      <trkpt lat="41.8274" lon="2.18682">
        <ele>913.2</ele>
        <time>2022-05-21 01:21:42</time>
      </trkpt>
      <trkpt lat="41.8274" lon="2.18687">
        <ele>913.4</ele>
        <time>2022-05-21 01:21:43</time>
      </trkpt>
      <trkpt lat="41.8274" lon="2.18692">
        <ele>913.6</ele>
        <time>2022-05-21 01:21:44</time>
      </trkpt>
      <trkpt lat="41.8274" lon="2.18696">
        <ele>913.8</ele>
        <time>2022-05-21 01:21:45</time>
      </trkpt>
      <trkpt lat="41.8274" lon="2.18701">
        <ele>913.8</ele>
        <time>2022-05-21 01:21:46</time>
      </trkpt>
      <trkpt lat="41.8274" lon="2.18705">
        <ele>914</ele>
        <time>2022-05-21 01:21:47</time>
      </trkpt>
      <trkpt lat="41.82741" lon="2.1871">
        <ele>914.2</ele>
        <time>2022-05-21 01:21:48</time>
      </trkpt>
      <trkpt lat="41.8274" lon="2.18714">
        <ele>914.4</ele>
        <time>2022-05-21 01:21:49</time>
      </trkpt>
      <trkpt lat="41.8274" lon="2.18719">
        <ele>914.6</ele>
        <time>2022-05-21 01:21:50</time>
      </trkpt>
      <trkpt lat="41.8274" lon="2.18723">
        <ele>914.6</ele>
        <time>2022-05-21 01:21:51</time>
      </trkpt>
      <trkpt lat="41.8274" lon="2.18727">
        <ele>914.8</ele>
        <time>2022-05-21 01:21:52</time>
      </trkpt>
      <trkpt lat="41.82739" lon="2.18731">
        <ele>915</ele>
        <time>2022-05-21 01:21:53</time>
      </trkpt>
      <trkpt lat="41.82738" lon="2.18735">
        <ele>915.2</ele>
        <time>2022-05-21 01:21:54</time>
      </trkpt>
      <trkpt lat="41.82738" lon="2.18738">
        <ele>915.2</ele>
        <time>2022-05-21 01:21:55</time>
      </trkpt>
      <trkpt lat="41.82738" lon="2.18742">
        <ele>915.4</ele>
        <time>2022-05-21 01:21:56</time>
      </trkpt>
      <trkpt lat="41.82737" lon="2.18745">
        <ele>915.6</ele>
        <time>2022-05-21 01:21:57</time>
      </trkpt>
      <trkpt lat="41.82737" lon="2.18749">
        <ele>915.8</ele>
        <time>2022-05-21 01:21:58</time>
      </trkpt>
      <trkpt lat="41.82737" lon="2.18752">
        <ele>915.8</ele>
        <time>2022-05-21 01:21:59</time>
      </trkpt>
      <trkpt lat="41.82736" lon="2.18755">
        <ele>916</ele>
        <time>2022-05-21 01:22:00</time>
      </trkpt>
      <trkpt lat="41.82736" lon="2.18759">
        <ele>916.2</ele>
        <time>2022-05-21 01:22:01</time>
      </trkpt>
      <trkpt lat="41.82736" lon="2.18762">
        <ele>916.2</ele>
        <time>2022-05-21 01:22:02</time>
      </trkpt>
      <trkpt lat="41.82736" lon="2.18766">
        <ele>916.4</ele>
        <time>2022-05-21 01:22:03</time>
      </trkpt>
      <trkpt lat="41.82735" lon="2.1877">
        <ele>916.6</ele>
        <time>2022-05-21 01:22:04</time>
      </trkpt>
      <trkpt lat="41.82735" lon="2.18773">
        <ele>916.6</ele>
        <time>2022-05-21 01:22:05</time>
      </trkpt>
      <trkpt lat="41.82735" lon="2.18777">
        <ele>916.8</ele>
        <time>2022-05-21 01:22:06</time>
      </trkpt>
      <trkpt lat="41.82735" lon="2.18781">
        <ele>917</ele>
        <time>2022-05-21 01:22:07</time>
      </trkpt>
      <trkpt lat="41.82735" lon="2.18785">
        <ele>917.2</ele>
        <time>2022-05-21 01:22:08</time>
      </trkpt>
      <trkpt lat="41.82734" lon="2.18789">
        <ele>917.2</ele>
        <time>2022-05-21 01:22:09</time>
      </trkpt>
      <trkpt lat="41.82734" lon="2.18792">
        <ele>917.4</ele>
        <time>2022-05-21 01:22:10</time>
      </trkpt>
      <trkpt lat="41.82734" lon="2.18796">
        <ele>917.6</ele>
        <time>2022-05-21 01:22:11</time>
      </trkpt>
      <trkpt lat="41.82734" lon="2.188">
        <ele>917.6</ele>
        <time>2022-05-21 01:22:12</time>
      </trkpt>
      <trkpt lat="41.82733" lon="2.18804">
        <ele>917.8</ele>
        <time>2022-05-21 01:22:13</time>
      </trkpt>
      <trkpt lat="41.82733" lon="2.18808">
        <ele>918</ele>
        <time>2022-05-21 01:22:14</time>
      </trkpt>
      <trkpt lat="41.82732" lon="2.18812">
        <ele>918.2</ele>
        <time>2022-05-21 01:22:15</time>
      </trkpt>
      <trkpt lat="41.82732" lon="2.18816">
        <ele>918.2</ele>
        <time>2022-05-21 01:22:16</time>
      </trkpt>
      <trkpt lat="41.82732" lon="2.1882">
        <ele>918.4</ele>
        <time>2022-05-21 01:22:17</time>
      </trkpt>
      <trkpt lat="41.82732" lon="2.18824">
        <ele>918.6</ele>
        <time>2022-05-21 01:22:18</time>
      </trkpt>
      <trkpt lat="41.82731" lon="2.18827">
        <ele>918.8</ele>
        <time>2022-05-21 01:22:19</time>
      </trkpt>
      <trkpt lat="41.8273" lon="2.18831">
        <ele>919</ele>
        <time>2022-05-21 01:22:20</time>
      </trkpt>
      <trkpt lat="41.8273" lon="2.18835">
        <ele>919.2</ele>
        <time>2022-05-21 01:22:21</time>
      </trkpt>
      <trkpt lat="41.8273" lon="2.18838">
        <ele>919.2</ele>
        <time>2022-05-21 01:22:22</time>
      </trkpt>
      <trkpt lat="41.82729" lon="2.18842">
        <ele>919.4</ele>
        <time>2022-05-21 01:22:23</time>
      </trkpt>
      <trkpt lat="41.82729" lon="2.18846">
        <ele>919.6</ele>
        <time>2022-05-21 01:22:24</time>
      </trkpt>
      <trkpt lat="41.82729" lon="2.18849">
        <ele>919.8</ele>
        <time>2022-05-21 01:22:25</time>
      </trkpt>
      <trkpt lat="41.82729" lon="2.18853">
        <ele>919.8</ele>
        <time>2022-05-21 01:22:26</time>
      </trkpt>
      <trkpt lat="41.82729" lon="2.18856">
        <ele>920</ele>
        <time>2022-05-21 01:22:27</time>
      </trkpt>
      <trkpt lat="41.82728" lon="2.18859">
        <ele>920.2</ele>
        <time>2022-05-21 01:22:28</time>
      </trkpt>
      <trkpt lat="41.82728" lon="2.18863">
        <ele>920.4</ele>
        <time>2022-05-21 01:22:29</time>
      </trkpt>
      <trkpt lat="41.82729" lon="2.18866">
        <ele>920.4</ele>
        <time>2022-05-21 01:22:30</time>
      </trkpt>
      <trkpt lat="41.82728" lon="2.18869">
        <ele>920.6</ele>
        <time>2022-05-21 01:22:31</time>
      </trkpt>
      <trkpt lat="41.82727" lon="2.18872">
        <ele>920.8</ele>
        <time>2022-05-21 01:22:32</time>
      </trkpt>
      <trkpt lat="41.82727" lon="2.18876">
        <ele>920.8</ele>
        <time>2022-05-21 01:22:33</time>
      </trkpt>
      <trkpt lat="41.82726" lon="2.1888">
        <ele>921</ele>
        <time>2022-05-21 01:22:34</time>
      </trkpt>
      <trkpt lat="41.82726" lon="2.18883">
        <ele>921</ele>
        <time>2022-05-21 01:22:35</time>
      </trkpt>
      <trkpt lat="41.82726" lon="2.18887">
        <ele>921.2</ele>
        <time>2022-05-21 01:22:36</time>
      </trkpt>
      <trkpt lat="41.82726" lon="2.18891">
        <ele>921.2</ele>
        <time>2022-05-21 01:22:37</time>
      </trkpt>
      <trkpt lat="41.82725" lon="2.18895">
        <ele>921.4</ele>
        <time>2022-05-21 01:22:38</time>
      </trkpt>
      <trkpt lat="41.82724" lon="2.18899">
        <ele>921.4</ele>
        <time>2022-05-21 01:22:39</time>
      </trkpt>
      <trkpt lat="41.82724" lon="2.18903">
        <ele>921.4</ele>
        <time>2022-05-21 01:22:40</time>
      </trkpt>
      <trkpt lat="41.82723" lon="2.18908">
        <ele>921.6</ele>
        <time>2022-05-21 01:22:41</time>
      </trkpt>
      <trkpt lat="41.82723" lon="2.18912">
        <ele>921.6</ele>
        <time>2022-05-21 01:22:42</time>
      </trkpt>
      <trkpt lat="41.82722" lon="2.18916">
        <ele>921.6</ele>
        <time>2022-05-21 01:22:43</time>
      </trkpt>
      <trkpt lat="41.82722" lon="2.18921">
        <ele>921.8</ele>
        <time>2022-05-21 01:22:44</time>
      </trkpt>
      <trkpt lat="41.82721" lon="2.18925">
        <ele>921.8</ele>
        <time>2022-05-21 01:22:45</time>
      </trkpt>
      <trkpt lat="41.8272" lon="2.1893">
        <ele>921.8</ele>
        <time>2022-05-21 01:22:46</time>
      </trkpt>
      <trkpt lat="41.82719" lon="2.18935">
        <ele>921.8</ele>
        <time>2022-05-21 01:22:47</time>
      </trkpt>
      <trkpt lat="41.82718" lon="2.18939">
        <ele>921.8</ele>
        <time>2022-05-21 01:22:48</time>
      </trkpt>
      <trkpt lat="41.82717" lon="2.18945">
        <ele>921.8</ele>
        <time>2022-05-21 01:22:49</time>
      </trkpt>
      <trkpt lat="41.82716" lon="2.1895">
        <ele>921.8</ele>
        <time>2022-05-21 01:22:50</time>
      </trkpt>
      <trkpt lat="41.82714" lon="2.18955">
        <ele>921.8</ele>
        <time>2022-05-21 01:22:51</time>
      </trkpt>
      <trkpt lat="41.82713" lon="2.18961">
        <ele>921.6</ele>
        <time>2022-05-21 01:22:52</time>
      </trkpt>
      <trkpt lat="41.82711" lon="2.18967">
        <ele>921.6</ele>
        <time>2022-05-21 01:22:53</time>
      </trkpt>
      <trkpt lat="41.82709" lon="2.18973">
        <ele>921.4</ele>
        <time>2022-05-21 01:22:54</time>
      </trkpt>
      <trkpt lat="41.82707" lon="2.18979">
        <ele>921.2</ele>
        <time>2022-05-21 01:22:55</time>
      </trkpt>
      <trkpt lat="41.82704" lon="2.18985">
        <ele>921</ele>
        <time>2022-05-21 01:22:56</time>
      </trkpt>
      <trkpt lat="41.82701" lon="2.18992">
        <ele>920.6</ele>
        <time>2022-05-21 01:22:57</time>
      </trkpt>
      <trkpt lat="41.82697" lon="2.19">
        <ele>920.4</ele>
        <time>2022-05-21 01:22:58</time>
      </trkpt>
      <trkpt lat="41.82693" lon="2.19008">
        <ele>920</ele>
        <time>2022-05-21 01:22:59</time>
      </trkpt>
      <trkpt lat="41.8269" lon="2.19016">
        <ele>919.6</ele>
        <time>2022-05-21 01:23:00</time>
      </trkpt>
      <trkpt lat="41.82686" lon="2.19024">
        <ele>919.2</ele>
        <time>2022-05-21 01:23:01</time>
      </trkpt>
      <trkpt lat="41.82682" lon="2.19033">
        <ele>918.8</ele>
        <time>2022-05-21 01:23:02</time>
      </trkpt>
      <trkpt lat="41.82677" lon="2.19042">
        <ele>918.2</ele>
        <time>2022-05-21 01:23:03</time>
      </trkpt>
      <trkpt lat="41.82672" lon="2.19051">
        <ele>917.6</ele>
        <time>2022-05-21 01:23:04</time>
      </trkpt>
      <trkpt lat="41.82667" lon="2.1906">
        <ele>917.2</ele>
        <time>2022-05-21 01:23:05</time>
      </trkpt>
      <trkpt lat="41.82662" lon="2.1907">
        <ele>916.6</ele>
        <time>2022-05-21 01:23:06</time>
      </trkpt>
      <trkpt lat="41.82657" lon="2.19081">
        <ele>916</ele>
        <time>2022-05-21 01:23:07</time>
      </trkpt>
      <trkpt lat="41.82652" lon="2.19091">
        <ele>915.4</ele>
        <time>2022-05-21 01:23:08</time>
      </trkpt>
      <trkpt lat="41.82647" lon="2.19102">
        <ele>914.8</ele>
        <time>2022-05-21 01:23:09</time>
      </trkpt>
      <trkpt lat="41.82641" lon="2.19113">
        <ele>914.4</ele>
        <time>2022-05-21 01:23:10</time>
      </trkpt>
      <trkpt lat="41.82636" lon="2.19124">
        <ele>913.8</ele>
        <time>2022-05-21 01:23:11</time>
      </trkpt>
      <trkpt lat="41.8263" lon="2.19134">
        <ele>913.2</ele>
        <time>2022-05-21 01:23:12</time>
      </trkpt>
      <trkpt lat="41.82623" lon="2.19143">
        <ele>912.6</ele>
        <time>2022-05-21 01:23:13</time>
      </trkpt>
      <trkpt lat="41.82616" lon="2.19153">
        <ele>911.8</ele>
        <time>2022-05-21 01:23:14</time>
      </trkpt>
      <trkpt lat="41.82608" lon="2.19162">
        <ele>911.2</ele>
        <time>2022-05-21 01:23:15</time>
      </trkpt>
      <trkpt lat="41.826" lon="2.1917">
        <ele>910.6</ele>
        <time>2022-05-21 01:23:16</time>
      </trkpt>
      <trkpt lat="41.82594" lon="2.19175">
        <ele>910</ele>
        <time>2022-05-21 01:23:17</time>
      </trkpt>
      <trkpt lat="41.8259" lon="2.19179">
        <ele>909.4</ele>
        <time>2022-05-21 01:23:18</time>
      </trkpt>
      <trkpt lat="41.82578" lon="2.1919">
        <ele>908.6</ele>
        <time>2022-05-21 01:23:19</time>
      </trkpt>
      <trkpt lat="41.82567" lon="2.19199">
        <ele>907.8</ele>
        <time>2022-05-21 01:23:20</time>
      </trkpt>
      <trkpt lat="41.82557" lon="2.19207">
        <ele>907.2</ele>
        <time>2022-05-21 01:23:21</time>
      </trkpt>
      <trkpt lat="41.82547" lon="2.19216">
        <ele>906.6</ele>
        <time>2022-05-21 01:23:22</time>
      </trkpt>
      <trkpt lat="41.82537" lon="2.19225">
        <ele>906</ele>
        <time>2022-05-21 01:23:23</time>
      </trkpt>
      <trkpt lat="41.8253" lon="2.19237">
        <ele>905.4</ele>
        <time>2022-05-21 01:23:24</time>
      </trkpt>
      <trkpt lat="41.82523" lon="2.1925">
        <ele>904.8</ele>
        <time>2022-05-21 01:23:25</time>
      </trkpt>
      <trkpt lat="41.82517" lon="2.19263">
        <ele>904.2</ele>
        <time>2022-05-21 01:23:26</time>
      </trkpt>
      <trkpt lat="41.82512" lon="2.19277">
        <ele>903.8</ele>
        <time>2022-05-21 01:23:27</time>
      </trkpt>
      <trkpt lat="41.82508" lon="2.19291">
        <ele>903.4</ele>
        <time>2022-05-21 01:23:28</time>
      </trkpt>
      <trkpt lat="41.82505" lon="2.19306">
        <ele>902.8</ele>
        <time>2022-05-21 01:23:29</time>
      </trkpt>
      <trkpt lat="41.82503" lon="2.19322">
        <ele>902.4</ele>
        <time>2022-05-21 01:23:30</time>
      </trkpt>
      <trkpt lat="41.82501" lon="2.19339">
        <ele>901.8</ele>
        <time>2022-05-21 01:23:31</time>
      </trkpt>
      <trkpt lat="41.825" lon="2.19356">
        <ele>901.4</ele>
        <time>2022-05-21 01:23:32</time>
      </trkpt>
      <trkpt lat="41.82502" lon="2.19371">
        <ele>900.8</ele>
        <time>2022-05-21 01:23:33</time>
      </trkpt>
      <trkpt lat="41.82505" lon="2.19386">
        <ele>900.2</ele>
        <time>2022-05-21 01:23:34</time>
      </trkpt>
      <trkpt lat="41.82508" lon="2.19401">
        <ele>899.6</ele>
        <time>2022-05-21 01:23:35</time>
      </trkpt>
      <trkpt lat="41.82513" lon="2.19414">
        <ele>899</ele>
        <time>2022-05-21 01:23:36</time>
      </trkpt>
      <trkpt lat="41.82519" lon="2.19427">
        <ele>898.4</ele>
        <time>2022-05-21 01:23:37</time>
      </trkpt>
      <trkpt lat="41.82526" lon="2.1944">
        <ele>897.8</ele>
        <time>2022-05-21 01:23:38</time>
      </trkpt>
      <trkpt lat="41.82533" lon="2.19452">
        <ele>897.4</ele>
        <time>2022-05-21 01:23:39</time>
      </trkpt>
      <trkpt lat="41.82541" lon="2.19464">
        <ele>896.8</ele>
        <time>2022-05-21 01:23:40</time>
      </trkpt>
      <trkpt lat="41.82549" lon="2.19476">
        <ele>896</ele>
        <time>2022-05-21 01:23:41</time>
      </trkpt>
      <trkpt lat="41.82557" lon="2.19488">
        <ele>895.4</ele>
        <time>2022-05-21 01:23:42</time>
      </trkpt>
      <trkpt lat="41.82565" lon="2.195">
        <ele>894.8</ele>
        <time>2022-05-21 01:23:43</time>
      </trkpt>
      <trkpt lat="41.82573" lon="2.19511">
        <ele>894.2</ele>
        <time>2022-05-21 01:23:44</time>
      </trkpt>
      <trkpt lat="41.8258" lon="2.19522">
        <ele>893.6</ele>
        <time>2022-05-21 01:23:45</time>
      </trkpt>
      <trkpt lat="41.82588" lon="2.19532">
        <ele>893.2</ele>
        <time>2022-05-21 01:23:46</time>
      </trkpt>
      <trkpt lat="41.82595" lon="2.19541">
        <ele>892.8</ele>
        <time>2022-05-21 01:23:47</time>
      </trkpt>
      <trkpt lat="41.82602" lon="2.19547">
        <ele>892.4</ele>
        <time>2022-05-21 01:23:48</time>
      </trkpt>
      <trkpt lat="41.82609" lon="2.19552">
        <ele>892</ele>
        <time>2022-05-21 01:23:49</time>
      </trkpt>
      <trkpt lat="41.82617" lon="2.19554">
        <ele>891.6</ele>
        <time>2022-05-21 01:23:50</time>
      </trkpt>
      <trkpt lat="41.82625" lon="2.19554">
        <ele>890.8</ele>
        <time>2022-05-21 01:23:51</time>
      </trkpt>
      <trkpt lat="41.82632" lon="2.1955">
        <ele>890.4</ele>
        <time>2022-05-21 01:23:52</time>
      </trkpt>
      <trkpt lat="41.82637" lon="2.19543">
        <ele>889.8</ele>
        <time>2022-05-21 01:23:53</time>
      </trkpt>
      <trkpt lat="41.82639" lon="2.19535">
        <ele>889.2</ele>
        <time>2022-05-21 01:23:54</time>
      </trkpt>
      <trkpt lat="41.82637" lon="2.19527">
        <ele>888.8</ele>
        <time>2022-05-21 01:23:55</time>
      </trkpt>
      <trkpt lat="41.82635" lon="2.19518">
        <ele>888.4</ele>
        <time>2022-05-21 01:23:56</time>
      </trkpt>
      <trkpt lat="41.82632" lon="2.19509">
        <ele>888.2</ele>
        <time>2022-05-21 01:23:57</time>
      </trkpt>
      <trkpt lat="41.82631" lon="2.195">
        <ele>888</ele>
        <time>2022-05-21 01:23:58</time>
      </trkpt>
      <trkpt lat="41.82631" lon="2.19491">
        <ele>887.8</ele>
        <time>2022-05-21 01:23:59</time>
      </trkpt>
      <trkpt lat="41.82633" lon="2.19482">
        <ele>887.6</ele>
        <time>2022-05-21 01:24:00</time>
      </trkpt>
      <trkpt lat="41.82635" lon="2.19473">
        <ele>887.6</ele>
        <time>2022-05-21 01:24:01</time>
      </trkpt>
      <trkpt lat="41.82638" lon="2.19464">
        <ele>887.4</ele>
        <time>2022-05-21 01:24:02</time>
      </trkpt>
      <trkpt lat="41.82639" lon="2.19455">
        <ele>887.4</ele>
        <time>2022-05-21 01:24:03</time>
      </trkpt>
      <trkpt lat="41.8264" lon="2.19446">
        <ele>887.2</ele>
        <time>2022-05-21 01:24:04</time>
      </trkpt>
      <trkpt lat="41.8264" lon="2.19437">
        <ele>887.2</ele>
        <time>2022-05-21 01:24:05</time>
      </trkpt>
      <trkpt lat="41.82639" lon="2.19428">
        <ele>887</ele>
        <time>2022-05-21 01:24:06</time>
      </trkpt>
      <trkpt lat="41.82638" lon="2.1942">
        <ele>887</ele>
        <time>2022-05-21 01:24:07</time>
      </trkpt>
      <trkpt lat="41.82637" lon="2.19411">
        <ele>886.8</ele>
        <time>2022-05-21 01:24:08</time>
      </trkpt>
      <trkpt lat="41.82636" lon="2.19402">
        <ele>886.8</ele>
        <time>2022-05-21 01:24:09</time>
      </trkpt>
      <trkpt lat="41.82637" lon="2.19394">
        <ele>886.6</ele>
        <time>2022-05-21 01:24:10</time>
      </trkpt>
      <trkpt lat="41.8264" lon="2.19386">
        <ele>886.4</ele>
        <time>2022-05-21 01:24:11</time>
      </trkpt>
      <trkpt lat="41.82644" lon="2.1938">
        <ele>886.2</ele>
        <time>2022-05-21 01:24:12</time>
      </trkpt>
      <trkpt lat="41.82649" lon="2.19374">
        <ele>885.8</ele>
        <time>2022-05-21 01:24:13</time>
      </trkpt>
      <trkpt lat="41.82655" lon="2.19371">
        <ele>885.4</ele>
        <time>2022-05-21 01:24:14</time>
      </trkpt>
      <trkpt lat="41.82662" lon="2.1937">
        <ele>885</ele>
        <time>2022-05-21 01:24:15</time>
      </trkpt>
      <trkpt lat="41.82669" lon="2.19372">
        <ele>884.6</ele>
        <time>2022-05-21 01:24:16</time>
      </trkpt>
      <trkpt lat="41.82676" lon="2.19376">
        <ele>884.2</ele>
        <time>2022-05-21 01:24:17</time>
      </trkpt>
      <trkpt lat="41.82683" lon="2.19381">
        <ele>883.8</ele>
        <time>2022-05-21 01:24:18</time>
      </trkpt>
      <trkpt lat="41.82691" lon="2.19388">
        <ele>883.2</ele>
        <time>2022-05-21 01:24:19</time>
      </trkpt>
      <trkpt lat="41.82698" lon="2.19396">
        <ele>882.6</ele>
        <time>2022-05-21 01:24:20</time>
      </trkpt>
      <trkpt lat="41.82705" lon="2.19404">
        <ele>882.2</ele>
        <time>2022-05-21 01:24:21</time>
      </trkpt>
      <trkpt lat="41.82712" lon="2.19413">
        <ele>881.8</ele>
        <time>2022-05-21 01:24:22</time>
      </trkpt>
      <trkpt lat="41.82719" lon="2.19423">
        <ele>881.2</ele>
        <time>2022-05-21 01:24:23</time>
      </trkpt>
      <trkpt lat="41.82726" lon="2.19433">
        <ele>880.6</ele>
        <time>2022-05-21 01:24:24</time>
      </trkpt>
      <trkpt lat="41.82733" lon="2.19443">
        <ele>880.2</ele>
        <time>2022-05-21 01:24:25</time>
      </trkpt>
      <trkpt lat="41.82741" lon="2.19453">
        <ele>879.6</ele>
        <time>2022-05-21 01:24:26</time>
      </trkpt>
      <trkpt lat="41.82748" lon="2.19463">
        <ele>879</ele>
        <time>2022-05-21 01:24:27</time>
      </trkpt>
      <trkpt lat="41.82756" lon="2.19473">
        <ele>878.4</ele>
        <time>2022-05-21 01:24:28</time>
      </trkpt>
      <trkpt lat="41.82765" lon="2.19483">
        <ele>877.8</ele>
        <time>2022-05-21 01:24:29</time>
      </trkpt>
      <trkpt lat="41.82773" lon="2.19492">
        <ele>877.2</ele>
        <time>2022-05-21 01:24:30</time>
      </trkpt>
      <trkpt lat="41.82782" lon="2.19501">
        <ele>876.6</ele>
        <time>2022-05-21 01:24:31</time>
      </trkpt>
      <trkpt lat="41.82792" lon="2.19509">
        <ele>876</ele>
        <time>2022-05-21 01:24:32</time>
      </trkpt>
      <trkpt lat="41.82802" lon="2.19518">
        <ele>875.4</ele>
        <time>2022-05-21 01:24:33</time>
      </trkpt>
      <trkpt lat="41.82813" lon="2.19525">
        <ele>874.6</ele>
        <time>2022-05-21 01:24:34</time>
      </trkpt>
      <trkpt lat="41.82824" lon="2.19531">
        <ele>873.8</ele>
        <time>2022-05-21 01:24:35</time>
      </trkpt>
      <trkpt lat="41.82835" lon="2.19538">
        <ele>873</ele>
        <time>2022-05-21 01:24:36</time>
      </trkpt>
      <trkpt lat="41.82847" lon="2.19545">
        <ele>872.2</ele>
        <time>2022-05-21 01:24:37</time>
      </trkpt>
      <trkpt lat="41.82858" lon="2.19553">
        <ele>871.6</ele>
        <time>2022-05-21 01:24:38</time>
      </trkpt>
      <trkpt lat="41.8287" lon="2.1956">
        <ele>871.2</ele>
        <time>2022-05-21 01:24:39</time>
      </trkpt>
      <trkpt lat="41.82882" lon="2.19568">
        <ele>870.6</ele>
        <time>2022-05-21 01:24:40</time>
      </trkpt>
      <trkpt lat="41.82893" lon="2.19576">
        <ele>870.2</ele>
        <time>2022-05-21 01:24:41</time>
      </trkpt>
      <trkpt lat="41.82904" lon="2.19583">
        <ele>869.6</ele>
        <time>2022-05-21 01:24:42</time>
      </trkpt>
      <trkpt lat="41.82915" lon="2.1959">
        <ele>869.2</ele>
        <time>2022-05-21 01:24:43</time>
      </trkpt>
      <trkpt lat="41.82926" lon="2.19596">
        <ele>868.6</ele>
        <time>2022-05-21 01:24:44</time>
      </trkpt>
      <trkpt lat="41.82936" lon="2.19603">
        <ele>868.2</ele>
        <time>2022-05-21 01:24:45</time>
      </trkpt>
      <trkpt lat="41.82947" lon="2.19612">
        <ele>867.6</ele>
        <time>2022-05-21 01:24:46</time>
      </trkpt>
      <trkpt lat="41.82957" lon="2.1962">
        <ele>867</ele>
        <time>2022-05-21 01:24:47</time>
      </trkpt>
      <trkpt lat="41.82967" lon="2.19629">
        <ele>866.4</ele>
        <time>2022-05-21 01:24:48</time>
      </trkpt>
      <trkpt lat="41.82978" lon="2.19638">
        <ele>865.8</ele>
        <time>2022-05-21 01:24:49</time>
      </trkpt>
      <trkpt lat="41.82988" lon="2.19648">
        <ele>865.4</ele>
        <time>2022-05-21 01:24:50</time>
      </trkpt>
      <trkpt lat="41.82998" lon="2.19657">
        <ele>864.8</ele>
        <time>2022-05-21 01:24:51</time>
      </trkpt>
      <trkpt lat="41.83007" lon="2.19666">
        <ele>864</ele>
        <time>2022-05-21 01:24:52</time>
      </trkpt>
      <trkpt lat="41.83017" lon="2.19676">
        <ele>863.4</ele>
        <time>2022-05-21 01:24:53</time>
      </trkpt>
      <trkpt lat="41.83027" lon="2.19685">
        <ele>862.8</ele>
        <time>2022-05-21 01:24:54</time>
      </trkpt>
      <trkpt lat="41.83037" lon="2.19694">
        <ele>862.2</ele>
        <time>2022-05-21 01:24:55</time>
      </trkpt>
      <trkpt lat="41.83048" lon="2.19701">
        <ele>861.8</ele>
        <time>2022-05-21 01:24:56</time>
      </trkpt>
      <trkpt lat="41.83059" lon="2.19708">
        <ele>861</ele>
        <time>2022-05-21 01:24:57</time>
      </trkpt>
      <trkpt lat="41.83071" lon="2.19715">
        <ele>860.4</ele>
        <time>2022-05-21 01:24:58</time>
      </trkpt>
      <trkpt lat="41.83083" lon="2.19721">
        <ele>859.8</ele>
        <time>2022-05-21 01:24:59</time>
      </trkpt>
      <trkpt lat="41.83094" lon="2.19727">
        <ele>859.4</ele>
        <time>2022-05-21 01:25:00</time>
      </trkpt>
      <trkpt lat="41.83105" lon="2.19732">
        <ele>859</ele>
        <time>2022-05-21 01:25:01</time>
      </trkpt>
      <trkpt lat="41.83117" lon="2.19735">
        <ele>858.4</ele>
        <time>2022-05-21 01:25:02</time>
      </trkpt>
      <trkpt lat="41.83128" lon="2.19736">
        <ele>857.8</ele>
        <time>2022-05-21 01:25:03</time>
      </trkpt>
      <trkpt lat="41.8314" lon="2.19734">
        <ele>857</ele>
        <time>2022-05-21 01:25:04</time>
      </trkpt>
      <trkpt lat="41.83151" lon="2.19731">
        <ele>856.2</ele>
        <time>2022-05-21 01:25:05</time>
      </trkpt>
      <trkpt lat="41.83162" lon="2.19727">
        <ele>855.6</ele>
        <time>2022-05-21 01:25:06</time>
      </trkpt>
      <trkpt lat="41.83173" lon="2.19724">
        <ele>854.8</ele>
        <time>2022-05-21 01:25:07</time>
      </trkpt>
      <trkpt lat="41.83185" lon="2.1972">
        <ele>854.2</ele>
        <time>2022-05-21 01:25:08</time>
      </trkpt>
      <trkpt lat="41.83197" lon="2.19716">
        <ele>853.6</ele>
        <time>2022-05-21 01:25:09</time>
      </trkpt>
      <trkpt lat="41.83208" lon="2.1971">
        <ele>852.8</ele>
        <time>2022-05-21 01:25:10</time>
      </trkpt>
      <trkpt lat="41.83219" lon="2.19703">
        <ele>852</ele>
        <time>2022-05-21 01:25:11</time>
      </trkpt>
      <trkpt lat="41.83229" lon="2.19694">
        <ele>851.4</ele>
        <time>2022-05-21 01:25:12</time>
      </trkpt>
      <trkpt lat="41.83239" lon="2.19683">
        <ele>850.8</ele>
        <time>2022-05-21 01:25:13</time>
      </trkpt>
      <trkpt lat="41.83248" lon="2.19672">
        <ele>850</ele>
        <time>2022-05-21 01:25:14</time>
      </trkpt>
      <trkpt lat="41.83256" lon="2.19661">
        <ele>849.4</ele>
        <time>2022-05-21 01:25:15</time>
      </trkpt>
      <trkpt lat="41.83264" lon="2.1965">
        <ele>848.8</ele>
        <time>2022-05-21 01:25:16</time>
      </trkpt>
      <trkpt lat="41.83273" lon="2.1964">
        <ele>848</ele>
        <time>2022-05-21 01:25:17</time>
      </trkpt>
      <trkpt lat="41.83283" lon="2.19632">
        <ele>847.4</ele>
        <time>2022-05-21 01:25:18</time>
      </trkpt>
      <trkpt lat="41.83293" lon="2.19624">
        <ele>846.8</ele>
        <time>2022-05-21 01:25:19</time>
      </trkpt>
      <trkpt lat="41.83301" lon="2.19613">
        <ele>846.2</ele>
        <time>2022-05-21 01:25:20</time>
      </trkpt>
      <trkpt lat="41.83307" lon="2.19601">
        <ele>845.6</ele>
        <time>2022-05-21 01:25:21</time>
      </trkpt>
      <trkpt lat="41.83313" lon="2.19588">
        <ele>845</ele>
        <time>2022-05-21 01:25:22</time>
      </trkpt>
      <trkpt lat="41.83318" lon="2.19574">
        <ele>844.4</ele>
        <time>2022-05-21 01:25:23</time>
      </trkpt>
      <trkpt lat="41.83323" lon="2.19559">
        <ele>843.6</ele>
        <time>2022-05-21 01:25:24</time>
      </trkpt>
      <trkpt lat="41.83328" lon="2.19545">
        <ele>843</ele>
        <time>2022-05-21 01:25:25</time>
      </trkpt>
      <trkpt lat="41.83334" lon="2.1953">
        <ele>842.4</ele>
        <time>2022-05-21 01:25:26</time>
      </trkpt>
      <trkpt lat="41.8334" lon="2.19515">
        <ele>841.6</ele>
        <time>2022-05-21 01:25:27</time>
      </trkpt>
      <trkpt lat="41.83347" lon="2.19501">
        <ele>841</ele>
        <time>2022-05-21 01:25:28</time>
      </trkpt>
      <trkpt lat="41.83354" lon="2.19488">
        <ele>840.4</ele>
        <time>2022-05-21 01:25:29</time>
      </trkpt>
      <trkpt lat="41.83362" lon="2.19475">
        <ele>839.8</ele>
        <time>2022-05-21 01:25:30</time>
      </trkpt>
      <trkpt lat="41.83368" lon="2.19462">
        <ele>839.2</ele>
        <time>2022-05-21 01:25:31</time>
      </trkpt>
      <trkpt lat="41.83373" lon="2.19447">
        <ele>838.6</ele>
        <time>2022-05-21 01:25:32</time>
      </trkpt>
      <trkpt lat="41.83376" lon="2.19433">
        <ele>838.2</ele>
        <time>2022-05-21 01:25:33</time>
      </trkpt>
      <trkpt lat="41.83377" lon="2.19418">
        <ele>837.6</ele>
        <time>2022-05-21 01:25:34</time>
      </trkpt>
      <trkpt lat="41.83379" lon="2.19404">
        <ele>837</ele>
        <time>2022-05-21 01:25:35</time>
      </trkpt>
      <trkpt lat="41.83379" lon="2.19389">
        <ele>836.4</ele>
        <time>2022-05-21 01:25:36</time>
      </trkpt>
      <trkpt lat="41.83377" lon="2.19375">
        <ele>835.8</ele>
        <time>2022-05-21 01:25:37</time>
      </trkpt>
      <trkpt lat="41.83375" lon="2.1936">
        <ele>835</ele>
        <time>2022-05-21 01:25:38</time>
      </trkpt>
      <trkpt lat="41.83372" lon="2.19345">
        <ele>834.4</ele>
        <time>2022-05-21 01:25:39</time>
      </trkpt>
      <trkpt lat="41.83369" lon="2.19329">
        <ele>833.6</ele>
        <time>2022-05-21 01:25:40</time>
      </trkpt>
      <trkpt lat="41.83368" lon="2.19314">
        <ele>833</ele>
        <time>2022-05-21 01:25:41</time>
      </trkpt>
      <trkpt lat="41.83366" lon="2.19297">
        <ele>832.2</ele>
        <time>2022-05-21 01:25:42</time>
      </trkpt>
      <trkpt lat="41.83365" lon="2.1928">
        <ele>831.6</ele>
        <time>2022-05-21 01:25:43</time>
      </trkpt>
      <trkpt lat="41.83366" lon="2.19265">
        <ele>830.8</ele>
        <time>2022-05-21 01:25:44</time>
      </trkpt>
      <trkpt lat="41.83369" lon="2.19249">
        <ele>830.2</ele>
        <time>2022-05-21 01:25:45</time>
      </trkpt>
      <trkpt lat="41.83372" lon="2.19233">
        <ele>829.8</ele>
        <time>2022-05-21 01:25:46</time>
      </trkpt>
      <trkpt lat="41.83377" lon="2.1922">
        <ele>829.6</ele>
        <time>2022-05-21 01:25:47</time>
      </trkpt>
      <trkpt lat="41.83383" lon="2.1921">
        <ele>829.4</ele>
        <time>2022-05-21 01:25:48</time>
      </trkpt>
      <trkpt lat="41.8339" lon="2.19201">
        <ele>829.2</ele>
        <time>2022-05-21 01:25:49</time>
      </trkpt>
      <trkpt lat="41.83399" lon="2.19194">
        <ele>829.2</ele>
        <time>2022-05-21 01:25:50</time>
      </trkpt>
      <trkpt lat="41.83408" lon="2.19188">
        <ele>829.2</ele>
        <time>2022-05-21 01:25:51</time>
      </trkpt>
      <trkpt lat="41.83416" lon="2.1918">
        <ele>829</ele>
        <time>2022-05-21 01:25:52</time>
      </trkpt>
      <trkpt lat="41.83424" lon="2.1917">
        <ele>828.6</ele>
        <time>2022-05-21 01:25:53</time>
      </trkpt>
      <trkpt lat="41.83431" lon="2.19159">
        <ele>828.2</ele>
        <time>2022-05-21 01:25:54</time>
      </trkpt>
      <trkpt lat="41.83437" lon="2.19148">
        <ele>827.8</ele>
        <time>2022-05-21 01:25:55</time>
      </trkpt>
      <trkpt lat="41.83441" lon="2.19136">
        <ele>827.4</ele>
        <time>2022-05-21 01:25:56</time>
      </trkpt>
      <trkpt lat="41.83442" lon="2.19122">
        <ele>827</ele>
        <time>2022-05-21 01:25:57</time>
      </trkpt>
      <trkpt lat="41.83441" lon="2.19108">
        <ele>826.6</ele>
        <time>2022-05-21 01:25:58</time>
      </trkpt>
      <trkpt lat="41.83442" lon="2.19095">
        <ele>826.2</ele>
        <time>2022-05-21 01:25:59</time>
      </trkpt>
      <trkpt lat="41.83442" lon="2.1908">
        <ele>825.8</ele>
        <time>2022-05-21 01:26:00</time>
      </trkpt>
      <trkpt lat="41.83445" lon="2.19067">
        <ele>825.6</ele>
        <time>2022-05-21 01:26:01</time>
      </trkpt>
      <trkpt lat="41.83449" lon="2.19057">
        <ele>825.2</ele>
        <time>2022-05-21 01:26:02</time>
      </trkpt>
      <trkpt lat="41.83455" lon="2.19051">
        <ele>825</ele>
        <time>2022-05-21 01:26:03</time>
      </trkpt>
      <trkpt lat="41.83464" lon="2.19047">
        <ele>825</ele>
        <time>2022-05-21 01:26:04</time>
      </trkpt>
      <trkpt lat="41.83472" lon="2.19048">
        <ele>824.8</ele>
        <time>2022-05-21 01:26:05</time>
      </trkpt>
      <trkpt lat="41.8348" lon="2.19051">
        <ele>824.4</ele>
        <time>2022-05-21 01:26:06</time>
      </trkpt>
      <trkpt lat="41.8349" lon="2.19056">
        <ele>824.2</ele>
        <time>2022-05-21 01:26:07</time>
      </trkpt>
      <trkpt lat="41.83498" lon="2.19059">
        <ele>823.8</ele>
        <time>2022-05-21 01:26:08</time>
      </trkpt>
      <trkpt lat="41.83508" lon="2.19061">
        <ele>823.4</ele>
        <time>2022-05-21 01:26:09</time>
      </trkpt>
      <trkpt lat="41.83517" lon="2.19061">
        <ele>822.8</ele>
        <time>2022-05-21 01:26:10</time>
      </trkpt>
      <trkpt lat="41.83527" lon="2.19058">
        <ele>822.2</ele>
        <time>2022-05-21 01:26:11</time>
      </trkpt>
      <trkpt lat="41.83537" lon="2.19053">
        <ele>821.6</ele>
        <time>2022-05-21 01:26:12</time>
      </trkpt>
      <trkpt lat="41.83546" lon="2.19047">
        <ele>821</ele>
        <time>2022-05-21 01:26:13</time>
      </trkpt>
      <trkpt lat="41.83553" lon="2.19038">
        <ele>820.4</ele>
        <time>2022-05-21 01:26:14</time>
      </trkpt>
      <trkpt lat="41.8356" lon="2.19027">
        <ele>819.8</ele>
        <time>2022-05-21 01:26:15</time>
      </trkpt>
      <trkpt lat="41.83567" lon="2.19019">
        <ele>819.2</ele>
        <time>2022-05-21 01:26:16</time>
      </trkpt>
      <trkpt lat="41.83576" lon="2.19015">
        <ele>818.6</ele>
        <time>2022-05-21 01:26:17</time>
      </trkpt>
      <trkpt lat="41.83584" lon="2.19015">
        <ele>818.2</ele>
        <time>2022-05-21 01:26:18</time>
      </trkpt>
      <trkpt lat="41.83593" lon="2.19017">
        <ele>817.8</ele>
        <time>2022-05-21 01:26:19</time>
      </trkpt>
      <trkpt lat="41.83601" lon="2.19021">
        <ele>817.4</ele>
        <time>2022-05-21 01:26:20</time>
      </trkpt>
      <trkpt lat="41.83608" lon="2.19029">
        <ele>817</ele>
        <time>2022-05-21 01:26:21</time>
      </trkpt>
      <trkpt lat="41.83612" lon="2.1904">
        <ele>816.4</ele>
        <time>2022-05-21 01:26:22</time>
      </trkpt>
      <trkpt lat="41.83615" lon="2.19051">
        <ele>816</ele>
        <time>2022-05-21 01:26:23</time>
      </trkpt>
      <trkpt lat="41.83616" lon="2.19063">
        <ele>815.4</ele>
        <time>2022-05-21 01:26:24</time>
      </trkpt>
      <trkpt lat="41.83618" lon="2.19076">
        <ele>815</ele>
        <time>2022-05-21 01:26:25</time>
      </trkpt>
      <trkpt lat="41.8362" lon="2.19091">
        <ele>814.6</ele>
        <time>2022-05-21 01:26:26</time>
      </trkpt>
      <trkpt lat="41.83622" lon="2.19105">
        <ele>814</ele>
        <time>2022-05-21 01:26:27</time>
      </trkpt>
      <trkpt lat="41.83625" lon="2.1912">
        <ele>813.6</ele>
        <time>2022-05-21 01:26:28</time>
      </trkpt>
      <trkpt lat="41.83629" lon="2.19135">
        <ele>813</ele>
        <time>2022-05-21 01:26:29</time>
      </trkpt>
      <trkpt lat="41.83633" lon="2.19151">
        <ele>812.4</ele>
        <time>2022-05-21 01:26:30</time>
      </trkpt>
      <trkpt lat="41.83637" lon="2.19166">
        <ele>811.6</ele>
        <time>2022-05-21 01:26:31</time>
      </trkpt>
      <trkpt lat="41.83643" lon="2.19181">
        <ele>811</ele>
        <time>2022-05-21 01:26:32</time>
      </trkpt>
      <trkpt lat="41.83649" lon="2.19196">
        <ele>810.4</ele>
        <time>2022-05-21 01:26:33</time>
      </trkpt>
      <trkpt lat="41.83657" lon="2.19209">
        <ele>809.6</ele>
        <time>2022-05-21 01:26:34</time>
      </trkpt>
      <trkpt lat="41.83665" lon="2.19222">
        <ele>808.8</ele>
        <time>2022-05-21 01:26:35</time>
      </trkpt>
      <trkpt lat="41.83675" lon="2.19233">
        <ele>808</ele>
        <time>2022-05-21 01:26:36</time>
      </trkpt>
      <trkpt lat="41.83685" lon="2.19244">
        <ele>807.2</ele>
        <time>2022-05-21 01:26:37</time>
      </trkpt>
      <trkpt lat="41.83693" lon="2.19256">
        <ele>806.4</ele>
        <time>2022-05-21 01:26:38</time>
      </trkpt>
      <trkpt lat="41.83702" lon="2.19267">
        <ele>805.8</ele>
        <time>2022-05-21 01:26:39</time>
      </trkpt>
      <trkpt lat="41.8371" lon="2.19278">
        <ele>805</ele>
        <time>2022-05-21 01:26:40</time>
      </trkpt>
      <trkpt lat="41.83718" lon="2.19291">
        <ele>804.4</ele>
        <time>2022-05-21 01:26:41</time>
      </trkpt>
      <trkpt lat="41.83727" lon="2.19304">
        <ele>803.6</ele>
        <time>2022-05-21 01:26:42</time>
      </trkpt>
      <trkpt lat="41.83735" lon="2.19318">
        <ele>803</ele>
        <time>2022-05-21 01:26:43</time>
      </trkpt>
      <trkpt lat="41.83743" lon="2.19331">
        <ele>802.2</ele>
        <time>2022-05-21 01:26:44</time>
      </trkpt>
      <trkpt lat="41.83751" lon="2.19345">
        <ele>801.6</ele>
        <time>2022-05-21 01:26:45</time>
      </trkpt>
      <trkpt lat="41.83757" lon="2.1936">
        <ele>801</ele>
        <time>2022-05-21 01:26:46</time>
      </trkpt>
      <trkpt lat="41.83764" lon="2.19376">
        <ele>800.2</ele>
        <time>2022-05-21 01:26:47</time>
      </trkpt>
      <trkpt lat="41.83771" lon="2.1939">
        <ele>799.6</ele>
        <time>2022-05-21 01:26:48</time>
      </trkpt>
      <trkpt lat="41.83778" lon="2.19404">
        <ele>798.8</ele>
        <time>2022-05-21 01:26:49</time>
      </trkpt>
      <trkpt lat="41.83785" lon="2.19419">
        <ele>798.2</ele>
        <time>2022-05-21 01:26:50</time>
      </trkpt>
      <trkpt lat="41.83793" lon="2.19432">
        <ele>797.6</ele>
        <time>2022-05-21 01:26:51</time>
      </trkpt>
      <trkpt lat="41.83801" lon="2.19444">
        <ele>796.8</ele>
        <time>2022-05-21 01:26:52</time>
      </trkpt>
      <trkpt lat="41.83811" lon="2.19454">
        <ele>796.2</ele>
        <time>2022-05-21 01:26:53</time>
      </trkpt>
      <trkpt lat="41.83822" lon="2.19463">
        <ele>795.4</ele>
        <time>2022-05-21 01:26:54</time>
      </trkpt>
      <trkpt lat="41.83833" lon="2.1947">
        <ele>794.8</ele>
        <time>2022-05-21 01:26:55</time>
      </trkpt>
      <trkpt lat="41.83844" lon="2.19478">
        <ele>794</ele>
        <time>2022-05-21 01:26:56</time>
      </trkpt>
      <trkpt lat="41.83855" lon="2.19485">
        <ele>793.2</ele>
        <time>2022-05-21 01:26:57</time>
      </trkpt>
      <trkpt lat="41.83867" lon="2.19491">
        <ele>792.6</ele>
        <time>2022-05-21 01:26:58</time>
      </trkpt>
      <trkpt lat="41.83879" lon="2.19494">
        <ele>792</ele>
        <time>2022-05-21 01:26:59</time>
      </trkpt>
      <trkpt lat="41.83891" lon="2.19496">
        <ele>791.2</ele>
        <time>2022-05-21 01:27:00</time>
      </trkpt>
      <trkpt lat="41.83903" lon="2.19495">
        <ele>790.6</ele>
        <time>2022-05-21 01:27:01</time>
      </trkpt>
      <trkpt lat="41.83914" lon="2.19493">
        <ele>790.2</ele>
        <time>2022-05-21 01:27:02</time>
      </trkpt>
      <trkpt lat="41.83923" lon="2.1949">
        <ele>789.8</ele>
        <time>2022-05-21 01:27:03</time>
      </trkpt>
      <trkpt lat="41.83931" lon="2.19489">
        <ele>789.6</ele>
        <time>2022-05-21 01:27:04</time>
      </trkpt>
      <trkpt lat="41.83937" lon="2.19491">
        <ele>789.2</ele>
        <time>2022-05-21 01:27:05</time>
      </trkpt>
      <trkpt lat="41.8394" lon="2.19496">
        <ele>789</ele>
        <time>2022-05-21 01:27:06</time>
      </trkpt>
      <trkpt lat="41.83939" lon="2.19502">
        <ele>788.6</ele>
        <time>2022-05-21 01:27:07</time>
      </trkpt>
      <trkpt lat="41.83935" lon="2.19506">
        <ele>788.2</ele>
        <time>2022-05-21 01:27:08</time>
      </trkpt>
      <trkpt lat="41.83929" lon="2.19508">
        <ele>788</ele>
        <time>2022-05-21 01:27:09</time>
      </trkpt>
      <trkpt lat="41.83922" lon="2.19508">
        <ele>787.6</ele>
        <time>2022-05-21 01:27:10</time>
      </trkpt>
      <trkpt lat="41.83915" lon="2.19509">
        <ele>787.2</ele>
        <time>2022-05-21 01:27:11</time>
      </trkpt>
      <trkpt lat="41.83907" lon="2.19509">
        <ele>787</ele>
        <time>2022-05-21 01:27:12</time>
      </trkpt>
      <trkpt lat="41.839" lon="2.1951">
        <ele>786.6</ele>
        <time>2022-05-21 01:27:13</time>
      </trkpt>
      <trkpt lat="41.83892" lon="2.19511">
        <ele>786.2</ele>
        <time>2022-05-21 01:27:14</time>
      </trkpt>
      <trkpt lat="41.83884" lon="2.19512">
        <ele>785.8</ele>
        <time>2022-05-21 01:27:15</time>
      </trkpt>
      <trkpt lat="41.83876" lon="2.19511">
        <ele>785.4</ele>
        <time>2022-05-21 01:27:16</time>
      </trkpt>
      <trkpt lat="41.83867" lon="2.19509">
        <ele>785</ele>
        <time>2022-05-21 01:27:17</time>
      </trkpt>
      <trkpt lat="41.83859" lon="2.19507">
        <ele>784.4</ele>
        <time>2022-05-21 01:27:18</time>
      </trkpt>
      <trkpt lat="41.8385" lon="2.19504">
        <ele>784</ele>
        <time>2022-05-21 01:27:19</time>
      </trkpt>
      <trkpt lat="41.83842" lon="2.195">
        <ele>783.6</ele>
        <time>2022-05-21 01:27:20</time>
      </trkpt>
      <trkpt lat="41.83833" lon="2.19496">
        <ele>783</ele>
        <time>2022-05-21 01:27:21</time>
      </trkpt>
      <trkpt lat="41.83825" lon="2.19492">
        <ele>782.6</ele>
        <time>2022-05-21 01:27:22</time>
      </trkpt>
      <trkpt lat="41.83816" lon="2.19488">
        <ele>782</ele>
        <time>2022-05-21 01:27:23</time>
      </trkpt>
      <trkpt lat="41.83807" lon="2.19483">
        <ele>781.4</ele>
        <time>2022-05-21 01:27:24</time>
      </trkpt>
      <trkpt lat="41.83797" lon="2.19478">
        <ele>781</ele>
        <time>2022-05-21 01:27:25</time>
      </trkpt>
      <trkpt lat="41.83788" lon="2.19474">
        <ele>780.4</ele>
        <time>2022-05-21 01:27:26</time>
      </trkpt>
      <trkpt lat="41.83778" lon="2.19468">
        <ele>779.8</ele>
        <time>2022-05-21 01:27:27</time>
      </trkpt>
      <trkpt lat="41.83768" lon="2.19462">
        <ele>779.2</ele>
        <time>2022-05-21 01:27:28</time>
      </trkpt>
      <trkpt lat="41.83759" lon="2.19455">
        <ele>778.6</ele>
        <time>2022-05-21 01:27:29</time>
      </trkpt>
      <trkpt lat="41.83749" lon="2.19447">
        <ele>778</ele>
        <time>2022-05-21 01:27:30</time>
      </trkpt>
      <trkpt lat="41.83741" lon="2.19439">
        <ele>777.4</ele>
        <time>2022-05-21 01:27:31</time>
      </trkpt>
      <trkpt lat="41.83734" lon="2.1943">
        <ele>776.6</ele>
        <time>2022-05-21 01:27:32</time>
      </trkpt>
      <trkpt lat="41.83725" lon="2.19421">
        <ele>776</ele>
        <time>2022-05-21 01:27:33</time>
      </trkpt>
      <trkpt lat="41.83717" lon="2.19412">
        <ele>775.2</ele>
        <time>2022-05-21 01:27:34</time>
      </trkpt>
      <trkpt lat="41.83708" lon="2.19401">
        <ele>774.6</ele>
        <time>2022-05-21 01:27:35</time>
      </trkpt>
      <trkpt lat="41.83699" lon="2.19391">
        <ele>774.2</ele>
        <time>2022-05-21 01:27:36</time>
      </trkpt>
      <trkpt lat="41.83691" lon="2.19381">
        <ele>773.6</ele>
        <time>2022-05-21 01:27:37</time>
      </trkpt>
      <trkpt lat="41.83683" lon="2.19372">
        <ele>773</ele>
        <time>2022-05-21 01:27:38</time>
      </trkpt>
      <trkpt lat="41.83674" lon="2.19363">
        <ele>772.4</ele>
        <time>2022-05-21 01:27:39</time>
      </trkpt>
      <trkpt lat="41.83666" lon="2.19354">
        <ele>771.8</ele>
        <time>2022-05-21 01:27:40</time>
      </trkpt>
      <trkpt lat="41.83659" lon="2.19345">
        <ele>771.4</ele>
        <time>2022-05-21 01:27:41</time>
      </trkpt>
      <trkpt lat="41.83651" lon="2.19336">
        <ele>771</ele>
        <time>2022-05-21 01:27:42</time>
      </trkpt>
      <trkpt lat="41.83643" lon="2.19327">
        <ele>770.6</ele>
        <time>2022-05-21 01:27:43</time>
      </trkpt>
      <trkpt lat="41.83636" lon="2.1932">
        <ele>770.4</ele>
        <time>2022-05-21 01:27:44</time>
      </trkpt>
      <trkpt lat="41.83627" lon="2.19314">
        <ele>770.2</ele>
        <time>2022-05-21 01:27:45</time>
      </trkpt>
      <trkpt lat="41.8362" lon="2.19313">
        <ele>770.2</ele>
        <time>2022-05-21 01:27:46</time>
      </trkpt>
      <trkpt lat="41.83614" lon="2.19318">
        <ele>770</ele>
        <time>2022-05-21 01:27:47</time>
      </trkpt>
      <trkpt lat="41.83611" lon="2.19326">
        <ele>770</ele>
        <time>2022-05-21 01:27:48</time>
      </trkpt>
      <trkpt lat="41.8361" lon="2.19335">
        <ele>770</ele>
        <time>2022-05-21 01:27:49</time>
      </trkpt>
      <trkpt lat="41.83612" lon="2.19342">
        <ele>770</ele>
        <time>2022-05-21 01:27:50</time>
      </trkpt>
      <trkpt lat="41.83616" lon="2.19349">
        <ele>769.8</ele>
        <time>2022-05-21 01:27:51</time>
      </trkpt>
      <trkpt lat="41.8362" lon="2.19355">
        <ele>769.6</ele>
        <time>2022-05-21 01:27:52</time>
      </trkpt>
      <trkpt lat="41.83625" lon="2.1936">
        <ele>769.4</ele>
        <time>2022-05-21 01:27:53</time>
      </trkpt>
      <trkpt lat="41.8363" lon="2.19367">
        <ele>769</ele>
        <time>2022-05-21 01:27:54</time>
      </trkpt>
      <trkpt lat="41.83636" lon="2.19374">
        <ele>768.8</ele>
        <time>2022-05-21 01:27:55</time>
      </trkpt>
      <trkpt lat="41.83642" lon="2.19381">
        <ele>768.4</ele>
        <time>2022-05-21 01:27:56</time>
      </trkpt>
      <trkpt lat="41.83648" lon="2.19389">
        <ele>768</ele>
        <time>2022-05-21 01:27:57</time>
      </trkpt>
      <trkpt lat="41.83653" lon="2.19396">
        <ele>767.6</ele>
        <time>2022-05-21 01:27:58</time>
      </trkpt>
      <trkpt lat="41.83659" lon="2.19404">
        <ele>767.2</ele>
        <time>2022-05-21 01:27:59</time>
      </trkpt>
      <trkpt lat="41.83664" lon="2.19414">
        <ele>766.8</ele>
        <time>2022-05-21 01:28:00</time>
      </trkpt>
      <trkpt lat="41.83671" lon="2.19426">
        <ele>766.4</ele>
        <time>2022-05-21 01:28:01</time>
      </trkpt>
      <trkpt lat="41.83678" lon="2.19439">
        <ele>765.8</ele>
        <time>2022-05-21 01:28:02</time>
      </trkpt>
      <trkpt lat="41.83685" lon="2.1945">
        <ele>765.4</ele>
        <time>2022-05-21 01:28:03</time>
      </trkpt>
      <trkpt lat="41.83691" lon="2.19463">
        <ele>765</ele>
        <time>2022-05-21 01:28:04</time>
      </trkpt>
      <trkpt lat="41.83698" lon="2.19476">
        <ele>764.6</ele>
        <time>2022-05-21 01:28:05</time>
      </trkpt>
      <trkpt lat="41.83705" lon="2.19489">
        <ele>764.2</ele>
        <time>2022-05-21 01:28:06</time>
      </trkpt>
      <trkpt lat="41.83711" lon="2.19501">
        <ele>763.8</ele>
        <time>2022-05-21 01:28:07</time>
      </trkpt>
      <trkpt lat="41.83718" lon="2.19512">
        <ele>763.2</ele>
        <time>2022-05-21 01:28:08</time>
      </trkpt>
      <trkpt lat="41.83724" lon="2.19524">
        <ele>762.8</ele>
        <time>2022-05-21 01:28:09</time>
      </trkpt>
      <trkpt lat="41.8373" lon="2.19535">
        <ele>762.4</ele>
        <time>2022-05-21 01:28:10</time>
      </trkpt>
      <trkpt lat="41.83736" lon="2.19545">
        <ele>761.8</ele>
        <time>2022-05-21 01:28:11</time>
      </trkpt>
      <trkpt lat="41.83744" lon="2.19554">
        <ele>761.4</ele>
        <time>2022-05-21 01:28:12</time>
      </trkpt>
      <trkpt lat="41.83753" lon="2.1956">
        <ele>761</ele>
        <time>2022-05-21 01:28:13</time>
      </trkpt>
      <trkpt lat="41.83763" lon="2.19564">
        <ele>760.4</ele>
        <time>2022-05-21 01:28:14</time>
      </trkpt>
      <trkpt lat="41.83773" lon="2.19568">
        <ele>760</ele>
        <time>2022-05-21 01:28:15</time>
      </trkpt>
      <trkpt lat="41.83783" lon="2.19574">
        <ele>759.4</ele>
        <time>2022-05-21 01:28:16</time>
      </trkpt>
      <trkpt lat="41.83794" lon="2.19579">
        <ele>758.8</ele>
        <time>2022-05-21 01:28:17</time>
      </trkpt>
      <trkpt lat="41.83804" lon="2.19584">
        <ele>758.2</ele>
        <time>2022-05-21 01:28:18</time>
      </trkpt>
      <trkpt lat="41.83815" lon="2.19589">
        <ele>757.6</ele>
        <time>2022-05-21 01:28:19</time>
      </trkpt>
      <trkpt lat="41.83827" lon="2.19593">
        <ele>756.8</ele>
        <time>2022-05-21 01:28:20</time>
      </trkpt>
      <trkpt lat="41.83839" lon="2.19598">
        <ele>756.2</ele>
        <time>2022-05-21 01:28:21</time>
      </trkpt>
      <trkpt lat="41.8385" lon="2.19603">
        <ele>755.6</ele>
        <time>2022-05-21 01:28:22</time>
      </trkpt>
      <trkpt lat="41.83862" lon="2.19607">
        <ele>754.8</ele>
        <time>2022-05-21 01:28:23</time>
      </trkpt>
      <trkpt lat="41.83874" lon="2.19612">
        <ele>754.2</ele>
        <time>2022-05-21 01:28:24</time>
      </trkpt>
      <trkpt lat="41.83885" lon="2.19617">
        <ele>753.6</ele>
        <time>2022-05-21 01:28:25</time>
      </trkpt>
      <trkpt lat="41.83896" lon="2.19621">
        <ele>752.8</ele>
        <time>2022-05-21 01:28:26</time>
      </trkpt>
      <trkpt lat="41.83907" lon="2.19624">
        <ele>752.2</ele>
        <time>2022-05-21 01:28:27</time>
      </trkpt>
      <trkpt lat="41.83918" lon="2.19625">
        <ele>751.4</ele>
        <time>2022-05-21 01:28:28</time>
      </trkpt>
      <trkpt lat="41.83931" lon="2.19626">
        <ele>750.8</ele>
        <time>2022-05-21 01:28:29</time>
      </trkpt>
      <trkpt lat="41.83942" lon="2.19625">
        <ele>750</ele>
        <time>2022-05-21 01:28:30</time>
      </trkpt>
      <trkpt lat="41.83954" lon="2.19625">
        <ele>749.4</ele>
        <time>2022-05-21 01:28:31</time>
      </trkpt>
      <trkpt lat="41.83966" lon="2.19625">
        <ele>748.6</ele>
        <time>2022-05-21 01:28:32</time>
      </trkpt>
      <trkpt lat="41.83978" lon="2.19625">
        <ele>748</ele>
        <time>2022-05-21 01:28:33</time>
      </trkpt>
      <trkpt lat="41.8399" lon="2.19623">
        <ele>747.4</ele>
        <time>2022-05-21 01:28:34</time>
      </trkpt>
      <trkpt lat="41.84002" lon="2.19618">
        <ele>746.8</ele>
        <time>2022-05-21 01:28:35</time>
      </trkpt>
      <trkpt lat="41.84012" lon="2.19612">
        <ele>746.2</ele>
        <time>2022-05-21 01:28:36</time>
      </trkpt>
      <trkpt lat="41.84022" lon="2.19605">
        <ele>745.6</ele>
        <time>2022-05-21 01:28:37</time>
      </trkpt>
      <trkpt lat="41.84032" lon="2.19596">
        <ele>745</ele>
        <time>2022-05-21 01:28:38</time>
      </trkpt>
      <trkpt lat="41.8404" lon="2.19584">
        <ele>744.2</ele>
        <time>2022-05-21 01:28:39</time>
      </trkpt>
      <trkpt lat="41.84047" lon="2.19571">
        <ele>743.6</ele>
        <time>2022-05-21 01:28:40</time>
      </trkpt>
      <trkpt lat="41.84052" lon="2.19557">
        <ele>743</ele>
        <time>2022-05-21 01:28:41</time>
      </trkpt>
      <trkpt lat="41.84058" lon="2.19542">
        <ele>742.4</ele>
        <time>2022-05-21 01:28:42</time>
      </trkpt>
      <trkpt lat="41.84063" lon="2.19528">
        <ele>741.8</ele>
        <time>2022-05-21 01:28:43</time>
      </trkpt>
      <trkpt lat="41.84068" lon="2.19514">
        <ele>741.2</ele>
        <time>2022-05-21 01:28:44</time>
      </trkpt>
      <trkpt lat="41.84075" lon="2.19502">
        <ele>740.6</ele>
        <time>2022-05-21 01:28:45</time>
      </trkpt>
      <trkpt lat="41.84082" lon="2.19492">
        <ele>740</ele>
        <time>2022-05-21 01:28:46</time>
      </trkpt>
      <trkpt lat="41.84091" lon="2.19485">
        <ele>739.4</ele>
        <time>2022-05-21 01:28:47</time>
      </trkpt>
      <trkpt lat="41.841" lon="2.19483">
        <ele>739</ele>
        <time>2022-05-21 01:28:48</time>
      </trkpt>
      <trkpt lat="41.84109" lon="2.19489">
        <ele>738.8</ele>
        <time>2022-05-21 01:28:49</time>
      </trkpt>
      <trkpt lat="41.84117" lon="2.19498">
        <ele>738.6</ele>
        <time>2022-05-21 01:28:50</time>
      </trkpt>
      <trkpt lat="41.84123" lon="2.19509">
        <ele>738.6</ele>
        <time>2022-05-21 01:28:51</time>
      </trkpt>
      <trkpt lat="41.84126" lon="2.1952">
        <ele>738.4</ele>
        <time>2022-05-21 01:28:52</time>
      </trkpt>
      <trkpt lat="41.84127" lon="2.19532">
        <ele>738.2</ele>
        <time>2022-05-21 01:28:53</time>
      </trkpt>
      <trkpt lat="41.84127" lon="2.19544">
        <ele>738.2</ele>
        <time>2022-05-21 01:28:54</time>
      </trkpt>
      <trkpt lat="41.84127" lon="2.19556">
        <ele>738</ele>
        <time>2022-05-21 01:28:55</time>
      </trkpt>
      <trkpt lat="41.84126" lon="2.19568">
        <ele>737.6</ele>
        <time>2022-05-21 01:28:56</time>
      </trkpt>
      <trkpt lat="41.84126" lon="2.19581">
        <ele>737.4</ele>
        <time>2022-05-21 01:28:57</time>
      </trkpt>
      <trkpt lat="41.84126" lon="2.19594">
        <ele>737</ele>
        <time>2022-05-21 01:28:58</time>
      </trkpt>
      <trkpt lat="41.84126" lon="2.19607">
        <ele>736.8</ele>
        <time>2022-05-21 01:28:59</time>
      </trkpt>
      <trkpt lat="41.84126" lon="2.19621">
        <ele>736.4</ele>
        <time>2022-05-21 01:29:00</time>
      </trkpt>
      <trkpt lat="41.84126" lon="2.19634">
        <ele>736</ele>
        <time>2022-05-21 01:29:01</time>
      </trkpt>
      <trkpt lat="41.84125" lon="2.19647">
        <ele>735.8</ele>
        <time>2022-05-21 01:29:02</time>
      </trkpt>
      <trkpt lat="41.84126" lon="2.19661">
        <ele>735.4</ele>
        <time>2022-05-21 01:29:03</time>
      </trkpt>
      <trkpt lat="41.84126" lon="2.19674">
        <ele>735.2</ele>
        <time>2022-05-21 01:29:04</time>
      </trkpt>
      <trkpt lat="41.84126" lon="2.19688">
        <ele>734.8</ele>
        <time>2022-05-21 01:29:05</time>
      </trkpt>
      <trkpt lat="41.84127" lon="2.19701">
        <ele>734.4</ele>
        <time>2022-05-21 01:29:06</time>
      </trkpt>
      <trkpt lat="41.84127" lon="2.19714">
        <ele>734.2</ele>
        <time>2022-05-21 01:29:07</time>
      </trkpt>
      <trkpt lat="41.84127" lon="2.19729">
        <ele>733.8</ele>
        <time>2022-05-21 01:29:08</time>
      </trkpt>
      <trkpt lat="41.84128" lon="2.19743">
        <ele>733.6</ele>
        <time>2022-05-21 01:29:09</time>
      </trkpt>
      <trkpt lat="41.84129" lon="2.19757">
        <ele>733.2</ele>
        <time>2022-05-21 01:29:10</time>
      </trkpt>
      <trkpt lat="41.8413" lon="2.19771">
        <ele>732.8</ele>
        <time>2022-05-21 01:29:11</time>
      </trkpt>
      <trkpt lat="41.84131" lon="2.19784">
        <ele>732.6</ele>
        <time>2022-05-21 01:29:12</time>
      </trkpt>
      <trkpt lat="41.84131" lon="2.19798">
        <ele>732.2</ele>
        <time>2022-05-21 01:29:13</time>
      </trkpt>
      <trkpt lat="41.84132" lon="2.19812">
        <ele>732</ele>
        <time>2022-05-21 01:29:14</time>
      </trkpt>
      <trkpt lat="41.84134" lon="2.19826">
        <ele>732</ele>
        <time>2022-05-21 01:29:15</time>
      </trkpt>
      <trkpt lat="41.84135" lon="2.19839">
        <ele>731.8</ele>
        <time>2022-05-21 01:29:16</time>
      </trkpt>
      <trkpt lat="41.84136" lon="2.19851">
        <ele>731.8</ele>
        <time>2022-05-21 01:29:17</time>
      </trkpt>
      <trkpt lat="41.84137" lon="2.19865">
        <ele>731.6</ele>
        <time>2022-05-21 01:29:18</time>
      </trkpt>
      <trkpt lat="41.84137" lon="2.19877">
        <ele>731.8</ele>
        <time>2022-05-21 01:29:19</time>
      </trkpt>
      <trkpt lat="41.84138" lon="2.1989">
        <ele>731.8</ele>
        <time>2022-05-21 01:29:20</time>
      </trkpt>
      <trkpt lat="41.84139" lon="2.19902">
        <ele>731.8</ele>
        <time>2022-05-21 01:29:21</time>
      </trkpt>
      <trkpt lat="41.8414" lon="2.19914">
        <ele>732</ele>
        <time>2022-05-21 01:29:22</time>
      </trkpt>
      <trkpt lat="41.8414" lon="2.19926">
        <ele>732</ele>
        <time>2022-05-21 01:29:23</time>
      </trkpt>
      <trkpt lat="41.84141" lon="2.19937">
        <ele>732.2</ele>
        <time>2022-05-21 01:29:24</time>
      </trkpt>
      <trkpt lat="41.84141" lon="2.19948">
        <ele>732.4</ele>
        <time>2022-05-21 01:29:25</time>
      </trkpt>
      <trkpt lat="41.84141" lon="2.19959">
        <ele>732.6</ele>
        <time>2022-05-21 01:29:26</time>
      </trkpt>
      <trkpt lat="41.8414" lon="2.19968">
        <ele>732.8</ele>
        <time>2022-05-21 01:29:27</time>
      </trkpt>
      <trkpt lat="41.84137" lon="2.19977">
        <ele>733</ele>
        <time>2022-05-21 01:29:28</time>
      </trkpt>
      <trkpt lat="41.84132" lon="2.19984">
        <ele>733.2</ele>
        <time>2022-05-21 01:29:29</time>
      </trkpt>
      <trkpt lat="41.84126" lon="2.19988">
        <ele>733.2</ele>
        <time>2022-05-21 01:29:30</time>
      </trkpt>
      <trkpt lat="41.84119" lon="2.19991">
        <ele>733.4</ele>
        <time>2022-05-21 01:29:31</time>
      </trkpt>
      <trkpt lat="41.84112" lon="2.19994">
        <ele>733.4</ele>
        <time>2022-05-21 01:29:32</time>
      </trkpt>
      <trkpt lat="41.84105" lon="2.19998">
        <ele>733.6</ele>
        <time>2022-05-21 01:29:33</time>
      </trkpt>
      <trkpt lat="41.84098" lon="2.20002">
        <ele>733.6</ele>
        <time>2022-05-21 01:29:34</time>
      </trkpt>
      <trkpt lat="41.84093" lon="2.20007">
        <ele>733.8</ele>
        <time>2022-05-21 01:29:35</time>
      </trkpt>
      <trkpt lat="41.84088" lon="2.20013">
        <ele>734</ele>
        <time>2022-05-21 01:29:36</time>
      </trkpt>
      <trkpt lat="41.84084" lon="2.2002">
        <ele>734</ele>
        <time>2022-05-21 01:29:37</time>
      </trkpt>
      <trkpt lat="41.84082" lon="2.20029">
        <ele>734.2</ele>
        <time>2022-05-21 01:29:38</time>
      </trkpt>
      <trkpt lat="41.84081" lon="2.20038">
        <ele>734.2</ele>
        <time>2022-05-21 01:29:39</time>
      </trkpt>
      <trkpt lat="41.84081" lon="2.20047">
        <ele>734.2</ele>
        <time>2022-05-21 01:29:40</time>
      </trkpt>
      <trkpt lat="41.8408" lon="2.20057">
        <ele>734.4</ele>
        <time>2022-05-21 01:29:41</time>
      </trkpt>
      <trkpt lat="41.84081" lon="2.20066">
        <ele>734.4</ele>
        <time>2022-05-21 01:29:42</time>
      </trkpt>
      <trkpt lat="41.84082" lon="2.20075">
        <ele>734.4</ele>
        <time>2022-05-21 01:29:43</time>
      </trkpt>
      <trkpt lat="41.84084" lon="2.20084">
        <ele>734.4</ele>
        <time>2022-05-21 01:29:44</time>
      </trkpt>
      <trkpt lat="41.84085" lon="2.20093">
        <ele>734.4</ele>
        <time>2022-05-21 01:29:45</time>
      </trkpt>
      <trkpt lat="41.84087" lon="2.20103">
        <ele>734.4</ele>
        <time>2022-05-21 01:29:46</time>
      </trkpt>
      <trkpt lat="41.84089" lon="2.20112">
        <ele>734.2</ele>
        <time>2022-05-21 01:29:47</time>
      </trkpt>
      <trkpt lat="41.8409" lon="2.20122">
        <ele>734.2</ele>
        <time>2022-05-21 01:29:48</time>
      </trkpt>
      <trkpt lat="41.84092" lon="2.20132">
        <ele>733.8</ele>
        <time>2022-05-21 01:29:49</time>
      </trkpt>
      <trkpt lat="41.84093" lon="2.20143">
        <ele>733.6</ele>
        <time>2022-05-21 01:29:50</time>
      </trkpt>
      <trkpt lat="41.84094" lon="2.20155">
        <ele>733.2</ele>
        <time>2022-05-21 01:29:51</time>
      </trkpt>
      <trkpt lat="41.84095" lon="2.20167">
        <ele>732.8</ele>
        <time>2022-05-21 01:29:52</time>
      </trkpt>
      <trkpt lat="41.84097" lon="2.20179">
        <ele>732.2</ele>
        <time>2022-05-21 01:29:53</time>
      </trkpt>
      <trkpt lat="41.84099" lon="2.20191">
        <ele>731.6</ele>
        <time>2022-05-21 01:29:54</time>
      </trkpt>
      <trkpt lat="41.84103" lon="2.20203">
        <ele>731</ele>
        <time>2022-05-21 01:29:55</time>
      </trkpt>
      <trkpt lat="41.84109" lon="2.20216">
        <ele>730.4</ele>
        <time>2022-05-21 01:29:56</time>
      </trkpt>
      <trkpt lat="41.84114" lon="2.20228">
        <ele>729.6</ele>
        <time>2022-05-21 01:29:57</time>
      </trkpt>
      <trkpt lat="41.84121" lon="2.20241">
        <ele>728.6</ele>
        <time>2022-05-21 01:29:58</time>
      </trkpt>
      <trkpt lat="41.84127" lon="2.20254">
        <ele>728</ele>
        <time>2022-05-21 01:29:59</time>
      </trkpt>
      <trkpt lat="41.84133" lon="2.20267">
        <ele>727.2</ele>
        <time>2022-05-21 01:30:00</time>
      </trkpt>
      <trkpt lat="41.84138" lon="2.20279">
        <ele>726.4</ele>
        <time>2022-05-21 01:30:01</time>
      </trkpt>
      <trkpt lat="41.84143" lon="2.20294">
        <ele>725.6</ele>
        <time>2022-05-21 01:30:02</time>
      </trkpt>
      <trkpt lat="41.8415" lon="2.20304">
        <ele>725</ele>
        <time>2022-05-21 01:30:03</time>
      </trkpt>
      <trkpt lat="41.84158" lon="2.20312">
        <ele>724.2</ele>
        <time>2022-05-21 01:30:04</time>
      </trkpt>
      <trkpt lat="41.84166" lon="2.20318">
        <ele>723.4</ele>
        <time>2022-05-21 01:30:05</time>
      </trkpt>
      <trkpt lat="41.84175" lon="2.20322">
        <ele>722.6</ele>
        <time>2022-05-21 01:30:06</time>
      </trkpt>
      <trkpt lat="41.84186" lon="2.20323">
        <ele>721.8</ele>
        <time>2022-05-21 01:30:07</time>
      </trkpt>
      <trkpt lat="41.84196" lon="2.20325">
        <ele>721</ele>
        <time>2022-05-21 01:30:08</time>
      </trkpt>
      <trkpt lat="41.84208" lon="2.20327">
        <ele>720</ele>
        <time>2022-05-21 01:30:09</time>
      </trkpt>
      <trkpt lat="41.84219" lon="2.2033">
        <ele>719.2</ele>
        <time>2022-05-21 01:30:10</time>
      </trkpt>
      <trkpt lat="41.8423" lon="2.20333">
        <ele>718.2</ele>
        <time>2022-05-21 01:30:11</time>
      </trkpt>
      <trkpt lat="41.8424" lon="2.2034">
        <ele>717.4</ele>
        <time>2022-05-21 01:30:12</time>
      </trkpt>
      <trkpt lat="41.84249" lon="2.20349">
        <ele>716.4</ele>
        <time>2022-05-21 01:30:13</time>
      </trkpt>
      <trkpt lat="41.84258" lon="2.20359">
        <ele>715.6</ele>
        <time>2022-05-21 01:30:14</time>
      </trkpt>
      <trkpt lat="41.84265" lon="2.20371">
        <ele>714.8</ele>
        <time>2022-05-21 01:30:15</time>
      </trkpt>
      <trkpt lat="41.84272" lon="2.20383">
        <ele>714</ele>
        <time>2022-05-21 01:30:16</time>
      </trkpt>
      <trkpt lat="41.8428" lon="2.20394">
        <ele>713.2</ele>
        <time>2022-05-21 01:30:17</time>
      </trkpt>
      <trkpt lat="41.84291" lon="2.20403">
        <ele>712.4</ele>
        <time>2022-05-21 01:30:18</time>
      </trkpt>
      <trkpt lat="41.84301" lon="2.2041">
        <ele>711.4</ele>
        <time>2022-05-21 01:30:19</time>
      </trkpt>
      <trkpt lat="41.84312" lon="2.20413">
        <ele>710.4</ele>
        <time>2022-05-21 01:30:20</time>
      </trkpt>
      <trkpt lat="41.84324" lon="2.20414">
        <ele>709.4</ele>
        <time>2022-05-21 01:30:21</time>
      </trkpt>
      <trkpt lat="41.84337" lon="2.20415">
        <ele>708.4</ele>
        <time>2022-05-21 01:30:22</time>
      </trkpt>
      <trkpt lat="41.84351" lon="2.20415">
        <ele>707.4</ele>
        <time>2022-05-21 01:30:23</time>
      </trkpt>
      <trkpt lat="41.84363" lon="2.20416">
        <ele>706.4</ele>
        <time>2022-05-21 01:30:24</time>
      </trkpt>
      <trkpt lat="41.84375" lon="2.20417">
        <ele>705.6</ele>
        <time>2022-05-21 01:30:25</time>
      </trkpt>
      <trkpt lat="41.84386" lon="2.20418">
        <ele>704.8</ele>
        <time>2022-05-21 01:30:26</time>
      </trkpt>
      <trkpt lat="41.84398" lon="2.20421">
        <ele>704</ele>
        <time>2022-05-21 01:30:27</time>
      </trkpt>
      <trkpt lat="41.84408" lon="2.20425">
        <ele>703.2</ele>
        <time>2022-05-21 01:30:28</time>
      </trkpt>
      <trkpt lat="41.84417" lon="2.20432">
        <ele>702.4</ele>
        <time>2022-05-21 01:30:29</time>
      </trkpt>
      <trkpt lat="41.84425" lon="2.20441">
        <ele>701.6</ele>
        <time>2022-05-21 01:30:30</time>
      </trkpt>
      <trkpt lat="41.8443" lon="2.20454">
        <ele>700.6</ele>
        <time>2022-05-21 01:30:31</time>
      </trkpt>
      <trkpt lat="41.84434" lon="2.20467">
        <ele>699.8</ele>
        <time>2022-05-21 01:30:32</time>
      </trkpt>
      <trkpt lat="41.84435" lon="2.20483">
        <ele>699</ele>
        <time>2022-05-21 01:30:33</time>
      </trkpt>
      <trkpt lat="41.84435" lon="2.20498">
        <ele>698.2</ele>
        <time>2022-05-21 01:30:34</time>
      </trkpt>
      <trkpt lat="41.84436" lon="2.20513">
        <ele>697.4</ele>
        <time>2022-05-21 01:30:35</time>
      </trkpt>
      <trkpt lat="41.84437" lon="2.20531">
        <ele>696.6</ele>
        <time>2022-05-21 01:30:36</time>
      </trkpt>
      <trkpt lat="41.84439" lon="2.20547">
        <ele>695.8</ele>
        <time>2022-05-21 01:30:37</time>
      </trkpt>
      <trkpt lat="41.8444" lon="2.20564">
        <ele>695</ele>
        <time>2022-05-21 01:30:38</time>
      </trkpt>
      <trkpt lat="41.84442" lon="2.2058">
        <ele>694.2</ele>
        <time>2022-05-21 01:30:39</time>
      </trkpt>
      <trkpt lat="41.84443" lon="2.20596">
        <ele>693.6</ele>
        <time>2022-05-21 01:30:40</time>
      </trkpt>
      <trkpt lat="41.84444" lon="2.20612">
        <ele>693</ele>
        <time>2022-05-21 01:30:41</time>
      </trkpt>
      <trkpt lat="41.84445" lon="2.20627">
        <ele>692.6</ele>
        <time>2022-05-21 01:30:42</time>
      </trkpt>
      <trkpt lat="41.84446" lon="2.20643">
        <ele>692.2</ele>
        <time>2022-05-21 01:30:43</time>
      </trkpt>
      <trkpt lat="41.84449" lon="2.20659">
        <ele>691.8</ele>
        <time>2022-05-21 01:30:44</time>
      </trkpt>
      <trkpt lat="41.84452" lon="2.20673">
        <ele>691.4</ele>
        <time>2022-05-21 01:30:45</time>
      </trkpt>
      <trkpt lat="41.84458" lon="2.20686">
        <ele>691.2</ele>
        <time>2022-05-21 01:30:46</time>
      </trkpt>
      <trkpt lat="41.84464" lon="2.20697">
        <ele>691</ele>
        <time>2022-05-21 01:30:47</time>
      </trkpt>
      <trkpt lat="41.84471" lon="2.20707">
        <ele>690.8</ele>
        <time>2022-05-21 01:30:48</time>
      </trkpt>
      <trkpt lat="41.84479" lon="2.20716">
        <ele>690.6</ele>
        <time>2022-05-21 01:30:49</time>
      </trkpt>
      <trkpt lat="41.84487" lon="2.20725">
        <ele>690.4</ele>
        <time>2022-05-21 01:30:50</time>
      </trkpt>
      <trkpt lat="41.84494" lon="2.20734">
        <ele>690.2</ele>
        <time>2022-05-21 01:30:51</time>
      </trkpt>
      <trkpt lat="41.845" lon="2.20744">
        <ele>690</ele>
        <time>2022-05-21 01:30:52</time>
      </trkpt>
      <trkpt lat="41.84508" lon="2.20754">
        <ele>689.8</ele>
        <time>2022-05-21 01:30:53</time>
      </trkpt>
      <trkpt lat="41.84516" lon="2.20763">
        <ele>689.4</ele>
        <time>2022-05-21 01:30:54</time>
      </trkpt>
      <trkpt lat="41.84524" lon="2.20772">
        <ele>688.8</ele>
        <time>2022-05-21 01:30:55</time>
      </trkpt>
      <trkpt lat="41.84531" lon="2.20782">
        <ele>688.4</ele>
        <time>2022-05-21 01:30:56</time>
      </trkpt>
      <trkpt lat="41.84539" lon="2.20793">
        <ele>687.8</ele>
        <time>2022-05-21 01:30:57</time>
      </trkpt>
      <trkpt lat="41.84547" lon="2.20803">
        <ele>687.2</ele>
        <time>2022-05-21 01:30:58</time>
      </trkpt>
      <trkpt lat="41.84555" lon="2.20814">
        <ele>686.6</ele>
        <time>2022-05-21 01:30:59</time>
      </trkpt>
      <trkpt lat="41.84563" lon="2.20825">
        <ele>686</ele>
        <time>2022-05-21 01:31:00</time>
      </trkpt>
      <trkpt lat="41.8457" lon="2.20837">
        <ele>685.2</ele>
        <time>2022-05-21 01:31:01</time>
      </trkpt>
      <trkpt lat="41.84578" lon="2.20847">
        <ele>684.6</ele>
        <time>2022-05-21 01:31:02</time>
      </trkpt>
      <trkpt lat="41.84587" lon="2.20854">
        <ele>684</ele>
        <time>2022-05-21 01:31:03</time>
      </trkpt>
      <trkpt lat="41.84596" lon="2.20859">
        <ele>683.4</ele>
        <time>2022-05-21 01:31:04</time>
      </trkpt>
      <trkpt lat="41.84605" lon="2.20861">
        <ele>682.6</ele>
        <time>2022-05-21 01:31:05</time>
      </trkpt>
      <trkpt lat="41.84615" lon="2.20861">
        <ele>681.8</ele>
        <time>2022-05-21 01:31:06</time>
      </trkpt>
      <trkpt lat="41.84625" lon="2.20858">
        <ele>681</ele>
        <time>2022-05-21 01:31:07</time>
      </trkpt>
      <trkpt lat="41.84636" lon="2.20854">
        <ele>680.2</ele>
        <time>2022-05-21 01:31:08</time>
      </trkpt>
      <trkpt lat="41.84647" lon="2.20849">
        <ele>679.2</ele>
        <time>2022-05-21 01:31:09</time>
      </trkpt>
      <trkpt lat="41.84658" lon="2.20846">
        <ele>678.4</ele>
        <time>2022-05-21 01:31:10</time>
      </trkpt>
      <trkpt lat="41.84669" lon="2.20846">
        <ele>677.6</ele>
        <time>2022-05-21 01:31:11</time>
      </trkpt>
      <trkpt lat="41.84679" lon="2.20849">
        <ele>676.8</ele>
        <time>2022-05-21 01:31:12</time>
      </trkpt>
      <trkpt lat="41.84688" lon="2.20856">
        <ele>676</ele>
        <time>2022-05-21 01:31:13</time>
      </trkpt>
      <trkpt lat="41.84695" lon="2.20867">
        <ele>675</ele>
        <time>2022-05-21 01:31:14</time>
      </trkpt>
      <trkpt lat="41.84703" lon="2.20878">
        <ele>674.2</ele>
        <time>2022-05-21 01:31:15</time>
      </trkpt>
      <trkpt lat="41.8471" lon="2.20889">
        <ele>673.4</ele>
        <time>2022-05-21 01:31:16</time>
      </trkpt>
      <trkpt lat="41.84718" lon="2.20902">
        <ele>672.6</ele>
        <time>2022-05-21 01:31:17</time>
      </trkpt>
      <trkpt lat="41.84724" lon="2.20915">
        <ele>671.8</ele>
        <time>2022-05-21 01:31:18</time>
      </trkpt>
      <trkpt lat="41.84731" lon="2.20927">
        <ele>670.8</ele>
        <time>2022-05-21 01:31:19</time>
      </trkpt>
      <trkpt lat="41.84737" lon="2.2094">
        <ele>670</ele>
        <time>2022-05-21 01:31:20</time>
      </trkpt>
      <trkpt lat="41.84742" lon="2.20953">
        <ele>669.2</ele>
        <time>2022-05-21 01:31:21</time>
      </trkpt>
      <trkpt lat="41.84749" lon="2.20967">
        <ele>668.4</ele>
        <time>2022-05-21 01:31:22</time>
      </trkpt>
      <trkpt lat="41.84755" lon="2.20981">
        <ele>667.6</ele>
        <time>2022-05-21 01:31:23</time>
      </trkpt>
      <trkpt lat="41.84762" lon="2.20995">
        <ele>667</ele>
        <time>2022-05-21 01:31:24</time>
      </trkpt>
      <trkpt lat="41.84768" lon="2.21009">
        <ele>666.2</ele>
        <time>2022-05-21 01:31:25</time>
      </trkpt>
      <trkpt lat="41.84772" lon="2.21023">
        <ele>665.4</ele>
        <time>2022-05-21 01:31:26</time>
      </trkpt>
      <trkpt lat="41.84775" lon="2.21038">
        <ele>664.8</ele>
        <time>2022-05-21 01:31:27</time>
      </trkpt>
      <trkpt lat="41.84777" lon="2.21053">
        <ele>664.2</ele>
        <time>2022-05-21 01:31:28</time>
      </trkpt>
      <trkpt lat="41.84779" lon="2.21068">
        <ele>663.6</ele>
        <time>2022-05-21 01:31:29</time>
      </trkpt>
      <trkpt lat="41.84782" lon="2.21081">
        <ele>662.8</ele>
        <time>2022-05-21 01:31:30</time>
      </trkpt>
      <trkpt lat="41.84787" lon="2.21095">
        <ele>662</ele>
        <time>2022-05-21 01:31:31</time>
      </trkpt>
      <trkpt lat="41.84793" lon="2.21107">
        <ele>661.2</ele>
        <time>2022-05-21 01:31:32</time>
      </trkpt>
      <trkpt lat="41.848" lon="2.21119">
        <ele>660.4</ele>
        <time>2022-05-21 01:31:33</time>
      </trkpt>
      <trkpt lat="41.84807" lon="2.21133">
        <ele>659.6</ele>
        <time>2022-05-21 01:31:34</time>
      </trkpt>
      <trkpt lat="41.84814" lon="2.21146">
        <ele>658.8</ele>
        <time>2022-05-21 01:31:35</time>
      </trkpt>
      <trkpt lat="41.84821" lon="2.21161">
        <ele>657.8</ele>
        <time>2022-05-21 01:31:36</time>
      </trkpt>
      <trkpt lat="41.84827" lon="2.21175">
        <ele>657</ele>
        <time>2022-05-21 01:31:37</time>
      </trkpt>
      <trkpt lat="41.84834" lon="2.2119">
        <ele>656.2</ele>
        <time>2022-05-21 01:31:38</time>
      </trkpt>
      <trkpt lat="41.8484" lon="2.21204">
        <ele>655.2</ele>
        <time>2022-05-21 01:31:39</time>
      </trkpt>
      <trkpt lat="41.84847" lon="2.21219">
        <ele>654.4</ele>
        <time>2022-05-21 01:31:40</time>
      </trkpt>
      <trkpt lat="41.84853" lon="2.21235">
        <ele>653.4</ele>
        <time>2022-05-21 01:31:41</time>
      </trkpt>
      <trkpt lat="41.84859" lon="2.2125">
        <ele>652.4</ele>
        <time>2022-05-21 01:31:42</time>
      </trkpt>
      <trkpt lat="41.84864" lon="2.21265">
        <ele>651.6</ele>
        <time>2022-05-21 01:31:43</time>
      </trkpt>
      <trkpt lat="41.84867" lon="2.21283">
        <ele>650.6</ele>
        <time>2022-05-21 01:31:44</time>
      </trkpt>
      <trkpt lat="41.84869" lon="2.21301">
        <ele>649.8</ele>
        <time>2022-05-21 01:31:45</time>
      </trkpt>
      <trkpt lat="41.8487" lon="2.21318">
        <ele>649</ele>
        <time>2022-05-21 01:31:46</time>
      </trkpt>
      <trkpt lat="41.84869" lon="2.21336">
        <ele>648</ele>
        <time>2022-05-21 01:31:47</time>
      </trkpt>
      <trkpt lat="41.84869" lon="2.21353">
        <ele>647.2</ele>
        <time>2022-05-21 01:31:48</time>
      </trkpt>
      <trkpt lat="41.84868" lon="2.21371">
        <ele>646.2</ele>
        <time>2022-05-21 01:31:49</time>
      </trkpt>
      <trkpt lat="41.84867" lon="2.21388">
        <ele>645.4</ele>
        <time>2022-05-21 01:31:50</time>
      </trkpt>
      <trkpt lat="41.84867" lon="2.21406">
        <ele>644.6</ele>
        <time>2022-05-21 01:31:51</time>
      </trkpt>
      <trkpt lat="41.84866" lon="2.21424">
        <ele>643.6</ele>
        <time>2022-05-21 01:31:52</time>
      </trkpt>
      <trkpt lat="41.84865" lon="2.21442">
        <ele>642.8</ele>
        <time>2022-05-21 01:31:53</time>
      </trkpt>
      <trkpt lat="41.84864" lon="2.2146">
        <ele>641.8</ele>
        <time>2022-05-21 01:31:54</time>
      </trkpt>
      <trkpt lat="41.84863" lon="2.21478">
        <ele>640.8</ele>
        <time>2022-05-21 01:31:55</time>
      </trkpt>
      <trkpt lat="41.84863" lon="2.21497">
        <ele>640</ele>
        <time>2022-05-21 01:31:56</time>
      </trkpt>
      <trkpt lat="41.84864" lon="2.21516">
        <ele>639</ele>
        <time>2022-05-21 01:31:57</time>
      </trkpt>
      <trkpt lat="41.84864" lon="2.21534">
        <ele>638</ele>
        <time>2022-05-21 01:31:58</time>
      </trkpt>
      <trkpt lat="41.84864" lon="2.21553">
        <ele>637</ele>
        <time>2022-05-21 01:31:59</time>
      </trkpt>
      <trkpt lat="41.84863" lon="2.21571">
        <ele>636</ele>
        <time>2022-05-21 01:32:00</time>
      </trkpt>
      <trkpt lat="41.84862" lon="2.21589">
        <ele>635</ele>
        <time>2022-05-21 01:32:01</time>
      </trkpt>
      <trkpt lat="41.84861" lon="2.21606">
        <ele>634</ele>
        <time>2022-05-21 01:32:02</time>
      </trkpt>
      <trkpt lat="41.8486" lon="2.21624">
        <ele>633</ele>
        <time>2022-05-21 01:32:03</time>
      </trkpt>
      <trkpt lat="41.84859" lon="2.21641">
        <ele>632.2</ele>
        <time>2022-05-21 01:32:04</time>
      </trkpt>
      <trkpt lat="41.84858" lon="2.21662">
        <ele>631.2</ele>
        <time>2022-05-21 01:32:05</time>
      </trkpt>
      <trkpt lat="41.84859" lon="2.21679">
        <ele>630.4</ele>
        <time>2022-05-21 01:32:06</time>
      </trkpt>
      <trkpt lat="41.84861" lon="2.21695">
        <ele>629.6</ele>
        <time>2022-05-21 01:32:07</time>
      </trkpt>
      <trkpt lat="41.84862" lon="2.2171">
        <ele>628.8</ele>
        <time>2022-05-21 01:32:08</time>
      </trkpt>
      <trkpt lat="41.84863" lon="2.21726">
        <ele>627.6</ele>
        <time>2022-05-21 01:32:09</time>
      </trkpt>
      <trkpt lat="41.84863" lon="2.21742">
        <ele>626.8</ele>
        <time>2022-05-21 01:32:10</time>
      </trkpt>
      <trkpt lat="41.84864" lon="2.21758">
        <ele>626</ele>
        <time>2022-05-21 01:32:11</time>
      </trkpt>
      <trkpt lat="41.84865" lon="2.21773">
        <ele>625.2</ele>
        <time>2022-05-21 01:32:12</time>
      </trkpt>
      <trkpt lat="41.84866" lon="2.21788">
        <ele>624.4</ele>
        <time>2022-05-21 01:32:13</time>
      </trkpt>
      <trkpt lat="41.84867" lon="2.21801">
        <ele>623.6</ele>
        <time>2022-05-21 01:32:14</time>
      </trkpt>
      <trkpt lat="41.84868" lon="2.21815">
        <ele>623</ele>
        <time>2022-05-21 01:32:15</time>
      </trkpt>
      <trkpt lat="41.84869" lon="2.21828">
        <ele>622.4</ele>
        <time>2022-05-21 01:32:16</time>
      </trkpt>
      <trkpt lat="41.8487" lon="2.21841">
        <ele>621.8</ele>
        <time>2022-05-21 01:32:17</time>
      </trkpt>
      <trkpt lat="41.84871" lon="2.21853">
        <ele>621.2</ele>
        <time>2022-05-21 01:32:18</time>
      </trkpt>
      <trkpt lat="41.84873" lon="2.21866">
        <ele>620.6</ele>
        <time>2022-05-21 01:32:19</time>
      </trkpt>
      <trkpt lat="41.84875" lon="2.21878">
        <ele>619.8</ele>
        <time>2022-05-21 01:32:20</time>
      </trkpt>
      <trkpt lat="41.84878" lon="2.21891">
        <ele>619</ele>
        <time>2022-05-21 01:32:21</time>
      </trkpt>
      <trkpt lat="41.84882" lon="2.21902">
        <ele>618.4</ele>
        <time>2022-05-21 01:32:22</time>
      </trkpt>
      <trkpt lat="41.84886" lon="2.21916">
        <ele>617.8</ele>
        <time>2022-05-21 01:32:23</time>
      </trkpt>
      <trkpt lat="41.84891" lon="2.21929">
        <ele>617.2</ele>
        <time>2022-05-21 01:32:24</time>
      </trkpt>
      <trkpt lat="41.84894" lon="2.2194">
        <ele>616.8</ele>
        <time>2022-05-21 01:32:25</time>
      </trkpt>
      <trkpt lat="41.84898" lon="2.21952">
        <ele>616.2</ele>
        <time>2022-05-21 01:32:26</time>
      </trkpt>
      <trkpt lat="41.84901" lon="2.21963">
        <ele>615.8</ele>
        <time>2022-05-21 01:32:27</time>
      </trkpt>
      <trkpt lat="41.84905" lon="2.21974">
        <ele>615.4</ele>
        <time>2022-05-21 01:32:28</time>
      </trkpt>
      <trkpt lat="41.84908" lon="2.21986">
        <ele>615</ele>
        <time>2022-05-21 01:32:29</time>
      </trkpt>
      <trkpt lat="41.84912" lon="2.21997">
        <ele>614.6</ele>
        <time>2022-05-21 01:32:30</time>
      </trkpt>
      <trkpt lat="41.84916" lon="2.22007">
        <ele>614.2</ele>
        <time>2022-05-21 01:32:31</time>
      </trkpt>
      <trkpt lat="41.84919" lon="2.22016">
        <ele>613.6</ele>
        <time>2022-05-21 01:32:32</time>
      </trkpt>
      <trkpt lat="41.84924" lon="2.22026">
        <ele>613.2</ele>
        <time>2022-05-21 01:32:33</time>
      </trkpt>
      <trkpt lat="41.84928" lon="2.22035">
        <ele>613</ele>
        <time>2022-05-21 01:32:34</time>
      </trkpt>
      <trkpt lat="41.84933" lon="2.22045">
        <ele>612.6</ele>
        <time>2022-05-21 01:32:35</time>
      </trkpt>
      <trkpt lat="41.84939" lon="2.22054">
        <ele>612.2</ele>
        <time>2022-05-21 01:32:36</time>
      </trkpt>
      <trkpt lat="41.84944" lon="2.22064">
        <ele>611.8</ele>
        <time>2022-05-21 01:32:37</time>
      </trkpt>
      <trkpt lat="41.84949" lon="2.22073">
        <ele>611.6</ele>
        <time>2022-05-21 01:32:38</time>
      </trkpt>
      <trkpt lat="41.84954" lon="2.22083">
        <ele>611.2</ele>
        <time>2022-05-21 01:32:39</time>
      </trkpt>
      <trkpt lat="41.84958" lon="2.22093">
        <ele>610.8</ele>
        <time>2022-05-21 01:32:40</time>
      </trkpt>
      <trkpt lat="41.84962" lon="2.22102">
        <ele>610.6</ele>
        <time>2022-05-21 01:32:41</time>
      </trkpt>
      <trkpt lat="41.84967" lon="2.22111">
        <ele>610.2</ele>
        <time>2022-05-21 01:32:42</time>
      </trkpt>
      <trkpt lat="41.84972" lon="2.22121">
        <ele>610</ele>
        <time>2022-05-21 01:32:43</time>
      </trkpt>
      <trkpt lat="41.84976" lon="2.2213">
        <ele>609.8</ele>
        <time>2022-05-21 01:32:44</time>
      </trkpt>
      <trkpt lat="41.84981" lon="2.22139">
        <ele>609.6</ele>
        <time>2022-05-21 01:32:45</time>
      </trkpt>
      <trkpt lat="41.84985" lon="2.22148">
        <ele>609.4</ele>
        <time>2022-05-21 01:32:46</time>
      </trkpt>
      <trkpt lat="41.8499" lon="2.22157">
        <ele>609.2</ele>
        <time>2022-05-21 01:32:47</time>
      </trkpt>
      <trkpt lat="41.84993" lon="2.22166">
        <ele>609.2</ele>
        <time>2022-05-21 01:32:48</time>
      </trkpt>
      <trkpt lat="41.84998" lon="2.22174">
        <ele>609</ele>
        <time>2022-05-21 01:32:49</time>
      </trkpt>
      <trkpt lat="41.85002" lon="2.22183">
        <ele>609</ele>
        <time>2022-05-21 01:32:50</time>
      </trkpt>
      <trkpt lat="41.85006" lon="2.22191">
        <ele>608.8</ele>
        <time>2022-05-21 01:32:51</time>
      </trkpt>
      <trkpt lat="41.85011" lon="2.22199">
        <ele>608.8</ele>
        <time>2022-05-21 01:32:52</time>
      </trkpt>
      <trkpt lat="41.85015" lon="2.22207">
        <ele>608.6</ele>
        <time>2022-05-21 01:32:53</time>
      </trkpt>
      <trkpt lat="41.85019" lon="2.22215">
        <ele>608.6</ele>
        <time>2022-05-21 01:32:54</time>
      </trkpt>
      <trkpt lat="41.85024" lon="2.22224">
        <ele>608.6</ele>
        <time>2022-05-21 01:32:55</time>
      </trkpt>
      <trkpt lat="41.85028" lon="2.22233">
        <ele>608.6</ele>
        <time>2022-05-21 01:32:56</time>
      </trkpt>
      <trkpt lat="41.85032" lon="2.22242">
        <ele>608.6</ele>
        <time>2022-05-21 01:32:57</time>
      </trkpt>
      <trkpt lat="41.85034" lon="2.2225">
        <ele>608.4</ele>
        <time>2022-05-21 01:32:58</time>
      </trkpt>
      <trkpt lat="41.85036" lon="2.2226">
        <ele>608.4</ele>
        <time>2022-05-21 01:32:59</time>
      </trkpt>
      <trkpt lat="41.85039" lon="2.22269">
        <ele>608.4</ele>
        <time>2022-05-21 01:33:00</time>
      </trkpt>
      <trkpt lat="41.85041" lon="2.22278">
        <ele>608.4</ele>
        <time>2022-05-21 01:33:01</time>
      </trkpt>
      <trkpt lat="41.85042" lon="2.22287">
        <ele>608.4</ele>
        <time>2022-05-21 01:33:02</time>
      </trkpt>
      <trkpt lat="41.85044" lon="2.22296">
        <ele>608.4</ele>
        <time>2022-05-21 01:33:03</time>
      </trkpt>
      <trkpt lat="41.85045" lon="2.22305">
        <ele>608.4</ele>
        <time>2022-05-21 01:33:04</time>
      </trkpt>
      <trkpt lat="41.85046" lon="2.22314">
        <ele>608.4</ele>
        <time>2022-05-21 01:33:05</time>
      </trkpt>
      <trkpt lat="41.85048" lon="2.22322">
        <ele>608.4</ele>
        <time>2022-05-21 01:33:06</time>
      </trkpt>
      <trkpt lat="41.85049" lon="2.22331">
        <ele>608.4</ele>
        <time>2022-05-21 01:33:07</time>
      </trkpt>
      <trkpt lat="41.85051" lon="2.22339">
        <ele>608.2</ele>
        <time>2022-05-21 01:33:08</time>
      </trkpt>
      <trkpt lat="41.85052" lon="2.22347">
        <ele>608.2</ele>
        <time>2022-05-21 01:33:09</time>
      </trkpt>
      <trkpt lat="41.85053" lon="2.22356">
        <ele>608.2</ele>
        <time>2022-05-21 01:33:10</time>
      </trkpt>
      <trkpt lat="41.85054" lon="2.22364">
        <ele>608.2</ele>
        <time>2022-05-21 01:33:11</time>
      </trkpt>
      <trkpt lat="41.85056" lon="2.22372">
        <ele>608</ele>
        <time>2022-05-21 01:33:12</time>
      </trkpt>
      <trkpt lat="41.85057" lon="2.22381">
        <ele>608</ele>
        <time>2022-05-21 01:33:13</time>
      </trkpt>
      <trkpt lat="41.85057" lon="2.22389">
        <ele>607.8</ele>
        <time>2022-05-21 01:33:14</time>
      </trkpt>
      <trkpt lat="41.85058" lon="2.22398">
        <ele>607.8</ele>
        <time>2022-05-21 01:33:15</time>
      </trkpt>
      <trkpt lat="41.85058" lon="2.22406">
        <ele>607.6</ele>
        <time>2022-05-21 01:33:16</time>
      </trkpt>
      <trkpt lat="41.85057" lon="2.22415">
        <ele>607.4</ele>
        <time>2022-05-21 01:33:17</time>
      </trkpt>
      <trkpt lat="41.85057" lon="2.22424">
        <ele>607.2</ele>
        <time>2022-05-21 01:33:18</time>
      </trkpt>
      <trkpt lat="41.85056" lon="2.22433">
        <ele>607</ele>
        <time>2022-05-21 01:33:19</time>
      </trkpt>
      <trkpt lat="41.85054" lon="2.22442">
        <ele>606.6</ele>
        <time>2022-05-21 01:33:20</time>
      </trkpt>
      <trkpt lat="41.85051" lon="2.22451">
        <ele>606.4</ele>
        <time>2022-05-21 01:33:21</time>
      </trkpt>
      <trkpt lat="41.85048" lon="2.2246">
        <ele>606.2</ele>
        <time>2022-05-21 01:33:22</time>
      </trkpt>
      <trkpt lat="41.85044" lon="2.22469">
        <ele>605.8</ele>
        <time>2022-05-21 01:33:23</time>
      </trkpt>
      <trkpt lat="41.85041" lon="2.22478">
        <ele>605.4</ele>
        <time>2022-05-21 01:33:24</time>
      </trkpt>
      <trkpt lat="41.85037" lon="2.22487">
        <ele>605.2</ele>
        <time>2022-05-21 01:33:25</time>
      </trkpt>
      <trkpt lat="41.85033" lon="2.22496">
        <ele>604.8</ele>
        <time>2022-05-21 01:33:26</time>
      </trkpt>
      <trkpt lat="41.85029" lon="2.22505">
        <ele>604.6</ele>
        <time>2022-05-21 01:33:27</time>
      </trkpt>
      <trkpt lat="41.85025" lon="2.22514">
        <ele>604.2</ele>
        <time>2022-05-21 01:33:28</time>
      </trkpt>
      <trkpt lat="41.85022" lon="2.22523">
        <ele>603.8</ele>
        <time>2022-05-21 01:33:29</time>
      </trkpt>
      <trkpt lat="41.85018" lon="2.22532">
        <ele>603.6</ele>
        <time>2022-05-21 01:33:30</time>
      </trkpt>
      <trkpt lat="41.85014" lon="2.22542">
        <ele>603.2</ele>
        <time>2022-05-21 01:33:31</time>
      </trkpt>
      <trkpt lat="41.8501" lon="2.22552">
        <ele>602.8</ele>
        <time>2022-05-21 01:33:32</time>
      </trkpt>
      <trkpt lat="41.85006" lon="2.22561">
        <ele>602.6</ele>
        <time>2022-05-21 01:33:33</time>
      </trkpt>
      <trkpt lat="41.85002" lon="2.2257">
        <ele>602.2</ele>
        <time>2022-05-21 01:33:34</time>
      </trkpt>
      <trkpt lat="41.84998" lon="2.22579">
        <ele>601.8</ele>
        <time>2022-05-21 01:33:35</time>
      </trkpt>
      <trkpt lat="41.84994" lon="2.22589">
        <ele>601.6</ele>
        <time>2022-05-21 01:33:36</time>
      </trkpt>
      <trkpt lat="41.8499" lon="2.22599">
        <ele>601.2</ele>
        <time>2022-05-21 01:33:37</time>
      </trkpt>
      <trkpt lat="41.84986" lon="2.22609">
        <ele>600.8</ele>
        <time>2022-05-21 01:33:38</time>
      </trkpt>
      <trkpt lat="41.84981" lon="2.22618">
        <ele>600.6</ele>
        <time>2022-05-21 01:33:39</time>
      </trkpt>
      <trkpt lat="41.84977" lon="2.22627">
        <ele>600.2</ele>
        <time>2022-05-21 01:33:40</time>
      </trkpt>
      <trkpt lat="41.84974" lon="2.22637">
        <ele>599.8</ele>
        <time>2022-05-21 01:33:41</time>
      </trkpt>
      <trkpt lat="41.8497" lon="2.22647">
        <ele>599.6</ele>
        <time>2022-05-21 01:33:42</time>
      </trkpt>
      <trkpt lat="41.84965" lon="2.22657">
        <ele>599.4</ele>
        <time>2022-05-21 01:33:43</time>
      </trkpt>
      <trkpt lat="41.84961" lon="2.22666">
        <ele>599.2</ele>
        <time>2022-05-21 01:33:44</time>
      </trkpt>
      <trkpt lat="41.84956" lon="2.22673">
        <ele>599</ele>
        <time>2022-05-21 01:33:45</time>
      </trkpt>
      <trkpt lat="41.84951" lon="2.2268">
        <ele>598.8</ele>
        <time>2022-05-21 01:33:46</time>
      </trkpt>
      <trkpt lat="41.84945" lon="2.22686">
        <ele>598.8</ele>
        <time>2022-05-21 01:33:47</time>
      </trkpt>
      <trkpt lat="41.84937" lon="2.22693">
        <ele>598.8</ele>
        <time>2022-05-21 01:33:48</time>
      </trkpt>
      <trkpt lat="41.84928" lon="2.22698">
        <ele>598.6</ele>
        <time>2022-05-21 01:33:49</time>
      </trkpt>
      <trkpt lat="41.84921" lon="2.22701">
        <ele>598.6</ele>
        <time>2022-05-21 01:33:50</time>
      </trkpt>
      <trkpt lat="41.84914" lon="2.22704">
        <ele>598.4</ele>
        <time>2022-05-21 01:33:51</time>
      </trkpt>
      <trkpt lat="41.84906" lon="2.22708">
        <ele>598.4</ele>
        <time>2022-05-21 01:33:52</time>
      </trkpt>
      <trkpt lat="41.84898" lon="2.22713">
        <ele>598.4</ele>
        <time>2022-05-21 01:33:53</time>
      </trkpt>
      <trkpt lat="41.8489" lon="2.22716">
        <ele>598.2</ele>
        <time>2022-05-21 01:33:54</time>
      </trkpt>
      <trkpt lat="41.84884" lon="2.2272">
        <ele>598.2</ele>
        <time>2022-05-21 01:33:55</time>
      </trkpt>
      <trkpt lat="41.84877" lon="2.22724">
        <ele>598.2</ele>
        <time>2022-05-21 01:33:56</time>
      </trkpt>
      <trkpt lat="41.84871" lon="2.22727">
        <ele>598.2</ele>
        <time>2022-05-21 01:33:57</time>
      </trkpt>
      <trkpt lat="41.84865" lon="2.2273">
        <ele>598.2</ele>
        <time>2022-05-21 01:33:58</time>
      </trkpt>
      <trkpt lat="41.84858" lon="2.22733">
        <ele>598</ele>
        <time>2022-05-21 01:33:59</time>
      </trkpt>
      <trkpt lat="41.84851" lon="2.22737">
        <ele>598</ele>
        <time>2022-05-21 01:34:00</time>
      </trkpt>
      <trkpt lat="41.84844" lon="2.2274">
        <ele>598</ele>
        <time>2022-05-21 01:34:01</time>
      </trkpt>
      <trkpt lat="41.84837" lon="2.22743">
        <ele>598</ele>
        <time>2022-05-21 01:34:02</time>
      </trkpt>
      <trkpt lat="41.84831" lon="2.22745">
        <ele>598</ele>
        <time>2022-05-21 01:34:03</time>
      </trkpt>
      <trkpt lat="41.84824" lon="2.22748">
        <ele>597.8</ele>
        <time>2022-05-21 01:34:04</time>
      </trkpt>
      <trkpt lat="41.84818" lon="2.22752">
        <ele>597.8</ele>
        <time>2022-05-21 01:34:05</time>
      </trkpt>
      <trkpt lat="41.84812" lon="2.22755">
        <ele>597.6</ele>
        <time>2022-05-21 01:34:06</time>
      </trkpt>
      <trkpt lat="41.84806" lon="2.22759">
        <ele>597.6</ele>
        <time>2022-05-21 01:34:07</time>
      </trkpt>
      <trkpt lat="41.84799" lon="2.22763">
        <ele>597.4</ele>
        <time>2022-05-21 01:34:08</time>
      </trkpt>
      <trkpt lat="41.84794" lon="2.22768">
        <ele>597.4</ele>
        <time>2022-05-21 01:34:09</time>
      </trkpt>
      <trkpt lat="41.84789" lon="2.22773">
        <ele>597.2</ele>
        <time>2022-05-21 01:34:10</time>
      </trkpt>
      <trkpt lat="41.84785" lon="2.22778">
        <ele>597.2</ele>
        <time>2022-05-21 01:34:11</time>
      </trkpt>
      <trkpt lat="41.84781" lon="2.22784">
        <ele>597</ele>
        <time>2022-05-21 01:34:12</time>
      </trkpt>
      <trkpt lat="41.84778" lon="2.22793">
        <ele>596.8</ele>
        <time>2022-05-21 01:34:13</time>
      </trkpt>
      <trkpt lat="41.84776" lon="2.22801">
        <ele>596.6</ele>
        <time>2022-05-21 01:34:14</time>
      </trkpt>
      <trkpt lat="41.84774" lon="2.2281">
        <ele>596.4</ele>
        <time>2022-05-21 01:34:15</time>
      </trkpt>
      <trkpt lat="41.84771" lon="2.22819">
        <ele>596.2</ele>
        <time>2022-05-21 01:34:16</time>
      </trkpt>
      <trkpt lat="41.84769" lon="2.22827">
        <ele>596.2</ele>
        <time>2022-05-21 01:34:17</time>
      </trkpt>
      <trkpt lat="41.84767" lon="2.22836">
        <ele>596.2</ele>
        <time>2022-05-21 01:34:18</time>
      </trkpt>
      <trkpt lat="41.84764" lon="2.22844">
        <ele>596.2</ele>
        <time>2022-05-21 01:34:19</time>
      </trkpt>
      <trkpt lat="41.84762" lon="2.2285">
        <ele>596.2</ele>
        <time>2022-05-21 01:34:20</time>
      </trkpt>
      <trkpt lat="41.84759" lon="2.22856">
        <ele>596.4</ele>
        <time>2022-05-21 01:34:21</time>
      </trkpt>
      <trkpt lat="41.84756" lon="2.22861">
        <ele>596.4</ele>
        <time>2022-05-21 01:34:22</time>
      </trkpt>
      <trkpt lat="41.84752" lon="2.22866">
        <ele>596.6</ele>
        <time>2022-05-21 01:34:23</time>
      </trkpt>
      <trkpt lat="41.84748" lon="2.2287">
        <ele>596.6</ele>
        <time>2022-05-21 01:34:24</time>
      </trkpt>
      <trkpt lat="41.84745" lon="2.22874">
        <ele>596.8</ele>
        <time>2022-05-21 01:34:25</time>
      </trkpt>
      <trkpt lat="41.84741" lon="2.22878">
        <ele>596.8</ele>
        <time>2022-05-21 01:34:26</time>
      </trkpt>
      <trkpt lat="41.84737" lon="2.22882">
        <ele>597</ele>
        <time>2022-05-21 01:34:27</time>
      </trkpt>
      <trkpt lat="41.84734" lon="2.22886">
        <ele>597.2</ele>
        <time>2022-05-21 01:34:28</time>
      </trkpt>
      <trkpt lat="41.8473" lon="2.2289">
        <ele>597.2</ele>
        <time>2022-05-21 01:34:29</time>
      </trkpt>
      <trkpt lat="41.84726" lon="2.22894">
        <ele>597.4</ele>
        <time>2022-05-21 01:34:30</time>
      </trkpt>
      <trkpt lat="41.84723" lon="2.22898">
        <ele>597.4</ele>
        <time>2022-05-21 01:34:31</time>
      </trkpt>
      <trkpt lat="41.84719" lon="2.22902">
        <ele>597.6</ele>
        <time>2022-05-21 01:34:32</time>
      </trkpt>
      <trkpt lat="41.84715" lon="2.22906">
        <ele>597.6</ele>
        <time>2022-05-21 01:34:33</time>
      </trkpt>
      <trkpt lat="41.84711" lon="2.22909">
        <ele>597.8</ele>
        <time>2022-05-21 01:34:34</time>
      </trkpt>
      <trkpt lat="41.84707" lon="2.22912">
        <ele>597.8</ele>
        <time>2022-05-21 01:34:35</time>
      </trkpt>
      <trkpt lat="41.84703" lon="2.22915">
        <ele>598</ele>
        <time>2022-05-21 01:34:36</time>
      </trkpt>
      <trkpt lat="41.847" lon="2.22917">
        <ele>598</ele>
        <time>2022-05-21 01:34:37</time>
      </trkpt>
      <trkpt lat="41.84696" lon="2.2292">
        <ele>598.2</ele>
        <time>2022-05-21 01:34:38</time>
      </trkpt>
      <trkpt lat="41.84693" lon="2.22923">
        <ele>598.4</ele>
        <time>2022-05-21 01:34:39</time>
      </trkpt>
      <trkpt lat="41.84689" lon="2.22926">
        <ele>598.4</ele>
        <time>2022-05-21 01:34:40</time>
      </trkpt>
      <trkpt lat="41.84685" lon="2.22929">
        <ele>598.6</ele>
        <time>2022-05-21 01:34:41</time>
      </trkpt>
      <trkpt lat="41.84682" lon="2.22932">
        <ele>598.6</ele>
        <time>2022-05-21 01:34:42</time>
      </trkpt>
      <trkpt lat="41.84678" lon="2.22935">
        <ele>598.8</ele>
        <time>2022-05-21 01:34:43</time>
      </trkpt>
      <trkpt lat="41.84674" lon="2.22938">
        <ele>598.8</ele>
        <time>2022-05-21 01:34:44</time>
      </trkpt>
      <trkpt lat="41.84671" lon="2.22941">
        <ele>599</ele>
        <time>2022-05-21 01:34:45</time>
      </trkpt>
      <trkpt lat="41.84668" lon="2.22944">
        <ele>599</ele>
        <time>2022-05-21 01:34:46</time>
      </trkpt>
      <trkpt lat="41.84667" lon="2.22949">
        <ele>599.2</ele>
        <time>2022-05-21 01:34:47</time>
      </trkpt>
      <trkpt lat="41.84664" lon="2.22955">
        <ele>599.2</ele>
        <time>2022-05-21 01:34:48</time>
      </trkpt>
      <trkpt lat="41.8466" lon="2.2296">
        <ele>599.4</ele>
        <time>2022-05-21 01:34:49</time>
      </trkpt>
      <trkpt lat="41.84657" lon="2.22968">
        <ele>599.4</ele>
        <time>2022-05-21 01:34:50</time>
      </trkpt>
      <trkpt lat="41.84655" lon="2.22976">
        <ele>599.6</ele>
        <time>2022-05-21 01:34:51</time>
      </trkpt>
      <trkpt lat="41.84653" lon="2.22983">
        <ele>599.6</ele>
        <time>2022-05-21 01:34:52</time>
      </trkpt>
      <trkpt lat="41.84652" lon="2.22991">
        <ele>599.8</ele>
        <time>2022-05-21 01:34:53</time>
      </trkpt>
      <trkpt lat="41.84651" lon="2.22999">
        <ele>599.8</ele>
        <time>2022-05-21 01:34:54</time>
      </trkpt>
      <trkpt lat="41.84651" lon="2.23007">
        <ele>600</ele>
        <time>2022-05-21 01:34:55</time>
      </trkpt>
      <trkpt lat="41.8465" lon="2.23014">
        <ele>600</ele>
        <time>2022-05-21 01:34:56</time>
      </trkpt>
      <trkpt lat="41.84651" lon="2.23021">
        <ele>600</ele>
        <time>2022-05-21 01:34:57</time>
      </trkpt>
      <trkpt lat="41.84651" lon="2.23028">
        <ele>600.2</ele>
        <time>2022-05-21 01:34:58</time>
      </trkpt>
      <trkpt lat="41.84651" lon="2.23034">
        <ele>600.2</ele>
        <time>2022-05-21 01:34:59</time>
      </trkpt>
      <trkpt lat="41.84652" lon="2.2304">
        <ele>600.2</ele>
        <time>2022-05-21 01:35:00</time>
      </trkpt>
      <trkpt lat="41.84652" lon="2.23047">
        <ele>600.4</ele>
        <time>2022-05-21 01:35:01</time>
      </trkpt>
      <trkpt lat="41.84652" lon="2.23054">
        <ele>600.4</ele>
        <time>2022-05-21 01:35:02</time>
      </trkpt>
      <trkpt lat="41.84653" lon="2.23061">
        <ele>600.4</ele>
        <time>2022-05-21 01:35:03</time>
      </trkpt>
      <trkpt lat="41.84653" lon="2.23068">
        <ele>600.6</ele>
        <time>2022-05-21 01:35:04</time>
      </trkpt>
      <trkpt lat="41.84652" lon="2.23074">
        <ele>600.6</ele>
        <time>2022-05-21 01:35:05</time>
      </trkpt>
      <trkpt lat="41.84652" lon="2.23081">
        <ele>600.6</ele>
        <time>2022-05-21 01:35:06</time>
      </trkpt>
      <trkpt lat="41.84651" lon="2.23088">
        <ele>600.6</ele>
        <time>2022-05-21 01:35:07</time>
      </trkpt>
      <trkpt lat="41.8465" lon="2.23095">
        <ele>600.6</ele>
        <time>2022-05-21 01:35:08</time>
      </trkpt>
      <trkpt lat="41.84649" lon="2.23101">
        <ele>600.6</ele>
        <time>2022-05-21 01:35:09</time>
      </trkpt>
      <trkpt lat="41.84648" lon="2.23109">
        <ele>600.6</ele>
        <time>2022-05-21 01:35:10</time>
      </trkpt>
      <trkpt lat="41.84647" lon="2.23116">
        <ele>600.4</ele>
        <time>2022-05-21 01:35:11</time>
      </trkpt>
      <trkpt lat="41.84645" lon="2.23123">
        <ele>600.4</ele>
        <time>2022-05-21 01:35:12</time>
      </trkpt>
      <trkpt lat="41.84644" lon="2.2313">
        <ele>600.2</ele>
        <time>2022-05-21 01:35:13</time>
      </trkpt>
      <trkpt lat="41.84644" lon="2.23138">
        <ele>600</ele>
        <time>2022-05-21 01:35:14</time>
      </trkpt>
      <trkpt lat="41.84642" lon="2.23146">
        <ele>599.8</ele>
        <time>2022-05-21 01:35:15</time>
      </trkpt>
      <trkpt lat="41.8464" lon="2.23154">
        <ele>599.4</ele>
        <time>2022-05-21 01:35:16</time>
      </trkpt>
      <trkpt lat="41.84638" lon="2.23162">
        <ele>599.2</ele>
        <time>2022-05-21 01:35:17</time>
      </trkpt>
      <trkpt lat="41.84636" lon="2.23171">
        <ele>599</ele>
        <time>2022-05-21 01:35:18</time>
      </trkpt>
      <trkpt lat="41.84634" lon="2.23181">
        <ele>598.6</ele>
        <time>2022-05-21 01:35:19</time>
      </trkpt>
      <trkpt lat="41.84632" lon="2.2319">
        <ele>598.4</ele>
        <time>2022-05-21 01:35:20</time>
      </trkpt>
      <trkpt lat="41.8463" lon="2.232">
        <ele>598</ele>
        <time>2022-05-21 01:35:21</time>
      </trkpt>
      <trkpt lat="41.84628" lon="2.23208">
        <ele>597.8</ele>
        <time>2022-05-21 01:35:22</time>
      </trkpt>
      <trkpt lat="41.84624" lon="2.23216">
        <ele>597.6</ele>
        <time>2022-05-21 01:35:23</time>
      </trkpt>
      <trkpt lat="41.84621" lon="2.23223">
        <ele>597.4</ele>
        <time>2022-05-21 01:35:24</time>
      </trkpt>
      <trkpt lat="41.84618" lon="2.23228">
        <ele>597.2</ele>
        <time>2022-05-21 01:35:25</time>
      </trkpt>
      <trkpt lat="41.84617" lon="2.23233">
        <ele>597</ele>
        <time>2022-05-21 01:35:26</time>
      </trkpt>
      <trkpt lat="41.84617" lon="2.23239">
        <ele>597</ele>
        <time>2022-05-21 01:35:27</time>
      </trkpt>
      <trkpt lat="41.8462" lon="2.23242">
        <ele>596.8</ele>
        <time>2022-05-21 01:35:28</time>
      </trkpt>
      <trkpt lat="41.84624" lon="2.23245">
        <ele>596.8</ele>
        <time>2022-05-21 01:35:29</time>
      </trkpt>
      <trkpt lat="41.84628" lon="2.23247">
        <ele>596.8</ele>
        <time>2022-05-21 01:35:30</time>
      </trkpt>
      <trkpt lat="41.84632" lon="2.23248">
        <ele>596.8</ele>
        <time>2022-05-21 01:35:31</time>
      </trkpt>
      <trkpt lat="41.84637" lon="2.2325">
        <ele>596.8</ele>
        <time>2022-05-21 01:35:32</time>
      </trkpt>
      <trkpt lat="41.84642" lon="2.23252">
        <ele>596.6</ele>
        <time>2022-05-21 01:35:33</time>
      </trkpt>
      <trkpt lat="41.84647" lon="2.23253">
        <ele>596.4</ele>
        <time>2022-05-21 01:35:34</time>
      </trkpt>
      <trkpt lat="41.84653" lon="2.23255">
        <ele>596</ele>
        <time>2022-05-21 01:35:35</time>
      </trkpt>
      <trkpt lat="41.84659" lon="2.23258">
        <ele>595.6</ele>
        <time>2022-05-21 01:35:36</time>
      </trkpt>
      <trkpt lat="41.84666" lon="2.23261">
        <ele>595.2</ele>
        <time>2022-05-21 01:35:37</time>
      </trkpt>
      <trkpt lat="41.84673" lon="2.23264">
        <ele>594.6</ele>
        <time>2022-05-21 01:35:38</time>
      </trkpt>
      <trkpt lat="41.8468" lon="2.23268">
        <ele>594</ele>
        <time>2022-05-21 01:35:39</time>
      </trkpt>
      <trkpt lat="41.84687" lon="2.23271">
        <ele>593.4</ele>
        <time>2022-05-21 01:35:40</time>
      </trkpt>
      <trkpt lat="41.84695" lon="2.23275">
        <ele>592.8</ele>
        <time>2022-05-21 01:35:41</time>
      </trkpt>
      <trkpt lat="41.84703" lon="2.23278">
        <ele>592.2</ele>
        <time>2022-05-21 01:35:42</time>
      </trkpt>
      <trkpt lat="41.84711" lon="2.2328">
        <ele>591.6</ele>
        <time>2022-05-21 01:35:43</time>
      </trkpt>
      <trkpt lat="41.8472" lon="2.23281">
        <ele>591</ele>
        <time>2022-05-21 01:35:44</time>
      </trkpt>
      <trkpt lat="41.84729" lon="2.23278">
        <ele>590.4</ele>
        <time>2022-05-21 01:35:45</time>
      </trkpt>
      <trkpt lat="41.84737" lon="2.23275">
        <ele>590</ele>
        <time>2022-05-21 01:35:46</time>
      </trkpt>
      <trkpt lat="41.84745" lon="2.2327">
        <ele>589.6</ele>
        <time>2022-05-21 01:35:47</time>
      </trkpt>
      <trkpt lat="41.84752" lon="2.23265">
        <ele>589.2</ele>
        <time>2022-05-21 01:35:48</time>
      </trkpt>
      <trkpt lat="41.84758" lon="2.23263">
        <ele>588.8</ele>
        <time>2022-05-21 01:35:49</time>
      </trkpt>
      <trkpt lat="41.84763" lon="2.23263">
        <ele>588.6</ele>
        <time>2022-05-21 01:35:50</time>
      </trkpt>
      <trkpt lat="41.84766" lon="2.23267">
        <ele>588.6</ele>
        <time>2022-05-21 01:35:51</time>
      </trkpt>
      <trkpt lat="41.84766" lon="2.23272">
        <ele>588.6</ele>
        <time>2022-05-21 01:35:52</time>
      </trkpt>
      <trkpt lat="41.84764" lon="2.23277">
        <ele>588.6</ele>
        <time>2022-05-21 01:35:53</time>
      </trkpt>
      <trkpt lat="41.84761" lon="2.2328">
        <ele>588.8</ele>
        <time>2022-05-21 01:35:54</time>
      </trkpt>
      <trkpt lat="41.84758" lon="2.23283">
        <ele>588.8</ele>
        <time>2022-05-21 01:35:55</time>
      </trkpt>
      <trkpt lat="41.84754" lon="2.23284">
        <ele>589</ele>
        <time>2022-05-21 01:35:56</time>
      </trkpt>
      <trkpt lat="41.8475" lon="2.23286">
        <ele>589</ele>
        <time>2022-05-21 01:35:57</time>
      </trkpt>
      <trkpt lat="41.84745" lon="2.23286">
        <ele>589</ele>
        <time>2022-05-21 01:35:58</time>
      </trkpt>
      <trkpt lat="41.8474" lon="2.23287">
        <ele>589.2</ele>
        <time>2022-05-21 01:35:59</time>
      </trkpt>
      <trkpt lat="41.84735" lon="2.23288">
        <ele>589.2</ele>
        <time>2022-05-21 01:36:00</time>
      </trkpt>
      <trkpt lat="41.8473" lon="2.23289">
        <ele>589.2</ele>
        <time>2022-05-21 01:36:01</time>
      </trkpt>
      <trkpt lat="41.84725" lon="2.23291">
        <ele>589.2</ele>
        <time>2022-05-21 01:36:02</time>
      </trkpt>
      <trkpt lat="41.8472" lon="2.23294">
        <ele>589.2</ele>
        <time>2022-05-21 01:36:03</time>
      </trkpt>
      <trkpt lat="41.84715" lon="2.23296">
        <ele>589.2</ele>
        <time>2022-05-21 01:36:04</time>
      </trkpt>
      <trkpt lat="41.8471" lon="2.23299">
        <ele>589.2</ele>
        <time>2022-05-21 01:36:05</time>
      </trkpt>
      <trkpt lat="41.84705" lon="2.23301">
        <ele>589.4</ele>
        <time>2022-05-21 01:36:06</time>
      </trkpt>
      <trkpt lat="41.84701" lon="2.23304">
        <ele>589.4</ele>
        <time>2022-05-21 01:36:07</time>
      </trkpt>
      <trkpt lat="41.84697" lon="2.23308">
        <ele>589.4</ele>
        <time>2022-05-21 01:36:08</time>
      </trkpt>
      <trkpt lat="41.84692" lon="2.23312">
        <ele>589.4</ele>
        <time>2022-05-21 01:36:09</time>
      </trkpt>
      <trkpt lat="41.84689" lon="2.23316">
        <ele>589.4</ele>
        <time>2022-05-21 01:36:10</time>
      </trkpt>
      <trkpt lat="41.84685" lon="2.23321">
        <ele>589.4</ele>
        <time>2022-05-21 01:36:11</time>
      </trkpt>
      <trkpt lat="41.84681" lon="2.23326">
        <ele>589.6</ele>
        <time>2022-05-21 01:36:12</time>
      </trkpt>
      <trkpt lat="41.84677" lon="2.23332">
        <ele>589.6</ele>
        <time>2022-05-21 01:36:13</time>
      </trkpt>
      <trkpt lat="41.84673" lon="2.23337">
        <ele>589.8</ele>
        <time>2022-05-21 01:36:14</time>
      </trkpt>
      <trkpt lat="41.84669" lon="2.23342">
        <ele>590</ele>
        <time>2022-05-21 01:36:15</time>
      </trkpt>
      <trkpt lat="41.84665" lon="2.23347">
        <ele>590.2</ele>
        <time>2022-05-21 01:36:16</time>
      </trkpt>
      <trkpt lat="41.84661" lon="2.23351">
        <ele>590.2</ele>
        <time>2022-05-21 01:36:17</time>
      </trkpt>
      <trkpt lat="41.84657" lon="2.23355">
        <ele>590.4</ele>
        <time>2022-05-21 01:36:18</time>
      </trkpt>
      <trkpt lat="41.84653" lon="2.2336">
        <ele>590.6</ele>
        <time>2022-05-21 01:36:19</time>
      </trkpt>
      <trkpt lat="41.8465" lon="2.23363">
        <ele>591</ele>
        <time>2022-05-21 01:36:20</time>
      </trkpt>
      <trkpt lat="41.84646" lon="2.23366">
        <ele>591.2</ele>
        <time>2022-05-21 01:36:21</time>
      </trkpt>
      <trkpt lat="41.84642" lon="2.23368">
        <ele>591.4</ele>
        <time>2022-05-21 01:36:22</time>
      </trkpt>
      <trkpt lat="41.84638" lon="2.2337">
        <ele>591.6</ele>
        <time>2022-05-21 01:36:23</time>
      </trkpt>
      <trkpt lat="41.84634" lon="2.2337">
        <ele>591.8</ele>
        <time>2022-05-21 01:36:24</time>
      </trkpt>
      <trkpt lat="41.8463" lon="2.2337">
        <ele>592.2</ele>
        <time>2022-05-21 01:36:25</time>
      </trkpt>
      <trkpt lat="41.84626" lon="2.23369">
        <ele>592.4</ele>
        <time>2022-05-21 01:36:26</time>
      </trkpt>
      <trkpt lat="41.84622" lon="2.23368">
        <ele>592.6</ele>
        <time>2022-05-21 01:36:27</time>
      </trkpt>
      <trkpt lat="41.84619" lon="2.23368">
        <ele>592.8</ele>
        <time>2022-05-21 01:36:28</time>
      </trkpt>
      <trkpt lat="41.84615" lon="2.23367">
        <ele>593</ele>
        <time>2022-05-21 01:36:29</time>
      </trkpt>
      <trkpt lat="41.84612" lon="2.23367">
        <ele>593.2</ele>
        <time>2022-05-21 01:36:30</time>
      </trkpt>
      <trkpt lat="41.84608" lon="2.23368">
        <ele>593.4</ele>
        <time>2022-05-21 01:36:31</time>
      </trkpt>
      <trkpt lat="41.84605" lon="2.23369">
        <ele>593.6</ele>
        <time>2022-05-21 01:36:32</time>
      </trkpt>
      <trkpt lat="41.84602" lon="2.23372">
        <ele>593.8</ele>
        <time>2022-05-21 01:36:33</time>
      </trkpt>
      <trkpt lat="41.84599" lon="2.23375">
        <ele>594</ele>
        <time>2022-05-21 01:36:34</time>
      </trkpt>
      <trkpt lat="41.84598" lon="2.23379">
        <ele>594.2</ele>
        <time>2022-05-21 01:36:35</time>
      </trkpt>
      <trkpt lat="41.84597" lon="2.23384">
        <ele>594.4</ele>
        <time>2022-05-21 01:36:36</time>
      </trkpt>
      <trkpt lat="41.84595" lon="2.23389">
        <ele>594.4</ele>
        <time>2022-05-21 01:36:37</time>
      </trkpt>
      <trkpt lat="41.84594" lon="2.23394">
        <ele>594.6</ele>
        <time>2022-05-21 01:36:38</time>
      </trkpt>
      <trkpt lat="41.84592" lon="2.23398">
        <ele>594.8</ele>
        <time>2022-05-21 01:36:39</time>
      </trkpt>
      <trkpt lat="41.84591" lon="2.23403">
        <ele>595</ele>
        <time>2022-05-21 01:36:40</time>
      </trkpt>
      <trkpt lat="41.84589" lon="2.23407">
        <ele>595</ele>
        <time>2022-05-21 01:36:41</time>
      </trkpt>
      <trkpt lat="41.84586" lon="2.23412">
        <ele>595.2</ele>
        <time>2022-05-21 01:36:42</time>
      </trkpt>
      <trkpt lat="41.84584" lon="2.23416">
        <ele>595.4</ele>
        <time>2022-05-21 01:36:43</time>
      </trkpt>
      <trkpt lat="41.84582" lon="2.2342">
        <ele>595.6</ele>
        <time>2022-05-21 01:36:44</time>
      </trkpt>
      <trkpt lat="41.8458" lon="2.23424">
        <ele>595.6</ele>
        <time>2022-05-21 01:36:45</time>
      </trkpt>
      <trkpt lat="41.84578" lon="2.23428">
        <ele>595.8</ele>
        <time>2022-05-21 01:36:46</time>
      </trkpt>
      <trkpt lat="41.84575" lon="2.23431">
        <ele>596</ele>
        <time>2022-05-21 01:36:47</time>
      </trkpt>
      <trkpt lat="41.84573" lon="2.23435">
        <ele>596.2</ele>
        <time>2022-05-21 01:36:48</time>
      </trkpt>
      <trkpt lat="41.8457" lon="2.23439">
        <ele>596.4</ele>
        <time>2022-05-21 01:36:49</time>
      </trkpt>
      <trkpt lat="41.84568" lon="2.23443">
        <ele>596.4</ele>
        <time>2022-05-21 01:36:50</time>
      </trkpt>
      <trkpt lat="41.84566" lon="2.23447">
        <ele>596.6</ele>
        <time>2022-05-21 01:36:51</time>
      </trkpt>
      <trkpt lat="41.84563" lon="2.23451">
        <ele>596.8</ele>
        <time>2022-05-21 01:36:52</time>
      </trkpt>
      <trkpt lat="41.84561" lon="2.23455">
        <ele>597</ele>
        <time>2022-05-21 01:36:53</time>
      </trkpt>
      <trkpt lat="41.84559" lon="2.23459">
        <ele>597.2</ele>
        <time>2022-05-21 01:36:54</time>
      </trkpt>
      <trkpt lat="41.84557" lon="2.23462">
        <ele>597.2</ele>
        <time>2022-05-21 01:36:55</time>
      </trkpt>
      <trkpt lat="41.84555" lon="2.23466">
        <ele>597.4</ele>
        <time>2022-05-21 01:36:56</time>
      </trkpt>
      <trkpt lat="41.84553" lon="2.23469">
        <ele>597.6</ele>
        <time>2022-05-21 01:36:57</time>
      </trkpt>
      <trkpt lat="41.84551" lon="2.23473">
        <ele>597.6</ele>
        <time>2022-05-21 01:36:58</time>
      </trkpt>
      <trkpt lat="41.84549" lon="2.23476">
        <ele>597.8</ele>
        <time>2022-05-21 01:36:59</time>
      </trkpt>
      <trkpt lat="41.84547" lon="2.2348">
        <ele>598</ele>
        <time>2022-05-21 01:37:00</time>
      </trkpt>
      <trkpt lat="41.84545" lon="2.23482">
        <ele>598.2</ele>
        <time>2022-05-21 01:37:01</time>
      </trkpt>
      <trkpt lat="41.84542" lon="2.23488">
        <ele>598.4</ele>
        <time>2022-05-21 01:37:02</time>
      </trkpt>
      <trkpt lat="41.84539" lon="2.23491">
        <ele>598.6</ele>
        <time>2022-05-21 01:37:03</time>
      </trkpt>
      <trkpt lat="41.84537" lon="2.23495">
        <ele>598.8</ele>
        <time>2022-05-21 01:37:04</time>
      </trkpt>
      <trkpt lat="41.84534" lon="2.235">
        <ele>599</ele>
        <time>2022-05-21 01:37:05</time>
      </trkpt>
      <trkpt lat="41.84532" lon="2.23503">
        <ele>599.2</ele>
        <time>2022-05-21 01:37:06</time>
      </trkpt>
      <trkpt lat="41.8453" lon="2.23507">
        <ele>599.4</ele>
        <time>2022-05-21 01:37:07</time>
      </trkpt>
      <trkpt lat="41.84528" lon="2.23512">
        <ele>599.6</ele>
        <time>2022-05-21 01:37:08</time>
      </trkpt>
      <trkpt lat="41.84525" lon="2.23515">
        <ele>599.8</ele>
        <time>2022-05-21 01:37:09</time>
      </trkpt>
      <trkpt lat="41.84523" lon="2.23519">
        <ele>600</ele>
        <time>2022-05-21 01:37:10</time>
      </trkpt>
      <trkpt lat="41.84521" lon="2.23523">
        <ele>600.2</ele>
        <time>2022-05-21 01:37:11</time>
      </trkpt>
      <trkpt lat="41.84518" lon="2.23527">
        <ele>600.4</ele>
        <time>2022-05-21 01:37:12</time>
      </trkpt>
      <trkpt lat="41.84516" lon="2.23531">
        <ele>600.4</ele>
        <time>2022-05-21 01:37:13</time>
      </trkpt>
      <trkpt lat="41.84514" lon="2.23535">
        <ele>600.6</ele>
        <time>2022-05-21 01:37:14</time>
      </trkpt>
      <trkpt lat="41.84512" lon="2.23539">
        <ele>600.8</ele>
        <time>2022-05-21 01:37:15</time>
      </trkpt>
      <trkpt lat="41.84509" lon="2.23543">
        <ele>601</ele>
        <time>2022-05-21 01:37:16</time>
      </trkpt>
      <trkpt lat="41.84507" lon="2.23546">
        <ele>601.2</ele>
        <time>2022-05-21 01:37:17</time>
      </trkpt>
      <trkpt lat="41.84505" lon="2.2355">
        <ele>601.4</ele>
        <time>2022-05-21 01:37:18</time>
      </trkpt>
      <trkpt lat="41.84502" lon="2.23555">
        <ele>601.6</ele>
        <time>2022-05-21 01:37:19</time>
      </trkpt>
      <trkpt lat="41.845" lon="2.23559">
        <ele>601.8</ele>
        <time>2022-05-21 01:37:20</time>
      </trkpt>
      <trkpt lat="41.84498" lon="2.23563">
        <ele>602</ele>
        <time>2022-05-21 01:37:21</time>
      </trkpt>
      <trkpt lat="41.84496" lon="2.23566">
        <ele>602.2</ele>
        <time>2022-05-21 01:37:22</time>
      </trkpt>
      <trkpt lat="41.84494" lon="2.2357">
        <ele>602.4</ele>
        <time>2022-05-21 01:37:23</time>
      </trkpt>
      <trkpt lat="41.84492" lon="2.23574">
        <ele>602.6</ele>
        <time>2022-05-21 01:37:24</time>
      </trkpt>
      <trkpt lat="41.8449" lon="2.23578">
        <ele>602.8</ele>
        <time>2022-05-21 01:37:25</time>
      </trkpt>
      <trkpt lat="41.84488" lon="2.23582">
        <ele>603</ele>
        <time>2022-05-21 01:37:26</time>
      </trkpt>
      <trkpt lat="41.84485" lon="2.23586">
        <ele>603.2</ele>
        <time>2022-05-21 01:37:27</time>
      </trkpt>
      <trkpt lat="41.84483" lon="2.2359">
        <ele>603.4</ele>
        <time>2022-05-21 01:37:28</time>
      </trkpt>
      <trkpt lat="41.84481" lon="2.23594">
        <ele>603.6</ele>
        <time>2022-05-21 01:37:29</time>
      </trkpt>
      <trkpt lat="41.84479" lon="2.23598">
        <ele>603.8</ele>
        <time>2022-05-21 01:37:30</time>
      </trkpt>
      <trkpt lat="41.84477" lon="2.23602">
        <ele>604</ele>
        <time>2022-05-21 01:37:31</time>
      </trkpt>
      <trkpt lat="41.84475" lon="2.23606">
        <ele>604</ele>
        <time>2022-05-21 01:37:32</time>
      </trkpt>
      <trkpt lat="41.84473" lon="2.2361">
        <ele>604.2</ele>
        <time>2022-05-21 01:37:33</time>
      </trkpt>
      <trkpt lat="41.84472" lon="2.23614">
        <ele>604.4</ele>
        <time>2022-05-21 01:37:34</time>
      </trkpt>
      <trkpt lat="41.8447" lon="2.23618">
        <ele>604.4</ele>
        <time>2022-05-21 01:37:35</time>
      </trkpt>
      <trkpt lat="41.84469" lon="2.23623">
        <ele>604.6</ele>
        <time>2022-05-21 01:37:36</time>
      </trkpt>
      <trkpt lat="41.84468" lon="2.23628">
        <ele>604.6</ele>
        <time>2022-05-21 01:37:37</time>
      </trkpt>
      <trkpt lat="41.84467" lon="2.23633">
        <ele>604.8</ele>
        <time>2022-05-21 01:37:38</time>
      </trkpt>
      <trkpt lat="41.84465" lon="2.23638">
        <ele>604.8</ele>
        <time>2022-05-21 01:37:39</time>
      </trkpt>
      <trkpt lat="41.84464" lon="2.23644">
        <ele>604.8</ele>
        <time>2022-05-21 01:37:40</time>
      </trkpt>
      <trkpt lat="41.84463" lon="2.2365">
        <ele>604.8</ele>
        <time>2022-05-21 01:37:41</time>
      </trkpt>
      <trkpt lat="41.84463" lon="2.23656">
        <ele>604.8</ele>
        <time>2022-05-21 01:37:42</time>
      </trkpt>
      <trkpt lat="41.84462" lon="2.23662">
        <ele>604.8</ele>
        <time>2022-05-21 01:37:43</time>
      </trkpt>
      <trkpt lat="41.84462" lon="2.23669">
        <ele>604.8</ele>
        <time>2022-05-21 01:37:44</time>
      </trkpt>
      <trkpt lat="41.84462" lon="2.23675">
        <ele>604.8</ele>
        <time>2022-05-21 01:37:45</time>
      </trkpt>
      <trkpt lat="41.84462" lon="2.23682">
        <ele>604.8</ele>
        <time>2022-05-21 01:37:46</time>
      </trkpt>
      <trkpt lat="41.84463" lon="2.23688">
        <ele>604.8</ele>
        <time>2022-05-21 01:37:47</time>
      </trkpt>
      <trkpt lat="41.84464" lon="2.23695">
        <ele>604.6</ele>
        <time>2022-05-21 01:37:48</time>
      </trkpt>
      <trkpt lat="41.84465" lon="2.23703">
        <ele>604.6</ele>
        <time>2022-05-21 01:37:49</time>
      </trkpt>
      <trkpt lat="41.84467" lon="2.2371">
        <ele>604.6</ele>
        <time>2022-05-21 01:37:50</time>
      </trkpt>
      <trkpt lat="41.84468" lon="2.23717">
        <ele>604.6</ele>
        <time>2022-05-21 01:37:51</time>
      </trkpt>
      <trkpt lat="41.8447" lon="2.23724">
        <ele>604.6</ele>
        <time>2022-05-21 01:37:52</time>
      </trkpt>
      <trkpt lat="41.84471" lon="2.23731">
        <ele>604.6</ele>
        <time>2022-05-21 01:37:53</time>
      </trkpt>
      <trkpt lat="41.84472" lon="2.23739">
        <ele>604.6</ele>
        <time>2022-05-21 01:37:54</time>
      </trkpt>
      <trkpt lat="41.84473" lon="2.23747">
        <ele>604.6</ele>
        <time>2022-05-21 01:37:55</time>
      </trkpt>
      <trkpt lat="41.84475" lon="2.23754">
        <ele>604.6</ele>
        <time>2022-05-21 01:37:56</time>
      </trkpt>
      <trkpt lat="41.84476" lon="2.23761">
        <ele>604.6</ele>
        <time>2022-05-21 01:37:57</time>
      </trkpt>
      <trkpt lat="41.84478" lon="2.23768">
        <ele>604.6</ele>
        <time>2022-05-21 01:37:58</time>
      </trkpt>
      <trkpt lat="41.84479" lon="2.23776">
        <ele>604.6</ele>
        <time>2022-05-21 01:37:59</time>
      </trkpt>
      <trkpt lat="41.84481" lon="2.23783">
        <ele>604.6</ele>
        <time>2022-05-21 01:38:00</time>
      </trkpt>
      <trkpt lat="41.84482" lon="2.23791">
        <ele>604.6</ele>
        <time>2022-05-21 01:38:01</time>
      </trkpt>
      <trkpt lat="41.84484" lon="2.23798">
        <ele>604.6</ele>
        <time>2022-05-21 01:38:02</time>
      </trkpt>
      <trkpt lat="41.84485" lon="2.23806">
        <ele>604.6</ele>
        <time>2022-05-21 01:38:03</time>
      </trkpt>
      <trkpt lat="41.84487" lon="2.23814">
        <ele>604.6</ele>
        <time>2022-05-21 01:38:04</time>
      </trkpt>
      <trkpt lat="41.84488" lon="2.23821">
        <ele>604.6</ele>
        <time>2022-05-21 01:38:05</time>
      </trkpt>
      <trkpt lat="41.8449" lon="2.23829">
        <ele>604.6</ele>
        <time>2022-05-21 01:38:06</time>
      </trkpt>
      <trkpt lat="41.84491" lon="2.23836">
        <ele>604.6</ele>
        <time>2022-05-21 01:38:07</time>
      </trkpt>
      <trkpt lat="41.84492" lon="2.23843">
        <ele>604.6</ele>
        <time>2022-05-21 01:38:08</time>
      </trkpt>
      <trkpt lat="41.84493" lon="2.2385">
        <ele>604.6</ele>
        <time>2022-05-21 01:38:09</time>
      </trkpt>
      <trkpt lat="41.84493" lon="2.23857">
        <ele>604.6</ele>
        <time>2022-05-21 01:38:10</time>
      </trkpt>
      <trkpt lat="41.84493" lon="2.23864">
        <ele>604.6</ele>
        <time>2022-05-21 01:38:11</time>
      </trkpt>
      <trkpt lat="41.84493" lon="2.2387">
        <ele>604.6</ele>
        <time>2022-05-21 01:38:12</time>
      </trkpt>
      <trkpt lat="41.84493" lon="2.23877">
        <ele>604.6</ele>
        <time>2022-05-21 01:38:13</time>
      </trkpt>
      <trkpt lat="41.84493" lon="2.23884">
        <ele>604.6</ele>
        <time>2022-05-21 01:38:14</time>
      </trkpt>
      <trkpt lat="41.84494" lon="2.2389">
        <ele>604.6</ele>
        <time>2022-05-21 01:38:15</time>
      </trkpt>
      <trkpt lat="41.84493" lon="2.23897">
        <ele>604.6</ele>
        <time>2022-05-21 01:38:16</time>
      </trkpt>
      <trkpt lat="41.84493" lon="2.23904">
        <ele>604.6</ele>
        <time>2022-05-21 01:38:17</time>
      </trkpt>
      <trkpt lat="41.84492" lon="2.2391">
        <ele>604.6</ele>
        <time>2022-05-21 01:38:18</time>
      </trkpt>
      <trkpt lat="41.84492" lon="2.23917">
        <ele>604.4</ele>
        <time>2022-05-21 01:38:19</time>
      </trkpt>
      <trkpt lat="41.84492" lon="2.23924">
        <ele>604.4</ele>
        <time>2022-05-21 01:38:20</time>
      </trkpt>
      <trkpt lat="41.84492" lon="2.23932">
        <ele>604.2</ele>
        <time>2022-05-21 01:38:21</time>
      </trkpt>
      <trkpt lat="41.84492" lon="2.23939">
        <ele>604</ele>
        <time>2022-05-21 01:38:22</time>
      </trkpt>
      <trkpt lat="41.84492" lon="2.23946">
        <ele>603.8</ele>
        <time>2022-05-21 01:38:23</time>
      </trkpt>
      <trkpt lat="41.84492" lon="2.23954">
        <ele>603.6</ele>
        <time>2022-05-21 01:38:24</time>
      </trkpt>
      <trkpt lat="41.84491" lon="2.23962">
        <ele>603.4</ele>
        <time>2022-05-21 01:38:25</time>
      </trkpt>
      <trkpt lat="41.84491" lon="2.23971">
        <ele>603.2</ele>
        <time>2022-05-21 01:38:26</time>
      </trkpt>
      <trkpt lat="41.84491" lon="2.23979">
        <ele>602.8</ele>
        <time>2022-05-21 01:38:27</time>
      </trkpt>
      <trkpt lat="41.8449" lon="2.23988">
        <ele>602.4</ele>
        <time>2022-05-21 01:38:28</time>
      </trkpt>
      <trkpt lat="41.8449" lon="2.23998">
        <ele>602.2</ele>
        <time>2022-05-21 01:38:29</time>
      </trkpt>
      <trkpt lat="41.8449" lon="2.24008">
        <ele>601.8</ele>
        <time>2022-05-21 01:38:30</time>
      </trkpt>
      <trkpt lat="41.84489" lon="2.24017">
        <ele>601.4</ele>
        <time>2022-05-21 01:38:31</time>
      </trkpt>
      <trkpt lat="41.84489" lon="2.24027">
        <ele>601.2</ele>
        <time>2022-05-21 01:38:32</time>
      </trkpt>
      <trkpt lat="41.84489" lon="2.24037">
        <ele>600.8</ele>
        <time>2022-05-21 01:38:33</time>
      </trkpt>
      <trkpt lat="41.84489" lon="2.24047">
        <ele>600.4</ele>
        <time>2022-05-21 01:38:34</time>
      </trkpt>
      <trkpt lat="41.84488" lon="2.24058">
        <ele>600</ele>
        <time>2022-05-21 01:38:35</time>
      </trkpt>
      <trkpt lat="41.84488" lon="2.24069">
        <ele>599.6</ele>
        <time>2022-05-21 01:38:36</time>
      </trkpt>
      <trkpt lat="41.84488" lon="2.24079">
        <ele>599.2</ele>
        <time>2022-05-21 01:38:37</time>
      </trkpt>
      <trkpt lat="41.84488" lon="2.2409">
        <ele>598.8</ele>
        <time>2022-05-21 01:38:38</time>
      </trkpt>
      <trkpt lat="41.84487" lon="2.241">
        <ele>598.6</ele>
        <time>2022-05-21 01:38:39</time>
      </trkpt>
      <trkpt lat="41.84487" lon="2.24111">
        <ele>598</ele>
        <time>2022-05-21 01:38:40</time>
      </trkpt>
      <trkpt lat="41.84486" lon="2.24122">
        <ele>597.8</ele>
        <time>2022-05-21 01:38:41</time>
      </trkpt>
      <trkpt lat="41.84486" lon="2.24133">
        <ele>597.6</ele>
        <time>2022-05-21 01:38:42</time>
      </trkpt>
      <trkpt lat="41.84486" lon="2.24144">
        <ele>597.2</ele>
        <time>2022-05-21 01:38:43</time>
      </trkpt>
      <trkpt lat="41.84485" lon="2.24154">
        <ele>597</ele>
        <time>2022-05-21 01:38:44</time>
      </trkpt>
      <trkpt lat="41.84484" lon="2.24164">
        <ele>596.8</ele>
        <time>2022-05-21 01:38:45</time>
      </trkpt>
      <trkpt lat="41.84483" lon="2.24174">
        <ele>596.6</ele>
        <time>2022-05-21 01:38:46</time>
      </trkpt>
      <trkpt lat="41.8448" lon="2.24185">
        <ele>596.4</ele>
        <time>2022-05-21 01:38:47</time>
      </trkpt>
      <trkpt lat="41.84478" lon="2.24195">
        <ele>596.2</ele>
        <time>2022-05-21 01:38:48</time>
      </trkpt>
      <trkpt lat="41.84476" lon="2.24205">
        <ele>596</ele>
        <time>2022-05-21 01:38:49</time>
      </trkpt>
      <trkpt lat="41.84476" lon="2.24215">
        <ele>595.8</ele>
        <time>2022-05-21 01:38:50</time>
      </trkpt>
      <trkpt lat="41.84477" lon="2.24225">
        <ele>595.6</ele>
        <time>2022-05-21 01:38:51</time>
      </trkpt>
      <trkpt lat="41.84479" lon="2.24236">
        <ele>595.4</ele>
        <time>2022-05-21 01:38:52</time>
      </trkpt>
      <trkpt lat="41.8448" lon="2.24246">
        <ele>595.2</ele>
        <time>2022-05-21 01:38:53</time>
      </trkpt>
      <trkpt lat="41.84481" lon="2.24256">
        <ele>595.2</ele>
        <time>2022-05-21 01:38:54</time>
      </trkpt>
      <trkpt lat="41.84481" lon="2.24266">
        <ele>595</ele>
        <time>2022-05-21 01:38:55</time>
      </trkpt>
      <trkpt lat="41.84481" lon="2.24276">
        <ele>594.8</ele>
        <time>2022-05-21 01:38:56</time>
      </trkpt>
      <trkpt lat="41.84481" lon="2.24286">
        <ele>594.6</ele>
        <time>2022-05-21 01:38:57</time>
      </trkpt>
      <trkpt lat="41.84481" lon="2.24296">
        <ele>594.4</ele>
        <time>2022-05-21 01:38:58</time>
      </trkpt>
      <trkpt lat="41.8448" lon="2.24307">
        <ele>594.2</ele>
        <time>2022-05-21 01:38:59</time>
      </trkpt>
      <trkpt lat="41.8448" lon="2.24317">
        <ele>594</ele>
        <time>2022-05-21 01:39:00</time>
      </trkpt>
      <trkpt lat="41.8448" lon="2.24326">
        <ele>593.8</ele>
        <time>2022-05-21 01:39:01</time>
      </trkpt>
      <trkpt lat="41.8448" lon="2.24338">
        <ele>593.6</ele>
        <time>2022-05-21 01:39:02</time>
      </trkpt>
      <trkpt lat="41.84479" lon="2.24348">
        <ele>593.4</ele>
        <time>2022-05-21 01:39:03</time>
      </trkpt>
      <trkpt lat="41.84479" lon="2.24359">
        <ele>593.2</ele>
        <time>2022-05-21 01:39:04</time>
      </trkpt>
      <trkpt lat="41.84478" lon="2.24369">
        <ele>593</ele>
        <time>2022-05-21 01:39:05</time>
      </trkpt>
      <trkpt lat="41.84478" lon="2.24379">
        <ele>592.8</ele>
        <time>2022-05-21 01:39:06</time>
      </trkpt>
      <trkpt lat="41.84478" lon="2.2439">
        <ele>592.6</ele>
        <time>2022-05-21 01:39:07</time>
      </trkpt>
      <trkpt lat="41.84477" lon="2.244">
        <ele>592.4</ele>
        <time>2022-05-21 01:39:08</time>
      </trkpt>
      <trkpt lat="41.84477" lon="2.2441">
        <ele>592</ele>
        <time>2022-05-21 01:39:09</time>
      </trkpt>
      <trkpt lat="41.84477" lon="2.24421">
        <ele>591.8</ele>
        <time>2022-05-21 01:39:10</time>
      </trkpt>
      <trkpt lat="41.84476" lon="2.24433">
        <ele>591.2</ele>
        <time>2022-05-21 01:39:11</time>
      </trkpt>
      <trkpt lat="41.84476" lon="2.24444">
        <ele>590.8</ele>
        <time>2022-05-21 01:39:12</time>
      </trkpt>
      <trkpt lat="41.84476" lon="2.24456">
        <ele>590.4</ele>
        <time>2022-05-21 01:39:13</time>
      </trkpt>
      <trkpt lat="41.84475" lon="2.24469">
        <ele>589.8</ele>
        <time>2022-05-21 01:39:14</time>
      </trkpt>
      <trkpt lat="41.84475" lon="2.24482">
        <ele>589.2</ele>
        <time>2022-05-21 01:39:15</time>
      </trkpt>
      <trkpt lat="41.84475" lon="2.24495">
        <ele>588.4</ele>
        <time>2022-05-21 01:39:16</time>
      </trkpt>
      <trkpt lat="41.84474" lon="2.24509">
        <ele>587.8</ele>
        <time>2022-05-21 01:39:17</time>
      </trkpt>
      <trkpt lat="41.84473" lon="2.24523">
        <ele>587.2</ele>
        <time>2022-05-21 01:39:18</time>
      </trkpt>
      <trkpt lat="41.84473" lon="2.24537">
        <ele>586.6</ele>
        <time>2022-05-21 01:39:19</time>
      </trkpt>
      <trkpt lat="41.84474" lon="2.24552">
        <ele>586</ele>
        <time>2022-05-21 01:39:20</time>
      </trkpt>
      <trkpt lat="41.84474" lon="2.24565">
        <ele>585.4</ele>
        <time>2022-05-21 01:39:21</time>
      </trkpt>
      <trkpt lat="41.84474" lon="2.24579">
        <ele>584.8</ele>
        <time>2022-05-21 01:39:22</time>
      </trkpt>
      <trkpt lat="41.84473" lon="2.24592">
        <ele>584.2</ele>
        <time>2022-05-21 01:39:23</time>
      </trkpt>
      <trkpt lat="41.84473" lon="2.24606">
        <ele>583.8</ele>
        <time>2022-05-21 01:39:24</time>
      </trkpt>
      <trkpt lat="41.84472" lon="2.24618">
        <ele>583.4</ele>
        <time>2022-05-21 01:39:25</time>
      </trkpt>
      <trkpt lat="41.84471" lon="2.2463">
        <ele>583</ele>
        <time>2022-05-21 01:39:26</time>
      </trkpt>
      <trkpt lat="41.8447" lon="2.24643">
        <ele>582.8</ele>
        <time>2022-05-21 01:39:27</time>
      </trkpt>
      <trkpt lat="41.8447" lon="2.24655">
        <ele>582.6</ele>
        <time>2022-05-21 01:39:28</time>
      </trkpt>
      <trkpt lat="41.8447" lon="2.24668">
        <ele>582.6</ele>
        <time>2022-05-21 01:39:29</time>
      </trkpt>
      <trkpt lat="41.84469" lon="2.2468">
        <ele>582.6</ele>
        <time>2022-05-21 01:39:30</time>
      </trkpt>
      <trkpt lat="41.84468" lon="2.24691">
        <ele>582.6</ele>
        <time>2022-05-21 01:39:31</time>
      </trkpt>
      <trkpt lat="41.84468" lon="2.24702">
        <ele>582.6</ele>
        <time>2022-05-21 01:39:32</time>
      </trkpt>
      <trkpt lat="41.84468" lon="2.24713">
        <ele>582.6</ele>
        <time>2022-05-21 01:39:33</time>
      </trkpt>
      <trkpt lat="41.84468" lon="2.24723">
        <ele>582.6</ele>
        <time>2022-05-21 01:39:34</time>
      </trkpt>
      <trkpt lat="41.84467" lon="2.24733">
        <ele>582.6</ele>
        <time>2022-05-21 01:39:35</time>
      </trkpt>
      <trkpt lat="41.84467" lon="2.24742">
        <ele>582.6</ele>
        <time>2022-05-21 01:39:36</time>
      </trkpt>
      <trkpt lat="41.84467" lon="2.24752">
        <ele>582.8</ele>
        <time>2022-05-21 01:39:37</time>
      </trkpt>
      <trkpt lat="41.84467" lon="2.24761">
        <ele>582.8</ele>
        <time>2022-05-21 01:39:38</time>
      </trkpt>
      <trkpt lat="41.84467" lon="2.2477">
        <ele>582.8</ele>
        <time>2022-05-21 01:39:39</time>
      </trkpt>
      <trkpt lat="41.84466" lon="2.24779">
        <ele>582.8</ele>
        <time>2022-05-21 01:39:40</time>
      </trkpt>
      <trkpt lat="41.84466" lon="2.24789">
        <ele>583</ele>
        <time>2022-05-21 01:39:41</time>
      </trkpt>
      <trkpt lat="41.84466" lon="2.24798">
        <ele>583</ele>
        <time>2022-05-21 01:39:42</time>
      </trkpt>
      <trkpt lat="41.84466" lon="2.24806">
        <ele>583</ele>
        <time>2022-05-21 01:39:43</time>
      </trkpt>
      <trkpt lat="41.84465" lon="2.24815">
        <ele>583</ele>
        <time>2022-05-21 01:39:44</time>
      </trkpt>
      <trkpt lat="41.84465" lon="2.24824">
        <ele>583</ele>
        <time>2022-05-21 01:39:45</time>
      </trkpt>
      <trkpt lat="41.84465" lon="2.24833">
        <ele>583</ele>
        <time>2022-05-21 01:39:46</time>
      </trkpt>
      <trkpt lat="41.84465" lon="2.24842">
        <ele>583.2</ele>
        <time>2022-05-21 01:39:47</time>
      </trkpt>
      <trkpt lat="41.84465" lon="2.2485">
        <ele>583.2</ele>
        <time>2022-05-21 01:39:48</time>
      </trkpt>
      <trkpt lat="41.84464" lon="2.24859">
        <ele>583.2</ele>
        <time>2022-05-21 01:39:49</time>
      </trkpt>
      <trkpt lat="41.84464" lon="2.24868">
        <ele>583.2</ele>
        <time>2022-05-21 01:39:50</time>
      </trkpt>
      <trkpt lat="41.84464" lon="2.24876">
        <ele>583.2</ele>
        <time>2022-05-21 01:39:51</time>
      </trkpt>
      <trkpt lat="41.84463" lon="2.24885">
        <ele>583.4</ele>
        <time>2022-05-21 01:39:52</time>
      </trkpt>
      <trkpt lat="41.84463" lon="2.24893">
        <ele>583.4</ele>
        <time>2022-05-21 01:39:53</time>
      </trkpt>
      <trkpt lat="41.84462" lon="2.24902">
        <ele>583.4</ele>
        <time>2022-05-21 01:39:54</time>
      </trkpt>
      <trkpt lat="41.84462" lon="2.24911">
        <ele>583.4</ele>
        <time>2022-05-21 01:39:55</time>
      </trkpt>
      <trkpt lat="41.84461" lon="2.24919">
        <ele>583.4</ele>
        <time>2022-05-21 01:39:56</time>
      </trkpt>
      <trkpt lat="41.8446" lon="2.24928">
        <ele>583.6</ele>
        <time>2022-05-21 01:39:57</time>
      </trkpt>
      <trkpt lat="41.8446" lon="2.24936">
        <ele>583.6</ele>
        <time>2022-05-21 01:39:58</time>
      </trkpt>
      <trkpt lat="41.84459" lon="2.24944">
        <ele>583.8</ele>
        <time>2022-05-21 01:39:59</time>
      </trkpt>
      <trkpt lat="41.84457" lon="2.24952">
        <ele>583.8</ele>
        <time>2022-05-21 01:40:00</time>
      </trkpt>
      <trkpt lat="41.84455" lon="2.24959">
        <ele>584</ele>
        <time>2022-05-21 01:40:01</time>
      </trkpt>
      <trkpt lat="41.84453" lon="2.24967">
        <ele>584.2</ele>
        <time>2022-05-21 01:40:02</time>
      </trkpt>
      <trkpt lat="41.8445" lon="2.24973">
        <ele>584.4</ele>
        <time>2022-05-21 01:40:03</time>
      </trkpt>
      <trkpt lat="41.84448" lon="2.2498">
        <ele>584.6</ele>
        <time>2022-05-21 01:40:04</time>
      </trkpt>
      <trkpt lat="41.84445" lon="2.24986">
        <ele>584.8</ele>
        <time>2022-05-21 01:40:05</time>
      </trkpt>
      <trkpt lat="41.84442" lon="2.24992">
        <ele>585</ele>
        <time>2022-05-21 01:40:06</time>
      </trkpt>
      <trkpt lat="41.84439" lon="2.24997">
        <ele>585.4</ele>
        <time>2022-05-21 01:40:07</time>
      </trkpt>
      <trkpt lat="41.84436" lon="2.25002">
        <ele>585.6</ele>
        <time>2022-05-21 01:40:08</time>
      </trkpt>
      <trkpt lat="41.84433" lon="2.25007">
        <ele>585.8</ele>
        <time>2022-05-21 01:40:09</time>
      </trkpt>
      <trkpt lat="41.8443" lon="2.25012">
        <ele>586.2</ele>
        <time>2022-05-21 01:40:10</time>
      </trkpt>
      <trkpt lat="41.84427" lon="2.25017">
        <ele>586.4</ele>
        <time>2022-05-21 01:40:11</time>
      </trkpt>
      <trkpt lat="41.84423" lon="2.25021">
        <ele>586.6</ele>
        <time>2022-05-21 01:40:12</time>
      </trkpt>
      <trkpt lat="41.8442" lon="2.25026">
        <ele>586.8</ele>
        <time>2022-05-21 01:40:13</time>
      </trkpt>
      <trkpt lat="41.84417" lon="2.25031">
        <ele>586.8</ele>
        <time>2022-05-21 01:40:14</time>
      </trkpt>
      <trkpt lat="41.84413" lon="2.25035">
        <ele>587</ele>
        <time>2022-05-21 01:40:15</time>
      </trkpt>
      <trkpt lat="41.84409" lon="2.25039">
        <ele>587</ele>
        <time>2022-05-21 01:40:16</time>
      </trkpt>
      <trkpt lat="41.84405" lon="2.2504">
        <ele>587</ele>
        <time>2022-05-21 01:40:17</time>
      </trkpt>
      <trkpt lat="41.844" lon="2.25039">
        <ele>587</ele>
        <time>2022-05-21 01:40:18</time>
      </trkpt>
      <trkpt lat="41.84395" lon="2.25035">
        <ele>586.8</ele>
        <time>2022-05-21 01:40:19</time>
      </trkpt>
      <trkpt lat="41.8439" lon="2.2503">
        <ele>586.8</ele>
        <time>2022-05-21 01:40:20</time>
      </trkpt>
      <trkpt lat="41.84385" lon="2.25024">
        <ele>586.8</ele>
        <time>2022-05-21 01:40:21</time>
      </trkpt>
      <trkpt lat="41.84381" lon="2.25018">
        <ele>586.6</ele>
        <time>2022-05-21 01:40:22</time>
      </trkpt>
      <trkpt lat="41.84376" lon="2.25012">
        <ele>586.4</ele>
        <time>2022-05-21 01:40:23</time>
      </trkpt>
      <trkpt lat="41.84371" lon="2.25006">
        <ele>586.4</ele>
        <time>2022-05-21 01:40:24</time>
      </trkpt>
      <trkpt lat="41.84366" lon="2.25">
        <ele>586.2</ele>
        <time>2022-05-21 01:40:25</time>
      </trkpt>
      <trkpt lat="41.84361" lon="2.24993">
        <ele>586.2</ele>
        <time>2022-05-21 01:40:26</time>
      </trkpt>
      <trkpt lat="41.84356" lon="2.24987">
        <ele>586</ele>
        <time>2022-05-21 01:40:27</time>
      </trkpt>
      <trkpt lat="41.84351" lon="2.2498">
        <ele>585.8</ele>
        <time>2022-05-21 01:40:28</time>
      </trkpt>
      <trkpt lat="41.84345" lon="2.24973">
        <ele>585.6</ele>
        <time>2022-05-21 01:40:29</time>
      </trkpt>
      <trkpt lat="41.8434" lon="2.24967">
        <ele>585.6</ele>
        <time>2022-05-21 01:40:30</time>
      </trkpt>
      <trkpt lat="41.84335" lon="2.24961">
        <ele>585.4</ele>
        <time>2022-05-21 01:40:31</time>
      </trkpt>
      <trkpt lat="41.84329" lon="2.24954">
        <ele>585.2</ele>
        <time>2022-05-21 01:40:32</time>
      </trkpt>
      <trkpt lat="41.84324" lon="2.24947">
        <ele>585</ele>
        <time>2022-05-21 01:40:33</time>
      </trkpt>
      <trkpt lat="41.84318" lon="2.2494">
        <ele>585</ele>
        <time>2022-05-21 01:40:34</time>
      </trkpt>
      <trkpt lat="41.84313" lon="2.24933">
        <ele>584.8</ele>
        <time>2022-05-21 01:40:35</time>
      </trkpt>
      <trkpt lat="41.84307" lon="2.24926">
        <ele>584.6</ele>
        <time>2022-05-21 01:40:36</time>
      </trkpt>
      <trkpt lat="41.84303" lon="2.24919">
        <ele>584.6</ele>
        <time>2022-05-21 01:40:37</time>
      </trkpt>
      <trkpt lat="41.84298" lon="2.24912">
        <ele>584.4</ele>
        <time>2022-05-21 01:40:38</time>
      </trkpt>
      <trkpt lat="41.84292" lon="2.24904">
        <ele>584.4</ele>
        <time>2022-05-21 01:40:39</time>
      </trkpt>
      <trkpt lat="41.84287" lon="2.24897">
        <ele>584.2</ele>
        <time>2022-05-21 01:40:40</time>
      </trkpt>
      <trkpt lat="41.84282" lon="2.2489">
        <ele>584.2</ele>
        <time>2022-05-21 01:40:41</time>
      </trkpt>
      <trkpt lat="41.84276" lon="2.24883">
        <ele>584</ele>
        <time>2022-05-21 01:40:42</time>
      </trkpt>
      <trkpt lat="41.84271" lon="2.24877">
        <ele>583.8</ele>
        <time>2022-05-21 01:40:43</time>
      </trkpt>
      <trkpt lat="41.84266" lon="2.2487">
        <ele>583.8</ele>
        <time>2022-05-21 01:40:44</time>
      </trkpt>
      <trkpt lat="41.84261" lon="2.24863">
        <ele>583.6</ele>
        <time>2022-05-21 01:40:45</time>
      </trkpt>
      <trkpt lat="41.84255" lon="2.24857">
        <ele>583.6</ele>
        <time>2022-05-21 01:40:46</time>
      </trkpt>
      <trkpt lat="41.8425" lon="2.2485">
        <ele>583.6</ele>
        <time>2022-05-21 01:40:47</time>
      </trkpt>
      <trkpt lat="41.84245" lon="2.24843">
        <ele>583.4</ele>
        <time>2022-05-21 01:40:48</time>
      </trkpt>
      <trkpt lat="41.8424" lon="2.24837">
        <ele>583.4</ele>
        <time>2022-05-21 01:40:49</time>
      </trkpt>
      <trkpt lat="41.84235" lon="2.2483">
        <ele>583.4</ele>
        <time>2022-05-21 01:40:50</time>
      </trkpt>
      <trkpt lat="41.8423" lon="2.24824">
        <ele>583.4</ele>
        <time>2022-05-21 01:40:51</time>
      </trkpt>
      <trkpt lat="41.84225" lon="2.24817">
        <ele>583.2</ele>
        <time>2022-05-21 01:40:52</time>
      </trkpt>
      <trkpt lat="41.84219" lon="2.2481">
        <ele>583.2</ele>
        <time>2022-05-21 01:40:53</time>
      </trkpt>
      <trkpt lat="41.84214" lon="2.24803">
        <ele>583</ele>
        <time>2022-05-21 01:40:54</time>
      </trkpt>
      <trkpt lat="41.84209" lon="2.24796">
        <ele>583</ele>
        <time>2022-05-21 01:40:55</time>
      </trkpt>
      <trkpt lat="41.84203" lon="2.24789">
        <ele>583</ele>
        <time>2022-05-21 01:40:56</time>
      </trkpt>
      <trkpt lat="41.84198" lon="2.24782">
        <ele>582.8</ele>
        <time>2022-05-21 01:40:57</time>
      </trkpt>
      <trkpt lat="41.84193" lon="2.24775">
        <ele>582.8</ele>
        <time>2022-05-21 01:40:58</time>
      </trkpt>
      <trkpt lat="41.84187" lon="2.24767">
        <ele>582.8</ele>
        <time>2022-05-21 01:40:59</time>
      </trkpt>
      <trkpt lat="41.84182" lon="2.24761">
        <ele>582.6</ele>
        <time>2022-05-21 01:41:00</time>
      </trkpt>
      <trkpt lat="41.84177" lon="2.24756">
        <ele>582.6</ele>
        <time>2022-05-21 01:41:01</time>
      </trkpt>
      <trkpt lat="41.84169" lon="2.24747">
        <ele>582.6</ele>
        <time>2022-05-21 01:41:02</time>
      </trkpt>
      <trkpt lat="41.84163" lon="2.24741">
        <ele>582.4</ele>
        <time>2022-05-21 01:41:03</time>
      </trkpt>
      <trkpt lat="41.84158" lon="2.24735">
        <ele>582.4</ele>
        <time>2022-05-21 01:41:04</time>
      </trkpt>
      <trkpt lat="41.84152" lon="2.24728">
        <ele>582.2</ele>
        <time>2022-05-21 01:41:05</time>
      </trkpt>
      <trkpt lat="41.84146" lon="2.24722">
        <ele>582.2</ele>
        <time>2022-05-21 01:41:06</time>
      </trkpt>
      <trkpt lat="41.8414" lon="2.24715">
        <ele>582</ele>
        <time>2022-05-21 01:41:07</time>
      </trkpt>
      <trkpt lat="41.84134" lon="2.24709">
        <ele>582</ele>
        <time>2022-05-21 01:41:08</time>
      </trkpt>
      <trkpt lat="41.84128" lon="2.24703">
        <ele>581.8</ele>
        <time>2022-05-21 01:41:09</time>
      </trkpt>
      <trkpt lat="41.84122" lon="2.24696">
        <ele>581.8</ele>
        <time>2022-05-21 01:41:10</time>
      </trkpt>
      <trkpt lat="41.84116" lon="2.2469">
        <ele>581.6</ele>
        <time>2022-05-21 01:41:11</time>
      </trkpt>
      <trkpt lat="41.8411" lon="2.24684">
        <ele>581.6</ele>
        <time>2022-05-21 01:41:12</time>
      </trkpt>
      <trkpt lat="41.84104" lon="2.24678">
        <ele>581.4</ele>
        <time>2022-05-21 01:41:13</time>
      </trkpt>
      <trkpt lat="41.84098" lon="2.24671">
        <ele>581.4</ele>
        <time>2022-05-21 01:41:14</time>
      </trkpt>
      <trkpt lat="41.84092" lon="2.24665">
        <ele>581.2</ele>
        <time>2022-05-21 01:41:15</time>
      </trkpt>
      <trkpt lat="41.84085" lon="2.2466">
        <ele>581.2</ele>
        <time>2022-05-21 01:41:16</time>
      </trkpt>
      <trkpt lat="41.84079" lon="2.24657">
        <ele>581.2</ele>
        <time>2022-05-21 01:41:17</time>
      </trkpt>
      <trkpt lat="41.84071" lon="2.24655">
        <ele>581.2</ele>
        <time>2022-05-21 01:41:18</time>
      </trkpt>
      <trkpt lat="41.84064" lon="2.24655">
        <ele>581.2</ele>
        <time>2022-05-21 01:41:19</time>
      </trkpt>
      <trkpt lat="41.84057" lon="2.24657">
        <ele>581.2</ele>
        <time>2022-05-21 01:41:20</time>
      </trkpt>
      <trkpt lat="41.84051" lon="2.24661">
        <ele>581.2</ele>
        <time>2022-05-21 01:41:21</time>
      </trkpt>
      <trkpt lat="41.84046" lon="2.24667">
        <ele>581.4</ele>
        <time>2022-05-21 01:41:22</time>
      </trkpt>
      <trkpt lat="41.84041" lon="2.24673">
        <ele>581.6</ele>
        <time>2022-05-21 01:41:23</time>
      </trkpt>
      <trkpt lat="41.84037" lon="2.2468">
        <ele>581.8</ele>
        <time>2022-05-21 01:41:24</time>
      </trkpt>
      <trkpt lat="41.84034" lon="2.24687">
        <ele>581.8</ele>
        <time>2022-05-21 01:41:25</time>
      </trkpt>
      <trkpt lat="41.84032" lon="2.24694">
        <ele>582.2</ele>
        <time>2022-05-21 01:41:26</time>
      </trkpt>
      <trkpt lat="41.84029" lon="2.24701">
        <ele>582.4</ele>
        <time>2022-05-21 01:41:27</time>
      </trkpt>
      <trkpt lat="41.84026" lon="2.24708">
        <ele>582.6</ele>
        <time>2022-05-21 01:41:28</time>
      </trkpt>
      <trkpt lat="41.84024" lon="2.24715">
        <ele>582.8</ele>
        <time>2022-05-21 01:41:29</time>
      </trkpt>
      <trkpt lat="41.84021" lon="2.24721">
        <ele>583.2</ele>
        <time>2022-05-21 01:41:30</time>
      </trkpt>
      <trkpt lat="41.84019" lon="2.24727">
        <ele>583.4</ele>
        <time>2022-05-21 01:41:31</time>
      </trkpt>
      <trkpt lat="41.84016" lon="2.24733">
        <ele>583.6</ele>
        <time>2022-05-21 01:41:32</time>
      </trkpt>
      <trkpt lat="41.84014" lon="2.24739">
        <ele>584</ele>
        <time>2022-05-21 01:41:33</time>
      </trkpt>
      <trkpt lat="41.84012" lon="2.24745">
        <ele>584.2</ele>
        <time>2022-05-21 01:41:34</time>
      </trkpt>
      <trkpt lat="41.8401" lon="2.2475">
        <ele>584.4</ele>
        <time>2022-05-21 01:41:35</time>
      </trkpt>
      <trkpt lat="41.84008" lon="2.24756">
        <ele>584.6</ele>
        <time>2022-05-21 01:41:36</time>
      </trkpt>
      <trkpt lat="41.84005" lon="2.24761">
        <ele>584.8</ele>
        <time>2022-05-21 01:41:37</time>
      </trkpt>
      <trkpt lat="41.84003" lon="2.24767">
        <ele>585.2</ele>
        <time>2022-05-21 01:41:38</time>
      </trkpt>
      <trkpt lat="41.84002" lon="2.24772">
        <ele>585.4</ele>
        <time>2022-05-21 01:41:39</time>
      </trkpt>
      <trkpt lat="41.84" lon="2.24778">
        <ele>585.6</ele>
        <time>2022-05-21 01:41:40</time>
      </trkpt>
      <trkpt lat="41.83997" lon="2.24783">
        <ele>585.8</ele>
        <time>2022-05-21 01:41:41</time>
      </trkpt>
      <trkpt lat="41.83995" lon="2.24789">
        <ele>586</ele>
        <time>2022-05-21 01:41:42</time>
      </trkpt>
      <trkpt lat="41.83993" lon="2.24794">
        <ele>586.2</ele>
        <time>2022-05-21 01:41:43</time>
      </trkpt>
      <trkpt lat="41.83991" lon="2.24799">
        <ele>586.4</ele>
        <time>2022-05-21 01:41:44</time>
      </trkpt>
      <trkpt lat="41.83989" lon="2.24805">
        <ele>586.6</ele>
        <time>2022-05-21 01:41:45</time>
      </trkpt>
      <trkpt lat="41.83986" lon="2.2481">
        <ele>586.8</ele>
        <time>2022-05-21 01:41:46</time>
      </trkpt>
      <trkpt lat="41.83984" lon="2.24816">
        <ele>587</ele>
        <time>2022-05-21 01:41:47</time>
      </trkpt>
      <trkpt lat="41.83982" lon="2.24821">
        <ele>587.2</ele>
        <time>2022-05-21 01:41:48</time>
      </trkpt>
      <trkpt lat="41.8398" lon="2.24826">
        <ele>587.2</ele>
        <time>2022-05-21 01:41:49</time>
      </trkpt>
      <trkpt lat="41.83978" lon="2.24831">
        <ele>587.4</ele>
        <time>2022-05-21 01:41:50</time>
      </trkpt>
      <trkpt lat="41.83976" lon="2.24836">
        <ele>587.6</ele>
        <time>2022-05-21 01:41:51</time>
      </trkpt>
      <trkpt lat="41.83974" lon="2.24841">
        <ele>587.8</ele>
        <time>2022-05-21 01:41:52</time>
      </trkpt>
      <trkpt lat="41.83972" lon="2.24846">
        <ele>588</ele>
        <time>2022-05-21 01:41:53</time>
      </trkpt>
      <trkpt lat="41.8397" lon="2.24851">
        <ele>588.2</ele>
        <time>2022-05-21 01:41:54</time>
      </trkpt>
      <trkpt lat="41.83968" lon="2.24856">
        <ele>588.4</ele>
        <time>2022-05-21 01:41:55</time>
      </trkpt>
      <trkpt lat="41.83966" lon="2.24861">
        <ele>588.6</ele>
        <time>2022-05-21 01:41:56</time>
      </trkpt>
      <trkpt lat="41.83964" lon="2.24867">
        <ele>588.8</ele>
        <time>2022-05-21 01:41:57</time>
      </trkpt>
      <trkpt lat="41.83962" lon="2.24872">
        <ele>589</ele>
        <time>2022-05-21 01:41:58</time>
      </trkpt>
      <trkpt lat="41.8396" lon="2.24876">
        <ele>589</ele>
        <time>2022-05-21 01:41:59</time>
      </trkpt>
      <trkpt lat="41.83958" lon="2.24881">
        <ele>589.2</ele>
        <time>2022-05-21 01:42:00</time>
      </trkpt>
      <trkpt lat="41.83956" lon="2.24886">
        <ele>589.4</ele>
        <time>2022-05-21 01:42:01</time>
      </trkpt>
      <trkpt lat="41.83954" lon="2.24892">
        <ele>589.6</ele>
        <time>2022-05-21 01:42:02</time>
      </trkpt>
      <trkpt lat="41.83952" lon="2.24897">
        <ele>589.8</ele>
        <time>2022-05-21 01:42:03</time>
      </trkpt>
      <trkpt lat="41.8395" lon="2.24902">
        <ele>590</ele>
        <time>2022-05-21 01:42:04</time>
      </trkpt>
      <trkpt lat="41.83948" lon="2.24907">
        <ele>590.2</ele>
        <time>2022-05-21 01:42:05</time>
      </trkpt>
      <trkpt lat="41.83946" lon="2.24912">
        <ele>590.4</ele>
        <time>2022-05-21 01:42:06</time>
      </trkpt>
      <trkpt lat="41.83944" lon="2.24916">
        <ele>590.6</ele>
        <time>2022-05-21 01:42:07</time>
      </trkpt>
      <trkpt lat="41.83943" lon="2.24921">
        <ele>590.6</ele>
        <time>2022-05-21 01:42:08</time>
      </trkpt>
      <trkpt lat="41.83941" lon="2.24925">
        <ele>590.8</ele>
        <time>2022-05-21 01:42:09</time>
      </trkpt>
      <trkpt lat="41.8394" lon="2.24929">
        <ele>591</ele>
        <time>2022-05-21 01:42:10</time>
      </trkpt>
      <trkpt lat="41.83938" lon="2.24934">
        <ele>591.2</ele>
        <time>2022-05-21 01:42:11</time>
      </trkpt>
      <trkpt lat="41.83936" lon="2.24938">
        <ele>591.4</ele>
        <time>2022-05-21 01:42:12</time>
      </trkpt>
      <trkpt lat="41.83935" lon="2.24943">
        <ele>591.6</ele>
        <time>2022-05-21 01:42:13</time>
      </trkpt>
      <trkpt lat="41.83933" lon="2.24947">
        <ele>591.8</ele>
        <time>2022-05-21 01:42:14</time>
      </trkpt>
      <trkpt lat="41.83931" lon="2.24952">
        <ele>592</ele>
        <time>2022-05-21 01:42:15</time>
      </trkpt>
      <trkpt lat="41.83929" lon="2.24956">
        <ele>592.2</ele>
        <time>2022-05-21 01:42:16</time>
      </trkpt>
      <trkpt lat="41.83927" lon="2.24961">
        <ele>592.4</ele>
        <time>2022-05-21 01:42:17</time>
      </trkpt>
      <trkpt lat="41.83925" lon="2.24967">
        <ele>592.6</ele>
        <time>2022-05-21 01:42:18</time>
      </trkpt>
      <trkpt lat="41.83923" lon="2.24972">
        <ele>592.8</ele>
        <time>2022-05-21 01:42:19</time>
      </trkpt>
      <trkpt lat="41.83921" lon="2.24978">
        <ele>593</ele>
        <time>2022-05-21 01:42:20</time>
      </trkpt>
      <trkpt lat="41.8392" lon="2.24983">
        <ele>593.2</ele>
        <time>2022-05-21 01:42:21</time>
      </trkpt>
      <trkpt lat="41.83918" lon="2.24988">
        <ele>593.4</ele>
        <time>2022-05-21 01:42:22</time>
      </trkpt>
      <trkpt lat="41.83917" lon="2.24994">
        <ele>593.8</ele>
        <time>2022-05-21 01:42:23</time>
      </trkpt>
      <trkpt lat="41.83915" lon="2.24999">
        <ele>593.8</ele>
        <time>2022-05-21 01:42:24</time>
      </trkpt>
      <trkpt lat="41.83914" lon="2.25005">
        <ele>594</ele>
        <time>2022-05-21 01:42:25</time>
      </trkpt>
      <trkpt lat="41.83913" lon="2.25011">
        <ele>594.2</ele>
        <time>2022-05-21 01:42:26</time>
      </trkpt>
      <trkpt lat="41.83912" lon="2.25017">
        <ele>594.6</ele>
        <time>2022-05-21 01:42:27</time>
      </trkpt>
      <trkpt lat="41.8391" lon="2.25022">
        <ele>594.6</ele>
        <time>2022-05-21 01:42:28</time>
      </trkpt>
      <trkpt lat="41.83909" lon="2.25028">
        <ele>594.8</ele>
        <time>2022-05-21 01:42:29</time>
      </trkpt>
      <trkpt lat="41.83908" lon="2.25034">
        <ele>595</ele>
        <time>2022-05-21 01:42:30</time>
      </trkpt>
      <trkpt lat="41.83907" lon="2.2504">
        <ele>595.2</ele>
        <time>2022-05-21 01:42:31</time>
      </trkpt>
      <trkpt lat="41.83906" lon="2.25046">
        <ele>595.2</ele>
        <time>2022-05-21 01:42:32</time>
      </trkpt>
      <trkpt lat="41.83905" lon="2.25053">
        <ele>595.4</ele>
        <time>2022-05-21 01:42:33</time>
      </trkpt>
      <trkpt lat="41.83905" lon="2.25059">
        <ele>595.6</ele>
        <time>2022-05-21 01:42:34</time>
      </trkpt>
      <trkpt lat="41.83904" lon="2.25065">
        <ele>595.6</ele>
        <time>2022-05-21 01:42:35</time>
      </trkpt>
      <trkpt lat="41.83903" lon="2.25071">
        <ele>595.8</ele>
        <time>2022-05-21 01:42:36</time>
      </trkpt>
      <trkpt lat="41.83902" lon="2.25078">
        <ele>595.8</ele>
        <time>2022-05-21 01:42:37</time>
      </trkpt>
      <trkpt lat="41.83902" lon="2.25084">
        <ele>596</ele>
        <time>2022-05-21 01:42:38</time>
      </trkpt>
      <trkpt lat="41.83902" lon="2.2509">
        <ele>596</ele>
        <time>2022-05-21 01:42:39</time>
      </trkpt>
      <trkpt lat="41.83901" lon="2.25096">
        <ele>596.2</ele>
        <time>2022-05-21 01:42:40</time>
      </trkpt>
      <trkpt lat="41.83901" lon="2.25102">
        <ele>596.2</ele>
        <time>2022-05-21 01:42:41</time>
      </trkpt>
      <trkpt lat="41.839" lon="2.25108">
        <ele>596.2</ele>
        <time>2022-05-21 01:42:42</time>
      </trkpt>
      <trkpt lat="41.839" lon="2.25114">
        <ele>596.4</ele>
        <time>2022-05-21 01:42:43</time>
      </trkpt>
      <trkpt lat="41.83899" lon="2.25121">
        <ele>596.4</ele>
        <time>2022-05-21 01:42:44</time>
      </trkpt>
      <trkpt lat="41.83898" lon="2.25127">
        <ele>596.6</ele>
        <time>2022-05-21 01:42:45</time>
      </trkpt>
      <trkpt lat="41.83897" lon="2.25133">
        <ele>596.6</ele>
        <time>2022-05-21 01:42:46</time>
      </trkpt>
      <trkpt lat="41.83897" lon="2.25139">
        <ele>596.8</ele>
        <time>2022-05-21 01:42:47</time>
      </trkpt>
      <trkpt lat="41.83896" lon="2.25145">
        <ele>596.8</ele>
        <time>2022-05-21 01:42:48</time>
      </trkpt>
      <trkpt lat="41.83895" lon="2.25151">
        <ele>597</ele>
        <time>2022-05-21 01:42:49</time>
      </trkpt>
      <trkpt lat="41.83895" lon="2.25157">
        <ele>597.2</ele>
        <time>2022-05-21 01:42:50</time>
      </trkpt>
      <trkpt lat="41.83894" lon="2.25163">
        <ele>597.2</ele>
        <time>2022-05-21 01:42:51</time>
      </trkpt>
      <trkpt lat="41.83894" lon="2.25169">
        <ele>597.4</ele>
        <time>2022-05-21 01:42:52</time>
      </trkpt>
      <trkpt lat="41.83894" lon="2.25175">
        <ele>597.6</ele>
        <time>2022-05-21 01:42:53</time>
      </trkpt>
      <trkpt lat="41.83893" lon="2.2518">
        <ele>597.6</ele>
        <time>2022-05-21 01:42:54</time>
      </trkpt>
      <trkpt lat="41.83893" lon="2.25185">
        <ele>597.8</ele>
        <time>2022-05-21 01:42:55</time>
      </trkpt>
      <trkpt lat="41.83892" lon="2.25191">
        <ele>598</ele>
        <time>2022-05-21 01:42:56</time>
      </trkpt>
      <trkpt lat="41.83891" lon="2.25198">
        <ele>598</ele>
        <time>2022-05-21 01:42:57</time>
      </trkpt>
      <trkpt lat="41.83891" lon="2.25203">
        <ele>598.2</ele>
        <time>2022-05-21 01:42:58</time>
      </trkpt>
      <trkpt lat="41.8389" lon="2.25209">
        <ele>598.4</ele>
        <time>2022-05-21 01:42:59</time>
      </trkpt>
      <trkpt lat="41.83889" lon="2.25215">
        <ele>598.4</ele>
        <time>2022-05-21 01:43:00</time>
      </trkpt>
      <trkpt lat="41.83888" lon="2.25222">
        <ele>598.6</ele>
        <time>2022-05-21 01:43:01</time>
      </trkpt>
      <trkpt lat="41.83887" lon="2.25229">
        <ele>598.8</ele>
        <time>2022-05-21 01:43:02</time>
      </trkpt>
      <trkpt lat="41.83886" lon="2.25237">
        <ele>598.8</ele>
        <time>2022-05-21 01:43:03</time>
      </trkpt>
      <trkpt lat="41.83885" lon="2.25244">
        <ele>599</ele>
        <time>2022-05-21 01:43:04</time>
      </trkpt>
      <trkpt lat="41.83884" lon="2.25251">
        <ele>599</ele>
        <time>2022-05-21 01:43:05</time>
      </trkpt>
      <trkpt lat="41.83884" lon="2.25258">
        <ele>599.2</ele>
        <time>2022-05-21 01:43:06</time>
      </trkpt>
      <trkpt lat="41.83883" lon="2.25265">
        <ele>599.4</ele>
        <time>2022-05-21 01:43:07</time>
      </trkpt>
      <trkpt lat="41.83883" lon="2.25271">
        <ele>599.4</ele>
        <time>2022-05-21 01:43:08</time>
      </trkpt>
      <trkpt lat="41.83882" lon="2.25278">
        <ele>599.6</ele>
        <time>2022-05-21 01:43:09</time>
      </trkpt>
      <trkpt lat="41.83881" lon="2.25284">
        <ele>599.6</ele>
        <time>2022-05-21 01:43:10</time>
      </trkpt>
      <trkpt lat="41.83881" lon="2.25291">
        <ele>599.8</ele>
        <time>2022-05-21 01:43:11</time>
      </trkpt>
      <trkpt lat="41.83879" lon="2.25298">
        <ele>599.8</ele>
        <time>2022-05-21 01:43:12</time>
      </trkpt>
      <trkpt lat="41.83879" lon="2.25305">
        <ele>600</ele>
        <time>2022-05-21 01:43:13</time>
      </trkpt>
      <trkpt lat="41.83878" lon="2.25313">
        <ele>600.2</ele>
        <time>2022-05-21 01:43:14</time>
      </trkpt>
      <trkpt lat="41.83876" lon="2.2532">
        <ele>600.2</ele>
        <time>2022-05-21 01:43:15</time>
      </trkpt>
      <trkpt lat="41.83875" lon="2.25327">
        <ele>600.4</ele>
        <time>2022-05-21 01:43:16</time>
      </trkpt>
      <trkpt lat="41.83875" lon="2.25333">
        <ele>600.6</ele>
        <time>2022-05-21 01:43:17</time>
      </trkpt>
      <trkpt lat="41.83875" lon="2.2534">
        <ele>600.6</ele>
        <time>2022-05-21 01:43:18</time>
      </trkpt>
      <trkpt lat="41.83874" lon="2.25347">
        <ele>600.8</ele>
        <time>2022-05-21 01:43:19</time>
      </trkpt>
      <trkpt lat="41.83874" lon="2.25353">
        <ele>601</ele>
        <time>2022-05-21 01:43:20</time>
      </trkpt>
      <trkpt lat="41.83875" lon="2.2536">
        <ele>601</ele>
        <time>2022-05-21 01:43:21</time>
      </trkpt>
      <trkpt lat="41.83875" lon="2.25366">
        <ele>601.2</ele>
        <time>2022-05-21 01:43:22</time>
      </trkpt>
      <trkpt lat="41.83875" lon="2.25372">
        <ele>601.4</ele>
        <time>2022-05-21 01:43:23</time>
      </trkpt>
      <trkpt lat="41.83876" lon="2.25378">
        <ele>601.4</ele>
        <time>2022-05-21 01:43:24</time>
      </trkpt>
      <trkpt lat="41.83878" lon="2.25384">
        <ele>601.6</ele>
        <time>2022-05-21 01:43:25</time>
      </trkpt>
      <trkpt lat="41.83879" lon="2.2539">
        <ele>601.6</ele>
        <time>2022-05-21 01:43:26</time>
      </trkpt>
      <trkpt lat="41.83881" lon="2.25396">
        <ele>601.8</ele>
        <time>2022-05-21 01:43:27</time>
      </trkpt>
      <trkpt lat="41.83883" lon="2.25402">
        <ele>601.8</ele>
        <time>2022-05-21 01:43:28</time>
      </trkpt>
      <trkpt lat="41.83885" lon="2.25407">
        <ele>602</ele>
        <time>2022-05-21 01:43:29</time>
      </trkpt>
      <trkpt lat="41.83887" lon="2.25413">
        <ele>602</ele>
        <time>2022-05-21 01:43:30</time>
      </trkpt>
      <trkpt lat="41.8389" lon="2.25419">
        <ele>602</ele>
        <time>2022-05-21 01:43:31</time>
      </trkpt>
      <trkpt lat="41.83893" lon="2.25425">
        <ele>602</ele>
        <time>2022-05-21 01:43:32</time>
      </trkpt>
      <trkpt lat="41.83895" lon="2.25431">
        <ele>602</ele>
        <time>2022-05-21 01:43:33</time>
      </trkpt>
      <trkpt lat="41.83899" lon="2.25436">
        <ele>602</ele>
        <time>2022-05-21 01:43:34</time>
      </trkpt>
      <trkpt lat="41.83902" lon="2.25442">
        <ele>602</ele>
        <time>2022-05-21 01:43:35</time>
      </trkpt>
      <trkpt lat="41.83905" lon="2.25448">
        <ele>602</ele>
        <time>2022-05-21 01:43:36</time>
      </trkpt>
      <trkpt lat="41.83908" lon="2.25455">
        <ele>602</ele>
        <time>2022-05-21 01:43:37</time>
      </trkpt>
      <trkpt lat="41.83912" lon="2.25461">
        <ele>602</ele>
        <time>2022-05-21 01:43:38</time>
      </trkpt>
      <trkpt lat="41.83915" lon="2.25466">
        <ele>602</ele>
        <time>2022-05-21 01:43:39</time>
      </trkpt>
      <trkpt lat="41.83918" lon="2.25472">
        <ele>602</ele>
        <time>2022-05-21 01:43:40</time>
      </trkpt>
      <trkpt lat="41.83921" lon="2.25478">
        <ele>602</ele>
        <time>2022-05-21 01:43:41</time>
      </trkpt>
      <trkpt lat="41.83925" lon="2.25484">
        <ele>602</ele>
        <time>2022-05-21 01:43:42</time>
      </trkpt>
      <trkpt lat="41.83928" lon="2.2549">
        <ele>602</ele>
        <time>2022-05-21 01:43:43</time>
      </trkpt>
      <trkpt lat="41.83931" lon="2.25496">
        <ele>602</ele>
        <time>2022-05-21 01:43:44</time>
      </trkpt>
      <trkpt lat="41.83935" lon="2.25502">
        <ele>602</ele>
        <time>2022-05-21 01:43:45</time>
      </trkpt>
      <trkpt lat="41.83939" lon="2.25508">
        <ele>602</ele>
        <time>2022-05-21 01:43:46</time>
      </trkpt>
      <trkpt lat="41.83942" lon="2.25514">
        <ele>602</ele>
        <time>2022-05-21 01:43:47</time>
      </trkpt>
      <trkpt lat="41.83945" lon="2.2552">
        <ele>602</ele>
        <time>2022-05-21 01:43:48</time>
      </trkpt>
      <trkpt lat="41.83949" lon="2.25526">
        <ele>602</ele>
        <time>2022-05-21 01:43:49</time>
      </trkpt>
      <trkpt lat="41.83952" lon="2.25533">
        <ele>602</ele>
        <time>2022-05-21 01:43:50</time>
      </trkpt>
      <trkpt lat="41.83956" lon="2.25539">
        <ele>601.8</ele>
        <time>2022-05-21 01:43:51</time>
      </trkpt>
      <trkpt lat="41.8396" lon="2.25545">
        <ele>601.8</ele>
        <time>2022-05-21 01:43:52</time>
      </trkpt>
      <trkpt lat="41.83963" lon="2.25552">
        <ele>601.8</ele>
        <time>2022-05-21 01:43:53</time>
      </trkpt>
      <trkpt lat="41.83966" lon="2.25558">
        <ele>602</ele>
        <time>2022-05-21 01:43:54</time>
      </trkpt>
      <trkpt lat="41.8397" lon="2.25564">
        <ele>602</ele>
        <time>2022-05-21 01:43:55</time>
      </trkpt>
      <trkpt lat="41.83973" lon="2.2557">
        <ele>602</ele>
        <time>2022-05-21 01:43:56</time>
      </trkpt>
      <trkpt lat="41.83977" lon="2.25576">
        <ele>602</ele>
        <time>2022-05-21 01:43:57</time>
      </trkpt>
      <trkpt lat="41.8398" lon="2.25582">
        <ele>602</ele>
        <time>2022-05-21 01:43:58</time>
      </trkpt>
      <trkpt lat="41.83983" lon="2.25588">
        <ele>602.2</ele>
        <time>2022-05-21 01:43:59</time>
      </trkpt>
      <trkpt lat="41.83987" lon="2.25594">
        <ele>602.2</ele>
        <time>2022-05-21 01:44:00</time>
      </trkpt>
      <trkpt lat="41.8399" lon="2.25601">
        <ele>602.2</ele>
        <time>2022-05-21 01:44:01</time>
      </trkpt>
      <trkpt lat="41.83993" lon="2.25607">
        <ele>602.2</ele>
        <time>2022-05-21 01:44:02</time>
      </trkpt>
      <trkpt lat="41.83996" lon="2.25613">
        <ele>602.4</ele>
        <time>2022-05-21 01:44:03</time>
      </trkpt>
      <trkpt lat="41.83999" lon="2.2562">
        <ele>602.4</ele>
        <time>2022-05-21 01:44:04</time>
      </trkpt>
      <trkpt lat="41.84002" lon="2.25626">
        <ele>602.4</ele>
        <time>2022-05-21 01:44:05</time>
      </trkpt>
      <trkpt lat="41.84005" lon="2.25632">
        <ele>602.6</ele>
        <time>2022-05-21 01:44:06</time>
      </trkpt>
      <trkpt lat="41.84007" lon="2.25639">
        <ele>602.6</ele>
        <time>2022-05-21 01:44:07</time>
      </trkpt>
      <trkpt lat="41.8401" lon="2.25644">
        <ele>602.8</ele>
        <time>2022-05-21 01:44:08</time>
      </trkpt>
      <trkpt lat="41.84012" lon="2.25651">
        <ele>603</ele>
        <time>2022-05-21 01:44:09</time>
      </trkpt>
      <trkpt lat="41.84014" lon="2.25658">
        <ele>603</ele>
        <time>2022-05-21 01:44:10</time>
      </trkpt>
      <trkpt lat="41.84016" lon="2.25664">
        <ele>603.2</ele>
        <time>2022-05-21 01:44:11</time>
      </trkpt>
      <trkpt lat="41.84018" lon="2.2567">
        <ele>603.2</ele>
        <time>2022-05-21 01:44:12</time>
      </trkpt>
      <trkpt lat="41.84019" lon="2.25676">
        <ele>603.4</ele>
        <time>2022-05-21 01:44:13</time>
      </trkpt>
      <trkpt lat="41.84022" lon="2.25683">
        <ele>603.4</ele>
        <time>2022-05-21 01:44:14</time>
      </trkpt>
      <trkpt lat="41.84023" lon="2.25689">
        <ele>603.6</ele>
        <time>2022-05-21 01:44:15</time>
      </trkpt>
      <trkpt lat="41.84024" lon="2.25695">
        <ele>603.8</ele>
        <time>2022-05-21 01:44:16</time>
      </trkpt>
      <trkpt lat="41.84026" lon="2.25701">
        <ele>604</ele>
        <time>2022-05-21 01:44:17</time>
      </trkpt>
      <trkpt lat="41.84028" lon="2.25708">
        <ele>604.2</ele>
        <time>2022-05-21 01:44:18</time>
      </trkpt>
      <trkpt lat="41.8403" lon="2.25713">
        <ele>604.2</ele>
        <time>2022-05-21 01:44:19</time>
      </trkpt>
      <trkpt lat="41.84031" lon="2.25719">
        <ele>604.4</ele>
        <time>2022-05-21 01:44:20</time>
      </trkpt>
      <trkpt lat="41.84033" lon="2.25725">
        <ele>604.6</ele>
        <time>2022-05-21 01:44:21</time>
      </trkpt>
      <trkpt lat="41.84034" lon="2.25731">
        <ele>604.8</ele>
        <time>2022-05-21 01:44:22</time>
      </trkpt>
      <trkpt lat="41.84036" lon="2.25736">
        <ele>604.8</ele>
        <time>2022-05-21 01:44:23</time>
      </trkpt>
      <trkpt lat="41.84038" lon="2.25742">
        <ele>605</ele>
        <time>2022-05-21 01:44:24</time>
      </trkpt>
      <trkpt lat="41.8404" lon="2.25747">
        <ele>605.2</ele>
        <time>2022-05-21 01:44:25</time>
      </trkpt>
      <trkpt lat="41.84042" lon="2.25753">
        <ele>605.2</ele>
        <time>2022-05-21 01:44:26</time>
      </trkpt>
      <trkpt lat="41.84044" lon="2.25757">
        <ele>605.4</ele>
        <time>2022-05-21 01:44:27</time>
      </trkpt>
      <trkpt lat="41.84045" lon="2.25762">
        <ele>605.4</ele>
        <time>2022-05-21 01:44:28</time>
      </trkpt>
      <trkpt lat="41.84047" lon="2.25769">
        <ele>605.6</ele>
        <time>2022-05-21 01:44:29</time>
      </trkpt>
      <trkpt lat="41.84048" lon="2.25774">
        <ele>605.6</ele>
        <time>2022-05-21 01:44:30</time>
      </trkpt>
      <trkpt lat="41.8405" lon="2.25779">
        <ele>605.8</ele>
        <time>2022-05-21 01:44:31</time>
      </trkpt>
      <trkpt lat="41.84052" lon="2.25784">
        <ele>605.8</ele>
        <time>2022-05-21 01:44:32</time>
      </trkpt>
      <trkpt lat="41.84053" lon="2.2579">
        <ele>606</ele>
        <time>2022-05-21 01:44:33</time>
      </trkpt>
      <trkpt lat="41.84055" lon="2.25795">
        <ele>606.2</ele>
        <time>2022-05-21 01:44:34</time>
      </trkpt>
      <trkpt lat="41.84056" lon="2.25801">
        <ele>606.4</ele>
        <time>2022-05-21 01:44:35</time>
      </trkpt>
      <trkpt lat="41.84058" lon="2.25807">
        <ele>606.4</ele>
        <time>2022-05-21 01:44:36</time>
      </trkpt>
      <trkpt lat="41.84059" lon="2.25813">
        <ele>606.6</ele>
        <time>2022-05-21 01:44:37</time>
      </trkpt>
      <trkpt lat="41.8406" lon="2.25819">
        <ele>606.8</ele>
        <time>2022-05-21 01:44:38</time>
      </trkpt>
      <trkpt lat="41.84062" lon="2.25825">
        <ele>606.8</ele>
        <time>2022-05-21 01:44:39</time>
      </trkpt>
      <trkpt lat="41.84064" lon="2.2583">
        <ele>607</ele>
        <time>2022-05-21 01:44:40</time>
      </trkpt>
      <trkpt lat="41.84065" lon="2.25836">
        <ele>607.2</ele>
        <time>2022-05-21 01:44:41</time>
      </trkpt>
      <trkpt lat="41.84066" lon="2.25842">
        <ele>607.2</ele>
        <time>2022-05-21 01:44:42</time>
      </trkpt>
      <trkpt lat="41.84068" lon="2.25848">
        <ele>607.4</ele>
        <time>2022-05-21 01:44:43</time>
      </trkpt>
      <trkpt lat="41.84069" lon="2.25853">
        <ele>607.6</ele>
        <time>2022-05-21 01:44:44</time>
      </trkpt>
      <trkpt lat="41.84071" lon="2.2586">
        <ele>607.6</ele>
        <time>2022-05-21 01:44:45</time>
      </trkpt>
      <trkpt lat="41.84072" lon="2.25865">
        <ele>607.8</ele>
        <time>2022-05-21 01:44:46</time>
      </trkpt>
      <trkpt lat="41.84073" lon="2.25871">
        <ele>607.8</ele>
        <time>2022-05-21 01:44:47</time>
      </trkpt>
      <trkpt lat="41.84073" lon="2.25877">
        <ele>608</ele>
        <time>2022-05-21 01:44:48</time>
      </trkpt>
      <trkpt lat="41.84074" lon="2.25882">
        <ele>608.2</ele>
        <time>2022-05-21 01:44:49</time>
      </trkpt>
      <trkpt lat="41.84074" lon="2.25888">
        <ele>608.2</ele>
        <time>2022-05-21 01:44:50</time>
      </trkpt>
      <trkpt lat="41.84074" lon="2.25894">
        <ele>608.2</ele>
        <time>2022-05-21 01:44:51</time>
      </trkpt>
      <trkpt lat="41.84074" lon="2.25899">
        <ele>608.4</ele>
        <time>2022-05-21 01:44:52</time>
      </trkpt>
      <trkpt lat="41.84074" lon="2.25904">
        <ele>608.4</ele>
        <time>2022-05-21 01:44:53</time>
      </trkpt>
      <trkpt lat="41.84074" lon="2.2591">
        <ele>608.6</ele>
        <time>2022-05-21 01:44:54</time>
      </trkpt>
      <trkpt lat="41.84074" lon="2.25916">
        <ele>608.8</ele>
        <time>2022-05-21 01:44:55</time>
      </trkpt>
      <trkpt lat="41.84073" lon="2.2592">
        <ele>608.8</ele>
        <time>2022-05-21 01:44:56</time>
      </trkpt>
      <trkpt lat="41.84072" lon="2.25926">
        <ele>609</ele>
        <time>2022-05-21 01:44:57</time>
      </trkpt>
      <trkpt lat="41.84072" lon="2.25931">
        <ele>609.2</ele>
        <time>2022-05-21 01:44:58</time>
      </trkpt>
      <trkpt lat="41.84071" lon="2.25935">
        <ele>609.4</ele>
        <time>2022-05-21 01:44:59</time>
      </trkpt>
      <trkpt lat="41.8407" lon="2.2594">
        <ele>609.6</ele>
        <time>2022-05-21 01:45:00</time>
      </trkpt>
      <trkpt lat="41.84069" lon="2.25945">
        <ele>609.6</ele>
        <time>2022-05-21 01:45:01</time>
      </trkpt>
      <trkpt lat="41.84068" lon="2.25949">
        <ele>609.8</ele>
        <time>2022-05-21 01:45:02</time>
      </trkpt>
      <trkpt lat="41.84067" lon="2.25953">
        <ele>610</ele>
        <time>2022-05-21 01:45:03</time>
      </trkpt>
      <trkpt lat="41.84066" lon="2.25957">
        <ele>610.2</ele>
        <time>2022-05-21 01:45:04</time>
      </trkpt>
      <trkpt lat="41.84064" lon="2.25961">
        <ele>610.4</ele>
        <time>2022-05-21 01:45:05</time>
      </trkpt>
      <trkpt lat="41.84063" lon="2.25966">
        <ele>610.6</ele>
        <time>2022-05-21 01:45:06</time>
      </trkpt>
      <trkpt lat="41.84061" lon="2.2597">
        <ele>610.8</ele>
        <time>2022-05-21 01:45:07</time>
      </trkpt>
      <trkpt lat="41.8406" lon="2.25973">
        <ele>611</ele>
        <time>2022-05-21 01:45:08</time>
      </trkpt>
      <trkpt lat="41.84058" lon="2.25978">
        <ele>611.2</ele>
        <time>2022-05-21 01:45:09</time>
      </trkpt>
      <trkpt lat="41.84056" lon="2.25981">
        <ele>611.4</ele>
        <time>2022-05-21 01:45:10</time>
      </trkpt>
      <trkpt lat="41.84055" lon="2.25985">
        <ele>611.4</ele>
        <time>2022-05-21 01:45:11</time>
      </trkpt>
      <trkpt lat="41.84053" lon="2.25989">
        <ele>611.6</ele>
        <time>2022-05-21 01:45:12</time>
      </trkpt>
      <trkpt lat="41.84052" lon="2.25993">
        <ele>611.8</ele>
        <time>2022-05-21 01:45:13</time>
      </trkpt>
      <trkpt lat="41.8405" lon="2.25996">
        <ele>612</ele>
        <time>2022-05-21 01:45:14</time>
      </trkpt>
      <trkpt lat="41.84048" lon="2.26">
        <ele>612.2</ele>
        <time>2022-05-21 01:45:15</time>
      </trkpt>
      <trkpt lat="41.84047" lon="2.26004">
        <ele>612.2</ele>
        <time>2022-05-21 01:45:16</time>
      </trkpt>
      <trkpt lat="41.84046" lon="2.26008">
        <ele>612.4</ele>
        <time>2022-05-21 01:45:17</time>
      </trkpt>
      <trkpt lat="41.84044" lon="2.26012">
        <ele>612.6</ele>
        <time>2022-05-21 01:45:18</time>
      </trkpt>
      <trkpt lat="41.84043" lon="2.26015">
        <ele>612.8</ele>
        <time>2022-05-21 01:45:19</time>
      </trkpt>
      <trkpt lat="41.84042" lon="2.26019">
        <ele>612.8</ele>
        <time>2022-05-21 01:45:20</time>
      </trkpt>
      <trkpt lat="41.8404" lon="2.26023">
        <ele>613</ele>
        <time>2022-05-21 01:45:21</time>
      </trkpt>
      <trkpt lat="41.84038" lon="2.26026">
        <ele>613.2</ele>
        <time>2022-05-21 01:45:22</time>
      </trkpt>
      <trkpt lat="41.84037" lon="2.2603">
        <ele>613.4</ele>
        <time>2022-05-21 01:45:23</time>
      </trkpt>
      <trkpt lat="41.84035" lon="2.26034">
        <ele>613.4</ele>
        <time>2022-05-21 01:45:24</time>
      </trkpt>
      <trkpt lat="41.84033" lon="2.26038">
        <ele>613.6</ele>
        <time>2022-05-21 01:45:25</time>
      </trkpt>
      <trkpt lat="41.84032" lon="2.26041">
        <ele>613.8</ele>
        <time>2022-05-21 01:45:26</time>
      </trkpt>
      <trkpt lat="41.84031" lon="2.26045">
        <ele>613.8</ele>
        <time>2022-05-21 01:45:27</time>
      </trkpt>
      <trkpt lat="41.84029" lon="2.26049">
        <ele>614</ele>
        <time>2022-05-21 01:45:28</time>
      </trkpt>
      <trkpt lat="41.84027" lon="2.26052">
        <ele>614.2</ele>
        <time>2022-05-21 01:45:29</time>
      </trkpt>
      <trkpt lat="41.84026" lon="2.26056">
        <ele>614.2</ele>
        <time>2022-05-21 01:45:30</time>
      </trkpt>
      <trkpt lat="41.84024" lon="2.2606">
        <ele>614.4</ele>
        <time>2022-05-21 01:45:31</time>
      </trkpt>
      <trkpt lat="41.84023" lon="2.26063">
        <ele>614.6</ele>
        <time>2022-05-21 01:45:32</time>
      </trkpt>
      <trkpt lat="41.84021" lon="2.26067">
        <ele>614.8</ele>
        <time>2022-05-21 01:45:33</time>
      </trkpt>
      <trkpt lat="41.84019" lon="2.26071">
        <ele>615</ele>
        <time>2022-05-21 01:45:34</time>
      </trkpt>
      <trkpt lat="41.84018" lon="2.26074">
        <ele>615</ele>
        <time>2022-05-21 01:45:35</time>
      </trkpt>
      <trkpt lat="41.84016" lon="2.26078">
        <ele>615.2</ele>
        <time>2022-05-21 01:45:36</time>
      </trkpt>
      <trkpt lat="41.84015" lon="2.26082">
        <ele>615.4</ele>
        <time>2022-05-21 01:45:37</time>
      </trkpt>
      <trkpt lat="41.84013" lon="2.26085">
        <ele>615.6</ele>
        <time>2022-05-21 01:45:38</time>
      </trkpt>
      <trkpt lat="41.84011" lon="2.26088">
        <ele>615.8</ele>
        <time>2022-05-21 01:45:39</time>
      </trkpt>
      <trkpt lat="41.8401" lon="2.26092">
        <ele>615.8</ele>
        <time>2022-05-21 01:45:40</time>
      </trkpt>
      <trkpt lat="41.84008" lon="2.26095">
        <ele>616</ele>
        <time>2022-05-21 01:45:41</time>
      </trkpt>
      <trkpt lat="41.84006" lon="2.26099">
        <ele>616.2</ele>
        <time>2022-05-21 01:45:42</time>
      </trkpt>
      <trkpt lat="41.84004" lon="2.26103">
        <ele>616.4</ele>
        <time>2022-05-21 01:45:43</time>
      </trkpt>
      <trkpt lat="41.84002" lon="2.26106">
        <ele>616.6</ele>
        <time>2022-05-21 01:45:44</time>
      </trkpt>
      <trkpt lat="41.84" lon="2.2611">
        <ele>616.6</ele>
        <time>2022-05-21 01:45:45</time>
      </trkpt>
      <trkpt lat="41.83998" lon="2.26113">
        <ele>616.8</ele>
        <time>2022-05-21 01:45:46</time>
      </trkpt>
      <trkpt lat="41.83996" lon="2.26116">
        <ele>617</ele>
        <time>2022-05-21 01:45:47</time>
      </trkpt>
      <trkpt lat="41.83994" lon="2.26119">
        <ele>617.2</ele>
        <time>2022-05-21 01:45:48</time>
      </trkpt>
      <trkpt lat="41.83992" lon="2.26122">
        <ele>617.2</ele>
        <time>2022-05-21 01:45:49</time>
      </trkpt>
      <trkpt lat="41.8399" lon="2.26125">
        <ele>617.4</ele>
        <time>2022-05-21 01:45:50</time>
      </trkpt>
      <trkpt lat="41.83988" lon="2.26127">
        <ele>617.6</ele>
        <time>2022-05-21 01:45:51</time>
      </trkpt>
      <trkpt lat="41.83986" lon="2.26129">
        <ele>617.8</ele>
        <time>2022-05-21 01:45:52</time>
      </trkpt>
      <trkpt lat="41.83984" lon="2.26132">
        <ele>618</ele>
        <time>2022-05-21 01:45:53</time>
      </trkpt>
      <trkpt lat="41.83982" lon="2.26134">
        <ele>618.2</ele>
        <time>2022-05-21 01:45:54</time>
      </trkpt>
      <trkpt lat="41.83981" lon="2.26137">
        <ele>618.4</ele>
        <time>2022-05-21 01:45:55</time>
      </trkpt>
      <trkpt lat="41.83979" lon="2.2614">
        <ele>618.4</ele>
        <time>2022-05-21 01:45:56</time>
      </trkpt>
      <trkpt lat="41.83977" lon="2.26143">
        <ele>618.6</ele>
        <time>2022-05-21 01:45:57</time>
      </trkpt>
      <trkpt lat="41.83975" lon="2.26145">
        <ele>618.8</ele>
        <time>2022-05-21 01:45:58</time>
      </trkpt>
      <trkpt lat="41.83973" lon="2.26148">
        <ele>618.8</ele>
        <time>2022-05-21 01:45:59</time>
      </trkpt>
      <trkpt lat="41.83971" lon="2.26151">
        <ele>618.8</ele>
        <time>2022-05-21 01:46:00</time>
      </trkpt>
      <trkpt lat="41.83968" lon="2.26155">
        <ele>619</ele>
        <time>2022-05-21 01:46:01</time>
      </trkpt>
      <trkpt lat="41.83965" lon="2.26158">
        <ele>619</ele>
        <time>2022-05-21 01:46:02</time>
      </trkpt>
      <trkpt lat="41.83961" lon="2.26162">
        <ele>619</ele>
        <time>2022-05-21 01:46:03</time>
      </trkpt>
      <trkpt lat="41.83958" lon="2.26166">
        <ele>619</ele>
        <time>2022-05-21 01:46:04</time>
      </trkpt>
      <trkpt lat="41.83954" lon="2.26169">
        <ele>619</ele>
        <time>2022-05-21 01:46:05</time>
      </trkpt>
      <trkpt lat="41.83951" lon="2.26173">
        <ele>619.2</ele>
        <time>2022-05-21 01:46:06</time>
      </trkpt>
      <trkpt lat="41.83947" lon="2.26177">
        <ele>619.2</ele>
        <time>2022-05-21 01:46:07</time>
      </trkpt>
      <trkpt lat="41.83944" lon="2.2618">
        <ele>619.2</ele>
        <time>2022-05-21 01:46:08</time>
      </trkpt>
      <trkpt lat="41.8394" lon="2.26184">
        <ele>619.2</ele>
        <time>2022-05-21 01:46:09</time>
      </trkpt>
      <trkpt lat="41.83936" lon="2.26188">
        <ele>619.2</ele>
        <time>2022-05-21 01:46:10</time>
      </trkpt>
      <trkpt lat="41.83933" lon="2.26191">
        <ele>619.2</ele>
        <time>2022-05-21 01:46:11</time>
      </trkpt>
      <trkpt lat="41.83929" lon="2.26195">
        <ele>619.2</ele>
        <time>2022-05-21 01:46:12</time>
      </trkpt>
      <trkpt lat="41.83925" lon="2.26198">
        <ele>619.2</ele>
        <time>2022-05-21 01:46:13</time>
      </trkpt>
      <trkpt lat="41.83921" lon="2.26201">
        <ele>619.2</ele>
        <time>2022-05-21 01:46:14</time>
      </trkpt>
      <trkpt lat="41.83918" lon="2.26204">
        <ele>619.2</ele>
        <time>2022-05-21 01:46:15</time>
      </trkpt>
      <trkpt lat="41.83913" lon="2.26207">
        <ele>619.4</ele>
        <time>2022-05-21 01:46:16</time>
      </trkpt>
      <trkpt lat="41.83909" lon="2.2621">
        <ele>619.4</ele>
        <time>2022-05-21 01:46:17</time>
      </trkpt>
      <trkpt lat="41.83905" lon="2.26213">
        <ele>619.6</ele>
        <time>2022-05-21 01:46:18</time>
      </trkpt>
      <trkpt lat="41.839" lon="2.26217">
        <ele>619.6</ele>
        <time>2022-05-21 01:46:19</time>
      </trkpt>
      <trkpt lat="41.83896" lon="2.26219">
        <ele>619.6</ele>
        <time>2022-05-21 01:46:20</time>
      </trkpt>
      <trkpt lat="41.83891" lon="2.26222">
        <ele>619.8</ele>
        <time>2022-05-21 01:46:21</time>
      </trkpt>
      <trkpt lat="41.83887" lon="2.26225">
        <ele>619.8</ele>
        <time>2022-05-21 01:46:22</time>
      </trkpt>
      <trkpt lat="41.83882" lon="2.26228">
        <ele>619.8</ele>
        <time>2022-05-21 01:46:23</time>
      </trkpt>
      <trkpt lat="41.83877" lon="2.26231">
        <ele>619.8</ele>
        <time>2022-05-21 01:46:24</time>
      </trkpt>
      <trkpt lat="41.83871" lon="2.26234">
        <ele>620</ele>
        <time>2022-05-21 01:46:25</time>
      </trkpt>
      <trkpt lat="41.83866" lon="2.26237">
        <ele>620</ele>
        <time>2022-05-21 01:46:26</time>
      </trkpt>
      <trkpt lat="41.8386" lon="2.2624">
        <ele>620</ele>
        <time>2022-05-21 01:46:27</time>
      </trkpt>
      <trkpt lat="41.83855" lon="2.26242">
        <ele>620</ele>
        <time>2022-05-21 01:46:28</time>
      </trkpt>
      <trkpt lat="41.83849" lon="2.26246">
        <ele>620.2</ele>
        <time>2022-05-21 01:46:29</time>
      </trkpt>
      <trkpt lat="41.83844" lon="2.26248">
        <ele>620.2</ele>
        <time>2022-05-21 01:46:30</time>
      </trkpt>
      <trkpt lat="41.83839" lon="2.26252">
        <ele>620.2</ele>
        <time>2022-05-21 01:46:31</time>
      </trkpt>
      <trkpt lat="41.83834" lon="2.26255">
        <ele>620.2</ele>
        <time>2022-05-21 01:46:32</time>
      </trkpt>
      <trkpt lat="41.83829" lon="2.26258">
        <ele>620.2</ele>
        <time>2022-05-21 01:46:33</time>
      </trkpt>
      <trkpt lat="41.83824" lon="2.2626">
        <ele>620.2</ele>
        <time>2022-05-21 01:46:34</time>
      </trkpt>
      <trkpt lat="41.83819" lon="2.26263">
        <ele>620.2</ele>
        <time>2022-05-21 01:46:35</time>
      </trkpt>
      <trkpt lat="41.83814" lon="2.26266">
        <ele>620.4</ele>
        <time>2022-05-21 01:46:36</time>
      </trkpt>
      <trkpt lat="41.83809" lon="2.26268">
        <ele>620.4</ele>
        <time>2022-05-21 01:46:37</time>
      </trkpt>
      <trkpt lat="41.83804" lon="2.26271">
        <ele>620.4</ele>
        <time>2022-05-21 01:46:38</time>
      </trkpt>
      <trkpt lat="41.83799" lon="2.26273">
        <ele>620.4</ele>
        <time>2022-05-21 01:46:39</time>
      </trkpt>
      <trkpt lat="41.83794" lon="2.26276">
        <ele>620.4</ele>
        <time>2022-05-21 01:46:40</time>
      </trkpt>
      <trkpt lat="41.83789" lon="2.26279">
        <ele>620.6</ele>
        <time>2022-05-21 01:46:41</time>
      </trkpt>
      <trkpt lat="41.83784" lon="2.26281">
        <ele>620.6</ele>
        <time>2022-05-21 01:46:42</time>
      </trkpt>
      <trkpt lat="41.83778" lon="2.26284">
        <ele>620.6</ele>
        <time>2022-05-21 01:46:43</time>
      </trkpt>
      <trkpt lat="41.83773" lon="2.26286">
        <ele>620.6</ele>
        <time>2022-05-21 01:46:44</time>
      </trkpt>
      <trkpt lat="41.83768" lon="2.26289">
        <ele>620.6</ele>
        <time>2022-05-21 01:46:45</time>
      </trkpt>
      <trkpt lat="41.83763" lon="2.26292">
        <ele>620.8</ele>
        <time>2022-05-21 01:46:46</time>
      </trkpt>
      <trkpt lat="41.83758" lon="2.26294">
        <ele>620.8</ele>
        <time>2022-05-21 01:46:47</time>
      </trkpt>
      <trkpt lat="41.83753" lon="2.26297">
        <ele>620.8</ele>
        <time>2022-05-21 01:46:48</time>
      </trkpt>
      <trkpt lat="41.83748" lon="2.263">
        <ele>620.8</ele>
        <time>2022-05-21 01:46:49</time>
      </trkpt>
      <trkpt lat="41.83743" lon="2.26303">
        <ele>620.8</ele>
        <time>2022-05-21 01:46:50</time>
      </trkpt>
      <trkpt lat="41.83738" lon="2.26306">
        <ele>620.8</ele>
        <time>2022-05-21 01:46:51</time>
      </trkpt>
      <trkpt lat="41.83733" lon="2.2631">
        <ele>621</ele>
        <time>2022-05-21 01:46:52</time>
      </trkpt>
      <trkpt lat="41.83728" lon="2.26313">
        <ele>621</ele>
        <time>2022-05-21 01:46:53</time>
      </trkpt>
      <trkpt lat="41.83723" lon="2.26317">
        <ele>621</ele>
        <time>2022-05-21 01:46:54</time>
      </trkpt>
      <trkpt lat="41.83718" lon="2.26321">
        <ele>621</ele>
        <time>2022-05-21 01:46:55</time>
      </trkpt>
      <trkpt lat="41.83715" lon="2.26326">
        <ele>621.2</ele>
        <time>2022-05-21 01:46:56</time>
      </trkpt>
      <trkpt lat="41.83711" lon="2.26331">
        <ele>621.2</ele>
        <time>2022-05-21 01:46:57</time>
      </trkpt>
      <trkpt lat="41.83708" lon="2.26336">
        <ele>621.4</ele>
        <time>2022-05-21 01:46:58</time>
      </trkpt>
      <trkpt lat="41.83705" lon="2.2634">
        <ele>621.4</ele>
        <time>2022-05-21 01:46:59</time>
      </trkpt>
      <trkpt lat="41.83702" lon="2.26345">
        <ele>621.4</ele>
        <time>2022-05-21 01:47:00</time>
      </trkpt>
      <trkpt lat="41.83699" lon="2.26351">
        <ele>621.6</ele>
        <time>2022-05-21 01:47:01</time>
      </trkpt>
      <trkpt lat="41.83696" lon="2.26356">
        <ele>621.6</ele>
        <time>2022-05-21 01:47:02</time>
      </trkpt>
      <trkpt lat="41.83694" lon="2.26362">
        <ele>621.8</ele>
        <time>2022-05-21 01:47:03</time>
      </trkpt>
      <trkpt lat="41.83692" lon="2.26368">
        <ele>621.8</ele>
        <time>2022-05-21 01:47:04</time>
      </trkpt>
      <trkpt lat="41.8369" lon="2.26374">
        <ele>622</ele>
        <time>2022-05-21 01:47:05</time>
      </trkpt>
      <trkpt lat="41.83688" lon="2.26381">
        <ele>622</ele>
        <time>2022-05-21 01:47:06</time>
      </trkpt>
      <trkpt lat="41.83686" lon="2.26387">
        <ele>622.2</ele>
        <time>2022-05-21 01:47:07</time>
      </trkpt>
      <trkpt lat="41.83685" lon="2.26394">
        <ele>622.2</ele>
        <time>2022-05-21 01:47:08</time>
      </trkpt>
      <trkpt lat="41.83683" lon="2.264">
        <ele>622.4</ele>
        <time>2022-05-21 01:47:09</time>
      </trkpt>
      <trkpt lat="41.83682" lon="2.26407">
        <ele>622.6</ele>
        <time>2022-05-21 01:47:10</time>
      </trkpt>
      <trkpt lat="41.83681" lon="2.26413">
        <ele>622.6</ele>
        <time>2022-05-21 01:47:11</time>
      </trkpt>
      <trkpt lat="41.8368" lon="2.2642">
        <ele>622.8</ele>
        <time>2022-05-21 01:47:12</time>
      </trkpt>
      <trkpt lat="41.83678" lon="2.26427">
        <ele>622.8</ele>
        <time>2022-05-21 01:47:13</time>
      </trkpt>
      <trkpt lat="41.83677" lon="2.26433">
        <ele>623</ele>
        <time>2022-05-21 01:47:14</time>
      </trkpt>
      <trkpt lat="41.83676" lon="2.26439">
        <ele>623.2</ele>
        <time>2022-05-21 01:47:15</time>
      </trkpt>
      <trkpt lat="41.83675" lon="2.26445">
        <ele>623.2</ele>
        <time>2022-05-21 01:47:16</time>
      </trkpt>
      <trkpt lat="41.83673" lon="2.26451">
        <ele>623.4</ele>
        <time>2022-05-21 01:47:17</time>
      </trkpt>
      <trkpt lat="41.83672" lon="2.26456">
        <ele>623.6</ele>
        <time>2022-05-21 01:47:18</time>
      </trkpt>
      <trkpt lat="41.83672" lon="2.26462">
        <ele>623.8</ele>
        <time>2022-05-21 01:47:19</time>
      </trkpt>
      <trkpt lat="41.83671" lon="2.26468">
        <ele>624</ele>
        <time>2022-05-21 01:47:20</time>
      </trkpt>
      <trkpt lat="41.8367" lon="2.26474">
        <ele>624.2</ele>
        <time>2022-05-21 01:47:21</time>
      </trkpt>
      <trkpt lat="41.83669" lon="2.26479">
        <ele>624.2</ele>
        <time>2022-05-21 01:47:22</time>
      </trkpt>
      <trkpt lat="41.83668" lon="2.26485">
        <ele>624.4</ele>
        <time>2022-05-21 01:47:23</time>
      </trkpt>
      <trkpt lat="41.83667" lon="2.2649">
        <ele>624.6</ele>
        <time>2022-05-21 01:47:24</time>
      </trkpt>
      <trkpt lat="41.83667" lon="2.26496">
        <ele>624.8</ele>
        <time>2022-05-21 01:47:25</time>
      </trkpt>
      <trkpt lat="41.83666" lon="2.26501">
        <ele>625</ele>
        <time>2022-05-21 01:47:26</time>
      </trkpt>
      <trkpt lat="41.83665" lon="2.26507">
        <ele>625.2</ele>
        <time>2022-05-21 01:47:27</time>
      </trkpt>
      <trkpt lat="41.83664" lon="2.26512">
        <ele>625.2</ele>
        <time>2022-05-21 01:47:28</time>
      </trkpt>
      <trkpt lat="41.83662" lon="2.26518">
        <ele>625.4</ele>
        <time>2022-05-21 01:47:29</time>
      </trkpt>
      <trkpt lat="41.83661" lon="2.26523">
        <ele>625.6</ele>
        <time>2022-05-21 01:47:30</time>
      </trkpt>
      <trkpt lat="41.8366" lon="2.26529">
        <ele>625.8</ele>
        <time>2022-05-21 01:47:31</time>
      </trkpt>
      <trkpt lat="41.83659" lon="2.26534">
        <ele>626</ele>
        <time>2022-05-21 01:47:32</time>
      </trkpt>
      <trkpt lat="41.83657" lon="2.26539">
        <ele>626.2</ele>
        <time>2022-05-21 01:47:33</time>
      </trkpt>
      <trkpt lat="41.83656" lon="2.26544">
        <ele>626.4</ele>
        <time>2022-05-21 01:47:34</time>
      </trkpt>
      <trkpt lat="41.83655" lon="2.2655">
        <ele>626.6</ele>
        <time>2022-05-21 01:47:35</time>
      </trkpt>
      <trkpt lat="41.83653" lon="2.26555">
        <ele>626.8</ele>
        <time>2022-05-21 01:47:36</time>
      </trkpt>
      <trkpt lat="41.83652" lon="2.26561">
        <ele>627</ele>
        <time>2022-05-21 01:47:37</time>
      </trkpt>
      <trkpt lat="41.8365" lon="2.26566">
        <ele>627.2</ele>
        <time>2022-05-21 01:47:38</time>
      </trkpt>
      <trkpt lat="41.83649" lon="2.26571">
        <ele>627.4</ele>
        <time>2022-05-21 01:47:39</time>
      </trkpt>
      <trkpt lat="41.83647" lon="2.26576">
        <ele>627.6</ele>
        <time>2022-05-21 01:47:40</time>
      </trkpt>
      <trkpt lat="41.83645" lon="2.26581">
        <ele>627.6</ele>
        <time>2022-05-21 01:47:41</time>
      </trkpt>
      <trkpt lat="41.83643" lon="2.26586">
        <ele>627.8</ele>
        <time>2022-05-21 01:47:42</time>
      </trkpt>
      <trkpt lat="41.83641" lon="2.26591">
        <ele>628</ele>
        <time>2022-05-21 01:47:43</time>
      </trkpt>
      <trkpt lat="41.8364" lon="2.26596">
        <ele>628.2</ele>
        <time>2022-05-21 01:47:44</time>
      </trkpt>
      <trkpt lat="41.83638" lon="2.26601">
        <ele>628.4</ele>
        <time>2022-05-21 01:47:45</time>
      </trkpt>
      <trkpt lat="41.83636" lon="2.26606">
        <ele>628.6</ele>
        <time>2022-05-21 01:47:46</time>
      </trkpt>
      <trkpt lat="41.83634" lon="2.26611">
        <ele>628.8</ele>
        <time>2022-05-21 01:47:47</time>
      </trkpt>
      <trkpt lat="41.83632" lon="2.26616">
        <ele>629</ele>
        <time>2022-05-21 01:47:48</time>
      </trkpt>
      <trkpt lat="41.83631" lon="2.2662">
        <ele>629.2</ele>
        <time>2022-05-21 01:47:49</time>
      </trkpt>
      <trkpt lat="41.83628" lon="2.26624">
        <ele>629.2</ele>
        <time>2022-05-21 01:47:50</time>
      </trkpt>
      <trkpt lat="41.83627" lon="2.26629">
        <ele>629.4</ele>
        <time>2022-05-21 01:47:51</time>
      </trkpt>
      <trkpt lat="41.83624" lon="2.26633">
        <ele>629.4</ele>
        <time>2022-05-21 01:47:52</time>
      </trkpt>
      <trkpt lat="41.83622" lon="2.26638">
        <ele>629.8</ele>
        <time>2022-05-21 01:47:53</time>
      </trkpt>
      <trkpt lat="41.8362" lon="2.26643">
        <ele>630</ele>
        <time>2022-05-21 01:47:54</time>
      </trkpt>
      <trkpt lat="41.83619" lon="2.26647">
        <ele>630.2</ele>
        <time>2022-05-21 01:47:55</time>
      </trkpt>
      <trkpt lat="41.83617" lon="2.26651">
        <ele>630.4</ele>
        <time>2022-05-21 01:47:56</time>
      </trkpt>
      <trkpt lat="41.83615" lon="2.26655">
        <ele>630.4</ele>
        <time>2022-05-21 01:47:57</time>
      </trkpt>
      <trkpt lat="41.83614" lon="2.26659">
        <ele>630.6</ele>
        <time>2022-05-21 01:47:58</time>
      </trkpt>
      <trkpt lat="41.83612" lon="2.26663">
        <ele>630.8</ele>
        <time>2022-05-21 01:47:59</time>
      </trkpt>
      <trkpt lat="41.83611" lon="2.26668">
        <ele>631</ele>
        <time>2022-05-21 01:48:00</time>
      </trkpt>
      <trkpt lat="41.83609" lon="2.26672">
        <ele>631.2</ele>
        <time>2022-05-21 01:48:01</time>
      </trkpt>
      <trkpt lat="41.83607" lon="2.26676">
        <ele>631.4</ele>
        <time>2022-05-21 01:48:02</time>
      </trkpt>
      <trkpt lat="41.83606" lon="2.2668">
        <ele>631.6</ele>
        <time>2022-05-21 01:48:03</time>
      </trkpt>
      <trkpt lat="41.83604" lon="2.26684">
        <ele>631.8</ele>
        <time>2022-05-21 01:48:04</time>
      </trkpt>
      <trkpt lat="41.83602" lon="2.26689">
        <ele>632</ele>
        <time>2022-05-21 01:48:05</time>
      </trkpt>
      <trkpt lat="41.83599" lon="2.26693">
        <ele>632.2</ele>
        <time>2022-05-21 01:48:06</time>
      </trkpt>
      <trkpt lat="41.83598" lon="2.26698">
        <ele>632.2</ele>
        <time>2022-05-21 01:48:07</time>
      </trkpt>
      <trkpt lat="41.83596" lon="2.26703">
        <ele>632.4</ele>
        <time>2022-05-21 01:48:08</time>
      </trkpt>
      <trkpt lat="41.83594" lon="2.26707">
        <ele>632.6</ele>
        <time>2022-05-21 01:48:09</time>
      </trkpt>
      <trkpt lat="41.83593" lon="2.26712">
        <ele>632.8</ele>
        <time>2022-05-21 01:48:10</time>
      </trkpt>
      <trkpt lat="41.83591" lon="2.26717">
        <ele>632.8</ele>
        <time>2022-05-21 01:48:11</time>
      </trkpt>
      <trkpt lat="41.8359" lon="2.26722">
        <ele>633</ele>
        <time>2022-05-21 01:48:12</time>
      </trkpt>
      <trkpt lat="41.83588" lon="2.26727">
        <ele>633</ele>
        <time>2022-05-21 01:48:13</time>
      </trkpt>
      <trkpt lat="41.83587" lon="2.26732">
        <ele>633.2</ele>
        <time>2022-05-21 01:48:14</time>
      </trkpt>
      <trkpt lat="41.83585" lon="2.26737">
        <ele>633.2</ele>
        <time>2022-05-21 01:48:15</time>
      </trkpt>
      <trkpt lat="41.83584" lon="2.26742">
        <ele>633.4</ele>
        <time>2022-05-21 01:48:16</time>
      </trkpt>
      <trkpt lat="41.83583" lon="2.26748">
        <ele>633.6</ele>
        <time>2022-05-21 01:48:17</time>
      </trkpt>
      <trkpt lat="41.83582" lon="2.26753">
        <ele>633.8</ele>
        <time>2022-05-21 01:48:18</time>
      </trkpt>
      <trkpt lat="41.83581" lon="2.26758">
        <ele>633.8</ele>
        <time>2022-05-21 01:48:19</time>
      </trkpt>
      <trkpt lat="41.83579" lon="2.26763">
        <ele>633.8</ele>
        <time>2022-05-21 01:48:20</time>
      </trkpt>
      <trkpt lat="41.83578" lon="2.26769">
        <ele>634</ele>
        <time>2022-05-21 01:48:21</time>
      </trkpt>
      <trkpt lat="41.83577" lon="2.26774">
        <ele>634</ele>
        <time>2022-05-21 01:48:22</time>
      </trkpt>
      <trkpt lat="41.83576" lon="2.2678">
        <ele>634.2</ele>
        <time>2022-05-21 01:48:23</time>
      </trkpt>
      <trkpt lat="41.83575" lon="2.26785">
        <ele>634.2</ele>
        <time>2022-05-21 01:48:24</time>
      </trkpt>
      <trkpt lat="41.83575" lon="2.2679">
        <ele>634.4</ele>
        <time>2022-05-21 01:48:25</time>
      </trkpt>
      <trkpt lat="41.83574" lon="2.26796">
        <ele>634.4</ele>
        <time>2022-05-21 01:48:26</time>
      </trkpt>
      <trkpt lat="41.83573" lon="2.26801">
        <ele>634.6</ele>
        <time>2022-05-21 01:48:27</time>
      </trkpt>
      <trkpt lat="41.83572" lon="2.26806">
        <ele>634.8</ele>
        <time>2022-05-21 01:48:28</time>
      </trkpt>
      <trkpt lat="41.83572" lon="2.26812">
        <ele>634.8</ele>
        <time>2022-05-21 01:48:29</time>
      </trkpt>
      <trkpt lat="41.83571" lon="2.26817">
        <ele>635</ele>
        <time>2022-05-21 01:48:30</time>
      </trkpt>
      <trkpt lat="41.8357" lon="2.26823">
        <ele>635</ele>
        <time>2022-05-21 01:48:31</time>
      </trkpt>
      <trkpt lat="41.83569" lon="2.26828">
        <ele>635.2</ele>
        <time>2022-05-21 01:48:32</time>
      </trkpt>
      <trkpt lat="41.83569" lon="2.26833">
        <ele>635.2</ele>
        <time>2022-05-21 01:48:33</time>
      </trkpt>
      <trkpt lat="41.83568" lon="2.26839">
        <ele>635.4</ele>
        <time>2022-05-21 01:48:34</time>
      </trkpt>
      <trkpt lat="41.83567" lon="2.26844">
        <ele>635.4</ele>
        <time>2022-05-21 01:48:35</time>
      </trkpt>
      <trkpt lat="41.83567" lon="2.26849">
        <ele>635.6</ele>
        <time>2022-05-21 01:48:36</time>
      </trkpt>
      <trkpt lat="41.83566" lon="2.26854">
        <ele>635.6</ele>
        <time>2022-05-21 01:48:37</time>
      </trkpt>
      <trkpt lat="41.83566" lon="2.26859">
        <ele>635.8</ele>
        <time>2022-05-21 01:48:38</time>
      </trkpt>
      <trkpt lat="41.83565" lon="2.26865">
        <ele>636</ele>
        <time>2022-05-21 01:48:39</time>
      </trkpt>
      <trkpt lat="41.83564" lon="2.2687">
        <ele>636</ele>
        <time>2022-05-21 01:48:40</time>
      </trkpt>
      <trkpt lat="41.83564" lon="2.26875">
        <ele>636.2</ele>
        <time>2022-05-21 01:48:41</time>
      </trkpt>
      <trkpt lat="41.83563" lon="2.2688">
        <ele>636.4</ele>
        <time>2022-05-21 01:48:42</time>
      </trkpt>
      <trkpt lat="41.83562" lon="2.26885">
        <ele>636.4</ele>
        <time>2022-05-21 01:48:43</time>
      </trkpt>
      <trkpt lat="41.83562" lon="2.2689">
        <ele>636.6</ele>
        <time>2022-05-21 01:48:44</time>
      </trkpt>
      <trkpt lat="41.83561" lon="2.26895">
        <ele>636.6</ele>
        <time>2022-05-21 01:48:45</time>
      </trkpt>
      <trkpt lat="41.8356" lon="2.269">
        <ele>636.8</ele>
        <time>2022-05-21 01:48:46</time>
      </trkpt>
      <trkpt lat="41.83559" lon="2.26905">
        <ele>636.8</ele>
        <time>2022-05-21 01:48:47</time>
      </trkpt>
      <trkpt lat="41.83559" lon="2.26911">
        <ele>637</ele>
        <time>2022-05-21 01:48:48</time>
      </trkpt>
      <trkpt lat="41.83559" lon="2.26916">
        <ele>637.2</ele>
        <time>2022-05-21 01:48:49</time>
      </trkpt>
      <trkpt lat="41.83558" lon="2.26921">
        <ele>637.2</ele>
        <time>2022-05-21 01:48:50</time>
      </trkpt>
      <trkpt lat="41.83558" lon="2.26926">
        <ele>637.4</ele>
        <time>2022-05-21 01:48:51</time>
      </trkpt>
      <trkpt lat="41.83557" lon="2.26931">
        <ele>637.6</ele>
        <time>2022-05-21 01:48:52</time>
      </trkpt>
      <trkpt lat="41.83556" lon="2.26936">
        <ele>637.6</ele>
        <time>2022-05-21 01:48:53</time>
      </trkpt>
      <trkpt lat="41.83556" lon="2.26941">
        <ele>637.8</ele>
        <time>2022-05-21 01:48:54</time>
      </trkpt>
      <trkpt lat="41.83555" lon="2.26946">
        <ele>637.8</ele>
        <time>2022-05-21 01:48:55</time>
      </trkpt>
      <trkpt lat="41.83554" lon="2.26952">
        <ele>638</ele>
        <time>2022-05-21 01:48:56</time>
      </trkpt>
      <trkpt lat="41.83554" lon="2.26957">
        <ele>638</ele>
        <time>2022-05-21 01:48:57</time>
      </trkpt>
      <trkpt lat="41.83553" lon="2.26962">
        <ele>638.2</ele>
        <time>2022-05-21 01:48:58</time>
      </trkpt>
      <trkpt lat="41.83553" lon="2.26967">
        <ele>638.4</ele>
        <time>2022-05-21 01:48:59</time>
      </trkpt>
      <trkpt lat="41.83552" lon="2.26972">
        <ele>638.4</ele>
        <time>2022-05-21 01:49:00</time>
      </trkpt>
      <trkpt lat="41.83551" lon="2.26977">
        <ele>638.6</ele>
        <time>2022-05-21 01:49:01</time>
      </trkpt>
      <trkpt lat="41.83549" lon="2.26982">
        <ele>638.6</ele>
        <time>2022-05-21 01:49:02</time>
      </trkpt>
      <trkpt lat="41.83548" lon="2.26987">
        <ele>638.8</ele>
        <time>2022-05-21 01:49:03</time>
      </trkpt>
      <trkpt lat="41.83546" lon="2.26991">
        <ele>639</ele>
        <time>2022-05-21 01:49:04</time>
      </trkpt>
      <trkpt lat="41.83543" lon="2.26995">
        <ele>639</ele>
        <time>2022-05-21 01:49:05</time>
      </trkpt>
      <trkpt lat="41.83541" lon="2.26999">
        <ele>639.2</ele>
        <time>2022-05-21 01:49:06</time>
      </trkpt>
      <trkpt lat="41.83539" lon="2.27003">
        <ele>639.2</ele>
        <time>2022-05-21 01:49:07</time>
      </trkpt>
      <trkpt lat="41.83536" lon="2.27006">
        <ele>639.2</ele>
        <time>2022-05-21 01:49:08</time>
      </trkpt>
      <trkpt lat="41.83533" lon="2.27008">
        <ele>639.4</ele>
        <time>2022-05-21 01:49:09</time>
      </trkpt>
      <trkpt lat="41.83529" lon="2.27011">
        <ele>639.4</ele>
        <time>2022-05-21 01:49:10</time>
      </trkpt>
      <trkpt lat="41.83525" lon="2.27013">
        <ele>639.4</ele>
        <time>2022-05-21 01:49:11</time>
      </trkpt>
      <trkpt lat="41.83522" lon="2.27016">
        <ele>639.4</ele>
        <time>2022-05-21 01:49:12</time>
      </trkpt>
      <trkpt lat="41.83519" lon="2.27019">
        <ele>639.6</ele>
        <time>2022-05-21 01:49:13</time>
      </trkpt>
      <trkpt lat="41.83515" lon="2.27021">
        <ele>639.6</ele>
        <time>2022-05-21 01:49:14</time>
      </trkpt>
      <trkpt lat="41.83511" lon="2.27023">
        <ele>639.8</ele>
        <time>2022-05-21 01:49:15</time>
      </trkpt>
      <trkpt lat="41.83508" lon="2.27026">
        <ele>639.8</ele>
        <time>2022-05-21 01:49:16</time>
      </trkpt>
      <trkpt lat="41.83504" lon="2.27029">
        <ele>640</ele>
        <time>2022-05-21 01:49:17</time>
      </trkpt>
      <trkpt lat="41.83501" lon="2.27032">
        <ele>640</ele>
        <time>2022-05-21 01:49:18</time>
      </trkpt>
      <trkpt lat="41.83498" lon="2.27035">
        <ele>640.2</ele>
        <time>2022-05-21 01:49:19</time>
      </trkpt>
      <trkpt lat="41.83495" lon="2.27039">
        <ele>640.2</ele>
        <time>2022-05-21 01:49:20</time>
      </trkpt>
      <trkpt lat="41.83492" lon="2.27043">
        <ele>640.2</ele>
        <time>2022-05-21 01:49:21</time>
      </trkpt>
      <trkpt lat="41.83489" lon="2.27047">
        <ele>640.4</ele>
        <time>2022-05-21 01:49:22</time>
      </trkpt>
      <trkpt lat="41.83486" lon="2.27052">
        <ele>640.4</ele>
        <time>2022-05-21 01:49:23</time>
      </trkpt>
      <trkpt lat="41.83484" lon="2.27057">
        <ele>640.4</ele>
        <time>2022-05-21 01:49:24</time>
      </trkpt>
      <trkpt lat="41.83482" lon="2.27062">
        <ele>640.6</ele>
        <time>2022-05-21 01:49:25</time>
      </trkpt>
      <trkpt lat="41.8348" lon="2.27067">
        <ele>640.6</ele>
        <time>2022-05-21 01:49:26</time>
      </trkpt>
      <trkpt lat="41.83479" lon="2.27073">
        <ele>640.6</ele>
        <time>2022-05-21 01:49:27</time>
      </trkpt>
      <trkpt lat="41.83477" lon="2.27078">
        <ele>640.8</ele>
        <time>2022-05-21 01:49:28</time>
      </trkpt>
      <trkpt lat="41.83476" lon="2.27083">
        <ele>641</ele>
        <time>2022-05-21 01:49:29</time>
      </trkpt>
      <trkpt lat="41.83475" lon="2.27088">
        <ele>641</ele>
        <time>2022-05-21 01:49:30</time>
      </trkpt>
      <trkpt lat="41.83474" lon="2.27093">
        <ele>641.2</ele>
        <time>2022-05-21 01:49:31</time>
      </trkpt>
      <trkpt lat="41.83472" lon="2.27098">
        <ele>641.4</ele>
        <time>2022-05-21 01:49:32</time>
      </trkpt>
      <trkpt lat="41.83471" lon="2.27103">
        <ele>641.6</ele>
        <time>2022-05-21 01:49:33</time>
      </trkpt>
      <trkpt lat="41.8347" lon="2.27107">
        <ele>641.8</ele>
        <time>2022-05-21 01:49:34</time>
      </trkpt>
      <trkpt lat="41.83469" lon="2.27112">
        <ele>642</ele>
        <time>2022-05-21 01:49:35</time>
      </trkpt>
      <trkpt lat="41.83468" lon="2.27116">
        <ele>642.2</ele>
        <time>2022-05-21 01:49:36</time>
      </trkpt>
      <trkpt lat="41.83467" lon="2.2712">
        <ele>642.4</ele>
        <time>2022-05-21 01:49:37</time>
      </trkpt>
      <trkpt lat="41.83466" lon="2.27124">
        <ele>642.4</ele>
        <time>2022-05-21 01:49:38</time>
      </trkpt>
      <trkpt lat="41.83466" lon="2.27127">
        <ele>642.6</ele>
        <time>2022-05-21 01:49:39</time>
      </trkpt>
      <trkpt lat="41.83464" lon="2.27131">
        <ele>642.8</ele>
        <time>2022-05-21 01:49:40</time>
      </trkpt>
      <trkpt lat="41.83464" lon="2.27135">
        <ele>643</ele>
        <time>2022-05-21 01:49:41</time>
      </trkpt>
      <trkpt lat="41.83463" lon="2.27139">
        <ele>643</ele>
        <time>2022-05-21 01:49:42</time>
      </trkpt>
      <trkpt lat="41.83462" lon="2.27142">
        <ele>643.2</ele>
        <time>2022-05-21 01:49:43</time>
      </trkpt>
      <trkpt lat="41.83461" lon="2.27146">
        <ele>643.4</ele>
        <time>2022-05-21 01:49:44</time>
      </trkpt>
      <trkpt lat="41.8346" lon="2.27149">
        <ele>643.6</ele>
        <time>2022-05-21 01:49:45</time>
      </trkpt>
      <trkpt lat="41.83459" lon="2.27153">
        <ele>643.8</ele>
        <time>2022-05-21 01:49:46</time>
      </trkpt>
      <trkpt lat="41.83458" lon="2.27157">
        <ele>644</ele>
        <time>2022-05-21 01:49:47</time>
      </trkpt>
      <trkpt lat="41.83457" lon="2.27161">
        <ele>644.2</ele>
        <time>2022-05-21 01:49:48</time>
      </trkpt>
      <trkpt lat="41.83457" lon="2.27164">
        <ele>644.4</ele>
        <time>2022-05-21 01:49:49</time>
      </trkpt>
      <trkpt lat="41.83456" lon="2.27168">
        <ele>644.6</ele>
        <time>2022-05-21 01:49:50</time>
      </trkpt>
      <trkpt lat="41.83456" lon="2.27172">
        <ele>644.6</ele>
        <time>2022-05-21 01:49:51</time>
      </trkpt>
      <trkpt lat="41.83456" lon="2.27176">
        <ele>644.8</ele>
        <time>2022-05-21 01:49:52</time>
      </trkpt>
      <trkpt lat="41.83455" lon="2.2718">
        <ele>645</ele>
        <time>2022-05-21 01:49:53</time>
      </trkpt>
      <trkpt lat="41.83454" lon="2.27184">
        <ele>645.2</ele>
        <time>2022-05-21 01:49:54</time>
      </trkpt>
      <trkpt lat="41.83453" lon="2.27188">
        <ele>645.4</ele>
        <time>2022-05-21 01:49:55</time>
      </trkpt>
      <trkpt lat="41.83453" lon="2.27192">
        <ele>645.6</ele>
        <time>2022-05-21 01:49:56</time>
      </trkpt>
      <trkpt lat="41.83452" lon="2.27196">
        <ele>645.8</ele>
        <time>2022-05-21 01:49:57</time>
      </trkpt>
      <trkpt lat="41.83451" lon="2.272">
        <ele>646</ele>
        <time>2022-05-21 01:49:58</time>
      </trkpt>
      <trkpt lat="41.83451" lon="2.27204">
        <ele>646</ele>
        <time>2022-05-21 01:49:59</time>
      </trkpt>
      <trkpt lat="41.8345" lon="2.27208">
        <ele>646.2</ele>
        <time>2022-05-21 01:50:00</time>
      </trkpt>
      <trkpt lat="41.8345" lon="2.27212">
        <ele>646.4</ele>
        <time>2022-05-21 01:50:01</time>
      </trkpt>
      <trkpt lat="41.83449" lon="2.27217">
        <ele>646.6</ele>
        <time>2022-05-21 01:50:02</time>
      </trkpt>
      <trkpt lat="41.83448" lon="2.27221">
        <ele>646.8</ele>
        <time>2022-05-21 01:50:03</time>
      </trkpt>
      <trkpt lat="41.83448" lon="2.27225">
        <ele>647</ele>
        <time>2022-05-21 01:50:04</time>
      </trkpt>
      <trkpt lat="41.83448" lon="2.2723">
        <ele>647.2</ele>
        <time>2022-05-21 01:50:05</time>
      </trkpt>
      <trkpt lat="41.83447" lon="2.27234">
        <ele>647.2</ele>
        <time>2022-05-21 01:50:06</time>
      </trkpt>
      <trkpt lat="41.83447" lon="2.27238">
        <ele>647.4</ele>
        <time>2022-05-21 01:50:07</time>
      </trkpt>
      <trkpt lat="41.83447" lon="2.27242">
        <ele>647.6</ele>
        <time>2022-05-21 01:50:08</time>
      </trkpt>
      <trkpt lat="41.83447" lon="2.27246">
        <ele>647.8</ele>
        <time>2022-05-21 01:50:09</time>
      </trkpt>
      <trkpt lat="41.83447" lon="2.2725">
        <ele>648</ele>
        <time>2022-05-21 01:50:10</time>
      </trkpt>
      <trkpt lat="41.83448" lon="2.27255">
        <ele>648.2</ele>
        <time>2022-05-21 01:50:11</time>
      </trkpt>
      <trkpt lat="41.83448" lon="2.27259">
        <ele>648.2</ele>
        <time>2022-05-21 01:50:12</time>
      </trkpt>
      <trkpt lat="41.83448" lon="2.27263">
        <ele>648.4</ele>
        <time>2022-05-21 01:50:13</time>
      </trkpt>
      <trkpt lat="41.83448" lon="2.27268">
        <ele>648.6</ele>
        <time>2022-05-21 01:50:14</time>
      </trkpt>
      <trkpt lat="41.83448" lon="2.27272">
        <ele>648.6</ele>
        <time>2022-05-21 01:50:15</time>
      </trkpt>
      <trkpt lat="41.83449" lon="2.27276">
        <ele>648.8</ele>
        <time>2022-05-21 01:50:16</time>
      </trkpt>
      <trkpt lat="41.8345" lon="2.2728">
        <ele>649</ele>
        <time>2022-05-21 01:50:17</time>
      </trkpt>
      <trkpt lat="41.8345" lon="2.27285">
        <ele>649.2</ele>
        <time>2022-05-21 01:50:18</time>
      </trkpt>
      <trkpt lat="41.8345" lon="2.27289">
        <ele>649.2</ele>
        <time>2022-05-21 01:50:19</time>
      </trkpt>
      <trkpt lat="41.83451" lon="2.27293">
        <ele>649.4</ele>
        <time>2022-05-21 01:50:20</time>
      </trkpt>
      <trkpt lat="41.83451" lon="2.27297">
        <ele>649.6</ele>
        <time>2022-05-21 01:50:21</time>
      </trkpt>
      <trkpt lat="41.83452" lon="2.27301">
        <ele>649.8</ele>
        <time>2022-05-21 01:50:22</time>
      </trkpt>
      <trkpt lat="41.83453" lon="2.27305">
        <ele>650</ele>
        <time>2022-05-21 01:50:23</time>
      </trkpt>
      <trkpt lat="41.83454" lon="2.27309">
        <ele>650.2</ele>
        <time>2022-05-21 01:50:24</time>
      </trkpt>
      <trkpt lat="41.83456" lon="2.27313">
        <ele>650.2</ele>
        <time>2022-05-21 01:50:25</time>
      </trkpt>
      <trkpt lat="41.83457" lon="2.27317">
        <ele>650.4</ele>
        <time>2022-05-21 01:50:26</time>
      </trkpt>
      <trkpt lat="41.83459" lon="2.27321">
        <ele>650.4</ele>
        <time>2022-05-21 01:50:27</time>
      </trkpt>
      <trkpt lat="41.83461" lon="2.27325">
        <ele>650.6</ele>
        <time>2022-05-21 01:50:28</time>
      </trkpt>
      <trkpt lat="41.83463" lon="2.27329">
        <ele>650.6</ele>
        <time>2022-05-21 01:50:29</time>
      </trkpt>
      <trkpt lat="41.83464" lon="2.27333">
        <ele>650.8</ele>
        <time>2022-05-21 01:50:30</time>
      </trkpt>
      <trkpt lat="41.83466" lon="2.27338">
        <ele>650.8</ele>
        <time>2022-05-21 01:50:31</time>
      </trkpt>
      <trkpt lat="41.83467" lon="2.27342">
        <ele>651</ele>
        <time>2022-05-21 01:50:32</time>
      </trkpt>
      <trkpt lat="41.83469" lon="2.27346">
        <ele>651</ele>
        <time>2022-05-21 01:50:33</time>
      </trkpt>
      <trkpt lat="41.83471" lon="2.27351">
        <ele>651.2</ele>
        <time>2022-05-21 01:50:34</time>
      </trkpt>
      <trkpt lat="41.83474" lon="2.27355">
        <ele>651.2</ele>
        <time>2022-05-21 01:50:35</time>
      </trkpt>
      <trkpt lat="41.83476" lon="2.2736">
        <ele>651.2</ele>
        <time>2022-05-21 01:50:36</time>
      </trkpt>
      <trkpt lat="41.83478" lon="2.27365">
        <ele>651.2</ele>
        <time>2022-05-21 01:50:37</time>
      </trkpt>
      <trkpt lat="41.83481" lon="2.2737">
        <ele>651.2</ele>
        <time>2022-05-21 01:50:38</time>
      </trkpt>
      <trkpt lat="41.83484" lon="2.27376">
        <ele>651.2</ele>
        <time>2022-05-21 01:50:39</time>
      </trkpt>
      <trkpt lat="41.83486" lon="2.27381">
        <ele>651.2</ele>
        <time>2022-05-21 01:50:40</time>
      </trkpt>
      <trkpt lat="41.83489" lon="2.27386">
        <ele>651.2</ele>
        <time>2022-05-21 01:50:41</time>
      </trkpt>
      <trkpt lat="41.83492" lon="2.27392">
        <ele>651.2</ele>
        <time>2022-05-21 01:50:42</time>
      </trkpt>
      <trkpt lat="41.83495" lon="2.27398">
        <ele>651.2</ele>
        <time>2022-05-21 01:50:43</time>
      </trkpt>
      <trkpt lat="41.83497" lon="2.27404">
        <ele>651.2</ele>
        <time>2022-05-21 01:50:44</time>
      </trkpt>
      <trkpt lat="41.835" lon="2.2741">
        <ele>651.2</ele>
        <time>2022-05-21 01:50:45</time>
      </trkpt>
      <trkpt lat="41.83503" lon="2.27417">
        <ele>651.2</ele>
        <time>2022-05-21 01:50:46</time>
      </trkpt>
      <trkpt lat="41.83505" lon="2.27423">
        <ele>651</ele>
        <time>2022-05-21 01:50:47</time>
      </trkpt>
      <trkpt lat="41.83508" lon="2.2743">
        <ele>651</ele>
        <time>2022-05-21 01:50:48</time>
      </trkpt>
      <trkpt lat="41.8351" lon="2.27437">
        <ele>651</ele>
        <time>2022-05-21 01:50:49</time>
      </trkpt>
      <trkpt lat="41.83512" lon="2.27444">
        <ele>651</ele>
        <time>2022-05-21 01:50:50</time>
      </trkpt>
      <trkpt lat="41.83514" lon="2.27451">
        <ele>650.8</ele>
        <time>2022-05-21 01:50:51</time>
      </trkpt>
      <trkpt lat="41.83517" lon="2.27458">
        <ele>650.8</ele>
        <time>2022-05-21 01:50:52</time>
      </trkpt>
      <trkpt lat="41.83519" lon="2.27466">
        <ele>650.8</ele>
        <time>2022-05-21 01:50:53</time>
      </trkpt>
      <trkpt lat="41.8352" lon="2.27473">
        <ele>650.8</ele>
        <time>2022-05-21 01:50:54</time>
      </trkpt>
      <trkpt lat="41.83522" lon="2.2748">
        <ele>650.8</ele>
        <time>2022-05-21 01:50:55</time>
      </trkpt>
      <trkpt lat="41.83524" lon="2.27487">
        <ele>650.8</ele>
        <time>2022-05-21 01:50:56</time>
      </trkpt>
      <trkpt lat="41.83525" lon="2.27494">
        <ele>650.6</ele>
        <time>2022-05-21 01:50:57</time>
      </trkpt>
      <trkpt lat="41.83527" lon="2.27501">
        <ele>650.6</ele>
        <time>2022-05-21 01:50:58</time>
      </trkpt>
      <trkpt lat="41.83529" lon="2.27508">
        <ele>650.6</ele>
        <time>2022-05-21 01:50:59</time>
      </trkpt>
      <trkpt lat="41.8353" lon="2.27516">
        <ele>650.6</ele>
        <time>2022-05-21 01:51:00</time>
      </trkpt>
      <trkpt lat="41.83532" lon="2.27523">
        <ele>650.6</ele>
        <time>2022-05-21 01:51:01</time>
      </trkpt>
      <trkpt lat="41.83533" lon="2.2753">
        <ele>650.6</ele>
        <time>2022-05-21 01:51:02</time>
      </trkpt>
      <trkpt lat="41.83535" lon="2.27538">
        <ele>650.6</ele>
        <time>2022-05-21 01:51:03</time>
      </trkpt>
      <trkpt lat="41.83537" lon="2.27545">
        <ele>650.6</ele>
        <time>2022-05-21 01:51:04</time>
      </trkpt>
      <trkpt lat="41.83539" lon="2.27552">
        <ele>650.6</ele>
        <time>2022-05-21 01:51:05</time>
      </trkpt>
      <trkpt lat="41.83541" lon="2.2756">
        <ele>650.6</ele>
        <time>2022-05-21 01:51:06</time>
      </trkpt>
      <trkpt lat="41.83543" lon="2.27567">
        <ele>650.6</ele>
        <time>2022-05-21 01:51:07</time>
      </trkpt>
      <trkpt lat="41.83545" lon="2.27575">
        <ele>650.6</ele>
        <time>2022-05-21 01:51:08</time>
      </trkpt>
      <trkpt lat="41.83547" lon="2.27582">
        <ele>650.6</ele>
        <time>2022-05-21 01:51:09</time>
      </trkpt>
      <trkpt lat="41.83549" lon="2.2759">
        <ele>650.6</ele>
        <time>2022-05-21 01:51:10</time>
      </trkpt>
      <trkpt lat="41.83551" lon="2.27597">
        <ele>650.6</ele>
        <time>2022-05-21 01:51:11</time>
      </trkpt>
      <trkpt lat="41.83553" lon="2.27605">
        <ele>650.8</ele>
        <time>2022-05-21 01:51:12</time>
      </trkpt>
      <trkpt lat="41.83555" lon="2.27612">
        <ele>650.8</ele>
        <time>2022-05-21 01:51:13</time>
      </trkpt>
      <trkpt lat="41.83557" lon="2.27619">
        <ele>650.8</ele>
        <time>2022-05-21 01:51:14</time>
      </trkpt>
      <trkpt lat="41.83559" lon="2.27626">
        <ele>650.8</ele>
        <time>2022-05-21 01:51:15</time>
      </trkpt>
      <trkpt lat="41.83561" lon="2.27633">
        <ele>650.8</ele>
        <time>2022-05-21 01:51:16</time>
      </trkpt>
      <trkpt lat="41.83564" lon="2.2764">
        <ele>651</ele>
        <time>2022-05-21 01:51:17</time>
      </trkpt>
      <trkpt lat="41.83566" lon="2.27647">
        <ele>651</ele>
        <time>2022-05-21 01:51:18</time>
      </trkpt>
      <trkpt lat="41.83569" lon="2.27654">
        <ele>651.2</ele>
        <time>2022-05-21 01:51:19</time>
      </trkpt>
      <trkpt lat="41.83571" lon="2.27661">
        <ele>651.4</ele>
        <time>2022-05-21 01:51:20</time>
      </trkpt>
      <trkpt lat="41.83573" lon="2.27668">
        <ele>651.4</ele>
        <time>2022-05-21 01:51:21</time>
      </trkpt>
      <trkpt lat="41.83575" lon="2.27675">
        <ele>651.6</ele>
        <time>2022-05-21 01:51:22</time>
      </trkpt>
      <trkpt lat="41.83578" lon="2.27682">
        <ele>651.6</ele>
        <time>2022-05-21 01:51:23</time>
      </trkpt>
      <trkpt lat="41.8358" lon="2.27689">
        <ele>651.8</ele>
        <time>2022-05-21 01:51:24</time>
      </trkpt>
      <trkpt lat="41.83582" lon="2.27696">
        <ele>651.8</ele>
        <time>2022-05-21 01:51:25</time>
      </trkpt>
      <trkpt lat="41.83585" lon="2.27703">
        <ele>652</ele>
        <time>2022-05-21 01:51:26</time>
      </trkpt>
      <trkpt lat="41.83587" lon="2.27709">
        <ele>652</ele>
        <time>2022-05-21 01:51:27</time>
      </trkpt>
      <trkpt lat="41.8359" lon="2.27716">
        <ele>652.2</ele>
        <time>2022-05-21 01:51:28</time>
      </trkpt>
      <trkpt lat="41.83592" lon="2.27723">
        <ele>652.4</ele>
        <time>2022-05-21 01:51:29</time>
      </trkpt>
      <trkpt lat="41.83594" lon="2.27729">
        <ele>652.6</ele>
        <time>2022-05-21 01:51:30</time>
      </trkpt>
      <trkpt lat="41.83597" lon="2.27737">
        <ele>652.6</ele>
        <time>2022-05-21 01:51:31</time>
      </trkpt>
      <trkpt lat="41.83599" lon="2.27744">
        <ele>652.8</ele>
        <time>2022-05-21 01:51:32</time>
      </trkpt>
      <trkpt lat="41.83602" lon="2.27751">
        <ele>652.8</ele>
        <time>2022-05-21 01:51:33</time>
      </trkpt>
      <trkpt lat="41.83604" lon="2.27758">
        <ele>653</ele>
        <time>2022-05-21 01:51:34</time>
      </trkpt>
      <trkpt lat="41.83606" lon="2.27765">
        <ele>653</ele>
        <time>2022-05-21 01:51:35</time>
      </trkpt>
      <trkpt lat="41.83609" lon="2.27772">
        <ele>653</ele>
        <time>2022-05-21 01:51:36</time>
      </trkpt>
      <trkpt lat="41.83611" lon="2.27779">
        <ele>653.2</ele>
        <time>2022-05-21 01:51:37</time>
      </trkpt>
      <trkpt lat="41.83614" lon="2.27786">
        <ele>653.2</ele>
        <time>2022-05-21 01:51:38</time>
      </trkpt>
      <trkpt lat="41.83616" lon="2.27793">
        <ele>653.4</ele>
        <time>2022-05-21 01:51:39</time>
      </trkpt>
      <trkpt lat="41.83618" lon="2.278">
        <ele>653.4</ele>
        <time>2022-05-21 01:51:40</time>
      </trkpt>
      <trkpt lat="41.83621" lon="2.27806">
        <ele>653.6</ele>
        <time>2022-05-21 01:51:41</time>
      </trkpt>
      <trkpt lat="41.83623" lon="2.27813">
        <ele>653.6</ele>
        <time>2022-05-21 01:51:42</time>
      </trkpt>
      <trkpt lat="41.83625" lon="2.2782">
        <ele>653.6</ele>
        <time>2022-05-21 01:51:43</time>
      </trkpt>
      <trkpt lat="41.83627" lon="2.27827">
        <ele>653.8</ele>
        <time>2022-05-21 01:51:44</time>
      </trkpt>
      <trkpt lat="41.83629" lon="2.27834">
        <ele>653.8</ele>
        <time>2022-05-21 01:51:45</time>
      </trkpt>
      <trkpt lat="41.83629" lon="2.27841">
        <ele>653.8</ele>
        <time>2022-05-21 01:51:46</time>
      </trkpt>
      <trkpt lat="41.83629" lon="2.27848">
        <ele>654</ele>
        <time>2022-05-21 01:51:47</time>
      </trkpt>
      <trkpt lat="41.83628" lon="2.27856">
        <ele>654</ele>
        <time>2022-05-21 01:51:48</time>
      </trkpt>
      <trkpt lat="41.83627" lon="2.27863">
        <ele>654</ele>
        <time>2022-05-21 01:51:49</time>
      </trkpt>
      <trkpt lat="41.83627" lon="2.27871">
        <ele>654.2</ele>
        <time>2022-05-21 01:51:50</time>
      </trkpt>
      <trkpt lat="41.83628" lon="2.27878">
        <ele>654.2</ele>
        <time>2022-05-21 01:51:51</time>
      </trkpt>
      <trkpt lat="41.8363" lon="2.27883">
        <ele>654.2</ele>
        <time>2022-05-21 01:51:52</time>
      </trkpt>
      <trkpt lat="41.83634" lon="2.27888">
        <ele>654.4</ele>
        <time>2022-05-21 01:51:53</time>
      </trkpt>
      <trkpt lat="41.83638" lon="2.27892">
        <ele>654.4</ele>
        <time>2022-05-21 01:51:54</time>
      </trkpt>
      <trkpt lat="41.83643" lon="2.27897">
        <ele>654.4</ele>
        <time>2022-05-21 01:51:55</time>
      </trkpt>
      <trkpt lat="41.83648" lon="2.27902">
        <ele>654.4</ele>
        <time>2022-05-21 01:51:56</time>
      </trkpt>
      <trkpt lat="41.83652" lon="2.27908">
        <ele>654.4</ele>
        <time>2022-05-21 01:51:57</time>
      </trkpt>
      <trkpt lat="41.83656" lon="2.27914">
        <ele>654.4</ele>
        <time>2022-05-21 01:51:58</time>
      </trkpt>
      <trkpt lat="41.83659" lon="2.27921">
        <ele>654.4</ele>
        <time>2022-05-21 01:51:59</time>
      </trkpt>
      <trkpt lat="41.83662" lon="2.27928">
        <ele>654.4</ele>
        <time>2022-05-21 01:52:00</time>
      </trkpt>
      <trkpt lat="41.83665" lon="2.27935">
        <ele>654.6</ele>
        <time>2022-05-21 01:52:01</time>
      </trkpt>
      <trkpt lat="41.83668" lon="2.27942">
        <ele>654.6</ele>
        <time>2022-05-21 01:52:02</time>
      </trkpt>
      <trkpt lat="41.83671" lon="2.27948">
        <ele>654.8</ele>
        <time>2022-05-21 01:52:03</time>
      </trkpt>
      <trkpt lat="41.83673" lon="2.27955">
        <ele>655</ele>
        <time>2022-05-21 01:52:04</time>
      </trkpt>
      <trkpt lat="41.83675" lon="2.27962">
        <ele>655.2</ele>
        <time>2022-05-21 01:52:05</time>
      </trkpt>
      <trkpt lat="41.83678" lon="2.27968">
        <ele>655.2</ele>
        <time>2022-05-21 01:52:06</time>
      </trkpt>
      <trkpt lat="41.8368" lon="2.27975">
        <ele>655.4</ele>
        <time>2022-05-21 01:52:07</time>
      </trkpt>
      <trkpt lat="41.83682" lon="2.27981">
        <ele>655.6</ele>
        <time>2022-05-21 01:52:08</time>
      </trkpt>
      <trkpt lat="41.83684" lon="2.27988">
        <ele>655.8</ele>
        <time>2022-05-21 01:52:09</time>
      </trkpt>
      <trkpt lat="41.83686" lon="2.27994">
        <ele>655.8</ele>
        <time>2022-05-21 01:52:10</time>
      </trkpt>
      <trkpt lat="41.83688" lon="2.28">
        <ele>656</ele>
        <time>2022-05-21 01:52:11</time>
      </trkpt>
      <trkpt lat="41.8369" lon="2.28005">
        <ele>656.2</ele>
        <time>2022-05-21 01:52:12</time>
      </trkpt>
      <trkpt lat="41.83692" lon="2.2801">
        <ele>656.4</ele>
        <time>2022-05-21 01:52:13</time>
      </trkpt>
      <trkpt lat="41.83694" lon="2.28015">
        <ele>656.6</ele>
        <time>2022-05-21 01:52:14</time>
      </trkpt>
      <trkpt lat="41.83696" lon="2.2802">
        <ele>656.8</ele>
        <time>2022-05-21 01:52:15</time>
      </trkpt>
      <trkpt lat="41.83698" lon="2.28025">
        <ele>657</ele>
        <time>2022-05-21 01:52:16</time>
      </trkpt>
      <trkpt lat="41.837" lon="2.28031">
        <ele>657.2</ele>
        <time>2022-05-21 01:52:17</time>
      </trkpt>
      <trkpt lat="41.83702" lon="2.28036">
        <ele>657.4</ele>
        <time>2022-05-21 01:52:18</time>
      </trkpt>
      <trkpt lat="41.83705" lon="2.28041">
        <ele>657.6</ele>
        <time>2022-05-21 01:52:19</time>
      </trkpt>
      <trkpt lat="41.83707" lon="2.28046">
        <ele>657.8</ele>
        <time>2022-05-21 01:52:20</time>
      </trkpt>
      <trkpt lat="41.8371" lon="2.28051">
        <ele>658</ele>
        <time>2022-05-21 01:52:21</time>
      </trkpt>
      <trkpt lat="41.83712" lon="2.28056">
        <ele>658.2</ele>
        <time>2022-05-21 01:52:22</time>
      </trkpt>
      <trkpt lat="41.83715" lon="2.28061">
        <ele>658.4</ele>
        <time>2022-05-21 01:52:23</time>
      </trkpt>
      <trkpt lat="41.83718" lon="2.28066">
        <ele>658.6</ele>
        <time>2022-05-21 01:52:24</time>
      </trkpt>
      <trkpt lat="41.8372" lon="2.28071">
        <ele>658.6</ele>
        <time>2022-05-21 01:52:25</time>
      </trkpt>
      <trkpt lat="41.83722" lon="2.28076">
        <ele>658.8</ele>
        <time>2022-05-21 01:52:26</time>
      </trkpt>
      <trkpt lat="41.83723" lon="2.2808">
        <ele>659</ele>
        <time>2022-05-21 01:52:27</time>
      </trkpt>
      <trkpt lat="41.83725" lon="2.28085">
        <ele>659.2</ele>
        <time>2022-05-21 01:52:28</time>
      </trkpt>
      <trkpt lat="41.83727" lon="2.28089">
        <ele>659.4</ele>
        <time>2022-05-21 01:52:29</time>
      </trkpt>
      <trkpt lat="41.83728" lon="2.28093">
        <ele>659.6</ele>
        <time>2022-05-21 01:52:30</time>
      </trkpt>
      <trkpt lat="41.8373" lon="2.28098">
        <ele>659.8</ele>
        <time>2022-05-21 01:52:31</time>
      </trkpt>
      <trkpt lat="41.83732" lon="2.28102">
        <ele>659.8</ele>
        <time>2022-05-21 01:52:32</time>
      </trkpt>
      <trkpt lat="41.83734" lon="2.28107">
        <ele>660</ele>
        <time>2022-05-21 01:52:33</time>
      </trkpt>
      <trkpt lat="41.83736" lon="2.28111">
        <ele>660.2</ele>
        <time>2022-05-21 01:52:34</time>
      </trkpt>
      <trkpt lat="41.83738" lon="2.28116">
        <ele>660.2</ele>
        <time>2022-05-21 01:52:35</time>
      </trkpt>
      <trkpt lat="41.8374" lon="2.2812">
        <ele>660.4</ele>
        <time>2022-05-21 01:52:36</time>
      </trkpt>
      <trkpt lat="41.83742" lon="2.28125">
        <ele>660.6</ele>
        <time>2022-05-21 01:52:37</time>
      </trkpt>
      <trkpt lat="41.83745" lon="2.2813">
        <ele>660.8</ele>
        <time>2022-05-21 01:52:38</time>
      </trkpt>
      <trkpt lat="41.83747" lon="2.28135">
        <ele>660.8</ele>
        <time>2022-05-21 01:52:39</time>
      </trkpt>
      <trkpt lat="41.83749" lon="2.2814">
        <ele>661</ele>
        <time>2022-05-21 01:52:40</time>
      </trkpt>
      <trkpt lat="41.83751" lon="2.28144">
        <ele>661.2</ele>
        <time>2022-05-21 01:52:41</time>
      </trkpt>
      <trkpt lat="41.83753" lon="2.28149">
        <ele>661.2</ele>
        <time>2022-05-21 01:52:42</time>
      </trkpt>
      <trkpt lat="41.83755" lon="2.28154">
        <ele>661.4</ele>
        <time>2022-05-21 01:52:43</time>
      </trkpt>
      <trkpt lat="41.83757" lon="2.28158">
        <ele>661.6</ele>
        <time>2022-05-21 01:52:44</time>
      </trkpt>
      <trkpt lat="41.83758" lon="2.28161">
        <ele>661.6</ele>
        <time>2022-05-21 01:52:45</time>
      </trkpt>
      <trkpt lat="41.8376" lon="2.28165">
        <ele>661.8</ele>
        <time>2022-05-21 01:52:46</time>
      </trkpt>
      <trkpt lat="41.83762" lon="2.28169">
        <ele>661.8</ele>
        <time>2022-05-21 01:52:47</time>
      </trkpt>
      <trkpt lat="41.83763" lon="2.28173">
        <ele>662</ele>
        <time>2022-05-21 01:52:48</time>
      </trkpt>
      <trkpt lat="41.83765" lon="2.28176">
        <ele>662</ele>
        <time>2022-05-21 01:52:49</time>
      </trkpt>
      <trkpt lat="41.83767" lon="2.2818">
        <ele>662.2</ele>
        <time>2022-05-21 01:52:50</time>
      </trkpt>
      <trkpt lat="41.83769" lon="2.28185">
        <ele>662.2</ele>
        <time>2022-05-21 01:52:51</time>
      </trkpt>
      <trkpt lat="41.83771" lon="2.28189">
        <ele>662.4</ele>
        <time>2022-05-21 01:52:52</time>
      </trkpt>
      <trkpt lat="41.83772" lon="2.28193">
        <ele>662.6</ele>
        <time>2022-05-21 01:52:53</time>
      </trkpt>
      <trkpt lat="41.83773" lon="2.28197">
        <ele>662.6</ele>
        <time>2022-05-21 01:52:54</time>
      </trkpt>
      <trkpt lat="41.83775" lon="2.28201">
        <ele>662.8</ele>
        <time>2022-05-21 01:52:55</time>
      </trkpt>
      <trkpt lat="41.83777" lon="2.28206">
        <ele>662.8</ele>
        <time>2022-05-21 01:52:56</time>
      </trkpt>
      <trkpt lat="41.83779" lon="2.2821">
        <ele>663</ele>
        <time>2022-05-21 01:52:57</time>
      </trkpt>
      <trkpt lat="41.83781" lon="2.28215">
        <ele>663</ele>
        <time>2022-05-21 01:52:58</time>
      </trkpt>
      <trkpt lat="41.83783" lon="2.2822">
        <ele>663.2</ele>
        <time>2022-05-21 01:52:59</time>
      </trkpt>
      <trkpt lat="41.83785" lon="2.28226">
        <ele>663.2</ele>
        <time>2022-05-21 01:53:00</time>
      </trkpt>
      <trkpt lat="41.83787" lon="2.28231">
        <ele>663.4</ele>
        <time>2022-05-21 01:53:01</time>
      </trkpt>
      <trkpt lat="41.83789" lon="2.28236">
        <ele>663.4</ele>
        <time>2022-05-21 01:53:02</time>
      </trkpt>
      <trkpt lat="41.83791" lon="2.28241">
        <ele>663.6</ele>
        <time>2022-05-21 01:53:03</time>
      </trkpt>
      <trkpt lat="41.83793" lon="2.28246">
        <ele>663.6</ele>
        <time>2022-05-21 01:53:04</time>
      </trkpt>
      <trkpt lat="41.83794" lon="2.28251">
        <ele>663.8</ele>
        <time>2022-05-21 01:53:05</time>
      </trkpt>
      <trkpt lat="41.83796" lon="2.28256">
        <ele>664</ele>
        <time>2022-05-21 01:53:06</time>
      </trkpt>
      <trkpt lat="41.83799" lon="2.28261">
        <ele>664.2</ele>
        <time>2022-05-21 01:53:07</time>
      </trkpt>
      <trkpt lat="41.83801" lon="2.28267">
        <ele>664.2</ele>
        <time>2022-05-21 01:53:08</time>
      </trkpt>
      <trkpt lat="41.83804" lon="2.28272">
        <ele>664.4</ele>
        <time>2022-05-21 01:53:09</time>
      </trkpt>
      <trkpt lat="41.83806" lon="2.28277">
        <ele>664.6</ele>
        <time>2022-05-21 01:53:10</time>
      </trkpt>
      <trkpt lat="41.83808" lon="2.28282">
        <ele>664.6</ele>
        <time>2022-05-21 01:53:11</time>
      </trkpt>
      <trkpt lat="41.8381" lon="2.28287">
        <ele>664.8</ele>
        <time>2022-05-21 01:53:12</time>
      </trkpt>
      <trkpt lat="41.83811" lon="2.28292">
        <ele>664.8</ele>
        <time>2022-05-21 01:53:13</time>
      </trkpt>
      <trkpt lat="41.83813" lon="2.28297">
        <ele>665</ele>
        <time>2022-05-21 01:53:14</time>
      </trkpt>
      <trkpt lat="41.83815" lon="2.28303">
        <ele>665.2</ele>
        <time>2022-05-21 01:53:15</time>
      </trkpt>
      <trkpt lat="41.83818" lon="2.28308">
        <ele>665.2</ele>
        <time>2022-05-21 01:53:16</time>
      </trkpt>
      <trkpt lat="41.8382" lon="2.28314">
        <ele>665.4</ele>
        <time>2022-05-21 01:53:17</time>
      </trkpt>
      <trkpt lat="41.83821" lon="2.28319">
        <ele>665.6</ele>
        <time>2022-05-21 01:53:18</time>
      </trkpt>
      <trkpt lat="41.83823" lon="2.28324">
        <ele>665.6</ele>
        <time>2022-05-21 01:53:19</time>
      </trkpt>
      <trkpt lat="41.83824" lon="2.28329">
        <ele>665.8</ele>
        <time>2022-05-21 01:53:20</time>
      </trkpt>
      <trkpt lat="41.83826" lon="2.28334">
        <ele>665.8</ele>
        <time>2022-05-21 01:53:21</time>
      </trkpt>
      <trkpt lat="41.83828" lon="2.28339">
        <ele>666</ele>
        <time>2022-05-21 01:53:22</time>
      </trkpt>
      <trkpt lat="41.8383" lon="2.28343">
        <ele>666.2</ele>
        <time>2022-05-21 01:53:23</time>
      </trkpt>
      <trkpt lat="41.83832" lon="2.28349">
        <ele>666.4</ele>
        <time>2022-05-21 01:53:24</time>
      </trkpt>
      <trkpt lat="41.83834" lon="2.28354">
        <ele>666.4</ele>
        <time>2022-05-21 01:53:25</time>
      </trkpt>
      <trkpt lat="41.83836" lon="2.28359">
        <ele>666.6</ele>
        <time>2022-05-21 01:53:26</time>
      </trkpt>
      <trkpt lat="41.83837" lon="2.28365">
        <ele>666.8</ele>
        <time>2022-05-21 01:53:27</time>
      </trkpt>
      <trkpt lat="41.8384" lon="2.2837">
        <ele>666.8</ele>
        <time>2022-05-21 01:53:28</time>
      </trkpt>
      <trkpt lat="41.83842" lon="2.28376">
        <ele>667</ele>
        <time>2022-05-21 01:53:29</time>
      </trkpt>
      <trkpt lat="41.83844" lon="2.28381">
        <ele>667</ele>
        <time>2022-05-21 01:53:30</time>
      </trkpt>
      <trkpt lat="41.83847" lon="2.28386">
        <ele>667.2</ele>
        <time>2022-05-21 01:53:31</time>
      </trkpt>
      <trkpt lat="41.83849" lon="2.28392">
        <ele>667.4</ele>
        <time>2022-05-21 01:53:32</time>
      </trkpt>
      <trkpt lat="41.83851" lon="2.28397">
        <ele>667.6</ele>
        <time>2022-05-21 01:53:33</time>
      </trkpt>
      <trkpt lat="41.83853" lon="2.28401">
        <ele>667.6</ele>
        <time>2022-05-21 01:53:34</time>
      </trkpt>
      <trkpt lat="41.83855" lon="2.28406">
        <ele>667.8</ele>
        <time>2022-05-21 01:53:35</time>
      </trkpt>
      <trkpt lat="41.83857" lon="2.28411">
        <ele>667.8</ele>
        <time>2022-05-21 01:53:36</time>
      </trkpt>
      <trkpt lat="41.83859" lon="2.28416">
        <ele>668</ele>
        <time>2022-05-21 01:53:37</time>
      </trkpt>
      <trkpt lat="41.83861" lon="2.28422">
        <ele>668</ele>
        <time>2022-05-21 01:53:38</time>
      </trkpt>
      <trkpt lat="41.83863" lon="2.28427">
        <ele>668.2</ele>
        <time>2022-05-21 01:53:39</time>
      </trkpt>
      <trkpt lat="41.83865" lon="2.28432">
        <ele>668.2</ele>
        <time>2022-05-21 01:53:40</time>
      </trkpt>
      <trkpt lat="41.83866" lon="2.28438">
        <ele>668.4</ele>
        <time>2022-05-21 01:53:41</time>
      </trkpt>
      <trkpt lat="41.83868" lon="2.28443">
        <ele>668.6</ele>
        <time>2022-05-21 01:53:42</time>
      </trkpt>
      <trkpt lat="41.8387" lon="2.28448">
        <ele>668.6</ele>
        <time>2022-05-21 01:53:43</time>
      </trkpt>
      <trkpt lat="41.83871" lon="2.28454">
        <ele>668.8</ele>
        <time>2022-05-21 01:53:44</time>
      </trkpt>
      <trkpt lat="41.83872" lon="2.28459">
        <ele>668.8</ele>
        <time>2022-05-21 01:53:45</time>
      </trkpt>
      <trkpt lat="41.83873" lon="2.28464">
        <ele>669</ele>
        <time>2022-05-21 01:53:46</time>
      </trkpt>
      <trkpt lat="41.83873" lon="2.28468">
        <ele>669</ele>
        <time>2022-05-21 01:53:47</time>
      </trkpt>
      <trkpt lat="41.83875" lon="2.28474">
        <ele>669</ele>
        <time>2022-05-21 01:53:48</time>
      </trkpt>
      <trkpt lat="41.83875" lon="2.28479">
        <ele>669.2</ele>
        <time>2022-05-21 01:53:49</time>
      </trkpt>
      <trkpt lat="41.83876" lon="2.28484">
        <ele>669.2</ele>
        <time>2022-05-21 01:53:50</time>
      </trkpt>
      <trkpt lat="41.83878" lon="2.2849">
        <ele>669.2</ele>
        <time>2022-05-21 01:53:51</time>
      </trkpt>
      <trkpt lat="41.83879" lon="2.28497">
        <ele>669.4</ele>
        <time>2022-05-21 01:53:52</time>
      </trkpt>
      <trkpt lat="41.8388" lon="2.28503">
        <ele>669.4</ele>
        <time>2022-05-21 01:53:53</time>
      </trkpt>
      <trkpt lat="41.83881" lon="2.28509">
        <ele>669.6</ele>
        <time>2022-05-21 01:53:54</time>
      </trkpt>
      <trkpt lat="41.83883" lon="2.28515">
        <ele>669.6</ele>
        <time>2022-05-21 01:53:55</time>
      </trkpt>
      <trkpt lat="41.83883" lon="2.28522">
        <ele>669.6</ele>
        <time>2022-05-21 01:53:56</time>
      </trkpt>
      <trkpt lat="41.83884" lon="2.28529">
        <ele>669.6</ele>
        <time>2022-05-21 01:53:57</time>
      </trkpt>
      <trkpt lat="41.83886" lon="2.28535">
        <ele>669.6</ele>
        <time>2022-05-21 01:53:58</time>
      </trkpt>
      <trkpt lat="41.83886" lon="2.28542">
        <ele>669.6</ele>
        <time>2022-05-21 01:53:59</time>
      </trkpt>
      <trkpt lat="41.83889" lon="2.2855">
        <ele>669.6</ele>
        <time>2022-05-21 01:54:00</time>
      </trkpt>
      <trkpt lat="41.83892" lon="2.28561">
        <ele>669.4</ele>
        <time>2022-05-21 01:54:01</time>
      </trkpt>
      <trkpt lat="41.83896" lon="2.28571">
        <ele>669.4</ele>
        <time>2022-05-21 01:54:02</time>
      </trkpt>
      <trkpt lat="41.839" lon="2.28581">
        <ele>669.4</ele>
        <time>2022-05-21 01:54:03</time>
      </trkpt>
      <trkpt lat="41.83898" lon="2.28587">
        <ele>669.2</ele>
        <time>2022-05-21 01:54:04</time>
      </trkpt>
      <trkpt lat="41.83896" lon="2.28594">
        <ele>669.2</ele>
        <time>2022-05-21 01:54:05</time>
      </trkpt>
      <trkpt lat="41.83895" lon="2.28602">
        <ele>669.2</ele>
        <time>2022-05-21 01:54:06</time>
      </trkpt>
      <trkpt lat="41.83894" lon="2.2861">
        <ele>669</ele>
        <time>2022-05-21 01:54:07</time>
      </trkpt>
      <trkpt lat="41.83894" lon="2.28619">
        <ele>668.8</ele>
        <time>2022-05-21 01:54:08</time>
      </trkpt>
      <trkpt lat="41.83895" lon="2.28628">
        <ele>668.6</ele>
        <time>2022-05-21 01:54:09</time>
      </trkpt>
      <trkpt lat="41.83896" lon="2.28637">
        <ele>668.4</ele>
        <time>2022-05-21 01:54:10</time>
      </trkpt>
      <trkpt lat="41.83897" lon="2.28646">
        <ele>668</ele>
        <time>2022-05-21 01:54:11</time>
      </trkpt>
      <trkpt lat="41.83896" lon="2.28655">
        <ele>667.6</ele>
        <time>2022-05-21 01:54:12</time>
      </trkpt>
      <trkpt lat="41.83896" lon="2.28664">
        <ele>667.4</ele>
        <time>2022-05-21 01:54:13</time>
      </trkpt>
      <trkpt lat="41.83895" lon="2.28673">
        <ele>667</ele>
        <time>2022-05-21 01:54:14</time>
      </trkpt>
      <trkpt lat="41.83895" lon="2.28683">
        <ele>666.8</ele>
        <time>2022-05-21 01:54:15</time>
      </trkpt>
      <trkpt lat="41.83895" lon="2.28693">
        <ele>666.4</ele>
        <time>2022-05-21 01:54:16</time>
      </trkpt>
      <trkpt lat="41.83896" lon="2.28702">
        <ele>666.2</ele>
        <time>2022-05-21 01:54:17</time>
      </trkpt>
      <trkpt lat="41.83897" lon="2.28712">
        <ele>665.8</ele>
        <time>2022-05-21 01:54:18</time>
      </trkpt>
      <trkpt lat="41.83898" lon="2.28723">
        <ele>665.6</ele>
        <time>2022-05-21 01:54:19</time>
      </trkpt>
      <trkpt lat="41.83898" lon="2.28733">
        <ele>665.4</ele>
        <time>2022-05-21 01:54:20</time>
      </trkpt>
      <trkpt lat="41.83897" lon="2.28743">
        <ele>665.2</ele>
        <time>2022-05-21 01:54:21</time>
      </trkpt>
      <trkpt lat="41.83896" lon="2.28753">
        <ele>665</ele>
        <time>2022-05-21 01:54:22</time>
      </trkpt>
      <trkpt lat="41.83897" lon="2.28762">
        <ele>665</ele>
        <time>2022-05-21 01:54:23</time>
      </trkpt>
      <trkpt lat="41.83901" lon="2.28768">
        <ele>664.8</ele>
        <time>2022-05-21 01:54:24</time>
      </trkpt>
      <trkpt lat="41.83908" lon="2.28771">
        <ele>664.8</ele>
        <time>2022-05-21 01:54:25</time>
      </trkpt>
      <trkpt lat="41.83915" lon="2.2877">
        <ele>664.6</ele>
        <time>2022-05-21 01:54:26</time>
      </trkpt>
      <trkpt lat="41.83921" lon="2.28766">
        <ele>664.4</ele>
        <time>2022-05-21 01:54:27</time>
      </trkpt>
      <trkpt lat="41.83928" lon="2.28761">
        <ele>664.2</ele>
        <time>2022-05-21 01:54:28</time>
      </trkpt>
      <trkpt lat="41.83935" lon="2.28758">
        <ele>664</ele>
        <time>2022-05-21 01:54:29</time>
      </trkpt>
      <trkpt lat="41.83942" lon="2.28758">
        <ele>663.6</ele>
        <time>2022-05-21 01:54:30</time>
      </trkpt>
      <trkpt lat="41.8395" lon="2.28758">
        <ele>663.2</ele>
        <time>2022-05-21 01:54:31</time>
      </trkpt>
      <trkpt lat="41.83957" lon="2.28759">
        <ele>663</ele>
        <time>2022-05-21 01:54:32</time>
      </trkpt>
      <trkpt lat="41.83965" lon="2.28761">
        <ele>662.6</ele>
        <time>2022-05-21 01:54:33</time>
      </trkpt>
      <trkpt lat="41.83974" lon="2.28762">
        <ele>662.2</ele>
        <time>2022-05-21 01:54:34</time>
      </trkpt>
      <trkpt lat="41.83982" lon="2.28763">
        <ele>662</ele>
        <time>2022-05-21 01:54:35</time>
      </trkpt>
      <trkpt lat="41.83991" lon="2.28765">
        <ele>661.6</ele>
        <time>2022-05-21 01:54:36</time>
      </trkpt>
      <trkpt lat="41.84" lon="2.28767">
        <ele>661.2</ele>
        <time>2022-05-21 01:54:37</time>
      </trkpt>
      <trkpt lat="41.84008" lon="2.28769">
        <ele>660.8</ele>
        <time>2022-05-21 01:54:38</time>
      </trkpt>
      <trkpt lat="41.84017" lon="2.28772">
        <ele>660.4</ele>
        <time>2022-05-21 01:54:39</time>
      </trkpt>
      <trkpt lat="41.84025" lon="2.28775">
        <ele>660</ele>
        <time>2022-05-21 01:54:40</time>
      </trkpt>
      <trkpt lat="41.84034" lon="2.28778">
        <ele>659.6</ele>
        <time>2022-05-21 01:54:41</time>
      </trkpt>
      <trkpt lat="41.84043" lon="2.28783">
        <ele>659.2</ele>
        <time>2022-05-21 01:54:42</time>
      </trkpt>
      <trkpt lat="41.84052" lon="2.28789">
        <ele>658.8</ele>
        <time>2022-05-21 01:54:43</time>
      </trkpt>
      <trkpt lat="41.8406" lon="2.28796">
        <ele>658.4</ele>
        <time>2022-05-21 01:54:44</time>
      </trkpt>
      <trkpt lat="41.84066" lon="2.28805">
        <ele>658</ele>
        <time>2022-05-21 01:54:45</time>
      </trkpt>
      <trkpt lat="41.84072" lon="2.28814">
        <ele>657.8</ele>
        <time>2022-05-21 01:54:46</time>
      </trkpt>
      <trkpt lat="41.84078" lon="2.28824">
        <ele>657.4</ele>
        <time>2022-05-21 01:54:47</time>
      </trkpt>
      <trkpt lat="41.84084" lon="2.28835">
        <ele>657</ele>
        <time>2022-05-21 01:54:48</time>
      </trkpt>
      <trkpt lat="41.84089" lon="2.28847">
        <ele>656.6</ele>
        <time>2022-05-21 01:54:49</time>
      </trkpt>
      <trkpt lat="41.84095" lon="2.28858">
        <ele>656.2</ele>
        <time>2022-05-21 01:54:50</time>
      </trkpt>
      <trkpt lat="41.841" lon="2.28868">
        <ele>655.8</ele>
        <time>2022-05-21 01:54:51</time>
      </trkpt>
      <trkpt lat="41.84106" lon="2.28879">
        <ele>655.4</ele>
        <time>2022-05-21 01:54:52</time>
      </trkpt>
      <trkpt lat="41.84113" lon="2.28889">
        <ele>655.2</ele>
        <time>2022-05-21 01:54:53</time>
      </trkpt>
      <trkpt lat="41.84119" lon="2.28897">
        <ele>654.8</ele>
        <time>2022-05-21 01:54:54</time>
      </trkpt>
      <trkpt lat="41.84126" lon="2.28904">
        <ele>654.6</ele>
        <time>2022-05-21 01:54:55</time>
      </trkpt>
      <trkpt lat="41.84134" lon="2.28909">
        <ele>654.4</ele>
        <time>2022-05-21 01:54:56</time>
      </trkpt>
      <trkpt lat="41.84142" lon="2.28912">
        <ele>654.2</ele>
        <time>2022-05-21 01:54:57</time>
      </trkpt>
      <trkpt lat="41.84151" lon="2.28915">
        <ele>654</ele>
        <time>2022-05-21 01:54:58</time>
      </trkpt>
      <trkpt lat="41.8416" lon="2.28917">
        <ele>654</ele>
        <time>2022-05-21 01:54:59</time>
      </trkpt>
      <trkpt lat="41.84169" lon="2.28919">
        <ele>653.8</ele>
        <time>2022-05-21 01:55:00</time>
      </trkpt>
      <trkpt lat="41.84178" lon="2.28921">
        <ele>653.8</ele>
        <time>2022-05-21 01:55:01</time>
      </trkpt>
      <trkpt lat="41.84187" lon="2.28923">
        <ele>653.6</ele>
        <time>2022-05-21 01:55:02</time>
      </trkpt>
      <trkpt lat="41.84196" lon="2.28924">
        <ele>653.6</ele>
        <time>2022-05-21 01:55:03</time>
      </trkpt>
      <trkpt lat="41.84204" lon="2.28926">
        <ele>653.4</ele>
        <time>2022-05-21 01:55:04</time>
      </trkpt>
      <trkpt lat="41.84213" lon="2.28928">
        <ele>653.4</ele>
        <time>2022-05-21 01:55:05</time>
      </trkpt>
      <trkpt lat="41.84222" lon="2.2893">
        <ele>653.4</ele>
        <time>2022-05-21 01:55:06</time>
      </trkpt>
      <trkpt lat="41.8423" lon="2.28931">
        <ele>653.2</ele>
        <time>2022-05-21 01:55:07</time>
      </trkpt>
      <trkpt lat="41.84238" lon="2.28933">
        <ele>653.2</ele>
        <time>2022-05-21 01:55:08</time>
      </trkpt>
      <trkpt lat="41.84247" lon="2.28935">
        <ele>653.2</ele>
        <time>2022-05-21 01:55:09</time>
      </trkpt>
      <trkpt lat="41.84255" lon="2.28936">
        <ele>653</ele>
        <time>2022-05-21 01:55:10</time>
      </trkpt>
      <trkpt lat="41.84263" lon="2.28938">
        <ele>653</ele>
        <time>2022-05-21 01:55:11</time>
      </trkpt>
      <trkpt lat="41.84271" lon="2.28941">
        <ele>653</ele>
        <time>2022-05-21 01:55:12</time>
      </trkpt>
      <trkpt lat="41.84278" lon="2.28943">
        <ele>652.8</ele>
        <time>2022-05-21 01:55:13</time>
      </trkpt>
      <trkpt lat="41.84286" lon="2.28947">
        <ele>652.8</ele>
        <time>2022-05-21 01:55:14</time>
      </trkpt>
      <trkpt lat="41.84293" lon="2.2895">
        <ele>652.8</ele>
        <time>2022-05-21 01:55:15</time>
      </trkpt>
      <trkpt lat="41.84301" lon="2.28954">
        <ele>652.8</ele>
        <time>2022-05-21 01:55:16</time>
      </trkpt>
      <trkpt lat="41.84308" lon="2.28958">
        <ele>652.6</ele>
        <time>2022-05-21 01:55:17</time>
      </trkpt>
      <trkpt lat="41.84315" lon="2.28962">
        <ele>652.6</ele>
        <time>2022-05-21 01:55:18</time>
      </trkpt>
      <trkpt lat="41.84323" lon="2.28965">
        <ele>652.6</ele>
        <time>2022-05-21 01:55:19</time>
      </trkpt>
      <trkpt lat="41.8433" lon="2.28969">
        <ele>652.6</ele>
        <time>2022-05-21 01:55:20</time>
      </trkpt>
      <trkpt lat="41.84337" lon="2.28973">
        <ele>652.6</ele>
        <time>2022-05-21 01:55:21</time>
      </trkpt>
      <trkpt lat="41.84345" lon="2.28976">
        <ele>652.4</ele>
        <time>2022-05-21 01:55:22</time>
      </trkpt>
      <trkpt lat="41.84352" lon="2.2898">
        <ele>652.4</ele>
        <time>2022-05-21 01:55:23</time>
      </trkpt>
      <trkpt lat="41.84359" lon="2.28984">
        <ele>652.4</ele>
        <time>2022-05-21 01:55:24</time>
      </trkpt>
      <trkpt lat="41.84367" lon="2.28988">
        <ele>652.4</ele>
        <time>2022-05-21 01:55:25</time>
      </trkpt>
      <trkpt lat="41.84373" lon="2.28992">
        <ele>652.4</ele>
        <time>2022-05-21 01:55:26</time>
      </trkpt>
      <trkpt lat="41.84381" lon="2.28996">
        <ele>652.4</ele>
        <time>2022-05-21 01:55:27</time>
      </trkpt>
      <trkpt lat="41.84388" lon="2.29">
        <ele>652.4</ele>
        <time>2022-05-21 01:55:28</time>
      </trkpt>
      <trkpt lat="41.84395" lon="2.29004">
        <ele>652.4</ele>
        <time>2022-05-21 01:55:29</time>
      </trkpt>
      <trkpt lat="41.84401" lon="2.29009">
        <ele>652.4</ele>
        <time>2022-05-21 01:55:30</time>
      </trkpt>
      <trkpt lat="41.84407" lon="2.29015">
        <ele>652.4</ele>
        <time>2022-05-21 01:55:31</time>
      </trkpt>
      <trkpt lat="41.84413" lon="2.29022">
        <ele>652.2</ele>
        <time>2022-05-21 01:55:32</time>
      </trkpt>
      <trkpt lat="41.84418" lon="2.29029">
        <ele>652.2</ele>
        <time>2022-05-21 01:55:33</time>
      </trkpt>
      <trkpt lat="41.84423" lon="2.29036">
        <ele>652.2</ele>
        <time>2022-05-21 01:55:34</time>
      </trkpt>
      <trkpt lat="41.84427" lon="2.29045">
        <ele>652.2</ele>
        <time>2022-05-21 01:55:35</time>
      </trkpt>
      <trkpt lat="41.84431" lon="2.29053">
        <ele>652</ele>
        <time>2022-05-21 01:55:36</time>
      </trkpt>
      <trkpt lat="41.84435" lon="2.29062">
        <ele>652</ele>
        <time>2022-05-21 01:55:37</time>
      </trkpt>
      <trkpt lat="41.84439" lon="2.2907">
        <ele>652</ele>
        <time>2022-05-21 01:55:38</time>
      </trkpt>
      <trkpt lat="41.84443" lon="2.29079">
        <ele>651.8</ele>
        <time>2022-05-21 01:55:39</time>
      </trkpt>
      <trkpt lat="41.84447" lon="2.29088">
        <ele>651.8</ele>
        <time>2022-05-21 01:55:40</time>
      </trkpt>
      <trkpt lat="41.84449" lon="2.29098">
        <ele>651.8</ele>
        <time>2022-05-21 01:55:41</time>
      </trkpt>
      <trkpt lat="41.84452" lon="2.29107">
        <ele>651.6</ele>
        <time>2022-05-21 01:55:42</time>
      </trkpt>
      <trkpt lat="41.84453" lon="2.29117">
        <ele>651.6</ele>
        <time>2022-05-21 01:55:43</time>
      </trkpt>
      <trkpt lat="41.84453" lon="2.29127">
        <ele>651.6</ele>
        <time>2022-05-21 01:55:44</time>
      </trkpt>
      <trkpt lat="41.84453" lon="2.29137">
        <ele>651.4</ele>
        <time>2022-05-21 01:55:45</time>
      </trkpt>
      <trkpt lat="41.84452" lon="2.29148">
        <ele>651.2</ele>
        <time>2022-05-21 01:55:46</time>
      </trkpt>
      <trkpt lat="41.84452" lon="2.29159">
        <ele>651</ele>
        <time>2022-05-21 01:55:47</time>
      </trkpt>
      <trkpt lat="41.84451" lon="2.2917">
        <ele>650.6</ele>
        <time>2022-05-21 01:55:48</time>
      </trkpt>
      <trkpt lat="41.8445" lon="2.29181">
        <ele>650.4</ele>
        <time>2022-05-21 01:55:49</time>
      </trkpt>
      <trkpt lat="41.84449" lon="2.29192">
        <ele>650.2</ele>
        <time>2022-05-21 01:55:50</time>
      </trkpt>
      <trkpt lat="41.84447" lon="2.29203">
        <ele>649.8</ele>
        <time>2022-05-21 01:55:51</time>
      </trkpt>
      <trkpt lat="41.84447" lon="2.29214">
        <ele>649.6</ele>
        <time>2022-05-21 01:55:52</time>
      </trkpt>
      <trkpt lat="41.84446" lon="2.29225">
        <ele>649.2</ele>
        <time>2022-05-21 01:55:53</time>
      </trkpt>
      <trkpt lat="41.84445" lon="2.29236">
        <ele>649</ele>
        <time>2022-05-21 01:55:54</time>
      </trkpt>
      <trkpt lat="41.84445" lon="2.29247">
        <ele>648.6</ele>
        <time>2022-05-21 01:55:55</time>
      </trkpt>
      <trkpt lat="41.84446" lon="2.29258">
        <ele>648.4</ele>
        <time>2022-05-21 01:55:56</time>
      </trkpt>
      <trkpt lat="41.84447" lon="2.29269">
        <ele>648</ele>
        <time>2022-05-21 01:55:57</time>
      </trkpt>
      <trkpt lat="41.8445" lon="2.29279">
        <ele>647.8</ele>
        <time>2022-05-21 01:55:58</time>
      </trkpt>
      <trkpt lat="41.84454" lon="2.29288">
        <ele>647.6</ele>
        <time>2022-05-21 01:55:59</time>
      </trkpt>
      <trkpt lat="41.84458" lon="2.29297">
        <ele>647.2</ele>
        <time>2022-05-21 01:56:00</time>
      </trkpt>
      <trkpt lat="41.84464" lon="2.29306">
        <ele>647</ele>
        <time>2022-05-21 01:56:01</time>
      </trkpt>
      <trkpt lat="41.84469" lon="2.29314">
        <ele>646.8</ele>
        <time>2022-05-21 01:56:02</time>
      </trkpt>
      <trkpt lat="41.84475" lon="2.29322">
        <ele>646.4</ele>
        <time>2022-05-21 01:56:03</time>
      </trkpt>
      <trkpt lat="41.84483" lon="2.29328">
        <ele>646.2</ele>
        <time>2022-05-21 01:56:04</time>
      </trkpt>
      <trkpt lat="41.8449" lon="2.29333">
        <ele>645.8</ele>
        <time>2022-05-21 01:56:05</time>
      </trkpt>
      <trkpt lat="41.84498" lon="2.29338">
        <ele>645.6</ele>
        <time>2022-05-21 01:56:06</time>
      </trkpt>
      <trkpt lat="41.84507" lon="2.29341">
        <ele>645.2</ele>
        <time>2022-05-21 01:56:07</time>
      </trkpt>
      <trkpt lat="41.84515" lon="2.29343">
        <ele>645</ele>
        <time>2022-05-21 01:56:08</time>
      </trkpt>
      <trkpt lat="41.84524" lon="2.29345">
        <ele>644.6</ele>
        <time>2022-05-21 01:56:09</time>
      </trkpt>
      <trkpt lat="41.84533" lon="2.29347">
        <ele>644.4</ele>
        <time>2022-05-21 01:56:10</time>
      </trkpt>
      <trkpt lat="41.84541" lon="2.2935">
        <ele>644</ele>
        <time>2022-05-21 01:56:11</time>
      </trkpt>
      <trkpt lat="41.84549" lon="2.29354">
        <ele>643.8</ele>
        <time>2022-05-21 01:56:12</time>
      </trkpt>
      <trkpt lat="41.84558" lon="2.29359">
        <ele>643.4</ele>
        <time>2022-05-21 01:56:13</time>
      </trkpt>
      <trkpt lat="41.84566" lon="2.29364">
        <ele>643.2</ele>
        <time>2022-05-21 01:56:14</time>
      </trkpt>
      <trkpt lat="41.84573" lon="2.29369">
        <ele>642.8</ele>
        <time>2022-05-21 01:56:15</time>
      </trkpt>
      <trkpt lat="41.84581" lon="2.29376">
        <ele>642.6</ele>
        <time>2022-05-21 01:56:16</time>
      </trkpt>
      <trkpt lat="41.84587" lon="2.29384">
        <ele>642.2</ele>
        <time>2022-05-21 01:56:17</time>
      </trkpt>
      <trkpt lat="41.84593" lon="2.29393">
        <ele>642</ele>
        <time>2022-05-21 01:56:18</time>
      </trkpt>
      <trkpt lat="41.84598" lon="2.29403">
        <ele>641.6</ele>
        <time>2022-05-21 01:56:19</time>
      </trkpt>
      <trkpt lat="41.84602" lon="2.29413">
        <ele>641.4</ele>
        <time>2022-05-21 01:56:20</time>
      </trkpt>
      <trkpt lat="41.84604" lon="2.29424">
        <ele>641</ele>
        <time>2022-05-21 01:56:21</time>
      </trkpt>
      <trkpt lat="41.84605" lon="2.29436">
        <ele>640.8</ele>
        <time>2022-05-21 01:56:22</time>
      </trkpt>
      <trkpt lat="41.84606" lon="2.29447">
        <ele>640.4</ele>
        <time>2022-05-21 01:56:23</time>
      </trkpt>
      <trkpt lat="41.84607" lon="2.29459">
        <ele>640.2</ele>
        <time>2022-05-21 01:56:24</time>
      </trkpt>
      <trkpt lat="41.84608" lon="2.29471">
        <ele>640</ele>
        <time>2022-05-21 01:56:25</time>
      </trkpt>
      <trkpt lat="41.84607" lon="2.29483">
        <ele>639.6</ele>
        <time>2022-05-21 01:56:26</time>
      </trkpt>
      <trkpt lat="41.84605" lon="2.29494">
        <ele>639.4</ele>
        <time>2022-05-21 01:56:27</time>
      </trkpt>
      <trkpt lat="41.84601" lon="2.29504">
        <ele>639</ele>
        <time>2022-05-21 01:56:28</time>
      </trkpt>
      <trkpt lat="41.84596" lon="2.29512">
        <ele>638.8</ele>
        <time>2022-05-21 01:56:29</time>
      </trkpt>
      <trkpt lat="41.84588" lon="2.29517">
        <ele>638.6</ele>
        <time>2022-05-21 01:56:30</time>
      </trkpt>
      <trkpt lat="41.84579" lon="2.29519">
        <ele>638.2</ele>
        <time>2022-05-21 01:56:31</time>
      </trkpt>
      <trkpt lat="41.8457" lon="2.29518">
        <ele>638</ele>
        <time>2022-05-21 01:56:32</time>
      </trkpt>
      <trkpt lat="41.8456" lon="2.29517">
        <ele>637.8</ele>
        <time>2022-05-21 01:56:33</time>
      </trkpt>
      <trkpt lat="41.8455" lon="2.29516">
        <ele>637.6</ele>
        <time>2022-05-21 01:56:34</time>
      </trkpt>
      <trkpt lat="41.84541" lon="2.29516">
        <ele>637.4</ele>
        <time>2022-05-21 01:56:35</time>
      </trkpt>
      <trkpt lat="41.84533" lon="2.29517">
        <ele>637.2</ele>
        <time>2022-05-21 01:56:36</time>
      </trkpt>
      <trkpt lat="41.84523" lon="2.29519">
        <ele>636.8</ele>
        <time>2022-05-21 01:56:37</time>
      </trkpt>
      <trkpt lat="41.84515" lon="2.29521">
        <ele>636.6</ele>
        <time>2022-05-21 01:56:38</time>
      </trkpt>
      <trkpt lat="41.84506" lon="2.29524">
        <ele>636.4</ele>
        <time>2022-05-21 01:56:39</time>
      </trkpt>
      <trkpt lat="41.84497" lon="2.29527">
        <ele>636.2</ele>
        <time>2022-05-21 01:56:40</time>
      </trkpt>
      <trkpt lat="41.84489" lon="2.2953">
        <ele>636</ele>
        <time>2022-05-21 01:56:41</time>
      </trkpt>
      <trkpt lat="41.84481" lon="2.29534">
        <ele>635.6</ele>
        <time>2022-05-21 01:56:42</time>
      </trkpt>
      <trkpt lat="41.84473" lon="2.29539">
        <ele>635.4</ele>
        <time>2022-05-21 01:56:43</time>
      </trkpt>
      <trkpt lat="41.84467" lon="2.29546">
        <ele>635</ele>
        <time>2022-05-21 01:56:44</time>
      </trkpt>
      <trkpt lat="41.84463" lon="2.29555">
        <ele>634.6</ele>
        <time>2022-05-21 01:56:45</time>
      </trkpt>
      <trkpt lat="41.8446" lon="2.29565">
        <ele>634.4</ele>
        <time>2022-05-21 01:56:46</time>
      </trkpt>
      <trkpt lat="41.84459" lon="2.29576">
        <ele>634.2</ele>
        <time>2022-05-21 01:56:47</time>
      </trkpt>
      <trkpt lat="41.84459" lon="2.29588">
        <ele>634</ele>
        <time>2022-05-21 01:56:48</time>
      </trkpt>
      <trkpt lat="41.84459" lon="2.296">
        <ele>634</ele>
        <time>2022-05-21 01:56:49</time>
      </trkpt>
      <trkpt lat="41.84458" lon="2.29611">
        <ele>634</ele>
        <time>2022-05-21 01:56:50</time>
      </trkpt>
      <trkpt lat="41.84457" lon="2.29622">
        <ele>634.2</ele>
        <time>2022-05-21 01:56:51</time>
      </trkpt>
      <trkpt lat="41.84454" lon="2.29632">
        <ele>634.4</ele>
        <time>2022-05-21 01:56:52</time>
      </trkpt>
      <trkpt lat="41.84451" lon="2.2964">
        <ele>634.8</ele>
        <time>2022-05-21 01:56:53</time>
      </trkpt>
      <trkpt lat="41.84447" lon="2.29646">
        <ele>635.2</ele>
        <time>2022-05-21 01:56:54</time>
      </trkpt>
      <trkpt lat="41.84443" lon="2.29651">
        <ele>635.6</ele>
        <time>2022-05-21 01:56:55</time>
      </trkpt>
      <trkpt lat="41.84438" lon="2.29656">
        <ele>636</ele>
        <time>2022-05-21 01:56:56</time>
      </trkpt>
      <trkpt lat="41.84433" lon="2.29659">
        <ele>636.2</ele>
        <time>2022-05-21 01:56:57</time>
      </trkpt>
      <trkpt lat="41.84428" lon="2.29662">
        <ele>636.6</ele>
        <time>2022-05-21 01:56:58</time>
      </trkpt>
      <trkpt lat="41.84423" lon="2.29665">
        <ele>637</ele>
        <time>2022-05-21 01:56:59</time>
      </trkpt>
      <trkpt lat="41.8442" lon="2.29667">
        <ele>637.2</ele>
        <time>2022-05-21 01:57:00</time>
      </trkpt>
      <trkpt lat="41.84417" lon="2.29668">
        <ele>637.6</ele>
        <time>2022-05-21 01:57:01</time>
      </trkpt>
      <trkpt lat="41.84411" lon="2.29671">
        <ele>638</ele>
        <time>2022-05-21 01:57:02</time>
      </trkpt>
      <trkpt lat="41.84407" lon="2.29673">
        <ele>638.2</ele>
        <time>2022-05-21 01:57:03</time>
      </trkpt>
      <trkpt lat="41.84402" lon="2.29675">
        <ele>638.6</ele>
        <time>2022-05-21 01:57:04</time>
      </trkpt>
      <trkpt lat="41.84398" lon="2.29676">
        <ele>638.8</ele>
        <time>2022-05-21 01:57:05</time>
      </trkpt>
      <trkpt lat="41.84394" lon="2.29677">
        <ele>639</ele>
        <time>2022-05-21 01:57:06</time>
      </trkpt>
      <trkpt lat="41.8439" lon="2.29679">
        <ele>639.4</ele>
        <time>2022-05-21 01:57:07</time>
      </trkpt>
      <trkpt lat="41.84386" lon="2.29679">
        <ele>639.6</ele>
        <time>2022-05-21 01:57:08</time>
      </trkpt>
      <trkpt lat="41.84382" lon="2.2968">
        <ele>639.8</ele>
        <time>2022-05-21 01:57:09</time>
      </trkpt>
      <trkpt lat="41.84378" lon="2.29681">
        <ele>640</ele>
        <time>2022-05-21 01:57:10</time>
      </trkpt>
      <trkpt lat="41.84375" lon="2.29682">
        <ele>640.2</ele>
        <time>2022-05-21 01:57:11</time>
      </trkpt>
      <trkpt lat="41.84371" lon="2.29683">
        <ele>640.4</ele>
        <time>2022-05-21 01:57:12</time>
      </trkpt>
      <trkpt lat="41.84367" lon="2.29684">
        <ele>640.8</ele>
        <time>2022-05-21 01:57:13</time>
      </trkpt>
      <trkpt lat="41.84364" lon="2.29685">
        <ele>641</ele>
        <time>2022-05-21 01:57:14</time>
      </trkpt>
      <trkpt lat="41.8436" lon="2.29686">
        <ele>641.2</ele>
        <time>2022-05-21 01:57:15</time>
      </trkpt>
      <trkpt lat="41.84356" lon="2.29688">
        <ele>641.4</ele>
        <time>2022-05-21 01:57:16</time>
      </trkpt>
      <trkpt lat="41.84353" lon="2.29689">
        <ele>641.6</ele>
        <time>2022-05-21 01:57:17</time>
      </trkpt>
      <trkpt lat="41.84349" lon="2.29691">
        <ele>641.8</ele>
        <time>2022-05-21 01:57:18</time>
      </trkpt>
      <trkpt lat="41.84346" lon="2.29692">
        <ele>642</ele>
        <time>2022-05-21 01:57:19</time>
      </trkpt>
      <trkpt lat="41.84343" lon="2.29694">
        <ele>642</ele>
        <time>2022-05-21 01:57:20</time>
      </trkpt>
      <trkpt lat="41.84341" lon="2.29695">
        <ele>642.2</ele>
        <time>2022-05-21 01:57:21</time>
      </trkpt>
      <trkpt lat="41.84338" lon="2.29697">
        <ele>642.4</ele>
        <time>2022-05-21 01:57:22</time>
      </trkpt>
      <trkpt lat="41.84336" lon="2.29698">
        <ele>642.6</ele>
        <time>2022-05-21 01:57:23</time>
      </trkpt>
      <trkpt lat="41.84333" lon="2.297">
        <ele>642.8</ele>
        <time>2022-05-21 01:57:24</time>
      </trkpt>
      <trkpt lat="41.8433" lon="2.29702">
        <ele>643</ele>
        <time>2022-05-21 01:57:25</time>
      </trkpt>
      <trkpt lat="41.84327" lon="2.29704">
        <ele>643.2</ele>
        <time>2022-05-21 01:57:26</time>
      </trkpt>
      <trkpt lat="41.84324" lon="2.29706">
        <ele>643.2</ele>
        <time>2022-05-21 01:57:27</time>
      </trkpt>
      <trkpt lat="41.84321" lon="2.29709">
        <ele>643.4</ele>
        <time>2022-05-21 01:57:28</time>
      </trkpt>
      <trkpt lat="41.84319" lon="2.29712">
        <ele>643.6</ele>
        <time>2022-05-21 01:57:29</time>
      </trkpt>
      <trkpt lat="41.84316" lon="2.29714">
        <ele>643.8</ele>
        <time>2022-05-21 01:57:30</time>
      </trkpt>
      <trkpt lat="41.84313" lon="2.29716">
        <ele>643.8</ele>
        <time>2022-05-21 01:57:31</time>
      </trkpt>
      <trkpt lat="41.84311" lon="2.29719">
        <ele>644</ele>
        <time>2022-05-21 01:57:32</time>
      </trkpt>
      <trkpt lat="41.84308" lon="2.29721">
        <ele>644.2</ele>
        <time>2022-05-21 01:57:33</time>
      </trkpt>
      <trkpt lat="41.84305" lon="2.29724">
        <ele>644.4</ele>
        <time>2022-05-21 01:57:34</time>
      </trkpt>
      <trkpt lat="41.84303" lon="2.29727">
        <ele>644.4</ele>
        <time>2022-05-21 01:57:35</time>
      </trkpt>
      <trkpt lat="41.843" lon="2.2973">
        <ele>644.6</ele>
        <time>2022-05-21 01:57:36</time>
      </trkpt>
      <trkpt lat="41.84297" lon="2.29733">
        <ele>644.8</ele>
        <time>2022-05-21 01:57:37</time>
      </trkpt>
      <trkpt lat="41.84295" lon="2.29736">
        <ele>644.8</ele>
        <time>2022-05-21 01:57:38</time>
      </trkpt>
      <trkpt lat="41.84292" lon="2.29739">
        <ele>645</ele>
        <time>2022-05-21 01:57:39</time>
      </trkpt>
      <trkpt lat="41.8429" lon="2.29742">
        <ele>645.2</ele>
        <time>2022-05-21 01:57:40</time>
      </trkpt>
      <trkpt lat="41.84287" lon="2.29744">
        <ele>645.4</ele>
        <time>2022-05-21 01:57:41</time>
      </trkpt>
      <trkpt lat="41.84285" lon="2.29747">
        <ele>645.4</ele>
        <time>2022-05-21 01:57:42</time>
      </trkpt>
      <trkpt lat="41.84282" lon="2.2975">
        <ele>645.6</ele>
        <time>2022-05-21 01:57:43</time>
      </trkpt>
      <trkpt lat="41.8428" lon="2.29752">
        <ele>645.8</ele>
        <time>2022-05-21 01:57:44</time>
      </trkpt>
      <trkpt lat="41.84277" lon="2.29755">
        <ele>646</ele>
        <time>2022-05-21 01:57:45</time>
      </trkpt>
      <trkpt lat="41.84275" lon="2.29758">
        <ele>646</ele>
        <time>2022-05-21 01:57:46</time>
      </trkpt>
      <trkpt lat="41.84273" lon="2.29761">
        <ele>646.2</ele>
        <time>2022-05-21 01:57:47</time>
      </trkpt>
      <trkpt lat="41.8427" lon="2.29764">
        <ele>646.2</ele>
        <time>2022-05-21 01:57:48</time>
      </trkpt>
      <trkpt lat="41.84268" lon="2.29768">
        <ele>646.6</ele>
        <time>2022-05-21 01:57:49</time>
      </trkpt>
      <trkpt lat="41.84266" lon="2.29771">
        <ele>646.6</ele>
        <time>2022-05-21 01:57:50</time>
      </trkpt>
      <trkpt lat="41.84263" lon="2.29774">
        <ele>646.8</ele>
        <time>2022-05-21 01:57:51</time>
      </trkpt>
      <trkpt lat="41.84261" lon="2.29777">
        <ele>647</ele>
        <time>2022-05-21 01:57:52</time>
      </trkpt>
      <trkpt lat="41.84259" lon="2.29779">
        <ele>647.2</ele>
        <time>2022-05-21 01:57:53</time>
      </trkpt>
      <trkpt lat="41.84257" lon="2.29781">
        <ele>647.4</ele>
        <time>2022-05-21 01:57:54</time>
      </trkpt>
      <trkpt lat="41.84254" lon="2.29783">
        <ele>647.6</ele>
        <time>2022-05-21 01:57:55</time>
      </trkpt>
      <trkpt lat="41.84251" lon="2.29786">
        <ele>647.6</ele>
        <time>2022-05-21 01:57:56</time>
      </trkpt>
      <trkpt lat="41.84249" lon="2.29789">
        <ele>647.8</ele>
        <time>2022-05-21 01:57:57</time>
      </trkpt>
      <trkpt lat="41.84246" lon="2.29791">
        <ele>648</ele>
        <time>2022-05-21 01:57:58</time>
      </trkpt>
      <trkpt lat="41.84243" lon="2.29794">
        <ele>648.2</ele>
        <time>2022-05-21 01:57:59</time>
      </trkpt>
      <trkpt lat="41.8424" lon="2.29797">
        <ele>648.4</ele>
        <time>2022-05-21 01:58:00</time>
      </trkpt>
      <trkpt lat="41.84237" lon="2.298">
        <ele>648.4</ele>
        <time>2022-05-21 01:58:01</time>
      </trkpt>
      <trkpt lat="41.84235" lon="2.29802">
        <ele>648.6</ele>
        <time>2022-05-21 01:58:02</time>
      </trkpt>
      <trkpt lat="41.84232" lon="2.29804">
        <ele>648.8</ele>
        <time>2022-05-21 01:58:03</time>
      </trkpt>
      <trkpt lat="41.8423" lon="2.29806">
        <ele>649</ele>
        <time>2022-05-21 01:58:04</time>
      </trkpt>
      <trkpt lat="41.84227" lon="2.29808">
        <ele>649.2</ele>
        <time>2022-05-21 01:58:05</time>
      </trkpt>
      <trkpt lat="41.84224" lon="2.2981">
        <ele>649.4</ele>
        <time>2022-05-21 01:58:06</time>
      </trkpt>
      <trkpt lat="41.84222" lon="2.29811">
        <ele>649.6</ele>
        <time>2022-05-21 01:58:07</time>
      </trkpt>
      <trkpt lat="41.84219" lon="2.29813">
        <ele>649.8</ele>
        <time>2022-05-21 01:58:08</time>
      </trkpt>
      <trkpt lat="41.84216" lon="2.29814">
        <ele>649.8</ele>
        <time>2022-05-21 01:58:09</time>
      </trkpt>
      <trkpt lat="41.84213" lon="2.29815">
        <ele>650</ele>
        <time>2022-05-21 01:58:10</time>
      </trkpt>
      <trkpt lat="41.84211" lon="2.29815">
        <ele>650.2</ele>
        <time>2022-05-21 01:58:11</time>
      </trkpt>
      <trkpt lat="41.84208" lon="2.29816">
        <ele>650.4</ele>
        <time>2022-05-21 01:58:12</time>
      </trkpt>
      <trkpt lat="41.84205" lon="2.29817">
        <ele>650.4</ele>
        <time>2022-05-21 01:58:13</time>
      </trkpt>
      <trkpt lat="41.84203" lon="2.29818">
        <ele>650.6</ele>
        <time>2022-05-21 01:58:14</time>
      </trkpt>
      <trkpt lat="41.842" lon="2.29819">
        <ele>650.8</ele>
        <time>2022-05-21 01:58:15</time>
      </trkpt>
      <trkpt lat="41.84197" lon="2.29821">
        <ele>651</ele>
        <time>2022-05-21 01:58:16</time>
      </trkpt>
      <trkpt lat="41.84194" lon="2.29822">
        <ele>651.2</ele>
        <time>2022-05-21 01:58:17</time>
      </trkpt>
      <trkpt lat="41.84192" lon="2.29823">
        <ele>651.4</ele>
        <time>2022-05-21 01:58:18</time>
      </trkpt>
      <trkpt lat="41.84189" lon="2.29823">
        <ele>651.6</ele>
        <time>2022-05-21 01:58:19</time>
      </trkpt>
      <trkpt lat="41.84187" lon="2.29825">
        <ele>651.8</ele>
        <time>2022-05-21 01:58:20</time>
      </trkpt>
      <trkpt lat="41.84184" lon="2.29826">
        <ele>651.8</ele>
        <time>2022-05-21 01:58:21</time>
      </trkpt>
      <trkpt lat="41.84181" lon="2.29828">
        <ele>652</ele>
        <time>2022-05-21 01:58:22</time>
      </trkpt>
      <trkpt lat="41.84179" lon="2.2983">
        <ele>652.2</ele>
        <time>2022-05-21 01:58:23</time>
      </trkpt>
      <trkpt lat="41.84177" lon="2.29832">
        <ele>652.4</ele>
        <time>2022-05-21 01:58:24</time>
      </trkpt>
      <trkpt lat="41.84174" lon="2.29834">
        <ele>652.6</ele>
        <time>2022-05-21 01:58:25</time>
      </trkpt>
      <trkpt lat="41.84172" lon="2.29836">
        <ele>652.6</ele>
        <time>2022-05-21 01:58:26</time>
      </trkpt>
      <trkpt lat="41.84169" lon="2.29839">
        <ele>652.8</ele>
        <time>2022-05-21 01:58:27</time>
      </trkpt>
      <trkpt lat="41.84167" lon="2.29841">
        <ele>653</ele>
        <time>2022-05-21 01:58:28</time>
      </trkpt>
      <trkpt lat="41.84165" lon="2.29844">
        <ele>653.2</ele>
        <time>2022-05-21 01:58:29</time>
      </trkpt>
      <trkpt lat="41.84163" lon="2.29845">
        <ele>653.4</ele>
        <time>2022-05-21 01:58:30</time>
      </trkpt>
      <trkpt lat="41.8416" lon="2.29848">
        <ele>653.4</ele>
        <time>2022-05-21 01:58:31</time>
      </trkpt>
      <trkpt lat="41.84158" lon="2.2985">
        <ele>653.6</ele>
        <time>2022-05-21 01:58:32</time>
      </trkpt>
      <trkpt lat="41.84156" lon="2.29853">
        <ele>653.8</ele>
        <time>2022-05-21 01:58:33</time>
      </trkpt>
      <trkpt lat="41.84154" lon="2.29856">
        <ele>653.8</ele>
        <time>2022-05-21 01:58:34</time>
      </trkpt>
      <trkpt lat="41.84152" lon="2.29858">
        <ele>654</ele>
        <time>2022-05-21 01:58:35</time>
      </trkpt>
      <trkpt lat="41.8415" lon="2.2986">
        <ele>654.2</ele>
        <time>2022-05-21 01:58:36</time>
      </trkpt>
      <trkpt lat="41.84147" lon="2.29863">
        <ele>654.4</ele>
        <time>2022-05-21 01:58:37</time>
      </trkpt>
      <trkpt lat="41.84145" lon="2.29866">
        <ele>654.4</ele>
        <time>2022-05-21 01:58:38</time>
      </trkpt>
      <trkpt lat="41.84143" lon="2.29869">
        <ele>654.6</ele>
        <time>2022-05-21 01:58:39</time>
      </trkpt>
      <trkpt lat="41.84142" lon="2.29871">
        <ele>654.8</ele>
        <time>2022-05-21 01:58:40</time>
      </trkpt>
      <trkpt lat="41.8414" lon="2.29874">
        <ele>655</ele>
        <time>2022-05-21 01:58:41</time>
      </trkpt>
      <trkpt lat="41.84138" lon="2.29877">
        <ele>655</ele>
        <time>2022-05-21 01:58:42</time>
      </trkpt>
      <trkpt lat="41.84136" lon="2.2988">
        <ele>655.2</ele>
        <time>2022-05-21 01:58:43</time>
      </trkpt>
      <trkpt lat="41.84135" lon="2.29883">
        <ele>655.4</ele>
        <time>2022-05-21 01:58:44</time>
      </trkpt>
      <trkpt lat="41.84133" lon="2.29886">
        <ele>655.4</ele>
        <time>2022-05-21 01:58:45</time>
      </trkpt>
      <trkpt lat="41.84131" lon="2.29888">
        <ele>655.6</ele>
        <time>2022-05-21 01:58:46</time>
      </trkpt>
      <trkpt lat="41.8413" lon="2.29891">
        <ele>655.8</ele>
        <time>2022-05-21 01:58:47</time>
      </trkpt>
      <trkpt lat="41.84128" lon="2.29894">
        <ele>655.8</ele>
        <time>2022-05-21 01:58:48</time>
      </trkpt>
      <trkpt lat="41.84126" lon="2.29897">
        <ele>656</ele>
        <time>2022-05-21 01:58:49</time>
      </trkpt>
      <trkpt lat="41.84125" lon="2.29899">
        <ele>656.2</ele>
        <time>2022-05-21 01:58:50</time>
      </trkpt>
      <trkpt lat="41.84123" lon="2.29902">
        <ele>656.2</ele>
        <time>2022-05-21 01:58:51</time>
      </trkpt>
      <trkpt lat="41.84122" lon="2.29904">
        <ele>656.4</ele>
        <time>2022-05-21 01:58:52</time>
      </trkpt>
      <trkpt lat="41.8412" lon="2.29907">
        <ele>656.6</ele>
        <time>2022-05-21 01:58:53</time>
      </trkpt>
      <trkpt lat="41.84119" lon="2.2991">
        <ele>656.8</ele>
        <time>2022-05-21 01:58:54</time>
      </trkpt>
      <trkpt lat="41.84117" lon="2.29913">
        <ele>656.8</ele>
        <time>2022-05-21 01:58:55</time>
      </trkpt>
      <trkpt lat="41.84116" lon="2.29916">
        <ele>657</ele>
        <time>2022-05-21 01:58:56</time>
      </trkpt>
      <trkpt lat="41.84114" lon="2.29919">
        <ele>657</ele>
        <time>2022-05-21 01:58:57</time>
      </trkpt>
      <trkpt lat="41.84113" lon="2.29923">
        <ele>657.2</ele>
        <time>2022-05-21 01:58:58</time>
      </trkpt>
      <trkpt lat="41.84111" lon="2.29925">
        <ele>657.4</ele>
        <time>2022-05-21 01:58:59</time>
      </trkpt>
      <trkpt lat="41.8411" lon="2.29928">
        <ele>657.6</ele>
        <time>2022-05-21 01:59:00</time>
      </trkpt>
      <trkpt lat="41.84108" lon="2.29931">
        <ele>657.6</ele>
        <time>2022-05-21 01:59:01</time>
      </trkpt>
      <trkpt lat="41.84107" lon="2.29933">
        <ele>657.8</ele>
        <time>2022-05-21 01:59:02</time>
      </trkpt>
      <trkpt lat="41.84105" lon="2.29936">
        <ele>658</ele>
        <time>2022-05-21 01:59:03</time>
      </trkpt>
      <trkpt lat="41.84104" lon="2.29938">
        <ele>658</ele>
        <time>2022-05-21 01:59:04</time>
      </trkpt>
      <trkpt lat="41.84102" lon="2.29941">
        <ele>658.2</ele>
        <time>2022-05-21 01:59:05</time>
      </trkpt>
      <trkpt lat="41.84101" lon="2.29943">
        <ele>658.4</ele>
        <time>2022-05-21 01:59:06</time>
      </trkpt>
      <trkpt lat="41.841" lon="2.29946">
        <ele>658.6</ele>
        <time>2022-05-21 01:59:07</time>
      </trkpt>
      <trkpt lat="41.84099" lon="2.29948">
        <ele>658.6</ele>
        <time>2022-05-21 01:59:08</time>
      </trkpt>
      <trkpt lat="41.84097" lon="2.29951">
        <ele>658.8</ele>
        <time>2022-05-21 01:59:09</time>
      </trkpt>
      <trkpt lat="41.84095" lon="2.29954">
        <ele>659</ele>
        <time>2022-05-21 01:59:10</time>
      </trkpt>
      <trkpt lat="41.84093" lon="2.29957">
        <ele>659</ele>
        <time>2022-05-21 01:59:11</time>
      </trkpt>
      <trkpt lat="41.84091" lon="2.29959">
        <ele>659.2</ele>
        <time>2022-05-21 01:59:12</time>
      </trkpt>
      <trkpt lat="41.84089" lon="2.29962">
        <ele>659.4</ele>
        <time>2022-05-21 01:59:13</time>
      </trkpt>
      <trkpt lat="41.84088" lon="2.29965">
        <ele>659.6</ele>
        <time>2022-05-21 01:59:14</time>
      </trkpt>
      <trkpt lat="41.84086" lon="2.29967">
        <ele>659.6</ele>
        <time>2022-05-21 01:59:15</time>
      </trkpt>
      <trkpt lat="41.84085" lon="2.2997">
        <ele>659.8</ele>
        <time>2022-05-21 01:59:16</time>
      </trkpt>
      <trkpt lat="41.84084" lon="2.29974">
        <ele>660</ele>
        <time>2022-05-21 01:59:17</time>
      </trkpt>
      <trkpt lat="41.84082" lon="2.29977">
        <ele>660.2</ele>
        <time>2022-05-21 01:59:18</time>
      </trkpt>
      <trkpt lat="41.84081" lon="2.2998">
        <ele>660.2</ele>
        <time>2022-05-21 01:59:19</time>
      </trkpt>
      <trkpt lat="41.84079" lon="2.29983">
        <ele>660.4</ele>
        <time>2022-05-21 01:59:20</time>
      </trkpt>
      <trkpt lat="41.84077" lon="2.29986">
        <ele>660.6</ele>
        <time>2022-05-21 01:59:21</time>
      </trkpt>
      <trkpt lat="41.84076" lon="2.29989">
        <ele>660.6</ele>
        <time>2022-05-21 01:59:22</time>
      </trkpt>
      <trkpt lat="41.84075" lon="2.29991">
        <ele>660.8</ele>
        <time>2022-05-21 01:59:23</time>
      </trkpt>
      <trkpt lat="41.84074" lon="2.29994">
        <ele>661</ele>
        <time>2022-05-21 01:59:24</time>
      </trkpt>
      <trkpt lat="41.84072" lon="2.29997">
        <ele>661</ele>
        <time>2022-05-21 01:59:25</time>
      </trkpt>
      <trkpt lat="41.8407" lon="2.29999">
        <ele>661.2</ele>
        <time>2022-05-21 01:59:26</time>
      </trkpt>
      <trkpt lat="41.84069" lon="2.30001">
        <ele>661.4</ele>
        <time>2022-05-21 01:59:27</time>
      </trkpt>
      <trkpt lat="41.84067" lon="2.30004">
        <ele>661.4</ele>
        <time>2022-05-21 01:59:28</time>
      </trkpt>
      <trkpt lat="41.84065" lon="2.30006">
        <ele>661.6</ele>
        <time>2022-05-21 01:59:29</time>
      </trkpt>
      <trkpt lat="41.84064" lon="2.30009">
        <ele>661.8</ele>
        <time>2022-05-21 01:59:30</time>
      </trkpt>
      <trkpt lat="41.84062" lon="2.30011">
        <ele>662</ele>
        <time>2022-05-21 01:59:31</time>
      </trkpt>
      <trkpt lat="41.8406" lon="2.30014">
        <ele>662</ele>
        <time>2022-05-21 01:59:32</time>
      </trkpt>
      <trkpt lat="41.84059" lon="2.30017">
        <ele>662.2</ele>
        <time>2022-05-21 01:59:33</time>
      </trkpt>
      <trkpt lat="41.84057" lon="2.30019">
        <ele>662.4</ele>
        <time>2022-05-21 01:59:34</time>
      </trkpt>
      <trkpt lat="41.84055" lon="2.30022">
        <ele>662.4</ele>
        <time>2022-05-21 01:59:35</time>
      </trkpt>
      <trkpt lat="41.84053" lon="2.30025">
        <ele>662.6</ele>
        <time>2022-05-21 01:59:36</time>
      </trkpt>
      <trkpt lat="41.84052" lon="2.30028">
        <ele>662.8</ele>
        <time>2022-05-21 01:59:37</time>
      </trkpt>
      <trkpt lat="41.8405" lon="2.30031">
        <ele>663</ele>
        <time>2022-05-21 01:59:38</time>
      </trkpt>
      <trkpt lat="41.84048" lon="2.30033">
        <ele>663</ele>
        <time>2022-05-21 01:59:39</time>
      </trkpt>
      <trkpt lat="41.84045" lon="2.30036">
        <ele>663.2</ele>
        <time>2022-05-21 01:59:40</time>
      </trkpt>
      <trkpt lat="41.84044" lon="2.30038">
        <ele>663.4</ele>
        <time>2022-05-21 01:59:41</time>
      </trkpt>
      <trkpt lat="41.84042" lon="2.3004">
        <ele>663.4</ele>
        <time>2022-05-21 01:59:42</time>
      </trkpt>
      <trkpt lat="41.8404" lon="2.30043">
        <ele>663.6</ele>
        <time>2022-05-21 01:59:43</time>
      </trkpt>
      <trkpt lat="41.84039" lon="2.30045">
        <ele>663.8</ele>
        <time>2022-05-21 01:59:44</time>
      </trkpt>
      <trkpt lat="41.84037" lon="2.30048">
        <ele>663.8</ele>
        <time>2022-05-21 01:59:45</time>
      </trkpt>
      <trkpt lat="41.84035" lon="2.30051">
        <ele>664</ele>
        <time>2022-05-21 01:59:46</time>
      </trkpt>
      <trkpt lat="41.84033" lon="2.30053">
        <ele>664.2</ele>
        <time>2022-05-21 01:59:47</time>
      </trkpt>
      <trkpt lat="41.84031" lon="2.30057">
        <ele>664.4</ele>
        <time>2022-05-21 01:59:48</time>
      </trkpt>
      <trkpt lat="41.84029" lon="2.30061">
        <ele>664.4</ele>
        <time>2022-05-21 01:59:49</time>
      </trkpt>
      <trkpt lat="41.84027" lon="2.30066">
        <ele>664.6</ele>
        <time>2022-05-21 01:59:50</time>
      </trkpt>
      <trkpt lat="41.84024" lon="2.3007">
        <ele>664.8</ele>
        <time>2022-05-21 01:59:51</time>
      </trkpt>
      <trkpt lat="41.84022" lon="2.30075">
        <ele>664.8</ele>
        <time>2022-05-21 01:59:52</time>
      </trkpt>
      <trkpt lat="41.84019" lon="2.30079">
        <ele>665</ele>
        <time>2022-05-21 01:59:53</time>
      </trkpt>
      <trkpt lat="41.84018" lon="2.30082">
        <ele>665.2</ele>
        <time>2022-05-21 01:59:54</time>
      </trkpt>
      <trkpt lat="41.84016" lon="2.30086">
        <ele>665.2</ele>
        <time>2022-05-21 01:59:55</time>
      </trkpt>
      <trkpt lat="41.84014" lon="2.30089">
        <ele>665.4</ele>
        <time>2022-05-21 01:59:56</time>
      </trkpt>
      <trkpt lat="41.84011" lon="2.30091">
        <ele>665.6</ele>
        <time>2022-05-21 01:59:57</time>
      </trkpt>
      <trkpt lat="41.84009" lon="2.30094">
        <ele>665.6</ele>
        <time>2022-05-21 01:59:58</time>
      </trkpt>
      <trkpt lat="41.84007" lon="2.30097">
        <ele>665.8</ele>
        <time>2022-05-21 01:59:59</time>
      </trkpt>
      <trkpt lat="41.84006" lon="2.301">
        <ele>666</ele>
        <time>2022-05-21 02:00:00</time>
      </trkpt>
      <trkpt lat="41.84005" lon="2.30102">
        <ele>666</ele>
        <time>2022-05-21 02:00:01</time>
      </trkpt>
      <trkpt lat="41.84002" lon="2.30107">
        <ele>666.2</ele>
        <time>2022-05-21 02:00:02</time>
      </trkpt>
      <trkpt lat="41.84" lon="2.30111">
        <ele>666.2</ele>
        <time>2022-05-21 02:00:03</time>
      </trkpt>
      <trkpt lat="41.83998" lon="2.30114">
        <ele>666.4</ele>
        <time>2022-05-21 02:00:04</time>
      </trkpt>
      <trkpt lat="41.83996" lon="2.30116">
        <ele>666.6</ele>
        <time>2022-05-21 02:00:05</time>
      </trkpt>
      <trkpt lat="41.83994" lon="2.30119">
        <ele>666.6</ele>
        <time>2022-05-21 02:00:06</time>
      </trkpt>
      <trkpt lat="41.83993" lon="2.30122">
        <ele>666.8</ele>
        <time>2022-05-21 02:00:07</time>
      </trkpt>
      <trkpt lat="41.83991" lon="2.30126">
        <ele>666.8</ele>
        <time>2022-05-21 02:00:08</time>
      </trkpt>
      <trkpt lat="41.83989" lon="2.3013">
        <ele>667</ele>
        <time>2022-05-21 02:00:09</time>
      </trkpt>
      <trkpt lat="41.83987" lon="2.30133">
        <ele>667.2</ele>
        <time>2022-05-21 02:00:10</time>
      </trkpt>
      <trkpt lat="41.83986" lon="2.30136">
        <ele>667.2</ele>
        <time>2022-05-21 02:00:11</time>
      </trkpt>
      <trkpt lat="41.83984" lon="2.30141">
        <ele>667.4</ele>
        <time>2022-05-21 02:00:12</time>
      </trkpt>
      <trkpt lat="41.83982" lon="2.30144">
        <ele>667.6</ele>
        <time>2022-05-21 02:00:13</time>
      </trkpt>
      <trkpt lat="41.8398" lon="2.30147">
        <ele>667.6</ele>
        <time>2022-05-21 02:00:14</time>
      </trkpt>
      <trkpt lat="41.83978" lon="2.3015">
        <ele>667.8</ele>
        <time>2022-05-21 02:00:15</time>
      </trkpt>
      <trkpt lat="41.83976" lon="2.30153">
        <ele>667.8</ele>
        <time>2022-05-21 02:00:16</time>
      </trkpt>
      <trkpt lat="41.83974" lon="2.30156">
        <ele>668</ele>
        <time>2022-05-21 02:00:17</time>
      </trkpt>
      <trkpt lat="41.83973" lon="2.3016">
        <ele>668.2</ele>
        <time>2022-05-21 02:00:18</time>
      </trkpt>
      <trkpt lat="41.83971" lon="2.30163">
        <ele>668.2</ele>
        <time>2022-05-21 02:00:19</time>
      </trkpt>
      <trkpt lat="41.83969" lon="2.30166">
        <ele>668.4</ele>
        <time>2022-05-21 02:00:20</time>
      </trkpt>
      <trkpt lat="41.83968" lon="2.30169">
        <ele>668.6</ele>
        <time>2022-05-21 02:00:21</time>
      </trkpt>
      <trkpt lat="41.83966" lon="2.30172">
        <ele>668.8</ele>
        <time>2022-05-21 02:00:22</time>
      </trkpt>
      <trkpt lat="41.83964" lon="2.30176">
        <ele>668.8</ele>
        <time>2022-05-21 02:00:23</time>
      </trkpt>
      <trkpt lat="41.83962" lon="2.3018">
        <ele>669</ele>
        <time>2022-05-21 02:00:24</time>
      </trkpt>
      <trkpt lat="41.8396" lon="2.30184">
        <ele>669.2</ele>
        <time>2022-05-21 02:00:25</time>
      </trkpt>
      <trkpt lat="41.83958" lon="2.30187">
        <ele>669.4</ele>
        <time>2022-05-21 02:00:26</time>
      </trkpt>
      <trkpt lat="41.83957" lon="2.30191">
        <ele>669.6</ele>
        <time>2022-05-21 02:00:27</time>
      </trkpt>
      <trkpt lat="41.83955" lon="2.30194">
        <ele>669.6</ele>
        <time>2022-05-21 02:00:28</time>
      </trkpt>
      <trkpt lat="41.83953" lon="2.30198">
        <ele>669.8</ele>
        <time>2022-05-21 02:00:29</time>
      </trkpt>
      <trkpt lat="41.83952" lon="2.30202">
        <ele>670</ele>
        <time>2022-05-21 02:00:30</time>
      </trkpt>
      <trkpt lat="41.83951" lon="2.30206">
        <ele>670</ele>
        <time>2022-05-21 02:00:31</time>
      </trkpt>
      <trkpt lat="41.8395" lon="2.30211">
        <ele>670.2</ele>
        <time>2022-05-21 02:00:32</time>
      </trkpt>
      <trkpt lat="41.83949" lon="2.30214">
        <ele>670.4</ele>
        <time>2022-05-21 02:00:33</time>
      </trkpt>
      <trkpt lat="41.83947" lon="2.30218">
        <ele>670.6</ele>
        <time>2022-05-21 02:00:34</time>
      </trkpt>
      <trkpt lat="41.83946" lon="2.30223">
        <ele>670.8</ele>
        <time>2022-05-21 02:00:35</time>
      </trkpt>
      <trkpt lat="41.83945" lon="2.30226">
        <ele>670.8</ele>
        <time>2022-05-21 02:00:36</time>
      </trkpt>
      <trkpt lat="41.83944" lon="2.3023">
        <ele>671</ele>
        <time>2022-05-21 02:00:37</time>
      </trkpt>
      <trkpt lat="41.83943" lon="2.30235">
        <ele>671.2</ele>
        <time>2022-05-21 02:00:38</time>
      </trkpt>
      <trkpt lat="41.83942" lon="2.30238">
        <ele>671.4</ele>
        <time>2022-05-21 02:00:39</time>
      </trkpt>
      <trkpt lat="41.83941" lon="2.30242">
        <ele>671.6</ele>
        <time>2022-05-21 02:00:40</time>
      </trkpt>
      <trkpt lat="41.8394" lon="2.30246">
        <ele>671.6</ele>
        <time>2022-05-21 02:00:41</time>
      </trkpt>
      <trkpt lat="41.83939" lon="2.3025">
        <ele>671.8</ele>
        <time>2022-05-21 02:00:42</time>
      </trkpt>
      <trkpt lat="41.83937" lon="2.30253">
        <ele>672</ele>
        <time>2022-05-21 02:00:43</time>
      </trkpt>
      <trkpt lat="41.83936" lon="2.30256">
        <ele>672.2</ele>
        <time>2022-05-21 02:00:44</time>
      </trkpt>
      <trkpt lat="41.83935" lon="2.3026">
        <ele>672.4</ele>
        <time>2022-05-21 02:00:45</time>
      </trkpt>
      <trkpt lat="41.83934" lon="2.30264">
        <ele>672.6</ele>
        <time>2022-05-21 02:00:46</time>
      </trkpt>
      <trkpt lat="41.83933" lon="2.30268">
        <ele>672.8</ele>
        <time>2022-05-21 02:00:47</time>
      </trkpt>
      <trkpt lat="41.83932" lon="2.30271">
        <ele>672.8</ele>
        <time>2022-05-21 02:00:48</time>
      </trkpt>
      <trkpt lat="41.83931" lon="2.30275">
        <ele>673</ele>
        <time>2022-05-21 02:00:49</time>
      </trkpt>
      <trkpt lat="41.8393" lon="2.30279">
        <ele>673.2</ele>
        <time>2022-05-21 02:00:50</time>
      </trkpt>
      <trkpt lat="41.83929" lon="2.30282">
        <ele>673.4</ele>
        <time>2022-05-21 02:00:51</time>
      </trkpt>
      <trkpt lat="41.83928" lon="2.30286">
        <ele>673.6</ele>
        <time>2022-05-21 02:00:52</time>
      </trkpt>
      <trkpt lat="41.83927" lon="2.30289">
        <ele>673.8</ele>
        <time>2022-05-21 02:00:53</time>
      </trkpt>
      <trkpt lat="41.83926" lon="2.30293">
        <ele>673.8</ele>
        <time>2022-05-21 02:00:54</time>
      </trkpt>
      <trkpt lat="41.83925" lon="2.30296">
        <ele>674</ele>
        <time>2022-05-21 02:00:55</time>
      </trkpt>
      <trkpt lat="41.83924" lon="2.303">
        <ele>674.2</ele>
        <time>2022-05-21 02:00:56</time>
      </trkpt>
      <trkpt lat="41.83924" lon="2.30304">
        <ele>674.4</ele>
        <time>2022-05-21 02:00:57</time>
      </trkpt>
      <trkpt lat="41.83924" lon="2.30308">
        <ele>674.6</ele>
        <time>2022-05-21 02:00:58</time>
      </trkpt>
      <trkpt lat="41.83923" lon="2.30311">
        <ele>674.8</ele>
        <time>2022-05-21 02:00:59</time>
      </trkpt>
      <trkpt lat="41.83923" lon="2.30315">
        <ele>674.8</ele>
        <time>2022-05-21 02:01:00</time>
      </trkpt>
      <trkpt lat="41.83922" lon="2.30319">
        <ele>675</ele>
        <time>2022-05-21 02:01:01</time>
      </trkpt>
      <trkpt lat="41.83921" lon="2.30322">
        <ele>675.2</ele>
        <time>2022-05-21 02:01:02</time>
      </trkpt>
      <trkpt lat="41.83921" lon="2.30326">
        <ele>675.4</ele>
        <time>2022-05-21 02:01:03</time>
      </trkpt>
      <trkpt lat="41.83921" lon="2.3033">
        <ele>675.6</ele>
        <time>2022-05-21 02:01:04</time>
      </trkpt>
      <trkpt lat="41.8392" lon="2.30334">
        <ele>675.8</ele>
        <time>2022-05-21 02:01:05</time>
      </trkpt>
      <trkpt lat="41.8392" lon="2.30338">
        <ele>676</ele>
        <time>2022-05-21 02:01:06</time>
      </trkpt>
      <trkpt lat="41.8392" lon="2.30341">
        <ele>676.2</ele>
        <time>2022-05-21 02:01:07</time>
      </trkpt>
      <trkpt lat="41.83919" lon="2.30345">
        <ele>676.2</ele>
        <time>2022-05-21 02:01:08</time>
      </trkpt>
      <trkpt lat="41.83919" lon="2.30349">
        <ele>676.4</ele>
        <time>2022-05-21 02:01:09</time>
      </trkpt>
      <trkpt lat="41.83919" lon="2.30353">
        <ele>676.6</ele>
        <time>2022-05-21 02:01:10</time>
      </trkpt>
      <trkpt lat="41.83919" lon="2.30357">
        <ele>676.8</ele>
        <time>2022-05-21 02:01:11</time>
      </trkpt>
      <trkpt lat="41.83918" lon="2.30361">
        <ele>677</ele>
        <time>2022-05-21 02:01:12</time>
      </trkpt>
      <trkpt lat="41.83918" lon="2.30365">
        <ele>677</ele>
        <time>2022-05-21 02:01:13</time>
      </trkpt>
      <trkpt lat="41.83918" lon="2.30369">
        <ele>677.2</ele>
        <time>2022-05-21 02:01:14</time>
      </trkpt>
      <trkpt lat="41.83918" lon="2.30373">
        <ele>677.4</ele>
        <time>2022-05-21 02:01:15</time>
      </trkpt>
      <trkpt lat="41.83919" lon="2.30377">
        <ele>677.6</ele>
        <time>2022-05-21 02:01:16</time>
      </trkpt>
      <trkpt lat="41.83919" lon="2.30381">
        <ele>677.8</ele>
        <time>2022-05-21 02:01:17</time>
      </trkpt>
      <trkpt lat="41.8392" lon="2.30385">
        <ele>678</ele>
        <time>2022-05-21 02:01:18</time>
      </trkpt>
      <trkpt lat="41.8392" lon="2.30389">
        <ele>678.2</ele>
        <time>2022-05-21 02:01:19</time>
      </trkpt>
      <trkpt lat="41.83921" lon="2.30392">
        <ele>678.2</ele>
        <time>2022-05-21 02:01:20</time>
      </trkpt>
      <trkpt lat="41.83922" lon="2.30396">
        <ele>678.4</ele>
        <time>2022-05-21 02:01:21</time>
      </trkpt>
      <trkpt lat="41.83923" lon="2.304">
        <ele>678.6</ele>
        <time>2022-05-21 02:01:22</time>
      </trkpt>
      <trkpt lat="41.83924" lon="2.30403">
        <ele>678.8</ele>
        <time>2022-05-21 02:01:23</time>
      </trkpt>
      <trkpt lat="41.83925" lon="2.30407">
        <ele>679</ele>
        <time>2022-05-21 02:01:24</time>
      </trkpt>
      <trkpt lat="41.83926" lon="2.30411">
        <ele>679</ele>
        <time>2022-05-21 02:01:25</time>
      </trkpt>
      <trkpt lat="41.83927" lon="2.30415">
        <ele>679.2</ele>
        <time>2022-05-21 02:01:26</time>
      </trkpt>
      <trkpt lat="41.83928" lon="2.30419">
        <ele>679.4</ele>
        <time>2022-05-21 02:01:27</time>
      </trkpt>
      <trkpt lat="41.83929" lon="2.30423">
        <ele>679.6</ele>
        <time>2022-05-21 02:01:28</time>
      </trkpt>
      <trkpt lat="41.83929" lon="2.30427">
        <ele>679.6</ele>
        <time>2022-05-21 02:01:29</time>
      </trkpt>
      <trkpt lat="41.83931" lon="2.3043">
        <ele>679.8</ele>
        <time>2022-05-21 02:01:30</time>
      </trkpt>
      <trkpt lat="41.83932" lon="2.30434">
        <ele>680</ele>
        <time>2022-05-21 02:01:31</time>
      </trkpt>
      <trkpt lat="41.83933" lon="2.30438">
        <ele>680.2</ele>
        <time>2022-05-21 02:01:32</time>
      </trkpt>
      <trkpt lat="41.83934" lon="2.30442">
        <ele>680.2</ele>
        <time>2022-05-21 02:01:33</time>
      </trkpt>
      <trkpt lat="41.83935" lon="2.30445">
        <ele>680.4</ele>
        <time>2022-05-21 02:01:34</time>
      </trkpt>
      <trkpt lat="41.83937" lon="2.30449">
        <ele>680.6</ele>
        <time>2022-05-21 02:01:35</time>
      </trkpt>
      <trkpt lat="41.83938" lon="2.30453">
        <ele>680.8</ele>
        <time>2022-05-21 02:01:36</time>
      </trkpt>
      <trkpt lat="41.83939" lon="2.30457">
        <ele>681</ele>
        <time>2022-05-21 02:01:37</time>
      </trkpt>
      <trkpt lat="41.8394" lon="2.30461">
        <ele>681.2</ele>
        <time>2022-05-21 02:01:38</time>
      </trkpt>
      <trkpt lat="41.83941" lon="2.30464">
        <ele>681.2</ele>
        <time>2022-05-21 02:01:39</time>
      </trkpt>
      <trkpt lat="41.83942" lon="2.30467">
        <ele>681.4</ele>
        <time>2022-05-21 02:01:40</time>
      </trkpt>
      <trkpt lat="41.83944" lon="2.30471">
        <ele>681.6</ele>
        <time>2022-05-21 02:01:41</time>
      </trkpt>
      <trkpt lat="41.83944" lon="2.30475">
        <ele>681.8</ele>
        <time>2022-05-21 02:01:42</time>
      </trkpt>
      <trkpt lat="41.83945" lon="2.30479">
        <ele>682</ele>
        <time>2022-05-21 02:01:43</time>
      </trkpt>
      <trkpt lat="41.83946" lon="2.30483">
        <ele>682.2</ele>
        <time>2022-05-21 02:01:44</time>
      </trkpt>
      <trkpt lat="41.83947" lon="2.30486">
        <ele>682.2</ele>
        <time>2022-05-21 02:01:45</time>
      </trkpt>
      <trkpt lat="41.83948" lon="2.30491">
        <ele>682.4</ele>
        <time>2022-05-21 02:01:46</time>
      </trkpt>
      <trkpt lat="41.83949" lon="2.30495">
        <ele>682.6</ele>
        <time>2022-05-21 02:01:47</time>
      </trkpt>
      <trkpt lat="41.8395" lon="2.30498">
        <ele>682.8</ele>
        <time>2022-05-21 02:01:48</time>
      </trkpt>
      <trkpt lat="41.8395" lon="2.30502">
        <ele>683</ele>
        <time>2022-05-21 02:01:49</time>
      </trkpt>
      <trkpt lat="41.83951" lon="2.30506">
        <ele>683.2</ele>
        <time>2022-05-21 02:01:50</time>
      </trkpt>
      <trkpt lat="41.83952" lon="2.3051">
        <ele>683.2</ele>
        <time>2022-05-21 02:01:51</time>
      </trkpt>
      <trkpt lat="41.83953" lon="2.30513">
        <ele>683.4</ele>
        <time>2022-05-21 02:01:52</time>
      </trkpt>
      <trkpt lat="41.83955" lon="2.30517">
        <ele>683.6</ele>
        <time>2022-05-21 02:01:53</time>
      </trkpt>
      <trkpt lat="41.83955" lon="2.30521">
        <ele>683.8</ele>
        <time>2022-05-21 02:01:54</time>
      </trkpt>
      <trkpt lat="41.83957" lon="2.30525">
        <ele>684</ele>
        <time>2022-05-21 02:01:55</time>
      </trkpt>
      <trkpt lat="41.83957" lon="2.30529">
        <ele>684.2</ele>
        <time>2022-05-21 02:01:56</time>
      </trkpt>
      <trkpt lat="41.83958" lon="2.30533">
        <ele>684.4</ele>
        <time>2022-05-21 02:01:57</time>
      </trkpt>
      <trkpt lat="41.8396" lon="2.30536">
        <ele>684.4</ele>
        <time>2022-05-21 02:01:58</time>
      </trkpt>
      <trkpt lat="41.83961" lon="2.3054">
        <ele>684.6</ele>
        <time>2022-05-21 02:01:59</time>
      </trkpt>
      <trkpt lat="41.83962" lon="2.30544">
        <ele>684.8</ele>
        <time>2022-05-21 02:02:00</time>
      </trkpt>
      <trkpt lat="41.83963" lon="2.30547">
        <ele>685</ele>
        <time>2022-05-21 02:02:01</time>
      </trkpt>
      <trkpt lat="41.83964" lon="2.30551">
        <ele>685.2</ele>
        <time>2022-05-21 02:02:02</time>
      </trkpt>
      <trkpt lat="41.83965" lon="2.30555">
        <ele>685.4</ele>
        <time>2022-05-21 02:02:03</time>
      </trkpt>
      <trkpt lat="41.83966" lon="2.30559">
        <ele>685.4</ele>
        <time>2022-05-21 02:02:04</time>
      </trkpt>
      <trkpt lat="41.83967" lon="2.30562">
        <ele>685.6</ele>
        <time>2022-05-21 02:02:05</time>
      </trkpt>
      <trkpt lat="41.83968" lon="2.30566">
        <ele>685.8</ele>
        <time>2022-05-21 02:02:06</time>
      </trkpt>
      <trkpt lat="41.83969" lon="2.3057">
        <ele>686</ele>
        <time>2022-05-21 02:02:07</time>
      </trkpt>
      <trkpt lat="41.83971" lon="2.30574">
        <ele>686.2</ele>
        <time>2022-05-21 02:02:08</time>
      </trkpt>
      <trkpt lat="41.83972" lon="2.30578">
        <ele>686.4</ele>
        <time>2022-05-21 02:02:09</time>
      </trkpt>
      <trkpt lat="41.83973" lon="2.30582">
        <ele>686.4</ele>
        <time>2022-05-21 02:02:10</time>
      </trkpt>
      <trkpt lat="41.83974" lon="2.30586">
        <ele>686.6</ele>
        <time>2022-05-21 02:02:11</time>
      </trkpt>
      <trkpt lat="41.83976" lon="2.30589">
        <ele>686.8</ele>
        <time>2022-05-21 02:02:12</time>
      </trkpt>
      <trkpt lat="41.83977" lon="2.30593">
        <ele>687</ele>
        <time>2022-05-21 02:02:13</time>
      </trkpt>
      <trkpt lat="41.83978" lon="2.30597">
        <ele>687.2</ele>
        <time>2022-05-21 02:02:14</time>
      </trkpt>
      <trkpt lat="41.8398" lon="2.30601">
        <ele>687.4</ele>
        <time>2022-05-21 02:02:15</time>
      </trkpt>
      <trkpt lat="41.83981" lon="2.30604">
        <ele>687.4</ele>
        <time>2022-05-21 02:02:16</time>
      </trkpt>
      <trkpt lat="41.83982" lon="2.30608">
        <ele>687.6</ele>
        <time>2022-05-21 02:02:17</time>
      </trkpt>
      <trkpt lat="41.83983" lon="2.30612">
        <ele>687.8</ele>
        <time>2022-05-21 02:02:18</time>
      </trkpt>
      <trkpt lat="41.83985" lon="2.30616">
        <ele>688</ele>
        <time>2022-05-21 02:02:19</time>
      </trkpt>
      <trkpt lat="41.83987" lon="2.3062">
        <ele>688</ele>
        <time>2022-05-21 02:02:20</time>
      </trkpt>
      <trkpt lat="41.83989" lon="2.30623">
        <ele>688.2</ele>
        <time>2022-05-21 02:02:21</time>
      </trkpt>
      <trkpt lat="41.8399" lon="2.30627">
        <ele>688.4</ele>
        <time>2022-05-21 02:02:22</time>
      </trkpt>
      <trkpt lat="41.83992" lon="2.30631">
        <ele>688.4</ele>
        <time>2022-05-21 02:02:23</time>
      </trkpt>
      <trkpt lat="41.83994" lon="2.30635">
        <ele>688.6</ele>
        <time>2022-05-21 02:02:24</time>
      </trkpt>
      <trkpt lat="41.83996" lon="2.3064">
        <ele>688.6</ele>
        <time>2022-05-21 02:02:25</time>
      </trkpt>
      <trkpt lat="41.83997" lon="2.30644">
        <ele>688.8</ele>
        <time>2022-05-21 02:02:26</time>
      </trkpt>
      <trkpt lat="41.83999" lon="2.30648">
        <ele>688.8</ele>
        <time>2022-05-21 02:02:27</time>
      </trkpt>
      <trkpt lat="41.84001" lon="2.30652">
        <ele>689</ele>
        <time>2022-05-21 02:02:28</time>
      </trkpt>
      <trkpt lat="41.84003" lon="2.30656">
        <ele>689.2</ele>
        <time>2022-05-21 02:02:29</time>
      </trkpt>
      <trkpt lat="41.84005" lon="2.3066">
        <ele>689.2</ele>
        <time>2022-05-21 02:02:30</time>
      </trkpt>
      <trkpt lat="41.84007" lon="2.30664">
        <ele>689.4</ele>
        <time>2022-05-21 02:02:31</time>
      </trkpt>
      <trkpt lat="41.84009" lon="2.30668">
        <ele>689.4</ele>
        <time>2022-05-21 02:02:32</time>
      </trkpt>
      <trkpt lat="41.84011" lon="2.30672">
        <ele>689.6</ele>
        <time>2022-05-21 02:02:33</time>
      </trkpt>
      <trkpt lat="41.84013" lon="2.30676">
        <ele>689.6</ele>
        <time>2022-05-21 02:02:34</time>
      </trkpt>
      <trkpt lat="41.84015" lon="2.30681">
        <ele>689.8</ele>
        <time>2022-05-21 02:02:35</time>
      </trkpt>
      <trkpt lat="41.84017" lon="2.30685">
        <ele>689.8</ele>
        <time>2022-05-21 02:02:36</time>
      </trkpt>
      <trkpt lat="41.84019" lon="2.30689">
        <ele>690</ele>
        <time>2022-05-21 02:02:37</time>
      </trkpt>
      <trkpt lat="41.84021" lon="2.30693">
        <ele>690</ele>
        <time>2022-05-21 02:02:38</time>
      </trkpt>
      <trkpt lat="41.84023" lon="2.30697">
        <ele>690.2</ele>
        <time>2022-05-21 02:02:39</time>
      </trkpt>
      <trkpt lat="41.84025" lon="2.30701">
        <ele>690.2</ele>
        <time>2022-05-21 02:02:40</time>
      </trkpt>
      <trkpt lat="41.84027" lon="2.30705">
        <ele>690.4</ele>
        <time>2022-05-21 02:02:41</time>
      </trkpt>
      <trkpt lat="41.84029" lon="2.30709">
        <ele>690.6</ele>
        <time>2022-05-21 02:02:42</time>
      </trkpt>
      <trkpt lat="41.84031" lon="2.30713">
        <ele>690.6</ele>
        <time>2022-05-21 02:02:43</time>
      </trkpt>
      <trkpt lat="41.84033" lon="2.30718">
        <ele>690.8</ele>
        <time>2022-05-21 02:02:44</time>
      </trkpt>
      <trkpt lat="41.84035" lon="2.30722">
        <ele>690.8</ele>
        <time>2022-05-21 02:02:45</time>
      </trkpt>
      <trkpt lat="41.84037" lon="2.30727">
        <ele>691</ele>
        <time>2022-05-21 02:02:46</time>
      </trkpt>
      <trkpt lat="41.84039" lon="2.30731">
        <ele>691.2</ele>
        <time>2022-05-21 02:02:47</time>
      </trkpt>
      <trkpt lat="41.84041" lon="2.30735">
        <ele>691.2</ele>
        <time>2022-05-21 02:02:48</time>
      </trkpt>
      <trkpt lat="41.84043" lon="2.30739">
        <ele>691.4</ele>
        <time>2022-05-21 02:02:49</time>
      </trkpt>
      <trkpt lat="41.84045" lon="2.30743">
        <ele>691.4</ele>
        <time>2022-05-21 02:02:50</time>
      </trkpt>
      <trkpt lat="41.84047" lon="2.30748">
        <ele>691.6</ele>
        <time>2022-05-21 02:02:51</time>
      </trkpt>
      <trkpt lat="41.84049" lon="2.30752">
        <ele>691.6</ele>
        <time>2022-05-21 02:02:52</time>
      </trkpt>
      <trkpt lat="41.84052" lon="2.30757">
        <ele>691.8</ele>
        <time>2022-05-21 02:02:53</time>
      </trkpt>
      <trkpt lat="41.84053" lon="2.30761">
        <ele>692</ele>
        <time>2022-05-21 02:02:54</time>
      </trkpt>
      <trkpt lat="41.84055" lon="2.30765">
        <ele>692</ele>
        <time>2022-05-21 02:02:55</time>
      </trkpt>
      <trkpt lat="41.84057" lon="2.30769">
        <ele>692.2</ele>
        <time>2022-05-21 02:02:56</time>
      </trkpt>
      <trkpt lat="41.84059" lon="2.30773">
        <ele>692.2</ele>
        <time>2022-05-21 02:02:57</time>
      </trkpt>
      <trkpt lat="41.84061" lon="2.30777">
        <ele>692.4</ele>
        <time>2022-05-21 02:02:58</time>
      </trkpt>
      <trkpt lat="41.84063" lon="2.30782">
        <ele>692.6</ele>
        <time>2022-05-21 02:02:59</time>
      </trkpt>
      <trkpt lat="41.84065" lon="2.30787">
        <ele>692.6</ele>
        <time>2022-05-21 02:03:00</time>
      </trkpt>
      <trkpt lat="41.84067" lon="2.30791">
        <ele>692.6</ele>
        <time>2022-05-21 02:03:01</time>
      </trkpt>
      <trkpt lat="41.84068" lon="2.30797">
        <ele>692.8</ele>
        <time>2022-05-21 02:03:02</time>
      </trkpt>
      <trkpt lat="41.84069" lon="2.30802">
        <ele>692.8</ele>
        <time>2022-05-21 02:03:03</time>
      </trkpt>
      <trkpt lat="41.84069" lon="2.30807">
        <ele>693</ele>
        <time>2022-05-21 02:03:04</time>
      </trkpt>
      <trkpt lat="41.8407" lon="2.30812">
        <ele>693</ele>
        <time>2022-05-21 02:03:05</time>
      </trkpt>
      <trkpt lat="41.8407" lon="2.30817">
        <ele>693.2</ele>
        <time>2022-05-21 02:03:06</time>
      </trkpt>
      <trkpt lat="41.84071" lon="2.30822">
        <ele>693.2</ele>
        <time>2022-05-21 02:03:07</time>
      </trkpt>
      <trkpt lat="41.8407" lon="2.30828">
        <ele>693.2</ele>
        <time>2022-05-21 02:03:08</time>
      </trkpt>
      <trkpt lat="41.84069" lon="2.30832">
        <ele>693.4</ele>
        <time>2022-05-21 02:03:09</time>
      </trkpt>
      <trkpt lat="41.84068" lon="2.30837">
        <ele>693.4</ele>
        <time>2022-05-21 02:03:10</time>
      </trkpt>
      <trkpt lat="41.84067" lon="2.30843">
        <ele>693.4</ele>
        <time>2022-05-21 02:03:11</time>
      </trkpt>
      <trkpt lat="41.84065" lon="2.30849">
        <ele>693.4</ele>
        <time>2022-05-21 02:03:12</time>
      </trkpt>
      <trkpt lat="41.84064" lon="2.30854">
        <ele>693.4</ele>
        <time>2022-05-21 02:03:13</time>
      </trkpt>
      <trkpt lat="41.84062" lon="2.30859">
        <ele>693.6</ele>
        <time>2022-05-21 02:03:14</time>
      </trkpt>
      <trkpt lat="41.84061" lon="2.30864">
        <ele>693.6</ele>
        <time>2022-05-21 02:03:15</time>
      </trkpt>
      <trkpt lat="41.8406" lon="2.30869">
        <ele>693.6</ele>
        <time>2022-05-21 02:03:16</time>
      </trkpt>
      <trkpt lat="41.84058" lon="2.30874">
        <ele>693.8</ele>
        <time>2022-05-21 02:03:17</time>
      </trkpt>
      <trkpt lat="41.84057" lon="2.30879">
        <ele>693.8</ele>
        <time>2022-05-21 02:03:18</time>
      </trkpt>
      <trkpt lat="41.84056" lon="2.30884">
        <ele>693.8</ele>
        <time>2022-05-21 02:03:19</time>
      </trkpt>
      <trkpt lat="41.84056" lon="2.3089">
        <ele>693.8</ele>
        <time>2022-05-21 02:03:20</time>
      </trkpt>
      <trkpt lat="41.84056" lon="2.30896">
        <ele>693.8</ele>
        <time>2022-05-21 02:03:21</time>
      </trkpt>
      <trkpt lat="41.84057" lon="2.30902">
        <ele>693.8</ele>
        <time>2022-05-21 02:03:22</time>
      </trkpt>
      <trkpt lat="41.8406" lon="2.30909">
        <ele>693.8</ele>
        <time>2022-05-21 02:03:23</time>
      </trkpt>
      <trkpt lat="41.84063" lon="2.30914">
        <ele>694</ele>
        <time>2022-05-21 02:03:24</time>
      </trkpt>
      <trkpt lat="41.84067" lon="2.30919">
        <ele>694</ele>
        <time>2022-05-21 02:03:25</time>
      </trkpt>
      <trkpt lat="41.84071" lon="2.30922">
        <ele>694</ele>
        <time>2022-05-21 02:03:26</time>
      </trkpt>
      <trkpt lat="41.84075" lon="2.30924">
        <ele>694</ele>
        <time>2022-05-21 02:03:27</time>
      </trkpt>
      <trkpt lat="41.84079" lon="2.30926">
        <ele>694.2</ele>
        <time>2022-05-21 02:03:28</time>
      </trkpt>
      <trkpt lat="41.84084" lon="2.30929">
        <ele>694.2</ele>
        <time>2022-05-21 02:03:29</time>
      </trkpt>
      <trkpt lat="41.84088" lon="2.30931">
        <ele>694.4</ele>
        <time>2022-05-21 02:03:30</time>
      </trkpt>
      <trkpt lat="41.84092" lon="2.30932">
        <ele>694.4</ele>
        <time>2022-05-21 02:03:31</time>
      </trkpt>
      <trkpt lat="41.84095" lon="2.30934">
        <ele>694.4</ele>
        <time>2022-05-21 02:03:32</time>
      </trkpt>
      <trkpt lat="41.84099" lon="2.30935">
        <ele>694.6</ele>
        <time>2022-05-21 02:03:33</time>
      </trkpt>
      <trkpt lat="41.84103" lon="2.30937">
        <ele>694.6</ele>
        <time>2022-05-21 02:03:34</time>
      </trkpt>
      <trkpt lat="41.84106" lon="2.30939">
        <ele>694.6</ele>
        <time>2022-05-21 02:03:35</time>
      </trkpt>
      <trkpt lat="41.84111" lon="2.30941">
        <ele>694.6</ele>
        <time>2022-05-21 02:03:36</time>
      </trkpt>
      <trkpt lat="41.84115" lon="2.30944">
        <ele>694.8</ele>
        <time>2022-05-21 02:03:37</time>
      </trkpt>
      <trkpt lat="41.84119" lon="2.30947">
        <ele>694.8</ele>
        <time>2022-05-21 02:03:38</time>
      </trkpt>
      <trkpt lat="41.84124" lon="2.30951">
        <ele>694.8</ele>
        <time>2022-05-21 02:03:39</time>
      </trkpt>
      <trkpt lat="41.84128" lon="2.30955">
        <ele>694.8</ele>
        <time>2022-05-21 02:03:40</time>
      </trkpt>
      <trkpt lat="41.84132" lon="2.3096">
        <ele>695</ele>
        <time>2022-05-21 02:03:41</time>
      </trkpt>
      <trkpt lat="41.84135" lon="2.30966">
        <ele>695</ele>
        <time>2022-05-21 02:03:42</time>
      </trkpt>
      <trkpt lat="41.84138" lon="2.30972">
        <ele>695</ele>
        <time>2022-05-21 02:03:43</time>
      </trkpt>
      <trkpt lat="41.84141" lon="2.30978">
        <ele>695.2</ele>
        <time>2022-05-21 02:03:44</time>
      </trkpt>
      <trkpt lat="41.84143" lon="2.30985">
        <ele>695.2</ele>
        <time>2022-05-21 02:03:45</time>
      </trkpt>
      <trkpt lat="41.84146" lon="2.30991">
        <ele>695.2</ele>
        <time>2022-05-21 02:03:46</time>
      </trkpt>
      <trkpt lat="41.84147" lon="2.30999">
        <ele>695.2</ele>
        <time>2022-05-21 02:03:47</time>
      </trkpt>
      <trkpt lat="41.84148" lon="2.31006">
        <ele>695.2</ele>
        <time>2022-05-21 02:03:48</time>
      </trkpt>
      <trkpt lat="41.84148" lon="2.31014">
        <ele>695.4</ele>
        <time>2022-05-21 02:03:49</time>
      </trkpt>
      <trkpt lat="41.84148" lon="2.3102">
        <ele>695.4</ele>
        <time>2022-05-21 02:03:50</time>
      </trkpt>
      <trkpt lat="41.84147" lon="2.31028">
        <ele>695.4</ele>
        <time>2022-05-21 02:03:51</time>
      </trkpt>
      <trkpt lat="41.84146" lon="2.31034">
        <ele>695.4</ele>
        <time>2022-05-21 02:03:52</time>
      </trkpt>
      <trkpt lat="41.84145" lon="2.3104">
        <ele>695.6</ele>
        <time>2022-05-21 02:03:53</time>
      </trkpt>
      <trkpt lat="41.84143" lon="2.31046">
        <ele>695.6</ele>
        <time>2022-05-21 02:03:54</time>
      </trkpt>
      <trkpt lat="41.84142" lon="2.31053">
        <ele>695.6</ele>
        <time>2022-05-21 02:03:55</time>
      </trkpt>
      <trkpt lat="41.8414" lon="2.31059">
        <ele>695.6</ele>
        <time>2022-05-21 02:03:56</time>
      </trkpt>
      <trkpt lat="41.84139" lon="2.31067">
        <ele>695.6</ele>
        <time>2022-05-21 02:03:57</time>
      </trkpt>
      <trkpt lat="41.84138" lon="2.31073">
        <ele>695.6</ele>
        <time>2022-05-21 02:03:58</time>
      </trkpt>
      <trkpt lat="41.84137" lon="2.3108">
        <ele>695.8</ele>
        <time>2022-05-21 02:03:59</time>
      </trkpt>
      <trkpt lat="41.84136" lon="2.31087">
        <ele>695.8</ele>
        <time>2022-05-21 02:04:00</time>
      </trkpt>
      <trkpt lat="41.84136" lon="2.31095">
        <ele>695.8</ele>
        <time>2022-05-21 02:04:01</time>
      </trkpt>
      <trkpt lat="41.84136" lon="2.31102">
        <ele>695.8</ele>
        <time>2022-05-21 02:04:02</time>
      </trkpt>
      <trkpt lat="41.84135" lon="2.31109">
        <ele>695.8</ele>
        <time>2022-05-21 02:04:03</time>
      </trkpt>
      <trkpt lat="41.84135" lon="2.31115">
        <ele>696</ele>
        <time>2022-05-21 02:04:04</time>
      </trkpt>
      <trkpt lat="41.84134" lon="2.31123">
        <ele>696</ele>
        <time>2022-05-21 02:04:05</time>
      </trkpt>
      <trkpt lat="41.84134" lon="2.3113">
        <ele>696</ele>
        <time>2022-05-21 02:04:06</time>
      </trkpt>
      <trkpt lat="41.84134" lon="2.31137">
        <ele>696.2</ele>
        <time>2022-05-21 02:04:07</time>
      </trkpt>
      <trkpt lat="41.84133" lon="2.31143">
        <ele>696.2</ele>
        <time>2022-05-21 02:04:08</time>
      </trkpt>
      <trkpt lat="41.84133" lon="2.3115">
        <ele>696.2</ele>
        <time>2022-05-21 02:04:09</time>
      </trkpt>
      <trkpt lat="41.84132" lon="2.31157">
        <ele>696.2</ele>
        <time>2022-05-21 02:04:10</time>
      </trkpt>
      <trkpt lat="41.84132" lon="2.31165">
        <ele>696.2</ele>
        <time>2022-05-21 02:04:11</time>
      </trkpt>
      <trkpt lat="41.84133" lon="2.31172">
        <ele>696.2</ele>
        <time>2022-05-21 02:04:12</time>
      </trkpt>
      <trkpt lat="41.84134" lon="2.31179">
        <ele>696.2</ele>
        <time>2022-05-21 02:04:13</time>
      </trkpt>
      <trkpt lat="41.84137" lon="2.31186">
        <ele>696</ele>
        <time>2022-05-21 02:04:14</time>
      </trkpt>
      <trkpt lat="41.84142" lon="2.31192">
        <ele>696</ele>
        <time>2022-05-21 02:04:15</time>
      </trkpt>
      <trkpt lat="41.84147" lon="2.31197">
        <ele>696</ele>
        <time>2022-05-21 02:04:16</time>
      </trkpt>
      <trkpt lat="41.84152" lon="2.31199">
        <ele>696</ele>
        <time>2022-05-21 02:04:17</time>
      </trkpt>
      <trkpt lat="41.84158" lon="2.312">
        <ele>696</ele>
        <time>2022-05-21 02:04:18</time>
      </trkpt>
      <trkpt lat="41.84164" lon="2.31201">
        <ele>696</ele>
        <time>2022-05-21 02:04:19</time>
      </trkpt>
      <trkpt lat="41.8417" lon="2.31201">
        <ele>696</ele>
        <time>2022-05-21 02:04:20</time>
      </trkpt>
      <trkpt lat="41.84177" lon="2.31201">
        <ele>696</ele>
        <time>2022-05-21 02:04:21</time>
      </trkpt>
      <trkpt lat="41.84182" lon="2.31203">
        <ele>696</ele>
        <time>2022-05-21 02:04:22</time>
      </trkpt>
      <trkpt lat="41.84188" lon="2.31205">
        <ele>696</ele>
        <time>2022-05-21 02:04:23</time>
      </trkpt>
      <trkpt lat="41.84193" lon="2.31209">
        <ele>696</ele>
        <time>2022-05-21 02:04:24</time>
      </trkpt>
      <trkpt lat="41.84197" lon="2.31215">
        <ele>696</ele>
        <time>2022-05-21 02:04:25</time>
      </trkpt>
      <trkpt lat="41.842" lon="2.31221">
        <ele>696</ele>
        <time>2022-05-21 02:04:26</time>
      </trkpt>
      <trkpt lat="41.84201" lon="2.31229">
        <ele>696</ele>
        <time>2022-05-21 02:04:27</time>
      </trkpt>
      <trkpt lat="41.84203" lon="2.31236">
        <ele>696</ele>
        <time>2022-05-21 02:04:28</time>
      </trkpt>
      <trkpt lat="41.84204" lon="2.31243">
        <ele>696</ele>
        <time>2022-05-21 02:04:29</time>
      </trkpt>
      <trkpt lat="41.84205" lon="2.3125">
        <ele>696</ele>
        <time>2022-05-21 02:04:30</time>
      </trkpt>
      <trkpt lat="41.84206" lon="2.31259">
        <ele>696</ele>
        <time>2022-05-21 02:04:31</time>
      </trkpt>
      <trkpt lat="41.84207" lon="2.31266">
        <ele>696</ele>
        <time>2022-05-21 02:04:32</time>
      </trkpt>
      <trkpt lat="41.84207" lon="2.31273">
        <ele>696</ele>
        <time>2022-05-21 02:04:33</time>
      </trkpt>
      <trkpt lat="41.84208" lon="2.3128">
        <ele>696</ele>
        <time>2022-05-21 02:04:34</time>
      </trkpt>
      <trkpt lat="41.84209" lon="2.31288">
        <ele>696.2</ele>
        <time>2022-05-21 02:04:35</time>
      </trkpt>
      <trkpt lat="41.84209" lon="2.31295">
        <ele>696.2</ele>
        <time>2022-05-21 02:04:36</time>
      </trkpt>
      <trkpt lat="41.8421" lon="2.31302">
        <ele>696.2</ele>
        <time>2022-05-21 02:04:37</time>
      </trkpt>
      <trkpt lat="41.84211" lon="2.31309">
        <ele>696.2</ele>
        <time>2022-05-21 02:04:38</time>
      </trkpt>
      <trkpt lat="41.84211" lon="2.31317">
        <ele>696.2</ele>
        <time>2022-05-21 02:04:39</time>
      </trkpt>
      <trkpt lat="41.84212" lon="2.31323">
        <ele>696.2</ele>
        <time>2022-05-21 02:04:40</time>
      </trkpt>
      <trkpt lat="41.84213" lon="2.31331">
        <ele>696.2</ele>
        <time>2022-05-21 02:04:41</time>
      </trkpt>
      <trkpt lat="41.84214" lon="2.31339">
        <ele>696.4</ele>
        <time>2022-05-21 02:04:42</time>
      </trkpt>
      <trkpt lat="41.84215" lon="2.31346">
        <ele>696.4</ele>
        <time>2022-05-21 02:04:43</time>
      </trkpt>
      <trkpt lat="41.84217" lon="2.31352">
        <ele>696.4</ele>
        <time>2022-05-21 02:04:44</time>
      </trkpt>
      <trkpt lat="41.84221" lon="2.31359">
        <ele>696.4</ele>
        <time>2022-05-21 02:04:45</time>
      </trkpt>
      <trkpt lat="41.84225" lon="2.31364">
        <ele>696.6</ele>
        <time>2022-05-21 02:04:46</time>
      </trkpt>
      <trkpt lat="41.84229" lon="2.31367">
        <ele>696.6</ele>
        <time>2022-05-21 02:04:47</time>
      </trkpt>
      <trkpt lat="41.84234" lon="2.3137">
        <ele>696.8</ele>
        <time>2022-05-21 02:04:48</time>
      </trkpt>
      <trkpt lat="41.84239" lon="2.31371">
        <ele>697</ele>
        <time>2022-05-21 02:04:49</time>
      </trkpt>
      <trkpt lat="41.84243" lon="2.31371">
        <ele>697.2</ele>
        <time>2022-05-21 02:04:50</time>
      </trkpt>
      <trkpt lat="41.84248" lon="2.31372">
        <ele>697.4</ele>
        <time>2022-05-21 02:04:51</time>
      </trkpt>
      <trkpt lat="41.84252" lon="2.31373">
        <ele>697.6</ele>
        <time>2022-05-21 02:04:52</time>
      </trkpt>
      <trkpt lat="41.84257" lon="2.31374">
        <ele>697.8</ele>
        <time>2022-05-21 02:04:53</time>
      </trkpt>
      <trkpt lat="41.84261" lon="2.31375">
        <ele>698</ele>
        <time>2022-05-21 02:04:54</time>
      </trkpt>
      <trkpt lat="41.84265" lon="2.31377">
        <ele>698.2</ele>
        <time>2022-05-21 02:04:55</time>
      </trkpt>
      <trkpt lat="41.84269" lon="2.31378">
        <ele>698.4</ele>
        <time>2022-05-21 02:04:56</time>
      </trkpt>
      <trkpt lat="41.84272" lon="2.31381">
        <ele>698.6</ele>
        <time>2022-05-21 02:04:57</time>
      </trkpt>
      <trkpt lat="41.84275" lon="2.31383">
        <ele>698.8</ele>
        <time>2022-05-21 02:04:58</time>
      </trkpt>
      <trkpt lat="41.84278" lon="2.31386">
        <ele>698.8</ele>
        <time>2022-05-21 02:04:59</time>
      </trkpt>
      <trkpt lat="41.84281" lon="2.31389">
        <ele>699</ele>
        <time>2022-05-21 02:05:00</time>
      </trkpt>
      <trkpt lat="41.84283" lon="2.31392">
        <ele>699.2</ele>
        <time>2022-05-21 02:05:01</time>
      </trkpt>
      <trkpt lat="41.84287" lon="2.31395">
        <ele>699.4</ele>
        <time>2022-05-21 02:05:02</time>
      </trkpt>
      <trkpt lat="41.8429" lon="2.31399">
        <ele>699.6</ele>
        <time>2022-05-21 02:05:03</time>
      </trkpt>
      <trkpt lat="41.84293" lon="2.31402">
        <ele>699.8</ele>
        <time>2022-05-21 02:05:04</time>
      </trkpt>
      <trkpt lat="41.84296" lon="2.31406">
        <ele>699.8</ele>
        <time>2022-05-21 02:05:05</time>
      </trkpt>
      <trkpt lat="41.84298" lon="2.31409">
        <ele>700</ele>
        <time>2022-05-21 02:05:06</time>
      </trkpt>
      <trkpt lat="41.84301" lon="2.31413">
        <ele>700.2</ele>
        <time>2022-05-21 02:05:07</time>
      </trkpt>
      <trkpt lat="41.84304" lon="2.31417">
        <ele>700.2</ele>
        <time>2022-05-21 02:05:08</time>
      </trkpt>
      <trkpt lat="41.84307" lon="2.31421">
        <ele>700.4</ele>
        <time>2022-05-21 02:05:09</time>
      </trkpt>
      <trkpt lat="41.8431" lon="2.31425">
        <ele>700.6</ele>
        <time>2022-05-21 02:05:10</time>
      </trkpt>
      <trkpt lat="41.84312" lon="2.31429">
        <ele>700.6</ele>
        <time>2022-05-21 02:05:11</time>
      </trkpt>
      <trkpt lat="41.84314" lon="2.31433">
        <ele>700.8</ele>
        <time>2022-05-21 02:05:12</time>
      </trkpt>
      <trkpt lat="41.84317" lon="2.31438">
        <ele>700.8</ele>
        <time>2022-05-21 02:05:13</time>
      </trkpt>
      <trkpt lat="41.84319" lon="2.31443">
        <ele>701</ele>
        <time>2022-05-21 02:05:14</time>
      </trkpt>
      <trkpt lat="41.8432" lon="2.31448">
        <ele>701.2</ele>
        <time>2022-05-21 02:05:15</time>
      </trkpt>
      <trkpt lat="41.84322" lon="2.31452">
        <ele>701.2</ele>
        <time>2022-05-21 02:05:16</time>
      </trkpt>
      <trkpt lat="41.84323" lon="2.31457">
        <ele>701.4</ele>
        <time>2022-05-21 02:05:17</time>
      </trkpt>
      <trkpt lat="41.84325" lon="2.31462">
        <ele>701.6</ele>
        <time>2022-05-21 02:05:18</time>
      </trkpt>
      <trkpt lat="41.84326" lon="2.31466">
        <ele>701.6</ele>
        <time>2022-05-21 02:05:19</time>
      </trkpt>
      <trkpt lat="41.84328" lon="2.31471">
        <ele>701.8</ele>
        <time>2022-05-21 02:05:20</time>
      </trkpt>
      <trkpt lat="41.84331" lon="2.31475">
        <ele>701.8</ele>
        <time>2022-05-21 02:05:21</time>
      </trkpt>
      <trkpt lat="41.84334" lon="2.31478">
        <ele>701.8</ele>
        <time>2022-05-21 02:05:22</time>
      </trkpt>
      <trkpt lat="41.84338" lon="2.31481">
        <ele>702</ele>
        <time>2022-05-21 02:05:23</time>
      </trkpt>
      <trkpt lat="41.84342" lon="2.31483">
        <ele>702.2</ele>
        <time>2022-05-21 02:05:24</time>
      </trkpt>
      <trkpt lat="41.84346" lon="2.31484">
        <ele>702.2</ele>
        <time>2022-05-21 02:05:25</time>
      </trkpt>
      <trkpt lat="41.8435" lon="2.31485">
        <ele>702.4</ele>
        <time>2022-05-21 02:05:26</time>
      </trkpt>
      <trkpt lat="41.84354" lon="2.31485">
        <ele>702.6</ele>
        <time>2022-05-21 02:05:27</time>
      </trkpt>
      <trkpt lat="41.84357" lon="2.31484">
        <ele>702.6</ele>
        <time>2022-05-21 02:05:28</time>
      </trkpt>
      <trkpt lat="41.84362" lon="2.31483">
        <ele>702.8</ele>
        <time>2022-05-21 02:05:29</time>
      </trkpt>
      <trkpt lat="41.84366" lon="2.31482">
        <ele>703</ele>
        <time>2022-05-21 02:05:30</time>
      </trkpt>
      <trkpt lat="41.8437" lon="2.3148">
        <ele>703.2</ele>
        <time>2022-05-21 02:05:31</time>
      </trkpt>
      <trkpt lat="41.84373" lon="2.31478">
        <ele>703.4</ele>
        <time>2022-05-21 02:05:32</time>
      </trkpt>
      <trkpt lat="41.84377" lon="2.31475">
        <ele>703.4</ele>
        <time>2022-05-21 02:05:33</time>
      </trkpt>
      <trkpt lat="41.8438" lon="2.31473">
        <ele>703.6</ele>
        <time>2022-05-21 02:05:34</time>
      </trkpt>
      <trkpt lat="41.84383" lon="2.31471">
        <ele>703.8</ele>
        <time>2022-05-21 02:05:35</time>
      </trkpt>
      <trkpt lat="41.84386" lon="2.31468">
        <ele>704</ele>
        <time>2022-05-21 02:05:36</time>
      </trkpt>
      <trkpt lat="41.84389" lon="2.31466">
        <ele>704</ele>
        <time>2022-05-21 02:05:37</time>
      </trkpt>
      <trkpt lat="41.84392" lon="2.31463">
        <ele>704.2</ele>
        <time>2022-05-21 02:05:38</time>
      </trkpt>
      <trkpt lat="41.84396" lon="2.31461">
        <ele>704.4</ele>
        <time>2022-05-21 02:05:39</time>
      </trkpt>
      <trkpt lat="41.84399" lon="2.31459">
        <ele>704.4</ele>
        <time>2022-05-21 02:05:40</time>
      </trkpt>
      <trkpt lat="41.84403" lon="2.31456">
        <ele>704.6</ele>
        <time>2022-05-21 02:05:41</time>
      </trkpt>
      <trkpt lat="41.84406" lon="2.31454">
        <ele>704.8</ele>
        <time>2022-05-21 02:05:42</time>
      </trkpt>
      <trkpt lat="41.8441" lon="2.31453">
        <ele>705</ele>
        <time>2022-05-21 02:05:43</time>
      </trkpt>
      <trkpt lat="41.84414" lon="2.31452">
        <ele>705</ele>
        <time>2022-05-21 02:05:44</time>
      </trkpt>
      <trkpt lat="41.84418" lon="2.31451">
        <ele>705.2</ele>
        <time>2022-05-21 02:05:45</time>
      </trkpt>
      <trkpt lat="41.84422" lon="2.31451">
        <ele>705.2</ele>
        <time>2022-05-21 02:05:46</time>
      </trkpt>
      <trkpt lat="41.84427" lon="2.31451">
        <ele>705.4</ele>
        <time>2022-05-21 02:05:47</time>
      </trkpt>
      <trkpt lat="41.8443" lon="2.31451">
        <ele>705.6</ele>
        <time>2022-05-21 02:05:48</time>
      </trkpt>
      <trkpt lat="41.84433" lon="2.31451">
        <ele>705.6</ele>
        <time>2022-05-21 02:05:49</time>
      </trkpt>
      <trkpt lat="41.84439" lon="2.31451">
        <ele>705.8</ele>
        <time>2022-05-21 02:05:50</time>
      </trkpt>
      <trkpt lat="41.84443" lon="2.31452">
        <ele>706</ele>
        <time>2022-05-21 02:05:51</time>
      </trkpt>
      <trkpt lat="41.84446" lon="2.31453">
        <ele>706</ele>
        <time>2022-05-21 02:05:52</time>
      </trkpt>
      <trkpt lat="41.8445" lon="2.31455">
        <ele>706.2</ele>
        <time>2022-05-21 02:05:53</time>
      </trkpt>
      <trkpt lat="41.84454" lon="2.31456">
        <ele>706.2</ele>
        <time>2022-05-21 02:05:54</time>
      </trkpt>
      <trkpt lat="41.84457" lon="2.31457">
        <ele>706.4</ele>
        <time>2022-05-21 02:05:55</time>
      </trkpt>
      <trkpt lat="41.84461" lon="2.31459">
        <ele>706.6</ele>
        <time>2022-05-21 02:05:56</time>
      </trkpt>
      <trkpt lat="41.84465" lon="2.3146">
        <ele>706.6</ele>
        <time>2022-05-21 02:05:57</time>
      </trkpt>
      <trkpt lat="41.84468" lon="2.31462">
        <ele>706.8</ele>
        <time>2022-05-21 02:05:58</time>
      </trkpt>
      <trkpt lat="41.84472" lon="2.31464">
        <ele>706.8</ele>
        <time>2022-05-21 02:05:59</time>
      </trkpt>
      <trkpt lat="41.84475" lon="2.31466">
        <ele>707</ele>
        <time>2022-05-21 02:06:00</time>
      </trkpt>
      <trkpt lat="41.84479" lon="2.31467">
        <ele>707</ele>
        <time>2022-05-21 02:06:01</time>
      </trkpt>
      <trkpt lat="41.84483" lon="2.31469">
        <ele>707.2</ele>
        <time>2022-05-21 02:06:02</time>
      </trkpt>
      <trkpt lat="41.84486" lon="2.31471">
        <ele>707.2</ele>
        <time>2022-05-21 02:06:03</time>
      </trkpt>
      <trkpt lat="41.84489" lon="2.31473">
        <ele>707.4</ele>
        <time>2022-05-21 02:06:04</time>
      </trkpt>
      <trkpt lat="41.84492" lon="2.31475">
        <ele>707.4</ele>
        <time>2022-05-21 02:06:05</time>
      </trkpt>
      <trkpt lat="41.84495" lon="2.31478">
        <ele>707.4</ele>
        <time>2022-05-21 02:06:06</time>
      </trkpt>
      <trkpt lat="41.84498" lon="2.31481">
        <ele>707.6</ele>
        <time>2022-05-21 02:06:07</time>
      </trkpt>
      <trkpt lat="41.84501" lon="2.31484">
        <ele>707.6</ele>
        <time>2022-05-21 02:06:08</time>
      </trkpt>
      <trkpt lat="41.84504" lon="2.31488">
        <ele>707.8</ele>
        <time>2022-05-21 02:06:09</time>
      </trkpt>
      <trkpt lat="41.84506" lon="2.31493">
        <ele>707.8</ele>
        <time>2022-05-21 02:06:10</time>
      </trkpt>
      <trkpt lat="41.84508" lon="2.31498">
        <ele>708</ele>
        <time>2022-05-21 02:06:11</time>
      </trkpt>
      <trkpt lat="41.84509" lon="2.31502">
        <ele>708</ele>
        <time>2022-05-21 02:06:12</time>
      </trkpt>
      <trkpt lat="41.8451" lon="2.31507">
        <ele>708.2</ele>
        <time>2022-05-21 02:06:13</time>
      </trkpt>
      <trkpt lat="41.84511" lon="2.31512">
        <ele>708.4</ele>
        <time>2022-05-21 02:06:14</time>
      </trkpt>
      <trkpt lat="41.84511" lon="2.31516">
        <ele>708.6</ele>
        <time>2022-05-21 02:06:15</time>
      </trkpt>
      <trkpt lat="41.84511" lon="2.31521">
        <ele>708.8</ele>
        <time>2022-05-21 02:06:16</time>
      </trkpt>
      <trkpt lat="41.84511" lon="2.31526">
        <ele>708.8</ele>
        <time>2022-05-21 02:06:17</time>
      </trkpt>
      <trkpt lat="41.84511" lon="2.31531">
        <ele>709</ele>
        <time>2022-05-21 02:06:18</time>
      </trkpt>
      <trkpt lat="41.84511" lon="2.31535">
        <ele>709.2</ele>
        <time>2022-05-21 02:06:19</time>
      </trkpt>
      <trkpt lat="41.84511" lon="2.3154">
        <ele>709.4</ele>
        <time>2022-05-21 02:06:20</time>
      </trkpt>
      <trkpt lat="41.8451" lon="2.31545">
        <ele>709.4</ele>
        <time>2022-05-21 02:06:21</time>
      </trkpt>
      <trkpt lat="41.8451" lon="2.31549">
        <ele>709.6</ele>
        <time>2022-05-21 02:06:22</time>
      </trkpt>
      <trkpt lat="41.84509" lon="2.31555">
        <ele>709.8</ele>
        <time>2022-05-21 02:06:23</time>
      </trkpt>
      <trkpt lat="41.84509" lon="2.31559">
        <ele>710</ele>
        <time>2022-05-21 02:06:24</time>
      </trkpt>
      <trkpt lat="41.84508" lon="2.31564">
        <ele>710</ele>
        <time>2022-05-21 02:06:25</time>
      </trkpt>
      <trkpt lat="41.84507" lon="2.31569">
        <ele>710.2</ele>
        <time>2022-05-21 02:06:26</time>
      </trkpt>
      <trkpt lat="41.84505" lon="2.31573">
        <ele>710.4</ele>
        <time>2022-05-21 02:06:27</time>
      </trkpt>
      <trkpt lat="41.84504" lon="2.31577">
        <ele>710.4</ele>
        <time>2022-05-21 02:06:28</time>
      </trkpt>
      <trkpt lat="41.84502" lon="2.31581">
        <ele>710.6</ele>
        <time>2022-05-21 02:06:29</time>
      </trkpt>
      <trkpt lat="41.845" lon="2.31585">
        <ele>710.8</ele>
        <time>2022-05-21 02:06:30</time>
      </trkpt>
      <trkpt lat="41.84497" lon="2.31588">
        <ele>710.8</ele>
        <time>2022-05-21 02:06:31</time>
      </trkpt>
      <trkpt lat="41.84495" lon="2.31592">
        <ele>711</ele>
        <time>2022-05-21 02:06:32</time>
      </trkpt>
      <trkpt lat="41.84493" lon="2.31595">
        <ele>711.2</ele>
        <time>2022-05-21 02:06:33</time>
      </trkpt>
      <trkpt lat="41.8449" lon="2.31598">
        <ele>711.4</ele>
        <time>2022-05-21 02:06:34</time>
      </trkpt>
      <trkpt lat="41.84488" lon="2.31601">
        <ele>711.6</ele>
        <time>2022-05-21 02:06:35</time>
      </trkpt>
      <trkpt lat="41.84485" lon="2.31604">
        <ele>711.6</ele>
        <time>2022-05-21 02:06:36</time>
      </trkpt>
      <trkpt lat="41.84482" lon="2.31607">
        <ele>711.8</ele>
        <time>2022-05-21 02:06:37</time>
      </trkpt>
      <trkpt lat="41.8448" lon="2.3161">
        <ele>712</ele>
        <time>2022-05-21 02:06:38</time>
      </trkpt>
      <trkpt lat="41.84477" lon="2.31613">
        <ele>712</ele>
        <time>2022-05-21 02:06:39</time>
      </trkpt>
      <trkpt lat="41.84474" lon="2.31615">
        <ele>712.2</ele>
        <time>2022-05-21 02:06:40</time>
      </trkpt>
      <trkpt lat="41.84471" lon="2.31618">
        <ele>712.4</ele>
        <time>2022-05-21 02:06:41</time>
      </trkpt>
      <trkpt lat="41.84468" lon="2.3162">
        <ele>712.6</ele>
        <time>2022-05-21 02:06:42</time>
      </trkpt>
      <trkpt lat="41.84466" lon="2.31623">
        <ele>712.6</ele>
        <time>2022-05-21 02:06:43</time>
      </trkpt>
      <trkpt lat="41.84463" lon="2.31626">
        <ele>712.8</ele>
        <time>2022-05-21 02:06:44</time>
      </trkpt>
      <trkpt lat="41.8446" lon="2.31628">
        <ele>713</ele>
        <time>2022-05-21 02:06:45</time>
      </trkpt>
      <trkpt lat="41.84458" lon="2.31631">
        <ele>713</ele>
        <time>2022-05-21 02:06:46</time>
      </trkpt>
      <trkpt lat="41.84455" lon="2.31634">
        <ele>713.2</ele>
        <time>2022-05-21 02:06:47</time>
      </trkpt>
      <trkpt lat="41.84453" lon="2.31637">
        <ele>713.4</ele>
        <time>2022-05-21 02:06:48</time>
      </trkpt>
      <trkpt lat="41.84451" lon="2.3164">
        <ele>713.4</ele>
        <time>2022-05-21 02:06:49</time>
      </trkpt>
      <trkpt lat="41.84448" lon="2.31644">
        <ele>713.6</ele>
        <time>2022-05-21 02:06:50</time>
      </trkpt>
      <trkpt lat="41.84446" lon="2.31647">
        <ele>713.8</ele>
        <time>2022-05-21 02:06:51</time>
      </trkpt>
      <trkpt lat="41.84443" lon="2.3165">
        <ele>713.8</ele>
        <time>2022-05-21 02:06:52</time>
      </trkpt>
      <trkpt lat="41.8444" lon="2.31654">
        <ele>714</ele>
        <time>2022-05-21 02:06:53</time>
      </trkpt>
      <trkpt lat="41.84438" lon="2.31657">
        <ele>714</ele>
        <time>2022-05-21 02:06:54</time>
      </trkpt>
      <trkpt lat="41.84436" lon="2.31661">
        <ele>714.2</ele>
        <time>2022-05-21 02:06:55</time>
      </trkpt>
      <trkpt lat="41.84433" lon="2.31665">
        <ele>714.4</ele>
        <time>2022-05-21 02:06:56</time>
      </trkpt>
      <trkpt lat="41.84431" lon="2.31669">
        <ele>714.4</ele>
        <time>2022-05-21 02:06:57</time>
      </trkpt>
      <trkpt lat="41.8443" lon="2.31673">
        <ele>714.6</ele>
        <time>2022-05-21 02:06:58</time>
      </trkpt>
      <trkpt lat="41.84427" lon="2.31676">
        <ele>714.8</ele>
        <time>2022-05-21 02:06:59</time>
      </trkpt>
      <trkpt lat="41.84425" lon="2.31679">
        <ele>714.8</ele>
        <time>2022-05-21 02:07:00</time>
      </trkpt>
      <trkpt lat="41.84423" lon="2.31683">
        <ele>715</ele>
        <time>2022-05-21 02:07:01</time>
      </trkpt>
      <trkpt lat="41.84421" lon="2.31686">
        <ele>715.2</ele>
        <time>2022-05-21 02:07:02</time>
      </trkpt>
      <trkpt lat="41.84419" lon="2.31689">
        <ele>715.2</ele>
        <time>2022-05-21 02:07:03</time>
      </trkpt>
      <trkpt lat="41.84417" lon="2.31693">
        <ele>715.4</ele>
        <time>2022-05-21 02:07:04</time>
      </trkpt>
      <trkpt lat="41.84414" lon="2.31697">
        <ele>715.6</ele>
        <time>2022-05-21 02:07:05</time>
      </trkpt>
      <trkpt lat="41.84412" lon="2.31701">
        <ele>715.6</ele>
        <time>2022-05-21 02:07:06</time>
      </trkpt>
      <trkpt lat="41.8441" lon="2.31704">
        <ele>715.8</ele>
        <time>2022-05-21 02:07:07</time>
      </trkpt>
      <trkpt lat="41.84407" lon="2.31708">
        <ele>715.8</ele>
        <time>2022-05-21 02:07:08</time>
      </trkpt>
      <trkpt lat="41.84405" lon="2.31712">
        <ele>716</ele>
        <time>2022-05-21 02:07:09</time>
      </trkpt>
      <trkpt lat="41.84403" lon="2.31716">
        <ele>716</ele>
        <time>2022-05-21 02:07:10</time>
      </trkpt>
      <trkpt lat="41.844" lon="2.3172">
        <ele>716.2</ele>
        <time>2022-05-21 02:07:11</time>
      </trkpt>
      <trkpt lat="41.84398" lon="2.31723">
        <ele>716.2</ele>
        <time>2022-05-21 02:07:12</time>
      </trkpt>
      <trkpt lat="41.84396" lon="2.31727">
        <ele>716.4</ele>
        <time>2022-05-21 02:07:13</time>
      </trkpt>
      <trkpt lat="41.84393" lon="2.31731">
        <ele>716.4</ele>
        <time>2022-05-21 02:07:14</time>
      </trkpt>
      <trkpt lat="41.8439" lon="2.31734">
        <ele>716.4</ele>
        <time>2022-05-21 02:07:15</time>
      </trkpt>
      <trkpt lat="41.84387" lon="2.31737">
        <ele>716.4</ele>
        <time>2022-05-21 02:07:16</time>
      </trkpt>
      <trkpt lat="41.84384" lon="2.31741">
        <ele>716.6</ele>
        <time>2022-05-21 02:07:17</time>
      </trkpt>
      <trkpt lat="41.84381" lon="2.31743">
        <ele>716.6</ele>
        <time>2022-05-21 02:07:18</time>
      </trkpt>
      <trkpt lat="41.84377" lon="2.31746">
        <ele>716.6</ele>
        <time>2022-05-21 02:07:19</time>
      </trkpt>
      <trkpt lat="41.84374" lon="2.3175">
        <ele>716.6</ele>
        <time>2022-05-21 02:07:20</time>
      </trkpt>
      <trkpt lat="41.8437" lon="2.31753">
        <ele>716.6</ele>
        <time>2022-05-21 02:07:21</time>
      </trkpt>
      <trkpt lat="41.84367" lon="2.31756">
        <ele>716.8</ele>
        <time>2022-05-21 02:07:22</time>
      </trkpt>
      <trkpt lat="41.84363" lon="2.31761">
        <ele>716.8</ele>
        <time>2022-05-21 02:07:23</time>
      </trkpt>
      <trkpt lat="41.8436" lon="2.31764">
        <ele>717</ele>
        <time>2022-05-21 02:07:24</time>
      </trkpt>
      <trkpt lat="41.84357" lon="2.31768">
        <ele>717</ele>
        <time>2022-05-21 02:07:25</time>
      </trkpt>
      <trkpt lat="41.84354" lon="2.31771">
        <ele>717</ele>
        <time>2022-05-21 02:07:26</time>
      </trkpt>
      <trkpt lat="41.84351" lon="2.31775">
        <ele>717.2</ele>
        <time>2022-05-21 02:07:27</time>
      </trkpt>
      <trkpt lat="41.84349" lon="2.3178">
        <ele>717.2</ele>
        <time>2022-05-21 02:07:28</time>
      </trkpt>
      <trkpt lat="41.84347" lon="2.31785">
        <ele>717.2</ele>
        <time>2022-05-21 02:07:29</time>
      </trkpt>
      <trkpt lat="41.84346" lon="2.31791">
        <ele>717.2</ele>
        <time>2022-05-21 02:07:30</time>
      </trkpt>
      <trkpt lat="41.84346" lon="2.31798">
        <ele>717.2</ele>
        <time>2022-05-21 02:07:31</time>
      </trkpt>
      <trkpt lat="41.84346" lon="2.31804">
        <ele>717.2</ele>
        <time>2022-05-21 02:07:32</time>
      </trkpt>
      <trkpt lat="41.84348" lon="2.31811">
        <ele>717.2</ele>
        <time>2022-05-21 02:07:33</time>
      </trkpt>
      <trkpt lat="41.8435" lon="2.31817">
        <ele>717.4</ele>
        <time>2022-05-21 02:07:34</time>
      </trkpt>
      <trkpt lat="41.84352" lon="2.31823">
        <ele>717.4</ele>
        <time>2022-05-21 02:07:35</time>
      </trkpt>
      <trkpt lat="41.84355" lon="2.31828">
        <ele>717.6</ele>
        <time>2022-05-21 02:07:36</time>
      </trkpt>
      <trkpt lat="41.84358" lon="2.31833">
        <ele>717.8</ele>
        <time>2022-05-21 02:07:37</time>
      </trkpt>
      <trkpt lat="41.84361" lon="2.31837">
        <ele>718</ele>
        <time>2022-05-21 02:07:38</time>
      </trkpt>
      <trkpt lat="41.84364" lon="2.31841">
        <ele>718.2</ele>
        <time>2022-05-21 02:07:39</time>
      </trkpt>
      <trkpt lat="41.84367" lon="2.31843">
        <ele>718.4</ele>
        <time>2022-05-21 02:07:40</time>
      </trkpt>
      <trkpt lat="41.8437" lon="2.31846">
        <ele>718.6</ele>
        <time>2022-05-21 02:07:41</time>
      </trkpt>
      <trkpt lat="41.84372" lon="2.31849">
        <ele>718.8</ele>
        <time>2022-05-21 02:07:42</time>
      </trkpt>
      <trkpt lat="41.84374" lon="2.31851">
        <ele>719</ele>
        <time>2022-05-21 02:07:43</time>
      </trkpt>
      <trkpt lat="41.84376" lon="2.31854">
        <ele>719.2</ele>
        <time>2022-05-21 02:07:44</time>
      </trkpt>
      <trkpt lat="41.84378" lon="2.31857">
        <ele>719.4</ele>
        <time>2022-05-21 02:07:45</time>
      </trkpt>
      <trkpt lat="41.84381" lon="2.3186">
        <ele>719.6</ele>
        <time>2022-05-21 02:07:46</time>
      </trkpt>
      <trkpt lat="41.84383" lon="2.31863">
        <ele>719.8</ele>
        <time>2022-05-21 02:07:47</time>
      </trkpt>
      <trkpt lat="41.84385" lon="2.31866">
        <ele>720</ele>
        <time>2022-05-21 02:07:48</time>
      </trkpt>
      <trkpt lat="41.84388" lon="2.31869">
        <ele>720.2</ele>
        <time>2022-05-21 02:07:49</time>
      </trkpt>
      <trkpt lat="41.8439" lon="2.31872">
        <ele>720.4</ele>
        <time>2022-05-21 02:07:50</time>
      </trkpt>
      <trkpt lat="41.84393" lon="2.31875">
        <ele>720.6</ele>
        <time>2022-05-21 02:07:51</time>
      </trkpt>
      <trkpt lat="41.84395" lon="2.31877">
        <ele>720.6</ele>
        <time>2022-05-21 02:07:52</time>
      </trkpt>
      <trkpt lat="41.84398" lon="2.3188">
        <ele>720.8</ele>
        <time>2022-05-21 02:07:53</time>
      </trkpt>
      <trkpt lat="41.84401" lon="2.31883">
        <ele>721</ele>
        <time>2022-05-21 02:07:54</time>
      </trkpt>
      <trkpt lat="41.84404" lon="2.31886">
        <ele>721.2</ele>
        <time>2022-05-21 02:07:55</time>
      </trkpt>
      <trkpt lat="41.84407" lon="2.31888">
        <ele>721.4</ele>
        <time>2022-05-21 02:07:56</time>
      </trkpt>
      <trkpt lat="41.84409" lon="2.31891">
        <ele>721.6</ele>
        <time>2022-05-21 02:07:57</time>
      </trkpt>
      <trkpt lat="41.84413" lon="2.31893">
        <ele>721.8</ele>
        <time>2022-05-21 02:07:58</time>
      </trkpt>
      <trkpt lat="41.84416" lon="2.31895">
        <ele>722</ele>
        <time>2022-05-21 02:07:59</time>
      </trkpt>
      <trkpt lat="41.84419" lon="2.31897">
        <ele>722.2</ele>
        <time>2022-05-21 02:08:00</time>
      </trkpt>
      <trkpt lat="41.84422" lon="2.319">
        <ele>722.4</ele>
        <time>2022-05-21 02:08:01</time>
      </trkpt>
      <trkpt lat="41.84425" lon="2.31902">
        <ele>722.6</ele>
        <time>2022-05-21 02:08:02</time>
      </trkpt>
      <trkpt lat="41.84427" lon="2.31905">
        <ele>722.8</ele>
        <time>2022-05-21 02:08:03</time>
      </trkpt>
      <trkpt lat="41.8443" lon="2.31908">
        <ele>723</ele>
        <time>2022-05-21 02:08:04</time>
      </trkpt>
      <trkpt lat="41.84432" lon="2.3191">
        <ele>723.2</ele>
        <time>2022-05-21 02:08:05</time>
      </trkpt>
      <trkpt lat="41.84434" lon="2.31912">
        <ele>723.4</ele>
        <time>2022-05-21 02:08:06</time>
      </trkpt>
      <trkpt lat="41.84437" lon="2.31915">
        <ele>723.6</ele>
        <time>2022-05-21 02:08:07</time>
      </trkpt>
      <trkpt lat="41.84439" lon="2.31918">
        <ele>723.8</ele>
        <time>2022-05-21 02:08:08</time>
      </trkpt>
      <trkpt lat="41.84441" lon="2.31921">
        <ele>723.8</ele>
        <time>2022-05-21 02:08:09</time>
      </trkpt>
      <trkpt lat="41.84444" lon="2.31925">
        <ele>724</ele>
        <time>2022-05-21 02:08:10</time>
      </trkpt>
      <trkpt lat="41.84447" lon="2.31929">
        <ele>724.2</ele>
        <time>2022-05-21 02:08:11</time>
      </trkpt>
      <trkpt lat="41.84449" lon="2.31933">
        <ele>724.2</ele>
        <time>2022-05-21 02:08:12</time>
      </trkpt>
      <trkpt lat="41.84452" lon="2.31937">
        <ele>724.4</ele>
        <time>2022-05-21 02:08:13</time>
      </trkpt>
      <trkpt lat="41.84454" lon="2.3194">
        <ele>724.6</ele>
        <time>2022-05-21 02:08:14</time>
      </trkpt>
      <trkpt lat="41.84457" lon="2.31944">
        <ele>724.6</ele>
        <time>2022-05-21 02:08:15</time>
      </trkpt>
      <trkpt lat="41.84459" lon="2.31947">
        <ele>724.6</ele>
        <time>2022-05-21 02:08:16</time>
      </trkpt>
      <trkpt lat="41.84462" lon="2.31952">
        <ele>724.8</ele>
        <time>2022-05-21 02:08:17</time>
      </trkpt>
      <trkpt lat="41.84464" lon="2.31956">
        <ele>724.8</ele>
        <time>2022-05-21 02:08:18</time>
      </trkpt>
      <trkpt lat="41.84466" lon="2.31959">
        <ele>724.8</ele>
        <time>2022-05-21 02:08:19</time>
      </trkpt>
      <trkpt lat="41.84468" lon="2.31963">
        <ele>725</ele>
        <time>2022-05-21 02:08:20</time>
      </trkpt>
      <trkpt lat="41.84471" lon="2.31967">
        <ele>725</ele>
        <time>2022-05-21 02:08:21</time>
      </trkpt>
      <trkpt lat="41.84473" lon="2.3197">
        <ele>725</ele>
        <time>2022-05-21 02:08:22</time>
      </trkpt>
      <trkpt lat="41.84476" lon="2.31974">
        <ele>725.2</ele>
        <time>2022-05-21 02:08:23</time>
      </trkpt>
      <trkpt lat="41.84479" lon="2.31978">
        <ele>725.2</ele>
        <time>2022-05-21 02:08:24</time>
      </trkpt>
      <trkpt lat="41.84481" lon="2.31982">
        <ele>725.2</ele>
        <time>2022-05-21 02:08:25</time>
      </trkpt>
      <trkpt lat="41.84484" lon="2.31987">
        <ele>725.4</ele>
        <time>2022-05-21 02:08:26</time>
      </trkpt>
      <trkpt lat="41.84487" lon="2.31991">
        <ele>725.4</ele>
        <time>2022-05-21 02:08:27</time>
      </trkpt>
      <trkpt lat="41.8449" lon="2.31996">
        <ele>725.4</ele>
        <time>2022-05-21 02:08:28</time>
      </trkpt>
      <trkpt lat="41.84493" lon="2.32001">
        <ele>725.6</ele>
        <time>2022-05-21 02:08:29</time>
      </trkpt>
      <trkpt lat="41.84496" lon="2.32007">
        <ele>725.6</ele>
        <time>2022-05-21 02:08:30</time>
      </trkpt>
      <trkpt lat="41.84499" lon="2.32012">
        <ele>725.6</ele>
        <time>2022-05-21 02:08:31</time>
      </trkpt>
      <trkpt lat="41.84502" lon="2.32018">
        <ele>725.8</ele>
        <time>2022-05-21 02:08:32</time>
      </trkpt>
      <trkpt lat="41.84506" lon="2.32024">
        <ele>725.8</ele>
        <time>2022-05-21 02:08:33</time>
      </trkpt>
      <trkpt lat="41.8451" lon="2.32029">
        <ele>725.8</ele>
        <time>2022-05-21 02:08:34</time>
      </trkpt>
      <trkpt lat="41.84512" lon="2.32034">
        <ele>725.8</ele>
        <time>2022-05-21 02:08:35</time>
      </trkpt>
      <trkpt lat="41.84515" lon="2.32039">
        <ele>726</ele>
        <time>2022-05-21 02:08:36</time>
      </trkpt>
      <trkpt lat="41.84518" lon="2.32044">
        <ele>726</ele>
        <time>2022-05-21 02:08:37</time>
      </trkpt>
      <trkpt lat="41.84521" lon="2.32049">
        <ele>726.2</ele>
        <time>2022-05-21 02:08:38</time>
      </trkpt>
      <trkpt lat="41.84524" lon="2.32053">
        <ele>726.2</ele>
        <time>2022-05-21 02:08:39</time>
      </trkpt>
      <trkpt lat="41.84528" lon="2.32058">
        <ele>726.4</ele>
        <time>2022-05-21 02:08:40</time>
      </trkpt>
      <trkpt lat="41.84531" lon="2.32063">
        <ele>726.4</ele>
        <time>2022-05-21 02:08:41</time>
      </trkpt>
      <trkpt lat="41.84533" lon="2.32067">
        <ele>726.6</ele>
        <time>2022-05-21 02:08:42</time>
      </trkpt>
      <trkpt lat="41.84536" lon="2.32073">
        <ele>726.6</ele>
        <time>2022-05-21 02:08:43</time>
      </trkpt>
      <trkpt lat="41.84539" lon="2.32077">
        <ele>726.8</ele>
        <time>2022-05-21 02:08:44</time>
      </trkpt>
      <trkpt lat="41.84542" lon="2.32083">
        <ele>726.8</ele>
        <time>2022-05-21 02:08:45</time>
      </trkpt>
      <trkpt lat="41.84545" lon="2.32087">
        <ele>726.8</ele>
        <time>2022-05-21 02:08:46</time>
      </trkpt>
      <trkpt lat="41.84548" lon="2.32092">
        <ele>727</ele>
        <time>2022-05-21 02:08:47</time>
      </trkpt>
      <trkpt lat="41.84551" lon="2.32097">
        <ele>727</ele>
        <time>2022-05-21 02:08:48</time>
      </trkpt>
      <trkpt lat="41.84554" lon="2.32102">
        <ele>727.2</ele>
        <time>2022-05-21 02:08:49</time>
      </trkpt>
      <trkpt lat="41.84557" lon="2.32106">
        <ele>727.2</ele>
        <time>2022-05-21 02:08:50</time>
      </trkpt>
      <trkpt lat="41.8456" lon="2.32111">
        <ele>727.4</ele>
        <time>2022-05-21 02:08:51</time>
      </trkpt>
      <trkpt lat="41.84563" lon="2.32116">
        <ele>727.4</ele>
        <time>2022-05-21 02:08:52</time>
      </trkpt>
      <trkpt lat="41.84566" lon="2.3212">
        <ele>727.6</ele>
        <time>2022-05-21 02:08:53</time>
      </trkpt>
      <trkpt lat="41.84569" lon="2.32124">
        <ele>727.6</ele>
        <time>2022-05-21 02:08:54</time>
      </trkpt>
      <trkpt lat="41.84573" lon="2.32128">
        <ele>727.6</ele>
        <time>2022-05-21 02:08:55</time>
      </trkpt>
      <trkpt lat="41.84576" lon="2.32133">
        <ele>727.8</ele>
        <time>2022-05-21 02:08:56</time>
      </trkpt>
      <trkpt lat="41.84579" lon="2.32138">
        <ele>727.8</ele>
        <time>2022-05-21 02:08:57</time>
      </trkpt>
      <trkpt lat="41.84583" lon="2.32142">
        <ele>727.8</ele>
        <time>2022-05-21 02:08:58</time>
      </trkpt>
      <trkpt lat="41.84586" lon="2.32148">
        <ele>727.8</ele>
        <time>2022-05-21 02:08:59</time>
      </trkpt>
      <trkpt lat="41.84589" lon="2.32153">
        <ele>728</ele>
        <time>2022-05-21 02:09:00</time>
      </trkpt>
      <trkpt lat="41.84592" lon="2.32158">
        <ele>728</ele>
        <time>2022-05-21 02:09:01</time>
      </trkpt>
      <trkpt lat="41.84595" lon="2.32163">
        <ele>728.2</ele>
        <time>2022-05-21 02:09:02</time>
      </trkpt>
      <trkpt lat="41.84599" lon="2.32169">
        <ele>728.2</ele>
        <time>2022-05-21 02:09:03</time>
      </trkpt>
      <trkpt lat="41.84602" lon="2.32174">
        <ele>728.2</ele>
        <time>2022-05-21 02:09:04</time>
      </trkpt>
      <trkpt lat="41.84605" lon="2.3218">
        <ele>728.4</ele>
        <time>2022-05-21 02:09:05</time>
      </trkpt>
      <trkpt lat="41.84609" lon="2.32186">
        <ele>728.4</ele>
        <time>2022-05-21 02:09:06</time>
      </trkpt>
      <trkpt lat="41.84612" lon="2.32192">
        <ele>728.4</ele>
        <time>2022-05-21 02:09:07</time>
      </trkpt>
      <trkpt lat="41.84615" lon="2.32197">
        <ele>728.4</ele>
        <time>2022-05-21 02:09:08</time>
      </trkpt>
      <trkpt lat="41.84619" lon="2.32204">
        <ele>728.4</ele>
        <time>2022-05-21 02:09:09</time>
      </trkpt>
      <trkpt lat="41.84622" lon="2.32211">
        <ele>728.6</ele>
        <time>2022-05-21 02:09:10</time>
      </trkpt>
      <trkpt lat="41.84624" lon="2.32218">
        <ele>728.6</ele>
        <time>2022-05-21 02:09:11</time>
      </trkpt>
      <trkpt lat="41.84628" lon="2.32224">
        <ele>728.6</ele>
        <time>2022-05-21 02:09:12</time>
      </trkpt>
      <trkpt lat="41.84631" lon="2.32231">
        <ele>728.6</ele>
        <time>2022-05-21 02:09:13</time>
      </trkpt>
      <trkpt lat="41.84634" lon="2.32237">
        <ele>728.6</ele>
        <time>2022-05-21 02:09:14</time>
      </trkpt>
      <trkpt lat="41.84638" lon="2.32244">
        <ele>728.6</ele>
        <time>2022-05-21 02:09:15</time>
      </trkpt>
      <trkpt lat="41.84642" lon="2.3225">
        <ele>728.6</ele>
        <time>2022-05-21 02:09:16</time>
      </trkpt>
      <trkpt lat="41.84646" lon="2.32255">
        <ele>728.6</ele>
        <time>2022-05-21 02:09:17</time>
      </trkpt>
      <trkpt lat="41.84651" lon="2.3226">
        <ele>728.6</ele>
        <time>2022-05-21 02:09:18</time>
      </trkpt>
      <trkpt lat="41.84656" lon="2.32265">
        <ele>728.6</ele>
        <time>2022-05-21 02:09:19</time>
      </trkpt>
      <trkpt lat="41.84661" lon="2.32269">
        <ele>728.6</ele>
        <time>2022-05-21 02:09:20</time>
      </trkpt>
      <trkpt lat="41.84668" lon="2.32272">
        <ele>728.4</ele>
        <time>2022-05-21 02:09:21</time>
      </trkpt>
      <trkpt lat="41.84673" lon="2.32274">
        <ele>728.4</ele>
        <time>2022-05-21 02:09:22</time>
      </trkpt>
      <trkpt lat="41.84679" lon="2.32276">
        <ele>728.4</ele>
        <time>2022-05-21 02:09:23</time>
      </trkpt>
      <trkpt lat="41.84684" lon="2.32278">
        <ele>728.6</ele>
        <time>2022-05-21 02:09:24</time>
      </trkpt>
      <trkpt lat="41.8469" lon="2.3228">
        <ele>728.6</ele>
        <time>2022-05-21 02:09:25</time>
      </trkpt>
      <trkpt lat="41.84696" lon="2.32281">
        <ele>728.6</ele>
        <time>2022-05-21 02:09:26</time>
      </trkpt>
      <trkpt lat="41.84702" lon="2.32283">
        <ele>728.8</ele>
        <time>2022-05-21 02:09:27</time>
      </trkpt>
      <trkpt lat="41.84707" lon="2.32285">
        <ele>728.8</ele>
        <time>2022-05-21 02:09:28</time>
      </trkpt>
      <trkpt lat="41.84713" lon="2.32287">
        <ele>729</ele>
        <time>2022-05-21 02:09:29</time>
      </trkpt>
      <trkpt lat="41.84719" lon="2.32289">
        <ele>729</ele>
        <time>2022-05-21 02:09:30</time>
      </trkpt>
      <trkpt lat="41.84725" lon="2.32292">
        <ele>729</ele>
        <time>2022-05-21 02:09:31</time>
      </trkpt>
      <trkpt lat="41.84731" lon="2.32296">
        <ele>729</ele>
        <time>2022-05-21 02:09:32</time>
      </trkpt>
      <trkpt lat="41.84736" lon="2.323">
        <ele>728.8</ele>
        <time>2022-05-21 02:09:33</time>
      </trkpt>
      <trkpt lat="41.84742" lon="2.32304">
        <ele>728.8</ele>
        <time>2022-05-21 02:09:34</time>
      </trkpt>
      <trkpt lat="41.84748" lon="2.3231">
        <ele>728.6</ele>
        <time>2022-05-21 02:09:35</time>
      </trkpt>
      <trkpt lat="41.84753" lon="2.32316">
        <ele>728.6</ele>
        <time>2022-05-21 02:09:36</time>
      </trkpt>
      <trkpt lat="41.84759" lon="2.32323">
        <ele>728.4</ele>
        <time>2022-05-21 02:09:37</time>
      </trkpt>
      <trkpt lat="41.84764" lon="2.32329">
        <ele>728.2</ele>
        <time>2022-05-21 02:09:38</time>
      </trkpt>
      <trkpt lat="41.8477" lon="2.32335">
        <ele>728</ele>
        <time>2022-05-21 02:09:39</time>
      </trkpt>
      <trkpt lat="41.84776" lon="2.32342">
        <ele>727.8</ele>
        <time>2022-05-21 02:09:40</time>
      </trkpt>
      <trkpt lat="41.84782" lon="2.32349">
        <ele>727.4</ele>
        <time>2022-05-21 02:09:41</time>
      </trkpt>
      <trkpt lat="41.84788" lon="2.32356">
        <ele>727.2</ele>
        <time>2022-05-21 02:09:42</time>
      </trkpt>
      <trkpt lat="41.84794" lon="2.32363">
        <ele>727</ele>
        <time>2022-05-21 02:09:43</time>
      </trkpt>
      <trkpt lat="41.848" lon="2.3237">
        <ele>726.8</ele>
        <time>2022-05-21 02:09:44</time>
      </trkpt>
      <trkpt lat="41.84806" lon="2.32378">
        <ele>726.4</ele>
        <time>2022-05-21 02:09:45</time>
      </trkpt>
      <trkpt lat="41.84811" lon="2.32384">
        <ele>726.4</ele>
        <time>2022-05-21 02:09:46</time>
      </trkpt>
      <trkpt lat="41.84819" lon="2.32393">
        <ele>726.2</ele>
        <time>2022-05-21 02:09:47</time>
      </trkpt>
      <trkpt lat="41.84825" lon="2.32401">
        <ele>725.8</ele>
        <time>2022-05-21 02:09:48</time>
      </trkpt>
      <trkpt lat="41.8483" lon="2.32408">
        <ele>725.6</ele>
        <time>2022-05-21 02:09:49</time>
      </trkpt>
      <trkpt lat="41.84837" lon="2.32415">
        <ele>725.2</ele>
        <time>2022-05-21 02:09:50</time>
      </trkpt>
      <trkpt lat="41.84843" lon="2.32423">
        <ele>724.8</ele>
        <time>2022-05-21 02:09:51</time>
      </trkpt>
      <trkpt lat="41.84849" lon="2.32431">
        <ele>724.6</ele>
        <time>2022-05-21 02:09:52</time>
      </trkpt>
      <trkpt lat="41.84856" lon="2.32438">
        <ele>724.2</ele>
        <time>2022-05-21 02:09:53</time>
      </trkpt>
      <trkpt lat="41.84863" lon="2.32444">
        <ele>724</ele>
        <time>2022-05-21 02:09:54</time>
      </trkpt>
      <trkpt lat="41.8487" lon="2.3245">
        <ele>723.6</ele>
        <time>2022-05-21 02:09:55</time>
      </trkpt>
      <trkpt lat="41.84877" lon="2.32456">
        <ele>723.4</ele>
        <time>2022-05-21 02:09:56</time>
      </trkpt>
      <trkpt lat="41.84885" lon="2.32461">
        <ele>723</ele>
        <time>2022-05-21 02:09:57</time>
      </trkpt>
      <trkpt lat="41.84892" lon="2.32467">
        <ele>722.6</ele>
        <time>2022-05-21 02:09:58</time>
      </trkpt>
      <trkpt lat="41.849" lon="2.32472">
        <ele>722.4</ele>
        <time>2022-05-21 02:09:59</time>
      </trkpt>
      <trkpt lat="41.84908" lon="2.32477">
        <ele>722</ele>
        <time>2022-05-21 02:10:00</time>
      </trkpt>
      <trkpt lat="41.84915" lon="2.32482">
        <ele>721.6</ele>
        <time>2022-05-21 02:10:01</time>
      </trkpt>
      <trkpt lat="41.84923" lon="2.32487">
        <ele>721.2</ele>
        <time>2022-05-21 02:10:02</time>
      </trkpt>
      <trkpt lat="41.8493" lon="2.32492">
        <ele>720.8</ele>
        <time>2022-05-21 02:10:03</time>
      </trkpt>
      <trkpt lat="41.84938" lon="2.32497">
        <ele>720.6</ele>
        <time>2022-05-21 02:10:04</time>
      </trkpt>
      <trkpt lat="41.84946" lon="2.32502">
        <ele>720.2</ele>
        <time>2022-05-21 02:10:05</time>
      </trkpt>
      <trkpt lat="41.84954" lon="2.32507">
        <ele>720</ele>
        <time>2022-05-21 02:10:06</time>
      </trkpt>
      <trkpt lat="41.84963" lon="2.32512">
        <ele>719.6</ele>
        <time>2022-05-21 02:10:07</time>
      </trkpt>
      <trkpt lat="41.84972" lon="2.32517">
        <ele>719.4</ele>
        <time>2022-05-21 02:10:08</time>
      </trkpt>
      <trkpt lat="41.8498" lon="2.32522">
        <ele>719.2</ele>
        <time>2022-05-21 02:10:09</time>
      </trkpt>
      <trkpt lat="41.84988" lon="2.32527">
        <ele>718.8</ele>
        <time>2022-05-21 02:10:10</time>
      </trkpt>
      <trkpt lat="41.84995" lon="2.32533">
        <ele>718.6</ele>
        <time>2022-05-21 02:10:11</time>
      </trkpt>
      <trkpt lat="41.85003" lon="2.32538">
        <ele>718.2</ele>
        <time>2022-05-21 02:10:12</time>
      </trkpt>
      <trkpt lat="41.85011" lon="2.32544">
        <ele>718</ele>
        <time>2022-05-21 02:10:13</time>
      </trkpt>
      <trkpt lat="41.8502" lon="2.32549">
        <ele>717.8</ele>
        <time>2022-05-21 02:10:14</time>
      </trkpt>
      <trkpt lat="41.85028" lon="2.32554">
        <ele>717.6</ele>
        <time>2022-05-21 02:10:15</time>
      </trkpt>
      <trkpt lat="41.85036" lon="2.3256">
        <ele>717.2</ele>
        <time>2022-05-21 02:10:16</time>
      </trkpt>
      <trkpt lat="41.85043" lon="2.32565">
        <ele>716.8</ele>
        <time>2022-05-21 02:10:17</time>
      </trkpt>
      <trkpt lat="41.85051" lon="2.32571">
        <ele>716.4</ele>
        <time>2022-05-21 02:10:18</time>
      </trkpt>
      <trkpt lat="41.85059" lon="2.32576">
        <ele>716</ele>
        <time>2022-05-21 02:10:19</time>
      </trkpt>
      <trkpt lat="41.85067" lon="2.32582">
        <ele>715.6</ele>
        <time>2022-05-21 02:10:20</time>
      </trkpt>
      <trkpt lat="41.85075" lon="2.3259">
        <ele>715</ele>
        <time>2022-05-21 02:10:21</time>
      </trkpt>
      <trkpt lat="41.85084" lon="2.32597">
        <ele>714.4</ele>
        <time>2022-05-21 02:10:22</time>
      </trkpt>
      <trkpt lat="41.85093" lon="2.32606">
        <ele>714</ele>
        <time>2022-05-21 02:10:23</time>
      </trkpt>
      <trkpt lat="41.85101" lon="2.32615">
        <ele>713.4</ele>
        <time>2022-05-21 02:10:24</time>
      </trkpt>
      <trkpt lat="41.85107" lon="2.32625">
        <ele>712.8</ele>
        <time>2022-05-21 02:10:25</time>
      </trkpt>
      <trkpt lat="41.85113" lon="2.32635">
        <ele>712.2</ele>
        <time>2022-05-21 02:10:26</time>
      </trkpt>
      <trkpt lat="41.85119" lon="2.32646">
        <ele>711.6</ele>
        <time>2022-05-21 02:10:27</time>
      </trkpt>
      <trkpt lat="41.85125" lon="2.32658">
        <ele>711.2</ele>
        <time>2022-05-21 02:10:28</time>
      </trkpt>
      <trkpt lat="41.85131" lon="2.32669">
        <ele>710.6</ele>
        <time>2022-05-21 02:10:29</time>
      </trkpt>
      <trkpt lat="41.85137" lon="2.32681">
        <ele>710</ele>
        <time>2022-05-21 02:10:30</time>
      </trkpt>
      <trkpt lat="41.85144" lon="2.32692">
        <ele>709.6</ele>
        <time>2022-05-21 02:10:31</time>
      </trkpt>
      <trkpt lat="41.8515" lon="2.32704">
        <ele>709</ele>
        <time>2022-05-21 02:10:32</time>
      </trkpt>
      <trkpt lat="41.85157" lon="2.32717">
        <ele>708.4</ele>
        <time>2022-05-21 02:10:33</time>
      </trkpt>
      <trkpt lat="41.85164" lon="2.32728">
        <ele>707.8</ele>
        <time>2022-05-21 02:10:34</time>
      </trkpt>
      <trkpt lat="41.85171" lon="2.3274">
        <ele>707.2</ele>
        <time>2022-05-21 02:10:35</time>
      </trkpt>
      <trkpt lat="41.85177" lon="2.32752">
        <ele>706.6</ele>
        <time>2022-05-21 02:10:36</time>
      </trkpt>
      <trkpt lat="41.85184" lon="2.32763">
        <ele>706</ele>
        <time>2022-05-21 02:10:37</time>
      </trkpt>
      <trkpt lat="41.85192" lon="2.32775">
        <ele>705.4</ele>
        <time>2022-05-21 02:10:38</time>
      </trkpt>
      <trkpt lat="41.85199" lon="2.32787">
        <ele>704.8</ele>
        <time>2022-05-21 02:10:39</time>
      </trkpt>
      <trkpt lat="41.85206" lon="2.32799">
        <ele>704.2</ele>
        <time>2022-05-21 02:10:40</time>
      </trkpt>
      <trkpt lat="41.85214" lon="2.32811">
        <ele>703.8</ele>
        <time>2022-05-21 02:10:41</time>
      </trkpt>
      <trkpt lat="41.85221" lon="2.32823">
        <ele>703.2</ele>
        <time>2022-05-21 02:10:42</time>
      </trkpt>
      <trkpt lat="41.85228" lon="2.32833">
        <ele>702.8</ele>
        <time>2022-05-21 02:10:43</time>
      </trkpt>
      <trkpt lat="41.85233" lon="2.3284">
        <ele>702.4</ele>
        <time>2022-05-21 02:10:44</time>
      </trkpt>
      <trkpt lat="41.85239" lon="2.32846">
        <ele>702</ele>
        <time>2022-05-21 02:10:45</time>
      </trkpt>
      <trkpt lat="41.85245" lon="2.32852">
        <ele>701.6</ele>
        <time>2022-05-21 02:10:46</time>
      </trkpt>
      <trkpt lat="41.85252" lon="2.32856">
        <ele>701.4</ele>
        <time>2022-05-21 02:10:47</time>
      </trkpt>
      <trkpt lat="41.85259" lon="2.3286">
        <ele>701</ele>
        <time>2022-05-21 02:10:48</time>
      </trkpt>
      <trkpt lat="41.85266" lon="2.32863">
        <ele>700.8</ele>
        <time>2022-05-21 02:10:49</time>
      </trkpt>
      <trkpt lat="41.85273" lon="2.32866">
        <ele>700.8</ele>
        <time>2022-05-21 02:10:50</time>
      </trkpt>
      <trkpt lat="41.8528" lon="2.32869">
        <ele>700.6</ele>
        <time>2022-05-21 02:10:51</time>
      </trkpt>
      <trkpt lat="41.85287" lon="2.32872">
        <ele>700.6</ele>
        <time>2022-05-21 02:10:52</time>
      </trkpt>
      <trkpt lat="41.85294" lon="2.32875">
        <ele>700.6</ele>
        <time>2022-05-21 02:10:53</time>
      </trkpt>
      <trkpt lat="41.85301" lon="2.32877">
        <ele>700.6</ele>
        <time>2022-05-21 02:10:54</time>
      </trkpt>
      <trkpt lat="41.85308" lon="2.3288">
        <ele>700.6</ele>
        <time>2022-05-21 02:10:55</time>
      </trkpt>
      <trkpt lat="41.85314" lon="2.32883">
        <ele>700.8</ele>
        <time>2022-05-21 02:10:56</time>
      </trkpt>
      <trkpt lat="41.85321" lon="2.32886">
        <ele>701</ele>
        <time>2022-05-21 02:10:57</time>
      </trkpt>
      <trkpt lat="41.85327" lon="2.32888">
        <ele>701.2</ele>
        <time>2022-05-21 02:10:58</time>
      </trkpt>
      <trkpt lat="41.85332" lon="2.3289">
        <ele>701.4</ele>
        <time>2022-05-21 02:10:59</time>
      </trkpt>
      <trkpt lat="41.85337" lon="2.32892">
        <ele>701.8</ele>
        <time>2022-05-21 02:11:00</time>
      </trkpt>
      <trkpt lat="41.85342" lon="2.32894">
        <ele>702</ele>
        <time>2022-05-21 02:11:01</time>
      </trkpt>
      <trkpt lat="41.85347" lon="2.32895">
        <ele>702.4</ele>
        <time>2022-05-21 02:11:02</time>
      </trkpt>
      <trkpt lat="41.85351" lon="2.32897">
        <ele>702.6</ele>
        <time>2022-05-21 02:11:03</time>
      </trkpt>
      <trkpt lat="41.85355" lon="2.32898">
        <ele>703</ele>
        <time>2022-05-21 02:11:04</time>
      </trkpt>
      <trkpt lat="41.8536" lon="2.329">
        <ele>703.4</ele>
        <time>2022-05-21 02:11:05</time>
      </trkpt>
      <trkpt lat="41.85364" lon="2.32902">
        <ele>703.6</ele>
        <time>2022-05-21 02:11:06</time>
      </trkpt>
      <trkpt lat="41.85368" lon="2.32903">
        <ele>703.8</ele>
        <time>2022-05-21 02:11:07</time>
      </trkpt>
      <trkpt lat="41.85372" lon="2.32905">
        <ele>704</ele>
        <time>2022-05-21 02:11:08</time>
      </trkpt>
      <trkpt lat="41.85375" lon="2.32907">
        <ele>704.4</ele>
        <time>2022-05-21 02:11:09</time>
      </trkpt>
      <trkpt lat="41.85379" lon="2.32908">
        <ele>704.6</ele>
        <time>2022-05-21 02:11:10</time>
      </trkpt>
      <trkpt lat="41.85382" lon="2.3291">
        <ele>704.8</ele>
        <time>2022-05-21 02:11:11</time>
      </trkpt>
      <trkpt lat="41.85386" lon="2.32911">
        <ele>705.2</ele>
        <time>2022-05-21 02:11:12</time>
      </trkpt>
      <trkpt lat="41.8539" lon="2.32913">
        <ele>705.4</ele>
        <time>2022-05-21 02:11:13</time>
      </trkpt>
      <trkpt lat="41.85393" lon="2.32915">
        <ele>705.6</ele>
        <time>2022-05-21 02:11:14</time>
      </trkpt>
      <trkpt lat="41.85397" lon="2.32916">
        <ele>705.8</ele>
        <time>2022-05-21 02:11:15</time>
      </trkpt>
      <trkpt lat="41.854" lon="2.32917">
        <ele>706</ele>
        <time>2022-05-21 02:11:16</time>
      </trkpt>
      <trkpt lat="41.85404" lon="2.32919">
        <ele>706.2</ele>
        <time>2022-05-21 02:11:17</time>
      </trkpt>
      <trkpt lat="41.85407" lon="2.3292">
        <ele>706.6</ele>
        <time>2022-05-21 02:11:18</time>
      </trkpt>
      <trkpt lat="41.85411" lon="2.32921">
        <ele>706.8</ele>
        <time>2022-05-21 02:11:19</time>
      </trkpt>
      <trkpt lat="41.85415" lon="2.32922">
        <ele>707</ele>
        <time>2022-05-21 02:11:20</time>
      </trkpt>
      <trkpt lat="41.85417" lon="2.32923">
        <ele>707.2</ele>
        <time>2022-05-21 02:11:21</time>
      </trkpt>
      <trkpt lat="41.85419" lon="2.32923">
        <ele>707.4</ele>
        <time>2022-05-21 02:11:22</time>
      </trkpt>
      <trkpt lat="41.85422" lon="2.32923">
        <ele>707.6</ele>
        <time>2022-05-21 02:11:23</time>
      </trkpt>
      <trkpt lat="41.85425" lon="2.32923">
        <ele>707.8</ele>
        <time>2022-05-21 02:11:24</time>
      </trkpt>
      <trkpt lat="41.85428" lon="2.32923">
        <ele>708</ele>
        <time>2022-05-21 02:11:25</time>
      </trkpt>
      <trkpt lat="41.85432" lon="2.32923">
        <ele>708.2</ele>
        <time>2022-05-21 02:11:26</time>
      </trkpt>
      <trkpt lat="41.85435" lon="2.32924">
        <ele>708.4</ele>
        <time>2022-05-21 02:11:27</time>
      </trkpt>
      <trkpt lat="41.85439" lon="2.32924">
        <ele>708.4</ele>
        <time>2022-05-21 02:11:28</time>
      </trkpt>
      <trkpt lat="41.85442" lon="2.32923">
        <ele>708.6</ele>
        <time>2022-05-21 02:11:29</time>
      </trkpt>
      <trkpt lat="41.85446" lon="2.32923">
        <ele>708.8</ele>
        <time>2022-05-21 02:11:30</time>
      </trkpt>
      <trkpt lat="41.85449" lon="2.32922">
        <ele>709</ele>
        <time>2022-05-21 02:11:31</time>
      </trkpt>
      <trkpt lat="41.85453" lon="2.32922">
        <ele>709.2</ele>
        <time>2022-05-21 02:11:32</time>
      </trkpt>
      <trkpt lat="41.85456" lon="2.32921">
        <ele>709.4</ele>
        <time>2022-05-21 02:11:33</time>
      </trkpt>
      <trkpt lat="41.8546" lon="2.32921">
        <ele>709.6</ele>
        <time>2022-05-21 02:11:34</time>
      </trkpt>
      <trkpt lat="41.85463" lon="2.3292">
        <ele>709.8</ele>
        <time>2022-05-21 02:11:35</time>
      </trkpt>
      <trkpt lat="41.85467" lon="2.3292">
        <ele>710</ele>
        <time>2022-05-21 02:11:36</time>
      </trkpt>
      <trkpt lat="41.8547" lon="2.32919">
        <ele>710.2</ele>
        <time>2022-05-21 02:11:37</time>
      </trkpt>
      <trkpt lat="41.85474" lon="2.32919">
        <ele>710.4</ele>
        <time>2022-05-21 02:11:38</time>
      </trkpt>
      <trkpt lat="41.85477" lon="2.32919">
        <ele>710.6</ele>
        <time>2022-05-21 02:11:39</time>
      </trkpt>
      <trkpt lat="41.8548" lon="2.32918">
        <ele>710.8</ele>
        <time>2022-05-21 02:11:40</time>
      </trkpt>
      <trkpt lat="41.85484" lon="2.32917">
        <ele>711</ele>
        <time>2022-05-21 02:11:41</time>
      </trkpt>
      <trkpt lat="41.85487" lon="2.32917">
        <ele>711</ele>
        <time>2022-05-21 02:11:42</time>
      </trkpt>
      <trkpt lat="41.8549" lon="2.32917">
        <ele>711.2</ele>
        <time>2022-05-21 02:11:43</time>
      </trkpt>
      <trkpt lat="41.85493" lon="2.32916">
        <ele>711.4</ele>
        <time>2022-05-21 02:11:44</time>
      </trkpt>
      <trkpt lat="41.85497" lon="2.32916">
        <ele>711.6</ele>
        <time>2022-05-21 02:11:45</time>
      </trkpt>
      <trkpt lat="41.855" lon="2.32915">
        <ele>711.8</ele>
        <time>2022-05-21 02:11:46</time>
      </trkpt>
      <trkpt lat="41.85503" lon="2.32915">
        <ele>712</ele>
        <time>2022-05-21 02:11:47</time>
      </trkpt>
      <trkpt lat="41.85507" lon="2.32915">
        <ele>712.2</ele>
        <time>2022-05-21 02:11:48</time>
      </trkpt>
      <trkpt lat="41.8551" lon="2.32915">
        <ele>712.4</ele>
        <time>2022-05-21 02:11:49</time>
      </trkpt>
      <trkpt lat="41.85514" lon="2.32914">
        <ele>712.6</ele>
        <time>2022-05-21 02:11:50</time>
      </trkpt>
      <trkpt lat="41.85517" lon="2.32914">
        <ele>712.8</ele>
        <time>2022-05-21 02:11:51</time>
      </trkpt>
      <trkpt lat="41.8552" lon="2.32914">
        <ele>712.8</ele>
        <time>2022-05-21 02:11:52</time>
      </trkpt>
      <trkpt lat="41.85524" lon="2.32915">
        <ele>713</ele>
        <time>2022-05-21 02:11:53</time>
      </trkpt>
      <trkpt lat="41.85527" lon="2.32915">
        <ele>713.2</ele>
        <time>2022-05-21 02:11:54</time>
      </trkpt>
      <trkpt lat="41.8553" lon="2.32916">
        <ele>713.4</ele>
        <time>2022-05-21 02:11:55</time>
      </trkpt>
      <trkpt lat="41.85534" lon="2.32918">
        <ele>713.6</ele>
        <time>2022-05-21 02:11:56</time>
      </trkpt>
      <trkpt lat="41.85537" lon="2.32919">
        <ele>713.8</ele>
        <time>2022-05-21 02:11:57</time>
      </trkpt>
      <trkpt lat="41.85539" lon="2.32921">
        <ele>714</ele>
        <time>2022-05-21 02:11:58</time>
      </trkpt>
      <trkpt lat="41.85542" lon="2.32923">
        <ele>714.2</ele>
        <time>2022-05-21 02:11:59</time>
      </trkpt>
      <trkpt lat="41.85544" lon="2.32925">
        <ele>714.4</ele>
        <time>2022-05-21 02:12:00</time>
      </trkpt>
      <trkpt lat="41.85547" lon="2.32927">
        <ele>714.6</ele>
        <time>2022-05-21 02:12:01</time>
      </trkpt>
      <trkpt lat="41.85549" lon="2.3293">
        <ele>714.8</ele>
        <time>2022-05-21 02:12:02</time>
      </trkpt>
      <trkpt lat="41.85551" lon="2.32933">
        <ele>715</ele>
        <time>2022-05-21 02:12:03</time>
      </trkpt>
      <trkpt lat="41.85553" lon="2.32936">
        <ele>715.4</ele>
        <time>2022-05-21 02:12:04</time>
      </trkpt>
      <trkpt lat="41.85556" lon="2.32939">
        <ele>715.6</ele>
        <time>2022-05-21 02:12:05</time>
      </trkpt>
      <trkpt lat="41.85558" lon="2.32943">
        <ele>715.8</ele>
        <time>2022-05-21 02:12:06</time>
      </trkpt>
      <trkpt lat="41.8556" lon="2.32946">
        <ele>716</ele>
        <time>2022-05-21 02:12:07</time>
      </trkpt>
      <trkpt lat="41.85562" lon="2.32949">
        <ele>716.2</ele>
        <time>2022-05-21 02:12:08</time>
      </trkpt>
      <trkpt lat="41.85564" lon="2.32952">
        <ele>716.4</ele>
        <time>2022-05-21 02:12:09</time>
      </trkpt>
      <trkpt lat="41.85567" lon="2.32955">
        <ele>716.6</ele>
        <time>2022-05-21 02:12:10</time>
      </trkpt>
      <trkpt lat="41.85569" lon="2.32958">
        <ele>716.8</ele>
        <time>2022-05-21 02:12:11</time>
      </trkpt>
      <trkpt lat="41.85571" lon="2.32961">
        <ele>717</ele>
        <time>2022-05-21 02:12:12</time>
      </trkpt>
      <trkpt lat="41.85574" lon="2.32963">
        <ele>717.2</ele>
        <time>2022-05-21 02:12:13</time>
      </trkpt>
      <trkpt lat="41.85577" lon="2.32966">
        <ele>717.4</ele>
        <time>2022-05-21 02:12:14</time>
      </trkpt>
      <trkpt lat="41.8558" lon="2.32968">
        <ele>717.6</ele>
        <time>2022-05-21 02:12:15</time>
      </trkpt>
      <trkpt lat="41.85583" lon="2.3297">
        <ele>717.8</ele>
        <time>2022-05-21 02:12:16</time>
      </trkpt>
      <trkpt lat="41.85586" lon="2.32971">
        <ele>717.8</ele>
        <time>2022-05-21 02:12:17</time>
      </trkpt>
      <trkpt lat="41.85589" lon="2.32971">
        <ele>718</ele>
        <time>2022-05-21 02:12:18</time>
      </trkpt>
      <trkpt lat="41.85592" lon="2.32972">
        <ele>718.2</ele>
        <time>2022-05-21 02:12:19</time>
      </trkpt>
      <trkpt lat="41.85594" lon="2.32972">
        <ele>718.4</ele>
        <time>2022-05-21 02:12:20</time>
      </trkpt>
      <trkpt lat="41.85597" lon="2.32971">
        <ele>718.6</ele>
        <time>2022-05-21 02:12:21</time>
      </trkpt>
      <trkpt lat="41.856" lon="2.3297">
        <ele>718.8</ele>
        <time>2022-05-21 02:12:22</time>
      </trkpt>
      <trkpt lat="41.85602" lon="2.32968">
        <ele>719</ele>
        <time>2022-05-21 02:12:23</time>
      </trkpt>
      <trkpt lat="41.85604" lon="2.32966">
        <ele>719.2</ele>
        <time>2022-05-21 02:12:24</time>
      </trkpt>
      <trkpt lat="41.85606" lon="2.32963">
        <ele>719.4</ele>
        <time>2022-05-21 02:12:25</time>
      </trkpt>
      <trkpt lat="41.85609" lon="2.3296">
        <ele>719.6</ele>
        <time>2022-05-21 02:12:26</time>
      </trkpt>
      <trkpt lat="41.85611" lon="2.32956">
        <ele>719.8</ele>
        <time>2022-05-21 02:12:27</time>
      </trkpt>
      <trkpt lat="41.85613" lon="2.32953">
        <ele>719.8</ele>
        <time>2022-05-21 02:12:28</time>
      </trkpt>
      <trkpt lat="41.85616" lon="2.32949">
        <ele>720</ele>
        <time>2022-05-21 02:12:29</time>
      </trkpt>
      <trkpt lat="41.85617" lon="2.32946">
        <ele>720.2</ele>
        <time>2022-05-21 02:12:30</time>
      </trkpt>
      <trkpt lat="41.8562" lon="2.32943">
        <ele>720.4</ele>
        <time>2022-05-21 02:12:31</time>
      </trkpt>
      <trkpt lat="41.85622" lon="2.32939">
        <ele>720.6</ele>
        <time>2022-05-21 02:12:32</time>
      </trkpt>
      <trkpt lat="41.85624" lon="2.32935">
        <ele>720.8</ele>
        <time>2022-05-21 02:12:33</time>
      </trkpt>
      <trkpt lat="41.85627" lon="2.32931">
        <ele>720.8</ele>
        <time>2022-05-21 02:12:34</time>
      </trkpt>
      <trkpt lat="41.85629" lon="2.32927">
        <ele>720.8</ele>
        <time>2022-05-21 02:12:35</time>
      </trkpt>
      <trkpt lat="41.85632" lon="2.32923">
        <ele>720.8</ele>
        <time>2022-05-21 02:12:36</time>
      </trkpt>
      <trkpt lat="41.85635" lon="2.32918">
        <ele>720.8</ele>
        <time>2022-05-21 02:12:37</time>
      </trkpt>
      <trkpt lat="41.85638" lon="2.32913">
        <ele>720.8</ele>
        <time>2022-05-21 02:12:38</time>
      </trkpt>
      <trkpt lat="41.85641" lon="2.32908">
        <ele>720.8</ele>
        <time>2022-05-21 02:12:39</time>
      </trkpt>
      <trkpt lat="41.85644" lon="2.32902">
        <ele>720.6</ele>
        <time>2022-05-21 02:12:40</time>
      </trkpt>
      <trkpt lat="41.85646" lon="2.32896">
        <ele>720.6</ele>
        <time>2022-05-21 02:12:41</time>
      </trkpt>
      <trkpt lat="41.8565" lon="2.32889">
        <ele>720.6</ele>
        <time>2022-05-21 02:12:42</time>
      </trkpt>
      <trkpt lat="41.85653" lon="2.32882">
        <ele>720.4</ele>
        <time>2022-05-21 02:12:43</time>
      </trkpt>
      <trkpt lat="41.85655" lon="2.32875">
        <ele>720.4</ele>
        <time>2022-05-21 02:12:44</time>
      </trkpt>
      <trkpt lat="41.85658" lon="2.32868">
        <ele>720.2</ele>
        <time>2022-05-21 02:12:45</time>
      </trkpt>
      <trkpt lat="41.85659" lon="2.32861">
        <ele>720.2</ele>
        <time>2022-05-21 02:12:46</time>
      </trkpt>
      <trkpt lat="41.85662" lon="2.32853">
        <ele>720.2</ele>
        <time>2022-05-21 02:12:47</time>
      </trkpt>
      <trkpt lat="41.85664" lon="2.32845">
        <ele>720</ele>
        <time>2022-05-21 02:12:48</time>
      </trkpt>
      <trkpt lat="41.85667" lon="2.32838">
        <ele>720</ele>
        <time>2022-05-21 02:12:49</time>
      </trkpt>
      <trkpt lat="41.85669" lon="2.32831">
        <ele>720</ele>
        <time>2022-05-21 02:12:50</time>
      </trkpt>
      <trkpt lat="41.85671" lon="2.32823">
        <ele>720</ele>
        <time>2022-05-21 02:12:51</time>
      </trkpt>
      <trkpt lat="41.85674" lon="2.32816">
        <ele>720</ele>
        <time>2022-05-21 02:12:52</time>
      </trkpt>
      <trkpt lat="41.85676" lon="2.32809">
        <ele>720</ele>
        <time>2022-05-21 02:12:53</time>
      </trkpt>
      <trkpt lat="41.8568" lon="2.32803">
        <ele>720</ele>
        <time>2022-05-21 02:12:54</time>
      </trkpt>
      <trkpt lat="41.85683" lon="2.32797">
        <ele>720</ele>
        <time>2022-05-21 02:12:55</time>
      </trkpt>
      <trkpt lat="41.85687" lon="2.32791">
        <ele>720</ele>
        <time>2022-05-21 02:12:56</time>
      </trkpt>
      <trkpt lat="41.85691" lon="2.32786">
        <ele>720</ele>
        <time>2022-05-21 02:12:57</time>
      </trkpt>
      <trkpt lat="41.85695" lon="2.32779">
        <ele>720.2</ele>
        <time>2022-05-21 02:12:58</time>
      </trkpt>
      <trkpt lat="41.85698" lon="2.32772">
        <ele>720.2</ele>
        <time>2022-05-21 02:12:59</time>
      </trkpt>
      <trkpt lat="41.85701" lon="2.32766">
        <ele>720</ele>
        <time>2022-05-21 02:13:00</time>
      </trkpt>
      <trkpt lat="41.85704" lon="2.32759">
        <ele>720</ele>
        <time>2022-05-21 02:13:01</time>
      </trkpt>
      <trkpt lat="41.85707" lon="2.32751">
        <ele>720</ele>
        <time>2022-05-21 02:13:02</time>
      </trkpt>
      <trkpt lat="41.85709" lon="2.32744">
        <ele>720</ele>
        <time>2022-05-21 02:13:03</time>
      </trkpt>
      <trkpt lat="41.85709" lon="2.32736">
        <ele>720</ele>
        <time>2022-05-21 02:13:04</time>
      </trkpt>
      <trkpt lat="41.8571" lon="2.32728">
        <ele>720</ele>
        <time>2022-05-21 02:13:05</time>
      </trkpt>
      <trkpt lat="41.85709" lon="2.32721">
        <ele>720</ele>
        <time>2022-05-21 02:13:06</time>
      </trkpt>
      <trkpt lat="41.85709" lon="2.32713">
        <ele>720</ele>
        <time>2022-05-21 02:13:07</time>
      </trkpt>
      <trkpt lat="41.8571" lon="2.32704">
        <ele>719.8</ele>
        <time>2022-05-21 02:13:08</time>
      </trkpt>
      <trkpt lat="41.85711" lon="2.32696">
        <ele>719.8</ele>
        <time>2022-05-21 02:13:09</time>
      </trkpt>
      <trkpt lat="41.85713" lon="2.32689">
        <ele>720</ele>
        <time>2022-05-21 02:13:10</time>
      </trkpt>
      <trkpt lat="41.85715" lon="2.32685">
        <ele>720</ele>
        <time>2022-05-21 02:13:11</time>
      </trkpt>
      <trkpt lat="41.85715" lon="2.32682">
        <ele>720.2</ele>
        <time>2022-05-21 02:13:12</time>
      </trkpt>
      <trkpt lat="41.85717" lon="2.3268">
        <ele>720.2</ele>
        <time>2022-05-21 02:13:13</time>
      </trkpt>
      <trkpt lat="41.85717" lon="2.32678">
        <ele>720.2</ele>
        <time>2022-05-21 02:13:14</time>
      </trkpt>
      <trkpt lat="41.85719" lon="2.32677">
        <ele>720.2</ele>
        <time>2022-05-21 02:13:15</time>
      </trkpt>
      <trkpt lat="41.85721" lon="2.32675">
        <ele>720.2</ele>
        <time>2022-05-21 02:13:16</time>
      </trkpt>
      <trkpt lat="41.85722" lon="2.32672">
        <ele>720.2</ele>
        <time>2022-05-21 02:13:17</time>
      </trkpt>
      <trkpt lat="41.85724" lon="2.3267">
        <ele>720.2</ele>
        <time>2022-05-21 02:13:18</time>
      </trkpt>
      <trkpt lat="41.85726" lon="2.32667">
        <ele>720.2</ele>
        <time>2022-05-21 02:13:19</time>
      </trkpt>
      <trkpt lat="41.85727" lon="2.32663">
        <ele>720.2</ele>
        <time>2022-05-21 02:13:20</time>
      </trkpt>
      <trkpt lat="41.85729" lon="2.3266">
        <ele>720.2</ele>
        <time>2022-05-21 02:13:21</time>
      </trkpt>
      <trkpt lat="41.85731" lon="2.32657">
        <ele>720.2</ele>
        <time>2022-05-21 02:13:22</time>
      </trkpt>
      <trkpt lat="41.85733" lon="2.32653">
        <ele>720.2</ele>
        <time>2022-05-21 02:13:23</time>
      </trkpt>
      <trkpt lat="41.85735" lon="2.3265">
        <ele>720.4</ele>
        <time>2022-05-21 02:13:24</time>
      </trkpt>
      <trkpt lat="41.85737" lon="2.32647">
        <ele>720.4</ele>
        <time>2022-05-21 02:13:25</time>
      </trkpt>
      <trkpt lat="41.85738" lon="2.32644">
        <ele>720.4</ele>
        <time>2022-05-21 02:13:26</time>
      </trkpt>
      <trkpt lat="41.8574" lon="2.3264">
        <ele>720.4</ele>
        <time>2022-05-21 02:13:27</time>
      </trkpt>
      <trkpt lat="41.85742" lon="2.32637">
        <ele>720.4</ele>
        <time>2022-05-21 02:13:28</time>
      </trkpt>
      <trkpt lat="41.85743" lon="2.32633">
        <ele>720.4</ele>
        <time>2022-05-21 02:13:29</time>
      </trkpt>
      <trkpt lat="41.85744" lon="2.32629">
        <ele>720.4</ele>
        <time>2022-05-21 02:13:30</time>
      </trkpt>
      <trkpt lat="41.85745" lon="2.32625">
        <ele>720.4</ele>
        <time>2022-05-21 02:13:31</time>
      </trkpt>
      <trkpt lat="41.85746" lon="2.32622">
        <ele>720.4</ele>
        <time>2022-05-21 02:13:32</time>
      </trkpt>
      <trkpt lat="41.85746" lon="2.32617">
        <ele>720.4</ele>
        <time>2022-05-21 02:13:33</time>
      </trkpt>
      <trkpt lat="41.85747" lon="2.32613">
        <ele>720.4</ele>
        <time>2022-05-21 02:13:34</time>
      </trkpt>
      <trkpt lat="41.85747" lon="2.3261">
        <ele>720.4</ele>
        <time>2022-05-21 02:13:35</time>
      </trkpt>
      <trkpt lat="41.85747" lon="2.32606">
        <ele>720.4</ele>
        <time>2022-05-21 02:13:36</time>
      </trkpt>
      <trkpt lat="41.85746" lon="2.32601">
        <ele>720.4</ele>
        <time>2022-05-21 02:13:37</time>
      </trkpt>
      <trkpt lat="41.85746" lon="2.32597">
        <ele>720.4</ele>
        <time>2022-05-21 02:13:38</time>
      </trkpt>
      <trkpt lat="41.85746" lon="2.32594">
        <ele>720.4</ele>
        <time>2022-05-21 02:13:39</time>
      </trkpt>
      <trkpt lat="41.85745" lon="2.3259">
        <ele>720.4</ele>
        <time>2022-05-21 02:13:40</time>
      </trkpt>
      <trkpt lat="41.85744" lon="2.32587">
        <ele>720.4</ele>
        <time>2022-05-21 02:13:41</time>
      </trkpt>
      <trkpt lat="41.85743" lon="2.32583">
        <ele>720.4</ele>
        <time>2022-05-21 02:13:42</time>
      </trkpt>
      <trkpt lat="41.85743" lon="2.3258">
        <ele>720.4</ele>
        <time>2022-05-21 02:13:43</time>
      </trkpt>
      <trkpt lat="41.85742" lon="2.32577">
        <ele>720.6</ele>
        <time>2022-05-21 02:13:44</time>
      </trkpt>
      <trkpt lat="41.85741" lon="2.32573">
        <ele>720.6</ele>
        <time>2022-05-21 02:13:45</time>
      </trkpt>
      <trkpt lat="41.85741" lon="2.3257">
        <ele>720.6</ele>
        <time>2022-05-21 02:13:46</time>
      </trkpt>
      <trkpt lat="41.8574" lon="2.32566">
        <ele>720.6</ele>
        <time>2022-05-21 02:13:47</time>
      </trkpt>
      <trkpt lat="41.8574" lon="2.32562">
        <ele>720.6</ele>
        <time>2022-05-21 02:13:48</time>
      </trkpt>
      <trkpt lat="41.85739" lon="2.32558">
        <ele>720.6</ele>
        <time>2022-05-21 02:13:49</time>
      </trkpt>
      <trkpt lat="41.85739" lon="2.32554">
        <ele>720.6</ele>
        <time>2022-05-21 02:13:50</time>
      </trkpt>
      <trkpt lat="41.85738" lon="2.32551">
        <ele>720.8</ele>
        <time>2022-05-21 02:13:51</time>
      </trkpt>
      <trkpt lat="41.85737" lon="2.32547">
        <ele>720.8</ele>
        <time>2022-05-21 02:13:52</time>
      </trkpt>
      <trkpt lat="41.85737" lon="2.32543">
        <ele>720.8</ele>
        <time>2022-05-21 02:13:53</time>
      </trkpt>
      <trkpt lat="41.85736" lon="2.32539">
        <ele>720.8</ele>
        <time>2022-05-21 02:13:54</time>
      </trkpt>
      <trkpt lat="41.85736" lon="2.32535">
        <ele>720.8</ele>
        <time>2022-05-21 02:13:55</time>
      </trkpt>
      <trkpt lat="41.85735" lon="2.32531">
        <ele>720.8</ele>
        <time>2022-05-21 02:13:56</time>
      </trkpt>
      <trkpt lat="41.85735" lon="2.32527">
        <ele>720.8</ele>
        <time>2022-05-21 02:13:57</time>
      </trkpt>
      <trkpt lat="41.85735" lon="2.32523">
        <ele>720.8</ele>
        <time>2022-05-21 02:13:58</time>
      </trkpt>
      <trkpt lat="41.85736" lon="2.32519">
        <ele>720.8</ele>
        <time>2022-05-21 02:13:59</time>
      </trkpt>
      <trkpt lat="41.85737" lon="2.32515">
        <ele>720.8</ele>
        <time>2022-05-21 02:14:00</time>
      </trkpt>
      <trkpt lat="41.85738" lon="2.32511">
        <ele>721</ele>
        <time>2022-05-21 02:14:01</time>
      </trkpt>
      <trkpt lat="41.85739" lon="2.32508">
        <ele>721</ele>
        <time>2022-05-21 02:14:02</time>
      </trkpt>
      <trkpt lat="41.85741" lon="2.32506">
        <ele>721</ele>
        <time>2022-05-21 02:14:03</time>
      </trkpt>
      <trkpt lat="41.85743" lon="2.32504">
        <ele>721</ele>
        <time>2022-05-21 02:14:04</time>
      </trkpt>
      <trkpt lat="41.85745" lon="2.32502">
        <ele>720.8</ele>
        <time>2022-05-21 02:14:05</time>
      </trkpt>
      <trkpt lat="41.85748" lon="2.32501">
        <ele>720.8</ele>
        <time>2022-05-21 02:14:06</time>
      </trkpt>
      <trkpt lat="41.8575" lon="2.32499">
        <ele>720.8</ele>
        <time>2022-05-21 02:14:07</time>
      </trkpt>
      <trkpt lat="41.85752" lon="2.32498">
        <ele>720.8</ele>
        <time>2022-05-21 02:14:08</time>
      </trkpt>
      <trkpt lat="41.85754" lon="2.32498">
        <ele>720.8</ele>
        <time>2022-05-21 02:14:09</time>
      </trkpt>
      <trkpt lat="41.85756" lon="2.32497">
        <ele>720.8</ele>
        <time>2022-05-21 02:14:10</time>
      </trkpt>
      <trkpt lat="41.85759" lon="2.32496">
        <ele>720.8</ele>
        <time>2022-05-21 02:14:11</time>
      </trkpt>
      <trkpt lat="41.85762" lon="2.32496">
        <ele>720.8</ele>
        <time>2022-05-21 02:14:12</time>
      </trkpt>
      <trkpt lat="41.85764" lon="2.32495">
        <ele>721</ele>
        <time>2022-05-21 02:14:13</time>
      </trkpt>
      <trkpt lat="41.85768" lon="2.32496">
        <ele>721</ele>
        <time>2022-05-21 02:14:14</time>
      </trkpt>
      <trkpt lat="41.85771" lon="2.32496">
        <ele>721.2</ele>
        <time>2022-05-21 02:14:15</time>
      </trkpt>
      <trkpt lat="41.85774" lon="2.32497">
        <ele>721.4</ele>
        <time>2022-05-21 02:14:16</time>
      </trkpt>
      <trkpt lat="41.85778" lon="2.32499">
        <ele>721.4</ele>
        <time>2022-05-21 02:14:17</time>
      </trkpt>
      <trkpt lat="41.85781" lon="2.32501">
        <ele>721.6</ele>
        <time>2022-05-21 02:14:18</time>
      </trkpt>
      <trkpt lat="41.85784" lon="2.32502">
        <ele>721.8</ele>
        <time>2022-05-21 02:14:19</time>
      </trkpt>
      <trkpt lat="41.85788" lon="2.32504">
        <ele>722.2</ele>
        <time>2022-05-21 02:14:20</time>
      </trkpt>
      <trkpt lat="41.85791" lon="2.32506">
        <ele>722.4</ele>
        <time>2022-05-21 02:14:21</time>
      </trkpt>
      <trkpt lat="41.85794" lon="2.32508">
        <ele>722.6</ele>
        <time>2022-05-21 02:14:22</time>
      </trkpt>
      <trkpt lat="41.85798" lon="2.32509">
        <ele>722.8</ele>
        <time>2022-05-21 02:14:23</time>
      </trkpt>
      <trkpt lat="41.85801" lon="2.32511">
        <ele>723</ele>
        <time>2022-05-21 02:14:24</time>
      </trkpt>
      <trkpt lat="41.85804" lon="2.32513">
        <ele>723.2</ele>
        <time>2022-05-21 02:14:25</time>
      </trkpt>
      <trkpt lat="41.85807" lon="2.32514">
        <ele>723.4</ele>
        <time>2022-05-21 02:14:26</time>
      </trkpt>
      <trkpt lat="41.8581" lon="2.32515">
        <ele>723.6</ele>
        <time>2022-05-21 02:14:27</time>
      </trkpt>
      <trkpt lat="41.85813" lon="2.32516">
        <ele>723.8</ele>
        <time>2022-05-21 02:14:28</time>
      </trkpt>
      <trkpt lat="41.85815" lon="2.32517">
        <ele>724</ele>
        <time>2022-05-21 02:14:29</time>
      </trkpt>
      <trkpt lat="41.85818" lon="2.32518">
        <ele>724.2</ele>
        <time>2022-05-21 02:14:30</time>
      </trkpt>
      <trkpt lat="41.8582" lon="2.32518">
        <ele>724.4</ele>
        <time>2022-05-21 02:14:31</time>
      </trkpt>
      <trkpt lat="41.85822" lon="2.32518">
        <ele>724.8</ele>
        <time>2022-05-21 02:14:32</time>
      </trkpt>
      <trkpt lat="41.85825" lon="2.32519">
        <ele>724.8</ele>
        <time>2022-05-21 02:14:33</time>
      </trkpt>
      <trkpt lat="41.85827" lon="2.3252">
        <ele>725</ele>
        <time>2022-05-21 02:14:34</time>
      </trkpt>
      <trkpt lat="41.8583" lon="2.3252">
        <ele>725.2</ele>
        <time>2022-05-21 02:14:35</time>
      </trkpt>
      <trkpt lat="41.85833" lon="2.32521">
        <ele>725.4</ele>
        <time>2022-05-21 02:14:36</time>
      </trkpt>
      <trkpt lat="41.85836" lon="2.32521">
        <ele>725.6</ele>
        <time>2022-05-21 02:14:37</time>
      </trkpt>
      <trkpt lat="41.85839" lon="2.32522">
        <ele>725.8</ele>
        <time>2022-05-21 02:14:38</time>
      </trkpt>
      <trkpt lat="41.85841" lon="2.32522">
        <ele>726</ele>
        <time>2022-05-21 02:14:39</time>
      </trkpt>
      <trkpt lat="41.85845" lon="2.32523">
        <ele>726</ele>
        <time>2022-05-21 02:14:40</time>
      </trkpt>
      <trkpt lat="41.85848" lon="2.32523">
        <ele>726</ele>
        <time>2022-05-21 02:14:41</time>
      </trkpt>
      <trkpt lat="41.85851" lon="2.32524">
        <ele>726.2</ele>
        <time>2022-05-21 02:14:42</time>
      </trkpt>
      <trkpt lat="41.85855" lon="2.32524">
        <ele>726.2</ele>
        <time>2022-05-21 02:14:43</time>
      </trkpt>
      <trkpt lat="41.85859" lon="2.32525">
        <ele>726</ele>
        <time>2022-05-21 02:14:44</time>
      </trkpt>
      <trkpt lat="41.85862" lon="2.32526">
        <ele>726</ele>
        <time>2022-05-21 02:14:45</time>
      </trkpt>
      <trkpt lat="41.85866" lon="2.32526">
        <ele>726</ele>
        <time>2022-05-21 02:14:46</time>
      </trkpt>
      <trkpt lat="41.8587" lon="2.32527">
        <ele>726</ele>
        <time>2022-05-21 02:14:47</time>
      </trkpt>
      <trkpt lat="41.85873" lon="2.32528">
        <ele>725.8</ele>
        <time>2022-05-21 02:14:48</time>
      </trkpt>
      <trkpt lat="41.85878" lon="2.32529">
        <ele>725.8</ele>
        <time>2022-05-21 02:14:49</time>
      </trkpt>
      <trkpt lat="41.85882" lon="2.32529">
        <ele>725.8</ele>
        <time>2022-05-21 02:14:50</time>
      </trkpt>
      <trkpt lat="41.85886" lon="2.3253">
        <ele>725.6</ele>
        <time>2022-05-21 02:14:51</time>
      </trkpt>
      <trkpt lat="41.8589" lon="2.32531">
        <ele>725.6</ele>
        <time>2022-05-21 02:14:52</time>
      </trkpt>
      <trkpt lat="41.85894" lon="2.32531">
        <ele>725.6</ele>
        <time>2022-05-21 02:14:53</time>
      </trkpt>
      <trkpt lat="41.85899" lon="2.32532">
        <ele>725.4</ele>
        <time>2022-05-21 02:14:54</time>
      </trkpt>
      <trkpt lat="41.85902" lon="2.32532">
        <ele>725.4</ele>
        <time>2022-05-21 02:14:55</time>
      </trkpt>
      <trkpt lat="41.85906" lon="2.32532">
        <ele>725.4</ele>
        <time>2022-05-21 02:14:56</time>
      </trkpt>
      <trkpt lat="41.8591" lon="2.32532">
        <ele>725.4</ele>
        <time>2022-05-21 02:14:57</time>
      </trkpt>
      <trkpt lat="41.85914" lon="2.32532">
        <ele>725.4</ele>
        <time>2022-05-21 02:14:58</time>
      </trkpt>
      <trkpt lat="41.85918" lon="2.32533">
        <ele>725.6</ele>
        <time>2022-05-21 02:14:59</time>
      </trkpt>
      <trkpt lat="41.85921" lon="2.32533">
        <ele>725.6</ele>
        <time>2022-05-21 02:15:00</time>
      </trkpt>
      <trkpt lat="41.85925" lon="2.32534">
        <ele>725.6</ele>
        <time>2022-05-21 02:15:01</time>
      </trkpt>
      <trkpt lat="41.85928" lon="2.32536">
        <ele>725.8</ele>
        <time>2022-05-21 02:15:02</time>
      </trkpt>
      <trkpt lat="41.85932" lon="2.32537">
        <ele>725.8</ele>
        <time>2022-05-21 02:15:03</time>
      </trkpt>
      <trkpt lat="41.85936" lon="2.32539">
        <ele>725.8</ele>
        <time>2022-05-21 02:15:04</time>
      </trkpt>
      <trkpt lat="41.85939" lon="2.32541">
        <ele>726</ele>
        <time>2022-05-21 02:15:05</time>
      </trkpt>
      <trkpt lat="41.85943" lon="2.32543">
        <ele>726</ele>
        <time>2022-05-21 02:15:06</time>
      </trkpt>
      <trkpt lat="41.85946" lon="2.32545">
        <ele>726.2</ele>
        <time>2022-05-21 02:15:07</time>
      </trkpt>
      <trkpt lat="41.85949" lon="2.32547">
        <ele>726.2</ele>
        <time>2022-05-21 02:15:08</time>
      </trkpt>
      <trkpt lat="41.85952" lon="2.32549">
        <ele>726.4</ele>
        <time>2022-05-21 02:15:09</time>
      </trkpt>
      <trkpt lat="41.85956" lon="2.32551">
        <ele>726.4</ele>
        <time>2022-05-21 02:15:10</time>
      </trkpt>
      <trkpt lat="41.85959" lon="2.32553">
        <ele>726.6</ele>
        <time>2022-05-21 02:15:11</time>
      </trkpt>
      <trkpt lat="41.85962" lon="2.32556">
        <ele>726.6</ele>
        <time>2022-05-21 02:15:12</time>
      </trkpt>
      <trkpt lat="41.85966" lon="2.32558">
        <ele>726.8</ele>
        <time>2022-05-21 02:15:13</time>
      </trkpt>
      <trkpt lat="41.85969" lon="2.3256">
        <ele>727</ele>
        <time>2022-05-21 02:15:14</time>
      </trkpt>
      <trkpt lat="41.85972" lon="2.32562">
        <ele>727</ele>
        <time>2022-05-21 02:15:15</time>
      </trkpt>
      <trkpt lat="41.85976" lon="2.32564">
        <ele>727.2</ele>
        <time>2022-05-21 02:15:16</time>
      </trkpt>
      <trkpt lat="41.8598" lon="2.32565">
        <ele>727.2</ele>
        <time>2022-05-21 02:15:17</time>
      </trkpt>
      <trkpt lat="41.85984" lon="2.32567">
        <ele>727.2</ele>
        <time>2022-05-21 02:15:18</time>
      </trkpt>
      <trkpt lat="41.85988" lon="2.32568">
        <ele>727.4</ele>
        <time>2022-05-21 02:15:19</time>
      </trkpt>
      <trkpt lat="41.85992" lon="2.32569">
        <ele>727.4</ele>
        <time>2022-05-21 02:15:20</time>
      </trkpt>
      <trkpt lat="41.85996" lon="2.32569">
        <ele>727.6</ele>
        <time>2022-05-21 02:15:21</time>
      </trkpt>
      <trkpt lat="41.85999" lon="2.32569">
        <ele>727.6</ele>
        <time>2022-05-21 02:15:22</time>
      </trkpt>
      <trkpt lat="41.86002" lon="2.32567">
        <ele>727.8</ele>
        <time>2022-05-21 02:15:23</time>
      </trkpt>
      <trkpt lat="41.86005" lon="2.32566">
        <ele>727.8</ele>
        <time>2022-05-21 02:15:24</time>
      </trkpt>
      <trkpt lat="41.86007" lon="2.32563">
        <ele>727.8</ele>
        <time>2022-05-21 02:15:25</time>
      </trkpt>
      <trkpt lat="41.86009" lon="2.32561">
        <ele>728</ele>
        <time>2022-05-21 02:15:26</time>
      </trkpt>
      <trkpt lat="41.86012" lon="2.32558">
        <ele>728</ele>
        <time>2022-05-21 02:15:27</time>
      </trkpt>
      <trkpt lat="41.86014" lon="2.32554">
        <ele>728</ele>
        <time>2022-05-21 02:15:28</time>
      </trkpt>
      <trkpt lat="41.86016" lon="2.32551">
        <ele>728</ele>
        <time>2022-05-21 02:15:29</time>
      </trkpt>
      <trkpt lat="41.86018" lon="2.32547">
        <ele>728.2</ele>
        <time>2022-05-21 02:15:30</time>
      </trkpt>
      <trkpt lat="41.8602" lon="2.32543">
        <ele>728.2</ele>
        <time>2022-05-21 02:15:31</time>
      </trkpt>
      <trkpt lat="41.86023" lon="2.32539">
        <ele>728.2</ele>
        <time>2022-05-21 02:15:32</time>
      </trkpt>
      <trkpt lat="41.86024" lon="2.32533">
        <ele>728.4</ele>
        <time>2022-05-21 02:15:33</time>
      </trkpt>
      <trkpt lat="41.86026" lon="2.32529">
        <ele>728.4</ele>
        <time>2022-05-21 02:15:34</time>
      </trkpt>
      <trkpt lat="41.86027" lon="2.32525">
        <ele>728.6</ele>
        <time>2022-05-21 02:15:35</time>
      </trkpt>
      <trkpt lat="41.86028" lon="2.3252">
        <ele>728.6</ele>
        <time>2022-05-21 02:15:36</time>
      </trkpt>
      <trkpt lat="41.86029" lon="2.32516">
        <ele>728.6</ele>
        <time>2022-05-21 02:15:37</time>
      </trkpt>
      <trkpt lat="41.86029" lon="2.32511">
        <ele>728.6</ele>
        <time>2022-05-21 02:15:38</time>
      </trkpt>
      <trkpt lat="41.86031" lon="2.32505">
        <ele>728.8</ele>
        <time>2022-05-21 02:15:39</time>
      </trkpt>
      <trkpt lat="41.86031" lon="2.325">
        <ele>728.8</ele>
        <time>2022-05-21 02:15:40</time>
      </trkpt>
      <trkpt lat="41.86032" lon="2.32495">
        <ele>728.8</ele>
        <time>2022-05-21 02:15:41</time>
      </trkpt>
      <trkpt lat="41.86032" lon="2.32489">
        <ele>729</ele>
        <time>2022-05-21 02:15:42</time>
      </trkpt>
      <trkpt lat="41.86032" lon="2.32484">
        <ele>729</ele>
        <time>2022-05-21 02:15:43</time>
      </trkpt>
      <trkpt lat="41.86032" lon="2.32479">
        <ele>729</ele>
        <time>2022-05-21 02:15:44</time>
      </trkpt>
      <trkpt lat="41.86032" lon="2.32474">
        <ele>729.2</ele>
        <time>2022-05-21 02:15:45</time>
      </trkpt>
      <trkpt lat="41.86032" lon="2.32469">
        <ele>729.2</ele>
        <time>2022-05-21 02:15:46</time>
      </trkpt>
      <trkpt lat="41.86032" lon="2.32463">
        <ele>729.4</ele>
        <time>2022-05-21 02:15:47</time>
      </trkpt>
      <trkpt lat="41.86031" lon="2.32457">
        <ele>729.4</ele>
        <time>2022-05-21 02:15:48</time>
      </trkpt>
      <trkpt lat="41.86031" lon="2.32452">
        <ele>729.6</ele>
        <time>2022-05-21 02:15:49</time>
      </trkpt>
      <trkpt lat="41.86031" lon="2.32447">
        <ele>729.6</ele>
        <time>2022-05-21 02:15:50</time>
      </trkpt>
      <trkpt lat="41.86031" lon="2.32441">
        <ele>729.8</ele>
        <time>2022-05-21 02:15:51</time>
      </trkpt>
      <trkpt lat="41.86032" lon="2.32435">
        <ele>730</ele>
        <time>2022-05-21 02:15:52</time>
      </trkpt>
      <trkpt lat="41.86033" lon="2.32429">
        <ele>730.2</ele>
        <time>2022-05-21 02:15:53</time>
      </trkpt>
      <trkpt lat="41.86034" lon="2.32423">
        <ele>730.4</ele>
        <time>2022-05-21 02:15:54</time>
      </trkpt>
      <trkpt lat="41.86034" lon="2.32416">
        <ele>730.6</ele>
        <time>2022-05-21 02:15:55</time>
      </trkpt>
      <trkpt lat="41.86036" lon="2.3241">
        <ele>731</ele>
        <time>2022-05-21 02:15:56</time>
      </trkpt>
      <trkpt lat="41.86037" lon="2.32403">
        <ele>731.2</ele>
        <time>2022-05-21 02:15:57</time>
      </trkpt>
      <trkpt lat="41.86038" lon="2.32396">
        <ele>731.4</ele>
        <time>2022-05-21 02:15:58</time>
      </trkpt>
      <trkpt lat="41.8604" lon="2.3239">
        <ele>731.8</ele>
        <time>2022-05-21 02:15:59</time>
      </trkpt>
      <trkpt lat="41.86041" lon="2.32384">
        <ele>732</ele>
        <time>2022-05-21 02:16:00</time>
      </trkpt>
      <trkpt lat="41.86043" lon="2.32379">
        <ele>732.2</ele>
        <time>2022-05-21 02:16:01</time>
      </trkpt>
      <trkpt lat="41.86045" lon="2.32373">
        <ele>732.4</ele>
        <time>2022-05-21 02:16:02</time>
      </trkpt>
      <trkpt lat="41.86048" lon="2.32369">
        <ele>732.6</ele>
        <time>2022-05-21 02:16:03</time>
      </trkpt>
      <trkpt lat="41.86051" lon="2.32364">
        <ele>732.8</ele>
        <time>2022-05-21 02:16:04</time>
      </trkpt>
      <trkpt lat="41.86055" lon="2.32361">
        <ele>733.2</ele>
        <time>2022-05-21 02:16:05</time>
      </trkpt>
      <trkpt lat="41.86058" lon="2.32358">
        <ele>733.4</ele>
        <time>2022-05-21 02:16:06</time>
      </trkpt>
      <trkpt lat="41.86063" lon="2.32355">
        <ele>733.6</ele>
        <time>2022-05-21 02:16:07</time>
      </trkpt>
      <trkpt lat="41.86066" lon="2.32353">
        <ele>733.8</ele>
        <time>2022-05-21 02:16:08</time>
      </trkpt>
      <trkpt lat="41.8607" lon="2.32351">
        <ele>734</ele>
        <time>2022-05-21 02:16:09</time>
      </trkpt>
      <trkpt lat="41.86075" lon="2.32349">
        <ele>734.2</ele>
        <time>2022-05-21 02:16:10</time>
      </trkpt>
      <trkpt lat="41.86079" lon="2.32348">
        <ele>734.4</ele>
        <time>2022-05-21 02:16:11</time>
      </trkpt>
      <trkpt lat="41.86083" lon="2.32346">
        <ele>734.6</ele>
        <time>2022-05-21 02:16:12</time>
      </trkpt>
      <trkpt lat="41.86088" lon="2.32345">
        <ele>734.8</ele>
        <time>2022-05-21 02:16:13</time>
      </trkpt>
      <trkpt lat="41.86092" lon="2.32344">
        <ele>735</ele>
        <time>2022-05-21 02:16:14</time>
      </trkpt>
      <trkpt lat="41.86096" lon="2.32344">
        <ele>735.2</ele>
        <time>2022-05-21 02:16:15</time>
      </trkpt>
      <trkpt lat="41.86101" lon="2.32345">
        <ele>735.4</ele>
        <time>2022-05-21 02:16:16</time>
      </trkpt>
      <trkpt lat="41.86105" lon="2.32346">
        <ele>735.8</ele>
        <time>2022-05-21 02:16:17</time>
      </trkpt>
      <trkpt lat="41.86108" lon="2.32348">
        <ele>736</ele>
        <time>2022-05-21 02:16:18</time>
      </trkpt>
      <trkpt lat="41.86112" lon="2.3235">
        <ele>736.4</ele>
        <time>2022-05-21 02:16:19</time>
      </trkpt>
      <trkpt lat="41.86116" lon="2.32353">
        <ele>736.6</ele>
        <time>2022-05-21 02:16:20</time>
      </trkpt>
      <trkpt lat="41.86119" lon="2.32356">
        <ele>737</ele>
        <time>2022-05-21 02:16:21</time>
      </trkpt>
      <trkpt lat="41.86122" lon="2.32359">
        <ele>737.2</ele>
        <time>2022-05-21 02:16:22</time>
      </trkpt>
      <trkpt lat="41.86125" lon="2.32362">
        <ele>737.4</ele>
        <time>2022-05-21 02:16:23</time>
      </trkpt>
      <trkpt lat="41.86128" lon="2.32366">
        <ele>737.8</ele>
        <time>2022-05-21 02:16:24</time>
      </trkpt>
      <trkpt lat="41.86131" lon="2.32369">
        <ele>738</ele>
        <time>2022-05-21 02:16:25</time>
      </trkpt>
      <trkpt lat="41.86134" lon="2.32372">
        <ele>738.2</ele>
        <time>2022-05-21 02:16:26</time>
      </trkpt>
      <trkpt lat="41.86137" lon="2.32375">
        <ele>738.4</ele>
        <time>2022-05-21 02:16:27</time>
      </trkpt>
      <trkpt lat="41.86141" lon="2.32379">
        <ele>738.6</ele>
        <time>2022-05-21 02:16:28</time>
      </trkpt>
      <trkpt lat="41.86144" lon="2.32381">
        <ele>738.8</ele>
        <time>2022-05-21 02:16:29</time>
      </trkpt>
      <trkpt lat="41.86147" lon="2.32382">
        <ele>739.2</ele>
        <time>2022-05-21 02:16:30</time>
      </trkpt>
      <trkpt lat="41.86151" lon="2.32383">
        <ele>739.4</ele>
        <time>2022-05-21 02:16:31</time>
      </trkpt>
      <trkpt lat="41.86153" lon="2.32383">
        <ele>739.6</ele>
        <time>2022-05-21 02:16:32</time>
      </trkpt>
      <trkpt lat="41.86156" lon="2.32383">
        <ele>739.8</ele>
        <time>2022-05-21 02:16:33</time>
      </trkpt>
      <trkpt lat="41.86159" lon="2.32382">
        <ele>740</ele>
        <time>2022-05-21 02:16:34</time>
      </trkpt>
      <trkpt lat="41.86161" lon="2.32381">
        <ele>740.2</ele>
        <time>2022-05-21 02:16:35</time>
      </trkpt>
      <trkpt lat="41.86164" lon="2.3238">
        <ele>740.4</ele>
        <time>2022-05-21 02:16:36</time>
      </trkpt>
      <trkpt lat="41.86166" lon="2.32379">
        <ele>740.4</ele>
        <time>2022-05-21 02:16:37</time>
      </trkpt>
      <trkpt lat="41.86169" lon="2.32377">
        <ele>740.6</ele>
        <time>2022-05-21 02:16:38</time>
      </trkpt>
      <trkpt lat="41.86171" lon="2.32375">
        <ele>740.8</ele>
        <time>2022-05-21 02:16:39</time>
      </trkpt>
      <trkpt lat="41.86174" lon="2.32373">
        <ele>740.8</ele>
        <time>2022-05-21 02:16:40</time>
      </trkpt>
      <trkpt lat="41.86176" lon="2.32371">
        <ele>741</ele>
        <time>2022-05-21 02:16:41</time>
      </trkpt>
      <trkpt lat="41.86178" lon="2.32369">
        <ele>741.2</ele>
        <time>2022-05-21 02:16:42</time>
      </trkpt>
      <trkpt lat="41.8618" lon="2.32366">
        <ele>741.2</ele>
        <time>2022-05-21 02:16:43</time>
      </trkpt>
      <trkpt lat="41.86182" lon="2.32363">
        <ele>741.4</ele>
        <time>2022-05-21 02:16:44</time>
      </trkpt>
      <trkpt lat="41.86185" lon="2.3236">
        <ele>741.6</ele>
        <time>2022-05-21 02:16:45</time>
      </trkpt>
      <trkpt lat="41.86187" lon="2.32357">
        <ele>741.6</ele>
        <time>2022-05-21 02:16:46</time>
      </trkpt>
      <trkpt lat="41.8619" lon="2.32354">
        <ele>741.8</ele>
        <time>2022-05-21 02:16:47</time>
      </trkpt>
      <trkpt lat="41.86192" lon="2.32351">
        <ele>742</ele>
        <time>2022-05-21 02:16:48</time>
      </trkpt>
      <trkpt lat="41.86196" lon="2.32348">
        <ele>742</ele>
        <time>2022-05-21 02:16:49</time>
      </trkpt>
      <trkpt lat="41.86199" lon="2.32347">
        <ele>742.2</ele>
        <time>2022-05-21 02:16:50</time>
      </trkpt>
      <trkpt lat="41.86202" lon="2.32346">
        <ele>742.4</ele>
        <time>2022-05-21 02:16:51</time>
      </trkpt>
      <trkpt lat="41.86206" lon="2.32346">
        <ele>742.4</ele>
        <time>2022-05-21 02:16:52</time>
      </trkpt>
      <trkpt lat="41.86209" lon="2.32346">
        <ele>742.6</ele>
        <time>2022-05-21 02:16:53</time>
      </trkpt>
      <trkpt lat="41.86213" lon="2.32347">
        <ele>742.8</ele>
        <time>2022-05-21 02:16:54</time>
      </trkpt>
      <trkpt lat="41.86216" lon="2.32349">
        <ele>743</ele>
        <time>2022-05-21 02:16:55</time>
      </trkpt>
      <trkpt lat="41.86219" lon="2.32351">
        <ele>743.2</ele>
        <time>2022-05-21 02:16:56</time>
      </trkpt>
      <trkpt lat="41.86221" lon="2.32354">
        <ele>743.4</ele>
        <time>2022-05-21 02:16:57</time>
      </trkpt>
      <trkpt lat="41.86224" lon="2.32357">
        <ele>743.6</ele>
        <time>2022-05-21 02:16:58</time>
      </trkpt>
      <trkpt lat="41.86227" lon="2.3236">
        <ele>743.6</ele>
        <time>2022-05-21 02:16:59</time>
      </trkpt>
      <trkpt lat="41.86229" lon="2.32364">
        <ele>743.8</ele>
        <time>2022-05-21 02:17:00</time>
      </trkpt>
      <trkpt lat="41.86233" lon="2.32368">
        <ele>744</ele>
        <time>2022-05-21 02:17:01</time>
      </trkpt>
      <trkpt lat="41.86235" lon="2.32371">
        <ele>744.2</ele>
        <time>2022-05-21 02:17:02</time>
      </trkpt>
      <trkpt lat="41.86238" lon="2.32374">
        <ele>744.2</ele>
        <time>2022-05-21 02:17:03</time>
      </trkpt>
      <trkpt lat="41.86241" lon="2.32377">
        <ele>744.4</ele>
        <time>2022-05-21 02:17:04</time>
      </trkpt>
      <trkpt lat="41.86244" lon="2.3238">
        <ele>744.6</ele>
        <time>2022-05-21 02:17:05</time>
      </trkpt>
      <trkpt lat="41.86247" lon="2.32382">
        <ele>744.8</ele>
        <time>2022-05-21 02:17:06</time>
      </trkpt>
      <trkpt lat="41.86251" lon="2.32384">
        <ele>745</ele>
        <time>2022-05-21 02:17:07</time>
      </trkpt>
      <trkpt lat="41.86254" lon="2.32386">
        <ele>745.2</ele>
        <time>2022-05-21 02:17:08</time>
      </trkpt>
      <trkpt lat="41.86258" lon="2.32387">
        <ele>745.2</ele>
        <time>2022-05-21 02:17:09</time>
      </trkpt>
      <trkpt lat="41.86262" lon="2.32388">
        <ele>745.4</ele>
        <time>2022-05-21 02:17:10</time>
      </trkpt>
      <trkpt lat="41.86266" lon="2.32389">
        <ele>745.6</ele>
        <time>2022-05-21 02:17:11</time>
      </trkpt>
      <trkpt lat="41.8627" lon="2.32388">
        <ele>745.6</ele>
        <time>2022-05-21 02:17:12</time>
      </trkpt>
      <trkpt lat="41.86274" lon="2.32388">
        <ele>745.8</ele>
        <time>2022-05-21 02:17:13</time>
      </trkpt>
      <trkpt lat="41.86278" lon="2.32387">
        <ele>746</ele>
        <time>2022-05-21 02:17:14</time>
      </trkpt>
      <trkpt lat="41.86282" lon="2.32386">
        <ele>746</ele>
        <time>2022-05-21 02:17:15</time>
      </trkpt>
      <trkpt lat="41.86286" lon="2.32385">
        <ele>746.2</ele>
        <time>2022-05-21 02:17:16</time>
      </trkpt>
      <trkpt lat="41.86289" lon="2.32384">
        <ele>746.4</ele>
        <time>2022-05-21 02:17:17</time>
      </trkpt>
      <trkpt lat="41.86293" lon="2.32383">
        <ele>746.6</ele>
        <time>2022-05-21 02:17:18</time>
      </trkpt>
      <trkpt lat="41.86297" lon="2.32381">
        <ele>746.6</ele>
        <time>2022-05-21 02:17:19</time>
      </trkpt>
      <trkpt lat="41.86301" lon="2.3238">
        <ele>746.8</ele>
        <time>2022-05-21 02:17:20</time>
      </trkpt>
      <trkpt lat="41.86304" lon="2.32378">
        <ele>747</ele>
        <time>2022-05-21 02:17:21</time>
      </trkpt>
      <trkpt lat="41.86307" lon="2.32375">
        <ele>747.2</ele>
        <time>2022-05-21 02:17:22</time>
      </trkpt>
      <trkpt lat="41.86309" lon="2.32373">
        <ele>747.4</ele>
        <time>2022-05-21 02:17:23</time>
      </trkpt>
      <trkpt lat="41.86312" lon="2.32369">
        <ele>747.6</ele>
        <time>2022-05-21 02:17:24</time>
      </trkpt>
      <trkpt lat="41.86314" lon="2.32366">
        <ele>747.8</ele>
        <time>2022-05-21 02:17:25</time>
      </trkpt>
      <trkpt lat="41.86316" lon="2.32362">
        <ele>748</ele>
        <time>2022-05-21 02:17:26</time>
      </trkpt>
      <trkpt lat="41.86317" lon="2.32359">
        <ele>748.2</ele>
        <time>2022-05-21 02:17:27</time>
      </trkpt>
      <trkpt lat="41.86319" lon="2.32355">
        <ele>748.4</ele>
        <time>2022-05-21 02:17:28</time>
      </trkpt>
      <trkpt lat="41.8632" lon="2.32351">
        <ele>748.6</ele>
        <time>2022-05-21 02:17:29</time>
      </trkpt>
      <trkpt lat="41.86321" lon="2.32347">
        <ele>748.8</ele>
        <time>2022-05-21 02:17:30</time>
      </trkpt>
      <trkpt lat="41.86323" lon="2.32343">
        <ele>749</ele>
        <time>2022-05-21 02:17:31</time>
      </trkpt>
      <trkpt lat="41.86324" lon="2.32339">
        <ele>749</ele>
        <time>2022-05-21 02:17:32</time>
      </trkpt>
      <trkpt lat="41.86326" lon="2.32335">
        <ele>749.2</ele>
        <time>2022-05-21 02:17:33</time>
      </trkpt>
      <trkpt lat="41.86327" lon="2.32331">
        <ele>749.4</ele>
        <time>2022-05-21 02:17:34</time>
      </trkpt>
      <trkpt lat="41.8633" lon="2.32328">
        <ele>749.6</ele>
        <time>2022-05-21 02:17:35</time>
      </trkpt>
      <trkpt lat="41.86332" lon="2.32325">
        <ele>749.8</ele>
        <time>2022-05-21 02:17:36</time>
      </trkpt>
      <trkpt lat="41.86334" lon="2.32323">
        <ele>749.8</ele>
        <time>2022-05-21 02:17:37</time>
      </trkpt>
      <trkpt lat="41.86337" lon="2.32321">
        <ele>750</ele>
        <time>2022-05-21 02:17:38</time>
      </trkpt>
      <trkpt lat="41.8634" lon="2.32319">
        <ele>750.2</ele>
        <time>2022-05-21 02:17:39</time>
      </trkpt>
      <trkpt lat="41.86343" lon="2.32317">
        <ele>750.6</ele>
        <time>2022-05-21 02:17:40</time>
      </trkpt>
      <trkpt lat="41.86346" lon="2.32316">
        <ele>750.8</ele>
        <time>2022-05-21 02:17:41</time>
      </trkpt>
      <trkpt lat="41.86348" lon="2.32315">
        <ele>751</ele>
        <time>2022-05-21 02:17:42</time>
      </trkpt>
      <trkpt lat="41.86351" lon="2.32314">
        <ele>751.2</ele>
        <time>2022-05-21 02:17:43</time>
      </trkpt>
      <trkpt lat="41.86354" lon="2.32313">
        <ele>751.4</ele>
        <time>2022-05-21 02:17:44</time>
      </trkpt>
      <trkpt lat="41.86356" lon="2.32312">
        <ele>751.6</ele>
        <time>2022-05-21 02:17:45</time>
      </trkpt>
      <trkpt lat="41.86359" lon="2.3231">
        <ele>751.8</ele>
        <time>2022-05-21 02:17:46</time>
      </trkpt>
      <trkpt lat="41.86362" lon="2.32307">
        <ele>752</ele>
        <time>2022-05-21 02:17:47</time>
      </trkpt>
      <trkpt lat="41.86364" lon="2.32304">
        <ele>752.2</ele>
        <time>2022-05-21 02:17:48</time>
      </trkpt>
      <trkpt lat="41.86366" lon="2.32301">
        <ele>752.4</ele>
        <time>2022-05-21 02:17:49</time>
      </trkpt>
      <trkpt lat="41.86369" lon="2.32298">
        <ele>752.6</ele>
        <time>2022-05-21 02:17:50</time>
      </trkpt>
      <trkpt lat="41.8637" lon="2.32294">
        <ele>752.8</ele>
        <time>2022-05-21 02:17:51</time>
      </trkpt>
      <trkpt lat="41.8637" lon="2.32291">
        <ele>753</ele>
        <time>2022-05-21 02:17:52</time>
      </trkpt>
      <trkpt lat="41.86371" lon="2.32287">
        <ele>753.2</ele>
        <time>2022-05-21 02:17:53</time>
      </trkpt>
      <trkpt lat="41.86371" lon="2.32283">
        <ele>753.4</ele>
        <time>2022-05-21 02:17:54</time>
      </trkpt>
      <trkpt lat="41.86372" lon="2.32279">
        <ele>753.6</ele>
        <time>2022-05-21 02:17:55</time>
      </trkpt>
      <trkpt lat="41.86372" lon="2.32275">
        <ele>753.8</ele>
        <time>2022-05-21 02:17:56</time>
      </trkpt>
      <trkpt lat="41.86373" lon="2.32271">
        <ele>754</ele>
        <time>2022-05-21 02:17:57</time>
      </trkpt>
      <trkpt lat="41.86374" lon="2.32267">
        <ele>754.2</ele>
        <time>2022-05-21 02:17:58</time>
      </trkpt>
      <trkpt lat="41.86375" lon="2.32263">
        <ele>754.2</ele>
        <time>2022-05-21 02:17:59</time>
      </trkpt>
      <trkpt lat="41.86376" lon="2.32258">
        <ele>754.4</ele>
        <time>2022-05-21 02:18:00</time>
      </trkpt>
      <trkpt lat="41.86378" lon="2.32254">
        <ele>754.4</ele>
        <time>2022-05-21 02:18:01</time>
      </trkpt>
      <trkpt lat="41.86381" lon="2.3225">
        <ele>754.6</ele>
        <time>2022-05-21 02:18:02</time>
      </trkpt>
      <trkpt lat="41.86384" lon="2.32246">
        <ele>754.6</ele>
        <time>2022-05-21 02:18:03</time>
      </trkpt>
      <trkpt lat="41.86388" lon="2.32244">
        <ele>754.8</ele>
        <time>2022-05-21 02:18:04</time>
      </trkpt>
      <trkpt lat="41.86391" lon="2.32243">
        <ele>754.8</ele>
        <time>2022-05-21 02:18:05</time>
      </trkpt>
      <trkpt lat="41.86395" lon="2.32242">
        <ele>755</ele>
        <time>2022-05-21 02:18:06</time>
      </trkpt>
      <trkpt lat="41.86398" lon="2.32242">
        <ele>755.2</ele>
        <time>2022-05-21 02:18:07</time>
      </trkpt>
      <trkpt lat="41.86401" lon="2.32242">
        <ele>755.4</ele>
        <time>2022-05-21 02:18:08</time>
      </trkpt>
      <trkpt lat="41.86404" lon="2.32243">
        <ele>755.6</ele>
        <time>2022-05-21 02:18:09</time>
      </trkpt>
      <trkpt lat="41.86408" lon="2.32244">
        <ele>755.8</ele>
        <time>2022-05-21 02:18:10</time>
      </trkpt>
      <trkpt lat="41.86412" lon="2.32246">
        <ele>756</ele>
        <time>2022-05-21 02:18:11</time>
      </trkpt>
      <trkpt lat="41.86415" lon="2.32248">
        <ele>756.2</ele>
        <time>2022-05-21 02:18:12</time>
      </trkpt>
      <trkpt lat="41.86417" lon="2.32249">
        <ele>756.4</ele>
        <time>2022-05-21 02:18:13</time>
      </trkpt>
      <trkpt lat="41.8642" lon="2.32251">
        <ele>756.6</ele>
        <time>2022-05-21 02:18:14</time>
      </trkpt>
      <trkpt lat="41.86423" lon="2.32254">
        <ele>756.8</ele>
        <time>2022-05-21 02:18:15</time>
      </trkpt>
      <trkpt lat="41.86425" lon="2.32256">
        <ele>757</ele>
        <time>2022-05-21 02:18:16</time>
      </trkpt>
      <trkpt lat="41.86427" lon="2.32258">
        <ele>757.2</ele>
        <time>2022-05-21 02:18:17</time>
      </trkpt>
      <trkpt lat="41.8643" lon="2.32261">
        <ele>757.6</ele>
        <time>2022-05-21 02:18:18</time>
      </trkpt>
      <trkpt lat="41.86433" lon="2.32263">
        <ele>757.8</ele>
        <time>2022-05-21 02:18:19</time>
      </trkpt>
      <trkpt lat="41.86436" lon="2.32266">
        <ele>758</ele>
        <time>2022-05-21 02:18:20</time>
      </trkpt>
      <trkpt lat="41.86439" lon="2.32268">
        <ele>758.2</ele>
        <time>2022-05-21 02:18:21</time>
      </trkpt>
      <trkpt lat="41.86442" lon="2.32271">
        <ele>758.4</ele>
        <time>2022-05-21 02:18:22</time>
      </trkpt>
      <trkpt lat="41.86444" lon="2.32273">
        <ele>758.6</ele>
        <time>2022-05-21 02:18:23</time>
      </trkpt>
      <trkpt lat="41.86447" lon="2.32275">
        <ele>758.8</ele>
        <time>2022-05-21 02:18:24</time>
      </trkpt>
      <trkpt lat="41.8645" lon="2.32278">
        <ele>759.2</ele>
        <time>2022-05-21 02:18:25</time>
      </trkpt>
      <trkpt lat="41.86453" lon="2.3228">
        <ele>759.4</ele>
        <time>2022-05-21 02:18:26</time>
      </trkpt>
      <trkpt lat="41.86456" lon="2.32282">
        <ele>759.6</ele>
        <time>2022-05-21 02:18:27</time>
      </trkpt>
      <trkpt lat="41.86459" lon="2.32285">
        <ele>759.8</ele>
        <time>2022-05-21 02:18:28</time>
      </trkpt>
      <trkpt lat="41.86461" lon="2.32287">
        <ele>760.2</ele>
        <time>2022-05-21 02:18:29</time>
      </trkpt>
      <trkpt lat="41.86464" lon="2.32289">
        <ele>760.4</ele>
        <time>2022-05-21 02:18:30</time>
      </trkpt>
      <trkpt lat="41.86468" lon="2.32291">
        <ele>760.6</ele>
        <time>2022-05-21 02:18:31</time>
      </trkpt>
      <trkpt lat="41.8647" lon="2.32293">
        <ele>760.8</ele>
        <time>2022-05-21 02:18:32</time>
      </trkpt>
      <trkpt lat="41.86473" lon="2.32294">
        <ele>761</ele>
        <time>2022-05-21 02:18:33</time>
      </trkpt>
      <trkpt lat="41.86477" lon="2.32295">
        <ele>761.4</ele>
        <time>2022-05-21 02:18:34</time>
      </trkpt>
      <trkpt lat="41.8648" lon="2.32295">
        <ele>761.6</ele>
        <time>2022-05-21 02:18:35</time>
      </trkpt>
      <trkpt lat="41.86483" lon="2.32295">
        <ele>761.8</ele>
        <time>2022-05-21 02:18:36</time>
      </trkpt>
      <trkpt lat="41.86487" lon="2.32294">
        <ele>762</ele>
        <time>2022-05-21 02:18:37</time>
      </trkpt>
      <trkpt lat="41.86489" lon="2.32293">
        <ele>762.2</ele>
        <time>2022-05-21 02:18:38</time>
      </trkpt>
      <trkpt lat="41.86493" lon="2.32291">
        <ele>762.4</ele>
        <time>2022-05-21 02:18:39</time>
      </trkpt>
      <trkpt lat="41.86496" lon="2.32289">
        <ele>762.6</ele>
        <time>2022-05-21 02:18:40</time>
      </trkpt>
      <trkpt lat="41.86498" lon="2.32286">
        <ele>762.8</ele>
        <time>2022-05-21 02:18:41</time>
      </trkpt>
      <trkpt lat="41.86501" lon="2.32283">
        <ele>763</ele>
        <time>2022-05-21 02:18:42</time>
      </trkpt>
      <trkpt lat="41.86503" lon="2.3228">
        <ele>763</ele>
        <time>2022-05-21 02:18:43</time>
      </trkpt>
      <trkpt lat="41.86505" lon="2.32276">
        <ele>763.2</ele>
        <time>2022-05-21 02:18:44</time>
      </trkpt>
      <trkpt lat="41.86507" lon="2.32273">
        <ele>763.4</ele>
        <time>2022-05-21 02:18:45</time>
      </trkpt>
      <trkpt lat="41.86509" lon="2.32269">
        <ele>763.4</ele>
        <time>2022-05-21 02:18:46</time>
      </trkpt>
      <trkpt lat="41.8651" lon="2.32265">
        <ele>763.6</ele>
        <time>2022-05-21 02:18:47</time>
      </trkpt>
      <trkpt lat="41.86511" lon="2.32262">
        <ele>763.6</ele>
        <time>2022-05-21 02:18:48</time>
      </trkpt>
      <trkpt lat="41.86512" lon="2.32258">
        <ele>763.8</ele>
        <time>2022-05-21 02:18:49</time>
      </trkpt>
      <trkpt lat="41.86514" lon="2.32254">
        <ele>763.8</ele>
        <time>2022-05-21 02:18:50</time>
      </trkpt>
      <trkpt lat="41.86515" lon="2.32251">
        <ele>764</ele>
        <time>2022-05-21 02:18:51</time>
      </trkpt>
      <trkpt lat="41.86517" lon="2.32247">
        <ele>764</ele>
        <time>2022-05-21 02:18:52</time>
      </trkpt>
      <trkpt lat="41.86518" lon="2.32244">
        <ele>764.2</ele>
        <time>2022-05-21 02:18:53</time>
      </trkpt>
      <trkpt lat="41.8652" lon="2.3224">
        <ele>764.2</ele>
        <time>2022-05-21 02:18:54</time>
      </trkpt>
      <trkpt lat="41.86522" lon="2.32237">
        <ele>764.4</ele>
        <time>2022-05-21 02:18:55</time>
      </trkpt>
      <trkpt lat="41.86525" lon="2.32233">
        <ele>764.4</ele>
        <time>2022-05-21 02:18:56</time>
      </trkpt>
      <trkpt lat="41.86527" lon="2.3223">
        <ele>764.6</ele>
        <time>2022-05-21 02:18:57</time>
      </trkpt>
      <trkpt lat="41.86529" lon="2.32227">
        <ele>764.6</ele>
        <time>2022-05-21 02:18:58</time>
      </trkpt>
      <trkpt lat="41.86533" lon="2.32224">
        <ele>764.8</ele>
        <time>2022-05-21 02:18:59</time>
      </trkpt>
      <trkpt lat="41.86535" lon="2.32222">
        <ele>765</ele>
        <time>2022-05-21 02:19:00</time>
      </trkpt>
      <trkpt lat="41.86538" lon="2.32219">
        <ele>765.2</ele>
        <time>2022-05-21 02:19:01</time>
      </trkpt>
      <trkpt lat="41.86542" lon="2.32217">
        <ele>765.2</ele>
        <time>2022-05-21 02:19:02</time>
      </trkpt>
      <trkpt lat="41.86545" lon="2.32214">
        <ele>765.4</ele>
        <time>2022-05-21 02:19:03</time>
      </trkpt>
      <trkpt lat="41.86548" lon="2.32212">
        <ele>765.4</ele>
        <time>2022-05-21 02:19:04</time>
      </trkpt>
      <trkpt lat="41.86552" lon="2.32209">
        <ele>765.4</ele>
        <time>2022-05-21 02:19:05</time>
      </trkpt>
      <trkpt lat="41.86556" lon="2.32206">
        <ele>765.6</ele>
        <time>2022-05-21 02:19:06</time>
      </trkpt>
      <trkpt lat="41.8656" lon="2.32203">
        <ele>765.8</ele>
        <time>2022-05-21 02:19:07</time>
      </trkpt>
      <trkpt lat="41.86564" lon="2.32201">
        <ele>765.8</ele>
        <time>2022-05-21 02:19:08</time>
      </trkpt>
      <trkpt lat="41.86568" lon="2.32198">
        <ele>766</ele>
        <time>2022-05-21 02:19:09</time>
      </trkpt>
      <trkpt lat="41.86572" lon="2.32195">
        <ele>766</ele>
        <time>2022-05-21 02:19:10</time>
      </trkpt>
      <trkpt lat="41.86576" lon="2.32192">
        <ele>766.2</ele>
        <time>2022-05-21 02:19:11</time>
      </trkpt>
      <trkpt lat="41.86579" lon="2.32189">
        <ele>766.2</ele>
        <time>2022-05-21 02:19:12</time>
      </trkpt>
      <trkpt lat="41.86583" lon="2.32187">
        <ele>766.4</ele>
        <time>2022-05-21 02:19:13</time>
      </trkpt>
      <trkpt lat="41.86586" lon="2.32183">
        <ele>766.4</ele>
        <time>2022-05-21 02:19:14</time>
      </trkpt>
      <trkpt lat="41.8659" lon="2.32181">
        <ele>766.6</ele>
        <time>2022-05-21 02:19:15</time>
      </trkpt>
      <trkpt lat="41.86594" lon="2.32178">
        <ele>766.6</ele>
        <time>2022-05-21 02:19:16</time>
      </trkpt>
      <trkpt lat="41.86597" lon="2.32175">
        <ele>766.8</ele>
        <time>2022-05-21 02:19:17</time>
      </trkpt>
      <trkpt lat="41.86601" lon="2.32172">
        <ele>766.8</ele>
        <time>2022-05-21 02:19:18</time>
      </trkpt>
      <trkpt lat="41.86605" lon="2.32169">
        <ele>766.8</ele>
        <time>2022-05-21 02:19:19</time>
      </trkpt>
      <trkpt lat="41.86609" lon="2.32166">
        <ele>766.8</ele>
        <time>2022-05-21 02:19:20</time>
      </trkpt>
      <trkpt lat="41.86612" lon="2.32163">
        <ele>766.8</ele>
        <time>2022-05-21 02:19:21</time>
      </trkpt>
      <trkpt lat="41.86616" lon="2.32159">
        <ele>766.8</ele>
        <time>2022-05-21 02:19:22</time>
      </trkpt>
      <trkpt lat="41.8662" lon="2.32156">
        <ele>766.8</ele>
        <time>2022-05-21 02:19:23</time>
      </trkpt>
      <trkpt lat="41.86624" lon="2.32152">
        <ele>766.8</ele>
        <time>2022-05-21 02:19:24</time>
      </trkpt>
      <trkpt lat="41.86628" lon="2.32148">
        <ele>766.6</ele>
        <time>2022-05-21 02:19:25</time>
      </trkpt>
      <trkpt lat="41.86632" lon="2.32144">
        <ele>766.6</ele>
        <time>2022-05-21 02:19:26</time>
      </trkpt>
      <trkpt lat="41.86636" lon="2.3214">
        <ele>766.4</ele>
        <time>2022-05-21 02:19:27</time>
      </trkpt>
      <trkpt lat="41.8664" lon="2.32135">
        <ele>766.2</ele>
        <time>2022-05-21 02:19:28</time>
      </trkpt>
      <trkpt lat="41.86644" lon="2.3213">
        <ele>766</ele>
        <time>2022-05-21 02:19:29</time>
      </trkpt>
      <trkpt lat="41.86648" lon="2.32125">
        <ele>765.8</ele>
        <time>2022-05-21 02:19:30</time>
      </trkpt>
      <trkpt lat="41.86652" lon="2.32119">
        <ele>765.6</ele>
        <time>2022-05-21 02:19:31</time>
      </trkpt>
      <trkpt lat="41.86657" lon="2.32114">
        <ele>765.6</ele>
        <time>2022-05-21 02:19:32</time>
      </trkpt>
      <trkpt lat="41.86662" lon="2.32108">
        <ele>765.2</ele>
        <time>2022-05-21 02:19:33</time>
      </trkpt>
      <trkpt lat="41.86666" lon="2.32103">
        <ele>765</ele>
        <time>2022-05-21 02:19:34</time>
      </trkpt>
      <trkpt lat="41.86671" lon="2.32098">
        <ele>764.8</ele>
        <time>2022-05-21 02:19:35</time>
      </trkpt>
      <trkpt lat="41.86676" lon="2.32092">
        <ele>764.6</ele>
        <time>2022-05-21 02:19:36</time>
      </trkpt>
      <trkpt lat="41.8668" lon="2.32086">
        <ele>764.4</ele>
        <time>2022-05-21 02:19:37</time>
      </trkpt>
      <trkpt lat="41.86685" lon="2.3208">
        <ele>764.2</ele>
        <time>2022-05-21 02:19:38</time>
      </trkpt>
      <trkpt lat="41.86691" lon="2.32073">
        <ele>764</ele>
        <time>2022-05-21 02:19:39</time>
      </trkpt>
      <trkpt lat="41.86695" lon="2.32065">
        <ele>763.8</ele>
        <time>2022-05-21 02:19:40</time>
      </trkpt>
      <trkpt lat="41.86698" lon="2.32057">
        <ele>763.4</ele>
        <time>2022-05-21 02:19:41</time>
      </trkpt>
      <trkpt lat="41.86701" lon="2.32049">
        <ele>763.2</ele>
        <time>2022-05-21 02:19:42</time>
      </trkpt>
      <trkpt lat="41.86703" lon="2.32038">
        <ele>762.8</ele>
        <time>2022-05-21 02:19:43</time>
      </trkpt>
      <trkpt lat="41.86704" lon="2.32028">
        <ele>762.6</ele>
        <time>2022-05-21 02:19:44</time>
      </trkpt>
      <trkpt lat="41.86705" lon="2.32018">
        <ele>762.4</ele>
        <time>2022-05-21 02:19:45</time>
      </trkpt>
      <trkpt lat="41.86707" lon="2.32008">
        <ele>762.2</ele>
        <time>2022-05-21 02:19:46</time>
      </trkpt>
      <trkpt lat="41.86707" lon="2.31998">
        <ele>762.2</ele>
        <time>2022-05-21 02:19:47</time>
      </trkpt>
      <trkpt lat="41.86709" lon="2.31988">
        <ele>761.8</ele>
        <time>2022-05-21 02:19:48</time>
      </trkpt>
      <trkpt lat="41.8671" lon="2.31977">
        <ele>761.6</ele>
        <time>2022-05-21 02:19:49</time>
      </trkpt>
      <trkpt lat="41.86712" lon="2.31967">
        <ele>761.4</ele>
        <time>2022-05-21 02:19:50</time>
      </trkpt>
      <trkpt lat="41.86716" lon="2.31958">
        <ele>761</ele>
        <time>2022-05-21 02:19:51</time>
      </trkpt>
      <trkpt lat="41.86721" lon="2.31949">
        <ele>760.8</ele>
        <time>2022-05-21 02:19:52</time>
      </trkpt>
      <trkpt lat="41.86727" lon="2.31941">
        <ele>760.4</ele>
        <time>2022-05-21 02:19:53</time>
      </trkpt>
      <trkpt lat="41.86732" lon="2.31933">
        <ele>760.2</ele>
        <time>2022-05-21 02:19:54</time>
      </trkpt>
      <trkpt lat="41.86739" lon="2.31925">
        <ele>760</ele>
        <time>2022-05-21 02:19:55</time>
      </trkpt>
      <trkpt lat="41.86743" lon="2.31916">
        <ele>759.8</ele>
        <time>2022-05-21 02:19:56</time>
      </trkpt>
      <trkpt lat="41.86747" lon="2.31906">
        <ele>759.6</ele>
        <time>2022-05-21 02:19:57</time>
      </trkpt>
      <trkpt lat="41.86748" lon="2.31897">
        <ele>759.4</ele>
        <time>2022-05-21 02:19:58</time>
      </trkpt>
      <trkpt lat="41.86746" lon="2.31886">
        <ele>759.2</ele>
        <time>2022-05-21 02:19:59</time>
      </trkpt>
      <trkpt lat="41.86741" lon="2.31878">
        <ele>759</ele>
        <time>2022-05-21 02:20:00</time>
      </trkpt>
      <trkpt lat="41.86735" lon="2.31868">
        <ele>758.8</ele>
        <time>2022-05-21 02:20:01</time>
      </trkpt>
      <trkpt lat="41.8673" lon="2.31859">
        <ele>758.6</ele>
        <time>2022-05-21 02:20:02</time>
      </trkpt>
      <trkpt lat="41.86725" lon="2.31849">
        <ele>758.2</ele>
        <time>2022-05-21 02:20:03</time>
      </trkpt>
      <trkpt lat="41.86722" lon="2.31838">
        <ele>758</ele>
        <time>2022-05-21 02:20:04</time>
      </trkpt>
      <trkpt lat="41.86721" lon="2.31825">
        <ele>757.8</ele>
        <time>2022-05-21 02:20:05</time>
      </trkpt>
      <trkpt lat="41.86722" lon="2.31814">
        <ele>757.4</ele>
        <time>2022-05-21 02:20:06</time>
      </trkpt>
      <trkpt lat="41.86723" lon="2.31803">
        <ele>757.2</ele>
        <time>2022-05-21 02:20:07</time>
      </trkpt>
      <trkpt lat="41.86726" lon="2.3179">
        <ele>757</ele>
        <time>2022-05-21 02:20:08</time>
      </trkpt>
      <trkpt lat="41.86728" lon="2.31778">
        <ele>756.8</ele>
        <time>2022-05-21 02:20:09</time>
      </trkpt>
      <trkpt lat="41.86731" lon="2.31766">
        <ele>756.6</ele>
        <time>2022-05-21 02:20:10</time>
      </trkpt>
      <trkpt lat="41.86734" lon="2.31754">
        <ele>756.2</ele>
        <time>2022-05-21 02:20:11</time>
      </trkpt>
      <trkpt lat="41.86737" lon="2.31743">
        <ele>756</ele>
        <time>2022-05-21 02:20:12</time>
      </trkpt>
      <trkpt lat="41.86744" lon="2.31734">
        <ele>755.8</ele>
        <time>2022-05-21 02:20:13</time>
      </trkpt>
      <trkpt lat="41.86752" lon="2.31726">
        <ele>755.4</ele>
        <time>2022-05-21 02:20:14</time>
      </trkpt>
      <trkpt lat="41.86761" lon="2.3172">
        <ele>755.2</ele>
        <time>2022-05-21 02:20:15</time>
      </trkpt>
      <trkpt lat="41.86769" lon="2.31715">
        <ele>754.8</ele>
        <time>2022-05-21 02:20:16</time>
      </trkpt>
      <trkpt lat="41.86779" lon="2.31712">
        <ele>754.6</ele>
        <time>2022-05-21 02:20:17</time>
      </trkpt>
      <trkpt lat="41.86789" lon="2.31712">
        <ele>754.2</ele>
        <time>2022-05-21 02:20:18</time>
      </trkpt>
      <trkpt lat="41.86799" lon="2.31713">
        <ele>753.8</ele>
        <time>2022-05-21 02:20:19</time>
      </trkpt>
      <trkpt lat="41.86808" lon="2.31714">
        <ele>753.4</ele>
        <time>2022-05-21 02:20:20</time>
      </trkpt>
      <trkpt lat="41.86817" lon="2.31717">
        <ele>753</ele>
        <time>2022-05-21 02:20:21</time>
      </trkpt>
      <trkpt lat="41.86825" lon="2.31721">
        <ele>752.6</ele>
        <time>2022-05-21 02:20:22</time>
      </trkpt>
      <trkpt lat="41.86831" lon="2.31729">
        <ele>752.2</ele>
        <time>2022-05-21 02:20:23</time>
      </trkpt>
      <trkpt lat="41.86834" lon="2.31739">
        <ele>751.8</ele>
        <time>2022-05-21 02:20:24</time>
      </trkpt>
      <trkpt lat="41.86837" lon="2.31749">
        <ele>751.4</ele>
        <time>2022-05-21 02:20:25</time>
      </trkpt>
      <trkpt lat="41.8684" lon="2.3176">
        <ele>751</ele>
        <time>2022-05-21 02:20:26</time>
      </trkpt>
      <trkpt lat="41.86843" lon="2.3177">
        <ele>750.6</ele>
        <time>2022-05-21 02:20:27</time>
      </trkpt>
      <trkpt lat="41.86849" lon="2.31786">
        <ele>750</ele>
        <time>2022-05-21 02:20:28</time>
      </trkpt>
      <trkpt lat="41.86855" lon="2.31798">
        <ele>749.6</ele>
        <time>2022-05-21 02:20:29</time>
      </trkpt>
      <trkpt lat="41.86861" lon="2.31808">
        <ele>749.2</ele>
        <time>2022-05-21 02:20:30</time>
      </trkpt>
      <trkpt lat="41.8687" lon="2.31816">
        <ele>748.6</ele>
        <time>2022-05-21 02:20:31</time>
      </trkpt>
      <trkpt lat="41.86879" lon="2.31822">
        <ele>748</ele>
        <time>2022-05-21 02:20:32</time>
      </trkpt>
      <trkpt lat="41.8689" lon="2.31825">
        <ele>747.4</ele>
        <time>2022-05-21 02:20:33</time>
      </trkpt>
      <trkpt lat="41.86901" lon="2.31825">
        <ele>747</ele>
        <time>2022-05-21 02:20:34</time>
      </trkpt>
      <trkpt lat="41.86911" lon="2.31824">
        <ele>746.4</ele>
        <time>2022-05-21 02:20:35</time>
      </trkpt>
      <trkpt lat="41.86922" lon="2.31819">
        <ele>745.8</ele>
        <time>2022-05-21 02:20:36</time>
      </trkpt>
      <trkpt lat="41.86933" lon="2.31814">
        <ele>745.4</ele>
        <time>2022-05-21 02:20:37</time>
      </trkpt>
      <trkpt lat="41.86943" lon="2.31809">
        <ele>745</ele>
        <time>2022-05-21 02:20:38</time>
      </trkpt>
      <trkpt lat="41.86953" lon="2.31803">
        <ele>744.2</ele>
        <time>2022-05-21 02:20:39</time>
      </trkpt>
      <trkpt lat="41.86964" lon="2.31795">
        <ele>743.6</ele>
        <time>2022-05-21 02:20:40</time>
      </trkpt>
      <trkpt lat="41.86972" lon="2.31788">
        <ele>743</ele>
        <time>2022-05-21 02:20:41</time>
      </trkpt>
      <trkpt lat="41.8698" lon="2.31778">
        <ele>742.2</ele>
        <time>2022-05-21 02:20:42</time>
      </trkpt>
      <trkpt lat="41.86987" lon="2.31765">
        <ele>741.6</ele>
        <time>2022-05-21 02:20:43</time>
      </trkpt>
      <trkpt lat="41.86991" lon="2.31751">
        <ele>741.2</ele>
        <time>2022-05-21 02:20:44</time>
      </trkpt>
      <trkpt lat="41.86993" lon="2.31735">
        <ele>740.6</ele>
        <time>2022-05-21 02:20:45</time>
      </trkpt>
      <trkpt lat="41.86995" lon="2.31719">
        <ele>740</ele>
        <time>2022-05-21 02:20:46</time>
      </trkpt>
      <trkpt lat="41.86996" lon="2.31704">
        <ele>739.2</ele>
        <time>2022-05-21 02:20:47</time>
      </trkpt>
      <trkpt lat="41.87" lon="2.3169">
        <ele>738.6</ele>
        <time>2022-05-21 02:20:48</time>
      </trkpt>
      <trkpt lat="41.87004" lon="2.31677">
        <ele>738.2</ele>
        <time>2022-05-21 02:20:49</time>
      </trkpt>
      <trkpt lat="41.87009" lon="2.31662">
        <ele>737.6</ele>
        <time>2022-05-21 02:20:50</time>
      </trkpt>
      <trkpt lat="41.87016" lon="2.3165">
        <ele>737</ele>
        <time>2022-05-21 02:20:51</time>
      </trkpt>
      <trkpt lat="41.87022" lon="2.3164">
        <ele>736.6</ele>
        <time>2022-05-21 02:20:52</time>
      </trkpt>
      <trkpt lat="41.8703" lon="2.31633">
        <ele>736.2</ele>
        <time>2022-05-21 02:20:53</time>
      </trkpt>
      <trkpt lat="41.87038" lon="2.31632">
        <ele>735.8</ele>
        <time>2022-05-21 02:20:54</time>
      </trkpt>
      <trkpt lat="41.87046" lon="2.31634">
        <ele>735.2</ele>
        <time>2022-05-21 02:20:55</time>
      </trkpt>
      <trkpt lat="41.87054" lon="2.31641">
        <ele>734.8</ele>
        <time>2022-05-21 02:20:56</time>
      </trkpt>
      <trkpt lat="41.87061" lon="2.31648">
        <ele>734.2</ele>
        <time>2022-05-21 02:20:57</time>
      </trkpt>
      <trkpt lat="41.87067" lon="2.31654">
        <ele>733.8</ele>
        <time>2022-05-21 02:20:58</time>
      </trkpt>
      <trkpt lat="41.87074" lon="2.31658">
        <ele>733.2</ele>
        <time>2022-05-21 02:20:59</time>
      </trkpt>
      <trkpt lat="41.87083" lon="2.31657">
        <ele>732.8</ele>
        <time>2022-05-21 02:21:00</time>
      </trkpt>
      <trkpt lat="41.87092" lon="2.31654">
        <ele>732.2</ele>
        <time>2022-05-21 02:21:01</time>
      </trkpt>
      <trkpt lat="41.87101" lon="2.31651">
        <ele>731.8</ele>
        <time>2022-05-21 02:21:02</time>
      </trkpt>
      <trkpt lat="41.87111" lon="2.31646">
        <ele>731.2</ele>
        <time>2022-05-21 02:21:03</time>
      </trkpt>
      <trkpt lat="41.8712" lon="2.31641">
        <ele>730.6</ele>
        <time>2022-05-21 02:21:04</time>
      </trkpt>
      <trkpt lat="41.87129" lon="2.31632">
        <ele>730.2</ele>
        <time>2022-05-21 02:21:05</time>
      </trkpt>
      <trkpt lat="41.87137" lon="2.31622">
        <ele>729.6</ele>
        <time>2022-05-21 02:21:06</time>
      </trkpt>
      <trkpt lat="41.87144" lon="2.3161">
        <ele>729.2</ele>
        <time>2022-05-21 02:21:07</time>
      </trkpt>
      <trkpt lat="41.87148" lon="2.31597">
        <ele>728.6</ele>
        <time>2022-05-21 02:21:08</time>
      </trkpt>
      <trkpt lat="41.87151" lon="2.31583">
        <ele>728.2</ele>
        <time>2022-05-21 02:21:09</time>
      </trkpt>
      <trkpt lat="41.87154" lon="2.31569">
        <ele>727.6</ele>
        <time>2022-05-21 02:21:10</time>
      </trkpt>
      <trkpt lat="41.87156" lon="2.31555">
        <ele>727.2</ele>
        <time>2022-05-21 02:21:11</time>
      </trkpt>
      <trkpt lat="41.87157" lon="2.31541">
        <ele>726.6</ele>
        <time>2022-05-21 02:21:12</time>
      </trkpt>
      <trkpt lat="41.87156" lon="2.31526">
        <ele>726</ele>
        <time>2022-05-21 02:21:13</time>
      </trkpt>
      <trkpt lat="41.87154" lon="2.31512">
        <ele>725.4</ele>
        <time>2022-05-21 02:21:14</time>
      </trkpt>
      <trkpt lat="41.87154" lon="2.31498">
        <ele>725</ele>
        <time>2022-05-21 02:21:15</time>
      </trkpt>
      <trkpt lat="41.87155" lon="2.31486">
        <ele>724.4</ele>
        <time>2022-05-21 02:21:16</time>
      </trkpt>
      <trkpt lat="41.87158" lon="2.31475">
        <ele>724</ele>
        <time>2022-05-21 02:21:17</time>
      </trkpt>
      <trkpt lat="41.87163" lon="2.31466">
        <ele>723.6</ele>
        <time>2022-05-21 02:21:18</time>
      </trkpt>
      <trkpt lat="41.8717" lon="2.31459">
        <ele>723.2</ele>
        <time>2022-05-21 02:21:19</time>
      </trkpt>
      <trkpt lat="41.87178" lon="2.31454">
        <ele>722.8</ele>
        <time>2022-05-21 02:21:20</time>
      </trkpt>
      <trkpt lat="41.87185" lon="2.31449">
        <ele>722.2</ele>
        <time>2022-05-21 02:21:21</time>
      </trkpt>
      <trkpt lat="41.87191" lon="2.31442">
        <ele>721.8</ele>
        <time>2022-05-21 02:21:22</time>
      </trkpt>
      <trkpt lat="41.87196" lon="2.31432">
        <ele>721.4</ele>
        <time>2022-05-21 02:21:23</time>
      </trkpt>
      <trkpt lat="41.872" lon="2.31422">
        <ele>721</ele>
        <time>2022-05-21 02:21:24</time>
      </trkpt>
      <trkpt lat="41.872" lon="2.3141">
        <ele>720.6</ele>
        <time>2022-05-21 02:21:25</time>
      </trkpt>
      <trkpt lat="41.87198" lon="2.31398">
        <ele>720</ele>
        <time>2022-05-21 02:21:26</time>
      </trkpt>
      <trkpt lat="41.87195" lon="2.31386">
        <ele>719.6</ele>
        <time>2022-05-21 02:21:27</time>
      </trkpt>
      <trkpt lat="41.87192" lon="2.31374">
        <ele>719</ele>
        <time>2022-05-21 02:21:28</time>
      </trkpt>
      <trkpt lat="41.87189" lon="2.3136">
        <ele>718.4</ele>
        <time>2022-05-21 02:21:29</time>
      </trkpt>
      <trkpt lat="41.87188" lon="2.31345">
        <ele>717.8</ele>
        <time>2022-05-21 02:21:30</time>
      </trkpt>
      <trkpt lat="41.87187" lon="2.3133">
        <ele>717.2</ele>
        <time>2022-05-21 02:21:31</time>
      </trkpt>
      <trkpt lat="41.87187" lon="2.31315">
        <ele>716.6</ele>
        <time>2022-05-21 02:21:32</time>
      </trkpt>
      <trkpt lat="41.87186" lon="2.31301">
        <ele>716</ele>
        <time>2022-05-21 02:21:33</time>
      </trkpt>
      <trkpt lat="41.87184" lon="2.31287">
        <ele>715.4</ele>
        <time>2022-05-21 02:21:34</time>
      </trkpt>
      <trkpt lat="41.87183" lon="2.31273">
        <ele>714.8</ele>
        <time>2022-05-21 02:21:35</time>
      </trkpt>
      <trkpt lat="41.87181" lon="2.31258">
        <ele>714.4</ele>
        <time>2022-05-21 02:21:36</time>
      </trkpt>
      <trkpt lat="41.87179" lon="2.31243">
        <ele>713.8</ele>
        <time>2022-05-21 02:21:37</time>
      </trkpt>
      <trkpt lat="41.87177" lon="2.31229">
        <ele>713.2</ele>
        <time>2022-05-21 02:21:38</time>
      </trkpt>
      <trkpt lat="41.87174" lon="2.31214">
        <ele>712.6</ele>
        <time>2022-05-21 02:21:39</time>
      </trkpt>
      <trkpt lat="41.87173" lon="2.31198">
        <ele>712</ele>
        <time>2022-05-21 02:21:40</time>
      </trkpt>
      <trkpt lat="41.87174" lon="2.31183">
        <ele>711.4</ele>
        <time>2022-05-21 02:21:41</time>
      </trkpt>
      <trkpt lat="41.87174" lon="2.31168">
        <ele>711</ele>
        <time>2022-05-21 02:21:42</time>
      </trkpt>
      <trkpt lat="41.87173" lon="2.31153">
        <ele>710.4</ele>
        <time>2022-05-21 02:21:43</time>
      </trkpt>
      <trkpt lat="41.87171" lon="2.31138">
        <ele>710</ele>
        <time>2022-05-21 02:21:44</time>
      </trkpt>
      <trkpt lat="41.87167" lon="2.31124">
        <ele>709.6</ele>
        <time>2022-05-21 02:21:45</time>
      </trkpt>
      <trkpt lat="41.87164" lon="2.31111">
        <ele>709.2</ele>
        <time>2022-05-21 02:21:46</time>
      </trkpt>
      <trkpt lat="41.87161" lon="2.31097">
        <ele>708.8</ele>
        <time>2022-05-21 02:21:47</time>
      </trkpt>
      <trkpt lat="41.87159" lon="2.31083">
        <ele>708.4</ele>
        <time>2022-05-21 02:21:48</time>
      </trkpt>
      <trkpt lat="41.87157" lon="2.31068">
        <ele>708</ele>
        <time>2022-05-21 02:21:49</time>
      </trkpt>
      <trkpt lat="41.87156" lon="2.31054">
        <ele>707.6</ele>
        <time>2022-05-21 02:21:50</time>
      </trkpt>
      <trkpt lat="41.87154" lon="2.3104">
        <ele>707.2</ele>
        <time>2022-05-21 02:21:51</time>
      </trkpt>
      <trkpt lat="41.87151" lon="2.31027">
        <ele>706.6</ele>
        <time>2022-05-21 02:21:52</time>
      </trkpt>
      <trkpt lat="41.87148" lon="2.31013">
        <ele>706.2</ele>
        <time>2022-05-21 02:21:53</time>
      </trkpt>
      <trkpt lat="41.87147" lon="2.30999">
        <ele>705.8</ele>
        <time>2022-05-21 02:21:54</time>
      </trkpt>
      <trkpt lat="41.87149" lon="2.30985">
        <ele>705.4</ele>
        <time>2022-05-21 02:21:55</time>
      </trkpt>
      <trkpt lat="41.87152" lon="2.30971">
        <ele>705</ele>
        <time>2022-05-21 02:21:56</time>
      </trkpt>
      <trkpt lat="41.87156" lon="2.30959">
        <ele>704.6</ele>
        <time>2022-05-21 02:21:57</time>
      </trkpt>
      <trkpt lat="41.87156" lon="2.30948">
        <ele>704.2</ele>
        <time>2022-05-21 02:21:58</time>
      </trkpt>
      <trkpt lat="41.87153" lon="2.30938">
        <ele>703.6</ele>
        <time>2022-05-21 02:21:59</time>
      </trkpt>
      <trkpt lat="41.87146" lon="2.30927">
        <ele>703</ele>
        <time>2022-05-21 02:22:00</time>
      </trkpt>
      <trkpt lat="41.87139" lon="2.30918">
        <ele>702.2</ele>
        <time>2022-05-21 02:22:01</time>
      </trkpt>
      <trkpt lat="41.87131" lon="2.30909">
        <ele>701.4</ele>
        <time>2022-05-21 02:22:02</time>
      </trkpt>
      <trkpt lat="41.87126" lon="2.30899">
        <ele>700.6</ele>
        <time>2022-05-21 02:22:03</time>
      </trkpt>
      <trkpt lat="41.87123" lon="2.30888">
        <ele>700</ele>
        <time>2022-05-21 02:22:04</time>
      </trkpt>
      <trkpt lat="41.87123" lon="2.30876">
        <ele>699.2</ele>
        <time>2022-05-21 02:22:05</time>
      </trkpt>
      <trkpt lat="41.87125" lon="2.30864">
        <ele>698.6</ele>
        <time>2022-05-21 02:22:06</time>
      </trkpt>
      <trkpt lat="41.87126" lon="2.30853">
        <ele>698</ele>
        <time>2022-05-21 02:22:07</time>
      </trkpt>
      <trkpt lat="41.87125" lon="2.30843">
        <ele>697.4</ele>
        <time>2022-05-21 02:22:08</time>
      </trkpt>
      <trkpt lat="41.87122" lon="2.30833">
        <ele>696.8</ele>
        <time>2022-05-21 02:22:09</time>
      </trkpt>
      <trkpt lat="41.87116" lon="2.30823">
        <ele>696.4</ele>
        <time>2022-05-21 02:22:10</time>
      </trkpt>
      <trkpt lat="41.8711" lon="2.30815">
        <ele>695.8</ele>
        <time>2022-05-21 02:22:11</time>
      </trkpt>
      <trkpt lat="41.87104" lon="2.30806">
        <ele>695.2</ele>
        <time>2022-05-21 02:22:12</time>
      </trkpt>
      <trkpt lat="41.87099" lon="2.30796">
        <ele>694.6</ele>
        <time>2022-05-21 02:22:13</time>
      </trkpt>
      <trkpt lat="41.87096" lon="2.30785">
        <ele>694</ele>
        <time>2022-05-21 02:22:14</time>
      </trkpt>
      <trkpt lat="41.87094" lon="2.30774">
        <ele>693.2</ele>
        <time>2022-05-21 02:22:15</time>
      </trkpt>
      <trkpt lat="41.87094" lon="2.30759">
        <ele>692.6</ele>
        <time>2022-05-21 02:22:16</time>
      </trkpt>
      <trkpt lat="41.87094" lon="2.30744">
        <ele>691.8</ele>
        <time>2022-05-21 02:22:17</time>
      </trkpt>
      <trkpt lat="41.87093" lon="2.30729">
        <ele>691</ele>
        <time>2022-05-21 02:22:18</time>
      </trkpt>
      <trkpt lat="41.87092" lon="2.30714">
        <ele>690.4</ele>
        <time>2022-05-21 02:22:19</time>
      </trkpt>
      <trkpt lat="41.8709" lon="2.307">
        <ele>689.8</ele>
        <time>2022-05-21 02:22:20</time>
      </trkpt>
      <trkpt lat="41.87087" lon="2.30686">
        <ele>689.2</ele>
        <time>2022-05-21 02:22:21</time>
      </trkpt>
      <trkpt lat="41.87085" lon="2.30672">
        <ele>688.6</ele>
        <time>2022-05-21 02:22:22</time>
      </trkpt>
      <trkpt lat="41.87082" lon="2.30658">
        <ele>688</ele>
        <time>2022-05-21 02:22:23</time>
      </trkpt>
      <trkpt lat="41.87082" lon="2.30644">
        <ele>687.4</ele>
        <time>2022-05-21 02:22:24</time>
      </trkpt>
      <trkpt lat="41.87082" lon="2.3063">
        <ele>686.8</ele>
        <time>2022-05-21 02:22:25</time>
      </trkpt>
      <trkpt lat="41.87085" lon="2.30619">
        <ele>686.2</ele>
        <time>2022-05-21 02:22:26</time>
      </trkpt>
      <trkpt lat="41.87093" lon="2.30609">
        <ele>685.6</ele>
        <time>2022-05-21 02:22:27</time>
      </trkpt>
      <trkpt lat="41.87101" lon="2.306">
        <ele>685</ele>
        <time>2022-05-21 02:22:28</time>
      </trkpt>
      <trkpt lat="41.87109" lon="2.30592">
        <ele>684.2</ele>
        <time>2022-05-21 02:22:29</time>
      </trkpt>
      <trkpt lat="41.87115" lon="2.30583">
        <ele>683.6</ele>
        <time>2022-05-21 02:22:30</time>
      </trkpt>
      <trkpt lat="41.8712" lon="2.30571">
        <ele>683</ele>
        <time>2022-05-21 02:22:31</time>
      </trkpt>
      <trkpt lat="41.87123" lon="2.30558">
        <ele>682.6</ele>
        <time>2022-05-21 02:22:32</time>
      </trkpt>
      <trkpt lat="41.87125" lon="2.30544">
        <ele>682</ele>
        <time>2022-05-21 02:22:33</time>
      </trkpt>
      <trkpt lat="41.87127" lon="2.3053">
        <ele>681.6</ele>
        <time>2022-05-21 02:22:34</time>
      </trkpt>
      <trkpt lat="41.87128" lon="2.30516">
        <ele>681</ele>
        <time>2022-05-21 02:22:35</time>
      </trkpt>
      <trkpt lat="41.8713" lon="2.30501">
        <ele>680.6</ele>
        <time>2022-05-21 02:22:36</time>
      </trkpt>
      <trkpt lat="41.87131" lon="2.30488">
        <ele>680.2</ele>
        <time>2022-05-21 02:22:37</time>
      </trkpt>
      <trkpt lat="41.87133" lon="2.30474">
        <ele>679.6</ele>
        <time>2022-05-21 02:22:38</time>
      </trkpt>
      <trkpt lat="41.87137" lon="2.3046">
        <ele>679.2</ele>
        <time>2022-05-21 02:22:39</time>
      </trkpt>
      <trkpt lat="41.87138" lon="2.30446">
        <ele>678.8</ele>
        <time>2022-05-21 02:22:40</time>
      </trkpt>
      <trkpt lat="41.87138" lon="2.30432">
        <ele>678.4</ele>
        <time>2022-05-21 02:22:41</time>
      </trkpt>
      <trkpt lat="41.87141" lon="2.30419">
        <ele>677.8</ele>
        <time>2022-05-21 02:22:42</time>
      </trkpt>
      <trkpt lat="41.87147" lon="2.30409">
        <ele>677.4</ele>
        <time>2022-05-21 02:22:43</time>
      </trkpt>
      <trkpt lat="41.87152" lon="2.304">
        <ele>676.8</ele>
        <time>2022-05-21 02:22:44</time>
      </trkpt>
      <trkpt lat="41.87159" lon="2.30395">
        <ele>676.2</ele>
        <time>2022-05-21 02:22:45</time>
      </trkpt>
      <trkpt lat="41.87167" lon="2.30398">
        <ele>675.8</ele>
        <time>2022-05-21 02:22:46</time>
      </trkpt>
      <trkpt lat="41.87177" lon="2.30406">
        <ele>675.2</ele>
        <time>2022-05-21 02:22:47</time>
      </trkpt>
      <trkpt lat="41.87184" lon="2.30415">
        <ele>674.8</ele>
        <time>2022-05-21 02:22:48</time>
      </trkpt>
      <trkpt lat="41.87191" lon="2.30426">
        <ele>674.2</ele>
        <time>2022-05-21 02:22:49</time>
      </trkpt>
      <trkpt lat="41.87198" lon="2.30435">
        <ele>673.8</ele>
        <time>2022-05-21 02:22:50</time>
      </trkpt>
      <trkpt lat="41.87207" lon="2.30445">
        <ele>673.2</ele>
        <time>2022-05-21 02:22:51</time>
      </trkpt>
      <trkpt lat="41.87216" lon="2.30454">
        <ele>672.6</ele>
        <time>2022-05-21 02:22:52</time>
      </trkpt>
      <trkpt lat="41.87226" lon="2.30459">
        <ele>672.2</ele>
        <time>2022-05-21 02:22:53</time>
      </trkpt>
      <trkpt lat="41.87236" lon="2.30461">
        <ele>671.6</ele>
        <time>2022-05-21 02:22:54</time>
      </trkpt>
      <trkpt lat="41.87247" lon="2.30461">
        <ele>671</ele>
        <time>2022-05-21 02:22:55</time>
      </trkpt>
      <trkpt lat="41.87258" lon="2.30461">
        <ele>670.6</ele>
        <time>2022-05-21 02:22:56</time>
      </trkpt>
      <trkpt lat="41.87269" lon="2.3046">
        <ele>670</ele>
        <time>2022-05-21 02:22:57</time>
      </trkpt>
      <trkpt lat="41.8728" lon="2.30458">
        <ele>669.4</ele>
        <time>2022-05-21 02:22:58</time>
      </trkpt>
      <trkpt lat="41.8729" lon="2.30456">
        <ele>668.8</ele>
        <time>2022-05-21 02:22:59</time>
      </trkpt>
      <trkpt lat="41.87301" lon="2.30451">
        <ele>668.2</ele>
        <time>2022-05-21 02:23:00</time>
      </trkpt>
      <trkpt lat="41.87311" lon="2.30444">
        <ele>667.6</ele>
        <time>2022-05-21 02:23:01</time>
      </trkpt>
      <trkpt lat="41.8732" lon="2.30435">
        <ele>667.2</ele>
        <time>2022-05-21 02:23:02</time>
      </trkpt>
      <trkpt lat="41.87328" lon="2.30426">
        <ele>666.6</ele>
        <time>2022-05-21 02:23:03</time>
      </trkpt>
      <trkpt lat="41.87337" lon="2.30417">
        <ele>666.4</ele>
        <time>2022-05-21 02:23:04</time>
      </trkpt>
      <trkpt lat="41.87345" lon="2.30409">
        <ele>666.2</ele>
        <time>2022-05-21 02:23:05</time>
      </trkpt>
      <trkpt lat="41.87351" lon="2.30401">
        <ele>665.8</ele>
        <time>2022-05-21 02:23:06</time>
      </trkpt>
      <trkpt lat="41.87356" lon="2.30392">
        <ele>665.6</ele>
        <time>2022-05-21 02:23:07</time>
      </trkpt>
      <trkpt lat="41.8736" lon="2.30382">
        <ele>665.2</ele>
        <time>2022-05-21 02:23:08</time>
      </trkpt>
      <trkpt lat="41.87362" lon="2.30372">
        <ele>665</ele>
        <time>2022-05-21 02:23:09</time>
      </trkpt>
      <trkpt lat="41.8736" lon="2.30361">
        <ele>664.4</ele>
        <time>2022-05-21 02:23:10</time>
      </trkpt>
      <trkpt lat="41.87357" lon="2.3035">
        <ele>664</ele>
        <time>2022-05-21 02:23:11</time>
      </trkpt>
      <trkpt lat="41.87352" lon="2.3034">
        <ele>663.6</ele>
        <time>2022-05-21 02:23:12</time>
      </trkpt>
      <trkpt lat="41.87347" lon="2.3033">
        <ele>663</ele>
        <time>2022-05-21 02:23:13</time>
      </trkpt>
      <trkpt lat="41.87339" lon="2.3032">
        <ele>662.4</ele>
        <time>2022-05-21 02:23:14</time>
      </trkpt>
      <trkpt lat="41.87332" lon="2.30309">
        <ele>661.8</ele>
        <time>2022-05-21 02:23:15</time>
      </trkpt>
      <trkpt lat="41.87324" lon="2.30298">
        <ele>661.2</ele>
        <time>2022-05-21 02:23:16</time>
      </trkpt>
      <trkpt lat="41.87317" lon="2.30288">
        <ele>660.6</ele>
        <time>2022-05-21 02:23:17</time>
      </trkpt>
      <trkpt lat="41.8731" lon="2.30278">
        <ele>660</ele>
        <time>2022-05-21 02:23:18</time>
      </trkpt>
      <trkpt lat="41.87304" lon="2.30268">
        <ele>659.4</ele>
        <time>2022-05-21 02:23:19</time>
      </trkpt>
      <trkpt lat="41.87298" lon="2.30257">
        <ele>658.8</ele>
        <time>2022-05-21 02:23:20</time>
      </trkpt>
      <trkpt lat="41.87294" lon="2.30246">
        <ele>658.2</ele>
        <time>2022-05-21 02:23:21</time>
      </trkpt>
      <trkpt lat="41.87294" lon="2.30234">
        <ele>657.6</ele>
        <time>2022-05-21 02:23:22</time>
      </trkpt>
      <trkpt lat="41.87295" lon="2.30221">
        <ele>656.8</ele>
        <time>2022-05-21 02:23:23</time>
      </trkpt>
      <trkpt lat="41.87297" lon="2.30209">
        <ele>656.2</ele>
        <time>2022-05-21 02:23:24</time>
      </trkpt>
      <trkpt lat="41.873" lon="2.30196">
        <ele>655.4</ele>
        <time>2022-05-21 02:23:25</time>
      </trkpt>
      <trkpt lat="41.87302" lon="2.30182">
        <ele>654.8</ele>
        <time>2022-05-21 02:23:26</time>
      </trkpt>
      <trkpt lat="41.87305" lon="2.30168">
        <ele>654</ele>
        <time>2022-05-21 02:23:27</time>
      </trkpt>
      <trkpt lat="41.87307" lon="2.30153">
        <ele>653.2</ele>
        <time>2022-05-21 02:23:28</time>
      </trkpt>
      <trkpt lat="41.87307" lon="2.30138">
        <ele>652.6</ele>
        <time>2022-05-21 02:23:29</time>
      </trkpt>
      <trkpt lat="41.87304" lon="2.30124">
        <ele>651.8</ele>
        <time>2022-05-21 02:23:30</time>
      </trkpt>
      <trkpt lat="41.873" lon="2.3011">
        <ele>651</ele>
        <time>2022-05-21 02:23:31</time>
      </trkpt>
      <trkpt lat="41.87296" lon="2.30096">
        <ele>650.4</ele>
        <time>2022-05-21 02:23:32</time>
      </trkpt>
      <trkpt lat="41.87291" lon="2.30082">
        <ele>649.8</ele>
        <time>2022-05-21 02:23:33</time>
      </trkpt>
      <trkpt lat="41.87286" lon="2.30068">
        <ele>649.2</ele>
        <time>2022-05-21 02:23:34</time>
      </trkpt>
      <trkpt lat="41.87283" lon="2.30054">
        <ele>648.8</ele>
        <time>2022-05-21 02:23:35</time>
      </trkpt>
      <trkpt lat="41.8728" lon="2.3004">
        <ele>648.2</ele>
        <time>2022-05-21 02:23:36</time>
      </trkpt>
      <trkpt lat="41.87277" lon="2.30026">
        <ele>648</ele>
        <time>2022-05-21 02:23:37</time>
      </trkpt>
      <trkpt lat="41.87276" lon="2.30012">
        <ele>647.6</ele>
        <time>2022-05-21 02:23:38</time>
      </trkpt>
      <trkpt lat="41.87275" lon="2.29997">
        <ele>647.2</ele>
        <time>2022-05-21 02:23:39</time>
      </trkpt>
      <trkpt lat="41.87275" lon="2.29982">
        <ele>646.8</ele>
        <time>2022-05-21 02:23:40</time>
      </trkpt>
      <trkpt lat="41.87277" lon="2.29968">
        <ele>646.6</ele>
        <time>2022-05-21 02:23:41</time>
      </trkpt>
      <trkpt lat="41.8728" lon="2.29954">
        <ele>646.2</ele>
        <time>2022-05-21 02:23:42</time>
      </trkpt>
      <trkpt lat="41.87283" lon="2.29941">
        <ele>646</ele>
        <time>2022-05-21 02:23:43</time>
      </trkpt>
      <trkpt lat="41.87288" lon="2.29928">
        <ele>645.6</ele>
        <time>2022-05-21 02:23:44</time>
      </trkpt>
      <trkpt lat="41.87292" lon="2.29915">
        <ele>645.2</ele>
        <time>2022-05-21 02:23:45</time>
      </trkpt>
      <trkpt lat="41.87296" lon="2.29902">
        <ele>644.8</ele>
        <time>2022-05-21 02:23:46</time>
      </trkpt>
      <trkpt lat="41.873" lon="2.29889">
        <ele>644.4</ele>
        <time>2022-05-21 02:23:47</time>
      </trkpt>
      <trkpt lat="41.87305" lon="2.29877">
        <ele>643.8</ele>
        <time>2022-05-21 02:23:48</time>
      </trkpt>
      <trkpt lat="41.8731" lon="2.29864">
        <ele>643.2</ele>
        <time>2022-05-21 02:23:49</time>
      </trkpt>
      <trkpt lat="41.87317" lon="2.29852">
        <ele>642.8</ele>
        <time>2022-05-21 02:23:50</time>
      </trkpt>
      <trkpt lat="41.87323" lon="2.29842">
        <ele>642.2</ele>
        <time>2022-05-21 02:23:51</time>
      </trkpt>
      <trkpt lat="41.87331" lon="2.29831">
        <ele>641.6</ele>
        <time>2022-05-21 02:23:52</time>
      </trkpt>
      <trkpt lat="41.87338" lon="2.2982">
        <ele>641</ele>
        <time>2022-05-21 02:23:53</time>
      </trkpt>
      <trkpt lat="41.87346" lon="2.29809">
        <ele>640.4</ele>
        <time>2022-05-21 02:23:54</time>
      </trkpt>
      <trkpt lat="41.87354" lon="2.29798">
        <ele>639.8</ele>
        <time>2022-05-21 02:23:55</time>
      </trkpt>
      <trkpt lat="41.87362" lon="2.29787">
        <ele>639.2</ele>
        <time>2022-05-21 02:23:56</time>
      </trkpt>
      <trkpt lat="41.8737" lon="2.29777">
        <ele>638.6</ele>
        <time>2022-05-21 02:23:57</time>
      </trkpt>
      <trkpt lat="41.87379" lon="2.29768">
        <ele>638</ele>
        <time>2022-05-21 02:23:58</time>
      </trkpt>
      <trkpt lat="41.87389" lon="2.2976">
        <ele>637.4</ele>
        <time>2022-05-21 02:23:59</time>
      </trkpt>
      <trkpt lat="41.87399" lon="2.29756">
        <ele>636.8</ele>
        <time>2022-05-21 02:24:00</time>
      </trkpt>
      <trkpt lat="41.87408" lon="2.29754">
        <ele>636.2</ele>
        <time>2022-05-21 02:24:01</time>
      </trkpt>
      <trkpt lat="41.8742" lon="2.29753">
        <ele>635.8</ele>
        <time>2022-05-21 02:24:02</time>
      </trkpt>
      <trkpt lat="41.8743" lon="2.2975">
        <ele>635.2</ele>
        <time>2022-05-21 02:24:03</time>
      </trkpt>
      <trkpt lat="41.87439" lon="2.29742">
        <ele>634.8</ele>
        <time>2022-05-21 02:24:04</time>
      </trkpt>
      <trkpt lat="41.87445" lon="2.29731">
        <ele>634.2</ele>
        <time>2022-05-21 02:24:05</time>
      </trkpt>
      <trkpt lat="41.8745" lon="2.29718">
        <ele>633.6</ele>
        <time>2022-05-21 02:24:06</time>
      </trkpt>
      <trkpt lat="41.87455" lon="2.29705">
        <ele>633</ele>
        <time>2022-05-21 02:24:07</time>
      </trkpt>
      <trkpt lat="41.87459" lon="2.29691">
        <ele>632.2</ele>
        <time>2022-05-21 02:24:08</time>
      </trkpt>
      <trkpt lat="41.87464" lon="2.29678">
        <ele>631.6</ele>
        <time>2022-05-21 02:24:09</time>
      </trkpt>
      <trkpt lat="41.87468" lon="2.29665">
        <ele>631</ele>
        <time>2022-05-21 02:24:10</time>
      </trkpt>
      <trkpt lat="41.87473" lon="2.29651">
        <ele>630.4</ele>
        <time>2022-05-21 02:24:11</time>
      </trkpt>
      <trkpt lat="41.87477" lon="2.29637">
        <ele>629.6</ele>
        <time>2022-05-21 02:24:12</time>
      </trkpt>
      <trkpt lat="41.87482" lon="2.29623">
        <ele>628.8</ele>
        <time>2022-05-21 02:24:13</time>
      </trkpt>
      <trkpt lat="41.87486" lon="2.29609">
        <ele>628</ele>
        <time>2022-05-21 02:24:14</time>
      </trkpt>
      <trkpt lat="41.8749" lon="2.29594">
        <ele>627.2</ele>
        <time>2022-05-21 02:24:15</time>
      </trkpt>
      <trkpt lat="41.87495" lon="2.29578">
        <ele>626.4</ele>
        <time>2022-05-21 02:24:16</time>
      </trkpt>
      <trkpt lat="41.87499" lon="2.29562">
        <ele>625.6</ele>
        <time>2022-05-21 02:24:17</time>
      </trkpt>
      <trkpt lat="41.87503" lon="2.29547">
        <ele>624.6</ele>
        <time>2022-05-21 02:24:18</time>
      </trkpt>
      <trkpt lat="41.87507" lon="2.29532">
        <ele>623.8</ele>
        <time>2022-05-21 02:24:19</time>
      </trkpt>
      <trkpt lat="41.87513" lon="2.29517">
        <ele>623</ele>
        <time>2022-05-21 02:24:20</time>
      </trkpt>
      <trkpt lat="41.87519" lon="2.29503">
        <ele>622.2</ele>
        <time>2022-05-21 02:24:21</time>
      </trkpt>
      <trkpt lat="41.87527" lon="2.29489">
        <ele>621.4</ele>
        <time>2022-05-21 02:24:22</time>
      </trkpt>
      <trkpt lat="41.87536" lon="2.29477">
        <ele>620.6</ele>
        <time>2022-05-21 02:24:23</time>
      </trkpt>
      <trkpt lat="41.87545" lon="2.29465">
        <ele>620</ele>
        <time>2022-05-21 02:24:24</time>
      </trkpt>
      <trkpt lat="41.87555" lon="2.29454">
        <ele>619.6</ele>
        <time>2022-05-21 02:24:25</time>
      </trkpt>
      <trkpt lat="41.87563" lon="2.29444">
        <ele>619.2</ele>
        <time>2022-05-21 02:24:26</time>
      </trkpt>
      <trkpt lat="41.87572" lon="2.29436">
        <ele>618.8</ele>
        <time>2022-05-21 02:24:27</time>
      </trkpt>
      <trkpt lat="41.87582" lon="2.29424">
        <ele>618.4</ele>
        <time>2022-05-21 02:24:28</time>
      </trkpt>
      <trkpt lat="41.8759" lon="2.29414">
        <ele>618.2</ele>
        <time>2022-05-21 02:24:29</time>
      </trkpt>
      <trkpt lat="41.87598" lon="2.29403">
        <ele>618</ele>
        <time>2022-05-21 02:24:30</time>
      </trkpt>
      <trkpt lat="41.87608" lon="2.29393">
        <ele>617.8</ele>
        <time>2022-05-21 02:24:31</time>
      </trkpt>
      <trkpt lat="41.87617" lon="2.29385">
        <ele>617.6</ele>
        <time>2022-05-21 02:24:32</time>
      </trkpt>
      <trkpt lat="41.87627" lon="2.29377">
        <ele>617.6</ele>
        <time>2022-05-21 02:24:33</time>
      </trkpt>
      <trkpt lat="41.87635" lon="2.29369">
        <ele>617.6</ele>
        <time>2022-05-21 02:24:34</time>
      </trkpt>
      <trkpt lat="41.87643" lon="2.2936">
        <ele>617.4</ele>
        <time>2022-05-21 02:24:35</time>
      </trkpt>
      <trkpt lat="41.87651" lon="2.29351">
        <ele>617.4</ele>
        <time>2022-05-21 02:24:36</time>
      </trkpt>
      <trkpt lat="41.87657" lon="2.29342">
        <ele>617.2</ele>
        <time>2022-05-21 02:24:37</time>
      </trkpt>
      <trkpt lat="41.87663" lon="2.29332">
        <ele>617</ele>
        <time>2022-05-21 02:24:38</time>
      </trkpt>
      <trkpt lat="41.87669" lon="2.29321">
        <ele>616.8</ele>
        <time>2022-05-21 02:24:39</time>
      </trkpt>
      <trkpt lat="41.87676" lon="2.2931">
        <ele>616.4</ele>
        <time>2022-05-21 02:24:40</time>
      </trkpt>
      <trkpt lat="41.87683" lon="2.29299">
        <ele>616</ele>
        <time>2022-05-21 02:24:41</time>
      </trkpt>
      <trkpt lat="41.87689" lon="2.29288">
        <ele>615.4</ele>
        <time>2022-05-21 02:24:42</time>
      </trkpt>
      <trkpt lat="41.87696" lon="2.29277">
        <ele>615</ele>
        <time>2022-05-21 02:24:43</time>
      </trkpt>
      <trkpt lat="41.87702" lon="2.29266">
        <ele>614.4</ele>
        <time>2022-05-21 02:24:44</time>
      </trkpt>
      <trkpt lat="41.87709" lon="2.29254">
        <ele>613.8</ele>
        <time>2022-05-21 02:24:45</time>
      </trkpt>
      <trkpt lat="41.87716" lon="2.29243">
        <ele>613.4</ele>
        <time>2022-05-21 02:24:46</time>
      </trkpt>
      <trkpt lat="41.87721" lon="2.29231">
        <ele>612.8</ele>
        <time>2022-05-21 02:24:47</time>
      </trkpt>
      <trkpt lat="41.87727" lon="2.29218">
        <ele>612.2</ele>
        <time>2022-05-21 02:24:48</time>
      </trkpt>
      <trkpt lat="41.87734" lon="2.29205">
        <ele>611.6</ele>
        <time>2022-05-21 02:24:49</time>
      </trkpt>
      <trkpt lat="41.87742" lon="2.29191">
        <ele>611.2</ele>
        <time>2022-05-21 02:24:50</time>
      </trkpt>
      <trkpt lat="41.87748" lon="2.2918">
        <ele>610.6</ele>
        <time>2022-05-21 02:24:51</time>
      </trkpt>
      <trkpt lat="41.87755" lon="2.29168">
        <ele>610.2</ele>
        <time>2022-05-21 02:24:52</time>
      </trkpt>
      <trkpt lat="41.87762" lon="2.29156">
        <ele>609.6</ele>
        <time>2022-05-21 02:24:53</time>
      </trkpt>
      <trkpt lat="41.87768" lon="2.29144">
        <ele>609</ele>
        <time>2022-05-21 02:24:54</time>
      </trkpt>
      <trkpt lat="41.87775" lon="2.29131">
        <ele>608.4</ele>
        <time>2022-05-21 02:24:55</time>
      </trkpt>
      <trkpt lat="41.87782" lon="2.29118">
        <ele>607.8</ele>
        <time>2022-05-21 02:24:56</time>
      </trkpt>
      <trkpt lat="41.87788" lon="2.29104">
        <ele>607.2</ele>
        <time>2022-05-21 02:24:57</time>
      </trkpt>
      <trkpt lat="41.87792" lon="2.29089">
        <ele>606.6</ele>
        <time>2022-05-21 02:24:58</time>
      </trkpt>
      <trkpt lat="41.87796" lon="2.29075">
        <ele>606.2</ele>
        <time>2022-05-21 02:24:59</time>
      </trkpt>
      <trkpt lat="41.87801" lon="2.29061">
        <ele>605.8</ele>
        <time>2022-05-21 02:25:00</time>
      </trkpt>
      <trkpt lat="41.87806" lon="2.29047">
        <ele>605.4</ele>
        <time>2022-05-21 02:25:01</time>
      </trkpt>
      <trkpt lat="41.87811" lon="2.29034">
        <ele>605.2</ele>
        <time>2022-05-21 02:25:02</time>
      </trkpt>
      <trkpt lat="41.87814" lon="2.2902">
        <ele>605</ele>
        <time>2022-05-21 02:25:03</time>
      </trkpt>
      <trkpt lat="41.87816" lon="2.29006">
        <ele>604.8</ele>
        <time>2022-05-21 02:25:04</time>
      </trkpt>
      <trkpt lat="41.87817" lon="2.28992">
        <ele>604.8</ele>
        <time>2022-05-21 02:25:05</time>
      </trkpt>
      <trkpt lat="41.87818" lon="2.28977">
        <ele>604.6</ele>
        <time>2022-05-21 02:25:06</time>
      </trkpt>
      <trkpt lat="41.87819" lon="2.28964">
        <ele>604.6</ele>
        <time>2022-05-21 02:25:07</time>
      </trkpt>
      <trkpt lat="41.87819" lon="2.28952">
        <ele>604.6</ele>
        <time>2022-05-21 02:25:08</time>
      </trkpt>
      <trkpt lat="41.8782" lon="2.28939">
        <ele>604.6</ele>
        <time>2022-05-21 02:25:09</time>
      </trkpt>
      <trkpt lat="41.8782" lon="2.28926">
        <ele>604.6</ele>
        <time>2022-05-21 02:25:10</time>
      </trkpt>
      <trkpt lat="41.87821" lon="2.28913">
        <ele>604.4</ele>
        <time>2022-05-21 02:25:11</time>
      </trkpt>
      <trkpt lat="41.87821" lon="2.28901">
        <ele>604.4</ele>
        <time>2022-05-21 02:25:12</time>
      </trkpt>
      <trkpt lat="41.87822" lon="2.28889">
        <ele>604.4</ele>
        <time>2022-05-21 02:25:13</time>
      </trkpt>
      <trkpt lat="41.87822" lon="2.28877">
        <ele>604.4</ele>
        <time>2022-05-21 02:25:14</time>
      </trkpt>
      <trkpt lat="41.87823" lon="2.28866">
        <ele>604.4</ele>
        <time>2022-05-21 02:25:15</time>
      </trkpt>
      <trkpt lat="41.87824" lon="2.28854">
        <ele>604.4</ele>
        <time>2022-05-21 02:25:16</time>
      </trkpt>
      <trkpt lat="41.87824" lon="2.28842">
        <ele>604.2</ele>
        <time>2022-05-21 02:25:17</time>
      </trkpt>
      <trkpt lat="41.87825" lon="2.2883">
        <ele>604.2</ele>
        <time>2022-05-21 02:25:18</time>
      </trkpt>
      <trkpt lat="41.87825" lon="2.28819">
        <ele>604.2</ele>
        <time>2022-05-21 02:25:19</time>
      </trkpt>
      <trkpt lat="41.87826" lon="2.28807">
        <ele>604.2</ele>
        <time>2022-05-21 02:25:20</time>
      </trkpt>
      <trkpt lat="41.87827" lon="2.28796">
        <ele>604.2</ele>
        <time>2022-05-21 02:25:21</time>
      </trkpt>
      <trkpt lat="41.87827" lon="2.28785">
        <ele>604.2</ele>
        <time>2022-05-21 02:25:22</time>
      </trkpt>
      <trkpt lat="41.87828" lon="2.28773">
        <ele>604.2</ele>
        <time>2022-05-21 02:25:23</time>
      </trkpt>
      <trkpt lat="41.87828" lon="2.28762">
        <ele>604.2</ele>
        <time>2022-05-21 02:25:24</time>
      </trkpt>
      <trkpt lat="41.87829" lon="2.28751">
        <ele>604.2</ele>
        <time>2022-05-21 02:25:25</time>
      </trkpt>
      <trkpt lat="41.8783" lon="2.2874">
        <ele>604</ele>
        <time>2022-05-21 02:25:26</time>
      </trkpt>
      <trkpt lat="41.87832" lon="2.28728">
        <ele>604</ele>
        <time>2022-05-21 02:25:27</time>
      </trkpt>
      <trkpt lat="41.87834" lon="2.28717">
        <ele>603.8</ele>
        <time>2022-05-21 02:25:28</time>
      </trkpt>
      <trkpt lat="41.87838" lon="2.28707">
        <ele>603.8</ele>
        <time>2022-05-21 02:25:29</time>
      </trkpt>
      <trkpt lat="41.87842" lon="2.28697">
        <ele>603.6</ele>
        <time>2022-05-21 02:25:30</time>
      </trkpt>
      <trkpt lat="41.87847" lon="2.28688">
        <ele>603.6</ele>
        <time>2022-05-21 02:25:31</time>
      </trkpt>
      <trkpt lat="41.87852" lon="2.2868">
        <ele>603.6</ele>
        <time>2022-05-21 02:25:32</time>
      </trkpt>
      <trkpt lat="41.87857" lon="2.28672">
        <ele>603.6</ele>
        <time>2022-05-21 02:25:33</time>
      </trkpt>
      <trkpt lat="41.87864" lon="2.28666">
        <ele>603.8</ele>
        <time>2022-05-21 02:25:34</time>
      </trkpt>
      <trkpt lat="41.8787" lon="2.2866">
        <ele>603.8</ele>
        <time>2022-05-21 02:25:35</time>
      </trkpt>
      <trkpt lat="41.87878" lon="2.28656">
        <ele>604</ele>
        <time>2022-05-21 02:25:36</time>
      </trkpt>
      <trkpt lat="41.87885" lon="2.28652">
        <ele>604.2</ele>
        <time>2022-05-21 02:25:37</time>
      </trkpt>
      <trkpt lat="41.87891" lon="2.28648">
        <ele>604.2</ele>
        <time>2022-05-21 02:25:38</time>
      </trkpt>
      <trkpt lat="41.87898" lon="2.28644">
        <ele>604.4</ele>
        <time>2022-05-21 02:25:39</time>
      </trkpt>
      <trkpt lat="41.87905" lon="2.2864">
        <ele>604.4</ele>
        <time>2022-05-21 02:25:40</time>
      </trkpt>
      <trkpt lat="41.87911" lon="2.28637">
        <ele>604.6</ele>
        <time>2022-05-21 02:25:41</time>
      </trkpt>
      <trkpt lat="41.87917" lon="2.28633">
        <ele>604.6</ele>
        <time>2022-05-21 02:25:42</time>
      </trkpt>
      <trkpt lat="41.87924" lon="2.28629">
        <ele>604.8</ele>
        <time>2022-05-21 02:25:43</time>
      </trkpt>
      <trkpt lat="41.87931" lon="2.28625">
        <ele>604.8</ele>
        <time>2022-05-21 02:25:44</time>
      </trkpt>
      <trkpt lat="41.87938" lon="2.28621">
        <ele>604.8</ele>
        <time>2022-05-21 02:25:45</time>
      </trkpt>
      <trkpt lat="41.87944" lon="2.28618">
        <ele>604.8</ele>
        <time>2022-05-21 02:25:46</time>
      </trkpt>
      <trkpt lat="41.87951" lon="2.28614">
        <ele>605</ele>
        <time>2022-05-21 02:25:47</time>
      </trkpt>
      <trkpt lat="41.87957" lon="2.2861">
        <ele>605</ele>
        <time>2022-05-21 02:25:48</time>
      </trkpt>
      <trkpt lat="41.87964" lon="2.28607">
        <ele>605</ele>
        <time>2022-05-21 02:25:49</time>
      </trkpt>
      <trkpt lat="41.87971" lon="2.28603">
        <ele>605.2</ele>
        <time>2022-05-21 02:25:50</time>
      </trkpt>
      <trkpt lat="41.87978" lon="2.28599">
        <ele>605.2</ele>
        <time>2022-05-21 02:25:51</time>
      </trkpt>
      <trkpt lat="41.87985" lon="2.28597">
        <ele>605.2</ele>
        <time>2022-05-21 02:25:52</time>
      </trkpt>
      <trkpt lat="41.87992" lon="2.28595">
        <ele>605.4</ele>
        <time>2022-05-21 02:25:53</time>
      </trkpt>
      <trkpt lat="41.87999" lon="2.28595">
        <ele>605.4</ele>
        <time>2022-05-21 02:25:54</time>
      </trkpt>
      <trkpt lat="41.88005" lon="2.28596">
        <ele>605.4</ele>
        <time>2022-05-21 02:25:55</time>
      </trkpt>
      <trkpt lat="41.88012" lon="2.28598">
        <ele>605.6</ele>
        <time>2022-05-21 02:25:56</time>
      </trkpt>
      <trkpt lat="41.88019" lon="2.28599">
        <ele>605.6</ele>
        <time>2022-05-21 02:25:57</time>
      </trkpt>
      <trkpt lat="41.88026" lon="2.28599">
        <ele>605.8</ele>
        <time>2022-05-21 02:25:58</time>
      </trkpt>
      <trkpt lat="41.88032" lon="2.28596">
        <ele>605.8</ele>
        <time>2022-05-21 02:25:59</time>
      </trkpt>
      <trkpt lat="41.88037" lon="2.28592">
        <ele>605.8</ele>
        <time>2022-05-21 02:26:00</time>
      </trkpt>
      <trkpt lat="41.88041" lon="2.28589">
        <ele>606</ele>
        <time>2022-05-21 02:26:01</time>
      </trkpt>
      <trkpt lat="41.8805" lon="2.28583">
        <ele>606</ele>
        <time>2022-05-21 02:26:02</time>
      </trkpt>
      <trkpt lat="41.88057" lon="2.2858">
        <ele>606</ele>
        <time>2022-05-21 02:26:03</time>
      </trkpt>
      <trkpt lat="41.88063" lon="2.28578">
        <ele>606</ele>
        <time>2022-05-21 02:26:04</time>
      </trkpt>
      <trkpt lat="41.8807" lon="2.28576">
        <ele>606.2</ele>
        <time>2022-05-21 02:26:05</time>
      </trkpt>
      <trkpt lat="41.88076" lon="2.28574">
        <ele>606.2</ele>
        <time>2022-05-21 02:26:06</time>
      </trkpt>
      <trkpt lat="41.88083" lon="2.28572">
        <ele>606</ele>
        <time>2022-05-21 02:26:07</time>
      </trkpt>
      <trkpt lat="41.88089" lon="2.28569">
        <ele>606</ele>
        <time>2022-05-21 02:26:08</time>
      </trkpt>
      <trkpt lat="41.88096" lon="2.28565">
        <ele>605.8</ele>
        <time>2022-05-21 02:26:09</time>
      </trkpt>
      <trkpt lat="41.88103" lon="2.28561">
        <ele>605.6</ele>
        <time>2022-05-21 02:26:10</time>
      </trkpt>
      <trkpt lat="41.8811" lon="2.28556">
        <ele>605.4</ele>
        <time>2022-05-21 02:26:11</time>
      </trkpt>
      <trkpt lat="41.88117" lon="2.28551">
        <ele>605.2</ele>
        <time>2022-05-21 02:26:12</time>
      </trkpt>
      <trkpt lat="41.88124" lon="2.28546">
        <ele>605</ele>
        <time>2022-05-21 02:26:13</time>
      </trkpt>
      <trkpt lat="41.88131" lon="2.2854">
        <ele>604.8</ele>
        <time>2022-05-21 02:26:14</time>
      </trkpt>
      <trkpt lat="41.88138" lon="2.28535">
        <ele>604.6</ele>
        <time>2022-05-21 02:26:15</time>
      </trkpt>
      <trkpt lat="41.88145" lon="2.28529">
        <ele>604.4</ele>
        <time>2022-05-21 02:26:16</time>
      </trkpt>
      <trkpt lat="41.88153" lon="2.28523">
        <ele>604</ele>
        <time>2022-05-21 02:26:17</time>
      </trkpt>
      <trkpt lat="41.88161" lon="2.28517">
        <ele>603.8</ele>
        <time>2022-05-21 02:26:18</time>
      </trkpt>
      <trkpt lat="41.88168" lon="2.2851">
        <ele>603.6</ele>
        <time>2022-05-21 02:26:19</time>
      </trkpt>
      <trkpt lat="41.88176" lon="2.28504">
        <ele>603.4</ele>
        <time>2022-05-21 02:26:20</time>
      </trkpt>
      <trkpt lat="41.88184" lon="2.28498">
        <ele>603</ele>
        <time>2022-05-21 02:26:21</time>
      </trkpt>
      <trkpt lat="41.88192" lon="2.28492">
        <ele>602.8</ele>
        <time>2022-05-21 02:26:22</time>
      </trkpt>
      <trkpt lat="41.882" lon="2.28485">
        <ele>602.6</ele>
        <time>2022-05-21 02:26:23</time>
      </trkpt>
      <trkpt lat="41.88208" lon="2.28479">
        <ele>602.2</ele>
        <time>2022-05-21 02:26:24</time>
      </trkpt>
      <trkpt lat="41.88216" lon="2.28472">
        <ele>602</ele>
        <time>2022-05-21 02:26:25</time>
      </trkpt>
      <trkpt lat="41.88224" lon="2.28465">
        <ele>601.8</ele>
        <time>2022-05-21 02:26:26</time>
      </trkpt>
      <trkpt lat="41.88232" lon="2.28458">
        <ele>601.4</ele>
        <time>2022-05-21 02:26:27</time>
      </trkpt>
      <trkpt lat="41.8824" lon="2.28451">
        <ele>601</ele>
        <time>2022-05-21 02:26:28</time>
      </trkpt>
      <trkpt lat="41.88249" lon="2.28445">
        <ele>600.8</ele>
        <time>2022-05-21 02:26:29</time>
      </trkpt>
      <trkpt lat="41.88257" lon="2.28438">
        <ele>600.6</ele>
        <time>2022-05-21 02:26:30</time>
      </trkpt>
      <trkpt lat="41.88266" lon="2.28431">
        <ele>600.2</ele>
        <time>2022-05-21 02:26:31</time>
      </trkpt>
      <trkpt lat="41.88274" lon="2.28424">
        <ele>600</ele>
        <time>2022-05-21 02:26:32</time>
      </trkpt>
      <trkpt lat="41.88282" lon="2.28417">
        <ele>599.8</ele>
        <time>2022-05-21 02:26:33</time>
      </trkpt>
      <trkpt lat="41.88291" lon="2.28409">
        <ele>599.4</ele>
        <time>2022-05-21 02:26:34</time>
      </trkpt>
      <trkpt lat="41.883" lon="2.28402">
        <ele>599.2</ele>
        <time>2022-05-21 02:26:35</time>
      </trkpt>
      <trkpt lat="41.88308" lon="2.28395">
        <ele>598.8</ele>
        <time>2022-05-21 02:26:36</time>
      </trkpt>
      <trkpt lat="41.88317" lon="2.28387">
        <ele>598.6</ele>
        <time>2022-05-21 02:26:37</time>
      </trkpt>
      <trkpt lat="41.88325" lon="2.2838">
        <ele>598.2</ele>
        <time>2022-05-21 02:26:38</time>
      </trkpt>
      <trkpt lat="41.88333" lon="2.28371">
        <ele>598</ele>
        <time>2022-05-21 02:26:39</time>
      </trkpt>
      <trkpt lat="41.88342" lon="2.28362">
        <ele>597.8</ele>
        <time>2022-05-21 02:26:40</time>
      </trkpt>
      <trkpt lat="41.8835" lon="2.28353">
        <ele>597.4</ele>
        <time>2022-05-21 02:26:41</time>
      </trkpt>
      <trkpt lat="41.88358" lon="2.28344">
        <ele>597.2</ele>
        <time>2022-05-21 02:26:42</time>
      </trkpt>
      <trkpt lat="41.88365" lon="2.28335">
        <ele>596.8</ele>
        <time>2022-05-21 02:26:43</time>
      </trkpt>
      <trkpt lat="41.88372" lon="2.28326">
        <ele>596.6</ele>
        <time>2022-05-21 02:26:44</time>
      </trkpt>
      <trkpt lat="41.88379" lon="2.28316">
        <ele>596.2</ele>
        <time>2022-05-21 02:26:45</time>
      </trkpt>
      <trkpt lat="41.88386" lon="2.28306">
        <ele>596</ele>
        <time>2022-05-21 02:26:46</time>
      </trkpt>
      <trkpt lat="41.88393" lon="2.28295">
        <ele>595.8</ele>
        <time>2022-05-21 02:26:47</time>
      </trkpt>
      <trkpt lat="41.884" lon="2.28284">
        <ele>595.4</ele>
        <time>2022-05-21 02:26:48</time>
      </trkpt>
      <trkpt lat="41.88408" lon="2.28273">
        <ele>595.2</ele>
        <time>2022-05-21 02:26:49</time>
      </trkpt>
      <trkpt lat="41.88415" lon="2.28262">
        <ele>595</ele>
        <time>2022-05-21 02:26:50</time>
      </trkpt>
      <trkpt lat="41.88422" lon="2.28252">
        <ele>594.6</ele>
        <time>2022-05-21 02:26:51</time>
      </trkpt>
      <trkpt lat="41.88429" lon="2.28243">
        <ele>594.4</ele>
        <time>2022-05-21 02:26:52</time>
      </trkpt>
      <trkpt lat="41.88436" lon="2.28233">
        <ele>594</ele>
        <time>2022-05-21 02:26:53</time>
      </trkpt>
      <trkpt lat="41.88443" lon="2.28223">
        <ele>593.6</ele>
        <time>2022-05-21 02:26:54</time>
      </trkpt>
      <trkpt lat="41.88451" lon="2.28214">
        <ele>593.4</ele>
        <time>2022-05-21 02:26:55</time>
      </trkpt>
      <trkpt lat="41.88459" lon="2.28205">
        <ele>593</ele>
        <time>2022-05-21 02:26:56</time>
      </trkpt>
      <trkpt lat="41.88469" lon="2.28197">
        <ele>592.6</ele>
        <time>2022-05-21 02:26:57</time>
      </trkpt>
      <trkpt lat="41.88477" lon="2.28188">
        <ele>592.4</ele>
        <time>2022-05-21 02:26:58</time>
      </trkpt>
      <trkpt lat="41.88486" lon="2.2818">
        <ele>592</ele>
        <time>2022-05-21 02:26:59</time>
      </trkpt>
      <trkpt lat="41.88494" lon="2.28173">
        <ele>591.6</ele>
        <time>2022-05-21 02:27:00</time>
      </trkpt>
      <trkpt lat="41.88503" lon="2.28166">
        <ele>591.4</ele>
        <time>2022-05-21 02:27:01</time>
      </trkpt>
      <trkpt lat="41.88512" lon="2.28159">
        <ele>591</ele>
        <time>2022-05-21 02:27:02</time>
      </trkpt>
      <trkpt lat="41.88522" lon="2.28153">
        <ele>590.8</ele>
        <time>2022-05-21 02:27:03</time>
      </trkpt>
      <trkpt lat="41.88531" lon="2.28146">
        <ele>590.6</ele>
        <time>2022-05-21 02:27:04</time>
      </trkpt>
      <trkpt lat="41.8854" lon="2.2814">
        <ele>590.4</ele>
        <time>2022-05-21 02:27:05</time>
      </trkpt>
      <trkpt lat="41.88549" lon="2.28135">
        <ele>590.2</ele>
        <time>2022-05-21 02:27:06</time>
      </trkpt>
      <trkpt lat="41.88559" lon="2.2813">
        <ele>590</ele>
        <time>2022-05-21 02:27:07</time>
      </trkpt>
      <trkpt lat="41.88568" lon="2.28125">
        <ele>589.8</ele>
        <time>2022-05-21 02:27:08</time>
      </trkpt>
      <trkpt lat="41.88577" lon="2.2812">
        <ele>589.8</ele>
        <time>2022-05-21 02:27:09</time>
      </trkpt>
      <trkpt lat="41.88586" lon="2.28114">
        <ele>589.6</ele>
        <time>2022-05-21 02:27:10</time>
      </trkpt>
      <trkpt lat="41.88596" lon="2.28109">
        <ele>589.4</ele>
        <time>2022-05-21 02:27:11</time>
      </trkpt>
      <trkpt lat="41.88605" lon="2.28104">
        <ele>589</ele>
        <time>2022-05-21 02:27:12</time>
      </trkpt>
      <trkpt lat="41.88614" lon="2.28099">
        <ele>588.8</ele>
        <time>2022-05-21 02:27:13</time>
      </trkpt>
      <trkpt lat="41.88623" lon="2.28094">
        <ele>588.6</ele>
        <time>2022-05-21 02:27:14</time>
      </trkpt>
      <trkpt lat="41.88631" lon="2.28088">
        <ele>588.4</ele>
        <time>2022-05-21 02:27:15</time>
      </trkpt>
      <trkpt lat="41.8864" lon="2.28083">
        <ele>588.2</ele>
        <time>2022-05-21 02:27:16</time>
      </trkpt>
      <trkpt lat="41.88648" lon="2.28077">
        <ele>588</ele>
        <time>2022-05-21 02:27:17</time>
      </trkpt>
      <trkpt lat="41.88657" lon="2.28071">
        <ele>587.8</ele>
        <time>2022-05-21 02:27:18</time>
      </trkpt>
      <trkpt lat="41.88667" lon="2.28065">
        <ele>587.6</ele>
        <time>2022-05-21 02:27:19</time>
      </trkpt>
      <trkpt lat="41.88676" lon="2.28059">
        <ele>587.4</ele>
        <time>2022-05-21 02:27:20</time>
      </trkpt>
      <trkpt lat="41.88684" lon="2.28053">
        <ele>587.2</ele>
        <time>2022-05-21 02:27:21</time>
      </trkpt>
      <trkpt lat="41.88693" lon="2.28048">
        <ele>586.8</ele>
        <time>2022-05-21 02:27:22</time>
      </trkpt>
      <trkpt lat="41.88702" lon="2.28042">
        <ele>586.6</ele>
        <time>2022-05-21 02:27:23</time>
      </trkpt>
      <trkpt lat="41.8871" lon="2.28037">
        <ele>586.4</ele>
        <time>2022-05-21 02:27:24</time>
      </trkpt>
      <trkpt lat="41.88719" lon="2.28031">
        <ele>586.2</ele>
        <time>2022-05-21 02:27:25</time>
      </trkpt>
      <trkpt lat="41.88728" lon="2.28026">
        <ele>586</ele>
        <time>2022-05-21 02:27:26</time>
      </trkpt>
      <trkpt lat="41.88737" lon="2.2802">
        <ele>585.8</ele>
        <time>2022-05-21 02:27:27</time>
      </trkpt>
      <trkpt lat="41.88747" lon="2.28015">
        <ele>585.6</ele>
        <time>2022-05-21 02:27:28</time>
      </trkpt>
      <trkpt lat="41.88756" lon="2.2801">
        <ele>585.4</ele>
        <time>2022-05-21 02:27:29</time>
      </trkpt>
      <trkpt lat="41.88765" lon="2.28005">
        <ele>585.2</ele>
        <time>2022-05-21 02:27:30</time>
      </trkpt>
      <trkpt lat="41.88774" lon="2.28">
        <ele>585</ele>
        <time>2022-05-21 02:27:31</time>
      </trkpt>
      <trkpt lat="41.88783" lon="2.27996">
        <ele>584.8</ele>
        <time>2022-05-21 02:27:32</time>
      </trkpt>
      <trkpt lat="41.88792" lon="2.27993">
        <ele>584.6</ele>
        <time>2022-05-21 02:27:33</time>
      </trkpt>
      <trkpt lat="41.88802" lon="2.2799">
        <ele>584.2</ele>
        <time>2022-05-21 02:27:34</time>
      </trkpt>
      <trkpt lat="41.88811" lon="2.27988">
        <ele>584</ele>
        <time>2022-05-21 02:27:35</time>
      </trkpt>
      <trkpt lat="41.88821" lon="2.27985">
        <ele>583.8</ele>
        <time>2022-05-21 02:27:36</time>
      </trkpt>
      <trkpt lat="41.88831" lon="2.27982">
        <ele>583.4</ele>
        <time>2022-05-21 02:27:37</time>
      </trkpt>
      <trkpt lat="41.8884" lon="2.2798">
        <ele>582.8</ele>
        <time>2022-05-21 02:27:38</time>
      </trkpt>
      <trkpt lat="41.88849" lon="2.27978">
        <ele>582.6</ele>
        <time>2022-05-21 02:27:39</time>
      </trkpt>
      <trkpt lat="41.8886" lon="2.27976">
        <ele>582.4</ele>
        <time>2022-05-21 02:27:40</time>
      </trkpt>
      <trkpt lat="41.88869" lon="2.27976">
        <ele>582</ele>
        <time>2022-05-21 02:27:41</time>
      </trkpt>
      <trkpt lat="41.88879" lon="2.27974">
        <ele>581.8</ele>
        <time>2022-05-21 02:27:42</time>
      </trkpt>
      <trkpt lat="41.88889" lon="2.27974">
        <ele>581.6</ele>
        <time>2022-05-21 02:27:43</time>
      </trkpt>
      <trkpt lat="41.88898" lon="2.27973">
        <ele>581.2</ele>
        <time>2022-05-21 02:27:44</time>
      </trkpt>
      <trkpt lat="41.88908" lon="2.27971">
        <ele>580.8</ele>
        <time>2022-05-21 02:27:45</time>
      </trkpt>
      <trkpt lat="41.88918" lon="2.27969">
        <ele>580.4</ele>
        <time>2022-05-21 02:27:46</time>
      </trkpt>
      <trkpt lat="41.88928" lon="2.27967">
        <ele>579.8</ele>
        <time>2022-05-21 02:27:47</time>
      </trkpt>
      <trkpt lat="41.88939" lon="2.27966">
        <ele>579.2</ele>
        <time>2022-05-21 02:27:48</time>
      </trkpt>
      <trkpt lat="41.8895" lon="2.27963">
        <ele>578.8</ele>
        <time>2022-05-21 02:27:49</time>
      </trkpt>
      <trkpt lat="41.88962" lon="2.27961">
        <ele>578.2</ele>
        <time>2022-05-21 02:27:50</time>
      </trkpt>
      <trkpt lat="41.88973" lon="2.27959">
        <ele>577.4</ele>
        <time>2022-05-21 02:27:51</time>
      </trkpt>
      <trkpt lat="41.88984" lon="2.27957">
        <ele>576.8</ele>
        <time>2022-05-21 02:27:52</time>
      </trkpt>
      <trkpt lat="41.88996" lon="2.27955">
        <ele>576.2</ele>
        <time>2022-05-21 02:27:53</time>
      </trkpt>
      <trkpt lat="41.89008" lon="2.27953">
        <ele>575.4</ele>
        <time>2022-05-21 02:27:54</time>
      </trkpt>
      <trkpt lat="41.89019" lon="2.2795">
        <ele>574.8</ele>
        <time>2022-05-21 02:27:55</time>
      </trkpt>
      <trkpt lat="41.89031" lon="2.27948">
        <ele>574</ele>
        <time>2022-05-21 02:27:56</time>
      </trkpt>
      <trkpt lat="41.89043" lon="2.27946">
        <ele>573.6</ele>
        <time>2022-05-21 02:27:57</time>
      </trkpt>
      <trkpt lat="41.89055" lon="2.27945">
        <ele>572.8</ele>
        <time>2022-05-21 02:27:58</time>
      </trkpt>
      <trkpt lat="41.89067" lon="2.27943">
        <ele>572</ele>
        <time>2022-05-21 02:27:59</time>
      </trkpt>
      <trkpt lat="41.89079" lon="2.27943">
        <ele>571.2</ele>
        <time>2022-05-21 02:28:00</time>
      </trkpt>
      <trkpt lat="41.89091" lon="2.27943">
        <ele>570.6</ele>
        <time>2022-05-21 02:28:01</time>
      </trkpt>
      <trkpt lat="41.89103" lon="2.27944">
        <ele>570</ele>
        <time>2022-05-21 02:28:02</time>
      </trkpt>
      <trkpt lat="41.89115" lon="2.27947">
        <ele>569.4</ele>
        <time>2022-05-21 02:28:03</time>
      </trkpt>
      <trkpt lat="41.89126" lon="2.27951">
        <ele>569</ele>
        <time>2022-05-21 02:28:04</time>
      </trkpt>
      <trkpt lat="41.89137" lon="2.27958">
        <ele>568.4</ele>
        <time>2022-05-21 02:28:05</time>
      </trkpt>
      <trkpt lat="41.89146" lon="2.27965">
        <ele>568</ele>
        <time>2022-05-21 02:28:06</time>
      </trkpt>
      <trkpt lat="41.89156" lon="2.27972">
        <ele>567.6</ele>
        <time>2022-05-21 02:28:07</time>
      </trkpt>
      <trkpt lat="41.89166" lon="2.27979">
        <ele>567</ele>
        <time>2022-05-21 02:28:08</time>
      </trkpt>
      <trkpt lat="41.89177" lon="2.27986">
        <ele>566.8</ele>
        <time>2022-05-21 02:28:09</time>
      </trkpt>
      <trkpt lat="41.89186" lon="2.27994">
        <ele>566.2</ele>
        <time>2022-05-21 02:28:10</time>
      </trkpt>
      <trkpt lat="41.89196" lon="2.28002">
        <ele>565.8</ele>
        <time>2022-05-21 02:28:11</time>
      </trkpt>
      <trkpt lat="41.89206" lon="2.28009">
        <ele>565.4</ele>
        <time>2022-05-21 02:28:12</time>
      </trkpt>
      <trkpt lat="41.89216" lon="2.28017">
        <ele>564.8</ele>
        <time>2022-05-21 02:28:13</time>
      </trkpt>
      <trkpt lat="41.89227" lon="2.28025">
        <ele>564.2</ele>
        <time>2022-05-21 02:28:14</time>
      </trkpt>
      <trkpt lat="41.89237" lon="2.28032">
        <ele>563.6</ele>
        <time>2022-05-21 02:28:15</time>
      </trkpt>
      <trkpt lat="41.89247" lon="2.2804">
        <ele>562.8</ele>
        <time>2022-05-21 02:28:16</time>
      </trkpt>
      <trkpt lat="41.89257" lon="2.28049">
        <ele>562</ele>
        <time>2022-05-21 02:28:17</time>
      </trkpt>
      <trkpt lat="41.89268" lon="2.28058">
        <ele>561.2</ele>
        <time>2022-05-21 02:28:18</time>
      </trkpt>
      <trkpt lat="41.89279" lon="2.28067">
        <ele>560.4</ele>
        <time>2022-05-21 02:28:19</time>
      </trkpt>
      <trkpt lat="41.89291" lon="2.28075">
        <ele>559.6</ele>
        <time>2022-05-21 02:28:20</time>
      </trkpt>
      <trkpt lat="41.89302" lon="2.28084">
        <ele>558.8</ele>
        <time>2022-05-21 02:28:21</time>
      </trkpt>
      <trkpt lat="41.89314" lon="2.28093">
        <ele>558</ele>
        <time>2022-05-21 02:28:22</time>
      </trkpt>
      <trkpt lat="41.89325" lon="2.28101">
        <ele>557</ele>
        <time>2022-05-21 02:28:23</time>
      </trkpt>
      <trkpt lat="41.89336" lon="2.28109">
        <ele>556</ele>
        <time>2022-05-21 02:28:24</time>
      </trkpt>
      <trkpt lat="41.89347" lon="2.28119">
        <ele>555.2</ele>
        <time>2022-05-21 02:28:25</time>
      </trkpt>
      <trkpt lat="41.89359" lon="2.28129">
        <ele>554.4</ele>
        <time>2022-05-21 02:28:26</time>
      </trkpt>
      <trkpt lat="41.89369" lon="2.28138">
        <ele>553.4</ele>
        <time>2022-05-21 02:28:27</time>
      </trkpt>
      <trkpt lat="41.8938" lon="2.28148">
        <ele>552.6</ele>
        <time>2022-05-21 02:28:28</time>
      </trkpt>
      <trkpt lat="41.89391" lon="2.28159">
        <ele>551.8</ele>
        <time>2022-05-21 02:28:29</time>
      </trkpt>
      <trkpt lat="41.89402" lon="2.2817">
        <ele>551</ele>
        <time>2022-05-21 02:28:30</time>
      </trkpt>
      <trkpt lat="41.89412" lon="2.28181">
        <ele>550.2</ele>
        <time>2022-05-21 02:28:31</time>
      </trkpt>
      <trkpt lat="41.89423" lon="2.28191">
        <ele>549.6</ele>
        <time>2022-05-21 02:28:32</time>
      </trkpt>
      <trkpt lat="41.89434" lon="2.28199">
        <ele>548.8</ele>
        <time>2022-05-21 02:28:33</time>
      </trkpt>
      <trkpt lat="41.89447" lon="2.28206">
        <ele>548</ele>
        <time>2022-05-21 02:28:34</time>
      </trkpt>
      <trkpt lat="41.8946" lon="2.28212">
        <ele>547.2</ele>
        <time>2022-05-21 02:28:35</time>
      </trkpt>
      <trkpt lat="41.89473" lon="2.28215">
        <ele>546.6</ele>
        <time>2022-05-21 02:28:36</time>
      </trkpt>
      <trkpt lat="41.89485" lon="2.28219">
        <ele>546</ele>
        <time>2022-05-21 02:28:37</time>
      </trkpt>
      <trkpt lat="41.89497" lon="2.28225">
        <ele>545.2</ele>
        <time>2022-05-21 02:28:38</time>
      </trkpt>
      <trkpt lat="41.89509" lon="2.28232">
        <ele>544.4</ele>
        <time>2022-05-21 02:28:39</time>
      </trkpt>
      <trkpt lat="41.89521" lon="2.28241">
        <ele>543.6</ele>
        <time>2022-05-21 02:28:40</time>
      </trkpt>
      <trkpt lat="41.8953" lon="2.28249">
        <ele>542.8</ele>
        <time>2022-05-21 02:28:41</time>
      </trkpt>
      <trkpt lat="41.89536" lon="2.28255">
        <ele>542.4</ele>
        <time>2022-05-21 02:28:42</time>
      </trkpt>
      <trkpt lat="41.89549" lon="2.28269">
        <ele>541.4</ele>
        <time>2022-05-21 02:28:43</time>
      </trkpt>
      <trkpt lat="41.89564" lon="2.2828">
        <ele>540.8</ele>
        <time>2022-05-21 02:28:44</time>
      </trkpt>
      <trkpt lat="41.89577" lon="2.28288">
        <ele>540</ele>
        <time>2022-05-21 02:28:45</time>
      </trkpt>
      <trkpt lat="41.89589" lon="2.28293">
        <ele>539.2</ele>
        <time>2022-05-21 02:28:46</time>
      </trkpt>
      <trkpt lat="41.89601" lon="2.28298">
        <ele>538.2</ele>
        <time>2022-05-21 02:28:47</time>
      </trkpt>
      <trkpt lat="41.89613" lon="2.28303">
        <ele>537.6</ele>
        <time>2022-05-21 02:28:48</time>
      </trkpt>
      <trkpt lat="41.89626" lon="2.28308">
        <ele>536.8</ele>
        <time>2022-05-21 02:28:49</time>
      </trkpt>
      <trkpt lat="41.89639" lon="2.28313">
        <ele>536.2</ele>
        <time>2022-05-21 02:28:50</time>
      </trkpt>
      <trkpt lat="41.89651" lon="2.28317">
        <ele>535.6</ele>
        <time>2022-05-21 02:28:51</time>
      </trkpt>
      <trkpt lat="41.89663" lon="2.28321">
        <ele>535.2</ele>
        <time>2022-05-21 02:28:52</time>
      </trkpt>
      <trkpt lat="41.89676" lon="2.28325">
        <ele>534.8</ele>
        <time>2022-05-21 02:28:53</time>
      </trkpt>
      <trkpt lat="41.89687" lon="2.28327">
        <ele>534.6</ele>
        <time>2022-05-21 02:28:54</time>
      </trkpt>
      <trkpt lat="41.89698" lon="2.28328">
        <ele>534.2</ele>
        <time>2022-05-21 02:28:55</time>
      </trkpt>
      <trkpt lat="41.89709" lon="2.2833">
        <ele>534</ele>
        <time>2022-05-21 02:28:56</time>
      </trkpt>
      <trkpt lat="41.89721" lon="2.2833">
        <ele>533.8</ele>
        <time>2022-05-21 02:28:57</time>
      </trkpt>
      <trkpt lat="41.89733" lon="2.2833">
        <ele>533.6</ele>
        <time>2022-05-21 02:28:58</time>
      </trkpt>
      <trkpt lat="41.89744" lon="2.2833">
        <ele>533.4</ele>
        <time>2022-05-21 02:28:59</time>
      </trkpt>
      <trkpt lat="41.89756" lon="2.28329">
        <ele>533.2</ele>
        <time>2022-05-21 02:29:00</time>
      </trkpt>
      <trkpt lat="41.89766" lon="2.28329">
        <ele>533</ele>
        <time>2022-05-21 02:29:01</time>
      </trkpt>
      <trkpt lat="41.89777" lon="2.28328">
        <ele>532.8</ele>
        <time>2022-05-21 02:29:02</time>
      </trkpt>
      <trkpt lat="41.89787" lon="2.28328">
        <ele>532.6</ele>
        <time>2022-05-21 02:29:03</time>
      </trkpt>
      <trkpt lat="41.89797" lon="2.28328">
        <ele>532.4</ele>
        <time>2022-05-21 02:29:04</time>
      </trkpt>
      <trkpt lat="41.89806" lon="2.28325">
        <ele>532.4</ele>
        <time>2022-05-21 02:29:05</time>
      </trkpt>
      <trkpt lat="41.89816" lon="2.28322">
        <ele>532.2</ele>
        <time>2022-05-21 02:29:06</time>
      </trkpt>
      <trkpt lat="41.89826" lon="2.28317">
        <ele>532</ele>
        <time>2022-05-21 02:29:07</time>
      </trkpt>
      <trkpt lat="41.89834" lon="2.28311">
        <ele>531.8</ele>
        <time>2022-05-21 02:29:08</time>
      </trkpt>
      <trkpt lat="41.89843" lon="2.28303">
        <ele>531.6</ele>
        <time>2022-05-21 02:29:09</time>
      </trkpt>
      <trkpt lat="41.8985" lon="2.28294">
        <ele>531.4</ele>
        <time>2022-05-21 02:29:10</time>
      </trkpt>
      <trkpt lat="41.89857" lon="2.28284">
        <ele>531.4</ele>
        <time>2022-05-21 02:29:11</time>
      </trkpt>
      <trkpt lat="41.89862" lon="2.28273">
        <ele>531.2</ele>
        <time>2022-05-21 02:29:12</time>
      </trkpt>
      <trkpt lat="41.89868" lon="2.28262">
        <ele>531</ele>
        <time>2022-05-21 02:29:13</time>
      </trkpt>
      <trkpt lat="41.89873" lon="2.28252">
        <ele>530.8</ele>
        <time>2022-05-21 02:29:14</time>
      </trkpt>
      <trkpt lat="41.89878" lon="2.28242">
        <ele>530.6</ele>
        <time>2022-05-21 02:29:15</time>
      </trkpt>
      <trkpt lat="41.89884" lon="2.28232">
        <ele>530.2</ele>
        <time>2022-05-21 02:29:16</time>
      </trkpt>
      <trkpt lat="41.8989" lon="2.28222">
        <ele>529.8</ele>
        <time>2022-05-21 02:29:17</time>
      </trkpt>
      <trkpt lat="41.89895" lon="2.28212">
        <ele>529.2</ele>
        <time>2022-05-21 02:29:18</time>
      </trkpt>
      <trkpt lat="41.899" lon="2.28201">
        <ele>528.8</ele>
        <time>2022-05-21 02:29:19</time>
      </trkpt>
      <trkpt lat="41.89907" lon="2.28189">
        <ele>528.2</ele>
        <time>2022-05-21 02:29:20</time>
      </trkpt>
      <trkpt lat="41.89914" lon="2.28177">
        <ele>527.6</ele>
        <time>2022-05-21 02:29:21</time>
      </trkpt>
      <trkpt lat="41.89921" lon="2.28165">
        <ele>527.2</ele>
        <time>2022-05-21 02:29:22</time>
      </trkpt>
      <trkpt lat="41.89927" lon="2.28154">
        <ele>526.6</ele>
        <time>2022-05-21 02:29:23</time>
      </trkpt>
      <trkpt lat="41.89933" lon="2.28142">
        <ele>526</ele>
        <time>2022-05-21 02:29:24</time>
      </trkpt>
      <trkpt lat="41.89939" lon="2.2813">
        <ele>525.4</ele>
        <time>2022-05-21 02:29:25</time>
      </trkpt>
      <trkpt lat="41.89943" lon="2.28118">
        <ele>524.8</ele>
        <time>2022-05-21 02:29:26</time>
      </trkpt>
      <trkpt lat="41.89946" lon="2.28107">
        <ele>524.4</ele>
        <time>2022-05-21 02:29:27</time>
      </trkpt>
      <trkpt lat="41.89948" lon="2.28096">
        <ele>524</ele>
        <time>2022-05-21 02:29:28</time>
      </trkpt>
      <trkpt lat="41.89952" lon="2.28087">
        <ele>523.6</ele>
        <time>2022-05-21 02:29:29</time>
      </trkpt>
      <trkpt lat="41.89956" lon="2.28082">
        <ele>523</ele>
        <time>2022-05-21 02:29:30</time>
      </trkpt>
      <trkpt lat="41.89962" lon="2.28079">
        <ele>522.4</ele>
        <time>2022-05-21 02:29:31</time>
      </trkpt>
      <trkpt lat="41.89968" lon="2.28082">
        <ele>521.8</ele>
        <time>2022-05-21 02:29:32</time>
      </trkpt>
      <trkpt lat="41.89971" lon="2.28091">
        <ele>521</ele>
        <time>2022-05-21 02:29:33</time>
      </trkpt>
      <trkpt lat="41.89973" lon="2.28101">
        <ele>520.4</ele>
        <time>2022-05-21 02:29:34</time>
      </trkpt>
      <trkpt lat="41.89973" lon="2.28112">
        <ele>519.8</ele>
        <time>2022-05-21 02:29:35</time>
      </trkpt>
      <trkpt lat="41.89975" lon="2.28123">
        <ele>519.2</ele>
        <time>2022-05-21 02:29:36</time>
      </trkpt>
      <trkpt lat="41.89978" lon="2.28135">
        <ele>518.6</ele>
        <time>2022-05-21 02:29:37</time>
      </trkpt>
      <trkpt lat="41.89983" lon="2.28145">
        <ele>518</ele>
        <time>2022-05-21 02:29:38</time>
      </trkpt>
      <trkpt lat="41.89988" lon="2.28153">
        <ele>517.6</ele>
        <time>2022-05-21 02:29:39</time>
      </trkpt>
      <trkpt lat="41.89996" lon="2.28158">
        <ele>517</ele>
        <time>2022-05-21 02:29:40</time>
      </trkpt>
      <trkpt lat="41.90004" lon="2.28161">
        <ele>516.6</ele>
        <time>2022-05-21 02:29:41</time>
      </trkpt>
      <trkpt lat="41.90013" lon="2.28163">
        <ele>516</ele>
        <time>2022-05-21 02:29:42</time>
      </trkpt>
      <trkpt lat="41.90023" lon="2.28165">
        <ele>515.6</ele>
        <time>2022-05-21 02:29:43</time>
      </trkpt>
      <trkpt lat="41.90032" lon="2.28166">
        <ele>515.2</ele>
        <time>2022-05-21 02:29:44</time>
      </trkpt>
      <trkpt lat="41.90041" lon="2.28167">
        <ele>514.6</ele>
        <time>2022-05-21 02:29:45</time>
      </trkpt>
      <trkpt lat="41.9005" lon="2.2817">
        <ele>514.2</ele>
        <time>2022-05-21 02:29:46</time>
      </trkpt>
      <trkpt lat="41.90059" lon="2.28173">
        <ele>513.8</ele>
        <time>2022-05-21 02:29:47</time>
      </trkpt>
      <trkpt lat="41.90067" lon="2.28177">
        <ele>513.2</ele>
        <time>2022-05-21 02:29:48</time>
      </trkpt>
      <trkpt lat="41.90077" lon="2.28183">
        <ele>512.8</ele>
        <time>2022-05-21 02:29:49</time>
      </trkpt>
      <trkpt lat="41.90087" lon="2.28187">
        <ele>512.4</ele>
        <time>2022-05-21 02:29:50</time>
      </trkpt>
      <trkpt lat="41.90096" lon="2.28192">
        <ele>512</ele>
        <time>2022-05-21 02:29:51</time>
      </trkpt>
      <trkpt lat="41.90105" lon="2.28196">
        <ele>511.4</ele>
        <time>2022-05-21 02:29:52</time>
      </trkpt>
      <trkpt lat="41.90113" lon="2.28202">
        <ele>511</ele>
        <time>2022-05-21 02:29:53</time>
      </trkpt>
      <trkpt lat="41.90122" lon="2.28211">
        <ele>510.6</ele>
        <time>2022-05-21 02:29:54</time>
      </trkpt>
      <trkpt lat="41.90129" lon="2.28219">
        <ele>510</ele>
        <time>2022-05-21 02:29:55</time>
      </trkpt>
      <trkpt lat="41.90137" lon="2.28226">
        <ele>509.4</ele>
        <time>2022-05-21 02:29:56</time>
      </trkpt>
      <trkpt lat="41.90148" lon="2.28233">
        <ele>508.8</ele>
        <time>2022-05-21 02:29:57</time>
      </trkpt>
      <trkpt lat="41.90159" lon="2.28239">
        <ele>508.2</ele>
        <time>2022-05-21 02:29:58</time>
      </trkpt>
      <trkpt lat="41.9017" lon="2.28242">
        <ele>507.6</ele>
        <time>2022-05-21 02:29:59</time>
      </trkpt>
      <trkpt lat="41.90179" lon="2.28243">
        <ele>507.2</ele>
        <time>2022-05-21 02:30:00</time>
      </trkpt>
      <trkpt lat="41.90189" lon="2.28241">
        <ele>506.6</ele>
        <time>2022-05-21 02:30:01</time>
      </trkpt>
      <trkpt lat="41.90198" lon="2.28239">
        <ele>506.2</ele>
        <time>2022-05-21 02:30:02</time>
      </trkpt>
      <trkpt lat="41.90208" lon="2.28235">
        <ele>505.6</ele>
        <time>2022-05-21 02:30:03</time>
      </trkpt>
      <trkpt lat="41.90219" lon="2.28231">
        <ele>505</ele>
        <time>2022-05-21 02:30:04</time>
      </trkpt>
      <trkpt lat="41.90228" lon="2.28227">
        <ele>504.6</ele>
        <time>2022-05-21 02:30:05</time>
      </trkpt>
      <trkpt lat="41.90239" lon="2.28224">
        <ele>504.2</ele>
        <time>2022-05-21 02:30:06</time>
      </trkpt>
      <trkpt lat="41.9025" lon="2.28221">
        <ele>503.8</ele>
        <time>2022-05-21 02:30:07</time>
      </trkpt>
      <trkpt lat="41.9026" lon="2.28217">
        <ele>503.4</ele>
        <time>2022-05-21 02:30:08</time>
      </trkpt>
      <trkpt lat="41.90271" lon="2.28213">
        <ele>503</ele>
        <time>2022-05-21 02:30:09</time>
      </trkpt>
      <trkpt lat="41.90281" lon="2.28209">
        <ele>502.6</ele>
        <time>2022-05-21 02:30:10</time>
      </trkpt>
      <trkpt lat="41.9029" lon="2.28205">
        <ele>502.2</ele>
        <time>2022-05-21 02:30:11</time>
      </trkpt>
      <trkpt lat="41.903" lon="2.28201">
        <ele>501.8</ele>
        <time>2022-05-21 02:30:12</time>
      </trkpt>
      <trkpt lat="41.9031" lon="2.28197">
        <ele>501.4</ele>
        <time>2022-05-21 02:30:13</time>
      </trkpt>
      <trkpt lat="41.90319" lon="2.28193">
        <ele>501.2</ele>
        <time>2022-05-21 02:30:14</time>
      </trkpt>
      <trkpt lat="41.90329" lon="2.2819">
        <ele>500.8</ele>
        <time>2022-05-21 02:30:15</time>
      </trkpt>
      <trkpt lat="41.90339" lon="2.28186">
        <ele>500.4</ele>
        <time>2022-05-21 02:30:16</time>
      </trkpt>
      <trkpt lat="41.90348" lon="2.28183">
        <ele>500.2</ele>
        <time>2022-05-21 02:30:17</time>
      </trkpt>
      <trkpt lat="41.90356" lon="2.2818">
        <ele>499.8</ele>
        <time>2022-05-21 02:30:18</time>
      </trkpt>
      <trkpt lat="41.90365" lon="2.28176">
        <ele>499.4</ele>
        <time>2022-05-21 02:30:19</time>
      </trkpt>
      <trkpt lat="41.90374" lon="2.28172">
        <ele>499.2</ele>
        <time>2022-05-21 02:30:20</time>
      </trkpt>
      <trkpt lat="41.90384" lon="2.28169">
        <ele>498.8</ele>
        <time>2022-05-21 02:30:21</time>
      </trkpt>
      <trkpt lat="41.90394" lon="2.28166">
        <ele>498.4</ele>
        <time>2022-05-21 02:30:22</time>
      </trkpt>
      <trkpt lat="41.90403" lon="2.28162">
        <ele>498.2</ele>
        <time>2022-05-21 02:30:23</time>
      </trkpt>
      <trkpt lat="41.90412" lon="2.28158">
        <ele>497.8</ele>
        <time>2022-05-21 02:30:24</time>
      </trkpt>
      <trkpt lat="41.90422" lon="2.28154">
        <ele>497.6</ele>
        <time>2022-05-21 02:30:25</time>
      </trkpt>
      <trkpt lat="41.90431" lon="2.28151">
        <ele>497.4</ele>
        <time>2022-05-21 02:30:26</time>
      </trkpt>
      <trkpt lat="41.9044" lon="2.28147">
        <ele>497.2</ele>
        <time>2022-05-21 02:30:27</time>
      </trkpt>
      <trkpt lat="41.90448" lon="2.28144">
        <ele>497</ele>
        <time>2022-05-21 02:30:28</time>
      </trkpt>
      <trkpt lat="41.90457" lon="2.28141">
        <ele>496.8</ele>
        <time>2022-05-21 02:30:29</time>
      </trkpt>
      <trkpt lat="41.90466" lon="2.28138">
        <ele>496.6</ele>
        <time>2022-05-21 02:30:30</time>
      </trkpt>
      <trkpt lat="41.90475" lon="2.28135">
        <ele>496.6</ele>
        <time>2022-05-21 02:30:31</time>
      </trkpt>
      <trkpt lat="41.90484" lon="2.28131">
        <ele>496.4</ele>
        <time>2022-05-21 02:30:32</time>
      </trkpt>
      <trkpt lat="41.90492" lon="2.28128">
        <ele>496.4</ele>
        <time>2022-05-21 02:30:33</time>
      </trkpt>
      <trkpt lat="41.90501" lon="2.28125">
        <ele>496.2</ele>
        <time>2022-05-21 02:30:34</time>
      </trkpt>
      <trkpt lat="41.90509" lon="2.28122">
        <ele>496.2</ele>
        <time>2022-05-21 02:30:35</time>
      </trkpt>
      <trkpt lat="41.90517" lon="2.28119">
        <ele>496</ele>
        <time>2022-05-21 02:30:36</time>
      </trkpt>
      <trkpt lat="41.90525" lon="2.28116">
        <ele>496</ele>
        <time>2022-05-21 02:30:37</time>
      </trkpt>
      <trkpt lat="41.90532" lon="2.28113">
        <ele>496</ele>
        <time>2022-05-21 02:30:38</time>
      </trkpt>
      <trkpt lat="41.9054" lon="2.2811">
        <ele>496</ele>
        <time>2022-05-21 02:30:39</time>
      </trkpt>
      <trkpt lat="41.90547" lon="2.28107">
        <ele>495.8</ele>
        <time>2022-05-21 02:30:40</time>
      </trkpt>
      <trkpt lat="41.90554" lon="2.28104">
        <ele>495.8</ele>
        <time>2022-05-21 02:30:41</time>
      </trkpt>
      <trkpt lat="41.90562" lon="2.28101">
        <ele>495.8</ele>
        <time>2022-05-21 02:30:42</time>
      </trkpt>
      <trkpt lat="41.90569" lon="2.28098">
        <ele>495.8</ele>
        <time>2022-05-21 02:30:43</time>
      </trkpt>
      <trkpt lat="41.90576" lon="2.28095">
        <ele>495.8</ele>
        <time>2022-05-21 02:30:44</time>
      </trkpt>
      <trkpt lat="41.90584" lon="2.28093">
        <ele>495.8</ele>
        <time>2022-05-21 02:30:45</time>
      </trkpt>
      <trkpt lat="41.90591" lon="2.2809">
        <ele>495.6</ele>
        <time>2022-05-21 02:30:46</time>
      </trkpt>
      <trkpt lat="41.90598" lon="2.28088">
        <ele>495.6</ele>
        <time>2022-05-21 02:30:47</time>
      </trkpt>
      <trkpt lat="41.90606" lon="2.28085">
        <ele>495.6</ele>
        <time>2022-05-21 02:30:48</time>
      </trkpt>
      <trkpt lat="41.90613" lon="2.28082">
        <ele>495.6</ele>
        <time>2022-05-21 02:30:49</time>
      </trkpt>
      <trkpt lat="41.9062" lon="2.28079">
        <ele>495.6</ele>
        <time>2022-05-21 02:30:50</time>
      </trkpt>
      <trkpt lat="41.90627" lon="2.28077">
        <ele>495.4</ele>
        <time>2022-05-21 02:30:51</time>
      </trkpt>
      <trkpt lat="41.90634" lon="2.28074">
        <ele>495.4</ele>
        <time>2022-05-21 02:30:52</time>
      </trkpt>
      <trkpt lat="41.90641" lon="2.28071">
        <ele>495.4</ele>
        <time>2022-05-21 02:30:53</time>
      </trkpt>
      <trkpt lat="41.90648" lon="2.28068">
        <ele>495.4</ele>
        <time>2022-05-21 02:30:54</time>
      </trkpt>
      <trkpt lat="41.90654" lon="2.28066">
        <ele>495.4</ele>
        <time>2022-05-21 02:30:55</time>
      </trkpt>
      <trkpt lat="41.90661" lon="2.28063">
        <ele>495.2</ele>
        <time>2022-05-21 02:30:56</time>
      </trkpt>
      <trkpt lat="41.90667" lon="2.28061">
        <ele>495.2</ele>
        <time>2022-05-21 02:30:57</time>
      </trkpt>
      <trkpt lat="41.90674" lon="2.28058">
        <ele>495.4</ele>
        <time>2022-05-21 02:30:58</time>
      </trkpt>
      <trkpt lat="41.9068" lon="2.28056">
        <ele>495.4</ele>
        <time>2022-05-21 02:30:59</time>
      </trkpt>
      <trkpt lat="41.90686" lon="2.28054">
        <ele>495.4</ele>
        <time>2022-05-21 02:31:00</time>
      </trkpt>
      <trkpt lat="41.90693" lon="2.28051">
        <ele>495.4</ele>
        <time>2022-05-21 02:31:01</time>
      </trkpt>
      <trkpt lat="41.90699" lon="2.28048">
        <ele>495.4</ele>
        <time>2022-05-21 02:31:02</time>
      </trkpt>
      <trkpt lat="41.90706" lon="2.28046">
        <ele>495.4</ele>
        <time>2022-05-21 02:31:03</time>
      </trkpt>
      <trkpt lat="41.90713" lon="2.28042">
        <ele>495.4</ele>
        <time>2022-05-21 02:31:04</time>
      </trkpt>
      <trkpt lat="41.90719" lon="2.28039">
        <ele>495.4</ele>
        <time>2022-05-21 02:31:05</time>
      </trkpt>
      <trkpt lat="41.90726" lon="2.28035">
        <ele>495.2</ele>
        <time>2022-05-21 02:31:06</time>
      </trkpt>
      <trkpt lat="41.90732" lon="2.28031">
        <ele>495.2</ele>
        <time>2022-05-21 02:31:07</time>
      </trkpt>
      <trkpt lat="41.90738" lon="2.28026">
        <ele>495.2</ele>
        <time>2022-05-21 02:31:08</time>
      </trkpt>
      <trkpt lat="41.90744" lon="2.28022">
        <ele>495.4</ele>
        <time>2022-05-21 02:31:09</time>
      </trkpt>
      <trkpt lat="41.90749" lon="2.28017">
        <ele>495.4</ele>
        <time>2022-05-21 02:31:10</time>
      </trkpt>
      <trkpt lat="41.90754" lon="2.28011">
        <ele>495.4</ele>
        <time>2022-05-21 02:31:11</time>
      </trkpt>
      <trkpt lat="41.90759" lon="2.28006">
        <ele>495.6</ele>
        <time>2022-05-21 02:31:12</time>
      </trkpt>
      <trkpt lat="41.90764" lon="2.28001">
        <ele>495.8</ele>
        <time>2022-05-21 02:31:13</time>
      </trkpt>
      <trkpt lat="41.9077" lon="2.27995">
        <ele>495.8</ele>
        <time>2022-05-21 02:31:14</time>
      </trkpt>
      <trkpt lat="41.90774" lon="2.2799">
        <ele>495.8</ele>
        <time>2022-05-21 02:31:15</time>
      </trkpt>
      <trkpt lat="41.90779" lon="2.27985">
        <ele>496</ele>
        <time>2022-05-21 02:31:16</time>
      </trkpt>
      <trkpt lat="41.90784" lon="2.27979">
        <ele>496.2</ele>
        <time>2022-05-21 02:31:17</time>
      </trkpt>
      <trkpt lat="41.90789" lon="2.27974">
        <ele>496.4</ele>
        <time>2022-05-21 02:31:18</time>
      </trkpt>
      <trkpt lat="41.90794" lon="2.27969">
        <ele>496.6</ele>
        <time>2022-05-21 02:31:19</time>
      </trkpt>
      <trkpt lat="41.90799" lon="2.27964">
        <ele>496.8</ele>
        <time>2022-05-21 02:31:20</time>
      </trkpt>
      <trkpt lat="41.90804" lon="2.27959">
        <ele>496.8</ele>
        <time>2022-05-21 02:31:21</time>
      </trkpt>
      <trkpt lat="41.90809" lon="2.27954">
        <ele>497</ele>
        <time>2022-05-21 02:31:22</time>
      </trkpt>
      <trkpt lat="41.90814" lon="2.2795">
        <ele>497.2</ele>
        <time>2022-05-21 02:31:23</time>
      </trkpt>
      <trkpt lat="41.90819" lon="2.27946">
        <ele>497.2</ele>
        <time>2022-05-21 02:31:24</time>
      </trkpt>
      <trkpt lat="41.90825" lon="2.27943">
        <ele>497.2</ele>
        <time>2022-05-21 02:31:25</time>
      </trkpt>
      <trkpt lat="41.9083" lon="2.27939">
        <ele>497.4</ele>
        <time>2022-05-21 02:31:26</time>
      </trkpt>
      <trkpt lat="41.90836" lon="2.27936">
        <ele>497.4</ele>
        <time>2022-05-21 02:31:27</time>
      </trkpt>
      <trkpt lat="41.90842" lon="2.27933">
        <ele>497.4</ele>
        <time>2022-05-21 02:31:28</time>
      </trkpt>
      <trkpt lat="41.90847" lon="2.27929">
        <ele>497.4</ele>
        <time>2022-05-21 02:31:29</time>
      </trkpt>
      <trkpt lat="41.90853" lon="2.27926">
        <ele>497.4</ele>
        <time>2022-05-21 02:31:30</time>
      </trkpt>
      <trkpt lat="41.90859" lon="2.27923">
        <ele>497.4</ele>
        <time>2022-05-21 02:31:31</time>
      </trkpt>
      <trkpt lat="41.90865" lon="2.27919">
        <ele>497.4</ele>
        <time>2022-05-21 02:31:32</time>
      </trkpt>
      <trkpt lat="41.90871" lon="2.27916">
        <ele>497.2</ele>
        <time>2022-05-21 02:31:33</time>
      </trkpt>
      <trkpt lat="41.90878" lon="2.27912">
        <ele>497.2</ele>
        <time>2022-05-21 02:31:34</time>
      </trkpt>
      <trkpt lat="41.90884" lon="2.27908">
        <ele>497.2</ele>
        <time>2022-05-21 02:31:35</time>
      </trkpt>
      <trkpt lat="41.90891" lon="2.27904">
        <ele>497</ele>
        <time>2022-05-21 02:31:36</time>
      </trkpt>
      <trkpt lat="41.90897" lon="2.279">
        <ele>496.8</ele>
        <time>2022-05-21 02:31:37</time>
      </trkpt>
      <trkpt lat="41.90903" lon="2.27897">
        <ele>496.8</ele>
        <time>2022-05-21 02:31:38</time>
      </trkpt>
      <trkpt lat="41.9091" lon="2.27893">
        <ele>496.6</ele>
        <time>2022-05-21 02:31:39</time>
      </trkpt>
      <trkpt lat="41.90918" lon="2.2789">
        <ele>496.4</ele>
        <time>2022-05-21 02:31:40</time>
      </trkpt>
      <trkpt lat="41.90924" lon="2.27886">
        <ele>496.2</ele>
        <time>2022-05-21 02:31:41</time>
      </trkpt>
      <trkpt lat="41.90931" lon="2.27882">
        <ele>496</ele>
        <time>2022-05-21 02:31:42</time>
      </trkpt>
      <trkpt lat="41.90939" lon="2.27877">
        <ele>496</ele>
        <time>2022-05-21 02:31:43</time>
      </trkpt>
      <trkpt lat="41.90946" lon="2.27873">
        <ele>495.8</ele>
        <time>2022-05-21 02:31:44</time>
      </trkpt>
      <trkpt lat="41.90954" lon="2.27869">
        <ele>495.6</ele>
        <time>2022-05-21 02:31:45</time>
      </trkpt>
      <trkpt lat="41.90961" lon="2.27865">
        <ele>495.2</ele>
        <time>2022-05-21 02:31:46</time>
      </trkpt>
      <trkpt lat="41.90969" lon="2.27861">
        <ele>495</ele>
        <time>2022-05-21 02:31:47</time>
      </trkpt>
      <trkpt lat="41.90977" lon="2.27856">
        <ele>494.8</ele>
        <time>2022-05-21 02:31:48</time>
      </trkpt>
      <trkpt lat="41.90984" lon="2.27852">
        <ele>494.6</ele>
        <time>2022-05-21 02:31:49</time>
      </trkpt>
      <trkpt lat="41.90992" lon="2.27848">
        <ele>494.4</ele>
        <time>2022-05-21 02:31:50</time>
      </trkpt>
      <trkpt lat="41.91001" lon="2.27843">
        <ele>494.2</ele>
        <time>2022-05-21 02:31:51</time>
      </trkpt>
      <trkpt lat="41.91009" lon="2.27838">
        <ele>494</ele>
        <time>2022-05-21 02:31:52</time>
      </trkpt>
      <trkpt lat="41.91017" lon="2.27834">
        <ele>493.8</ele>
        <time>2022-05-21 02:31:53</time>
      </trkpt>
      <trkpt lat="41.91025" lon="2.27829">
        <ele>493.4</ele>
        <time>2022-05-21 02:31:54</time>
      </trkpt>
      <trkpt lat="41.91034" lon="2.27824">
        <ele>493.2</ele>
        <time>2022-05-21 02:31:55</time>
      </trkpt>
      <trkpt lat="41.91042" lon="2.27819">
        <ele>493</ele>
        <time>2022-05-21 02:31:56</time>
      </trkpt>
      <trkpt lat="41.9105" lon="2.27814">
        <ele>492.6</ele>
        <time>2022-05-21 02:31:57</time>
      </trkpt>
      <trkpt lat="41.91058" lon="2.27809">
        <ele>492.4</ele>
        <time>2022-05-21 02:31:58</time>
      </trkpt>
      <trkpt lat="41.91065" lon="2.27803">
        <ele>492.2</ele>
        <time>2022-05-21 02:31:59</time>
      </trkpt>
      <trkpt lat="41.91073" lon="2.27797">
        <ele>492.2</ele>
        <time>2022-05-21 02:32:00</time>
      </trkpt>
      <trkpt lat="41.9108" lon="2.2779">
        <ele>492</ele>
        <time>2022-05-21 02:32:01</time>
      </trkpt>
      <trkpt lat="41.91087" lon="2.27783">
        <ele>491.8</ele>
        <time>2022-05-21 02:32:02</time>
      </trkpt>
      <trkpt lat="41.91094" lon="2.27776">
        <ele>491.8</ele>
        <time>2022-05-21 02:32:03</time>
      </trkpt>
      <trkpt lat="41.91101" lon="2.27768">
        <ele>491.6</ele>
        <time>2022-05-21 02:32:04</time>
      </trkpt>
      <trkpt lat="41.91108" lon="2.27761">
        <ele>491.6</ele>
        <time>2022-05-21 02:32:05</time>
      </trkpt>
      <trkpt lat="41.91114" lon="2.27754">
        <ele>491.4</ele>
        <time>2022-05-21 02:32:06</time>
      </trkpt>
      <trkpt lat="41.91121" lon="2.27746">
        <ele>491.2</ele>
        <time>2022-05-21 02:32:07</time>
      </trkpt>
      <trkpt lat="41.91127" lon="2.27739">
        <ele>491</ele>
        <time>2022-05-21 02:32:08</time>
      </trkpt>
      <trkpt lat="41.91133" lon="2.27731">
        <ele>490.8</ele>
        <time>2022-05-21 02:32:09</time>
      </trkpt>
      <trkpt lat="41.9114" lon="2.27723">
        <ele>490.6</ele>
        <time>2022-05-21 02:32:10</time>
      </trkpt>
      <trkpt lat="41.91147" lon="2.27715">
        <ele>490.4</ele>
        <time>2022-05-21 02:32:11</time>
      </trkpt>
      <trkpt lat="41.91154" lon="2.27707">
        <ele>490</ele>
        <time>2022-05-21 02:32:12</time>
      </trkpt>
      <trkpt lat="41.91161" lon="2.27699">
        <ele>489.8</ele>
        <time>2022-05-21 02:32:13</time>
      </trkpt>
      <trkpt lat="41.91168" lon="2.27692">
        <ele>489.6</ele>
        <time>2022-05-21 02:32:14</time>
      </trkpt>
      <trkpt lat="41.91175" lon="2.27684">
        <ele>489.4</ele>
        <time>2022-05-21 02:32:15</time>
      </trkpt>
      <trkpt lat="41.91181" lon="2.27676">
        <ele>489.2</ele>
        <time>2022-05-21 02:32:16</time>
      </trkpt>
      <trkpt lat="41.91187" lon="2.27668">
        <ele>489.2</ele>
        <time>2022-05-21 02:32:17</time>
      </trkpt>
      <trkpt lat="41.91194" lon="2.2766">
        <ele>489</ele>
        <time>2022-05-21 02:32:18</time>
      </trkpt>
      <trkpt lat="41.91201" lon="2.27652">
        <ele>488.8</ele>
        <time>2022-05-21 02:32:19</time>
      </trkpt>
      <trkpt lat="41.91207" lon="2.27645">
        <ele>488.8</ele>
        <time>2022-05-21 02:32:20</time>
      </trkpt>
      <trkpt lat="41.91214" lon="2.27637">
        <ele>488.6</ele>
        <time>2022-05-21 02:32:21</time>
      </trkpt>
      <trkpt lat="41.9122" lon="2.27629">
        <ele>488.6</ele>
        <time>2022-05-21 02:32:22</time>
      </trkpt>
      <trkpt lat="41.91227" lon="2.27621">
        <ele>488.4</ele>
        <time>2022-05-21 02:32:23</time>
      </trkpt>
      <trkpt lat="41.91233" lon="2.27613">
        <ele>488.4</ele>
        <time>2022-05-21 02:32:24</time>
      </trkpt>
      <trkpt lat="41.91239" lon="2.27605">
        <ele>488.2</ele>
        <time>2022-05-21 02:32:25</time>
      </trkpt>
      <trkpt lat="41.91245" lon="2.27596">
        <ele>488.2</ele>
        <time>2022-05-21 02:32:26</time>
      </trkpt>
      <trkpt lat="41.91251" lon="2.27587">
        <ele>488</ele>
        <time>2022-05-21 02:32:27</time>
      </trkpt>
      <trkpt lat="41.91256" lon="2.27579">
        <ele>488</ele>
        <time>2022-05-21 02:32:28</time>
      </trkpt>
      <trkpt lat="41.91262" lon="2.2757">
        <ele>488</ele>
        <time>2022-05-21 02:32:29</time>
      </trkpt>
      <trkpt lat="41.91268" lon="2.27562">
        <ele>487.8</ele>
        <time>2022-05-21 02:32:30</time>
      </trkpt>
      <trkpt lat="41.91273" lon="2.27553">
        <ele>487.8</ele>
        <time>2022-05-21 02:32:31</time>
      </trkpt>
      <trkpt lat="41.91279" lon="2.27545">
        <ele>487.8</ele>
        <time>2022-05-21 02:32:32</time>
      </trkpt>
      <trkpt lat="41.91284" lon="2.27537">
        <ele>487.6</ele>
        <time>2022-05-21 02:32:33</time>
      </trkpt>
      <trkpt lat="41.9129" lon="2.27529">
        <ele>487.6</ele>
        <time>2022-05-21 02:32:34</time>
      </trkpt>
      <trkpt lat="41.91295" lon="2.27521">
        <ele>487.6</ele>
        <time>2022-05-21 02:32:35</time>
      </trkpt>
      <trkpt lat="41.91301" lon="2.27513">
        <ele>487.6</ele>
        <time>2022-05-21 02:32:36</time>
      </trkpt>
      <trkpt lat="41.91306" lon="2.27505">
        <ele>487.4</ele>
        <time>2022-05-21 02:32:37</time>
      </trkpt>
      <trkpt lat="41.91312" lon="2.27496">
        <ele>487.4</ele>
        <time>2022-05-21 02:32:38</time>
      </trkpt>
      <trkpt lat="41.91317" lon="2.27488">
        <ele>487.4</ele>
        <time>2022-05-21 02:32:39</time>
      </trkpt>
      <trkpt lat="41.91323" lon="2.27481">
        <ele>487.2</ele>
        <time>2022-05-21 02:32:40</time>
      </trkpt>
      <trkpt lat="41.91328" lon="2.27472">
        <ele>487.2</ele>
        <time>2022-05-21 02:32:41</time>
      </trkpt>
      <trkpt lat="41.91334" lon="2.27464">
        <ele>487.2</ele>
        <time>2022-05-21 02:32:42</time>
      </trkpt>
      <trkpt lat="41.91339" lon="2.27456">
        <ele>487.2</ele>
        <time>2022-05-21 02:32:43</time>
      </trkpt>
      <trkpt lat="41.91344" lon="2.27449">
        <ele>487</ele>
        <time>2022-05-21 02:32:44</time>
      </trkpt>
      <trkpt lat="41.91351" lon="2.27441">
        <ele>487</ele>
        <time>2022-05-21 02:32:45</time>
      </trkpt>
      <trkpt lat="41.91357" lon="2.27433">
        <ele>486.8</ele>
        <time>2022-05-21 02:32:46</time>
      </trkpt>
      <trkpt lat="41.91363" lon="2.27426">
        <ele>486.6</ele>
        <time>2022-05-21 02:32:47</time>
      </trkpt>
      <trkpt lat="41.91369" lon="2.27418">
        <ele>486.6</ele>
        <time>2022-05-21 02:32:48</time>
      </trkpt>
      <trkpt lat="41.91376" lon="2.27411">
        <ele>486.4</ele>
        <time>2022-05-21 02:32:49</time>
      </trkpt>
      <trkpt lat="41.91383" lon="2.27404">
        <ele>486.2</ele>
        <time>2022-05-21 02:32:50</time>
      </trkpt>
      <trkpt lat="41.9139" lon="2.27398">
        <ele>486</ele>
        <time>2022-05-21 02:32:51</time>
      </trkpt>
      <trkpt lat="41.91397" lon="2.27392">
        <ele>485.6</ele>
        <time>2022-05-21 02:32:52</time>
      </trkpt>
      <trkpt lat="41.91405" lon="2.27387">
        <ele>485.4</ele>
        <time>2022-05-21 02:32:53</time>
      </trkpt>
      <trkpt lat="41.91413" lon="2.27383">
        <ele>485.2</ele>
        <time>2022-05-21 02:32:54</time>
      </trkpt>
      <trkpt lat="41.91421" lon="2.27378">
        <ele>484.8</ele>
        <time>2022-05-21 02:32:55</time>
      </trkpt>
      <trkpt lat="41.91429" lon="2.27374">
        <ele>484.6</ele>
        <time>2022-05-21 02:32:56</time>
      </trkpt>
      <trkpt lat="41.91438" lon="2.27369">
        <ele>484.4</ele>
        <time>2022-05-21 02:32:57</time>
      </trkpt>
      <trkpt lat="41.91446" lon="2.27364">
        <ele>484</ele>
        <time>2022-05-21 02:32:58</time>
      </trkpt>
      <trkpt lat="41.91455" lon="2.27359">
        <ele>483.8</ele>
        <time>2022-05-21 02:32:59</time>
      </trkpt>
      <trkpt lat="41.91463" lon="2.27355">
        <ele>483.4</ele>
        <time>2022-05-21 02:33:00</time>
      </trkpt>
      <trkpt lat="41.91471" lon="2.27351">
        <ele>483.2</ele>
        <time>2022-05-21 02:33:01</time>
      </trkpt>
      <trkpt lat="41.9148" lon="2.27348">
        <ele>482.8</ele>
        <time>2022-05-21 02:33:02</time>
      </trkpt>
      <trkpt lat="41.91489" lon="2.27343">
        <ele>482.6</ele>
        <time>2022-05-21 02:33:03</time>
      </trkpt>
      <trkpt lat="41.91498" lon="2.27339">
        <ele>482.2</ele>
        <time>2022-05-21 02:33:04</time>
      </trkpt>
      <trkpt lat="41.91507" lon="2.27335">
        <ele>481.8</ele>
        <time>2022-05-21 02:33:05</time>
      </trkpt>
      <trkpt lat="41.91516" lon="2.27331">
        <ele>481.6</ele>
        <time>2022-05-21 02:33:06</time>
      </trkpt>
      <trkpt lat="41.91525" lon="2.27326">
        <ele>481.2</ele>
        <time>2022-05-21 02:33:07</time>
      </trkpt>
      <trkpt lat="41.91534" lon="2.27321">
        <ele>480.8</ele>
        <time>2022-05-21 02:33:08</time>
      </trkpt>
      <trkpt lat="41.91543" lon="2.27317">
        <ele>480.4</ele>
        <time>2022-05-21 02:33:09</time>
      </trkpt>
      <trkpt lat="41.91552" lon="2.27313">
        <ele>480.2</ele>
        <time>2022-05-21 02:33:10</time>
      </trkpt>
      <trkpt lat="41.91561" lon="2.27308">
        <ele>479.8</ele>
        <time>2022-05-21 02:33:11</time>
      </trkpt>
      <trkpt lat="41.91571" lon="2.27303">
        <ele>479.4</ele>
        <time>2022-05-21 02:33:12</time>
      </trkpt>
      <trkpt lat="41.9158" lon="2.27298">
        <ele>479.2</ele>
        <time>2022-05-21 02:33:13</time>
      </trkpt>
      <trkpt lat="41.91589" lon="2.27294">
        <ele>478.8</ele>
        <time>2022-05-21 02:33:14</time>
      </trkpt>
      <trkpt lat="41.91598" lon="2.2729">
        <ele>478.6</ele>
        <time>2022-05-21 02:33:15</time>
      </trkpt>
      <trkpt lat="41.91607" lon="2.27286">
        <ele>478.4</ele>
        <time>2022-05-21 02:33:16</time>
      </trkpt>
      <trkpt lat="41.91615" lon="2.27282">
        <ele>478.2</ele>
        <time>2022-05-21 02:33:17</time>
      </trkpt>
      <trkpt lat="41.91624" lon="2.27278">
        <ele>477.8</ele>
        <time>2022-05-21 02:33:18</time>
      </trkpt>
      <trkpt lat="41.91634" lon="2.27274">
        <ele>477.6</ele>
        <time>2022-05-21 02:33:19</time>
      </trkpt>
      <trkpt lat="41.91643" lon="2.2727">
        <ele>477.4</ele>
        <time>2022-05-21 02:33:20</time>
      </trkpt>
      <trkpt lat="41.91652" lon="2.27266">
        <ele>477.2</ele>
        <time>2022-05-21 02:33:21</time>
      </trkpt>
      <trkpt lat="41.91661" lon="2.27261">
        <ele>476.8</ele>
        <time>2022-05-21 02:33:22</time>
      </trkpt>
      <trkpt lat="41.91669" lon="2.27257">
        <ele>476.6</ele>
        <time>2022-05-21 02:33:23</time>
      </trkpt>
      <trkpt lat="41.91678" lon="2.27252">
        <ele>476.4</ele>
        <time>2022-05-21 02:33:24</time>
      </trkpt>
      <trkpt lat="41.91687" lon="2.27248">
        <ele>476.2</ele>
        <time>2022-05-21 02:33:25</time>
      </trkpt>
      <trkpt lat="41.91696" lon="2.27243">
        <ele>476</ele>
        <time>2022-05-21 02:33:26</time>
      </trkpt>
      <trkpt lat="41.91705" lon="2.27239">
        <ele>475.8</ele>
        <time>2022-05-21 02:33:27</time>
      </trkpt>
      <trkpt lat="41.91713" lon="2.27234">
        <ele>475.6</ele>
        <time>2022-05-21 02:33:28</time>
      </trkpt>
      <trkpt lat="41.91722" lon="2.2723">
        <ele>475.4</ele>
        <time>2022-05-21 02:33:29</time>
      </trkpt>
      <trkpt lat="41.91731" lon="2.27226">
        <ele>475.2</ele>
        <time>2022-05-21 02:33:30</time>
      </trkpt>
      <trkpt lat="41.9174" lon="2.27221">
        <ele>475</ele>
        <time>2022-05-21 02:33:31</time>
      </trkpt>
      <trkpt lat="41.91749" lon="2.27217">
        <ele>474.8</ele>
        <time>2022-05-21 02:33:32</time>
      </trkpt>
      <trkpt lat="41.91758" lon="2.27213">
        <ele>474.8</ele>
        <time>2022-05-21 02:33:33</time>
      </trkpt>
      <trkpt lat="41.91767" lon="2.27209">
        <ele>474.6</ele>
        <time>2022-05-21 02:33:34</time>
      </trkpt>
      <trkpt lat="41.91776" lon="2.27205">
        <ele>474.6</ele>
        <time>2022-05-21 02:33:35</time>
      </trkpt>
      <trkpt lat="41.91784" lon="2.272">
        <ele>474.4</ele>
        <time>2022-05-21 02:33:36</time>
      </trkpt>
      <trkpt lat="41.91792" lon="2.27196">
        <ele>474.4</ele>
        <time>2022-05-21 02:33:37</time>
      </trkpt>
      <trkpt lat="41.91801" lon="2.27192">
        <ele>474.4</ele>
        <time>2022-05-21 02:33:38</time>
      </trkpt>
      <trkpt lat="41.91809" lon="2.27188">
        <ele>474.2</ele>
        <time>2022-05-21 02:33:39</time>
      </trkpt>
      <trkpt lat="41.91817" lon="2.27184">
        <ele>474.2</ele>
        <time>2022-05-21 02:33:40</time>
      </trkpt>
      <trkpt lat="41.91825" lon="2.27181">
        <ele>474.2</ele>
        <time>2022-05-21 02:33:41</time>
      </trkpt>
      <trkpt lat="41.91833" lon="2.27177">
        <ele>474</ele>
        <time>2022-05-21 02:33:42</time>
      </trkpt>
      <trkpt lat="41.91842" lon="2.27173">
        <ele>474</ele>
        <time>2022-05-21 02:33:43</time>
      </trkpt>
      <trkpt lat="41.9185" lon="2.27169">
        <ele>473.8</ele>
        <time>2022-05-21 02:33:44</time>
      </trkpt>
      <trkpt lat="41.91858" lon="2.27165">
        <ele>473.8</ele>
        <time>2022-05-21 02:33:45</time>
      </trkpt>
      <trkpt lat="41.91865" lon="2.27161">
        <ele>473.6</ele>
        <time>2022-05-21 02:33:46</time>
      </trkpt>
      <trkpt lat="41.91872" lon="2.27158">
        <ele>473.4</ele>
        <time>2022-05-21 02:33:47</time>
      </trkpt>
      <trkpt lat="41.91882" lon="2.27153">
        <ele>473.4</ele>
        <time>2022-05-21 02:33:48</time>
      </trkpt>
      <trkpt lat="41.9189" lon="2.27149">
        <ele>473.4</ele>
        <time>2022-05-21 02:33:49</time>
      </trkpt>
      <trkpt lat="41.91897" lon="2.27146">
        <ele>473.4</ele>
        <time>2022-05-21 02:33:50</time>
      </trkpt>
      <trkpt lat="41.91905" lon="2.27142">
        <ele>473.2</ele>
        <time>2022-05-21 02:33:51</time>
      </trkpt>
      <trkpt lat="41.91912" lon="2.27138">
        <ele>473.2</ele>
        <time>2022-05-21 02:33:52</time>
      </trkpt>
      <trkpt lat="41.9192" lon="2.27135">
        <ele>473.2</ele>
        <time>2022-05-21 02:33:53</time>
      </trkpt>
      <trkpt lat="41.91928" lon="2.27131">
        <ele>473.2</ele>
        <time>2022-05-21 02:33:54</time>
      </trkpt>
      <trkpt lat="41.91935" lon="2.27127">
        <ele>473</ele>
        <time>2022-05-21 02:33:55</time>
      </trkpt>
      <trkpt lat="41.91943" lon="2.27124">
        <ele>473</ele>
        <time>2022-05-21 02:33:56</time>
      </trkpt>
      <trkpt lat="41.9195" lon="2.2712">
        <ele>473</ele>
        <time>2022-05-21 02:33:57</time>
      </trkpt>
      <trkpt lat="41.91957" lon="2.27116">
        <ele>473</ele>
        <time>2022-05-21 02:33:58</time>
      </trkpt>
      <trkpt lat="41.91965" lon="2.27113">
        <ele>473</ele>
        <time>2022-05-21 02:33:59</time>
      </trkpt>
      <trkpt lat="41.91973" lon="2.27109">
        <ele>473</ele>
        <time>2022-05-21 02:34:00</time>
      </trkpt>
      <trkpt lat="41.9198" lon="2.27106">
        <ele>472.8</ele>
        <time>2022-05-21 02:34:01</time>
      </trkpt>
      <trkpt lat="41.91987" lon="2.27102">
        <ele>472.8</ele>
        <time>2022-05-21 02:34:02</time>
      </trkpt>
      <trkpt lat="41.91994" lon="2.27099">
        <ele>472.8</ele>
        <time>2022-05-21 02:34:03</time>
      </trkpt>
      <trkpt lat="41.92001" lon="2.27095">
        <ele>472.8</ele>
        <time>2022-05-21 02:34:04</time>
      </trkpt>
      <trkpt lat="41.92009" lon="2.27092">
        <ele>472.8</ele>
        <time>2022-05-21 02:34:05</time>
      </trkpt>
      <trkpt lat="41.92016" lon="2.27089">
        <ele>472.6</ele>
        <time>2022-05-21 02:34:06</time>
      </trkpt>
      <trkpt lat="41.92023" lon="2.27085">
        <ele>472.6</ele>
        <time>2022-05-21 02:34:07</time>
      </trkpt>
      <trkpt lat="41.9203" lon="2.27082">
        <ele>472.6</ele>
        <time>2022-05-21 02:34:08</time>
      </trkpt>
      <trkpt lat="41.92037" lon="2.27078">
        <ele>472.6</ele>
        <time>2022-05-21 02:34:09</time>
      </trkpt>
      <trkpt lat="41.92044" lon="2.27075">
        <ele>472.6</ele>
        <time>2022-05-21 02:34:10</time>
      </trkpt>
      <trkpt lat="41.92051" lon="2.27071">
        <ele>472.6</ele>
        <time>2022-05-21 02:34:11</time>
      </trkpt>
      <trkpt lat="41.92058" lon="2.27068">
        <ele>472.6</ele>
        <time>2022-05-21 02:34:12</time>
      </trkpt>
      <trkpt lat="41.92065" lon="2.27065">
        <ele>472.6</ele>
        <time>2022-05-21 02:34:13</time>
      </trkpt>
      <trkpt lat="41.92072" lon="2.27062">
        <ele>472.6</ele>
        <time>2022-05-21 02:34:14</time>
      </trkpt>
      <trkpt lat="41.92078" lon="2.27058">
        <ele>472.6</ele>
        <time>2022-05-21 02:34:15</time>
      </trkpt>
      <trkpt lat="41.92086" lon="2.27055">
        <ele>472.4</ele>
        <time>2022-05-21 02:34:16</time>
      </trkpt>
      <trkpt lat="41.92093" lon="2.27052">
        <ele>472.4</ele>
        <time>2022-05-21 02:34:17</time>
      </trkpt>
      <trkpt lat="41.92099" lon="2.27048">
        <ele>472.4</ele>
        <time>2022-05-21 02:34:18</time>
      </trkpt>
      <trkpt lat="41.92105" lon="2.27045">
        <ele>472.4</ele>
        <time>2022-05-21 02:34:19</time>
      </trkpt>
      <trkpt lat="41.92112" lon="2.27042">
        <ele>472.4</ele>
        <time>2022-05-21 02:34:20</time>
      </trkpt>
      <trkpt lat="41.92119" lon="2.27039">
        <ele>472.4</ele>
        <time>2022-05-21 02:34:21</time>
      </trkpt>
      <trkpt lat="41.92126" lon="2.27036">
        <ele>472.4</ele>
        <time>2022-05-21 02:34:22</time>
      </trkpt>
      <trkpt lat="41.92132" lon="2.27032">
        <ele>472.4</ele>
        <time>2022-05-21 02:34:23</time>
      </trkpt>
      <trkpt lat="41.92138" lon="2.27029">
        <ele>472.4</ele>
        <time>2022-05-21 02:34:24</time>
      </trkpt>
      <trkpt lat="41.92145" lon="2.27026">
        <ele>472.4</ele>
        <time>2022-05-21 02:34:25</time>
      </trkpt>
      <trkpt lat="41.9215" lon="2.27024">
        <ele>472.4</ele>
        <time>2022-05-21 02:34:26</time>
      </trkpt>
      <trkpt lat="41.92153" lon="2.27022">
        <ele>472.4</ele>
        <time>2022-05-21 02:34:27</time>
      </trkpt>
      <trkpt lat="41.92159" lon="2.27019">
        <ele>472.2</ele>
        <time>2022-05-21 02:34:28</time>
      </trkpt>
      <trkpt lat="41.92171" lon="2.27013">
        <ele>472.2</ele>
        <time>2022-05-21 02:34:29</time>
      </trkpt>
      <trkpt lat="41.92178" lon="2.2701">
        <ele>472</ele>
        <time>2022-05-21 02:34:30</time>
      </trkpt>
      <trkpt lat="41.92185" lon="2.27007">
        <ele>472</ele>
        <time>2022-05-21 02:34:31</time>
      </trkpt>
      <trkpt lat="41.92192" lon="2.27003">
        <ele>471.8</ele>
        <time>2022-05-21 02:34:32</time>
      </trkpt>
      <trkpt lat="41.92199" lon="2.27">
        <ele>471.8</ele>
        <time>2022-05-21 02:34:33</time>
      </trkpt>
      <trkpt lat="41.92206" lon="2.26997">
        <ele>471.6</ele>
        <time>2022-05-21 02:34:34</time>
      </trkpt>
      <trkpt lat="41.92213" lon="2.26994">
        <ele>471.6</ele>
        <time>2022-05-21 02:34:35</time>
      </trkpt>
      <trkpt lat="41.9222" lon="2.2699">
        <ele>471.4</ele>
        <time>2022-05-21 02:34:36</time>
      </trkpt>
      <trkpt lat="41.92227" lon="2.26987">
        <ele>471.4</ele>
        <time>2022-05-21 02:34:37</time>
      </trkpt>
      <trkpt lat="41.92234" lon="2.26984">
        <ele>471.2</ele>
        <time>2022-05-21 02:34:38</time>
      </trkpt>
      <trkpt lat="41.92241" lon="2.2698">
        <ele>471</ele>
        <time>2022-05-21 02:34:39</time>
      </trkpt>
      <trkpt lat="41.92248" lon="2.26976">
        <ele>471</ele>
        <time>2022-05-21 02:34:40</time>
      </trkpt>
      <trkpt lat="41.92255" lon="2.26973">
        <ele>470.8</ele>
        <time>2022-05-21 02:34:41</time>
      </trkpt>
      <trkpt lat="41.92262" lon="2.26969">
        <ele>470.8</ele>
        <time>2022-05-21 02:34:42</time>
      </trkpt>
      <trkpt lat="41.9227" lon="2.26966">
        <ele>470.6</ele>
        <time>2022-05-21 02:34:43</time>
      </trkpt>
      <trkpt lat="41.92277" lon="2.26963">
        <ele>470.4</ele>
        <time>2022-05-21 02:34:44</time>
      </trkpt>
      <trkpt lat="41.92285" lon="2.26959">
        <ele>470.4</ele>
        <time>2022-05-21 02:34:45</time>
      </trkpt>
      <trkpt lat="41.92292" lon="2.26956">
        <ele>470.2</ele>
        <time>2022-05-21 02:34:46</time>
      </trkpt>
      <trkpt lat="41.923" lon="2.26952">
        <ele>470</ele>
        <time>2022-05-21 02:34:47</time>
      </trkpt>
      <trkpt lat="41.92307" lon="2.26949">
        <ele>469.8</ele>
        <time>2022-05-21 02:34:48</time>
      </trkpt>
      <trkpt lat="41.92314" lon="2.26945">
        <ele>469.6</ele>
        <time>2022-05-21 02:34:49</time>
      </trkpt>
      <trkpt lat="41.92321" lon="2.26941">
        <ele>469.4</ele>
        <time>2022-05-21 02:34:50</time>
      </trkpt>
      <trkpt lat="41.92328" lon="2.26938">
        <ele>469.4</ele>
        <time>2022-05-21 02:34:51</time>
      </trkpt>
      <trkpt lat="41.92334" lon="2.26934">
        <ele>469.2</ele>
        <time>2022-05-21 02:34:52</time>
      </trkpt>
      <trkpt lat="41.9234" lon="2.26931">
        <ele>469</ele>
        <time>2022-05-21 02:34:53</time>
      </trkpt>
      <trkpt lat="41.92347" lon="2.26928">
        <ele>468.8</ele>
        <time>2022-05-21 02:34:54</time>
      </trkpt>
      <trkpt lat="41.92354" lon="2.26925">
        <ele>468.8</ele>
        <time>2022-05-21 02:34:55</time>
      </trkpt>
      <trkpt lat="41.92361" lon="2.26922">
        <ele>468.8</ele>
        <time>2022-05-21 02:34:56</time>
      </trkpt>
      <trkpt lat="41.92367" lon="2.26919">
        <ele>468.8</ele>
        <time>2022-05-21 02:34:57</time>
      </trkpt>
      <trkpt lat="41.92373" lon="2.26916">
        <ele>468.8</ele>
        <time>2022-05-21 02:34:58</time>
      </trkpt>
      <trkpt lat="41.92379" lon="2.26913">
        <ele>468.8</ele>
        <time>2022-05-21 02:34:59</time>
      </trkpt>
      <trkpt lat="41.92384" lon="2.26911">
        <ele>468.8</ele>
        <time>2022-05-21 02:35:00</time>
      </trkpt>
      <trkpt lat="41.92388" lon="2.26909">
        <ele>468.8</ele>
        <time>2022-05-21 02:35:01</time>
      </trkpt>
      <trkpt lat="41.9239" lon="2.26909">
        <ele>468.8</ele>
        <time>2022-05-21 02:35:02</time>
      </trkpt>
      <trkpt lat="41.92391" lon="2.26909">
        <ele>469</ele>
        <time>2022-05-21 02:35:03</time>
      </trkpt>
      <trkpt lat="41.92392" lon="2.2691">
        <ele>469</ele>
        <time>2022-05-21 02:35:16</time>
      </trkpt>
      <trkpt lat="41.92392" lon="2.2691">
        <ele>468.8</ele>
        <time>2022-05-21 02:35:17</time>
      </trkpt>
      <trkpt lat="41.92392" lon="2.2691">
        <ele>468.6</ele>
        <time>2022-05-21 02:35:18</time>
      </trkpt>
      <trkpt lat="41.92392" lon="2.2691">
        <ele>468.6</ele>
        <time>2022-05-21 02:35:19</time>
      </trkpt>
      <trkpt lat="41.92392" lon="2.2691">
        <ele>468.4</ele>
        <time>2022-05-21 02:35:20</time>
      </trkpt>
      <trkpt lat="41.92392" lon="2.2691">
        <ele>468.4</ele>
        <time>2022-05-21 02:35:21</time>
      </trkpt>
      <trkpt lat="41.92392" lon="2.2691">
        <ele>468.2</ele>
        <time>2022-05-21 02:36:21</time>
      </trkpt>
      <trkpt lat="41.92392" lon="2.2691">
        <ele>468.4</ele>
        <time>2022-05-21 02:36:22</time>
      </trkpt>
      <trkpt lat="41.92392" lon="2.2691">
        <ele>468.4</ele>
        <time>2022-05-21 02:36:23</time>
      </trkpt>
      <trkpt lat="41.92392" lon="2.2691">
        <ele>468.4</ele>
        <time>2022-05-21 02:36:24</time>
      </trkpt>
      <trkpt lat="41.92392" lon="2.2691">
        <ele>468.4</ele>
        <time>2022-05-21 02:36:25</time>
      </trkpt>
      <trkpt lat="41.92392" lon="2.2691">
        <ele>468.4</ele>
        <time>2022-05-21 02:36:26</time>
      </trkpt>
      <trkpt lat="41.92392" lon="2.2691">
        <ele>468.4</ele>
        <time>2022-05-21 02:36:27</time>
      </trkpt>
      <trkpt lat="41.92392" lon="2.2691">
        <ele>468.4</ele>
        <time>2022-05-21 02:36:31</time>
      </trkpt>
      <trkpt lat="41.92395" lon="2.26907">
        <ele>468.4</ele>
        <time>2022-05-21 02:36:32</time>
      </trkpt>
      <trkpt lat="41.92399" lon="2.26904">
        <ele>468.4</ele>
        <time>2022-05-21 02:36:33</time>
      </trkpt>
      <trkpt lat="41.924" lon="2.26903">
        <ele>468.4</ele>
        <time>2022-05-21 02:36:34</time>
      </trkpt>
      <trkpt lat="41.92402" lon="2.26902">
        <ele>468.4</ele>
        <time>2022-05-21 02:36:35</time>
      </trkpt>
      <trkpt lat="41.92404" lon="2.26901">
        <ele>468.4</ele>
        <time>2022-05-21 02:36:36</time>
      </trkpt>
      <trkpt lat="41.92406" lon="2.26899">
        <ele>468.4</ele>
        <time>2022-05-21 02:36:37</time>
      </trkpt>
      <trkpt lat="41.92409" lon="2.26898">
        <ele>468.4</ele>
        <time>2022-05-21 02:36:38</time>
      </trkpt>
      <trkpt lat="41.92412" lon="2.26897">
        <ele>468.2</ele>
        <time>2022-05-21 02:36:39</time>
      </trkpt>
      <trkpt lat="41.92415" lon="2.26895">
        <ele>468.2</ele>
        <time>2022-05-21 02:36:40</time>
      </trkpt>
      <trkpt lat="41.92418" lon="2.26894">
        <ele>468.2</ele>
        <time>2022-05-21 02:36:41</time>
      </trkpt>
      <trkpt lat="41.92422" lon="2.26892">
        <ele>468</ele>
        <time>2022-05-21 02:36:42</time>
      </trkpt>
      <trkpt lat="41.92426" lon="2.2689">
        <ele>468</ele>
        <time>2022-05-21 02:36:43</time>
      </trkpt>
      <trkpt lat="41.9243" lon="2.26888">
        <ele>467.8</ele>
        <time>2022-05-21 02:36:44</time>
      </trkpt>
      <trkpt lat="41.92435" lon="2.26886">
        <ele>467.8</ele>
        <time>2022-05-21 02:36:45</time>
      </trkpt>
      <trkpt lat="41.9244" lon="2.26883">
        <ele>467.6</ele>
        <time>2022-05-21 02:36:46</time>
      </trkpt>
      <trkpt lat="41.92445" lon="2.26881">
        <ele>467.6</ele>
        <time>2022-05-21 02:36:47</time>
      </trkpt>
      <trkpt lat="41.9245" lon="2.26879">
        <ele>467.4</ele>
        <time>2022-05-21 02:36:48</time>
      </trkpt>
      <trkpt lat="41.92455" lon="2.26876">
        <ele>467.4</ele>
        <time>2022-05-21 02:36:49</time>
      </trkpt>
      <trkpt lat="41.9246" lon="2.26873">
        <ele>467.2</ele>
        <time>2022-05-21 02:36:50</time>
      </trkpt>
      <trkpt lat="41.92465" lon="2.2687">
        <ele>467.2</ele>
        <time>2022-05-21 02:36:51</time>
      </trkpt>
      <trkpt lat="41.9247" lon="2.26868">
        <ele>467.2</ele>
        <time>2022-05-21 02:36:52</time>
      </trkpt>
      <trkpt lat="41.92475" lon="2.26865">
        <ele>467.2</ele>
        <time>2022-05-21 02:36:53</time>
      </trkpt>
      <trkpt lat="41.9248" lon="2.26863">
        <ele>467.2</ele>
        <time>2022-05-21 02:36:54</time>
      </trkpt>
      <trkpt lat="41.92486" lon="2.2686">
        <ele>467.2</ele>
        <time>2022-05-21 02:36:55</time>
      </trkpt>
      <trkpt lat="41.92491" lon="2.26857">
        <ele>467.2</ele>
        <time>2022-05-21 02:36:56</time>
      </trkpt>
      <trkpt lat="41.92496" lon="2.26855">
        <ele>467.2</ele>
        <time>2022-05-21 02:36:57</time>
      </trkpt>
      <trkpt lat="41.92501" lon="2.26852">
        <ele>467.2</ele>
        <time>2022-05-21 02:36:58</time>
      </trkpt>
      <trkpt lat="41.92507" lon="2.26849">
        <ele>467.2</ele>
        <time>2022-05-21 02:36:59</time>
      </trkpt>
      <trkpt lat="41.92512" lon="2.26847">
        <ele>467.2</ele>
        <time>2022-05-21 02:37:00</time>
      </trkpt>
      <trkpt lat="41.92517" lon="2.26844">
        <ele>467.4</ele>
        <time>2022-05-21 02:37:01</time>
      </trkpt>
      <trkpt lat="41.92523" lon="2.26841">
        <ele>467.4</ele>
        <time>2022-05-21 02:37:02</time>
      </trkpt>
      <trkpt lat="41.92528" lon="2.26839">
        <ele>467.4</ele>
        <time>2022-05-21 02:37:03</time>
      </trkpt>
      <trkpt lat="41.92533" lon="2.26836">
        <ele>467.4</ele>
        <time>2022-05-21 02:37:04</time>
      </trkpt>
      <trkpt lat="41.92539" lon="2.26834">
        <ele>467.4</ele>
        <time>2022-05-21 02:37:05</time>
      </trkpt>
      <trkpt lat="41.92544" lon="2.26831">
        <ele>467.6</ele>
        <time>2022-05-21 02:37:06</time>
      </trkpt>
      <trkpt lat="41.9255" lon="2.26829">
        <ele>467.6</ele>
        <time>2022-05-21 02:37:07</time>
      </trkpt>
      <trkpt lat="41.92554" lon="2.26826">
        <ele>467.6</ele>
        <time>2022-05-21 02:37:08</time>
      </trkpt>
      <trkpt lat="41.9256" lon="2.26823">
        <ele>467.8</ele>
        <time>2022-05-21 02:37:09</time>
      </trkpt>
      <trkpt lat="41.92565" lon="2.26821">
        <ele>467.8</ele>
        <time>2022-05-21 02:37:10</time>
      </trkpt>
      <trkpt lat="41.92571" lon="2.2682">
        <ele>467.8</ele>
        <time>2022-05-21 02:37:11</time>
      </trkpt>
      <trkpt lat="41.92576" lon="2.2682">
        <ele>468</ele>
        <time>2022-05-21 02:37:12</time>
      </trkpt>
      <trkpt lat="41.92582" lon="2.26822">
        <ele>468</ele>
        <time>2022-05-21 02:37:13</time>
      </trkpt>
      <trkpt lat="41.92587" lon="2.26823">
        <ele>468</ele>
        <time>2022-05-21 02:37:14</time>
      </trkpt>
      <trkpt lat="41.92593" lon="2.26823">
        <ele>468.2</ele>
        <time>2022-05-21 02:37:15</time>
      </trkpt>
      <trkpt lat="41.92598" lon="2.2682">
        <ele>468.2</ele>
        <time>2022-05-21 02:37:16</time>
      </trkpt>
      <trkpt lat="41.92602" lon="2.26816">
        <ele>468.2</ele>
        <time>2022-05-21 02:37:17</time>
      </trkpt>
      <trkpt lat="41.92606" lon="2.2681">
        <ele>468.4</ele>
        <time>2022-05-21 02:37:18</time>
      </trkpt>
      <trkpt lat="41.92609" lon="2.26804">
        <ele>468.4</ele>
        <time>2022-05-21 02:37:19</time>
      </trkpt>
      <trkpt lat="41.92613" lon="2.26799">
        <ele>468.6</ele>
        <time>2022-05-21 02:37:20</time>
      </trkpt>
      <trkpt lat="41.92617" lon="2.26795">
        <ele>468.6</ele>
        <time>2022-05-21 02:37:21</time>
      </trkpt>
      <trkpt lat="41.92622" lon="2.26792">
        <ele>468.8</ele>
        <time>2022-05-21 02:37:22</time>
      </trkpt>
      <trkpt lat="41.92627" lon="2.26789">
        <ele>468.8</ele>
        <time>2022-05-21 02:37:23</time>
      </trkpt>
      <trkpt lat="41.92633" lon="2.26787">
        <ele>469</ele>
        <time>2022-05-21 02:37:24</time>
      </trkpt>
      <trkpt lat="41.92638" lon="2.26785">
        <ele>469</ele>
        <time>2022-05-21 02:37:25</time>
      </trkpt>
      <trkpt lat="41.92643" lon="2.26783">
        <ele>469</ele>
        <time>2022-05-21 02:37:26</time>
      </trkpt>
      <trkpt lat="41.92648" lon="2.26781">
        <ele>469.2</ele>
        <time>2022-05-21 02:37:27</time>
      </trkpt>
      <trkpt lat="41.92653" lon="2.26781">
        <ele>469.2</ele>
        <time>2022-05-21 02:37:28</time>
      </trkpt>
      <trkpt lat="41.92658" lon="2.26782">
        <ele>469.2</ele>
        <time>2022-05-21 02:37:29</time>
      </trkpt>
      <trkpt lat="41.92662" lon="2.26785">
        <ele>469.4</ele>
        <time>2022-05-21 02:37:30</time>
      </trkpt>
      <trkpt lat="41.92665" lon="2.26788">
        <ele>469.4</ele>
        <time>2022-05-21 02:37:31</time>
      </trkpt>
      <trkpt lat="41.92667" lon="2.26792">
        <ele>469.6</ele>
        <time>2022-05-21 02:37:32</time>
      </trkpt>
      <trkpt lat="41.92667" lon="2.26798">
        <ele>469.6</ele>
        <time>2022-05-21 02:37:33</time>
      </trkpt>
      <trkpt lat="41.92667" lon="2.26804">
        <ele>469.6</ele>
        <time>2022-05-21 02:37:34</time>
      </trkpt>
      <trkpt lat="41.92665" lon="2.2681">
        <ele>469.8</ele>
        <time>2022-05-21 02:37:35</time>
      </trkpt>
      <trkpt lat="41.92664" lon="2.26816">
        <ele>469.8</ele>
        <time>2022-05-21 02:37:36</time>
      </trkpt>
      <trkpt lat="41.92662" lon="2.26823">
        <ele>469.8</ele>
        <time>2022-05-21 02:37:37</time>
      </trkpt>
      <trkpt lat="41.92662" lon="2.2683">
        <ele>469.8</ele>
        <time>2022-05-21 02:37:38</time>
      </trkpt>
      <trkpt lat="41.92661" lon="2.26837">
        <ele>469.8</ele>
        <time>2022-05-21 02:37:39</time>
      </trkpt>
      <trkpt lat="41.9266" lon="2.26845">
        <ele>469.8</ele>
        <time>2022-05-21 02:37:40</time>
      </trkpt>
      <trkpt lat="41.92659" lon="2.26852">
        <ele>469.8</ele>
        <time>2022-05-21 02:37:41</time>
      </trkpt>
      <trkpt lat="41.92659" lon="2.2686">
        <ele>469.8</ele>
        <time>2022-05-21 02:37:42</time>
      </trkpt>
      <trkpt lat="41.92658" lon="2.26868">
        <ele>469.8</ele>
        <time>2022-05-21 02:37:43</time>
      </trkpt>
      <trkpt lat="41.92657" lon="2.26876">
        <ele>469.8</ele>
        <time>2022-05-21 02:37:44</time>
      </trkpt>
      <trkpt lat="41.92657" lon="2.26884">
        <ele>469.6</ele>
        <time>2022-05-21 02:37:45</time>
      </trkpt>
      <trkpt lat="41.92657" lon="2.26894">
        <ele>469.6</ele>
        <time>2022-05-21 02:37:46</time>
      </trkpt>
      <trkpt lat="41.92657" lon="2.26903">
        <ele>469.6</ele>
        <time>2022-05-21 02:37:47</time>
      </trkpt>
      <trkpt lat="41.92657" lon="2.26911">
        <ele>469.6</ele>
        <time>2022-05-21 02:37:48</time>
      </trkpt>
      <trkpt lat="41.92657" lon="2.26919">
        <ele>469.6</ele>
        <time>2022-05-21 02:37:49</time>
      </trkpt>
      <trkpt lat="41.92657" lon="2.26927">
        <ele>469.6</ele>
        <time>2022-05-21 02:37:50</time>
      </trkpt>
      <trkpt lat="41.92657" lon="2.26935">
        <ele>469.6</ele>
        <time>2022-05-21 02:37:51</time>
      </trkpt>
      <trkpt lat="41.92657" lon="2.26942">
        <ele>469.4</ele>
        <time>2022-05-21 02:37:52</time>
      </trkpt>
      <trkpt lat="41.92656" lon="2.2695">
        <ele>469.4</ele>
        <time>2022-05-21 02:37:53</time>
      </trkpt>
      <trkpt lat="41.92656" lon="2.26958">
        <ele>469.4</ele>
        <time>2022-05-21 02:37:54</time>
      </trkpt>
      <trkpt lat="41.92656" lon="2.26965">
        <ele>469.4</ele>
        <time>2022-05-21 02:37:55</time>
      </trkpt>
      <trkpt lat="41.92656" lon="2.26973">
        <ele>469.2</ele>
        <time>2022-05-21 02:37:56</time>
      </trkpt>
      <trkpt lat="41.92655" lon="2.2698">
        <ele>469.2</ele>
        <time>2022-05-21 02:37:57</time>
      </trkpt>
      <trkpt lat="41.92655" lon="2.26988">
        <ele>469.2</ele>
        <time>2022-05-21 02:37:58</time>
      </trkpt>
      <trkpt lat="41.92655" lon="2.26996">
        <ele>469.2</ele>
        <time>2022-05-21 02:37:59</time>
      </trkpt>
      <trkpt lat="41.92655" lon="2.27004">
        <ele>469</ele>
        <time>2022-05-21 02:38:00</time>
      </trkpt>
      <trkpt lat="41.92655" lon="2.27012">
        <ele>469</ele>
        <time>2022-05-21 02:38:01</time>
      </trkpt>
      <trkpt lat="41.92654" lon="2.2702">
        <ele>469</ele>
        <time>2022-05-21 02:38:02</time>
      </trkpt>
      <trkpt lat="41.92654" lon="2.27028">
        <ele>468.8</ele>
        <time>2022-05-21 02:38:03</time>
      </trkpt>
      <trkpt lat="41.92654" lon="2.27037">
        <ele>468.8</ele>
        <time>2022-05-21 02:38:04</time>
      </trkpt>
      <trkpt lat="41.92654" lon="2.27045">
        <ele>468.8</ele>
        <time>2022-05-21 02:38:05</time>
      </trkpt>
      <trkpt lat="41.92654" lon="2.27054">
        <ele>468.8</ele>
        <time>2022-05-21 02:38:06</time>
      </trkpt>
      <trkpt lat="41.92653" lon="2.27062">
        <ele>468.8</ele>
        <time>2022-05-21 02:38:07</time>
      </trkpt>
      <trkpt lat="41.92653" lon="2.27071">
        <ele>468.8</ele>
        <time>2022-05-21 02:38:08</time>
      </trkpt>
      <trkpt lat="41.92653" lon="2.2708">
        <ele>468.8</ele>
        <time>2022-05-21 02:38:09</time>
      </trkpt>
      <trkpt lat="41.92653" lon="2.27089">
        <ele>468.8</ele>
        <time>2022-05-21 02:38:10</time>
      </trkpt>
      <trkpt lat="41.92653" lon="2.27098">
        <ele>468.6</ele>
        <time>2022-05-21 02:38:11</time>
      </trkpt>
      <trkpt lat="41.92653" lon="2.27107">
        <ele>468.6</ele>
        <time>2022-05-21 02:38:12</time>
      </trkpt>
      <trkpt lat="41.92653" lon="2.27115">
        <ele>468.6</ele>
        <time>2022-05-21 02:38:13</time>
      </trkpt>
      <trkpt lat="41.92653" lon="2.27124">
        <ele>468.6</ele>
        <time>2022-05-21 02:38:14</time>
      </trkpt>
      <trkpt lat="41.92653" lon="2.27132">
        <ele>468.6</ele>
        <time>2022-05-21 02:38:15</time>
      </trkpt>
      <trkpt lat="41.92652" lon="2.27141">
        <ele>468.6</ele>
        <time>2022-05-21 02:38:16</time>
      </trkpt>
      <trkpt lat="41.92652" lon="2.2715">
        <ele>468.6</ele>
        <time>2022-05-21 02:38:17</time>
      </trkpt>
      <trkpt lat="41.92652" lon="2.27158">
        <ele>468.6</ele>
        <time>2022-05-21 02:38:18</time>
      </trkpt>
      <trkpt lat="41.92652" lon="2.27167">
        <ele>468.6</ele>
        <time>2022-05-21 02:38:19</time>
      </trkpt>
      <trkpt lat="41.92652" lon="2.27176">
        <ele>468.6</ele>
        <time>2022-05-21 02:38:20</time>
      </trkpt>
      <trkpt lat="41.92651" lon="2.27184">
        <ele>468.6</ele>
        <time>2022-05-21 02:38:21</time>
      </trkpt>
      <trkpt lat="41.92651" lon="2.27192">
        <ele>468.6</ele>
        <time>2022-05-21 02:38:22</time>
      </trkpt>
      <trkpt lat="41.92651" lon="2.27201">
        <ele>468.6</ele>
        <time>2022-05-21 02:38:23</time>
      </trkpt>
      <trkpt lat="41.92651" lon="2.27209">
        <ele>468.6</ele>
        <time>2022-05-21 02:38:24</time>
      </trkpt>
      <trkpt lat="41.92651" lon="2.27217">
        <ele>468.6</ele>
        <time>2022-05-21 02:38:25</time>
      </trkpt>
      <trkpt lat="41.9265" lon="2.27225">
        <ele>468.6</ele>
        <time>2022-05-21 02:38:26</time>
      </trkpt>
      <trkpt lat="41.9265" lon="2.27233">
        <ele>468.6</ele>
        <time>2022-05-21 02:38:27</time>
      </trkpt>
      <trkpt lat="41.9265" lon="2.27241">
        <ele>468.6</ele>
        <time>2022-05-21 02:38:28</time>
      </trkpt>
      <trkpt lat="41.9265" lon="2.27249">
        <ele>468.8</ele>
        <time>2022-05-21 02:38:29</time>
      </trkpt>
      <trkpt lat="41.92649" lon="2.27258">
        <ele>468.8</ele>
        <time>2022-05-21 02:38:30</time>
      </trkpt>
      <trkpt lat="41.92649" lon="2.27266">
        <ele>468.8</ele>
        <time>2022-05-21 02:38:31</time>
      </trkpt>
      <trkpt lat="41.9265" lon="2.27274">
        <ele>469</ele>
        <time>2022-05-21 02:38:32</time>
      </trkpt>
      <trkpt lat="41.92649" lon="2.27282">
        <ele>469</ele>
        <time>2022-05-21 02:38:33</time>
      </trkpt>
      <trkpt lat="41.92649" lon="2.2729">
        <ele>469</ele>
        <time>2022-05-21 02:38:34</time>
      </trkpt>
      <trkpt lat="41.92649" lon="2.27298">
        <ele>469.2</ele>
        <time>2022-05-21 02:38:35</time>
      </trkpt>
      <trkpt lat="41.92649" lon="2.27306">
        <ele>469.2</ele>
        <time>2022-05-21 02:38:36</time>
      </trkpt>
      <trkpt lat="41.92648" lon="2.27314">
        <ele>469.2</ele>
        <time>2022-05-21 02:38:37</time>
      </trkpt>
      <trkpt lat="41.92648" lon="2.27322">
        <ele>469.4</ele>
        <time>2022-05-21 02:38:38</time>
      </trkpt>
      <trkpt lat="41.92648" lon="2.2733">
        <ele>469.4</ele>
        <time>2022-05-21 02:38:39</time>
      </trkpt>
      <trkpt lat="41.92648" lon="2.27337">
        <ele>469.6</ele>
        <time>2022-05-21 02:38:40</time>
      </trkpt>
      <trkpt lat="41.92647" lon="2.27345">
        <ele>469.6</ele>
        <time>2022-05-21 02:38:41</time>
      </trkpt>
      <trkpt lat="41.92647" lon="2.27352">
        <ele>469.6</ele>
        <time>2022-05-21 02:38:42</time>
      </trkpt>
      <trkpt lat="41.92646" lon="2.27359">
        <ele>469.8</ele>
        <time>2022-05-21 02:38:43</time>
      </trkpt>
      <trkpt lat="41.92645" lon="2.27366">
        <ele>470</ele>
        <time>2022-05-21 02:38:44</time>
      </trkpt>
      <trkpt lat="41.92645" lon="2.27373">
        <ele>470.2</ele>
        <time>2022-05-21 02:38:45</time>
      </trkpt>
      <trkpt lat="41.92644" lon="2.27379">
        <ele>470.4</ele>
        <time>2022-05-21 02:38:46</time>
      </trkpt>
      <trkpt lat="41.92644" lon="2.27385">
        <ele>470.8</ele>
        <time>2022-05-21 02:38:47</time>
      </trkpt>
      <trkpt lat="41.92643" lon="2.27391">
        <ele>471</ele>
        <time>2022-05-21 02:38:48</time>
      </trkpt>
      <trkpt lat="41.92643" lon="2.27397">
        <ele>471.4</ele>
        <time>2022-05-21 02:38:49</time>
      </trkpt>
      <trkpt lat="41.92642" lon="2.27402">
        <ele>471.6</ele>
        <time>2022-05-21 02:38:50</time>
      </trkpt>
      <trkpt lat="41.92641" lon="2.27407">
        <ele>471.8</ele>
        <time>2022-05-21 02:38:51</time>
      </trkpt>
      <trkpt lat="41.92641" lon="2.27413">
        <ele>472</ele>
        <time>2022-05-21 02:38:52</time>
      </trkpt>
      <trkpt lat="41.9264" lon="2.27418">
        <ele>472.2</ele>
        <time>2022-05-21 02:38:53</time>
      </trkpt>
      <trkpt lat="41.92639" lon="2.27423">
        <ele>472.4</ele>
        <time>2022-05-21 02:38:54</time>
      </trkpt>
      <trkpt lat="41.92638" lon="2.27427">
        <ele>472.6</ele>
        <time>2022-05-21 02:38:55</time>
      </trkpt>
      <trkpt lat="41.92637" lon="2.27433">
        <ele>472.8</ele>
        <time>2022-05-21 02:38:56</time>
      </trkpt>
      <trkpt lat="41.92636" lon="2.27439">
        <ele>473</ele>
        <time>2022-05-21 02:38:57</time>
      </trkpt>
      <trkpt lat="41.92635" lon="2.27445">
        <ele>473</ele>
        <time>2022-05-21 02:38:58</time>
      </trkpt>
      <trkpt lat="41.92634" lon="2.2745">
        <ele>473.2</ele>
        <time>2022-05-21 02:38:59</time>
      </trkpt>
      <trkpt lat="41.92634" lon="2.27456">
        <ele>473.2</ele>
        <time>2022-05-21 02:39:00</time>
      </trkpt>
      <trkpt lat="41.92633" lon="2.27462">
        <ele>473.4</ele>
        <time>2022-05-21 02:39:01</time>
      </trkpt>
      <trkpt lat="41.92632" lon="2.27468">
        <ele>473.4</ele>
        <time>2022-05-21 02:39:02</time>
      </trkpt>
      <trkpt lat="41.92631" lon="2.27474">
        <ele>473.6</ele>
        <time>2022-05-21 02:39:03</time>
      </trkpt>
      <trkpt lat="41.9263" lon="2.27481">
        <ele>473.6</ele>
        <time>2022-05-21 02:39:04</time>
      </trkpt>
      <trkpt lat="41.92629" lon="2.27487">
        <ele>473.6</ele>
        <time>2022-05-21 02:39:05</time>
      </trkpt>
      <trkpt lat="41.92628" lon="2.27494">
        <ele>473.8</ele>
        <time>2022-05-21 02:39:06</time>
      </trkpt>
      <trkpt lat="41.92628" lon="2.275">
        <ele>473.8</ele>
        <time>2022-05-21 02:39:07</time>
      </trkpt>
      <trkpt lat="41.92627" lon="2.27506">
        <ele>473.8</ele>
        <time>2022-05-21 02:39:08</time>
      </trkpt>
      <trkpt lat="41.92626" lon="2.27512">
        <ele>474</ele>
        <time>2022-05-21 02:39:09</time>
      </trkpt>
      <trkpt lat="41.92625" lon="2.27519">
        <ele>474</ele>
        <time>2022-05-21 02:39:10</time>
      </trkpt>
      <trkpt lat="41.92625" lon="2.27525">
        <ele>474</ele>
        <time>2022-05-21 02:39:11</time>
      </trkpt>
      <trkpt lat="41.92624" lon="2.27531">
        <ele>474.2</ele>
        <time>2022-05-21 02:39:12</time>
      </trkpt>
      <trkpt lat="41.92624" lon="2.27538">
        <ele>474.2</ele>
        <time>2022-05-21 02:39:13</time>
      </trkpt>
      <trkpt lat="41.92623" lon="2.27544">
        <ele>474.2</ele>
        <time>2022-05-21 02:39:14</time>
      </trkpt>
      <trkpt lat="41.92622" lon="2.2755">
        <ele>474.2</ele>
        <time>2022-05-21 02:39:15</time>
      </trkpt>
      <trkpt lat="41.92622" lon="2.27557">
        <ele>474.4</ele>
        <time>2022-05-21 02:39:16</time>
      </trkpt>
      <trkpt lat="41.92621" lon="2.27563">
        <ele>474.4</ele>
        <time>2022-05-21 02:39:17</time>
      </trkpt>
      <trkpt lat="41.9262" lon="2.2757">
        <ele>474.4</ele>
        <time>2022-05-21 02:39:18</time>
      </trkpt>
      <trkpt lat="41.92619" lon="2.27576">
        <ele>474.4</ele>
        <time>2022-05-21 02:39:19</time>
      </trkpt>
      <trkpt lat="41.92618" lon="2.27583">
        <ele>474.6</ele>
        <time>2022-05-21 02:39:20</time>
      </trkpt>
      <trkpt lat="41.92617" lon="2.27589">
        <ele>474.6</ele>
        <time>2022-05-21 02:39:21</time>
      </trkpt>
      <trkpt lat="41.92616" lon="2.27595">
        <ele>474.6</ele>
        <time>2022-05-21 02:39:22</time>
      </trkpt>
      <trkpt lat="41.92616" lon="2.27602">
        <ele>474.6</ele>
        <time>2022-05-21 02:39:23</time>
      </trkpt>
      <trkpt lat="41.92615" lon="2.27608">
        <ele>474.8</ele>
        <time>2022-05-21 02:39:24</time>
      </trkpt>
      <trkpt lat="41.92614" lon="2.27615">
        <ele>474.8</ele>
        <time>2022-05-21 02:39:25</time>
      </trkpt>
      <trkpt lat="41.92613" lon="2.27622">
        <ele>474.8</ele>
        <time>2022-05-21 02:39:26</time>
      </trkpt>
      <trkpt lat="41.92613" lon="2.27628">
        <ele>474.8</ele>
        <time>2022-05-21 02:39:27</time>
      </trkpt>
      <trkpt lat="41.92612" lon="2.27635">
        <ele>475</ele>
        <time>2022-05-21 02:39:28</time>
      </trkpt>
      <trkpt lat="41.92612" lon="2.27641">
        <ele>475</ele>
        <time>2022-05-21 02:39:29</time>
      </trkpt>
      <trkpt lat="41.92611" lon="2.27647">
        <ele>475</ele>
        <time>2022-05-21 02:39:30</time>
      </trkpt>
      <trkpt lat="41.92611" lon="2.27653">
        <ele>475</ele>
        <time>2022-05-21 02:39:31</time>
      </trkpt>
      <trkpt lat="41.92612" lon="2.27658">
        <ele>475.2</ele>
        <time>2022-05-21 02:39:32</time>
      </trkpt>
      <trkpt lat="41.92612" lon="2.27665">
        <ele>475.2</ele>
        <time>2022-05-21 02:39:33</time>
      </trkpt>
      <trkpt lat="41.92613" lon="2.27671">
        <ele>475.2</ele>
        <time>2022-05-21 02:39:34</time>
      </trkpt>
      <trkpt lat="41.92614" lon="2.27678">
        <ele>475.2</ele>
        <time>2022-05-21 02:39:35</time>
      </trkpt>
      <trkpt lat="41.92614" lon="2.27685">
        <ele>475.2</ele>
        <time>2022-05-21 02:39:36</time>
      </trkpt>
      <trkpt lat="41.92614" lon="2.27692">
        <ele>475.4</ele>
        <time>2022-05-21 02:39:37</time>
      </trkpt>
      <trkpt lat="41.92614" lon="2.277">
        <ele>475.4</ele>
        <time>2022-05-21 02:39:38</time>
      </trkpt>
      <trkpt lat="41.92613" lon="2.27707">
        <ele>475.4</ele>
        <time>2022-05-21 02:39:39</time>
      </trkpt>
      <trkpt lat="41.92612" lon="2.27714">
        <ele>475.4</ele>
        <time>2022-05-21 02:39:40</time>
      </trkpt>
      <trkpt lat="41.92611" lon="2.27721">
        <ele>475.4</ele>
        <time>2022-05-21 02:39:41</time>
      </trkpt>
      <trkpt lat="41.9261" lon="2.27729">
        <ele>475.4</ele>
        <time>2022-05-21 02:39:42</time>
      </trkpt>
      <trkpt lat="41.92609" lon="2.27736">
        <ele>475.4</ele>
        <time>2022-05-21 02:39:43</time>
      </trkpt>
      <trkpt lat="41.92607" lon="2.27743">
        <ele>475.4</ele>
        <time>2022-05-21 02:39:44</time>
      </trkpt>
      <trkpt lat="41.92606" lon="2.2775">
        <ele>475.4</ele>
        <time>2022-05-21 02:39:45</time>
      </trkpt>
      <trkpt lat="41.92604" lon="2.27757">
        <ele>475.4</ele>
        <time>2022-05-21 02:39:46</time>
      </trkpt>
      <trkpt lat="41.92602" lon="2.27764">
        <ele>475.4</ele>
        <time>2022-05-21 02:39:47</time>
      </trkpt>
      <trkpt lat="41.926" lon="2.27772">
        <ele>475.4</ele>
        <time>2022-05-21 02:39:48</time>
      </trkpt>
      <trkpt lat="41.92598" lon="2.27779">
        <ele>475.4</ele>
        <time>2022-05-21 02:39:49</time>
      </trkpt>
      <trkpt lat="41.92596" lon="2.27786">
        <ele>475.4</ele>
        <time>2022-05-21 02:39:50</time>
      </trkpt>
      <trkpt lat="41.92595" lon="2.27793">
        <ele>475.6</ele>
        <time>2022-05-21 02:39:51</time>
      </trkpt>
      <trkpt lat="41.92594" lon="2.278">
        <ele>475.6</ele>
        <time>2022-05-21 02:39:52</time>
      </trkpt>
      <trkpt lat="41.92592" lon="2.27807">
        <ele>475.8</ele>
        <time>2022-05-21 02:39:53</time>
      </trkpt>
      <trkpt lat="41.92591" lon="2.27814">
        <ele>475.8</ele>
        <time>2022-05-21 02:39:54</time>
      </trkpt>
      <trkpt lat="41.9259" lon="2.2782">
        <ele>476</ele>
        <time>2022-05-21 02:39:55</time>
      </trkpt>
      <trkpt lat="41.9259" lon="2.27826">
        <ele>476.2</ele>
        <time>2022-05-21 02:39:56</time>
      </trkpt>
      <trkpt lat="41.92589" lon="2.27832">
        <ele>476.2</ele>
        <time>2022-05-21 02:39:57</time>
      </trkpt>
      <trkpt lat="41.92588" lon="2.27839">
        <ele>476.4</ele>
        <time>2022-05-21 02:39:58</time>
      </trkpt>
      <trkpt lat="41.92588" lon="2.27845">
        <ele>476.4</ele>
        <time>2022-05-21 02:39:59</time>
      </trkpt>
      <trkpt lat="41.92587" lon="2.27851">
        <ele>476.6</ele>
        <time>2022-05-21 02:40:00</time>
      </trkpt>
      <trkpt lat="41.92586" lon="2.27858">
        <ele>476.6</ele>
        <time>2022-05-21 02:40:01</time>
      </trkpt>
      <trkpt lat="41.92585" lon="2.27865">
        <ele>476.8</ele>
        <time>2022-05-21 02:40:02</time>
      </trkpt>
      <trkpt lat="41.92584" lon="2.27872">
        <ele>476.8</ele>
        <time>2022-05-21 02:40:03</time>
      </trkpt>
      <trkpt lat="41.92583" lon="2.27879">
        <ele>476.8</ele>
        <time>2022-05-21 02:40:04</time>
      </trkpt>
      <trkpt lat="41.92582" lon="2.27886">
        <ele>477</ele>
        <time>2022-05-21 02:40:05</time>
      </trkpt>
      <trkpt lat="41.92582" lon="2.27893">
        <ele>477</ele>
        <time>2022-05-21 02:40:06</time>
      </trkpt>
      <trkpt lat="41.92581" lon="2.279">
        <ele>477</ele>
        <time>2022-05-21 02:40:07</time>
      </trkpt>
      <trkpt lat="41.9258" lon="2.27907">
        <ele>477</ele>
        <time>2022-05-21 02:40:08</time>
      </trkpt>
      <trkpt lat="41.9258" lon="2.27914">
        <ele>477</ele>
        <time>2022-05-21 02:40:09</time>
      </trkpt>
      <trkpt lat="41.92579" lon="2.27921">
        <ele>477.2</ele>
        <time>2022-05-21 02:40:10</time>
      </trkpt>
      <trkpt lat="41.92578" lon="2.27928">
        <ele>477.2</ele>
        <time>2022-05-21 02:40:11</time>
      </trkpt>
      <trkpt lat="41.92577" lon="2.27934">
        <ele>477.2</ele>
        <time>2022-05-21 02:40:12</time>
      </trkpt>
      <trkpt lat="41.92577" lon="2.27941">
        <ele>477.4</ele>
        <time>2022-05-21 02:40:13</time>
      </trkpt>
      <trkpt lat="41.92576" lon="2.27948">
        <ele>477.4</ele>
        <time>2022-05-21 02:40:14</time>
      </trkpt>
      <trkpt lat="41.92575" lon="2.27955">
        <ele>477.6</ele>
        <time>2022-05-21 02:40:15</time>
      </trkpt>
      <trkpt lat="41.92575" lon="2.27962">
        <ele>477.6</ele>
        <time>2022-05-21 02:40:16</time>
      </trkpt>
      <trkpt lat="41.92574" lon="2.27969">
        <ele>477.8</ele>
        <time>2022-05-21 02:40:17</time>
      </trkpt>
      <trkpt lat="41.92573" lon="2.27976">
        <ele>477.8</ele>
        <time>2022-05-21 02:40:18</time>
      </trkpt>
      <trkpt lat="41.92572" lon="2.27983">
        <ele>477.8</ele>
        <time>2022-05-21 02:40:19</time>
      </trkpt>
      <trkpt lat="41.92572" lon="2.2799">
        <ele>477.8</ele>
        <time>2022-05-21 02:40:20</time>
      </trkpt>
      <trkpt lat="41.92571" lon="2.27998">
        <ele>477.8</ele>
        <time>2022-05-21 02:40:21</time>
      </trkpt>
      <trkpt lat="41.92571" lon="2.28005">
        <ele>477.8</ele>
        <time>2022-05-21 02:40:22</time>
      </trkpt>
      <trkpt lat="41.9257" lon="2.28012">
        <ele>478</ele>
        <time>2022-05-21 02:40:23</time>
      </trkpt>
      <trkpt lat="41.9257" lon="2.2802">
        <ele>478</ele>
        <time>2022-05-21 02:40:24</time>
      </trkpt>
      <trkpt lat="41.9257" lon="2.28027">
        <ele>478.2</ele>
        <time>2022-05-21 02:40:25</time>
      </trkpt>
      <trkpt lat="41.92569" lon="2.28034">
        <ele>478.2</ele>
        <time>2022-05-21 02:40:26</time>
      </trkpt>
      <trkpt lat="41.92569" lon="2.28041">
        <ele>478.2</ele>
        <time>2022-05-21 02:40:27</time>
      </trkpt>
      <trkpt lat="41.92569" lon="2.28048">
        <ele>478.2</ele>
        <time>2022-05-21 02:40:28</time>
      </trkpt>
      <trkpt lat="41.92569" lon="2.28055">
        <ele>478.4</ele>
        <time>2022-05-21 02:40:29</time>
      </trkpt>
      <trkpt lat="41.92569" lon="2.28061">
        <ele>478.4</ele>
        <time>2022-05-21 02:40:30</time>
      </trkpt>
      <trkpt lat="41.92569" lon="2.28068">
        <ele>478.4</ele>
        <time>2022-05-21 02:40:31</time>
      </trkpt>
      <trkpt lat="41.92569" lon="2.28074">
        <ele>478.6</ele>
        <time>2022-05-21 02:40:32</time>
      </trkpt>
      <trkpt lat="41.92569" lon="2.2808">
        <ele>478.6</ele>
        <time>2022-05-21 02:40:33</time>
      </trkpt>
      <trkpt lat="41.92569" lon="2.28086">
        <ele>478.6</ele>
        <time>2022-05-21 02:40:34</time>
      </trkpt>
      <trkpt lat="41.92569" lon="2.28093">
        <ele>478.8</ele>
        <time>2022-05-21 02:40:35</time>
      </trkpt>
      <trkpt lat="41.92568" lon="2.281">
        <ele>478.8</ele>
        <time>2022-05-21 02:40:36</time>
      </trkpt>
      <trkpt lat="41.92568" lon="2.28107">
        <ele>478.8</ele>
        <time>2022-05-21 02:40:37</time>
      </trkpt>
      <trkpt lat="41.92568" lon="2.28114">
        <ele>479</ele>
        <time>2022-05-21 02:40:38</time>
      </trkpt>
      <trkpt lat="41.92568" lon="2.2812">
        <ele>479</ele>
        <time>2022-05-21 02:40:39</time>
      </trkpt>
      <trkpt lat="41.92567" lon="2.28127">
        <ele>479</ele>
        <time>2022-05-21 02:40:40</time>
      </trkpt>
      <trkpt lat="41.92567" lon="2.28134">
        <ele>479</ele>
        <time>2022-05-21 02:40:41</time>
      </trkpt>
      <trkpt lat="41.92566" lon="2.2814">
        <ele>479</ele>
        <time>2022-05-21 02:40:42</time>
      </trkpt>
      <trkpt lat="41.92566" lon="2.28147">
        <ele>479.2</ele>
        <time>2022-05-21 02:40:43</time>
      </trkpt>
      <trkpt lat="41.92565" lon="2.28154">
        <ele>479.2</ele>
        <time>2022-05-21 02:40:44</time>
      </trkpt>
      <trkpt lat="41.92565" lon="2.28161">
        <ele>479.2</ele>
        <time>2022-05-21 02:40:45</time>
      </trkpt>
      <trkpt lat="41.92564" lon="2.28168">
        <ele>479.4</ele>
        <time>2022-05-21 02:40:46</time>
      </trkpt>
      <trkpt lat="41.92563" lon="2.28174">
        <ele>479.4</ele>
        <time>2022-05-21 02:40:47</time>
      </trkpt>
      <trkpt lat="41.92562" lon="2.28181">
        <ele>479.4</ele>
        <time>2022-05-21 02:40:48</time>
      </trkpt>
      <trkpt lat="41.92561" lon="2.28187">
        <ele>479.6</ele>
        <time>2022-05-21 02:40:49</time>
      </trkpt>
      <trkpt lat="41.92559" lon="2.28193">
        <ele>479.6</ele>
        <time>2022-05-21 02:40:50</time>
      </trkpt>
      <trkpt lat="41.92557" lon="2.282">
        <ele>479.6</ele>
        <time>2022-05-21 02:40:51</time>
      </trkpt>
      <trkpt lat="41.92556" lon="2.28206">
        <ele>479.6</ele>
        <time>2022-05-21 02:40:52</time>
      </trkpt>
      <trkpt lat="41.92554" lon="2.28214">
        <ele>479.8</ele>
        <time>2022-05-21 02:40:53</time>
      </trkpt>
      <trkpt lat="41.92552" lon="2.28222">
        <ele>479.8</ele>
        <time>2022-05-21 02:40:54</time>
      </trkpt>
      <trkpt lat="41.9255" lon="2.2823">
        <ele>479.8</ele>
        <time>2022-05-21 02:40:55</time>
      </trkpt>
      <trkpt lat="41.92549" lon="2.28236">
        <ele>479.8</ele>
        <time>2022-05-21 02:40:56</time>
      </trkpt>
      <trkpt lat="41.92548" lon="2.28242">
        <ele>479.8</ele>
        <time>2022-05-21 02:40:57</time>
      </trkpt>
      <trkpt lat="41.92546" lon="2.28249">
        <ele>480</ele>
        <time>2022-05-21 02:40:58</time>
      </trkpt>
      <trkpt lat="41.92545" lon="2.28255">
        <ele>480</ele>
        <time>2022-05-21 02:40:59</time>
      </trkpt>
      <trkpt lat="41.92543" lon="2.28261">
        <ele>480</ele>
        <time>2022-05-21 02:41:00</time>
      </trkpt>
      <trkpt lat="41.92542" lon="2.28267">
        <ele>480</ele>
        <time>2022-05-21 02:41:01</time>
      </trkpt>
      <trkpt lat="41.9254" lon="2.28274">
        <ele>480</ele>
        <time>2022-05-21 02:41:02</time>
      </trkpt>
      <trkpt lat="41.92539" lon="2.2828">
        <ele>480</ele>
        <time>2022-05-21 02:41:03</time>
      </trkpt>
      <trkpt lat="41.92537" lon="2.28287">
        <ele>480</ele>
        <time>2022-05-21 02:41:04</time>
      </trkpt>
      <trkpt lat="41.92535" lon="2.28294">
        <ele>480</ele>
        <time>2022-05-21 02:41:05</time>
      </trkpt>
      <trkpt lat="41.92534" lon="2.283">
        <ele>480</ele>
        <time>2022-05-21 02:41:06</time>
      </trkpt>
      <trkpt lat="41.92532" lon="2.28307">
        <ele>480</ele>
        <time>2022-05-21 02:41:07</time>
      </trkpt>
      <trkpt lat="41.92531" lon="2.28313">
        <ele>480</ele>
        <time>2022-05-21 02:41:08</time>
      </trkpt>
      <trkpt lat="41.92529" lon="2.28318">
        <ele>479.8</ele>
        <time>2022-05-21 02:41:09</time>
      </trkpt>
      <trkpt lat="41.92528" lon="2.28324">
        <ele>479.8</ele>
        <time>2022-05-21 02:41:10</time>
      </trkpt>
      <trkpt lat="41.92526" lon="2.28331">
        <ele>479.6</ele>
        <time>2022-05-21 02:41:11</time>
      </trkpt>
      <trkpt lat="41.92524" lon="2.28338">
        <ele>479.6</ele>
        <time>2022-05-21 02:41:12</time>
      </trkpt>
      <trkpt lat="41.92522" lon="2.28345">
        <ele>479.4</ele>
        <time>2022-05-21 02:41:13</time>
      </trkpt>
      <trkpt lat="41.92521" lon="2.28352">
        <ele>479.2</ele>
        <time>2022-05-21 02:41:14</time>
      </trkpt>
      <trkpt lat="41.92519" lon="2.2836">
        <ele>479.2</ele>
        <time>2022-05-21 02:41:15</time>
      </trkpt>
      <trkpt lat="41.92518" lon="2.28367">
        <ele>479</ele>
        <time>2022-05-21 02:41:16</time>
      </trkpt>
      <trkpt lat="41.92518" lon="2.28375">
        <ele>479</ele>
        <time>2022-05-21 02:41:17</time>
      </trkpt>
      <trkpt lat="41.92517" lon="2.28384">
        <ele>478.8</ele>
        <time>2022-05-21 02:41:18</time>
      </trkpt>
      <trkpt lat="41.92518" lon="2.28393">
        <ele>478.8</ele>
        <time>2022-05-21 02:41:19</time>
      </trkpt>
      <trkpt lat="41.9252" lon="2.28401">
        <ele>478.6</ele>
        <time>2022-05-21 02:41:20</time>
      </trkpt>
      <trkpt lat="41.92522" lon="2.28409">
        <ele>478.6</ele>
        <time>2022-05-21 02:41:21</time>
      </trkpt>
      <trkpt lat="41.92525" lon="2.28416">
        <ele>478.4</ele>
        <time>2022-05-21 02:41:22</time>
      </trkpt>
      <trkpt lat="41.92529" lon="2.28424">
        <ele>478.2</ele>
        <time>2022-05-21 02:41:23</time>
      </trkpt>
      <trkpt lat="41.92532" lon="2.28432">
        <ele>478</ele>
        <time>2022-05-21 02:41:24</time>
      </trkpt>
      <trkpt lat="41.92536" lon="2.2844">
        <ele>477.8</ele>
        <time>2022-05-21 02:41:25</time>
      </trkpt>
      <trkpt lat="41.9254" lon="2.28448">
        <ele>477.6</ele>
        <time>2022-05-21 02:41:26</time>
      </trkpt>
      <trkpt lat="41.92543" lon="2.28455">
        <ele>477.4</ele>
        <time>2022-05-21 02:41:27</time>
      </trkpt>
      <trkpt lat="41.92547" lon="2.28463">
        <ele>477.4</ele>
        <time>2022-05-21 02:41:28</time>
      </trkpt>
      <trkpt lat="41.92551" lon="2.2847">
        <ele>477.2</ele>
        <time>2022-05-21 02:41:29</time>
      </trkpt>
      <trkpt lat="41.92555" lon="2.28477">
        <ele>477</ele>
        <time>2022-05-21 02:41:30</time>
      </trkpt>
      <trkpt lat="41.92559" lon="2.28485">
        <ele>476.8</ele>
        <time>2022-05-21 02:41:31</time>
      </trkpt>
      <trkpt lat="41.92562" lon="2.28493">
        <ele>476.6</ele>
        <time>2022-05-21 02:41:32</time>
      </trkpt>
      <trkpt lat="41.92566" lon="2.285">
        <ele>476.4</ele>
        <time>2022-05-21 02:41:33</time>
      </trkpt>
      <trkpt lat="41.9257" lon="2.28508">
        <ele>476.2</ele>
        <time>2022-05-21 02:41:34</time>
      </trkpt>
      <trkpt lat="41.92574" lon="2.28516">
        <ele>476</ele>
        <time>2022-05-21 02:41:35</time>
      </trkpt>
      <trkpt lat="41.92577" lon="2.28524">
        <ele>475.8</ele>
        <time>2022-05-21 02:41:36</time>
      </trkpt>
      <trkpt lat="41.9258" lon="2.28532">
        <ele>475.6</ele>
        <time>2022-05-21 02:41:37</time>
      </trkpt>
      <trkpt lat="41.92583" lon="2.2854">
        <ele>475.4</ele>
        <time>2022-05-21 02:41:38</time>
      </trkpt>
      <trkpt lat="41.92587" lon="2.28548">
        <ele>475.4</ele>
        <time>2022-05-21 02:41:39</time>
      </trkpt>
      <trkpt lat="41.92591" lon="2.28555">
        <ele>475.2</ele>
        <time>2022-05-21 02:41:40</time>
      </trkpt>
      <trkpt lat="41.92595" lon="2.28562">
        <ele>475.2</ele>
        <time>2022-05-21 02:41:41</time>
      </trkpt>
      <trkpt lat="41.92598" lon="2.2857">
        <ele>475</ele>
        <time>2022-05-21 02:41:42</time>
      </trkpt>
      <trkpt lat="41.92602" lon="2.28577">
        <ele>474.8</ele>
        <time>2022-05-21 02:41:43</time>
      </trkpt>
      <trkpt lat="41.92605" lon="2.28584">
        <ele>474.8</ele>
        <time>2022-05-21 02:41:44</time>
      </trkpt>
      <trkpt lat="41.92607" lon="2.28593">
        <ele>474.6</ele>
        <time>2022-05-21 02:41:45</time>
      </trkpt>
      <trkpt lat="41.9261" lon="2.28601">
        <ele>474.6</ele>
        <time>2022-05-21 02:41:46</time>
      </trkpt>
      <trkpt lat="41.92613" lon="2.28609">
        <ele>474.6</ele>
        <time>2022-05-21 02:41:47</time>
      </trkpt>
      <trkpt lat="41.92617" lon="2.28617">
        <ele>474.6</ele>
        <time>2022-05-21 02:41:48</time>
      </trkpt>
      <trkpt lat="41.92622" lon="2.28623">
        <ele>474.6</ele>
        <time>2022-05-21 02:41:49</time>
      </trkpt>
      <trkpt lat="41.92626" lon="2.28629">
        <ele>474.4</ele>
        <time>2022-05-21 02:41:50</time>
      </trkpt>
      <trkpt lat="41.9263" lon="2.28636">
        <ele>474.6</ele>
        <time>2022-05-21 02:41:51</time>
      </trkpt>
      <trkpt lat="41.92633" lon="2.28642">
        <ele>474.6</ele>
        <time>2022-05-21 02:41:52</time>
      </trkpt>
      <trkpt lat="41.92636" lon="2.28649">
        <ele>474.6</ele>
        <time>2022-05-21 02:41:53</time>
      </trkpt>
      <trkpt lat="41.9264" lon="2.28656">
        <ele>474.6</ele>
        <time>2022-05-21 02:41:54</time>
      </trkpt>
      <trkpt lat="41.92643" lon="2.28662">
        <ele>474.6</ele>
        <time>2022-05-21 02:41:55</time>
      </trkpt>
      <trkpt lat="41.92646" lon="2.28669">
        <ele>474.6</ele>
        <time>2022-05-21 02:41:56</time>
      </trkpt>
      <trkpt lat="41.9265" lon="2.28676">
        <ele>474.6</ele>
        <time>2022-05-21 02:41:57</time>
      </trkpt>
      <trkpt lat="41.92653" lon="2.28683">
        <ele>474.6</ele>
        <time>2022-05-21 02:41:58</time>
      </trkpt>
      <trkpt lat="41.92657" lon="2.2869">
        <ele>474.6</ele>
        <time>2022-05-21 02:41:59</time>
      </trkpt>
      <trkpt lat="41.9266" lon="2.28696">
        <ele>474.6</ele>
        <time>2022-05-21 02:42:00</time>
      </trkpt>
      <trkpt lat="41.92664" lon="2.28702">
        <ele>474.6</ele>
        <time>2022-05-21 02:42:01</time>
      </trkpt>
      <trkpt lat="41.92667" lon="2.28709">
        <ele>474.6</ele>
        <time>2022-05-21 02:42:02</time>
      </trkpt>
      <trkpt lat="41.9267" lon="2.28715">
        <ele>474.8</ele>
        <time>2022-05-21 02:42:03</time>
      </trkpt>
      <trkpt lat="41.92673" lon="2.28722">
        <ele>474.8</ele>
        <time>2022-05-21 02:42:04</time>
      </trkpt>
      <trkpt lat="41.92677" lon="2.28728">
        <ele>474.8</ele>
        <time>2022-05-21 02:42:05</time>
      </trkpt>
      <trkpt lat="41.9268" lon="2.28734">
        <ele>474.8</ele>
        <time>2022-05-21 02:42:06</time>
      </trkpt>
      <trkpt lat="41.92683" lon="2.28741">
        <ele>474.8</ele>
        <time>2022-05-21 02:42:07</time>
      </trkpt>
      <trkpt lat="41.92686" lon="2.28747">
        <ele>475</ele>
        <time>2022-05-21 02:42:08</time>
      </trkpt>
      <trkpt lat="41.92689" lon="2.28753">
        <ele>475</ele>
        <time>2022-05-21 02:42:09</time>
      </trkpt>
      <trkpt lat="41.92692" lon="2.28759">
        <ele>475.2</ele>
        <time>2022-05-21 02:42:10</time>
      </trkpt>
      <trkpt lat="41.92694" lon="2.28765">
        <ele>475.2</ele>
        <time>2022-05-21 02:42:11</time>
      </trkpt>
      <trkpt lat="41.92697" lon="2.2877">
        <ele>475.4</ele>
        <time>2022-05-21 02:42:12</time>
      </trkpt>
      <trkpt lat="41.92699" lon="2.28776">
        <ele>475.6</ele>
        <time>2022-05-21 02:42:13</time>
      </trkpt>
      <trkpt lat="41.92702" lon="2.28781">
        <ele>475.8</ele>
        <time>2022-05-21 02:42:14</time>
      </trkpt>
      <trkpt lat="41.92703" lon="2.28786">
        <ele>476</ele>
        <time>2022-05-21 02:42:15</time>
      </trkpt>
      <trkpt lat="41.92704" lon="2.2879">
        <ele>476.4</ele>
        <time>2022-05-21 02:42:16</time>
      </trkpt>
      <trkpt lat="41.92706" lon="2.28795">
        <ele>476.6</ele>
        <time>2022-05-21 02:42:17</time>
      </trkpt>
      <trkpt lat="41.92707" lon="2.28799">
        <ele>476.8</ele>
        <time>2022-05-21 02:42:18</time>
      </trkpt>
      <trkpt lat="41.92707" lon="2.28804">
        <ele>477</ele>
        <time>2022-05-21 02:42:19</time>
      </trkpt>
      <trkpt lat="41.92708" lon="2.28808">
        <ele>477</ele>
        <time>2022-05-21 02:42:20</time>
      </trkpt>
      <trkpt lat="41.92709" lon="2.28813">
        <ele>477.2</ele>
        <time>2022-05-21 02:42:21</time>
      </trkpt>
      <trkpt lat="41.92709" lon="2.28819">
        <ele>477.4</ele>
        <time>2022-05-21 02:42:22</time>
      </trkpt>
      <trkpt lat="41.92709" lon="2.28824">
        <ele>477.6</ele>
        <time>2022-05-21 02:42:23</time>
      </trkpt>
      <trkpt lat="41.9271" lon="2.28829">
        <ele>477.8</ele>
        <time>2022-05-21 02:42:24</time>
      </trkpt>
      <trkpt lat="41.92711" lon="2.28835">
        <ele>478</ele>
        <time>2022-05-21 02:42:25</time>
      </trkpt>
      <trkpt lat="41.92711" lon="2.2884">
        <ele>478.2</ele>
        <time>2022-05-21 02:42:26</time>
      </trkpt>
      <trkpt lat="41.92712" lon="2.28845">
        <ele>478.4</ele>
        <time>2022-05-21 02:42:27</time>
      </trkpt>
      <trkpt lat="41.92712" lon="2.28849">
        <ele>478.6</ele>
        <time>2022-05-21 02:42:28</time>
      </trkpt>
      <trkpt lat="41.92712" lon="2.28854">
        <ele>478.8</ele>
        <time>2022-05-21 02:42:29</time>
      </trkpt>
      <trkpt lat="41.92712" lon="2.28858">
        <ele>479</ele>
        <time>2022-05-21 02:42:30</time>
      </trkpt>
      <trkpt lat="41.92712" lon="2.28864">
        <ele>479.2</ele>
        <time>2022-05-21 02:42:31</time>
      </trkpt>
      <trkpt lat="41.92712" lon="2.28869">
        <ele>479.4</ele>
        <time>2022-05-21 02:42:32</time>
      </trkpt>
      <trkpt lat="41.92712" lon="2.28874">
        <ele>479.6</ele>
        <time>2022-05-21 02:42:33</time>
      </trkpt>
      <trkpt lat="41.92711" lon="2.28878">
        <ele>479.8</ele>
        <time>2022-05-21 02:42:34</time>
      </trkpt>
      <trkpt lat="41.92711" lon="2.28882">
        <ele>480</ele>
        <time>2022-05-21 02:42:35</time>
      </trkpt>
      <trkpt lat="41.9271" lon="2.28887">
        <ele>480.2</ele>
        <time>2022-05-21 02:42:36</time>
      </trkpt>
      <trkpt lat="41.9271" lon="2.28892">
        <ele>480.4</ele>
        <time>2022-05-21 02:42:37</time>
      </trkpt>
      <trkpt lat="41.92709" lon="2.28896">
        <ele>480.6</ele>
        <time>2022-05-21 02:42:38</time>
      </trkpt>
      <trkpt lat="41.92708" lon="2.28901">
        <ele>480.8</ele>
        <time>2022-05-21 02:42:39</time>
      </trkpt>
      <trkpt lat="41.92707" lon="2.28906">
        <ele>481</ele>
        <time>2022-05-21 02:42:40</time>
      </trkpt>
      <trkpt lat="41.92706" lon="2.2891">
        <ele>481.2</ele>
        <time>2022-05-21 02:42:41</time>
      </trkpt>
      <trkpt lat="41.92705" lon="2.28914">
        <ele>481.4</ele>
        <time>2022-05-21 02:42:42</time>
      </trkpt>
      <trkpt lat="41.92704" lon="2.28919">
        <ele>481.4</ele>
        <time>2022-05-21 02:42:43</time>
      </trkpt>
      <trkpt lat="41.92702" lon="2.28924">
        <ele>481.6</ele>
        <time>2022-05-21 02:42:44</time>
      </trkpt>
      <trkpt lat="41.92702" lon="2.28928">
        <ele>481.8</ele>
        <time>2022-05-21 02:42:45</time>
      </trkpt>
      <trkpt lat="41.92701" lon="2.28933">
        <ele>482.2</ele>
        <time>2022-05-21 02:42:46</time>
      </trkpt>
      <trkpt lat="41.92701" lon="2.28938">
        <ele>482.4</ele>
        <time>2022-05-21 02:42:47</time>
      </trkpt>
      <trkpt lat="41.92701" lon="2.28942">
        <ele>482.6</ele>
        <time>2022-05-21 02:42:48</time>
      </trkpt>
      <trkpt lat="41.927" lon="2.28947">
        <ele>482.8</ele>
        <time>2022-05-21 02:42:49</time>
      </trkpt>
      <trkpt lat="41.927" lon="2.28951">
        <ele>483</ele>
        <time>2022-05-21 02:42:50</time>
      </trkpt>
      <trkpt lat="41.927" lon="2.28956">
        <ele>483.2</ele>
        <time>2022-05-21 02:42:51</time>
      </trkpt>
      <trkpt lat="41.92701" lon="2.2896">
        <ele>483.4</ele>
        <time>2022-05-21 02:42:52</time>
      </trkpt>
      <trkpt lat="41.92701" lon="2.28964">
        <ele>483.6</ele>
        <time>2022-05-21 02:42:53</time>
      </trkpt>
      <trkpt lat="41.92701" lon="2.28968">
        <ele>483.8</ele>
        <time>2022-05-21 02:42:54</time>
      </trkpt>
      <trkpt lat="41.92702" lon="2.28972">
        <ele>483.8</ele>
        <time>2022-05-21 02:42:55</time>
      </trkpt>
      <trkpt lat="41.92702" lon="2.28977">
        <ele>484</ele>
        <time>2022-05-21 02:42:56</time>
      </trkpt>
      <trkpt lat="41.92703" lon="2.28981">
        <ele>484.2</ele>
        <time>2022-05-21 02:42:57</time>
      </trkpt>
      <trkpt lat="41.92704" lon="2.28985">
        <ele>484.4</ele>
        <time>2022-05-21 02:42:58</time>
      </trkpt>
      <trkpt lat="41.92704" lon="2.28989">
        <ele>484.6</ele>
        <time>2022-05-21 02:42:59</time>
      </trkpt>
      <trkpt lat="41.92705" lon="2.28994">
        <ele>484.6</ele>
        <time>2022-05-21 02:43:00</time>
      </trkpt>
      <trkpt lat="41.92706" lon="2.28998">
        <ele>484.8</ele>
        <time>2022-05-21 02:43:01</time>
      </trkpt>
      <trkpt lat="41.92706" lon="2.29002">
        <ele>485</ele>
        <time>2022-05-21 02:43:02</time>
      </trkpt>
      <trkpt lat="41.92707" lon="2.29006">
        <ele>485.2</ele>
        <time>2022-05-21 02:43:03</time>
      </trkpt>
      <trkpt lat="41.92707" lon="2.29011">
        <ele>485.4</ele>
        <time>2022-05-21 02:43:04</time>
      </trkpt>
      <trkpt lat="41.92708" lon="2.29015">
        <ele>485.6</ele>
        <time>2022-05-21 02:43:05</time>
      </trkpt>
      <trkpt lat="41.92709" lon="2.29019">
        <ele>485.6</ele>
        <time>2022-05-21 02:43:06</time>
      </trkpt>
      <trkpt lat="41.9271" lon="2.29023">
        <ele>485.8</ele>
        <time>2022-05-21 02:43:07</time>
      </trkpt>
      <trkpt lat="41.9271" lon="2.29028">
        <ele>486</ele>
        <time>2022-05-21 02:43:08</time>
      </trkpt>
      <trkpt lat="41.92711" lon="2.29031">
        <ele>486.2</ele>
        <time>2022-05-21 02:43:09</time>
      </trkpt>
      <trkpt lat="41.92712" lon="2.29035">
        <ele>486.4</ele>
        <time>2022-05-21 02:43:10</time>
      </trkpt>
      <trkpt lat="41.92713" lon="2.29039">
        <ele>486.6</ele>
        <time>2022-05-21 02:43:11</time>
      </trkpt>
      <trkpt lat="41.92714" lon="2.29044">
        <ele>486.8</ele>
        <time>2022-05-21 02:43:12</time>
      </trkpt>
      <trkpt lat="41.92714" lon="2.29048">
        <ele>487</ele>
        <time>2022-05-21 02:43:13</time>
      </trkpt>
      <trkpt lat="41.92715" lon="2.29052">
        <ele>487.2</ele>
        <time>2022-05-21 02:43:14</time>
      </trkpt>
      <trkpt lat="41.92716" lon="2.29056">
        <ele>487.4</ele>
        <time>2022-05-21 02:43:15</time>
      </trkpt>
      <trkpt lat="41.92718" lon="2.2906">
        <ele>487.6</ele>
        <time>2022-05-21 02:43:16</time>
      </trkpt>
      <trkpt lat="41.92719" lon="2.29064">
        <ele>487.6</ele>
        <time>2022-05-21 02:43:17</time>
      </trkpt>
      <trkpt lat="41.92721" lon="2.29068">
        <ele>487.8</ele>
        <time>2022-05-21 02:43:18</time>
      </trkpt>
      <trkpt lat="41.92723" lon="2.29073">
        <ele>487.8</ele>
        <time>2022-05-21 02:43:19</time>
      </trkpt>
      <trkpt lat="41.92726" lon="2.29076">
        <ele>487.8</ele>
        <time>2022-05-21 02:43:20</time>
      </trkpt>
      <trkpt lat="41.92728" lon="2.2908">
        <ele>488</ele>
        <time>2022-05-21 02:43:21</time>
      </trkpt>
      <trkpt lat="41.92731" lon="2.29084">
        <ele>488</ele>
        <time>2022-05-21 02:43:22</time>
      </trkpt>
      <trkpt lat="41.92734" lon="2.29087">
        <ele>488</ele>
        <time>2022-05-21 02:43:23</time>
      </trkpt>
      <trkpt lat="41.92738" lon="2.29091">
        <ele>488</ele>
        <time>2022-05-21 02:43:24</time>
      </trkpt>
      <trkpt lat="41.92742" lon="2.29094">
        <ele>488</ele>
        <time>2022-05-21 02:43:25</time>
      </trkpt>
      <trkpt lat="41.92746" lon="2.29098">
        <ele>488</ele>
        <time>2022-05-21 02:43:26</time>
      </trkpt>
      <trkpt lat="41.92749" lon="2.29101">
        <ele>488</ele>
        <time>2022-05-21 02:43:27</time>
      </trkpt>
      <trkpt lat="41.92752" lon="2.29105">
        <ele>488</ele>
        <time>2022-05-21 02:43:28</time>
      </trkpt>
      <trkpt lat="41.92756" lon="2.29109">
        <ele>488</ele>
        <time>2022-05-21 02:43:29</time>
      </trkpt>
      <trkpt lat="41.92759" lon="2.29114">
        <ele>488</ele>
        <time>2022-05-21 02:43:30</time>
      </trkpt>
      <trkpt lat="41.92762" lon="2.29119">
        <ele>488</ele>
        <time>2022-05-21 02:43:31</time>
      </trkpt>
      <trkpt lat="41.92765" lon="2.29123">
        <ele>488</ele>
        <time>2022-05-21 02:43:32</time>
      </trkpt>
      <trkpt lat="41.92768" lon="2.29128">
        <ele>488</ele>
        <time>2022-05-21 02:43:33</time>
      </trkpt>
      <trkpt lat="41.92772" lon="2.29132">
        <ele>488</ele>
        <time>2022-05-21 02:43:34</time>
      </trkpt>
      <trkpt lat="41.92776" lon="2.29136">
        <ele>488.2</ele>
        <time>2022-05-21 02:43:35</time>
      </trkpt>
      <trkpt lat="41.9278" lon="2.2914">
        <ele>488.2</ele>
        <time>2022-05-21 02:43:36</time>
      </trkpt>
      <trkpt lat="41.92783" lon="2.29144">
        <ele>488.2</ele>
        <time>2022-05-21 02:43:37</time>
      </trkpt>
      <trkpt lat="41.92787" lon="2.29147">
        <ele>488.2</ele>
        <time>2022-05-21 02:43:38</time>
      </trkpt>
      <trkpt lat="41.92791" lon="2.29151">
        <ele>488.4</ele>
        <time>2022-05-21 02:43:39</time>
      </trkpt>
      <trkpt lat="41.92795" lon="2.29154">
        <ele>488.4</ele>
        <time>2022-05-21 02:43:40</time>
      </trkpt>
      <trkpt lat="41.92799" lon="2.29157">
        <ele>488.6</ele>
        <time>2022-05-21 02:43:41</time>
      </trkpt>
      <trkpt lat="41.92803" lon="2.29159">
        <ele>488.6</ele>
        <time>2022-05-21 02:43:42</time>
      </trkpt>
      <trkpt lat="41.92807" lon="2.29162">
        <ele>488.8</ele>
        <time>2022-05-21 02:43:43</time>
      </trkpt>
      <trkpt lat="41.92811" lon="2.29165">
        <ele>488.8</ele>
        <time>2022-05-21 02:43:44</time>
      </trkpt>
      <trkpt lat="41.92815" lon="2.29168">
        <ele>488.8</ele>
        <time>2022-05-21 02:43:45</time>
      </trkpt>
      <trkpt lat="41.92818" lon="2.29172">
        <ele>489</ele>
        <time>2022-05-21 02:43:46</time>
      </trkpt>
      <trkpt lat="41.92821" lon="2.29177">
        <ele>489</ele>
        <time>2022-05-21 02:43:47</time>
      </trkpt>
      <trkpt lat="41.92822" lon="2.29182">
        <ele>489.2</ele>
        <time>2022-05-21 02:43:48</time>
      </trkpt>
      <trkpt lat="41.92823" lon="2.29188">
        <ele>489.2</ele>
        <time>2022-05-21 02:43:49</time>
      </trkpt>
      <trkpt lat="41.92822" lon="2.29195">
        <ele>489.2</ele>
        <time>2022-05-21 02:43:50</time>
      </trkpt>
      <trkpt lat="41.9282" lon="2.29201">
        <ele>489.4</ele>
        <time>2022-05-21 02:43:51</time>
      </trkpt>
      <trkpt lat="41.92818" lon="2.29206">
        <ele>489.4</ele>
        <time>2022-05-21 02:43:52</time>
      </trkpt>
      <trkpt lat="41.92816" lon="2.29211">
        <ele>489.4</ele>
        <time>2022-05-21 02:43:53</time>
      </trkpt>
      <trkpt lat="41.92813" lon="2.29216">
        <ele>489.4</ele>
        <time>2022-05-21 02:43:54</time>
      </trkpt>
      <trkpt lat="41.9281" lon="2.29221">
        <ele>489.6</ele>
        <time>2022-05-21 02:43:55</time>
      </trkpt>
      <trkpt lat="41.92807" lon="2.29226">
        <ele>489.6</ele>
        <time>2022-05-21 02:43:56</time>
      </trkpt>
      <trkpt lat="41.92804" lon="2.29231">
        <ele>489.6</ele>
        <time>2022-05-21 02:43:57</time>
      </trkpt>
      <trkpt lat="41.92802" lon="2.29237">
        <ele>489.6</ele>
        <time>2022-05-21 02:43:58</time>
      </trkpt>
      <trkpt lat="41.928" lon="2.29242">
        <ele>489.6</ele>
        <time>2022-05-21 02:43:59</time>
      </trkpt>
      <trkpt lat="41.92797" lon="2.29248">
        <ele>489.8</ele>
        <time>2022-05-21 02:44:00</time>
      </trkpt>
      <trkpt lat="41.92794" lon="2.29254">
        <ele>489.8</ele>
        <time>2022-05-21 02:44:01</time>
      </trkpt>
      <trkpt lat="41.92792" lon="2.29259">
        <ele>489.8</ele>
        <time>2022-05-21 02:44:02</time>
      </trkpt>
      <trkpt lat="41.9279" lon="2.29265">
        <ele>489.8</ele>
        <time>2022-05-21 02:44:03</time>
      </trkpt>
      <trkpt lat="41.92788" lon="2.2927">
        <ele>489.8</ele>
        <time>2022-05-21 02:44:04</time>
      </trkpt>
      <trkpt lat="41.92786" lon="2.29276">
        <ele>490</ele>
        <time>2022-05-21 02:44:05</time>
      </trkpt>
      <trkpt lat="41.92784" lon="2.29282">
        <ele>490</ele>
        <time>2022-05-21 02:44:06</time>
      </trkpt>
      <trkpt lat="41.92783" lon="2.29288">
        <ele>490</ele>
        <time>2022-05-21 02:44:07</time>
      </trkpt>
      <trkpt lat="41.92781" lon="2.29294">
        <ele>490.2</ele>
        <time>2022-05-21 02:44:08</time>
      </trkpt>
      <trkpt lat="41.9278" lon="2.293">
        <ele>490.4</ele>
        <time>2022-05-21 02:44:09</time>
      </trkpt>
      <trkpt lat="41.92778" lon="2.29306">
        <ele>490.6</ele>
        <time>2022-05-21 02:44:10</time>
      </trkpt>
      <trkpt lat="41.92777" lon="2.29312">
        <ele>490.6</ele>
        <time>2022-05-21 02:44:11</time>
      </trkpt>
      <trkpt lat="41.92776" lon="2.29317">
        <ele>490.8</ele>
        <time>2022-05-21 02:44:12</time>
      </trkpt>
      <trkpt lat="41.92775" lon="2.29323">
        <ele>491</ele>
        <time>2022-05-21 02:44:13</time>
      </trkpt>
      <trkpt lat="41.92773" lon="2.29329">
        <ele>491.2</ele>
        <time>2022-05-21 02:44:14</time>
      </trkpt>
      <trkpt lat="41.92772" lon="2.29334">
        <ele>491.2</ele>
        <time>2022-05-21 02:44:15</time>
      </trkpt>
      <trkpt lat="41.92771" lon="2.29341">
        <ele>491.2</ele>
        <time>2022-05-21 02:44:16</time>
      </trkpt>
      <trkpt lat="41.9277" lon="2.29347">
        <ele>491.4</ele>
        <time>2022-05-21 02:44:17</time>
      </trkpt>
      <trkpt lat="41.92769" lon="2.29353">
        <ele>491.6</ele>
        <time>2022-05-21 02:44:18</time>
      </trkpt>
      <trkpt lat="41.92768" lon="2.29358">
        <ele>491.8</ele>
        <time>2022-05-21 02:44:19</time>
      </trkpt>
      <trkpt lat="41.92767" lon="2.29364">
        <ele>492</ele>
        <time>2022-05-21 02:44:20</time>
      </trkpt>
      <trkpt lat="41.92767" lon="2.2937">
        <ele>492.2</ele>
        <time>2022-05-21 02:44:21</time>
      </trkpt>
      <trkpt lat="41.92766" lon="2.29375">
        <ele>492.4</ele>
        <time>2022-05-21 02:44:22</time>
      </trkpt>
      <trkpt lat="41.92766" lon="2.29381">
        <ele>492.4</ele>
        <time>2022-05-21 02:44:23</time>
      </trkpt>
      <trkpt lat="41.92765" lon="2.29387">
        <ele>492.6</ele>
        <time>2022-05-21 02:44:24</time>
      </trkpt>
      <trkpt lat="41.92765" lon="2.29392">
        <ele>492.8</ele>
        <time>2022-05-21 02:44:25</time>
      </trkpt>
      <trkpt lat="41.92764" lon="2.29397">
        <ele>493</ele>
        <time>2022-05-21 02:44:26</time>
      </trkpt>
      <trkpt lat="41.92763" lon="2.29402">
        <ele>493.2</ele>
        <time>2022-05-21 02:44:27</time>
      </trkpt>
      <trkpt lat="41.92762" lon="2.29408">
        <ele>493.4</ele>
        <time>2022-05-21 02:44:28</time>
      </trkpt>
      <trkpt lat="41.92761" lon="2.29413">
        <ele>493.6</ele>
        <time>2022-05-21 02:44:29</time>
      </trkpt>
      <trkpt lat="41.9276" lon="2.29418">
        <ele>493.6</ele>
        <time>2022-05-21 02:44:30</time>
      </trkpt>
      <trkpt lat="41.92759" lon="2.29423">
        <ele>493.8</ele>
        <time>2022-05-21 02:44:31</time>
      </trkpt>
      <trkpt lat="41.92758" lon="2.29429">
        <ele>494</ele>
        <time>2022-05-21 02:44:32</time>
      </trkpt>
      <trkpt lat="41.92757" lon="2.29434">
        <ele>494</ele>
        <time>2022-05-21 02:44:33</time>
      </trkpt>
      <trkpt lat="41.92757" lon="2.29439">
        <ele>494.2</ele>
        <time>2022-05-21 02:44:34</time>
      </trkpt>
      <trkpt lat="41.92756" lon="2.29445">
        <ele>494.2</ele>
        <time>2022-05-21 02:44:35</time>
      </trkpt>
      <trkpt lat="41.92756" lon="2.29451">
        <ele>494.4</ele>
        <time>2022-05-21 02:44:36</time>
      </trkpt>
      <trkpt lat="41.92756" lon="2.29456">
        <ele>494.4</ele>
        <time>2022-05-21 02:44:37</time>
      </trkpt>
      <trkpt lat="41.92755" lon="2.29462">
        <ele>494.4</ele>
        <time>2022-05-21 02:44:38</time>
      </trkpt>
      <trkpt lat="41.92754" lon="2.29468">
        <ele>494.6</ele>
        <time>2022-05-21 02:44:39</time>
      </trkpt>
      <trkpt lat="41.92754" lon="2.29474">
        <ele>494.6</ele>
        <time>2022-05-21 02:44:40</time>
      </trkpt>
      <trkpt lat="41.92754" lon="2.29481">
        <ele>494.6</ele>
        <time>2022-05-21 02:44:41</time>
      </trkpt>
      <trkpt lat="41.92754" lon="2.29487">
        <ele>494.4</ele>
        <time>2022-05-21 02:44:42</time>
      </trkpt>
      <trkpt lat="41.92754" lon="2.29494">
        <ele>494.4</ele>
        <time>2022-05-21 02:44:43</time>
      </trkpt>
      <trkpt lat="41.92754" lon="2.29501">
        <ele>494.4</ele>
        <time>2022-05-21 02:44:44</time>
      </trkpt>
      <trkpt lat="41.92756" lon="2.29507">
        <ele>494.4</ele>
        <time>2022-05-21 02:44:45</time>
      </trkpt>
      <trkpt lat="41.92757" lon="2.29514">
        <ele>494.2</ele>
        <time>2022-05-21 02:44:46</time>
      </trkpt>
      <trkpt lat="41.92759" lon="2.29521">
        <ele>494.2</ele>
        <time>2022-05-21 02:44:47</time>
      </trkpt>
      <trkpt lat="41.92761" lon="2.29528">
        <ele>494.2</ele>
        <time>2022-05-21 02:44:48</time>
      </trkpt>
      <trkpt lat="41.92763" lon="2.29535">
        <ele>494</ele>
        <time>2022-05-21 02:44:49</time>
      </trkpt>
      <trkpt lat="41.92766" lon="2.29542">
        <ele>494</ele>
        <time>2022-05-21 02:44:50</time>
      </trkpt>
      <trkpt lat="41.92768" lon="2.29548">
        <ele>494</ele>
        <time>2022-05-21 02:44:51</time>
      </trkpt>
      <trkpt lat="41.92771" lon="2.29555">
        <ele>494</ele>
        <time>2022-05-21 02:44:52</time>
      </trkpt>
      <trkpt lat="41.92774" lon="2.29561">
        <ele>494</ele>
        <time>2022-05-21 02:44:53</time>
      </trkpt>
      <trkpt lat="41.92777" lon="2.29567">
        <ele>494</ele>
        <time>2022-05-21 02:44:54</time>
      </trkpt>
      <trkpt lat="41.9278" lon="2.29574">
        <ele>494</ele>
        <time>2022-05-21 02:44:55</time>
      </trkpt>
      <trkpt lat="41.92783" lon="2.2958">
        <ele>494</ele>
        <time>2022-05-21 02:44:56</time>
      </trkpt>
      <trkpt lat="41.92786" lon="2.29586">
        <ele>494</ele>
        <time>2022-05-21 02:44:57</time>
      </trkpt>
      <trkpt lat="41.92789" lon="2.29592">
        <ele>494.2</ele>
        <time>2022-05-21 02:44:58</time>
      </trkpt>
      <trkpt lat="41.92792" lon="2.29598">
        <ele>494.2</ele>
        <time>2022-05-21 02:44:59</time>
      </trkpt>
      <trkpt lat="41.92794" lon="2.29604">
        <ele>494.4</ele>
        <time>2022-05-21 02:45:00</time>
      </trkpt>
      <trkpt lat="41.92796" lon="2.2961">
        <ele>494.4</ele>
        <time>2022-05-21 02:45:01</time>
      </trkpt>
      <trkpt lat="41.92799" lon="2.29616">
        <ele>494.6</ele>
        <time>2022-05-21 02:45:02</time>
      </trkpt>
      <trkpt lat="41.92801" lon="2.29622">
        <ele>494.8</ele>
        <time>2022-05-21 02:45:03</time>
      </trkpt>
      <trkpt lat="41.92804" lon="2.29628">
        <ele>495</ele>
        <time>2022-05-21 02:45:04</time>
      </trkpt>
      <trkpt lat="41.92806" lon="2.29633">
        <ele>495.2</ele>
        <time>2022-05-21 02:45:05</time>
      </trkpt>
      <trkpt lat="41.92808" lon="2.29638">
        <ele>495.4</ele>
        <time>2022-05-21 02:45:06</time>
      </trkpt>
      <trkpt lat="41.9281" lon="2.29643">
        <ele>495.6</ele>
        <time>2022-05-21 02:45:07</time>
      </trkpt>
      <trkpt lat="41.92812" lon="2.29648">
        <ele>495.8</ele>
        <time>2022-05-21 02:45:08</time>
      </trkpt>
      <trkpt lat="41.92815" lon="2.29652">
        <ele>496</ele>
        <time>2022-05-21 02:45:09</time>
      </trkpt>
      <trkpt lat="41.92817" lon="2.29657">
        <ele>496.2</ele>
        <time>2022-05-21 02:45:10</time>
      </trkpt>
      <trkpt lat="41.92819" lon="2.29661">
        <ele>496.4</ele>
        <time>2022-05-21 02:45:11</time>
      </trkpt>
      <trkpt lat="41.92821" lon="2.29666">
        <ele>496.8</ele>
        <time>2022-05-21 02:45:12</time>
      </trkpt>
      <trkpt lat="41.92823" lon="2.2967">
        <ele>497</ele>
        <time>2022-05-21 02:45:13</time>
      </trkpt>
      <trkpt lat="41.92825" lon="2.29675">
        <ele>497.2</ele>
        <time>2022-05-21 02:45:14</time>
      </trkpt>
      <trkpt lat="41.92827" lon="2.29679">
        <ele>497.4</ele>
        <time>2022-05-21 02:45:15</time>
      </trkpt>
      <trkpt lat="41.9283" lon="2.29683">
        <ele>497.6</ele>
        <time>2022-05-21 02:45:16</time>
      </trkpt>
      <trkpt lat="41.92831" lon="2.29687">
        <ele>497.8</ele>
        <time>2022-05-21 02:45:17</time>
      </trkpt>
      <trkpt lat="41.92833" lon="2.29691">
        <ele>498</ele>
        <time>2022-05-21 02:45:18</time>
      </trkpt>
      <trkpt lat="41.92835" lon="2.29695">
        <ele>498.2</ele>
        <time>2022-05-21 02:45:19</time>
      </trkpt>
      <trkpt lat="41.92837" lon="2.297">
        <ele>498.4</ele>
        <time>2022-05-21 02:45:20</time>
      </trkpt>
      <trkpt lat="41.92839" lon="2.29704">
        <ele>498.6</ele>
        <time>2022-05-21 02:45:21</time>
      </trkpt>
      <trkpt lat="41.92841" lon="2.29708">
        <ele>498.8</ele>
        <time>2022-05-21 02:45:22</time>
      </trkpt>
      <trkpt lat="41.92842" lon="2.29712">
        <ele>499</ele>
        <time>2022-05-21 02:45:23</time>
      </trkpt>
      <trkpt lat="41.92844" lon="2.29716">
        <ele>499.4</ele>
        <time>2022-05-21 02:45:24</time>
      </trkpt>
      <trkpt lat="41.92846" lon="2.2972">
        <ele>499.6</ele>
        <time>2022-05-21 02:45:25</time>
      </trkpt>
      <trkpt lat="41.92848" lon="2.29724">
        <ele>499.8</ele>
        <time>2022-05-21 02:45:26</time>
      </trkpt>
      <trkpt lat="41.9285" lon="2.29728">
        <ele>500</ele>
        <time>2022-05-21 02:45:27</time>
      </trkpt>
      <trkpt lat="41.92851" lon="2.29732">
        <ele>500</ele>
        <time>2022-05-21 02:45:28</time>
      </trkpt>
      <trkpt lat="41.92853" lon="2.29737">
        <ele>500.4</ele>
        <time>2022-05-21 02:45:29</time>
      </trkpt>
      <trkpt lat="41.92855" lon="2.29741">
        <ele>500.6</ele>
        <time>2022-05-21 02:45:30</time>
      </trkpt>
      <trkpt lat="41.92857" lon="2.29745">
        <ele>500.8</ele>
        <time>2022-05-21 02:45:31</time>
      </trkpt>
      <trkpt lat="41.92858" lon="2.29749">
        <ele>501</ele>
        <time>2022-05-21 02:45:32</time>
      </trkpt>
      <trkpt lat="41.9286" lon="2.29753">
        <ele>501.2</ele>
        <time>2022-05-21 02:45:33</time>
      </trkpt>
      <trkpt lat="41.92862" lon="2.29757">
        <ele>501.4</ele>
        <time>2022-05-21 02:45:34</time>
      </trkpt>
      <trkpt lat="41.92863" lon="2.29761">
        <ele>501.6</ele>
        <time>2022-05-21 02:45:35</time>
      </trkpt>
      <trkpt lat="41.92865" lon="2.29765">
        <ele>501.8</ele>
        <time>2022-05-21 02:45:36</time>
      </trkpt>
      <trkpt lat="41.92866" lon="2.29769">
        <ele>502</ele>
        <time>2022-05-21 02:45:37</time>
      </trkpt>
      <trkpt lat="41.92868" lon="2.29773">
        <ele>502.2</ele>
        <time>2022-05-21 02:45:38</time>
      </trkpt>
      <trkpt lat="41.92869" lon="2.29778">
        <ele>502.4</ele>
        <time>2022-05-21 02:45:39</time>
      </trkpt>
      <trkpt lat="41.9287" lon="2.29783">
        <ele>502.6</ele>
        <time>2022-05-21 02:45:40</time>
      </trkpt>
      <trkpt lat="41.92872" lon="2.29787">
        <ele>502.6</ele>
        <time>2022-05-21 02:45:41</time>
      </trkpt>
      <trkpt lat="41.92873" lon="2.29792">
        <ele>502.8</ele>
        <time>2022-05-21 02:45:42</time>
      </trkpt>
      <trkpt lat="41.92874" lon="2.29797">
        <ele>503</ele>
        <time>2022-05-21 02:45:43</time>
      </trkpt>
      <trkpt lat="41.92875" lon="2.29802">
        <ele>503</ele>
        <time>2022-05-21 02:45:44</time>
      </trkpt>
      <trkpt lat="41.92876" lon="2.29808">
        <ele>503</ele>
        <time>2022-05-21 02:45:45</time>
      </trkpt>
      <trkpt lat="41.92877" lon="2.29813">
        <ele>503.2</ele>
        <time>2022-05-21 02:45:46</time>
      </trkpt>
      <trkpt lat="41.92878" lon="2.29818">
        <ele>503.2</ele>
        <time>2022-05-21 02:45:47</time>
      </trkpt>
      <trkpt lat="41.92879" lon="2.29824">
        <ele>503.2</ele>
        <time>2022-05-21 02:45:48</time>
      </trkpt>
      <trkpt lat="41.9288" lon="2.29829">
        <ele>503.4</ele>
        <time>2022-05-21 02:45:49</time>
      </trkpt>
      <trkpt lat="41.92881" lon="2.29835">
        <ele>503.4</ele>
        <time>2022-05-21 02:45:50</time>
      </trkpt>
      <trkpt lat="41.92882" lon="2.2984">
        <ele>503.4</ele>
        <time>2022-05-21 02:45:51</time>
      </trkpt>
      <trkpt lat="41.92883" lon="2.29846">
        <ele>503.4</ele>
        <time>2022-05-21 02:45:52</time>
      </trkpt>
      <trkpt lat="41.92884" lon="2.29852">
        <ele>503.6</ele>
        <time>2022-05-21 02:45:53</time>
      </trkpt>
      <trkpt lat="41.92885" lon="2.29857">
        <ele>503.6</ele>
        <time>2022-05-21 02:45:54</time>
      </trkpt>
      <trkpt lat="41.92886" lon="2.29863">
        <ele>503.6</ele>
        <time>2022-05-21 02:45:55</time>
      </trkpt>
      <trkpt lat="41.92886" lon="2.29869">
        <ele>503.8</ele>
        <time>2022-05-21 02:45:56</time>
      </trkpt>
      <trkpt lat="41.92887" lon="2.29874">
        <ele>503.8</ele>
        <time>2022-05-21 02:45:57</time>
      </trkpt>
      <trkpt lat="41.92888" lon="2.2988">
        <ele>504</ele>
        <time>2022-05-21 02:45:58</time>
      </trkpt>
      <trkpt lat="41.92888" lon="2.29886">
        <ele>504</ele>
        <time>2022-05-21 02:45:59</time>
      </trkpt>
      <trkpt lat="41.92889" lon="2.29891">
        <ele>504</ele>
        <time>2022-05-21 02:46:00</time>
      </trkpt>
      <trkpt lat="41.92889" lon="2.29896">
        <ele>504</ele>
        <time>2022-05-21 02:46:01</time>
      </trkpt>
      <trkpt lat="41.9289" lon="2.29903">
        <ele>504.2</ele>
        <time>2022-05-21 02:46:02</time>
      </trkpt>
      <trkpt lat="41.92891" lon="2.29909">
        <ele>504.2</ele>
        <time>2022-05-21 02:46:03</time>
      </trkpt>
      <trkpt lat="41.92891" lon="2.29914">
        <ele>504.2</ele>
        <time>2022-05-21 02:46:04</time>
      </trkpt>
      <trkpt lat="41.92892" lon="2.2992">
        <ele>504.4</ele>
        <time>2022-05-21 02:46:05</time>
      </trkpt>
      <trkpt lat="41.92892" lon="2.29926">
        <ele>504.4</ele>
        <time>2022-05-21 02:46:06</time>
      </trkpt>
      <trkpt lat="41.92893" lon="2.29932">
        <ele>504.6</ele>
        <time>2022-05-21 02:46:07</time>
      </trkpt>
      <trkpt lat="41.92893" lon="2.29937">
        <ele>504.6</ele>
        <time>2022-05-21 02:46:08</time>
      </trkpt>
      <trkpt lat="41.92894" lon="2.29943">
        <ele>504.8</ele>
        <time>2022-05-21 02:46:09</time>
      </trkpt>
      <trkpt lat="41.92894" lon="2.29949">
        <ele>504.8</ele>
        <time>2022-05-21 02:46:10</time>
      </trkpt>
      <trkpt lat="41.92895" lon="2.29954">
        <ele>505</ele>
        <time>2022-05-21 02:46:11</time>
      </trkpt>
      <trkpt lat="41.92895" lon="2.29959">
        <ele>505.2</ele>
        <time>2022-05-21 02:46:12</time>
      </trkpt>
      <trkpt lat="41.92896" lon="2.29964">
        <ele>505.4</ele>
        <time>2022-05-21 02:46:13</time>
      </trkpt>
      <trkpt lat="41.92896" lon="2.29969">
        <ele>505.8</ele>
        <time>2022-05-21 02:46:14</time>
      </trkpt>
      <trkpt lat="41.92896" lon="2.29973">
        <ele>506</ele>
        <time>2022-05-21 02:46:15</time>
      </trkpt>
      <trkpt lat="41.92896" lon="2.29978">
        <ele>506.2</ele>
        <time>2022-05-21 02:46:16</time>
      </trkpt>
      <trkpt lat="41.92897" lon="2.29982">
        <ele>506.4</ele>
        <time>2022-05-21 02:46:17</time>
      </trkpt>
      <trkpt lat="41.92897" lon="2.29986">
        <ele>506.8</ele>
        <time>2022-05-21 02:46:18</time>
      </trkpt>
      <trkpt lat="41.92897" lon="2.2999">
        <ele>507</ele>
        <time>2022-05-21 02:46:19</time>
      </trkpt>
      <trkpt lat="41.92897" lon="2.29994">
        <ele>507.2</ele>
        <time>2022-05-21 02:46:20</time>
      </trkpt>
      <trkpt lat="41.92897" lon="2.29998">
        <ele>507.4</ele>
        <time>2022-05-21 02:46:21</time>
      </trkpt>
      <trkpt lat="41.92897" lon="2.30002">
        <ele>507.8</ele>
        <time>2022-05-21 02:46:22</time>
      </trkpt>
      <trkpt lat="41.92897" lon="2.30006">
        <ele>508</ele>
        <time>2022-05-21 02:46:23</time>
      </trkpt>
      <trkpt lat="41.92896" lon="2.3001">
        <ele>508.2</ele>
        <time>2022-05-21 02:46:24</time>
      </trkpt>
      <trkpt lat="41.92896" lon="2.30013">
        <ele>508.4</ele>
        <time>2022-05-21 02:46:25</time>
      </trkpt>
      <trkpt lat="41.92895" lon="2.30017">
        <ele>508.6</ele>
        <time>2022-05-21 02:46:26</time>
      </trkpt>
      <trkpt lat="41.92894" lon="2.30021">
        <ele>508.8</ele>
        <time>2022-05-21 02:46:27</time>
      </trkpt>
      <trkpt lat="41.92893" lon="2.30025">
        <ele>509</ele>
        <time>2022-05-21 02:46:28</time>
      </trkpt>
      <trkpt lat="41.92892" lon="2.30029">
        <ele>509</ele>
        <time>2022-05-21 02:46:29</time>
      </trkpt>
      <trkpt lat="41.92891" lon="2.30033">
        <ele>509.2</ele>
        <time>2022-05-21 02:46:30</time>
      </trkpt>
      <trkpt lat="41.92889" lon="2.30036">
        <ele>509.4</ele>
        <time>2022-05-21 02:46:31</time>
      </trkpt>
      <trkpt lat="41.92886" lon="2.3004">
        <ele>509.6</ele>
        <time>2022-05-21 02:46:32</time>
      </trkpt>
      <trkpt lat="41.92884" lon="2.30043">
        <ele>509.6</ele>
        <time>2022-05-21 02:46:33</time>
      </trkpt>
      <trkpt lat="41.92883" lon="2.30047">
        <ele>509.8</ele>
        <time>2022-05-21 02:46:34</time>
      </trkpt>
      <trkpt lat="41.92881" lon="2.3005">
        <ele>509.8</ele>
        <time>2022-05-21 02:46:35</time>
      </trkpt>
      <trkpt lat="41.9288" lon="2.30054">
        <ele>510</ele>
        <time>2022-05-21 02:46:36</time>
      </trkpt>
      <trkpt lat="41.92879" lon="2.30058">
        <ele>510.2</ele>
        <time>2022-05-21 02:46:37</time>
      </trkpt>
      <trkpt lat="41.92878" lon="2.30062">
        <ele>510.2</ele>
        <time>2022-05-21 02:46:38</time>
      </trkpt>
      <trkpt lat="41.92877" lon="2.30067">
        <ele>510.4</ele>
        <time>2022-05-21 02:46:39</time>
      </trkpt>
      <trkpt lat="41.92877" lon="2.30071">
        <ele>510.4</ele>
        <time>2022-05-21 02:46:40</time>
      </trkpt>
      <trkpt lat="41.92876" lon="2.30076">
        <ele>510.6</ele>
        <time>2022-05-21 02:46:41</time>
      </trkpt>
      <trkpt lat="41.92876" lon="2.3008">
        <ele>510.8</ele>
        <time>2022-05-21 02:46:42</time>
      </trkpt>
      <trkpt lat="41.92876" lon="2.30085">
        <ele>511</ele>
        <time>2022-05-21 02:46:43</time>
      </trkpt>
      <trkpt lat="41.92876" lon="2.30089">
        <ele>511</ele>
        <time>2022-05-21 02:46:44</time>
      </trkpt>
      <trkpt lat="41.92877" lon="2.30094">
        <ele>511.2</ele>
        <time>2022-05-21 02:46:45</time>
      </trkpt>
      <trkpt lat="41.92878" lon="2.30099">
        <ele>511.2</ele>
        <time>2022-05-21 02:46:46</time>
      </trkpt>
      <trkpt lat="41.92878" lon="2.30103">
        <ele>511.4</ele>
        <time>2022-05-21 02:46:47</time>
      </trkpt>
      <trkpt lat="41.92879" lon="2.30108">
        <ele>511.4</ele>
        <time>2022-05-21 02:46:48</time>
      </trkpt>
      <trkpt lat="41.9288" lon="2.30112">
        <ele>511.6</ele>
        <time>2022-05-21 02:46:49</time>
      </trkpt>
      <trkpt lat="41.92881" lon="2.30114">
        <ele>511.6</ele>
        <time>2022-05-21 02:46:50</time>
      </trkpt>
      <trkpt lat="41.92882" lon="2.30118">
        <ele>511.6</ele>
        <time>2022-05-21 02:46:51</time>
      </trkpt>
      <trkpt lat="41.92885" lon="2.30125">
        <ele>511.8</ele>
        <time>2022-05-21 02:46:52</time>
      </trkpt>
      <trkpt lat="41.92887" lon="2.30129">
        <ele>511.8</ele>
        <time>2022-05-21 02:46:53</time>
      </trkpt>
      <trkpt lat="41.9289" lon="2.30132">
        <ele>511.8</ele>
        <time>2022-05-21 02:46:54</time>
      </trkpt>
      <trkpt lat="41.92893" lon="2.30136">
        <ele>512</ele>
        <time>2022-05-21 02:46:55</time>
      </trkpt>
      <trkpt lat="41.92896" lon="2.30139">
        <ele>512</ele>
        <time>2022-05-21 02:46:56</time>
      </trkpt>
      <trkpt lat="41.92899" lon="2.30142">
        <ele>512</ele>
        <time>2022-05-21 02:46:57</time>
      </trkpt>
      <trkpt lat="41.92902" lon="2.30145">
        <ele>512</ele>
        <time>2022-05-21 02:46:58</time>
      </trkpt>
      <trkpt lat="41.92906" lon="2.30148">
        <ele>512.2</ele>
        <time>2022-05-21 02:46:59</time>
      </trkpt>
      <trkpt lat="41.92908" lon="2.30151">
        <ele>512.2</ele>
        <time>2022-05-21 02:47:00</time>
      </trkpt>
      <trkpt lat="41.92911" lon="2.30156">
        <ele>512.2</ele>
        <time>2022-05-21 02:47:01</time>
      </trkpt>
      <trkpt lat="41.92913" lon="2.30161">
        <ele>512.2</ele>
        <time>2022-05-21 02:47:02</time>
      </trkpt>
      <trkpt lat="41.92914" lon="2.30166">
        <ele>512.2</ele>
        <time>2022-05-21 02:47:03</time>
      </trkpt>
      <trkpt lat="41.92915" lon="2.30172">
        <ele>512.4</ele>
        <time>2022-05-21 02:47:04</time>
      </trkpt>
      <trkpt lat="41.92916" lon="2.30177">
        <ele>512.4</ele>
        <time>2022-05-21 02:47:05</time>
      </trkpt>
      <trkpt lat="41.92917" lon="2.30182">
        <ele>512.6</ele>
        <time>2022-05-21 02:47:06</time>
      </trkpt>
      <trkpt lat="41.92918" lon="2.30187">
        <ele>512.6</ele>
        <time>2022-05-21 02:47:07</time>
      </trkpt>
      <trkpt lat="41.92918" lon="2.30192">
        <ele>512.8</ele>
        <time>2022-05-21 02:47:08</time>
      </trkpt>
      <trkpt lat="41.92919" lon="2.30196">
        <ele>513</ele>
        <time>2022-05-21 02:47:09</time>
      </trkpt>
      <trkpt lat="41.9292" lon="2.302">
        <ele>513.4</ele>
        <time>2022-05-21 02:47:10</time>
      </trkpt>
      <trkpt lat="41.92921" lon="2.30205">
        <ele>513.6</ele>
        <time>2022-05-21 02:47:11</time>
      </trkpt>
      <trkpt lat="41.92921" lon="2.30209">
        <ele>513.8</ele>
        <time>2022-05-21 02:47:12</time>
      </trkpt>
      <trkpt lat="41.92922" lon="2.30213">
        <ele>514</ele>
        <time>2022-05-21 02:47:13</time>
      </trkpt>
      <trkpt lat="41.92922" lon="2.30217">
        <ele>514.2</ele>
        <time>2022-05-21 02:47:14</time>
      </trkpt>
      <trkpt lat="41.92923" lon="2.30221">
        <ele>514.4</ele>
        <time>2022-05-21 02:47:15</time>
      </trkpt>
      <trkpt lat="41.92923" lon="2.30226">
        <ele>514.6</ele>
        <time>2022-05-21 02:47:16</time>
      </trkpt>
      <trkpt lat="41.92923" lon="2.3023">
        <ele>514.8</ele>
        <time>2022-05-21 02:47:17</time>
      </trkpt>
      <trkpt lat="41.92924" lon="2.30235">
        <ele>515</ele>
        <time>2022-05-21 02:47:18</time>
      </trkpt>
      <trkpt lat="41.92924" lon="2.30239">
        <ele>515.2</ele>
        <time>2022-05-21 02:47:19</time>
      </trkpt>
      <trkpt lat="41.92924" lon="2.30244">
        <ele>515.2</ele>
        <time>2022-05-21 02:47:20</time>
      </trkpt>
      <trkpt lat="41.92925" lon="2.30248">
        <ele>515.4</ele>
        <time>2022-05-21 02:47:21</time>
      </trkpt>
      <trkpt lat="41.92926" lon="2.30252">
        <ele>515.6</ele>
        <time>2022-05-21 02:47:22</time>
      </trkpt>
      <trkpt lat="41.92927" lon="2.30256">
        <ele>515.6</ele>
        <time>2022-05-21 02:47:23</time>
      </trkpt>
      <trkpt lat="41.92929" lon="2.3026">
        <ele>515.8</ele>
        <time>2022-05-21 02:47:24</time>
      </trkpt>
      <trkpt lat="41.92932" lon="2.30264">
        <ele>516</ele>
        <time>2022-05-21 02:47:25</time>
      </trkpt>
      <trkpt lat="41.92935" lon="2.30267">
        <ele>516</ele>
        <time>2022-05-21 02:47:26</time>
      </trkpt>
      <trkpt lat="41.92938" lon="2.30269">
        <ele>516.2</ele>
        <time>2022-05-21 02:47:27</time>
      </trkpt>
      <trkpt lat="41.92941" lon="2.30272">
        <ele>516.2</ele>
        <time>2022-05-21 02:47:28</time>
      </trkpt>
      <trkpt lat="41.92944" lon="2.30274">
        <ele>516.2</ele>
        <time>2022-05-21 02:47:29</time>
      </trkpt>
      <trkpt lat="41.92947" lon="2.30276">
        <ele>516.2</ele>
        <time>2022-05-21 02:47:30</time>
      </trkpt>
      <trkpt lat="41.92951" lon="2.30278">
        <ele>516.4</ele>
        <time>2022-05-21 02:47:31</time>
      </trkpt>
      <trkpt lat="41.92954" lon="2.3028">
        <ele>516.4</ele>
        <time>2022-05-21 02:47:32</time>
      </trkpt>
      <trkpt lat="41.92957" lon="2.30283">
        <ele>516.6</ele>
        <time>2022-05-21 02:47:33</time>
      </trkpt>
      <trkpt lat="41.92959" lon="2.30287">
        <ele>516.6</ele>
        <time>2022-05-21 02:47:34</time>
      </trkpt>
      <trkpt lat="41.92962" lon="2.3029">
        <ele>516.8</ele>
        <time>2022-05-21 02:47:35</time>
      </trkpt>
      <trkpt lat="41.92965" lon="2.30293">
        <ele>517</ele>
        <time>2022-05-21 02:47:36</time>
      </trkpt>
      <trkpt lat="41.92966" lon="2.30297">
        <ele>517.2</ele>
        <time>2022-05-21 02:47:37</time>
      </trkpt>
      <trkpt lat="41.92968" lon="2.30301">
        <ele>517.4</ele>
        <time>2022-05-21 02:47:38</time>
      </trkpt>
      <trkpt lat="41.9297" lon="2.30305">
        <ele>517.4</ele>
        <time>2022-05-21 02:47:39</time>
      </trkpt>
      <trkpt lat="41.92972" lon="2.30309">
        <ele>517.6</ele>
        <time>2022-05-21 02:47:40</time>
      </trkpt>
      <trkpt lat="41.92974" lon="2.30313">
        <ele>517.8</ele>
        <time>2022-05-21 02:47:41</time>
      </trkpt>
      <trkpt lat="41.92976" lon="2.30316">
        <ele>518</ele>
        <time>2022-05-21 02:47:42</time>
      </trkpt>
      <trkpt lat="41.92978" lon="2.30319">
        <ele>518.2</ele>
        <time>2022-05-21 02:47:43</time>
      </trkpt>
      <trkpt lat="41.92979" lon="2.30322">
        <ele>518.4</ele>
        <time>2022-05-21 02:47:44</time>
      </trkpt>
      <trkpt lat="41.92981" lon="2.30326">
        <ele>518.6</ele>
        <time>2022-05-21 02:47:45</time>
      </trkpt>
      <trkpt lat="41.92982" lon="2.30329">
        <ele>519</ele>
        <time>2022-05-21 02:47:46</time>
      </trkpt>
      <trkpt lat="41.92984" lon="2.30332">
        <ele>519.2</ele>
        <time>2022-05-21 02:47:47</time>
      </trkpt>
      <trkpt lat="41.92985" lon="2.30335">
        <ele>519.4</ele>
        <time>2022-05-21 02:47:48</time>
      </trkpt>
      <trkpt lat="41.92987" lon="2.30339">
        <ele>519.6</ele>
        <time>2022-05-21 02:47:49</time>
      </trkpt>
      <trkpt lat="41.92988" lon="2.30342">
        <ele>519.8</ele>
        <time>2022-05-21 02:47:50</time>
      </trkpt>
      <trkpt lat="41.9299" lon="2.30344">
        <ele>520</ele>
        <time>2022-05-21 02:47:51</time>
      </trkpt>
      <trkpt lat="41.92993" lon="2.30347">
        <ele>520.2</ele>
        <time>2022-05-21 02:47:52</time>
      </trkpt>
      <trkpt lat="41.92995" lon="2.3035">
        <ele>520.4</ele>
        <time>2022-05-21 02:47:53</time>
      </trkpt>
      <trkpt lat="41.92997" lon="2.30353">
        <ele>520.6</ele>
        <time>2022-05-21 02:47:54</time>
      </trkpt>
      <trkpt lat="41.92999" lon="2.30355">
        <ele>520.8</ele>
        <time>2022-05-21 02:47:55</time>
      </trkpt>
      <trkpt lat="41.93001" lon="2.30358">
        <ele>521</ele>
        <time>2022-05-21 02:47:56</time>
      </trkpt>
      <trkpt lat="41.93003" lon="2.30361">
        <ele>521.2</ele>
        <time>2022-05-21 02:47:57</time>
      </trkpt>
      <trkpt lat="41.93005" lon="2.30364">
        <ele>521.4</ele>
        <time>2022-05-21 02:47:58</time>
      </trkpt>
      <trkpt lat="41.93007" lon="2.30367">
        <ele>521.6</ele>
        <time>2022-05-21 02:47:59</time>
      </trkpt>
      <trkpt lat="41.93009" lon="2.3037">
        <ele>521.8</ele>
        <time>2022-05-21 02:48:00</time>
      </trkpt>
      <trkpt lat="41.93011" lon="2.30373">
        <ele>522</ele>
        <time>2022-05-21 02:48:01</time>
      </trkpt>
      <trkpt lat="41.93013" lon="2.30376">
        <ele>522</ele>
        <time>2022-05-21 02:48:02</time>
      </trkpt>
      <trkpt lat="41.93015" lon="2.30378">
        <ele>522.2</ele>
        <time>2022-05-21 02:48:03</time>
      </trkpt>
      <trkpt lat="41.93017" lon="2.30381">
        <ele>522.4</ele>
        <time>2022-05-21 02:48:04</time>
      </trkpt>
      <trkpt lat="41.93019" lon="2.30383">
        <ele>522.4</ele>
        <time>2022-05-21 02:48:05</time>
      </trkpt>
      <trkpt lat="41.93022" lon="2.30386">
        <ele>522.6</ele>
        <time>2022-05-21 02:48:06</time>
      </trkpt>
      <trkpt lat="41.93024" lon="2.30389">
        <ele>522.6</ele>
        <time>2022-05-21 02:48:07</time>
      </trkpt>
      <trkpt lat="41.93027" lon="2.30392">
        <ele>522.8</ele>
        <time>2022-05-21 02:48:08</time>
      </trkpt>
      <trkpt lat="41.9303" lon="2.30395">
        <ele>522.8</ele>
        <time>2022-05-21 02:48:09</time>
      </trkpt>
      <trkpt lat="41.93033" lon="2.30398">
        <ele>522.8</ele>
        <time>2022-05-21 02:48:10</time>
      </trkpt>
      <trkpt lat="41.93037" lon="2.30401">
        <ele>522.8</ele>
        <time>2022-05-21 02:48:11</time>
      </trkpt>
      <trkpt lat="41.93041" lon="2.30404">
        <ele>522.8</ele>
        <time>2022-05-21 02:48:12</time>
      </trkpt>
      <trkpt lat="41.93045" lon="2.30408">
        <ele>522.6</ele>
        <time>2022-05-21 02:48:13</time>
      </trkpt>
      <trkpt lat="41.9305" lon="2.30412">
        <ele>522.4</ele>
        <time>2022-05-21 02:48:14</time>
      </trkpt>
      <trkpt lat="41.93054" lon="2.30416">
        <ele>522.4</ele>
        <time>2022-05-21 02:48:15</time>
      </trkpt>
      <trkpt lat="41.93059" lon="2.3042">
        <ele>522.2</ele>
        <time>2022-05-21 02:48:16</time>
      </trkpt>
      <trkpt lat="41.93064" lon="2.30425">
        <ele>522</ele>
        <time>2022-05-21 02:48:17</time>
      </trkpt>
      <trkpt lat="41.93069" lon="2.30429">
        <ele>521.8</ele>
        <time>2022-05-21 02:48:18</time>
      </trkpt>
      <trkpt lat="41.93074" lon="2.30434">
        <ele>521.6</ele>
        <time>2022-05-21 02:48:19</time>
      </trkpt>
      <trkpt lat="41.9308" lon="2.30439">
        <ele>521.4</ele>
        <time>2022-05-21 02:48:20</time>
      </trkpt>
      <trkpt lat="41.93085" lon="2.30444">
        <ele>521.2</ele>
        <time>2022-05-21 02:48:21</time>
      </trkpt>
      <trkpt lat="41.9309" lon="2.30449">
        <ele>521</ele>
        <time>2022-05-21 02:48:22</time>
      </trkpt>
      <trkpt lat="41.93096" lon="2.30454">
        <ele>520.8</ele>
        <time>2022-05-21 02:48:23</time>
      </trkpt>
      <trkpt lat="41.93101" lon="2.30459">
        <ele>520.8</ele>
        <time>2022-05-21 02:48:24</time>
      </trkpt>
      <trkpt lat="41.93106" lon="2.30464">
        <ele>520.6</ele>
        <time>2022-05-21 02:48:25</time>
      </trkpt>
      <trkpt lat="41.93112" lon="2.30468">
        <ele>520.4</ele>
        <time>2022-05-21 02:48:26</time>
      </trkpt>
      <trkpt lat="41.93117" lon="2.30473">
        <ele>520.4</ele>
        <time>2022-05-21 02:48:27</time>
      </trkpt>
      <trkpt lat="41.93122" lon="2.30477">
        <ele>520.4</ele>
        <time>2022-05-21 02:48:28</time>
      </trkpt>
      <trkpt lat="41.93127" lon="2.30481">
        <ele>520.4</ele>
        <time>2022-05-21 02:48:29</time>
      </trkpt>
      <trkpt lat="41.93132" lon="2.30485">
        <ele>520.4</ele>
        <time>2022-05-21 02:48:30</time>
      </trkpt>
      <trkpt lat="41.93137" lon="2.30489">
        <ele>520.4</ele>
        <time>2022-05-21 02:48:31</time>
      </trkpt>
      <trkpt lat="41.93142" lon="2.30493">
        <ele>520.4</ele>
        <time>2022-05-21 02:48:32</time>
      </trkpt>
      <trkpt lat="41.93147" lon="2.30497">
        <ele>520.4</ele>
        <time>2022-05-21 02:48:33</time>
      </trkpt>
      <trkpt lat="41.93151" lon="2.30502">
        <ele>520.4</ele>
        <time>2022-05-21 02:48:34</time>
      </trkpt>
      <trkpt lat="41.93156" lon="2.30506">
        <ele>520.4</ele>
        <time>2022-05-21 02:48:35</time>
      </trkpt>
      <trkpt lat="41.93161" lon="2.30511">
        <ele>520.2</ele>
        <time>2022-05-21 02:48:36</time>
      </trkpt>
      <trkpt lat="41.93166" lon="2.30515">
        <ele>520.2</ele>
        <time>2022-05-21 02:48:37</time>
      </trkpt>
      <trkpt lat="41.93172" lon="2.30519">
        <ele>520.2</ele>
        <time>2022-05-21 02:48:38</time>
      </trkpt>
      <trkpt lat="41.93177" lon="2.30524">
        <ele>520.2</ele>
        <time>2022-05-21 02:48:39</time>
      </trkpt>
      <trkpt lat="41.93182" lon="2.30528">
        <ele>520.2</ele>
        <time>2022-05-21 02:48:40</time>
      </trkpt>
      <trkpt lat="41.93187" lon="2.30532">
        <ele>520.2</ele>
        <time>2022-05-21 02:48:41</time>
      </trkpt>
      <trkpt lat="41.93192" lon="2.30536">
        <ele>520.2</ele>
        <time>2022-05-21 02:48:42</time>
      </trkpt>
      <trkpt lat="41.93196" lon="2.3054">
        <ele>520.4</ele>
        <time>2022-05-21 02:48:43</time>
      </trkpt>
      <trkpt lat="41.93201" lon="2.30544">
        <ele>520.4</ele>
        <time>2022-05-21 02:48:44</time>
      </trkpt>
      <trkpt lat="41.93205" lon="2.30547">
        <ele>520.4</ele>
        <time>2022-05-21 02:48:45</time>
      </trkpt>
      <trkpt lat="41.9321" lon="2.30551">
        <ele>520.4</ele>
        <time>2022-05-21 02:48:46</time>
      </trkpt>
      <trkpt lat="41.93215" lon="2.30554">
        <ele>520.6</ele>
        <time>2022-05-21 02:48:47</time>
      </trkpt>
      <trkpt lat="41.9322" lon="2.30557">
        <ele>520.6</ele>
        <time>2022-05-21 02:48:48</time>
      </trkpt>
      <trkpt lat="41.93224" lon="2.3056">
        <ele>520.6</ele>
        <time>2022-05-21 02:48:49</time>
      </trkpt>
      <trkpt lat="41.93229" lon="2.30563">
        <ele>520.6</ele>
        <time>2022-05-21 02:48:50</time>
      </trkpt>
      <trkpt lat="41.93234" lon="2.30566">
        <ele>520.8</ele>
        <time>2022-05-21 02:48:51</time>
      </trkpt>
      <trkpt lat="41.93238" lon="2.30568">
        <ele>520.8</ele>
        <time>2022-05-21 02:48:52</time>
      </trkpt>
      <trkpt lat="41.93243" lon="2.30571">
        <ele>521</ele>
        <time>2022-05-21 02:48:53</time>
      </trkpt>
      <trkpt lat="41.93247" lon="2.30573">
        <ele>521</ele>
        <time>2022-05-21 02:48:54</time>
      </trkpt>
      <trkpt lat="41.93252" lon="2.30576">
        <ele>521.2</ele>
        <time>2022-05-21 02:48:55</time>
      </trkpt>
      <trkpt lat="41.93257" lon="2.30578">
        <ele>521.2</ele>
        <time>2022-05-21 02:48:56</time>
      </trkpt>
      <trkpt lat="41.93261" lon="2.30581">
        <ele>521.4</ele>
        <time>2022-05-21 02:48:57</time>
      </trkpt>
      <trkpt lat="41.93266" lon="2.30583">
        <ele>521.6</ele>
        <time>2022-05-21 02:48:58</time>
      </trkpt>
      <trkpt lat="41.9327" lon="2.30585">
        <ele>521.8</ele>
        <time>2022-05-21 02:48:59</time>
      </trkpt>
      <trkpt lat="41.93274" lon="2.30586">
        <ele>521.8</ele>
        <time>2022-05-21 02:49:00</time>
      </trkpt>
      <trkpt lat="41.93277" lon="2.30588">
        <ele>522</ele>
        <time>2022-05-21 02:49:01</time>
      </trkpt>
      <trkpt lat="41.93281" lon="2.3059">
        <ele>522.2</ele>
        <time>2022-05-21 02:49:02</time>
      </trkpt>
      <trkpt lat="41.93284" lon="2.30592">
        <ele>522.4</ele>
        <time>2022-05-21 02:49:03</time>
      </trkpt>
      <trkpt lat="41.93288" lon="2.30594">
        <ele>522.6</ele>
        <time>2022-05-21 02:49:04</time>
      </trkpt>
      <trkpt lat="41.93291" lon="2.30596">
        <ele>522.8</ele>
        <time>2022-05-21 02:49:05</time>
      </trkpt>
      <trkpt lat="41.93295" lon="2.30598">
        <ele>523</ele>
        <time>2022-05-21 02:49:06</time>
      </trkpt>
      <trkpt lat="41.93298" lon="2.306">
        <ele>523.2</ele>
        <time>2022-05-21 02:49:07</time>
      </trkpt>
      <trkpt lat="41.93302" lon="2.30602">
        <ele>523.2</ele>
        <time>2022-05-21 02:49:08</time>
      </trkpt>
      <trkpt lat="41.93305" lon="2.30604">
        <ele>523.4</ele>
        <time>2022-05-21 02:49:09</time>
      </trkpt>
      <trkpt lat="41.93309" lon="2.30607">
        <ele>523.4</ele>
        <time>2022-05-21 02:49:10</time>
      </trkpt>
      <trkpt lat="41.93313" lon="2.3061">
        <ele>523.6</ele>
        <time>2022-05-21 02:49:11</time>
      </trkpt>
      <trkpt lat="41.93317" lon="2.30612">
        <ele>523.6</ele>
        <time>2022-05-21 02:49:12</time>
      </trkpt>
      <trkpt lat="41.9332" lon="2.30613">
        <ele>523.6</ele>
        <time>2022-05-21 02:49:13</time>
      </trkpt>
      <trkpt lat="41.93325" lon="2.30615">
        <ele>523.8</ele>
        <time>2022-05-21 02:49:14</time>
      </trkpt>
      <trkpt lat="41.93329" lon="2.30617">
        <ele>523.8</ele>
        <time>2022-05-21 02:49:15</time>
      </trkpt>
      <trkpt lat="41.93332" lon="2.3062">
        <ele>524</ele>
        <time>2022-05-21 02:49:16</time>
      </trkpt>
      <trkpt lat="41.93336" lon="2.30622">
        <ele>524</ele>
        <time>2022-05-21 02:49:17</time>
      </trkpt>
      <trkpt lat="41.9334" lon="2.30624">
        <ele>524.2</ele>
        <time>2022-05-21 02:49:18</time>
      </trkpt>
      <trkpt lat="41.93344" lon="2.30627">
        <ele>524.2</ele>
        <time>2022-05-21 02:49:19</time>
      </trkpt>
      <trkpt lat="41.93348" lon="2.30629">
        <ele>524.4</ele>
        <time>2022-05-21 02:49:20</time>
      </trkpt>
      <trkpt lat="41.93351" lon="2.30632">
        <ele>524.4</ele>
        <time>2022-05-21 02:49:21</time>
      </trkpt>
      <trkpt lat="41.93355" lon="2.30634">
        <ele>524.6</ele>
        <time>2022-05-21 02:49:22</time>
      </trkpt>
      <trkpt lat="41.93359" lon="2.30637">
        <ele>524.6</ele>
        <time>2022-05-21 02:49:23</time>
      </trkpt>
      <trkpt lat="41.93362" lon="2.3064">
        <ele>524.6</ele>
        <time>2022-05-21 02:49:24</time>
      </trkpt>
      <trkpt lat="41.93366" lon="2.30643">
        <ele>524.6</ele>
        <time>2022-05-21 02:49:25</time>
      </trkpt>
      <trkpt lat="41.9337" lon="2.30646">
        <ele>524.8</ele>
        <time>2022-05-21 02:49:26</time>
      </trkpt>
      <trkpt lat="41.93373" lon="2.3065">
        <ele>524.8</ele>
        <time>2022-05-21 02:49:27</time>
      </trkpt>
      <trkpt lat="41.93377" lon="2.30655">
        <ele>524.8</ele>
        <time>2022-05-21 02:49:28</time>
      </trkpt>
      <trkpt lat="41.9338" lon="2.30659">
        <ele>524.8</ele>
        <time>2022-05-21 02:49:29</time>
      </trkpt>
      <trkpt lat="41.93383" lon="2.30664">
        <ele>524.8</ele>
        <time>2022-05-21 02:49:30</time>
      </trkpt>
      <trkpt lat="41.93387" lon="2.30669">
        <ele>524.8</ele>
        <time>2022-05-21 02:49:31</time>
      </trkpt>
      <trkpt lat="41.9339" lon="2.30675">
        <ele>524.8</ele>
        <time>2022-05-21 02:49:32</time>
      </trkpt>
      <trkpt lat="41.93393" lon="2.3068">
        <ele>524.8</ele>
        <time>2022-05-21 02:49:33</time>
      </trkpt>
      <trkpt lat="41.93396" lon="2.30686">
        <ele>524.8</ele>
        <time>2022-05-21 02:49:34</time>
      </trkpt>
      <trkpt lat="41.93399" lon="2.30691">
        <ele>524.8</ele>
        <time>2022-05-21 02:49:35</time>
      </trkpt>
      <trkpt lat="41.93402" lon="2.30696">
        <ele>525</ele>
        <time>2022-05-21 02:49:36</time>
      </trkpt>
      <trkpt lat="41.93406" lon="2.30702">
        <ele>525</ele>
        <time>2022-05-21 02:49:37</time>
      </trkpt>
      <trkpt lat="41.93408" lon="2.30707">
        <ele>525</ele>
        <time>2022-05-21 02:49:38</time>
      </trkpt>
      <trkpt lat="41.93411" lon="2.30713">
        <ele>525</ele>
        <time>2022-05-21 02:49:39</time>
      </trkpt>
      <trkpt lat="41.93414" lon="2.30718">
        <ele>525</ele>
        <time>2022-05-21 02:49:40</time>
      </trkpt>
      <trkpt lat="41.93417" lon="2.30724">
        <ele>525.2</ele>
        <time>2022-05-21 02:49:41</time>
      </trkpt>
      <trkpt lat="41.9342" lon="2.3073">
        <ele>525.2</ele>
        <time>2022-05-21 02:49:42</time>
      </trkpt>
      <trkpt lat="41.93423" lon="2.30736">
        <ele>525.2</ele>
        <time>2022-05-21 02:49:43</time>
      </trkpt>
      <trkpt lat="41.93426" lon="2.30741">
        <ele>525.2</ele>
        <time>2022-05-21 02:49:44</time>
      </trkpt>
      <trkpt lat="41.9343" lon="2.30746">
        <ele>525.2</ele>
        <time>2022-05-21 02:49:45</time>
      </trkpt>
      <trkpt lat="41.93433" lon="2.30752">
        <ele>525.4</ele>
        <time>2022-05-21 02:49:46</time>
      </trkpt>
      <trkpt lat="41.93436" lon="2.30757">
        <ele>525.4</ele>
        <time>2022-05-21 02:49:47</time>
      </trkpt>
      <trkpt lat="41.93438" lon="2.30763">
        <ele>525.6</ele>
        <time>2022-05-21 02:49:48</time>
      </trkpt>
      <trkpt lat="41.93441" lon="2.30768">
        <ele>525.8</ele>
        <time>2022-05-21 02:49:49</time>
      </trkpt>
      <trkpt lat="41.93444" lon="2.30773">
        <ele>525.8</ele>
        <time>2022-05-21 02:49:50</time>
      </trkpt>
      <trkpt lat="41.93446" lon="2.30778">
        <ele>526</ele>
        <time>2022-05-21 02:49:51</time>
      </trkpt>
      <trkpt lat="41.93449" lon="2.30783">
        <ele>526.2</ele>
        <time>2022-05-21 02:49:52</time>
      </trkpt>
      <trkpt lat="41.93451" lon="2.30788">
        <ele>526.4</ele>
        <time>2022-05-21 02:49:53</time>
      </trkpt>
      <trkpt lat="41.93454" lon="2.30793">
        <ele>526.6</ele>
        <time>2022-05-21 02:49:54</time>
      </trkpt>
      <trkpt lat="41.93456" lon="2.30797">
        <ele>526.8</ele>
        <time>2022-05-21 02:49:55</time>
      </trkpt>
      <trkpt lat="41.93459" lon="2.30801">
        <ele>527</ele>
        <time>2022-05-21 02:49:56</time>
      </trkpt>
      <trkpt lat="41.93461" lon="2.30805">
        <ele>527.2</ele>
        <time>2022-05-21 02:49:57</time>
      </trkpt>
      <trkpt lat="41.93464" lon="2.30809">
        <ele>527.4</ele>
        <time>2022-05-21 02:49:58</time>
      </trkpt>
      <trkpt lat="41.93467" lon="2.30814">
        <ele>527.6</ele>
        <time>2022-05-21 02:49:59</time>
      </trkpt>
      <trkpt lat="41.93469" lon="2.30818">
        <ele>527.8</ele>
        <time>2022-05-21 02:50:00</time>
      </trkpt>
      <trkpt lat="41.93471" lon="2.30822">
        <ele>528</ele>
        <time>2022-05-21 02:50:01</time>
      </trkpt>
      <trkpt lat="41.93474" lon="2.30827">
        <ele>528.2</ele>
        <time>2022-05-21 02:50:02</time>
      </trkpt>
      <trkpt lat="41.93476" lon="2.30831">
        <ele>528.4</ele>
        <time>2022-05-21 02:50:03</time>
      </trkpt>
      <trkpt lat="41.9348" lon="2.30835">
        <ele>528.6</ele>
        <time>2022-05-21 02:50:04</time>
      </trkpt>
      <trkpt lat="41.93483" lon="2.30838">
        <ele>528.8</ele>
        <time>2022-05-21 02:50:05</time>
      </trkpt>
      <trkpt lat="41.93486" lon="2.30842">
        <ele>529</ele>
        <time>2022-05-21 02:50:06</time>
      </trkpt>
      <trkpt lat="41.93488" lon="2.30846">
        <ele>529.2</ele>
        <time>2022-05-21 02:50:07</time>
      </trkpt>
      <trkpt lat="41.93491" lon="2.3085">
        <ele>529.4</ele>
        <time>2022-05-21 02:50:08</time>
      </trkpt>
      <trkpt lat="41.93494" lon="2.30854">
        <ele>529.6</ele>
        <time>2022-05-21 02:50:09</time>
      </trkpt>
      <trkpt lat="41.93496" lon="2.30859">
        <ele>529.8</ele>
        <time>2022-05-21 02:50:10</time>
      </trkpt>
      <trkpt lat="41.93499" lon="2.30863">
        <ele>529.8</ele>
        <time>2022-05-21 02:50:11</time>
      </trkpt>
      <trkpt lat="41.93502" lon="2.30867">
        <ele>530</ele>
        <time>2022-05-21 02:50:12</time>
      </trkpt>
      <trkpt lat="41.93505" lon="2.30871">
        <ele>530.2</ele>
        <time>2022-05-21 02:50:13</time>
      </trkpt>
      <trkpt lat="41.93508" lon="2.30875">
        <ele>530.4</ele>
        <time>2022-05-21 02:50:14</time>
      </trkpt>
      <trkpt lat="41.93511" lon="2.30879">
        <ele>530.6</ele>
        <time>2022-05-21 02:50:15</time>
      </trkpt>
      <trkpt lat="41.93513" lon="2.30883">
        <ele>530.8</ele>
        <time>2022-05-21 02:50:16</time>
      </trkpt>
      <trkpt lat="41.93517" lon="2.30887">
        <ele>530.8</ele>
        <time>2022-05-21 02:50:17</time>
      </trkpt>
      <trkpt lat="41.93519" lon="2.30891">
        <ele>531</ele>
        <time>2022-05-21 02:50:18</time>
      </trkpt>
      <trkpt lat="41.93522" lon="2.30895">
        <ele>531.2</ele>
        <time>2022-05-21 02:50:19</time>
      </trkpt>
      <trkpt lat="41.93525" lon="2.30899">
        <ele>531.2</ele>
        <time>2022-05-21 02:50:20</time>
      </trkpt>
      <trkpt lat="41.93527" lon="2.30903">
        <ele>531.4</ele>
        <time>2022-05-21 02:50:21</time>
      </trkpt>
      <trkpt lat="41.9353" lon="2.30907">
        <ele>531.4</ele>
        <time>2022-05-21 02:50:22</time>
      </trkpt>
      <trkpt lat="41.93532" lon="2.30911">
        <ele>531.6</ele>
        <time>2022-05-21 02:50:23</time>
      </trkpt>
      <trkpt lat="41.93534" lon="2.30915">
        <ele>531.8</ele>
        <time>2022-05-21 02:50:24</time>
      </trkpt>
      <trkpt lat="41.93537" lon="2.30919">
        <ele>531.8</ele>
        <time>2022-05-21 02:50:25</time>
      </trkpt>
      <trkpt lat="41.9354" lon="2.30923">
        <ele>532</ele>
        <time>2022-05-21 02:50:26</time>
      </trkpt>
      <trkpt lat="41.93542" lon="2.30927">
        <ele>532.2</ele>
        <time>2022-05-21 02:50:27</time>
      </trkpt>
      <trkpt lat="41.93545" lon="2.30931">
        <ele>532.2</ele>
        <time>2022-05-21 02:50:28</time>
      </trkpt>
      <trkpt lat="41.93547" lon="2.30935">
        <ele>532.4</ele>
        <time>2022-05-21 02:50:29</time>
      </trkpt>
      <trkpt lat="41.9355" lon="2.30939">
        <ele>532.4</ele>
        <time>2022-05-21 02:50:30</time>
      </trkpt>
      <trkpt lat="41.93553" lon="2.30943">
        <ele>532.6</ele>
        <time>2022-05-21 02:50:31</time>
      </trkpt>
      <trkpt lat="41.93556" lon="2.30947">
        <ele>532.6</ele>
        <time>2022-05-21 02:50:32</time>
      </trkpt>
      <trkpt lat="41.93559" lon="2.30952">
        <ele>532.8</ele>
        <time>2022-05-21 02:50:33</time>
      </trkpt>
      <trkpt lat="41.93562" lon="2.30956">
        <ele>532.8</ele>
        <time>2022-05-21 02:50:34</time>
      </trkpt>
      <trkpt lat="41.93564" lon="2.30961">
        <ele>532.8</ele>
        <time>2022-05-21 02:50:35</time>
      </trkpt>
      <trkpt lat="41.93567" lon="2.30965">
        <ele>533</ele>
        <time>2022-05-21 02:50:36</time>
      </trkpt>
      <trkpt lat="41.9357" lon="2.30969">
        <ele>533</ele>
        <time>2022-05-21 02:50:37</time>
      </trkpt>
      <trkpt lat="41.93572" lon="2.30973">
        <ele>533.2</ele>
        <time>2022-05-21 02:50:38</time>
      </trkpt>
      <trkpt lat="41.93575" lon="2.30977">
        <ele>533.4</ele>
        <time>2022-05-21 02:50:39</time>
      </trkpt>
      <trkpt lat="41.93578" lon="2.30981">
        <ele>533.4</ele>
        <time>2022-05-21 02:50:40</time>
      </trkpt>
      <trkpt lat="41.9358" lon="2.30985">
        <ele>533.6</ele>
        <time>2022-05-21 02:50:41</time>
      </trkpt>
      <trkpt lat="41.93582" lon="2.3099">
        <ele>533.6</ele>
        <time>2022-05-21 02:50:42</time>
      </trkpt>
      <trkpt lat="41.93584" lon="2.30994">
        <ele>533.8</ele>
        <time>2022-05-21 02:50:43</time>
      </trkpt>
      <trkpt lat="41.93585" lon="2.30999">
        <ele>533.8</ele>
        <time>2022-05-21 02:50:44</time>
      </trkpt>
      <trkpt lat="41.93586" lon="2.31004">
        <ele>534</ele>
        <time>2022-05-21 02:50:45</time>
      </trkpt>
      <trkpt lat="41.93587" lon="2.3101">
        <ele>534</ele>
        <time>2022-05-21 02:50:46</time>
      </trkpt>
      <trkpt lat="41.93587" lon="2.31015">
        <ele>534.2</ele>
        <time>2022-05-21 02:50:47</time>
      </trkpt>
      <trkpt lat="41.93587" lon="2.31021">
        <ele>534.4</ele>
        <time>2022-05-21 02:50:48</time>
      </trkpt>
      <trkpt lat="41.93586" lon="2.31026">
        <ele>534.4</ele>
        <time>2022-05-21 02:50:49</time>
      </trkpt>
      <trkpt lat="41.93584" lon="2.31031">
        <ele>534.6</ele>
        <time>2022-05-21 02:50:50</time>
      </trkpt>
      <trkpt lat="41.93583" lon="2.31035">
        <ele>534.6</ele>
        <time>2022-05-21 02:50:51</time>
      </trkpt>
      <trkpt lat="41.93581" lon="2.31039">
        <ele>534.8</ele>
        <time>2022-05-21 02:50:52</time>
      </trkpt>
      <trkpt lat="41.93578" lon="2.31043">
        <ele>535</ele>
        <time>2022-05-21 02:50:53</time>
      </trkpt>
      <trkpt lat="41.93576" lon="2.31046">
        <ele>535.2</ele>
        <time>2022-05-21 02:50:54</time>
      </trkpt>
      <trkpt lat="41.93573" lon="2.3105">
        <ele>535.2</ele>
        <time>2022-05-21 02:50:55</time>
      </trkpt>
      <trkpt lat="41.9357" lon="2.31053">
        <ele>535.4</ele>
        <time>2022-05-21 02:50:56</time>
      </trkpt>
      <trkpt lat="41.93567" lon="2.31057">
        <ele>535.4</ele>
        <time>2022-05-21 02:50:57</time>
      </trkpt>
      <trkpt lat="41.93563" lon="2.3106">
        <ele>535.6</ele>
        <time>2022-05-21 02:50:58</time>
      </trkpt>
      <trkpt lat="41.93561" lon="2.31063">
        <ele>535.8</ele>
        <time>2022-05-21 02:50:59</time>
      </trkpt>
      <trkpt lat="41.93558" lon="2.31067">
        <ele>536</ele>
        <time>2022-05-21 02:51:00</time>
      </trkpt>
      <trkpt lat="41.93554" lon="2.3107">
        <ele>536</ele>
        <time>2022-05-21 02:51:01</time>
      </trkpt>
      <trkpt lat="41.93551" lon="2.31074">
        <ele>536.2</ele>
        <time>2022-05-21 02:51:02</time>
      </trkpt>
      <trkpt lat="41.93548" lon="2.31077">
        <ele>536.2</ele>
        <time>2022-05-21 02:51:03</time>
      </trkpt>
      <trkpt lat="41.93546" lon="2.31081">
        <ele>536.4</ele>
        <time>2022-05-21 02:51:04</time>
      </trkpt>
      <trkpt lat="41.93543" lon="2.31084">
        <ele>536.4</ele>
        <time>2022-05-21 02:51:05</time>
      </trkpt>
      <trkpt lat="41.9354" lon="2.31088">
        <ele>536.6</ele>
        <time>2022-05-21 02:51:06</time>
      </trkpt>
      <trkpt lat="41.93538" lon="2.31093">
        <ele>536.8</ele>
        <time>2022-05-21 02:51:07</time>
      </trkpt>
      <trkpt lat="41.93535" lon="2.31097">
        <ele>537</ele>
        <time>2022-05-21 02:51:08</time>
      </trkpt>
      <trkpt lat="41.93533" lon="2.31103">
        <ele>537</ele>
        <time>2022-05-21 02:51:09</time>
      </trkpt>
      <trkpt lat="41.93531" lon="2.31108">
        <ele>537.2</ele>
        <time>2022-05-21 02:51:10</time>
      </trkpt>
      <trkpt lat="41.9353" lon="2.31114">
        <ele>537.2</ele>
        <time>2022-05-21 02:51:11</time>
      </trkpt>
      <trkpt lat="41.93528" lon="2.3112">
        <ele>537.2</ele>
        <time>2022-05-21 02:51:12</time>
      </trkpt>
      <trkpt lat="41.93528" lon="2.31126">
        <ele>537.4</ele>
        <time>2022-05-21 02:51:13</time>
      </trkpt>
      <trkpt lat="41.93528" lon="2.31132">
        <ele>537.4</ele>
        <time>2022-05-21 02:51:14</time>
      </trkpt>
      <trkpt lat="41.93528" lon="2.31139">
        <ele>537.4</ele>
        <time>2022-05-21 02:51:15</time>
      </trkpt>
      <trkpt lat="41.93528" lon="2.31145">
        <ele>537.4</ele>
        <time>2022-05-21 02:51:16</time>
      </trkpt>
      <trkpt lat="41.93529" lon="2.31151">
        <ele>537.4</ele>
        <time>2022-05-21 02:51:17</time>
      </trkpt>
      <trkpt lat="41.9353" lon="2.31158">
        <ele>537.4</ele>
        <time>2022-05-21 02:51:18</time>
      </trkpt>
      <trkpt lat="41.93531" lon="2.31164">
        <ele>537.4</ele>
        <time>2022-05-21 02:51:19</time>
      </trkpt>
      <trkpt lat="41.93532" lon="2.31171">
        <ele>537.6</ele>
        <time>2022-05-21 02:51:20</time>
      </trkpt>
      <trkpt lat="41.93533" lon="2.31177">
        <ele>537.4</ele>
        <time>2022-05-21 02:51:21</time>
      </trkpt>
      <trkpt lat="41.93534" lon="2.31184">
        <ele>537.4</ele>
        <time>2022-05-21 02:51:22</time>
      </trkpt>
      <trkpt lat="41.93535" lon="2.31191">
        <ele>537.4</ele>
        <time>2022-05-21 02:51:23</time>
      </trkpt>
      <trkpt lat="41.93537" lon="2.31198">
        <ele>537.4</ele>
        <time>2022-05-21 02:51:24</time>
      </trkpt>
      <trkpt lat="41.93538" lon="2.31204">
        <ele>537.4</ele>
        <time>2022-05-21 02:51:25</time>
      </trkpt>
      <trkpt lat="41.93539" lon="2.31211">
        <ele>537.4</ele>
        <time>2022-05-21 02:51:26</time>
      </trkpt>
      <trkpt lat="41.93541" lon="2.31218">
        <ele>537.4</ele>
        <time>2022-05-21 02:51:27</time>
      </trkpt>
      <trkpt lat="41.93542" lon="2.31225">
        <ele>537.4</ele>
        <time>2022-05-21 02:51:28</time>
      </trkpt>
      <trkpt lat="41.93543" lon="2.31232">
        <ele>537.4</ele>
        <time>2022-05-21 02:51:29</time>
      </trkpt>
      <trkpt lat="41.93544" lon="2.31239">
        <ele>537.4</ele>
        <time>2022-05-21 02:51:30</time>
      </trkpt>
      <trkpt lat="41.93546" lon="2.31246">
        <ele>537.4</ele>
        <time>2022-05-21 02:51:31</time>
      </trkpt>
      <trkpt lat="41.93548" lon="2.31253">
        <ele>537.4</ele>
        <time>2022-05-21 02:51:32</time>
      </trkpt>
      <trkpt lat="41.93549" lon="2.31259">
        <ele>537.4</ele>
        <time>2022-05-21 02:51:33</time>
      </trkpt>
      <trkpt lat="41.93551" lon="2.31266">
        <ele>537.4</ele>
        <time>2022-05-21 02:51:34</time>
      </trkpt>
      <trkpt lat="41.93553" lon="2.31272">
        <ele>537.6</ele>
        <time>2022-05-21 02:51:35</time>
      </trkpt>
      <trkpt lat="41.93554" lon="2.31279">
        <ele>537.6</ele>
        <time>2022-05-21 02:51:36</time>
      </trkpt>
      <trkpt lat="41.93555" lon="2.31285">
        <ele>537.6</ele>
        <time>2022-05-21 02:51:37</time>
      </trkpt>
      <trkpt lat="41.93556" lon="2.31291">
        <ele>537.8</ele>
        <time>2022-05-21 02:51:38</time>
      </trkpt>
      <trkpt lat="41.93557" lon="2.31298">
        <ele>537.8</ele>
        <time>2022-05-21 02:51:39</time>
      </trkpt>
      <trkpt lat="41.93558" lon="2.31304">
        <ele>538</ele>
        <time>2022-05-21 02:51:40</time>
      </trkpt>
      <trkpt lat="41.93559" lon="2.3131">
        <ele>538</ele>
        <time>2022-05-21 02:51:41</time>
      </trkpt>
      <trkpt lat="41.9356" lon="2.31317">
        <ele>538.2</ele>
        <time>2022-05-21 02:51:42</time>
      </trkpt>
      <trkpt lat="41.93561" lon="2.31323">
        <ele>538.2</ele>
        <time>2022-05-21 02:51:43</time>
      </trkpt>
      <trkpt lat="41.93562" lon="2.31329">
        <ele>538.4</ele>
        <time>2022-05-21 02:51:44</time>
      </trkpt>
      <trkpt lat="41.93563" lon="2.31336">
        <ele>538.4</ele>
        <time>2022-05-21 02:51:45</time>
      </trkpt>
      <trkpt lat="41.93564" lon="2.31342">
        <ele>538.6</ele>
        <time>2022-05-21 02:51:46</time>
      </trkpt>
      <trkpt lat="41.93565" lon="2.31348">
        <ele>538.6</ele>
        <time>2022-05-21 02:51:47</time>
      </trkpt>
      <trkpt lat="41.93567" lon="2.31354">
        <ele>538.8</ele>
        <time>2022-05-21 02:51:48</time>
      </trkpt>
      <trkpt lat="41.93568" lon="2.31361">
        <ele>538.8</ele>
        <time>2022-05-21 02:51:49</time>
      </trkpt>
      <trkpt lat="41.93568" lon="2.31367">
        <ele>539</ele>
        <time>2022-05-21 02:51:50</time>
      </trkpt>
      <trkpt lat="41.9357" lon="2.31374">
        <ele>539</ele>
        <time>2022-05-21 02:51:51</time>
      </trkpt>
      <trkpt lat="41.93571" lon="2.3138">
        <ele>539</ele>
        <time>2022-05-21 02:51:52</time>
      </trkpt>
      <trkpt lat="41.93573" lon="2.31387">
        <ele>539.2</ele>
        <time>2022-05-21 02:51:53</time>
      </trkpt>
      <trkpt lat="41.93574" lon="2.31393">
        <ele>539.2</ele>
        <time>2022-05-21 02:51:54</time>
      </trkpt>
      <trkpt lat="41.93576" lon="2.314">
        <ele>539.4</ele>
        <time>2022-05-21 02:51:55</time>
      </trkpt>
      <trkpt lat="41.93577" lon="2.31407">
        <ele>539.4</ele>
        <time>2022-05-21 02:51:56</time>
      </trkpt>
      <trkpt lat="41.93578" lon="2.31413">
        <ele>539.6</ele>
        <time>2022-05-21 02:51:57</time>
      </trkpt>
      <trkpt lat="41.93579" lon="2.3142">
        <ele>539.8</ele>
        <time>2022-05-21 02:51:58</time>
      </trkpt>
      <trkpt lat="41.9358" lon="2.31426">
        <ele>539.8</ele>
        <time>2022-05-21 02:51:59</time>
      </trkpt>
      <trkpt lat="41.93581" lon="2.31432">
        <ele>540</ele>
        <time>2022-05-21 02:52:00</time>
      </trkpt>
      <trkpt lat="41.93583" lon="2.31438">
        <ele>540</ele>
        <time>2022-05-21 02:52:01</time>
      </trkpt>
      <trkpt lat="41.93584" lon="2.31446">
        <ele>540.2</ele>
        <time>2022-05-21 02:52:02</time>
      </trkpt>
      <trkpt lat="41.93584" lon="2.31452">
        <ele>540.4</ele>
        <time>2022-05-21 02:52:03</time>
      </trkpt>
      <trkpt lat="41.93586" lon="2.31459">
        <ele>540.4</ele>
        <time>2022-05-21 02:52:04</time>
      </trkpt>
      <trkpt lat="41.93587" lon="2.31465">
        <ele>540.6</ele>
        <time>2022-05-21 02:52:05</time>
      </trkpt>
      <trkpt lat="41.93589" lon="2.31472">
        <ele>540.6</ele>
        <time>2022-05-21 02:52:06</time>
      </trkpt>
      <trkpt lat="41.9359" lon="2.31478">
        <ele>540.8</ele>
        <time>2022-05-21 02:52:07</time>
      </trkpt>
      <trkpt lat="41.93591" lon="2.31484">
        <ele>540.8</ele>
        <time>2022-05-21 02:52:08</time>
      </trkpt>
      <trkpt lat="41.93592" lon="2.31491">
        <ele>541</ele>
        <time>2022-05-21 02:52:09</time>
      </trkpt>
      <trkpt lat="41.93594" lon="2.31497">
        <ele>541</ele>
        <time>2022-05-21 02:52:10</time>
      </trkpt>
      <trkpt lat="41.93595" lon="2.31504">
        <ele>541.2</ele>
        <time>2022-05-21 02:52:11</time>
      </trkpt>
      <trkpt lat="41.93596" lon="2.3151">
        <ele>541.2</ele>
        <time>2022-05-21 02:52:12</time>
      </trkpt>
      <trkpt lat="41.93598" lon="2.31517">
        <ele>541.2</ele>
        <time>2022-05-21 02:52:13</time>
      </trkpt>
      <trkpt lat="41.93599" lon="2.31523">
        <ele>541.4</ele>
        <time>2022-05-21 02:52:14</time>
      </trkpt>
      <trkpt lat="41.936" lon="2.31529">
        <ele>541.4</ele>
        <time>2022-05-21 02:52:15</time>
      </trkpt>
      <trkpt lat="41.93601" lon="2.31536">
        <ele>541.4</ele>
        <time>2022-05-21 02:52:16</time>
      </trkpt>
      <trkpt lat="41.93603" lon="2.31542">
        <ele>541.4</ele>
        <time>2022-05-21 02:52:17</time>
      </trkpt>
      <trkpt lat="41.93604" lon="2.31549">
        <ele>541.4</ele>
        <time>2022-05-21 02:52:18</time>
      </trkpt>
      <trkpt lat="41.93605" lon="2.31555">
        <ele>541.4</ele>
        <time>2022-05-21 02:52:19</time>
      </trkpt>
      <trkpt lat="41.93607" lon="2.31562">
        <ele>541.4</ele>
        <time>2022-05-21 02:52:20</time>
      </trkpt>
      <trkpt lat="41.93608" lon="2.31568">
        <ele>541.4</ele>
        <time>2022-05-21 02:52:21</time>
      </trkpt>
      <trkpt lat="41.93609" lon="2.31575">
        <ele>541.4</ele>
        <time>2022-05-21 02:52:22</time>
      </trkpt>
      <trkpt lat="41.9361" lon="2.31582">
        <ele>541.6</ele>
        <time>2022-05-21 02:52:23</time>
      </trkpt>
      <trkpt lat="41.93612" lon="2.31588">
        <ele>541.4</ele>
        <time>2022-05-21 02:52:24</time>
      </trkpt>
      <trkpt lat="41.93613" lon="2.31595">
        <ele>541.4</ele>
        <time>2022-05-21 02:52:25</time>
      </trkpt>
      <trkpt lat="41.93614" lon="2.31602">
        <ele>541.4</ele>
        <time>2022-05-21 02:52:26</time>
      </trkpt>
      <trkpt lat="41.93616" lon="2.31608">
        <ele>541.4</ele>
        <time>2022-05-21 02:52:27</time>
      </trkpt>
      <trkpt lat="41.93617" lon="2.31615">
        <ele>541.4</ele>
        <time>2022-05-21 02:52:28</time>
      </trkpt>
      <trkpt lat="41.93619" lon="2.31621">
        <ele>541.4</ele>
        <time>2022-05-21 02:52:29</time>
      </trkpt>
      <trkpt lat="41.9362" lon="2.31628">
        <ele>541.6</ele>
        <time>2022-05-21 02:52:30</time>
      </trkpt>
      <trkpt lat="41.93622" lon="2.31634">
        <ele>541.6</ele>
        <time>2022-05-21 02:52:31</time>
      </trkpt>
      <trkpt lat="41.93623" lon="2.31641">
        <ele>541.6</ele>
        <time>2022-05-21 02:52:32</time>
      </trkpt>
      <trkpt lat="41.93624" lon="2.31647">
        <ele>541.6</ele>
        <time>2022-05-21 02:52:33</time>
      </trkpt>
      <trkpt lat="41.93626" lon="2.31653">
        <ele>541.6</ele>
        <time>2022-05-21 02:52:34</time>
      </trkpt>
      <trkpt lat="41.93627" lon="2.3166">
        <ele>541.6</ele>
        <time>2022-05-21 02:52:35</time>
      </trkpt>
      <trkpt lat="41.93628" lon="2.31667">
        <ele>541.6</ele>
        <time>2022-05-21 02:52:36</time>
      </trkpt>
      <trkpt lat="41.93628" lon="2.31674">
        <ele>541.6</ele>
        <time>2022-05-21 02:52:37</time>
      </trkpt>
      <trkpt lat="41.93629" lon="2.31681">
        <ele>541.6</ele>
        <time>2022-05-21 02:52:38</time>
      </trkpt>
      <trkpt lat="41.93631" lon="2.31688">
        <ele>541.4</ele>
        <time>2022-05-21 02:52:39</time>
      </trkpt>
      <trkpt lat="41.93633" lon="2.31695">
        <ele>541.4</ele>
        <time>2022-05-21 02:52:40</time>
      </trkpt>
      <trkpt lat="41.93634" lon="2.31702">
        <ele>541.4</ele>
        <time>2022-05-21 02:52:41</time>
      </trkpt>
      <trkpt lat="41.93635" lon="2.3171">
        <ele>541.2</ele>
        <time>2022-05-21 02:52:42</time>
      </trkpt>
      <trkpt lat="41.93636" lon="2.31717">
        <ele>541.2</ele>
        <time>2022-05-21 02:52:43</time>
      </trkpt>
      <trkpt lat="41.93637" lon="2.31725">
        <ele>541</ele>
        <time>2022-05-21 02:52:44</time>
      </trkpt>
      <trkpt lat="41.93639" lon="2.31732">
        <ele>540.8</ele>
        <time>2022-05-21 02:52:45</time>
      </trkpt>
      <trkpt lat="41.9364" lon="2.3174">
        <ele>540.8</ele>
        <time>2022-05-21 02:52:46</time>
      </trkpt>
      <trkpt lat="41.93642" lon="2.31748">
        <ele>540.6</ele>
        <time>2022-05-21 02:52:47</time>
      </trkpt>
      <trkpt lat="41.93643" lon="2.31756">
        <ele>540.4</ele>
        <time>2022-05-21 02:52:48</time>
      </trkpt>
      <trkpt lat="41.93644" lon="2.31764">
        <ele>540.2</ele>
        <time>2022-05-21 02:52:49</time>
      </trkpt>
      <trkpt lat="41.93645" lon="2.31772">
        <ele>540</ele>
        <time>2022-05-21 02:52:50</time>
      </trkpt>
      <trkpt lat="41.93646" lon="2.31781">
        <ele>540</ele>
        <time>2022-05-21 02:52:51</time>
      </trkpt>
      <trkpt lat="41.93647" lon="2.31789">
        <ele>539.8</ele>
        <time>2022-05-21 02:52:52</time>
      </trkpt>
      <trkpt lat="41.93647" lon="2.31797">
        <ele>539.6</ele>
        <time>2022-05-21 02:52:53</time>
      </trkpt>
      <trkpt lat="41.93647" lon="2.31806">
        <ele>539.4</ele>
        <time>2022-05-21 02:52:54</time>
      </trkpt>
      <trkpt lat="41.93648" lon="2.31815">
        <ele>539.4</ele>
        <time>2022-05-21 02:52:55</time>
      </trkpt>
      <trkpt lat="41.93648" lon="2.31825">
        <ele>539.2</ele>
        <time>2022-05-21 02:52:56</time>
      </trkpt>
      <trkpt lat="41.93647" lon="2.31834">
        <ele>539</ele>
        <time>2022-05-21 02:52:57</time>
      </trkpt>
      <trkpt lat="41.93647" lon="2.31843">
        <ele>538.8</ele>
        <time>2022-05-21 02:52:58</time>
      </trkpt>
      <trkpt lat="41.93647" lon="2.31852">
        <ele>538.6</ele>
        <time>2022-05-21 02:52:59</time>
      </trkpt>
      <trkpt lat="41.93647" lon="2.31862">
        <ele>538.4</ele>
        <time>2022-05-21 02:53:00</time>
      </trkpt>
      <trkpt lat="41.93647" lon="2.31871">
        <ele>538.2</ele>
        <time>2022-05-21 02:53:01</time>
      </trkpt>
      <trkpt lat="41.93647" lon="2.31881">
        <ele>538.2</ele>
        <time>2022-05-21 02:53:02</time>
      </trkpt>
      <trkpt lat="41.93647" lon="2.31891">
        <ele>538</ele>
        <time>2022-05-21 02:53:03</time>
      </trkpt>
      <trkpt lat="41.93647" lon="2.319">
        <ele>537.8</ele>
        <time>2022-05-21 02:53:04</time>
      </trkpt>
      <trkpt lat="41.93647" lon="2.31909">
        <ele>537.8</ele>
        <time>2022-05-21 02:53:05</time>
      </trkpt>
      <trkpt lat="41.93647" lon="2.31918">
        <ele>537.6</ele>
        <time>2022-05-21 02:53:06</time>
      </trkpt>
      <trkpt lat="41.93648" lon="2.31928">
        <ele>537.6</ele>
        <time>2022-05-21 02:53:07</time>
      </trkpt>
      <trkpt lat="41.93648" lon="2.31937">
        <ele>537.6</ele>
        <time>2022-05-21 02:53:08</time>
      </trkpt>
      <trkpt lat="41.93649" lon="2.31945">
        <ele>537.6</ele>
        <time>2022-05-21 02:53:09</time>
      </trkpt>
      <trkpt lat="41.93649" lon="2.31954">
        <ele>537.6</ele>
        <time>2022-05-21 02:53:10</time>
      </trkpt>
      <trkpt lat="41.93649" lon="2.31962">
        <ele>537.6</ele>
        <time>2022-05-21 02:53:11</time>
      </trkpt>
      <trkpt lat="41.93649" lon="2.3197">
        <ele>537.6</ele>
        <time>2022-05-21 02:53:12</time>
      </trkpt>
      <trkpt lat="41.93649" lon="2.31978">
        <ele>537.6</ele>
        <time>2022-05-21 02:53:13</time>
      </trkpt>
      <trkpt lat="41.93649" lon="2.31986">
        <ele>537.8</ele>
        <time>2022-05-21 02:53:14</time>
      </trkpt>
      <trkpt lat="41.93648" lon="2.31994">
        <ele>537.8</ele>
        <time>2022-05-21 02:53:15</time>
      </trkpt>
      <trkpt lat="41.93647" lon="2.32002">
        <ele>538</ele>
        <time>2022-05-21 02:53:16</time>
      </trkpt>
      <trkpt lat="41.93647" lon="2.3201">
        <ele>538</ele>
        <time>2022-05-21 02:53:17</time>
      </trkpt>
      <trkpt lat="41.93647" lon="2.32017">
        <ele>538.2</ele>
        <time>2022-05-21 02:53:18</time>
      </trkpt>
      <trkpt lat="41.93647" lon="2.32025">
        <ele>538.4</ele>
        <time>2022-05-21 02:53:19</time>
      </trkpt>
      <trkpt lat="41.93647" lon="2.32032">
        <ele>538.4</ele>
        <time>2022-05-21 02:53:20</time>
      </trkpt>
      <trkpt lat="41.93647" lon="2.32039">
        <ele>538.6</ele>
        <time>2022-05-21 02:53:21</time>
      </trkpt>
      <trkpt lat="41.93647" lon="2.32046">
        <ele>538.6</ele>
        <time>2022-05-21 02:53:22</time>
      </trkpt>
      <trkpt lat="41.93647" lon="2.32053">
        <ele>538.8</ele>
        <time>2022-05-21 02:53:23</time>
      </trkpt>
      <trkpt lat="41.93646" lon="2.32061">
        <ele>539</ele>
        <time>2022-05-21 02:53:24</time>
      </trkpt>
      <trkpt lat="41.93645" lon="2.32068">
        <ele>539</ele>
        <time>2022-05-21 02:53:25</time>
      </trkpt>
      <trkpt lat="41.93645" lon="2.32075">
        <ele>539.2</ele>
        <time>2022-05-21 02:53:26</time>
      </trkpt>
      <trkpt lat="41.93644" lon="2.32082">
        <ele>539.4</ele>
        <time>2022-05-21 02:53:27</time>
      </trkpt>
      <trkpt lat="41.93643" lon="2.32089">
        <ele>539.4</ele>
        <time>2022-05-21 02:53:28</time>
      </trkpt>
      <trkpt lat="41.93642" lon="2.32096">
        <ele>539.6</ele>
        <time>2022-05-21 02:53:29</time>
      </trkpt>
      <trkpt lat="41.93641" lon="2.32103">
        <ele>539.6</ele>
        <time>2022-05-21 02:53:30</time>
      </trkpt>
      <trkpt lat="41.9364" lon="2.32109">
        <ele>539.8</ele>
        <time>2022-05-21 02:53:31</time>
      </trkpt>
      <trkpt lat="41.93639" lon="2.32115">
        <ele>540</ele>
        <time>2022-05-21 02:53:32</time>
      </trkpt>
      <trkpt lat="41.93638" lon="2.3212">
        <ele>540</ele>
        <time>2022-05-21 02:53:33</time>
      </trkpt>
      <trkpt lat="41.93637" lon="2.32124">
        <ele>540.2</ele>
        <time>2022-05-21 02:53:34</time>
      </trkpt>
      <trkpt lat="41.93636" lon="2.3213">
        <ele>540.4</ele>
        <time>2022-05-21 02:53:35</time>
      </trkpt>
      <trkpt lat="41.93635" lon="2.32136">
        <ele>540.6</ele>
        <time>2022-05-21 02:53:36</time>
      </trkpt>
      <trkpt lat="41.93634" lon="2.32141">
        <ele>540.8</ele>
        <time>2022-05-21 02:53:37</time>
      </trkpt>
      <trkpt lat="41.93633" lon="2.32147">
        <ele>540.8</ele>
        <time>2022-05-21 02:53:38</time>
      </trkpt>
      <trkpt lat="41.93631" lon="2.32153">
        <ele>541</ele>
        <time>2022-05-21 02:53:39</time>
      </trkpt>
      <trkpt lat="41.9363" lon="2.32159">
        <ele>541.2</ele>
        <time>2022-05-21 02:53:40</time>
      </trkpt>
      <trkpt lat="41.93629" lon="2.32166">
        <ele>541.2</ele>
        <time>2022-05-21 02:53:41</time>
      </trkpt>
      <trkpt lat="41.93629" lon="2.32172">
        <ele>541.4</ele>
        <time>2022-05-21 02:53:42</time>
      </trkpt>
      <trkpt lat="41.93629" lon="2.32178">
        <ele>541.4</ele>
        <time>2022-05-21 02:53:43</time>
      </trkpt>
      <trkpt lat="41.93628" lon="2.32184">
        <ele>541.6</ele>
        <time>2022-05-21 02:53:44</time>
      </trkpt>
      <trkpt lat="41.93628" lon="2.3219">
        <ele>541.6</ele>
        <time>2022-05-21 02:53:45</time>
      </trkpt>
      <trkpt lat="41.93628" lon="2.32196">
        <ele>541.8</ele>
        <time>2022-05-21 02:53:46</time>
      </trkpt>
      <trkpt lat="41.93628" lon="2.32202">
        <ele>541.8</ele>
        <time>2022-05-21 02:53:47</time>
      </trkpt>
      <trkpt lat="41.93627" lon="2.32208">
        <ele>542</ele>
        <time>2022-05-21 02:53:48</time>
      </trkpt>
      <trkpt lat="41.93626" lon="2.32214">
        <ele>542</ele>
        <time>2022-05-21 02:53:49</time>
      </trkpt>
      <trkpt lat="41.93626" lon="2.3222">
        <ele>542.2</ele>
        <time>2022-05-21 02:53:50</time>
      </trkpt>
      <trkpt lat="41.93626" lon="2.32226">
        <ele>542.4</ele>
        <time>2022-05-21 02:53:51</time>
      </trkpt>
      <trkpt lat="41.93626" lon="2.32232">
        <ele>542.4</ele>
        <time>2022-05-21 02:53:52</time>
      </trkpt>
      <trkpt lat="41.93627" lon="2.32238">
        <ele>542.6</ele>
        <time>2022-05-21 02:53:53</time>
      </trkpt>
      <trkpt lat="41.93628" lon="2.32244">
        <ele>542.6</ele>
        <time>2022-05-21 02:53:54</time>
      </trkpt>
      <trkpt lat="41.93629" lon="2.3225">
        <ele>542.8</ele>
        <time>2022-05-21 02:53:55</time>
      </trkpt>
      <trkpt lat="41.9363" lon="2.32255">
        <ele>542.8</ele>
        <time>2022-05-21 02:53:56</time>
      </trkpt>
      <trkpt lat="41.93633" lon="2.32261">
        <ele>543</ele>
        <time>2022-05-21 02:53:57</time>
      </trkpt>
      <trkpt lat="41.93635" lon="2.32266">
        <ele>543.2</ele>
        <time>2022-05-21 02:53:58</time>
      </trkpt>
      <trkpt lat="41.93637" lon="2.32271">
        <ele>543.2</ele>
        <time>2022-05-21 02:53:59</time>
      </trkpt>
      <trkpt lat="41.9364" lon="2.32275">
        <ele>543.4</ele>
        <time>2022-05-21 02:54:00</time>
      </trkpt>
      <trkpt lat="41.93642" lon="2.32278">
        <ele>543.6</ele>
        <time>2022-05-21 02:54:01</time>
      </trkpt>
      <trkpt lat="41.93645" lon="2.32282">
        <ele>543.8</ele>
        <time>2022-05-21 02:54:02</time>
      </trkpt>
      <trkpt lat="41.93648" lon="2.32285">
        <ele>544</ele>
        <time>2022-05-21 02:54:03</time>
      </trkpt>
      <trkpt lat="41.93651" lon="2.32288">
        <ele>544</ele>
        <time>2022-05-21 02:54:04</time>
      </trkpt>
      <trkpt lat="41.93653" lon="2.32291">
        <ele>544.2</ele>
        <time>2022-05-21 02:54:05</time>
      </trkpt>
      <trkpt lat="41.93656" lon="2.32293">
        <ele>544.4</ele>
        <time>2022-05-21 02:54:06</time>
      </trkpt>
      <trkpt lat="41.93659" lon="2.32296">
        <ele>544.6</ele>
        <time>2022-05-21 02:54:07</time>
      </trkpt>
      <trkpt lat="41.93662" lon="2.32299">
        <ele>544.8</ele>
        <time>2022-05-21 02:54:08</time>
      </trkpt>
      <trkpt lat="41.93665" lon="2.32301">
        <ele>544.8</ele>
        <time>2022-05-21 02:54:09</time>
      </trkpt>
      <trkpt lat="41.93668" lon="2.32304">
        <ele>545</ele>
        <time>2022-05-21 02:54:10</time>
      </trkpt>
      <trkpt lat="41.93669" lon="2.32305">
        <ele>545.2</ele>
        <time>2022-05-21 02:54:11</time>
      </trkpt>
      <trkpt lat="41.93668" lon="2.32305">
        <ele>545.4</ele>
        <time>2022-05-21 02:54:12</time>
      </trkpt>
      <trkpt lat="41.93667" lon="2.32304">
        <ele>545.4</ele>
        <time>2022-05-21 02:54:13</time>
      </trkpt>
      <trkpt lat="41.93671" lon="2.32308">
        <ele>545.6</ele>
        <time>2022-05-21 02:54:14</time>
      </trkpt>
      <trkpt lat="41.93677" lon="2.32314">
        <ele>545.8</ele>
        <time>2022-05-21 02:54:15</time>
      </trkpt>
      <trkpt lat="41.9368" lon="2.32318">
        <ele>545.8</ele>
        <time>2022-05-21 02:54:16</time>
      </trkpt>
      <trkpt lat="41.93683" lon="2.32322">
        <ele>546</ele>
        <time>2022-05-21 02:54:17</time>
      </trkpt>
      <trkpt lat="41.93687" lon="2.32326">
        <ele>546.2</ele>
        <time>2022-05-21 02:54:18</time>
      </trkpt>
      <trkpt lat="41.93691" lon="2.32329">
        <ele>546.2</ele>
        <time>2022-05-21 02:54:19</time>
      </trkpt>
      <trkpt lat="41.93695" lon="2.32332">
        <ele>546.4</ele>
        <time>2022-05-21 02:54:20</time>
      </trkpt>
      <trkpt lat="41.93698" lon="2.32334">
        <ele>546.6</ele>
        <time>2022-05-21 02:54:21</time>
      </trkpt>
      <trkpt lat="41.93702" lon="2.32336">
        <ele>546.8</ele>
        <time>2022-05-21 02:54:22</time>
      </trkpt>
      <trkpt lat="41.93705" lon="2.32339">
        <ele>547</ele>
        <time>2022-05-21 02:54:23</time>
      </trkpt>
      <trkpt lat="41.93708" lon="2.32341">
        <ele>547</ele>
        <time>2022-05-21 02:54:24</time>
      </trkpt>
      <trkpt lat="41.93711" lon="2.32343">
        <ele>547.2</ele>
        <time>2022-05-21 02:54:25</time>
      </trkpt>
      <trkpt lat="41.93715" lon="2.32346">
        <ele>547.4</ele>
        <time>2022-05-21 02:54:26</time>
      </trkpt>
      <trkpt lat="41.93718" lon="2.32348">
        <ele>547.6</ele>
        <time>2022-05-21 02:54:27</time>
      </trkpt>
      <trkpt lat="41.93721" lon="2.3235">
        <ele>547.6</ele>
        <time>2022-05-21 02:54:28</time>
      </trkpt>
      <trkpt lat="41.93724" lon="2.32351">
        <ele>547.8</ele>
        <time>2022-05-21 02:54:29</time>
      </trkpt>
      <trkpt lat="41.93728" lon="2.32353">
        <ele>548</ele>
        <time>2022-05-21 02:54:30</time>
      </trkpt>
      <trkpt lat="41.93731" lon="2.32355">
        <ele>548</ele>
        <time>2022-05-21 02:54:31</time>
      </trkpt>
      <trkpt lat="41.93733" lon="2.32358">
        <ele>548.2</ele>
        <time>2022-05-21 02:54:32</time>
      </trkpt>
      <trkpt lat="41.93736" lon="2.32359">
        <ele>548.4</ele>
        <time>2022-05-21 02:54:33</time>
      </trkpt>
      <trkpt lat="41.93739" lon="2.32361">
        <ele>548.6</ele>
        <time>2022-05-21 02:54:34</time>
      </trkpt>
      <trkpt lat="41.93742" lon="2.32363">
        <ele>548.6</ele>
        <time>2022-05-21 02:54:35</time>
      </trkpt>
      <trkpt lat="41.93745" lon="2.32365">
        <ele>548.8</ele>
        <time>2022-05-21 02:54:36</time>
      </trkpt>
      <trkpt lat="41.93748" lon="2.32367">
        <ele>548.8</ele>
        <time>2022-05-21 02:54:37</time>
      </trkpt>
      <trkpt lat="41.93752" lon="2.3237">
        <ele>549</ele>
        <time>2022-05-21 02:54:38</time>
      </trkpt>
      <trkpt lat="41.93754" lon="2.32372">
        <ele>549.2</ele>
        <time>2022-05-21 02:54:39</time>
      </trkpt>
      <trkpt lat="41.93757" lon="2.32376">
        <ele>549.2</ele>
        <time>2022-05-21 02:54:40</time>
      </trkpt>
      <trkpt lat="41.9376" lon="2.32379">
        <ele>549.4</ele>
        <time>2022-05-21 02:54:41</time>
      </trkpt>
      <trkpt lat="41.93762" lon="2.32383">
        <ele>549.4</ele>
        <time>2022-05-21 02:54:42</time>
      </trkpt>
      <trkpt lat="41.93764" lon="2.32386">
        <ele>549.6</ele>
        <time>2022-05-21 02:54:43</time>
      </trkpt>
      <trkpt lat="41.93766" lon="2.3239">
        <ele>549.8</ele>
        <time>2022-05-21 02:54:44</time>
      </trkpt>
      <trkpt lat="41.93769" lon="2.32394">
        <ele>549.8</ele>
        <time>2022-05-21 02:54:45</time>
      </trkpt>
      <trkpt lat="41.93771" lon="2.32397">
        <ele>550</ele>
        <time>2022-05-21 02:54:46</time>
      </trkpt>
      <trkpt lat="41.93773" lon="2.32401">
        <ele>550.2</ele>
        <time>2022-05-21 02:54:47</time>
      </trkpt>
      <trkpt lat="41.93775" lon="2.32405">
        <ele>550.4</ele>
        <time>2022-05-21 02:54:48</time>
      </trkpt>
      <trkpt lat="41.93777" lon="2.3241">
        <ele>550.4</ele>
        <time>2022-05-21 02:54:49</time>
      </trkpt>
      <trkpt lat="41.93779" lon="2.32414">
        <ele>550.6</ele>
        <time>2022-05-21 02:54:50</time>
      </trkpt>
      <trkpt lat="41.93782" lon="2.32418">
        <ele>550.8</ele>
        <time>2022-05-21 02:54:51</time>
      </trkpt>
      <trkpt lat="41.93784" lon="2.32421">
        <ele>550.8</ele>
        <time>2022-05-21 02:54:52</time>
      </trkpt>
      <trkpt lat="41.93786" lon="2.32425">
        <ele>551</ele>
        <time>2022-05-21 02:54:53</time>
      </trkpt>
      <trkpt lat="41.93788" lon="2.3243">
        <ele>551.2</ele>
        <time>2022-05-21 02:54:54</time>
      </trkpt>
      <trkpt lat="41.9379" lon="2.32434">
        <ele>551.4</ele>
        <time>2022-05-21 02:54:55</time>
      </trkpt>
      <trkpt lat="41.93792" lon="2.32438">
        <ele>551.4</ele>
        <time>2022-05-21 02:54:56</time>
      </trkpt>
      <trkpt lat="41.93794" lon="2.32442">
        <ele>551.6</ele>
        <time>2022-05-21 02:54:57</time>
      </trkpt>
      <trkpt lat="41.93796" lon="2.32447">
        <ele>551.8</ele>
        <time>2022-05-21 02:54:58</time>
      </trkpt>
      <trkpt lat="41.93798" lon="2.32451">
        <ele>551.8</ele>
        <time>2022-05-21 02:54:59</time>
      </trkpt>
      <trkpt lat="41.938" lon="2.32455">
        <ele>552</ele>
        <time>2022-05-21 02:55:00</time>
      </trkpt>
      <trkpt lat="41.93801" lon="2.32458">
        <ele>552.2</ele>
        <time>2022-05-21 02:55:01</time>
      </trkpt>
      <trkpt lat="41.93804" lon="2.32464">
        <ele>552.2</ele>
        <time>2022-05-21 02:55:02</time>
      </trkpt>
      <trkpt lat="41.93806" lon="2.32468">
        <ele>552.4</ele>
        <time>2022-05-21 02:55:03</time>
      </trkpt>
      <trkpt lat="41.93808" lon="2.32473">
        <ele>552.6</ele>
        <time>2022-05-21 02:55:04</time>
      </trkpt>
      <trkpt lat="41.9381" lon="2.32477">
        <ele>552.6</ele>
        <time>2022-05-21 02:55:05</time>
      </trkpt>
      <trkpt lat="41.93812" lon="2.32481">
        <ele>552.8</ele>
        <time>2022-05-21 02:55:06</time>
      </trkpt>
      <trkpt lat="41.93814" lon="2.32485">
        <ele>553</ele>
        <time>2022-05-21 02:55:07</time>
      </trkpt>
      <trkpt lat="41.93816" lon="2.32489">
        <ele>553.2</ele>
        <time>2022-05-21 02:55:08</time>
      </trkpt>
      <trkpt lat="41.93818" lon="2.32493">
        <ele>553.2</ele>
        <time>2022-05-21 02:55:09</time>
      </trkpt>
      <trkpt lat="41.9382" lon="2.32497">
        <ele>553.4</ele>
        <time>2022-05-21 02:55:10</time>
      </trkpt>
      <trkpt lat="41.93822" lon="2.32502">
        <ele>553.6</ele>
        <time>2022-05-21 02:55:11</time>
      </trkpt>
      <trkpt lat="41.93824" lon="2.32506">
        <ele>553.6</ele>
        <time>2022-05-21 02:55:12</time>
      </trkpt>
      <trkpt lat="41.93826" lon="2.32511">
        <ele>553.8</ele>
        <time>2022-05-21 02:55:13</time>
      </trkpt>
      <trkpt lat="41.93827" lon="2.32515">
        <ele>554</ele>
        <time>2022-05-21 02:55:14</time>
      </trkpt>
      <trkpt lat="41.93829" lon="2.32519">
        <ele>554</ele>
        <time>2022-05-21 02:55:15</time>
      </trkpt>
      <trkpt lat="41.93832" lon="2.32523">
        <ele>554.2</ele>
        <time>2022-05-21 02:55:16</time>
      </trkpt>
      <trkpt lat="41.93834" lon="2.32527">
        <ele>554.4</ele>
        <time>2022-05-21 02:55:17</time>
      </trkpt>
      <trkpt lat="41.93836" lon="2.32532">
        <ele>554.6</ele>
        <time>2022-05-21 02:55:18</time>
      </trkpt>
      <trkpt lat="41.93838" lon="2.32536">
        <ele>554.6</ele>
        <time>2022-05-21 02:55:19</time>
      </trkpt>
      <trkpt lat="41.9384" lon="2.3254">
        <ele>554.8</ele>
        <time>2022-05-21 02:55:20</time>
      </trkpt>
      <trkpt lat="41.93842" lon="2.32545">
        <ele>555</ele>
        <time>2022-05-21 02:55:21</time>
      </trkpt>
      <trkpt lat="41.93843" lon="2.32549">
        <ele>555</ele>
        <time>2022-05-21 02:55:22</time>
      </trkpt>
      <trkpt lat="41.93845" lon="2.32553">
        <ele>555.2</ele>
        <time>2022-05-21 02:55:23</time>
      </trkpt>
      <trkpt lat="41.93847" lon="2.32558">
        <ele>555.2</ele>
        <time>2022-05-21 02:55:24</time>
      </trkpt>
      <trkpt lat="41.93849" lon="2.32562">
        <ele>555.4</ele>
        <time>2022-05-21 02:55:25</time>
      </trkpt>
      <trkpt lat="41.93851" lon="2.32567">
        <ele>555.4</ele>
        <time>2022-05-21 02:55:26</time>
      </trkpt>
      <trkpt lat="41.93853" lon="2.32572">
        <ele>555.6</ele>
        <time>2022-05-21 02:55:27</time>
      </trkpt>
      <trkpt lat="41.93856" lon="2.32576">
        <ele>555.6</ele>
        <time>2022-05-21 02:55:28</time>
      </trkpt>
      <trkpt lat="41.93858" lon="2.32581">
        <ele>555.6</ele>
        <time>2022-05-21 02:55:29</time>
      </trkpt>
      <trkpt lat="41.9386" lon="2.32586">
        <ele>555.8</ele>
        <time>2022-05-21 02:55:30</time>
      </trkpt>
      <trkpt lat="41.93862" lon="2.3259">
        <ele>555.8</ele>
        <time>2022-05-21 02:55:31</time>
      </trkpt>
      <trkpt lat="41.93864" lon="2.32595">
        <ele>555.8</ele>
        <time>2022-05-21 02:55:32</time>
      </trkpt>
      <trkpt lat="41.93866" lon="2.326">
        <ele>556</ele>
        <time>2022-05-21 02:55:33</time>
      </trkpt>
      <trkpt lat="41.93868" lon="2.32605">
        <ele>556</ele>
        <time>2022-05-21 02:55:34</time>
      </trkpt>
      <trkpt lat="41.93871" lon="2.3261">
        <ele>556</ele>
        <time>2022-05-21 02:55:35</time>
      </trkpt>
      <trkpt lat="41.93873" lon="2.32615">
        <ele>556</ele>
        <time>2022-05-21 02:55:36</time>
      </trkpt>
      <trkpt lat="41.93875" lon="2.3262">
        <ele>556.2</ele>
        <time>2022-05-21 02:55:37</time>
      </trkpt>
      <trkpt lat="41.93877" lon="2.32625">
        <ele>556.2</ele>
        <time>2022-05-21 02:55:38</time>
      </trkpt>
      <trkpt lat="41.93879" lon="2.3263">
        <ele>556.2</ele>
        <time>2022-05-21 02:55:39</time>
      </trkpt>
      <trkpt lat="41.93882" lon="2.32635">
        <ele>556.4</ele>
        <time>2022-05-21 02:55:40</time>
      </trkpt>
      <trkpt lat="41.93884" lon="2.3264">
        <ele>556.4</ele>
        <time>2022-05-21 02:55:41</time>
      </trkpt>
      <trkpt lat="41.93886" lon="2.32645">
        <ele>556.6</ele>
        <time>2022-05-21 02:55:42</time>
      </trkpt>
      <trkpt lat="41.93888" lon="2.3265">
        <ele>556.6</ele>
        <time>2022-05-21 02:55:43</time>
      </trkpt>
      <trkpt lat="41.9389" lon="2.32654">
        <ele>556.6</ele>
        <time>2022-05-21 02:55:44</time>
      </trkpt>
      <trkpt lat="41.93892" lon="2.32659">
        <ele>556.8</ele>
        <time>2022-05-21 02:55:45</time>
      </trkpt>
      <trkpt lat="41.93894" lon="2.32664">
        <ele>556.8</ele>
        <time>2022-05-21 02:55:46</time>
      </trkpt>
      <trkpt lat="41.93896" lon="2.32669">
        <ele>557</ele>
        <time>2022-05-21 02:55:47</time>
      </trkpt>
      <trkpt lat="41.93898" lon="2.32674">
        <ele>557</ele>
        <time>2022-05-21 02:55:48</time>
      </trkpt>
      <trkpt lat="41.93901" lon="2.32679">
        <ele>557</ele>
        <time>2022-05-21 02:55:49</time>
      </trkpt>
      <trkpt lat="41.93903" lon="2.32683">
        <ele>557.2</ele>
        <time>2022-05-21 02:55:50</time>
      </trkpt>
      <trkpt lat="41.93905" lon="2.32688">
        <ele>557.2</ele>
        <time>2022-05-21 02:55:51</time>
      </trkpt>
      <trkpt lat="41.93907" lon="2.32693">
        <ele>557.4</ele>
        <time>2022-05-21 02:55:52</time>
      </trkpt>
      <trkpt lat="41.93909" lon="2.32697">
        <ele>557.4</ele>
        <time>2022-05-21 02:55:53</time>
      </trkpt>
      <trkpt lat="41.93912" lon="2.32702">
        <ele>557.6</ele>
        <time>2022-05-21 02:55:54</time>
      </trkpt>
      <trkpt lat="41.93914" lon="2.32707">
        <ele>557.6</ele>
        <time>2022-05-21 02:55:55</time>
      </trkpt>
      <trkpt lat="41.93916" lon="2.32712">
        <ele>557.8</ele>
        <time>2022-05-21 02:55:56</time>
      </trkpt>
      <trkpt lat="41.93918" lon="2.32717">
        <ele>558</ele>
        <time>2022-05-21 02:55:57</time>
      </trkpt>
      <trkpt lat="41.93921" lon="2.32722">
        <ele>558</ele>
        <time>2022-05-21 02:55:58</time>
      </trkpt>
      <trkpt lat="41.93922" lon="2.32726">
        <ele>558.2</ele>
        <time>2022-05-21 02:55:59</time>
      </trkpt>
      <trkpt lat="41.93924" lon="2.32731">
        <ele>558.4</ele>
        <time>2022-05-21 02:56:00</time>
      </trkpt>
      <trkpt lat="41.93926" lon="2.32735">
        <ele>558.4</ele>
        <time>2022-05-21 02:56:01</time>
      </trkpt>
      <trkpt lat="41.93929" lon="2.32741">
        <ele>558.6</ele>
        <time>2022-05-21 02:56:02</time>
      </trkpt>
      <trkpt lat="41.9393" lon="2.32745">
        <ele>558.8</ele>
        <time>2022-05-21 02:56:03</time>
      </trkpt>
      <trkpt lat="41.93932" lon="2.3275">
        <ele>558.8</ele>
        <time>2022-05-21 02:56:04</time>
      </trkpt>
      <trkpt lat="41.93935" lon="2.32754">
        <ele>559</ele>
        <time>2022-05-21 02:56:05</time>
      </trkpt>
      <trkpt lat="41.93937" lon="2.32759">
        <ele>559</ele>
        <time>2022-05-21 02:56:06</time>
      </trkpt>
      <trkpt lat="41.93938" lon="2.32763">
        <ele>559.2</ele>
        <time>2022-05-21 02:56:07</time>
      </trkpt>
      <trkpt lat="41.9394" lon="2.32768">
        <ele>559.2</ele>
        <time>2022-05-21 02:56:08</time>
      </trkpt>
      <trkpt lat="41.93942" lon="2.32772">
        <ele>559.4</ele>
        <time>2022-05-21 02:56:09</time>
      </trkpt>
      <trkpt lat="41.93944" lon="2.32777">
        <ele>559.6</ele>
        <time>2022-05-21 02:56:10</time>
      </trkpt>
      <trkpt lat="41.93946" lon="2.32781">
        <ele>559.6</ele>
        <time>2022-05-21 02:56:11</time>
      </trkpt>
      <trkpt lat="41.93948" lon="2.32786">
        <ele>559.8</ele>
        <time>2022-05-21 02:56:12</time>
      </trkpt>
      <trkpt lat="41.9395" lon="2.3279">
        <ele>559.8</ele>
        <time>2022-05-21 02:56:13</time>
      </trkpt>
      <trkpt lat="41.93953" lon="2.32795">
        <ele>560</ele>
        <time>2022-05-21 02:56:14</time>
      </trkpt>
      <trkpt lat="41.93954" lon="2.328">
        <ele>560</ele>
        <time>2022-05-21 02:56:15</time>
      </trkpt>
      <trkpt lat="41.93957" lon="2.32804">
        <ele>560.2</ele>
        <time>2022-05-21 02:56:16</time>
      </trkpt>
      <trkpt lat="41.93959" lon="2.32809">
        <ele>560.4</ele>
        <time>2022-05-21 02:56:17</time>
      </trkpt>
      <trkpt lat="41.93961" lon="2.32813">
        <ele>560.4</ele>
        <time>2022-05-21 02:56:18</time>
      </trkpt>
      <trkpt lat="41.93963" lon="2.32818">
        <ele>560.6</ele>
        <time>2022-05-21 02:56:19</time>
      </trkpt>
      <trkpt lat="41.93966" lon="2.32823">
        <ele>560.8</ele>
        <time>2022-05-21 02:56:20</time>
      </trkpt>
      <trkpt lat="41.93967" lon="2.32827">
        <ele>560.8</ele>
        <time>2022-05-21 02:56:21</time>
      </trkpt>
      <trkpt lat="41.93969" lon="2.32832">
        <ele>561</ele>
        <time>2022-05-21 02:56:22</time>
      </trkpt>
      <trkpt lat="41.93971" lon="2.32837">
        <ele>561.2</ele>
        <time>2022-05-21 02:56:23</time>
      </trkpt>
      <trkpt lat="41.93974" lon="2.32842">
        <ele>561.4</ele>
        <time>2022-05-21 02:56:24</time>
      </trkpt>
      <trkpt lat="41.93975" lon="2.32847">
        <ele>561.4</ele>
        <time>2022-05-21 02:56:25</time>
      </trkpt>
      <trkpt lat="41.93977" lon="2.32852">
        <ele>561.6</ele>
        <time>2022-05-21 02:56:26</time>
      </trkpt>
      <trkpt lat="41.9398" lon="2.32856">
        <ele>561.8</ele>
        <time>2022-05-21 02:56:27</time>
      </trkpt>
      <trkpt lat="41.93982" lon="2.3286">
        <ele>562</ele>
        <time>2022-05-21 02:56:28</time>
      </trkpt>
      <trkpt lat="41.93984" lon="2.32865">
        <ele>562.2</ele>
        <time>2022-05-21 02:56:29</time>
      </trkpt>
      <trkpt lat="41.93986" lon="2.32869">
        <ele>562.4</ele>
        <time>2022-05-21 02:56:30</time>
      </trkpt>
      <trkpt lat="41.93988" lon="2.32873">
        <ele>562.6</ele>
        <time>2022-05-21 02:56:31</time>
      </trkpt>
      <trkpt lat="41.9399" lon="2.32878">
        <ele>562.8</ele>
        <time>2022-05-21 02:56:32</time>
      </trkpt>
      <trkpt lat="41.93991" lon="2.32882">
        <ele>563</ele>
        <time>2022-05-21 02:56:33</time>
      </trkpt>
      <trkpt lat="41.93993" lon="2.32886">
        <ele>563.2</ele>
        <time>2022-05-21 02:56:34</time>
      </trkpt>
      <trkpt lat="41.93995" lon="2.3289">
        <ele>563.4</ele>
        <time>2022-05-21 02:56:35</time>
      </trkpt>
      <trkpt lat="41.93997" lon="2.32893">
        <ele>563.6</ele>
        <time>2022-05-21 02:56:36</time>
      </trkpt>
      <trkpt lat="41.93999" lon="2.32897">
        <ele>563.8</ele>
        <time>2022-05-21 02:56:37</time>
      </trkpt>
      <trkpt lat="41.94" lon="2.32901">
        <ele>564</ele>
        <time>2022-05-21 02:56:38</time>
      </trkpt>
      <trkpt lat="41.94002" lon="2.32904">
        <ele>564.2</ele>
        <time>2022-05-21 02:56:39</time>
      </trkpt>
      <trkpt lat="41.94004" lon="2.32908">
        <ele>564.4</ele>
        <time>2022-05-21 02:56:40</time>
      </trkpt>
      <trkpt lat="41.94005" lon="2.32912">
        <ele>564.4</ele>
        <time>2022-05-21 02:56:41</time>
      </trkpt>
      <trkpt lat="41.94007" lon="2.32915">
        <ele>564.6</ele>
        <time>2022-05-21 02:56:42</time>
      </trkpt>
      <trkpt lat="41.94009" lon="2.32919">
        <ele>564.8</ele>
        <time>2022-05-21 02:56:43</time>
      </trkpt>
      <trkpt lat="41.94011" lon="2.32923">
        <ele>565</ele>
        <time>2022-05-21 02:56:44</time>
      </trkpt>
      <trkpt lat="41.94012" lon="2.32927">
        <ele>565.2</ele>
        <time>2022-05-21 02:56:45</time>
      </trkpt>
      <trkpt lat="41.94014" lon="2.3293">
        <ele>565.4</ele>
        <time>2022-05-21 02:56:46</time>
      </trkpt>
      <trkpt lat="41.94016" lon="2.32934">
        <ele>565.6</ele>
        <time>2022-05-21 02:56:47</time>
      </trkpt>
      <trkpt lat="41.94018" lon="2.32938">
        <ele>565.8</ele>
        <time>2022-05-21 02:56:48</time>
      </trkpt>
      <trkpt lat="41.9402" lon="2.32941">
        <ele>565.8</ele>
        <time>2022-05-21 02:56:49</time>
      </trkpt>
      <trkpt lat="41.94023" lon="2.32944">
        <ele>566</ele>
        <time>2022-05-21 02:56:50</time>
      </trkpt>
      <trkpt lat="41.94025" lon="2.32948">
        <ele>566.2</ele>
        <time>2022-05-21 02:56:51</time>
      </trkpt>
      <trkpt lat="41.94027" lon="2.32951">
        <ele>566.4</ele>
        <time>2022-05-21 02:56:52</time>
      </trkpt>
      <trkpt lat="41.9403" lon="2.32954">
        <ele>566.4</ele>
        <time>2022-05-21 02:56:53</time>
      </trkpt>
      <trkpt lat="41.94032" lon="2.32957">
        <ele>566.6</ele>
        <time>2022-05-21 02:56:54</time>
      </trkpt>
      <trkpt lat="41.94035" lon="2.3296">
        <ele>566.8</ele>
        <time>2022-05-21 02:56:55</time>
      </trkpt>
      <trkpt lat="41.94038" lon="2.32963">
        <ele>567</ele>
        <time>2022-05-21 02:56:56</time>
      </trkpt>
      <trkpt lat="41.9404" lon="2.32965">
        <ele>567.2</ele>
        <time>2022-05-21 02:56:57</time>
      </trkpt>
      <trkpt lat="41.94043" lon="2.32968">
        <ele>567.4</ele>
        <time>2022-05-21 02:56:58</time>
      </trkpt>
      <trkpt lat="41.94045" lon="2.3297">
        <ele>567.6</ele>
        <time>2022-05-21 02:56:59</time>
      </trkpt>
      <trkpt lat="41.94048" lon="2.32973">
        <ele>567.6</ele>
        <time>2022-05-21 02:57:00</time>
      </trkpt>
      <trkpt lat="41.9405" lon="2.32975">
        <ele>567.8</ele>
        <time>2022-05-21 02:57:01</time>
      </trkpt>
      <trkpt lat="41.94052" lon="2.32978">
        <ele>568</ele>
        <time>2022-05-21 02:57:02</time>
      </trkpt>
      <trkpt lat="41.94054" lon="2.32981">
        <ele>568.2</ele>
        <time>2022-05-21 02:57:03</time>
      </trkpt>
      <trkpt lat="41.94057" lon="2.32984">
        <ele>568.4</ele>
        <time>2022-05-21 02:57:04</time>
      </trkpt>
      <trkpt lat="41.94059" lon="2.32986">
        <ele>568.6</ele>
        <time>2022-05-21 02:57:05</time>
      </trkpt>
      <trkpt lat="41.94062" lon="2.32988">
        <ele>568.6</ele>
        <time>2022-05-21 02:57:06</time>
      </trkpt>
      <trkpt lat="41.94065" lon="2.3299">
        <ele>568.8</ele>
        <time>2022-05-21 02:57:07</time>
      </trkpt>
      <trkpt lat="41.94067" lon="2.32993">
        <ele>569</ele>
        <time>2022-05-21 02:57:08</time>
      </trkpt>
      <trkpt lat="41.9407" lon="2.32995">
        <ele>569</ele>
        <time>2022-05-21 02:57:09</time>
      </trkpt>
      <trkpt lat="41.94073" lon="2.32998">
        <ele>569.2</ele>
        <time>2022-05-21 02:57:10</time>
      </trkpt>
      <trkpt lat="41.94076" lon="2.33001">
        <ele>569.2</ele>
        <time>2022-05-21 02:57:11</time>
      </trkpt>
      <trkpt lat="41.94078" lon="2.33003">
        <ele>569.4</ele>
        <time>2022-05-21 02:57:12</time>
      </trkpt>
      <trkpt lat="41.94081" lon="2.33006">
        <ele>569.6</ele>
        <time>2022-05-21 02:57:13</time>
      </trkpt>
      <trkpt lat="41.94084" lon="2.33009">
        <ele>569.6</ele>
        <time>2022-05-21 02:57:14</time>
      </trkpt>
      <trkpt lat="41.94087" lon="2.33011">
        <ele>569.8</ele>
        <time>2022-05-21 02:57:15</time>
      </trkpt>
      <trkpt lat="41.9409" lon="2.33014">
        <ele>569.8</ele>
        <time>2022-05-21 02:57:16</time>
      </trkpt>
      <trkpt lat="41.94093" lon="2.33016">
        <ele>570</ele>
        <time>2022-05-21 02:57:17</time>
      </trkpt>
      <trkpt lat="41.94096" lon="2.33019">
        <ele>570.2</ele>
        <time>2022-05-21 02:57:18</time>
      </trkpt>
      <trkpt lat="41.94099" lon="2.33021">
        <ele>570.2</ele>
        <time>2022-05-21 02:57:19</time>
      </trkpt>
      <trkpt lat="41.94102" lon="2.33024">
        <ele>570.4</ele>
        <time>2022-05-21 02:57:20</time>
      </trkpt>
      <trkpt lat="41.94104" lon="2.33027">
        <ele>570.4</ele>
        <time>2022-05-21 02:57:21</time>
      </trkpt>
      <trkpt lat="41.94107" lon="2.3303">
        <ele>570.6</ele>
        <time>2022-05-21 02:57:22</time>
      </trkpt>
      <trkpt lat="41.9411" lon="2.33032">
        <ele>570.6</ele>
        <time>2022-05-21 02:57:23</time>
      </trkpt>
      <trkpt lat="41.94114" lon="2.33034">
        <ele>570.8</ele>
        <time>2022-05-21 02:57:24</time>
      </trkpt>
      <trkpt lat="41.94117" lon="2.33037">
        <ele>571</ele>
        <time>2022-05-21 02:57:25</time>
      </trkpt>
      <trkpt lat="41.94119" lon="2.33039">
        <ele>571</ele>
        <time>2022-05-21 02:57:26</time>
      </trkpt>
      <trkpt lat="41.94122" lon="2.33042">
        <ele>571.2</ele>
        <time>2022-05-21 02:57:27</time>
      </trkpt>
      <trkpt lat="41.94125" lon="2.33045">
        <ele>571.2</ele>
        <time>2022-05-21 02:57:28</time>
      </trkpt>
      <trkpt lat="41.94128" lon="2.33048">
        <ele>571.4</ele>
        <time>2022-05-21 02:57:29</time>
      </trkpt>
      <trkpt lat="41.9413" lon="2.3305">
        <ele>571.4</ele>
        <time>2022-05-21 02:57:30</time>
      </trkpt>
      <trkpt lat="41.94133" lon="2.33053">
        <ele>571.6</ele>
        <time>2022-05-21 02:57:31</time>
      </trkpt>
      <trkpt lat="41.94135" lon="2.33056">
        <ele>571.6</ele>
        <time>2022-05-21 02:57:32</time>
      </trkpt>
      <trkpt lat="41.94138" lon="2.33058">
        <ele>571.6</ele>
        <time>2022-05-21 02:57:33</time>
      </trkpt>
      <trkpt lat="41.94141" lon="2.33061">
        <ele>571.8</ele>
        <time>2022-05-21 02:57:34</time>
      </trkpt>
      <trkpt lat="41.94144" lon="2.33064">
        <ele>571.8</ele>
        <time>2022-05-21 02:57:35</time>
      </trkpt>
      <trkpt lat="41.94147" lon="2.33066">
        <ele>571.8</ele>
        <time>2022-05-21 02:57:36</time>
      </trkpt>
      <trkpt lat="41.9415" lon="2.33069">
        <ele>571.8</ele>
        <time>2022-05-21 02:57:37</time>
      </trkpt>
      <trkpt lat="41.94153" lon="2.33071">
        <ele>571.8</ele>
        <time>2022-05-21 02:57:38</time>
      </trkpt>
      <trkpt lat="41.94157" lon="2.33074">
        <ele>572</ele>
        <time>2022-05-21 02:57:39</time>
      </trkpt>
      <trkpt lat="41.94159" lon="2.33077">
        <ele>572</ele>
        <time>2022-05-21 02:57:40</time>
      </trkpt>
      <trkpt lat="41.94162" lon="2.3308">
        <ele>572</ele>
        <time>2022-05-21 02:57:41</time>
      </trkpt>
      <trkpt lat="41.94165" lon="2.33083">
        <ele>572</ele>
        <time>2022-05-21 02:57:42</time>
      </trkpt>
      <trkpt lat="41.94167" lon="2.33087">
        <ele>572</ele>
        <time>2022-05-21 02:57:43</time>
      </trkpt>
      <trkpt lat="41.94168" lon="2.33091">
        <ele>571.8</ele>
        <time>2022-05-21 02:57:44</time>
      </trkpt>
      <trkpt lat="41.9417" lon="2.33096">
        <ele>571.8</ele>
        <time>2022-05-21 02:57:45</time>
      </trkpt>
      <trkpt lat="41.94172" lon="2.33102">
        <ele>571.6</ele>
        <time>2022-05-21 02:57:46</time>
      </trkpt>
      <trkpt lat="41.94172" lon="2.33108">
        <ele>571.4</ele>
        <time>2022-05-21 02:57:47</time>
      </trkpt>
      <trkpt lat="41.94171" lon="2.33114">
        <ele>571.2</ele>
        <time>2022-05-21 02:57:48</time>
      </trkpt>
      <trkpt lat="41.94169" lon="2.3312">
        <ele>571</ele>
        <time>2022-05-21 02:57:49</time>
      </trkpt>
      <trkpt lat="41.94167" lon="2.33125">
        <ele>570.8</ele>
        <time>2022-05-21 02:57:50</time>
      </trkpt>
      <trkpt lat="41.94164" lon="2.33131">
        <ele>570.6</ele>
        <time>2022-05-21 02:57:51</time>
      </trkpt>
      <trkpt lat="41.94161" lon="2.33138">
        <ele>570.4</ele>
        <time>2022-05-21 02:57:52</time>
      </trkpt>
      <trkpt lat="41.94159" lon="2.33144">
        <ele>570</ele>
        <time>2022-05-21 02:57:53</time>
      </trkpt>
      <trkpt lat="41.94156" lon="2.33151">
        <ele>569.8</ele>
        <time>2022-05-21 02:57:54</time>
      </trkpt>
      <trkpt lat="41.94153" lon="2.33158">
        <ele>569.6</ele>
        <time>2022-05-21 02:57:55</time>
      </trkpt>
      <trkpt lat="41.94151" lon="2.33165">
        <ele>569.4</ele>
        <time>2022-05-21 02:57:56</time>
      </trkpt>
      <trkpt lat="41.94148" lon="2.33173">
        <ele>569.2</ele>
        <time>2022-05-21 02:57:57</time>
      </trkpt>
      <trkpt lat="41.94145" lon="2.3318">
        <ele>569</ele>
        <time>2022-05-21 02:57:58</time>
      </trkpt>
      <trkpt lat="41.94142" lon="2.33188">
        <ele>568.6</ele>
        <time>2022-05-21 02:57:59</time>
      </trkpt>
      <trkpt lat="41.9414" lon="2.33195">
        <ele>568.4</ele>
        <time>2022-05-21 02:58:00</time>
      </trkpt>
      <trkpt lat="41.94138" lon="2.33201">
        <ele>568.2</ele>
        <time>2022-05-21 02:58:01</time>
      </trkpt>
      <trkpt lat="41.94135" lon="2.33213">
        <ele>568</ele>
        <time>2022-05-21 02:58:02</time>
      </trkpt>
      <trkpt lat="41.94133" lon="2.33221">
        <ele>567.6</ele>
        <time>2022-05-21 02:58:03</time>
      </trkpt>
      <trkpt lat="41.94131" lon="2.3323">
        <ele>567.4</ele>
        <time>2022-05-21 02:58:04</time>
      </trkpt>
      <trkpt lat="41.94129" lon="2.33238">
        <ele>567.2</ele>
        <time>2022-05-21 02:58:05</time>
      </trkpt>
      <trkpt lat="41.94127" lon="2.33247">
        <ele>566.8</ele>
        <time>2022-05-21 02:58:06</time>
      </trkpt>
      <trkpt lat="41.94125" lon="2.33256">
        <ele>566.6</ele>
        <time>2022-05-21 02:58:07</time>
      </trkpt>
      <trkpt lat="41.94123" lon="2.33265">
        <ele>566.4</ele>
        <time>2022-05-21 02:58:08</time>
      </trkpt>
      <trkpt lat="41.94121" lon="2.33274">
        <ele>566.2</ele>
        <time>2022-05-21 02:58:09</time>
      </trkpt>
      <trkpt lat="41.94119" lon="2.33284">
        <ele>566</ele>
        <time>2022-05-21 02:58:10</time>
      </trkpt>
      <trkpt lat="41.94119" lon="2.33294">
        <ele>565.6</ele>
        <time>2022-05-21 02:58:11</time>
      </trkpt>
      <trkpt lat="41.94119" lon="2.33304">
        <ele>565.4</ele>
        <time>2022-05-21 02:58:12</time>
      </trkpt>
      <trkpt lat="41.94119" lon="2.33314">
        <ele>565</ele>
        <time>2022-05-21 02:58:13</time>
      </trkpt>
      <trkpt lat="41.94121" lon="2.33325">
        <ele>564.6</ele>
        <time>2022-05-21 02:58:14</time>
      </trkpt>
      <trkpt lat="41.94122" lon="2.33335">
        <ele>564.4</ele>
        <time>2022-05-21 02:58:15</time>
      </trkpt>
      <trkpt lat="41.94124" lon="2.33346">
        <ele>564</ele>
        <time>2022-05-21 02:58:16</time>
      </trkpt>
      <trkpt lat="41.94126" lon="2.33356">
        <ele>563.6</ele>
        <time>2022-05-21 02:58:17</time>
      </trkpt>
      <trkpt lat="41.94128" lon="2.33367">
        <ele>563.2</ele>
        <time>2022-05-21 02:58:18</time>
      </trkpt>
      <trkpt lat="41.9413" lon="2.33378">
        <ele>562.8</ele>
        <time>2022-05-21 02:58:19</time>
      </trkpt>
      <trkpt lat="41.94131" lon="2.33389">
        <ele>562.6</ele>
        <time>2022-05-21 02:58:20</time>
      </trkpt>
      <trkpt lat="41.94132" lon="2.334">
        <ele>562</ele>
        <time>2022-05-21 02:58:21</time>
      </trkpt>
      <trkpt lat="41.94132" lon="2.33411">
        <ele>561.6</ele>
        <time>2022-05-21 02:58:22</time>
      </trkpt>
      <trkpt lat="41.94131" lon="2.33422">
        <ele>561</ele>
        <time>2022-05-21 02:58:23</time>
      </trkpt>
      <trkpt lat="41.94128" lon="2.33432">
        <ele>560.6</ele>
        <time>2022-05-21 02:58:24</time>
      </trkpt>
      <trkpt lat="41.94125" lon="2.33441">
        <ele>560</ele>
        <time>2022-05-21 02:58:25</time>
      </trkpt>
      <trkpt lat="41.94121" lon="2.33451">
        <ele>559.4</ele>
        <time>2022-05-21 02:58:26</time>
      </trkpt>
      <trkpt lat="41.94117" lon="2.33461">
        <ele>558.8</ele>
        <time>2022-05-21 02:58:27</time>
      </trkpt>
      <trkpt lat="41.94113" lon="2.33471">
        <ele>558.2</ele>
        <time>2022-05-21 02:58:28</time>
      </trkpt>
      <trkpt lat="41.94109" lon="2.33481">
        <ele>557.8</ele>
        <time>2022-05-21 02:58:29</time>
      </trkpt>
      <trkpt lat="41.94104" lon="2.33492">
        <ele>557.2</ele>
        <time>2022-05-21 02:58:30</time>
      </trkpt>
      <trkpt lat="41.94099" lon="2.33502">
        <ele>556.6</ele>
        <time>2022-05-21 02:58:31</time>
      </trkpt>
      <trkpt lat="41.94094" lon="2.33514">
        <ele>556</ele>
        <time>2022-05-21 02:58:32</time>
      </trkpt>
      <trkpt lat="41.94087" lon="2.33525">
        <ele>555.4</ele>
        <time>2022-05-21 02:58:33</time>
      </trkpt>
      <trkpt lat="41.9408" lon="2.33536">
        <ele>554.8</ele>
        <time>2022-05-21 02:58:34</time>
      </trkpt>
      <trkpt lat="41.94072" lon="2.33546">
        <ele>554.2</ele>
        <time>2022-05-21 02:58:35</time>
      </trkpt>
      <trkpt lat="41.94064" lon="2.33554">
        <ele>553.6</ele>
        <time>2022-05-21 02:58:36</time>
      </trkpt>
      <trkpt lat="41.94054" lon="2.33561">
        <ele>553</ele>
        <time>2022-05-21 02:58:37</time>
      </trkpt>
      <trkpt lat="41.94044" lon="2.33568">
        <ele>552.4</ele>
        <time>2022-05-21 02:58:38</time>
      </trkpt>
      <trkpt lat="41.94035" lon="2.33574">
        <ele>552</ele>
        <time>2022-05-21 02:58:39</time>
      </trkpt>
      <trkpt lat="41.94025" lon="2.3358">
        <ele>551.6</ele>
        <time>2022-05-21 02:58:40</time>
      </trkpt>
      <trkpt lat="41.94018" lon="2.33586">
        <ele>551.4</ele>
        <time>2022-05-21 02:58:41</time>
      </trkpt>
      <trkpt lat="41.94012" lon="2.33593">
        <ele>551.2</ele>
        <time>2022-05-21 02:58:42</time>
      </trkpt>
      <trkpt lat="41.94009" lon="2.33603">
        <ele>551</ele>
        <time>2022-05-21 02:58:43</time>
      </trkpt>
      <trkpt lat="41.9401" lon="2.33614">
        <ele>550.8</ele>
        <time>2022-05-21 02:58:44</time>
      </trkpt>
      <trkpt lat="41.94011" lon="2.33625">
        <ele>550.8</ele>
        <time>2022-05-21 02:58:45</time>
      </trkpt>
      <trkpt lat="41.94013" lon="2.33634">
        <ele>550.6</ele>
        <time>2022-05-21 02:58:46</time>
      </trkpt>
      <trkpt lat="41.94014" lon="2.33644">
        <ele>550.6</ele>
        <time>2022-05-21 02:58:47</time>
      </trkpt>
      <trkpt lat="41.94013" lon="2.33653">
        <ele>550.6</ele>
        <time>2022-05-21 02:58:48</time>
      </trkpt>
      <trkpt lat="41.94011" lon="2.33661">
        <ele>550.6</ele>
        <time>2022-05-21 02:58:49</time>
      </trkpt>
      <trkpt lat="41.94008" lon="2.33666">
        <ele>550.8</ele>
        <time>2022-05-21 02:58:50</time>
      </trkpt>
      <trkpt lat="41.94004" lon="2.33671">
        <ele>551</ele>
        <time>2022-05-21 02:58:51</time>
      </trkpt>
      <trkpt lat="41.93999" lon="2.33674">
        <ele>551.4</ele>
        <time>2022-05-21 02:58:52</time>
      </trkpt>
      <trkpt lat="41.93995" lon="2.33677">
        <ele>551.6</ele>
        <time>2022-05-21 02:58:53</time>
      </trkpt>
      <trkpt lat="41.9399" lon="2.3368">
        <ele>551.8</ele>
        <time>2022-05-21 02:58:54</time>
      </trkpt>
      <trkpt lat="41.93987" lon="2.33684">
        <ele>552.2</ele>
        <time>2022-05-21 02:58:55</time>
      </trkpt>
      <trkpt lat="41.93982" lon="2.33687">
        <ele>552.4</ele>
        <time>2022-05-21 02:58:56</time>
      </trkpt>
      <trkpt lat="41.93978" lon="2.33689">
        <ele>552.6</ele>
        <time>2022-05-21 02:58:57</time>
      </trkpt>
      <trkpt lat="41.93974" lon="2.3369">
        <ele>552.8</ele>
        <time>2022-05-21 02:58:58</time>
      </trkpt>
      <trkpt lat="41.9397" lon="2.33692">
        <ele>553</ele>
        <time>2022-05-21 02:58:59</time>
      </trkpt>
      <trkpt lat="41.93967" lon="2.33693">
        <ele>553.2</ele>
        <time>2022-05-21 02:59:00</time>
      </trkpt>
      <trkpt lat="41.93965" lon="2.33695">
        <ele>553.4</ele>
        <time>2022-05-21 02:59:01</time>
      </trkpt>
      <trkpt lat="41.93962" lon="2.33696">
        <ele>553.6</ele>
        <time>2022-05-21 02:59:02</time>
      </trkpt>
      <trkpt lat="41.9396" lon="2.33698">
        <ele>553.8</ele>
        <time>2022-05-21 02:59:03</time>
      </trkpt>
      <trkpt lat="41.93958" lon="2.33698">
        <ele>554</ele>
        <time>2022-05-21 02:59:04</time>
      </trkpt>
      <trkpt lat="41.93955" lon="2.337">
        <ele>554.2</ele>
        <time>2022-05-21 02:59:05</time>
      </trkpt>
      <trkpt lat="41.93952" lon="2.33701">
        <ele>554.4</ele>
        <time>2022-05-21 02:59:06</time>
      </trkpt>
      <trkpt lat="41.9395" lon="2.33703">
        <ele>554.6</ele>
        <time>2022-05-21 02:59:07</time>
      </trkpt>
      <trkpt lat="41.93947" lon="2.33706">
        <ele>554.8</ele>
        <time>2022-05-21 02:59:08</time>
      </trkpt>
      <trkpt lat="41.93945" lon="2.33708">
        <ele>555</ele>
        <time>2022-05-21 02:59:09</time>
      </trkpt>
      <trkpt lat="41.93943" lon="2.3371">
        <ele>555</ele>
        <time>2022-05-21 02:59:10</time>
      </trkpt>
      <trkpt lat="41.93941" lon="2.33713">
        <ele>555.2</ele>
        <time>2022-05-21 02:59:11</time>
      </trkpt>
      <trkpt lat="41.93938" lon="2.33715">
        <ele>555.4</ele>
        <time>2022-05-21 02:59:12</time>
      </trkpt>
      <trkpt lat="41.93936" lon="2.33717">
        <ele>555.4</ele>
        <time>2022-05-21 02:59:13</time>
      </trkpt>
      <trkpt lat="41.93933" lon="2.33719">
        <ele>555.6</ele>
        <time>2022-05-21 02:59:14</time>
      </trkpt>
      <trkpt lat="41.93931" lon="2.33721">
        <ele>555.8</ele>
        <time>2022-05-21 02:59:15</time>
      </trkpt>
      <trkpt lat="41.93929" lon="2.33722">
        <ele>555.8</ele>
        <time>2022-05-21 02:59:16</time>
      </trkpt>
      <trkpt lat="41.93928" lon="2.33724">
        <ele>556</ele>
        <time>2022-05-21 02:59:17</time>
      </trkpt>
      <trkpt lat="41.93926" lon="2.33726">
        <ele>556.2</ele>
        <time>2022-05-21 02:59:18</time>
      </trkpt>
      <trkpt lat="41.93924" lon="2.33728">
        <ele>556.2</ele>
        <time>2022-05-21 02:59:19</time>
      </trkpt>
      <trkpt lat="41.93922" lon="2.33729">
        <ele>556.4</ele>
        <time>2022-05-21 02:59:20</time>
      </trkpt>
      <trkpt lat="41.9392" lon="2.3373">
        <ele>556.6</ele>
        <time>2022-05-21 02:59:21</time>
      </trkpt>
      <trkpt lat="41.93918" lon="2.33732">
        <ele>556.8</ele>
        <time>2022-05-21 02:59:22</time>
      </trkpt>
      <trkpt lat="41.93916" lon="2.33733">
        <ele>557</ele>
        <time>2022-05-21 02:59:23</time>
      </trkpt>
      <trkpt lat="41.93914" lon="2.33735">
        <ele>557</ele>
        <time>2022-05-21 02:59:24</time>
      </trkpt>
      <trkpt lat="41.93912" lon="2.33736">
        <ele>557.2</ele>
        <time>2022-05-21 02:59:25</time>
      </trkpt>
      <trkpt lat="41.9391" lon="2.33738">
        <ele>557.4</ele>
        <time>2022-05-21 02:59:26</time>
      </trkpt>
      <trkpt lat="41.93908" lon="2.33739">
        <ele>557.6</ele>
        <time>2022-05-21 02:59:27</time>
      </trkpt>
      <trkpt lat="41.93906" lon="2.33741">
        <ele>557.6</ele>
        <time>2022-05-21 02:59:28</time>
      </trkpt>
      <trkpt lat="41.93903" lon="2.33742">
        <ele>557.8</ele>
        <time>2022-05-21 02:59:29</time>
      </trkpt>
      <trkpt lat="41.93901" lon="2.33744">
        <ele>558</ele>
        <time>2022-05-21 02:59:30</time>
      </trkpt>
      <trkpt lat="41.93899" lon="2.33745">
        <ele>558</ele>
        <time>2022-05-21 02:59:31</time>
      </trkpt>
      <trkpt lat="41.93897" lon="2.33747">
        <ele>558.2</ele>
        <time>2022-05-21 02:59:32</time>
      </trkpt>
      <trkpt lat="41.93894" lon="2.33748">
        <ele>558.2</ele>
        <time>2022-05-21 02:59:33</time>
      </trkpt>
      <trkpt lat="41.93892" lon="2.33749">
        <ele>558.4</ele>
        <time>2022-05-21 02:59:34</time>
      </trkpt>
      <trkpt lat="41.9389" lon="2.3375">
        <ele>558.6</ele>
        <time>2022-05-21 02:59:35</time>
      </trkpt>
      <trkpt lat="41.93888" lon="2.33752">
        <ele>558.6</ele>
        <time>2022-05-21 02:59:36</time>
      </trkpt>
      <trkpt lat="41.93885" lon="2.33753">
        <ele>558.8</ele>
        <time>2022-05-21 02:59:37</time>
      </trkpt>
      <trkpt lat="41.93883" lon="2.33754">
        <ele>559</ele>
        <time>2022-05-21 02:59:38</time>
      </trkpt>
      <trkpt lat="41.93881" lon="2.33755">
        <ele>559</ele>
        <time>2022-05-21 02:59:39</time>
      </trkpt>
      <trkpt lat="41.93879" lon="2.33756">
        <ele>559.2</ele>
        <time>2022-05-21 02:59:40</time>
      </trkpt>
      <trkpt lat="41.93877" lon="2.33757">
        <ele>559.4</ele>
        <time>2022-05-21 02:59:41</time>
      </trkpt>
      <trkpt lat="41.93875" lon="2.33759">
        <ele>559.4</ele>
        <time>2022-05-21 02:59:42</time>
      </trkpt>
      <trkpt lat="41.93873" lon="2.33761">
        <ele>559.6</ele>
        <time>2022-05-21 02:59:43</time>
      </trkpt>
      <trkpt lat="41.93871" lon="2.33762">
        <ele>559.8</ele>
        <time>2022-05-21 02:59:44</time>
      </trkpt>
      <trkpt lat="41.93868" lon="2.33764">
        <ele>560</ele>
        <time>2022-05-21 02:59:45</time>
      </trkpt>
      <trkpt lat="41.93866" lon="2.33765">
        <ele>560</ele>
        <time>2022-05-21 02:59:46</time>
      </trkpt>
      <trkpt lat="41.93863" lon="2.33766">
        <ele>560.2</ele>
        <time>2022-05-21 02:59:47</time>
      </trkpt>
      <trkpt lat="41.93861" lon="2.33767">
        <ele>560.4</ele>
        <time>2022-05-21 02:59:48</time>
      </trkpt>
      <trkpt lat="41.93859" lon="2.33769">
        <ele>560.4</ele>
        <time>2022-05-21 02:59:49</time>
      </trkpt>
      <trkpt lat="41.93856" lon="2.3377">
        <ele>560.6</ele>
        <time>2022-05-21 02:59:50</time>
      </trkpt>
      <trkpt lat="41.93854" lon="2.33772">
        <ele>560.8</ele>
        <time>2022-05-21 02:59:51</time>
      </trkpt>
      <trkpt lat="41.93852" lon="2.33773">
        <ele>560.8</ele>
        <time>2022-05-21 02:59:52</time>
      </trkpt>
      <trkpt lat="41.9385" lon="2.33775">
        <ele>561</ele>
        <time>2022-05-21 02:59:53</time>
      </trkpt>
      <trkpt lat="41.93848" lon="2.33776">
        <ele>561.2</ele>
        <time>2022-05-21 02:59:54</time>
      </trkpt>
      <trkpt lat="41.93846" lon="2.33778">
        <ele>561.2</ele>
        <time>2022-05-21 02:59:55</time>
      </trkpt>
      <trkpt lat="41.93844" lon="2.33779">
        <ele>561.4</ele>
        <time>2022-05-21 02:59:56</time>
      </trkpt>
      <trkpt lat="41.93842" lon="2.33781">
        <ele>561.6</ele>
        <time>2022-05-21 02:59:57</time>
      </trkpt>
      <trkpt lat="41.9384" lon="2.33783">
        <ele>561.8</ele>
        <time>2022-05-21 02:59:58</time>
      </trkpt>
      <trkpt lat="41.93838" lon="2.33784">
        <ele>561.8</ele>
        <time>2022-05-21 02:59:59</time>
      </trkpt>
      <trkpt lat="41.93836" lon="2.33785">
        <ele>562</ele>
        <time>2022-05-21 03:00:00</time>
      </trkpt>
      <trkpt lat="41.93834" lon="2.33787">
        <ele>562.2</ele>
        <time>2022-05-21 03:00:01</time>
      </trkpt>
      <trkpt lat="41.93831" lon="2.33788">
        <ele>562.2</ele>
        <time>2022-05-21 03:00:02</time>
      </trkpt>
      <trkpt lat="41.93829" lon="2.33789">
        <ele>562.4</ele>
        <time>2022-05-21 03:00:03</time>
      </trkpt>
      <trkpt lat="41.93827" lon="2.3379">
        <ele>562.6</ele>
        <time>2022-05-21 03:00:04</time>
      </trkpt>
      <trkpt lat="41.93825" lon="2.33791">
        <ele>562.6</ele>
        <time>2022-05-21 03:00:05</time>
      </trkpt>
      <trkpt lat="41.93822" lon="2.33792">
        <ele>562.8</ele>
        <time>2022-05-21 03:00:06</time>
      </trkpt>
      <trkpt lat="41.9382" lon="2.33793">
        <ele>563</ele>
        <time>2022-05-21 03:00:07</time>
      </trkpt>
      <trkpt lat="41.93818" lon="2.33795">
        <ele>563</ele>
        <time>2022-05-21 03:00:08</time>
      </trkpt>
      <trkpt lat="41.93816" lon="2.33797">
        <ele>563.2</ele>
        <time>2022-05-21 03:00:09</time>
      </trkpt>
      <trkpt lat="41.93814" lon="2.33798">
        <ele>563.4</ele>
        <time>2022-05-21 03:00:10</time>
      </trkpt>
      <trkpt lat="41.93811" lon="2.338">
        <ele>563.4</ele>
        <time>2022-05-21 03:00:11</time>
      </trkpt>
      <trkpt lat="41.93809" lon="2.33802">
        <ele>563.6</ele>
        <time>2022-05-21 03:00:12</time>
      </trkpt>
      <trkpt lat="41.93807" lon="2.33804">
        <ele>563.8</ele>
        <time>2022-05-21 03:00:13</time>
      </trkpt>
      <trkpt lat="41.93805" lon="2.33806">
        <ele>564</ele>
        <time>2022-05-21 03:00:14</time>
      </trkpt>
      <trkpt lat="41.93803" lon="2.33808">
        <ele>564.2</ele>
        <time>2022-05-21 03:00:15</time>
      </trkpt>
      <trkpt lat="41.93802" lon="2.3381">
        <ele>564.2</ele>
        <time>2022-05-21 03:00:16</time>
      </trkpt>
      <trkpt lat="41.938" lon="2.33812">
        <ele>564.4</ele>
        <time>2022-05-21 03:00:17</time>
      </trkpt>
      <trkpt lat="41.93798" lon="2.33814">
        <ele>564.6</ele>
        <time>2022-05-21 03:00:18</time>
      </trkpt>
      <trkpt lat="41.93797" lon="2.33816">
        <ele>564.8</ele>
        <time>2022-05-21 03:00:19</time>
      </trkpt>
      <trkpt lat="41.93795" lon="2.33819">
        <ele>564.8</ele>
        <time>2022-05-21 03:00:20</time>
      </trkpt>
      <trkpt lat="41.93793" lon="2.33821">
        <ele>565</ele>
        <time>2022-05-21 03:00:21</time>
      </trkpt>
      <trkpt lat="41.93791" lon="2.33824">
        <ele>565.2</ele>
        <time>2022-05-21 03:00:22</time>
      </trkpt>
      <trkpt lat="41.93789" lon="2.33828">
        <ele>565.2</ele>
        <time>2022-05-21 03:00:23</time>
      </trkpt>
      <trkpt lat="41.93787" lon="2.33831">
        <ele>565.4</ele>
        <time>2022-05-21 03:00:24</time>
      </trkpt>
      <trkpt lat="41.93785" lon="2.33834">
        <ele>565.6</ele>
        <time>2022-05-21 03:00:25</time>
      </trkpt>
      <trkpt lat="41.93784" lon="2.33837">
        <ele>565.6</ele>
        <time>2022-05-21 03:00:26</time>
      </trkpt>
      <trkpt lat="41.93782" lon="2.3384">
        <ele>565.8</ele>
        <time>2022-05-21 03:00:27</time>
      </trkpt>
      <trkpt lat="41.93779" lon="2.33843">
        <ele>566</ele>
        <time>2022-05-21 03:00:28</time>
      </trkpt>
      <trkpt lat="41.93777" lon="2.33846">
        <ele>566.2</ele>
        <time>2022-05-21 03:00:29</time>
      </trkpt>
      <trkpt lat="41.93775" lon="2.33848">
        <ele>566.2</ele>
        <time>2022-05-21 03:00:30</time>
      </trkpt>
      <trkpt lat="41.93773" lon="2.33851">
        <ele>566.4</ele>
        <time>2022-05-21 03:00:31</time>
      </trkpt>
      <trkpt lat="41.93772" lon="2.33853">
        <ele>566.6</ele>
        <time>2022-05-21 03:00:32</time>
      </trkpt>
      <trkpt lat="41.93771" lon="2.33856">
        <ele>566.8</ele>
        <time>2022-05-21 03:00:33</time>
      </trkpt>
      <trkpt lat="41.93769" lon="2.33858">
        <ele>567</ele>
        <time>2022-05-21 03:00:34</time>
      </trkpt>
      <trkpt lat="41.93768" lon="2.33861">
        <ele>567.2</ele>
        <time>2022-05-21 03:00:35</time>
      </trkpt>
      <trkpt lat="41.93766" lon="2.33863">
        <ele>567.2</ele>
        <time>2022-05-21 03:00:36</time>
      </trkpt>
      <trkpt lat="41.93764" lon="2.33867">
        <ele>567.4</ele>
        <time>2022-05-21 03:00:37</time>
      </trkpt>
      <trkpt lat="41.93762" lon="2.3387">
        <ele>567.6</ele>
        <time>2022-05-21 03:00:38</time>
      </trkpt>
      <trkpt lat="41.93761" lon="2.33873">
        <ele>567.8</ele>
        <time>2022-05-21 03:00:39</time>
      </trkpt>
      <trkpt lat="41.9376" lon="2.33875">
        <ele>568</ele>
        <time>2022-05-21 03:00:40</time>
      </trkpt>
      <trkpt lat="41.93759" lon="2.33878">
        <ele>568</ele>
        <time>2022-05-21 03:00:41</time>
      </trkpt>
      <trkpt lat="41.93758" lon="2.33881">
        <ele>568.2</ele>
        <time>2022-05-21 03:00:42</time>
      </trkpt>
      <trkpt lat="41.93757" lon="2.33885">
        <ele>568.4</ele>
        <time>2022-05-21 03:00:43</time>
      </trkpt>
      <trkpt lat="41.93756" lon="2.33888">
        <ele>568.6</ele>
        <time>2022-05-21 03:00:44</time>
      </trkpt>
      <trkpt lat="41.93756" lon="2.33892">
        <ele>568.6</ele>
        <time>2022-05-21 03:00:45</time>
      </trkpt>
      <trkpt lat="41.93755" lon="2.33895">
        <ele>568.8</ele>
        <time>2022-05-21 03:00:46</time>
      </trkpt>
      <trkpt lat="41.93755" lon="2.33898">
        <ele>569</ele>
        <time>2022-05-21 03:00:47</time>
      </trkpt>
      <trkpt lat="41.93754" lon="2.33902">
        <ele>569</ele>
        <time>2022-05-21 03:00:48</time>
      </trkpt>
      <trkpt lat="41.93754" lon="2.33905">
        <ele>569.2</ele>
        <time>2022-05-21 03:00:49</time>
      </trkpt>
      <trkpt lat="41.93754" lon="2.33908">
        <ele>569.4</ele>
        <time>2022-05-21 03:00:50</time>
      </trkpt>
      <trkpt lat="41.93754" lon="2.33912">
        <ele>569.4</ele>
        <time>2022-05-21 03:00:51</time>
      </trkpt>
      <trkpt lat="41.93754" lon="2.33916">
        <ele>569.6</ele>
        <time>2022-05-21 03:00:52</time>
      </trkpt>
      <trkpt lat="41.93754" lon="2.3392">
        <ele>569.8</ele>
        <time>2022-05-21 03:00:53</time>
      </trkpt>
      <trkpt lat="41.93753" lon="2.33923">
        <ele>569.8</ele>
        <time>2022-05-21 03:00:54</time>
      </trkpt>
      <trkpt lat="41.93753" lon="2.33927">
        <ele>570</ele>
        <time>2022-05-21 03:00:55</time>
      </trkpt>
      <trkpt lat="41.93753" lon="2.33931">
        <ele>570</ele>
        <time>2022-05-21 03:00:56</time>
      </trkpt>
      <trkpt lat="41.93753" lon="2.33935">
        <ele>570.2</ele>
        <time>2022-05-21 03:00:57</time>
      </trkpt>
      <trkpt lat="41.93753" lon="2.33939">
        <ele>570.4</ele>
        <time>2022-05-21 03:00:58</time>
      </trkpt>
      <trkpt lat="41.93753" lon="2.33942">
        <ele>570.4</ele>
        <time>2022-05-21 03:00:59</time>
      </trkpt>
      <trkpt lat="41.93753" lon="2.33945">
        <ele>570.6</ele>
        <time>2022-05-21 03:01:00</time>
      </trkpt>
      <trkpt lat="41.93753" lon="2.33948">
        <ele>570.8</ele>
        <time>2022-05-21 03:01:01</time>
      </trkpt>
      <trkpt lat="41.93752" lon="2.33951">
        <ele>571</ele>
        <time>2022-05-21 03:01:02</time>
      </trkpt>
      <trkpt lat="41.93751" lon="2.33954">
        <ele>571</ele>
        <time>2022-05-21 03:01:03</time>
      </trkpt>
      <trkpt lat="41.9375" lon="2.33958">
        <ele>571.2</ele>
        <time>2022-05-21 03:01:04</time>
      </trkpt>
      <trkpt lat="41.9375" lon="2.33961">
        <ele>571.4</ele>
        <time>2022-05-21 03:01:05</time>
      </trkpt>
      <trkpt lat="41.93749" lon="2.33965">
        <ele>571.4</ele>
        <time>2022-05-21 03:01:06</time>
      </trkpt>
      <trkpt lat="41.93749" lon="2.33969">
        <ele>571.6</ele>
        <time>2022-05-21 03:01:07</time>
      </trkpt>
      <trkpt lat="41.93748" lon="2.33973">
        <ele>571.8</ele>
        <time>2022-05-21 03:01:08</time>
      </trkpt>
      <trkpt lat="41.93748" lon="2.33976">
        <ele>572</ele>
        <time>2022-05-21 03:01:09</time>
      </trkpt>
      <trkpt lat="41.93747" lon="2.3398">
        <ele>572.2</ele>
        <time>2022-05-21 03:01:10</time>
      </trkpt>
      <trkpt lat="41.93747" lon="2.33983">
        <ele>572.4</ele>
        <time>2022-05-21 03:01:11</time>
      </trkpt>
      <trkpt lat="41.93747" lon="2.33986">
        <ele>572.4</ele>
        <time>2022-05-21 03:01:12</time>
      </trkpt>
      <trkpt lat="41.93746" lon="2.3399">
        <ele>572.6</ele>
        <time>2022-05-21 03:01:13</time>
      </trkpt>
      <trkpt lat="41.93745" lon="2.33993">
        <ele>572.8</ele>
        <time>2022-05-21 03:01:14</time>
      </trkpt>
      <trkpt lat="41.93745" lon="2.33997">
        <ele>573</ele>
        <time>2022-05-21 03:01:15</time>
      </trkpt>
      <trkpt lat="41.93744" lon="2.34001">
        <ele>573.2</ele>
        <time>2022-05-21 03:01:16</time>
      </trkpt>
      <trkpt lat="41.93744" lon="2.34004">
        <ele>573.2</ele>
        <time>2022-05-21 03:01:17</time>
      </trkpt>
      <trkpt lat="41.93743" lon="2.34008">
        <ele>573.4</ele>
        <time>2022-05-21 03:01:18</time>
      </trkpt>
      <trkpt lat="41.93743" lon="2.34012">
        <ele>573.6</ele>
        <time>2022-05-21 03:01:19</time>
      </trkpt>
      <trkpt lat="41.93743" lon="2.34016">
        <ele>573.8</ele>
        <time>2022-05-21 03:01:20</time>
      </trkpt>
      <trkpt lat="41.93742" lon="2.3402">
        <ele>574</ele>
        <time>2022-05-21 03:01:21</time>
      </trkpt>
      <trkpt lat="41.93742" lon="2.34025">
        <ele>574</ele>
        <time>2022-05-21 03:01:22</time>
      </trkpt>
      <trkpt lat="41.93742" lon="2.34029">
        <ele>574.2</ele>
        <time>2022-05-21 03:01:23</time>
      </trkpt>
      <trkpt lat="41.93742" lon="2.34033">
        <ele>574.4</ele>
        <time>2022-05-21 03:01:24</time>
      </trkpt>
      <trkpt lat="41.93742" lon="2.34037">
        <ele>574.6</ele>
        <time>2022-05-21 03:01:25</time>
      </trkpt>
      <trkpt lat="41.93742" lon="2.34042">
        <ele>574.6</ele>
        <time>2022-05-21 03:01:26</time>
      </trkpt>
      <trkpt lat="41.93742" lon="2.34046">
        <ele>574.8</ele>
        <time>2022-05-21 03:01:27</time>
      </trkpt>
      <trkpt lat="41.93742" lon="2.34049">
        <ele>575</ele>
        <time>2022-05-21 03:01:28</time>
      </trkpt>
      <trkpt lat="41.93743" lon="2.34052">
        <ele>575.2</ele>
        <time>2022-05-21 03:01:29</time>
      </trkpt>
      <trkpt lat="41.93743" lon="2.34056">
        <ele>575.2</ele>
        <time>2022-05-21 03:01:30</time>
      </trkpt>
      <trkpt lat="41.93744" lon="2.3406">
        <ele>575.4</ele>
        <time>2022-05-21 03:01:31</time>
      </trkpt>
      <trkpt lat="41.93744" lon="2.34064">
        <ele>575.6</ele>
        <time>2022-05-21 03:01:32</time>
      </trkpt>
      <trkpt lat="41.93743" lon="2.34069">
        <ele>575.6</ele>
        <time>2022-05-21 03:01:33</time>
      </trkpt>
      <trkpt lat="41.93743" lon="2.34073">
        <ele>575.8</ele>
        <time>2022-05-21 03:01:34</time>
      </trkpt>
      <trkpt lat="41.93743" lon="2.34078">
        <ele>576</ele>
        <time>2022-05-21 03:01:35</time>
      </trkpt>
      <trkpt lat="41.93743" lon="2.34082">
        <ele>576.2</ele>
        <time>2022-05-21 03:01:36</time>
      </trkpt>
      <trkpt lat="41.93743" lon="2.34085">
        <ele>576.4</ele>
        <time>2022-05-21 03:01:37</time>
      </trkpt>
      <trkpt lat="41.93744" lon="2.34089">
        <ele>576.4</ele>
        <time>2022-05-21 03:01:38</time>
      </trkpt>
      <trkpt lat="41.93744" lon="2.34092">
        <ele>576.6</ele>
        <time>2022-05-21 03:01:39</time>
      </trkpt>
      <trkpt lat="41.93744" lon="2.34096">
        <ele>576.8</ele>
        <time>2022-05-21 03:01:40</time>
      </trkpt>
      <trkpt lat="41.93744" lon="2.34099">
        <ele>577</ele>
        <time>2022-05-21 03:01:41</time>
      </trkpt>
      <trkpt lat="41.93744" lon="2.34101">
        <ele>577.2</ele>
        <time>2022-05-21 03:01:42</time>
      </trkpt>
      <trkpt lat="41.93744" lon="2.34104">
        <ele>577.4</ele>
        <time>2022-05-21 03:01:43</time>
      </trkpt>
      <trkpt lat="41.93744" lon="2.34107">
        <ele>577.6</ele>
        <time>2022-05-21 03:01:44</time>
      </trkpt>
      <trkpt lat="41.93744" lon="2.3411">
        <ele>577.8</ele>
        <time>2022-05-21 03:01:45</time>
      </trkpt>
      <trkpt lat="41.93744" lon="2.34113">
        <ele>577.8</ele>
        <time>2022-05-21 03:01:46</time>
      </trkpt>
      <trkpt lat="41.93744" lon="2.34116">
        <ele>578</ele>
        <time>2022-05-21 03:01:47</time>
      </trkpt>
      <trkpt lat="41.93744" lon="2.34118">
        <ele>578.2</ele>
        <time>2022-05-21 03:01:48</time>
      </trkpt>
      <trkpt lat="41.93744" lon="2.34122">
        <ele>578.4</ele>
        <time>2022-05-21 03:01:49</time>
      </trkpt>
      <trkpt lat="41.93743" lon="2.34125">
        <ele>578.4</ele>
        <time>2022-05-21 03:01:50</time>
      </trkpt>
      <trkpt lat="41.93743" lon="2.34128">
        <ele>578.6</ele>
        <time>2022-05-21 03:01:51</time>
      </trkpt>
      <trkpt lat="41.93744" lon="2.34131">
        <ele>578.8</ele>
        <time>2022-05-21 03:01:52</time>
      </trkpt>
      <trkpt lat="41.93744" lon="2.34134">
        <ele>579</ele>
        <time>2022-05-21 03:01:53</time>
      </trkpt>
      <trkpt lat="41.93745" lon="2.34137">
        <ele>579.2</ele>
        <time>2022-05-21 03:01:54</time>
      </trkpt>
      <trkpt lat="41.93745" lon="2.34141">
        <ele>579.2</ele>
        <time>2022-05-21 03:01:55</time>
      </trkpt>
      <trkpt lat="41.93745" lon="2.34144">
        <ele>579.4</ele>
        <time>2022-05-21 03:01:56</time>
      </trkpt>
      <trkpt lat="41.93745" lon="2.34147">
        <ele>579.6</ele>
        <time>2022-05-21 03:01:57</time>
      </trkpt>
      <trkpt lat="41.93746" lon="2.34149">
        <ele>579.8</ele>
        <time>2022-05-21 03:01:58</time>
      </trkpt>
      <trkpt lat="41.93746" lon="2.34153">
        <ele>580</ele>
        <time>2022-05-21 03:01:59</time>
      </trkpt>
      <trkpt lat="41.93746" lon="2.34156">
        <ele>580.2</ele>
        <time>2022-05-21 03:02:00</time>
      </trkpt>
      <trkpt lat="41.93745" lon="2.34158">
        <ele>580.2</ele>
        <time>2022-05-21 03:02:01</time>
      </trkpt>
      <trkpt lat="41.93745" lon="2.34162">
        <ele>580.4</ele>
        <time>2022-05-21 03:02:02</time>
      </trkpt>
      <trkpt lat="41.93745" lon="2.34164">
        <ele>580.6</ele>
        <time>2022-05-21 03:02:03</time>
      </trkpt>
      <trkpt lat="41.93745" lon="2.34167">
        <ele>580.8</ele>
        <time>2022-05-21 03:02:04</time>
      </trkpt>
      <trkpt lat="41.93745" lon="2.3417">
        <ele>580.8</ele>
        <time>2022-05-21 03:02:05</time>
      </trkpt>
      <trkpt lat="41.93745" lon="2.34173">
        <ele>581</ele>
        <time>2022-05-21 03:02:06</time>
      </trkpt>
      <trkpt lat="41.93745" lon="2.34176">
        <ele>581.2</ele>
        <time>2022-05-21 03:02:07</time>
      </trkpt>
      <trkpt lat="41.93745" lon="2.34179">
        <ele>581.4</ele>
        <time>2022-05-21 03:02:08</time>
      </trkpt>
      <trkpt lat="41.93746" lon="2.34182">
        <ele>581.4</ele>
        <time>2022-05-21 03:02:09</time>
      </trkpt>
      <trkpt lat="41.93746" lon="2.34185">
        <ele>581.6</ele>
        <time>2022-05-21 03:02:10</time>
      </trkpt>
      <trkpt lat="41.93747" lon="2.34188">
        <ele>581.8</ele>
        <time>2022-05-21 03:02:11</time>
      </trkpt>
      <trkpt lat="41.93747" lon="2.34191">
        <ele>582</ele>
        <time>2022-05-21 03:02:12</time>
      </trkpt>
      <trkpt lat="41.93747" lon="2.34195">
        <ele>582</ele>
        <time>2022-05-21 03:02:13</time>
      </trkpt>
      <trkpt lat="41.93747" lon="2.34198">
        <ele>582.2</ele>
        <time>2022-05-21 03:02:14</time>
      </trkpt>
      <trkpt lat="41.93747" lon="2.34201">
        <ele>582.4</ele>
        <time>2022-05-21 03:02:15</time>
      </trkpt>
      <trkpt lat="41.93748" lon="2.34205">
        <ele>582.4</ele>
        <time>2022-05-21 03:02:16</time>
      </trkpt>
      <trkpt lat="41.93748" lon="2.34208">
        <ele>582.6</ele>
        <time>2022-05-21 03:02:17</time>
      </trkpt>
      <trkpt lat="41.93748" lon="2.34212">
        <ele>582.8</ele>
        <time>2022-05-21 03:02:18</time>
      </trkpt>
      <trkpt lat="41.93747" lon="2.34216">
        <ele>582.8</ele>
        <time>2022-05-21 03:02:19</time>
      </trkpt>
      <trkpt lat="41.93748" lon="2.34219">
        <ele>583</ele>
        <time>2022-05-21 03:02:20</time>
      </trkpt>
      <trkpt lat="41.93748" lon="2.34222">
        <ele>583.2</ele>
        <time>2022-05-21 03:02:21</time>
      </trkpt>
      <trkpt lat="41.93747" lon="2.34226">
        <ele>583.2</ele>
        <time>2022-05-21 03:02:22</time>
      </trkpt>
      <trkpt lat="41.93747" lon="2.3423">
        <ele>583.4</ele>
        <time>2022-05-21 03:02:23</time>
      </trkpt>
      <trkpt lat="41.93746" lon="2.34235">
        <ele>583.6</ele>
        <time>2022-05-21 03:02:24</time>
      </trkpt>
      <trkpt lat="41.93746" lon="2.34239">
        <ele>583.6</ele>
        <time>2022-05-21 03:02:25</time>
      </trkpt>
      <trkpt lat="41.93746" lon="2.34242">
        <ele>583.8</ele>
        <time>2022-05-21 03:02:26</time>
      </trkpt>
      <trkpt lat="41.93746" lon="2.34245">
        <ele>584</ele>
        <time>2022-05-21 03:02:27</time>
      </trkpt>
      <trkpt lat="41.93747" lon="2.34248">
        <ele>584</ele>
        <time>2022-05-21 03:02:28</time>
      </trkpt>
      <trkpt lat="41.93747" lon="2.34252">
        <ele>584.2</ele>
        <time>2022-05-21 03:02:29</time>
      </trkpt>
      <trkpt lat="41.93747" lon="2.34257">
        <ele>584.4</ele>
        <time>2022-05-21 03:02:30</time>
      </trkpt>
      <trkpt lat="41.93746" lon="2.34262">
        <ele>584.4</ele>
        <time>2022-05-21 03:02:31</time>
      </trkpt>
      <trkpt lat="41.93747" lon="2.34266">
        <ele>584.6</ele>
        <time>2022-05-21 03:02:32</time>
      </trkpt>
      <trkpt lat="41.93747" lon="2.34271">
        <ele>584.6</ele>
        <time>2022-05-21 03:02:33</time>
      </trkpt>
      <trkpt lat="41.93747" lon="2.34276">
        <ele>584.8</ele>
        <time>2022-05-21 03:02:34</time>
      </trkpt>
      <trkpt lat="41.93746" lon="2.3428">
        <ele>585</ele>
        <time>2022-05-21 03:02:35</time>
      </trkpt>
      <trkpt lat="41.93745" lon="2.34286">
        <ele>585</ele>
        <time>2022-05-21 03:02:36</time>
      </trkpt>
      <trkpt lat="41.93745" lon="2.34291">
        <ele>585.2</ele>
        <time>2022-05-21 03:02:37</time>
      </trkpt>
      <trkpt lat="41.93745" lon="2.34295">
        <ele>585.2</ele>
        <time>2022-05-21 03:02:38</time>
      </trkpt>
      <trkpt lat="41.93745" lon="2.34299">
        <ele>585.4</ele>
        <time>2022-05-21 03:02:39</time>
      </trkpt>
      <trkpt lat="41.93745" lon="2.34303">
        <ele>585.6</ele>
        <time>2022-05-21 03:02:40</time>
      </trkpt>
      <trkpt lat="41.93745" lon="2.34307">
        <ele>585.6</ele>
        <time>2022-05-21 03:02:41</time>
      </trkpt>
      <trkpt lat="41.93745" lon="2.34311">
        <ele>585.8</ele>
        <time>2022-05-21 03:02:42</time>
      </trkpt>
      <trkpt lat="41.93745" lon="2.34315">
        <ele>586</ele>
        <time>2022-05-21 03:02:43</time>
      </trkpt>
      <trkpt lat="41.93744" lon="2.3432">
        <ele>586</ele>
        <time>2022-05-21 03:02:44</time>
      </trkpt>
      <trkpt lat="41.93744" lon="2.34324">
        <ele>586.2</ele>
        <time>2022-05-21 03:02:45</time>
      </trkpt>
      <trkpt lat="41.93743" lon="2.34328">
        <ele>586.4</ele>
        <time>2022-05-21 03:02:46</time>
      </trkpt>
      <trkpt lat="41.93743" lon="2.34331">
        <ele>586.4</ele>
        <time>2022-05-21 03:02:47</time>
      </trkpt>
      <trkpt lat="41.93743" lon="2.34334">
        <ele>586.6</ele>
        <time>2022-05-21 03:02:48</time>
      </trkpt>
      <trkpt lat="41.93744" lon="2.34337">
        <ele>586.8</ele>
        <time>2022-05-21 03:02:49</time>
      </trkpt>
      <trkpt lat="41.93743" lon="2.34341">
        <ele>587</ele>
        <time>2022-05-21 03:02:50</time>
      </trkpt>
      <trkpt lat="41.93743" lon="2.34344">
        <ele>587</ele>
        <time>2022-05-21 03:02:51</time>
      </trkpt>
      <trkpt lat="41.93743" lon="2.34348">
        <ele>587.2</ele>
        <time>2022-05-21 03:02:52</time>
      </trkpt>
      <trkpt lat="41.93744" lon="2.34352">
        <ele>587.4</ele>
        <time>2022-05-21 03:02:53</time>
      </trkpt>
      <trkpt lat="41.93744" lon="2.34356">
        <ele>587.6</ele>
        <time>2022-05-21 03:02:54</time>
      </trkpt>
      <trkpt lat="41.93745" lon="2.3436">
        <ele>587.6</ele>
        <time>2022-05-21 03:02:55</time>
      </trkpt>
      <trkpt lat="41.93745" lon="2.34364">
        <ele>587.8</ele>
        <time>2022-05-21 03:02:56</time>
      </trkpt>
      <trkpt lat="41.93746" lon="2.34368">
        <ele>588</ele>
        <time>2022-05-21 03:02:57</time>
      </trkpt>
      <trkpt lat="41.93746" lon="2.34371">
        <ele>588.2</ele>
        <time>2022-05-21 03:02:58</time>
      </trkpt>
      <trkpt lat="41.93746" lon="2.34375">
        <ele>588.4</ele>
        <time>2022-05-21 03:02:59</time>
      </trkpt>
      <trkpt lat="41.93747" lon="2.34378">
        <ele>588.4</ele>
        <time>2022-05-21 03:03:00</time>
      </trkpt>
      <trkpt lat="41.93747" lon="2.34382">
        <ele>588.6</ele>
        <time>2022-05-21 03:03:01</time>
      </trkpt>
      <trkpt lat="41.93747" lon="2.34386">
        <ele>588.8</ele>
        <time>2022-05-21 03:03:02</time>
      </trkpt>
      <trkpt lat="41.93747" lon="2.34389">
        <ele>589</ele>
        <time>2022-05-21 03:03:03</time>
      </trkpt>
      <trkpt lat="41.93747" lon="2.34393">
        <ele>589</ele>
        <time>2022-05-21 03:03:04</time>
      </trkpt>
      <trkpt lat="41.93747" lon="2.34397">
        <ele>589.2</ele>
        <time>2022-05-21 03:03:05</time>
      </trkpt>
      <trkpt lat="41.93747" lon="2.34401">
        <ele>589.4</ele>
        <time>2022-05-21 03:03:06</time>
      </trkpt>
      <trkpt lat="41.93747" lon="2.34405">
        <ele>589.4</ele>
        <time>2022-05-21 03:03:07</time>
      </trkpt>
      <trkpt lat="41.93747" lon="2.34409">
        <ele>589.6</ele>
        <time>2022-05-21 03:03:08</time>
      </trkpt>
      <trkpt lat="41.93748" lon="2.34413">
        <ele>589.8</ele>
        <time>2022-05-21 03:03:09</time>
      </trkpt>
      <trkpt lat="41.93748" lon="2.34417">
        <ele>589.8</ele>
        <time>2022-05-21 03:03:10</time>
      </trkpt>
      <trkpt lat="41.93748" lon="2.34421">
        <ele>590</ele>
        <time>2022-05-21 03:03:11</time>
      </trkpt>
      <trkpt lat="41.93749" lon="2.34425">
        <ele>590.2</ele>
        <time>2022-05-21 03:03:12</time>
      </trkpt>
      <trkpt lat="41.93749" lon="2.34429">
        <ele>590.2</ele>
        <time>2022-05-21 03:03:13</time>
      </trkpt>
      <trkpt lat="41.93749" lon="2.34434">
        <ele>590.4</ele>
        <time>2022-05-21 03:03:14</time>
      </trkpt>
      <trkpt lat="41.93748" lon="2.34439">
        <ele>590.6</ele>
        <time>2022-05-21 03:03:15</time>
      </trkpt>
      <trkpt lat="41.93749" lon="2.34442">
        <ele>590.8</ele>
        <time>2022-05-21 03:03:16</time>
      </trkpt>
      <trkpt lat="41.93749" lon="2.34447">
        <ele>590.8</ele>
        <time>2022-05-21 03:03:17</time>
      </trkpt>
      <trkpt lat="41.9375" lon="2.34451">
        <ele>591</ele>
        <time>2022-05-21 03:03:18</time>
      </trkpt>
      <trkpt lat="41.93749" lon="2.34454">
        <ele>591.2</ele>
        <time>2022-05-21 03:03:19</time>
      </trkpt>
      <trkpt lat="41.93749" lon="2.34458">
        <ele>591.2</ele>
        <time>2022-05-21 03:03:20</time>
      </trkpt>
      <trkpt lat="41.93749" lon="2.34461">
        <ele>591.4</ele>
        <time>2022-05-21 03:03:21</time>
      </trkpt>
      <trkpt lat="41.93749" lon="2.34465">
        <ele>591.6</ele>
        <time>2022-05-21 03:03:22</time>
      </trkpt>
      <trkpt lat="41.93749" lon="2.34469">
        <ele>591.8</ele>
        <time>2022-05-21 03:03:23</time>
      </trkpt>
      <trkpt lat="41.93749" lon="2.34473">
        <ele>591.8</ele>
        <time>2022-05-21 03:03:24</time>
      </trkpt>
      <trkpt lat="41.93749" lon="2.34477">
        <ele>592</ele>
        <time>2022-05-21 03:03:25</time>
      </trkpt>
      <trkpt lat="41.93748" lon="2.34482">
        <ele>592.2</ele>
        <time>2022-05-21 03:03:26</time>
      </trkpt>
      <trkpt lat="41.93748" lon="2.34486">
        <ele>592.2</ele>
        <time>2022-05-21 03:03:27</time>
      </trkpt>
      <trkpt lat="41.93748" lon="2.3449">
        <ele>592.4</ele>
        <time>2022-05-21 03:03:28</time>
      </trkpt>
      <trkpt lat="41.93748" lon="2.34494">
        <ele>592.6</ele>
        <time>2022-05-21 03:03:29</time>
      </trkpt>
      <trkpt lat="41.93748" lon="2.34498">
        <ele>592.8</ele>
        <time>2022-05-21 03:03:30</time>
      </trkpt>
      <trkpt lat="41.93748" lon="2.34501">
        <ele>592.8</ele>
        <time>2022-05-21 03:03:31</time>
      </trkpt>
      <trkpt lat="41.93748" lon="2.34505">
        <ele>593</ele>
        <time>2022-05-21 03:03:32</time>
      </trkpt>
      <trkpt lat="41.93747" lon="2.34508">
        <ele>593.2</ele>
        <time>2022-05-21 03:03:33</time>
      </trkpt>
      <trkpt lat="41.93747" lon="2.34511">
        <ele>593.4</ele>
        <time>2022-05-21 03:03:34</time>
      </trkpt>
      <trkpt lat="41.93747" lon="2.34515">
        <ele>593.6</ele>
        <time>2022-05-21 03:03:35</time>
      </trkpt>
      <trkpt lat="41.93747" lon="2.34519">
        <ele>593.6</ele>
        <time>2022-05-21 03:03:36</time>
      </trkpt>
      <trkpt lat="41.93747" lon="2.34522">
        <ele>593.8</ele>
        <time>2022-05-21 03:03:37</time>
      </trkpt>
      <trkpt lat="41.93747" lon="2.34526">
        <ele>594</ele>
        <time>2022-05-21 03:03:38</time>
      </trkpt>
      <trkpt lat="41.93746" lon="2.3453">
        <ele>594.2</ele>
        <time>2022-05-21 03:03:39</time>
      </trkpt>
      <trkpt lat="41.93746" lon="2.34534">
        <ele>594.2</ele>
        <time>2022-05-21 03:03:40</time>
      </trkpt>
      <trkpt lat="41.93746" lon="2.34538">
        <ele>594.4</ele>
        <time>2022-05-21 03:03:41</time>
      </trkpt>
      <trkpt lat="41.93745" lon="2.34542">
        <ele>594.6</ele>
        <time>2022-05-21 03:03:42</time>
      </trkpt>
      <trkpt lat="41.93745" lon="2.34546">
        <ele>594.8</ele>
        <time>2022-05-21 03:03:43</time>
      </trkpt>
      <trkpt lat="41.93745" lon="2.3455">
        <ele>594.8</ele>
        <time>2022-05-21 03:03:44</time>
      </trkpt>
      <trkpt lat="41.93744" lon="2.34554">
        <ele>595</ele>
        <time>2022-05-21 03:03:45</time>
      </trkpt>
      <trkpt lat="41.93744" lon="2.34557">
        <ele>595.2</ele>
        <time>2022-05-21 03:03:46</time>
      </trkpt>
      <trkpt lat="41.93745" lon="2.34561">
        <ele>595.4</ele>
        <time>2022-05-21 03:03:47</time>
      </trkpt>
      <trkpt lat="41.93745" lon="2.34564">
        <ele>595.6</ele>
        <time>2022-05-21 03:03:48</time>
      </trkpt>
      <trkpt lat="41.93744" lon="2.34566">
        <ele>595.6</ele>
        <time>2022-05-21 03:03:49</time>
      </trkpt>
      <trkpt lat="41.93744" lon="2.34569">
        <ele>595.8</ele>
        <time>2022-05-21 03:03:50</time>
      </trkpt>
      <trkpt lat="41.93743" lon="2.34572">
        <ele>596</ele>
        <time>2022-05-21 03:03:51</time>
      </trkpt>
      <trkpt lat="41.93743" lon="2.34575">
        <ele>596</ele>
        <time>2022-05-21 03:03:52</time>
      </trkpt>
      <trkpt lat="41.93743" lon="2.34578">
        <ele>596.2</ele>
        <time>2022-05-21 03:03:53</time>
      </trkpt>
      <trkpt lat="41.93743" lon="2.34581">
        <ele>596.4</ele>
        <time>2022-05-21 03:03:54</time>
      </trkpt>
      <trkpt lat="41.93743" lon="2.34584">
        <ele>596.6</ele>
        <time>2022-05-21 03:03:55</time>
      </trkpt>
      <trkpt lat="41.93743" lon="2.34588">
        <ele>596.6</ele>
        <time>2022-05-21 03:03:56</time>
      </trkpt>
      <trkpt lat="41.93743" lon="2.34591">
        <ele>596.8</ele>
        <time>2022-05-21 03:03:57</time>
      </trkpt>
      <trkpt lat="41.93742" lon="2.34596">
        <ele>597</ele>
        <time>2022-05-21 03:03:58</time>
      </trkpt>
      <trkpt lat="41.93742" lon="2.346">
        <ele>597.2</ele>
        <time>2022-05-21 03:03:59</time>
      </trkpt>
      <trkpt lat="41.93742" lon="2.34604">
        <ele>597.2</ele>
        <time>2022-05-21 03:04:00</time>
      </trkpt>
      <trkpt lat="41.93742" lon="2.34609">
        <ele>597.4</ele>
        <time>2022-05-21 03:04:01</time>
      </trkpt>
      <trkpt lat="41.93741" lon="2.34613">
        <ele>597.6</ele>
        <time>2022-05-21 03:04:02</time>
      </trkpt>
      <trkpt lat="41.9374" lon="2.34618">
        <ele>597.8</ele>
        <time>2022-05-21 03:04:03</time>
      </trkpt>
      <trkpt lat="41.9374" lon="2.34622">
        <ele>598</ele>
        <time>2022-05-21 03:04:04</time>
      </trkpt>
      <trkpt lat="41.9374" lon="2.34626">
        <ele>598</ele>
        <time>2022-05-21 03:04:05</time>
      </trkpt>
      <trkpt lat="41.93739" lon="2.3463">
        <ele>598.2</ele>
        <time>2022-05-21 03:04:06</time>
      </trkpt>
      <trkpt lat="41.93739" lon="2.34634">
        <ele>598.4</ele>
        <time>2022-05-21 03:04:07</time>
      </trkpt>
      <trkpt lat="41.93739" lon="2.34637">
        <ele>598.6</ele>
        <time>2022-05-21 03:04:08</time>
      </trkpt>
      <trkpt lat="41.93739" lon="2.34641">
        <ele>598.8</ele>
        <time>2022-05-21 03:04:09</time>
      </trkpt>
      <trkpt lat="41.93738" lon="2.34645">
        <ele>598.8</ele>
        <time>2022-05-21 03:04:10</time>
      </trkpt>
      <trkpt lat="41.93737" lon="2.3465">
        <ele>599</ele>
        <time>2022-05-21 03:04:11</time>
      </trkpt>
      <trkpt lat="41.93737" lon="2.34654">
        <ele>599.2</ele>
        <time>2022-05-21 03:04:12</time>
      </trkpt>
      <trkpt lat="41.93737" lon="2.34658">
        <ele>599.4</ele>
        <time>2022-05-21 03:04:13</time>
      </trkpt>
      <trkpt lat="41.93736" lon="2.34661">
        <ele>599.4</ele>
        <time>2022-05-21 03:04:14</time>
      </trkpt>
      <trkpt lat="41.93736" lon="2.34665">
        <ele>599.6</ele>
        <time>2022-05-21 03:04:15</time>
      </trkpt>
      <trkpt lat="41.93736" lon="2.34668">
        <ele>599.8</ele>
        <time>2022-05-21 03:04:16</time>
      </trkpt>
      <trkpt lat="41.93736" lon="2.34672">
        <ele>600</ele>
        <time>2022-05-21 03:04:17</time>
      </trkpt>
      <trkpt lat="41.93735" lon="2.34675">
        <ele>600</ele>
        <time>2022-05-21 03:04:18</time>
      </trkpt>
      <trkpt lat="41.93734" lon="2.34679">
        <ele>600.2</ele>
        <time>2022-05-21 03:04:19</time>
      </trkpt>
      <trkpt lat="41.93734" lon="2.34681">
        <ele>600.4</ele>
        <time>2022-05-21 03:04:20</time>
      </trkpt>
      <trkpt lat="41.93732" lon="2.34684">
        <ele>600.6</ele>
        <time>2022-05-21 03:04:21</time>
      </trkpt>
      <trkpt lat="41.93732" lon="2.34686">
        <ele>600.8</ele>
        <time>2022-05-21 03:04:22</time>
      </trkpt>
      <trkpt lat="41.93731" lon="2.34688">
        <ele>600.8</ele>
        <time>2022-05-21 03:04:23</time>
      </trkpt>
      <trkpt lat="41.93731" lon="2.3469">
        <ele>601</ele>
        <time>2022-05-21 03:04:24</time>
      </trkpt>
      <trkpt lat="41.9373" lon="2.34692">
        <ele>601.2</ele>
        <time>2022-05-21 03:04:25</time>
      </trkpt>
      <trkpt lat="41.93728" lon="2.34696">
        <ele>601.2</ele>
        <time>2022-05-21 03:04:26</time>
      </trkpt>
      <trkpt lat="41.93727" lon="2.347">
        <ele>601.4</ele>
        <time>2022-05-21 03:04:27</time>
      </trkpt>
      <trkpt lat="41.93726" lon="2.34705">
        <ele>601.6</ele>
        <time>2022-05-21 03:04:28</time>
      </trkpt>
      <trkpt lat="41.93724" lon="2.34709">
        <ele>601.8</ele>
        <time>2022-05-21 03:04:29</time>
      </trkpt>
      <trkpt lat="41.93724" lon="2.34712">
        <ele>602</ele>
        <time>2022-05-21 03:04:30</time>
      </trkpt>
      <trkpt lat="41.93723" lon="2.34714">
        <ele>602</ele>
        <time>2022-05-21 03:04:31</time>
      </trkpt>
      <trkpt lat="41.93722" lon="2.34717">
        <ele>602.2</ele>
        <time>2022-05-21 03:04:32</time>
      </trkpt>
      <trkpt lat="41.93721" lon="2.3472">
        <ele>602.4</ele>
        <time>2022-05-21 03:04:33</time>
      </trkpt>
      <trkpt lat="41.93719" lon="2.34724">
        <ele>602.6</ele>
        <time>2022-05-21 03:04:34</time>
      </trkpt>
      <trkpt lat="41.93718" lon="2.34728">
        <ele>602.6</ele>
        <time>2022-05-21 03:04:35</time>
      </trkpt>
      <trkpt lat="41.93715" lon="2.34732">
        <ele>602.8</ele>
        <time>2022-05-21 03:04:36</time>
      </trkpt>
      <trkpt lat="41.93714" lon="2.34735">
        <ele>603</ele>
        <time>2022-05-21 03:04:37</time>
      </trkpt>
      <trkpt lat="41.93713" lon="2.34738">
        <ele>603.2</ele>
        <time>2022-05-21 03:04:38</time>
      </trkpt>
      <trkpt lat="41.93711" lon="2.3474">
        <ele>603.2</ele>
        <time>2022-05-21 03:04:39</time>
      </trkpt>
      <trkpt lat="41.9371" lon="2.34744">
        <ele>603.4</ele>
        <time>2022-05-21 03:04:40</time>
      </trkpt>
      <trkpt lat="41.93708" lon="2.34746">
        <ele>603.4</ele>
        <time>2022-05-21 03:04:41</time>
      </trkpt>
      <trkpt lat="41.93707" lon="2.34749">
        <ele>603.6</ele>
        <time>2022-05-21 03:04:42</time>
      </trkpt>
      <trkpt lat="41.93707" lon="2.34751">
        <ele>603.8</ele>
        <time>2022-05-21 03:04:43</time>
      </trkpt>
      <trkpt lat="41.93706" lon="2.34753">
        <ele>604</ele>
        <time>2022-05-21 03:04:44</time>
      </trkpt>
      <trkpt lat="41.93705" lon="2.34756">
        <ele>604</ele>
        <time>2022-05-21 03:04:45</time>
      </trkpt>
      <trkpt lat="41.93704" lon="2.34759">
        <ele>604.2</ele>
        <time>2022-05-21 03:04:46</time>
      </trkpt>
      <trkpt lat="41.93703" lon="2.34762">
        <ele>604.4</ele>
        <time>2022-05-21 03:04:47</time>
      </trkpt>
      <trkpt lat="41.93702" lon="2.34765">
        <ele>604.4</ele>
        <time>2022-05-21 03:04:48</time>
      </trkpt>
      <trkpt lat="41.93701" lon="2.34768">
        <ele>604.6</ele>
        <time>2022-05-21 03:04:49</time>
      </trkpt>
      <trkpt lat="41.937" lon="2.3477">
        <ele>604.8</ele>
        <time>2022-05-21 03:04:50</time>
      </trkpt>
      <trkpt lat="41.93699" lon="2.34773">
        <ele>605</ele>
        <time>2022-05-21 03:04:51</time>
      </trkpt>
      <trkpt lat="41.93698" lon="2.34777">
        <ele>605</ele>
        <time>2022-05-21 03:04:52</time>
      </trkpt>
      <trkpt lat="41.93697" lon="2.34779">
        <ele>605.2</ele>
        <time>2022-05-21 03:04:53</time>
      </trkpt>
      <trkpt lat="41.93696" lon="2.34781">
        <ele>605.4</ele>
        <time>2022-05-21 03:04:54</time>
      </trkpt>
      <trkpt lat="41.93695" lon="2.34784">
        <ele>605.6</ele>
        <time>2022-05-21 03:04:55</time>
      </trkpt>
      <trkpt lat="41.93694" lon="2.34786">
        <ele>605.8</ele>
        <time>2022-05-21 03:04:56</time>
      </trkpt>
      <trkpt lat="41.93692" lon="2.34789">
        <ele>605.8</ele>
        <time>2022-05-21 03:04:57</time>
      </trkpt>
      <trkpt lat="41.93691" lon="2.34791">
        <ele>606</ele>
        <time>2022-05-21 03:04:58</time>
      </trkpt>
      <trkpt lat="41.93689" lon="2.34794">
        <ele>606.2</ele>
        <time>2022-05-21 03:04:59</time>
      </trkpt>
      <trkpt lat="41.93688" lon="2.34797">
        <ele>606.2</ele>
        <time>2022-05-21 03:05:00</time>
      </trkpt>
      <trkpt lat="41.93686" lon="2.348">
        <ele>606.4</ele>
        <time>2022-05-21 03:05:01</time>
      </trkpt>
      <trkpt lat="41.93685" lon="2.34804">
        <ele>606.6</ele>
        <time>2022-05-21 03:05:02</time>
      </trkpt>
      <trkpt lat="41.93684" lon="2.34808">
        <ele>606.6</ele>
        <time>2022-05-21 03:05:03</time>
      </trkpt>
      <trkpt lat="41.93684" lon="2.34811">
        <ele>606.8</ele>
        <time>2022-05-21 03:05:04</time>
      </trkpt>
      <trkpt lat="41.93683" lon="2.34814">
        <ele>607</ele>
        <time>2022-05-21 03:05:05</time>
      </trkpt>
      <trkpt lat="41.93682" lon="2.34815">
        <ele>607</ele>
        <time>2022-05-21 03:05:06</time>
      </trkpt>
      <trkpt lat="41.93681" lon="2.34816">
        <ele>607.2</ele>
        <time>2022-05-21 03:05:07</time>
      </trkpt>
      <trkpt lat="41.9368" lon="2.34819">
        <ele>607.4</ele>
        <time>2022-05-21 03:05:08</time>
      </trkpt>
      <trkpt lat="41.93679" lon="2.34821">
        <ele>607.4</ele>
        <time>2022-05-21 03:05:09</time>
      </trkpt>
      <trkpt lat="41.93678" lon="2.34823">
        <ele>607.6</ele>
        <time>2022-05-21 03:05:10</time>
      </trkpt>
      <trkpt lat="41.93676" lon="2.34825">
        <ele>607.8</ele>
        <time>2022-05-21 03:05:11</time>
      </trkpt>
      <trkpt lat="41.93675" lon="2.34827">
        <ele>607.8</ele>
        <time>2022-05-21 03:05:12</time>
      </trkpt>
      <trkpt lat="41.93673" lon="2.34829">
        <ele>608</ele>
        <time>2022-05-21 03:05:13</time>
      </trkpt>
      <trkpt lat="41.93672" lon="2.34832">
        <ele>608.2</ele>
        <time>2022-05-21 03:05:14</time>
      </trkpt>
      <trkpt lat="41.93671" lon="2.34835">
        <ele>608.2</ele>
        <time>2022-05-21 03:05:15</time>
      </trkpt>
      <trkpt lat="41.93669" lon="2.34838">
        <ele>608.4</ele>
        <time>2022-05-21 03:05:16</time>
      </trkpt>
      <trkpt lat="41.93667" lon="2.34842">
        <ele>608.4</ele>
        <time>2022-05-21 03:05:17</time>
      </trkpt>
      <trkpt lat="41.93664" lon="2.34848">
        <ele>608.6</ele>
        <time>2022-05-21 03:05:18</time>
      </trkpt>
      <trkpt lat="41.93662" lon="2.34851">
        <ele>608.8</ele>
        <time>2022-05-21 03:05:19</time>
      </trkpt>
      <trkpt lat="41.93661" lon="2.34855">
        <ele>608.8</ele>
        <time>2022-05-21 03:05:20</time>
      </trkpt>
      <trkpt lat="41.9366" lon="2.34858">
        <ele>609</ele>
        <time>2022-05-21 03:05:21</time>
      </trkpt>
      <trkpt lat="41.93658" lon="2.34862">
        <ele>609.2</ele>
        <time>2022-05-21 03:05:22</time>
      </trkpt>
      <trkpt lat="41.93657" lon="2.34866">
        <ele>609.2</ele>
        <time>2022-05-21 03:05:23</time>
      </trkpt>
      <trkpt lat="41.93656" lon="2.34869">
        <ele>609.4</ele>
        <time>2022-05-21 03:05:24</time>
      </trkpt>
      <trkpt lat="41.93655" lon="2.34872">
        <ele>609.6</ele>
        <time>2022-05-21 03:05:25</time>
      </trkpt>
      <trkpt lat="41.93654" lon="2.34875">
        <ele>609.6</ele>
        <time>2022-05-21 03:05:26</time>
      </trkpt>
      <trkpt lat="41.93653" lon="2.34879">
        <ele>609.8</ele>
        <time>2022-05-21 03:05:27</time>
      </trkpt>
      <trkpt lat="41.93651" lon="2.34882">
        <ele>610</ele>
        <time>2022-05-21 03:05:28</time>
      </trkpt>
      <trkpt lat="41.9365" lon="2.34886">
        <ele>610</ele>
        <time>2022-05-21 03:05:29</time>
      </trkpt>
      <trkpt lat="41.93648" lon="2.34889">
        <ele>610.2</ele>
        <time>2022-05-21 03:05:30</time>
      </trkpt>
      <trkpt lat="41.93647" lon="2.34892">
        <ele>610.4</ele>
        <time>2022-05-21 03:05:31</time>
      </trkpt>
      <trkpt lat="41.93645" lon="2.34896">
        <ele>610.4</ele>
        <time>2022-05-21 03:05:32</time>
      </trkpt>
      <trkpt lat="41.93644" lon="2.34899">
        <ele>610.6</ele>
        <time>2022-05-21 03:05:33</time>
      </trkpt>
      <trkpt lat="41.93643" lon="2.34902">
        <ele>610.8</ele>
        <time>2022-05-21 03:05:34</time>
      </trkpt>
      <trkpt lat="41.93642" lon="2.34905">
        <ele>610.8</ele>
        <time>2022-05-21 03:05:35</time>
      </trkpt>
      <trkpt lat="41.9364" lon="2.34907">
        <ele>611</ele>
        <time>2022-05-21 03:05:36</time>
      </trkpt>
      <trkpt lat="41.93638" lon="2.34909">
        <ele>611.2</ele>
        <time>2022-05-21 03:05:37</time>
      </trkpt>
      <trkpt lat="41.93636" lon="2.34911">
        <ele>611.2</ele>
        <time>2022-05-21 03:05:38</time>
      </trkpt>
      <trkpt lat="41.93634" lon="2.34913">
        <ele>611.4</ele>
        <time>2022-05-21 03:05:39</time>
      </trkpt>
      <trkpt lat="41.9363" lon="2.34915">
        <ele>611.4</ele>
        <time>2022-05-21 03:05:40</time>
      </trkpt>
      <trkpt lat="41.93628" lon="2.34919">
        <ele>611.6</ele>
        <time>2022-05-21 03:05:41</time>
      </trkpt>
      <trkpt lat="41.93626" lon="2.34922">
        <ele>611.6</ele>
        <time>2022-05-21 03:05:42</time>
      </trkpt>
      <trkpt lat="41.93624" lon="2.34925">
        <ele>611.8</ele>
        <time>2022-05-21 03:05:43</time>
      </trkpt>
      <trkpt lat="41.93623" lon="2.34928">
        <ele>611.8</ele>
        <time>2022-05-21 03:05:44</time>
      </trkpt>
      <trkpt lat="41.93621" lon="2.34932">
        <ele>612</ele>
        <time>2022-05-21 03:05:45</time>
      </trkpt>
      <trkpt lat="41.93617" lon="2.34936">
        <ele>612.2</ele>
        <time>2022-05-21 03:05:46</time>
      </trkpt>
      <trkpt lat="41.93614" lon="2.3494">
        <ele>612.2</ele>
        <time>2022-05-21 03:05:47</time>
      </trkpt>
      <trkpt lat="41.93611" lon="2.34944">
        <ele>612.4</ele>
        <time>2022-05-21 03:05:48</time>
      </trkpt>
      <trkpt lat="41.93608" lon="2.34947">
        <ele>612.6</ele>
        <time>2022-05-21 03:05:49</time>
      </trkpt>
      <trkpt lat="41.93605" lon="2.34949">
        <ele>612.8</ele>
        <time>2022-05-21 03:05:50</time>
      </trkpt>
      <trkpt lat="41.93601" lon="2.34952">
        <ele>612.8</ele>
        <time>2022-05-21 03:05:51</time>
      </trkpt>
      <trkpt lat="41.93598" lon="2.34955">
        <ele>613</ele>
        <time>2022-05-21 03:05:52</time>
      </trkpt>
      <trkpt lat="41.93595" lon="2.34957">
        <ele>613.2</ele>
        <time>2022-05-21 03:05:53</time>
      </trkpt>
      <trkpt lat="41.93592" lon="2.34958">
        <ele>613.4</ele>
        <time>2022-05-21 03:05:54</time>
      </trkpt>
      <trkpt lat="41.93589" lon="2.3496">
        <ele>613.6</ele>
        <time>2022-05-21 03:05:55</time>
      </trkpt>
      <trkpt lat="41.93586" lon="2.34962">
        <ele>613.6</ele>
        <time>2022-05-21 03:05:56</time>
      </trkpt>
      <trkpt lat="41.93584" lon="2.34964">
        <ele>613.8</ele>
        <time>2022-05-21 03:05:57</time>
      </trkpt>
      <trkpt lat="41.93582" lon="2.34967">
        <ele>614</ele>
        <time>2022-05-21 03:05:58</time>
      </trkpt>
      <trkpt lat="41.9358" lon="2.34969">
        <ele>614</ele>
        <time>2022-05-21 03:05:59</time>
      </trkpt>
      <trkpt lat="41.93578" lon="2.3497">
        <ele>614</ele>
        <time>2022-05-21 03:06:00</time>
      </trkpt>
      <trkpt lat="41.93576" lon="2.34972">
        <ele>614.2</ele>
        <time>2022-05-21 03:06:01</time>
      </trkpt>
      <trkpt lat="41.93575" lon="2.34974">
        <ele>614.4</ele>
        <time>2022-05-21 03:06:02</time>
      </trkpt>
      <trkpt lat="41.93575" lon="2.34976">
        <ele>614.4</ele>
        <time>2022-05-21 03:06:03</time>
      </trkpt>
      <trkpt lat="41.93574" lon="2.34978">
        <ele>614.6</ele>
        <time>2022-05-21 03:06:04</time>
      </trkpt>
      <trkpt lat="41.93573" lon="2.34981">
        <ele>614.8</ele>
        <time>2022-05-21 03:06:05</time>
      </trkpt>
      <trkpt lat="41.93571" lon="2.34985">
        <ele>614.8</ele>
        <time>2022-05-21 03:06:06</time>
      </trkpt>
      <trkpt lat="41.9357" lon="2.34988">
        <ele>615</ele>
        <time>2022-05-21 03:06:07</time>
      </trkpt>
      <trkpt lat="41.9357" lon="2.34992">
        <ele>615</ele>
        <time>2022-05-21 03:06:08</time>
      </trkpt>
      <trkpt lat="41.9357" lon="2.34996">
        <ele>615.2</ele>
        <time>2022-05-21 03:06:09</time>
      </trkpt>
      <trkpt lat="41.93569" lon="2.35">
        <ele>615.4</ele>
        <time>2022-05-21 03:06:10</time>
      </trkpt>
      <trkpt lat="41.93568" lon="2.35004">
        <ele>615.4</ele>
        <time>2022-05-21 03:06:11</time>
      </trkpt>
      <trkpt lat="41.93567" lon="2.35009">
        <ele>615.6</ele>
        <time>2022-05-21 03:06:12</time>
      </trkpt>
      <trkpt lat="41.93567" lon="2.35013">
        <ele>615.6</ele>
        <time>2022-05-21 03:06:13</time>
      </trkpt>
      <trkpt lat="41.93567" lon="2.35016">
        <ele>615.8</ele>
        <time>2022-05-21 03:06:14</time>
      </trkpt>
      <trkpt lat="41.93566" lon="2.35019">
        <ele>616</ele>
        <time>2022-05-21 03:06:15</time>
      </trkpt>
      <trkpt lat="41.93565" lon="2.35023">
        <ele>616</ele>
        <time>2022-05-21 03:06:16</time>
      </trkpt>
      <trkpt lat="41.93566" lon="2.35028">
        <ele>616.2</ele>
        <time>2022-05-21 03:06:17</time>
      </trkpt>
      <trkpt lat="41.93567" lon="2.35032">
        <ele>616.4</ele>
        <time>2022-05-21 03:06:18</time>
      </trkpt>
      <trkpt lat="41.93568" lon="2.35035">
        <ele>616.4</ele>
        <time>2022-05-21 03:06:19</time>
      </trkpt>
      <trkpt lat="41.93569" lon="2.35038">
        <ele>616.6</ele>
        <time>2022-05-21 03:06:20</time>
      </trkpt>
      <trkpt lat="41.9357" lon="2.35041">
        <ele>616.8</ele>
        <time>2022-05-21 03:06:21</time>
      </trkpt>
      <trkpt lat="41.93572" lon="2.35043">
        <ele>616.8</ele>
        <time>2022-05-21 03:06:22</time>
      </trkpt>
      <trkpt lat="41.93573" lon="2.35046">
        <ele>617</ele>
        <time>2022-05-21 03:06:23</time>
      </trkpt>
      <trkpt lat="41.93575" lon="2.35048">
        <ele>617.2</ele>
        <time>2022-05-21 03:06:24</time>
      </trkpt>
      <trkpt lat="41.93577" lon="2.35051">
        <ele>617.2</ele>
        <time>2022-05-21 03:06:25</time>
      </trkpt>
      <trkpt lat="41.93579" lon="2.35053">
        <ele>617.4</ele>
        <time>2022-05-21 03:06:26</time>
      </trkpt>
      <trkpt lat="41.93581" lon="2.35055">
        <ele>617.6</ele>
        <time>2022-05-21 03:06:27</time>
      </trkpt>
      <trkpt lat="41.93583" lon="2.35057">
        <ele>617.6</ele>
        <time>2022-05-21 03:06:28</time>
      </trkpt>
      <trkpt lat="41.93586" lon="2.35059">
        <ele>617.8</ele>
        <time>2022-05-21 03:06:29</time>
      </trkpt>
      <trkpt lat="41.93587" lon="2.35062">
        <ele>618</ele>
        <time>2022-05-21 03:06:30</time>
      </trkpt>
      <trkpt lat="41.93589" lon="2.35064">
        <ele>618</ele>
        <time>2022-05-21 03:06:31</time>
      </trkpt>
      <trkpt lat="41.9359" lon="2.35067">
        <ele>618.2</ele>
        <time>2022-05-21 03:06:32</time>
      </trkpt>
      <trkpt lat="41.93592" lon="2.35069">
        <ele>618.2</ele>
        <time>2022-05-21 03:06:33</time>
      </trkpt>
      <trkpt lat="41.93593" lon="2.35073">
        <ele>618.4</ele>
        <time>2022-05-21 03:06:34</time>
      </trkpt>
      <trkpt lat="41.93594" lon="2.35076">
        <ele>618.6</ele>
        <time>2022-05-21 03:06:35</time>
      </trkpt>
      <trkpt lat="41.93595" lon="2.35079">
        <ele>618.6</ele>
        <time>2022-05-21 03:06:36</time>
      </trkpt>
      <trkpt lat="41.93596" lon="2.35083">
        <ele>618.8</ele>
        <time>2022-05-21 03:06:37</time>
      </trkpt>
      <trkpt lat="41.93597" lon="2.35088">
        <ele>619</ele>
        <time>2022-05-21 03:06:38</time>
      </trkpt>
      <trkpt lat="41.93599" lon="2.35091">
        <ele>619</ele>
        <time>2022-05-21 03:06:39</time>
      </trkpt>
      <trkpt lat="41.936" lon="2.35095">
        <ele>619.2</ele>
        <time>2022-05-21 03:06:40</time>
      </trkpt>
      <trkpt lat="41.93601" lon="2.35099">
        <ele>619.4</ele>
        <time>2022-05-21 03:06:41</time>
      </trkpt>
      <trkpt lat="41.93602" lon="2.35102">
        <ele>619.4</ele>
        <time>2022-05-21 03:06:42</time>
      </trkpt>
      <trkpt lat="41.93602" lon="2.35106">
        <ele>619.6</ele>
        <time>2022-05-21 03:06:43</time>
      </trkpt>
      <trkpt lat="41.93602" lon="2.35109">
        <ele>619.6</ele>
        <time>2022-05-21 03:06:44</time>
      </trkpt>
      <trkpt lat="41.93602" lon="2.35112">
        <ele>619.8</ele>
        <time>2022-05-21 03:06:45</time>
      </trkpt>
      <trkpt lat="41.93602" lon="2.35114">
        <ele>620</ele>
        <time>2022-05-21 03:06:46</time>
      </trkpt>
      <trkpt lat="41.93601" lon="2.35116">
        <ele>620.2</ele>
        <time>2022-05-21 03:06:47</time>
      </trkpt>
      <trkpt lat="41.93601" lon="2.35119">
        <ele>620.4</ele>
        <time>2022-05-21 03:06:48</time>
      </trkpt>
      <trkpt lat="41.936" lon="2.35121">
        <ele>620.4</ele>
        <time>2022-05-21 03:06:49</time>
      </trkpt>
      <trkpt lat="41.936" lon="2.35124">
        <ele>620.6</ele>
        <time>2022-05-21 03:06:50</time>
      </trkpt>
      <trkpt lat="41.93599" lon="2.35126">
        <ele>620.8</ele>
        <time>2022-05-21 03:06:51</time>
      </trkpt>
      <trkpt lat="41.93598" lon="2.35129">
        <ele>621</ele>
        <time>2022-05-21 03:06:52</time>
      </trkpt>
      <trkpt lat="41.93597" lon="2.35132">
        <ele>621</ele>
        <time>2022-05-21 03:06:53</time>
      </trkpt>
      <trkpt lat="41.93596" lon="2.35135">
        <ele>621.2</ele>
        <time>2022-05-21 03:06:54</time>
      </trkpt>
      <trkpt lat="41.93595" lon="2.35139">
        <ele>621.4</ele>
        <time>2022-05-21 03:06:55</time>
      </trkpt>
      <trkpt lat="41.93595" lon="2.35142">
        <ele>621.4</ele>
        <time>2022-05-21 03:06:56</time>
      </trkpt>
      <trkpt lat="41.93595" lon="2.35146">
        <ele>621.6</ele>
        <time>2022-05-21 03:06:57</time>
      </trkpt>
      <trkpt lat="41.93594" lon="2.3515">
        <ele>621.8</ele>
        <time>2022-05-21 03:06:58</time>
      </trkpt>
      <trkpt lat="41.93595" lon="2.35154">
        <ele>621.8</ele>
        <time>2022-05-21 03:06:59</time>
      </trkpt>
      <trkpt lat="41.93595" lon="2.35159">
        <ele>622</ele>
        <time>2022-05-21 03:07:00</time>
      </trkpt>
      <trkpt lat="41.93596" lon="2.35162">
        <ele>622.2</ele>
        <time>2022-05-21 03:07:01</time>
      </trkpt>
      <trkpt lat="41.93596" lon="2.35166">
        <ele>622.4</ele>
        <time>2022-05-21 03:07:02</time>
      </trkpt>
      <trkpt lat="41.93598" lon="2.35169">
        <ele>622.6</ele>
        <time>2022-05-21 03:07:03</time>
      </trkpt>
      <trkpt lat="41.93599" lon="2.35172">
        <ele>622.6</ele>
        <time>2022-05-21 03:07:04</time>
      </trkpt>
      <trkpt lat="41.936" lon="2.35174">
        <ele>622.8</ele>
        <time>2022-05-21 03:07:05</time>
      </trkpt>
      <trkpt lat="41.93601" lon="2.35178">
        <ele>623</ele>
        <time>2022-05-21 03:07:06</time>
      </trkpt>
      <trkpt lat="41.93602" lon="2.35182">
        <ele>623.2</ele>
        <time>2022-05-21 03:07:07</time>
      </trkpt>
      <trkpt lat="41.93604" lon="2.35184">
        <ele>623.2</ele>
        <time>2022-05-21 03:07:08</time>
      </trkpt>
      <trkpt lat="41.93605" lon="2.35187">
        <ele>623.4</ele>
        <time>2022-05-21 03:07:09</time>
      </trkpt>
      <trkpt lat="41.93607" lon="2.3519">
        <ele>623.6</ele>
        <time>2022-05-21 03:07:10</time>
      </trkpt>
      <trkpt lat="41.93608" lon="2.35193">
        <ele>623.6</ele>
        <time>2022-05-21 03:07:11</time>
      </trkpt>
      <trkpt lat="41.93609" lon="2.35196">
        <ele>623.8</ele>
        <time>2022-05-21 03:07:12</time>
      </trkpt>
      <trkpt lat="41.9361" lon="2.35199">
        <ele>624</ele>
        <time>2022-05-21 03:07:13</time>
      </trkpt>
      <trkpt lat="41.93612" lon="2.35202">
        <ele>624.2</ele>
        <time>2022-05-21 03:07:14</time>
      </trkpt>
      <trkpt lat="41.93615" lon="2.35205">
        <ele>624.2</ele>
        <time>2022-05-21 03:07:15</time>
      </trkpt>
      <trkpt lat="41.93616" lon="2.35208">
        <ele>624.4</ele>
        <time>2022-05-21 03:07:16</time>
      </trkpt>
      <trkpt lat="41.93618" lon="2.35211">
        <ele>624.6</ele>
        <time>2022-05-21 03:07:17</time>
      </trkpt>
      <trkpt lat="41.9362" lon="2.35214">
        <ele>624.6</ele>
        <time>2022-05-21 03:07:18</time>
      </trkpt>
      <trkpt lat="41.93621" lon="2.35217">
        <ele>624.8</ele>
        <time>2022-05-21 03:07:19</time>
      </trkpt>
      <trkpt lat="41.93623" lon="2.3522">
        <ele>625</ele>
        <time>2022-05-21 03:07:20</time>
      </trkpt>
      <trkpt lat="41.93624" lon="2.35224">
        <ele>625.2</ele>
        <time>2022-05-21 03:07:21</time>
      </trkpt>
      <trkpt lat="41.93626" lon="2.35226">
        <ele>625.2</ele>
        <time>2022-05-21 03:07:22</time>
      </trkpt>
      <trkpt lat="41.93628" lon="2.3523">
        <ele>625.4</ele>
        <time>2022-05-21 03:07:23</time>
      </trkpt>
      <trkpt lat="41.93629" lon="2.35233">
        <ele>625.6</ele>
        <time>2022-05-21 03:07:24</time>
      </trkpt>
      <trkpt lat="41.9363" lon="2.35236">
        <ele>625.8</ele>
        <time>2022-05-21 03:07:25</time>
      </trkpt>
      <trkpt lat="41.93632" lon="2.35239">
        <ele>625.8</ele>
        <time>2022-05-21 03:07:26</time>
      </trkpt>
      <trkpt lat="41.93635" lon="2.35243">
        <ele>626</ele>
        <time>2022-05-21 03:07:27</time>
      </trkpt>
      <trkpt lat="41.93637" lon="2.35246">
        <ele>626.2</ele>
        <time>2022-05-21 03:07:28</time>
      </trkpt>
      <trkpt lat="41.93638" lon="2.35249">
        <ele>626.4</ele>
        <time>2022-05-21 03:07:29</time>
      </trkpt>
      <trkpt lat="41.93639" lon="2.35252">
        <ele>626.4</ele>
        <time>2022-05-21 03:07:30</time>
      </trkpt>
      <trkpt lat="41.93641" lon="2.35256">
        <ele>626.6</ele>
        <time>2022-05-21 03:07:31</time>
      </trkpt>
      <trkpt lat="41.93642" lon="2.35259">
        <ele>626.8</ele>
        <time>2022-05-21 03:07:32</time>
      </trkpt>
      <trkpt lat="41.93644" lon="2.35263">
        <ele>627</ele>
        <time>2022-05-21 03:07:33</time>
      </trkpt>
      <trkpt lat="41.93644" lon="2.35267">
        <ele>627</ele>
        <time>2022-05-21 03:07:34</time>
      </trkpt>
      <trkpt lat="41.93645" lon="2.35271">
        <ele>627.2</ele>
        <time>2022-05-21 03:07:35</time>
      </trkpt>
      <trkpt lat="41.93645" lon="2.35274">
        <ele>627.4</ele>
        <time>2022-05-21 03:07:36</time>
      </trkpt>
      <trkpt lat="41.93645" lon="2.35277">
        <ele>627.6</ele>
        <time>2022-05-21 03:07:37</time>
      </trkpt>
      <trkpt lat="41.93645" lon="2.35279">
        <ele>627.6</ele>
        <time>2022-05-21 03:07:38</time>
      </trkpt>
      <trkpt lat="41.93645" lon="2.35282">
        <ele>627.8</ele>
        <time>2022-05-21 03:07:39</time>
      </trkpt>
      <trkpt lat="41.93644" lon="2.35285">
        <ele>628</ele>
        <time>2022-05-21 03:07:40</time>
      </trkpt>
      <trkpt lat="41.93644" lon="2.35287">
        <ele>628.2</ele>
        <time>2022-05-21 03:07:41</time>
      </trkpt>
      <trkpt lat="41.93643" lon="2.3529">
        <ele>628.4</ele>
        <time>2022-05-21 03:07:42</time>
      </trkpt>
      <trkpt lat="41.93642" lon="2.35292">
        <ele>628.6</ele>
        <time>2022-05-21 03:07:43</time>
      </trkpt>
      <trkpt lat="41.93642" lon="2.35295">
        <ele>628.8</ele>
        <time>2022-05-21 03:07:44</time>
      </trkpt>
      <trkpt lat="41.93641" lon="2.35299">
        <ele>628.8</ele>
        <time>2022-05-21 03:07:45</time>
      </trkpt>
      <trkpt lat="41.93641" lon="2.35303">
        <ele>629</ele>
        <time>2022-05-21 03:07:46</time>
      </trkpt>
      <trkpt lat="41.93641" lon="2.35307">
        <ele>629</ele>
        <time>2022-05-21 03:07:47</time>
      </trkpt>
      <trkpt lat="41.9364" lon="2.35311">
        <ele>629.2</ele>
        <time>2022-05-21 03:07:48</time>
      </trkpt>
      <trkpt lat="41.9364" lon="2.35315">
        <ele>629.2</ele>
        <time>2022-05-21 03:07:49</time>
      </trkpt>
      <trkpt lat="41.93641" lon="2.35319">
        <ele>629.4</ele>
        <time>2022-05-21 03:07:50</time>
      </trkpt>
      <trkpt lat="41.93643" lon="2.35323">
        <ele>629.6</ele>
        <time>2022-05-21 03:07:51</time>
      </trkpt>
      <trkpt lat="41.93645" lon="2.35325">
        <ele>629.8</ele>
        <time>2022-05-21 03:07:52</time>
      </trkpt>
      <trkpt lat="41.93647" lon="2.35328">
        <ele>630</ele>
        <time>2022-05-21 03:07:53</time>
      </trkpt>
      <trkpt lat="41.93649" lon="2.35329">
        <ele>630.2</ele>
        <time>2022-05-21 03:07:54</time>
      </trkpt>
      <trkpt lat="41.93652" lon="2.3533">
        <ele>630.4</ele>
        <time>2022-05-21 03:07:55</time>
      </trkpt>
      <trkpt lat="41.93654" lon="2.3533">
        <ele>630.6</ele>
        <time>2022-05-21 03:07:56</time>
      </trkpt>
      <trkpt lat="41.93657" lon="2.3533">
        <ele>630.8</ele>
        <time>2022-05-21 03:07:57</time>
      </trkpt>
      <trkpt lat="41.93659" lon="2.35329">
        <ele>631</ele>
        <time>2022-05-21 03:07:58</time>
      </trkpt>
      <trkpt lat="41.93661" lon="2.35327">
        <ele>631.2</ele>
        <time>2022-05-21 03:07:59</time>
      </trkpt>
      <trkpt lat="41.93663" lon="2.35325">
        <ele>631.6</ele>
        <time>2022-05-21 03:08:00</time>
      </trkpt>
      <trkpt lat="41.93663" lon="2.35323">
        <ele>631.8</ele>
        <time>2022-05-21 03:08:01</time>
      </trkpt>
      <trkpt lat="41.93665" lon="2.35319">
        <ele>632</ele>
        <time>2022-05-21 03:08:02</time>
      </trkpt>
      <trkpt lat="41.93665" lon="2.35316">
        <ele>632.2</ele>
        <time>2022-05-21 03:08:03</time>
      </trkpt>
      <trkpt lat="41.93666" lon="2.35313">
        <ele>632.4</ele>
        <time>2022-05-21 03:08:04</time>
      </trkpt>
      <trkpt lat="41.93666" lon="2.3531">
        <ele>632.6</ele>
        <time>2022-05-21 03:08:05</time>
      </trkpt>
      <trkpt lat="41.93666" lon="2.35307">
        <ele>633</ele>
        <time>2022-05-21 03:08:06</time>
      </trkpt>
      <trkpt lat="41.93666" lon="2.35303">
        <ele>633.2</ele>
        <time>2022-05-21 03:08:07</time>
      </trkpt>
      <trkpt lat="41.93667" lon="2.35299">
        <ele>633.2</ele>
        <time>2022-05-21 03:08:08</time>
      </trkpt>
      <trkpt lat="41.93667" lon="2.35296">
        <ele>633.4</ele>
        <time>2022-05-21 03:08:09</time>
      </trkpt>
      <trkpt lat="41.93668" lon="2.35293">
        <ele>633.6</ele>
        <time>2022-05-21 03:08:10</time>
      </trkpt>
      <trkpt lat="41.93667" lon="2.3529">
        <ele>633.8</ele>
        <time>2022-05-21 03:08:11</time>
      </trkpt>
      <trkpt lat="41.93667" lon="2.35286">
        <ele>634</ele>
        <time>2022-05-21 03:08:12</time>
      </trkpt>
      <trkpt lat="41.93667" lon="2.35283">
        <ele>634.2</ele>
        <time>2022-05-21 03:08:13</time>
      </trkpt>
      <trkpt lat="41.93667" lon="2.35279">
        <ele>634.4</ele>
        <time>2022-05-21 03:08:14</time>
      </trkpt>
      <trkpt lat="41.93667" lon="2.35276">
        <ele>634.6</ele>
        <time>2022-05-21 03:08:15</time>
      </trkpt>
      <trkpt lat="41.93667" lon="2.35272">
        <ele>634.8</ele>
        <time>2022-05-21 03:08:16</time>
      </trkpt>
      <trkpt lat="41.93667" lon="2.35268">
        <ele>634.8</ele>
        <time>2022-05-21 03:08:17</time>
      </trkpt>
      <trkpt lat="41.93667" lon="2.35265">
        <ele>635</ele>
        <time>2022-05-21 03:08:18</time>
      </trkpt>
      <trkpt lat="41.93668" lon="2.35261">
        <ele>635.2</ele>
        <time>2022-05-21 03:08:19</time>
      </trkpt>
      <trkpt lat="41.93668" lon="2.35258">
        <ele>635.4</ele>
        <time>2022-05-21 03:08:20</time>
      </trkpt>
      <trkpt lat="41.93668" lon="2.35254">
        <ele>635.6</ele>
        <time>2022-05-21 03:08:21</time>
      </trkpt>
      <trkpt lat="41.93668" lon="2.35251">
        <ele>635.8</ele>
        <time>2022-05-21 03:08:22</time>
      </trkpt>
      <trkpt lat="41.93667" lon="2.35248">
        <ele>635.8</ele>
        <time>2022-05-21 03:08:23</time>
      </trkpt>
      <trkpt lat="41.93667" lon="2.35245">
        <ele>636</ele>
        <time>2022-05-21 03:08:24</time>
      </trkpt>
      <trkpt lat="41.93667" lon="2.35241">
        <ele>636.2</ele>
        <time>2022-05-21 03:08:25</time>
      </trkpt>
      <trkpt lat="41.93667" lon="2.35238">
        <ele>636.4</ele>
        <time>2022-05-21 03:08:26</time>
      </trkpt>
      <trkpt lat="41.93667" lon="2.35234">
        <ele>636.6</ele>
        <time>2022-05-21 03:08:27</time>
      </trkpt>
      <trkpt lat="41.93667" lon="2.35231">
        <ele>636.8</ele>
        <time>2022-05-21 03:08:28</time>
      </trkpt>
      <trkpt lat="41.93667" lon="2.35227">
        <ele>637</ele>
        <time>2022-05-21 03:08:29</time>
      </trkpt>
      <trkpt lat="41.93667" lon="2.35224">
        <ele>637</ele>
        <time>2022-05-21 03:08:30</time>
      </trkpt>
      <trkpt lat="41.93666" lon="2.35221">
        <ele>637.2</ele>
        <time>2022-05-21 03:08:31</time>
      </trkpt>
      <trkpt lat="41.93666" lon="2.35218">
        <ele>637.4</ele>
        <time>2022-05-21 03:08:32</time>
      </trkpt>
      <trkpt lat="41.93665" lon="2.35215">
        <ele>637.6</ele>
        <time>2022-05-21 03:08:33</time>
      </trkpt>
      <trkpt lat="41.93665" lon="2.35212">
        <ele>637.8</ele>
        <time>2022-05-21 03:08:34</time>
      </trkpt>
      <trkpt lat="41.93664" lon="2.35209">
        <ele>637.8</ele>
        <time>2022-05-21 03:08:35</time>
      </trkpt>
      <trkpt lat="41.93663" lon="2.35205">
        <ele>638</ele>
        <time>2022-05-21 03:08:36</time>
      </trkpt>
      <trkpt lat="41.93662" lon="2.35202">
        <ele>638.2</ele>
        <time>2022-05-21 03:08:37</time>
      </trkpt>
      <trkpt lat="41.93661" lon="2.35198">
        <ele>638.4</ele>
        <time>2022-05-21 03:08:38</time>
      </trkpt>
      <trkpt lat="41.9366" lon="2.35195">
        <ele>638.4</ele>
        <time>2022-05-21 03:08:39</time>
      </trkpt>
      <trkpt lat="41.93659" lon="2.35191">
        <ele>638.6</ele>
        <time>2022-05-21 03:08:40</time>
      </trkpt>
      <trkpt lat="41.93658" lon="2.35188">
        <ele>638.8</ele>
        <time>2022-05-21 03:08:41</time>
      </trkpt>
      <trkpt lat="41.93657" lon="2.35184">
        <ele>639</ele>
        <time>2022-05-21 03:08:42</time>
      </trkpt>
      <trkpt lat="41.93656" lon="2.3518">
        <ele>639</ele>
        <time>2022-05-21 03:08:43</time>
      </trkpt>
      <trkpt lat="41.93655" lon="2.35177">
        <ele>639.2</ele>
        <time>2022-05-21 03:08:44</time>
      </trkpt>
      <trkpt lat="41.93654" lon="2.35173">
        <ele>639.4</ele>
        <time>2022-05-21 03:08:45</time>
      </trkpt>
      <trkpt lat="41.93654" lon="2.35169">
        <ele>639.6</ele>
        <time>2022-05-21 03:08:46</time>
      </trkpt>
      <trkpt lat="41.93653" lon="2.35165">
        <ele>639.6</ele>
        <time>2022-05-21 03:08:47</time>
      </trkpt>
      <trkpt lat="41.93653" lon="2.35162">
        <ele>639.8</ele>
        <time>2022-05-21 03:08:48</time>
      </trkpt>
      <trkpt lat="41.93653" lon="2.35158">
        <ele>639.8</ele>
        <time>2022-05-21 03:08:49</time>
      </trkpt>
      <trkpt lat="41.93653" lon="2.35154">
        <ele>640</ele>
        <time>2022-05-21 03:08:50</time>
      </trkpt>
      <trkpt lat="41.93654" lon="2.3515">
        <ele>640.2</ele>
        <time>2022-05-21 03:08:51</time>
      </trkpt>
      <trkpt lat="41.93656" lon="2.35147">
        <ele>640.2</ele>
        <time>2022-05-21 03:08:52</time>
      </trkpt>
      <trkpt lat="41.93657" lon="2.35145">
        <ele>640.4</ele>
        <time>2022-05-21 03:08:53</time>
      </trkpt>
      <trkpt lat="41.9366" lon="2.35144">
        <ele>640.6</ele>
        <time>2022-05-21 03:08:54</time>
      </trkpt>
      <trkpt lat="41.93662" lon="2.35144">
        <ele>641</ele>
        <time>2022-05-21 03:08:55</time>
      </trkpt>
      <trkpt lat="41.93664" lon="2.35145">
        <ele>641.2</ele>
        <time>2022-05-21 03:08:56</time>
      </trkpt>
      <trkpt lat="41.93666" lon="2.35145">
        <ele>641.4</ele>
        <time>2022-05-21 03:08:57</time>
      </trkpt>
      <trkpt lat="41.93668" lon="2.35146">
        <ele>641.8</ele>
        <time>2022-05-21 03:08:58</time>
      </trkpt>
      <trkpt lat="41.93669" lon="2.35148">
        <ele>642</ele>
        <time>2022-05-21 03:08:59</time>
      </trkpt>
      <trkpt lat="41.9367" lon="2.3515">
        <ele>642.2</ele>
        <time>2022-05-21 03:09:00</time>
      </trkpt>
      <trkpt lat="41.93671" lon="2.35152">
        <ele>642.6</ele>
        <time>2022-05-21 03:09:01</time>
      </trkpt>
      <trkpt lat="41.93672" lon="2.35154">
        <ele>642.8</ele>
        <time>2022-05-21 03:09:02</time>
      </trkpt>
      <trkpt lat="41.93672" lon="2.35157">
        <ele>643</ele>
        <time>2022-05-21 03:09:03</time>
      </trkpt>
      <trkpt lat="41.93672" lon="2.3516">
        <ele>643.2</ele>
        <time>2022-05-21 03:09:04</time>
      </trkpt>
      <trkpt lat="41.93672" lon="2.35162">
        <ele>643.4</ele>
        <time>2022-05-21 03:09:05</time>
      </trkpt>
      <trkpt lat="41.93672" lon="2.35164">
        <ele>643.6</ele>
        <time>2022-05-21 03:09:06</time>
      </trkpt>
      <trkpt lat="41.93672" lon="2.35167">
        <ele>643.8</ele>
        <time>2022-05-21 03:09:07</time>
      </trkpt>
      <trkpt lat="41.93672" lon="2.35169">
        <ele>644</ele>
        <time>2022-05-21 03:09:08</time>
      </trkpt>
      <trkpt lat="41.93673" lon="2.35172">
        <ele>644.2</ele>
        <time>2022-05-21 03:09:09</time>
      </trkpt>
      <trkpt lat="41.93673" lon="2.35175">
        <ele>644.2</ele>
        <time>2022-05-21 03:09:10</time>
      </trkpt>
      <trkpt lat="41.93673" lon="2.35178">
        <ele>644.4</ele>
        <time>2022-05-21 03:09:11</time>
      </trkpt>
      <trkpt lat="41.93673" lon="2.35181">
        <ele>644.6</ele>
        <time>2022-05-21 03:09:12</time>
      </trkpt>
      <trkpt lat="41.93674" lon="2.35184">
        <ele>644.8</ele>
        <time>2022-05-21 03:09:13</time>
      </trkpt>
      <trkpt lat="41.93674" lon="2.35187">
        <ele>644.8</ele>
        <time>2022-05-21 03:09:14</time>
      </trkpt>
      <trkpt lat="41.93674" lon="2.3519">
        <ele>645</ele>
        <time>2022-05-21 03:09:15</time>
      </trkpt>
      <trkpt lat="41.93675" lon="2.35193">
        <ele>645</ele>
        <time>2022-05-21 03:09:16</time>
      </trkpt>
      <trkpt lat="41.93676" lon="2.35196">
        <ele>645.2</ele>
        <time>2022-05-21 03:09:17</time>
      </trkpt>
      <trkpt lat="41.93677" lon="2.35198">
        <ele>645.4</ele>
        <time>2022-05-21 03:09:18</time>
      </trkpt>
      <trkpt lat="41.93678" lon="2.35201">
        <ele>645.6</ele>
        <time>2022-05-21 03:09:19</time>
      </trkpt>
      <trkpt lat="41.93679" lon="2.35204">
        <ele>645.6</ele>
        <time>2022-05-21 03:09:20</time>
      </trkpt>
      <trkpt lat="41.93679" lon="2.35207">
        <ele>645.8</ele>
        <time>2022-05-21 03:09:21</time>
      </trkpt>
      <trkpt lat="41.9368" lon="2.3521">
        <ele>646</ele>
        <time>2022-05-21 03:09:22</time>
      </trkpt>
      <trkpt lat="41.93681" lon="2.35213">
        <ele>646.2</ele>
        <time>2022-05-21 03:09:23</time>
      </trkpt>
      <trkpt lat="41.93682" lon="2.35216">
        <ele>646.2</ele>
        <time>2022-05-21 03:09:24</time>
      </trkpt>
      <trkpt lat="41.93683" lon="2.35218">
        <ele>646.4</ele>
        <time>2022-05-21 03:09:25</time>
      </trkpt>
      <trkpt lat="41.93684" lon="2.3522">
        <ele>646.6</ele>
        <time>2022-05-21 03:09:26</time>
      </trkpt>
      <trkpt lat="41.93685" lon="2.35224">
        <ele>646.8</ele>
        <time>2022-05-21 03:09:27</time>
      </trkpt>
      <trkpt lat="41.93686" lon="2.35226">
        <ele>647</ele>
        <time>2022-05-21 03:09:28</time>
      </trkpt>
      <trkpt lat="41.93686" lon="2.35229">
        <ele>647.2</ele>
        <time>2022-05-21 03:09:29</time>
      </trkpt>
      <trkpt lat="41.93687" lon="2.35232">
        <ele>647.2</ele>
        <time>2022-05-21 03:09:30</time>
      </trkpt>
      <trkpt lat="41.93688" lon="2.35235">
        <ele>647.4</ele>
        <time>2022-05-21 03:09:31</time>
      </trkpt>
      <trkpt lat="41.93689" lon="2.35237">
        <ele>647.6</ele>
        <time>2022-05-21 03:09:32</time>
      </trkpt>
      <trkpt lat="41.9369" lon="2.3524">
        <ele>647.8</ele>
        <time>2022-05-21 03:09:33</time>
      </trkpt>
      <trkpt lat="41.9369" lon="2.35243">
        <ele>648</ele>
        <time>2022-05-21 03:09:34</time>
      </trkpt>
      <trkpt lat="41.93691" lon="2.35246">
        <ele>648.2</ele>
        <time>2022-05-21 03:09:35</time>
      </trkpt>
      <trkpt lat="41.93692" lon="2.35249">
        <ele>648.4</ele>
        <time>2022-05-21 03:09:36</time>
      </trkpt>
      <trkpt lat="41.93693" lon="2.35251">
        <ele>648.4</ele>
        <time>2022-05-21 03:09:37</time>
      </trkpt>
      <trkpt lat="41.93694" lon="2.35254">
        <ele>648.6</ele>
        <time>2022-05-21 03:09:38</time>
      </trkpt>
      <trkpt lat="41.93695" lon="2.35257">
        <ele>648.8</ele>
        <time>2022-05-21 03:09:39</time>
      </trkpt>
      <trkpt lat="41.93695" lon="2.3526">
        <ele>649</ele>
        <time>2022-05-21 03:09:40</time>
      </trkpt>
      <trkpt lat="41.93696" lon="2.35262">
        <ele>649.2</ele>
        <time>2022-05-21 03:09:41</time>
      </trkpt>
      <trkpt lat="41.93697" lon="2.35265">
        <ele>649.4</ele>
        <time>2022-05-21 03:09:42</time>
      </trkpt>
      <trkpt lat="41.93698" lon="2.35268">
        <ele>649.6</ele>
        <time>2022-05-21 03:09:43</time>
      </trkpt>
      <trkpt lat="41.93699" lon="2.35271">
        <ele>649.8</ele>
        <time>2022-05-21 03:09:44</time>
      </trkpt>
      <trkpt lat="41.937" lon="2.35273">
        <ele>650</ele>
        <time>2022-05-21 03:09:45</time>
      </trkpt>
      <trkpt lat="41.937" lon="2.35276">
        <ele>650</ele>
        <time>2022-05-21 03:09:46</time>
      </trkpt>
      <trkpt lat="41.93701" lon="2.35279">
        <ele>650.2</ele>
        <time>2022-05-21 03:09:47</time>
      </trkpt>
      <trkpt lat="41.93702" lon="2.35282">
        <ele>650.4</ele>
        <time>2022-05-21 03:09:48</time>
      </trkpt>
      <trkpt lat="41.93703" lon="2.35284">
        <ele>650.6</ele>
        <time>2022-05-21 03:09:49</time>
      </trkpt>
      <trkpt lat="41.93704" lon="2.35287">
        <ele>650.8</ele>
        <time>2022-05-21 03:09:50</time>
      </trkpt>
      <trkpt lat="41.93705" lon="2.35289">
        <ele>651</ele>
        <time>2022-05-21 03:09:51</time>
      </trkpt>
      <trkpt lat="41.93705" lon="2.35292">
        <ele>651</ele>
        <time>2022-05-21 03:09:52</time>
      </trkpt>
      <trkpt lat="41.93706" lon="2.35295">
        <ele>651.2</ele>
        <time>2022-05-21 03:09:53</time>
      </trkpt>
      <trkpt lat="41.93707" lon="2.35298">
        <ele>651.4</ele>
        <time>2022-05-21 03:09:54</time>
      </trkpt>
      <trkpt lat="41.93708" lon="2.353">
        <ele>651.6</ele>
        <time>2022-05-21 03:09:55</time>
      </trkpt>
      <trkpt lat="41.93708" lon="2.35303">
        <ele>651.8</ele>
        <time>2022-05-21 03:09:56</time>
      </trkpt>
      <trkpt lat="41.93709" lon="2.35306">
        <ele>652</ele>
        <time>2022-05-21 03:09:57</time>
      </trkpt>
      <trkpt lat="41.9371" lon="2.35309">
        <ele>652.2</ele>
        <time>2022-05-21 03:09:58</time>
      </trkpt>
      <trkpt lat="41.9371" lon="2.35312">
        <ele>652.4</ele>
        <time>2022-05-21 03:09:59</time>
      </trkpt>
      <trkpt lat="41.93711" lon="2.35314">
        <ele>652.4</ele>
        <time>2022-05-21 03:10:00</time>
      </trkpt>
      <trkpt lat="41.93711" lon="2.35317">
        <ele>652.6</ele>
        <time>2022-05-21 03:10:01</time>
      </trkpt>
      <trkpt lat="41.93711" lon="2.3532">
        <ele>652.8</ele>
        <time>2022-05-21 03:10:02</time>
      </trkpt>
      <trkpt lat="41.93712" lon="2.35323">
        <ele>653</ele>
        <time>2022-05-21 03:10:03</time>
      </trkpt>
      <trkpt lat="41.93712" lon="2.35326">
        <ele>653.2</ele>
        <time>2022-05-21 03:10:04</time>
      </trkpt>
      <trkpt lat="41.93713" lon="2.35328">
        <ele>653.4</ele>
        <time>2022-05-21 03:10:05</time>
      </trkpt>
      <trkpt lat="41.93713" lon="2.35331">
        <ele>653.4</ele>
        <time>2022-05-21 03:10:06</time>
      </trkpt>
      <trkpt lat="41.93713" lon="2.35334">
        <ele>653.6</ele>
        <time>2022-05-21 03:10:07</time>
      </trkpt>
      <trkpt lat="41.93713" lon="2.35336">
        <ele>653.8</ele>
        <time>2022-05-21 03:10:08</time>
      </trkpt>
      <trkpt lat="41.93713" lon="2.35339">
        <ele>654</ele>
        <time>2022-05-21 03:10:09</time>
      </trkpt>
      <trkpt lat="41.93713" lon="2.35342">
        <ele>654.2</ele>
        <time>2022-05-21 03:10:10</time>
      </trkpt>
      <trkpt lat="41.93713" lon="2.35345">
        <ele>654.4</ele>
        <time>2022-05-21 03:10:11</time>
      </trkpt>
      <trkpt lat="41.93713" lon="2.35348">
        <ele>654.6</ele>
        <time>2022-05-21 03:10:12</time>
      </trkpt>
      <trkpt lat="41.93714" lon="2.35352">
        <ele>654.6</ele>
        <time>2022-05-21 03:10:13</time>
      </trkpt>
      <trkpt lat="41.93714" lon="2.35355">
        <ele>654.8</ele>
        <time>2022-05-21 03:10:14</time>
      </trkpt>
      <trkpt lat="41.93714" lon="2.35358">
        <ele>655</ele>
        <time>2022-05-21 03:10:15</time>
      </trkpt>
      <trkpt lat="41.93715" lon="2.35361">
        <ele>655.2</ele>
        <time>2022-05-21 03:10:16</time>
      </trkpt>
      <trkpt lat="41.93715" lon="2.35365">
        <ele>655.4</ele>
        <time>2022-05-21 03:10:17</time>
      </trkpt>
      <trkpt lat="41.93715" lon="2.35368">
        <ele>655.4</ele>
        <time>2022-05-21 03:10:18</time>
      </trkpt>
      <trkpt lat="41.93715" lon="2.35371">
        <ele>655.6</ele>
        <time>2022-05-21 03:10:19</time>
      </trkpt>
      <trkpt lat="41.93715" lon="2.35374">
        <ele>655.8</ele>
        <time>2022-05-21 03:10:20</time>
      </trkpt>
      <trkpt lat="41.93715" lon="2.35377">
        <ele>656</ele>
        <time>2022-05-21 03:10:21</time>
      </trkpt>
      <trkpt lat="41.93715" lon="2.3538">
        <ele>656.2</ele>
        <time>2022-05-21 03:10:22</time>
      </trkpt>
      <trkpt lat="41.93715" lon="2.35384">
        <ele>656.4</ele>
        <time>2022-05-21 03:10:23</time>
      </trkpt>
      <trkpt lat="41.93716" lon="2.35387">
        <ele>656.6</ele>
        <time>2022-05-21 03:10:24</time>
      </trkpt>
      <trkpt lat="41.93716" lon="2.35389">
        <ele>656.6</ele>
        <time>2022-05-21 03:10:25</time>
      </trkpt>
      <trkpt lat="41.93716" lon="2.35392">
        <ele>656.8</ele>
        <time>2022-05-21 03:10:26</time>
      </trkpt>
      <trkpt lat="41.93715" lon="2.35394">
        <ele>657</ele>
        <time>2022-05-21 03:10:27</time>
      </trkpt>
      <trkpt lat="41.93715" lon="2.35397">
        <ele>657.2</ele>
        <time>2022-05-21 03:10:28</time>
      </trkpt>
      <trkpt lat="41.93714" lon="2.354">
        <ele>657.4</ele>
        <time>2022-05-21 03:10:29</time>
      </trkpt>
      <trkpt lat="41.93714" lon="2.35403">
        <ele>657.4</ele>
        <time>2022-05-21 03:10:30</time>
      </trkpt>
      <trkpt lat="41.93713" lon="2.35405">
        <ele>657.6</ele>
        <time>2022-05-21 03:10:31</time>
      </trkpt>
      <trkpt lat="41.93713" lon="2.35408">
        <ele>657.8</ele>
        <time>2022-05-21 03:10:32</time>
      </trkpt>
      <trkpt lat="41.93713" lon="2.35411">
        <ele>658</ele>
        <time>2022-05-21 03:10:33</time>
      </trkpt>
      <trkpt lat="41.93712" lon="2.35413">
        <ele>658.2</ele>
        <time>2022-05-21 03:10:34</time>
      </trkpt>
      <trkpt lat="41.93713" lon="2.35416">
        <ele>658.4</ele>
        <time>2022-05-21 03:10:35</time>
      </trkpt>
      <trkpt lat="41.93713" lon="2.35419">
        <ele>658.6</ele>
        <time>2022-05-21 03:10:36</time>
      </trkpt>
      <trkpt lat="41.93712" lon="2.35422">
        <ele>658.8</ele>
        <time>2022-05-21 03:10:37</time>
      </trkpt>
      <trkpt lat="41.93712" lon="2.35425">
        <ele>659</ele>
        <time>2022-05-21 03:10:38</time>
      </trkpt>
      <trkpt lat="41.93711" lon="2.35427">
        <ele>659</ele>
        <time>2022-05-21 03:10:39</time>
      </trkpt>
      <trkpt lat="41.93711" lon="2.3543">
        <ele>659.2</ele>
        <time>2022-05-21 03:10:40</time>
      </trkpt>
      <trkpt lat="41.93711" lon="2.35433">
        <ele>659.4</ele>
        <time>2022-05-21 03:10:41</time>
      </trkpt>
      <trkpt lat="41.93711" lon="2.35436">
        <ele>659.6</ele>
        <time>2022-05-21 03:10:42</time>
      </trkpt>
      <trkpt lat="41.9371" lon="2.35439">
        <ele>659.8</ele>
        <time>2022-05-21 03:10:43</time>
      </trkpt>
      <trkpt lat="41.9371" lon="2.35442">
        <ele>659.8</ele>
        <time>2022-05-21 03:10:44</time>
      </trkpt>
      <trkpt lat="41.93711" lon="2.35446">
        <ele>660</ele>
        <time>2022-05-21 03:10:45</time>
      </trkpt>
      <trkpt lat="41.93711" lon="2.35449">
        <ele>660.2</ele>
        <time>2022-05-21 03:10:46</time>
      </trkpt>
      <trkpt lat="41.93711" lon="2.35453">
        <ele>660.4</ele>
        <time>2022-05-21 03:10:47</time>
      </trkpt>
      <trkpt lat="41.93711" lon="2.35456">
        <ele>660.6</ele>
        <time>2022-05-21 03:10:48</time>
      </trkpt>
      <trkpt lat="41.93711" lon="2.35458">
        <ele>660.8</ele>
        <time>2022-05-21 03:10:49</time>
      </trkpt>
      <trkpt lat="41.9371" lon="2.35461">
        <ele>661</ele>
        <time>2022-05-21 03:10:50</time>
      </trkpt>
      <trkpt lat="41.9371" lon="2.35464">
        <ele>661</ele>
        <time>2022-05-21 03:10:51</time>
      </trkpt>
      <trkpt lat="41.9371" lon="2.35466">
        <ele>661.2</ele>
        <time>2022-05-21 03:10:52</time>
      </trkpt>
      <trkpt lat="41.93711" lon="2.3547">
        <ele>661.4</ele>
        <time>2022-05-21 03:10:53</time>
      </trkpt>
      <trkpt lat="41.93711" lon="2.35473">
        <ele>661.6</ele>
        <time>2022-05-21 03:10:54</time>
      </trkpt>
      <trkpt lat="41.93711" lon="2.35476">
        <ele>661.8</ele>
        <time>2022-05-21 03:10:55</time>
      </trkpt>
      <trkpt lat="41.93712" lon="2.35479">
        <ele>662</ele>
        <time>2022-05-21 03:10:56</time>
      </trkpt>
      <trkpt lat="41.93712" lon="2.35482">
        <ele>662.2</ele>
        <time>2022-05-21 03:10:57</time>
      </trkpt>
      <trkpt lat="41.93711" lon="2.35485">
        <ele>662.4</ele>
        <time>2022-05-21 03:10:58</time>
      </trkpt>
      <trkpt lat="41.93712" lon="2.35488">
        <ele>662.4</ele>
        <time>2022-05-21 03:10:59</time>
      </trkpt>
      <trkpt lat="41.93712" lon="2.35491">
        <ele>662.6</ele>
        <time>2022-05-21 03:11:00</time>
      </trkpt>
      <trkpt lat="41.93712" lon="2.35494">
        <ele>662.8</ele>
        <time>2022-05-21 03:11:01</time>
      </trkpt>
      <trkpt lat="41.93712" lon="2.35497">
        <ele>663</ele>
        <time>2022-05-21 03:11:02</time>
      </trkpt>
      <trkpt lat="41.93712" lon="2.355">
        <ele>663</ele>
        <time>2022-05-21 03:11:03</time>
      </trkpt>
      <trkpt lat="41.93713" lon="2.35503">
        <ele>663.2</ele>
        <time>2022-05-21 03:11:04</time>
      </trkpt>
      <trkpt lat="41.93713" lon="2.35506">
        <ele>663.4</ele>
        <time>2022-05-21 03:11:05</time>
      </trkpt>
      <trkpt lat="41.93713" lon="2.35509">
        <ele>663.6</ele>
        <time>2022-05-21 03:11:06</time>
      </trkpt>
      <trkpt lat="41.93714" lon="2.35512">
        <ele>663.8</ele>
        <time>2022-05-21 03:11:07</time>
      </trkpt>
      <trkpt lat="41.93714" lon="2.35515">
        <ele>664</ele>
        <time>2022-05-21 03:11:08</time>
      </trkpt>
      <trkpt lat="41.93714" lon="2.35518">
        <ele>664</ele>
        <time>2022-05-21 03:11:09</time>
      </trkpt>
      <trkpt lat="41.93714" lon="2.35521">
        <ele>664.2</ele>
        <time>2022-05-21 03:11:10</time>
      </trkpt>
      <trkpt lat="41.93715" lon="2.35524">
        <ele>664.4</ele>
        <time>2022-05-21 03:11:11</time>
      </trkpt>
      <trkpt lat="41.93715" lon="2.35527">
        <ele>664.6</ele>
        <time>2022-05-21 03:11:12</time>
      </trkpt>
      <trkpt lat="41.93715" lon="2.3553">
        <ele>664.8</ele>
        <time>2022-05-21 03:11:13</time>
      </trkpt>
      <trkpt lat="41.93715" lon="2.35533">
        <ele>664.8</ele>
        <time>2022-05-21 03:11:14</time>
      </trkpt>
      <trkpt lat="41.93715" lon="2.35536">
        <ele>665</ele>
        <time>2022-05-21 03:11:15</time>
      </trkpt>
      <trkpt lat="41.93715" lon="2.35538">
        <ele>665.2</ele>
        <time>2022-05-21 03:11:16</time>
      </trkpt>
      <trkpt lat="41.93714" lon="2.35541">
        <ele>665.4</ele>
        <time>2022-05-21 03:11:17</time>
      </trkpt>
      <trkpt lat="41.93714" lon="2.35544">
        <ele>665.6</ele>
        <time>2022-05-21 03:11:18</time>
      </trkpt>
      <trkpt lat="41.93713" lon="2.35547">
        <ele>665.6</ele>
        <time>2022-05-21 03:11:19</time>
      </trkpt>
      <trkpt lat="41.93713" lon="2.3555">
        <ele>665.8</ele>
        <time>2022-05-21 03:11:20</time>
      </trkpt>
      <trkpt lat="41.93713" lon="2.35554">
        <ele>666</ele>
        <time>2022-05-21 03:11:21</time>
      </trkpt>
      <trkpt lat="41.93713" lon="2.35557">
        <ele>666.2</ele>
        <time>2022-05-21 03:11:22</time>
      </trkpt>
      <trkpt lat="41.93713" lon="2.3556">
        <ele>666.4</ele>
        <time>2022-05-21 03:11:23</time>
      </trkpt>
      <trkpt lat="41.93713" lon="2.35563">
        <ele>666.6</ele>
        <time>2022-05-21 03:11:24</time>
      </trkpt>
      <trkpt lat="41.93713" lon="2.35566">
        <ele>666.6</ele>
        <time>2022-05-21 03:11:25</time>
      </trkpt>
      <trkpt lat="41.93713" lon="2.35569">
        <ele>666.8</ele>
        <time>2022-05-21 03:11:26</time>
      </trkpt>
      <trkpt lat="41.93712" lon="2.35572">
        <ele>667</ele>
        <time>2022-05-21 03:11:27</time>
      </trkpt>
      <trkpt lat="41.93712" lon="2.35575">
        <ele>667.2</ele>
        <time>2022-05-21 03:11:28</time>
      </trkpt>
      <trkpt lat="41.93711" lon="2.35578">
        <ele>667.4</ele>
        <time>2022-05-21 03:11:29</time>
      </trkpt>
      <trkpt lat="41.93711" lon="2.35581">
        <ele>667.4</ele>
        <time>2022-05-21 03:11:30</time>
      </trkpt>
      <trkpt lat="41.93711" lon="2.35584">
        <ele>667.6</ele>
        <time>2022-05-21 03:11:31</time>
      </trkpt>
      <trkpt lat="41.9371" lon="2.35587">
        <ele>667.8</ele>
        <time>2022-05-21 03:11:32</time>
      </trkpt>
      <trkpt lat="41.9371" lon="2.3559">
        <ele>668</ele>
        <time>2022-05-21 03:11:33</time>
      </trkpt>
      <trkpt lat="41.9371" lon="2.35593">
        <ele>668.2</ele>
        <time>2022-05-21 03:11:34</time>
      </trkpt>
      <trkpt lat="41.9371" lon="2.35596">
        <ele>668.2</ele>
        <time>2022-05-21 03:11:35</time>
      </trkpt>
      <trkpt lat="41.9371" lon="2.356">
        <ele>668.4</ele>
        <time>2022-05-21 03:11:36</time>
      </trkpt>
      <trkpt lat="41.9371" lon="2.35603">
        <ele>668.6</ele>
        <time>2022-05-21 03:11:37</time>
      </trkpt>
      <trkpt lat="41.93711" lon="2.35607">
        <ele>668.8</ele>
        <time>2022-05-21 03:11:38</time>
      </trkpt>
      <trkpt lat="41.93711" lon="2.3561">
        <ele>668.8</ele>
        <time>2022-05-21 03:11:39</time>
      </trkpt>
      <trkpt lat="41.93712" lon="2.35614">
        <ele>669</ele>
        <time>2022-05-21 03:11:40</time>
      </trkpt>
      <trkpt lat="41.93713" lon="2.35617">
        <ele>669.2</ele>
        <time>2022-05-21 03:11:41</time>
      </trkpt>
      <trkpt lat="41.93713" lon="2.3562">
        <ele>669.4</ele>
        <time>2022-05-21 03:11:42</time>
      </trkpt>
      <trkpt lat="41.93714" lon="2.35624">
        <ele>669.4</ele>
        <time>2022-05-21 03:11:43</time>
      </trkpt>
      <trkpt lat="41.93715" lon="2.35627">
        <ele>669.6</ele>
        <time>2022-05-21 03:11:44</time>
      </trkpt>
      <trkpt lat="41.93715" lon="2.3563">
        <ele>669.8</ele>
        <time>2022-05-21 03:11:45</time>
      </trkpt>
      <trkpt lat="41.93716" lon="2.35633">
        <ele>670</ele>
        <time>2022-05-21 03:11:46</time>
      </trkpt>
      <trkpt lat="41.93718" lon="2.35636">
        <ele>670.2</ele>
        <time>2022-05-21 03:11:47</time>
      </trkpt>
      <trkpt lat="41.93718" lon="2.35639">
        <ele>670.4</ele>
        <time>2022-05-21 03:11:48</time>
      </trkpt>
      <trkpt lat="41.93719" lon="2.35643">
        <ele>670.4</ele>
        <time>2022-05-21 03:11:49</time>
      </trkpt>
      <trkpt lat="41.93719" lon="2.35646">
        <ele>670.6</ele>
        <time>2022-05-21 03:11:50</time>
      </trkpt>
      <trkpt lat="41.9372" lon="2.35648">
        <ele>670.8</ele>
        <time>2022-05-21 03:11:51</time>
      </trkpt>
      <trkpt lat="41.93721" lon="2.35652">
        <ele>671</ele>
        <time>2022-05-21 03:11:52</time>
      </trkpt>
      <trkpt lat="41.93721" lon="2.35655">
        <ele>671.2</ele>
        <time>2022-05-21 03:11:53</time>
      </trkpt>
      <trkpt lat="41.93722" lon="2.35658">
        <ele>671.2</ele>
        <time>2022-05-21 03:11:54</time>
      </trkpt>
      <trkpt lat="41.93723" lon="2.35661">
        <ele>671.4</ele>
        <time>2022-05-21 03:11:55</time>
      </trkpt>
      <trkpt lat="41.93723" lon="2.35664">
        <ele>671.6</ele>
        <time>2022-05-21 03:11:56</time>
      </trkpt>
      <trkpt lat="41.93723" lon="2.35667">
        <ele>671.8</ele>
        <time>2022-05-21 03:11:57</time>
      </trkpt>
      <trkpt lat="41.93723" lon="2.3567">
        <ele>671.8</ele>
        <time>2022-05-21 03:11:58</time>
      </trkpt>
      <trkpt lat="41.93723" lon="2.35673">
        <ele>672</ele>
        <time>2022-05-21 03:11:59</time>
      </trkpt>
      <trkpt lat="41.93724" lon="2.35676">
        <ele>672.2</ele>
        <time>2022-05-21 03:12:00</time>
      </trkpt>
      <trkpt lat="41.93724" lon="2.35679">
        <ele>672.4</ele>
        <time>2022-05-21 03:12:01</time>
      </trkpt>
      <trkpt lat="41.93723" lon="2.35682">
        <ele>672.6</ele>
        <time>2022-05-21 03:12:02</time>
      </trkpt>
      <trkpt lat="41.93723" lon="2.35685">
        <ele>672.6</ele>
        <time>2022-05-21 03:12:03</time>
      </trkpt>
      <trkpt lat="41.93723" lon="2.35688">
        <ele>672.8</ele>
        <time>2022-05-21 03:12:04</time>
      </trkpt>
      <trkpt lat="41.93722" lon="2.35692">
        <ele>673</ele>
        <time>2022-05-21 03:12:05</time>
      </trkpt>
      <trkpt lat="41.93721" lon="2.35695">
        <ele>673.2</ele>
        <time>2022-05-21 03:12:06</time>
      </trkpt>
      <trkpt lat="41.93721" lon="2.35698">
        <ele>673.4</ele>
        <time>2022-05-21 03:12:07</time>
      </trkpt>
      <trkpt lat="41.9372" lon="2.357">
        <ele>673.4</ele>
        <time>2022-05-21 03:12:08</time>
      </trkpt>
      <trkpt lat="41.93719" lon="2.35703">
        <ele>673.6</ele>
        <time>2022-05-21 03:12:09</time>
      </trkpt>
      <trkpt lat="41.93719" lon="2.35706">
        <ele>673.8</ele>
        <time>2022-05-21 03:12:10</time>
      </trkpt>
      <trkpt lat="41.93718" lon="2.35709">
        <ele>674</ele>
        <time>2022-05-21 03:12:11</time>
      </trkpt>
      <trkpt lat="41.93718" lon="2.35712">
        <ele>674.2</ele>
        <time>2022-05-21 03:12:12</time>
      </trkpt>
      <trkpt lat="41.93718" lon="2.35715">
        <ele>674.2</ele>
        <time>2022-05-21 03:12:13</time>
      </trkpt>
      <trkpt lat="41.93718" lon="2.35718">
        <ele>674.4</ele>
        <time>2022-05-21 03:12:14</time>
      </trkpt>
      <trkpt lat="41.93717" lon="2.35721">
        <ele>674.6</ele>
        <time>2022-05-21 03:12:15</time>
      </trkpt>
      <trkpt lat="41.93716" lon="2.35723">
        <ele>674.8</ele>
        <time>2022-05-21 03:12:16</time>
      </trkpt>
      <trkpt lat="41.93716" lon="2.35727">
        <ele>675</ele>
        <time>2022-05-21 03:12:17</time>
      </trkpt>
      <trkpt lat="41.93716" lon="2.3573">
        <ele>675</ele>
        <time>2022-05-21 03:12:18</time>
      </trkpt>
      <trkpt lat="41.93715" lon="2.35734">
        <ele>675.2</ele>
        <time>2022-05-21 03:12:19</time>
      </trkpt>
      <trkpt lat="41.93715" lon="2.35737">
        <ele>675.4</ele>
        <time>2022-05-21 03:12:20</time>
      </trkpt>
      <trkpt lat="41.93715" lon="2.35739">
        <ele>675.6</ele>
        <time>2022-05-21 03:12:21</time>
      </trkpt>
      <trkpt lat="41.93715" lon="2.35742">
        <ele>675.6</ele>
        <time>2022-05-21 03:12:22</time>
      </trkpt>
      <trkpt lat="41.93714" lon="2.35745">
        <ele>675.8</ele>
        <time>2022-05-21 03:12:23</time>
      </trkpt>
      <trkpt lat="41.93713" lon="2.35748">
        <ele>676</ele>
        <time>2022-05-21 03:12:24</time>
      </trkpt>
      <trkpt lat="41.93712" lon="2.35751">
        <ele>676.2</ele>
        <time>2022-05-21 03:12:25</time>
      </trkpt>
      <trkpt lat="41.93711" lon="2.35754">
        <ele>676.2</ele>
        <time>2022-05-21 03:12:26</time>
      </trkpt>
      <trkpt lat="41.9371" lon="2.35757">
        <ele>676.4</ele>
        <time>2022-05-21 03:12:27</time>
      </trkpt>
      <trkpt lat="41.93709" lon="2.3576">
        <ele>676.6</ele>
        <time>2022-05-21 03:12:28</time>
      </trkpt>
      <trkpt lat="41.93708" lon="2.35763">
        <ele>676.8</ele>
        <time>2022-05-21 03:12:29</time>
      </trkpt>
      <trkpt lat="41.93707" lon="2.35767">
        <ele>676.8</ele>
        <time>2022-05-21 03:12:30</time>
      </trkpt>
      <trkpt lat="41.93705" lon="2.35771">
        <ele>677</ele>
        <time>2022-05-21 03:12:31</time>
      </trkpt>
      <trkpt lat="41.93704" lon="2.35775">
        <ele>677.2</ele>
        <time>2022-05-21 03:12:32</time>
      </trkpt>
      <trkpt lat="41.93703" lon="2.35779">
        <ele>677.4</ele>
        <time>2022-05-21 03:12:33</time>
      </trkpt>
      <trkpt lat="41.93703" lon="2.35782">
        <ele>677.4</ele>
        <time>2022-05-21 03:12:34</time>
      </trkpt>
      <trkpt lat="41.93703" lon="2.35786">
        <ele>677.6</ele>
        <time>2022-05-21 03:12:35</time>
      </trkpt>
      <trkpt lat="41.93703" lon="2.35789">
        <ele>677.8</ele>
        <time>2022-05-21 03:12:36</time>
      </trkpt>
      <trkpt lat="41.93702" lon="2.35793">
        <ele>678</ele>
        <time>2022-05-21 03:12:37</time>
      </trkpt>
      <trkpt lat="41.93701" lon="2.35797">
        <ele>678.2</ele>
        <time>2022-05-21 03:12:38</time>
      </trkpt>
      <trkpt lat="41.937" lon="2.35801">
        <ele>678.4</ele>
        <time>2022-05-21 03:12:39</time>
      </trkpt>
      <trkpt lat="41.93699" lon="2.35804">
        <ele>678.4</ele>
        <time>2022-05-21 03:12:40</time>
      </trkpt>
      <trkpt lat="41.93698" lon="2.35807">
        <ele>678.6</ele>
        <time>2022-05-21 03:12:41</time>
      </trkpt>
      <trkpt lat="41.93697" lon="2.35811">
        <ele>678.8</ele>
        <time>2022-05-21 03:12:42</time>
      </trkpt>
      <trkpt lat="41.93696" lon="2.35814">
        <ele>679</ele>
        <time>2022-05-21 03:12:43</time>
      </trkpt>
      <trkpt lat="41.93695" lon="2.35817">
        <ele>679.2</ele>
        <time>2022-05-21 03:12:44</time>
      </trkpt>
      <trkpt lat="41.93693" lon="2.3582">
        <ele>679.2</ele>
        <time>2022-05-21 03:12:45</time>
      </trkpt>
      <trkpt lat="41.93692" lon="2.35822">
        <ele>679.4</ele>
        <time>2022-05-21 03:12:46</time>
      </trkpt>
      <trkpt lat="41.9369" lon="2.35825">
        <ele>679.6</ele>
        <time>2022-05-21 03:12:47</time>
      </trkpt>
      <trkpt lat="41.93689" lon="2.35828">
        <ele>679.8</ele>
        <time>2022-05-21 03:12:48</time>
      </trkpt>
      <trkpt lat="41.93688" lon="2.35831">
        <ele>679.8</ele>
        <time>2022-05-21 03:12:49</time>
      </trkpt>
      <trkpt lat="41.93687" lon="2.35834">
        <ele>680</ele>
        <time>2022-05-21 03:12:50</time>
      </trkpt>
      <trkpt lat="41.93686" lon="2.35836">
        <ele>680.2</ele>
        <time>2022-05-21 03:12:51</time>
      </trkpt>
      <trkpt lat="41.93684" lon="2.35838">
        <ele>680.4</ele>
        <time>2022-05-21 03:12:52</time>
      </trkpt>
      <trkpt lat="41.93682" lon="2.35841">
        <ele>680.6</ele>
        <time>2022-05-21 03:12:53</time>
      </trkpt>
      <trkpt lat="41.93681" lon="2.35843">
        <ele>680.6</ele>
        <time>2022-05-21 03:12:54</time>
      </trkpt>
      <trkpt lat="41.93679" lon="2.35846">
        <ele>680.8</ele>
        <time>2022-05-21 03:12:55</time>
      </trkpt>
      <trkpt lat="41.93677" lon="2.35848">
        <ele>681</ele>
        <time>2022-05-21 03:12:56</time>
      </trkpt>
      <trkpt lat="41.93676" lon="2.35851">
        <ele>681.2</ele>
        <time>2022-05-21 03:12:57</time>
      </trkpt>
      <trkpt lat="41.93674" lon="2.35853">
        <ele>681.2</ele>
        <time>2022-05-21 03:12:58</time>
      </trkpt>
      <trkpt lat="41.93673" lon="2.35855">
        <ele>681.4</ele>
        <time>2022-05-21 03:12:59</time>
      </trkpt>
      <trkpt lat="41.93673" lon="2.35857">
        <ele>681.6</ele>
        <time>2022-05-21 03:13:00</time>
      </trkpt>
      <trkpt lat="41.93671" lon="2.35859">
        <ele>681.8</ele>
        <time>2022-05-21 03:13:01</time>
      </trkpt>
      <trkpt lat="41.93671" lon="2.35862">
        <ele>681.8</ele>
        <time>2022-05-21 03:13:02</time>
      </trkpt>
      <trkpt lat="41.9367" lon="2.35866">
        <ele>682</ele>
        <time>2022-05-21 03:13:03</time>
      </trkpt>
      <trkpt lat="41.93669" lon="2.3587">
        <ele>682.2</ele>
        <time>2022-05-21 03:13:04</time>
      </trkpt>
      <trkpt lat="41.93668" lon="2.35873">
        <ele>682.4</ele>
        <time>2022-05-21 03:13:05</time>
      </trkpt>
      <trkpt lat="41.93668" lon="2.35877">
        <ele>682.4</ele>
        <time>2022-05-21 03:13:06</time>
      </trkpt>
      <trkpt lat="41.93667" lon="2.35882">
        <ele>682.6</ele>
        <time>2022-05-21 03:13:07</time>
      </trkpt>
      <trkpt lat="41.93667" lon="2.35886">
        <ele>682.8</ele>
        <time>2022-05-21 03:13:08</time>
      </trkpt>
      <trkpt lat="41.93667" lon="2.35889">
        <ele>683</ele>
        <time>2022-05-21 03:13:09</time>
      </trkpt>
      <trkpt lat="41.93666" lon="2.35892">
        <ele>683.2</ele>
        <time>2022-05-21 03:13:10</time>
      </trkpt>
      <trkpt lat="41.93666" lon="2.35895">
        <ele>683.2</ele>
        <time>2022-05-21 03:13:11</time>
      </trkpt>
      <trkpt lat="41.93666" lon="2.35898">
        <ele>683.4</ele>
        <time>2022-05-21 03:13:12</time>
      </trkpt>
      <trkpt lat="41.93667" lon="2.35901">
        <ele>683.6</ele>
        <time>2022-05-21 03:13:13</time>
      </trkpt>
      <trkpt lat="41.93667" lon="2.35904">
        <ele>683.8</ele>
        <time>2022-05-21 03:13:14</time>
      </trkpt>
      <trkpt lat="41.93668" lon="2.35908">
        <ele>684</ele>
        <time>2022-05-21 03:13:15</time>
      </trkpt>
      <trkpt lat="41.93668" lon="2.35911">
        <ele>684.2</ele>
        <time>2022-05-21 03:13:16</time>
      </trkpt>
      <trkpt lat="41.93669" lon="2.35914">
        <ele>684.4</ele>
        <time>2022-05-21 03:13:17</time>
      </trkpt>
      <trkpt lat="41.93669" lon="2.35917">
        <ele>684.4</ele>
        <time>2022-05-21 03:13:18</time>
      </trkpt>
      <trkpt lat="41.9367" lon="2.3592">
        <ele>684.6</ele>
        <time>2022-05-21 03:13:19</time>
      </trkpt>
      <trkpt lat="41.9367" lon="2.35923">
        <ele>684.8</ele>
        <time>2022-05-21 03:13:20</time>
      </trkpt>
      <trkpt lat="41.9367" lon="2.35926">
        <ele>685</ele>
        <time>2022-05-21 03:13:21</time>
      </trkpt>
      <trkpt lat="41.9367" lon="2.3593">
        <ele>685.2</ele>
        <time>2022-05-21 03:13:22</time>
      </trkpt>
      <trkpt lat="41.9367" lon="2.35933">
        <ele>685.4</ele>
        <time>2022-05-21 03:13:23</time>
      </trkpt>
      <trkpt lat="41.93669" lon="2.35936">
        <ele>685.6</ele>
        <time>2022-05-21 03:13:24</time>
      </trkpt>
      <trkpt lat="41.93669" lon="2.35939">
        <ele>685.8</ele>
        <time>2022-05-21 03:13:25</time>
      </trkpt>
      <trkpt lat="41.93668" lon="2.35942">
        <ele>686</ele>
        <time>2022-05-21 03:13:26</time>
      </trkpt>
      <trkpt lat="41.93667" lon="2.35945">
        <ele>686.2</ele>
        <time>2022-05-21 03:13:27</time>
      </trkpt>
      <trkpt lat="41.93666" lon="2.35947">
        <ele>686.4</ele>
        <time>2022-05-21 03:13:28</time>
      </trkpt>
      <trkpt lat="41.93665" lon="2.3595">
        <ele>686.4</ele>
        <time>2022-05-21 03:13:29</time>
      </trkpt>
      <trkpt lat="41.93663" lon="2.35953">
        <ele>686.6</ele>
        <time>2022-05-21 03:13:30</time>
      </trkpt>
      <trkpt lat="41.93662" lon="2.35955">
        <ele>686.8</ele>
        <time>2022-05-21 03:13:31</time>
      </trkpt>
      <trkpt lat="41.93661" lon="2.35957">
        <ele>687</ele>
        <time>2022-05-21 03:13:32</time>
      </trkpt>
      <trkpt lat="41.93659" lon="2.3596">
        <ele>687.2</ele>
        <time>2022-05-21 03:13:33</time>
      </trkpt>
      <trkpt lat="41.93657" lon="2.35962">
        <ele>687.4</ele>
        <time>2022-05-21 03:13:34</time>
      </trkpt>
      <trkpt lat="41.93656" lon="2.35964">
        <ele>687.6</ele>
        <time>2022-05-21 03:13:35</time>
      </trkpt>
      <trkpt lat="41.93653" lon="2.35966">
        <ele>687.8</ele>
        <time>2022-05-21 03:13:36</time>
      </trkpt>
      <trkpt lat="41.93651" lon="2.35969">
        <ele>687.8</ele>
        <time>2022-05-21 03:13:37</time>
      </trkpt>
      <trkpt lat="41.93649" lon="2.35971">
        <ele>688</ele>
        <time>2022-05-21 03:13:38</time>
      </trkpt>
      <trkpt lat="41.93647" lon="2.35973">
        <ele>688.2</ele>
        <time>2022-05-21 03:13:39</time>
      </trkpt>
      <trkpt lat="41.93644" lon="2.35975">
        <ele>688.4</ele>
        <time>2022-05-21 03:13:40</time>
      </trkpt>
      <trkpt lat="41.93642" lon="2.35976">
        <ele>688.6</ele>
        <time>2022-05-21 03:13:41</time>
      </trkpt>
      <trkpt lat="41.9364" lon="2.35977">
        <ele>688.8</ele>
        <time>2022-05-21 03:13:42</time>
      </trkpt>
      <trkpt lat="41.93637" lon="2.3598">
        <ele>689</ele>
        <time>2022-05-21 03:13:43</time>
      </trkpt>
      <trkpt lat="41.93636" lon="2.35982">
        <ele>689.2</ele>
        <time>2022-05-21 03:13:44</time>
      </trkpt>
      <trkpt lat="41.93634" lon="2.35984">
        <ele>689.4</ele>
        <time>2022-05-21 03:13:45</time>
      </trkpt>
      <trkpt lat="41.93633" lon="2.35986">
        <ele>689.6</ele>
        <time>2022-05-21 03:13:46</time>
      </trkpt>
      <trkpt lat="41.93631" lon="2.35988">
        <ele>689.8</ele>
        <time>2022-05-21 03:13:47</time>
      </trkpt>
      <trkpt lat="41.93629" lon="2.3599">
        <ele>690</ele>
        <time>2022-05-21 03:13:48</time>
      </trkpt>
      <trkpt lat="41.93628" lon="2.35992">
        <ele>690.2</ele>
        <time>2022-05-21 03:13:49</time>
      </trkpt>
      <trkpt lat="41.93626" lon="2.35994">
        <ele>690.4</ele>
        <time>2022-05-21 03:13:50</time>
      </trkpt>
      <trkpt lat="41.93625" lon="2.35997">
        <ele>690.6</ele>
        <time>2022-05-21 03:13:51</time>
      </trkpt>
      <trkpt lat="41.93624" lon="2.35999">
        <ele>690.8</ele>
        <time>2022-05-21 03:13:52</time>
      </trkpt>
      <trkpt lat="41.93622" lon="2.36002">
        <ele>691</ele>
        <time>2022-05-21 03:13:53</time>
      </trkpt>
      <trkpt lat="41.93621" lon="2.36004">
        <ele>691.2</ele>
        <time>2022-05-21 03:13:54</time>
      </trkpt>
      <trkpt lat="41.93619" lon="2.36006">
        <ele>691.2</ele>
        <time>2022-05-21 03:13:55</time>
      </trkpt>
      <trkpt lat="41.93617" lon="2.36009">
        <ele>691.4</ele>
        <time>2022-05-21 03:13:56</time>
      </trkpt>
      <trkpt lat="41.93616" lon="2.36012">
        <ele>691.6</ele>
        <time>2022-05-21 03:13:57</time>
      </trkpt>
      <trkpt lat="41.93614" lon="2.36015">
        <ele>691.8</ele>
        <time>2022-05-21 03:13:58</time>
      </trkpt>
      <trkpt lat="41.93612" lon="2.36017">
        <ele>692</ele>
        <time>2022-05-21 03:13:59</time>
      </trkpt>
      <trkpt lat="41.93611" lon="2.36019">
        <ele>692</ele>
        <time>2022-05-21 03:14:00</time>
      </trkpt>
      <trkpt lat="41.93609" lon="2.36022">
        <ele>692.2</ele>
        <time>2022-05-21 03:14:01</time>
      </trkpt>
      <trkpt lat="41.93608" lon="2.36024">
        <ele>692.4</ele>
        <time>2022-05-21 03:14:02</time>
      </trkpt>
      <trkpt lat="41.93606" lon="2.36027">
        <ele>692.6</ele>
        <time>2022-05-21 03:14:03</time>
      </trkpt>
      <trkpt lat="41.93604" lon="2.36029">
        <ele>692.6</ele>
        <time>2022-05-21 03:14:04</time>
      </trkpt>
      <trkpt lat="41.93603" lon="2.36032">
        <ele>692.8</ele>
        <time>2022-05-21 03:14:05</time>
      </trkpt>
      <trkpt lat="41.93602" lon="2.36034">
        <ele>693</ele>
        <time>2022-05-21 03:14:06</time>
      </trkpt>
      <trkpt lat="41.936" lon="2.36037">
        <ele>693.2</ele>
        <time>2022-05-21 03:14:07</time>
      </trkpt>
      <trkpt lat="41.93599" lon="2.36039">
        <ele>693.4</ele>
        <time>2022-05-21 03:14:08</time>
      </trkpt>
      <trkpt lat="41.93597" lon="2.36042">
        <ele>693.6</ele>
        <time>2022-05-21 03:14:09</time>
      </trkpt>
      <trkpt lat="41.93596" lon="2.36044">
        <ele>693.6</ele>
        <time>2022-05-21 03:14:10</time>
      </trkpt>
      <trkpt lat="41.93594" lon="2.36046">
        <ele>693.8</ele>
        <time>2022-05-21 03:14:11</time>
      </trkpt>
      <trkpt lat="41.93592" lon="2.36048">
        <ele>694</ele>
        <time>2022-05-21 03:14:12</time>
      </trkpt>
      <trkpt lat="41.93591" lon="2.3605">
        <ele>694.2</ele>
        <time>2022-05-21 03:14:13</time>
      </trkpt>
      <trkpt lat="41.9359" lon="2.36052">
        <ele>694.4</ele>
        <time>2022-05-21 03:14:14</time>
      </trkpt>
      <trkpt lat="41.93589" lon="2.36054">
        <ele>694.6</ele>
        <time>2022-05-21 03:14:15</time>
      </trkpt>
      <trkpt lat="41.93588" lon="2.36056">
        <ele>694.8</ele>
        <time>2022-05-21 03:14:16</time>
      </trkpt>
      <trkpt lat="41.93587" lon="2.36059">
        <ele>694.8</ele>
        <time>2022-05-21 03:14:17</time>
      </trkpt>
      <trkpt lat="41.93586" lon="2.36061">
        <ele>695</ele>
        <time>2022-05-21 03:14:18</time>
      </trkpt>
      <trkpt lat="41.93584" lon="2.36064">
        <ele>695.2</ele>
        <time>2022-05-21 03:14:19</time>
      </trkpt>
      <trkpt lat="41.93583" lon="2.36068">
        <ele>695.4</ele>
        <time>2022-05-21 03:14:20</time>
      </trkpt>
      <trkpt lat="41.93581" lon="2.3607">
        <ele>695.6</ele>
        <time>2022-05-21 03:14:21</time>
      </trkpt>
      <trkpt lat="41.93579" lon="2.36073">
        <ele>695.8</ele>
        <time>2022-05-21 03:14:22</time>
      </trkpt>
      <trkpt lat="41.93578" lon="2.36076">
        <ele>696</ele>
        <time>2022-05-21 03:14:23</time>
      </trkpt>
      <trkpt lat="41.93576" lon="2.36078">
        <ele>696.2</ele>
        <time>2022-05-21 03:14:24</time>
      </trkpt>
      <trkpt lat="41.93574" lon="2.36081">
        <ele>696.2</ele>
        <time>2022-05-21 03:14:25</time>
      </trkpt>
      <trkpt lat="41.93572" lon="2.36083">
        <ele>696.4</ele>
        <time>2022-05-21 03:14:26</time>
      </trkpt>
      <trkpt lat="41.9357" lon="2.36086">
        <ele>696.6</ele>
        <time>2022-05-21 03:14:27</time>
      </trkpt>
      <trkpt lat="41.93568" lon="2.36088">
        <ele>696.8</ele>
        <time>2022-05-21 03:14:28</time>
      </trkpt>
      <trkpt lat="41.93566" lon="2.3609">
        <ele>697</ele>
        <time>2022-05-21 03:14:29</time>
      </trkpt>
      <trkpt lat="41.93565" lon="2.36094">
        <ele>697.2</ele>
        <time>2022-05-21 03:14:30</time>
      </trkpt>
      <trkpt lat="41.93563" lon="2.36096">
        <ele>697.4</ele>
        <time>2022-05-21 03:14:31</time>
      </trkpt>
      <trkpt lat="41.93562" lon="2.36099">
        <ele>697.6</ele>
        <time>2022-05-21 03:14:32</time>
      </trkpt>
      <trkpt lat="41.9356" lon="2.36101">
        <ele>697.8</ele>
        <time>2022-05-21 03:14:33</time>
      </trkpt>
      <trkpt lat="41.93559" lon="2.36104">
        <ele>698</ele>
        <time>2022-05-21 03:14:34</time>
      </trkpt>
      <trkpt lat="41.93557" lon="2.36107">
        <ele>698.2</ele>
        <time>2022-05-21 03:14:35</time>
      </trkpt>
      <trkpt lat="41.93555" lon="2.36109">
        <ele>698.4</ele>
        <time>2022-05-21 03:14:36</time>
      </trkpt>
      <trkpt lat="41.93554" lon="2.36112">
        <ele>698.6</ele>
        <time>2022-05-21 03:14:37</time>
      </trkpt>
      <trkpt lat="41.93552" lon="2.36114">
        <ele>698.8</ele>
        <time>2022-05-21 03:14:38</time>
      </trkpt>
      <trkpt lat="41.93551" lon="2.36117">
        <ele>699</ele>
        <time>2022-05-21 03:14:39</time>
      </trkpt>
      <trkpt lat="41.93549" lon="2.36119">
        <ele>699.2</ele>
        <time>2022-05-21 03:14:40</time>
      </trkpt>
      <trkpt lat="41.93547" lon="2.36122">
        <ele>699.2</ele>
        <time>2022-05-21 03:14:41</time>
      </trkpt>
      <trkpt lat="41.93546" lon="2.36124">
        <ele>699.4</ele>
        <time>2022-05-21 03:14:42</time>
      </trkpt>
      <trkpt lat="41.93544" lon="2.36127">
        <ele>699.6</ele>
        <time>2022-05-21 03:14:43</time>
      </trkpt>
      <trkpt lat="41.93543" lon="2.3613">
        <ele>699.8</ele>
        <time>2022-05-21 03:14:44</time>
      </trkpt>
      <trkpt lat="41.93541" lon="2.36133">
        <ele>700</ele>
        <time>2022-05-21 03:14:45</time>
      </trkpt>
      <trkpt lat="41.93539" lon="2.36136">
        <ele>700.2</ele>
        <time>2022-05-21 03:14:46</time>
      </trkpt>
      <trkpt lat="41.93537" lon="2.36139">
        <ele>700.4</ele>
        <time>2022-05-21 03:14:47</time>
      </trkpt>
      <trkpt lat="41.93534" lon="2.36141">
        <ele>700.6</ele>
        <time>2022-05-21 03:14:48</time>
      </trkpt>
      <trkpt lat="41.93532" lon="2.36143">
        <ele>700.8</ele>
        <time>2022-05-21 03:14:49</time>
      </trkpt>
      <trkpt lat="41.9353" lon="2.36145">
        <ele>701</ele>
        <time>2022-05-21 03:14:50</time>
      </trkpt>
      <trkpt lat="41.93527" lon="2.36147">
        <ele>701</ele>
        <time>2022-05-21 03:14:51</time>
      </trkpt>
      <trkpt lat="41.93525" lon="2.36148">
        <ele>701.2</ele>
        <time>2022-05-21 03:14:52</time>
      </trkpt>
      <trkpt lat="41.93522" lon="2.3615">
        <ele>701.4</ele>
        <time>2022-05-21 03:14:53</time>
      </trkpt>
      <trkpt lat="41.9352" lon="2.36153">
        <ele>701.6</ele>
        <time>2022-05-21 03:14:54</time>
      </trkpt>
      <trkpt lat="41.93517" lon="2.36155">
        <ele>701.8</ele>
        <time>2022-05-21 03:14:55</time>
      </trkpt>
      <trkpt lat="41.93515" lon="2.36157">
        <ele>702</ele>
        <time>2022-05-21 03:14:56</time>
      </trkpt>
      <trkpt lat="41.93513" lon="2.3616">
        <ele>702</ele>
        <time>2022-05-21 03:14:57</time>
      </trkpt>
      <trkpt lat="41.9351" lon="2.36162">
        <ele>702.2</ele>
        <time>2022-05-21 03:14:58</time>
      </trkpt>
      <trkpt lat="41.93508" lon="2.36164">
        <ele>702.4</ele>
        <time>2022-05-21 03:14:59</time>
      </trkpt>
      <trkpt lat="41.93506" lon="2.36166">
        <ele>702.6</ele>
        <time>2022-05-21 03:15:00</time>
      </trkpt>
      <trkpt lat="41.93504" lon="2.36168">
        <ele>702.8</ele>
        <time>2022-05-21 03:15:01</time>
      </trkpt>
      <trkpt lat="41.93501" lon="2.36171">
        <ele>702.8</ele>
        <time>2022-05-21 03:15:02</time>
      </trkpt>
      <trkpt lat="41.93498" lon="2.36173">
        <ele>703</ele>
        <time>2022-05-21 03:15:03</time>
      </trkpt>
      <trkpt lat="41.93496" lon="2.36175">
        <ele>703.2</ele>
        <time>2022-05-21 03:15:04</time>
      </trkpt>
      <trkpt lat="41.93493" lon="2.36176">
        <ele>703.4</ele>
        <time>2022-05-21 03:15:05</time>
      </trkpt>
      <trkpt lat="41.93491" lon="2.36178">
        <ele>703.4</ele>
        <time>2022-05-21 03:15:06</time>
      </trkpt>
      <trkpt lat="41.93488" lon="2.3618">
        <ele>703.6</ele>
        <time>2022-05-21 03:15:07</time>
      </trkpt>
      <trkpt lat="41.93486" lon="2.36182">
        <ele>703.6</ele>
        <time>2022-05-21 03:15:08</time>
      </trkpt>
      <trkpt lat="41.93483" lon="2.36184">
        <ele>703.8</ele>
        <time>2022-05-21 03:15:09</time>
      </trkpt>
      <trkpt lat="41.93481" lon="2.36186">
        <ele>704</ele>
        <time>2022-05-21 03:15:10</time>
      </trkpt>
      <trkpt lat="41.93479" lon="2.36188">
        <ele>704</ele>
        <time>2022-05-21 03:15:11</time>
      </trkpt>
      <trkpt lat="41.93477" lon="2.3619">
        <ele>704.2</ele>
        <time>2022-05-21 03:15:12</time>
      </trkpt>
      <trkpt lat="41.93475" lon="2.36193">
        <ele>704.4</ele>
        <time>2022-05-21 03:15:13</time>
      </trkpt>
      <trkpt lat="41.93473" lon="2.36195">
        <ele>704.6</ele>
        <time>2022-05-21 03:15:14</time>
      </trkpt>
      <trkpt lat="41.93472" lon="2.36197">
        <ele>704.8</ele>
        <time>2022-05-21 03:15:15</time>
      </trkpt>
      <trkpt lat="41.9347" lon="2.362">
        <ele>704.8</ele>
        <time>2022-05-21 03:15:16</time>
      </trkpt>
      <trkpt lat="41.93468" lon="2.36202">
        <ele>705</ele>
        <time>2022-05-21 03:15:17</time>
      </trkpt>
      <trkpt lat="41.93466" lon="2.36204">
        <ele>705.2</ele>
        <time>2022-05-21 03:15:18</time>
      </trkpt>
      <trkpt lat="41.93464" lon="2.36206">
        <ele>705.4</ele>
        <time>2022-05-21 03:15:19</time>
      </trkpt>
      <trkpt lat="41.93463" lon="2.36209">
        <ele>705.4</ele>
        <time>2022-05-21 03:15:20</time>
      </trkpt>
      <trkpt lat="41.93461" lon="2.36212">
        <ele>705.6</ele>
        <time>2022-05-21 03:15:21</time>
      </trkpt>
      <trkpt lat="41.93459" lon="2.36214">
        <ele>705.6</ele>
        <time>2022-05-21 03:15:22</time>
      </trkpt>
      <trkpt lat="41.93457" lon="2.36216">
        <ele>705.8</ele>
        <time>2022-05-21 03:15:23</time>
      </trkpt>
      <trkpt lat="41.93455" lon="2.36218">
        <ele>706</ele>
        <time>2022-05-21 03:15:24</time>
      </trkpt>
      <trkpt lat="41.93453" lon="2.36221">
        <ele>706</ele>
        <time>2022-05-21 03:15:25</time>
      </trkpt>
      <trkpt lat="41.93451" lon="2.36223">
        <ele>706.2</ele>
        <time>2022-05-21 03:15:26</time>
      </trkpt>
      <trkpt lat="41.93449" lon="2.36225">
        <ele>706.2</ele>
        <time>2022-05-21 03:15:27</time>
      </trkpt>
      <trkpt lat="41.93447" lon="2.36227">
        <ele>706.4</ele>
        <time>2022-05-21 03:15:28</time>
      </trkpt>
      <trkpt lat="41.93446" lon="2.36229">
        <ele>706.4</ele>
        <time>2022-05-21 03:15:29</time>
      </trkpt>
      <trkpt lat="41.93444" lon="2.36231">
        <ele>706.6</ele>
        <time>2022-05-21 03:15:30</time>
      </trkpt>
      <trkpt lat="41.93442" lon="2.36233">
        <ele>706.8</ele>
        <time>2022-05-21 03:15:31</time>
      </trkpt>
      <trkpt lat="41.9344" lon="2.36234">
        <ele>707</ele>
        <time>2022-05-21 03:15:32</time>
      </trkpt>
      <trkpt lat="41.93438" lon="2.36236">
        <ele>707.2</ele>
        <time>2022-05-21 03:15:33</time>
      </trkpt>
      <trkpt lat="41.93436" lon="2.36237">
        <ele>707.2</ele>
        <time>2022-05-21 03:15:34</time>
      </trkpt>
      <trkpt lat="41.93434" lon="2.36239">
        <ele>707.4</ele>
        <time>2022-05-21 03:15:35</time>
      </trkpt>
      <trkpt lat="41.93431" lon="2.3624">
        <ele>707.6</ele>
        <time>2022-05-21 03:15:36</time>
      </trkpt>
      <trkpt lat="41.93429" lon="2.36241">
        <ele>707.8</ele>
        <time>2022-05-21 03:15:37</time>
      </trkpt>
      <trkpt lat="41.93427" lon="2.36242">
        <ele>707.8</ele>
        <time>2022-05-21 03:15:38</time>
      </trkpt>
      <trkpt lat="41.93425" lon="2.36243">
        <ele>708</ele>
        <time>2022-05-21 03:15:39</time>
      </trkpt>
      <trkpt lat="41.93422" lon="2.36246">
        <ele>708.2</ele>
        <time>2022-05-21 03:15:40</time>
      </trkpt>
      <trkpt lat="41.9342" lon="2.36247">
        <ele>708.4</ele>
        <time>2022-05-21 03:15:41</time>
      </trkpt>
      <trkpt lat="41.93417" lon="2.36248">
        <ele>708.4</ele>
        <time>2022-05-21 03:15:42</time>
      </trkpt>
      <trkpt lat="41.93415" lon="2.3625">
        <ele>708.6</ele>
        <time>2022-05-21 03:15:43</time>
      </trkpt>
      <trkpt lat="41.93412" lon="2.36252">
        <ele>708.8</ele>
        <time>2022-05-21 03:15:44</time>
      </trkpt>
      <trkpt lat="41.93409" lon="2.36252">
        <ele>709</ele>
        <time>2022-05-21 03:15:45</time>
      </trkpt>
      <trkpt lat="41.93406" lon="2.36253">
        <ele>709</ele>
        <time>2022-05-21 03:15:46</time>
      </trkpt>
      <trkpt lat="41.93403" lon="2.36255">
        <ele>709.2</ele>
        <time>2022-05-21 03:15:47</time>
      </trkpt>
      <trkpt lat="41.934" lon="2.36256">
        <ele>709.4</ele>
        <time>2022-05-21 03:15:48</time>
      </trkpt>
      <trkpt lat="41.93397" lon="2.36256">
        <ele>709.4</ele>
        <time>2022-05-21 03:15:49</time>
      </trkpt>
      <trkpt lat="41.93394" lon="2.36257">
        <ele>709.6</ele>
        <time>2022-05-21 03:15:50</time>
      </trkpt>
      <trkpt lat="41.93391" lon="2.36259">
        <ele>709.6</ele>
        <time>2022-05-21 03:15:51</time>
      </trkpt>
      <trkpt lat="41.93389" lon="2.3626">
        <ele>709.8</ele>
        <time>2022-05-21 03:15:52</time>
      </trkpt>
      <trkpt lat="41.93387" lon="2.36261">
        <ele>709.8</ele>
        <time>2022-05-21 03:15:53</time>
      </trkpt>
      <trkpt lat="41.93385" lon="2.36263">
        <ele>710</ele>
        <time>2022-05-21 03:15:54</time>
      </trkpt>
      <trkpt lat="41.93382" lon="2.36264">
        <ele>710.2</ele>
        <time>2022-05-21 03:15:55</time>
      </trkpt>
      <trkpt lat="41.9338" lon="2.36265">
        <ele>710.4</ele>
        <time>2022-05-21 03:15:56</time>
      </trkpt>
      <trkpt lat="41.93377" lon="2.36266">
        <ele>710.4</ele>
        <time>2022-05-21 03:15:57</time>
      </trkpt>
      <trkpt lat="41.93375" lon="2.36267">
        <ele>710.6</ele>
        <time>2022-05-21 03:15:58</time>
      </trkpt>
      <trkpt lat="41.93372" lon="2.36268">
        <ele>710.6</ele>
        <time>2022-05-21 03:15:59</time>
      </trkpt>
      <trkpt lat="41.93369" lon="2.36269">
        <ele>710.8</ele>
        <time>2022-05-21 03:16:00</time>
      </trkpt>
      <trkpt lat="41.93366" lon="2.3627">
        <ele>711</ele>
        <time>2022-05-21 03:16:01</time>
      </trkpt>
      <trkpt lat="41.93364" lon="2.36271">
        <ele>711.2</ele>
        <time>2022-05-21 03:16:02</time>
      </trkpt>
      <trkpt lat="41.93362" lon="2.36273">
        <ele>711.4</ele>
        <time>2022-05-21 03:16:03</time>
      </trkpt>
      <trkpt lat="41.93359" lon="2.36275">
        <ele>711.4</ele>
        <time>2022-05-21 03:16:04</time>
      </trkpt>
      <trkpt lat="41.93357" lon="2.36277">
        <ele>711.6</ele>
        <time>2022-05-21 03:16:05</time>
      </trkpt>
      <trkpt lat="41.93355" lon="2.36279">
        <ele>711.8</ele>
        <time>2022-05-21 03:16:06</time>
      </trkpt>
      <trkpt lat="41.93353" lon="2.36282">
        <ele>712</ele>
        <time>2022-05-21 03:16:07</time>
      </trkpt>
      <trkpt lat="41.93351" lon="2.36283">
        <ele>712.2</ele>
        <time>2022-05-21 03:16:08</time>
      </trkpt>
      <trkpt lat="41.93349" lon="2.36285">
        <ele>712.4</ele>
        <time>2022-05-21 03:16:09</time>
      </trkpt>
      <trkpt lat="41.93348" lon="2.36288">
        <ele>712.4</ele>
        <time>2022-05-21 03:16:10</time>
      </trkpt>
      <trkpt lat="41.93346" lon="2.3629">
        <ele>712.6</ele>
        <time>2022-05-21 03:16:11</time>
      </trkpt>
      <trkpt lat="41.93345" lon="2.36294">
        <ele>712.6</ele>
        <time>2022-05-21 03:16:12</time>
      </trkpt>
      <trkpt lat="41.93343" lon="2.36297">
        <ele>712.8</ele>
        <time>2022-05-21 03:16:13</time>
      </trkpt>
      <trkpt lat="41.93343" lon="2.363">
        <ele>712.8</ele>
        <time>2022-05-21 03:16:14</time>
      </trkpt>
      <trkpt lat="41.93341" lon="2.36303">
        <ele>712.8</ele>
        <time>2022-05-21 03:16:15</time>
      </trkpt>
      <trkpt lat="41.9334" lon="2.36306">
        <ele>712.6</ele>
        <time>2022-05-21 03:16:16</time>
      </trkpt>
      <trkpt lat="41.93339" lon="2.3631">
        <ele>712.6</ele>
        <time>2022-05-21 03:16:17</time>
      </trkpt>
      <trkpt lat="41.93337" lon="2.36314">
        <ele>712.4</ele>
        <time>2022-05-21 03:16:18</time>
      </trkpt>
      <trkpt lat="41.93335" lon="2.3632">
        <ele>712.2</ele>
        <time>2022-05-21 03:16:19</time>
      </trkpt>
      <trkpt lat="41.93333" lon="2.36326">
        <ele>711.8</ele>
        <time>2022-05-21 03:16:20</time>
      </trkpt>
      <trkpt lat="41.9333" lon="2.36332">
        <ele>711.4</ele>
        <time>2022-05-21 03:16:21</time>
      </trkpt>
      <trkpt lat="41.93328" lon="2.36338">
        <ele>711</ele>
        <time>2022-05-21 03:16:22</time>
      </trkpt>
      <trkpt lat="41.93325" lon="2.36344">
        <ele>710.8</ele>
        <time>2022-05-21 03:16:23</time>
      </trkpt>
      <trkpt lat="41.93322" lon="2.36351">
        <ele>710.2</ele>
        <time>2022-05-21 03:16:24</time>
      </trkpt>
      <trkpt lat="41.93319" lon="2.36357">
        <ele>709.8</ele>
        <time>2022-05-21 03:16:25</time>
      </trkpt>
      <trkpt lat="41.93317" lon="2.36364">
        <ele>709.2</ele>
        <time>2022-05-21 03:16:26</time>
      </trkpt>
      <trkpt lat="41.93312" lon="2.36376">
        <ele>708.8</ele>
        <time>2022-05-21 03:16:27</time>
      </trkpt>
      <trkpt lat="41.93306" lon="2.36389">
        <ele>708.4</ele>
        <time>2022-05-21 03:16:28</time>
      </trkpt>
      <trkpt lat="41.93303" lon="2.36403">
        <ele>707.8</ele>
        <time>2022-05-21 03:16:29</time>
      </trkpt>
      <trkpt lat="41.93301" lon="2.36422">
        <ele>707.4</ele>
        <time>2022-05-21 03:16:30</time>
      </trkpt>
      <trkpt lat="41.93295" lon="2.36436">
        <ele>706.6</ele>
        <time>2022-05-21 03:16:31</time>
      </trkpt>
      <trkpt lat="41.93289" lon="2.36449">
        <ele>706</ele>
        <time>2022-05-21 03:16:32</time>
      </trkpt>
      <trkpt lat="41.93282" lon="2.3646">
        <ele>705.2</ele>
        <time>2022-05-21 03:16:33</time>
      </trkpt>
      <trkpt lat="41.93275" lon="2.3647">
        <ele>704.6</ele>
        <time>2022-05-21 03:16:34</time>
      </trkpt>
      <trkpt lat="41.93268" lon="2.36482">
        <ele>704</ele>
        <time>2022-05-21 03:16:35</time>
      </trkpt>
      <trkpt lat="41.93261" lon="2.36493">
        <ele>703.4</ele>
        <time>2022-05-21 03:16:36</time>
      </trkpt>
      <trkpt lat="41.93254" lon="2.36505">
        <ele>702.8</ele>
        <time>2022-05-21 03:16:37</time>
      </trkpt>
      <trkpt lat="41.93246" lon="2.36516">
        <ele>702</ele>
        <time>2022-05-21 03:16:38</time>
      </trkpt>
      <trkpt lat="41.93239" lon="2.36527">
        <ele>701.6</ele>
        <time>2022-05-21 03:16:39</time>
      </trkpt>
      <trkpt lat="41.93231" lon="2.36539">
        <ele>700.8</ele>
        <time>2022-05-21 03:16:40</time>
      </trkpt>
      <trkpt lat="41.93224" lon="2.3655">
        <ele>700.2</ele>
        <time>2022-05-21 03:16:41</time>
      </trkpt>
      <trkpt lat="41.93216" lon="2.36561">
        <ele>699.6</ele>
        <time>2022-05-21 03:16:42</time>
      </trkpt>
      <trkpt lat="41.93208" lon="2.36571">
        <ele>698.8</ele>
        <time>2022-05-21 03:16:43</time>
      </trkpt>
      <trkpt lat="41.932" lon="2.36579">
        <ele>698.2</ele>
        <time>2022-05-21 03:16:44</time>
      </trkpt>
      <trkpt lat="41.9319" lon="2.36584">
        <ele>697.8</ele>
        <time>2022-05-21 03:16:45</time>
      </trkpt>
      <trkpt lat="41.93182" lon="2.36589">
        <ele>697.4</ele>
        <time>2022-05-21 03:16:46</time>
      </trkpt>
      <trkpt lat="41.93175" lon="2.36596">
        <ele>697</ele>
        <time>2022-05-21 03:16:47</time>
      </trkpt>
      <trkpt lat="41.93171" lon="2.36604">
        <ele>696.6</ele>
        <time>2022-05-21 03:16:48</time>
      </trkpt>
      <trkpt lat="41.93169" lon="2.36612">
        <ele>696.2</ele>
        <time>2022-05-21 03:16:49</time>
      </trkpt>
      <trkpt lat="41.93168" lon="2.36622">
        <ele>695.8</ele>
        <time>2022-05-21 03:16:50</time>
      </trkpt>
      <trkpt lat="41.93169" lon="2.36631">
        <ele>695.4</ele>
        <time>2022-05-21 03:16:51</time>
      </trkpt>
      <trkpt lat="41.93172" lon="2.3664">
        <ele>695</ele>
        <time>2022-05-21 03:16:52</time>
      </trkpt>
      <trkpt lat="41.93176" lon="2.3665">
        <ele>694.6</ele>
        <time>2022-05-21 03:16:53</time>
      </trkpt>
      <trkpt lat="41.93178" lon="2.36659">
        <ele>694.2</ele>
        <time>2022-05-21 03:16:54</time>
      </trkpt>
      <trkpt lat="41.93178" lon="2.36669">
        <ele>693.8</ele>
        <time>2022-05-21 03:16:55</time>
      </trkpt>
      <trkpt lat="41.93176" lon="2.36679">
        <ele>693.4</ele>
        <time>2022-05-21 03:16:56</time>
      </trkpt>
      <trkpt lat="41.93172" lon="2.36688">
        <ele>693</ele>
        <time>2022-05-21 03:16:57</time>
      </trkpt>
      <trkpt lat="41.93166" lon="2.36695">
        <ele>692.6</ele>
        <time>2022-05-21 03:16:58</time>
      </trkpt>
      <trkpt lat="41.9316" lon="2.36702">
        <ele>692.4</ele>
        <time>2022-05-21 03:16:59</time>
      </trkpt>
      <trkpt lat="41.93153" lon="2.36707">
        <ele>692.2</ele>
        <time>2022-05-21 03:17:00</time>
      </trkpt>
      <trkpt lat="41.93147" lon="2.36711">
        <ele>692.2</ele>
        <time>2022-05-21 03:17:01</time>
      </trkpt>
      <trkpt lat="41.93138" lon="2.36716">
        <ele>692</ele>
        <time>2022-05-21 03:17:02</time>
      </trkpt>
      <trkpt lat="41.93131" lon="2.3672">
        <ele>692</ele>
        <time>2022-05-21 03:17:03</time>
      </trkpt>
      <trkpt lat="41.93124" lon="2.36724">
        <ele>692</ele>
        <time>2022-05-21 03:17:04</time>
      </trkpt>
      <trkpt lat="41.93118" lon="2.36729">
        <ele>692</ele>
        <time>2022-05-21 03:17:05</time>
      </trkpt>
      <trkpt lat="41.93112" lon="2.36733">
        <ele>692</ele>
        <time>2022-05-21 03:17:06</time>
      </trkpt>
      <trkpt lat="41.93106" lon="2.36738">
        <ele>692</ele>
        <time>2022-05-21 03:17:07</time>
      </trkpt>
      <trkpt lat="41.93101" lon="2.36743">
        <ele>692</ele>
        <time>2022-05-21 03:17:08</time>
      </trkpt>
      <trkpt lat="41.93095" lon="2.36747">
        <ele>692</ele>
        <time>2022-05-21 03:17:09</time>
      </trkpt>
      <trkpt lat="41.93091" lon="2.36753">
        <ele>692</ele>
        <time>2022-05-21 03:17:10</time>
      </trkpt>
      <trkpt lat="41.93086" lon="2.36759">
        <ele>692</ele>
        <time>2022-05-21 03:17:11</time>
      </trkpt>
      <trkpt lat="41.93082" lon="2.36766">
        <ele>692</ele>
        <time>2022-05-21 03:17:12</time>
      </trkpt>
      <trkpt lat="41.93077" lon="2.36771">
        <ele>692</ele>
        <time>2022-05-21 03:17:13</time>
      </trkpt>
      <trkpt lat="41.93072" lon="2.36777">
        <ele>692</ele>
        <time>2022-05-21 03:17:14</time>
      </trkpt>
      <trkpt lat="41.93067" lon="2.36782">
        <ele>692</ele>
        <time>2022-05-21 03:17:15</time>
      </trkpt>
      <trkpt lat="41.93061" lon="2.36787">
        <ele>691.8</ele>
        <time>2022-05-21 03:17:16</time>
      </trkpt>
      <trkpt lat="41.93055" lon="2.36791">
        <ele>691.8</ele>
        <time>2022-05-21 03:17:17</time>
      </trkpt>
      <trkpt lat="41.93049" lon="2.36794">
        <ele>691.8</ele>
        <time>2022-05-21 03:17:18</time>
      </trkpt>
      <trkpt lat="41.93043" lon="2.36797">
        <ele>691.8</ele>
        <time>2022-05-21 03:17:19</time>
      </trkpt>
      <trkpt lat="41.93037" lon="2.36801">
        <ele>691.8</ele>
        <time>2022-05-21 03:17:20</time>
      </trkpt>
      <trkpt lat="41.93031" lon="2.36804">
        <ele>691.8</ele>
        <time>2022-05-21 03:17:21</time>
      </trkpt>
      <trkpt lat="41.93025" lon="2.36808">
        <ele>691.8</ele>
        <time>2022-05-21 03:17:22</time>
      </trkpt>
      <trkpt lat="41.9302" lon="2.36812">
        <ele>691.8</ele>
        <time>2022-05-21 03:17:23</time>
      </trkpt>
      <trkpt lat="41.93015" lon="2.36816">
        <ele>691.8</ele>
        <time>2022-05-21 03:17:24</time>
      </trkpt>
      <trkpt lat="41.93011" lon="2.36821">
        <ele>691.8</ele>
        <time>2022-05-21 03:17:25</time>
      </trkpt>
      <trkpt lat="41.93007" lon="2.36826">
        <ele>691.8</ele>
        <time>2022-05-21 03:17:26</time>
      </trkpt>
      <trkpt lat="41.93003" lon="2.36833">
        <ele>692</ele>
        <time>2022-05-21 03:17:27</time>
      </trkpt>
      <trkpt lat="41.92998" lon="2.3684">
        <ele>692</ele>
        <time>2022-05-21 03:17:28</time>
      </trkpt>
      <trkpt lat="41.92994" lon="2.36847">
        <ele>692</ele>
        <time>2022-05-21 03:17:29</time>
      </trkpt>
      <trkpt lat="41.9299" lon="2.36854">
        <ele>692</ele>
        <time>2022-05-21 03:17:30</time>
      </trkpt>
      <trkpt lat="41.92987" lon="2.36861">
        <ele>692</ele>
        <time>2022-05-21 03:17:31</time>
      </trkpt>
      <trkpt lat="41.92983" lon="2.36867">
        <ele>692</ele>
        <time>2022-05-21 03:17:32</time>
      </trkpt>
      <trkpt lat="41.92979" lon="2.36873">
        <ele>692</ele>
        <time>2022-05-21 03:17:33</time>
      </trkpt>
      <trkpt lat="41.92974" lon="2.36878">
        <ele>692</ele>
        <time>2022-05-21 03:17:34</time>
      </trkpt>
      <trkpt lat="41.9297" lon="2.36884">
        <ele>692.2</ele>
        <time>2022-05-21 03:17:35</time>
      </trkpt>
      <trkpt lat="41.92965" lon="2.36891">
        <ele>692.2</ele>
        <time>2022-05-21 03:17:36</time>
      </trkpt>
      <trkpt lat="41.92961" lon="2.36897">
        <ele>692</ele>
        <time>2022-05-21 03:17:37</time>
      </trkpt>
      <trkpt lat="41.92956" lon="2.36903">
        <ele>692</ele>
        <time>2022-05-21 03:17:38</time>
      </trkpt>
      <trkpt lat="41.92951" lon="2.36909">
        <ele>691.8</ele>
        <time>2022-05-21 03:17:39</time>
      </trkpt>
      <trkpt lat="41.92946" lon="2.36915">
        <ele>691.8</ele>
        <time>2022-05-21 03:17:40</time>
      </trkpt>
      <trkpt lat="41.92941" lon="2.36921">
        <ele>691.6</ele>
        <time>2022-05-21 03:17:41</time>
      </trkpt>
      <trkpt lat="41.92936" lon="2.36927">
        <ele>691.6</ele>
        <time>2022-05-21 03:17:42</time>
      </trkpt>
      <trkpt lat="41.92931" lon="2.36934">
        <ele>691.4</ele>
        <time>2022-05-21 03:17:43</time>
      </trkpt>
      <trkpt lat="41.92925" lon="2.36941">
        <ele>691.4</ele>
        <time>2022-05-21 03:17:44</time>
      </trkpt>
      <trkpt lat="41.9292" lon="2.36948">
        <ele>691.2</ele>
        <time>2022-05-21 03:17:45</time>
      </trkpt>
      <trkpt lat="41.92915" lon="2.36955">
        <ele>691</ele>
        <time>2022-05-21 03:17:46</time>
      </trkpt>
      <trkpt lat="41.92909" lon="2.36962">
        <ele>690.8</ele>
        <time>2022-05-21 03:17:47</time>
      </trkpt>
      <trkpt lat="41.92904" lon="2.36968">
        <ele>690.8</ele>
        <time>2022-05-21 03:17:48</time>
      </trkpt>
      <trkpt lat="41.92899" lon="2.36974">
        <ele>690.6</ele>
        <time>2022-05-21 03:17:49</time>
      </trkpt>
      <trkpt lat="41.92894" lon="2.36981">
        <ele>690.4</ele>
        <time>2022-05-21 03:17:50</time>
      </trkpt>
      <trkpt lat="41.9289" lon="2.36989">
        <ele>690</ele>
        <time>2022-05-21 03:17:51</time>
      </trkpt>
      <trkpt lat="41.92886" lon="2.36997">
        <ele>689.8</ele>
        <time>2022-05-21 03:17:52</time>
      </trkpt>
      <trkpt lat="41.92884" lon="2.37006">
        <ele>689.6</ele>
        <time>2022-05-21 03:17:53</time>
      </trkpt>
      <trkpt lat="41.92882" lon="2.37016">
        <ele>689.4</ele>
        <time>2022-05-21 03:17:54</time>
      </trkpt>
      <trkpt lat="41.92879" lon="2.37026">
        <ele>689.2</ele>
        <time>2022-05-21 03:17:55</time>
      </trkpt>
      <trkpt lat="41.92877" lon="2.37035">
        <ele>689</ele>
        <time>2022-05-21 03:17:56</time>
      </trkpt>
      <trkpt lat="41.92875" lon="2.37044">
        <ele>688.8</ele>
        <time>2022-05-21 03:17:57</time>
      </trkpt>
      <trkpt lat="41.92873" lon="2.37055">
        <ele>688.6</ele>
        <time>2022-05-21 03:17:58</time>
      </trkpt>
      <trkpt lat="41.92871" lon="2.37065">
        <ele>688.4</ele>
        <time>2022-05-21 03:17:59</time>
      </trkpt>
      <trkpt lat="41.92871" lon="2.37076">
        <ele>688</ele>
        <time>2022-05-21 03:18:00</time>
      </trkpt>
      <trkpt lat="41.92871" lon="2.37087">
        <ele>687.8</ele>
        <time>2022-05-21 03:18:01</time>
      </trkpt>
      <trkpt lat="41.92872" lon="2.37099">
        <ele>687.6</ele>
        <time>2022-05-21 03:18:02</time>
      </trkpt>
      <trkpt lat="41.92874" lon="2.3711">
        <ele>687.2</ele>
        <time>2022-05-21 03:18:03</time>
      </trkpt>
      <trkpt lat="41.92875" lon="2.37121">
        <ele>687</ele>
        <time>2022-05-21 03:18:04</time>
      </trkpt>
      <trkpt lat="41.92877" lon="2.37131">
        <ele>686.8</ele>
        <time>2022-05-21 03:18:05</time>
      </trkpt>
      <trkpt lat="41.92878" lon="2.37143">
        <ele>686.4</ele>
        <time>2022-05-21 03:18:06</time>
      </trkpt>
      <trkpt lat="41.92879" lon="2.37154">
        <ele>686</ele>
        <time>2022-05-21 03:18:07</time>
      </trkpt>
      <trkpt lat="41.92879" lon="2.37166">
        <ele>685.8</ele>
        <time>2022-05-21 03:18:08</time>
      </trkpt>
      <trkpt lat="41.92879" lon="2.37177">
        <ele>685.4</ele>
        <time>2022-05-21 03:18:09</time>
      </trkpt>
      <trkpt lat="41.92878" lon="2.37188">
        <ele>685.2</ele>
        <time>2022-05-21 03:18:10</time>
      </trkpt>
      <trkpt lat="41.92878" lon="2.37198">
        <ele>685</ele>
        <time>2022-05-21 03:18:11</time>
      </trkpt>
      <trkpt lat="41.9288" lon="2.37207">
        <ele>684.8</ele>
        <time>2022-05-21 03:18:12</time>
      </trkpt>
      <trkpt lat="41.92883" lon="2.37215">
        <ele>684.6</ele>
        <time>2022-05-21 03:18:13</time>
      </trkpt>
      <trkpt lat="41.92887" lon="2.37219">
        <ele>684.4</ele>
        <time>2022-05-21 03:18:14</time>
      </trkpt>
      <trkpt lat="41.92894" lon="2.3722">
        <ele>684</ele>
        <time>2022-05-21 03:18:15</time>
      </trkpt>
      <trkpt lat="41.92901" lon="2.3722">
        <ele>683.8</ele>
        <time>2022-05-21 03:18:16</time>
      </trkpt>
      <trkpt lat="41.92907" lon="2.37219">
        <ele>683.6</ele>
        <time>2022-05-21 03:18:17</time>
      </trkpt>
      <trkpt lat="41.92914" lon="2.37218">
        <ele>683.4</ele>
        <time>2022-05-21 03:18:18</time>
      </trkpt>
      <trkpt lat="41.92921" lon="2.37215">
        <ele>683.2</ele>
        <time>2022-05-21 03:18:19</time>
      </trkpt>
      <trkpt lat="41.92927" lon="2.37212">
        <ele>683</ele>
        <time>2022-05-21 03:18:20</time>
      </trkpt>
      <trkpt lat="41.92933" lon="2.37207">
        <ele>682.8</ele>
        <time>2022-05-21 03:18:21</time>
      </trkpt>
      <trkpt lat="41.92939" lon="2.37201">
        <ele>682.6</ele>
        <time>2022-05-21 03:18:22</time>
      </trkpt>
      <trkpt lat="41.92944" lon="2.37195">
        <ele>682.4</ele>
        <time>2022-05-21 03:18:23</time>
      </trkpt>
      <trkpt lat="41.92949" lon="2.37188">
        <ele>682</ele>
        <time>2022-05-21 03:18:24</time>
      </trkpt>
      <trkpt lat="41.92953" lon="2.37181">
        <ele>681.6</ele>
        <time>2022-05-21 03:18:25</time>
      </trkpt>
      <trkpt lat="41.92957" lon="2.37173">
        <ele>681.4</ele>
        <time>2022-05-21 03:18:26</time>
      </trkpt>
      <trkpt lat="41.92962" lon="2.37164">
        <ele>681</ele>
        <time>2022-05-21 03:18:27</time>
      </trkpt>
      <trkpt lat="41.92967" lon="2.37156">
        <ele>680.6</ele>
        <time>2022-05-21 03:18:28</time>
      </trkpt>
      <trkpt lat="41.92971" lon="2.37147">
        <ele>680.2</ele>
        <time>2022-05-21 03:18:29</time>
      </trkpt>
      <trkpt lat="41.92976" lon="2.37138">
        <ele>679.8</ele>
        <time>2022-05-21 03:18:30</time>
      </trkpt>
      <trkpt lat="41.92981" lon="2.37129">
        <ele>679.4</ele>
        <time>2022-05-21 03:18:31</time>
      </trkpt>
      <trkpt lat="41.92986" lon="2.3712">
        <ele>679</ele>
        <time>2022-05-21 03:18:32</time>
      </trkpt>
      <trkpt lat="41.92992" lon="2.37112">
        <ele>678.4</ele>
        <time>2022-05-21 03:18:33</time>
      </trkpt>
      <trkpt lat="41.92997" lon="2.37104">
        <ele>678</ele>
        <time>2022-05-21 03:18:34</time>
      </trkpt>
      <trkpt lat="41.93004" lon="2.37097">
        <ele>677.6</ele>
        <time>2022-05-21 03:18:35</time>
      </trkpt>
      <trkpt lat="41.9301" lon="2.37089">
        <ele>677</ele>
        <time>2022-05-21 03:18:36</time>
      </trkpt>
      <trkpt lat="41.93018" lon="2.37082">
        <ele>676.6</ele>
        <time>2022-05-21 03:18:37</time>
      </trkpt>
      <trkpt lat="41.93025" lon="2.37074">
        <ele>676.2</ele>
        <time>2022-05-21 03:18:38</time>
      </trkpt>
      <trkpt lat="41.93033" lon="2.37066">
        <ele>675.8</ele>
        <time>2022-05-21 03:18:39</time>
      </trkpt>
      <trkpt lat="41.9304" lon="2.37058">
        <ele>675.4</ele>
        <time>2022-05-21 03:18:40</time>
      </trkpt>
      <trkpt lat="41.93047" lon="2.3705">
        <ele>674.8</ele>
        <time>2022-05-21 03:18:41</time>
      </trkpt>
      <trkpt lat="41.93055" lon="2.37043">
        <ele>674.4</ele>
        <time>2022-05-21 03:18:42</time>
      </trkpt>
      <trkpt lat="41.93064" lon="2.37036">
        <ele>673.8</ele>
        <time>2022-05-21 03:18:43</time>
      </trkpt>
      <trkpt lat="41.93073" lon="2.37031">
        <ele>673.4</ele>
        <time>2022-05-21 03:18:44</time>
      </trkpt>
      <trkpt lat="41.93081" lon="2.37026">
        <ele>673</ele>
        <time>2022-05-21 03:18:45</time>
      </trkpt>
      <trkpt lat="41.9309" lon="2.37023">
        <ele>672.6</ele>
        <time>2022-05-21 03:18:46</time>
      </trkpt>
      <trkpt lat="41.931" lon="2.37021">
        <ele>672.2</ele>
        <time>2022-05-21 03:18:47</time>
      </trkpt>
      <trkpt lat="41.9311" lon="2.37022">
        <ele>671.8</ele>
        <time>2022-05-21 03:18:48</time>
      </trkpt>
      <trkpt lat="41.93119" lon="2.37024">
        <ele>671.2</ele>
        <time>2022-05-21 03:18:49</time>
      </trkpt>
      <trkpt lat="41.93129" lon="2.37028">
        <ele>671</ele>
        <time>2022-05-21 03:18:50</time>
      </trkpt>
      <trkpt lat="41.93138" lon="2.37032">
        <ele>670.6</ele>
        <time>2022-05-21 03:18:51</time>
      </trkpt>
      <trkpt lat="41.93147" lon="2.37038">
        <ele>670.2</ele>
        <time>2022-05-21 03:18:52</time>
      </trkpt>
      <trkpt lat="41.93155" lon="2.37045">
        <ele>669.8</ele>
        <time>2022-05-21 03:18:53</time>
      </trkpt>
      <trkpt lat="41.93163" lon="2.37054">
        <ele>669.4</ele>
        <time>2022-05-21 03:18:54</time>
      </trkpt>
      <trkpt lat="41.9317" lon="2.37063">
        <ele>669</ele>
        <time>2022-05-21 03:18:55</time>
      </trkpt>
      <trkpt lat="41.93176" lon="2.37074">
        <ele>668.6</ele>
        <time>2022-05-21 03:18:56</time>
      </trkpt>
      <trkpt lat="41.93182" lon="2.37085">
        <ele>668.4</ele>
        <time>2022-05-21 03:18:57</time>
      </trkpt>
      <trkpt lat="41.93187" lon="2.37097">
        <ele>668.2</ele>
        <time>2022-05-21 03:18:58</time>
      </trkpt>
      <trkpt lat="41.93192" lon="2.37107">
        <ele>667.8</ele>
        <time>2022-05-21 03:18:59</time>
      </trkpt>
      <trkpt lat="41.93197" lon="2.37114">
        <ele>667.6</ele>
        <time>2022-05-21 03:19:00</time>
      </trkpt>
      <trkpt lat="41.93204" lon="2.37119">
        <ele>667.2</ele>
        <time>2022-05-21 03:19:01</time>
      </trkpt>
      <trkpt lat="41.93212" lon="2.37125">
        <ele>666.8</ele>
        <time>2022-05-21 03:19:02</time>
      </trkpt>
      <trkpt lat="41.93218" lon="2.37133">
        <ele>666.4</ele>
        <time>2022-05-21 03:19:03</time>
      </trkpt>
      <trkpt lat="41.93223" lon="2.37142">
        <ele>666.2</ele>
        <time>2022-05-21 03:19:04</time>
      </trkpt>
      <trkpt lat="41.93227" lon="2.37151">
        <ele>665.8</ele>
        <time>2022-05-21 03:19:05</time>
      </trkpt>
      <trkpt lat="41.9323" lon="2.37162">
        <ele>665.6</ele>
        <time>2022-05-21 03:19:06</time>
      </trkpt>
      <trkpt lat="41.93233" lon="2.37172">
        <ele>665.2</ele>
        <time>2022-05-21 03:19:07</time>
      </trkpt>
      <trkpt lat="41.93234" lon="2.37183">
        <ele>664.8</ele>
        <time>2022-05-21 03:19:08</time>
      </trkpt>
      <trkpt lat="41.93236" lon="2.37194">
        <ele>664.6</ele>
        <time>2022-05-21 03:19:09</time>
      </trkpt>
      <trkpt lat="41.93238" lon="2.37206">
        <ele>664.2</ele>
        <time>2022-05-21 03:19:10</time>
      </trkpt>
      <trkpt lat="41.9324" lon="2.37217">
        <ele>663.8</ele>
        <time>2022-05-21 03:19:11</time>
      </trkpt>
      <trkpt lat="41.93243" lon="2.37228">
        <ele>663.6</ele>
        <time>2022-05-21 03:19:12</time>
      </trkpt>
      <trkpt lat="41.93248" lon="2.37238">
        <ele>663.2</ele>
        <time>2022-05-21 03:19:13</time>
      </trkpt>
      <trkpt lat="41.93253" lon="2.37248">
        <ele>662.8</ele>
        <time>2022-05-21 03:19:14</time>
      </trkpt>
      <trkpt lat="41.93259" lon="2.37257">
        <ele>662.4</ele>
        <time>2022-05-21 03:19:15</time>
      </trkpt>
      <trkpt lat="41.93266" lon="2.37265">
        <ele>662</ele>
        <time>2022-05-21 03:19:16</time>
      </trkpt>
      <trkpt lat="41.93274" lon="2.37273">
        <ele>661.8</ele>
        <time>2022-05-21 03:19:17</time>
      </trkpt>
      <trkpt lat="41.93281" lon="2.37281">
        <ele>661.4</ele>
        <time>2022-05-21 03:19:18</time>
      </trkpt>
      <trkpt lat="41.93289" lon="2.37287">
        <ele>661</ele>
        <time>2022-05-21 03:19:19</time>
      </trkpt>
      <trkpt lat="41.93298" lon="2.37292">
        <ele>660.6</ele>
        <time>2022-05-21 03:19:20</time>
      </trkpt>
      <trkpt lat="41.93306" lon="2.37298">
        <ele>660.4</ele>
        <time>2022-05-21 03:19:21</time>
      </trkpt>
      <trkpt lat="41.93315" lon="2.37302">
        <ele>660</ele>
        <time>2022-05-21 03:19:22</time>
      </trkpt>
      <trkpt lat="41.93324" lon="2.37307">
        <ele>659.8</ele>
        <time>2022-05-21 03:19:23</time>
      </trkpt>
      <trkpt lat="41.93332" lon="2.37309">
        <ele>659.4</ele>
        <time>2022-05-21 03:19:24</time>
      </trkpt>
      <trkpt lat="41.93339" lon="2.37308">
        <ele>659.2</ele>
        <time>2022-05-21 03:19:25</time>
      </trkpt>
      <trkpt lat="41.93345" lon="2.37305">
        <ele>659</ele>
        <time>2022-05-21 03:19:26</time>
      </trkpt>
      <trkpt lat="41.93349" lon="2.37299">
        <ele>658.8</ele>
        <time>2022-05-21 03:19:27</time>
      </trkpt>
      <trkpt lat="41.93353" lon="2.37291">
        <ele>658.4</ele>
        <time>2022-05-21 03:19:28</time>
      </trkpt>
      <trkpt lat="41.93354" lon="2.37282">
        <ele>658.2</ele>
        <time>2022-05-21 03:19:29</time>
      </trkpt>
      <trkpt lat="41.93353" lon="2.37272">
        <ele>657.8</ele>
        <time>2022-05-21 03:19:30</time>
      </trkpt>
      <trkpt lat="41.93354" lon="2.37263">
        <ele>657.6</ele>
        <time>2022-05-21 03:19:31</time>
      </trkpt>
      <trkpt lat="41.93356" lon="2.37254">
        <ele>657.2</ele>
        <time>2022-05-21 03:19:32</time>
      </trkpt>
      <trkpt lat="41.93359" lon="2.37245">
        <ele>656.8</ele>
        <time>2022-05-21 03:19:33</time>
      </trkpt>
      <trkpt lat="41.93364" lon="2.37238">
        <ele>656.6</ele>
        <time>2022-05-21 03:19:34</time>
      </trkpt>
      <trkpt lat="41.93371" lon="2.37236">
        <ele>656.2</ele>
        <time>2022-05-21 03:19:35</time>
      </trkpt>
      <trkpt lat="41.9338" lon="2.3724">
        <ele>656</ele>
        <time>2022-05-21 03:19:36</time>
      </trkpt>
      <trkpt lat="41.93387" lon="2.37246">
        <ele>655.8</ele>
        <time>2022-05-21 03:19:37</time>
      </trkpt>
      <trkpt lat="41.93393" lon="2.37252">
        <ele>655.6</ele>
        <time>2022-05-21 03:19:38</time>
      </trkpt>
      <trkpt lat="41.93397" lon="2.3726">
        <ele>655.4</ele>
        <time>2022-05-21 03:19:39</time>
      </trkpt>
      <trkpt lat="41.93401" lon="2.37267">
        <ele>655.2</ele>
        <time>2022-05-21 03:19:40</time>
      </trkpt>
      <trkpt lat="41.93407" lon="2.37274">
        <ele>655</ele>
        <time>2022-05-21 03:19:41</time>
      </trkpt>
      <trkpt lat="41.93413" lon="2.37278">
        <ele>654.8</ele>
        <time>2022-05-21 03:19:42</time>
      </trkpt>
      <trkpt lat="41.9342" lon="2.3728">
        <ele>654.6</ele>
        <time>2022-05-21 03:19:43</time>
      </trkpt>
      <trkpt lat="41.93427" lon="2.37279">
        <ele>654.2</ele>
        <time>2022-05-21 03:19:44</time>
      </trkpt>
      <trkpt lat="41.93435" lon="2.37277">
        <ele>654</ele>
        <time>2022-05-21 03:19:45</time>
      </trkpt>
      <trkpt lat="41.93443" lon="2.37273">
        <ele>653.6</ele>
        <time>2022-05-21 03:19:46</time>
      </trkpt>
      <trkpt lat="41.93449" lon="2.37268">
        <ele>653.4</ele>
        <time>2022-05-21 03:19:47</time>
      </trkpt>
      <trkpt lat="41.93456" lon="2.37264">
        <ele>653</ele>
        <time>2022-05-21 03:19:48</time>
      </trkpt>
      <trkpt lat="41.93463" lon="2.3726">
        <ele>652.8</ele>
        <time>2022-05-21 03:19:49</time>
      </trkpt>
      <trkpt lat="41.9347" lon="2.37258">
        <ele>652.4</ele>
        <time>2022-05-21 03:19:50</time>
      </trkpt>
      <trkpt lat="41.93477" lon="2.37257">
        <ele>652.2</ele>
        <time>2022-05-21 03:19:51</time>
      </trkpt>
      <trkpt lat="41.93483" lon="2.3726">
        <ele>651.8</ele>
        <time>2022-05-21 03:19:52</time>
      </trkpt>
      <trkpt lat="41.93489" lon="2.37264">
        <ele>651.6</ele>
        <time>2022-05-21 03:19:53</time>
      </trkpt>
      <trkpt lat="41.93493" lon="2.37269">
        <ele>651.4</ele>
        <time>2022-05-21 03:19:54</time>
      </trkpt>
      <trkpt lat="41.93495" lon="2.37276">
        <ele>651.2</ele>
        <time>2022-05-21 03:19:55</time>
      </trkpt>
      <trkpt lat="41.93495" lon="2.37282">
        <ele>651.2</ele>
        <time>2022-05-21 03:19:56</time>
      </trkpt>
      <trkpt lat="41.93494" lon="2.37289">
        <ele>651</ele>
        <time>2022-05-21 03:19:57</time>
      </trkpt>
      <trkpt lat="41.93493" lon="2.37295">
        <ele>650.8</ele>
        <time>2022-05-21 03:19:58</time>
      </trkpt>
      <trkpt lat="41.93491" lon="2.37303">
        <ele>650.6</ele>
        <time>2022-05-21 03:19:59</time>
      </trkpt>
      <trkpt lat="41.93491" lon="2.37312">
        <ele>650.4</ele>
        <time>2022-05-21 03:20:00</time>
      </trkpt>
      <trkpt lat="41.9349" lon="2.37322">
        <ele>650.2</ele>
        <time>2022-05-21 03:20:01</time>
      </trkpt>
      <trkpt lat="41.93491" lon="2.37332">
        <ele>650</ele>
        <time>2022-05-21 03:20:02</time>
      </trkpt>
      <trkpt lat="41.93493" lon="2.37341">
        <ele>649.8</ele>
        <time>2022-05-21 03:20:03</time>
      </trkpt>
      <trkpt lat="41.93496" lon="2.37349">
        <ele>649.6</ele>
        <time>2022-05-21 03:20:04</time>
      </trkpt>
      <trkpt lat="41.935" lon="2.37355">
        <ele>649.2</ele>
        <time>2022-05-21 03:20:05</time>
      </trkpt>
      <trkpt lat="41.93505" lon="2.3736">
        <ele>649</ele>
        <time>2022-05-21 03:20:06</time>
      </trkpt>
      <trkpt lat="41.9351" lon="2.37364">
        <ele>648.8</ele>
        <time>2022-05-21 03:20:07</time>
      </trkpt>
      <trkpt lat="41.93515" lon="2.3737">
        <ele>648.4</ele>
        <time>2022-05-21 03:20:08</time>
      </trkpt>
      <trkpt lat="41.93521" lon="2.37377">
        <ele>648.2</ele>
        <time>2022-05-21 03:20:09</time>
      </trkpt>
      <trkpt lat="41.93526" lon="2.37385">
        <ele>647.8</ele>
        <time>2022-05-21 03:20:10</time>
      </trkpt>
      <trkpt lat="41.93532" lon="2.37394">
        <ele>647.4</ele>
        <time>2022-05-21 03:20:11</time>
      </trkpt>
      <trkpt lat="41.93537" lon="2.37403">
        <ele>647</ele>
        <time>2022-05-21 03:20:12</time>
      </trkpt>
      <trkpt lat="41.93542" lon="2.37412">
        <ele>646.4</ele>
        <time>2022-05-21 03:20:13</time>
      </trkpt>
      <trkpt lat="41.93548" lon="2.37421">
        <ele>646</ele>
        <time>2022-05-21 03:20:14</time>
      </trkpt>
      <trkpt lat="41.93555" lon="2.37428">
        <ele>645.6</ele>
        <time>2022-05-21 03:20:15</time>
      </trkpt>
      <trkpt lat="41.93562" lon="2.37435">
        <ele>645.2</ele>
        <time>2022-05-21 03:20:16</time>
      </trkpt>
      <trkpt lat="41.93569" lon="2.37441">
        <ele>644.6</ele>
        <time>2022-05-21 03:20:17</time>
      </trkpt>
      <trkpt lat="41.93577" lon="2.37444">
        <ele>644.2</ele>
        <time>2022-05-21 03:20:18</time>
      </trkpt>
      <trkpt lat="41.93585" lon="2.37446">
        <ele>643.8</ele>
        <time>2022-05-21 03:20:19</time>
      </trkpt>
      <trkpt lat="41.93592" lon="2.37445">
        <ele>643.6</ele>
        <time>2022-05-21 03:20:20</time>
      </trkpt>
      <trkpt lat="41.93598" lon="2.37442">
        <ele>643.2</ele>
        <time>2022-05-21 03:20:21</time>
      </trkpt>
      <trkpt lat="41.93601" lon="2.37435">
        <ele>642.8</ele>
        <time>2022-05-21 03:20:22</time>
      </trkpt>
      <trkpt lat="41.93604" lon="2.37427">
        <ele>642.4</ele>
        <time>2022-05-21 03:20:23</time>
      </trkpt>
      <trkpt lat="41.93605" lon="2.37418">
        <ele>642.2</ele>
        <time>2022-05-21 03:20:24</time>
      </trkpt>
      <trkpt lat="41.93608" lon="2.37409">
        <ele>641.6</ele>
        <time>2022-05-21 03:20:25</time>
      </trkpt>
      <trkpt lat="41.93612" lon="2.37401">
        <ele>641.2</ele>
        <time>2022-05-21 03:20:26</time>
      </trkpt>
      <trkpt lat="41.93618" lon="2.37393">
        <ele>640.8</ele>
        <time>2022-05-21 03:20:27</time>
      </trkpt>
      <trkpt lat="41.93624" lon="2.37388">
        <ele>640</ele>
        <time>2022-05-21 03:20:28</time>
      </trkpt>
      <trkpt lat="41.93631" lon="2.37383">
        <ele>639.6</ele>
        <time>2022-05-21 03:20:29</time>
      </trkpt>
      <trkpt lat="41.93639" lon="2.37382">
        <ele>639</ele>
        <time>2022-05-21 03:20:30</time>
      </trkpt>
      <trkpt lat="41.93647" lon="2.37384">
        <ele>638.4</ele>
        <time>2022-05-21 03:20:31</time>
      </trkpt>
      <trkpt lat="41.93655" lon="2.37388">
        <ele>638</ele>
        <time>2022-05-21 03:20:32</time>
      </trkpt>
      <trkpt lat="41.93662" lon="2.37393">
        <ele>637.4</ele>
        <time>2022-05-21 03:20:33</time>
      </trkpt>
      <trkpt lat="41.9367" lon="2.37399">
        <ele>637</ele>
        <time>2022-05-21 03:20:34</time>
      </trkpt>
      <trkpt lat="41.93679" lon="2.37407">
        <ele>636.6</ele>
        <time>2022-05-21 03:20:35</time>
      </trkpt>
      <trkpt lat="41.93687" lon="2.37414">
        <ele>636.2</ele>
        <time>2022-05-21 03:20:36</time>
      </trkpt>
      <trkpt lat="41.93694" lon="2.37421">
        <ele>635.8</ele>
        <time>2022-05-21 03:20:37</time>
      </trkpt>
      <trkpt lat="41.937" lon="2.37428">
        <ele>635.4</ele>
        <time>2022-05-21 03:20:38</time>
      </trkpt>
      <trkpt lat="41.93705" lon="2.37436">
        <ele>635</ele>
        <time>2022-05-21 03:20:39</time>
      </trkpt>
      <trkpt lat="41.93709" lon="2.37445">
        <ele>634.8</ele>
        <time>2022-05-21 03:20:40</time>
      </trkpt>
      <trkpt lat="41.93712" lon="2.37455">
        <ele>634.4</ele>
        <time>2022-05-21 03:20:41</time>
      </trkpt>
      <trkpt lat="41.93713" lon="2.37465">
        <ele>634</ele>
        <time>2022-05-21 03:20:42</time>
      </trkpt>
      <trkpt lat="41.93713" lon="2.37476">
        <ele>633.8</ele>
        <time>2022-05-21 03:20:43</time>
      </trkpt>
      <trkpt lat="41.93713" lon="2.37487">
        <ele>633.4</ele>
        <time>2022-05-21 03:20:44</time>
      </trkpt>
      <trkpt lat="41.93713" lon="2.375">
        <ele>633</ele>
        <time>2022-05-21 03:20:45</time>
      </trkpt>
      <trkpt lat="41.93714" lon="2.37511">
        <ele>632.6</ele>
        <time>2022-05-21 03:20:46</time>
      </trkpt>
      <trkpt lat="41.93715" lon="2.37523">
        <ele>632.2</ele>
        <time>2022-05-21 03:20:47</time>
      </trkpt>
      <trkpt lat="41.93718" lon="2.37534">
        <ele>632</ele>
        <time>2022-05-21 03:20:48</time>
      </trkpt>
      <trkpt lat="41.93721" lon="2.37543">
        <ele>631.6</ele>
        <time>2022-05-21 03:20:49</time>
      </trkpt>
      <trkpt lat="41.93726" lon="2.37552">
        <ele>631.4</ele>
        <time>2022-05-21 03:20:50</time>
      </trkpt>
      <trkpt lat="41.93732" lon="2.37559">
        <ele>631</ele>
        <time>2022-05-21 03:20:51</time>
      </trkpt>
      <trkpt lat="41.93739" lon="2.37564">
        <ele>630.8</ele>
        <time>2022-05-21 03:20:52</time>
      </trkpt>
      <trkpt lat="41.93746" lon="2.37567">
        <ele>630.6</ele>
        <time>2022-05-21 03:20:53</time>
      </trkpt>
      <trkpt lat="41.93753" lon="2.37569">
        <ele>630.4</ele>
        <time>2022-05-21 03:20:54</time>
      </trkpt>
      <trkpt lat="41.93761" lon="2.37569">
        <ele>630</ele>
        <time>2022-05-21 03:20:55</time>
      </trkpt>
      <trkpt lat="41.93769" lon="2.37566">
        <ele>629.8</ele>
        <time>2022-05-21 03:20:56</time>
      </trkpt>
      <trkpt lat="41.93776" lon="2.37562">
        <ele>629.6</ele>
        <time>2022-05-21 03:20:57</time>
      </trkpt>
      <trkpt lat="41.93784" lon="2.37558">
        <ele>629.2</ele>
        <time>2022-05-21 03:20:58</time>
      </trkpt>
      <trkpt lat="41.93791" lon="2.37553">
        <ele>628.8</ele>
        <time>2022-05-21 03:20:59</time>
      </trkpt>
      <trkpt lat="41.93799" lon="2.37552">
        <ele>628.4</ele>
        <time>2022-05-21 03:21:00</time>
      </trkpt>
      <trkpt lat="41.93808" lon="2.37552">
        <ele>627.8</ele>
        <time>2022-05-21 03:21:01</time>
      </trkpt>
      <trkpt lat="41.93816" lon="2.37554">
        <ele>627.4</ele>
        <time>2022-05-21 03:21:02</time>
      </trkpt>
      <trkpt lat="41.93822" lon="2.37559">
        <ele>627</ele>
        <time>2022-05-21 03:21:03</time>
      </trkpt>
      <trkpt lat="41.9383" lon="2.37565">
        <ele>626.6</ele>
        <time>2022-05-21 03:21:04</time>
      </trkpt>
      <trkpt lat="41.93837" lon="2.37573">
        <ele>626</ele>
        <time>2022-05-21 03:21:05</time>
      </trkpt>
      <trkpt lat="41.93843" lon="2.37581">
        <ele>625.4</ele>
        <time>2022-05-21 03:21:06</time>
      </trkpt>
      <trkpt lat="41.9385" lon="2.3759">
        <ele>624.8</ele>
        <time>2022-05-21 03:21:07</time>
      </trkpt>
      <trkpt lat="41.93858" lon="2.37599">
        <ele>624.4</ele>
        <time>2022-05-21 03:21:08</time>
      </trkpt>
      <trkpt lat="41.93865" lon="2.37608">
        <ele>623.8</ele>
        <time>2022-05-21 03:21:09</time>
      </trkpt>
      <trkpt lat="41.93872" lon="2.37618">
        <ele>623.4</ele>
        <time>2022-05-21 03:21:10</time>
      </trkpt>
      <trkpt lat="41.93878" lon="2.37628">
        <ele>622.8</ele>
        <time>2022-05-21 03:21:11</time>
      </trkpt>
      <trkpt lat="41.93885" lon="2.37639">
        <ele>622.2</ele>
        <time>2022-05-21 03:21:12</time>
      </trkpt>
      <trkpt lat="41.9389" lon="2.37652">
        <ele>621.6</ele>
        <time>2022-05-21 03:21:13</time>
      </trkpt>
      <trkpt lat="41.93895" lon="2.37662">
        <ele>621.2</ele>
        <time>2022-05-21 03:21:14</time>
      </trkpt>
      <trkpt lat="41.939" lon="2.37672">
        <ele>620.8</ele>
        <time>2022-05-21 03:21:15</time>
      </trkpt>
      <trkpt lat="41.93905" lon="2.3768">
        <ele>620.2</ele>
        <time>2022-05-21 03:21:16</time>
      </trkpt>
      <trkpt lat="41.93911" lon="2.37685">
        <ele>619.8</ele>
        <time>2022-05-21 03:21:17</time>
      </trkpt>
      <trkpt lat="41.93919" lon="2.37689">
        <ele>619.4</ele>
        <time>2022-05-21 03:21:18</time>
      </trkpt>
      <trkpt lat="41.93926" lon="2.37693">
        <ele>618.8</ele>
        <time>2022-05-21 03:21:19</time>
      </trkpt>
      <trkpt lat="41.93935" lon="2.37695">
        <ele>618.4</ele>
        <time>2022-05-21 03:21:20</time>
      </trkpt>
      <trkpt lat="41.93943" lon="2.37697">
        <ele>618</ele>
        <time>2022-05-21 03:21:21</time>
      </trkpt>
      <trkpt lat="41.93951" lon="2.37698">
        <ele>617.4</ele>
        <time>2022-05-21 03:21:22</time>
      </trkpt>
      <trkpt lat="41.93961" lon="2.37698">
        <ele>616.8</ele>
        <time>2022-05-21 03:21:23</time>
      </trkpt>
      <trkpt lat="41.93969" lon="2.37697">
        <ele>616.4</ele>
        <time>2022-05-21 03:21:24</time>
      </trkpt>
      <trkpt lat="41.93978" lon="2.37696">
        <ele>615.8</ele>
        <time>2022-05-21 03:21:25</time>
      </trkpt>
      <trkpt lat="41.93986" lon="2.37692">
        <ele>615.2</ele>
        <time>2022-05-21 03:21:26</time>
      </trkpt>
      <trkpt lat="41.93993" lon="2.37687">
        <ele>614.8</ele>
        <time>2022-05-21 03:21:27</time>
      </trkpt>
      <trkpt lat="41.93997" lon="2.37679">
        <ele>614.4</ele>
        <time>2022-05-21 03:21:28</time>
      </trkpt>
      <trkpt lat="41.94001" lon="2.37671">
        <ele>614</ele>
        <time>2022-05-21 03:21:29</time>
      </trkpt>
      <trkpt lat="41.94003" lon="2.37661">
        <ele>613.6</ele>
        <time>2022-05-21 03:21:30</time>
      </trkpt>
      <trkpt lat="41.94004" lon="2.37651">
        <ele>613.4</ele>
        <time>2022-05-21 03:21:31</time>
      </trkpt>
      <trkpt lat="41.94005" lon="2.3764">
        <ele>612.8</ele>
        <time>2022-05-21 03:21:32</time>
      </trkpt>
      <trkpt lat="41.94006" lon="2.3763">
        <ele>612.4</ele>
        <time>2022-05-21 03:21:33</time>
      </trkpt>
      <trkpt lat="41.94006" lon="2.37619">
        <ele>612</ele>
        <time>2022-05-21 03:21:34</time>
      </trkpt>
      <trkpt lat="41.94006" lon="2.37607">
        <ele>611.4</ele>
        <time>2022-05-21 03:21:35</time>
      </trkpt>
      <trkpt lat="41.94006" lon="2.37595">
        <ele>610.8</ele>
        <time>2022-05-21 03:21:36</time>
      </trkpt>
      <trkpt lat="41.94007" lon="2.37583">
        <ele>610.2</ele>
        <time>2022-05-21 03:21:37</time>
      </trkpt>
      <trkpt lat="41.94009" lon="2.3757">
        <ele>609.6</ele>
        <time>2022-05-21 03:21:38</time>
      </trkpt>
      <trkpt lat="41.94012" lon="2.37558">
        <ele>609</ele>
        <time>2022-05-21 03:21:39</time>
      </trkpt>
      <trkpt lat="41.94016" lon="2.37545">
        <ele>608.4</ele>
        <time>2022-05-21 03:21:40</time>
      </trkpt>
      <trkpt lat="41.9402" lon="2.37534">
        <ele>608</ele>
        <time>2022-05-21 03:21:41</time>
      </trkpt>
      <trkpt lat="41.94024" lon="2.37524">
        <ele>607.4</ele>
        <time>2022-05-21 03:21:42</time>
      </trkpt>
      <trkpt lat="41.94029" lon="2.37517">
        <ele>606.8</ele>
        <time>2022-05-21 03:21:43</time>
      </trkpt>
      <trkpt lat="41.94035" lon="2.37516">
        <ele>606.4</ele>
        <time>2022-05-21 03:21:44</time>
      </trkpt>
      <trkpt lat="41.94041" lon="2.37519">
        <ele>606</ele>
        <time>2022-05-21 03:21:45</time>
      </trkpt>
      <trkpt lat="41.94048" lon="2.37524">
        <ele>605.6</ele>
        <time>2022-05-21 03:21:46</time>
      </trkpt>
      <trkpt lat="41.94053" lon="2.37531">
        <ele>605</ele>
        <time>2022-05-21 03:21:47</time>
      </trkpt>
      <trkpt lat="41.94059" lon="2.37538">
        <ele>604.6</ele>
        <time>2022-05-21 03:21:48</time>
      </trkpt>
      <trkpt lat="41.94065" lon="2.37545">
        <ele>604</ele>
        <time>2022-05-21 03:21:49</time>
      </trkpt>
      <trkpt lat="41.94073" lon="2.3755">
        <ele>603.4</ele>
        <time>2022-05-21 03:21:50</time>
      </trkpt>
      <trkpt lat="41.94081" lon="2.37554">
        <ele>602.8</ele>
        <time>2022-05-21 03:21:51</time>
      </trkpt>
      <trkpt lat="41.94089" lon="2.37558">
        <ele>602.4</ele>
        <time>2022-05-21 03:21:52</time>
      </trkpt>
      <trkpt lat="41.94099" lon="2.37562">
        <ele>601.8</ele>
        <time>2022-05-21 03:21:53</time>
      </trkpt>
      <trkpt lat="41.94108" lon="2.37566">
        <ele>601.2</ele>
        <time>2022-05-21 03:21:54</time>
      </trkpt>
      <trkpt lat="41.94117" lon="2.37571">
        <ele>600.6</ele>
        <time>2022-05-21 03:21:55</time>
      </trkpt>
      <trkpt lat="41.94125" lon="2.37578">
        <ele>600</ele>
        <time>2022-05-21 03:21:56</time>
      </trkpt>
      <trkpt lat="41.94134" lon="2.37587">
        <ele>599.2</ele>
        <time>2022-05-21 03:21:57</time>
      </trkpt>
      <trkpt lat="41.94142" lon="2.37598">
        <ele>598.8</ele>
        <time>2022-05-21 03:21:58</time>
      </trkpt>
      <trkpt lat="41.94148" lon="2.37611">
        <ele>598.2</ele>
        <time>2022-05-21 03:21:59</time>
      </trkpt>
      <trkpt lat="41.94154" lon="2.37623">
        <ele>597.6</ele>
        <time>2022-05-21 03:22:00</time>
      </trkpt>
      <trkpt lat="41.94159" lon="2.37637">
        <ele>597</ele>
        <time>2022-05-21 03:22:01</time>
      </trkpt>
      <trkpt lat="41.94165" lon="2.3765">
        <ele>596.6</ele>
        <time>2022-05-21 03:22:02</time>
      </trkpt>
      <trkpt lat="41.9417" lon="2.37663">
        <ele>596</ele>
        <time>2022-05-21 03:22:03</time>
      </trkpt>
      <trkpt lat="41.94174" lon="2.37676">
        <ele>595.4</ele>
        <time>2022-05-21 03:22:04</time>
      </trkpt>
      <trkpt lat="41.94178" lon="2.37689">
        <ele>594.8</ele>
        <time>2022-05-21 03:22:05</time>
      </trkpt>
      <trkpt lat="41.94182" lon="2.37703">
        <ele>594.4</ele>
        <time>2022-05-21 03:22:06</time>
      </trkpt>
      <trkpt lat="41.94186" lon="2.37716">
        <ele>593.8</ele>
        <time>2022-05-21 03:22:07</time>
      </trkpt>
      <trkpt lat="41.94191" lon="2.37727">
        <ele>593.4</ele>
        <time>2022-05-21 03:22:08</time>
      </trkpt>
      <trkpt lat="41.94196" lon="2.37737">
        <ele>593</ele>
        <time>2022-05-21 03:22:09</time>
      </trkpt>
      <trkpt lat="41.94203" lon="2.37744">
        <ele>592.6</ele>
        <time>2022-05-21 03:22:10</time>
      </trkpt>
      <trkpt lat="41.9421" lon="2.37751">
        <ele>592.2</ele>
        <time>2022-05-21 03:22:11</time>
      </trkpt>
      <trkpt lat="41.94217" lon="2.37758">
        <ele>591.8</ele>
        <time>2022-05-21 03:22:12</time>
      </trkpt>
      <trkpt lat="41.94223" lon="2.37766">
        <ele>591.4</ele>
        <time>2022-05-21 03:22:13</time>
      </trkpt>
      <trkpt lat="41.94229" lon="2.37775">
        <ele>591</ele>
        <time>2022-05-21 03:22:14</time>
      </trkpt>
      <trkpt lat="41.94234" lon="2.37784">
        <ele>590.6</ele>
        <time>2022-05-21 03:22:15</time>
      </trkpt>
      <trkpt lat="41.94237" lon="2.37795">
        <ele>590</ele>
        <time>2022-05-21 03:22:16</time>
      </trkpt>
      <trkpt lat="41.9424" lon="2.37807">
        <ele>589.6</ele>
        <time>2022-05-21 03:22:17</time>
      </trkpt>
      <trkpt lat="41.94242" lon="2.37819">
        <ele>589.4</ele>
        <time>2022-05-21 03:22:18</time>
      </trkpt>
      <trkpt lat="41.94243" lon="2.3783">
        <ele>589</ele>
        <time>2022-05-21 03:22:19</time>
      </trkpt>
      <trkpt lat="41.94245" lon="2.37841">
        <ele>588.8</ele>
        <time>2022-05-21 03:22:20</time>
      </trkpt>
      <trkpt lat="41.94247" lon="2.3785">
        <ele>588.6</ele>
        <time>2022-05-21 03:22:21</time>
      </trkpt>
      <trkpt lat="41.94251" lon="2.37857">
        <ele>588.4</ele>
        <time>2022-05-21 03:22:22</time>
      </trkpt>
      <trkpt lat="41.94257" lon="2.3786">
        <ele>588.2</ele>
        <time>2022-05-21 03:22:23</time>
      </trkpt>
      <trkpt lat="41.94262" lon="2.37859">
        <ele>588</ele>
        <time>2022-05-21 03:22:24</time>
      </trkpt>
      <trkpt lat="41.94271" lon="2.37855">
        <ele>587.8</ele>
        <time>2022-05-21 03:22:25</time>
      </trkpt>
      <trkpt lat="41.94276" lon="2.37851">
        <ele>587.6</ele>
        <time>2022-05-21 03:22:26</time>
      </trkpt>
      <trkpt lat="41.94281" lon="2.37844">
        <ele>587.4</ele>
        <time>2022-05-21 03:22:27</time>
      </trkpt>
      <trkpt lat="41.94286" lon="2.37838">
        <ele>587.2</ele>
        <time>2022-05-21 03:22:28</time>
      </trkpt>
      <trkpt lat="41.9429" lon="2.37832">
        <ele>587</ele>
        <time>2022-05-21 03:22:29</time>
      </trkpt>
      <trkpt lat="41.94295" lon="2.37826">
        <ele>586.6</ele>
        <time>2022-05-21 03:22:30</time>
      </trkpt>
      <trkpt lat="41.94299" lon="2.37823">
        <ele>586.4</ele>
        <time>2022-05-21 03:22:31</time>
      </trkpt>
      <trkpt lat="41.94304" lon="2.37826">
        <ele>586.2</ele>
        <time>2022-05-21 03:22:32</time>
      </trkpt>
      <trkpt lat="41.94308" lon="2.37833">
        <ele>586</ele>
        <time>2022-05-21 03:22:33</time>
      </trkpt>
      <trkpt lat="41.94313" lon="2.37838">
        <ele>585.8</ele>
        <time>2022-05-21 03:22:34</time>
      </trkpt>
      <trkpt lat="41.94318" lon="2.37845">
        <ele>585.6</ele>
        <time>2022-05-21 03:22:35</time>
      </trkpt>
      <trkpt lat="41.9432" lon="2.3785">
        <ele>585.4</ele>
        <time>2022-05-21 03:22:36</time>
      </trkpt>
      <trkpt lat="41.94322" lon="2.37857">
        <ele>585.4</ele>
        <time>2022-05-21 03:22:37</time>
      </trkpt>
      <trkpt lat="41.94322" lon="2.37866">
        <ele>585.2</ele>
        <time>2022-05-21 03:22:38</time>
      </trkpt>
      <trkpt lat="41.94323" lon="2.37876">
        <ele>585</ele>
        <time>2022-05-21 03:22:39</time>
      </trkpt>
      <trkpt lat="41.94324" lon="2.37887">
        <ele>585</ele>
        <time>2022-05-21 03:22:40</time>
      </trkpt>
      <trkpt lat="41.94326" lon="2.37897">
        <ele>584.8</ele>
        <time>2022-05-21 03:22:41</time>
      </trkpt>
      <trkpt lat="41.94328" lon="2.37907">
        <ele>584.8</ele>
        <time>2022-05-21 03:22:42</time>
      </trkpt>
      <trkpt lat="41.94328" lon="2.37918">
        <ele>584.6</ele>
        <time>2022-05-21 03:22:43</time>
      </trkpt>
      <trkpt lat="41.94328" lon="2.37928">
        <ele>584.4</ele>
        <time>2022-05-21 03:22:44</time>
      </trkpt>
      <trkpt lat="41.94328" lon="2.37939">
        <ele>584.2</ele>
        <time>2022-05-21 03:22:45</time>
      </trkpt>
      <trkpt lat="41.94328" lon="2.37951">
        <ele>584</ele>
        <time>2022-05-21 03:22:46</time>
      </trkpt>
      <trkpt lat="41.94329" lon="2.37962">
        <ele>583.8</ele>
        <time>2022-05-21 03:22:47</time>
      </trkpt>
      <trkpt lat="41.94329" lon="2.37973">
        <ele>583.4</ele>
        <time>2022-05-21 03:22:48</time>
      </trkpt>
      <trkpt lat="41.94331" lon="2.37983">
        <ele>583.2</ele>
        <time>2022-05-21 03:22:49</time>
      </trkpt>
      <trkpt lat="41.94333" lon="2.37994">
        <ele>582.8</ele>
        <time>2022-05-21 03:22:50</time>
      </trkpt>
      <trkpt lat="41.94337" lon="2.38003">
        <ele>582.4</ele>
        <time>2022-05-21 03:22:51</time>
      </trkpt>
      <trkpt lat="41.94341" lon="2.38012">
        <ele>582</ele>
        <time>2022-05-21 03:22:52</time>
      </trkpt>
      <trkpt lat="41.94346" lon="2.3802">
        <ele>581.4</ele>
        <time>2022-05-21 03:22:53</time>
      </trkpt>
      <trkpt lat="41.94352" lon="2.38023">
        <ele>581</ele>
        <time>2022-05-21 03:22:54</time>
      </trkpt>
      <trkpt lat="41.9436" lon="2.38023">
        <ele>580.4</ele>
        <time>2022-05-21 03:22:55</time>
      </trkpt>
      <trkpt lat="41.94368" lon="2.38022">
        <ele>579.8</ele>
        <time>2022-05-21 03:22:56</time>
      </trkpt>
      <trkpt lat="41.94376" lon="2.38022">
        <ele>579.2</ele>
        <time>2022-05-21 03:22:57</time>
      </trkpt>
      <trkpt lat="41.94384" lon="2.38022">
        <ele>578.6</ele>
        <time>2022-05-21 03:22:58</time>
      </trkpt>
      <trkpt lat="41.94392" lon="2.38024">
        <ele>578</ele>
        <time>2022-05-21 03:22:59</time>
      </trkpt>
      <trkpt lat="41.94401" lon="2.38027">
        <ele>577.4</ele>
        <time>2022-05-21 03:23:00</time>
      </trkpt>
      <trkpt lat="41.94409" lon="2.38031">
        <ele>576.8</ele>
        <time>2022-05-21 03:23:01</time>
      </trkpt>
      <trkpt lat="41.94418" lon="2.38036">
        <ele>576</ele>
        <time>2022-05-21 03:23:02</time>
      </trkpt>
      <trkpt lat="41.94426" lon="2.38041">
        <ele>575.4</ele>
        <time>2022-05-21 03:23:03</time>
      </trkpt>
      <trkpt lat="41.94435" lon="2.38046">
        <ele>574.8</ele>
        <time>2022-05-21 03:23:04</time>
      </trkpt>
      <trkpt lat="41.94444" lon="2.38051">
        <ele>574</ele>
        <time>2022-05-21 03:23:05</time>
      </trkpt>
      <trkpt lat="41.94453" lon="2.38056">
        <ele>573.4</ele>
        <time>2022-05-21 03:23:06</time>
      </trkpt>
      <trkpt lat="41.94461" lon="2.38062">
        <ele>572.8</ele>
        <time>2022-05-21 03:23:07</time>
      </trkpt>
      <trkpt lat="41.94469" lon="2.3807">
        <ele>572.2</ele>
        <time>2022-05-21 03:23:08</time>
      </trkpt>
      <trkpt lat="41.94476" lon="2.38079">
        <ele>571.4</ele>
        <time>2022-05-21 03:23:09</time>
      </trkpt>
      <trkpt lat="41.94482" lon="2.38091">
        <ele>570.8</ele>
        <time>2022-05-21 03:23:10</time>
      </trkpt>
      <trkpt lat="41.94489" lon="2.38102">
        <ele>570</ele>
        <time>2022-05-21 03:23:11</time>
      </trkpt>
      <trkpt lat="41.94496" lon="2.38114">
        <ele>569.2</ele>
        <time>2022-05-21 03:23:12</time>
      </trkpt>
      <trkpt lat="41.94503" lon="2.38126">
        <ele>568.6</ele>
        <time>2022-05-21 03:23:13</time>
      </trkpt>
      <trkpt lat="41.9451" lon="2.38137">
        <ele>567.8</ele>
        <time>2022-05-21 03:23:14</time>
      </trkpt>
      <trkpt lat="41.94518" lon="2.38148">
        <ele>567</ele>
        <time>2022-05-21 03:23:15</time>
      </trkpt>
      <trkpt lat="41.94525" lon="2.38158">
        <ele>566.4</ele>
        <time>2022-05-21 03:23:16</time>
      </trkpt>
      <trkpt lat="41.94532" lon="2.38166">
        <ele>565.8</ele>
        <time>2022-05-21 03:23:17</time>
      </trkpt>
      <trkpt lat="41.9454" lon="2.38172">
        <ele>565.4</ele>
        <time>2022-05-21 03:23:18</time>
      </trkpt>
      <trkpt lat="41.94547" lon="2.38175">
        <ele>564.8</ele>
        <time>2022-05-21 03:23:19</time>
      </trkpt>
      <trkpt lat="41.94555" lon="2.38174">
        <ele>564.4</ele>
        <time>2022-05-21 03:23:20</time>
      </trkpt>
      <trkpt lat="41.94563" lon="2.38172">
        <ele>563.8</ele>
        <time>2022-05-21 03:23:21</time>
      </trkpt>
      <trkpt lat="41.94571" lon="2.38167">
        <ele>563.2</ele>
        <time>2022-05-21 03:23:22</time>
      </trkpt>
      <trkpt lat="41.94577" lon="2.38161">
        <ele>562.6</ele>
        <time>2022-05-21 03:23:23</time>
      </trkpt>
      <trkpt lat="41.94583" lon="2.38153">
        <ele>562</ele>
        <time>2022-05-21 03:23:24</time>
      </trkpt>
      <trkpt lat="41.94588" lon="2.38145">
        <ele>561.4</ele>
        <time>2022-05-21 03:23:25</time>
      </trkpt>
      <trkpt lat="41.94594" lon="2.38137">
        <ele>561</ele>
        <time>2022-05-21 03:23:26</time>
      </trkpt>
      <trkpt lat="41.946" lon="2.38131">
        <ele>560.4</ele>
        <time>2022-05-21 03:23:27</time>
      </trkpt>
      <trkpt lat="41.94606" lon="2.38127">
        <ele>559.8</ele>
        <time>2022-05-21 03:23:28</time>
      </trkpt>
      <trkpt lat="41.94613" lon="2.38125">
        <ele>559.2</ele>
        <time>2022-05-21 03:23:29</time>
      </trkpt>
      <trkpt lat="41.9462" lon="2.38126">
        <ele>558.8</ele>
        <time>2022-05-21 03:23:30</time>
      </trkpt>
      <trkpt lat="41.94627" lon="2.3813">
        <ele>558.2</ele>
        <time>2022-05-21 03:23:31</time>
      </trkpt>
      <trkpt lat="41.94633" lon="2.38136">
        <ele>557.8</ele>
        <time>2022-05-21 03:23:32</time>
      </trkpt>
      <trkpt lat="41.94638" lon="2.38144">
        <ele>557.4</ele>
        <time>2022-05-21 03:23:33</time>
      </trkpt>
      <trkpt lat="41.94643" lon="2.38153">
        <ele>556.8</ele>
        <time>2022-05-21 03:23:34</time>
      </trkpt>
      <trkpt lat="41.94648" lon="2.38163">
        <ele>556.4</ele>
        <time>2022-05-21 03:23:35</time>
      </trkpt>
      <trkpt lat="41.94651" lon="2.38173">
        <ele>555.8</ele>
        <time>2022-05-21 03:23:36</time>
      </trkpt>
      <trkpt lat="41.94655" lon="2.38184">
        <ele>555.4</ele>
        <time>2022-05-21 03:23:37</time>
      </trkpt>
      <trkpt lat="41.94658" lon="2.38196">
        <ele>554.8</ele>
        <time>2022-05-21 03:23:38</time>
      </trkpt>
      <trkpt lat="41.9466" lon="2.38207">
        <ele>554.2</ele>
        <time>2022-05-21 03:23:39</time>
      </trkpt>
      <trkpt lat="41.94662" lon="2.38219">
        <ele>553.6</ele>
        <time>2022-05-21 03:23:40</time>
      </trkpt>
      <trkpt lat="41.94666" lon="2.3823">
        <ele>553.2</ele>
        <time>2022-05-21 03:23:41</time>
      </trkpt>
      <trkpt lat="41.9467" lon="2.3824">
        <ele>552.6</ele>
        <time>2022-05-21 03:23:42</time>
      </trkpt>
      <trkpt lat="41.94675" lon="2.38248">
        <ele>552.2</ele>
        <time>2022-05-21 03:23:43</time>
      </trkpt>
      <trkpt lat="41.94681" lon="2.38256">
        <ele>551.8</ele>
        <time>2022-05-21 03:23:44</time>
      </trkpt>
      <trkpt lat="41.94687" lon="2.38264">
        <ele>551.2</ele>
        <time>2022-05-21 03:23:45</time>
      </trkpt>
      <trkpt lat="41.94692" lon="2.38273">
        <ele>550.8</ele>
        <time>2022-05-21 03:23:46</time>
      </trkpt>
      <trkpt lat="41.94696" lon="2.38282">
        <ele>550.6</ele>
        <time>2022-05-21 03:23:47</time>
      </trkpt>
      <trkpt lat="41.94699" lon="2.38292">
        <ele>550.2</ele>
        <time>2022-05-21 03:23:48</time>
      </trkpt>
      <trkpt lat="41.94702" lon="2.38302">
        <ele>550</ele>
        <time>2022-05-21 03:23:49</time>
      </trkpt>
      <trkpt lat="41.94704" lon="2.38311">
        <ele>550</ele>
        <time>2022-05-21 03:23:50</time>
      </trkpt>
      <trkpt lat="41.94706" lon="2.38318">
        <ele>550</ele>
        <time>2022-05-21 03:23:51</time>
      </trkpt>
      <trkpt lat="41.94707" lon="2.38324">
        <ele>550</ele>
        <time>2022-05-21 03:23:52</time>
      </trkpt>
      <trkpt lat="41.94708" lon="2.38327">
        <ele>550</ele>
        <time>2022-05-21 03:23:53</time>
      </trkpt>
      <trkpt lat="41.94709" lon="2.38329">
        <ele>550</ele>
        <time>2022-05-21 03:23:54</time>
      </trkpt>
      <trkpt lat="41.94708" lon="2.38323">
        <ele>550</ele>
        <time>2022-05-21 03:23:57</time>
      </trkpt>
      <trkpt lat="41.94707" lon="2.38321">
        <ele>550</ele>
        <time>2022-05-21 03:23:58</time>
      </trkpt>
      <trkpt lat="41.94706" lon="2.38319">
        <ele>550</ele>
        <time>2022-05-21 03:23:59</time>
      </trkpt>
      <trkpt lat="41.94705" lon="2.38316">
        <ele>550.2</ele>
        <time>2022-05-21 03:24:00</time>
      </trkpt>
      <trkpt lat="41.94705" lon="2.38314">
        <ele>550.2</ele>
        <time>2022-05-21 03:24:01</time>
      </trkpt>
      <trkpt lat="41.94704" lon="2.38311">
        <ele>550.2</ele>
        <time>2022-05-21 03:24:02</time>
      </trkpt>
      <trkpt lat="41.94704" lon="2.38308">
        <ele>550.2</ele>
        <time>2022-05-21 03:24:03</time>
      </trkpt>
      <trkpt lat="41.94704" lon="2.38304">
        <ele>550</ele>
        <time>2022-05-21 03:24:04</time>
      </trkpt>
      <trkpt lat="41.94706" lon="2.383">
        <ele>550</ele>
        <time>2022-05-21 03:24:05</time>
      </trkpt>
      <trkpt lat="41.94708" lon="2.38297">
        <ele>549.8</ele>
        <time>2022-05-21 03:24:06</time>
      </trkpt>
      <trkpt lat="41.94711" lon="2.38294">
        <ele>549.8</ele>
        <time>2022-05-21 03:24:07</time>
      </trkpt>
      <trkpt lat="41.94715" lon="2.38291">
        <ele>549.6</ele>
        <time>2022-05-21 03:24:08</time>
      </trkpt>
      <trkpt lat="41.94719" lon="2.38288">
        <ele>549.4</ele>
        <time>2022-05-21 03:24:09</time>
      </trkpt>
      <trkpt lat="41.94723" lon="2.38284">
        <ele>549.2</ele>
        <time>2022-05-21 03:24:10</time>
      </trkpt>
      <trkpt lat="41.94727" lon="2.38281">
        <ele>548.8</ele>
        <time>2022-05-21 03:24:11</time>
      </trkpt>
      <trkpt lat="41.94732" lon="2.38277">
        <ele>548.4</ele>
        <time>2022-05-21 03:24:12</time>
      </trkpt>
      <trkpt lat="41.94736" lon="2.38271">
        <ele>548.2</ele>
        <time>2022-05-21 03:24:13</time>
      </trkpt>
      <trkpt lat="41.94741" lon="2.38265">
        <ele>547.8</ele>
        <time>2022-05-21 03:24:14</time>
      </trkpt>
      <trkpt lat="41.94744" lon="2.38257">
        <ele>547.4</ele>
        <time>2022-05-21 03:24:15</time>
      </trkpt>
      <trkpt lat="41.94747" lon="2.38249">
        <ele>547</ele>
        <time>2022-05-21 03:24:16</time>
      </trkpt>
      <trkpt lat="41.94749" lon="2.38241">
        <ele>546.4</ele>
        <time>2022-05-21 03:24:17</time>
      </trkpt>
      <trkpt lat="41.94752" lon="2.38231">
        <ele>546</ele>
        <time>2022-05-21 03:24:18</time>
      </trkpt>
      <trkpt lat="41.94754" lon="2.38221">
        <ele>545.4</ele>
        <time>2022-05-21 03:24:19</time>
      </trkpt>
      <trkpt lat="41.94756" lon="2.38211">
        <ele>544.8</ele>
        <time>2022-05-21 03:24:20</time>
      </trkpt>
      <trkpt lat="41.94757" lon="2.38199">
        <ele>544.4</ele>
        <time>2022-05-21 03:24:21</time>
      </trkpt>
      <trkpt lat="41.94758" lon="2.38189">
        <ele>543.8</ele>
        <time>2022-05-21 03:24:22</time>
      </trkpt>
      <trkpt lat="41.94757" lon="2.38177">
        <ele>543.4</ele>
        <time>2022-05-21 03:24:23</time>
      </trkpt>
      <trkpt lat="41.94756" lon="2.38165">
        <ele>542.8</ele>
        <time>2022-05-21 03:24:24</time>
      </trkpt>
      <trkpt lat="41.94757" lon="2.38154">
        <ele>542.2</ele>
        <time>2022-05-21 03:24:25</time>
      </trkpt>
      <trkpt lat="41.94759" lon="2.38142">
        <ele>541.8</ele>
        <time>2022-05-21 03:24:26</time>
      </trkpt>
      <trkpt lat="41.9476" lon="2.38129">
        <ele>541.2</ele>
        <time>2022-05-21 03:24:27</time>
      </trkpt>
      <trkpt lat="41.94761" lon="2.38118">
        <ele>540.6</ele>
        <time>2022-05-21 03:24:28</time>
      </trkpt>
      <trkpt lat="41.94759" lon="2.38107">
        <ele>540</ele>
        <time>2022-05-21 03:24:29</time>
      </trkpt>
      <trkpt lat="41.94756" lon="2.38097">
        <ele>539.4</ele>
        <time>2022-05-21 03:24:30</time>
      </trkpt>
      <trkpt lat="41.94752" lon="2.38087">
        <ele>538.8</ele>
        <time>2022-05-21 03:24:31</time>
      </trkpt>
      <trkpt lat="41.94748" lon="2.38077">
        <ele>538.4</ele>
        <time>2022-05-21 03:24:32</time>
      </trkpt>
      <trkpt lat="41.94747" lon="2.38065">
        <ele>537.8</ele>
        <time>2022-05-21 03:24:33</time>
      </trkpt>
      <trkpt lat="41.94748" lon="2.38054">
        <ele>537.4</ele>
        <time>2022-05-21 03:24:34</time>
      </trkpt>
      <trkpt lat="41.94752" lon="2.38043">
        <ele>536.8</ele>
        <time>2022-05-21 03:24:35</time>
      </trkpt>
      <trkpt lat="41.94757" lon="2.38034">
        <ele>536.2</ele>
        <time>2022-05-21 03:24:36</time>
      </trkpt>
      <trkpt lat="41.94761" lon="2.38024">
        <ele>535.8</ele>
        <time>2022-05-21 03:24:37</time>
      </trkpt>
      <trkpt lat="41.94764" lon="2.38012">
        <ele>535</ele>
        <time>2022-05-21 03:24:38</time>
      </trkpt>
      <trkpt lat="41.94765" lon="2.38">
        <ele>534.4</ele>
        <time>2022-05-21 03:24:39</time>
      </trkpt>
      <trkpt lat="41.94764" lon="2.37989">
        <ele>533.8</ele>
        <time>2022-05-21 03:24:40</time>
      </trkpt>
      <trkpt lat="41.94761" lon="2.37979">
        <ele>533.2</ele>
        <time>2022-05-21 03:24:41</time>
      </trkpt>
      <trkpt lat="41.94759" lon="2.37969">
        <ele>532.8</ele>
        <time>2022-05-21 03:24:42</time>
      </trkpt>
      <trkpt lat="41.94759" lon="2.37959">
        <ele>532.2</ele>
        <time>2022-05-21 03:24:43</time>
      </trkpt>
      <trkpt lat="41.94761" lon="2.3795">
        <ele>531.8</ele>
        <time>2022-05-21 03:24:44</time>
      </trkpt>
      <trkpt lat="41.94764" lon="2.37943">
        <ele>531.4</ele>
        <time>2022-05-21 03:24:45</time>
      </trkpt>
      <trkpt lat="41.94769" lon="2.37941">
        <ele>531.2</ele>
        <time>2022-05-21 03:24:46</time>
      </trkpt>
      <trkpt lat="41.94774" lon="2.3794">
        <ele>531</ele>
        <time>2022-05-21 03:24:47</time>
      </trkpt>
      <trkpt lat="41.94779" lon="2.37943">
        <ele>530.6</ele>
        <time>2022-05-21 03:24:48</time>
      </trkpt>
      <trkpt lat="41.94783" lon="2.37948">
        <ele>530.4</ele>
        <time>2022-05-21 03:24:49</time>
      </trkpt>
      <trkpt lat="41.94787" lon="2.37955">
        <ele>530.2</ele>
        <time>2022-05-21 03:24:50</time>
      </trkpt>
      <trkpt lat="41.9479" lon="2.37963">
        <ele>529.8</ele>
        <time>2022-05-21 03:24:51</time>
      </trkpt>
      <trkpt lat="41.94794" lon="2.37971">
        <ele>529.4</ele>
        <time>2022-05-21 03:24:52</time>
      </trkpt>
      <trkpt lat="41.94798" lon="2.37979">
        <ele>529</ele>
        <time>2022-05-21 03:24:53</time>
      </trkpt>
      <trkpt lat="41.94802" lon="2.37989">
        <ele>528.8</ele>
        <time>2022-05-21 03:24:54</time>
      </trkpt>
      <trkpt lat="41.94806" lon="2.37999">
        <ele>528.4</ele>
        <time>2022-05-21 03:24:55</time>
      </trkpt>
      <trkpt lat="41.94809" lon="2.38009">
        <ele>528</ele>
        <time>2022-05-21 03:24:56</time>
      </trkpt>
      <trkpt lat="41.94813" lon="2.3802">
        <ele>527.6</ele>
        <time>2022-05-21 03:24:57</time>
      </trkpt>
      <trkpt lat="41.94817" lon="2.38032">
        <ele>527.2</ele>
        <time>2022-05-21 03:24:58</time>
      </trkpt>
      <trkpt lat="41.9482" lon="2.38044">
        <ele>526.8</ele>
        <time>2022-05-21 03:24:59</time>
      </trkpt>
      <trkpt lat="41.94824" lon="2.38054">
        <ele>526.4</ele>
        <time>2022-05-21 03:25:00</time>
      </trkpt>
      <trkpt lat="41.94827" lon="2.38063">
        <ele>526</ele>
        <time>2022-05-21 03:25:01</time>
      </trkpt>
      <trkpt lat="41.94833" lon="2.38078">
        <ele>525.6</ele>
        <time>2022-05-21 03:25:02</time>
      </trkpt>
      <trkpt lat="41.94837" lon="2.38089">
        <ele>525.2</ele>
        <time>2022-05-21 03:25:03</time>
      </trkpt>
      <trkpt lat="41.94841" lon="2.381">
        <ele>524.8</ele>
        <time>2022-05-21 03:25:04</time>
      </trkpt>
      <trkpt lat="41.94846" lon="2.3811">
        <ele>524.4</ele>
        <time>2022-05-21 03:25:05</time>
      </trkpt>
      <trkpt lat="41.9485" lon="2.38121">
        <ele>524.2</ele>
        <time>2022-05-21 03:25:06</time>
      </trkpt>
      <trkpt lat="41.94854" lon="2.38131">
        <ele>523.8</ele>
        <time>2022-05-21 03:25:07</time>
      </trkpt>
      <trkpt lat="41.94859" lon="2.38143">
        <ele>523.6</ele>
        <time>2022-05-21 03:25:08</time>
      </trkpt>
      <trkpt lat="41.94863" lon="2.38153">
        <ele>523.4</ele>
        <time>2022-05-21 03:25:09</time>
      </trkpt>
      <trkpt lat="41.94866" lon="2.38163">
        <ele>523.2</ele>
        <time>2022-05-21 03:25:10</time>
      </trkpt>
      <trkpt lat="41.9487" lon="2.38175">
        <ele>523</ele>
        <time>2022-05-21 03:25:11</time>
      </trkpt>
      <trkpt lat="41.94873" lon="2.38187">
        <ele>522.8</ele>
        <time>2022-05-21 03:25:12</time>
      </trkpt>
      <trkpt lat="41.94875" lon="2.38199">
        <ele>522.6</ele>
        <time>2022-05-21 03:25:13</time>
      </trkpt>
      <trkpt lat="41.94876" lon="2.38211">
        <ele>522.2</ele>
        <time>2022-05-21 03:25:14</time>
      </trkpt>
      <trkpt lat="41.94877" lon="2.38223">
        <ele>522</ele>
        <time>2022-05-21 03:25:15</time>
      </trkpt>
      <trkpt lat="41.94877" lon="2.38235">
        <ele>521.6</ele>
        <time>2022-05-21 03:25:16</time>
      </trkpt>
      <trkpt lat="41.94877" lon="2.38247">
        <ele>521.2</ele>
        <time>2022-05-21 03:25:17</time>
      </trkpt>
      <trkpt lat="41.94878" lon="2.38259">
        <ele>521</ele>
        <time>2022-05-21 03:25:18</time>
      </trkpt>
      <trkpt lat="41.94878" lon="2.38271">
        <ele>520.8</ele>
        <time>2022-05-21 03:25:19</time>
      </trkpt>
      <trkpt lat="41.94878" lon="2.38284">
        <ele>520.4</ele>
        <time>2022-05-21 03:25:20</time>
      </trkpt>
      <trkpt lat="41.94878" lon="2.38297">
        <ele>520.2</ele>
        <time>2022-05-21 03:25:21</time>
      </trkpt>
      <trkpt lat="41.94878" lon="2.38309">
        <ele>519.8</ele>
        <time>2022-05-21 03:25:22</time>
      </trkpt>
      <trkpt lat="41.9488" lon="2.38321">
        <ele>519.4</ele>
        <time>2022-05-21 03:25:23</time>
      </trkpt>
      <trkpt lat="41.94883" lon="2.38332">
        <ele>519</ele>
        <time>2022-05-21 03:25:24</time>
      </trkpt>
      <trkpt lat="41.94888" lon="2.38342">
        <ele>518.6</ele>
        <time>2022-05-21 03:25:25</time>
      </trkpt>
      <trkpt lat="41.94894" lon="2.38351">
        <ele>518.2</ele>
        <time>2022-05-21 03:25:26</time>
      </trkpt>
      <trkpt lat="41.94902" lon="2.38359">
        <ele>517.6</ele>
        <time>2022-05-21 03:25:27</time>
      </trkpt>
      <trkpt lat="41.94909" lon="2.38367">
        <ele>517.2</ele>
        <time>2022-05-21 03:25:28</time>
      </trkpt>
      <trkpt lat="41.94915" lon="2.38374">
        <ele>516.8</ele>
        <time>2022-05-21 03:25:29</time>
      </trkpt>
      <trkpt lat="41.9492" lon="2.38383">
        <ele>516.4</ele>
        <time>2022-05-21 03:25:30</time>
      </trkpt>
      <trkpt lat="41.94922" lon="2.38392">
        <ele>515.8</ele>
        <time>2022-05-21 03:25:31</time>
      </trkpt>
      <trkpt lat="41.94924" lon="2.38402">
        <ele>515.4</ele>
        <time>2022-05-21 03:25:32</time>
      </trkpt>
      <trkpt lat="41.94924" lon="2.38413">
        <ele>515</ele>
        <time>2022-05-21 03:25:33</time>
      </trkpt>
      <trkpt lat="41.94924" lon="2.38424">
        <ele>514.6</ele>
        <time>2022-05-21 03:25:34</time>
      </trkpt>
      <trkpt lat="41.94924" lon="2.38435">
        <ele>514.2</ele>
        <time>2022-05-21 03:25:35</time>
      </trkpt>
      <trkpt lat="41.94926" lon="2.38446">
        <ele>513.6</ele>
        <time>2022-05-21 03:25:36</time>
      </trkpt>
      <trkpt lat="41.9493" lon="2.38457">
        <ele>513.2</ele>
        <time>2022-05-21 03:25:37</time>
      </trkpt>
      <trkpt lat="41.94934" lon="2.38467">
        <ele>512.6</ele>
        <time>2022-05-21 03:25:38</time>
      </trkpt>
      <trkpt lat="41.94939" lon="2.38477">
        <ele>512.2</ele>
        <time>2022-05-21 03:25:39</time>
      </trkpt>
      <trkpt lat="41.94946" lon="2.38486">
        <ele>511.6</ele>
        <time>2022-05-21 03:25:40</time>
      </trkpt>
      <trkpt lat="41.94952" lon="2.38495">
        <ele>511</ele>
        <time>2022-05-21 03:25:41</time>
      </trkpt>
      <trkpt lat="41.94958" lon="2.38504">
        <ele>510.4</ele>
        <time>2022-05-21 03:25:42</time>
      </trkpt>
      <trkpt lat="41.94965" lon="2.38514">
        <ele>509.8</ele>
        <time>2022-05-21 03:25:43</time>
      </trkpt>
      <trkpt lat="41.9497" lon="2.38526">
        <ele>509.2</ele>
        <time>2022-05-21 03:25:44</time>
      </trkpt>
      <trkpt lat="41.94973" lon="2.38538">
        <ele>508.6</ele>
        <time>2022-05-21 03:25:45</time>
      </trkpt>
      <trkpt lat="41.94976" lon="2.38552">
        <ele>508</ele>
        <time>2022-05-21 03:25:46</time>
      </trkpt>
      <trkpt lat="41.94978" lon="2.38565">
        <ele>507.4</ele>
        <time>2022-05-21 03:25:47</time>
      </trkpt>
      <trkpt lat="41.94981" lon="2.38579">
        <ele>506.8</ele>
        <time>2022-05-21 03:25:48</time>
      </trkpt>
      <trkpt lat="41.94984" lon="2.38591">
        <ele>506.4</ele>
        <time>2022-05-21 03:25:49</time>
      </trkpt>
      <trkpt lat="41.94987" lon="2.38604">
        <ele>505.8</ele>
        <time>2022-05-21 03:25:50</time>
      </trkpt>
      <trkpt lat="41.94992" lon="2.38617">
        <ele>505.2</ele>
        <time>2022-05-21 03:25:51</time>
      </trkpt>
      <trkpt lat="41.94997" lon="2.3863">
        <ele>504.6</ele>
        <time>2022-05-21 03:25:52</time>
      </trkpt>
      <trkpt lat="41.95002" lon="2.38643">
        <ele>504</ele>
        <time>2022-05-21 03:25:53</time>
      </trkpt>
      <trkpt lat="41.95005" lon="2.38656">
        <ele>503.4</ele>
        <time>2022-05-21 03:25:54</time>
      </trkpt>
      <trkpt lat="41.95008" lon="2.3867">
        <ele>502.8</ele>
        <time>2022-05-21 03:25:55</time>
      </trkpt>
      <trkpt lat="41.9501" lon="2.38685">
        <ele>502.2</ele>
        <time>2022-05-21 03:25:56</time>
      </trkpt>
      <trkpt lat="41.95011" lon="2.38699">
        <ele>501.6</ele>
        <time>2022-05-21 03:25:57</time>
      </trkpt>
      <trkpt lat="41.95012" lon="2.38714">
        <ele>501.2</ele>
        <time>2022-05-21 03:25:58</time>
      </trkpt>
      <trkpt lat="41.95012" lon="2.38728">
        <ele>500.6</ele>
        <time>2022-05-21 03:25:59</time>
      </trkpt>
      <trkpt lat="41.95013" lon="2.38741">
        <ele>500.2</ele>
        <time>2022-05-21 03:26:00</time>
      </trkpt>
      <trkpt lat="41.95013" lon="2.38753">
        <ele>499.6</ele>
        <time>2022-05-21 03:26:01</time>
      </trkpt>
      <trkpt lat="41.95012" lon="2.38771">
        <ele>499</ele>
        <time>2022-05-21 03:26:02</time>
      </trkpt>
      <trkpt lat="41.9501" lon="2.38785">
        <ele>498.4</ele>
        <time>2022-05-21 03:26:03</time>
      </trkpt>
      <trkpt lat="41.95006" lon="2.38798">
        <ele>497.8</ele>
        <time>2022-05-21 03:26:04</time>
      </trkpt>
      <trkpt lat="41.95001" lon="2.3881">
        <ele>497.2</ele>
        <time>2022-05-21 03:26:05</time>
      </trkpt>
      <trkpt lat="41.94997" lon="2.3882">
        <ele>496.8</ele>
        <time>2022-05-21 03:26:06</time>
      </trkpt>
      <trkpt lat="41.94994" lon="2.38829">
        <ele>496.6</ele>
        <time>2022-05-21 03:26:07</time>
      </trkpt>
      <trkpt lat="41.94992" lon="2.38838">
        <ele>496.2</ele>
        <time>2022-05-21 03:26:08</time>
      </trkpt>
      <trkpt lat="41.94992" lon="2.38847">
        <ele>495.8</ele>
        <time>2022-05-21 03:26:09</time>
      </trkpt>
      <trkpt lat="41.94994" lon="2.38855">
        <ele>495.2</ele>
        <time>2022-05-21 03:26:10</time>
      </trkpt>
      <trkpt lat="41.94997" lon="2.38864">
        <ele>494.8</ele>
        <time>2022-05-21 03:26:11</time>
      </trkpt>
      <trkpt lat="41.95001" lon="2.38873">
        <ele>494.2</ele>
        <time>2022-05-21 03:26:12</time>
      </trkpt>
      <trkpt lat="41.95005" lon="2.38882">
        <ele>493.8</ele>
        <time>2022-05-21 03:26:13</time>
      </trkpt>
      <trkpt lat="41.95009" lon="2.38893">
        <ele>493.4</ele>
        <time>2022-05-21 03:26:14</time>
      </trkpt>
      <trkpt lat="41.95013" lon="2.38903">
        <ele>493</ele>
        <time>2022-05-21 03:26:15</time>
      </trkpt>
      <trkpt lat="41.95016" lon="2.38914">
        <ele>492.6</ele>
        <time>2022-05-21 03:26:16</time>
      </trkpt>
      <trkpt lat="41.95018" lon="2.38925">
        <ele>492.2</ele>
        <time>2022-05-21 03:26:17</time>
      </trkpt>
      <trkpt lat="41.95021" lon="2.38935">
        <ele>491.8</ele>
        <time>2022-05-21 03:26:18</time>
      </trkpt>
      <trkpt lat="41.95023" lon="2.38946">
        <ele>491.4</ele>
        <time>2022-05-21 03:26:19</time>
      </trkpt>
      <trkpt lat="41.95026" lon="2.38958">
        <ele>490.8</ele>
        <time>2022-05-21 03:26:20</time>
      </trkpt>
      <trkpt lat="41.95028" lon="2.3897">
        <ele>490.4</ele>
        <time>2022-05-21 03:26:21</time>
      </trkpt>
      <trkpt lat="41.95032" lon="2.38982">
        <ele>489.8</ele>
        <time>2022-05-21 03:26:22</time>
      </trkpt>
      <trkpt lat="41.95035" lon="2.38993">
        <ele>489.4</ele>
        <time>2022-05-21 03:26:23</time>
      </trkpt>
      <trkpt lat="41.95038" lon="2.39005">
        <ele>489</ele>
        <time>2022-05-21 03:26:24</time>
      </trkpt>
      <trkpt lat="41.95041" lon="2.39017">
        <ele>488.6</ele>
        <time>2022-05-21 03:26:25</time>
      </trkpt>
      <trkpt lat="41.95043" lon="2.39029">
        <ele>488.2</ele>
        <time>2022-05-21 03:26:26</time>
      </trkpt>
      <trkpt lat="41.95045" lon="2.39041">
        <ele>487.8</ele>
        <time>2022-05-21 03:26:27</time>
      </trkpt>
      <trkpt lat="41.95046" lon="2.39054">
        <ele>487.2</ele>
        <time>2022-05-21 03:26:28</time>
      </trkpt>
      <trkpt lat="41.95044" lon="2.39067">
        <ele>486.8</ele>
        <time>2022-05-21 03:26:29</time>
      </trkpt>
      <trkpt lat="41.95042" lon="2.39079">
        <ele>486.4</ele>
        <time>2022-05-21 03:26:30</time>
      </trkpt>
      <trkpt lat="41.95038" lon="2.3909">
        <ele>486.2</ele>
        <time>2022-05-21 03:26:31</time>
      </trkpt>
      <trkpt lat="41.95034" lon="2.39101">
        <ele>485.6</ele>
        <time>2022-05-21 03:26:32</time>
      </trkpt>
      <trkpt lat="41.95031" lon="2.39112">
        <ele>485.2</ele>
        <time>2022-05-21 03:26:33</time>
      </trkpt>
      <trkpt lat="41.9503" lon="2.39123">
        <ele>484.6</ele>
        <time>2022-05-21 03:26:34</time>
      </trkpt>
      <trkpt lat="41.95031" lon="2.39136">
        <ele>484</ele>
        <time>2022-05-21 03:26:35</time>
      </trkpt>
      <trkpt lat="41.95033" lon="2.39148">
        <ele>483.4</ele>
        <time>2022-05-21 03:26:36</time>
      </trkpt>
      <trkpt lat="41.95036" lon="2.39161">
        <ele>482.8</ele>
        <time>2022-05-21 03:26:37</time>
      </trkpt>
      <trkpt lat="41.9504" lon="2.39174">
        <ele>482.2</ele>
        <time>2022-05-21 03:26:38</time>
      </trkpt>
      <trkpt lat="41.95044" lon="2.39187">
        <ele>481.6</ele>
        <time>2022-05-21 03:26:39</time>
      </trkpt>
      <trkpt lat="41.95047" lon="2.392">
        <ele>481.2</ele>
        <time>2022-05-21 03:26:40</time>
      </trkpt>
      <trkpt lat="41.95051" lon="2.39212">
        <ele>480.6</ele>
        <time>2022-05-21 03:26:41</time>
      </trkpt>
      <trkpt lat="41.95055" lon="2.39225">
        <ele>480.2</ele>
        <time>2022-05-21 03:26:42</time>
      </trkpt>
      <trkpt lat="41.95058" lon="2.39238">
        <ele>479.6</ele>
        <time>2022-05-21 03:26:43</time>
      </trkpt>
      <trkpt lat="41.95061" lon="2.39251">
        <ele>479</ele>
        <time>2022-05-21 03:26:44</time>
      </trkpt>
      <trkpt lat="41.95064" lon="2.39265">
        <ele>478.4</ele>
        <time>2022-05-21 03:26:45</time>
      </trkpt>
      <trkpt lat="41.95066" lon="2.39279">
        <ele>478</ele>
        <time>2022-05-21 03:26:46</time>
      </trkpt>
      <trkpt lat="41.95069" lon="2.39294">
        <ele>477.6</ele>
        <time>2022-05-21 03:26:47</time>
      </trkpt>
      <trkpt lat="41.95071" lon="2.39308">
        <ele>477</ele>
        <time>2022-05-21 03:26:48</time>
      </trkpt>
      <trkpt lat="41.95073" lon="2.39322">
        <ele>476.6</ele>
        <time>2022-05-21 03:26:49</time>
      </trkpt>
      <trkpt lat="41.95074" lon="2.39336">
        <ele>476</ele>
        <time>2022-05-21 03:26:50</time>
      </trkpt>
      <trkpt lat="41.95075" lon="2.39352">
        <ele>475.4</ele>
        <time>2022-05-21 03:26:51</time>
      </trkpt>
      <trkpt lat="41.95075" lon="2.39366">
        <ele>474.8</ele>
        <time>2022-05-21 03:26:52</time>
      </trkpt>
      <trkpt lat="41.95074" lon="2.39382">
        <ele>474.2</ele>
        <time>2022-05-21 03:26:53</time>
      </trkpt>
      <trkpt lat="41.95073" lon="2.39396">
        <ele>473.8</ele>
        <time>2022-05-21 03:26:54</time>
      </trkpt>
      <trkpt lat="41.95071" lon="2.3941">
        <ele>473.4</ele>
        <time>2022-05-21 03:26:55</time>
      </trkpt>
      <trkpt lat="41.9507" lon="2.39424">
        <ele>473</ele>
        <time>2022-05-21 03:26:56</time>
      </trkpt>
      <trkpt lat="41.95068" lon="2.39436">
        <ele>472.8</ele>
        <time>2022-05-21 03:26:57</time>
      </trkpt>
      <trkpt lat="41.95066" lon="2.39447">
        <ele>472.6</ele>
        <time>2022-05-21 03:26:58</time>
      </trkpt>
      <trkpt lat="41.95066" lon="2.39458">
        <ele>472.6</ele>
        <time>2022-05-21 03:26:59</time>
      </trkpt>
      <trkpt lat="41.95068" lon="2.3947">
        <ele>472.6</ele>
        <time>2022-05-21 03:27:00</time>
      </trkpt>
      <trkpt lat="41.9507" lon="2.39479">
        <ele>472.6</ele>
        <time>2022-05-21 03:27:01</time>
      </trkpt>
      <trkpt lat="41.95074" lon="2.39488">
        <ele>472.6</ele>
        <time>2022-05-21 03:27:02</time>
      </trkpt>
      <trkpt lat="41.95078" lon="2.39497">
        <ele>472.6</ele>
        <time>2022-05-21 03:27:03</time>
      </trkpt>
      <trkpt lat="41.95083" lon="2.39506">
        <ele>472.6</ele>
        <time>2022-05-21 03:27:04</time>
      </trkpt>
      <trkpt lat="41.95087" lon="2.39514">
        <ele>472.6</ele>
        <time>2022-05-21 03:27:05</time>
      </trkpt>
      <trkpt lat="41.95092" lon="2.39521">
        <ele>472.4</ele>
        <time>2022-05-21 03:27:06</time>
      </trkpt>
      <trkpt lat="41.95096" lon="2.39529">
        <ele>472.4</ele>
        <time>2022-05-21 03:27:07</time>
      </trkpt>
      <trkpt lat="41.951" lon="2.39537">
        <ele>472.4</ele>
        <time>2022-05-21 03:27:08</time>
      </trkpt>
      <trkpt lat="41.95105" lon="2.39545">
        <ele>472.2</ele>
        <time>2022-05-21 03:27:09</time>
      </trkpt>
      <trkpt lat="41.9511" lon="2.39553">
        <ele>472</ele>
        <time>2022-05-21 03:27:10</time>
      </trkpt>
      <trkpt lat="41.95113" lon="2.39561">
        <ele>472</ele>
        <time>2022-05-21 03:27:11</time>
      </trkpt>
      <trkpt lat="41.95117" lon="2.39568">
        <ele>471.8</ele>
        <time>2022-05-21 03:27:12</time>
      </trkpt>
      <trkpt lat="41.9512" lon="2.39575">
        <ele>471.8</ele>
        <time>2022-05-21 03:27:13</time>
      </trkpt>
      <trkpt lat="41.95124" lon="2.39582">
        <ele>471.8</ele>
        <time>2022-05-21 03:27:14</time>
      </trkpt>
      <trkpt lat="41.95127" lon="2.3959">
        <ele>471.8</ele>
        <time>2022-05-21 03:27:15</time>
      </trkpt>
      <trkpt lat="41.95131" lon="2.39598">
        <ele>471.6</ele>
        <time>2022-05-21 03:27:16</time>
      </trkpt>
      <trkpt lat="41.95134" lon="2.39606">
        <ele>471.6</ele>
        <time>2022-05-21 03:27:17</time>
      </trkpt>
      <trkpt lat="41.95139" lon="2.39614">
        <ele>471.6</ele>
        <time>2022-05-21 03:27:18</time>
      </trkpt>
      <trkpt lat="41.95143" lon="2.39621">
        <ele>471.6</ele>
        <time>2022-05-21 03:27:19</time>
      </trkpt>
      <trkpt lat="41.95147" lon="2.39628">
        <ele>471.4</ele>
        <time>2022-05-21 03:27:20</time>
      </trkpt>
      <trkpt lat="41.95151" lon="2.39635">
        <ele>471.2</ele>
        <time>2022-05-21 03:27:21</time>
      </trkpt>
      <trkpt lat="41.95156" lon="2.39642">
        <ele>471.2</ele>
        <time>2022-05-21 03:27:22</time>
      </trkpt>
      <trkpt lat="41.95163" lon="2.39649">
        <ele>471.2</ele>
        <time>2022-05-21 03:27:23</time>
      </trkpt>
      <trkpt lat="41.95168" lon="2.39654">
        <ele>471</ele>
        <time>2022-05-21 03:27:24</time>
      </trkpt>
      <trkpt lat="41.95174" lon="2.39658">
        <ele>471</ele>
        <time>2022-05-21 03:27:25</time>
      </trkpt>
      <trkpt lat="41.9518" lon="2.3966">
        <ele>471</ele>
        <time>2022-05-21 03:27:26</time>
      </trkpt>
      <trkpt lat="41.95187" lon="2.39661">
        <ele>471</ele>
        <time>2022-05-21 03:27:27</time>
      </trkpt>
      <trkpt lat="41.95193" lon="2.39659">
        <ele>471</ele>
        <time>2022-05-21 03:27:28</time>
      </trkpt>
      <trkpt lat="41.95199" lon="2.39658">
        <ele>471</ele>
        <time>2022-05-21 03:27:29</time>
      </trkpt>
      <trkpt lat="41.95205" lon="2.39656">
        <ele>470.8</ele>
        <time>2022-05-21 03:27:30</time>
      </trkpt>
      <trkpt lat="41.95211" lon="2.39655">
        <ele>470.8</ele>
        <time>2022-05-21 03:27:31</time>
      </trkpt>
      <trkpt lat="41.95218" lon="2.39655">
        <ele>470.8</ele>
        <time>2022-05-21 03:27:32</time>
      </trkpt>
      <trkpt lat="41.95224" lon="2.39656">
        <ele>470.6</ele>
        <time>2022-05-21 03:27:33</time>
      </trkpt>
      <trkpt lat="41.9523" lon="2.39659">
        <ele>470.6</ele>
        <time>2022-05-21 03:27:34</time>
      </trkpt>
      <trkpt lat="41.95235" lon="2.39662">
        <ele>470.6</ele>
        <time>2022-05-21 03:27:35</time>
      </trkpt>
      <trkpt lat="41.9524" lon="2.39665">
        <ele>470.6</ele>
        <time>2022-05-21 03:27:36</time>
      </trkpt>
      <trkpt lat="41.95246" lon="2.39669">
        <ele>470.6</ele>
        <time>2022-05-21 03:27:37</time>
      </trkpt>
      <trkpt lat="41.95251" lon="2.39672">
        <ele>470.6</ele>
        <time>2022-05-21 03:27:38</time>
      </trkpt>
      <trkpt lat="41.95256" lon="2.39677">
        <ele>470.6</ele>
        <time>2022-05-21 03:27:39</time>
      </trkpt>
      <trkpt lat="41.9526" lon="2.39681">
        <ele>470.4</ele>
        <time>2022-05-21 03:27:40</time>
      </trkpt>
      <trkpt lat="41.95265" lon="2.39687">
        <ele>470.4</ele>
        <time>2022-05-21 03:27:41</time>
      </trkpt>
      <trkpt lat="41.95269" lon="2.39693">
        <ele>470.2</ele>
        <time>2022-05-21 03:27:42</time>
      </trkpt>
      <trkpt lat="41.95272" lon="2.39701">
        <ele>470.2</ele>
        <time>2022-05-21 03:27:43</time>
      </trkpt>
      <trkpt lat="41.95273" lon="2.39709">
        <ele>470</ele>
        <time>2022-05-21 03:27:44</time>
      </trkpt>
      <trkpt lat="41.95273" lon="2.39717">
        <ele>469.8</ele>
        <time>2022-05-21 03:27:45</time>
      </trkpt>
      <trkpt lat="41.95271" lon="2.39724">
        <ele>469.8</ele>
        <time>2022-05-21 03:27:46</time>
      </trkpt>
      <trkpt lat="41.9527" lon="2.39732">
        <ele>469.6</ele>
        <time>2022-05-21 03:27:47</time>
      </trkpt>
      <trkpt lat="41.95269" lon="2.3974">
        <ele>469.6</ele>
        <time>2022-05-21 03:27:48</time>
      </trkpt>
      <trkpt lat="41.95269" lon="2.39749">
        <ele>469.6</ele>
        <time>2022-05-21 03:27:49</time>
      </trkpt>
      <trkpt lat="41.95271" lon="2.39757">
        <ele>469.6</ele>
        <time>2022-05-21 03:27:50</time>
      </trkpt>
      <trkpt lat="41.95273" lon="2.39765">
        <ele>469.6</ele>
        <time>2022-05-21 03:27:51</time>
      </trkpt>
      <trkpt lat="41.95275" lon="2.39772">
        <ele>469.6</ele>
        <time>2022-05-21 03:27:52</time>
      </trkpt>
      <trkpt lat="41.95279" lon="2.39776">
        <ele>469.6</ele>
        <time>2022-05-21 03:27:53</time>
      </trkpt>
      <trkpt lat="41.95284" lon="2.39779">
        <ele>469.6</ele>
        <time>2022-05-21 03:27:54</time>
      </trkpt>
      <trkpt lat="41.9529" lon="2.39778">
        <ele>469.8</ele>
        <time>2022-05-21 03:27:55</time>
      </trkpt>
      <trkpt lat="41.95295" lon="2.39776">
        <ele>469.8</ele>
        <time>2022-05-21 03:27:56</time>
      </trkpt>
      <trkpt lat="41.95301" lon="2.39772">
        <ele>469.8</ele>
        <time>2022-05-21 03:27:57</time>
      </trkpt>
      <trkpt lat="41.95305" lon="2.39767">
        <ele>470</ele>
        <time>2022-05-21 03:27:58</time>
      </trkpt>
      <trkpt lat="41.9531" lon="2.39763">
        <ele>470</ele>
        <time>2022-05-21 03:27:59</time>
      </trkpt>
      <trkpt lat="41.95314" lon="2.39759">
        <ele>470</ele>
        <time>2022-05-21 03:28:00</time>
      </trkpt>
      <trkpt lat="41.95318" lon="2.39755">
        <ele>470</ele>
        <time>2022-05-21 03:28:01</time>
      </trkpt>
      <trkpt lat="41.95323" lon="2.39752">
        <ele>470</ele>
        <time>2022-05-21 03:28:02</time>
      </trkpt>
      <trkpt lat="41.95327" lon="2.3975">
        <ele>470</ele>
        <time>2022-05-21 03:28:03</time>
      </trkpt>
      <trkpt lat="41.95332" lon="2.39749">
        <ele>470</ele>
        <time>2022-05-21 03:28:04</time>
      </trkpt>
      <trkpt lat="41.95338" lon="2.39748">
        <ele>470.2</ele>
        <time>2022-05-21 03:28:05</time>
      </trkpt>
      <trkpt lat="41.95342" lon="2.39748">
        <ele>470.2</ele>
        <time>2022-05-21 03:28:06</time>
      </trkpt>
      <trkpt lat="41.95347" lon="2.39748">
        <ele>470.2</ele>
        <time>2022-05-21 03:28:07</time>
      </trkpt>
      <trkpt lat="41.95352" lon="2.39749">
        <ele>470.2</ele>
        <time>2022-05-21 03:28:08</time>
      </trkpt>
      <trkpt lat="41.95357" lon="2.39751">
        <ele>470.2</ele>
        <time>2022-05-21 03:28:09</time>
      </trkpt>
      <trkpt lat="41.95361" lon="2.39753">
        <ele>470.2</ele>
        <time>2022-05-21 03:28:10</time>
      </trkpt>
      <trkpt lat="41.95364" lon="2.39756">
        <ele>470.4</ele>
        <time>2022-05-21 03:28:11</time>
      </trkpt>
      <trkpt lat="41.95368" lon="2.3976">
        <ele>470.4</ele>
        <time>2022-05-21 03:28:12</time>
      </trkpt>
      <trkpt lat="41.95372" lon="2.39764">
        <ele>470.4</ele>
        <time>2022-05-21 03:28:13</time>
      </trkpt>
      <trkpt lat="41.95375" lon="2.39768">
        <ele>470.4</ele>
        <time>2022-05-21 03:28:14</time>
      </trkpt>
      <trkpt lat="41.95379" lon="2.39772">
        <ele>470.4</ele>
        <time>2022-05-21 03:28:15</time>
      </trkpt>
      <trkpt lat="41.95383" lon="2.39775">
        <ele>470.4</ele>
        <time>2022-05-21 03:28:16</time>
      </trkpt>
      <trkpt lat="41.95388" lon="2.39779">
        <ele>470.4</ele>
        <time>2022-05-21 03:28:17</time>
      </trkpt>
      <trkpt lat="41.95391" lon="2.39783">
        <ele>470.4</ele>
        <time>2022-05-21 03:28:18</time>
      </trkpt>
      <trkpt lat="41.95395" lon="2.39787">
        <ele>470.4</ele>
        <time>2022-05-21 03:28:19</time>
      </trkpt>
      <trkpt lat="41.95399" lon="2.39791">
        <ele>470.4</ele>
        <time>2022-05-21 03:28:20</time>
      </trkpt>
      <trkpt lat="41.95403" lon="2.39796">
        <ele>470.4</ele>
        <time>2022-05-21 03:28:21</time>
      </trkpt>
      <trkpt lat="41.95408" lon="2.39802">
        <ele>470.4</ele>
        <time>2022-05-21 03:28:22</time>
      </trkpt>
      <trkpt lat="41.95412" lon="2.39807">
        <ele>470.4</ele>
        <time>2022-05-21 03:28:23</time>
      </trkpt>
      <trkpt lat="41.95415" lon="2.39813">
        <ele>470.4</ele>
        <time>2022-05-21 03:28:24</time>
      </trkpt>
      <trkpt lat="41.95418" lon="2.39818">
        <ele>470.4</ele>
        <time>2022-05-21 03:28:25</time>
      </trkpt>
      <trkpt lat="41.9542" lon="2.39824">
        <ele>470.4</ele>
        <time>2022-05-21 03:28:26</time>
      </trkpt>
      <trkpt lat="41.95422" lon="2.3983">
        <ele>470.4</ele>
        <time>2022-05-21 03:28:27</time>
      </trkpt>
      <trkpt lat="41.95424" lon="2.39837">
        <ele>470.2</ele>
        <time>2022-05-21 03:28:28</time>
      </trkpt>
      <trkpt lat="41.95427" lon="2.39843">
        <ele>470.2</ele>
        <time>2022-05-21 03:28:29</time>
      </trkpt>
      <trkpt lat="41.9543" lon="2.39848">
        <ele>470</ele>
        <time>2022-05-21 03:28:30</time>
      </trkpt>
      <trkpt lat="41.95433" lon="2.39853">
        <ele>470</ele>
        <time>2022-05-21 03:28:31</time>
      </trkpt>
      <trkpt lat="41.95437" lon="2.39859">
        <ele>470</ele>
        <time>2022-05-21 03:28:32</time>
      </trkpt>
      <trkpt lat="41.9544" lon="2.39864">
        <ele>470</ele>
        <time>2022-05-21 03:28:33</time>
      </trkpt>
      <trkpt lat="41.95443" lon="2.39869">
        <ele>470.2</ele>
        <time>2022-05-21 03:28:34</time>
      </trkpt>
      <trkpt lat="41.95446" lon="2.39874">
        <ele>470.2</ele>
        <time>2022-05-21 03:28:35</time>
      </trkpt>
      <trkpt lat="41.9545" lon="2.39878">
        <ele>470.4</ele>
        <time>2022-05-21 03:28:36</time>
      </trkpt>
      <trkpt lat="41.95454" lon="2.39882">
        <ele>470.4</ele>
        <time>2022-05-21 03:28:37</time>
      </trkpt>
      <trkpt lat="41.95457" lon="2.39885">
        <ele>470.6</ele>
        <time>2022-05-21 03:28:38</time>
      </trkpt>
      <trkpt lat="41.95461" lon="2.39887">
        <ele>470.6</ele>
        <time>2022-05-21 03:28:39</time>
      </trkpt>
      <trkpt lat="41.95465" lon="2.3989">
        <ele>470.8</ele>
        <time>2022-05-21 03:28:40</time>
      </trkpt>
      <trkpt lat="41.95469" lon="2.39892">
        <ele>470.8</ele>
        <time>2022-05-21 03:28:41</time>
      </trkpt>
      <trkpt lat="41.95473" lon="2.39893">
        <ele>470.8</ele>
        <time>2022-05-21 03:28:42</time>
      </trkpt>
      <trkpt lat="41.95478" lon="2.39893">
        <ele>470.8</ele>
        <time>2022-05-21 03:28:43</time>
      </trkpt>
      <trkpt lat="41.95483" lon="2.39893">
        <ele>470.8</ele>
        <time>2022-05-21 03:28:44</time>
      </trkpt>
      <trkpt lat="41.95488" lon="2.39892">
        <ele>470.8</ele>
        <time>2022-05-21 03:28:45</time>
      </trkpt>
      <trkpt lat="41.95492" lon="2.39891">
        <ele>470.8</ele>
        <time>2022-05-21 03:28:46</time>
      </trkpt>
      <trkpt lat="41.95497" lon="2.3989">
        <ele>471</ele>
        <time>2022-05-21 03:28:47</time>
      </trkpt>
      <trkpt lat="41.95502" lon="2.39889">
        <ele>471</ele>
        <time>2022-05-21 03:28:48</time>
      </trkpt>
      <trkpt lat="41.95506" lon="2.39887">
        <ele>471</ele>
        <time>2022-05-21 03:28:49</time>
      </trkpt>
      <trkpt lat="41.9551" lon="2.39885">
        <ele>471.2</ele>
        <time>2022-05-21 03:28:50</time>
      </trkpt>
      <trkpt lat="41.95515" lon="2.39883">
        <ele>471.2</ele>
        <time>2022-05-21 03:28:51</time>
      </trkpt>
      <trkpt lat="41.95519" lon="2.39881">
        <ele>471.2</ele>
        <time>2022-05-21 03:28:52</time>
      </trkpt>
      <trkpt lat="41.95523" lon="2.39878">
        <ele>471.2</ele>
        <time>2022-05-21 03:28:53</time>
      </trkpt>
      <trkpt lat="41.95527" lon="2.39875">
        <ele>471.4</ele>
        <time>2022-05-21 03:28:54</time>
      </trkpt>
      <trkpt lat="41.9553" lon="2.39874">
        <ele>471.4</ele>
        <time>2022-05-21 03:28:55</time>
      </trkpt>
      <trkpt lat="41.95534" lon="2.39872">
        <ele>471.4</ele>
        <time>2022-05-21 03:28:56</time>
      </trkpt>
      <trkpt lat="41.95537" lon="2.3987">
        <ele>471.6</ele>
        <time>2022-05-21 03:28:57</time>
      </trkpt>
      <trkpt lat="41.9554" lon="2.39869">
        <ele>471.6</ele>
        <time>2022-05-21 03:28:58</time>
      </trkpt>
      <trkpt lat="41.95544" lon="2.39867">
        <ele>471.6</ele>
        <time>2022-05-21 03:28:59</time>
      </trkpt>
      <trkpt lat="41.95547" lon="2.39867">
        <ele>471.6</ele>
        <time>2022-05-21 03:29:00</time>
      </trkpt>
      <trkpt lat="41.95551" lon="2.39867">
        <ele>471.6</ele>
        <time>2022-05-21 03:29:01</time>
      </trkpt>
      <trkpt lat="41.95555" lon="2.39869">
        <ele>471.6</ele>
        <time>2022-05-21 03:29:02</time>
      </trkpt>
      <trkpt lat="41.95559" lon="2.3987">
        <ele>471.6</ele>
        <time>2022-05-21 03:29:03</time>
      </trkpt>
      <trkpt lat="41.95562" lon="2.39873">
        <ele>471.6</ele>
        <time>2022-05-21 03:29:04</time>
      </trkpt>
      <trkpt lat="41.95566" lon="2.39876">
        <ele>471.6</ele>
        <time>2022-05-21 03:29:05</time>
      </trkpt>
      <trkpt lat="41.9557" lon="2.3988">
        <ele>471.8</ele>
        <time>2022-05-21 03:29:06</time>
      </trkpt>
      <trkpt lat="41.95573" lon="2.39883">
        <ele>471.8</ele>
        <time>2022-05-21 03:29:07</time>
      </trkpt>
      <trkpt lat="41.95576" lon="2.39886">
        <ele>472</ele>
        <time>2022-05-21 03:29:08</time>
      </trkpt>
      <trkpt lat="41.9558" lon="2.39889">
        <ele>472</ele>
        <time>2022-05-21 03:29:09</time>
      </trkpt>
      <trkpt lat="41.95583" lon="2.39893">
        <ele>472</ele>
        <time>2022-05-21 03:29:10</time>
      </trkpt>
      <trkpt lat="41.95586" lon="2.39896">
        <ele>472.2</ele>
        <time>2022-05-21 03:29:11</time>
      </trkpt>
      <trkpt lat="41.95589" lon="2.399">
        <ele>472.2</ele>
        <time>2022-05-21 03:29:12</time>
      </trkpt>
      <trkpt lat="41.95592" lon="2.39903">
        <ele>472.2</ele>
        <time>2022-05-21 03:29:13</time>
      </trkpt>
      <trkpt lat="41.95595" lon="2.39907">
        <ele>472.4</ele>
        <time>2022-05-21 03:29:14</time>
      </trkpt>
      <trkpt lat="41.95598" lon="2.39911">
        <ele>472.4</ele>
        <time>2022-05-21 03:29:15</time>
      </trkpt>
      <trkpt lat="41.95602" lon="2.39916">
        <ele>472.4</ele>
        <time>2022-05-21 03:29:16</time>
      </trkpt>
      <trkpt lat="41.95605" lon="2.3992">
        <ele>472.4</ele>
        <time>2022-05-21 03:29:17</time>
      </trkpt>
      <trkpt lat="41.95608" lon="2.39925">
        <ele>472.4</ele>
        <time>2022-05-21 03:29:18</time>
      </trkpt>
      <trkpt lat="41.95612" lon="2.3993">
        <ele>472.4</ele>
        <time>2022-05-21 03:29:19</time>
      </trkpt>
      <trkpt lat="41.95617" lon="2.39936">
        <ele>472.4</ele>
        <time>2022-05-21 03:29:20</time>
      </trkpt>
      <trkpt lat="41.9562" lon="2.39941">
        <ele>472.4</ele>
        <time>2022-05-21 03:29:21</time>
      </trkpt>
      <trkpt lat="41.95624" lon="2.39946">
        <ele>472.4</ele>
        <time>2022-05-21 03:29:22</time>
      </trkpt>
      <trkpt lat="41.95627" lon="2.39951">
        <ele>472.4</ele>
        <time>2022-05-21 03:29:23</time>
      </trkpt>
      <trkpt lat="41.95631" lon="2.39955">
        <ele>472.4</ele>
        <time>2022-05-21 03:29:24</time>
      </trkpt>
      <trkpt lat="41.95634" lon="2.39961">
        <ele>472.4</ele>
        <time>2022-05-21 03:29:25</time>
      </trkpt>
      <trkpt lat="41.95637" lon="2.39966">
        <ele>472.4</ele>
        <time>2022-05-21 03:29:26</time>
      </trkpt>
      <trkpt lat="41.9564" lon="2.39971">
        <ele>472.6</ele>
        <time>2022-05-21 03:29:27</time>
      </trkpt>
      <trkpt lat="41.95643" lon="2.39976">
        <ele>472.6</ele>
        <time>2022-05-21 03:29:28</time>
      </trkpt>
      <trkpt lat="41.95645" lon="2.39981">
        <ele>472.6</ele>
        <time>2022-05-21 03:29:29</time>
      </trkpt>
      <trkpt lat="41.95649" lon="2.39986">
        <ele>472.6</ele>
        <time>2022-05-21 03:29:30</time>
      </trkpt>
      <trkpt lat="41.95651" lon="2.39991">
        <ele>472.8</ele>
        <time>2022-05-21 03:29:31</time>
      </trkpt>
      <trkpt lat="41.95654" lon="2.39995">
        <ele>472.8</ele>
        <time>2022-05-21 03:29:32</time>
      </trkpt>
      <trkpt lat="41.95658" lon="2.40001">
        <ele>472.8</ele>
        <time>2022-05-21 03:29:33</time>
      </trkpt>
      <trkpt lat="41.95661" lon="2.40006">
        <ele>472.8</ele>
        <time>2022-05-21 03:29:34</time>
      </trkpt>
      <trkpt lat="41.95664" lon="2.40011">
        <ele>472.8</ele>
        <time>2022-05-21 03:29:35</time>
      </trkpt>
      <trkpt lat="41.95667" lon="2.40016">
        <ele>473</ele>
        <time>2022-05-21 03:29:36</time>
      </trkpt>
      <trkpt lat="41.9567" lon="2.40021">
        <ele>473</ele>
        <time>2022-05-21 03:29:37</time>
      </trkpt>
      <trkpt lat="41.95673" lon="2.40026">
        <ele>473</ele>
        <time>2022-05-21 03:29:38</time>
      </trkpt>
      <trkpt lat="41.95676" lon="2.40031">
        <ele>473</ele>
        <time>2022-05-21 03:29:39</time>
      </trkpt>
      <trkpt lat="41.95679" lon="2.40035">
        <ele>473</ele>
        <time>2022-05-21 03:29:40</time>
      </trkpt>
      <trkpt lat="41.95682" lon="2.4004">
        <ele>473</ele>
        <time>2022-05-21 03:29:41</time>
      </trkpt>
      <trkpt lat="41.95685" lon="2.40044">
        <ele>473</ele>
        <time>2022-05-21 03:29:42</time>
      </trkpt>
      <trkpt lat="41.95689" lon="2.40047">
        <ele>473.2</ele>
        <time>2022-05-21 03:29:43</time>
      </trkpt>
      <trkpt lat="41.95692" lon="2.4005">
        <ele>473.2</ele>
        <time>2022-05-21 03:29:44</time>
      </trkpt>
      <trkpt lat="41.95696" lon="2.40052">
        <ele>473.2</ele>
        <time>2022-05-21 03:29:45</time>
      </trkpt>
      <trkpt lat="41.95699" lon="2.40053">
        <ele>473.2</ele>
        <time>2022-05-21 03:29:46</time>
      </trkpt>
      <trkpt lat="41.95703" lon="2.40054">
        <ele>473.2</ele>
        <time>2022-05-21 03:29:47</time>
      </trkpt>
      <trkpt lat="41.95707" lon="2.40055">
        <ele>473.2</ele>
        <time>2022-05-21 03:29:48</time>
      </trkpt>
      <trkpt lat="41.95711" lon="2.40056">
        <ele>473.2</ele>
        <time>2022-05-21 03:29:49</time>
      </trkpt>
      <trkpt lat="41.95715" lon="2.40056">
        <ele>473.2</ele>
        <time>2022-05-21 03:29:50</time>
      </trkpt>
      <trkpt lat="41.95719" lon="2.40056">
        <ele>473.2</ele>
        <time>2022-05-21 03:29:51</time>
      </trkpt>
      <trkpt lat="41.95724" lon="2.40056">
        <ele>473.2</ele>
        <time>2022-05-21 03:29:52</time>
      </trkpt>
      <trkpt lat="41.95728" lon="2.40057">
        <ele>473.2</ele>
        <time>2022-05-21 03:29:53</time>
      </trkpt>
      <trkpt lat="41.95732" lon="2.40058">
        <ele>473.4</ele>
        <time>2022-05-21 03:29:54</time>
      </trkpt>
      <trkpt lat="41.95736" lon="2.40059">
        <ele>473.4</ele>
        <time>2022-05-21 03:29:55</time>
      </trkpt>
      <trkpt lat="41.9574" lon="2.4006">
        <ele>473.4</ele>
        <time>2022-05-21 03:29:56</time>
      </trkpt>
      <trkpt lat="41.95744" lon="2.40062">
        <ele>473.6</ele>
        <time>2022-05-21 03:29:57</time>
      </trkpt>
      <trkpt lat="41.95748" lon="2.40064">
        <ele>473.6</ele>
        <time>2022-05-21 03:29:58</time>
      </trkpt>
      <trkpt lat="41.95752" lon="2.40067">
        <ele>473.8</ele>
        <time>2022-05-21 03:29:59</time>
      </trkpt>
      <trkpt lat="41.95755" lon="2.40071">
        <ele>473.8</ele>
        <time>2022-05-21 03:30:00</time>
      </trkpt>
      <trkpt lat="41.95758" lon="2.40075">
        <ele>473.8</ele>
        <time>2022-05-21 03:30:01</time>
      </trkpt>
      <trkpt lat="41.9576" lon="2.40079">
        <ele>473.8</ele>
        <time>2022-05-21 03:30:02</time>
      </trkpt>
      <trkpt lat="41.95762" lon="2.40084">
        <ele>473.8</ele>
        <time>2022-05-21 03:30:03</time>
      </trkpt>
      <trkpt lat="41.95763" lon="2.4009">
        <ele>473.8</ele>
        <time>2022-05-21 03:30:04</time>
      </trkpt>
      <trkpt lat="41.95763" lon="2.40095">
        <ele>473.8</ele>
        <time>2022-05-21 03:30:05</time>
      </trkpt>
      <trkpt lat="41.95763" lon="2.40101">
        <ele>473.6</ele>
        <time>2022-05-21 03:30:06</time>
      </trkpt>
      <trkpt lat="41.95763" lon="2.40107">
        <ele>473.6</ele>
        <time>2022-05-21 03:30:07</time>
      </trkpt>
      <trkpt lat="41.95762" lon="2.40113">
        <ele>473.6</ele>
        <time>2022-05-21 03:30:08</time>
      </trkpt>
      <trkpt lat="41.95761" lon="2.40119">
        <ele>473.4</ele>
        <time>2022-05-21 03:30:09</time>
      </trkpt>
      <trkpt lat="41.95761" lon="2.40124">
        <ele>473.4</ele>
        <time>2022-05-21 03:30:10</time>
      </trkpt>
      <trkpt lat="41.9576" lon="2.4013">
        <ele>473.4</ele>
        <time>2022-05-21 03:30:11</time>
      </trkpt>
      <trkpt lat="41.9576" lon="2.40136">
        <ele>473.4</ele>
        <time>2022-05-21 03:30:12</time>
      </trkpt>
      <trkpt lat="41.9576" lon="2.40142">
        <ele>473.2</ele>
        <time>2022-05-21 03:30:13</time>
      </trkpt>
      <trkpt lat="41.9576" lon="2.40148">
        <ele>473.2</ele>
        <time>2022-05-21 03:30:14</time>
      </trkpt>
      <trkpt lat="41.95761" lon="2.40154">
        <ele>473.2</ele>
        <time>2022-05-21 03:30:15</time>
      </trkpt>
      <trkpt lat="41.95763" lon="2.40159">
        <ele>473.2</ele>
        <time>2022-05-21 03:30:16</time>
      </trkpt>
      <trkpt lat="41.95765" lon="2.40164">
        <ele>473.2</ele>
        <time>2022-05-21 03:30:17</time>
      </trkpt>
      <trkpt lat="41.95768" lon="2.40169">
        <ele>473.2</ele>
        <time>2022-05-21 03:30:18</time>
      </trkpt>
      <trkpt lat="41.95771" lon="2.40173">
        <ele>473.2</ele>
        <time>2022-05-21 03:30:19</time>
      </trkpt>
      <trkpt lat="41.95774" lon="2.40176">
        <ele>473.2</ele>
        <time>2022-05-21 03:30:20</time>
      </trkpt>
      <trkpt lat="41.95777" lon="2.40179">
        <ele>473.2</ele>
        <time>2022-05-21 03:30:21</time>
      </trkpt>
      <trkpt lat="41.95781" lon="2.40181">
        <ele>473.2</ele>
        <time>2022-05-21 03:30:22</time>
      </trkpt>
      <trkpt lat="41.95785" lon="2.40182">
        <ele>473.2</ele>
        <time>2022-05-21 03:30:23</time>
      </trkpt>
      <trkpt lat="41.95788" lon="2.40182">
        <ele>473.2</ele>
        <time>2022-05-21 03:30:24</time>
      </trkpt>
      <trkpt lat="41.95792" lon="2.40183">
        <ele>473.4</ele>
        <time>2022-05-21 03:30:25</time>
      </trkpt>
      <trkpt lat="41.95795" lon="2.40183">
        <ele>473.4</ele>
        <time>2022-05-21 03:30:26</time>
      </trkpt>
      <trkpt lat="41.95799" lon="2.40184">
        <ele>473.4</ele>
        <time>2022-05-21 03:30:27</time>
      </trkpt>
      <trkpt lat="41.95802" lon="2.40185">
        <ele>473.6</ele>
        <time>2022-05-21 03:30:28</time>
      </trkpt>
      <trkpt lat="41.95805" lon="2.40186">
        <ele>473.6</ele>
        <time>2022-05-21 03:30:29</time>
      </trkpt>
      <trkpt lat="41.95809" lon="2.40188">
        <ele>473.6</ele>
        <time>2022-05-21 03:30:30</time>
      </trkpt>
      <trkpt lat="41.95813" lon="2.40189">
        <ele>473.6</ele>
        <time>2022-05-21 03:30:31</time>
      </trkpt>
      <trkpt lat="41.95817" lon="2.4019">
        <ele>473.8</ele>
        <time>2022-05-21 03:30:32</time>
      </trkpt>
      <trkpt lat="41.9582" lon="2.40191">
        <ele>473.8</ele>
        <time>2022-05-21 03:30:33</time>
      </trkpt>
      <trkpt lat="41.95824" lon="2.40193">
        <ele>473.8</ele>
        <time>2022-05-21 03:30:34</time>
      </trkpt>
      <trkpt lat="41.95827" lon="2.40195">
        <ele>473.8</ele>
        <time>2022-05-21 03:30:35</time>
      </trkpt>
      <trkpt lat="41.95831" lon="2.40196">
        <ele>474</ele>
        <time>2022-05-21 03:30:36</time>
      </trkpt>
      <trkpt lat="41.95834" lon="2.40198">
        <ele>474</ele>
        <time>2022-05-21 03:30:37</time>
      </trkpt>
      <trkpt lat="41.95837" lon="2.40201">
        <ele>474</ele>
        <time>2022-05-21 03:30:38</time>
      </trkpt>
      <trkpt lat="41.9584" lon="2.40203">
        <ele>474</ele>
        <time>2022-05-21 03:30:39</time>
      </trkpt>
      <trkpt lat="41.95843" lon="2.40206">
        <ele>474</ele>
        <time>2022-05-21 03:30:40</time>
      </trkpt>
      <trkpt lat="41.95846" lon="2.40209">
        <ele>474.2</ele>
        <time>2022-05-21 03:30:41</time>
      </trkpt>
      <trkpt lat="41.95849" lon="2.40212">
        <ele>474.2</ele>
        <time>2022-05-21 03:30:42</time>
      </trkpt>
      <trkpt lat="41.95852" lon="2.40216">
        <ele>474</ele>
        <time>2022-05-21 03:30:43</time>
      </trkpt>
      <trkpt lat="41.95856" lon="2.40219">
        <ele>474</ele>
        <time>2022-05-21 03:30:44</time>
      </trkpt>
      <trkpt lat="41.95859" lon="2.40222">
        <ele>474</ele>
        <time>2022-05-21 03:30:45</time>
      </trkpt>
      <trkpt lat="41.95863" lon="2.40225">
        <ele>474</ele>
        <time>2022-05-21 03:30:46</time>
      </trkpt>
      <trkpt lat="41.95866" lon="2.40228">
        <ele>474</ele>
        <time>2022-05-21 03:30:47</time>
      </trkpt>
      <trkpt lat="41.9587" lon="2.4023">
        <ele>474</ele>
        <time>2022-05-21 03:30:48</time>
      </trkpt>
      <trkpt lat="41.95874" lon="2.40231">
        <ele>474</ele>
        <time>2022-05-21 03:30:49</time>
      </trkpt>
      <trkpt lat="41.95878" lon="2.40233">
        <ele>474.2</ele>
        <time>2022-05-21 03:30:50</time>
      </trkpt>
      <trkpt lat="41.95882" lon="2.40233">
        <ele>474.2</ele>
        <time>2022-05-21 03:30:51</time>
      </trkpt>
      <trkpt lat="41.95886" lon="2.40234">
        <ele>474.2</ele>
        <time>2022-05-21 03:30:52</time>
      </trkpt>
      <trkpt lat="41.9589" lon="2.40234">
        <ele>474.2</ele>
        <time>2022-05-21 03:30:53</time>
      </trkpt>
      <trkpt lat="41.95894" lon="2.40235">
        <ele>474.2</ele>
        <time>2022-05-21 03:30:54</time>
      </trkpt>
      <trkpt lat="41.95898" lon="2.40236">
        <ele>474.2</ele>
        <time>2022-05-21 03:30:55</time>
      </trkpt>
      <trkpt lat="41.95902" lon="2.40236">
        <ele>474.2</ele>
        <time>2022-05-21 03:30:56</time>
      </trkpt>
      <trkpt lat="41.95906" lon="2.40237">
        <ele>474.4</ele>
        <time>2022-05-21 03:30:57</time>
      </trkpt>
      <trkpt lat="41.95909" lon="2.40238">
        <ele>474.4</ele>
        <time>2022-05-21 03:30:58</time>
      </trkpt>
      <trkpt lat="41.95913" lon="2.4024">
        <ele>474.4</ele>
        <time>2022-05-21 03:30:59</time>
      </trkpt>
      <trkpt lat="41.95917" lon="2.40241">
        <ele>474.4</ele>
        <time>2022-05-21 03:31:00</time>
      </trkpt>
      <trkpt lat="41.95921" lon="2.40243">
        <ele>474.4</ele>
        <time>2022-05-21 03:31:01</time>
      </trkpt>
      <trkpt lat="41.95924" lon="2.40244">
        <ele>474.4</ele>
        <time>2022-05-21 03:31:02</time>
      </trkpt>
      <trkpt lat="41.95927" lon="2.40246">
        <ele>474.4</ele>
        <time>2022-05-21 03:31:03</time>
      </trkpt>
      <trkpt lat="41.9593" lon="2.40249">
        <ele>474.4</ele>
        <time>2022-05-21 03:31:04</time>
      </trkpt>
      <trkpt lat="41.95934" lon="2.40251">
        <ele>474.2</ele>
        <time>2022-05-21 03:31:05</time>
      </trkpt>
      <trkpt lat="41.95937" lon="2.40254">
        <ele>474.2</ele>
        <time>2022-05-21 03:31:06</time>
      </trkpt>
      <trkpt lat="41.95941" lon="2.40257">
        <ele>474.2</ele>
        <time>2022-05-21 03:31:07</time>
      </trkpt>
      <trkpt lat="41.95945" lon="2.4026">
        <ele>474.2</ele>
        <time>2022-05-21 03:31:08</time>
      </trkpt>
      <trkpt lat="41.95949" lon="2.40262">
        <ele>474.2</ele>
        <time>2022-05-21 03:31:09</time>
      </trkpt>
      <trkpt lat="41.95953" lon="2.40265">
        <ele>474.4</ele>
        <time>2022-05-21 03:31:10</time>
      </trkpt>
      <trkpt lat="41.95956" lon="2.40268">
        <ele>474.4</ele>
        <time>2022-05-21 03:31:11</time>
      </trkpt>
      <trkpt lat="41.9596" lon="2.40271">
        <ele>474.4</ele>
        <time>2022-05-21 03:31:12</time>
      </trkpt>
      <trkpt lat="41.95963" lon="2.40274">
        <ele>474.4</ele>
        <time>2022-05-21 03:31:13</time>
      </trkpt>
      <trkpt lat="41.95966" lon="2.40277">
        <ele>474.4</ele>
        <time>2022-05-21 03:31:14</time>
      </trkpt>
      <trkpt lat="41.9597" lon="2.4028">
        <ele>474.4</ele>
        <time>2022-05-21 03:31:15</time>
      </trkpt>
      <trkpt lat="41.95973" lon="2.40283">
        <ele>474.4</ele>
        <time>2022-05-21 03:31:16</time>
      </trkpt>
      <trkpt lat="41.95977" lon="2.40286">
        <ele>474.4</ele>
        <time>2022-05-21 03:31:17</time>
      </trkpt>
      <trkpt lat="41.9598" lon="2.40289">
        <ele>474.4</ele>
        <time>2022-05-21 03:31:18</time>
      </trkpt>
      <trkpt lat="41.95984" lon="2.40292">
        <ele>474.6</ele>
        <time>2022-05-21 03:31:19</time>
      </trkpt>
      <trkpt lat="41.95988" lon="2.40295">
        <ele>474.6</ele>
        <time>2022-05-21 03:31:20</time>
      </trkpt>
      <trkpt lat="41.95991" lon="2.40298">
        <ele>474.6</ele>
        <time>2022-05-21 03:31:21</time>
      </trkpt>
      <trkpt lat="41.95995" lon="2.40301">
        <ele>474.6</ele>
        <time>2022-05-21 03:31:22</time>
      </trkpt>
      <trkpt lat="41.95999" lon="2.40303">
        <ele>474.4</ele>
        <time>2022-05-21 03:31:23</time>
      </trkpt>
      <trkpt lat="41.96003" lon="2.40306">
        <ele>474.4</ele>
        <time>2022-05-21 03:31:24</time>
      </trkpt>
      <trkpt lat="41.96006" lon="2.40309">
        <ele>474.4</ele>
        <time>2022-05-21 03:31:25</time>
      </trkpt>
      <trkpt lat="41.9601" lon="2.40313">
        <ele>474.4</ele>
        <time>2022-05-21 03:31:26</time>
      </trkpt>
      <trkpt lat="41.96014" lon="2.40316">
        <ele>474.4</ele>
        <time>2022-05-21 03:31:27</time>
      </trkpt>
      <trkpt lat="41.96018" lon="2.40319">
        <ele>474.4</ele>
        <time>2022-05-21 03:31:28</time>
      </trkpt>
      <trkpt lat="41.96021" lon="2.40322">
        <ele>474.6</ele>
        <time>2022-05-21 03:31:29</time>
      </trkpt>
      <trkpt lat="41.96025" lon="2.40325">
        <ele>474.6</ele>
        <time>2022-05-21 03:31:30</time>
      </trkpt>
      <trkpt lat="41.96028" lon="2.40329">
        <ele>474.6</ele>
        <time>2022-05-21 03:31:31</time>
      </trkpt>
      <trkpt lat="41.96031" lon="2.40332">
        <ele>474.6</ele>
        <time>2022-05-21 03:31:32</time>
      </trkpt>
      <trkpt lat="41.96035" lon="2.40336">
        <ele>474.6</ele>
        <time>2022-05-21 03:31:33</time>
      </trkpt>
      <trkpt lat="41.96038" lon="2.40339">
        <ele>474.6</ele>
        <time>2022-05-21 03:31:34</time>
      </trkpt>
      <trkpt lat="41.96042" lon="2.40343">
        <ele>474.6</ele>
        <time>2022-05-21 03:31:35</time>
      </trkpt>
      <trkpt lat="41.96045" lon="2.40346">
        <ele>474.6</ele>
        <time>2022-05-21 03:31:36</time>
      </trkpt>
      <trkpt lat="41.96049" lon="2.40349">
        <ele>474.6</ele>
        <time>2022-05-21 03:31:37</time>
      </trkpt>
      <trkpt lat="41.96053" lon="2.40352">
        <ele>474.6</ele>
        <time>2022-05-21 03:31:38</time>
      </trkpt>
      <trkpt lat="41.96058" lon="2.40354">
        <ele>474.4</ele>
        <time>2022-05-21 03:31:39</time>
      </trkpt>
      <trkpt lat="41.96063" lon="2.40356">
        <ele>474.4</ele>
        <time>2022-05-21 03:31:40</time>
      </trkpt>
      <trkpt lat="41.96069" lon="2.40357">
        <ele>474.2</ele>
        <time>2022-05-21 03:31:41</time>
      </trkpt>
      <trkpt lat="41.96075" lon="2.40356">
        <ele>474.2</ele>
        <time>2022-05-21 03:31:42</time>
      </trkpt>
      <trkpt lat="41.96081" lon="2.40354">
        <ele>474.2</ele>
        <time>2022-05-21 03:31:43</time>
      </trkpt>
      <trkpt lat="41.96088" lon="2.40351">
        <ele>474.4</ele>
        <time>2022-05-21 03:31:44</time>
      </trkpt>
      <trkpt lat="41.96093" lon="2.40348">
        <ele>474.4</ele>
        <time>2022-05-21 03:31:45</time>
      </trkpt>
      <trkpt lat="41.96098" lon="2.40344">
        <ele>474.4</ele>
        <time>2022-05-21 03:31:46</time>
      </trkpt>
      <trkpt lat="41.96104" lon="2.4034">
        <ele>474.4</ele>
        <time>2022-05-21 03:31:47</time>
      </trkpt>
      <trkpt lat="41.96109" lon="2.40336">
        <ele>474.4</ele>
        <time>2022-05-21 03:31:48</time>
      </trkpt>
      <trkpt lat="41.96115" lon="2.40333">
        <ele>474.4</ele>
        <time>2022-05-21 03:31:49</time>
      </trkpt>
      <trkpt lat="41.9612" lon="2.4033">
        <ele>474.4</ele>
        <time>2022-05-21 03:31:50</time>
      </trkpt>
      <trkpt lat="41.96125" lon="2.40328">
        <ele>474.4</ele>
        <time>2022-05-21 03:31:51</time>
      </trkpt>
      <trkpt lat="41.9613" lon="2.40327">
        <ele>474.4</ele>
        <time>2022-05-21 03:31:52</time>
      </trkpt>
      <trkpt lat="41.96135" lon="2.40327">
        <ele>474.4</ele>
        <time>2022-05-21 03:31:53</time>
      </trkpt>
      <trkpt lat="41.9614" lon="2.40328">
        <ele>474.6</ele>
        <time>2022-05-21 03:31:54</time>
      </trkpt>
      <trkpt lat="41.96145" lon="2.40329">
        <ele>474.6</ele>
        <time>2022-05-21 03:31:55</time>
      </trkpt>
      <trkpt lat="41.9615" lon="2.40331">
        <ele>474.6</ele>
        <time>2022-05-21 03:31:56</time>
      </trkpt>
      <trkpt lat="41.96155" lon="2.40332">
        <ele>474.8</ele>
        <time>2022-05-21 03:31:57</time>
      </trkpt>
      <trkpt lat="41.9616" lon="2.40334">
        <ele>474.8</ele>
        <time>2022-05-21 03:31:58</time>
      </trkpt>
      <trkpt lat="41.96165" lon="2.40335">
        <ele>475</ele>
        <time>2022-05-21 03:31:59</time>
      </trkpt>
      <trkpt lat="41.96169" lon="2.40337">
        <ele>475</ele>
        <time>2022-05-21 03:32:00</time>
      </trkpt>
      <trkpt lat="41.96173" lon="2.40339">
        <ele>475</ele>
        <time>2022-05-21 03:32:01</time>
      </trkpt>
      <trkpt lat="41.96177" lon="2.40341">
        <ele>475</ele>
        <time>2022-05-21 03:32:02</time>
      </trkpt>
      <trkpt lat="41.96181" lon="2.40343">
        <ele>475</ele>
        <time>2022-05-21 03:32:03</time>
      </trkpt>
      <trkpt lat="41.96185" lon="2.40345">
        <ele>475</ele>
        <time>2022-05-21 03:32:04</time>
      </trkpt>
      <trkpt lat="41.96189" lon="2.40348">
        <ele>475</ele>
        <time>2022-05-21 03:32:05</time>
      </trkpt>
      <trkpt lat="41.96194" lon="2.40352">
        <ele>475</ele>
        <time>2022-05-21 03:32:06</time>
      </trkpt>
      <trkpt lat="41.96198" lon="2.40355">
        <ele>475</ele>
        <time>2022-05-21 03:32:07</time>
      </trkpt>
      <trkpt lat="41.96202" lon="2.40359">
        <ele>475.2</ele>
        <time>2022-05-21 03:32:08</time>
      </trkpt>
      <trkpt lat="41.96207" lon="2.40362">
        <ele>475.2</ele>
        <time>2022-05-21 03:32:09</time>
      </trkpt>
      <trkpt lat="41.96211" lon="2.40365">
        <ele>475.2</ele>
        <time>2022-05-21 03:32:10</time>
      </trkpt>
      <trkpt lat="41.96215" lon="2.40369">
        <ele>475.2</ele>
        <time>2022-05-21 03:32:11</time>
      </trkpt>
      <trkpt lat="41.9622" lon="2.40372">
        <ele>475.2</ele>
        <time>2022-05-21 03:32:12</time>
      </trkpt>
      <trkpt lat="41.96224" lon="2.40376">
        <ele>475.2</ele>
        <time>2022-05-21 03:32:13</time>
      </trkpt>
      <trkpt lat="41.96229" lon="2.40381">
        <ele>475.2</ele>
        <time>2022-05-21 03:32:14</time>
      </trkpt>
      <trkpt lat="41.96234" lon="2.40386">
        <ele>475.2</ele>
        <time>2022-05-21 03:32:15</time>
      </trkpt>
      <trkpt lat="41.96239" lon="2.40391">
        <ele>475.4</ele>
        <time>2022-05-21 03:32:16</time>
      </trkpt>
      <trkpt lat="41.96242" lon="2.40394">
        <ele>475.4</ele>
        <time>2022-05-21 03:32:17</time>
      </trkpt>
      <trkpt lat="41.96247" lon="2.40403">
        <ele>475.4</ele>
        <time>2022-05-21 03:32:18</time>
      </trkpt>
      <trkpt lat="41.9625" lon="2.40409">
        <ele>475.4</ele>
        <time>2022-05-21 03:32:19</time>
      </trkpt>
      <trkpt lat="41.96251" lon="2.40415">
        <ele>475.4</ele>
        <time>2022-05-21 03:32:20</time>
      </trkpt>
      <trkpt lat="41.96252" lon="2.40421">
        <ele>475.4</ele>
        <time>2022-05-21 03:32:21</time>
      </trkpt>
      <trkpt lat="41.96252" lon="2.40427">
        <ele>475.4</ele>
        <time>2022-05-21 03:32:22</time>
      </trkpt>
      <trkpt lat="41.9625" lon="2.40432">
        <ele>475.2</ele>
        <time>2022-05-21 03:32:23</time>
      </trkpt>
      <trkpt lat="41.96247" lon="2.40436">
        <ele>475.2</ele>
        <time>2022-05-21 03:32:24</time>
      </trkpt>
      <trkpt lat="41.96244" lon="2.4044">
        <ele>475</ele>
        <time>2022-05-21 03:32:25</time>
      </trkpt>
      <trkpt lat="41.96241" lon="2.40442">
        <ele>474.8</ele>
        <time>2022-05-21 03:32:26</time>
      </trkpt>
      <trkpt lat="41.96236" lon="2.40445">
        <ele>474.8</ele>
        <time>2022-05-21 03:32:27</time>
      </trkpt>
      <trkpt lat="41.96232" lon="2.40447">
        <ele>474.8</ele>
        <time>2022-05-21 03:32:28</time>
      </trkpt>
      <trkpt lat="41.96227" lon="2.40449">
        <ele>474.6</ele>
        <time>2022-05-21 03:32:29</time>
      </trkpt>
      <trkpt lat="41.96222" lon="2.40451">
        <ele>474.6</ele>
        <time>2022-05-21 03:32:30</time>
      </trkpt>
      <trkpt lat="41.96217" lon="2.40453">
        <ele>474.6</ele>
        <time>2022-05-21 03:32:31</time>
      </trkpt>
      <trkpt lat="41.96212" lon="2.40455">
        <ele>474.4</ele>
        <time>2022-05-21 03:32:32</time>
      </trkpt>
      <trkpt lat="41.96207" lon="2.40457">
        <ele>474.4</ele>
        <time>2022-05-21 03:32:33</time>
      </trkpt>
      <trkpt lat="41.96202" lon="2.40459">
        <ele>474.4</ele>
        <time>2022-05-21 03:32:34</time>
      </trkpt>
      <trkpt lat="41.96197" lon="2.40461">
        <ele>474.4</ele>
        <time>2022-05-21 03:32:35</time>
      </trkpt>
      <trkpt lat="41.96192" lon="2.40462">
        <ele>474.4</ele>
        <time>2022-05-21 03:32:36</time>
      </trkpt>
      <trkpt lat="41.96187" lon="2.40463">
        <ele>474.2</ele>
        <time>2022-05-21 03:32:37</time>
      </trkpt>
      <trkpt lat="41.96182" lon="2.40463">
        <ele>474.2</ele>
        <time>2022-05-21 03:32:38</time>
      </trkpt>
      <trkpt lat="41.96177" lon="2.40463">
        <ele>474.2</ele>
        <time>2022-05-21 03:32:39</time>
      </trkpt>
      <trkpt lat="41.96171" lon="2.40462">
        <ele>474</ele>
        <time>2022-05-21 03:32:40</time>
      </trkpt>
      <trkpt lat="41.96165" lon="2.4046">
        <ele>473.8</ele>
        <time>2022-05-21 03:32:41</time>
      </trkpt>
      <trkpt lat="41.96161" lon="2.40457">
        <ele>473.8</ele>
        <time>2022-05-21 03:32:42</time>
      </trkpt>
      <trkpt lat="41.96156" lon="2.40454">
        <ele>473.6</ele>
        <time>2022-05-21 03:32:43</time>
      </trkpt>
      <trkpt lat="41.96151" lon="2.40453">
        <ele>473.6</ele>
        <time>2022-05-21 03:32:44</time>
      </trkpt>
      <trkpt lat="41.96146" lon="2.40451">
        <ele>473.6</ele>
        <time>2022-05-21 03:32:45</time>
      </trkpt>
      <trkpt lat="41.9614" lon="2.4045">
        <ele>473.4</ele>
        <time>2022-05-21 03:32:46</time>
      </trkpt>
      <trkpt lat="41.96135" lon="2.40451">
        <ele>473.4</ele>
        <time>2022-05-21 03:32:47</time>
      </trkpt>
      <trkpt lat="41.9613" lon="2.40452">
        <ele>473.4</ele>
        <time>2022-05-21 03:32:48</time>
      </trkpt>
      <trkpt lat="41.96126" lon="2.40454">
        <ele>473.4</ele>
        <time>2022-05-21 03:32:49</time>
      </trkpt>
      <trkpt lat="41.96121" lon="2.40456">
        <ele>473.2</ele>
        <time>2022-05-21 03:32:50</time>
      </trkpt>
      <trkpt lat="41.96117" lon="2.40458">
        <ele>473.2</ele>
        <time>2022-05-21 03:32:51</time>
      </trkpt>
      <trkpt lat="41.96112" lon="2.40461">
        <ele>473.2</ele>
        <time>2022-05-21 03:32:52</time>
      </trkpt>
      <trkpt lat="41.96108" lon="2.40464">
        <ele>473.2</ele>
        <time>2022-05-21 03:32:53</time>
      </trkpt>
      <trkpt lat="41.96104" lon="2.40467">
        <ele>473.2</ele>
        <time>2022-05-21 03:32:54</time>
      </trkpt>
      <trkpt lat="41.961" lon="2.4047">
        <ele>473</ele>
        <time>2022-05-21 03:32:55</time>
      </trkpt>
      <trkpt lat="41.96097" lon="2.40474">
        <ele>473</ele>
        <time>2022-05-21 03:32:56</time>
      </trkpt>
      <trkpt lat="41.96093" lon="2.40478">
        <ele>473</ele>
        <time>2022-05-21 03:32:57</time>
      </trkpt>
      <trkpt lat="41.96089" lon="2.40482">
        <ele>473</ele>
        <time>2022-05-21 03:32:58</time>
      </trkpt>
      <trkpt lat="41.96085" lon="2.40486">
        <ele>473</ele>
        <time>2022-05-21 03:32:59</time>
      </trkpt>
      <trkpt lat="41.96082" lon="2.40491">
        <ele>473</ele>
        <time>2022-05-21 03:33:00</time>
      </trkpt>
      <trkpt lat="41.96078" lon="2.40494">
        <ele>472.8</ele>
        <time>2022-05-21 03:33:01</time>
      </trkpt>
      <trkpt lat="41.96074" lon="2.40498">
        <ele>472.8</ele>
        <time>2022-05-21 03:33:02</time>
      </trkpt>
      <trkpt lat="41.96069" lon="2.40502">
        <ele>472.8</ele>
        <time>2022-05-21 03:33:03</time>
      </trkpt>
      <trkpt lat="41.96065" lon="2.40506">
        <ele>472.8</ele>
        <time>2022-05-21 03:33:04</time>
      </trkpt>
      <trkpt lat="41.96061" lon="2.40511">
        <ele>472.6</ele>
        <time>2022-05-21 03:33:05</time>
      </trkpt>
      <trkpt lat="41.96058" lon="2.40515">
        <ele>472.6</ele>
        <time>2022-05-21 03:33:06</time>
      </trkpt>
      <trkpt lat="41.96055" lon="2.40519">
        <ele>472.6</ele>
        <time>2022-05-21 03:33:07</time>
      </trkpt>
      <trkpt lat="41.96053" lon="2.40524">
        <ele>472.4</ele>
        <time>2022-05-21 03:33:08</time>
      </trkpt>
      <trkpt lat="41.9605" lon="2.40529">
        <ele>472.4</ele>
        <time>2022-05-21 03:33:09</time>
      </trkpt>
      <trkpt lat="41.96047" lon="2.40534">
        <ele>472.2</ele>
        <time>2022-05-21 03:33:10</time>
      </trkpt>
      <trkpt lat="41.96044" lon="2.4054">
        <ele>472</ele>
        <time>2022-05-21 03:33:11</time>
      </trkpt>
      <trkpt lat="41.96041" lon="2.40546">
        <ele>471.8</ele>
        <time>2022-05-21 03:33:12</time>
      </trkpt>
      <trkpt lat="41.96038" lon="2.40552">
        <ele>471.6</ele>
        <time>2022-05-21 03:33:13</time>
      </trkpt>
      <trkpt lat="41.96034" lon="2.40559">
        <ele>471.4</ele>
        <time>2022-05-21 03:33:14</time>
      </trkpt>
      <trkpt lat="41.9603" lon="2.40567">
        <ele>471.4</ele>
        <time>2022-05-21 03:33:15</time>
      </trkpt>
      <trkpt lat="41.96025" lon="2.40576">
        <ele>471.2</ele>
        <time>2022-05-21 03:33:16</time>
      </trkpt>
      <trkpt lat="41.96022" lon="2.40584">
        <ele>471.2</ele>
        <time>2022-05-21 03:33:17</time>
      </trkpt>
      <trkpt lat="41.96018" lon="2.40591">
        <ele>471</ele>
        <time>2022-05-21 03:33:18</time>
      </trkpt>
      <trkpt lat="41.96015" lon="2.40598">
        <ele>471</ele>
        <time>2022-05-21 03:33:19</time>
      </trkpt>
      <trkpt lat="41.96011" lon="2.40605">
        <ele>471</ele>
        <time>2022-05-21 03:33:20</time>
      </trkpt>
      <trkpt lat="41.96008" lon="2.40611">
        <ele>471</ele>
        <time>2022-05-21 03:33:21</time>
      </trkpt>
      <trkpt lat="41.96005" lon="2.40619">
        <ele>470.8</ele>
        <time>2022-05-21 03:33:22</time>
      </trkpt>
      <trkpt lat="41.96004" lon="2.40627">
        <ele>470.8</ele>
        <time>2022-05-21 03:33:23</time>
      </trkpt>
      <trkpt lat="41.96003" lon="2.40635">
        <ele>470.8</ele>
        <time>2022-05-21 03:33:24</time>
      </trkpt>
      <trkpt lat="41.96003" lon="2.40642">
        <ele>470.6</ele>
        <time>2022-05-21 03:33:25</time>
      </trkpt>
      <trkpt lat="41.96006" lon="2.40647">
        <ele>470.6</ele>
        <time>2022-05-21 03:33:26</time>
      </trkpt>
      <trkpt lat="41.96011" lon="2.40648">
        <ele>470.8</ele>
        <time>2022-05-21 03:33:27</time>
      </trkpt>
      <trkpt lat="41.96016" lon="2.40647">
        <ele>470.8</ele>
        <time>2022-05-21 03:33:28</time>
      </trkpt>
      <trkpt lat="41.96022" lon="2.40645">
        <ele>470.8</ele>
        <time>2022-05-21 03:33:29</time>
      </trkpt>
      <trkpt lat="41.96026" lon="2.4064">
        <ele>470.6</ele>
        <time>2022-05-21 03:33:30</time>
      </trkpt>
      <trkpt lat="41.9603" lon="2.40634">
        <ele>470.6</ele>
        <time>2022-05-21 03:33:31</time>
      </trkpt>
      <trkpt lat="41.96034" lon="2.40628">
        <ele>470.4</ele>
        <time>2022-05-21 03:33:32</time>
      </trkpt>
      <trkpt lat="41.96038" lon="2.40621">
        <ele>470.4</ele>
        <time>2022-05-21 03:33:33</time>
      </trkpt>
      <trkpt lat="41.96043" lon="2.40615">
        <ele>470.2</ele>
        <time>2022-05-21 03:33:34</time>
      </trkpt>
      <trkpt lat="41.96048" lon="2.40608">
        <ele>470</ele>
        <time>2022-05-21 03:33:35</time>
      </trkpt>
      <trkpt lat="41.96053" lon="2.40602">
        <ele>469.8</ele>
        <time>2022-05-21 03:33:36</time>
      </trkpt>
      <trkpt lat="41.96059" lon="2.40597">
        <ele>469.6</ele>
        <time>2022-05-21 03:33:37</time>
      </trkpt>
      <trkpt lat="41.96066" lon="2.40591">
        <ele>469.4</ele>
        <time>2022-05-21 03:33:38</time>
      </trkpt>
      <trkpt lat="41.96073" lon="2.40586">
        <ele>469</ele>
        <time>2022-05-21 03:33:39</time>
      </trkpt>
      <trkpt lat="41.9608" lon="2.40582">
        <ele>468.8</ele>
        <time>2022-05-21 03:33:40</time>
      </trkpt>
      <trkpt lat="41.96086" lon="2.40577">
        <ele>468.6</ele>
        <time>2022-05-21 03:33:41</time>
      </trkpt>
      <trkpt lat="41.96093" lon="2.40573">
        <ele>468.4</ele>
        <time>2022-05-21 03:33:42</time>
      </trkpt>
      <trkpt lat="41.96101" lon="2.4057">
        <ele>468.2</ele>
        <time>2022-05-21 03:33:43</time>
      </trkpt>
      <trkpt lat="41.96108" lon="2.40568">
        <ele>467.8</ele>
        <time>2022-05-21 03:33:44</time>
      </trkpt>
      <trkpt lat="41.96115" lon="2.40565">
        <ele>467.6</ele>
        <time>2022-05-21 03:33:45</time>
      </trkpt>
      <trkpt lat="41.96123" lon="2.40564">
        <ele>467.4</ele>
        <time>2022-05-21 03:33:46</time>
      </trkpt>
      <trkpt lat="41.9613" lon="2.40563">
        <ele>467.2</ele>
        <time>2022-05-21 03:33:47</time>
      </trkpt>
      <trkpt lat="41.96137" lon="2.40563">
        <ele>467</ele>
        <time>2022-05-21 03:33:48</time>
      </trkpt>
      <trkpt lat="41.96143" lon="2.40563">
        <ele>466.8</ele>
        <time>2022-05-21 03:33:49</time>
      </trkpt>
      <trkpt lat="41.9615" lon="2.40564">
        <ele>466.6</ele>
        <time>2022-05-21 03:33:50</time>
      </trkpt>
      <trkpt lat="41.96157" lon="2.40565">
        <ele>466.4</ele>
        <time>2022-05-21 03:33:51</time>
      </trkpt>
      <trkpt lat="41.96164" lon="2.40566">
        <ele>466.4</ele>
        <time>2022-05-21 03:33:52</time>
      </trkpt>
      <trkpt lat="41.96171" lon="2.40568">
        <ele>466.2</ele>
        <time>2022-05-21 03:33:53</time>
      </trkpt>
      <trkpt lat="41.96178" lon="2.40569">
        <ele>466.2</ele>
        <time>2022-05-21 03:33:54</time>
      </trkpt>
      <trkpt lat="41.96185" lon="2.4057">
        <ele>466</ele>
        <time>2022-05-21 03:33:55</time>
      </trkpt>
      <trkpt lat="41.96191" lon="2.40572">
        <ele>466</ele>
        <time>2022-05-21 03:33:56</time>
      </trkpt>
      <trkpt lat="41.96198" lon="2.40574">
        <ele>465.8</ele>
        <time>2022-05-21 03:33:57</time>
      </trkpt>
      <trkpt lat="41.96204" lon="2.40578">
        <ele>465.8</ele>
        <time>2022-05-21 03:33:58</time>
      </trkpt>
      <trkpt lat="41.9621" lon="2.40584">
        <ele>465.6</ele>
        <time>2022-05-21 03:33:59</time>
      </trkpt>
      <trkpt lat="41.96214" lon="2.40592">
        <ele>465.4</ele>
        <time>2022-05-21 03:34:00</time>
      </trkpt>
      <trkpt lat="41.96218" lon="2.40601">
        <ele>465.2</ele>
        <time>2022-05-21 03:34:01</time>
      </trkpt>
      <trkpt lat="41.96221" lon="2.4061">
        <ele>464.8</ele>
        <time>2022-05-21 03:34:02</time>
      </trkpt>
      <trkpt lat="41.96225" lon="2.40619">
        <ele>464.6</ele>
        <time>2022-05-21 03:34:03</time>
      </trkpt>
      <trkpt lat="41.96229" lon="2.40626">
        <ele>464.4</ele>
        <time>2022-05-21 03:34:04</time>
      </trkpt>
      <trkpt lat="41.96233" lon="2.40631">
        <ele>464.2</ele>
        <time>2022-05-21 03:34:05</time>
      </trkpt>
      <trkpt lat="41.96243" lon="2.40639">
        <ele>464</ele>
        <time>2022-05-21 03:34:06</time>
      </trkpt>
      <trkpt lat="41.96251" lon="2.40641">
        <ele>464</ele>
        <time>2022-05-21 03:34:07</time>
      </trkpt>
      <trkpt lat="41.96259" lon="2.4064">
        <ele>464</ele>
        <time>2022-05-21 03:34:08</time>
      </trkpt>
      <trkpt lat="41.96266" lon="2.40639">
        <ele>464.2</ele>
        <time>2022-05-21 03:34:09</time>
      </trkpt>
      <trkpt lat="41.96271" lon="2.40636">
        <ele>464.2</ele>
        <time>2022-05-21 03:34:10</time>
      </trkpt>
      <trkpt lat="41.96276" lon="2.40634">
        <ele>464.2</ele>
        <time>2022-05-21 03:34:11</time>
      </trkpt>
      <trkpt lat="41.96281" lon="2.40631">
        <ele>464.2</ele>
        <time>2022-05-21 03:34:12</time>
      </trkpt>
      <trkpt lat="41.96286" lon="2.40628">
        <ele>464.2</ele>
        <time>2022-05-21 03:34:13</time>
      </trkpt>
      <trkpt lat="41.96291" lon="2.40625">
        <ele>464.2</ele>
        <time>2022-05-21 03:34:14</time>
      </trkpt>
      <trkpt lat="41.96296" lon="2.40623">
        <ele>464</ele>
        <time>2022-05-21 03:34:15</time>
      </trkpt>
      <trkpt lat="41.96302" lon="2.40621">
        <ele>464</ele>
        <time>2022-05-21 03:34:16</time>
      </trkpt>
      <trkpt lat="41.96308" lon="2.4062">
        <ele>463.8</ele>
        <time>2022-05-21 03:34:17</time>
      </trkpt>
      <trkpt lat="41.96314" lon="2.40619">
        <ele>463.6</ele>
        <time>2022-05-21 03:34:18</time>
      </trkpt>
      <trkpt lat="41.9632" lon="2.40619">
        <ele>463.6</ele>
        <time>2022-05-21 03:34:19</time>
      </trkpt>
      <trkpt lat="41.96326" lon="2.40618">
        <ele>463.4</ele>
        <time>2022-05-21 03:34:20</time>
      </trkpt>
      <trkpt lat="41.96333" lon="2.40616">
        <ele>463.2</ele>
        <time>2022-05-21 03:34:21</time>
      </trkpt>
      <trkpt lat="41.96338" lon="2.40613">
        <ele>463.2</ele>
        <time>2022-05-21 03:34:22</time>
      </trkpt>
      <trkpt lat="41.96344" lon="2.40609">
        <ele>463</ele>
        <time>2022-05-21 03:34:23</time>
      </trkpt>
      <trkpt lat="41.9635" lon="2.40605">
        <ele>463</ele>
        <time>2022-05-21 03:34:24</time>
      </trkpt>
      <trkpt lat="41.96357" lon="2.40601">
        <ele>462.8</ele>
        <time>2022-05-21 03:34:25</time>
      </trkpt>
      <trkpt lat="41.96363" lon="2.40599">
        <ele>462.8</ele>
        <time>2022-05-21 03:34:26</time>
      </trkpt>
      <trkpt lat="41.9637" lon="2.40598">
        <ele>462.6</ele>
        <time>2022-05-21 03:34:27</time>
      </trkpt>
      <trkpt lat="41.96377" lon="2.40598">
        <ele>462.4</ele>
        <time>2022-05-21 03:34:28</time>
      </trkpt>
      <trkpt lat="41.96384" lon="2.40599">
        <ele>462.2</ele>
        <time>2022-05-21 03:34:29</time>
      </trkpt>
      <trkpt lat="41.9639" lon="2.40601">
        <ele>462</ele>
        <time>2022-05-21 03:34:30</time>
      </trkpt>
      <trkpt lat="41.96396" lon="2.40603">
        <ele>462</ele>
        <time>2022-05-21 03:34:31</time>
      </trkpt>
      <trkpt lat="41.96402" lon="2.40605">
        <ele>461.8</ele>
        <time>2022-05-21 03:34:32</time>
      </trkpt>
      <trkpt lat="41.96409" lon="2.40607">
        <ele>461.6</ele>
        <time>2022-05-21 03:34:33</time>
      </trkpt>
      <trkpt lat="41.96414" lon="2.40609">
        <ele>461.4</ele>
        <time>2022-05-21 03:34:34</time>
      </trkpt>
      <trkpt lat="41.9642" lon="2.40611">
        <ele>461.4</ele>
        <time>2022-05-21 03:34:35</time>
      </trkpt>
      <trkpt lat="41.96426" lon="2.40611">
        <ele>461.2</ele>
        <time>2022-05-21 03:34:36</time>
      </trkpt>
      <trkpt lat="41.96433" lon="2.4061">
        <ele>461</ele>
        <time>2022-05-21 03:34:37</time>
      </trkpt>
      <trkpt lat="41.9644" lon="2.40608">
        <ele>460.6</ele>
        <time>2022-05-21 03:34:38</time>
      </trkpt>
      <trkpt lat="41.96447" lon="2.40606">
        <ele>460.4</ele>
        <time>2022-05-21 03:34:39</time>
      </trkpt>
      <trkpt lat="41.96454" lon="2.40603">
        <ele>460</ele>
        <time>2022-05-21 03:34:40</time>
      </trkpt>
      <trkpt lat="41.96461" lon="2.40599">
        <ele>459.8</ele>
        <time>2022-05-21 03:34:41</time>
      </trkpt>
      <trkpt lat="41.9647" lon="2.40595">
        <ele>459.4</ele>
        <time>2022-05-21 03:34:42</time>
      </trkpt>
      <trkpt lat="41.96479" lon="2.40591">
        <ele>459</ele>
        <time>2022-05-21 03:34:43</time>
      </trkpt>
      <trkpt lat="41.96487" lon="2.40587">
        <ele>458.8</ele>
        <time>2022-05-21 03:34:44</time>
      </trkpt>
      <trkpt lat="41.96495" lon="2.40585">
        <ele>458.4</ele>
        <time>2022-05-21 03:34:45</time>
      </trkpt>
      <trkpt lat="41.96503" lon="2.40584">
        <ele>458</ele>
        <time>2022-05-21 03:34:46</time>
      </trkpt>
      <trkpt lat="41.96511" lon="2.40586">
        <ele>457.4</ele>
        <time>2022-05-21 03:34:47</time>
      </trkpt>
      <trkpt lat="41.96518" lon="2.40589">
        <ele>457</ele>
        <time>2022-05-21 03:34:48</time>
      </trkpt>
      <trkpt lat="41.96526" lon="2.40594">
        <ele>456.4</ele>
        <time>2022-05-21 03:34:49</time>
      </trkpt>
      <trkpt lat="41.96533" lon="2.406">
        <ele>456</ele>
        <time>2022-05-21 03:34:50</time>
      </trkpt>
      <trkpt lat="41.9654" lon="2.40606">
        <ele>455.4</ele>
        <time>2022-05-21 03:34:51</time>
      </trkpt>
      <trkpt lat="41.96548" lon="2.40612">
        <ele>455</ele>
        <time>2022-05-21 03:34:52</time>
      </trkpt>
      <trkpt lat="41.96556" lon="2.40617">
        <ele>454.4</ele>
        <time>2022-05-21 03:34:53</time>
      </trkpt>
      <trkpt lat="41.96565" lon="2.40621">
        <ele>454</ele>
        <time>2022-05-21 03:34:54</time>
      </trkpt>
      <trkpt lat="41.96574" lon="2.40623">
        <ele>453.6</ele>
        <time>2022-05-21 03:34:55</time>
      </trkpt>
      <trkpt lat="41.96582" lon="2.40622">
        <ele>453.2</ele>
        <time>2022-05-21 03:34:56</time>
      </trkpt>
      <trkpt lat="41.9659" lon="2.40619">
        <ele>452.8</ele>
        <time>2022-05-21 03:34:57</time>
      </trkpt>
      <trkpt lat="41.96597" lon="2.40615">
        <ele>452.4</ele>
        <time>2022-05-21 03:34:58</time>
      </trkpt>
      <trkpt lat="41.96604" lon="2.4061">
        <ele>452</ele>
        <time>2022-05-21 03:34:59</time>
      </trkpt>
      <trkpt lat="41.9661" lon="2.40603">
        <ele>451.6</ele>
        <time>2022-05-21 03:35:00</time>
      </trkpt>
      <trkpt lat="41.96616" lon="2.40595">
        <ele>451.4</ele>
        <time>2022-05-21 03:35:01</time>
      </trkpt>
      <trkpt lat="41.96619" lon="2.40586">
        <ele>451</ele>
        <time>2022-05-21 03:35:02</time>
      </trkpt>
      <trkpt lat="41.96621" lon="2.40577">
        <ele>450.6</ele>
        <time>2022-05-21 03:35:03</time>
      </trkpt>
      <trkpt lat="41.96624" lon="2.40568">
        <ele>450.2</ele>
        <time>2022-05-21 03:35:04</time>
      </trkpt>
      <trkpt lat="41.96629" lon="2.40562">
        <ele>449.8</ele>
        <time>2022-05-21 03:35:05</time>
      </trkpt>
      <trkpt lat="41.96633" lon="2.40559">
        <ele>449.6</ele>
        <time>2022-05-21 03:35:06</time>
      </trkpt>
      <trkpt lat="41.96638" lon="2.40557">
        <ele>449.2</ele>
        <time>2022-05-21 03:35:07</time>
      </trkpt>
      <trkpt lat="41.96644" lon="2.40556">
        <ele>448.8</ele>
        <time>2022-05-21 03:35:08</time>
      </trkpt>
      <trkpt lat="41.9665" lon="2.40556">
        <ele>448.4</ele>
        <time>2022-05-21 03:35:09</time>
      </trkpt>
      <trkpt lat="41.96656" lon="2.40556">
        <ele>448</ele>
        <time>2022-05-21 03:35:10</time>
      </trkpt>
      <trkpt lat="41.96663" lon="2.40556">
        <ele>447.4</ele>
        <time>2022-05-21 03:35:11</time>
      </trkpt>
      <trkpt lat="41.96671" lon="2.40557">
        <ele>447</ele>
        <time>2022-05-21 03:35:12</time>
      </trkpt>
      <trkpt lat="41.96679" lon="2.40559">
        <ele>446.4</ele>
        <time>2022-05-21 03:35:13</time>
      </trkpt>
      <trkpt lat="41.96686" lon="2.40564">
        <ele>446</ele>
        <time>2022-05-21 03:35:14</time>
      </trkpt>
      <trkpt lat="41.96693" lon="2.40569">
        <ele>445.4</ele>
        <time>2022-05-21 03:35:15</time>
      </trkpt>
      <trkpt lat="41.96698" lon="2.40575">
        <ele>445</ele>
        <time>2022-05-21 03:35:16</time>
      </trkpt>
      <trkpt lat="41.96704" lon="2.4058">
        <ele>444.4</ele>
        <time>2022-05-21 03:35:17</time>
      </trkpt>
      <trkpt lat="41.96711" lon="2.40583">
        <ele>443.8</ele>
        <time>2022-05-21 03:35:18</time>
      </trkpt>
      <trkpt lat="41.96719" lon="2.40583">
        <ele>443.4</ele>
        <time>2022-05-21 03:35:19</time>
      </trkpt>
      <trkpt lat="41.96728" lon="2.4058">
        <ele>442.8</ele>
        <time>2022-05-21 03:35:20</time>
      </trkpt>
      <trkpt lat="41.96737" lon="2.40576">
        <ele>442.2</ele>
        <time>2022-05-21 03:35:21</time>
      </trkpt>
      <trkpt lat="41.96745" lon="2.40574">
        <ele>441.6</ele>
        <time>2022-05-21 03:35:22</time>
      </trkpt>
      <trkpt lat="41.96754" lon="2.40576">
        <ele>440.8</ele>
        <time>2022-05-21 03:35:23</time>
      </trkpt>
      <trkpt lat="41.96762" lon="2.40579">
        <ele>440.2</ele>
        <time>2022-05-21 03:35:24</time>
      </trkpt>
      <trkpt lat="41.96769" lon="2.40585">
        <ele>439.6</ele>
        <time>2022-05-21 03:35:25</time>
      </trkpt>
      <trkpt lat="41.96776" lon="2.40592">
        <ele>439</ele>
        <time>2022-05-21 03:35:26</time>
      </trkpt>
      <trkpt lat="41.96782" lon="2.406">
        <ele>438.4</ele>
        <time>2022-05-21 03:35:27</time>
      </trkpt>
      <trkpt lat="41.96787" lon="2.40609">
        <ele>437.6</ele>
        <time>2022-05-21 03:35:28</time>
      </trkpt>
      <trkpt lat="41.96793" lon="2.4062">
        <ele>437</ele>
        <time>2022-05-21 03:35:29</time>
      </trkpt>
      <trkpt lat="41.96799" lon="2.40628">
        <ele>436.2</ele>
        <time>2022-05-21 03:35:30</time>
      </trkpt>
      <trkpt lat="41.96805" lon="2.40638">
        <ele>435.6</ele>
        <time>2022-05-21 03:35:31</time>
      </trkpt>
      <trkpt lat="41.9681" lon="2.40648">
        <ele>435</ele>
        <time>2022-05-21 03:35:32</time>
      </trkpt>
      <trkpt lat="41.96814" lon="2.4066">
        <ele>434.2</ele>
        <time>2022-05-21 03:35:33</time>
      </trkpt>
      <trkpt lat="41.96816" lon="2.40673">
        <ele>433.6</ele>
        <time>2022-05-21 03:35:34</time>
      </trkpt>
      <trkpt lat="41.96818" lon="2.40688">
        <ele>432.8</ele>
        <time>2022-05-21 03:35:35</time>
      </trkpt>
      <trkpt lat="41.96819" lon="2.40701">
        <ele>432</ele>
        <time>2022-05-21 03:35:36</time>
      </trkpt>
      <trkpt lat="41.96819" lon="2.40716">
        <ele>431.2</ele>
        <time>2022-05-21 03:35:37</time>
      </trkpt>
      <trkpt lat="41.96817" lon="2.40731">
        <ele>430.6</ele>
        <time>2022-05-21 03:35:38</time>
      </trkpt>
      <trkpt lat="41.96816" lon="2.40746">
        <ele>430</ele>
        <time>2022-05-21 03:35:39</time>
      </trkpt>
      <trkpt lat="41.96815" lon="2.4076">
        <ele>429.4</ele>
        <time>2022-05-21 03:35:40</time>
      </trkpt>
      <trkpt lat="41.96815" lon="2.40772">
        <ele>429</ele>
        <time>2022-05-21 03:35:41</time>
      </trkpt>
      <trkpt lat="41.96817" lon="2.40784">
        <ele>428.4</ele>
        <time>2022-05-21 03:35:42</time>
      </trkpt>
      <trkpt lat="41.96821" lon="2.40795">
        <ele>427.8</ele>
        <time>2022-05-21 03:35:43</time>
      </trkpt>
      <trkpt lat="41.96827" lon="2.40804">
        <ele>427.2</ele>
        <time>2022-05-21 03:35:44</time>
      </trkpt>
      <trkpt lat="41.96833" lon="2.40811">
        <ele>426.6</ele>
        <time>2022-05-21 03:35:45</time>
      </trkpt>
      <trkpt lat="41.96843" lon="2.40819">
        <ele>426</ele>
        <time>2022-05-21 03:35:46</time>
      </trkpt>
      <trkpt lat="41.9685" lon="2.40827">
        <ele>425.4</ele>
        <time>2022-05-21 03:35:47</time>
      </trkpt>
      <trkpt lat="41.96856" lon="2.40836">
        <ele>424.8</ele>
        <time>2022-05-21 03:35:48</time>
      </trkpt>
      <trkpt lat="41.96859" lon="2.40847">
        <ele>424.2</ele>
        <time>2022-05-21 03:35:49</time>
      </trkpt>
      <trkpt lat="41.96861" lon="2.40858">
        <ele>423.8</ele>
        <time>2022-05-21 03:35:50</time>
      </trkpt>
      <trkpt lat="41.96862" lon="2.4087">
        <ele>423.2</ele>
        <time>2022-05-21 03:35:51</time>
      </trkpt>
      <trkpt lat="41.96862" lon="2.40883">
        <ele>422.6</ele>
        <time>2022-05-21 03:35:52</time>
      </trkpt>
      <trkpt lat="41.96862" lon="2.40896">
        <ele>422</ele>
        <time>2022-05-21 03:35:53</time>
      </trkpt>
      <trkpt lat="41.96862" lon="2.40909">
        <ele>421.4</ele>
        <time>2022-05-21 03:35:54</time>
      </trkpt>
      <trkpt lat="41.96862" lon="2.40923">
        <ele>420.6</ele>
        <time>2022-05-21 03:35:55</time>
      </trkpt>
      <trkpt lat="41.96863" lon="2.40937">
        <ele>419.8</ele>
        <time>2022-05-21 03:35:56</time>
      </trkpt>
      <trkpt lat="41.96864" lon="2.40951">
        <ele>419.2</ele>
        <time>2022-05-21 03:35:57</time>
      </trkpt>
      <trkpt lat="41.96867" lon="2.40965">
        <ele>418.4</ele>
        <time>2022-05-21 03:35:58</time>
      </trkpt>
      <trkpt lat="41.9687" lon="2.4098">
        <ele>417.8</ele>
        <time>2022-05-21 03:35:59</time>
      </trkpt>
      <trkpt lat="41.96873" lon="2.40992">
        <ele>417</ele>
        <time>2022-05-21 03:36:00</time>
      </trkpt>
      <trkpt lat="41.96876" lon="2.41002">
        <ele>416.4</ele>
        <time>2022-05-21 03:36:01</time>
      </trkpt>
      <trkpt lat="41.96881" lon="2.41025">
        <ele>415.8</ele>
        <time>2022-05-21 03:36:02</time>
      </trkpt>
      <trkpt lat="41.96881" lon="2.41038">
        <ele>415.4</ele>
        <time>2022-05-21 03:36:03</time>
      </trkpt>
      <trkpt lat="41.96881" lon="2.41051">
        <ele>415</ele>
        <time>2022-05-21 03:36:04</time>
      </trkpt>
      <trkpt lat="41.96878" lon="2.41062">
        <ele>414.6</ele>
        <time>2022-05-21 03:36:05</time>
      </trkpt>
      <trkpt lat="41.96874" lon="2.4107">
        <ele>414.4</ele>
        <time>2022-05-21 03:36:06</time>
      </trkpt>
      <trkpt lat="41.96871" lon="2.41077">
        <ele>414.4</ele>
        <time>2022-05-21 03:36:07</time>
      </trkpt>
      <trkpt lat="41.96865" lon="2.41081">
        <ele>414.4</ele>
        <time>2022-05-21 03:36:08</time>
      </trkpt>
      <trkpt lat="41.96859" lon="2.41084">
        <ele>414.4</ele>
        <time>2022-05-21 03:36:09</time>
      </trkpt>
      <trkpt lat="41.96853" lon="2.41086">
        <ele>414.4</ele>
        <time>2022-05-21 03:36:10</time>
      </trkpt>
      <trkpt lat="41.96848" lon="2.41088">
        <ele>414.4</ele>
        <time>2022-05-21 03:36:11</time>
      </trkpt>
      <trkpt lat="41.96842" lon="2.41089">
        <ele>414.4</ele>
        <time>2022-05-21 03:36:12</time>
      </trkpt>
      <trkpt lat="41.96837" lon="2.4109">
        <ele>414.4</ele>
        <time>2022-05-21 03:36:13</time>
      </trkpt>
      <trkpt lat="41.96833" lon="2.4109">
        <ele>414.4</ele>
        <time>2022-05-21 03:36:14</time>
      </trkpt>
      <trkpt lat="41.9683" lon="2.4109">
        <ele>414.4</ele>
        <time>2022-05-21 03:36:15</time>
      </trkpt>
      <trkpt lat="41.96827" lon="2.41093">
        <ele>414.6</ele>
        <time>2022-05-21 03:36:16</time>
      </trkpt>
      <trkpt lat="41.96824" lon="2.41096">
        <ele>414.6</ele>
        <time>2022-05-21 03:36:17</time>
      </trkpt>
      <trkpt lat="41.96821" lon="2.41099">
        <ele>414.6</ele>
        <time>2022-05-21 03:36:18</time>
      </trkpt>
      <trkpt lat="41.96818" lon="2.41102">
        <ele>414.6</ele>
        <time>2022-05-21 03:36:19</time>
      </trkpt>
      <trkpt lat="41.96815" lon="2.41104">
        <ele>414.8</ele>
        <time>2022-05-21 03:36:20</time>
      </trkpt>
      <trkpt lat="41.96811" lon="2.41106">
        <ele>414.8</ele>
        <time>2022-05-21 03:36:21</time>
      </trkpt>
      <trkpt lat="41.96807" lon="2.41108">
        <ele>414.8</ele>
        <time>2022-05-21 03:36:22</time>
      </trkpt>
      <trkpt lat="41.96803" lon="2.4111">
        <ele>414.8</ele>
        <time>2022-05-21 03:36:23</time>
      </trkpt>
      <trkpt lat="41.96798" lon="2.41111">
        <ele>414.8</ele>
        <time>2022-05-21 03:36:24</time>
      </trkpt>
      <trkpt lat="41.96794" lon="2.41113">
        <ele>414.8</ele>
        <time>2022-05-21 03:36:25</time>
      </trkpt>
      <trkpt lat="41.9679" lon="2.41116">
        <ele>414.8</ele>
        <time>2022-05-21 03:36:26</time>
      </trkpt>
      <trkpt lat="41.96785" lon="2.41118">
        <ele>414.8</ele>
        <time>2022-05-21 03:36:27</time>
      </trkpt>
      <trkpt lat="41.96782" lon="2.41121">
        <ele>414.8</ele>
        <time>2022-05-21 03:36:28</time>
      </trkpt>
      <trkpt lat="41.96777" lon="2.41123">
        <ele>414.8</ele>
        <time>2022-05-21 03:36:29</time>
      </trkpt>
      <trkpt lat="41.96773" lon="2.41126">
        <ele>414.8</ele>
        <time>2022-05-21 03:36:30</time>
      </trkpt>
      <trkpt lat="41.96768" lon="2.41128">
        <ele>414.8</ele>
        <time>2022-05-21 03:36:31</time>
      </trkpt>
      <trkpt lat="41.96764" lon="2.41131">
        <ele>414.8</ele>
        <time>2022-05-21 03:36:32</time>
      </trkpt>
      <trkpt lat="41.96759" lon="2.41133">
        <ele>414.8</ele>
        <time>2022-05-21 03:36:33</time>
      </trkpt>
      <trkpt lat="41.96755" lon="2.41136">
        <ele>415</ele>
        <time>2022-05-21 03:36:34</time>
      </trkpt>
      <trkpt lat="41.96751" lon="2.41139">
        <ele>415</ele>
        <time>2022-05-21 03:36:35</time>
      </trkpt>
      <trkpt lat="41.96747" lon="2.41142">
        <ele>415</ele>
        <time>2022-05-21 03:36:36</time>
      </trkpt>
      <trkpt lat="41.96742" lon="2.41146">
        <ele>415</ele>
        <time>2022-05-21 03:36:37</time>
      </trkpt>
      <trkpt lat="41.96738" lon="2.41149">
        <ele>415</ele>
        <time>2022-05-21 03:36:38</time>
      </trkpt>
      <trkpt lat="41.96734" lon="2.41152">
        <ele>415.2</ele>
        <time>2022-05-21 03:36:39</time>
      </trkpt>
      <trkpt lat="41.9673" lon="2.41155">
        <ele>415.2</ele>
        <time>2022-05-21 03:36:40</time>
      </trkpt>
      <trkpt lat="41.96727" lon="2.41158">
        <ele>415.2</ele>
        <time>2022-05-21 03:36:41</time>
      </trkpt>
      <trkpt lat="41.96725" lon="2.41161">
        <ele>415.2</ele>
        <time>2022-05-21 03:36:42</time>
      </trkpt>
      <trkpt lat="41.96722" lon="2.41165">
        <ele>415.2</ele>
        <time>2022-05-21 03:36:43</time>
      </trkpt>
      <trkpt lat="41.9672" lon="2.4117">
        <ele>415.4</ele>
        <time>2022-05-21 03:36:44</time>
      </trkpt>
      <trkpt lat="41.96719" lon="2.41175">
        <ele>415.4</ele>
        <time>2022-05-21 03:36:45</time>
      </trkpt>
      <trkpt lat="41.96719" lon="2.41181">
        <ele>415.4</ele>
        <time>2022-05-21 03:36:46</time>
      </trkpt>
      <trkpt lat="41.96721" lon="2.41187">
        <ele>415.4</ele>
        <time>2022-05-21 03:36:47</time>
      </trkpt>
      <trkpt lat="41.96724" lon="2.41193">
        <ele>415.4</ele>
        <time>2022-05-21 03:36:48</time>
      </trkpt>
      <trkpt lat="41.96727" lon="2.41199">
        <ele>415.4</ele>
        <time>2022-05-21 03:36:49</time>
      </trkpt>
      <trkpt lat="41.9673" lon="2.41203">
        <ele>415.6</ele>
        <time>2022-05-21 03:36:50</time>
      </trkpt>
      <trkpt lat="41.96733" lon="2.41207">
        <ele>415.6</ele>
        <time>2022-05-21 03:36:51</time>
      </trkpt>
      <trkpt lat="41.96737" lon="2.41211">
        <ele>415.6</ele>
        <time>2022-05-21 03:36:52</time>
      </trkpt>
      <trkpt lat="41.9674" lon="2.41214">
        <ele>415.4</ele>
        <time>2022-05-21 03:36:53</time>
      </trkpt>
      <trkpt lat="41.96743" lon="2.41218">
        <ele>415.4</ele>
        <time>2022-05-21 03:36:54</time>
      </trkpt>
      <trkpt lat="41.96746" lon="2.41222">
        <ele>415.4</ele>
        <time>2022-05-21 03:36:55</time>
      </trkpt>
      <trkpt lat="41.9675" lon="2.41227">
        <ele>415.4</ele>
        <time>2022-05-21 03:36:56</time>
      </trkpt>
      <trkpt lat="41.96753" lon="2.41232">
        <ele>415.4</ele>
        <time>2022-05-21 03:36:57</time>
      </trkpt>
      <trkpt lat="41.96757" lon="2.41237">
        <ele>415.4</ele>
        <time>2022-05-21 03:36:58</time>
      </trkpt>
      <trkpt lat="41.9676" lon="2.41241">
        <ele>415.4</ele>
        <time>2022-05-21 03:36:59</time>
      </trkpt>
      <trkpt lat="41.96764" lon="2.41246">
        <ele>415.4</ele>
        <time>2022-05-21 03:37:00</time>
      </trkpt>
      <trkpt lat="41.96767" lon="2.41252">
        <ele>415.4</ele>
        <time>2022-05-21 03:37:01</time>
      </trkpt>
      <trkpt lat="41.9677" lon="2.41257">
        <ele>415.4</ele>
        <time>2022-05-21 03:37:02</time>
      </trkpt>
      <trkpt lat="41.96773" lon="2.41262">
        <ele>415.4</ele>
        <time>2022-05-21 03:37:03</time>
      </trkpt>
      <trkpt lat="41.96776" lon="2.41267">
        <ele>415.4</ele>
        <time>2022-05-21 03:37:04</time>
      </trkpt>
      <trkpt lat="41.96779" lon="2.41272">
        <ele>415.4</ele>
        <time>2022-05-21 03:37:05</time>
      </trkpt>
      <trkpt lat="41.96782" lon="2.41278">
        <ele>415.6</ele>
        <time>2022-05-21 03:37:06</time>
      </trkpt>
      <trkpt lat="41.96785" lon="2.41283">
        <ele>415.6</ele>
        <time>2022-05-21 03:37:07</time>
      </trkpt>
      <trkpt lat="41.96789" lon="2.41288">
        <ele>415.6</ele>
        <time>2022-05-21 03:37:08</time>
      </trkpt>
      <trkpt lat="41.96792" lon="2.41293">
        <ele>415.6</ele>
        <time>2022-05-21 03:37:09</time>
      </trkpt>
      <trkpt lat="41.96795" lon="2.41299">
        <ele>415.6</ele>
        <time>2022-05-21 03:37:10</time>
      </trkpt>
      <trkpt lat="41.96798" lon="2.41304">
        <ele>415.8</ele>
        <time>2022-05-21 03:37:11</time>
      </trkpt>
      <trkpt lat="41.96801" lon="2.4131">
        <ele>415.8</ele>
        <time>2022-05-21 03:37:12</time>
      </trkpt>
      <trkpt lat="41.96804" lon="2.41315">
        <ele>415.8</ele>
        <time>2022-05-21 03:37:13</time>
      </trkpt>
      <trkpt lat="41.96807" lon="2.41321">
        <ele>415.8</ele>
        <time>2022-05-21 03:37:14</time>
      </trkpt>
      <trkpt lat="41.9681" lon="2.41326">
        <ele>415.8</ele>
        <time>2022-05-21 03:37:15</time>
      </trkpt>
      <trkpt lat="41.96813" lon="2.41331">
        <ele>415.8</ele>
        <time>2022-05-21 03:37:16</time>
      </trkpt>
      <trkpt lat="41.96816" lon="2.41338">
        <ele>415.8</ele>
        <time>2022-05-21 03:37:17</time>
      </trkpt>
      <trkpt lat="41.96818" lon="2.41343">
        <ele>415.8</ele>
        <time>2022-05-21 03:37:18</time>
      </trkpt>
      <trkpt lat="41.96821" lon="2.41349">
        <ele>415.8</ele>
        <time>2022-05-21 03:37:19</time>
      </trkpt>
      <trkpt lat="41.96823" lon="2.41355">
        <ele>415.8</ele>
        <time>2022-05-21 03:37:20</time>
      </trkpt>
      <trkpt lat="41.96825" lon="2.41362">
        <ele>415.8</ele>
        <time>2022-05-21 03:37:21</time>
      </trkpt>
      <trkpt lat="41.96828" lon="2.41367">
        <ele>416</ele>
        <time>2022-05-21 03:37:22</time>
      </trkpt>
      <trkpt lat="41.9683" lon="2.41374">
        <ele>416</ele>
        <time>2022-05-21 03:37:23</time>
      </trkpt>
      <trkpt lat="41.96831" lon="2.41379">
        <ele>416</ele>
        <time>2022-05-21 03:37:24</time>
      </trkpt>
      <trkpt lat="41.96833" lon="2.41386">
        <ele>416</ele>
        <time>2022-05-21 03:37:25</time>
      </trkpt>
      <trkpt lat="41.96834" lon="2.41392">
        <ele>416</ele>
        <time>2022-05-21 03:37:26</time>
      </trkpt>
      <trkpt lat="41.96836" lon="2.41397">
        <ele>416</ele>
        <time>2022-05-21 03:37:27</time>
      </trkpt>
      <trkpt lat="41.96839" lon="2.41401">
        <ele>416</ele>
        <time>2022-05-21 03:37:28</time>
      </trkpt>
      <trkpt lat="41.96842" lon="2.41404">
        <ele>416</ele>
        <time>2022-05-21 03:37:29</time>
      </trkpt>
      <trkpt lat="41.96845" lon="2.41404">
        <ele>416</ele>
        <time>2022-05-21 03:37:30</time>
      </trkpt>
      <trkpt lat="41.96849" lon="2.41403">
        <ele>416.2</ele>
        <time>2022-05-21 03:37:31</time>
      </trkpt>
      <trkpt lat="41.96854" lon="2.41401">
        <ele>416.2</ele>
        <time>2022-05-21 03:37:32</time>
      </trkpt>
      <trkpt lat="41.96858" lon="2.414">
        <ele>416.2</ele>
        <time>2022-05-21 03:37:33</time>
      </trkpt>
      <trkpt lat="41.96862" lon="2.41398">
        <ele>416.2</ele>
        <time>2022-05-21 03:37:34</time>
      </trkpt>
      <trkpt lat="41.96867" lon="2.41396">
        <ele>416.2</ele>
        <time>2022-05-21 03:37:35</time>
      </trkpt>
      <trkpt lat="41.9687" lon="2.41395">
        <ele>416.2</ele>
        <time>2022-05-21 03:37:36</time>
      </trkpt>
      <trkpt lat="41.96874" lon="2.41393">
        <ele>416.2</ele>
        <time>2022-05-21 03:37:37</time>
      </trkpt>
      <trkpt lat="41.96879" lon="2.4139">
        <ele>416.4</ele>
        <time>2022-05-21 03:37:38</time>
      </trkpt>
      <trkpt lat="41.96882" lon="2.41388">
        <ele>416.4</ele>
        <time>2022-05-21 03:37:39</time>
      </trkpt>
      <trkpt lat="41.96885" lon="2.41386">
        <ele>416.6</ele>
        <time>2022-05-21 03:37:40</time>
      </trkpt>
      <trkpt lat="41.96888" lon="2.41384">
        <ele>417</ele>
        <time>2022-05-21 03:37:41</time>
      </trkpt>
      <trkpt lat="41.9689" lon="2.41382">
        <ele>417.2</ele>
        <time>2022-05-21 03:37:42</time>
      </trkpt>
      <trkpt lat="41.96892" lon="2.4138">
        <ele>417.6</ele>
        <time>2022-05-21 03:37:43</time>
      </trkpt>
      <trkpt lat="41.96894" lon="2.41379">
        <ele>417.8</ele>
        <time>2022-05-21 03:37:44</time>
      </trkpt>
      <trkpt lat="41.96896" lon="2.41378">
        <ele>418</ele>
        <time>2022-05-21 03:37:45</time>
      </trkpt>
      <trkpt lat="41.96899" lon="2.41377">
        <ele>418.4</ele>
        <time>2022-05-21 03:37:46</time>
      </trkpt>
      <trkpt lat="41.96901" lon="2.41376">
        <ele>418.6</ele>
        <time>2022-05-21 03:37:47</time>
      </trkpt>
      <trkpt lat="41.96903" lon="2.41375">
        <ele>418.8</ele>
        <time>2022-05-21 03:37:48</time>
      </trkpt>
      <trkpt lat="41.96905" lon="2.41375">
        <ele>419.2</ele>
        <time>2022-05-21 03:37:49</time>
      </trkpt>
      <trkpt lat="41.96907" lon="2.41376">
        <ele>419.4</ele>
        <time>2022-05-21 03:37:50</time>
      </trkpt>
      <trkpt lat="41.96909" lon="2.41376">
        <ele>419.6</ele>
        <time>2022-05-21 03:37:51</time>
      </trkpt>
      <trkpt lat="41.96911" lon="2.41376">
        <ele>420</ele>
        <time>2022-05-21 03:37:52</time>
      </trkpt>
      <trkpt lat="41.96913" lon="2.41376">
        <ele>420.2</ele>
        <time>2022-05-21 03:37:53</time>
      </trkpt>
      <trkpt lat="41.96915" lon="2.41376">
        <ele>420.4</ele>
        <time>2022-05-21 03:37:54</time>
      </trkpt>
      <trkpt lat="41.96917" lon="2.41376">
        <ele>420.6</ele>
        <time>2022-05-21 03:37:55</time>
      </trkpt>
      <trkpt lat="41.96918" lon="2.41376">
        <ele>420.8</ele>
        <time>2022-05-21 03:37:56</time>
      </trkpt>
      <trkpt lat="41.9692" lon="2.41377">
        <ele>421</ele>
        <time>2022-05-21 03:37:57</time>
      </trkpt>
      <trkpt lat="41.96922" lon="2.41378">
        <ele>421.2</ele>
        <time>2022-05-21 03:37:58</time>
      </trkpt>
      <trkpt lat="41.96923" lon="2.41379">
        <ele>421.4</ele>
        <time>2022-05-21 03:37:59</time>
      </trkpt>
      <trkpt lat="41.96925" lon="2.4138">
        <ele>421.6</ele>
        <time>2022-05-21 03:38:00</time>
      </trkpt>
      <trkpt lat="41.96927" lon="2.41381">
        <ele>421.8</ele>
        <time>2022-05-21 03:38:01</time>
      </trkpt>
      <trkpt lat="41.96929" lon="2.41382">
        <ele>422</ele>
        <time>2022-05-21 03:38:02</time>
      </trkpt>
      <trkpt lat="41.96931" lon="2.41384">
        <ele>422</ele>
        <time>2022-05-21 03:38:03</time>
      </trkpt>
      <trkpt lat="41.96934" lon="2.41385">
        <ele>422.2</ele>
        <time>2022-05-21 03:38:04</time>
      </trkpt>
      <trkpt lat="41.96937" lon="2.41386">
        <ele>422.4</ele>
        <time>2022-05-21 03:38:05</time>
      </trkpt>
      <trkpt lat="41.96939" lon="2.41386">
        <ele>422.6</ele>
        <time>2022-05-21 03:38:06</time>
      </trkpt>
      <trkpt lat="41.96942" lon="2.41386">
        <ele>422.6</ele>
        <time>2022-05-21 03:38:07</time>
      </trkpt>
      <trkpt lat="41.96944" lon="2.41387">
        <ele>422.8</ele>
        <time>2022-05-21 03:38:08</time>
      </trkpt>
      <trkpt lat="41.96946" lon="2.41389">
        <ele>423</ele>
        <time>2022-05-21 03:38:09</time>
      </trkpt>
      <trkpt lat="41.96949" lon="2.4139">
        <ele>423.2</ele>
        <time>2022-05-21 03:38:10</time>
      </trkpt>
      <trkpt lat="41.96951" lon="2.41392">
        <ele>423.4</ele>
        <time>2022-05-21 03:38:11</time>
      </trkpt>
      <trkpt lat="41.96953" lon="2.41394">
        <ele>423.6</ele>
        <time>2022-05-21 03:38:12</time>
      </trkpt>
      <trkpt lat="41.96955" lon="2.41396">
        <ele>423.6</ele>
        <time>2022-05-21 03:38:13</time>
      </trkpt>
      <trkpt lat="41.96957" lon="2.41398">
        <ele>423.8</ele>
        <time>2022-05-21 03:38:14</time>
      </trkpt>
      <trkpt lat="41.96959" lon="2.414">
        <ele>424</ele>
        <time>2022-05-21 03:38:15</time>
      </trkpt>
      <trkpt lat="41.96961" lon="2.41402">
        <ele>424.2</ele>
        <time>2022-05-21 03:38:16</time>
      </trkpt>
      <trkpt lat="41.96963" lon="2.41404">
        <ele>424.4</ele>
        <time>2022-05-21 03:38:17</time>
      </trkpt>
      <trkpt lat="41.96964" lon="2.41406">
        <ele>424.4</ele>
        <time>2022-05-21 03:38:18</time>
      </trkpt>
      <trkpt lat="41.96966" lon="2.41409">
        <ele>424.6</ele>
        <time>2022-05-21 03:38:19</time>
      </trkpt>
      <trkpt lat="41.96968" lon="2.41411">
        <ele>424.8</ele>
        <time>2022-05-21 03:38:20</time>
      </trkpt>
      <trkpt lat="41.96969" lon="2.41413">
        <ele>424.8</ele>
        <time>2022-05-21 03:38:21</time>
      </trkpt>
      <trkpt lat="41.96971" lon="2.41417">
        <ele>425</ele>
        <time>2022-05-21 03:38:22</time>
      </trkpt>
      <trkpt lat="41.96973" lon="2.41419">
        <ele>425.2</ele>
        <time>2022-05-21 03:38:23</time>
      </trkpt>
      <trkpt lat="41.96974" lon="2.41422">
        <ele>425.4</ele>
        <time>2022-05-21 03:38:24</time>
      </trkpt>
      <trkpt lat="41.96975" lon="2.41425">
        <ele>425.4</ele>
        <time>2022-05-21 03:38:25</time>
      </trkpt>
      <trkpt lat="41.96976" lon="2.41429">
        <ele>425.6</ele>
        <time>2022-05-21 03:38:26</time>
      </trkpt>
      <trkpt lat="41.96978" lon="2.41432">
        <ele>425.6</ele>
        <time>2022-05-21 03:38:27</time>
      </trkpt>
      <trkpt lat="41.96978" lon="2.41435">
        <ele>425.8</ele>
        <time>2022-05-21 03:38:28</time>
      </trkpt>
      <trkpt lat="41.96979" lon="2.41439">
        <ele>425.8</ele>
        <time>2022-05-21 03:38:29</time>
      </trkpt>
      <trkpt lat="41.9698" lon="2.41442">
        <ele>425.8</ele>
        <time>2022-05-21 03:38:30</time>
      </trkpt>
      <trkpt lat="41.96981" lon="2.41445">
        <ele>426</ele>
        <time>2022-05-21 03:38:31</time>
      </trkpt>
      <trkpt lat="41.96982" lon="2.41449">
        <ele>426</ele>
        <time>2022-05-21 03:38:32</time>
      </trkpt>
      <trkpt lat="41.96983" lon="2.41452">
        <ele>426.2</ele>
        <time>2022-05-21 03:38:33</time>
      </trkpt>
      <trkpt lat="41.96985" lon="2.41455">
        <ele>426.2</ele>
        <time>2022-05-21 03:38:34</time>
      </trkpt>
      <trkpt lat="41.96987" lon="2.41457">
        <ele>426.4</ele>
        <time>2022-05-21 03:38:35</time>
      </trkpt>
      <trkpt lat="41.96989" lon="2.4146">
        <ele>426.4</ele>
        <time>2022-05-21 03:38:36</time>
      </trkpt>
      <trkpt lat="41.96991" lon="2.41463">
        <ele>426.6</ele>
        <time>2022-05-21 03:38:37</time>
      </trkpt>
      <trkpt lat="41.96992" lon="2.41466">
        <ele>426.6</ele>
        <time>2022-05-21 03:38:38</time>
      </trkpt>
      <trkpt lat="41.96994" lon="2.41469">
        <ele>426.6</ele>
        <time>2022-05-21 03:38:39</time>
      </trkpt>
      <trkpt lat="41.96997" lon="2.41473">
        <ele>426.8</ele>
        <time>2022-05-21 03:38:40</time>
      </trkpt>
      <trkpt lat="41.96999" lon="2.41475">
        <ele>426.8</ele>
        <time>2022-05-21 03:38:41</time>
      </trkpt>
      <trkpt lat="41.97002" lon="2.41478">
        <ele>427</ele>
        <time>2022-05-21 03:38:42</time>
      </trkpt>
      <trkpt lat="41.97005" lon="2.41481">
        <ele>427</ele>
        <time>2022-05-21 03:38:43</time>
      </trkpt>
      <trkpt lat="41.97007" lon="2.41485">
        <ele>427</ele>
        <time>2022-05-21 03:38:44</time>
      </trkpt>
      <trkpt lat="41.9701" lon="2.41488">
        <ele>427.2</ele>
        <time>2022-05-21 03:38:45</time>
      </trkpt>
      <trkpt lat="41.97013" lon="2.41491">
        <ele>427.2</ele>
        <time>2022-05-21 03:38:46</time>
      </trkpt>
      <trkpt lat="41.97017" lon="2.41495">
        <ele>427.2</ele>
        <time>2022-05-21 03:38:47</time>
      </trkpt>
      <trkpt lat="41.9702" lon="2.41499">
        <ele>427.4</ele>
        <time>2022-05-21 03:38:48</time>
      </trkpt>
      <trkpt lat="41.97022" lon="2.41504">
        <ele>427.4</ele>
        <time>2022-05-21 03:38:49</time>
      </trkpt>
      <trkpt lat="41.97024" lon="2.41509">
        <ele>427.4</ele>
        <time>2022-05-21 03:38:50</time>
      </trkpt>
      <trkpt lat="41.97025" lon="2.41513">
        <ele>427.4</ele>
        <time>2022-05-21 03:38:51</time>
      </trkpt>
      <trkpt lat="41.97027" lon="2.41517">
        <ele>427.6</ele>
        <time>2022-05-21 03:38:52</time>
      </trkpt>
      <trkpt lat="41.97029" lon="2.41521">
        <ele>427.6</ele>
        <time>2022-05-21 03:38:53</time>
      </trkpt>
      <trkpt lat="41.97031" lon="2.41525">
        <ele>427.6</ele>
        <time>2022-05-21 03:38:54</time>
      </trkpt>
      <trkpt lat="41.97033" lon="2.41529">
        <ele>427.8</ele>
        <time>2022-05-21 03:38:55</time>
      </trkpt>
      <trkpt lat="41.97034" lon="2.41533">
        <ele>428</ele>
        <time>2022-05-21 03:38:56</time>
      </trkpt>
      <trkpt lat="41.97036" lon="2.41537">
        <ele>428</ele>
        <time>2022-05-21 03:38:57</time>
      </trkpt>
      <trkpt lat="41.97038" lon="2.41541">
        <ele>428.2</ele>
        <time>2022-05-21 03:38:58</time>
      </trkpt>
      <trkpt lat="41.9704" lon="2.41545">
        <ele>428.2</ele>
        <time>2022-05-21 03:38:59</time>
      </trkpt>
      <trkpt lat="41.97042" lon="2.41549">
        <ele>428.4</ele>
        <time>2022-05-21 03:39:00</time>
      </trkpt>
      <trkpt lat="41.97043" lon="2.41553">
        <ele>428.4</ele>
        <time>2022-05-21 03:39:01</time>
      </trkpt>
      <trkpt lat="41.97046" lon="2.41556">
        <ele>428.6</ele>
        <time>2022-05-21 03:39:02</time>
      </trkpt>
      <trkpt lat="41.97048" lon="2.41559">
        <ele>428.8</ele>
        <time>2022-05-21 03:39:03</time>
      </trkpt>
      <trkpt lat="41.9705" lon="2.41561">
        <ele>429</ele>
        <time>2022-05-21 03:39:04</time>
      </trkpt>
      <trkpt lat="41.97052" lon="2.41564">
        <ele>429.2</ele>
        <time>2022-05-21 03:39:05</time>
      </trkpt>
      <trkpt lat="41.97055" lon="2.41567">
        <ele>429.4</ele>
        <time>2022-05-21 03:39:06</time>
      </trkpt>
      <trkpt lat="41.97058" lon="2.41569">
        <ele>429.6</ele>
        <time>2022-05-21 03:39:07</time>
      </trkpt>
      <trkpt lat="41.97062" lon="2.4157">
        <ele>429.8</ele>
        <time>2022-05-21 03:39:08</time>
      </trkpt>
      <trkpt lat="41.97066" lon="2.4157">
        <ele>430</ele>
        <time>2022-05-21 03:39:09</time>
      </trkpt>
      <trkpt lat="41.97069" lon="2.4157">
        <ele>430.2</ele>
        <time>2022-05-21 03:39:10</time>
      </trkpt>
      <trkpt lat="41.97072" lon="2.41568">
        <ele>430.4</ele>
        <time>2022-05-21 03:39:11</time>
      </trkpt>
      <trkpt lat="41.97075" lon="2.41567">
        <ele>430.6</ele>
        <time>2022-05-21 03:39:12</time>
      </trkpt>
      <trkpt lat="41.97076" lon="2.41564">
        <ele>430.8</ele>
        <time>2022-05-21 03:39:13</time>
      </trkpt>
      <trkpt lat="41.97077" lon="2.41562">
        <ele>431</ele>
        <time>2022-05-21 03:39:14</time>
      </trkpt>
      <trkpt lat="41.97078" lon="2.41559">
        <ele>431.2</ele>
        <time>2022-05-21 03:39:15</time>
      </trkpt>
      <trkpt lat="41.97079" lon="2.41556">
        <ele>431.6</ele>
        <time>2022-05-21 03:39:16</time>
      </trkpt>
      <trkpt lat="41.9708" lon="2.41553">
        <ele>431.8</ele>
        <time>2022-05-21 03:39:17</time>
      </trkpt>
      <trkpt lat="41.97081" lon="2.41549">
        <ele>432</ele>
        <time>2022-05-21 03:39:18</time>
      </trkpt>
      <trkpt lat="41.97081" lon="2.41546">
        <ele>432.2</ele>
        <time>2022-05-21 03:39:19</time>
      </trkpt>
      <trkpt lat="41.97082" lon="2.41544">
        <ele>432.4</ele>
        <time>2022-05-21 03:39:20</time>
      </trkpt>
      <trkpt lat="41.97083" lon="2.41541">
        <ele>432.6</ele>
        <time>2022-05-21 03:39:21</time>
      </trkpt>
      <trkpt lat="41.97084" lon="2.41539">
        <ele>432.8</ele>
        <time>2022-05-21 03:39:22</time>
      </trkpt>
      <trkpt lat="41.97086" lon="2.41536">
        <ele>433</ele>
        <time>2022-05-21 03:39:23</time>
      </trkpt>
      <trkpt lat="41.97086" lon="2.41533">
        <ele>433.2</ele>
        <time>2022-05-21 03:39:24</time>
      </trkpt>
      <trkpt lat="41.97087" lon="2.4153">
        <ele>433.4</ele>
        <time>2022-05-21 03:39:25</time>
      </trkpt>
      <trkpt lat="41.97088" lon="2.41528">
        <ele>433.6</ele>
        <time>2022-05-21 03:39:26</time>
      </trkpt>
      <trkpt lat="41.97089" lon="2.41525">
        <ele>433.8</ele>
        <time>2022-05-21 03:39:27</time>
      </trkpt>
      <trkpt lat="41.9709" lon="2.41523">
        <ele>434</ele>
        <time>2022-05-21 03:39:28</time>
      </trkpt>
      <trkpt lat="41.97091" lon="2.4152">
        <ele>434.2</ele>
        <time>2022-05-21 03:39:29</time>
      </trkpt>
      <trkpt lat="41.97092" lon="2.41517">
        <ele>434.4</ele>
        <time>2022-05-21 03:39:30</time>
      </trkpt>
      <trkpt lat="41.97093" lon="2.41515">
        <ele>434.6</ele>
        <time>2022-05-21 03:39:31</time>
      </trkpt>
      <trkpt lat="41.97094" lon="2.41512">
        <ele>434.8</ele>
        <time>2022-05-21 03:39:32</time>
      </trkpt>
      <trkpt lat="41.97095" lon="2.4151">
        <ele>435</ele>
        <time>2022-05-21 03:39:33</time>
      </trkpt>
      <trkpt lat="41.97096" lon="2.41507">
        <ele>435.2</ele>
        <time>2022-05-21 03:39:34</time>
      </trkpt>
      <trkpt lat="41.97096" lon="2.41503">
        <ele>435.4</ele>
        <time>2022-05-21 03:39:35</time>
      </trkpt>
      <trkpt lat="41.97097" lon="2.41499">
        <ele>435.6</ele>
        <time>2022-05-21 03:39:36</time>
      </trkpt>
      <trkpt lat="41.97098" lon="2.41496">
        <ele>435.8</ele>
        <time>2022-05-21 03:39:37</time>
      </trkpt>
      <trkpt lat="41.97099" lon="2.41493">
        <ele>436</ele>
        <time>2022-05-21 03:39:38</time>
      </trkpt>
      <trkpt lat="41.97101" lon="2.41491">
        <ele>436.2</ele>
        <time>2022-05-21 03:39:39</time>
      </trkpt>
      <trkpt lat="41.97103" lon="2.41489">
        <ele>436.4</ele>
        <time>2022-05-21 03:39:40</time>
      </trkpt>
      <trkpt lat="41.97105" lon="2.41487">
        <ele>436.6</ele>
        <time>2022-05-21 03:39:41</time>
      </trkpt>
      <trkpt lat="41.97107" lon="2.41485">
        <ele>436.8</ele>
        <time>2022-05-21 03:39:42</time>
      </trkpt>
      <trkpt lat="41.97108" lon="2.41483">
        <ele>437</ele>
        <time>2022-05-21 03:39:43</time>
      </trkpt>
      <trkpt lat="41.9711" lon="2.41482">
        <ele>437.2</ele>
        <time>2022-05-21 03:39:44</time>
      </trkpt>
      <trkpt lat="41.97112" lon="2.41481">
        <ele>437.4</ele>
        <time>2022-05-21 03:39:45</time>
      </trkpt>
      <trkpt lat="41.97114" lon="2.4148">
        <ele>437.6</ele>
        <time>2022-05-21 03:39:46</time>
      </trkpt>
      <trkpt lat="41.97116" lon="2.4148">
        <ele>437.8</ele>
        <time>2022-05-21 03:39:47</time>
      </trkpt>
      <trkpt lat="41.97118" lon="2.41479">
        <ele>438</ele>
        <time>2022-05-21 03:39:48</time>
      </trkpt>
      <trkpt lat="41.9712" lon="2.41479">
        <ele>438.2</ele>
        <time>2022-05-21 03:39:49</time>
      </trkpt>
      <trkpt lat="41.97122" lon="2.41479">
        <ele>438.4</ele>
        <time>2022-05-21 03:39:50</time>
      </trkpt>
      <trkpt lat="41.97124" lon="2.41479">
        <ele>438.6</ele>
        <time>2022-05-21 03:39:51</time>
      </trkpt>
      <trkpt lat="41.97126" lon="2.41479">
        <ele>438.8</ele>
        <time>2022-05-21 03:39:52</time>
      </trkpt>
      <trkpt lat="41.97128" lon="2.41479">
        <ele>439</ele>
        <time>2022-05-21 03:39:53</time>
      </trkpt>
      <trkpt lat="41.97129" lon="2.4148">
        <ele>439.2</ele>
        <time>2022-05-21 03:39:54</time>
      </trkpt>
      <trkpt lat="41.9713" lon="2.41481">
        <ele>439.6</ele>
        <time>2022-05-21 03:39:55</time>
      </trkpt>
      <trkpt lat="41.97132" lon="2.41482">
        <ele>439.8</ele>
        <time>2022-05-21 03:39:56</time>
      </trkpt>
      <trkpt lat="41.97133" lon="2.41482">
        <ele>440</ele>
        <time>2022-05-21 03:39:57</time>
      </trkpt>
      <trkpt lat="41.97135" lon="2.41482">
        <ele>440.2</ele>
        <time>2022-05-21 03:39:58</time>
      </trkpt>
      <trkpt lat="41.97136" lon="2.41483">
        <ele>440.4</ele>
        <time>2022-05-21 03:39:59</time>
      </trkpt>
      <trkpt lat="41.97137" lon="2.41483">
        <ele>440.6</ele>
        <time>2022-05-21 03:40:00</time>
      </trkpt>
      <trkpt lat="41.97139" lon="2.41484">
        <ele>440.8</ele>
        <time>2022-05-21 03:40:01</time>
      </trkpt>
      <trkpt lat="41.9714" lon="2.41484">
        <ele>441</ele>
        <time>2022-05-21 03:40:02</time>
      </trkpt>
      <trkpt lat="41.97142" lon="2.41484">
        <ele>441.2</ele>
        <time>2022-05-21 03:40:03</time>
      </trkpt>
      <trkpt lat="41.97144" lon="2.41485">
        <ele>441.4</ele>
        <time>2022-05-21 03:40:04</time>
      </trkpt>
      <trkpt lat="41.97145" lon="2.41486">
        <ele>441.6</ele>
        <time>2022-05-21 03:40:05</time>
      </trkpt>
      <trkpt lat="41.97147" lon="2.41487">
        <ele>441.8</ele>
        <time>2022-05-21 03:40:06</time>
      </trkpt>
      <trkpt lat="41.97149" lon="2.41487">
        <ele>442</ele>
        <time>2022-05-21 03:40:07</time>
      </trkpt>
      <trkpt lat="41.9715" lon="2.41488">
        <ele>442.2</ele>
        <time>2022-05-21 03:40:08</time>
      </trkpt>
      <trkpt lat="41.97152" lon="2.41489">
        <ele>442.4</ele>
        <time>2022-05-21 03:40:09</time>
      </trkpt>
      <trkpt lat="41.97153" lon="2.4149">
        <ele>442.6</ele>
        <time>2022-05-21 03:40:10</time>
      </trkpt>
      <trkpt lat="41.97155" lon="2.4149">
        <ele>442.8</ele>
        <time>2022-05-21 03:40:11</time>
      </trkpt>
      <trkpt lat="41.97157" lon="2.41491">
        <ele>443</ele>
        <time>2022-05-21 03:40:12</time>
      </trkpt>
      <trkpt lat="41.97159" lon="2.41491">
        <ele>443.2</ele>
        <time>2022-05-21 03:40:13</time>
      </trkpt>
      <trkpt lat="41.97161" lon="2.41492">
        <ele>443.4</ele>
        <time>2022-05-21 03:40:14</time>
      </trkpt>
      <trkpt lat="41.97162" lon="2.41492">
        <ele>443.6</ele>
        <time>2022-05-21 03:40:15</time>
      </trkpt>
      <trkpt lat="41.97164" lon="2.41493">
        <ele>443.8</ele>
        <time>2022-05-21 03:40:16</time>
      </trkpt>
      <trkpt lat="41.97166" lon="2.41494">
        <ele>444</ele>
        <time>2022-05-21 03:40:17</time>
      </trkpt>
      <trkpt lat="41.97168" lon="2.41494">
        <ele>444.2</ele>
        <time>2022-05-21 03:40:18</time>
      </trkpt>
      <trkpt lat="41.97169" lon="2.41495">
        <ele>444.4</ele>
        <time>2022-05-21 03:40:19</time>
      </trkpt>
      <trkpt lat="41.9717" lon="2.41495">
        <ele>444.6</ele>
        <time>2022-05-21 03:40:20</time>
      </trkpt>
      <trkpt lat="41.97172" lon="2.41495">
        <ele>444.8</ele>
        <time>2022-05-21 03:40:21</time>
      </trkpt>
      <trkpt lat="41.97173" lon="2.41496">
        <ele>445</ele>
        <time>2022-05-21 03:40:22</time>
      </trkpt>
      <trkpt lat="41.97175" lon="2.41497">
        <ele>445.2</ele>
        <time>2022-05-21 03:40:23</time>
      </trkpt>
      <trkpt lat="41.97176" lon="2.41498">
        <ele>445.4</ele>
        <time>2022-05-21 03:40:24</time>
      </trkpt>
      <trkpt lat="41.97178" lon="2.415">
        <ele>445.6</ele>
        <time>2022-05-21 03:40:25</time>
      </trkpt>
      <trkpt lat="41.97179" lon="2.41501">
        <ele>445.8</ele>
        <time>2022-05-21 03:40:26</time>
      </trkpt>
      <trkpt lat="41.97181" lon="2.41503">
        <ele>446</ele>
        <time>2022-05-21 03:40:27</time>
      </trkpt>
      <trkpt lat="41.97182" lon="2.41504">
        <ele>446.2</ele>
        <time>2022-05-21 03:40:28</time>
      </trkpt>
      <trkpt lat="41.97184" lon="2.41506">
        <ele>446.4</ele>
        <time>2022-05-21 03:40:29</time>
      </trkpt>
      <trkpt lat="41.97185" lon="2.41507">
        <ele>446.6</ele>
        <time>2022-05-21 03:40:30</time>
      </trkpt>
      <trkpt lat="41.97186" lon="2.41508">
        <ele>446.8</ele>
        <time>2022-05-21 03:40:31</time>
      </trkpt>
      <trkpt lat="41.97188" lon="2.41509">
        <ele>447</ele>
        <time>2022-05-21 03:40:32</time>
      </trkpt>
      <trkpt lat="41.97189" lon="2.4151">
        <ele>447.2</ele>
        <time>2022-05-21 03:40:33</time>
      </trkpt>
      <trkpt lat="41.9719" lon="2.41511">
        <ele>447.4</ele>
        <time>2022-05-21 03:40:34</time>
      </trkpt>
      <trkpt lat="41.97192" lon="2.41512">
        <ele>447.6</ele>
        <time>2022-05-21 03:40:35</time>
      </trkpt>
      <trkpt lat="41.97194" lon="2.41514">
        <ele>447.8</ele>
        <time>2022-05-21 03:40:36</time>
      </trkpt>
      <trkpt lat="41.97195" lon="2.41515">
        <ele>448</ele>
        <time>2022-05-21 03:40:37</time>
      </trkpt>
      <trkpt lat="41.97197" lon="2.41517">
        <ele>448.2</ele>
        <time>2022-05-21 03:40:38</time>
      </trkpt>
      <trkpt lat="41.97198" lon="2.41519">
        <ele>448.4</ele>
        <time>2022-05-21 03:40:39</time>
      </trkpt>
      <trkpt lat="41.97199" lon="2.41521">
        <ele>448.6</ele>
        <time>2022-05-21 03:40:40</time>
      </trkpt>
      <trkpt lat="41.972" lon="2.41522">
        <ele>448.8</ele>
        <time>2022-05-21 03:40:41</time>
      </trkpt>
      <trkpt lat="41.97202" lon="2.41524">
        <ele>449</ele>
        <time>2022-05-21 03:40:42</time>
      </trkpt>
      <trkpt lat="41.97202" lon="2.41525">
        <ele>449.2</ele>
        <time>2022-05-21 03:40:43</time>
      </trkpt>
      <trkpt lat="41.97204" lon="2.41527">
        <ele>449.4</ele>
        <time>2022-05-21 03:40:44</time>
      </trkpt>
      <trkpt lat="41.97205" lon="2.41528">
        <ele>449.6</ele>
        <time>2022-05-21 03:40:45</time>
      </trkpt>
      <trkpt lat="41.97206" lon="2.4153">
        <ele>449.8</ele>
        <time>2022-05-21 03:40:46</time>
      </trkpt>
      <trkpt lat="41.97207" lon="2.41531">
        <ele>450</ele>
        <time>2022-05-21 03:40:47</time>
      </trkpt>
      <trkpt lat="41.97208" lon="2.41533">
        <ele>450.2</ele>
        <time>2022-05-21 03:40:48</time>
      </trkpt>
      <trkpt lat="41.9721" lon="2.41534">
        <ele>450.4</ele>
        <time>2022-05-21 03:40:49</time>
      </trkpt>
      <trkpt lat="41.9721" lon="2.41535">
        <ele>450.6</ele>
        <time>2022-05-21 03:40:50</time>
      </trkpt>
      <trkpt lat="41.97211" lon="2.41536">
        <ele>450.8</ele>
        <time>2022-05-21 03:40:51</time>
      </trkpt>
      <trkpt lat="41.97213" lon="2.41537">
        <ele>451</ele>
        <time>2022-05-21 03:40:52</time>
      </trkpt>
      <trkpt lat="41.97215" lon="2.41538">
        <ele>451.2</ele>
        <time>2022-05-21 03:40:53</time>
      </trkpt>
      <trkpt lat="41.97216" lon="2.41539">
        <ele>451.4</ele>
        <time>2022-05-21 03:40:54</time>
      </trkpt>
      <trkpt lat="41.97217" lon="2.4154">
        <ele>451.6</ele>
        <time>2022-05-21 03:40:55</time>
      </trkpt>
      <trkpt lat="41.97219" lon="2.41541">
        <ele>451.8</ele>
        <time>2022-05-21 03:40:56</time>
      </trkpt>
      <trkpt lat="41.97221" lon="2.41542">
        <ele>452</ele>
        <time>2022-05-21 03:40:57</time>
      </trkpt>
      <trkpt lat="41.97223" lon="2.41543">
        <ele>452.2</ele>
        <time>2022-05-21 03:40:58</time>
      </trkpt>
      <trkpt lat="41.97224" lon="2.41544">
        <ele>452.4</ele>
        <time>2022-05-21 03:40:59</time>
      </trkpt>
      <trkpt lat="41.97226" lon="2.41545">
        <ele>452.6</ele>
        <time>2022-05-21 03:41:00</time>
      </trkpt>
      <trkpt lat="41.97228" lon="2.41545">
        <ele>452.8</ele>
        <time>2022-05-21 03:41:01</time>
      </trkpt>
      <trkpt lat="41.9723" lon="2.41545">
        <ele>453</ele>
        <time>2022-05-21 03:41:02</time>
      </trkpt>
      <trkpt lat="41.97232" lon="2.41545">
        <ele>453.2</ele>
        <time>2022-05-21 03:41:03</time>
      </trkpt>
      <trkpt lat="41.97234" lon="2.41545">
        <ele>453.4</ele>
        <time>2022-05-21 03:41:04</time>
      </trkpt>
      <trkpt lat="41.97235" lon="2.41544">
        <ele>453.6</ele>
        <time>2022-05-21 03:41:05</time>
      </trkpt>
      <trkpt lat="41.97237" lon="2.41543">
        <ele>453.8</ele>
        <time>2022-05-21 03:41:06</time>
      </trkpt>
      <trkpt lat="41.97239" lon="2.41541">
        <ele>454</ele>
        <time>2022-05-21 03:41:07</time>
      </trkpt>
      <trkpt lat="41.9724" lon="2.41539">
        <ele>454.2</ele>
        <time>2022-05-21 03:41:08</time>
      </trkpt>
      <trkpt lat="41.97241" lon="2.41538">
        <ele>454.6</ele>
        <time>2022-05-21 03:41:09</time>
      </trkpt>
      <trkpt lat="41.97242" lon="2.41537">
        <ele>454.8</ele>
        <time>2022-05-21 03:41:10</time>
      </trkpt>
      <trkpt lat="41.97244" lon="2.41535">
        <ele>455</ele>
        <time>2022-05-21 03:41:11</time>
      </trkpt>
      <trkpt lat="41.97245" lon="2.41534">
        <ele>455.2</ele>
        <time>2022-05-21 03:41:12</time>
      </trkpt>
      <trkpt lat="41.97247" lon="2.41533">
        <ele>455.4</ele>
        <time>2022-05-21 03:41:13</time>
      </trkpt>
      <trkpt lat="41.97247" lon="2.4153">
        <ele>455.6</ele>
        <time>2022-05-21 03:41:14</time>
      </trkpt>
      <trkpt lat="41.97248" lon="2.41528">
        <ele>455.8</ele>
        <time>2022-05-21 03:41:15</time>
      </trkpt>
      <trkpt lat="41.97249" lon="2.41526">
        <ele>456</ele>
        <time>2022-05-21 03:41:16</time>
      </trkpt>
      <trkpt lat="41.9725" lon="2.41524">
        <ele>456.2</ele>
        <time>2022-05-21 03:41:17</time>
      </trkpt>
      <trkpt lat="41.97252" lon="2.41522">
        <ele>456.4</ele>
        <time>2022-05-21 03:41:18</time>
      </trkpt>
      <trkpt lat="41.97252" lon="2.41519">
        <ele>456.6</ele>
        <time>2022-05-21 03:41:19</time>
      </trkpt>
      <trkpt lat="41.97252" lon="2.41517">
        <ele>456.8</ele>
        <time>2022-05-21 03:41:20</time>
      </trkpt>
      <trkpt lat="41.97253" lon="2.41515">
        <ele>457</ele>
        <time>2022-05-21 03:41:21</time>
      </trkpt>
      <trkpt lat="41.97254" lon="2.41513">
        <ele>457.2</ele>
        <time>2022-05-21 03:41:22</time>
      </trkpt>
      <trkpt lat="41.97255" lon="2.4151">
        <ele>457.4</ele>
        <time>2022-05-21 03:41:23</time>
      </trkpt>
      <trkpt lat="41.97255" lon="2.41508">
        <ele>457.4</ele>
        <time>2022-05-21 03:41:24</time>
      </trkpt>
      <trkpt lat="41.97255" lon="2.41505">
        <ele>457.6</ele>
        <time>2022-05-21 03:41:25</time>
      </trkpt>
      <trkpt lat="41.97256" lon="2.41502">
        <ele>457.8</ele>
        <time>2022-05-21 03:41:26</time>
      </trkpt>
      <trkpt lat="41.97256" lon="2.41498">
        <ele>457.8</ele>
        <time>2022-05-21 03:41:27</time>
      </trkpt>
      <trkpt lat="41.97257" lon="2.41495">
        <ele>457.8</ele>
        <time>2022-05-21 03:41:28</time>
      </trkpt>
      <trkpt lat="41.97258" lon="2.41491">
        <ele>457.8</ele>
        <time>2022-05-21 03:41:29</time>
      </trkpt>
      <trkpt lat="41.97259" lon="2.41487">
        <ele>457.8</ele>
        <time>2022-05-21 03:41:30</time>
      </trkpt>
      <trkpt lat="41.9726" lon="2.41483">
        <ele>457.8</ele>
        <time>2022-05-21 03:41:31</time>
      </trkpt>
      <trkpt lat="41.97261" lon="2.41479">
        <ele>457.8</ele>
        <time>2022-05-21 03:41:32</time>
      </trkpt>
      <trkpt lat="41.97263" lon="2.41474">
        <ele>457.6</ele>
        <time>2022-05-21 03:41:33</time>
      </trkpt>
      <trkpt lat="41.97265" lon="2.41469">
        <ele>457.6</ele>
        <time>2022-05-21 03:41:34</time>
      </trkpt>
      <trkpt lat="41.97268" lon="2.41465">
        <ele>457.4</ele>
        <time>2022-05-21 03:41:35</time>
      </trkpt>
      <trkpt lat="41.97272" lon="2.41462">
        <ele>457.2</ele>
        <time>2022-05-21 03:41:36</time>
      </trkpt>
      <trkpt lat="41.97277" lon="2.41461">
        <ele>456.8</ele>
        <time>2022-05-21 03:41:37</time>
      </trkpt>
      <trkpt lat="41.97282" lon="2.41459">
        <ele>456.6</ele>
        <time>2022-05-21 03:41:38</time>
      </trkpt>
      <trkpt lat="41.97287" lon="2.41458">
        <ele>456.4</ele>
        <time>2022-05-21 03:41:39</time>
      </trkpt>
      <trkpt lat="41.97293" lon="2.41458">
        <ele>456</ele>
        <time>2022-05-21 03:41:40</time>
      </trkpt>
      <trkpt lat="41.97299" lon="2.41459">
        <ele>455.8</ele>
        <time>2022-05-21 03:41:41</time>
      </trkpt>
      <trkpt lat="41.97304" lon="2.41461">
        <ele>455.4</ele>
        <time>2022-05-21 03:41:42</time>
      </trkpt>
      <trkpt lat="41.97311" lon="2.41462">
        <ele>455.2</ele>
        <time>2022-05-21 03:41:43</time>
      </trkpt>
      <trkpt lat="41.97317" lon="2.41463">
        <ele>454.8</ele>
        <time>2022-05-21 03:41:44</time>
      </trkpt>
      <trkpt lat="41.97325" lon="2.41464">
        <ele>454.4</ele>
        <time>2022-05-21 03:41:45</time>
      </trkpt>
      <trkpt lat="41.97332" lon="2.41465">
        <ele>454.2</ele>
        <time>2022-05-21 03:41:46</time>
      </trkpt>
      <trkpt lat="41.97338" lon="2.41466">
        <ele>454</ele>
        <time>2022-05-21 03:41:47</time>
      </trkpt>
      <trkpt lat="41.97345" lon="2.41466">
        <ele>453.8</ele>
        <time>2022-05-21 03:41:48</time>
      </trkpt>
      <trkpt lat="41.97352" lon="2.41467">
        <ele>453.4</ele>
        <time>2022-05-21 03:41:49</time>
      </trkpt>
      <trkpt lat="41.97359" lon="2.41468">
        <ele>453.2</ele>
        <time>2022-05-21 03:41:50</time>
      </trkpt>
      <trkpt lat="41.97366" lon="2.41468">
        <ele>453</ele>
        <time>2022-05-21 03:41:51</time>
      </trkpt>
      <trkpt lat="41.97372" lon="2.4147">
        <ele>452.8</ele>
        <time>2022-05-21 03:41:52</time>
      </trkpt>
      <trkpt lat="41.97378" lon="2.41472">
        <ele>452.8</ele>
        <time>2022-05-21 03:41:53</time>
      </trkpt>
      <trkpt lat="41.97383" lon="2.41476">
        <ele>452.6</ele>
        <time>2022-05-21 03:41:54</time>
      </trkpt>
      <trkpt lat="41.97388" lon="2.41481">
        <ele>452.4</ele>
        <time>2022-05-21 03:41:55</time>
      </trkpt>
      <trkpt lat="41.97393" lon="2.41487">
        <ele>452.2</ele>
        <time>2022-05-21 03:41:56</time>
      </trkpt>
      <trkpt lat="41.97396" lon="2.41494">
        <ele>452.2</ele>
        <time>2022-05-21 03:41:57</time>
      </trkpt>
      <trkpt lat="41.97399" lon="2.415">
        <ele>452</ele>
        <time>2022-05-21 03:41:58</time>
      </trkpt>
      <trkpt lat="41.97402" lon="2.41508">
        <ele>451.8</ele>
        <time>2022-05-21 03:41:59</time>
      </trkpt>
      <trkpt lat="41.97404" lon="2.41515">
        <ele>451.6</ele>
        <time>2022-05-21 03:42:00</time>
      </trkpt>
      <trkpt lat="41.97407" lon="2.41522">
        <ele>451.6</ele>
        <time>2022-05-21 03:42:01</time>
      </trkpt>
      <trkpt lat="41.9741" lon="2.41531">
        <ele>451.4</ele>
        <time>2022-05-21 03:42:02</time>
      </trkpt>
      <trkpt lat="41.97412" lon="2.41538">
        <ele>451.2</ele>
        <time>2022-05-21 03:42:03</time>
      </trkpt>
      <trkpt lat="41.97416" lon="2.41545">
        <ele>451</ele>
        <time>2022-05-21 03:42:04</time>
      </trkpt>
      <trkpt lat="41.97419" lon="2.41552">
        <ele>450.8</ele>
        <time>2022-05-21 03:42:05</time>
      </trkpt>
      <trkpt lat="41.97423" lon="2.41559">
        <ele>450.8</ele>
        <time>2022-05-21 03:42:06</time>
      </trkpt>
      <trkpt lat="41.97426" lon="2.41565">
        <ele>450.6</ele>
        <time>2022-05-21 03:42:07</time>
      </trkpt>
      <trkpt lat="41.9743" lon="2.41571">
        <ele>450.4</ele>
        <time>2022-05-21 03:42:08</time>
      </trkpt>
      <trkpt lat="41.97435" lon="2.41578">
        <ele>450.2</ele>
        <time>2022-05-21 03:42:09</time>
      </trkpt>
      <trkpt lat="41.97439" lon="2.41584">
        <ele>450</ele>
        <time>2022-05-21 03:42:10</time>
      </trkpt>
      <trkpt lat="41.97444" lon="2.4159">
        <ele>449.8</ele>
        <time>2022-05-21 03:42:11</time>
      </trkpt>
      <trkpt lat="41.97448" lon="2.41596">
        <ele>449.6</ele>
        <time>2022-05-21 03:42:12</time>
      </trkpt>
      <trkpt lat="41.97453" lon="2.41602">
        <ele>449.4</ele>
        <time>2022-05-21 03:42:13</time>
      </trkpt>
      <trkpt lat="41.97458" lon="2.41607">
        <ele>449.2</ele>
        <time>2022-05-21 03:42:14</time>
      </trkpt>
      <trkpt lat="41.97464" lon="2.41613">
        <ele>449</ele>
        <time>2022-05-21 03:42:15</time>
      </trkpt>
      <trkpt lat="41.97469" lon="2.41617">
        <ele>449</ele>
        <time>2022-05-21 03:42:16</time>
      </trkpt>
      <trkpt lat="41.97474" lon="2.41622">
        <ele>448.8</ele>
        <time>2022-05-21 03:42:17</time>
      </trkpt>
      <trkpt lat="41.97478" lon="2.41627">
        <ele>448.8</ele>
        <time>2022-05-21 03:42:18</time>
      </trkpt>
      <trkpt lat="41.97483" lon="2.41632">
        <ele>448.6</ele>
        <time>2022-05-21 03:42:19</time>
      </trkpt>
      <trkpt lat="41.97488" lon="2.41637">
        <ele>448.6</ele>
        <time>2022-05-21 03:42:20</time>
      </trkpt>
      <trkpt lat="41.97492" lon="2.41644">
        <ele>448.4</ele>
        <time>2022-05-21 03:42:21</time>
      </trkpt>
      <trkpt lat="41.97496" lon="2.4165">
        <ele>448.4</ele>
        <time>2022-05-21 03:42:22</time>
      </trkpt>
      <trkpt lat="41.975" lon="2.41656">
        <ele>448.4</ele>
        <time>2022-05-21 03:42:23</time>
      </trkpt>
      <trkpt lat="41.97504" lon="2.41663">
        <ele>448.2</ele>
        <time>2022-05-21 03:42:24</time>
      </trkpt>
      <trkpt lat="41.97508" lon="2.4167">
        <ele>448.2</ele>
        <time>2022-05-21 03:42:25</time>
      </trkpt>
      <trkpt lat="41.97513" lon="2.41676">
        <ele>448</ele>
        <time>2022-05-21 03:42:26</time>
      </trkpt>
      <trkpt lat="41.97519" lon="2.41682">
        <ele>448</ele>
        <time>2022-05-21 03:42:27</time>
      </trkpt>
      <trkpt lat="41.97524" lon="2.41687">
        <ele>448</ele>
        <time>2022-05-21 03:42:28</time>
      </trkpt>
      <trkpt lat="41.97529" lon="2.41692">
        <ele>447.8</ele>
        <time>2022-05-21 03:42:29</time>
      </trkpt>
      <trkpt lat="41.97534" lon="2.41697">
        <ele>447.8</ele>
        <time>2022-05-21 03:42:30</time>
      </trkpt>
      <trkpt lat="41.9754" lon="2.41702">
        <ele>447.8</ele>
        <time>2022-05-21 03:42:31</time>
      </trkpt>
      <trkpt lat="41.97545" lon="2.41707">
        <ele>447.8</ele>
        <time>2022-05-21 03:42:32</time>
      </trkpt>
      <trkpt lat="41.97551" lon="2.41712">
        <ele>448</ele>
        <time>2022-05-21 03:42:33</time>
      </trkpt>
      <trkpt lat="41.97556" lon="2.41716">
        <ele>447.8</ele>
        <time>2022-05-21 03:42:34</time>
      </trkpt>
      <trkpt lat="41.97562" lon="2.41721">
        <ele>447.8</ele>
        <time>2022-05-21 03:42:35</time>
      </trkpt>
      <trkpt lat="41.97567" lon="2.41724">
        <ele>447.8</ele>
        <time>2022-05-21 03:42:36</time>
      </trkpt>
      <trkpt lat="41.97573" lon="2.41728">
        <ele>447.8</ele>
        <time>2022-05-21 03:42:37</time>
      </trkpt>
      <trkpt lat="41.97578" lon="2.41731">
        <ele>447.8</ele>
        <time>2022-05-21 03:42:38</time>
      </trkpt>
      <trkpt lat="41.97583" lon="2.41733">
        <ele>448</ele>
        <time>2022-05-21 03:42:39</time>
      </trkpt>
      <trkpt lat="41.97589" lon="2.41736">
        <ele>448</ele>
        <time>2022-05-21 03:42:40</time>
      </trkpt>
      <trkpt lat="41.97594" lon="2.41738">
        <ele>448</ele>
        <time>2022-05-21 03:42:41</time>
      </trkpt>
      <trkpt lat="41.97599" lon="2.41739">
        <ele>448.2</ele>
        <time>2022-05-21 03:42:42</time>
      </trkpt>
      <trkpt lat="41.97606" lon="2.41739">
        <ele>448.2</ele>
        <time>2022-05-21 03:42:43</time>
      </trkpt>
      <trkpt lat="41.97612" lon="2.41737">
        <ele>448.4</ele>
        <time>2022-05-21 03:42:44</time>
      </trkpt>
      <trkpt lat="41.97617" lon="2.41732">
        <ele>448.6</ele>
        <time>2022-05-21 03:42:45</time>
      </trkpt>
      <trkpt lat="41.9762" lon="2.41727">
        <ele>448.6</ele>
        <time>2022-05-21 03:42:46</time>
      </trkpt>
      <trkpt lat="41.97622" lon="2.41721">
        <ele>448.8</ele>
        <time>2022-05-21 03:42:47</time>
      </trkpt>
      <trkpt lat="41.97623" lon="2.41714">
        <ele>449</ele>
        <time>2022-05-21 03:42:48</time>
      </trkpt>
      <trkpt lat="41.97623" lon="2.41707">
        <ele>449</ele>
        <time>2022-05-21 03:42:49</time>
      </trkpt>
      <trkpt lat="41.97623" lon="2.41701">
        <ele>449.2</ele>
        <time>2022-05-21 03:42:50</time>
      </trkpt>
      <trkpt lat="41.97622" lon="2.41694">
        <ele>449.4</ele>
        <time>2022-05-21 03:42:51</time>
      </trkpt>
      <trkpt lat="41.97622" lon="2.41688">
        <ele>449.4</ele>
        <time>2022-05-21 03:42:52</time>
      </trkpt>
      <trkpt lat="41.97621" lon="2.41682">
        <ele>449.4</ele>
        <time>2022-05-21 03:42:53</time>
      </trkpt>
      <trkpt lat="41.97621" lon="2.41677">
        <ele>449.6</ele>
        <time>2022-05-21 03:42:54</time>
      </trkpt>
      <trkpt lat="41.97621" lon="2.41672">
        <ele>449.6</ele>
        <time>2022-05-21 03:42:55</time>
      </trkpt>
      <trkpt lat="41.97621" lon="2.41665">
        <ele>449.6</ele>
        <time>2022-05-21 03:42:56</time>
      </trkpt>
      <trkpt lat="41.97622" lon="2.4166">
        <ele>449.6</ele>
        <time>2022-05-21 03:42:57</time>
      </trkpt>
      <trkpt lat="41.97624" lon="2.41655">
        <ele>449.6</ele>
        <time>2022-05-21 03:42:58</time>
      </trkpt>
      <trkpt lat="41.97626" lon="2.4165">
        <ele>449.8</ele>
        <time>2022-05-21 03:42:59</time>
      </trkpt>
      <trkpt lat="41.97629" lon="2.41646">
        <ele>449.8</ele>
        <time>2022-05-21 03:43:00</time>
      </trkpt>
      <trkpt lat="41.97632" lon="2.41643">
        <ele>449.8</ele>
        <time>2022-05-21 03:43:01</time>
      </trkpt>
      <trkpt lat="41.97636" lon="2.41639">
        <ele>449.8</ele>
        <time>2022-05-21 03:43:02</time>
      </trkpt>
      <trkpt lat="41.9764" lon="2.41637">
        <ele>449.8</ele>
        <time>2022-05-21 03:43:03</time>
      </trkpt>
      <trkpt lat="41.97644" lon="2.41635">
        <ele>449.8</ele>
        <time>2022-05-21 03:43:04</time>
      </trkpt>
      <trkpt lat="41.97649" lon="2.41633">
        <ele>449.6</ele>
        <time>2022-05-21 03:43:05</time>
      </trkpt>
      <trkpt lat="41.97653" lon="2.41632">
        <ele>449.6</ele>
        <time>2022-05-21 03:43:06</time>
      </trkpt>
      <trkpt lat="41.97657" lon="2.41632">
        <ele>449.6</ele>
        <time>2022-05-21 03:43:07</time>
      </trkpt>
      <trkpt lat="41.97662" lon="2.41632">
        <ele>449.6</ele>
        <time>2022-05-21 03:43:08</time>
      </trkpt>
      <trkpt lat="41.97666" lon="2.41633">
        <ele>449.6</ele>
        <time>2022-05-21 03:43:09</time>
      </trkpt>
      <trkpt lat="41.9767" lon="2.41633">
        <ele>449.6</ele>
        <time>2022-05-21 03:43:10</time>
      </trkpt>
      <trkpt lat="41.97673" lon="2.41634">
        <ele>449.6</ele>
        <time>2022-05-21 03:43:11</time>
      </trkpt>
      <trkpt lat="41.97678" lon="2.41634">
        <ele>449.6</ele>
        <time>2022-05-21 03:43:12</time>
      </trkpt>
      <trkpt lat="41.97682" lon="2.41633">
        <ele>449.6</ele>
        <time>2022-05-21 03:43:13</time>
      </trkpt>
      <trkpt lat="41.97686" lon="2.4163">
        <ele>449.6</ele>
        <time>2022-05-21 03:43:14</time>
      </trkpt>
      <trkpt lat="41.97688" lon="2.41625">
        <ele>449.6</ele>
        <time>2022-05-21 03:43:15</time>
      </trkpt>
      <trkpt lat="41.9769" lon="2.4162">
        <ele>449.6</ele>
        <time>2022-05-21 03:43:16</time>
      </trkpt>
      <trkpt lat="41.97689" lon="2.41615">
        <ele>449.6</ele>
        <time>2022-05-21 03:43:17</time>
      </trkpt>
      <trkpt lat="41.97688" lon="2.4161">
        <ele>449.8</ele>
        <time>2022-05-21 03:43:18</time>
      </trkpt>
      <trkpt lat="41.97685" lon="2.41607">
        <ele>450</ele>
        <time>2022-05-21 03:43:19</time>
      </trkpt>
      <trkpt lat="41.97683" lon="2.41604">
        <ele>450.2</ele>
        <time>2022-05-21 03:43:20</time>
      </trkpt>
      <trkpt lat="41.9768" lon="2.41601">
        <ele>450.4</ele>
        <time>2022-05-21 03:43:21</time>
      </trkpt>
      <trkpt lat="41.97677" lon="2.41599">
        <ele>450.8</ele>
        <time>2022-05-21 03:43:22</time>
      </trkpt>
      <trkpt lat="41.97675" lon="2.41598">
        <ele>451</ele>
        <time>2022-05-21 03:43:23</time>
      </trkpt>
      <trkpt lat="41.97672" lon="2.41597">
        <ele>451.2</ele>
        <time>2022-05-21 03:43:24</time>
      </trkpt>
      <trkpt lat="41.97669" lon="2.41595">
        <ele>451.4</ele>
        <time>2022-05-21 03:43:25</time>
      </trkpt>
      <trkpt lat="41.97667" lon="2.41593">
        <ele>451.8</ele>
        <time>2022-05-21 03:43:26</time>
      </trkpt>
      <trkpt lat="41.97665" lon="2.41591">
        <ele>452</ele>
        <time>2022-05-21 03:43:27</time>
      </trkpt>
      <trkpt lat="41.97663" lon="2.4159">
        <ele>452.2</ele>
        <time>2022-05-21 03:43:28</time>
      </trkpt>
      <trkpt lat="41.97661" lon="2.41588">
        <ele>452.6</ele>
        <time>2022-05-21 03:43:29</time>
      </trkpt>
      <trkpt lat="41.97659" lon="2.41587">
        <ele>452.8</ele>
        <time>2022-05-21 03:43:30</time>
      </trkpt>
      <trkpt lat="41.97657" lon="2.41586">
        <ele>453</ele>
        <time>2022-05-21 03:43:31</time>
      </trkpt>
      <trkpt lat="41.97655" lon="2.41585">
        <ele>453.2</ele>
        <time>2022-05-21 03:43:32</time>
      </trkpt>
      <trkpt lat="41.97652" lon="2.41584">
        <ele>453.6</ele>
        <time>2022-05-21 03:43:33</time>
      </trkpt>
      <trkpt lat="41.9765" lon="2.41583">
        <ele>453.8</ele>
        <time>2022-05-21 03:43:34</time>
      </trkpt>
      <trkpt lat="41.97648" lon="2.41582">
        <ele>454</ele>
        <time>2022-05-21 03:43:35</time>
      </trkpt>
      <trkpt lat="41.97646" lon="2.41581">
        <ele>454.2</ele>
        <time>2022-05-21 03:43:36</time>
      </trkpt>
      <trkpt lat="41.97644" lon="2.4158">
        <ele>454.6</ele>
        <time>2022-05-21 03:43:37</time>
      </trkpt>
      <trkpt lat="41.97642" lon="2.41579">
        <ele>454.8</ele>
        <time>2022-05-21 03:43:38</time>
      </trkpt>
      <trkpt lat="41.9764" lon="2.41578">
        <ele>455</ele>
        <time>2022-05-21 03:43:39</time>
      </trkpt>
      <trkpt lat="41.97639" lon="2.41576">
        <ele>455.2</ele>
        <time>2022-05-21 03:43:40</time>
      </trkpt>
      <trkpt lat="41.97636" lon="2.41575">
        <ele>455.4</ele>
        <time>2022-05-21 03:43:41</time>
      </trkpt>
      <trkpt lat="41.97635" lon="2.41573">
        <ele>455.6</ele>
        <time>2022-05-21 03:43:42</time>
      </trkpt>
      <trkpt lat="41.97633" lon="2.41571">
        <ele>455.8</ele>
        <time>2022-05-21 03:43:43</time>
      </trkpt>
      <trkpt lat="41.97631" lon="2.41569">
        <ele>456.2</ele>
        <time>2022-05-21 03:43:44</time>
      </trkpt>
      <trkpt lat="41.9763" lon="2.41568">
        <ele>456.4</ele>
        <time>2022-05-21 03:43:45</time>
      </trkpt>
      <trkpt lat="41.97628" lon="2.41566">
        <ele>456.6</ele>
        <time>2022-05-21 03:43:46</time>
      </trkpt>
      <trkpt lat="41.97626" lon="2.41565">
        <ele>456.8</ele>
        <time>2022-05-21 03:43:47</time>
      </trkpt>
      <trkpt lat="41.97625" lon="2.41564">
        <ele>457</ele>
        <time>2022-05-21 03:43:48</time>
      </trkpt>
      <trkpt lat="41.97623" lon="2.41563">
        <ele>457.2</ele>
        <time>2022-05-21 03:43:49</time>
      </trkpt>
      <trkpt lat="41.97621" lon="2.41561">
        <ele>457.4</ele>
        <time>2022-05-21 03:43:50</time>
      </trkpt>
      <trkpt lat="41.97619" lon="2.4156">
        <ele>457.6</ele>
        <time>2022-05-21 03:43:51</time>
      </trkpt>
      <trkpt lat="41.97617" lon="2.41559">
        <ele>458</ele>
        <time>2022-05-21 03:43:52</time>
      </trkpt>
      <trkpt lat="41.97615" lon="2.41558">
        <ele>458.2</ele>
        <time>2022-05-21 03:43:53</time>
      </trkpt>
      <trkpt lat="41.97613" lon="2.41557">
        <ele>458.4</ele>
        <time>2022-05-21 03:43:54</time>
      </trkpt>
      <trkpt lat="41.97612" lon="2.41555">
        <ele>458.6</ele>
        <time>2022-05-21 03:43:55</time>
      </trkpt>
      <trkpt lat="41.9761" lon="2.41553">
        <ele>458.8</ele>
        <time>2022-05-21 03:43:56</time>
      </trkpt>
      <trkpt lat="41.97609" lon="2.41551">
        <ele>459</ele>
        <time>2022-05-21 03:43:57</time>
      </trkpt>
      <trkpt lat="41.97607" lon="2.41549">
        <ele>459.2</ele>
        <time>2022-05-21 03:43:58</time>
      </trkpt>
      <trkpt lat="41.97605" lon="2.41547">
        <ele>459.4</ele>
        <time>2022-05-21 03:43:59</time>
      </trkpt>
      <trkpt lat="41.97604" lon="2.41545">
        <ele>459.6</ele>
        <time>2022-05-21 03:44:00</time>
      </trkpt>
      <trkpt lat="41.97602" lon="2.41543">
        <ele>459.8</ele>
        <time>2022-05-21 03:44:01</time>
      </trkpt>
      <trkpt lat="41.97601" lon="2.4154">
        <ele>460</ele>
        <time>2022-05-21 03:44:02</time>
      </trkpt>
      <trkpt lat="41.97599" lon="2.41537">
        <ele>460.2</ele>
        <time>2022-05-21 03:44:03</time>
      </trkpt>
      <trkpt lat="41.97598" lon="2.41535">
        <ele>460.4</ele>
        <time>2022-05-21 03:44:04</time>
      </trkpt>
      <trkpt lat="41.97596" lon="2.41533">
        <ele>460.6</ele>
        <time>2022-05-21 03:44:05</time>
      </trkpt>
      <trkpt lat="41.97594" lon="2.41531">
        <ele>460.8</ele>
        <time>2022-05-21 03:44:06</time>
      </trkpt>
      <trkpt lat="41.97593" lon="2.41529">
        <ele>461</ele>
        <time>2022-05-21 03:44:07</time>
      </trkpt>
      <trkpt lat="41.97592" lon="2.41527">
        <ele>461.2</ele>
        <time>2022-05-21 03:44:08</time>
      </trkpt>
      <trkpt lat="41.97591" lon="2.41525">
        <ele>461.4</ele>
        <time>2022-05-21 03:44:09</time>
      </trkpt>
      <trkpt lat="41.97589" lon="2.41523">
        <ele>461.6</ele>
        <time>2022-05-21 03:44:10</time>
      </trkpt>
      <trkpt lat="41.97588" lon="2.41521">
        <ele>461.8</ele>
        <time>2022-05-21 03:44:11</time>
      </trkpt>
      <trkpt lat="41.97587" lon="2.41518">
        <ele>462.2</ele>
        <time>2022-05-21 03:44:12</time>
      </trkpt>
      <trkpt lat="41.97586" lon="2.41515">
        <ele>462.4</ele>
        <time>2022-05-21 03:44:13</time>
      </trkpt>
      <trkpt lat="41.97585" lon="2.41512">
        <ele>462.6</ele>
        <time>2022-05-21 03:44:14</time>
      </trkpt>
      <trkpt lat="41.97584" lon="2.41509">
        <ele>462.8</ele>
        <time>2022-05-21 03:44:15</time>
      </trkpt>
      <trkpt lat="41.97583" lon="2.41506">
        <ele>463</ele>
        <time>2022-05-21 03:44:16</time>
      </trkpt>
      <trkpt lat="41.97582" lon="2.41504">
        <ele>463.2</ele>
        <time>2022-05-21 03:44:17</time>
      </trkpt>
      <trkpt lat="41.97581" lon="2.41501">
        <ele>463.4</ele>
        <time>2022-05-21 03:44:18</time>
      </trkpt>
      <trkpt lat="41.9758" lon="2.41499">
        <ele>463.6</ele>
        <time>2022-05-21 03:44:19</time>
      </trkpt>
      <trkpt lat="41.97579" lon="2.41496">
        <ele>463.8</ele>
        <time>2022-05-21 03:44:20</time>
      </trkpt>
      <trkpt lat="41.97578" lon="2.41493">
        <ele>464</ele>
        <time>2022-05-21 03:44:21</time>
      </trkpt>
      <trkpt lat="41.97578" lon="2.4149">
        <ele>464.2</ele>
        <time>2022-05-21 03:44:22</time>
      </trkpt>
      <trkpt lat="41.97577" lon="2.41487">
        <ele>464.4</ele>
        <time>2022-05-21 03:44:23</time>
      </trkpt>
      <trkpt lat="41.97577" lon="2.41483">
        <ele>464.4</ele>
        <time>2022-05-21 03:44:24</time>
      </trkpt>
      <trkpt lat="41.97576" lon="2.4148">
        <ele>464.6</ele>
        <time>2022-05-21 03:44:25</time>
      </trkpt>
      <trkpt lat="41.97575" lon="2.41477">
        <ele>464.8</ele>
        <time>2022-05-21 03:44:26</time>
      </trkpt>
      <trkpt lat="41.97575" lon="2.41474">
        <ele>465</ele>
        <time>2022-05-21 03:44:27</time>
      </trkpt>
      <trkpt lat="41.97575" lon="2.41472">
        <ele>465.2</ele>
        <time>2022-05-21 03:44:28</time>
      </trkpt>
      <trkpt lat="41.97573" lon="2.4147">
        <ele>465.4</ele>
        <time>2022-05-21 03:44:29</time>
      </trkpt>
      <trkpt lat="41.97573" lon="2.41469">
        <ele>465.6</ele>
        <time>2022-05-21 03:44:30</time>
      </trkpt>
      <trkpt lat="41.97573" lon="2.41467">
        <ele>465.8</ele>
        <time>2022-05-21 03:44:31</time>
      </trkpt>
      <trkpt lat="41.97573" lon="2.41464">
        <ele>466</ele>
        <time>2022-05-21 03:44:32</time>
      </trkpt>
      <trkpt lat="41.97573" lon="2.41462">
        <ele>466.2</ele>
        <time>2022-05-21 03:44:33</time>
      </trkpt>
      <trkpt lat="41.97573" lon="2.4146">
        <ele>466.2</ele>
        <time>2022-05-21 03:44:34</time>
      </trkpt>
      <trkpt lat="41.97573" lon="2.41458">
        <ele>466.4</ele>
        <time>2022-05-21 03:44:35</time>
      </trkpt>
      <trkpt lat="41.97572" lon="2.41456">
        <ele>466.6</ele>
        <time>2022-05-21 03:44:36</time>
      </trkpt>
      <trkpt lat="41.97572" lon="2.41454">
        <ele>466.8</ele>
        <time>2022-05-21 03:44:37</time>
      </trkpt>
      <trkpt lat="41.97573" lon="2.41452">
        <ele>467</ele>
        <time>2022-05-21 03:44:38</time>
      </trkpt>
      <trkpt lat="41.97573" lon="2.4145">
        <ele>467.2</ele>
        <time>2022-05-21 03:44:39</time>
      </trkpt>
      <trkpt lat="41.97573" lon="2.41447">
        <ele>467.4</ele>
        <time>2022-05-21 03:44:40</time>
      </trkpt>
      <trkpt lat="41.97573" lon="2.41444">
        <ele>467.6</ele>
        <time>2022-05-21 03:44:41</time>
      </trkpt>
      <trkpt lat="41.97573" lon="2.41441">
        <ele>467.8</ele>
        <time>2022-05-21 03:44:42</time>
      </trkpt>
      <trkpt lat="41.97573" lon="2.41438">
        <ele>468</ele>
        <time>2022-05-21 03:44:43</time>
      </trkpt>
      <trkpt lat="41.97573" lon="2.41435">
        <ele>468.2</ele>
        <time>2022-05-21 03:44:44</time>
      </trkpt>
      <trkpt lat="41.97573" lon="2.41433">
        <ele>468.4</ele>
        <time>2022-05-21 03:44:45</time>
      </trkpt>
      <trkpt lat="41.97573" lon="2.4143">
        <ele>468.6</ele>
        <time>2022-05-21 03:44:46</time>
      </trkpt>
      <trkpt lat="41.97572" lon="2.41427">
        <ele>468.8</ele>
        <time>2022-05-21 03:44:47</time>
      </trkpt>
      <trkpt lat="41.97572" lon="2.41423">
        <ele>469</ele>
        <time>2022-05-21 03:44:48</time>
      </trkpt>
      <trkpt lat="41.9757" lon="2.41419">
        <ele>469.2</ele>
        <time>2022-05-21 03:44:49</time>
      </trkpt>
      <trkpt lat="41.97569" lon="2.41416">
        <ele>469.4</ele>
        <time>2022-05-21 03:44:50</time>
      </trkpt>
      <trkpt lat="41.97567" lon="2.41412">
        <ele>469.6</ele>
        <time>2022-05-21 03:44:51</time>
      </trkpt>
      <trkpt lat="41.97565" lon="2.41408">
        <ele>469.8</ele>
        <time>2022-05-21 03:44:52</time>
      </trkpt>
      <trkpt lat="41.97564" lon="2.41404">
        <ele>470</ele>
        <time>2022-05-21 03:44:53</time>
      </trkpt>
      <trkpt lat="41.97563" lon="2.41401">
        <ele>470.2</ele>
        <time>2022-05-21 03:44:54</time>
      </trkpt>
      <trkpt lat="41.97562" lon="2.41397">
        <ele>470.4</ele>
        <time>2022-05-21 03:44:55</time>
      </trkpt>
      <trkpt lat="41.9756" lon="2.41394">
        <ele>470.6</ele>
        <time>2022-05-21 03:44:56</time>
      </trkpt>
      <trkpt lat="41.97559" lon="2.41391">
        <ele>470.8</ele>
        <time>2022-05-21 03:44:57</time>
      </trkpt>
      <trkpt lat="41.97557" lon="2.41388">
        <ele>471.2</ele>
        <time>2022-05-21 03:44:58</time>
      </trkpt>
      <trkpt lat="41.97557" lon="2.41385">
        <ele>471.4</ele>
        <time>2022-05-21 03:44:59</time>
      </trkpt>
      <trkpt lat="41.97556" lon="2.41382">
        <ele>471.6</ele>
        <time>2022-05-21 03:45:00</time>
      </trkpt>
      <trkpt lat="41.97556" lon="2.41379">
        <ele>471.8</ele>
        <time>2022-05-21 03:45:01</time>
      </trkpt>
      <trkpt lat="41.97556" lon="2.41376">
        <ele>472</ele>
        <time>2022-05-21 03:45:02</time>
      </trkpt>
      <trkpt lat="41.97555" lon="2.41373">
        <ele>472.2</ele>
        <time>2022-05-21 03:45:03</time>
      </trkpt>
      <trkpt lat="41.97554" lon="2.4137">
        <ele>472.4</ele>
        <time>2022-05-21 03:45:04</time>
      </trkpt>
      <trkpt lat="41.97554" lon="2.41366">
        <ele>472.6</ele>
        <time>2022-05-21 03:45:05</time>
      </trkpt>
      <trkpt lat="41.97553" lon="2.41363">
        <ele>472.8</ele>
        <time>2022-05-21 03:45:06</time>
      </trkpt>
      <trkpt lat="41.97552" lon="2.41359">
        <ele>472.8</ele>
        <time>2022-05-21 03:45:07</time>
      </trkpt>
      <trkpt lat="41.97551" lon="2.41355">
        <ele>473</ele>
        <time>2022-05-21 03:45:08</time>
      </trkpt>
      <trkpt lat="41.97551" lon="2.41352">
        <ele>473.2</ele>
        <time>2022-05-21 03:45:09</time>
      </trkpt>
      <trkpt lat="41.9755" lon="2.41348">
        <ele>473.4</ele>
        <time>2022-05-21 03:45:10</time>
      </trkpt>
      <trkpt lat="41.97549" lon="2.41344">
        <ele>473.6</ele>
        <time>2022-05-21 03:45:11</time>
      </trkpt>
      <trkpt lat="41.97548" lon="2.4134">
        <ele>473.8</ele>
        <time>2022-05-21 03:45:12</time>
      </trkpt>
      <trkpt lat="41.97546" lon="2.41337">
        <ele>473.8</ele>
        <time>2022-05-21 03:45:13</time>
      </trkpt>
      <trkpt lat="41.97544" lon="2.41334">
        <ele>474</ele>
        <time>2022-05-21 03:45:14</time>
      </trkpt>
      <trkpt lat="41.97541" lon="2.41331">
        <ele>474.2</ele>
        <time>2022-05-21 03:45:15</time>
      </trkpt>
      <trkpt lat="41.97539" lon="2.41328">
        <ele>474.4</ele>
        <time>2022-05-21 03:45:16</time>
      </trkpt>
      <trkpt lat="41.97536" lon="2.41325">
        <ele>474.4</ele>
        <time>2022-05-21 03:45:17</time>
      </trkpt>
      <trkpt lat="41.97534" lon="2.41323">
        <ele>474.6</ele>
        <time>2022-05-21 03:45:18</time>
      </trkpt>
      <trkpt lat="41.97531" lon="2.4132">
        <ele>474.8</ele>
        <time>2022-05-21 03:45:19</time>
      </trkpt>
      <trkpt lat="41.97528" lon="2.41319">
        <ele>474.8</ele>
        <time>2022-05-21 03:45:20</time>
      </trkpt>
      <trkpt lat="41.97526" lon="2.41317">
        <ele>475</ele>
        <time>2022-05-21 03:45:21</time>
      </trkpt>
      <trkpt lat="41.97523" lon="2.41315">
        <ele>475.2</ele>
        <time>2022-05-21 03:45:22</time>
      </trkpt>
      <trkpt lat="41.97521" lon="2.41313">
        <ele>475.2</ele>
        <time>2022-05-21 03:45:23</time>
      </trkpt>
      <trkpt lat="41.97519" lon="2.41311">
        <ele>475.4</ele>
        <time>2022-05-21 03:45:24</time>
      </trkpt>
      <trkpt lat="41.97516" lon="2.41309">
        <ele>475.6</ele>
        <time>2022-05-21 03:45:25</time>
      </trkpt>
      <trkpt lat="41.97514" lon="2.41306">
        <ele>475.6</ele>
        <time>2022-05-21 03:45:26</time>
      </trkpt>
      <trkpt lat="41.97512" lon="2.41304">
        <ele>475.8</ele>
        <time>2022-05-21 03:45:27</time>
      </trkpt>
      <trkpt lat="41.9751" lon="2.41302">
        <ele>476</ele>
        <time>2022-05-21 03:45:28</time>
      </trkpt>
      <trkpt lat="41.97508" lon="2.413">
        <ele>476.2</ele>
        <time>2022-05-21 03:45:29</time>
      </trkpt>
      <trkpt lat="41.97506" lon="2.41297">
        <ele>476.4</ele>
        <time>2022-05-21 03:45:30</time>
      </trkpt>
      <trkpt lat="41.97505" lon="2.41295">
        <ele>476.6</ele>
        <time>2022-05-21 03:45:31</time>
      </trkpt>
      <trkpt lat="41.97503" lon="2.41292">
        <ele>476.8</ele>
        <time>2022-05-21 03:45:32</time>
      </trkpt>
      <trkpt lat="41.97501" lon="2.4129">
        <ele>477</ele>
        <time>2022-05-21 03:45:33</time>
      </trkpt>
      <trkpt lat="41.975" lon="2.41287">
        <ele>477.2</ele>
        <time>2022-05-21 03:45:34</time>
      </trkpt>
      <trkpt lat="41.97499" lon="2.41285">
        <ele>477.4</ele>
        <time>2022-05-21 03:45:35</time>
      </trkpt>
      <trkpt lat="41.97497" lon="2.41283">
        <ele>477.6</ele>
        <time>2022-05-21 03:45:36</time>
      </trkpt>
      <trkpt lat="41.97496" lon="2.4128">
        <ele>477.8</ele>
        <time>2022-05-21 03:45:37</time>
      </trkpt>
      <trkpt lat="41.97495" lon="2.41277">
        <ele>478</ele>
        <time>2022-05-21 03:45:38</time>
      </trkpt>
      <trkpt lat="41.97494" lon="2.41274">
        <ele>478</ele>
        <time>2022-05-21 03:45:39</time>
      </trkpt>
      <trkpt lat="41.97493" lon="2.41271">
        <ele>478.2</ele>
        <time>2022-05-21 03:45:40</time>
      </trkpt>
      <trkpt lat="41.97493" lon="2.41268">
        <ele>478.4</ele>
        <time>2022-05-21 03:45:41</time>
      </trkpt>
      <trkpt lat="41.97492" lon="2.41265">
        <ele>478.6</ele>
        <time>2022-05-21 03:45:42</time>
      </trkpt>
      <trkpt lat="41.97492" lon="2.41262">
        <ele>478.6</ele>
        <time>2022-05-21 03:45:43</time>
      </trkpt>
      <trkpt lat="41.97491" lon="2.41259">
        <ele>478.8</ele>
        <time>2022-05-21 03:45:44</time>
      </trkpt>
      <trkpt lat="41.97492" lon="2.41256">
        <ele>479</ele>
        <time>2022-05-21 03:45:45</time>
      </trkpt>
      <trkpt lat="41.97493" lon="2.41253">
        <ele>479.2</ele>
        <time>2022-05-21 03:45:46</time>
      </trkpt>
      <trkpt lat="41.97495" lon="2.41251">
        <ele>479.2</ele>
        <time>2022-05-21 03:45:47</time>
      </trkpt>
      <trkpt lat="41.97496" lon="2.41248">
        <ele>479.4</ele>
        <time>2022-05-21 03:45:48</time>
      </trkpt>
      <trkpt lat="41.97498" lon="2.41246">
        <ele>479.4</ele>
        <time>2022-05-21 03:45:49</time>
      </trkpt>
      <trkpt lat="41.97501" lon="2.41243">
        <ele>479.4</ele>
        <time>2022-05-21 03:45:50</time>
      </trkpt>
      <trkpt lat="41.97504" lon="2.41241">
        <ele>479.4</ele>
        <time>2022-05-21 03:45:51</time>
      </trkpt>
      <trkpt lat="41.97507" lon="2.41238">
        <ele>479.2</ele>
        <time>2022-05-21 03:45:52</time>
      </trkpt>
      <trkpt lat="41.9751" lon="2.41236">
        <ele>479.2</ele>
        <time>2022-05-21 03:45:53</time>
      </trkpt>
      <trkpt lat="41.97514" lon="2.41235">
        <ele>479.2</ele>
        <time>2022-05-21 03:45:54</time>
      </trkpt>
      <trkpt lat="41.97518" lon="2.41236">
        <ele>479</ele>
        <time>2022-05-21 03:45:55</time>
      </trkpt>
      <trkpt lat="41.97521" lon="2.41239">
        <ele>479</ele>
        <time>2022-05-21 03:45:56</time>
      </trkpt>
      <trkpt lat="41.97523" lon="2.41242">
        <ele>479</ele>
        <time>2022-05-21 03:45:57</time>
      </trkpt>
      <trkpt lat="41.97525" lon="2.41246">
        <ele>479.2</ele>
        <time>2022-05-21 03:45:58</time>
      </trkpt>
      <trkpt lat="41.97526" lon="2.41248">
        <ele>479.2</ele>
        <time>2022-05-21 03:45:59</time>
      </trkpt>
      <trkpt lat="41.9753" lon="2.41253">
        <ele>479.4</ele>
        <time>2022-05-21 03:46:00</time>
      </trkpt>
      <trkpt lat="41.97532" lon="2.41256">
        <ele>479.4</ele>
        <time>2022-05-21 03:46:01</time>
      </trkpt>
      <trkpt lat="41.97535" lon="2.41259">
        <ele>479.4</ele>
        <time>2022-05-21 03:46:02</time>
      </trkpt>
      <trkpt lat="41.97538" lon="2.41261">
        <ele>479.6</ele>
        <time>2022-05-21 03:46:03</time>
      </trkpt>
      <trkpt lat="41.97541" lon="2.41262">
        <ele>479.6</ele>
        <time>2022-05-21 03:46:04</time>
      </trkpt>
      <trkpt lat="41.97545" lon="2.41264">
        <ele>479.6</ele>
        <time>2022-05-21 03:46:05</time>
      </trkpt>
      <trkpt lat="41.97549" lon="2.41265">
        <ele>479.4</ele>
        <time>2022-05-21 03:46:06</time>
      </trkpt>
      <trkpt lat="41.97553" lon="2.41265">
        <ele>479.2</ele>
        <time>2022-05-21 03:46:07</time>
      </trkpt>
      <trkpt lat="41.97559" lon="2.41266">
        <ele>479</ele>
        <time>2022-05-21 03:46:08</time>
      </trkpt>
      <trkpt lat="41.97565" lon="2.41267">
        <ele>478.8</ele>
        <time>2022-05-21 03:46:09</time>
      </trkpt>
      <trkpt lat="41.9757" lon="2.41267">
        <ele>478.4</ele>
        <time>2022-05-21 03:46:10</time>
      </trkpt>
      <trkpt lat="41.97578" lon="2.41268">
        <ele>478</ele>
        <time>2022-05-21 03:46:11</time>
      </trkpt>
      <trkpt lat="41.97585" lon="2.41268">
        <ele>477.8</ele>
        <time>2022-05-21 03:46:12</time>
      </trkpt>
      <trkpt lat="41.97591" lon="2.41269">
        <ele>477.6</ele>
        <time>2022-05-21 03:46:13</time>
      </trkpt>
      <trkpt lat="41.97596" lon="2.4127">
        <ele>477.4</ele>
        <time>2022-05-21 03:46:14</time>
      </trkpt>
      <trkpt lat="41.97601" lon="2.41272">
        <ele>477.2</ele>
        <time>2022-05-21 03:46:15</time>
      </trkpt>
      <trkpt lat="41.97603" lon="2.41274">
        <ele>477.2</ele>
        <time>2022-05-21 03:46:16</time>
      </trkpt>
      <trkpt lat="41.97604" lon="2.41278">
        <ele>477.4</ele>
        <time>2022-05-21 03:46:17</time>
      </trkpt>
      <trkpt lat="41.97604" lon="2.41281">
        <ele>477.4</ele>
        <time>2022-05-21 03:46:18</time>
      </trkpt>
      <trkpt lat="41.97603" lon="2.41283">
        <ele>477.6</ele>
        <time>2022-05-21 03:46:19</time>
      </trkpt>
      <trkpt lat="41.97602" lon="2.41284">
        <ele>477.8</ele>
        <time>2022-05-21 03:46:20</time>
      </trkpt>
      <trkpt lat="41.97602" lon="2.41285">
        <ele>478.2</ele>
        <time>2022-05-21 03:46:21</time>
      </trkpt>
      <trkpt lat="41.97601" lon="2.41288">
        <ele>478.4</ele>
        <time>2022-05-21 03:46:22</time>
      </trkpt>
      <trkpt lat="41.97601" lon="2.4129">
        <ele>478.6</ele>
        <time>2022-05-21 03:46:23</time>
      </trkpt>
      <trkpt lat="41.976" lon="2.41292">
        <ele>478.8</ele>
        <time>2022-05-21 03:46:24</time>
      </trkpt>
      <trkpt lat="41.976" lon="2.41294">
        <ele>479</ele>
        <time>2022-05-21 03:46:25</time>
      </trkpt>
      <trkpt lat="41.976" lon="2.41297">
        <ele>479.2</ele>
        <time>2022-05-21 03:46:26</time>
      </trkpt>
      <trkpt lat="41.976" lon="2.413">
        <ele>479.4</ele>
        <time>2022-05-21 03:46:27</time>
      </trkpt>
      <trkpt lat="41.976" lon="2.41303">
        <ele>479.6</ele>
        <time>2022-05-21 03:46:28</time>
      </trkpt>
      <trkpt lat="41.97601" lon="2.41305">
        <ele>479.8</ele>
        <time>2022-05-21 03:46:29</time>
      </trkpt>
      <trkpt lat="41.97601" lon="2.41308">
        <ele>480</ele>
        <time>2022-05-21 03:46:30</time>
      </trkpt>
      <trkpt lat="41.97601" lon="2.41311">
        <ele>480.2</ele>
        <time>2022-05-21 03:46:31</time>
      </trkpt>
      <trkpt lat="41.97602" lon="2.41314">
        <ele>480.4</ele>
        <time>2022-05-21 03:46:32</time>
      </trkpt>
      <trkpt lat="41.97602" lon="2.41318">
        <ele>480.6</ele>
        <time>2022-05-21 03:46:33</time>
      </trkpt>
      <trkpt lat="41.97603" lon="2.4132">
        <ele>480.8</ele>
        <time>2022-05-21 03:46:34</time>
      </trkpt>
      <trkpt lat="41.97604" lon="2.41323">
        <ele>481</ele>
        <time>2022-05-21 03:46:35</time>
      </trkpt>
      <trkpt lat="41.97605" lon="2.41326">
        <ele>481.4</ele>
        <time>2022-05-21 03:46:36</time>
      </trkpt>
      <trkpt lat="41.97606" lon="2.41329">
        <ele>481.6</ele>
        <time>2022-05-21 03:46:37</time>
      </trkpt>
      <trkpt lat="41.97607" lon="2.41331">
        <ele>481.6</ele>
        <time>2022-05-21 03:46:38</time>
      </trkpt>
      <trkpt lat="41.97607" lon="2.41334">
        <ele>481.8</ele>
        <time>2022-05-21 03:46:39</time>
      </trkpt>
      <trkpt lat="41.97609" lon="2.41336">
        <ele>482</ele>
        <time>2022-05-21 03:46:40</time>
      </trkpt>
      <trkpt lat="41.9761" lon="2.41338">
        <ele>482.2</ele>
        <time>2022-05-21 03:46:41</time>
      </trkpt>
      <trkpt lat="41.97611" lon="2.41341">
        <ele>482.4</ele>
        <time>2022-05-21 03:46:42</time>
      </trkpt>
      <trkpt lat="41.97613" lon="2.41344">
        <ele>482.4</ele>
        <time>2022-05-21 03:46:43</time>
      </trkpt>
      <trkpt lat="41.97614" lon="2.41346">
        <ele>482.6</ele>
        <time>2022-05-21 03:46:44</time>
      </trkpt>
      <trkpt lat="41.97616" lon="2.41349">
        <ele>482.8</ele>
        <time>2022-05-21 03:46:45</time>
      </trkpt>
      <trkpt lat="41.97617" lon="2.41351">
        <ele>483</ele>
        <time>2022-05-21 03:46:46</time>
      </trkpt>
      <trkpt lat="41.9762" lon="2.41353">
        <ele>483.2</ele>
        <time>2022-05-21 03:46:47</time>
      </trkpt>
      <trkpt lat="41.97622" lon="2.41355">
        <ele>483.2</ele>
        <time>2022-05-21 03:46:48</time>
      </trkpt>
      <trkpt lat="41.97623" lon="2.41357">
        <ele>483.4</ele>
        <time>2022-05-21 03:46:49</time>
      </trkpt>
      <trkpt lat="41.97625" lon="2.41359">
        <ele>483.6</ele>
        <time>2022-05-21 03:46:50</time>
      </trkpt>
      <trkpt lat="41.97627" lon="2.41361">
        <ele>483.6</ele>
        <time>2022-05-21 03:46:51</time>
      </trkpt>
      <trkpt lat="41.97629" lon="2.41363">
        <ele>483.6</ele>
        <time>2022-05-21 03:46:52</time>
      </trkpt>
      <trkpt lat="41.9763" lon="2.41364">
        <ele>483.8</ele>
        <time>2022-05-21 03:46:53</time>
      </trkpt>
      <trkpt lat="41.97632" lon="2.41365">
        <ele>484</ele>
        <time>2022-05-21 03:46:54</time>
      </trkpt>
      <trkpt lat="41.97635" lon="2.41368">
        <ele>484</ele>
        <time>2022-05-21 03:46:55</time>
      </trkpt>
      <trkpt lat="41.97637" lon="2.41369">
        <ele>484.2</ele>
        <time>2022-05-21 03:46:56</time>
      </trkpt>
      <trkpt lat="41.97639" lon="2.41371">
        <ele>484.4</ele>
        <time>2022-05-21 03:46:57</time>
      </trkpt>
      <trkpt lat="41.97641" lon="2.41372">
        <ele>484.4</ele>
        <time>2022-05-21 03:46:58</time>
      </trkpt>
      <trkpt lat="41.97643" lon="2.41373">
        <ele>484.6</ele>
        <time>2022-05-21 03:46:59</time>
      </trkpt>
      <trkpt lat="41.97645" lon="2.41375">
        <ele>484.8</ele>
        <time>2022-05-21 03:47:00</time>
      </trkpt>
      <trkpt lat="41.97647" lon="2.41376">
        <ele>484.8</ele>
        <time>2022-05-21 03:47:01</time>
      </trkpt>
      <trkpt lat="41.97649" lon="2.41377">
        <ele>485</ele>
        <time>2022-05-21 03:47:02</time>
      </trkpt>
      <trkpt lat="41.97651" lon="2.41378">
        <ele>485</ele>
        <time>2022-05-21 03:47:03</time>
      </trkpt>
      <trkpt lat="41.97654" lon="2.41378">
        <ele>485.2</ele>
        <time>2022-05-21 03:47:04</time>
      </trkpt>
      <trkpt lat="41.97656" lon="2.41379">
        <ele>485.2</ele>
        <time>2022-05-21 03:47:05</time>
      </trkpt>
      <trkpt lat="41.97658" lon="2.4138">
        <ele>485.4</ele>
        <time>2022-05-21 03:47:06</time>
      </trkpt>
      <trkpt lat="41.97661" lon="2.4138">
        <ele>485.6</ele>
        <time>2022-05-21 03:47:07</time>
      </trkpt>
      <trkpt lat="41.97664" lon="2.4138">
        <ele>485.6</ele>
        <time>2022-05-21 03:47:08</time>
      </trkpt>
      <trkpt lat="41.97667" lon="2.4138">
        <ele>485.8</ele>
        <time>2022-05-21 03:47:09</time>
      </trkpt>
      <trkpt lat="41.97669" lon="2.4138">
        <ele>486</ele>
        <time>2022-05-21 03:47:10</time>
      </trkpt>
      <trkpt lat="41.97672" lon="2.4138">
        <ele>486</ele>
        <time>2022-05-21 03:47:11</time>
      </trkpt>
      <trkpt lat="41.97674" lon="2.4138">
        <ele>486.2</ele>
        <time>2022-05-21 03:47:12</time>
      </trkpt>
      <trkpt lat="41.97676" lon="2.4138">
        <ele>486.4</ele>
        <time>2022-05-21 03:47:13</time>
      </trkpt>
      <trkpt lat="41.97678" lon="2.41379">
        <ele>486.6</ele>
        <time>2022-05-21 03:47:14</time>
      </trkpt>
      <trkpt lat="41.97679" lon="2.41379">
        <ele>486.6</ele>
        <time>2022-05-21 03:47:15</time>
      </trkpt>
      <trkpt lat="41.97681" lon="2.41379">
        <ele>486.8</ele>
        <time>2022-05-21 03:47:16</time>
      </trkpt>
      <trkpt lat="41.97683" lon="2.41379">
        <ele>487</ele>
        <time>2022-05-21 03:47:17</time>
      </trkpt>
      <trkpt lat="41.97685" lon="2.41379">
        <ele>487.2</ele>
        <time>2022-05-21 03:47:18</time>
      </trkpt>
      <trkpt lat="41.97687" lon="2.4138">
        <ele>487.4</ele>
        <time>2022-05-21 03:47:19</time>
      </trkpt>
      <trkpt lat="41.97689" lon="2.41381">
        <ele>487.6</ele>
        <time>2022-05-21 03:47:20</time>
      </trkpt>
      <trkpt lat="41.97692" lon="2.41381">
        <ele>487.6</ele>
        <time>2022-05-21 03:47:21</time>
      </trkpt>
      <trkpt lat="41.97694" lon="2.41382">
        <ele>487.8</ele>
        <time>2022-05-21 03:47:22</time>
      </trkpt>
      <trkpt lat="41.97697" lon="2.41383">
        <ele>487.8</ele>
        <time>2022-05-21 03:47:23</time>
      </trkpt>
      <trkpt lat="41.97699" lon="2.41384">
        <ele>487.8</ele>
        <time>2022-05-21 03:47:24</time>
      </trkpt>
      <trkpt lat="41.97702" lon="2.41386">
        <ele>487.8</ele>
        <time>2022-05-21 03:47:25</time>
      </trkpt>
      <trkpt lat="41.97704" lon="2.41388">
        <ele>488</ele>
        <time>2022-05-21 03:47:26</time>
      </trkpt>
      <trkpt lat="41.97707" lon="2.4139">
        <ele>488</ele>
        <time>2022-05-21 03:47:27</time>
      </trkpt>
      <trkpt lat="41.9771" lon="2.41392">
        <ele>488</ele>
        <time>2022-05-21 03:47:28</time>
      </trkpt>
      <trkpt lat="41.97712" lon="2.41394">
        <ele>488</ele>
        <time>2022-05-21 03:47:29</time>
      </trkpt>
      <trkpt lat="41.97716" lon="2.41396">
        <ele>487.8</ele>
        <time>2022-05-21 03:47:30</time>
      </trkpt>
      <trkpt lat="41.97719" lon="2.41398">
        <ele>487.8</ele>
        <time>2022-05-21 03:47:31</time>
      </trkpt>
      <trkpt lat="41.97723" lon="2.41401">
        <ele>487.6</ele>
        <time>2022-05-21 03:47:32</time>
      </trkpt>
      <trkpt lat="41.97727" lon="2.41404">
        <ele>487.4</ele>
        <time>2022-05-21 03:47:33</time>
      </trkpt>
      <trkpt lat="41.97731" lon="2.41405">
        <ele>487.2</ele>
        <time>2022-05-21 03:47:34</time>
      </trkpt>
      <trkpt lat="41.97734" lon="2.41407">
        <ele>486.8</ele>
        <time>2022-05-21 03:47:35</time>
      </trkpt>
      <trkpt lat="41.97741" lon="2.41411">
        <ele>486.2</ele>
        <time>2022-05-21 03:47:36</time>
      </trkpt>
      <trkpt lat="41.97747" lon="2.41413">
        <ele>485.6</ele>
        <time>2022-05-21 03:47:37</time>
      </trkpt>
      <trkpt lat="41.97753" lon="2.41415">
        <ele>484.8</ele>
        <time>2022-05-21 03:47:38</time>
      </trkpt>
      <trkpt lat="41.97759" lon="2.41415">
        <ele>484.2</ele>
        <time>2022-05-21 03:47:39</time>
      </trkpt>
      <trkpt lat="41.97765" lon="2.41415">
        <ele>483.4</ele>
        <time>2022-05-21 03:47:40</time>
      </trkpt>
      <trkpt lat="41.97771" lon="2.41413">
        <ele>482.8</ele>
        <time>2022-05-21 03:47:41</time>
      </trkpt>
      <trkpt lat="41.97778" lon="2.4141">
        <ele>482.2</ele>
        <time>2022-05-21 03:47:42</time>
      </trkpt>
      <trkpt lat="41.97783" lon="2.41407">
        <ele>481.6</ele>
        <time>2022-05-21 03:47:43</time>
      </trkpt>
      <trkpt lat="41.97789" lon="2.41403">
        <ele>481.2</ele>
        <time>2022-05-21 03:47:44</time>
      </trkpt>
      <trkpt lat="41.97794" lon="2.41401">
        <ele>480.8</ele>
        <time>2022-05-21 03:47:45</time>
      </trkpt>
      <trkpt lat="41.97799" lon="2.414">
        <ele>480.2</ele>
        <time>2022-05-21 03:47:46</time>
      </trkpt>
      <trkpt lat="41.97803" lon="2.41401">
        <ele>479.8</ele>
        <time>2022-05-21 03:47:47</time>
      </trkpt>
      <trkpt lat="41.97808" lon="2.41403">
        <ele>479.6</ele>
        <time>2022-05-21 03:47:48</time>
      </trkpt>
      <trkpt lat="41.97812" lon="2.41406">
        <ele>479.2</ele>
        <time>2022-05-21 03:47:49</time>
      </trkpt>
      <trkpt lat="41.97816" lon="2.41412">
        <ele>479</ele>
        <time>2022-05-21 03:47:50</time>
      </trkpt>
      <trkpt lat="41.9782" lon="2.41416">
        <ele>478.8</ele>
        <time>2022-05-21 03:47:51</time>
      </trkpt>
      <trkpt lat="41.97823" lon="2.41421">
        <ele>478.6</ele>
        <time>2022-05-21 03:47:52</time>
      </trkpt>
      <trkpt lat="41.97827" lon="2.41425">
        <ele>478.4</ele>
        <time>2022-05-21 03:47:53</time>
      </trkpt>
      <trkpt lat="41.97831" lon="2.41429">
        <ele>478.4</ele>
        <time>2022-05-21 03:47:54</time>
      </trkpt>
      <trkpt lat="41.97834" lon="2.41432">
        <ele>478.2</ele>
        <time>2022-05-21 03:47:55</time>
      </trkpt>
      <trkpt lat="41.97837" lon="2.41436">
        <ele>477.8</ele>
        <time>2022-05-21 03:47:56</time>
      </trkpt>
      <trkpt lat="41.9784" lon="2.41439">
        <ele>477.6</ele>
        <time>2022-05-21 03:47:57</time>
      </trkpt>
      <trkpt lat="41.97843" lon="2.41443">
        <ele>477.4</ele>
        <time>2022-05-21 03:47:58</time>
      </trkpt>
      <trkpt lat="41.97846" lon="2.41448">
        <ele>477.4</ele>
        <time>2022-05-21 03:47:59</time>
      </trkpt>
      <trkpt lat="41.97849" lon="2.41453">
        <ele>477.4</ele>
        <time>2022-05-21 03:48:00</time>
      </trkpt>
      <trkpt lat="41.9785" lon="2.41456">
        <ele>477.4</ele>
        <time>2022-05-21 03:48:01</time>
      </trkpt>
      <trkpt lat="41.97853" lon="2.41465">
        <ele>477.4</ele>
        <time>2022-05-21 03:48:02</time>
      </trkpt>
      <trkpt lat="41.97853" lon="2.4147">
        <ele>477.6</ele>
        <time>2022-05-21 03:48:03</time>
      </trkpt>
      <trkpt lat="41.97852" lon="2.41478">
        <ele>477.6</ele>
        <time>2022-05-21 03:48:04</time>
      </trkpt>
      <trkpt lat="41.97852" lon="2.41484">
        <ele>477.8</ele>
        <time>2022-05-21 03:48:05</time>
      </trkpt>
      <trkpt lat="41.97852" lon="2.4149">
        <ele>478</ele>
        <time>2022-05-21 03:48:06</time>
      </trkpt>
      <trkpt lat="41.97851" lon="2.41495">
        <ele>478.4</ele>
        <time>2022-05-21 03:48:07</time>
      </trkpt>
      <trkpt lat="41.9785" lon="2.41499">
        <ele>478.6</ele>
        <time>2022-05-21 03:48:08</time>
      </trkpt>
      <trkpt lat="41.97849" lon="2.41504">
        <ele>478.8</ele>
        <time>2022-05-21 03:48:09</time>
      </trkpt>
      <trkpt lat="41.97848" lon="2.41508">
        <ele>479</ele>
        <time>2022-05-21 03:48:10</time>
      </trkpt>
      <trkpt lat="41.97848" lon="2.41511">
        <ele>479.4</ele>
        <time>2022-05-21 03:48:11</time>
      </trkpt>
      <trkpt lat="41.97847" lon="2.41517">
        <ele>479.6</ele>
        <time>2022-05-21 03:48:12</time>
      </trkpt>
      <trkpt lat="41.97846" lon="2.41521">
        <ele>479.8</ele>
        <time>2022-05-21 03:48:13</time>
      </trkpt>
      <trkpt lat="41.97845" lon="2.41525">
        <ele>480.2</ele>
        <time>2022-05-21 03:48:14</time>
      </trkpt>
      <trkpt lat="41.97844" lon="2.41529">
        <ele>480.4</ele>
        <time>2022-05-21 03:48:15</time>
      </trkpt>
      <trkpt lat="41.97844" lon="2.41533">
        <ele>480.6</ele>
        <time>2022-05-21 03:48:16</time>
      </trkpt>
      <trkpt lat="41.97843" lon="2.41536">
        <ele>480.8</ele>
        <time>2022-05-21 03:48:17</time>
      </trkpt>
      <trkpt lat="41.97842" lon="2.4154">
        <ele>481</ele>
        <time>2022-05-21 03:48:18</time>
      </trkpt>
      <trkpt lat="41.97842" lon="2.41544">
        <ele>481.4</ele>
        <time>2022-05-21 03:48:19</time>
      </trkpt>
      <trkpt lat="41.97841" lon="2.41547">
        <ele>481.4</ele>
        <time>2022-05-21 03:48:20</time>
      </trkpt>
      <trkpt lat="41.9784" lon="2.4155">
        <ele>481.6</ele>
        <time>2022-05-21 03:48:21</time>
      </trkpt>
      <trkpt lat="41.97839" lon="2.41554">
        <ele>481.8</ele>
        <time>2022-05-21 03:48:22</time>
      </trkpt>
      <trkpt lat="41.97838" lon="2.41558">
        <ele>482</ele>
        <time>2022-05-21 03:48:23</time>
      </trkpt>
      <trkpt lat="41.97837" lon="2.41562">
        <ele>482.2</ele>
        <time>2022-05-21 03:48:24</time>
      </trkpt>
      <trkpt lat="41.97836" lon="2.41565">
        <ele>482.4</ele>
        <time>2022-05-21 03:48:25</time>
      </trkpt>
      <trkpt lat="41.97835" lon="2.41569">
        <ele>482.6</ele>
        <time>2022-05-21 03:48:26</time>
      </trkpt>
      <trkpt lat="41.97834" lon="2.41572">
        <ele>482.8</ele>
        <time>2022-05-21 03:48:27</time>
      </trkpt>
      <trkpt lat="41.97833" lon="2.41575">
        <ele>482.8</ele>
        <time>2022-05-21 03:48:28</time>
      </trkpt>
      <trkpt lat="41.97833" lon="2.41578">
        <ele>483</ele>
        <time>2022-05-21 03:48:29</time>
      </trkpt>
      <trkpt lat="41.97832" lon="2.41581">
        <ele>483.2</ele>
        <time>2022-05-21 03:48:30</time>
      </trkpt>
      <trkpt lat="41.97832" lon="2.41584">
        <ele>483.6</ele>
        <time>2022-05-21 03:48:31</time>
      </trkpt>
      <trkpt lat="41.97832" lon="2.41587">
        <ele>483.8</ele>
        <time>2022-05-21 03:48:32</time>
      </trkpt>
      <trkpt lat="41.97832" lon="2.4159">
        <ele>484</ele>
        <time>2022-05-21 03:48:33</time>
      </trkpt>
      <trkpt lat="41.97832" lon="2.41593">
        <ele>484.2</ele>
        <time>2022-05-21 03:48:34</time>
      </trkpt>
      <trkpt lat="41.97832" lon="2.41596">
        <ele>484.6</ele>
        <time>2022-05-21 03:48:35</time>
      </trkpt>
      <trkpt lat="41.97832" lon="2.41599">
        <ele>484.8</ele>
        <time>2022-05-21 03:48:36</time>
      </trkpt>
      <trkpt lat="41.97833" lon="2.41602">
        <ele>485</ele>
        <time>2022-05-21 03:48:37</time>
      </trkpt>
      <trkpt lat="41.97834" lon="2.41605">
        <ele>485.4</ele>
        <time>2022-05-21 03:48:38</time>
      </trkpt>
      <trkpt lat="41.97835" lon="2.41608">
        <ele>485.6</ele>
        <time>2022-05-21 03:48:39</time>
      </trkpt>
      <trkpt lat="41.97836" lon="2.4161">
        <ele>485.8</ele>
        <time>2022-05-21 03:48:40</time>
      </trkpt>
      <trkpt lat="41.97837" lon="2.41613">
        <ele>486</ele>
        <time>2022-05-21 03:48:41</time>
      </trkpt>
      <trkpt lat="41.97839" lon="2.41616">
        <ele>486.2</ele>
        <time>2022-05-21 03:48:42</time>
      </trkpt>
      <trkpt lat="41.9784" lon="2.41618">
        <ele>486.2</ele>
        <time>2022-05-21 03:48:43</time>
      </trkpt>
      <trkpt lat="41.97842" lon="2.4162">
        <ele>486.4</ele>
        <time>2022-05-21 03:48:44</time>
      </trkpt>
      <trkpt lat="41.97844" lon="2.41622">
        <ele>486.6</ele>
        <time>2022-05-21 03:48:45</time>
      </trkpt>
      <trkpt lat="41.97846" lon="2.41624">
        <ele>486.8</ele>
        <time>2022-05-21 03:48:46</time>
      </trkpt>
      <trkpt lat="41.97848" lon="2.41625">
        <ele>487</ele>
        <time>2022-05-21 03:48:47</time>
      </trkpt>
      <trkpt lat="41.9785" lon="2.41627">
        <ele>487</ele>
        <time>2022-05-21 03:48:48</time>
      </trkpt>
      <trkpt lat="41.97852" lon="2.41629">
        <ele>487.2</ele>
        <time>2022-05-21 03:48:49</time>
      </trkpt>
      <trkpt lat="41.97855" lon="2.4163">
        <ele>487.2</ele>
        <time>2022-05-21 03:48:50</time>
      </trkpt>
      <trkpt lat="41.97857" lon="2.41632">
        <ele>487.4</ele>
        <time>2022-05-21 03:48:51</time>
      </trkpt>
      <trkpt lat="41.9786" lon="2.41633">
        <ele>487.4</ele>
        <time>2022-05-21 03:48:52</time>
      </trkpt>
      <trkpt lat="41.97862" lon="2.41634">
        <ele>487.6</ele>
        <time>2022-05-21 03:48:53</time>
      </trkpt>
      <trkpt lat="41.97865" lon="2.41636">
        <ele>487.6</ele>
        <time>2022-05-21 03:48:54</time>
      </trkpt>
      <trkpt lat="41.97868" lon="2.41637">
        <ele>487.8</ele>
        <time>2022-05-21 03:48:55</time>
      </trkpt>
      <trkpt lat="41.9787" lon="2.41639">
        <ele>487.8</ele>
        <time>2022-05-21 03:48:56</time>
      </trkpt>
      <trkpt lat="41.97873" lon="2.41641">
        <ele>488</ele>
        <time>2022-05-21 03:48:57</time>
      </trkpt>
      <trkpt lat="41.97875" lon="2.41643">
        <ele>488</ele>
        <time>2022-05-21 03:48:58</time>
      </trkpt>
      <trkpt lat="41.97878" lon="2.41645">
        <ele>488</ele>
        <time>2022-05-21 03:48:59</time>
      </trkpt>
      <trkpt lat="41.9788" lon="2.41647">
        <ele>488.2</ele>
        <time>2022-05-21 03:49:00</time>
      </trkpt>
      <trkpt lat="41.97882" lon="2.41649">
        <ele>488.2</ele>
        <time>2022-05-21 03:49:01</time>
      </trkpt>
      <trkpt lat="41.97886" lon="2.41651">
        <ele>488.2</ele>
        <time>2022-05-21 03:49:02</time>
      </trkpt>
      <trkpt lat="41.97888" lon="2.41653">
        <ele>488.2</ele>
        <time>2022-05-21 03:49:03</time>
      </trkpt>
      <trkpt lat="41.9789" lon="2.41655">
        <ele>488.4</ele>
        <time>2022-05-21 03:49:04</time>
      </trkpt>
      <trkpt lat="41.97893" lon="2.41657">
        <ele>488.4</ele>
        <time>2022-05-21 03:49:05</time>
      </trkpt>
      <trkpt lat="41.97896" lon="2.41659">
        <ele>488.4</ele>
        <time>2022-05-21 03:49:06</time>
      </trkpt>
      <trkpt lat="41.97899" lon="2.41662">
        <ele>488.4</ele>
        <time>2022-05-21 03:49:07</time>
      </trkpt>
      <trkpt lat="41.97903" lon="2.41665">
        <ele>488.2</ele>
        <time>2022-05-21 03:49:08</time>
      </trkpt>
      <trkpt lat="41.97906" lon="2.41667">
        <ele>488.2</ele>
        <time>2022-05-21 03:49:09</time>
      </trkpt>
      <trkpt lat="41.9791" lon="2.41671">
        <ele>488.2</ele>
        <time>2022-05-21 03:49:10</time>
      </trkpt>
      <trkpt lat="41.97913" lon="2.41674">
        <ele>488.2</ele>
        <time>2022-05-21 03:49:11</time>
      </trkpt>
      <trkpt lat="41.97916" lon="2.41677">
        <ele>488.2</ele>
        <time>2022-05-21 03:49:12</time>
      </trkpt>
      <trkpt lat="41.97919" lon="2.41681">
        <ele>488.2</ele>
        <time>2022-05-21 03:49:13</time>
      </trkpt>
      <trkpt lat="41.97922" lon="2.41684">
        <ele>488.2</ele>
        <time>2022-05-21 03:49:14</time>
      </trkpt>
      <trkpt lat="41.97926" lon="2.41688">
        <ele>488.2</ele>
        <time>2022-05-21 03:49:15</time>
      </trkpt>
      <trkpt lat="41.97929" lon="2.41691">
        <ele>488.2</ele>
        <time>2022-05-21 03:49:16</time>
      </trkpt>
      <trkpt lat="41.97933" lon="2.41694">
        <ele>488.2</ele>
        <time>2022-05-21 03:49:17</time>
      </trkpt>
      <trkpt lat="41.97937" lon="2.41696">
        <ele>488.2</ele>
        <time>2022-05-21 03:49:18</time>
      </trkpt>
      <trkpt lat="41.9794" lon="2.41698">
        <ele>488</ele>
        <time>2022-05-21 03:49:19</time>
      </trkpt>
      <trkpt lat="41.97945" lon="2.41701">
        <ele>488</ele>
        <time>2022-05-21 03:49:20</time>
      </trkpt>
      <trkpt lat="41.97948" lon="2.41703">
        <ele>487.8</ele>
        <time>2022-05-21 03:49:21</time>
      </trkpt>
      <trkpt lat="41.97953" lon="2.41706">
        <ele>487.6</ele>
        <time>2022-05-21 03:49:22</time>
      </trkpt>
      <trkpt lat="41.97956" lon="2.41709">
        <ele>487.4</ele>
        <time>2022-05-21 03:49:23</time>
      </trkpt>
      <trkpt lat="41.97959" lon="2.41714">
        <ele>487.2</ele>
        <time>2022-05-21 03:49:24</time>
      </trkpt>
      <trkpt lat="41.97961" lon="2.41719">
        <ele>487.2</ele>
        <time>2022-05-21 03:49:25</time>
      </trkpt>
      <trkpt lat="41.97962" lon="2.41725">
        <ele>487.2</ele>
        <time>2022-05-21 03:49:26</time>
      </trkpt>
      <trkpt lat="41.97962" lon="2.4173">
        <ele>487.2</ele>
        <time>2022-05-21 03:49:27</time>
      </trkpt>
      <trkpt lat="41.97961" lon="2.41736">
        <ele>487.2</ele>
        <time>2022-05-21 03:49:28</time>
      </trkpt>
      <trkpt lat="41.97959" lon="2.41742">
        <ele>487.2</ele>
        <time>2022-05-21 03:49:29</time>
      </trkpt>
      <trkpt lat="41.97957" lon="2.41747">
        <ele>487.2</ele>
        <time>2022-05-21 03:49:30</time>
      </trkpt>
      <trkpt lat="41.97954" lon="2.41752">
        <ele>487.4</ele>
        <time>2022-05-21 03:49:31</time>
      </trkpt>
      <trkpt lat="41.97952" lon="2.41757">
        <ele>487.6</ele>
        <time>2022-05-21 03:49:32</time>
      </trkpt>
      <trkpt lat="41.97951" lon="2.41762">
        <ele>487.8</ele>
        <time>2022-05-21 03:49:33</time>
      </trkpt>
      <trkpt lat="41.97949" lon="2.41766">
        <ele>488</ele>
        <time>2022-05-21 03:49:34</time>
      </trkpt>
      <trkpt lat="41.97947" lon="2.41769">
        <ele>488.2</ele>
        <time>2022-05-21 03:49:35</time>
      </trkpt>
      <trkpt lat="41.97946" lon="2.41772">
        <ele>488.4</ele>
        <time>2022-05-21 03:49:36</time>
      </trkpt>
      <trkpt lat="41.97945" lon="2.41775">
        <ele>488.6</ele>
        <time>2022-05-21 03:49:37</time>
      </trkpt>
      <trkpt lat="41.97944" lon="2.41778">
        <ele>489</ele>
        <time>2022-05-21 03:49:38</time>
      </trkpt>
      <trkpt lat="41.97943" lon="2.4178">
        <ele>489.2</ele>
        <time>2022-05-21 03:49:39</time>
      </trkpt>
      <trkpt lat="41.97942" lon="2.41783">
        <ele>489.4</ele>
        <time>2022-05-21 03:49:40</time>
      </trkpt>
      <trkpt lat="41.97941" lon="2.41784">
        <ele>489.8</ele>
        <time>2022-05-21 03:49:41</time>
      </trkpt>
      <trkpt lat="41.9794" lon="2.41786">
        <ele>490</ele>
        <time>2022-05-21 03:49:42</time>
      </trkpt>
      <trkpt lat="41.97939" lon="2.41788">
        <ele>490.4</ele>
        <time>2022-05-21 03:49:43</time>
      </trkpt>
      <trkpt lat="41.97938" lon="2.4179">
        <ele>490.6</ele>
        <time>2022-05-21 03:49:44</time>
      </trkpt>
      <trkpt lat="41.97937" lon="2.41791">
        <ele>491</ele>
        <time>2022-05-21 03:49:45</time>
      </trkpt>
      <trkpt lat="41.97936" lon="2.41792">
        <ele>491.2</ele>
        <time>2022-05-21 03:49:46</time>
      </trkpt>
      <trkpt lat="41.97935" lon="2.41794">
        <ele>491.6</ele>
        <time>2022-05-21 03:49:47</time>
      </trkpt>
      <trkpt lat="41.97933" lon="2.41795">
        <ele>491.8</ele>
        <time>2022-05-21 03:49:48</time>
      </trkpt>
      <trkpt lat="41.97932" lon="2.41797">
        <ele>492.2</ele>
        <time>2022-05-21 03:49:49</time>
      </trkpt>
      <trkpt lat="41.9793" lon="2.41799">
        <ele>492.4</ele>
        <time>2022-05-21 03:49:50</time>
      </trkpt>
      <trkpt lat="41.97929" lon="2.418">
        <ele>492.8</ele>
        <time>2022-05-21 03:49:51</time>
      </trkpt>
      <trkpt lat="41.97927" lon="2.41801">
        <ele>493</ele>
        <time>2022-05-21 03:49:52</time>
      </trkpt>
      <trkpt lat="41.97926" lon="2.41803">
        <ele>493.2</ele>
        <time>2022-05-21 03:49:53</time>
      </trkpt>
      <trkpt lat="41.97924" lon="2.41805">
        <ele>493.4</ele>
        <time>2022-05-21 03:49:54</time>
      </trkpt>
      <trkpt lat="41.97923" lon="2.41807">
        <ele>493.6</ele>
        <time>2022-05-21 03:49:55</time>
      </trkpt>
      <trkpt lat="41.97923" lon="2.41809">
        <ele>493.8</ele>
        <time>2022-05-21 03:49:56</time>
      </trkpt>
      <trkpt lat="41.97922" lon="2.41812">
        <ele>494</ele>
        <time>2022-05-21 03:49:57</time>
      </trkpt>
      <trkpt lat="41.97922" lon="2.41816">
        <ele>494.2</ele>
        <time>2022-05-21 03:49:58</time>
      </trkpt>
      <trkpt lat="41.97922" lon="2.41819">
        <ele>494.6</ele>
        <time>2022-05-21 03:49:59</time>
      </trkpt>
      <trkpt lat="41.97923" lon="2.41821">
        <ele>494.6</ele>
        <time>2022-05-21 03:50:00</time>
      </trkpt>
      <trkpt lat="41.97924" lon="2.41823">
        <ele>494.8</ele>
        <time>2022-05-21 03:50:01</time>
      </trkpt>
      <trkpt lat="41.97925" lon="2.41824">
        <ele>495</ele>
        <time>2022-05-21 03:50:02</time>
      </trkpt>
      <trkpt lat="41.97927" lon="2.41825">
        <ele>495.2</ele>
        <time>2022-05-21 03:50:03</time>
      </trkpt>
      <trkpt lat="41.97929" lon="2.41826">
        <ele>495.4</ele>
        <time>2022-05-21 03:50:04</time>
      </trkpt>
      <trkpt lat="41.97931" lon="2.41827">
        <ele>495.6</ele>
        <time>2022-05-21 03:50:05</time>
      </trkpt>
      <trkpt lat="41.97932" lon="2.41827">
        <ele>495.8</ele>
        <time>2022-05-21 03:50:06</time>
      </trkpt>
      <trkpt lat="41.97934" lon="2.41827">
        <ele>495.8</ele>
        <time>2022-05-21 03:50:07</time>
      </trkpt>
      <trkpt lat="41.97936" lon="2.41828">
        <ele>496</ele>
        <time>2022-05-21 03:50:08</time>
      </trkpt>
      <trkpt lat="41.97938" lon="2.41829">
        <ele>496.2</ele>
        <time>2022-05-21 03:50:09</time>
      </trkpt>
      <trkpt lat="41.9794" lon="2.4183">
        <ele>496.4</ele>
        <time>2022-05-21 03:50:10</time>
      </trkpt>
      <trkpt lat="41.97942" lon="2.41831">
        <ele>496.6</ele>
        <time>2022-05-21 03:50:11</time>
      </trkpt>
      <trkpt lat="41.97943" lon="2.41833">
        <ele>496.8</ele>
        <time>2022-05-21 03:50:12</time>
      </trkpt>
      <trkpt lat="41.97945" lon="2.41834">
        <ele>497</ele>
        <time>2022-05-21 03:50:13</time>
      </trkpt>
      <trkpt lat="41.97947" lon="2.41837">
        <ele>497.2</ele>
        <time>2022-05-21 03:50:14</time>
      </trkpt>
      <trkpt lat="41.97948" lon="2.41839">
        <ele>497.4</ele>
        <time>2022-05-21 03:50:15</time>
      </trkpt>
      <trkpt lat="41.97949" lon="2.41842">
        <ele>497.6</ele>
        <time>2022-05-21 03:50:16</time>
      </trkpt>
      <trkpt lat="41.9795" lon="2.41844">
        <ele>497.8</ele>
        <time>2022-05-21 03:50:17</time>
      </trkpt>
      <trkpt lat="41.9795" lon="2.41846">
        <ele>498</ele>
        <time>2022-05-21 03:50:18</time>
      </trkpt>
      <trkpt lat="41.97952" lon="2.41849">
        <ele>498.2</ele>
        <time>2022-05-21 03:50:19</time>
      </trkpt>
      <trkpt lat="41.97952" lon="2.41851">
        <ele>498.4</ele>
        <time>2022-05-21 03:50:20</time>
      </trkpt>
      <trkpt lat="41.97953" lon="2.41853">
        <ele>498.6</ele>
        <time>2022-05-21 03:50:21</time>
      </trkpt>
      <trkpt lat="41.97955" lon="2.41855">
        <ele>498.8</ele>
        <time>2022-05-21 03:50:22</time>
      </trkpt>
      <trkpt lat="41.97956" lon="2.41858">
        <ele>499</ele>
        <time>2022-05-21 03:50:23</time>
      </trkpt>
      <trkpt lat="41.97957" lon="2.4186">
        <ele>499.2</ele>
        <time>2022-05-21 03:50:24</time>
      </trkpt>
      <trkpt lat="41.97958" lon="2.41862">
        <ele>499.4</ele>
        <time>2022-05-21 03:50:25</time>
      </trkpt>
      <trkpt lat="41.97959" lon="2.41865">
        <ele>499.6</ele>
        <time>2022-05-21 03:50:26</time>
      </trkpt>
      <trkpt lat="41.9796" lon="2.41867">
        <ele>499.8</ele>
        <time>2022-05-21 03:50:27</time>
      </trkpt>
      <trkpt lat="41.97961" lon="2.41869">
        <ele>500</ele>
        <time>2022-05-21 03:50:28</time>
      </trkpt>
      <trkpt lat="41.97963" lon="2.41871">
        <ele>500.2</ele>
        <time>2022-05-21 03:50:29</time>
      </trkpt>
      <trkpt lat="41.97964" lon="2.41874">
        <ele>500.6</ele>
        <time>2022-05-21 03:50:30</time>
      </trkpt>
      <trkpt lat="41.97965" lon="2.41876">
        <ele>500.8</ele>
        <time>2022-05-21 03:50:31</time>
      </trkpt>
      <trkpt lat="41.97966" lon="2.41878">
        <ele>501</ele>
        <time>2022-05-21 03:50:32</time>
      </trkpt>
      <trkpt lat="41.97967" lon="2.4188">
        <ele>501.2</ele>
        <time>2022-05-21 03:50:33</time>
      </trkpt>
      <trkpt lat="41.97968" lon="2.41882">
        <ele>501.4</ele>
        <time>2022-05-21 03:50:34</time>
      </trkpt>
      <trkpt lat="41.97969" lon="2.41884">
        <ele>501.6</ele>
        <time>2022-05-21 03:50:35</time>
      </trkpt>
      <trkpt lat="41.97969" lon="2.41886">
        <ele>501.8</ele>
        <time>2022-05-21 03:50:36</time>
      </trkpt>
      <trkpt lat="41.9797" lon="2.41888">
        <ele>502</ele>
        <time>2022-05-21 03:50:37</time>
      </trkpt>
      <trkpt lat="41.97971" lon="2.41891">
        <ele>502.2</ele>
        <time>2022-05-21 03:50:38</time>
      </trkpt>
      <trkpt lat="41.97972" lon="2.41893">
        <ele>502.4</ele>
        <time>2022-05-21 03:50:39</time>
      </trkpt>
      <trkpt lat="41.97974" lon="2.41895">
        <ele>502.4</ele>
        <time>2022-05-21 03:50:40</time>
      </trkpt>
      <trkpt lat="41.97974" lon="2.41897">
        <ele>502.6</ele>
        <time>2022-05-21 03:50:41</time>
      </trkpt>
      <trkpt lat="41.97976" lon="2.41899">
        <ele>502.8</ele>
        <time>2022-05-21 03:50:42</time>
      </trkpt>
      <trkpt lat="41.97977" lon="2.41901">
        <ele>503</ele>
        <time>2022-05-21 03:50:43</time>
      </trkpt>
      <trkpt lat="41.97977" lon="2.41904">
        <ele>503.2</ele>
        <time>2022-05-21 03:50:44</time>
      </trkpt>
      <trkpt lat="41.97978" lon="2.41906">
        <ele>503.4</ele>
        <time>2022-05-21 03:50:45</time>
      </trkpt>
      <trkpt lat="41.97979" lon="2.41908">
        <ele>503.6</ele>
        <time>2022-05-21 03:50:46</time>
      </trkpt>
      <trkpt lat="41.97979" lon="2.41911">
        <ele>503.8</ele>
        <time>2022-05-21 03:50:47</time>
      </trkpt>
      <trkpt lat="41.9798" lon="2.41913">
        <ele>504</ele>
        <time>2022-05-21 03:50:48</time>
      </trkpt>
      <trkpt lat="41.9798" lon="2.41915">
        <ele>504.2</ele>
        <time>2022-05-21 03:50:49</time>
      </trkpt>
      <trkpt lat="41.97981" lon="2.41917">
        <ele>504.4</ele>
        <time>2022-05-21 03:50:50</time>
      </trkpt>
      <trkpt lat="41.97982" lon="2.41919">
        <ele>504.6</ele>
        <time>2022-05-21 03:50:51</time>
      </trkpt>
      <trkpt lat="41.97982" lon="2.41921">
        <ele>504.8</ele>
        <time>2022-05-21 03:50:52</time>
      </trkpt>
      <trkpt lat="41.97983" lon="2.41924">
        <ele>505</ele>
        <time>2022-05-21 03:50:53</time>
      </trkpt>
      <trkpt lat="41.97983" lon="2.41926">
        <ele>505.2</ele>
        <time>2022-05-21 03:50:54</time>
      </trkpt>
      <trkpt lat="41.97984" lon="2.41928">
        <ele>505.4</ele>
        <time>2022-05-21 03:50:55</time>
      </trkpt>
      <trkpt lat="41.97985" lon="2.4193">
        <ele>505.6</ele>
        <time>2022-05-21 03:50:56</time>
      </trkpt>
      <trkpt lat="41.97986" lon="2.41933">
        <ele>505.8</ele>
        <time>2022-05-21 03:50:57</time>
      </trkpt>
      <trkpt lat="41.97987" lon="2.41935">
        <ele>506</ele>
        <time>2022-05-21 03:50:58</time>
      </trkpt>
      <trkpt lat="41.97987" lon="2.41937">
        <ele>506.2</ele>
        <time>2022-05-21 03:50:59</time>
      </trkpt>
      <trkpt lat="41.97989" lon="2.41939">
        <ele>506.4</ele>
        <time>2022-05-21 03:51:00</time>
      </trkpt>
      <trkpt lat="41.97989" lon="2.41941">
        <ele>506.6</ele>
        <time>2022-05-21 03:51:01</time>
      </trkpt>
      <trkpt lat="41.9799" lon="2.41943">
        <ele>506.8</ele>
        <time>2022-05-21 03:51:02</time>
      </trkpt>
      <trkpt lat="41.97991" lon="2.41945">
        <ele>507</ele>
        <time>2022-05-21 03:51:03</time>
      </trkpt>
      <trkpt lat="41.97992" lon="2.41947">
        <ele>507.2</ele>
        <time>2022-05-21 03:51:04</time>
      </trkpt>
      <trkpt lat="41.97993" lon="2.41949">
        <ele>507.4</ele>
        <time>2022-05-21 03:51:05</time>
      </trkpt>
      <trkpt lat="41.97994" lon="2.4195">
        <ele>507.4</ele>
        <time>2022-05-21 03:51:06</time>
      </trkpt>
      <trkpt lat="41.97996" lon="2.41952">
        <ele>507.6</ele>
        <time>2022-05-21 03:51:07</time>
      </trkpt>
      <trkpt lat="41.97997" lon="2.41953">
        <ele>507.8</ele>
        <time>2022-05-21 03:51:08</time>
      </trkpt>
      <trkpt lat="41.97999" lon="2.41955">
        <ele>508</ele>
        <time>2022-05-21 03:51:09</time>
      </trkpt>
      <trkpt lat="41.98001" lon="2.41956">
        <ele>508.2</ele>
        <time>2022-05-21 03:51:10</time>
      </trkpt>
      <trkpt lat="41.98002" lon="2.41958">
        <ele>508.4</ele>
        <time>2022-05-21 03:51:11</time>
      </trkpt>
      <trkpt lat="41.98004" lon="2.41959">
        <ele>508.6</ele>
        <time>2022-05-21 03:51:12</time>
      </trkpt>
      <trkpt lat="41.98005" lon="2.4196">
        <ele>508.8</ele>
        <time>2022-05-21 03:51:13</time>
      </trkpt>
      <trkpt lat="41.98007" lon="2.41962">
        <ele>508.8</ele>
        <time>2022-05-21 03:51:14</time>
      </trkpt>
      <trkpt lat="41.98009" lon="2.41963">
        <ele>509</ele>
        <time>2022-05-21 03:51:15</time>
      </trkpt>
      <trkpt lat="41.98011" lon="2.41965">
        <ele>509.2</ele>
        <time>2022-05-21 03:51:16</time>
      </trkpt>
      <trkpt lat="41.98013" lon="2.41967">
        <ele>509.2</ele>
        <time>2022-05-21 03:51:17</time>
      </trkpt>
      <trkpt lat="41.98015" lon="2.41969">
        <ele>509.4</ele>
        <time>2022-05-21 03:51:18</time>
      </trkpt>
      <trkpt lat="41.98018" lon="2.41971">
        <ele>509.6</ele>
        <time>2022-05-21 03:51:19</time>
      </trkpt>
      <trkpt lat="41.98019" lon="2.41973">
        <ele>509.6</ele>
        <time>2022-05-21 03:51:20</time>
      </trkpt>
      <trkpt lat="41.98021" lon="2.41975">
        <ele>509.8</ele>
        <time>2022-05-21 03:51:21</time>
      </trkpt>
      <trkpt lat="41.98023" lon="2.41977">
        <ele>510</ele>
        <time>2022-05-21 03:51:22</time>
      </trkpt>
      <trkpt lat="41.98025" lon="2.41979">
        <ele>510.2</ele>
        <time>2022-05-21 03:51:23</time>
      </trkpt>
      <trkpt lat="41.98027" lon="2.41981">
        <ele>510.4</ele>
        <time>2022-05-21 03:51:24</time>
      </trkpt>
      <trkpt lat="41.98028" lon="2.41984">
        <ele>510.4</ele>
        <time>2022-05-21 03:51:25</time>
      </trkpt>
      <trkpt lat="41.9803" lon="2.41986">
        <ele>510.6</ele>
        <time>2022-05-21 03:51:26</time>
      </trkpt>
      <trkpt lat="41.98032" lon="2.41988">
        <ele>510.8</ele>
        <time>2022-05-21 03:51:27</time>
      </trkpt>
      <trkpt lat="41.98033" lon="2.4199">
        <ele>511</ele>
        <time>2022-05-21 03:51:28</time>
      </trkpt>
      <trkpt lat="41.98035" lon="2.41992">
        <ele>511.2</ele>
        <time>2022-05-21 03:51:29</time>
      </trkpt>
      <trkpt lat="41.98037" lon="2.41995">
        <ele>511.4</ele>
        <time>2022-05-21 03:51:30</time>
      </trkpt>
      <trkpt lat="41.98038" lon="2.41997">
        <ele>511.6</ele>
        <time>2022-05-21 03:51:31</time>
      </trkpt>
      <trkpt lat="41.9804" lon="2.41999">
        <ele>511.8</ele>
        <time>2022-05-21 03:51:32</time>
      </trkpt>
      <trkpt lat="41.98042" lon="2.42001">
        <ele>512</ele>
        <time>2022-05-21 03:51:33</time>
      </trkpt>
      <trkpt lat="41.98043" lon="2.42003">
        <ele>512.2</ele>
        <time>2022-05-21 03:51:34</time>
      </trkpt>
      <trkpt lat="41.98045" lon="2.42004">
        <ele>512.4</ele>
        <time>2022-05-21 03:51:35</time>
      </trkpt>
      <trkpt lat="41.98046" lon="2.42006">
        <ele>512.6</ele>
        <time>2022-05-21 03:51:36</time>
      </trkpt>
      <trkpt lat="41.98048" lon="2.42008">
        <ele>512.6</ele>
        <time>2022-05-21 03:51:37</time>
      </trkpt>
      <trkpt lat="41.9805" lon="2.4201">
        <ele>512.8</ele>
        <time>2022-05-21 03:51:38</time>
      </trkpt>
      <trkpt lat="41.98052" lon="2.42012">
        <ele>513</ele>
        <time>2022-05-21 03:51:39</time>
      </trkpt>
      <trkpt lat="41.98053" lon="2.42014">
        <ele>513.2</ele>
        <time>2022-05-21 03:51:40</time>
      </trkpt>
      <trkpt lat="41.98055" lon="2.42017">
        <ele>513.4</ele>
        <time>2022-05-21 03:51:41</time>
      </trkpt>
      <trkpt lat="41.98056" lon="2.42019">
        <ele>513.6</ele>
        <time>2022-05-21 03:51:42</time>
      </trkpt>
      <trkpt lat="41.98058" lon="2.42021">
        <ele>513.6</ele>
        <time>2022-05-21 03:51:43</time>
      </trkpt>
      <trkpt lat="41.9806" lon="2.42023">
        <ele>513.6</ele>
        <time>2022-05-21 03:51:44</time>
      </trkpt>
      <trkpt lat="41.98063" lon="2.42025">
        <ele>513.8</ele>
        <time>2022-05-21 03:51:45</time>
      </trkpt>
      <trkpt lat="41.98064" lon="2.42027">
        <ele>514</ele>
        <time>2022-05-21 03:51:46</time>
      </trkpt>
      <trkpt lat="41.98066" lon="2.42029">
        <ele>514.2</ele>
        <time>2022-05-21 03:51:47</time>
      </trkpt>
      <trkpt lat="41.98068" lon="2.42031">
        <ele>514.4</ele>
        <time>2022-05-21 03:51:48</time>
      </trkpt>
      <trkpt lat="41.9807" lon="2.42033">
        <ele>514.4</ele>
        <time>2022-05-21 03:51:49</time>
      </trkpt>
      <trkpt lat="41.98072" lon="2.42035">
        <ele>514.6</ele>
        <time>2022-05-21 03:51:50</time>
      </trkpt>
      <trkpt lat="41.98074" lon="2.42036">
        <ele>514.8</ele>
        <time>2022-05-21 03:51:51</time>
      </trkpt>
      <trkpt lat="41.98076" lon="2.42037">
        <ele>515</ele>
        <time>2022-05-21 03:51:52</time>
      </trkpt>
      <trkpt lat="41.98078" lon="2.42039">
        <ele>515.2</ele>
        <time>2022-05-21 03:51:53</time>
      </trkpt>
      <trkpt lat="41.9808" lon="2.42039">
        <ele>515.4</ele>
        <time>2022-05-21 03:51:54</time>
      </trkpt>
      <trkpt lat="41.98082" lon="2.4204">
        <ele>515.6</ele>
        <time>2022-05-21 03:51:55</time>
      </trkpt>
      <trkpt lat="41.98084" lon="2.42041">
        <ele>515.8</ele>
        <time>2022-05-21 03:51:56</time>
      </trkpt>
      <trkpt lat="41.98086" lon="2.42041">
        <ele>515.8</ele>
        <time>2022-05-21 03:51:57</time>
      </trkpt>
      <trkpt lat="41.98088" lon="2.42042">
        <ele>516</ele>
        <time>2022-05-21 03:51:58</time>
      </trkpt>
      <trkpt lat="41.98091" lon="2.42042">
        <ele>516.2</ele>
        <time>2022-05-21 03:51:59</time>
      </trkpt>
      <trkpt lat="41.98093" lon="2.42042">
        <ele>516.2</ele>
        <time>2022-05-21 03:52:00</time>
      </trkpt>
      <trkpt lat="41.98096" lon="2.42043">
        <ele>516.4</ele>
        <time>2022-05-21 03:52:01</time>
      </trkpt>
      <trkpt lat="41.98098" lon="2.42044">
        <ele>516.6</ele>
        <time>2022-05-21 03:52:02</time>
      </trkpt>
      <trkpt lat="41.98101" lon="2.42046">
        <ele>516.6</ele>
        <time>2022-05-21 03:52:03</time>
      </trkpt>
      <trkpt lat="41.98103" lon="2.42047">
        <ele>516.8</ele>
        <time>2022-05-21 03:52:04</time>
      </trkpt>
      <trkpt lat="41.98105" lon="2.42049">
        <ele>516.8</ele>
        <time>2022-05-21 03:52:05</time>
      </trkpt>
      <trkpt lat="41.98107" lon="2.42051">
        <ele>517</ele>
        <time>2022-05-21 03:52:06</time>
      </trkpt>
      <trkpt lat="41.9811" lon="2.42053">
        <ele>517</ele>
        <time>2022-05-21 03:52:07</time>
      </trkpt>
      <trkpt lat="41.98112" lon="2.42055">
        <ele>517.2</ele>
        <time>2022-05-21 03:52:08</time>
      </trkpt>
      <trkpt lat="41.98114" lon="2.42058">
        <ele>517.2</ele>
        <time>2022-05-21 03:52:09</time>
      </trkpt>
      <trkpt lat="41.98116" lon="2.42061">
        <ele>517.2</ele>
        <time>2022-05-21 03:52:10</time>
      </trkpt>
      <trkpt lat="41.98118" lon="2.42063">
        <ele>517.4</ele>
        <time>2022-05-21 03:52:11</time>
      </trkpt>
      <trkpt lat="41.98119" lon="2.42065">
        <ele>517.4</ele>
        <time>2022-05-21 03:52:12</time>
      </trkpt>
      <trkpt lat="41.98123" lon="2.42069">
        <ele>517.6</ele>
        <time>2022-05-21 03:52:13</time>
      </trkpt>
      <trkpt lat="41.98124" lon="2.42072">
        <ele>517.6</ele>
        <time>2022-05-21 03:52:14</time>
      </trkpt>
      <trkpt lat="41.98126" lon="2.42076">
        <ele>517.8</ele>
        <time>2022-05-21 03:52:15</time>
      </trkpt>
      <trkpt lat="41.98127" lon="2.42079">
        <ele>517.8</ele>
        <time>2022-05-21 03:52:16</time>
      </trkpt>
      <trkpt lat="41.98129" lon="2.42083">
        <ele>518</ele>
        <time>2022-05-21 03:52:17</time>
      </trkpt>
      <trkpt lat="41.9813" lon="2.42087">
        <ele>518.2</ele>
        <time>2022-05-21 03:52:18</time>
      </trkpt>
      <trkpt lat="41.98131" lon="2.4209">
        <ele>518.4</ele>
        <time>2022-05-21 03:52:19</time>
      </trkpt>
      <trkpt lat="41.98132" lon="2.42094">
        <ele>518.4</ele>
        <time>2022-05-21 03:52:20</time>
      </trkpt>
      <trkpt lat="41.98133" lon="2.42097">
        <ele>518.6</ele>
        <time>2022-05-21 03:52:21</time>
      </trkpt>
      <trkpt lat="41.98134" lon="2.421">
        <ele>518.6</ele>
        <time>2022-05-21 03:52:22</time>
      </trkpt>
      <trkpt lat="41.98137" lon="2.42104">
        <ele>518.6</ele>
        <time>2022-05-21 03:52:23</time>
      </trkpt>
      <trkpt lat="41.98139" lon="2.42108">
        <ele>518.8</ele>
        <time>2022-05-21 03:52:24</time>
      </trkpt>
      <trkpt lat="41.98141" lon="2.42111">
        <ele>518.8</ele>
        <time>2022-05-21 03:52:25</time>
      </trkpt>
      <trkpt lat="41.98143" lon="2.42114">
        <ele>519</ele>
        <time>2022-05-21 03:52:26</time>
      </trkpt>
      <trkpt lat="41.98145" lon="2.42116">
        <ele>519</ele>
        <time>2022-05-21 03:52:27</time>
      </trkpt>
      <trkpt lat="41.98148" lon="2.42119">
        <ele>519.2</ele>
        <time>2022-05-21 03:52:28</time>
      </trkpt>
      <trkpt lat="41.9815" lon="2.42121">
        <ele>519.4</ele>
        <time>2022-05-21 03:52:29</time>
      </trkpt>
      <trkpt lat="41.98152" lon="2.42123">
        <ele>519.4</ele>
        <time>2022-05-21 03:52:30</time>
      </trkpt>
      <trkpt lat="41.98154" lon="2.42124">
        <ele>519.6</ele>
        <time>2022-05-21 03:52:31</time>
      </trkpt>
      <trkpt lat="41.98157" lon="2.42126">
        <ele>519.8</ele>
        <time>2022-05-21 03:52:32</time>
      </trkpt>
      <trkpt lat="41.9816" lon="2.42127">
        <ele>519.8</ele>
        <time>2022-05-21 03:52:33</time>
      </trkpt>
      <trkpt lat="41.98162" lon="2.42128">
        <ele>520</ele>
        <time>2022-05-21 03:52:34</time>
      </trkpt>
      <trkpt lat="41.98165" lon="2.42129">
        <ele>520</ele>
        <time>2022-05-21 03:52:35</time>
      </trkpt>
      <trkpt lat="41.98167" lon="2.4213">
        <ele>520.2</ele>
        <time>2022-05-21 03:52:36</time>
      </trkpt>
      <trkpt lat="41.9817" lon="2.4213">
        <ele>520.2</ele>
        <time>2022-05-21 03:52:37</time>
      </trkpt>
      <trkpt lat="41.98172" lon="2.42132">
        <ele>520.4</ele>
        <time>2022-05-21 03:52:38</time>
      </trkpt>
      <trkpt lat="41.98175" lon="2.42133">
        <ele>520.6</ele>
        <time>2022-05-21 03:52:39</time>
      </trkpt>
      <trkpt lat="41.98178" lon="2.42135">
        <ele>520.6</ele>
        <time>2022-05-21 03:52:40</time>
      </trkpt>
      <trkpt lat="41.9818" lon="2.42137">
        <ele>520.8</ele>
        <time>2022-05-21 03:52:41</time>
      </trkpt>
      <trkpt lat="41.98183" lon="2.42138">
        <ele>521</ele>
        <time>2022-05-21 03:52:42</time>
      </trkpt>
      <trkpt lat="41.98185" lon="2.4214">
        <ele>521</ele>
        <time>2022-05-21 03:52:43</time>
      </trkpt>
      <trkpt lat="41.98188" lon="2.42142">
        <ele>521.2</ele>
        <time>2022-05-21 03:52:44</time>
      </trkpt>
      <trkpt lat="41.98191" lon="2.42144">
        <ele>521.4</ele>
        <time>2022-05-21 03:52:45</time>
      </trkpt>
      <trkpt lat="41.98193" lon="2.42146">
        <ele>521.6</ele>
        <time>2022-05-21 03:52:46</time>
      </trkpt>
      <trkpt lat="41.98195" lon="2.42149">
        <ele>521.6</ele>
        <time>2022-05-21 03:52:47</time>
      </trkpt>
      <trkpt lat="41.98198" lon="2.42152">
        <ele>521.8</ele>
        <time>2022-05-21 03:52:48</time>
      </trkpt>
      <trkpt lat="41.982" lon="2.42156">
        <ele>522</ele>
        <time>2022-05-21 03:52:49</time>
      </trkpt>
      <trkpt lat="41.98202" lon="2.4216">
        <ele>522.2</ele>
        <time>2022-05-21 03:52:50</time>
      </trkpt>
      <trkpt lat="41.98203" lon="2.42163">
        <ele>522.2</ele>
        <time>2022-05-21 03:52:51</time>
      </trkpt>
      <trkpt lat="41.98205" lon="2.42166">
        <ele>522.4</ele>
        <time>2022-05-21 03:52:52</time>
      </trkpt>
      <trkpt lat="41.98207" lon="2.4217">
        <ele>522.6</ele>
        <time>2022-05-21 03:52:53</time>
      </trkpt>
      <trkpt lat="41.98208" lon="2.42174">
        <ele>522.8</ele>
        <time>2022-05-21 03:52:54</time>
      </trkpt>
      <trkpt lat="41.9821" lon="2.42177">
        <ele>523</ele>
        <time>2022-05-21 03:52:55</time>
      </trkpt>
      <trkpt lat="41.98211" lon="2.4218">
        <ele>523</ele>
        <time>2022-05-21 03:52:56</time>
      </trkpt>
      <trkpt lat="41.98213" lon="2.42183">
        <ele>523.2</ele>
        <time>2022-05-21 03:52:57</time>
      </trkpt>
      <trkpt lat="41.98215" lon="2.42186">
        <ele>523.2</ele>
        <time>2022-05-21 03:52:58</time>
      </trkpt>
      <trkpt lat="41.98216" lon="2.4219">
        <ele>523.2</ele>
        <time>2022-05-21 03:52:59</time>
      </trkpt>
      <trkpt lat="41.98219" lon="2.42193">
        <ele>523.2</ele>
        <time>2022-05-21 03:53:00</time>
      </trkpt>
      <trkpt lat="41.98221" lon="2.42197">
        <ele>523</ele>
        <time>2022-05-21 03:53:01</time>
      </trkpt>
      <trkpt lat="41.98224" lon="2.42201">
        <ele>522.8</ele>
        <time>2022-05-21 03:53:02</time>
      </trkpt>
      <trkpt lat="41.98227" lon="2.42205">
        <ele>522.6</ele>
        <time>2022-05-21 03:53:03</time>
      </trkpt>
      <trkpt lat="41.9823" lon="2.42211">
        <ele>522.4</ele>
        <time>2022-05-21 03:53:04</time>
      </trkpt>
      <trkpt lat="41.98233" lon="2.42217">
        <ele>522</ele>
        <time>2022-05-21 03:53:05</time>
      </trkpt>
      <trkpt lat="41.98234" lon="2.42224">
        <ele>521.6</ele>
        <time>2022-05-21 03:53:06</time>
      </trkpt>
      <trkpt lat="41.98235" lon="2.42232">
        <ele>521.2</ele>
        <time>2022-05-21 03:53:07</time>
      </trkpt>
      <trkpt lat="41.98236" lon="2.4224">
        <ele>520.8</ele>
        <time>2022-05-21 03:53:08</time>
      </trkpt>
      <trkpt lat="41.98236" lon="2.42249">
        <ele>520.4</ele>
        <time>2022-05-21 03:53:09</time>
      </trkpt>
      <trkpt lat="41.98235" lon="2.42258">
        <ele>520.2</ele>
        <time>2022-05-21 03:53:10</time>
      </trkpt>
      <trkpt lat="41.98235" lon="2.42267">
        <ele>519.8</ele>
        <time>2022-05-21 03:53:11</time>
      </trkpt>
      <trkpt lat="41.98233" lon="2.42276">
        <ele>519.6</ele>
        <time>2022-05-21 03:53:12</time>
      </trkpt>
      <trkpt lat="41.98232" lon="2.42285">
        <ele>519.4</ele>
        <time>2022-05-21 03:53:13</time>
      </trkpt>
      <trkpt lat="41.98232" lon="2.42294">
        <ele>519.2</ele>
        <time>2022-05-21 03:53:14</time>
      </trkpt>
      <trkpt lat="41.98232" lon="2.42303">
        <ele>519.2</ele>
        <time>2022-05-21 03:53:15</time>
      </trkpt>
      <trkpt lat="41.98232" lon="2.42312">
        <ele>519</ele>
        <time>2022-05-21 03:53:16</time>
      </trkpt>
      <trkpt lat="41.98232" lon="2.42321">
        <ele>518.8</ele>
        <time>2022-05-21 03:53:17</time>
      </trkpt>
      <trkpt lat="41.98233" lon="2.42328">
        <ele>518.6</ele>
        <time>2022-05-21 03:53:18</time>
      </trkpt>
      <trkpt lat="41.98235" lon="2.42334">
        <ele>518.4</ele>
        <time>2022-05-21 03:53:19</time>
      </trkpt>
      <trkpt lat="41.98238" lon="2.42339">
        <ele>518.2</ele>
        <time>2022-05-21 03:53:20</time>
      </trkpt>
      <trkpt lat="41.98241" lon="2.42343">
        <ele>517.8</ele>
        <time>2022-05-21 03:53:21</time>
      </trkpt>
      <trkpt lat="41.98245" lon="2.42344">
        <ele>517.6</ele>
        <time>2022-05-21 03:53:22</time>
      </trkpt>
      <trkpt lat="41.98249" lon="2.42344">
        <ele>517.4</ele>
        <time>2022-05-21 03:53:23</time>
      </trkpt>
      <trkpt lat="41.98254" lon="2.42344">
        <ele>517</ele>
        <time>2022-05-21 03:53:24</time>
      </trkpt>
      <trkpt lat="41.98259" lon="2.42343">
        <ele>516.8</ele>
        <time>2022-05-21 03:53:25</time>
      </trkpt>
      <trkpt lat="41.98265" lon="2.42342">
        <ele>516.4</ele>
        <time>2022-05-21 03:53:26</time>
      </trkpt>
      <trkpt lat="41.9827" lon="2.42341">
        <ele>516</ele>
        <time>2022-05-21 03:53:27</time>
      </trkpt>
      <trkpt lat="41.98275" lon="2.4234">
        <ele>515.6</ele>
        <time>2022-05-21 03:53:28</time>
      </trkpt>
      <trkpt lat="41.98281" lon="2.42339">
        <ele>515</ele>
        <time>2022-05-21 03:53:29</time>
      </trkpt>
      <trkpt lat="41.98286" lon="2.4234">
        <ele>514.6</ele>
        <time>2022-05-21 03:53:30</time>
      </trkpt>
      <trkpt lat="41.98292" lon="2.42341">
        <ele>514</ele>
        <time>2022-05-21 03:53:31</time>
      </trkpt>
      <trkpt lat="41.98298" lon="2.42342">
        <ele>513.4</ele>
        <time>2022-05-21 03:53:32</time>
      </trkpt>
      <trkpt lat="41.98303" lon="2.42342">
        <ele>513</ele>
        <time>2022-05-21 03:53:33</time>
      </trkpt>
      <trkpt lat="41.98309" lon="2.42342">
        <ele>512.4</ele>
        <time>2022-05-21 03:53:34</time>
      </trkpt>
      <trkpt lat="41.98314" lon="2.4234">
        <ele>512</ele>
        <time>2022-05-21 03:53:35</time>
      </trkpt>
      <trkpt lat="41.9832" lon="2.42337">
        <ele>511.6</ele>
        <time>2022-05-21 03:53:36</time>
      </trkpt>
      <trkpt lat="41.98326" lon="2.42333">
        <ele>511</ele>
        <time>2022-05-21 03:53:37</time>
      </trkpt>
      <trkpt lat="41.98332" lon="2.42329">
        <ele>510.2</ele>
        <time>2022-05-21 03:53:38</time>
      </trkpt>
      <trkpt lat="41.98339" lon="2.42325">
        <ele>509.6</ele>
        <time>2022-05-21 03:53:39</time>
      </trkpt>
      <trkpt lat="41.98346" lon="2.42322">
        <ele>509</ele>
        <time>2022-05-21 03:53:40</time>
      </trkpt>
      <trkpt lat="41.98353" lon="2.42321">
        <ele>508.4</ele>
        <time>2022-05-21 03:53:41</time>
      </trkpt>
      <trkpt lat="41.98359" lon="2.42322">
        <ele>507.8</ele>
        <time>2022-05-21 03:53:42</time>
      </trkpt>
      <trkpt lat="41.98365" lon="2.42324">
        <ele>507.4</ele>
        <time>2022-05-21 03:53:43</time>
      </trkpt>
      <trkpt lat="41.98369" lon="2.42328">
        <ele>507</ele>
        <time>2022-05-21 03:53:44</time>
      </trkpt>
      <trkpt lat="41.98373" lon="2.42334">
        <ele>506.8</ele>
        <time>2022-05-21 03:53:45</time>
      </trkpt>
      <trkpt lat="41.98376" lon="2.42339">
        <ele>506.6</ele>
        <time>2022-05-21 03:53:46</time>
      </trkpt>
      <trkpt lat="41.9838" lon="2.42344">
        <ele>506.6</ele>
        <time>2022-05-21 03:53:47</time>
      </trkpt>
      <trkpt lat="41.98384" lon="2.42348">
        <ele>506.6</ele>
        <time>2022-05-21 03:53:48</time>
      </trkpt>
      <trkpt lat="41.98388" lon="2.42352">
        <ele>506.6</ele>
        <time>2022-05-21 03:53:49</time>
      </trkpt>
      <trkpt lat="41.98392" lon="2.42354">
        <ele>506.4</ele>
        <time>2022-05-21 03:53:50</time>
      </trkpt>
      <trkpt lat="41.98396" lon="2.42356">
        <ele>506.2</ele>
        <time>2022-05-21 03:53:51</time>
      </trkpt>
      <trkpt lat="41.98402" lon="2.42357">
        <ele>506</ele>
        <time>2022-05-21 03:53:52</time>
      </trkpt>
      <trkpt lat="41.98408" lon="2.42357">
        <ele>505.6</ele>
        <time>2022-05-21 03:53:53</time>
      </trkpt>
      <trkpt lat="41.98415" lon="2.42358">
        <ele>505.4</ele>
        <time>2022-05-21 03:53:54</time>
      </trkpt>
      <trkpt lat="41.98421" lon="2.42358">
        <ele>505.2</ele>
        <time>2022-05-21 03:53:55</time>
      </trkpt>
      <trkpt lat="41.98429" lon="2.42359">
        <ele>505</ele>
        <time>2022-05-21 03:53:56</time>
      </trkpt>
      <trkpt lat="41.98436" lon="2.4236">
        <ele>504.6</ele>
        <time>2022-05-21 03:53:57</time>
      </trkpt>
      <trkpt lat="41.98442" lon="2.42361">
        <ele>504.4</ele>
        <time>2022-05-21 03:53:58</time>
      </trkpt>
      <trkpt lat="41.9845" lon="2.42362">
        <ele>504.4</ele>
        <time>2022-05-21 03:53:59</time>
      </trkpt>
      <trkpt lat="41.98456" lon="2.42362">
        <ele>504.2</ele>
        <time>2022-05-21 03:54:00</time>
      </trkpt>
      <trkpt lat="41.98462" lon="2.42363">
        <ele>504</ele>
        <time>2022-05-21 03:54:01</time>
      </trkpt>
      <trkpt lat="41.9847" lon="2.42364">
        <ele>503.8</ele>
        <time>2022-05-21 03:54:02</time>
      </trkpt>
      <trkpt lat="41.98476" lon="2.42364">
        <ele>503.8</ele>
        <time>2022-05-21 03:54:03</time>
      </trkpt>
      <trkpt lat="41.98482" lon="2.42365">
        <ele>503.8</ele>
        <time>2022-05-21 03:54:04</time>
      </trkpt>
      <trkpt lat="41.98487" lon="2.42367">
        <ele>503.8</ele>
        <time>2022-05-21 03:54:05</time>
      </trkpt>
      <trkpt lat="41.98493" lon="2.42368">
        <ele>503.8</ele>
        <time>2022-05-21 03:54:06</time>
      </trkpt>
      <trkpt lat="41.98498" lon="2.42368">
        <ele>503.8</ele>
        <time>2022-05-21 03:54:07</time>
      </trkpt>
      <trkpt lat="41.98503" lon="2.42369">
        <ele>503.8</ele>
        <time>2022-05-21 03:54:08</time>
      </trkpt>
      <trkpt lat="41.98508" lon="2.42368">
        <ele>504</ele>
        <time>2022-05-21 03:54:09</time>
      </trkpt>
      <trkpt lat="41.98513" lon="2.42368">
        <ele>504</ele>
        <time>2022-05-21 03:54:10</time>
      </trkpt>
      <trkpt lat="41.98517" lon="2.42367">
        <ele>504</ele>
        <time>2022-05-21 03:54:11</time>
      </trkpt>
      <trkpt lat="41.98521" lon="2.42365">
        <ele>504</ele>
        <time>2022-05-21 03:54:12</time>
      </trkpt>
      <trkpt lat="41.98526" lon="2.42363">
        <ele>504.2</ele>
        <time>2022-05-21 03:54:13</time>
      </trkpt>
      <trkpt lat="41.98529" lon="2.42361">
        <ele>504.2</ele>
        <time>2022-05-21 03:54:14</time>
      </trkpt>
      <trkpt lat="41.98533" lon="2.42359">
        <ele>504.2</ele>
        <time>2022-05-21 03:54:15</time>
      </trkpt>
      <trkpt lat="41.98537" lon="2.42356">
        <ele>504.4</ele>
        <time>2022-05-21 03:54:16</time>
      </trkpt>
      <trkpt lat="41.98541" lon="2.42353">
        <ele>504.4</ele>
        <time>2022-05-21 03:54:17</time>
      </trkpt>
      <trkpt lat="41.98545" lon="2.42351">
        <ele>504.6</ele>
        <time>2022-05-21 03:54:18</time>
      </trkpt>
      <trkpt lat="41.9855" lon="2.4235">
        <ele>504.6</ele>
        <time>2022-05-21 03:54:19</time>
      </trkpt>
      <trkpt lat="41.98555" lon="2.42353">
        <ele>504.8</ele>
        <time>2022-05-21 03:54:20</time>
      </trkpt>
      <trkpt lat="41.98561" lon="2.42359">
        <ele>505</ele>
        <time>2022-05-21 03:54:21</time>
      </trkpt>
      <trkpt lat="41.98567" lon="2.42366">
        <ele>505.4</ele>
        <time>2022-05-21 03:54:22</time>
      </trkpt>
      <trkpt lat="41.98573" lon="2.42373">
        <ele>505.4</ele>
        <time>2022-05-21 03:54:23</time>
      </trkpt>
      <trkpt lat="41.98573" lon="2.42373">
        <ele>505.6</ele>
        <time>2022-05-21 03:54:24</time>
      </trkpt>
      <trkpt lat="41.98574" lon="2.42374">
        <ele>506</ele>
        <time>2022-05-21 03:54:25</time>
      </trkpt>
      <trkpt lat="41.98576" lon="2.42374">
        <ele>506.2</ele>
        <time>2022-05-21 03:54:26</time>
      </trkpt>
      <trkpt lat="41.98577" lon="2.42375">
        <ele>506.4</ele>
        <time>2022-05-21 03:54:27</time>
      </trkpt>
      <trkpt lat="41.98579" lon="2.42377">
        <ele>506.6</ele>
        <time>2022-05-21 03:54:28</time>
      </trkpt>
      <trkpt lat="41.98581" lon="2.42381">
        <ele>506.8</ele>
        <time>2022-05-21 03:54:29</time>
      </trkpt>
      <trkpt lat="41.98581" lon="2.42384">
        <ele>507</ele>
        <time>2022-05-21 03:54:30</time>
      </trkpt>
      <trkpt lat="41.98582" lon="2.42387">
        <ele>507</ele>
        <time>2022-05-21 03:54:31</time>
      </trkpt>
      <trkpt lat="41.98582" lon="2.42389">
        <ele>507.2</ele>
        <time>2022-05-21 03:54:32</time>
      </trkpt>
      <trkpt lat="41.98582" lon="2.42391">
        <ele>507.2</ele>
        <time>2022-05-21 03:54:33</time>
      </trkpt>
      <trkpt lat="41.98582" lon="2.42395">
        <ele>507.4</ele>
        <time>2022-05-21 03:54:34</time>
      </trkpt>
      <trkpt lat="41.98583" lon="2.42398">
        <ele>507.4</ele>
        <time>2022-05-21 03:54:35</time>
      </trkpt>
      <trkpt lat="41.98583" lon="2.42402">
        <ele>507.4</ele>
        <time>2022-05-21 03:54:36</time>
      </trkpt>
      <trkpt lat="41.98584" lon="2.42406">
        <ele>507.6</ele>
        <time>2022-05-21 03:54:37</time>
      </trkpt>
      <trkpt lat="41.98586" lon="2.4241">
        <ele>507.6</ele>
        <time>2022-05-21 03:54:38</time>
      </trkpt>
      <trkpt lat="41.98587" lon="2.42413">
        <ele>507.6</ele>
        <time>2022-05-21 03:54:39</time>
      </trkpt>
      <trkpt lat="41.9859" lon="2.42418">
        <ele>507.8</ele>
        <time>2022-05-21 03:54:40</time>
      </trkpt>
      <trkpt lat="41.98592" lon="2.42421">
        <ele>507.8</ele>
        <time>2022-05-21 03:54:41</time>
      </trkpt>
      <trkpt lat="41.98594" lon="2.42424">
        <ele>507.8</ele>
        <time>2022-05-21 03:54:42</time>
      </trkpt>
      <trkpt lat="41.98596" lon="2.42427">
        <ele>507.8</ele>
        <time>2022-05-21 03:54:43</time>
      </trkpt>
      <trkpt lat="41.98598" lon="2.4243">
        <ele>507.8</ele>
        <time>2022-05-21 03:54:44</time>
      </trkpt>
      <trkpt lat="41.98598" lon="2.42434">
        <ele>507.8</ele>
        <time>2022-05-21 03:54:45</time>
      </trkpt>
      <trkpt lat="41.986" lon="2.42437">
        <ele>507.6</ele>
        <time>2022-05-21 03:54:46</time>
      </trkpt>
      <trkpt lat="41.98602" lon="2.42441">
        <ele>507.4</ele>
        <time>2022-05-21 03:54:47</time>
      </trkpt>
      <trkpt lat="41.98605" lon="2.42444">
        <ele>507.2</ele>
        <time>2022-05-21 03:54:48</time>
      </trkpt>
      <trkpt lat="41.98608" lon="2.42448">
        <ele>507</ele>
        <time>2022-05-21 03:54:49</time>
      </trkpt>
      <trkpt lat="41.98613" lon="2.42451">
        <ele>506.8</ele>
        <time>2022-05-21 03:54:50</time>
      </trkpt>
      <trkpt lat="41.98617" lon="2.42453">
        <ele>506.4</ele>
        <time>2022-05-21 03:54:51</time>
      </trkpt>
      <trkpt lat="41.98621" lon="2.42455">
        <ele>506.2</ele>
        <time>2022-05-21 03:54:52</time>
      </trkpt>
      <trkpt lat="41.98626" lon="2.42457">
        <ele>505.8</ele>
        <time>2022-05-21 03:54:53</time>
      </trkpt>
      <trkpt lat="41.9863" lon="2.4246">
        <ele>505.6</ele>
        <time>2022-05-21 03:54:54</time>
      </trkpt>
      <trkpt lat="41.98635" lon="2.42463">
        <ele>505.4</ele>
        <time>2022-05-21 03:54:55</time>
      </trkpt>
      <trkpt lat="41.98639" lon="2.42467">
        <ele>505.4</ele>
        <time>2022-05-21 03:54:56</time>
      </trkpt>
      <trkpt lat="41.98642" lon="2.42471">
        <ele>505.2</ele>
        <time>2022-05-21 03:54:57</time>
      </trkpt>
      <trkpt lat="41.98644" lon="2.42476">
        <ele>505.2</ele>
        <time>2022-05-21 03:54:58</time>
      </trkpt>
      <trkpt lat="41.98645" lon="2.4248">
        <ele>505.2</ele>
        <time>2022-05-21 03:54:59</time>
      </trkpt>
      <trkpt lat="41.98645" lon="2.42484">
        <ele>505.2</ele>
        <time>2022-05-21 03:55:00</time>
      </trkpt>
      <trkpt lat="41.98644" lon="2.42487">
        <ele>505.2</ele>
        <time>2022-05-21 03:55:01</time>
      </trkpt>
      <trkpt lat="41.98643" lon="2.42489">
        <ele>505.2</ele>
        <time>2022-05-21 03:55:02</time>
      </trkpt>
      <trkpt lat="41.98641" lon="2.42492">
        <ele>505.2</ele>
        <time>2022-05-21 03:55:03</time>
      </trkpt>
      <trkpt lat="41.98639" lon="2.42494">
        <ele>505.2</ele>
        <time>2022-05-21 03:55:04</time>
      </trkpt>
      <trkpt lat="41.98637" lon="2.42496">
        <ele>505.4</ele>
        <time>2022-05-21 03:55:05</time>
      </trkpt>
      <trkpt lat="41.98635" lon="2.42499">
        <ele>505.4</ele>
        <time>2022-05-21 03:55:06</time>
      </trkpt>
      <trkpt lat="41.98634" lon="2.42502">
        <ele>505.6</ele>
        <time>2022-05-21 03:55:07</time>
      </trkpt>
      <trkpt lat="41.98632" lon="2.42505">
        <ele>505.6</ele>
        <time>2022-05-21 03:55:08</time>
      </trkpt>
      <trkpt lat="41.9863" lon="2.42509">
        <ele>505.6</ele>
        <time>2022-05-21 03:55:09</time>
      </trkpt>
      <trkpt lat="41.98628" lon="2.42513">
        <ele>505.6</ele>
        <time>2022-05-21 03:55:10</time>
      </trkpt>
      <trkpt lat="41.98626" lon="2.42517">
        <ele>505.4</ele>
        <time>2022-05-21 03:55:11</time>
      </trkpt>
      <trkpt lat="41.98624" lon="2.4252">
        <ele>505.2</ele>
        <time>2022-05-21 03:55:12</time>
      </trkpt>
      <trkpt lat="41.98621" lon="2.42524">
        <ele>505</ele>
        <time>2022-05-21 03:55:13</time>
      </trkpt>
      <trkpt lat="41.98618" lon="2.42528">
        <ele>504.8</ele>
        <time>2022-05-21 03:55:14</time>
      </trkpt>
      <trkpt lat="41.98613" lon="2.42532">
        <ele>504.6</ele>
        <time>2022-05-21 03:55:15</time>
      </trkpt>
      <trkpt lat="41.98609" lon="2.42536">
        <ele>504.4</ele>
        <time>2022-05-21 03:55:16</time>
      </trkpt>
      <trkpt lat="41.98605" lon="2.42539">
        <ele>504.2</ele>
        <time>2022-05-21 03:55:17</time>
      </trkpt>
      <trkpt lat="41.986" lon="2.42542">
        <ele>504</ele>
        <time>2022-05-21 03:55:18</time>
      </trkpt>
      <trkpt lat="41.98595" lon="2.42545">
        <ele>503.8</ele>
        <time>2022-05-21 03:55:19</time>
      </trkpt>
      <trkpt lat="41.9859" lon="2.42549">
        <ele>503.6</ele>
        <time>2022-05-21 03:55:20</time>
      </trkpt>
      <trkpt lat="41.98584" lon="2.42553">
        <ele>503.2</ele>
        <time>2022-05-21 03:55:21</time>
      </trkpt>
      <trkpt lat="41.98579" lon="2.42557">
        <ele>502.8</ele>
        <time>2022-05-21 03:55:22</time>
      </trkpt>
      <trkpt lat="41.98573" lon="2.42561">
        <ele>502.4</ele>
        <time>2022-05-21 03:55:23</time>
      </trkpt>
      <trkpt lat="41.98568" lon="2.42567">
        <ele>502.2</ele>
        <time>2022-05-21 03:55:24</time>
      </trkpt>
      <trkpt lat="41.98565" lon="2.42573">
        <ele>502</ele>
        <time>2022-05-21 03:55:25</time>
      </trkpt>
      <trkpt lat="41.98563" lon="2.42579">
        <ele>501.8</ele>
        <time>2022-05-21 03:55:26</time>
      </trkpt>
      <trkpt lat="41.98562" lon="2.42586">
        <ele>501.6</ele>
        <time>2022-05-21 03:55:27</time>
      </trkpt>
      <trkpt lat="41.98562" lon="2.42593">
        <ele>501.2</ele>
        <time>2022-05-21 03:55:28</time>
      </trkpt>
      <trkpt lat="41.98563" lon="2.426">
        <ele>500.6</ele>
        <time>2022-05-21 03:55:29</time>
      </trkpt>
      <trkpt lat="41.98563" lon="2.42607">
        <ele>500.4</ele>
        <time>2022-05-21 03:55:30</time>
      </trkpt>
      <trkpt lat="41.98563" lon="2.42614">
        <ele>500</ele>
        <time>2022-05-21 03:55:31</time>
      </trkpt>
      <trkpt lat="41.98561" lon="2.42618">
        <ele>499.8</ele>
        <time>2022-05-21 03:55:32</time>
      </trkpt>
      <trkpt lat="41.98557" lon="2.42621">
        <ele>499.8</ele>
        <time>2022-05-21 03:55:33</time>
      </trkpt>
      <trkpt lat="41.98553" lon="2.42624">
        <ele>500</ele>
        <time>2022-05-21 03:55:34</time>
      </trkpt>
      <trkpt lat="41.98549" lon="2.42626">
        <ele>500.2</ele>
        <time>2022-05-21 03:55:35</time>
      </trkpt>
      <trkpt lat="41.98545" lon="2.42627">
        <ele>500.4</ele>
        <time>2022-05-21 03:55:36</time>
      </trkpt>
      <trkpt lat="41.98542" lon="2.4263">
        <ele>500.8</ele>
        <time>2022-05-21 03:55:37</time>
      </trkpt>
      <trkpt lat="41.98539" lon="2.42631">
        <ele>501</ele>
        <time>2022-05-21 03:55:38</time>
      </trkpt>
      <trkpt lat="41.98537" lon="2.42632">
        <ele>501.4</ele>
        <time>2022-05-21 03:55:39</time>
      </trkpt>
      <trkpt lat="41.98536" lon="2.42633">
        <ele>501.6</ele>
        <time>2022-05-21 03:55:40</time>
      </trkpt>
      <trkpt lat="41.98534" lon="2.42635">
        <ele>502</ele>
        <time>2022-05-21 03:55:41</time>
      </trkpt>
      <trkpt lat="41.98532" lon="2.42636">
        <ele>502.2</ele>
        <time>2022-05-21 03:55:42</time>
      </trkpt>
      <trkpt lat="41.98531" lon="2.42639">
        <ele>502.4</ele>
        <time>2022-05-21 03:55:43</time>
      </trkpt>
      <trkpt lat="41.98529" lon="2.42642">
        <ele>502.6</ele>
        <time>2022-05-21 03:55:44</time>
      </trkpt>
      <trkpt lat="41.98528" lon="2.42644">
        <ele>502.8</ele>
        <time>2022-05-21 03:55:45</time>
      </trkpt>
      <trkpt lat="41.98527" lon="2.42647">
        <ele>503</ele>
        <time>2022-05-21 03:55:46</time>
      </trkpt>
      <trkpt lat="41.98526" lon="2.42649">
        <ele>503</ele>
        <time>2022-05-21 03:55:47</time>
      </trkpt>
      <trkpt lat="41.98525" lon="2.42653">
        <ele>503.2</ele>
        <time>2022-05-21 03:55:48</time>
      </trkpt>
      <trkpt lat="41.98524" lon="2.42656">
        <ele>503.4</ele>
        <time>2022-05-21 03:55:49</time>
      </trkpt>
      <trkpt lat="41.98524" lon="2.4266">
        <ele>503.4</ele>
        <time>2022-05-21 03:55:50</time>
      </trkpt>
      <trkpt lat="41.98523" lon="2.42663">
        <ele>503.6</ele>
        <time>2022-05-21 03:55:51</time>
      </trkpt>
      <trkpt lat="41.98523" lon="2.42668">
        <ele>503.6</ele>
        <time>2022-05-21 03:55:52</time>
      </trkpt>
      <trkpt lat="41.98524" lon="2.42671">
        <ele>503.8</ele>
        <time>2022-05-21 03:55:53</time>
      </trkpt>
      <trkpt lat="41.98524" lon="2.42674">
        <ele>503.8</ele>
        <time>2022-05-21 03:55:54</time>
      </trkpt>
      <trkpt lat="41.98525" lon="2.42677">
        <ele>504</ele>
        <time>2022-05-21 03:55:55</time>
      </trkpt>
      <trkpt lat="41.98526" lon="2.4268">
        <ele>504</ele>
        <time>2022-05-21 03:55:56</time>
      </trkpt>
      <trkpt lat="41.98527" lon="2.42682">
        <ele>504.2</ele>
        <time>2022-05-21 03:55:57</time>
      </trkpt>
      <trkpt lat="41.98529" lon="2.42685">
        <ele>504.4</ele>
        <time>2022-05-21 03:55:58</time>
      </trkpt>
      <trkpt lat="41.9853" lon="2.42688">
        <ele>504.6</ele>
        <time>2022-05-21 03:55:59</time>
      </trkpt>
      <trkpt lat="41.98531" lon="2.42691">
        <ele>504.8</ele>
        <time>2022-05-21 03:56:00</time>
      </trkpt>
      <trkpt lat="41.98532" lon="2.42693">
        <ele>505</ele>
        <time>2022-05-21 03:56:01</time>
      </trkpt>
      <trkpt lat="41.98533" lon="2.42695">
        <ele>505.2</ele>
        <time>2022-05-21 03:56:02</time>
      </trkpt>
      <trkpt lat="41.98533" lon="2.42697">
        <ele>505.4</ele>
        <time>2022-05-21 03:56:03</time>
      </trkpt>
      <trkpt lat="41.98534" lon="2.427">
        <ele>505.6</ele>
        <time>2022-05-21 03:56:04</time>
      </trkpt>
      <trkpt lat="41.98534" lon="2.42702">
        <ele>505.8</ele>
        <time>2022-05-21 03:56:05</time>
      </trkpt>
      <trkpt lat="41.98536" lon="2.42705">
        <ele>506</ele>
        <time>2022-05-21 03:56:06</time>
      </trkpt>
      <trkpt lat="41.98536" lon="2.42708">
        <ele>506.2</ele>
        <time>2022-05-21 03:56:07</time>
      </trkpt>
      <trkpt lat="41.98537" lon="2.42711">
        <ele>506.4</ele>
        <time>2022-05-21 03:56:08</time>
      </trkpt>
      <trkpt lat="41.98538" lon="2.42713">
        <ele>506.6</ele>
        <time>2022-05-21 03:56:09</time>
      </trkpt>
      <trkpt lat="41.98539" lon="2.42716">
        <ele>506.8</ele>
        <time>2022-05-21 03:56:10</time>
      </trkpt>
      <trkpt lat="41.98539" lon="2.42718">
        <ele>507</ele>
        <time>2022-05-21 03:56:11</time>
      </trkpt>
      <trkpt lat="41.9854" lon="2.42721">
        <ele>507.2</ele>
        <time>2022-05-21 03:56:12</time>
      </trkpt>
      <trkpt lat="41.9854" lon="2.42724">
        <ele>507.4</ele>
        <time>2022-05-21 03:56:13</time>
      </trkpt>
      <trkpt lat="41.9854" lon="2.42726">
        <ele>507.6</ele>
        <time>2022-05-21 03:56:14</time>
      </trkpt>
      <trkpt lat="41.98542" lon="2.42729">
        <ele>507.8</ele>
        <time>2022-05-21 03:56:15</time>
      </trkpt>
      <trkpt lat="41.98542" lon="2.42732">
        <ele>507.8</ele>
        <time>2022-05-21 03:56:16</time>
      </trkpt>
      <trkpt lat="41.98543" lon="2.42735">
        <ele>508</ele>
        <time>2022-05-21 03:56:17</time>
      </trkpt>
      <trkpt lat="41.98544" lon="2.42738">
        <ele>508</ele>
        <time>2022-05-21 03:56:18</time>
      </trkpt>
      <trkpt lat="41.98545" lon="2.42741">
        <ele>508.2</ele>
        <time>2022-05-21 03:56:19</time>
      </trkpt>
      <trkpt lat="41.98545" lon="2.42744">
        <ele>508.2</ele>
        <time>2022-05-21 03:56:20</time>
      </trkpt>
      <trkpt lat="41.98546" lon="2.42747">
        <ele>508.2</ele>
        <time>2022-05-21 03:56:21</time>
      </trkpt>
      <trkpt lat="41.98547" lon="2.4275">
        <ele>508.2</ele>
        <time>2022-05-21 03:56:22</time>
      </trkpt>
      <trkpt lat="41.98548" lon="2.42754">
        <ele>508.4</ele>
        <time>2022-05-21 03:56:23</time>
      </trkpt>
      <trkpt lat="41.98549" lon="2.42757">
        <ele>508.4</ele>
        <time>2022-05-21 03:56:24</time>
      </trkpt>
      <trkpt lat="41.9855" lon="2.42761">
        <ele>508.4</ele>
        <time>2022-05-21 03:56:25</time>
      </trkpt>
      <trkpt lat="41.98552" lon="2.42765">
        <ele>508.4</ele>
        <time>2022-05-21 03:56:26</time>
      </trkpt>
      <trkpt lat="41.98553" lon="2.42768">
        <ele>508.6</ele>
        <time>2022-05-21 03:56:27</time>
      </trkpt>
      <trkpt lat="41.98554" lon="2.42772">
        <ele>508.6</ele>
        <time>2022-05-21 03:56:28</time>
      </trkpt>
      <trkpt lat="41.98555" lon="2.42775">
        <ele>508.6</ele>
        <time>2022-05-21 03:56:29</time>
      </trkpt>
      <trkpt lat="41.98557" lon="2.42777">
        <ele>508.6</ele>
        <time>2022-05-21 03:56:30</time>
      </trkpt>
      <trkpt lat="41.9856" lon="2.4278">
        <ele>508.8</ele>
        <time>2022-05-21 03:56:31</time>
      </trkpt>
      <trkpt lat="41.98562" lon="2.42782">
        <ele>508.8</ele>
        <time>2022-05-21 03:56:32</time>
      </trkpt>
      <trkpt lat="41.98564" lon="2.42784">
        <ele>509</ele>
        <time>2022-05-21 03:56:33</time>
      </trkpt>
      <trkpt lat="41.98566" lon="2.42787">
        <ele>509</ele>
        <time>2022-05-21 03:56:34</time>
      </trkpt>
      <trkpt lat="41.98568" lon="2.4279">
        <ele>509</ele>
        <time>2022-05-21 03:56:35</time>
      </trkpt>
      <trkpt lat="41.9857" lon="2.42793">
        <ele>509.2</ele>
        <time>2022-05-21 03:56:36</time>
      </trkpt>
      <trkpt lat="41.98572" lon="2.42796">
        <ele>509.2</ele>
        <time>2022-05-21 03:56:37</time>
      </trkpt>
      <trkpt lat="41.98574" lon="2.42798">
        <ele>509.2</ele>
        <time>2022-05-21 03:56:38</time>
      </trkpt>
      <trkpt lat="41.98576" lon="2.42802">
        <ele>509.4</ele>
        <time>2022-05-21 03:56:39</time>
      </trkpt>
      <trkpt lat="41.98577" lon="2.42805">
        <ele>509.4</ele>
        <time>2022-05-21 03:56:40</time>
      </trkpt>
      <trkpt lat="41.98579" lon="2.42808">
        <ele>509.4</ele>
        <time>2022-05-21 03:56:41</time>
      </trkpt>
      <trkpt lat="41.98582" lon="2.42811">
        <ele>509.6</ele>
        <time>2022-05-21 03:56:42</time>
      </trkpt>
      <trkpt lat="41.98584" lon="2.42814">
        <ele>509.6</ele>
        <time>2022-05-21 03:56:43</time>
      </trkpt>
      <trkpt lat="41.98586" lon="2.42818">
        <ele>509.8</ele>
        <time>2022-05-21 03:56:44</time>
      </trkpt>
      <trkpt lat="41.98587" lon="2.42822">
        <ele>509.8</ele>
        <time>2022-05-21 03:56:45</time>
      </trkpt>
      <trkpt lat="41.98587" lon="2.42825">
        <ele>510</ele>
        <time>2022-05-21 03:56:46</time>
      </trkpt>
      <trkpt lat="41.98588" lon="2.4283">
        <ele>510</ele>
        <time>2022-05-21 03:56:47</time>
      </trkpt>
      <trkpt lat="41.98588" lon="2.42834">
        <ele>510.2</ele>
        <time>2022-05-21 03:56:48</time>
      </trkpt>
      <trkpt lat="41.98588" lon="2.42838">
        <ele>510.2</ele>
        <time>2022-05-21 03:56:49</time>
      </trkpt>
      <trkpt lat="41.98588" lon="2.42842">
        <ele>510.2</ele>
        <time>2022-05-21 03:56:50</time>
      </trkpt>
      <trkpt lat="41.98587" lon="2.42846">
        <ele>510.2</ele>
        <time>2022-05-21 03:56:51</time>
      </trkpt>
      <trkpt lat="41.98587" lon="2.4285">
        <ele>510.2</ele>
        <time>2022-05-21 03:56:52</time>
      </trkpt>
      <trkpt lat="41.98586" lon="2.42855">
        <ele>510.4</ele>
        <time>2022-05-21 03:56:53</time>
      </trkpt>
      <trkpt lat="41.98585" lon="2.42859">
        <ele>510.4</ele>
        <time>2022-05-21 03:56:54</time>
      </trkpt>
      <trkpt lat="41.98584" lon="2.42862">
        <ele>510.6</ele>
        <time>2022-05-21 03:56:55</time>
      </trkpt>
      <trkpt lat="41.98583" lon="2.42865">
        <ele>510.8</ele>
        <time>2022-05-21 03:56:56</time>
      </trkpt>
      <trkpt lat="41.98582" lon="2.42868">
        <ele>511</ele>
        <time>2022-05-21 03:56:57</time>
      </trkpt>
      <trkpt lat="41.98581" lon="2.4287">
        <ele>511.2</ele>
        <time>2022-05-21 03:56:58</time>
      </trkpt>
      <trkpt lat="41.98581" lon="2.42873">
        <ele>511.4</ele>
        <time>2022-05-21 03:56:59</time>
      </trkpt>
      <trkpt lat="41.98579" lon="2.42876">
        <ele>511.6</ele>
        <time>2022-05-21 03:57:00</time>
      </trkpt>
      <trkpt lat="41.98579" lon="2.42878">
        <ele>511.8</ele>
        <time>2022-05-21 03:57:01</time>
      </trkpt>
      <trkpt lat="41.98577" lon="2.42881">
        <ele>512</ele>
        <time>2022-05-21 03:57:02</time>
      </trkpt>
      <trkpt lat="41.98577" lon="2.42884">
        <ele>512.2</ele>
        <time>2022-05-21 03:57:03</time>
      </trkpt>
      <trkpt lat="41.98576" lon="2.42887">
        <ele>512.4</ele>
        <time>2022-05-21 03:57:04</time>
      </trkpt>
      <trkpt lat="41.98574" lon="2.4289">
        <ele>512.6</ele>
        <time>2022-05-21 03:57:05</time>
      </trkpt>
      <trkpt lat="41.98573" lon="2.42893">
        <ele>512.8</ele>
        <time>2022-05-21 03:57:06</time>
      </trkpt>
      <trkpt lat="41.98572" lon="2.42895">
        <ele>513</ele>
        <time>2022-05-21 03:57:07</time>
      </trkpt>
      <trkpt lat="41.9857" lon="2.42897">
        <ele>513.2</ele>
        <time>2022-05-21 03:57:08</time>
      </trkpt>
      <trkpt lat="41.98568" lon="2.42899">
        <ele>513.4</ele>
        <time>2022-05-21 03:57:09</time>
      </trkpt>
      <trkpt lat="41.98566" lon="2.429">
        <ele>513.6</ele>
        <time>2022-05-21 03:57:10</time>
      </trkpt>
      <trkpt lat="41.98564" lon="2.429">
        <ele>513.8</ele>
        <time>2022-05-21 03:57:11</time>
      </trkpt>
      <trkpt lat="41.98561" lon="2.429">
        <ele>514</ele>
        <time>2022-05-21 03:57:12</time>
      </trkpt>
      <trkpt lat="41.98559" lon="2.42901">
        <ele>514.2</ele>
        <time>2022-05-21 03:57:13</time>
      </trkpt>
      <trkpt lat="41.98557" lon="2.42901">
        <ele>514.4</ele>
        <time>2022-05-21 03:57:14</time>
      </trkpt>
      <trkpt lat="41.98555" lon="2.42901">
        <ele>514.6</ele>
        <time>2022-05-21 03:57:15</time>
      </trkpt>
      <trkpt lat="41.98553" lon="2.42901">
        <ele>514.6</ele>
        <time>2022-05-21 03:57:16</time>
      </trkpt>
      <trkpt lat="41.98551" lon="2.42901">
        <ele>514.8</ele>
        <time>2022-05-21 03:57:17</time>
      </trkpt>
      <trkpt lat="41.9855" lon="2.42901">
        <ele>515</ele>
        <time>2022-05-21 03:57:18</time>
      </trkpt>
      <trkpt lat="41.98549" lon="2.42901">
        <ele>515.2</ele>
        <time>2022-05-21 03:57:19</time>
      </trkpt>
      <trkpt lat="41.98546" lon="2.429">
        <ele>515.4</ele>
        <time>2022-05-21 03:57:20</time>
      </trkpt>
      <trkpt lat="41.98544" lon="2.429">
        <ele>515.6</ele>
        <time>2022-05-21 03:57:21</time>
      </trkpt>
      <trkpt lat="41.98542" lon="2.42899">
        <ele>515.8</ele>
        <time>2022-05-21 03:57:22</time>
      </trkpt>
      <trkpt lat="41.9854" lon="2.42899">
        <ele>516</ele>
        <time>2022-05-21 03:57:23</time>
      </trkpt>
      <trkpt lat="41.98539" lon="2.42898">
        <ele>516.2</ele>
        <time>2022-05-21 03:57:24</time>
      </trkpt>
      <trkpt lat="41.98537" lon="2.42898">
        <ele>516.4</ele>
        <time>2022-05-21 03:57:25</time>
      </trkpt>
      <trkpt lat="41.98536" lon="2.42898">
        <ele>516.6</ele>
        <time>2022-05-21 03:57:26</time>
      </trkpt>
      <trkpt lat="41.98534" lon="2.42898">
        <ele>516.8</ele>
        <time>2022-05-21 03:57:27</time>
      </trkpt>
      <trkpt lat="41.98532" lon="2.42897">
        <ele>517</ele>
        <time>2022-05-21 03:57:28</time>
      </trkpt>
      <trkpt lat="41.98531" lon="2.42897">
        <ele>517.4</ele>
        <time>2022-05-21 03:57:29</time>
      </trkpt>
      <trkpt lat="41.98529" lon="2.42897">
        <ele>517.6</ele>
        <time>2022-05-21 03:57:30</time>
      </trkpt>
      <trkpt lat="41.98528" lon="2.42898">
        <ele>517.8</ele>
        <time>2022-05-21 03:57:31</time>
      </trkpt>
      <trkpt lat="41.98526" lon="2.42898">
        <ele>518</ele>
        <time>2022-05-21 03:57:32</time>
      </trkpt>
      <trkpt lat="41.98524" lon="2.42899">
        <ele>518.4</ele>
        <time>2022-05-21 03:57:33</time>
      </trkpt>
      <trkpt lat="41.98522" lon="2.42899">
        <ele>518.6</ele>
        <time>2022-05-21 03:57:34</time>
      </trkpt>
      <trkpt lat="41.9852" lon="2.42899">
        <ele>518.8</ele>
        <time>2022-05-21 03:57:35</time>
      </trkpt>
      <trkpt lat="41.98519" lon="2.429">
        <ele>519</ele>
        <time>2022-05-21 03:57:36</time>
      </trkpt>
      <trkpt lat="41.98517" lon="2.42901">
        <ele>519.4</ele>
        <time>2022-05-21 03:57:37</time>
      </trkpt>
      <trkpt lat="41.98516" lon="2.42902">
        <ele>519.6</ele>
        <time>2022-05-21 03:57:38</time>
      </trkpt>
      <trkpt lat="41.98514" lon="2.42903">
        <ele>519.8</ele>
        <time>2022-05-21 03:57:39</time>
      </trkpt>
      <trkpt lat="41.98513" lon="2.42904">
        <ele>520</ele>
        <time>2022-05-21 03:57:40</time>
      </trkpt>
      <trkpt lat="41.98512" lon="2.42905">
        <ele>520.2</ele>
        <time>2022-05-21 03:57:41</time>
      </trkpt>
      <trkpt lat="41.98511" lon="2.42906">
        <ele>520.6</ele>
        <time>2022-05-21 03:57:42</time>
      </trkpt>
      <trkpt lat="41.9851" lon="2.42908">
        <ele>520.8</ele>
        <time>2022-05-21 03:57:43</time>
      </trkpt>
      <trkpt lat="41.98508" lon="2.42909">
        <ele>521</ele>
        <time>2022-05-21 03:57:44</time>
      </trkpt>
      <trkpt lat="41.98507" lon="2.42911">
        <ele>521.2</ele>
        <time>2022-05-21 03:57:45</time>
      </trkpt>
      <trkpt lat="41.98506" lon="2.42913">
        <ele>521.4</ele>
        <time>2022-05-21 03:57:46</time>
      </trkpt>
      <trkpt lat="41.98505" lon="2.42915">
        <ele>521.6</ele>
        <time>2022-05-21 03:57:47</time>
      </trkpt>
      <trkpt lat="41.98505" lon="2.42917">
        <ele>521.8</ele>
        <time>2022-05-21 03:57:48</time>
      </trkpt>
      <trkpt lat="41.98504" lon="2.4292">
        <ele>521.8</ele>
        <time>2022-05-21 03:57:49</time>
      </trkpt>
      <trkpt lat="41.98503" lon="2.42922">
        <ele>522</ele>
        <time>2022-05-21 03:57:50</time>
      </trkpt>
      <trkpt lat="41.98503" lon="2.42925">
        <ele>522.2</ele>
        <time>2022-05-21 03:57:51</time>
      </trkpt>
      <trkpt lat="41.98503" lon="2.42927">
        <ele>522.2</ele>
        <time>2022-05-21 03:57:52</time>
      </trkpt>
      <trkpt lat="41.98502" lon="2.4293">
        <ele>522.4</ele>
        <time>2022-05-21 03:57:53</time>
      </trkpt>
      <trkpt lat="41.98502" lon="2.42933">
        <ele>522.4</ele>
        <time>2022-05-21 03:57:54</time>
      </trkpt>
      <trkpt lat="41.98502" lon="2.42936">
        <ele>522.6</ele>
        <time>2022-05-21 03:57:55</time>
      </trkpt>
      <trkpt lat="41.98502" lon="2.4294">
        <ele>522.6</ele>
        <time>2022-05-21 03:57:56</time>
      </trkpt>
      <trkpt lat="41.98502" lon="2.42943">
        <ele>522.8</ele>
        <time>2022-05-21 03:57:57</time>
      </trkpt>
      <trkpt lat="41.98502" lon="2.42945">
        <ele>522.8</ele>
        <time>2022-05-21 03:57:58</time>
      </trkpt>
      <trkpt lat="41.98503" lon="2.42948">
        <ele>523</ele>
        <time>2022-05-21 03:57:59</time>
      </trkpt>
      <trkpt lat="41.98503" lon="2.42951">
        <ele>523.2</ele>
        <time>2022-05-21 03:58:00</time>
      </trkpt>
      <trkpt lat="41.98503" lon="2.42953">
        <ele>523.2</ele>
        <time>2022-05-21 03:58:01</time>
      </trkpt>
      <trkpt lat="41.98503" lon="2.42956">
        <ele>523.4</ele>
        <time>2022-05-21 03:58:02</time>
      </trkpt>
      <trkpt lat="41.98503" lon="2.42959">
        <ele>523.6</ele>
        <time>2022-05-21 03:58:03</time>
      </trkpt>
      <trkpt lat="41.98503" lon="2.42962">
        <ele>523.8</ele>
        <time>2022-05-21 03:58:04</time>
      </trkpt>
      <trkpt lat="41.98503" lon="2.42964">
        <ele>524</ele>
        <time>2022-05-21 03:58:05</time>
      </trkpt>
      <trkpt lat="41.98503" lon="2.42967">
        <ele>524.2</ele>
        <time>2022-05-21 03:58:06</time>
      </trkpt>
      <trkpt lat="41.98503" lon="2.42969">
        <ele>524.4</ele>
        <time>2022-05-21 03:58:07</time>
      </trkpt>
      <trkpt lat="41.98504" lon="2.42972">
        <ele>524.6</ele>
        <time>2022-05-21 03:58:08</time>
      </trkpt>
      <trkpt lat="41.98504" lon="2.42974">
        <ele>524.8</ele>
        <time>2022-05-21 03:58:09</time>
      </trkpt>
      <trkpt lat="41.98505" lon="2.42976">
        <ele>525</ele>
        <time>2022-05-21 03:58:10</time>
      </trkpt>
      <trkpt lat="41.98505" lon="2.42978">
        <ele>525.2</ele>
        <time>2022-05-21 03:58:11</time>
      </trkpt>
      <trkpt lat="41.98505" lon="2.4298">
        <ele>525.4</ele>
        <time>2022-05-21 03:58:12</time>
      </trkpt>
      <trkpt lat="41.98505" lon="2.42982">
        <ele>525.8</ele>
        <time>2022-05-21 03:58:13</time>
      </trkpt>
      <trkpt lat="41.98505" lon="2.42985">
        <ele>526</ele>
        <time>2022-05-21 03:58:14</time>
      </trkpt>
      <trkpt lat="41.98505" lon="2.42987">
        <ele>526.2</ele>
        <time>2022-05-21 03:58:15</time>
      </trkpt>
      <trkpt lat="41.98505" lon="2.42989">
        <ele>526.4</ele>
        <time>2022-05-21 03:58:16</time>
      </trkpt>
      <trkpt lat="41.98505" lon="2.42991">
        <ele>526.6</ele>
        <time>2022-05-21 03:58:17</time>
      </trkpt>
      <trkpt lat="41.98505" lon="2.42993">
        <ele>526.8</ele>
        <time>2022-05-21 03:58:18</time>
      </trkpt>
      <trkpt lat="41.98504" lon="2.42996">
        <ele>526.8</ele>
        <time>2022-05-21 03:58:19</time>
      </trkpt>
      <trkpt lat="41.98504" lon="2.42998">
        <ele>527</ele>
        <time>2022-05-21 03:58:20</time>
      </trkpt>
      <trkpt lat="41.98504" lon="2.43001">
        <ele>527.2</ele>
        <time>2022-05-21 03:58:21</time>
      </trkpt>
      <trkpt lat="41.98504" lon="2.43003">
        <ele>527.4</ele>
        <time>2022-05-21 03:58:22</time>
      </trkpt>
      <trkpt lat="41.98504" lon="2.43006">
        <ele>527.6</ele>
        <time>2022-05-21 03:58:23</time>
      </trkpt>
      <trkpt lat="41.98504" lon="2.43008">
        <ele>527.8</ele>
        <time>2022-05-21 03:58:24</time>
      </trkpt>
      <trkpt lat="41.98503" lon="2.4301">
        <ele>528.2</ele>
        <time>2022-05-21 03:58:25</time>
      </trkpt>
      <trkpt lat="41.98503" lon="2.43012">
        <ele>528.4</ele>
        <time>2022-05-21 03:58:26</time>
      </trkpt>
      <trkpt lat="41.98502" lon="2.43014">
        <ele>528.6</ele>
        <time>2022-05-21 03:58:27</time>
      </trkpt>
      <trkpt lat="41.98501" lon="2.43016">
        <ele>528.8</ele>
        <time>2022-05-21 03:58:28</time>
      </trkpt>
      <trkpt lat="41.98501" lon="2.43018">
        <ele>529.2</ele>
        <time>2022-05-21 03:58:29</time>
      </trkpt>
      <trkpt lat="41.985" lon="2.4302">
        <ele>529.4</ele>
        <time>2022-05-21 03:58:30</time>
      </trkpt>
      <trkpt lat="41.985" lon="2.43022">
        <ele>529.6</ele>
        <time>2022-05-21 03:58:31</time>
      </trkpt>
      <trkpt lat="41.98499" lon="2.43024">
        <ele>530</ele>
        <time>2022-05-21 03:58:32</time>
      </trkpt>
      <trkpt lat="41.98499" lon="2.43026">
        <ele>530.2</ele>
        <time>2022-05-21 03:58:33</time>
      </trkpt>
      <trkpt lat="41.98499" lon="2.43027">
        <ele>530.4</ele>
        <time>2022-05-21 03:58:34</time>
      </trkpt>
      <trkpt lat="41.98498" lon="2.43029">
        <ele>530.6</ele>
        <time>2022-05-21 03:58:35</time>
      </trkpt>
      <trkpt lat="41.98497" lon="2.43031">
        <ele>531</ele>
        <time>2022-05-21 03:58:36</time>
      </trkpt>
      <trkpt lat="41.98497" lon="2.43033">
        <ele>531.2</ele>
        <time>2022-05-21 03:58:37</time>
      </trkpt>
      <trkpt lat="41.98496" lon="2.43035">
        <ele>531.4</ele>
        <time>2022-05-21 03:58:38</time>
      </trkpt>
      <trkpt lat="41.98495" lon="2.43037">
        <ele>531.6</ele>
        <time>2022-05-21 03:58:39</time>
      </trkpt>
      <trkpt lat="41.98495" lon="2.43038">
        <ele>531.8</ele>
        <time>2022-05-21 03:58:40</time>
      </trkpt>
      <trkpt lat="41.98494" lon="2.4304">
        <ele>532</ele>
        <time>2022-05-21 03:58:41</time>
      </trkpt>
      <trkpt lat="41.98493" lon="2.43042">
        <ele>532.2</ele>
        <time>2022-05-21 03:58:42</time>
      </trkpt>
      <trkpt lat="41.98492" lon="2.43044">
        <ele>532.4</ele>
        <time>2022-05-21 03:58:43</time>
      </trkpt>
      <trkpt lat="41.98492" lon="2.43046">
        <ele>532.6</ele>
        <time>2022-05-21 03:58:44</time>
      </trkpt>
      <trkpt lat="41.98491" lon="2.43048">
        <ele>532.8</ele>
        <time>2022-05-21 03:58:45</time>
      </trkpt>
      <trkpt lat="41.98491" lon="2.43051">
        <ele>533</ele>
        <time>2022-05-21 03:58:46</time>
      </trkpt>
      <trkpt lat="41.9849" lon="2.43053">
        <ele>533.2</ele>
        <time>2022-05-21 03:58:47</time>
      </trkpt>
      <trkpt lat="41.98489" lon="2.43055">
        <ele>533.4</ele>
        <time>2022-05-21 03:58:48</time>
      </trkpt>
      <trkpt lat="41.98489" lon="2.43057">
        <ele>533.4</ele>
        <time>2022-05-21 03:58:49</time>
      </trkpt>
      <trkpt lat="41.98488" lon="2.4306">
        <ele>533.6</ele>
        <time>2022-05-21 03:58:50</time>
      </trkpt>
      <trkpt lat="41.98487" lon="2.43063">
        <ele>533.8</ele>
        <time>2022-05-21 03:58:51</time>
      </trkpt>
      <trkpt lat="41.98486" lon="2.43065">
        <ele>533.8</ele>
        <time>2022-05-21 03:58:52</time>
      </trkpt>
      <trkpt lat="41.98486" lon="2.43068">
        <ele>534</ele>
        <time>2022-05-21 03:58:53</time>
      </trkpt>
      <trkpt lat="41.98484" lon="2.4307">
        <ele>534.2</ele>
        <time>2022-05-21 03:58:54</time>
      </trkpt>
      <trkpt lat="41.98484" lon="2.43072">
        <ele>534.2</ele>
        <time>2022-05-21 03:58:55</time>
      </trkpt>
      <trkpt lat="41.98483" lon="2.43075">
        <ele>534.2</ele>
        <time>2022-05-21 03:58:56</time>
      </trkpt>
      <trkpt lat="41.98482" lon="2.43077">
        <ele>534.4</ele>
        <time>2022-05-21 03:58:57</time>
      </trkpt>
      <trkpt lat="41.98481" lon="2.4308">
        <ele>534.4</ele>
        <time>2022-05-21 03:58:58</time>
      </trkpt>
      <trkpt lat="41.98481" lon="2.43083">
        <ele>534.4</ele>
        <time>2022-05-21 03:58:59</time>
      </trkpt>
      <trkpt lat="41.98479" lon="2.43086">
        <ele>534.6</ele>
        <time>2022-05-21 03:59:00</time>
      </trkpt>
      <trkpt lat="41.98478" lon="2.43089">
        <ele>534.6</ele>
        <time>2022-05-21 03:59:01</time>
      </trkpt>
      <trkpt lat="41.98477" lon="2.43092">
        <ele>534.6</ele>
        <time>2022-05-21 03:59:02</time>
      </trkpt>
      <trkpt lat="41.98476" lon="2.43095">
        <ele>534.6</ele>
        <time>2022-05-21 03:59:03</time>
      </trkpt>
      <trkpt lat="41.98475" lon="2.43098">
        <ele>534.6</ele>
        <time>2022-05-21 03:59:04</time>
      </trkpt>
      <trkpt lat="41.98473" lon="2.43102">
        <ele>534.8</ele>
        <time>2022-05-21 03:59:05</time>
      </trkpt>
      <trkpt lat="41.98472" lon="2.43105">
        <ele>534.8</ele>
        <time>2022-05-21 03:59:06</time>
      </trkpt>
      <trkpt lat="41.98471" lon="2.43108">
        <ele>534.8</ele>
        <time>2022-05-21 03:59:07</time>
      </trkpt>
      <trkpt lat="41.9847" lon="2.43111">
        <ele>535</ele>
        <time>2022-05-21 03:59:08</time>
      </trkpt>
      <trkpt lat="41.9847" lon="2.43114">
        <ele>535</ele>
        <time>2022-05-21 03:59:09</time>
      </trkpt>
      <trkpt lat="41.98469" lon="2.43117">
        <ele>535.2</ele>
        <time>2022-05-21 03:59:10</time>
      </trkpt>
      <trkpt lat="41.98468" lon="2.4312">
        <ele>535.2</ele>
        <time>2022-05-21 03:59:11</time>
      </trkpt>
      <trkpt lat="41.98468" lon="2.43123">
        <ele>535.4</ele>
        <time>2022-05-21 03:59:12</time>
      </trkpt>
      <trkpt lat="41.98467" lon="2.43126">
        <ele>535.4</ele>
        <time>2022-05-21 03:59:13</time>
      </trkpt>
      <trkpt lat="41.98466" lon="2.43129">
        <ele>535.6</ele>
        <time>2022-05-21 03:59:14</time>
      </trkpt>
      <trkpt lat="41.98465" lon="2.43131">
        <ele>535.8</ele>
        <time>2022-05-21 03:59:15</time>
      </trkpt>
      <trkpt lat="41.98464" lon="2.43134">
        <ele>536</ele>
        <time>2022-05-21 03:59:16</time>
      </trkpt>
      <trkpt lat="41.98463" lon="2.43137">
        <ele>536</ele>
        <time>2022-05-21 03:59:17</time>
      </trkpt>
      <trkpt lat="41.98462" lon="2.4314">
        <ele>536.2</ele>
        <time>2022-05-21 03:59:18</time>
      </trkpt>
      <trkpt lat="41.98461" lon="2.43143">
        <ele>536.4</ele>
        <time>2022-05-21 03:59:19</time>
      </trkpt>
      <trkpt lat="41.9846" lon="2.43145">
        <ele>536.6</ele>
        <time>2022-05-21 03:59:20</time>
      </trkpt>
      <trkpt lat="41.98459" lon="2.43148">
        <ele>536.8</ele>
        <time>2022-05-21 03:59:21</time>
      </trkpt>
      <trkpt lat="41.98458" lon="2.43151">
        <ele>537</ele>
        <time>2022-05-21 03:59:22</time>
      </trkpt>
      <trkpt lat="41.98457" lon="2.43153">
        <ele>537.2</ele>
        <time>2022-05-21 03:59:23</time>
      </trkpt>
      <trkpt lat="41.98457" lon="2.43156">
        <ele>537.4</ele>
        <time>2022-05-21 03:59:24</time>
      </trkpt>
      <trkpt lat="41.98457" lon="2.43159">
        <ele>537.6</ele>
        <time>2022-05-21 03:59:25</time>
      </trkpt>
      <trkpt lat="41.98456" lon="2.43162">
        <ele>537.8</ele>
        <time>2022-05-21 03:59:26</time>
      </trkpt>
      <trkpt lat="41.98456" lon="2.43165">
        <ele>538</ele>
        <time>2022-05-21 03:59:27</time>
      </trkpt>
      <trkpt lat="41.98456" lon="2.43168">
        <ele>538.2</ele>
        <time>2022-05-21 03:59:28</time>
      </trkpt>
      <trkpt lat="41.98456" lon="2.4317">
        <ele>538.4</ele>
        <time>2022-05-21 03:59:29</time>
      </trkpt>
      <trkpt lat="41.98457" lon="2.43173">
        <ele>538.6</ele>
        <time>2022-05-21 03:59:30</time>
      </trkpt>
      <trkpt lat="41.98457" lon="2.43176">
        <ele>538.8</ele>
        <time>2022-05-21 03:59:31</time>
      </trkpt>
      <trkpt lat="41.98458" lon="2.43178">
        <ele>539</ele>
        <time>2022-05-21 03:59:32</time>
      </trkpt>
      <trkpt lat="41.9846" lon="2.43179">
        <ele>539.4</ele>
        <time>2022-05-21 03:59:33</time>
      </trkpt>
      <trkpt lat="41.98461" lon="2.4318">
        <ele>539.6</ele>
        <time>2022-05-21 03:59:34</time>
      </trkpt>
      <trkpt lat="41.98462" lon="2.43181">
        <ele>539.8</ele>
        <time>2022-05-21 03:59:35</time>
      </trkpt>
      <trkpt lat="41.98464" lon="2.43181">
        <ele>540</ele>
        <time>2022-05-21 03:59:36</time>
      </trkpt>
      <trkpt lat="41.98466" lon="2.43182">
        <ele>540.2</ele>
        <time>2022-05-21 03:59:37</time>
      </trkpt>
      <trkpt lat="41.98468" lon="2.43182">
        <ele>540.4</ele>
        <time>2022-05-21 03:59:38</time>
      </trkpt>
      <trkpt lat="41.9847" lon="2.43183">
        <ele>540.6</ele>
        <time>2022-05-21 03:59:39</time>
      </trkpt>
      <trkpt lat="41.98471" lon="2.43184">
        <ele>540.8</ele>
        <time>2022-05-21 03:59:40</time>
      </trkpt>
      <trkpt lat="41.98473" lon="2.43184">
        <ele>541</ele>
        <time>2022-05-21 03:59:41</time>
      </trkpt>
      <trkpt lat="41.98476" lon="2.43185">
        <ele>541</ele>
        <time>2022-05-21 03:59:42</time>
      </trkpt>
      <trkpt lat="41.98479" lon="2.43186">
        <ele>541.2</ele>
        <time>2022-05-21 03:59:43</time>
      </trkpt>
      <trkpt lat="41.98481" lon="2.43187">
        <ele>541.2</ele>
        <time>2022-05-21 03:59:44</time>
      </trkpt>
      <trkpt lat="41.98484" lon="2.43188">
        <ele>541.4</ele>
        <time>2022-05-21 03:59:45</time>
      </trkpt>
      <trkpt lat="41.98486" lon="2.43189">
        <ele>541.4</ele>
        <time>2022-05-21 03:59:46</time>
      </trkpt>
      <trkpt lat="41.98489" lon="2.4319">
        <ele>541.6</ele>
        <time>2022-05-21 03:59:47</time>
      </trkpt>
      <trkpt lat="41.98492" lon="2.43191">
        <ele>541.6</ele>
        <time>2022-05-21 03:59:48</time>
      </trkpt>
      <trkpt lat="41.98494" lon="2.43193">
        <ele>541.6</ele>
        <time>2022-05-21 03:59:49</time>
      </trkpt>
      <trkpt lat="41.98497" lon="2.43195">
        <ele>541.6</ele>
        <time>2022-05-21 03:59:50</time>
      </trkpt>
      <trkpt lat="41.985" lon="2.43197">
        <ele>541.8</ele>
        <time>2022-05-21 03:59:51</time>
      </trkpt>
      <trkpt lat="41.98503" lon="2.43199">
        <ele>541.8</ele>
        <time>2022-05-21 03:59:52</time>
      </trkpt>
      <trkpt lat="41.98506" lon="2.43201">
        <ele>541.8</ele>
        <time>2022-05-21 03:59:53</time>
      </trkpt>
      <trkpt lat="41.9851" lon="2.43204">
        <ele>541.8</ele>
        <time>2022-05-21 03:59:54</time>
      </trkpt>
      <trkpt lat="41.98513" lon="2.43206">
        <ele>541.8</ele>
        <time>2022-05-21 03:59:55</time>
      </trkpt>
      <trkpt lat="41.98516" lon="2.43208">
        <ele>541.6</ele>
        <time>2022-05-21 03:59:56</time>
      </trkpt>
      <trkpt lat="41.9852" lon="2.43211">
        <ele>541.6</ele>
        <time>2022-05-21 03:59:57</time>
      </trkpt>
      <trkpt lat="41.98523" lon="2.43214">
        <ele>541.6</ele>
        <time>2022-05-21 03:59:58</time>
      </trkpt>
      <trkpt lat="41.98528" lon="2.43217">
        <ele>541.6</ele>
        <time>2022-05-21 03:59:59</time>
      </trkpt>
      <trkpt lat="41.98531" lon="2.4322">
        <ele>541.6</ele>
        <time>2022-05-21 04:00:00</time>
      </trkpt>
      <trkpt lat="41.98535" lon="2.43222">
        <ele>541.6</ele>
        <time>2022-05-21 04:00:01</time>
      </trkpt>
      <trkpt lat="41.98539" lon="2.43225">
        <ele>541.6</ele>
        <time>2022-05-21 04:00:02</time>
      </trkpt>
      <trkpt lat="41.98542" lon="2.43229">
        <ele>541.6</ele>
        <time>2022-05-21 04:00:03</time>
      </trkpt>
      <trkpt lat="41.98545" lon="2.43232">
        <ele>541.6</ele>
        <time>2022-05-21 04:00:04</time>
      </trkpt>
      <trkpt lat="41.98549" lon="2.43235">
        <ele>541.6</ele>
        <time>2022-05-21 04:00:05</time>
      </trkpt>
      <trkpt lat="41.98552" lon="2.43238">
        <ele>541.6</ele>
        <time>2022-05-21 04:00:06</time>
      </trkpt>
      <trkpt lat="41.98556" lon="2.43242">
        <ele>541.6</ele>
        <time>2022-05-21 04:00:07</time>
      </trkpt>
      <trkpt lat="41.98559" lon="2.43246">
        <ele>541.6</ele>
        <time>2022-05-21 04:00:08</time>
      </trkpt>
      <trkpt lat="41.98561" lon="2.4325">
        <ele>541.6</ele>
        <time>2022-05-21 04:00:09</time>
      </trkpt>
      <trkpt lat="41.98563" lon="2.43255">
        <ele>541.6</ele>
        <time>2022-05-21 04:00:10</time>
      </trkpt>
      <trkpt lat="41.98565" lon="2.43259">
        <ele>541.8</ele>
        <time>2022-05-21 04:00:11</time>
      </trkpt>
      <trkpt lat="41.98567" lon="2.43264">
        <ele>541.8</ele>
        <time>2022-05-21 04:00:12</time>
      </trkpt>
      <trkpt lat="41.98568" lon="2.43269">
        <ele>542</ele>
        <time>2022-05-21 04:00:13</time>
      </trkpt>
      <trkpt lat="41.98569" lon="2.43274">
        <ele>542</ele>
        <time>2022-05-21 04:00:14</time>
      </trkpt>
      <trkpt lat="41.98569" lon="2.43278">
        <ele>542.2</ele>
        <time>2022-05-21 04:00:15</time>
      </trkpt>
      <trkpt lat="41.98569" lon="2.43283">
        <ele>542.4</ele>
        <time>2022-05-21 04:00:16</time>
      </trkpt>
      <trkpt lat="41.98569" lon="2.43287">
        <ele>542.4</ele>
        <time>2022-05-21 04:00:17</time>
      </trkpt>
      <trkpt lat="41.98569" lon="2.43292">
        <ele>542.6</ele>
        <time>2022-05-21 04:00:18</time>
      </trkpt>
      <trkpt lat="41.98569" lon="2.43295">
        <ele>542.8</ele>
        <time>2022-05-21 04:00:19</time>
      </trkpt>
      <trkpt lat="41.98569" lon="2.43297">
        <ele>542.8</ele>
        <time>2022-05-21 04:00:20</time>
      </trkpt>
      <trkpt lat="41.9857" lon="2.43302">
        <ele>543.2</ele>
        <time>2022-05-21 04:00:21</time>
      </trkpt>
      <trkpt lat="41.9857" lon="2.43305">
        <ele>543.4</ele>
        <time>2022-05-21 04:00:22</time>
      </trkpt>
      <trkpt lat="41.98571" lon="2.43308">
        <ele>543.6</ele>
        <time>2022-05-21 04:00:23</time>
      </trkpt>
      <trkpt lat="41.98571" lon="2.4331">
        <ele>543.8</ele>
        <time>2022-05-21 04:00:24</time>
      </trkpt>
      <trkpt lat="41.98571" lon="2.43313">
        <ele>544</ele>
        <time>2022-05-21 04:00:25</time>
      </trkpt>
      <trkpt lat="41.98571" lon="2.43315">
        <ele>544.2</ele>
        <time>2022-05-21 04:00:26</time>
      </trkpt>
      <trkpt lat="41.98571" lon="2.43317">
        <ele>544.4</ele>
        <time>2022-05-21 04:00:27</time>
      </trkpt>
      <trkpt lat="41.9857" lon="2.4332">
        <ele>544.6</ele>
        <time>2022-05-21 04:00:28</time>
      </trkpt>
      <trkpt lat="41.9857" lon="2.43323">
        <ele>544.8</ele>
        <time>2022-05-21 04:00:29</time>
      </trkpt>
      <trkpt lat="41.98569" lon="2.43326">
        <ele>544.8</ele>
        <time>2022-05-21 04:00:30</time>
      </trkpt>
      <trkpt lat="41.98569" lon="2.43329">
        <ele>545</ele>
        <time>2022-05-21 04:00:31</time>
      </trkpt>
      <trkpt lat="41.98568" lon="2.43331">
        <ele>545.2</ele>
        <time>2022-05-21 04:00:32</time>
      </trkpt>
      <trkpt lat="41.98567" lon="2.43334">
        <ele>545.4</ele>
        <time>2022-05-21 04:00:33</time>
      </trkpt>
      <trkpt lat="41.98566" lon="2.43337">
        <ele>545.4</ele>
        <time>2022-05-21 04:00:34</time>
      </trkpt>
      <trkpt lat="41.98565" lon="2.4334">
        <ele>545.6</ele>
        <time>2022-05-21 04:00:35</time>
      </trkpt>
      <trkpt lat="41.98563" lon="2.43343">
        <ele>545.8</ele>
        <time>2022-05-21 04:00:36</time>
      </trkpt>
      <trkpt lat="41.98562" lon="2.43345">
        <ele>546</ele>
        <time>2022-05-21 04:00:37</time>
      </trkpt>
      <trkpt lat="41.9856" lon="2.43348">
        <ele>546</ele>
        <time>2022-05-21 04:00:38</time>
      </trkpt>
      <trkpt lat="41.98558" lon="2.4335">
        <ele>546.2</ele>
        <time>2022-05-21 04:00:39</time>
      </trkpt>
      <trkpt lat="41.98555" lon="2.43352">
        <ele>546.4</ele>
        <time>2022-05-21 04:00:40</time>
      </trkpt>
      <trkpt lat="41.98553" lon="2.43354">
        <ele>546.4</ele>
        <time>2022-05-21 04:00:41</time>
      </trkpt>
      <trkpt lat="41.98551" lon="2.43356">
        <ele>546.4</ele>
        <time>2022-05-21 04:00:42</time>
      </trkpt>
      <trkpt lat="41.98548" lon="2.43358">
        <ele>546.6</ele>
        <time>2022-05-21 04:00:43</time>
      </trkpt>
      <trkpt lat="41.98545" lon="2.4336">
        <ele>546.6</ele>
        <time>2022-05-21 04:00:44</time>
      </trkpt>
      <trkpt lat="41.98543" lon="2.43362">
        <ele>546.6</ele>
        <time>2022-05-21 04:00:45</time>
      </trkpt>
      <trkpt lat="41.9854" lon="2.43364">
        <ele>546.8</ele>
        <time>2022-05-21 04:00:46</time>
      </trkpt>
      <trkpt lat="41.98537" lon="2.43367">
        <ele>546.8</ele>
        <time>2022-05-21 04:00:47</time>
      </trkpt>
      <trkpt lat="41.98535" lon="2.43369">
        <ele>547</ele>
        <time>2022-05-21 04:00:48</time>
      </trkpt>
      <trkpt lat="41.98532" lon="2.43372">
        <ele>547</ele>
        <time>2022-05-21 04:00:49</time>
      </trkpt>
      <trkpt lat="41.98531" lon="2.43375">
        <ele>547</ele>
        <time>2022-05-21 04:00:50</time>
      </trkpt>
      <trkpt lat="41.98529" lon="2.43379">
        <ele>547</ele>
        <time>2022-05-21 04:00:51</time>
      </trkpt>
      <trkpt lat="41.98528" lon="2.43384">
        <ele>547</ele>
        <time>2022-05-21 04:00:52</time>
      </trkpt>
      <trkpt lat="41.98528" lon="2.43389">
        <ele>546.8</ele>
        <time>2022-05-21 04:00:53</time>
      </trkpt>
      <trkpt lat="41.98529" lon="2.43394">
        <ele>546.4</ele>
        <time>2022-05-21 04:00:54</time>
      </trkpt>
      <trkpt lat="41.98531" lon="2.43399">
        <ele>546.2</ele>
        <time>2022-05-21 04:00:55</time>
      </trkpt>
      <trkpt lat="41.98534" lon="2.43403">
        <ele>545.8</ele>
        <time>2022-05-21 04:00:56</time>
      </trkpt>
      <trkpt lat="41.98538" lon="2.43405">
        <ele>545.4</ele>
        <time>2022-05-21 04:00:57</time>
      </trkpt>
      <trkpt lat="41.98543" lon="2.43406">
        <ele>544.8</ele>
        <time>2022-05-21 04:00:58</time>
      </trkpt>
      <trkpt lat="41.98549" lon="2.43407">
        <ele>544.2</ele>
        <time>2022-05-21 04:00:59</time>
      </trkpt>
      <trkpt lat="41.98554" lon="2.43408">
        <ele>543.6</ele>
        <time>2022-05-21 04:01:00</time>
      </trkpt>
      <trkpt lat="41.9856" lon="2.4341">
        <ele>542.8</ele>
        <time>2022-05-21 04:01:01</time>
      </trkpt>
      <trkpt lat="41.98567" lon="2.43414">
        <ele>542</ele>
        <time>2022-05-21 04:01:02</time>
      </trkpt>
      <trkpt lat="41.98574" lon="2.43418">
        <ele>541</ele>
        <time>2022-05-21 04:01:03</time>
      </trkpt>
      <trkpt lat="41.98581" lon="2.43423">
        <ele>540</ele>
        <time>2022-05-21 04:01:04</time>
      </trkpt>
      <trkpt lat="41.98587" lon="2.43428">
        <ele>539.2</ele>
        <time>2022-05-21 04:01:05</time>
      </trkpt>
      <trkpt lat="41.98594" lon="2.43432">
        <ele>538.4</ele>
        <time>2022-05-21 04:01:06</time>
      </trkpt>
      <trkpt lat="41.98599" lon="2.43436">
        <ele>537.6</ele>
        <time>2022-05-21 04:01:07</time>
      </trkpt>
      <trkpt lat="41.98605" lon="2.43438">
        <ele>537</ele>
        <time>2022-05-21 04:01:08</time>
      </trkpt>
      <trkpt lat="41.98611" lon="2.43439">
        <ele>536.6</ele>
        <time>2022-05-21 04:01:09</time>
      </trkpt>
      <trkpt lat="41.98616" lon="2.43437">
        <ele>536</ele>
        <time>2022-05-21 04:01:10</time>
      </trkpt>
      <trkpt lat="41.98621" lon="2.43433">
        <ele>535.8</ele>
        <time>2022-05-21 04:01:11</time>
      </trkpt>
      <trkpt lat="41.98625" lon="2.43429">
        <ele>535.6</ele>
        <time>2022-05-21 04:01:12</time>
      </trkpt>
      <trkpt lat="41.9863" lon="2.43425">
        <ele>535.4</ele>
        <time>2022-05-21 04:01:13</time>
      </trkpt>
      <trkpt lat="41.98634" lon="2.43421">
        <ele>535.2</ele>
        <time>2022-05-21 04:01:14</time>
      </trkpt>
      <trkpt lat="41.98639" lon="2.43417">
        <ele>535.2</ele>
        <time>2022-05-21 04:01:15</time>
      </trkpt>
      <trkpt lat="41.98644" lon="2.43414">
        <ele>535</ele>
        <time>2022-05-21 04:01:16</time>
      </trkpt>
      <trkpt lat="41.98648" lon="2.43411">
        <ele>534.8</ele>
        <time>2022-05-21 04:01:17</time>
      </trkpt>
      <trkpt lat="41.98652" lon="2.43408">
        <ele>534.8</ele>
        <time>2022-05-21 04:01:18</time>
      </trkpt>
      <trkpt lat="41.98657" lon="2.43407">
        <ele>534.8</ele>
        <time>2022-05-21 04:01:19</time>
      </trkpt>
      <trkpt lat="41.98661" lon="2.43406">
        <ele>534.8</ele>
        <time>2022-05-21 04:01:20</time>
      </trkpt>
      <trkpt lat="41.98666" lon="2.43404">
        <ele>534.8</ele>
        <time>2022-05-21 04:01:21</time>
      </trkpt>
      <trkpt lat="41.9867" lon="2.43404">
        <ele>534.8</ele>
        <time>2022-05-21 04:01:22</time>
      </trkpt>
      <trkpt lat="41.98674" lon="2.43403">
        <ele>535</ele>
        <time>2022-05-21 04:01:23</time>
      </trkpt>
      <trkpt lat="41.98677" lon="2.43404">
        <ele>535</ele>
        <time>2022-05-21 04:01:24</time>
      </trkpt>
      <trkpt lat="41.98681" lon="2.43406">
        <ele>535</ele>
        <time>2022-05-21 04:01:25</time>
      </trkpt>
      <trkpt lat="41.98685" lon="2.43408">
        <ele>534.8</ele>
        <time>2022-05-21 04:01:26</time>
      </trkpt>
      <trkpt lat="41.98689" lon="2.43411">
        <ele>534.8</ele>
        <time>2022-05-21 04:01:27</time>
      </trkpt>
      <trkpt lat="41.98693" lon="2.43413">
        <ele>534.6</ele>
        <time>2022-05-21 04:01:28</time>
      </trkpt>
      <trkpt lat="41.98698" lon="2.43416">
        <ele>534.4</ele>
        <time>2022-05-21 04:01:29</time>
      </trkpt>
      <trkpt lat="41.98703" lon="2.4342">
        <ele>534.2</ele>
        <time>2022-05-21 04:01:30</time>
      </trkpt>
      <trkpt lat="41.98709" lon="2.43423">
        <ele>533.8</ele>
        <time>2022-05-21 04:01:31</time>
      </trkpt>
      <trkpt lat="41.98715" lon="2.43425">
        <ele>533.6</ele>
        <time>2022-05-21 04:01:32</time>
      </trkpt>
      <trkpt lat="41.98721" lon="2.43428">
        <ele>533.2</ele>
        <time>2022-05-21 04:01:33</time>
      </trkpt>
      <trkpt lat="41.98728" lon="2.43429">
        <ele>532.6</ele>
        <time>2022-05-21 04:01:34</time>
      </trkpt>
      <trkpt lat="41.98734" lon="2.43431">
        <ele>532.2</ele>
        <time>2022-05-21 04:01:35</time>
      </trkpt>
      <trkpt lat="41.9874" lon="2.43433">
        <ele>532</ele>
        <time>2022-05-21 04:01:36</time>
      </trkpt>
      <trkpt lat="41.98744" lon="2.43435">
        <ele>531.8</ele>
        <time>2022-05-21 04:01:37</time>
      </trkpt>
      <trkpt lat="41.98748" lon="2.4344">
        <ele>531.6</ele>
        <time>2022-05-21 04:01:38</time>
      </trkpt>
      <trkpt lat="41.98748" lon="2.43444">
        <ele>531.6</ele>
        <time>2022-05-21 04:01:39</time>
      </trkpt>
      <trkpt lat="41.98748" lon="2.43448">
        <ele>531.6</ele>
        <time>2022-05-21 04:01:40</time>
      </trkpt>
      <trkpt lat="41.98748" lon="2.43452">
        <ele>531.8</ele>
        <time>2022-05-21 04:01:41</time>
      </trkpt>
      <trkpt lat="41.98747" lon="2.43456">
        <ele>532</ele>
        <time>2022-05-21 04:01:42</time>
      </trkpt>
      <trkpt lat="41.98746" lon="2.43459">
        <ele>532.2</ele>
        <time>2022-05-21 04:01:43</time>
      </trkpt>
      <trkpt lat="41.98746" lon="2.43462">
        <ele>532.4</ele>
        <time>2022-05-21 04:01:44</time>
      </trkpt>
      <trkpt lat="41.98744" lon="2.43465">
        <ele>532.6</ele>
        <time>2022-05-21 04:01:45</time>
      </trkpt>
      <trkpt lat="41.98743" lon="2.43467">
        <ele>532.6</ele>
        <time>2022-05-21 04:01:46</time>
      </trkpt>
      <trkpt lat="41.98742" lon="2.4347">
        <ele>532.8</ele>
        <time>2022-05-21 04:01:47</time>
      </trkpt>
      <trkpt lat="41.9874" lon="2.43473">
        <ele>533</ele>
        <time>2022-05-21 04:01:48</time>
      </trkpt>
      <trkpt lat="41.98738" lon="2.43476">
        <ele>533.4</ele>
        <time>2022-05-21 04:01:49</time>
      </trkpt>
      <trkpt lat="41.98737" lon="2.43478">
        <ele>533.6</ele>
        <time>2022-05-21 04:01:50</time>
      </trkpt>
      <trkpt lat="41.98736" lon="2.4348">
        <ele>533.8</ele>
        <time>2022-05-21 04:01:51</time>
      </trkpt>
      <trkpt lat="41.98735" lon="2.43482">
        <ele>534</ele>
        <time>2022-05-21 04:01:52</time>
      </trkpt>
      <trkpt lat="41.98733" lon="2.43484">
        <ele>534.2</ele>
        <time>2022-05-21 04:01:53</time>
      </trkpt>
      <trkpt lat="41.98732" lon="2.43485">
        <ele>534.4</ele>
        <time>2022-05-21 04:01:54</time>
      </trkpt>
      <trkpt lat="41.9873" lon="2.43487">
        <ele>534.8</ele>
        <time>2022-05-21 04:01:55</time>
      </trkpt>
      <trkpt lat="41.98729" lon="2.43489">
        <ele>535</ele>
        <time>2022-05-21 04:01:56</time>
      </trkpt>
      <trkpt lat="41.98727" lon="2.43491">
        <ele>535.2</ele>
        <time>2022-05-21 04:01:57</time>
      </trkpt>
      <trkpt lat="41.98726" lon="2.43493">
        <ele>535.4</ele>
        <time>2022-05-21 04:01:58</time>
      </trkpt>
      <trkpt lat="41.98725" lon="2.43495">
        <ele>535.6</ele>
        <time>2022-05-21 04:01:59</time>
      </trkpt>
      <trkpt lat="41.98724" lon="2.43497">
        <ele>535.8</ele>
        <time>2022-05-21 04:02:00</time>
      </trkpt>
      <trkpt lat="41.98723" lon="2.43499">
        <ele>536</ele>
        <time>2022-05-21 04:02:01</time>
      </trkpt>
      <trkpt lat="41.98722" lon="2.43501">
        <ele>536.4</ele>
        <time>2022-05-21 04:02:02</time>
      </trkpt>
      <trkpt lat="41.98722" lon="2.43504">
        <ele>536.6</ele>
        <time>2022-05-21 04:02:03</time>
      </trkpt>
      <trkpt lat="41.98722" lon="2.43507">
        <ele>536.8</ele>
        <time>2022-05-21 04:02:04</time>
      </trkpt>
      <trkpt lat="41.98722" lon="2.4351">
        <ele>537</ele>
        <time>2022-05-21 04:02:05</time>
      </trkpt>
      <trkpt lat="41.98722" lon="2.43513">
        <ele>537.2</ele>
        <time>2022-05-21 04:02:06</time>
      </trkpt>
      <trkpt lat="41.98723" lon="2.43515">
        <ele>537.6</ele>
        <time>2022-05-21 04:02:07</time>
      </trkpt>
      <trkpt lat="41.98724" lon="2.43516">
        <ele>537.8</ele>
        <time>2022-05-21 04:02:08</time>
      </trkpt>
      <trkpt lat="41.98724" lon="2.43518">
        <ele>538</ele>
        <time>2022-05-21 04:02:09</time>
      </trkpt>
      <trkpt lat="41.98725" lon="2.43519">
        <ele>538.2</ele>
        <time>2022-05-21 04:02:10</time>
      </trkpt>
      <trkpt lat="41.98726" lon="2.43521">
        <ele>538.4</ele>
        <time>2022-05-21 04:02:11</time>
      </trkpt>
      <trkpt lat="41.98727" lon="2.43522">
        <ele>538.6</ele>
        <time>2022-05-21 04:02:12</time>
      </trkpt>
      <trkpt lat="41.98729" lon="2.43523">
        <ele>538.8</ele>
        <time>2022-05-21 04:02:13</time>
      </trkpt>
      <trkpt lat="41.9873" lon="2.43524">
        <ele>539</ele>
        <time>2022-05-21 04:02:14</time>
      </trkpt>
      <trkpt lat="41.98731" lon="2.43525">
        <ele>539.2</ele>
        <time>2022-05-21 04:02:15</time>
      </trkpt>
      <trkpt lat="41.98733" lon="2.43526">
        <ele>539.4</ele>
        <time>2022-05-21 04:02:16</time>
      </trkpt>
      <trkpt lat="41.98734" lon="2.43528">
        <ele>539.6</ele>
        <time>2022-05-21 04:02:17</time>
      </trkpt>
      <trkpt lat="41.98735" lon="2.43529">
        <ele>539.8</ele>
        <time>2022-05-21 04:02:18</time>
      </trkpt>
      <trkpt lat="41.98736" lon="2.4353">
        <ele>540</ele>
        <time>2022-05-21 04:02:19</time>
      </trkpt>
      <trkpt lat="41.98738" lon="2.43532">
        <ele>540.2</ele>
        <time>2022-05-21 04:02:20</time>
      </trkpt>
      <trkpt lat="41.98739" lon="2.43533">
        <ele>540.6</ele>
        <time>2022-05-21 04:02:21</time>
      </trkpt>
      <trkpt lat="41.9874" lon="2.43534">
        <ele>540.8</ele>
        <time>2022-05-21 04:02:22</time>
      </trkpt>
      <trkpt lat="41.98742" lon="2.43535">
        <ele>541</ele>
        <time>2022-05-21 04:02:23</time>
      </trkpt>
      <trkpt lat="41.98743" lon="2.43536">
        <ele>541.2</ele>
        <time>2022-05-21 04:02:24</time>
      </trkpt>
      <trkpt lat="41.98745" lon="2.43537">
        <ele>541.4</ele>
        <time>2022-05-21 04:02:25</time>
      </trkpt>
      <trkpt lat="41.98746" lon="2.43538">
        <ele>541.6</ele>
        <time>2022-05-21 04:02:26</time>
      </trkpt>
      <trkpt lat="41.98747" lon="2.43539">
        <ele>541.8</ele>
        <time>2022-05-21 04:02:27</time>
      </trkpt>
      <trkpt lat="41.98749" lon="2.4354">
        <ele>542</ele>
        <time>2022-05-21 04:02:28</time>
      </trkpt>
      <trkpt lat="41.9875" lon="2.43541">
        <ele>542.4</ele>
        <time>2022-05-21 04:02:29</time>
      </trkpt>
      <trkpt lat="41.98751" lon="2.43542">
        <ele>542.6</ele>
        <time>2022-05-21 04:02:30</time>
      </trkpt>
      <trkpt lat="41.98753" lon="2.43543">
        <ele>542.8</ele>
        <time>2022-05-21 04:02:31</time>
      </trkpt>
      <trkpt lat="41.98754" lon="2.43544">
        <ele>543</ele>
        <time>2022-05-21 04:02:32</time>
      </trkpt>
      <trkpt lat="41.98755" lon="2.43545">
        <ele>543.2</ele>
        <time>2022-05-21 04:02:33</time>
      </trkpt>
      <trkpt lat="41.98757" lon="2.43546">
        <ele>543.4</ele>
        <time>2022-05-21 04:02:34</time>
      </trkpt>
      <trkpt lat="41.98758" lon="2.43547">
        <ele>543.6</ele>
        <time>2022-05-21 04:02:35</time>
      </trkpt>
      <trkpt lat="41.98759" lon="2.43548">
        <ele>543.8</ele>
        <time>2022-05-21 04:02:36</time>
      </trkpt>
      <trkpt lat="41.98761" lon="2.43549">
        <ele>544</ele>
        <time>2022-05-21 04:02:37</time>
      </trkpt>
      <trkpt lat="41.98762" lon="2.4355">
        <ele>544.2</ele>
        <time>2022-05-21 04:02:38</time>
      </trkpt>
      <trkpt lat="41.98764" lon="2.43551">
        <ele>544.6</ele>
        <time>2022-05-21 04:02:39</time>
      </trkpt>
      <trkpt lat="41.98765" lon="2.43552">
        <ele>544.8</ele>
        <time>2022-05-21 04:02:40</time>
      </trkpt>
      <trkpt lat="41.98766" lon="2.43552">
        <ele>545</ele>
        <time>2022-05-21 04:02:41</time>
      </trkpt>
      <trkpt lat="41.98767" lon="2.43553">
        <ele>545.2</ele>
        <time>2022-05-21 04:02:42</time>
      </trkpt>
      <trkpt lat="41.98769" lon="2.43554">
        <ele>545.4</ele>
        <time>2022-05-21 04:02:43</time>
      </trkpt>
      <trkpt lat="41.9877" lon="2.43555">
        <ele>545.4</ele>
        <time>2022-05-21 04:02:44</time>
      </trkpt>
      <trkpt lat="41.98772" lon="2.43557">
        <ele>545.6</ele>
        <time>2022-05-21 04:02:45</time>
      </trkpt>
      <trkpt lat="41.98773" lon="2.43558">
        <ele>545.8</ele>
        <time>2022-05-21 04:02:46</time>
      </trkpt>
      <trkpt lat="41.98774" lon="2.4356">
        <ele>546</ele>
        <time>2022-05-21 04:02:47</time>
      </trkpt>
      <trkpt lat="41.98776" lon="2.43561">
        <ele>546.2</ele>
        <time>2022-05-21 04:02:48</time>
      </trkpt>
      <trkpt lat="41.98778" lon="2.43562">
        <ele>546.4</ele>
        <time>2022-05-21 04:02:49</time>
      </trkpt>
      <trkpt lat="41.98779" lon="2.43564">
        <ele>546.4</ele>
        <time>2022-05-21 04:02:50</time>
      </trkpt>
      <trkpt lat="41.98781" lon="2.43565">
        <ele>546.6</ele>
        <time>2022-05-21 04:02:51</time>
      </trkpt>
      <trkpt lat="41.98783" lon="2.43566">
        <ele>546.8</ele>
        <time>2022-05-21 04:02:52</time>
      </trkpt>
      <trkpt lat="41.98785" lon="2.43567">
        <ele>546.8</ele>
        <time>2022-05-21 04:02:53</time>
      </trkpt>
      <trkpt lat="41.98787" lon="2.43568">
        <ele>547</ele>
        <time>2022-05-21 04:02:54</time>
      </trkpt>
      <trkpt lat="41.98789" lon="2.4357">
        <ele>547</ele>
        <time>2022-05-21 04:02:55</time>
      </trkpt>
      <trkpt lat="41.98792" lon="2.4357">
        <ele>547</ele>
        <time>2022-05-21 04:02:56</time>
      </trkpt>
      <trkpt lat="41.98794" lon="2.43571">
        <ele>547</ele>
        <time>2022-05-21 04:02:57</time>
      </trkpt>
      <trkpt lat="41.98796" lon="2.43572">
        <ele>547</ele>
        <time>2022-05-21 04:02:58</time>
      </trkpt>
      <trkpt lat="41.98799" lon="2.43573">
        <ele>547</ele>
        <time>2022-05-21 04:02:59</time>
      </trkpt>
      <trkpt lat="41.98803" lon="2.43575">
        <ele>546.8</ele>
        <time>2022-05-21 04:03:00</time>
      </trkpt>
      <trkpt lat="41.98806" lon="2.43576">
        <ele>546.8</ele>
        <time>2022-05-21 04:03:01</time>
      </trkpt>
      <trkpt lat="41.9881" lon="2.43577">
        <ele>546.6</ele>
        <time>2022-05-21 04:03:02</time>
      </trkpt>
      <trkpt lat="41.98815" lon="2.43577">
        <ele>546.4</ele>
        <time>2022-05-21 04:03:03</time>
      </trkpt>
      <trkpt lat="41.9882" lon="2.43577">
        <ele>546.2</ele>
        <time>2022-05-21 04:03:04</time>
      </trkpt>
      <trkpt lat="41.98825" lon="2.43577">
        <ele>545.8</ele>
        <time>2022-05-21 04:03:05</time>
      </trkpt>
      <trkpt lat="41.98831" lon="2.43576">
        <ele>545.6</ele>
        <time>2022-05-21 04:03:06</time>
      </trkpt>
      <trkpt lat="41.98837" lon="2.43575">
        <ele>545</ele>
        <time>2022-05-21 04:03:07</time>
      </trkpt>
      <trkpt lat="41.98843" lon="2.43574">
        <ele>544.6</ele>
        <time>2022-05-21 04:03:08</time>
      </trkpt>
      <trkpt lat="41.98849" lon="2.43574">
        <ele>544.4</ele>
        <time>2022-05-21 04:03:09</time>
      </trkpt>
      <trkpt lat="41.98856" lon="2.43575">
        <ele>544.2</ele>
        <time>2022-05-21 04:03:10</time>
      </trkpt>
      <trkpt lat="41.98861" lon="2.43576">
        <ele>544</ele>
        <time>2022-05-21 04:03:11</time>
      </trkpt>
      <trkpt lat="41.98866" lon="2.43579">
        <ele>543.8</ele>
        <time>2022-05-21 04:03:12</time>
      </trkpt>
      <trkpt lat="41.98871" lon="2.43582">
        <ele>543.8</ele>
        <time>2022-05-21 04:03:13</time>
      </trkpt>
      <trkpt lat="41.98875" lon="2.43586">
        <ele>544</ele>
        <time>2022-05-21 04:03:14</time>
      </trkpt>
      <trkpt lat="41.9888" lon="2.43591">
        <ele>544</ele>
        <time>2022-05-21 04:03:15</time>
      </trkpt>
      <trkpt lat="41.98883" lon="2.43595">
        <ele>544.2</ele>
        <time>2022-05-21 04:03:16</time>
      </trkpt>
      <trkpt lat="41.98886" lon="2.43599">
        <ele>544.4</ele>
        <time>2022-05-21 04:03:17</time>
      </trkpt>
      <trkpt lat="41.98889" lon="2.43603">
        <ele>544.8</ele>
        <time>2022-05-21 04:03:18</time>
      </trkpt>
      <trkpt lat="41.98891" lon="2.43607">
        <ele>545</ele>
        <time>2022-05-21 04:03:19</time>
      </trkpt>
      <trkpt lat="41.98893" lon="2.4361">
        <ele>545.2</ele>
        <time>2022-05-21 04:03:20</time>
      </trkpt>
      <trkpt lat="41.98894" lon="2.43614">
        <ele>545.4</ele>
        <time>2022-05-21 04:03:21</time>
      </trkpt>
      <trkpt lat="41.98895" lon="2.43618">
        <ele>545.8</ele>
        <time>2022-05-21 04:03:22</time>
      </trkpt>
      <trkpt lat="41.98896" lon="2.43622">
        <ele>546</ele>
        <time>2022-05-21 04:03:23</time>
      </trkpt>
      <trkpt lat="41.98897" lon="2.43626">
        <ele>546.2</ele>
        <time>2022-05-21 04:03:24</time>
      </trkpt>
      <trkpt lat="41.98898" lon="2.4363">
        <ele>546.4</ele>
        <time>2022-05-21 04:03:25</time>
      </trkpt>
      <trkpt lat="41.98899" lon="2.43634">
        <ele>546.4</ele>
        <time>2022-05-21 04:03:26</time>
      </trkpt>
      <trkpt lat="41.98899" lon="2.43638">
        <ele>546.6</ele>
        <time>2022-05-21 04:03:27</time>
      </trkpt>
      <trkpt lat="41.98901" lon="2.43643">
        <ele>546.8</ele>
        <time>2022-05-21 04:03:28</time>
      </trkpt>
      <trkpt lat="41.98902" lon="2.43647">
        <ele>546.8</ele>
        <time>2022-05-21 04:03:29</time>
      </trkpt>
      <trkpt lat="41.98903" lon="2.43651">
        <ele>547</ele>
        <time>2022-05-21 04:03:30</time>
      </trkpt>
      <trkpt lat="41.98904" lon="2.43655">
        <ele>547</ele>
        <time>2022-05-21 04:03:31</time>
      </trkpt>
      <trkpt lat="41.98906" lon="2.4366">
        <ele>547.2</ele>
        <time>2022-05-21 04:03:32</time>
      </trkpt>
      <trkpt lat="41.98907" lon="2.43664">
        <ele>547.2</ele>
        <time>2022-05-21 04:03:33</time>
      </trkpt>
      <trkpt lat="41.98908" lon="2.43668">
        <ele>547.4</ele>
        <time>2022-05-21 04:03:34</time>
      </trkpt>
      <trkpt lat="41.98909" lon="2.43672">
        <ele>547.4</ele>
        <time>2022-05-21 04:03:35</time>
      </trkpt>
      <trkpt lat="41.98911" lon="2.43676">
        <ele>547.6</ele>
        <time>2022-05-21 04:03:36</time>
      </trkpt>
      <trkpt lat="41.98912" lon="2.43679">
        <ele>547.6</ele>
        <time>2022-05-21 04:03:37</time>
      </trkpt>
      <trkpt lat="41.98912" lon="2.43683">
        <ele>547.8</ele>
        <time>2022-05-21 04:03:38</time>
      </trkpt>
      <trkpt lat="41.98914" lon="2.43687">
        <ele>548</ele>
        <time>2022-05-21 04:03:39</time>
      </trkpt>
      <trkpt lat="41.98915" lon="2.4369">
        <ele>548.2</ele>
        <time>2022-05-21 04:03:40</time>
      </trkpt>
      <trkpt lat="41.98916" lon="2.43692">
        <ele>548.2</ele>
        <time>2022-05-21 04:03:41</time>
      </trkpt>
      <trkpt lat="41.98918" lon="2.43695">
        <ele>548.4</ele>
        <time>2022-05-21 04:03:42</time>
      </trkpt>
      <trkpt lat="41.98919" lon="2.43697">
        <ele>548.6</ele>
        <time>2022-05-21 04:03:43</time>
      </trkpt>
      <trkpt lat="41.98921" lon="2.437">
        <ele>548.8</ele>
        <time>2022-05-21 04:03:44</time>
      </trkpt>
      <trkpt lat="41.98922" lon="2.43701">
        <ele>549</ele>
        <time>2022-05-21 04:03:45</time>
      </trkpt>
      <trkpt lat="41.98923" lon="2.43702">
        <ele>549.2</ele>
        <time>2022-05-21 04:03:46</time>
      </trkpt>
      <trkpt lat="41.98925" lon="2.43703">
        <ele>549.4</ele>
        <time>2022-05-21 04:03:47</time>
      </trkpt>
      <trkpt lat="41.98927" lon="2.43704">
        <ele>549.4</ele>
        <time>2022-05-21 04:03:48</time>
      </trkpt>
      <trkpt lat="41.98929" lon="2.43705">
        <ele>549.6</ele>
        <time>2022-05-21 04:03:49</time>
      </trkpt>
      <trkpt lat="41.98931" lon="2.43706">
        <ele>549.8</ele>
        <time>2022-05-21 04:03:50</time>
      </trkpt>
      <trkpt lat="41.98933" lon="2.43707">
        <ele>550</ele>
        <time>2022-05-21 04:03:51</time>
      </trkpt>
      <trkpt lat="41.98935" lon="2.43709">
        <ele>550.2</ele>
        <time>2022-05-21 04:03:52</time>
      </trkpt>
      <trkpt lat="41.98936" lon="2.4371">
        <ele>550.4</ele>
        <time>2022-05-21 04:03:53</time>
      </trkpt>
      <trkpt lat="41.98938" lon="2.43712">
        <ele>550.6</ele>
        <time>2022-05-21 04:03:54</time>
      </trkpt>
      <trkpt lat="41.9894" lon="2.43714">
        <ele>550.6</ele>
        <time>2022-05-21 04:03:55</time>
      </trkpt>
      <trkpt lat="41.98941" lon="2.43716">
        <ele>550.8</ele>
        <time>2022-05-21 04:03:56</time>
      </trkpt>
      <trkpt lat="41.98943" lon="2.43718">
        <ele>551</ele>
        <time>2022-05-21 04:03:57</time>
      </trkpt>
      <trkpt lat="41.98944" lon="2.4372">
        <ele>551.2</ele>
        <time>2022-05-21 04:03:58</time>
      </trkpt>
      <trkpt lat="41.98946" lon="2.43722">
        <ele>551.2</ele>
        <time>2022-05-21 04:03:59</time>
      </trkpt>
      <trkpt lat="41.98948" lon="2.43726">
        <ele>551.4</ele>
        <time>2022-05-21 04:04:00</time>
      </trkpt>
      <trkpt lat="41.9895" lon="2.43729">
        <ele>551.6</ele>
        <time>2022-05-21 04:04:01</time>
      </trkpt>
      <trkpt lat="41.98951" lon="2.43732">
        <ele>551.6</ele>
        <time>2022-05-21 04:04:02</time>
      </trkpt>
      <trkpt lat="41.98952" lon="2.43735">
        <ele>551.8</ele>
        <time>2022-05-21 04:04:03</time>
      </trkpt>
      <trkpt lat="41.98954" lon="2.43738">
        <ele>551.8</ele>
        <time>2022-05-21 04:04:04</time>
      </trkpt>
      <trkpt lat="41.98955" lon="2.43741">
        <ele>552</ele>
        <time>2022-05-21 04:04:05</time>
      </trkpt>
      <trkpt lat="41.98955" lon="2.43744">
        <ele>552</ele>
        <time>2022-05-21 04:04:06</time>
      </trkpt>
      <trkpt lat="41.98956" lon="2.43747">
        <ele>552.2</ele>
        <time>2022-05-21 04:04:07</time>
      </trkpt>
      <trkpt lat="41.98957" lon="2.4375">
        <ele>552.2</ele>
        <time>2022-05-21 04:04:08</time>
      </trkpt>
      <trkpt lat="41.98957" lon="2.43752">
        <ele>552.4</ele>
        <time>2022-05-21 04:04:09</time>
      </trkpt>
      <trkpt lat="41.98958" lon="2.43755">
        <ele>552.4</ele>
        <time>2022-05-21 04:04:10</time>
      </trkpt>
      <trkpt lat="41.98959" lon="2.43759">
        <ele>552.6</ele>
        <time>2022-05-21 04:04:11</time>
      </trkpt>
      <trkpt lat="41.9896" lon="2.43762">
        <ele>552.6</ele>
        <time>2022-05-21 04:04:12</time>
      </trkpt>
      <trkpt lat="41.98961" lon="2.43765">
        <ele>552.8</ele>
        <time>2022-05-21 04:04:13</time>
      </trkpt>
      <trkpt lat="41.98962" lon="2.43768">
        <ele>552.8</ele>
        <time>2022-05-21 04:04:14</time>
      </trkpt>
      <trkpt lat="41.98964" lon="2.4377">
        <ele>553</ele>
        <time>2022-05-21 04:04:15</time>
      </trkpt>
      <trkpt lat="41.98965" lon="2.43773">
        <ele>553</ele>
        <time>2022-05-21 04:04:16</time>
      </trkpt>
      <trkpt lat="41.98967" lon="2.43776">
        <ele>553</ele>
        <time>2022-05-21 04:04:17</time>
      </trkpt>
      <trkpt lat="41.98969" lon="2.43778">
        <ele>553.2</ele>
        <time>2022-05-21 04:04:18</time>
      </trkpt>
      <trkpt lat="41.9897" lon="2.4378">
        <ele>553.2</ele>
        <time>2022-05-21 04:04:19</time>
      </trkpt>
      <trkpt lat="41.98973" lon="2.43783">
        <ele>553.2</ele>
        <time>2022-05-21 04:04:20</time>
      </trkpt>
      <trkpt lat="41.98975" lon="2.43785">
        <ele>553.4</ele>
        <time>2022-05-21 04:04:21</time>
      </trkpt>
      <trkpt lat="41.98977" lon="2.43787">
        <ele>553.4</ele>
        <time>2022-05-21 04:04:22</time>
      </trkpt>
      <trkpt lat="41.98979" lon="2.43788">
        <ele>553.4</ele>
        <time>2022-05-21 04:04:23</time>
      </trkpt>
      <trkpt lat="41.98981" lon="2.4379">
        <ele>553.4</ele>
        <time>2022-05-21 04:04:24</time>
      </trkpt>
      <trkpt lat="41.98984" lon="2.43791">
        <ele>553.6</ele>
        <time>2022-05-21 04:04:25</time>
      </trkpt>
      <trkpt lat="41.98987" lon="2.43793">
        <ele>553.6</ele>
        <time>2022-05-21 04:04:26</time>
      </trkpt>
      <trkpt lat="41.98989" lon="2.43794">
        <ele>553.8</ele>
        <time>2022-05-21 04:04:27</time>
      </trkpt>
      <trkpt lat="41.98992" lon="2.43795">
        <ele>553.8</ele>
        <time>2022-05-21 04:04:28</time>
      </trkpt>
      <trkpt lat="41.98994" lon="2.43795">
        <ele>553.8</ele>
        <time>2022-05-21 04:04:29</time>
      </trkpt>
      <trkpt lat="41.98996" lon="2.43795">
        <ele>554</ele>
        <time>2022-05-21 04:04:30</time>
      </trkpt>
      <trkpt lat="41.98999" lon="2.43796">
        <ele>554</ele>
        <time>2022-05-21 04:04:31</time>
      </trkpt>
      <trkpt lat="41.99002" lon="2.43796">
        <ele>554</ele>
        <time>2022-05-21 04:04:32</time>
      </trkpt>
      <trkpt lat="41.99006" lon="2.43795">
        <ele>554</ele>
        <time>2022-05-21 04:04:33</time>
      </trkpt>
      <trkpt lat="41.9901" lon="2.43796">
        <ele>553.8</ele>
        <time>2022-05-21 04:04:34</time>
      </trkpt>
      <trkpt lat="41.99014" lon="2.43796">
        <ele>553.8</ele>
        <time>2022-05-21 04:04:35</time>
      </trkpt>
      <trkpt lat="41.99017" lon="2.43797">
        <ele>553.8</ele>
        <time>2022-05-21 04:04:36</time>
      </trkpt>
      <trkpt lat="41.9902" lon="2.43798">
        <ele>553.8</ele>
        <time>2022-05-21 04:04:37</time>
      </trkpt>
      <trkpt lat="41.99023" lon="2.43799">
        <ele>553.8</ele>
        <time>2022-05-21 04:04:38</time>
      </trkpt>
      <trkpt lat="41.99026" lon="2.438">
        <ele>553.6</ele>
        <time>2022-05-21 04:04:39</time>
      </trkpt>
      <trkpt lat="41.9903" lon="2.43802">
        <ele>553.6</ele>
        <time>2022-05-21 04:04:40</time>
      </trkpt>
      <trkpt lat="41.99033" lon="2.43804">
        <ele>553.8</ele>
        <time>2022-05-21 04:04:41</time>
      </trkpt>
      <trkpt lat="41.99035" lon="2.43806">
        <ele>553.8</ele>
        <time>2022-05-21 04:04:42</time>
      </trkpt>
      <trkpt lat="41.99038" lon="2.43808">
        <ele>553.8</ele>
        <time>2022-05-21 04:04:43</time>
      </trkpt>
      <trkpt lat="41.9904" lon="2.4381">
        <ele>554</ele>
        <time>2022-05-21 04:04:44</time>
      </trkpt>
      <trkpt lat="41.99043" lon="2.43812">
        <ele>554</ele>
        <time>2022-05-21 04:04:45</time>
      </trkpt>
      <trkpt lat="41.99046" lon="2.43814">
        <ele>554.2</ele>
        <time>2022-05-21 04:04:46</time>
      </trkpt>
      <trkpt lat="41.99048" lon="2.43816">
        <ele>554.4</ele>
        <time>2022-05-21 04:04:47</time>
      </trkpt>
      <trkpt lat="41.99051" lon="2.43818">
        <ele>554.6</ele>
        <time>2022-05-21 04:04:48</time>
      </trkpt>
      <trkpt lat="41.99052" lon="2.43821">
        <ele>554.6</ele>
        <time>2022-05-21 04:04:49</time>
      </trkpt>
      <trkpt lat="41.99053" lon="2.43824">
        <ele>554.8</ele>
        <time>2022-05-21 04:04:50</time>
      </trkpt>
      <trkpt lat="41.99054" lon="2.43826">
        <ele>555</ele>
        <time>2022-05-21 04:04:51</time>
      </trkpt>
      <trkpt lat="41.99056" lon="2.43829">
        <ele>555</ele>
        <time>2022-05-21 04:04:52</time>
      </trkpt>
      <trkpt lat="41.99058" lon="2.43831">
        <ele>555.2</ele>
        <time>2022-05-21 04:04:53</time>
      </trkpt>
      <trkpt lat="41.9906" lon="2.43833">
        <ele>555.2</ele>
        <time>2022-05-21 04:04:54</time>
      </trkpt>
      <trkpt lat="41.99062" lon="2.43835">
        <ele>555.4</ele>
        <time>2022-05-21 04:04:55</time>
      </trkpt>
      <trkpt lat="41.99064" lon="2.43837">
        <ele>555.4</ele>
        <time>2022-05-21 04:04:56</time>
      </trkpt>
      <trkpt lat="41.99067" lon="2.43839">
        <ele>555.4</ele>
        <time>2022-05-21 04:04:57</time>
      </trkpt>
      <trkpt lat="41.99069" lon="2.43841">
        <ele>555.4</ele>
        <time>2022-05-21 04:04:58</time>
      </trkpt>
      <trkpt lat="41.99071" lon="2.43842">
        <ele>555.4</ele>
        <time>2022-05-21 04:04:59</time>
      </trkpt>
      <trkpt lat="41.99073" lon="2.43844">
        <ele>555.4</ele>
        <time>2022-05-21 04:05:00</time>
      </trkpt>
      <trkpt lat="41.99077" lon="2.43845">
        <ele>555.4</ele>
        <time>2022-05-21 04:05:01</time>
      </trkpt>
      <trkpt lat="41.9908" lon="2.43846">
        <ele>555.4</ele>
        <time>2022-05-21 04:05:02</time>
      </trkpt>
      <trkpt lat="41.99083" lon="2.43847">
        <ele>555.6</ele>
        <time>2022-05-21 04:05:03</time>
      </trkpt>
      <trkpt lat="41.99086" lon="2.43847">
        <ele>555.6</ele>
        <time>2022-05-21 04:05:04</time>
      </trkpt>
      <trkpt lat="41.99089" lon="2.43846">
        <ele>555.6</ele>
        <time>2022-05-21 04:05:05</time>
      </trkpt>
      <trkpt lat="41.99092" lon="2.43845">
        <ele>555.6</ele>
        <time>2022-05-21 04:05:06</time>
      </trkpt>
      <trkpt lat="41.99094" lon="2.43844">
        <ele>555.6</ele>
        <time>2022-05-21 04:05:07</time>
      </trkpt>
      <trkpt lat="41.99097" lon="2.43843">
        <ele>555.8</ele>
        <time>2022-05-21 04:05:08</time>
      </trkpt>
      <trkpt lat="41.99101" lon="2.43842">
        <ele>555.8</ele>
        <time>2022-05-21 04:05:09</time>
      </trkpt>
      <trkpt lat="41.99104" lon="2.43841">
        <ele>555.8</ele>
        <time>2022-05-21 04:05:10</time>
      </trkpt>
      <trkpt lat="41.99107" lon="2.4384">
        <ele>555.8</ele>
        <time>2022-05-21 04:05:11</time>
      </trkpt>
      <trkpt lat="41.99109" lon="2.4384">
        <ele>555.8</ele>
        <time>2022-05-21 04:05:12</time>
      </trkpt>
      <trkpt lat="41.99112" lon="2.43839">
        <ele>556</ele>
        <time>2022-05-21 04:05:13</time>
      </trkpt>
      <trkpt lat="41.99115" lon="2.43838">
        <ele>556</ele>
        <time>2022-05-21 04:05:14</time>
      </trkpt>
      <trkpt lat="41.99118" lon="2.43837">
        <ele>556</ele>
        <time>2022-05-21 04:05:15</time>
      </trkpt>
      <trkpt lat="41.99121" lon="2.43836">
        <ele>556.2</ele>
        <time>2022-05-21 04:05:16</time>
      </trkpt>
      <trkpt lat="41.99123" lon="2.43835">
        <ele>556.2</ele>
        <time>2022-05-21 04:05:17</time>
      </trkpt>
      <trkpt lat="41.99126" lon="2.43834">
        <ele>556.4</ele>
        <time>2022-05-21 04:05:18</time>
      </trkpt>
      <trkpt lat="41.99129" lon="2.43832">
        <ele>556.4</ele>
        <time>2022-05-21 04:05:19</time>
      </trkpt>
      <trkpt lat="41.99132" lon="2.4383">
        <ele>556.4</ele>
        <time>2022-05-21 04:05:20</time>
      </trkpt>
      <trkpt lat="41.99135" lon="2.43829">
        <ele>556.6</ele>
        <time>2022-05-21 04:05:21</time>
      </trkpt>
      <trkpt lat="41.99138" lon="2.43827">
        <ele>556.6</ele>
        <time>2022-05-21 04:05:22</time>
      </trkpt>
      <trkpt lat="41.99142" lon="2.43826">
        <ele>556.8</ele>
        <time>2022-05-21 04:05:23</time>
      </trkpt>
      <trkpt lat="41.99145" lon="2.43825">
        <ele>556.8</ele>
        <time>2022-05-21 04:05:24</time>
      </trkpt>
      <trkpt lat="41.99148" lon="2.43823">
        <ele>557</ele>
        <time>2022-05-21 04:05:25</time>
      </trkpt>
      <trkpt lat="41.99151" lon="2.43821">
        <ele>557.2</ele>
        <time>2022-05-21 04:05:26</time>
      </trkpt>
      <trkpt lat="41.99154" lon="2.4382">
        <ele>557.2</ele>
        <time>2022-05-21 04:05:27</time>
      </trkpt>
      <trkpt lat="41.99157" lon="2.43819">
        <ele>557.4</ele>
        <time>2022-05-21 04:05:28</time>
      </trkpt>
      <trkpt lat="41.9916" lon="2.43817">
        <ele>557.6</ele>
        <time>2022-05-21 04:05:29</time>
      </trkpt>
      <trkpt lat="41.99162" lon="2.43816">
        <ele>557.8</ele>
        <time>2022-05-21 04:05:30</time>
      </trkpt>
      <trkpt lat="41.99164" lon="2.43814">
        <ele>558</ele>
        <time>2022-05-21 04:05:31</time>
      </trkpt>
      <trkpt lat="41.99165" lon="2.43812">
        <ele>558.2</ele>
        <time>2022-05-21 04:05:32</time>
      </trkpt>
      <trkpt lat="41.99167" lon="2.43811">
        <ele>558.4</ele>
        <time>2022-05-21 04:05:33</time>
      </trkpt>
      <trkpt lat="41.99169" lon="2.4381">
        <ele>558.6</ele>
        <time>2022-05-21 04:05:34</time>
      </trkpt>
      <trkpt lat="41.99171" lon="2.43809">
        <ele>558.8</ele>
        <time>2022-05-21 04:05:35</time>
      </trkpt>
      <trkpt lat="41.99173" lon="2.43808">
        <ele>559</ele>
        <time>2022-05-21 04:05:36</time>
      </trkpt>
      <trkpt lat="41.99176" lon="2.43808">
        <ele>559</ele>
        <time>2022-05-21 04:05:37</time>
      </trkpt>
      <trkpt lat="41.99178" lon="2.43808">
        <ele>559.2</ele>
        <time>2022-05-21 04:05:38</time>
      </trkpt>
      <trkpt lat="41.9918" lon="2.43809">
        <ele>559.4</ele>
        <time>2022-05-21 04:05:39</time>
      </trkpt>
      <trkpt lat="41.99183" lon="2.43809">
        <ele>559.8</ele>
        <time>2022-05-21 04:05:40</time>
      </trkpt>
      <trkpt lat="41.99185" lon="2.4381">
        <ele>560</ele>
        <time>2022-05-21 04:05:41</time>
      </trkpt>
      <trkpt lat="41.99186" lon="2.43811">
        <ele>560.2</ele>
        <time>2022-05-21 04:05:42</time>
      </trkpt>
      <trkpt lat="41.99188" lon="2.43812">
        <ele>560.4</ele>
        <time>2022-05-21 04:05:43</time>
      </trkpt>
      <trkpt lat="41.99189" lon="2.43813">
        <ele>560.8</ele>
        <time>2022-05-21 04:05:44</time>
      </trkpt>
      <trkpt lat="41.99191" lon="2.43814">
        <ele>561</ele>
        <time>2022-05-21 04:05:45</time>
      </trkpt>
      <trkpt lat="41.99194" lon="2.43814">
        <ele>561.2</ele>
        <time>2022-05-21 04:05:46</time>
      </trkpt>
      <trkpt lat="41.99196" lon="2.43815">
        <ele>561.4</ele>
        <time>2022-05-21 04:05:47</time>
      </trkpt>
      <trkpt lat="41.99199" lon="2.43815">
        <ele>561.6</ele>
        <time>2022-05-21 04:05:48</time>
      </trkpt>
      <trkpt lat="41.99202" lon="2.43816">
        <ele>562</ele>
        <time>2022-05-21 04:05:49</time>
      </trkpt>
      <trkpt lat="41.99204" lon="2.43816">
        <ele>562.2</ele>
        <time>2022-05-21 04:05:50</time>
      </trkpt>
      <trkpt lat="41.99206" lon="2.43816">
        <ele>562.4</ele>
        <time>2022-05-21 04:05:51</time>
      </trkpt>
      <trkpt lat="41.99208" lon="2.43816">
        <ele>562.6</ele>
        <time>2022-05-21 04:05:52</time>
      </trkpt>
      <trkpt lat="41.99209" lon="2.43816">
        <ele>562.8</ele>
        <time>2022-05-21 04:05:53</time>
      </trkpt>
      <trkpt lat="41.99211" lon="2.43816">
        <ele>563</ele>
        <time>2022-05-21 04:05:54</time>
      </trkpt>
      <trkpt lat="41.99212" lon="2.43815">
        <ele>563.2</ele>
        <time>2022-05-21 04:05:55</time>
      </trkpt>
      <trkpt lat="41.99214" lon="2.43814">
        <ele>563.4</ele>
        <time>2022-05-21 04:05:56</time>
      </trkpt>
      <trkpt lat="41.99216" lon="2.43814">
        <ele>563.6</ele>
        <time>2022-05-21 04:05:57</time>
      </trkpt>
      <trkpt lat="41.99218" lon="2.43813">
        <ele>563.8</ele>
        <time>2022-05-21 04:05:58</time>
      </trkpt>
      <trkpt lat="41.99221" lon="2.43811">
        <ele>564</ele>
        <time>2022-05-21 04:05:59</time>
      </trkpt>
      <trkpt lat="41.99223" lon="2.4381">
        <ele>564.2</ele>
        <time>2022-05-21 04:06:00</time>
      </trkpt>
      <trkpt lat="41.99224" lon="2.43809">
        <ele>564.4</ele>
        <time>2022-05-21 04:06:01</time>
      </trkpt>
      <trkpt lat="41.99225" lon="2.43808">
        <ele>564.6</ele>
        <time>2022-05-21 04:06:02</time>
      </trkpt>
      <trkpt lat="41.99226" lon="2.43806">
        <ele>564.6</ele>
        <time>2022-05-21 04:06:03</time>
      </trkpt>
      <trkpt lat="41.99228" lon="2.43804">
        <ele>564.8</ele>
        <time>2022-05-21 04:06:04</time>
      </trkpt>
      <trkpt lat="41.99229" lon="2.43802">
        <ele>565</ele>
        <time>2022-05-21 04:06:05</time>
      </trkpt>
      <trkpt lat="41.99231" lon="2.438">
        <ele>565</ele>
        <time>2022-05-21 04:06:06</time>
      </trkpt>
      <trkpt lat="41.99233" lon="2.43797">
        <ele>565</ele>
        <time>2022-05-21 04:06:07</time>
      </trkpt>
      <trkpt lat="41.99235" lon="2.43794">
        <ele>565.2</ele>
        <time>2022-05-21 04:06:08</time>
      </trkpt>
      <trkpt lat="41.99237" lon="2.43792">
        <ele>565.2</ele>
        <time>2022-05-21 04:06:09</time>
      </trkpt>
      <trkpt lat="41.99238" lon="2.4379">
        <ele>565.4</ele>
        <time>2022-05-21 04:06:10</time>
      </trkpt>
      <trkpt lat="41.99239" lon="2.43788">
        <ele>565.4</ele>
        <time>2022-05-21 04:06:11</time>
      </trkpt>
      <trkpt lat="41.9924" lon="2.43786">
        <ele>565.6</ele>
        <time>2022-05-21 04:06:12</time>
      </trkpt>
      <trkpt lat="41.99242" lon="2.43784">
        <ele>565.6</ele>
        <time>2022-05-21 04:06:13</time>
      </trkpt>
      <trkpt lat="41.99243" lon="2.43782">
        <ele>565.8</ele>
        <time>2022-05-21 04:06:14</time>
      </trkpt>
      <trkpt lat="41.99244" lon="2.4378">
        <ele>565.8</ele>
        <time>2022-05-21 04:06:15</time>
      </trkpt>
      <trkpt lat="41.99245" lon="2.43777">
        <ele>566</ele>
        <time>2022-05-21 04:06:16</time>
      </trkpt>
      <trkpt lat="41.99246" lon="2.43775">
        <ele>566</ele>
        <time>2022-05-21 04:06:17</time>
      </trkpt>
      <trkpt lat="41.99247" lon="2.43773">
        <ele>566</ele>
        <time>2022-05-21 04:06:18</time>
      </trkpt>
      <trkpt lat="41.99248" lon="2.43771">
        <ele>566.2</ele>
        <time>2022-05-21 04:06:19</time>
      </trkpt>
      <trkpt lat="41.99249" lon="2.43769">
        <ele>566.2</ele>
        <time>2022-05-21 04:06:20</time>
      </trkpt>
      <trkpt lat="41.9925" lon="2.43768">
        <ele>566.4</ele>
        <time>2022-05-21 04:06:21</time>
      </trkpt>
      <trkpt lat="41.99251" lon="2.43765">
        <ele>566.4</ele>
        <time>2022-05-21 04:06:22</time>
      </trkpt>
      <trkpt lat="41.99252" lon="2.43763">
        <ele>566.4</ele>
        <time>2022-05-21 04:06:23</time>
      </trkpt>
      <trkpt lat="41.99253" lon="2.43761">
        <ele>566.6</ele>
        <time>2022-05-21 04:06:24</time>
      </trkpt>
      <trkpt lat="41.99254" lon="2.43759">
        <ele>566.6</ele>
        <time>2022-05-21 04:06:25</time>
      </trkpt>
      <trkpt lat="41.99255" lon="2.43757">
        <ele>566.6</ele>
        <time>2022-05-21 04:06:26</time>
      </trkpt>
      <trkpt lat="41.99257" lon="2.43755">
        <ele>566.6</ele>
        <time>2022-05-21 04:06:27</time>
      </trkpt>
      <trkpt lat="41.99258" lon="2.43753">
        <ele>566.8</ele>
        <time>2022-05-21 04:06:28</time>
      </trkpt>
      <trkpt lat="41.99259" lon="2.43751">
        <ele>566.8</ele>
        <time>2022-05-21 04:06:29</time>
      </trkpt>
      <trkpt lat="41.9926" lon="2.43748">
        <ele>566.8</ele>
        <time>2022-05-21 04:06:30</time>
      </trkpt>
      <trkpt lat="41.99261" lon="2.43746">
        <ele>566.8</ele>
        <time>2022-05-21 04:06:31</time>
      </trkpt>
      <trkpt lat="41.99262" lon="2.43744">
        <ele>567</ele>
        <time>2022-05-21 04:06:32</time>
      </trkpt>
      <trkpt lat="41.99263" lon="2.43742">
        <ele>567</ele>
        <time>2022-05-21 04:06:33</time>
      </trkpt>
      <trkpt lat="41.99264" lon="2.4374">
        <ele>567</ele>
        <time>2022-05-21 04:06:34</time>
      </trkpt>
      <trkpt lat="41.99265" lon="2.43738">
        <ele>567.2</ele>
        <time>2022-05-21 04:06:35</time>
      </trkpt>
      <trkpt lat="41.99266" lon="2.43736">
        <ele>567.2</ele>
        <time>2022-05-21 04:06:36</time>
      </trkpt>
      <trkpt lat="41.99268" lon="2.43735">
        <ele>567.2</ele>
        <time>2022-05-21 04:06:37</time>
      </trkpt>
      <trkpt lat="41.99269" lon="2.43733">
        <ele>567.4</ele>
        <time>2022-05-21 04:06:38</time>
      </trkpt>
      <trkpt lat="41.9927" lon="2.43732">
        <ele>567.4</ele>
        <time>2022-05-21 04:06:39</time>
      </trkpt>
      <trkpt lat="41.99271" lon="2.43731">
        <ele>567.6</ele>
        <time>2022-05-21 04:06:40</time>
      </trkpt>
      <trkpt lat="41.99273" lon="2.4373">
        <ele>567.6</ele>
        <time>2022-05-21 04:06:41</time>
      </trkpt>
      <trkpt lat="41.99274" lon="2.43729">
        <ele>567.8</ele>
        <time>2022-05-21 04:06:42</time>
      </trkpt>
      <trkpt lat="41.99276" lon="2.43727">
        <ele>567.8</ele>
        <time>2022-05-21 04:06:43</time>
      </trkpt>
      <trkpt lat="41.99277" lon="2.43726">
        <ele>567.8</ele>
        <time>2022-05-21 04:06:44</time>
      </trkpt>
      <trkpt lat="41.99279" lon="2.43725">
        <ele>568</ele>
        <time>2022-05-21 04:06:45</time>
      </trkpt>
      <trkpt lat="41.99281" lon="2.43724">
        <ele>568</ele>
        <time>2022-05-21 04:06:46</time>
      </trkpt>
      <trkpt lat="41.99282" lon="2.43723">
        <ele>568.2</ele>
        <time>2022-05-21 04:06:47</time>
      </trkpt>
      <trkpt lat="41.99284" lon="2.43722">
        <ele>568.2</ele>
        <time>2022-05-21 04:06:48</time>
      </trkpt>
      <trkpt lat="41.99286" lon="2.43721">
        <ele>568.4</ele>
        <time>2022-05-21 04:06:49</time>
      </trkpt>
      <trkpt lat="41.99288" lon="2.4372">
        <ele>568.4</ele>
        <time>2022-05-21 04:06:50</time>
      </trkpt>
      <trkpt lat="41.9929" lon="2.4372">
        <ele>568.6</ele>
        <time>2022-05-21 04:06:51</time>
      </trkpt>
      <trkpt lat="41.99292" lon="2.43719">
        <ele>568.6</ele>
        <time>2022-05-21 04:06:52</time>
      </trkpt>
      <trkpt lat="41.99293" lon="2.43719">
        <ele>568.8</ele>
        <time>2022-05-21 04:06:53</time>
      </trkpt>
      <trkpt lat="41.99294" lon="2.43719">
        <ele>568.8</ele>
        <time>2022-05-21 04:06:54</time>
      </trkpt>
      <trkpt lat="41.99296" lon="2.43718">
        <ele>569</ele>
        <time>2022-05-21 04:06:55</time>
      </trkpt>
      <trkpt lat="41.99298" lon="2.43717">
        <ele>569</ele>
        <time>2022-05-21 04:06:56</time>
      </trkpt>
      <trkpt lat="41.99299" lon="2.43717">
        <ele>569</ele>
        <time>2022-05-21 04:06:57</time>
      </trkpt>
      <trkpt lat="41.99302" lon="2.43716">
        <ele>569</ele>
        <time>2022-05-21 04:06:58</time>
      </trkpt>
      <trkpt lat="41.99304" lon="2.43716">
        <ele>569</ele>
        <time>2022-05-21 04:06:59</time>
      </trkpt>
      <trkpt lat="41.99306" lon="2.43715">
        <ele>569</ele>
        <time>2022-05-21 04:07:00</time>
      </trkpt>
      <trkpt lat="41.9931" lon="2.43713">
        <ele>569</ele>
        <time>2022-05-21 04:07:01</time>
      </trkpt>
      <trkpt lat="41.99313" lon="2.43712">
        <ele>569</ele>
        <time>2022-05-21 04:07:02</time>
      </trkpt>
      <trkpt lat="41.99316" lon="2.43712">
        <ele>568.8</ele>
        <time>2022-05-21 04:07:03</time>
      </trkpt>
      <trkpt lat="41.99319" lon="2.43711">
        <ele>568.8</ele>
        <time>2022-05-21 04:07:04</time>
      </trkpt>
      <trkpt lat="41.99323" lon="2.43711">
        <ele>568.6</ele>
        <time>2022-05-21 04:07:05</time>
      </trkpt>
      <trkpt lat="41.99326" lon="2.43712">
        <ele>568.4</ele>
        <time>2022-05-21 04:07:06</time>
      </trkpt>
      <trkpt lat="41.99328" lon="2.43715">
        <ele>568.2</ele>
        <time>2022-05-21 04:07:07</time>
      </trkpt>
      <trkpt lat="41.9933" lon="2.4372">
        <ele>568.2</ele>
        <time>2022-05-21 04:07:08</time>
      </trkpt>
      <trkpt lat="41.99331" lon="2.43724">
        <ele>568</ele>
        <time>2022-05-21 04:07:09</time>
      </trkpt>
      <trkpt lat="41.99331" lon="2.4373">
        <ele>568</ele>
        <time>2022-05-21 04:07:10</time>
      </trkpt>
      <trkpt lat="41.99331" lon="2.43734">
        <ele>568</ele>
        <time>2022-05-21 04:07:11</time>
      </trkpt>
      <trkpt lat="41.9933" lon="2.43738">
        <ele>568</ele>
        <time>2022-05-21 04:07:12</time>
      </trkpt>
      <trkpt lat="41.9933" lon="2.43742">
        <ele>568.2</ele>
        <time>2022-05-21 04:07:13</time>
      </trkpt>
      <trkpt lat="41.99329" lon="2.43745">
        <ele>568.2</ele>
        <time>2022-05-21 04:07:14</time>
      </trkpt>
      <trkpt lat="41.99328" lon="2.43748">
        <ele>568.4</ele>
        <time>2022-05-21 04:07:15</time>
      </trkpt>
      <trkpt lat="41.99327" lon="2.4375">
        <ele>568.4</ele>
        <time>2022-05-21 04:07:16</time>
      </trkpt>
      <trkpt lat="41.99327" lon="2.43752">
        <ele>568.6</ele>
        <time>2022-05-21 04:07:17</time>
      </trkpt>
      <trkpt lat="41.99326" lon="2.43754">
        <ele>568.8</ele>
        <time>2022-05-21 04:07:18</time>
      </trkpt>
      <trkpt lat="41.99326" lon="2.43756">
        <ele>569</ele>
        <time>2022-05-21 04:07:19</time>
      </trkpt>
      <trkpt lat="41.99325" lon="2.43759">
        <ele>569</ele>
        <time>2022-05-21 04:07:20</time>
      </trkpt>
      <trkpt lat="41.99325" lon="2.43761">
        <ele>569.2</ele>
        <time>2022-05-21 04:07:21</time>
      </trkpt>
      <trkpt lat="41.99325" lon="2.43763">
        <ele>569.4</ele>
        <time>2022-05-21 04:07:22</time>
      </trkpt>
      <trkpt lat="41.99324" lon="2.43765">
        <ele>569.6</ele>
        <time>2022-05-21 04:07:23</time>
      </trkpt>
      <trkpt lat="41.99324" lon="2.43766">
        <ele>569.8</ele>
        <time>2022-05-21 04:07:24</time>
      </trkpt>
      <trkpt lat="41.99324" lon="2.43768">
        <ele>570</ele>
        <time>2022-05-21 04:07:25</time>
      </trkpt>
      <trkpt lat="41.99323" lon="2.4377">
        <ele>570.2</ele>
        <time>2022-05-21 04:07:26</time>
      </trkpt>
      <trkpt lat="41.99323" lon="2.43772">
        <ele>570.4</ele>
        <time>2022-05-21 04:07:27</time>
      </trkpt>
      <trkpt lat="41.99323" lon="2.43774">
        <ele>570.6</ele>
        <time>2022-05-21 04:07:28</time>
      </trkpt>
      <trkpt lat="41.99322" lon="2.43776">
        <ele>570.8</ele>
        <time>2022-05-21 04:07:29</time>
      </trkpt>
      <trkpt lat="41.99321" lon="2.43779">
        <ele>571</ele>
        <time>2022-05-21 04:07:30</time>
      </trkpt>
      <trkpt lat="41.9932" lon="2.43781">
        <ele>571.2</ele>
        <time>2022-05-21 04:07:31</time>
      </trkpt>
      <trkpt lat="41.99319" lon="2.43783">
        <ele>571.4</ele>
        <time>2022-05-21 04:07:32</time>
      </trkpt>
      <trkpt lat="41.99318" lon="2.43785">
        <ele>571.6</ele>
        <time>2022-05-21 04:07:33</time>
      </trkpt>
      <trkpt lat="41.99317" lon="2.43787">
        <ele>572</ele>
        <time>2022-05-21 04:07:34</time>
      </trkpt>
      <trkpt lat="41.99316" lon="2.43789">
        <ele>572.2</ele>
        <time>2022-05-21 04:07:35</time>
      </trkpt>
      <trkpt lat="41.99315" lon="2.43791">
        <ele>572.4</ele>
        <time>2022-05-21 04:07:36</time>
      </trkpt>
      <trkpt lat="41.99315" lon="2.43793">
        <ele>572.6</ele>
        <time>2022-05-21 04:07:37</time>
      </trkpt>
      <trkpt lat="41.99314" lon="2.43795">
        <ele>572.8</ele>
        <time>2022-05-21 04:07:38</time>
      </trkpt>
      <trkpt lat="41.99314" lon="2.43796">
        <ele>573</ele>
        <time>2022-05-21 04:07:39</time>
      </trkpt>
      <trkpt lat="41.99314" lon="2.43798">
        <ele>573.2</ele>
        <time>2022-05-21 04:07:40</time>
      </trkpt>
      <trkpt lat="41.99313" lon="2.43801">
        <ele>573.2</ele>
        <time>2022-05-21 04:07:41</time>
      </trkpt>
      <trkpt lat="41.99314" lon="2.43803">
        <ele>573.4</ele>
        <time>2022-05-21 04:07:42</time>
      </trkpt>
      <trkpt lat="41.99314" lon="2.43806">
        <ele>573.6</ele>
        <time>2022-05-21 04:07:43</time>
      </trkpt>
      <trkpt lat="41.99315" lon="2.43809">
        <ele>573.8</ele>
        <time>2022-05-21 04:07:44</time>
      </trkpt>
      <trkpt lat="41.99316" lon="2.43811">
        <ele>573.8</ele>
        <time>2022-05-21 04:07:45</time>
      </trkpt>
      <trkpt lat="41.99317" lon="2.43814">
        <ele>574</ele>
        <time>2022-05-21 04:07:46</time>
      </trkpt>
      <trkpt lat="41.99318" lon="2.43815">
        <ele>574.2</ele>
        <time>2022-05-21 04:07:47</time>
      </trkpt>
      <trkpt lat="41.99319" lon="2.43818">
        <ele>574.4</ele>
        <time>2022-05-21 04:07:48</time>
      </trkpt>
      <trkpt lat="41.9932" lon="2.4382">
        <ele>574.4</ele>
        <time>2022-05-21 04:07:49</time>
      </trkpt>
      <trkpt lat="41.99321" lon="2.43822">
        <ele>574.6</ele>
        <time>2022-05-21 04:07:50</time>
      </trkpt>
      <trkpt lat="41.99322" lon="2.43824">
        <ele>574.6</ele>
        <time>2022-05-21 04:07:51</time>
      </trkpt>
      <trkpt lat="41.99323" lon="2.43827">
        <ele>574.6</ele>
        <time>2022-05-21 04:07:52</time>
      </trkpt>
      <trkpt lat="41.99324" lon="2.43829">
        <ele>574.8</ele>
        <time>2022-05-21 04:07:53</time>
      </trkpt>
      <trkpt lat="41.99325" lon="2.43831">
        <ele>574.8</ele>
        <time>2022-05-21 04:07:54</time>
      </trkpt>
      <trkpt lat="41.99327" lon="2.43834">
        <ele>574.8</ele>
        <time>2022-05-21 04:07:55</time>
      </trkpt>
      <trkpt lat="41.99328" lon="2.43838">
        <ele>574.8</ele>
        <time>2022-05-21 04:07:56</time>
      </trkpt>
      <trkpt lat="41.9933" lon="2.43842">
        <ele>574.8</ele>
        <time>2022-05-21 04:07:57</time>
      </trkpt>
      <trkpt lat="41.99331" lon="2.43845">
        <ele>574.8</ele>
        <time>2022-05-21 04:07:58</time>
      </trkpt>
      <trkpt lat="41.99332" lon="2.43848">
        <ele>574.8</ele>
        <time>2022-05-21 04:07:59</time>
      </trkpt>
      <trkpt lat="41.99334" lon="2.43852">
        <ele>575</ele>
        <time>2022-05-21 04:08:00</time>
      </trkpt>
      <trkpt lat="41.99335" lon="2.43856">
        <ele>575</ele>
        <time>2022-05-21 04:08:01</time>
      </trkpt>
      <trkpt lat="41.99336" lon="2.43859">
        <ele>575</ele>
        <time>2022-05-21 04:08:02</time>
      </trkpt>
      <trkpt lat="41.99337" lon="2.43862">
        <ele>575.2</ele>
        <time>2022-05-21 04:08:03</time>
      </trkpt>
      <trkpt lat="41.99337" lon="2.43865">
        <ele>575.4</ele>
        <time>2022-05-21 04:08:04</time>
      </trkpt>
      <trkpt lat="41.99338" lon="2.43868">
        <ele>575.6</ele>
        <time>2022-05-21 04:08:05</time>
      </trkpt>
      <trkpt lat="41.99339" lon="2.4387">
        <ele>575.8</ele>
        <time>2022-05-21 04:08:06</time>
      </trkpt>
      <trkpt lat="41.9934" lon="2.43871">
        <ele>576</ele>
        <time>2022-05-21 04:08:07</time>
      </trkpt>
      <trkpt lat="41.99341" lon="2.43873">
        <ele>576.2</ele>
        <time>2022-05-21 04:08:08</time>
      </trkpt>
      <trkpt lat="41.99342" lon="2.43874">
        <ele>576.4</ele>
        <time>2022-05-21 04:08:09</time>
      </trkpt>
      <trkpt lat="41.99343" lon="2.43876">
        <ele>576.8</ele>
        <time>2022-05-21 04:08:10</time>
      </trkpt>
      <trkpt lat="41.99344" lon="2.43878">
        <ele>577</ele>
        <time>2022-05-21 04:08:11</time>
      </trkpt>
      <trkpt lat="41.99345" lon="2.43879">
        <ele>577.2</ele>
        <time>2022-05-21 04:08:12</time>
      </trkpt>
      <trkpt lat="41.99347" lon="2.43881">
        <ele>577.4</ele>
        <time>2022-05-21 04:08:13</time>
      </trkpt>
      <trkpt lat="41.99349" lon="2.43882">
        <ele>577.4</ele>
        <time>2022-05-21 04:08:14</time>
      </trkpt>
      <trkpt lat="41.99351" lon="2.43883">
        <ele>577.6</ele>
        <time>2022-05-21 04:08:15</time>
      </trkpt>
      <trkpt lat="41.99353" lon="2.43884">
        <ele>577.8</ele>
        <time>2022-05-21 04:08:16</time>
      </trkpt>
      <trkpt lat="41.99355" lon="2.43884">
        <ele>577.8</ele>
        <time>2022-05-21 04:08:17</time>
      </trkpt>
      <trkpt lat="41.99358" lon="2.43885">
        <ele>578</ele>
        <time>2022-05-21 04:08:18</time>
      </trkpt>
      <trkpt lat="41.99361" lon="2.43886">
        <ele>578</ele>
        <time>2022-05-21 04:08:19</time>
      </trkpt>
      <trkpt lat="41.99363" lon="2.43887">
        <ele>578</ele>
        <time>2022-05-21 04:08:20</time>
      </trkpt>
      <trkpt lat="41.99366" lon="2.43889">
        <ele>577.8</ele>
        <time>2022-05-21 04:08:21</time>
      </trkpt>
      <trkpt lat="41.99368" lon="2.4389">
        <ele>577.8</ele>
        <time>2022-05-21 04:08:22</time>
      </trkpt>
      <trkpt lat="41.99371" lon="2.43891">
        <ele>577.6</ele>
        <time>2022-05-21 04:08:23</time>
      </trkpt>
      <trkpt lat="41.99374" lon="2.43892">
        <ele>577.6</ele>
        <time>2022-05-21 04:08:24</time>
      </trkpt>
      <trkpt lat="41.99377" lon="2.43893">
        <ele>577.4</ele>
        <time>2022-05-21 04:08:25</time>
      </trkpt>
      <trkpt lat="41.99381" lon="2.43893">
        <ele>577.2</ele>
        <time>2022-05-21 04:08:26</time>
      </trkpt>
      <trkpt lat="41.99385" lon="2.43891">
        <ele>577.2</ele>
        <time>2022-05-21 04:08:27</time>
      </trkpt>
      <trkpt lat="41.9939" lon="2.43889">
        <ele>577</ele>
        <time>2022-05-21 04:08:28</time>
      </trkpt>
      <trkpt lat="41.99393" lon="2.43886">
        <ele>576.8</ele>
        <time>2022-05-21 04:08:29</time>
      </trkpt>
      <trkpt lat="41.99396" lon="2.43883">
        <ele>576.8</ele>
        <time>2022-05-21 04:08:30</time>
      </trkpt>
      <trkpt lat="41.99399" lon="2.4388">
        <ele>576.8</ele>
        <time>2022-05-21 04:08:31</time>
      </trkpt>
      <trkpt lat="41.99401" lon="2.43877">
        <ele>576.8</ele>
        <time>2022-05-21 04:08:32</time>
      </trkpt>
      <trkpt lat="41.99404" lon="2.43874">
        <ele>576.8</ele>
        <time>2022-05-21 04:08:33</time>
      </trkpt>
      <trkpt lat="41.99406" lon="2.43872">
        <ele>577</ele>
        <time>2022-05-21 04:08:34</time>
      </trkpt>
      <trkpt lat="41.99409" lon="2.43871">
        <ele>577.2</ele>
        <time>2022-05-21 04:08:35</time>
      </trkpt>
      <trkpt lat="41.99412" lon="2.4387">
        <ele>577.2</ele>
        <time>2022-05-21 04:08:36</time>
      </trkpt>
      <trkpt lat="41.99415" lon="2.4387">
        <ele>577.4</ele>
        <time>2022-05-21 04:08:37</time>
      </trkpt>
      <trkpt lat="41.99417" lon="2.4387">
        <ele>577.4</ele>
        <time>2022-05-21 04:08:38</time>
      </trkpt>
      <trkpt lat="41.99418" lon="2.43872">
        <ele>577.6</ele>
        <time>2022-05-21 04:08:39</time>
      </trkpt>
      <trkpt lat="41.9942" lon="2.43875">
        <ele>577.8</ele>
        <time>2022-05-21 04:08:40</time>
      </trkpt>
      <trkpt lat="41.99422" lon="2.43879">
        <ele>577.8</ele>
        <time>2022-05-21 04:08:41</time>
      </trkpt>
      <trkpt lat="41.99423" lon="2.43882">
        <ele>578</ele>
        <time>2022-05-21 04:08:42</time>
      </trkpt>
      <trkpt lat="41.99424" lon="2.43885">
        <ele>578.2</ele>
        <time>2022-05-21 04:08:43</time>
      </trkpt>
      <trkpt lat="41.99424" lon="2.43889">
        <ele>578.4</ele>
        <time>2022-05-21 04:08:44</time>
      </trkpt>
      <trkpt lat="41.99424" lon="2.43893">
        <ele>578.4</ele>
        <time>2022-05-21 04:08:45</time>
      </trkpt>
      <trkpt lat="41.99424" lon="2.43896">
        <ele>578.6</ele>
        <time>2022-05-21 04:08:46</time>
      </trkpt>
      <trkpt lat="41.99425" lon="2.43899">
        <ele>578.6</ele>
        <time>2022-05-21 04:08:47</time>
      </trkpt>
      <trkpt lat="41.99427" lon="2.43903">
        <ele>578.6</ele>
        <time>2022-05-21 04:08:48</time>
      </trkpt>
      <trkpt lat="41.99428" lon="2.43907">
        <ele>578.6</ele>
        <time>2022-05-21 04:08:49</time>
      </trkpt>
      <trkpt lat="41.99429" lon="2.43911">
        <ele>578.6</ele>
        <time>2022-05-21 04:08:50</time>
      </trkpt>
      <trkpt lat="41.99431" lon="2.43915">
        <ele>578.6</ele>
        <time>2022-05-21 04:08:51</time>
      </trkpt>
      <trkpt lat="41.99434" lon="2.4392">
        <ele>578.6</ele>
        <time>2022-05-21 04:08:52</time>
      </trkpt>
      <trkpt lat="41.99436" lon="2.43923">
        <ele>578.4</ele>
        <time>2022-05-21 04:08:53</time>
      </trkpt>
      <trkpt lat="41.99439" lon="2.43925">
        <ele>578.4</ele>
        <time>2022-05-21 04:08:54</time>
      </trkpt>
      <trkpt lat="41.99442" lon="2.43928">
        <ele>578.2</ele>
        <time>2022-05-21 04:08:55</time>
      </trkpt>
      <trkpt lat="41.99445" lon="2.4393">
        <ele>578</ele>
        <time>2022-05-21 04:08:56</time>
      </trkpt>
      <trkpt lat="41.99449" lon="2.43932">
        <ele>578</ele>
        <time>2022-05-21 04:08:57</time>
      </trkpt>
      <trkpt lat="41.99452" lon="2.43935">
        <ele>578</ele>
        <time>2022-05-21 04:08:58</time>
      </trkpt>
      <trkpt lat="41.99456" lon="2.43938">
        <ele>577.8</ele>
        <time>2022-05-21 04:08:59</time>
      </trkpt>
      <trkpt lat="41.99459" lon="2.4394">
        <ele>577.8</ele>
        <time>2022-05-21 04:09:00</time>
      </trkpt>
      <trkpt lat="41.99463" lon="2.43943">
        <ele>577.8</ele>
        <time>2022-05-21 04:09:01</time>
      </trkpt>
      <trkpt lat="41.99467" lon="2.43945">
        <ele>577.8</ele>
        <time>2022-05-21 04:09:02</time>
      </trkpt>
      <trkpt lat="41.9947" lon="2.43947">
        <ele>578</ele>
        <time>2022-05-21 04:09:03</time>
      </trkpt>
      <trkpt lat="41.99474" lon="2.43949">
        <ele>578</ele>
        <time>2022-05-21 04:09:04</time>
      </trkpt>
      <trkpt lat="41.99477" lon="2.43951">
        <ele>578.2</ele>
        <time>2022-05-21 04:09:05</time>
      </trkpt>
      <trkpt lat="41.9948" lon="2.43952">
        <ele>578.2</ele>
        <time>2022-05-21 04:09:06</time>
      </trkpt>
      <trkpt lat="41.99482" lon="2.43954">
        <ele>578.4</ele>
        <time>2022-05-21 04:09:07</time>
      </trkpt>
      <trkpt lat="41.99485" lon="2.43956">
        <ele>578.6</ele>
        <time>2022-05-21 04:09:08</time>
      </trkpt>
      <trkpt lat="41.99488" lon="2.43957">
        <ele>578.6</ele>
        <time>2022-05-21 04:09:09</time>
      </trkpt>
      <trkpt lat="41.99491" lon="2.43959">
        <ele>578.8</ele>
        <time>2022-05-21 04:09:10</time>
      </trkpt>
      <trkpt lat="41.99493" lon="2.4396">
        <ele>579</ele>
        <time>2022-05-21 04:09:11</time>
      </trkpt>
      <trkpt lat="41.99496" lon="2.43961">
        <ele>579</ele>
        <time>2022-05-21 04:09:12</time>
      </trkpt>
      <trkpt lat="41.995" lon="2.43962">
        <ele>579.2</ele>
        <time>2022-05-21 04:09:13</time>
      </trkpt>
      <trkpt lat="41.99503" lon="2.43963">
        <ele>579.4</ele>
        <time>2022-05-21 04:09:14</time>
      </trkpt>
      <trkpt lat="41.99506" lon="2.43964">
        <ele>579.4</ele>
        <time>2022-05-21 04:09:15</time>
      </trkpt>
      <trkpt lat="41.99509" lon="2.43965">
        <ele>579.6</ele>
        <time>2022-05-21 04:09:16</time>
      </trkpt>
      <trkpt lat="41.99512" lon="2.43967">
        <ele>579.6</ele>
        <time>2022-05-21 04:09:17</time>
      </trkpt>
      <trkpt lat="41.99515" lon="2.43968">
        <ele>579.8</ele>
        <time>2022-05-21 04:09:18</time>
      </trkpt>
      <trkpt lat="41.99518" lon="2.43969">
        <ele>580</ele>
        <time>2022-05-21 04:09:19</time>
      </trkpt>
      <trkpt lat="41.99521" lon="2.4397">
        <ele>580.2</ele>
        <time>2022-05-21 04:09:20</time>
      </trkpt>
      <trkpt lat="41.99524" lon="2.43972">
        <ele>580.2</ele>
        <time>2022-05-21 04:09:21</time>
      </trkpt>
      <trkpt lat="41.99526" lon="2.43973">
        <ele>580.6</ele>
        <time>2022-05-21 04:09:22</time>
      </trkpt>
      <trkpt lat="41.99529" lon="2.43974">
        <ele>580.8</ele>
        <time>2022-05-21 04:09:23</time>
      </trkpt>
      <trkpt lat="41.99531" lon="2.43975">
        <ele>581</ele>
        <time>2022-05-21 04:09:24</time>
      </trkpt>
      <trkpt lat="41.99533" lon="2.43976">
        <ele>581.4</ele>
        <time>2022-05-21 04:09:25</time>
      </trkpt>
      <trkpt lat="41.99535" lon="2.43977">
        <ele>581.6</ele>
        <time>2022-05-21 04:09:26</time>
      </trkpt>
      <trkpt lat="41.99537" lon="2.43978">
        <ele>581.8</ele>
        <time>2022-05-21 04:09:27</time>
      </trkpt>
      <trkpt lat="41.99539" lon="2.43978">
        <ele>582.2</ele>
        <time>2022-05-21 04:09:28</time>
      </trkpt>
      <trkpt lat="41.9954" lon="2.43979">
        <ele>582.4</ele>
        <time>2022-05-21 04:09:29</time>
      </trkpt>
      <trkpt lat="41.99557" lon="2.43994">
        <ele>583.2</ele>
        <time>2022-05-21 04:12:52</time>
      </trkpt>
      <trkpt lat="41.99559" lon="2.43997">
        <ele>583.2</ele>
        <time>2022-05-21 04:12:53</time>
      </trkpt>
      <trkpt lat="41.99561" lon="2.44">
        <ele>583.2</ele>
        <time>2022-05-21 04:12:54</time>
      </trkpt>
      <trkpt lat="41.99563" lon="2.44004">
        <ele>583.2</ele>
        <time>2022-05-21 04:12:55</time>
      </trkpt>
      <trkpt lat="41.99566" lon="2.44007">
        <ele>583.2</ele>
        <time>2022-05-21 04:12:56</time>
      </trkpt>
      <trkpt lat="41.99569" lon="2.44011">
        <ele>583.2</ele>
        <time>2022-05-21 04:12:57</time>
      </trkpt>
      <trkpt lat="41.99571" lon="2.44013">
        <ele>583.2</ele>
        <time>2022-05-21 04:12:58</time>
      </trkpt>
      <trkpt lat="41.99573" lon="2.44016">
        <ele>583</ele>
        <time>2022-05-21 04:12:59</time>
      </trkpt>
      <trkpt lat="41.99576" lon="2.44019">
        <ele>582.8</ele>
        <time>2022-05-21 04:13:00</time>
      </trkpt>
      <trkpt lat="41.99579" lon="2.44021">
        <ele>582.6</ele>
        <time>2022-05-21 04:13:01</time>
      </trkpt>
      <trkpt lat="41.99583" lon="2.44022">
        <ele>582.4</ele>
        <time>2022-05-21 04:13:02</time>
      </trkpt>
      <trkpt lat="41.99588" lon="2.44023">
        <ele>582.2</ele>
        <time>2022-05-21 04:13:03</time>
      </trkpt>
      <trkpt lat="41.99592" lon="2.44023">
        <ele>581.8</ele>
        <time>2022-05-21 04:13:04</time>
      </trkpt>
      <trkpt lat="41.99596" lon="2.44023">
        <ele>581.4</ele>
        <time>2022-05-21 04:13:05</time>
      </trkpt>
      <trkpt lat="41.99603" lon="2.44023">
        <ele>581</ele>
        <time>2022-05-21 04:13:06</time>
      </trkpt>
      <trkpt lat="41.99607" lon="2.44024">
        <ele>580.6</ele>
        <time>2022-05-21 04:13:07</time>
      </trkpt>
      <trkpt lat="41.99611" lon="2.44027">
        <ele>580.4</ele>
        <time>2022-05-21 04:13:08</time>
      </trkpt>
      <trkpt lat="41.99613" lon="2.44029">
        <ele>580</ele>
        <time>2022-05-21 04:13:09</time>
      </trkpt>
      <trkpt lat="41.99615" lon="2.44033">
        <ele>579.8</ele>
        <time>2022-05-21 04:13:10</time>
      </trkpt>
      <trkpt lat="41.99615" lon="2.44037">
        <ele>579.8</ele>
        <time>2022-05-21 04:13:11</time>
      </trkpt>
      <trkpt lat="41.99616" lon="2.4404">
        <ele>579.8</ele>
        <time>2022-05-21 04:13:12</time>
      </trkpt>
      <trkpt lat="41.99615" lon="2.44043">
        <ele>579.8</ele>
        <time>2022-05-21 04:13:13</time>
      </trkpt>
      <trkpt lat="41.99613" lon="2.44046">
        <ele>579.8</ele>
        <time>2022-05-21 04:13:14</time>
      </trkpt>
      <trkpt lat="41.99611" lon="2.44048">
        <ele>579.8</ele>
        <time>2022-05-21 04:13:15</time>
      </trkpt>
      <trkpt lat="41.99609" lon="2.44049">
        <ele>580</ele>
        <time>2022-05-21 04:13:16</time>
      </trkpt>
      <trkpt lat="41.99607" lon="2.4405">
        <ele>580.2</ele>
        <time>2022-05-21 04:13:17</time>
      </trkpt>
      <trkpt lat="41.99606" lon="2.44051">
        <ele>580.4</ele>
        <time>2022-05-21 04:13:18</time>
      </trkpt>
      <trkpt lat="41.99604" lon="2.44051">
        <ele>580.6</ele>
        <time>2022-05-21 04:13:19</time>
      </trkpt>
      <trkpt lat="41.99603" lon="2.44052">
        <ele>580.8</ele>
        <time>2022-05-21 04:13:20</time>
      </trkpt>
      <trkpt lat="41.99602" lon="2.44053">
        <ele>581</ele>
        <time>2022-05-21 04:13:21</time>
      </trkpt>
      <trkpt lat="41.99601" lon="2.44053">
        <ele>581.2</ele>
        <time>2022-05-21 04:13:22</time>
      </trkpt>
      <trkpt lat="41.996" lon="2.44054">
        <ele>581.6</ele>
        <time>2022-05-21 04:13:23</time>
      </trkpt>
      <trkpt lat="41.99599" lon="2.44055">
        <ele>581.8</ele>
        <time>2022-05-21 04:13:24</time>
      </trkpt>
      <trkpt lat="41.99598" lon="2.44056">
        <ele>582</ele>
        <time>2022-05-21 04:13:25</time>
      </trkpt>
      <trkpt lat="41.99596" lon="2.44057">
        <ele>582.4</ele>
        <time>2022-05-21 04:13:26</time>
      </trkpt>
      <trkpt lat="41.99595" lon="2.44058">
        <ele>582.6</ele>
        <time>2022-05-21 04:13:27</time>
      </trkpt>
      <trkpt lat="41.99594" lon="2.44059">
        <ele>582.8</ele>
        <time>2022-05-21 04:13:28</time>
      </trkpt>
      <trkpt lat="41.99593" lon="2.44061">
        <ele>583.2</ele>
        <time>2022-05-21 04:13:29</time>
      </trkpt>
      <trkpt lat="41.99592" lon="2.44061">
        <ele>583.4</ele>
        <time>2022-05-21 04:13:30</time>
      </trkpt>
      <trkpt lat="41.99591" lon="2.44062">
        <ele>583.6</ele>
        <time>2022-05-21 04:13:31</time>
      </trkpt>
      <trkpt lat="41.9959" lon="2.44064">
        <ele>584</ele>
        <time>2022-05-21 04:13:32</time>
      </trkpt>
      <trkpt lat="41.99589" lon="2.44065">
        <ele>584.2</ele>
        <time>2022-05-21 04:13:33</time>
      </trkpt>
      <trkpt lat="41.99588" lon="2.44067">
        <ele>584.4</ele>
        <time>2022-05-21 04:13:34</time>
      </trkpt>
      <trkpt lat="41.99586" lon="2.44069">
        <ele>584.6</ele>
        <time>2022-05-21 04:13:35</time>
      </trkpt>
      <trkpt lat="41.99585" lon="2.44071">
        <ele>584.8</ele>
        <time>2022-05-21 04:13:36</time>
      </trkpt>
      <trkpt lat="41.99585" lon="2.44072">
        <ele>585</ele>
        <time>2022-05-21 04:13:37</time>
      </trkpt>
      <trkpt lat="41.99583" lon="2.44073">
        <ele>585.2</ele>
        <time>2022-05-21 04:13:38</time>
      </trkpt>
      <trkpt lat="41.99582" lon="2.44075">
        <ele>585.6</ele>
        <time>2022-05-21 04:13:39</time>
      </trkpt>
      <trkpt lat="41.9958" lon="2.44077">
        <ele>585.6</ele>
        <time>2022-05-21 04:13:40</time>
      </trkpt>
      <trkpt lat="41.99579" lon="2.44079">
        <ele>585.8</ele>
        <time>2022-05-21 04:13:41</time>
      </trkpt>
      <trkpt lat="41.99578" lon="2.4408">
        <ele>586</ele>
        <time>2022-05-21 04:13:42</time>
      </trkpt>
      <trkpt lat="41.99578" lon="2.44082">
        <ele>586.2</ele>
        <time>2022-05-21 04:13:43</time>
      </trkpt>
      <trkpt lat="41.99577" lon="2.44084">
        <ele>586.4</ele>
        <time>2022-05-21 04:13:44</time>
      </trkpt>
      <trkpt lat="41.99576" lon="2.44086">
        <ele>586.6</ele>
        <time>2022-05-21 04:13:45</time>
      </trkpt>
      <trkpt lat="41.99575" lon="2.44088">
        <ele>586.8</ele>
        <time>2022-05-21 04:13:46</time>
      </trkpt>
      <trkpt lat="41.99574" lon="2.44089">
        <ele>586.8</ele>
        <time>2022-05-21 04:13:47</time>
      </trkpt>
      <trkpt lat="41.99574" lon="2.4409">
        <ele>587</ele>
        <time>2022-05-21 04:13:48</time>
      </trkpt>
      <trkpt lat="41.99573" lon="2.44092">
        <ele>587.2</ele>
        <time>2022-05-21 04:13:49</time>
      </trkpt>
      <trkpt lat="41.99572" lon="2.44093">
        <ele>587.4</ele>
        <time>2022-05-21 04:13:50</time>
      </trkpt>
      <trkpt lat="41.99571" lon="2.44096">
        <ele>587.6</ele>
        <time>2022-05-21 04:13:51</time>
      </trkpt>
      <trkpt lat="41.9957" lon="2.44099">
        <ele>587.8</ele>
        <time>2022-05-21 04:13:52</time>
      </trkpt>
      <trkpt lat="41.99569" lon="2.44101">
        <ele>587.8</ele>
        <time>2022-05-21 04:13:53</time>
      </trkpt>
      <trkpt lat="41.99569" lon="2.44103">
        <ele>588</ele>
        <time>2022-05-21 04:13:54</time>
      </trkpt>
      <trkpt lat="41.99569" lon="2.44105">
        <ele>588.2</ele>
        <time>2022-05-21 04:13:55</time>
      </trkpt>
      <trkpt lat="41.99568" lon="2.44107">
        <ele>588.2</ele>
        <time>2022-05-21 04:13:56</time>
      </trkpt>
      <trkpt lat="41.99568" lon="2.44109">
        <ele>588.4</ele>
        <time>2022-05-21 04:13:57</time>
      </trkpt>
      <trkpt lat="41.99567" lon="2.44111">
        <ele>588.4</ele>
        <time>2022-05-21 04:13:58</time>
      </trkpt>
      <trkpt lat="41.99567" lon="2.44114">
        <ele>588.4</ele>
        <time>2022-05-21 04:13:59</time>
      </trkpt>
      <trkpt lat="41.99566" lon="2.44117">
        <ele>588.6</ele>
        <time>2022-05-21 04:14:00</time>
      </trkpt>
      <trkpt lat="41.99565" lon="2.44119">
        <ele>588.6</ele>
        <time>2022-05-21 04:14:01</time>
      </trkpt>
      <trkpt lat="41.99564" lon="2.44122">
        <ele>588.6</ele>
        <time>2022-05-21 04:14:02</time>
      </trkpt>
      <trkpt lat="41.99563" lon="2.44125">
        <ele>588.8</ele>
        <time>2022-05-21 04:14:03</time>
      </trkpt>
      <trkpt lat="41.99561" lon="2.44128">
        <ele>588.8</ele>
        <time>2022-05-21 04:14:04</time>
      </trkpt>
      <trkpt lat="41.9956" lon="2.44131">
        <ele>588.8</ele>
        <time>2022-05-21 04:14:05</time>
      </trkpt>
      <trkpt lat="41.99559" lon="2.44133">
        <ele>588.8</ele>
        <time>2022-05-21 04:14:06</time>
      </trkpt>
      <trkpt lat="41.99557" lon="2.44136">
        <ele>588.8</ele>
        <time>2022-05-21 04:14:07</time>
      </trkpt>
      <trkpt lat="41.99555" lon="2.44139">
        <ele>589</ele>
        <time>2022-05-21 04:14:08</time>
      </trkpt>
      <trkpt lat="41.99553" lon="2.44142">
        <ele>589</ele>
        <time>2022-05-21 04:14:09</time>
      </trkpt>
      <trkpt lat="41.9955" lon="2.44144">
        <ele>589</ele>
        <time>2022-05-21 04:14:10</time>
      </trkpt>
      <trkpt lat="41.99547" lon="2.44147">
        <ele>589</ele>
        <time>2022-05-21 04:14:11</time>
      </trkpt>
      <trkpt lat="41.99545" lon="2.44149">
        <ele>589.2</ele>
        <time>2022-05-21 04:14:12</time>
      </trkpt>
      <trkpt lat="41.99543" lon="2.4415">
        <ele>589.2</ele>
        <time>2022-05-21 04:14:13</time>
      </trkpt>
      <trkpt lat="41.9954" lon="2.44151">
        <ele>589.4</ele>
        <time>2022-05-21 04:14:14</time>
      </trkpt>
      <trkpt lat="41.99538" lon="2.44152">
        <ele>589.6</ele>
        <time>2022-05-21 04:14:15</time>
      </trkpt>
      <trkpt lat="41.99537" lon="2.44153">
        <ele>589.8</ele>
        <time>2022-05-21 04:14:16</time>
      </trkpt>
      <trkpt lat="41.99534" lon="2.44154">
        <ele>589.8</ele>
        <time>2022-05-21 04:14:17</time>
      </trkpt>
      <trkpt lat="41.99531" lon="2.44155">
        <ele>590</ele>
        <time>2022-05-21 04:14:18</time>
      </trkpt>
      <trkpt lat="41.99529" lon="2.44155">
        <ele>590.2</ele>
        <time>2022-05-21 04:14:19</time>
      </trkpt>
      <trkpt lat="41.99527" lon="2.44156">
        <ele>590.4</ele>
        <time>2022-05-21 04:14:20</time>
      </trkpt>
      <trkpt lat="41.99525" lon="2.44157">
        <ele>590.6</ele>
        <time>2022-05-21 04:14:21</time>
      </trkpt>
      <trkpt lat="41.99522" lon="2.44158">
        <ele>590.6</ele>
        <time>2022-05-21 04:14:22</time>
      </trkpt>
      <trkpt lat="41.99519" lon="2.4416">
        <ele>590.8</ele>
        <time>2022-05-21 04:14:23</time>
      </trkpt>
      <trkpt lat="41.99517" lon="2.44161">
        <ele>591</ele>
        <time>2022-05-21 04:14:24</time>
      </trkpt>
      <trkpt lat="41.99514" lon="2.44162">
        <ele>591.2</ele>
        <time>2022-05-21 04:14:25</time>
      </trkpt>
      <trkpt lat="41.99512" lon="2.44164">
        <ele>591.4</ele>
        <time>2022-05-21 04:14:26</time>
      </trkpt>
      <trkpt lat="41.9951" lon="2.44165">
        <ele>591.6</ele>
        <time>2022-05-21 04:14:27</time>
      </trkpt>
      <trkpt lat="41.99508" lon="2.44166">
        <ele>592</ele>
        <time>2022-05-21 04:14:28</time>
      </trkpt>
      <trkpt lat="41.99506" lon="2.44168">
        <ele>592.2</ele>
        <time>2022-05-21 04:14:29</time>
      </trkpt>
      <trkpt lat="41.99504" lon="2.44169">
        <ele>592.4</ele>
        <time>2022-05-21 04:14:30</time>
      </trkpt>
      <trkpt lat="41.99502" lon="2.4417">
        <ele>592.6</ele>
        <time>2022-05-21 04:14:31</time>
      </trkpt>
      <trkpt lat="41.995" lon="2.44171">
        <ele>592.8</ele>
        <time>2022-05-21 04:14:32</time>
      </trkpt>
      <trkpt lat="41.99499" lon="2.44172">
        <ele>593</ele>
        <time>2022-05-21 04:14:33</time>
      </trkpt>
      <trkpt lat="41.99497" lon="2.44173">
        <ele>593.2</ele>
        <time>2022-05-21 04:14:34</time>
      </trkpt>
      <trkpt lat="41.99495" lon="2.44175">
        <ele>593.4</ele>
        <time>2022-05-21 04:14:35</time>
      </trkpt>
      <trkpt lat="41.99493" lon="2.44177">
        <ele>593.4</ele>
        <time>2022-05-21 04:14:36</time>
      </trkpt>
      <trkpt lat="41.99492" lon="2.44179">
        <ele>593.6</ele>
        <time>2022-05-21 04:14:37</time>
      </trkpt>
      <trkpt lat="41.9949" lon="2.4418">
        <ele>593.8</ele>
        <time>2022-05-21 04:14:38</time>
      </trkpt>
      <trkpt lat="41.99488" lon="2.44182">
        <ele>594</ele>
        <time>2022-05-21 04:14:39</time>
      </trkpt>
      <trkpt lat="41.99487" lon="2.44184">
        <ele>594.2</ele>
        <time>2022-05-21 04:14:40</time>
      </trkpt>
      <trkpt lat="41.99486" lon="2.44186">
        <ele>594.2</ele>
        <time>2022-05-21 04:14:41</time>
      </trkpt>
      <trkpt lat="41.99485" lon="2.44188">
        <ele>594.4</ele>
        <time>2022-05-21 04:14:42</time>
      </trkpt>
      <trkpt lat="41.99485" lon="2.4419">
        <ele>594.6</ele>
        <time>2022-05-21 04:14:43</time>
      </trkpt>
      <trkpt lat="41.99484" lon="2.44192">
        <ele>594.8</ele>
        <time>2022-05-21 04:14:44</time>
      </trkpt>
      <trkpt lat="41.99483" lon="2.44194">
        <ele>595</ele>
        <time>2022-05-21 04:14:45</time>
      </trkpt>
      <trkpt lat="41.99482" lon="2.44196">
        <ele>595.2</ele>
        <time>2022-05-21 04:14:46</time>
      </trkpt>
      <trkpt lat="41.9948" lon="2.44198">
        <ele>595.4</ele>
        <time>2022-05-21 04:14:47</time>
      </trkpt>
      <trkpt lat="41.9948" lon="2.442">
        <ele>595.6</ele>
        <time>2022-05-21 04:14:48</time>
      </trkpt>
      <trkpt lat="41.99479" lon="2.44202">
        <ele>595.8</ele>
        <time>2022-05-21 04:14:49</time>
      </trkpt>
      <trkpt lat="41.99478" lon="2.44204">
        <ele>596</ele>
        <time>2022-05-21 04:14:50</time>
      </trkpt>
      <trkpt lat="41.99477" lon="2.44206">
        <ele>596.2</ele>
        <time>2022-05-21 04:14:51</time>
      </trkpt>
      <trkpt lat="41.99476" lon="2.44208">
        <ele>596.4</ele>
        <time>2022-05-21 04:14:52</time>
      </trkpt>
      <trkpt lat="41.99475" lon="2.44211">
        <ele>596.6</ele>
        <time>2022-05-21 04:14:53</time>
      </trkpt>
      <trkpt lat="41.99474" lon="2.44212">
        <ele>596.8</ele>
        <time>2022-05-21 04:14:54</time>
      </trkpt>
      <trkpt lat="41.99474" lon="2.44214">
        <ele>597</ele>
        <time>2022-05-21 04:14:55</time>
      </trkpt>
      <trkpt lat="41.99473" lon="2.44216">
        <ele>597.2</ele>
        <time>2022-05-21 04:14:56</time>
      </trkpt>
      <trkpt lat="41.99472" lon="2.44219">
        <ele>597.4</ele>
        <time>2022-05-21 04:14:57</time>
      </trkpt>
      <trkpt lat="41.99471" lon="2.44221">
        <ele>597.6</ele>
        <time>2022-05-21 04:14:58</time>
      </trkpt>
      <trkpt lat="41.99471" lon="2.44223">
        <ele>597.8</ele>
        <time>2022-05-21 04:14:59</time>
      </trkpt>
      <trkpt lat="41.9947" lon="2.44225">
        <ele>598</ele>
        <time>2022-05-21 04:15:00</time>
      </trkpt>
      <trkpt lat="41.99469" lon="2.44227">
        <ele>598.2</ele>
        <time>2022-05-21 04:15:01</time>
      </trkpt>
      <trkpt lat="41.99468" lon="2.44228">
        <ele>598.4</ele>
        <time>2022-05-21 04:15:02</time>
      </trkpt>
      <trkpt lat="41.99468" lon="2.4423">
        <ele>598.6</ele>
        <time>2022-05-21 04:15:03</time>
      </trkpt>
      <trkpt lat="41.99467" lon="2.44232">
        <ele>598.6</ele>
        <time>2022-05-21 04:15:04</time>
      </trkpt>
      <trkpt lat="41.99467" lon="2.44234">
        <ele>598.8</ele>
        <time>2022-05-21 04:15:05</time>
      </trkpt>
      <trkpt lat="41.99466" lon="2.44236">
        <ele>598.8</ele>
        <time>2022-05-21 04:15:06</time>
      </trkpt>
      <trkpt lat="41.99465" lon="2.44239">
        <ele>599</ele>
        <time>2022-05-21 04:15:07</time>
      </trkpt>
      <trkpt lat="41.99464" lon="2.44241">
        <ele>599</ele>
        <time>2022-05-21 04:15:08</time>
      </trkpt>
      <trkpt lat="41.99464" lon="2.44243">
        <ele>599</ele>
        <time>2022-05-21 04:15:09</time>
      </trkpt>
      <trkpt lat="41.99463" lon="2.44245">
        <ele>599.2</ele>
        <time>2022-05-21 04:15:10</time>
      </trkpt>
      <trkpt lat="41.99461" lon="2.44247">
        <ele>599.4</ele>
        <time>2022-05-21 04:15:11</time>
      </trkpt>
      <trkpt lat="41.99459" lon="2.44249">
        <ele>599.4</ele>
        <time>2022-05-21 04:15:12</time>
      </trkpt>
      <trkpt lat="41.99458" lon="2.44251">
        <ele>599.6</ele>
        <time>2022-05-21 04:15:13</time>
      </trkpt>
      <trkpt lat="41.99456" lon="2.44252">
        <ele>599.8</ele>
        <time>2022-05-21 04:15:14</time>
      </trkpt>
      <trkpt lat="41.99454" lon="2.44254">
        <ele>599.8</ele>
        <time>2022-05-21 04:15:15</time>
      </trkpt>
      <trkpt lat="41.99453" lon="2.44255">
        <ele>600</ele>
        <time>2022-05-21 04:15:16</time>
      </trkpt>
      <trkpt lat="41.99451" lon="2.44256">
        <ele>600.2</ele>
        <time>2022-05-21 04:15:17</time>
      </trkpt>
      <trkpt lat="41.99449" lon="2.44257">
        <ele>600.4</ele>
        <time>2022-05-21 04:15:18</time>
      </trkpt>
      <trkpt lat="41.99448" lon="2.44258">
        <ele>600.6</ele>
        <time>2022-05-21 04:15:19</time>
      </trkpt>
      <trkpt lat="41.99446" lon="2.44258">
        <ele>600.6</ele>
        <time>2022-05-21 04:15:20</time>
      </trkpt>
      <trkpt lat="41.99444" lon="2.44258">
        <ele>600.8</ele>
        <time>2022-05-21 04:15:21</time>
      </trkpt>
      <trkpt lat="41.99442" lon="2.44259">
        <ele>601</ele>
        <time>2022-05-21 04:15:22</time>
      </trkpt>
      <trkpt lat="41.9944" lon="2.44259">
        <ele>601.2</ele>
        <time>2022-05-21 04:15:23</time>
      </trkpt>
      <trkpt lat="41.99438" lon="2.4426">
        <ele>601.4</ele>
        <time>2022-05-21 04:15:24</time>
      </trkpt>
      <trkpt lat="41.99436" lon="2.44261">
        <ele>601.4</ele>
        <time>2022-05-21 04:15:25</time>
      </trkpt>
      <trkpt lat="41.99434" lon="2.44262">
        <ele>601.6</ele>
        <time>2022-05-21 04:15:26</time>
      </trkpt>
      <trkpt lat="41.99431" lon="2.44263">
        <ele>601.8</ele>
        <time>2022-05-21 04:15:27</time>
      </trkpt>
      <trkpt lat="41.99429" lon="2.44263">
        <ele>601.8</ele>
        <time>2022-05-21 04:15:28</time>
      </trkpt>
      <trkpt lat="41.99427" lon="2.44264">
        <ele>602</ele>
        <time>2022-05-21 04:15:29</time>
      </trkpt>
      <trkpt lat="41.99426" lon="2.44266">
        <ele>602.2</ele>
        <time>2022-05-21 04:15:30</time>
      </trkpt>
      <trkpt lat="41.99424" lon="2.44266">
        <ele>602.4</ele>
        <time>2022-05-21 04:15:31</time>
      </trkpt>
      <trkpt lat="41.99422" lon="2.44267">
        <ele>602.6</ele>
        <time>2022-05-21 04:15:32</time>
      </trkpt>
      <trkpt lat="41.9942" lon="2.44268">
        <ele>602.8</ele>
        <time>2022-05-21 04:15:33</time>
      </trkpt>
      <trkpt lat="41.99418" lon="2.44269">
        <ele>603</ele>
        <time>2022-05-21 04:15:34</time>
      </trkpt>
      <trkpt lat="41.99416" lon="2.44271">
        <ele>603</ele>
        <time>2022-05-21 04:15:35</time>
      </trkpt>
      <trkpt lat="41.99414" lon="2.44272">
        <ele>603.2</ele>
        <time>2022-05-21 04:15:36</time>
      </trkpt>
      <trkpt lat="41.99412" lon="2.44274">
        <ele>603.4</ele>
        <time>2022-05-21 04:15:37</time>
      </trkpt>
      <trkpt lat="41.9941" lon="2.44276">
        <ele>603.6</ele>
        <time>2022-05-21 04:15:38</time>
      </trkpt>
      <trkpt lat="41.99408" lon="2.44277">
        <ele>603.8</ele>
        <time>2022-05-21 04:15:39</time>
      </trkpt>
      <trkpt lat="41.99406" lon="2.44279">
        <ele>604</ele>
        <time>2022-05-21 04:15:40</time>
      </trkpt>
      <trkpt lat="41.99405" lon="2.4428">
        <ele>604.2</ele>
        <time>2022-05-21 04:15:41</time>
      </trkpt>
      <trkpt lat="41.99404" lon="2.44282">
        <ele>604.4</ele>
        <time>2022-05-21 04:15:42</time>
      </trkpt>
      <trkpt lat="41.99403" lon="2.44283">
        <ele>604.6</ele>
        <time>2022-05-21 04:15:43</time>
      </trkpt>
      <trkpt lat="41.99401" lon="2.44284">
        <ele>605</ele>
        <time>2022-05-21 04:15:44</time>
      </trkpt>
      <trkpt lat="41.99399" lon="2.44285">
        <ele>605.2</ele>
        <time>2022-05-21 04:15:45</time>
      </trkpt>
      <trkpt lat="41.99398" lon="2.44286">
        <ele>605.4</ele>
        <time>2022-05-21 04:15:46</time>
      </trkpt>
      <trkpt lat="41.99397" lon="2.44287">
        <ele>605.8</ele>
        <time>2022-05-21 04:15:47</time>
      </trkpt>
      <trkpt lat="41.99396" lon="2.44289">
        <ele>606</ele>
        <time>2022-05-21 04:15:48</time>
      </trkpt>
      <trkpt lat="41.99395" lon="2.44291">
        <ele>606.2</ele>
        <time>2022-05-21 04:15:49</time>
      </trkpt>
      <trkpt lat="41.99395" lon="2.44293">
        <ele>606.4</ele>
        <time>2022-05-21 04:15:50</time>
      </trkpt>
      <trkpt lat="41.99394" lon="2.44295">
        <ele>606.6</ele>
        <time>2022-05-21 04:15:51</time>
      </trkpt>
      <trkpt lat="41.99393" lon="2.44297">
        <ele>606.8</ele>
        <time>2022-05-21 04:15:52</time>
      </trkpt>
      <trkpt lat="41.99393" lon="2.44299">
        <ele>606.8</ele>
        <time>2022-05-21 04:15:53</time>
      </trkpt>
      <trkpt lat="41.99392" lon="2.44301">
        <ele>607</ele>
        <time>2022-05-21 04:15:54</time>
      </trkpt>
      <trkpt lat="41.99392" lon="2.44303">
        <ele>607.2</ele>
        <time>2022-05-21 04:15:55</time>
      </trkpt>
      <trkpt lat="41.99391" lon="2.44306">
        <ele>607.4</ele>
        <time>2022-05-21 04:15:56</time>
      </trkpt>
      <trkpt lat="41.99391" lon="2.44308">
        <ele>607.6</ele>
        <time>2022-05-21 04:15:57</time>
      </trkpt>
      <trkpt lat="41.9939" lon="2.44311">
        <ele>607.8</ele>
        <time>2022-05-21 04:15:58</time>
      </trkpt>
      <trkpt lat="41.9939" lon="2.44314">
        <ele>608</ele>
        <time>2022-05-21 04:15:59</time>
      </trkpt>
      <trkpt lat="41.9939" lon="2.44316">
        <ele>608.2</ele>
        <time>2022-05-21 04:16:00</time>
      </trkpt>
      <trkpt lat="41.9939" lon="2.44318">
        <ele>608.4</ele>
        <time>2022-05-21 04:16:01</time>
      </trkpt>
      <trkpt lat="41.9939" lon="2.4432">
        <ele>608.6</ele>
        <time>2022-05-21 04:16:02</time>
      </trkpt>
      <trkpt lat="41.9939" lon="2.44323">
        <ele>608.8</ele>
        <time>2022-05-21 04:16:03</time>
      </trkpt>
      <trkpt lat="41.9939" lon="2.44326">
        <ele>609</ele>
        <time>2022-05-21 04:16:04</time>
      </trkpt>
      <trkpt lat="41.99389" lon="2.44329">
        <ele>609.2</ele>
        <time>2022-05-21 04:16:05</time>
      </trkpt>
      <trkpt lat="41.99389" lon="2.44331">
        <ele>609.2</ele>
        <time>2022-05-21 04:16:06</time>
      </trkpt>
      <trkpt lat="41.99389" lon="2.44334">
        <ele>609.4</ele>
        <time>2022-05-21 04:16:07</time>
      </trkpt>
      <trkpt lat="41.99389" lon="2.44337">
        <ele>609.6</ele>
        <time>2022-05-21 04:16:08</time>
      </trkpt>
      <trkpt lat="41.99389" lon="2.4434">
        <ele>609.8</ele>
        <time>2022-05-21 04:16:09</time>
      </trkpt>
      <trkpt lat="41.99389" lon="2.44343">
        <ele>609.8</ele>
        <time>2022-05-21 04:16:10</time>
      </trkpt>
      <trkpt lat="41.99389" lon="2.44346">
        <ele>610</ele>
        <time>2022-05-21 04:16:11</time>
      </trkpt>
      <trkpt lat="41.99389" lon="2.44348">
        <ele>610.2</ele>
        <time>2022-05-21 04:16:12</time>
      </trkpt>
      <trkpt lat="41.99389" lon="2.44351">
        <ele>610.2</ele>
        <time>2022-05-21 04:16:13</time>
      </trkpt>
      <trkpt lat="41.9939" lon="2.44354">
        <ele>610.4</ele>
        <time>2022-05-21 04:16:14</time>
      </trkpt>
      <trkpt lat="41.9939" lon="2.44356">
        <ele>610.6</ele>
        <time>2022-05-21 04:16:15</time>
      </trkpt>
      <trkpt lat="41.9939" lon="2.44358">
        <ele>610.8</ele>
        <time>2022-05-21 04:16:16</time>
      </trkpt>
      <trkpt lat="41.99391" lon="2.4436">
        <ele>610.8</ele>
        <time>2022-05-21 04:16:17</time>
      </trkpt>
      <trkpt lat="41.99392" lon="2.44363">
        <ele>611</ele>
        <time>2022-05-21 04:16:18</time>
      </trkpt>
      <trkpt lat="41.99392" lon="2.44365">
        <ele>611.2</ele>
        <time>2022-05-21 04:16:19</time>
      </trkpt>
      <trkpt lat="41.99393" lon="2.44367">
        <ele>611.4</ele>
        <time>2022-05-21 04:16:20</time>
      </trkpt>
      <trkpt lat="41.99394" lon="2.44369">
        <ele>611.6</ele>
        <time>2022-05-21 04:16:21</time>
      </trkpt>
      <trkpt lat="41.99395" lon="2.44371">
        <ele>611.8</ele>
        <time>2022-05-21 04:16:22</time>
      </trkpt>
      <trkpt lat="41.99396" lon="2.44374">
        <ele>612</ele>
        <time>2022-05-21 04:16:23</time>
      </trkpt>
      <trkpt lat="41.99397" lon="2.44375">
        <ele>612.2</ele>
        <time>2022-05-21 04:16:24</time>
      </trkpt>
      <trkpt lat="41.99397" lon="2.44377">
        <ele>612.6</ele>
        <time>2022-05-21 04:16:25</time>
      </trkpt>
      <trkpt lat="41.99398" lon="2.44379">
        <ele>612.8</ele>
        <time>2022-05-21 04:16:26</time>
      </trkpt>
      <trkpt lat="41.994" lon="2.4438">
        <ele>613</ele>
        <time>2022-05-21 04:16:27</time>
      </trkpt>
      <trkpt lat="41.99401" lon="2.44382">
        <ele>613.2</ele>
        <time>2022-05-21 04:16:28</time>
      </trkpt>
      <trkpt lat="41.99402" lon="2.44384">
        <ele>613.4</ele>
        <time>2022-05-21 04:16:29</time>
      </trkpt>
      <trkpt lat="41.99404" lon="2.44385">
        <ele>613.6</ele>
        <time>2022-05-21 04:16:30</time>
      </trkpt>
      <trkpt lat="41.99405" lon="2.44386">
        <ele>613.8</ele>
        <time>2022-05-21 04:16:31</time>
      </trkpt>
      <trkpt lat="41.99406" lon="2.44388">
        <ele>614</ele>
        <time>2022-05-21 04:16:32</time>
      </trkpt>
      <trkpt lat="41.99408" lon="2.44389">
        <ele>614.2</ele>
        <time>2022-05-21 04:16:33</time>
      </trkpt>
      <trkpt lat="41.99409" lon="2.44389">
        <ele>614.4</ele>
        <time>2022-05-21 04:16:34</time>
      </trkpt>
      <trkpt lat="41.99411" lon="2.4439">
        <ele>614.6</ele>
        <time>2022-05-21 04:16:35</time>
      </trkpt>
      <trkpt lat="41.99413" lon="2.4439">
        <ele>614.8</ele>
        <time>2022-05-21 04:16:36</time>
      </trkpt>
      <trkpt lat="41.99414" lon="2.4439">
        <ele>615</ele>
        <time>2022-05-21 04:16:37</time>
      </trkpt>
      <trkpt lat="41.99416" lon="2.4439">
        <ele>615.2</ele>
        <time>2022-05-21 04:16:38</time>
      </trkpt>
      <trkpt lat="41.99417" lon="2.44389">
        <ele>615.4</ele>
        <time>2022-05-21 04:16:39</time>
      </trkpt>
      <trkpt lat="41.99418" lon="2.44388">
        <ele>615.6</ele>
        <time>2022-05-21 04:16:40</time>
      </trkpt>
      <trkpt lat="41.9942" lon="2.44387">
        <ele>615.8</ele>
        <time>2022-05-21 04:16:41</time>
      </trkpt>
      <trkpt lat="41.99421" lon="2.44386">
        <ele>616</ele>
        <time>2022-05-21 04:16:42</time>
      </trkpt>
      <trkpt lat="41.99422" lon="2.44384">
        <ele>616.2</ele>
        <time>2022-05-21 04:16:43</time>
      </trkpt>
      <trkpt lat="41.99423" lon="2.44383">
        <ele>616.4</ele>
        <time>2022-05-21 04:16:44</time>
      </trkpt>
      <trkpt lat="41.99424" lon="2.44382">
        <ele>616.6</ele>
        <time>2022-05-21 04:16:45</time>
      </trkpt>
      <trkpt lat="41.99426" lon="2.44381">
        <ele>616.8</ele>
        <time>2022-05-21 04:16:46</time>
      </trkpt>
      <trkpt lat="41.99427" lon="2.4438">
        <ele>617</ele>
        <time>2022-05-21 04:16:47</time>
      </trkpt>
      <trkpt lat="41.99428" lon="2.44378">
        <ele>617.2</ele>
        <time>2022-05-21 04:16:48</time>
      </trkpt>
      <trkpt lat="41.99429" lon="2.44377">
        <ele>617.4</ele>
        <time>2022-05-21 04:16:49</time>
      </trkpt>
      <trkpt lat="41.9943" lon="2.44376">
        <ele>617.6</ele>
        <time>2022-05-21 04:16:50</time>
      </trkpt>
      <trkpt lat="41.99431" lon="2.44375">
        <ele>617.8</ele>
        <time>2022-05-21 04:16:51</time>
      </trkpt>
      <trkpt lat="41.99432" lon="2.44374">
        <ele>618</ele>
        <time>2022-05-21 04:16:52</time>
      </trkpt>
      <trkpt lat="41.99432" lon="2.44372">
        <ele>618.2</ele>
        <time>2022-05-21 04:16:53</time>
      </trkpt>
      <trkpt lat="41.99434" lon="2.44371">
        <ele>618.4</ele>
        <time>2022-05-21 04:16:54</time>
      </trkpt>
      <trkpt lat="41.99435" lon="2.4437">
        <ele>618.6</ele>
        <time>2022-05-21 04:16:55</time>
      </trkpt>
      <trkpt lat="41.99437" lon="2.44369">
        <ele>618.8</ele>
        <time>2022-05-21 04:16:56</time>
      </trkpt>
      <trkpt lat="41.99438" lon="2.44368">
        <ele>619</ele>
        <time>2022-05-21 04:16:57</time>
      </trkpt>
      <trkpt lat="41.9944" lon="2.44367">
        <ele>619.2</ele>
        <time>2022-05-21 04:16:58</time>
      </trkpt>
      <trkpt lat="41.99442" lon="2.44367">
        <ele>619.4</ele>
        <time>2022-05-21 04:16:59</time>
      </trkpt>
      <trkpt lat="41.99444" lon="2.44366">
        <ele>619.6</ele>
        <time>2022-05-21 04:17:00</time>
      </trkpt>
      <trkpt lat="41.99446" lon="2.44366">
        <ele>619.8</ele>
        <time>2022-05-21 04:17:01</time>
      </trkpt>
      <trkpt lat="41.99448" lon="2.44365">
        <ele>620</ele>
        <time>2022-05-21 04:17:02</time>
      </trkpt>
      <trkpt lat="41.99449" lon="2.44365">
        <ele>620.2</ele>
        <time>2022-05-21 04:17:03</time>
      </trkpt>
      <trkpt lat="41.99451" lon="2.44366">
        <ele>620.4</ele>
        <time>2022-05-21 04:17:04</time>
      </trkpt>
      <trkpt lat="41.99453" lon="2.44366">
        <ele>620.6</ele>
        <time>2022-05-21 04:17:05</time>
      </trkpt>
      <trkpt lat="41.99454" lon="2.44366">
        <ele>620.8</ele>
        <time>2022-05-21 04:17:06</time>
      </trkpt>
      <trkpt lat="41.99455" lon="2.44367">
        <ele>620.8</ele>
        <time>2022-05-21 04:17:07</time>
      </trkpt>
      <trkpt lat="41.99456" lon="2.44368">
        <ele>621</ele>
        <time>2022-05-21 04:17:08</time>
      </trkpt>
      <trkpt lat="41.99458" lon="2.44368">
        <ele>621.2</ele>
        <time>2022-05-21 04:17:09</time>
      </trkpt>
      <trkpt lat="41.99459" lon="2.4437">
        <ele>621.4</ele>
        <time>2022-05-21 04:17:10</time>
      </trkpt>
      <trkpt lat="41.9946" lon="2.44371">
        <ele>621.4</ele>
        <time>2022-05-21 04:17:11</time>
      </trkpt>
      <trkpt lat="41.99461" lon="2.44373">
        <ele>621.6</ele>
        <time>2022-05-21 04:17:12</time>
      </trkpt>
      <trkpt lat="41.99463" lon="2.44374">
        <ele>621.8</ele>
        <time>2022-05-21 04:17:13</time>
      </trkpt>
      <trkpt lat="41.99464" lon="2.44375">
        <ele>622</ele>
        <time>2022-05-21 04:17:14</time>
      </trkpt>
      <trkpt lat="41.99466" lon="2.44377">
        <ele>622.2</ele>
        <time>2022-05-21 04:17:15</time>
      </trkpt>
      <trkpt lat="41.99467" lon="2.44378">
        <ele>622.4</ele>
        <time>2022-05-21 04:17:16</time>
      </trkpt>
      <trkpt lat="41.99468" lon="2.4438">
        <ele>622.6</ele>
        <time>2022-05-21 04:17:17</time>
      </trkpt>
      <trkpt lat="41.99469" lon="2.44382">
        <ele>622.8</ele>
        <time>2022-05-21 04:17:18</time>
      </trkpt>
      <trkpt lat="41.9947" lon="2.44384">
        <ele>623</ele>
        <time>2022-05-21 04:17:19</time>
      </trkpt>
      <trkpt lat="41.99471" lon="2.44386">
        <ele>623.2</ele>
        <time>2022-05-21 04:17:20</time>
      </trkpt>
      <trkpt lat="41.99472" lon="2.44387">
        <ele>623.4</ele>
        <time>2022-05-21 04:17:21</time>
      </trkpt>
      <trkpt lat="41.99472" lon="2.44388">
        <ele>623.6</ele>
        <time>2022-05-21 04:17:22</time>
      </trkpt>
      <trkpt lat="41.99473" lon="2.44389">
        <ele>623.8</ele>
        <time>2022-05-21 04:17:23</time>
      </trkpt>
      <trkpt lat="41.99474" lon="2.44391">
        <ele>624</ele>
        <time>2022-05-21 04:17:24</time>
      </trkpt>
      <trkpt lat="41.99475" lon="2.44392">
        <ele>624.2</ele>
        <time>2022-05-21 04:17:25</time>
      </trkpt>
      <trkpt lat="41.99476" lon="2.44394">
        <ele>624.4</ele>
        <time>2022-05-21 04:17:26</time>
      </trkpt>
      <trkpt lat="41.99478" lon="2.44396">
        <ele>624.6</ele>
        <time>2022-05-21 04:17:27</time>
      </trkpt>
      <trkpt lat="41.99479" lon="2.44397">
        <ele>624.8</ele>
        <time>2022-05-21 04:17:28</time>
      </trkpt>
      <trkpt lat="41.99481" lon="2.44399">
        <ele>625</ele>
        <time>2022-05-21 04:17:29</time>
      </trkpt>
      <trkpt lat="41.99482" lon="2.44401">
        <ele>625.2</ele>
        <time>2022-05-21 04:17:30</time>
      </trkpt>
      <trkpt lat="41.99483" lon="2.44403">
        <ele>625.4</ele>
        <time>2022-05-21 04:17:31</time>
      </trkpt>
      <trkpt lat="41.99485" lon="2.44405">
        <ele>625.6</ele>
        <time>2022-05-21 04:17:32</time>
      </trkpt>
      <trkpt lat="41.99486" lon="2.44406">
        <ele>625.6</ele>
        <time>2022-05-21 04:17:33</time>
      </trkpt>
      <trkpt lat="41.99487" lon="2.44408">
        <ele>625.8</ele>
        <time>2022-05-21 04:17:34</time>
      </trkpt>
      <trkpt lat="41.99488" lon="2.4441">
        <ele>626</ele>
        <time>2022-05-21 04:17:35</time>
      </trkpt>
      <trkpt lat="41.9949" lon="2.44411">
        <ele>626.2</ele>
        <time>2022-05-21 04:17:36</time>
      </trkpt>
      <trkpt lat="41.99492" lon="2.44413">
        <ele>626.4</ele>
        <time>2022-05-21 04:17:37</time>
      </trkpt>
      <trkpt lat="41.99493" lon="2.44415">
        <ele>626.4</ele>
        <time>2022-05-21 04:17:38</time>
      </trkpt>
      <trkpt lat="41.99495" lon="2.44417">
        <ele>626.6</ele>
        <time>2022-05-21 04:17:39</time>
      </trkpt>
      <trkpt lat="41.99496" lon="2.44419">
        <ele>626.8</ele>
        <time>2022-05-21 04:17:40</time>
      </trkpt>
      <trkpt lat="41.99497" lon="2.44421">
        <ele>627</ele>
        <time>2022-05-21 04:17:41</time>
      </trkpt>
      <trkpt lat="41.99499" lon="2.44423">
        <ele>627.2</ele>
        <time>2022-05-21 04:17:42</time>
      </trkpt>
      <trkpt lat="41.995" lon="2.44425">
        <ele>627.2</ele>
        <time>2022-05-21 04:17:43</time>
      </trkpt>
      <trkpt lat="41.99501" lon="2.44428">
        <ele>627.4</ele>
        <time>2022-05-21 04:17:44</time>
      </trkpt>
      <trkpt lat="41.99503" lon="2.44429">
        <ele>627.4</ele>
        <time>2022-05-21 04:17:45</time>
      </trkpt>
      <trkpt lat="41.99504" lon="2.44431">
        <ele>627.6</ele>
        <time>2022-05-21 04:17:46</time>
      </trkpt>
      <trkpt lat="41.99506" lon="2.44433">
        <ele>627.8</ele>
        <time>2022-05-21 04:17:47</time>
      </trkpt>
      <trkpt lat="41.99508" lon="2.44434">
        <ele>627.8</ele>
        <time>2022-05-21 04:17:48</time>
      </trkpt>
      <trkpt lat="41.99509" lon="2.44436">
        <ele>628</ele>
        <time>2022-05-21 04:17:49</time>
      </trkpt>
      <trkpt lat="41.99511" lon="2.44437">
        <ele>628</ele>
        <time>2022-05-21 04:17:50</time>
      </trkpt>
      <trkpt lat="41.99512" lon="2.44439">
        <ele>628</ele>
        <time>2022-05-21 04:17:51</time>
      </trkpt>
      <trkpt lat="41.99514" lon="2.44441">
        <ele>628.2</ele>
        <time>2022-05-21 04:17:52</time>
      </trkpt>
      <trkpt lat="41.99516" lon="2.44443">
        <ele>628.2</ele>
        <time>2022-05-21 04:17:53</time>
      </trkpt>
      <trkpt lat="41.99518" lon="2.44445">
        <ele>628.4</ele>
        <time>2022-05-21 04:17:54</time>
      </trkpt>
      <trkpt lat="41.9952" lon="2.44446">
        <ele>628.4</ele>
        <time>2022-05-21 04:17:55</time>
      </trkpt>
      <trkpt lat="41.99522" lon="2.44448">
        <ele>628.4</ele>
        <time>2022-05-21 04:17:56</time>
      </trkpt>
      <trkpt lat="41.99523" lon="2.4445">
        <ele>628.6</ele>
        <time>2022-05-21 04:17:57</time>
      </trkpt>
      <trkpt lat="41.99525" lon="2.44451">
        <ele>628.8</ele>
        <time>2022-05-21 04:17:58</time>
      </trkpt>
      <trkpt lat="41.99527" lon="2.44452">
        <ele>628.8</ele>
        <time>2022-05-21 04:17:59</time>
      </trkpt>
      <trkpt lat="41.99529" lon="2.44453">
        <ele>629</ele>
        <time>2022-05-21 04:18:00</time>
      </trkpt>
      <trkpt lat="41.99531" lon="2.44454">
        <ele>629.2</ele>
        <time>2022-05-21 04:18:01</time>
      </trkpt>
      <trkpt lat="41.99533" lon="2.44455">
        <ele>629.2</ele>
        <time>2022-05-21 04:18:02</time>
      </trkpt>
      <trkpt lat="41.99535" lon="2.44455">
        <ele>629.4</ele>
        <time>2022-05-21 04:18:03</time>
      </trkpt>
      <trkpt lat="41.99537" lon="2.44456">
        <ele>629.6</ele>
        <time>2022-05-21 04:18:04</time>
      </trkpt>
      <trkpt lat="41.99539" lon="2.44456">
        <ele>629.6</ele>
        <time>2022-05-21 04:18:05</time>
      </trkpt>
      <trkpt lat="41.99541" lon="2.44457">
        <ele>629.8</ele>
        <time>2022-05-21 04:18:06</time>
      </trkpt>
      <trkpt lat="41.99544" lon="2.44457">
        <ele>629.8</ele>
        <time>2022-05-21 04:18:07</time>
      </trkpt>
      <trkpt lat="41.99546" lon="2.44457">
        <ele>630</ele>
        <time>2022-05-21 04:18:08</time>
      </trkpt>
      <trkpt lat="41.99548" lon="2.44458">
        <ele>630</ele>
        <time>2022-05-21 04:18:09</time>
      </trkpt>
      <trkpt lat="41.99551" lon="2.44458">
        <ele>630</ele>
        <time>2022-05-21 04:18:10</time>
      </trkpt>
      <trkpt lat="41.99553" lon="2.44459">
        <ele>630</ele>
        <time>2022-05-21 04:18:11</time>
      </trkpt>
      <trkpt lat="41.99555" lon="2.44461">
        <ele>630</ele>
        <time>2022-05-21 04:18:12</time>
      </trkpt>
      <trkpt lat="41.99557" lon="2.44462">
        <ele>630</ele>
        <time>2022-05-21 04:18:13</time>
      </trkpt>
      <trkpt lat="41.9956" lon="2.44463">
        <ele>630</ele>
        <time>2022-05-21 04:18:14</time>
      </trkpt>
      <trkpt lat="41.99564" lon="2.44466">
        <ele>629.8</ele>
        <time>2022-05-21 04:18:15</time>
      </trkpt>
      <trkpt lat="41.99567" lon="2.44469">
        <ele>629.8</ele>
        <time>2022-05-21 04:18:16</time>
      </trkpt>
      <trkpt lat="41.99569" lon="2.44472">
        <ele>629.6</ele>
        <time>2022-05-21 04:18:17</time>
      </trkpt>
      <trkpt lat="41.99573" lon="2.44476">
        <ele>629.6</ele>
        <time>2022-05-21 04:18:18</time>
      </trkpt>
      <trkpt lat="41.99577" lon="2.44479">
        <ele>629.4</ele>
        <time>2022-05-21 04:18:19</time>
      </trkpt>
      <trkpt lat="41.9958" lon="2.44482">
        <ele>629.2</ele>
        <time>2022-05-21 04:18:20</time>
      </trkpt>
      <trkpt lat="41.99584" lon="2.44485">
        <ele>629.2</ele>
        <time>2022-05-21 04:18:21</time>
      </trkpt>
      <trkpt lat="41.99588" lon="2.44487">
        <ele>629</ele>
        <time>2022-05-21 04:18:22</time>
      </trkpt>
      <trkpt lat="41.99592" lon="2.44489">
        <ele>629</ele>
        <time>2022-05-21 04:18:23</time>
      </trkpt>
      <trkpt lat="41.99597" lon="2.44491">
        <ele>629</ele>
        <time>2022-05-21 04:18:24</time>
      </trkpt>
      <trkpt lat="41.99601" lon="2.44492">
        <ele>628.8</ele>
        <time>2022-05-21 04:18:25</time>
      </trkpt>
      <trkpt lat="41.99605" lon="2.44493">
        <ele>628.8</ele>
        <time>2022-05-21 04:18:26</time>
      </trkpt>
      <trkpt lat="41.99609" lon="2.44493">
        <ele>628.8</ele>
        <time>2022-05-21 04:18:27</time>
      </trkpt>
      <trkpt lat="41.99613" lon="2.44493">
        <ele>628.8</ele>
        <time>2022-05-21 04:18:28</time>
      </trkpt>
      <trkpt lat="41.99617" lon="2.44492">
        <ele>628.8</ele>
        <time>2022-05-21 04:18:29</time>
      </trkpt>
      <trkpt lat="41.9962" lon="2.44491">
        <ele>628.8</ele>
        <time>2022-05-21 04:18:30</time>
      </trkpt>
      <trkpt lat="41.99623" lon="2.44489">
        <ele>629</ele>
        <time>2022-05-21 04:18:31</time>
      </trkpt>
      <trkpt lat="41.99625" lon="2.44488">
        <ele>629</ele>
        <time>2022-05-21 04:18:32</time>
      </trkpt>
      <trkpt lat="41.99628" lon="2.44485">
        <ele>629</ele>
        <time>2022-05-21 04:18:33</time>
      </trkpt>
      <trkpt lat="41.99631" lon="2.44483">
        <ele>629.2</ele>
        <time>2022-05-21 04:18:34</time>
      </trkpt>
      <trkpt lat="41.99633" lon="2.44481">
        <ele>629.2</ele>
        <time>2022-05-21 04:18:35</time>
      </trkpt>
      <trkpt lat="41.99636" lon="2.44478">
        <ele>629.4</ele>
        <time>2022-05-21 04:18:36</time>
      </trkpt>
      <trkpt lat="41.99639" lon="2.44476">
        <ele>629.4</ele>
        <time>2022-05-21 04:18:37</time>
      </trkpt>
      <trkpt lat="41.99641" lon="2.44475">
        <ele>629.6</ele>
        <time>2022-05-21 04:18:38</time>
      </trkpt>
      <trkpt lat="41.99644" lon="2.44474">
        <ele>629.8</ele>
        <time>2022-05-21 04:18:39</time>
      </trkpt>
      <trkpt lat="41.99647" lon="2.44473">
        <ele>630</ele>
        <time>2022-05-21 04:18:40</time>
      </trkpt>
      <trkpt lat="41.99649" lon="2.44473">
        <ele>630</ele>
        <time>2022-05-21 04:18:41</time>
      </trkpt>
      <trkpt lat="41.99651" lon="2.44472">
        <ele>630.2</ele>
        <time>2022-05-21 04:18:42</time>
      </trkpt>
      <trkpt lat="41.99653" lon="2.44472">
        <ele>630.2</ele>
        <time>2022-05-21 04:18:43</time>
      </trkpt>
      <trkpt lat="41.99655" lon="2.44471">
        <ele>630.6</ele>
        <time>2022-05-21 04:18:44</time>
      </trkpt>
      <trkpt lat="41.99657" lon="2.4447">
        <ele>630.6</ele>
        <time>2022-05-21 04:18:45</time>
      </trkpt>
      <trkpt lat="41.99658" lon="2.4447">
        <ele>630.6</ele>
        <time>2022-05-21 04:18:46</time>
      </trkpt>
      <trkpt lat="41.9966" lon="2.44469">
        <ele>630.8</ele>
        <time>2022-05-21 04:18:47</time>
      </trkpt>
      <trkpt lat="41.99661" lon="2.44468">
        <ele>630.8</ele>
        <time>2022-05-21 04:18:48</time>
      </trkpt>
      <trkpt lat="41.99662" lon="2.44468">
        <ele>630.8</ele>
        <time>2022-05-21 04:18:49</time>
      </trkpt>
      <trkpt lat="41.99664" lon="2.44467">
        <ele>631</ele>
        <time>2022-05-21 04:18:50</time>
      </trkpt>
      <trkpt lat="41.99665" lon="2.44467">
        <ele>631.2</ele>
        <time>2022-05-21 04:18:51</time>
      </trkpt>
      <trkpt lat="41.99667" lon="2.44465">
        <ele>631.6</ele>
        <time>2022-05-21 04:18:52</time>
      </trkpt>
      <trkpt lat="41.99668" lon="2.44464">
        <ele>631.8</ele>
        <time>2022-05-21 04:18:53</time>
      </trkpt>
      <trkpt lat="41.99669" lon="2.44463">
        <ele>632.2</ele>
        <time>2022-05-21 04:18:54</time>
      </trkpt>
      <trkpt lat="41.99671" lon="2.44462">
        <ele>632.4</ele>
        <time>2022-05-21 04:18:55</time>
      </trkpt>
      <trkpt lat="41.99673" lon="2.44461">
        <ele>632.6</ele>
        <time>2022-05-21 04:18:56</time>
      </trkpt>
      <trkpt lat="41.99675" lon="2.44459">
        <ele>632.8</ele>
        <time>2022-05-21 04:18:57</time>
      </trkpt>
      <trkpt lat="41.99677" lon="2.44458">
        <ele>633</ele>
        <time>2022-05-21 04:18:58</time>
      </trkpt>
      <trkpt lat="41.99679" lon="2.44457">
        <ele>633.2</ele>
        <time>2022-05-21 04:18:59</time>
      </trkpt>
      <trkpt lat="41.99681" lon="2.44456">
        <ele>633.2</ele>
        <time>2022-05-21 04:19:00</time>
      </trkpt>
      <trkpt lat="41.99683" lon="2.44455">
        <ele>633.4</ele>
        <time>2022-05-21 04:19:01</time>
      </trkpt>
      <trkpt lat="41.99685" lon="2.44454">
        <ele>633.4</ele>
        <time>2022-05-21 04:19:02</time>
      </trkpt>
      <trkpt lat="41.99687" lon="2.44453">
        <ele>633.4</ele>
        <time>2022-05-21 04:19:03</time>
      </trkpt>
      <trkpt lat="41.99689" lon="2.44453">
        <ele>633.6</ele>
        <time>2022-05-21 04:19:04</time>
      </trkpt>
      <trkpt lat="41.99691" lon="2.44453">
        <ele>633.6</ele>
        <time>2022-05-21 04:19:05</time>
      </trkpt>
      <trkpt lat="41.99693" lon="2.44453">
        <ele>633.6</ele>
        <time>2022-05-21 04:19:06</time>
      </trkpt>
      <trkpt lat="41.99695" lon="2.44453">
        <ele>633.6</ele>
        <time>2022-05-21 04:19:07</time>
      </trkpt>
      <trkpt lat="41.99697" lon="2.44453">
        <ele>633.6</ele>
        <time>2022-05-21 04:19:08</time>
      </trkpt>
      <trkpt lat="41.99699" lon="2.44454">
        <ele>633.6</ele>
        <time>2022-05-21 04:19:09</time>
      </trkpt>
      <trkpt lat="41.99701" lon="2.44454">
        <ele>633.6</ele>
        <time>2022-05-21 04:19:10</time>
      </trkpt>
      <trkpt lat="41.99703" lon="2.44455">
        <ele>633.6</ele>
        <time>2022-05-21 04:19:11</time>
      </trkpt>
      <trkpt lat="41.99707" lon="2.44455">
        <ele>633.4</ele>
        <time>2022-05-21 04:19:12</time>
      </trkpt>
      <trkpt lat="41.99712" lon="2.44455">
        <ele>633.4</ele>
        <time>2022-05-21 04:19:13</time>
      </trkpt>
      <trkpt lat="41.99715" lon="2.44455">
        <ele>633.4</ele>
        <time>2022-05-21 04:19:14</time>
      </trkpt>
      <trkpt lat="41.99719" lon="2.44456">
        <ele>633.4</ele>
        <time>2022-05-21 04:19:15</time>
      </trkpt>
      <trkpt lat="41.99724" lon="2.44456">
        <ele>633.4</ele>
        <time>2022-05-21 04:19:16</time>
      </trkpt>
      <trkpt lat="41.99731" lon="2.44457">
        <ele>633.6</ele>
        <time>2022-05-21 04:19:17</time>
      </trkpt>
      <trkpt lat="41.99736" lon="2.44457">
        <ele>633.6</ele>
        <time>2022-05-21 04:19:18</time>
      </trkpt>
      <trkpt lat="41.9974" lon="2.44457">
        <ele>633.6</ele>
        <time>2022-05-21 04:19:19</time>
      </trkpt>
      <trkpt lat="41.99744" lon="2.44458">
        <ele>633.8</ele>
        <time>2022-05-21 04:19:20</time>
      </trkpt>
      <trkpt lat="41.99747" lon="2.44458">
        <ele>633.8</ele>
        <time>2022-05-21 04:19:21</time>
      </trkpt>
      <trkpt lat="41.99751" lon="2.44459">
        <ele>634</ele>
        <time>2022-05-21 04:19:22</time>
      </trkpt>
      <trkpt lat="41.99754" lon="2.4446">
        <ele>634</ele>
        <time>2022-05-21 04:19:23</time>
      </trkpt>
      <trkpt lat="41.99757" lon="2.4446">
        <ele>634.2</ele>
        <time>2022-05-21 04:19:24</time>
      </trkpt>
      <trkpt lat="41.9976" lon="2.44461">
        <ele>634.2</ele>
        <time>2022-05-21 04:19:25</time>
      </trkpt>
      <trkpt lat="41.99762" lon="2.44461">
        <ele>634.4</ele>
        <time>2022-05-21 04:19:26</time>
      </trkpt>
      <trkpt lat="41.99765" lon="2.44461">
        <ele>634.4</ele>
        <time>2022-05-21 04:19:27</time>
      </trkpt>
      <trkpt lat="41.99768" lon="2.44462">
        <ele>634.6</ele>
        <time>2022-05-21 04:19:28</time>
      </trkpt>
      <trkpt lat="41.9977" lon="2.44463">
        <ele>634.6</ele>
        <time>2022-05-21 04:19:29</time>
      </trkpt>
      <trkpt lat="41.99773" lon="2.44464">
        <ele>634.8</ele>
        <time>2022-05-21 04:19:30</time>
      </trkpt>
      <trkpt lat="41.99775" lon="2.44465">
        <ele>635</ele>
        <time>2022-05-21 04:19:31</time>
      </trkpt>
      <trkpt lat="41.99778" lon="2.44466">
        <ele>635</ele>
        <time>2022-05-21 04:19:32</time>
      </trkpt>
      <trkpt lat="41.99781" lon="2.44468">
        <ele>635.2</ele>
        <time>2022-05-21 04:19:33</time>
      </trkpt>
      <trkpt lat="41.99783" lon="2.44469">
        <ele>635.4</ele>
        <time>2022-05-21 04:19:34</time>
      </trkpt>
      <trkpt lat="41.99785" lon="2.44471">
        <ele>635.6</ele>
        <time>2022-05-21 04:19:35</time>
      </trkpt>
      <trkpt lat="41.99787" lon="2.44473">
        <ele>635.8</ele>
        <time>2022-05-21 04:19:36</time>
      </trkpt>
      <trkpt lat="41.99788" lon="2.44474">
        <ele>635.8</ele>
        <time>2022-05-21 04:19:37</time>
      </trkpt>
      <trkpt lat="41.99791" lon="2.44476">
        <ele>636</ele>
        <time>2022-05-21 04:19:38</time>
      </trkpt>
      <trkpt lat="41.99793" lon="2.44478">
        <ele>636</ele>
        <time>2022-05-21 04:19:39</time>
      </trkpt>
      <trkpt lat="41.99795" lon="2.44479">
        <ele>636.2</ele>
        <time>2022-05-21 04:19:40</time>
      </trkpt>
      <trkpt lat="41.99797" lon="2.44481">
        <ele>636.4</ele>
        <time>2022-05-21 04:19:41</time>
      </trkpt>
      <trkpt lat="41.99799" lon="2.44482">
        <ele>636.4</ele>
        <time>2022-05-21 04:19:42</time>
      </trkpt>
      <trkpt lat="41.99802" lon="2.44484">
        <ele>636.6</ele>
        <time>2022-05-21 04:19:43</time>
      </trkpt>
      <trkpt lat="41.99804" lon="2.44485">
        <ele>636.8</ele>
        <time>2022-05-21 04:19:44</time>
      </trkpt>
      <trkpt lat="41.99806" lon="2.44486">
        <ele>636.8</ele>
        <time>2022-05-21 04:19:45</time>
      </trkpt>
      <trkpt lat="41.99808" lon="2.44486">
        <ele>637</ele>
        <time>2022-05-21 04:19:46</time>
      </trkpt>
      <trkpt lat="41.99811" lon="2.44486">
        <ele>637.2</ele>
        <time>2022-05-21 04:19:47</time>
      </trkpt>
      <trkpt lat="41.99813" lon="2.44487">
        <ele>637.4</ele>
        <time>2022-05-21 04:19:48</time>
      </trkpt>
      <trkpt lat="41.99815" lon="2.44487">
        <ele>637.6</ele>
        <time>2022-05-21 04:19:49</time>
      </trkpt>
      <trkpt lat="41.99817" lon="2.44488">
        <ele>637.6</ele>
        <time>2022-05-21 04:19:50</time>
      </trkpt>
      <trkpt lat="41.99819" lon="2.44489">
        <ele>637.8</ele>
        <time>2022-05-21 04:19:51</time>
      </trkpt>
      <trkpt lat="41.99821" lon="2.4449">
        <ele>638</ele>
        <time>2022-05-21 04:19:52</time>
      </trkpt>
      <trkpt lat="41.99823" lon="2.44491">
        <ele>638.2</ele>
        <time>2022-05-21 04:19:53</time>
      </trkpt>
      <trkpt lat="41.99824" lon="2.44492">
        <ele>638.4</ele>
        <time>2022-05-21 04:19:54</time>
      </trkpt>
      <trkpt lat="41.99826" lon="2.44493">
        <ele>638.4</ele>
        <time>2022-05-21 04:19:55</time>
      </trkpt>
      <trkpt lat="41.99828" lon="2.44495">
        <ele>638.6</ele>
        <time>2022-05-21 04:19:56</time>
      </trkpt>
      <trkpt lat="41.99829" lon="2.44496">
        <ele>638.8</ele>
        <time>2022-05-21 04:19:57</time>
      </trkpt>
      <trkpt lat="41.99831" lon="2.44497">
        <ele>639</ele>
        <time>2022-05-21 04:19:58</time>
      </trkpt>
      <trkpt lat="41.99833" lon="2.44497">
        <ele>639.2</ele>
        <time>2022-05-21 04:19:59</time>
      </trkpt>
      <trkpt lat="41.99834" lon="2.44498">
        <ele>639.2</ele>
        <time>2022-05-21 04:20:00</time>
      </trkpt>
      <trkpt lat="41.99836" lon="2.44499">
        <ele>639.4</ele>
        <time>2022-05-21 04:20:01</time>
      </trkpt>
      <trkpt lat="41.99838" lon="2.44501">
        <ele>639.6</ele>
        <time>2022-05-21 04:20:02</time>
      </trkpt>
      <trkpt lat="41.99839" lon="2.44502">
        <ele>639.6</ele>
        <time>2022-05-21 04:20:03</time>
      </trkpt>
      <trkpt lat="41.99841" lon="2.44504">
        <ele>639.8</ele>
        <time>2022-05-21 04:20:04</time>
      </trkpt>
      <trkpt lat="41.99842" lon="2.44505">
        <ele>640</ele>
        <time>2022-05-21 04:20:05</time>
      </trkpt>
      <trkpt lat="41.99844" lon="2.44507">
        <ele>640</ele>
        <time>2022-05-21 04:20:06</time>
      </trkpt>
      <trkpt lat="41.99846" lon="2.44508">
        <ele>640.2</ele>
        <time>2022-05-21 04:20:07</time>
      </trkpt>
      <trkpt lat="41.99847" lon="2.4451">
        <ele>640.2</ele>
        <time>2022-05-21 04:20:08</time>
      </trkpt>
      <trkpt lat="41.99849" lon="2.44512">
        <ele>640.4</ele>
        <time>2022-05-21 04:20:09</time>
      </trkpt>
      <trkpt lat="41.99851" lon="2.44513">
        <ele>640.6</ele>
        <time>2022-05-21 04:20:10</time>
      </trkpt>
      <trkpt lat="41.99853" lon="2.44515">
        <ele>640.6</ele>
        <time>2022-05-21 04:20:11</time>
      </trkpt>
      <trkpt lat="41.99854" lon="2.44517">
        <ele>640.8</ele>
        <time>2022-05-21 04:20:12</time>
      </trkpt>
      <trkpt lat="41.99855" lon="2.44519">
        <ele>641</ele>
        <time>2022-05-21 04:20:13</time>
      </trkpt>
      <trkpt lat="41.99857" lon="2.44521">
        <ele>641</ele>
        <time>2022-05-21 04:20:14</time>
      </trkpt>
      <trkpt lat="41.99859" lon="2.44523">
        <ele>641.2</ele>
        <time>2022-05-21 04:20:15</time>
      </trkpt>
      <trkpt lat="41.9986" lon="2.44524">
        <ele>641.4</ele>
        <time>2022-05-21 04:20:16</time>
      </trkpt>
      <trkpt lat="41.99862" lon="2.44525">
        <ele>641.6</ele>
        <time>2022-05-21 04:20:17</time>
      </trkpt>
      <trkpt lat="41.99863" lon="2.44527">
        <ele>641.8</ele>
        <time>2022-05-21 04:20:18</time>
      </trkpt>
      <trkpt lat="41.99865" lon="2.44528">
        <ele>641.8</ele>
        <time>2022-05-21 04:20:19</time>
      </trkpt>
      <trkpt lat="41.99866" lon="2.4453">
        <ele>642</ele>
        <time>2022-05-21 04:20:20</time>
      </trkpt>
      <trkpt lat="41.99868" lon="2.44531">
        <ele>642.2</ele>
        <time>2022-05-21 04:20:21</time>
      </trkpt>
      <trkpt lat="41.9987" lon="2.44533">
        <ele>642.4</ele>
        <time>2022-05-21 04:20:22</time>
      </trkpt>
      <trkpt lat="41.99871" lon="2.44535">
        <ele>642.4</ele>
        <time>2022-05-21 04:20:23</time>
      </trkpt>
      <trkpt lat="41.99873" lon="2.44536">
        <ele>642.6</ele>
        <time>2022-05-21 04:20:24</time>
      </trkpt>
      <trkpt lat="41.99874" lon="2.44538">
        <ele>642.8</ele>
        <time>2022-05-21 04:20:25</time>
      </trkpt>
      <trkpt lat="41.99876" lon="2.4454">
        <ele>643</ele>
        <time>2022-05-21 04:20:26</time>
      </trkpt>
      <trkpt lat="41.99877" lon="2.44542">
        <ele>643.2</ele>
        <time>2022-05-21 04:20:27</time>
      </trkpt>
      <trkpt lat="41.99878" lon="2.44544">
        <ele>643.2</ele>
        <time>2022-05-21 04:20:28</time>
      </trkpt>
      <trkpt lat="41.9988" lon="2.44546">
        <ele>643.4</ele>
        <time>2022-05-21 04:20:29</time>
      </trkpt>
      <trkpt lat="41.99881" lon="2.44548">
        <ele>643.6</ele>
        <time>2022-05-21 04:20:30</time>
      </trkpt>
      <trkpt lat="41.99882" lon="2.4455">
        <ele>643.8</ele>
        <time>2022-05-21 04:20:31</time>
      </trkpt>
      <trkpt lat="41.99884" lon="2.44552">
        <ele>643.8</ele>
        <time>2022-05-21 04:20:32</time>
      </trkpt>
      <trkpt lat="41.99885" lon="2.44554">
        <ele>644</ele>
        <time>2022-05-21 04:20:33</time>
      </trkpt>
      <trkpt lat="41.99886" lon="2.44556">
        <ele>644.2</ele>
        <time>2022-05-21 04:20:34</time>
      </trkpt>
      <trkpt lat="41.99888" lon="2.44558">
        <ele>644.2</ele>
        <time>2022-05-21 04:20:35</time>
      </trkpt>
      <trkpt lat="41.99889" lon="2.4456">
        <ele>644.4</ele>
        <time>2022-05-21 04:20:36</time>
      </trkpt>
      <trkpt lat="41.99891" lon="2.44561">
        <ele>644.4</ele>
        <time>2022-05-21 04:20:37</time>
      </trkpt>
      <trkpt lat="41.99892" lon="2.44563">
        <ele>644.6</ele>
        <time>2022-05-21 04:20:38</time>
      </trkpt>
      <trkpt lat="41.99894" lon="2.44564">
        <ele>644.8</ele>
        <time>2022-05-21 04:20:39</time>
      </trkpt>
      <trkpt lat="41.99895" lon="2.44565">
        <ele>644.8</ele>
        <time>2022-05-21 04:20:40</time>
      </trkpt>
      <trkpt lat="41.99897" lon="2.44566">
        <ele>645</ele>
        <time>2022-05-21 04:20:41</time>
      </trkpt>
      <trkpt lat="41.99899" lon="2.44568">
        <ele>645.2</ele>
        <time>2022-05-21 04:20:42</time>
      </trkpt>
      <trkpt lat="41.999" lon="2.44569">
        <ele>645.2</ele>
        <time>2022-05-21 04:20:43</time>
      </trkpt>
      <trkpt lat="41.99902" lon="2.44571">
        <ele>645.4</ele>
        <time>2022-05-21 04:20:44</time>
      </trkpt>
      <trkpt lat="41.99904" lon="2.44572">
        <ele>645.4</ele>
        <time>2022-05-21 04:20:45</time>
      </trkpt>
      <trkpt lat="41.99906" lon="2.44573">
        <ele>645.6</ele>
        <time>2022-05-21 04:20:46</time>
      </trkpt>
      <trkpt lat="41.99908" lon="2.44574">
        <ele>645.6</ele>
        <time>2022-05-21 04:20:47</time>
      </trkpt>
      <trkpt lat="41.9991" lon="2.44574">
        <ele>645.8</ele>
        <time>2022-05-21 04:20:48</time>
      </trkpt>
      <trkpt lat="41.99912" lon="2.44576">
        <ele>646</ele>
        <time>2022-05-21 04:20:49</time>
      </trkpt>
      <trkpt lat="41.99913" lon="2.44577">
        <ele>646</ele>
        <time>2022-05-21 04:20:50</time>
      </trkpt>
      <trkpt lat="41.99915" lon="2.44578">
        <ele>646.2</ele>
        <time>2022-05-21 04:20:51</time>
      </trkpt>
      <trkpt lat="41.99917" lon="2.4458">
        <ele>646.4</ele>
        <time>2022-05-21 04:20:52</time>
      </trkpt>
      <trkpt lat="41.99919" lon="2.44581">
        <ele>646.6</ele>
        <time>2022-05-21 04:20:53</time>
      </trkpt>
      <trkpt lat="41.9992" lon="2.44582">
        <ele>646.8</ele>
        <time>2022-05-21 04:20:54</time>
      </trkpt>
      <trkpt lat="41.99922" lon="2.44583">
        <ele>647</ele>
        <time>2022-05-21 04:20:55</time>
      </trkpt>
      <trkpt lat="41.99923" lon="2.44585">
        <ele>647</ele>
        <time>2022-05-21 04:20:56</time>
      </trkpt>
      <trkpt lat="41.99924" lon="2.44586">
        <ele>647.2</ele>
        <time>2022-05-21 04:20:57</time>
      </trkpt>
      <trkpt lat="41.99926" lon="2.44588">
        <ele>647.4</ele>
        <time>2022-05-21 04:20:58</time>
      </trkpt>
      <trkpt lat="41.99927" lon="2.4459">
        <ele>647.6</ele>
        <time>2022-05-21 04:20:59</time>
      </trkpt>
      <trkpt lat="41.99928" lon="2.44591">
        <ele>647.8</ele>
        <time>2022-05-21 04:21:00</time>
      </trkpt>
      <trkpt lat="41.99929" lon="2.44592">
        <ele>648</ele>
        <time>2022-05-21 04:21:01</time>
      </trkpt>
      <trkpt lat="41.99931" lon="2.44593">
        <ele>648</ele>
        <time>2022-05-21 04:21:02</time>
      </trkpt>
      <trkpt lat="41.99932" lon="2.44595">
        <ele>648.2</ele>
        <time>2022-05-21 04:21:03</time>
      </trkpt>
      <trkpt lat="41.99934" lon="2.44596">
        <ele>648.4</ele>
        <time>2022-05-21 04:21:04</time>
      </trkpt>
      <trkpt lat="41.99936" lon="2.44597">
        <ele>648.6</ele>
        <time>2022-05-21 04:21:05</time>
      </trkpt>
      <trkpt lat="41.99938" lon="2.44598">
        <ele>648.6</ele>
        <time>2022-05-21 04:21:06</time>
      </trkpt>
      <trkpt lat="41.9994" lon="2.44599">
        <ele>648.8</ele>
        <time>2022-05-21 04:21:07</time>
      </trkpt>
      <trkpt lat="41.99942" lon="2.446">
        <ele>649</ele>
        <time>2022-05-21 04:21:08</time>
      </trkpt>
      <trkpt lat="41.99944" lon="2.44602">
        <ele>649.2</ele>
        <time>2022-05-21 04:21:09</time>
      </trkpt>
      <trkpt lat="41.99945" lon="2.44604">
        <ele>649.2</ele>
        <time>2022-05-21 04:21:10</time>
      </trkpt>
      <trkpt lat="41.99947" lon="2.44606">
        <ele>649.4</ele>
        <time>2022-05-21 04:21:11</time>
      </trkpt>
      <trkpt lat="41.99949" lon="2.44608">
        <ele>649.6</ele>
        <time>2022-05-21 04:21:12</time>
      </trkpt>
      <trkpt lat="41.99951" lon="2.4461">
        <ele>649.6</ele>
        <time>2022-05-21 04:21:13</time>
      </trkpt>
      <trkpt lat="41.99952" lon="2.44612">
        <ele>649.8</ele>
        <time>2022-05-21 04:21:14</time>
      </trkpt>
      <trkpt lat="41.99953" lon="2.44614">
        <ele>650</ele>
        <time>2022-05-21 04:21:15</time>
      </trkpt>
      <trkpt lat="41.99955" lon="2.44616">
        <ele>650</ele>
        <time>2022-05-21 04:21:16</time>
      </trkpt>
      <trkpt lat="41.99956" lon="2.44618">
        <ele>650.2</ele>
        <time>2022-05-21 04:21:17</time>
      </trkpt>
      <trkpt lat="41.99957" lon="2.4462">
        <ele>650.4</ele>
        <time>2022-05-21 04:21:18</time>
      </trkpt>
      <trkpt lat="41.99958" lon="2.44623">
        <ele>650.6</ele>
        <time>2022-05-21 04:21:19</time>
      </trkpt>
      <trkpt lat="41.99959" lon="2.44626">
        <ele>650.6</ele>
        <time>2022-05-21 04:21:20</time>
      </trkpt>
      <trkpt lat="41.9996" lon="2.44628">
        <ele>650.8</ele>
        <time>2022-05-21 04:21:21</time>
      </trkpt>
      <trkpt lat="41.9996" lon="2.4463">
        <ele>651</ele>
        <time>2022-05-21 04:21:22</time>
      </trkpt>
      <trkpt lat="41.99961" lon="2.44632">
        <ele>651</ele>
        <time>2022-05-21 04:21:23</time>
      </trkpt>
      <trkpt lat="41.99962" lon="2.44634">
        <ele>651.2</ele>
        <time>2022-05-21 04:21:24</time>
      </trkpt>
      <trkpt lat="41.99963" lon="2.44636">
        <ele>651.4</ele>
        <time>2022-05-21 04:21:25</time>
      </trkpt>
      <trkpt lat="41.99964" lon="2.44638">
        <ele>651.6</ele>
        <time>2022-05-21 04:21:26</time>
      </trkpt>
      <trkpt lat="41.99965" lon="2.4464">
        <ele>651.6</ele>
        <time>2022-05-21 04:21:27</time>
      </trkpt>
      <trkpt lat="41.99966" lon="2.44642">
        <ele>651.8</ele>
        <time>2022-05-21 04:21:28</time>
      </trkpt>
      <trkpt lat="41.99967" lon="2.44644">
        <ele>652</ele>
        <time>2022-05-21 04:21:29</time>
      </trkpt>
      <trkpt lat="41.99968" lon="2.44646">
        <ele>652.2</ele>
        <time>2022-05-21 04:21:30</time>
      </trkpt>
      <trkpt lat="41.99969" lon="2.44647">
        <ele>652.2</ele>
        <time>2022-05-21 04:21:31</time>
      </trkpt>
      <trkpt lat="41.9997" lon="2.44649">
        <ele>652.4</ele>
        <time>2022-05-21 04:21:32</time>
      </trkpt>
      <trkpt lat="41.99971" lon="2.44651">
        <ele>652.6</ele>
        <time>2022-05-21 04:21:33</time>
      </trkpt>
      <trkpt lat="41.99972" lon="2.44653">
        <ele>652.6</ele>
        <time>2022-05-21 04:21:34</time>
      </trkpt>
      <trkpt lat="41.99973" lon="2.44655">
        <ele>652.8</ele>
        <time>2022-05-21 04:21:35</time>
      </trkpt>
      <trkpt lat="41.99974" lon="2.44657">
        <ele>652.8</ele>
        <time>2022-05-21 04:21:36</time>
      </trkpt>
      <trkpt lat="41.99975" lon="2.44659">
        <ele>653</ele>
        <time>2022-05-21 04:21:37</time>
      </trkpt>
      <trkpt lat="41.99976" lon="2.44661">
        <ele>653</ele>
        <time>2022-05-21 04:21:38</time>
      </trkpt>
      <trkpt lat="41.99977" lon="2.44663">
        <ele>653.2</ele>
        <time>2022-05-21 04:21:39</time>
      </trkpt>
      <trkpt lat="41.99978" lon="2.44665">
        <ele>653.2</ele>
        <time>2022-05-21 04:21:40</time>
      </trkpt>
      <trkpt lat="41.99979" lon="2.44667">
        <ele>653.4</ele>
        <time>2022-05-21 04:21:41</time>
      </trkpt>
      <trkpt lat="41.99979" lon="2.44669">
        <ele>653.4</ele>
        <time>2022-05-21 04:21:42</time>
      </trkpt>
      <trkpt lat="41.9998" lon="2.44671">
        <ele>653.6</ele>
        <time>2022-05-21 04:21:43</time>
      </trkpt>
      <trkpt lat="41.99981" lon="2.44673">
        <ele>653.6</ele>
        <time>2022-05-21 04:21:44</time>
      </trkpt>
      <trkpt lat="41.99982" lon="2.44676">
        <ele>653.6</ele>
        <time>2022-05-21 04:21:45</time>
      </trkpt>
      <trkpt lat="41.99982" lon="2.44678">
        <ele>653.8</ele>
        <time>2022-05-21 04:21:46</time>
      </trkpt>
      <trkpt lat="41.99984" lon="2.4468">
        <ele>653.8</ele>
        <time>2022-05-21 04:21:47</time>
      </trkpt>
      <trkpt lat="41.99984" lon="2.44682">
        <ele>654</ele>
        <time>2022-05-21 04:21:48</time>
      </trkpt>
      <trkpt lat="41.99986" lon="2.44684">
        <ele>654</ele>
        <time>2022-05-21 04:21:49</time>
      </trkpt>
      <trkpt lat="41.99987" lon="2.44686">
        <ele>654</ele>
        <time>2022-05-21 04:21:50</time>
      </trkpt>
      <trkpt lat="41.99987" lon="2.44689">
        <ele>654.2</ele>
        <time>2022-05-21 04:21:51</time>
      </trkpt>
      <trkpt lat="41.99988" lon="2.44691">
        <ele>654.2</ele>
        <time>2022-05-21 04:21:52</time>
      </trkpt>
      <trkpt lat="41.99989" lon="2.44694">
        <ele>654.2</ele>
        <time>2022-05-21 04:21:53</time>
      </trkpt>
      <trkpt lat="41.9999" lon="2.44696">
        <ele>654.4</ele>
        <time>2022-05-21 04:21:54</time>
      </trkpt>
      <trkpt lat="41.99992" lon="2.44698">
        <ele>654.4</ele>
        <time>2022-05-21 04:21:55</time>
      </trkpt>
      <trkpt lat="41.99993" lon="2.447">
        <ele>654.4</ele>
        <time>2022-05-21 04:21:56</time>
      </trkpt>
      <trkpt lat="41.99995" lon="2.44702">
        <ele>654.4</ele>
        <time>2022-05-21 04:21:57</time>
      </trkpt>
      <trkpt lat="41.99996" lon="2.44704">
        <ele>654.6</ele>
        <time>2022-05-21 04:21:58</time>
      </trkpt>
      <trkpt lat="41.99997" lon="2.44706">
        <ele>654.6</ele>
        <time>2022-05-21 04:21:59</time>
      </trkpt>
      <trkpt lat="41.99998" lon="2.44708">
        <ele>654.6</ele>
        <time>2022-05-21 04:22:00</time>
      </trkpt>
      <trkpt lat="41.99999" lon="2.4471">
        <ele>654.8</ele>
        <time>2022-05-21 04:22:01</time>
      </trkpt>
      <trkpt lat="42.00001" lon="2.44712">
        <ele>654.8</ele>
        <time>2022-05-21 04:22:02</time>
      </trkpt>
      <trkpt lat="42.00002" lon="2.44714">
        <ele>655</ele>
        <time>2022-05-21 04:22:03</time>
      </trkpt>
      <trkpt lat="42.00003" lon="2.44716">
        <ele>655</ele>
        <time>2022-05-21 04:22:04</time>
      </trkpt>
      <trkpt lat="42.00004" lon="2.44717">
        <ele>655.2</ele>
        <time>2022-05-21 04:22:05</time>
      </trkpt>
      <trkpt lat="42.00005" lon="2.44719">
        <ele>655.2</ele>
        <time>2022-05-21 04:22:06</time>
      </trkpt>
      <trkpt lat="42.00007" lon="2.44721">
        <ele>655.4</ele>
        <time>2022-05-21 04:22:07</time>
      </trkpt>
      <trkpt lat="42.00008" lon="2.44722">
        <ele>655.4</ele>
        <time>2022-05-21 04:22:08</time>
      </trkpt>
      <trkpt lat="42.0001" lon="2.44724">
        <ele>655.6</ele>
        <time>2022-05-21 04:22:09</time>
      </trkpt>
      <trkpt lat="42.00011" lon="2.44725">
        <ele>655.6</ele>
        <time>2022-05-21 04:22:10</time>
      </trkpt>
      <trkpt lat="42.00013" lon="2.44727">
        <ele>655.8</ele>
        <time>2022-05-21 04:22:11</time>
      </trkpt>
      <trkpt lat="42.00014" lon="2.44728">
        <ele>656</ele>
        <time>2022-05-21 04:22:12</time>
      </trkpt>
      <trkpt lat="42.00016" lon="2.4473">
        <ele>656.2</ele>
        <time>2022-05-21 04:22:13</time>
      </trkpt>
      <trkpt lat="42.00016" lon="2.44731">
        <ele>656.2</ele>
        <time>2022-05-21 04:22:14</time>
      </trkpt>
      <trkpt lat="42.00018" lon="2.44732">
        <ele>656.4</ele>
        <time>2022-05-21 04:22:15</time>
      </trkpt>
      <trkpt lat="42.00019" lon="2.44733">
        <ele>656.6</ele>
        <time>2022-05-21 04:22:16</time>
      </trkpt>
      <trkpt lat="42.0002" lon="2.44735">
        <ele>656.8</ele>
        <time>2022-05-21 04:22:17</time>
      </trkpt>
      <trkpt lat="42.00021" lon="2.44736">
        <ele>657</ele>
        <time>2022-05-21 04:22:18</time>
      </trkpt>
      <trkpt lat="42.00023" lon="2.44738">
        <ele>657</ele>
        <time>2022-05-21 04:22:19</time>
      </trkpt>
      <trkpt lat="42.00024" lon="2.4474">
        <ele>657.2</ele>
        <time>2022-05-21 04:22:20</time>
      </trkpt>
      <trkpt lat="42.00026" lon="2.44741">
        <ele>657.4</ele>
        <time>2022-05-21 04:22:21</time>
      </trkpt>
      <trkpt lat="42.00027" lon="2.44743">
        <ele>657.6</ele>
        <time>2022-05-21 04:22:22</time>
      </trkpt>
      <trkpt lat="42.00029" lon="2.44745">
        <ele>657.6</ele>
        <time>2022-05-21 04:22:23</time>
      </trkpt>
      <trkpt lat="42.00031" lon="2.44746">
        <ele>657.8</ele>
        <time>2022-05-21 04:22:24</time>
      </trkpt>
      <trkpt lat="42.00032" lon="2.44748">
        <ele>658</ele>
        <time>2022-05-21 04:22:25</time>
      </trkpt>
      <trkpt lat="42.00034" lon="2.4475">
        <ele>658.2</ele>
        <time>2022-05-21 04:22:26</time>
      </trkpt>
      <trkpt lat="42.00035" lon="2.44751">
        <ele>658.4</ele>
        <time>2022-05-21 04:22:27</time>
      </trkpt>
      <trkpt lat="42.00037" lon="2.44753">
        <ele>658.6</ele>
        <time>2022-05-21 04:22:28</time>
      </trkpt>
      <trkpt lat="42.00039" lon="2.44755">
        <ele>658.8</ele>
        <time>2022-05-21 04:22:29</time>
      </trkpt>
      <trkpt lat="42.0004" lon="2.44756">
        <ele>658.8</ele>
        <time>2022-05-21 04:22:30</time>
      </trkpt>
      <trkpt lat="42.00042" lon="2.44758">
        <ele>659</ele>
        <time>2022-05-21 04:22:31</time>
      </trkpt>
      <trkpt lat="42.00043" lon="2.4476">
        <ele>659.2</ele>
        <time>2022-05-21 04:22:32</time>
      </trkpt>
      <trkpt lat="42.00045" lon="2.44763">
        <ele>659.2</ele>
        <time>2022-05-21 04:22:33</time>
      </trkpt>
      <trkpt lat="42.00046" lon="2.44765">
        <ele>659.4</ele>
        <time>2022-05-21 04:22:34</time>
      </trkpt>
      <trkpt lat="42.00047" lon="2.44767">
        <ele>659.4</ele>
        <time>2022-05-21 04:22:35</time>
      </trkpt>
      <trkpt lat="42.00049" lon="2.4477">
        <ele>659.4</ele>
        <time>2022-05-21 04:22:36</time>
      </trkpt>
      <trkpt lat="42.00051" lon="2.44773">
        <ele>659.4</ele>
        <time>2022-05-21 04:22:37</time>
      </trkpt>
      <trkpt lat="42.00053" lon="2.44776">
        <ele>659.6</ele>
        <time>2022-05-21 04:22:38</time>
      </trkpt>
      <trkpt lat="42.00056" lon="2.44778">
        <ele>659.6</ele>
        <time>2022-05-21 04:22:39</time>
      </trkpt>
      <trkpt lat="42.00058" lon="2.4478">
        <ele>659.6</ele>
        <time>2022-05-21 04:22:40</time>
      </trkpt>
      <trkpt lat="42.00061" lon="2.44781">
        <ele>659.6</ele>
        <time>2022-05-21 04:22:41</time>
      </trkpt>
      <trkpt lat="42.00063" lon="2.44783">
        <ele>659.6</ele>
        <time>2022-05-21 04:22:42</time>
      </trkpt>
      <trkpt lat="42.00064" lon="2.44783">
        <ele>659.6</ele>
        <time>2022-05-21 04:22:43</time>
      </trkpt>
      <trkpt lat="42.00066" lon="2.44784">
        <ele>659.8</ele>
        <time>2022-05-21 04:22:44</time>
      </trkpt>
      <trkpt lat="42.00068" lon="2.44784">
        <ele>660</ele>
        <time>2022-05-21 04:22:45</time>
      </trkpt>
      <trkpt lat="42.00069" lon="2.44785">
        <ele>660</ele>
        <time>2022-05-21 04:22:46</time>
      </trkpt>
      <trkpt lat="42.0007" lon="2.44786">
        <ele>660.2</ele>
        <time>2022-05-21 04:22:47</time>
      </trkpt>
      <trkpt lat="42.00071" lon="2.44787">
        <ele>660.4</ele>
        <time>2022-05-21 04:22:48</time>
      </trkpt>
      <trkpt lat="42.00073" lon="2.44788">
        <ele>660.6</ele>
        <time>2022-05-21 04:22:49</time>
      </trkpt>
      <trkpt lat="42.00074" lon="2.44788">
        <ele>660.8</ele>
        <time>2022-05-21 04:22:50</time>
      </trkpt>
      <trkpt lat="42.00076" lon="2.44789">
        <ele>661</ele>
        <time>2022-05-21 04:22:51</time>
      </trkpt>
      <trkpt lat="42.00077" lon="2.4479">
        <ele>661.2</ele>
        <time>2022-05-21 04:22:52</time>
      </trkpt>
      <trkpt lat="42.00079" lon="2.44791">
        <ele>661.2</ele>
        <time>2022-05-21 04:22:53</time>
      </trkpt>
      <trkpt lat="42.00081" lon="2.44793">
        <ele>661.2</ele>
        <time>2022-05-21 04:22:54</time>
      </trkpt>
      <trkpt lat="42.00083" lon="2.44794">
        <ele>661.4</ele>
        <time>2022-05-21 04:22:55</time>
      </trkpt>
      <trkpt lat="42.00085" lon="2.44795">
        <ele>661.4</ele>
        <time>2022-05-21 04:22:56</time>
      </trkpt>
      <trkpt lat="42.00087" lon="2.44795">
        <ele>661.6</ele>
        <time>2022-05-21 04:22:57</time>
      </trkpt>
      <trkpt lat="42.00088" lon="2.44796">
        <ele>661.6</ele>
        <time>2022-05-21 04:22:58</time>
      </trkpt>
      <trkpt lat="42.0009" lon="2.44796">
        <ele>661.8</ele>
        <time>2022-05-21 04:22:59</time>
      </trkpt>
      <trkpt lat="42.00091" lon="2.44797">
        <ele>662</ele>
        <time>2022-05-21 04:23:00</time>
      </trkpt>
      <trkpt lat="42.00092" lon="2.44798">
        <ele>662.2</ele>
        <time>2022-05-21 04:23:01</time>
      </trkpt>
      <trkpt lat="42.00093" lon="2.44799">
        <ele>662.4</ele>
        <time>2022-05-21 04:23:02</time>
      </trkpt>
      <trkpt lat="42.00095" lon="2.44801">
        <ele>662.6</ele>
        <time>2022-05-21 04:23:03</time>
      </trkpt>
      <trkpt lat="42.00096" lon="2.44802">
        <ele>662.8</ele>
        <time>2022-05-21 04:23:04</time>
      </trkpt>
      <trkpt lat="42.00098" lon="2.44805">
        <ele>662.8</ele>
        <time>2022-05-21 04:23:05</time>
      </trkpt>
      <trkpt lat="42.00099" lon="2.44809">
        <ele>662.8</ele>
        <time>2022-05-21 04:23:06</time>
      </trkpt>
      <trkpt lat="42.00101" lon="2.44813">
        <ele>662.8</ele>
        <time>2022-05-21 04:23:07</time>
      </trkpt>
      <trkpt lat="42.00102" lon="2.44818">
        <ele>662.8</ele>
        <time>2022-05-21 04:23:08</time>
      </trkpt>
      <trkpt lat="42.00103" lon="2.44821">
        <ele>663</ele>
        <time>2022-05-21 04:23:09</time>
      </trkpt>
      <trkpt lat="42.00103" lon="2.44825">
        <ele>663</ele>
        <time>2022-05-21 04:23:10</time>
      </trkpt>
      <trkpt lat="42.00102" lon="2.44827">
        <ele>663.2</ele>
        <time>2022-05-21 04:23:11</time>
      </trkpt>
      <trkpt lat="42.00102" lon="2.4483">
        <ele>663.4</ele>
        <time>2022-05-21 04:23:12</time>
      </trkpt>
      <trkpt lat="42.00103" lon="2.44832">
        <ele>663.6</ele>
        <time>2022-05-21 04:23:13</time>
      </trkpt>
      <trkpt lat="42.00102" lon="2.44834">
        <ele>663.8</ele>
        <time>2022-05-21 04:23:14</time>
      </trkpt>
      <trkpt lat="42.00102" lon="2.44836">
        <ele>664</ele>
        <time>2022-05-21 04:23:15</time>
      </trkpt>
      <trkpt lat="42.00102" lon="2.44838">
        <ele>664.2</ele>
        <time>2022-05-21 04:23:16</time>
      </trkpt>
      <trkpt lat="42.00102" lon="2.4484">
        <ele>664.4</ele>
        <time>2022-05-21 04:23:17</time>
      </trkpt>
      <trkpt lat="42.00101" lon="2.44843">
        <ele>664.6</ele>
        <time>2022-05-21 04:23:18</time>
      </trkpt>
      <trkpt lat="42.00101" lon="2.44845">
        <ele>664.8</ele>
        <time>2022-05-21 04:23:19</time>
      </trkpt>
      <trkpt lat="42.00101" lon="2.44848">
        <ele>665.2</ele>
        <time>2022-05-21 04:23:20</time>
      </trkpt>
      <trkpt lat="42.001" lon="2.4485">
        <ele>665.4</ele>
        <time>2022-05-21 04:23:21</time>
      </trkpt>
      <trkpt lat="42.001" lon="2.44852">
        <ele>665.6</ele>
        <time>2022-05-21 04:23:22</time>
      </trkpt>
      <trkpt lat="42.001" lon="2.44854">
        <ele>665.8</ele>
        <time>2022-05-21 04:23:23</time>
      </trkpt>
      <trkpt lat="42.001" lon="2.44856">
        <ele>666.2</ele>
        <time>2022-05-21 04:23:24</time>
      </trkpt>
      <trkpt lat="42.001" lon="2.44858">
        <ele>666.4</ele>
        <time>2022-05-21 04:23:25</time>
      </trkpt>
      <trkpt lat="42.001" lon="2.44859">
        <ele>666.6</ele>
        <time>2022-05-21 04:23:26</time>
      </trkpt>
      <trkpt lat="42.001" lon="2.44862">
        <ele>666.8</ele>
        <time>2022-05-21 04:23:27</time>
      </trkpt>
      <trkpt lat="42.001" lon="2.44864">
        <ele>667</ele>
        <time>2022-05-21 04:23:28</time>
      </trkpt>
      <trkpt lat="42.00099" lon="2.44867">
        <ele>667.2</ele>
        <time>2022-05-21 04:23:29</time>
      </trkpt>
      <trkpt lat="42.00099" lon="2.44869">
        <ele>667.4</ele>
        <time>2022-05-21 04:23:30</time>
      </trkpt>
      <trkpt lat="42.00099" lon="2.44873">
        <ele>667.6</ele>
        <time>2022-05-21 04:23:31</time>
      </trkpt>
      <trkpt lat="42.001" lon="2.44876">
        <ele>667.8</ele>
        <time>2022-05-21 04:23:32</time>
      </trkpt>
      <trkpt lat="42.001" lon="2.44879">
        <ele>668</ele>
        <time>2022-05-21 04:23:33</time>
      </trkpt>
      <trkpt lat="42.00099" lon="2.44882">
        <ele>668.2</ele>
        <time>2022-05-21 04:23:34</time>
      </trkpt>
      <trkpt lat="42.00099" lon="2.44885">
        <ele>668.4</ele>
        <time>2022-05-21 04:23:35</time>
      </trkpt>
      <trkpt lat="42.00098" lon="2.44888">
        <ele>668.6</ele>
        <time>2022-05-21 04:23:36</time>
      </trkpt>
      <trkpt lat="42.00098" lon="2.44891">
        <ele>668.6</ele>
        <time>2022-05-21 04:23:37</time>
      </trkpt>
      <trkpt lat="42.00098" lon="2.44894">
        <ele>668.8</ele>
        <time>2022-05-21 04:23:38</time>
      </trkpt>
      <trkpt lat="42.00098" lon="2.44898">
        <ele>669</ele>
        <time>2022-05-21 04:23:39</time>
      </trkpt>
      <trkpt lat="42.00098" lon="2.44901">
        <ele>669.2</ele>
        <time>2022-05-21 04:23:40</time>
      </trkpt>
      <trkpt lat="42.00097" lon="2.44905">
        <ele>669.2</ele>
        <time>2022-05-21 04:23:41</time>
      </trkpt>
      <trkpt lat="42.00098" lon="2.44909">
        <ele>669.2</ele>
        <time>2022-05-21 04:23:42</time>
      </trkpt>
      <trkpt lat="42.00098" lon="2.44913">
        <ele>669.2</ele>
        <time>2022-05-21 04:23:43</time>
      </trkpt>
      <trkpt lat="42.00097" lon="2.44917">
        <ele>669.2</ele>
        <time>2022-05-21 04:23:44</time>
      </trkpt>
      <trkpt lat="42.00097" lon="2.44922">
        <ele>669.2</ele>
        <time>2022-05-21 04:23:45</time>
      </trkpt>
      <trkpt lat="42.00096" lon="2.44926">
        <ele>669.2</ele>
        <time>2022-05-21 04:23:46</time>
      </trkpt>
      <trkpt lat="42.00095" lon="2.4493">
        <ele>669.2</ele>
        <time>2022-05-21 04:23:47</time>
      </trkpt>
      <trkpt lat="42.00094" lon="2.44932">
        <ele>669.2</ele>
        <time>2022-05-21 04:23:48</time>
      </trkpt>
      <trkpt lat="42.00092" lon="2.44934">
        <ele>669.4</ele>
        <time>2022-05-21 04:23:49</time>
      </trkpt>
      <trkpt lat="42.0009" lon="2.44935">
        <ele>669.4</ele>
        <time>2022-05-21 04:23:50</time>
      </trkpt>
      <trkpt lat="42.00089" lon="2.44937">
        <ele>669.4</ele>
        <time>2022-05-21 04:23:51</time>
      </trkpt>
      <trkpt lat="42.00087" lon="2.44938">
        <ele>669.6</ele>
        <time>2022-05-21 04:23:52</time>
      </trkpt>
      <trkpt lat="42.00085" lon="2.44939">
        <ele>669.8</ele>
        <time>2022-05-21 04:23:53</time>
      </trkpt>
      <trkpt lat="42.00084" lon="2.4494">
        <ele>670</ele>
        <time>2022-05-21 04:23:54</time>
      </trkpt>
      <trkpt lat="42.00083" lon="2.44942">
        <ele>670</ele>
        <time>2022-05-21 04:23:55</time>
      </trkpt>
      <trkpt lat="42.00081" lon="2.44943">
        <ele>670.2</ele>
        <time>2022-05-21 04:23:56</time>
      </trkpt>
      <trkpt lat="42.0008" lon="2.44945">
        <ele>670.6</ele>
        <time>2022-05-21 04:23:57</time>
      </trkpt>
      <trkpt lat="42.00078" lon="2.44946">
        <ele>670.8</ele>
        <time>2022-05-21 04:23:58</time>
      </trkpt>
      <trkpt lat="42.00077" lon="2.44947">
        <ele>670.8</ele>
        <time>2022-05-21 04:23:59</time>
      </trkpt>
      <trkpt lat="42.00076" lon="2.44949">
        <ele>671</ele>
        <time>2022-05-21 04:24:00</time>
      </trkpt>
      <trkpt lat="42.00075" lon="2.4495">
        <ele>671.2</ele>
        <time>2022-05-21 04:24:01</time>
      </trkpt>
      <trkpt lat="42.00074" lon="2.44952">
        <ele>671.4</ele>
        <time>2022-05-21 04:24:02</time>
      </trkpt>
      <trkpt lat="42.00073" lon="2.44954">
        <ele>671.6</ele>
        <time>2022-05-21 04:24:03</time>
      </trkpt>
      <trkpt lat="42.00072" lon="2.44956">
        <ele>671.8</ele>
        <time>2022-05-21 04:24:04</time>
      </trkpt>
      <trkpt lat="42.00071" lon="2.44958">
        <ele>672</ele>
        <time>2022-05-21 04:24:05</time>
      </trkpt>
      <trkpt lat="42.00071" lon="2.4496">
        <ele>672.2</ele>
        <time>2022-05-21 04:24:06</time>
      </trkpt>
      <trkpt lat="42.00069" lon="2.44961">
        <ele>672.4</ele>
        <time>2022-05-21 04:24:07</time>
      </trkpt>
      <trkpt lat="42.00068" lon="2.44963">
        <ele>672.6</ele>
        <time>2022-05-21 04:24:08</time>
      </trkpt>
      <trkpt lat="42.00067" lon="2.44965">
        <ele>672.8</ele>
        <time>2022-05-21 04:24:09</time>
      </trkpt>
      <trkpt lat="42.00066" lon="2.44967">
        <ele>673</ele>
        <time>2022-05-21 04:24:10</time>
      </trkpt>
      <trkpt lat="42.00065" lon="2.44969">
        <ele>673.2</ele>
        <time>2022-05-21 04:24:11</time>
      </trkpt>
      <trkpt lat="42.00064" lon="2.44971">
        <ele>673.4</ele>
        <time>2022-05-21 04:24:12</time>
      </trkpt>
      <trkpt lat="42.00063" lon="2.44973">
        <ele>673.6</ele>
        <time>2022-05-21 04:24:13</time>
      </trkpt>
      <trkpt lat="42.00061" lon="2.44976">
        <ele>673.8</ele>
        <time>2022-05-21 04:24:14</time>
      </trkpt>
      <trkpt lat="42.0006" lon="2.44978">
        <ele>674.2</ele>
        <time>2022-05-21 04:24:15</time>
      </trkpt>
      <trkpt lat="42.00059" lon="2.4498">
        <ele>674.4</ele>
        <time>2022-05-21 04:24:16</time>
      </trkpt>
      <trkpt lat="42.00058" lon="2.44981">
        <ele>674.6</ele>
        <time>2022-05-21 04:24:17</time>
      </trkpt>
      <trkpt lat="42.00056" lon="2.44983">
        <ele>674.8</ele>
        <time>2022-05-21 04:24:18</time>
      </trkpt>
      <trkpt lat="42.00055" lon="2.44984">
        <ele>675</ele>
        <time>2022-05-21 04:24:19</time>
      </trkpt>
      <trkpt lat="42.00053" lon="2.44986">
        <ele>675.2</ele>
        <time>2022-05-21 04:24:20</time>
      </trkpt>
      <trkpt lat="42.00052" lon="2.44988">
        <ele>675.2</ele>
        <time>2022-05-21 04:24:21</time>
      </trkpt>
      <trkpt lat="42.00051" lon="2.4499">
        <ele>675.4</ele>
        <time>2022-05-21 04:24:22</time>
      </trkpt>
      <trkpt lat="42.0005" lon="2.44992">
        <ele>675.6</ele>
        <time>2022-05-21 04:24:23</time>
      </trkpt>
      <trkpt lat="42.00049" lon="2.44994">
        <ele>675.6</ele>
        <time>2022-05-21 04:24:24</time>
      </trkpt>
      <trkpt lat="42.00047" lon="2.44996">
        <ele>675.8</ele>
        <time>2022-05-21 04:24:25</time>
      </trkpt>
      <trkpt lat="42.00046" lon="2.44997">
        <ele>675.8</ele>
        <time>2022-05-21 04:24:26</time>
      </trkpt>
      <trkpt lat="42.00044" lon="2.44999">
        <ele>676</ele>
        <time>2022-05-21 04:24:27</time>
      </trkpt>
      <trkpt lat="42.00042" lon="2.45001">
        <ele>676.2</ele>
        <time>2022-05-21 04:24:28</time>
      </trkpt>
      <trkpt lat="42.0004" lon="2.45002">
        <ele>676.2</ele>
        <time>2022-05-21 04:24:29</time>
      </trkpt>
      <trkpt lat="42.00037" lon="2.45003">
        <ele>676.4</ele>
        <time>2022-05-21 04:24:30</time>
      </trkpt>
      <trkpt lat="42.00035" lon="2.45004">
        <ele>676.6</ele>
        <time>2022-05-21 04:24:31</time>
      </trkpt>
      <trkpt lat="42.00032" lon="2.45005">
        <ele>676.6</ele>
        <time>2022-05-21 04:24:32</time>
      </trkpt>
      <trkpt lat="42.00031" lon="2.45005">
        <ele>676.8</ele>
        <time>2022-05-21 04:24:33</time>
      </trkpt>
      <trkpt lat="42.00028" lon="2.45006">
        <ele>676.8</ele>
        <time>2022-05-21 04:24:34</time>
      </trkpt>
      <trkpt lat="42.00026" lon="2.45006">
        <ele>677</ele>
        <time>2022-05-21 04:24:35</time>
      </trkpt>
      <trkpt lat="42.00024" lon="2.45006">
        <ele>677</ele>
        <time>2022-05-21 04:24:36</time>
      </trkpt>
      <trkpt lat="42.00022" lon="2.45007">
        <ele>677.2</ele>
        <time>2022-05-21 04:24:37</time>
      </trkpt>
      <trkpt lat="42.00019" lon="2.45007">
        <ele>677.2</ele>
        <time>2022-05-21 04:24:38</time>
      </trkpt>
      <trkpt lat="42.00018" lon="2.45007">
        <ele>677.4</ele>
        <time>2022-05-21 04:24:39</time>
      </trkpt>
      <trkpt lat="42.00016" lon="2.45007">
        <ele>677.6</ele>
        <time>2022-05-21 04:24:40</time>
      </trkpt>
      <trkpt lat="42.00014" lon="2.45006">
        <ele>677.6</ele>
        <time>2022-05-21 04:24:41</time>
      </trkpt>
      <trkpt lat="42.00012" lon="2.45006">
        <ele>677.8</ele>
        <time>2022-05-21 04:24:42</time>
      </trkpt>
      <trkpt lat="42.0001" lon="2.45006">
        <ele>678</ele>
        <time>2022-05-21 04:24:43</time>
      </trkpt>
      <trkpt lat="42.00008" lon="2.45005">
        <ele>678</ele>
        <time>2022-05-21 04:24:44</time>
      </trkpt>
      <trkpt lat="42.00006" lon="2.45004">
        <ele>678.2</ele>
        <time>2022-05-21 04:24:45</time>
      </trkpt>
      <trkpt lat="42.00004" lon="2.45003">
        <ele>678.4</ele>
        <time>2022-05-21 04:24:46</time>
      </trkpt>
      <trkpt lat="42.00003" lon="2.45002">
        <ele>678.4</ele>
        <time>2022-05-21 04:24:47</time>
      </trkpt>
      <trkpt lat="42.00001" lon="2.45001">
        <ele>678.6</ele>
        <time>2022-05-21 04:24:48</time>
      </trkpt>
      <trkpt lat="42" lon="2.45">
        <ele>678.8</ele>
        <time>2022-05-21 04:24:49</time>
      </trkpt>
      <trkpt lat="41.99998" lon="2.44999">
        <ele>679</ele>
        <time>2022-05-21 04:24:50</time>
      </trkpt>
      <trkpt lat="41.99997" lon="2.44997">
        <ele>679.2</ele>
        <time>2022-05-21 04:24:51</time>
      </trkpt>
      <trkpt lat="41.99995" lon="2.44996">
        <ele>679.4</ele>
        <time>2022-05-21 04:24:52</time>
      </trkpt>
      <trkpt lat="41.99994" lon="2.44995">
        <ele>679.6</ele>
        <time>2022-05-21 04:24:53</time>
      </trkpt>
      <trkpt lat="41.99992" lon="2.44994">
        <ele>679.8</ele>
        <time>2022-05-21 04:24:54</time>
      </trkpt>
      <trkpt lat="41.9999" lon="2.44993">
        <ele>680</ele>
        <time>2022-05-21 04:24:55</time>
      </trkpt>
      <trkpt lat="41.99989" lon="2.44993">
        <ele>680.2</ele>
        <time>2022-05-21 04:24:56</time>
      </trkpt>
      <trkpt lat="41.99987" lon="2.44993">
        <ele>680.2</ele>
        <time>2022-05-21 04:24:57</time>
      </trkpt>
      <trkpt lat="41.99986" lon="2.44993">
        <ele>680.4</ele>
        <time>2022-05-21 04:24:58</time>
      </trkpt>
      <trkpt lat="41.99984" lon="2.44993">
        <ele>680.6</ele>
        <time>2022-05-21 04:24:59</time>
      </trkpt>
      <trkpt lat="41.99982" lon="2.44993">
        <ele>680.8</ele>
        <time>2022-05-21 04:25:00</time>
      </trkpt>
      <trkpt lat="41.9998" lon="2.44994">
        <ele>681</ele>
        <time>2022-05-21 04:25:01</time>
      </trkpt>
      <trkpt lat="41.99979" lon="2.44996">
        <ele>681.2</ele>
        <time>2022-05-21 04:25:02</time>
      </trkpt>
      <trkpt lat="41.99978" lon="2.44997">
        <ele>681.2</ele>
        <time>2022-05-21 04:25:03</time>
      </trkpt>
      <trkpt lat="41.99978" lon="2.44999">
        <ele>681.4</ele>
        <time>2022-05-21 04:25:04</time>
      </trkpt>
      <trkpt lat="41.99977" lon="2.45001">
        <ele>681.6</ele>
        <time>2022-05-21 04:25:05</time>
      </trkpt>
      <trkpt lat="41.99977" lon="2.45004">
        <ele>681.8</ele>
        <time>2022-05-21 04:25:06</time>
      </trkpt>
      <trkpt lat="41.99977" lon="2.45006">
        <ele>682</ele>
        <time>2022-05-21 04:25:07</time>
      </trkpt>
      <trkpt lat="41.99977" lon="2.45008">
        <ele>682.2</ele>
        <time>2022-05-21 04:25:08</time>
      </trkpt>
      <trkpt lat="41.99977" lon="2.45009">
        <ele>682.4</ele>
        <time>2022-05-21 04:25:09</time>
      </trkpt>
      <trkpt lat="41.99977" lon="2.45011">
        <ele>682.6</ele>
        <time>2022-05-21 04:25:10</time>
      </trkpt>
      <trkpt lat="41.99977" lon="2.45014">
        <ele>682.8</ele>
        <time>2022-05-21 04:25:11</time>
      </trkpt>
      <trkpt lat="41.99977" lon="2.45016">
        <ele>683</ele>
        <time>2022-05-21 04:25:12</time>
      </trkpt>
      <trkpt lat="41.99977" lon="2.45018">
        <ele>683.2</ele>
        <time>2022-05-21 04:25:13</time>
      </trkpt>
      <trkpt lat="41.99977" lon="2.4502">
        <ele>683.6</ele>
        <time>2022-05-21 04:25:14</time>
      </trkpt>
      <trkpt lat="41.99978" lon="2.45022">
        <ele>683.8</ele>
        <time>2022-05-21 04:25:15</time>
      </trkpt>
      <trkpt lat="41.99979" lon="2.45024">
        <ele>684</ele>
        <time>2022-05-21 04:25:16</time>
      </trkpt>
      <trkpt lat="41.99979" lon="2.45026">
        <ele>684.2</ele>
        <time>2022-05-21 04:25:17</time>
      </trkpt>
      <trkpt lat="41.9998" lon="2.45029">
        <ele>684.4</ele>
        <time>2022-05-21 04:25:18</time>
      </trkpt>
      <trkpt lat="41.99981" lon="2.4503">
        <ele>684.6</ele>
        <time>2022-05-21 04:25:19</time>
      </trkpt>
      <trkpt lat="41.99982" lon="2.45032">
        <ele>684.8</ele>
        <time>2022-05-21 04:25:20</time>
      </trkpt>
      <trkpt lat="41.99983" lon="2.45034">
        <ele>685</ele>
        <time>2022-05-21 04:25:21</time>
      </trkpt>
      <trkpt lat="41.99984" lon="2.45035">
        <ele>685.2</ele>
        <time>2022-05-21 04:25:22</time>
      </trkpt>
      <trkpt lat="41.99985" lon="2.45037">
        <ele>685.4</ele>
        <time>2022-05-21 04:25:23</time>
      </trkpt>
      <trkpt lat="41.99986" lon="2.45038">
        <ele>685.6</ele>
        <time>2022-05-21 04:25:24</time>
      </trkpt>
      <trkpt lat="41.99987" lon="2.4504">
        <ele>685.8</ele>
        <time>2022-05-21 04:25:25</time>
      </trkpt>
      <trkpt lat="41.99989" lon="2.45041">
        <ele>686</ele>
        <time>2022-05-21 04:25:26</time>
      </trkpt>
      <trkpt lat="41.9999" lon="2.45042">
        <ele>686.2</ele>
        <time>2022-05-21 04:25:27</time>
      </trkpt>
      <trkpt lat="41.99991" lon="2.45042">
        <ele>686.4</ele>
        <time>2022-05-21 04:25:28</time>
      </trkpt>
      <trkpt lat="41.99993" lon="2.45043">
        <ele>686.6</ele>
        <time>2022-05-21 04:25:29</time>
      </trkpt>
      <trkpt lat="41.99994" lon="2.45044">
        <ele>686.8</ele>
        <time>2022-05-21 04:25:30</time>
      </trkpt>
      <trkpt lat="41.99995" lon="2.45045">
        <ele>687</ele>
        <time>2022-05-21 04:25:31</time>
      </trkpt>
      <trkpt lat="41.99997" lon="2.45046">
        <ele>687.2</ele>
        <time>2022-05-21 04:25:32</time>
      </trkpt>
      <trkpt lat="41.99998" lon="2.45049">
        <ele>687.2</ele>
        <time>2022-05-21 04:25:33</time>
      </trkpt>
      <trkpt lat="41.99998" lon="2.45051">
        <ele>687.4</ele>
        <time>2022-05-21 04:25:34</time>
      </trkpt>
      <trkpt lat="42" lon="2.45053">
        <ele>687.4</ele>
        <time>2022-05-21 04:25:35</time>
      </trkpt>
      <trkpt lat="42" lon="2.45056">
        <ele>687.6</ele>
        <time>2022-05-21 04:25:36</time>
      </trkpt>
      <trkpt lat="42.00001" lon="2.45059">
        <ele>687.6</ele>
        <time>2022-05-21 04:25:37</time>
      </trkpt>
      <trkpt lat="42.00002" lon="2.45062">
        <ele>687.8</ele>
        <time>2022-05-21 04:25:38</time>
      </trkpt>
      <trkpt lat="42.00002" lon="2.45064">
        <ele>687.8</ele>
        <time>2022-05-21 04:25:39</time>
      </trkpt>
      <trkpt lat="42.00003" lon="2.45067">
        <ele>688</ele>
        <time>2022-05-21 04:25:40</time>
      </trkpt>
      <trkpt lat="42.00003" lon="2.45069">
        <ele>688</ele>
        <time>2022-05-21 04:25:41</time>
      </trkpt>
      <trkpt lat="42.00003" lon="2.45071">
        <ele>688.2</ele>
        <time>2022-05-21 04:25:42</time>
      </trkpt>
      <trkpt lat="42.00003" lon="2.45073">
        <ele>688.2</ele>
        <time>2022-05-21 04:25:43</time>
      </trkpt>
      <trkpt lat="42.00003" lon="2.45076">
        <ele>688.4</ele>
        <time>2022-05-21 04:25:44</time>
      </trkpt>
      <trkpt lat="42.00003" lon="2.45079">
        <ele>688.4</ele>
        <time>2022-05-21 04:25:45</time>
      </trkpt>
      <trkpt lat="42.00003" lon="2.45081">
        <ele>688.6</ele>
        <time>2022-05-21 04:25:46</time>
      </trkpt>
      <trkpt lat="42.00004" lon="2.45084">
        <ele>688.6</ele>
        <time>2022-05-21 04:25:47</time>
      </trkpt>
      <trkpt lat="42.00005" lon="2.45087">
        <ele>688.6</ele>
        <time>2022-05-21 04:25:48</time>
      </trkpt>
      <trkpt lat="42.00005" lon="2.4509">
        <ele>688.6</ele>
        <time>2022-05-21 04:25:49</time>
      </trkpt>
      <trkpt lat="42.00006" lon="2.45092">
        <ele>688.8</ele>
        <time>2022-05-21 04:25:50</time>
      </trkpt>
      <trkpt lat="42.00007" lon="2.45095">
        <ele>688.8</ele>
        <time>2022-05-21 04:25:51</time>
      </trkpt>
      <trkpt lat="42.00008" lon="2.45098">
        <ele>688.8</ele>
        <time>2022-05-21 04:25:52</time>
      </trkpt>
      <trkpt lat="42.0001" lon="2.451">
        <ele>688.8</ele>
        <time>2022-05-21 04:25:53</time>
      </trkpt>
      <trkpt lat="42.00012" lon="2.45102">
        <ele>688.8</ele>
        <time>2022-05-21 04:25:54</time>
      </trkpt>
      <trkpt lat="42.00015" lon="2.45104">
        <ele>688.8</ele>
        <time>2022-05-21 04:25:55</time>
      </trkpt>
      <trkpt lat="42.00017" lon="2.45106">
        <ele>688.8</ele>
        <time>2022-05-21 04:25:56</time>
      </trkpt>
      <trkpt lat="42.00019" lon="2.45108">
        <ele>688.8</ele>
        <time>2022-05-21 04:25:57</time>
      </trkpt>
      <trkpt lat="42.00021" lon="2.45111">
        <ele>688.8</ele>
        <time>2022-05-21 04:25:58</time>
      </trkpt>
      <trkpt lat="42.00023" lon="2.45112">
        <ele>688.8</ele>
        <time>2022-05-21 04:25:59</time>
      </trkpt>
      <trkpt lat="42.00025" lon="2.45114">
        <ele>688.8</ele>
        <time>2022-05-21 04:26:00</time>
      </trkpt>
      <trkpt lat="42.00027" lon="2.45116">
        <ele>688.8</ele>
        <time>2022-05-21 04:26:01</time>
      </trkpt>
      <trkpt lat="42.00029" lon="2.45119">
        <ele>689</ele>
        <time>2022-05-21 04:26:02</time>
      </trkpt>
      <trkpt lat="42.00032" lon="2.45121">
        <ele>689</ele>
        <time>2022-05-21 04:26:03</time>
      </trkpt>
      <trkpt lat="42.00034" lon="2.45124">
        <ele>689</ele>
        <time>2022-05-21 04:26:04</time>
      </trkpt>
      <trkpt lat="42.00037" lon="2.45126">
        <ele>689.2</ele>
        <time>2022-05-21 04:26:05</time>
      </trkpt>
      <trkpt lat="42.00039" lon="2.45129">
        <ele>689.2</ele>
        <time>2022-05-21 04:26:06</time>
      </trkpt>
      <trkpt lat="42.0004" lon="2.45131">
        <ele>689.4</ele>
        <time>2022-05-21 04:26:07</time>
      </trkpt>
      <trkpt lat="42.00042" lon="2.45133">
        <ele>689.4</ele>
        <time>2022-05-21 04:26:08</time>
      </trkpt>
      <trkpt lat="42.00045" lon="2.45136">
        <ele>689.6</ele>
        <time>2022-05-21 04:26:09</time>
      </trkpt>
      <trkpt lat="42.00047" lon="2.45138">
        <ele>689.6</ele>
        <time>2022-05-21 04:26:10</time>
      </trkpt>
      <trkpt lat="42.00049" lon="2.45141">
        <ele>689.8</ele>
        <time>2022-05-21 04:26:11</time>
      </trkpt>
      <trkpt lat="42.00051" lon="2.45144">
        <ele>690</ele>
        <time>2022-05-21 04:26:12</time>
      </trkpt>
      <trkpt lat="42.00053" lon="2.45147">
        <ele>690</ele>
        <time>2022-05-21 04:26:13</time>
      </trkpt>
      <trkpt lat="42.00055" lon="2.45151">
        <ele>690.2</ele>
        <time>2022-05-21 04:26:14</time>
      </trkpt>
      <trkpt lat="42.00055" lon="2.45155">
        <ele>690.4</ele>
        <time>2022-05-21 04:26:15</time>
      </trkpt>
      <trkpt lat="42.00055" lon="2.45158">
        <ele>690.4</ele>
        <time>2022-05-21 04:26:16</time>
      </trkpt>
      <trkpt lat="42.00055" lon="2.45162">
        <ele>690.6</ele>
        <time>2022-05-21 04:26:17</time>
      </trkpt>
      <trkpt lat="42.00055" lon="2.45165">
        <ele>690.6</ele>
        <time>2022-05-21 04:26:18</time>
      </trkpt>
      <trkpt lat="42.00055" lon="2.45168">
        <ele>690.8</ele>
        <time>2022-05-21 04:26:19</time>
      </trkpt>
      <trkpt lat="42.00054" lon="2.4517">
        <ele>691</ele>
        <time>2022-05-21 04:26:20</time>
      </trkpt>
      <trkpt lat="42.00054" lon="2.45172">
        <ele>691.2</ele>
        <time>2022-05-21 04:26:21</time>
      </trkpt>
      <trkpt lat="42.00054" lon="2.45174">
        <ele>691.4</ele>
        <time>2022-05-21 04:26:22</time>
      </trkpt>
      <trkpt lat="42.00053" lon="2.45175">
        <ele>691.6</ele>
        <time>2022-05-21 04:26:23</time>
      </trkpt>
      <trkpt lat="42.00053" lon="2.45176">
        <ele>691.8</ele>
        <time>2022-05-21 04:26:24</time>
      </trkpt>
      <trkpt lat="42.00052" lon="2.45178">
        <ele>692</ele>
        <time>2022-05-21 04:26:25</time>
      </trkpt>
      <trkpt lat="42.0005" lon="2.45179">
        <ele>692.2</ele>
        <time>2022-05-21 04:26:26</time>
      </trkpt>
      <trkpt lat="42.00049" lon="2.45181">
        <ele>692.4</ele>
        <time>2022-05-21 04:26:27</time>
      </trkpt>
      <trkpt lat="42.00047" lon="2.45184">
        <ele>692.4</ele>
        <time>2022-05-21 04:26:28</time>
      </trkpt>
      <trkpt lat="42.00045" lon="2.45186">
        <ele>692.6</ele>
        <time>2022-05-21 04:26:29</time>
      </trkpt>
      <trkpt lat="42.00042" lon="2.45187">
        <ele>692.8</ele>
        <time>2022-05-21 04:26:30</time>
      </trkpt>
      <trkpt lat="42.0004" lon="2.45188">
        <ele>693</ele>
        <time>2022-05-21 04:26:31</time>
      </trkpt>
      <trkpt lat="42.00039" lon="2.4519">
        <ele>693.2</ele>
        <time>2022-05-21 04:26:32</time>
      </trkpt>
      <trkpt lat="42.00036" lon="2.45192">
        <ele>693.4</ele>
        <time>2022-05-21 04:26:33</time>
      </trkpt>
      <trkpt lat="42.00034" lon="2.45194">
        <ele>693.4</ele>
        <time>2022-05-21 04:26:34</time>
      </trkpt>
      <trkpt lat="42.00031" lon="2.45195">
        <ele>693.6</ele>
        <time>2022-05-21 04:26:35</time>
      </trkpt>
      <trkpt lat="42.00029" lon="2.45197">
        <ele>693.8</ele>
        <time>2022-05-21 04:26:36</time>
      </trkpt>
      <trkpt lat="42.00027" lon="2.45198">
        <ele>694</ele>
        <time>2022-05-21 04:26:37</time>
      </trkpt>
      <trkpt lat="42.00024" lon="2.45199">
        <ele>694.2</ele>
        <time>2022-05-21 04:26:38</time>
      </trkpt>
      <trkpt lat="42.00023" lon="2.452">
        <ele>694.2</ele>
        <time>2022-05-21 04:26:39</time>
      </trkpt>
      <trkpt lat="42.00019" lon="2.45203">
        <ele>694.4</ele>
        <time>2022-05-21 04:26:40</time>
      </trkpt>
      <trkpt lat="42.00017" lon="2.45205">
        <ele>694.6</ele>
        <time>2022-05-21 04:26:41</time>
      </trkpt>
      <trkpt lat="42.00015" lon="2.45206">
        <ele>694.8</ele>
        <time>2022-05-21 04:26:42</time>
      </trkpt>
      <trkpt lat="42.00012" lon="2.45208">
        <ele>694.8</ele>
        <time>2022-05-21 04:26:43</time>
      </trkpt>
      <trkpt lat="42.0001" lon="2.4521">
        <ele>695</ele>
        <time>2022-05-21 04:26:44</time>
      </trkpt>
      <trkpt lat="42.00008" lon="2.45211">
        <ele>695</ele>
        <time>2022-05-21 04:26:45</time>
      </trkpt>
      <trkpt lat="42.00005" lon="2.45213">
        <ele>695</ele>
        <time>2022-05-21 04:26:46</time>
      </trkpt>
      <trkpt lat="42.00003" lon="2.45215">
        <ele>694.8</ele>
        <time>2022-05-21 04:26:47</time>
      </trkpt>
      <trkpt lat="42" lon="2.45218">
        <ele>694.6</ele>
        <time>2022-05-21 04:26:48</time>
      </trkpt>
      <trkpt lat="41.99997" lon="2.45222">
        <ele>694.6</ele>
        <time>2022-05-21 04:26:49</time>
      </trkpt>
      <trkpt lat="41.99994" lon="2.45226">
        <ele>694.2</ele>
        <time>2022-05-21 04:26:50</time>
      </trkpt>
      <trkpt lat="41.99992" lon="2.45231">
        <ele>693.8</ele>
        <time>2022-05-21 04:26:51</time>
      </trkpt>
      <trkpt lat="41.99989" lon="2.45237">
        <ele>693.4</ele>
        <time>2022-05-21 04:26:52</time>
      </trkpt>
      <trkpt lat="41.99986" lon="2.45243">
        <ele>692.8</ele>
        <time>2022-05-21 04:26:53</time>
      </trkpt>
      <trkpt lat="41.99982" lon="2.4525">
        <ele>692.4</ele>
        <time>2022-05-21 04:26:54</time>
      </trkpt>
      <trkpt lat="41.99978" lon="2.45257">
        <ele>692</ele>
        <time>2022-05-21 04:26:55</time>
      </trkpt>
      <trkpt lat="41.99973" lon="2.45265">
        <ele>691.6</ele>
        <time>2022-05-21 04:26:56</time>
      </trkpt>
      <trkpt lat="41.99968" lon="2.45271">
        <ele>691.2</ele>
        <time>2022-05-21 04:26:57</time>
      </trkpt>
      <trkpt lat="41.99964" lon="2.45277">
        <ele>691</ele>
        <time>2022-05-21 04:26:58</time>
      </trkpt>
      <trkpt lat="41.9996" lon="2.45283">
        <ele>690.8</ele>
        <time>2022-05-21 04:26:59</time>
      </trkpt>
      <trkpt lat="41.99956" lon="2.45289">
        <ele>690.6</ele>
        <time>2022-05-21 04:27:00</time>
      </trkpt>
      <trkpt lat="41.99953" lon="2.45296">
        <ele>690.2</ele>
        <time>2022-05-21 04:27:01</time>
      </trkpt>
      <trkpt lat="41.9995" lon="2.45304">
        <ele>690</ele>
        <time>2022-05-21 04:27:02</time>
      </trkpt>
      <trkpt lat="41.99947" lon="2.45314">
        <ele>689.8</ele>
        <time>2022-05-21 04:27:03</time>
      </trkpt>
      <trkpt lat="41.99944" lon="2.45323">
        <ele>689.6</ele>
        <time>2022-05-21 04:27:04</time>
      </trkpt>
      <trkpt lat="41.99941" lon="2.45332">
        <ele>689.4</ele>
        <time>2022-05-21 04:27:05</time>
      </trkpt>
      <trkpt lat="41.99938" lon="2.4534">
        <ele>689.4</ele>
        <time>2022-05-21 04:27:06</time>
      </trkpt>
      <trkpt lat="41.99936" lon="2.45347">
        <ele>689.2</ele>
        <time>2022-05-21 04:27:07</time>
      </trkpt>
      <trkpt lat="41.99933" lon="2.45354">
        <ele>689.2</ele>
        <time>2022-05-21 04:27:08</time>
      </trkpt>
      <trkpt lat="41.99931" lon="2.45362">
        <ele>689.2</ele>
        <time>2022-05-21 04:27:09</time>
      </trkpt>
      <trkpt lat="41.99929" lon="2.45369">
        <ele>689</ele>
        <time>2022-05-21 04:27:10</time>
      </trkpt>
      <trkpt lat="41.99928" lon="2.45379">
        <ele>689</ele>
        <time>2022-05-21 04:27:11</time>
      </trkpt>
      <trkpt lat="41.99929" lon="2.45387">
        <ele>689</ele>
        <time>2022-05-21 04:27:12</time>
      </trkpt>
      <trkpt lat="41.99931" lon="2.45395">
        <ele>688.8</ele>
        <time>2022-05-21 04:27:13</time>
      </trkpt>
      <trkpt lat="41.99934" lon="2.45403">
        <ele>688.8</ele>
        <time>2022-05-21 04:27:14</time>
      </trkpt>
      <trkpt lat="41.99936" lon="2.45409">
        <ele>688.8</ele>
        <time>2022-05-21 04:27:15</time>
      </trkpt>
      <trkpt lat="41.99938" lon="2.45415">
        <ele>688.8</ele>
        <time>2022-05-21 04:27:16</time>
      </trkpt>
      <trkpt lat="41.99941" lon="2.45421">
        <ele>688.6</ele>
        <time>2022-05-21 04:27:17</time>
      </trkpt>
      <trkpt lat="41.99945" lon="2.45425">
        <ele>688.6</ele>
        <time>2022-05-21 04:27:18</time>
      </trkpt>
      <trkpt lat="41.99949" lon="2.45428">
        <ele>688.6</ele>
        <time>2022-05-21 04:27:19</time>
      </trkpt>
      <trkpt lat="41.99953" lon="2.4543">
        <ele>688.8</ele>
        <time>2022-05-21 04:27:20</time>
      </trkpt>
      <trkpt lat="41.99958" lon="2.45434">
        <ele>688.8</ele>
        <time>2022-05-21 04:27:21</time>
      </trkpt>
      <trkpt lat="41.99961" lon="2.45436">
        <ele>689</ele>
        <time>2022-05-21 04:27:22</time>
      </trkpt>
      <trkpt lat="41.99965" lon="2.45439">
        <ele>689</ele>
        <time>2022-05-21 04:27:23</time>
      </trkpt>
      <trkpt lat="41.99968" lon="2.45441">
        <ele>689.2</ele>
        <time>2022-05-21 04:27:24</time>
      </trkpt>
      <trkpt lat="41.99971" lon="2.45443">
        <ele>689.2</ele>
        <time>2022-05-21 04:27:25</time>
      </trkpt>
      <trkpt lat="41.99974" lon="2.45445">
        <ele>689.4</ele>
        <time>2022-05-21 04:27:26</time>
      </trkpt>
      <trkpt lat="41.99977" lon="2.45447">
        <ele>689.4</ele>
        <time>2022-05-21 04:27:27</time>
      </trkpt>
      <trkpt lat="41.99981" lon="2.45448">
        <ele>689.4</ele>
        <time>2022-05-21 04:27:28</time>
      </trkpt>
      <trkpt lat="41.99984" lon="2.4545">
        <ele>689.4</ele>
        <time>2022-05-21 04:27:29</time>
      </trkpt>
      <trkpt lat="41.99987" lon="2.45451">
        <ele>689.4</ele>
        <time>2022-05-21 04:27:30</time>
      </trkpt>
      <trkpt lat="41.9999" lon="2.45453">
        <ele>689.4</ele>
        <time>2022-05-21 04:27:31</time>
      </trkpt>
      <trkpt lat="41.99993" lon="2.45454">
        <ele>689.4</ele>
        <time>2022-05-21 04:27:32</time>
      </trkpt>
      <trkpt lat="41.99995" lon="2.45456">
        <ele>689.6</ele>
        <time>2022-05-21 04:27:33</time>
      </trkpt>
      <trkpt lat="41.99997" lon="2.45458">
        <ele>689.4</ele>
        <time>2022-05-21 04:27:34</time>
      </trkpt>
      <trkpt lat="41.99999" lon="2.45461">
        <ele>689.2</ele>
        <time>2022-05-21 04:27:35</time>
      </trkpt>
      <trkpt lat="42.00001" lon="2.45465">
        <ele>689</ele>
        <time>2022-05-21 04:27:36</time>
      </trkpt>
      <trkpt lat="42.00004" lon="2.45469">
        <ele>688.6</ele>
        <time>2022-05-21 04:27:37</time>
      </trkpt>
      <trkpt lat="42.00006" lon="2.45474">
        <ele>688.2</ele>
        <time>2022-05-21 04:27:38</time>
      </trkpt>
      <trkpt lat="42.0001" lon="2.45479">
        <ele>687.8</ele>
        <time>2022-05-21 04:27:39</time>
      </trkpt>
      <trkpt lat="42.00014" lon="2.45484">
        <ele>687.4</ele>
        <time>2022-05-21 04:27:40</time>
      </trkpt>
      <trkpt lat="42.00018" lon="2.45489">
        <ele>687</ele>
        <time>2022-05-21 04:27:41</time>
      </trkpt>
      <trkpt lat="42.00023" lon="2.45496">
        <ele>686.6</ele>
        <time>2022-05-21 04:27:42</time>
      </trkpt>
      <trkpt lat="42.00027" lon="2.45504">
        <ele>686.2</ele>
        <time>2022-05-21 04:27:43</time>
      </trkpt>
      <trkpt lat="42.0003" lon="2.45513">
        <ele>686</ele>
        <time>2022-05-21 04:27:44</time>
      </trkpt>
      <trkpt lat="42.00033" lon="2.45522">
        <ele>686</ele>
        <time>2022-05-21 04:27:45</time>
      </trkpt>
      <trkpt lat="42.00034" lon="2.4553">
        <ele>686</ele>
        <time>2022-05-21 04:27:46</time>
      </trkpt>
      <trkpt lat="42.00034" lon="2.45536">
        <ele>686</ele>
        <time>2022-05-21 04:27:47</time>
      </trkpt>
      <trkpt lat="42.00033" lon="2.45542">
        <ele>686.2</ele>
        <time>2022-05-21 04:27:48</time>
      </trkpt>
      <trkpt lat="42.00032" lon="2.45546">
        <ele>686.4</ele>
        <time>2022-05-21 04:27:49</time>
      </trkpt>
      <trkpt lat="42.00032" lon="2.4555">
        <ele>686.6</ele>
        <time>2022-05-21 04:27:50</time>
      </trkpt>
      <trkpt lat="42.00031" lon="2.45553">
        <ele>686.8</ele>
        <time>2022-05-21 04:27:51</time>
      </trkpt>
      <trkpt lat="42.00029" lon="2.45557">
        <ele>687.2</ele>
        <time>2022-05-21 04:27:52</time>
      </trkpt>
      <trkpt lat="42.00029" lon="2.45561">
        <ele>687.4</ele>
        <time>2022-05-21 04:27:53</time>
      </trkpt>
      <trkpt lat="42.00028" lon="2.45565">
        <ele>687.6</ele>
        <time>2022-05-21 04:27:54</time>
      </trkpt>
      <trkpt lat="42.00029" lon="2.45569">
        <ele>688</ele>
        <time>2022-05-21 04:27:55</time>
      </trkpt>
      <trkpt lat="42.00028" lon="2.45573">
        <ele>688.2</ele>
        <time>2022-05-21 04:27:56</time>
      </trkpt>
      <trkpt lat="42.00027" lon="2.45576">
        <ele>688.4</ele>
        <time>2022-05-21 04:27:57</time>
      </trkpt>
      <trkpt lat="42.00026" lon="2.45579">
        <ele>688.6</ele>
        <time>2022-05-21 04:27:58</time>
      </trkpt>
      <trkpt lat="42.00025" lon="2.45582">
        <ele>689</ele>
        <time>2022-05-21 04:27:59</time>
      </trkpt>
      <trkpt lat="42.00024" lon="2.45585">
        <ele>689.2</ele>
        <time>2022-05-21 04:28:00</time>
      </trkpt>
      <trkpt lat="42.00023" lon="2.45588">
        <ele>689.4</ele>
        <time>2022-05-21 04:28:01</time>
      </trkpt>
      <trkpt lat="42.00022" lon="2.45591">
        <ele>689.8</ele>
        <time>2022-05-21 04:28:02</time>
      </trkpt>
      <trkpt lat="42.00021" lon="2.45594">
        <ele>690</ele>
        <time>2022-05-21 04:28:03</time>
      </trkpt>
      <trkpt lat="42.0002" lon="2.45597">
        <ele>690.2</ele>
        <time>2022-05-21 04:28:04</time>
      </trkpt>
      <trkpt lat="42.00019" lon="2.456">
        <ele>690.4</ele>
        <time>2022-05-21 04:28:05</time>
      </trkpt>
      <trkpt lat="42.00018" lon="2.45603">
        <ele>690.6</ele>
        <time>2022-05-21 04:28:06</time>
      </trkpt>
      <trkpt lat="42.00018" lon="2.45605">
        <ele>690.8</ele>
        <time>2022-05-21 04:28:07</time>
      </trkpt>
      <trkpt lat="42.00017" lon="2.45609">
        <ele>691</ele>
        <time>2022-05-21 04:28:08</time>
      </trkpt>
      <trkpt lat="42.00017" lon="2.45613">
        <ele>691.2</ele>
        <time>2022-05-21 04:28:09</time>
      </trkpt>
      <trkpt lat="42.00017" lon="2.45616">
        <ele>691.4</ele>
        <time>2022-05-21 04:28:10</time>
      </trkpt>
      <trkpt lat="42.00017" lon="2.45619">
        <ele>691.6</ele>
        <time>2022-05-21 04:28:11</time>
      </trkpt>
      <trkpt lat="42.00018" lon="2.45623">
        <ele>691.8</ele>
        <time>2022-05-21 04:28:12</time>
      </trkpt>
      <trkpt lat="42.00019" lon="2.45627">
        <ele>692</ele>
        <time>2022-05-21 04:28:13</time>
      </trkpt>
      <trkpt lat="42.0002" lon="2.4563">
        <ele>692.2</ele>
        <time>2022-05-21 04:28:14</time>
      </trkpt>
      <trkpt lat="42.00021" lon="2.45633">
        <ele>692.4</ele>
        <time>2022-05-21 04:28:15</time>
      </trkpt>
      <trkpt lat="42.00021" lon="2.45636">
        <ele>692.6</ele>
        <time>2022-05-21 04:28:16</time>
      </trkpt>
      <trkpt lat="42.00022" lon="2.45639">
        <ele>692.8</ele>
        <time>2022-05-21 04:28:17</time>
      </trkpt>
      <trkpt lat="42.00023" lon="2.45642">
        <ele>693</ele>
        <time>2022-05-21 04:28:18</time>
      </trkpt>
      <trkpt lat="42.00024" lon="2.45645">
        <ele>693.2</ele>
        <time>2022-05-21 04:28:19</time>
      </trkpt>
      <trkpt lat="42.00024" lon="2.45647">
        <ele>693.4</ele>
        <time>2022-05-21 04:28:20</time>
      </trkpt>
      <trkpt lat="42.00026" lon="2.45649">
        <ele>693.6</ele>
        <time>2022-05-21 04:28:21</time>
      </trkpt>
      <trkpt lat="42.00027" lon="2.45652">
        <ele>693.8</ele>
        <time>2022-05-21 04:28:22</time>
      </trkpt>
      <trkpt lat="42.00028" lon="2.45654">
        <ele>694</ele>
        <time>2022-05-21 04:28:23</time>
      </trkpt>
      <trkpt lat="42.0003" lon="2.45656">
        <ele>694.2</ele>
        <time>2022-05-21 04:28:24</time>
      </trkpt>
      <trkpt lat="42.00031" lon="2.45659">
        <ele>694.4</ele>
        <time>2022-05-21 04:28:25</time>
      </trkpt>
      <trkpt lat="42.00032" lon="2.45661">
        <ele>694.6</ele>
        <time>2022-05-21 04:28:26</time>
      </trkpt>
      <trkpt lat="42.00033" lon="2.45664">
        <ele>694.8</ele>
        <time>2022-05-21 04:28:27</time>
      </trkpt>
      <trkpt lat="42.00034" lon="2.45665">
        <ele>694.8</ele>
        <time>2022-05-21 04:28:28</time>
      </trkpt>
      <trkpt lat="42.00036" lon="2.45667">
        <ele>695</ele>
        <time>2022-05-21 04:28:29</time>
      </trkpt>
      <trkpt lat="42.00037" lon="2.45668">
        <ele>695.2</ele>
        <time>2022-05-21 04:28:30</time>
      </trkpt>
      <trkpt lat="42.00038" lon="2.4567">
        <ele>695.4</ele>
        <time>2022-05-21 04:28:31</time>
      </trkpt>
      <trkpt lat="42.00039" lon="2.45671">
        <ele>695.6</ele>
        <time>2022-05-21 04:28:32</time>
      </trkpt>
      <trkpt lat="42.0004" lon="2.45673">
        <ele>695.8</ele>
        <time>2022-05-21 04:28:33</time>
      </trkpt>
      <trkpt lat="42.00042" lon="2.45674">
        <ele>696</ele>
        <time>2022-05-21 04:28:34</time>
      </trkpt>
      <trkpt lat="42.00043" lon="2.45675">
        <ele>696.2</ele>
        <time>2022-05-21 04:28:35</time>
      </trkpt>
      <trkpt lat="42.00044" lon="2.45676">
        <ele>696.2</ele>
        <time>2022-05-21 04:28:36</time>
      </trkpt>
      <trkpt lat="42.00046" lon="2.45677">
        <ele>696.4</ele>
        <time>2022-05-21 04:28:37</time>
      </trkpt>
      <trkpt lat="42.00048" lon="2.45678">
        <ele>696.6</ele>
        <time>2022-05-21 04:28:38</time>
      </trkpt>
      <trkpt lat="42.0005" lon="2.45678">
        <ele>696.6</ele>
        <time>2022-05-21 04:28:39</time>
      </trkpt>
      <trkpt lat="42.00051" lon="2.45679">
        <ele>696.8</ele>
        <time>2022-05-21 04:28:40</time>
      </trkpt>
      <trkpt lat="42.00054" lon="2.45679">
        <ele>696.8</ele>
        <time>2022-05-21 04:28:41</time>
      </trkpt>
      <trkpt lat="42.00056" lon="2.45679">
        <ele>697</ele>
        <time>2022-05-21 04:28:42</time>
      </trkpt>
      <trkpt lat="42.00058" lon="2.45679">
        <ele>697.2</ele>
        <time>2022-05-21 04:28:43</time>
      </trkpt>
      <trkpt lat="42.0006" lon="2.45679">
        <ele>697.4</ele>
        <time>2022-05-21 04:28:44</time>
      </trkpt>
      <trkpt lat="42.00061" lon="2.45678">
        <ele>697.4</ele>
        <time>2022-05-21 04:28:45</time>
      </trkpt>
      <trkpt lat="42.00064" lon="2.45678">
        <ele>697.6</ele>
        <time>2022-05-21 04:28:46</time>
      </trkpt>
      <trkpt lat="42.00066" lon="2.45678">
        <ele>697.6</ele>
        <time>2022-05-21 04:28:47</time>
      </trkpt>
      <trkpt lat="42.00068" lon="2.45677">
        <ele>697.8</ele>
        <time>2022-05-21 04:28:48</time>
      </trkpt>
      <trkpt lat="42.0007" lon="2.45677">
        <ele>698</ele>
        <time>2022-05-21 04:28:49</time>
      </trkpt>
      <trkpt lat="42.00071" lon="2.45677">
        <ele>698</ele>
        <time>2022-05-21 04:28:50</time>
      </trkpt>
      <trkpt lat="42.00073" lon="2.45677">
        <ele>698.2</ele>
        <time>2022-05-21 04:28:51</time>
      </trkpt>
      <trkpt lat="42.00075" lon="2.45677">
        <ele>698.2</ele>
        <time>2022-05-21 04:28:52</time>
      </trkpt>
      <trkpt lat="42.00076" lon="2.45676">
        <ele>698.4</ele>
        <time>2022-05-21 04:28:53</time>
      </trkpt>
      <trkpt lat="42.00078" lon="2.45676">
        <ele>698.4</ele>
        <time>2022-05-21 04:28:54</time>
      </trkpt>
      <trkpt lat="42.0008" lon="2.45676">
        <ele>698.4</ele>
        <time>2022-05-21 04:28:55</time>
      </trkpt>
      <trkpt lat="42.00084" lon="2.45676">
        <ele>698.4</ele>
        <time>2022-05-21 04:28:56</time>
      </trkpt>
      <trkpt lat="42.00088" lon="2.45675">
        <ele>698.2</ele>
        <time>2022-05-21 04:28:57</time>
      </trkpt>
      <trkpt lat="42.00092" lon="2.45674">
        <ele>698</ele>
        <time>2022-05-21 04:28:58</time>
      </trkpt>
      <trkpt lat="42.00095" lon="2.45672">
        <ele>697.8</ele>
        <time>2022-05-21 04:28:59</time>
      </trkpt>
      <trkpt lat="42.00098" lon="2.45668">
        <ele>697.4</ele>
        <time>2022-05-21 04:29:00</time>
      </trkpt>
      <trkpt lat="42.00102" lon="2.45663">
        <ele>697</ele>
        <time>2022-05-21 04:29:01</time>
      </trkpt>
      <trkpt lat="42.00106" lon="2.45659">
        <ele>696.8</ele>
        <time>2022-05-21 04:29:02</time>
      </trkpt>
      <trkpt lat="42.00111" lon="2.45654">
        <ele>696.6</ele>
        <time>2022-05-21 04:29:03</time>
      </trkpt>
      <trkpt lat="42.00116" lon="2.45651">
        <ele>696.4</ele>
        <time>2022-05-21 04:29:04</time>
      </trkpt>
      <trkpt lat="42.00121" lon="2.45647">
        <ele>696.2</ele>
        <time>2022-05-21 04:29:05</time>
      </trkpt>
      <trkpt lat="42.00125" lon="2.45644">
        <ele>696.2</ele>
        <time>2022-05-21 04:29:06</time>
      </trkpt>
      <trkpt lat="42.00129" lon="2.45641">
        <ele>696.2</ele>
        <time>2022-05-21 04:29:07</time>
      </trkpt>
      <trkpt lat="42.00133" lon="2.45638">
        <ele>696.2</ele>
        <time>2022-05-21 04:29:08</time>
      </trkpt>
      <trkpt lat="42.00137" lon="2.45636">
        <ele>696.4</ele>
        <time>2022-05-21 04:29:09</time>
      </trkpt>
      <trkpt lat="42.0014" lon="2.45634">
        <ele>696.4</ele>
        <time>2022-05-21 04:29:10</time>
      </trkpt>
      <trkpt lat="42.00144" lon="2.45631">
        <ele>696.6</ele>
        <time>2022-05-21 04:29:11</time>
      </trkpt>
      <trkpt lat="42.00146" lon="2.45629">
        <ele>696.8</ele>
        <time>2022-05-21 04:29:12</time>
      </trkpt>
      <trkpt lat="42.00148" lon="2.45628">
        <ele>697</ele>
        <time>2022-05-21 04:29:13</time>
      </trkpt>
      <trkpt lat="42.00151" lon="2.45627">
        <ele>697.2</ele>
        <time>2022-05-21 04:29:14</time>
      </trkpt>
      <trkpt lat="42.00153" lon="2.45625">
        <ele>697.2</ele>
        <time>2022-05-21 04:29:15</time>
      </trkpt>
      <trkpt lat="42.00155" lon="2.45624">
        <ele>697.4</ele>
        <time>2022-05-21 04:29:16</time>
      </trkpt>
      <trkpt lat="42.00157" lon="2.45623">
        <ele>697.6</ele>
        <time>2022-05-21 04:29:17</time>
      </trkpt>
      <trkpt lat="42.00159" lon="2.45622">
        <ele>697.8</ele>
        <time>2022-05-21 04:29:18</time>
      </trkpt>
      <trkpt lat="42.00162" lon="2.45621">
        <ele>697.8</ele>
        <time>2022-05-21 04:29:19</time>
      </trkpt>
      <trkpt lat="42.00164" lon="2.45621">
        <ele>698</ele>
        <time>2022-05-21 04:29:20</time>
      </trkpt>
      <trkpt lat="42.00166" lon="2.4562">
        <ele>698</ele>
        <time>2022-05-21 04:29:21</time>
      </trkpt>
      <trkpt lat="42.00168" lon="2.45619">
        <ele>698.2</ele>
        <time>2022-05-21 04:29:22</time>
      </trkpt>
      <trkpt lat="42.00169" lon="2.45618">
        <ele>698.2</ele>
        <time>2022-05-21 04:29:23</time>
      </trkpt>
      <trkpt lat="42.00171" lon="2.45616">
        <ele>698.4</ele>
        <time>2022-05-21 04:29:24</time>
      </trkpt>
      <trkpt lat="42.00172" lon="2.45615">
        <ele>698.6</ele>
        <time>2022-05-21 04:29:25</time>
      </trkpt>
      <trkpt lat="42.00174" lon="2.45614">
        <ele>698.8</ele>
        <time>2022-05-21 04:29:26</time>
      </trkpt>
      <trkpt lat="42.00175" lon="2.45613">
        <ele>698.8</ele>
        <time>2022-05-21 04:29:27</time>
      </trkpt>
      <trkpt lat="42.00176" lon="2.45612">
        <ele>699</ele>
        <time>2022-05-21 04:29:28</time>
      </trkpt>
      <trkpt lat="42.00178" lon="2.45611">
        <ele>699.2</ele>
        <time>2022-05-21 04:29:29</time>
      </trkpt>
      <trkpt lat="42.0018" lon="2.4561">
        <ele>699.2</ele>
        <time>2022-05-21 04:29:30</time>
      </trkpt>
      <trkpt lat="42.00182" lon="2.4561">
        <ele>699.4</ele>
        <time>2022-05-21 04:29:31</time>
      </trkpt>
      <trkpt lat="42.00185" lon="2.45608">
        <ele>699.4</ele>
        <time>2022-05-21 04:29:32</time>
      </trkpt>
      <trkpt lat="42.00187" lon="2.45608">
        <ele>699.4</ele>
        <time>2022-05-21 04:29:33</time>
      </trkpt>
      <trkpt lat="42.00191" lon="2.45607">
        <ele>699.4</ele>
        <time>2022-05-21 04:29:34</time>
      </trkpt>
      <trkpt lat="42.00194" lon="2.45607">
        <ele>699.6</ele>
        <time>2022-05-21 04:29:35</time>
      </trkpt>
      <trkpt lat="42.00196" lon="2.45607">
        <ele>699.6</ele>
        <time>2022-05-21 04:29:36</time>
      </trkpt>
      <trkpt lat="42.00198" lon="2.45607">
        <ele>699.6</ele>
        <time>2022-05-21 04:29:37</time>
      </trkpt>
      <trkpt lat="42.002" lon="2.45607">
        <ele>699.6</ele>
        <time>2022-05-21 04:29:38</time>
      </trkpt>
      <trkpt lat="42.00202" lon="2.45606">
        <ele>699.4</ele>
        <time>2022-05-21 04:29:39</time>
      </trkpt>
      <trkpt lat="42.00204" lon="2.45605">
        <ele>699.4</ele>
        <time>2022-05-21 04:29:40</time>
      </trkpt>
      <trkpt lat="42.00206" lon="2.45604">
        <ele>699.4</ele>
        <time>2022-05-21 04:29:41</time>
      </trkpt>
      <trkpt lat="42.00208" lon="2.45603">
        <ele>699.4</ele>
        <time>2022-05-21 04:29:42</time>
      </trkpt>
      <trkpt lat="42.0021" lon="2.45602">
        <ele>699.2</ele>
        <time>2022-05-21 04:29:43</time>
      </trkpt>
      <trkpt lat="42.00212" lon="2.45601">
        <ele>699.2</ele>
        <time>2022-05-21 04:29:44</time>
      </trkpt>
      <trkpt lat="42.00214" lon="2.456">
        <ele>699.2</ele>
        <time>2022-05-21 04:29:45</time>
      </trkpt>
      <trkpt lat="42.00217" lon="2.45598">
        <ele>699.2</ele>
        <time>2022-05-21 04:29:46</time>
      </trkpt>
      <trkpt lat="42.00219" lon="2.45597">
        <ele>699.2</ele>
        <time>2022-05-21 04:29:47</time>
      </trkpt>
      <trkpt lat="42.00222" lon="2.45595">
        <ele>699.2</ele>
        <time>2022-05-21 04:29:48</time>
      </trkpt>
      <trkpt lat="42.00225" lon="2.45594">
        <ele>699.2</ele>
        <time>2022-05-21 04:29:49</time>
      </trkpt>
      <trkpt lat="42.00229" lon="2.45593">
        <ele>699.2</ele>
        <time>2022-05-21 04:29:50</time>
      </trkpt>
      <trkpt lat="42.00232" lon="2.45593">
        <ele>699.2</ele>
        <time>2022-05-21 04:29:51</time>
      </trkpt>
      <trkpt lat="42.00235" lon="2.45592">
        <ele>699.4</ele>
        <time>2022-05-21 04:29:52</time>
      </trkpt>
      <trkpt lat="42.00238" lon="2.45592">
        <ele>699.4</ele>
        <time>2022-05-21 04:29:53</time>
      </trkpt>
      <trkpt lat="42.00242" lon="2.45592">
        <ele>699.4</ele>
        <time>2022-05-21 04:29:54</time>
      </trkpt>
      <trkpt lat="42.00246" lon="2.45593">
        <ele>699.6</ele>
        <time>2022-05-21 04:29:55</time>
      </trkpt>
      <trkpt lat="42.00249" lon="2.45593">
        <ele>699.6</ele>
        <time>2022-05-21 04:29:56</time>
      </trkpt>
      <trkpt lat="42.00252" lon="2.45593">
        <ele>699.8</ele>
        <time>2022-05-21 04:29:57</time>
      </trkpt>
      <trkpt lat="42.00254" lon="2.45594">
        <ele>699.8</ele>
        <time>2022-05-21 04:29:58</time>
      </trkpt>
      <trkpt lat="42.00258" lon="2.45594">
        <ele>699.8</ele>
        <time>2022-05-21 04:29:59</time>
      </trkpt>
      <trkpt lat="42.00261" lon="2.45594">
        <ele>700</ele>
        <time>2022-05-21 04:30:00</time>
      </trkpt>
      <trkpt lat="42.00263" lon="2.45596">
        <ele>700</ele>
        <time>2022-05-21 04:30:01</time>
      </trkpt>
      <trkpt lat="42.00265" lon="2.45597">
        <ele>700.2</ele>
        <time>2022-05-21 04:30:02</time>
      </trkpt>
      <trkpt lat="42.00266" lon="2.45599">
        <ele>700.2</ele>
        <time>2022-05-21 04:30:03</time>
      </trkpt>
      <trkpt lat="42.00268" lon="2.456">
        <ele>700.4</ele>
        <time>2022-05-21 04:30:04</time>
      </trkpt>
      <trkpt lat="42.0027" lon="2.45602">
        <ele>700.4</ele>
        <time>2022-05-21 04:30:05</time>
      </trkpt>
      <trkpt lat="42.00273" lon="2.45603">
        <ele>700.4</ele>
        <time>2022-05-21 04:30:06</time>
      </trkpt>
      <trkpt lat="42.00275" lon="2.45605">
        <ele>700.6</ele>
        <time>2022-05-21 04:30:07</time>
      </trkpt>
      <trkpt lat="42.00276" lon="2.45607">
        <ele>700.6</ele>
        <time>2022-05-21 04:30:08</time>
      </trkpt>
      <trkpt lat="42.00278" lon="2.45609">
        <ele>700.8</ele>
        <time>2022-05-21 04:30:09</time>
      </trkpt>
      <trkpt lat="42.0028" lon="2.4561">
        <ele>700.8</ele>
        <time>2022-05-21 04:30:10</time>
      </trkpt>
      <trkpt lat="42.00281" lon="2.45612">
        <ele>700.8</ele>
        <time>2022-05-21 04:30:11</time>
      </trkpt>
      <trkpt lat="42.00283" lon="2.45613">
        <ele>700.8</ele>
        <time>2022-05-21 04:30:12</time>
      </trkpt>
      <trkpt lat="42.00284" lon="2.45615">
        <ele>701</ele>
        <time>2022-05-21 04:30:13</time>
      </trkpt>
      <trkpt lat="42.00285" lon="2.45617">
        <ele>701</ele>
        <time>2022-05-21 04:30:14</time>
      </trkpt>
      <trkpt lat="42.00287" lon="2.45619">
        <ele>701.2</ele>
        <time>2022-05-21 04:30:15</time>
      </trkpt>
      <trkpt lat="42.00289" lon="2.45622">
        <ele>701.2</ele>
        <time>2022-05-21 04:30:16</time>
      </trkpt>
      <trkpt lat="42.00291" lon="2.45624">
        <ele>701.4</ele>
        <time>2022-05-21 04:30:17</time>
      </trkpt>
      <trkpt lat="42.00293" lon="2.45626">
        <ele>701.4</ele>
        <time>2022-05-21 04:30:18</time>
      </trkpt>
      <trkpt lat="42.00294" lon="2.45628">
        <ele>701.6</ele>
        <time>2022-05-21 04:30:19</time>
      </trkpt>
      <trkpt lat="42.00295" lon="2.45631">
        <ele>701.8</ele>
        <time>2022-05-21 04:30:20</time>
      </trkpt>
      <trkpt lat="42.00296" lon="2.45633">
        <ele>701.8</ele>
        <time>2022-05-21 04:30:21</time>
      </trkpt>
      <trkpt lat="42.00296" lon="2.45636">
        <ele>702</ele>
        <time>2022-05-21 04:30:22</time>
      </trkpt>
      <trkpt lat="42.00298" lon="2.45639">
        <ele>702.2</ele>
        <time>2022-05-21 04:30:23</time>
      </trkpt>
      <trkpt lat="42.00299" lon="2.45642">
        <ele>702.2</ele>
        <time>2022-05-21 04:30:24</time>
      </trkpt>
      <trkpt lat="42.003" lon="2.45644">
        <ele>702.4</ele>
        <time>2022-05-21 04:30:25</time>
      </trkpt>
      <trkpt lat="42.00301" lon="2.45646">
        <ele>702.6</ele>
        <time>2022-05-21 04:30:26</time>
      </trkpt>
      <trkpt lat="42.00301" lon="2.45647">
        <ele>702.6</ele>
        <time>2022-05-21 04:30:27</time>
      </trkpt>
      <trkpt lat="42.00301" lon="2.45648">
        <ele>702.8</ele>
        <time>2022-05-21 04:30:28</time>
      </trkpt>
      <trkpt lat="42.00301" lon="2.45649">
        <ele>703</ele>
        <time>2022-05-21 04:30:29</time>
      </trkpt>
      <trkpt lat="42.00301" lon="2.45653">
        <ele>703</ele>
        <time>2022-05-21 04:30:30</time>
      </trkpt>
      <trkpt lat="42.00301" lon="2.45655">
        <ele>703.2</ele>
        <time>2022-05-21 04:30:31</time>
      </trkpt>
      <trkpt lat="42.003" lon="2.45657">
        <ele>703.4</ele>
        <time>2022-05-21 04:30:32</time>
      </trkpt>
      <trkpt lat="42.003" lon="2.45659">
        <ele>703.4</ele>
        <time>2022-05-21 04:30:33</time>
      </trkpt>
      <trkpt lat="42.00299" lon="2.4566">
        <ele>703.6</ele>
        <time>2022-05-21 04:30:34</time>
      </trkpt>
      <trkpt lat="42.00299" lon="2.45662">
        <ele>703.8</ele>
        <time>2022-05-21 04:30:35</time>
      </trkpt>
      <trkpt lat="42.00299" lon="2.45664">
        <ele>704</ele>
        <time>2022-05-21 04:30:36</time>
      </trkpt>
      <trkpt lat="42.00298" lon="2.45666">
        <ele>704</ele>
        <time>2022-05-21 04:30:37</time>
      </trkpt>
      <trkpt lat="42.00298" lon="2.45668">
        <ele>704.2</ele>
        <time>2022-05-21 04:30:38</time>
      </trkpt>
      <trkpt lat="42.00298" lon="2.4567">
        <ele>704.4</ele>
        <time>2022-05-21 04:30:39</time>
      </trkpt>
      <trkpt lat="42.00297" lon="2.45671">
        <ele>704.6</ele>
        <time>2022-05-21 04:30:40</time>
      </trkpt>
      <trkpt lat="42.00297" lon="2.45673">
        <ele>704.8</ele>
        <time>2022-05-21 04:30:41</time>
      </trkpt>
      <trkpt lat="42.00297" lon="2.45675">
        <ele>705</ele>
        <time>2022-05-21 04:30:42</time>
      </trkpt>
      <trkpt lat="42.00296" lon="2.45676">
        <ele>705.2</ele>
        <time>2022-05-21 04:30:43</time>
      </trkpt>
      <trkpt lat="42.00296" lon="2.45678">
        <ele>705.4</ele>
        <time>2022-05-21 04:30:44</time>
      </trkpt>
      <trkpt lat="42.00296" lon="2.45681">
        <ele>705.6</ele>
        <time>2022-05-21 04:30:45</time>
      </trkpt>
      <trkpt lat="42.00296" lon="2.45684">
        <ele>705.8</ele>
        <time>2022-05-21 04:30:46</time>
      </trkpt>
      <trkpt lat="42.00296" lon="2.45687">
        <ele>706</ele>
        <time>2022-05-21 04:30:47</time>
      </trkpt>
      <trkpt lat="42.00296" lon="2.4569">
        <ele>706</ele>
        <time>2022-05-21 04:30:48</time>
      </trkpt>
      <trkpt lat="42.00296" lon="2.45693">
        <ele>706.2</ele>
        <time>2022-05-21 04:30:49</time>
      </trkpt>
      <trkpt lat="42.00297" lon="2.45696">
        <ele>706.2</ele>
        <time>2022-05-21 04:30:50</time>
      </trkpt>
      <trkpt lat="42.00297" lon="2.45698">
        <ele>706.2</ele>
        <time>2022-05-21 04:30:51</time>
      </trkpt>
      <trkpt lat="42.00297" lon="2.457">
        <ele>706.4</ele>
        <time>2022-05-21 04:30:52</time>
      </trkpt>
      <trkpt lat="42.00298" lon="2.45703">
        <ele>706.4</ele>
        <time>2022-05-21 04:30:53</time>
      </trkpt>
      <trkpt lat="42.00299" lon="2.45707">
        <ele>706.4</ele>
        <time>2022-05-21 04:30:54</time>
      </trkpt>
      <trkpt lat="42.00301" lon="2.45711">
        <ele>706.4</ele>
        <time>2022-05-21 04:30:55</time>
      </trkpt>
      <trkpt lat="42.00302" lon="2.45714">
        <ele>706.6</ele>
        <time>2022-05-21 04:30:56</time>
      </trkpt>
      <trkpt lat="42.00303" lon="2.45717">
        <ele>706.6</ele>
        <time>2022-05-21 04:30:57</time>
      </trkpt>
      <trkpt lat="42.00303" lon="2.45719">
        <ele>706.6</ele>
        <time>2022-05-21 04:30:58</time>
      </trkpt>
      <trkpt lat="42.00304" lon="2.45723">
        <ele>706.8</ele>
        <time>2022-05-21 04:30:59</time>
      </trkpt>
      <trkpt lat="42.00305" lon="2.45727">
        <ele>706.8</ele>
        <time>2022-05-21 04:31:00</time>
      </trkpt>
      <trkpt lat="42.00306" lon="2.45731">
        <ele>707</ele>
        <time>2022-05-21 04:31:01</time>
      </trkpt>
      <trkpt lat="42.00306" lon="2.45734">
        <ele>707</ele>
        <time>2022-05-21 04:31:02</time>
      </trkpt>
      <trkpt lat="42.00307" lon="2.45736">
        <ele>707.2</ele>
        <time>2022-05-21 04:31:03</time>
      </trkpt>
      <trkpt lat="42.00307" lon="2.45739">
        <ele>707.2</ele>
        <time>2022-05-21 04:31:04</time>
      </trkpt>
      <trkpt lat="42.00308" lon="2.45742">
        <ele>707.4</ele>
        <time>2022-05-21 04:31:05</time>
      </trkpt>
      <trkpt lat="42.00309" lon="2.45745">
        <ele>707.4</ele>
        <time>2022-05-21 04:31:06</time>
      </trkpt>
      <trkpt lat="42.0031" lon="2.45747">
        <ele>707.6</ele>
        <time>2022-05-21 04:31:07</time>
      </trkpt>
      <trkpt lat="42.00311" lon="2.4575">
        <ele>707.8</ele>
        <time>2022-05-21 04:31:08</time>
      </trkpt>
      <trkpt lat="42.00312" lon="2.45752">
        <ele>707.8</ele>
        <time>2022-05-21 04:31:09</time>
      </trkpt>
      <trkpt lat="42.00313" lon="2.45754">
        <ele>708</ele>
        <time>2022-05-21 04:31:10</time>
      </trkpt>
      <trkpt lat="42.00315" lon="2.45757">
        <ele>708.2</ele>
        <time>2022-05-21 04:31:11</time>
      </trkpt>
      <trkpt lat="42.00316" lon="2.4576">
        <ele>708.4</ele>
        <time>2022-05-21 04:31:12</time>
      </trkpt>
      <trkpt lat="42.00317" lon="2.45762">
        <ele>708.6</ele>
        <time>2022-05-21 04:31:13</time>
      </trkpt>
      <trkpt lat="42.00318" lon="2.45764">
        <ele>708.8</ele>
        <time>2022-05-21 04:31:14</time>
      </trkpt>
      <trkpt lat="42.00319" lon="2.45767">
        <ele>709</ele>
        <time>2022-05-21 04:31:15</time>
      </trkpt>
      <trkpt lat="42.0032" lon="2.45769">
        <ele>709.2</ele>
        <time>2022-05-21 04:31:16</time>
      </trkpt>
      <trkpt lat="42.00321" lon="2.45772">
        <ele>709.4</ele>
        <time>2022-05-21 04:31:17</time>
      </trkpt>
      <trkpt lat="42.00322" lon="2.45774">
        <ele>709.6</ele>
        <time>2022-05-21 04:31:18</time>
      </trkpt>
      <trkpt lat="42.00323" lon="2.45776">
        <ele>710</ele>
        <time>2022-05-21 04:31:19</time>
      </trkpt>
      <trkpt lat="42.00324" lon="2.45778">
        <ele>710.2</ele>
        <time>2022-05-21 04:31:20</time>
      </trkpt>
      <trkpt lat="42.00325" lon="2.4578">
        <ele>710.4</ele>
        <time>2022-05-21 04:31:21</time>
      </trkpt>
      <trkpt lat="42.00326" lon="2.45782">
        <ele>710.6</ele>
        <time>2022-05-21 04:31:22</time>
      </trkpt>
      <trkpt lat="42.00326" lon="2.45785">
        <ele>710.8</ele>
        <time>2022-05-21 04:31:23</time>
      </trkpt>
      <trkpt lat="42.00327" lon="2.45787">
        <ele>711</ele>
        <time>2022-05-21 04:31:24</time>
      </trkpt>
      <trkpt lat="42.00327" lon="2.45789">
        <ele>711.2</ele>
        <time>2022-05-21 04:31:25</time>
      </trkpt>
      <trkpt lat="42.00326" lon="2.45791">
        <ele>711.4</ele>
        <time>2022-05-21 04:31:26</time>
      </trkpt>
      <trkpt lat="42.00326" lon="2.45793">
        <ele>711.6</ele>
        <time>2022-05-21 04:31:27</time>
      </trkpt>
      <trkpt lat="42.00325" lon="2.45796">
        <ele>711.8</ele>
        <time>2022-05-21 04:31:28</time>
      </trkpt>
      <trkpt lat="42.00325" lon="2.45798">
        <ele>712</ele>
        <time>2022-05-21 04:31:29</time>
      </trkpt>
      <trkpt lat="42.00325" lon="2.458">
        <ele>712</ele>
        <time>2022-05-21 04:31:30</time>
      </trkpt>
      <trkpt lat="42.00325" lon="2.45802">
        <ele>712.2</ele>
        <time>2022-05-21 04:31:31</time>
      </trkpt>
      <trkpt lat="42.00324" lon="2.45804">
        <ele>712.4</ele>
        <time>2022-05-21 04:31:32</time>
      </trkpt>
      <trkpt lat="42.00323" lon="2.45806">
        <ele>712.4</ele>
        <time>2022-05-21 04:31:33</time>
      </trkpt>
      <trkpt lat="42.00322" lon="2.45808">
        <ele>712.6</ele>
        <time>2022-05-21 04:31:34</time>
      </trkpt>
      <trkpt lat="42.00322" lon="2.4581">
        <ele>712.8</ele>
        <time>2022-05-21 04:31:35</time>
      </trkpt>
      <trkpt lat="42.00322" lon="2.45812">
        <ele>713</ele>
        <time>2022-05-21 04:31:36</time>
      </trkpt>
      <trkpt lat="42.00322" lon="2.45814">
        <ele>713</ele>
        <time>2022-05-21 04:31:37</time>
      </trkpt>
      <trkpt lat="42.00321" lon="2.45815">
        <ele>713.2</ele>
        <time>2022-05-21 04:31:38</time>
      </trkpt>
      <trkpt lat="42.0032" lon="2.45817">
        <ele>713.4</ele>
        <time>2022-05-21 04:31:39</time>
      </trkpt>
      <trkpt lat="42.0032" lon="2.45819">
        <ele>713.6</ele>
        <time>2022-05-21 04:31:40</time>
      </trkpt>
      <trkpt lat="42.0032" lon="2.45821">
        <ele>713.8</ele>
        <time>2022-05-21 04:31:41</time>
      </trkpt>
      <trkpt lat="42.0032" lon="2.45823">
        <ele>714</ele>
        <time>2022-05-21 04:31:42</time>
      </trkpt>
      <trkpt lat="42.0032" lon="2.45826">
        <ele>714</ele>
        <time>2022-05-21 04:31:43</time>
      </trkpt>
      <trkpt lat="42.0032" lon="2.45828">
        <ele>714.2</ele>
        <time>2022-05-21 04:31:44</time>
      </trkpt>
      <trkpt lat="42.00319" lon="2.45831">
        <ele>714.4</ele>
        <time>2022-05-21 04:31:45</time>
      </trkpt>
      <trkpt lat="42.00319" lon="2.45833">
        <ele>714.6</ele>
        <time>2022-05-21 04:31:46</time>
      </trkpt>
      <trkpt lat="42.00319" lon="2.45835">
        <ele>714.8</ele>
        <time>2022-05-21 04:31:47</time>
      </trkpt>
      <trkpt lat="42.00319" lon="2.45838">
        <ele>715</ele>
        <time>2022-05-21 04:31:48</time>
      </trkpt>
      <trkpt lat="42.00319" lon="2.4584">
        <ele>715.2</ele>
        <time>2022-05-21 04:31:49</time>
      </trkpt>
      <trkpt lat="42.00318" lon="2.45842">
        <ele>715.4</ele>
        <time>2022-05-21 04:31:50</time>
      </trkpt>
      <trkpt lat="42.00317" lon="2.45844">
        <ele>715.6</ele>
        <time>2022-05-21 04:31:51</time>
      </trkpt>
      <trkpt lat="42.00317" lon="2.45846">
        <ele>715.8</ele>
        <time>2022-05-21 04:31:52</time>
      </trkpt>
      <trkpt lat="42.00316" lon="2.45848">
        <ele>716</ele>
        <time>2022-05-21 04:31:53</time>
      </trkpt>
      <trkpt lat="42.00317" lon="2.4585">
        <ele>716.2</ele>
        <time>2022-05-21 04:31:54</time>
      </trkpt>
      <trkpt lat="42.00317" lon="2.45852">
        <ele>716.4</ele>
        <time>2022-05-21 04:31:55</time>
      </trkpt>
      <trkpt lat="42.00317" lon="2.45854">
        <ele>716.6</ele>
        <time>2022-05-21 04:31:56</time>
      </trkpt>
      <trkpt lat="42.00317" lon="2.45856">
        <ele>716.6</ele>
        <time>2022-05-21 04:31:57</time>
      </trkpt>
      <trkpt lat="42.00317" lon="2.45858">
        <ele>716.8</ele>
        <time>2022-05-21 04:31:58</time>
      </trkpt>
      <trkpt lat="42.00317" lon="2.4586">
        <ele>716.8</ele>
        <time>2022-05-21 04:31:59</time>
      </trkpt>
      <trkpt lat="42.00317" lon="2.45863">
        <ele>717</ele>
        <time>2022-05-21 04:32:00</time>
      </trkpt>
      <trkpt lat="42.00317" lon="2.45866">
        <ele>716.8</ele>
        <time>2022-05-21 04:32:01</time>
      </trkpt>
      <trkpt lat="42.00317" lon="2.4587">
        <ele>716.8</ele>
        <time>2022-05-21 04:32:02</time>
      </trkpt>
      <trkpt lat="42.00319" lon="2.45874">
        <ele>716.6</ele>
        <time>2022-05-21 04:32:03</time>
      </trkpt>
      <trkpt lat="42.00321" lon="2.45879">
        <ele>716.2</ele>
        <time>2022-05-21 04:32:04</time>
      </trkpt>
      <trkpt lat="42.00323" lon="2.45883">
        <ele>716</ele>
        <time>2022-05-21 04:32:05</time>
      </trkpt>
      <trkpt lat="42.00325" lon="2.45887">
        <ele>716</ele>
        <time>2022-05-21 04:32:06</time>
      </trkpt>
      <trkpt lat="42.00325" lon="2.45892">
        <ele>715.8</ele>
        <time>2022-05-21 04:32:07</time>
      </trkpt>
      <trkpt lat="42.00326" lon="2.45896">
        <ele>715.8</ele>
        <time>2022-05-21 04:32:08</time>
      </trkpt>
      <trkpt lat="42.00325" lon="2.459">
        <ele>715.8</ele>
        <time>2022-05-21 04:32:09</time>
      </trkpt>
      <trkpt lat="42.00324" lon="2.45903">
        <ele>715.8</ele>
        <time>2022-05-21 04:32:10</time>
      </trkpt>
      <trkpt lat="42.00324" lon="2.45907">
        <ele>715.8</ele>
        <time>2022-05-21 04:32:11</time>
      </trkpt>
      <trkpt lat="42.00323" lon="2.45911">
        <ele>715.8</ele>
        <time>2022-05-21 04:32:12</time>
      </trkpt>
      <trkpt lat="42.00323" lon="2.45915">
        <ele>715.8</ele>
        <time>2022-05-21 04:32:13</time>
      </trkpt>
      <trkpt lat="42.00324" lon="2.45919">
        <ele>715.8</ele>
        <time>2022-05-21 04:32:14</time>
      </trkpt>
      <trkpt lat="42.00325" lon="2.45923">
        <ele>715.8</ele>
        <time>2022-05-21 04:32:15</time>
      </trkpt>
      <trkpt lat="42.00325" lon="2.45927">
        <ele>716</ele>
        <time>2022-05-21 04:32:16</time>
      </trkpt>
      <trkpt lat="42.00327" lon="2.45931">
        <ele>716</ele>
        <time>2022-05-21 04:32:17</time>
      </trkpt>
      <trkpt lat="42.00328" lon="2.45934">
        <ele>716</ele>
        <time>2022-05-21 04:32:18</time>
      </trkpt>
      <trkpt lat="42.00329" lon="2.45938">
        <ele>716</ele>
        <time>2022-05-21 04:32:19</time>
      </trkpt>
      <trkpt lat="42.0033" lon="2.45942">
        <ele>716</ele>
        <time>2022-05-21 04:32:20</time>
      </trkpt>
      <trkpt lat="42.00332" lon="2.45946">
        <ele>716</ele>
        <time>2022-05-21 04:32:21</time>
      </trkpt>
      <trkpt lat="42.00333" lon="2.4595">
        <ele>716</ele>
        <time>2022-05-21 04:32:22</time>
      </trkpt>
      <trkpt lat="42.00334" lon="2.45954">
        <ele>716.2</ele>
        <time>2022-05-21 04:32:23</time>
      </trkpt>
      <trkpt lat="42.00335" lon="2.45959">
        <ele>716.2</ele>
        <time>2022-05-21 04:32:24</time>
      </trkpt>
      <trkpt lat="42.00336" lon="2.45962">
        <ele>716.4</ele>
        <time>2022-05-21 04:32:25</time>
      </trkpt>
      <trkpt lat="42.00336" lon="2.45966">
        <ele>716.4</ele>
        <time>2022-05-21 04:32:26</time>
      </trkpt>
      <trkpt lat="42.00337" lon="2.45969">
        <ele>716.6</ele>
        <time>2022-05-21 04:32:27</time>
      </trkpt>
      <trkpt lat="42.00338" lon="2.45972">
        <ele>716.8</ele>
        <time>2022-05-21 04:32:28</time>
      </trkpt>
      <trkpt lat="42.00339" lon="2.45974">
        <ele>716.8</ele>
        <time>2022-05-21 04:32:29</time>
      </trkpt>
      <trkpt lat="42.0034" lon="2.45978">
        <ele>717</ele>
        <time>2022-05-21 04:32:30</time>
      </trkpt>
      <trkpt lat="42.00341" lon="2.45981">
        <ele>717</ele>
        <time>2022-05-21 04:32:31</time>
      </trkpt>
      <trkpt lat="42.00342" lon="2.45983">
        <ele>717.2</ele>
        <time>2022-05-21 04:32:32</time>
      </trkpt>
      <trkpt lat="42.00343" lon="2.45986">
        <ele>717.2</ele>
        <time>2022-05-21 04:32:33</time>
      </trkpt>
      <trkpt lat="42.00344" lon="2.45988">
        <ele>717.2</ele>
        <time>2022-05-21 04:32:34</time>
      </trkpt>
      <trkpt lat="42.00345" lon="2.45992">
        <ele>717.2</ele>
        <time>2022-05-21 04:32:35</time>
      </trkpt>
      <trkpt lat="42.00346" lon="2.45996">
        <ele>717.2</ele>
        <time>2022-05-21 04:32:36</time>
      </trkpt>
      <trkpt lat="42.00347" lon="2.46">
        <ele>717.2</ele>
        <time>2022-05-21 04:32:37</time>
      </trkpt>
      <trkpt lat="42.00348" lon="2.46004">
        <ele>717.2</ele>
        <time>2022-05-21 04:32:38</time>
      </trkpt>
      <trkpt lat="42.00349" lon="2.46007">
        <ele>717.2</ele>
        <time>2022-05-21 04:32:39</time>
      </trkpt>
      <trkpt lat="42.00349" lon="2.46011">
        <ele>717.2</ele>
        <time>2022-05-21 04:32:40</time>
      </trkpt>
      <trkpt lat="42.00351" lon="2.46014">
        <ele>717.2</ele>
        <time>2022-05-21 04:32:41</time>
      </trkpt>
      <trkpt lat="42.00352" lon="2.46018">
        <ele>717.2</ele>
        <time>2022-05-21 04:32:42</time>
      </trkpt>
      <trkpt lat="42.00353" lon="2.46021">
        <ele>717.2</ele>
        <time>2022-05-21 04:32:43</time>
      </trkpt>
      <trkpt lat="42.00354" lon="2.46025">
        <ele>717.2</ele>
        <time>2022-05-21 04:32:44</time>
      </trkpt>
      <trkpt lat="42.00355" lon="2.46027">
        <ele>717.4</ele>
        <time>2022-05-21 04:32:45</time>
      </trkpt>
      <trkpt lat="42.00356" lon="2.4603">
        <ele>717.4</ele>
        <time>2022-05-21 04:32:46</time>
      </trkpt>
      <trkpt lat="42.00357" lon="2.46033">
        <ele>717.4</ele>
        <time>2022-05-21 04:32:47</time>
      </trkpt>
      <trkpt lat="42.00357" lon="2.46036">
        <ele>717.6</ele>
        <time>2022-05-21 04:32:48</time>
      </trkpt>
      <trkpt lat="42.00358" lon="2.46038">
        <ele>717.6</ele>
        <time>2022-05-21 04:32:49</time>
      </trkpt>
      <trkpt lat="42.0036" lon="2.4604">
        <ele>717.6</ele>
        <time>2022-05-21 04:32:50</time>
      </trkpt>
      <trkpt lat="42.00362" lon="2.46043">
        <ele>717.4</ele>
        <time>2022-05-21 04:32:51</time>
      </trkpt>
      <trkpt lat="42.00364" lon="2.46046">
        <ele>717.2</ele>
        <time>2022-05-21 04:32:52</time>
      </trkpt>
      <trkpt lat="42.00366" lon="2.46049">
        <ele>717.2</ele>
        <time>2022-05-21 04:32:53</time>
      </trkpt>
      <trkpt lat="42.00369" lon="2.46052">
        <ele>717</ele>
        <time>2022-05-21 04:32:54</time>
      </trkpt>
      <trkpt lat="42.00371" lon="2.46056">
        <ele>717</ele>
        <time>2022-05-21 04:32:55</time>
      </trkpt>
      <trkpt lat="42.00373" lon="2.4606">
        <ele>717</ele>
        <time>2022-05-21 04:32:56</time>
      </trkpt>
      <trkpt lat="42.00374" lon="2.46065">
        <ele>717</ele>
        <time>2022-05-21 04:32:57</time>
      </trkpt>
      <trkpt lat="42.00374" lon="2.46068">
        <ele>717</ele>
        <time>2022-05-21 04:32:58</time>
      </trkpt>
      <trkpt lat="42.00375" lon="2.46071">
        <ele>717.2</ele>
        <time>2022-05-21 04:32:59</time>
      </trkpt>
      <trkpt lat="42.00375" lon="2.46074">
        <ele>717.2</ele>
        <time>2022-05-21 04:33:00</time>
      </trkpt>
      <trkpt lat="42.00374" lon="2.46077">
        <ele>717.4</ele>
        <time>2022-05-21 04:33:01</time>
      </trkpt>
      <trkpt lat="42.00373" lon="2.4608">
        <ele>717.6</ele>
        <time>2022-05-21 04:33:02</time>
      </trkpt>
      <trkpt lat="42.00372" lon="2.46083">
        <ele>717.6</ele>
        <time>2022-05-21 04:33:03</time>
      </trkpt>
      <trkpt lat="42.00371" lon="2.46085">
        <ele>717.8</ele>
        <time>2022-05-21 04:33:04</time>
      </trkpt>
      <trkpt lat="42.0037" lon="2.46087">
        <ele>718</ele>
        <time>2022-05-21 04:33:05</time>
      </trkpt>
      <trkpt lat="42.00369" lon="2.46089">
        <ele>718.2</ele>
        <time>2022-05-21 04:33:06</time>
      </trkpt>
      <trkpt lat="42.00369" lon="2.4609">
        <ele>718.4</ele>
        <time>2022-05-21 04:33:07</time>
      </trkpt>
      <trkpt lat="42.00368" lon="2.46091">
        <ele>718.6</ele>
        <time>2022-05-21 04:33:08</time>
      </trkpt>
      <trkpt lat="42.00367" lon="2.46092">
        <ele>718.8</ele>
        <time>2022-05-21 04:33:09</time>
      </trkpt>
      <trkpt lat="42.00366" lon="2.46093">
        <ele>719</ele>
        <time>2022-05-21 04:33:10</time>
      </trkpt>
      <trkpt lat="42.00365" lon="2.46095">
        <ele>719.2</ele>
        <time>2022-05-21 04:33:11</time>
      </trkpt>
      <trkpt lat="42.00364" lon="2.46097">
        <ele>719.6</ele>
        <time>2022-05-21 04:33:12</time>
      </trkpt>
      <trkpt lat="42.00363" lon="2.46098">
        <ele>719.8</ele>
        <time>2022-05-21 04:33:13</time>
      </trkpt>
      <trkpt lat="42.00362" lon="2.46099">
        <ele>720</ele>
        <time>2022-05-21 04:33:14</time>
      </trkpt>
      <trkpt lat="42.0036" lon="2.461">
        <ele>720.2</ele>
        <time>2022-05-21 04:33:15</time>
      </trkpt>
      <trkpt lat="42.00359" lon="2.46101">
        <ele>720.4</ele>
        <time>2022-05-21 04:33:16</time>
      </trkpt>
      <trkpt lat="42.00358" lon="2.46102">
        <ele>720.6</ele>
        <time>2022-05-21 04:33:17</time>
      </trkpt>
      <trkpt lat="42.00357" lon="2.46103">
        <ele>721</ele>
        <time>2022-05-21 04:33:18</time>
      </trkpt>
      <trkpt lat="42.00356" lon="2.46104">
        <ele>721.2</ele>
        <time>2022-05-21 04:33:19</time>
      </trkpt>
      <trkpt lat="42.00354" lon="2.46105">
        <ele>721.4</ele>
        <time>2022-05-21 04:33:20</time>
      </trkpt>
      <trkpt lat="42.00353" lon="2.46107">
        <ele>721.8</ele>
        <time>2022-05-21 04:33:21</time>
      </trkpt>
      <trkpt lat="42.00352" lon="2.46108">
        <ele>722</ele>
        <time>2022-05-21 04:33:22</time>
      </trkpt>
      <trkpt lat="42.00351" lon="2.4611">
        <ele>722.2</ele>
        <time>2022-05-21 04:33:23</time>
      </trkpt>
      <trkpt lat="42.00351" lon="2.4611">
        <ele>722.4</ele>
        <time>2022-05-21 04:33:24</time>
      </trkpt>
      <trkpt lat="42.0035" lon="2.46111">
        <ele>722.6</ele>
        <time>2022-05-21 04:33:25</time>
      </trkpt>
      <trkpt lat="42.0035" lon="2.46112">
        <ele>722.8</ele>
        <time>2022-05-21 04:33:26</time>
      </trkpt>
      <trkpt lat="42.00349" lon="2.46115">
        <ele>723</ele>
        <time>2022-05-21 04:33:27</time>
      </trkpt>
      <trkpt lat="42.00348" lon="2.46119">
        <ele>723.2</ele>
        <time>2022-05-21 04:33:28</time>
      </trkpt>
      <trkpt lat="42.00348" lon="2.46123">
        <ele>723.4</ele>
        <time>2022-05-21 04:33:29</time>
      </trkpt>
      <trkpt lat="42.00348" lon="2.46125">
        <ele>723.6</ele>
        <time>2022-05-21 04:33:30</time>
      </trkpt>
      <trkpt lat="42.00348" lon="2.46128">
        <ele>723.8</ele>
        <time>2022-05-21 04:33:31</time>
      </trkpt>
      <trkpt lat="42.00348" lon="2.46131">
        <ele>724</ele>
        <time>2022-05-21 04:33:32</time>
      </trkpt>
      <trkpt lat="42.00347" lon="2.46134">
        <ele>724.2</ele>
        <time>2022-05-21 04:33:33</time>
      </trkpt>
      <trkpt lat="42.00348" lon="2.46136">
        <ele>724.4</ele>
        <time>2022-05-21 04:33:34</time>
      </trkpt>
      <trkpt lat="42.00348" lon="2.46138">
        <ele>724.6</ele>
        <time>2022-05-21 04:33:35</time>
      </trkpt>
      <trkpt lat="42.00349" lon="2.4614">
        <ele>724.6</ele>
        <time>2022-05-21 04:33:36</time>
      </trkpt>
      <trkpt lat="42.0035" lon="2.46143">
        <ele>724.8</ele>
        <time>2022-05-21 04:33:37</time>
      </trkpt>
      <trkpt lat="42.00351" lon="2.46146">
        <ele>724.8</ele>
        <time>2022-05-21 04:33:38</time>
      </trkpt>
      <trkpt lat="42.00353" lon="2.46149">
        <ele>725</ele>
        <time>2022-05-21 04:33:39</time>
      </trkpt>
      <trkpt lat="42.00355" lon="2.46151">
        <ele>725</ele>
        <time>2022-05-21 04:33:40</time>
      </trkpt>
      <trkpt lat="42.00357" lon="2.46154">
        <ele>725</ele>
        <time>2022-05-21 04:33:41</time>
      </trkpt>
      <trkpt lat="42.00359" lon="2.46157">
        <ele>725</ele>
        <time>2022-05-21 04:33:42</time>
      </trkpt>
      <trkpt lat="42.00361" lon="2.46159">
        <ele>725</ele>
        <time>2022-05-21 04:33:43</time>
      </trkpt>
      <trkpt lat="42.00363" lon="2.46162">
        <ele>725</ele>
        <time>2022-05-21 04:33:44</time>
      </trkpt>
      <trkpt lat="42.00364" lon="2.46165">
        <ele>725</ele>
        <time>2022-05-21 04:33:45</time>
      </trkpt>
      <trkpt lat="42.00366" lon="2.46168">
        <ele>725</ele>
        <time>2022-05-21 04:33:46</time>
      </trkpt>
      <trkpt lat="42.00368" lon="2.46171">
        <ele>725</ele>
        <time>2022-05-21 04:33:47</time>
      </trkpt>
      <trkpt lat="42.00369" lon="2.46174">
        <ele>725</ele>
        <time>2022-05-21 04:33:48</time>
      </trkpt>
      <trkpt lat="42.0037" lon="2.46176">
        <ele>725</ele>
        <time>2022-05-21 04:33:49</time>
      </trkpt>
      <trkpt lat="42.00372" lon="2.46179">
        <ele>724.8</ele>
        <time>2022-05-21 04:33:50</time>
      </trkpt>
      <trkpt lat="42.00373" lon="2.46182">
        <ele>724.8</ele>
        <time>2022-05-21 04:33:51</time>
      </trkpt>
      <trkpt lat="42.00376" lon="2.46185">
        <ele>724.6</ele>
        <time>2022-05-21 04:33:52</time>
      </trkpt>
      <trkpt lat="42.00379" lon="2.46189">
        <ele>724.4</ele>
        <time>2022-05-21 04:33:53</time>
      </trkpt>
      <trkpt lat="42.00383" lon="2.46193">
        <ele>724.2</ele>
        <time>2022-05-21 04:33:54</time>
      </trkpt>
      <trkpt lat="42.00387" lon="2.46197">
        <ele>724</ele>
        <time>2022-05-21 04:33:55</time>
      </trkpt>
      <trkpt lat="42.00391" lon="2.46202">
        <ele>723.8</ele>
        <time>2022-05-21 04:33:56</time>
      </trkpt>
      <trkpt lat="42.00394" lon="2.46206">
        <ele>723.8</ele>
        <time>2022-05-21 04:33:57</time>
      </trkpt>
      <trkpt lat="42.00398" lon="2.4621">
        <ele>723.8</ele>
        <time>2022-05-21 04:33:58</time>
      </trkpt>
      <trkpt lat="42.00401" lon="2.46215">
        <ele>723.8</ele>
        <time>2022-05-21 04:33:59</time>
      </trkpt>
      <trkpt lat="42.00405" lon="2.46219">
        <ele>723.8</ele>
        <time>2022-05-21 04:34:00</time>
      </trkpt>
      <trkpt lat="42.00408" lon="2.46222">
        <ele>724</ele>
        <time>2022-05-21 04:34:01</time>
      </trkpt>
      <trkpt lat="42.0041" lon="2.46226">
        <ele>724</ele>
        <time>2022-05-21 04:34:02</time>
      </trkpt>
      <trkpt lat="42.00412" lon="2.46229">
        <ele>724.2</ele>
        <time>2022-05-21 04:34:03</time>
      </trkpt>
      <trkpt lat="42.00415" lon="2.46232">
        <ele>724.4</ele>
        <time>2022-05-21 04:34:04</time>
      </trkpt>
      <trkpt lat="42.00417" lon="2.46235">
        <ele>724.8</ele>
        <time>2022-05-21 04:34:05</time>
      </trkpt>
      <trkpt lat="42.00418" lon="2.46237">
        <ele>725</ele>
        <time>2022-05-21 04:34:06</time>
      </trkpt>
      <trkpt lat="42.00419" lon="2.46239">
        <ele>725.2</ele>
        <time>2022-05-21 04:34:07</time>
      </trkpt>
      <trkpt lat="42.00421" lon="2.46241">
        <ele>725.4</ele>
        <time>2022-05-21 04:34:08</time>
      </trkpt>
      <trkpt lat="42.00422" lon="2.46242">
        <ele>725.8</ele>
        <time>2022-05-21 04:34:09</time>
      </trkpt>
      <trkpt lat="42.00423" lon="2.46244">
        <ele>726</ele>
        <time>2022-05-21 04:34:10</time>
      </trkpt>
      <trkpt lat="42.00424" lon="2.46247">
        <ele>726.2</ele>
        <time>2022-05-21 04:34:11</time>
      </trkpt>
      <trkpt lat="42.00425" lon="2.46249">
        <ele>726.4</ele>
        <time>2022-05-21 04:34:12</time>
      </trkpt>
      <trkpt lat="42.00426" lon="2.46251">
        <ele>726.8</ele>
        <time>2022-05-21 04:34:13</time>
      </trkpt>
      <trkpt lat="42.00426" lon="2.46253">
        <ele>727</ele>
        <time>2022-05-21 04:34:14</time>
      </trkpt>
      <trkpt lat="42.00426" lon="2.46255">
        <ele>727.2</ele>
        <time>2022-05-21 04:34:15</time>
      </trkpt>
      <trkpt lat="42.00426" lon="2.46257">
        <ele>727.4</ele>
        <time>2022-05-21 04:34:16</time>
      </trkpt>
      <trkpt lat="42.00426" lon="2.46259">
        <ele>727.6</ele>
        <time>2022-05-21 04:34:17</time>
      </trkpt>
      <trkpt lat="42.00425" lon="2.4626">
        <ele>727.8</ele>
        <time>2022-05-21 04:34:18</time>
      </trkpt>
      <trkpt lat="42.00425" lon="2.46262">
        <ele>728</ele>
        <time>2022-05-21 04:34:19</time>
      </trkpt>
      <trkpt lat="42.00424" lon="2.46264">
        <ele>728.2</ele>
        <time>2022-05-21 04:34:20</time>
      </trkpt>
      <trkpt lat="42.00423" lon="2.46266">
        <ele>728.4</ele>
        <time>2022-05-21 04:34:21</time>
      </trkpt>
      <trkpt lat="42.00422" lon="2.46268">
        <ele>728.6</ele>
        <time>2022-05-21 04:34:22</time>
      </trkpt>
      <trkpt lat="42.00421" lon="2.46269">
        <ele>728.8</ele>
        <time>2022-05-21 04:34:23</time>
      </trkpt>
      <trkpt lat="42.0042" lon="2.4627">
        <ele>729</ele>
        <time>2022-05-21 04:34:24</time>
      </trkpt>
      <trkpt lat="42.00418" lon="2.46271">
        <ele>729.2</ele>
        <time>2022-05-21 04:34:25</time>
      </trkpt>
      <trkpt lat="42.00417" lon="2.46272">
        <ele>729.2</ele>
        <time>2022-05-21 04:34:26</time>
      </trkpt>
      <trkpt lat="42.00416" lon="2.46272">
        <ele>729.4</ele>
        <time>2022-05-21 04:34:27</time>
      </trkpt>
      <trkpt lat="42.00414" lon="2.46273">
        <ele>729.6</ele>
        <time>2022-05-21 04:34:28</time>
      </trkpt>
      <trkpt lat="42.00413" lon="2.46274">
        <ele>729.6</ele>
        <time>2022-05-21 04:34:29</time>
      </trkpt>
      <trkpt lat="42.00412" lon="2.46276">
        <ele>729.8</ele>
        <time>2022-05-21 04:34:30</time>
      </trkpt>
      <trkpt lat="42.0041" lon="2.46278">
        <ele>729.8</ele>
        <time>2022-05-21 04:34:31</time>
      </trkpt>
      <trkpt lat="42.00409" lon="2.4628">
        <ele>730</ele>
        <time>2022-05-21 04:34:32</time>
      </trkpt>
      <trkpt lat="42.00407" lon="2.46282">
        <ele>730</ele>
        <time>2022-05-21 04:34:33</time>
      </trkpt>
      <trkpt lat="42.00406" lon="2.46285">
        <ele>730.2</ele>
        <time>2022-05-21 04:34:34</time>
      </trkpt>
      <trkpt lat="42.00405" lon="2.46287">
        <ele>730.4</ele>
        <time>2022-05-21 04:34:35</time>
      </trkpt>
      <trkpt lat="42.00404" lon="2.4629">
        <ele>730.4</ele>
        <time>2022-05-21 04:34:36</time>
      </trkpt>
      <trkpt lat="42.00403" lon="2.46292">
        <ele>730.6</ele>
        <time>2022-05-21 04:34:37</time>
      </trkpt>
      <trkpt lat="42.00402" lon="2.46295">
        <ele>730.6</ele>
        <time>2022-05-21 04:34:38</time>
      </trkpt>
      <trkpt lat="42.00401" lon="2.46298">
        <ele>730.8</ele>
        <time>2022-05-21 04:34:39</time>
      </trkpt>
      <trkpt lat="42.004" lon="2.463">
        <ele>730.8</ele>
        <time>2022-05-21 04:34:40</time>
      </trkpt>
      <trkpt lat="42.00399" lon="2.46303">
        <ele>731</ele>
        <time>2022-05-21 04:34:41</time>
      </trkpt>
      <trkpt lat="42.00399" lon="2.46306">
        <ele>731</ele>
        <time>2022-05-21 04:34:42</time>
      </trkpt>
      <trkpt lat="42.00398" lon="2.46309">
        <ele>731.2</ele>
        <time>2022-05-21 04:34:43</time>
      </trkpt>
      <trkpt lat="42.00398" lon="2.46312">
        <ele>731.2</ele>
        <time>2022-05-21 04:34:44</time>
      </trkpt>
      <trkpt lat="42.00397" lon="2.46316">
        <ele>731.4</ele>
        <time>2022-05-21 04:34:45</time>
      </trkpt>
      <trkpt lat="42.00397" lon="2.46319">
        <ele>731.6</ele>
        <time>2022-05-21 04:34:46</time>
      </trkpt>
      <trkpt lat="42.00396" lon="2.46323">
        <ele>731.8</ele>
        <time>2022-05-21 04:34:47</time>
      </trkpt>
      <trkpt lat="42.00396" lon="2.46326">
        <ele>731.8</ele>
        <time>2022-05-21 04:34:48</time>
      </trkpt>
      <trkpt lat="42.00396" lon="2.46328">
        <ele>732</ele>
        <time>2022-05-21 04:34:49</time>
      </trkpt>
      <trkpt lat="42.00396" lon="2.46332">
        <ele>732.2</ele>
        <time>2022-05-21 04:34:50</time>
      </trkpt>
      <trkpt lat="42.00395" lon="2.46335">
        <ele>732.4</ele>
        <time>2022-05-21 04:34:51</time>
      </trkpt>
      <trkpt lat="42.00396" lon="2.46338">
        <ele>732.6</ele>
        <time>2022-05-21 04:34:52</time>
      </trkpt>
      <trkpt lat="42.00396" lon="2.46342">
        <ele>732.6</ele>
        <time>2022-05-21 04:34:53</time>
      </trkpt>
      <trkpt lat="42.00397" lon="2.46345">
        <ele>732.8</ele>
        <time>2022-05-21 04:34:54</time>
      </trkpt>
      <trkpt lat="42.00398" lon="2.46348">
        <ele>733</ele>
        <time>2022-05-21 04:34:55</time>
      </trkpt>
      <trkpt lat="42.00399" lon="2.46351">
        <ele>733.2</ele>
        <time>2022-05-21 04:34:56</time>
      </trkpt>
      <trkpt lat="42.00401" lon="2.46353">
        <ele>733.2</ele>
        <time>2022-05-21 04:34:57</time>
      </trkpt>
      <trkpt lat="42.00402" lon="2.46355">
        <ele>733.4</ele>
        <time>2022-05-21 04:34:58</time>
      </trkpt>
      <trkpt lat="42.00404" lon="2.46357">
        <ele>733.6</ele>
        <time>2022-05-21 04:34:59</time>
      </trkpt>
      <trkpt lat="42.00406" lon="2.46359">
        <ele>733.6</ele>
        <time>2022-05-21 04:35:00</time>
      </trkpt>
      <trkpt lat="42.00408" lon="2.46359">
        <ele>733.6</ele>
        <time>2022-05-21 04:35:01</time>
      </trkpt>
      <trkpt lat="42.0041" lon="2.4636">
        <ele>733.6</ele>
        <time>2022-05-21 04:35:02</time>
      </trkpt>
      <trkpt lat="42.00412" lon="2.4636">
        <ele>733.8</ele>
        <time>2022-05-21 04:35:03</time>
      </trkpt>
      <trkpt lat="42.00414" lon="2.46361">
        <ele>733.8</ele>
        <time>2022-05-21 04:35:04</time>
      </trkpt>
      <trkpt lat="42.00417" lon="2.46362">
        <ele>733.8</ele>
        <time>2022-05-21 04:35:05</time>
      </trkpt>
      <trkpt lat="42.00419" lon="2.46363">
        <ele>733.8</ele>
        <time>2022-05-21 04:35:06</time>
      </trkpt>
      <trkpt lat="42.00422" lon="2.46364">
        <ele>734</ele>
        <time>2022-05-21 04:35:07</time>
      </trkpt>
      <trkpt lat="42.00424" lon="2.46365">
        <ele>734</ele>
        <time>2022-05-21 04:35:08</time>
      </trkpt>
      <trkpt lat="42.00427" lon="2.46366">
        <ele>734.2</ele>
        <time>2022-05-21 04:35:09</time>
      </trkpt>
      <trkpt lat="42.0043" lon="2.46367">
        <ele>734.2</ele>
        <time>2022-05-21 04:35:10</time>
      </trkpt>
      <trkpt lat="42.00432" lon="2.46369">
        <ele>734.4</ele>
        <time>2022-05-21 04:35:11</time>
      </trkpt>
      <trkpt lat="42.00434" lon="2.4637">
        <ele>734.4</ele>
        <time>2022-05-21 04:35:12</time>
      </trkpt>
      <trkpt lat="42.00437" lon="2.46371">
        <ele>734.4</ele>
        <time>2022-05-21 04:35:13</time>
      </trkpt>
      <trkpt lat="42.00439" lon="2.46372">
        <ele>734.6</ele>
        <time>2022-05-21 04:35:14</time>
      </trkpt>
      <trkpt lat="42.00442" lon="2.46373">
        <ele>734.6</ele>
        <time>2022-05-21 04:35:15</time>
      </trkpt>
      <trkpt lat="42.00444" lon="2.46374">
        <ele>734.8</ele>
        <time>2022-05-21 04:35:16</time>
      </trkpt>
      <trkpt lat="42.00447" lon="2.46374">
        <ele>734.8</ele>
        <time>2022-05-21 04:35:17</time>
      </trkpt>
      <trkpt lat="42.00449" lon="2.46375">
        <ele>735</ele>
        <time>2022-05-21 04:35:18</time>
      </trkpt>
      <trkpt lat="42.00451" lon="2.46376">
        <ele>735.2</ele>
        <time>2022-05-21 04:35:19</time>
      </trkpt>
      <trkpt lat="42.00453" lon="2.46377">
        <ele>735.4</ele>
        <time>2022-05-21 04:35:20</time>
      </trkpt>
      <trkpt lat="42.00455" lon="2.46377">
        <ele>735.4</ele>
        <time>2022-05-21 04:35:21</time>
      </trkpt>
      <trkpt lat="42.00457" lon="2.46378">
        <ele>735.6</ele>
        <time>2022-05-21 04:35:22</time>
      </trkpt>
      <trkpt lat="42.00459" lon="2.46378">
        <ele>735.8</ele>
        <time>2022-05-21 04:35:23</time>
      </trkpt>
      <trkpt lat="42.00461" lon="2.46379">
        <ele>736</ele>
        <time>2022-05-21 04:35:24</time>
      </trkpt>
      <trkpt lat="42.00463" lon="2.46379">
        <ele>736.2</ele>
        <time>2022-05-21 04:35:25</time>
      </trkpt>
      <trkpt lat="42.00465" lon="2.4638">
        <ele>736.4</ele>
        <time>2022-05-21 04:35:26</time>
      </trkpt>
      <trkpt lat="42.00468" lon="2.4638">
        <ele>736.8</ele>
        <time>2022-05-21 04:35:27</time>
      </trkpt>
      <trkpt lat="42.0047" lon="2.46381">
        <ele>737</ele>
        <time>2022-05-21 04:35:28</time>
      </trkpt>
      <trkpt lat="42.00472" lon="2.46381">
        <ele>737.2</ele>
        <time>2022-05-21 04:35:29</time>
      </trkpt>
      <trkpt lat="42.00474" lon="2.46382">
        <ele>737.4</ele>
        <time>2022-05-21 04:35:30</time>
      </trkpt>
      <trkpt lat="42.00476" lon="2.46382">
        <ele>737.6</ele>
        <time>2022-05-21 04:35:31</time>
      </trkpt>
      <trkpt lat="42.00478" lon="2.46382">
        <ele>737.8</ele>
        <time>2022-05-21 04:35:32</time>
      </trkpt>
      <trkpt lat="42.00481" lon="2.46382">
        <ele>738.2</ele>
        <time>2022-05-21 04:35:33</time>
      </trkpt>
      <trkpt lat="42.00483" lon="2.46382">
        <ele>738.4</ele>
        <time>2022-05-21 04:35:34</time>
      </trkpt>
      <trkpt lat="42.00485" lon="2.46382">
        <ele>738.6</ele>
        <time>2022-05-21 04:35:35</time>
      </trkpt>
      <trkpt lat="42.00488" lon="2.46383">
        <ele>738.8</ele>
        <time>2022-05-21 04:35:36</time>
      </trkpt>
      <trkpt lat="42.0049" lon="2.46383">
        <ele>739</ele>
        <time>2022-05-21 04:35:37</time>
      </trkpt>
      <trkpt lat="42.00492" lon="2.46383">
        <ele>739.4</ele>
        <time>2022-05-21 04:35:38</time>
      </trkpt>
      <trkpt lat="42.00495" lon="2.46383">
        <ele>739.6</ele>
        <time>2022-05-21 04:35:39</time>
      </trkpt>
      <trkpt lat="42.00497" lon="2.46384">
        <ele>739.8</ele>
        <time>2022-05-21 04:35:40</time>
      </trkpt>
      <trkpt lat="42.005" lon="2.46384">
        <ele>740</ele>
        <time>2022-05-21 04:35:41</time>
      </trkpt>
      <trkpt lat="42.00502" lon="2.46384">
        <ele>740.2</ele>
        <time>2022-05-21 04:35:42</time>
      </trkpt>
      <trkpt lat="42.00505" lon="2.46384">
        <ele>740.6</ele>
        <time>2022-05-21 04:35:43</time>
      </trkpt>
      <trkpt lat="42.00507" lon="2.46384">
        <ele>740.8</ele>
        <time>2022-05-21 04:35:44</time>
      </trkpt>
      <trkpt lat="42.0051" lon="2.46385">
        <ele>741</ele>
        <time>2022-05-21 04:35:45</time>
      </trkpt>
      <trkpt lat="42.00512" lon="2.46385">
        <ele>741.2</ele>
        <time>2022-05-21 04:35:46</time>
      </trkpt>
      <trkpt lat="42.00515" lon="2.46385">
        <ele>741.4</ele>
        <time>2022-05-21 04:35:47</time>
      </trkpt>
      <trkpt lat="42.00518" lon="2.46386">
        <ele>741.6</ele>
        <time>2022-05-21 04:35:48</time>
      </trkpt>
      <trkpt lat="42.0052" lon="2.46386">
        <ele>741.6</ele>
        <time>2022-05-21 04:35:49</time>
      </trkpt>
      <trkpt lat="42.00523" lon="2.46386">
        <ele>741.8</ele>
        <time>2022-05-21 04:35:50</time>
      </trkpt>
      <trkpt lat="42.00526" lon="2.46386">
        <ele>742</ele>
        <time>2022-05-21 04:35:51</time>
      </trkpt>
      <trkpt lat="42.00528" lon="2.46385">
        <ele>742.2</ele>
        <time>2022-05-21 04:35:52</time>
      </trkpt>
      <trkpt lat="42.00531" lon="2.46384">
        <ele>742.2</ele>
        <time>2022-05-21 04:35:53</time>
      </trkpt>
      <trkpt lat="42.00534" lon="2.46383">
        <ele>742.4</ele>
        <time>2022-05-21 04:35:54</time>
      </trkpt>
      <trkpt lat="42.00536" lon="2.46382">
        <ele>742.4</ele>
        <time>2022-05-21 04:35:55</time>
      </trkpt>
      <trkpt lat="42.00538" lon="2.4638">
        <ele>742.6</ele>
        <time>2022-05-21 04:35:56</time>
      </trkpt>
      <trkpt lat="42.00541" lon="2.46378">
        <ele>742.8</ele>
        <time>2022-05-21 04:35:57</time>
      </trkpt>
      <trkpt lat="42.00542" lon="2.46376">
        <ele>742.8</ele>
        <time>2022-05-21 04:35:58</time>
      </trkpt>
      <trkpt lat="42.00544" lon="2.46373">
        <ele>743</ele>
        <time>2022-05-21 04:35:59</time>
      </trkpt>
      <trkpt lat="42.00546" lon="2.46371">
        <ele>743</ele>
        <time>2022-05-21 04:36:00</time>
      </trkpt>
      <trkpt lat="42.00548" lon="2.46368">
        <ele>743.2</ele>
        <time>2022-05-21 04:36:01</time>
      </trkpt>
      <trkpt lat="42.00549" lon="2.46365">
        <ele>743.2</ele>
        <time>2022-05-21 04:36:02</time>
      </trkpt>
      <trkpt lat="42.0055" lon="2.46361">
        <ele>743.4</ele>
        <time>2022-05-21 04:36:03</time>
      </trkpt>
      <trkpt lat="42.00552" lon="2.46358">
        <ele>743.4</ele>
        <time>2022-05-21 04:36:04</time>
      </trkpt>
      <trkpt lat="42.00554" lon="2.46355">
        <ele>743.6</ele>
        <time>2022-05-21 04:36:05</time>
      </trkpt>
      <trkpt lat="42.00555" lon="2.46352">
        <ele>743.6</ele>
        <time>2022-05-21 04:36:06</time>
      </trkpt>
      <trkpt lat="42.00558" lon="2.46349">
        <ele>743.8</ele>
        <time>2022-05-21 04:36:07</time>
      </trkpt>
      <trkpt lat="42.0056" lon="2.46346">
        <ele>743.8</ele>
        <time>2022-05-21 04:36:08</time>
      </trkpt>
      <trkpt lat="42.00562" lon="2.46344">
        <ele>744</ele>
        <time>2022-05-21 04:36:09</time>
      </trkpt>
      <trkpt lat="42.00564" lon="2.46341">
        <ele>744</ele>
        <time>2022-05-21 04:36:10</time>
      </trkpt>
      <trkpt lat="42.00566" lon="2.46339">
        <ele>744.2</ele>
        <time>2022-05-21 04:36:11</time>
      </trkpt>
      <trkpt lat="42.00568" lon="2.46338">
        <ele>744.2</ele>
        <time>2022-05-21 04:36:12</time>
      </trkpt>
      <trkpt lat="42.0057" lon="2.46336">
        <ele>744.4</ele>
        <time>2022-05-21 04:36:13</time>
      </trkpt>
      <trkpt lat="42.00572" lon="2.46334">
        <ele>744.6</ele>
        <time>2022-05-21 04:36:14</time>
      </trkpt>
      <trkpt lat="42.00574" lon="2.46332">
        <ele>744.8</ele>
        <time>2022-05-21 04:36:15</time>
      </trkpt>
      <trkpt lat="42.00577" lon="2.4633">
        <ele>745</ele>
        <time>2022-05-21 04:36:16</time>
      </trkpt>
      <trkpt lat="42.00579" lon="2.46327">
        <ele>745.2</ele>
        <time>2022-05-21 04:36:17</time>
      </trkpt>
      <trkpt lat="42.00582" lon="2.46325">
        <ele>745.2</ele>
        <time>2022-05-21 04:36:18</time>
      </trkpt>
      <trkpt lat="42.00584" lon="2.46323">
        <ele>745.4</ele>
        <time>2022-05-21 04:36:19</time>
      </trkpt>
      <trkpt lat="42.00587" lon="2.46321">
        <ele>745.6</ele>
        <time>2022-05-21 04:36:20</time>
      </trkpt>
      <trkpt lat="42.0059" lon="2.46319">
        <ele>745.8</ele>
        <time>2022-05-21 04:36:21</time>
      </trkpt>
      <trkpt lat="42.00592" lon="2.46317">
        <ele>745.8</ele>
        <time>2022-05-21 04:36:22</time>
      </trkpt>
      <trkpt lat="42.00595" lon="2.46315">
        <ele>746</ele>
        <time>2022-05-21 04:36:23</time>
      </trkpt>
      <trkpt lat="42.00597" lon="2.46313">
        <ele>746.2</ele>
        <time>2022-05-21 04:36:24</time>
      </trkpt>
      <trkpt lat="42.006" lon="2.46311">
        <ele>746.2</ele>
        <time>2022-05-21 04:36:25</time>
      </trkpt>
      <trkpt lat="42.00602" lon="2.46309">
        <ele>746.4</ele>
        <time>2022-05-21 04:36:26</time>
      </trkpt>
      <trkpt lat="42.00604" lon="2.46308">
        <ele>746.6</ele>
        <time>2022-05-21 04:36:27</time>
      </trkpt>
      <trkpt lat="42.00607" lon="2.46306">
        <ele>746.8</ele>
        <time>2022-05-21 04:36:28</time>
      </trkpt>
      <trkpt lat="42.00609" lon="2.46303">
        <ele>746.8</ele>
        <time>2022-05-21 04:36:29</time>
      </trkpt>
      <trkpt lat="42.00611" lon="2.46301">
        <ele>747</ele>
        <time>2022-05-21 04:36:30</time>
      </trkpt>
      <trkpt lat="42.00613" lon="2.46298">
        <ele>747</ele>
        <time>2022-05-21 04:36:31</time>
      </trkpt>
      <trkpt lat="42.00614" lon="2.46295">
        <ele>747</ele>
        <time>2022-05-21 04:36:32</time>
      </trkpt>
      <trkpt lat="42.00615" lon="2.46292">
        <ele>747</ele>
        <time>2022-05-21 04:36:33</time>
      </trkpt>
      <trkpt lat="42.00615" lon="2.46288">
        <ele>746.8</ele>
        <time>2022-05-21 04:36:34</time>
      </trkpt>
      <trkpt lat="42.00616" lon="2.46283">
        <ele>746.8</ele>
        <time>2022-05-21 04:36:35</time>
      </trkpt>
      <trkpt lat="42.00617" lon="2.46279">
        <ele>746.6</ele>
        <time>2022-05-21 04:36:36</time>
      </trkpt>
      <trkpt lat="42.00618" lon="2.46274">
        <ele>746.2</ele>
        <time>2022-05-21 04:36:37</time>
      </trkpt>
      <trkpt lat="42.00619" lon="2.46269">
        <ele>746</ele>
        <time>2022-05-21 04:36:38</time>
      </trkpt>
      <trkpt lat="42.0062" lon="2.46264">
        <ele>745.4</ele>
        <time>2022-05-21 04:36:39</time>
      </trkpt>
      <trkpt lat="42.00621" lon="2.46258">
        <ele>745</ele>
        <time>2022-05-21 04:36:40</time>
      </trkpt>
      <trkpt lat="42.00622" lon="2.46252">
        <ele>744.6</ele>
        <time>2022-05-21 04:36:41</time>
      </trkpt>
      <trkpt lat="42.00624" lon="2.46247">
        <ele>744</ele>
        <time>2022-05-21 04:36:42</time>
      </trkpt>
      <trkpt lat="42.00628" lon="2.46241">
        <ele>743.6</ele>
        <time>2022-05-21 04:36:43</time>
      </trkpt>
      <trkpt lat="42.00631" lon="2.46235">
        <ele>743.2</ele>
        <time>2022-05-21 04:36:44</time>
      </trkpt>
      <trkpt lat="42.00635" lon="2.4623">
        <ele>742.8</ele>
        <time>2022-05-21 04:36:45</time>
      </trkpt>
      <trkpt lat="42.00639" lon="2.46226">
        <ele>742.4</ele>
        <time>2022-05-21 04:36:46</time>
      </trkpt>
      <trkpt lat="42.00642" lon="2.46224">
        <ele>742.2</ele>
        <time>2022-05-21 04:36:47</time>
      </trkpt>
      <trkpt lat="42.00647" lon="2.46221">
        <ele>742</ele>
        <time>2022-05-21 04:36:48</time>
      </trkpt>
      <trkpt lat="42.00651" lon="2.4622">
        <ele>741.8</ele>
        <time>2022-05-21 04:36:49</time>
      </trkpt>
      <trkpt lat="42.00655" lon="2.46219">
        <ele>741.6</ele>
        <time>2022-05-21 04:36:50</time>
      </trkpt>
      <trkpt lat="42.00659" lon="2.46218">
        <ele>741.6</ele>
        <time>2022-05-21 04:36:51</time>
      </trkpt>
      <trkpt lat="42.00663" lon="2.46219">
        <ele>741.6</ele>
        <time>2022-05-21 04:36:52</time>
      </trkpt>
      <trkpt lat="42.00667" lon="2.46219">
        <ele>741.6</ele>
        <time>2022-05-21 04:36:53</time>
      </trkpt>
      <trkpt lat="42.00671" lon="2.4622">
        <ele>741.8</ele>
        <time>2022-05-21 04:36:54</time>
      </trkpt>
      <trkpt lat="42.00673" lon="2.46222">
        <ele>741.8</ele>
        <time>2022-05-21 04:36:55</time>
      </trkpt>
      <trkpt lat="42.00676" lon="2.46224">
        <ele>742</ele>
        <time>2022-05-21 04:36:56</time>
      </trkpt>
      <trkpt lat="42.00679" lon="2.46225">
        <ele>742.2</ele>
        <time>2022-05-21 04:36:57</time>
      </trkpt>
      <trkpt lat="42.00682" lon="2.46227">
        <ele>742.4</ele>
        <time>2022-05-21 04:36:58</time>
      </trkpt>
      <trkpt lat="42.00687" lon="2.46228">
        <ele>742.8</ele>
        <time>2022-05-21 04:36:59</time>
      </trkpt>
      <trkpt lat="42.00691" lon="2.46229">
        <ele>743</ele>
        <time>2022-05-21 04:37:00</time>
      </trkpt>
      <trkpt lat="42.00695" lon="2.4623">
        <ele>743.2</ele>
        <time>2022-05-21 04:37:01</time>
      </trkpt>
      <trkpt lat="42.00699" lon="2.46231">
        <ele>743.4</ele>
        <time>2022-05-21 04:37:02</time>
      </trkpt>
      <trkpt lat="42.00702" lon="2.46231">
        <ele>743.8</ele>
        <time>2022-05-21 04:37:03</time>
      </trkpt>
      <trkpt lat="42.00705" lon="2.46232">
        <ele>744</ele>
        <time>2022-05-21 04:37:04</time>
      </trkpt>
      <trkpt lat="42.00707" lon="2.46232">
        <ele>744.2</ele>
        <time>2022-05-21 04:37:05</time>
      </trkpt>
      <trkpt lat="42.00711" lon="2.46232">
        <ele>744.6</ele>
        <time>2022-05-21 04:37:06</time>
      </trkpt>
      <trkpt lat="42.00714" lon="2.46231">
        <ele>744.8</ele>
        <time>2022-05-21 04:37:07</time>
      </trkpt>
      <trkpt lat="42.00717" lon="2.46231">
        <ele>745</ele>
        <time>2022-05-21 04:37:08</time>
      </trkpt>
      <trkpt lat="42.0072" lon="2.46231">
        <ele>745.2</ele>
        <time>2022-05-21 04:37:09</time>
      </trkpt>
      <trkpt lat="42.00723" lon="2.4623">
        <ele>745.6</ele>
        <time>2022-05-21 04:37:10</time>
      </trkpt>
      <trkpt lat="42.00725" lon="2.46229">
        <ele>745.8</ele>
        <time>2022-05-21 04:37:11</time>
      </trkpt>
      <trkpt lat="42.00728" lon="2.46227">
        <ele>746</ele>
        <time>2022-05-21 04:37:12</time>
      </trkpt>
      <trkpt lat="42.00731" lon="2.46226">
        <ele>746.2</ele>
        <time>2022-05-21 04:37:13</time>
      </trkpt>
      <trkpt lat="42.00734" lon="2.46224">
        <ele>746.4</ele>
        <time>2022-05-21 04:37:14</time>
      </trkpt>
      <trkpt lat="42.00737" lon="2.46223">
        <ele>746.8</ele>
        <time>2022-05-21 04:37:15</time>
      </trkpt>
      <trkpt lat="42.00739" lon="2.46222">
        <ele>747</ele>
        <time>2022-05-21 04:37:16</time>
      </trkpt>
      <trkpt lat="42.00741" lon="2.46221">
        <ele>747.2</ele>
        <time>2022-05-21 04:37:17</time>
      </trkpt>
      <trkpt lat="42.00743" lon="2.4622">
        <ele>747.2</ele>
        <time>2022-05-21 04:37:18</time>
      </trkpt>
      <trkpt lat="42.00745" lon="2.46219">
        <ele>747.4</ele>
        <time>2022-05-21 04:37:19</time>
      </trkpt>
      <trkpt lat="42.00748" lon="2.46216">
        <ele>747.6</ele>
        <time>2022-05-21 04:37:20</time>
      </trkpt>
      <trkpt lat="42.00751" lon="2.46214">
        <ele>747.8</ele>
        <time>2022-05-21 04:37:21</time>
      </trkpt>
      <trkpt lat="42.00754" lon="2.46212">
        <ele>747.8</ele>
        <time>2022-05-21 04:37:22</time>
      </trkpt>
      <trkpt lat="42.00756" lon="2.4621">
        <ele>747.8</ele>
        <time>2022-05-21 04:37:23</time>
      </trkpt>
      <trkpt lat="42.0076" lon="2.46208">
        <ele>747.8</ele>
        <time>2022-05-21 04:37:24</time>
      </trkpt>
      <trkpt lat="42.00764" lon="2.46205">
        <ele>747.8</ele>
        <time>2022-05-21 04:37:25</time>
      </trkpt>
      <trkpt lat="42.00768" lon="2.46202">
        <ele>747.6</ele>
        <time>2022-05-21 04:37:26</time>
      </trkpt>
      <trkpt lat="42.00772" lon="2.46198">
        <ele>747.4</ele>
        <time>2022-05-21 04:37:27</time>
      </trkpt>
      <trkpt lat="42.00776" lon="2.46195">
        <ele>747.2</ele>
        <time>2022-05-21 04:37:28</time>
      </trkpt>
      <trkpt lat="42.00779" lon="2.4619">
        <ele>747</ele>
        <time>2022-05-21 04:37:29</time>
      </trkpt>
      <trkpt lat="42.00782" lon="2.46185">
        <ele>746.6</ele>
        <time>2022-05-21 04:37:30</time>
      </trkpt>
      <trkpt lat="42.00785" lon="2.4618">
        <ele>746.4</ele>
        <time>2022-05-21 04:37:31</time>
      </trkpt>
      <trkpt lat="42.00788" lon="2.46174">
        <ele>746</ele>
        <time>2022-05-21 04:37:32</time>
      </trkpt>
      <trkpt lat="42.00792" lon="2.46169">
        <ele>745.6</ele>
        <time>2022-05-21 04:37:33</time>
      </trkpt>
      <trkpt lat="42.00796" lon="2.46163">
        <ele>745.2</ele>
        <time>2022-05-21 04:37:34</time>
      </trkpt>
      <trkpt lat="42.008" lon="2.46157">
        <ele>745</ele>
        <time>2022-05-21 04:37:35</time>
      </trkpt>
      <trkpt lat="42.00805" lon="2.46153">
        <ele>744.6</ele>
        <time>2022-05-21 04:37:36</time>
      </trkpt>
      <trkpt lat="42.00809" lon="2.4615">
        <ele>744.4</ele>
        <time>2022-05-21 04:37:37</time>
      </trkpt>
      <trkpt lat="42.00814" lon="2.46149">
        <ele>744.2</ele>
        <time>2022-05-21 04:37:38</time>
      </trkpt>
      <trkpt lat="42.00819" lon="2.46149">
        <ele>744</ele>
        <time>2022-05-21 04:37:39</time>
      </trkpt>
      <trkpt lat="42.00825" lon="2.4615">
        <ele>743.8</ele>
        <time>2022-05-21 04:37:40</time>
      </trkpt>
      <trkpt lat="42.0083" lon="2.46151">
        <ele>743.8</ele>
        <time>2022-05-21 04:37:41</time>
      </trkpt>
      <trkpt lat="42.00837" lon="2.46152">
        <ele>743.8</ele>
        <time>2022-05-21 04:37:42</time>
      </trkpt>
      <trkpt lat="42.00842" lon="2.46152">
        <ele>743.6</ele>
        <time>2022-05-21 04:37:43</time>
      </trkpt>
      <trkpt lat="42.00848" lon="2.46151">
        <ele>743.6</ele>
        <time>2022-05-21 04:37:44</time>
      </trkpt>
      <trkpt lat="42.00853" lon="2.4615">
        <ele>743.6</ele>
        <time>2022-05-21 04:37:45</time>
      </trkpt>
      <trkpt lat="42.00858" lon="2.46147">
        <ele>743.4</ele>
        <time>2022-05-21 04:37:46</time>
      </trkpt>
      <trkpt lat="42.00862" lon="2.46142">
        <ele>743.4</ele>
        <time>2022-05-21 04:37:47</time>
      </trkpt>
      <trkpt lat="42.00867" lon="2.46138">
        <ele>743.2</ele>
        <time>2022-05-21 04:37:48</time>
      </trkpt>
      <trkpt lat="42.00871" lon="2.46133">
        <ele>743</ele>
        <time>2022-05-21 04:37:49</time>
      </trkpt>
      <trkpt lat="42.00874" lon="2.46129">
        <ele>742.8</ele>
        <time>2022-05-21 04:37:50</time>
      </trkpt>
      <trkpt lat="42.00879" lon="2.46125">
        <ele>742.6</ele>
        <time>2022-05-21 04:37:51</time>
      </trkpt>
      <trkpt lat="42.00883" lon="2.46123">
        <ele>742.4</ele>
        <time>2022-05-21 04:37:52</time>
      </trkpt>
      <trkpt lat="42.00888" lon="2.46122">
        <ele>742.4</ele>
        <time>2022-05-21 04:37:53</time>
      </trkpt>
      <trkpt lat="42.00894" lon="2.46122">
        <ele>742</ele>
        <time>2022-05-21 04:37:54</time>
      </trkpt>
      <trkpt lat="42.009" lon="2.46122">
        <ele>741.8</ele>
        <time>2022-05-21 04:37:55</time>
      </trkpt>
      <trkpt lat="42.00906" lon="2.46121">
        <ele>741.4</ele>
        <time>2022-05-21 04:37:56</time>
      </trkpt>
      <trkpt lat="42.00911" lon="2.46118">
        <ele>741.2</ele>
        <time>2022-05-21 04:37:57</time>
      </trkpt>
      <trkpt lat="42.00916" lon="2.46113">
        <ele>740.8</ele>
        <time>2022-05-21 04:37:58</time>
      </trkpt>
      <trkpt lat="42.00921" lon="2.46106">
        <ele>740.4</ele>
        <time>2022-05-21 04:37:59</time>
      </trkpt>
      <trkpt lat="42.00926" lon="2.461">
        <ele>740.2</ele>
        <time>2022-05-21 04:38:00</time>
      </trkpt>
      <trkpt lat="42.00932" lon="2.46094">
        <ele>740</ele>
        <time>2022-05-21 04:38:01</time>
      </trkpt>
      <trkpt lat="42.00938" lon="2.46089">
        <ele>739.8</ele>
        <time>2022-05-21 04:38:02</time>
      </trkpt>
      <trkpt lat="42.00945" lon="2.46085">
        <ele>739.8</ele>
        <time>2022-05-21 04:38:03</time>
      </trkpt>
      <trkpt lat="42.00951" lon="2.46081">
        <ele>739.6</ele>
        <time>2022-05-21 04:38:04</time>
      </trkpt>
      <trkpt lat="42.00956" lon="2.46076">
        <ele>739.6</ele>
        <time>2022-05-21 04:38:05</time>
      </trkpt>
      <trkpt lat="42.00961" lon="2.46071">
        <ele>739.4</ele>
        <time>2022-05-21 04:38:06</time>
      </trkpt>
      <trkpt lat="42.00965" lon="2.46064">
        <ele>739.4</ele>
        <time>2022-05-21 04:38:07</time>
      </trkpt>
      <trkpt lat="42.00968" lon="2.46057">
        <ele>739.2</ele>
        <time>2022-05-21 04:38:08</time>
      </trkpt>
      <trkpt lat="42.0097" lon="2.46049">
        <ele>739.2</ele>
        <time>2022-05-21 04:38:09</time>
      </trkpt>
      <trkpt lat="42.00972" lon="2.4604">
        <ele>739</ele>
        <time>2022-05-21 04:38:10</time>
      </trkpt>
      <trkpt lat="42.00974" lon="2.46032">
        <ele>739</ele>
        <time>2022-05-21 04:38:11</time>
      </trkpt>
      <trkpt lat="42.00976" lon="2.46024">
        <ele>739.2</ele>
        <time>2022-05-21 04:38:12</time>
      </trkpt>
      <trkpt lat="42.00978" lon="2.46018">
        <ele>739.2</ele>
        <time>2022-05-21 04:38:13</time>
      </trkpt>
      <trkpt lat="42.0098" lon="2.46013">
        <ele>739.6</ele>
        <time>2022-05-21 04:38:14</time>
      </trkpt>
      <trkpt lat="42.00982" lon="2.46007">
        <ele>739.8</ele>
        <time>2022-05-21 04:38:15</time>
      </trkpt>
      <trkpt lat="42.00984" lon="2.46001">
        <ele>740.2</ele>
        <time>2022-05-21 04:38:16</time>
      </trkpt>
      <trkpt lat="42.00986" lon="2.45995">
        <ele>740.6</ele>
        <time>2022-05-21 04:38:17</time>
      </trkpt>
      <trkpt lat="42.00987" lon="2.45989">
        <ele>740.8</ele>
        <time>2022-05-21 04:38:18</time>
      </trkpt>
      <trkpt lat="42.00988" lon="2.45982">
        <ele>741</ele>
        <time>2022-05-21 04:38:19</time>
      </trkpt>
      <trkpt lat="42.0099" lon="2.45975">
        <ele>741.2</ele>
        <time>2022-05-21 04:38:20</time>
      </trkpt>
      <trkpt lat="42.00993" lon="2.45968">
        <ele>741.2</ele>
        <time>2022-05-21 04:38:21</time>
      </trkpt>
      <trkpt lat="42.00996" lon="2.45961">
        <ele>741.4</ele>
        <time>2022-05-21 04:38:22</time>
      </trkpt>
      <trkpt lat="42.00998" lon="2.45955">
        <ele>741.4</ele>
        <time>2022-05-21 04:38:23</time>
      </trkpt>
      <trkpt lat="42.01001" lon="2.4595">
        <ele>741.6</ele>
        <time>2022-05-21 04:38:24</time>
      </trkpt>
      <trkpt lat="42.01003" lon="2.45946">
        <ele>741.8</ele>
        <time>2022-05-21 04:38:25</time>
      </trkpt>
      <trkpt lat="42.01007" lon="2.45945">
        <ele>741.8</ele>
        <time>2022-05-21 04:38:26</time>
      </trkpt>
      <trkpt lat="42.01012" lon="2.45948">
        <ele>742</ele>
        <time>2022-05-21 04:38:27</time>
      </trkpt>
      <trkpt lat="42.01017" lon="2.45951">
        <ele>742.2</ele>
        <time>2022-05-21 04:38:28</time>
      </trkpt>
      <trkpt lat="42.01022" lon="2.45954">
        <ele>742.2</ele>
        <time>2022-05-21 04:38:29</time>
      </trkpt>
      <trkpt lat="42.01027" lon="2.45958">
        <ele>742.4</ele>
        <time>2022-05-21 04:38:30</time>
      </trkpt>
      <trkpt lat="42.01033" lon="2.45961">
        <ele>742.4</ele>
        <time>2022-05-21 04:38:31</time>
      </trkpt>
      <trkpt lat="42.01039" lon="2.45965">
        <ele>742.4</ele>
        <time>2022-05-21 04:38:32</time>
      </trkpt>
      <trkpt lat="42.01045" lon="2.45968">
        <ele>742.4</ele>
        <time>2022-05-21 04:38:33</time>
      </trkpt>
      <trkpt lat="42.01051" lon="2.45972">
        <ele>742.2</ele>
        <time>2022-05-21 04:38:34</time>
      </trkpt>
      <trkpt lat="42.01057" lon="2.45975">
        <ele>742</ele>
        <time>2022-05-21 04:38:35</time>
      </trkpt>
      <trkpt lat="42.01064" lon="2.45979">
        <ele>741.8</ele>
        <time>2022-05-21 04:38:36</time>
      </trkpt>
      <trkpt lat="42.0107" lon="2.45982">
        <ele>741.4</ele>
        <time>2022-05-21 04:38:37</time>
      </trkpt>
      <trkpt lat="42.01077" lon="2.45986">
        <ele>741</ele>
        <time>2022-05-21 04:38:38</time>
      </trkpt>
      <trkpt lat="42.01084" lon="2.4599">
        <ele>740.6</ele>
        <time>2022-05-21 04:38:39</time>
      </trkpt>
      <trkpt lat="42.0109" lon="2.45995">
        <ele>740.2</ele>
        <time>2022-05-21 04:38:40</time>
      </trkpt>
      <trkpt lat="42.01097" lon="2.46001">
        <ele>739.6</ele>
        <time>2022-05-21 04:38:41</time>
      </trkpt>
      <trkpt lat="42.01104" lon="2.46006">
        <ele>739</ele>
        <time>2022-05-21 04:38:42</time>
      </trkpt>
      <trkpt lat="42.01112" lon="2.4601">
        <ele>738.4</ele>
        <time>2022-05-21 04:38:43</time>
      </trkpt>
      <trkpt lat="42.0112" lon="2.46015">
        <ele>737.6</ele>
        <time>2022-05-21 04:38:44</time>
      </trkpt>
      <trkpt lat="42.01128" lon="2.46019">
        <ele>737</ele>
        <time>2022-05-21 04:38:45</time>
      </trkpt>
      <trkpt lat="42.01135" lon="2.46025">
        <ele>736.6</ele>
        <time>2022-05-21 04:38:46</time>
      </trkpt>
      <trkpt lat="42.01141" lon="2.4603">
        <ele>736.2</ele>
        <time>2022-05-21 04:38:47</time>
      </trkpt>
      <trkpt lat="42.01148" lon="2.46034">
        <ele>735.8</ele>
        <time>2022-05-21 04:38:48</time>
      </trkpt>
      <trkpt lat="42.01156" lon="2.46036">
        <ele>735.4</ele>
        <time>2022-05-21 04:38:49</time>
      </trkpt>
      <trkpt lat="42.01163" lon="2.46036">
        <ele>735</ele>
        <time>2022-05-21 04:38:50</time>
      </trkpt>
      <trkpt lat="42.0117" lon="2.46034">
        <ele>734.6</ele>
        <time>2022-05-21 04:38:51</time>
      </trkpt>
      <trkpt lat="42.01178" lon="2.46032">
        <ele>734.4</ele>
        <time>2022-05-21 04:38:52</time>
      </trkpt>
      <trkpt lat="42.01184" lon="2.46029">
        <ele>734.2</ele>
        <time>2022-05-21 04:38:53</time>
      </trkpt>
      <trkpt lat="42.0119" lon="2.46027">
        <ele>734.2</ele>
        <time>2022-05-21 04:38:54</time>
      </trkpt>
      <trkpt lat="42.01196" lon="2.46026">
        <ele>734.2</ele>
        <time>2022-05-21 04:38:55</time>
      </trkpt>
      <trkpt lat="42.01202" lon="2.46026">
        <ele>734.2</ele>
        <time>2022-05-21 04:38:56</time>
      </trkpt>
      <trkpt lat="42.01209" lon="2.46025">
        <ele>734.2</ele>
        <time>2022-05-21 04:38:57</time>
      </trkpt>
      <trkpt lat="42.01215" lon="2.46024">
        <ele>734.2</ele>
        <time>2022-05-21 04:38:58</time>
      </trkpt>
      <trkpt lat="42.01222" lon="2.46023">
        <ele>734.2</ele>
        <time>2022-05-21 04:38:59</time>
      </trkpt>
      <trkpt lat="42.01228" lon="2.46021">
        <ele>734.2</ele>
        <time>2022-05-21 04:39:00</time>
      </trkpt>
      <trkpt lat="42.01233" lon="2.4602">
        <ele>734.2</ele>
        <time>2022-05-21 04:39:01</time>
      </trkpt>
      <trkpt lat="42.01239" lon="2.46019">
        <ele>734</ele>
        <time>2022-05-21 04:39:02</time>
      </trkpt>
      <trkpt lat="42.01245" lon="2.46018">
        <ele>734</ele>
        <time>2022-05-21 04:39:03</time>
      </trkpt>
      <trkpt lat="42.01251" lon="2.46015">
        <ele>734</ele>
        <time>2022-05-21 04:39:04</time>
      </trkpt>
      <trkpt lat="42.01256" lon="2.46011">
        <ele>734</ele>
        <time>2022-05-21 04:39:05</time>
      </trkpt>
      <trkpt lat="42.01261" lon="2.46005">
        <ele>733.8</ele>
        <time>2022-05-21 04:39:06</time>
      </trkpt>
      <trkpt lat="42.01265" lon="2.45998">
        <ele>733.6</ele>
        <time>2022-05-21 04:39:07</time>
      </trkpt>
      <trkpt lat="42.01269" lon="2.45992">
        <ele>733.6</ele>
        <time>2022-05-21 04:39:08</time>
      </trkpt>
      <trkpt lat="42.01273" lon="2.45989">
        <ele>733.4</ele>
        <time>2022-05-21 04:39:09</time>
      </trkpt>
      <trkpt lat="42.01278" lon="2.45989">
        <ele>733.4</ele>
        <time>2022-05-21 04:39:10</time>
      </trkpt>
      <trkpt lat="42.01282" lon="2.45994">
        <ele>733.4</ele>
        <time>2022-05-21 04:39:11</time>
      </trkpt>
      <trkpt lat="42.01287" lon="2.46001">
        <ele>733.4</ele>
        <time>2022-05-21 04:39:12</time>
      </trkpt>
      <trkpt lat="42.01291" lon="2.46008">
        <ele>733.6</ele>
        <time>2022-05-21 04:39:13</time>
      </trkpt>
      <trkpt lat="42.01293" lon="2.46014">
        <ele>733.8</ele>
        <time>2022-05-21 04:39:14</time>
      </trkpt>
      <trkpt lat="42.01294" lon="2.4602">
        <ele>734</ele>
        <time>2022-05-21 04:39:15</time>
      </trkpt>
      <trkpt lat="42.01295" lon="2.46026">
        <ele>734.4</ele>
        <time>2022-05-21 04:39:16</time>
      </trkpt>
      <trkpt lat="42.01297" lon="2.46032">
        <ele>734.8</ele>
        <time>2022-05-21 04:39:17</time>
      </trkpt>
      <trkpt lat="42.01297" lon="2.46037">
        <ele>735</ele>
        <time>2022-05-21 04:39:18</time>
      </trkpt>
      <trkpt lat="42.01296" lon="2.46042">
        <ele>735.4</ele>
        <time>2022-05-21 04:39:19</time>
      </trkpt>
      <trkpt lat="42.01295" lon="2.46046">
        <ele>735.6</ele>
        <time>2022-05-21 04:39:20</time>
      </trkpt>
      <trkpt lat="42.01294" lon="2.4605">
        <ele>735.8</ele>
        <time>2022-05-21 04:39:21</time>
      </trkpt>
      <trkpt lat="42.01292" lon="2.46054">
        <ele>736</ele>
        <time>2022-05-21 04:39:22</time>
      </trkpt>
      <trkpt lat="42.0129" lon="2.46058">
        <ele>736</ele>
        <time>2022-05-21 04:39:23</time>
      </trkpt>
      <trkpt lat="42.01287" lon="2.46062">
        <ele>736</ele>
        <time>2022-05-21 04:39:24</time>
      </trkpt>
      <trkpt lat="42.01285" lon="2.46066">
        <ele>735.8</ele>
        <time>2022-05-21 04:39:25</time>
      </trkpt>
      <trkpt lat="42.01282" lon="2.46071">
        <ele>735.8</ele>
        <time>2022-05-21 04:39:26</time>
      </trkpt>
      <trkpt lat="42.01278" lon="2.46077">
        <ele>735.6</ele>
        <time>2022-05-21 04:39:27</time>
      </trkpt>
      <trkpt lat="42.01274" lon="2.46082">
        <ele>735.2</ele>
        <time>2022-05-21 04:39:28</time>
      </trkpt>
      <trkpt lat="42.0127" lon="2.46087">
        <ele>735</ele>
        <time>2022-05-21 04:39:29</time>
      </trkpt>
      <trkpt lat="42.01266" lon="2.46093">
        <ele>734.6</ele>
        <time>2022-05-21 04:39:30</time>
      </trkpt>
      <trkpt lat="42.01262" lon="2.461">
        <ele>734.2</ele>
        <time>2022-05-21 04:39:31</time>
      </trkpt>
      <trkpt lat="42.01258" lon="2.46108">
        <ele>734</ele>
        <time>2022-05-21 04:39:32</time>
      </trkpt>
      <trkpt lat="42.01254" lon="2.46115">
        <ele>733.6</ele>
        <time>2022-05-21 04:39:33</time>
      </trkpt>
      <trkpt lat="42.01249" lon="2.46123">
        <ele>733.2</ele>
        <time>2022-05-21 04:39:34</time>
      </trkpt>
      <trkpt lat="42.01246" lon="2.46131">
        <ele>733</ele>
        <time>2022-05-21 04:39:35</time>
      </trkpt>
      <trkpt lat="42.01242" lon="2.46138">
        <ele>732.8</ele>
        <time>2022-05-21 04:39:36</time>
      </trkpt>
      <trkpt lat="42.01238" lon="2.46146">
        <ele>732.6</ele>
        <time>2022-05-21 04:39:37</time>
      </trkpt>
      <trkpt lat="42.01235" lon="2.46152">
        <ele>732.4</ele>
        <time>2022-05-21 04:39:38</time>
      </trkpt>
      <trkpt lat="42.01234" lon="2.46158">
        <ele>732.4</ele>
        <time>2022-05-21 04:39:39</time>
      </trkpt>
      <trkpt lat="42.01233" lon="2.46165">
        <ele>732.2</ele>
        <time>2022-05-21 04:39:40</time>
      </trkpt>
      <trkpt lat="42.01231" lon="2.46172">
        <ele>732.2</ele>
        <time>2022-05-21 04:39:41</time>
      </trkpt>
      <trkpt lat="42.01229" lon="2.46178">
        <ele>732</ele>
        <time>2022-05-21 04:39:42</time>
      </trkpt>
      <trkpt lat="42.01225" lon="2.46184">
        <ele>732</ele>
        <time>2022-05-21 04:39:43</time>
      </trkpt>
      <trkpt lat="42.01221" lon="2.46188">
        <ele>731.8</ele>
        <time>2022-05-21 04:39:44</time>
      </trkpt>
      <trkpt lat="42.01217" lon="2.46192">
        <ele>731.8</ele>
        <time>2022-05-21 04:39:45</time>
      </trkpt>
      <trkpt lat="42.01212" lon="2.46197">
        <ele>731.6</ele>
        <time>2022-05-21 04:39:46</time>
      </trkpt>
      <trkpt lat="42.01209" lon="2.46202">
        <ele>731.4</ele>
        <time>2022-05-21 04:39:47</time>
      </trkpt>
      <trkpt lat="42.01208" lon="2.46208">
        <ele>731.4</ele>
        <time>2022-05-21 04:39:48</time>
      </trkpt>
      <trkpt lat="42.0121" lon="2.46214">
        <ele>731.4</ele>
        <time>2022-05-21 04:39:49</time>
      </trkpt>
      <trkpt lat="42.01213" lon="2.4622">
        <ele>731.4</ele>
        <time>2022-05-21 04:39:50</time>
      </trkpt>
      <trkpt lat="42.01215" lon="2.46224">
        <ele>731.4</ele>
        <time>2022-05-21 04:39:51</time>
      </trkpt>
      <trkpt lat="42.01218" lon="2.46229">
        <ele>731.4</ele>
        <time>2022-05-21 04:39:52</time>
      </trkpt>
      <trkpt lat="42.01219" lon="2.46234">
        <ele>731.4</ele>
        <time>2022-05-21 04:39:53</time>
      </trkpt>
      <trkpt lat="42.0122" lon="2.4624">
        <ele>731.4</ele>
        <time>2022-05-21 04:39:54</time>
      </trkpt>
      <trkpt lat="42.01218" lon="2.46245">
        <ele>731.4</ele>
        <time>2022-05-21 04:39:55</time>
      </trkpt>
      <trkpt lat="42.01217" lon="2.46248">
        <ele>731.4</ele>
        <time>2022-05-21 04:39:56</time>
      </trkpt>
      <trkpt lat="42.01213" lon="2.46249">
        <ele>731.4</ele>
        <time>2022-05-21 04:39:57</time>
      </trkpt>
      <trkpt lat="42.01209" lon="2.46251">
        <ele>731.4</ele>
        <time>2022-05-21 04:39:58</time>
      </trkpt>
      <trkpt lat="42.01204" lon="2.46251">
        <ele>731.4</ele>
        <time>2022-05-21 04:39:59</time>
      </trkpt>
      <trkpt lat="42.01199" lon="2.46252">
        <ele>731.4</ele>
        <time>2022-05-21 04:40:00</time>
      </trkpt>
      <trkpt lat="42.01192" lon="2.46253">
        <ele>731.2</ele>
        <time>2022-05-21 04:40:01</time>
      </trkpt>
      <trkpt lat="42.01186" lon="2.46254">
        <ele>731.2</ele>
        <time>2022-05-21 04:40:02</time>
      </trkpt>
      <trkpt lat="42.0118" lon="2.46256">
        <ele>731.2</ele>
        <time>2022-05-21 04:40:03</time>
      </trkpt>
      <trkpt lat="42.01174" lon="2.46256">
        <ele>731.2</ele>
        <time>2022-05-21 04:40:04</time>
      </trkpt>
      <trkpt lat="42.01168" lon="2.46258">
        <ele>731.2</ele>
        <time>2022-05-21 04:40:05</time>
      </trkpt>
      <trkpt lat="42.01163" lon="2.46259">
        <ele>731.2</ele>
        <time>2022-05-21 04:40:06</time>
      </trkpt>
      <trkpt lat="42.01157" lon="2.46261">
        <ele>731.2</ele>
        <time>2022-05-21 04:40:07</time>
      </trkpt>
      <trkpt lat="42.01153" lon="2.46264">
        <ele>731.2</ele>
        <time>2022-05-21 04:40:08</time>
      </trkpt>
      <trkpt lat="42.01148" lon="2.46267">
        <ele>731.2</ele>
        <time>2022-05-21 04:40:09</time>
      </trkpt>
      <trkpt lat="42.01144" lon="2.4627">
        <ele>731.2</ele>
        <time>2022-05-21 04:40:10</time>
      </trkpt>
      <trkpt lat="42.01139" lon="2.46272">
        <ele>731.2</ele>
        <time>2022-05-21 04:40:11</time>
      </trkpt>
      <trkpt lat="42.01134" lon="2.46274">
        <ele>731.2</ele>
        <time>2022-05-21 04:40:12</time>
      </trkpt>
      <trkpt lat="42.01129" lon="2.46276">
        <ele>731.2</ele>
        <time>2022-05-21 04:40:13</time>
      </trkpt>
      <trkpt lat="42.01124" lon="2.46277">
        <ele>731.2</ele>
        <time>2022-05-21 04:40:14</time>
      </trkpt>
      <trkpt lat="42.01119" lon="2.46277">
        <ele>731.4</ele>
        <time>2022-05-21 04:40:15</time>
      </trkpt>
      <trkpt lat="42.01114" lon="2.46277">
        <ele>731.4</ele>
        <time>2022-05-21 04:40:16</time>
      </trkpt>
      <trkpt lat="42.01109" lon="2.46277">
        <ele>731.6</ele>
        <time>2022-05-21 04:40:17</time>
      </trkpt>
      <trkpt lat="42.01104" lon="2.46278">
        <ele>731.6</ele>
        <time>2022-05-21 04:40:18</time>
      </trkpt>
      <trkpt lat="42.011" lon="2.4628">
        <ele>731.8</ele>
        <time>2022-05-21 04:40:19</time>
      </trkpt>
      <trkpt lat="42.01096" lon="2.46283">
        <ele>731.8</ele>
        <time>2022-05-21 04:40:20</time>
      </trkpt>
      <trkpt lat="42.01093" lon="2.46287">
        <ele>732.2</ele>
        <time>2022-05-21 04:40:21</time>
      </trkpt>
      <trkpt lat="42.01091" lon="2.46291">
        <ele>732.4</ele>
        <time>2022-05-21 04:40:22</time>
      </trkpt>
      <trkpt lat="42.01089" lon="2.46295">
        <ele>732.6</ele>
        <time>2022-05-21 04:40:23</time>
      </trkpt>
      <trkpt lat="42.01086" lon="2.46298">
        <ele>732.8</ele>
        <time>2022-05-21 04:40:24</time>
      </trkpt>
      <trkpt lat="42.01084" lon="2.46301">
        <ele>733.2</ele>
        <time>2022-05-21 04:40:25</time>
      </trkpt>
      <trkpt lat="42.01081" lon="2.46304">
        <ele>733.4</ele>
        <time>2022-05-21 04:40:26</time>
      </trkpt>
      <trkpt lat="42.01077" lon="2.46306">
        <ele>733.6</ele>
        <time>2022-05-21 04:40:27</time>
      </trkpt>
      <trkpt lat="42.01073" lon="2.46308">
        <ele>733.8</ele>
        <time>2022-05-21 04:40:28</time>
      </trkpt>
      <trkpt lat="42.01069" lon="2.4631">
        <ele>734</ele>
        <time>2022-05-21 04:40:29</time>
      </trkpt>
      <trkpt lat="42.01065" lon="2.4631">
        <ele>734.2</ele>
        <time>2022-05-21 04:40:30</time>
      </trkpt>
      <trkpt lat="42.01061" lon="2.46311">
        <ele>734.4</ele>
        <time>2022-05-21 04:40:31</time>
      </trkpt>
      <trkpt lat="42.01057" lon="2.46311">
        <ele>734.4</ele>
        <time>2022-05-21 04:40:32</time>
      </trkpt>
      <trkpt lat="42.01054" lon="2.46311">
        <ele>734.6</ele>
        <time>2022-05-21 04:40:33</time>
      </trkpt>
      <trkpt lat="42.0105" lon="2.46312">
        <ele>734.6</ele>
        <time>2022-05-21 04:40:34</time>
      </trkpt>
      <trkpt lat="42.01046" lon="2.46312">
        <ele>734.8</ele>
        <time>2022-05-21 04:40:35</time>
      </trkpt>
      <trkpt lat="42.01041" lon="2.46314">
        <ele>734.8</ele>
        <time>2022-05-21 04:40:36</time>
      </trkpt>
      <trkpt lat="42.01038" lon="2.46316">
        <ele>735</ele>
        <time>2022-05-21 04:40:37</time>
      </trkpt>
      <trkpt lat="42.01034" lon="2.46318">
        <ele>735</ele>
        <time>2022-05-21 04:40:38</time>
      </trkpt>
      <trkpt lat="42.01031" lon="2.46322">
        <ele>735</ele>
        <time>2022-05-21 04:40:39</time>
      </trkpt>
      <trkpt lat="42.01028" lon="2.46325">
        <ele>735</ele>
        <time>2022-05-21 04:40:40</time>
      </trkpt>
      <trkpt lat="42.01027" lon="2.46329">
        <ele>735.2</ele>
        <time>2022-05-21 04:40:41</time>
      </trkpt>
      <trkpt lat="42.01024" lon="2.46332">
        <ele>735.2</ele>
        <time>2022-05-21 04:40:42</time>
      </trkpt>
      <trkpt lat="42.01022" lon="2.46336">
        <ele>735.4</ele>
        <time>2022-05-21 04:40:43</time>
      </trkpt>
      <trkpt lat="42.01021" lon="2.46341">
        <ele>735.4</ele>
        <time>2022-05-21 04:40:44</time>
      </trkpt>
      <trkpt lat="42.0102" lon="2.46345">
        <ele>735.6</ele>
        <time>2022-05-21 04:40:45</time>
      </trkpt>
      <trkpt lat="42.01019" lon="2.4635">
        <ele>735.8</ele>
        <time>2022-05-21 04:40:46</time>
      </trkpt>
      <trkpt lat="42.01018" lon="2.46354">
        <ele>736</ele>
        <time>2022-05-21 04:40:47</time>
      </trkpt>
      <trkpt lat="42.01017" lon="2.46358">
        <ele>736.2</ele>
        <time>2022-05-21 04:40:48</time>
      </trkpt>
      <trkpt lat="42.01015" lon="2.46361">
        <ele>736.4</ele>
        <time>2022-05-21 04:40:49</time>
      </trkpt>
      <trkpt lat="42.01014" lon="2.46364">
        <ele>736.8</ele>
        <time>2022-05-21 04:40:50</time>
      </trkpt>
      <trkpt lat="42.01013" lon="2.46368">
        <ele>737.2</ele>
        <time>2022-05-21 04:40:51</time>
      </trkpt>
      <trkpt lat="42.01012" lon="2.46371">
        <ele>737.4</ele>
        <time>2022-05-21 04:40:52</time>
      </trkpt>
      <trkpt lat="42.01011" lon="2.46374">
        <ele>737.8</ele>
        <time>2022-05-21 04:40:53</time>
      </trkpt>
      <trkpt lat="42.01009" lon="2.46377">
        <ele>738</ele>
        <time>2022-05-21 04:40:54</time>
      </trkpt>
      <trkpt lat="42.01008" lon="2.4638">
        <ele>738.2</ele>
        <time>2022-05-21 04:40:55</time>
      </trkpt>
      <trkpt lat="42.01006" lon="2.46383">
        <ele>738.6</ele>
        <time>2022-05-21 04:40:56</time>
      </trkpt>
      <trkpt lat="42.01005" lon="2.46385">
        <ele>738.8</ele>
        <time>2022-05-21 04:40:57</time>
      </trkpt>
      <trkpt lat="42.01003" lon="2.46388">
        <ele>739.2</ele>
        <time>2022-05-21 04:40:58</time>
      </trkpt>
      <trkpt lat="42.01002" lon="2.46391">
        <ele>739.6</ele>
        <time>2022-05-21 04:40:59</time>
      </trkpt>
      <trkpt lat="42.01" lon="2.46393">
        <ele>739.8</ele>
        <time>2022-05-21 04:41:00</time>
      </trkpt>
      <trkpt lat="42.00999" lon="2.46395">
        <ele>740.2</ele>
        <time>2022-05-21 04:41:01</time>
      </trkpt>
      <trkpt lat="42.00997" lon="2.46396">
        <ele>740.6</ele>
        <time>2022-05-21 04:41:02</time>
      </trkpt>
      <trkpt lat="42.00996" lon="2.46397">
        <ele>740.8</ele>
        <time>2022-05-21 04:41:03</time>
      </trkpt>
      <trkpt lat="42.00994" lon="2.46398">
        <ele>741.2</ele>
        <time>2022-05-21 04:41:04</time>
      </trkpt>
      <trkpt lat="42.00993" lon="2.464">
        <ele>741.6</ele>
        <time>2022-05-21 04:41:05</time>
      </trkpt>
      <trkpt lat="42.00991" lon="2.46403">
        <ele>741.8</ele>
        <time>2022-05-21 04:41:06</time>
      </trkpt>
      <trkpt lat="42.0099" lon="2.46405">
        <ele>742.2</ele>
        <time>2022-05-21 04:41:07</time>
      </trkpt>
      <trkpt lat="42.00988" lon="2.46407">
        <ele>742.4</ele>
        <time>2022-05-21 04:41:08</time>
      </trkpt>
      <trkpt lat="42.00987" lon="2.4641">
        <ele>742.6</ele>
        <time>2022-05-21 04:41:09</time>
      </trkpt>
      <trkpt lat="42.00986" lon="2.46412">
        <ele>742.8</ele>
        <time>2022-05-21 04:41:10</time>
      </trkpt>
      <trkpt lat="42.00984" lon="2.46415">
        <ele>743</ele>
        <time>2022-05-21 04:41:11</time>
      </trkpt>
      <trkpt lat="42.00983" lon="2.46418">
        <ele>743.4</ele>
        <time>2022-05-21 04:41:12</time>
      </trkpt>
      <trkpt lat="42.00982" lon="2.46421">
        <ele>743.6</ele>
        <time>2022-05-21 04:41:13</time>
      </trkpt>
      <trkpt lat="42.0098" lon="2.46424">
        <ele>744</ele>
        <time>2022-05-21 04:41:14</time>
      </trkpt>
      <trkpt lat="42.00979" lon="2.46427">
        <ele>744.2</ele>
        <time>2022-05-21 04:41:15</time>
      </trkpt>
      <trkpt lat="42.00978" lon="2.4643">
        <ele>744.4</ele>
        <time>2022-05-21 04:41:16</time>
      </trkpt>
      <trkpt lat="42.00977" lon="2.46433">
        <ele>744.6</ele>
        <time>2022-05-21 04:41:17</time>
      </trkpt>
      <trkpt lat="42.00977" lon="2.46436">
        <ele>744.8</ele>
        <time>2022-05-21 04:41:18</time>
      </trkpt>
      <trkpt lat="42.00976" lon="2.46439">
        <ele>745</ele>
        <time>2022-05-21 04:41:19</time>
      </trkpt>
      <trkpt lat="42.00976" lon="2.46442">
        <ele>745.2</ele>
        <time>2022-05-21 04:41:20</time>
      </trkpt>
      <trkpt lat="42.00977" lon="2.46446">
        <ele>745.4</ele>
        <time>2022-05-21 04:41:21</time>
      </trkpt>
      <trkpt lat="42.00978" lon="2.46449">
        <ele>745.6</ele>
        <time>2022-05-21 04:41:22</time>
      </trkpt>
      <trkpt lat="42.00979" lon="2.46452">
        <ele>745.6</ele>
        <time>2022-05-21 04:41:23</time>
      </trkpt>
      <trkpt lat="42.0098" lon="2.46455">
        <ele>746</ele>
        <time>2022-05-21 04:41:24</time>
      </trkpt>
      <trkpt lat="42.00982" lon="2.46457">
        <ele>746.2</ele>
        <time>2022-05-21 04:41:25</time>
      </trkpt>
      <trkpt lat="42.00983" lon="2.4646">
        <ele>746.2</ele>
        <time>2022-05-21 04:41:26</time>
      </trkpt>
      <trkpt lat="42.00985" lon="2.46462">
        <ele>746.4</ele>
        <time>2022-05-21 04:41:27</time>
      </trkpt>
      <trkpt lat="42.00987" lon="2.46465">
        <ele>746.6</ele>
        <time>2022-05-21 04:41:28</time>
      </trkpt>
      <trkpt lat="42.00989" lon="2.46467">
        <ele>746.8</ele>
        <time>2022-05-21 04:41:29</time>
      </trkpt>
      <trkpt lat="42.00991" lon="2.46469">
        <ele>746.8</ele>
        <time>2022-05-21 04:41:30</time>
      </trkpt>
      <trkpt lat="42.00993" lon="2.46472">
        <ele>747</ele>
        <time>2022-05-21 04:41:31</time>
      </trkpt>
      <trkpt lat="42.00995" lon="2.46475">
        <ele>747</ele>
        <time>2022-05-21 04:41:32</time>
      </trkpt>
      <trkpt lat="42.00996" lon="2.46477">
        <ele>747.2</ele>
        <time>2022-05-21 04:41:33</time>
      </trkpt>
      <trkpt lat="42.00998" lon="2.4648">
        <ele>747.4</ele>
        <time>2022-05-21 04:41:34</time>
      </trkpt>
      <trkpt lat="42.00999" lon="2.46482">
        <ele>747.6</ele>
        <time>2022-05-21 04:41:35</time>
      </trkpt>
      <trkpt lat="42.01" lon="2.46485">
        <ele>747.6</ele>
        <time>2022-05-21 04:41:36</time>
      </trkpt>
      <trkpt lat="42.01001" lon="2.46488">
        <ele>747.8</ele>
        <time>2022-05-21 04:41:37</time>
      </trkpt>
      <trkpt lat="42.01002" lon="2.46491">
        <ele>748</ele>
        <time>2022-05-21 04:41:38</time>
      </trkpt>
      <trkpt lat="42.01003" lon="2.46494">
        <ele>748</ele>
        <time>2022-05-21 04:41:39</time>
      </trkpt>
      <trkpt lat="42.01004" lon="2.46497">
        <ele>748.2</ele>
        <time>2022-05-21 04:41:40</time>
      </trkpt>
      <trkpt lat="42.01005" lon="2.46501">
        <ele>748.4</ele>
        <time>2022-05-21 04:41:41</time>
      </trkpt>
      <trkpt lat="42.01006" lon="2.46504">
        <ele>748.4</ele>
        <time>2022-05-21 04:41:42</time>
      </trkpt>
      <trkpt lat="42.01007" lon="2.46508">
        <ele>748.6</ele>
        <time>2022-05-21 04:41:43</time>
      </trkpt>
      <trkpt lat="42.01007" lon="2.46512">
        <ele>748.6</ele>
        <time>2022-05-21 04:41:44</time>
      </trkpt>
      <trkpt lat="42.01009" lon="2.46515">
        <ele>748.8</ele>
        <time>2022-05-21 04:41:45</time>
      </trkpt>
      <trkpt lat="42.0101" lon="2.46519">
        <ele>748.8</ele>
        <time>2022-05-21 04:41:46</time>
      </trkpt>
      <trkpt lat="42.01011" lon="2.46522">
        <ele>749</ele>
        <time>2022-05-21 04:41:47</time>
      </trkpt>
      <trkpt lat="42.01012" lon="2.46526">
        <ele>749.2</ele>
        <time>2022-05-21 04:41:48</time>
      </trkpt>
      <trkpt lat="42.01012" lon="2.46529">
        <ele>749.2</ele>
        <time>2022-05-21 04:41:49</time>
      </trkpt>
      <trkpt lat="42.01014" lon="2.46532">
        <ele>749.4</ele>
        <time>2022-05-21 04:41:50</time>
      </trkpt>
      <trkpt lat="42.01015" lon="2.46535">
        <ele>749.6</ele>
        <time>2022-05-21 04:41:51</time>
      </trkpt>
      <trkpt lat="42.01016" lon="2.46538">
        <ele>749.6</ele>
        <time>2022-05-21 04:41:52</time>
      </trkpt>
      <trkpt lat="42.01017" lon="2.46542">
        <ele>749.8</ele>
        <time>2022-05-21 04:41:53</time>
      </trkpt>
      <trkpt lat="42.01019" lon="2.46545">
        <ele>749.8</ele>
        <time>2022-05-21 04:41:54</time>
      </trkpt>
      <trkpt lat="42.0102" lon="2.46549">
        <ele>750</ele>
        <time>2022-05-21 04:41:55</time>
      </trkpt>
      <trkpt lat="42.01021" lon="2.46552">
        <ele>750.2</ele>
        <time>2022-05-21 04:41:56</time>
      </trkpt>
      <trkpt lat="42.01022" lon="2.46556">
        <ele>750.2</ele>
        <time>2022-05-21 04:41:57</time>
      </trkpt>
      <trkpt lat="42.01023" lon="2.46559">
        <ele>750.4</ele>
        <time>2022-05-21 04:41:58</time>
      </trkpt>
      <trkpt lat="42.01024" lon="2.46562">
        <ele>750.6</ele>
        <time>2022-05-21 04:41:59</time>
      </trkpt>
      <trkpt lat="42.01025" lon="2.46565">
        <ele>750.8</ele>
        <time>2022-05-21 04:42:00</time>
      </trkpt>
      <trkpt lat="42.01026" lon="2.46567">
        <ele>751</ele>
        <time>2022-05-21 04:42:01</time>
      </trkpt>
      <trkpt lat="42.01027" lon="2.4657">
        <ele>751</ele>
        <time>2022-05-21 04:42:02</time>
      </trkpt>
      <trkpt lat="42.01028" lon="2.46573">
        <ele>751.2</ele>
        <time>2022-05-21 04:42:03</time>
      </trkpt>
      <trkpt lat="42.01028" lon="2.46577">
        <ele>751.4</ele>
        <time>2022-05-21 04:42:04</time>
      </trkpt>
      <trkpt lat="42.0103" lon="2.4658">
        <ele>751.4</ele>
        <time>2022-05-21 04:42:05</time>
      </trkpt>
      <trkpt lat="42.01031" lon="2.46583">
        <ele>751.6</ele>
        <time>2022-05-21 04:42:06</time>
      </trkpt>
      <trkpt lat="42.01031" lon="2.46586">
        <ele>751.8</ele>
        <time>2022-05-21 04:42:07</time>
      </trkpt>
      <trkpt lat="42.01032" lon="2.46588">
        <ele>752</ele>
        <time>2022-05-21 04:42:08</time>
      </trkpt>
      <trkpt lat="42.01033" lon="2.46591">
        <ele>752.2</ele>
        <time>2022-05-21 04:42:09</time>
      </trkpt>
      <trkpt lat="42.01033" lon="2.46594">
        <ele>752.4</ele>
        <time>2022-05-21 04:42:10</time>
      </trkpt>
      <trkpt lat="42.01034" lon="2.46597">
        <ele>752.6</ele>
        <time>2022-05-21 04:42:11</time>
      </trkpt>
      <trkpt lat="42.01035" lon="2.466">
        <ele>752.8</ele>
        <time>2022-05-21 04:42:12</time>
      </trkpt>
      <trkpt lat="42.01035" lon="2.46603">
        <ele>753</ele>
        <time>2022-05-21 04:42:13</time>
      </trkpt>
      <trkpt lat="42.01036" lon="2.46607">
        <ele>753.2</ele>
        <time>2022-05-21 04:42:14</time>
      </trkpt>
      <trkpt lat="42.01035" lon="2.46611">
        <ele>753.4</ele>
        <time>2022-05-21 04:42:15</time>
      </trkpt>
      <trkpt lat="42.01035" lon="2.46614">
        <ele>753.6</ele>
        <time>2022-05-21 04:42:16</time>
      </trkpt>
      <trkpt lat="42.01034" lon="2.46618">
        <ele>753.8</ele>
        <time>2022-05-21 04:42:17</time>
      </trkpt>
      <trkpt lat="42.01033" lon="2.46622">
        <ele>753.8</ele>
        <time>2022-05-21 04:42:18</time>
      </trkpt>
      <trkpt lat="42.01032" lon="2.46625">
        <ele>754</ele>
        <time>2022-05-21 04:42:19</time>
      </trkpt>
      <trkpt lat="42.01031" lon="2.46628">
        <ele>754.2</ele>
        <time>2022-05-21 04:42:20</time>
      </trkpt>
      <trkpt lat="42.0103" lon="2.46631">
        <ele>754.4</ele>
        <time>2022-05-21 04:42:21</time>
      </trkpt>
      <trkpt lat="42.01028" lon="2.46633">
        <ele>754.6</ele>
        <time>2022-05-21 04:42:22</time>
      </trkpt>
      <trkpt lat="42.01027" lon="2.46634">
        <ele>754.8</ele>
        <time>2022-05-21 04:42:23</time>
      </trkpt>
      <trkpt lat="42.01025" lon="2.46636">
        <ele>755</ele>
        <time>2022-05-21 04:42:24</time>
      </trkpt>
      <trkpt lat="42.01024" lon="2.46638">
        <ele>755.2</ele>
        <time>2022-05-21 04:42:25</time>
      </trkpt>
      <trkpt lat="42.01022" lon="2.4664">
        <ele>755.4</ele>
        <time>2022-05-21 04:42:26</time>
      </trkpt>
      <trkpt lat="42.01021" lon="2.46642">
        <ele>755.6</ele>
        <time>2022-05-21 04:42:27</time>
      </trkpt>
      <trkpt lat="42.01019" lon="2.46644">
        <ele>755.8</ele>
        <time>2022-05-21 04:42:28</time>
      </trkpt>
      <trkpt lat="42.01018" lon="2.46645">
        <ele>756</ele>
        <time>2022-05-21 04:42:29</time>
      </trkpt>
      <trkpt lat="42.01016" lon="2.46647">
        <ele>756</ele>
        <time>2022-05-21 04:42:30</time>
      </trkpt>
      <trkpt lat="42.01015" lon="2.46649">
        <ele>756.2</ele>
        <time>2022-05-21 04:42:31</time>
      </trkpt>
      <trkpt lat="42.01013" lon="2.4665">
        <ele>756.4</ele>
        <time>2022-05-21 04:42:32</time>
      </trkpt>
      <trkpt lat="42.01011" lon="2.46653">
        <ele>756.6</ele>
        <time>2022-05-21 04:42:33</time>
      </trkpt>
      <trkpt lat="42.0101" lon="2.46655">
        <ele>757</ele>
        <time>2022-05-21 04:42:34</time>
      </trkpt>
      <trkpt lat="42.01009" lon="2.46657">
        <ele>757</ele>
        <time>2022-05-21 04:42:35</time>
      </trkpt>
      <trkpt lat="42.01007" lon="2.4666">
        <ele>757.2</ele>
        <time>2022-05-21 04:42:36</time>
      </trkpt>
      <trkpt lat="42.01006" lon="2.46663">
        <ele>757.4</ele>
        <time>2022-05-21 04:42:37</time>
      </trkpt>
      <trkpt lat="42.01004" lon="2.46665">
        <ele>757.6</ele>
        <time>2022-05-21 04:42:38</time>
      </trkpt>
      <trkpt lat="42.01003" lon="2.46668">
        <ele>757.8</ele>
        <time>2022-05-21 04:42:39</time>
      </trkpt>
      <trkpt lat="42.01002" lon="2.46671">
        <ele>757.8</ele>
        <time>2022-05-21 04:42:40</time>
      </trkpt>
      <trkpt lat="42.01001" lon="2.46673">
        <ele>758</ele>
        <time>2022-05-21 04:42:41</time>
      </trkpt>
      <trkpt lat="42.00999" lon="2.46675">
        <ele>758.2</ele>
        <time>2022-05-21 04:42:42</time>
      </trkpt>
      <trkpt lat="42.00999" lon="2.46678">
        <ele>758.4</ele>
        <time>2022-05-21 04:42:43</time>
      </trkpt>
      <trkpt lat="42.00998" lon="2.4668">
        <ele>758.4</ele>
        <time>2022-05-21 04:42:44</time>
      </trkpt>
      <trkpt lat="42.00997" lon="2.46683">
        <ele>758.6</ele>
        <time>2022-05-21 04:42:45</time>
      </trkpt>
      <trkpt lat="42.00997" lon="2.46686">
        <ele>758.8</ele>
        <time>2022-05-21 04:42:46</time>
      </trkpt>
      <trkpt lat="42.00996" lon="2.46689">
        <ele>759</ele>
        <time>2022-05-21 04:42:47</time>
      </trkpt>
      <trkpt lat="42.00996" lon="2.46692">
        <ele>759.2</ele>
        <time>2022-05-21 04:42:48</time>
      </trkpt>
      <trkpt lat="42.00995" lon="2.46695">
        <ele>759.2</ele>
        <time>2022-05-21 04:42:49</time>
      </trkpt>
      <trkpt lat="42.00994" lon="2.46697">
        <ele>759.4</ele>
        <time>2022-05-21 04:42:50</time>
      </trkpt>
      <trkpt lat="42.00993" lon="2.467">
        <ele>759.6</ele>
        <time>2022-05-21 04:42:51</time>
      </trkpt>
      <trkpt lat="42.00992" lon="2.46703">
        <ele>759.8</ele>
        <time>2022-05-21 04:42:52</time>
      </trkpt>
      <trkpt lat="42.00991" lon="2.46706">
        <ele>760</ele>
        <time>2022-05-21 04:42:53</time>
      </trkpt>
      <trkpt lat="42.0099" lon="2.46708">
        <ele>760.2</ele>
        <time>2022-05-21 04:42:54</time>
      </trkpt>
      <trkpt lat="42.00988" lon="2.46711">
        <ele>760.4</ele>
        <time>2022-05-21 04:42:55</time>
      </trkpt>
      <trkpt lat="42.00986" lon="2.46713">
        <ele>760.6</ele>
        <time>2022-05-21 04:42:56</time>
      </trkpt>
      <trkpt lat="42.00985" lon="2.46716">
        <ele>760.8</ele>
        <time>2022-05-21 04:42:57</time>
      </trkpt>
      <trkpt lat="42.00984" lon="2.46718">
        <ele>761</ele>
        <time>2022-05-21 04:42:58</time>
      </trkpt>
      <trkpt lat="42.00983" lon="2.46721">
        <ele>761.2</ele>
        <time>2022-05-21 04:42:59</time>
      </trkpt>
      <trkpt lat="42.00982" lon="2.46723">
        <ele>761.4</ele>
        <time>2022-05-21 04:43:00</time>
      </trkpt>
      <trkpt lat="42.00981" lon="2.46725">
        <ele>761.8</ele>
        <time>2022-05-21 04:43:01</time>
      </trkpt>
      <trkpt lat="42.00979" lon="2.46727">
        <ele>762</ele>
        <time>2022-05-21 04:43:02</time>
      </trkpt>
      <trkpt lat="42.00978" lon="2.46729">
        <ele>762.2</ele>
        <time>2022-05-21 04:43:03</time>
      </trkpt>
      <trkpt lat="42.00976" lon="2.4673">
        <ele>762.4</ele>
        <time>2022-05-21 04:43:04</time>
      </trkpt>
      <trkpt lat="42.00975" lon="2.46732">
        <ele>762.8</ele>
        <time>2022-05-21 04:43:05</time>
      </trkpt>
      <trkpt lat="42.00973" lon="2.46733">
        <ele>763</ele>
        <time>2022-05-21 04:43:06</time>
      </trkpt>
      <trkpt lat="42.00971" lon="2.46734">
        <ele>763.2</ele>
        <time>2022-05-21 04:43:07</time>
      </trkpt>
      <trkpt lat="42.0097" lon="2.46735">
        <ele>763.6</ele>
        <time>2022-05-21 04:43:08</time>
      </trkpt>
      <trkpt lat="42.00968" lon="2.46737">
        <ele>763.8</ele>
        <time>2022-05-21 04:43:09</time>
      </trkpt>
      <trkpt lat="42.00966" lon="2.46738">
        <ele>764.2</ele>
        <time>2022-05-21 04:43:10</time>
      </trkpt>
      <trkpt lat="42.00964" lon="2.4674">
        <ele>764.4</ele>
        <time>2022-05-21 04:43:11</time>
      </trkpt>
      <trkpt lat="42.00961" lon="2.46742">
        <ele>764.6</ele>
        <time>2022-05-21 04:43:12</time>
      </trkpt>
      <trkpt lat="42.00959" lon="2.46745">
        <ele>765</ele>
        <time>2022-05-21 04:43:13</time>
      </trkpt>
      <trkpt lat="42.00957" lon="2.46748">
        <ele>765.4</ele>
        <time>2022-05-21 04:43:14</time>
      </trkpt>
      <trkpt lat="42.00956" lon="2.46751">
        <ele>765.6</ele>
        <time>2022-05-21 04:43:15</time>
      </trkpt>
      <trkpt lat="42.00954" lon="2.46754">
        <ele>766</ele>
        <time>2022-05-21 04:43:16</time>
      </trkpt>
      <trkpt lat="42.00953" lon="2.46757">
        <ele>766.2</ele>
        <time>2022-05-21 04:43:17</time>
      </trkpt>
      <trkpt lat="42.00952" lon="2.4676">
        <ele>766.6</ele>
        <time>2022-05-21 04:43:18</time>
      </trkpt>
      <trkpt lat="42.00952" lon="2.46763">
        <ele>766.8</ele>
        <time>2022-05-21 04:43:19</time>
      </trkpt>
      <trkpt lat="42.00952" lon="2.46766">
        <ele>767</ele>
        <time>2022-05-21 04:43:20</time>
      </trkpt>
      <trkpt lat="42.00952" lon="2.46769">
        <ele>767.4</ele>
        <time>2022-05-21 04:43:21</time>
      </trkpt>
      <trkpt lat="42.00952" lon="2.46773">
        <ele>767.6</ele>
        <time>2022-05-21 04:43:22</time>
      </trkpt>
      <trkpt lat="42.00953" lon="2.46776">
        <ele>767.8</ele>
        <time>2022-05-21 04:43:23</time>
      </trkpt>
      <trkpt lat="42.00953" lon="2.46778">
        <ele>768.2</ele>
        <time>2022-05-21 04:43:24</time>
      </trkpt>
      <trkpt lat="42.00953" lon="2.46781">
        <ele>768.4</ele>
        <time>2022-05-21 04:43:25</time>
      </trkpt>
      <trkpt lat="42.00953" lon="2.46783">
        <ele>768.6</ele>
        <time>2022-05-21 04:43:26</time>
      </trkpt>
      <trkpt lat="42.00954" lon="2.46786">
        <ele>768.8</ele>
        <time>2022-05-21 04:43:27</time>
      </trkpt>
      <trkpt lat="42.00954" lon="2.46788">
        <ele>769</ele>
        <time>2022-05-21 04:43:28</time>
      </trkpt>
      <trkpt lat="42.00954" lon="2.46791">
        <ele>769.2</ele>
        <time>2022-05-21 04:43:29</time>
      </trkpt>
      <trkpt lat="42.00954" lon="2.46794">
        <ele>769.4</ele>
        <time>2022-05-21 04:43:30</time>
      </trkpt>
      <trkpt lat="42.00954" lon="2.46797">
        <ele>769.6</ele>
        <time>2022-05-21 04:43:31</time>
      </trkpt>
      <trkpt lat="42.00954" lon="2.468">
        <ele>769.8</ele>
        <time>2022-05-21 04:43:32</time>
      </trkpt>
      <trkpt lat="42.00955" lon="2.46803">
        <ele>770</ele>
        <time>2022-05-21 04:43:33</time>
      </trkpt>
      <trkpt lat="42.00954" lon="2.46806">
        <ele>770.2</ele>
        <time>2022-05-21 04:43:34</time>
      </trkpt>
      <trkpt lat="42.00954" lon="2.46808">
        <ele>770.4</ele>
        <time>2022-05-21 04:43:35</time>
      </trkpt>
      <trkpt lat="42.00954" lon="2.46811">
        <ele>770.6</ele>
        <time>2022-05-21 04:43:36</time>
      </trkpt>
      <trkpt lat="42.00954" lon="2.46814">
        <ele>770.8</ele>
        <time>2022-05-21 04:43:37</time>
      </trkpt>
      <trkpt lat="42.00954" lon="2.46817">
        <ele>771</ele>
        <time>2022-05-21 04:43:38</time>
      </trkpt>
      <trkpt lat="42.00954" lon="2.4682">
        <ele>771.2</ele>
        <time>2022-05-21 04:43:39</time>
      </trkpt>
      <trkpt lat="42.00953" lon="2.46822">
        <ele>771.4</ele>
        <time>2022-05-21 04:43:40</time>
      </trkpt>
      <trkpt lat="42.00953" lon="2.46825">
        <ele>771.6</ele>
        <time>2022-05-21 04:43:41</time>
      </trkpt>
      <trkpt lat="42.00952" lon="2.46828">
        <ele>771.8</ele>
        <time>2022-05-21 04:43:42</time>
      </trkpt>
      <trkpt lat="42.00951" lon="2.46831">
        <ele>772.2</ele>
        <time>2022-05-21 04:43:43</time>
      </trkpt>
      <trkpt lat="42.00951" lon="2.46833">
        <ele>772.4</ele>
        <time>2022-05-21 04:43:44</time>
      </trkpt>
      <trkpt lat="42.00949" lon="2.46835">
        <ele>772.6</ele>
        <time>2022-05-21 04:43:45</time>
      </trkpt>
      <trkpt lat="42.00948" lon="2.46837">
        <ele>772.8</ele>
        <time>2022-05-21 04:43:46</time>
      </trkpt>
      <trkpt lat="42.00947" lon="2.46839">
        <ele>773</ele>
        <time>2022-05-21 04:43:47</time>
      </trkpt>
      <trkpt lat="42.00945" lon="2.46841">
        <ele>773.2</ele>
        <time>2022-05-21 04:43:48</time>
      </trkpt>
      <trkpt lat="42.00943" lon="2.46843">
        <ele>773.4</ele>
        <time>2022-05-21 04:43:49</time>
      </trkpt>
      <trkpt lat="42.00942" lon="2.46844">
        <ele>773.6</ele>
        <time>2022-05-21 04:43:50</time>
      </trkpt>
      <trkpt lat="42.0094" lon="2.46845">
        <ele>773.8</ele>
        <time>2022-05-21 04:43:51</time>
      </trkpt>
      <trkpt lat="42.00938" lon="2.46847">
        <ele>774.2</ele>
        <time>2022-05-21 04:43:52</time>
      </trkpt>
      <trkpt lat="42.00937" lon="2.46848">
        <ele>774.4</ele>
        <time>2022-05-21 04:43:53</time>
      </trkpt>
      <trkpt lat="42.00935" lon="2.4685">
        <ele>774.6</ele>
        <time>2022-05-21 04:43:54</time>
      </trkpt>
      <trkpt lat="42.00933" lon="2.46852">
        <ele>774.8</ele>
        <time>2022-05-21 04:43:55</time>
      </trkpt>
      <trkpt lat="42.00931" lon="2.46853">
        <ele>775</ele>
        <time>2022-05-21 04:43:56</time>
      </trkpt>
      <trkpt lat="42.0093" lon="2.46855">
        <ele>775.2</ele>
        <time>2022-05-21 04:43:57</time>
      </trkpt>
      <trkpt lat="42.00928" lon="2.46857">
        <ele>775.6</ele>
        <time>2022-05-21 04:43:58</time>
      </trkpt>
      <trkpt lat="42.00927" lon="2.46858">
        <ele>775.8</ele>
        <time>2022-05-21 04:43:59</time>
      </trkpt>
      <trkpt lat="42.00925" lon="2.4686">
        <ele>776</ele>
        <time>2022-05-21 04:44:00</time>
      </trkpt>
      <trkpt lat="42.00923" lon="2.46862">
        <ele>776.2</ele>
        <time>2022-05-21 04:44:01</time>
      </trkpt>
      <trkpt lat="42.00922" lon="2.46863">
        <ele>776.4</ele>
        <time>2022-05-21 04:44:02</time>
      </trkpt>
      <trkpt lat="42.0092" lon="2.46865">
        <ele>776.6</ele>
        <time>2022-05-21 04:44:03</time>
      </trkpt>
      <trkpt lat="42.00919" lon="2.46867">
        <ele>776.8</ele>
        <time>2022-05-21 04:44:04</time>
      </trkpt>
      <trkpt lat="42.00917" lon="2.46869">
        <ele>777</ele>
        <time>2022-05-21 04:44:05</time>
      </trkpt>
      <trkpt lat="42.00915" lon="2.46871">
        <ele>777.2</ele>
        <time>2022-05-21 04:44:06</time>
      </trkpt>
      <trkpt lat="42.00914" lon="2.46873">
        <ele>777.4</ele>
        <time>2022-05-21 04:44:07</time>
      </trkpt>
      <trkpt lat="42.00912" lon="2.46874">
        <ele>777.6</ele>
        <time>2022-05-21 04:44:08</time>
      </trkpt>
      <trkpt lat="42.00911" lon="2.46877">
        <ele>777.8</ele>
        <time>2022-05-21 04:44:09</time>
      </trkpt>
      <trkpt lat="42.00909" lon="2.46879">
        <ele>778</ele>
        <time>2022-05-21 04:44:10</time>
      </trkpt>
      <trkpt lat="42.00908" lon="2.46881">
        <ele>778.2</ele>
        <time>2022-05-21 04:44:11</time>
      </trkpt>
      <trkpt lat="42.00907" lon="2.46883">
        <ele>778.4</ele>
        <time>2022-05-21 04:44:12</time>
      </trkpt>
      <trkpt lat="42.00905" lon="2.46886">
        <ele>778.6</ele>
        <time>2022-05-21 04:44:13</time>
      </trkpt>
      <trkpt lat="42.00904" lon="2.46888">
        <ele>778.8</ele>
        <time>2022-05-21 04:44:14</time>
      </trkpt>
      <trkpt lat="42.00903" lon="2.46892">
        <ele>779</ele>
        <time>2022-05-21 04:44:15</time>
      </trkpt>
      <trkpt lat="42.00903" lon="2.46895">
        <ele>779.2</ele>
        <time>2022-05-21 04:44:16</time>
      </trkpt>
      <trkpt lat="42.00901" lon="2.46898">
        <ele>779.4</ele>
        <time>2022-05-21 04:44:17</time>
      </trkpt>
      <trkpt lat="42.00901" lon="2.46902">
        <ele>779.6</ele>
        <time>2022-05-21 04:44:18</time>
      </trkpt>
      <trkpt lat="42.009" lon="2.46905">
        <ele>779.8</ele>
        <time>2022-05-21 04:44:19</time>
      </trkpt>
      <trkpt lat="42.009" lon="2.46909">
        <ele>780</ele>
        <time>2022-05-21 04:44:20</time>
      </trkpt>
      <trkpt lat="42.00899" lon="2.46913">
        <ele>780</ele>
        <time>2022-05-21 04:44:21</time>
      </trkpt>
      <trkpt lat="42.00899" lon="2.46916">
        <ele>780.2</ele>
        <time>2022-05-21 04:44:22</time>
      </trkpt>
      <trkpt lat="42.00898" lon="2.4692">
        <ele>780.2</ele>
        <time>2022-05-21 04:44:23</time>
      </trkpt>
      <trkpt lat="42.00898" lon="2.46925">
        <ele>780.2</ele>
        <time>2022-05-21 04:44:24</time>
      </trkpt>
      <trkpt lat="42.00897" lon="2.46929">
        <ele>780.4</ele>
        <time>2022-05-21 04:44:25</time>
      </trkpt>
      <trkpt lat="42.00896" lon="2.46933">
        <ele>780.4</ele>
        <time>2022-05-21 04:44:26</time>
      </trkpt>
      <trkpt lat="42.00896" lon="2.46937">
        <ele>780.6</ele>
        <time>2022-05-21 04:44:27</time>
      </trkpt>
      <trkpt lat="42.00895" lon="2.46941">
        <ele>780.8</ele>
        <time>2022-05-21 04:44:28</time>
      </trkpt>
      <trkpt lat="42.00894" lon="2.46944">
        <ele>781</ele>
        <time>2022-05-21 04:44:29</time>
      </trkpt>
      <trkpt lat="42.00893" lon="2.46948">
        <ele>781.2</ele>
        <time>2022-05-21 04:44:30</time>
      </trkpt>
      <trkpt lat="42.00892" lon="2.46951">
        <ele>781.4</ele>
        <time>2022-05-21 04:44:31</time>
      </trkpt>
      <trkpt lat="42.00891" lon="2.46954">
        <ele>781.6</ele>
        <time>2022-05-21 04:44:32</time>
      </trkpt>
      <trkpt lat="42.00891" lon="2.46956">
        <ele>781.8</ele>
        <time>2022-05-21 04:44:33</time>
      </trkpt>
      <trkpt lat="42.0089" lon="2.46958">
        <ele>782</ele>
        <time>2022-05-21 04:44:34</time>
      </trkpt>
      <trkpt lat="42.0089" lon="2.4696">
        <ele>782.2</ele>
        <time>2022-05-21 04:44:35</time>
      </trkpt>
      <trkpt lat="42.00889" lon="2.46962">
        <ele>782.4</ele>
        <time>2022-05-21 04:44:36</time>
      </trkpt>
      <trkpt lat="42.00888" lon="2.46964">
        <ele>782.6</ele>
        <time>2022-05-21 04:44:37</time>
      </trkpt>
      <trkpt lat="42.00887" lon="2.46966">
        <ele>782.8</ele>
        <time>2022-05-21 04:44:38</time>
      </trkpt>
      <trkpt lat="42.00885" lon="2.46968">
        <ele>783.2</ele>
        <time>2022-05-21 04:44:39</time>
      </trkpt>
      <trkpt lat="42.00884" lon="2.4697">
        <ele>783.4</ele>
        <time>2022-05-21 04:44:40</time>
      </trkpt>
      <trkpt lat="42.00883" lon="2.46972">
        <ele>783.6</ele>
        <time>2022-05-21 04:44:41</time>
      </trkpt>
      <trkpt lat="42.00882" lon="2.46975">
        <ele>783.8</ele>
        <time>2022-05-21 04:44:42</time>
      </trkpt>
      <trkpt lat="42.00881" lon="2.46977">
        <ele>784.2</ele>
        <time>2022-05-21 04:44:43</time>
      </trkpt>
      <trkpt lat="42.0088" lon="2.46979">
        <ele>784.4</ele>
        <time>2022-05-21 04:44:44</time>
      </trkpt>
      <trkpt lat="42.00879" lon="2.46981">
        <ele>784.6</ele>
        <time>2022-05-21 04:44:45</time>
      </trkpt>
      <trkpt lat="42.00879" lon="2.46984">
        <ele>785</ele>
        <time>2022-05-21 04:44:46</time>
      </trkpt>
      <trkpt lat="42.00878" lon="2.46987">
        <ele>785.2</ele>
        <time>2022-05-21 04:44:47</time>
      </trkpt>
      <trkpt lat="42.00877" lon="2.4699">
        <ele>785.4</ele>
        <time>2022-05-21 04:44:48</time>
      </trkpt>
      <trkpt lat="42.00877" lon="2.46993">
        <ele>785.6</ele>
        <time>2022-05-21 04:44:49</time>
      </trkpt>
      <trkpt lat="42.00876" lon="2.46996">
        <ele>786</ele>
        <time>2022-05-21 04:44:50</time>
      </trkpt>
      <trkpt lat="42.00875" lon="2.46999">
        <ele>786.2</ele>
        <time>2022-05-21 04:44:51</time>
      </trkpt>
      <trkpt lat="42.00875" lon="2.47001">
        <ele>786.4</ele>
        <time>2022-05-21 04:44:52</time>
      </trkpt>
      <trkpt lat="42.00874" lon="2.47004">
        <ele>786.6</ele>
        <time>2022-05-21 04:44:53</time>
      </trkpt>
      <trkpt lat="42.00874" lon="2.47008">
        <ele>787</ele>
        <time>2022-05-21 04:44:54</time>
      </trkpt>
      <trkpt lat="42.00873" lon="2.47011">
        <ele>787.2</ele>
        <time>2022-05-21 04:44:55</time>
      </trkpt>
      <trkpt lat="42.00872" lon="2.47014">
        <ele>787.4</ele>
        <time>2022-05-21 04:44:56</time>
      </trkpt>
      <trkpt lat="42.00871" lon="2.47017">
        <ele>787.6</ele>
        <time>2022-05-21 04:44:57</time>
      </trkpt>
      <trkpt lat="42.00871" lon="2.4702">
        <ele>787.8</ele>
        <time>2022-05-21 04:44:58</time>
      </trkpt>
      <trkpt lat="42.0087" lon="2.47022">
        <ele>788</ele>
        <time>2022-05-21 04:44:59</time>
      </trkpt>
      <trkpt lat="42.0087" lon="2.47025">
        <ele>788.2</ele>
        <time>2022-05-21 04:45:00</time>
      </trkpt>
      <trkpt lat="42.00869" lon="2.47028">
        <ele>788.6</ele>
        <time>2022-05-21 04:45:01</time>
      </trkpt>
      <trkpt lat="42.0087" lon="2.47032">
        <ele>788.8</ele>
        <time>2022-05-21 04:45:02</time>
      </trkpt>
      <trkpt lat="42.00872" lon="2.47035">
        <ele>789</ele>
        <time>2022-05-21 04:45:03</time>
      </trkpt>
      <trkpt lat="42.00873" lon="2.47039">
        <ele>789</ele>
        <time>2022-05-21 04:45:04</time>
      </trkpt>
      <trkpt lat="42.00875" lon="2.47042">
        <ele>789.2</ele>
        <time>2022-05-21 04:45:05</time>
      </trkpt>
      <trkpt lat="42.00877" lon="2.47045">
        <ele>789.4</ele>
        <time>2022-05-21 04:45:06</time>
      </trkpt>
      <trkpt lat="42.00879" lon="2.47047">
        <ele>789.4</ele>
        <time>2022-05-21 04:45:07</time>
      </trkpt>
      <trkpt lat="42.00882" lon="2.47049">
        <ele>789.6</ele>
        <time>2022-05-21 04:45:08</time>
      </trkpt>
      <trkpt lat="42.00884" lon="2.47052">
        <ele>789.8</ele>
        <time>2022-05-21 04:45:09</time>
      </trkpt>
      <trkpt lat="42.00886" lon="2.47054">
        <ele>790</ele>
        <time>2022-05-21 04:45:10</time>
      </trkpt>
      <trkpt lat="42.00888" lon="2.47056">
        <ele>790.2</ele>
        <time>2022-05-21 04:45:11</time>
      </trkpt>
      <trkpt lat="42.00891" lon="2.47058">
        <ele>790.4</ele>
        <time>2022-05-21 04:45:12</time>
      </trkpt>
      <trkpt lat="42.00893" lon="2.47059">
        <ele>790.6</ele>
        <time>2022-05-21 04:45:13</time>
      </trkpt>
      <trkpt lat="42.00895" lon="2.47061">
        <ele>790.8</ele>
        <time>2022-05-21 04:45:14</time>
      </trkpt>
      <trkpt lat="42.00897" lon="2.47063">
        <ele>791</ele>
        <time>2022-05-21 04:45:15</time>
      </trkpt>
      <trkpt lat="42.009" lon="2.47064">
        <ele>791.2</ele>
        <time>2022-05-21 04:45:16</time>
      </trkpt>
      <trkpt lat="42.00901" lon="2.47066">
        <ele>791.4</ele>
        <time>2022-05-21 04:45:17</time>
      </trkpt>
      <trkpt lat="42.00903" lon="2.47068">
        <ele>791.6</ele>
        <time>2022-05-21 04:45:18</time>
      </trkpt>
      <trkpt lat="42.00905" lon="2.47069">
        <ele>791.8</ele>
        <time>2022-05-21 04:45:19</time>
      </trkpt>
      <trkpt lat="42.00907" lon="2.47071">
        <ele>792</ele>
        <time>2022-05-21 04:45:20</time>
      </trkpt>
      <trkpt lat="42.00908" lon="2.47074">
        <ele>792.2</ele>
        <time>2022-05-21 04:45:21</time>
      </trkpt>
      <trkpt lat="42.00909" lon="2.47076">
        <ele>792.4</ele>
        <time>2022-05-21 04:45:22</time>
      </trkpt>
      <trkpt lat="42.00911" lon="2.47079">
        <ele>792.6</ele>
        <time>2022-05-21 04:45:23</time>
      </trkpt>
      <trkpt lat="42.00912" lon="2.47081">
        <ele>792.8</ele>
        <time>2022-05-21 04:45:24</time>
      </trkpt>
      <trkpt lat="42.00913" lon="2.47084">
        <ele>793</ele>
        <time>2022-05-21 04:45:25</time>
      </trkpt>
      <trkpt lat="42.00914" lon="2.47086">
        <ele>793.2</ele>
        <time>2022-05-21 04:45:26</time>
      </trkpt>
      <trkpt lat="42.00916" lon="2.47089">
        <ele>793.4</ele>
        <time>2022-05-21 04:45:27</time>
      </trkpt>
      <trkpt lat="42.00917" lon="2.47092">
        <ele>793.6</ele>
        <time>2022-05-21 04:45:28</time>
      </trkpt>
      <trkpt lat="42.00919" lon="2.47094">
        <ele>793.8</ele>
        <time>2022-05-21 04:45:29</time>
      </trkpt>
      <trkpt lat="42.0092" lon="2.47097">
        <ele>793.8</ele>
        <time>2022-05-21 04:45:30</time>
      </trkpt>
      <trkpt lat="42.00923" lon="2.471">
        <ele>794</ele>
        <time>2022-05-21 04:45:31</time>
      </trkpt>
      <trkpt lat="42.00925" lon="2.47103">
        <ele>794.2</ele>
        <time>2022-05-21 04:45:32</time>
      </trkpt>
      <trkpt lat="42.00928" lon="2.47105">
        <ele>794.4</ele>
        <time>2022-05-21 04:45:33</time>
      </trkpt>
      <trkpt lat="42.00931" lon="2.47107">
        <ele>794.4</ele>
        <time>2022-05-21 04:45:34</time>
      </trkpt>
      <trkpt lat="42.00933" lon="2.47109">
        <ele>794.6</ele>
        <time>2022-05-21 04:45:35</time>
      </trkpt>
      <trkpt lat="42.00937" lon="2.4711">
        <ele>794.6</ele>
        <time>2022-05-21 04:45:36</time>
      </trkpt>
      <trkpt lat="42.0094" lon="2.4711">
        <ele>794.6</ele>
        <time>2022-05-21 04:45:37</time>
      </trkpt>
      <trkpt lat="42.00943" lon="2.4711">
        <ele>794.8</ele>
        <time>2022-05-21 04:45:38</time>
      </trkpt>
      <trkpt lat="42.00947" lon="2.4711">
        <ele>794.8</ele>
        <time>2022-05-21 04:45:39</time>
      </trkpt>
      <trkpt lat="42.0095" lon="2.47109">
        <ele>794.8</ele>
        <time>2022-05-21 04:45:40</time>
      </trkpt>
      <trkpt lat="42.00954" lon="2.47109">
        <ele>794.8</ele>
        <time>2022-05-21 04:45:41</time>
      </trkpt>
      <trkpt lat="42.00957" lon="2.47109">
        <ele>795</ele>
        <time>2022-05-21 04:45:42</time>
      </trkpt>
      <trkpt lat="42.00961" lon="2.47109">
        <ele>795</ele>
        <time>2022-05-21 04:45:43</time>
      </trkpt>
      <trkpt lat="42.00964" lon="2.47109">
        <ele>795.2</ele>
        <time>2022-05-21 04:45:44</time>
      </trkpt>
      <trkpt lat="42.00967" lon="2.47108">
        <ele>795.2</ele>
        <time>2022-05-21 04:45:45</time>
      </trkpt>
      <trkpt lat="42.0097" lon="2.47108">
        <ele>795.2</ele>
        <time>2022-05-21 04:45:46</time>
      </trkpt>
      <trkpt lat="42.00972" lon="2.47107">
        <ele>795.4</ele>
        <time>2022-05-21 04:45:47</time>
      </trkpt>
      <trkpt lat="42.00975" lon="2.47106">
        <ele>795.4</ele>
        <time>2022-05-21 04:45:48</time>
      </trkpt>
      <trkpt lat="42.00978" lon="2.47104">
        <ele>795.6</ele>
        <time>2022-05-21 04:45:49</time>
      </trkpt>
      <trkpt lat="42.0098" lon="2.47101">
        <ele>795.8</ele>
        <time>2022-05-21 04:45:50</time>
      </trkpt>
      <trkpt lat="42.00982" lon="2.47098">
        <ele>796</ele>
        <time>2022-05-21 04:45:51</time>
      </trkpt>
      <trkpt lat="42.00983" lon="2.47095">
        <ele>796.2</ele>
        <time>2022-05-21 04:45:52</time>
      </trkpt>
      <trkpt lat="42.00983" lon="2.47092">
        <ele>796.4</ele>
        <time>2022-05-21 04:45:53</time>
      </trkpt>
      <trkpt lat="42.00983" lon="2.47088">
        <ele>796.6</ele>
        <time>2022-05-21 04:45:54</time>
      </trkpt>
      <trkpt lat="42.00983" lon="2.47085">
        <ele>797</ele>
        <time>2022-05-21 04:45:55</time>
      </trkpt>
      <trkpt lat="42.00983" lon="2.47082">
        <ele>797.2</ele>
        <time>2022-05-21 04:45:56</time>
      </trkpt>
      <trkpt lat="42.00982" lon="2.4708">
        <ele>797.4</ele>
        <time>2022-05-21 04:45:57</time>
      </trkpt>
      <trkpt lat="42.00981" lon="2.47078">
        <ele>797.6</ele>
        <time>2022-05-21 04:45:58</time>
      </trkpt>
      <trkpt lat="42.0098" lon="2.47076">
        <ele>798</ele>
        <time>2022-05-21 04:45:59</time>
      </trkpt>
      <trkpt lat="42.00979" lon="2.47073">
        <ele>798.2</ele>
        <time>2022-05-21 04:46:00</time>
      </trkpt>
      <trkpt lat="42.00978" lon="2.47071">
        <ele>798.6</ele>
        <time>2022-05-21 04:46:01</time>
      </trkpt>
      <trkpt lat="42.00978" lon="2.47068">
        <ele>798.8</ele>
        <time>2022-05-21 04:46:02</time>
      </trkpt>
      <trkpt lat="42.00977" lon="2.47066">
        <ele>799</ele>
        <time>2022-05-21 04:46:03</time>
      </trkpt>
      <trkpt lat="42.00976" lon="2.47064">
        <ele>799.4</ele>
        <time>2022-05-21 04:46:04</time>
      </trkpt>
      <trkpt lat="42.00975" lon="2.47061">
        <ele>799.6</ele>
        <time>2022-05-21 04:46:05</time>
      </trkpt>
      <trkpt lat="42.00974" lon="2.47058">
        <ele>799.8</ele>
        <time>2022-05-21 04:46:06</time>
      </trkpt>
      <trkpt lat="42.00974" lon="2.47055">
        <ele>800</ele>
        <time>2022-05-21 04:46:07</time>
      </trkpt>
      <trkpt lat="42.00974" lon="2.47053">
        <ele>800.2</ele>
        <time>2022-05-21 04:46:08</time>
      </trkpt>
      <trkpt lat="42.00974" lon="2.4705">
        <ele>800.4</ele>
        <time>2022-05-21 04:46:09</time>
      </trkpt>
      <trkpt lat="42.00974" lon="2.47047">
        <ele>800.6</ele>
        <time>2022-05-21 04:46:10</time>
      </trkpt>
      <trkpt lat="42.00974" lon="2.47044">
        <ele>800.8</ele>
        <time>2022-05-21 04:46:11</time>
      </trkpt>
      <trkpt lat="42.00975" lon="2.47041">
        <ele>800.8</ele>
        <time>2022-05-21 04:46:12</time>
      </trkpt>
      <trkpt lat="42.00976" lon="2.47039">
        <ele>801</ele>
        <time>2022-05-21 04:46:13</time>
      </trkpt>
      <trkpt lat="42.00977" lon="2.47037">
        <ele>801.2</ele>
        <time>2022-05-21 04:46:14</time>
      </trkpt>
      <trkpt lat="42.00978" lon="2.47035">
        <ele>801.4</ele>
        <time>2022-05-21 04:46:15</time>
      </trkpt>
      <trkpt lat="42.00979" lon="2.47033">
        <ele>801.6</ele>
        <time>2022-05-21 04:46:16</time>
      </trkpt>
      <trkpt lat="42.00981" lon="2.47031">
        <ele>801.6</ele>
        <time>2022-05-21 04:46:17</time>
      </trkpt>
      <trkpt lat="42.00983" lon="2.4703">
        <ele>801.8</ele>
        <time>2022-05-21 04:46:18</time>
      </trkpt>
      <trkpt lat="42.00985" lon="2.4703">
        <ele>802</ele>
        <time>2022-05-21 04:46:19</time>
      </trkpt>
      <trkpt lat="42.00986" lon="2.4703">
        <ele>802.4</ele>
        <time>2022-05-21 04:46:20</time>
      </trkpt>
      <trkpt lat="42.00988" lon="2.4703">
        <ele>802.6</ele>
        <time>2022-05-21 04:46:21</time>
      </trkpt>
      <trkpt lat="42.0099" lon="2.4703">
        <ele>802.8</ele>
        <time>2022-05-21 04:46:22</time>
      </trkpt>
      <trkpt lat="42.00991" lon="2.4703">
        <ele>803.2</ele>
        <time>2022-05-21 04:46:23</time>
      </trkpt>
      <trkpt lat="42.00993" lon="2.4703">
        <ele>803.4</ele>
        <time>2022-05-21 04:46:24</time>
      </trkpt>
      <trkpt lat="42.00994" lon="2.47031">
        <ele>803.6</ele>
        <time>2022-05-21 04:46:25</time>
      </trkpt>
      <trkpt lat="42.00996" lon="2.47031">
        <ele>804</ele>
        <time>2022-05-21 04:46:26</time>
      </trkpt>
      <trkpt lat="42.00998" lon="2.47031">
        <ele>804.2</ele>
        <time>2022-05-21 04:46:27</time>
      </trkpt>
      <trkpt lat="42.00999" lon="2.47032">
        <ele>804.4</ele>
        <time>2022-05-21 04:46:28</time>
      </trkpt>
      <trkpt lat="42.01001" lon="2.47032">
        <ele>804.8</ele>
        <time>2022-05-21 04:46:29</time>
      </trkpt>
      <trkpt lat="42.01003" lon="2.47033">
        <ele>805</ele>
        <time>2022-05-21 04:46:30</time>
      </trkpt>
      <trkpt lat="42.01005" lon="2.47033">
        <ele>805.2</ele>
        <time>2022-05-21 04:46:31</time>
      </trkpt>
      <trkpt lat="42.01006" lon="2.47034">
        <ele>805.4</ele>
        <time>2022-05-21 04:46:32</time>
      </trkpt>
      <trkpt lat="42.01007" lon="2.47034">
        <ele>805.8</ele>
        <time>2022-05-21 04:46:33</time>
      </trkpt>
      <trkpt lat="42.01009" lon="2.47035">
        <ele>806</ele>
        <time>2022-05-21 04:46:34</time>
      </trkpt>
      <trkpt lat="42.01011" lon="2.47036">
        <ele>806.2</ele>
        <time>2022-05-21 04:46:35</time>
      </trkpt>
      <trkpt lat="42.01012" lon="2.47036">
        <ele>806.4</ele>
        <time>2022-05-21 04:46:36</time>
      </trkpt>
      <trkpt lat="42.01014" lon="2.47037">
        <ele>806.6</ele>
        <time>2022-05-21 04:46:37</time>
      </trkpt>
      <trkpt lat="42.01016" lon="2.47038">
        <ele>807</ele>
        <time>2022-05-21 04:46:38</time>
      </trkpt>
      <trkpt lat="42.01018" lon="2.47038">
        <ele>807.2</ele>
        <time>2022-05-21 04:46:39</time>
      </trkpt>
      <trkpt lat="42.0102" lon="2.47039">
        <ele>807.4</ele>
        <time>2022-05-21 04:46:40</time>
      </trkpt>
      <trkpt lat="42.01022" lon="2.4704">
        <ele>807.6</ele>
        <time>2022-05-21 04:46:41</time>
      </trkpt>
      <trkpt lat="42.01023" lon="2.47041">
        <ele>807.8</ele>
        <time>2022-05-21 04:46:42</time>
      </trkpt>
      <trkpt lat="42.01025" lon="2.47042">
        <ele>808</ele>
        <time>2022-05-21 04:46:43</time>
      </trkpt>
      <trkpt lat="42.01027" lon="2.47043">
        <ele>808.2</ele>
        <time>2022-05-21 04:46:44</time>
      </trkpt>
      <trkpt lat="42.01028" lon="2.47044">
        <ele>808.4</ele>
        <time>2022-05-21 04:46:45</time>
      </trkpt>
      <trkpt lat="42.0103" lon="2.47045">
        <ele>808.4</ele>
        <time>2022-05-21 04:46:46</time>
      </trkpt>
      <trkpt lat="42.01031" lon="2.47046">
        <ele>808.6</ele>
        <time>2022-05-21 04:46:47</time>
      </trkpt>
      <trkpt lat="42.01033" lon="2.47047">
        <ele>808.8</ele>
        <time>2022-05-21 04:46:48</time>
      </trkpt>
      <trkpt lat="42.01035" lon="2.47048">
        <ele>809</ele>
        <time>2022-05-21 04:46:49</time>
      </trkpt>
      <trkpt lat="42.01036" lon="2.47049">
        <ele>809.2</ele>
        <time>2022-05-21 04:46:50</time>
      </trkpt>
      <trkpt lat="42.01037" lon="2.4705">
        <ele>809.2</ele>
        <time>2022-05-21 04:46:51</time>
      </trkpt>
      <trkpt lat="42.01039" lon="2.4705">
        <ele>809.4</ele>
        <time>2022-05-21 04:46:52</time>
      </trkpt>
      <trkpt lat="42.01041" lon="2.47051">
        <ele>809.6</ele>
        <time>2022-05-21 04:46:53</time>
      </trkpt>
      <trkpt lat="42.01043" lon="2.47053">
        <ele>809.8</ele>
        <time>2022-05-21 04:46:54</time>
      </trkpt>
      <trkpt lat="42.01044" lon="2.47054">
        <ele>810</ele>
        <time>2022-05-21 04:46:55</time>
      </trkpt>
      <trkpt lat="42.01046" lon="2.47055">
        <ele>810.2</ele>
        <time>2022-05-21 04:46:56</time>
      </trkpt>
      <trkpt lat="42.01048" lon="2.47056">
        <ele>810.4</ele>
        <time>2022-05-21 04:46:57</time>
      </trkpt>
      <trkpt lat="42.0105" lon="2.47057">
        <ele>810.6</ele>
        <time>2022-05-21 04:46:58</time>
      </trkpt>
      <trkpt lat="42.01052" lon="2.47057">
        <ele>810.8</ele>
        <time>2022-05-21 04:46:59</time>
      </trkpt>
      <trkpt lat="42.01054" lon="2.47058">
        <ele>810.8</ele>
        <time>2022-05-21 04:47:00</time>
      </trkpt>
      <trkpt lat="42.01056" lon="2.47059">
        <ele>811</ele>
        <time>2022-05-21 04:47:01</time>
      </trkpt>
      <trkpt lat="42.01057" lon="2.4706">
        <ele>811.2</ele>
        <time>2022-05-21 04:47:02</time>
      </trkpt>
      <trkpt lat="42.01059" lon="2.47061">
        <ele>811.4</ele>
        <time>2022-05-21 04:47:03</time>
      </trkpt>
      <trkpt lat="42.01061" lon="2.47062">
        <ele>811.6</ele>
        <time>2022-05-21 04:47:04</time>
      </trkpt>
      <trkpt lat="42.01063" lon="2.47063">
        <ele>811.8</ele>
        <time>2022-05-21 04:47:05</time>
      </trkpt>
      <trkpt lat="42.01065" lon="2.47064">
        <ele>812</ele>
        <time>2022-05-21 04:47:06</time>
      </trkpt>
      <trkpt lat="42.01067" lon="2.47065">
        <ele>812.2</ele>
        <time>2022-05-21 04:47:07</time>
      </trkpt>
      <trkpt lat="42.01068" lon="2.47066">
        <ele>812.2</ele>
        <time>2022-05-21 04:47:08</time>
      </trkpt>
      <trkpt lat="42.01071" lon="2.47067">
        <ele>812.4</ele>
        <time>2022-05-21 04:47:09</time>
      </trkpt>
      <trkpt lat="42.01073" lon="2.47068">
        <ele>812.4</ele>
        <time>2022-05-21 04:47:10</time>
      </trkpt>
      <trkpt lat="42.01076" lon="2.47068">
        <ele>812.6</ele>
        <time>2022-05-21 04:47:11</time>
      </trkpt>
      <trkpt lat="42.01078" lon="2.47069">
        <ele>812.6</ele>
        <time>2022-05-21 04:47:12</time>
      </trkpt>
      <trkpt lat="42.01081" lon="2.47071">
        <ele>812.8</ele>
        <time>2022-05-21 04:47:13</time>
      </trkpt>
      <trkpt lat="42.01084" lon="2.47072">
        <ele>812.8</ele>
        <time>2022-05-21 04:47:14</time>
      </trkpt>
      <trkpt lat="42.01087" lon="2.47074">
        <ele>812.8</ele>
        <time>2022-05-21 04:47:15</time>
      </trkpt>
      <trkpt lat="42.01089" lon="2.47075">
        <ele>812.8</ele>
        <time>2022-05-21 04:47:16</time>
      </trkpt>
      <trkpt lat="42.01092" lon="2.47077">
        <ele>813</ele>
        <time>2022-05-21 04:47:17</time>
      </trkpt>
      <trkpt lat="42.01095" lon="2.47078">
        <ele>813</ele>
        <time>2022-05-21 04:47:18</time>
      </trkpt>
      <trkpt lat="42.01098" lon="2.47079">
        <ele>813</ele>
        <time>2022-05-21 04:47:19</time>
      </trkpt>
      <trkpt lat="42.01101" lon="2.4708">
        <ele>813.2</ele>
        <time>2022-05-21 04:47:20</time>
      </trkpt>
      <trkpt lat="42.01104" lon="2.47081">
        <ele>813.2</ele>
        <time>2022-05-21 04:47:21</time>
      </trkpt>
      <trkpt lat="42.01107" lon="2.47082">
        <ele>813.2</ele>
        <time>2022-05-21 04:47:22</time>
      </trkpt>
      <trkpt lat="42.01111" lon="2.47082">
        <ele>813.4</ele>
        <time>2022-05-21 04:47:23</time>
      </trkpt>
      <trkpt lat="42.01114" lon="2.47083">
        <ele>813.4</ele>
        <time>2022-05-21 04:47:24</time>
      </trkpt>
      <trkpt lat="42.01117" lon="2.47083">
        <ele>813.4</ele>
        <time>2022-05-21 04:47:25</time>
      </trkpt>
      <trkpt lat="42.0112" lon="2.47082">
        <ele>813.4</ele>
        <time>2022-05-21 04:47:26</time>
      </trkpt>
      <trkpt lat="42.01124" lon="2.47082">
        <ele>813.6</ele>
        <time>2022-05-21 04:47:27</time>
      </trkpt>
      <trkpt lat="42.01127" lon="2.47081">
        <ele>813.6</ele>
        <time>2022-05-21 04:47:28</time>
      </trkpt>
      <trkpt lat="42.0113" lon="2.47081">
        <ele>813.8</ele>
        <time>2022-05-21 04:47:29</time>
      </trkpt>
      <trkpt lat="42.01133" lon="2.4708">
        <ele>813.8</ele>
        <time>2022-05-21 04:47:30</time>
      </trkpt>
      <trkpt lat="42.01136" lon="2.4708">
        <ele>814</ele>
        <time>2022-05-21 04:47:31</time>
      </trkpt>
      <trkpt lat="42.01139" lon="2.47079">
        <ele>814</ele>
        <time>2022-05-21 04:47:32</time>
      </trkpt>
      <trkpt lat="42.01142" lon="2.47078">
        <ele>814.2</ele>
        <time>2022-05-21 04:47:33</time>
      </trkpt>
      <trkpt lat="42.01145" lon="2.47077">
        <ele>814.4</ele>
        <time>2022-05-21 04:47:34</time>
      </trkpt>
      <trkpt lat="42.01148" lon="2.47076">
        <ele>814.6</ele>
        <time>2022-05-21 04:47:35</time>
      </trkpt>
      <trkpt lat="42.01151" lon="2.47075">
        <ele>814.6</ele>
        <time>2022-05-21 04:47:36</time>
      </trkpt>
      <trkpt lat="42.01154" lon="2.47074">
        <ele>814.8</ele>
        <time>2022-05-21 04:47:37</time>
      </trkpt>
      <trkpt lat="42.01156" lon="2.47073">
        <ele>815</ele>
        <time>2022-05-21 04:47:38</time>
      </trkpt>
      <trkpt lat="42.01159" lon="2.47072">
        <ele>815.2</ele>
        <time>2022-05-21 04:47:39</time>
      </trkpt>
      <trkpt lat="42.01161" lon="2.47071">
        <ele>815.2</ele>
        <time>2022-05-21 04:47:40</time>
      </trkpt>
      <trkpt lat="42.01163" lon="2.4707">
        <ele>815.4</ele>
        <time>2022-05-21 04:47:41</time>
      </trkpt>
      <trkpt lat="42.01165" lon="2.47069">
        <ele>815.6</ele>
        <time>2022-05-21 04:47:42</time>
      </trkpt>
      <trkpt lat="42.01167" lon="2.47068">
        <ele>815.8</ele>
        <time>2022-05-21 04:47:43</time>
      </trkpt>
      <trkpt lat="42.01169" lon="2.47067">
        <ele>816</ele>
        <time>2022-05-21 04:47:44</time>
      </trkpt>
      <trkpt lat="42.0117" lon="2.47066">
        <ele>816</ele>
        <time>2022-05-21 04:47:45</time>
      </trkpt>
      <trkpt lat="42.01172" lon="2.47065">
        <ele>816.2</ele>
        <time>2022-05-21 04:47:46</time>
      </trkpt>
      <trkpt lat="42.01174" lon="2.47064">
        <ele>816.4</ele>
        <time>2022-05-21 04:47:47</time>
      </trkpt>
      <trkpt lat="42.01175" lon="2.47063">
        <ele>816.6</ele>
        <time>2022-05-21 04:47:48</time>
      </trkpt>
      <trkpt lat="42.01176" lon="2.47062">
        <ele>816.6</ele>
        <time>2022-05-21 04:47:49</time>
      </trkpt>
      <trkpt lat="42.01178" lon="2.47061">
        <ele>816.8</ele>
        <time>2022-05-21 04:47:50</time>
      </trkpt>
      <trkpt lat="42.0118" lon="2.4706">
        <ele>817</ele>
        <time>2022-05-21 04:47:51</time>
      </trkpt>
      <trkpt lat="42.01181" lon="2.47059">
        <ele>817.2</ele>
        <time>2022-05-21 04:47:52</time>
      </trkpt>
      <trkpt lat="42.01183" lon="2.47058">
        <ele>817.2</ele>
        <time>2022-05-21 04:47:53</time>
      </trkpt>
      <trkpt lat="42.01185" lon="2.47058">
        <ele>817.4</ele>
        <time>2022-05-21 04:47:54</time>
      </trkpt>
      <trkpt lat="42.01187" lon="2.47057">
        <ele>817.6</ele>
        <time>2022-05-21 04:47:55</time>
      </trkpt>
      <trkpt lat="42.01189" lon="2.47056">
        <ele>817.8</ele>
        <time>2022-05-21 04:47:56</time>
      </trkpt>
      <trkpt lat="42.01191" lon="2.47056">
        <ele>817.8</ele>
        <time>2022-05-21 04:47:57</time>
      </trkpt>
      <trkpt lat="42.01193" lon="2.47055">
        <ele>818</ele>
        <time>2022-05-21 04:47:58</time>
      </trkpt>
      <trkpt lat="42.01194" lon="2.47055">
        <ele>818.2</ele>
        <time>2022-05-21 04:47:59</time>
      </trkpt>
      <trkpt lat="42.01196" lon="2.47054">
        <ele>818.4</ele>
        <time>2022-05-21 04:48:00</time>
      </trkpt>
      <trkpt lat="42.01198" lon="2.47053">
        <ele>818.6</ele>
        <time>2022-05-21 04:48:01</time>
      </trkpt>
      <trkpt lat="42.012" lon="2.47052">
        <ele>818.8</ele>
        <time>2022-05-21 04:48:02</time>
      </trkpt>
      <trkpt lat="42.01201" lon="2.47051">
        <ele>819</ele>
        <time>2022-05-21 04:48:03</time>
      </trkpt>
      <trkpt lat="42.01203" lon="2.4705">
        <ele>819</ele>
        <time>2022-05-21 04:48:04</time>
      </trkpt>
      <trkpt lat="42.01205" lon="2.47049">
        <ele>819.2</ele>
        <time>2022-05-21 04:48:05</time>
      </trkpt>
      <trkpt lat="42.01207" lon="2.47047">
        <ele>819.4</ele>
        <time>2022-05-21 04:48:06</time>
      </trkpt>
      <trkpt lat="42.01209" lon="2.47046">
        <ele>819.6</ele>
        <time>2022-05-21 04:48:07</time>
      </trkpt>
      <trkpt lat="42.01212" lon="2.47045">
        <ele>819.8</ele>
        <time>2022-05-21 04:48:08</time>
      </trkpt>
      <trkpt lat="42.01213" lon="2.47044">
        <ele>820</ele>
        <time>2022-05-21 04:48:09</time>
      </trkpt>
      <trkpt lat="42.01216" lon="2.47043">
        <ele>820.2</ele>
        <time>2022-05-21 04:48:10</time>
      </trkpt>
      <trkpt lat="42.01218" lon="2.47042">
        <ele>820.4</ele>
        <time>2022-05-21 04:48:11</time>
      </trkpt>
      <trkpt lat="42.0122" lon="2.47041">
        <ele>820.4</ele>
        <time>2022-05-21 04:48:12</time>
      </trkpt>
      <trkpt lat="42.01222" lon="2.4704">
        <ele>820.6</ele>
        <time>2022-05-21 04:48:13</time>
      </trkpt>
      <trkpt lat="42.01224" lon="2.47039">
        <ele>820.8</ele>
        <time>2022-05-21 04:48:14</time>
      </trkpt>
      <trkpt lat="42.01226" lon="2.47038">
        <ele>821</ele>
        <time>2022-05-21 04:48:15</time>
      </trkpt>
      <trkpt lat="42.01228" lon="2.47037">
        <ele>821</ele>
        <time>2022-05-21 04:48:16</time>
      </trkpt>
      <trkpt lat="42.0123" lon="2.47037">
        <ele>821.2</ele>
        <time>2022-05-21 04:48:17</time>
      </trkpt>
      <trkpt lat="42.01233" lon="2.47036">
        <ele>821.4</ele>
        <time>2022-05-21 04:48:18</time>
      </trkpt>
      <trkpt lat="42.01235" lon="2.47035">
        <ele>821.6</ele>
        <time>2022-05-21 04:48:19</time>
      </trkpt>
      <trkpt lat="42.01237" lon="2.47035">
        <ele>821.6</ele>
        <time>2022-05-21 04:48:20</time>
      </trkpt>
      <trkpt lat="42.0124" lon="2.47034">
        <ele>821.8</ele>
        <time>2022-05-21 04:48:21</time>
      </trkpt>
      <trkpt lat="42.01242" lon="2.47033">
        <ele>822</ele>
        <time>2022-05-21 04:48:22</time>
      </trkpt>
      <trkpt lat="42.01246" lon="2.47032">
        <ele>822</ele>
        <time>2022-05-21 04:48:23</time>
      </trkpt>
      <trkpt lat="42.01249" lon="2.47031">
        <ele>822</ele>
        <time>2022-05-21 04:48:24</time>
      </trkpt>
      <trkpt lat="42.01251" lon="2.4703">
        <ele>822.2</ele>
        <time>2022-05-21 04:48:25</time>
      </trkpt>
      <trkpt lat="42.01254" lon="2.47029">
        <ele>822.2</ele>
        <time>2022-05-21 04:48:26</time>
      </trkpt>
      <trkpt lat="42.01257" lon="2.47027">
        <ele>822.2</ele>
        <time>2022-05-21 04:48:27</time>
      </trkpt>
      <trkpt lat="42.0126" lon="2.47026">
        <ele>822.2</ele>
        <time>2022-05-21 04:48:28</time>
      </trkpt>
      <trkpt lat="42.01262" lon="2.47024">
        <ele>822.2</ele>
        <time>2022-05-21 04:48:29</time>
      </trkpt>
      <trkpt lat="42.01264" lon="2.47022">
        <ele>822.4</ele>
        <time>2022-05-21 04:48:30</time>
      </trkpt>
      <trkpt lat="42.01266" lon="2.4702">
        <ele>822.4</ele>
        <time>2022-05-21 04:48:31</time>
      </trkpt>
      <trkpt lat="42.0127" lon="2.47017">
        <ele>822.4</ele>
        <time>2022-05-21 04:48:32</time>
      </trkpt>
      <trkpt lat="42.01272" lon="2.47015">
        <ele>822.4</ele>
        <time>2022-05-21 04:48:33</time>
      </trkpt>
      <trkpt lat="42.01275" lon="2.47013">
        <ele>822.6</ele>
        <time>2022-05-21 04:48:34</time>
      </trkpt>
      <trkpt lat="42.01277" lon="2.47011">
        <ele>822.6</ele>
        <time>2022-05-21 04:48:35</time>
      </trkpt>
      <trkpt lat="42.01279" lon="2.47009">
        <ele>822.8</ele>
        <time>2022-05-21 04:48:36</time>
      </trkpt>
      <trkpt lat="42.01281" lon="2.47007">
        <ele>822.8</ele>
        <time>2022-05-21 04:48:37</time>
      </trkpt>
      <trkpt lat="42.01284" lon="2.47005">
        <ele>823</ele>
        <time>2022-05-21 04:48:38</time>
      </trkpt>
      <trkpt lat="42.01286" lon="2.47003">
        <ele>823</ele>
        <time>2022-05-21 04:48:39</time>
      </trkpt>
      <trkpt lat="42.01288" lon="2.47001">
        <ele>823.2</ele>
        <time>2022-05-21 04:48:40</time>
      </trkpt>
      <trkpt lat="42.0129" lon="2.46999">
        <ele>823.4</ele>
        <time>2022-05-21 04:48:41</time>
      </trkpt>
      <trkpt lat="42.01292" lon="2.46997">
        <ele>823.6</ele>
        <time>2022-05-21 04:48:42</time>
      </trkpt>
      <trkpt lat="42.01294" lon="2.46995">
        <ele>823.8</ele>
        <time>2022-05-21 04:48:43</time>
      </trkpt>
      <trkpt lat="42.01296" lon="2.46992">
        <ele>823.8</ele>
        <time>2022-05-21 04:48:44</time>
      </trkpt>
      <trkpt lat="42.01299" lon="2.4699">
        <ele>824</ele>
        <time>2022-05-21 04:48:45</time>
      </trkpt>
      <trkpt lat="42.01301" lon="2.46988">
        <ele>824.2</ele>
        <time>2022-05-21 04:48:46</time>
      </trkpt>
      <trkpt lat="42.01303" lon="2.46987">
        <ele>824.4</ele>
        <time>2022-05-21 04:48:47</time>
      </trkpt>
      <trkpt lat="42.01306" lon="2.46987">
        <ele>824.6</ele>
        <time>2022-05-21 04:48:48</time>
      </trkpt>
      <trkpt lat="42.01309" lon="2.46987">
        <ele>824.8</ele>
        <time>2022-05-21 04:48:49</time>
      </trkpt>
      <trkpt lat="42.01311" lon="2.46988">
        <ele>824.8</ele>
        <time>2022-05-21 04:48:50</time>
      </trkpt>
      <trkpt lat="42.01313" lon="2.4699">
        <ele>825</ele>
        <time>2022-05-21 04:48:51</time>
      </trkpt>
      <trkpt lat="42.01315" lon="2.46991">
        <ele>825.2</ele>
        <time>2022-05-21 04:48:52</time>
      </trkpt>
      <trkpt lat="42.01318" lon="2.46993">
        <ele>825.2</ele>
        <time>2022-05-21 04:48:53</time>
      </trkpt>
      <trkpt lat="42.0132" lon="2.46995">
        <ele>825.2</ele>
        <time>2022-05-21 04:48:54</time>
      </trkpt>
      <trkpt lat="42.01323" lon="2.46998">
        <ele>825.2</ele>
        <time>2022-05-21 04:48:55</time>
      </trkpt>
      <trkpt lat="42.01326" lon="2.47">
        <ele>825.4</ele>
        <time>2022-05-21 04:48:56</time>
      </trkpt>
      <trkpt lat="42.01329" lon="2.47003">
        <ele>825.4</ele>
        <time>2022-05-21 04:48:57</time>
      </trkpt>
      <trkpt lat="42.01333" lon="2.47006">
        <ele>825.4</ele>
        <time>2022-05-21 04:48:58</time>
      </trkpt>
      <trkpt lat="42.01336" lon="2.47009">
        <ele>825.2</ele>
        <time>2022-05-21 04:48:59</time>
      </trkpt>
      <trkpt lat="42.0134" lon="2.47012">
        <ele>825.2</ele>
        <time>2022-05-21 04:49:00</time>
      </trkpt>
      <trkpt lat="42.01343" lon="2.47016">
        <ele>825.2</ele>
        <time>2022-05-21 04:49:01</time>
      </trkpt>
      <trkpt lat="42.01346" lon="2.47019">
        <ele>825</ele>
        <time>2022-05-21 04:49:02</time>
      </trkpt>
      <trkpt lat="42.0135" lon="2.47023">
        <ele>825</ele>
        <time>2022-05-21 04:49:03</time>
      </trkpt>
      <trkpt lat="42.01353" lon="2.47026">
        <ele>825</ele>
        <time>2022-05-21 04:49:04</time>
      </trkpt>
      <trkpt lat="42.01357" lon="2.47029">
        <ele>824.8</ele>
        <time>2022-05-21 04:49:05</time>
      </trkpt>
      <trkpt lat="42.01361" lon="2.47031">
        <ele>824.8</ele>
        <time>2022-05-21 04:49:06</time>
      </trkpt>
      <trkpt lat="42.01365" lon="2.47033">
        <ele>824.6</ele>
        <time>2022-05-21 04:49:07</time>
      </trkpt>
      <trkpt lat="42.01369" lon="2.47036">
        <ele>824.6</ele>
        <time>2022-05-21 04:49:08</time>
      </trkpt>
      <trkpt lat="42.01374" lon="2.47039">
        <ele>824.4</ele>
        <time>2022-05-21 04:49:09</time>
      </trkpt>
      <trkpt lat="42.01378" lon="2.47043">
        <ele>824.2</ele>
        <time>2022-05-21 04:49:10</time>
      </trkpt>
      <trkpt lat="42.01382" lon="2.47047">
        <ele>824.2</ele>
        <time>2022-05-21 04:49:11</time>
      </trkpt>
      <trkpt lat="42.01386" lon="2.47051">
        <ele>824.2</ele>
        <time>2022-05-21 04:49:12</time>
      </trkpt>
      <trkpt lat="42.0139" lon="2.47054">
        <ele>824.2</ele>
        <time>2022-05-21 04:49:13</time>
      </trkpt>
      <trkpt lat="42.01394" lon="2.47057">
        <ele>824.2</ele>
        <time>2022-05-21 04:49:14</time>
      </trkpt>
      <trkpt lat="42.01398" lon="2.47059">
        <ele>824.2</ele>
        <time>2022-05-21 04:49:15</time>
      </trkpt>
      <trkpt lat="42.01402" lon="2.4706">
        <ele>824.2</ele>
        <time>2022-05-21 04:49:16</time>
      </trkpt>
      <trkpt lat="42.01406" lon="2.4706">
        <ele>824.4</ele>
        <time>2022-05-21 04:49:17</time>
      </trkpt>
      <trkpt lat="42.0141" lon="2.4706">
        <ele>824.4</ele>
        <time>2022-05-21 04:49:18</time>
      </trkpt>
      <trkpt lat="42.01414" lon="2.47061">
        <ele>824.6</ele>
        <time>2022-05-21 04:49:19</time>
      </trkpt>
      <trkpt lat="42.01418" lon="2.47061">
        <ele>824.6</ele>
        <time>2022-05-21 04:49:20</time>
      </trkpt>
      <trkpt lat="42.01421" lon="2.47062">
        <ele>824.8</ele>
        <time>2022-05-21 04:49:21</time>
      </trkpt>
      <trkpt lat="42.01424" lon="2.47062">
        <ele>824.8</ele>
        <time>2022-05-21 04:49:22</time>
      </trkpt>
      <trkpt lat="42.01427" lon="2.47062">
        <ele>825</ele>
        <time>2022-05-21 04:49:23</time>
      </trkpt>
      <trkpt lat="42.01431" lon="2.47062">
        <ele>825.2</ele>
        <time>2022-05-21 04:49:24</time>
      </trkpt>
      <trkpt lat="42.01435" lon="2.47062">
        <ele>825.2</ele>
        <time>2022-05-21 04:49:25</time>
      </trkpt>
      <trkpt lat="42.01439" lon="2.47061">
        <ele>825.2</ele>
        <time>2022-05-21 04:49:26</time>
      </trkpt>
      <trkpt lat="42.01443" lon="2.47061">
        <ele>825.4</ele>
        <time>2022-05-21 04:49:27</time>
      </trkpt>
      <trkpt lat="42.01447" lon="2.4706">
        <ele>825.4</ele>
        <time>2022-05-21 04:49:28</time>
      </trkpt>
      <trkpt lat="42.01451" lon="2.47059">
        <ele>825.4</ele>
        <time>2022-05-21 04:49:29</time>
      </trkpt>
      <trkpt lat="42.01455" lon="2.47059">
        <ele>825.6</ele>
        <time>2022-05-21 04:49:30</time>
      </trkpt>
      <trkpt lat="42.0146" lon="2.47058">
        <ele>825.6</ele>
        <time>2022-05-21 04:49:31</time>
      </trkpt>
      <trkpt lat="42.01464" lon="2.47057">
        <ele>825.6</ele>
        <time>2022-05-21 04:49:32</time>
      </trkpt>
      <trkpt lat="42.01468" lon="2.47056">
        <ele>825.6</ele>
        <time>2022-05-21 04:49:33</time>
      </trkpt>
      <trkpt lat="42.01472" lon="2.47055">
        <ele>825.6</ele>
        <time>2022-05-21 04:49:34</time>
      </trkpt>
      <trkpt lat="42.01477" lon="2.47053">
        <ele>825.6</ele>
        <time>2022-05-21 04:49:35</time>
      </trkpt>
      <trkpt lat="42.0148" lon="2.47052">
        <ele>825.6</ele>
        <time>2022-05-21 04:49:36</time>
      </trkpt>
      <trkpt lat="42.01484" lon="2.47051">
        <ele>825.6</ele>
        <time>2022-05-21 04:49:37</time>
      </trkpt>
      <trkpt lat="42.01488" lon="2.47049">
        <ele>825.6</ele>
        <time>2022-05-21 04:49:38</time>
      </trkpt>
      <trkpt lat="42.01492" lon="2.47047">
        <ele>825.6</ele>
        <time>2022-05-21 04:49:39</time>
      </trkpt>
      <trkpt lat="42.01495" lon="2.47045">
        <ele>825.8</ele>
        <time>2022-05-21 04:49:40</time>
      </trkpt>
      <trkpt lat="42.01498" lon="2.47043">
        <ele>825.8</ele>
        <time>2022-05-21 04:49:41</time>
      </trkpt>
      <trkpt lat="42.01501" lon="2.47041">
        <ele>826</ele>
        <time>2022-05-21 04:49:42</time>
      </trkpt>
      <trkpt lat="42.01504" lon="2.47038">
        <ele>826</ele>
        <time>2022-05-21 04:49:43</time>
      </trkpt>
      <trkpt lat="42.01507" lon="2.47036">
        <ele>826.2</ele>
        <time>2022-05-21 04:49:44</time>
      </trkpt>
      <trkpt lat="42.0151" lon="2.47033">
        <ele>826.4</ele>
        <time>2022-05-21 04:49:45</time>
      </trkpt>
      <trkpt lat="42.01513" lon="2.47031">
        <ele>826.6</ele>
        <time>2022-05-21 04:49:46</time>
      </trkpt>
      <trkpt lat="42.01516" lon="2.47028">
        <ele>826.6</ele>
        <time>2022-05-21 04:49:47</time>
      </trkpt>
      <trkpt lat="42.01519" lon="2.47025">
        <ele>826.8</ele>
        <time>2022-05-21 04:49:48</time>
      </trkpt>
      <trkpt lat="42.01522" lon="2.47022">
        <ele>827</ele>
        <time>2022-05-21 04:49:49</time>
      </trkpt>
      <trkpt lat="42.01525" lon="2.4702">
        <ele>827.2</ele>
        <time>2022-05-21 04:49:50</time>
      </trkpt>
      <trkpt lat="42.01528" lon="2.47017">
        <ele>827.4</ele>
        <time>2022-05-21 04:49:51</time>
      </trkpt>
      <trkpt lat="42.01531" lon="2.47015">
        <ele>827.4</ele>
        <time>2022-05-21 04:49:52</time>
      </trkpt>
      <trkpt lat="42.01535" lon="2.47013">
        <ele>827.6</ele>
        <time>2022-05-21 04:49:53</time>
      </trkpt>
      <trkpt lat="42.01538" lon="2.4701">
        <ele>827.8</ele>
        <time>2022-05-21 04:49:54</time>
      </trkpt>
      <trkpt lat="42.01541" lon="2.47008">
        <ele>828</ele>
        <time>2022-05-21 04:49:55</time>
      </trkpt>
      <trkpt lat="42.01545" lon="2.47006">
        <ele>828.2</ele>
        <time>2022-05-21 04:49:56</time>
      </trkpt>
      <trkpt lat="42.01548" lon="2.47003">
        <ele>828.2</ele>
        <time>2022-05-21 04:49:57</time>
      </trkpt>
      <trkpt lat="42.01551" lon="2.47001">
        <ele>828.4</ele>
        <time>2022-05-21 04:49:58</time>
      </trkpt>
      <trkpt lat="42.01553" lon="2.46999">
        <ele>828.6</ele>
        <time>2022-05-21 04:49:59</time>
      </trkpt>
      <trkpt lat="42.01556" lon="2.46996">
        <ele>828.8</ele>
        <time>2022-05-21 04:50:00</time>
      </trkpt>
      <trkpt lat="42.0156" lon="2.46993">
        <ele>828.8</ele>
        <time>2022-05-21 04:50:01</time>
      </trkpt>
      <trkpt lat="42.01564" lon="2.4699">
        <ele>829</ele>
        <time>2022-05-21 04:50:02</time>
      </trkpt>
      <trkpt lat="42.01567" lon="2.46987">
        <ele>829</ele>
        <time>2022-05-21 04:50:03</time>
      </trkpt>
      <trkpt lat="42.0157" lon="2.46984">
        <ele>829.2</ele>
        <time>2022-05-21 04:50:04</time>
      </trkpt>
      <trkpt lat="42.01573" lon="2.46981">
        <ele>829.2</ele>
        <time>2022-05-21 04:50:05</time>
      </trkpt>
      <trkpt lat="42.01576" lon="2.46978">
        <ele>829.4</ele>
        <time>2022-05-21 04:50:06</time>
      </trkpt>
      <trkpt lat="42.01579" lon="2.46975">
        <ele>829.4</ele>
        <time>2022-05-21 04:50:07</time>
      </trkpt>
      <trkpt lat="42.01583" lon="2.46972">
        <ele>829.4</ele>
        <time>2022-05-21 04:50:08</time>
      </trkpt>
      <trkpt lat="42.01587" lon="2.46968">
        <ele>829.6</ele>
        <time>2022-05-21 04:50:09</time>
      </trkpt>
      <trkpt lat="42.0159" lon="2.46965">
        <ele>829.6</ele>
        <time>2022-05-21 04:50:10</time>
      </trkpt>
      <trkpt lat="42.01594" lon="2.46962">
        <ele>829.6</ele>
        <time>2022-05-21 04:50:11</time>
      </trkpt>
      <trkpt lat="42.01598" lon="2.46959">
        <ele>829.8</ele>
        <time>2022-05-21 04:50:12</time>
      </trkpt>
      <trkpt lat="42.01601" lon="2.46956">
        <ele>829.8</ele>
        <time>2022-05-21 04:50:13</time>
      </trkpt>
      <trkpt lat="42.01604" lon="2.46953">
        <ele>830</ele>
        <time>2022-05-21 04:50:14</time>
      </trkpt>
      <trkpt lat="42.01607" lon="2.4695">
        <ele>830</ele>
        <time>2022-05-21 04:50:15</time>
      </trkpt>
      <trkpt lat="42.01609" lon="2.46947">
        <ele>830.2</ele>
        <time>2022-05-21 04:50:16</time>
      </trkpt>
      <trkpt lat="42.01613" lon="2.46944">
        <ele>830.2</ele>
        <time>2022-05-21 04:50:17</time>
      </trkpt>
      <trkpt lat="42.01617" lon="2.46942">
        <ele>830.4</ele>
        <time>2022-05-21 04:50:18</time>
      </trkpt>
      <trkpt lat="42.0162" lon="2.4694">
        <ele>830.4</ele>
        <time>2022-05-21 04:50:19</time>
      </trkpt>
      <trkpt lat="42.01624" lon="2.46937">
        <ele>830.6</ele>
        <time>2022-05-21 04:50:20</time>
      </trkpt>
      <trkpt lat="42.01627" lon="2.46935">
        <ele>830.8</ele>
        <time>2022-05-21 04:50:21</time>
      </trkpt>
      <trkpt lat="42.01631" lon="2.46932">
        <ele>830.8</ele>
        <time>2022-05-21 04:50:22</time>
      </trkpt>
      <trkpt lat="42.01634" lon="2.4693">
        <ele>831</ele>
        <time>2022-05-21 04:50:23</time>
      </trkpt>
      <trkpt lat="42.01638" lon="2.46927">
        <ele>831.2</ele>
        <time>2022-05-21 04:50:24</time>
      </trkpt>
      <trkpt lat="42.01642" lon="2.46924">
        <ele>831.2</ele>
        <time>2022-05-21 04:50:25</time>
      </trkpt>
      <trkpt lat="42.01646" lon="2.46922">
        <ele>831.2</ele>
        <time>2022-05-21 04:50:26</time>
      </trkpt>
      <trkpt lat="42.0165" lon="2.46919">
        <ele>831.4</ele>
        <time>2022-05-21 04:50:27</time>
      </trkpt>
      <trkpt lat="42.01654" lon="2.46916">
        <ele>831.4</ele>
        <time>2022-05-21 04:50:28</time>
      </trkpt>
      <trkpt lat="42.01658" lon="2.46914">
        <ele>831.2</ele>
        <time>2022-05-21 04:50:29</time>
      </trkpt>
      <trkpt lat="42.01662" lon="2.46911">
        <ele>831.2</ele>
        <time>2022-05-21 04:50:30</time>
      </trkpt>
      <trkpt lat="42.01667" lon="2.46908">
        <ele>831</ele>
        <time>2022-05-21 04:50:31</time>
      </trkpt>
      <trkpt lat="42.01671" lon="2.46905">
        <ele>831</ele>
        <time>2022-05-21 04:50:32</time>
      </trkpt>
      <trkpt lat="42.01676" lon="2.46902">
        <ele>830.6</ele>
        <time>2022-05-21 04:50:33</time>
      </trkpt>
      <trkpt lat="42.01682" lon="2.469">
        <ele>830.4</ele>
        <time>2022-05-21 04:50:34</time>
      </trkpt>
      <trkpt lat="42.01688" lon="2.46899">
        <ele>830</ele>
        <time>2022-05-21 04:50:35</time>
      </trkpt>
      <trkpt lat="42.01694" lon="2.46897">
        <ele>829.6</ele>
        <time>2022-05-21 04:50:36</time>
      </trkpt>
      <trkpt lat="42.01701" lon="2.46895">
        <ele>829.2</ele>
        <time>2022-05-21 04:50:37</time>
      </trkpt>
      <trkpt lat="42.01709" lon="2.46894">
        <ele>828.8</ele>
        <time>2022-05-21 04:50:38</time>
      </trkpt>
      <trkpt lat="42.01716" lon="2.46892">
        <ele>828.4</ele>
        <time>2022-05-21 04:50:39</time>
      </trkpt>
      <trkpt lat="42.01724" lon="2.46891">
        <ele>828</ele>
        <time>2022-05-21 04:50:40</time>
      </trkpt>
      <trkpt lat="42.01732" lon="2.4689">
        <ele>827.6</ele>
        <time>2022-05-21 04:50:41</time>
      </trkpt>
      <trkpt lat="42.01739" lon="2.46888">
        <ele>827.4</ele>
        <time>2022-05-21 04:50:42</time>
      </trkpt>
      <trkpt lat="42.01746" lon="2.46886">
        <ele>827</ele>
        <time>2022-05-21 04:50:43</time>
      </trkpt>
      <trkpt lat="42.01754" lon="2.46883">
        <ele>826.8</ele>
        <time>2022-05-21 04:50:44</time>
      </trkpt>
      <trkpt lat="42.01761" lon="2.46881">
        <ele>826.6</ele>
        <time>2022-05-21 04:50:45</time>
      </trkpt>
      <trkpt lat="42.01768" lon="2.46879">
        <ele>826.4</ele>
        <time>2022-05-21 04:50:46</time>
      </trkpt>
      <trkpt lat="42.01776" lon="2.46878">
        <ele>826.2</ele>
        <time>2022-05-21 04:50:47</time>
      </trkpt>
      <trkpt lat="42.01783" lon="2.46877">
        <ele>826.2</ele>
        <time>2022-05-21 04:50:48</time>
      </trkpt>
      <trkpt lat="42.0179" lon="2.46876">
        <ele>826</ele>
        <time>2022-05-21 04:50:49</time>
      </trkpt>
      <trkpt lat="42.01796" lon="2.46876">
        <ele>826</ele>
        <time>2022-05-21 04:50:50</time>
      </trkpt>
      <trkpt lat="42.01803" lon="2.46876">
        <ele>826</ele>
        <time>2022-05-21 04:50:51</time>
      </trkpt>
      <trkpt lat="42.01809" lon="2.46876">
        <ele>826.2</ele>
        <time>2022-05-21 04:50:52</time>
      </trkpt>
      <trkpt lat="42.01815" lon="2.46876">
        <ele>826.2</ele>
        <time>2022-05-21 04:50:53</time>
      </trkpt>
      <trkpt lat="42.01821" lon="2.46876">
        <ele>826.2</ele>
        <time>2022-05-21 04:50:54</time>
      </trkpt>
      <trkpt lat="42.01826" lon="2.46876">
        <ele>826.4</ele>
        <time>2022-05-21 04:50:55</time>
      </trkpt>
      <trkpt lat="42.01831" lon="2.46877">
        <ele>826.6</ele>
        <time>2022-05-21 04:50:56</time>
      </trkpt>
      <trkpt lat="42.01837" lon="2.46877">
        <ele>826.6</ele>
        <time>2022-05-21 04:50:57</time>
      </trkpt>
      <trkpt lat="42.01842" lon="2.46878">
        <ele>827</ele>
        <time>2022-05-21 04:50:58</time>
      </trkpt>
      <trkpt lat="42.01847" lon="2.46878">
        <ele>827.2</ele>
        <time>2022-05-21 04:50:59</time>
      </trkpt>
      <trkpt lat="42.01852" lon="2.46878">
        <ele>827.4</ele>
        <time>2022-05-21 04:51:00</time>
      </trkpt>
      <trkpt lat="42.01856" lon="2.46879">
        <ele>827.6</ele>
        <time>2022-05-21 04:51:01</time>
      </trkpt>
      <trkpt lat="42.01861" lon="2.46879">
        <ele>827.8</ele>
        <time>2022-05-21 04:51:02</time>
      </trkpt>
      <trkpt lat="42.01866" lon="2.4688">
        <ele>828</ele>
        <time>2022-05-21 04:51:03</time>
      </trkpt>
      <trkpt lat="42.01871" lon="2.46879">
        <ele>828.2</ele>
        <time>2022-05-21 04:51:04</time>
      </trkpt>
      <trkpt lat="42.01875" lon="2.46879">
        <ele>828.4</ele>
        <time>2022-05-21 04:51:05</time>
      </trkpt>
      <trkpt lat="42.0188" lon="2.46878">
        <ele>828.4</ele>
        <time>2022-05-21 04:51:06</time>
      </trkpt>
      <trkpt lat="42.01884" lon="2.46876">
        <ele>828.4</ele>
        <time>2022-05-21 04:51:07</time>
      </trkpt>
      <trkpt lat="42.01888" lon="2.46873">
        <ele>828.4</ele>
        <time>2022-05-21 04:51:08</time>
      </trkpt>
      <trkpt lat="42.01892" lon="2.46869">
        <ele>828.2</ele>
        <time>2022-05-21 04:51:09</time>
      </trkpt>
      <trkpt lat="42.01896" lon="2.46864">
        <ele>828</ele>
        <time>2022-05-21 04:51:10</time>
      </trkpt>
      <trkpt lat="42.01899" lon="2.4686">
        <ele>827.6</ele>
        <time>2022-05-21 04:51:11</time>
      </trkpt>
      <trkpt lat="42.01903" lon="2.46855">
        <ele>827.2</ele>
        <time>2022-05-21 04:51:12</time>
      </trkpt>
      <trkpt lat="42.01906" lon="2.46849">
        <ele>826.8</ele>
        <time>2022-05-21 04:51:13</time>
      </trkpt>
      <trkpt lat="42.01908" lon="2.46842">
        <ele>826.4</ele>
        <time>2022-05-21 04:51:14</time>
      </trkpt>
      <trkpt lat="42.01908" lon="2.46835">
        <ele>826.2</ele>
        <time>2022-05-21 04:51:15</time>
      </trkpt>
      <trkpt lat="42.01908" lon="2.4683">
        <ele>826.2</ele>
        <time>2022-05-21 04:51:16</time>
      </trkpt>
      <trkpt lat="42.01907" lon="2.46826">
        <ele>826.2</ele>
        <time>2022-05-21 04:51:17</time>
      </trkpt>
      <trkpt lat="42.01905" lon="2.46822">
        <ele>826</ele>
        <time>2022-05-21 04:51:18</time>
      </trkpt>
      <trkpt lat="42.01903" lon="2.46818">
        <ele>826.2</ele>
        <time>2022-05-21 04:51:19</time>
      </trkpt>
      <trkpt lat="42.01901" lon="2.46815">
        <ele>826.2</ele>
        <time>2022-05-21 04:51:20</time>
      </trkpt>
      <trkpt lat="42.01899" lon="2.46812">
        <ele>826.2</ele>
        <time>2022-05-21 04:51:21</time>
      </trkpt>
      <trkpt lat="42.01896" lon="2.4681">
        <ele>826.4</ele>
        <time>2022-05-21 04:51:22</time>
      </trkpt>
      <trkpt lat="42.01894" lon="2.46807">
        <ele>826.6</ele>
        <time>2022-05-21 04:51:23</time>
      </trkpt>
      <trkpt lat="42.01892" lon="2.46804">
        <ele>826.8</ele>
        <time>2022-05-21 04:51:24</time>
      </trkpt>
      <trkpt lat="42.01891" lon="2.46801">
        <ele>827</ele>
        <time>2022-05-21 04:51:25</time>
      </trkpt>
      <trkpt lat="42.01889" lon="2.46799">
        <ele>827</ele>
        <time>2022-05-21 04:51:26</time>
      </trkpt>
      <trkpt lat="42.01888" lon="2.46796">
        <ele>827.2</ele>
        <time>2022-05-21 04:51:27</time>
      </trkpt>
      <trkpt lat="42.01886" lon="2.46794">
        <ele>827.6</ele>
        <time>2022-05-21 04:51:28</time>
      </trkpt>
      <trkpt lat="42.01884" lon="2.46791">
        <ele>827.8</ele>
        <time>2022-05-21 04:51:29</time>
      </trkpt>
      <trkpt lat="42.01883" lon="2.46789">
        <ele>828</ele>
        <time>2022-05-21 04:51:30</time>
      </trkpt>
      <trkpt lat="42.01881" lon="2.46786">
        <ele>828.2</ele>
        <time>2022-05-21 04:51:31</time>
      </trkpt>
      <trkpt lat="42.01879" lon="2.46783">
        <ele>828.4</ele>
        <time>2022-05-21 04:51:32</time>
      </trkpt>
      <trkpt lat="42.01877" lon="2.46781">
        <ele>828.6</ele>
        <time>2022-05-21 04:51:33</time>
      </trkpt>
      <trkpt lat="42.01875" lon="2.46778">
        <ele>828.8</ele>
        <time>2022-05-21 04:51:34</time>
      </trkpt>
      <trkpt lat="42.01873" lon="2.46776">
        <ele>829</ele>
        <time>2022-05-21 04:51:35</time>
      </trkpt>
      <trkpt lat="42.01871" lon="2.46773">
        <ele>829.2</ele>
        <time>2022-05-21 04:51:36</time>
      </trkpt>
      <trkpt lat="42.01869" lon="2.46771">
        <ele>829.4</ele>
        <time>2022-05-21 04:51:37</time>
      </trkpt>
      <trkpt lat="42.01867" lon="2.46769">
        <ele>829.6</ele>
        <time>2022-05-21 04:51:38</time>
      </trkpt>
      <trkpt lat="42.01865" lon="2.46766">
        <ele>829.8</ele>
        <time>2022-05-21 04:51:39</time>
      </trkpt>
      <trkpt lat="42.01863" lon="2.46763">
        <ele>830.2</ele>
        <time>2022-05-21 04:51:40</time>
      </trkpt>
      <trkpt lat="42.01862" lon="2.46761">
        <ele>830.4</ele>
        <time>2022-05-21 04:51:41</time>
      </trkpt>
      <trkpt lat="42.01861" lon="2.46757">
        <ele>830.6</ele>
        <time>2022-05-21 04:51:42</time>
      </trkpt>
      <trkpt lat="42.0186" lon="2.46753">
        <ele>830.8</ele>
        <time>2022-05-21 04:51:43</time>
      </trkpt>
      <trkpt lat="42.01859" lon="2.4675">
        <ele>831</ele>
        <time>2022-05-21 04:51:44</time>
      </trkpt>
      <trkpt lat="42.01856" lon="2.46747">
        <ele>831.2</ele>
        <time>2022-05-21 04:51:45</time>
      </trkpt>
      <trkpt lat="42.01855" lon="2.46745">
        <ele>831.4</ele>
        <time>2022-05-21 04:51:46</time>
      </trkpt>
      <trkpt lat="42.01854" lon="2.46743">
        <ele>831.8</ele>
        <time>2022-05-21 04:51:47</time>
      </trkpt>
      <trkpt lat="42.01852" lon="2.46741">
        <ele>832</ele>
        <time>2022-05-21 04:51:48</time>
      </trkpt>
      <trkpt lat="42.0185" lon="2.46739">
        <ele>832.2</ele>
        <time>2022-05-21 04:51:49</time>
      </trkpt>
      <trkpt lat="42.01849" lon="2.46737">
        <ele>832.4</ele>
        <time>2022-05-21 04:51:50</time>
      </trkpt>
      <trkpt lat="42.01847" lon="2.46735">
        <ele>832.6</ele>
        <time>2022-05-21 04:51:51</time>
      </trkpt>
      <trkpt lat="42.01846" lon="2.46733">
        <ele>832.8</ele>
        <time>2022-05-21 04:51:52</time>
      </trkpt>
      <trkpt lat="42.01845" lon="2.46731">
        <ele>833</ele>
        <time>2022-05-21 04:51:53</time>
      </trkpt>
      <trkpt lat="42.01843" lon="2.4673">
        <ele>833.2</ele>
        <time>2022-05-21 04:51:54</time>
      </trkpt>
      <trkpt lat="42.01842" lon="2.46728">
        <ele>833.4</ele>
        <time>2022-05-21 04:51:55</time>
      </trkpt>
      <trkpt lat="42.01841" lon="2.46726">
        <ele>833.6</ele>
        <time>2022-05-21 04:51:56</time>
      </trkpt>
      <trkpt lat="42.0184" lon="2.46722">
        <ele>833.8</ele>
        <time>2022-05-21 04:51:57</time>
      </trkpt>
      <trkpt lat="42.01839" lon="2.46717">
        <ele>834</ele>
        <time>2022-05-21 04:51:58</time>
      </trkpt>
      <trkpt lat="42.01839" lon="2.46712">
        <ele>834</ele>
        <time>2022-05-21 04:51:59</time>
      </trkpt>
      <trkpt lat="42.01838" lon="2.46708">
        <ele>834.2</ele>
        <time>2022-05-21 04:52:00</time>
      </trkpt>
      <trkpt lat="42.01839" lon="2.46704">
        <ele>834.4</ele>
        <time>2022-05-21 04:52:01</time>
      </trkpt>
      <trkpt lat="42.0184" lon="2.467">
        <ele>834.4</ele>
        <time>2022-05-21 04:52:02</time>
      </trkpt>
      <trkpt lat="42.01841" lon="2.46696">
        <ele>834.6</ele>
        <time>2022-05-21 04:52:03</time>
      </trkpt>
      <trkpt lat="42.01841" lon="2.46692">
        <ele>834.8</ele>
        <time>2022-05-21 04:52:04</time>
      </trkpt>
      <trkpt lat="42.01841" lon="2.46687">
        <ele>834.8</ele>
        <time>2022-05-21 04:52:05</time>
      </trkpt>
      <trkpt lat="42.01841" lon="2.46683">
        <ele>835</ele>
        <time>2022-05-21 04:52:06</time>
      </trkpt>
      <trkpt lat="42.01841" lon="2.46679">
        <ele>835.2</ele>
        <time>2022-05-21 04:52:07</time>
      </trkpt>
      <trkpt lat="42.01841" lon="2.46676">
        <ele>835.2</ele>
        <time>2022-05-21 04:52:08</time>
      </trkpt>
      <trkpt lat="42.01841" lon="2.46672">
        <ele>835.4</ele>
        <time>2022-05-21 04:52:09</time>
      </trkpt>
      <trkpt lat="42.01841" lon="2.46668">
        <ele>835.6</ele>
        <time>2022-05-21 04:52:10</time>
      </trkpt>
      <trkpt lat="42.01841" lon="2.46664">
        <ele>835.6</ele>
        <time>2022-05-21 04:52:11</time>
      </trkpt>
      <trkpt lat="42.01842" lon="2.46662">
        <ele>835.8</ele>
        <time>2022-05-21 04:52:12</time>
      </trkpt>
      <trkpt lat="42.01841" lon="2.4666">
        <ele>836</ele>
        <time>2022-05-21 04:52:13</time>
      </trkpt>
      <trkpt lat="42.01842" lon="2.46658">
        <ele>836.2</ele>
        <time>2022-05-21 04:52:14</time>
      </trkpt>
      <trkpt lat="42.01842" lon="2.46655">
        <ele>836.4</ele>
        <time>2022-05-21 04:52:15</time>
      </trkpt>
      <trkpt lat="42.01843" lon="2.46651">
        <ele>836.6</ele>
        <time>2022-05-21 04:52:16</time>
      </trkpt>
      <trkpt lat="42.01844" lon="2.46648">
        <ele>836.8</ele>
        <time>2022-05-21 04:52:17</time>
      </trkpt>
      <trkpt lat="42.01845" lon="2.46645">
        <ele>837</ele>
        <time>2022-05-21 04:52:18</time>
      </trkpt>
      <trkpt lat="42.01846" lon="2.46642">
        <ele>837.2</ele>
        <time>2022-05-21 04:52:19</time>
      </trkpt>
      <trkpt lat="42.01847" lon="2.46639">
        <ele>837.4</ele>
        <time>2022-05-21 04:52:20</time>
      </trkpt>
      <trkpt lat="42.01848" lon="2.46637">
        <ele>837.6</ele>
        <time>2022-05-21 04:52:21</time>
      </trkpt>
      <trkpt lat="42.01849" lon="2.46635">
        <ele>837.8</ele>
        <time>2022-05-21 04:52:22</time>
      </trkpt>
      <trkpt lat="42.01849" lon="2.46633">
        <ele>838</ele>
        <time>2022-05-21 04:52:23</time>
      </trkpt>
      <trkpt lat="42.0185" lon="2.4663">
        <ele>838.2</ele>
        <time>2022-05-21 04:52:24</time>
      </trkpt>
      <trkpt lat="42.0185" lon="2.46628">
        <ele>838.4</ele>
        <time>2022-05-21 04:52:25</time>
      </trkpt>
      <trkpt lat="42.01851" lon="2.46626">
        <ele>838.6</ele>
        <time>2022-05-21 04:52:26</time>
      </trkpt>
      <trkpt lat="42.01852" lon="2.46624">
        <ele>838.8</ele>
        <time>2022-05-21 04:52:27</time>
      </trkpt>
      <trkpt lat="42.01853" lon="2.46621">
        <ele>839</ele>
        <time>2022-05-21 04:52:28</time>
      </trkpt>
      <trkpt lat="42.01854" lon="2.46617">
        <ele>839.2</ele>
        <time>2022-05-21 04:52:29</time>
      </trkpt>
      <trkpt lat="42.01855" lon="2.46613">
        <ele>839.4</ele>
        <time>2022-05-21 04:52:30</time>
      </trkpt>
      <trkpt lat="42.01855" lon="2.4661">
        <ele>839.8</ele>
        <time>2022-05-21 04:52:31</time>
      </trkpt>
      <trkpt lat="42.01856" lon="2.46607">
        <ele>840</ele>
        <time>2022-05-21 04:52:32</time>
      </trkpt>
      <trkpt lat="42.01857" lon="2.46605">
        <ele>840.2</ele>
        <time>2022-05-21 04:52:33</time>
      </trkpt>
      <trkpt lat="42.01859" lon="2.46603">
        <ele>840.4</ele>
        <time>2022-05-21 04:52:34</time>
      </trkpt>
      <trkpt lat="42.01859" lon="2.46601">
        <ele>840.8</ele>
        <time>2022-05-21 04:52:35</time>
      </trkpt>
      <trkpt lat="42.0186" lon="2.46598">
        <ele>841</ele>
        <time>2022-05-21 04:52:36</time>
      </trkpt>
      <trkpt lat="42.01861" lon="2.46596">
        <ele>841.2</ele>
        <time>2022-05-21 04:52:37</time>
      </trkpt>
      <trkpt lat="42.01861" lon="2.46593">
        <ele>841.6</ele>
        <time>2022-05-21 04:52:38</time>
      </trkpt>
      <trkpt lat="42.01861" lon="2.4659">
        <ele>841.8</ele>
        <time>2022-05-21 04:52:39</time>
      </trkpt>
      <trkpt lat="42.01861" lon="2.46587">
        <ele>842</ele>
        <time>2022-05-21 04:52:40</time>
      </trkpt>
      <trkpt lat="42.01862" lon="2.46583">
        <ele>842.2</ele>
        <time>2022-05-21 04:52:41</time>
      </trkpt>
      <trkpt lat="42.01863" lon="2.46579">
        <ele>842.4</ele>
        <time>2022-05-21 04:52:42</time>
      </trkpt>
      <trkpt lat="42.01862" lon="2.46576">
        <ele>842.6</ele>
        <time>2022-05-21 04:52:43</time>
      </trkpt>
      <trkpt lat="42.01862" lon="2.46573">
        <ele>842.8</ele>
        <time>2022-05-21 04:52:44</time>
      </trkpt>
      <trkpt lat="42.01861" lon="2.46569">
        <ele>842.8</ele>
        <time>2022-05-21 04:52:45</time>
      </trkpt>
      <trkpt lat="42.0186" lon="2.46566">
        <ele>843</ele>
        <time>2022-05-21 04:52:46</time>
      </trkpt>
      <trkpt lat="42.0186" lon="2.46563">
        <ele>843.2</ele>
        <time>2022-05-21 04:52:47</time>
      </trkpt>
      <trkpt lat="42.01859" lon="2.4656">
        <ele>843.2</ele>
        <time>2022-05-21 04:52:48</time>
      </trkpt>
      <trkpt lat="42.01859" lon="2.46558">
        <ele>843.4</ele>
        <time>2022-05-21 04:52:49</time>
      </trkpt>
      <trkpt lat="42.01858" lon="2.46555">
        <ele>843.4</ele>
        <time>2022-05-21 04:52:50</time>
      </trkpt>
      <trkpt lat="42.01857" lon="2.46552">
        <ele>843.6</ele>
        <time>2022-05-21 04:52:51</time>
      </trkpt>
      <trkpt lat="42.01857" lon="2.4655">
        <ele>843.6</ele>
        <time>2022-05-21 04:52:52</time>
      </trkpt>
      <trkpt lat="42.01857" lon="2.46547">
        <ele>843.8</ele>
        <time>2022-05-21 04:52:53</time>
      </trkpt>
      <trkpt lat="42.01855" lon="2.46544">
        <ele>843.8</ele>
        <time>2022-05-21 04:52:54</time>
      </trkpt>
      <trkpt lat="42.01854" lon="2.4654">
        <ele>843.8</ele>
        <time>2022-05-21 04:52:55</time>
      </trkpt>
      <trkpt lat="42.01853" lon="2.46537">
        <ele>843.8</ele>
        <time>2022-05-21 04:52:56</time>
      </trkpt>
      <trkpt lat="42.01852" lon="2.46534">
        <ele>843.8</ele>
        <time>2022-05-21 04:52:57</time>
      </trkpt>
      <trkpt lat="42.01851" lon="2.46531">
        <ele>844</ele>
        <time>2022-05-21 04:52:58</time>
      </trkpt>
      <trkpt lat="42.0185" lon="2.46527">
        <ele>844</ele>
        <time>2022-05-21 04:52:59</time>
      </trkpt>
      <trkpt lat="42.01849" lon="2.46523">
        <ele>844</ele>
        <time>2022-05-21 04:53:00</time>
      </trkpt>
      <trkpt lat="42.01848" lon="2.4652">
        <ele>844</ele>
        <time>2022-05-21 04:53:01</time>
      </trkpt>
      <trkpt lat="42.01847" lon="2.46517">
        <ele>843.8</ele>
        <time>2022-05-21 04:53:02</time>
      </trkpt>
      <trkpt lat="42.01847" lon="2.46514">
        <ele>843.8</ele>
        <time>2022-05-21 04:53:03</time>
      </trkpt>
      <trkpt lat="42.01846" lon="2.46511">
        <ele>843.8</ele>
        <time>2022-05-21 04:53:04</time>
      </trkpt>
      <trkpt lat="42.01846" lon="2.46508">
        <ele>843.8</ele>
        <time>2022-05-21 04:53:05</time>
      </trkpt>
      <trkpt lat="42.01844" lon="2.46505">
        <ele>843.6</ele>
        <time>2022-05-21 04:53:06</time>
      </trkpt>
      <trkpt lat="42.01844" lon="2.46501">
        <ele>843.6</ele>
        <time>2022-05-21 04:53:07</time>
      </trkpt>
      <trkpt lat="42.01844" lon="2.46497">
        <ele>843.6</ele>
        <time>2022-05-21 04:53:08</time>
      </trkpt>
      <trkpt lat="42.01844" lon="2.46494">
        <ele>843.6</ele>
        <time>2022-05-21 04:53:09</time>
      </trkpt>
      <trkpt lat="42.01844" lon="2.46491">
        <ele>843.4</ele>
        <time>2022-05-21 04:53:10</time>
      </trkpt>
      <trkpt lat="42.01842" lon="2.46487">
        <ele>843.4</ele>
        <time>2022-05-21 04:53:11</time>
      </trkpt>
      <trkpt lat="42.01841" lon="2.46483">
        <ele>843.4</ele>
        <time>2022-05-21 04:53:12</time>
      </trkpt>
      <trkpt lat="42.01838" lon="2.46478">
        <ele>843.4</ele>
        <time>2022-05-21 04:53:13</time>
      </trkpt>
      <trkpt lat="42.01836" lon="2.46473">
        <ele>843.4</ele>
        <time>2022-05-21 04:53:14</time>
      </trkpt>
      <trkpt lat="42.01835" lon="2.46468">
        <ele>843.4</ele>
        <time>2022-05-21 04:53:15</time>
      </trkpt>
      <trkpt lat="42.01833" lon="2.46463">
        <ele>843.4</ele>
        <time>2022-05-21 04:53:16</time>
      </trkpt>
      <trkpt lat="42.01831" lon="2.46458">
        <ele>843.4</ele>
        <time>2022-05-21 04:53:17</time>
      </trkpt>
      <trkpt lat="42.0183" lon="2.46454">
        <ele>843.4</ele>
        <time>2022-05-21 04:53:18</time>
      </trkpt>
      <trkpt lat="42.01828" lon="2.46448">
        <ele>843.4</ele>
        <time>2022-05-21 04:53:19</time>
      </trkpt>
      <trkpt lat="42.01826" lon="2.46444">
        <ele>843.6</ele>
        <time>2022-05-21 04:53:20</time>
      </trkpt>
      <trkpt lat="42.01824" lon="2.4644">
        <ele>843.8</ele>
        <time>2022-05-21 04:53:21</time>
      </trkpt>
      <trkpt lat="42.01822" lon="2.46436">
        <ele>843.8</ele>
        <time>2022-05-21 04:53:22</time>
      </trkpt>
      <trkpt lat="42.01819" lon="2.46433">
        <ele>843.8</ele>
        <time>2022-05-21 04:53:23</time>
      </trkpt>
      <trkpt lat="42.01817" lon="2.46429">
        <ele>844</ele>
        <time>2022-05-21 04:53:24</time>
      </trkpt>
      <trkpt lat="42.01815" lon="2.46424">
        <ele>844</ele>
        <time>2022-05-21 04:53:25</time>
      </trkpt>
      <trkpt lat="42.01813" lon="2.46418">
        <ele>844.2</ele>
        <time>2022-05-21 04:53:26</time>
      </trkpt>
      <trkpt lat="42.01812" lon="2.46414">
        <ele>844.2</ele>
        <time>2022-05-21 04:53:27</time>
      </trkpt>
      <trkpt lat="42.01811" lon="2.46408">
        <ele>844.2</ele>
        <time>2022-05-21 04:53:28</time>
      </trkpt>
      <trkpt lat="42.0181" lon="2.46401">
        <ele>844.2</ele>
        <time>2022-05-21 04:53:29</time>
      </trkpt>
      <trkpt lat="42.0181" lon="2.46395">
        <ele>844.2</ele>
        <time>2022-05-21 04:53:30</time>
      </trkpt>
      <trkpt lat="42.01811" lon="2.46388">
        <ele>844.2</ele>
        <time>2022-05-21 04:53:31</time>
      </trkpt>
      <trkpt lat="42.01812" lon="2.46381">
        <ele>844.2</ele>
        <time>2022-05-21 04:53:32</time>
      </trkpt>
      <trkpt lat="42.01812" lon="2.46373">
        <ele>844</ele>
        <time>2022-05-21 04:53:33</time>
      </trkpt>
      <trkpt lat="42.01813" lon="2.46365">
        <ele>844</ele>
        <time>2022-05-21 04:53:34</time>
      </trkpt>
      <trkpt lat="42.01814" lon="2.46358">
        <ele>843.8</ele>
        <time>2022-05-21 04:53:35</time>
      </trkpt>
      <trkpt lat="42.01815" lon="2.4635">
        <ele>843.8</ele>
        <time>2022-05-21 04:53:36</time>
      </trkpt>
      <trkpt lat="42.01816" lon="2.46341">
        <ele>843.8</ele>
        <time>2022-05-21 04:53:37</time>
      </trkpt>
      <trkpt lat="42.01817" lon="2.46332">
        <ele>844</ele>
        <time>2022-05-21 04:53:38</time>
      </trkpt>
      <trkpt lat="42.01818" lon="2.46325">
        <ele>844.2</ele>
        <time>2022-05-21 04:53:39</time>
      </trkpt>
      <trkpt lat="42.0182" lon="2.46319">
        <ele>844.4</ele>
        <time>2022-05-21 04:53:40</time>
      </trkpt>
      <trkpt lat="42.01822" lon="2.46314">
        <ele>844.8</ele>
        <time>2022-05-21 04:53:41</time>
      </trkpt>
      <trkpt lat="42.01825" lon="2.46309">
        <ele>845</ele>
        <time>2022-05-21 04:53:42</time>
      </trkpt>
      <trkpt lat="42.01826" lon="2.46305">
        <ele>845.4</ele>
        <time>2022-05-21 04:53:43</time>
      </trkpt>
      <trkpt lat="42.01827" lon="2.46302">
        <ele>845.8</ele>
        <time>2022-05-21 04:53:44</time>
      </trkpt>
      <trkpt lat="42.0183" lon="2.46297">
        <ele>846.2</ele>
        <time>2022-05-21 04:53:45</time>
      </trkpt>
      <trkpt lat="42.01833" lon="2.46293">
        <ele>846.4</ele>
        <time>2022-05-21 04:53:46</time>
      </trkpt>
      <trkpt lat="42.01837" lon="2.46289">
        <ele>846.8</ele>
        <time>2022-05-21 04:53:47</time>
      </trkpt>
      <trkpt lat="42.01841" lon="2.46285">
        <ele>847</ele>
        <time>2022-05-21 04:53:48</time>
      </trkpt>
      <trkpt lat="42.01843" lon="2.46282">
        <ele>847.2</ele>
        <time>2022-05-21 04:53:49</time>
      </trkpt>
      <trkpt lat="42.01847" lon="2.46278">
        <ele>847.4</ele>
        <time>2022-05-21 04:53:50</time>
      </trkpt>
      <trkpt lat="42.01852" lon="2.46275">
        <ele>847.6</ele>
        <time>2022-05-21 04:53:51</time>
      </trkpt>
      <trkpt lat="42.01857" lon="2.46273">
        <ele>847.6</ele>
        <time>2022-05-21 04:53:52</time>
      </trkpt>
      <trkpt lat="42.01861" lon="2.46271">
        <ele>847.4</ele>
        <time>2022-05-21 04:53:53</time>
      </trkpt>
      <trkpt lat="42.01866" lon="2.4627">
        <ele>847.2</ele>
        <time>2022-05-21 04:53:54</time>
      </trkpt>
      <trkpt lat="42.01871" lon="2.4627">
        <ele>847</ele>
        <time>2022-05-21 04:53:55</time>
      </trkpt>
      <trkpt lat="42.01876" lon="2.4627">
        <ele>846.6</ele>
        <time>2022-05-21 04:53:56</time>
      </trkpt>
      <trkpt lat="42.01883" lon="2.46269">
        <ele>846</ele>
        <time>2022-05-21 04:53:57</time>
      </trkpt>
      <trkpt lat="42.0189" lon="2.46268">
        <ele>845.4</ele>
        <time>2022-05-21 04:53:58</time>
      </trkpt>
      <trkpt lat="42.01897" lon="2.46266">
        <ele>844.8</ele>
        <time>2022-05-21 04:53:59</time>
      </trkpt>
      <trkpt lat="42.01904" lon="2.46264">
        <ele>844.4</ele>
        <time>2022-05-21 04:54:00</time>
      </trkpt>
      <trkpt lat="42.0191" lon="2.46262">
        <ele>844</ele>
        <time>2022-05-21 04:54:01</time>
      </trkpt>
      <trkpt lat="42.01916" lon="2.46261">
        <ele>843.8</ele>
        <time>2022-05-21 04:54:02</time>
      </trkpt>
      <trkpt lat="42.01919" lon="2.46263">
        <ele>843.8</ele>
        <time>2022-05-21 04:54:03</time>
      </trkpt>
      <trkpt lat="42.01921" lon="2.46266">
        <ele>844</ele>
        <time>2022-05-21 04:54:04</time>
      </trkpt>
      <trkpt lat="42.01921" lon="2.4627">
        <ele>844.2</ele>
        <time>2022-05-21 04:54:05</time>
      </trkpt>
      <trkpt lat="42.01921" lon="2.46273">
        <ele>844.4</ele>
        <time>2022-05-21 04:54:06</time>
      </trkpt>
      <trkpt lat="42.0192" lon="2.46276">
        <ele>844.8</ele>
        <time>2022-05-21 04:54:07</time>
      </trkpt>
      <trkpt lat="42.0192" lon="2.46279">
        <ele>845</ele>
        <time>2022-05-21 04:54:08</time>
      </trkpt>
      <trkpt lat="42.0192" lon="2.46281">
        <ele>845.4</ele>
        <time>2022-05-21 04:54:09</time>
      </trkpt>
      <trkpt lat="42.01919" lon="2.46284">
        <ele>845.6</ele>
        <time>2022-05-21 04:54:10</time>
      </trkpt>
      <trkpt lat="42.01918" lon="2.46286">
        <ele>846</ele>
        <time>2022-05-21 04:54:11</time>
      </trkpt>
      <trkpt lat="42.01918" lon="2.46289">
        <ele>846.2</ele>
        <time>2022-05-21 04:54:12</time>
      </trkpt>
      <trkpt lat="42.01917" lon="2.46291">
        <ele>846.6</ele>
        <time>2022-05-21 04:54:13</time>
      </trkpt>
      <trkpt lat="42.01916" lon="2.46294">
        <ele>846.8</ele>
        <time>2022-05-21 04:54:14</time>
      </trkpt>
      <trkpt lat="42.01916" lon="2.46296">
        <ele>847.2</ele>
        <time>2022-05-21 04:54:15</time>
      </trkpt>
      <trkpt lat="42.01915" lon="2.46299">
        <ele>847.4</ele>
        <time>2022-05-21 04:54:16</time>
      </trkpt>
      <trkpt lat="42.01915" lon="2.46302">
        <ele>847.8</ele>
        <time>2022-05-21 04:54:17</time>
      </trkpt>
      <trkpt lat="42.01913" lon="2.46304">
        <ele>848</ele>
        <time>2022-05-21 04:54:18</time>
      </trkpt>
      <trkpt lat="42.01912" lon="2.46306">
        <ele>848.4</ele>
        <time>2022-05-21 04:54:19</time>
      </trkpt>
      <trkpt lat="42.01912" lon="2.46309">
        <ele>848.6</ele>
        <time>2022-05-21 04:54:20</time>
      </trkpt>
      <trkpt lat="42.01911" lon="2.46312">
        <ele>849</ele>
        <time>2022-05-21 04:54:21</time>
      </trkpt>
      <trkpt lat="42.01911" lon="2.46314">
        <ele>849.2</ele>
        <time>2022-05-21 04:54:22</time>
      </trkpt>
      <trkpt lat="42.0191" lon="2.46317">
        <ele>849.4</ele>
        <time>2022-05-21 04:54:23</time>
      </trkpt>
      <trkpt lat="42.0191" lon="2.4632">
        <ele>849.8</ele>
        <time>2022-05-21 04:54:24</time>
      </trkpt>
      <trkpt lat="42.0191" lon="2.46323">
        <ele>850</ele>
        <time>2022-05-21 04:54:25</time>
      </trkpt>
      <trkpt lat="42.01911" lon="2.46325">
        <ele>850.2</ele>
        <time>2022-05-21 04:54:26</time>
      </trkpt>
      <trkpt lat="42.01911" lon="2.46328">
        <ele>850.6</ele>
        <time>2022-05-21 04:54:27</time>
      </trkpt>
      <trkpt lat="42.01912" lon="2.46331">
        <ele>850.8</ele>
        <time>2022-05-21 04:54:28</time>
      </trkpt>
      <trkpt lat="42.01912" lon="2.46333">
        <ele>851</ele>
        <time>2022-05-21 04:54:29</time>
      </trkpt>
      <trkpt lat="42.01913" lon="2.46336">
        <ele>851.2</ele>
        <time>2022-05-21 04:54:30</time>
      </trkpt>
      <trkpt lat="42.01914" lon="2.46339">
        <ele>851.4</ele>
        <time>2022-05-21 04:54:31</time>
      </trkpt>
      <trkpt lat="42.01915" lon="2.46343">
        <ele>851.6</ele>
        <time>2022-05-21 04:54:32</time>
      </trkpt>
      <trkpt lat="42.01916" lon="2.46348">
        <ele>851.8</ele>
        <time>2022-05-21 04:54:33</time>
      </trkpt>
      <trkpt lat="42.01917" lon="2.46354">
        <ele>852</ele>
        <time>2022-05-21 04:54:34</time>
      </trkpt>
      <trkpt lat="42.01917" lon="2.46359">
        <ele>852.2</ele>
        <time>2022-05-21 04:54:35</time>
      </trkpt>
      <trkpt lat="42.01919" lon="2.4636">
        <ele>852.4</ele>
        <time>2022-05-21 04:54:36</time>
      </trkpt>
      <trkpt lat="42.0192" lon="2.4636">
        <ele>852.6</ele>
        <time>2022-05-21 04:54:37</time>
      </trkpt>
      <trkpt lat="42.01922" lon="2.4636">
        <ele>852.8</ele>
        <time>2022-05-21 04:54:38</time>
      </trkpt>
      <trkpt lat="42.01923" lon="2.46361">
        <ele>852.8</ele>
        <time>2022-05-21 04:54:39</time>
      </trkpt>
      <trkpt lat="42.01925" lon="2.46361">
        <ele>853</ele>
        <time>2022-05-21 04:54:40</time>
      </trkpt>
      <trkpt lat="42.01926" lon="2.46361">
        <ele>853.2</ele>
        <time>2022-05-21 04:54:41</time>
      </trkpt>
      <trkpt lat="42.01928" lon="2.46362">
        <ele>853.4</ele>
        <time>2022-05-21 04:54:42</time>
      </trkpt>
      <trkpt lat="42.0193" lon="2.46362">
        <ele>853.4</ele>
        <time>2022-05-21 04:54:43</time>
      </trkpt>
      <trkpt lat="42.0193" lon="2.46364">
        <ele>853.6</ele>
        <time>2022-05-21 04:54:44</time>
      </trkpt>
      <trkpt lat="42.01931" lon="2.46367">
        <ele>853.6</ele>
        <time>2022-05-21 04:54:45</time>
      </trkpt>
      <trkpt lat="42.01933" lon="2.4637">
        <ele>853.8</ele>
        <time>2022-05-21 04:54:46</time>
      </trkpt>
      <trkpt lat="42.01935" lon="2.46374">
        <ele>853.8</ele>
        <time>2022-05-21 04:54:47</time>
      </trkpt>
      <trkpt lat="42.01937" lon="2.46378">
        <ele>854</ele>
        <time>2022-05-21 04:54:48</time>
      </trkpt>
      <trkpt lat="42.0194" lon="2.46381">
        <ele>854</ele>
        <time>2022-05-21 04:54:49</time>
      </trkpt>
      <trkpt lat="42.01942" lon="2.46385">
        <ele>854.2</ele>
        <time>2022-05-21 04:54:50</time>
      </trkpt>
      <trkpt lat="42.01945" lon="2.46389">
        <ele>854.2</ele>
        <time>2022-05-21 04:54:51</time>
      </trkpt>
      <trkpt lat="42.01946" lon="2.46393">
        <ele>854.2</ele>
        <time>2022-05-21 04:54:52</time>
      </trkpt>
      <trkpt lat="42.01948" lon="2.46398">
        <ele>854.4</ele>
        <time>2022-05-21 04:54:53</time>
      </trkpt>
      <trkpt lat="42.0195" lon="2.46403">
        <ele>854.4</ele>
        <time>2022-05-21 04:54:54</time>
      </trkpt>
      <trkpt lat="42.01952" lon="2.46407">
        <ele>854.6</ele>
        <time>2022-05-21 04:54:55</time>
      </trkpt>
      <trkpt lat="42.01953" lon="2.46411">
        <ele>854.6</ele>
        <time>2022-05-21 04:54:56</time>
      </trkpt>
      <trkpt lat="42.01955" lon="2.46415">
        <ele>854.6</ele>
        <time>2022-05-21 04:54:57</time>
      </trkpt>
      <trkpt lat="42.01957" lon="2.46419">
        <ele>854.8</ele>
        <time>2022-05-21 04:54:58</time>
      </trkpt>
      <trkpt lat="42.01959" lon="2.46423">
        <ele>854.8</ele>
        <time>2022-05-21 04:54:59</time>
      </trkpt>
      <trkpt lat="42.01962" lon="2.46426">
        <ele>854.8</ele>
        <time>2022-05-21 04:55:00</time>
      </trkpt>
      <trkpt lat="42.01965" lon="2.46429">
        <ele>854.8</ele>
        <time>2022-05-21 04:55:01</time>
      </trkpt>
      <trkpt lat="42.01968" lon="2.46431">
        <ele>855</ele>
        <time>2022-05-21 04:55:02</time>
      </trkpt>
      <trkpt lat="42.01971" lon="2.46434">
        <ele>855</ele>
        <time>2022-05-21 04:55:03</time>
      </trkpt>
      <trkpt lat="42.01974" lon="2.46436">
        <ele>855.2</ele>
        <time>2022-05-21 04:55:04</time>
      </trkpt>
      <trkpt lat="42.01978" lon="2.46438">
        <ele>855.2</ele>
        <time>2022-05-21 04:55:05</time>
      </trkpt>
      <trkpt lat="42.01982" lon="2.4644">
        <ele>855.2</ele>
        <time>2022-05-21 04:55:06</time>
      </trkpt>
      <trkpt lat="42.01986" lon="2.46443">
        <ele>855.2</ele>
        <time>2022-05-21 04:55:07</time>
      </trkpt>
      <trkpt lat="42.0199" lon="2.46447">
        <ele>855</ele>
        <time>2022-05-21 04:55:08</time>
      </trkpt>
      <trkpt lat="42.01994" lon="2.4645">
        <ele>855</ele>
        <time>2022-05-21 04:55:09</time>
      </trkpt>
      <trkpt lat="42.01998" lon="2.46454">
        <ele>854.8</ele>
        <time>2022-05-21 04:55:10</time>
      </trkpt>
      <trkpt lat="42.02003" lon="2.46458">
        <ele>854.6</ele>
        <time>2022-05-21 04:55:11</time>
      </trkpt>
      <trkpt lat="42.02008" lon="2.46462">
        <ele>854.4</ele>
        <time>2022-05-21 04:55:12</time>
      </trkpt>
      <trkpt lat="42.02013" lon="2.46465">
        <ele>854.4</ele>
        <time>2022-05-21 04:55:13</time>
      </trkpt>
      <trkpt lat="42.02018" lon="2.46467">
        <ele>854.2</ele>
        <time>2022-05-21 04:55:14</time>
      </trkpt>
      <trkpt lat="42.02024" lon="2.4647">
        <ele>854</ele>
        <time>2022-05-21 04:55:15</time>
      </trkpt>
      <trkpt lat="42.0203" lon="2.46472">
        <ele>854</ele>
        <time>2022-05-21 04:55:16</time>
      </trkpt>
      <trkpt lat="42.02035" lon="2.46474">
        <ele>854</ele>
        <time>2022-05-21 04:55:17</time>
      </trkpt>
      <trkpt lat="42.0204" lon="2.46476">
        <ele>853.8</ele>
        <time>2022-05-21 04:55:18</time>
      </trkpt>
      <trkpt lat="42.02045" lon="2.46479">
        <ele>853.8</ele>
        <time>2022-05-21 04:55:19</time>
      </trkpt>
      <trkpt lat="42.02049" lon="2.46482">
        <ele>853.8</ele>
        <time>2022-05-21 04:55:20</time>
      </trkpt>
      <trkpt lat="42.02053" lon="2.46486">
        <ele>853.8</ele>
        <time>2022-05-21 04:55:21</time>
      </trkpt>
      <trkpt lat="42.02056" lon="2.4649">
        <ele>853.8</ele>
        <time>2022-05-21 04:55:22</time>
      </trkpt>
      <trkpt lat="42.02058" lon="2.46496">
        <ele>853.8</ele>
        <time>2022-05-21 04:55:23</time>
      </trkpt>
      <trkpt lat="42.0206" lon="2.46502">
        <ele>853.6</ele>
        <time>2022-05-21 04:55:24</time>
      </trkpt>
      <trkpt lat="42.0206" lon="2.46511">
        <ele>853.4</ele>
        <time>2022-05-21 04:55:25</time>
      </trkpt>
      <trkpt lat="42.02061" lon="2.46519">
        <ele>853.2</ele>
        <time>2022-05-21 04:55:26</time>
      </trkpt>
      <trkpt lat="42.02062" lon="2.46527">
        <ele>852.8</ele>
        <time>2022-05-21 04:55:27</time>
      </trkpt>
      <trkpt lat="42.02064" lon="2.46536">
        <ele>852.4</ele>
        <time>2022-05-21 04:55:28</time>
      </trkpt>
      <trkpt lat="42.02067" lon="2.46545">
        <ele>852.2</ele>
        <time>2022-05-21 04:55:29</time>
      </trkpt>
      <trkpt lat="42.02071" lon="2.46551">
        <ele>852.2</ele>
        <time>2022-05-21 04:55:30</time>
      </trkpt>
      <trkpt lat="42.02074" lon="2.46556">
        <ele>852.2</ele>
        <time>2022-05-21 04:55:31</time>
      </trkpt>
      <trkpt lat="42.02078" lon="2.4656">
        <ele>852.4</ele>
        <time>2022-05-21 04:55:32</time>
      </trkpt>
      <trkpt lat="42.02082" lon="2.46564">
        <ele>852.6</ele>
        <time>2022-05-21 04:55:33</time>
      </trkpt>
      <trkpt lat="42.02087" lon="2.46568">
        <ele>852.6</ele>
        <time>2022-05-21 04:55:34</time>
      </trkpt>
      <trkpt lat="42.02093" lon="2.4657">
        <ele>852.4</ele>
        <time>2022-05-21 04:55:35</time>
      </trkpt>
      <trkpt lat="42.02098" lon="2.46571">
        <ele>852.4</ele>
        <time>2022-05-21 04:55:36</time>
      </trkpt>
      <trkpt lat="42.02104" lon="2.46571">
        <ele>852.2</ele>
        <time>2022-05-21 04:55:37</time>
      </trkpt>
      <trkpt lat="42.02111" lon="2.46569">
        <ele>852</ele>
        <time>2022-05-21 04:55:38</time>
      </trkpt>
      <trkpt lat="42.02118" lon="2.46567">
        <ele>851.6</ele>
        <time>2022-05-21 04:55:39</time>
      </trkpt>
      <trkpt lat="42.02124" lon="2.46564">
        <ele>851.4</ele>
        <time>2022-05-21 04:55:40</time>
      </trkpt>
      <trkpt lat="42.02131" lon="2.46561">
        <ele>851</ele>
        <time>2022-05-21 04:55:41</time>
      </trkpt>
      <trkpt lat="42.02137" lon="2.46559">
        <ele>850.8</ele>
        <time>2022-05-21 04:55:42</time>
      </trkpt>
      <trkpt lat="42.02144" lon="2.46556">
        <ele>850.4</ele>
        <time>2022-05-21 04:55:43</time>
      </trkpt>
      <trkpt lat="42.02151" lon="2.46552">
        <ele>850</ele>
        <time>2022-05-21 04:55:44</time>
      </trkpt>
      <trkpt lat="42.02156" lon="2.46547">
        <ele>849.6</ele>
        <time>2022-05-21 04:55:45</time>
      </trkpt>
      <trkpt lat="42.02161" lon="2.46541">
        <ele>849.2</ele>
        <time>2022-05-21 04:55:46</time>
      </trkpt>
      <trkpt lat="42.02164" lon="2.46534">
        <ele>848.6</ele>
        <time>2022-05-21 04:55:47</time>
      </trkpt>
      <trkpt lat="42.02166" lon="2.46526">
        <ele>848</ele>
        <time>2022-05-21 04:55:48</time>
      </trkpt>
      <trkpt lat="42.02166" lon="2.46517">
        <ele>847.2</ele>
        <time>2022-05-21 04:55:49</time>
      </trkpt>
      <trkpt lat="42.02166" lon="2.46506">
        <ele>846.6</ele>
        <time>2022-05-21 04:55:50</time>
      </trkpt>
      <trkpt lat="42.02167" lon="2.46495">
        <ele>845.8</ele>
        <time>2022-05-21 04:55:51</time>
      </trkpt>
      <trkpt lat="42.02168" lon="2.46483">
        <ele>845</ele>
        <time>2022-05-21 04:55:52</time>
      </trkpt>
      <trkpt lat="42.02168" lon="2.46471">
        <ele>844.2</ele>
        <time>2022-05-21 04:55:53</time>
      </trkpt>
      <trkpt lat="42.02169" lon="2.4646">
        <ele>843.4</ele>
        <time>2022-05-21 04:55:54</time>
      </trkpt>
      <trkpt lat="42.02171" lon="2.46449">
        <ele>842.6</ele>
        <time>2022-05-21 04:55:55</time>
      </trkpt>
      <trkpt lat="42.02173" lon="2.46439">
        <ele>842</ele>
        <time>2022-05-21 04:55:56</time>
      </trkpt>
      <trkpt lat="42.02176" lon="2.46429">
        <ele>841</ele>
        <time>2022-05-21 04:55:57</time>
      </trkpt>
      <trkpt lat="42.0218" lon="2.46419">
        <ele>840.2</ele>
        <time>2022-05-21 04:55:58</time>
      </trkpt>
      <trkpt lat="42.02185" lon="2.4641">
        <ele>839.2</ele>
        <time>2022-05-21 04:55:59</time>
      </trkpt>
      <trkpt lat="42.02189" lon="2.46401">
        <ele>838.2</ele>
        <time>2022-05-21 04:56:00</time>
      </trkpt>
      <trkpt lat="42.02194" lon="2.46392">
        <ele>837.4</ele>
        <time>2022-05-21 04:56:01</time>
      </trkpt>
      <trkpt lat="42.02199" lon="2.46385">
        <ele>836.4</ele>
        <time>2022-05-21 04:56:02</time>
      </trkpt>
      <trkpt lat="42.02205" lon="2.46377">
        <ele>835.4</ele>
        <time>2022-05-21 04:56:03</time>
      </trkpt>
      <trkpt lat="42.02211" lon="2.4637">
        <ele>834.4</ele>
        <time>2022-05-21 04:56:04</time>
      </trkpt>
      <trkpt lat="42.02217" lon="2.46363">
        <ele>833.6</ele>
        <time>2022-05-21 04:56:05</time>
      </trkpt>
      <trkpt lat="42.02222" lon="2.46355">
        <ele>832.6</ele>
        <time>2022-05-21 04:56:06</time>
      </trkpt>
      <trkpt lat="42.02228" lon="2.46348">
        <ele>831.8</ele>
        <time>2022-05-21 04:56:07</time>
      </trkpt>
      <trkpt lat="42.02233" lon="2.46341">
        <ele>831</ele>
        <time>2022-05-21 04:56:08</time>
      </trkpt>
      <trkpt lat="42.0224" lon="2.46335">
        <ele>830.2</ele>
        <time>2022-05-21 04:56:09</time>
      </trkpt>
      <trkpt lat="42.02246" lon="2.4633">
        <ele>829.6</ele>
        <time>2022-05-21 04:56:10</time>
      </trkpt>
      <trkpt lat="42.02252" lon="2.46324">
        <ele>829</ele>
        <time>2022-05-21 04:56:11</time>
      </trkpt>
      <trkpt lat="42.02257" lon="2.46317">
        <ele>828.4</ele>
        <time>2022-05-21 04:56:12</time>
      </trkpt>
      <trkpt lat="42.02262" lon="2.4631">
        <ele>828</ele>
        <time>2022-05-21 04:56:13</time>
      </trkpt>
      <trkpt lat="42.02266" lon="2.46304">
        <ele>827.4</ele>
        <time>2022-05-21 04:56:14</time>
      </trkpt>
      <trkpt lat="42.02269" lon="2.46298">
        <ele>827</ele>
        <time>2022-05-21 04:56:15</time>
      </trkpt>
      <trkpt lat="42.02274" lon="2.46294">
        <ele>826.6</ele>
        <time>2022-05-21 04:56:16</time>
      </trkpt>
      <trkpt lat="42.02278" lon="2.46293">
        <ele>826.2</ele>
        <time>2022-05-21 04:56:17</time>
      </trkpt>
      <trkpt lat="42.02281" lon="2.46293">
        <ele>825.8</ele>
        <time>2022-05-21 04:56:18</time>
      </trkpt>
      <trkpt lat="42.02283" lon="2.46294">
        <ele>825.6</ele>
        <time>2022-05-21 04:56:19</time>
      </trkpt>
      <trkpt lat="42.02285" lon="2.46296">
        <ele>825.4</ele>
        <time>2022-05-21 04:56:20</time>
      </trkpt>
      <trkpt lat="42.02287" lon="2.46299">
        <ele>825.2</ele>
        <time>2022-05-21 04:56:21</time>
      </trkpt>
      <trkpt lat="42.02289" lon="2.46302">
        <ele>825.2</ele>
        <time>2022-05-21 04:56:22</time>
      </trkpt>
      <trkpt lat="42.02291" lon="2.46304">
        <ele>825</ele>
        <time>2022-05-21 04:56:23</time>
      </trkpt>
      <trkpt lat="42.02293" lon="2.46307">
        <ele>825</ele>
        <time>2022-05-21 04:56:24</time>
      </trkpt>
      <trkpt lat="42.02295" lon="2.46309">
        <ele>825</ele>
        <time>2022-05-21 04:56:25</time>
      </trkpt>
      <trkpt lat="42.02297" lon="2.4631">
        <ele>825.2</ele>
        <time>2022-05-21 04:56:26</time>
      </trkpt>
      <trkpt lat="42.023" lon="2.46311">
        <ele>825.4</ele>
        <time>2022-05-21 04:56:27</time>
      </trkpt>
      <trkpt lat="42.02302" lon="2.46312">
        <ele>825.4</ele>
        <time>2022-05-21 04:56:28</time>
      </trkpt>
      <trkpt lat="42.02304" lon="2.46313">
        <ele>825.6</ele>
        <time>2022-05-21 04:56:29</time>
      </trkpt>
      <trkpt lat="42.02307" lon="2.46314">
        <ele>825.8</ele>
        <time>2022-05-21 04:56:30</time>
      </trkpt>
      <trkpt lat="42.0231" lon="2.46315">
        <ele>825.8</ele>
        <time>2022-05-21 04:56:31</time>
      </trkpt>
      <trkpt lat="42.02313" lon="2.46316">
        <ele>826</ele>
        <time>2022-05-21 04:56:32</time>
      </trkpt>
      <trkpt lat="42.02316" lon="2.46318">
        <ele>826.2</ele>
        <time>2022-05-21 04:56:33</time>
      </trkpt>
      <trkpt lat="42.02319" lon="2.46319">
        <ele>826.4</ele>
        <time>2022-05-21 04:56:34</time>
      </trkpt>
      <trkpt lat="42.02322" lon="2.46319">
        <ele>826.4</ele>
        <time>2022-05-21 04:56:35</time>
      </trkpt>
      <trkpt lat="42.02325" lon="2.4632">
        <ele>826.6</ele>
        <time>2022-05-21 04:56:36</time>
      </trkpt>
      <trkpt lat="42.02328" lon="2.4632">
        <ele>826.6</ele>
        <time>2022-05-21 04:56:37</time>
      </trkpt>
      <trkpt lat="42.02332" lon="2.46321">
        <ele>826.8</ele>
        <time>2022-05-21 04:56:38</time>
      </trkpt>
      <trkpt lat="42.02335" lon="2.46321">
        <ele>826.8</ele>
        <time>2022-05-21 04:56:39</time>
      </trkpt>
      <trkpt lat="42.02338" lon="2.46323">
        <ele>826.8</ele>
        <time>2022-05-21 04:56:40</time>
      </trkpt>
      <trkpt lat="42.02342" lon="2.46324">
        <ele>826.8</ele>
        <time>2022-05-21 04:56:41</time>
      </trkpt>
      <trkpt lat="42.02345" lon="2.46326">
        <ele>826.8</ele>
        <time>2022-05-21 04:56:42</time>
      </trkpt>
      <trkpt lat="42.02349" lon="2.46328">
        <ele>826.8</ele>
        <time>2022-05-21 04:56:43</time>
      </trkpt>
      <trkpt lat="42.02351" lon="2.4633">
        <ele>826.8</ele>
        <time>2022-05-21 04:56:44</time>
      </trkpt>
      <trkpt lat="42.02354" lon="2.46331">
        <ele>826.8</ele>
        <time>2022-05-21 04:56:45</time>
      </trkpt>
      <trkpt lat="42.02357" lon="2.46334">
        <ele>827</ele>
        <time>2022-05-21 04:56:46</time>
      </trkpt>
      <trkpt lat="42.0236" lon="2.46335">
        <ele>827</ele>
        <time>2022-05-21 04:56:47</time>
      </trkpt>
      <trkpt lat="42.02363" lon="2.46338">
        <ele>827</ele>
        <time>2022-05-21 04:56:48</time>
      </trkpt>
      <trkpt lat="42.02365" lon="2.4634">
        <ele>827</ele>
        <time>2022-05-21 04:56:49</time>
      </trkpt>
      <trkpt lat="42.02368" lon="2.46342">
        <ele>827</ele>
        <time>2022-05-21 04:56:50</time>
      </trkpt>
      <trkpt lat="42.0237" lon="2.46344">
        <ele>827</ele>
        <time>2022-05-21 04:56:51</time>
      </trkpt>
      <trkpt lat="42.02372" lon="2.46347">
        <ele>827.2</ele>
        <time>2022-05-21 04:56:52</time>
      </trkpt>
      <trkpt lat="42.02374" lon="2.46349">
        <ele>827.2</ele>
        <time>2022-05-21 04:56:53</time>
      </trkpt>
      <trkpt lat="42.02376" lon="2.46352">
        <ele>827.2</ele>
        <time>2022-05-21 04:56:54</time>
      </trkpt>
      <trkpt lat="42.02378" lon="2.46355">
        <ele>827.4</ele>
        <time>2022-05-21 04:56:55</time>
      </trkpt>
      <trkpt lat="42.02379" lon="2.46359">
        <ele>827.4</ele>
        <time>2022-05-21 04:56:56</time>
      </trkpt>
      <trkpt lat="42.02381" lon="2.46363">
        <ele>827.6</ele>
        <time>2022-05-21 04:56:57</time>
      </trkpt>
      <trkpt lat="42.02383" lon="2.46365">
        <ele>827.6</ele>
        <time>2022-05-21 04:56:58</time>
      </trkpt>
      <trkpt lat="42.02385" lon="2.46368">
        <ele>827.8</ele>
        <time>2022-05-21 04:56:59</time>
      </trkpt>
      <trkpt lat="42.02386" lon="2.4637">
        <ele>827.8</ele>
        <time>2022-05-21 04:57:00</time>
      </trkpt>
      <trkpt lat="42.02388" lon="2.46372">
        <ele>828</ele>
        <time>2022-05-21 04:57:01</time>
      </trkpt>
      <trkpt lat="42.02391" lon="2.46374">
        <ele>828</ele>
        <time>2022-05-21 04:57:02</time>
      </trkpt>
      <trkpt lat="42.02393" lon="2.46376">
        <ele>828.2</ele>
        <time>2022-05-21 04:57:03</time>
      </trkpt>
      <trkpt lat="42.02395" lon="2.46378">
        <ele>828.4</ele>
        <time>2022-05-21 04:57:04</time>
      </trkpt>
      <trkpt lat="42.02397" lon="2.4638">
        <ele>828.6</ele>
        <time>2022-05-21 04:57:05</time>
      </trkpt>
      <trkpt lat="42.02399" lon="2.46381">
        <ele>828.8</ele>
        <time>2022-05-21 04:57:06</time>
      </trkpt>
      <trkpt lat="42.02401" lon="2.46384">
        <ele>829</ele>
        <time>2022-05-21 04:57:07</time>
      </trkpt>
      <trkpt lat="42.02403" lon="2.46386">
        <ele>829.2</ele>
        <time>2022-05-21 04:57:08</time>
      </trkpt>
      <trkpt lat="42.02405" lon="2.46388">
        <ele>829.4</ele>
        <time>2022-05-21 04:57:09</time>
      </trkpt>
      <trkpt lat="42.02407" lon="2.46389">
        <ele>829.4</ele>
        <time>2022-05-21 04:57:10</time>
      </trkpt>
      <trkpt lat="42.0241" lon="2.46391">
        <ele>829.6</ele>
        <time>2022-05-21 04:57:11</time>
      </trkpt>
      <trkpt lat="42.02413" lon="2.46392">
        <ele>829.6</ele>
        <time>2022-05-21 04:57:12</time>
      </trkpt>
      <trkpt lat="42.02417" lon="2.46393">
        <ele>829.6</ele>
        <time>2022-05-21 04:57:13</time>
      </trkpt>
      <trkpt lat="42.02419" lon="2.46394">
        <ele>829.4</ele>
        <time>2022-05-21 04:57:14</time>
      </trkpt>
      <trkpt lat="42.02423" lon="2.46396">
        <ele>829.2</ele>
        <time>2022-05-21 04:57:15</time>
      </trkpt>
      <trkpt lat="42.02426" lon="2.46398">
        <ele>829</ele>
        <time>2022-05-21 04:57:16</time>
      </trkpt>
      <trkpt lat="42.02429" lon="2.464">
        <ele>828.8</ele>
        <time>2022-05-21 04:57:17</time>
      </trkpt>
      <trkpt lat="42.02433" lon="2.46402">
        <ele>828.6</ele>
        <time>2022-05-21 04:57:18</time>
      </trkpt>
      <trkpt lat="42.02437" lon="2.46404">
        <ele>828.2</ele>
        <time>2022-05-21 04:57:19</time>
      </trkpt>
      <trkpt lat="42.02441" lon="2.46407">
        <ele>828</ele>
        <time>2022-05-21 04:57:20</time>
      </trkpt>
      <trkpt lat="42.02445" lon="2.46409">
        <ele>827.8</ele>
        <time>2022-05-21 04:57:21</time>
      </trkpt>
      <trkpt lat="42.0245" lon="2.46412">
        <ele>827.6</ele>
        <time>2022-05-21 04:57:22</time>
      </trkpt>
      <trkpt lat="42.02454" lon="2.46414">
        <ele>827.4</ele>
        <time>2022-05-21 04:57:23</time>
      </trkpt>
      <trkpt lat="42.02458" lon="2.46416">
        <ele>827.4</ele>
        <time>2022-05-21 04:57:24</time>
      </trkpt>
      <trkpt lat="42.02462" lon="2.46418">
        <ele>827.2</ele>
        <time>2022-05-21 04:57:25</time>
      </trkpt>
      <trkpt lat="42.02465" lon="2.4642">
        <ele>827.2</ele>
        <time>2022-05-21 04:57:26</time>
      </trkpt>
      <trkpt lat="42.02468" lon="2.46421">
        <ele>827.2</ele>
        <time>2022-05-21 04:57:27</time>
      </trkpt>
      <trkpt lat="42.02471" lon="2.46423">
        <ele>827.2</ele>
        <time>2022-05-21 04:57:28</time>
      </trkpt>
      <trkpt lat="42.02474" lon="2.46425">
        <ele>827.2</ele>
        <time>2022-05-21 04:57:29</time>
      </trkpt>
      <trkpt lat="42.02477" lon="2.46428">
        <ele>827.2</ele>
        <time>2022-05-21 04:57:30</time>
      </trkpt>
      <trkpt lat="42.02479" lon="2.4643">
        <ele>827.4</ele>
        <time>2022-05-21 04:57:31</time>
      </trkpt>
      <trkpt lat="42.02481" lon="2.46433">
        <ele>827.4</ele>
        <time>2022-05-21 04:57:32</time>
      </trkpt>
      <trkpt lat="42.02484" lon="2.46435">
        <ele>827.4</ele>
        <time>2022-05-21 04:57:33</time>
      </trkpt>
      <trkpt lat="42.02486" lon="2.46437">
        <ele>827.4</ele>
        <time>2022-05-21 04:57:34</time>
      </trkpt>
      <trkpt lat="42.02488" lon="2.46439">
        <ele>827.6</ele>
        <time>2022-05-21 04:57:35</time>
      </trkpt>
      <trkpt lat="42.02491" lon="2.46442">
        <ele>827.6</ele>
        <time>2022-05-21 04:57:36</time>
      </trkpt>
      <trkpt lat="42.02493" lon="2.46444">
        <ele>827.6</ele>
        <time>2022-05-21 04:57:37</time>
      </trkpt>
      <trkpt lat="42.02496" lon="2.46446">
        <ele>827.6</ele>
        <time>2022-05-21 04:57:38</time>
      </trkpt>
      <trkpt lat="42.02497" lon="2.46449">
        <ele>827.6</ele>
        <time>2022-05-21 04:57:39</time>
      </trkpt>
      <trkpt lat="42.025" lon="2.46451">
        <ele>827.6</ele>
        <time>2022-05-21 04:57:40</time>
      </trkpt>
      <trkpt lat="42.02502" lon="2.46454">
        <ele>827.8</ele>
        <time>2022-05-21 04:57:41</time>
      </trkpt>
      <trkpt lat="42.02504" lon="2.46456">
        <ele>827.8</ele>
        <time>2022-05-21 04:57:42</time>
      </trkpt>
      <trkpt lat="42.02507" lon="2.46458">
        <ele>827.8</ele>
        <time>2022-05-21 04:57:43</time>
      </trkpt>
      <trkpt lat="42.02509" lon="2.46461">
        <ele>828</ele>
        <time>2022-05-21 04:57:44</time>
      </trkpt>
      <trkpt lat="42.02511" lon="2.46464">
        <ele>828</ele>
        <time>2022-05-21 04:57:45</time>
      </trkpt>
      <trkpt lat="42.02513" lon="2.46466">
        <ele>828.2</ele>
        <time>2022-05-21 04:57:46</time>
      </trkpt>
      <trkpt lat="42.02516" lon="2.46468">
        <ele>828.2</ele>
        <time>2022-05-21 04:57:47</time>
      </trkpt>
      <trkpt lat="42.02518" lon="2.46469">
        <ele>828.4</ele>
        <time>2022-05-21 04:57:48</time>
      </trkpt>
      <trkpt lat="42.0252" lon="2.4647">
        <ele>828.6</ele>
        <time>2022-05-21 04:57:49</time>
      </trkpt>
      <trkpt lat="42.02522" lon="2.46471">
        <ele>828.6</ele>
        <time>2022-05-21 04:57:50</time>
      </trkpt>
      <trkpt lat="42.02525" lon="2.46472">
        <ele>828.8</ele>
        <time>2022-05-21 04:57:51</time>
      </trkpt>
      <trkpt lat="42.02526" lon="2.46473">
        <ele>828.8</ele>
        <time>2022-05-21 04:57:52</time>
      </trkpt>
      <trkpt lat="42.02528" lon="2.46475">
        <ele>829</ele>
        <time>2022-05-21 04:57:53</time>
      </trkpt>
      <trkpt lat="42.02531" lon="2.46477">
        <ele>829</ele>
        <time>2022-05-21 04:57:54</time>
      </trkpt>
      <trkpt lat="42.02533" lon="2.46478">
        <ele>828.8</ele>
        <time>2022-05-21 04:57:55</time>
      </trkpt>
      <trkpt lat="42.02536" lon="2.46479">
        <ele>828.8</ele>
        <time>2022-05-21 04:57:56</time>
      </trkpt>
      <trkpt lat="42.02539" lon="2.4648">
        <ele>828.6</ele>
        <time>2022-05-21 04:57:57</time>
      </trkpt>
      <trkpt lat="42.02543" lon="2.46481">
        <ele>828.6</ele>
        <time>2022-05-21 04:57:58</time>
      </trkpt>
      <trkpt lat="42.02547" lon="2.46483">
        <ele>828.6</ele>
        <time>2022-05-21 04:57:59</time>
      </trkpt>
      <trkpt lat="42.0255" lon="2.46484">
        <ele>828.4</ele>
        <time>2022-05-21 04:58:00</time>
      </trkpt>
      <trkpt lat="42.02554" lon="2.46485">
        <ele>828.4</ele>
        <time>2022-05-21 04:58:01</time>
      </trkpt>
      <trkpt lat="42.02557" lon="2.46486">
        <ele>828.2</ele>
        <time>2022-05-21 04:58:02</time>
      </trkpt>
      <trkpt lat="42.0256" lon="2.46487">
        <ele>828.2</ele>
        <time>2022-05-21 04:58:03</time>
      </trkpt>
      <trkpt lat="42.02564" lon="2.46488">
        <ele>828</ele>
        <time>2022-05-21 04:58:04</time>
      </trkpt>
      <trkpt lat="42.02568" lon="2.4649">
        <ele>827.8</ele>
        <time>2022-05-21 04:58:05</time>
      </trkpt>
      <trkpt lat="42.02572" lon="2.46492">
        <ele>827.6</ele>
        <time>2022-05-21 04:58:06</time>
      </trkpt>
      <trkpt lat="42.02576" lon="2.46494">
        <ele>827.4</ele>
        <time>2022-05-21 04:58:07</time>
      </trkpt>
      <trkpt lat="42.02579" lon="2.46497">
        <ele>827.2</ele>
        <time>2022-05-21 04:58:08</time>
      </trkpt>
      <trkpt lat="42.02579" lon="2.46499">
        <ele>827.2</ele>
        <time>2022-05-21 04:58:09</time>
      </trkpt>
      <trkpt lat="42.0258" lon="2.46501">
        <ele>827.2</ele>
        <time>2022-05-21 04:58:10</time>
      </trkpt>
      <trkpt lat="42.0258" lon="2.46502">
        <ele>827.2</ele>
        <time>2022-05-21 04:58:11</time>
      </trkpt>
      <trkpt lat="42.0258" lon="2.46502">
        <ele>827.2</ele>
        <time>2022-05-21 04:58:12</time>
      </trkpt>
      <trkpt lat="42.0258" lon="2.46502">
        <ele>827.2</ele>
        <time>2022-05-21 04:58:13</time>
      </trkpt>
      <trkpt lat="42.0258" lon="2.46502">
        <ele>827</ele>
        <time>2022-05-21 04:58:14</time>
      </trkpt>
      <trkpt lat="42.0258" lon="2.46502">
        <ele>827</ele>
        <time>2022-05-21 04:58:15</time>
      </trkpt>
      <trkpt lat="42.02586" lon="2.46502">
        <ele>827</ele>
        <time>2022-05-21 05:03:27</time>
      </trkpt>
      <trkpt lat="42.02587" lon="2.46503">
        <ele>827</ele>
        <time>2022-05-21 05:03:28</time>
      </trkpt>
      <trkpt lat="42.02589" lon="2.46503">
        <ele>827</ele>
        <time>2022-05-21 05:03:29</time>
      </trkpt>
      <trkpt lat="42.02591" lon="2.46504">
        <ele>827.2</ele>
        <time>2022-05-21 05:03:30</time>
      </trkpt>
      <trkpt lat="42.02593" lon="2.46504">
        <ele>827.2</ele>
        <time>2022-05-21 05:03:31</time>
      </trkpt>
      <trkpt lat="42.02594" lon="2.46505">
        <ele>827.2</ele>
        <time>2022-05-21 05:03:32</time>
      </trkpt>
      <trkpt lat="42.02596" lon="2.46506">
        <ele>827.4</ele>
        <time>2022-05-21 05:03:33</time>
      </trkpt>
      <trkpt lat="42.02598" lon="2.46507">
        <ele>827.6</ele>
        <time>2022-05-21 05:03:34</time>
      </trkpt>
      <trkpt lat="42.02599" lon="2.46507">
        <ele>827.6</ele>
        <time>2022-05-21 05:03:35</time>
      </trkpt>
      <trkpt lat="42.02601" lon="2.46506">
        <ele>827.8</ele>
        <time>2022-05-21 05:03:36</time>
      </trkpt>
      <trkpt lat="42.02603" lon="2.46505">
        <ele>828</ele>
        <time>2022-05-21 05:03:37</time>
      </trkpt>
      <trkpt lat="42.02604" lon="2.46503">
        <ele>828.2</ele>
        <time>2022-05-21 05:03:38</time>
      </trkpt>
      <trkpt lat="42.02606" lon="2.46501">
        <ele>828.4</ele>
        <time>2022-05-21 05:03:39</time>
      </trkpt>
      <trkpt lat="42.02607" lon="2.46498">
        <ele>828.4</ele>
        <time>2022-05-21 05:03:40</time>
      </trkpt>
      <trkpt lat="42.02609" lon="2.46496">
        <ele>828.6</ele>
        <time>2022-05-21 05:03:41</time>
      </trkpt>
      <trkpt lat="42.02611" lon="2.46493">
        <ele>828.8</ele>
        <time>2022-05-21 05:03:42</time>
      </trkpt>
      <trkpt lat="42.02612" lon="2.4649">
        <ele>828.8</ele>
        <time>2022-05-21 05:03:43</time>
      </trkpt>
      <trkpt lat="42.02614" lon="2.46486">
        <ele>829</ele>
        <time>2022-05-21 05:03:44</time>
      </trkpt>
      <trkpt lat="42.02615" lon="2.46483">
        <ele>829</ele>
        <time>2022-05-21 05:03:45</time>
      </trkpt>
      <trkpt lat="42.02616" lon="2.46479">
        <ele>829.2</ele>
        <time>2022-05-21 05:03:46</time>
      </trkpt>
      <trkpt lat="42.02617" lon="2.46476">
        <ele>829.2</ele>
        <time>2022-05-21 05:03:47</time>
      </trkpt>
      <trkpt lat="42.02617" lon="2.46472">
        <ele>829.4</ele>
        <time>2022-05-21 05:03:48</time>
      </trkpt>
      <trkpt lat="42.02618" lon="2.46468">
        <ele>829.6</ele>
        <time>2022-05-21 05:03:49</time>
      </trkpt>
      <trkpt lat="42.02619" lon="2.46465">
        <ele>829.6</ele>
        <time>2022-05-21 05:03:50</time>
      </trkpt>
      <trkpt lat="42.0262" lon="2.46461">
        <ele>829.8</ele>
        <time>2022-05-21 05:03:51</time>
      </trkpt>
      <trkpt lat="42.02621" lon="2.46457">
        <ele>830</ele>
        <time>2022-05-21 05:03:52</time>
      </trkpt>
      <trkpt lat="42.02622" lon="2.46454">
        <ele>830</ele>
        <time>2022-05-21 05:03:53</time>
      </trkpt>
      <trkpt lat="42.02623" lon="2.4645">
        <ele>830.2</ele>
        <time>2022-05-21 05:03:54</time>
      </trkpt>
      <trkpt lat="42.02625" lon="2.46446">
        <ele>830.2</ele>
        <time>2022-05-21 05:03:55</time>
      </trkpt>
      <trkpt lat="42.02626" lon="2.46443">
        <ele>830.4</ele>
        <time>2022-05-21 05:03:56</time>
      </trkpt>
      <trkpt lat="42.02628" lon="2.46439">
        <ele>830.4</ele>
        <time>2022-05-21 05:03:57</time>
      </trkpt>
      <trkpt lat="42.02629" lon="2.46435">
        <ele>830.6</ele>
        <time>2022-05-21 05:03:58</time>
      </trkpt>
      <trkpt lat="42.02631" lon="2.46432">
        <ele>830.6</ele>
        <time>2022-05-21 05:03:59</time>
      </trkpt>
      <trkpt lat="42.02633" lon="2.46428">
        <ele>830.8</ele>
        <time>2022-05-21 05:04:00</time>
      </trkpt>
      <trkpt lat="42.02635" lon="2.46425">
        <ele>830.8</ele>
        <time>2022-05-21 05:04:01</time>
      </trkpt>
      <trkpt lat="42.02637" lon="2.46422">
        <ele>831</ele>
        <time>2022-05-21 05:04:02</time>
      </trkpt>
      <trkpt lat="42.02639" lon="2.46418">
        <ele>831</ele>
        <time>2022-05-21 05:04:03</time>
      </trkpt>
      <trkpt lat="42.02642" lon="2.46415">
        <ele>831</ele>
        <time>2022-05-21 05:04:04</time>
      </trkpt>
      <trkpt lat="42.02645" lon="2.46412">
        <ele>831</ele>
        <time>2022-05-21 05:04:05</time>
      </trkpt>
      <trkpt lat="42.02648" lon="2.46409">
        <ele>831</ele>
        <time>2022-05-21 05:04:06</time>
      </trkpt>
      <trkpt lat="42.02651" lon="2.46406">
        <ele>830.8</ele>
        <time>2022-05-21 05:04:07</time>
      </trkpt>
      <trkpt lat="42.02654" lon="2.46404">
        <ele>830.8</ele>
        <time>2022-05-21 05:04:08</time>
      </trkpt>
      <trkpt lat="42.02658" lon="2.46402">
        <ele>830.8</ele>
        <time>2022-05-21 05:04:09</time>
      </trkpt>
      <trkpt lat="42.02662" lon="2.464">
        <ele>830.8</ele>
        <time>2022-05-21 05:04:10</time>
      </trkpt>
      <trkpt lat="42.02665" lon="2.46398">
        <ele>830.6</ele>
        <time>2022-05-21 05:04:11</time>
      </trkpt>
      <trkpt lat="42.02669" lon="2.46397">
        <ele>830.6</ele>
        <time>2022-05-21 05:04:12</time>
      </trkpt>
      <trkpt lat="42.02673" lon="2.46395">
        <ele>830.6</ele>
        <time>2022-05-21 05:04:13</time>
      </trkpt>
      <trkpt lat="42.02676" lon="2.46394">
        <ele>830.6</ele>
        <time>2022-05-21 05:04:14</time>
      </trkpt>
      <trkpt lat="42.0268" lon="2.46393">
        <ele>830.6</ele>
        <time>2022-05-21 05:04:15</time>
      </trkpt>
      <trkpt lat="42.02683" lon="2.46392">
        <ele>830.6</ele>
        <time>2022-05-21 05:04:16</time>
      </trkpt>
      <trkpt lat="42.02687" lon="2.46391">
        <ele>830.6</ele>
        <time>2022-05-21 05:04:17</time>
      </trkpt>
      <trkpt lat="42.02691" lon="2.46389">
        <ele>830.6</ele>
        <time>2022-05-21 05:04:18</time>
      </trkpt>
      <trkpt lat="42.02695" lon="2.46388">
        <ele>830.6</ele>
        <time>2022-05-21 05:04:19</time>
      </trkpt>
      <trkpt lat="42.02698" lon="2.46387">
        <ele>830.6</ele>
        <time>2022-05-21 05:04:20</time>
      </trkpt>
      <trkpt lat="42.02702" lon="2.46386">
        <ele>830.6</ele>
        <time>2022-05-21 05:04:21</time>
      </trkpt>
      <trkpt lat="42.02706" lon="2.46385">
        <ele>830.8</ele>
        <time>2022-05-21 05:04:22</time>
      </trkpt>
      <trkpt lat="42.0271" lon="2.46384">
        <ele>830.8</ele>
        <time>2022-05-21 05:04:23</time>
      </trkpt>
      <trkpt lat="42.02713" lon="2.46384">
        <ele>830.8</ele>
        <time>2022-05-21 05:04:24</time>
      </trkpt>
      <trkpt lat="42.02717" lon="2.46383">
        <ele>831</ele>
        <time>2022-05-21 05:04:25</time>
      </trkpt>
      <trkpt lat="42.02721" lon="2.46382">
        <ele>831.2</ele>
        <time>2022-05-21 05:04:26</time>
      </trkpt>
      <trkpt lat="42.02724" lon="2.4638">
        <ele>831.4</ele>
        <time>2022-05-21 05:04:27</time>
      </trkpt>
      <trkpt lat="42.02728" lon="2.46379">
        <ele>831.6</ele>
        <time>2022-05-21 05:04:28</time>
      </trkpt>
      <trkpt lat="42.02731" lon="2.46378">
        <ele>831.8</ele>
        <time>2022-05-21 05:04:29</time>
      </trkpt>
      <trkpt lat="42.02734" lon="2.46378">
        <ele>832</ele>
        <time>2022-05-21 05:04:30</time>
      </trkpt>
      <trkpt lat="42.02737" lon="2.46377">
        <ele>832.2</ele>
        <time>2022-05-21 05:04:31</time>
      </trkpt>
      <trkpt lat="42.0274" lon="2.46377">
        <ele>832.4</ele>
        <time>2022-05-21 05:04:32</time>
      </trkpt>
      <trkpt lat="42.02742" lon="2.46376">
        <ele>832.8</ele>
        <time>2022-05-21 05:04:33</time>
      </trkpt>
      <trkpt lat="42.02746" lon="2.46375">
        <ele>833</ele>
        <time>2022-05-21 05:04:34</time>
      </trkpt>
      <trkpt lat="42.02749" lon="2.46374">
        <ele>833.2</ele>
        <time>2022-05-21 05:04:35</time>
      </trkpt>
      <trkpt lat="42.02752" lon="2.46372">
        <ele>833.4</ele>
        <time>2022-05-21 05:04:36</time>
      </trkpt>
      <trkpt lat="42.02755" lon="2.46372">
        <ele>833.8</ele>
        <time>2022-05-21 05:04:37</time>
      </trkpt>
      <trkpt lat="42.02757" lon="2.46371">
        <ele>834</ele>
        <time>2022-05-21 05:04:38</time>
      </trkpt>
      <trkpt lat="42.0276" lon="2.46371">
        <ele>834.2</ele>
        <time>2022-05-21 05:04:39</time>
      </trkpt>
      <trkpt lat="42.02761" lon="2.46371">
        <ele>834.6</ele>
        <time>2022-05-21 05:04:40</time>
      </trkpt>
      <trkpt lat="42.02764" lon="2.46372">
        <ele>834.8</ele>
        <time>2022-05-21 05:04:41</time>
      </trkpt>
      <trkpt lat="42.02766" lon="2.46373">
        <ele>835</ele>
        <time>2022-05-21 05:04:42</time>
      </trkpt>
      <trkpt lat="42.02768" lon="2.46374">
        <ele>835.2</ele>
        <time>2022-05-21 05:04:43</time>
      </trkpt>
      <trkpt lat="42.0277" lon="2.46375">
        <ele>835.4</ele>
        <time>2022-05-21 05:04:44</time>
      </trkpt>
      <trkpt lat="42.02772" lon="2.46376">
        <ele>835.6</ele>
        <time>2022-05-21 05:04:45</time>
      </trkpt>
      <trkpt lat="42.02774" lon="2.46377">
        <ele>835.8</ele>
        <time>2022-05-21 05:04:46</time>
      </trkpt>
      <trkpt lat="42.02777" lon="2.46377">
        <ele>836</ele>
        <time>2022-05-21 05:04:47</time>
      </trkpt>
      <trkpt lat="42.02779" lon="2.46378">
        <ele>836.2</ele>
        <time>2022-05-21 05:04:48</time>
      </trkpt>
      <trkpt lat="42.02782" lon="2.46379">
        <ele>836.4</ele>
        <time>2022-05-21 05:04:49</time>
      </trkpt>
      <trkpt lat="42.02784" lon="2.46379">
        <ele>836.6</ele>
        <time>2022-05-21 05:04:50</time>
      </trkpt>
      <trkpt lat="42.02787" lon="2.4638">
        <ele>836.8</ele>
        <time>2022-05-21 05:04:51</time>
      </trkpt>
      <trkpt lat="42.0279" lon="2.46381">
        <ele>837</ele>
        <time>2022-05-21 05:04:52</time>
      </trkpt>
      <trkpt lat="42.02792" lon="2.46381">
        <ele>837</ele>
        <time>2022-05-21 05:04:53</time>
      </trkpt>
      <trkpt lat="42.02795" lon="2.46381">
        <ele>837.2</ele>
        <time>2022-05-21 05:04:54</time>
      </trkpt>
      <trkpt lat="42.02798" lon="2.46381">
        <ele>837.4</ele>
        <time>2022-05-21 05:04:55</time>
      </trkpt>
      <trkpt lat="42.02801" lon="2.46381">
        <ele>837.6</ele>
        <time>2022-05-21 05:04:56</time>
      </trkpt>
      <trkpt lat="42.02803" lon="2.46381">
        <ele>837.8</ele>
        <time>2022-05-21 05:04:57</time>
      </trkpt>
      <trkpt lat="42.02806" lon="2.46381">
        <ele>838</ele>
        <time>2022-05-21 05:04:58</time>
      </trkpt>
      <trkpt lat="42.02808" lon="2.46381">
        <ele>838.2</ele>
        <time>2022-05-21 05:04:59</time>
      </trkpt>
      <trkpt lat="42.02811" lon="2.46381">
        <ele>838.4</ele>
        <time>2022-05-21 05:05:00</time>
      </trkpt>
      <trkpt lat="42.02814" lon="2.4638">
        <ele>838.6</ele>
        <time>2022-05-21 05:05:01</time>
      </trkpt>
      <trkpt lat="42.02816" lon="2.46379">
        <ele>838.8</ele>
        <time>2022-05-21 05:05:02</time>
      </trkpt>
      <trkpt lat="42.02819" lon="2.46378">
        <ele>839</ele>
        <time>2022-05-21 05:05:03</time>
      </trkpt>
      <trkpt lat="42.02822" lon="2.46378">
        <ele>839</ele>
        <time>2022-05-21 05:05:04</time>
      </trkpt>
      <trkpt lat="42.02825" lon="2.46377">
        <ele>839.2</ele>
        <time>2022-05-21 05:05:05</time>
      </trkpt>
      <trkpt lat="42.02827" lon="2.46376">
        <ele>839.4</ele>
        <time>2022-05-21 05:05:06</time>
      </trkpt>
      <trkpt lat="42.0283" lon="2.46376">
        <ele>839.6</ele>
        <time>2022-05-21 05:05:07</time>
      </trkpt>
      <trkpt lat="42.02833" lon="2.46375">
        <ele>839.8</ele>
        <time>2022-05-21 05:05:08</time>
      </trkpt>
      <trkpt lat="42.02835" lon="2.46373">
        <ele>840</ele>
        <time>2022-05-21 05:05:09</time>
      </trkpt>
      <trkpt lat="42.02838" lon="2.46372">
        <ele>840.2</ele>
        <time>2022-05-21 05:05:10</time>
      </trkpt>
      <trkpt lat="42.0284" lon="2.4637">
        <ele>840.4</ele>
        <time>2022-05-21 05:05:11</time>
      </trkpt>
      <trkpt lat="42.02843" lon="2.46369">
        <ele>840.6</ele>
        <time>2022-05-21 05:05:12</time>
      </trkpt>
      <trkpt lat="42.02846" lon="2.46368">
        <ele>840.8</ele>
        <time>2022-05-21 05:05:13</time>
      </trkpt>
      <trkpt lat="42.02848" lon="2.46367">
        <ele>841</ele>
        <time>2022-05-21 05:05:14</time>
      </trkpt>
      <trkpt lat="42.02851" lon="2.46365">
        <ele>841.2</ele>
        <time>2022-05-21 05:05:15</time>
      </trkpt>
      <trkpt lat="42.02853" lon="2.46364">
        <ele>841.2</ele>
        <time>2022-05-21 05:05:16</time>
      </trkpt>
      <trkpt lat="42.02853" lon="2.46363">
        <ele>841.4</ele>
        <time>2022-05-21 05:05:17</time>
      </trkpt>
      <trkpt lat="42.02856" lon="2.46361">
        <ele>841.6</ele>
        <time>2022-05-21 05:05:18</time>
      </trkpt>
      <trkpt lat="42.02861" lon="2.46358">
        <ele>841.8</ele>
        <time>2022-05-21 05:05:19</time>
      </trkpt>
      <trkpt lat="42.02863" lon="2.46356">
        <ele>842</ele>
        <time>2022-05-21 05:05:20</time>
      </trkpt>
      <trkpt lat="42.02866" lon="2.46354">
        <ele>842.2</ele>
        <time>2022-05-21 05:05:21</time>
      </trkpt>
      <trkpt lat="42.02868" lon="2.46352">
        <ele>842.4</ele>
        <time>2022-05-21 05:05:22</time>
      </trkpt>
      <trkpt lat="42.02871" lon="2.4635">
        <ele>842.6</ele>
        <time>2022-05-21 05:05:23</time>
      </trkpt>
      <trkpt lat="42.02873" lon="2.46349">
        <ele>842.8</ele>
        <time>2022-05-21 05:05:24</time>
      </trkpt>
      <trkpt lat="42.02876" lon="2.46347">
        <ele>843</ele>
        <time>2022-05-21 05:05:25</time>
      </trkpt>
      <trkpt lat="42.02878" lon="2.46345">
        <ele>843.2</ele>
        <time>2022-05-21 05:05:26</time>
      </trkpt>
      <trkpt lat="42.0288" lon="2.46343">
        <ele>843.4</ele>
        <time>2022-05-21 05:05:27</time>
      </trkpt>
      <trkpt lat="42.02882" lon="2.46341">
        <ele>843.4</ele>
        <time>2022-05-21 05:05:28</time>
      </trkpt>
      <trkpt lat="42.02884" lon="2.46339">
        <ele>843.6</ele>
        <time>2022-05-21 05:05:29</time>
      </trkpt>
      <trkpt lat="42.02887" lon="2.46337">
        <ele>843.8</ele>
        <time>2022-05-21 05:05:30</time>
      </trkpt>
      <trkpt lat="42.02889" lon="2.46335">
        <ele>844</ele>
        <time>2022-05-21 05:05:31</time>
      </trkpt>
      <trkpt lat="42.02891" lon="2.46333">
        <ele>844.2</ele>
        <time>2022-05-21 05:05:32</time>
      </trkpt>
      <trkpt lat="42.02893" lon="2.46331">
        <ele>844.4</ele>
        <time>2022-05-21 05:05:33</time>
      </trkpt>
      <trkpt lat="42.02895" lon="2.46329">
        <ele>844.6</ele>
        <time>2022-05-21 05:05:34</time>
      </trkpt>
      <trkpt lat="42.02897" lon="2.46327">
        <ele>844.8</ele>
        <time>2022-05-21 05:05:35</time>
      </trkpt>
      <trkpt lat="42.02898" lon="2.46325">
        <ele>845</ele>
        <time>2022-05-21 05:05:36</time>
      </trkpt>
      <trkpt lat="42.02899" lon="2.46322">
        <ele>845.2</ele>
        <time>2022-05-21 05:05:37</time>
      </trkpt>
      <trkpt lat="42.02901" lon="2.46319">
        <ele>845.6</ele>
        <time>2022-05-21 05:05:38</time>
      </trkpt>
      <trkpt lat="42.02902" lon="2.46317">
        <ele>845.8</ele>
        <time>2022-05-21 05:05:39</time>
      </trkpt>
      <trkpt lat="42.02903" lon="2.46315">
        <ele>846</ele>
        <time>2022-05-21 05:05:40</time>
      </trkpt>
      <trkpt lat="42.02905" lon="2.46312">
        <ele>846.2</ele>
        <time>2022-05-21 05:05:41</time>
      </trkpt>
      <trkpt lat="42.02906" lon="2.46309">
        <ele>846.6</ele>
        <time>2022-05-21 05:05:42</time>
      </trkpt>
      <trkpt lat="42.02907" lon="2.46307">
        <ele>846.8</ele>
        <time>2022-05-21 05:05:43</time>
      </trkpt>
      <trkpt lat="42.02908" lon="2.46304">
        <ele>847</ele>
        <time>2022-05-21 05:05:44</time>
      </trkpt>
      <trkpt lat="42.02909" lon="2.46302">
        <ele>847.2</ele>
        <time>2022-05-21 05:05:45</time>
      </trkpt>
      <trkpt lat="42.02911" lon="2.46299">
        <ele>847.6</ele>
        <time>2022-05-21 05:05:46</time>
      </trkpt>
      <trkpt lat="42.02911" lon="2.46296">
        <ele>847.8</ele>
        <time>2022-05-21 05:05:47</time>
      </trkpt>
      <trkpt lat="42.02913" lon="2.46293">
        <ele>848</ele>
        <time>2022-05-21 05:05:48</time>
      </trkpt>
      <trkpt lat="42.02913" lon="2.46289">
        <ele>848.2</ele>
        <time>2022-05-21 05:05:49</time>
      </trkpt>
      <trkpt lat="42.02914" lon="2.46286">
        <ele>848.4</ele>
        <time>2022-05-21 05:05:50</time>
      </trkpt>
      <trkpt lat="42.02915" lon="2.46283">
        <ele>848.6</ele>
        <time>2022-05-21 05:05:51</time>
      </trkpt>
      <trkpt lat="42.02916" lon="2.46279">
        <ele>848.8</ele>
        <time>2022-05-21 05:05:52</time>
      </trkpt>
      <trkpt lat="42.02917" lon="2.46276">
        <ele>849</ele>
        <time>2022-05-21 05:05:53</time>
      </trkpt>
      <trkpt lat="42.02918" lon="2.46273">
        <ele>849.2</ele>
        <time>2022-05-21 05:05:54</time>
      </trkpt>
      <trkpt lat="42.02919" lon="2.46269">
        <ele>849.4</ele>
        <time>2022-05-21 05:05:55</time>
      </trkpt>
      <trkpt lat="42.0292" lon="2.46266">
        <ele>849.4</ele>
        <time>2022-05-21 05:05:56</time>
      </trkpt>
      <trkpt lat="42.02921" lon="2.46263">
        <ele>849.6</ele>
        <time>2022-05-21 05:05:57</time>
      </trkpt>
      <trkpt lat="42.02922" lon="2.4626">
        <ele>849.8</ele>
        <time>2022-05-21 05:05:58</time>
      </trkpt>
      <trkpt lat="42.02923" lon="2.46258">
        <ele>850</ele>
        <time>2022-05-21 05:05:59</time>
      </trkpt>
      <trkpt lat="42.02925" lon="2.46255">
        <ele>850.2</ele>
        <time>2022-05-21 05:06:00</time>
      </trkpt>
      <trkpt lat="42.02926" lon="2.46251">
        <ele>850.4</ele>
        <time>2022-05-21 05:06:01</time>
      </trkpt>
      <trkpt lat="42.02927" lon="2.46248">
        <ele>850.4</ele>
        <time>2022-05-21 05:06:02</time>
      </trkpt>
      <trkpt lat="42.02927" lon="2.46245">
        <ele>850.6</ele>
        <time>2022-05-21 05:06:03</time>
      </trkpt>
      <trkpt lat="42.02928" lon="2.46242">
        <ele>850.8</ele>
        <time>2022-05-21 05:06:04</time>
      </trkpt>
      <trkpt lat="42.02929" lon="2.46239">
        <ele>851</ele>
        <time>2022-05-21 05:06:05</time>
      </trkpt>
      <trkpt lat="42.02929" lon="2.46236">
        <ele>851</ele>
        <time>2022-05-21 05:06:06</time>
      </trkpt>
      <trkpt lat="42.0293" lon="2.46233">
        <ele>851.2</ele>
        <time>2022-05-21 05:06:07</time>
      </trkpt>
      <trkpt lat="42.0293" lon="2.4623">
        <ele>851.4</ele>
        <time>2022-05-21 05:06:08</time>
      </trkpt>
      <trkpt lat="42.0293" lon="2.46226">
        <ele>851.6</ele>
        <time>2022-05-21 05:06:09</time>
      </trkpt>
      <trkpt lat="42.02931" lon="2.46223">
        <ele>851.8</ele>
        <time>2022-05-21 05:06:10</time>
      </trkpt>
      <trkpt lat="42.02932" lon="2.46219">
        <ele>852</ele>
        <time>2022-05-21 05:06:11</time>
      </trkpt>
      <trkpt lat="42.02932" lon="2.46216">
        <ele>852</ele>
        <time>2022-05-21 05:06:12</time>
      </trkpt>
      <trkpt lat="42.02933" lon="2.46212">
        <ele>852.2</ele>
        <time>2022-05-21 05:06:13</time>
      </trkpt>
      <trkpt lat="42.02934" lon="2.46209">
        <ele>852.4</ele>
        <time>2022-05-21 05:06:14</time>
      </trkpt>
      <trkpt lat="42.02935" lon="2.46206">
        <ele>852.6</ele>
        <time>2022-05-21 05:06:15</time>
      </trkpt>
      <trkpt lat="42.02936" lon="2.46203">
        <ele>852.8</ele>
        <time>2022-05-21 05:06:16</time>
      </trkpt>
      <trkpt lat="42.02937" lon="2.462">
        <ele>853</ele>
        <time>2022-05-21 05:06:17</time>
      </trkpt>
      <trkpt lat="42.02938" lon="2.46198">
        <ele>853.2</ele>
        <time>2022-05-21 05:06:18</time>
      </trkpt>
      <trkpt lat="42.0294" lon="2.46195">
        <ele>853.4</ele>
        <time>2022-05-21 05:06:19</time>
      </trkpt>
      <trkpt lat="42.02942" lon="2.46192">
        <ele>853.6</ele>
        <time>2022-05-21 05:06:20</time>
      </trkpt>
      <trkpt lat="42.02943" lon="2.4619">
        <ele>853.6</ele>
        <time>2022-05-21 05:06:21</time>
      </trkpt>
      <trkpt lat="42.02945" lon="2.46187">
        <ele>853.8</ele>
        <time>2022-05-21 05:06:22</time>
      </trkpt>
      <trkpt lat="42.02946" lon="2.46184">
        <ele>854</ele>
        <time>2022-05-21 05:06:23</time>
      </trkpt>
      <trkpt lat="42.02948" lon="2.46181">
        <ele>854.2</ele>
        <time>2022-05-21 05:06:24</time>
      </trkpt>
      <trkpt lat="42.0295" lon="2.46179">
        <ele>854.4</ele>
        <time>2022-05-21 05:06:25</time>
      </trkpt>
      <trkpt lat="42.02952" lon="2.46177">
        <ele>854.4</ele>
        <time>2022-05-21 05:06:26</time>
      </trkpt>
      <trkpt lat="42.02954" lon="2.46175">
        <ele>854.6</ele>
        <time>2022-05-21 05:06:27</time>
      </trkpt>
      <trkpt lat="42.02956" lon="2.46173">
        <ele>854.8</ele>
        <time>2022-05-21 05:06:28</time>
      </trkpt>
      <trkpt lat="42.02958" lon="2.46171">
        <ele>855</ele>
        <time>2022-05-21 05:06:29</time>
      </trkpt>
      <trkpt lat="42.0296" lon="2.46169">
        <ele>855.2</ele>
        <time>2022-05-21 05:06:30</time>
      </trkpt>
      <trkpt lat="42.02962" lon="2.46168">
        <ele>855.4</ele>
        <time>2022-05-21 05:06:31</time>
      </trkpt>
      <trkpt lat="42.02965" lon="2.46167">
        <ele>855.6</ele>
        <time>2022-05-21 05:06:32</time>
      </trkpt>
      <trkpt lat="42.02967" lon="2.46166">
        <ele>855.8</ele>
        <time>2022-05-21 05:06:33</time>
      </trkpt>
      <trkpt lat="42.0297" lon="2.46165">
        <ele>856</ele>
        <time>2022-05-21 05:06:34</time>
      </trkpt>
      <trkpt lat="42.02972" lon="2.46164">
        <ele>856.2</ele>
        <time>2022-05-21 05:06:35</time>
      </trkpt>
      <trkpt lat="42.02974" lon="2.46163">
        <ele>856.4</ele>
        <time>2022-05-21 05:06:36</time>
      </trkpt>
      <trkpt lat="42.02976" lon="2.46162">
        <ele>856.6</ele>
        <time>2022-05-21 05:06:37</time>
      </trkpt>
      <trkpt lat="42.02979" lon="2.46162">
        <ele>856.8</ele>
        <time>2022-05-21 05:06:38</time>
      </trkpt>
      <trkpt lat="42.02981" lon="2.46161">
        <ele>857</ele>
        <time>2022-05-21 05:06:39</time>
      </trkpt>
      <trkpt lat="42.02983" lon="2.46161">
        <ele>857.2</ele>
        <time>2022-05-21 05:06:40</time>
      </trkpt>
      <trkpt lat="42.02986" lon="2.46161">
        <ele>857.4</ele>
        <time>2022-05-21 05:06:41</time>
      </trkpt>
      <trkpt lat="42.02988" lon="2.4616">
        <ele>857.6</ele>
        <time>2022-05-21 05:06:42</time>
      </trkpt>
      <trkpt lat="42.02991" lon="2.4616">
        <ele>857.8</ele>
        <time>2022-05-21 05:06:43</time>
      </trkpt>
      <trkpt lat="42.02993" lon="2.46159">
        <ele>858</ele>
        <time>2022-05-21 05:06:44</time>
      </trkpt>
      <trkpt lat="42.02996" lon="2.46159">
        <ele>858.2</ele>
        <time>2022-05-21 05:06:45</time>
      </trkpt>
      <trkpt lat="42.02998" lon="2.46158">
        <ele>858.4</ele>
        <time>2022-05-21 05:06:46</time>
      </trkpt>
      <trkpt lat="42.03001" lon="2.46158">
        <ele>858.6</ele>
        <time>2022-05-21 05:06:47</time>
      </trkpt>
      <trkpt lat="42.03003" lon="2.46157">
        <ele>858.8</ele>
        <time>2022-05-21 05:06:48</time>
      </trkpt>
      <trkpt lat="42.03006" lon="2.46157">
        <ele>859</ele>
        <time>2022-05-21 05:06:49</time>
      </trkpt>
      <trkpt lat="42.03008" lon="2.46156">
        <ele>859</ele>
        <time>2022-05-21 05:06:50</time>
      </trkpt>
      <trkpt lat="42.03011" lon="2.46155">
        <ele>859.2</ele>
        <time>2022-05-21 05:06:51</time>
      </trkpt>
      <trkpt lat="42.03013" lon="2.46155">
        <ele>859.4</ele>
        <time>2022-05-21 05:06:52</time>
      </trkpt>
      <trkpt lat="42.03016" lon="2.46155">
        <ele>859.6</ele>
        <time>2022-05-21 05:06:53</time>
      </trkpt>
      <trkpt lat="42.03018" lon="2.46155">
        <ele>859.6</ele>
        <time>2022-05-21 05:06:54</time>
      </trkpt>
      <trkpt lat="42.03021" lon="2.46155">
        <ele>859.8</ele>
        <time>2022-05-21 05:06:55</time>
      </trkpt>
      <trkpt lat="42.03024" lon="2.46155">
        <ele>860</ele>
        <time>2022-05-21 05:06:56</time>
      </trkpt>
      <trkpt lat="42.03026" lon="2.46154">
        <ele>860.2</ele>
        <time>2022-05-21 05:06:57</time>
      </trkpt>
      <trkpt lat="42.03028" lon="2.46154">
        <ele>860.2</ele>
        <time>2022-05-21 05:06:58</time>
      </trkpt>
      <trkpt lat="42.03031" lon="2.46154">
        <ele>860.4</ele>
        <time>2022-05-21 05:06:59</time>
      </trkpt>
      <trkpt lat="42.03033" lon="2.46154">
        <ele>860.6</ele>
        <time>2022-05-21 05:07:00</time>
      </trkpt>
      <trkpt lat="42.03036" lon="2.46154">
        <ele>860.6</ele>
        <time>2022-05-21 05:07:01</time>
      </trkpt>
      <trkpt lat="42.03038" lon="2.46153">
        <ele>860.8</ele>
        <time>2022-05-21 05:07:02</time>
      </trkpt>
      <trkpt lat="42.03041" lon="2.46153">
        <ele>861</ele>
        <time>2022-05-21 05:07:03</time>
      </trkpt>
      <trkpt lat="42.03043" lon="2.46153">
        <ele>861</ele>
        <time>2022-05-21 05:07:04</time>
      </trkpt>
      <trkpt lat="42.03046" lon="2.46153">
        <ele>861.2</ele>
        <time>2022-05-21 05:07:05</time>
      </trkpt>
      <trkpt lat="42.03049" lon="2.46153">
        <ele>861.4</ele>
        <time>2022-05-21 05:07:06</time>
      </trkpt>
      <trkpt lat="42.03051" lon="2.46152">
        <ele>861.4</ele>
        <time>2022-05-21 05:07:07</time>
      </trkpt>
      <trkpt lat="42.03054" lon="2.46152">
        <ele>861.6</ele>
        <time>2022-05-21 05:07:08</time>
      </trkpt>
      <trkpt lat="42.03056" lon="2.46153">
        <ele>861.8</ele>
        <time>2022-05-21 05:07:09</time>
      </trkpt>
      <trkpt lat="42.03059" lon="2.46153">
        <ele>861.8</ele>
        <time>2022-05-21 05:07:10</time>
      </trkpt>
      <trkpt lat="42.03061" lon="2.46153">
        <ele>862</ele>
        <time>2022-05-21 05:07:11</time>
      </trkpt>
      <trkpt lat="42.03063" lon="2.46152">
        <ele>862.2</ele>
        <time>2022-05-21 05:07:12</time>
      </trkpt>
      <trkpt lat="42.03066" lon="2.46152">
        <ele>862.2</ele>
        <time>2022-05-21 05:07:13</time>
      </trkpt>
      <trkpt lat="42.03068" lon="2.46152">
        <ele>862.4</ele>
        <time>2022-05-21 05:07:14</time>
      </trkpt>
      <trkpt lat="42.03071" lon="2.46151">
        <ele>862.6</ele>
        <time>2022-05-21 05:07:15</time>
      </trkpt>
      <trkpt lat="42.03074" lon="2.46151">
        <ele>862.6</ele>
        <time>2022-05-21 05:07:16</time>
      </trkpt>
      <trkpt lat="42.03076" lon="2.4615">
        <ele>862.8</ele>
        <time>2022-05-21 05:07:17</time>
      </trkpt>
      <trkpt lat="42.03079" lon="2.4615">
        <ele>862.8</ele>
        <time>2022-05-21 05:07:18</time>
      </trkpt>
      <trkpt lat="42.03082" lon="2.4615">
        <ele>863</ele>
        <time>2022-05-21 05:07:19</time>
      </trkpt>
      <trkpt lat="42.03085" lon="2.4615">
        <ele>863.2</ele>
        <time>2022-05-21 05:07:20</time>
      </trkpt>
      <trkpt lat="42.03087" lon="2.4615">
        <ele>863.2</ele>
        <time>2022-05-21 05:07:21</time>
      </trkpt>
      <trkpt lat="42.0309" lon="2.4615">
        <ele>863.4</ele>
        <time>2022-05-21 05:07:22</time>
      </trkpt>
      <trkpt lat="42.03093" lon="2.46149">
        <ele>863.4</ele>
        <time>2022-05-21 05:07:23</time>
      </trkpt>
      <trkpt lat="42.03096" lon="2.46148">
        <ele>863.6</ele>
        <time>2022-05-21 05:07:24</time>
      </trkpt>
      <trkpt lat="42.03098" lon="2.46148">
        <ele>863.6</ele>
        <time>2022-05-21 05:07:25</time>
      </trkpt>
      <trkpt lat="42.03101" lon="2.46148">
        <ele>863.6</ele>
        <time>2022-05-21 05:07:26</time>
      </trkpt>
      <trkpt lat="42.03104" lon="2.46148">
        <ele>863.8</ele>
        <time>2022-05-21 05:07:27</time>
      </trkpt>
      <trkpt lat="42.03106" lon="2.46148">
        <ele>863.8</ele>
        <time>2022-05-21 05:07:28</time>
      </trkpt>
      <trkpt lat="42.03109" lon="2.46148">
        <ele>864</ele>
        <time>2022-05-21 05:07:29</time>
      </trkpt>
      <trkpt lat="42.03112" lon="2.46148">
        <ele>864</ele>
        <time>2022-05-21 05:07:30</time>
      </trkpt>
      <trkpt lat="42.03114" lon="2.46148">
        <ele>864</ele>
        <time>2022-05-21 05:07:31</time>
      </trkpt>
      <trkpt lat="42.03117" lon="2.46147">
        <ele>864.2</ele>
        <time>2022-05-21 05:07:32</time>
      </trkpt>
      <trkpt lat="42.0312" lon="2.46147">
        <ele>864.2</ele>
        <time>2022-05-21 05:07:33</time>
      </trkpt>
      <trkpt lat="42.03122" lon="2.46147">
        <ele>864.2</ele>
        <time>2022-05-21 05:07:34</time>
      </trkpt>
      <trkpt lat="42.03124" lon="2.46147">
        <ele>864.4</ele>
        <time>2022-05-21 05:07:35</time>
      </trkpt>
      <trkpt lat="42.03128" lon="2.46146">
        <ele>864.4</ele>
        <time>2022-05-21 05:07:36</time>
      </trkpt>
      <trkpt lat="42.03131" lon="2.46146">
        <ele>864.6</ele>
        <time>2022-05-21 05:07:37</time>
      </trkpt>
      <trkpt lat="42.03133" lon="2.46146">
        <ele>864.6</ele>
        <time>2022-05-21 05:07:38</time>
      </trkpt>
      <trkpt lat="42.03136" lon="2.46146">
        <ele>864.6</ele>
        <time>2022-05-21 05:07:39</time>
      </trkpt>
      <trkpt lat="42.03139" lon="2.46146">
        <ele>864.8</ele>
        <time>2022-05-21 05:07:40</time>
      </trkpt>
      <trkpt lat="42.03141" lon="2.46145">
        <ele>864.8</ele>
        <time>2022-05-21 05:07:41</time>
      </trkpt>
      <trkpt lat="42.03144" lon="2.46145">
        <ele>865</ele>
        <time>2022-05-21 05:07:42</time>
      </trkpt>
      <trkpt lat="42.03147" lon="2.46145">
        <ele>865</ele>
        <time>2022-05-21 05:07:43</time>
      </trkpt>
      <trkpt lat="42.0315" lon="2.46145">
        <ele>865.2</ele>
        <time>2022-05-21 05:07:44</time>
      </trkpt>
      <trkpt lat="42.03152" lon="2.46145">
        <ele>865.2</ele>
        <time>2022-05-21 05:07:45</time>
      </trkpt>
      <trkpt lat="42.03154" lon="2.46144">
        <ele>865.2</ele>
        <time>2022-05-21 05:07:46</time>
      </trkpt>
      <trkpt lat="42.03158" lon="2.46144">
        <ele>865.4</ele>
        <time>2022-05-21 05:07:47</time>
      </trkpt>
      <trkpt lat="42.0316" lon="2.46144">
        <ele>865.4</ele>
        <time>2022-05-21 05:07:48</time>
      </trkpt>
      <trkpt lat="42.03163" lon="2.46144">
        <ele>865.4</ele>
        <time>2022-05-21 05:07:49</time>
      </trkpt>
      <trkpt lat="42.03166" lon="2.46144">
        <ele>865.6</ele>
        <time>2022-05-21 05:07:50</time>
      </trkpt>
      <trkpt lat="42.03168" lon="2.46144">
        <ele>865.6</ele>
        <time>2022-05-21 05:07:51</time>
      </trkpt>
      <trkpt lat="42.03172" lon="2.46144">
        <ele>865.6</ele>
        <time>2022-05-21 05:07:52</time>
      </trkpt>
      <trkpt lat="42.03174" lon="2.46144">
        <ele>865.6</ele>
        <time>2022-05-21 05:07:53</time>
      </trkpt>
      <trkpt lat="42.03176" lon="2.46144">
        <ele>865.8</ele>
        <time>2022-05-21 05:07:54</time>
      </trkpt>
      <trkpt lat="42.0318" lon="2.46144">
        <ele>865.8</ele>
        <time>2022-05-21 05:07:55</time>
      </trkpt>
      <trkpt lat="42.03182" lon="2.46144">
        <ele>865.8</ele>
        <time>2022-05-21 05:07:56</time>
      </trkpt>
      <trkpt lat="42.03185" lon="2.46144">
        <ele>866</ele>
        <time>2022-05-21 05:07:57</time>
      </trkpt>
      <trkpt lat="42.03187" lon="2.46143">
        <ele>866</ele>
        <time>2022-05-21 05:07:58</time>
      </trkpt>
      <trkpt lat="42.0319" lon="2.46143">
        <ele>866.2</ele>
        <time>2022-05-21 05:07:59</time>
      </trkpt>
      <trkpt lat="42.03193" lon="2.46143">
        <ele>866.2</ele>
        <time>2022-05-21 05:08:00</time>
      </trkpt>
      <trkpt lat="42.03195" lon="2.46143">
        <ele>866.2</ele>
        <time>2022-05-21 05:08:01</time>
      </trkpt>
      <trkpt lat="42.03197" lon="2.46143">
        <ele>866.2</ele>
        <time>2022-05-21 05:08:02</time>
      </trkpt>
      <trkpt lat="42.03201" lon="2.46143">
        <ele>866.4</ele>
        <time>2022-05-21 05:08:03</time>
      </trkpt>
      <trkpt lat="42.03204" lon="2.46143">
        <ele>866.4</ele>
        <time>2022-05-21 05:08:04</time>
      </trkpt>
      <trkpt lat="42.03207" lon="2.46143">
        <ele>866.4</ele>
        <time>2022-05-21 05:08:05</time>
      </trkpt>
      <trkpt lat="42.03209" lon="2.46143">
        <ele>866.4</ele>
        <time>2022-05-21 05:08:06</time>
      </trkpt>
      <trkpt lat="42.03212" lon="2.46144">
        <ele>866.6</ele>
        <time>2022-05-21 05:08:07</time>
      </trkpt>
      <trkpt lat="42.03215" lon="2.46144">
        <ele>866.6</ele>
        <time>2022-05-21 05:08:08</time>
      </trkpt>
      <trkpt lat="42.03217" lon="2.46144">
        <ele>866.6</ele>
        <time>2022-05-21 05:08:09</time>
      </trkpt>
      <trkpt lat="42.0322" lon="2.46144">
        <ele>866.6</ele>
        <time>2022-05-21 05:08:10</time>
      </trkpt>
      <trkpt lat="42.03224" lon="2.46144">
        <ele>866.6</ele>
        <time>2022-05-21 05:08:11</time>
      </trkpt>
      <trkpt lat="42.03226" lon="2.46144">
        <ele>866.6</ele>
        <time>2022-05-21 05:08:12</time>
      </trkpt>
      <trkpt lat="42.03229" lon="2.46144">
        <ele>866.6</ele>
        <time>2022-05-21 05:08:13</time>
      </trkpt>
      <trkpt lat="42.03231" lon="2.46144">
        <ele>866.8</ele>
        <time>2022-05-21 05:08:14</time>
      </trkpt>
      <trkpt lat="42.03234" lon="2.46144">
        <ele>866.8</ele>
        <time>2022-05-21 05:08:15</time>
      </trkpt>
      <trkpt lat="42.03238" lon="2.46144">
        <ele>866.8</ele>
        <time>2022-05-21 05:08:16</time>
      </trkpt>
      <trkpt lat="42.03241" lon="2.46144">
        <ele>866.8</ele>
        <time>2022-05-21 05:08:17</time>
      </trkpt>
      <trkpt lat="42.03243" lon="2.46144">
        <ele>866.8</ele>
        <time>2022-05-21 05:08:18</time>
      </trkpt>
      <trkpt lat="42.03247" lon="2.46143">
        <ele>867</ele>
        <time>2022-05-21 05:08:19</time>
      </trkpt>
      <trkpt lat="42.0325" lon="2.46143">
        <ele>867</ele>
        <time>2022-05-21 05:08:20</time>
      </trkpt>
      <trkpt lat="42.03252" lon="2.46143">
        <ele>867</ele>
        <time>2022-05-21 05:08:21</time>
      </trkpt>
      <trkpt lat="42.03257" lon="2.46143">
        <ele>867</ele>
        <time>2022-05-21 05:08:22</time>
      </trkpt>
      <trkpt lat="42.0326" lon="2.46142">
        <ele>867</ele>
        <time>2022-05-21 05:08:23</time>
      </trkpt>
      <trkpt lat="42.03263" lon="2.46142">
        <ele>867</ele>
        <time>2022-05-21 05:08:24</time>
      </trkpt>
      <trkpt lat="42.03267" lon="2.46141">
        <ele>867</ele>
        <time>2022-05-21 05:08:25</time>
      </trkpt>
      <trkpt lat="42.0327" lon="2.4614">
        <ele>867</ele>
        <time>2022-05-21 05:08:26</time>
      </trkpt>
      <trkpt lat="42.03272" lon="2.46139">
        <ele>867.2</ele>
        <time>2022-05-21 05:08:27</time>
      </trkpt>
      <trkpt lat="42.03277" lon="2.46138">
        <ele>867.2</ele>
        <time>2022-05-21 05:08:28</time>
      </trkpt>
      <trkpt lat="42.03279" lon="2.46136">
        <ele>867.2</ele>
        <time>2022-05-21 05:08:29</time>
      </trkpt>
      <trkpt lat="42.03282" lon="2.46134">
        <ele>867.2</ele>
        <time>2022-05-21 05:08:30</time>
      </trkpt>
      <trkpt lat="42.03286" lon="2.46131">
        <ele>867.2</ele>
        <time>2022-05-21 05:08:31</time>
      </trkpt>
      <trkpt lat="42.03289" lon="2.46128">
        <ele>867.2</ele>
        <time>2022-05-21 05:08:32</time>
      </trkpt>
      <trkpt lat="42.03291" lon="2.46125">
        <ele>867.2</ele>
        <time>2022-05-21 05:08:33</time>
      </trkpt>
      <trkpt lat="42.03294" lon="2.46121">
        <ele>867.2</ele>
        <time>2022-05-21 05:08:34</time>
      </trkpt>
      <trkpt lat="42.03297" lon="2.46117">
        <ele>867.2</ele>
        <time>2022-05-21 05:08:35</time>
      </trkpt>
      <trkpt lat="42.03299" lon="2.46114">
        <ele>867.2</ele>
        <time>2022-05-21 05:08:36</time>
      </trkpt>
      <trkpt lat="42.03302" lon="2.4611">
        <ele>867.2</ele>
        <time>2022-05-21 05:08:37</time>
      </trkpt>
      <trkpt lat="42.03304" lon="2.46106">
        <ele>867.2</ele>
        <time>2022-05-21 05:08:38</time>
      </trkpt>
      <trkpt lat="42.03307" lon="2.46103">
        <ele>867.2</ele>
        <time>2022-05-21 05:08:39</time>
      </trkpt>
      <trkpt lat="42.03312" lon="2.46099">
        <ele>867.2</ele>
        <time>2022-05-21 05:08:40</time>
      </trkpt>
      <trkpt lat="42.03315" lon="2.46097">
        <ele>867.2</ele>
        <time>2022-05-21 05:08:41</time>
      </trkpt>
      <trkpt lat="42.03319" lon="2.46096">
        <ele>867.2</ele>
        <time>2022-05-21 05:08:42</time>
      </trkpt>
      <trkpt lat="42.03323" lon="2.46096">
        <ele>867.2</ele>
        <time>2022-05-21 05:08:43</time>
      </trkpt>
      <trkpt lat="42.03327" lon="2.46096">
        <ele>867.2</ele>
        <time>2022-05-21 05:08:44</time>
      </trkpt>
      <trkpt lat="42.0333" lon="2.46098">
        <ele>867.2</ele>
        <time>2022-05-21 05:08:45</time>
      </trkpt>
      <trkpt lat="42.03334" lon="2.46101">
        <ele>867.4</ele>
        <time>2022-05-21 05:08:46</time>
      </trkpt>
      <trkpt lat="42.03337" lon="2.46105">
        <ele>867.4</ele>
        <time>2022-05-21 05:08:47</time>
      </trkpt>
      <trkpt lat="42.0334" lon="2.46108">
        <ele>867.4</ele>
        <time>2022-05-21 05:08:48</time>
      </trkpt>
      <trkpt lat="42.03341" lon="2.46113">
        <ele>867.6</ele>
        <time>2022-05-21 05:08:49</time>
      </trkpt>
      <trkpt lat="42.03342" lon="2.46118">
        <ele>867.6</ele>
        <time>2022-05-21 05:08:50</time>
      </trkpt>
      <trkpt lat="42.03342" lon="2.46122">
        <ele>867.8</ele>
        <time>2022-05-21 05:08:51</time>
      </trkpt>
      <trkpt lat="42.03341" lon="2.46128">
        <ele>868</ele>
        <time>2022-05-21 05:08:52</time>
      </trkpt>
      <trkpt lat="42.03339" lon="2.46132">
        <ele>868</ele>
        <time>2022-05-21 05:08:53</time>
      </trkpt>
      <trkpt lat="42.03337" lon="2.46135">
        <ele>868.2</ele>
        <time>2022-05-21 05:08:54</time>
      </trkpt>
      <trkpt lat="42.03333" lon="2.46138">
        <ele>868.4</ele>
        <time>2022-05-21 05:08:55</time>
      </trkpt>
      <trkpt lat="42.03331" lon="2.46141">
        <ele>868.6</ele>
        <time>2022-05-21 05:08:56</time>
      </trkpt>
      <trkpt lat="42.03329" lon="2.46142">
        <ele>868.8</ele>
        <time>2022-05-21 05:08:57</time>
      </trkpt>
      <trkpt lat="42.03324" lon="2.46146">
        <ele>868.8</ele>
        <time>2022-05-21 05:08:58</time>
      </trkpt>
      <trkpt lat="42.03321" lon="2.46149">
        <ele>869</ele>
        <time>2022-05-21 05:08:59</time>
      </trkpt>
      <trkpt lat="42.03318" lon="2.46151">
        <ele>869.2</ele>
        <time>2022-05-21 05:09:00</time>
      </trkpt>
      <trkpt lat="42.03314" lon="2.46153">
        <ele>869.4</ele>
        <time>2022-05-21 05:09:01</time>
      </trkpt>
      <trkpt lat="42.03311" lon="2.46156">
        <ele>869.4</ele>
        <time>2022-05-21 05:09:02</time>
      </trkpt>
      <trkpt lat="42.03307" lon="2.46158">
        <ele>869.6</ele>
        <time>2022-05-21 05:09:03</time>
      </trkpt>
      <trkpt lat="42.03304" lon="2.46161">
        <ele>869.8</ele>
        <time>2022-05-21 05:09:04</time>
      </trkpt>
      <trkpt lat="42.03301" lon="2.46164">
        <ele>870</ele>
        <time>2022-05-21 05:09:05</time>
      </trkpt>
      <trkpt lat="42.03297" lon="2.46167">
        <ele>870</ele>
        <time>2022-05-21 05:09:06</time>
      </trkpt>
      <trkpt lat="42.03294" lon="2.4617">
        <ele>870.2</ele>
        <time>2022-05-21 05:09:07</time>
      </trkpt>
      <trkpt lat="42.03291" lon="2.46171">
        <ele>870.4</ele>
        <time>2022-05-21 05:09:08</time>
      </trkpt>
      <trkpt lat="42.03289" lon="2.46173">
        <ele>870.4</ele>
        <time>2022-05-21 05:09:09</time>
      </trkpt>
      <trkpt lat="42.03284" lon="2.46176">
        <ele>870.6</ele>
        <time>2022-05-21 05:09:10</time>
      </trkpt>
      <trkpt lat="42.03281" lon="2.46178">
        <ele>870.6</ele>
        <time>2022-05-21 05:09:11</time>
      </trkpt>
      <trkpt lat="42.03278" lon="2.4618">
        <ele>870.8</ele>
        <time>2022-05-21 05:09:12</time>
      </trkpt>
      <trkpt lat="42.03273" lon="2.46183">
        <ele>871</ele>
        <time>2022-05-21 05:09:13</time>
      </trkpt>
      <trkpt lat="42.0327" lon="2.46185">
        <ele>871</ele>
        <time>2022-05-21 05:09:14</time>
      </trkpt>
      <trkpt lat="42.03268" lon="2.46186">
        <ele>871.2</ele>
        <time>2022-05-21 05:09:15</time>
      </trkpt>
      <trkpt lat="42.03262" lon="2.46189">
        <ele>871.4</ele>
        <time>2022-05-21 05:09:16</time>
      </trkpt>
      <trkpt lat="42.03259" lon="2.46191">
        <ele>871.4</ele>
        <time>2022-05-21 05:09:17</time>
      </trkpt>
      <trkpt lat="42.03256" lon="2.46193">
        <ele>871.6</ele>
        <time>2022-05-21 05:09:18</time>
      </trkpt>
      <trkpt lat="42.03252" lon="2.46195">
        <ele>871.8</ele>
        <time>2022-05-21 05:09:19</time>
      </trkpt>
      <trkpt lat="42.03249" lon="2.46197">
        <ele>871.8</ele>
        <time>2022-05-21 05:09:20</time>
      </trkpt>
      <trkpt lat="42.03246" lon="2.462">
        <ele>872</ele>
        <time>2022-05-21 05:09:21</time>
      </trkpt>
      <trkpt lat="42.03242" lon="2.46203">
        <ele>872.2</ele>
        <time>2022-05-21 05:09:22</time>
      </trkpt>
      <trkpt lat="42.03239" lon="2.46206">
        <ele>872.4</ele>
        <time>2022-05-21 05:09:23</time>
      </trkpt>
      <trkpt lat="42.03236" lon="2.46208">
        <ele>872.6</ele>
        <time>2022-05-21 05:09:24</time>
      </trkpt>
      <trkpt lat="42.03233" lon="2.46212">
        <ele>872.6</ele>
        <time>2022-05-21 05:09:25</time>
      </trkpt>
      <trkpt lat="42.0323" lon="2.46215">
        <ele>872.8</ele>
        <time>2022-05-21 05:09:26</time>
      </trkpt>
      <trkpt lat="42.03227" lon="2.46219">
        <ele>873</ele>
        <time>2022-05-21 05:09:27</time>
      </trkpt>
      <trkpt lat="42.03224" lon="2.46222">
        <ele>873.2</ele>
        <time>2022-05-21 05:09:28</time>
      </trkpt>
      <trkpt lat="42.03222" lon="2.46226">
        <ele>873.2</ele>
        <time>2022-05-21 05:09:29</time>
      </trkpt>
      <trkpt lat="42.0322" lon="2.4623">
        <ele>873.4</ele>
        <time>2022-05-21 05:09:30</time>
      </trkpt>
      <trkpt lat="42.03217" lon="2.46235">
        <ele>873.4</ele>
        <time>2022-05-21 05:09:31</time>
      </trkpt>
      <trkpt lat="42.03215" lon="2.4624">
        <ele>873.6</ele>
        <time>2022-05-21 05:09:32</time>
      </trkpt>
      <trkpt lat="42.03213" lon="2.46245">
        <ele>873.6</ele>
        <time>2022-05-21 05:09:33</time>
      </trkpt>
      <trkpt lat="42.03211" lon="2.4625">
        <ele>873.8</ele>
        <time>2022-05-21 05:09:34</time>
      </trkpt>
      <trkpt lat="42.03209" lon="2.46254">
        <ele>873.8</ele>
        <time>2022-05-21 05:09:35</time>
      </trkpt>
      <trkpt lat="42.03207" lon="2.46259">
        <ele>874</ele>
        <time>2022-05-21 05:09:36</time>
      </trkpt>
      <trkpt lat="42.03204" lon="2.46264">
        <ele>874</ele>
        <time>2022-05-21 05:09:37</time>
      </trkpt>
      <trkpt lat="42.03202" lon="2.46268">
        <ele>874.2</ele>
        <time>2022-05-21 05:09:38</time>
      </trkpt>
      <trkpt lat="42.03201" lon="2.46273">
        <ele>874.4</ele>
        <time>2022-05-21 05:09:39</time>
      </trkpt>
      <trkpt lat="42.03199" lon="2.46277">
        <ele>874.4</ele>
        <time>2022-05-21 05:09:40</time>
      </trkpt>
      <trkpt lat="42.03196" lon="2.46282">
        <ele>874.6</ele>
        <time>2022-05-21 05:09:41</time>
      </trkpt>
      <trkpt lat="42.03194" lon="2.46287">
        <ele>874.8</ele>
        <time>2022-05-21 05:09:42</time>
      </trkpt>
      <trkpt lat="42.03192" lon="2.46292">
        <ele>875</ele>
        <time>2022-05-21 05:09:43</time>
      </trkpt>
      <trkpt lat="42.0319" lon="2.46297">
        <ele>875</ele>
        <time>2022-05-21 05:09:44</time>
      </trkpt>
      <trkpt lat="42.03188" lon="2.46302">
        <ele>875.2</ele>
        <time>2022-05-21 05:09:45</time>
      </trkpt>
      <trkpt lat="42.03186" lon="2.46306">
        <ele>875.4</ele>
        <time>2022-05-21 05:09:46</time>
      </trkpt>
      <trkpt lat="42.03184" lon="2.46311">
        <ele>875.6</ele>
        <time>2022-05-21 05:09:47</time>
      </trkpt>
      <trkpt lat="42.03182" lon="2.46316">
        <ele>875.6</ele>
        <time>2022-05-21 05:09:48</time>
      </trkpt>
      <trkpt lat="42.0318" lon="2.46321">
        <ele>875.8</ele>
        <time>2022-05-21 05:09:49</time>
      </trkpt>
      <trkpt lat="42.03177" lon="2.46325">
        <ele>876</ele>
        <time>2022-05-21 05:09:50</time>
      </trkpt>
      <trkpt lat="42.03175" lon="2.4633">
        <ele>876.2</ele>
        <time>2022-05-21 05:09:51</time>
      </trkpt>
      <trkpt lat="42.03173" lon="2.46335">
        <ele>876.2</ele>
        <time>2022-05-21 05:09:52</time>
      </trkpt>
      <trkpt lat="42.03171" lon="2.46339">
        <ele>876.4</ele>
        <time>2022-05-21 05:09:53</time>
      </trkpt>
      <trkpt lat="42.03169" lon="2.46344">
        <ele>876.4</ele>
        <time>2022-05-21 05:09:54</time>
      </trkpt>
      <trkpt lat="42.03167" lon="2.46349">
        <ele>876.6</ele>
        <time>2022-05-21 05:09:55</time>
      </trkpt>
      <trkpt lat="42.03165" lon="2.46354">
        <ele>876.8</ele>
        <time>2022-05-21 05:09:56</time>
      </trkpt>
      <trkpt lat="42.03163" lon="2.46358">
        <ele>877</ele>
        <time>2022-05-21 05:09:57</time>
      </trkpt>
      <trkpt lat="42.03161" lon="2.46363">
        <ele>877.2</ele>
        <time>2022-05-21 05:09:58</time>
      </trkpt>
      <trkpt lat="42.03159" lon="2.46368">
        <ele>877.2</ele>
        <time>2022-05-21 05:09:59</time>
      </trkpt>
      <trkpt lat="42.03157" lon="2.46372">
        <ele>877.4</ele>
        <time>2022-05-21 05:10:00</time>
      </trkpt>
      <trkpt lat="42.03155" lon="2.46377">
        <ele>877.4</ele>
        <time>2022-05-21 05:10:01</time>
      </trkpt>
      <trkpt lat="42.03153" lon="2.46382">
        <ele>877.6</ele>
        <time>2022-05-21 05:10:02</time>
      </trkpt>
      <trkpt lat="42.03151" lon="2.46386">
        <ele>877.6</ele>
        <time>2022-05-21 05:10:03</time>
      </trkpt>
      <trkpt lat="42.03149" lon="2.46391">
        <ele>877.8</ele>
        <time>2022-05-21 05:10:04</time>
      </trkpt>
      <trkpt lat="42.03147" lon="2.46395">
        <ele>878</ele>
        <time>2022-05-21 05:10:05</time>
      </trkpt>
      <trkpt lat="42.03145" lon="2.46399">
        <ele>878</ele>
        <time>2022-05-21 05:10:06</time>
      </trkpt>
      <trkpt lat="42.03143" lon="2.46403">
        <ele>878.2</ele>
        <time>2022-05-21 05:10:07</time>
      </trkpt>
      <trkpt lat="42.03141" lon="2.46408">
        <ele>878.2</ele>
        <time>2022-05-21 05:10:08</time>
      </trkpt>
      <trkpt lat="42.03139" lon="2.46412">
        <ele>878.4</ele>
        <time>2022-05-21 05:10:09</time>
      </trkpt>
      <trkpt lat="42.03137" lon="2.46417">
        <ele>878.6</ele>
        <time>2022-05-21 05:10:10</time>
      </trkpt>
      <trkpt lat="42.03135" lon="2.46421">
        <ele>878.8</ele>
        <time>2022-05-21 05:10:11</time>
      </trkpt>
      <trkpt lat="42.03134" lon="2.46426">
        <ele>878.8</ele>
        <time>2022-05-21 05:10:12</time>
      </trkpt>
      <trkpt lat="42.03132" lon="2.4643">
        <ele>879</ele>
        <time>2022-05-21 05:10:13</time>
      </trkpt>
      <trkpt lat="42.03131" lon="2.46435">
        <ele>879</ele>
        <time>2022-05-21 05:10:14</time>
      </trkpt>
      <trkpt lat="42.0313" lon="2.4644">
        <ele>879.2</ele>
        <time>2022-05-21 05:10:15</time>
      </trkpt>
      <trkpt lat="42.03129" lon="2.46444">
        <ele>879.4</ele>
        <time>2022-05-21 05:10:16</time>
      </trkpt>
      <trkpt lat="42.03129" lon="2.46449">
        <ele>879.4</ele>
        <time>2022-05-21 05:10:17</time>
      </trkpt>
      <trkpt lat="42.0313" lon="2.46455">
        <ele>879.6</ele>
        <time>2022-05-21 05:10:18</time>
      </trkpt>
      <trkpt lat="42.0313" lon="2.4646">
        <ele>879.6</ele>
        <time>2022-05-21 05:10:19</time>
      </trkpt>
      <trkpt lat="42.03132" lon="2.46465">
        <ele>879.8</ele>
        <time>2022-05-21 05:10:20</time>
      </trkpt>
      <trkpt lat="42.03133" lon="2.46469">
        <ele>879.8</ele>
        <time>2022-05-21 05:10:21</time>
      </trkpt>
      <trkpt lat="42.03135" lon="2.46474">
        <ele>880</ele>
        <time>2022-05-21 05:10:22</time>
      </trkpt>
      <trkpt lat="42.03137" lon="2.46478">
        <ele>880.2</ele>
        <time>2022-05-21 05:10:23</time>
      </trkpt>
      <trkpt lat="42.03139" lon="2.46483">
        <ele>880.2</ele>
        <time>2022-05-21 05:10:24</time>
      </trkpt>
      <trkpt lat="42.03141" lon="2.46487">
        <ele>880.4</ele>
        <time>2022-05-21 05:10:25</time>
      </trkpt>
      <trkpt lat="42.03143" lon="2.46491">
        <ele>880.6</ele>
        <time>2022-05-21 05:10:26</time>
      </trkpt>
      <trkpt lat="42.03144" lon="2.46496">
        <ele>880.8</ele>
        <time>2022-05-21 05:10:27</time>
      </trkpt>
      <trkpt lat="42.03146" lon="2.465">
        <ele>881</ele>
        <time>2022-05-21 05:10:28</time>
      </trkpt>
      <trkpt lat="42.03148" lon="2.46504">
        <ele>881</ele>
        <time>2022-05-21 05:10:29</time>
      </trkpt>
      <trkpt lat="42.0315" lon="2.46509">
        <ele>881.2</ele>
        <time>2022-05-21 05:10:30</time>
      </trkpt>
      <trkpt lat="42.03152" lon="2.46512">
        <ele>881.4</ele>
        <time>2022-05-21 05:10:31</time>
      </trkpt>
      <trkpt lat="42.03154" lon="2.46516">
        <ele>881.4</ele>
        <time>2022-05-21 05:10:32</time>
      </trkpt>
      <trkpt lat="42.03156" lon="2.46519">
        <ele>881.6</ele>
        <time>2022-05-21 05:10:33</time>
      </trkpt>
      <trkpt lat="42.03159" lon="2.46521">
        <ele>881.8</ele>
        <time>2022-05-21 05:10:34</time>
      </trkpt>
      <trkpt lat="42.03162" lon="2.46523">
        <ele>881.8</ele>
        <time>2022-05-21 05:10:35</time>
      </trkpt>
      <trkpt lat="42.03164" lon="2.46526">
        <ele>882</ele>
        <time>2022-05-21 05:10:36</time>
      </trkpt>
      <trkpt lat="42.03167" lon="2.46527">
        <ele>882.2</ele>
        <time>2022-05-21 05:10:37</time>
      </trkpt>
      <trkpt lat="42.0317" lon="2.46528">
        <ele>882.2</ele>
        <time>2022-05-21 05:10:38</time>
      </trkpt>
      <trkpt lat="42.03173" lon="2.46529">
        <ele>882.4</ele>
        <time>2022-05-21 05:10:39</time>
      </trkpt>
      <trkpt lat="42.03177" lon="2.4653">
        <ele>882.4</ele>
        <time>2022-05-21 05:10:40</time>
      </trkpt>
      <trkpt lat="42.03181" lon="2.46529">
        <ele>882.6</ele>
        <time>2022-05-21 05:10:41</time>
      </trkpt>
      <trkpt lat="42.03185" lon="2.46529">
        <ele>882.6</ele>
        <time>2022-05-21 05:10:42</time>
      </trkpt>
      <trkpt lat="42.03189" lon="2.46529">
        <ele>882.8</ele>
        <time>2022-05-21 05:10:43</time>
      </trkpt>
      <trkpt lat="42.03193" lon="2.46528">
        <ele>882.8</ele>
        <time>2022-05-21 05:10:44</time>
      </trkpt>
      <trkpt lat="42.03197" lon="2.46528">
        <ele>882.8</ele>
        <time>2022-05-21 05:10:45</time>
      </trkpt>
      <trkpt lat="42.03201" lon="2.46527">
        <ele>883</ele>
        <time>2022-05-21 05:10:46</time>
      </trkpt>
      <trkpt lat="42.03205" lon="2.46526">
        <ele>883</ele>
        <time>2022-05-21 05:10:47</time>
      </trkpt>
      <trkpt lat="42.0321" lon="2.46526">
        <ele>883</ele>
        <time>2022-05-21 05:10:48</time>
      </trkpt>
      <trkpt lat="42.03214" lon="2.46525">
        <ele>883</ele>
        <time>2022-05-21 05:10:49</time>
      </trkpt>
      <trkpt lat="42.03218" lon="2.46524">
        <ele>883</ele>
        <time>2022-05-21 05:10:50</time>
      </trkpt>
      <trkpt lat="42.03222" lon="2.46522">
        <ele>883</ele>
        <time>2022-05-21 05:10:51</time>
      </trkpt>
      <trkpt lat="42.03227" lon="2.46521">
        <ele>883.2</ele>
        <time>2022-05-21 05:10:52</time>
      </trkpt>
      <trkpt lat="42.03231" lon="2.4652">
        <ele>883.2</ele>
        <time>2022-05-21 05:10:53</time>
      </trkpt>
      <trkpt lat="42.03236" lon="2.4652">
        <ele>883.2</ele>
        <time>2022-05-21 05:10:54</time>
      </trkpt>
      <trkpt lat="42.0324" lon="2.46519">
        <ele>883.2</ele>
        <time>2022-05-21 05:10:55</time>
      </trkpt>
      <trkpt lat="42.03244" lon="2.46518">
        <ele>883.2</ele>
        <time>2022-05-21 05:10:56</time>
      </trkpt>
      <trkpt lat="42.03249" lon="2.46517">
        <ele>883.2</ele>
        <time>2022-05-21 05:10:57</time>
      </trkpt>
      <trkpt lat="42.03253" lon="2.46517">
        <ele>883.2</ele>
        <time>2022-05-21 05:10:58</time>
      </trkpt>
      <trkpt lat="42.03258" lon="2.46516">
        <ele>883.4</ele>
        <time>2022-05-21 05:10:59</time>
      </trkpt>
      <trkpt lat="42.03262" lon="2.46515">
        <ele>883.4</ele>
        <time>2022-05-21 05:11:00</time>
      </trkpt>
      <trkpt lat="42.03267" lon="2.46515">
        <ele>883.4</ele>
        <time>2022-05-21 05:11:01</time>
      </trkpt>
      <trkpt lat="42.03272" lon="2.46514">
        <ele>883.4</ele>
        <time>2022-05-21 05:11:02</time>
      </trkpt>
      <trkpt lat="42.03277" lon="2.46514">
        <ele>883.4</ele>
        <time>2022-05-21 05:11:03</time>
      </trkpt>
      <trkpt lat="42.03282" lon="2.46514">
        <ele>883.6</ele>
        <time>2022-05-21 05:11:04</time>
      </trkpt>
      <trkpt lat="42.03286" lon="2.46514">
        <ele>883.6</ele>
        <time>2022-05-21 05:11:05</time>
      </trkpt>
      <trkpt lat="42.03291" lon="2.46515">
        <ele>883.6</ele>
        <time>2022-05-21 05:11:06</time>
      </trkpt>
      <trkpt lat="42.03296" lon="2.46516">
        <ele>883.6</ele>
        <time>2022-05-21 05:11:07</time>
      </trkpt>
      <trkpt lat="42.033" lon="2.46518">
        <ele>883.8</ele>
        <time>2022-05-21 05:11:08</time>
      </trkpt>
      <trkpt lat="42.03305" lon="2.46521">
        <ele>883.8</ele>
        <time>2022-05-21 05:11:09</time>
      </trkpt>
      <trkpt lat="42.03309" lon="2.46523">
        <ele>883.8</ele>
        <time>2022-05-21 05:11:10</time>
      </trkpt>
      <trkpt lat="42.03313" lon="2.46526">
        <ele>884</ele>
        <time>2022-05-21 05:11:11</time>
      </trkpt>
      <trkpt lat="42.03316" lon="2.46529">
        <ele>884</ele>
        <time>2022-05-21 05:11:12</time>
      </trkpt>
      <trkpt lat="42.0332" lon="2.46533">
        <ele>884.2</ele>
        <time>2022-05-21 05:11:13</time>
      </trkpt>
      <trkpt lat="42.03323" lon="2.46537">
        <ele>884.4</ele>
        <time>2022-05-21 05:11:14</time>
      </trkpt>
      <trkpt lat="42.03326" lon="2.46542">
        <ele>884.4</ele>
        <time>2022-05-21 05:11:15</time>
      </trkpt>
      <trkpt lat="42.03328" lon="2.46546">
        <ele>884.6</ele>
        <time>2022-05-21 05:11:16</time>
      </trkpt>
      <trkpt lat="42.03331" lon="2.46551">
        <ele>884.6</ele>
        <time>2022-05-21 05:11:17</time>
      </trkpt>
      <trkpt lat="42.03333" lon="2.46555">
        <ele>884.8</ele>
        <time>2022-05-21 05:11:18</time>
      </trkpt>
      <trkpt lat="42.03335" lon="2.4656">
        <ele>885</ele>
        <time>2022-05-21 05:11:19</time>
      </trkpt>
      <trkpt lat="42.03337" lon="2.46564">
        <ele>885.2</ele>
        <time>2022-05-21 05:11:20</time>
      </trkpt>
      <trkpt lat="42.03339" lon="2.46568">
        <ele>885.4</ele>
        <time>2022-05-21 05:11:21</time>
      </trkpt>
      <trkpt lat="42.03341" lon="2.46572">
        <ele>885.6</ele>
        <time>2022-05-21 05:11:22</time>
      </trkpt>
      <trkpt lat="42.03343" lon="2.46576">
        <ele>885.8</ele>
        <time>2022-05-21 05:11:23</time>
      </trkpt>
      <trkpt lat="42.03345" lon="2.4658">
        <ele>886</ele>
        <time>2022-05-21 05:11:24</time>
      </trkpt>
      <trkpt lat="42.03347" lon="2.46584">
        <ele>886.2</ele>
        <time>2022-05-21 05:11:25</time>
      </trkpt>
      <trkpt lat="42.0335" lon="2.46587">
        <ele>886.4</ele>
        <time>2022-05-21 05:11:26</time>
      </trkpt>
      <trkpt lat="42.03352" lon="2.4659">
        <ele>886.6</ele>
        <time>2022-05-21 05:11:27</time>
      </trkpt>
      <trkpt lat="42.03355" lon="2.46593">
        <ele>886.8</ele>
        <time>2022-05-21 05:11:28</time>
      </trkpt>
      <trkpt lat="42.03358" lon="2.46596">
        <ele>887</ele>
        <time>2022-05-21 05:11:29</time>
      </trkpt>
      <trkpt lat="42.03361" lon="2.46599">
        <ele>887.2</ele>
        <time>2022-05-21 05:11:30</time>
      </trkpt>
      <trkpt lat="42.03364" lon="2.46602">
        <ele>887.4</ele>
        <time>2022-05-21 05:11:31</time>
      </trkpt>
      <trkpt lat="42.03367" lon="2.46604">
        <ele>887.6</ele>
        <time>2022-05-21 05:11:32</time>
      </trkpt>
      <trkpt lat="42.0337" lon="2.46607">
        <ele>887.8</ele>
        <time>2022-05-21 05:11:33</time>
      </trkpt>
      <trkpt lat="42.03373" lon="2.4661">
        <ele>888</ele>
        <time>2022-05-21 05:11:34</time>
      </trkpt>
      <trkpt lat="42.03376" lon="2.46613">
        <ele>888.2</ele>
        <time>2022-05-21 05:11:35</time>
      </trkpt>
      <trkpt lat="42.03379" lon="2.46615">
        <ele>888.4</ele>
        <time>2022-05-21 05:11:36</time>
      </trkpt>
      <trkpt lat="42.03382" lon="2.46618">
        <ele>888.6</ele>
        <time>2022-05-21 05:11:37</time>
      </trkpt>
      <trkpt lat="42.03385" lon="2.46621">
        <ele>888.6</ele>
        <time>2022-05-21 05:11:38</time>
      </trkpt>
      <trkpt lat="42.03388" lon="2.46624">
        <ele>888.8</ele>
        <time>2022-05-21 05:11:39</time>
      </trkpt>
      <trkpt lat="42.03391" lon="2.46626">
        <ele>889</ele>
        <time>2022-05-21 05:11:40</time>
      </trkpt>
      <trkpt lat="42.03394" lon="2.46629">
        <ele>889.2</ele>
        <time>2022-05-21 05:11:41</time>
      </trkpt>
      <trkpt lat="42.03397" lon="2.46631">
        <ele>889.4</ele>
        <time>2022-05-21 05:11:42</time>
      </trkpt>
      <trkpt lat="42.03399" lon="2.46634">
        <ele>889.6</ele>
        <time>2022-05-21 05:11:43</time>
      </trkpt>
      <trkpt lat="42.03402" lon="2.46636">
        <ele>889.8</ele>
        <time>2022-05-21 05:11:44</time>
      </trkpt>
      <trkpt lat="42.03405" lon="2.46638">
        <ele>890</ele>
        <time>2022-05-21 05:11:45</time>
      </trkpt>
      <trkpt lat="42.03407" lon="2.46641">
        <ele>890.2</ele>
        <time>2022-05-21 05:11:46</time>
      </trkpt>
      <trkpt lat="42.0341" lon="2.46643">
        <ele>890.4</ele>
        <time>2022-05-21 05:11:47</time>
      </trkpt>
      <trkpt lat="42.03413" lon="2.46646">
        <ele>890.6</ele>
        <time>2022-05-21 05:11:48</time>
      </trkpt>
      <trkpt lat="42.03415" lon="2.46648">
        <ele>890.8</ele>
        <time>2022-05-21 05:11:49</time>
      </trkpt>
      <trkpt lat="42.03418" lon="2.46651">
        <ele>891</ele>
        <time>2022-05-21 05:11:50</time>
      </trkpt>
      <trkpt lat="42.03421" lon="2.46653">
        <ele>891</ele>
        <time>2022-05-21 05:11:51</time>
      </trkpt>
      <trkpt lat="42.03423" lon="2.46655">
        <ele>891.2</ele>
        <time>2022-05-21 05:11:52</time>
      </trkpt>
      <trkpt lat="42.03426" lon="2.46658">
        <ele>891.4</ele>
        <time>2022-05-21 05:11:53</time>
      </trkpt>
      <trkpt lat="42.03429" lon="2.4666">
        <ele>891.6</ele>
        <time>2022-05-21 05:11:54</time>
      </trkpt>
      <trkpt lat="42.03431" lon="2.46662">
        <ele>891.8</ele>
        <time>2022-05-21 05:11:55</time>
      </trkpt>
      <trkpt lat="42.03433" lon="2.46664">
        <ele>892</ele>
        <time>2022-05-21 05:11:56</time>
      </trkpt>
      <trkpt lat="42.03436" lon="2.46667">
        <ele>892.2</ele>
        <time>2022-05-21 05:11:57</time>
      </trkpt>
      <trkpt lat="42.03438" lon="2.4667">
        <ele>892.4</ele>
        <time>2022-05-21 05:11:58</time>
      </trkpt>
      <trkpt lat="42.03441" lon="2.46672">
        <ele>892.6</ele>
        <time>2022-05-21 05:11:59</time>
      </trkpt>
      <trkpt lat="42.03444" lon="2.46674">
        <ele>892.8</ele>
        <time>2022-05-21 05:12:00</time>
      </trkpt>
      <trkpt lat="42.03446" lon="2.46677">
        <ele>893</ele>
        <time>2022-05-21 05:12:01</time>
      </trkpt>
      <trkpt lat="42.03448" lon="2.46679">
        <ele>893.2</ele>
        <time>2022-05-21 05:12:02</time>
      </trkpt>
      <trkpt lat="42.03451" lon="2.46681">
        <ele>893.4</ele>
        <time>2022-05-21 05:12:03</time>
      </trkpt>
      <trkpt lat="42.03453" lon="2.46683">
        <ele>893.6</ele>
        <time>2022-05-21 05:12:04</time>
      </trkpt>
      <trkpt lat="42.03455" lon="2.46685">
        <ele>893.8</ele>
        <time>2022-05-21 05:12:05</time>
      </trkpt>
      <trkpt lat="42.03458" lon="2.46688">
        <ele>894</ele>
        <time>2022-05-21 05:12:06</time>
      </trkpt>
      <trkpt lat="42.0346" lon="2.4669">
        <ele>894.2</ele>
        <time>2022-05-21 05:12:07</time>
      </trkpt>
      <trkpt lat="42.03463" lon="2.46692">
        <ele>894.4</ele>
        <time>2022-05-21 05:12:08</time>
      </trkpt>
      <trkpt lat="42.03466" lon="2.46694">
        <ele>894.4</ele>
        <time>2022-05-21 05:12:09</time>
      </trkpt>
      <trkpt lat="42.03469" lon="2.46696">
        <ele>894.6</ele>
        <time>2022-05-21 05:12:10</time>
      </trkpt>
      <trkpt lat="42.03472" lon="2.46698">
        <ele>894.8</ele>
        <time>2022-05-21 05:12:11</time>
      </trkpt>
      <trkpt lat="42.03475" lon="2.46699">
        <ele>895</ele>
        <time>2022-05-21 05:12:12</time>
      </trkpt>
      <trkpt lat="42.03478" lon="2.467">
        <ele>895.2</ele>
        <time>2022-05-21 05:12:13</time>
      </trkpt>
      <trkpt lat="42.03481" lon="2.46701">
        <ele>895.4</ele>
        <time>2022-05-21 05:12:14</time>
      </trkpt>
      <trkpt lat="42.03484" lon="2.46701">
        <ele>895.4</ele>
        <time>2022-05-21 05:12:15</time>
      </trkpt>
      <trkpt lat="42.03488" lon="2.46701">
        <ele>895.6</ele>
        <time>2022-05-21 05:12:16</time>
      </trkpt>
      <trkpt lat="42.03491" lon="2.467">
        <ele>895.6</ele>
        <time>2022-05-21 05:12:17</time>
      </trkpt>
      <trkpt lat="42.03495" lon="2.46699">
        <ele>895.6</ele>
        <time>2022-05-21 05:12:18</time>
      </trkpt>
      <trkpt lat="42.03498" lon="2.46698">
        <ele>895.8</ele>
        <time>2022-05-21 05:12:19</time>
      </trkpt>
      <trkpt lat="42.03502" lon="2.46696">
        <ele>896</ele>
        <time>2022-05-21 05:12:20</time>
      </trkpt>
      <trkpt lat="42.03506" lon="2.46694">
        <ele>896</ele>
        <time>2022-05-21 05:12:21</time>
      </trkpt>
      <trkpt lat="42.03509" lon="2.46692">
        <ele>896.2</ele>
        <time>2022-05-21 05:12:22</time>
      </trkpt>
      <trkpt lat="42.03513" lon="2.4669">
        <ele>896.2</ele>
        <time>2022-05-21 05:12:23</time>
      </trkpt>
      <trkpt lat="42.03516" lon="2.46687">
        <ele>896.4</ele>
        <time>2022-05-21 05:12:24</time>
      </trkpt>
      <trkpt lat="42.03519" lon="2.46684">
        <ele>896.4</ele>
        <time>2022-05-21 05:12:25</time>
      </trkpt>
      <trkpt lat="42.03523" lon="2.46681">
        <ele>896.6</ele>
        <time>2022-05-21 05:12:26</time>
      </trkpt>
      <trkpt lat="42.03526" lon="2.46678">
        <ele>896.6</ele>
        <time>2022-05-21 05:12:27</time>
      </trkpt>
      <trkpt lat="42.0353" lon="2.46676">
        <ele>896.8</ele>
        <time>2022-05-21 05:12:28</time>
      </trkpt>
      <trkpt lat="42.03533" lon="2.46673">
        <ele>896.8</ele>
        <time>2022-05-21 05:12:29</time>
      </trkpt>
      <trkpt lat="42.03537" lon="2.4667">
        <ele>897</ele>
        <time>2022-05-21 05:12:30</time>
      </trkpt>
      <trkpt lat="42.0354" lon="2.46667">
        <ele>897</ele>
        <time>2022-05-21 05:12:31</time>
      </trkpt>
      <trkpt lat="42.03544" lon="2.46664">
        <ele>897.2</ele>
        <time>2022-05-21 05:12:32</time>
      </trkpt>
      <trkpt lat="42.03547" lon="2.46662">
        <ele>897.4</ele>
        <time>2022-05-21 05:12:33</time>
      </trkpt>
      <trkpt lat="42.03551" lon="2.46659">
        <ele>897.4</ele>
        <time>2022-05-21 05:12:34</time>
      </trkpt>
      <trkpt lat="42.03554" lon="2.46656">
        <ele>897.6</ele>
        <time>2022-05-21 05:12:35</time>
      </trkpt>
      <trkpt lat="42.03558" lon="2.46653">
        <ele>897.6</ele>
        <time>2022-05-21 05:12:36</time>
      </trkpt>
      <trkpt lat="42.03561" lon="2.46651">
        <ele>897.8</ele>
        <time>2022-05-21 05:12:37</time>
      </trkpt>
      <trkpt lat="42.03565" lon="2.46649">
        <ele>897.8</ele>
        <time>2022-05-21 05:12:38</time>
      </trkpt>
      <trkpt lat="42.03569" lon="2.46647">
        <ele>898</ele>
        <time>2022-05-21 05:12:39</time>
      </trkpt>
      <trkpt lat="42.03573" lon="2.46645">
        <ele>898.2</ele>
        <time>2022-05-21 05:12:40</time>
      </trkpt>
      <trkpt lat="42.03576" lon="2.46643">
        <ele>898.2</ele>
        <time>2022-05-21 05:12:41</time>
      </trkpt>
      <trkpt lat="42.0358" lon="2.46641">
        <ele>898.4</ele>
        <time>2022-05-21 05:12:42</time>
      </trkpt>
      <trkpt lat="42.03584" lon="2.4664">
        <ele>898.6</ele>
        <time>2022-05-21 05:12:43</time>
      </trkpt>
      <trkpt lat="42.03588" lon="2.4664">
        <ele>898.6</ele>
        <time>2022-05-21 05:12:44</time>
      </trkpt>
      <trkpt lat="42.03592" lon="2.4664">
        <ele>898.8</ele>
        <time>2022-05-21 05:12:45</time>
      </trkpt>
      <trkpt lat="42.03596" lon="2.4664">
        <ele>899</ele>
        <time>2022-05-21 05:12:46</time>
      </trkpt>
      <trkpt lat="42.036" lon="2.4664">
        <ele>899</ele>
        <time>2022-05-21 05:12:47</time>
      </trkpt>
      <trkpt lat="42.03603" lon="2.4664">
        <ele>899.2</ele>
        <time>2022-05-21 05:12:48</time>
      </trkpt>
      <trkpt lat="42.03608" lon="2.4664">
        <ele>899.4</ele>
        <time>2022-05-21 05:12:49</time>
      </trkpt>
      <trkpt lat="42.03611" lon="2.46639">
        <ele>899.4</ele>
        <time>2022-05-21 05:12:50</time>
      </trkpt>
      <trkpt lat="42.03615" lon="2.46639">
        <ele>899.6</ele>
        <time>2022-05-21 05:12:51</time>
      </trkpt>
      <trkpt lat="42.03619" lon="2.46639">
        <ele>899.8</ele>
        <time>2022-05-21 05:12:52</time>
      </trkpt>
      <trkpt lat="42.03623" lon="2.46639">
        <ele>900</ele>
        <time>2022-05-21 05:12:53</time>
      </trkpt>
      <trkpt lat="42.03627" lon="2.46639">
        <ele>900</ele>
        <time>2022-05-21 05:12:54</time>
      </trkpt>
      <trkpt lat="42.0363" lon="2.46639">
        <ele>900.2</ele>
        <time>2022-05-21 05:12:55</time>
      </trkpt>
      <trkpt lat="42.03634" lon="2.46639">
        <ele>900.4</ele>
        <time>2022-05-21 05:12:56</time>
      </trkpt>
      <trkpt lat="42.03638" lon="2.46639">
        <ele>900.6</ele>
        <time>2022-05-21 05:12:57</time>
      </trkpt>
      <trkpt lat="42.03642" lon="2.4664">
        <ele>900.6</ele>
        <time>2022-05-21 05:12:58</time>
      </trkpt>
      <trkpt lat="42.03646" lon="2.4664">
        <ele>900.8</ele>
        <time>2022-05-21 05:12:59</time>
      </trkpt>
      <trkpt lat="42.0365" lon="2.4664">
        <ele>901</ele>
        <time>2022-05-21 05:13:00</time>
      </trkpt>
      <trkpt lat="42.03654" lon="2.4664">
        <ele>901</ele>
        <time>2022-05-21 05:13:01</time>
      </trkpt>
      <trkpt lat="42.03658" lon="2.4664">
        <ele>901.2</ele>
        <time>2022-05-21 05:13:02</time>
      </trkpt>
      <trkpt lat="42.03661" lon="2.4664">
        <ele>901.4</ele>
        <time>2022-05-21 05:13:03</time>
      </trkpt>
      <trkpt lat="42.03665" lon="2.46641">
        <ele>901.6</ele>
        <time>2022-05-21 05:13:04</time>
      </trkpt>
      <trkpt lat="42.03669" lon="2.46641">
        <ele>901.8</ele>
        <time>2022-05-21 05:13:05</time>
      </trkpt>
      <trkpt lat="42.03673" lon="2.46641">
        <ele>901.8</ele>
        <time>2022-05-21 05:13:06</time>
      </trkpt>
      <trkpt lat="42.03677" lon="2.46641">
        <ele>902</ele>
        <time>2022-05-21 05:13:07</time>
      </trkpt>
      <trkpt lat="42.03681" lon="2.46641">
        <ele>902.2</ele>
        <time>2022-05-21 05:13:08</time>
      </trkpt>
      <trkpt lat="42.03685" lon="2.46641">
        <ele>902.4</ele>
        <time>2022-05-21 05:13:09</time>
      </trkpt>
      <trkpt lat="42.03689" lon="2.46641">
        <ele>902.4</ele>
        <time>2022-05-21 05:13:10</time>
      </trkpt>
      <trkpt lat="42.03693" lon="2.46641">
        <ele>902.6</ele>
        <time>2022-05-21 05:13:11</time>
      </trkpt>
      <trkpt lat="42.03697" lon="2.46641">
        <ele>902.6</ele>
        <time>2022-05-21 05:13:12</time>
      </trkpt>
      <trkpt lat="42.03701" lon="2.46641">
        <ele>902.8</ele>
        <time>2022-05-21 05:13:13</time>
      </trkpt>
      <trkpt lat="42.03705" lon="2.46641">
        <ele>903</ele>
        <time>2022-05-21 05:13:14</time>
      </trkpt>
      <trkpt lat="42.03709" lon="2.46641">
        <ele>903</ele>
        <time>2022-05-21 05:13:15</time>
      </trkpt>
      <trkpt lat="42.03713" lon="2.46641">
        <ele>903.2</ele>
        <time>2022-05-21 05:13:16</time>
      </trkpt>
      <trkpt lat="42.03717" lon="2.46641">
        <ele>903.4</ele>
        <time>2022-05-21 05:13:17</time>
      </trkpt>
      <trkpt lat="42.0372" lon="2.46642">
        <ele>903.6</ele>
        <time>2022-05-21 05:13:18</time>
      </trkpt>
      <trkpt lat="42.03724" lon="2.46642">
        <ele>903.8</ele>
        <time>2022-05-21 05:13:19</time>
      </trkpt>
      <trkpt lat="42.03728" lon="2.46642">
        <ele>903.8</ele>
        <time>2022-05-21 05:13:20</time>
      </trkpt>
      <trkpt lat="42.03732" lon="2.46643">
        <ele>904</ele>
        <time>2022-05-21 05:13:21</time>
      </trkpt>
      <trkpt lat="42.03736" lon="2.46643">
        <ele>904.2</ele>
        <time>2022-05-21 05:13:22</time>
      </trkpt>
      <trkpt lat="42.0374" lon="2.46643">
        <ele>904.2</ele>
        <time>2022-05-21 05:13:23</time>
      </trkpt>
      <trkpt lat="42.03743" lon="2.46642">
        <ele>904.4</ele>
        <time>2022-05-21 05:13:24</time>
      </trkpt>
      <trkpt lat="42.03747" lon="2.46642">
        <ele>904.6</ele>
        <time>2022-05-21 05:13:25</time>
      </trkpt>
      <trkpt lat="42.03751" lon="2.46642">
        <ele>904.8</ele>
        <time>2022-05-21 05:13:26</time>
      </trkpt>
      <trkpt lat="42.03755" lon="2.46641">
        <ele>904.8</ele>
        <time>2022-05-21 05:13:27</time>
      </trkpt>
      <trkpt lat="42.03759" lon="2.4664">
        <ele>905</ele>
        <time>2022-05-21 05:13:28</time>
      </trkpt>
      <trkpt lat="42.03762" lon="2.46639">
        <ele>905.2</ele>
        <time>2022-05-21 05:13:29</time>
      </trkpt>
      <trkpt lat="42.03766" lon="2.46637">
        <ele>905.4</ele>
        <time>2022-05-21 05:13:30</time>
      </trkpt>
      <trkpt lat="42.0377" lon="2.46636">
        <ele>905.6</ele>
        <time>2022-05-21 05:13:31</time>
      </trkpt>
      <trkpt lat="42.03774" lon="2.46634">
        <ele>905.6</ele>
        <time>2022-05-21 05:13:32</time>
      </trkpt>
      <trkpt lat="42.03777" lon="2.46631">
        <ele>905.8</ele>
        <time>2022-05-21 05:13:33</time>
      </trkpt>
      <trkpt lat="42.0378" lon="2.46629">
        <ele>906</ele>
        <time>2022-05-21 05:13:34</time>
      </trkpt>
      <trkpt lat="42.03784" lon="2.46626">
        <ele>906.2</ele>
        <time>2022-05-21 05:13:35</time>
      </trkpt>
      <trkpt lat="42.03787" lon="2.46623">
        <ele>906.2</ele>
        <time>2022-05-21 05:13:36</time>
      </trkpt>
      <trkpt lat="42.0379" lon="2.46621">
        <ele>906.4</ele>
        <time>2022-05-21 05:13:37</time>
      </trkpt>
      <trkpt lat="42.03794" lon="2.46618">
        <ele>906.6</ele>
        <time>2022-05-21 05:13:38</time>
      </trkpt>
      <trkpt lat="42.03797" lon="2.46615">
        <ele>906.6</ele>
        <time>2022-05-21 05:13:39</time>
      </trkpt>
      <trkpt lat="42.038" lon="2.46611">
        <ele>906.8</ele>
        <time>2022-05-21 05:13:40</time>
      </trkpt>
      <trkpt lat="42.03803" lon="2.46608">
        <ele>907</ele>
        <time>2022-05-21 05:13:41</time>
      </trkpt>
      <trkpt lat="42.03807" lon="2.46605">
        <ele>907</ele>
        <time>2022-05-21 05:13:42</time>
      </trkpt>
      <trkpt lat="42.0381" lon="2.46602">
        <ele>907.2</ele>
        <time>2022-05-21 05:13:43</time>
      </trkpt>
      <trkpt lat="42.03813" lon="2.46599">
        <ele>907.4</ele>
        <time>2022-05-21 05:13:44</time>
      </trkpt>
      <trkpt lat="42.03817" lon="2.46596">
        <ele>907.4</ele>
        <time>2022-05-21 05:13:45</time>
      </trkpt>
      <trkpt lat="42.0382" lon="2.46593">
        <ele>907.6</ele>
        <time>2022-05-21 05:13:46</time>
      </trkpt>
      <trkpt lat="42.03823" lon="2.4659">
        <ele>907.8</ele>
        <time>2022-05-21 05:13:47</time>
      </trkpt>
      <trkpt lat="42.03826" lon="2.46588">
        <ele>908</ele>
        <time>2022-05-21 05:13:48</time>
      </trkpt>
      <trkpt lat="42.0383" lon="2.46585">
        <ele>908.2</ele>
        <time>2022-05-21 05:13:49</time>
      </trkpt>
      <trkpt lat="42.03833" lon="2.46583">
        <ele>908.4</ele>
        <time>2022-05-21 05:13:50</time>
      </trkpt>
      <trkpt lat="42.03836" lon="2.4658">
        <ele>908.4</ele>
        <time>2022-05-21 05:13:51</time>
      </trkpt>
      <trkpt lat="42.0384" lon="2.46578">
        <ele>908.6</ele>
        <time>2022-05-21 05:13:52</time>
      </trkpt>
      <trkpt lat="42.03844" lon="2.46576">
        <ele>908.8</ele>
        <time>2022-05-21 05:13:53</time>
      </trkpt>
      <trkpt lat="42.03848" lon="2.46574">
        <ele>909</ele>
        <time>2022-05-21 05:13:54</time>
      </trkpt>
      <trkpt lat="42.03851" lon="2.46573">
        <ele>909</ele>
        <time>2022-05-21 05:13:55</time>
      </trkpt>
      <trkpt lat="42.03855" lon="2.46572">
        <ele>909.2</ele>
        <time>2022-05-21 05:13:56</time>
      </trkpt>
      <trkpt lat="42.03859" lon="2.46571">
        <ele>909.4</ele>
        <time>2022-05-21 05:13:57</time>
      </trkpt>
      <trkpt lat="42.03863" lon="2.4657">
        <ele>909.6</ele>
        <time>2022-05-21 05:13:58</time>
      </trkpt>
      <trkpt lat="42.03867" lon="2.4657">
        <ele>909.8</ele>
        <time>2022-05-21 05:13:59</time>
      </trkpt>
      <trkpt lat="42.03872" lon="2.4657">
        <ele>910</ele>
        <time>2022-05-21 05:14:00</time>
      </trkpt>
      <trkpt lat="42.03875" lon="2.46571">
        <ele>910.2</ele>
        <time>2022-05-21 05:14:01</time>
      </trkpt>
      <trkpt lat="42.0388" lon="2.46572">
        <ele>910.4</ele>
        <time>2022-05-21 05:14:02</time>
      </trkpt>
      <trkpt lat="42.03883" lon="2.46573">
        <ele>910.6</ele>
        <time>2022-05-21 05:14:03</time>
      </trkpt>
      <trkpt lat="42.03888" lon="2.46574">
        <ele>910.8</ele>
        <time>2022-05-21 05:14:04</time>
      </trkpt>
      <trkpt lat="42.03891" lon="2.46576">
        <ele>911</ele>
        <time>2022-05-21 05:14:05</time>
      </trkpt>
      <trkpt lat="42.03895" lon="2.46578">
        <ele>911</ele>
        <time>2022-05-21 05:14:06</time>
      </trkpt>
      <trkpt lat="42.03899" lon="2.4658">
        <ele>911.2</ele>
        <time>2022-05-21 05:14:07</time>
      </trkpt>
      <trkpt lat="42.03902" lon="2.46582">
        <ele>911.4</ele>
        <time>2022-05-21 05:14:08</time>
      </trkpt>
      <trkpt lat="42.03906" lon="2.46584">
        <ele>911.6</ele>
        <time>2022-05-21 05:14:09</time>
      </trkpt>
      <trkpt lat="42.0391" lon="2.46586">
        <ele>911.8</ele>
        <time>2022-05-21 05:14:10</time>
      </trkpt>
      <trkpt lat="42.03914" lon="2.46588">
        <ele>911.8</ele>
        <time>2022-05-21 05:14:11</time>
      </trkpt>
      <trkpt lat="42.03918" lon="2.46591">
        <ele>912</ele>
        <time>2022-05-21 05:14:12</time>
      </trkpt>
      <trkpt lat="42.03921" lon="2.46593">
        <ele>912.2</ele>
        <time>2022-05-21 05:14:13</time>
      </trkpt>
      <trkpt lat="42.03925" lon="2.46595">
        <ele>912.4</ele>
        <time>2022-05-21 05:14:14</time>
      </trkpt>
      <trkpt lat="42.03928" lon="2.46598">
        <ele>912.6</ele>
        <time>2022-05-21 05:14:15</time>
      </trkpt>
      <trkpt lat="42.03932" lon="2.466">
        <ele>912.8</ele>
        <time>2022-05-21 05:14:16</time>
      </trkpt>
      <trkpt lat="42.03936" lon="2.46602">
        <ele>913</ele>
        <time>2022-05-21 05:14:17</time>
      </trkpt>
      <trkpt lat="42.0394" lon="2.46604">
        <ele>913</ele>
        <time>2022-05-21 05:14:18</time>
      </trkpt>
      <trkpt lat="42.03944" lon="2.46606">
        <ele>913.2</ele>
        <time>2022-05-21 05:14:19</time>
      </trkpt>
      <trkpt lat="42.03947" lon="2.46609">
        <ele>913.4</ele>
        <time>2022-05-21 05:14:20</time>
      </trkpt>
      <trkpt lat="42.03951" lon="2.46611">
        <ele>913.6</ele>
        <time>2022-05-21 05:14:21</time>
      </trkpt>
      <trkpt lat="42.03955" lon="2.46613">
        <ele>913.8</ele>
        <time>2022-05-21 05:14:22</time>
      </trkpt>
      <trkpt lat="42.03959" lon="2.46616">
        <ele>914</ele>
        <time>2022-05-21 05:14:23</time>
      </trkpt>
      <trkpt lat="42.03962" lon="2.46618">
        <ele>914.2</ele>
        <time>2022-05-21 05:14:24</time>
      </trkpt>
      <trkpt lat="42.03966" lon="2.4662">
        <ele>914.4</ele>
        <time>2022-05-21 05:14:25</time>
      </trkpt>
      <trkpt lat="42.0397" lon="2.46622">
        <ele>914.6</ele>
        <time>2022-05-21 05:14:26</time>
      </trkpt>
      <trkpt lat="42.03973" lon="2.46624">
        <ele>914.8</ele>
        <time>2022-05-21 05:14:27</time>
      </trkpt>
      <trkpt lat="42.03977" lon="2.46627">
        <ele>915</ele>
        <time>2022-05-21 05:14:28</time>
      </trkpt>
      <trkpt lat="42.03981" lon="2.46629">
        <ele>915.2</ele>
        <time>2022-05-21 05:14:29</time>
      </trkpt>
      <trkpt lat="42.03984" lon="2.46631">
        <ele>915.4</ele>
        <time>2022-05-21 05:14:30</time>
      </trkpt>
      <trkpt lat="42.03988" lon="2.46633">
        <ele>915.6</ele>
        <time>2022-05-21 05:14:31</time>
      </trkpt>
      <trkpt lat="42.03992" lon="2.46636">
        <ele>915.6</ele>
        <time>2022-05-21 05:14:32</time>
      </trkpt>
      <trkpt lat="42.03995" lon="2.46638">
        <ele>915.8</ele>
        <time>2022-05-21 05:14:33</time>
      </trkpt>
      <trkpt lat="42.03998" lon="2.4664">
        <ele>916</ele>
        <time>2022-05-21 05:14:34</time>
      </trkpt>
      <trkpt lat="42.04002" lon="2.46642">
        <ele>916</ele>
        <time>2022-05-21 05:14:35</time>
      </trkpt>
      <trkpt lat="42.04006" lon="2.46644">
        <ele>916.2</ele>
        <time>2022-05-21 05:14:36</time>
      </trkpt>
      <trkpt lat="42.04009" lon="2.46647">
        <ele>916.6</ele>
        <time>2022-05-21 05:14:37</time>
      </trkpt>
      <trkpt lat="42.04013" lon="2.46649">
        <ele>916.8</ele>
        <time>2022-05-21 05:14:38</time>
      </trkpt>
      <trkpt lat="42.04016" lon="2.46651">
        <ele>916.8</ele>
        <time>2022-05-21 05:14:39</time>
      </trkpt>
      <trkpt lat="42.0402" lon="2.46653">
        <ele>917</ele>
        <time>2022-05-21 05:14:40</time>
      </trkpt>
      <trkpt lat="42.04023" lon="2.46655">
        <ele>917.2</ele>
        <time>2022-05-21 05:14:41</time>
      </trkpt>
      <trkpt lat="42.04028" lon="2.46657">
        <ele>917.2</ele>
        <time>2022-05-21 05:14:42</time>
      </trkpt>
      <trkpt lat="42.04031" lon="2.4666">
        <ele>917.4</ele>
        <time>2022-05-21 05:14:43</time>
      </trkpt>
      <trkpt lat="42.04035" lon="2.46662">
        <ele>917.6</ele>
        <time>2022-05-21 05:14:44</time>
      </trkpt>
      <trkpt lat="42.04039" lon="2.46664">
        <ele>917.8</ele>
        <time>2022-05-21 05:14:45</time>
      </trkpt>
      <trkpt lat="42.04043" lon="2.46666">
        <ele>918.2</ele>
        <time>2022-05-21 05:14:46</time>
      </trkpt>
      <trkpt lat="42.04047" lon="2.46668">
        <ele>918.4</ele>
        <time>2022-05-21 05:14:47</time>
      </trkpt>
      <trkpt lat="42.0405" lon="2.4667">
        <ele>918.4</ele>
        <time>2022-05-21 05:14:48</time>
      </trkpt>
      <trkpt lat="42.04054" lon="2.46672">
        <ele>918.8</ele>
        <time>2022-05-21 05:14:49</time>
      </trkpt>
      <trkpt lat="42.04058" lon="2.46675">
        <ele>918.8</ele>
        <time>2022-05-21 05:14:50</time>
      </trkpt>
      <trkpt lat="42.04062" lon="2.46677">
        <ele>919</ele>
        <time>2022-05-21 05:14:51</time>
      </trkpt>
      <trkpt lat="42.04065" lon="2.46679">
        <ele>919.2</ele>
        <time>2022-05-21 05:14:52</time>
      </trkpt>
      <trkpt lat="42.04069" lon="2.46681">
        <ele>919.4</ele>
        <time>2022-05-21 05:14:53</time>
      </trkpt>
      <trkpt lat="42.04073" lon="2.46683">
        <ele>919.6</ele>
        <time>2022-05-21 05:14:54</time>
      </trkpt>
      <trkpt lat="42.04076" lon="2.46685">
        <ele>919.8</ele>
        <time>2022-05-21 05:14:55</time>
      </trkpt>
      <trkpt lat="42.0408" lon="2.46688">
        <ele>920</ele>
        <time>2022-05-21 05:14:56</time>
      </trkpt>
      <trkpt lat="42.04084" lon="2.4669">
        <ele>920.2</ele>
        <time>2022-05-21 05:14:57</time>
      </trkpt>
      <trkpt lat="42.04087" lon="2.46692">
        <ele>920.4</ele>
        <time>2022-05-21 05:14:58</time>
      </trkpt>
      <trkpt lat="42.04091" lon="2.46695">
        <ele>920.4</ele>
        <time>2022-05-21 05:14:59</time>
      </trkpt>
      <trkpt lat="42.04095" lon="2.46697">
        <ele>920.6</ele>
        <time>2022-05-21 05:15:00</time>
      </trkpt>
      <trkpt lat="42.04098" lon="2.46699">
        <ele>920.8</ele>
        <time>2022-05-21 05:15:01</time>
      </trkpt>
      <trkpt lat="42.04102" lon="2.46701">
        <ele>921</ele>
        <time>2022-05-21 05:15:02</time>
      </trkpt>
      <trkpt lat="42.04105" lon="2.46703">
        <ele>921.2</ele>
        <time>2022-05-21 05:15:03</time>
      </trkpt>
      <trkpt lat="42.04109" lon="2.46706">
        <ele>921.4</ele>
        <time>2022-05-21 05:15:04</time>
      </trkpt>
      <trkpt lat="42.04113" lon="2.46708">
        <ele>921.6</ele>
        <time>2022-05-21 05:15:05</time>
      </trkpt>
      <trkpt lat="42.04116" lon="2.4671">
        <ele>921.8</ele>
        <time>2022-05-21 05:15:06</time>
      </trkpt>
      <trkpt lat="42.0412" lon="2.46712">
        <ele>922</ele>
        <time>2022-05-21 05:15:07</time>
      </trkpt>
      <trkpt lat="42.04124" lon="2.46714">
        <ele>922.2</ele>
        <time>2022-05-21 05:15:08</time>
      </trkpt>
      <trkpt lat="42.04127" lon="2.46716">
        <ele>922.4</ele>
        <time>2022-05-21 05:15:09</time>
      </trkpt>
      <trkpt lat="42.04131" lon="2.46718">
        <ele>922.6</ele>
        <time>2022-05-21 05:15:10</time>
      </trkpt>
      <trkpt lat="42.04134" lon="2.4672">
        <ele>922.8</ele>
        <time>2022-05-21 05:15:11</time>
      </trkpt>
      <trkpt lat="42.04138" lon="2.46722">
        <ele>923</ele>
        <time>2022-05-21 05:15:12</time>
      </trkpt>
      <trkpt lat="42.04141" lon="2.46724">
        <ele>923.2</ele>
        <time>2022-05-21 05:15:13</time>
      </trkpt>
      <trkpt lat="42.04145" lon="2.46727">
        <ele>923.4</ele>
        <time>2022-05-21 05:15:14</time>
      </trkpt>
      <trkpt lat="42.04148" lon="2.46729">
        <ele>923.4</ele>
        <time>2022-05-21 05:15:15</time>
      </trkpt>
      <trkpt lat="42.04152" lon="2.46731">
        <ele>923.6</ele>
        <time>2022-05-21 05:15:16</time>
      </trkpt>
      <trkpt lat="42.04155" lon="2.46733">
        <ele>923.8</ele>
        <time>2022-05-21 05:15:17</time>
      </trkpt>
      <trkpt lat="42.04158" lon="2.46735">
        <ele>924.2</ele>
        <time>2022-05-21 05:15:18</time>
      </trkpt>
      <trkpt lat="42.04162" lon="2.46737">
        <ele>924.4</ele>
        <time>2022-05-21 05:15:19</time>
      </trkpt>
      <trkpt lat="42.04166" lon="2.4674">
        <ele>924.6</ele>
        <time>2022-05-21 05:15:20</time>
      </trkpt>
      <trkpt lat="42.04169" lon="2.46742">
        <ele>924.8</ele>
        <time>2022-05-21 05:15:21</time>
      </trkpt>
      <trkpt lat="42.04172" lon="2.46744">
        <ele>925</ele>
        <time>2022-05-21 05:15:22</time>
      </trkpt>
      <trkpt lat="42.04176" lon="2.46746">
        <ele>925.2</ele>
        <time>2022-05-21 05:15:23</time>
      </trkpt>
      <trkpt lat="42.04179" lon="2.46748">
        <ele>925.4</ele>
        <time>2022-05-21 05:15:24</time>
      </trkpt>
      <trkpt lat="42.04183" lon="2.4675">
        <ele>925.4</ele>
        <time>2022-05-21 05:15:25</time>
      </trkpt>
      <trkpt lat="42.04187" lon="2.46751">
        <ele>925.6</ele>
        <time>2022-05-21 05:15:26</time>
      </trkpt>
      <trkpt lat="42.0419" lon="2.46753">
        <ele>925.8</ele>
        <time>2022-05-21 05:15:27</time>
      </trkpt>
      <trkpt lat="42.04194" lon="2.46755">
        <ele>926</ele>
        <time>2022-05-21 05:15:28</time>
      </trkpt>
      <trkpt lat="42.04197" lon="2.46757">
        <ele>926.2</ele>
        <time>2022-05-21 05:15:29</time>
      </trkpt>
      <trkpt lat="42.042" lon="2.4676">
        <ele>926.4</ele>
        <time>2022-05-21 05:15:30</time>
      </trkpt>
      <trkpt lat="42.04204" lon="2.46761">
        <ele>926.8</ele>
        <time>2022-05-21 05:15:31</time>
      </trkpt>
      <trkpt lat="42.04207" lon="2.46763">
        <ele>927</ele>
        <time>2022-05-21 05:15:32</time>
      </trkpt>
      <trkpt lat="42.0421" lon="2.46765">
        <ele>927.2</ele>
        <time>2022-05-21 05:15:33</time>
      </trkpt>
      <trkpt lat="42.04213" lon="2.46768">
        <ele>927.4</ele>
        <time>2022-05-21 05:15:34</time>
      </trkpt>
      <trkpt lat="42.04216" lon="2.4677">
        <ele>927.6</ele>
        <time>2022-05-21 05:15:35</time>
      </trkpt>
      <trkpt lat="42.04219" lon="2.46772">
        <ele>927.8</ele>
        <time>2022-05-21 05:15:36</time>
      </trkpt>
      <trkpt lat="42.04222" lon="2.46773">
        <ele>928</ele>
        <time>2022-05-21 05:15:37</time>
      </trkpt>
      <trkpt lat="42.04225" lon="2.46775">
        <ele>928.2</ele>
        <time>2022-05-21 05:15:38</time>
      </trkpt>
      <trkpt lat="42.04228" lon="2.46776">
        <ele>928.4</ele>
        <time>2022-05-21 05:15:39</time>
      </trkpt>
      <trkpt lat="42.04231" lon="2.46778">
        <ele>928.6</ele>
        <time>2022-05-21 05:15:40</time>
      </trkpt>
      <trkpt lat="42.04234" lon="2.4678">
        <ele>928.8</ele>
        <time>2022-05-21 05:15:41</time>
      </trkpt>
      <trkpt lat="42.04236" lon="2.46781">
        <ele>929.2</ele>
        <time>2022-05-21 05:15:42</time>
      </trkpt>
      <trkpt lat="42.04239" lon="2.46784">
        <ele>929.4</ele>
        <time>2022-05-21 05:15:43</time>
      </trkpt>
      <trkpt lat="42.04242" lon="2.46786">
        <ele>929.6</ele>
        <time>2022-05-21 05:15:44</time>
      </trkpt>
      <trkpt lat="42.04245" lon="2.46787">
        <ele>929.8</ele>
        <time>2022-05-21 05:15:45</time>
      </trkpt>
      <trkpt lat="42.04248" lon="2.4679">
        <ele>930</ele>
        <time>2022-05-21 05:15:46</time>
      </trkpt>
      <trkpt lat="42.04251" lon="2.46792">
        <ele>930.2</ele>
        <time>2022-05-21 05:15:47</time>
      </trkpt>
      <trkpt lat="42.04255" lon="2.46793">
        <ele>930.4</ele>
        <time>2022-05-21 05:15:48</time>
      </trkpt>
      <trkpt lat="42.04258" lon="2.46795">
        <ele>930.6</ele>
        <time>2022-05-21 05:15:49</time>
      </trkpt>
      <trkpt lat="42.04261" lon="2.46797">
        <ele>930.8</ele>
        <time>2022-05-21 05:15:50</time>
      </trkpt>
      <trkpt lat="42.04264" lon="2.46798">
        <ele>930.8</ele>
        <time>2022-05-21 05:15:51</time>
      </trkpt>
      <trkpt lat="42.04267" lon="2.46801">
        <ele>931</ele>
        <time>2022-05-21 05:15:52</time>
      </trkpt>
      <trkpt lat="42.0427" lon="2.46802">
        <ele>931.4</ele>
        <time>2022-05-21 05:15:53</time>
      </trkpt>
      <trkpt lat="42.04272" lon="2.46804">
        <ele>931.6</ele>
        <time>2022-05-21 05:15:54</time>
      </trkpt>
      <trkpt lat="42.04275" lon="2.46806">
        <ele>931.8</ele>
        <time>2022-05-21 05:15:55</time>
      </trkpt>
      <trkpt lat="42.04278" lon="2.46808">
        <ele>932</ele>
        <time>2022-05-21 05:15:56</time>
      </trkpt>
      <trkpt lat="42.04281" lon="2.4681">
        <ele>932.2</ele>
        <time>2022-05-21 05:15:57</time>
      </trkpt>
      <trkpt lat="42.04284" lon="2.46812">
        <ele>932.4</ele>
        <time>2022-05-21 05:15:58</time>
      </trkpt>
      <trkpt lat="42.04287" lon="2.46814">
        <ele>932.6</ele>
        <time>2022-05-21 05:15:59</time>
      </trkpt>
      <trkpt lat="42.0429" lon="2.46815">
        <ele>932.6</ele>
        <time>2022-05-21 05:16:00</time>
      </trkpt>
      <trkpt lat="42.04293" lon="2.46817">
        <ele>932.8</ele>
        <time>2022-05-21 05:16:01</time>
      </trkpt>
      <trkpt lat="42.04296" lon="2.46818">
        <ele>933</ele>
        <time>2022-05-21 05:16:02</time>
      </trkpt>
      <trkpt lat="42.04299" lon="2.4682">
        <ele>933.2</ele>
        <time>2022-05-21 05:16:03</time>
      </trkpt>
      <trkpt lat="42.04302" lon="2.46821">
        <ele>933.4</ele>
        <time>2022-05-21 05:16:04</time>
      </trkpt>
      <trkpt lat="42.04305" lon="2.46823">
        <ele>933.6</ele>
        <time>2022-05-21 05:16:05</time>
      </trkpt>
      <trkpt lat="42.04308" lon="2.46826">
        <ele>933.8</ele>
        <time>2022-05-21 05:16:06</time>
      </trkpt>
      <trkpt lat="42.04311" lon="2.46828">
        <ele>934</ele>
        <time>2022-05-21 05:16:07</time>
      </trkpt>
      <trkpt lat="42.04314" lon="2.4683">
        <ele>934.2</ele>
        <time>2022-05-21 05:16:08</time>
      </trkpt>
      <trkpt lat="42.04317" lon="2.46832">
        <ele>934.4</ele>
        <time>2022-05-21 05:16:09</time>
      </trkpt>
      <trkpt lat="42.0432" lon="2.46833">
        <ele>934.6</ele>
        <time>2022-05-21 05:16:10</time>
      </trkpt>
      <trkpt lat="42.04323" lon="2.46835">
        <ele>934.8</ele>
        <time>2022-05-21 05:16:11</time>
      </trkpt>
      <trkpt lat="42.04326" lon="2.46836">
        <ele>935</ele>
        <time>2022-05-21 05:16:12</time>
      </trkpt>
      <trkpt lat="42.04329" lon="2.46838">
        <ele>935</ele>
        <time>2022-05-21 05:16:13</time>
      </trkpt>
      <trkpt lat="42.04332" lon="2.4684">
        <ele>935.2</ele>
        <time>2022-05-21 05:16:14</time>
      </trkpt>
      <trkpt lat="42.04335" lon="2.46843">
        <ele>935.4</ele>
        <time>2022-05-21 05:16:15</time>
      </trkpt>
      <trkpt lat="42.04338" lon="2.46845">
        <ele>935.6</ele>
        <time>2022-05-21 05:16:16</time>
      </trkpt>
      <trkpt lat="42.04342" lon="2.46846">
        <ele>935.8</ele>
        <time>2022-05-21 05:16:17</time>
      </trkpt>
      <trkpt lat="42.04345" lon="2.46848">
        <ele>936</ele>
        <time>2022-05-21 05:16:18</time>
      </trkpt>
      <trkpt lat="42.04348" lon="2.4685">
        <ele>936.2</ele>
        <time>2022-05-21 05:16:19</time>
      </trkpt>
      <trkpt lat="42.04351" lon="2.46852">
        <ele>936.4</ele>
        <time>2022-05-21 05:16:20</time>
      </trkpt>
      <trkpt lat="42.04354" lon="2.46854">
        <ele>936.6</ele>
        <time>2022-05-21 05:16:21</time>
      </trkpt>
      <trkpt lat="42.04357" lon="2.46855">
        <ele>936.6</ele>
        <time>2022-05-21 05:16:22</time>
      </trkpt>
      <trkpt lat="42.04359" lon="2.46857">
        <ele>936.8</ele>
        <time>2022-05-21 05:16:23</time>
      </trkpt>
      <trkpt lat="42.04362" lon="2.46859">
        <ele>937</ele>
        <time>2022-05-21 05:16:24</time>
      </trkpt>
      <trkpt lat="42.04365" lon="2.46861">
        <ele>937.2</ele>
        <time>2022-05-21 05:16:25</time>
      </trkpt>
      <trkpt lat="42.04368" lon="2.46863">
        <ele>937.4</ele>
        <time>2022-05-21 05:16:26</time>
      </trkpt>
      <trkpt lat="42.04371" lon="2.46865">
        <ele>937.6</ele>
        <time>2022-05-21 05:16:27</time>
      </trkpt>
      <trkpt lat="42.04374" lon="2.46867">
        <ele>937.8</ele>
        <time>2022-05-21 05:16:28</time>
      </trkpt>
      <trkpt lat="42.04377" lon="2.46869">
        <ele>937.8</ele>
        <time>2022-05-21 05:16:29</time>
      </trkpt>
      <trkpt lat="42.04381" lon="2.46871">
        <ele>938</ele>
        <time>2022-05-21 05:16:30</time>
      </trkpt>
      <trkpt lat="42.04385" lon="2.46872">
        <ele>938.2</ele>
        <time>2022-05-21 05:16:31</time>
      </trkpt>
      <trkpt lat="42.04388" lon="2.46874">
        <ele>938.4</ele>
        <time>2022-05-21 05:16:32</time>
      </trkpt>
      <trkpt lat="42.04391" lon="2.46876">
        <ele>938.6</ele>
        <time>2022-05-21 05:16:33</time>
      </trkpt>
      <trkpt lat="42.04395" lon="2.46878">
        <ele>938.8</ele>
        <time>2022-05-21 05:16:34</time>
      </trkpt>
      <trkpt lat="42.04398" lon="2.4688">
        <ele>939</ele>
        <time>2022-05-21 05:16:35</time>
      </trkpt>
      <trkpt lat="42.04401" lon="2.46882">
        <ele>939.2</ele>
        <time>2022-05-21 05:16:36</time>
      </trkpt>
      <trkpt lat="42.04404" lon="2.46883">
        <ele>939.4</ele>
        <time>2022-05-21 05:16:37</time>
      </trkpt>
      <trkpt lat="42.04407" lon="2.46885">
        <ele>939.4</ele>
        <time>2022-05-21 05:16:38</time>
      </trkpt>
      <trkpt lat="42.04411" lon="2.46887">
        <ele>939.6</ele>
        <time>2022-05-21 05:16:39</time>
      </trkpt>
      <trkpt lat="42.04414" lon="2.46889">
        <ele>939.8</ele>
        <time>2022-05-21 05:16:40</time>
      </trkpt>
      <trkpt lat="42.04418" lon="2.46891">
        <ele>940</ele>
        <time>2022-05-21 05:16:41</time>
      </trkpt>
      <trkpt lat="42.04421" lon="2.46893">
        <ele>940.2</ele>
        <time>2022-05-21 05:16:42</time>
      </trkpt>
      <trkpt lat="42.04424" lon="2.46894">
        <ele>940.4</ele>
        <time>2022-05-21 05:16:43</time>
      </trkpt>
      <trkpt lat="42.04427" lon="2.46896">
        <ele>940.6</ele>
        <time>2022-05-21 05:16:44</time>
      </trkpt>
      <trkpt lat="42.0443" lon="2.46898">
        <ele>940.6</ele>
        <time>2022-05-21 05:16:45</time>
      </trkpt>
      <trkpt lat="42.04433" lon="2.469">
        <ele>940.8</ele>
        <time>2022-05-21 05:16:46</time>
      </trkpt>
      <trkpt lat="42.04437" lon="2.46902">
        <ele>941</ele>
        <time>2022-05-21 05:16:47</time>
      </trkpt>
      <trkpt lat="42.0444" lon="2.46904">
        <ele>941.2</ele>
        <time>2022-05-21 05:16:48</time>
      </trkpt>
      <trkpt lat="42.04442" lon="2.46906">
        <ele>941.4</ele>
        <time>2022-05-21 05:16:49</time>
      </trkpt>
      <trkpt lat="42.04445" lon="2.46907">
        <ele>941.4</ele>
        <time>2022-05-21 05:16:50</time>
      </trkpt>
      <trkpt lat="42.04448" lon="2.46909">
        <ele>941.8</ele>
        <time>2022-05-21 05:16:51</time>
      </trkpt>
      <trkpt lat="42.04451" lon="2.46911">
        <ele>942</ele>
        <time>2022-05-21 05:16:52</time>
      </trkpt>
      <trkpt lat="42.04454" lon="2.46913">
        <ele>942.2</ele>
        <time>2022-05-21 05:16:53</time>
      </trkpt>
      <trkpt lat="42.04457" lon="2.46915">
        <ele>942.4</ele>
        <time>2022-05-21 05:16:54</time>
      </trkpt>
      <trkpt lat="42.0446" lon="2.46917">
        <ele>942.6</ele>
        <time>2022-05-21 05:16:55</time>
      </trkpt>
      <trkpt lat="42.04463" lon="2.4692">
        <ele>942.8</ele>
        <time>2022-05-21 05:16:56</time>
      </trkpt>
      <trkpt lat="42.04465" lon="2.46921">
        <ele>943</ele>
        <time>2022-05-21 05:16:57</time>
      </trkpt>
      <trkpt lat="42.04468" lon="2.46923">
        <ele>943.2</ele>
        <time>2022-05-21 05:16:58</time>
      </trkpt>
      <trkpt lat="42.04471" lon="2.46924">
        <ele>943.4</ele>
        <time>2022-05-21 05:16:59</time>
      </trkpt>
      <trkpt lat="42.04473" lon="2.46926">
        <ele>943.6</ele>
        <time>2022-05-21 05:17:00</time>
      </trkpt>
      <trkpt lat="42.04477" lon="2.46927">
        <ele>943.8</ele>
        <time>2022-05-21 05:17:01</time>
      </trkpt>
      <trkpt lat="42.04479" lon="2.46928">
        <ele>944</ele>
        <time>2022-05-21 05:17:02</time>
      </trkpt>
      <trkpt lat="42.04482" lon="2.4693">
        <ele>944.2</ele>
        <time>2022-05-21 05:17:03</time>
      </trkpt>
      <trkpt lat="42.04485" lon="2.46932">
        <ele>944.4</ele>
        <time>2022-05-21 05:17:04</time>
      </trkpt>
      <trkpt lat="42.04488" lon="2.46935">
        <ele>944.6</ele>
        <time>2022-05-21 05:17:05</time>
      </trkpt>
      <trkpt lat="42.04491" lon="2.46937">
        <ele>944.8</ele>
        <time>2022-05-21 05:17:06</time>
      </trkpt>
      <trkpt lat="42.04494" lon="2.46938">
        <ele>945</ele>
        <time>2022-05-21 05:17:07</time>
      </trkpt>
      <trkpt lat="42.04497" lon="2.4694">
        <ele>945.2</ele>
        <time>2022-05-21 05:17:08</time>
      </trkpt>
      <trkpt lat="42.045" lon="2.46941">
        <ele>945.2</ele>
        <time>2022-05-21 05:17:09</time>
      </trkpt>
      <trkpt lat="42.04502" lon="2.46942">
        <ele>945.4</ele>
        <time>2022-05-21 05:17:10</time>
      </trkpt>
      <trkpt lat="42.04506" lon="2.46943">
        <ele>945.6</ele>
        <time>2022-05-21 05:17:11</time>
      </trkpt>
      <trkpt lat="42.04509" lon="2.46945">
        <ele>945.8</ele>
        <time>2022-05-21 05:17:12</time>
      </trkpt>
      <trkpt lat="42.04513" lon="2.46946">
        <ele>946</ele>
        <time>2022-05-21 05:17:13</time>
      </trkpt>
      <trkpt lat="42.04516" lon="2.46948">
        <ele>946.2</ele>
        <time>2022-05-21 05:17:14</time>
      </trkpt>
      <trkpt lat="42.0452" lon="2.46949">
        <ele>946.4</ele>
        <time>2022-05-21 05:17:15</time>
      </trkpt>
      <trkpt lat="42.04523" lon="2.46951">
        <ele>946.4</ele>
        <time>2022-05-21 05:17:16</time>
      </trkpt>
      <trkpt lat="42.04527" lon="2.46953">
        <ele>946.6</ele>
        <time>2022-05-21 05:17:17</time>
      </trkpt>
      <trkpt lat="42.0453" lon="2.46954">
        <ele>946.8</ele>
        <time>2022-05-21 05:17:18</time>
      </trkpt>
      <trkpt lat="42.04533" lon="2.46955">
        <ele>947</ele>
        <time>2022-05-21 05:17:19</time>
      </trkpt>
      <trkpt lat="42.04536" lon="2.46956">
        <ele>947.2</ele>
        <time>2022-05-21 05:17:20</time>
      </trkpt>
      <trkpt lat="42.04539" lon="2.46957">
        <ele>947.4</ele>
        <time>2022-05-21 05:17:21</time>
      </trkpt>
      <trkpt lat="42.04542" lon="2.46958">
        <ele>947.6</ele>
        <time>2022-05-21 05:17:22</time>
      </trkpt>
      <trkpt lat="42.04545" lon="2.4696">
        <ele>947.8</ele>
        <time>2022-05-21 05:17:23</time>
      </trkpt>
      <trkpt lat="42.04548" lon="2.46961">
        <ele>947.8</ele>
        <time>2022-05-21 05:17:24</time>
      </trkpt>
      <trkpt lat="42.04552" lon="2.46963">
        <ele>948</ele>
        <time>2022-05-21 05:17:25</time>
      </trkpt>
      <trkpt lat="42.04555" lon="2.46964">
        <ele>948.2</ele>
        <time>2022-05-21 05:17:26</time>
      </trkpt>
      <trkpt lat="42.04558" lon="2.46965">
        <ele>948.4</ele>
        <time>2022-05-21 05:17:27</time>
      </trkpt>
      <trkpt lat="42.04562" lon="2.46967">
        <ele>948.6</ele>
        <time>2022-05-21 05:17:28</time>
      </trkpt>
      <trkpt lat="42.04565" lon="2.46968">
        <ele>948.8</ele>
        <time>2022-05-21 05:17:29</time>
      </trkpt>
      <trkpt lat="42.04568" lon="2.4697">
        <ele>949</ele>
        <time>2022-05-21 05:17:30</time>
      </trkpt>
      <trkpt lat="42.04571" lon="2.46971">
        <ele>949.2</ele>
        <time>2022-05-21 05:17:31</time>
      </trkpt>
      <trkpt lat="42.04574" lon="2.46972">
        <ele>949.4</ele>
        <time>2022-05-21 05:17:32</time>
      </trkpt>
      <trkpt lat="42.04578" lon="2.46974">
        <ele>949.6</ele>
        <time>2022-05-21 05:17:33</time>
      </trkpt>
      <trkpt lat="42.04581" lon="2.46975">
        <ele>949.8</ele>
        <time>2022-05-21 05:17:34</time>
      </trkpt>
      <trkpt lat="42.04584" lon="2.46976">
        <ele>950</ele>
        <time>2022-05-21 05:17:35</time>
      </trkpt>
      <trkpt lat="42.04587" lon="2.46978">
        <ele>950.2</ele>
        <time>2022-05-21 05:17:36</time>
      </trkpt>
      <trkpt lat="42.0459" lon="2.46979">
        <ele>950.4</ele>
        <time>2022-05-21 05:17:37</time>
      </trkpt>
      <trkpt lat="42.04593" lon="2.4698">
        <ele>950.6</ele>
        <time>2022-05-21 05:17:38</time>
      </trkpt>
      <trkpt lat="42.04596" lon="2.46981">
        <ele>950.6</ele>
        <time>2022-05-21 05:17:39</time>
      </trkpt>
      <trkpt lat="42.04599" lon="2.46983">
        <ele>950.8</ele>
        <time>2022-05-21 05:17:40</time>
      </trkpt>
      <trkpt lat="42.04602" lon="2.46984">
        <ele>951</ele>
        <time>2022-05-21 05:17:41</time>
      </trkpt>
      <trkpt lat="42.04605" lon="2.46986">
        <ele>951.2</ele>
        <time>2022-05-21 05:17:42</time>
      </trkpt>
      <trkpt lat="42.04608" lon="2.46987">
        <ele>951.4</ele>
        <time>2022-05-21 05:17:43</time>
      </trkpt>
      <trkpt lat="42.0461" lon="2.46989">
        <ele>951.6</ele>
        <time>2022-05-21 05:17:44</time>
      </trkpt>
      <trkpt lat="42.04613" lon="2.4699">
        <ele>951.8</ele>
        <time>2022-05-21 05:17:45</time>
      </trkpt>
      <trkpt lat="42.04616" lon="2.46992">
        <ele>952</ele>
        <time>2022-05-21 05:17:46</time>
      </trkpt>
      <trkpt lat="42.04618" lon="2.46993">
        <ele>952.2</ele>
        <time>2022-05-21 05:17:47</time>
      </trkpt>
      <trkpt lat="42.04622" lon="2.46995">
        <ele>952.2</ele>
        <time>2022-05-21 05:17:48</time>
      </trkpt>
      <trkpt lat="42.04624" lon="2.46996">
        <ele>952.4</ele>
        <time>2022-05-21 05:17:49</time>
      </trkpt>
      <trkpt lat="42.04627" lon="2.46998">
        <ele>952.6</ele>
        <time>2022-05-21 05:17:50</time>
      </trkpt>
      <trkpt lat="42.0463" lon="2.46999">
        <ele>952.8</ele>
        <time>2022-05-21 05:17:51</time>
      </trkpt>
      <trkpt lat="42.04633" lon="2.47">
        <ele>953</ele>
        <time>2022-05-21 05:17:52</time>
      </trkpt>
      <trkpt lat="42.04636" lon="2.47001">
        <ele>953.2</ele>
        <time>2022-05-21 05:17:53</time>
      </trkpt>
      <trkpt lat="42.04639" lon="2.47002">
        <ele>953.2</ele>
        <time>2022-05-21 05:17:54</time>
      </trkpt>
      <trkpt lat="42.04642" lon="2.47004">
        <ele>953.4</ele>
        <time>2022-05-21 05:17:55</time>
      </trkpt>
      <trkpt lat="42.04645" lon="2.47005">
        <ele>953.6</ele>
        <time>2022-05-21 05:17:56</time>
      </trkpt>
      <trkpt lat="42.04648" lon="2.47006">
        <ele>953.8</ele>
        <time>2022-05-21 05:17:57</time>
      </trkpt>
      <trkpt lat="42.04651" lon="2.47007">
        <ele>953.8</ele>
        <time>2022-05-21 05:17:58</time>
      </trkpt>
      <trkpt lat="42.04655" lon="2.47009">
        <ele>954</ele>
        <time>2022-05-21 05:17:59</time>
      </trkpt>
      <trkpt lat="42.04658" lon="2.4701">
        <ele>954.2</ele>
        <time>2022-05-21 05:18:00</time>
      </trkpt>
      <trkpt lat="42.04662" lon="2.47012">
        <ele>954.4</ele>
        <time>2022-05-21 05:18:01</time>
      </trkpt>
      <trkpt lat="42.04665" lon="2.47013">
        <ele>954.6</ele>
        <time>2022-05-21 05:18:02</time>
      </trkpt>
      <trkpt lat="42.04668" lon="2.47014">
        <ele>954.8</ele>
        <time>2022-05-21 05:18:03</time>
      </trkpt>
      <trkpt lat="42.04672" lon="2.47015">
        <ele>955</ele>
        <time>2022-05-21 05:18:04</time>
      </trkpt>
      <trkpt lat="42.04676" lon="2.47016">
        <ele>955</ele>
        <time>2022-05-21 05:18:05</time>
      </trkpt>
      <trkpt lat="42.04679" lon="2.47018">
        <ele>955.2</ele>
        <time>2022-05-21 05:18:06</time>
      </trkpt>
      <trkpt lat="42.04683" lon="2.47019">
        <ele>955.4</ele>
        <time>2022-05-21 05:18:07</time>
      </trkpt>
      <trkpt lat="42.04686" lon="2.47021">
        <ele>955.6</ele>
        <time>2022-05-21 05:18:08</time>
      </trkpt>
      <trkpt lat="42.04689" lon="2.47022">
        <ele>955.8</ele>
        <time>2022-05-21 05:18:09</time>
      </trkpt>
      <trkpt lat="42.04692" lon="2.47023">
        <ele>956</ele>
        <time>2022-05-21 05:18:10</time>
      </trkpt>
      <trkpt lat="42.04696" lon="2.47025">
        <ele>956.2</ele>
        <time>2022-05-21 05:18:11</time>
      </trkpt>
      <trkpt lat="42.04699" lon="2.47026">
        <ele>956.2</ele>
        <time>2022-05-21 05:18:12</time>
      </trkpt>
      <trkpt lat="42.04702" lon="2.47027">
        <ele>956.4</ele>
        <time>2022-05-21 05:18:13</time>
      </trkpt>
      <trkpt lat="42.04706" lon="2.47029">
        <ele>956.6</ele>
        <time>2022-05-21 05:18:14</time>
      </trkpt>
      <trkpt lat="42.04709" lon="2.4703">
        <ele>956.8</ele>
        <time>2022-05-21 05:18:15</time>
      </trkpt>
      <trkpt lat="42.04713" lon="2.47032">
        <ele>957</ele>
        <time>2022-05-21 05:18:16</time>
      </trkpt>
      <trkpt lat="42.04716" lon="2.47033">
        <ele>957.2</ele>
        <time>2022-05-21 05:18:17</time>
      </trkpt>
      <trkpt lat="42.04719" lon="2.47035">
        <ele>957.2</ele>
        <time>2022-05-21 05:18:18</time>
      </trkpt>
      <trkpt lat="42.04723" lon="2.47036">
        <ele>957.4</ele>
        <time>2022-05-21 05:18:19</time>
      </trkpt>
      <trkpt lat="42.04726" lon="2.47038">
        <ele>957.6</ele>
        <time>2022-05-21 05:18:20</time>
      </trkpt>
      <trkpt lat="42.04729" lon="2.47039">
        <ele>957.8</ele>
        <time>2022-05-21 05:18:21</time>
      </trkpt>
      <trkpt lat="42.04733" lon="2.4704">
        <ele>958</ele>
        <time>2022-05-21 05:18:22</time>
      </trkpt>
      <trkpt lat="42.04736" lon="2.47042">
        <ele>958.2</ele>
        <time>2022-05-21 05:18:23</time>
      </trkpt>
      <trkpt lat="42.04739" lon="2.47043">
        <ele>958.4</ele>
        <time>2022-05-21 05:18:24</time>
      </trkpt>
      <trkpt lat="42.04743" lon="2.47044">
        <ele>958.6</ele>
        <time>2022-05-21 05:18:25</time>
      </trkpt>
      <trkpt lat="42.04746" lon="2.47046">
        <ele>958.8</ele>
        <time>2022-05-21 05:18:26</time>
      </trkpt>
      <trkpt lat="42.04749" lon="2.47047">
        <ele>959</ele>
        <time>2022-05-21 05:18:27</time>
      </trkpt>
      <trkpt lat="42.04753" lon="2.47048">
        <ele>959.2</ele>
        <time>2022-05-21 05:18:28</time>
      </trkpt>
      <trkpt lat="42.04756" lon="2.4705">
        <ele>959.4</ele>
        <time>2022-05-21 05:18:29</time>
      </trkpt>
      <trkpt lat="42.04759" lon="2.47051">
        <ele>959.6</ele>
        <time>2022-05-21 05:18:30</time>
      </trkpt>
      <trkpt lat="42.04763" lon="2.47052">
        <ele>959.6</ele>
        <time>2022-05-21 05:18:31</time>
      </trkpt>
      <trkpt lat="42.04766" lon="2.47053">
        <ele>959.8</ele>
        <time>2022-05-21 05:18:32</time>
      </trkpt>
      <trkpt lat="42.04769" lon="2.47053">
        <ele>960</ele>
        <time>2022-05-21 05:18:33</time>
      </trkpt>
      <trkpt lat="42.04772" lon="2.47055">
        <ele>960.2</ele>
        <time>2022-05-21 05:18:34</time>
      </trkpt>
      <trkpt lat="42.04776" lon="2.47056">
        <ele>960.4</ele>
        <time>2022-05-21 05:18:35</time>
      </trkpt>
      <trkpt lat="42.04779" lon="2.47056">
        <ele>960.6</ele>
        <time>2022-05-21 05:18:36</time>
      </trkpt>
      <trkpt lat="42.04782" lon="2.47057">
        <ele>960.8</ele>
        <time>2022-05-21 05:18:37</time>
      </trkpt>
      <trkpt lat="42.04786" lon="2.47058">
        <ele>961</ele>
        <time>2022-05-21 05:18:38</time>
      </trkpt>
      <trkpt lat="42.04789" lon="2.47059">
        <ele>961.2</ele>
        <time>2022-05-21 05:18:39</time>
      </trkpt>
      <trkpt lat="42.04792" lon="2.4706">
        <ele>961.4</ele>
        <time>2022-05-21 05:18:40</time>
      </trkpt>
      <trkpt lat="42.04795" lon="2.47061">
        <ele>961.6</ele>
        <time>2022-05-21 05:18:41</time>
      </trkpt>
      <trkpt lat="42.04799" lon="2.47062">
        <ele>961.6</ele>
        <time>2022-05-21 05:18:42</time>
      </trkpt>
      <trkpt lat="42.04802" lon="2.47062">
        <ele>961.8</ele>
        <time>2022-05-21 05:18:43</time>
      </trkpt>
      <trkpt lat="42.04805" lon="2.47063">
        <ele>962</ele>
        <time>2022-05-21 05:18:44</time>
      </trkpt>
      <trkpt lat="42.04808" lon="2.47064">
        <ele>962.2</ele>
        <time>2022-05-21 05:18:45</time>
      </trkpt>
      <trkpt lat="42.04811" lon="2.47065">
        <ele>962.4</ele>
        <time>2022-05-21 05:18:46</time>
      </trkpt>
      <trkpt lat="42.04814" lon="2.47065">
        <ele>962.6</ele>
        <time>2022-05-21 05:18:47</time>
      </trkpt>
      <trkpt lat="42.04817" lon="2.47066">
        <ele>962.8</ele>
        <time>2022-05-21 05:18:48</time>
      </trkpt>
      <trkpt lat="42.0482" lon="2.47067">
        <ele>963</ele>
        <time>2022-05-21 05:18:49</time>
      </trkpt>
      <trkpt lat="42.04823" lon="2.47068">
        <ele>963</ele>
        <time>2022-05-21 05:18:50</time>
      </trkpt>
      <trkpt lat="42.04826" lon="2.47068">
        <ele>963.2</ele>
        <time>2022-05-21 05:18:51</time>
      </trkpt>
      <trkpt lat="42.0483" lon="2.47069">
        <ele>963.4</ele>
        <time>2022-05-21 05:18:52</time>
      </trkpt>
      <trkpt lat="42.04833" lon="2.4707">
        <ele>963.6</ele>
        <time>2022-05-21 05:18:53</time>
      </trkpt>
      <trkpt lat="42.04837" lon="2.4707">
        <ele>963.6</ele>
        <time>2022-05-21 05:18:54</time>
      </trkpt>
      <trkpt lat="42.0484" lon="2.47071">
        <ele>963.8</ele>
        <time>2022-05-21 05:18:55</time>
      </trkpt>
      <trkpt lat="42.04844" lon="2.47072">
        <ele>964</ele>
        <time>2022-05-21 05:18:56</time>
      </trkpt>
      <trkpt lat="42.04847" lon="2.47072">
        <ele>964.2</ele>
        <time>2022-05-21 05:18:57</time>
      </trkpt>
      <trkpt lat="42.0485" lon="2.47073">
        <ele>964.2</ele>
        <time>2022-05-21 05:18:58</time>
      </trkpt>
      <trkpt lat="42.04853" lon="2.47074">
        <ele>964.4</ele>
        <time>2022-05-21 05:18:59</time>
      </trkpt>
      <trkpt lat="42.04856" lon="2.47075">
        <ele>964.6</ele>
        <time>2022-05-21 05:19:00</time>
      </trkpt>
      <trkpt lat="42.0486" lon="2.47075">
        <ele>964.8</ele>
        <time>2022-05-21 05:19:01</time>
      </trkpt>
      <trkpt lat="42.04863" lon="2.47076">
        <ele>965</ele>
        <time>2022-05-21 05:19:02</time>
      </trkpt>
      <trkpt lat="42.04866" lon="2.47077">
        <ele>965.2</ele>
        <time>2022-05-21 05:19:03</time>
      </trkpt>
      <trkpt lat="42.04869" lon="2.47078">
        <ele>965.2</ele>
        <time>2022-05-21 05:19:04</time>
      </trkpt>
      <trkpt lat="42.04872" lon="2.47079">
        <ele>965.4</ele>
        <time>2022-05-21 05:19:05</time>
      </trkpt>
      <trkpt lat="42.04875" lon="2.4708">
        <ele>965.6</ele>
        <time>2022-05-21 05:19:06</time>
      </trkpt>
      <trkpt lat="42.04878" lon="2.4708">
        <ele>965.8</ele>
        <time>2022-05-21 05:19:07</time>
      </trkpt>
      <trkpt lat="42.04881" lon="2.47081">
        <ele>966</ele>
        <time>2022-05-21 05:19:08</time>
      </trkpt>
      <trkpt lat="42.04884" lon="2.47081">
        <ele>966.2</ele>
        <time>2022-05-21 05:19:09</time>
      </trkpt>
      <trkpt lat="42.04887" lon="2.47082">
        <ele>966.4</ele>
        <time>2022-05-21 05:19:10</time>
      </trkpt>
      <trkpt lat="42.0489" lon="2.47082">
        <ele>966.6</ele>
        <time>2022-05-21 05:19:11</time>
      </trkpt>
      <trkpt lat="42.04893" lon="2.47083">
        <ele>966.8</ele>
        <time>2022-05-21 05:19:12</time>
      </trkpt>
      <trkpt lat="42.04897" lon="2.47084">
        <ele>967</ele>
        <time>2022-05-21 05:19:13</time>
      </trkpt>
      <trkpt lat="42.049" lon="2.47085">
        <ele>967.2</ele>
        <time>2022-05-21 05:19:14</time>
      </trkpt>
      <trkpt lat="42.04903" lon="2.47086">
        <ele>967.2</ele>
        <time>2022-05-21 05:19:15</time>
      </trkpt>
      <trkpt lat="42.04906" lon="2.47086">
        <ele>967.4</ele>
        <time>2022-05-21 05:19:16</time>
      </trkpt>
      <trkpt lat="42.0491" lon="2.47087">
        <ele>967.6</ele>
        <time>2022-05-21 05:19:17</time>
      </trkpt>
      <trkpt lat="42.04913" lon="2.47087">
        <ele>967.8</ele>
        <time>2022-05-21 05:19:18</time>
      </trkpt>
      <trkpt lat="42.04916" lon="2.47088">
        <ele>968</ele>
        <time>2022-05-21 05:19:19</time>
      </trkpt>
      <trkpt lat="42.0492" lon="2.47089">
        <ele>968.2</ele>
        <time>2022-05-21 05:19:20</time>
      </trkpt>
      <trkpt lat="42.04923" lon="2.4709">
        <ele>968.4</ele>
        <time>2022-05-21 05:19:21</time>
      </trkpt>
      <trkpt lat="42.04927" lon="2.47091">
        <ele>968.4</ele>
        <time>2022-05-21 05:19:22</time>
      </trkpt>
      <trkpt lat="42.0493" lon="2.47091">
        <ele>968.6</ele>
        <time>2022-05-21 05:19:23</time>
      </trkpt>
      <trkpt lat="42.04934" lon="2.47092">
        <ele>968.8</ele>
        <time>2022-05-21 05:19:24</time>
      </trkpt>
      <trkpt lat="42.04937" lon="2.47093">
        <ele>969</ele>
        <time>2022-05-21 05:19:25</time>
      </trkpt>
      <trkpt lat="42.0494" lon="2.47094">
        <ele>969.2</ele>
        <time>2022-05-21 05:19:26</time>
      </trkpt>
      <trkpt lat="42.04943" lon="2.47095">
        <ele>969.2</ele>
        <time>2022-05-21 05:19:27</time>
      </trkpt>
      <trkpt lat="42.04947" lon="2.47096">
        <ele>969.4</ele>
        <time>2022-05-21 05:19:28</time>
      </trkpt>
      <trkpt lat="42.0495" lon="2.47096">
        <ele>969.6</ele>
        <time>2022-05-21 05:19:29</time>
      </trkpt>
      <trkpt lat="42.04953" lon="2.47097">
        <ele>969.8</ele>
        <time>2022-05-21 05:19:30</time>
      </trkpt>
      <trkpt lat="42.04956" lon="2.47098">
        <ele>969.8</ele>
        <time>2022-05-21 05:19:31</time>
      </trkpt>
      <trkpt lat="42.04959" lon="2.47099">
        <ele>970</ele>
        <time>2022-05-21 05:19:32</time>
      </trkpt>
      <trkpt lat="42.04963" lon="2.471">
        <ele>970.2</ele>
        <time>2022-05-21 05:19:33</time>
      </trkpt>
      <trkpt lat="42.04966" lon="2.471">
        <ele>970.4</ele>
        <time>2022-05-21 05:19:34</time>
      </trkpt>
      <trkpt lat="42.04969" lon="2.47101">
        <ele>970.4</ele>
        <time>2022-05-21 05:19:35</time>
      </trkpt>
      <trkpt lat="42.04972" lon="2.47101">
        <ele>970.6</ele>
        <time>2022-05-21 05:19:36</time>
      </trkpt>
      <trkpt lat="42.04976" lon="2.47102">
        <ele>970.8</ele>
        <time>2022-05-21 05:19:37</time>
      </trkpt>
      <trkpt lat="42.04979" lon="2.47103">
        <ele>971</ele>
        <time>2022-05-21 05:19:38</time>
      </trkpt>
      <trkpt lat="42.04982" lon="2.47104">
        <ele>971.2</ele>
        <time>2022-05-21 05:19:39</time>
      </trkpt>
      <trkpt lat="42.04985" lon="2.47104">
        <ele>971.2</ele>
        <time>2022-05-21 05:19:40</time>
      </trkpt>
      <trkpt lat="42.04988" lon="2.47105">
        <ele>971.4</ele>
        <time>2022-05-21 05:19:41</time>
      </trkpt>
      <trkpt lat="42.04991" lon="2.47106">
        <ele>971.6</ele>
        <time>2022-05-21 05:19:42</time>
      </trkpt>
      <trkpt lat="42.04994" lon="2.47106">
        <ele>971.8</ele>
        <time>2022-05-21 05:19:43</time>
      </trkpt>
      <trkpt lat="42.04997" lon="2.47107">
        <ele>972</ele>
        <time>2022-05-21 05:19:44</time>
      </trkpt>
      <trkpt lat="42.05" lon="2.47108">
        <ele>972</ele>
        <time>2022-05-21 05:19:45</time>
      </trkpt>
      <trkpt lat="42.05003" lon="2.47109">
        <ele>972.2</ele>
        <time>2022-05-21 05:19:46</time>
      </trkpt>
      <trkpt lat="42.05006" lon="2.4711">
        <ele>972.4</ele>
        <time>2022-05-21 05:19:47</time>
      </trkpt>
      <trkpt lat="42.0501" lon="2.47111">
        <ele>972.6</ele>
        <time>2022-05-21 05:19:48</time>
      </trkpt>
      <trkpt lat="42.05013" lon="2.47111">
        <ele>972.8</ele>
        <time>2022-05-21 05:19:49</time>
      </trkpt>
      <trkpt lat="42.05016" lon="2.47112">
        <ele>973</ele>
        <time>2022-05-21 05:19:50</time>
      </trkpt>
      <trkpt lat="42.05019" lon="2.47113">
        <ele>973.2</ele>
        <time>2022-05-21 05:19:51</time>
      </trkpt>
      <trkpt lat="42.05022" lon="2.47114">
        <ele>973.2</ele>
        <time>2022-05-21 05:19:52</time>
      </trkpt>
      <trkpt lat="42.05025" lon="2.47115">
        <ele>973.4</ele>
        <time>2022-05-21 05:19:53</time>
      </trkpt>
      <trkpt lat="42.05028" lon="2.47115">
        <ele>973.6</ele>
        <time>2022-05-21 05:19:54</time>
      </trkpt>
      <trkpt lat="42.05031" lon="2.47116">
        <ele>973.8</ele>
        <time>2022-05-21 05:19:55</time>
      </trkpt>
      <trkpt lat="42.05035" lon="2.47116">
        <ele>974</ele>
        <time>2022-05-21 05:19:56</time>
      </trkpt>
      <trkpt lat="42.05038" lon="2.47117">
        <ele>974</ele>
        <time>2022-05-21 05:19:57</time>
      </trkpt>
      <trkpt lat="42.05041" lon="2.47118">
        <ele>974.2</ele>
        <time>2022-05-21 05:19:58</time>
      </trkpt>
      <trkpt lat="42.05044" lon="2.47118">
        <ele>974.4</ele>
        <time>2022-05-21 05:19:59</time>
      </trkpt>
      <trkpt lat="42.05047" lon="2.47119">
        <ele>974.6</ele>
        <time>2022-05-21 05:20:00</time>
      </trkpt>
      <trkpt lat="42.0505" lon="2.4712">
        <ele>974.8</ele>
        <time>2022-05-21 05:20:01</time>
      </trkpt>
      <trkpt lat="42.05053" lon="2.4712">
        <ele>975</ele>
        <time>2022-05-21 05:20:02</time>
      </trkpt>
      <trkpt lat="42.05056" lon="2.47121">
        <ele>975.2</ele>
        <time>2022-05-21 05:20:03</time>
      </trkpt>
      <trkpt lat="42.05059" lon="2.47122">
        <ele>975.4</ele>
        <time>2022-05-21 05:20:04</time>
      </trkpt>
      <trkpt lat="42.05062" lon="2.47122">
        <ele>975.4</ele>
        <time>2022-05-21 05:20:05</time>
      </trkpt>
      <trkpt lat="42.05066" lon="2.47123">
        <ele>975.6</ele>
        <time>2022-05-21 05:20:06</time>
      </trkpt>
      <trkpt lat="42.05069" lon="2.47123">
        <ele>975.8</ele>
        <time>2022-05-21 05:20:07</time>
      </trkpt>
      <trkpt lat="42.05072" lon="2.47124">
        <ele>976</ele>
        <time>2022-05-21 05:20:08</time>
      </trkpt>
      <trkpt lat="42.05075" lon="2.47124">
        <ele>976.2</ele>
        <time>2022-05-21 05:20:09</time>
      </trkpt>
      <trkpt lat="42.05079" lon="2.47125">
        <ele>976.4</ele>
        <time>2022-05-21 05:20:10</time>
      </trkpt>
      <trkpt lat="42.05082" lon="2.47125">
        <ele>976.4</ele>
        <time>2022-05-21 05:20:11</time>
      </trkpt>
      <trkpt lat="42.05085" lon="2.47126">
        <ele>976.6</ele>
        <time>2022-05-21 05:20:12</time>
      </trkpt>
      <trkpt lat="42.05089" lon="2.47126">
        <ele>976.8</ele>
        <time>2022-05-21 05:20:13</time>
      </trkpt>
      <trkpt lat="42.05092" lon="2.47127">
        <ele>977</ele>
        <time>2022-05-21 05:20:14</time>
      </trkpt>
      <trkpt lat="42.05095" lon="2.47128">
        <ele>977.2</ele>
        <time>2022-05-21 05:20:15</time>
      </trkpt>
      <trkpt lat="42.05099" lon="2.47129">
        <ele>977.4</ele>
        <time>2022-05-21 05:20:16</time>
      </trkpt>
      <trkpt lat="42.05102" lon="2.4713">
        <ele>977.4</ele>
        <time>2022-05-21 05:20:17</time>
      </trkpt>
      <trkpt lat="42.05106" lon="2.47131">
        <ele>977.6</ele>
        <time>2022-05-21 05:20:18</time>
      </trkpt>
      <trkpt lat="42.05109" lon="2.47132">
        <ele>977.8</ele>
        <time>2022-05-21 05:20:19</time>
      </trkpt>
      <trkpt lat="42.05113" lon="2.47133">
        <ele>978</ele>
        <time>2022-05-21 05:20:20</time>
      </trkpt>
      <trkpt lat="42.05117" lon="2.47133">
        <ele>978.2</ele>
        <time>2022-05-21 05:20:21</time>
      </trkpt>
      <trkpt lat="42.0512" lon="2.47134">
        <ele>978.4</ele>
        <time>2022-05-21 05:20:22</time>
      </trkpt>
      <trkpt lat="42.05124" lon="2.47135">
        <ele>978.6</ele>
        <time>2022-05-21 05:20:23</time>
      </trkpt>
      <trkpt lat="42.05127" lon="2.47135">
        <ele>978.6</ele>
        <time>2022-05-21 05:20:24</time>
      </trkpt>
      <trkpt lat="42.0513" lon="2.47136">
        <ele>978.8</ele>
        <time>2022-05-21 05:20:25</time>
      </trkpt>
      <trkpt lat="42.05133" lon="2.47137">
        <ele>979</ele>
        <time>2022-05-21 05:20:26</time>
      </trkpt>
      <trkpt lat="42.05137" lon="2.47138">
        <ele>979.2</ele>
        <time>2022-05-21 05:20:27</time>
      </trkpt>
      <trkpt lat="42.05141" lon="2.47138">
        <ele>979.4</ele>
        <time>2022-05-21 05:20:28</time>
      </trkpt>
      <trkpt lat="42.05144" lon="2.47139">
        <ele>979.4</ele>
        <time>2022-05-21 05:20:29</time>
      </trkpt>
      <trkpt lat="42.05148" lon="2.47141">
        <ele>979.6</ele>
        <time>2022-05-21 05:20:30</time>
      </trkpt>
      <trkpt lat="42.05151" lon="2.47142">
        <ele>979.8</ele>
        <time>2022-05-21 05:20:31</time>
      </trkpt>
      <trkpt lat="42.05155" lon="2.47142">
        <ele>980</ele>
        <time>2022-05-21 05:20:32</time>
      </trkpt>
      <trkpt lat="42.05159" lon="2.47143">
        <ele>980.2</ele>
        <time>2022-05-21 05:20:33</time>
      </trkpt>
      <trkpt lat="42.05163" lon="2.47144">
        <ele>980.4</ele>
        <time>2022-05-21 05:20:34</time>
      </trkpt>
      <trkpt lat="42.05166" lon="2.47145">
        <ele>980.6</ele>
        <time>2022-05-21 05:20:35</time>
      </trkpt>
      <trkpt lat="42.0517" lon="2.47145">
        <ele>980.8</ele>
        <time>2022-05-21 05:20:36</time>
      </trkpt>
      <trkpt lat="42.05173" lon="2.47146">
        <ele>981</ele>
        <time>2022-05-21 05:20:37</time>
      </trkpt>
      <trkpt lat="42.05177" lon="2.47147">
        <ele>981.2</ele>
        <time>2022-05-21 05:20:38</time>
      </trkpt>
      <trkpt lat="42.0518" lon="2.47148">
        <ele>981.4</ele>
        <time>2022-05-21 05:20:39</time>
      </trkpt>
      <trkpt lat="42.05183" lon="2.47148">
        <ele>981.4</ele>
        <time>2022-05-21 05:20:40</time>
      </trkpt>
      <trkpt lat="42.05186" lon="2.47149">
        <ele>981.6</ele>
        <time>2022-05-21 05:20:41</time>
      </trkpt>
      <trkpt lat="42.0519" lon="2.47151">
        <ele>981.8</ele>
        <time>2022-05-21 05:20:42</time>
      </trkpt>
      <trkpt lat="42.05193" lon="2.47152">
        <ele>982</ele>
        <time>2022-05-21 05:20:43</time>
      </trkpt>
      <trkpt lat="42.05196" lon="2.47153">
        <ele>982.2</ele>
        <time>2022-05-21 05:20:44</time>
      </trkpt>
      <trkpt lat="42.052" lon="2.47155">
        <ele>982.4</ele>
        <time>2022-05-21 05:20:45</time>
      </trkpt>
      <trkpt lat="42.05203" lon="2.47157">
        <ele>982.4</ele>
        <time>2022-05-21 05:20:46</time>
      </trkpt>
      <trkpt lat="42.05206" lon="2.47159">
        <ele>982.6</ele>
        <time>2022-05-21 05:20:47</time>
      </trkpt>
      <trkpt lat="42.05209" lon="2.47162">
        <ele>982.6</ele>
        <time>2022-05-21 05:20:48</time>
      </trkpt>
      <trkpt lat="42.05212" lon="2.47166">
        <ele>982.6</ele>
        <time>2022-05-21 05:20:49</time>
      </trkpt>
      <trkpt lat="42.05215" lon="2.4717">
        <ele>982.8</ele>
        <time>2022-05-21 05:20:50</time>
      </trkpt>
      <trkpt lat="42.05218" lon="2.47175">
        <ele>982.8</ele>
        <time>2022-05-21 05:20:51</time>
      </trkpt>
      <trkpt lat="42.0522" lon="2.4718">
        <ele>982.6</ele>
        <time>2022-05-21 05:20:52</time>
      </trkpt>
      <trkpt lat="42.05222" lon="2.47186">
        <ele>982.6</ele>
        <time>2022-05-21 05:20:53</time>
      </trkpt>
      <trkpt lat="42.05223" lon="2.47192">
        <ele>982.6</ele>
        <time>2022-05-21 05:20:54</time>
      </trkpt>
      <trkpt lat="42.05223" lon="2.47199">
        <ele>982.6</ele>
        <time>2022-05-21 05:20:55</time>
      </trkpt>
      <trkpt lat="42.05224" lon="2.47205">
        <ele>982.6</ele>
        <time>2022-05-21 05:20:56</time>
      </trkpt>
      <trkpt lat="42.05224" lon="2.47212">
        <ele>982.6</ele>
        <time>2022-05-21 05:20:57</time>
      </trkpt>
      <trkpt lat="42.05223" lon="2.47219">
        <ele>982.6</ele>
        <time>2022-05-21 05:20:58</time>
      </trkpt>
      <trkpt lat="42.05223" lon="2.47226">
        <ele>982.4</ele>
        <time>2022-05-21 05:20:59</time>
      </trkpt>
      <trkpt lat="42.05221" lon="2.47232">
        <ele>982.4</ele>
        <time>2022-05-21 05:21:00</time>
      </trkpt>
      <trkpt lat="42.05219" lon="2.47239">
        <ele>982.2</ele>
        <time>2022-05-21 05:21:01</time>
      </trkpt>
      <trkpt lat="42.05217" lon="2.47246">
        <ele>982.2</ele>
        <time>2022-05-21 05:21:02</time>
      </trkpt>
      <trkpt lat="42.05214" lon="2.47252">
        <ele>982.2</ele>
        <time>2022-05-21 05:21:03</time>
      </trkpt>
      <trkpt lat="42.05212" lon="2.47259">
        <ele>982.2</ele>
        <time>2022-05-21 05:21:04</time>
      </trkpt>
      <trkpt lat="42.05208" lon="2.47265">
        <ele>982</ele>
        <time>2022-05-21 05:21:05</time>
      </trkpt>
      <trkpt lat="42.05204" lon="2.47271">
        <ele>982</ele>
        <time>2022-05-21 05:21:06</time>
      </trkpt>
      <trkpt lat="42.052" lon="2.47275">
        <ele>982</ele>
        <time>2022-05-21 05:21:07</time>
      </trkpt>
      <trkpt lat="42.05195" lon="2.4728">
        <ele>981.8</ele>
        <time>2022-05-21 05:21:08</time>
      </trkpt>
      <trkpt lat="42.05189" lon="2.47283">
        <ele>981.8</ele>
        <time>2022-05-21 05:21:09</time>
      </trkpt>
      <trkpt lat="42.05183" lon="2.47286">
        <ele>981.8</ele>
        <time>2022-05-21 05:21:10</time>
      </trkpt>
      <trkpt lat="42.05178" lon="2.47288">
        <ele>981.8</ele>
        <time>2022-05-21 05:21:11</time>
      </trkpt>
      <trkpt lat="42.05172" lon="2.4729">
        <ele>981.6</ele>
        <time>2022-05-21 05:21:12</time>
      </trkpt>
      <trkpt lat="42.05165" lon="2.47291">
        <ele>981.6</ele>
        <time>2022-05-21 05:21:13</time>
      </trkpt>
      <trkpt lat="42.05159" lon="2.4729">
        <ele>981.6</ele>
        <time>2022-05-21 05:21:14</time>
      </trkpt>
      <trkpt lat="42.05153" lon="2.47289">
        <ele>981.6</ele>
        <time>2022-05-21 05:21:15</time>
      </trkpt>
      <trkpt lat="42.05146" lon="2.47288">
        <ele>981.6</ele>
        <time>2022-05-21 05:21:16</time>
      </trkpt>
      <trkpt lat="42.0514" lon="2.47287">
        <ele>981.6</ele>
        <time>2022-05-21 05:21:17</time>
      </trkpt>
      <trkpt lat="42.05133" lon="2.47286">
        <ele>981.6</ele>
        <time>2022-05-21 05:21:18</time>
      </trkpt>
      <trkpt lat="42.05127" lon="2.47285">
        <ele>981.6</ele>
        <time>2022-05-21 05:21:19</time>
      </trkpt>
      <trkpt lat="42.05121" lon="2.47284">
        <ele>981.4</ele>
        <time>2022-05-21 05:21:20</time>
      </trkpt>
      <trkpt lat="42.05115" lon="2.47282">
        <ele>981.4</ele>
        <time>2022-05-21 05:21:21</time>
      </trkpt>
      <trkpt lat="42.05109" lon="2.47281">
        <ele>981.4</ele>
        <time>2022-05-21 05:21:22</time>
      </trkpt>
      <trkpt lat="42.05103" lon="2.47279">
        <ele>981.4</ele>
        <time>2022-05-21 05:21:23</time>
      </trkpt>
      <trkpt lat="42.05097" lon="2.47278">
        <ele>981.4</ele>
        <time>2022-05-21 05:21:24</time>
      </trkpt>
      <trkpt lat="42.05092" lon="2.47277">
        <ele>981.2</ele>
        <time>2022-05-21 05:21:25</time>
      </trkpt>
      <trkpt lat="42.05086" lon="2.47277">
        <ele>981.2</ele>
        <time>2022-05-21 05:21:26</time>
      </trkpt>
      <trkpt lat="42.0508" lon="2.47278">
        <ele>981.2</ele>
        <time>2022-05-21 05:21:27</time>
      </trkpt>
      <trkpt lat="42.05074" lon="2.47279">
        <ele>981</ele>
        <time>2022-05-21 05:21:28</time>
      </trkpt>
      <trkpt lat="42.05067" lon="2.47281">
        <ele>980.8</ele>
        <time>2022-05-21 05:21:29</time>
      </trkpt>
      <trkpt lat="42.05061" lon="2.47283">
        <ele>980.6</ele>
        <time>2022-05-21 05:21:30</time>
      </trkpt>
      <trkpt lat="42.05054" lon="2.47286">
        <ele>980.4</ele>
        <time>2022-05-21 05:21:31</time>
      </trkpt>
      <trkpt lat="42.05047" lon="2.47289">
        <ele>980.2</ele>
        <time>2022-05-21 05:21:32</time>
      </trkpt>
      <trkpt lat="42.0504" lon="2.47293">
        <ele>980.2</ele>
        <time>2022-05-21 05:21:33</time>
      </trkpt>
      <trkpt lat="42.05033" lon="2.47297">
        <ele>980</ele>
        <time>2022-05-21 05:21:34</time>
      </trkpt>
      <trkpt lat="42.05026" lon="2.473">
        <ele>979.8</ele>
        <time>2022-05-21 05:21:35</time>
      </trkpt>
      <trkpt lat="42.05019" lon="2.47305">
        <ele>979.6</ele>
        <time>2022-05-21 05:21:36</time>
      </trkpt>
      <trkpt lat="42.05014" lon="2.4731">
        <ele>979.6</ele>
        <time>2022-05-21 05:21:37</time>
      </trkpt>
      <trkpt lat="42.05008" lon="2.47318">
        <ele>979.4</ele>
        <time>2022-05-21 05:21:38</time>
      </trkpt>
      <trkpt lat="42.05005" lon="2.47326">
        <ele>979.2</ele>
        <time>2022-05-21 05:21:39</time>
      </trkpt>
      <trkpt lat="42.05003" lon="2.47336">
        <ele>979.2</ele>
        <time>2022-05-21 05:21:40</time>
      </trkpt>
      <trkpt lat="42.05001" lon="2.47346">
        <ele>979</ele>
        <time>2022-05-21 05:21:41</time>
      </trkpt>
      <trkpt lat="42.05" lon="2.47356">
        <ele>979</ele>
        <time>2022-05-21 05:21:42</time>
      </trkpt>
      <trkpt lat="42.04998" lon="2.47367">
        <ele>978.8</ele>
        <time>2022-05-21 05:21:43</time>
      </trkpt>
      <trkpt lat="42.04997" lon="2.47377">
        <ele>978.8</ele>
        <time>2022-05-21 05:21:44</time>
      </trkpt>
      <trkpt lat="42.04997" lon="2.47387">
        <ele>978.6</ele>
        <time>2022-05-21 05:21:45</time>
      </trkpt>
      <trkpt lat="42.04996" lon="2.47397">
        <ele>978.6</ele>
        <time>2022-05-21 05:21:46</time>
      </trkpt>
      <trkpt lat="42.04995" lon="2.47406">
        <ele>978.4</ele>
        <time>2022-05-21 05:21:47</time>
      </trkpt>
      <trkpt lat="42.04995" lon="2.47415">
        <ele>978.4</ele>
        <time>2022-05-21 05:21:48</time>
      </trkpt>
      <trkpt lat="42.04993" lon="2.47425">
        <ele>978.4</ele>
        <time>2022-05-21 05:21:49</time>
      </trkpt>
      <trkpt lat="42.04993" lon="2.47434">
        <ele>978.4</ele>
        <time>2022-05-21 05:21:50</time>
      </trkpt>
      <trkpt lat="42.04992" lon="2.47442">
        <ele>978.4</ele>
        <time>2022-05-21 05:21:51</time>
      </trkpt>
      <trkpt lat="42.04991" lon="2.47452">
        <ele>978.6</ele>
        <time>2022-05-21 05:21:52</time>
      </trkpt>
      <trkpt lat="42.0499" lon="2.47461">
        <ele>978.6</ele>
        <time>2022-05-21 05:21:53</time>
      </trkpt>
      <trkpt lat="42.04989" lon="2.47471">
        <ele>978.6</ele>
        <time>2022-05-21 05:21:54</time>
      </trkpt>
      <trkpt lat="42.04988" lon="2.47481">
        <ele>978.6</ele>
        <time>2022-05-21 05:21:55</time>
      </trkpt>
      <trkpt lat="42.04988" lon="2.4749">
        <ele>978.6</ele>
        <time>2022-05-21 05:21:56</time>
      </trkpt>
      <trkpt lat="42.04987" lon="2.47499">
        <ele>978.6</ele>
        <time>2022-05-21 05:21:57</time>
      </trkpt>
      <trkpt lat="42.04986" lon="2.47509">
        <ele>978.6</ele>
        <time>2022-05-21 05:21:58</time>
      </trkpt>
      <trkpt lat="42.04985" lon="2.47518">
        <ele>978.6</ele>
        <time>2022-05-21 05:21:59</time>
      </trkpt>
      <trkpt lat="42.04984" lon="2.47527">
        <ele>978.6</ele>
        <time>2022-05-21 05:22:00</time>
      </trkpt>
      <trkpt lat="42.04983" lon="2.47537">
        <ele>978.6</ele>
        <time>2022-05-21 05:22:01</time>
      </trkpt>
      <trkpt lat="42.04982" lon="2.47547">
        <ele>978.6</ele>
        <time>2022-05-21 05:22:02</time>
      </trkpt>
      <trkpt lat="42.0498" lon="2.47556">
        <ele>978.6</ele>
        <time>2022-05-21 05:22:03</time>
      </trkpt>
      <trkpt lat="42.0498" lon="2.47566">
        <ele>978.4</ele>
        <time>2022-05-21 05:22:04</time>
      </trkpt>
      <trkpt lat="42.04979" lon="2.47575">
        <ele>978.4</ele>
        <time>2022-05-21 05:22:05</time>
      </trkpt>
      <trkpt lat="42.04978" lon="2.47585">
        <ele>978.4</ele>
        <time>2022-05-21 05:22:06</time>
      </trkpt>
      <trkpt lat="42.04977" lon="2.47595">
        <ele>978.4</ele>
        <time>2022-05-21 05:22:07</time>
      </trkpt>
      <trkpt lat="42.04976" lon="2.47604">
        <ele>978.4</ele>
        <time>2022-05-21 05:22:08</time>
      </trkpt>
      <trkpt lat="42.04976" lon="2.47614">
        <ele>978.4</ele>
        <time>2022-05-21 05:22:09</time>
      </trkpt>
      <trkpt lat="42.04974" lon="2.47624">
        <ele>978.2</ele>
        <time>2022-05-21 05:22:10</time>
      </trkpt>
      <trkpt lat="42.04974" lon="2.47633">
        <ele>978.2</ele>
        <time>2022-05-21 05:22:11</time>
      </trkpt>
      <trkpt lat="42.04973" lon="2.47643">
        <ele>978.2</ele>
        <time>2022-05-21 05:22:12</time>
      </trkpt>
      <trkpt lat="42.04972" lon="2.47653">
        <ele>978.2</ele>
        <time>2022-05-21 05:22:13</time>
      </trkpt>
      <trkpt lat="42.04971" lon="2.47662">
        <ele>978.2</ele>
        <time>2022-05-21 05:22:14</time>
      </trkpt>
      <trkpt lat="42.04971" lon="2.47672">
        <ele>978.2</ele>
        <time>2022-05-21 05:22:15</time>
      </trkpt>
      <trkpt lat="42.0497" lon="2.47681">
        <ele>978.2</ele>
        <time>2022-05-21 05:22:16</time>
      </trkpt>
      <trkpt lat="42.04969" lon="2.4769">
        <ele>978.2</ele>
        <time>2022-05-21 05:22:17</time>
      </trkpt>
      <trkpt lat="42.04968" lon="2.47698">
        <ele>978.2</ele>
        <time>2022-05-21 05:22:18</time>
      </trkpt>
      <trkpt lat="42.04967" lon="2.47709">
        <ele>978.2</ele>
        <time>2022-05-21 05:22:19</time>
      </trkpt>
      <trkpt lat="42.04966" lon="2.47718">
        <ele>978.2</ele>
        <time>2022-05-21 05:22:20</time>
      </trkpt>
      <trkpt lat="42.04964" lon="2.47728">
        <ele>978.2</ele>
        <time>2022-05-21 05:22:21</time>
      </trkpt>
      <trkpt lat="42.04963" lon="2.47737">
        <ele>978.2</ele>
        <time>2022-05-21 05:22:22</time>
      </trkpt>
      <trkpt lat="42.04963" lon="2.47747">
        <ele>978.2</ele>
        <time>2022-05-21 05:22:23</time>
      </trkpt>
      <trkpt lat="42.04961" lon="2.47756">
        <ele>978.2</ele>
        <time>2022-05-21 05:22:24</time>
      </trkpt>
      <trkpt lat="42.04961" lon="2.47766">
        <ele>978.2</ele>
        <time>2022-05-21 05:22:25</time>
      </trkpt>
      <trkpt lat="42.0496" lon="2.47774">
        <ele>978.2</ele>
        <time>2022-05-21 05:22:26</time>
      </trkpt>
      <trkpt lat="42.04959" lon="2.47784">
        <ele>978.2</ele>
        <time>2022-05-21 05:22:27</time>
      </trkpt>
      <trkpt lat="42.04958" lon="2.47792">
        <ele>978.2</ele>
        <time>2022-05-21 05:22:28</time>
      </trkpt>
      <trkpt lat="42.04957" lon="2.47802">
        <ele>978.2</ele>
        <time>2022-05-21 05:22:29</time>
      </trkpt>
      <trkpt lat="42.04956" lon="2.47811">
        <ele>978.2</ele>
        <time>2022-05-21 05:22:30</time>
      </trkpt>
      <trkpt lat="42.04955" lon="2.4782">
        <ele>978.2</ele>
        <time>2022-05-21 05:22:31</time>
      </trkpt>
      <trkpt lat="42.04955" lon="2.47829">
        <ele>978.2</ele>
        <time>2022-05-21 05:22:32</time>
      </trkpt>
      <trkpt lat="42.04954" lon="2.47838">
        <ele>978.2</ele>
        <time>2022-05-21 05:22:33</time>
      </trkpt>
      <trkpt lat="42.04953" lon="2.47847">
        <ele>978</ele>
        <time>2022-05-21 05:22:34</time>
      </trkpt>
      <trkpt lat="42.04952" lon="2.47858">
        <ele>977.8</ele>
        <time>2022-05-21 05:22:35</time>
      </trkpt>
      <trkpt lat="42.04951" lon="2.47867">
        <ele>977.6</ele>
        <time>2022-05-21 05:22:36</time>
      </trkpt>
      <trkpt lat="42.04949" lon="2.47876">
        <ele>977.4</ele>
        <time>2022-05-21 05:22:37</time>
      </trkpt>
      <trkpt lat="42.04947" lon="2.47885">
        <ele>977.2</ele>
        <time>2022-05-21 05:22:38</time>
      </trkpt>
      <trkpt lat="42.04944" lon="2.47895">
        <ele>977</ele>
        <time>2022-05-21 05:22:39</time>
      </trkpt>
      <trkpt lat="42.04942" lon="2.47904">
        <ele>976.8</ele>
        <time>2022-05-21 05:22:40</time>
      </trkpt>
      <trkpt lat="42.04939" lon="2.47915">
        <ele>976.6</ele>
        <time>2022-05-21 05:22:41</time>
      </trkpt>
      <trkpt lat="42.04937" lon="2.47925">
        <ele>976.4</ele>
        <time>2022-05-21 05:22:42</time>
      </trkpt>
      <trkpt lat="42.04935" lon="2.47935">
        <ele>976</ele>
        <time>2022-05-21 05:22:43</time>
      </trkpt>
      <trkpt lat="42.04934" lon="2.47945">
        <ele>975.8</ele>
        <time>2022-05-21 05:22:44</time>
      </trkpt>
      <trkpt lat="42.04934" lon="2.47957">
        <ele>975.6</ele>
        <time>2022-05-21 05:22:45</time>
      </trkpt>
      <trkpt lat="42.04933" lon="2.47967">
        <ele>975.4</ele>
        <time>2022-05-21 05:22:46</time>
      </trkpt>
      <trkpt lat="42.04933" lon="2.47978">
        <ele>975.2</ele>
        <time>2022-05-21 05:22:47</time>
      </trkpt>
      <trkpt lat="42.04934" lon="2.47987">
        <ele>975</ele>
        <time>2022-05-21 05:22:48</time>
      </trkpt>
      <trkpt lat="42.04934" lon="2.48">
        <ele>974.6</ele>
        <time>2022-05-21 05:22:49</time>
      </trkpt>
      <trkpt lat="42.04934" lon="2.4801">
        <ele>974.4</ele>
        <time>2022-05-21 05:22:50</time>
      </trkpt>
      <trkpt lat="42.04934" lon="2.48022">
        <ele>974</ele>
        <time>2022-05-21 05:22:51</time>
      </trkpt>
      <trkpt lat="42.04934" lon="2.48032">
        <ele>973.8</ele>
        <time>2022-05-21 05:22:52</time>
      </trkpt>
      <trkpt lat="42.04934" lon="2.48044">
        <ele>973.4</ele>
        <time>2022-05-21 05:22:53</time>
      </trkpt>
      <trkpt lat="42.04935" lon="2.48055">
        <ele>973.2</ele>
        <time>2022-05-21 05:22:54</time>
      </trkpt>
      <trkpt lat="42.04935" lon="2.48067">
        <ele>972.8</ele>
        <time>2022-05-21 05:22:55</time>
      </trkpt>
      <trkpt lat="42.04936" lon="2.48078">
        <ele>972.6</ele>
        <time>2022-05-21 05:22:56</time>
      </trkpt>
      <trkpt lat="42.04936" lon="2.48091">
        <ele>972.4</ele>
        <time>2022-05-21 05:22:57</time>
      </trkpt>
      <trkpt lat="42.04937" lon="2.48102">
        <ele>972.4</ele>
        <time>2022-05-21 05:22:58</time>
      </trkpt>
      <trkpt lat="42.04937" lon="2.48114">
        <ele>971.8</ele>
        <time>2022-05-21 05:22:59</time>
      </trkpt>
      <trkpt lat="42.04938" lon="2.48126">
        <ele>971.4</ele>
        <time>2022-05-21 05:23:00</time>
      </trkpt>
      <trkpt lat="42.04938" lon="2.48137">
        <ele>971</ele>
        <time>2022-05-21 05:23:01</time>
      </trkpt>
      <trkpt lat="42.04939" lon="2.48149">
        <ele>970.8</ele>
        <time>2022-05-21 05:23:02</time>
      </trkpt>
      <trkpt lat="42.04939" lon="2.48161">
        <ele>970.4</ele>
        <time>2022-05-21 05:23:03</time>
      </trkpt>
      <trkpt lat="42.04939" lon="2.48173">
        <ele>970.2</ele>
        <time>2022-05-21 05:23:04</time>
      </trkpt>
      <trkpt lat="42.04939" lon="2.48185">
        <ele>969.8</ele>
        <time>2022-05-21 05:23:05</time>
      </trkpt>
      <trkpt lat="42.0494" lon="2.48197">
        <ele>969.4</ele>
        <time>2022-05-21 05:23:06</time>
      </trkpt>
      <trkpt lat="42.04942" lon="2.48209">
        <ele>969.2</ele>
        <time>2022-05-21 05:23:07</time>
      </trkpt>
      <trkpt lat="42.04943" lon="2.48222">
        <ele>968.8</ele>
        <time>2022-05-21 05:23:08</time>
      </trkpt>
      <trkpt lat="42.04942" lon="2.48234">
        <ele>968.4</ele>
        <time>2022-05-21 05:23:09</time>
      </trkpt>
      <trkpt lat="42.0494" lon="2.48246">
        <ele>968.2</ele>
        <time>2022-05-21 05:23:10</time>
      </trkpt>
      <trkpt lat="42.04937" lon="2.48257">
        <ele>968</ele>
        <time>2022-05-21 05:23:11</time>
      </trkpt>
      <trkpt lat="42.04933" lon="2.48267">
        <ele>967.6</ele>
        <time>2022-05-21 05:23:12</time>
      </trkpt>
      <trkpt lat="42.04927" lon="2.48277">
        <ele>967.4</ele>
        <time>2022-05-21 05:23:13</time>
      </trkpt>
      <trkpt lat="42.0492" lon="2.48284">
        <ele>967.4</ele>
        <time>2022-05-21 05:23:14</time>
      </trkpt>
      <trkpt lat="42.04913" lon="2.4829">
        <ele>967.2</ele>
        <time>2022-05-21 05:23:15</time>
      </trkpt>
      <trkpt lat="42.04905" lon="2.48295">
        <ele>967.2</ele>
        <time>2022-05-21 05:23:16</time>
      </trkpt>
      <trkpt lat="42.04898" lon="2.48301">
        <ele>967.2</ele>
        <time>2022-05-21 05:23:17</time>
      </trkpt>
      <trkpt lat="42.04891" lon="2.48306">
        <ele>967.4</ele>
        <time>2022-05-21 05:23:18</time>
      </trkpt>
      <trkpt lat="42.04885" lon="2.48311">
        <ele>967.4</ele>
        <time>2022-05-21 05:23:19</time>
      </trkpt>
      <trkpt lat="42.04879" lon="2.48318">
        <ele>967.4</ele>
        <time>2022-05-21 05:23:20</time>
      </trkpt>
      <trkpt lat="42.04873" lon="2.48326">
        <ele>967.4</ele>
        <time>2022-05-21 05:23:21</time>
      </trkpt>
      <trkpt lat="42.04869" lon="2.48334">
        <ele>967.6</ele>
        <time>2022-05-21 05:23:22</time>
      </trkpt>
      <trkpt lat="42.04865" lon="2.48343">
        <ele>967.4</ele>
        <time>2022-05-21 05:23:23</time>
      </trkpt>
      <trkpt lat="42.04862" lon="2.48352">
        <ele>967.4</ele>
        <time>2022-05-21 05:23:24</time>
      </trkpt>
      <trkpt lat="42.0486" lon="2.48361">
        <ele>967.4</ele>
        <time>2022-05-21 05:23:25</time>
      </trkpt>
      <trkpt lat="42.04857" lon="2.48371">
        <ele>967.2</ele>
        <time>2022-05-21 05:23:26</time>
      </trkpt>
      <trkpt lat="42.04853" lon="2.4838">
        <ele>967.2</ele>
        <time>2022-05-21 05:23:27</time>
      </trkpt>
      <trkpt lat="42.04849" lon="2.48388">
        <ele>967.2</ele>
        <time>2022-05-21 05:23:28</time>
      </trkpt>
      <trkpt lat="42.04844" lon="2.48395">
        <ele>967</ele>
        <time>2022-05-21 05:23:29</time>
      </trkpt>
      <trkpt lat="42.0484" lon="2.48401">
        <ele>967</ele>
        <time>2022-05-21 05:23:30</time>
      </trkpt>
      <trkpt lat="42.04834" lon="2.48407">
        <ele>967</ele>
        <time>2022-05-21 05:23:31</time>
      </trkpt>
      <trkpt lat="42.04829" lon="2.48412">
        <ele>967</ele>
        <time>2022-05-21 05:23:32</time>
      </trkpt>
      <trkpt lat="42.04824" lon="2.48417">
        <ele>967</ele>
        <time>2022-05-21 05:23:33</time>
      </trkpt>
      <trkpt lat="42.04819" lon="2.48421">
        <ele>967</ele>
        <time>2022-05-21 05:23:34</time>
      </trkpt>
      <trkpt lat="42.04813" lon="2.48425">
        <ele>967</ele>
        <time>2022-05-21 05:23:35</time>
      </trkpt>
      <trkpt lat="42.04806" lon="2.48427">
        <ele>967</ele>
        <time>2022-05-21 05:23:36</time>
      </trkpt>
      <trkpt lat="42.04799" lon="2.48429">
        <ele>967</ele>
        <time>2022-05-21 05:23:37</time>
      </trkpt>
      <trkpt lat="42.04791" lon="2.4843">
        <ele>967</ele>
        <time>2022-05-21 05:23:38</time>
      </trkpt>
      <trkpt lat="42.04783" lon="2.48431">
        <ele>967</ele>
        <time>2022-05-21 05:23:39</time>
      </trkpt>
      <trkpt lat="42.04775" lon="2.48432">
        <ele>966.8</ele>
        <time>2022-05-21 05:23:40</time>
      </trkpt>
      <trkpt lat="42.04768" lon="2.48434">
        <ele>966.8</ele>
        <time>2022-05-21 05:23:41</time>
      </trkpt>
      <trkpt lat="42.0476" lon="2.48435">
        <ele>966.6</ele>
        <time>2022-05-21 05:23:42</time>
      </trkpt>
      <trkpt lat="42.04753" lon="2.48436">
        <ele>966.6</ele>
        <time>2022-05-21 05:23:43</time>
      </trkpt>
      <trkpt lat="42.04745" lon="2.48437">
        <ele>966.4</ele>
        <time>2022-05-21 05:23:44</time>
      </trkpt>
      <trkpt lat="42.04737" lon="2.48437">
        <ele>966.4</ele>
        <time>2022-05-21 05:23:45</time>
      </trkpt>
      <trkpt lat="42.04729" lon="2.48437">
        <ele>966.4</ele>
        <time>2022-05-21 05:23:46</time>
      </trkpt>
      <trkpt lat="42.04721" lon="2.48438">
        <ele>966.4</ele>
        <time>2022-05-21 05:23:47</time>
      </trkpt>
      <trkpt lat="42.04713" lon="2.4844">
        <ele>966.4</ele>
        <time>2022-05-21 05:23:48</time>
      </trkpt>
      <trkpt lat="42.04705" lon="2.48443">
        <ele>966.2</ele>
        <time>2022-05-21 05:23:49</time>
      </trkpt>
      <trkpt lat="42.04697" lon="2.48446">
        <ele>966.2</ele>
        <time>2022-05-21 05:23:50</time>
      </trkpt>
      <trkpt lat="42.0469" lon="2.48451">
        <ele>966.2</ele>
        <time>2022-05-21 05:23:51</time>
      </trkpt>
      <trkpt lat="42.04683" lon="2.48456">
        <ele>966.2</ele>
        <time>2022-05-21 05:23:52</time>
      </trkpt>
      <trkpt lat="42.04678" lon="2.48462">
        <ele>966.4</ele>
        <time>2022-05-21 05:23:53</time>
      </trkpt>
      <trkpt lat="42.04672" lon="2.48468">
        <ele>966.4</ele>
        <time>2022-05-21 05:23:54</time>
      </trkpt>
      <trkpt lat="42.04667" lon="2.48474">
        <ele>966.4</ele>
        <time>2022-05-21 05:23:55</time>
      </trkpt>
      <trkpt lat="42.04662" lon="2.48481">
        <ele>966.4</ele>
        <time>2022-05-21 05:23:56</time>
      </trkpt>
      <trkpt lat="42.04658" lon="2.48489">
        <ele>966.4</ele>
        <time>2022-05-21 05:23:57</time>
      </trkpt>
      <trkpt lat="42.04654" lon="2.48497">
        <ele>966.4</ele>
        <time>2022-05-21 05:23:58</time>
      </trkpt>
      <trkpt lat="42.04652" lon="2.48506">
        <ele>966.6</ele>
        <time>2022-05-21 05:23:59</time>
      </trkpt>
      <trkpt lat="42.04649" lon="2.48514">
        <ele>966.6</ele>
        <time>2022-05-21 05:24:00</time>
      </trkpt>
      <trkpt lat="42.04648" lon="2.48522">
        <ele>966.6</ele>
        <time>2022-05-21 05:24:01</time>
      </trkpt>
      <trkpt lat="42.04647" lon="2.48531">
        <ele>966.8</ele>
        <time>2022-05-21 05:24:02</time>
      </trkpt>
      <trkpt lat="42.04649" lon="2.4854">
        <ele>966.8</ele>
        <time>2022-05-21 05:24:03</time>
      </trkpt>
      <trkpt lat="42.04651" lon="2.48548">
        <ele>966.8</ele>
        <time>2022-05-21 05:24:04</time>
      </trkpt>
      <trkpt lat="42.04654" lon="2.48557">
        <ele>966.6</ele>
        <time>2022-05-21 05:24:05</time>
      </trkpt>
      <trkpt lat="42.04657" lon="2.48565">
        <ele>966.6</ele>
        <time>2022-05-21 05:24:06</time>
      </trkpt>
      <trkpt lat="42.04661" lon="2.48574">
        <ele>966.4</ele>
        <time>2022-05-21 05:24:07</time>
      </trkpt>
      <trkpt lat="42.04663" lon="2.48583">
        <ele>966.4</ele>
        <time>2022-05-21 05:24:08</time>
      </trkpt>
      <trkpt lat="42.04666" lon="2.48593">
        <ele>966.2</ele>
        <time>2022-05-21 05:24:09</time>
      </trkpt>
      <trkpt lat="42.04668" lon="2.48602">
        <ele>966.2</ele>
        <time>2022-05-21 05:24:10</time>
      </trkpt>
      <trkpt lat="42.04669" lon="2.48612">
        <ele>966.2</ele>
        <time>2022-05-21 05:24:11</time>
      </trkpt>
      <trkpt lat="42.04668" lon="2.48621">
        <ele>966.2</ele>
        <time>2022-05-21 05:24:12</time>
      </trkpt>
      <trkpt lat="42.04665" lon="2.48628">
        <ele>966.2</ele>
        <time>2022-05-21 05:24:13</time>
      </trkpt>
      <trkpt lat="42.04662" lon="2.48634">
        <ele>966.2</ele>
        <time>2022-05-21 05:24:14</time>
      </trkpt>
      <trkpt lat="42.04658" lon="2.4864">
        <ele>966</ele>
        <time>2022-05-21 05:24:15</time>
      </trkpt>
      <trkpt lat="42.04654" lon="2.48645">
        <ele>966</ele>
        <time>2022-05-21 05:24:16</time>
      </trkpt>
      <trkpt lat="42.04649" lon="2.4865">
        <ele>966</ele>
        <time>2022-05-21 05:24:17</time>
      </trkpt>
      <trkpt lat="42.04643" lon="2.48653">
        <ele>965.8</ele>
        <time>2022-05-21 05:24:18</time>
      </trkpt>
      <trkpt lat="42.04636" lon="2.48656">
        <ele>965.8</ele>
        <time>2022-05-21 05:24:19</time>
      </trkpt>
      <trkpt lat="42.04629" lon="2.48659">
        <ele>965.6</ele>
        <time>2022-05-21 05:24:20</time>
      </trkpt>
      <trkpt lat="42.04622" lon="2.48662">
        <ele>965.6</ele>
        <time>2022-05-21 05:24:21</time>
      </trkpt>
      <trkpt lat="42.04615" lon="2.48665">
        <ele>965.4</ele>
        <time>2022-05-21 05:24:22</time>
      </trkpt>
      <trkpt lat="42.04609" lon="2.48668">
        <ele>965.4</ele>
        <time>2022-05-21 05:24:23</time>
      </trkpt>
      <trkpt lat="42.04602" lon="2.48671">
        <ele>965.2</ele>
        <time>2022-05-21 05:24:24</time>
      </trkpt>
      <trkpt lat="42.04596" lon="2.48674">
        <ele>965.2</ele>
        <time>2022-05-21 05:24:25</time>
      </trkpt>
      <trkpt lat="42.0459" lon="2.48678">
        <ele>965</ele>
        <time>2022-05-21 05:24:26</time>
      </trkpt>
      <trkpt lat="42.04584" lon="2.48683">
        <ele>965</ele>
        <time>2022-05-21 05:24:27</time>
      </trkpt>
      <trkpt lat="42.04579" lon="2.48688">
        <ele>965</ele>
        <time>2022-05-21 05:24:28</time>
      </trkpt>
      <trkpt lat="42.04573" lon="2.48693">
        <ele>965</ele>
        <time>2022-05-21 05:24:29</time>
      </trkpt>
      <trkpt lat="42.04568" lon="2.48699">
        <ele>965</ele>
        <time>2022-05-21 05:24:30</time>
      </trkpt>
      <trkpt lat="42.04562" lon="2.48706">
        <ele>965</ele>
        <time>2022-05-21 05:24:31</time>
      </trkpt>
      <trkpt lat="42.04555" lon="2.48713">
        <ele>965</ele>
        <time>2022-05-21 05:24:32</time>
      </trkpt>
      <trkpt lat="42.0455" lon="2.4872">
        <ele>965</ele>
        <time>2022-05-21 05:24:33</time>
      </trkpt>
      <trkpt lat="42.04547" lon="2.48729">
        <ele>965</ele>
        <time>2022-05-21 05:24:34</time>
      </trkpt>
      <trkpt lat="42.04546" lon="2.48737">
        <ele>965</ele>
        <time>2022-05-21 05:24:35</time>
      </trkpt>
      <trkpt lat="42.04545" lon="2.48745">
        <ele>964.8</ele>
        <time>2022-05-21 05:24:36</time>
      </trkpt>
      <trkpt lat="42.04546" lon="2.48753">
        <ele>964.8</ele>
        <time>2022-05-21 05:24:37</time>
      </trkpt>
      <trkpt lat="42.04548" lon="2.48761">
        <ele>964.6</ele>
        <time>2022-05-21 05:24:38</time>
      </trkpt>
      <trkpt lat="42.04552" lon="2.48769">
        <ele>964.6</ele>
        <time>2022-05-21 05:24:39</time>
      </trkpt>
      <trkpt lat="42.04556" lon="2.48776">
        <ele>964.4</ele>
        <time>2022-05-21 05:24:40</time>
      </trkpt>
      <trkpt lat="42.0456" lon="2.48783">
        <ele>964.2</ele>
        <time>2022-05-21 05:24:41</time>
      </trkpt>
      <trkpt lat="42.04564" lon="2.4879">
        <ele>964</ele>
        <time>2022-05-21 05:24:42</time>
      </trkpt>
      <trkpt lat="42.04569" lon="2.48795">
        <ele>964</ele>
        <time>2022-05-21 05:24:43</time>
      </trkpt>
      <trkpt lat="42.04575" lon="2.488">
        <ele>963.8</ele>
        <time>2022-05-21 05:24:44</time>
      </trkpt>
      <trkpt lat="42.0458" lon="2.48807">
        <ele>963.8</ele>
        <time>2022-05-21 05:24:45</time>
      </trkpt>
      <trkpt lat="42.04584" lon="2.48813">
        <ele>963.6</ele>
        <time>2022-05-21 05:24:46</time>
      </trkpt>
      <trkpt lat="42.04586" lon="2.48822">
        <ele>963.6</ele>
        <time>2022-05-21 05:24:47</time>
      </trkpt>
      <trkpt lat="42.04585" lon="2.48831">
        <ele>963.4</ele>
        <time>2022-05-21 05:24:48</time>
      </trkpt>
      <trkpt lat="42.04584" lon="2.48841">
        <ele>963.4</ele>
        <time>2022-05-21 05:24:49</time>
      </trkpt>
      <trkpt lat="42.04581" lon="2.48849">
        <ele>963.4</ele>
        <time>2022-05-21 05:24:50</time>
      </trkpt>
      <trkpt lat="42.04578" lon="2.48858">
        <ele>963.6</ele>
        <time>2022-05-21 05:24:51</time>
      </trkpt>
      <trkpt lat="42.04576" lon="2.48867">
        <ele>963.6</ele>
        <time>2022-05-21 05:24:52</time>
      </trkpt>
      <trkpt lat="42.04574" lon="2.48876">
        <ele>963.4</ele>
        <time>2022-05-21 05:24:53</time>
      </trkpt>
      <trkpt lat="42.04571" lon="2.48884">
        <ele>963.4</ele>
        <time>2022-05-21 05:24:54</time>
      </trkpt>
      <trkpt lat="42.04567" lon="2.48891">
        <ele>963.4</ele>
        <time>2022-05-21 05:24:55</time>
      </trkpt>
      <trkpt lat="42.04563" lon="2.48897">
        <ele>963.4</ele>
        <time>2022-05-21 05:24:56</time>
      </trkpt>
      <trkpt lat="42.04558" lon="2.48903">
        <ele>963.4</ele>
        <time>2022-05-21 05:24:57</time>
      </trkpt>
      <trkpt lat="42.04553" lon="2.48907">
        <ele>963.4</ele>
        <time>2022-05-21 05:24:58</time>
      </trkpt>
      <trkpt lat="42.04548" lon="2.48911">
        <ele>963.4</ele>
        <time>2022-05-21 05:24:59</time>
      </trkpt>
      <trkpt lat="42.04542" lon="2.48914">
        <ele>963.4</ele>
        <time>2022-05-21 05:25:00</time>
      </trkpt>
      <trkpt lat="42.04536" lon="2.48917">
        <ele>963.4</ele>
        <time>2022-05-21 05:25:01</time>
      </trkpt>
      <trkpt lat="42.04531" lon="2.48919">
        <ele>963.6</ele>
        <time>2022-05-21 05:25:02</time>
      </trkpt>
      <trkpt lat="42.04525" lon="2.48921">
        <ele>963.6</ele>
        <time>2022-05-21 05:25:03</time>
      </trkpt>
      <trkpt lat="42.0452" lon="2.48922">
        <ele>963.8</ele>
        <time>2022-05-21 05:25:04</time>
      </trkpt>
      <trkpt lat="42.04514" lon="2.48922">
        <ele>963.8</ele>
        <time>2022-05-21 05:25:05</time>
      </trkpt>
      <trkpt lat="42.04507" lon="2.48922">
        <ele>964</ele>
        <time>2022-05-21 05:25:06</time>
      </trkpt>
      <trkpt lat="42.04502" lon="2.48921">
        <ele>964</ele>
        <time>2022-05-21 05:25:07</time>
      </trkpt>
      <trkpt lat="42.04496" lon="2.48919">
        <ele>964.2</ele>
        <time>2022-05-21 05:25:08</time>
      </trkpt>
      <trkpt lat="42.0449" lon="2.48918">
        <ele>964.4</ele>
        <time>2022-05-21 05:25:09</time>
      </trkpt>
      <trkpt lat="42.04485" lon="2.48916">
        <ele>964.6</ele>
        <time>2022-05-21 05:25:10</time>
      </trkpt>
      <trkpt lat="42.04479" lon="2.48916">
        <ele>964.6</ele>
        <time>2022-05-21 05:25:11</time>
      </trkpt>
      <trkpt lat="42.04472" lon="2.48915">
        <ele>965</ele>
        <time>2022-05-21 05:25:12</time>
      </trkpt>
      <trkpt lat="42.04467" lon="2.48915">
        <ele>965.2</ele>
        <time>2022-05-21 05:25:13</time>
      </trkpt>
      <trkpt lat="42.04462" lon="2.48914">
        <ele>965.4</ele>
        <time>2022-05-21 05:25:14</time>
      </trkpt>
      <trkpt lat="42.04457" lon="2.48916">
        <ele>965.6</ele>
        <time>2022-05-21 05:25:15</time>
      </trkpt>
      <trkpt lat="42.04452" lon="2.48918">
        <ele>965.8</ele>
        <time>2022-05-21 05:25:16</time>
      </trkpt>
      <trkpt lat="42.04448" lon="2.48921">
        <ele>966</ele>
        <time>2022-05-21 05:25:17</time>
      </trkpt>
      <trkpt lat="42.04445" lon="2.48924">
        <ele>966.2</ele>
        <time>2022-05-21 05:25:18</time>
      </trkpt>
      <trkpt lat="42.04443" lon="2.48928">
        <ele>966.4</ele>
        <time>2022-05-21 05:25:19</time>
      </trkpt>
      <trkpt lat="42.04442" lon="2.48934">
        <ele>966.6</ele>
        <time>2022-05-21 05:25:20</time>
      </trkpt>
      <trkpt lat="42.04441" lon="2.4894">
        <ele>966.8</ele>
        <time>2022-05-21 05:25:21</time>
      </trkpt>
      <trkpt lat="42.0444" lon="2.48946">
        <ele>966.8</ele>
        <time>2022-05-21 05:25:22</time>
      </trkpt>
      <trkpt lat="42.0444" lon="2.48951">
        <ele>967</ele>
        <time>2022-05-21 05:25:23</time>
      </trkpt>
      <trkpt lat="42.04441" lon="2.48957">
        <ele>967</ele>
        <time>2022-05-21 05:25:24</time>
      </trkpt>
      <trkpt lat="42.04442" lon="2.48962">
        <ele>967</ele>
        <time>2022-05-21 05:25:25</time>
      </trkpt>
      <trkpt lat="42.04443" lon="2.48967">
        <ele>967.2</ele>
        <time>2022-05-21 05:25:26</time>
      </trkpt>
      <trkpt lat="42.04444" lon="2.48972">
        <ele>967.2</ele>
        <time>2022-05-21 05:25:27</time>
      </trkpt>
      <trkpt lat="42.04446" lon="2.48977">
        <ele>967.4</ele>
        <time>2022-05-21 05:25:28</time>
      </trkpt>
      <trkpt lat="42.04448" lon="2.48982">
        <ele>967.4</ele>
        <time>2022-05-21 05:25:29</time>
      </trkpt>
      <trkpt lat="42.0445" lon="2.48986">
        <ele>967.6</ele>
        <time>2022-05-21 05:25:30</time>
      </trkpt>
      <trkpt lat="42.04453" lon="2.4899">
        <ele>967.6</ele>
        <time>2022-05-21 05:25:31</time>
      </trkpt>
      <trkpt lat="42.04456" lon="2.48993">
        <ele>967.6</ele>
        <time>2022-05-21 05:25:32</time>
      </trkpt>
      <trkpt lat="42.04459" lon="2.48996">
        <ele>967.8</ele>
        <time>2022-05-21 05:25:33</time>
      </trkpt>
      <trkpt lat="42.04463" lon="2.48999">
        <ele>967.6</ele>
        <time>2022-05-21 05:25:34</time>
      </trkpt>
      <trkpt lat="42.04467" lon="2.49002">
        <ele>967.6</ele>
        <time>2022-05-21 05:25:35</time>
      </trkpt>
      <trkpt lat="42.04471" lon="2.49006">
        <ele>967.6</ele>
        <time>2022-05-21 05:25:36</time>
      </trkpt>
      <trkpt lat="42.04474" lon="2.4901">
        <ele>967.8</ele>
        <time>2022-05-21 05:25:37</time>
      </trkpt>
      <trkpt lat="42.04477" lon="2.49015">
        <ele>967.8</ele>
        <time>2022-05-21 05:25:38</time>
      </trkpt>
      <trkpt lat="42.0448" lon="2.49019">
        <ele>967.8</ele>
        <time>2022-05-21 05:25:39</time>
      </trkpt>
      <trkpt lat="42.04483" lon="2.49024">
        <ele>967.8</ele>
        <time>2022-05-21 05:25:40</time>
      </trkpt>
      <trkpt lat="42.04486" lon="2.49028">
        <ele>967.8</ele>
        <time>2022-05-21 05:25:41</time>
      </trkpt>
      <trkpt lat="42.0449" lon="2.49032">
        <ele>967.8</ele>
        <time>2022-05-21 05:25:42</time>
      </trkpt>
      <trkpt lat="42.04493" lon="2.49037">
        <ele>967.8</ele>
        <time>2022-05-21 05:25:43</time>
      </trkpt>
      <trkpt lat="42.04497" lon="2.4904">
        <ele>967.8</ele>
        <time>2022-05-21 05:25:44</time>
      </trkpt>
      <trkpt lat="42.04502" lon="2.49042">
        <ele>967.6</ele>
        <time>2022-05-21 05:25:45</time>
      </trkpt>
      <trkpt lat="42.04508" lon="2.49043">
        <ele>967.6</ele>
        <time>2022-05-21 05:25:46</time>
      </trkpt>
      <trkpt lat="42.04514" lon="2.49043">
        <ele>967.4</ele>
        <time>2022-05-21 05:25:47</time>
      </trkpt>
      <trkpt lat="42.04519" lon="2.49044">
        <ele>967.2</ele>
        <time>2022-05-21 05:25:48</time>
      </trkpt>
      <trkpt lat="42.04524" lon="2.49045">
        <ele>967</ele>
        <time>2022-05-21 05:25:49</time>
      </trkpt>
      <trkpt lat="42.04529" lon="2.49046">
        <ele>966.8</ele>
        <time>2022-05-21 05:25:50</time>
      </trkpt>
      <trkpt lat="42.04534" lon="2.49047">
        <ele>966.6</ele>
        <time>2022-05-21 05:25:51</time>
      </trkpt>
      <trkpt lat="42.04539" lon="2.49049">
        <ele>966.4</ele>
        <time>2022-05-21 05:25:52</time>
      </trkpt>
      <trkpt lat="42.04545" lon="2.49052">
        <ele>966.2</ele>
        <time>2022-05-21 05:25:53</time>
      </trkpt>
      <trkpt lat="42.04551" lon="2.49054">
        <ele>966</ele>
        <time>2022-05-21 05:25:54</time>
      </trkpt>
      <trkpt lat="42.04556" lon="2.49057">
        <ele>965.8</ele>
        <time>2022-05-21 05:25:55</time>
      </trkpt>
      <trkpt lat="42.04562" lon="2.49061">
        <ele>965.6</ele>
        <time>2022-05-21 05:25:56</time>
      </trkpt>
      <trkpt lat="42.04568" lon="2.49065">
        <ele>965.4</ele>
        <time>2022-05-21 05:25:57</time>
      </trkpt>
      <trkpt lat="42.04574" lon="2.49069">
        <ele>965.2</ele>
        <time>2022-05-21 05:25:58</time>
      </trkpt>
      <trkpt lat="42.0458" lon="2.49073">
        <ele>965</ele>
        <time>2022-05-21 05:25:59</time>
      </trkpt>
      <trkpt lat="42.04584" lon="2.49077">
        <ele>964.8</ele>
        <time>2022-05-21 05:26:00</time>
      </trkpt>
      <trkpt lat="42.04587" lon="2.49082">
        <ele>964.6</ele>
        <time>2022-05-21 05:26:01</time>
      </trkpt>
      <trkpt lat="42.04589" lon="2.49089">
        <ele>964.4</ele>
        <time>2022-05-21 05:26:02</time>
      </trkpt>
      <trkpt lat="42.04588" lon="2.49099">
        <ele>964.2</ele>
        <time>2022-05-21 05:26:03</time>
      </trkpt>
      <trkpt lat="42.04587" lon="2.49108">
        <ele>964</ele>
        <time>2022-05-21 05:26:04</time>
      </trkpt>
      <trkpt lat="42.04584" lon="2.49115">
        <ele>963.8</ele>
        <time>2022-05-21 05:26:05</time>
      </trkpt>
      <trkpt lat="42.04581" lon="2.49122">
        <ele>963.6</ele>
        <time>2022-05-21 05:26:06</time>
      </trkpt>
      <trkpt lat="42.04577" lon="2.49129">
        <ele>963.6</ele>
        <time>2022-05-21 05:26:07</time>
      </trkpt>
      <trkpt lat="42.04572" lon="2.49134">
        <ele>963.6</ele>
        <time>2022-05-21 05:26:08</time>
      </trkpt>
      <trkpt lat="42.04566" lon="2.49139">
        <ele>963.6</ele>
        <time>2022-05-21 05:26:09</time>
      </trkpt>
      <trkpt lat="42.04561" lon="2.49142">
        <ele>963.6</ele>
        <time>2022-05-21 05:26:10</time>
      </trkpt>
      <trkpt lat="42.04557" lon="2.49146">
        <ele>963.8</ele>
        <time>2022-05-21 05:26:11</time>
      </trkpt>
      <trkpt lat="42.04552" lon="2.49149">
        <ele>963.8</ele>
        <time>2022-05-21 05:26:12</time>
      </trkpt>
      <trkpt lat="42.04548" lon="2.49153">
        <ele>963.8</ele>
        <time>2022-05-21 05:26:13</time>
      </trkpt>
      <trkpt lat="42.04545" lon="2.49156">
        <ele>964</ele>
        <time>2022-05-21 05:26:14</time>
      </trkpt>
      <trkpt lat="42.04543" lon="2.4916">
        <ele>964</ele>
        <time>2022-05-21 05:26:15</time>
      </trkpt>
      <trkpt lat="42.04539" lon="2.49164">
        <ele>964</ele>
        <time>2022-05-21 05:26:16</time>
      </trkpt>
      <trkpt lat="42.04536" lon="2.49169">
        <ele>964</ele>
        <time>2022-05-21 05:26:17</time>
      </trkpt>
      <trkpt lat="42.04533" lon="2.49173">
        <ele>964</ele>
        <time>2022-05-21 05:26:18</time>
      </trkpt>
      <trkpt lat="42.0453" lon="2.49178">
        <ele>964.2</ele>
        <time>2022-05-21 05:26:19</time>
      </trkpt>
      <trkpt lat="42.04528" lon="2.49183">
        <ele>964.2</ele>
        <time>2022-05-21 05:26:20</time>
      </trkpt>
      <trkpt lat="42.04525" lon="2.49188">
        <ele>964.2</ele>
        <time>2022-05-21 05:26:21</time>
      </trkpt>
      <trkpt lat="42.04522" lon="2.49192">
        <ele>964.4</ele>
        <time>2022-05-21 05:26:22</time>
      </trkpt>
      <trkpt lat="42.04519" lon="2.49196">
        <ele>964.6</ele>
        <time>2022-05-21 05:26:23</time>
      </trkpt>
      <trkpt lat="42.04517" lon="2.492">
        <ele>964.6</ele>
        <time>2022-05-21 05:26:24</time>
      </trkpt>
      <trkpt lat="42.04514" lon="2.49204">
        <ele>964.8</ele>
        <time>2022-05-21 05:26:25</time>
      </trkpt>
      <trkpt lat="42.04512" lon="2.4921">
        <ele>964.8</ele>
        <time>2022-05-21 05:26:26</time>
      </trkpt>
      <trkpt lat="42.04509" lon="2.49215">
        <ele>964.8</ele>
        <time>2022-05-21 05:26:27</time>
      </trkpt>
      <trkpt lat="42.04507" lon="2.49221">
        <ele>965</ele>
        <time>2022-05-21 05:26:28</time>
      </trkpt>
      <trkpt lat="42.04504" lon="2.49225">
        <ele>965</ele>
        <time>2022-05-21 05:26:29</time>
      </trkpt>
      <trkpt lat="42.045" lon="2.4923">
        <ele>965</ele>
        <time>2022-05-21 05:26:30</time>
      </trkpt>
      <trkpt lat="42.04496" lon="2.49234">
        <ele>965.2</ele>
        <time>2022-05-21 05:26:31</time>
      </trkpt>
      <trkpt lat="42.04491" lon="2.49237">
        <ele>965.4</ele>
        <time>2022-05-21 05:26:32</time>
      </trkpt>
      <trkpt lat="42.04488" lon="2.4924">
        <ele>965.4</ele>
        <time>2022-05-21 05:26:33</time>
      </trkpt>
      <trkpt lat="42.04483" lon="2.49243">
        <ele>965.6</ele>
        <time>2022-05-21 05:26:34</time>
      </trkpt>
      <trkpt lat="42.0448" lon="2.49245">
        <ele>965.8</ele>
        <time>2022-05-21 05:26:35</time>
      </trkpt>
      <trkpt lat="42.04476" lon="2.49248">
        <ele>966</ele>
        <time>2022-05-21 05:26:36</time>
      </trkpt>
      <trkpt lat="42.04473" lon="2.49251">
        <ele>966.2</ele>
        <time>2022-05-21 05:26:37</time>
      </trkpt>
      <trkpt lat="42.04469" lon="2.49253">
        <ele>966.4</ele>
        <time>2022-05-21 05:26:38</time>
      </trkpt>
      <trkpt lat="42.04466" lon="2.49256">
        <ele>966.6</ele>
        <time>2022-05-21 05:26:39</time>
      </trkpt>
      <trkpt lat="42.04463" lon="2.49259">
        <ele>966.8</ele>
        <time>2022-05-21 05:26:40</time>
      </trkpt>
      <trkpt lat="42.0446" lon="2.49263">
        <ele>967</ele>
        <time>2022-05-21 05:26:41</time>
      </trkpt>
      <trkpt lat="42.04456" lon="2.49268">
        <ele>967.2</ele>
        <time>2022-05-21 05:26:42</time>
      </trkpt>
      <trkpt lat="42.04453" lon="2.49273">
        <ele>967.4</ele>
        <time>2022-05-21 05:26:43</time>
      </trkpt>
      <trkpt lat="42.04451" lon="2.49279">
        <ele>967.4</ele>
        <time>2022-05-21 05:26:44</time>
      </trkpt>
      <trkpt lat="42.04449" lon="2.49285">
        <ele>967.6</ele>
        <time>2022-05-21 05:26:45</time>
      </trkpt>
      <trkpt lat="42.04449" lon="2.4929">
        <ele>967.6</ele>
        <time>2022-05-21 05:26:46</time>
      </trkpt>
      <trkpt lat="42.04449" lon="2.49297">
        <ele>967.8</ele>
        <time>2022-05-21 05:26:47</time>
      </trkpt>
      <trkpt lat="42.04449" lon="2.49303">
        <ele>967.8</ele>
        <time>2022-05-21 05:26:48</time>
      </trkpt>
      <trkpt lat="42.0445" lon="2.49309">
        <ele>967.8</ele>
        <time>2022-05-21 05:26:49</time>
      </trkpt>
      <trkpt lat="42.04451" lon="2.49315">
        <ele>967.8</ele>
        <time>2022-05-21 05:26:50</time>
      </trkpt>
      <trkpt lat="42.04451" lon="2.49321">
        <ele>967.8</ele>
        <time>2022-05-21 05:26:51</time>
      </trkpt>
      <trkpt lat="42.04452" lon="2.49327">
        <ele>967.8</ele>
        <time>2022-05-21 05:26:52</time>
      </trkpt>
      <trkpt lat="42.04453" lon="2.49333">
        <ele>968</ele>
        <time>2022-05-21 05:26:53</time>
      </trkpt>
      <trkpt lat="42.04455" lon="2.49338">
        <ele>968</ele>
        <time>2022-05-21 05:26:54</time>
      </trkpt>
      <trkpt lat="42.04456" lon="2.49343">
        <ele>968</ele>
        <time>2022-05-21 05:26:55</time>
      </trkpt>
      <trkpt lat="42.04457" lon="2.49349">
        <ele>968.2</ele>
        <time>2022-05-21 05:26:56</time>
      </trkpt>
      <trkpt lat="42.04457" lon="2.49354">
        <ele>968.2</ele>
        <time>2022-05-21 05:26:57</time>
      </trkpt>
      <trkpt lat="42.04458" lon="2.49359">
        <ele>968.2</ele>
        <time>2022-05-21 05:26:58</time>
      </trkpt>
      <trkpt lat="42.04459" lon="2.49364">
        <ele>968.4</ele>
        <time>2022-05-21 05:26:59</time>
      </trkpt>
      <trkpt lat="42.0446" lon="2.49369">
        <ele>968.4</ele>
        <time>2022-05-21 05:27:00</time>
      </trkpt>
      <trkpt lat="42.04461" lon="2.49374">
        <ele>968.4</ele>
        <time>2022-05-21 05:27:01</time>
      </trkpt>
      <trkpt lat="42.04462" lon="2.49379">
        <ele>968.6</ele>
        <time>2022-05-21 05:27:02</time>
      </trkpt>
      <trkpt lat="42.04463" lon="2.49383">
        <ele>968.6</ele>
        <time>2022-05-21 05:27:03</time>
      </trkpt>
      <trkpt lat="42.04464" lon="2.49387">
        <ele>968.6</ele>
        <time>2022-05-21 05:27:04</time>
      </trkpt>
      <trkpt lat="42.04465" lon="2.49391">
        <ele>968.6</ele>
        <time>2022-05-21 05:27:05</time>
      </trkpt>
      <trkpt lat="42.04466" lon="2.49394">
        <ele>968.8</ele>
        <time>2022-05-21 05:27:06</time>
      </trkpt>
      <trkpt lat="42.04468" lon="2.49398">
        <ele>968.8</ele>
        <time>2022-05-21 05:27:07</time>
      </trkpt>
      <trkpt lat="42.0447" lon="2.49402">
        <ele>968.8</ele>
        <time>2022-05-21 05:27:08</time>
      </trkpt>
      <trkpt lat="42.04472" lon="2.49407">
        <ele>968.8</ele>
        <time>2022-05-21 05:27:09</time>
      </trkpt>
      <trkpt lat="42.04473" lon="2.4941">
        <ele>968.8</ele>
        <time>2022-05-21 05:27:10</time>
      </trkpt>
      <trkpt lat="42.04474" lon="2.49414">
        <ele>968.8</ele>
        <time>2022-05-21 05:27:11</time>
      </trkpt>
      <trkpt lat="42.04475" lon="2.49418">
        <ele>968.8</ele>
        <time>2022-05-21 05:27:12</time>
      </trkpt>
      <trkpt lat="42.04475" lon="2.49423">
        <ele>968.8</ele>
        <time>2022-05-21 05:27:13</time>
      </trkpt>
      <trkpt lat="42.04475" lon="2.4943">
        <ele>968.8</ele>
        <time>2022-05-21 05:27:14</time>
      </trkpt>
      <trkpt lat="42.04474" lon="2.49438">
        <ele>968.6</ele>
        <time>2022-05-21 05:27:15</time>
      </trkpt>
      <trkpt lat="42.04472" lon="2.49448">
        <ele>968.6</ele>
        <time>2022-05-21 05:27:16</time>
      </trkpt>
      <trkpt lat="42.04468" lon="2.49459">
        <ele>968.6</ele>
        <time>2022-05-21 05:27:17</time>
      </trkpt>
      <trkpt lat="42.04463" lon="2.49467">
        <ele>968.6</ele>
        <time>2022-05-21 05:27:18</time>
      </trkpt>
      <trkpt lat="42.04459" lon="2.49473">
        <ele>968.6</ele>
        <time>2022-05-21 05:27:19</time>
      </trkpt>
      <trkpt lat="42.04454" lon="2.49478">
        <ele>968.8</ele>
        <time>2022-05-21 05:27:20</time>
      </trkpt>
      <trkpt lat="42.0445" lon="2.49483">
        <ele>968.8</ele>
        <time>2022-05-21 05:27:21</time>
      </trkpt>
      <trkpt lat="42.04444" lon="2.49489">
        <ele>968.8</ele>
        <time>2022-05-21 05:27:22</time>
      </trkpt>
      <trkpt lat="42.04438" lon="2.49494">
        <ele>968.8</ele>
        <time>2022-05-21 05:27:23</time>
      </trkpt>
      <trkpt lat="42.04433" lon="2.49498">
        <ele>968.8</ele>
        <time>2022-05-21 05:27:24</time>
      </trkpt>
      <trkpt lat="42.04428" lon="2.49502">
        <ele>968.8</ele>
        <time>2022-05-21 05:27:25</time>
      </trkpt>
      <trkpt lat="42.04424" lon="2.49505">
        <ele>969</ele>
        <time>2022-05-21 05:27:26</time>
      </trkpt>
      <trkpt lat="42.04419" lon="2.49508">
        <ele>969</ele>
        <time>2022-05-21 05:27:27</time>
      </trkpt>
      <trkpt lat="42.04414" lon="2.49511">
        <ele>969.2</ele>
        <time>2022-05-21 05:27:28</time>
      </trkpt>
      <trkpt lat="42.04409" lon="2.49514">
        <ele>969.2</ele>
        <time>2022-05-21 05:27:29</time>
      </trkpt>
      <trkpt lat="42.04405" lon="2.49517">
        <ele>969.4</ele>
        <time>2022-05-21 05:27:30</time>
      </trkpt>
      <trkpt lat="42.044" lon="2.49521">
        <ele>969.6</ele>
        <time>2022-05-21 05:27:31</time>
      </trkpt>
      <trkpt lat="42.04396" lon="2.49525">
        <ele>969.8</ele>
        <time>2022-05-21 05:27:32</time>
      </trkpt>
      <trkpt lat="42.04393" lon="2.49529">
        <ele>970</ele>
        <time>2022-05-21 05:27:33</time>
      </trkpt>
      <trkpt lat="42.0439" lon="2.49533">
        <ele>970.2</ele>
        <time>2022-05-21 05:27:34</time>
      </trkpt>
      <trkpt lat="42.04387" lon="2.49537">
        <ele>970.4</ele>
        <time>2022-05-21 05:27:35</time>
      </trkpt>
      <trkpt lat="42.04385" lon="2.49541">
        <ele>970.6</ele>
        <time>2022-05-21 05:27:36</time>
      </trkpt>
      <trkpt lat="42.04383" lon="2.49546">
        <ele>971</ele>
        <time>2022-05-21 05:27:37</time>
      </trkpt>
      <trkpt lat="42.0438" lon="2.49551">
        <ele>971.2</ele>
        <time>2022-05-21 05:27:38</time>
      </trkpt>
      <trkpt lat="42.04377" lon="2.49555">
        <ele>971.4</ele>
        <time>2022-05-21 05:27:39</time>
      </trkpt>
      <trkpt lat="42.04375" lon="2.4956">
        <ele>971.6</ele>
        <time>2022-05-21 05:27:40</time>
      </trkpt>
      <trkpt lat="42.04374" lon="2.49565">
        <ele>971.8</ele>
        <time>2022-05-21 05:27:41</time>
      </trkpt>
      <trkpt lat="42.04371" lon="2.49569">
        <ele>972.2</ele>
        <time>2022-05-21 05:27:42</time>
      </trkpt>
      <trkpt lat="42.04369" lon="2.49574">
        <ele>972.4</ele>
        <time>2022-05-21 05:27:43</time>
      </trkpt>
      <trkpt lat="42.04367" lon="2.49578">
        <ele>972.6</ele>
        <time>2022-05-21 05:27:44</time>
      </trkpt>
      <trkpt lat="42.04365" lon="2.49583">
        <ele>972.8</ele>
        <time>2022-05-21 05:27:45</time>
      </trkpt>
      <trkpt lat="42.04363" lon="2.49587">
        <ele>973</ele>
        <time>2022-05-21 05:27:46</time>
      </trkpt>
      <trkpt lat="42.04361" lon="2.49593">
        <ele>973.2</ele>
        <time>2022-05-21 05:27:47</time>
      </trkpt>
      <trkpt lat="42.04359" lon="2.49598">
        <ele>973.4</ele>
        <time>2022-05-21 05:27:48</time>
      </trkpt>
      <trkpt lat="42.04357" lon="2.49602">
        <ele>973.6</ele>
        <time>2022-05-21 05:27:49</time>
      </trkpt>
      <trkpt lat="42.04355" lon="2.49607">
        <ele>973.8</ele>
        <time>2022-05-21 05:27:50</time>
      </trkpt>
      <trkpt lat="42.04353" lon="2.49612">
        <ele>974.2</ele>
        <time>2022-05-21 05:27:51</time>
      </trkpt>
      <trkpt lat="42.0435" lon="2.49617">
        <ele>974.4</ele>
        <time>2022-05-21 05:27:52</time>
      </trkpt>
      <trkpt lat="42.04347" lon="2.49622">
        <ele>974.6</ele>
        <time>2022-05-21 05:27:53</time>
      </trkpt>
      <trkpt lat="42.04344" lon="2.49628">
        <ele>974.8</ele>
        <time>2022-05-21 05:27:54</time>
      </trkpt>
      <trkpt lat="42.04343" lon="2.49633">
        <ele>975.2</ele>
        <time>2022-05-21 05:27:55</time>
      </trkpt>
      <trkpt lat="42.04342" lon="2.49639">
        <ele>975.4</ele>
        <time>2022-05-21 05:27:56</time>
      </trkpt>
      <trkpt lat="42.0434" lon="2.49644">
        <ele>975.6</ele>
        <time>2022-05-21 05:27:57</time>
      </trkpt>
      <trkpt lat="42.0434" lon="2.4965">
        <ele>975.8</ele>
        <time>2022-05-21 05:27:58</time>
      </trkpt>
      <trkpt lat="42.04339" lon="2.49655">
        <ele>976</ele>
        <time>2022-05-21 05:27:59</time>
      </trkpt>
      <trkpt lat="42.04339" lon="2.4966">
        <ele>976.2</ele>
        <time>2022-05-21 05:28:00</time>
      </trkpt>
      <trkpt lat="42.04338" lon="2.49666">
        <ele>976.4</ele>
        <time>2022-05-21 05:28:01</time>
      </trkpt>
      <trkpt lat="42.04338" lon="2.49671">
        <ele>976.6</ele>
        <time>2022-05-21 05:28:02</time>
      </trkpt>
      <trkpt lat="42.04338" lon="2.49677">
        <ele>976.8</ele>
        <time>2022-05-21 05:28:03</time>
      </trkpt>
      <trkpt lat="42.04338" lon="2.49682">
        <ele>977</ele>
        <time>2022-05-21 05:28:04</time>
      </trkpt>
      <trkpt lat="42.04338" lon="2.49687">
        <ele>977.2</ele>
        <time>2022-05-21 05:28:05</time>
      </trkpt>
      <trkpt lat="42.04338" lon="2.49693">
        <ele>977.4</ele>
        <time>2022-05-21 05:28:06</time>
      </trkpt>
      <trkpt lat="42.04339" lon="2.49698">
        <ele>977.6</ele>
        <time>2022-05-21 05:28:07</time>
      </trkpt>
      <trkpt lat="42.0434" lon="2.49704">
        <ele>977.6</ele>
        <time>2022-05-21 05:28:08</time>
      </trkpt>
      <trkpt lat="42.0434" lon="2.4971">
        <ele>977.6</ele>
        <time>2022-05-21 05:28:09</time>
      </trkpt>
      <trkpt lat="42.0434" lon="2.49715">
        <ele>977.8</ele>
        <time>2022-05-21 05:28:10</time>
      </trkpt>
      <trkpt lat="42.0434" lon="2.49721">
        <ele>977.8</ele>
        <time>2022-05-21 05:28:11</time>
      </trkpt>
      <trkpt lat="42.04341" lon="2.49727">
        <ele>977.8</ele>
        <time>2022-05-21 05:28:12</time>
      </trkpt>
      <trkpt lat="42.04342" lon="2.49732">
        <ele>977.8</ele>
        <time>2022-05-21 05:28:13</time>
      </trkpt>
      <trkpt lat="42.04345" lon="2.49736">
        <ele>978</ele>
        <time>2022-05-21 05:28:14</time>
      </trkpt>
      <trkpt lat="42.04347" lon="2.4974">
        <ele>978</ele>
        <time>2022-05-21 05:28:15</time>
      </trkpt>
      <trkpt lat="42.04351" lon="2.49743">
        <ele>978</ele>
        <time>2022-05-21 05:28:16</time>
      </trkpt>
      <trkpt lat="42.04354" lon="2.49747">
        <ele>978</ele>
        <time>2022-05-21 05:28:17</time>
      </trkpt>
      <trkpt lat="42.04358" lon="2.49749">
        <ele>978</ele>
        <time>2022-05-21 05:28:18</time>
      </trkpt>
      <trkpt lat="42.04362" lon="2.49751">
        <ele>977.8</ele>
        <time>2022-05-21 05:28:19</time>
      </trkpt>
      <trkpt lat="42.04366" lon="2.49754">
        <ele>977.8</ele>
        <time>2022-05-21 05:28:20</time>
      </trkpt>
      <trkpt lat="42.04371" lon="2.49756">
        <ele>977.8</ele>
        <time>2022-05-21 05:28:21</time>
      </trkpt>
      <trkpt lat="42.04376" lon="2.49758">
        <ele>977.6</ele>
        <time>2022-05-21 05:28:22</time>
      </trkpt>
      <trkpt lat="42.04382" lon="2.49761">
        <ele>977.6</ele>
        <time>2022-05-21 05:28:23</time>
      </trkpt>
      <trkpt lat="42.04388" lon="2.49764">
        <ele>977.6</ele>
        <time>2022-05-21 05:28:24</time>
      </trkpt>
      <trkpt lat="42.04393" lon="2.49768">
        <ele>977.4</ele>
        <time>2022-05-21 05:28:25</time>
      </trkpt>
      <trkpt lat="42.04398" lon="2.49772">
        <ele>977.4</ele>
        <time>2022-05-21 05:28:26</time>
      </trkpt>
      <trkpt lat="42.04403" lon="2.49776">
        <ele>977.4</ele>
        <time>2022-05-21 05:28:27</time>
      </trkpt>
      <trkpt lat="42.04407" lon="2.49782">
        <ele>977.4</ele>
        <time>2022-05-21 05:28:28</time>
      </trkpt>
      <trkpt lat="42.04411" lon="2.49789">
        <ele>977.4</ele>
        <time>2022-05-21 05:28:29</time>
      </trkpt>
      <trkpt lat="42.04412" lon="2.49797">
        <ele>977.4</ele>
        <time>2022-05-21 05:28:30</time>
      </trkpt>
      <trkpt lat="42.04413" lon="2.49805">
        <ele>977.4</ele>
        <time>2022-05-21 05:28:31</time>
      </trkpt>
      <trkpt lat="42.04414" lon="2.49812">
        <ele>977.6</ele>
        <time>2022-05-21 05:28:32</time>
      </trkpt>
      <trkpt lat="42.04414" lon="2.49819">
        <ele>977.8</ele>
        <time>2022-05-21 05:28:33</time>
      </trkpt>
      <trkpt lat="42.04414" lon="2.49826">
        <ele>977.8</ele>
        <time>2022-05-21 05:28:34</time>
      </trkpt>
      <trkpt lat="42.04413" lon="2.49832">
        <ele>978</ele>
        <time>2022-05-21 05:28:35</time>
      </trkpt>
      <trkpt lat="42.04413" lon="2.49838">
        <ele>978.2</ele>
        <time>2022-05-21 05:28:36</time>
      </trkpt>
      <trkpt lat="42.04413" lon="2.49843">
        <ele>978.4</ele>
        <time>2022-05-21 05:28:37</time>
      </trkpt>
      <trkpt lat="42.04413" lon="2.49849">
        <ele>978.8</ele>
        <time>2022-05-21 05:28:38</time>
      </trkpt>
      <trkpt lat="42.04413" lon="2.49855">
        <ele>979</ele>
        <time>2022-05-21 05:28:39</time>
      </trkpt>
      <trkpt lat="42.04413" lon="2.49861">
        <ele>979.4</ele>
        <time>2022-05-21 05:28:40</time>
      </trkpt>
      <trkpt lat="42.04413" lon="2.49867">
        <ele>979.6</ele>
        <time>2022-05-21 05:28:41</time>
      </trkpt>
      <trkpt lat="42.04413" lon="2.49872">
        <ele>979.8</ele>
        <time>2022-05-21 05:28:42</time>
      </trkpt>
      <trkpt lat="42.04413" lon="2.49877">
        <ele>980</ele>
        <time>2022-05-21 05:28:43</time>
      </trkpt>
      <trkpt lat="42.04414" lon="2.49883">
        <ele>980.2</ele>
        <time>2022-05-21 05:28:44</time>
      </trkpt>
      <trkpt lat="42.04415" lon="2.49888">
        <ele>980.6</ele>
        <time>2022-05-21 05:28:45</time>
      </trkpt>
      <trkpt lat="42.04416" lon="2.49893">
        <ele>980.8</ele>
        <time>2022-05-21 05:28:46</time>
      </trkpt>
      <trkpt lat="42.04416" lon="2.49899">
        <ele>981</ele>
        <time>2022-05-21 05:28:47</time>
      </trkpt>
      <trkpt lat="42.04417" lon="2.49903">
        <ele>981</ele>
        <time>2022-05-21 05:28:48</time>
      </trkpt>
      <trkpt lat="42.04418" lon="2.49908">
        <ele>981.4</ele>
        <time>2022-05-21 05:28:49</time>
      </trkpt>
      <trkpt lat="42.04419" lon="2.49913">
        <ele>981.6</ele>
        <time>2022-05-21 05:28:50</time>
      </trkpt>
      <trkpt lat="42.0442" lon="2.49918">
        <ele>981.8</ele>
        <time>2022-05-21 05:28:51</time>
      </trkpt>
      <trkpt lat="42.04421" lon="2.49923">
        <ele>982</ele>
        <time>2022-05-21 05:28:52</time>
      </trkpt>
      <trkpt lat="42.04422" lon="2.49928">
        <ele>982</ele>
        <time>2022-05-21 05:28:53</time>
      </trkpt>
      <trkpt lat="42.04423" lon="2.49932">
        <ele>982.2</ele>
        <time>2022-05-21 05:28:54</time>
      </trkpt>
      <trkpt lat="42.04424" lon="2.49936">
        <ele>982.4</ele>
        <time>2022-05-21 05:28:55</time>
      </trkpt>
      <trkpt lat="42.04425" lon="2.4994">
        <ele>982.6</ele>
        <time>2022-05-21 05:28:56</time>
      </trkpt>
      <trkpt lat="42.04427" lon="2.49945">
        <ele>982.8</ele>
        <time>2022-05-21 05:28:57</time>
      </trkpt>
      <trkpt lat="42.04428" lon="2.4995">
        <ele>983</ele>
        <time>2022-05-21 05:28:58</time>
      </trkpt>
      <trkpt lat="42.0443" lon="2.49954">
        <ele>983.2</ele>
        <time>2022-05-21 05:28:59</time>
      </trkpt>
      <trkpt lat="42.04432" lon="2.49959">
        <ele>983.4</ele>
        <time>2022-05-21 05:29:00</time>
      </trkpt>
      <trkpt lat="42.04433" lon="2.49964">
        <ele>983.6</ele>
        <time>2022-05-21 05:29:01</time>
      </trkpt>
      <trkpt lat="42.04435" lon="2.49969">
        <ele>983.8</ele>
        <time>2022-05-21 05:29:02</time>
      </trkpt>
      <trkpt lat="42.04436" lon="2.49974">
        <ele>983.8</ele>
        <time>2022-05-21 05:29:03</time>
      </trkpt>
      <trkpt lat="42.04436" lon="2.4998">
        <ele>984</ele>
        <time>2022-05-21 05:29:04</time>
      </trkpt>
      <trkpt lat="42.04435" lon="2.49985">
        <ele>984</ele>
        <time>2022-05-21 05:29:05</time>
      </trkpt>
      <trkpt lat="42.04434" lon="2.49989">
        <ele>984.2</ele>
        <time>2022-05-21 05:29:06</time>
      </trkpt>
      <trkpt lat="42.04432" lon="2.49993">
        <ele>984.4</ele>
        <time>2022-05-21 05:29:07</time>
      </trkpt>
      <trkpt lat="42.04429" lon="2.49997">
        <ele>984.4</ele>
        <time>2022-05-21 05:29:08</time>
      </trkpt>
      <trkpt lat="42.04427" lon="2.5">
        <ele>984.6</ele>
        <time>2022-05-21 05:29:09</time>
      </trkpt>
      <trkpt lat="42.04424" lon="2.50003">
        <ele>984.8</ele>
        <time>2022-05-21 05:29:10</time>
      </trkpt>
      <trkpt lat="42.04422" lon="2.50006">
        <ele>984.8</ele>
        <time>2022-05-21 05:29:11</time>
      </trkpt>
      <trkpt lat="42.04419" lon="2.50009">
        <ele>985</ele>
        <time>2022-05-21 05:29:12</time>
      </trkpt>
      <trkpt lat="42.04416" lon="2.50012">
        <ele>985.2</ele>
        <time>2022-05-21 05:29:13</time>
      </trkpt>
      <trkpt lat="42.04411" lon="2.50015">
        <ele>985.2</ele>
        <time>2022-05-21 05:29:14</time>
      </trkpt>
      <trkpt lat="42.04407" lon="2.50019">
        <ele>985.4</ele>
        <time>2022-05-21 05:29:15</time>
      </trkpt>
      <trkpt lat="42.04404" lon="2.50021">
        <ele>985.6</ele>
        <time>2022-05-21 05:29:16</time>
      </trkpt>
      <trkpt lat="42.04399" lon="2.50024">
        <ele>985.6</ele>
        <time>2022-05-21 05:29:17</time>
      </trkpt>
      <trkpt lat="42.04395" lon="2.50027">
        <ele>985.8</ele>
        <time>2022-05-21 05:29:18</time>
      </trkpt>
      <trkpt lat="42.04391" lon="2.50029">
        <ele>985.8</ele>
        <time>2022-05-21 05:29:19</time>
      </trkpt>
      <trkpt lat="42.04388" lon="2.50031">
        <ele>986</ele>
        <time>2022-05-21 05:29:20</time>
      </trkpt>
      <trkpt lat="42.04385" lon="2.50033">
        <ele>986.2</ele>
        <time>2022-05-21 05:29:21</time>
      </trkpt>
      <trkpt lat="42.04382" lon="2.50035">
        <ele>986.4</ele>
        <time>2022-05-21 05:29:22</time>
      </trkpt>
      <trkpt lat="42.04379" lon="2.50037">
        <ele>986.4</ele>
        <time>2022-05-21 05:29:23</time>
      </trkpt>
      <trkpt lat="42.04376" lon="2.50039">
        <ele>986.6</ele>
        <time>2022-05-21 05:29:24</time>
      </trkpt>
      <trkpt lat="42.04373" lon="2.50041">
        <ele>986.8</ele>
        <time>2022-05-21 05:29:25</time>
      </trkpt>
      <trkpt lat="42.0437" lon="2.50044">
        <ele>986.8</ele>
        <time>2022-05-21 05:29:26</time>
      </trkpt>
      <trkpt lat="42.04366" lon="2.50047">
        <ele>987</ele>
        <time>2022-05-21 05:29:27</time>
      </trkpt>
      <trkpt lat="42.04363" lon="2.50049">
        <ele>987</ele>
        <time>2022-05-21 05:29:28</time>
      </trkpt>
      <trkpt lat="42.04359" lon="2.50052">
        <ele>987.2</ele>
        <time>2022-05-21 05:29:29</time>
      </trkpt>
      <trkpt lat="42.04356" lon="2.50054">
        <ele>987.2</ele>
        <time>2022-05-21 05:29:30</time>
      </trkpt>
      <trkpt lat="42.04353" lon="2.50057">
        <ele>987.4</ele>
        <time>2022-05-21 05:29:31</time>
      </trkpt>
      <trkpt lat="42.0435" lon="2.5006">
        <ele>987.4</ele>
        <time>2022-05-21 05:29:32</time>
      </trkpt>
      <trkpt lat="42.04347" lon="2.50063">
        <ele>987.6</ele>
        <time>2022-05-21 05:29:33</time>
      </trkpt>
      <trkpt lat="42.04343" lon="2.50066">
        <ele>987.6</ele>
        <time>2022-05-21 05:29:34</time>
      </trkpt>
      <trkpt lat="42.0434" lon="2.5007">
        <ele>987.8</ele>
        <time>2022-05-21 05:29:35</time>
      </trkpt>
      <trkpt lat="42.04338" lon="2.50073">
        <ele>988</ele>
        <time>2022-05-21 05:29:36</time>
      </trkpt>
      <trkpt lat="42.04335" lon="2.50077">
        <ele>988</ele>
        <time>2022-05-21 05:29:37</time>
      </trkpt>
      <trkpt lat="42.04332" lon="2.50081">
        <ele>988.2</ele>
        <time>2022-05-21 05:29:38</time>
      </trkpt>
      <trkpt lat="42.0433" lon="2.50084">
        <ele>988.4</ele>
        <time>2022-05-21 05:29:39</time>
      </trkpt>
      <trkpt lat="42.04327" lon="2.50088">
        <ele>988.4</ele>
        <time>2022-05-21 05:29:40</time>
      </trkpt>
      <trkpt lat="42.04325" lon="2.50093">
        <ele>988.6</ele>
        <time>2022-05-21 05:29:41</time>
      </trkpt>
      <trkpt lat="42.04324" lon="2.50098">
        <ele>988.8</ele>
        <time>2022-05-21 05:29:42</time>
      </trkpt>
      <trkpt lat="42.04322" lon="2.50103">
        <ele>989</ele>
        <time>2022-05-21 05:29:43</time>
      </trkpt>
      <trkpt lat="42.04321" lon="2.50107">
        <ele>989.2</ele>
        <time>2022-05-21 05:29:44</time>
      </trkpt>
      <trkpt lat="42.0432" lon="2.50112">
        <ele>989.2</ele>
        <time>2022-05-21 05:29:45</time>
      </trkpt>
      <trkpt lat="42.04319" lon="2.50117">
        <ele>989.4</ele>
        <time>2022-05-21 05:29:46</time>
      </trkpt>
      <trkpt lat="42.04318" lon="2.50122">
        <ele>989.6</ele>
        <time>2022-05-21 05:29:47</time>
      </trkpt>
      <trkpt lat="42.04317" lon="2.50127">
        <ele>989.8</ele>
        <time>2022-05-21 05:29:48</time>
      </trkpt>
      <trkpt lat="42.04317" lon="2.50133">
        <ele>989.8</ele>
        <time>2022-05-21 05:29:49</time>
      </trkpt>
      <trkpt lat="42.04317" lon="2.50138">
        <ele>990</ele>
        <time>2022-05-21 05:29:50</time>
      </trkpt>
      <trkpt lat="42.04316" lon="2.50144">
        <ele>990</ele>
        <time>2022-05-21 05:29:51</time>
      </trkpt>
      <trkpt lat="42.04317" lon="2.50149">
        <ele>990.2</ele>
        <time>2022-05-21 05:29:52</time>
      </trkpt>
      <trkpt lat="42.04317" lon="2.50155">
        <ele>990.2</ele>
        <time>2022-05-21 05:29:53</time>
      </trkpt>
      <trkpt lat="42.04317" lon="2.50161">
        <ele>990.4</ele>
        <time>2022-05-21 05:29:54</time>
      </trkpt>
      <trkpt lat="42.04318" lon="2.50166">
        <ele>990.4</ele>
        <time>2022-05-21 05:29:55</time>
      </trkpt>
      <trkpt lat="42.04318" lon="2.50172">
        <ele>990.6</ele>
        <time>2022-05-21 05:29:56</time>
      </trkpt>
      <trkpt lat="42.04318" lon="2.50177">
        <ele>990.6</ele>
        <time>2022-05-21 05:29:57</time>
      </trkpt>
      <trkpt lat="42.04318" lon="2.50183">
        <ele>990.6</ele>
        <time>2022-05-21 05:29:58</time>
      </trkpt>
      <trkpt lat="42.04318" lon="2.50188">
        <ele>990.8</ele>
        <time>2022-05-21 05:29:59</time>
      </trkpt>
      <trkpt lat="42.04317" lon="2.50194">
        <ele>991</ele>
        <time>2022-05-21 05:30:00</time>
      </trkpt>
      <trkpt lat="42.04316" lon="2.50199">
        <ele>991</ele>
        <time>2022-05-21 05:30:01</time>
      </trkpt>
      <trkpt lat="42.04316" lon="2.50204">
        <ele>991.2</ele>
        <time>2022-05-21 05:30:02</time>
      </trkpt>
      <trkpt lat="42.04315" lon="2.50208">
        <ele>991.4</ele>
        <time>2022-05-21 05:30:03</time>
      </trkpt>
      <trkpt lat="42.04313" lon="2.50213">
        <ele>991.4</ele>
        <time>2022-05-21 05:30:04</time>
      </trkpt>
      <trkpt lat="42.04311" lon="2.50218">
        <ele>991.6</ele>
        <time>2022-05-21 05:30:05</time>
      </trkpt>
      <trkpt lat="42.04309" lon="2.50222">
        <ele>991.6</ele>
        <time>2022-05-21 05:30:06</time>
      </trkpt>
      <trkpt lat="42.04307" lon="2.50227">
        <ele>991.8</ele>
        <time>2022-05-21 05:30:07</time>
      </trkpt>
      <trkpt lat="42.04305" lon="2.50231">
        <ele>991.8</ele>
        <time>2022-05-21 05:30:08</time>
      </trkpt>
      <trkpt lat="42.04302" lon="2.50235">
        <ele>992</ele>
        <time>2022-05-21 05:30:09</time>
      </trkpt>
      <trkpt lat="42.04299" lon="2.50238">
        <ele>992.2</ele>
        <time>2022-05-21 05:30:10</time>
      </trkpt>
      <trkpt lat="42.04296" lon="2.50241">
        <ele>992.2</ele>
        <time>2022-05-21 05:30:11</time>
      </trkpt>
      <trkpt lat="42.04292" lon="2.50245">
        <ele>992.4</ele>
        <time>2022-05-21 05:30:12</time>
      </trkpt>
      <trkpt lat="42.04288" lon="2.50249">
        <ele>992.4</ele>
        <time>2022-05-21 05:30:13</time>
      </trkpt>
      <trkpt lat="42.04284" lon="2.50252">
        <ele>992.4</ele>
        <time>2022-05-21 05:30:14</time>
      </trkpt>
      <trkpt lat="42.0428" lon="2.50255">
        <ele>992.6</ele>
        <time>2022-05-21 05:30:15</time>
      </trkpt>
      <trkpt lat="42.04277" lon="2.50259">
        <ele>992.6</ele>
        <time>2022-05-21 05:30:16</time>
      </trkpt>
      <trkpt lat="42.04274" lon="2.50262">
        <ele>992.8</ele>
        <time>2022-05-21 05:30:17</time>
      </trkpt>
      <trkpt lat="42.04271" lon="2.50266">
        <ele>992.8</ele>
        <time>2022-05-21 05:30:18</time>
      </trkpt>
      <trkpt lat="42.04267" lon="2.5027">
        <ele>992.8</ele>
        <time>2022-05-21 05:30:19</time>
      </trkpt>
      <trkpt lat="42.04263" lon="2.50274">
        <ele>993</ele>
        <time>2022-05-21 05:30:20</time>
      </trkpt>
      <trkpt lat="42.04259" lon="2.50278">
        <ele>993</ele>
        <time>2022-05-21 05:30:21</time>
      </trkpt>
      <trkpt lat="42.04256" lon="2.50283">
        <ele>993.2</ele>
        <time>2022-05-21 05:30:22</time>
      </trkpt>
      <trkpt lat="42.04253" lon="2.50288">
        <ele>993.2</ele>
        <time>2022-05-21 05:30:23</time>
      </trkpt>
      <trkpt lat="42.0425" lon="2.50293">
        <ele>993.2</ele>
        <time>2022-05-21 05:30:24</time>
      </trkpt>
      <trkpt lat="42.04247" lon="2.50299">
        <ele>993.4</ele>
        <time>2022-05-21 05:30:25</time>
      </trkpt>
      <trkpt lat="42.04244" lon="2.50305">
        <ele>993.4</ele>
        <time>2022-05-21 05:30:26</time>
      </trkpt>
      <trkpt lat="42.04241" lon="2.50311">
        <ele>993.4</ele>
        <time>2022-05-21 05:30:27</time>
      </trkpt>
      <trkpt lat="42.04238" lon="2.50318">
        <ele>993.6</ele>
        <time>2022-05-21 05:30:28</time>
      </trkpt>
      <trkpt lat="42.04234" lon="2.50324">
        <ele>993.6</ele>
        <time>2022-05-21 05:30:29</time>
      </trkpt>
      <trkpt lat="42.04231" lon="2.50331">
        <ele>993.6</ele>
        <time>2022-05-21 05:30:30</time>
      </trkpt>
      <trkpt lat="42.04228" lon="2.50338">
        <ele>993.6</ele>
        <time>2022-05-21 05:30:31</time>
      </trkpt>
      <trkpt lat="42.04225" lon="2.50345">
        <ele>993.6</ele>
        <time>2022-05-21 05:30:32</time>
      </trkpt>
      <trkpt lat="42.04221" lon="2.50352">
        <ele>993.8</ele>
        <time>2022-05-21 05:30:33</time>
      </trkpt>
      <trkpt lat="42.04218" lon="2.50359">
        <ele>993.8</ele>
        <time>2022-05-21 05:30:34</time>
      </trkpt>
      <trkpt lat="42.04214" lon="2.50366">
        <ele>994</ele>
        <time>2022-05-21 05:30:35</time>
      </trkpt>
      <trkpt lat="42.04211" lon="2.50372">
        <ele>994</ele>
        <time>2022-05-21 05:30:36</time>
      </trkpt>
      <trkpt lat="42.04208" lon="2.50379">
        <ele>994.2</ele>
        <time>2022-05-21 05:30:37</time>
      </trkpt>
      <trkpt lat="42.04205" lon="2.50387">
        <ele>994.2</ele>
        <time>2022-05-21 05:30:38</time>
      </trkpt>
      <trkpt lat="42.04202" lon="2.50394">
        <ele>994.4</ele>
        <time>2022-05-21 05:30:39</time>
      </trkpt>
      <trkpt lat="42.042" lon="2.50402">
        <ele>994.4</ele>
        <time>2022-05-21 05:30:40</time>
      </trkpt>
      <trkpt lat="42.04199" lon="2.50411">
        <ele>994.6</ele>
        <time>2022-05-21 05:30:41</time>
      </trkpt>
      <trkpt lat="42.04198" lon="2.50419">
        <ele>994.6</ele>
        <time>2022-05-21 05:30:42</time>
      </trkpt>
      <trkpt lat="42.04197" lon="2.50427">
        <ele>994.8</ele>
        <time>2022-05-21 05:30:43</time>
      </trkpt>
      <trkpt lat="42.04198" lon="2.50436">
        <ele>994.8</ele>
        <time>2022-05-21 05:30:44</time>
      </trkpt>
      <trkpt lat="42.04198" lon="2.50444">
        <ele>995</ele>
        <time>2022-05-21 05:30:45</time>
      </trkpt>
      <trkpt lat="42.042" lon="2.50452">
        <ele>995</ele>
        <time>2022-05-21 05:30:46</time>
      </trkpt>
      <trkpt lat="42.04202" lon="2.50459">
        <ele>995</ele>
        <time>2022-05-21 05:30:47</time>
      </trkpt>
      <trkpt lat="42.04204" lon="2.50467">
        <ele>995</ele>
        <time>2022-05-21 05:30:48</time>
      </trkpt>
      <trkpt lat="42.04207" lon="2.50474">
        <ele>995</ele>
        <time>2022-05-21 05:30:49</time>
      </trkpt>
      <trkpt lat="42.04211" lon="2.50481">
        <ele>995</ele>
        <time>2022-05-21 05:30:50</time>
      </trkpt>
      <trkpt lat="42.04215" lon="2.50487">
        <ele>995</ele>
        <time>2022-05-21 05:30:51</time>
      </trkpt>
      <trkpt lat="42.04219" lon="2.50494">
        <ele>995.2</ele>
        <time>2022-05-21 05:30:52</time>
      </trkpt>
      <trkpt lat="42.04223" lon="2.505">
        <ele>995</ele>
        <time>2022-05-21 05:30:53</time>
      </trkpt>
      <trkpt lat="42.04228" lon="2.50505">
        <ele>995.2</ele>
        <time>2022-05-21 05:30:54</time>
      </trkpt>
      <trkpt lat="42.04232" lon="2.50511">
        <ele>995.2</ele>
        <time>2022-05-21 05:30:55</time>
      </trkpt>
      <trkpt lat="42.04236" lon="2.50517">
        <ele>995.2</ele>
        <time>2022-05-21 05:30:56</time>
      </trkpt>
      <trkpt lat="42.0424" lon="2.50523">
        <ele>995.2</ele>
        <time>2022-05-21 05:30:57</time>
      </trkpt>
      <trkpt lat="42.04244" lon="2.50529">
        <ele>995.2</ele>
        <time>2022-05-21 05:30:58</time>
      </trkpt>
      <trkpt lat="42.04248" lon="2.50536">
        <ele>995.2</ele>
        <time>2022-05-21 05:30:59</time>
      </trkpt>
      <trkpt lat="42.04252" lon="2.50542">
        <ele>995.4</ele>
        <time>2022-05-21 05:31:00</time>
      </trkpt>
      <trkpt lat="42.04256" lon="2.50548">
        <ele>995.4</ele>
        <time>2022-05-21 05:31:01</time>
      </trkpt>
      <trkpt lat="42.0426" lon="2.50555">
        <ele>995.4</ele>
        <time>2022-05-21 05:31:02</time>
      </trkpt>
      <trkpt lat="42.04264" lon="2.50562">
        <ele>995.4</ele>
        <time>2022-05-21 05:31:03</time>
      </trkpt>
      <trkpt lat="42.04268" lon="2.50568">
        <ele>995.6</ele>
        <time>2022-05-21 05:31:04</time>
      </trkpt>
      <trkpt lat="42.04271" lon="2.50575">
        <ele>995.6</ele>
        <time>2022-05-21 05:31:05</time>
      </trkpt>
      <trkpt lat="42.04274" lon="2.50581">
        <ele>995.8</ele>
        <time>2022-05-21 05:31:06</time>
      </trkpt>
      <trkpt lat="42.04278" lon="2.50586">
        <ele>995.8</ele>
        <time>2022-05-21 05:31:07</time>
      </trkpt>
      <trkpt lat="42.04281" lon="2.50592">
        <ele>996</ele>
        <time>2022-05-21 05:31:08</time>
      </trkpt>
      <trkpt lat="42.04284" lon="2.50598">
        <ele>996.2</ele>
        <time>2022-05-21 05:31:09</time>
      </trkpt>
      <trkpt lat="42.04288" lon="2.50604">
        <ele>996.2</ele>
        <time>2022-05-21 05:31:10</time>
      </trkpt>
      <trkpt lat="42.04291" lon="2.5061">
        <ele>996.4</ele>
        <time>2022-05-21 05:31:11</time>
      </trkpt>
      <trkpt lat="42.04295" lon="2.50617">
        <ele>996.4</ele>
        <time>2022-05-21 05:31:12</time>
      </trkpt>
      <trkpt lat="42.04298" lon="2.50624">
        <ele>996.6</ele>
        <time>2022-05-21 05:31:13</time>
      </trkpt>
      <trkpt lat="42.04302" lon="2.5063">
        <ele>996.6</ele>
        <time>2022-05-21 05:31:14</time>
      </trkpt>
      <trkpt lat="42.04306" lon="2.50635">
        <ele>996.8</ele>
        <time>2022-05-21 05:31:15</time>
      </trkpt>
      <trkpt lat="42.04309" lon="2.5064">
        <ele>997</ele>
        <time>2022-05-21 05:31:16</time>
      </trkpt>
      <trkpt lat="42.04313" lon="2.50646">
        <ele>997.2</ele>
        <time>2022-05-21 05:31:17</time>
      </trkpt>
      <trkpt lat="42.04317" lon="2.50651">
        <ele>997.2</ele>
        <time>2022-05-21 05:31:18</time>
      </trkpt>
      <trkpt lat="42.0432" lon="2.50656">
        <ele>997.4</ele>
        <time>2022-05-21 05:31:19</time>
      </trkpt>
      <trkpt lat="42.04323" lon="2.50662">
        <ele>997.4</ele>
        <time>2022-05-21 05:31:20</time>
      </trkpt>
      <trkpt lat="42.04327" lon="2.50668">
        <ele>997.6</ele>
        <time>2022-05-21 05:31:21</time>
      </trkpt>
      <trkpt lat="42.0433" lon="2.50673">
        <ele>997.6</ele>
        <time>2022-05-21 05:31:22</time>
      </trkpt>
      <trkpt lat="42.04334" lon="2.50679">
        <ele>997.8</ele>
        <time>2022-05-21 05:31:23</time>
      </trkpt>
      <trkpt lat="42.04338" lon="2.50686">
        <ele>997.8</ele>
        <time>2022-05-21 05:31:24</time>
      </trkpt>
      <trkpt lat="42.04342" lon="2.50693">
        <ele>998</ele>
        <time>2022-05-21 05:31:25</time>
      </trkpt>
      <trkpt lat="42.04346" lon="2.507">
        <ele>998</ele>
        <time>2022-05-21 05:31:26</time>
      </trkpt>
      <trkpt lat="42.0435" lon="2.50707">
        <ele>998</ele>
        <time>2022-05-21 05:31:27</time>
      </trkpt>
      <trkpt lat="42.04353" lon="2.50714">
        <ele>998</ele>
        <time>2022-05-21 05:31:28</time>
      </trkpt>
      <trkpt lat="42.04357" lon="2.5072">
        <ele>998.2</ele>
        <time>2022-05-21 05:31:29</time>
      </trkpt>
      <trkpt lat="42.04361" lon="2.50726">
        <ele>998.2</ele>
        <time>2022-05-21 05:31:30</time>
      </trkpt>
      <trkpt lat="42.04364" lon="2.50732">
        <ele>998.2</ele>
        <time>2022-05-21 05:31:31</time>
      </trkpt>
      <trkpt lat="42.04369" lon="2.5074">
        <ele>998.2</ele>
        <time>2022-05-21 05:31:32</time>
      </trkpt>
      <trkpt lat="42.04372" lon="2.50746">
        <ele>998.4</ele>
        <time>2022-05-21 05:31:33</time>
      </trkpt>
      <trkpt lat="42.04376" lon="2.50753">
        <ele>998.4</ele>
        <time>2022-05-21 05:31:34</time>
      </trkpt>
      <trkpt lat="42.0438" lon="2.50759">
        <ele>998.4</ele>
        <time>2022-05-21 05:31:35</time>
      </trkpt>
      <trkpt lat="42.04383" lon="2.50765">
        <ele>998.4</ele>
        <time>2022-05-21 05:31:36</time>
      </trkpt>
      <trkpt lat="42.04387" lon="2.50771">
        <ele>998.6</ele>
        <time>2022-05-21 05:31:37</time>
      </trkpt>
      <trkpt lat="42.04391" lon="2.50777">
        <ele>998.4</ele>
        <time>2022-05-21 05:31:38</time>
      </trkpt>
      <trkpt lat="42.04394" lon="2.50784">
        <ele>998.4</ele>
        <time>2022-05-21 05:31:39</time>
      </trkpt>
      <trkpt lat="42.04398" lon="2.5079">
        <ele>998.4</ele>
        <time>2022-05-21 05:31:40</time>
      </trkpt>
      <trkpt lat="42.04402" lon="2.50797">
        <ele>998.4</ele>
        <time>2022-05-21 05:31:41</time>
      </trkpt>
      <trkpt lat="42.04406" lon="2.50803">
        <ele>998.4</ele>
        <time>2022-05-21 05:31:42</time>
      </trkpt>
      <trkpt lat="42.0441" lon="2.50809">
        <ele>998.4</ele>
        <time>2022-05-21 05:31:43</time>
      </trkpt>
      <trkpt lat="42.04414" lon="2.50815">
        <ele>998.4</ele>
        <time>2022-05-21 05:31:44</time>
      </trkpt>
      <trkpt lat="42.04418" lon="2.50821">
        <ele>998.4</ele>
        <time>2022-05-21 05:31:45</time>
      </trkpt>
      <trkpt lat="42.04422" lon="2.50827">
        <ele>998.4</ele>
        <time>2022-05-21 05:31:46</time>
      </trkpt>
      <trkpt lat="42.04427" lon="2.50833">
        <ele>998.4</ele>
        <time>2022-05-21 05:31:47</time>
      </trkpt>
      <trkpt lat="42.04431" lon="2.50839">
        <ele>998.4</ele>
        <time>2022-05-21 05:31:48</time>
      </trkpt>
      <trkpt lat="42.04435" lon="2.50844">
        <ele>998.4</ele>
        <time>2022-05-21 05:31:49</time>
      </trkpt>
      <trkpt lat="42.0444" lon="2.5085">
        <ele>998.4</ele>
        <time>2022-05-21 05:31:50</time>
      </trkpt>
      <trkpt lat="42.04444" lon="2.50856">
        <ele>998.6</ele>
        <time>2022-05-21 05:31:51</time>
      </trkpt>
      <trkpt lat="42.04448" lon="2.50862">
        <ele>998.4</ele>
        <time>2022-05-21 05:31:52</time>
      </trkpt>
      <trkpt lat="42.04452" lon="2.50868">
        <ele>998.4</ele>
        <time>2022-05-21 05:31:53</time>
      </trkpt>
      <trkpt lat="42.04456" lon="2.50875">
        <ele>998.4</ele>
        <time>2022-05-21 05:31:54</time>
      </trkpt>
      <trkpt lat="42.0446" lon="2.50881">
        <ele>998.4</ele>
        <time>2022-05-21 05:31:55</time>
      </trkpt>
      <trkpt lat="42.04464" lon="2.50887">
        <ele>998.4</ele>
        <time>2022-05-21 05:31:56</time>
      </trkpt>
      <trkpt lat="42.04469" lon="2.50893">
        <ele>998.6</ele>
        <time>2022-05-21 05:31:57</time>
      </trkpt>
      <trkpt lat="42.04473" lon="2.50899">
        <ele>998.6</ele>
        <time>2022-05-21 05:31:58</time>
      </trkpt>
      <trkpt lat="42.04477" lon="2.50904">
        <ele>998.6</ele>
        <time>2022-05-21 05:31:59</time>
      </trkpt>
      <trkpt lat="42.04482" lon="2.50908">
        <ele>998.6</ele>
        <time>2022-05-21 05:32:00</time>
      </trkpt>
      <trkpt lat="42.04486" lon="2.50912">
        <ele>998.6</ele>
        <time>2022-05-21 05:32:01</time>
      </trkpt>
      <trkpt lat="42.04491" lon="2.50914">
        <ele>998.8</ele>
        <time>2022-05-21 05:32:02</time>
      </trkpt>
      <trkpt lat="42.04496" lon="2.50917">
        <ele>998.8</ele>
        <time>2022-05-21 05:32:03</time>
      </trkpt>
      <trkpt lat="42.04501" lon="2.5092">
        <ele>998.8</ele>
        <time>2022-05-21 05:32:04</time>
      </trkpt>
      <trkpt lat="42.04506" lon="2.50924">
        <ele>999</ele>
        <time>2022-05-21 05:32:05</time>
      </trkpt>
      <trkpt lat="42.0451" lon="2.50927">
        <ele>999</ele>
        <time>2022-05-21 05:32:06</time>
      </trkpt>
      <trkpt lat="42.04515" lon="2.50929">
        <ele>999</ele>
        <time>2022-05-21 05:32:07</time>
      </trkpt>
      <trkpt lat="42.04522" lon="2.50932">
        <ele>999</ele>
        <time>2022-05-21 05:32:08</time>
      </trkpt>
      <trkpt lat="42.04528" lon="2.50935">
        <ele>999</ele>
        <time>2022-05-21 05:32:09</time>
      </trkpt>
      <trkpt lat="42.04535" lon="2.50938">
        <ele>999</ele>
        <time>2022-05-21 05:32:10</time>
      </trkpt>
      <trkpt lat="42.04541" lon="2.5094">
        <ele>999.2</ele>
        <time>2022-05-21 05:32:11</time>
      </trkpt>
      <trkpt lat="42.04548" lon="2.50942">
        <ele>999.2</ele>
        <time>2022-05-21 05:32:12</time>
      </trkpt>
      <trkpt lat="42.04555" lon="2.50944">
        <ele>999.2</ele>
        <time>2022-05-21 05:32:13</time>
      </trkpt>
      <trkpt lat="42.0456" lon="2.50946">
        <ele>999.4</ele>
        <time>2022-05-21 05:32:14</time>
      </trkpt>
      <trkpt lat="42.04567" lon="2.50949">
        <ele>999.4</ele>
        <time>2022-05-21 05:32:15</time>
      </trkpt>
      <trkpt lat="42.04573" lon="2.50952">
        <ele>999.6</ele>
        <time>2022-05-21 05:32:16</time>
      </trkpt>
      <trkpt lat="42.04579" lon="2.50954">
        <ele>999.6</ele>
        <time>2022-05-21 05:32:17</time>
      </trkpt>
      <trkpt lat="42.04585" lon="2.50957">
        <ele>999.6</ele>
        <time>2022-05-21 05:32:18</time>
      </trkpt>
      <trkpt lat="42.04591" lon="2.50959">
        <ele>999.6</ele>
        <time>2022-05-21 05:32:19</time>
      </trkpt>
      <trkpt lat="42.04597" lon="2.50961">
        <ele>999.6</ele>
        <time>2022-05-21 05:32:20</time>
      </trkpt>
      <trkpt lat="42.04603" lon="2.50963">
        <ele>999.6</ele>
        <time>2022-05-21 05:32:21</time>
      </trkpt>
      <trkpt lat="42.04608" lon="2.50965">
        <ele>999.6</ele>
        <time>2022-05-21 05:32:22</time>
      </trkpt>
      <trkpt lat="42.04614" lon="2.50967">
        <ele>999.6</ele>
        <time>2022-05-21 05:32:23</time>
      </trkpt>
      <trkpt lat="42.0462" lon="2.50969">
        <ele>999.8</ele>
        <time>2022-05-21 05:32:24</time>
      </trkpt>
      <trkpt lat="42.04625" lon="2.5097">
        <ele>999.8</ele>
        <time>2022-05-21 05:32:25</time>
      </trkpt>
      <trkpt lat="42.04631" lon="2.50971">
        <ele>999.6</ele>
        <time>2022-05-21 05:32:26</time>
      </trkpt>
      <trkpt lat="42.04636" lon="2.50972">
        <ele>999.6</ele>
        <time>2022-05-21 05:32:27</time>
      </trkpt>
      <trkpt lat="42.04642" lon="2.50972">
        <ele>999.6</ele>
        <time>2022-05-21 05:32:28</time>
      </trkpt>
      <trkpt lat="42.04647" lon="2.50971">
        <ele>999.6</ele>
        <time>2022-05-21 05:32:29</time>
      </trkpt>
      <trkpt lat="42.04652" lon="2.50971">
        <ele>999.6</ele>
        <time>2022-05-21 05:32:30</time>
      </trkpt>
      <trkpt lat="42.04657" lon="2.5097">
        <ele>999.6</ele>
        <time>2022-05-21 05:32:31</time>
      </trkpt>
      <trkpt lat="42.04662" lon="2.50969">
        <ele>999.6</ele>
        <time>2022-05-21 05:32:32</time>
      </trkpt>
      <trkpt lat="42.04667" lon="2.50969">
        <ele>999.6</ele>
        <time>2022-05-21 05:32:33</time>
      </trkpt>
      <trkpt lat="42.04673" lon="2.50969">
        <ele>999.6</ele>
        <time>2022-05-21 05:32:34</time>
      </trkpt>
      <trkpt lat="42.04678" lon="2.50971">
        <ele>999.6</ele>
        <time>2022-05-21 05:32:35</time>
      </trkpt>
      <trkpt lat="42.04684" lon="2.50974">
        <ele>999.6</ele>
        <time>2022-05-21 05:32:36</time>
      </trkpt>
      <trkpt lat="42.0469" lon="2.50977">
        <ele>999.6</ele>
        <time>2022-05-21 05:32:37</time>
      </trkpt>
      <trkpt lat="42.04695" lon="2.50981">
        <ele>999.8</ele>
        <time>2022-05-21 05:32:38</time>
      </trkpt>
      <trkpt lat="42.04699" lon="2.50985">
        <ele>1000</ele>
        <time>2022-05-21 05:32:39</time>
      </trkpt>
      <trkpt lat="42.04704" lon="2.50991">
        <ele>1000</ele>
        <time>2022-05-21 05:32:40</time>
      </trkpt>
      <trkpt lat="42.04708" lon="2.50998">
        <ele>1000.2</ele>
        <time>2022-05-21 05:32:41</time>
      </trkpt>
      <trkpt lat="42.04711" lon="2.51004">
        <ele>1000.4</ele>
        <time>2022-05-21 05:32:42</time>
      </trkpt>
      <trkpt lat="42.04714" lon="2.51012">
        <ele>1000.6</ele>
        <time>2022-05-21 05:32:43</time>
      </trkpt>
      <trkpt lat="42.04716" lon="2.51019">
        <ele>1000.8</ele>
        <time>2022-05-21 05:32:44</time>
      </trkpt>
      <trkpt lat="42.04719" lon="2.51027">
        <ele>1001</ele>
        <time>2022-05-21 05:32:45</time>
      </trkpt>
      <trkpt lat="42.04723" lon="2.51035">
        <ele>1001</ele>
        <time>2022-05-21 05:32:46</time>
      </trkpt>
      <trkpt lat="42.04726" lon="2.51042">
        <ele>1001.2</ele>
        <time>2022-05-21 05:32:47</time>
      </trkpt>
      <trkpt lat="42.04729" lon="2.51051">
        <ele>1001.4</ele>
        <time>2022-05-21 05:32:48</time>
      </trkpt>
      <trkpt lat="42.04733" lon="2.51059">
        <ele>1001.6</ele>
        <time>2022-05-21 05:32:49</time>
      </trkpt>
      <trkpt lat="42.04736" lon="2.51066">
        <ele>1001.8</ele>
        <time>2022-05-21 05:32:50</time>
      </trkpt>
      <trkpt lat="42.04738" lon="2.51073">
        <ele>1002</ele>
        <time>2022-05-21 05:32:51</time>
      </trkpt>
      <trkpt lat="42.04741" lon="2.5108">
        <ele>1002.2</ele>
        <time>2022-05-21 05:32:52</time>
      </trkpt>
      <trkpt lat="42.04744" lon="2.51086">
        <ele>1002.4</ele>
        <time>2022-05-21 05:32:53</time>
      </trkpt>
      <trkpt lat="42.04747" lon="2.51092">
        <ele>1002.6</ele>
        <time>2022-05-21 05:32:54</time>
      </trkpt>
      <trkpt lat="42.0475" lon="2.51098">
        <ele>1002.8</ele>
        <time>2022-05-21 05:32:55</time>
      </trkpt>
      <trkpt lat="42.04754" lon="2.51103">
        <ele>1003</ele>
        <time>2022-05-21 05:32:56</time>
      </trkpt>
      <trkpt lat="42.04758" lon="2.51108">
        <ele>1003.4</ele>
        <time>2022-05-21 05:32:57</time>
      </trkpt>
      <trkpt lat="42.04762" lon="2.51114">
        <ele>1003.4</ele>
        <time>2022-05-21 05:32:58</time>
      </trkpt>
      <trkpt lat="42.04767" lon="2.51119">
        <ele>1003.6</ele>
        <time>2022-05-21 05:32:59</time>
      </trkpt>
      <trkpt lat="42.04773" lon="2.51124">
        <ele>1003.6</ele>
        <time>2022-05-21 05:33:00</time>
      </trkpt>
      <trkpt lat="42.04779" lon="2.51128">
        <ele>1003.6</ele>
        <time>2022-05-21 05:33:01</time>
      </trkpt>
      <trkpt lat="42.04785" lon="2.51131">
        <ele>1003.4</ele>
        <time>2022-05-21 05:33:02</time>
      </trkpt>
      <trkpt lat="42.04791" lon="2.51132">
        <ele>1003</ele>
        <time>2022-05-21 05:33:03</time>
      </trkpt>
      <trkpt lat="42.04798" lon="2.51131">
        <ele>1002.8</ele>
        <time>2022-05-21 05:33:04</time>
      </trkpt>
      <trkpt lat="42.04806" lon="2.51128">
        <ele>1002.4</ele>
        <time>2022-05-21 05:33:05</time>
      </trkpt>
      <trkpt lat="42.04813" lon="2.51123">
        <ele>1001.8</ele>
        <time>2022-05-21 05:33:06</time>
      </trkpt>
      <trkpt lat="42.0482" lon="2.51117">
        <ele>1001.2</ele>
        <time>2022-05-21 05:33:07</time>
      </trkpt>
      <trkpt lat="42.04827" lon="2.51111">
        <ele>1000.6</ele>
        <time>2022-05-21 05:33:08</time>
      </trkpt>
      <trkpt lat="42.04835" lon="2.51103">
        <ele>1000</ele>
        <time>2022-05-21 05:33:09</time>
      </trkpt>
      <trkpt lat="42.04844" lon="2.51096">
        <ele>999.2</ele>
        <time>2022-05-21 05:33:10</time>
      </trkpt>
      <trkpt lat="42.04853" lon="2.51089">
        <ele>998.4</ele>
        <time>2022-05-21 05:33:11</time>
      </trkpt>
      <trkpt lat="42.04861" lon="2.51081">
        <ele>997.6</ele>
        <time>2022-05-21 05:33:12</time>
      </trkpt>
      <trkpt lat="42.04871" lon="2.51072">
        <ele>996.6</ele>
        <time>2022-05-21 05:33:13</time>
      </trkpt>
      <trkpt lat="42.04879" lon="2.51063">
        <ele>995.8</ele>
        <time>2022-05-21 05:33:14</time>
      </trkpt>
      <trkpt lat="42.04889" lon="2.51054">
        <ele>994.8</ele>
        <time>2022-05-21 05:33:15</time>
      </trkpt>
      <trkpt lat="42.04898" lon="2.51046">
        <ele>994</ele>
        <time>2022-05-21 05:33:16</time>
      </trkpt>
      <trkpt lat="42.04908" lon="2.51039">
        <ele>993</ele>
        <time>2022-05-21 05:33:17</time>
      </trkpt>
      <trkpt lat="42.04917" lon="2.51033">
        <ele>992</ele>
        <time>2022-05-21 05:33:18</time>
      </trkpt>
      <trkpt lat="42.04928" lon="2.51026">
        <ele>991</ele>
        <time>2022-05-21 05:33:19</time>
      </trkpt>
      <trkpt lat="42.0494" lon="2.51019">
        <ele>990</ele>
        <time>2022-05-21 05:33:20</time>
      </trkpt>
      <trkpt lat="42.04952" lon="2.51013">
        <ele>989</ele>
        <time>2022-05-21 05:33:21</time>
      </trkpt>
      <trkpt lat="42.04964" lon="2.51006">
        <ele>988</ele>
        <time>2022-05-21 05:33:22</time>
      </trkpt>
      <trkpt lat="42.04977" lon="2.50999">
        <ele>987</ele>
        <time>2022-05-21 05:33:23</time>
      </trkpt>
      <trkpt lat="42.04988" lon="2.50992">
        <ele>986</ele>
        <time>2022-05-21 05:33:24</time>
      </trkpt>
      <trkpt lat="42.04999" lon="2.50984">
        <ele>985</ele>
        <time>2022-05-21 05:33:25</time>
      </trkpt>
      <trkpt lat="42.0501" lon="2.50977">
        <ele>983.8</ele>
        <time>2022-05-21 05:33:26</time>
      </trkpt>
      <trkpt lat="42.05021" lon="2.50969">
        <ele>982.8</ele>
        <time>2022-05-21 05:33:27</time>
      </trkpt>
      <trkpt lat="42.05033" lon="2.50962">
        <ele>981.8</ele>
        <time>2022-05-21 05:33:28</time>
      </trkpt>
      <trkpt lat="42.05045" lon="2.50954">
        <ele>980.8</ele>
        <time>2022-05-21 05:33:29</time>
      </trkpt>
      <trkpt lat="42.05058" lon="2.50944">
        <ele>979.6</ele>
        <time>2022-05-21 05:33:30</time>
      </trkpt>
      <trkpt lat="42.0507" lon="2.50934">
        <ele>978.8</ele>
        <time>2022-05-21 05:33:31</time>
      </trkpt>
      <trkpt lat="42.05082" lon="2.50924">
        <ele>977.8</ele>
        <time>2022-05-21 05:33:32</time>
      </trkpt>
      <trkpt lat="42.05092" lon="2.50915">
        <ele>977</ele>
        <time>2022-05-21 05:33:33</time>
      </trkpt>
      <trkpt lat="42.05102" lon="2.50904">
        <ele>976</ele>
        <time>2022-05-21 05:33:34</time>
      </trkpt>
      <trkpt lat="42.05112" lon="2.50892">
        <ele>975.2</ele>
        <time>2022-05-21 05:33:35</time>
      </trkpt>
      <trkpt lat="42.05121" lon="2.5088">
        <ele>974.2</ele>
        <time>2022-05-21 05:33:36</time>
      </trkpt>
      <trkpt lat="42.05129" lon="2.50867">
        <ele>973.2</ele>
        <time>2022-05-21 05:33:37</time>
      </trkpt>
      <trkpt lat="42.05135" lon="2.50854">
        <ele>972.4</ele>
        <time>2022-05-21 05:33:38</time>
      </trkpt>
      <trkpt lat="42.05142" lon="2.5084">
        <ele>971.4</ele>
        <time>2022-05-21 05:33:39</time>
      </trkpt>
      <trkpt lat="42.05148" lon="2.50826">
        <ele>970.4</ele>
        <time>2022-05-21 05:33:40</time>
      </trkpt>
      <trkpt lat="42.05154" lon="2.50813">
        <ele>969.6</ele>
        <time>2022-05-21 05:33:41</time>
      </trkpt>
      <trkpt lat="42.05161" lon="2.508">
        <ele>968.8</ele>
        <time>2022-05-21 05:33:42</time>
      </trkpt>
      <trkpt lat="42.05167" lon="2.50789">
        <ele>968</ele>
        <time>2022-05-21 05:33:43</time>
      </trkpt>
      <trkpt lat="42.05175" lon="2.50779">
        <ele>967.2</ele>
        <time>2022-05-21 05:33:44</time>
      </trkpt>
      <trkpt lat="42.05184" lon="2.50771">
        <ele>966.4</ele>
        <time>2022-05-21 05:33:45</time>
      </trkpt>
      <trkpt lat="42.05195" lon="2.50764">
        <ele>965.4</ele>
        <time>2022-05-21 05:33:46</time>
      </trkpt>
      <trkpt lat="42.05207" lon="2.50757">
        <ele>964.4</ele>
        <time>2022-05-21 05:33:47</time>
      </trkpt>
      <trkpt lat="42.0522" lon="2.5075">
        <ele>963.6</ele>
        <time>2022-05-21 05:33:48</time>
      </trkpt>
      <trkpt lat="42.05233" lon="2.50746">
        <ele>962.6</ele>
        <time>2022-05-21 05:33:49</time>
      </trkpt>
      <trkpt lat="42.05246" lon="2.50744">
        <ele>961.6</ele>
        <time>2022-05-21 05:33:50</time>
      </trkpt>
      <trkpt lat="42.0526" lon="2.50744">
        <ele>960.6</ele>
        <time>2022-05-21 05:33:51</time>
      </trkpt>
      <trkpt lat="42.05272" lon="2.50743">
        <ele>959.8</ele>
        <time>2022-05-21 05:33:52</time>
      </trkpt>
      <trkpt lat="42.05284" lon="2.50741">
        <ele>958.8</ele>
        <time>2022-05-21 05:33:53</time>
      </trkpt>
      <trkpt lat="42.05296" lon="2.50739">
        <ele>957.8</ele>
        <time>2022-05-21 05:33:54</time>
      </trkpt>
      <trkpt lat="42.05307" lon="2.50733">
        <ele>956.8</ele>
        <time>2022-05-21 05:33:55</time>
      </trkpt>
      <trkpt lat="42.05318" lon="2.50724">
        <ele>955.8</ele>
        <time>2022-05-21 05:33:56</time>
      </trkpt>
      <trkpt lat="42.05328" lon="2.50716">
        <ele>954.8</ele>
        <time>2022-05-21 05:33:57</time>
      </trkpt>
      <trkpt lat="42.05339" lon="2.50708">
        <ele>953.8</ele>
        <time>2022-05-21 05:33:58</time>
      </trkpt>
      <trkpt lat="42.05352" lon="2.507">
        <ele>952.8</ele>
        <time>2022-05-21 05:33:59</time>
      </trkpt>
      <trkpt lat="42.05363" lon="2.50691">
        <ele>951.8</ele>
        <time>2022-05-21 05:34:00</time>
      </trkpt>
      <trkpt lat="42.05374" lon="2.5068">
        <ele>950.8</ele>
        <time>2022-05-21 05:34:01</time>
      </trkpt>
      <trkpt lat="42.05384" lon="2.5067">
        <ele>949.8</ele>
        <time>2022-05-21 05:34:02</time>
      </trkpt>
      <trkpt lat="42.05396" lon="2.5066">
        <ele>948.6</ele>
        <time>2022-05-21 05:34:03</time>
      </trkpt>
      <trkpt lat="42.05408" lon="2.50651">
        <ele>947.6</ele>
        <time>2022-05-21 05:34:04</time>
      </trkpt>
      <trkpt lat="42.05421" lon="2.50645">
        <ele>946.6</ele>
        <time>2022-05-21 05:34:05</time>
      </trkpt>
      <trkpt lat="42.05434" lon="2.5064">
        <ele>945.4</ele>
        <time>2022-05-21 05:34:06</time>
      </trkpt>
      <trkpt lat="42.05449" lon="2.50635">
        <ele>944.4</ele>
        <time>2022-05-21 05:34:07</time>
      </trkpt>
      <trkpt lat="42.05462" lon="2.50629">
        <ele>943.4</ele>
        <time>2022-05-21 05:34:08</time>
      </trkpt>
      <trkpt lat="42.05475" lon="2.50623">
        <ele>942.4</ele>
        <time>2022-05-21 05:34:09</time>
      </trkpt>
      <trkpt lat="42.05489" lon="2.50615">
        <ele>941.6</ele>
        <time>2022-05-21 05:34:10</time>
      </trkpt>
      <trkpt lat="42.05502" lon="2.50608">
        <ele>940.6</ele>
        <time>2022-05-21 05:34:11</time>
      </trkpt>
      <trkpt lat="42.05516" lon="2.50602">
        <ele>939.4</ele>
        <time>2022-05-21 05:34:12</time>
      </trkpt>
      <trkpt lat="42.0553" lon="2.50596">
        <ele>938.2</ele>
        <time>2022-05-21 05:34:13</time>
      </trkpt>
      <trkpt lat="42.05544" lon="2.50591">
        <ele>937.2</ele>
        <time>2022-05-21 05:34:14</time>
      </trkpt>
      <trkpt lat="42.05558" lon="2.50588">
        <ele>936.2</ele>
        <time>2022-05-21 05:34:15</time>
      </trkpt>
      <trkpt lat="42.05571" lon="2.50585">
        <ele>935.2</ele>
        <time>2022-05-21 05:34:16</time>
      </trkpt>
      <trkpt lat="42.05585" lon="2.50581">
        <ele>934.2</ele>
        <time>2022-05-21 05:34:17</time>
      </trkpt>
      <trkpt lat="42.05597" lon="2.50576">
        <ele>933.4</ele>
        <time>2022-05-21 05:34:18</time>
      </trkpt>
      <trkpt lat="42.0561" lon="2.5057">
        <ele>932.4</ele>
        <time>2022-05-21 05:34:19</time>
      </trkpt>
      <trkpt lat="42.05622" lon="2.50563">
        <ele>931.2</ele>
        <time>2022-05-21 05:34:20</time>
      </trkpt>
      <trkpt lat="42.05635" lon="2.50557">
        <ele>930.4</ele>
        <time>2022-05-21 05:34:21</time>
      </trkpt>
      <trkpt lat="42.05648" lon="2.50552">
        <ele>929.4</ele>
        <time>2022-05-21 05:34:22</time>
      </trkpt>
      <trkpt lat="42.05661" lon="2.50547">
        <ele>928.4</ele>
        <time>2022-05-21 05:34:23</time>
      </trkpt>
      <trkpt lat="42.05673" lon="2.50544">
        <ele>927.4</ele>
        <time>2022-05-21 05:34:24</time>
      </trkpt>
      <trkpt lat="42.05685" lon="2.5054">
        <ele>926.4</ele>
        <time>2022-05-21 05:34:25</time>
      </trkpt>
      <trkpt lat="42.05698" lon="2.50535">
        <ele>925.4</ele>
        <time>2022-05-21 05:34:26</time>
      </trkpt>
      <trkpt lat="42.05709" lon="2.5053">
        <ele>924.6</ele>
        <time>2022-05-21 05:34:27</time>
      </trkpt>
      <trkpt lat="42.0572" lon="2.50523">
        <ele>923.6</ele>
        <time>2022-05-21 05:34:28</time>
      </trkpt>
      <trkpt lat="42.05732" lon="2.50516">
        <ele>922.6</ele>
        <time>2022-05-21 05:34:29</time>
      </trkpt>
      <trkpt lat="42.05743" lon="2.5051">
        <ele>921.6</ele>
        <time>2022-05-21 05:34:30</time>
      </trkpt>
      <trkpt lat="42.05754" lon="2.50504">
        <ele>920.8</ele>
        <time>2022-05-21 05:34:31</time>
      </trkpt>
      <trkpt lat="42.05764" lon="2.50496">
        <ele>920.2</ele>
        <time>2022-05-21 05:34:32</time>
      </trkpt>
      <trkpt lat="42.05773" lon="2.50487">
        <ele>919.8</ele>
        <time>2022-05-21 05:34:33</time>
      </trkpt>
      <trkpt lat="42.05782" lon="2.50481">
        <ele>919.2</ele>
        <time>2022-05-21 05:34:34</time>
      </trkpt>
      <trkpt lat="42.0579" lon="2.50476">
        <ele>918.8</ele>
        <time>2022-05-21 05:34:35</time>
      </trkpt>
      <trkpt lat="42.05798" lon="2.50477">
        <ele>918.4</ele>
        <time>2022-05-21 05:34:36</time>
      </trkpt>
      <trkpt lat="42.05804" lon="2.50481">
        <ele>917.8</ele>
        <time>2022-05-21 05:34:37</time>
      </trkpt>
      <trkpt lat="42.05809" lon="2.50489">
        <ele>917.4</ele>
        <time>2022-05-21 05:34:38</time>
      </trkpt>
      <trkpt lat="42.05809" lon="2.505">
        <ele>916.8</ele>
        <time>2022-05-21 05:34:39</time>
      </trkpt>
      <trkpt lat="42.05804" lon="2.5051">
        <ele>916.2</ele>
        <time>2022-05-21 05:34:40</time>
      </trkpt>
      <trkpt lat="42.05797" lon="2.50517">
        <ele>915.6</ele>
        <time>2022-05-21 05:34:41</time>
      </trkpt>
      <trkpt lat="42.0579" lon="2.50522">
        <ele>915.2</ele>
        <time>2022-05-21 05:34:42</time>
      </trkpt>
      <trkpt lat="42.05783" lon="2.50525">
        <ele>914.8</ele>
        <time>2022-05-21 05:34:43</time>
      </trkpt>
      <trkpt lat="42.05775" lon="2.50528">
        <ele>914.2</ele>
        <time>2022-05-21 05:34:44</time>
      </trkpt>
      <trkpt lat="42.05767" lon="2.50531">
        <ele>913.8</ele>
        <time>2022-05-21 05:34:45</time>
      </trkpt>
      <trkpt lat="42.05758" lon="2.50535">
        <ele>913.4</ele>
        <time>2022-05-21 05:34:46</time>
      </trkpt>
      <trkpt lat="42.05748" lon="2.50539">
        <ele>912.8</ele>
        <time>2022-05-21 05:34:47</time>
      </trkpt>
      <trkpt lat="42.05739" lon="2.50545">
        <ele>912.4</ele>
        <time>2022-05-21 05:34:48</time>
      </trkpt>
      <trkpt lat="42.0573" lon="2.50552">
        <ele>911.8</ele>
        <time>2022-05-21 05:34:49</time>
      </trkpt>
      <trkpt lat="42.05722" lon="2.50561">
        <ele>911.4</ele>
        <time>2022-05-21 05:34:50</time>
      </trkpt>
      <trkpt lat="42.05714" lon="2.5057">
        <ele>910.8</ele>
        <time>2022-05-21 05:34:51</time>
      </trkpt>
      <trkpt lat="42.05706" lon="2.50578">
        <ele>910</ele>
        <time>2022-05-21 05:34:52</time>
      </trkpt>
      <trkpt lat="42.05698" lon="2.50585">
        <ele>909.4</ele>
        <time>2022-05-21 05:34:53</time>
      </trkpt>
      <trkpt lat="42.0569" lon="2.50593">
        <ele>908.8</ele>
        <time>2022-05-21 05:34:54</time>
      </trkpt>
      <trkpt lat="42.05682" lon="2.506">
        <ele>908.2</ele>
        <time>2022-05-21 05:34:55</time>
      </trkpt>
      <trkpt lat="42.05673" lon="2.50607">
        <ele>907.6</ele>
        <time>2022-05-21 05:34:56</time>
      </trkpt>
      <trkpt lat="42.05664" lon="2.50614">
        <ele>906.8</ele>
        <time>2022-05-21 05:34:57</time>
      </trkpt>
      <trkpt lat="42.05653" lon="2.50621">
        <ele>906</ele>
        <time>2022-05-21 05:34:58</time>
      </trkpt>
      <trkpt lat="42.05643" lon="2.50627">
        <ele>905.4</ele>
        <time>2022-05-21 05:34:59</time>
      </trkpt>
      <trkpt lat="42.05634" lon="2.50634">
        <ele>904.6</ele>
        <time>2022-05-21 05:35:00</time>
      </trkpt>
      <trkpt lat="42.05624" lon="2.50642">
        <ele>903.8</ele>
        <time>2022-05-21 05:35:01</time>
      </trkpt>
      <trkpt lat="42.05615" lon="2.5065">
        <ele>903</ele>
        <time>2022-05-21 05:35:02</time>
      </trkpt>
      <trkpt lat="42.05605" lon="2.5066">
        <ele>902</ele>
        <time>2022-05-21 05:35:03</time>
      </trkpt>
      <trkpt lat="42.05595" lon="2.50671">
        <ele>901.2</ele>
        <time>2022-05-21 05:35:04</time>
      </trkpt>
      <trkpt lat="42.05585" lon="2.50682">
        <ele>900.4</ele>
        <time>2022-05-21 05:35:05</time>
      </trkpt>
      <trkpt lat="42.05576" lon="2.50694">
        <ele>899.8</ele>
        <time>2022-05-21 05:35:06</time>
      </trkpt>
      <trkpt lat="42.05565" lon="2.50703">
        <ele>899.2</ele>
        <time>2022-05-21 05:35:07</time>
      </trkpt>
      <trkpt lat="42.05554" lon="2.5071">
        <ele>898.6</ele>
        <time>2022-05-21 05:35:08</time>
      </trkpt>
      <trkpt lat="42.05544" lon="2.50716">
        <ele>898.2</ele>
        <time>2022-05-21 05:35:09</time>
      </trkpt>
      <trkpt lat="42.05534" lon="2.50723">
        <ele>897.8</ele>
        <time>2022-05-21 05:35:10</time>
      </trkpt>
      <trkpt lat="42.05526" lon="2.50731">
        <ele>897.4</ele>
        <time>2022-05-21 05:35:11</time>
      </trkpt>
      <trkpt lat="42.05523" lon="2.5074">
        <ele>897</ele>
        <time>2022-05-21 05:35:12</time>
      </trkpt>
      <trkpt lat="42.05524" lon="2.50751">
        <ele>896.6</ele>
        <time>2022-05-21 05:35:13</time>
      </trkpt>
      <trkpt lat="42.0553" lon="2.5076">
        <ele>896.2</ele>
        <time>2022-05-21 05:35:14</time>
      </trkpt>
      <trkpt lat="42.05537" lon="2.50763">
        <ele>895.6</ele>
        <time>2022-05-21 05:35:15</time>
      </trkpt>
      <trkpt lat="42.05545" lon="2.50761">
        <ele>895.2</ele>
        <time>2022-05-21 05:35:16</time>
      </trkpt>
      <trkpt lat="42.05553" lon="2.50755">
        <ele>894.6</ele>
        <time>2022-05-21 05:35:17</time>
      </trkpt>
      <trkpt lat="42.0556" lon="2.50748">
        <ele>894.2</ele>
        <time>2022-05-21 05:35:18</time>
      </trkpt>
      <trkpt lat="42.05566" lon="2.5074">
        <ele>893.8</ele>
        <time>2022-05-21 05:35:19</time>
      </trkpt>
      <trkpt lat="42.05573" lon="2.50732">
        <ele>893.4</ele>
        <time>2022-05-21 05:35:20</time>
      </trkpt>
      <trkpt lat="42.05579" lon="2.50723">
        <ele>893</ele>
        <time>2022-05-21 05:35:21</time>
      </trkpt>
      <trkpt lat="42.05585" lon="2.50714">
        <ele>892.6</ele>
        <time>2022-05-21 05:35:22</time>
      </trkpt>
      <trkpt lat="42.05592" lon="2.50705">
        <ele>892.2</ele>
        <time>2022-05-21 05:35:23</time>
      </trkpt>
      <trkpt lat="42.05599" lon="2.50697">
        <ele>891.6</ele>
        <time>2022-05-21 05:35:24</time>
      </trkpt>
      <trkpt lat="42.05606" lon="2.5069">
        <ele>891.2</ele>
        <time>2022-05-21 05:35:25</time>
      </trkpt>
      <trkpt lat="42.05614" lon="2.50685">
        <ele>890.6</ele>
        <time>2022-05-21 05:35:26</time>
      </trkpt>
      <trkpt lat="42.05622" lon="2.5068">
        <ele>890.2</ele>
        <time>2022-05-21 05:35:27</time>
      </trkpt>
      <trkpt lat="42.0563" lon="2.50674">
        <ele>889.6</ele>
        <time>2022-05-21 05:35:28</time>
      </trkpt>
      <trkpt lat="42.0564" lon="2.50669">
        <ele>889.2</ele>
        <time>2022-05-21 05:35:29</time>
      </trkpt>
      <trkpt lat="42.05649" lon="2.50664">
        <ele>888.6</ele>
        <time>2022-05-21 05:35:30</time>
      </trkpt>
      <trkpt lat="42.05659" lon="2.5066">
        <ele>888.2</ele>
        <time>2022-05-21 05:35:31</time>
      </trkpt>
      <trkpt lat="42.05669" lon="2.50657">
        <ele>887.6</ele>
        <time>2022-05-21 05:35:32</time>
      </trkpt>
      <trkpt lat="42.0568" lon="2.50655">
        <ele>887</ele>
        <time>2022-05-21 05:35:33</time>
      </trkpt>
      <trkpt lat="42.0569" lon="2.50651">
        <ele>886.4</ele>
        <time>2022-05-21 05:35:34</time>
      </trkpt>
      <trkpt lat="42.057" lon="2.50648">
        <ele>885.8</ele>
        <time>2022-05-21 05:35:35</time>
      </trkpt>
      <trkpt lat="42.0571" lon="2.50643">
        <ele>885</ele>
        <time>2022-05-21 05:35:36</time>
      </trkpt>
      <trkpt lat="42.0572" lon="2.50638">
        <ele>884.4</ele>
        <time>2022-05-21 05:35:37</time>
      </trkpt>
      <trkpt lat="42.0573" lon="2.50632">
        <ele>883.6</ele>
        <time>2022-05-21 05:35:38</time>
      </trkpt>
      <trkpt lat="42.0574" lon="2.50627">
        <ele>882.8</ele>
        <time>2022-05-21 05:35:39</time>
      </trkpt>
      <trkpt lat="42.05751" lon="2.50624">
        <ele>882</ele>
        <time>2022-05-21 05:35:40</time>
      </trkpt>
      <trkpt lat="42.05763" lon="2.50623">
        <ele>881.2</ele>
        <time>2022-05-21 05:35:41</time>
      </trkpt>
      <trkpt lat="42.05775" lon="2.50623">
        <ele>880.6</ele>
        <time>2022-05-21 05:35:42</time>
      </trkpt>
      <trkpt lat="42.05787" lon="2.50622">
        <ele>879.8</ele>
        <time>2022-05-21 05:35:43</time>
      </trkpt>
      <trkpt lat="42.05798" lon="2.50619">
        <ele>879</ele>
        <time>2022-05-21 05:35:44</time>
      </trkpt>
      <trkpt lat="42.0581" lon="2.50614">
        <ele>878.2</ele>
        <time>2022-05-21 05:35:45</time>
      </trkpt>
      <trkpt lat="42.05821" lon="2.50606">
        <ele>877.6</ele>
        <time>2022-05-21 05:35:46</time>
      </trkpt>
      <trkpt lat="42.05831" lon="2.50598">
        <ele>876.8</ele>
        <time>2022-05-21 05:35:47</time>
      </trkpt>
      <trkpt lat="42.05841" lon="2.5059">
        <ele>876</ele>
        <time>2022-05-21 05:35:48</time>
      </trkpt>
      <trkpt lat="42.05852" lon="2.50582">
        <ele>875.2</ele>
        <time>2022-05-21 05:35:49</time>
      </trkpt>
      <trkpt lat="42.05863" lon="2.50574">
        <ele>874.4</ele>
        <time>2022-05-21 05:35:50</time>
      </trkpt>
      <trkpt lat="42.05874" lon="2.50568">
        <ele>873.8</ele>
        <time>2022-05-21 05:35:51</time>
      </trkpt>
      <trkpt lat="42.05886" lon="2.50562">
        <ele>873.2</ele>
        <time>2022-05-21 05:35:52</time>
      </trkpt>
      <trkpt lat="42.05898" lon="2.50557">
        <ele>872.6</ele>
        <time>2022-05-21 05:35:53</time>
      </trkpt>
      <trkpt lat="42.05909" lon="2.50553">
        <ele>871.8</ele>
        <time>2022-05-21 05:35:54</time>
      </trkpt>
      <trkpt lat="42.0592" lon="2.50549">
        <ele>871.2</ele>
        <time>2022-05-21 05:35:55</time>
      </trkpt>
      <trkpt lat="42.05933" lon="2.50546">
        <ele>870.8</ele>
        <time>2022-05-21 05:35:56</time>
      </trkpt>
      <trkpt lat="42.05945" lon="2.50544">
        <ele>870.2</ele>
        <time>2022-05-21 05:35:57</time>
      </trkpt>
      <trkpt lat="42.05957" lon="2.50542">
        <ele>869.6</ele>
        <time>2022-05-21 05:35:58</time>
      </trkpt>
      <trkpt lat="42.05969" lon="2.50539">
        <ele>869.2</ele>
        <time>2022-05-21 05:35:59</time>
      </trkpt>
      <trkpt lat="42.0598" lon="2.50534">
        <ele>868.8</ele>
        <time>2022-05-21 05:36:00</time>
      </trkpt>
      <trkpt lat="42.05991" lon="2.50527">
        <ele>868.4</ele>
        <time>2022-05-21 05:36:01</time>
      </trkpt>
      <trkpt lat="42.06001" lon="2.50519">
        <ele>867.8</ele>
        <time>2022-05-21 05:36:02</time>
      </trkpt>
      <trkpt lat="42.06011" lon="2.5051">
        <ele>867.2</ele>
        <time>2022-05-21 05:36:03</time>
      </trkpt>
      <trkpt lat="42.06021" lon="2.50502">
        <ele>866.6</ele>
        <time>2022-05-21 05:36:04</time>
      </trkpt>
      <trkpt lat="42.06031" lon="2.50494">
        <ele>865.8</ele>
        <time>2022-05-21 05:36:05</time>
      </trkpt>
      <trkpt lat="42.06042" lon="2.50486">
        <ele>865.2</ele>
        <time>2022-05-21 05:36:06</time>
      </trkpt>
      <trkpt lat="42.06051" lon="2.50478">
        <ele>864.6</ele>
        <time>2022-05-21 05:36:07</time>
      </trkpt>
      <trkpt lat="42.0606" lon="2.5047">
        <ele>864.2</ele>
        <time>2022-05-21 05:36:08</time>
      </trkpt>
      <trkpt lat="42.06068" lon="2.50461">
        <ele>863.8</ele>
        <time>2022-05-21 05:36:09</time>
      </trkpt>
      <trkpt lat="42.06073" lon="2.5045">
        <ele>863.4</ele>
        <time>2022-05-21 05:36:10</time>
      </trkpt>
      <trkpt lat="42.06075" lon="2.50438">
        <ele>862.8</ele>
        <time>2022-05-21 05:36:11</time>
      </trkpt>
      <trkpt lat="42.06077" lon="2.50425">
        <ele>862.4</ele>
        <time>2022-05-21 05:36:12</time>
      </trkpt>
      <trkpt lat="42.06078" lon="2.50412">
        <ele>862</ele>
        <time>2022-05-21 05:36:13</time>
      </trkpt>
      <trkpt lat="42.06078" lon="2.50398">
        <ele>861.4</ele>
        <time>2022-05-21 05:36:14</time>
      </trkpt>
      <trkpt lat="42.06079" lon="2.50384">
        <ele>861</ele>
        <time>2022-05-21 05:36:15</time>
      </trkpt>
      <trkpt lat="42.06081" lon="2.50372">
        <ele>860.8</ele>
        <time>2022-05-21 05:36:16</time>
      </trkpt>
      <trkpt lat="42.06084" lon="2.50361">
        <ele>860.4</ele>
        <time>2022-05-21 05:36:17</time>
      </trkpt>
      <trkpt lat="42.06091" lon="2.50353">
        <ele>860</ele>
        <time>2022-05-21 05:36:18</time>
      </trkpt>
      <trkpt lat="42.06099" lon="2.50348">
        <ele>859.4</ele>
        <time>2022-05-21 05:36:19</time>
      </trkpt>
      <trkpt lat="42.06108" lon="2.50349">
        <ele>859</ele>
        <time>2022-05-21 05:36:20</time>
      </trkpt>
      <trkpt lat="42.06118" lon="2.50354">
        <ele>858.6</ele>
        <time>2022-05-21 05:36:21</time>
      </trkpt>
      <trkpt lat="42.06126" lon="2.50362">
        <ele>858</ele>
        <time>2022-05-21 05:36:22</time>
      </trkpt>
      <trkpt lat="42.06134" lon="2.5037">
        <ele>857.6</ele>
        <time>2022-05-21 05:36:23</time>
      </trkpt>
      <trkpt lat="42.06143" lon="2.50378">
        <ele>857</ele>
        <time>2022-05-21 05:36:24</time>
      </trkpt>
      <trkpt lat="42.06152" lon="2.50386">
        <ele>856.4</ele>
        <time>2022-05-21 05:36:25</time>
      </trkpt>
      <trkpt lat="42.0616" lon="2.50394">
        <ele>855.8</ele>
        <time>2022-05-21 05:36:26</time>
      </trkpt>
      <trkpt lat="42.0617" lon="2.504">
        <ele>855.2</ele>
        <time>2022-05-21 05:36:27</time>
      </trkpt>
      <trkpt lat="42.06179" lon="2.50402">
        <ele>854.8</ele>
        <time>2022-05-21 05:36:28</time>
      </trkpt>
      <trkpt lat="42.0619" lon="2.50402">
        <ele>854.2</ele>
        <time>2022-05-21 05:36:29</time>
      </trkpt>
      <trkpt lat="42.062" lon="2.504">
        <ele>853.6</ele>
        <time>2022-05-21 05:36:30</time>
      </trkpt>
      <trkpt lat="42.0621" lon="2.50396">
        <ele>853.2</ele>
        <time>2022-05-21 05:36:31</time>
      </trkpt>
      <trkpt lat="42.0622" lon="2.5039">
        <ele>852.6</ele>
        <time>2022-05-21 05:36:32</time>
      </trkpt>
      <trkpt lat="42.06231" lon="2.50382">
        <ele>852</ele>
        <time>2022-05-21 05:36:33</time>
      </trkpt>
      <trkpt lat="42.0624" lon="2.50374">
        <ele>851.6</ele>
        <time>2022-05-21 05:36:34</time>
      </trkpt>
      <trkpt lat="42.06249" lon="2.50364">
        <ele>851.2</ele>
        <time>2022-05-21 05:36:35</time>
      </trkpt>
      <trkpt lat="42.06257" lon="2.50355">
        <ele>850.8</ele>
        <time>2022-05-21 05:36:36</time>
      </trkpt>
      <trkpt lat="42.06264" lon="2.50345">
        <ele>850.4</ele>
        <time>2022-05-21 05:36:37</time>
      </trkpt>
      <trkpt lat="42.06272" lon="2.50335">
        <ele>849.8</ele>
        <time>2022-05-21 05:36:38</time>
      </trkpt>
      <trkpt lat="42.06279" lon="2.50324">
        <ele>849.4</ele>
        <time>2022-05-21 05:36:39</time>
      </trkpt>
      <trkpt lat="42.06286" lon="2.50312">
        <ele>849</ele>
        <time>2022-05-21 05:36:40</time>
      </trkpt>
      <trkpt lat="42.06292" lon="2.503">
        <ele>848.6</ele>
        <time>2022-05-21 05:36:41</time>
      </trkpt>
      <trkpt lat="42.06297" lon="2.5029">
        <ele>848.4</ele>
        <time>2022-05-21 05:36:42</time>
      </trkpt>
      <trkpt lat="42.06301" lon="2.50279">
        <ele>848</ele>
        <time>2022-05-21 05:36:43</time>
      </trkpt>
      <trkpt lat="42.06304" lon="2.50269">
        <ele>847.6</ele>
        <time>2022-05-21 05:36:44</time>
      </trkpt>
      <trkpt lat="42.06306" lon="2.50257">
        <ele>847.2</ele>
        <time>2022-05-21 05:36:45</time>
      </trkpt>
      <trkpt lat="42.06307" lon="2.50245">
        <ele>846.8</ele>
        <time>2022-05-21 05:36:46</time>
      </trkpt>
      <trkpt lat="42.06305" lon="2.50232">
        <ele>846</ele>
        <time>2022-05-21 05:36:47</time>
      </trkpt>
      <trkpt lat="42.06301" lon="2.50219">
        <ele>845.2</ele>
        <time>2022-05-21 05:36:48</time>
      </trkpt>
      <trkpt lat="42.06299" lon="2.50206">
        <ele>844.6</ele>
        <time>2022-05-21 05:36:49</time>
      </trkpt>
      <trkpt lat="42.06297" lon="2.50193">
        <ele>844</ele>
        <time>2022-05-21 05:36:50</time>
      </trkpt>
      <trkpt lat="42.06297" lon="2.50178">
        <ele>843.4</ele>
        <time>2022-05-21 05:36:51</time>
      </trkpt>
      <trkpt lat="42.06299" lon="2.50167">
        <ele>842.8</ele>
        <time>2022-05-21 05:36:52</time>
      </trkpt>
      <trkpt lat="42.06304" lon="2.5016">
        <ele>842.2</ele>
        <time>2022-05-21 05:36:53</time>
      </trkpt>
      <trkpt lat="42.06311" lon="2.50153">
        <ele>841.6</ele>
        <time>2022-05-21 05:36:54</time>
      </trkpt>
      <trkpt lat="42.0632" lon="2.50148">
        <ele>841</ele>
        <time>2022-05-21 05:36:55</time>
      </trkpt>
      <trkpt lat="42.06329" lon="2.50143">
        <ele>840.4</ele>
        <time>2022-05-21 05:36:56</time>
      </trkpt>
      <trkpt lat="42.06338" lon="2.50136">
        <ele>840</ele>
        <time>2022-05-21 05:36:57</time>
      </trkpt>
      <trkpt lat="42.06347" lon="2.50128">
        <ele>839.4</ele>
        <time>2022-05-21 05:36:58</time>
      </trkpt>
      <trkpt lat="42.06354" lon="2.50118">
        <ele>838.6</ele>
        <time>2022-05-21 05:36:59</time>
      </trkpt>
      <trkpt lat="42.06361" lon="2.50107">
        <ele>838.2</ele>
        <time>2022-05-21 05:37:00</time>
      </trkpt>
      <trkpt lat="42.06367" lon="2.50095">
        <ele>837.6</ele>
        <time>2022-05-21 05:37:01</time>
      </trkpt>
      <trkpt lat="42.06373" lon="2.50084">
        <ele>837.2</ele>
        <time>2022-05-21 05:37:02</time>
      </trkpt>
      <trkpt lat="42.06379" lon="2.50073">
        <ele>836.6</ele>
        <time>2022-05-21 05:37:03</time>
      </trkpt>
      <trkpt lat="42.06384" lon="2.50061">
        <ele>836.2</ele>
        <time>2022-05-21 05:37:04</time>
      </trkpt>
      <trkpt lat="42.06388" lon="2.50049">
        <ele>835.8</ele>
        <time>2022-05-21 05:37:05</time>
      </trkpt>
      <trkpt lat="42.06393" lon="2.50037">
        <ele>835.4</ele>
        <time>2022-05-21 05:37:06</time>
      </trkpt>
      <trkpt lat="42.06398" lon="2.50025">
        <ele>834.8</ele>
        <time>2022-05-21 05:37:07</time>
      </trkpt>
      <trkpt lat="42.06404" lon="2.50015">
        <ele>834.2</ele>
        <time>2022-05-21 05:37:08</time>
      </trkpt>
      <trkpt lat="42.06412" lon="2.50006">
        <ele>833.6</ele>
        <time>2022-05-21 05:37:09</time>
      </trkpt>
      <trkpt lat="42.06421" lon="2.49998">
        <ele>833</ele>
        <time>2022-05-21 05:37:10</time>
      </trkpt>
      <trkpt lat="42.0643" lon="2.49991">
        <ele>832.4</ele>
        <time>2022-05-21 05:37:11</time>
      </trkpt>
      <trkpt lat="42.06439" lon="2.49984">
        <ele>831.8</ele>
        <time>2022-05-21 05:37:12</time>
      </trkpt>
      <trkpt lat="42.06449" lon="2.49976">
        <ele>831.4</ele>
        <time>2022-05-21 05:37:13</time>
      </trkpt>
      <trkpt lat="42.0646" lon="2.4997">
        <ele>830.8</ele>
        <time>2022-05-21 05:37:14</time>
      </trkpt>
      <trkpt lat="42.06471" lon="2.49964">
        <ele>830.2</ele>
        <time>2022-05-21 05:37:15</time>
      </trkpt>
      <trkpt lat="42.06482" lon="2.4996">
        <ele>829.6</ele>
        <time>2022-05-21 05:37:16</time>
      </trkpt>
      <trkpt lat="42.06493" lon="2.49957">
        <ele>829</ele>
        <time>2022-05-21 05:37:17</time>
      </trkpt>
      <trkpt lat="42.06504" lon="2.49952">
        <ele>828.4</ele>
        <time>2022-05-21 05:37:18</time>
      </trkpt>
      <trkpt lat="42.06515" lon="2.49946">
        <ele>827.8</ele>
        <time>2022-05-21 05:37:19</time>
      </trkpt>
      <trkpt lat="42.06526" lon="2.49939">
        <ele>827</ele>
        <time>2022-05-21 05:37:20</time>
      </trkpt>
      <trkpt lat="42.06536" lon="2.49931">
        <ele>826.2</ele>
        <time>2022-05-21 05:37:21</time>
      </trkpt>
      <trkpt lat="42.06545" lon="2.49921">
        <ele>825.4</ele>
        <time>2022-05-21 05:37:22</time>
      </trkpt>
      <trkpt lat="42.06553" lon="2.4991">
        <ele>824.6</ele>
        <time>2022-05-21 05:37:23</time>
      </trkpt>
      <trkpt lat="42.06559" lon="2.49899">
        <ele>824</ele>
        <time>2022-05-21 05:37:24</time>
      </trkpt>
      <trkpt lat="42.06566" lon="2.49886">
        <ele>823.2</ele>
        <time>2022-05-21 05:37:25</time>
      </trkpt>
      <trkpt lat="42.06572" lon="2.49872">
        <ele>822.6</ele>
        <time>2022-05-21 05:37:26</time>
      </trkpt>
      <trkpt lat="42.06577" lon="2.49858">
        <ele>821.8</ele>
        <time>2022-05-21 05:37:27</time>
      </trkpt>
      <trkpt lat="42.06583" lon="2.49843">
        <ele>821.2</ele>
        <time>2022-05-21 05:37:28</time>
      </trkpt>
      <trkpt lat="42.06588" lon="2.49828">
        <ele>820.6</ele>
        <time>2022-05-21 05:37:29</time>
      </trkpt>
      <trkpt lat="42.06594" lon="2.49812">
        <ele>820.2</ele>
        <time>2022-05-21 05:37:30</time>
      </trkpt>
      <trkpt lat="42.06599" lon="2.49797">
        <ele>819.6</ele>
        <time>2022-05-21 05:37:31</time>
      </trkpt>
      <trkpt lat="42.06604" lon="2.49782">
        <ele>819</ele>
        <time>2022-05-21 05:37:32</time>
      </trkpt>
      <trkpt lat="42.06607" lon="2.49765">
        <ele>818.2</ele>
        <time>2022-05-21 05:37:33</time>
      </trkpt>
      <trkpt lat="42.0661" lon="2.49748">
        <ele>817.6</ele>
        <time>2022-05-21 05:37:34</time>
      </trkpt>
      <trkpt lat="42.06612" lon="2.49731">
        <ele>817.2</ele>
        <time>2022-05-21 05:37:35</time>
      </trkpt>
      <trkpt lat="42.06614" lon="2.49715">
        <ele>816.6</ele>
        <time>2022-05-21 05:37:36</time>
      </trkpt>
      <trkpt lat="42.06616" lon="2.49699">
        <ele>816</ele>
        <time>2022-05-21 05:37:37</time>
      </trkpt>
      <trkpt lat="42.06619" lon="2.49684">
        <ele>815.6</ele>
        <time>2022-05-21 05:37:38</time>
      </trkpt>
      <trkpt lat="42.06622" lon="2.4967">
        <ele>815.2</ele>
        <time>2022-05-21 05:37:39</time>
      </trkpt>
      <trkpt lat="42.06626" lon="2.49658">
        <ele>814.8</ele>
        <time>2022-05-21 05:37:40</time>
      </trkpt>
      <trkpt lat="42.06632" lon="2.49647">
        <ele>814.4</ele>
        <time>2022-05-21 05:37:41</time>
      </trkpt>
      <trkpt lat="42.06639" lon="2.49638">
        <ele>813.8</ele>
        <time>2022-05-21 05:37:42</time>
      </trkpt>
      <trkpt lat="42.06647" lon="2.49631">
        <ele>813.4</ele>
        <time>2022-05-21 05:37:43</time>
      </trkpt>
      <trkpt lat="42.06655" lon="2.49623">
        <ele>812.6</ele>
        <time>2022-05-21 05:37:44</time>
      </trkpt>
      <trkpt lat="42.06663" lon="2.49615">
        <ele>812</ele>
        <time>2022-05-21 05:37:45</time>
      </trkpt>
      <trkpt lat="42.06671" lon="2.49605">
        <ele>811.4</ele>
        <time>2022-05-21 05:37:46</time>
      </trkpt>
      <trkpt lat="42.06679" lon="2.49594">
        <ele>810.6</ele>
        <time>2022-05-21 05:37:47</time>
      </trkpt>
      <trkpt lat="42.06686" lon="2.49583">
        <ele>810</ele>
        <time>2022-05-21 05:37:48</time>
      </trkpt>
      <trkpt lat="42.06693" lon="2.49572">
        <ele>809.4</ele>
        <time>2022-05-21 05:37:49</time>
      </trkpt>
      <trkpt lat="42.067" lon="2.49561">
        <ele>808.8</ele>
        <time>2022-05-21 05:37:50</time>
      </trkpt>
      <trkpt lat="42.06709" lon="2.49549">
        <ele>808</ele>
        <time>2022-05-21 05:37:51</time>
      </trkpt>
      <trkpt lat="42.06718" lon="2.49539">
        <ele>807.4</ele>
        <time>2022-05-21 05:37:52</time>
      </trkpt>
      <trkpt lat="42.06728" lon="2.4953">
        <ele>806.6</ele>
        <time>2022-05-21 05:37:53</time>
      </trkpt>
      <trkpt lat="42.06737" lon="2.49522">
        <ele>806</ele>
        <time>2022-05-21 05:37:54</time>
      </trkpt>
      <trkpt lat="42.06746" lon="2.49514">
        <ele>805.2</ele>
        <time>2022-05-21 05:37:55</time>
      </trkpt>
      <trkpt lat="42.06755" lon="2.49506">
        <ele>804.6</ele>
        <time>2022-05-21 05:37:56</time>
      </trkpt>
      <trkpt lat="42.06763" lon="2.49498">
        <ele>804.2</ele>
        <time>2022-05-21 05:37:57</time>
      </trkpt>
      <trkpt lat="42.06769" lon="2.4949">
        <ele>803.8</ele>
        <time>2022-05-21 05:37:58</time>
      </trkpt>
      <trkpt lat="42.06775" lon="2.49484">
        <ele>803.2</ele>
        <time>2022-05-21 05:37:59</time>
      </trkpt>
      <trkpt lat="42.06783" lon="2.49479">
        <ele>802.6</ele>
        <time>2022-05-21 05:38:00</time>
      </trkpt>
      <trkpt lat="42.06792" lon="2.49478">
        <ele>802.2</ele>
        <time>2022-05-21 05:38:01</time>
      </trkpt>
      <trkpt lat="42.06802" lon="2.49479">
        <ele>801.8</ele>
        <time>2022-05-21 05:38:02</time>
      </trkpt>
      <trkpt lat="42.06812" lon="2.49481">
        <ele>801.4</ele>
        <time>2022-05-21 05:38:03</time>
      </trkpt>
      <trkpt lat="42.06821" lon="2.49482">
        <ele>801</ele>
        <time>2022-05-21 05:38:04</time>
      </trkpt>
      <trkpt lat="42.06831" lon="2.49483">
        <ele>800.6</ele>
        <time>2022-05-21 05:38:05</time>
      </trkpt>
      <trkpt lat="42.0684" lon="2.49483">
        <ele>800.2</ele>
        <time>2022-05-21 05:38:06</time>
      </trkpt>
      <trkpt lat="42.06849" lon="2.49479">
        <ele>799.8</ele>
        <time>2022-05-21 05:38:07</time>
      </trkpt>
      <trkpt lat="42.06858" lon="2.49475">
        <ele>799.4</ele>
        <time>2022-05-21 05:38:08</time>
      </trkpt>
      <trkpt lat="42.06866" lon="2.49468">
        <ele>799</ele>
        <time>2022-05-21 05:38:09</time>
      </trkpt>
      <trkpt lat="42.06874" lon="2.49461">
        <ele>798.6</ele>
        <time>2022-05-21 05:38:10</time>
      </trkpt>
      <trkpt lat="42.06882" lon="2.49455">
        <ele>798.2</ele>
        <time>2022-05-21 05:38:11</time>
      </trkpt>
      <trkpt lat="42.0689" lon="2.49447">
        <ele>797.8</ele>
        <time>2022-05-21 05:38:12</time>
      </trkpt>
      <trkpt lat="42.06899" lon="2.4944">
        <ele>797.4</ele>
        <time>2022-05-21 05:38:13</time>
      </trkpt>
      <trkpt lat="42.06907" lon="2.49432">
        <ele>797</ele>
        <time>2022-05-21 05:38:14</time>
      </trkpt>
      <trkpt lat="42.06915" lon="2.49424">
        <ele>796.6</ele>
        <time>2022-05-21 05:38:15</time>
      </trkpt>
      <trkpt lat="42.06924" lon="2.49416">
        <ele>796.2</ele>
        <time>2022-05-21 05:38:16</time>
      </trkpt>
      <trkpt lat="42.06933" lon="2.49411">
        <ele>795.8</ele>
        <time>2022-05-21 05:38:17</time>
      </trkpt>
      <trkpt lat="42.06942" lon="2.49405">
        <ele>795.4</ele>
        <time>2022-05-21 05:38:18</time>
      </trkpt>
      <trkpt lat="42.06951" lon="2.494">
        <ele>794.8</ele>
        <time>2022-05-21 05:38:19</time>
      </trkpt>
      <trkpt lat="42.06961" lon="2.49394">
        <ele>794.4</ele>
        <time>2022-05-21 05:38:20</time>
      </trkpt>
      <trkpt lat="42.06971" lon="2.4939">
        <ele>793.8</ele>
        <time>2022-05-21 05:38:21</time>
      </trkpt>
      <trkpt lat="42.06982" lon="2.49387">
        <ele>793.2</ele>
        <time>2022-05-21 05:38:22</time>
      </trkpt>
      <trkpt lat="42.06993" lon="2.49386">
        <ele>792.6</ele>
        <time>2022-05-21 05:38:23</time>
      </trkpt>
      <trkpt lat="42.07004" lon="2.49389">
        <ele>792</ele>
        <time>2022-05-21 05:38:24</time>
      </trkpt>
      <trkpt lat="42.07015" lon="2.49392">
        <ele>791.4</ele>
        <time>2022-05-21 05:38:25</time>
      </trkpt>
      <trkpt lat="42.07027" lon="2.49394">
        <ele>790.8</ele>
        <time>2022-05-21 05:38:26</time>
      </trkpt>
      <trkpt lat="42.07038" lon="2.49395">
        <ele>790.2</ele>
        <time>2022-05-21 05:38:27</time>
      </trkpt>
      <trkpt lat="42.07049" lon="2.49394">
        <ele>789.6</ele>
        <time>2022-05-21 05:38:28</time>
      </trkpt>
      <trkpt lat="42.0706" lon="2.49392">
        <ele>789</ele>
        <time>2022-05-21 05:38:29</time>
      </trkpt>
      <trkpt lat="42.07071" lon="2.4939">
        <ele>788.4</ele>
        <time>2022-05-21 05:38:30</time>
      </trkpt>
      <trkpt lat="42.07082" lon="2.49387">
        <ele>787.8</ele>
        <time>2022-05-21 05:38:31</time>
      </trkpt>
      <trkpt lat="42.07092" lon="2.49383">
        <ele>787.2</ele>
        <time>2022-05-21 05:38:32</time>
      </trkpt>
      <trkpt lat="42.07103" lon="2.4938">
        <ele>786.6</ele>
        <time>2022-05-21 05:38:33</time>
      </trkpt>
      <trkpt lat="42.07113" lon="2.49376">
        <ele>786</ele>
        <time>2022-05-21 05:38:34</time>
      </trkpt>
      <trkpt lat="42.07124" lon="2.49368">
        <ele>785.4</ele>
        <time>2022-05-21 05:38:35</time>
      </trkpt>
      <trkpt lat="42.07133" lon="2.49358">
        <ele>784.8</ele>
        <time>2022-05-21 05:38:36</time>
      </trkpt>
      <trkpt lat="42.07143" lon="2.49348">
        <ele>784.4</ele>
        <time>2022-05-21 05:38:37</time>
      </trkpt>
      <trkpt lat="42.07151" lon="2.49339">
        <ele>783.8</ele>
        <time>2022-05-21 05:38:38</time>
      </trkpt>
      <trkpt lat="42.07159" lon="2.49329">
        <ele>783.2</ele>
        <time>2022-05-21 05:38:39</time>
      </trkpt>
      <trkpt lat="42.07166" lon="2.49317">
        <ele>782.6</ele>
        <time>2022-05-21 05:38:40</time>
      </trkpt>
      <trkpt lat="42.07171" lon="2.49305">
        <ele>782</ele>
        <time>2022-05-21 05:38:41</time>
      </trkpt>
      <trkpt lat="42.07175" lon="2.49293">
        <ele>781.4</ele>
        <time>2022-05-21 05:38:42</time>
      </trkpt>
      <trkpt lat="42.07178" lon="2.49279">
        <ele>781</ele>
        <time>2022-05-21 05:38:43</time>
      </trkpt>
      <trkpt lat="42.07181" lon="2.49263">
        <ele>780.6</ele>
        <time>2022-05-21 05:38:44</time>
      </trkpt>
      <trkpt lat="42.07184" lon="2.49247">
        <ele>780.2</ele>
        <time>2022-05-21 05:38:45</time>
      </trkpt>
      <trkpt lat="42.07186" lon="2.4923">
        <ele>779.6</ele>
        <time>2022-05-21 05:38:46</time>
      </trkpt>
      <trkpt lat="42.0719" lon="2.49216">
        <ele>779.2</ele>
        <time>2022-05-21 05:38:47</time>
      </trkpt>
      <trkpt lat="42.07194" lon="2.49202">
        <ele>778.8</ele>
        <time>2022-05-21 05:38:48</time>
      </trkpt>
      <trkpt lat="42.07198" lon="2.49188">
        <ele>778.4</ele>
        <time>2022-05-21 05:38:49</time>
      </trkpt>
      <trkpt lat="42.07202" lon="2.49174">
        <ele>777.8</ele>
        <time>2022-05-21 05:38:50</time>
      </trkpt>
      <trkpt lat="42.07206" lon="2.49159">
        <ele>777.4</ele>
        <time>2022-05-21 05:38:51</time>
      </trkpt>
      <trkpt lat="42.0721" lon="2.49146">
        <ele>776.8</ele>
        <time>2022-05-21 05:38:52</time>
      </trkpt>
      <trkpt lat="42.07214" lon="2.49135">
        <ele>776.4</ele>
        <time>2022-05-21 05:38:53</time>
      </trkpt>
      <trkpt lat="42.0722" lon="2.49124">
        <ele>776</ele>
        <time>2022-05-21 05:38:54</time>
      </trkpt>
      <trkpt lat="42.07226" lon="2.49114">
        <ele>775.4</ele>
        <time>2022-05-21 05:38:55</time>
      </trkpt>
      <trkpt lat="42.07231" lon="2.49103">
        <ele>775</ele>
        <time>2022-05-21 05:38:56</time>
      </trkpt>
      <trkpt lat="42.07237" lon="2.49093">
        <ele>774.6</ele>
        <time>2022-05-21 05:38:57</time>
      </trkpt>
      <trkpt lat="42.07243" lon="2.49082">
        <ele>774</ele>
        <time>2022-05-21 05:38:58</time>
      </trkpt>
      <trkpt lat="42.07248" lon="2.4907">
        <ele>773.6</ele>
        <time>2022-05-21 05:38:59</time>
      </trkpt>
      <trkpt lat="42.07255" lon="2.4906">
        <ele>773</ele>
        <time>2022-05-21 05:39:00</time>
      </trkpt>
      <trkpt lat="42.07262" lon="2.4905">
        <ele>772.6</ele>
        <time>2022-05-21 05:39:01</time>
      </trkpt>
      <trkpt lat="42.0727" lon="2.49041">
        <ele>772</ele>
        <time>2022-05-21 05:39:02</time>
      </trkpt>
      <trkpt lat="42.07278" lon="2.49031">
        <ele>771.6</ele>
        <time>2022-05-21 05:39:03</time>
      </trkpt>
      <trkpt lat="42.07286" lon="2.49022">
        <ele>771</ele>
        <time>2022-05-21 05:39:04</time>
      </trkpt>
      <trkpt lat="42.07294" lon="2.49012">
        <ele>770.4</ele>
        <time>2022-05-21 05:39:05</time>
      </trkpt>
      <trkpt lat="42.07302" lon="2.49002">
        <ele>769.8</ele>
        <time>2022-05-21 05:39:06</time>
      </trkpt>
      <trkpt lat="42.0731" lon="2.48991">
        <ele>769.2</ele>
        <time>2022-05-21 05:39:07</time>
      </trkpt>
      <trkpt lat="42.07317" lon="2.48981">
        <ele>768.6</ele>
        <time>2022-05-21 05:39:08</time>
      </trkpt>
      <trkpt lat="42.07325" lon="2.4897">
        <ele>768</ele>
        <time>2022-05-21 05:39:09</time>
      </trkpt>
      <trkpt lat="42.07332" lon="2.4896">
        <ele>767.6</ele>
        <time>2022-05-21 05:39:10</time>
      </trkpt>
      <trkpt lat="42.0734" lon="2.4895">
        <ele>767</ele>
        <time>2022-05-21 05:39:11</time>
      </trkpt>
      <trkpt lat="42.07348" lon="2.4894">
        <ele>766.4</ele>
        <time>2022-05-21 05:39:12</time>
      </trkpt>
      <trkpt lat="42.07356" lon="2.4893">
        <ele>766</ele>
        <time>2022-05-21 05:39:13</time>
      </trkpt>
      <trkpt lat="42.07364" lon="2.48919">
        <ele>765.4</ele>
        <time>2022-05-21 05:39:14</time>
      </trkpt>
      <trkpt lat="42.07371" lon="2.48908">
        <ele>764.8</ele>
        <time>2022-05-21 05:39:15</time>
      </trkpt>
      <trkpt lat="42.07378" lon="2.48897">
        <ele>764.2</ele>
        <time>2022-05-21 05:39:16</time>
      </trkpt>
      <trkpt lat="42.07386" lon="2.48885">
        <ele>763.6</ele>
        <time>2022-05-21 05:39:17</time>
      </trkpt>
      <trkpt lat="42.07393" lon="2.48874">
        <ele>763</ele>
        <time>2022-05-21 05:39:18</time>
      </trkpt>
      <trkpt lat="42.07399" lon="2.48862">
        <ele>762.2</ele>
        <time>2022-05-21 05:39:19</time>
      </trkpt>
      <trkpt lat="42.07403" lon="2.48851">
        <ele>761.4</ele>
        <time>2022-05-21 05:39:20</time>
      </trkpt>
      <trkpt lat="42.07404" lon="2.48839">
        <ele>761</ele>
        <time>2022-05-21 05:39:21</time>
      </trkpt>
      <trkpt lat="42.07404" lon="2.48827">
        <ele>760.2</ele>
        <time>2022-05-21 05:39:22</time>
      </trkpt>
      <trkpt lat="42.07403" lon="2.48816">
        <ele>759.8</ele>
        <time>2022-05-21 05:39:23</time>
      </trkpt>
      <trkpt lat="42.07401" lon="2.48804">
        <ele>759.2</ele>
        <time>2022-05-21 05:39:24</time>
      </trkpt>
      <trkpt lat="42.07397" lon="2.48793">
        <ele>758.8</ele>
        <time>2022-05-21 05:39:25</time>
      </trkpt>
      <trkpt lat="42.07393" lon="2.48781">
        <ele>758.2</ele>
        <time>2022-05-21 05:39:26</time>
      </trkpt>
      <trkpt lat="42.07389" lon="2.4877">
        <ele>757.4</ele>
        <time>2022-05-21 05:39:27</time>
      </trkpt>
      <trkpt lat="42.07384" lon="2.4876">
        <ele>756.8</ele>
        <time>2022-05-21 05:39:28</time>
      </trkpt>
      <trkpt lat="42.07379" lon="2.48749">
        <ele>756.2</ele>
        <time>2022-05-21 05:39:29</time>
      </trkpt>
      <trkpt lat="42.07373" lon="2.4874">
        <ele>755.8</ele>
        <time>2022-05-21 05:39:30</time>
      </trkpt>
      <trkpt lat="42.07366" lon="2.48732">
        <ele>755.4</ele>
        <time>2022-05-21 05:39:31</time>
      </trkpt>
      <trkpt lat="42.07359" lon="2.48724">
        <ele>755</ele>
        <time>2022-05-21 05:39:32</time>
      </trkpt>
      <trkpt lat="42.07352" lon="2.48716">
        <ele>754.4</ele>
        <time>2022-05-21 05:39:33</time>
      </trkpt>
      <trkpt lat="42.07345" lon="2.48708">
        <ele>754</ele>
        <time>2022-05-21 05:39:34</time>
      </trkpt>
      <trkpt lat="42.07338" lon="2.487">
        <ele>753.6</ele>
        <time>2022-05-21 05:39:35</time>
      </trkpt>
      <trkpt lat="42.07331" lon="2.48692">
        <ele>753</ele>
        <time>2022-05-21 05:39:36</time>
      </trkpt>
      <trkpt lat="42.07324" lon="2.48684">
        <ele>752.4</ele>
        <time>2022-05-21 05:39:37</time>
      </trkpt>
      <trkpt lat="42.07317" lon="2.48678">
        <ele>752</ele>
        <time>2022-05-21 05:39:38</time>
      </trkpt>
      <trkpt lat="42.07309" lon="2.48673">
        <ele>751.6</ele>
        <time>2022-05-21 05:39:39</time>
      </trkpt>
      <trkpt lat="42.07299" lon="2.48668">
        <ele>751.2</ele>
        <time>2022-05-21 05:39:40</time>
      </trkpt>
      <trkpt lat="42.07291" lon="2.48662">
        <ele>750.6</ele>
        <time>2022-05-21 05:39:41</time>
      </trkpt>
      <trkpt lat="42.07282" lon="2.48656">
        <ele>750.2</ele>
        <time>2022-05-21 05:39:42</time>
      </trkpt>
      <trkpt lat="42.07273" lon="2.48649">
        <ele>749.8</ele>
        <time>2022-05-21 05:39:43</time>
      </trkpt>
      <trkpt lat="42.07264" lon="2.48642">
        <ele>749.4</ele>
        <time>2022-05-21 05:39:44</time>
      </trkpt>
      <trkpt lat="42.07255" lon="2.48636">
        <ele>749.2</ele>
        <time>2022-05-21 05:39:45</time>
      </trkpt>
      <trkpt lat="42.07246" lon="2.4863">
        <ele>748.8</ele>
        <time>2022-05-21 05:39:46</time>
      </trkpt>
      <trkpt lat="42.07237" lon="2.48626">
        <ele>748.6</ele>
        <time>2022-05-21 05:39:47</time>
      </trkpt>
      <trkpt lat="42.07228" lon="2.48621">
        <ele>748.4</ele>
        <time>2022-05-21 05:39:48</time>
      </trkpt>
      <trkpt lat="42.0722" lon="2.48615">
        <ele>748.2</ele>
        <time>2022-05-21 05:39:49</time>
      </trkpt>
      <trkpt lat="42.07214" lon="2.48607">
        <ele>748</ele>
        <time>2022-05-21 05:39:50</time>
      </trkpt>
      <trkpt lat="42.07211" lon="2.48597">
        <ele>747.8</ele>
        <time>2022-05-21 05:39:51</time>
      </trkpt>
      <trkpt lat="42.07209" lon="2.48588">
        <ele>747.6</ele>
        <time>2022-05-21 05:39:52</time>
      </trkpt>
      <trkpt lat="42.07211" lon="2.48579">
        <ele>747.2</ele>
        <time>2022-05-21 05:39:53</time>
      </trkpt>
      <trkpt lat="42.07213" lon="2.4857">
        <ele>747</ele>
        <time>2022-05-21 05:39:54</time>
      </trkpt>
      <trkpt lat="42.07217" lon="2.48561">
        <ele>746.6</ele>
        <time>2022-05-21 05:39:55</time>
      </trkpt>
      <trkpt lat="42.07221" lon="2.48551">
        <ele>746</ele>
        <time>2022-05-21 05:39:56</time>
      </trkpt>
      <trkpt lat="42.07224" lon="2.4854">
        <ele>745.4</ele>
        <time>2022-05-21 05:39:57</time>
      </trkpt>
      <trkpt lat="42.07228" lon="2.48527">
        <ele>744.8</ele>
        <time>2022-05-21 05:39:58</time>
      </trkpt>
      <trkpt lat="42.07235" lon="2.48514">
        <ele>744.2</ele>
        <time>2022-05-21 05:39:59</time>
      </trkpt>
      <trkpt lat="42.07241" lon="2.48501">
        <ele>743.6</ele>
        <time>2022-05-21 05:40:00</time>
      </trkpt>
      <trkpt lat="42.07247" lon="2.4849">
        <ele>742.8</ele>
        <time>2022-05-21 05:40:01</time>
      </trkpt>
      <trkpt lat="42.07254" lon="2.48482">
        <ele>742</ele>
        <time>2022-05-21 05:40:02</time>
      </trkpt>
      <trkpt lat="42.07261" lon="2.48473">
        <ele>741.2</ele>
        <time>2022-05-21 05:40:03</time>
      </trkpt>
      <trkpt lat="42.0727" lon="2.48465">
        <ele>740.2</ele>
        <time>2022-05-21 05:40:04</time>
      </trkpt>
      <trkpt lat="42.07281" lon="2.48462">
        <ele>739.4</ele>
        <time>2022-05-21 05:40:05</time>
      </trkpt>
      <trkpt lat="42.07293" lon="2.48458">
        <ele>738.8</ele>
        <time>2022-05-21 05:40:06</time>
      </trkpt>
      <trkpt lat="42.07306" lon="2.48453">
        <ele>738</ele>
        <time>2022-05-21 05:40:07</time>
      </trkpt>
      <trkpt lat="42.07319" lon="2.48445">
        <ele>737.2</ele>
        <time>2022-05-21 05:40:08</time>
      </trkpt>
      <trkpt lat="42.07331" lon="2.4844">
        <ele>736.8</ele>
        <time>2022-05-21 05:40:09</time>
      </trkpt>
      <trkpt lat="42.07341" lon="2.48434">
        <ele>736.2</ele>
        <time>2022-05-21 05:40:10</time>
      </trkpt>
      <trkpt lat="42.07348" lon="2.48425">
        <ele>735.6</ele>
        <time>2022-05-21 05:40:11</time>
      </trkpt>
      <trkpt lat="42.07352" lon="2.48416">
        <ele>735</ele>
        <time>2022-05-21 05:40:12</time>
      </trkpt>
      <trkpt lat="42.07356" lon="2.48406">
        <ele>734.4</ele>
        <time>2022-05-21 05:40:13</time>
      </trkpt>
      <trkpt lat="42.07359" lon="2.48395">
        <ele>733.8</ele>
        <time>2022-05-21 05:40:14</time>
      </trkpt>
      <trkpt lat="42.07362" lon="2.48384">
        <ele>733.2</ele>
        <time>2022-05-21 05:40:15</time>
      </trkpt>
      <trkpt lat="42.07365" lon="2.48371">
        <ele>732.6</ele>
        <time>2022-05-21 05:40:16</time>
      </trkpt>
      <trkpt lat="42.07367" lon="2.48358">
        <ele>732.2</ele>
        <time>2022-05-21 05:40:17</time>
      </trkpt>
      <trkpt lat="42.0737" lon="2.48346">
        <ele>731.6</ele>
        <time>2022-05-21 05:40:18</time>
      </trkpt>
      <trkpt lat="42.07374" lon="2.48334">
        <ele>731</ele>
        <time>2022-05-21 05:40:19</time>
      </trkpt>
      <trkpt lat="42.07378" lon="2.48322">
        <ele>730.4</ele>
        <time>2022-05-21 05:40:20</time>
      </trkpt>
      <trkpt lat="42.07382" lon="2.48311">
        <ele>730</ele>
        <time>2022-05-21 05:40:21</time>
      </trkpt>
      <trkpt lat="42.07388" lon="2.48301">
        <ele>729.6</ele>
        <time>2022-05-21 05:40:22</time>
      </trkpt>
      <trkpt lat="42.07394" lon="2.48293">
        <ele>729.2</ele>
        <time>2022-05-21 05:40:23</time>
      </trkpt>
      <trkpt lat="42.07404" lon="2.48291">
        <ele>728.8</ele>
        <time>2022-05-21 05:40:24</time>
      </trkpt>
      <trkpt lat="42.07413" lon="2.48296">
        <ele>728.4</ele>
        <time>2022-05-21 05:40:25</time>
      </trkpt>
      <trkpt lat="42.07423" lon="2.48302">
        <ele>728</ele>
        <time>2022-05-21 05:40:26</time>
      </trkpt>
      <trkpt lat="42.07433" lon="2.4831">
        <ele>727.4</ele>
        <time>2022-05-21 05:40:27</time>
      </trkpt>
      <trkpt lat="42.07442" lon="2.48321">
        <ele>726.8</ele>
        <time>2022-05-21 05:40:28</time>
      </trkpt>
      <trkpt lat="42.07454" lon="2.48329">
        <ele>726.2</ele>
        <time>2022-05-21 05:40:29</time>
      </trkpt>
      <trkpt lat="42.07466" lon="2.48335">
        <ele>725.4</ele>
        <time>2022-05-21 05:40:30</time>
      </trkpt>
      <trkpt lat="42.07478" lon="2.48341">
        <ele>724.6</ele>
        <time>2022-05-21 05:40:31</time>
      </trkpt>
      <trkpt lat="42.0749" lon="2.48347">
        <ele>723.8</ele>
        <time>2022-05-21 05:40:32</time>
      </trkpt>
      <trkpt lat="42.07502" lon="2.48354">
        <ele>723</ele>
        <time>2022-05-21 05:40:33</time>
      </trkpt>
      <trkpt lat="42.07513" lon="2.48362">
        <ele>722.2</ele>
        <time>2022-05-21 05:40:34</time>
      </trkpt>
      <trkpt lat="42.07525" lon="2.48371">
        <ele>721.6</ele>
        <time>2022-05-21 05:40:35</time>
      </trkpt>
      <trkpt lat="42.07537" lon="2.48379">
        <ele>720.6</ele>
        <time>2022-05-21 05:40:36</time>
      </trkpt>
      <trkpt lat="42.07549" lon="2.48384">
        <ele>719.8</ele>
        <time>2022-05-21 05:40:37</time>
      </trkpt>
      <trkpt lat="42.07561" lon="2.48388">
        <ele>718.8</ele>
        <time>2022-05-21 05:40:38</time>
      </trkpt>
      <trkpt lat="42.07574" lon="2.4839">
        <ele>718</ele>
        <time>2022-05-21 05:40:39</time>
      </trkpt>
      <trkpt lat="42.07586" lon="2.48389">
        <ele>717.2</ele>
        <time>2022-05-21 05:40:40</time>
      </trkpt>
      <trkpt lat="42.07599" lon="2.48385">
        <ele>716.4</ele>
        <time>2022-05-21 05:40:41</time>
      </trkpt>
      <trkpt lat="42.07612" lon="2.48381">
        <ele>715.6</ele>
        <time>2022-05-21 05:40:42</time>
      </trkpt>
      <trkpt lat="42.07624" lon="2.48379">
        <ele>715</ele>
        <time>2022-05-21 05:40:43</time>
      </trkpt>
      <trkpt lat="42.07636" lon="2.4838">
        <ele>714.6</ele>
        <time>2022-05-21 05:40:44</time>
      </trkpt>
      <trkpt lat="42.07648" lon="2.48384">
        <ele>714</ele>
        <time>2022-05-21 05:40:45</time>
      </trkpt>
      <trkpt lat="42.0766" lon="2.48388">
        <ele>713.6</ele>
        <time>2022-05-21 05:40:46</time>
      </trkpt>
      <trkpt lat="42.07672" lon="2.4839">
        <ele>713.2</ele>
        <time>2022-05-21 05:40:47</time>
      </trkpt>
      <trkpt lat="42.07683" lon="2.4839">
        <ele>712.8</ele>
        <time>2022-05-21 05:40:48</time>
      </trkpt>
      <trkpt lat="42.07694" lon="2.48387">
        <ele>712.4</ele>
        <time>2022-05-21 05:40:49</time>
      </trkpt>
      <trkpt lat="42.07703" lon="2.48383">
        <ele>711.8</ele>
        <time>2022-05-21 05:40:50</time>
      </trkpt>
      <trkpt lat="42.07711" lon="2.48375">
        <ele>711.4</ele>
        <time>2022-05-21 05:40:51</time>
      </trkpt>
      <trkpt lat="42.07717" lon="2.48364">
        <ele>710.6</ele>
        <time>2022-05-21 05:40:52</time>
      </trkpt>
      <trkpt lat="42.07719" lon="2.48353">
        <ele>710.2</ele>
        <time>2022-05-21 05:40:53</time>
      </trkpt>
      <trkpt lat="42.07721" lon="2.4834">
        <ele>709.6</ele>
        <time>2022-05-21 05:40:54</time>
      </trkpt>
      <trkpt lat="42.07723" lon="2.48328">
        <ele>709</ele>
        <time>2022-05-21 05:40:55</time>
      </trkpt>
      <trkpt lat="42.07726" lon="2.48315">
        <ele>708.4</ele>
        <time>2022-05-21 05:40:56</time>
      </trkpt>
      <trkpt lat="42.07729" lon="2.48303">
        <ele>707.8</ele>
        <time>2022-05-21 05:40:57</time>
      </trkpt>
      <trkpt lat="42.07734" lon="2.4829">
        <ele>707.2</ele>
        <time>2022-05-21 05:40:58</time>
      </trkpt>
      <trkpt lat="42.07738" lon="2.48277">
        <ele>706.6</ele>
        <time>2022-05-21 05:40:59</time>
      </trkpt>
      <trkpt lat="42.07743" lon="2.48263">
        <ele>706</ele>
        <time>2022-05-21 05:41:00</time>
      </trkpt>
      <trkpt lat="42.07749" lon="2.4825">
        <ele>705.4</ele>
        <time>2022-05-21 05:41:01</time>
      </trkpt>
      <trkpt lat="42.07755" lon="2.48237">
        <ele>704.8</ele>
        <time>2022-05-21 05:41:02</time>
      </trkpt>
      <trkpt lat="42.07761" lon="2.48225">
        <ele>704.2</ele>
        <time>2022-05-21 05:41:03</time>
      </trkpt>
      <trkpt lat="42.07767" lon="2.48213">
        <ele>703.6</ele>
        <time>2022-05-21 05:41:04</time>
      </trkpt>
      <trkpt lat="42.07772" lon="2.482">
        <ele>703</ele>
        <time>2022-05-21 05:41:05</time>
      </trkpt>
      <trkpt lat="42.07779" lon="2.48187">
        <ele>702.4</ele>
        <time>2022-05-21 05:41:06</time>
      </trkpt>
      <trkpt lat="42.07784" lon="2.48173">
        <ele>701.8</ele>
        <time>2022-05-21 05:41:07</time>
      </trkpt>
      <trkpt lat="42.07789" lon="2.48159">
        <ele>701.2</ele>
        <time>2022-05-21 05:41:08</time>
      </trkpt>
      <trkpt lat="42.07793" lon="2.48146">
        <ele>700.4</ele>
        <time>2022-05-21 05:41:09</time>
      </trkpt>
      <trkpt lat="42.07796" lon="2.48132">
        <ele>699.8</ele>
        <time>2022-05-21 05:41:10</time>
      </trkpt>
      <trkpt lat="42.07799" lon="2.48118">
        <ele>699.2</ele>
        <time>2022-05-21 05:41:11</time>
      </trkpt>
      <trkpt lat="42.07801" lon="2.48107">
        <ele>698.6</ele>
        <time>2022-05-21 05:41:12</time>
      </trkpt>
      <trkpt lat="42.07806" lon="2.48087">
        <ele>698</ele>
        <time>2022-05-21 05:41:13</time>
      </trkpt>
      <trkpt lat="42.07809" lon="2.48073">
        <ele>697.4</ele>
        <time>2022-05-21 05:41:14</time>
      </trkpt>
      <trkpt lat="42.07812" lon="2.48057">
        <ele>696.8</ele>
        <time>2022-05-21 05:41:15</time>
      </trkpt>
      <trkpt lat="42.07816" lon="2.48042">
        <ele>696.4</ele>
        <time>2022-05-21 05:41:16</time>
      </trkpt>
      <trkpt lat="42.07819" lon="2.48026">
        <ele>696</ele>
        <time>2022-05-21 05:41:17</time>
      </trkpt>
      <trkpt lat="42.07823" lon="2.48011">
        <ele>695.2</ele>
        <time>2022-05-21 05:41:18</time>
      </trkpt>
      <trkpt lat="42.07827" lon="2.47995">
        <ele>694.6</ele>
        <time>2022-05-21 05:41:19</time>
      </trkpt>
      <trkpt lat="42.07831" lon="2.4798">
        <ele>694</ele>
        <time>2022-05-21 05:41:20</time>
      </trkpt>
      <trkpt lat="42.07836" lon="2.47966">
        <ele>693.2</ele>
        <time>2022-05-21 05:41:21</time>
      </trkpt>
      <trkpt lat="42.07843" lon="2.47954">
        <ele>692.4</ele>
        <time>2022-05-21 05:41:22</time>
      </trkpt>
      <trkpt lat="42.07851" lon="2.47942">
        <ele>691.6</ele>
        <time>2022-05-21 05:41:23</time>
      </trkpt>
      <trkpt lat="42.07858" lon="2.47931">
        <ele>690.8</ele>
        <time>2022-05-21 05:41:24</time>
      </trkpt>
      <trkpt lat="42.07867" lon="2.4792">
        <ele>690.2</ele>
        <time>2022-05-21 05:41:25</time>
      </trkpt>
      <trkpt lat="42.07875" lon="2.47909">
        <ele>689.4</ele>
        <time>2022-05-21 05:41:26</time>
      </trkpt>
      <trkpt lat="42.07883" lon="2.47897">
        <ele>688.8</ele>
        <time>2022-05-21 05:41:27</time>
      </trkpt>
      <trkpt lat="42.07891" lon="2.47885">
        <ele>688</ele>
        <time>2022-05-21 05:41:28</time>
      </trkpt>
      <trkpt lat="42.07899" lon="2.47874">
        <ele>687.4</ele>
        <time>2022-05-21 05:41:29</time>
      </trkpt>
      <trkpt lat="42.07908" lon="2.47864">
        <ele>686.8</ele>
        <time>2022-05-21 05:41:30</time>
      </trkpt>
      <trkpt lat="42.07917" lon="2.47855">
        <ele>686.2</ele>
        <time>2022-05-21 05:41:31</time>
      </trkpt>
      <trkpt lat="42.07927" lon="2.47847">
        <ele>685.8</ele>
        <time>2022-05-21 05:41:32</time>
      </trkpt>
      <trkpt lat="42.07936" lon="2.47839">
        <ele>685.2</ele>
        <time>2022-05-21 05:41:33</time>
      </trkpt>
      <trkpt lat="42.07944" lon="2.47829">
        <ele>684.6</ele>
        <time>2022-05-21 05:41:34</time>
      </trkpt>
      <trkpt lat="42.07952" lon="2.47818">
        <ele>684.2</ele>
        <time>2022-05-21 05:41:35</time>
      </trkpt>
      <trkpt lat="42.07959" lon="2.47807">
        <ele>683.6</ele>
        <time>2022-05-21 05:41:36</time>
      </trkpt>
      <trkpt lat="42.07967" lon="2.47797">
        <ele>683</ele>
        <time>2022-05-21 05:41:37</time>
      </trkpt>
      <trkpt lat="42.07976" lon="2.47787">
        <ele>682.4</ele>
        <time>2022-05-21 05:41:38</time>
      </trkpt>
      <trkpt lat="42.07985" lon="2.4778">
        <ele>682</ele>
        <time>2022-05-21 05:41:39</time>
      </trkpt>
      <trkpt lat="42.07994" lon="2.47777">
        <ele>681.4</ele>
        <time>2022-05-21 05:41:40</time>
      </trkpt>
      <trkpt lat="42.08002" lon="2.47777">
        <ele>681</ele>
        <time>2022-05-21 05:41:41</time>
      </trkpt>
      <trkpt lat="42.08011" lon="2.4778">
        <ele>680.6</ele>
        <time>2022-05-21 05:41:42</time>
      </trkpt>
      <trkpt lat="42.08022" lon="2.47783">
        <ele>680.2</ele>
        <time>2022-05-21 05:41:43</time>
      </trkpt>
      <trkpt lat="42.08032" lon="2.47784">
        <ele>679.8</ele>
        <time>2022-05-21 05:41:44</time>
      </trkpt>
      <trkpt lat="42.08043" lon="2.47783">
        <ele>679.4</ele>
        <time>2022-05-21 05:41:45</time>
      </trkpt>
      <trkpt lat="42.08052" lon="2.47778">
        <ele>679</ele>
        <time>2022-05-21 05:41:46</time>
      </trkpt>
      <trkpt lat="42.08061" lon="2.47771">
        <ele>678.6</ele>
        <time>2022-05-21 05:41:47</time>
      </trkpt>
      <trkpt lat="42.0807" lon="2.47764">
        <ele>678.2</ele>
        <time>2022-05-21 05:41:48</time>
      </trkpt>
      <trkpt lat="42.08079" lon="2.47758">
        <ele>677.8</ele>
        <time>2022-05-21 05:41:49</time>
      </trkpt>
      <trkpt lat="42.08088" lon="2.47753">
        <ele>677.4</ele>
        <time>2022-05-21 05:41:50</time>
      </trkpt>
      <trkpt lat="42.08097" lon="2.47748">
        <ele>677</ele>
        <time>2022-05-21 05:41:51</time>
      </trkpt>
      <trkpt lat="42.08107" lon="2.47744">
        <ele>676.6</ele>
        <time>2022-05-21 05:41:52</time>
      </trkpt>
      <trkpt lat="42.08116" lon="2.47742">
        <ele>676.2</ele>
        <time>2022-05-21 05:41:53</time>
      </trkpt>
      <trkpt lat="42.08126" lon="2.47739">
        <ele>675.6</ele>
        <time>2022-05-21 05:41:54</time>
      </trkpt>
      <trkpt lat="42.08136" lon="2.47736">
        <ele>675</ele>
        <time>2022-05-21 05:41:55</time>
      </trkpt>
      <trkpt lat="42.08146" lon="2.47732">
        <ele>674.4</ele>
        <time>2022-05-21 05:41:56</time>
      </trkpt>
      <trkpt lat="42.08156" lon="2.47727">
        <ele>673.6</ele>
        <time>2022-05-21 05:41:57</time>
      </trkpt>
      <trkpt lat="42.08167" lon="2.47722">
        <ele>673</ele>
        <time>2022-05-21 05:41:58</time>
      </trkpt>
      <trkpt lat="42.08177" lon="2.47717">
        <ele>672.4</ele>
        <time>2022-05-21 05:41:59</time>
      </trkpt>
      <trkpt lat="42.08187" lon="2.47715">
        <ele>671.6</ele>
        <time>2022-05-21 05:42:00</time>
      </trkpt>
      <trkpt lat="42.08198" lon="2.47712">
        <ele>670.8</ele>
        <time>2022-05-21 05:42:01</time>
      </trkpt>
      <trkpt lat="42.08209" lon="2.47707">
        <ele>670</ele>
        <time>2022-05-21 05:42:02</time>
      </trkpt>
      <trkpt lat="42.0822" lon="2.47701">
        <ele>669.4</ele>
        <time>2022-05-21 05:42:03</time>
      </trkpt>
      <trkpt lat="42.08229" lon="2.47693">
        <ele>668.6</ele>
        <time>2022-05-21 05:42:04</time>
      </trkpt>
      <trkpt lat="42.08237" lon="2.47682">
        <ele>667.6</ele>
        <time>2022-05-21 05:42:05</time>
      </trkpt>
      <trkpt lat="42.08245" lon="2.47671">
        <ele>666.8</ele>
        <time>2022-05-21 05:42:06</time>
      </trkpt>
      <trkpt lat="42.08253" lon="2.47658">
        <ele>666</ele>
        <time>2022-05-21 05:42:07</time>
      </trkpt>
      <trkpt lat="42.0826" lon="2.47644">
        <ele>665</ele>
        <time>2022-05-21 05:42:08</time>
      </trkpt>
      <trkpt lat="42.08267" lon="2.4763">
        <ele>664.2</ele>
        <time>2022-05-21 05:42:09</time>
      </trkpt>
      <trkpt lat="42.08274" lon="2.47616">
        <ele>663.4</ele>
        <time>2022-05-21 05:42:10</time>
      </trkpt>
      <trkpt lat="42.08282" lon="2.47602">
        <ele>662.4</ele>
        <time>2022-05-21 05:42:11</time>
      </trkpt>
      <trkpt lat="42.08291" lon="2.47588">
        <ele>661.4</ele>
        <time>2022-05-21 05:42:12</time>
      </trkpt>
      <trkpt lat="42.08299" lon="2.47574">
        <ele>660.6</ele>
        <time>2022-05-21 05:42:13</time>
      </trkpt>
      <trkpt lat="42.08306" lon="2.47559">
        <ele>659.8</ele>
        <time>2022-05-21 05:42:14</time>
      </trkpt>
      <trkpt lat="42.08313" lon="2.47543">
        <ele>658.8</ele>
        <time>2022-05-21 05:42:15</time>
      </trkpt>
      <trkpt lat="42.08319" lon="2.47526">
        <ele>657.8</ele>
        <time>2022-05-21 05:42:16</time>
      </trkpt>
      <trkpt lat="42.08325" lon="2.4751">
        <ele>656.8</ele>
        <time>2022-05-21 05:42:17</time>
      </trkpt>
      <trkpt lat="42.08331" lon="2.47492">
        <ele>655.8</ele>
        <time>2022-05-21 05:42:18</time>
      </trkpt>
      <trkpt lat="42.08336" lon="2.47475">
        <ele>654.8</ele>
        <time>2022-05-21 05:42:19</time>
      </trkpt>
      <trkpt lat="42.08341" lon="2.47457">
        <ele>654</ele>
        <time>2022-05-21 05:42:20</time>
      </trkpt>
      <trkpt lat="42.08345" lon="2.4744">
        <ele>653.4</ele>
        <time>2022-05-21 05:42:21</time>
      </trkpt>
      <trkpt lat="42.08349" lon="2.47424">
        <ele>653</ele>
        <time>2022-05-21 05:42:22</time>
      </trkpt>
      <trkpt lat="42.08355" lon="2.47412">
        <ele>652.6</ele>
        <time>2022-05-21 05:42:23</time>
      </trkpt>
      <trkpt lat="42.08362" lon="2.47404">
        <ele>652.2</ele>
        <time>2022-05-21 05:42:24</time>
      </trkpt>
      <trkpt lat="42.08369" lon="2.47401">
        <ele>652</ele>
        <time>2022-05-21 05:42:25</time>
      </trkpt>
      <trkpt lat="42.08377" lon="2.47402">
        <ele>651.8</ele>
        <time>2022-05-21 05:42:26</time>
      </trkpt>
      <trkpt lat="42.08384" lon="2.47409">
        <ele>651.6</ele>
        <time>2022-05-21 05:42:27</time>
      </trkpt>
      <trkpt lat="42.08391" lon="2.47418">
        <ele>651.4</ele>
        <time>2022-05-21 05:42:28</time>
      </trkpt>
      <trkpt lat="42.08397" lon="2.47426">
        <ele>651.2</ele>
        <time>2022-05-21 05:42:29</time>
      </trkpt>
      <trkpt lat="42.08403" lon="2.47434">
        <ele>650.8</ele>
        <time>2022-05-21 05:42:30</time>
      </trkpt>
      <trkpt lat="42.0841" lon="2.47442">
        <ele>650.4</ele>
        <time>2022-05-21 05:42:31</time>
      </trkpt>
      <trkpt lat="42.08417" lon="2.4745">
        <ele>650</ele>
        <time>2022-05-21 05:42:32</time>
      </trkpt>
      <trkpt lat="42.08424" lon="2.47456">
        <ele>649.4</ele>
        <time>2022-05-21 05:42:33</time>
      </trkpt>
      <trkpt lat="42.08433" lon="2.4746">
        <ele>649</ele>
        <time>2022-05-21 05:42:34</time>
      </trkpt>
      <trkpt lat="42.08442" lon="2.47461">
        <ele>648.6</ele>
        <time>2022-05-21 05:42:35</time>
      </trkpt>
      <trkpt lat="42.08452" lon="2.47461">
        <ele>648</ele>
        <time>2022-05-21 05:42:36</time>
      </trkpt>
      <trkpt lat="42.08463" lon="2.47459">
        <ele>647.4</ele>
        <time>2022-05-21 05:42:37</time>
      </trkpt>
      <trkpt lat="42.08472" lon="2.47457">
        <ele>646.8</ele>
        <time>2022-05-21 05:42:38</time>
      </trkpt>
      <trkpt lat="42.08482" lon="2.47455">
        <ele>646.2</ele>
        <time>2022-05-21 05:42:39</time>
      </trkpt>
      <trkpt lat="42.08493" lon="2.47453">
        <ele>645.6</ele>
        <time>2022-05-21 05:42:40</time>
      </trkpt>
      <trkpt lat="42.08503" lon="2.47452">
        <ele>645</ele>
        <time>2022-05-21 05:42:41</time>
      </trkpt>
      <trkpt lat="42.08512" lon="2.47452">
        <ele>644.2</ele>
        <time>2022-05-21 05:42:42</time>
      </trkpt>
      <trkpt lat="42.08522" lon="2.47454">
        <ele>643.4</ele>
        <time>2022-05-21 05:42:43</time>
      </trkpt>
      <trkpt lat="42.08533" lon="2.47455">
        <ele>642.8</ele>
        <time>2022-05-21 05:42:44</time>
      </trkpt>
      <trkpt lat="42.08545" lon="2.47453">
        <ele>642.2</ele>
        <time>2022-05-21 05:42:45</time>
      </trkpt>
      <trkpt lat="42.08554" lon="2.47448">
        <ele>641.8</ele>
        <time>2022-05-21 05:42:46</time>
      </trkpt>
      <trkpt lat="42.0856" lon="2.47438">
        <ele>641.4</ele>
        <time>2022-05-21 05:42:47</time>
      </trkpt>
      <trkpt lat="42.08564" lon="2.47427">
        <ele>640.8</ele>
        <time>2022-05-21 05:42:48</time>
      </trkpt>
      <trkpt lat="42.08566" lon="2.47415">
        <ele>640.4</ele>
        <time>2022-05-21 05:42:49</time>
      </trkpt>
      <trkpt lat="42.08567" lon="2.47403">
        <ele>639.8</ele>
        <time>2022-05-21 05:42:50</time>
      </trkpt>
      <trkpt lat="42.08571" lon="2.47392">
        <ele>639.2</ele>
        <time>2022-05-21 05:42:51</time>
      </trkpt>
      <trkpt lat="42.08575" lon="2.47381">
        <ele>638.6</ele>
        <time>2022-05-21 05:42:52</time>
      </trkpt>
      <trkpt lat="42.08582" lon="2.47373">
        <ele>637.8</ele>
        <time>2022-05-21 05:42:53</time>
      </trkpt>
      <trkpt lat="42.08591" lon="2.47366">
        <ele>637.2</ele>
        <time>2022-05-21 05:42:54</time>
      </trkpt>
      <trkpt lat="42.08599" lon="2.47361">
        <ele>636.4</ele>
        <time>2022-05-21 05:42:55</time>
      </trkpt>
      <trkpt lat="42.08609" lon="2.47357">
        <ele>635.8</ele>
        <time>2022-05-21 05:42:56</time>
      </trkpt>
      <trkpt lat="42.08619" lon="2.47354">
        <ele>635</ele>
        <time>2022-05-21 05:42:57</time>
      </trkpt>
      <trkpt lat="42.08629" lon="2.4735">
        <ele>634.2</ele>
        <time>2022-05-21 05:42:58</time>
      </trkpt>
      <trkpt lat="42.0864" lon="2.47347">
        <ele>633.4</ele>
        <time>2022-05-21 05:42:59</time>
      </trkpt>
      <trkpt lat="42.08648" lon="2.47345">
        <ele>632.8</ele>
        <time>2022-05-21 05:43:00</time>
      </trkpt>
      <trkpt lat="42.08655" lon="2.47344">
        <ele>632.2</ele>
        <time>2022-05-21 05:43:01</time>
      </trkpt>
      <trkpt lat="42.0867" lon="2.47341">
        <ele>631.6</ele>
        <time>2022-05-21 05:43:02</time>
      </trkpt>
      <trkpt lat="42.0868" lon="2.47336">
        <ele>631</ele>
        <time>2022-05-21 05:43:03</time>
      </trkpt>
      <trkpt lat="42.08689" lon="2.47329">
        <ele>630.4</ele>
        <time>2022-05-21 05:43:04</time>
      </trkpt>
      <trkpt lat="42.08699" lon="2.47321">
        <ele>629.8</ele>
        <time>2022-05-21 05:43:05</time>
      </trkpt>
      <trkpt lat="42.08709" lon="2.47314">
        <ele>629.2</ele>
        <time>2022-05-21 05:43:06</time>
      </trkpt>
      <trkpt lat="42.08719" lon="2.47308">
        <ele>628.6</ele>
        <time>2022-05-21 05:43:07</time>
      </trkpt>
      <trkpt lat="42.0873" lon="2.47301">
        <ele>628</ele>
        <time>2022-05-21 05:43:08</time>
      </trkpt>
      <trkpt lat="42.0874" lon="2.47294">
        <ele>627.2</ele>
        <time>2022-05-21 05:43:09</time>
      </trkpt>
      <trkpt lat="42.0875" lon="2.47286">
        <ele>626.6</ele>
        <time>2022-05-21 05:43:10</time>
      </trkpt>
      <trkpt lat="42.0876" lon="2.47278">
        <ele>625.8</ele>
        <time>2022-05-21 05:43:11</time>
      </trkpt>
      <trkpt lat="42.0877" lon="2.47269">
        <ele>625.2</ele>
        <time>2022-05-21 05:43:12</time>
      </trkpt>
      <trkpt lat="42.08779" lon="2.47261">
        <ele>624.6</ele>
        <time>2022-05-21 05:43:13</time>
      </trkpt>
      <trkpt lat="42.08789" lon="2.47253">
        <ele>624</ele>
        <time>2022-05-21 05:43:14</time>
      </trkpt>
      <trkpt lat="42.08799" lon="2.47245">
        <ele>623.2</ele>
        <time>2022-05-21 05:43:15</time>
      </trkpt>
      <trkpt lat="42.08809" lon="2.47238">
        <ele>622.6</ele>
        <time>2022-05-21 05:43:16</time>
      </trkpt>
      <trkpt lat="42.08818" lon="2.47233">
        <ele>622</ele>
        <time>2022-05-21 05:43:17</time>
      </trkpt>
      <trkpt lat="42.08829" lon="2.47231">
        <ele>621.6</ele>
        <time>2022-05-21 05:43:18</time>
      </trkpt>
      <trkpt lat="42.0884" lon="2.47229">
        <ele>621</ele>
        <time>2022-05-21 05:43:19</time>
      </trkpt>
      <trkpt lat="42.08851" lon="2.47228">
        <ele>620.4</ele>
        <time>2022-05-21 05:43:20</time>
      </trkpt>
      <trkpt lat="42.08862" lon="2.47227">
        <ele>620</ele>
        <time>2022-05-21 05:43:21</time>
      </trkpt>
      <trkpt lat="42.08873" lon="2.47226">
        <ele>619.6</ele>
        <time>2022-05-21 05:43:22</time>
      </trkpt>
      <trkpt lat="42.08883" lon="2.47225">
        <ele>619.2</ele>
        <time>2022-05-21 05:43:23</time>
      </trkpt>
      <trkpt lat="42.08892" lon="2.47221">
        <ele>618.8</ele>
        <time>2022-05-21 05:43:24</time>
      </trkpt>
      <trkpt lat="42.08899" lon="2.47213">
        <ele>618.4</ele>
        <time>2022-05-21 05:43:25</time>
      </trkpt>
      <trkpt lat="42.08904" lon="2.47203">
        <ele>618.2</ele>
        <time>2022-05-21 05:43:26</time>
      </trkpt>
      <trkpt lat="42.08908" lon="2.4719">
        <ele>617.8</ele>
        <time>2022-05-21 05:43:27</time>
      </trkpt>
      <trkpt lat="42.08909" lon="2.47176">
        <ele>617.4</ele>
        <time>2022-05-21 05:43:28</time>
      </trkpt>
      <trkpt lat="42.08908" lon="2.47162">
        <ele>617</ele>
        <time>2022-05-21 05:43:29</time>
      </trkpt>
      <trkpt lat="42.08908" lon="2.47149">
        <ele>616.4</ele>
        <time>2022-05-21 05:43:30</time>
      </trkpt>
      <trkpt lat="42.08908" lon="2.47135">
        <ele>616</ele>
        <time>2022-05-21 05:43:31</time>
      </trkpt>
      <trkpt lat="42.08908" lon="2.47122">
        <ele>615.4</ele>
        <time>2022-05-21 05:43:32</time>
      </trkpt>
      <trkpt lat="42.08908" lon="2.47108">
        <ele>615</ele>
        <time>2022-05-21 05:43:33</time>
      </trkpt>
      <trkpt lat="42.08909" lon="2.47095">
        <ele>614.4</ele>
        <time>2022-05-21 05:43:34</time>
      </trkpt>
      <trkpt lat="42.0891" lon="2.47081">
        <ele>613.8</ele>
        <time>2022-05-21 05:43:35</time>
      </trkpt>
      <trkpt lat="42.08912" lon="2.47068">
        <ele>613.2</ele>
        <time>2022-05-21 05:43:36</time>
      </trkpt>
      <trkpt lat="42.08916" lon="2.47055">
        <ele>612.6</ele>
        <time>2022-05-21 05:43:37</time>
      </trkpt>
      <trkpt lat="42.08921" lon="2.47042">
        <ele>612</ele>
        <time>2022-05-21 05:43:38</time>
      </trkpt>
      <trkpt lat="42.08927" lon="2.47031">
        <ele>611.4</ele>
        <time>2022-05-21 05:43:39</time>
      </trkpt>
      <trkpt lat="42.08934" lon="2.47023">
        <ele>610.8</ele>
        <time>2022-05-21 05:43:40</time>
      </trkpt>
      <trkpt lat="42.08942" lon="2.4702">
        <ele>610.2</ele>
        <time>2022-05-21 05:43:41</time>
      </trkpt>
      <trkpt lat="42.08952" lon="2.4702">
        <ele>609.6</ele>
        <time>2022-05-21 05:43:42</time>
      </trkpt>
      <trkpt lat="42.0896" lon="2.47022">
        <ele>609</ele>
        <time>2022-05-21 05:43:43</time>
      </trkpt>
      <trkpt lat="42.08969" lon="2.47026">
        <ele>608.2</ele>
        <time>2022-05-21 05:43:44</time>
      </trkpt>
      <trkpt lat="42.08978" lon="2.47029">
        <ele>607.6</ele>
        <time>2022-05-21 05:43:45</time>
      </trkpt>
      <trkpt lat="42.08987" lon="2.47031">
        <ele>607</ele>
        <time>2022-05-21 05:43:46</time>
      </trkpt>
      <trkpt lat="42.08997" lon="2.4703">
        <ele>606.4</ele>
        <time>2022-05-21 05:43:47</time>
      </trkpt>
      <trkpt lat="42.09006" lon="2.47025">
        <ele>605.8</ele>
        <time>2022-05-21 05:43:48</time>
      </trkpt>
      <trkpt lat="42.09013" lon="2.47017">
        <ele>605.2</ele>
        <time>2022-05-21 05:43:49</time>
      </trkpt>
      <trkpt lat="42.09018" lon="2.47007">
        <ele>604.6</ele>
        <time>2022-05-21 05:43:50</time>
      </trkpt>
      <trkpt lat="42.09022" lon="2.46996">
        <ele>604.2</ele>
        <time>2022-05-21 05:43:51</time>
      </trkpt>
      <trkpt lat="42.09024" lon="2.46983">
        <ele>603.6</ele>
        <time>2022-05-21 05:43:52</time>
      </trkpt>
      <trkpt lat="42.09026" lon="2.4697">
        <ele>603.2</ele>
        <time>2022-05-21 05:43:53</time>
      </trkpt>
      <trkpt lat="42.0903" lon="2.46958">
        <ele>602.6</ele>
        <time>2022-05-21 05:43:54</time>
      </trkpt>
      <trkpt lat="42.09035" lon="2.46947">
        <ele>602</ele>
        <time>2022-05-21 05:43:55</time>
      </trkpt>
      <trkpt lat="42.09042" lon="2.46941">
        <ele>601.6</ele>
        <time>2022-05-21 05:43:56</time>
      </trkpt>
      <trkpt lat="42.0905" lon="2.46938">
        <ele>601</ele>
        <time>2022-05-21 05:43:57</time>
      </trkpt>
      <trkpt lat="42.09057" lon="2.4694">
        <ele>600.6</ele>
        <time>2022-05-21 05:43:58</time>
      </trkpt>
      <trkpt lat="42.09063" lon="2.46946">
        <ele>600</ele>
        <time>2022-05-21 05:43:59</time>
      </trkpt>
      <trkpt lat="42.09069" lon="2.46955">
        <ele>599.6</ele>
        <time>2022-05-21 05:44:00</time>
      </trkpt>
      <trkpt lat="42.09076" lon="2.46968">
        <ele>599</ele>
        <time>2022-05-21 05:44:01</time>
      </trkpt>
      <trkpt lat="42.09084" lon="2.4698">
        <ele>598.4</ele>
        <time>2022-05-21 05:44:02</time>
      </trkpt>
      <trkpt lat="42.0909" lon="2.4699">
        <ele>597.8</ele>
        <time>2022-05-21 05:44:03</time>
      </trkpt>
      <trkpt lat="42.09098" lon="2.46998">
        <ele>597</ele>
        <time>2022-05-21 05:44:04</time>
      </trkpt>
      <trkpt lat="42.09105" lon="2.47005">
        <ele>596.4</ele>
        <time>2022-05-21 05:44:05</time>
      </trkpt>
      <trkpt lat="42.09113" lon="2.47011">
        <ele>595.6</ele>
        <time>2022-05-21 05:44:06</time>
      </trkpt>
      <trkpt lat="42.09123" lon="2.47014">
        <ele>595</ele>
        <time>2022-05-21 05:44:07</time>
      </trkpt>
      <trkpt lat="42.09134" lon="2.47015">
        <ele>594.2</ele>
        <time>2022-05-21 05:44:08</time>
      </trkpt>
      <trkpt lat="42.09144" lon="2.47016">
        <ele>593.6</ele>
        <time>2022-05-21 05:44:09</time>
      </trkpt>
      <trkpt lat="42.09154" lon="2.47018">
        <ele>592.8</ele>
        <time>2022-05-21 05:44:10</time>
      </trkpt>
      <trkpt lat="42.09164" lon="2.47022">
        <ele>592.2</ele>
        <time>2022-05-21 05:44:11</time>
      </trkpt>
      <trkpt lat="42.09174" lon="2.47026">
        <ele>591.4</ele>
        <time>2022-05-21 05:44:12</time>
      </trkpt>
      <trkpt lat="42.09184" lon="2.47031">
        <ele>590.8</ele>
        <time>2022-05-21 05:44:13</time>
      </trkpt>
      <trkpt lat="42.09194" lon="2.47036">
        <ele>590.2</ele>
        <time>2022-05-21 05:44:14</time>
      </trkpt>
      <trkpt lat="42.09203" lon="2.47042">
        <ele>589.6</ele>
        <time>2022-05-21 05:44:15</time>
      </trkpt>
      <trkpt lat="42.09212" lon="2.47046">
        <ele>589.2</ele>
        <time>2022-05-21 05:44:16</time>
      </trkpt>
      <trkpt lat="42.09221" lon="2.47049">
        <ele>588.6</ele>
        <time>2022-05-21 05:44:17</time>
      </trkpt>
      <trkpt lat="42.0923" lon="2.4705">
        <ele>588</ele>
        <time>2022-05-21 05:44:18</time>
      </trkpt>
      <trkpt lat="42.09239" lon="2.47048">
        <ele>587.6</ele>
        <time>2022-05-21 05:44:19</time>
      </trkpt>
      <trkpt lat="42.09248" lon="2.47045">
        <ele>587</ele>
        <time>2022-05-21 05:44:20</time>
      </trkpt>
      <trkpt lat="42.09258" lon="2.47042">
        <ele>586.4</ele>
        <time>2022-05-21 05:44:21</time>
      </trkpt>
      <trkpt lat="42.09269" lon="2.47041">
        <ele>586</ele>
        <time>2022-05-21 05:44:22</time>
      </trkpt>
      <trkpt lat="42.0928" lon="2.47041">
        <ele>585.4</ele>
        <time>2022-05-21 05:44:23</time>
      </trkpt>
      <trkpt lat="42.09289" lon="2.47044">
        <ele>584.8</ele>
        <time>2022-05-21 05:44:24</time>
      </trkpt>
      <trkpt lat="42.09298" lon="2.47048">
        <ele>584.2</ele>
        <time>2022-05-21 05:44:25</time>
      </trkpt>
      <trkpt lat="42.09307" lon="2.47053">
        <ele>583.6</ele>
        <time>2022-05-21 05:44:26</time>
      </trkpt>
      <trkpt lat="42.09314" lon="2.4706">
        <ele>583</ele>
        <time>2022-05-21 05:44:27</time>
      </trkpt>
      <trkpt lat="42.09322" lon="2.47067">
        <ele>582.4</ele>
        <time>2022-05-21 05:44:28</time>
      </trkpt>
      <trkpt lat="42.0933" lon="2.47073">
        <ele>581.6</ele>
        <time>2022-05-21 05:44:29</time>
      </trkpt>
      <trkpt lat="42.09339" lon="2.47079">
        <ele>581</ele>
        <time>2022-05-21 05:44:30</time>
      </trkpt>
      <trkpt lat="42.09349" lon="2.47084">
        <ele>580.4</ele>
        <time>2022-05-21 05:44:31</time>
      </trkpt>
      <trkpt lat="42.09358" lon="2.47089">
        <ele>580</ele>
        <time>2022-05-21 05:44:32</time>
      </trkpt>
      <trkpt lat="42.09367" lon="2.47095">
        <ele>579.4</ele>
        <time>2022-05-21 05:44:33</time>
      </trkpt>
      <trkpt lat="42.09377" lon="2.47099">
        <ele>578.8</ele>
        <time>2022-05-21 05:44:34</time>
      </trkpt>
      <trkpt lat="42.09386" lon="2.47103">
        <ele>578.4</ele>
        <time>2022-05-21 05:44:35</time>
      </trkpt>
      <trkpt lat="42.09396" lon="2.47108">
        <ele>578</ele>
        <time>2022-05-21 05:44:36</time>
      </trkpt>
      <trkpt lat="42.09406" lon="2.47113">
        <ele>577.6</ele>
        <time>2022-05-21 05:44:37</time>
      </trkpt>
      <trkpt lat="42.09415" lon="2.47118">
        <ele>577.4</ele>
        <time>2022-05-21 05:44:38</time>
      </trkpt>
      <trkpt lat="42.09425" lon="2.47121">
        <ele>577.4</ele>
        <time>2022-05-21 05:44:39</time>
      </trkpt>
      <trkpt lat="42.09435" lon="2.47121">
        <ele>577.2</ele>
        <time>2022-05-21 05:44:40</time>
      </trkpt>
      <trkpt lat="42.09447" lon="2.47119">
        <ele>577.2</ele>
        <time>2022-05-21 05:44:41</time>
      </trkpt>
      <trkpt lat="42.09455" lon="2.47113">
        <ele>577.2</ele>
        <time>2022-05-21 05:44:42</time>
      </trkpt>
      <trkpt lat="42.0946" lon="2.47105">
        <ele>577.2</ele>
        <time>2022-05-21 05:44:43</time>
      </trkpt>
      <trkpt lat="42.09462" lon="2.47097">
        <ele>577.2</ele>
        <time>2022-05-21 05:44:44</time>
      </trkpt>
      <trkpt lat="42.09462" lon="2.47087">
        <ele>577.2</ele>
        <time>2022-05-21 05:44:45</time>
      </trkpt>
      <trkpt lat="42.09461" lon="2.47076">
        <ele>577.2</ele>
        <time>2022-05-21 05:44:46</time>
      </trkpt>
      <trkpt lat="42.0946" lon="2.47066">
        <ele>577.2</ele>
        <time>2022-05-21 05:44:47</time>
      </trkpt>
      <trkpt lat="42.09459" lon="2.47055">
        <ele>577</ele>
        <time>2022-05-21 05:44:48</time>
      </trkpt>
      <trkpt lat="42.09458" lon="2.47044">
        <ele>576.6</ele>
        <time>2022-05-21 05:44:49</time>
      </trkpt>
      <trkpt lat="42.09456" lon="2.47033">
        <ele>576.2</ele>
        <time>2022-05-21 05:44:50</time>
      </trkpt>
      <trkpt lat="42.09453" lon="2.47022">
        <ele>575.8</ele>
        <time>2022-05-21 05:44:51</time>
      </trkpt>
      <trkpt lat="42.09449" lon="2.47012">
        <ele>575.2</ele>
        <time>2022-05-21 05:44:52</time>
      </trkpt>
      <trkpt lat="42.09444" lon="2.47001">
        <ele>574.8</ele>
        <time>2022-05-21 05:44:53</time>
      </trkpt>
      <trkpt lat="42.09439" lon="2.46991">
        <ele>574.2</ele>
        <time>2022-05-21 05:44:54</time>
      </trkpt>
      <trkpt lat="42.09436" lon="2.4698">
        <ele>573.6</ele>
        <time>2022-05-21 05:44:55</time>
      </trkpt>
      <trkpt lat="42.09434" lon="2.46966">
        <ele>573</ele>
        <time>2022-05-21 05:44:56</time>
      </trkpt>
      <trkpt lat="42.09431" lon="2.46953">
        <ele>572.4</ele>
        <time>2022-05-21 05:44:57</time>
      </trkpt>
      <trkpt lat="42.09426" lon="2.4694">
        <ele>571.8</ele>
        <time>2022-05-21 05:44:58</time>
      </trkpt>
      <trkpt lat="42.09421" lon="2.46928">
        <ele>571.2</ele>
        <time>2022-05-21 05:44:59</time>
      </trkpt>
      <trkpt lat="42.09415" lon="2.46916">
        <ele>570.8</ele>
        <time>2022-05-21 05:45:00</time>
      </trkpt>
      <trkpt lat="42.09407" lon="2.46906">
        <ele>570.4</ele>
        <time>2022-05-21 05:45:01</time>
      </trkpt>
      <trkpt lat="42.09399" lon="2.46896">
        <ele>569.8</ele>
        <time>2022-05-21 05:45:02</time>
      </trkpt>
      <trkpt lat="42.09391" lon="2.46887">
        <ele>569.4</ele>
        <time>2022-05-21 05:45:03</time>
      </trkpt>
      <trkpt lat="42.09383" lon="2.46879">
        <ele>569</ele>
        <time>2022-05-21 05:45:04</time>
      </trkpt>
      <trkpt lat="42.09375" lon="2.46871">
        <ele>568.6</ele>
        <time>2022-05-21 05:45:05</time>
      </trkpt>
      <trkpt lat="42.09369" lon="2.46862">
        <ele>568.2</ele>
        <time>2022-05-21 05:45:06</time>
      </trkpt>
      <trkpt lat="42.09365" lon="2.4685">
        <ele>567.8</ele>
        <time>2022-05-21 05:45:07</time>
      </trkpt>
      <trkpt lat="42.09364" lon="2.46837">
        <ele>567.4</ele>
        <time>2022-05-21 05:45:08</time>
      </trkpt>
      <trkpt lat="42.09365" lon="2.46824">
        <ele>567</ele>
        <time>2022-05-21 05:45:09</time>
      </trkpt>
      <trkpt lat="42.09367" lon="2.46811">
        <ele>566.6</ele>
        <time>2022-05-21 05:45:10</time>
      </trkpt>
      <trkpt lat="42.09369" lon="2.46798">
        <ele>566.2</ele>
        <time>2022-05-21 05:45:11</time>
      </trkpt>
      <trkpt lat="42.0937" lon="2.46784">
        <ele>565.8</ele>
        <time>2022-05-21 05:45:12</time>
      </trkpt>
      <trkpt lat="42.09372" lon="2.46771">
        <ele>565.2</ele>
        <time>2022-05-21 05:45:13</time>
      </trkpt>
      <trkpt lat="42.09372" lon="2.46757">
        <ele>564.8</ele>
        <time>2022-05-21 05:45:14</time>
      </trkpt>
      <trkpt lat="42.09371" lon="2.46742">
        <ele>564.2</ele>
        <time>2022-05-21 05:45:15</time>
      </trkpt>
      <trkpt lat="42.0937" lon="2.46728">
        <ele>563.6</ele>
        <time>2022-05-21 05:45:16</time>
      </trkpt>
      <trkpt lat="42.09369" lon="2.46713">
        <ele>562.8</ele>
        <time>2022-05-21 05:45:17</time>
      </trkpt>
      <trkpt lat="42.09368" lon="2.46698">
        <ele>562.2</ele>
        <time>2022-05-21 05:45:18</time>
      </trkpt>
      <trkpt lat="42.09369" lon="2.46683">
        <ele>561.4</ele>
        <time>2022-05-21 05:45:19</time>
      </trkpt>
      <trkpt lat="42.09371" lon="2.46669">
        <ele>560.8</ele>
        <time>2022-05-21 05:45:20</time>
      </trkpt>
      <trkpt lat="42.09374" lon="2.46655">
        <ele>560.2</ele>
        <time>2022-05-21 05:45:21</time>
      </trkpt>
      <trkpt lat="42.09378" lon="2.46644">
        <ele>559.4</ele>
        <time>2022-05-21 05:45:22</time>
      </trkpt>
      <trkpt lat="42.09385" lon="2.46634">
        <ele>558.8</ele>
        <time>2022-05-21 05:45:23</time>
      </trkpt>
      <trkpt lat="42.09392" lon="2.46627">
        <ele>558.2</ele>
        <time>2022-05-21 05:45:24</time>
      </trkpt>
      <trkpt lat="42.094" lon="2.46621">
        <ele>557.6</ele>
        <time>2022-05-21 05:45:25</time>
      </trkpt>
      <trkpt lat="42.09408" lon="2.46615">
        <ele>557</ele>
        <time>2022-05-21 05:45:26</time>
      </trkpt>
      <trkpt lat="42.09415" lon="2.46607">
        <ele>556.6</ele>
        <time>2022-05-21 05:45:27</time>
      </trkpt>
      <trkpt lat="42.09422" lon="2.46599">
        <ele>556</ele>
        <time>2022-05-21 05:45:28</time>
      </trkpt>
      <trkpt lat="42.09428" lon="2.4659">
        <ele>555.6</ele>
        <time>2022-05-21 05:45:29</time>
      </trkpt>
      <trkpt lat="42.0943" lon="2.4658">
        <ele>555.4</ele>
        <time>2022-05-21 05:45:30</time>
      </trkpt>
      <trkpt lat="42.09429" lon="2.46569">
        <ele>554.8</ele>
        <time>2022-05-21 05:45:31</time>
      </trkpt>
      <trkpt lat="42.09426" lon="2.46559">
        <ele>554.4</ele>
        <time>2022-05-21 05:45:32</time>
      </trkpt>
      <trkpt lat="42.09423" lon="2.46548">
        <ele>554</ele>
        <time>2022-05-21 05:45:33</time>
      </trkpt>
      <trkpt lat="42.0942" lon="2.46538">
        <ele>553.6</ele>
        <time>2022-05-21 05:45:34</time>
      </trkpt>
      <trkpt lat="42.09416" lon="2.46528">
        <ele>553.2</ele>
        <time>2022-05-21 05:45:35</time>
      </trkpt>
      <trkpt lat="42.09411" lon="2.46518">
        <ele>552.6</ele>
        <time>2022-05-21 05:45:36</time>
      </trkpt>
      <trkpt lat="42.09405" lon="2.46509">
        <ele>552.2</ele>
        <time>2022-05-21 05:45:37</time>
      </trkpt>
      <trkpt lat="42.09398" lon="2.46499">
        <ele>551.6</ele>
        <time>2022-05-21 05:45:38</time>
      </trkpt>
      <trkpt lat="42.0939" lon="2.4649">
        <ele>551</ele>
        <time>2022-05-21 05:45:39</time>
      </trkpt>
      <trkpt lat="42.09383" lon="2.46482">
        <ele>550.4</ele>
        <time>2022-05-21 05:45:40</time>
      </trkpt>
      <trkpt lat="42.09376" lon="2.46473">
        <ele>549.8</ele>
        <time>2022-05-21 05:45:41</time>
      </trkpt>
      <trkpt lat="42.09368" lon="2.46463">
        <ele>549</ele>
        <time>2022-05-21 05:45:42</time>
      </trkpt>
      <trkpt lat="42.0936" lon="2.46453">
        <ele>548.4</ele>
        <time>2022-05-21 05:45:43</time>
      </trkpt>
      <trkpt lat="42.09352" lon="2.46443">
        <ele>547.6</ele>
        <time>2022-05-21 05:45:44</time>
      </trkpt>
      <trkpt lat="42.09345" lon="2.46433">
        <ele>546.8</ele>
        <time>2022-05-21 05:45:45</time>
      </trkpt>
      <trkpt lat="42.09337" lon="2.46423">
        <ele>546</ele>
        <time>2022-05-21 05:45:46</time>
      </trkpt>
      <trkpt lat="42.09328" lon="2.46413">
        <ele>545.2</ele>
        <time>2022-05-21 05:45:47</time>
      </trkpt>
      <trkpt lat="42.09321" lon="2.46402">
        <ele>544.4</ele>
        <time>2022-05-21 05:45:48</time>
      </trkpt>
      <trkpt lat="42.09315" lon="2.46389">
        <ele>543.6</ele>
        <time>2022-05-21 05:45:49</time>
      </trkpt>
      <trkpt lat="42.09312" lon="2.46377">
        <ele>543</ele>
        <time>2022-05-21 05:45:50</time>
      </trkpt>
      <trkpt lat="42.09313" lon="2.46364">
        <ele>542.2</ele>
        <time>2022-05-21 05:45:51</time>
      </trkpt>
      <trkpt lat="42.09317" lon="2.46352">
        <ele>541.6</ele>
        <time>2022-05-21 05:45:52</time>
      </trkpt>
      <trkpt lat="42.09323" lon="2.46342">
        <ele>541</ele>
        <time>2022-05-21 05:45:53</time>
      </trkpt>
      <trkpt lat="42.09332" lon="2.46334">
        <ele>540.2</ele>
        <time>2022-05-21 05:45:54</time>
      </trkpt>
      <trkpt lat="42.09341" lon="2.46328">
        <ele>539.6</ele>
        <time>2022-05-21 05:45:55</time>
      </trkpt>
      <trkpt lat="42.09351" lon="2.46322">
        <ele>538.8</ele>
        <time>2022-05-21 05:45:56</time>
      </trkpt>
      <trkpt lat="42.09361" lon="2.46316">
        <ele>538</ele>
        <time>2022-05-21 05:45:57</time>
      </trkpt>
      <trkpt lat="42.09371" lon="2.4631">
        <ele>537</ele>
        <time>2022-05-21 05:45:58</time>
      </trkpt>
      <trkpt lat="42.09382" lon="2.46304">
        <ele>536.2</ele>
        <time>2022-05-21 05:45:59</time>
      </trkpt>
      <trkpt lat="42.09393" lon="2.463">
        <ele>535.4</ele>
        <time>2022-05-21 05:46:00</time>
      </trkpt>
      <trkpt lat="42.09404" lon="2.46297">
        <ele>534.6</ele>
        <time>2022-05-21 05:46:01</time>
      </trkpt>
      <trkpt lat="42.09416" lon="2.46295">
        <ele>533.8</ele>
        <time>2022-05-21 05:46:02</time>
      </trkpt>
      <trkpt lat="42.09427" lon="2.46294">
        <ele>533.2</ele>
        <time>2022-05-21 05:46:03</time>
      </trkpt>
      <trkpt lat="42.09439" lon="2.46293">
        <ele>532.4</ele>
        <time>2022-05-21 05:46:04</time>
      </trkpt>
      <trkpt lat="42.0945" lon="2.46293">
        <ele>531.8</ele>
        <time>2022-05-21 05:46:05</time>
      </trkpt>
      <trkpt lat="42.09462" lon="2.46293">
        <ele>531.2</ele>
        <time>2022-05-21 05:46:06</time>
      </trkpt>
      <trkpt lat="42.09473" lon="2.46294">
        <ele>530.4</ele>
        <time>2022-05-21 05:46:07</time>
      </trkpt>
      <trkpt lat="42.09484" lon="2.46293">
        <ele>529.8</ele>
        <time>2022-05-21 05:46:08</time>
      </trkpt>
      <trkpt lat="42.09496" lon="2.46294">
        <ele>529</ele>
        <time>2022-05-21 05:46:09</time>
      </trkpt>
      <trkpt lat="42.09509" lon="2.46295">
        <ele>528.4</ele>
        <time>2022-05-21 05:46:10</time>
      </trkpt>
      <trkpt lat="42.09521" lon="2.46298">
        <ele>527.6</ele>
        <time>2022-05-21 05:46:11</time>
      </trkpt>
      <trkpt lat="42.09534" lon="2.46301">
        <ele>527</ele>
        <time>2022-05-21 05:46:12</time>
      </trkpt>
      <trkpt lat="42.09547" lon="2.46304">
        <ele>526.2</ele>
        <time>2022-05-21 05:46:13</time>
      </trkpt>
      <trkpt lat="42.0956" lon="2.46302">
        <ele>525.8</ele>
        <time>2022-05-21 05:46:14</time>
      </trkpt>
      <trkpt lat="42.0957" lon="2.46297">
        <ele>525.2</ele>
        <time>2022-05-21 05:46:15</time>
      </trkpt>
      <trkpt lat="42.09577" lon="2.46289">
        <ele>524.8</ele>
        <time>2022-05-21 05:46:16</time>
      </trkpt>
      <trkpt lat="42.09581" lon="2.46277">
        <ele>524.6</ele>
        <time>2022-05-21 05:46:17</time>
      </trkpt>
      <trkpt lat="42.09583" lon="2.46264">
        <ele>524</ele>
        <time>2022-05-21 05:46:18</time>
      </trkpt>
      <trkpt lat="42.09584" lon="2.4625">
        <ele>523.6</ele>
        <time>2022-05-21 05:46:19</time>
      </trkpt>
      <trkpt lat="42.09588" lon="2.46237">
        <ele>523</ele>
        <time>2022-05-21 05:46:20</time>
      </trkpt>
      <trkpt lat="42.09593" lon="2.46227">
        <ele>522.4</ele>
        <time>2022-05-21 05:46:21</time>
      </trkpt>
      <trkpt lat="42.09598" lon="2.46217">
        <ele>522</ele>
        <time>2022-05-21 05:46:22</time>
      </trkpt>
      <trkpt lat="42.09602" lon="2.46207">
        <ele>521.4</ele>
        <time>2022-05-21 05:46:23</time>
      </trkpt>
      <trkpt lat="42.09603" lon="2.46195">
        <ele>521</ele>
        <time>2022-05-21 05:46:24</time>
      </trkpt>
      <trkpt lat="42.096" lon="2.46183">
        <ele>520.6</ele>
        <time>2022-05-21 05:46:25</time>
      </trkpt>
      <trkpt lat="42.09596" lon="2.46173">
        <ele>520.2</ele>
        <time>2022-05-21 05:46:26</time>
      </trkpt>
      <trkpt lat="42.09591" lon="2.46163">
        <ele>520</ele>
        <time>2022-05-21 05:46:27</time>
      </trkpt>
      <trkpt lat="42.09585" lon="2.46154">
        <ele>519.4</ele>
        <time>2022-05-21 05:46:28</time>
      </trkpt>
      <trkpt lat="42.09579" lon="2.46144">
        <ele>519</ele>
        <time>2022-05-21 05:46:29</time>
      </trkpt>
      <trkpt lat="42.09573" lon="2.46135">
        <ele>518.4</ele>
        <time>2022-05-21 05:46:30</time>
      </trkpt>
      <trkpt lat="42.09568" lon="2.46125">
        <ele>518</ele>
        <time>2022-05-21 05:46:31</time>
      </trkpt>
      <trkpt lat="42.09565" lon="2.46114">
        <ele>517.6</ele>
        <time>2022-05-21 05:46:32</time>
      </trkpt>
      <trkpt lat="42.09565" lon="2.46102">
        <ele>517</ele>
        <time>2022-05-21 05:46:33</time>
      </trkpt>
      <trkpt lat="42.09568" lon="2.46091">
        <ele>516.6</ele>
        <time>2022-05-21 05:46:34</time>
      </trkpt>
      <trkpt lat="42.09573" lon="2.46081">
        <ele>516</ele>
        <time>2022-05-21 05:46:35</time>
      </trkpt>
      <trkpt lat="42.09579" lon="2.46072">
        <ele>515.6</ele>
        <time>2022-05-21 05:46:36</time>
      </trkpt>
      <trkpt lat="42.09587" lon="2.46063">
        <ele>515</ele>
        <time>2022-05-21 05:46:37</time>
      </trkpt>
      <trkpt lat="42.09594" lon="2.46054">
        <ele>514.6</ele>
        <time>2022-05-21 05:46:38</time>
      </trkpt>
      <trkpt lat="42.09602" lon="2.46046">
        <ele>513.8</ele>
        <time>2022-05-21 05:46:39</time>
      </trkpt>
      <trkpt lat="42.09611" lon="2.46039">
        <ele>513.2</ele>
        <time>2022-05-21 05:46:40</time>
      </trkpt>
      <trkpt lat="42.0962" lon="2.46034">
        <ele>512.6</ele>
        <time>2022-05-21 05:46:41</time>
      </trkpt>
      <trkpt lat="42.09631" lon="2.46029">
        <ele>512</ele>
        <time>2022-05-21 05:46:42</time>
      </trkpt>
      <trkpt lat="42.09642" lon="2.46027">
        <ele>511.4</ele>
        <time>2022-05-21 05:46:43</time>
      </trkpt>
      <trkpt lat="42.09653" lon="2.46025">
        <ele>510.8</ele>
        <time>2022-05-21 05:46:44</time>
      </trkpt>
      <trkpt lat="42.09664" lon="2.46024">
        <ele>510.2</ele>
        <time>2022-05-21 05:46:45</time>
      </trkpt>
      <trkpt lat="42.09675" lon="2.46023">
        <ele>509.6</ele>
        <time>2022-05-21 05:46:46</time>
      </trkpt>
      <trkpt lat="42.09686" lon="2.4602">
        <ele>509.2</ele>
        <time>2022-05-21 05:46:47</time>
      </trkpt>
      <trkpt lat="42.09697" lon="2.46017">
        <ele>508.4</ele>
        <time>2022-05-21 05:46:48</time>
      </trkpt>
      <trkpt lat="42.09707" lon="2.46013">
        <ele>507.8</ele>
        <time>2022-05-21 05:46:49</time>
      </trkpt>
      <trkpt lat="42.09718" lon="2.46008">
        <ele>507.2</ele>
        <time>2022-05-21 05:46:50</time>
      </trkpt>
      <trkpt lat="42.09729" lon="2.46003">
        <ele>506.4</ele>
        <time>2022-05-21 05:46:51</time>
      </trkpt>
      <trkpt lat="42.0974" lon="2.46">
        <ele>505.6</ele>
        <time>2022-05-21 05:46:52</time>
      </trkpt>
      <trkpt lat="42.0975" lon="2.45995">
        <ele>505</ele>
        <time>2022-05-21 05:46:53</time>
      </trkpt>
      <trkpt lat="42.09758" lon="2.45988">
        <ele>504.4</ele>
        <time>2022-05-21 05:46:54</time>
      </trkpt>
      <trkpt lat="42.09767" lon="2.45981">
        <ele>503.8</ele>
        <time>2022-05-21 05:46:55</time>
      </trkpt>
      <trkpt lat="42.09774" lon="2.4597">
        <ele>503.2</ele>
        <time>2022-05-21 05:46:56</time>
      </trkpt>
      <trkpt lat="42.09779" lon="2.45958">
        <ele>502.6</ele>
        <time>2022-05-21 05:46:57</time>
      </trkpt>
      <trkpt lat="42.09781" lon="2.45945">
        <ele>502</ele>
        <time>2022-05-21 05:46:58</time>
      </trkpt>
      <trkpt lat="42.09778" lon="2.45931">
        <ele>501.4</ele>
        <time>2022-05-21 05:46:59</time>
      </trkpt>
      <trkpt lat="42.09775" lon="2.45917">
        <ele>500.8</ele>
        <time>2022-05-21 05:47:00</time>
      </trkpt>
      <trkpt lat="42.09772" lon="2.45904">
        <ele>500.4</ele>
        <time>2022-05-21 05:47:01</time>
      </trkpt>
      <trkpt lat="42.09772" lon="2.45892">
        <ele>499.8</ele>
        <time>2022-05-21 05:47:02</time>
      </trkpt>
      <trkpt lat="42.09774" lon="2.45881">
        <ele>499</ele>
        <time>2022-05-21 05:47:03</time>
      </trkpt>
      <trkpt lat="42.09781" lon="2.45874">
        <ele>498.2</ele>
        <time>2022-05-21 05:47:04</time>
      </trkpt>
      <trkpt lat="42.0979" lon="2.4587">
        <ele>497.6</ele>
        <time>2022-05-21 05:47:05</time>
      </trkpt>
      <trkpt lat="42.09798" lon="2.4587">
        <ele>497</ele>
        <time>2022-05-21 05:47:06</time>
      </trkpt>
      <trkpt lat="42.09807" lon="2.45874">
        <ele>496.2</ele>
        <time>2022-05-21 05:47:07</time>
      </trkpt>
      <trkpt lat="42.09816" lon="2.4588">
        <ele>495.6</ele>
        <time>2022-05-21 05:47:08</time>
      </trkpt>
      <trkpt lat="42.09826" lon="2.45885">
        <ele>494.8</ele>
        <time>2022-05-21 05:47:09</time>
      </trkpt>
      <trkpt lat="42.09836" lon="2.45891">
        <ele>494.2</ele>
        <time>2022-05-21 05:47:10</time>
      </trkpt>
      <trkpt lat="42.09846" lon="2.45896">
        <ele>493.4</ele>
        <time>2022-05-21 05:47:11</time>
      </trkpt>
      <trkpt lat="42.09857" lon="2.45902">
        <ele>492.8</ele>
        <time>2022-05-21 05:47:12</time>
      </trkpt>
      <trkpt lat="42.09867" lon="2.45909">
        <ele>492.2</ele>
        <time>2022-05-21 05:47:13</time>
      </trkpt>
      <trkpt lat="42.09877" lon="2.45915">
        <ele>491.4</ele>
        <time>2022-05-21 05:47:14</time>
      </trkpt>
      <trkpt lat="42.09887" lon="2.45921">
        <ele>490.6</ele>
        <time>2022-05-21 05:47:15</time>
      </trkpt>
      <trkpt lat="42.09897" lon="2.45928">
        <ele>490</ele>
        <time>2022-05-21 05:47:16</time>
      </trkpt>
      <trkpt lat="42.09907" lon="2.45935">
        <ele>489.4</ele>
        <time>2022-05-21 05:47:17</time>
      </trkpt>
      <trkpt lat="42.09916" lon="2.45942">
        <ele>488.8</ele>
        <time>2022-05-21 05:47:18</time>
      </trkpt>
      <trkpt lat="42.09925" lon="2.4595">
        <ele>488.2</ele>
        <time>2022-05-21 05:47:19</time>
      </trkpt>
      <trkpt lat="42.09935" lon="2.45957">
        <ele>487.6</ele>
        <time>2022-05-21 05:47:20</time>
      </trkpt>
      <trkpt lat="42.09945" lon="2.45963">
        <ele>487</ele>
        <time>2022-05-21 05:47:21</time>
      </trkpt>
      <trkpt lat="42.09955" lon="2.45966">
        <ele>486.4</ele>
        <time>2022-05-21 05:47:22</time>
      </trkpt>
      <trkpt lat="42.09966" lon="2.45967">
        <ele>485.8</ele>
        <time>2022-05-21 05:47:23</time>
      </trkpt>
      <trkpt lat="42.09978" lon="2.45968">
        <ele>485.2</ele>
        <time>2022-05-21 05:47:24</time>
      </trkpt>
      <trkpt lat="42.09988" lon="2.45963">
        <ele>484.8</ele>
        <time>2022-05-21 05:47:25</time>
      </trkpt>
      <trkpt lat="42.09997" lon="2.45954">
        <ele>484.2</ele>
        <time>2022-05-21 05:47:26</time>
      </trkpt>
      <trkpt lat="42.10006" lon="2.45946">
        <ele>484</ele>
        <time>2022-05-21 05:47:27</time>
      </trkpt>
      <trkpt lat="42.10014" lon="2.45938">
        <ele>483.6</ele>
        <time>2022-05-21 05:47:28</time>
      </trkpt>
      <trkpt lat="42.10022" lon="2.45929">
        <ele>483.6</ele>
        <time>2022-05-21 05:47:29</time>
      </trkpt>
      <trkpt lat="42.10029" lon="2.4592">
        <ele>483.4</ele>
        <time>2022-05-21 05:47:30</time>
      </trkpt>
      <trkpt lat="42.10037" lon="2.45912">
        <ele>483.4</ele>
        <time>2022-05-21 05:47:31</time>
      </trkpt>
      <trkpt lat="42.10045" lon="2.45905">
        <ele>483.2</ele>
        <time>2022-05-21 05:47:32</time>
      </trkpt>
      <trkpt lat="42.10052" lon="2.45898">
        <ele>483.2</ele>
        <time>2022-05-21 05:47:33</time>
      </trkpt>
      <trkpt lat="42.1006" lon="2.45891">
        <ele>483.2</ele>
        <time>2022-05-21 05:47:34</time>
      </trkpt>
      <trkpt lat="42.10068" lon="2.45884">
        <ele>483.2</ele>
        <time>2022-05-21 05:47:35</time>
      </trkpt>
      <trkpt lat="42.10075" lon="2.45877">
        <ele>483.2</ele>
        <time>2022-05-21 05:47:36</time>
      </trkpt>
      <trkpt lat="42.10081" lon="2.45871">
        <ele>483.2</ele>
        <time>2022-05-21 05:47:37</time>
      </trkpt>
      <trkpt lat="42.10087" lon="2.45864">
        <ele>483.2</ele>
        <time>2022-05-21 05:47:38</time>
      </trkpt>
      <trkpt lat="42.10093" lon="2.45857">
        <ele>483.2</ele>
        <time>2022-05-21 05:47:39</time>
      </trkpt>
      <trkpt lat="42.10099" lon="2.45851">
        <ele>483.2</ele>
        <time>2022-05-21 05:47:40</time>
      </trkpt>
      <trkpt lat="42.10106" lon="2.45845">
        <ele>483.2</ele>
        <time>2022-05-21 05:47:41</time>
      </trkpt>
      <trkpt lat="42.10112" lon="2.45839">
        <ele>483.2</ele>
        <time>2022-05-21 05:47:42</time>
      </trkpt>
      <trkpt lat="42.10117" lon="2.45833">
        <ele>483.2</ele>
        <time>2022-05-21 05:47:43</time>
      </trkpt>
      <trkpt lat="42.10123" lon="2.45827">
        <ele>483.2</ele>
        <time>2022-05-21 05:47:44</time>
      </trkpt>
      <trkpt lat="42.1013" lon="2.45821">
        <ele>483.2</ele>
        <time>2022-05-21 05:47:45</time>
      </trkpt>
      <trkpt lat="42.10135" lon="2.45816">
        <ele>483</ele>
        <time>2022-05-21 05:47:46</time>
      </trkpt>
      <trkpt lat="42.10141" lon="2.4581">
        <ele>483</ele>
        <time>2022-05-21 05:47:47</time>
      </trkpt>
      <trkpt lat="42.10146" lon="2.45805">
        <ele>483</ele>
        <time>2022-05-21 05:47:48</time>
      </trkpt>
      <trkpt lat="42.10152" lon="2.45799">
        <ele>483</ele>
        <time>2022-05-21 05:47:49</time>
      </trkpt>
      <trkpt lat="42.10157" lon="2.45793">
        <ele>483</ele>
        <time>2022-05-21 05:47:50</time>
      </trkpt>
      <trkpt lat="42.10163" lon="2.45787">
        <ele>482.8</ele>
        <time>2022-05-21 05:47:51</time>
      </trkpt>
      <trkpt lat="42.10168" lon="2.45782">
        <ele>482.8</ele>
        <time>2022-05-21 05:47:52</time>
      </trkpt>
      <trkpt lat="42.10174" lon="2.45777">
        <ele>482.8</ele>
        <time>2022-05-21 05:47:53</time>
      </trkpt>
      <trkpt lat="42.1018" lon="2.45772">
        <ele>482.8</ele>
        <time>2022-05-21 05:47:54</time>
      </trkpt>
      <trkpt lat="42.10186" lon="2.45768">
        <ele>482.6</ele>
        <time>2022-05-21 05:47:55</time>
      </trkpt>
      <trkpt lat="42.10193" lon="2.45765">
        <ele>482.4</ele>
        <time>2022-05-21 05:47:56</time>
      </trkpt>
      <trkpt lat="42.10199" lon="2.45762">
        <ele>482.4</ele>
        <time>2022-05-21 05:47:57</time>
      </trkpt>
      <trkpt lat="42.10206" lon="2.45759">
        <ele>482.4</ele>
        <time>2022-05-21 05:47:58</time>
      </trkpt>
      <trkpt lat="42.10213" lon="2.45757">
        <ele>482.2</ele>
        <time>2022-05-21 05:47:59</time>
      </trkpt>
      <trkpt lat="42.10219" lon="2.45754">
        <ele>482.2</ele>
        <time>2022-05-21 05:48:00</time>
      </trkpt>
      <trkpt lat="42.10226" lon="2.45752">
        <ele>482.2</ele>
        <time>2022-05-21 05:48:01</time>
      </trkpt>
      <trkpt lat="42.10233" lon="2.45749">
        <ele>482</ele>
        <time>2022-05-21 05:48:02</time>
      </trkpt>
      <trkpt lat="42.10239" lon="2.45747">
        <ele>482</ele>
        <time>2022-05-21 05:48:03</time>
      </trkpt>
      <trkpt lat="42.10245" lon="2.45745">
        <ele>482</ele>
        <time>2022-05-21 05:48:04</time>
      </trkpt>
      <trkpt lat="42.10252" lon="2.45743">
        <ele>482</ele>
        <time>2022-05-21 05:48:05</time>
      </trkpt>
      <trkpt lat="42.10258" lon="2.4574">
        <ele>482</ele>
        <time>2022-05-21 05:48:06</time>
      </trkpt>
      <trkpt lat="42.10265" lon="2.45738">
        <ele>482</ele>
        <time>2022-05-21 05:48:07</time>
      </trkpt>
      <trkpt lat="42.10271" lon="2.45736">
        <ele>481.8</ele>
        <time>2022-05-21 05:48:08</time>
      </trkpt>
      <trkpt lat="42.10278" lon="2.45734">
        <ele>481.8</ele>
        <time>2022-05-21 05:48:09</time>
      </trkpt>
      <trkpt lat="42.10284" lon="2.45732">
        <ele>481.8</ele>
        <time>2022-05-21 05:48:10</time>
      </trkpt>
      <trkpt lat="42.10291" lon="2.45729">
        <ele>481.8</ele>
        <time>2022-05-21 05:48:11</time>
      </trkpt>
      <trkpt lat="42.10297" lon="2.45727">
        <ele>481.8</ele>
        <time>2022-05-21 05:48:12</time>
      </trkpt>
      <trkpt lat="42.10303" lon="2.45725">
        <ele>481.8</ele>
        <time>2022-05-21 05:48:13</time>
      </trkpt>
      <trkpt lat="42.1031" lon="2.45723">
        <ele>481.6</ele>
        <time>2022-05-21 05:48:14</time>
      </trkpt>
      <trkpt lat="42.10316" lon="2.4572">
        <ele>481.6</ele>
        <time>2022-05-21 05:48:15</time>
      </trkpt>
      <trkpt lat="42.10323" lon="2.45718">
        <ele>481.4</ele>
        <time>2022-05-21 05:48:16</time>
      </trkpt>
      <trkpt lat="42.1033" lon="2.45716">
        <ele>481.4</ele>
        <time>2022-05-21 05:48:17</time>
      </trkpt>
      <trkpt lat="42.10336" lon="2.45714">
        <ele>481.4</ele>
        <time>2022-05-21 05:48:18</time>
      </trkpt>
      <trkpt lat="42.10342" lon="2.45711">
        <ele>481.2</ele>
        <time>2022-05-21 05:48:19</time>
      </trkpt>
      <trkpt lat="42.10349" lon="2.45709">
        <ele>481.2</ele>
        <time>2022-05-21 05:48:20</time>
      </trkpt>
      <trkpt lat="42.10356" lon="2.45707">
        <ele>481.2</ele>
        <time>2022-05-21 05:48:21</time>
      </trkpt>
      <trkpt lat="42.10362" lon="2.45704">
        <ele>481</ele>
        <time>2022-05-21 05:48:22</time>
      </trkpt>
      <trkpt lat="42.10369" lon="2.45702">
        <ele>481</ele>
        <time>2022-05-21 05:48:23</time>
      </trkpt>
      <trkpt lat="42.10375" lon="2.45699">
        <ele>481</ele>
        <time>2022-05-21 05:48:24</time>
      </trkpt>
      <trkpt lat="42.10382" lon="2.45697">
        <ele>480.8</ele>
        <time>2022-05-21 05:48:25</time>
      </trkpt>
      <trkpt lat="42.10388" lon="2.45695">
        <ele>480.8</ele>
        <time>2022-05-21 05:48:26</time>
      </trkpt>
      <trkpt lat="42.10395" lon="2.45693">
        <ele>480.6</ele>
        <time>2022-05-21 05:48:27</time>
      </trkpt>
      <trkpt lat="42.10401" lon="2.45691">
        <ele>480.6</ele>
        <time>2022-05-21 05:48:28</time>
      </trkpt>
      <trkpt lat="42.10407" lon="2.45688">
        <ele>480.6</ele>
        <time>2022-05-21 05:48:29</time>
      </trkpt>
      <trkpt lat="42.10414" lon="2.45685">
        <ele>480.4</ele>
        <time>2022-05-21 05:48:30</time>
      </trkpt>
      <trkpt lat="42.10421" lon="2.45683">
        <ele>480.4</ele>
        <time>2022-05-21 05:48:31</time>
      </trkpt>
      <trkpt lat="42.10427" lon="2.4568">
        <ele>480.2</ele>
        <time>2022-05-21 05:48:32</time>
      </trkpt>
      <trkpt lat="42.10434" lon="2.45678">
        <ele>480.2</ele>
        <time>2022-05-21 05:48:33</time>
      </trkpt>
      <trkpt lat="42.1044" lon="2.45676">
        <ele>480.2</ele>
        <time>2022-05-21 05:48:34</time>
      </trkpt>
      <trkpt lat="42.10447" lon="2.45674">
        <ele>480.2</ele>
        <time>2022-05-21 05:48:35</time>
      </trkpt>
      <trkpt lat="42.10454" lon="2.45671">
        <ele>480</ele>
        <time>2022-05-21 05:48:36</time>
      </trkpt>
      <trkpt lat="42.1046" lon="2.45669">
        <ele>480</ele>
        <time>2022-05-21 05:48:37</time>
      </trkpt>
      <trkpt lat="42.10467" lon="2.45666">
        <ele>480</ele>
        <time>2022-05-21 05:48:38</time>
      </trkpt>
      <trkpt lat="42.10473" lon="2.45663">
        <ele>479.8</ele>
        <time>2022-05-21 05:48:39</time>
      </trkpt>
      <trkpt lat="42.1048" lon="2.45661">
        <ele>479.8</ele>
        <time>2022-05-21 05:48:40</time>
      </trkpt>
      <trkpt lat="42.10487" lon="2.45659">
        <ele>479.8</ele>
        <time>2022-05-21 05:48:41</time>
      </trkpt>
      <trkpt lat="42.10493" lon="2.45657">
        <ele>479.6</ele>
        <time>2022-05-21 05:48:42</time>
      </trkpt>
      <trkpt lat="42.105" lon="2.45655">
        <ele>479.6</ele>
        <time>2022-05-21 05:48:43</time>
      </trkpt>
      <trkpt lat="42.10506" lon="2.45653">
        <ele>479.6</ele>
        <time>2022-05-21 05:48:44</time>
      </trkpt>
      <trkpt lat="42.10513" lon="2.4565">
        <ele>479.6</ele>
        <time>2022-05-21 05:48:45</time>
      </trkpt>
      <trkpt lat="42.1052" lon="2.45648">
        <ele>479.4</ele>
        <time>2022-05-21 05:48:46</time>
      </trkpt>
      <trkpt lat="42.10526" lon="2.45645">
        <ele>479.4</ele>
        <time>2022-05-21 05:48:47</time>
      </trkpt>
      <trkpt lat="42.10533" lon="2.45642">
        <ele>479.4</ele>
        <time>2022-05-21 05:48:48</time>
      </trkpt>
      <trkpt lat="42.1054" lon="2.4564">
        <ele>479.2</ele>
        <time>2022-05-21 05:48:49</time>
      </trkpt>
      <trkpt lat="42.10546" lon="2.45638">
        <ele>479.2</ele>
        <time>2022-05-21 05:48:50</time>
      </trkpt>
      <trkpt lat="42.10553" lon="2.45636">
        <ele>479.2</ele>
        <time>2022-05-21 05:48:51</time>
      </trkpt>
      <trkpt lat="42.10559" lon="2.45633">
        <ele>479.2</ele>
        <time>2022-05-21 05:48:52</time>
      </trkpt>
      <trkpt lat="42.10566" lon="2.4563">
        <ele>479</ele>
        <time>2022-05-21 05:48:53</time>
      </trkpt>
      <trkpt lat="42.10572" lon="2.45628">
        <ele>479</ele>
        <time>2022-05-21 05:48:54</time>
      </trkpt>
      <trkpt lat="42.10579" lon="2.45626">
        <ele>479</ele>
        <time>2022-05-21 05:48:55</time>
      </trkpt>
      <trkpt lat="42.10585" lon="2.45623">
        <ele>479</ele>
        <time>2022-05-21 05:48:56</time>
      </trkpt>
      <trkpt lat="42.10592" lon="2.45621">
        <ele>479</ele>
        <time>2022-05-21 05:48:57</time>
      </trkpt>
      <trkpt lat="42.10598" lon="2.45619">
        <ele>479</ele>
        <time>2022-05-21 05:48:58</time>
      </trkpt>
      <trkpt lat="42.10605" lon="2.45616">
        <ele>479</ele>
        <time>2022-05-21 05:48:59</time>
      </trkpt>
      <trkpt lat="42.10611" lon="2.45614">
        <ele>478.8</ele>
        <time>2022-05-21 05:49:00</time>
      </trkpt>
      <trkpt lat="42.10617" lon="2.45611">
        <ele>478.8</ele>
        <time>2022-05-21 05:49:01</time>
      </trkpt>
      <trkpt lat="42.10624" lon="2.45609">
        <ele>478.8</ele>
        <time>2022-05-21 05:49:02</time>
      </trkpt>
      <trkpt lat="42.10631" lon="2.45607">
        <ele>478.8</ele>
        <time>2022-05-21 05:49:03</time>
      </trkpt>
      <trkpt lat="42.10637" lon="2.45605">
        <ele>478.8</ele>
        <time>2022-05-21 05:49:04</time>
      </trkpt>
      <trkpt lat="42.10643" lon="2.45603">
        <ele>478.8</ele>
        <time>2022-05-21 05:49:05</time>
      </trkpt>
      <trkpt lat="42.1065" lon="2.456">
        <ele>478.8</ele>
        <time>2022-05-21 05:49:06</time>
      </trkpt>
      <trkpt lat="42.10657" lon="2.45598">
        <ele>478.6</ele>
        <time>2022-05-21 05:49:07</time>
      </trkpt>
      <trkpt lat="42.10663" lon="2.45595">
        <ele>478.6</ele>
        <time>2022-05-21 05:49:08</time>
      </trkpt>
      <trkpt lat="42.1067" lon="2.45593">
        <ele>478.4</ele>
        <time>2022-05-21 05:49:09</time>
      </trkpt>
      <trkpt lat="42.10677" lon="2.4559">
        <ele>478.2</ele>
        <time>2022-05-21 05:49:10</time>
      </trkpt>
      <trkpt lat="42.10683" lon="2.45588">
        <ele>478.2</ele>
        <time>2022-05-21 05:49:11</time>
      </trkpt>
      <trkpt lat="42.10691" lon="2.45586">
        <ele>478.2</ele>
        <time>2022-05-21 05:49:12</time>
      </trkpt>
      <trkpt lat="42.10698" lon="2.45583">
        <ele>478</ele>
        <time>2022-05-21 05:49:13</time>
      </trkpt>
      <trkpt lat="42.10705" lon="2.45581">
        <ele>477.8</ele>
        <time>2022-05-21 05:49:14</time>
      </trkpt>
      <trkpt lat="42.10712" lon="2.45579">
        <ele>477.8</ele>
        <time>2022-05-21 05:49:15</time>
      </trkpt>
      <trkpt lat="42.10719" lon="2.45576">
        <ele>477.8</ele>
        <time>2022-05-21 05:49:16</time>
      </trkpt>
      <trkpt lat="42.10727" lon="2.45573">
        <ele>477.6</ele>
        <time>2022-05-21 05:49:17</time>
      </trkpt>
      <trkpt lat="42.10734" lon="2.45571">
        <ele>477.6</ele>
        <time>2022-05-21 05:49:18</time>
      </trkpt>
      <trkpt lat="42.10742" lon="2.45568">
        <ele>477.4</ele>
        <time>2022-05-21 05:49:19</time>
      </trkpt>
      <trkpt lat="42.10749" lon="2.45565">
        <ele>477.4</ele>
        <time>2022-05-21 05:49:20</time>
      </trkpt>
      <trkpt lat="42.10757" lon="2.45562">
        <ele>477.4</ele>
        <time>2022-05-21 05:49:21</time>
      </trkpt>
      <trkpt lat="42.10765" lon="2.45558">
        <ele>477.2</ele>
        <time>2022-05-21 05:49:22</time>
      </trkpt>
      <trkpt lat="42.10772" lon="2.45555">
        <ele>477.2</ele>
        <time>2022-05-21 05:49:23</time>
      </trkpt>
      <trkpt lat="42.1078" lon="2.45552">
        <ele>477</ele>
        <time>2022-05-21 05:49:24</time>
      </trkpt>
      <trkpt lat="42.10788" lon="2.4555">
        <ele>477</ele>
        <time>2022-05-21 05:49:25</time>
      </trkpt>
      <trkpt lat="42.10796" lon="2.45547">
        <ele>477</ele>
        <time>2022-05-21 05:49:26</time>
      </trkpt>
      <trkpt lat="42.10804" lon="2.45544">
        <ele>476.8</ele>
        <time>2022-05-21 05:49:27</time>
      </trkpt>
      <trkpt lat="42.10811" lon="2.45542">
        <ele>476.8</ele>
        <time>2022-05-21 05:49:28</time>
      </trkpt>
      <trkpt lat="42.10819" lon="2.45539">
        <ele>476.6</ele>
        <time>2022-05-21 05:49:29</time>
      </trkpt>
      <trkpt lat="42.10826" lon="2.45536">
        <ele>476.6</ele>
        <time>2022-05-21 05:49:30</time>
      </trkpt>
      <trkpt lat="42.10834" lon="2.45534">
        <ele>476.4</ele>
        <time>2022-05-21 05:49:31</time>
      </trkpt>
      <trkpt lat="42.10842" lon="2.45531">
        <ele>476.4</ele>
        <time>2022-05-21 05:49:32</time>
      </trkpt>
      <trkpt lat="42.10849" lon="2.45528">
        <ele>476.2</ele>
        <time>2022-05-21 05:49:33</time>
      </trkpt>
      <trkpt lat="42.10857" lon="2.45525">
        <ele>476.2</ele>
        <time>2022-05-21 05:49:34</time>
      </trkpt>
      <trkpt lat="42.10865" lon="2.45522">
        <ele>476.2</ele>
        <time>2022-05-21 05:49:35</time>
      </trkpt>
      <trkpt lat="42.10872" lon="2.45519">
        <ele>476</ele>
        <time>2022-05-21 05:49:36</time>
      </trkpt>
      <trkpt lat="42.1088" lon="2.45516">
        <ele>476</ele>
        <time>2022-05-21 05:49:37</time>
      </trkpt>
      <trkpt lat="42.10888" lon="2.45514">
        <ele>475.8</ele>
        <time>2022-05-21 05:49:38</time>
      </trkpt>
      <trkpt lat="42.10895" lon="2.45511">
        <ele>475.8</ele>
        <time>2022-05-21 05:49:39</time>
      </trkpt>
      <trkpt lat="42.10903" lon="2.45508">
        <ele>475.8</ele>
        <time>2022-05-21 05:49:40</time>
      </trkpt>
      <trkpt lat="42.1091" lon="2.45505">
        <ele>475.6</ele>
        <time>2022-05-21 05:49:41</time>
      </trkpt>
      <trkpt lat="42.10918" lon="2.45502">
        <ele>475.6</ele>
        <time>2022-05-21 05:49:42</time>
      </trkpt>
      <trkpt lat="42.10925" lon="2.45499">
        <ele>475.4</ele>
        <time>2022-05-21 05:49:43</time>
      </trkpt>
      <trkpt lat="42.10933" lon="2.45497">
        <ele>475.4</ele>
        <time>2022-05-21 05:49:44</time>
      </trkpt>
      <trkpt lat="42.10941" lon="2.45494">
        <ele>475.2</ele>
        <time>2022-05-21 05:49:45</time>
      </trkpt>
      <trkpt lat="42.10948" lon="2.45492">
        <ele>475.2</ele>
        <time>2022-05-21 05:49:46</time>
      </trkpt>
      <trkpt lat="42.10955" lon="2.45489">
        <ele>475.2</ele>
        <time>2022-05-21 05:49:47</time>
      </trkpt>
      <trkpt lat="42.10963" lon="2.45486">
        <ele>475</ele>
        <time>2022-05-21 05:49:48</time>
      </trkpt>
      <trkpt lat="42.1097" lon="2.45484">
        <ele>475</ele>
        <time>2022-05-21 05:49:49</time>
      </trkpt>
      <trkpt lat="42.10978" lon="2.45481">
        <ele>475</ele>
        <time>2022-05-21 05:49:50</time>
      </trkpt>
      <trkpt lat="42.10986" lon="2.45478">
        <ele>474.8</ele>
        <time>2022-05-21 05:49:51</time>
      </trkpt>
      <trkpt lat="42.10993" lon="2.45476">
        <ele>474.8</ele>
        <time>2022-05-21 05:49:52</time>
      </trkpt>
      <trkpt lat="42.11" lon="2.45474">
        <ele>474.8</ele>
        <time>2022-05-21 05:49:53</time>
      </trkpt>
      <trkpt lat="42.11008" lon="2.45471">
        <ele>474.8</ele>
        <time>2022-05-21 05:49:54</time>
      </trkpt>
      <trkpt lat="42.11015" lon="2.45468">
        <ele>474.8</ele>
        <time>2022-05-21 05:49:55</time>
      </trkpt>
      <trkpt lat="42.11023" lon="2.45466">
        <ele>474.6</ele>
        <time>2022-05-21 05:49:56</time>
      </trkpt>
      <trkpt lat="42.11029" lon="2.45463">
        <ele>474.6</ele>
        <time>2022-05-21 05:49:57</time>
      </trkpt>
      <trkpt lat="42.11037" lon="2.45461">
        <ele>474.6</ele>
        <time>2022-05-21 05:49:58</time>
      </trkpt>
      <trkpt lat="42.11044" lon="2.45458">
        <ele>474.6</ele>
        <time>2022-05-21 05:49:59</time>
      </trkpt>
      <trkpt lat="42.11052" lon="2.45455">
        <ele>474.6</ele>
        <time>2022-05-21 05:50:00</time>
      </trkpt>
      <trkpt lat="42.11059" lon="2.45453">
        <ele>474.6</ele>
        <time>2022-05-21 05:50:01</time>
      </trkpt>
      <trkpt lat="42.11066" lon="2.4545">
        <ele>474.6</ele>
        <time>2022-05-21 05:50:02</time>
      </trkpt>
      <trkpt lat="42.11073" lon="2.45447">
        <ele>474.4</ele>
        <time>2022-05-21 05:50:03</time>
      </trkpt>
      <trkpt lat="42.11081" lon="2.45445">
        <ele>474.4</ele>
        <time>2022-05-21 05:50:04</time>
      </trkpt>
      <trkpt lat="42.11089" lon="2.45442">
        <ele>474.4</ele>
        <time>2022-05-21 05:50:05</time>
      </trkpt>
      <trkpt lat="42.11095" lon="2.45439">
        <ele>474.4</ele>
        <time>2022-05-21 05:50:06</time>
      </trkpt>
      <trkpt lat="42.11103" lon="2.45436">
        <ele>474.4</ele>
        <time>2022-05-21 05:50:07</time>
      </trkpt>
      <trkpt lat="42.1111" lon="2.45433">
        <ele>474.4</ele>
        <time>2022-05-21 05:50:08</time>
      </trkpt>
      <trkpt lat="42.11117" lon="2.4543">
        <ele>474.4</ele>
        <time>2022-05-21 05:50:09</time>
      </trkpt>
      <trkpt lat="42.11124" lon="2.45427">
        <ele>474.4</ele>
        <time>2022-05-21 05:50:10</time>
      </trkpt>
      <trkpt lat="42.11131" lon="2.45425">
        <ele>474.4</ele>
        <time>2022-05-21 05:50:11</time>
      </trkpt>
      <trkpt lat="42.11139" lon="2.45422">
        <ele>474.4</ele>
        <time>2022-05-21 05:50:12</time>
      </trkpt>
      <trkpt lat="42.11146" lon="2.4542">
        <ele>474.2</ele>
        <time>2022-05-21 05:50:13</time>
      </trkpt>
      <trkpt lat="42.11153" lon="2.45417">
        <ele>474.2</ele>
        <time>2022-05-21 05:50:14</time>
      </trkpt>
      <trkpt lat="42.1116" lon="2.45414">
        <ele>474.2</ele>
        <time>2022-05-21 05:50:15</time>
      </trkpt>
      <trkpt lat="42.11167" lon="2.45411">
        <ele>474.2</ele>
        <time>2022-05-21 05:50:16</time>
      </trkpt>
      <trkpt lat="42.11174" lon="2.45408">
        <ele>474.2</ele>
        <time>2022-05-21 05:50:17</time>
      </trkpt>
      <trkpt lat="42.11182" lon="2.45406">
        <ele>474.2</ele>
        <time>2022-05-21 05:50:18</time>
      </trkpt>
      <trkpt lat="42.11189" lon="2.45403">
        <ele>474</ele>
        <time>2022-05-21 05:50:19</time>
      </trkpt>
      <trkpt lat="42.11195" lon="2.45401">
        <ele>474</ele>
        <time>2022-05-21 05:50:20</time>
      </trkpt>
      <trkpt lat="42.11202" lon="2.45398">
        <ele>474</ele>
        <time>2022-05-21 05:50:21</time>
      </trkpt>
      <trkpt lat="42.11209" lon="2.45396">
        <ele>474</ele>
        <time>2022-05-21 05:50:22</time>
      </trkpt>
      <trkpt lat="42.11216" lon="2.45393">
        <ele>474</ele>
        <time>2022-05-21 05:50:23</time>
      </trkpt>
      <trkpt lat="42.11223" lon="2.45391">
        <ele>474</ele>
        <time>2022-05-21 05:50:24</time>
      </trkpt>
      <trkpt lat="42.1123" lon="2.45388">
        <ele>474</ele>
        <time>2022-05-21 05:50:25</time>
      </trkpt>
      <trkpt lat="42.11237" lon="2.45386">
        <ele>474</ele>
        <time>2022-05-21 05:50:26</time>
      </trkpt>
      <trkpt lat="42.11244" lon="2.45383">
        <ele>474</ele>
        <time>2022-05-21 05:50:27</time>
      </trkpt>
      <trkpt lat="42.11251" lon="2.45381">
        <ele>474</ele>
        <time>2022-05-21 05:50:28</time>
      </trkpt>
      <trkpt lat="42.11258" lon="2.45378">
        <ele>474</ele>
        <time>2022-05-21 05:50:29</time>
      </trkpt>
      <trkpt lat="42.11265" lon="2.45375">
        <ele>474</ele>
        <time>2022-05-21 05:50:30</time>
      </trkpt>
      <trkpt lat="42.11272" lon="2.45373">
        <ele>474</ele>
        <time>2022-05-21 05:50:31</time>
      </trkpt>
      <trkpt lat="42.11279" lon="2.45371">
        <ele>474</ele>
        <time>2022-05-21 05:50:32</time>
      </trkpt>
      <trkpt lat="42.11285" lon="2.45368">
        <ele>474</ele>
        <time>2022-05-21 05:50:33</time>
      </trkpt>
      <trkpt lat="42.11292" lon="2.45366">
        <ele>474</ele>
        <time>2022-05-21 05:50:34</time>
      </trkpt>
      <trkpt lat="42.11299" lon="2.45363">
        <ele>474</ele>
        <time>2022-05-21 05:50:35</time>
      </trkpt>
      <trkpt lat="42.11305" lon="2.45361">
        <ele>474</ele>
        <time>2022-05-21 05:50:36</time>
      </trkpt>
      <trkpt lat="42.11312" lon="2.45358">
        <ele>474</ele>
        <time>2022-05-21 05:50:37</time>
      </trkpt>
      <trkpt lat="42.11319" lon="2.45356">
        <ele>474.2</ele>
        <time>2022-05-21 05:50:38</time>
      </trkpt>
      <trkpt lat="42.11325" lon="2.45354">
        <ele>474.2</ele>
        <time>2022-05-21 05:50:39</time>
      </trkpt>
      <trkpt lat="42.11332" lon="2.45352">
        <ele>474.2</ele>
        <time>2022-05-21 05:50:40</time>
      </trkpt>
      <trkpt lat="42.11339" lon="2.4535">
        <ele>474.2</ele>
        <time>2022-05-21 05:50:41</time>
      </trkpt>
      <trkpt lat="42.11345" lon="2.45348">
        <ele>474.2</ele>
        <time>2022-05-21 05:50:42</time>
      </trkpt>
      <trkpt lat="42.11351" lon="2.45346">
        <ele>474.2</ele>
        <time>2022-05-21 05:50:43</time>
      </trkpt>
      <trkpt lat="42.11358" lon="2.45343">
        <ele>474.2</ele>
        <time>2022-05-21 05:50:44</time>
      </trkpt>
      <trkpt lat="42.11365" lon="2.45341">
        <ele>474.2</ele>
        <time>2022-05-21 05:50:45</time>
      </trkpt>
      <trkpt lat="42.11371" lon="2.45339">
        <ele>474.2</ele>
        <time>2022-05-21 05:50:46</time>
      </trkpt>
      <trkpt lat="42.11378" lon="2.45336">
        <ele>474.2</ele>
        <time>2022-05-21 05:50:47</time>
      </trkpt>
      <trkpt lat="42.11385" lon="2.45333">
        <ele>474</ele>
        <time>2022-05-21 05:50:48</time>
      </trkpt>
      <trkpt lat="42.11391" lon="2.45331">
        <ele>474</ele>
        <time>2022-05-21 05:50:49</time>
      </trkpt>
      <trkpt lat="42.11398" lon="2.45328">
        <ele>474</ele>
        <time>2022-05-21 05:50:50</time>
      </trkpt>
      <trkpt lat="42.11404" lon="2.45325">
        <ele>473.8</ele>
        <time>2022-05-21 05:50:51</time>
      </trkpt>
      <trkpt lat="42.11411" lon="2.45322">
        <ele>473.8</ele>
        <time>2022-05-21 05:50:52</time>
      </trkpt>
      <trkpt lat="42.11418" lon="2.4532">
        <ele>473.8</ele>
        <time>2022-05-21 05:50:53</time>
      </trkpt>
      <trkpt lat="42.11425" lon="2.45318">
        <ele>473.8</ele>
        <time>2022-05-21 05:50:54</time>
      </trkpt>
      <trkpt lat="42.11432" lon="2.45316">
        <ele>473.6</ele>
        <time>2022-05-21 05:50:55</time>
      </trkpt>
      <trkpt lat="42.11438" lon="2.45313">
        <ele>473.6</ele>
        <time>2022-05-21 05:50:56</time>
      </trkpt>
      <trkpt lat="42.11445" lon="2.45311">
        <ele>473.6</ele>
        <time>2022-05-21 05:50:57</time>
      </trkpt>
      <trkpt lat="42.11452" lon="2.45309">
        <ele>473.4</ele>
        <time>2022-05-21 05:50:58</time>
      </trkpt>
      <trkpt lat="42.11459" lon="2.45306">
        <ele>473.4</ele>
        <time>2022-05-21 05:50:59</time>
      </trkpt>
      <trkpt lat="42.11466" lon="2.45304">
        <ele>473.4</ele>
        <time>2022-05-21 05:51:00</time>
      </trkpt>
      <trkpt lat="42.11473" lon="2.45301">
        <ele>473.4</ele>
        <time>2022-05-21 05:51:01</time>
      </trkpt>
      <trkpt lat="42.1148" lon="2.45298">
        <ele>473.2</ele>
        <time>2022-05-21 05:51:02</time>
      </trkpt>
      <trkpt lat="42.11486" lon="2.45296">
        <ele>473.2</ele>
        <time>2022-05-21 05:51:03</time>
      </trkpt>
      <trkpt lat="42.11493" lon="2.45293">
        <ele>473.2</ele>
        <time>2022-05-21 05:51:04</time>
      </trkpt>
      <trkpt lat="42.115" lon="2.45291">
        <ele>473</ele>
        <time>2022-05-21 05:51:05</time>
      </trkpt>
      <trkpt lat="42.11507" lon="2.45288">
        <ele>473</ele>
        <time>2022-05-21 05:51:06</time>
      </trkpt>
      <trkpt lat="42.11514" lon="2.45285">
        <ele>473</ele>
        <time>2022-05-21 05:51:07</time>
      </trkpt>
      <trkpt lat="42.11521" lon="2.45283">
        <ele>472.8</ele>
        <time>2022-05-21 05:51:08</time>
      </trkpt>
      <trkpt lat="42.11528" lon="2.4528">
        <ele>472.8</ele>
        <time>2022-05-21 05:51:09</time>
      </trkpt>
      <trkpt lat="42.11535" lon="2.45278">
        <ele>472.8</ele>
        <time>2022-05-21 05:51:10</time>
      </trkpt>
      <trkpt lat="42.11541" lon="2.45276">
        <ele>472.6</ele>
        <time>2022-05-21 05:51:11</time>
      </trkpt>
      <trkpt lat="42.11548" lon="2.45273">
        <ele>472.6</ele>
        <time>2022-05-21 05:51:12</time>
      </trkpt>
      <trkpt lat="42.11555" lon="2.45271">
        <ele>472.6</ele>
        <time>2022-05-21 05:51:13</time>
      </trkpt>
      <trkpt lat="42.11562" lon="2.45268">
        <ele>472.4</ele>
        <time>2022-05-21 05:51:14</time>
      </trkpt>
      <trkpt lat="42.11568" lon="2.45266">
        <ele>472.4</ele>
        <time>2022-05-21 05:51:15</time>
      </trkpt>
      <trkpt lat="42.11575" lon="2.45263">
        <ele>472.4</ele>
        <time>2022-05-21 05:51:16</time>
      </trkpt>
      <trkpt lat="42.11582" lon="2.45261">
        <ele>472.4</ele>
        <time>2022-05-21 05:51:17</time>
      </trkpt>
      <trkpt lat="42.11589" lon="2.45258">
        <ele>472.4</ele>
        <time>2022-05-21 05:51:18</time>
      </trkpt>
      <trkpt lat="42.11596" lon="2.45256">
        <ele>472.2</ele>
        <time>2022-05-21 05:51:19</time>
      </trkpt>
      <trkpt lat="42.11602" lon="2.45253">
        <ele>472.4</ele>
        <time>2022-05-21 05:51:20</time>
      </trkpt>
      <trkpt lat="42.11608" lon="2.4525">
        <ele>472.4</ele>
        <time>2022-05-21 05:51:21</time>
      </trkpt>
      <trkpt lat="42.11615" lon="2.45248">
        <ele>472.2</ele>
        <time>2022-05-21 05:51:22</time>
      </trkpt>
      <trkpt lat="42.11622" lon="2.45246">
        <ele>472.2</ele>
        <time>2022-05-21 05:51:23</time>
      </trkpt>
      <trkpt lat="42.11628" lon="2.45244">
        <ele>472.2</ele>
        <time>2022-05-21 05:51:24</time>
      </trkpt>
      <trkpt lat="42.11635" lon="2.45241">
        <ele>472.2</ele>
        <time>2022-05-21 05:51:25</time>
      </trkpt>
      <trkpt lat="42.11641" lon="2.45239">
        <ele>472.2</ele>
        <time>2022-05-21 05:51:26</time>
      </trkpt>
      <trkpt lat="42.11648" lon="2.45236">
        <ele>472.2</ele>
        <time>2022-05-21 05:51:27</time>
      </trkpt>
      <trkpt lat="42.11654" lon="2.45233">
        <ele>472.2</ele>
        <time>2022-05-21 05:51:28</time>
      </trkpt>
      <trkpt lat="42.11661" lon="2.45231">
        <ele>472.2</ele>
        <time>2022-05-21 05:51:29</time>
      </trkpt>
      <trkpt lat="42.11667" lon="2.45229">
        <ele>472.2</ele>
        <time>2022-05-21 05:51:30</time>
      </trkpt>
      <trkpt lat="42.11673" lon="2.45227">
        <ele>472.2</ele>
        <time>2022-05-21 05:51:31</time>
      </trkpt>
      <trkpt lat="42.1168" lon="2.45225">
        <ele>472</ele>
        <time>2022-05-21 05:51:32</time>
      </trkpt>
      <trkpt lat="42.11686" lon="2.45222">
        <ele>472</ele>
        <time>2022-05-21 05:51:33</time>
      </trkpt>
      <trkpt lat="42.11693" lon="2.4522">
        <ele>472</ele>
        <time>2022-05-21 05:51:34</time>
      </trkpt>
      <trkpt lat="42.11699" lon="2.45218">
        <ele>471.8</ele>
        <time>2022-05-21 05:51:35</time>
      </trkpt>
      <trkpt lat="42.11705" lon="2.45216">
        <ele>471.8</ele>
        <time>2022-05-21 05:51:36</time>
      </trkpt>
      <trkpt lat="42.11712" lon="2.45214">
        <ele>471.8</ele>
        <time>2022-05-21 05:51:37</time>
      </trkpt>
      <trkpt lat="42.11718" lon="2.45212">
        <ele>471.8</ele>
        <time>2022-05-21 05:51:38</time>
      </trkpt>
      <trkpt lat="42.11725" lon="2.4521">
        <ele>471.8</ele>
        <time>2022-05-21 05:51:39</time>
      </trkpt>
      <trkpt lat="42.11732" lon="2.45208">
        <ele>471.8</ele>
        <time>2022-05-21 05:51:40</time>
      </trkpt>
      <trkpt lat="42.11739" lon="2.45206">
        <ele>471.8</ele>
        <time>2022-05-21 05:51:41</time>
      </trkpt>
      <trkpt lat="42.11745" lon="2.45204">
        <ele>471.8</ele>
        <time>2022-05-21 05:51:42</time>
      </trkpt>
      <trkpt lat="42.11751" lon="2.45201">
        <ele>471.8</ele>
        <time>2022-05-21 05:51:43</time>
      </trkpt>
      <trkpt lat="42.11757" lon="2.45199">
        <ele>471.8</ele>
        <time>2022-05-21 05:51:44</time>
      </trkpt>
      <trkpt lat="42.11763" lon="2.45196">
        <ele>471.6</ele>
        <time>2022-05-21 05:51:45</time>
      </trkpt>
      <trkpt lat="42.1177" lon="2.45194">
        <ele>471.6</ele>
        <time>2022-05-21 05:51:46</time>
      </trkpt>
      <trkpt lat="42.11776" lon="2.45191">
        <ele>471.6</ele>
        <time>2022-05-21 05:51:47</time>
      </trkpt>
      <trkpt lat="42.11783" lon="2.45189">
        <ele>471.6</ele>
        <time>2022-05-21 05:51:48</time>
      </trkpt>
      <trkpt lat="42.11789" lon="2.45186">
        <ele>471.6</ele>
        <time>2022-05-21 05:51:49</time>
      </trkpt>
      <trkpt lat="42.11796" lon="2.45184">
        <ele>471.4</ele>
        <time>2022-05-21 05:51:50</time>
      </trkpt>
      <trkpt lat="42.11802" lon="2.45181">
        <ele>471.4</ele>
        <time>2022-05-21 05:51:51</time>
      </trkpt>
      <trkpt lat="42.11808" lon="2.45179">
        <ele>471.4</ele>
        <time>2022-05-21 05:51:52</time>
      </trkpt>
      <trkpt lat="42.11814" lon="2.45176">
        <ele>471.2</ele>
        <time>2022-05-21 05:51:53</time>
      </trkpt>
      <trkpt lat="42.11821" lon="2.45174">
        <ele>471.2</ele>
        <time>2022-05-21 05:51:54</time>
      </trkpt>
      <trkpt lat="42.11828" lon="2.45172">
        <ele>471.2</ele>
        <time>2022-05-21 05:51:55</time>
      </trkpt>
      <trkpt lat="42.11835" lon="2.45169">
        <ele>471</ele>
        <time>2022-05-21 05:51:56</time>
      </trkpt>
      <trkpt lat="42.11842" lon="2.45167">
        <ele>471</ele>
        <time>2022-05-21 05:51:57</time>
      </trkpt>
      <trkpt lat="42.11848" lon="2.45164">
        <ele>470.8</ele>
        <time>2022-05-21 05:51:58</time>
      </trkpt>
      <trkpt lat="42.11855" lon="2.45162">
        <ele>470.8</ele>
        <time>2022-05-21 05:51:59</time>
      </trkpt>
      <trkpt lat="42.11861" lon="2.45159">
        <ele>470.8</ele>
        <time>2022-05-21 05:52:00</time>
      </trkpt>
      <trkpt lat="42.11868" lon="2.45157">
        <ele>470.8</ele>
        <time>2022-05-21 05:52:01</time>
      </trkpt>
      <trkpt lat="42.11874" lon="2.45154">
        <ele>470.6</ele>
        <time>2022-05-21 05:52:02</time>
      </trkpt>
      <trkpt lat="42.11882" lon="2.45151">
        <ele>470.6</ele>
        <time>2022-05-21 05:52:03</time>
      </trkpt>
      <trkpt lat="42.11889" lon="2.45149">
        <ele>470.6</ele>
        <time>2022-05-21 05:52:04</time>
      </trkpt>
      <trkpt lat="42.11895" lon="2.45146">
        <ele>470.6</ele>
        <time>2022-05-21 05:52:05</time>
      </trkpt>
      <trkpt lat="42.11903" lon="2.45144">
        <ele>470.4</ele>
        <time>2022-05-21 05:52:06</time>
      </trkpt>
      <trkpt lat="42.11909" lon="2.45142">
        <ele>470.4</ele>
        <time>2022-05-21 05:52:07</time>
      </trkpt>
      <trkpt lat="42.11916" lon="2.45139">
        <ele>470.4</ele>
        <time>2022-05-21 05:52:08</time>
      </trkpt>
      <trkpt lat="42.11923" lon="2.45137">
        <ele>470.2</ele>
        <time>2022-05-21 05:52:09</time>
      </trkpt>
      <trkpt lat="42.1193" lon="2.45135">
        <ele>470.2</ele>
        <time>2022-05-21 05:52:10</time>
      </trkpt>
      <trkpt lat="42.11937" lon="2.45132">
        <ele>470.2</ele>
        <time>2022-05-21 05:52:11</time>
      </trkpt>
      <trkpt lat="42.11943" lon="2.4513">
        <ele>470.2</ele>
        <time>2022-05-21 05:52:12</time>
      </trkpt>
      <trkpt lat="42.1195" lon="2.45127">
        <ele>470</ele>
        <time>2022-05-21 05:52:13</time>
      </trkpt>
      <trkpt lat="42.11957" lon="2.45125">
        <ele>470</ele>
        <time>2022-05-21 05:52:14</time>
      </trkpt>
      <trkpt lat="42.11964" lon="2.45122">
        <ele>470</ele>
        <time>2022-05-21 05:52:15</time>
      </trkpt>
      <trkpt lat="42.1197" lon="2.45119">
        <ele>470</ele>
        <time>2022-05-21 05:52:16</time>
      </trkpt>
      <trkpt lat="42.11977" lon="2.45117">
        <ele>470</ele>
        <time>2022-05-21 05:52:17</time>
      </trkpt>
      <trkpt lat="42.11983" lon="2.45115">
        <ele>470</ele>
        <time>2022-05-21 05:52:18</time>
      </trkpt>
      <trkpt lat="42.11989" lon="2.45113">
        <ele>470</ele>
        <time>2022-05-21 05:52:19</time>
      </trkpt>
      <trkpt lat="42.11996" lon="2.45111">
        <ele>470</ele>
        <time>2022-05-21 05:52:20</time>
      </trkpt>
      <trkpt lat="42.12003" lon="2.45108">
        <ele>469.8</ele>
        <time>2022-05-21 05:52:21</time>
      </trkpt>
      <trkpt lat="42.12009" lon="2.45106">
        <ele>469.8</ele>
        <time>2022-05-21 05:52:22</time>
      </trkpt>
      <trkpt lat="42.12014" lon="2.45104">
        <ele>469.8</ele>
        <time>2022-05-21 05:52:23</time>
      </trkpt>
      <trkpt lat="42.1202" lon="2.45101">
        <ele>469.8</ele>
        <time>2022-05-21 05:52:24</time>
      </trkpt>
      <trkpt lat="42.12027" lon="2.45099">
        <ele>469.6</ele>
        <time>2022-05-21 05:52:25</time>
      </trkpt>
      <trkpt lat="42.12033" lon="2.45097">
        <ele>469.6</ele>
        <time>2022-05-21 05:52:26</time>
      </trkpt>
      <trkpt lat="42.1204" lon="2.45095">
        <ele>469.6</ele>
        <time>2022-05-21 05:52:27</time>
      </trkpt>
      <trkpt lat="42.12046" lon="2.45093">
        <ele>469.4</ele>
        <time>2022-05-21 05:52:28</time>
      </trkpt>
      <trkpt lat="42.12052" lon="2.45091">
        <ele>469.4</ele>
        <time>2022-05-21 05:52:29</time>
      </trkpt>
      <trkpt lat="42.12058" lon="2.45088">
        <ele>469.4</ele>
        <time>2022-05-21 05:52:30</time>
      </trkpt>
      <trkpt lat="42.12064" lon="2.45086">
        <ele>469.4</ele>
        <time>2022-05-21 05:52:31</time>
      </trkpt>
      <trkpt lat="42.1207" lon="2.45084">
        <ele>469.2</ele>
        <time>2022-05-21 05:52:32</time>
      </trkpt>
      <trkpt lat="42.12076" lon="2.45082">
        <ele>469.2</ele>
        <time>2022-05-21 05:52:33</time>
      </trkpt>
      <trkpt lat="42.12082" lon="2.4508">
        <ele>469</ele>
        <time>2022-05-21 05:52:34</time>
      </trkpt>
      <trkpt lat="42.12087" lon="2.45077">
        <ele>469</ele>
        <time>2022-05-21 05:52:35</time>
      </trkpt>
      <trkpt lat="42.12093" lon="2.45077">
        <ele>469</ele>
        <time>2022-05-21 05:52:36</time>
      </trkpt>
      <trkpt lat="42.12097" lon="2.45078">
        <ele>469</ele>
        <time>2022-05-21 05:52:37</time>
      </trkpt>
      <trkpt lat="42.12099" lon="2.4508">
        <ele>469</ele>
        <time>2022-05-21 05:52:38</time>
      </trkpt>
      <trkpt lat="42.12099" lon="2.45084">
        <ele>469.2</ele>
        <time>2022-05-21 05:52:39</time>
      </trkpt>
      <trkpt lat="42.12098" lon="2.45088">
        <ele>469.2</ele>
        <time>2022-05-21 05:52:40</time>
      </trkpt>
      <trkpt lat="42.12097" lon="2.45091">
        <ele>469.4</ele>
        <time>2022-05-21 05:52:41</time>
      </trkpt>
      <trkpt lat="42.12096" lon="2.45093">
        <ele>469.4</ele>
        <time>2022-05-21 05:52:42</time>
      </trkpt>
      <trkpt lat="42.12095" lon="2.45097">
        <ele>469.6</ele>
        <time>2022-05-21 05:52:43</time>
      </trkpt>
      <trkpt lat="42.12093" lon="2.451">
        <ele>469.6</ele>
        <time>2022-05-21 05:52:44</time>
      </trkpt>
      <trkpt lat="42.12091" lon="2.45103">
        <ele>469.6</ele>
        <time>2022-05-21 05:52:45</time>
      </trkpt>
      <trkpt lat="42.12089" lon="2.45106">
        <ele>469.8</ele>
        <time>2022-05-21 05:52:46</time>
      </trkpt>
      <trkpt lat="42.12086" lon="2.4511">
        <ele>469.8</ele>
        <time>2022-05-21 05:52:47</time>
      </trkpt>
      <trkpt lat="42.12085" lon="2.45113">
        <ele>470</ele>
        <time>2022-05-21 05:52:48</time>
      </trkpt>
      <trkpt lat="42.12082" lon="2.45117">
        <ele>470.2</ele>
        <time>2022-05-21 05:52:49</time>
      </trkpt>
      <trkpt lat="42.1208" lon="2.45121">
        <ele>470.2</ele>
        <time>2022-05-21 05:52:50</time>
      </trkpt>
      <trkpt lat="42.12078" lon="2.45125">
        <ele>470.4</ele>
        <time>2022-05-21 05:52:51</time>
      </trkpt>
      <trkpt lat="42.12076" lon="2.45129">
        <ele>470.4</ele>
        <time>2022-05-21 05:52:52</time>
      </trkpt>
      <trkpt lat="42.12073" lon="2.45133">
        <ele>470.6</ele>
        <time>2022-05-21 05:52:53</time>
      </trkpt>
      <trkpt lat="42.12071" lon="2.45137">
        <ele>470.6</ele>
        <time>2022-05-21 05:52:54</time>
      </trkpt>
      <trkpt lat="42.12068" lon="2.45141">
        <ele>470.8</ele>
        <time>2022-05-21 05:52:55</time>
      </trkpt>
      <trkpt lat="42.12066" lon="2.45145">
        <ele>471</ele>
        <time>2022-05-21 05:52:56</time>
      </trkpt>
      <trkpt lat="42.12064" lon="2.45149">
        <ele>471</ele>
        <time>2022-05-21 05:52:57</time>
      </trkpt>
      <trkpt lat="42.12062" lon="2.45153">
        <ele>471.2</ele>
        <time>2022-05-21 05:52:58</time>
      </trkpt>
      <trkpt lat="42.1206" lon="2.45157">
        <ele>471.4</ele>
        <time>2022-05-21 05:52:59</time>
      </trkpt>
      <trkpt lat="42.12058" lon="2.45161">
        <ele>471.6</ele>
        <time>2022-05-21 05:53:00</time>
      </trkpt>
      <trkpt lat="42.12056" lon="2.45165">
        <ele>471.8</ele>
        <time>2022-05-21 05:53:01</time>
      </trkpt>
      <trkpt lat="42.12054" lon="2.45169">
        <ele>471.8</ele>
        <time>2022-05-21 05:53:02</time>
      </trkpt>
      <trkpt lat="42.12053" lon="2.45173">
        <ele>472</ele>
        <time>2022-05-21 05:53:03</time>
      </trkpt>
      <trkpt lat="42.12051" lon="2.45176">
        <ele>472.2</ele>
        <time>2022-05-21 05:53:04</time>
      </trkpt>
      <trkpt lat="42.12049" lon="2.4518">
        <ele>472.4</ele>
        <time>2022-05-21 05:53:05</time>
      </trkpt>
      <trkpt lat="42.12047" lon="2.45184">
        <ele>472.4</ele>
        <time>2022-05-21 05:53:06</time>
      </trkpt>
      <trkpt lat="42.12045" lon="2.45188">
        <ele>472.6</ele>
        <time>2022-05-21 05:53:07</time>
      </trkpt>
      <trkpt lat="42.12043" lon="2.45191">
        <ele>472.8</ele>
        <time>2022-05-21 05:53:08</time>
      </trkpt>
      <trkpt lat="42.12041" lon="2.45195">
        <ele>473</ele>
        <time>2022-05-21 05:53:09</time>
      </trkpt>
      <trkpt lat="42.12039" lon="2.45198">
        <ele>473</ele>
        <time>2022-05-21 05:53:10</time>
      </trkpt>
      <trkpt lat="42.12038" lon="2.45202">
        <ele>473.2</ele>
        <time>2022-05-21 05:53:11</time>
      </trkpt>
      <trkpt lat="42.12036" lon="2.45206">
        <ele>473.4</ele>
        <time>2022-05-21 05:53:12</time>
      </trkpt>
      <trkpt lat="42.12034" lon="2.4521">
        <ele>473.6</ele>
        <time>2022-05-21 05:53:13</time>
      </trkpt>
      <trkpt lat="42.12032" lon="2.45214">
        <ele>473.8</ele>
        <time>2022-05-21 05:53:14</time>
      </trkpt>
      <trkpt lat="42.12031" lon="2.45219">
        <ele>473.8</ele>
        <time>2022-05-21 05:53:15</time>
      </trkpt>
      <trkpt lat="42.12029" lon="2.45223">
        <ele>474</ele>
        <time>2022-05-21 05:53:16</time>
      </trkpt>
      <trkpt lat="42.12027" lon="2.45227">
        <ele>474.2</ele>
        <time>2022-05-21 05:53:17</time>
      </trkpt>
      <trkpt lat="42.12025" lon="2.45232">
        <ele>474.4</ele>
        <time>2022-05-21 05:53:18</time>
      </trkpt>
      <trkpt lat="42.12023" lon="2.45237">
        <ele>474.6</ele>
        <time>2022-05-21 05:53:19</time>
      </trkpt>
      <trkpt lat="42.12022" lon="2.45242">
        <ele>474.8</ele>
        <time>2022-05-21 05:53:20</time>
      </trkpt>
      <trkpt lat="42.12021" lon="2.45247">
        <ele>474.8</ele>
        <time>2022-05-21 05:53:21</time>
      </trkpt>
      <trkpt lat="42.1202" lon="2.45251">
        <ele>475</ele>
        <time>2022-05-21 05:53:22</time>
      </trkpt>
      <trkpt lat="42.12019" lon="2.45256">
        <ele>475.2</ele>
        <time>2022-05-21 05:53:23</time>
      </trkpt>
      <trkpt lat="42.12018" lon="2.4526">
        <ele>475.4</ele>
        <time>2022-05-21 05:53:24</time>
      </trkpt>
      <trkpt lat="42.12017" lon="2.45265">
        <ele>475.4</ele>
        <time>2022-05-21 05:53:25</time>
      </trkpt>
      <trkpt lat="42.12016" lon="2.45269">
        <ele>475.6</ele>
        <time>2022-05-21 05:53:26</time>
      </trkpt>
      <trkpt lat="42.12016" lon="2.45274">
        <ele>475.8</ele>
        <time>2022-05-21 05:53:27</time>
      </trkpt>
      <trkpt lat="42.12016" lon="2.45278">
        <ele>475.8</ele>
        <time>2022-05-21 05:53:28</time>
      </trkpt>
      <trkpt lat="42.12015" lon="2.45283">
        <ele>475.8</ele>
        <time>2022-05-21 05:53:29</time>
      </trkpt>
      <trkpt lat="42.12015" lon="2.45287">
        <ele>476</ele>
        <time>2022-05-21 05:53:30</time>
      </trkpt>
      <trkpt lat="42.12015" lon="2.45292">
        <ele>476</ele>
        <time>2022-05-21 05:53:31</time>
      </trkpt>
      <trkpt lat="42.12016" lon="2.45296">
        <ele>476</ele>
        <time>2022-05-21 05:53:32</time>
      </trkpt>
      <trkpt lat="42.12016" lon="2.45301">
        <ele>476.2</ele>
        <time>2022-05-21 05:53:33</time>
      </trkpt>
      <trkpt lat="42.12015" lon="2.45306">
        <ele>476.2</ele>
        <time>2022-05-21 05:53:34</time>
      </trkpt>
      <trkpt lat="42.12015" lon="2.45311">
        <ele>476.2</ele>
        <time>2022-05-21 05:53:35</time>
      </trkpt>
      <trkpt lat="42.12015" lon="2.45315">
        <ele>476.2</ele>
        <time>2022-05-21 05:53:36</time>
      </trkpt>
      <trkpt lat="42.12015" lon="2.4532">
        <ele>476.4</ele>
        <time>2022-05-21 05:53:37</time>
      </trkpt>
      <trkpt lat="42.12015" lon="2.45325">
        <ele>476.4</ele>
        <time>2022-05-21 05:53:38</time>
      </trkpt>
      <trkpt lat="42.12015" lon="2.4533">
        <ele>476.6</ele>
        <time>2022-05-21 05:53:39</time>
      </trkpt>
      <trkpt lat="42.12014" lon="2.45334">
        <ele>476.6</ele>
        <time>2022-05-21 05:53:40</time>
      </trkpt>
      <trkpt lat="42.12014" lon="2.45338">
        <ele>476.8</ele>
        <time>2022-05-21 05:53:41</time>
      </trkpt>
      <trkpt lat="42.12013" lon="2.45343">
        <ele>476.8</ele>
        <time>2022-05-21 05:53:42</time>
      </trkpt>
      <trkpt lat="42.12012" lon="2.45347">
        <ele>477</ele>
        <time>2022-05-21 05:53:43</time>
      </trkpt>
      <trkpt lat="42.12012" lon="2.45351">
        <ele>477.2</ele>
        <time>2022-05-21 05:53:44</time>
      </trkpt>
      <trkpt lat="42.12011" lon="2.45356">
        <ele>477.2</ele>
        <time>2022-05-21 05:53:45</time>
      </trkpt>
      <trkpt lat="42.1201" lon="2.4536">
        <ele>477.2</ele>
        <time>2022-05-21 05:53:46</time>
      </trkpt>
      <trkpt lat="42.1201" lon="2.45364">
        <ele>477.4</ele>
        <time>2022-05-21 05:53:47</time>
      </trkpt>
      <trkpt lat="42.1201" lon="2.45369">
        <ele>477.6</ele>
        <time>2022-05-21 05:53:48</time>
      </trkpt>
      <trkpt lat="42.12009" lon="2.45373">
        <ele>477.6</ele>
        <time>2022-05-21 05:53:49</time>
      </trkpt>
      <trkpt lat="42.12009" lon="2.45378">
        <ele>477.8</ele>
        <time>2022-05-21 05:53:50</time>
      </trkpt>
      <trkpt lat="42.12008" lon="2.45382">
        <ele>477.8</ele>
        <time>2022-05-21 05:53:51</time>
      </trkpt>
      <trkpt lat="42.12008" lon="2.45387">
        <ele>478</ele>
        <time>2022-05-21 05:53:52</time>
      </trkpt>
      <trkpt lat="42.12008" lon="2.45391">
        <ele>478</ele>
        <time>2022-05-21 05:53:53</time>
      </trkpt>
      <trkpt lat="42.12007" lon="2.45396">
        <ele>478.2</ele>
        <time>2022-05-21 05:53:54</time>
      </trkpt>
      <trkpt lat="42.12007" lon="2.454">
        <ele>478.4</ele>
        <time>2022-05-21 05:53:55</time>
      </trkpt>
      <trkpt lat="42.12006" lon="2.45405">
        <ele>478.4</ele>
        <time>2022-05-21 05:53:56</time>
      </trkpt>
      <trkpt lat="42.12006" lon="2.45409">
        <ele>478.6</ele>
        <time>2022-05-21 05:53:57</time>
      </trkpt>
      <trkpt lat="42.12006" lon="2.45413">
        <ele>478.8</ele>
        <time>2022-05-21 05:53:58</time>
      </trkpt>
      <trkpt lat="42.12006" lon="2.45418">
        <ele>478.8</ele>
        <time>2022-05-21 05:53:59</time>
      </trkpt>
      <trkpt lat="42.12006" lon="2.45422">
        <ele>479</ele>
        <time>2022-05-21 05:54:00</time>
      </trkpt>
      <trkpt lat="42.12007" lon="2.45427">
        <ele>479</ele>
        <time>2022-05-21 05:54:01</time>
      </trkpt>
      <trkpt lat="42.12006" lon="2.45432">
        <ele>479</ele>
        <time>2022-05-21 05:54:02</time>
      </trkpt>
      <trkpt lat="42.12006" lon="2.45437">
        <ele>479.2</ele>
        <time>2022-05-21 05:54:03</time>
      </trkpt>
      <trkpt lat="42.12006" lon="2.45441">
        <ele>479.4</ele>
        <time>2022-05-21 05:54:04</time>
      </trkpt>
      <trkpt lat="42.12006" lon="2.45446">
        <ele>479.4</ele>
        <time>2022-05-21 05:54:05</time>
      </trkpt>
      <trkpt lat="42.12006" lon="2.4545">
        <ele>479.6</ele>
        <time>2022-05-21 05:54:06</time>
      </trkpt>
      <trkpt lat="42.12006" lon="2.45455">
        <ele>479.6</ele>
        <time>2022-05-21 05:54:07</time>
      </trkpt>
      <trkpt lat="42.12005" lon="2.45459">
        <ele>479.8</ele>
        <time>2022-05-21 05:54:08</time>
      </trkpt>
      <trkpt lat="42.12005" lon="2.45464">
        <ele>479.8</ele>
        <time>2022-05-21 05:54:09</time>
      </trkpt>
      <trkpt lat="42.12004" lon="2.45469">
        <ele>480</ele>
        <time>2022-05-21 05:54:10</time>
      </trkpt>
      <trkpt lat="42.12004" lon="2.45473">
        <ele>480</ele>
        <time>2022-05-21 05:54:11</time>
      </trkpt>
      <trkpt lat="42.12004" lon="2.45478">
        <ele>480.2</ele>
        <time>2022-05-21 05:54:12</time>
      </trkpt>
      <trkpt lat="42.12004" lon="2.45483">
        <ele>480.4</ele>
        <time>2022-05-21 05:54:13</time>
      </trkpt>
      <trkpt lat="42.12004" lon="2.45487">
        <ele>480.4</ele>
        <time>2022-05-21 05:54:14</time>
      </trkpt>
      <trkpt lat="42.12004" lon="2.45491">
        <ele>480.4</ele>
        <time>2022-05-21 05:54:15</time>
      </trkpt>
      <trkpt lat="42.12004" lon="2.45496">
        <ele>480.6</ele>
        <time>2022-05-21 05:54:16</time>
      </trkpt>
      <trkpt lat="42.12004" lon="2.45501">
        <ele>480.8</ele>
        <time>2022-05-21 05:54:17</time>
      </trkpt>
      <trkpt lat="42.12004" lon="2.45505">
        <ele>480.8</ele>
        <time>2022-05-21 05:54:18</time>
      </trkpt>
      <trkpt lat="42.12004" lon="2.45509">
        <ele>481</ele>
        <time>2022-05-21 05:54:19</time>
      </trkpt>
      <trkpt lat="42.12004" lon="2.45514">
        <ele>481.2</ele>
        <time>2022-05-21 05:54:20</time>
      </trkpt>
      <trkpt lat="42.12004" lon="2.45518">
        <ele>481.2</ele>
        <time>2022-05-21 05:54:21</time>
      </trkpt>
      <trkpt lat="42.12004" lon="2.45523">
        <ele>481.4</ele>
        <time>2022-05-21 05:54:22</time>
      </trkpt>
      <trkpt lat="42.12004" lon="2.45527">
        <ele>481.4</ele>
        <time>2022-05-21 05:54:23</time>
      </trkpt>
      <trkpt lat="42.12004" lon="2.45532">
        <ele>481.6</ele>
        <time>2022-05-21 05:54:24</time>
      </trkpt>
      <trkpt lat="42.12004" lon="2.45536">
        <ele>481.8</ele>
        <time>2022-05-21 05:54:25</time>
      </trkpt>
      <trkpt lat="42.12004" lon="2.4554">
        <ele>481.8</ele>
        <time>2022-05-21 05:54:26</time>
      </trkpt>
      <trkpt lat="42.12005" lon="2.45545">
        <ele>482</ele>
        <time>2022-05-21 05:54:27</time>
      </trkpt>
      <trkpt lat="42.12005" lon="2.45549">
        <ele>482.2</ele>
        <time>2022-05-21 05:54:28</time>
      </trkpt>
      <trkpt lat="42.12005" lon="2.45552">
        <ele>482.2</ele>
        <time>2022-05-21 05:54:29</time>
      </trkpt>
      <trkpt lat="42.12005" lon="2.45557">
        <ele>482.4</ele>
        <time>2022-05-21 05:54:30</time>
      </trkpt>
      <trkpt lat="42.12006" lon="2.45561">
        <ele>482.6</ele>
        <time>2022-05-21 05:54:31</time>
      </trkpt>
      <trkpt lat="42.12006" lon="2.45565">
        <ele>482.6</ele>
        <time>2022-05-21 05:54:32</time>
      </trkpt>
      <trkpt lat="42.12006" lon="2.45569">
        <ele>482.8</ele>
        <time>2022-05-21 05:54:33</time>
      </trkpt>
      <trkpt lat="42.12006" lon="2.45574">
        <ele>483</ele>
        <time>2022-05-21 05:54:34</time>
      </trkpt>
      <trkpt lat="42.12006" lon="2.45578">
        <ele>483</ele>
        <time>2022-05-21 05:54:35</time>
      </trkpt>
      <trkpt lat="42.12006" lon="2.45582">
        <ele>483.2</ele>
        <time>2022-05-21 05:54:36</time>
      </trkpt>
      <trkpt lat="42.12006" lon="2.45586">
        <ele>483.4</ele>
        <time>2022-05-21 05:54:37</time>
      </trkpt>
      <trkpt lat="42.12007" lon="2.45591">
        <ele>483.4</ele>
        <time>2022-05-21 05:54:38</time>
      </trkpt>
      <trkpt lat="42.12008" lon="2.45595">
        <ele>483.6</ele>
        <time>2022-05-21 05:54:39</time>
      </trkpt>
      <trkpt lat="42.12009" lon="2.45599">
        <ele>483.6</ele>
        <time>2022-05-21 05:54:40</time>
      </trkpt>
      <trkpt lat="42.1201" lon="2.45604">
        <ele>483.8</ele>
        <time>2022-05-21 05:54:41</time>
      </trkpt>
      <trkpt lat="42.12011" lon="2.45608">
        <ele>484</ele>
        <time>2022-05-21 05:54:42</time>
      </trkpt>
      <trkpt lat="42.12012" lon="2.45612">
        <ele>484</ele>
        <time>2022-05-21 05:54:43</time>
      </trkpt>
      <trkpt lat="42.12014" lon="2.45615">
        <ele>484.2</ele>
        <time>2022-05-21 05:54:44</time>
      </trkpt>
      <trkpt lat="42.12016" lon="2.45618">
        <ele>484.2</ele>
        <time>2022-05-21 05:54:45</time>
      </trkpt>
      <trkpt lat="42.12018" lon="2.4562">
        <ele>484.4</ele>
        <time>2022-05-21 05:54:46</time>
      </trkpt>
      <trkpt lat="42.1202" lon="2.45623">
        <ele>484.4</ele>
        <time>2022-05-21 05:54:47</time>
      </trkpt>
      <trkpt lat="42.12019" lon="2.45627">
        <ele>484.6</ele>
        <time>2022-05-21 05:54:48</time>
      </trkpt>
      <trkpt lat="42.12021" lon="2.45632">
        <ele>484.6</ele>
        <time>2022-05-21 05:54:49</time>
      </trkpt>
      <trkpt lat="42.12024" lon="2.45636">
        <ele>484.8</ele>
        <time>2022-05-21 05:54:50</time>
      </trkpt>
      <trkpt lat="42.12025" lon="2.4564">
        <ele>484.8</ele>
        <time>2022-05-21 05:54:51</time>
      </trkpt>
      <trkpt lat="42.12027" lon="2.45643">
        <ele>485</ele>
        <time>2022-05-21 05:54:52</time>
      </trkpt>
      <trkpt lat="42.12028" lon="2.45647">
        <ele>485.2</ele>
        <time>2022-05-21 05:54:53</time>
      </trkpt>
      <trkpt lat="42.1203" lon="2.45651">
        <ele>485.4</ele>
        <time>2022-05-21 05:54:54</time>
      </trkpt>
      <trkpt lat="42.12032" lon="2.45655">
        <ele>485.6</ele>
        <time>2022-05-21 05:54:55</time>
      </trkpt>
      <trkpt lat="42.12034" lon="2.45658">
        <ele>485.6</ele>
        <time>2022-05-21 05:54:56</time>
      </trkpt>
      <trkpt lat="42.12036" lon="2.45661">
        <ele>485.8</ele>
        <time>2022-05-21 05:54:57</time>
      </trkpt>
      <trkpt lat="42.12037" lon="2.45664">
        <ele>486</ele>
        <time>2022-05-21 05:54:58</time>
      </trkpt>
      <trkpt lat="42.12039" lon="2.45668">
        <ele>486</ele>
        <time>2022-05-21 05:54:59</time>
      </trkpt>
      <trkpt lat="42.1204" lon="2.45672">
        <ele>486.2</ele>
        <time>2022-05-21 05:55:00</time>
      </trkpt>
      <trkpt lat="42.12041" lon="2.45675">
        <ele>486.2</ele>
        <time>2022-05-21 05:55:01</time>
      </trkpt>
      <trkpt lat="42.12043" lon="2.45679">
        <ele>486.4</ele>
        <time>2022-05-21 05:55:02</time>
      </trkpt>
      <trkpt lat="42.12045" lon="2.45682">
        <ele>486.6</ele>
        <time>2022-05-21 05:55:03</time>
      </trkpt>
      <trkpt lat="42.12047" lon="2.45685">
        <ele>486.8</ele>
        <time>2022-05-21 05:55:04</time>
      </trkpt>
      <trkpt lat="42.12048" lon="2.45689">
        <ele>486.8</ele>
        <time>2022-05-21 05:55:05</time>
      </trkpt>
      <trkpt lat="42.1205" lon="2.45692">
        <ele>487</ele>
        <time>2022-05-21 05:55:06</time>
      </trkpt>
      <trkpt lat="42.12052" lon="2.45696">
        <ele>487.2</ele>
        <time>2022-05-21 05:55:07</time>
      </trkpt>
      <trkpt lat="42.12054" lon="2.457">
        <ele>487.2</ele>
        <time>2022-05-21 05:55:08</time>
      </trkpt>
      <trkpt lat="42.12056" lon="2.45703">
        <ele>487.4</ele>
        <time>2022-05-21 05:55:09</time>
      </trkpt>
      <trkpt lat="42.12057" lon="2.45707">
        <ele>487.4</ele>
        <time>2022-05-21 05:55:10</time>
      </trkpt>
      <trkpt lat="42.12059" lon="2.45711">
        <ele>487.6</ele>
        <time>2022-05-21 05:55:11</time>
      </trkpt>
      <trkpt lat="42.12061" lon="2.45715">
        <ele>487.6</ele>
        <time>2022-05-21 05:55:12</time>
      </trkpt>
      <trkpt lat="42.12063" lon="2.45718">
        <ele>487.8</ele>
        <time>2022-05-21 05:55:13</time>
      </trkpt>
      <trkpt lat="42.12065" lon="2.45722">
        <ele>488</ele>
        <time>2022-05-21 05:55:14</time>
      </trkpt>
      <trkpt lat="42.12066" lon="2.45726">
        <ele>488</ele>
        <time>2022-05-21 05:55:15</time>
      </trkpt>
      <trkpt lat="42.12067" lon="2.4573">
        <ele>488.2</ele>
        <time>2022-05-21 05:55:16</time>
      </trkpt>
      <trkpt lat="42.12068" lon="2.45734">
        <ele>488.4</ele>
        <time>2022-05-21 05:55:17</time>
      </trkpt>
      <trkpt lat="42.12068" lon="2.45739">
        <ele>488.4</ele>
        <time>2022-05-21 05:55:18</time>
      </trkpt>
      <trkpt lat="42.12068" lon="2.45743">
        <ele>488.6</ele>
        <time>2022-05-21 05:55:19</time>
      </trkpt>
      <trkpt lat="42.12068" lon="2.45748">
        <ele>488.8</ele>
        <time>2022-05-21 05:55:20</time>
      </trkpt>
      <trkpt lat="42.12067" lon="2.45753">
        <ele>489</ele>
        <time>2022-05-21 05:55:21</time>
      </trkpt>
      <trkpt lat="42.12066" lon="2.45757">
        <ele>489</ele>
        <time>2022-05-21 05:55:22</time>
      </trkpt>
      <trkpt lat="42.12064" lon="2.45761">
        <ele>489.2</ele>
        <time>2022-05-21 05:55:23</time>
      </trkpt>
      <trkpt lat="42.12062" lon="2.45764">
        <ele>489.4</ele>
        <time>2022-05-21 05:55:24</time>
      </trkpt>
      <trkpt lat="42.12059" lon="2.45766">
        <ele>489.6</ele>
        <time>2022-05-21 05:55:25</time>
      </trkpt>
      <trkpt lat="42.12056" lon="2.45769">
        <ele>489.8</ele>
        <time>2022-05-21 05:55:26</time>
      </trkpt>
      <trkpt lat="42.12052" lon="2.4577">
        <ele>490</ele>
        <time>2022-05-21 05:55:27</time>
      </trkpt>
      <trkpt lat="42.12049" lon="2.45771">
        <ele>490.2</ele>
        <time>2022-05-21 05:55:28</time>
      </trkpt>
      <trkpt lat="42.12045" lon="2.45772">
        <ele>490.4</ele>
        <time>2022-05-21 05:55:29</time>
      </trkpt>
      <trkpt lat="42.12041" lon="2.45772">
        <ele>490.6</ele>
        <time>2022-05-21 05:55:30</time>
      </trkpt>
      <trkpt lat="42.12038" lon="2.45772">
        <ele>490.6</ele>
        <time>2022-05-21 05:55:31</time>
      </trkpt>
      <trkpt lat="42.12034" lon="2.45772">
        <ele>490.8</ele>
        <time>2022-05-21 05:55:32</time>
      </trkpt>
      <trkpt lat="42.12031" lon="2.45771">
        <ele>491</ele>
        <time>2022-05-21 05:55:33</time>
      </trkpt>
      <trkpt lat="42.12028" lon="2.4577">
        <ele>491.2</ele>
        <time>2022-05-21 05:55:34</time>
      </trkpt>
      <trkpt lat="42.12025" lon="2.4577">
        <ele>491.4</ele>
        <time>2022-05-21 05:55:35</time>
      </trkpt>
      <trkpt lat="42.12022" lon="2.45769">
        <ele>491.4</ele>
        <time>2022-05-21 05:55:36</time>
      </trkpt>
      <trkpt lat="42.12018" lon="2.45769">
        <ele>491.6</ele>
        <time>2022-05-21 05:55:37</time>
      </trkpt>
      <trkpt lat="42.12015" lon="2.45769">
        <ele>491.8</ele>
        <time>2022-05-21 05:55:38</time>
      </trkpt>
      <trkpt lat="42.12012" lon="2.4577">
        <ele>492</ele>
        <time>2022-05-21 05:55:39</time>
      </trkpt>
      <trkpt lat="42.12009" lon="2.45771">
        <ele>492.2</ele>
        <time>2022-05-21 05:55:40</time>
      </trkpt>
      <trkpt lat="42.12006" lon="2.45771">
        <ele>492.4</ele>
        <time>2022-05-21 05:55:41</time>
      </trkpt>
      <trkpt lat="42.12003" lon="2.45773">
        <ele>492.6</ele>
        <time>2022-05-21 05:55:42</time>
      </trkpt>
      <trkpt lat="42.12" lon="2.45774">
        <ele>492.6</ele>
        <time>2022-05-21 05:55:43</time>
      </trkpt>
      <trkpt lat="42.11997" lon="2.45776">
        <ele>492.8</ele>
        <time>2022-05-21 05:55:44</time>
      </trkpt>
      <trkpt lat="42.11994" lon="2.45777">
        <ele>492.8</ele>
        <time>2022-05-21 05:55:45</time>
      </trkpt>
      <trkpt lat="42.11991" lon="2.45779">
        <ele>493</ele>
        <time>2022-05-21 05:55:46</time>
      </trkpt>
      <trkpt lat="42.11988" lon="2.45781">
        <ele>493.2</ele>
        <time>2022-05-21 05:55:47</time>
      </trkpt>
      <trkpt lat="42.11986" lon="2.45783">
        <ele>493.4</ele>
        <time>2022-05-21 05:55:48</time>
      </trkpt>
      <trkpt lat="42.11982" lon="2.45785">
        <ele>493.6</ele>
        <time>2022-05-21 05:55:49</time>
      </trkpt>
      <trkpt lat="42.1198" lon="2.45788">
        <ele>493.8</ele>
        <time>2022-05-21 05:55:50</time>
      </trkpt>
      <trkpt lat="42.11978" lon="2.45791">
        <ele>493.8</ele>
        <time>2022-05-21 05:55:51</time>
      </trkpt>
      <trkpt lat="42.11975" lon="2.45794">
        <ele>494</ele>
        <time>2022-05-21 05:55:52</time>
      </trkpt>
      <trkpt lat="42.11973" lon="2.45797">
        <ele>494.2</ele>
        <time>2022-05-21 05:55:53</time>
      </trkpt>
      <trkpt lat="42.11971" lon="2.458">
        <ele>494.2</ele>
        <time>2022-05-21 05:55:54</time>
      </trkpt>
      <trkpt lat="42.11969" lon="2.45804">
        <ele>494.4</ele>
        <time>2022-05-21 05:55:55</time>
      </trkpt>
      <trkpt lat="42.11967" lon="2.45808">
        <ele>494.4</ele>
        <time>2022-05-21 05:55:56</time>
      </trkpt>
      <trkpt lat="42.11966" lon="2.45812">
        <ele>494.6</ele>
        <time>2022-05-21 05:55:57</time>
      </trkpt>
      <trkpt lat="42.11964" lon="2.45815">
        <ele>494.8</ele>
        <time>2022-05-21 05:55:58</time>
      </trkpt>
      <trkpt lat="42.11962" lon="2.45819">
        <ele>495</ele>
        <time>2022-05-21 05:55:59</time>
      </trkpt>
      <trkpt lat="42.11961" lon="2.45823">
        <ele>495</ele>
        <time>2022-05-21 05:56:00</time>
      </trkpt>
      <trkpt lat="42.11959" lon="2.45827">
        <ele>495.2</ele>
        <time>2022-05-21 05:56:01</time>
      </trkpt>
      <trkpt lat="42.11958" lon="2.4583">
        <ele>495.4</ele>
        <time>2022-05-21 05:56:02</time>
      </trkpt>
      <trkpt lat="42.11958" lon="2.45834">
        <ele>495.4</ele>
        <time>2022-05-21 05:56:03</time>
      </trkpt>
      <trkpt lat="42.11956" lon="2.45838">
        <ele>495.6</ele>
        <time>2022-05-21 05:56:04</time>
      </trkpt>
      <trkpt lat="42.11955" lon="2.45842">
        <ele>495.6</ele>
        <time>2022-05-21 05:56:05</time>
      </trkpt>
      <trkpt lat="42.11954" lon="2.45846">
        <ele>495.8</ele>
        <time>2022-05-21 05:56:06</time>
      </trkpt>
      <trkpt lat="42.11952" lon="2.45849">
        <ele>496</ele>
        <time>2022-05-21 05:56:07</time>
      </trkpt>
      <trkpt lat="42.11951" lon="2.45853">
        <ele>496</ele>
        <time>2022-05-21 05:56:08</time>
      </trkpt>
      <trkpt lat="42.11949" lon="2.45857">
        <ele>496.2</ele>
        <time>2022-05-21 05:56:09</time>
      </trkpt>
      <trkpt lat="42.11948" lon="2.4586">
        <ele>496.4</ele>
        <time>2022-05-21 05:56:10</time>
      </trkpt>
      <trkpt lat="42.11946" lon="2.45864">
        <ele>496.6</ele>
        <time>2022-05-21 05:56:11</time>
      </trkpt>
      <trkpt lat="42.11945" lon="2.45867">
        <ele>496.6</ele>
        <time>2022-05-21 05:56:12</time>
      </trkpt>
      <trkpt lat="42.11943" lon="2.45871">
        <ele>496.8</ele>
        <time>2022-05-21 05:56:13</time>
      </trkpt>
      <trkpt lat="42.11942" lon="2.45874">
        <ele>497</ele>
        <time>2022-05-21 05:56:14</time>
      </trkpt>
      <trkpt lat="42.1194" lon="2.45878">
        <ele>497</ele>
        <time>2022-05-21 05:56:15</time>
      </trkpt>
      <trkpt lat="42.11939" lon="2.45881">
        <ele>497.2</ele>
        <time>2022-05-21 05:56:16</time>
      </trkpt>
      <trkpt lat="42.11937" lon="2.45885">
        <ele>497.4</ele>
        <time>2022-05-21 05:56:17</time>
      </trkpt>
      <trkpt lat="42.11935" lon="2.45888">
        <ele>497.6</ele>
        <time>2022-05-21 05:56:18</time>
      </trkpt>
      <trkpt lat="42.11934" lon="2.45892">
        <ele>497.6</ele>
        <time>2022-05-21 05:56:19</time>
      </trkpt>
      <trkpt lat="42.11932" lon="2.45896">
        <ele>497.8</ele>
        <time>2022-05-21 05:56:20</time>
      </trkpt>
      <trkpt lat="42.1193" lon="2.45899">
        <ele>498</ele>
        <time>2022-05-21 05:56:21</time>
      </trkpt>
      <trkpt lat="42.11928" lon="2.45902">
        <ele>498.2</ele>
        <time>2022-05-21 05:56:22</time>
      </trkpt>
      <trkpt lat="42.11926" lon="2.45905">
        <ele>498.4</ele>
        <time>2022-05-21 05:56:23</time>
      </trkpt>
      <trkpt lat="42.11924" lon="2.45908">
        <ele>498.4</ele>
        <time>2022-05-21 05:56:24</time>
      </trkpt>
      <trkpt lat="42.11922" lon="2.45912">
        <ele>498.6</ele>
        <time>2022-05-21 05:56:25</time>
      </trkpt>
      <trkpt lat="42.1192" lon="2.45915">
        <ele>498.8</ele>
        <time>2022-05-21 05:56:26</time>
      </trkpt>
      <trkpt lat="42.11918" lon="2.45917">
        <ele>499</ele>
        <time>2022-05-21 05:56:27</time>
      </trkpt>
      <trkpt lat="42.11916" lon="2.4592">
        <ele>499</ele>
        <time>2022-05-21 05:56:28</time>
      </trkpt>
      <trkpt lat="42.11914" lon="2.45924">
        <ele>499.2</ele>
        <time>2022-05-21 05:56:29</time>
      </trkpt>
      <trkpt lat="42.11912" lon="2.45927">
        <ele>499.4</ele>
        <time>2022-05-21 05:56:30</time>
      </trkpt>
      <trkpt lat="42.11911" lon="2.4593">
        <ele>499.6</ele>
        <time>2022-05-21 05:56:31</time>
      </trkpt>
      <trkpt lat="42.1191" lon="2.45934">
        <ele>499.6</ele>
        <time>2022-05-21 05:56:32</time>
      </trkpt>
      <trkpt lat="42.11909" lon="2.45938">
        <ele>500</ele>
        <time>2022-05-21 05:56:33</time>
      </trkpt>
      <trkpt lat="42.11907" lon="2.45942">
        <ele>500.2</ele>
        <time>2022-05-21 05:56:34</time>
      </trkpt>
      <trkpt lat="42.11906" lon="2.45947">
        <ele>500.2</ele>
        <time>2022-05-21 05:56:35</time>
      </trkpt>
      <trkpt lat="42.11905" lon="2.45952">
        <ele>500.4</ele>
        <time>2022-05-21 05:56:36</time>
      </trkpt>
      <trkpt lat="42.11904" lon="2.45957">
        <ele>500.6</ele>
        <time>2022-05-21 05:56:37</time>
      </trkpt>
      <trkpt lat="42.11904" lon="2.45962">
        <ele>500.8</ele>
        <time>2022-05-21 05:56:38</time>
      </trkpt>
      <trkpt lat="42.11903" lon="2.45967">
        <ele>500.8</ele>
        <time>2022-05-21 05:56:39</time>
      </trkpt>
      <trkpt lat="42.11904" lon="2.45971">
        <ele>500.8</ele>
        <time>2022-05-21 05:56:40</time>
      </trkpt>
      <trkpt lat="42.11905" lon="2.45976">
        <ele>501</ele>
        <time>2022-05-21 05:56:41</time>
      </trkpt>
      <trkpt lat="42.11905" lon="2.45981">
        <ele>501</ele>
        <time>2022-05-21 05:56:42</time>
      </trkpt>
      <trkpt lat="42.11906" lon="2.45986">
        <ele>501</ele>
        <time>2022-05-21 05:56:43</time>
      </trkpt>
      <trkpt lat="42.11908" lon="2.45992">
        <ele>501</ele>
        <time>2022-05-21 05:56:44</time>
      </trkpt>
      <trkpt lat="42.1191" lon="2.45998">
        <ele>500.8</ele>
        <time>2022-05-21 05:56:45</time>
      </trkpt>
      <trkpt lat="42.11912" lon="2.46005">
        <ele>500.6</ele>
        <time>2022-05-21 05:56:46</time>
      </trkpt>
      <trkpt lat="42.11914" lon="2.46012">
        <ele>500.4</ele>
        <time>2022-05-21 05:56:47</time>
      </trkpt>
      <trkpt lat="42.11917" lon="2.46019">
        <ele>500</ele>
        <time>2022-05-21 05:56:48</time>
      </trkpt>
      <trkpt lat="42.1192" lon="2.46026">
        <ele>499.6</ele>
        <time>2022-05-21 05:56:49</time>
      </trkpt>
      <trkpt lat="42.11923" lon="2.46033">
        <ele>499.2</ele>
        <time>2022-05-21 05:56:50</time>
      </trkpt>
      <trkpt lat="42.11925" lon="2.46042">
        <ele>498.8</ele>
        <time>2022-05-21 05:56:51</time>
      </trkpt>
      <trkpt lat="42.11928" lon="2.46052">
        <ele>498.4</ele>
        <time>2022-05-21 05:56:52</time>
      </trkpt>
      <trkpt lat="42.11932" lon="2.46061">
        <ele>498</ele>
        <time>2022-05-21 05:56:53</time>
      </trkpt>
      <trkpt lat="42.11934" lon="2.46071">
        <ele>497.4</ele>
        <time>2022-05-21 05:56:54</time>
      </trkpt>
      <trkpt lat="42.11937" lon="2.46081">
        <ele>497</ele>
        <time>2022-05-21 05:56:55</time>
      </trkpt>
      <trkpt lat="42.1194" lon="2.46092">
        <ele>496.6</ele>
        <time>2022-05-21 05:56:56</time>
      </trkpt>
      <trkpt lat="42.11943" lon="2.46103">
        <ele>496</ele>
        <time>2022-05-21 05:56:57</time>
      </trkpt>
      <trkpt lat="42.11946" lon="2.46113">
        <ele>495.4</ele>
        <time>2022-05-21 05:56:58</time>
      </trkpt>
      <trkpt lat="42.1195" lon="2.46124">
        <ele>494.8</ele>
        <time>2022-05-21 05:56:59</time>
      </trkpt>
      <trkpt lat="42.11953" lon="2.46135">
        <ele>494.4</ele>
        <time>2022-05-21 05:57:00</time>
      </trkpt>
      <trkpt lat="42.11957" lon="2.46147">
        <ele>493.6</ele>
        <time>2022-05-21 05:57:01</time>
      </trkpt>
      <trkpt lat="42.11961" lon="2.46159">
        <ele>493</ele>
        <time>2022-05-21 05:57:02</time>
      </trkpt>
      <trkpt lat="42.11964" lon="2.46172">
        <ele>492.4</ele>
        <time>2022-05-21 05:57:03</time>
      </trkpt>
      <trkpt lat="42.11967" lon="2.46185">
        <ele>491.8</ele>
        <time>2022-05-21 05:57:04</time>
      </trkpt>
      <trkpt lat="42.11969" lon="2.46198">
        <ele>491.2</ele>
        <time>2022-05-21 05:57:05</time>
      </trkpt>
      <trkpt lat="42.11969" lon="2.46212">
        <ele>490.6</ele>
        <time>2022-05-21 05:57:06</time>
      </trkpt>
      <trkpt lat="42.11969" lon="2.46226">
        <ele>490.2</ele>
        <time>2022-05-21 05:57:07</time>
      </trkpt>
      <trkpt lat="42.11967" lon="2.46239">
        <ele>490</ele>
        <time>2022-05-21 05:57:08</time>
      </trkpt>
      <trkpt lat="42.11966" lon="2.46252">
        <ele>489.6</ele>
        <time>2022-05-21 05:57:09</time>
      </trkpt>
      <trkpt lat="42.11964" lon="2.46264">
        <ele>489.4</ele>
        <time>2022-05-21 05:57:10</time>
      </trkpt>
      <trkpt lat="42.11962" lon="2.46276">
        <ele>489.2</ele>
        <time>2022-05-21 05:57:11</time>
      </trkpt>
      <trkpt lat="42.1196" lon="2.46288">
        <ele>489</ele>
        <time>2022-05-21 05:57:12</time>
      </trkpt>
      <trkpt lat="42.11959" lon="2.463">
        <ele>489</ele>
        <time>2022-05-21 05:57:13</time>
      </trkpt>
      <trkpt lat="42.11958" lon="2.46311">
        <ele>489</ele>
        <time>2022-05-21 05:57:14</time>
      </trkpt>
      <trkpt lat="42.11956" lon="2.46322">
        <ele>488.8</ele>
        <time>2022-05-21 05:57:15</time>
      </trkpt>
      <trkpt lat="42.11955" lon="2.46333">
        <ele>488.8</ele>
        <time>2022-05-21 05:57:16</time>
      </trkpt>
      <trkpt lat="42.11954" lon="2.46344">
        <ele>488.8</ele>
        <time>2022-05-21 05:57:17</time>
      </trkpt>
      <trkpt lat="42.11953" lon="2.46355">
        <ele>488.8</ele>
        <time>2022-05-21 05:57:18</time>
      </trkpt>
      <trkpt lat="42.11953" lon="2.46365">
        <ele>488.6</ele>
        <time>2022-05-21 05:57:19</time>
      </trkpt>
      <trkpt lat="42.11954" lon="2.46375">
        <ele>488.6</ele>
        <time>2022-05-21 05:57:20</time>
      </trkpt>
      <trkpt lat="42.11956" lon="2.46385">
        <ele>488.4</ele>
        <time>2022-05-21 05:57:21</time>
      </trkpt>
      <trkpt lat="42.11959" lon="2.46394">
        <ele>488.4</ele>
        <time>2022-05-21 05:57:22</time>
      </trkpt>
      <trkpt lat="42.11963" lon="2.46401">
        <ele>488.4</ele>
        <time>2022-05-21 05:57:23</time>
      </trkpt>
      <trkpt lat="42.11969" lon="2.46407">
        <ele>488.2</ele>
        <time>2022-05-21 05:57:24</time>
      </trkpt>
      <trkpt lat="42.11975" lon="2.46412">
        <ele>488.2</ele>
        <time>2022-05-21 05:57:25</time>
      </trkpt>
      <trkpt lat="42.1198" lon="2.46419">
        <ele>488</ele>
        <time>2022-05-21 05:57:26</time>
      </trkpt>
      <trkpt lat="42.11984" lon="2.46427">
        <ele>488</ele>
        <time>2022-05-21 05:57:27</time>
      </trkpt>
      <trkpt lat="42.11988" lon="2.46436">
        <ele>488</ele>
        <time>2022-05-21 05:57:28</time>
      </trkpt>
      <trkpt lat="42.11991" lon="2.46445">
        <ele>488</ele>
        <time>2022-05-21 05:57:29</time>
      </trkpt>
      <trkpt lat="42.11993" lon="2.46453">
        <ele>488</ele>
        <time>2022-05-21 05:57:30</time>
      </trkpt>
      <trkpt lat="42.11995" lon="2.46462">
        <ele>488</ele>
        <time>2022-05-21 05:57:31</time>
      </trkpt>
      <trkpt lat="42.11997" lon="2.4647">
        <ele>488.2</ele>
        <time>2022-05-21 05:57:32</time>
      </trkpt>
      <trkpt lat="42.11999" lon="2.46478">
        <ele>488.2</ele>
        <time>2022-05-21 05:57:33</time>
      </trkpt>
      <trkpt lat="42.12001" lon="2.46485">
        <ele>488.4</ele>
        <time>2022-05-21 05:57:34</time>
      </trkpt>
      <trkpt lat="42.12004" lon="2.46492">
        <ele>488.4</ele>
        <time>2022-05-21 05:57:35</time>
      </trkpt>
      <trkpt lat="42.12006" lon="2.465">
        <ele>488.6</ele>
        <time>2022-05-21 05:57:36</time>
      </trkpt>
      <trkpt lat="42.12007" lon="2.46507">
        <ele>488.8</ele>
        <time>2022-05-21 05:57:37</time>
      </trkpt>
      <trkpt lat="42.12008" lon="2.46515">
        <ele>488.8</ele>
        <time>2022-05-21 05:57:38</time>
      </trkpt>
      <trkpt lat="42.1201" lon="2.46522">
        <ele>489</ele>
        <time>2022-05-21 05:57:39</time>
      </trkpt>
      <trkpt lat="42.12012" lon="2.46528">
        <ele>489.2</ele>
        <time>2022-05-21 05:57:40</time>
      </trkpt>
      <trkpt lat="42.12014" lon="2.46534">
        <ele>489.4</ele>
        <time>2022-05-21 05:57:41</time>
      </trkpt>
      <trkpt lat="42.12016" lon="2.4654">
        <ele>489.4</ele>
        <time>2022-05-21 05:57:42</time>
      </trkpt>
      <trkpt lat="42.12017" lon="2.46546">
        <ele>489.6</ele>
        <time>2022-05-21 05:57:43</time>
      </trkpt>
      <trkpt lat="42.12018" lon="2.46552">
        <ele>489.6</ele>
        <time>2022-05-21 05:57:44</time>
      </trkpt>
      <trkpt lat="42.1202" lon="2.46558">
        <ele>489.8</ele>
        <time>2022-05-21 05:57:45</time>
      </trkpt>
      <trkpt lat="42.12021" lon="2.46563">
        <ele>489.8</ele>
        <time>2022-05-21 05:57:46</time>
      </trkpt>
      <trkpt lat="42.12022" lon="2.46569">
        <ele>490</ele>
        <time>2022-05-21 05:57:47</time>
      </trkpt>
      <trkpt lat="42.12024" lon="2.46575">
        <ele>490</ele>
        <time>2022-05-21 05:57:48</time>
      </trkpt>
      <trkpt lat="42.12024" lon="2.46581">
        <ele>490.2</ele>
        <time>2022-05-21 05:57:49</time>
      </trkpt>
      <trkpt lat="42.12025" lon="2.46587">
        <ele>490.2</ele>
        <time>2022-05-21 05:57:50</time>
      </trkpt>
      <trkpt lat="42.12026" lon="2.46594">
        <ele>490.4</ele>
        <time>2022-05-21 05:57:51</time>
      </trkpt>
      <trkpt lat="42.12027" lon="2.466">
        <ele>490.4</ele>
        <time>2022-05-21 05:57:52</time>
      </trkpt>
      <trkpt lat="42.12028" lon="2.46606">
        <ele>490.6</ele>
        <time>2022-05-21 05:57:53</time>
      </trkpt>
      <trkpt lat="42.12029" lon="2.46611">
        <ele>490.8</ele>
        <time>2022-05-21 05:57:54</time>
      </trkpt>
      <trkpt lat="42.1203" lon="2.46617">
        <ele>490.8</ele>
        <time>2022-05-21 05:57:55</time>
      </trkpt>
      <trkpt lat="42.1203" lon="2.46623">
        <ele>491</ele>
        <time>2022-05-21 05:57:56</time>
      </trkpt>
      <trkpt lat="42.1203" lon="2.46629">
        <ele>491</ele>
        <time>2022-05-21 05:57:57</time>
      </trkpt>
      <trkpt lat="42.1203" lon="2.46635">
        <ele>491</ele>
        <time>2022-05-21 05:57:58</time>
      </trkpt>
      <trkpt lat="42.12029" lon="2.46641">
        <ele>491</ele>
        <time>2022-05-21 05:57:59</time>
      </trkpt>
      <trkpt lat="42.12027" lon="2.46647">
        <ele>491</ele>
        <time>2022-05-21 05:58:00</time>
      </trkpt>
      <trkpt lat="42.12026" lon="2.46653">
        <ele>491</ele>
        <time>2022-05-21 05:58:01</time>
      </trkpt>
      <trkpt lat="42.12024" lon="2.46658">
        <ele>491.2</ele>
        <time>2022-05-21 05:58:02</time>
      </trkpt>
      <trkpt lat="42.12023" lon="2.46664">
        <ele>491.2</ele>
        <time>2022-05-21 05:58:03</time>
      </trkpt>
      <trkpt lat="42.12021" lon="2.4667">
        <ele>491.2</ele>
        <time>2022-05-21 05:58:04</time>
      </trkpt>
      <trkpt lat="42.12019" lon="2.46676">
        <ele>491.2</ele>
        <time>2022-05-21 05:58:05</time>
      </trkpt>
      <trkpt lat="42.12017" lon="2.46681">
        <ele>491.2</ele>
        <time>2022-05-21 05:58:06</time>
      </trkpt>
      <trkpt lat="42.12014" lon="2.46687">
        <ele>491.2</ele>
        <time>2022-05-21 05:58:07</time>
      </trkpt>
      <trkpt lat="42.12012" lon="2.46693">
        <ele>491.2</ele>
        <time>2022-05-21 05:58:08</time>
      </trkpt>
      <trkpt lat="42.1201" lon="2.467">
        <ele>491.2</ele>
        <time>2022-05-21 05:58:09</time>
      </trkpt>
      <trkpt lat="42.12008" lon="2.46706">
        <ele>491.2</ele>
        <time>2022-05-21 05:58:10</time>
      </trkpt>
      <trkpt lat="42.12006" lon="2.46713">
        <ele>491.2</ele>
        <time>2022-05-21 05:58:11</time>
      </trkpt>
      <trkpt lat="42.12004" lon="2.46719">
        <ele>491.2</ele>
        <time>2022-05-21 05:58:12</time>
      </trkpt>
      <trkpt lat="42.12003" lon="2.46725">
        <ele>491.4</ele>
        <time>2022-05-21 05:58:13</time>
      </trkpt>
      <trkpt lat="42.12001" lon="2.46731">
        <ele>491.4</ele>
        <time>2022-05-21 05:58:14</time>
      </trkpt>
      <trkpt lat="42.12001" lon="2.46738">
        <ele>491.6</ele>
        <time>2022-05-21 05:58:15</time>
      </trkpt>
      <trkpt lat="42.12002" lon="2.46744">
        <ele>491.6</ele>
        <time>2022-05-21 05:58:16</time>
      </trkpt>
      <trkpt lat="42.12003" lon="2.46749">
        <ele>491.8</ele>
        <time>2022-05-21 05:58:17</time>
      </trkpt>
      <trkpt lat="42.12004" lon="2.46754">
        <ele>492</ele>
        <time>2022-05-21 05:58:18</time>
      </trkpt>
      <trkpt lat="42.12006" lon="2.4676">
        <ele>492</ele>
        <time>2022-05-21 05:58:19</time>
      </trkpt>
      <trkpt lat="42.12008" lon="2.46765">
        <ele>492.2</ele>
        <time>2022-05-21 05:58:20</time>
      </trkpt>
      <trkpt lat="42.12009" lon="2.46771">
        <ele>492.4</ele>
        <time>2022-05-21 05:58:21</time>
      </trkpt>
      <trkpt lat="42.12011" lon="2.46776">
        <ele>492.4</ele>
        <time>2022-05-21 05:58:22</time>
      </trkpt>
      <trkpt lat="42.12012" lon="2.46781">
        <ele>492.6</ele>
        <time>2022-05-21 05:58:23</time>
      </trkpt>
      <trkpt lat="42.12014" lon="2.46787">
        <ele>492.8</ele>
        <time>2022-05-21 05:58:24</time>
      </trkpt>
      <trkpt lat="42.12016" lon="2.46792">
        <ele>492.8</ele>
        <time>2022-05-21 05:58:25</time>
      </trkpt>
      <trkpt lat="42.12018" lon="2.46797">
        <ele>493</ele>
        <time>2022-05-21 05:58:26</time>
      </trkpt>
      <trkpt lat="42.1202" lon="2.46803">
        <ele>493.2</ele>
        <time>2022-05-21 05:58:27</time>
      </trkpt>
      <trkpt lat="42.12021" lon="2.46808">
        <ele>493.2</ele>
        <time>2022-05-21 05:58:28</time>
      </trkpt>
      <trkpt lat="42.12023" lon="2.46813">
        <ele>493.4</ele>
        <time>2022-05-21 05:58:29</time>
      </trkpt>
      <trkpt lat="42.12025" lon="2.46818">
        <ele>493.6</ele>
        <time>2022-05-21 05:58:30</time>
      </trkpt>
      <trkpt lat="42.12027" lon="2.46823">
        <ele>493.8</ele>
        <time>2022-05-21 05:58:31</time>
      </trkpt>
      <trkpt lat="42.12029" lon="2.46827">
        <ele>494</ele>
        <time>2022-05-21 05:58:32</time>
      </trkpt>
      <trkpt lat="42.1203" lon="2.46832">
        <ele>494.2</ele>
        <time>2022-05-21 05:58:33</time>
      </trkpt>
      <trkpt lat="42.12032" lon="2.46837">
        <ele>494.4</ele>
        <time>2022-05-21 05:58:34</time>
      </trkpt>
      <trkpt lat="42.12034" lon="2.46841">
        <ele>494.4</ele>
        <time>2022-05-21 05:58:35</time>
      </trkpt>
      <trkpt lat="42.12035" lon="2.46845">
        <ele>494.6</ele>
        <time>2022-05-21 05:58:36</time>
      </trkpt>
      <trkpt lat="42.12036" lon="2.46847">
        <ele>494.8</ele>
        <time>2022-05-21 05:58:37</time>
      </trkpt>
      <trkpt lat="42.12039" lon="2.46855">
        <ele>495</ele>
        <time>2022-05-21 05:58:38</time>
      </trkpt>
      <trkpt lat="42.1204" lon="2.46859">
        <ele>495</ele>
        <time>2022-05-21 05:58:39</time>
      </trkpt>
      <trkpt lat="42.12041" lon="2.46863">
        <ele>495.2</ele>
        <time>2022-05-21 05:58:40</time>
      </trkpt>
      <trkpt lat="42.12043" lon="2.46867">
        <ele>495.4</ele>
        <time>2022-05-21 05:58:41</time>
      </trkpt>
      <trkpt lat="42.12043" lon="2.46872">
        <ele>495.6</ele>
        <time>2022-05-21 05:58:42</time>
      </trkpt>
      <trkpt lat="42.12045" lon="2.46877">
        <ele>495.8</ele>
        <time>2022-05-21 05:58:43</time>
      </trkpt>
      <trkpt lat="42.12046" lon="2.46881">
        <ele>495.8</ele>
        <time>2022-05-21 05:58:44</time>
      </trkpt>
      <trkpt lat="42.12046" lon="2.46884">
        <ele>496</ele>
        <time>2022-05-21 05:58:45</time>
      </trkpt>
      <trkpt lat="42.12048" lon="2.46891">
        <ele>496.2</ele>
        <time>2022-05-21 05:58:46</time>
      </trkpt>
      <trkpt lat="42.12049" lon="2.46896">
        <ele>496.2</ele>
        <time>2022-05-21 05:58:47</time>
      </trkpt>
      <trkpt lat="42.1205" lon="2.469">
        <ele>496.4</ele>
        <time>2022-05-21 05:58:48</time>
      </trkpt>
      <trkpt lat="42.12051" lon="2.46905">
        <ele>496.6</ele>
        <time>2022-05-21 05:58:49</time>
      </trkpt>
      <trkpt lat="42.12052" lon="2.46909">
        <ele>496.6</ele>
        <time>2022-05-21 05:58:50</time>
      </trkpt>
      <trkpt lat="42.12053" lon="2.46913">
        <ele>496.8</ele>
        <time>2022-05-21 05:58:51</time>
      </trkpt>
      <trkpt lat="42.12053" lon="2.46919">
        <ele>497</ele>
        <time>2022-05-21 05:58:52</time>
      </trkpt>
      <trkpt lat="42.12054" lon="2.46924">
        <ele>497.2</ele>
        <time>2022-05-21 05:58:53</time>
      </trkpt>
      <trkpt lat="42.12055" lon="2.46928">
        <ele>497.4</ele>
        <time>2022-05-21 05:58:54</time>
      </trkpt>
      <trkpt lat="42.12056" lon="2.46933">
        <ele>497.4</ele>
        <time>2022-05-21 05:58:55</time>
      </trkpt>
      <trkpt lat="42.12056" lon="2.46937">
        <ele>497.6</ele>
        <time>2022-05-21 05:58:56</time>
      </trkpt>
      <trkpt lat="42.12057" lon="2.46941">
        <ele>497.6</ele>
        <time>2022-05-21 05:58:57</time>
      </trkpt>
      <trkpt lat="42.12057" lon="2.46947">
        <ele>497.8</ele>
        <time>2022-05-21 05:58:58</time>
      </trkpt>
      <trkpt lat="42.12058" lon="2.46952">
        <ele>498</ele>
        <time>2022-05-21 05:58:59</time>
      </trkpt>
      <trkpt lat="42.12059" lon="2.46956">
        <ele>498.2</ele>
        <time>2022-05-21 05:59:00</time>
      </trkpt>
      <trkpt lat="42.12059" lon="2.46961">
        <ele>498.4</ele>
        <time>2022-05-21 05:59:01</time>
      </trkpt>
      <trkpt lat="42.12059" lon="2.46965">
        <ele>498.4</ele>
        <time>2022-05-21 05:59:02</time>
      </trkpt>
      <trkpt lat="42.1206" lon="2.46968">
        <ele>498.6</ele>
        <time>2022-05-21 05:59:03</time>
      </trkpt>
      <trkpt lat="42.1206" lon="2.46975">
        <ele>498.8</ele>
        <time>2022-05-21 05:59:04</time>
      </trkpt>
      <trkpt lat="42.12061" lon="2.46979">
        <ele>499</ele>
        <time>2022-05-21 05:59:05</time>
      </trkpt>
      <trkpt lat="42.12061" lon="2.46983">
        <ele>499</ele>
        <time>2022-05-21 05:59:06</time>
      </trkpt>
      <trkpt lat="42.12061" lon="2.46988">
        <ele>499.2</ele>
        <time>2022-05-21 05:59:07</time>
      </trkpt>
      <trkpt lat="42.1206" lon="2.46992">
        <ele>499.2</ele>
        <time>2022-05-21 05:59:08</time>
      </trkpt>
      <trkpt lat="42.12061" lon="2.46995">
        <ele>499.4</ele>
        <time>2022-05-21 05:59:09</time>
      </trkpt>
      <trkpt lat="42.12061" lon="2.47001">
        <ele>499.6</ele>
        <time>2022-05-21 05:59:10</time>
      </trkpt>
      <trkpt lat="42.12061" lon="2.47005">
        <ele>499.8</ele>
        <time>2022-05-21 05:59:11</time>
      </trkpt>
      <trkpt lat="42.12061" lon="2.47009">
        <ele>499.8</ele>
        <time>2022-05-21 05:59:12</time>
      </trkpt>
      <trkpt lat="42.12061" lon="2.47014">
        <ele>500</ele>
        <time>2022-05-21 05:59:13</time>
      </trkpt>
      <trkpt lat="42.12061" lon="2.47018">
        <ele>500.2</ele>
        <time>2022-05-21 05:59:14</time>
      </trkpt>
      <trkpt lat="42.12061" lon="2.47022">
        <ele>500.4</ele>
        <time>2022-05-21 05:59:15</time>
      </trkpt>
      <trkpt lat="42.12061" lon="2.47026">
        <ele>500.6</ele>
        <time>2022-05-21 05:59:16</time>
      </trkpt>
      <trkpt lat="42.12061" lon="2.4703">
        <ele>500.6</ele>
        <time>2022-05-21 05:59:17</time>
      </trkpt>
      <trkpt lat="42.12061" lon="2.47034">
        <ele>500.8</ele>
        <time>2022-05-21 05:59:18</time>
      </trkpt>
      <trkpt lat="42.12061" lon="2.47039">
        <ele>500.8</ele>
        <time>2022-05-21 05:59:19</time>
      </trkpt>
      <trkpt lat="42.12061" lon="2.47042">
        <ele>501</ele>
        <time>2022-05-21 05:59:20</time>
      </trkpt>
      <trkpt lat="42.12061" lon="2.47045">
        <ele>501.2</ele>
        <time>2022-05-21 05:59:21</time>
      </trkpt>
      <trkpt lat="42.12061" lon="2.47051">
        <ele>501.2</ele>
        <time>2022-05-21 05:59:22</time>
      </trkpt>
      <trkpt lat="42.12061" lon="2.47055">
        <ele>501.4</ele>
        <time>2022-05-21 05:59:23</time>
      </trkpt>
      <trkpt lat="42.12061" lon="2.47059">
        <ele>501.6</ele>
        <time>2022-05-21 05:59:24</time>
      </trkpt>
      <trkpt lat="42.12061" lon="2.47064">
        <ele>501.8</ele>
        <time>2022-05-21 05:59:25</time>
      </trkpt>
      <trkpt lat="42.12061" lon="2.47068">
        <ele>501.8</ele>
        <time>2022-05-21 05:59:26</time>
      </trkpt>
      <trkpt lat="42.12062" lon="2.47071">
        <ele>502</ele>
        <time>2022-05-21 05:59:27</time>
      </trkpt>
      <trkpt lat="42.12062" lon="2.47077">
        <ele>502.2</ele>
        <time>2022-05-21 05:59:28</time>
      </trkpt>
      <trkpt lat="42.12063" lon="2.47081">
        <ele>502.4</ele>
        <time>2022-05-21 05:59:29</time>
      </trkpt>
      <trkpt lat="42.12064" lon="2.47085">
        <ele>502.4</ele>
        <time>2022-05-21 05:59:30</time>
      </trkpt>
      <trkpt lat="42.12066" lon="2.47088">
        <ele>502.6</ele>
        <time>2022-05-21 05:59:31</time>
      </trkpt>
      <trkpt lat="42.12069" lon="2.47091">
        <ele>502.6</ele>
        <time>2022-05-21 05:59:32</time>
      </trkpt>
      <trkpt lat="42.12071" lon="2.47094">
        <ele>502.6</ele>
        <time>2022-05-21 05:59:33</time>
      </trkpt>
      <trkpt lat="42.12074" lon="2.47097">
        <ele>502.8</ele>
        <time>2022-05-21 05:59:34</time>
      </trkpt>
      <trkpt lat="42.12077" lon="2.47099">
        <ele>503</ele>
        <time>2022-05-21 05:59:35</time>
      </trkpt>
      <trkpt lat="42.1208" lon="2.47101">
        <ele>503.2</ele>
        <time>2022-05-21 05:59:36</time>
      </trkpt>
      <trkpt lat="42.12083" lon="2.47102">
        <ele>503.2</ele>
        <time>2022-05-21 05:59:37</time>
      </trkpt>
      <trkpt lat="42.12086" lon="2.47103">
        <ele>503.4</ele>
        <time>2022-05-21 05:59:38</time>
      </trkpt>
      <trkpt lat="42.12088" lon="2.47103">
        <ele>503.6</ele>
        <time>2022-05-21 05:59:39</time>
      </trkpt>
      <trkpt lat="42.12093" lon="2.47104">
        <ele>503.6</ele>
        <time>2022-05-21 05:59:40</time>
      </trkpt>
      <trkpt lat="42.12096" lon="2.47103">
        <ele>503.6</ele>
        <time>2022-05-21 05:59:41</time>
      </trkpt>
      <trkpt lat="42.12099" lon="2.47103">
        <ele>503.6</ele>
        <time>2022-05-21 05:59:42</time>
      </trkpt>
      <trkpt lat="42.12103" lon="2.47102">
        <ele>503.8</ele>
        <time>2022-05-21 05:59:43</time>
      </trkpt>
      <trkpt lat="42.12106" lon="2.47101">
        <ele>503.8</ele>
        <time>2022-05-21 05:59:44</time>
      </trkpt>
      <trkpt lat="42.12109" lon="2.471">
        <ele>503.8</ele>
        <time>2022-05-21 05:59:45</time>
      </trkpt>
      <trkpt lat="42.12114" lon="2.471">
        <ele>503.8</ele>
        <time>2022-05-21 05:59:46</time>
      </trkpt>
      <trkpt lat="42.12117" lon="2.47101">
        <ele>504</ele>
        <time>2022-05-21 05:59:47</time>
      </trkpt>
      <trkpt lat="42.1212" lon="2.47103">
        <ele>504.2</ele>
        <time>2022-05-21 05:59:48</time>
      </trkpt>
      <trkpt lat="42.12123" lon="2.47105">
        <ele>504.2</ele>
        <time>2022-05-21 05:59:49</time>
      </trkpt>
      <trkpt lat="42.12126" lon="2.47107">
        <ele>504.4</ele>
        <time>2022-05-21 05:59:50</time>
      </trkpt>
      <trkpt lat="42.12128" lon="2.47109">
        <ele>504.4</ele>
        <time>2022-05-21 05:59:51</time>
      </trkpt>
      <trkpt lat="42.12131" lon="2.47113">
        <ele>504.6</ele>
        <time>2022-05-21 05:59:52</time>
      </trkpt>
      <trkpt lat="42.12133" lon="2.47116">
        <ele>504.8</ele>
        <time>2022-05-21 05:59:53</time>
      </trkpt>
      <trkpt lat="42.12135" lon="2.4712">
        <ele>505</ele>
        <time>2022-05-21 05:59:54</time>
      </trkpt>
      <trkpt lat="42.12138" lon="2.47124">
        <ele>505</ele>
        <time>2022-05-21 05:59:55</time>
      </trkpt>
      <trkpt lat="42.1214" lon="2.47127">
        <ele>505.2</ele>
        <time>2022-05-21 05:59:56</time>
      </trkpt>
      <trkpt lat="42.12141" lon="2.47129">
        <ele>505.4</ele>
        <time>2022-05-21 05:59:57</time>
      </trkpt>
      <trkpt lat="42.12144" lon="2.47134">
        <ele>505.4</ele>
        <time>2022-05-21 05:59:58</time>
      </trkpt>
      <trkpt lat="42.12145" lon="2.47138">
        <ele>505.6</ele>
        <time>2022-05-21 05:59:59</time>
      </trkpt>
      <trkpt lat="42.12146" lon="2.47142">
        <ele>505.8</ele>
        <time>2022-05-21 06:00:00</time>
      </trkpt>
      <trkpt lat="42.12148" lon="2.47146">
        <ele>506</ele>
        <time>2022-05-21 06:00:01</time>
      </trkpt>
      <trkpt lat="42.12149" lon="2.4715">
        <ele>506.2</ele>
        <time>2022-05-21 06:00:02</time>
      </trkpt>
      <trkpt lat="42.1215" lon="2.47153">
        <ele>506.2</ele>
        <time>2022-05-21 06:00:03</time>
      </trkpt>
      <trkpt lat="42.12152" lon="2.47157">
        <ele>506.4</ele>
        <time>2022-05-21 06:00:04</time>
      </trkpt>
      <trkpt lat="42.12153" lon="2.4716">
        <ele>506.6</ele>
        <time>2022-05-21 06:00:05</time>
      </trkpt>
      <trkpt lat="42.12155" lon="2.47163">
        <ele>506.6</ele>
        <time>2022-05-21 06:00:06</time>
      </trkpt>
      <trkpt lat="42.12157" lon="2.47167">
        <ele>506.8</ele>
        <time>2022-05-21 06:00:07</time>
      </trkpt>
      <trkpt lat="42.12158" lon="2.4717">
        <ele>507</ele>
        <time>2022-05-21 06:00:08</time>
      </trkpt>
      <trkpt lat="42.12159" lon="2.47174">
        <ele>507.2</ele>
        <time>2022-05-21 06:00:09</time>
      </trkpt>
      <trkpt lat="42.12161" lon="2.47177">
        <ele>507.4</ele>
        <time>2022-05-21 06:00:10</time>
      </trkpt>
      <trkpt lat="42.12162" lon="2.47181">
        <ele>507.6</ele>
        <time>2022-05-21 06:00:11</time>
      </trkpt>
      <trkpt lat="42.12164" lon="2.47184">
        <ele>507.6</ele>
        <time>2022-05-21 06:00:12</time>
      </trkpt>
      <trkpt lat="42.12165" lon="2.47188">
        <ele>507.8</ele>
        <time>2022-05-21 06:00:13</time>
      </trkpt>
      <trkpt lat="42.12167" lon="2.47191">
        <ele>508</ele>
        <time>2022-05-21 06:00:14</time>
      </trkpt>
      <trkpt lat="42.12168" lon="2.47195">
        <ele>508.2</ele>
        <time>2022-05-21 06:00:15</time>
      </trkpt>
      <trkpt lat="42.1217" lon="2.47198">
        <ele>508.2</ele>
        <time>2022-05-21 06:00:16</time>
      </trkpt>
      <trkpt lat="42.12171" lon="2.47201">
        <ele>508.4</ele>
        <time>2022-05-21 06:00:17</time>
      </trkpt>
      <trkpt lat="42.12172" lon="2.47205">
        <ele>508.6</ele>
        <time>2022-05-21 06:00:18</time>
      </trkpt>
      <trkpt lat="42.12174" lon="2.47208">
        <ele>508.6</ele>
        <time>2022-05-21 06:00:19</time>
      </trkpt>
      <trkpt lat="42.12175" lon="2.47211">
        <ele>508.8</ele>
        <time>2022-05-21 06:00:20</time>
      </trkpt>
      <trkpt lat="42.12177" lon="2.47215">
        <ele>509</ele>
        <time>2022-05-21 06:00:21</time>
      </trkpt>
      <trkpt lat="42.12178" lon="2.47218">
        <ele>509.2</ele>
        <time>2022-05-21 06:00:22</time>
      </trkpt>
      <trkpt lat="42.1218" lon="2.47222">
        <ele>509.2</ele>
        <time>2022-05-21 06:00:23</time>
      </trkpt>
      <trkpt lat="42.12181" lon="2.47225">
        <ele>509.4</ele>
        <time>2022-05-21 06:00:24</time>
      </trkpt>
      <trkpt lat="42.12183" lon="2.47228">
        <ele>509.6</ele>
        <time>2022-05-21 06:00:25</time>
      </trkpt>
      <trkpt lat="42.12184" lon="2.47231">
        <ele>509.6</ele>
        <time>2022-05-21 06:00:26</time>
      </trkpt>
      <trkpt lat="42.12185" lon="2.47234">
        <ele>509.8</ele>
        <time>2022-05-21 06:00:27</time>
      </trkpt>
      <trkpt lat="42.12187" lon="2.47237">
        <ele>510</ele>
        <time>2022-05-21 06:00:28</time>
      </trkpt>
      <trkpt lat="42.12188" lon="2.4724">
        <ele>510.2</ele>
        <time>2022-05-21 06:00:29</time>
      </trkpt>
      <trkpt lat="42.1219" lon="2.47244">
        <ele>510.2</ele>
        <time>2022-05-21 06:00:30</time>
      </trkpt>
      <trkpt lat="42.12191" lon="2.47247">
        <ele>510.4</ele>
        <time>2022-05-21 06:00:31</time>
      </trkpt>
      <trkpt lat="42.12193" lon="2.4725">
        <ele>510.6</ele>
        <time>2022-05-21 06:00:32</time>
      </trkpt>
      <trkpt lat="42.12194" lon="2.47254">
        <ele>510.6</ele>
        <time>2022-05-21 06:00:33</time>
      </trkpt>
      <trkpt lat="42.12196" lon="2.47257">
        <ele>510.8</ele>
        <time>2022-05-21 06:00:34</time>
      </trkpt>
      <trkpt lat="42.12197" lon="2.4726">
        <ele>511</ele>
        <time>2022-05-21 06:00:35</time>
      </trkpt>
      <trkpt lat="42.12199" lon="2.47263">
        <ele>511.2</ele>
        <time>2022-05-21 06:00:36</time>
      </trkpt>
      <trkpt lat="42.12201" lon="2.47266">
        <ele>511.2</ele>
        <time>2022-05-21 06:00:37</time>
      </trkpt>
      <trkpt lat="42.12202" lon="2.47269">
        <ele>511.4</ele>
        <time>2022-05-21 06:00:38</time>
      </trkpt>
      <trkpt lat="42.12204" lon="2.47272">
        <ele>511.6</ele>
        <time>2022-05-21 06:00:39</time>
      </trkpt>
      <trkpt lat="42.12205" lon="2.47275">
        <ele>511.6</ele>
        <time>2022-05-21 06:00:40</time>
      </trkpt>
      <trkpt lat="42.12207" lon="2.47278">
        <ele>511.8</ele>
        <time>2022-05-21 06:00:41</time>
      </trkpt>
      <trkpt lat="42.12208" lon="2.47281">
        <ele>512</ele>
        <time>2022-05-21 06:00:42</time>
      </trkpt>
      <trkpt lat="42.1221" lon="2.47285">
        <ele>512</ele>
        <time>2022-05-21 06:00:43</time>
      </trkpt>
      <trkpt lat="42.12212" lon="2.47288">
        <ele>512.2</ele>
        <time>2022-05-21 06:00:44</time>
      </trkpt>
      <trkpt lat="42.12213" lon="2.47291">
        <ele>512.4</ele>
        <time>2022-05-21 06:00:45</time>
      </trkpt>
      <trkpt lat="42.12215" lon="2.47295">
        <ele>512.4</ele>
        <time>2022-05-21 06:00:46</time>
      </trkpt>
      <trkpt lat="42.12216" lon="2.47298">
        <ele>512.6</ele>
        <time>2022-05-21 06:00:47</time>
      </trkpt>
      <trkpt lat="42.12218" lon="2.47301">
        <ele>512.6</ele>
        <time>2022-05-21 06:00:48</time>
      </trkpt>
      <trkpt lat="42.1222" lon="2.47304">
        <ele>512.8</ele>
        <time>2022-05-21 06:00:49</time>
      </trkpt>
      <trkpt lat="42.12221" lon="2.47307">
        <ele>513</ele>
        <time>2022-05-21 06:00:50</time>
      </trkpt>
      <trkpt lat="42.12223" lon="2.47311">
        <ele>513.2</ele>
        <time>2022-05-21 06:00:51</time>
      </trkpt>
      <trkpt lat="42.12224" lon="2.47314">
        <ele>513.2</ele>
        <time>2022-05-21 06:00:52</time>
      </trkpt>
      <trkpt lat="42.12226" lon="2.47317">
        <ele>513.4</ele>
        <time>2022-05-21 06:00:53</time>
      </trkpt>
      <trkpt lat="42.12228" lon="2.4732">
        <ele>513.4</ele>
        <time>2022-05-21 06:00:54</time>
      </trkpt>
      <trkpt lat="42.1223" lon="2.47323">
        <ele>513.6</ele>
        <time>2022-05-21 06:00:55</time>
      </trkpt>
      <trkpt lat="42.12231" lon="2.47326">
        <ele>513.8</ele>
        <time>2022-05-21 06:00:56</time>
      </trkpt>
      <trkpt lat="42.12232" lon="2.47328">
        <ele>514</ele>
        <time>2022-05-21 06:00:57</time>
      </trkpt>
      <trkpt lat="42.12234" lon="2.47331">
        <ele>514</ele>
        <time>2022-05-21 06:00:58</time>
      </trkpt>
      <trkpt lat="42.12235" lon="2.47334">
        <ele>514.2</ele>
        <time>2022-05-21 06:00:59</time>
      </trkpt>
      <trkpt lat="42.12237" lon="2.47337">
        <ele>514.4</ele>
        <time>2022-05-21 06:01:00</time>
      </trkpt>
      <trkpt lat="42.12239" lon="2.4734">
        <ele>514.4</ele>
        <time>2022-05-21 06:01:01</time>
      </trkpt>
      <trkpt lat="42.1224" lon="2.47343">
        <ele>514.6</ele>
        <time>2022-05-21 06:01:02</time>
      </trkpt>
      <trkpt lat="42.12242" lon="2.47347">
        <ele>514.8</ele>
        <time>2022-05-21 06:01:03</time>
      </trkpt>
      <trkpt lat="42.12243" lon="2.4735">
        <ele>514.8</ele>
        <time>2022-05-21 06:01:04</time>
      </trkpt>
      <trkpt lat="42.12245" lon="2.47353">
        <ele>515</ele>
        <time>2022-05-21 06:01:05</time>
      </trkpt>
      <trkpt lat="42.12247" lon="2.47356">
        <ele>515.2</ele>
        <time>2022-05-21 06:01:06</time>
      </trkpt>
      <trkpt lat="42.12248" lon="2.47359">
        <ele>515.4</ele>
        <time>2022-05-21 06:01:07</time>
      </trkpt>
      <trkpt lat="42.1225" lon="2.47362">
        <ele>515.4</ele>
        <time>2022-05-21 06:01:08</time>
      </trkpt>
      <trkpt lat="42.12251" lon="2.47366">
        <ele>515.6</ele>
        <time>2022-05-21 06:01:09</time>
      </trkpt>
      <trkpt lat="42.12252" lon="2.47369">
        <ele>515.6</ele>
        <time>2022-05-21 06:01:10</time>
      </trkpt>
      <trkpt lat="42.12254" lon="2.47372">
        <ele>515.8</ele>
        <time>2022-05-21 06:01:11</time>
      </trkpt>
      <trkpt lat="42.12255" lon="2.47376">
        <ele>515.8</ele>
        <time>2022-05-21 06:01:12</time>
      </trkpt>
      <trkpt lat="42.12257" lon="2.4738">
        <ele>516</ele>
        <time>2022-05-21 06:01:13</time>
      </trkpt>
      <trkpt lat="42.12259" lon="2.47383">
        <ele>516.2</ele>
        <time>2022-05-21 06:01:14</time>
      </trkpt>
      <trkpt lat="42.1226" lon="2.47386">
        <ele>516.4</ele>
        <time>2022-05-21 06:01:15</time>
      </trkpt>
      <trkpt lat="42.12261" lon="2.4739">
        <ele>516.4</ele>
        <time>2022-05-21 06:01:16</time>
      </trkpt>
      <trkpt lat="42.12263" lon="2.47393">
        <ele>516.6</ele>
        <time>2022-05-21 06:01:17</time>
      </trkpt>
      <trkpt lat="42.12265" lon="2.47396">
        <ele>516.8</ele>
        <time>2022-05-21 06:01:18</time>
      </trkpt>
      <trkpt lat="42.12266" lon="2.47399">
        <ele>517</ele>
        <time>2022-05-21 06:01:19</time>
      </trkpt>
      <trkpt lat="42.12267" lon="2.47403">
        <ele>517.2</ele>
        <time>2022-05-21 06:01:20</time>
      </trkpt>
      <trkpt lat="42.12268" lon="2.47406">
        <ele>517.2</ele>
        <time>2022-05-21 06:01:21</time>
      </trkpt>
      <trkpt lat="42.1227" lon="2.4741">
        <ele>517.2</ele>
        <time>2022-05-21 06:01:22</time>
      </trkpt>
      <trkpt lat="42.12271" lon="2.47414">
        <ele>517.4</ele>
        <time>2022-05-21 06:01:23</time>
      </trkpt>
      <trkpt lat="42.12272" lon="2.47418">
        <ele>517.6</ele>
        <time>2022-05-21 06:01:24</time>
      </trkpt>
      <trkpt lat="42.12273" lon="2.47421">
        <ele>517.6</ele>
        <time>2022-05-21 06:01:25</time>
      </trkpt>
      <trkpt lat="42.12274" lon="2.47425">
        <ele>517.8</ele>
        <time>2022-05-21 06:01:26</time>
      </trkpt>
      <trkpt lat="42.12275" lon="2.47428">
        <ele>517.8</ele>
        <time>2022-05-21 06:01:27</time>
      </trkpt>
      <trkpt lat="42.12277" lon="2.47432">
        <ele>518</ele>
        <time>2022-05-21 06:01:28</time>
      </trkpt>
      <trkpt lat="42.12278" lon="2.47436">
        <ele>518.2</ele>
        <time>2022-05-21 06:01:29</time>
      </trkpt>
      <trkpt lat="42.12279" lon="2.4744">
        <ele>518.4</ele>
        <time>2022-05-21 06:01:30</time>
      </trkpt>
      <trkpt lat="42.1228" lon="2.47444">
        <ele>518.6</ele>
        <time>2022-05-21 06:01:31</time>
      </trkpt>
      <trkpt lat="42.12281" lon="2.47448">
        <ele>518.6</ele>
        <time>2022-05-21 06:01:32</time>
      </trkpt>
      <trkpt lat="42.12281" lon="2.47452">
        <ele>518.6</ele>
        <time>2022-05-21 06:01:33</time>
      </trkpt>
      <trkpt lat="42.12282" lon="2.47456">
        <ele>518.8</ele>
        <time>2022-05-21 06:01:34</time>
      </trkpt>
      <trkpt lat="42.12283" lon="2.4746">
        <ele>518.8</ele>
        <time>2022-05-21 06:01:35</time>
      </trkpt>
      <trkpt lat="42.12284" lon="2.47464">
        <ele>519</ele>
        <time>2022-05-21 06:01:36</time>
      </trkpt>
      <trkpt lat="42.12284" lon="2.47468">
        <ele>519</ele>
        <time>2022-05-21 06:01:37</time>
      </trkpt>
      <trkpt lat="42.12285" lon="2.47471">
        <ele>519.2</ele>
        <time>2022-05-21 06:01:38</time>
      </trkpt>
      <trkpt lat="42.12285" lon="2.47475">
        <ele>519.4</ele>
        <time>2022-05-21 06:01:39</time>
      </trkpt>
      <trkpt lat="42.12286" lon="2.47479">
        <ele>519.4</ele>
        <time>2022-05-21 06:01:40</time>
      </trkpt>
      <trkpt lat="42.12286" lon="2.47483">
        <ele>519.6</ele>
        <time>2022-05-21 06:01:41</time>
      </trkpt>
      <trkpt lat="42.12286" lon="2.47487">
        <ele>519.8</ele>
        <time>2022-05-21 06:01:42</time>
      </trkpt>
      <trkpt lat="42.12287" lon="2.47491">
        <ele>519.8</ele>
        <time>2022-05-21 06:01:43</time>
      </trkpt>
      <trkpt lat="42.12287" lon="2.47495">
        <ele>519.8</ele>
        <time>2022-05-21 06:01:44</time>
      </trkpt>
      <trkpt lat="42.12288" lon="2.475">
        <ele>520</ele>
        <time>2022-05-21 06:01:45</time>
      </trkpt>
      <trkpt lat="42.12288" lon="2.47504">
        <ele>520</ele>
        <time>2022-05-21 06:01:46</time>
      </trkpt>
      <trkpt lat="42.12288" lon="2.47508">
        <ele>520.2</ele>
        <time>2022-05-21 06:01:47</time>
      </trkpt>
      <trkpt lat="42.12288" lon="2.47512">
        <ele>520.2</ele>
        <time>2022-05-21 06:01:48</time>
      </trkpt>
      <trkpt lat="42.12288" lon="2.47516">
        <ele>520.2</ele>
        <time>2022-05-21 06:01:49</time>
      </trkpt>
      <trkpt lat="42.12288" lon="2.4752">
        <ele>520.4</ele>
        <time>2022-05-21 06:01:50</time>
      </trkpt>
      <trkpt lat="42.12288" lon="2.47525">
        <ele>520.4</ele>
        <time>2022-05-21 06:01:51</time>
      </trkpt>
      <trkpt lat="42.12288" lon="2.47529">
        <ele>520.6</ele>
        <time>2022-05-21 06:01:52</time>
      </trkpt>
      <trkpt lat="42.12288" lon="2.47533">
        <ele>520.8</ele>
        <time>2022-05-21 06:01:53</time>
      </trkpt>
      <trkpt lat="42.12288" lon="2.47537">
        <ele>521</ele>
        <time>2022-05-21 06:01:54</time>
      </trkpt>
      <trkpt lat="42.12288" lon="2.47541">
        <ele>521</ele>
        <time>2022-05-21 06:01:55</time>
      </trkpt>
      <trkpt lat="42.12288" lon="2.47545">
        <ele>521</ele>
        <time>2022-05-21 06:01:56</time>
      </trkpt>
      <trkpt lat="42.12288" lon="2.47548">
        <ele>521.2</ele>
        <time>2022-05-21 06:01:57</time>
      </trkpt>
      <trkpt lat="42.12287" lon="2.47552">
        <ele>521.2</ele>
        <time>2022-05-21 06:01:58</time>
      </trkpt>
      <trkpt lat="42.12287" lon="2.47556">
        <ele>521.4</ele>
        <time>2022-05-21 06:01:59</time>
      </trkpt>
      <trkpt lat="42.12287" lon="2.4756">
        <ele>521.4</ele>
        <time>2022-05-21 06:02:00</time>
      </trkpt>
      <trkpt lat="42.12286" lon="2.47564">
        <ele>521.6</ele>
        <time>2022-05-21 06:02:01</time>
      </trkpt>
      <trkpt lat="42.12286" lon="2.47568">
        <ele>521.6</ele>
        <time>2022-05-21 06:02:02</time>
      </trkpt>
      <trkpt lat="42.12286" lon="2.47572">
        <ele>521.8</ele>
        <time>2022-05-21 06:02:03</time>
      </trkpt>
      <trkpt lat="42.12286" lon="2.47576">
        <ele>521.8</ele>
        <time>2022-05-21 06:02:04</time>
      </trkpt>
      <trkpt lat="42.12285" lon="2.47581">
        <ele>522</ele>
        <time>2022-05-21 06:02:05</time>
      </trkpt>
      <trkpt lat="42.12285" lon="2.47585">
        <ele>522</ele>
        <time>2022-05-21 06:02:06</time>
      </trkpt>
      <trkpt lat="42.12284" lon="2.4759">
        <ele>522</ele>
        <time>2022-05-21 06:02:07</time>
      </trkpt>
      <trkpt lat="42.12284" lon="2.47594">
        <ele>522</ele>
        <time>2022-05-21 06:02:08</time>
      </trkpt>
      <trkpt lat="42.12284" lon="2.47598">
        <ele>522.2</ele>
        <time>2022-05-21 06:02:09</time>
      </trkpt>
      <trkpt lat="42.12283" lon="2.47603">
        <ele>522.2</ele>
        <time>2022-05-21 06:02:10</time>
      </trkpt>
      <trkpt lat="42.12283" lon="2.47607">
        <ele>522.4</ele>
        <time>2022-05-21 06:02:11</time>
      </trkpt>
      <trkpt lat="42.12282" lon="2.47611">
        <ele>522.4</ele>
        <time>2022-05-21 06:02:12</time>
      </trkpt>
      <trkpt lat="42.12281" lon="2.47616">
        <ele>522.6</ele>
        <time>2022-05-21 06:02:13</time>
      </trkpt>
      <trkpt lat="42.12281" lon="2.4762">
        <ele>522.8</ele>
        <time>2022-05-21 06:02:14</time>
      </trkpt>
      <trkpt lat="42.12281" lon="2.47624">
        <ele>522.8</ele>
        <time>2022-05-21 06:02:15</time>
      </trkpt>
      <trkpt lat="42.1228" lon="2.47629">
        <ele>522.8</ele>
        <time>2022-05-21 06:02:16</time>
      </trkpt>
      <trkpt lat="42.1228" lon="2.47633">
        <ele>523</ele>
        <time>2022-05-21 06:02:17</time>
      </trkpt>
      <trkpt lat="42.12279" lon="2.47637">
        <ele>522.8</ele>
        <time>2022-05-21 06:02:18</time>
      </trkpt>
      <trkpt lat="42.12278" lon="2.47641">
        <ele>522.8</ele>
        <time>2022-05-21 06:02:19</time>
      </trkpt>
      <trkpt lat="42.12278" lon="2.47646">
        <ele>523</ele>
        <time>2022-05-21 06:02:20</time>
      </trkpt>
      <trkpt lat="42.12278" lon="2.4765">
        <ele>523</ele>
        <time>2022-05-21 06:02:21</time>
      </trkpt>
      <trkpt lat="42.12277" lon="2.47654">
        <ele>523</ele>
        <time>2022-05-21 06:02:22</time>
      </trkpt>
      <trkpt lat="42.12276" lon="2.47658">
        <ele>523.2</ele>
        <time>2022-05-21 06:02:23</time>
      </trkpt>
      <trkpt lat="42.12276" lon="2.47663">
        <ele>523.2</ele>
        <time>2022-05-21 06:02:24</time>
      </trkpt>
      <trkpt lat="42.12275" lon="2.47667">
        <ele>523.2</ele>
        <time>2022-05-21 06:02:25</time>
      </trkpt>
      <trkpt lat="42.12275" lon="2.47672">
        <ele>523.4</ele>
        <time>2022-05-21 06:02:26</time>
      </trkpt>
      <trkpt lat="42.12275" lon="2.47677">
        <ele>523.4</ele>
        <time>2022-05-21 06:02:27</time>
      </trkpt>
      <trkpt lat="42.12274" lon="2.47681">
        <ele>523.4</ele>
        <time>2022-05-21 06:02:28</time>
      </trkpt>
      <trkpt lat="42.12273" lon="2.47686">
        <ele>523.4</ele>
        <time>2022-05-21 06:02:29</time>
      </trkpt>
      <trkpt lat="42.12273" lon="2.47691">
        <ele>523.4</ele>
        <time>2022-05-21 06:02:30</time>
      </trkpt>
      <trkpt lat="42.12273" lon="2.47696">
        <ele>523.4</ele>
        <time>2022-05-21 06:02:31</time>
      </trkpt>
      <trkpt lat="42.12272" lon="2.47701">
        <ele>523.4</ele>
        <time>2022-05-21 06:02:32</time>
      </trkpt>
      <trkpt lat="42.12271" lon="2.47706">
        <ele>523.4</ele>
        <time>2022-05-21 06:02:33</time>
      </trkpt>
      <trkpt lat="42.12271" lon="2.47711">
        <ele>523.6</ele>
        <time>2022-05-21 06:02:34</time>
      </trkpt>
      <trkpt lat="42.1227" lon="2.47717">
        <ele>523.6</ele>
        <time>2022-05-21 06:02:35</time>
      </trkpt>
      <trkpt lat="42.1227" lon="2.47722">
        <ele>523.6</ele>
        <time>2022-05-21 06:02:36</time>
      </trkpt>
      <trkpt lat="42.12269" lon="2.47727">
        <ele>523.6</ele>
        <time>2022-05-21 06:02:37</time>
      </trkpt>
      <trkpt lat="42.12268" lon="2.47733">
        <ele>523.6</ele>
        <time>2022-05-21 06:02:38</time>
      </trkpt>
      <trkpt lat="42.12268" lon="2.47738">
        <ele>523.6</ele>
        <time>2022-05-21 06:02:39</time>
      </trkpt>
      <trkpt lat="42.12267" lon="2.47744">
        <ele>523.6</ele>
        <time>2022-05-21 06:02:40</time>
      </trkpt>
      <trkpt lat="42.12267" lon="2.4775">
        <ele>523.6</ele>
        <time>2022-05-21 06:02:41</time>
      </trkpt>
      <trkpt lat="42.12266" lon="2.47756">
        <ele>523.6</ele>
        <time>2022-05-21 06:02:42</time>
      </trkpt>
      <trkpt lat="42.12265" lon="2.47762">
        <ele>523.6</ele>
        <time>2022-05-21 06:02:43</time>
      </trkpt>
      <trkpt lat="42.12264" lon="2.47767">
        <ele>523.6</ele>
        <time>2022-05-21 06:02:44</time>
      </trkpt>
      <trkpt lat="42.12263" lon="2.47774">
        <ele>523.6</ele>
        <time>2022-05-21 06:02:45</time>
      </trkpt>
      <trkpt lat="42.12263" lon="2.4778">
        <ele>523.8</ele>
        <time>2022-05-21 06:02:46</time>
      </trkpt>
      <trkpt lat="42.12262" lon="2.47786">
        <ele>523.8</ele>
        <time>2022-05-21 06:02:47</time>
      </trkpt>
      <trkpt lat="42.12261" lon="2.47791">
        <ele>523.8</ele>
        <time>2022-05-21 06:02:48</time>
      </trkpt>
      <trkpt lat="42.12261" lon="2.47797">
        <ele>523.8</ele>
        <time>2022-05-21 06:02:49</time>
      </trkpt>
      <trkpt lat="42.1226" lon="2.47803">
        <ele>523.8</ele>
        <time>2022-05-21 06:02:50</time>
      </trkpt>
      <trkpt lat="42.12259" lon="2.47809">
        <ele>523.8</ele>
        <time>2022-05-21 06:02:51</time>
      </trkpt>
      <trkpt lat="42.12259" lon="2.47815">
        <ele>523.8</ele>
        <time>2022-05-21 06:02:52</time>
      </trkpt>
      <trkpt lat="42.12258" lon="2.47821">
        <ele>523.8</ele>
        <time>2022-05-21 06:02:53</time>
      </trkpt>
      <trkpt lat="42.12257" lon="2.47826">
        <ele>524</ele>
        <time>2022-05-21 06:02:54</time>
      </trkpt>
      <trkpt lat="42.12257" lon="2.47832">
        <ele>524</ele>
        <time>2022-05-21 06:02:55</time>
      </trkpt>
      <trkpt lat="42.12257" lon="2.47837">
        <ele>524</ele>
        <time>2022-05-21 06:02:56</time>
      </trkpt>
      <trkpt lat="42.12256" lon="2.47843">
        <ele>524.2</ele>
        <time>2022-05-21 06:02:57</time>
      </trkpt>
      <trkpt lat="42.12255" lon="2.47849">
        <ele>524.2</ele>
        <time>2022-05-21 06:02:58</time>
      </trkpt>
      <trkpt lat="42.12255" lon="2.47854">
        <ele>524.2</ele>
        <time>2022-05-21 06:02:59</time>
      </trkpt>
      <trkpt lat="42.12254" lon="2.47859">
        <ele>524.4</ele>
        <time>2022-05-21 06:03:00</time>
      </trkpt>
      <trkpt lat="42.12254" lon="2.47865">
        <ele>524.4</ele>
        <time>2022-05-21 06:03:01</time>
      </trkpt>
      <trkpt lat="42.12253" lon="2.4787">
        <ele>524.4</ele>
        <time>2022-05-21 06:03:02</time>
      </trkpt>
      <trkpt lat="42.12253" lon="2.47875">
        <ele>524.6</ele>
        <time>2022-05-21 06:03:03</time>
      </trkpt>
      <trkpt lat="42.12253" lon="2.4788">
        <ele>524.6</ele>
        <time>2022-05-21 06:03:04</time>
      </trkpt>
      <trkpt lat="42.12252" lon="2.47885">
        <ele>524.8</ele>
        <time>2022-05-21 06:03:05</time>
      </trkpt>
      <trkpt lat="42.12252" lon="2.47889">
        <ele>524.8</ele>
        <time>2022-05-21 06:03:06</time>
      </trkpt>
      <trkpt lat="42.12251" lon="2.47894">
        <ele>525</ele>
        <time>2022-05-21 06:03:07</time>
      </trkpt>
      <trkpt lat="42.12251" lon="2.47899">
        <ele>525.2</ele>
        <time>2022-05-21 06:03:08</time>
      </trkpt>
      <trkpt lat="42.1225" lon="2.47904">
        <ele>525.2</ele>
        <time>2022-05-21 06:03:09</time>
      </trkpt>
      <trkpt lat="42.12249" lon="2.47908">
        <ele>525.4</ele>
        <time>2022-05-21 06:03:10</time>
      </trkpt>
      <trkpt lat="42.12249" lon="2.47913">
        <ele>525.4</ele>
        <time>2022-05-21 06:03:11</time>
      </trkpt>
      <trkpt lat="42.12249" lon="2.47918">
        <ele>525.6</ele>
        <time>2022-05-21 06:03:12</time>
      </trkpt>
      <trkpt lat="42.12248" lon="2.47922">
        <ele>525.8</ele>
        <time>2022-05-21 06:03:13</time>
      </trkpt>
      <trkpt lat="42.12247" lon="2.47927">
        <ele>525.8</ele>
        <time>2022-05-21 06:03:14</time>
      </trkpt>
      <trkpt lat="42.12247" lon="2.47931">
        <ele>525.8</ele>
        <time>2022-05-21 06:03:15</time>
      </trkpt>
      <trkpt lat="42.12247" lon="2.47935">
        <ele>525.8</ele>
        <time>2022-05-21 06:03:16</time>
      </trkpt>
      <trkpt lat="42.12246" lon="2.4794">
        <ele>526</ele>
        <time>2022-05-21 06:03:17</time>
      </trkpt>
      <trkpt lat="42.12246" lon="2.47944">
        <ele>526.2</ele>
        <time>2022-05-21 06:03:18</time>
      </trkpt>
      <trkpt lat="42.12246" lon="2.47949">
        <ele>526.2</ele>
        <time>2022-05-21 06:03:19</time>
      </trkpt>
      <trkpt lat="42.12245" lon="2.47953">
        <ele>526.4</ele>
        <time>2022-05-21 06:03:20</time>
      </trkpt>
      <trkpt lat="42.12245" lon="2.47958">
        <ele>526.4</ele>
        <time>2022-05-21 06:03:21</time>
      </trkpt>
      <trkpt lat="42.12245" lon="2.47963">
        <ele>526.6</ele>
        <time>2022-05-21 06:03:22</time>
      </trkpt>
      <trkpt lat="42.12245" lon="2.47967">
        <ele>526.8</ele>
        <time>2022-05-21 06:03:23</time>
      </trkpt>
      <trkpt lat="42.12245" lon="2.47972">
        <ele>526.8</ele>
        <time>2022-05-21 06:03:24</time>
      </trkpt>
      <trkpt lat="42.12245" lon="2.47976">
        <ele>527</ele>
        <time>2022-05-21 06:03:25</time>
      </trkpt>
      <trkpt lat="42.12245" lon="2.47981">
        <ele>527.2</ele>
        <time>2022-05-21 06:03:26</time>
      </trkpt>
      <trkpt lat="42.12245" lon="2.47986">
        <ele>527.2</ele>
        <time>2022-05-21 06:03:27</time>
      </trkpt>
      <trkpt lat="42.12245" lon="2.47991">
        <ele>527.4</ele>
        <time>2022-05-21 06:03:28</time>
      </trkpt>
      <trkpt lat="42.12245" lon="2.47995">
        <ele>527.6</ele>
        <time>2022-05-21 06:03:29</time>
      </trkpt>
      <trkpt lat="42.12245" lon="2.48">
        <ele>527.8</ele>
        <time>2022-05-21 06:03:30</time>
      </trkpt>
      <trkpt lat="42.12246" lon="2.48005">
        <ele>528</ele>
        <time>2022-05-21 06:03:31</time>
      </trkpt>
      <trkpt lat="42.12246" lon="2.48009">
        <ele>528.2</ele>
        <time>2022-05-21 06:03:32</time>
      </trkpt>
      <trkpt lat="42.12247" lon="2.48014">
        <ele>528.2</ele>
        <time>2022-05-21 06:03:33</time>
      </trkpt>
      <trkpt lat="42.12247" lon="2.48019">
        <ele>528.4</ele>
        <time>2022-05-21 06:03:34</time>
      </trkpt>
      <trkpt lat="42.12248" lon="2.48023">
        <ele>528.6</ele>
        <time>2022-05-21 06:03:35</time>
      </trkpt>
      <trkpt lat="42.12249" lon="2.48027">
        <ele>528.6</ele>
        <time>2022-05-21 06:03:36</time>
      </trkpt>
      <trkpt lat="42.12249" lon="2.4803">
        <ele>528.8</ele>
        <time>2022-05-21 06:03:37</time>
      </trkpt>
      <trkpt lat="42.12251" lon="2.48037">
        <ele>529</ele>
        <time>2022-05-21 06:03:38</time>
      </trkpt>
      <trkpt lat="42.12252" lon="2.48042">
        <ele>529</ele>
        <time>2022-05-21 06:03:39</time>
      </trkpt>
      <trkpt lat="42.12253" lon="2.48046">
        <ele>529.2</ele>
        <time>2022-05-21 06:03:40</time>
      </trkpt>
      <trkpt lat="42.12254" lon="2.48051">
        <ele>529.4</ele>
        <time>2022-05-21 06:03:41</time>
      </trkpt>
      <trkpt lat="42.12255" lon="2.48055">
        <ele>529.6</ele>
        <time>2022-05-21 06:03:42</time>
      </trkpt>
      <trkpt lat="42.12256" lon="2.48059">
        <ele>529.6</ele>
        <time>2022-05-21 06:03:43</time>
      </trkpt>
      <trkpt lat="42.12257" lon="2.48064">
        <ele>529.6</ele>
        <time>2022-05-21 06:03:44</time>
      </trkpt>
      <trkpt lat="42.12259" lon="2.48068">
        <ele>529.8</ele>
        <time>2022-05-21 06:03:45</time>
      </trkpt>
      <trkpt lat="42.12259" lon="2.48072">
        <ele>529.8</ele>
        <time>2022-05-21 06:03:46</time>
      </trkpt>
      <trkpt lat="42.1226" lon="2.48077">
        <ele>530</ele>
        <time>2022-05-21 06:03:47</time>
      </trkpt>
      <trkpt lat="42.12262" lon="2.48081">
        <ele>530</ele>
        <time>2022-05-21 06:03:48</time>
      </trkpt>
      <trkpt lat="42.12263" lon="2.48085">
        <ele>530.2</ele>
        <time>2022-05-21 06:03:49</time>
      </trkpt>
      <trkpt lat="42.12265" lon="2.48089">
        <ele>530.4</ele>
        <time>2022-05-21 06:03:50</time>
      </trkpt>
      <trkpt lat="42.12267" lon="2.48093">
        <ele>530.6</ele>
        <time>2022-05-21 06:03:51</time>
      </trkpt>
      <trkpt lat="42.12268" lon="2.48097">
        <ele>530.8</ele>
        <time>2022-05-21 06:03:52</time>
      </trkpt>
      <trkpt lat="42.1227" lon="2.48101">
        <ele>530.8</ele>
        <time>2022-05-21 06:03:53</time>
      </trkpt>
      <trkpt lat="42.12272" lon="2.48104">
        <ele>531</ele>
        <time>2022-05-21 06:03:54</time>
      </trkpt>
      <trkpt lat="42.12273" lon="2.48108">
        <ele>531</ele>
        <time>2022-05-21 06:03:55</time>
      </trkpt>
      <trkpt lat="42.12275" lon="2.48112">
        <ele>531.2</ele>
        <time>2022-05-21 06:03:56</time>
      </trkpt>
      <trkpt lat="42.12277" lon="2.48116">
        <ele>531.2</ele>
        <time>2022-05-21 06:03:57</time>
      </trkpt>
      <trkpt lat="42.12279" lon="2.48119">
        <ele>531.2</ele>
        <time>2022-05-21 06:03:58</time>
      </trkpt>
      <trkpt lat="42.1228" lon="2.48123">
        <ele>531.4</ele>
        <time>2022-05-21 06:03:59</time>
      </trkpt>
      <trkpt lat="42.12282" lon="2.48126">
        <ele>531.6</ele>
        <time>2022-05-21 06:04:00</time>
      </trkpt>
      <trkpt lat="42.12284" lon="2.48129">
        <ele>531.6</ele>
        <time>2022-05-21 06:04:01</time>
      </trkpt>
      <trkpt lat="42.12287" lon="2.48133">
        <ele>531.8</ele>
        <time>2022-05-21 06:04:02</time>
      </trkpt>
      <trkpt lat="42.12289" lon="2.48136">
        <ele>531.8</ele>
        <time>2022-05-21 06:04:03</time>
      </trkpt>
      <trkpt lat="42.12291" lon="2.48139">
        <ele>532</ele>
        <time>2022-05-21 06:04:04</time>
      </trkpt>
      <trkpt lat="42.12293" lon="2.48143">
        <ele>532.2</ele>
        <time>2022-05-21 06:04:05</time>
      </trkpt>
      <trkpt lat="42.12295" lon="2.48147">
        <ele>532.2</ele>
        <time>2022-05-21 06:04:06</time>
      </trkpt>
      <trkpt lat="42.12297" lon="2.4815">
        <ele>532.2</ele>
        <time>2022-05-21 06:04:07</time>
      </trkpt>
      <trkpt lat="42.12299" lon="2.48154">
        <ele>532.2</ele>
        <time>2022-05-21 06:04:08</time>
      </trkpt>
      <trkpt lat="42.12301" lon="2.48157">
        <ele>532.2</ele>
        <time>2022-05-21 06:04:09</time>
      </trkpt>
      <trkpt lat="42.12303" lon="2.48161">
        <ele>532.4</ele>
        <time>2022-05-21 06:04:10</time>
      </trkpt>
      <trkpt lat="42.12305" lon="2.48164">
        <ele>532.4</ele>
        <time>2022-05-21 06:04:11</time>
      </trkpt>
      <trkpt lat="42.12308" lon="2.48167">
        <ele>532.6</ele>
        <time>2022-05-21 06:04:12</time>
      </trkpt>
      <trkpt lat="42.12311" lon="2.4817">
        <ele>532.6</ele>
        <time>2022-05-21 06:04:13</time>
      </trkpt>
      <trkpt lat="42.12313" lon="2.48173">
        <ele>532.8</ele>
        <time>2022-05-21 06:04:14</time>
      </trkpt>
      <trkpt lat="42.12315" lon="2.48177">
        <ele>532.8</ele>
        <time>2022-05-21 06:04:15</time>
      </trkpt>
      <trkpt lat="42.12318" lon="2.4818">
        <ele>533</ele>
        <time>2022-05-21 06:04:16</time>
      </trkpt>
      <trkpt lat="42.1232" lon="2.48184">
        <ele>533</ele>
        <time>2022-05-21 06:04:17</time>
      </trkpt>
      <trkpt lat="42.12322" lon="2.48188">
        <ele>533.2</ele>
        <time>2022-05-21 06:04:18</time>
      </trkpt>
      <trkpt lat="42.12324" lon="2.48191">
        <ele>533.2</ele>
        <time>2022-05-21 06:04:19</time>
      </trkpt>
      <trkpt lat="42.12326" lon="2.48195">
        <ele>533.2</ele>
        <time>2022-05-21 06:04:20</time>
      </trkpt>
      <trkpt lat="42.12328" lon="2.48199">
        <ele>533.2</ele>
        <time>2022-05-21 06:04:21</time>
      </trkpt>
      <trkpt lat="42.12331" lon="2.48203">
        <ele>533.2</ele>
        <time>2022-05-21 06:04:22</time>
      </trkpt>
      <trkpt lat="42.12334" lon="2.48207">
        <ele>533.2</ele>
        <time>2022-05-21 06:04:23</time>
      </trkpt>
      <trkpt lat="42.12336" lon="2.4821">
        <ele>533.2</ele>
        <time>2022-05-21 06:04:24</time>
      </trkpt>
      <trkpt lat="42.12338" lon="2.48215">
        <ele>533.4</ele>
        <time>2022-05-21 06:04:25</time>
      </trkpt>
      <trkpt lat="42.1234" lon="2.48219">
        <ele>533.4</ele>
        <time>2022-05-21 06:04:26</time>
      </trkpt>
      <trkpt lat="42.12342" lon="2.48223">
        <ele>533.4</ele>
        <time>2022-05-21 06:04:27</time>
      </trkpt>
      <trkpt lat="42.12344" lon="2.48228">
        <ele>533.4</ele>
        <time>2022-05-21 06:04:28</time>
      </trkpt>
      <trkpt lat="42.12347" lon="2.48232">
        <ele>533.6</ele>
        <time>2022-05-21 06:04:29</time>
      </trkpt>
      <trkpt lat="42.12349" lon="2.48236">
        <ele>533.6</ele>
        <time>2022-05-21 06:04:30</time>
      </trkpt>
      <trkpt lat="42.1235" lon="2.4824">
        <ele>533.6</ele>
        <time>2022-05-21 06:04:31</time>
      </trkpt>
      <trkpt lat="42.12352" lon="2.48245">
        <ele>533.6</ele>
        <time>2022-05-21 06:04:32</time>
      </trkpt>
      <trkpt lat="42.12354" lon="2.4825">
        <ele>533.6</ele>
        <time>2022-05-21 06:04:33</time>
      </trkpt>
      <trkpt lat="42.12355" lon="2.48254">
        <ele>533.6</ele>
        <time>2022-05-21 06:04:34</time>
      </trkpt>
      <trkpt lat="42.12357" lon="2.48259">
        <ele>533.8</ele>
        <time>2022-05-21 06:04:35</time>
      </trkpt>
      <trkpt lat="42.12358" lon="2.48264">
        <ele>533.8</ele>
        <time>2022-05-21 06:04:36</time>
      </trkpt>
      <trkpt lat="42.1236" lon="2.48269">
        <ele>533.8</ele>
        <time>2022-05-21 06:04:37</time>
      </trkpt>
      <trkpt lat="42.12361" lon="2.48274">
        <ele>533.8</ele>
        <time>2022-05-21 06:04:38</time>
      </trkpt>
      <trkpt lat="42.12362" lon="2.48279">
        <ele>534</ele>
        <time>2022-05-21 06:04:39</time>
      </trkpt>
      <trkpt lat="42.12363" lon="2.48284">
        <ele>534</ele>
        <time>2022-05-21 06:04:40</time>
      </trkpt>
      <trkpt lat="42.12364" lon="2.48288">
        <ele>534</ele>
        <time>2022-05-21 06:04:41</time>
      </trkpt>
      <trkpt lat="42.12365" lon="2.48293">
        <ele>534.2</ele>
        <time>2022-05-21 06:04:42</time>
      </trkpt>
      <trkpt lat="42.12366" lon="2.48298">
        <ele>534.2</ele>
        <time>2022-05-21 06:04:43</time>
      </trkpt>
      <trkpt lat="42.12366" lon="2.48303">
        <ele>534.2</ele>
        <time>2022-05-21 06:04:44</time>
      </trkpt>
      <trkpt lat="42.12366" lon="2.48308">
        <ele>534.4</ele>
        <time>2022-05-21 06:04:45</time>
      </trkpt>
      <trkpt lat="42.12367" lon="2.48313">
        <ele>534.4</ele>
        <time>2022-05-21 06:04:46</time>
      </trkpt>
      <trkpt lat="42.12367" lon="2.48318">
        <ele>534.6</ele>
        <time>2022-05-21 06:04:47</time>
      </trkpt>
      <trkpt lat="42.12367" lon="2.48323">
        <ele>534.6</ele>
        <time>2022-05-21 06:04:48</time>
      </trkpt>
      <trkpt lat="42.12367" lon="2.48327">
        <ele>534.8</ele>
        <time>2022-05-21 06:04:49</time>
      </trkpt>
      <trkpt lat="42.12367" lon="2.48332">
        <ele>535</ele>
        <time>2022-05-21 06:04:50</time>
      </trkpt>
      <trkpt lat="42.12367" lon="2.48337">
        <ele>535</ele>
        <time>2022-05-21 06:04:51</time>
      </trkpt>
      <trkpt lat="42.12366" lon="2.48342">
        <ele>535.2</ele>
        <time>2022-05-21 06:04:52</time>
      </trkpt>
      <trkpt lat="42.12366" lon="2.48346">
        <ele>535.2</ele>
        <time>2022-05-21 06:04:53</time>
      </trkpt>
      <trkpt lat="42.12366" lon="2.48351">
        <ele>535.2</ele>
        <time>2022-05-21 06:04:54</time>
      </trkpt>
      <trkpt lat="42.12365" lon="2.48356">
        <ele>535.4</ele>
        <time>2022-05-21 06:04:55</time>
      </trkpt>
      <trkpt lat="42.12365" lon="2.4836">
        <ele>535.4</ele>
        <time>2022-05-21 06:04:56</time>
      </trkpt>
      <trkpt lat="42.12364" lon="2.48364">
        <ele>535.6</ele>
        <time>2022-05-21 06:04:57</time>
      </trkpt>
      <trkpt lat="42.12363" lon="2.48368">
        <ele>535.6</ele>
        <time>2022-05-21 06:04:58</time>
      </trkpt>
      <trkpt lat="42.12362" lon="2.48372">
        <ele>535.8</ele>
        <time>2022-05-21 06:04:59</time>
      </trkpt>
      <trkpt lat="42.12361" lon="2.48376">
        <ele>536</ele>
        <time>2022-05-21 06:05:00</time>
      </trkpt>
      <trkpt lat="42.1236" lon="2.4838">
        <ele>536</ele>
        <time>2022-05-21 06:05:01</time>
      </trkpt>
      <trkpt lat="42.12359" lon="2.48384">
        <ele>536.2</ele>
        <time>2022-05-21 06:05:02</time>
      </trkpt>
      <trkpt lat="42.12358" lon="2.48387">
        <ele>536.4</ele>
        <time>2022-05-21 06:05:03</time>
      </trkpt>
      <trkpt lat="42.12357" lon="2.48391">
        <ele>536.4</ele>
        <time>2022-05-21 06:05:04</time>
      </trkpt>
      <trkpt lat="42.12355" lon="2.48394">
        <ele>536.6</ele>
        <time>2022-05-21 06:05:05</time>
      </trkpt>
      <trkpt lat="42.12354" lon="2.48397">
        <ele>536.8</ele>
        <time>2022-05-21 06:05:06</time>
      </trkpt>
      <trkpt lat="42.12353" lon="2.48399">
        <ele>537</ele>
        <time>2022-05-21 06:05:07</time>
      </trkpt>
      <trkpt lat="42.12352" lon="2.48403">
        <ele>537.2</ele>
        <time>2022-05-21 06:05:08</time>
      </trkpt>
      <trkpt lat="42.1235" lon="2.48406">
        <ele>537.2</ele>
        <time>2022-05-21 06:05:09</time>
      </trkpt>
      <trkpt lat="42.12349" lon="2.48409">
        <ele>537.4</ele>
        <time>2022-05-21 06:05:10</time>
      </trkpt>
      <trkpt lat="42.12348" lon="2.48412">
        <ele>537.6</ele>
        <time>2022-05-21 06:05:11</time>
      </trkpt>
      <trkpt lat="42.12347" lon="2.48415">
        <ele>537.8</ele>
        <time>2022-05-21 06:05:12</time>
      </trkpt>
      <trkpt lat="42.12346" lon="2.48418">
        <ele>538</ele>
        <time>2022-05-21 06:05:13</time>
      </trkpt>
      <trkpt lat="42.12345" lon="2.48422">
        <ele>538</ele>
        <time>2022-05-21 06:05:14</time>
      </trkpt>
      <trkpt lat="42.12344" lon="2.48425">
        <ele>538.2</ele>
        <time>2022-05-21 06:05:15</time>
      </trkpt>
      <trkpt lat="42.12343" lon="2.48429">
        <ele>538.4</ele>
        <time>2022-05-21 06:05:16</time>
      </trkpt>
      <trkpt lat="42.12342" lon="2.48432">
        <ele>538.6</ele>
        <time>2022-05-21 06:05:17</time>
      </trkpt>
      <trkpt lat="42.12341" lon="2.48435">
        <ele>538.8</ele>
        <time>2022-05-21 06:05:18</time>
      </trkpt>
      <trkpt lat="42.1234" lon="2.48438">
        <ele>539</ele>
        <time>2022-05-21 06:05:19</time>
      </trkpt>
      <trkpt lat="42.12339" lon="2.48441">
        <ele>539.2</ele>
        <time>2022-05-21 06:05:20</time>
      </trkpt>
      <trkpt lat="42.12337" lon="2.48444">
        <ele>539.4</ele>
        <time>2022-05-21 06:05:21</time>
      </trkpt>
      <trkpt lat="42.12336" lon="2.48447">
        <ele>539.6</ele>
        <time>2022-05-21 06:05:22</time>
      </trkpt>
      <trkpt lat="42.12334" lon="2.48451">
        <ele>539.8</ele>
        <time>2022-05-21 06:05:23</time>
      </trkpt>
      <trkpt lat="42.12333" lon="2.48454">
        <ele>540</ele>
        <time>2022-05-21 06:05:24</time>
      </trkpt>
      <trkpt lat="42.12332" lon="2.48457">
        <ele>540</ele>
        <time>2022-05-21 06:05:25</time>
      </trkpt>
      <trkpt lat="42.12331" lon="2.4846">
        <ele>540.2</ele>
        <time>2022-05-21 06:05:26</time>
      </trkpt>
      <trkpt lat="42.12331" lon="2.48463">
        <ele>540.2</ele>
        <time>2022-05-21 06:05:27</time>
      </trkpt>
      <trkpt lat="42.12329" lon="2.48467">
        <ele>540.4</ele>
        <time>2022-05-21 06:05:28</time>
      </trkpt>
      <trkpt lat="42.12328" lon="2.4847">
        <ele>540.6</ele>
        <time>2022-05-21 06:05:29</time>
      </trkpt>
      <trkpt lat="42.12327" lon="2.48473">
        <ele>540.8</ele>
        <time>2022-05-21 06:05:30</time>
      </trkpt>
      <trkpt lat="42.12326" lon="2.48476">
        <ele>540.8</ele>
        <time>2022-05-21 06:05:31</time>
      </trkpt>
      <trkpt lat="42.12325" lon="2.48479">
        <ele>541</ele>
        <time>2022-05-21 06:05:32</time>
      </trkpt>
      <trkpt lat="42.12324" lon="2.48482">
        <ele>541.2</ele>
        <time>2022-05-21 06:05:33</time>
      </trkpt>
      <trkpt lat="42.12323" lon="2.48486">
        <ele>541.4</ele>
        <time>2022-05-21 06:05:34</time>
      </trkpt>
      <trkpt lat="42.12321" lon="2.48489">
        <ele>541.4</ele>
        <time>2022-05-21 06:05:35</time>
      </trkpt>
      <trkpt lat="42.1232" lon="2.48492">
        <ele>541.6</ele>
        <time>2022-05-21 06:05:36</time>
      </trkpt>
      <trkpt lat="42.12319" lon="2.48495">
        <ele>541.6</ele>
        <time>2022-05-21 06:05:37</time>
      </trkpt>
      <trkpt lat="42.12318" lon="2.48499">
        <ele>541.8</ele>
        <time>2022-05-21 06:05:38</time>
      </trkpt>
      <trkpt lat="42.12317" lon="2.48502">
        <ele>542</ele>
        <time>2022-05-21 06:05:39</time>
      </trkpt>
      <trkpt lat="42.12316" lon="2.48505">
        <ele>542.2</ele>
        <time>2022-05-21 06:05:40</time>
      </trkpt>
      <trkpt lat="42.12314" lon="2.48508">
        <ele>542.2</ele>
        <time>2022-05-21 06:05:41</time>
      </trkpt>
      <trkpt lat="42.12313" lon="2.48511">
        <ele>542.4</ele>
        <time>2022-05-21 06:05:42</time>
      </trkpt>
      <trkpt lat="42.12312" lon="2.48514">
        <ele>542.6</ele>
        <time>2022-05-21 06:05:43</time>
      </trkpt>
      <trkpt lat="42.12311" lon="2.48517">
        <ele>542.6</ele>
        <time>2022-05-21 06:05:44</time>
      </trkpt>
      <trkpt lat="42.1231" lon="2.4852">
        <ele>542.8</ele>
        <time>2022-05-21 06:05:45</time>
      </trkpt>
      <trkpt lat="42.12309" lon="2.48523">
        <ele>543</ele>
        <time>2022-05-21 06:05:46</time>
      </trkpt>
      <trkpt lat="42.12308" lon="2.48526">
        <ele>543</ele>
        <time>2022-05-21 06:05:47</time>
      </trkpt>
      <trkpt lat="42.12307" lon="2.48529">
        <ele>543.2</ele>
        <time>2022-05-21 06:05:48</time>
      </trkpt>
      <trkpt lat="42.12305" lon="2.48531">
        <ele>543.2</ele>
        <time>2022-05-21 06:05:49</time>
      </trkpt>
      <trkpt lat="42.12304" lon="2.48534">
        <ele>543.4</ele>
        <time>2022-05-21 06:05:50</time>
      </trkpt>
      <trkpt lat="42.12303" lon="2.48537">
        <ele>543.4</ele>
        <time>2022-05-21 06:05:51</time>
      </trkpt>
      <trkpt lat="42.12302" lon="2.4854">
        <ele>543.6</ele>
        <time>2022-05-21 06:05:52</time>
      </trkpt>
      <trkpt lat="42.12301" lon="2.48543">
        <ele>543.8</ele>
        <time>2022-05-21 06:05:53</time>
      </trkpt>
      <trkpt lat="42.123" lon="2.48546">
        <ele>543.8</ele>
        <time>2022-05-21 06:05:54</time>
      </trkpt>
      <trkpt lat="42.12299" lon="2.48549">
        <ele>544</ele>
        <time>2022-05-21 06:05:55</time>
      </trkpt>
      <trkpt lat="42.12299" lon="2.48552">
        <ele>544</ele>
        <time>2022-05-21 06:05:56</time>
      </trkpt>
      <trkpt lat="42.12297" lon="2.48554">
        <ele>544.2</ele>
        <time>2022-05-21 06:05:57</time>
      </trkpt>
      <trkpt lat="42.12296" lon="2.48557">
        <ele>544.4</ele>
        <time>2022-05-21 06:05:58</time>
      </trkpt>
      <trkpt lat="42.12294" lon="2.4856">
        <ele>544.4</ele>
        <time>2022-05-21 06:05:59</time>
      </trkpt>
      <trkpt lat="42.12292" lon="2.48563">
        <ele>544.6</ele>
        <time>2022-05-21 06:06:00</time>
      </trkpt>
      <trkpt lat="42.12291" lon="2.48566">
        <ele>544.6</ele>
        <time>2022-05-21 06:06:01</time>
      </trkpt>
      <trkpt lat="42.12291" lon="2.48569">
        <ele>544.6</ele>
        <time>2022-05-21 06:06:02</time>
      </trkpt>
      <trkpt lat="42.1229" lon="2.48572">
        <ele>544.8</ele>
        <time>2022-05-21 06:06:03</time>
      </trkpt>
      <trkpt lat="42.12289" lon="2.48574">
        <ele>545</ele>
        <time>2022-05-21 06:06:04</time>
      </trkpt>
      <trkpt lat="42.12288" lon="2.48577">
        <ele>545</ele>
        <time>2022-05-21 06:06:05</time>
      </trkpt>
      <trkpt lat="42.12287" lon="2.4858">
        <ele>545.2</ele>
        <time>2022-05-21 06:06:06</time>
      </trkpt>
      <trkpt lat="42.12286" lon="2.48584">
        <ele>545.2</ele>
        <time>2022-05-21 06:06:07</time>
      </trkpt>
      <trkpt lat="42.12284" lon="2.48587">
        <ele>545.4</ele>
        <time>2022-05-21 06:06:08</time>
      </trkpt>
      <trkpt lat="42.12283" lon="2.4859">
        <ele>545.4</ele>
        <time>2022-05-21 06:06:09</time>
      </trkpt>
      <trkpt lat="42.12281" lon="2.48593">
        <ele>545.6</ele>
        <time>2022-05-21 06:06:10</time>
      </trkpt>
      <trkpt lat="42.1228" lon="2.48597">
        <ele>545.6</ele>
        <time>2022-05-21 06:06:11</time>
      </trkpt>
      <trkpt lat="42.12279" lon="2.486">
        <ele>545.8</ele>
        <time>2022-05-21 06:06:12</time>
      </trkpt>
      <trkpt lat="42.12278" lon="2.48603">
        <ele>545.8</ele>
        <time>2022-05-21 06:06:13</time>
      </trkpt>
      <trkpt lat="42.12276" lon="2.48606">
        <ele>545.8</ele>
        <time>2022-05-21 06:06:14</time>
      </trkpt>
      <trkpt lat="42.12275" lon="2.4861">
        <ele>546</ele>
        <time>2022-05-21 06:06:15</time>
      </trkpt>
      <trkpt lat="42.12273" lon="2.48614">
        <ele>546</ele>
        <time>2022-05-21 06:06:16</time>
      </trkpt>
      <trkpt lat="42.12272" lon="2.48617">
        <ele>546.2</ele>
        <time>2022-05-21 06:06:17</time>
      </trkpt>
      <trkpt lat="42.12271" lon="2.48621">
        <ele>546.4</ele>
        <time>2022-05-21 06:06:18</time>
      </trkpt>
      <trkpt lat="42.1227" lon="2.48625">
        <ele>546.4</ele>
        <time>2022-05-21 06:06:19</time>
      </trkpt>
      <trkpt lat="42.12268" lon="2.48629">
        <ele>546.6</ele>
        <time>2022-05-21 06:06:20</time>
      </trkpt>
      <trkpt lat="42.12267" lon="2.48634">
        <ele>546.6</ele>
        <time>2022-05-21 06:06:21</time>
      </trkpt>
      <trkpt lat="42.12265" lon="2.48638">
        <ele>546.8</ele>
        <time>2022-05-21 06:06:22</time>
      </trkpt>
      <trkpt lat="42.12263" lon="2.48642">
        <ele>546.8</ele>
        <time>2022-05-21 06:06:23</time>
      </trkpt>
      <trkpt lat="42.12262" lon="2.48647">
        <ele>546.8</ele>
        <time>2022-05-21 06:06:24</time>
      </trkpt>
      <trkpt lat="42.1226" lon="2.48651">
        <ele>547</ele>
        <time>2022-05-21 06:06:25</time>
      </trkpt>
      <trkpt lat="42.12259" lon="2.48656">
        <ele>547</ele>
        <time>2022-05-21 06:06:26</time>
      </trkpt>
      <trkpt lat="42.12257" lon="2.4866">
        <ele>547.2</ele>
        <time>2022-05-21 06:06:27</time>
      </trkpt>
      <trkpt lat="42.12255" lon="2.48665">
        <ele>547.2</ele>
        <time>2022-05-21 06:06:28</time>
      </trkpt>
      <trkpt lat="42.12254" lon="2.48669">
        <ele>547.4</ele>
        <time>2022-05-21 06:06:29</time>
      </trkpt>
      <trkpt lat="42.12252" lon="2.48673">
        <ele>547.4</ele>
        <time>2022-05-21 06:06:30</time>
      </trkpt>
      <trkpt lat="42.1225" lon="2.48677">
        <ele>547.6</ele>
        <time>2022-05-21 06:06:31</time>
      </trkpt>
      <trkpt lat="42.12248" lon="2.48682">
        <ele>547.6</ele>
        <time>2022-05-21 06:06:32</time>
      </trkpt>
      <trkpt lat="42.12247" lon="2.48686">
        <ele>547.8</ele>
        <time>2022-05-21 06:06:33</time>
      </trkpt>
      <trkpt lat="42.12246" lon="2.48691">
        <ele>547.8</ele>
        <time>2022-05-21 06:06:34</time>
      </trkpt>
      <trkpt lat="42.12244" lon="2.48695">
        <ele>547.8</ele>
        <time>2022-05-21 06:06:35</time>
      </trkpt>
      <trkpt lat="42.12243" lon="2.48699">
        <ele>548</ele>
        <time>2022-05-21 06:06:36</time>
      </trkpt>
      <trkpt lat="42.12241" lon="2.48703">
        <ele>548</ele>
        <time>2022-05-21 06:06:37</time>
      </trkpt>
      <trkpt lat="42.12239" lon="2.48708">
        <ele>548.2</ele>
        <time>2022-05-21 06:06:38</time>
      </trkpt>
      <trkpt lat="42.12238" lon="2.48712">
        <ele>548.2</ele>
        <time>2022-05-21 06:06:39</time>
      </trkpt>
      <trkpt lat="42.12236" lon="2.48717">
        <ele>548.2</ele>
        <time>2022-05-21 06:06:40</time>
      </trkpt>
      <trkpt lat="42.12234" lon="2.4872">
        <ele>548.4</ele>
        <time>2022-05-21 06:06:41</time>
      </trkpt>
      <trkpt lat="42.12233" lon="2.48724">
        <ele>548.4</ele>
        <time>2022-05-21 06:06:42</time>
      </trkpt>
      <trkpt lat="42.12231" lon="2.48729">
        <ele>548.6</ele>
        <time>2022-05-21 06:06:43</time>
      </trkpt>
      <trkpt lat="42.12229" lon="2.48733">
        <ele>548.6</ele>
        <time>2022-05-21 06:06:44</time>
      </trkpt>
      <trkpt lat="42.12227" lon="2.48738">
        <ele>548.8</ele>
        <time>2022-05-21 06:06:45</time>
      </trkpt>
      <trkpt lat="42.12225" lon="2.48742">
        <ele>548.8</ele>
        <time>2022-05-21 06:06:46</time>
      </trkpt>
      <trkpt lat="42.12224" lon="2.48747">
        <ele>548.8</ele>
        <time>2022-05-21 06:06:47</time>
      </trkpt>
      <trkpt lat="42.12222" lon="2.48751">
        <ele>549</ele>
        <time>2022-05-21 06:06:48</time>
      </trkpt>
      <trkpt lat="42.12221" lon="2.48755">
        <ele>549</ele>
        <time>2022-05-21 06:06:49</time>
      </trkpt>
      <trkpt lat="42.12219" lon="2.4876">
        <ele>549.2</ele>
        <time>2022-05-21 06:06:50</time>
      </trkpt>
      <trkpt lat="42.12217" lon="2.48765">
        <ele>549.2</ele>
        <time>2022-05-21 06:06:51</time>
      </trkpt>
      <trkpt lat="42.12215" lon="2.4877">
        <ele>549.4</ele>
        <time>2022-05-21 06:06:52</time>
      </trkpt>
      <trkpt lat="42.12213" lon="2.48774">
        <ele>549.4</ele>
        <time>2022-05-21 06:06:53</time>
      </trkpt>
      <trkpt lat="42.12211" lon="2.48779">
        <ele>549.6</ele>
        <time>2022-05-21 06:06:54</time>
      </trkpt>
      <trkpt lat="42.12209" lon="2.48783">
        <ele>549.6</ele>
        <time>2022-05-21 06:06:55</time>
      </trkpt>
      <trkpt lat="42.12207" lon="2.48788">
        <ele>549.6</ele>
        <time>2022-05-21 06:06:56</time>
      </trkpt>
      <trkpt lat="42.12206" lon="2.48792">
        <ele>549.6</ele>
        <time>2022-05-21 06:06:57</time>
      </trkpt>
      <trkpt lat="42.12204" lon="2.48797">
        <ele>549.8</ele>
        <time>2022-05-21 06:06:58</time>
      </trkpt>
      <trkpt lat="42.12202" lon="2.48801">
        <ele>549.8</ele>
        <time>2022-05-21 06:06:59</time>
      </trkpt>
      <trkpt lat="42.122" lon="2.48806">
        <ele>549.8</ele>
        <time>2022-05-21 06:07:00</time>
      </trkpt>
      <trkpt lat="42.12198" lon="2.4881">
        <ele>550</ele>
        <time>2022-05-21 06:07:01</time>
      </trkpt>
      <trkpt lat="42.12197" lon="2.48814">
        <ele>550</ele>
        <time>2022-05-21 06:07:02</time>
      </trkpt>
      <trkpt lat="42.12195" lon="2.48819">
        <ele>550.2</ele>
        <time>2022-05-21 06:07:03</time>
      </trkpt>
      <trkpt lat="42.12193" lon="2.48823">
        <ele>550.2</ele>
        <time>2022-05-21 06:07:04</time>
      </trkpt>
      <trkpt lat="42.12191" lon="2.48827">
        <ele>550.2</ele>
        <time>2022-05-21 06:07:05</time>
      </trkpt>
      <trkpt lat="42.12189" lon="2.48832">
        <ele>550.4</ele>
        <time>2022-05-21 06:07:06</time>
      </trkpt>
      <trkpt lat="42.12188" lon="2.48836">
        <ele>550.4</ele>
        <time>2022-05-21 06:07:07</time>
      </trkpt>
      <trkpt lat="42.12186" lon="2.4884">
        <ele>550.4</ele>
        <time>2022-05-21 06:07:08</time>
      </trkpt>
      <trkpt lat="42.12184" lon="2.48844">
        <ele>550.6</ele>
        <time>2022-05-21 06:07:09</time>
      </trkpt>
      <trkpt lat="42.12181" lon="2.48848">
        <ele>550.6</ele>
        <time>2022-05-21 06:07:10</time>
      </trkpt>
      <trkpt lat="42.12179" lon="2.48851">
        <ele>550.8</ele>
        <time>2022-05-21 06:07:11</time>
      </trkpt>
      <trkpt lat="42.12177" lon="2.48855">
        <ele>550.8</ele>
        <time>2022-05-21 06:07:12</time>
      </trkpt>
      <trkpt lat="42.12174" lon="2.48859">
        <ele>551</ele>
        <time>2022-05-21 06:07:13</time>
      </trkpt>
      <trkpt lat="42.12171" lon="2.48862">
        <ele>551</ele>
        <time>2022-05-21 06:07:14</time>
      </trkpt>
      <trkpt lat="42.12169" lon="2.48865">
        <ele>551.2</ele>
        <time>2022-05-21 06:07:15</time>
      </trkpt>
      <trkpt lat="42.12166" lon="2.48869">
        <ele>551.2</ele>
        <time>2022-05-21 06:07:16</time>
      </trkpt>
      <trkpt lat="42.12164" lon="2.48872">
        <ele>551.2</ele>
        <time>2022-05-21 06:07:17</time>
      </trkpt>
      <trkpt lat="42.12161" lon="2.48875">
        <ele>551.4</ele>
        <time>2022-05-21 06:07:18</time>
      </trkpt>
      <trkpt lat="42.12158" lon="2.48878">
        <ele>551.4</ele>
        <time>2022-05-21 06:07:19</time>
      </trkpt>
      <trkpt lat="42.12155" lon="2.48881">
        <ele>551.4</ele>
        <time>2022-05-21 06:07:20</time>
      </trkpt>
      <trkpt lat="42.12152" lon="2.48884">
        <ele>551.6</ele>
        <time>2022-05-21 06:07:21</time>
      </trkpt>
      <trkpt lat="42.12149" lon="2.48887">
        <ele>551.6</ele>
        <time>2022-05-21 06:07:22</time>
      </trkpt>
      <trkpt lat="42.12146" lon="2.48889">
        <ele>551.8</ele>
        <time>2022-05-21 06:07:23</time>
      </trkpt>
      <trkpt lat="42.12143" lon="2.48892">
        <ele>551.8</ele>
        <time>2022-05-21 06:07:24</time>
      </trkpt>
      <trkpt lat="42.1214" lon="2.48895">
        <ele>551.8</ele>
        <time>2022-05-21 06:07:25</time>
      </trkpt>
      <trkpt lat="42.12136" lon="2.48897">
        <ele>552</ele>
        <time>2022-05-21 06:07:26</time>
      </trkpt>
      <trkpt lat="42.12133" lon="2.489">
        <ele>552</ele>
        <time>2022-05-21 06:07:27</time>
      </trkpt>
      <trkpt lat="42.1213" lon="2.48902">
        <ele>552</ele>
        <time>2022-05-21 06:07:28</time>
      </trkpt>
      <trkpt lat="42.12127" lon="2.48905">
        <ele>552.2</ele>
        <time>2022-05-21 06:07:29</time>
      </trkpt>
      <trkpt lat="42.12123" lon="2.48907">
        <ele>552.2</ele>
        <time>2022-05-21 06:07:30</time>
      </trkpt>
      <trkpt lat="42.1212" lon="2.48909">
        <ele>552.2</ele>
        <time>2022-05-21 06:07:31</time>
      </trkpt>
      <trkpt lat="42.12116" lon="2.48911">
        <ele>552.2</ele>
        <time>2022-05-21 06:07:32</time>
      </trkpt>
      <trkpt lat="42.12112" lon="2.48914">
        <ele>552.4</ele>
        <time>2022-05-21 06:07:33</time>
      </trkpt>
      <trkpt lat="42.12109" lon="2.48916">
        <ele>552.4</ele>
        <time>2022-05-21 06:07:34</time>
      </trkpt>
      <trkpt lat="42.12105" lon="2.48919">
        <ele>552.6</ele>
        <time>2022-05-21 06:07:35</time>
      </trkpt>
      <trkpt lat="42.12101" lon="2.48921">
        <ele>552.6</ele>
        <time>2022-05-21 06:07:36</time>
      </trkpt>
      <trkpt lat="42.12098" lon="2.48923">
        <ele>552.6</ele>
        <time>2022-05-21 06:07:37</time>
      </trkpt>
      <trkpt lat="42.12094" lon="2.48925">
        <ele>552.8</ele>
        <time>2022-05-21 06:07:38</time>
      </trkpt>
      <trkpt lat="42.1209" lon="2.48928">
        <ele>552.8</ele>
        <time>2022-05-21 06:07:39</time>
      </trkpt>
      <trkpt lat="42.12087" lon="2.4893">
        <ele>553</ele>
        <time>2022-05-21 06:07:40</time>
      </trkpt>
      <trkpt lat="42.12085" lon="2.48932">
        <ele>553</ele>
        <time>2022-05-21 06:07:41</time>
      </trkpt>
      <trkpt lat="42.12083" lon="2.48935">
        <ele>553</ele>
        <time>2022-05-21 06:07:42</time>
      </trkpt>
      <trkpt lat="42.12082" lon="2.48937">
        <ele>553</ele>
        <time>2022-05-21 06:07:43</time>
      </trkpt>
      <trkpt lat="42.1208" lon="2.4894">
        <ele>553.2</ele>
        <time>2022-05-21 06:07:44</time>
      </trkpt>
      <trkpt lat="42.12077" lon="2.48942">
        <ele>553.2</ele>
        <time>2022-05-21 06:07:45</time>
      </trkpt>
      <trkpt lat="42.12075" lon="2.48945">
        <ele>553.2</ele>
        <time>2022-05-21 06:07:46</time>
      </trkpt>
      <trkpt lat="42.12074" lon="2.48947">
        <ele>553.4</ele>
        <time>2022-05-21 06:07:47</time>
      </trkpt>
      <trkpt lat="42.12072" lon="2.48949">
        <ele>553.4</ele>
        <time>2022-05-21 06:07:48</time>
      </trkpt>
      <trkpt lat="42.12069" lon="2.48952">
        <ele>553.4</ele>
        <time>2022-05-21 06:07:49</time>
      </trkpt>
      <trkpt lat="42.12066" lon="2.48955">
        <ele>553.4</ele>
        <time>2022-05-21 06:07:50</time>
      </trkpt>
      <trkpt lat="42.12064" lon="2.48958">
        <ele>553.4</ele>
        <time>2022-05-21 06:07:51</time>
      </trkpt>
      <trkpt lat="42.12061" lon="2.4896">
        <ele>553.4</ele>
        <time>2022-05-21 06:07:52</time>
      </trkpt>
      <trkpt lat="42.12059" lon="2.48963">
        <ele>553.4</ele>
        <time>2022-05-21 06:07:53</time>
      </trkpt>
      <trkpt lat="42.12056" lon="2.48965">
        <ele>553.4</ele>
        <time>2022-05-21 06:07:54</time>
      </trkpt>
      <trkpt lat="42.12054" lon="2.48967">
        <ele>553.6</ele>
        <time>2022-05-21 06:07:55</time>
      </trkpt>
      <trkpt lat="42.12051" lon="2.48969">
        <ele>553.6</ele>
        <time>2022-05-21 06:07:56</time>
      </trkpt>
      <trkpt lat="42.12048" lon="2.48971">
        <ele>553.6</ele>
        <time>2022-05-21 06:07:57</time>
      </trkpt>
      <trkpt lat="42.12045" lon="2.48972">
        <ele>553.6</ele>
        <time>2022-05-21 06:07:58</time>
      </trkpt>
      <trkpt lat="42.12042" lon="2.48973">
        <ele>553.6</ele>
        <time>2022-05-21 06:07:59</time>
      </trkpt>
      <trkpt lat="42.11905" lon="2.49056">
        <ele>553.2</ele>
        <time>2022-05-21 06:08:00</time>
      </trkpt>
      <trkpt lat="42.119" lon="2.49058">
        <ele>553.2</ele>
        <time>2022-05-21 06:08:01</time>
      </trkpt>
      <trkpt lat="42.11895" lon="2.49062">
        <ele>553</ele>
        <time>2022-05-21 06:08:02</time>
      </trkpt>
      <trkpt lat="42.1189" lon="2.49062">
        <ele>553</ele>
        <time>2022-05-21 06:08:03</time>
      </trkpt>
      <trkpt lat="42.11884" lon="2.4906">
        <ele>552.8</ele>
        <time>2022-05-21 06:08:04</time>
      </trkpt>
      <trkpt lat="42.11877" lon="2.49062">
        <ele>552.8</ele>
        <time>2022-05-21 06:08:05</time>
      </trkpt>
      <trkpt lat="42.11871" lon="2.49064">
        <ele>552.6</ele>
        <time>2022-05-21 06:08:06</time>
      </trkpt>
      <trkpt lat="42.11865" lon="2.49066">
        <ele>552.6</ele>
        <time>2022-05-21 06:08:07</time>
      </trkpt>
      <trkpt lat="42.1186" lon="2.49068">
        <ele>552.4</ele>
        <time>2022-05-21 06:08:08</time>
      </trkpt>
      <trkpt lat="42.11854" lon="2.49071">
        <ele>552.4</ele>
        <time>2022-05-21 06:08:09</time>
      </trkpt>
      <trkpt lat="42.11849" lon="2.49073">
        <ele>552.2</ele>
        <time>2022-05-21 06:08:10</time>
      </trkpt>
      <trkpt lat="42.11843" lon="2.49075">
        <ele>552.2</ele>
        <time>2022-05-21 06:08:11</time>
      </trkpt>
      <trkpt lat="42.11837" lon="2.49077">
        <ele>552</ele>
        <time>2022-05-21 06:08:12</time>
      </trkpt>
      <trkpt lat="42.11831" lon="2.49078">
        <ele>552</ele>
        <time>2022-05-21 06:08:13</time>
      </trkpt>
      <trkpt lat="42.11826" lon="2.49079">
        <ele>551.8</ele>
        <time>2022-05-21 06:08:14</time>
      </trkpt>
      <trkpt lat="42.11819" lon="2.4908">
        <ele>551.6</ele>
        <time>2022-05-21 06:08:15</time>
      </trkpt>
      <trkpt lat="42.11814" lon="2.4908">
        <ele>551.6</ele>
        <time>2022-05-21 06:08:16</time>
      </trkpt>
      <trkpt lat="42.11808" lon="2.4908">
        <ele>551.4</ele>
        <time>2022-05-21 06:08:17</time>
      </trkpt>
      <trkpt lat="42.11802" lon="2.4908">
        <ele>551.4</ele>
        <time>2022-05-21 06:08:18</time>
      </trkpt>
      <trkpt lat="42.11796" lon="2.49079">
        <ele>551.2</ele>
        <time>2022-05-21 06:08:19</time>
      </trkpt>
      <trkpt lat="42.1179" lon="2.49078">
        <ele>551</ele>
        <time>2022-05-21 06:08:20</time>
      </trkpt>
      <trkpt lat="42.11784" lon="2.49077">
        <ele>551</ele>
        <time>2022-05-21 06:08:21</time>
      </trkpt>
      <trkpt lat="42.11779" lon="2.49074">
        <ele>550.8</ele>
        <time>2022-05-21 06:08:22</time>
      </trkpt>
      <trkpt lat="42.11773" lon="2.49072">
        <ele>550.8</ele>
        <time>2022-05-21 06:08:23</time>
      </trkpt>
      <trkpt lat="42.11767" lon="2.49069">
        <ele>550.8</ele>
        <time>2022-05-21 06:08:24</time>
      </trkpt>
      <trkpt lat="42.11762" lon="2.49066">
        <ele>550.6</ele>
        <time>2022-05-21 06:08:25</time>
      </trkpt>
      <trkpt lat="42.11757" lon="2.49063">
        <ele>550.6</ele>
        <time>2022-05-21 06:08:26</time>
      </trkpt>
      <trkpt lat="42.11752" lon="2.4906">
        <ele>550.6</ele>
        <time>2022-05-21 06:08:27</time>
      </trkpt>
      <trkpt lat="42.11748" lon="2.49057">
        <ele>550.4</ele>
        <time>2022-05-21 06:08:28</time>
      </trkpt>
      <trkpt lat="42.11741" lon="2.49052">
        <ele>550.4</ele>
        <time>2022-05-21 06:08:29</time>
      </trkpt>
      <trkpt lat="42.11737" lon="2.49049">
        <ele>550.4</ele>
        <time>2022-05-21 06:08:30</time>
      </trkpt>
      <trkpt lat="42.11732" lon="2.49044">
        <ele>550.2</ele>
        <time>2022-05-21 06:08:31</time>
      </trkpt>
      <trkpt lat="42.11728" lon="2.49041">
        <ele>550.2</ele>
        <time>2022-05-21 06:08:32</time>
      </trkpt>
      <trkpt lat="42.11724" lon="2.49037">
        <ele>550</ele>
        <time>2022-05-21 06:08:33</time>
      </trkpt>
      <trkpt lat="42.11718" lon="2.49031">
        <ele>550</ele>
        <time>2022-05-21 06:08:34</time>
      </trkpt>
      <trkpt lat="42.11713" lon="2.49027">
        <ele>549.8</ele>
        <time>2022-05-21 06:08:35</time>
      </trkpt>
      <trkpt lat="42.11708" lon="2.49023">
        <ele>549.6</ele>
        <time>2022-05-21 06:08:36</time>
      </trkpt>
      <trkpt lat="42.11704" lon="2.49018">
        <ele>549.6</ele>
        <time>2022-05-21 06:08:37</time>
      </trkpt>
      <trkpt lat="42.11699" lon="2.49014">
        <ele>549.4</ele>
        <time>2022-05-21 06:08:38</time>
      </trkpt>
      <trkpt lat="42.11695" lon="2.49009">
        <ele>549.4</ele>
        <time>2022-05-21 06:08:39</time>
      </trkpt>
      <trkpt lat="42.11691" lon="2.49005">
        <ele>549.2</ele>
        <time>2022-05-21 06:08:40</time>
      </trkpt>
      <trkpt lat="42.11686" lon="2.49">
        <ele>549</ele>
        <time>2022-05-21 06:08:41</time>
      </trkpt>
      <trkpt lat="42.11682" lon="2.48996">
        <ele>548.8</ele>
        <time>2022-05-21 06:08:42</time>
      </trkpt>
      <trkpt lat="42.11678" lon="2.48991">
        <ele>548.6</ele>
        <time>2022-05-21 06:08:43</time>
      </trkpt>
      <trkpt lat="42.11675" lon="2.48986">
        <ele>548.6</ele>
        <time>2022-05-21 06:08:44</time>
      </trkpt>
      <trkpt lat="42.1167" lon="2.48981">
        <ele>548.4</ele>
        <time>2022-05-21 06:08:45</time>
      </trkpt>
      <trkpt lat="42.11665" lon="2.48977">
        <ele>548.2</ele>
        <time>2022-05-21 06:08:46</time>
      </trkpt>
      <trkpt lat="42.1166" lon="2.48973">
        <ele>548</ele>
        <time>2022-05-21 06:08:47</time>
      </trkpt>
      <trkpt lat="42.11656" lon="2.48969">
        <ele>547.8</ele>
        <time>2022-05-21 06:08:48</time>
      </trkpt>
      <trkpt lat="42.11651" lon="2.48964">
        <ele>547.8</ele>
        <time>2022-05-21 06:08:49</time>
      </trkpt>
      <trkpt lat="42.11646" lon="2.4896">
        <ele>547.6</ele>
        <time>2022-05-21 06:08:50</time>
      </trkpt>
      <trkpt lat="42.11641" lon="2.48955">
        <ele>547.4</ele>
        <time>2022-05-21 06:08:51</time>
      </trkpt>
      <trkpt lat="42.11635" lon="2.4895">
        <ele>547.2</ele>
        <time>2022-05-21 06:08:52</time>
      </trkpt>
      <trkpt lat="42.11629" lon="2.48944">
        <ele>547</ele>
        <time>2022-05-21 06:08:53</time>
      </trkpt>
      <trkpt lat="42.11624" lon="2.48939">
        <ele>546.8</ele>
        <time>2022-05-21 06:08:54</time>
      </trkpt>
      <trkpt lat="42.11618" lon="2.48934">
        <ele>546.8</ele>
        <time>2022-05-21 06:08:55</time>
      </trkpt>
      <trkpt lat="42.11612" lon="2.4893">
        <ele>546.6</ele>
        <time>2022-05-21 06:08:56</time>
      </trkpt>
      <trkpt lat="42.11605" lon="2.48926">
        <ele>546.4</ele>
        <time>2022-05-21 06:08:57</time>
      </trkpt>
      <trkpt lat="42.11599" lon="2.48922">
        <ele>546.2</ele>
        <time>2022-05-21 06:08:58</time>
      </trkpt>
      <trkpt lat="42.11592" lon="2.48918">
        <ele>546</ele>
        <time>2022-05-21 06:08:59</time>
      </trkpt>
      <trkpt lat="42.11586" lon="2.48914">
        <ele>545.8</ele>
        <time>2022-05-21 06:09:00</time>
      </trkpt>
      <trkpt lat="42.11579" lon="2.48911">
        <ele>545.6</ele>
        <time>2022-05-21 06:09:01</time>
      </trkpt>
      <trkpt lat="42.11573" lon="2.48908">
        <ele>545.4</ele>
        <time>2022-05-21 06:09:02</time>
      </trkpt>
      <trkpt lat="42.11566" lon="2.48906">
        <ele>545.2</ele>
        <time>2022-05-21 06:09:03</time>
      </trkpt>
      <trkpt lat="42.11559" lon="2.48905">
        <ele>545</ele>
        <time>2022-05-21 06:09:04</time>
      </trkpt>
      <trkpt lat="42.11552" lon="2.48903">
        <ele>544.8</ele>
        <time>2022-05-21 06:09:05</time>
      </trkpt>
      <trkpt lat="42.11545" lon="2.48902">
        <ele>544.6</ele>
        <time>2022-05-21 06:09:06</time>
      </trkpt>
      <trkpt lat="42.11537" lon="2.48901">
        <ele>544.4</ele>
        <time>2022-05-21 06:09:07</time>
      </trkpt>
      <trkpt lat="42.1153" lon="2.489">
        <ele>544</ele>
        <time>2022-05-21 06:09:08</time>
      </trkpt>
      <trkpt lat="42.11521" lon="2.48899">
        <ele>543.8</ele>
        <time>2022-05-21 06:09:09</time>
      </trkpt>
      <trkpt lat="42.11513" lon="2.48898">
        <ele>543.4</ele>
        <time>2022-05-21 06:09:10</time>
      </trkpt>
      <trkpt lat="42.11505" lon="2.48898">
        <ele>543.2</ele>
        <time>2022-05-21 06:09:11</time>
      </trkpt>
      <trkpt lat="42.11497" lon="2.48897">
        <ele>542.8</ele>
        <time>2022-05-21 06:09:12</time>
      </trkpt>
      <trkpt lat="42.11488" lon="2.48897">
        <ele>542.4</ele>
        <time>2022-05-21 06:09:13</time>
      </trkpt>
      <trkpt lat="42.11479" lon="2.48897">
        <ele>542</ele>
        <time>2022-05-21 06:09:14</time>
      </trkpt>
      <trkpt lat="42.1147" lon="2.48897">
        <ele>541.4</ele>
        <time>2022-05-21 06:09:15</time>
      </trkpt>
      <trkpt lat="42.11461" lon="2.48898">
        <ele>541</ele>
        <time>2022-05-21 06:09:16</time>
      </trkpt>
      <trkpt lat="42.11452" lon="2.489">
        <ele>540.6</ele>
        <time>2022-05-21 06:09:17</time>
      </trkpt>
      <trkpt lat="42.11443" lon="2.48902">
        <ele>540</ele>
        <time>2022-05-21 06:09:18</time>
      </trkpt>
      <trkpt lat="42.11432" lon="2.48906">
        <ele>539.4</ele>
        <time>2022-05-21 06:09:19</time>
      </trkpt>
      <trkpt lat="42.11422" lon="2.48911">
        <ele>538.8</ele>
        <time>2022-05-21 06:09:20</time>
      </trkpt>
      <trkpt lat="42.11412" lon="2.48917">
        <ele>538.2</ele>
        <time>2022-05-21 06:09:21</time>
      </trkpt>
      <trkpt lat="42.11403" lon="2.48923">
        <ele>537.6</ele>
        <time>2022-05-21 06:09:22</time>
      </trkpt>
      <trkpt lat="42.11393" lon="2.4893">
        <ele>537</ele>
        <time>2022-05-21 06:09:23</time>
      </trkpt>
      <trkpt lat="42.11383" lon="2.48937">
        <ele>536.4</ele>
        <time>2022-05-21 06:09:24</time>
      </trkpt>
      <trkpt lat="42.11374" lon="2.48944">
        <ele>536</ele>
        <time>2022-05-21 06:09:25</time>
      </trkpt>
      <trkpt lat="42.11366" lon="2.48951">
        <ele>535.6</ele>
        <time>2022-05-21 06:09:26</time>
      </trkpt>
      <trkpt lat="42.11357" lon="2.48958">
        <ele>535.2</ele>
        <time>2022-05-21 06:09:27</time>
      </trkpt>
      <trkpt lat="42.11349" lon="2.48964">
        <ele>534.8</ele>
        <time>2022-05-21 06:09:28</time>
      </trkpt>
      <trkpt lat="42.11341" lon="2.4897">
        <ele>534.4</ele>
        <time>2022-05-21 06:09:29</time>
      </trkpt>
      <trkpt lat="42.11332" lon="2.48977">
        <ele>534</ele>
        <time>2022-05-21 06:09:30</time>
      </trkpt>
      <trkpt lat="42.11324" lon="2.48983">
        <ele>533.8</ele>
        <time>2022-05-21 06:09:31</time>
      </trkpt>
      <trkpt lat="42.11313" lon="2.48988">
        <ele>533.4</ele>
        <time>2022-05-21 06:09:32</time>
      </trkpt>
      <trkpt lat="42.11303" lon="2.48993">
        <ele>533.2</ele>
        <time>2022-05-21 06:09:33</time>
      </trkpt>
      <trkpt lat="42.11293" lon="2.48995">
        <ele>533</ele>
        <time>2022-05-21 06:09:34</time>
      </trkpt>
      <trkpt lat="42.11284" lon="2.48998">
        <ele>532.8</ele>
        <time>2022-05-21 06:09:35</time>
      </trkpt>
      <trkpt lat="42.11275" lon="2.49">
        <ele>532.6</ele>
        <time>2022-05-21 06:09:36</time>
      </trkpt>
      <trkpt lat="42.11267" lon="2.49003">
        <ele>532.4</ele>
        <time>2022-05-21 06:09:37</time>
      </trkpt>
      <trkpt lat="42.11257" lon="2.49005">
        <ele>532.2</ele>
        <time>2022-05-21 06:09:38</time>
      </trkpt>
      <trkpt lat="42.11247" lon="2.49007">
        <ele>532</ele>
        <time>2022-05-21 06:09:39</time>
      </trkpt>
      <trkpt lat="42.11238" lon="2.49008">
        <ele>531.8</ele>
        <time>2022-05-21 06:09:40</time>
      </trkpt>
      <trkpt lat="42.11229" lon="2.49008">
        <ele>531.4</ele>
        <time>2022-05-21 06:09:41</time>
      </trkpt>
      <trkpt lat="42.1122" lon="2.49009">
        <ele>531.2</ele>
        <time>2022-05-21 06:09:42</time>
      </trkpt>
      <trkpt lat="42.1121" lon="2.49008">
        <ele>531</ele>
        <time>2022-05-21 06:09:43</time>
      </trkpt>
      <trkpt lat="42.112" lon="2.49007">
        <ele>530.6</ele>
        <time>2022-05-21 06:09:44</time>
      </trkpt>
      <trkpt lat="42.11189" lon="2.49006">
        <ele>530.2</ele>
        <time>2022-05-21 06:09:45</time>
      </trkpt>
      <trkpt lat="42.1118" lon="2.49005">
        <ele>530</ele>
        <time>2022-05-21 06:09:46</time>
      </trkpt>
      <trkpt lat="42.11171" lon="2.49003">
        <ele>529.6</ele>
        <time>2022-05-21 06:09:47</time>
      </trkpt>
      <trkpt lat="42.11163" lon="2.49001">
        <ele>529.4</ele>
        <time>2022-05-21 06:09:48</time>
      </trkpt>
      <trkpt lat="42.11153" lon="2.48999">
        <ele>529</ele>
        <time>2022-05-21 06:09:49</time>
      </trkpt>
      <trkpt lat="42.11144" lon="2.48997">
        <ele>528.6</ele>
        <time>2022-05-21 06:09:50</time>
      </trkpt>
      <trkpt lat="42.11135" lon="2.48995">
        <ele>528.4</ele>
        <time>2022-05-21 06:09:51</time>
      </trkpt>
      <trkpt lat="42.11125" lon="2.48994">
        <ele>528</ele>
        <time>2022-05-21 06:09:52</time>
      </trkpt>
      <trkpt lat="42.11115" lon="2.48993">
        <ele>527.8</ele>
        <time>2022-05-21 06:09:53</time>
      </trkpt>
      <trkpt lat="42.11106" lon="2.48994">
        <ele>527.6</ele>
        <time>2022-05-21 06:09:54</time>
      </trkpt>
      <trkpt lat="42.11095" lon="2.48994">
        <ele>527.2</ele>
        <time>2022-05-21 06:09:55</time>
      </trkpt>
      <trkpt lat="42.11086" lon="2.48995">
        <ele>527</ele>
        <time>2022-05-21 06:09:56</time>
      </trkpt>
      <trkpt lat="42.11077" lon="2.48996">
        <ele>526.6</ele>
        <time>2022-05-21 06:09:57</time>
      </trkpt>
      <trkpt lat="42.11068" lon="2.48997">
        <ele>526.4</ele>
        <time>2022-05-21 06:09:58</time>
      </trkpt>
      <trkpt lat="42.11059" lon="2.48999">
        <ele>526</ele>
        <time>2022-05-21 06:09:59</time>
      </trkpt>
      <trkpt lat="42.1105" lon="2.49002">
        <ele>525.8</ele>
        <time>2022-05-21 06:10:00</time>
      </trkpt>
      <trkpt lat="42.11041" lon="2.49005">
        <ele>525.4</ele>
        <time>2022-05-21 06:10:01</time>
      </trkpt>
      <trkpt lat="42.11033" lon="2.49008">
        <ele>525</ele>
        <time>2022-05-21 06:10:02</time>
      </trkpt>
      <trkpt lat="42.11023" lon="2.49011">
        <ele>524.6</ele>
        <time>2022-05-21 06:10:03</time>
      </trkpt>
      <trkpt lat="42.11014" lon="2.49016">
        <ele>524.4</ele>
        <time>2022-05-21 06:10:04</time>
      </trkpt>
      <trkpt lat="42.11006" lon="2.4902">
        <ele>524</ele>
        <time>2022-05-21 06:10:05</time>
      </trkpt>
      <trkpt lat="42.10998" lon="2.49025">
        <ele>523.6</ele>
        <time>2022-05-21 06:10:06</time>
      </trkpt>
      <trkpt lat="42.1099" lon="2.49029">
        <ele>523.4</ele>
        <time>2022-05-21 06:10:07</time>
      </trkpt>
      <trkpt lat="42.10981" lon="2.49034">
        <ele>523</ele>
        <time>2022-05-21 06:10:08</time>
      </trkpt>
      <trkpt lat="42.10972" lon="2.49039">
        <ele>522.8</ele>
        <time>2022-05-21 06:10:09</time>
      </trkpt>
      <trkpt lat="42.10963" lon="2.49044">
        <ele>522.4</ele>
        <time>2022-05-21 06:10:10</time>
      </trkpt>
      <trkpt lat="42.10954" lon="2.49048">
        <ele>522</ele>
        <time>2022-05-21 06:10:11</time>
      </trkpt>
      <trkpt lat="42.10944" lon="2.49051">
        <ele>521.8</ele>
        <time>2022-05-21 06:10:12</time>
      </trkpt>
      <trkpt lat="42.10935" lon="2.49055">
        <ele>521.4</ele>
        <time>2022-05-21 06:10:13</time>
      </trkpt>
      <trkpt lat="42.10925" lon="2.49059">
        <ele>521</ele>
        <time>2022-05-21 06:10:14</time>
      </trkpt>
      <trkpt lat="42.10915" lon="2.49062">
        <ele>520.8</ele>
        <time>2022-05-21 06:10:15</time>
      </trkpt>
      <trkpt lat="42.10906" lon="2.49066">
        <ele>520.4</ele>
        <time>2022-05-21 06:10:16</time>
      </trkpt>
      <trkpt lat="42.10896" lon="2.49068">
        <ele>520</ele>
        <time>2022-05-21 06:10:17</time>
      </trkpt>
      <trkpt lat="42.10887" lon="2.49071">
        <ele>519.6</ele>
        <time>2022-05-21 06:10:18</time>
      </trkpt>
      <trkpt lat="42.10878" lon="2.49074">
        <ele>519.4</ele>
        <time>2022-05-21 06:10:19</time>
      </trkpt>
      <trkpt lat="42.10869" lon="2.49078">
        <ele>519</ele>
        <time>2022-05-21 06:10:20</time>
      </trkpt>
      <trkpt lat="42.1086" lon="2.49082">
        <ele>518.6</ele>
        <time>2022-05-21 06:10:21</time>
      </trkpt>
      <trkpt lat="42.10851" lon="2.49085">
        <ele>518.4</ele>
        <time>2022-05-21 06:10:22</time>
      </trkpt>
      <trkpt lat="42.10843" lon="2.49089">
        <ele>518</ele>
        <time>2022-05-21 06:10:23</time>
      </trkpt>
      <trkpt lat="42.10834" lon="2.49093">
        <ele>517.8</ele>
        <time>2022-05-21 06:10:24</time>
      </trkpt>
      <trkpt lat="42.10825" lon="2.49096">
        <ele>517.6</ele>
        <time>2022-05-21 06:10:25</time>
      </trkpt>
      <trkpt lat="42.10816" lon="2.49098">
        <ele>517.2</ele>
        <time>2022-05-21 06:10:26</time>
      </trkpt>
      <trkpt lat="42.10808" lon="2.49102">
        <ele>517</ele>
        <time>2022-05-21 06:10:27</time>
      </trkpt>
      <trkpt lat="42.10799" lon="2.49105">
        <ele>516.8</ele>
        <time>2022-05-21 06:10:28</time>
      </trkpt>
      <trkpt lat="42.10791" lon="2.49108">
        <ele>516.6</ele>
        <time>2022-05-21 06:10:29</time>
      </trkpt>
      <trkpt lat="42.10783" lon="2.49111">
        <ele>516.4</ele>
        <time>2022-05-21 06:10:30</time>
      </trkpt>
      <trkpt lat="42.10774" lon="2.49114">
        <ele>516.2</ele>
        <time>2022-05-21 06:10:31</time>
      </trkpt>
      <trkpt lat="42.10766" lon="2.49118">
        <ele>515.8</ele>
        <time>2022-05-21 06:10:32</time>
      </trkpt>
      <trkpt lat="42.10758" lon="2.49121">
        <ele>515.8</ele>
        <time>2022-05-21 06:10:33</time>
      </trkpt>
      <trkpt lat="42.1075" lon="2.49124">
        <ele>515.6</ele>
        <time>2022-05-21 06:10:34</time>
      </trkpt>
      <trkpt lat="42.10742" lon="2.49127">
        <ele>515.2</ele>
        <time>2022-05-21 06:10:35</time>
      </trkpt>
      <trkpt lat="42.10734" lon="2.4913">
        <ele>515</ele>
        <time>2022-05-21 06:10:36</time>
      </trkpt>
      <trkpt lat="42.10726" lon="2.49133">
        <ele>514.6</ele>
        <time>2022-05-21 06:10:37</time>
      </trkpt>
      <trkpt lat="42.10717" lon="2.49136">
        <ele>514.4</ele>
        <time>2022-05-21 06:10:38</time>
      </trkpt>
      <trkpt lat="42.10709" lon="2.49139">
        <ele>514.2</ele>
        <time>2022-05-21 06:10:39</time>
      </trkpt>
      <trkpt lat="42.10701" lon="2.49142">
        <ele>514</ele>
        <time>2022-05-21 06:10:40</time>
      </trkpt>
      <trkpt lat="42.10693" lon="2.49145">
        <ele>513.6</ele>
        <time>2022-05-21 06:10:41</time>
      </trkpt>
      <trkpt lat="42.10684" lon="2.49149">
        <ele>513.4</ele>
        <time>2022-05-21 06:10:42</time>
      </trkpt>
      <trkpt lat="42.10675" lon="2.49152">
        <ele>513.2</ele>
        <time>2022-05-21 06:10:43</time>
      </trkpt>
      <trkpt lat="42.10667" lon="2.49155">
        <ele>513</ele>
        <time>2022-05-21 06:10:44</time>
      </trkpt>
      <trkpt lat="42.10659" lon="2.49158">
        <ele>512.8</ele>
        <time>2022-05-21 06:10:45</time>
      </trkpt>
      <trkpt lat="42.10651" lon="2.49161">
        <ele>512.6</ele>
        <time>2022-05-21 06:10:46</time>
      </trkpt>
      <trkpt lat="42.10643" lon="2.49164">
        <ele>512.4</ele>
        <time>2022-05-21 06:10:47</time>
      </trkpt>
      <trkpt lat="42.10634" lon="2.49166">
        <ele>512.2</ele>
        <time>2022-05-21 06:10:48</time>
      </trkpt>
      <trkpt lat="42.10625" lon="2.4917">
        <ele>511.8</ele>
        <time>2022-05-21 06:10:49</time>
      </trkpt>
      <trkpt lat="42.10617" lon="2.49172">
        <ele>511.6</ele>
        <time>2022-05-21 06:10:50</time>
      </trkpt>
      <trkpt lat="42.10609" lon="2.49175">
        <ele>511.4</ele>
        <time>2022-05-21 06:10:51</time>
      </trkpt>
      <trkpt lat="42.10601" lon="2.49178">
        <ele>511.2</ele>
        <time>2022-05-21 06:10:52</time>
      </trkpt>
      <trkpt lat="42.10592" lon="2.49182">
        <ele>510.8</ele>
        <time>2022-05-21 06:10:53</time>
      </trkpt>
      <trkpt lat="42.10583" lon="2.49184">
        <ele>510.6</ele>
        <time>2022-05-21 06:10:54</time>
      </trkpt>
      <trkpt lat="42.10575" lon="2.49187">
        <ele>510.4</ele>
        <time>2022-05-21 06:10:55</time>
      </trkpt>
      <trkpt lat="42.10566" lon="2.4919">
        <ele>510</ele>
        <time>2022-05-21 06:10:56</time>
      </trkpt>
      <trkpt lat="42.10558" lon="2.49193">
        <ele>509.8</ele>
        <time>2022-05-21 06:10:57</time>
      </trkpt>
      <trkpt lat="42.10549" lon="2.49196">
        <ele>509.4</ele>
        <time>2022-05-21 06:10:58</time>
      </trkpt>
      <trkpt lat="42.1054" lon="2.49199">
        <ele>509.2</ele>
        <time>2022-05-21 06:10:59</time>
      </trkpt>
      <trkpt lat="42.10532" lon="2.49202">
        <ele>508.8</ele>
        <time>2022-05-21 06:11:00</time>
      </trkpt>
      <trkpt lat="42.10523" lon="2.49206">
        <ele>508.6</ele>
        <time>2022-05-21 06:11:01</time>
      </trkpt>
      <trkpt lat="42.10514" lon="2.49209">
        <ele>508.2</ele>
        <time>2022-05-21 06:11:02</time>
      </trkpt>
      <trkpt lat="42.10506" lon="2.49212">
        <ele>508</ele>
        <time>2022-05-21 06:11:03</time>
      </trkpt>
      <trkpt lat="42.10498" lon="2.49217">
        <ele>507.8</ele>
        <time>2022-05-21 06:11:04</time>
      </trkpt>
      <trkpt lat="42.10489" lon="2.49221">
        <ele>507.4</ele>
        <time>2022-05-21 06:11:05</time>
      </trkpt>
      <trkpt lat="42.10481" lon="2.49226">
        <ele>507.2</ele>
        <time>2022-05-21 06:11:06</time>
      </trkpt>
      <trkpt lat="42.10473" lon="2.49231">
        <ele>507</ele>
        <time>2022-05-21 06:11:07</time>
      </trkpt>
      <trkpt lat="42.10464" lon="2.49237">
        <ele>506.6</ele>
        <time>2022-05-21 06:11:08</time>
      </trkpt>
      <trkpt lat="42.10456" lon="2.49244">
        <ele>506.2</ele>
        <time>2022-05-21 06:11:09</time>
      </trkpt>
      <trkpt lat="42.10449" lon="2.49251">
        <ele>506</ele>
        <time>2022-05-21 06:11:10</time>
      </trkpt>
      <trkpt lat="42.10441" lon="2.49258">
        <ele>505.8</ele>
        <time>2022-05-21 06:11:11</time>
      </trkpt>
      <trkpt lat="42.10434" lon="2.49266">
        <ele>505.4</ele>
        <time>2022-05-21 06:11:12</time>
      </trkpt>
      <trkpt lat="42.10427" lon="2.49273">
        <ele>505.2</ele>
        <time>2022-05-21 06:11:13</time>
      </trkpt>
      <trkpt lat="42.1042" lon="2.49281">
        <ele>504.8</ele>
        <time>2022-05-21 06:11:14</time>
      </trkpt>
      <trkpt lat="42.10413" lon="2.49289">
        <ele>504.6</ele>
        <time>2022-05-21 06:11:15</time>
      </trkpt>
      <trkpt lat="42.10407" lon="2.49298">
        <ele>504.4</ele>
        <time>2022-05-21 06:11:16</time>
      </trkpt>
      <trkpt lat="42.10401" lon="2.49307">
        <ele>504</ele>
        <time>2022-05-21 06:11:17</time>
      </trkpt>
      <trkpt lat="42.10395" lon="2.49317">
        <ele>503.8</ele>
        <time>2022-05-21 06:11:18</time>
      </trkpt>
      <trkpt lat="42.10389" lon="2.49327">
        <ele>503.6</ele>
        <time>2022-05-21 06:11:19</time>
      </trkpt>
      <trkpt lat="42.10384" lon="2.49336">
        <ele>503.4</ele>
        <time>2022-05-21 06:11:20</time>
      </trkpt>
      <trkpt lat="42.10379" lon="2.49346">
        <ele>503</ele>
        <time>2022-05-21 06:11:21</time>
      </trkpt>
      <trkpt lat="42.10375" lon="2.49356">
        <ele>502.8</ele>
        <time>2022-05-21 06:11:22</time>
      </trkpt>
      <trkpt lat="42.10371" lon="2.49366">
        <ele>502.6</ele>
        <time>2022-05-21 06:11:23</time>
      </trkpt>
      <trkpt lat="42.10366" lon="2.49375">
        <ele>502.4</ele>
        <time>2022-05-21 06:11:24</time>
      </trkpt>
      <trkpt lat="42.10361" lon="2.49385">
        <ele>502</ele>
        <time>2022-05-21 06:11:25</time>
      </trkpt>
      <trkpt lat="42.10358" lon="2.49396">
        <ele>501.8</ele>
        <time>2022-05-21 06:11:26</time>
      </trkpt>
      <trkpt lat="42.10353" lon="2.49406">
        <ele>501.6</ele>
        <time>2022-05-21 06:11:27</time>
      </trkpt>
      <trkpt lat="42.10349" lon="2.49416">
        <ele>501.4</ele>
        <time>2022-05-21 06:11:28</time>
      </trkpt>
      <trkpt lat="42.10345" lon="2.49426">
        <ele>501</ele>
        <time>2022-05-21 06:11:29</time>
      </trkpt>
      <trkpt lat="42.10341" lon="2.49436">
        <ele>500.6</ele>
        <time>2022-05-21 06:11:30</time>
      </trkpt>
      <trkpt lat="42.10336" lon="2.49446">
        <ele>500.4</ele>
        <time>2022-05-21 06:11:31</time>
      </trkpt>
      <trkpt lat="42.10331" lon="2.49456">
        <ele>500</ele>
        <time>2022-05-21 06:11:32</time>
      </trkpt>
      <trkpt lat="42.10326" lon="2.49465">
        <ele>499.8</ele>
        <time>2022-05-21 06:11:33</time>
      </trkpt>
      <trkpt lat="42.1032" lon="2.49474">
        <ele>499.4</ele>
        <time>2022-05-21 06:11:34</time>
      </trkpt>
      <trkpt lat="42.10314" lon="2.49482">
        <ele>499.2</ele>
        <time>2022-05-21 06:11:35</time>
      </trkpt>
      <trkpt lat="42.10308" lon="2.4949">
        <ele>499</ele>
        <time>2022-05-21 06:11:36</time>
      </trkpt>
      <trkpt lat="42.10302" lon="2.49498">
        <ele>498.8</ele>
        <time>2022-05-21 06:11:37</time>
      </trkpt>
      <trkpt lat="42.10295" lon="2.49505">
        <ele>498.6</ele>
        <time>2022-05-21 06:11:38</time>
      </trkpt>
      <trkpt lat="42.10288" lon="2.49512">
        <ele>498.2</ele>
        <time>2022-05-21 06:11:39</time>
      </trkpt>
      <trkpt lat="42.10281" lon="2.49518">
        <ele>498.2</ele>
        <time>2022-05-21 06:11:40</time>
      </trkpt>
      <trkpt lat="42.10273" lon="2.49524">
        <ele>498</ele>
        <time>2022-05-21 06:11:41</time>
      </trkpt>
      <trkpt lat="42.10266" lon="2.4953">
        <ele>497.6</ele>
        <time>2022-05-21 06:11:42</time>
      </trkpt>
      <trkpt lat="42.10258" lon="2.49534">
        <ele>497.4</ele>
        <time>2022-05-21 06:11:43</time>
      </trkpt>
      <trkpt lat="42.10251" lon="2.49538">
        <ele>497.2</ele>
        <time>2022-05-21 06:11:44</time>
      </trkpt>
      <trkpt lat="42.10243" lon="2.49542">
        <ele>497.2</ele>
        <time>2022-05-21 06:11:45</time>
      </trkpt>
      <trkpt lat="42.10235" lon="2.49545">
        <ele>497</ele>
        <time>2022-05-21 06:11:46</time>
      </trkpt>
      <trkpt lat="42.10226" lon="2.49548">
        <ele>496.8</ele>
        <time>2022-05-21 06:11:47</time>
      </trkpt>
      <trkpt lat="42.10218" lon="2.4955">
        <ele>496.6</ele>
        <time>2022-05-21 06:11:48</time>
      </trkpt>
      <trkpt lat="42.1021" lon="2.49551">
        <ele>496.6</ele>
        <time>2022-05-21 06:11:49</time>
      </trkpt>
      <trkpt lat="42.10202" lon="2.49552">
        <ele>496.4</ele>
        <time>2022-05-21 06:11:50</time>
      </trkpt>
      <trkpt lat="42.10193" lon="2.49552">
        <ele>496.4</ele>
        <time>2022-05-21 06:11:51</time>
      </trkpt>
      <trkpt lat="42.10185" lon="2.49553">
        <ele>496.2</ele>
        <time>2022-05-21 06:11:52</time>
      </trkpt>
      <trkpt lat="42.10177" lon="2.49553">
        <ele>496.2</ele>
        <time>2022-05-21 06:11:53</time>
      </trkpt>
      <trkpt lat="42.1017" lon="2.49553">
        <ele>496.2</ele>
        <time>2022-05-21 06:11:54</time>
      </trkpt>
      <trkpt lat="42.10162" lon="2.49553">
        <ele>496</ele>
        <time>2022-05-21 06:11:55</time>
      </trkpt>
      <trkpt lat="42.10154" lon="2.49553">
        <ele>496</ele>
        <time>2022-05-21 06:11:56</time>
      </trkpt>
      <trkpt lat="42.10146" lon="2.49553">
        <ele>496</ele>
        <time>2022-05-21 06:11:57</time>
      </trkpt>
      <trkpt lat="42.10139" lon="2.49553">
        <ele>496</ele>
        <time>2022-05-21 06:11:58</time>
      </trkpt>
      <trkpt lat="42.10131" lon="2.49553">
        <ele>496</ele>
        <time>2022-05-21 06:11:59</time>
      </trkpt>
      <trkpt lat="42.10124" lon="2.49553">
        <ele>496</ele>
        <time>2022-05-21 06:12:00</time>
      </trkpt>
      <trkpt lat="42.10117" lon="2.49553">
        <ele>496</ele>
        <time>2022-05-21 06:12:01</time>
      </trkpt>
      <trkpt lat="42.10109" lon="2.49553">
        <ele>496</ele>
        <time>2022-05-21 06:12:02</time>
      </trkpt>
      <trkpt lat="42.10102" lon="2.49553">
        <ele>496</ele>
        <time>2022-05-21 06:12:03</time>
      </trkpt>
      <trkpt lat="42.10095" lon="2.49553">
        <ele>496</ele>
        <time>2022-05-21 06:12:04</time>
      </trkpt>
      <trkpt lat="42.10088" lon="2.49553">
        <ele>496</ele>
        <time>2022-05-21 06:12:05</time>
      </trkpt>
      <trkpt lat="42.10081" lon="2.49553">
        <ele>496</ele>
        <time>2022-05-21 06:12:06</time>
      </trkpt>
      <trkpt lat="42.10074" lon="2.49553">
        <ele>496</ele>
        <time>2022-05-21 06:12:07</time>
      </trkpt>
      <trkpt lat="42.10067" lon="2.49553">
        <ele>496</ele>
        <time>2022-05-21 06:12:08</time>
      </trkpt>
      <trkpt lat="42.1006" lon="2.49553">
        <ele>496</ele>
        <time>2022-05-21 06:12:09</time>
      </trkpt>
      <trkpt lat="42.10054" lon="2.49553">
        <ele>496</ele>
        <time>2022-05-21 06:12:10</time>
      </trkpt>
      <trkpt lat="42.10047" lon="2.49553">
        <ele>496</ele>
        <time>2022-05-21 06:12:11</time>
      </trkpt>
      <trkpt lat="42.1004" lon="2.49553">
        <ele>496</ele>
        <time>2022-05-21 06:12:12</time>
      </trkpt>
      <trkpt lat="42.10033" lon="2.49553">
        <ele>496</ele>
        <time>2022-05-21 06:12:13</time>
      </trkpt>
      <trkpt lat="42.10027" lon="2.49553">
        <ele>496</ele>
        <time>2022-05-21 06:12:14</time>
      </trkpt>
      <trkpt lat="42.1002" lon="2.49553">
        <ele>496</ele>
        <time>2022-05-21 06:12:15</time>
      </trkpt>
      <trkpt lat="42.10014" lon="2.49553">
        <ele>496</ele>
        <time>2022-05-21 06:12:16</time>
      </trkpt>
      <trkpt lat="42.10007" lon="2.49553">
        <ele>496</ele>
        <time>2022-05-21 06:12:17</time>
      </trkpt>
      <trkpt lat="42.10001" lon="2.49554">
        <ele>496</ele>
        <time>2022-05-21 06:12:18</time>
      </trkpt>
      <trkpt lat="42.09994" lon="2.49554">
        <ele>496.2</ele>
        <time>2022-05-21 06:12:19</time>
      </trkpt>
      <trkpt lat="42.09988" lon="2.49554">
        <ele>496.2</ele>
        <time>2022-05-21 06:12:20</time>
      </trkpt>
      <trkpt lat="42.09981" lon="2.49554">
        <ele>496.2</ele>
        <time>2022-05-21 06:12:21</time>
      </trkpt>
      <trkpt lat="42.09975" lon="2.49554">
        <ele>496.2</ele>
        <time>2022-05-21 06:12:22</time>
      </trkpt>
      <trkpt lat="42.09968" lon="2.49554">
        <ele>496.2</ele>
        <time>2022-05-21 06:12:23</time>
      </trkpt>
      <trkpt lat="42.09962" lon="2.49554">
        <ele>496.2</ele>
        <time>2022-05-21 06:12:24</time>
      </trkpt>
      <trkpt lat="42.09956" lon="2.49554">
        <ele>496.2</ele>
        <time>2022-05-21 06:12:25</time>
      </trkpt>
      <trkpt lat="42.09949" lon="2.49554">
        <ele>496.2</ele>
        <time>2022-05-21 06:12:26</time>
      </trkpt>
      <trkpt lat="42.09943" lon="2.49554">
        <ele>496.2</ele>
        <time>2022-05-21 06:12:27</time>
      </trkpt>
      <trkpt lat="42.09937" lon="2.49555">
        <ele>496.2</ele>
        <time>2022-05-21 06:12:28</time>
      </trkpt>
      <trkpt lat="42.0993" lon="2.49555">
        <ele>496</ele>
        <time>2022-05-21 06:12:29</time>
      </trkpt>
      <trkpt lat="42.09924" lon="2.49555">
        <ele>496</ele>
        <time>2022-05-21 06:12:30</time>
      </trkpt>
      <trkpt lat="42.09918" lon="2.49555">
        <ele>496</ele>
        <time>2022-05-21 06:12:31</time>
      </trkpt>
      <trkpt lat="42.09911" lon="2.49554">
        <ele>496</ele>
        <time>2022-05-21 06:12:32</time>
      </trkpt>
      <trkpt lat="42.09904" lon="2.49554">
        <ele>496</ele>
        <time>2022-05-21 06:12:33</time>
      </trkpt>
      <trkpt lat="42.09898" lon="2.49553">
        <ele>495.8</ele>
        <time>2022-05-21 06:12:34</time>
      </trkpt>
      <trkpt lat="42.09891" lon="2.49553">
        <ele>495.8</ele>
        <time>2022-05-21 06:12:35</time>
      </trkpt>
      <trkpt lat="42.09884" lon="2.49553">
        <ele>495.8</ele>
        <time>2022-05-21 06:12:36</time>
      </trkpt>
      <trkpt lat="42.09877" lon="2.49554">
        <ele>495.8</ele>
        <time>2022-05-21 06:12:37</time>
      </trkpt>
      <trkpt lat="42.09871" lon="2.49554">
        <ele>495.8</ele>
        <time>2022-05-21 06:12:38</time>
      </trkpt>
      <trkpt lat="42.09864" lon="2.49554">
        <ele>495.8</ele>
        <time>2022-05-21 06:12:39</time>
      </trkpt>
      <trkpt lat="42.09858" lon="2.49554">
        <ele>495.8</ele>
        <time>2022-05-21 06:12:40</time>
      </trkpt>
      <trkpt lat="42.09851" lon="2.49553">
        <ele>495.8</ele>
        <time>2022-05-21 06:12:41</time>
      </trkpt>
      <trkpt lat="42.09845" lon="2.49553">
        <ele>496</ele>
        <time>2022-05-21 06:12:42</time>
      </trkpt>
      <trkpt lat="42.09839" lon="2.49554">
        <ele>496</ele>
        <time>2022-05-21 06:12:43</time>
      </trkpt>
      <trkpt lat="42.09833" lon="2.49554">
        <ele>496</ele>
        <time>2022-05-21 06:12:44</time>
      </trkpt>
      <trkpt lat="42.09826" lon="2.49554">
        <ele>496</ele>
        <time>2022-05-21 06:12:45</time>
      </trkpt>
      <trkpt lat="42.0982" lon="2.49554">
        <ele>496</ele>
        <time>2022-05-21 06:12:46</time>
      </trkpt>
      <trkpt lat="42.09814" lon="2.49554">
        <ele>496</ele>
        <time>2022-05-21 06:12:47</time>
      </trkpt>
      <trkpt lat="42.09808" lon="2.49554">
        <ele>496</ele>
        <time>2022-05-21 06:12:48</time>
      </trkpt>
      <trkpt lat="42.09802" lon="2.49554">
        <ele>496</ele>
        <time>2022-05-21 06:12:49</time>
      </trkpt>
      <trkpt lat="42.09796" lon="2.49554">
        <ele>496</ele>
        <time>2022-05-21 06:12:50</time>
      </trkpt>
      <trkpt lat="42.0979" lon="2.49554">
        <ele>496</ele>
        <time>2022-05-21 06:12:51</time>
      </trkpt>
      <trkpt lat="42.09784" lon="2.49554">
        <ele>496</ele>
        <time>2022-05-21 06:12:52</time>
      </trkpt>
      <trkpt lat="42.09778" lon="2.49554">
        <ele>496</ele>
        <time>2022-05-21 06:12:53</time>
      </trkpt>
      <trkpt lat="42.09772" lon="2.49554">
        <ele>496.2</ele>
        <time>2022-05-21 06:12:54</time>
      </trkpt>
      <trkpt lat="42.09766" lon="2.49554">
        <ele>496.2</ele>
        <time>2022-05-21 06:12:55</time>
      </trkpt>
      <trkpt lat="42.0976" lon="2.49554">
        <ele>496.2</ele>
        <time>2022-05-21 06:12:56</time>
      </trkpt>
      <trkpt lat="42.09754" lon="2.49554">
        <ele>496.2</ele>
        <time>2022-05-21 06:12:57</time>
      </trkpt>
      <trkpt lat="42.09748" lon="2.49554">
        <ele>496.2</ele>
        <time>2022-05-21 06:12:58</time>
      </trkpt>
      <trkpt lat="42.09742" lon="2.49555">
        <ele>496.2</ele>
        <time>2022-05-21 06:12:59</time>
      </trkpt>
      <trkpt lat="42.09736" lon="2.49555">
        <ele>496.4</ele>
        <time>2022-05-21 06:13:00</time>
      </trkpt>
      <trkpt lat="42.0973" lon="2.49556">
        <ele>496.4</ele>
        <time>2022-05-21 06:13:01</time>
      </trkpt>
      <trkpt lat="42.09724" lon="2.49556">
        <ele>496.4</ele>
        <time>2022-05-21 06:13:02</time>
      </trkpt>
      <trkpt lat="42.09719" lon="2.49556">
        <ele>496.4</ele>
        <time>2022-05-21 06:13:03</time>
      </trkpt>
      <trkpt lat="42.09713" lon="2.49556">
        <ele>496.4</ele>
        <time>2022-05-21 06:13:04</time>
      </trkpt>
      <trkpt lat="42.09706" lon="2.49556">
        <ele>496.6</ele>
        <time>2022-05-21 06:13:05</time>
      </trkpt>
      <trkpt lat="42.09701" lon="2.49556">
        <ele>496.6</ele>
        <time>2022-05-21 06:13:06</time>
      </trkpt>
      <trkpt lat="42.09694" lon="2.49556">
        <ele>496.6</ele>
        <time>2022-05-21 06:13:07</time>
      </trkpt>
      <trkpt lat="42.09688" lon="2.49556">
        <ele>496.6</ele>
        <time>2022-05-21 06:13:08</time>
      </trkpt>
      <trkpt lat="42.09682" lon="2.49556">
        <ele>496.6</ele>
        <time>2022-05-21 06:13:09</time>
      </trkpt>
      <trkpt lat="42.09676" lon="2.49556">
        <ele>496.6</ele>
        <time>2022-05-21 06:13:10</time>
      </trkpt>
      <trkpt lat="42.09669" lon="2.49555">
        <ele>496.6</ele>
        <time>2022-05-21 06:13:11</time>
      </trkpt>
      <trkpt lat="42.09663" lon="2.49553">
        <ele>496.6</ele>
        <time>2022-05-21 06:13:12</time>
      </trkpt>
      <trkpt lat="42.09657" lon="2.49552">
        <ele>496.6</ele>
        <time>2022-05-21 06:13:13</time>
      </trkpt>
      <trkpt lat="42.09651" lon="2.49551">
        <ele>496.4</ele>
        <time>2022-05-21 06:13:14</time>
      </trkpt>
      <trkpt lat="42.09644" lon="2.4955">
        <ele>496.4</ele>
        <time>2022-05-21 06:13:15</time>
      </trkpt>
      <trkpt lat="42.09638" lon="2.49548">
        <ele>496.4</ele>
        <time>2022-05-21 06:13:16</time>
      </trkpt>
      <trkpt lat="42.09632" lon="2.49547">
        <ele>496.4</ele>
        <time>2022-05-21 06:13:17</time>
      </trkpt>
      <trkpt lat="42.09626" lon="2.49545">
        <ele>496.4</ele>
        <time>2022-05-21 06:13:18</time>
      </trkpt>
      <trkpt lat="42.0962" lon="2.49543">
        <ele>496.4</ele>
        <time>2022-05-21 06:13:19</time>
      </trkpt>
      <trkpt lat="42.09613" lon="2.49541">
        <ele>496.4</ele>
        <time>2022-05-21 06:13:20</time>
      </trkpt>
      <trkpt lat="42.09607" lon="2.49539">
        <ele>496.4</ele>
        <time>2022-05-21 06:13:21</time>
      </trkpt>
      <trkpt lat="42.09601" lon="2.49536">
        <ele>496.4</ele>
        <time>2022-05-21 06:13:22</time>
      </trkpt>
      <trkpt lat="42.09595" lon="2.49534">
        <ele>496.2</ele>
        <time>2022-05-21 06:13:23</time>
      </trkpt>
      <trkpt lat="42.09589" lon="2.4953">
        <ele>496.2</ele>
        <time>2022-05-21 06:13:24</time>
      </trkpt>
      <trkpt lat="42.09583" lon="2.49527">
        <ele>496.2</ele>
        <time>2022-05-21 06:13:25</time>
      </trkpt>
      <trkpt lat="42.09577" lon="2.49524">
        <ele>496.2</ele>
        <time>2022-05-21 06:13:26</time>
      </trkpt>
      <trkpt lat="42.09571" lon="2.4952">
        <ele>496.2</ele>
        <time>2022-05-21 06:13:27</time>
      </trkpt>
      <trkpt lat="42.09566" lon="2.49516">
        <ele>496.2</ele>
        <time>2022-05-21 06:13:28</time>
      </trkpt>
      <trkpt lat="42.0956" lon="2.49512">
        <ele>496.2</ele>
        <time>2022-05-21 06:13:29</time>
      </trkpt>
      <trkpt lat="42.09555" lon="2.49509">
        <ele>496</ele>
        <time>2022-05-21 06:13:30</time>
      </trkpt>
      <trkpt lat="42.09549" lon="2.49504">
        <ele>496</ele>
        <time>2022-05-21 06:13:31</time>
      </trkpt>
      <trkpt lat="42.09544" lon="2.495">
        <ele>496</ele>
        <time>2022-05-21 06:13:32</time>
      </trkpt>
      <trkpt lat="42.09538" lon="2.49495">
        <ele>495.8</ele>
        <time>2022-05-21 06:13:33</time>
      </trkpt>
      <trkpt lat="42.09532" lon="2.4949">
        <ele>495.8</ele>
        <time>2022-05-21 06:13:34</time>
      </trkpt>
      <trkpt lat="42.09526" lon="2.49485">
        <ele>495.8</ele>
        <time>2022-05-21 06:13:35</time>
      </trkpt>
      <trkpt lat="42.09521" lon="2.4948">
        <ele>495.6</ele>
        <time>2022-05-21 06:13:36</time>
      </trkpt>
      <trkpt lat="42.09515" lon="2.49474">
        <ele>495.6</ele>
        <time>2022-05-21 06:13:37</time>
      </trkpt>
      <trkpt lat="42.09509" lon="2.49468">
        <ele>495.4</ele>
        <time>2022-05-21 06:13:38</time>
      </trkpt>
      <trkpt lat="42.09504" lon="2.49462">
        <ele>495.2</ele>
        <time>2022-05-21 06:13:39</time>
      </trkpt>
      <trkpt lat="42.09498" lon="2.49456">
        <ele>495.2</ele>
        <time>2022-05-21 06:13:40</time>
      </trkpt>
      <trkpt lat="42.09493" lon="2.4945">
        <ele>495</ele>
        <time>2022-05-21 06:13:41</time>
      </trkpt>
      <trkpt lat="42.09488" lon="2.49443">
        <ele>495</ele>
        <time>2022-05-21 06:13:42</time>
      </trkpt>
      <trkpt lat="42.09482" lon="2.49437">
        <ele>494.8</ele>
        <time>2022-05-21 06:13:43</time>
      </trkpt>
      <trkpt lat="42.09478" lon="2.4943">
        <ele>494.8</ele>
        <time>2022-05-21 06:13:44</time>
      </trkpt>
      <trkpt lat="42.09473" lon="2.49424">
        <ele>494.6</ele>
        <time>2022-05-21 06:13:45</time>
      </trkpt>
      <trkpt lat="42.09469" lon="2.49417">
        <ele>494.6</ele>
        <time>2022-05-21 06:13:46</time>
      </trkpt>
      <trkpt lat="42.09464" lon="2.49411">
        <ele>494.4</ele>
        <time>2022-05-21 06:13:47</time>
      </trkpt>
      <trkpt lat="42.09459" lon="2.49404">
        <ele>494.2</ele>
        <time>2022-05-21 06:13:48</time>
      </trkpt>
      <trkpt lat="42.09454" lon="2.49398">
        <ele>494</ele>
        <time>2022-05-21 06:13:49</time>
      </trkpt>
      <trkpt lat="42.09448" lon="2.49391">
        <ele>493.8</ele>
        <time>2022-05-21 06:13:50</time>
      </trkpt>
      <trkpt lat="42.09443" lon="2.49384">
        <ele>493.8</ele>
        <time>2022-05-21 06:13:51</time>
      </trkpt>
      <trkpt lat="42.09438" lon="2.49378">
        <ele>493.6</ele>
        <time>2022-05-21 06:13:52</time>
      </trkpt>
      <trkpt lat="42.09432" lon="2.49371">
        <ele>493.4</ele>
        <time>2022-05-21 06:13:53</time>
      </trkpt>
      <trkpt lat="42.09426" lon="2.49364">
        <ele>493.2</ele>
        <time>2022-05-21 06:13:54</time>
      </trkpt>
      <trkpt lat="42.0942" lon="2.49357">
        <ele>493</ele>
        <time>2022-05-21 06:13:55</time>
      </trkpt>
      <trkpt lat="42.09414" lon="2.49351">
        <ele>492.6</ele>
        <time>2022-05-21 06:13:56</time>
      </trkpt>
      <trkpt lat="42.09407" lon="2.49345">
        <ele>492.4</ele>
        <time>2022-05-21 06:13:57</time>
      </trkpt>
      <trkpt lat="42.09399" lon="2.4934">
        <ele>492.2</ele>
        <time>2022-05-21 06:13:58</time>
      </trkpt>
      <trkpt lat="42.09392" lon="2.49334">
        <ele>491.8</ele>
        <time>2022-05-21 06:13:59</time>
      </trkpt>
      <trkpt lat="42.09385" lon="2.49329">
        <ele>491.4</ele>
        <time>2022-05-21 06:14:00</time>
      </trkpt>
      <trkpt lat="42.09377" lon="2.49324">
        <ele>491</ele>
        <time>2022-05-21 06:14:01</time>
      </trkpt>
      <trkpt lat="42.09369" lon="2.4932">
        <ele>490.4</ele>
        <time>2022-05-21 06:14:02</time>
      </trkpt>
      <trkpt lat="42.0936" lon="2.49316">
        <ele>490</ele>
        <time>2022-05-21 06:14:03</time>
      </trkpt>
      <trkpt lat="42.09351" lon="2.49313">
        <ele>489.6</ele>
        <time>2022-05-21 06:14:04</time>
      </trkpt>
      <trkpt lat="42.09342" lon="2.4931">
        <ele>489.2</ele>
        <time>2022-05-21 06:14:05</time>
      </trkpt>
      <trkpt lat="42.09333" lon="2.49308">
        <ele>488.8</ele>
        <time>2022-05-21 06:14:06</time>
      </trkpt>
      <trkpt lat="42.09323" lon="2.49306">
        <ele>488.6</ele>
        <time>2022-05-21 06:14:07</time>
      </trkpt>
      <trkpt lat="42.09314" lon="2.49305">
        <ele>488.2</ele>
        <time>2022-05-21 06:14:08</time>
      </trkpt>
      <trkpt lat="42.09304" lon="2.49304">
        <ele>487.8</ele>
        <time>2022-05-21 06:14:09</time>
      </trkpt>
      <trkpt lat="42.09294" lon="2.49305">
        <ele>487.4</ele>
        <time>2022-05-21 06:14:10</time>
      </trkpt>
      <trkpt lat="42.09285" lon="2.49306">
        <ele>487</ele>
        <time>2022-05-21 06:14:11</time>
      </trkpt>
      <trkpt lat="42.09275" lon="2.49308">
        <ele>486.6</ele>
        <time>2022-05-21 06:14:12</time>
      </trkpt>
      <trkpt lat="42.09267" lon="2.49309">
        <ele>486.2</ele>
        <time>2022-05-21 06:14:13</time>
      </trkpt>
      <trkpt lat="42.09258" lon="2.49311">
        <ele>486</ele>
        <time>2022-05-21 06:14:14</time>
      </trkpt>
      <trkpt lat="42.09248" lon="2.49314">
        <ele>485.8</ele>
        <time>2022-05-21 06:14:15</time>
      </trkpt>
      <trkpt lat="42.0924" lon="2.49316">
        <ele>485.6</ele>
        <time>2022-05-21 06:14:16</time>
      </trkpt>
      <trkpt lat="42.09231" lon="2.4932">
        <ele>485.6</ele>
        <time>2022-05-21 06:14:17</time>
      </trkpt>
      <trkpt lat="42.09223" lon="2.49323">
        <ele>485.4</ele>
        <time>2022-05-21 06:14:18</time>
      </trkpt>
      <trkpt lat="42.09215" lon="2.49326">
        <ele>485.2</ele>
        <time>2022-05-21 06:14:19</time>
      </trkpt>
      <trkpt lat="42.09206" lon="2.49329">
        <ele>485.2</ele>
        <time>2022-05-21 06:14:20</time>
      </trkpt>
      <trkpt lat="42.09198" lon="2.49332">
        <ele>485</ele>
        <time>2022-05-21 06:14:21</time>
      </trkpt>
      <trkpt lat="42.0919" lon="2.49336">
        <ele>485</ele>
        <time>2022-05-21 06:14:22</time>
      </trkpt>
      <trkpt lat="42.09182" lon="2.4934">
        <ele>485</ele>
        <time>2022-05-21 06:14:23</time>
      </trkpt>
      <trkpt lat="42.09174" lon="2.49344">
        <ele>484.8</ele>
        <time>2022-05-21 06:14:24</time>
      </trkpt>
      <trkpt lat="42.09167" lon="2.49348">
        <ele>484.6</ele>
        <time>2022-05-21 06:14:25</time>
      </trkpt>
      <trkpt lat="42.09159" lon="2.49352">
        <ele>484.6</ele>
        <time>2022-05-21 06:14:26</time>
      </trkpt>
      <trkpt lat="42.09151" lon="2.49357">
        <ele>484.4</ele>
        <time>2022-05-21 06:14:27</time>
      </trkpt>
      <trkpt lat="42.09143" lon="2.49361">
        <ele>484.4</ele>
        <time>2022-05-21 06:14:28</time>
      </trkpt>
      <trkpt lat="42.09136" lon="2.49365">
        <ele>484.2</ele>
        <time>2022-05-21 06:14:29</time>
      </trkpt>
      <trkpt lat="42.09128" lon="2.4937">
        <ele>484.2</ele>
        <time>2022-05-21 06:14:30</time>
      </trkpt>
      <trkpt lat="42.09121" lon="2.49375">
        <ele>484</ele>
        <time>2022-05-21 06:14:31</time>
      </trkpt>
      <trkpt lat="42.09113" lon="2.4938">
        <ele>483.8</ele>
        <time>2022-05-21 06:14:32</time>
      </trkpt>
      <trkpt lat="42.09105" lon="2.49385">
        <ele>483.6</ele>
        <time>2022-05-21 06:14:33</time>
      </trkpt>
      <trkpt lat="42.09098" lon="2.49389">
        <ele>483.6</ele>
        <time>2022-05-21 06:14:34</time>
      </trkpt>
      <trkpt lat="42.09092" lon="2.49394">
        <ele>483.4</ele>
        <time>2022-05-21 06:14:35</time>
      </trkpt>
      <trkpt lat="42.09083" lon="2.49401">
        <ele>483.2</ele>
        <time>2022-05-21 06:14:36</time>
      </trkpt>
      <trkpt lat="42.09076" lon="2.49406">
        <ele>483</ele>
        <time>2022-05-21 06:14:37</time>
      </trkpt>
      <trkpt lat="42.09069" lon="2.49412">
        <ele>482.8</ele>
        <time>2022-05-21 06:14:38</time>
      </trkpt>
      <trkpt lat="42.09062" lon="2.49417">
        <ele>482.8</ele>
        <time>2022-05-21 06:14:39</time>
      </trkpt>
      <trkpt lat="42.09055" lon="2.49423">
        <ele>482.6</ele>
        <time>2022-05-21 06:14:40</time>
      </trkpt>
      <trkpt lat="42.09047" lon="2.49428">
        <ele>482.4</ele>
        <time>2022-05-21 06:14:41</time>
      </trkpt>
      <trkpt lat="42.0904" lon="2.49433">
        <ele>482.4</ele>
        <time>2022-05-21 06:14:42</time>
      </trkpt>
      <trkpt lat="42.09033" lon="2.49439">
        <ele>482.2</ele>
        <time>2022-05-21 06:14:43</time>
      </trkpt>
      <trkpt lat="42.09026" lon="2.49444">
        <ele>482.2</ele>
        <time>2022-05-21 06:14:44</time>
      </trkpt>
      <trkpt lat="42.09019" lon="2.49449">
        <ele>482</ele>
        <time>2022-05-21 06:14:45</time>
      </trkpt>
      <trkpt lat="42.09012" lon="2.49455">
        <ele>481.8</ele>
        <time>2022-05-21 06:14:46</time>
      </trkpt>
      <trkpt lat="42.09005" lon="2.4946">
        <ele>481.8</ele>
        <time>2022-05-21 06:14:47</time>
      </trkpt>
      <trkpt lat="42.08998" lon="2.49465">
        <ele>481.8</ele>
        <time>2022-05-21 06:14:48</time>
      </trkpt>
      <trkpt lat="42.08992" lon="2.4947">
        <ele>481.6</ele>
        <time>2022-05-21 06:14:49</time>
      </trkpt>
      <trkpt lat="42.08986" lon="2.49475">
        <ele>481.6</ele>
        <time>2022-05-21 06:14:50</time>
      </trkpt>
      <trkpt lat="42.08979" lon="2.4948">
        <ele>481.4</ele>
        <time>2022-05-21 06:14:51</time>
      </trkpt>
      <trkpt lat="42.08972" lon="2.49485">
        <ele>481.2</ele>
        <time>2022-05-21 06:14:52</time>
      </trkpt>
      <trkpt lat="42.08965" lon="2.4949">
        <ele>481.2</ele>
        <time>2022-05-21 06:14:53</time>
      </trkpt>
      <trkpt lat="42.08958" lon="2.49495">
        <ele>481.2</ele>
        <time>2022-05-21 06:14:54</time>
      </trkpt>
      <trkpt lat="42.08951" lon="2.495">
        <ele>481.2</ele>
        <time>2022-05-21 06:14:55</time>
      </trkpt>
      <trkpt lat="42.08944" lon="2.49505">
        <ele>481</ele>
        <time>2022-05-21 06:14:56</time>
      </trkpt>
      <trkpt lat="42.08937" lon="2.4951">
        <ele>481</ele>
        <time>2022-05-21 06:14:57</time>
      </trkpt>
      <trkpt lat="42.08931" lon="2.49515">
        <ele>481</ele>
        <time>2022-05-21 06:14:58</time>
      </trkpt>
      <trkpt lat="42.08925" lon="2.4952">
        <ele>481</ele>
        <time>2022-05-21 06:14:59</time>
      </trkpt>
      <trkpt lat="42.08919" lon="2.49525">
        <ele>480.8</ele>
        <time>2022-05-21 06:15:00</time>
      </trkpt>
      <trkpt lat="42.08912" lon="2.49529">
        <ele>480.8</ele>
        <time>2022-05-21 06:15:01</time>
      </trkpt>
      <trkpt lat="42.08905" lon="2.49534">
        <ele>480.8</ele>
        <time>2022-05-21 06:15:02</time>
      </trkpt>
      <trkpt lat="42.08899" lon="2.49539">
        <ele>480.6</ele>
        <time>2022-05-21 06:15:03</time>
      </trkpt>
      <trkpt lat="42.08892" lon="2.49544">
        <ele>480.6</ele>
        <time>2022-05-21 06:15:04</time>
      </trkpt>
      <trkpt lat="42.08886" lon="2.49549">
        <ele>480.6</ele>
        <time>2022-05-21 06:15:05</time>
      </trkpt>
      <trkpt lat="42.08878" lon="2.49554">
        <ele>480.6</ele>
        <time>2022-05-21 06:15:06</time>
      </trkpt>
      <trkpt lat="42.08871" lon="2.49559">
        <ele>480.4</ele>
        <time>2022-05-21 06:15:07</time>
      </trkpt>
      <trkpt lat="42.08864" lon="2.49565">
        <ele>480.4</ele>
        <time>2022-05-21 06:15:08</time>
      </trkpt>
      <trkpt lat="42.08858" lon="2.4957">
        <ele>480.4</ele>
        <time>2022-05-21 06:15:09</time>
      </trkpt>
      <trkpt lat="42.08851" lon="2.49576">
        <ele>480.4</ele>
        <time>2022-05-21 06:15:10</time>
      </trkpt>
      <trkpt lat="42.08844" lon="2.49581">
        <ele>480.4</ele>
        <time>2022-05-21 06:15:11</time>
      </trkpt>
      <trkpt lat="42.08838" lon="2.49586">
        <ele>480.4</ele>
        <time>2022-05-21 06:15:12</time>
      </trkpt>
      <trkpt lat="42.08831" lon="2.49591">
        <ele>480.4</ele>
        <time>2022-05-21 06:15:13</time>
      </trkpt>
      <trkpt lat="42.08824" lon="2.49595">
        <ele>480.2</ele>
        <time>2022-05-21 06:15:14</time>
      </trkpt>
      <trkpt lat="42.08818" lon="2.496">
        <ele>480.2</ele>
        <time>2022-05-21 06:15:15</time>
      </trkpt>
      <trkpt lat="42.08811" lon="2.49605">
        <ele>480.2</ele>
        <time>2022-05-21 06:15:16</time>
      </trkpt>
      <trkpt lat="42.08805" lon="2.49609">
        <ele>480.2</ele>
        <time>2022-05-21 06:15:17</time>
      </trkpt>
      <trkpt lat="42.08798" lon="2.49614">
        <ele>480</ele>
        <time>2022-05-21 06:15:18</time>
      </trkpt>
      <trkpt lat="42.08791" lon="2.49618">
        <ele>479.8</ele>
        <time>2022-05-21 06:15:19</time>
      </trkpt>
      <trkpt lat="42.08784" lon="2.49623">
        <ele>479.6</ele>
        <time>2022-05-21 06:15:20</time>
      </trkpt>
      <trkpt lat="42.08778" lon="2.49628">
        <ele>479.6</ele>
        <time>2022-05-21 06:15:21</time>
      </trkpt>
      <trkpt lat="42.0877" lon="2.49633">
        <ele>479.2</ele>
        <time>2022-05-21 06:15:22</time>
      </trkpt>
      <trkpt lat="42.08763" lon="2.49638">
        <ele>479</ele>
        <time>2022-05-21 06:15:23</time>
      </trkpt>
      <trkpt lat="42.08757" lon="2.49643">
        <ele>478.8</ele>
        <time>2022-05-21 06:15:24</time>
      </trkpt>
      <trkpt lat="42.08749" lon="2.49649">
        <ele>478.6</ele>
        <time>2022-05-21 06:15:25</time>
      </trkpt>
      <trkpt lat="42.08742" lon="2.49654">
        <ele>478.2</ele>
        <time>2022-05-21 06:15:26</time>
      </trkpt>
      <trkpt lat="42.08735" lon="2.49659">
        <ele>478</ele>
        <time>2022-05-21 06:15:27</time>
      </trkpt>
      <trkpt lat="42.08728" lon="2.49664">
        <ele>477.6</ele>
        <time>2022-05-21 06:15:28</time>
      </trkpt>
      <trkpt lat="42.08721" lon="2.4967">
        <ele>477.2</ele>
        <time>2022-05-21 06:15:29</time>
      </trkpt>
      <trkpt lat="42.08714" lon="2.49675">
        <ele>477</ele>
        <time>2022-05-21 06:15:30</time>
      </trkpt>
      <trkpt lat="42.08706" lon="2.4968">
        <ele>476.6</ele>
        <time>2022-05-21 06:15:31</time>
      </trkpt>
      <trkpt lat="42.08699" lon="2.49685">
        <ele>476.2</ele>
        <time>2022-05-21 06:15:32</time>
      </trkpt>
      <trkpt lat="42.08692" lon="2.4969">
        <ele>476</ele>
        <time>2022-05-21 06:15:33</time>
      </trkpt>
      <trkpt lat="42.08684" lon="2.49695">
        <ele>475.6</ele>
        <time>2022-05-21 06:15:34</time>
      </trkpt>
      <trkpt lat="42.08677" lon="2.49701">
        <ele>475.4</ele>
        <time>2022-05-21 06:15:35</time>
      </trkpt>
      <trkpt lat="42.0867" lon="2.49706">
        <ele>475.4</ele>
        <time>2022-05-21 06:15:36</time>
      </trkpt>
      <trkpt lat="42.08664" lon="2.49711">
        <ele>475</ele>
        <time>2022-05-21 06:15:37</time>
      </trkpt>
      <trkpt lat="42.08654" lon="2.49717">
        <ele>475</ele>
        <time>2022-05-21 06:15:38</time>
      </trkpt>
      <trkpt lat="42.08647" lon="2.49723">
        <ele>474.8</ele>
        <time>2022-05-21 06:15:39</time>
      </trkpt>
      <trkpt lat="42.0864" lon="2.49728">
        <ele>474.6</ele>
        <time>2022-05-21 06:15:40</time>
      </trkpt>
      <trkpt lat="42.08632" lon="2.49733">
        <ele>474.4</ele>
        <time>2022-05-21 06:15:41</time>
      </trkpt>
      <trkpt lat="42.08624" lon="2.49737">
        <ele>474.4</ele>
        <time>2022-05-21 06:15:42</time>
      </trkpt>
      <trkpt lat="42.08617" lon="2.49741">
        <ele>474.2</ele>
        <time>2022-05-21 06:15:43</time>
      </trkpt>
      <trkpt lat="42.08609" lon="2.49744">
        <ele>474.2</ele>
        <time>2022-05-21 06:15:44</time>
      </trkpt>
      <trkpt lat="42.08602" lon="2.49747">
        <ele>474</ele>
        <time>2022-05-21 06:15:45</time>
      </trkpt>
      <trkpt lat="42.08594" lon="2.4975">
        <ele>474</ele>
        <time>2022-05-21 06:15:46</time>
      </trkpt>
      <trkpt lat="42.08587" lon="2.49752">
        <ele>473.8</ele>
        <time>2022-05-21 06:15:47</time>
      </trkpt>
      <trkpt lat="42.08579" lon="2.49755">
        <ele>473.8</ele>
        <time>2022-05-21 06:15:48</time>
      </trkpt>
      <trkpt lat="42.08571" lon="2.49756">
        <ele>473.6</ele>
        <time>2022-05-21 06:15:49</time>
      </trkpt>
      <trkpt lat="42.08564" lon="2.49758">
        <ele>473.6</ele>
        <time>2022-05-21 06:15:50</time>
      </trkpt>
      <trkpt lat="42.08557" lon="2.49759">
        <ele>473.6</ele>
        <time>2022-05-21 06:15:51</time>
      </trkpt>
      <trkpt lat="42.0855" lon="2.4976">
        <ele>473.6</ele>
        <time>2022-05-21 06:15:52</time>
      </trkpt>
      <trkpt lat="42.08543" lon="2.49761">
        <ele>473.6</ele>
        <time>2022-05-21 06:15:53</time>
      </trkpt>
      <trkpt lat="42.08535" lon="2.49762">
        <ele>473.6</ele>
        <time>2022-05-21 06:15:54</time>
      </trkpt>
      <trkpt lat="42.08528" lon="2.49763">
        <ele>473.6</ele>
        <time>2022-05-21 06:15:55</time>
      </trkpt>
      <trkpt lat="42.08521" lon="2.49763">
        <ele>473.6</ele>
        <time>2022-05-21 06:15:56</time>
      </trkpt>
      <trkpt lat="42.08514" lon="2.49764">
        <ele>473.6</ele>
        <time>2022-05-21 06:15:57</time>
      </trkpt>
      <trkpt lat="42.08507" lon="2.49764">
        <ele>473.6</ele>
        <time>2022-05-21 06:15:58</time>
      </trkpt>
      <trkpt lat="42.085" lon="2.49765">
        <ele>473.6</ele>
        <time>2022-05-21 06:15:59</time>
      </trkpt>
      <trkpt lat="42.08493" lon="2.49765">
        <ele>473.6</ele>
        <time>2022-05-21 06:16:00</time>
      </trkpt>
      <trkpt lat="42.08486" lon="2.49766">
        <ele>473.6</ele>
        <time>2022-05-21 06:16:01</time>
      </trkpt>
      <trkpt lat="42.08479" lon="2.49767">
        <ele>473.4</ele>
        <time>2022-05-21 06:16:02</time>
      </trkpt>
      <trkpt lat="42.08472" lon="2.49768">
        <ele>473.4</ele>
        <time>2022-05-21 06:16:03</time>
      </trkpt>
      <trkpt lat="42.08464" lon="2.49769">
        <ele>473.4</ele>
        <time>2022-05-21 06:16:04</time>
      </trkpt>
      <trkpt lat="42.08457" lon="2.4977">
        <ele>473.4</ele>
        <time>2022-05-21 06:16:05</time>
      </trkpt>
      <trkpt lat="42.0845" lon="2.49772">
        <ele>473.2</ele>
        <time>2022-05-21 06:16:06</time>
      </trkpt>
      <trkpt lat="42.08442" lon="2.49773">
        <ele>473.2</ele>
        <time>2022-05-21 06:16:07</time>
      </trkpt>
      <trkpt lat="42.08435" lon="2.49775">
        <ele>473</ele>
        <time>2022-05-21 06:16:08</time>
      </trkpt>
      <trkpt lat="42.08427" lon="2.49778">
        <ele>472.8</ele>
        <time>2022-05-21 06:16:09</time>
      </trkpt>
      <trkpt lat="42.08421" lon="2.49781">
        <ele>472.8</ele>
        <time>2022-05-21 06:16:10</time>
      </trkpt>
      <trkpt lat="42.08414" lon="2.49784">
        <ele>472.6</ele>
        <time>2022-05-21 06:16:11</time>
      </trkpt>
      <trkpt lat="42.08406" lon="2.49788">
        <ele>472.6</ele>
        <time>2022-05-21 06:16:12</time>
      </trkpt>
      <trkpt lat="42.08398" lon="2.49791">
        <ele>472.4</ele>
        <time>2022-05-21 06:16:13</time>
      </trkpt>
      <trkpt lat="42.08391" lon="2.49795">
        <ele>472.2</ele>
        <time>2022-05-21 06:16:14</time>
      </trkpt>
      <trkpt lat="42.08384" lon="2.498">
        <ele>472.2</ele>
        <time>2022-05-21 06:16:15</time>
      </trkpt>
      <trkpt lat="42.08377" lon="2.49805">
        <ele>472</ele>
        <time>2022-05-21 06:16:16</time>
      </trkpt>
      <trkpt lat="42.0837" lon="2.49811">
        <ele>471.8</ele>
        <time>2022-05-21 06:16:17</time>
      </trkpt>
      <trkpt lat="42.08363" lon="2.49816">
        <ele>471.6</ele>
        <time>2022-05-21 06:16:18</time>
      </trkpt>
      <trkpt lat="42.08357" lon="2.49822">
        <ele>471.4</ele>
        <time>2022-05-21 06:16:19</time>
      </trkpt>
      <trkpt lat="42.0835" lon="2.49829">
        <ele>471.4</ele>
        <time>2022-05-21 06:16:20</time>
      </trkpt>
      <trkpt lat="42.08344" lon="2.49835">
        <ele>471.2</ele>
        <time>2022-05-21 06:16:21</time>
      </trkpt>
      <trkpt lat="42.08337" lon="2.49841">
        <ele>471</ele>
        <time>2022-05-21 06:16:22</time>
      </trkpt>
      <trkpt lat="42.08331" lon="2.49847">
        <ele>470.8</ele>
        <time>2022-05-21 06:16:23</time>
      </trkpt>
      <trkpt lat="42.08324" lon="2.49854">
        <ele>470.6</ele>
        <time>2022-05-21 06:16:24</time>
      </trkpt>
      <trkpt lat="42.08317" lon="2.49861">
        <ele>470.4</ele>
        <time>2022-05-21 06:16:25</time>
      </trkpt>
      <trkpt lat="42.0831" lon="2.49868">
        <ele>470.2</ele>
        <time>2022-05-21 06:16:26</time>
      </trkpt>
      <trkpt lat="42.08304" lon="2.49874">
        <ele>470.2</ele>
        <time>2022-05-21 06:16:27</time>
      </trkpt>
      <trkpt lat="42.08298" lon="2.49881">
        <ele>470</ele>
        <time>2022-05-21 06:16:28</time>
      </trkpt>
      <trkpt lat="42.08292" lon="2.49887">
        <ele>470</ele>
        <time>2022-05-21 06:16:29</time>
      </trkpt>
      <trkpt lat="42.08286" lon="2.49893">
        <ele>470</ele>
        <time>2022-05-21 06:16:30</time>
      </trkpt>
      <trkpt lat="42.08279" lon="2.49899">
        <ele>469.8</ele>
        <time>2022-05-21 06:16:31</time>
      </trkpt>
      <trkpt lat="42.08274" lon="2.49904">
        <ele>469.8</ele>
        <time>2022-05-21 06:16:32</time>
      </trkpt>
      <trkpt lat="42.08268" lon="2.4991">
        <ele>469.8</ele>
        <time>2022-05-21 06:16:33</time>
      </trkpt>
      <trkpt lat="42.08263" lon="2.49915">
        <ele>469.8</ele>
        <time>2022-05-21 06:16:34</time>
      </trkpt>
      <trkpt lat="42.08257" lon="2.49921">
        <ele>469.8</ele>
        <time>2022-05-21 06:16:35</time>
      </trkpt>
      <trkpt lat="42.08252" lon="2.49927">
        <ele>469.8</ele>
        <time>2022-05-21 06:16:36</time>
      </trkpt>
      <trkpt lat="42.08247" lon="2.49932">
        <ele>469.8</ele>
        <time>2022-05-21 06:16:37</time>
      </trkpt>
      <trkpt lat="42.08242" lon="2.49937">
        <ele>469.8</ele>
        <time>2022-05-21 06:16:38</time>
      </trkpt>
      <trkpt lat="42.08237" lon="2.49942">
        <ele>469.8</ele>
        <time>2022-05-21 06:16:39</time>
      </trkpt>
      <trkpt lat="42.08232" lon="2.49948">
        <ele>469.8</ele>
        <time>2022-05-21 06:16:40</time>
      </trkpt>
      <trkpt lat="42.08227" lon="2.49953">
        <ele>469.8</ele>
        <time>2022-05-21 06:16:41</time>
      </trkpt>
      <trkpt lat="42.08222" lon="2.49958">
        <ele>469.8</ele>
        <time>2022-05-21 06:16:42</time>
      </trkpt>
      <trkpt lat="42.08217" lon="2.49963">
        <ele>469.8</ele>
        <time>2022-05-21 06:16:43</time>
      </trkpt>
      <trkpt lat="42.08212" lon="2.49969">
        <ele>469.8</ele>
        <time>2022-05-21 06:16:44</time>
      </trkpt>
      <trkpt lat="42.08206" lon="2.49974">
        <ele>469.8</ele>
        <time>2022-05-21 06:16:45</time>
      </trkpt>
      <trkpt lat="42.08201" lon="2.49978">
        <ele>469.8</ele>
        <time>2022-05-21 06:16:46</time>
      </trkpt>
      <trkpt lat="42.08196" lon="2.49983">
        <ele>469.8</ele>
        <time>2022-05-21 06:16:47</time>
      </trkpt>
      <trkpt lat="42.08191" lon="2.49989">
        <ele>469.8</ele>
        <time>2022-05-21 06:16:48</time>
      </trkpt>
      <trkpt lat="42.08186" lon="2.49994">
        <ele>469.8</ele>
        <time>2022-05-21 06:16:49</time>
      </trkpt>
      <trkpt lat="42.08181" lon="2.49999">
        <ele>469.8</ele>
        <time>2022-05-21 06:16:50</time>
      </trkpt>
      <trkpt lat="42.08176" lon="2.50004">
        <ele>469.8</ele>
        <time>2022-05-21 06:16:51</time>
      </trkpt>
      <trkpt lat="42.08171" lon="2.5001">
        <ele>469.8</ele>
        <time>2022-05-21 06:16:52</time>
      </trkpt>
      <trkpt lat="42.08167" lon="2.50015">
        <ele>469.8</ele>
        <time>2022-05-21 06:16:53</time>
      </trkpt>
      <trkpt lat="42.08162" lon="2.50021">
        <ele>469.8</ele>
        <time>2022-05-21 06:16:54</time>
      </trkpt>
      <trkpt lat="42.08157" lon="2.50026">
        <ele>469.8</ele>
        <time>2022-05-21 06:16:55</time>
      </trkpt>
      <trkpt lat="42.08152" lon="2.50032">
        <ele>469.8</ele>
        <time>2022-05-21 06:16:56</time>
      </trkpt>
      <trkpt lat="42.08147" lon="2.50037">
        <ele>469.8</ele>
        <time>2022-05-21 06:16:57</time>
      </trkpt>
      <trkpt lat="42.08142" lon="2.50043">
        <ele>469.8</ele>
        <time>2022-05-21 06:16:58</time>
      </trkpt>
      <trkpt lat="42.08137" lon="2.50048">
        <ele>469.8</ele>
        <time>2022-05-21 06:16:59</time>
      </trkpt>
      <trkpt lat="42.08132" lon="2.50054">
        <ele>469.8</ele>
        <time>2022-05-21 06:17:00</time>
      </trkpt>
      <trkpt lat="42.08128" lon="2.5006">
        <ele>469.6</ele>
        <time>2022-05-21 06:17:01</time>
      </trkpt>
      <trkpt lat="42.08123" lon="2.50066">
        <ele>469.6</ele>
        <time>2022-05-21 06:17:02</time>
      </trkpt>
      <trkpt lat="42.08118" lon="2.50072">
        <ele>469.6</ele>
        <time>2022-05-21 06:17:03</time>
      </trkpt>
      <trkpt lat="42.08114" lon="2.50078">
        <ele>469.4</ele>
        <time>2022-05-21 06:17:04</time>
      </trkpt>
      <trkpt lat="42.08109" lon="2.50084">
        <ele>469.4</ele>
        <time>2022-05-21 06:17:05</time>
      </trkpt>
      <trkpt lat="42.08104" lon="2.50091">
        <ele>469.2</ele>
        <time>2022-05-21 06:17:06</time>
      </trkpt>
      <trkpt lat="42.081" lon="2.50097">
        <ele>469.2</ele>
        <time>2022-05-21 06:17:07</time>
      </trkpt>
      <trkpt lat="42.08095" lon="2.50104">
        <ele>469</ele>
        <time>2022-05-21 06:17:08</time>
      </trkpt>
      <trkpt lat="42.08091" lon="2.5011">
        <ele>469</ele>
        <time>2022-05-21 06:17:09</time>
      </trkpt>
      <trkpt lat="42.08087" lon="2.50116">
        <ele>468.8</ele>
        <time>2022-05-21 06:17:10</time>
      </trkpt>
      <trkpt lat="42.08081" lon="2.50124">
        <ele>468.8</ele>
        <time>2022-05-21 06:17:11</time>
      </trkpt>
      <trkpt lat="42.08076" lon="2.50132">
        <ele>468.6</ele>
        <time>2022-05-21 06:17:12</time>
      </trkpt>
      <trkpt lat="42.08071" lon="2.50138">
        <ele>468.4</ele>
        <time>2022-05-21 06:17:13</time>
      </trkpt>
      <trkpt lat="42.08066" lon="2.50145">
        <ele>468.2</ele>
        <time>2022-05-21 06:17:14</time>
      </trkpt>
      <trkpt lat="42.08061" lon="2.5015">
        <ele>468.2</ele>
        <time>2022-05-21 06:17:15</time>
      </trkpt>
      <trkpt lat="42.08055" lon="2.50157">
        <ele>468</ele>
        <time>2022-05-21 06:17:16</time>
      </trkpt>
      <trkpt lat="42.0805" lon="2.50162">
        <ele>468</ele>
        <time>2022-05-21 06:17:17</time>
      </trkpt>
      <trkpt lat="42.08045" lon="2.50167">
        <ele>468</ele>
        <time>2022-05-21 06:17:18</time>
      </trkpt>
      <trkpt lat="42.08039" lon="2.50171">
        <ele>468</ele>
        <time>2022-05-21 06:17:19</time>
      </trkpt>
      <trkpt lat="42.08033" lon="2.50175">
        <ele>468</ele>
        <time>2022-05-21 06:17:20</time>
      </trkpt>
      <trkpt lat="42.08028" lon="2.50179">
        <ele>468</ele>
        <time>2022-05-21 06:17:21</time>
      </trkpt>
      <trkpt lat="42.08022" lon="2.50184">
        <ele>468</ele>
        <time>2022-05-21 06:17:22</time>
      </trkpt>
      <trkpt lat="42.08017" lon="2.50188">
        <ele>468</ele>
        <time>2022-05-21 06:17:23</time>
      </trkpt>
      <trkpt lat="42.08011" lon="2.50192">
        <ele>468</ele>
        <time>2022-05-21 06:17:24</time>
      </trkpt>
      <trkpt lat="42.08006" lon="2.50196">
        <ele>468</ele>
        <time>2022-05-21 06:17:25</time>
      </trkpt>
      <trkpt lat="42.08001" lon="2.50199">
        <ele>468</ele>
        <time>2022-05-21 06:17:26</time>
      </trkpt>
      <trkpt lat="42.07996" lon="2.50202">
        <ele>468</ele>
        <time>2022-05-21 06:17:27</time>
      </trkpt>
      <trkpt lat="42.07991" lon="2.50206">
        <ele>467.8</ele>
        <time>2022-05-21 06:17:28</time>
      </trkpt>
      <trkpt lat="42.07986" lon="2.50209">
        <ele>467.8</ele>
        <time>2022-05-21 06:17:29</time>
      </trkpt>
      <trkpt lat="42.0798" lon="2.50213">
        <ele>467.6</ele>
        <time>2022-05-21 06:17:30</time>
      </trkpt>
      <trkpt lat="42.07975" lon="2.50217">
        <ele>467.6</ele>
        <time>2022-05-21 06:17:31</time>
      </trkpt>
      <trkpt lat="42.07967" lon="2.50223">
        <ele>467.4</ele>
        <time>2022-05-21 06:17:32</time>
      </trkpt>
      <trkpt lat="42.07961" lon="2.50228">
        <ele>467.4</ele>
        <time>2022-05-21 06:17:33</time>
      </trkpt>
      <trkpt lat="42.07954" lon="2.50235">
        <ele>467.2</ele>
        <time>2022-05-21 06:17:34</time>
      </trkpt>
      <trkpt lat="42.07949" lon="2.50241">
        <ele>467.2</ele>
        <time>2022-05-21 06:17:35</time>
      </trkpt>
      <trkpt lat="42.07944" lon="2.50248">
        <ele>467.2</ele>
        <time>2022-05-21 06:17:36</time>
      </trkpt>
      <trkpt lat="42.0794" lon="2.50255">
        <ele>467</ele>
        <time>2022-05-21 06:17:37</time>
      </trkpt>
      <trkpt lat="42.07935" lon="2.50264">
        <ele>467</ele>
        <time>2022-05-21 06:17:38</time>
      </trkpt>
      <trkpt lat="42.07932" lon="2.50272">
        <ele>466.8</ele>
        <time>2022-05-21 06:17:39</time>
      </trkpt>
      <trkpt lat="42.07928" lon="2.50282">
        <ele>466.6</ele>
        <time>2022-05-21 06:17:40</time>
      </trkpt>
      <trkpt lat="42.07924" lon="2.50291">
        <ele>466.4</ele>
        <time>2022-05-21 06:17:41</time>
      </trkpt>
      <trkpt lat="42.0792" lon="2.50301">
        <ele>466.4</ele>
        <time>2022-05-21 06:17:42</time>
      </trkpt>
      <trkpt lat="42.07917" lon="2.5031">
        <ele>466.2</ele>
        <time>2022-05-21 06:17:43</time>
      </trkpt>
      <trkpt lat="42.07912" lon="2.50319">
        <ele>466</ele>
        <time>2022-05-21 06:17:44</time>
      </trkpt>
      <trkpt lat="42.07909" lon="2.50328">
        <ele>465.8</ele>
        <time>2022-05-21 06:17:45</time>
      </trkpt>
      <trkpt lat="42.07904" lon="2.50339">
        <ele>465.8</ele>
        <time>2022-05-21 06:17:46</time>
      </trkpt>
      <trkpt lat="42.07901" lon="2.50348">
        <ele>465.6</ele>
        <time>2022-05-21 06:17:47</time>
      </trkpt>
      <trkpt lat="42.07896" lon="2.50359">
        <ele>465.4</ele>
        <time>2022-05-21 06:17:48</time>
      </trkpt>
      <trkpt lat="42.07893" lon="2.50368">
        <ele>465.4</ele>
        <time>2022-05-21 06:17:49</time>
      </trkpt>
      <trkpt lat="42.07888" lon="2.5038">
        <ele>465.2</ele>
        <time>2022-05-21 06:17:50</time>
      </trkpt>
      <trkpt lat="42.07885" lon="2.5039">
        <ele>465.2</ele>
        <time>2022-05-21 06:17:51</time>
      </trkpt>
      <trkpt lat="42.07881" lon="2.504">
        <ele>465</ele>
        <time>2022-05-21 06:17:52</time>
      </trkpt>
      <trkpt lat="42.07877" lon="2.5041">
        <ele>464.8</ele>
        <time>2022-05-21 06:17:53</time>
      </trkpt>
      <trkpt lat="42.07873" lon="2.50419">
        <ele>464.8</ele>
        <time>2022-05-21 06:17:54</time>
      </trkpt>
      <trkpt lat="42.0787" lon="2.50428">
        <ele>464.6</ele>
        <time>2022-05-21 06:17:55</time>
      </trkpt>
      <trkpt lat="42.07866" lon="2.50438">
        <ele>464.6</ele>
        <time>2022-05-21 06:17:56</time>
      </trkpt>
      <trkpt lat="42.07863" lon="2.50447">
        <ele>464.6</ele>
        <time>2022-05-21 06:17:57</time>
      </trkpt>
      <trkpt lat="42.07859" lon="2.50457">
        <ele>464.4</ele>
        <time>2022-05-21 06:17:58</time>
      </trkpt>
      <trkpt lat="42.07855" lon="2.50465">
        <ele>464.4</ele>
        <time>2022-05-21 06:17:59</time>
      </trkpt>
      <trkpt lat="42.07851" lon="2.50475">
        <ele>464.4</ele>
        <time>2022-05-21 06:18:00</time>
      </trkpt>
      <trkpt lat="42.07848" lon="2.50483">
        <ele>464.2</ele>
        <time>2022-05-21 06:18:01</time>
      </trkpt>
      <trkpt lat="42.07844" lon="2.50493">
        <ele>464.2</ele>
        <time>2022-05-21 06:18:02</time>
      </trkpt>
      <trkpt lat="42.0784" lon="2.50501">
        <ele>464.2</ele>
        <time>2022-05-21 06:18:03</time>
      </trkpt>
      <trkpt lat="42.07837" lon="2.5051">
        <ele>464.2</ele>
        <time>2022-05-21 06:18:04</time>
      </trkpt>
      <trkpt lat="42.07834" lon="2.50518">
        <ele>464.2</ele>
        <time>2022-05-21 06:18:05</time>
      </trkpt>
      <trkpt lat="42.0783" lon="2.50528">
        <ele>464.2</ele>
        <time>2022-05-21 06:18:06</time>
      </trkpt>
      <trkpt lat="42.07826" lon="2.50537">
        <ele>464.2</ele>
        <time>2022-05-21 06:18:07</time>
      </trkpt>
      <trkpt lat="42.07822" lon="2.50545">
        <ele>464.2</ele>
        <time>2022-05-21 06:18:08</time>
      </trkpt>
      <trkpt lat="42.07819" lon="2.50553">
        <ele>464.2</ele>
        <time>2022-05-21 06:18:09</time>
      </trkpt>
      <trkpt lat="42.07815" lon="2.50562">
        <ele>464.2</ele>
        <time>2022-05-21 06:18:10</time>
      </trkpt>
      <trkpt lat="42.07811" lon="2.5057">
        <ele>464.2</ele>
        <time>2022-05-21 06:18:11</time>
      </trkpt>
      <trkpt lat="42.07808" lon="2.50578">
        <ele>464.2</ele>
        <time>2022-05-21 06:18:12</time>
      </trkpt>
      <trkpt lat="42.07804" lon="2.50586">
        <ele>464.2</ele>
        <time>2022-05-21 06:18:13</time>
      </trkpt>
      <trkpt lat="42.07801" lon="2.50594">
        <ele>464.2</ele>
        <time>2022-05-21 06:18:14</time>
      </trkpt>
      <trkpt lat="42.07799" lon="2.50603">
        <ele>464.2</ele>
        <time>2022-05-21 06:18:15</time>
      </trkpt>
      <trkpt lat="42.07796" lon="2.50611">
        <ele>464.2</ele>
        <time>2022-05-21 06:18:16</time>
      </trkpt>
      <trkpt lat="42.07793" lon="2.50618">
        <ele>464.4</ele>
        <time>2022-05-21 06:18:17</time>
      </trkpt>
      <trkpt lat="42.0779" lon="2.50626">
        <ele>464.4</ele>
        <time>2022-05-21 06:18:18</time>
      </trkpt>
      <trkpt lat="42.07787" lon="2.50635">
        <ele>464.4</ele>
        <time>2022-05-21 06:18:19</time>
      </trkpt>
      <trkpt lat="42.07784" lon="2.50643">
        <ele>464.4</ele>
        <time>2022-05-21 06:18:20</time>
      </trkpt>
      <trkpt lat="42.07783" lon="2.50651">
        <ele>464.6</ele>
        <time>2022-05-21 06:18:21</time>
      </trkpt>
      <trkpt lat="42.07782" lon="2.5066">
        <ele>464.6</ele>
        <time>2022-05-21 06:18:22</time>
      </trkpt>
      <trkpt lat="42.07783" lon="2.50669">
        <ele>464.6</ele>
        <time>2022-05-21 06:18:23</time>
      </trkpt>
      <trkpt lat="42.07785" lon="2.50678">
        <ele>464.6</ele>
        <time>2022-05-21 06:18:24</time>
      </trkpt>
      <trkpt lat="42.07787" lon="2.50686">
        <ele>464.6</ele>
        <time>2022-05-21 06:18:25</time>
      </trkpt>
      <trkpt lat="42.07788" lon="2.50694">
        <ele>464.8</ele>
        <time>2022-05-21 06:18:26</time>
      </trkpt>
      <trkpt lat="42.07791" lon="2.50703">
        <ele>464.8</ele>
        <time>2022-05-21 06:18:27</time>
      </trkpt>
      <trkpt lat="42.07793" lon="2.50711">
        <ele>464.8</ele>
        <time>2022-05-21 06:18:28</time>
      </trkpt>
      <trkpt lat="42.07796" lon="2.50718">
        <ele>464.8</ele>
        <time>2022-05-21 06:18:29</time>
      </trkpt>
      <trkpt lat="42.07799" lon="2.50726">
        <ele>465</ele>
        <time>2022-05-21 06:18:30</time>
      </trkpt>
      <trkpt lat="42.07802" lon="2.50734">
        <ele>465</ele>
        <time>2022-05-21 06:18:31</time>
      </trkpt>
      <trkpt lat="42.07805" lon="2.50741">
        <ele>465</ele>
        <time>2022-05-21 06:18:32</time>
      </trkpt>
      <trkpt lat="42.07808" lon="2.50748">
        <ele>464.8</ele>
        <time>2022-05-21 06:18:33</time>
      </trkpt>
      <trkpt lat="42.07812" lon="2.50757">
        <ele>464.8</ele>
        <time>2022-05-21 06:18:34</time>
      </trkpt>
      <trkpt lat="42.07816" lon="2.50765">
        <ele>464.6</ele>
        <time>2022-05-21 06:18:35</time>
      </trkpt>
      <trkpt lat="42.07819" lon="2.50775">
        <ele>464.2</ele>
        <time>2022-05-21 06:18:36</time>
      </trkpt>
      <trkpt lat="42.07823" lon="2.50785">
        <ele>464</ele>
        <time>2022-05-21 06:18:37</time>
      </trkpt>
      <trkpt lat="42.07826" lon="2.50794">
        <ele>463.8</ele>
        <time>2022-05-21 06:18:38</time>
      </trkpt>
      <trkpt lat="42.0783" lon="2.50804">
        <ele>463.4</ele>
        <time>2022-05-21 06:18:39</time>
      </trkpt>
      <trkpt lat="42.07833" lon="2.50814">
        <ele>463.2</ele>
        <time>2022-05-21 06:18:40</time>
      </trkpt>
      <trkpt lat="42.07837" lon="2.50824">
        <ele>462.8</ele>
        <time>2022-05-21 06:18:41</time>
      </trkpt>
      <trkpt lat="42.0784" lon="2.50835">
        <ele>462.4</ele>
        <time>2022-05-21 06:18:42</time>
      </trkpt>
      <trkpt lat="42.07844" lon="2.50845">
        <ele>462.2</ele>
        <time>2022-05-21 06:18:43</time>
      </trkpt>
      <trkpt lat="42.07848" lon="2.50855">
        <ele>461.8</ele>
        <time>2022-05-21 06:18:44</time>
      </trkpt>
      <trkpt lat="42.07851" lon="2.50865">
        <ele>461.4</ele>
        <time>2022-05-21 06:18:45</time>
      </trkpt>
      <trkpt lat="42.07855" lon="2.50875">
        <ele>461.2</ele>
        <time>2022-05-21 06:18:46</time>
      </trkpt>
      <trkpt lat="42.07859" lon="2.50885">
        <ele>460.8</ele>
        <time>2022-05-21 06:18:47</time>
      </trkpt>
      <trkpt lat="42.07862" lon="2.50896">
        <ele>460.4</ele>
        <time>2022-05-21 06:18:48</time>
      </trkpt>
      <trkpt lat="42.07864" lon="2.50907">
        <ele>460</ele>
        <time>2022-05-21 06:18:49</time>
      </trkpt>
      <trkpt lat="42.07865" lon="2.50918">
        <ele>459.6</ele>
        <time>2022-05-21 06:18:50</time>
      </trkpt>
      <trkpt lat="42.07863" lon="2.5093">
        <ele>459.2</ele>
        <time>2022-05-21 06:18:51</time>
      </trkpt>
      <trkpt lat="42.07859" lon="2.50941">
        <ele>458.8</ele>
        <time>2022-05-21 06:18:52</time>
      </trkpt>
      <trkpt lat="42.07853" lon="2.50951">
        <ele>458.4</ele>
        <time>2022-05-21 06:18:53</time>
      </trkpt>
      <trkpt lat="42.07846" lon="2.50959">
        <ele>458</ele>
        <time>2022-05-21 06:18:54</time>
      </trkpt>
      <trkpt lat="42.07838" lon="2.50967">
        <ele>457.6</ele>
        <time>2022-05-21 06:18:55</time>
      </trkpt>
      <trkpt lat="42.0783" lon="2.50976">
        <ele>457</ele>
        <time>2022-05-21 06:18:56</time>
      </trkpt>
      <trkpt lat="42.07822" lon="2.50985">
        <ele>456.6</ele>
        <time>2022-05-21 06:18:57</time>
      </trkpt>
      <trkpt lat="42.07814" lon="2.50994">
        <ele>456.4</ele>
        <time>2022-05-21 06:18:58</time>
      </trkpt>
      <trkpt lat="42.07807" lon="2.51003">
        <ele>456</ele>
        <time>2022-05-21 06:18:59</time>
      </trkpt>
      <trkpt lat="42.078" lon="2.51011">
        <ele>455.8</ele>
        <time>2022-05-21 06:19:00</time>
      </trkpt>
      <trkpt lat="42.07793" lon="2.5102">
        <ele>455.6</ele>
        <time>2022-05-21 06:19:01</time>
      </trkpt>
      <trkpt lat="42.07787" lon="2.51028">
        <ele>455.4</ele>
        <time>2022-05-21 06:19:02</time>
      </trkpt>
      <trkpt lat="42.0778" lon="2.51036">
        <ele>455.2</ele>
        <time>2022-05-21 06:19:03</time>
      </trkpt>
      <trkpt lat="42.07774" lon="2.51043">
        <ele>455.2</ele>
        <time>2022-05-21 06:19:04</time>
      </trkpt>
      <trkpt lat="42.07767" lon="2.51051">
        <ele>455</ele>
        <time>2022-05-21 06:19:05</time>
      </trkpt>
      <trkpt lat="42.07761" lon="2.51059">
        <ele>455</ele>
        <time>2022-05-21 06:19:06</time>
      </trkpt>
      <trkpt lat="42.07755" lon="2.51067">
        <ele>455</ele>
        <time>2022-05-21 06:19:07</time>
      </trkpt>
      <trkpt lat="42.07749" lon="2.51074">
        <ele>455</ele>
        <time>2022-05-21 06:19:08</time>
      </trkpt>
      <trkpt lat="42.07743" lon="2.51082">
        <ele>455</ele>
        <time>2022-05-21 06:19:09</time>
      </trkpt>
      <trkpt lat="42.07736" lon="2.51089">
        <ele>455</ele>
        <time>2022-05-21 06:19:10</time>
      </trkpt>
      <trkpt lat="42.0773" lon="2.51097">
        <ele>455</ele>
        <time>2022-05-21 06:19:11</time>
      </trkpt>
      <trkpt lat="42.07724" lon="2.51104">
        <ele>455</ele>
        <time>2022-05-21 06:19:12</time>
      </trkpt>
      <trkpt lat="42.07718" lon="2.51111">
        <ele>454.8</ele>
        <time>2022-05-21 06:19:13</time>
      </trkpt>
      <trkpt lat="42.07712" lon="2.51118">
        <ele>454.8</ele>
        <time>2022-05-21 06:19:14</time>
      </trkpt>
      <trkpt lat="42.07706" lon="2.51125">
        <ele>454.6</ele>
        <time>2022-05-21 06:19:15</time>
      </trkpt>
      <trkpt lat="42.077" lon="2.51133">
        <ele>454.6</ele>
        <time>2022-05-21 06:19:16</time>
      </trkpt>
      <trkpt lat="42.07694" lon="2.5114">
        <ele>454.4</ele>
        <time>2022-05-21 06:19:17</time>
      </trkpt>
      <trkpt lat="42.07688" lon="2.51147">
        <ele>454.4</ele>
        <time>2022-05-21 06:19:18</time>
      </trkpt>
      <trkpt lat="42.07682" lon="2.51154">
        <ele>454.4</ele>
        <time>2022-05-21 06:19:19</time>
      </trkpt>
      <trkpt lat="42.07676" lon="2.51162">
        <ele>454.4</ele>
        <time>2022-05-21 06:19:20</time>
      </trkpt>
      <trkpt lat="42.07669" lon="2.5117">
        <ele>454.2</ele>
        <time>2022-05-21 06:19:21</time>
      </trkpt>
      <trkpt lat="42.07663" lon="2.51177">
        <ele>454.2</ele>
        <time>2022-05-21 06:19:22</time>
      </trkpt>
      <trkpt lat="42.07657" lon="2.51184">
        <ele>454.2</ele>
        <time>2022-05-21 06:19:23</time>
      </trkpt>
      <trkpt lat="42.07652" lon="2.51191">
        <ele>454.2</ele>
        <time>2022-05-21 06:19:24</time>
      </trkpt>
      <trkpt lat="42.07645" lon="2.51198">
        <ele>454.2</ele>
        <time>2022-05-21 06:19:25</time>
      </trkpt>
      <trkpt lat="42.07639" lon="2.51206">
        <ele>454.2</ele>
        <time>2022-05-21 06:19:26</time>
      </trkpt>
      <trkpt lat="42.07634" lon="2.51213">
        <ele>454.2</ele>
        <time>2022-05-21 06:19:27</time>
      </trkpt>
      <trkpt lat="42.07628" lon="2.51221">
        <ele>454.2</ele>
        <time>2022-05-21 06:19:28</time>
      </trkpt>
      <trkpt lat="42.07622" lon="2.51228">
        <ele>454.2</ele>
        <time>2022-05-21 06:19:29</time>
      </trkpt>
      <trkpt lat="42.07616" lon="2.51236">
        <ele>454.2</ele>
        <time>2022-05-21 06:19:30</time>
      </trkpt>
      <trkpt lat="42.07609" lon="2.51243">
        <ele>454.2</ele>
        <time>2022-05-21 06:19:31</time>
      </trkpt>
      <trkpt lat="42.07602" lon="2.51251">
        <ele>454</ele>
        <time>2022-05-21 06:19:32</time>
      </trkpt>
      <trkpt lat="42.07595" lon="2.51259">
        <ele>453.8</ele>
        <time>2022-05-21 06:19:33</time>
      </trkpt>
      <trkpt lat="42.07589" lon="2.51267">
        <ele>453.8</ele>
        <time>2022-05-21 06:19:34</time>
      </trkpt>
      <trkpt lat="42.07583" lon="2.51275">
        <ele>453.6</ele>
        <time>2022-05-21 06:19:35</time>
      </trkpt>
      <trkpt lat="42.07576" lon="2.51284">
        <ele>453.4</ele>
        <time>2022-05-21 06:19:36</time>
      </trkpt>
      <trkpt lat="42.07569" lon="2.51293">
        <ele>453.2</ele>
        <time>2022-05-21 06:19:37</time>
      </trkpt>
      <trkpt lat="42.07561" lon="2.51303">
        <ele>453</ele>
        <time>2022-05-21 06:19:38</time>
      </trkpt>
      <trkpt lat="42.07554" lon="2.51312">
        <ele>452.6</ele>
        <time>2022-05-21 06:19:39</time>
      </trkpt>
      <trkpt lat="42.07547" lon="2.51319">
        <ele>452.4</ele>
        <time>2022-05-21 06:19:40</time>
      </trkpt>
      <trkpt lat="42.0754" lon="2.51328">
        <ele>452</ele>
        <time>2022-05-21 06:19:41</time>
      </trkpt>
      <trkpt lat="42.07533" lon="2.51337">
        <ele>451.6</ele>
        <time>2022-05-21 06:19:42</time>
      </trkpt>
      <trkpt lat="42.07525" lon="2.51346">
        <ele>451.4</ele>
        <time>2022-05-21 06:19:43</time>
      </trkpt>
      <trkpt lat="42.07518" lon="2.51354">
        <ele>451.2</ele>
        <time>2022-05-21 06:19:44</time>
      </trkpt>
      <trkpt lat="42.07511" lon="2.51363">
        <ele>450.8</ele>
        <time>2022-05-21 06:19:45</time>
      </trkpt>
      <trkpt lat="42.07504" lon="2.51372">
        <ele>450.6</ele>
        <time>2022-05-21 06:19:46</time>
      </trkpt>
      <trkpt lat="42.07497" lon="2.51381">
        <ele>450.2</ele>
        <time>2022-05-21 06:19:47</time>
      </trkpt>
      <trkpt lat="42.07492" lon="2.51392">
        <ele>450</ele>
        <time>2022-05-21 06:19:48</time>
      </trkpt>
      <trkpt lat="42.07487" lon="2.51404">
        <ele>449.8</ele>
        <time>2022-05-21 06:19:49</time>
      </trkpt>
      <trkpt lat="42.07483" lon="2.51415">
        <ele>449.6</ele>
        <time>2022-05-21 06:19:50</time>
      </trkpt>
      <trkpt lat="42.07479" lon="2.51426">
        <ele>449.4</ele>
        <time>2022-05-21 06:19:51</time>
      </trkpt>
      <trkpt lat="42.07476" lon="2.51437">
        <ele>449.2</ele>
        <time>2022-05-21 06:19:52</time>
      </trkpt>
      <trkpt lat="42.07472" lon="2.51448">
        <ele>449</ele>
        <time>2022-05-21 06:19:53</time>
      </trkpt>
      <trkpt lat="42.07469" lon="2.51459">
        <ele>449</ele>
        <time>2022-05-21 06:19:54</time>
      </trkpt>
      <trkpt lat="42.07465" lon="2.5147">
        <ele>449</ele>
        <time>2022-05-21 06:19:55</time>
      </trkpt>
      <trkpt lat="42.07461" lon="2.5148">
        <ele>449</ele>
        <time>2022-05-21 06:19:56</time>
      </trkpt>
      <trkpt lat="42.07457" lon="2.5149">
        <ele>448.8</ele>
        <time>2022-05-21 06:19:57</time>
      </trkpt>
      <trkpt lat="42.07452" lon="2.515">
        <ele>448.8</ele>
        <time>2022-05-21 06:19:58</time>
      </trkpt>
      <trkpt lat="42.07447" lon="2.51508">
        <ele>448.8</ele>
        <time>2022-05-21 06:19:59</time>
      </trkpt>
      <trkpt lat="42.07441" lon="2.51515">
        <ele>448.6</ele>
        <time>2022-05-21 06:20:00</time>
      </trkpt>
      <trkpt lat="42.07434" lon="2.51521">
        <ele>448.6</ele>
        <time>2022-05-21 06:20:01</time>
      </trkpt>
      <trkpt lat="42.07427" lon="2.51526">
        <ele>448.6</ele>
        <time>2022-05-21 06:20:02</time>
      </trkpt>
      <trkpt lat="42.0742" lon="2.5153">
        <ele>448.6</ele>
        <time>2022-05-21 06:20:03</time>
      </trkpt>
      <trkpt lat="42.07412" lon="2.51534">
        <ele>448.8</ele>
        <time>2022-05-21 06:20:04</time>
      </trkpt>
      <trkpt lat="42.07405" lon="2.51537">
        <ele>448.8</ele>
        <time>2022-05-21 06:20:05</time>
      </trkpt>
      <trkpt lat="42.07397" lon="2.5154">
        <ele>448.8</ele>
        <time>2022-05-21 06:20:06</time>
      </trkpt>
      <trkpt lat="42.0739" lon="2.51543">
        <ele>448.8</ele>
        <time>2022-05-21 06:20:07</time>
      </trkpt>
      <trkpt lat="42.07382" lon="2.51546">
        <ele>448.8</ele>
        <time>2022-05-21 06:20:08</time>
      </trkpt>
      <trkpt lat="42.07375" lon="2.51549">
        <ele>448.8</ele>
        <time>2022-05-21 06:20:09</time>
      </trkpt>
      <trkpt lat="42.07368" lon="2.51552">
        <ele>449</ele>
        <time>2022-05-21 06:20:10</time>
      </trkpt>
      <trkpt lat="42.0736" lon="2.51555">
        <ele>449</ele>
        <time>2022-05-21 06:20:11</time>
      </trkpt>
      <trkpt lat="42.07353" lon="2.51558">
        <ele>449</ele>
        <time>2022-05-21 06:20:12</time>
      </trkpt>
      <trkpt lat="42.07346" lon="2.51561">
        <ele>449</ele>
        <time>2022-05-21 06:20:13</time>
      </trkpt>
      <trkpt lat="42.07339" lon="2.51565">
        <ele>449</ele>
        <time>2022-05-21 06:20:14</time>
      </trkpt>
      <trkpt lat="42.07333" lon="2.5157">
        <ele>449.2</ele>
        <time>2022-05-21 06:20:15</time>
      </trkpt>
      <trkpt lat="42.07327" lon="2.51574">
        <ele>449.2</ele>
        <time>2022-05-21 06:20:16</time>
      </trkpt>
      <trkpt lat="42.07322" lon="2.5158">
        <ele>449.4</ele>
        <time>2022-05-21 06:20:17</time>
      </trkpt>
      <trkpt lat="42.07316" lon="2.51586">
        <ele>449.4</ele>
        <time>2022-05-21 06:20:18</time>
      </trkpt>
      <trkpt lat="42.07311" lon="2.51593">
        <ele>449.4</ele>
        <time>2022-05-21 06:20:19</time>
      </trkpt>
      <trkpt lat="42.07307" lon="2.51599">
        <ele>449.6</ele>
        <time>2022-05-21 06:20:20</time>
      </trkpt>
      <trkpt lat="42.07302" lon="2.51606">
        <ele>449.6</ele>
        <time>2022-05-21 06:20:21</time>
      </trkpt>
      <trkpt lat="42.07297" lon="2.51613">
        <ele>449.6</ele>
        <time>2022-05-21 06:20:22</time>
      </trkpt>
      <trkpt lat="42.07292" lon="2.5162">
        <ele>449.6</ele>
        <time>2022-05-21 06:20:23</time>
      </trkpt>
      <trkpt lat="42.07288" lon="2.51628">
        <ele>449.8</ele>
        <time>2022-05-21 06:20:24</time>
      </trkpt>
      <trkpt lat="42.07283" lon="2.51635">
        <ele>449.8</ele>
        <time>2022-05-21 06:20:25</time>
      </trkpt>
      <trkpt lat="42.07278" lon="2.51643">
        <ele>449.8</ele>
        <time>2022-05-21 06:20:26</time>
      </trkpt>
      <trkpt lat="42.07274" lon="2.5165">
        <ele>449.8</ele>
        <time>2022-05-21 06:20:27</time>
      </trkpt>
      <trkpt lat="42.0727" lon="2.51657">
        <ele>450</ele>
        <time>2022-05-21 06:20:28</time>
      </trkpt>
      <trkpt lat="42.07265" lon="2.51664">
        <ele>450</ele>
        <time>2022-05-21 06:20:29</time>
      </trkpt>
      <trkpt lat="42.07261" lon="2.51671">
        <ele>450</ele>
        <time>2022-05-21 06:20:30</time>
      </trkpt>
      <trkpt lat="42.07257" lon="2.51679">
        <ele>450</ele>
        <time>2022-05-21 06:20:31</time>
      </trkpt>
      <trkpt lat="42.07254" lon="2.51688">
        <ele>450</ele>
        <time>2022-05-21 06:20:32</time>
      </trkpt>
      <trkpt lat="42.07251" lon="2.51696">
        <ele>450.2</ele>
        <time>2022-05-21 06:20:33</time>
      </trkpt>
      <trkpt lat="42.07249" lon="2.51705">
        <ele>450.2</ele>
        <time>2022-05-21 06:20:34</time>
      </trkpt>
      <trkpt lat="42.07247" lon="2.51714">
        <ele>450.2</ele>
        <time>2022-05-21 06:20:35</time>
      </trkpt>
      <trkpt lat="42.07246" lon="2.51724">
        <ele>450.4</ele>
        <time>2022-05-21 06:20:36</time>
      </trkpt>
      <trkpt lat="42.07245" lon="2.51733">
        <ele>450.4</ele>
        <time>2022-05-21 06:20:37</time>
      </trkpt>
      <trkpt lat="42.07244" lon="2.51742">
        <ele>450.4</ele>
        <time>2022-05-21 06:20:38</time>
      </trkpt>
      <trkpt lat="42.07244" lon="2.51752">
        <ele>450.4</ele>
        <time>2022-05-21 06:20:39</time>
      </trkpt>
      <trkpt lat="42.07243" lon="2.51761">
        <ele>450.4</ele>
        <time>2022-05-21 06:20:40</time>
      </trkpt>
      <trkpt lat="42.07243" lon="2.51771">
        <ele>450.4</ele>
        <time>2022-05-21 06:20:41</time>
      </trkpt>
      <trkpt lat="42.07243" lon="2.5178">
        <ele>450.2</ele>
        <time>2022-05-21 06:20:42</time>
      </trkpt>
      <trkpt lat="42.07243" lon="2.5179">
        <ele>450.2</ele>
        <time>2022-05-21 06:20:43</time>
      </trkpt>
      <trkpt lat="42.07243" lon="2.51801">
        <ele>450</ele>
        <time>2022-05-21 06:20:44</time>
      </trkpt>
      <trkpt lat="42.07244" lon="2.51811">
        <ele>450</ele>
        <time>2022-05-21 06:20:45</time>
      </trkpt>
      <trkpt lat="42.07244" lon="2.51822">
        <ele>449.6</ele>
        <time>2022-05-21 06:20:46</time>
      </trkpt>
      <trkpt lat="42.07245" lon="2.51832">
        <ele>449.4</ele>
        <time>2022-05-21 06:20:47</time>
      </trkpt>
      <trkpt lat="42.07246" lon="2.51843">
        <ele>449.2</ele>
        <time>2022-05-21 06:20:48</time>
      </trkpt>
      <trkpt lat="42.07248" lon="2.51854">
        <ele>449</ele>
        <time>2022-05-21 06:20:49</time>
      </trkpt>
      <trkpt lat="42.07249" lon="2.51865">
        <ele>448.8</ele>
        <time>2022-05-21 06:20:50</time>
      </trkpt>
      <trkpt lat="42.07249" lon="2.51877">
        <ele>448.4</ele>
        <time>2022-05-21 06:20:51</time>
      </trkpt>
      <trkpt lat="42.0725" lon="2.51889">
        <ele>448</ele>
        <time>2022-05-21 06:20:52</time>
      </trkpt>
      <trkpt lat="42.07251" lon="2.51901">
        <ele>447.6</ele>
        <time>2022-05-21 06:20:53</time>
      </trkpt>
      <trkpt lat="42.07251" lon="2.51914">
        <ele>447</ele>
        <time>2022-05-21 06:20:54</time>
      </trkpt>
      <trkpt lat="42.0725" lon="2.51927">
        <ele>446.4</ele>
        <time>2022-05-21 06:20:55</time>
      </trkpt>
      <trkpt lat="42.07249" lon="2.5194">
        <ele>445.8</ele>
        <time>2022-05-21 06:20:56</time>
      </trkpt>
      <trkpt lat="42.07248" lon="2.51954">
        <ele>445.2</ele>
        <time>2022-05-21 06:20:57</time>
      </trkpt>
      <trkpt lat="42.07246" lon="2.51968">
        <ele>444.4</ele>
        <time>2022-05-21 06:20:58</time>
      </trkpt>
      <trkpt lat="42.07244" lon="2.51982">
        <ele>443.8</ele>
        <time>2022-05-21 06:20:59</time>
      </trkpt>
      <trkpt lat="42.07241" lon="2.51996">
        <ele>443.2</ele>
        <time>2022-05-21 06:21:00</time>
      </trkpt>
      <trkpt lat="42.07238" lon="2.52011">
        <ele>442.6</ele>
        <time>2022-05-21 06:21:01</time>
      </trkpt>
      <trkpt lat="42.07234" lon="2.52024">
        <ele>442</ele>
        <time>2022-05-21 06:21:02</time>
      </trkpt>
      <trkpt lat="42.0723" lon="2.52038">
        <ele>441.4</ele>
        <time>2022-05-21 06:21:03</time>
      </trkpt>
      <trkpt lat="42.07225" lon="2.52051">
        <ele>440.8</ele>
        <time>2022-05-21 06:21:04</time>
      </trkpt>
      <trkpt lat="42.07221" lon="2.52064">
        <ele>440.4</ele>
        <time>2022-05-21 06:21:05</time>
      </trkpt>
      <trkpt lat="42.07216" lon="2.52078">
        <ele>439.8</ele>
        <time>2022-05-21 06:21:06</time>
      </trkpt>
      <trkpt lat="42.07209" lon="2.5209">
        <ele>439.2</ele>
        <time>2022-05-21 06:21:07</time>
      </trkpt>
      <trkpt lat="42.07201" lon="2.52102">
        <ele>438.6</ele>
        <time>2022-05-21 06:21:08</time>
      </trkpt>
      <trkpt lat="42.07193" lon="2.52114">
        <ele>438.2</ele>
        <time>2022-05-21 06:21:09</time>
      </trkpt>
      <trkpt lat="42.07187" lon="2.52125">
        <ele>438</ele>
        <time>2022-05-21 06:21:10</time>
      </trkpt>
      <trkpt lat="42.0718" lon="2.52135">
        <ele>437.6</ele>
        <time>2022-05-21 06:21:11</time>
      </trkpt>
      <trkpt lat="42.07174" lon="2.52146">
        <ele>437.2</ele>
        <time>2022-05-21 06:21:12</time>
      </trkpt>
      <trkpt lat="42.07167" lon="2.52155">
        <ele>436.8</ele>
        <time>2022-05-21 06:21:13</time>
      </trkpt>
      <trkpt lat="42.0716" lon="2.52165">
        <ele>436.4</ele>
        <time>2022-05-21 06:21:14</time>
      </trkpt>
      <trkpt lat="42.07153" lon="2.52176">
        <ele>436.2</ele>
        <time>2022-05-21 06:21:15</time>
      </trkpt>
      <trkpt lat="42.07146" lon="2.52185">
        <ele>435.8</ele>
        <time>2022-05-21 06:21:16</time>
      </trkpt>
      <trkpt lat="42.07139" lon="2.52194">
        <ele>435.4</ele>
        <time>2022-05-21 06:21:17</time>
      </trkpt>
      <trkpt lat="42.07132" lon="2.52203">
        <ele>435</ele>
        <time>2022-05-21 06:21:18</time>
      </trkpt>
      <trkpt lat="42.07125" lon="2.52213">
        <ele>434.6</ele>
        <time>2022-05-21 06:21:19</time>
      </trkpt>
      <trkpt lat="42.07119" lon="2.52223">
        <ele>434.4</ele>
        <time>2022-05-21 06:21:20</time>
      </trkpt>
      <trkpt lat="42.07113" lon="2.52232">
        <ele>434</ele>
        <time>2022-05-21 06:21:21</time>
      </trkpt>
      <trkpt lat="42.07107" lon="2.52241">
        <ele>433.6</ele>
        <time>2022-05-21 06:21:22</time>
      </trkpt>
      <trkpt lat="42.07101" lon="2.5225">
        <ele>433.4</ele>
        <time>2022-05-21 06:21:23</time>
      </trkpt>
      <trkpt lat="42.07095" lon="2.52259">
        <ele>433</ele>
        <time>2022-05-21 06:21:24</time>
      </trkpt>
      <trkpt lat="42.07088" lon="2.52267">
        <ele>432.8</ele>
        <time>2022-05-21 06:21:25</time>
      </trkpt>
      <trkpt lat="42.07081" lon="2.52274">
        <ele>432.4</ele>
        <time>2022-05-21 06:21:26</time>
      </trkpt>
      <trkpt lat="42.07074" lon="2.52282">
        <ele>432</ele>
        <time>2022-05-21 06:21:27</time>
      </trkpt>
      <trkpt lat="42.07066" lon="2.5229">
        <ele>431.6</ele>
        <time>2022-05-21 06:21:28</time>
      </trkpt>
      <trkpt lat="42.07058" lon="2.52297">
        <ele>431.4</ele>
        <time>2022-05-21 06:21:29</time>
      </trkpt>
      <trkpt lat="42.0705" lon="2.52304">
        <ele>431</ele>
        <time>2022-05-21 06:21:30</time>
      </trkpt>
      <trkpt lat="42.07041" lon="2.52311">
        <ele>430.6</ele>
        <time>2022-05-21 06:21:31</time>
      </trkpt>
      <trkpt lat="42.07032" lon="2.52316">
        <ele>430.4</ele>
        <time>2022-05-21 06:21:32</time>
      </trkpt>
      <trkpt lat="42.07024" lon="2.52321">
        <ele>430.2</ele>
        <time>2022-05-21 06:21:33</time>
      </trkpt>
      <trkpt lat="42.07015" lon="2.52325">
        <ele>430</ele>
        <time>2022-05-21 06:21:34</time>
      </trkpt>
      <trkpt lat="42.07006" lon="2.5233">
        <ele>429.8</ele>
        <time>2022-05-21 06:21:35</time>
      </trkpt>
      <trkpt lat="42.06998" lon="2.52334">
        <ele>429.6</ele>
        <time>2022-05-21 06:21:36</time>
      </trkpt>
      <trkpt lat="42.06989" lon="2.52338">
        <ele>429.2</ele>
        <time>2022-05-21 06:21:37</time>
      </trkpt>
      <trkpt lat="42.06979" lon="2.52341">
        <ele>429</ele>
        <time>2022-05-21 06:21:38</time>
      </trkpt>
      <trkpt lat="42.06971" lon="2.52345">
        <ele>428.8</ele>
        <time>2022-05-21 06:21:39</time>
      </trkpt>
      <trkpt lat="42.06963" lon="2.52349">
        <ele>428.8</ele>
        <time>2022-05-21 06:21:40</time>
      </trkpt>
      <trkpt lat="42.06955" lon="2.52354">
        <ele>428.6</ele>
        <time>2022-05-21 06:21:41</time>
      </trkpt>
      <trkpt lat="42.06946" lon="2.5236">
        <ele>428.4</ele>
        <time>2022-05-21 06:21:42</time>
      </trkpt>
      <trkpt lat="42.06938" lon="2.52367">
        <ele>428</ele>
        <time>2022-05-21 06:21:43</time>
      </trkpt>
      <trkpt lat="42.0693" lon="2.52374">
        <ele>427.8</ele>
        <time>2022-05-21 06:21:44</time>
      </trkpt>
      <trkpt lat="42.06922" lon="2.52381">
        <ele>427.4</ele>
        <time>2022-05-21 06:21:45</time>
      </trkpt>
      <trkpt lat="42.06913" lon="2.5239">
        <ele>427</ele>
        <time>2022-05-21 06:21:46</time>
      </trkpt>
      <trkpt lat="42.06905" lon="2.52399">
        <ele>426.6</ele>
        <time>2022-05-21 06:21:47</time>
      </trkpt>
      <trkpt lat="42.06899" lon="2.52409">
        <ele>426.4</ele>
        <time>2022-05-21 06:21:48</time>
      </trkpt>
      <trkpt lat="42.06892" lon="2.52419">
        <ele>425.8</ele>
        <time>2022-05-21 06:21:49</time>
      </trkpt>
      <trkpt lat="42.06884" lon="2.52429">
        <ele>425.4</ele>
        <time>2022-05-21 06:21:50</time>
      </trkpt>
      <trkpt lat="42.06877" lon="2.52441">
        <ele>424.8</ele>
        <time>2022-05-21 06:21:51</time>
      </trkpt>
      <trkpt lat="42.06869" lon="2.52452">
        <ele>424.4</ele>
        <time>2022-05-21 06:21:52</time>
      </trkpt>
      <trkpt lat="42.06862" lon="2.52463">
        <ele>423.8</ele>
        <time>2022-05-21 06:21:53</time>
      </trkpt>
      <trkpt lat="42.06855" lon="2.52475">
        <ele>423.2</ele>
        <time>2022-05-21 06:21:54</time>
      </trkpt>
      <trkpt lat="42.06847" lon="2.52486">
        <ele>422.6</ele>
        <time>2022-05-21 06:21:55</time>
      </trkpt>
      <trkpt lat="42.0684" lon="2.52497">
        <ele>422.2</ele>
        <time>2022-05-21 06:21:56</time>
      </trkpt>
      <trkpt lat="42.06833" lon="2.52507">
        <ele>421.6</ele>
        <time>2022-05-21 06:21:57</time>
      </trkpt>
      <trkpt lat="42.06825" lon="2.52519">
        <ele>421</ele>
        <time>2022-05-21 06:21:58</time>
      </trkpt>
      <trkpt lat="42.06818" lon="2.52532">
        <ele>420.4</ele>
        <time>2022-05-21 06:21:59</time>
      </trkpt>
      <trkpt lat="42.06812" lon="2.52544">
        <ele>419.8</ele>
        <time>2022-05-21 06:22:00</time>
      </trkpt>
      <trkpt lat="42.06804" lon="2.52556">
        <ele>419.2</ele>
        <time>2022-05-21 06:22:01</time>
      </trkpt>
      <trkpt lat="42.06797" lon="2.52568">
        <ele>418.4</ele>
        <time>2022-05-21 06:22:02</time>
      </trkpt>
      <trkpt lat="42.0679" lon="2.5258">
        <ele>417.8</ele>
        <time>2022-05-21 06:22:03</time>
      </trkpt>
      <trkpt lat="42.06783" lon="2.52593">
        <ele>417</ele>
        <time>2022-05-21 06:22:04</time>
      </trkpt>
      <trkpt lat="42.06776" lon="2.52606">
        <ele>416.2</ele>
        <time>2022-05-21 06:22:05</time>
      </trkpt>
      <trkpt lat="42.0677" lon="2.5262">
        <ele>415.4</ele>
        <time>2022-05-21 06:22:06</time>
      </trkpt>
      <trkpt lat="42.06762" lon="2.52632">
        <ele>414.8</ele>
        <time>2022-05-21 06:22:07</time>
      </trkpt>
      <trkpt lat="42.06755" lon="2.52645">
        <ele>414</ele>
        <time>2022-05-21 06:22:08</time>
      </trkpt>
      <trkpt lat="42.06749" lon="2.52658">
        <ele>413.2</ele>
        <time>2022-05-21 06:22:09</time>
      </trkpt>
      <trkpt lat="42.06742" lon="2.52672">
        <ele>412.4</ele>
        <time>2022-05-21 06:22:10</time>
      </trkpt>
      <trkpt lat="42.06736" lon="2.52686">
        <ele>411.8</ele>
        <time>2022-05-21 06:22:11</time>
      </trkpt>
      <trkpt lat="42.06728" lon="2.52701">
        <ele>410.8</ele>
        <time>2022-05-21 06:22:12</time>
      </trkpt>
      <trkpt lat="42.0672" lon="2.52715">
        <ele>410</ele>
        <time>2022-05-21 06:22:13</time>
      </trkpt>
      <trkpt lat="42.06713" lon="2.5273">
        <ele>408.8</ele>
        <time>2022-05-21 06:22:14</time>
      </trkpt>
      <trkpt lat="42.06705" lon="2.52745">
        <ele>408</ele>
        <time>2022-05-21 06:22:15</time>
      </trkpt>
      <trkpt lat="42.06697" lon="2.5276">
        <ele>407</ele>
        <time>2022-05-21 06:22:16</time>
      </trkpt>
      <trkpt lat="42.0669" lon="2.52775">
        <ele>405.8</ele>
        <time>2022-05-21 06:22:17</time>
      </trkpt>
      <trkpt lat="42.06682" lon="2.52791">
        <ele>404.8</ele>
        <time>2022-05-21 06:22:18</time>
      </trkpt>
      <trkpt lat="42.06675" lon="2.52807">
        <ele>404</ele>
        <time>2022-05-21 06:22:19</time>
      </trkpt>
      <trkpt lat="42.06668" lon="2.52823">
        <ele>403.2</ele>
        <time>2022-05-21 06:22:20</time>
      </trkpt>
      <trkpt lat="42.0666" lon="2.52839">
        <ele>402.2</ele>
        <time>2022-05-21 06:22:21</time>
      </trkpt>
      <trkpt lat="42.06652" lon="2.52855">
        <ele>401.2</ele>
        <time>2022-05-21 06:22:22</time>
      </trkpt>
      <trkpt lat="42.06644" lon="2.5287">
        <ele>400.2</ele>
        <time>2022-05-21 06:22:23</time>
      </trkpt>
      <trkpt lat="42.06637" lon="2.52887">
        <ele>399.2</ele>
        <time>2022-05-21 06:22:24</time>
      </trkpt>
      <trkpt lat="42.06629" lon="2.52902">
        <ele>398</ele>
        <time>2022-05-21 06:22:25</time>
      </trkpt>
      <trkpt lat="42.06622" lon="2.52918">
        <ele>397.2</ele>
        <time>2022-05-21 06:22:26</time>
      </trkpt>
      <trkpt lat="42.06614" lon="2.52934">
        <ele>396.2</ele>
        <time>2022-05-21 06:22:27</time>
      </trkpt>
      <trkpt lat="42.06606" lon="2.5295">
        <ele>395.4</ele>
        <time>2022-05-21 06:22:28</time>
      </trkpt>
      <trkpt lat="42.06598" lon="2.52965">
        <ele>394.8</ele>
        <time>2022-05-21 06:22:29</time>
      </trkpt>
      <trkpt lat="42.0659" lon="2.52979">
        <ele>394.2</ele>
        <time>2022-05-21 06:22:30</time>
      </trkpt>
      <trkpt lat="42.06582" lon="2.52992">
        <ele>393.6</ele>
        <time>2022-05-21 06:22:31</time>
      </trkpt>
      <trkpt lat="42.06575" lon="2.53004">
        <ele>393.2</ele>
        <time>2022-05-21 06:22:32</time>
      </trkpt>
      <trkpt lat="42.06567" lon="2.53017">
        <ele>392.6</ele>
        <time>2022-05-21 06:22:33</time>
      </trkpt>
      <trkpt lat="42.06558" lon="2.53029">
        <ele>392.2</ele>
        <time>2022-05-21 06:22:34</time>
      </trkpt>
      <trkpt lat="42.06549" lon="2.53039">
        <ele>392</ele>
        <time>2022-05-21 06:22:35</time>
      </trkpt>
      <trkpt lat="42.0654" lon="2.5305">
        <ele>391.8</ele>
        <time>2022-05-21 06:22:36</time>
      </trkpt>
      <trkpt lat="42.06531" lon="2.53059">
        <ele>391.6</ele>
        <time>2022-05-21 06:22:37</time>
      </trkpt>
      <trkpt lat="42.06522" lon="2.53069">
        <ele>391.2</ele>
        <time>2022-05-21 06:22:38</time>
      </trkpt>
      <trkpt lat="42.06514" lon="2.53078">
        <ele>391</ele>
        <time>2022-05-21 06:22:39</time>
      </trkpt>
      <trkpt lat="42.06504" lon="2.53086">
        <ele>390.6</ele>
        <time>2022-05-21 06:22:40</time>
      </trkpt>
      <trkpt lat="42.06495" lon="2.53094">
        <ele>390.4</ele>
        <time>2022-05-21 06:22:41</time>
      </trkpt>
      <trkpt lat="42.06486" lon="2.53101">
        <ele>390.2</ele>
        <time>2022-05-21 06:22:42</time>
      </trkpt>
      <trkpt lat="42.06477" lon="2.53108">
        <ele>389.8</ele>
        <time>2022-05-21 06:22:43</time>
      </trkpt>
      <trkpt lat="42.06467" lon="2.53115">
        <ele>389.6</ele>
        <time>2022-05-21 06:22:44</time>
      </trkpt>
      <trkpt lat="42.06458" lon="2.53122">
        <ele>389.4</ele>
        <time>2022-05-21 06:22:45</time>
      </trkpt>
      <trkpt lat="42.06448" lon="2.53128">
        <ele>389</ele>
        <time>2022-05-21 06:22:46</time>
      </trkpt>
      <trkpt lat="42.06439" lon="2.53133">
        <ele>388.6</ele>
        <time>2022-05-21 06:22:47</time>
      </trkpt>
      <trkpt lat="42.06429" lon="2.53139">
        <ele>388.4</ele>
        <time>2022-05-21 06:22:48</time>
      </trkpt>
      <trkpt lat="42.0642" lon="2.53144">
        <ele>388</ele>
        <time>2022-05-21 06:22:49</time>
      </trkpt>
      <trkpt lat="42.0641" lon="2.53149">
        <ele>387.4</ele>
        <time>2022-05-21 06:22:50</time>
      </trkpt>
      <trkpt lat="42.064" lon="2.53155">
        <ele>387</ele>
        <time>2022-05-21 06:22:51</time>
      </trkpt>
      <trkpt lat="42.0639" lon="2.5316">
        <ele>386.4</ele>
        <time>2022-05-21 06:22:52</time>
      </trkpt>
      <trkpt lat="42.06379" lon="2.53166">
        <ele>385.8</ele>
        <time>2022-05-21 06:22:53</time>
      </trkpt>
      <trkpt lat="42.06369" lon="2.53171">
        <ele>385.2</ele>
        <time>2022-05-21 06:22:54</time>
      </trkpt>
      <trkpt lat="42.06359" lon="2.53176">
        <ele>384.8</ele>
        <time>2022-05-21 06:22:55</time>
      </trkpt>
      <trkpt lat="42.06349" lon="2.53181">
        <ele>384.2</ele>
        <time>2022-05-21 06:22:56</time>
      </trkpt>
      <trkpt lat="42.06339" lon="2.53188">
        <ele>383.6</ele>
        <time>2022-05-21 06:22:57</time>
      </trkpt>
      <trkpt lat="42.0633" lon="2.53194">
        <ele>383</ele>
        <time>2022-05-21 06:22:58</time>
      </trkpt>
      <trkpt lat="42.0632" lon="2.53202">
        <ele>382.4</ele>
        <time>2022-05-21 06:22:59</time>
      </trkpt>
      <trkpt lat="42.0631" lon="2.5321">
        <ele>381.8</ele>
        <time>2022-05-21 06:23:00</time>
      </trkpt>
      <trkpt lat="42.06301" lon="2.53217">
        <ele>381</ele>
        <time>2022-05-21 06:23:01</time>
      </trkpt>
      <trkpt lat="42.06292" lon="2.53226">
        <ele>380.2</ele>
        <time>2022-05-21 06:23:02</time>
      </trkpt>
      <trkpt lat="42.06283" lon="2.53236">
        <ele>379.4</ele>
        <time>2022-05-21 06:23:03</time>
      </trkpt>
      <trkpt lat="42.06274" lon="2.53246">
        <ele>378.8</ele>
        <time>2022-05-21 06:23:04</time>
      </trkpt>
      <trkpt lat="42.06265" lon="2.53257">
        <ele>378</ele>
        <time>2022-05-21 06:23:05</time>
      </trkpt>
      <trkpt lat="42.06257" lon="2.53268">
        <ele>377.2</ele>
        <time>2022-05-21 06:23:06</time>
      </trkpt>
      <trkpt lat="42.0625" lon="2.53279">
        <ele>376.4</ele>
        <time>2022-05-21 06:23:07</time>
      </trkpt>
      <trkpt lat="42.06241" lon="2.53292">
        <ele>375.6</ele>
        <time>2022-05-21 06:23:08</time>
      </trkpt>
      <trkpt lat="42.06234" lon="2.53304">
        <ele>374.8</ele>
        <time>2022-05-21 06:23:09</time>
      </trkpt>
      <trkpt lat="42.06225" lon="2.53317">
        <ele>374</ele>
        <time>2022-05-21 06:23:10</time>
      </trkpt>
      <trkpt lat="42.06217" lon="2.5333">
        <ele>373</ele>
        <time>2022-05-21 06:23:11</time>
      </trkpt>
      <trkpt lat="42.0621" lon="2.53343">
        <ele>372.2</ele>
        <time>2022-05-21 06:23:12</time>
      </trkpt>
      <trkpt lat="42.06203" lon="2.53357">
        <ele>371.2</ele>
        <time>2022-05-21 06:23:13</time>
      </trkpt>
      <trkpt lat="42.06196" lon="2.53371">
        <ele>370.4</ele>
        <time>2022-05-21 06:23:14</time>
      </trkpt>
      <trkpt lat="42.06189" lon="2.53385">
        <ele>369.4</ele>
        <time>2022-05-21 06:23:15</time>
      </trkpt>
      <trkpt lat="42.06182" lon="2.534">
        <ele>368.4</ele>
        <time>2022-05-21 06:23:16</time>
      </trkpt>
      <trkpt lat="42.06175" lon="2.53414">
        <ele>367.4</ele>
        <time>2022-05-21 06:23:17</time>
      </trkpt>
      <trkpt lat="42.06167" lon="2.53428">
        <ele>366.2</ele>
        <time>2022-05-21 06:23:18</time>
      </trkpt>
      <trkpt lat="42.06158" lon="2.53442">
        <ele>365.2</ele>
        <time>2022-05-21 06:23:19</time>
      </trkpt>
      <trkpt lat="42.0615" lon="2.53455">
        <ele>364.4</ele>
        <time>2022-05-21 06:23:20</time>
      </trkpt>
      <trkpt lat="42.06143" lon="2.53468">
        <ele>363.4</ele>
        <time>2022-05-21 06:23:21</time>
      </trkpt>
      <trkpt lat="42.06135" lon="2.53482">
        <ele>362.6</ele>
        <time>2022-05-21 06:23:22</time>
      </trkpt>
      <trkpt lat="42.06126" lon="2.53494">
        <ele>361.6</ele>
        <time>2022-05-21 06:23:23</time>
      </trkpt>
      <trkpt lat="42.06117" lon="2.53507">
        <ele>360.6</ele>
        <time>2022-05-21 06:23:24</time>
      </trkpt>
      <trkpt lat="42.06107" lon="2.53518">
        <ele>359.6</ele>
        <time>2022-05-21 06:23:25</time>
      </trkpt>
      <trkpt lat="42.06098" lon="2.53529">
        <ele>358.8</ele>
        <time>2022-05-21 06:23:26</time>
      </trkpt>
      <trkpt lat="42.06088" lon="2.5354">
        <ele>358</ele>
        <time>2022-05-21 06:23:27</time>
      </trkpt>
      <trkpt lat="42.06078" lon="2.5355">
        <ele>357.2</ele>
        <time>2022-05-21 06:23:28</time>
      </trkpt>
      <trkpt lat="42.06068" lon="2.5356">
        <ele>356.6</ele>
        <time>2022-05-21 06:23:29</time>
      </trkpt>
      <trkpt lat="42.06058" lon="2.53569">
        <ele>356</ele>
        <time>2022-05-21 06:23:30</time>
      </trkpt>
      <trkpt lat="42.06048" lon="2.53578">
        <ele>355.4</ele>
        <time>2022-05-21 06:23:31</time>
      </trkpt>
      <trkpt lat="42.06038" lon="2.53588">
        <ele>355</ele>
        <time>2022-05-21 06:23:32</time>
      </trkpt>
      <trkpt lat="42.06028" lon="2.53598">
        <ele>354.6</ele>
        <time>2022-05-21 06:23:33</time>
      </trkpt>
      <trkpt lat="42.06019" lon="2.53607">
        <ele>354.2</ele>
        <time>2022-05-21 06:23:34</time>
      </trkpt>
      <trkpt lat="42.0601" lon="2.53615">
        <ele>354</ele>
        <time>2022-05-21 06:23:35</time>
      </trkpt>
      <trkpt lat="42.06001" lon="2.53624">
        <ele>353.6</ele>
        <time>2022-05-21 06:23:36</time>
      </trkpt>
      <trkpt lat="42.05991" lon="2.53632">
        <ele>353.4</ele>
        <time>2022-05-21 06:23:37</time>
      </trkpt>
      <trkpt lat="42.05983" lon="2.5364">
        <ele>353.2</ele>
        <time>2022-05-21 06:23:38</time>
      </trkpt>
      <trkpt lat="42.05974" lon="2.53647">
        <ele>353</ele>
        <time>2022-05-21 06:23:39</time>
      </trkpt>
      <trkpt lat="42.05966" lon="2.53654">
        <ele>352.8</ele>
        <time>2022-05-21 06:23:40</time>
      </trkpt>
      <trkpt lat="42.05958" lon="2.53662">
        <ele>352.8</ele>
        <time>2022-05-21 06:23:41</time>
      </trkpt>
      <trkpt lat="42.05951" lon="2.53669">
        <ele>352.8</ele>
        <time>2022-05-21 06:23:42</time>
      </trkpt>
      <trkpt lat="42.05943" lon="2.53676">
        <ele>352.8</ele>
        <time>2022-05-21 06:23:43</time>
      </trkpt>
      <trkpt lat="42.05935" lon="2.53684">
        <ele>352.8</ele>
        <time>2022-05-21 06:23:44</time>
      </trkpt>
      <trkpt lat="42.05928" lon="2.53691">
        <ele>352.8</ele>
        <time>2022-05-21 06:23:45</time>
      </trkpt>
      <trkpt lat="42.05921" lon="2.53699">
        <ele>352.8</ele>
        <time>2022-05-21 06:23:46</time>
      </trkpt>
      <trkpt lat="42.05914" lon="2.53707">
        <ele>353</ele>
        <time>2022-05-21 06:23:47</time>
      </trkpt>
      <trkpt lat="42.05908" lon="2.53715">
        <ele>353</ele>
        <time>2022-05-21 06:23:48</time>
      </trkpt>
      <trkpt lat="42.05902" lon="2.53722">
        <ele>353</ele>
        <time>2022-05-21 06:23:49</time>
      </trkpt>
      <trkpt lat="42.05896" lon="2.5373">
        <ele>353</ele>
        <time>2022-05-21 06:23:50</time>
      </trkpt>
      <trkpt lat="42.05889" lon="2.53739">
        <ele>353</ele>
        <time>2022-05-21 06:23:51</time>
      </trkpt>
      <trkpt lat="42.05883" lon="2.53747">
        <ele>353</ele>
        <time>2022-05-21 06:23:52</time>
      </trkpt>
      <trkpt lat="42.05877" lon="2.53755">
        <ele>353.2</ele>
        <time>2022-05-21 06:23:53</time>
      </trkpt>
      <trkpt lat="42.05872" lon="2.53763">
        <ele>353.2</ele>
        <time>2022-05-21 06:23:54</time>
      </trkpt>
      <trkpt lat="42.05866" lon="2.53771">
        <ele>353.2</ele>
        <time>2022-05-21 06:23:55</time>
      </trkpt>
      <trkpt lat="42.0586" lon="2.53779">
        <ele>353.4</ele>
        <time>2022-05-21 06:23:56</time>
      </trkpt>
      <trkpt lat="42.05854" lon="2.53786">
        <ele>353.4</ele>
        <time>2022-05-21 06:23:57</time>
      </trkpt>
      <trkpt lat="42.05849" lon="2.53794">
        <ele>353.4</ele>
        <time>2022-05-21 06:23:58</time>
      </trkpt>
      <trkpt lat="42.05843" lon="2.53801">
        <ele>353.4</ele>
        <time>2022-05-21 06:23:59</time>
      </trkpt>
      <trkpt lat="42.05837" lon="2.53809">
        <ele>353.4</ele>
        <time>2022-05-21 06:24:00</time>
      </trkpt>
      <trkpt lat="42.05832" lon="2.53817">
        <ele>353.4</ele>
        <time>2022-05-21 06:24:01</time>
      </trkpt>
      <trkpt lat="42.05825" lon="2.53825">
        <ele>353.4</ele>
        <time>2022-05-21 06:24:02</time>
      </trkpt>
      <trkpt lat="42.0582" lon="2.53833">
        <ele>353.4</ele>
        <time>2022-05-21 06:24:03</time>
      </trkpt>
      <trkpt lat="42.05814" lon="2.53841">
        <ele>353.4</ele>
        <time>2022-05-21 06:24:04</time>
      </trkpt>
      <trkpt lat="42.05808" lon="2.53849">
        <ele>353.2</ele>
        <time>2022-05-21 06:24:05</time>
      </trkpt>
      <trkpt lat="42.05802" lon="2.53857">
        <ele>353.2</ele>
        <time>2022-05-21 06:24:06</time>
      </trkpt>
      <trkpt lat="42.05796" lon="2.53866">
        <ele>353</ele>
        <time>2022-05-21 06:24:07</time>
      </trkpt>
      <trkpt lat="42.0579" lon="2.53874">
        <ele>352.8</ele>
        <time>2022-05-21 06:24:08</time>
      </trkpt>
      <trkpt lat="42.05784" lon="2.53881">
        <ele>352.6</ele>
        <time>2022-05-21 06:24:09</time>
      </trkpt>
      <trkpt lat="42.05778" lon="2.5389">
        <ele>352.4</ele>
        <time>2022-05-21 06:24:10</time>
      </trkpt>
      <trkpt lat="42.05772" lon="2.53898">
        <ele>352.2</ele>
        <time>2022-05-21 06:24:11</time>
      </trkpt>
      <trkpt lat="42.05767" lon="2.53905">
        <ele>352</ele>
        <time>2022-05-21 06:24:12</time>
      </trkpt>
      <trkpt lat="42.05761" lon="2.53913">
        <ele>352</ele>
        <time>2022-05-21 06:24:13</time>
      </trkpt>
      <trkpt lat="42.05754" lon="2.53921">
        <ele>351.6</ele>
        <time>2022-05-21 06:24:14</time>
      </trkpt>
      <trkpt lat="42.05748" lon="2.5393">
        <ele>351.4</ele>
        <time>2022-05-21 06:24:15</time>
      </trkpt>
      <trkpt lat="42.05742" lon="2.53938">
        <ele>351.2</ele>
        <time>2022-05-21 06:24:16</time>
      </trkpt>
      <trkpt lat="42.05736" lon="2.53947">
        <ele>350.8</ele>
        <time>2022-05-21 06:24:17</time>
      </trkpt>
      <trkpt lat="42.0573" lon="2.53955">
        <ele>350.6</ele>
        <time>2022-05-21 06:24:18</time>
      </trkpt>
      <trkpt lat="42.05724" lon="2.53963">
        <ele>350.4</ele>
        <time>2022-05-21 06:24:19</time>
      </trkpt>
      <trkpt lat="42.05717" lon="2.53972">
        <ele>350.2</ele>
        <time>2022-05-21 06:24:20</time>
      </trkpt>
      <trkpt lat="42.05712" lon="2.5398">
        <ele>350</ele>
        <time>2022-05-21 06:24:21</time>
      </trkpt>
      <trkpt lat="42.05706" lon="2.53989">
        <ele>349.8</ele>
        <time>2022-05-21 06:24:22</time>
      </trkpt>
      <trkpt lat="42.05699" lon="2.53997">
        <ele>349.6</ele>
        <time>2022-05-21 06:24:23</time>
      </trkpt>
      <trkpt lat="42.05693" lon="2.54006">
        <ele>349.2</ele>
        <time>2022-05-21 06:24:24</time>
      </trkpt>
      <trkpt lat="42.05687" lon="2.54014">
        <ele>349</ele>
        <time>2022-05-21 06:24:25</time>
      </trkpt>
      <trkpt lat="42.05681" lon="2.54023">
        <ele>349</ele>
        <time>2022-05-21 06:24:26</time>
      </trkpt>
      <trkpt lat="42.05675" lon="2.54031">
        <ele>348.8</ele>
        <time>2022-05-21 06:24:27</time>
      </trkpt>
      <trkpt lat="42.05669" lon="2.54039">
        <ele>348.8</ele>
        <time>2022-05-21 06:24:28</time>
      </trkpt>
      <trkpt lat="42.05663" lon="2.54047">
        <ele>348.6</ele>
        <time>2022-05-21 06:24:29</time>
      </trkpt>
      <trkpt lat="42.05656" lon="2.54055">
        <ele>348.6</ele>
        <time>2022-05-21 06:24:30</time>
      </trkpt>
      <trkpt lat="42.05651" lon="2.54063">
        <ele>348.4</ele>
        <time>2022-05-21 06:24:31</time>
      </trkpt>
      <trkpt lat="42.05645" lon="2.5407">
        <ele>348.2</ele>
        <time>2022-05-21 06:24:32</time>
      </trkpt>
      <trkpt lat="42.0564" lon="2.54078">
        <ele>348</ele>
        <time>2022-05-21 06:24:33</time>
      </trkpt>
      <trkpt lat="42.05633" lon="2.54086">
        <ele>347.8</ele>
        <time>2022-05-21 06:24:34</time>
      </trkpt>
      <trkpt lat="42.05627" lon="2.54094">
        <ele>347.6</ele>
        <time>2022-05-21 06:24:35</time>
      </trkpt>
      <trkpt lat="42.05621" lon="2.54102">
        <ele>347.6</ele>
        <time>2022-05-21 06:24:36</time>
      </trkpt>
      <trkpt lat="42.05615" lon="2.5411">
        <ele>347.4</ele>
        <time>2022-05-21 06:24:37</time>
      </trkpt>
      <trkpt lat="42.05609" lon="2.54118">
        <ele>347.2</ele>
        <time>2022-05-21 06:24:38</time>
      </trkpt>
      <trkpt lat="42.05603" lon="2.54126">
        <ele>347</ele>
        <time>2022-05-21 06:24:39</time>
      </trkpt>
      <trkpt lat="42.05597" lon="2.54134">
        <ele>346.8</ele>
        <time>2022-05-21 06:24:40</time>
      </trkpt>
      <trkpt lat="42.05591" lon="2.54143">
        <ele>346.6</ele>
        <time>2022-05-21 06:24:41</time>
      </trkpt>
      <trkpt lat="42.05585" lon="2.54151">
        <ele>346.6</ele>
        <time>2022-05-21 06:24:42</time>
      </trkpt>
      <trkpt lat="42.05579" lon="2.54159">
        <ele>346.4</ele>
        <time>2022-05-21 06:24:43</time>
      </trkpt>
      <trkpt lat="42.05574" lon="2.54167">
        <ele>346.4</ele>
        <time>2022-05-21 06:24:44</time>
      </trkpt>
      <trkpt lat="42.05568" lon="2.54175">
        <ele>346.2</ele>
        <time>2022-05-21 06:24:45</time>
      </trkpt>
      <trkpt lat="42.05563" lon="2.54183">
        <ele>346</ele>
        <time>2022-05-21 06:24:46</time>
      </trkpt>
      <trkpt lat="42.05557" lon="2.54191">
        <ele>345.8</ele>
        <time>2022-05-21 06:24:47</time>
      </trkpt>
      <trkpt lat="42.05552" lon="2.54199">
        <ele>345.6</ele>
        <time>2022-05-21 06:24:48</time>
      </trkpt>
      <trkpt lat="42.05547" lon="2.54206">
        <ele>345.4</ele>
        <time>2022-05-21 06:24:49</time>
      </trkpt>
      <trkpt lat="42.05541" lon="2.54214">
        <ele>345.2</ele>
        <time>2022-05-21 06:24:50</time>
      </trkpt>
      <trkpt lat="42.05535" lon="2.54222">
        <ele>345</ele>
        <time>2022-05-21 06:24:51</time>
      </trkpt>
      <trkpt lat="42.05529" lon="2.5423">
        <ele>344.6</ele>
        <time>2022-05-21 06:24:52</time>
      </trkpt>
      <trkpt lat="42.05523" lon="2.54238">
        <ele>344.2</ele>
        <time>2022-05-21 06:24:53</time>
      </trkpt>
      <trkpt lat="42.05517" lon="2.54246">
        <ele>343.8</ele>
        <time>2022-05-21 06:24:54</time>
      </trkpt>
      <trkpt lat="42.05511" lon="2.54255">
        <ele>343.6</ele>
        <time>2022-05-21 06:24:55</time>
      </trkpt>
      <trkpt lat="42.05505" lon="2.54263">
        <ele>343.2</ele>
        <time>2022-05-21 06:24:56</time>
      </trkpt>
      <trkpt lat="42.05499" lon="2.54272">
        <ele>342.8</ele>
        <time>2022-05-21 06:24:57</time>
      </trkpt>
      <trkpt lat="42.05493" lon="2.5428">
        <ele>342.6</ele>
        <time>2022-05-21 06:24:58</time>
      </trkpt>
      <trkpt lat="42.05487" lon="2.54288">
        <ele>342.2</ele>
        <time>2022-05-21 06:24:59</time>
      </trkpt>
      <trkpt lat="42.05481" lon="2.54296">
        <ele>342</ele>
        <time>2022-05-21 06:25:00</time>
      </trkpt>
      <trkpt lat="42.05475" lon="2.54305">
        <ele>341.6</ele>
        <time>2022-05-21 06:25:01</time>
      </trkpt>
      <trkpt lat="42.05469" lon="2.54313">
        <ele>341.2</ele>
        <time>2022-05-21 06:25:02</time>
      </trkpt>
      <trkpt lat="42.05462" lon="2.54321">
        <ele>340.8</ele>
        <time>2022-05-21 06:25:03</time>
      </trkpt>
      <trkpt lat="42.05456" lon="2.54329">
        <ele>340.4</ele>
        <time>2022-05-21 06:25:04</time>
      </trkpt>
      <trkpt lat="42.05451" lon="2.54337">
        <ele>340.2</ele>
        <time>2022-05-21 06:25:05</time>
      </trkpt>
      <trkpt lat="42.05445" lon="2.54345">
        <ele>339.8</ele>
        <time>2022-05-21 06:25:06</time>
      </trkpt>
      <trkpt lat="42.0544" lon="2.54353">
        <ele>339.6</ele>
        <time>2022-05-21 06:25:07</time>
      </trkpt>
      <trkpt lat="42.05435" lon="2.5436">
        <ele>339.4</ele>
        <time>2022-05-21 06:25:08</time>
      </trkpt>
      <trkpt lat="42.0543" lon="2.54367">
        <ele>339.2</ele>
        <time>2022-05-21 06:25:09</time>
      </trkpt>
      <trkpt lat="42.05426" lon="2.54375">
        <ele>339</ele>
        <time>2022-05-21 06:25:10</time>
      </trkpt>
      <trkpt lat="42.05425" lon="2.54382">
        <ele>338.8</ele>
        <time>2022-05-21 06:25:11</time>
      </trkpt>
      <trkpt lat="42.05425" lon="2.54389">
        <ele>338.6</ele>
        <time>2022-05-21 06:25:12</time>
      </trkpt>
      <trkpt lat="42.05426" lon="2.54397">
        <ele>338.4</ele>
        <time>2022-05-21 06:25:13</time>
      </trkpt>
      <trkpt lat="42.05429" lon="2.54404">
        <ele>338.2</ele>
        <time>2022-05-21 06:25:14</time>
      </trkpt>
      <trkpt lat="42.05432" lon="2.54411">
        <ele>338.2</ele>
        <time>2022-05-21 06:25:15</time>
      </trkpt>
      <trkpt lat="42.05435" lon="2.54419">
        <ele>338</ele>
        <time>2022-05-21 06:25:16</time>
      </trkpt>
      <trkpt lat="42.05437" lon="2.54426">
        <ele>338</ele>
        <time>2022-05-21 06:25:17</time>
      </trkpt>
      <trkpt lat="42.0544" lon="2.54434">
        <ele>337.8</ele>
        <time>2022-05-21 06:25:18</time>
      </trkpt>
      <trkpt lat="42.05443" lon="2.54442">
        <ele>337.8</ele>
        <time>2022-05-21 06:25:19</time>
      </trkpt>
      <trkpt lat="42.05445" lon="2.54451">
        <ele>337.6</ele>
        <time>2022-05-21 06:25:20</time>
      </trkpt>
      <trkpt lat="42.05448" lon="2.54459">
        <ele>337.6</ele>
        <time>2022-05-21 06:25:21</time>
      </trkpt>
      <trkpt lat="42.05451" lon="2.54467">
        <ele>337.4</ele>
        <time>2022-05-21 06:25:22</time>
      </trkpt>
      <trkpt lat="42.05453" lon="2.54476">
        <ele>337.4</ele>
        <time>2022-05-21 06:25:23</time>
      </trkpt>
      <trkpt lat="42.05456" lon="2.54484">
        <ele>337.4</ele>
        <time>2022-05-21 06:25:24</time>
      </trkpt>
      <trkpt lat="42.05459" lon="2.54492">
        <ele>337.2</ele>
        <time>2022-05-21 06:25:25</time>
      </trkpt>
      <trkpt lat="42.05461" lon="2.54501">
        <ele>337.2</ele>
        <time>2022-05-21 06:25:26</time>
      </trkpt>
      <trkpt lat="42.05465" lon="2.5451">
        <ele>337.2</ele>
        <time>2022-05-21 06:25:27</time>
      </trkpt>
      <trkpt lat="42.05467" lon="2.54519">
        <ele>337</ele>
        <time>2022-05-21 06:25:28</time>
      </trkpt>
      <trkpt lat="42.0547" lon="2.54527">
        <ele>337</ele>
        <time>2022-05-21 06:25:29</time>
      </trkpt>
      <trkpt lat="42.05473" lon="2.54536">
        <ele>337</ele>
        <time>2022-05-21 06:25:30</time>
      </trkpt>
      <trkpt lat="42.05476" lon="2.54545">
        <ele>336.8</ele>
        <time>2022-05-21 06:25:31</time>
      </trkpt>
      <trkpt lat="42.05478" lon="2.54555">
        <ele>336.8</ele>
        <time>2022-05-21 06:25:32</time>
      </trkpt>
      <trkpt lat="42.05481" lon="2.54564">
        <ele>336.8</ele>
        <time>2022-05-21 06:25:33</time>
      </trkpt>
      <trkpt lat="42.05484" lon="2.54572">
        <ele>336.8</ele>
        <time>2022-05-21 06:25:34</time>
      </trkpt>
      <trkpt lat="42.05486" lon="2.5458">
        <ele>336.8</ele>
        <time>2022-05-21 06:25:35</time>
      </trkpt>
      <trkpt lat="42.05489" lon="2.5459">
        <ele>336.6</ele>
        <time>2022-05-21 06:25:36</time>
      </trkpt>
      <trkpt lat="42.05492" lon="2.54598">
        <ele>336.6</ele>
        <time>2022-05-21 06:25:37</time>
      </trkpt>
      <trkpt lat="42.05495" lon="2.54607">
        <ele>336.4</ele>
        <time>2022-05-21 06:25:38</time>
      </trkpt>
      <trkpt lat="42.05498" lon="2.54616">
        <ele>336.4</ele>
        <time>2022-05-21 06:25:39</time>
      </trkpt>
      <trkpt lat="42.055" lon="2.54625">
        <ele>336.2</ele>
        <time>2022-05-21 06:25:40</time>
      </trkpt>
      <trkpt lat="42.05503" lon="2.54634">
        <ele>336.2</ele>
        <time>2022-05-21 06:25:41</time>
      </trkpt>
      <trkpt lat="42.05506" lon="2.54643">
        <ele>336</ele>
        <time>2022-05-21 06:25:42</time>
      </trkpt>
      <trkpt lat="42.05508" lon="2.54651">
        <ele>336</ele>
        <time>2022-05-21 06:25:43</time>
      </trkpt>
      <trkpt lat="42.05511" lon="2.5466">
        <ele>336</ele>
        <time>2022-05-21 06:25:44</time>
      </trkpt>
      <trkpt lat="42.05514" lon="2.54668">
        <ele>336</ele>
        <time>2022-05-21 06:25:45</time>
      </trkpt>
      <trkpt lat="42.05516" lon="2.54677">
        <ele>335.8</ele>
        <time>2022-05-21 06:25:46</time>
      </trkpt>
      <trkpt lat="42.05519" lon="2.54685">
        <ele>335.8</ele>
        <time>2022-05-21 06:25:47</time>
      </trkpt>
      <trkpt lat="42.05522" lon="2.54694">
        <ele>335.6</ele>
        <time>2022-05-21 06:25:48</time>
      </trkpt>
      <trkpt lat="42.05525" lon="2.54702">
        <ele>335.4</ele>
        <time>2022-05-21 06:25:49</time>
      </trkpt>
      <trkpt lat="42.05527" lon="2.54712">
        <ele>335.2</ele>
        <time>2022-05-21 06:25:50</time>
      </trkpt>
      <trkpt lat="42.05529" lon="2.54722">
        <ele>334.8</ele>
        <time>2022-05-21 06:25:51</time>
      </trkpt>
      <trkpt lat="42.05532" lon="2.54732">
        <ele>334.2</ele>
        <time>2022-05-21 06:25:52</time>
      </trkpt>
      <trkpt lat="42.05536" lon="2.54742">
        <ele>333.8</ele>
        <time>2022-05-21 06:25:53</time>
      </trkpt>
      <trkpt lat="42.05539" lon="2.54752">
        <ele>333.4</ele>
        <time>2022-05-21 06:25:54</time>
      </trkpt>
      <trkpt lat="42.05542" lon="2.54762">
        <ele>332.8</ele>
        <time>2022-05-21 06:25:55</time>
      </trkpt>
      <trkpt lat="42.05545" lon="2.54774">
        <ele>332</ele>
        <time>2022-05-21 06:25:56</time>
      </trkpt>
      <trkpt lat="42.05548" lon="2.54784">
        <ele>331.4</ele>
        <time>2022-05-21 06:25:57</time>
      </trkpt>
      <trkpt lat="42.05552" lon="2.54797">
        <ele>330.8</ele>
        <time>2022-05-21 06:25:58</time>
      </trkpt>
      <trkpt lat="42.05555" lon="2.54809">
        <ele>330</ele>
        <time>2022-05-21 06:25:59</time>
      </trkpt>
      <trkpt lat="42.05558" lon="2.54821">
        <ele>329.2</ele>
        <time>2022-05-21 06:26:00</time>
      </trkpt>
      <trkpt lat="42.05562" lon="2.54832">
        <ele>328.6</ele>
        <time>2022-05-21 06:26:01</time>
      </trkpt>
      <trkpt lat="42.05566" lon="2.54845">
        <ele>328</ele>
        <time>2022-05-21 06:26:02</time>
      </trkpt>
      <trkpt lat="42.0557" lon="2.54858">
        <ele>327.6</ele>
        <time>2022-05-21 06:26:03</time>
      </trkpt>
      <trkpt lat="42.05574" lon="2.54869">
        <ele>327.2</ele>
        <time>2022-05-21 06:26:04</time>
      </trkpt>
      <trkpt lat="42.05579" lon="2.54882">
        <ele>327</ele>
        <time>2022-05-21 06:26:05</time>
      </trkpt>
      <trkpt lat="42.05583" lon="2.54893">
        <ele>327</ele>
        <time>2022-05-21 06:26:06</time>
      </trkpt>
      <trkpt lat="42.05588" lon="2.54905">
        <ele>327</ele>
        <time>2022-05-21 06:26:07</time>
      </trkpt>
      <trkpt lat="42.05592" lon="2.54916">
        <ele>327</ele>
        <time>2022-05-21 06:26:08</time>
      </trkpt>
      <trkpt lat="42.05596" lon="2.54927">
        <ele>327</ele>
        <time>2022-05-21 06:26:09</time>
      </trkpt>
      <trkpt lat="42.056" lon="2.54938">
        <ele>327</ele>
        <time>2022-05-21 06:26:10</time>
      </trkpt>
      <trkpt lat="42.05603" lon="2.54949">
        <ele>327</ele>
        <time>2022-05-21 06:26:11</time>
      </trkpt>
      <trkpt lat="42.05606" lon="2.54958">
        <ele>327.2</ele>
        <time>2022-05-21 06:26:12</time>
      </trkpt>
      <trkpt lat="42.05609" lon="2.54968">
        <ele>327.2</ele>
        <time>2022-05-21 06:26:13</time>
      </trkpt>
      <trkpt lat="42.05612" lon="2.54977">
        <ele>327.2</ele>
        <time>2022-05-21 06:26:14</time>
      </trkpt>
      <trkpt lat="42.05615" lon="2.54988">
        <ele>327.2</ele>
        <time>2022-05-21 06:26:15</time>
      </trkpt>
      <trkpt lat="42.05617" lon="2.54998">
        <ele>327</ele>
        <time>2022-05-21 06:26:16</time>
      </trkpt>
      <trkpt lat="42.05619" lon="2.55009">
        <ele>326.8</ele>
        <time>2022-05-21 06:26:17</time>
      </trkpt>
      <trkpt lat="42.05622" lon="2.55018">
        <ele>326.6</ele>
        <time>2022-05-21 06:26:18</time>
      </trkpt>
      <trkpt lat="42.05624" lon="2.55031">
        <ele>326.2</ele>
        <time>2022-05-21 06:26:19</time>
      </trkpt>
      <trkpt lat="42.05624" lon="2.55042">
        <ele>325.8</ele>
        <time>2022-05-21 06:26:20</time>
      </trkpt>
      <trkpt lat="42.05624" lon="2.55056">
        <ele>325.2</ele>
        <time>2022-05-21 06:26:21</time>
      </trkpt>
      <trkpt lat="42.05624" lon="2.55068">
        <ele>324.8</ele>
        <time>2022-05-21 06:26:22</time>
      </trkpt>
      <trkpt lat="42.05623" lon="2.55081">
        <ele>324.2</ele>
        <time>2022-05-21 06:26:23</time>
      </trkpt>
      <trkpt lat="42.05623" lon="2.55096">
        <ele>323.6</ele>
        <time>2022-05-21 06:26:24</time>
      </trkpt>
      <trkpt lat="42.05622" lon="2.55109">
        <ele>323</ele>
        <time>2022-05-21 06:26:25</time>
      </trkpt>
      <trkpt lat="42.05622" lon="2.55124">
        <ele>322.6</ele>
        <time>2022-05-21 06:26:26</time>
      </trkpt>
      <trkpt lat="42.05622" lon="2.55137">
        <ele>322</ele>
        <time>2022-05-21 06:26:27</time>
      </trkpt>
      <trkpt lat="42.05623" lon="2.55151">
        <ele>321.4</ele>
        <time>2022-05-21 06:26:28</time>
      </trkpt>
      <trkpt lat="42.05623" lon="2.55165">
        <ele>321</ele>
        <time>2022-05-21 06:26:29</time>
      </trkpt>
      <trkpt lat="42.05624" lon="2.55179">
        <ele>320.4</ele>
        <time>2022-05-21 06:26:30</time>
      </trkpt>
      <trkpt lat="42.05624" lon="2.55191">
        <ele>320.2</ele>
        <time>2022-05-21 06:26:31</time>
      </trkpt>
      <trkpt lat="42.05624" lon="2.55204">
        <ele>319.8</ele>
        <time>2022-05-21 06:26:32</time>
      </trkpt>
      <trkpt lat="42.05624" lon="2.55215">
        <ele>319.6</ele>
        <time>2022-05-21 06:26:33</time>
      </trkpt>
      <trkpt lat="42.05624" lon="2.5523">
        <ele>319.4</ele>
        <time>2022-05-21 06:26:34</time>
      </trkpt>
      <trkpt lat="42.05624" lon="2.55242">
        <ele>319.4</ele>
        <time>2022-05-21 06:26:35</time>
      </trkpt>
      <trkpt lat="42.05624" lon="2.55253">
        <ele>319.4</ele>
        <time>2022-05-21 06:26:36</time>
      </trkpt>
      <trkpt lat="42.05624" lon="2.55263">
        <ele>319.2</ele>
        <time>2022-05-21 06:26:37</time>
      </trkpt>
      <trkpt lat="42.05625" lon="2.55275">
        <ele>319.2</ele>
        <time>2022-05-21 06:26:38</time>
      </trkpt>
      <trkpt lat="42.05625" lon="2.55287">
        <ele>319.2</ele>
        <time>2022-05-21 06:26:39</time>
      </trkpt>
      <trkpt lat="42.05625" lon="2.55298">
        <ele>319.2</ele>
        <time>2022-05-21 06:26:40</time>
      </trkpt>
      <trkpt lat="42.05625" lon="2.55308">
        <ele>319.4</ele>
        <time>2022-05-21 06:26:41</time>
      </trkpt>
      <trkpt lat="42.05625" lon="2.55319">
        <ele>319.4</ele>
        <time>2022-05-21 06:26:42</time>
      </trkpt>
      <trkpt lat="42.05625" lon="2.55329">
        <ele>319.4</ele>
        <time>2022-05-21 06:26:43</time>
      </trkpt>
      <trkpt lat="42.05625" lon="2.55339">
        <ele>319.4</ele>
        <time>2022-05-21 06:26:44</time>
      </trkpt>
      <trkpt lat="42.05625" lon="2.55349">
        <ele>319.4</ele>
        <time>2022-05-21 06:26:45</time>
      </trkpt>
      <trkpt lat="42.05625" lon="2.5536">
        <ele>319.4</ele>
        <time>2022-05-21 06:26:46</time>
      </trkpt>
      <trkpt lat="42.05626" lon="2.5537">
        <ele>319.4</ele>
        <time>2022-05-21 06:26:47</time>
      </trkpt>
      <trkpt lat="42.05626" lon="2.5538">
        <ele>319.4</ele>
        <time>2022-05-21 06:26:48</time>
      </trkpt>
      <trkpt lat="42.05626" lon="2.55389">
        <ele>319.4</ele>
        <time>2022-05-21 06:26:49</time>
      </trkpt>
      <trkpt lat="42.05626" lon="2.55398">
        <ele>319.6</ele>
        <time>2022-05-21 06:26:50</time>
      </trkpt>
      <trkpt lat="42.05627" lon="2.55406">
        <ele>319.6</ele>
        <time>2022-05-21 06:26:51</time>
      </trkpt>
      <trkpt lat="42.05628" lon="2.55417">
        <ele>319.6</ele>
        <time>2022-05-21 06:26:52</time>
      </trkpt>
      <trkpt lat="42.0563" lon="2.55425">
        <ele>319.6</ele>
        <time>2022-05-21 06:26:53</time>
      </trkpt>
      <trkpt lat="42.05634" lon="2.55433">
        <ele>319.8</ele>
        <time>2022-05-21 06:26:54</time>
      </trkpt>
      <trkpt lat="42.05639" lon="2.55438">
        <ele>319.8</ele>
        <time>2022-05-21 06:26:55</time>
      </trkpt>
      <trkpt lat="42.05645" lon="2.55442">
        <ele>319.8</ele>
        <time>2022-05-21 06:26:56</time>
      </trkpt>
      <trkpt lat="42.05651" lon="2.55444">
        <ele>320</ele>
        <time>2022-05-21 06:26:57</time>
      </trkpt>
      <trkpt lat="42.05659" lon="2.55444">
        <ele>320.2</ele>
        <time>2022-05-21 06:26:58</time>
      </trkpt>
      <trkpt lat="42.05665" lon="2.55442">
        <ele>320.4</ele>
        <time>2022-05-21 06:26:59</time>
      </trkpt>
      <trkpt lat="42.05671" lon="2.55439">
        <ele>320.6</ele>
        <time>2022-05-21 06:27:00</time>
      </trkpt>
      <trkpt lat="42.05676" lon="2.55437">
        <ele>320.8</ele>
        <time>2022-05-21 06:27:01</time>
      </trkpt>
      <trkpt lat="42.0568" lon="2.55435">
        <ele>321.2</ele>
        <time>2022-05-21 06:27:02</time>
      </trkpt>
      <trkpt lat="42.05685" lon="2.55434">
        <ele>321.4</ele>
        <time>2022-05-21 06:27:03</time>
      </trkpt>
      <trkpt lat="42.05689" lon="2.55434">
        <ele>321.6</ele>
        <time>2022-05-21 06:27:04</time>
      </trkpt>
      <trkpt lat="42.05693" lon="2.55434">
        <ele>322</ele>
        <time>2022-05-21 06:27:05</time>
      </trkpt>
      <trkpt lat="42.05697" lon="2.55435">
        <ele>322.4</ele>
        <time>2022-05-21 06:27:06</time>
      </trkpt>
      <trkpt lat="42.057" lon="2.55437">
        <ele>322.8</ele>
        <time>2022-05-21 06:27:07</time>
      </trkpt>
      <trkpt lat="42.05701" lon="2.55438">
        <ele>323</ele>
        <time>2022-05-21 06:27:08</time>
      </trkpt>
      <trkpt lat="42.05706" lon="2.55442">
        <ele>323.4</ele>
        <time>2022-05-21 06:27:09</time>
      </trkpt>
      <trkpt lat="42.0571" lon="2.55445">
        <ele>323.6</ele>
        <time>2022-05-21 06:27:10</time>
      </trkpt>
      <trkpt lat="42.05713" lon="2.55448">
        <ele>323.8</ele>
        <time>2022-05-21 06:27:11</time>
      </trkpt>
      <trkpt lat="42.05716" lon="2.55451">
        <ele>324</ele>
        <time>2022-05-21 06:27:12</time>
      </trkpt>
      <trkpt lat="42.05719" lon="2.55453">
        <ele>324.4</ele>
        <time>2022-05-21 06:27:13</time>
      </trkpt>
      <trkpt lat="42.05722" lon="2.55456">
        <ele>324.6</ele>
        <time>2022-05-21 06:27:14</time>
      </trkpt>
      <trkpt lat="42.05724" lon="2.55459">
        <ele>324.8</ele>
        <time>2022-05-21 06:27:15</time>
      </trkpt>
      <trkpt lat="42.05727" lon="2.55463">
        <ele>325</ele>
        <time>2022-05-21 06:27:16</time>
      </trkpt>
      <trkpt lat="42.0573" lon="2.55466">
        <ele>325.2</ele>
        <time>2022-05-21 06:27:17</time>
      </trkpt>
      <trkpt lat="42.05733" lon="2.5547">
        <ele>325.6</ele>
        <time>2022-05-21 06:27:18</time>
      </trkpt>
      <trkpt lat="42.05736" lon="2.55473">
        <ele>325.8</ele>
        <time>2022-05-21 06:27:19</time>
      </trkpt>
      <trkpt lat="42.05739" lon="2.55476">
        <ele>326</ele>
        <time>2022-05-21 06:27:20</time>
      </trkpt>
      <trkpt lat="42.05742" lon="2.55479">
        <ele>326.2</ele>
        <time>2022-05-21 06:27:21</time>
      </trkpt>
      <trkpt lat="42.05744" lon="2.55482">
        <ele>326.4</ele>
        <time>2022-05-21 06:27:22</time>
      </trkpt>
      <trkpt lat="42.05747" lon="2.55485">
        <ele>326.4</ele>
        <time>2022-05-21 06:27:23</time>
      </trkpt>
      <trkpt lat="42.0575" lon="2.55488">
        <ele>326.6</ele>
        <time>2022-05-21 06:27:24</time>
      </trkpt>
      <trkpt lat="42.05753" lon="2.55491">
        <ele>327</ele>
        <time>2022-05-21 06:27:25</time>
      </trkpt>
      <trkpt lat="42.05755" lon="2.55494">
        <ele>327</ele>
        <time>2022-05-21 06:27:26</time>
      </trkpt>
      <trkpt lat="42.05758" lon="2.55497">
        <ele>327.2</ele>
        <time>2022-05-21 06:27:27</time>
      </trkpt>
      <trkpt lat="42.05761" lon="2.555">
        <ele>327.4</ele>
        <time>2022-05-21 06:27:28</time>
      </trkpt>
      <trkpt lat="42.05764" lon="2.55503">
        <ele>327.6</ele>
        <time>2022-05-21 06:27:29</time>
      </trkpt>
      <trkpt lat="42.05766" lon="2.55506">
        <ele>327.8</ele>
        <time>2022-05-21 06:27:30</time>
      </trkpt>
      <trkpt lat="42.05769" lon="2.55509">
        <ele>328</ele>
        <time>2022-05-21 06:27:31</time>
      </trkpt>
      <trkpt lat="42.05772" lon="2.55512">
        <ele>328.2</ele>
        <time>2022-05-21 06:27:32</time>
      </trkpt>
      <trkpt lat="42.05775" lon="2.55514">
        <ele>328.4</ele>
        <time>2022-05-21 06:27:33</time>
      </trkpt>
      <trkpt lat="42.05778" lon="2.55518">
        <ele>328.6</ele>
        <time>2022-05-21 06:27:34</time>
      </trkpt>
      <trkpt lat="42.05781" lon="2.55521">
        <ele>328.8</ele>
        <time>2022-05-21 06:27:35</time>
      </trkpt>
      <trkpt lat="42.05783" lon="2.55523">
        <ele>329</ele>
        <time>2022-05-21 06:27:36</time>
      </trkpt>
      <trkpt lat="42.05787" lon="2.55526">
        <ele>329.2</ele>
        <time>2022-05-21 06:27:37</time>
      </trkpt>
      <trkpt lat="42.0579" lon="2.55528">
        <ele>329.4</ele>
        <time>2022-05-21 06:27:38</time>
      </trkpt>
      <trkpt lat="42.05792" lon="2.55531">
        <ele>329.6</ele>
        <time>2022-05-21 06:27:39</time>
      </trkpt>
      <trkpt lat="42.05796" lon="2.55534">
        <ele>329.8</ele>
        <time>2022-05-21 06:27:40</time>
      </trkpt>
      <trkpt lat="42.05799" lon="2.55536">
        <ele>330.2</ele>
        <time>2022-05-21 06:27:41</time>
      </trkpt>
      <trkpt lat="42.05802" lon="2.55537">
        <ele>330.4</ele>
        <time>2022-05-21 06:27:42</time>
      </trkpt>
      <trkpt lat="42.05806" lon="2.55539">
        <ele>330.6</ele>
        <time>2022-05-21 06:27:43</time>
      </trkpt>
      <trkpt lat="42.05809" lon="2.55538">
        <ele>330.8</ele>
        <time>2022-05-21 06:27:44</time>
      </trkpt>
      <trkpt lat="42.05813" lon="2.55538">
        <ele>331</ele>
        <time>2022-05-21 06:27:45</time>
      </trkpt>
      <trkpt lat="42.05816" lon="2.55538">
        <ele>331.2</ele>
        <time>2022-05-21 06:27:46</time>
      </trkpt>
      <trkpt lat="42.0582" lon="2.55538">
        <ele>331.4</ele>
        <time>2022-05-21 06:27:47</time>
      </trkpt>
      <trkpt lat="42.05823" lon="2.55537">
        <ele>331.6</ele>
        <time>2022-05-21 06:27:48</time>
      </trkpt>
      <trkpt lat="42.05826" lon="2.55536">
        <ele>331.8</ele>
        <time>2022-05-21 06:27:49</time>
      </trkpt>
      <trkpt lat="42.05829" lon="2.55534">
        <ele>332</ele>
        <time>2022-05-21 06:27:50</time>
      </trkpt>
      <trkpt lat="42.05832" lon="2.55533">
        <ele>332.2</ele>
        <time>2022-05-21 06:27:51</time>
      </trkpt>
      <trkpt lat="42.05835" lon="2.55532">
        <ele>332.4</ele>
        <time>2022-05-21 06:27:52</time>
      </trkpt>
      <trkpt lat="42.05838" lon="2.55531">
        <ele>332.6</ele>
        <time>2022-05-21 06:27:53</time>
      </trkpt>
      <trkpt lat="42.05841" lon="2.5553">
        <ele>332.8</ele>
        <time>2022-05-21 06:27:54</time>
      </trkpt>
      <trkpt lat="42.05845" lon="2.55529">
        <ele>333</ele>
        <time>2022-05-21 06:27:55</time>
      </trkpt>
      <trkpt lat="42.05848" lon="2.55528">
        <ele>333.2</ele>
        <time>2022-05-21 06:27:56</time>
      </trkpt>
      <trkpt lat="42.05851" lon="2.55527">
        <ele>333.4</ele>
        <time>2022-05-21 06:27:57</time>
      </trkpt>
      <trkpt lat="42.05854" lon="2.55526">
        <ele>333.6</ele>
        <time>2022-05-21 06:27:58</time>
      </trkpt>
      <trkpt lat="42.05857" lon="2.55525">
        <ele>333.8</ele>
        <time>2022-05-21 06:27:59</time>
      </trkpt>
      <trkpt lat="42.0586" lon="2.55524">
        <ele>334</ele>
        <time>2022-05-21 06:28:00</time>
      </trkpt>
      <trkpt lat="42.05863" lon="2.55522">
        <ele>334.2</ele>
        <time>2022-05-21 06:28:01</time>
      </trkpt>
      <trkpt lat="42.05865" lon="2.55521">
        <ele>334.4</ele>
        <time>2022-05-21 06:28:02</time>
      </trkpt>
      <trkpt lat="42.05868" lon="2.55521">
        <ele>334.6</ele>
        <time>2022-05-21 06:28:03</time>
      </trkpt>
      <trkpt lat="42.05872" lon="2.5552">
        <ele>334.8</ele>
        <time>2022-05-21 06:28:04</time>
      </trkpt>
      <trkpt lat="42.05875" lon="2.55519">
        <ele>335</ele>
        <time>2022-05-21 06:28:05</time>
      </trkpt>
      <trkpt lat="42.05877" lon="2.55518">
        <ele>335.2</ele>
        <time>2022-05-21 06:28:06</time>
      </trkpt>
      <trkpt lat="42.05881" lon="2.55517">
        <ele>335.4</ele>
        <time>2022-05-21 06:28:07</time>
      </trkpt>
      <trkpt lat="42.05884" lon="2.55516">
        <ele>335.6</ele>
        <time>2022-05-21 06:28:08</time>
      </trkpt>
      <trkpt lat="42.05887" lon="2.55515">
        <ele>335.8</ele>
        <time>2022-05-21 06:28:09</time>
      </trkpt>
      <trkpt lat="42.0589" lon="2.55514">
        <ele>335.8</ele>
        <time>2022-05-21 06:28:10</time>
      </trkpt>
      <trkpt lat="42.05893" lon="2.55513">
        <ele>336</ele>
        <time>2022-05-21 06:28:11</time>
      </trkpt>
      <trkpt lat="42.05897" lon="2.55513">
        <ele>336.2</ele>
        <time>2022-05-21 06:28:12</time>
      </trkpt>
      <trkpt lat="42.05899" lon="2.55513">
        <ele>336.4</ele>
        <time>2022-05-21 06:28:13</time>
      </trkpt>
      <trkpt lat="42.05903" lon="2.55513">
        <ele>336.6</ele>
        <time>2022-05-21 06:28:14</time>
      </trkpt>
      <trkpt lat="42.05906" lon="2.55514">
        <ele>336.8</ele>
        <time>2022-05-21 06:28:15</time>
      </trkpt>
      <trkpt lat="42.05909" lon="2.55515">
        <ele>337</ele>
        <time>2022-05-21 06:28:16</time>
      </trkpt>
      <trkpt lat="42.05912" lon="2.55516">
        <ele>337</ele>
        <time>2022-05-21 06:28:17</time>
      </trkpt>
      <trkpt lat="42.05915" lon="2.55517">
        <ele>337.2</ele>
        <time>2022-05-21 06:28:18</time>
      </trkpt>
      <trkpt lat="42.05919" lon="2.55519">
        <ele>337.4</ele>
        <time>2022-05-21 06:28:19</time>
      </trkpt>
      <trkpt lat="42.05921" lon="2.55521">
        <ele>337.6</ele>
        <time>2022-05-21 06:28:20</time>
      </trkpt>
      <trkpt lat="42.05924" lon="2.55523">
        <ele>337.8</ele>
        <time>2022-05-21 06:28:21</time>
      </trkpt>
      <trkpt lat="42.05927" lon="2.55525">
        <ele>338</ele>
        <time>2022-05-21 06:28:22</time>
      </trkpt>
      <trkpt lat="42.0593" lon="2.55528">
        <ele>338.2</ele>
        <time>2022-05-21 06:28:23</time>
      </trkpt>
      <trkpt lat="42.05932" lon="2.5553">
        <ele>338.4</ele>
        <time>2022-05-21 06:28:24</time>
      </trkpt>
      <trkpt lat="42.05934" lon="2.55533">
        <ele>338.6</ele>
        <time>2022-05-21 06:28:25</time>
      </trkpt>
      <trkpt lat="42.05936" lon="2.55536">
        <ele>338.8</ele>
        <time>2022-05-21 06:28:26</time>
      </trkpt>
      <trkpt lat="42.05938" lon="2.5554">
        <ele>339</ele>
        <time>2022-05-21 06:28:27</time>
      </trkpt>
      <trkpt lat="42.0594" lon="2.55543">
        <ele>339.2</ele>
        <time>2022-05-21 06:28:28</time>
      </trkpt>
      <trkpt lat="42.05942" lon="2.55547">
        <ele>339.4</ele>
        <time>2022-05-21 06:28:29</time>
      </trkpt>
      <trkpt lat="42.05943" lon="2.55551">
        <ele>339.4</ele>
        <time>2022-05-21 06:28:30</time>
      </trkpt>
      <trkpt lat="42.05944" lon="2.55555">
        <ele>339.6</ele>
        <time>2022-05-21 06:28:31</time>
      </trkpt>
      <trkpt lat="42.05946" lon="2.55559">
        <ele>339.8</ele>
        <time>2022-05-21 06:28:32</time>
      </trkpt>
      <trkpt lat="42.05946" lon="2.55563">
        <ele>340</ele>
        <time>2022-05-21 06:28:33</time>
      </trkpt>
      <trkpt lat="42.05947" lon="2.55568">
        <ele>340.2</ele>
        <time>2022-05-21 06:28:34</time>
      </trkpt>
      <trkpt lat="42.05947" lon="2.55572">
        <ele>340.4</ele>
        <time>2022-05-21 06:28:35</time>
      </trkpt>
      <trkpt lat="42.05948" lon="2.55576">
        <ele>340.6</ele>
        <time>2022-05-21 06:28:36</time>
      </trkpt>
      <trkpt lat="42.05949" lon="2.55581">
        <ele>340.8</ele>
        <time>2022-05-21 06:28:37</time>
      </trkpt>
      <trkpt lat="42.05949" lon="2.55586">
        <ele>340.8</ele>
        <time>2022-05-21 06:28:38</time>
      </trkpt>
      <trkpt lat="42.05949" lon="2.5559">
        <ele>341</ele>
        <time>2022-05-21 06:28:39</time>
      </trkpt>
      <trkpt lat="42.0595" lon="2.55595">
        <ele>341.2</ele>
        <time>2022-05-21 06:28:40</time>
      </trkpt>
      <trkpt lat="42.0595" lon="2.55599">
        <ele>341.4</ele>
        <time>2022-05-21 06:28:41</time>
      </trkpt>
      <trkpt lat="42.05951" lon="2.55604">
        <ele>341.6</ele>
        <time>2022-05-21 06:28:42</time>
      </trkpt>
      <trkpt lat="42.05952" lon="2.55608">
        <ele>341.8</ele>
        <time>2022-05-21 06:28:43</time>
      </trkpt>
      <trkpt lat="42.05954" lon="2.55612">
        <ele>341.8</ele>
        <time>2022-05-21 06:28:44</time>
      </trkpt>
      <trkpt lat="42.05955" lon="2.55615">
        <ele>342</ele>
        <time>2022-05-21 06:28:45</time>
      </trkpt>
      <trkpt lat="42.05957" lon="2.55619">
        <ele>342.2</ele>
        <time>2022-05-21 06:28:46</time>
      </trkpt>
      <trkpt lat="42.05959" lon="2.55623">
        <ele>342.4</ele>
        <time>2022-05-21 06:28:47</time>
      </trkpt>
      <trkpt lat="42.05961" lon="2.55626">
        <ele>342.6</ele>
        <time>2022-05-21 06:28:48</time>
      </trkpt>
      <trkpt lat="42.05963" lon="2.55629">
        <ele>342.8</ele>
        <time>2022-05-21 06:28:49</time>
      </trkpt>
      <trkpt lat="42.05965" lon="2.55631">
        <ele>342.8</ele>
        <time>2022-05-21 06:28:50</time>
      </trkpt>
      <trkpt lat="42.05967" lon="2.55634">
        <ele>343</ele>
        <time>2022-05-21 06:28:51</time>
      </trkpt>
      <trkpt lat="42.05969" lon="2.55637">
        <ele>343.2</ele>
        <time>2022-05-21 06:28:52</time>
      </trkpt>
      <trkpt lat="42.05972" lon="2.5564">
        <ele>343.4</ele>
        <time>2022-05-21 06:28:53</time>
      </trkpt>
      <trkpt lat="42.05974" lon="2.55643">
        <ele>343.4</ele>
        <time>2022-05-21 06:28:54</time>
      </trkpt>
      <trkpt lat="42.05976" lon="2.55646">
        <ele>343.6</ele>
        <time>2022-05-21 06:28:55</time>
      </trkpt>
      <trkpt lat="42.05979" lon="2.55649">
        <ele>343.8</ele>
        <time>2022-05-21 06:28:56</time>
      </trkpt>
      <trkpt lat="42.05981" lon="2.55652">
        <ele>344</ele>
        <time>2022-05-21 06:28:57</time>
      </trkpt>
      <trkpt lat="42.05983" lon="2.55656">
        <ele>344.2</ele>
        <time>2022-05-21 06:28:58</time>
      </trkpt>
      <trkpt lat="42.05986" lon="2.55659">
        <ele>344.4</ele>
        <time>2022-05-21 06:28:59</time>
      </trkpt>
      <trkpt lat="42.05988" lon="2.55663">
        <ele>344.4</ele>
        <time>2022-05-21 06:29:00</time>
      </trkpt>
      <trkpt lat="42.05991" lon="2.55666">
        <ele>344.6</ele>
        <time>2022-05-21 06:29:01</time>
      </trkpt>
      <trkpt lat="42.05994" lon="2.55668">
        <ele>344.8</ele>
        <time>2022-05-21 06:29:02</time>
      </trkpt>
      <trkpt lat="42.05997" lon="2.55671">
        <ele>345</ele>
        <time>2022-05-21 06:29:03</time>
      </trkpt>
      <trkpt lat="42.06" lon="2.55672">
        <ele>345</ele>
        <time>2022-05-21 06:29:04</time>
      </trkpt>
      <trkpt lat="42.06004" lon="2.55674">
        <ele>345.2</ele>
        <time>2022-05-21 06:29:05</time>
      </trkpt>
      <trkpt lat="42.06008" lon="2.55676">
        <ele>345.4</ele>
        <time>2022-05-21 06:29:06</time>
      </trkpt>
      <trkpt lat="42.06012" lon="2.55678">
        <ele>345.4</ele>
        <time>2022-05-21 06:29:07</time>
      </trkpt>
      <trkpt lat="42.06016" lon="2.55679">
        <ele>345.6</ele>
        <time>2022-05-21 06:29:08</time>
      </trkpt>
      <trkpt lat="42.06019" lon="2.5568">
        <ele>345.8</ele>
        <time>2022-05-21 06:29:09</time>
      </trkpt>
      <trkpt lat="42.06023" lon="2.55681">
        <ele>345.8</ele>
        <time>2022-05-21 06:29:10</time>
      </trkpt>
      <trkpt lat="42.06027" lon="2.55682">
        <ele>346</ele>
        <time>2022-05-21 06:29:11</time>
      </trkpt>
      <trkpt lat="42.0603" lon="2.55683">
        <ele>346.2</ele>
        <time>2022-05-21 06:29:12</time>
      </trkpt>
      <trkpt lat="42.06034" lon="2.55683">
        <ele>346.4</ele>
        <time>2022-05-21 06:29:13</time>
      </trkpt>
      <trkpt lat="42.06038" lon="2.55684">
        <ele>346.6</ele>
        <time>2022-05-21 06:29:14</time>
      </trkpt>
      <trkpt lat="42.06041" lon="2.55685">
        <ele>346.6</ele>
        <time>2022-05-21 06:29:15</time>
      </trkpt>
      <trkpt lat="42.06044" lon="2.55686">
        <ele>346.8</ele>
        <time>2022-05-21 06:29:16</time>
      </trkpt>
      <trkpt lat="42.06048" lon="2.55688">
        <ele>347</ele>
        <time>2022-05-21 06:29:17</time>
      </trkpt>
      <trkpt lat="42.06052" lon="2.55689">
        <ele>347.2</ele>
        <time>2022-05-21 06:29:18</time>
      </trkpt>
      <trkpt lat="42.06055" lon="2.55691">
        <ele>347.4</ele>
        <time>2022-05-21 06:29:19</time>
      </trkpt>
      <trkpt lat="42.06058" lon="2.55693">
        <ele>347.6</ele>
        <time>2022-05-21 06:29:20</time>
      </trkpt>
      <trkpt lat="42.0606" lon="2.55696">
        <ele>347.8</ele>
        <time>2022-05-21 06:29:21</time>
      </trkpt>
      <trkpt lat="42.06063" lon="2.55698">
        <ele>348</ele>
        <time>2022-05-21 06:29:22</time>
      </trkpt>
      <trkpt lat="42.06067" lon="2.557">
        <ele>348.2</ele>
        <time>2022-05-21 06:29:23</time>
      </trkpt>
      <trkpt lat="42.0607" lon="2.55703">
        <ele>348.4</ele>
        <time>2022-05-21 06:29:24</time>
      </trkpt>
      <trkpt lat="42.06073" lon="2.55705">
        <ele>348.4</ele>
        <time>2022-05-21 06:29:25</time>
      </trkpt>
      <trkpt lat="42.06076" lon="2.55707">
        <ele>348.6</ele>
        <time>2022-05-21 06:29:26</time>
      </trkpt>
      <trkpt lat="42.06078" lon="2.5571">
        <ele>348.8</ele>
        <time>2022-05-21 06:29:27</time>
      </trkpt>
      <trkpt lat="42.06081" lon="2.55713">
        <ele>349</ele>
        <time>2022-05-21 06:29:28</time>
      </trkpt>
      <trkpt lat="42.06083" lon="2.55715">
        <ele>349.2</ele>
        <time>2022-05-21 06:29:29</time>
      </trkpt>
      <trkpt lat="42.06086" lon="2.55718">
        <ele>349.4</ele>
        <time>2022-05-21 06:29:30</time>
      </trkpt>
      <trkpt lat="42.06088" lon="2.5572">
        <ele>349.6</ele>
        <time>2022-05-21 06:29:31</time>
      </trkpt>
      <trkpt lat="42.06091" lon="2.55722">
        <ele>349.8</ele>
        <time>2022-05-21 06:29:32</time>
      </trkpt>
      <trkpt lat="42.06093" lon="2.55724">
        <ele>349.8</ele>
        <time>2022-05-21 06:29:33</time>
      </trkpt>
      <trkpt lat="42.06095" lon="2.55727">
        <ele>350</ele>
        <time>2022-05-21 06:29:34</time>
      </trkpt>
      <trkpt lat="42.06098" lon="2.55729">
        <ele>350.2</ele>
        <time>2022-05-21 06:29:35</time>
      </trkpt>
      <trkpt lat="42.06101" lon="2.55732">
        <ele>350.4</ele>
        <time>2022-05-21 06:29:36</time>
      </trkpt>
      <trkpt lat="42.06104" lon="2.55735">
        <ele>350.6</ele>
        <time>2022-05-21 06:29:37</time>
      </trkpt>
      <trkpt lat="42.06106" lon="2.55738">
        <ele>350.8</ele>
        <time>2022-05-21 06:29:38</time>
      </trkpt>
      <trkpt lat="42.06108" lon="2.55741">
        <ele>350.8</ele>
        <time>2022-05-21 06:29:39</time>
      </trkpt>
      <trkpt lat="42.0611" lon="2.55745">
        <ele>351</ele>
        <time>2022-05-21 06:29:40</time>
      </trkpt>
      <trkpt lat="42.06113" lon="2.55748">
        <ele>351.2</ele>
        <time>2022-05-21 06:29:41</time>
      </trkpt>
      <trkpt lat="42.06115" lon="2.55751">
        <ele>351.2</ele>
        <time>2022-05-21 06:29:42</time>
      </trkpt>
      <trkpt lat="42.06118" lon="2.55755">
        <ele>351.4</ele>
        <time>2022-05-21 06:29:43</time>
      </trkpt>
      <trkpt lat="42.0612" lon="2.55758">
        <ele>351.6</ele>
        <time>2022-05-21 06:29:44</time>
      </trkpt>
      <trkpt lat="42.06122" lon="2.55762">
        <ele>351.6</ele>
        <time>2022-05-21 06:29:45</time>
      </trkpt>
      <trkpt lat="42.06124" lon="2.55765">
        <ele>351.8</ele>
        <time>2022-05-21 06:29:46</time>
      </trkpt>
      <trkpt lat="42.06127" lon="2.55768">
        <ele>352</ele>
        <time>2022-05-21 06:29:47</time>
      </trkpt>
      <trkpt lat="42.0613" lon="2.55772">
        <ele>352.2</ele>
        <time>2022-05-21 06:29:48</time>
      </trkpt>
      <trkpt lat="42.06132" lon="2.55776">
        <ele>352.4</ele>
        <time>2022-05-21 06:29:49</time>
      </trkpt>
      <trkpt lat="42.06134" lon="2.55779">
        <ele>352.6</ele>
        <time>2022-05-21 06:29:50</time>
      </trkpt>
      <trkpt lat="42.06137" lon="2.55783">
        <ele>352.8</ele>
        <time>2022-05-21 06:29:51</time>
      </trkpt>
      <trkpt lat="42.06141" lon="2.55786">
        <ele>352.8</ele>
        <time>2022-05-21 06:29:52</time>
      </trkpt>
      <trkpt lat="42.06144" lon="2.5579">
        <ele>353</ele>
        <time>2022-05-21 06:29:53</time>
      </trkpt>
      <trkpt lat="42.06146" lon="2.55794">
        <ele>353.2</ele>
        <time>2022-05-21 06:29:54</time>
      </trkpt>
      <trkpt lat="42.06148" lon="2.55797">
        <ele>353.4</ele>
        <time>2022-05-21 06:29:55</time>
      </trkpt>
      <trkpt lat="42.0615" lon="2.558">
        <ele>353.6</ele>
        <time>2022-05-21 06:29:56</time>
      </trkpt>
      <trkpt lat="42.06152" lon="2.55804">
        <ele>353.8</ele>
        <time>2022-05-21 06:29:57</time>
      </trkpt>
      <trkpt lat="42.06153" lon="2.55808">
        <ele>354</ele>
        <time>2022-05-21 06:29:58</time>
      </trkpt>
      <trkpt lat="42.06155" lon="2.55812">
        <ele>354.2</ele>
        <time>2022-05-21 06:29:59</time>
      </trkpt>
      <trkpt lat="42.06156" lon="2.55817">
        <ele>354.4</ele>
        <time>2022-05-21 06:30:00</time>
      </trkpt>
      <trkpt lat="42.06157" lon="2.55821">
        <ele>354.6</ele>
        <time>2022-05-21 06:30:01</time>
      </trkpt>
      <trkpt lat="42.06158" lon="2.55826">
        <ele>354.8</ele>
        <time>2022-05-21 06:30:02</time>
      </trkpt>
      <trkpt lat="42.06158" lon="2.5583">
        <ele>354.8</ele>
        <time>2022-05-21 06:30:03</time>
      </trkpt>
      <trkpt lat="42.06159" lon="2.55835">
        <ele>355</ele>
        <time>2022-05-21 06:30:04</time>
      </trkpt>
      <trkpt lat="42.0616" lon="2.55839">
        <ele>355.2</ele>
        <time>2022-05-21 06:30:05</time>
      </trkpt>
      <trkpt lat="42.0616" lon="2.55844">
        <ele>355.4</ele>
        <time>2022-05-21 06:30:06</time>
      </trkpt>
      <trkpt lat="42.0616" lon="2.55849">
        <ele>355.6</ele>
        <time>2022-05-21 06:30:07</time>
      </trkpt>
      <trkpt lat="42.0616" lon="2.55853">
        <ele>355.6</ele>
        <time>2022-05-21 06:30:08</time>
      </trkpt>
      <trkpt lat="42.06161" lon="2.55858">
        <ele>355.8</ele>
        <time>2022-05-21 06:30:09</time>
      </trkpt>
      <trkpt lat="42.06161" lon="2.55862">
        <ele>356</ele>
        <time>2022-05-21 06:30:10</time>
      </trkpt>
      <trkpt lat="42.0616" lon="2.55867">
        <ele>356.2</ele>
        <time>2022-05-21 06:30:11</time>
      </trkpt>
      <trkpt lat="42.0616" lon="2.55872">
        <ele>356.4</ele>
        <time>2022-05-21 06:30:12</time>
      </trkpt>
      <trkpt lat="42.0616" lon="2.55876">
        <ele>356.6</ele>
        <time>2022-05-21 06:30:13</time>
      </trkpt>
      <trkpt lat="42.0616" lon="2.55881">
        <ele>356.6</ele>
        <time>2022-05-21 06:30:14</time>
      </trkpt>
      <trkpt lat="42.0616" lon="2.55886">
        <ele>356.8</ele>
        <time>2022-05-21 06:30:15</time>
      </trkpt>
      <trkpt lat="42.0616" lon="2.5589">
        <ele>357</ele>
        <time>2022-05-21 06:30:16</time>
      </trkpt>
      <trkpt lat="42.06161" lon="2.55894">
        <ele>357.2</ele>
        <time>2022-05-21 06:30:17</time>
      </trkpt>
      <trkpt lat="42.06162" lon="2.55898">
        <ele>357.4</ele>
        <time>2022-05-21 06:30:18</time>
      </trkpt>
      <trkpt lat="42.06163" lon="2.55902">
        <ele>357.6</ele>
        <time>2022-05-21 06:30:19</time>
      </trkpt>
      <trkpt lat="42.06164" lon="2.55906">
        <ele>357.8</ele>
        <time>2022-05-21 06:30:20</time>
      </trkpt>
      <trkpt lat="42.06165" lon="2.5591">
        <ele>358</ele>
        <time>2022-05-21 06:30:21</time>
      </trkpt>
      <trkpt lat="42.06166" lon="2.55914">
        <ele>358.2</ele>
        <time>2022-05-21 06:30:22</time>
      </trkpt>
      <trkpt lat="42.06166" lon="2.55918">
        <ele>358.4</ele>
        <time>2022-05-21 06:30:23</time>
      </trkpt>
      <trkpt lat="42.06167" lon="2.55923">
        <ele>358.6</ele>
        <time>2022-05-21 06:30:24</time>
      </trkpt>
      <trkpt lat="42.06168" lon="2.55927">
        <ele>358.8</ele>
        <time>2022-05-21 06:30:25</time>
      </trkpt>
      <trkpt lat="42.0617" lon="2.55931">
        <ele>359</ele>
        <time>2022-05-21 06:30:26</time>
      </trkpt>
      <trkpt lat="42.06171" lon="2.55936">
        <ele>359.2</ele>
        <time>2022-05-21 06:30:27</time>
      </trkpt>
      <trkpt lat="42.06172" lon="2.5594">
        <ele>359.4</ele>
        <time>2022-05-21 06:30:28</time>
      </trkpt>
      <trkpt lat="42.06173" lon="2.55944">
        <ele>359.6</ele>
        <time>2022-05-21 06:30:29</time>
      </trkpt>
      <trkpt lat="42.06173" lon="2.55948">
        <ele>359.6</ele>
        <time>2022-05-21 06:30:30</time>
      </trkpt>
      <trkpt lat="42.06175" lon="2.55951">
        <ele>359.8</ele>
        <time>2022-05-21 06:30:31</time>
      </trkpt>
      <trkpt lat="42.06176" lon="2.55955">
        <ele>360</ele>
        <time>2022-05-21 06:30:32</time>
      </trkpt>
      <trkpt lat="42.06179" lon="2.55958">
        <ele>360.2</ele>
        <time>2022-05-21 06:30:33</time>
      </trkpt>
      <trkpt lat="42.06181" lon="2.55961">
        <ele>360.4</ele>
        <time>2022-05-21 06:30:34</time>
      </trkpt>
      <trkpt lat="42.06183" lon="2.55964">
        <ele>360.4</ele>
        <time>2022-05-21 06:30:35</time>
      </trkpt>
      <trkpt lat="42.06187" lon="2.55966">
        <ele>360.6</ele>
        <time>2022-05-21 06:30:36</time>
      </trkpt>
      <trkpt lat="42.0619" lon="2.55968">
        <ele>360.6</ele>
        <time>2022-05-21 06:30:37</time>
      </trkpt>
      <trkpt lat="42.06194" lon="2.55969">
        <ele>360.8</ele>
        <time>2022-05-21 06:30:38</time>
      </trkpt>
      <trkpt lat="42.06197" lon="2.55969">
        <ele>360.8</ele>
        <time>2022-05-21 06:30:39</time>
      </trkpt>
      <trkpt lat="42.062" lon="2.55968">
        <ele>360.8</ele>
        <time>2022-05-21 06:30:40</time>
      </trkpt>
      <trkpt lat="42.06203" lon="2.55966">
        <ele>360.8</ele>
        <time>2022-05-21 06:30:41</time>
      </trkpt>
      <trkpt lat="42.06207" lon="2.55964">
        <ele>360.8</ele>
        <time>2022-05-21 06:30:42</time>
      </trkpt>
      <trkpt lat="42.0621" lon="2.5596">
        <ele>360.8</ele>
        <time>2022-05-21 06:30:43</time>
      </trkpt>
      <trkpt lat="42.06213" lon="2.55956">
        <ele>361</ele>
        <time>2022-05-21 06:30:44</time>
      </trkpt>
      <trkpt lat="42.06216" lon="2.55953">
        <ele>361.2</ele>
        <time>2022-05-21 06:30:45</time>
      </trkpt>
      <trkpt lat="42.06218" lon="2.5595">
        <ele>361.4</ele>
        <time>2022-05-21 06:30:46</time>
      </trkpt>
      <trkpt lat="42.06221" lon="2.55947">
        <ele>361.6</ele>
        <time>2022-05-21 06:30:47</time>
      </trkpt>
      <trkpt lat="42.06224" lon="2.55943">
        <ele>361.8</ele>
        <time>2022-05-21 06:30:48</time>
      </trkpt>
      <trkpt lat="42.06226" lon="2.55939">
        <ele>361.8</ele>
        <time>2022-05-21 06:30:49</time>
      </trkpt>
      <trkpt lat="42.06229" lon="2.55935">
        <ele>362</ele>
        <time>2022-05-21 06:30:50</time>
      </trkpt>
      <trkpt lat="42.06231" lon="2.55931">
        <ele>362.2</ele>
        <time>2022-05-21 06:30:51</time>
      </trkpt>
      <trkpt lat="42.06233" lon="2.55927">
        <ele>362.4</ele>
        <time>2022-05-21 06:30:52</time>
      </trkpt>
      <trkpt lat="42.06235" lon="2.55924">
        <ele>362.6</ele>
        <time>2022-05-21 06:30:53</time>
      </trkpt>
      <trkpt lat="42.06238" lon="2.5592">
        <ele>362.8</ele>
        <time>2022-05-21 06:30:54</time>
      </trkpt>
      <trkpt lat="42.0624" lon="2.55916">
        <ele>362.8</ele>
        <time>2022-05-21 06:30:55</time>
      </trkpt>
      <trkpt lat="42.06243" lon="2.55912">
        <ele>363</ele>
        <time>2022-05-21 06:30:56</time>
      </trkpt>
      <trkpt lat="42.06245" lon="2.55908">
        <ele>363.2</ele>
        <time>2022-05-21 06:30:57</time>
      </trkpt>
      <trkpt lat="42.06247" lon="2.55904">
        <ele>363.4</ele>
        <time>2022-05-21 06:30:58</time>
      </trkpt>
      <trkpt lat="42.0625" lon="2.559">
        <ele>363.6</ele>
        <time>2022-05-21 06:30:59</time>
      </trkpt>
      <trkpt lat="42.06252" lon="2.55896">
        <ele>363.8</ele>
        <time>2022-05-21 06:31:00</time>
      </trkpt>
      <trkpt lat="42.06254" lon="2.55892">
        <ele>363.8</ele>
        <time>2022-05-21 06:31:01</time>
      </trkpt>
      <trkpt lat="42.06256" lon="2.55888">
        <ele>364</ele>
        <time>2022-05-21 06:31:02</time>
      </trkpt>
      <trkpt lat="42.06258" lon="2.55884">
        <ele>364.2</ele>
        <time>2022-05-21 06:31:03</time>
      </trkpt>
      <trkpt lat="42.06261" lon="2.5588">
        <ele>364.2</ele>
        <time>2022-05-21 06:31:04</time>
      </trkpt>
      <trkpt lat="42.06263" lon="2.55876">
        <ele>364.4</ele>
        <time>2022-05-21 06:31:05</time>
      </trkpt>
      <trkpt lat="42.06265" lon="2.55872">
        <ele>364.6</ele>
        <time>2022-05-21 06:31:06</time>
      </trkpt>
      <trkpt lat="42.06267" lon="2.55868">
        <ele>364.8</ele>
        <time>2022-05-21 06:31:07</time>
      </trkpt>
      <trkpt lat="42.06269" lon="2.55864">
        <ele>365</ele>
        <time>2022-05-21 06:31:08</time>
      </trkpt>
      <trkpt lat="42.06272" lon="2.5586">
        <ele>365</ele>
        <time>2022-05-21 06:31:09</time>
      </trkpt>
      <trkpt lat="42.06274" lon="2.55856">
        <ele>365.2</ele>
        <time>2022-05-21 06:31:10</time>
      </trkpt>
      <trkpt lat="42.06277" lon="2.55853">
        <ele>365.4</ele>
        <time>2022-05-21 06:31:11</time>
      </trkpt>
      <trkpt lat="42.0628" lon="2.55851">
        <ele>365.6</ele>
        <time>2022-05-21 06:31:12</time>
      </trkpt>
      <trkpt lat="42.06283" lon="2.55849">
        <ele>365.8</ele>
        <time>2022-05-21 06:31:13</time>
      </trkpt>
      <trkpt lat="42.06287" lon="2.55848">
        <ele>366</ele>
        <time>2022-05-21 06:31:14</time>
      </trkpt>
      <trkpt lat="42.0629" lon="2.55847">
        <ele>366.2</ele>
        <time>2022-05-21 06:31:15</time>
      </trkpt>
      <trkpt lat="42.06294" lon="2.55846">
        <ele>366.4</ele>
        <time>2022-05-21 06:31:16</time>
      </trkpt>
      <trkpt lat="42.06298" lon="2.55847">
        <ele>366.6</ele>
        <time>2022-05-21 06:31:17</time>
      </trkpt>
      <trkpt lat="42.06301" lon="2.55849">
        <ele>366.8</ele>
        <time>2022-05-21 06:31:18</time>
      </trkpt>
      <trkpt lat="42.06305" lon="2.55851">
        <ele>367</ele>
        <time>2022-05-21 06:31:19</time>
      </trkpt>
      <trkpt lat="42.06308" lon="2.55853">
        <ele>367.2</ele>
        <time>2022-05-21 06:31:20</time>
      </trkpt>
      <trkpt lat="42.06311" lon="2.55856">
        <ele>367.4</ele>
        <time>2022-05-21 06:31:21</time>
      </trkpt>
      <trkpt lat="42.06313" lon="2.5586">
        <ele>367.6</ele>
        <time>2022-05-21 06:31:22</time>
      </trkpt>
      <trkpt lat="42.06315" lon="2.55863">
        <ele>367.8</ele>
        <time>2022-05-21 06:31:23</time>
      </trkpt>
      <trkpt lat="42.06317" lon="2.55867">
        <ele>368</ele>
        <time>2022-05-21 06:31:24</time>
      </trkpt>
      <trkpt lat="42.06318" lon="2.5587">
        <ele>368.2</ele>
        <time>2022-05-21 06:31:25</time>
      </trkpt>
      <trkpt lat="42.0632" lon="2.55874">
        <ele>368.4</ele>
        <time>2022-05-21 06:31:26</time>
      </trkpt>
      <trkpt lat="42.06322" lon="2.55878">
        <ele>368.6</ele>
        <time>2022-05-21 06:31:27</time>
      </trkpt>
      <trkpt lat="42.06323" lon="2.55882">
        <ele>368.8</ele>
        <time>2022-05-21 06:31:28</time>
      </trkpt>
      <trkpt lat="42.06325" lon="2.55886">
        <ele>368.8</ele>
        <time>2022-05-21 06:31:29</time>
      </trkpt>
      <trkpt lat="42.06326" lon="2.5589">
        <ele>369</ele>
        <time>2022-05-21 06:31:30</time>
      </trkpt>
      <trkpt lat="42.06327" lon="2.55894">
        <ele>369.2</ele>
        <time>2022-05-21 06:31:31</time>
      </trkpt>
      <trkpt lat="42.06329" lon="2.55899">
        <ele>369.4</ele>
        <time>2022-05-21 06:31:32</time>
      </trkpt>
      <trkpt lat="42.0633" lon="2.55904">
        <ele>369.6</ele>
        <time>2022-05-21 06:31:33</time>
      </trkpt>
      <trkpt lat="42.06331" lon="2.55908">
        <ele>369.8</ele>
        <time>2022-05-21 06:31:34</time>
      </trkpt>
      <trkpt lat="42.06332" lon="2.55913">
        <ele>369.8</ele>
        <time>2022-05-21 06:31:35</time>
      </trkpt>
      <trkpt lat="42.06332" lon="2.55918">
        <ele>370</ele>
        <time>2022-05-21 06:31:36</time>
      </trkpt>
      <trkpt lat="42.06334" lon="2.55922">
        <ele>370.2</ele>
        <time>2022-05-21 06:31:37</time>
      </trkpt>
      <trkpt lat="42.06334" lon="2.55927">
        <ele>370.4</ele>
        <time>2022-05-21 06:31:38</time>
      </trkpt>
      <trkpt lat="42.06335" lon="2.55931">
        <ele>370.6</ele>
        <time>2022-05-21 06:31:39</time>
      </trkpt>
      <trkpt lat="42.06335" lon="2.55936">
        <ele>370.8</ele>
        <time>2022-05-21 06:31:40</time>
      </trkpt>
      <trkpt lat="42.06336" lon="2.5594">
        <ele>370.8</ele>
        <time>2022-05-21 06:31:41</time>
      </trkpt>
      <trkpt lat="42.06337" lon="2.55944">
        <ele>371</ele>
        <time>2022-05-21 06:31:42</time>
      </trkpt>
      <trkpt lat="42.06337" lon="2.55948">
        <ele>371.2</ele>
        <time>2022-05-21 06:31:43</time>
      </trkpt>
      <trkpt lat="42.06338" lon="2.55953">
        <ele>371.4</ele>
        <time>2022-05-21 06:31:44</time>
      </trkpt>
      <trkpt lat="42.06339" lon="2.55957">
        <ele>371.6</ele>
        <time>2022-05-21 06:31:45</time>
      </trkpt>
      <trkpt lat="42.0634" lon="2.55962">
        <ele>371.6</ele>
        <time>2022-05-21 06:31:46</time>
      </trkpt>
      <trkpt lat="42.0634" lon="2.55966">
        <ele>371.8</ele>
        <time>2022-05-21 06:31:47</time>
      </trkpt>
      <trkpt lat="42.0634" lon="2.55972">
        <ele>372</ele>
        <time>2022-05-21 06:31:48</time>
      </trkpt>
      <trkpt lat="42.0634" lon="2.55976">
        <ele>372.2</ele>
        <time>2022-05-21 06:31:49</time>
      </trkpt>
      <trkpt lat="42.0634" lon="2.55981">
        <ele>372.4</ele>
        <time>2022-05-21 06:31:50</time>
      </trkpt>
      <trkpt lat="42.06339" lon="2.55987">
        <ele>372.6</ele>
        <time>2022-05-21 06:31:51</time>
      </trkpt>
      <trkpt lat="42.06339" lon="2.55992">
        <ele>372.6</ele>
        <time>2022-05-21 06:31:52</time>
      </trkpt>
      <trkpt lat="42.06338" lon="2.55997">
        <ele>372.8</ele>
        <time>2022-05-21 06:31:53</time>
      </trkpt>
      <trkpt lat="42.06337" lon="2.56002">
        <ele>373</ele>
        <time>2022-05-21 06:31:54</time>
      </trkpt>
      <trkpt lat="42.06337" lon="2.56007">
        <ele>373.2</ele>
        <time>2022-05-21 06:31:55</time>
      </trkpt>
      <trkpt lat="42.06336" lon="2.56012">
        <ele>373.4</ele>
        <time>2022-05-21 06:31:56</time>
      </trkpt>
      <trkpt lat="42.06336" lon="2.56017">
        <ele>373.6</ele>
        <time>2022-05-21 06:31:57</time>
      </trkpt>
      <trkpt lat="42.06335" lon="2.56022">
        <ele>373.6</ele>
        <time>2022-05-21 06:31:58</time>
      </trkpt>
      <trkpt lat="42.06335" lon="2.56026">
        <ele>373.8</ele>
        <time>2022-05-21 06:31:59</time>
      </trkpt>
      <trkpt lat="42.06335" lon="2.5603">
        <ele>374</ele>
        <time>2022-05-21 06:32:00</time>
      </trkpt>
      <trkpt lat="42.06334" lon="2.56035">
        <ele>374.2</ele>
        <time>2022-05-21 06:32:01</time>
      </trkpt>
      <trkpt lat="42.06333" lon="2.56039">
        <ele>374.4</ele>
        <time>2022-05-21 06:32:02</time>
      </trkpt>
      <trkpt lat="42.06332" lon="2.56043">
        <ele>374.6</ele>
        <time>2022-05-21 06:32:03</time>
      </trkpt>
      <trkpt lat="42.06332" lon="2.56047">
        <ele>374.6</ele>
        <time>2022-05-21 06:32:04</time>
      </trkpt>
      <trkpt lat="42.06331" lon="2.56051">
        <ele>374.8</ele>
        <time>2022-05-21 06:32:05</time>
      </trkpt>
      <trkpt lat="42.0633" lon="2.56054">
        <ele>375</ele>
        <time>2022-05-21 06:32:06</time>
      </trkpt>
      <trkpt lat="42.06329" lon="2.56058">
        <ele>375.2</ele>
        <time>2022-05-21 06:32:07</time>
      </trkpt>
      <trkpt lat="42.06328" lon="2.56061">
        <ele>375.4</ele>
        <time>2022-05-21 06:32:08</time>
      </trkpt>
      <trkpt lat="42.06326" lon="2.56064">
        <ele>375.4</ele>
        <time>2022-05-21 06:32:09</time>
      </trkpt>
      <trkpt lat="42.06325" lon="2.56067">
        <ele>375.6</ele>
        <time>2022-05-21 06:32:10</time>
      </trkpt>
      <trkpt lat="42.06322" lon="2.5607">
        <ele>375.8</ele>
        <time>2022-05-21 06:32:11</time>
      </trkpt>
      <trkpt lat="42.06321" lon="2.56073">
        <ele>376</ele>
        <time>2022-05-21 06:32:12</time>
      </trkpt>
      <trkpt lat="42.06318" lon="2.56076">
        <ele>376.2</ele>
        <time>2022-05-21 06:32:13</time>
      </trkpt>
      <trkpt lat="42.06316" lon="2.5608">
        <ele>376.4</ele>
        <time>2022-05-21 06:32:14</time>
      </trkpt>
      <trkpt lat="42.06313" lon="2.56083">
        <ele>376.6</ele>
        <time>2022-05-21 06:32:15</time>
      </trkpt>
      <trkpt lat="42.06311" lon="2.56086">
        <ele>376.6</ele>
        <time>2022-05-21 06:32:16</time>
      </trkpt>
      <trkpt lat="42.06308" lon="2.56089">
        <ele>376.8</ele>
        <time>2022-05-21 06:32:17</time>
      </trkpt>
      <trkpt lat="42.06306" lon="2.56092">
        <ele>377</ele>
        <time>2022-05-21 06:32:18</time>
      </trkpt>
      <trkpt lat="42.06304" lon="2.56096">
        <ele>377.2</ele>
        <time>2022-05-21 06:32:19</time>
      </trkpt>
      <trkpt lat="42.06301" lon="2.56099">
        <ele>377.4</ele>
        <time>2022-05-21 06:32:20</time>
      </trkpt>
      <trkpt lat="42.06299" lon="2.56103">
        <ele>377.4</ele>
        <time>2022-05-21 06:32:21</time>
      </trkpt>
      <trkpt lat="42.06297" lon="2.56106">
        <ele>377.6</ele>
        <time>2022-05-21 06:32:22</time>
      </trkpt>
      <trkpt lat="42.06295" lon="2.56109">
        <ele>377.8</ele>
        <time>2022-05-21 06:32:23</time>
      </trkpt>
      <trkpt lat="42.06293" lon="2.56113">
        <ele>378</ele>
        <time>2022-05-21 06:32:24</time>
      </trkpt>
      <trkpt lat="42.06292" lon="2.56116">
        <ele>378</ele>
        <time>2022-05-21 06:32:25</time>
      </trkpt>
      <trkpt lat="42.0629" lon="2.56119">
        <ele>378.2</ele>
        <time>2022-05-21 06:32:26</time>
      </trkpt>
      <trkpt lat="42.06288" lon="2.56123">
        <ele>378.4</ele>
        <time>2022-05-21 06:32:27</time>
      </trkpt>
      <trkpt lat="42.06287" lon="2.56127">
        <ele>378.4</ele>
        <time>2022-05-21 06:32:28</time>
      </trkpt>
      <trkpt lat="42.06285" lon="2.56131">
        <ele>378.6</ele>
        <time>2022-05-21 06:32:29</time>
      </trkpt>
      <trkpt lat="42.06284" lon="2.56135">
        <ele>378.8</ele>
        <time>2022-05-21 06:32:30</time>
      </trkpt>
      <trkpt lat="42.06284" lon="2.56139">
        <ele>379</ele>
        <time>2022-05-21 06:32:31</time>
      </trkpt>
      <trkpt lat="42.06284" lon="2.56144">
        <ele>379</ele>
        <time>2022-05-21 06:32:32</time>
      </trkpt>
      <trkpt lat="42.06283" lon="2.56149">
        <ele>379.2</ele>
        <time>2022-05-21 06:32:33</time>
      </trkpt>
      <trkpt lat="42.06283" lon="2.56155">
        <ele>379.4</ele>
        <time>2022-05-21 06:32:34</time>
      </trkpt>
      <trkpt lat="42.06284" lon="2.5616">
        <ele>379.4</ele>
        <time>2022-05-21 06:32:35</time>
      </trkpt>
      <trkpt lat="42.06287" lon="2.56165">
        <ele>379.6</ele>
        <time>2022-05-21 06:32:36</time>
      </trkpt>
      <trkpt lat="42.06289" lon="2.56169">
        <ele>379.8</ele>
        <time>2022-05-21 06:32:37</time>
      </trkpt>
      <trkpt lat="42.06291" lon="2.56173">
        <ele>380</ele>
        <time>2022-05-21 06:32:38</time>
      </trkpt>
      <trkpt lat="42.06293" lon="2.5618">
        <ele>380</ele>
        <time>2022-05-21 06:32:39</time>
      </trkpt>
      <trkpt lat="42.06296" lon="2.56184">
        <ele>380.2</ele>
        <time>2022-05-21 06:32:40</time>
      </trkpt>
      <trkpt lat="42.06298" lon="2.56188">
        <ele>380.4</ele>
        <time>2022-05-21 06:32:41</time>
      </trkpt>
      <trkpt lat="42.06301" lon="2.56192">
        <ele>380.6</ele>
        <time>2022-05-21 06:32:42</time>
      </trkpt>
      <trkpt lat="42.06303" lon="2.56196">
        <ele>380.6</ele>
        <time>2022-05-21 06:32:43</time>
      </trkpt>
      <trkpt lat="42.06305" lon="2.562">
        <ele>380.8</ele>
        <time>2022-05-21 06:32:44</time>
      </trkpt>
      <trkpt lat="42.06306" lon="2.56205">
        <ele>381</ele>
        <time>2022-05-21 06:32:45</time>
      </trkpt>
      <trkpt lat="42.06307" lon="2.56211">
        <ele>381</ele>
        <time>2022-05-21 06:32:46</time>
      </trkpt>
      <trkpt lat="42.06308" lon="2.56218">
        <ele>381.2</ele>
        <time>2022-05-21 06:32:47</time>
      </trkpt>
      <trkpt lat="42.06308" lon="2.56224">
        <ele>381.4</ele>
        <time>2022-05-21 06:32:48</time>
      </trkpt>
      <trkpt lat="42.06308" lon="2.56229">
        <ele>381.6</ele>
        <time>2022-05-21 06:32:49</time>
      </trkpt>
      <trkpt lat="42.06308" lon="2.56236">
        <ele>381.8</ele>
        <time>2022-05-21 06:32:50</time>
      </trkpt>
      <trkpt lat="42.06308" lon="2.56241">
        <ele>382</ele>
        <time>2022-05-21 06:32:51</time>
      </trkpt>
      <trkpt lat="42.06308" lon="2.56247">
        <ele>382.2</ele>
        <time>2022-05-21 06:32:52</time>
      </trkpt>
      <trkpt lat="42.06308" lon="2.56252">
        <ele>382.2</ele>
        <time>2022-05-21 06:32:53</time>
      </trkpt>
      <trkpt lat="42.06308" lon="2.56257">
        <ele>382.4</ele>
        <time>2022-05-21 06:32:54</time>
      </trkpt>
      <trkpt lat="42.06308" lon="2.56263">
        <ele>382.6</ele>
        <time>2022-05-21 06:32:55</time>
      </trkpt>
      <trkpt lat="42.06308" lon="2.56268">
        <ele>382.8</ele>
        <time>2022-05-21 06:32:56</time>
      </trkpt>
      <trkpt lat="42.06307" lon="2.56273">
        <ele>382.8</ele>
        <time>2022-05-21 06:32:57</time>
      </trkpt>
      <trkpt lat="42.06307" lon="2.56278">
        <ele>383</ele>
        <time>2022-05-21 06:32:58</time>
      </trkpt>
      <trkpt lat="42.06307" lon="2.56283">
        <ele>383.2</ele>
        <time>2022-05-21 06:32:59</time>
      </trkpt>
      <trkpt lat="42.06307" lon="2.56288">
        <ele>383.4</ele>
        <time>2022-05-21 06:33:00</time>
      </trkpt>
      <trkpt lat="42.06307" lon="2.56293">
        <ele>383.6</ele>
        <time>2022-05-21 06:33:01</time>
      </trkpt>
      <trkpt lat="42.06307" lon="2.56298">
        <ele>383.8</ele>
        <time>2022-05-21 06:33:02</time>
      </trkpt>
      <trkpt lat="42.06307" lon="2.56303">
        <ele>384</ele>
        <time>2022-05-21 06:33:03</time>
      </trkpt>
      <trkpt lat="42.06306" lon="2.56308">
        <ele>384.2</ele>
        <time>2022-05-21 06:33:04</time>
      </trkpt>
      <trkpt lat="42.06306" lon="2.56313">
        <ele>384.4</ele>
        <time>2022-05-21 06:33:05</time>
      </trkpt>
      <trkpt lat="42.06306" lon="2.56318">
        <ele>384.6</ele>
        <time>2022-05-21 06:33:06</time>
      </trkpt>
      <trkpt lat="42.06306" lon="2.56323">
        <ele>384.6</ele>
        <time>2022-05-21 06:33:07</time>
      </trkpt>
      <trkpt lat="42.06306" lon="2.56328">
        <ele>384.8</ele>
        <time>2022-05-21 06:33:08</time>
      </trkpt>
      <trkpt lat="42.06305" lon="2.56333">
        <ele>385</ele>
        <time>2022-05-21 06:33:09</time>
      </trkpt>
      <trkpt lat="42.06305" lon="2.56337">
        <ele>385.2</ele>
        <time>2022-05-21 06:33:10</time>
      </trkpt>
      <trkpt lat="42.06305" lon="2.56342">
        <ele>385.4</ele>
        <time>2022-05-21 06:33:11</time>
      </trkpt>
      <trkpt lat="42.06305" lon="2.56347">
        <ele>385.6</ele>
        <time>2022-05-21 06:33:12</time>
      </trkpt>
      <trkpt lat="42.06305" lon="2.56351">
        <ele>385.6</ele>
        <time>2022-05-21 06:33:13</time>
      </trkpt>
      <trkpt lat="42.06305" lon="2.56356">
        <ele>385.8</ele>
        <time>2022-05-21 06:33:14</time>
      </trkpt>
      <trkpt lat="42.06305" lon="2.5636">
        <ele>386</ele>
        <time>2022-05-21 06:33:15</time>
      </trkpt>
      <trkpt lat="42.06305" lon="2.56365">
        <ele>386.2</ele>
        <time>2022-05-21 06:33:16</time>
      </trkpt>
      <trkpt lat="42.06305" lon="2.56369">
        <ele>386.4</ele>
        <time>2022-05-21 06:33:17</time>
      </trkpt>
      <trkpt lat="42.06305" lon="2.56374">
        <ele>386.4</ele>
        <time>2022-05-21 06:33:18</time>
      </trkpt>
      <trkpt lat="42.06305" lon="2.56378">
        <ele>386.6</ele>
        <time>2022-05-21 06:33:19</time>
      </trkpt>
      <trkpt lat="42.06306" lon="2.56383">
        <ele>386.8</ele>
        <time>2022-05-21 06:33:20</time>
      </trkpt>
      <trkpt lat="42.06306" lon="2.56387">
        <ele>387</ele>
        <time>2022-05-21 06:33:21</time>
      </trkpt>
      <trkpt lat="42.06306" lon="2.56392">
        <ele>387.2</ele>
        <time>2022-05-21 06:33:22</time>
      </trkpt>
      <trkpt lat="42.06307" lon="2.56396">
        <ele>387.4</ele>
        <time>2022-05-21 06:33:23</time>
      </trkpt>
      <trkpt lat="42.06307" lon="2.56401">
        <ele>387.4</ele>
        <time>2022-05-21 06:33:24</time>
      </trkpt>
      <trkpt lat="42.06307" lon="2.56405">
        <ele>387.6</ele>
        <time>2022-05-21 06:33:25</time>
      </trkpt>
      <trkpt lat="42.06307" lon="2.5641">
        <ele>387.8</ele>
        <time>2022-05-21 06:33:26</time>
      </trkpt>
      <trkpt lat="42.06308" lon="2.56415">
        <ele>388</ele>
        <time>2022-05-21 06:33:27</time>
      </trkpt>
      <trkpt lat="42.06308" lon="2.56419">
        <ele>388.2</ele>
        <time>2022-05-21 06:33:28</time>
      </trkpt>
      <trkpt lat="42.06308" lon="2.56424">
        <ele>388.4</ele>
        <time>2022-05-21 06:33:29</time>
      </trkpt>
      <trkpt lat="42.06309" lon="2.56428">
        <ele>388.4</ele>
        <time>2022-05-21 06:33:30</time>
      </trkpt>
      <trkpt lat="42.06309" lon="2.56433">
        <ele>388.6</ele>
        <time>2022-05-21 06:33:31</time>
      </trkpt>
      <trkpt lat="42.06309" lon="2.56438">
        <ele>388.8</ele>
        <time>2022-05-21 06:33:32</time>
      </trkpt>
      <trkpt lat="42.06309" lon="2.56442">
        <ele>389</ele>
        <time>2022-05-21 06:33:33</time>
      </trkpt>
      <trkpt lat="42.06308" lon="2.56447">
        <ele>389.2</ele>
        <time>2022-05-21 06:33:34</time>
      </trkpt>
      <trkpt lat="42.06308" lon="2.56452">
        <ele>389.4</ele>
        <time>2022-05-21 06:33:35</time>
      </trkpt>
      <trkpt lat="42.06307" lon="2.56456">
        <ele>389.6</ele>
        <time>2022-05-21 06:33:36</time>
      </trkpt>
      <trkpt lat="42.06307" lon="2.56461">
        <ele>389.8</ele>
        <time>2022-05-21 06:33:37</time>
      </trkpt>
      <trkpt lat="42.06306" lon="2.56465">
        <ele>389.8</ele>
        <time>2022-05-21 06:33:38</time>
      </trkpt>
      <trkpt lat="42.06306" lon="2.5647">
        <ele>390</ele>
        <time>2022-05-21 06:33:39</time>
      </trkpt>
      <trkpt lat="42.06305" lon="2.56475">
        <ele>390.2</ele>
        <time>2022-05-21 06:33:40</time>
      </trkpt>
      <trkpt lat="42.06305" lon="2.5648">
        <ele>390.2</ele>
        <time>2022-05-21 06:33:41</time>
      </trkpt>
      <trkpt lat="42.06304" lon="2.56485">
        <ele>390.4</ele>
        <time>2022-05-21 06:33:42</time>
      </trkpt>
      <trkpt lat="42.06304" lon="2.56489">
        <ele>390.6</ele>
        <time>2022-05-21 06:33:43</time>
      </trkpt>
      <trkpt lat="42.06303" lon="2.56494">
        <ele>390.6</ele>
        <time>2022-05-21 06:33:44</time>
      </trkpt>
      <trkpt lat="42.06303" lon="2.56499">
        <ele>390.8</ele>
        <time>2022-05-21 06:33:45</time>
      </trkpt>
      <trkpt lat="42.06303" lon="2.56503">
        <ele>391</ele>
        <time>2022-05-21 06:33:46</time>
      </trkpt>
      <trkpt lat="42.06303" lon="2.56508">
        <ele>391.2</ele>
        <time>2022-05-21 06:33:47</time>
      </trkpt>
      <trkpt lat="42.06302" lon="2.56512">
        <ele>391.2</ele>
        <time>2022-05-21 06:33:48</time>
      </trkpt>
      <trkpt lat="42.06301" lon="2.56517">
        <ele>391.4</ele>
        <time>2022-05-21 06:33:49</time>
      </trkpt>
      <trkpt lat="42.06301" lon="2.56521">
        <ele>391.6</ele>
        <time>2022-05-21 06:33:50</time>
      </trkpt>
      <trkpt lat="42.063" lon="2.56526">
        <ele>391.6</ele>
        <time>2022-05-21 06:33:51</time>
      </trkpt>
      <trkpt lat="42.06299" lon="2.5653">
        <ele>391.8</ele>
        <time>2022-05-21 06:33:52</time>
      </trkpt>
      <trkpt lat="42.06298" lon="2.56535">
        <ele>392</ele>
        <time>2022-05-21 06:33:53</time>
      </trkpt>
      <trkpt lat="42.06298" lon="2.56539">
        <ele>392.2</ele>
        <time>2022-05-21 06:33:54</time>
      </trkpt>
      <trkpt lat="42.06298" lon="2.56544">
        <ele>392.4</ele>
        <time>2022-05-21 06:33:55</time>
      </trkpt>
      <trkpt lat="42.06297" lon="2.56548">
        <ele>392.4</ele>
        <time>2022-05-21 06:33:56</time>
      </trkpt>
      <trkpt lat="42.06297" lon="2.56552">
        <ele>392.6</ele>
        <time>2022-05-21 06:33:57</time>
      </trkpt>
      <trkpt lat="42.06296" lon="2.56556">
        <ele>392.8</ele>
        <time>2022-05-21 06:33:58</time>
      </trkpt>
      <trkpt lat="42.06296" lon="2.5656">
        <ele>393</ele>
        <time>2022-05-21 06:33:59</time>
      </trkpt>
      <trkpt lat="42.06295" lon="2.56564">
        <ele>393.2</ele>
        <time>2022-05-21 06:34:00</time>
      </trkpt>
      <trkpt lat="42.06295" lon="2.56569">
        <ele>393.4</ele>
        <time>2022-05-21 06:34:01</time>
      </trkpt>
      <trkpt lat="42.06294" lon="2.56574">
        <ele>393.6</ele>
        <time>2022-05-21 06:34:02</time>
      </trkpt>
      <trkpt lat="42.06293" lon="2.56579">
        <ele>393.8</ele>
        <time>2022-05-21 06:34:03</time>
      </trkpt>
      <trkpt lat="42.06292" lon="2.56584">
        <ele>394</ele>
        <time>2022-05-21 06:34:04</time>
      </trkpt>
      <trkpt lat="42.06291" lon="2.56588">
        <ele>394.2</ele>
        <time>2022-05-21 06:34:05</time>
      </trkpt>
      <trkpt lat="42.06291" lon="2.56593">
        <ele>394.4</ele>
        <time>2022-05-21 06:34:06</time>
      </trkpt>
      <trkpt lat="42.0629" lon="2.56597">
        <ele>394.6</ele>
        <time>2022-05-21 06:34:07</time>
      </trkpt>
      <trkpt lat="42.0629" lon="2.56601">
        <ele>394.8</ele>
        <time>2022-05-21 06:34:08</time>
      </trkpt>
      <trkpt lat="42.06289" lon="2.56604">
        <ele>394.8</ele>
        <time>2022-05-21 06:34:09</time>
      </trkpt>
      <trkpt lat="42.06289" lon="2.56608">
        <ele>395</ele>
        <time>2022-05-21 06:34:10</time>
      </trkpt>
      <trkpt lat="42.06288" lon="2.56611">
        <ele>395.2</ele>
        <time>2022-05-21 06:34:11</time>
      </trkpt>
      <trkpt lat="42.06286" lon="2.56614">
        <ele>395.4</ele>
        <time>2022-05-21 06:34:12</time>
      </trkpt>
      <trkpt lat="42.06285" lon="2.56617">
        <ele>395.6</ele>
        <time>2022-05-21 06:34:13</time>
      </trkpt>
      <trkpt lat="42.06284" lon="2.5662">
        <ele>395.8</ele>
        <time>2022-05-21 06:34:14</time>
      </trkpt>
      <trkpt lat="42.06282" lon="2.56623">
        <ele>396</ele>
        <time>2022-05-21 06:34:15</time>
      </trkpt>
      <trkpt lat="42.06281" lon="2.56626">
        <ele>396</ele>
        <time>2022-05-21 06:34:16</time>
      </trkpt>
      <trkpt lat="42.0628" lon="2.5663">
        <ele>396.2</ele>
        <time>2022-05-21 06:34:17</time>
      </trkpt>
      <trkpt lat="42.06278" lon="2.56633">
        <ele>396.4</ele>
        <time>2022-05-21 06:34:18</time>
      </trkpt>
      <trkpt lat="42.06277" lon="2.56636">
        <ele>396.6</ele>
        <time>2022-05-21 06:34:19</time>
      </trkpt>
      <trkpt lat="42.06275" lon="2.5664">
        <ele>396.8</ele>
        <time>2022-05-21 06:34:20</time>
      </trkpt>
      <trkpt lat="42.06274" lon="2.56643">
        <ele>397</ele>
        <time>2022-05-21 06:34:21</time>
      </trkpt>
      <trkpt lat="42.06272" lon="2.56646">
        <ele>397.2</ele>
        <time>2022-05-21 06:34:22</time>
      </trkpt>
      <trkpt lat="42.06271" lon="2.56649">
        <ele>397.2</ele>
        <time>2022-05-21 06:34:23</time>
      </trkpt>
      <trkpt lat="42.0627" lon="2.56652">
        <ele>397.4</ele>
        <time>2022-05-21 06:34:24</time>
      </trkpt>
      <trkpt lat="42.06269" lon="2.56655">
        <ele>397.6</ele>
        <time>2022-05-21 06:34:25</time>
      </trkpt>
      <trkpt lat="42.06268" lon="2.56659">
        <ele>397.8</ele>
        <time>2022-05-21 06:34:26</time>
      </trkpt>
      <trkpt lat="42.06267" lon="2.56662">
        <ele>398</ele>
        <time>2022-05-21 06:34:27</time>
      </trkpt>
      <trkpt lat="42.06266" lon="2.56665">
        <ele>398</ele>
        <time>2022-05-21 06:34:28</time>
      </trkpt>
      <trkpt lat="42.06265" lon="2.56668">
        <ele>398.2</ele>
        <time>2022-05-21 06:34:29</time>
      </trkpt>
      <trkpt lat="42.06264" lon="2.56672">
        <ele>398.4</ele>
        <time>2022-05-21 06:34:30</time>
      </trkpt>
      <trkpt lat="42.06263" lon="2.56675">
        <ele>398.6</ele>
        <time>2022-05-21 06:34:31</time>
      </trkpt>
      <trkpt lat="42.06262" lon="2.5668">
        <ele>398.6</ele>
        <time>2022-05-21 06:34:32</time>
      </trkpt>
      <trkpt lat="42.06262" lon="2.56683">
        <ele>398.8</ele>
        <time>2022-05-21 06:34:33</time>
      </trkpt>
      <trkpt lat="42.06261" lon="2.56687">
        <ele>399</ele>
        <time>2022-05-21 06:34:34</time>
      </trkpt>
      <trkpt lat="42.0626" lon="2.56691">
        <ele>399.2</ele>
        <time>2022-05-21 06:34:35</time>
      </trkpt>
      <trkpt lat="42.06259" lon="2.56695">
        <ele>399.4</ele>
        <time>2022-05-21 06:34:36</time>
      </trkpt>
      <trkpt lat="42.06258" lon="2.56699">
        <ele>399.4</ele>
        <time>2022-05-21 06:34:37</time>
      </trkpt>
      <trkpt lat="42.06258" lon="2.56702">
        <ele>399.6</ele>
        <time>2022-05-21 06:34:38</time>
      </trkpt>
      <trkpt lat="42.06257" lon="2.56706">
        <ele>399.8</ele>
        <time>2022-05-21 06:34:39</time>
      </trkpt>
      <trkpt lat="42.06256" lon="2.5671">
        <ele>399.8</ele>
        <time>2022-05-21 06:34:40</time>
      </trkpt>
      <trkpt lat="42.06256" lon="2.56714">
        <ele>400</ele>
        <time>2022-05-21 06:34:41</time>
      </trkpt>
      <trkpt lat="42.06255" lon="2.56717">
        <ele>400.2</ele>
        <time>2022-05-21 06:34:42</time>
      </trkpt>
      <trkpt lat="42.06255" lon="2.56721">
        <ele>400.4</ele>
        <time>2022-05-21 06:34:43</time>
      </trkpt>
      <trkpt lat="42.06255" lon="2.56725">
        <ele>400.6</ele>
        <time>2022-05-21 06:34:44</time>
      </trkpt>
      <trkpt lat="42.06254" lon="2.5673">
        <ele>400.6</ele>
        <time>2022-05-21 06:34:45</time>
      </trkpt>
      <trkpt lat="42.06253" lon="2.56733">
        <ele>400.8</ele>
        <time>2022-05-21 06:34:46</time>
      </trkpt>
      <trkpt lat="42.06253" lon="2.56738">
        <ele>401</ele>
        <time>2022-05-21 06:34:47</time>
      </trkpt>
      <trkpt lat="42.06252" lon="2.56743">
        <ele>401.2</ele>
        <time>2022-05-21 06:34:48</time>
      </trkpt>
      <trkpt lat="42.06252" lon="2.56748">
        <ele>401.4</ele>
        <time>2022-05-21 06:34:49</time>
      </trkpt>
      <trkpt lat="42.06252" lon="2.56753">
        <ele>401.4</ele>
        <time>2022-05-21 06:34:50</time>
      </trkpt>
      <trkpt lat="42.06253" lon="2.56757">
        <ele>401.6</ele>
        <time>2022-05-21 06:34:51</time>
      </trkpt>
      <trkpt lat="42.06253" lon="2.56762">
        <ele>401.6</ele>
        <time>2022-05-21 06:34:52</time>
      </trkpt>
      <trkpt lat="42.06254" lon="2.56767">
        <ele>401.8</ele>
        <time>2022-05-21 06:34:53</time>
      </trkpt>
      <trkpt lat="42.06255" lon="2.56773">
        <ele>402</ele>
        <time>2022-05-21 06:34:54</time>
      </trkpt>
      <trkpt lat="42.06256" lon="2.56778">
        <ele>402</ele>
        <time>2022-05-21 06:34:55</time>
      </trkpt>
      <trkpt lat="42.06258" lon="2.56784">
        <ele>402.2</ele>
        <time>2022-05-21 06:34:56</time>
      </trkpt>
      <trkpt lat="42.06259" lon="2.56789">
        <ele>402.4</ele>
        <time>2022-05-21 06:34:57</time>
      </trkpt>
      <trkpt lat="42.06261" lon="2.56793">
        <ele>402.4</ele>
        <time>2022-05-21 06:34:58</time>
      </trkpt>
      <trkpt lat="42.06263" lon="2.56797">
        <ele>402.6</ele>
        <time>2022-05-21 06:34:59</time>
      </trkpt>
      <trkpt lat="42.06264" lon="2.56801">
        <ele>402.8</ele>
        <time>2022-05-21 06:35:00</time>
      </trkpt>
      <trkpt lat="42.06267" lon="2.56805">
        <ele>402.8</ele>
        <time>2022-05-21 06:35:01</time>
      </trkpt>
      <trkpt lat="42.06268" lon="2.56809">
        <ele>403</ele>
        <time>2022-05-21 06:35:02</time>
      </trkpt>
      <trkpt lat="42.0627" lon="2.56812">
        <ele>403.2</ele>
        <time>2022-05-21 06:35:03</time>
      </trkpt>
      <trkpt lat="42.06272" lon="2.56816">
        <ele>403.2</ele>
        <time>2022-05-21 06:35:04</time>
      </trkpt>
      <trkpt lat="42.06274" lon="2.5682">
        <ele>403.4</ele>
        <time>2022-05-21 06:35:05</time>
      </trkpt>
      <trkpt lat="42.06276" lon="2.56824">
        <ele>403.6</ele>
        <time>2022-05-21 06:35:06</time>
      </trkpt>
      <trkpt lat="42.06277" lon="2.56828">
        <ele>403.8</ele>
        <time>2022-05-21 06:35:07</time>
      </trkpt>
      <trkpt lat="42.06277" lon="2.56834">
        <ele>404</ele>
        <time>2022-05-21 06:35:08</time>
      </trkpt>
      <trkpt lat="42.06278" lon="2.5684">
        <ele>404.2</ele>
        <time>2022-05-21 06:35:09</time>
      </trkpt>
      <trkpt lat="42.06278" lon="2.56845">
        <ele>404.2</ele>
        <time>2022-05-21 06:35:10</time>
      </trkpt>
      <trkpt lat="42.06279" lon="2.56852">
        <ele>404.4</ele>
        <time>2022-05-21 06:35:11</time>
      </trkpt>
      <trkpt lat="42.06278" lon="2.56858">
        <ele>404.6</ele>
        <time>2022-05-21 06:35:12</time>
      </trkpt>
      <trkpt lat="42.06278" lon="2.56865">
        <ele>404.8</ele>
        <time>2022-05-21 06:35:13</time>
      </trkpt>
      <trkpt lat="42.06278" lon="2.5687">
        <ele>405</ele>
        <time>2022-05-21 06:35:14</time>
      </trkpt>
      <trkpt lat="42.06278" lon="2.56875">
        <ele>405.2</ele>
        <time>2022-05-21 06:35:15</time>
      </trkpt>
      <trkpt lat="42.06278" lon="2.56881">
        <ele>405.4</ele>
        <time>2022-05-21 06:35:16</time>
      </trkpt>
      <trkpt lat="42.06278" lon="2.56887">
        <ele>405.4</ele>
        <time>2022-05-21 06:35:17</time>
      </trkpt>
      <trkpt lat="42.06278" lon="2.56892">
        <ele>405.6</ele>
        <time>2022-05-21 06:35:18</time>
      </trkpt>
      <trkpt lat="42.06278" lon="2.56897">
        <ele>405.6</ele>
        <time>2022-05-21 06:35:19</time>
      </trkpt>
      <trkpt lat="42.06278" lon="2.56903">
        <ele>405.6</ele>
        <time>2022-05-21 06:35:20</time>
      </trkpt>
      <trkpt lat="42.06278" lon="2.56909">
        <ele>405.8</ele>
        <time>2022-05-21 06:35:21</time>
      </trkpt>
      <trkpt lat="42.06278" lon="2.56915">
        <ele>405.8</ele>
        <time>2022-05-21 06:35:22</time>
      </trkpt>
      <trkpt lat="42.06278" lon="2.56921">
        <ele>405.8</ele>
        <time>2022-05-21 06:35:23</time>
      </trkpt>
      <trkpt lat="42.06278" lon="2.56927">
        <ele>405.8</ele>
        <time>2022-05-21 06:35:24</time>
      </trkpt>
      <trkpt lat="42.06278" lon="2.56933">
        <ele>405.8</ele>
        <time>2022-05-21 06:35:25</time>
      </trkpt>
      <trkpt lat="42.06278" lon="2.56939">
        <ele>405.8</ele>
        <time>2022-05-21 06:35:26</time>
      </trkpt>
      <trkpt lat="42.06278" lon="2.56947">
        <ele>405.8</ele>
        <time>2022-05-21 06:35:27</time>
      </trkpt>
      <trkpt lat="42.06278" lon="2.56953">
        <ele>405.8</ele>
        <time>2022-05-21 06:35:28</time>
      </trkpt>
      <trkpt lat="42.06278" lon="2.5696">
        <ele>405.8</ele>
        <time>2022-05-21 06:35:29</time>
      </trkpt>
      <trkpt lat="42.06278" lon="2.56966">
        <ele>405.8</ele>
        <time>2022-05-21 06:35:30</time>
      </trkpt>
      <trkpt lat="42.06278" lon="2.56973">
        <ele>405.8</ele>
        <time>2022-05-21 06:35:31</time>
      </trkpt>
      <trkpt lat="42.06278" lon="2.5698">
        <ele>405.8</ele>
        <time>2022-05-21 06:35:32</time>
      </trkpt>
      <trkpt lat="42.06279" lon="2.56986">
        <ele>405.8</ele>
        <time>2022-05-21 06:35:33</time>
      </trkpt>
      <trkpt lat="42.0628" lon="2.56993">
        <ele>406</ele>
        <time>2022-05-21 06:35:34</time>
      </trkpt>
      <trkpt lat="42.06282" lon="2.56998">
        <ele>406</ele>
        <time>2022-05-21 06:35:35</time>
      </trkpt>
      <trkpt lat="42.06284" lon="2.57004">
        <ele>406</ele>
        <time>2022-05-21 06:35:36</time>
      </trkpt>
      <trkpt lat="42.06286" lon="2.57009">
        <ele>406</ele>
        <time>2022-05-21 06:35:37</time>
      </trkpt>
      <trkpt lat="42.06289" lon="2.57015">
        <ele>406</ele>
        <time>2022-05-21 06:35:38</time>
      </trkpt>
      <trkpt lat="42.06292" lon="2.5702">
        <ele>406</ele>
        <time>2022-05-21 06:35:39</time>
      </trkpt>
      <trkpt lat="42.06295" lon="2.57025">
        <ele>406</ele>
        <time>2022-05-21 06:35:40</time>
      </trkpt>
      <trkpt lat="42.06298" lon="2.5703">
        <ele>406</ele>
        <time>2022-05-21 06:35:41</time>
      </trkpt>
      <trkpt lat="42.06301" lon="2.57035">
        <ele>406</ele>
        <time>2022-05-21 06:35:42</time>
      </trkpt>
      <trkpt lat="42.06304" lon="2.57039">
        <ele>406.2</ele>
        <time>2022-05-21 06:35:43</time>
      </trkpt>
      <trkpt lat="42.06308" lon="2.57044">
        <ele>406.2</ele>
        <time>2022-05-21 06:35:44</time>
      </trkpt>
      <trkpt lat="42.06311" lon="2.57049">
        <ele>406.2</ele>
        <time>2022-05-21 06:35:45</time>
      </trkpt>
      <trkpt lat="42.06313" lon="2.57053">
        <ele>406.4</ele>
        <time>2022-05-21 06:35:46</time>
      </trkpt>
      <trkpt lat="42.06316" lon="2.57058">
        <ele>406.6</ele>
        <time>2022-05-21 06:35:47</time>
      </trkpt>
      <trkpt lat="42.06319" lon="2.57062">
        <ele>406.6</ele>
        <time>2022-05-21 06:35:48</time>
      </trkpt>
      <trkpt lat="42.06322" lon="2.57067">
        <ele>406.8</ele>
        <time>2022-05-21 06:35:49</time>
      </trkpt>
      <trkpt lat="42.06325" lon="2.57071">
        <ele>407</ele>
        <time>2022-05-21 06:35:50</time>
      </trkpt>
      <trkpt lat="42.06328" lon="2.57076">
        <ele>407.2</ele>
        <time>2022-05-21 06:35:51</time>
      </trkpt>
      <trkpt lat="42.06331" lon="2.57081">
        <ele>407.4</ele>
        <time>2022-05-21 06:35:52</time>
      </trkpt>
      <trkpt lat="42.06334" lon="2.57085">
        <ele>407.6</ele>
        <time>2022-05-21 06:35:53</time>
      </trkpt>
      <trkpt lat="42.06337" lon="2.5709">
        <ele>407.8</ele>
        <time>2022-05-21 06:35:54</time>
      </trkpt>
      <trkpt lat="42.0634" lon="2.57094">
        <ele>408</ele>
        <time>2022-05-21 06:35:55</time>
      </trkpt>
      <trkpt lat="42.06342" lon="2.57099">
        <ele>408.2</ele>
        <time>2022-05-21 06:35:56</time>
      </trkpt>
      <trkpt lat="42.06345" lon="2.57103">
        <ele>408.4</ele>
        <time>2022-05-21 06:35:57</time>
      </trkpt>
      <trkpt lat="42.06349" lon="2.57108">
        <ele>408.6</ele>
        <time>2022-05-21 06:35:58</time>
      </trkpt>
      <trkpt lat="42.06351" lon="2.57113">
        <ele>408.6</ele>
        <time>2022-05-21 06:35:59</time>
      </trkpt>
      <trkpt lat="42.06354" lon="2.57117">
        <ele>408.8</ele>
        <time>2022-05-21 06:36:00</time>
      </trkpt>
      <trkpt lat="42.06358" lon="2.57121">
        <ele>409</ele>
        <time>2022-05-21 06:36:01</time>
      </trkpt>
      <trkpt lat="42.0636" lon="2.57126">
        <ele>409.2</ele>
        <time>2022-05-21 06:36:02</time>
      </trkpt>
      <trkpt lat="42.06363" lon="2.5713">
        <ele>409.4</ele>
        <time>2022-05-21 06:36:03</time>
      </trkpt>
      <trkpt lat="42.06366" lon="2.57134">
        <ele>409.6</ele>
        <time>2022-05-21 06:36:04</time>
      </trkpt>
      <trkpt lat="42.06369" lon="2.57138">
        <ele>409.8</ele>
        <time>2022-05-21 06:36:05</time>
      </trkpt>
      <trkpt lat="42.06371" lon="2.57142">
        <ele>410</ele>
        <time>2022-05-21 06:36:06</time>
      </trkpt>
      <trkpt lat="42.06374" lon="2.57146">
        <ele>410.2</ele>
        <time>2022-05-21 06:36:07</time>
      </trkpt>
      <trkpt lat="42.06377" lon="2.5715">
        <ele>410.4</ele>
        <time>2022-05-21 06:36:08</time>
      </trkpt>
      <trkpt lat="42.06379" lon="2.57153">
        <ele>410.6</ele>
        <time>2022-05-21 06:36:09</time>
      </trkpt>
      <trkpt lat="42.06382" lon="2.57157">
        <ele>410.8</ele>
        <time>2022-05-21 06:36:10</time>
      </trkpt>
      <trkpt lat="42.06385" lon="2.57161">
        <ele>411</ele>
        <time>2022-05-21 06:36:11</time>
      </trkpt>
      <trkpt lat="42.06388" lon="2.57164">
        <ele>411.2</ele>
        <time>2022-05-21 06:36:12</time>
      </trkpt>
      <trkpt lat="42.06392" lon="2.57167">
        <ele>411.4</ele>
        <time>2022-05-21 06:36:13</time>
      </trkpt>
      <trkpt lat="42.06395" lon="2.5717">
        <ele>411.6</ele>
        <time>2022-05-21 06:36:14</time>
      </trkpt>
      <trkpt lat="42.06399" lon="2.57173">
        <ele>411.8</ele>
        <time>2022-05-21 06:36:15</time>
      </trkpt>
      <trkpt lat="42.06402" lon="2.57176">
        <ele>412</ele>
        <time>2022-05-21 06:36:16</time>
      </trkpt>
      <trkpt lat="42.06406" lon="2.57179">
        <ele>412</ele>
        <time>2022-05-21 06:36:17</time>
      </trkpt>
      <trkpt lat="42.06409" lon="2.57182">
        <ele>412.2</ele>
        <time>2022-05-21 06:36:18</time>
      </trkpt>
      <trkpt lat="42.06413" lon="2.57185">
        <ele>412.4</ele>
        <time>2022-05-21 06:36:19</time>
      </trkpt>
      <trkpt lat="42.06416" lon="2.57188">
        <ele>412.4</ele>
        <time>2022-05-21 06:36:20</time>
      </trkpt>
      <trkpt lat="42.0642" lon="2.57192">
        <ele>412.6</ele>
        <time>2022-05-21 06:36:21</time>
      </trkpt>
      <trkpt lat="42.06422" lon="2.57195">
        <ele>412.8</ele>
        <time>2022-05-21 06:36:22</time>
      </trkpt>
      <trkpt lat="42.06425" lon="2.57199">
        <ele>413</ele>
        <time>2022-05-21 06:36:23</time>
      </trkpt>
      <trkpt lat="42.06427" lon="2.57204">
        <ele>413.2</ele>
        <time>2022-05-21 06:36:24</time>
      </trkpt>
      <trkpt lat="42.06429" lon="2.57208">
        <ele>413.4</ele>
        <time>2022-05-21 06:36:25</time>
      </trkpt>
      <trkpt lat="42.0643" lon="2.57213">
        <ele>413.4</ele>
        <time>2022-05-21 06:36:26</time>
      </trkpt>
      <trkpt lat="42.06431" lon="2.57217">
        <ele>413.6</ele>
        <time>2022-05-21 06:36:27</time>
      </trkpt>
      <trkpt lat="42.06432" lon="2.57219">
        <ele>413.8</ele>
        <time>2022-05-21 06:36:28</time>
      </trkpt>
      <trkpt lat="42.06433" lon="2.57222">
        <ele>414</ele>
        <time>2022-05-21 06:36:29</time>
      </trkpt>
      <trkpt lat="42.06433" lon="2.57232">
        <ele>414.2</ele>
        <time>2022-05-21 06:36:30</time>
      </trkpt>
      <trkpt lat="42.06434" lon="2.57237">
        <ele>414.4</ele>
        <time>2022-05-21 06:36:31</time>
      </trkpt>
      <trkpt lat="42.06435" lon="2.57242">
        <ele>414.6</ele>
        <time>2022-05-21 06:36:32</time>
      </trkpt>
      <trkpt lat="42.06435" lon="2.57248">
        <ele>414.6</ele>
        <time>2022-05-21 06:36:33</time>
      </trkpt>
      <trkpt lat="42.06436" lon="2.57253">
        <ele>414.8</ele>
        <time>2022-05-21 06:36:34</time>
      </trkpt>
      <trkpt lat="42.06437" lon="2.57257">
        <ele>415</ele>
        <time>2022-05-21 06:36:35</time>
      </trkpt>
      <trkpt lat="42.06438" lon="2.57262">
        <ele>415.2</ele>
        <time>2022-05-21 06:36:36</time>
      </trkpt>
      <trkpt lat="42.06439" lon="2.57266">
        <ele>415.4</ele>
        <time>2022-05-21 06:36:37</time>
      </trkpt>
      <trkpt lat="42.06441" lon="2.57271">
        <ele>415.6</ele>
        <time>2022-05-21 06:36:38</time>
      </trkpt>
      <trkpt lat="42.06443" lon="2.57275">
        <ele>415.8</ele>
        <time>2022-05-21 06:36:39</time>
      </trkpt>
      <trkpt lat="42.06445" lon="2.57278">
        <ele>416</ele>
        <time>2022-05-21 06:36:40</time>
      </trkpt>
      <trkpt lat="42.06447" lon="2.57281">
        <ele>416.2</ele>
        <time>2022-05-21 06:36:41</time>
      </trkpt>
      <trkpt lat="42.0645" lon="2.57285">
        <ele>416.4</ele>
        <time>2022-05-21 06:36:42</time>
      </trkpt>
      <trkpt lat="42.06453" lon="2.57288">
        <ele>416.6</ele>
        <time>2022-05-21 06:36:43</time>
      </trkpt>
      <trkpt lat="42.06455" lon="2.57289">
        <ele>416.8</ele>
        <time>2022-05-21 06:36:44</time>
      </trkpt>
      <trkpt lat="42.06458" lon="2.57291">
        <ele>417</ele>
        <time>2022-05-21 06:36:45</time>
      </trkpt>
      <trkpt lat="42.06462" lon="2.57293">
        <ele>417.2</ele>
        <time>2022-05-21 06:36:46</time>
      </trkpt>
      <trkpt lat="42.06465" lon="2.57295">
        <ele>417.2</ele>
        <time>2022-05-21 06:36:47</time>
      </trkpt>
      <trkpt lat="42.06469" lon="2.57296">
        <ele>417.4</ele>
        <time>2022-05-21 06:36:48</time>
      </trkpt>
      <trkpt lat="42.06472" lon="2.57298">
        <ele>417.6</ele>
        <time>2022-05-21 06:36:49</time>
      </trkpt>
      <trkpt lat="42.06477" lon="2.57299">
        <ele>417.8</ele>
        <time>2022-05-21 06:36:50</time>
      </trkpt>
      <trkpt lat="42.0648" lon="2.573">
        <ele>417.8</ele>
        <time>2022-05-21 06:36:51</time>
      </trkpt>
      <trkpt lat="42.06483" lon="2.57301">
        <ele>418</ele>
        <time>2022-05-21 06:36:52</time>
      </trkpt>
      <trkpt lat="42.06487" lon="2.57302">
        <ele>418.2</ele>
        <time>2022-05-21 06:36:53</time>
      </trkpt>
      <trkpt lat="42.06491" lon="2.57303">
        <ele>418.4</ele>
        <time>2022-05-21 06:36:54</time>
      </trkpt>
      <trkpt lat="42.06494" lon="2.57304">
        <ele>418.6</ele>
        <time>2022-05-21 06:36:55</time>
      </trkpt>
      <trkpt lat="42.06497" lon="2.57306">
        <ele>418.6</ele>
        <time>2022-05-21 06:36:56</time>
      </trkpt>
      <trkpt lat="42.06501" lon="2.57307">
        <ele>418.8</ele>
        <time>2022-05-21 06:36:57</time>
      </trkpt>
      <trkpt lat="42.06504" lon="2.57309">
        <ele>419</ele>
        <time>2022-05-21 06:36:58</time>
      </trkpt>
      <trkpt lat="42.06507" lon="2.57311">
        <ele>419.2</ele>
        <time>2022-05-21 06:36:59</time>
      </trkpt>
      <trkpt lat="42.06511" lon="2.57313">
        <ele>419.4</ele>
        <time>2022-05-21 06:37:00</time>
      </trkpt>
      <trkpt lat="42.06514" lon="2.57315">
        <ele>419.6</ele>
        <time>2022-05-21 06:37:01</time>
      </trkpt>
      <trkpt lat="42.06517" lon="2.57318">
        <ele>419.6</ele>
        <time>2022-05-21 06:37:02</time>
      </trkpt>
      <trkpt lat="42.0652" lon="2.57321">
        <ele>419.8</ele>
        <time>2022-05-21 06:37:03</time>
      </trkpt>
      <trkpt lat="42.06523" lon="2.57324">
        <ele>420</ele>
        <time>2022-05-21 06:37:04</time>
      </trkpt>
      <trkpt lat="42.06525" lon="2.57327">
        <ele>420.2</ele>
        <time>2022-05-21 06:37:05</time>
      </trkpt>
      <trkpt lat="42.06528" lon="2.5733">
        <ele>420.2</ele>
        <time>2022-05-21 06:37:06</time>
      </trkpt>
      <trkpt lat="42.0653" lon="2.57334">
        <ele>420.4</ele>
        <time>2022-05-21 06:37:07</time>
      </trkpt>
      <trkpt lat="42.06532" lon="2.57338">
        <ele>420.4</ele>
        <time>2022-05-21 06:37:08</time>
      </trkpt>
      <trkpt lat="42.06534" lon="2.57342">
        <ele>420.6</ele>
        <time>2022-05-21 06:37:09</time>
      </trkpt>
      <trkpt lat="42.06536" lon="2.57346">
        <ele>420.8</ele>
        <time>2022-05-21 06:37:10</time>
      </trkpt>
      <trkpt lat="42.06538" lon="2.5735">
        <ele>420.8</ele>
        <time>2022-05-21 06:37:11</time>
      </trkpt>
      <trkpt lat="42.0654" lon="2.57354">
        <ele>421</ele>
        <time>2022-05-21 06:37:12</time>
      </trkpt>
      <trkpt lat="42.06542" lon="2.57357">
        <ele>421.2</ele>
        <time>2022-05-21 06:37:13</time>
      </trkpt>
      <trkpt lat="42.06544" lon="2.57361">
        <ele>421.4</ele>
        <time>2022-05-21 06:37:14</time>
      </trkpt>
      <trkpt lat="42.06546" lon="2.57365">
        <ele>421.6</ele>
        <time>2022-05-21 06:37:15</time>
      </trkpt>
      <trkpt lat="42.06548" lon="2.57369">
        <ele>421.6</ele>
        <time>2022-05-21 06:37:16</time>
      </trkpt>
      <trkpt lat="42.06549" lon="2.57373">
        <ele>421.8</ele>
        <time>2022-05-21 06:37:17</time>
      </trkpt>
      <trkpt lat="42.06551" lon="2.57378">
        <ele>422</ele>
        <time>2022-05-21 06:37:18</time>
      </trkpt>
      <trkpt lat="42.06553" lon="2.57382">
        <ele>422.2</ele>
        <time>2022-05-21 06:37:19</time>
      </trkpt>
      <trkpt lat="42.06555" lon="2.57386">
        <ele>422.2</ele>
        <time>2022-05-21 06:37:20</time>
      </trkpt>
      <trkpt lat="42.06556" lon="2.5739">
        <ele>422.4</ele>
        <time>2022-05-21 06:37:21</time>
      </trkpt>
      <trkpt lat="42.06558" lon="2.57394">
        <ele>422.6</ele>
        <time>2022-05-21 06:37:22</time>
      </trkpt>
      <trkpt lat="42.06559" lon="2.57399">
        <ele>422.8</ele>
        <time>2022-05-21 06:37:23</time>
      </trkpt>
      <trkpt lat="42.06559" lon="2.57403">
        <ele>423</ele>
        <time>2022-05-21 06:37:24</time>
      </trkpt>
      <trkpt lat="42.06559" lon="2.57408">
        <ele>423.2</ele>
        <time>2022-05-21 06:37:25</time>
      </trkpt>
      <trkpt lat="42.06559" lon="2.57413">
        <ele>423.4</ele>
        <time>2022-05-21 06:37:26</time>
      </trkpt>
      <trkpt lat="42.0656" lon="2.57418">
        <ele>423.6</ele>
        <time>2022-05-21 06:37:27</time>
      </trkpt>
      <trkpt lat="42.0656" lon="2.57422">
        <ele>423.8</ele>
        <time>2022-05-21 06:37:28</time>
      </trkpt>
      <trkpt lat="42.0656" lon="2.57427">
        <ele>424</ele>
        <time>2022-05-21 06:37:29</time>
      </trkpt>
      <trkpt lat="42.06561" lon="2.57431">
        <ele>424</ele>
        <time>2022-05-21 06:37:30</time>
      </trkpt>
      <trkpt lat="42.06561" lon="2.57436">
        <ele>424.2</ele>
        <time>2022-05-21 06:37:31</time>
      </trkpt>
      <trkpt lat="42.06561" lon="2.5744">
        <ele>424.4</ele>
        <time>2022-05-21 06:37:32</time>
      </trkpt>
      <trkpt lat="42.06561" lon="2.57445">
        <ele>424.6</ele>
        <time>2022-05-21 06:37:33</time>
      </trkpt>
      <trkpt lat="42.06561" lon="2.5745">
        <ele>424.8</ele>
        <time>2022-05-21 06:37:34</time>
      </trkpt>
      <trkpt lat="42.06561" lon="2.57455">
        <ele>425</ele>
        <time>2022-05-21 06:37:35</time>
      </trkpt>
      <trkpt lat="42.06561" lon="2.5746">
        <ele>425.2</ele>
        <time>2022-05-21 06:37:36</time>
      </trkpt>
      <trkpt lat="42.06561" lon="2.57465">
        <ele>425.4</ele>
        <time>2022-05-21 06:37:37</time>
      </trkpt>
      <trkpt lat="42.06561" lon="2.57469">
        <ele>425.4</ele>
        <time>2022-05-21 06:37:38</time>
      </trkpt>
      <trkpt lat="42.06561" lon="2.57473">
        <ele>425.6</ele>
        <time>2022-05-21 06:37:39</time>
      </trkpt>
      <trkpt lat="42.06561" lon="2.57478">
        <ele>425.8</ele>
        <time>2022-05-21 06:37:40</time>
      </trkpt>
      <trkpt lat="42.06561" lon="2.57482">
        <ele>426</ele>
        <time>2022-05-21 06:37:41</time>
      </trkpt>
      <trkpt lat="42.0656" lon="2.57486">
        <ele>426.2</ele>
        <time>2022-05-21 06:37:42</time>
      </trkpt>
      <trkpt lat="42.06559" lon="2.5749">
        <ele>426.2</ele>
        <time>2022-05-21 06:37:43</time>
      </trkpt>
      <trkpt lat="42.06558" lon="2.57494">
        <ele>426.4</ele>
        <time>2022-05-21 06:37:44</time>
      </trkpt>
      <trkpt lat="42.06557" lon="2.57498">
        <ele>426.6</ele>
        <time>2022-05-21 06:37:45</time>
      </trkpt>
      <trkpt lat="42.06556" lon="2.57502">
        <ele>426.8</ele>
        <time>2022-05-21 06:37:46</time>
      </trkpt>
      <trkpt lat="42.06554" lon="2.57506">
        <ele>427</ele>
        <time>2022-05-21 06:37:47</time>
      </trkpt>
      <trkpt lat="42.06553" lon="2.57511">
        <ele>427</ele>
        <time>2022-05-21 06:37:48</time>
      </trkpt>
      <trkpt lat="42.06551" lon="2.57515">
        <ele>427.2</ele>
        <time>2022-05-21 06:37:49</time>
      </trkpt>
      <trkpt lat="42.06549" lon="2.5752">
        <ele>427.4</ele>
        <time>2022-05-21 06:37:50</time>
      </trkpt>
      <trkpt lat="42.06548" lon="2.57524">
        <ele>427.6</ele>
        <time>2022-05-21 06:37:51</time>
      </trkpt>
      <trkpt lat="42.06546" lon="2.57528">
        <ele>427.6</ele>
        <time>2022-05-21 06:37:52</time>
      </trkpt>
      <trkpt lat="42.06544" lon="2.57532">
        <ele>427.8</ele>
        <time>2022-05-21 06:37:53</time>
      </trkpt>
      <trkpt lat="42.06543" lon="2.57537">
        <ele>428</ele>
        <time>2022-05-21 06:37:54</time>
      </trkpt>
      <trkpt lat="42.06543" lon="2.57541">
        <ele>428.2</ele>
        <time>2022-05-21 06:37:55</time>
      </trkpt>
      <trkpt lat="42.06543" lon="2.57545">
        <ele>428.2</ele>
        <time>2022-05-21 06:37:56</time>
      </trkpt>
      <trkpt lat="42.06542" lon="2.5755">
        <ele>428.4</ele>
        <time>2022-05-21 06:37:57</time>
      </trkpt>
      <trkpt lat="42.06542" lon="2.57554">
        <ele>428.6</ele>
        <time>2022-05-21 06:37:58</time>
      </trkpt>
      <trkpt lat="42.06543" lon="2.57558">
        <ele>428.8</ele>
        <time>2022-05-21 06:37:59</time>
      </trkpt>
      <trkpt lat="42.06543" lon="2.57562">
        <ele>429</ele>
        <time>2022-05-21 06:38:00</time>
      </trkpt>
      <trkpt lat="42.06544" lon="2.57567">
        <ele>429.2</ele>
        <time>2022-05-21 06:38:01</time>
      </trkpt>
      <trkpt lat="42.06545" lon="2.57571">
        <ele>429.4</ele>
        <time>2022-05-21 06:38:02</time>
      </trkpt>
      <trkpt lat="42.06546" lon="2.57575">
        <ele>429.6</ele>
        <time>2022-05-21 06:38:03</time>
      </trkpt>
      <trkpt lat="42.06548" lon="2.57579">
        <ele>429.8</ele>
        <time>2022-05-21 06:38:04</time>
      </trkpt>
      <trkpt lat="42.0655" lon="2.57583">
        <ele>430</ele>
        <time>2022-05-21 06:38:05</time>
      </trkpt>
      <trkpt lat="42.06552" lon="2.57587">
        <ele>430</ele>
        <time>2022-05-21 06:38:06</time>
      </trkpt>
      <trkpt lat="42.06554" lon="2.57591">
        <ele>430.2</ele>
        <time>2022-05-21 06:38:07</time>
      </trkpt>
      <trkpt lat="42.06556" lon="2.57595">
        <ele>430.4</ele>
        <time>2022-05-21 06:38:08</time>
      </trkpt>
      <trkpt lat="42.06558" lon="2.57599">
        <ele>430.6</ele>
        <time>2022-05-21 06:38:09</time>
      </trkpt>
      <trkpt lat="42.0656" lon="2.57604">
        <ele>430.6</ele>
        <time>2022-05-21 06:38:10</time>
      </trkpt>
      <trkpt lat="42.06562" lon="2.57608">
        <ele>430.8</ele>
        <time>2022-05-21 06:38:11</time>
      </trkpt>
      <trkpt lat="42.06564" lon="2.57612">
        <ele>431</ele>
        <time>2022-05-21 06:38:12</time>
      </trkpt>
      <trkpt lat="42.06565" lon="2.57617">
        <ele>431.2</ele>
        <time>2022-05-21 06:38:13</time>
      </trkpt>
      <trkpt lat="42.06567" lon="2.57621">
        <ele>431.2</ele>
        <time>2022-05-21 06:38:14</time>
      </trkpt>
      <trkpt lat="42.06569" lon="2.57625">
        <ele>431.4</ele>
        <time>2022-05-21 06:38:15</time>
      </trkpt>
      <trkpt lat="42.06571" lon="2.57629">
        <ele>431.6</ele>
        <time>2022-05-21 06:38:16</time>
      </trkpt>
      <trkpt lat="42.06573" lon="2.57633">
        <ele>431.6</ele>
        <time>2022-05-21 06:38:17</time>
      </trkpt>
      <trkpt lat="42.06575" lon="2.57637">
        <ele>431.8</ele>
        <time>2022-05-21 06:38:18</time>
      </trkpt>
      <trkpt lat="42.06577" lon="2.5764">
        <ele>432</ele>
        <time>2022-05-21 06:38:19</time>
      </trkpt>
      <trkpt lat="42.06579" lon="2.57644">
        <ele>432.2</ele>
        <time>2022-05-21 06:38:20</time>
      </trkpt>
      <trkpt lat="42.06581" lon="2.57648">
        <ele>432.4</ele>
        <time>2022-05-21 06:38:21</time>
      </trkpt>
      <trkpt lat="42.06583" lon="2.57651">
        <ele>432.6</ele>
        <time>2022-05-21 06:38:22</time>
      </trkpt>
      <trkpt lat="42.06585" lon="2.57655">
        <ele>432.6</ele>
        <time>2022-05-21 06:38:23</time>
      </trkpt>
      <trkpt lat="42.06587" lon="2.57658">
        <ele>432.8</ele>
        <time>2022-05-21 06:38:24</time>
      </trkpt>
      <trkpt lat="42.0659" lon="2.57662">
        <ele>433</ele>
        <time>2022-05-21 06:38:25</time>
      </trkpt>
      <trkpt lat="42.06592" lon="2.57665">
        <ele>433.2</ele>
        <time>2022-05-21 06:38:26</time>
      </trkpt>
      <trkpt lat="42.06594" lon="2.57668">
        <ele>433.4</ele>
        <time>2022-05-21 06:38:27</time>
      </trkpt>
      <trkpt lat="42.06597" lon="2.5767">
        <ele>433.6</ele>
        <time>2022-05-21 06:38:28</time>
      </trkpt>
      <trkpt lat="42.066" lon="2.57672">
        <ele>433.6</ele>
        <time>2022-05-21 06:38:29</time>
      </trkpt>
      <trkpt lat="42.06603" lon="2.57672">
        <ele>433.8</ele>
        <time>2022-05-21 06:38:30</time>
      </trkpt>
      <trkpt lat="42.06606" lon="2.57672">
        <ele>434</ele>
        <time>2022-05-21 06:38:31</time>
      </trkpt>
      <trkpt lat="42.0661" lon="2.57672">
        <ele>434.2</ele>
        <time>2022-05-21 06:38:32</time>
      </trkpt>
      <trkpt lat="42.06613" lon="2.57671">
        <ele>434.4</ele>
        <time>2022-05-21 06:38:33</time>
      </trkpt>
      <trkpt lat="42.06615" lon="2.57671">
        <ele>434.4</ele>
        <time>2022-05-21 06:38:34</time>
      </trkpt>
      <trkpt lat="42.06618" lon="2.5767">
        <ele>434.6</ele>
        <time>2022-05-21 06:38:35</time>
      </trkpt>
      <trkpt lat="42.06621" lon="2.57669">
        <ele>434.8</ele>
        <time>2022-05-21 06:38:36</time>
      </trkpt>
      <trkpt lat="42.06624" lon="2.57667">
        <ele>435</ele>
        <time>2022-05-21 06:38:37</time>
      </trkpt>
      <trkpt lat="42.06627" lon="2.57665">
        <ele>435.2</ele>
        <time>2022-05-21 06:38:38</time>
      </trkpt>
      <trkpt lat="42.0663" lon="2.57663">
        <ele>435.4</ele>
        <time>2022-05-21 06:38:39</time>
      </trkpt>
      <trkpt lat="42.06633" lon="2.57661">
        <ele>435.6</ele>
        <time>2022-05-21 06:38:40</time>
      </trkpt>
      <trkpt lat="42.06635" lon="2.57659">
        <ele>435.6</ele>
        <time>2022-05-21 06:38:41</time>
      </trkpt>
      <trkpt lat="42.06638" lon="2.57658">
        <ele>435.8</ele>
        <time>2022-05-21 06:38:42</time>
      </trkpt>
      <trkpt lat="42.06641" lon="2.57656">
        <ele>436</ele>
        <time>2022-05-21 06:38:43</time>
      </trkpt>
      <trkpt lat="42.06643" lon="2.57654">
        <ele>436</ele>
        <time>2022-05-21 06:38:44</time>
      </trkpt>
      <trkpt lat="42.06646" lon="2.57653">
        <ele>436.2</ele>
        <time>2022-05-21 06:38:45</time>
      </trkpt>
      <trkpt lat="42.06649" lon="2.57651">
        <ele>436.4</ele>
        <time>2022-05-21 06:38:46</time>
      </trkpt>
      <trkpt lat="42.06651" lon="2.5765">
        <ele>436.4</ele>
        <time>2022-05-21 06:38:47</time>
      </trkpt>
      <trkpt lat="42.06654" lon="2.5765">
        <ele>436.6</ele>
        <time>2022-05-21 06:38:48</time>
      </trkpt>
      <trkpt lat="42.06656" lon="2.5765">
        <ele>436.6</ele>
        <time>2022-05-21 06:38:49</time>
      </trkpt>
      <trkpt lat="42.06658" lon="2.57649">
        <ele>436.8</ele>
        <time>2022-05-21 06:38:50</time>
      </trkpt>
      <trkpt lat="42.0666" lon="2.57649">
        <ele>436.8</ele>
        <time>2022-05-21 06:38:51</time>
      </trkpt>
      <trkpt lat="42.06664" lon="2.5765">
        <ele>437</ele>
        <time>2022-05-21 06:38:52</time>
      </trkpt>
      <trkpt lat="42.06667" lon="2.5765">
        <ele>437</ele>
        <time>2022-05-21 06:38:53</time>
      </trkpt>
      <trkpt lat="42.0667" lon="2.57651">
        <ele>437</ele>
        <time>2022-05-21 06:38:54</time>
      </trkpt>
      <trkpt lat="42.06674" lon="2.57651">
        <ele>437.2</ele>
        <time>2022-05-21 06:38:55</time>
      </trkpt>
      <trkpt lat="42.06678" lon="2.57652">
        <ele>437.2</ele>
        <time>2022-05-21 06:38:56</time>
      </trkpt>
      <trkpt lat="42.06682" lon="2.57654">
        <ele>437.4</ele>
        <time>2022-05-21 06:38:57</time>
      </trkpt>
      <trkpt lat="42.06686" lon="2.57655">
        <ele>437.4</ele>
        <time>2022-05-21 06:38:58</time>
      </trkpt>
      <trkpt lat="42.06691" lon="2.57656">
        <ele>437.4</ele>
        <time>2022-05-21 06:38:59</time>
      </trkpt>
      <trkpt lat="42.06696" lon="2.57657">
        <ele>437.4</ele>
        <time>2022-05-21 06:39:00</time>
      </trkpt>
      <trkpt lat="42.067" lon="2.57657">
        <ele>437.6</ele>
        <time>2022-05-21 06:39:01</time>
      </trkpt>
      <trkpt lat="42.06705" lon="2.57658">
        <ele>437.6</ele>
        <time>2022-05-21 06:39:02</time>
      </trkpt>
      <trkpt lat="42.06709" lon="2.57658">
        <ele>437.8</ele>
        <time>2022-05-21 06:39:03</time>
      </trkpt>
      <trkpt lat="42.06714" lon="2.57658">
        <ele>437.8</ele>
        <time>2022-05-21 06:39:04</time>
      </trkpt>
      <trkpt lat="42.06718" lon="2.57657">
        <ele>437.8</ele>
        <time>2022-05-21 06:39:05</time>
      </trkpt>
      <trkpt lat="42.06723" lon="2.57656">
        <ele>438</ele>
        <time>2022-05-21 06:39:06</time>
      </trkpt>
      <trkpt lat="42.06728" lon="2.57656">
        <ele>438</ele>
        <time>2022-05-21 06:39:07</time>
      </trkpt>
      <trkpt lat="42.06733" lon="2.57655">
        <ele>438</ele>
        <time>2022-05-21 06:39:08</time>
      </trkpt>
      <trkpt lat="42.06738" lon="2.57655">
        <ele>438.2</ele>
        <time>2022-05-21 06:39:09</time>
      </trkpt>
      <trkpt lat="42.06743" lon="2.57655">
        <ele>438.2</ele>
        <time>2022-05-21 06:39:10</time>
      </trkpt>
      <trkpt lat="42.06749" lon="2.57655">
        <ele>438.2</ele>
        <time>2022-05-21 06:39:11</time>
      </trkpt>
      <trkpt lat="42.06754" lon="2.57655">
        <ele>438.4</ele>
        <time>2022-05-21 06:39:12</time>
      </trkpt>
      <trkpt lat="42.06759" lon="2.57656">
        <ele>438.4</ele>
        <time>2022-05-21 06:39:13</time>
      </trkpt>
      <trkpt lat="42.06764" lon="2.57658">
        <ele>438.6</ele>
        <time>2022-05-21 06:39:14</time>
      </trkpt>
      <trkpt lat="42.06769" lon="2.57659">
        <ele>438.6</ele>
        <time>2022-05-21 06:39:15</time>
      </trkpt>
      <trkpt lat="42.06773" lon="2.57661">
        <ele>438.8</ele>
        <time>2022-05-21 06:39:16</time>
      </trkpt>
      <trkpt lat="42.06778" lon="2.57663">
        <ele>439</ele>
        <time>2022-05-21 06:39:17</time>
      </trkpt>
      <trkpt lat="42.06783" lon="2.57665">
        <ele>439</ele>
        <time>2022-05-21 06:39:18</time>
      </trkpt>
      <trkpt lat="42.06787" lon="2.57668">
        <ele>439.2</ele>
        <time>2022-05-21 06:39:19</time>
      </trkpt>
      <trkpt lat="42.06792" lon="2.57671">
        <ele>439.4</ele>
        <time>2022-05-21 06:39:20</time>
      </trkpt>
      <trkpt lat="42.06796" lon="2.57674">
        <ele>439.4</ele>
        <time>2022-05-21 06:39:21</time>
      </trkpt>
      <trkpt lat="42.068" lon="2.57677">
        <ele>439.6</ele>
        <time>2022-05-21 06:39:22</time>
      </trkpt>
      <trkpt lat="42.06804" lon="2.57681">
        <ele>439.6</ele>
        <time>2022-05-21 06:39:23</time>
      </trkpt>
      <trkpt lat="42.06807" lon="2.57686">
        <ele>439.8</ele>
        <time>2022-05-21 06:39:24</time>
      </trkpt>
      <trkpt lat="42.06811" lon="2.5769">
        <ele>439.8</ele>
        <time>2022-05-21 06:39:25</time>
      </trkpt>
      <trkpt lat="42.06814" lon="2.57695">
        <ele>440</ele>
        <time>2022-05-21 06:39:26</time>
      </trkpt>
      <trkpt lat="42.06817" lon="2.577">
        <ele>440.2</ele>
        <time>2022-05-21 06:39:27</time>
      </trkpt>
      <trkpt lat="42.0682" lon="2.57704">
        <ele>440.2</ele>
        <time>2022-05-21 06:39:28</time>
      </trkpt>
      <trkpt lat="42.06823" lon="2.57708">
        <ele>440.4</ele>
        <time>2022-05-21 06:39:29</time>
      </trkpt>
      <trkpt lat="42.06826" lon="2.57712">
        <ele>440.4</ele>
        <time>2022-05-21 06:39:30</time>
      </trkpt>
      <trkpt lat="42.0683" lon="2.57716">
        <ele>440.6</ele>
        <time>2022-05-21 06:39:31</time>
      </trkpt>
      <trkpt lat="42.06834" lon="2.57719">
        <ele>440.6</ele>
        <time>2022-05-21 06:39:32</time>
      </trkpt>
      <trkpt lat="42.06837" lon="2.57722">
        <ele>440.8</ele>
        <time>2022-05-21 06:39:33</time>
      </trkpt>
      <trkpt lat="42.06842" lon="2.57724">
        <ele>441</ele>
        <time>2022-05-21 06:39:34</time>
      </trkpt>
      <trkpt lat="42.06846" lon="2.57726">
        <ele>441</ele>
        <time>2022-05-21 06:39:35</time>
      </trkpt>
      <trkpt lat="42.0685" lon="2.57728">
        <ele>441.2</ele>
        <time>2022-05-21 06:39:36</time>
      </trkpt>
      <trkpt lat="42.06854" lon="2.5773">
        <ele>441.2</ele>
        <time>2022-05-21 06:39:37</time>
      </trkpt>
      <trkpt lat="42.06858" lon="2.57732">
        <ele>441.4</ele>
        <time>2022-05-21 06:39:38</time>
      </trkpt>
      <trkpt lat="42.06863" lon="2.57733">
        <ele>441.4</ele>
        <time>2022-05-21 06:39:39</time>
      </trkpt>
      <trkpt lat="42.06867" lon="2.57734">
        <ele>441.6</ele>
        <time>2022-05-21 06:39:40</time>
      </trkpt>
      <trkpt lat="42.06872" lon="2.57735">
        <ele>441.8</ele>
        <time>2022-05-21 06:39:41</time>
      </trkpt>
      <trkpt lat="42.06876" lon="2.57737">
        <ele>442</ele>
        <time>2022-05-21 06:39:42</time>
      </trkpt>
      <trkpt lat="42.06881" lon="2.57739">
        <ele>442</ele>
        <time>2022-05-21 06:39:43</time>
      </trkpt>
      <trkpt lat="42.06885" lon="2.57742">
        <ele>442.2</ele>
        <time>2022-05-21 06:39:44</time>
      </trkpt>
      <trkpt lat="42.06889" lon="2.57744">
        <ele>442.4</ele>
        <time>2022-05-21 06:39:45</time>
      </trkpt>
      <trkpt lat="42.06893" lon="2.57746">
        <ele>442.4</ele>
        <time>2022-05-21 06:39:46</time>
      </trkpt>
      <trkpt lat="42.06897" lon="2.57749">
        <ele>442.6</ele>
        <time>2022-05-21 06:39:47</time>
      </trkpt>
      <trkpt lat="42.06901" lon="2.57751">
        <ele>442.8</ele>
        <time>2022-05-21 06:39:48</time>
      </trkpt>
      <trkpt lat="42.06905" lon="2.57753">
        <ele>443</ele>
        <time>2022-05-21 06:39:49</time>
      </trkpt>
      <trkpt lat="42.0691" lon="2.57755">
        <ele>443</ele>
        <time>2022-05-21 06:39:50</time>
      </trkpt>
      <trkpt lat="42.06913" lon="2.57758">
        <ele>443.2</ele>
        <time>2022-05-21 06:39:51</time>
      </trkpt>
      <trkpt lat="42.06917" lon="2.5776">
        <ele>443.2</ele>
        <time>2022-05-21 06:39:52</time>
      </trkpt>
      <trkpt lat="42.0692" lon="2.57763">
        <ele>443.4</ele>
        <time>2022-05-21 06:39:53</time>
      </trkpt>
      <trkpt lat="42.06924" lon="2.57766">
        <ele>443.6</ele>
        <time>2022-05-21 06:39:54</time>
      </trkpt>
      <trkpt lat="42.06927" lon="2.5777">
        <ele>443.6</ele>
        <time>2022-05-21 06:39:55</time>
      </trkpt>
      <trkpt lat="42.0693" lon="2.57775">
        <ele>443.6</ele>
        <time>2022-05-21 06:39:56</time>
      </trkpt>
      <trkpt lat="42.06933" lon="2.5778">
        <ele>443.8</ele>
        <time>2022-05-21 06:39:57</time>
      </trkpt>
      <trkpt lat="42.06935" lon="2.57785">
        <ele>443.8</ele>
        <time>2022-05-21 06:39:58</time>
      </trkpt>
      <trkpt lat="42.06936" lon="2.5779">
        <ele>444</ele>
        <time>2022-05-21 06:39:59</time>
      </trkpt>
      <trkpt lat="42.06936" lon="2.57796">
        <ele>444.2</ele>
        <time>2022-05-21 06:40:00</time>
      </trkpt>
      <trkpt lat="42.06935" lon="2.57802">
        <ele>444.4</ele>
        <time>2022-05-21 06:40:01</time>
      </trkpt>
      <trkpt lat="42.06934" lon="2.57808">
        <ele>444.6</ele>
        <time>2022-05-21 06:40:02</time>
      </trkpt>
      <trkpt lat="42.06932" lon="2.57813">
        <ele>444.8</ele>
        <time>2022-05-21 06:40:03</time>
      </trkpt>
      <trkpt lat="42.0693" lon="2.57818">
        <ele>445</ele>
        <time>2022-05-21 06:40:04</time>
      </trkpt>
      <trkpt lat="42.06928" lon="2.57823">
        <ele>445.2</ele>
        <time>2022-05-21 06:40:05</time>
      </trkpt>
      <trkpt lat="42.06926" lon="2.57829">
        <ele>445.4</ele>
        <time>2022-05-21 06:40:06</time>
      </trkpt>
      <trkpt lat="42.06923" lon="2.57835">
        <ele>445.4</ele>
        <time>2022-05-21 06:40:07</time>
      </trkpt>
      <trkpt lat="42.0692" lon="2.57841">
        <ele>445.6</ele>
        <time>2022-05-21 06:40:08</time>
      </trkpt>
      <trkpt lat="42.06917" lon="2.57846">
        <ele>445.8</ele>
        <time>2022-05-21 06:40:09</time>
      </trkpt>
      <trkpt lat="42.06915" lon="2.57851">
        <ele>446</ele>
        <time>2022-05-21 06:40:10</time>
      </trkpt>
      <trkpt lat="42.06912" lon="2.57855">
        <ele>446.2</ele>
        <time>2022-05-21 06:40:11</time>
      </trkpt>
      <trkpt lat="42.06909" lon="2.5786">
        <ele>446.4</ele>
        <time>2022-05-21 06:40:12</time>
      </trkpt>
      <trkpt lat="42.06907" lon="2.57866">
        <ele>446.6</ele>
        <time>2022-05-21 06:40:13</time>
      </trkpt>
      <trkpt lat="42.06905" lon="2.57872">
        <ele>446.8</ele>
        <time>2022-05-21 06:40:14</time>
      </trkpt>
      <trkpt lat="42.06904" lon="2.57877">
        <ele>446.8</ele>
        <time>2022-05-21 06:40:15</time>
      </trkpt>
      <trkpt lat="42.06903" lon="2.57883">
        <ele>447</ele>
        <time>2022-05-21 06:40:16</time>
      </trkpt>
      <trkpt lat="42.06904" lon="2.57889">
        <ele>447.2</ele>
        <time>2022-05-21 06:40:17</time>
      </trkpt>
      <trkpt lat="42.06905" lon="2.57895">
        <ele>447.2</ele>
        <time>2022-05-21 06:40:18</time>
      </trkpt>
      <trkpt lat="42.06907" lon="2.57901">
        <ele>447.4</ele>
        <time>2022-05-21 06:40:19</time>
      </trkpt>
      <trkpt lat="42.0691" lon="2.57906">
        <ele>447.4</ele>
        <time>2022-05-21 06:40:20</time>
      </trkpt>
      <trkpt lat="42.06913" lon="2.5791">
        <ele>447.6</ele>
        <time>2022-05-21 06:40:21</time>
      </trkpt>
      <trkpt lat="42.06916" lon="2.57914">
        <ele>447.6</ele>
        <time>2022-05-21 06:40:22</time>
      </trkpt>
      <trkpt lat="42.06921" lon="2.57917">
        <ele>447.8</ele>
        <time>2022-05-21 06:40:23</time>
      </trkpt>
      <trkpt lat="42.06925" lon="2.5792">
        <ele>448</ele>
        <time>2022-05-21 06:40:24</time>
      </trkpt>
      <trkpt lat="42.06929" lon="2.57922">
        <ele>448</ele>
        <time>2022-05-21 06:40:25</time>
      </trkpt>
      <trkpt lat="42.06934" lon="2.57925">
        <ele>448.2</ele>
        <time>2022-05-21 06:40:26</time>
      </trkpt>
      <trkpt lat="42.06938" lon="2.57928">
        <ele>448.2</ele>
        <time>2022-05-21 06:40:27</time>
      </trkpt>
      <trkpt lat="42.06942" lon="2.57931">
        <ele>448.4</ele>
        <time>2022-05-21 06:40:28</time>
      </trkpt>
      <trkpt lat="42.06946" lon="2.57934">
        <ele>448.4</ele>
        <time>2022-05-21 06:40:29</time>
      </trkpt>
      <trkpt lat="42.0695" lon="2.57937">
        <ele>448.6</ele>
        <time>2022-05-21 06:40:30</time>
      </trkpt>
      <trkpt lat="42.06954" lon="2.57941">
        <ele>448.8</ele>
        <time>2022-05-21 06:40:31</time>
      </trkpt>
      <trkpt lat="42.06958" lon="2.57946">
        <ele>448.8</ele>
        <time>2022-05-21 06:40:32</time>
      </trkpt>
      <trkpt lat="42.06961" lon="2.5795">
        <ele>449</ele>
        <time>2022-05-21 06:40:33</time>
      </trkpt>
      <trkpt lat="42.06964" lon="2.57954">
        <ele>449.2</ele>
        <time>2022-05-21 06:40:34</time>
      </trkpt>
      <trkpt lat="42.06968" lon="2.57959">
        <ele>449.4</ele>
        <time>2022-05-21 06:40:35</time>
      </trkpt>
      <trkpt lat="42.06971" lon="2.57963">
        <ele>449.4</ele>
        <time>2022-05-21 06:40:36</time>
      </trkpt>
      <trkpt lat="42.06974" lon="2.57968">
        <ele>449.6</ele>
        <time>2022-05-21 06:40:37</time>
      </trkpt>
      <trkpt lat="42.06976" lon="2.57973">
        <ele>449.8</ele>
        <time>2022-05-21 06:40:38</time>
      </trkpt>
      <trkpt lat="42.06978" lon="2.57979">
        <ele>450</ele>
        <time>2022-05-21 06:40:39</time>
      </trkpt>
      <trkpt lat="42.0698" lon="2.57984">
        <ele>450.2</ele>
        <time>2022-05-21 06:40:40</time>
      </trkpt>
      <trkpt lat="42.06982" lon="2.57989">
        <ele>450.2</ele>
        <time>2022-05-21 06:40:41</time>
      </trkpt>
      <trkpt lat="42.06984" lon="2.57995">
        <ele>450.4</ele>
        <time>2022-05-21 06:40:42</time>
      </trkpt>
      <trkpt lat="42.06985" lon="2.58">
        <ele>450.6</ele>
        <time>2022-05-21 06:40:43</time>
      </trkpt>
      <trkpt lat="42.06987" lon="2.58006">
        <ele>450.6</ele>
        <time>2022-05-21 06:40:44</time>
      </trkpt>
      <trkpt lat="42.06989" lon="2.58012">
        <ele>450.8</ele>
        <time>2022-05-21 06:40:45</time>
      </trkpt>
      <trkpt lat="42.0699" lon="2.58017">
        <ele>450.8</ele>
        <time>2022-05-21 06:40:46</time>
      </trkpt>
      <trkpt lat="42.06992" lon="2.58023">
        <ele>451</ele>
        <time>2022-05-21 06:40:47</time>
      </trkpt>
      <trkpt lat="42.06994" lon="2.58029">
        <ele>451</ele>
        <time>2022-05-21 06:40:48</time>
      </trkpt>
      <trkpt lat="42.06996" lon="2.58035">
        <ele>451</ele>
        <time>2022-05-21 06:40:49</time>
      </trkpt>
      <trkpt lat="42.06998" lon="2.58042">
        <ele>451</ele>
        <time>2022-05-21 06:40:50</time>
      </trkpt>
      <trkpt lat="42.07001" lon="2.58048">
        <ele>451</ele>
        <time>2022-05-21 06:40:51</time>
      </trkpt>
      <trkpt lat="42.07003" lon="2.58055">
        <ele>450.8</ele>
        <time>2022-05-21 06:40:52</time>
      </trkpt>
      <trkpt lat="42.07006" lon="2.58062">
        <ele>450.8</ele>
        <time>2022-05-21 06:40:53</time>
      </trkpt>
      <trkpt lat="42.0701" lon="2.58068">
        <ele>450.6</ele>
        <time>2022-05-21 06:40:54</time>
      </trkpt>
      <trkpt lat="42.07014" lon="2.58074">
        <ele>450.2</ele>
        <time>2022-05-21 06:40:55</time>
      </trkpt>
      <trkpt lat="42.0702" lon="2.58078">
        <ele>450</ele>
        <time>2022-05-21 06:40:56</time>
      </trkpt>
      <trkpt lat="42.07026" lon="2.58081">
        <ele>449.6</ele>
        <time>2022-05-21 06:40:57</time>
      </trkpt>
      <trkpt lat="42.07032" lon="2.58082">
        <ele>449.2</ele>
        <time>2022-05-21 06:40:58</time>
      </trkpt>
      <trkpt lat="42.07039" lon="2.58082">
        <ele>448.8</ele>
        <time>2022-05-21 06:40:59</time>
      </trkpt>
      <trkpt lat="42.07046" lon="2.58082">
        <ele>448.6</ele>
        <time>2022-05-21 06:41:00</time>
      </trkpt>
      <trkpt lat="42.07053" lon="2.58081">
        <ele>448.2</ele>
        <time>2022-05-21 06:41:01</time>
      </trkpt>
      <trkpt lat="42.0706" lon="2.58079">
        <ele>448</ele>
        <time>2022-05-21 06:41:02</time>
      </trkpt>
      <trkpt lat="42.07068" lon="2.58078">
        <ele>447.6</ele>
        <time>2022-05-21 06:41:03</time>
      </trkpt>
      <trkpt lat="42.07076" lon="2.58077">
        <ele>447.4</ele>
        <time>2022-05-21 06:41:04</time>
      </trkpt>
      <trkpt lat="42.07084" lon="2.58077">
        <ele>446.8</ele>
        <time>2022-05-21 06:41:05</time>
      </trkpt>
      <trkpt lat="42.07091" lon="2.58077">
        <ele>446.6</ele>
        <time>2022-05-21 06:41:06</time>
      </trkpt>
      <trkpt lat="42.07098" lon="2.58077">
        <ele>446.2</ele>
        <time>2022-05-21 06:41:07</time>
      </trkpt>
      <trkpt lat="42.07107" lon="2.5808">
        <ele>445.8</ele>
        <time>2022-05-21 06:41:08</time>
      </trkpt>
      <trkpt lat="42.07114" lon="2.58084">
        <ele>445.4</ele>
        <time>2022-05-21 06:41:09</time>
      </trkpt>
      <trkpt lat="42.0712" lon="2.58087">
        <ele>444.8</ele>
        <time>2022-05-21 06:41:10</time>
      </trkpt>
      <trkpt lat="42.07131" lon="2.58096">
        <ele>444.4</ele>
        <time>2022-05-21 06:41:11</time>
      </trkpt>
      <trkpt lat="42.07139" lon="2.58101">
        <ele>444</ele>
        <time>2022-05-21 06:41:12</time>
      </trkpt>
      <trkpt lat="42.07148" lon="2.58105">
        <ele>443.4</ele>
        <time>2022-05-21 06:41:13</time>
      </trkpt>
      <trkpt lat="42.07156" lon="2.58108">
        <ele>443</ele>
        <time>2022-05-21 06:41:14</time>
      </trkpt>
      <trkpt lat="42.07165" lon="2.58106">
        <ele>442.6</ele>
        <time>2022-05-21 06:41:15</time>
      </trkpt>
      <trkpt lat="42.07172" lon="2.581">
        <ele>442.2</ele>
        <time>2022-05-21 06:41:16</time>
      </trkpt>
      <trkpt lat="42.07175" lon="2.5809">
        <ele>441.8</ele>
        <time>2022-05-21 06:41:17</time>
      </trkpt>
      <trkpt lat="42.07173" lon="2.58078">
        <ele>441.6</ele>
        <time>2022-05-21 06:41:18</time>
      </trkpt>
      <trkpt lat="42.0717" lon="2.58065">
        <ele>441</ele>
        <time>2022-05-21 06:41:19</time>
      </trkpt>
      <trkpt lat="42.07166" lon="2.58054">
        <ele>440.4</ele>
        <time>2022-05-21 06:41:20</time>
      </trkpt>
      <trkpt lat="42.07161" lon="2.58045">
        <ele>440</ele>
        <time>2022-05-21 06:41:21</time>
      </trkpt>
      <trkpt lat="42.07154" lon="2.58037">
        <ele>439.6</ele>
        <time>2022-05-21 06:41:22</time>
      </trkpt>
      <trkpt lat="42.07147" lon="2.5803">
        <ele>439.2</ele>
        <time>2022-05-21 06:41:23</time>
      </trkpt>
      <trkpt lat="42.0714" lon="2.58023">
        <ele>438.8</ele>
        <time>2022-05-21 06:41:24</time>
      </trkpt>
      <trkpt lat="42.07132" lon="2.58016">
        <ele>438.4</ele>
        <time>2022-05-21 06:41:25</time>
      </trkpt>
      <trkpt lat="42.07125" lon="2.58009">
        <ele>438</ele>
        <time>2022-05-21 06:41:26</time>
      </trkpt>
      <trkpt lat="42.0712" lon="2.58">
        <ele>437.6</ele>
        <time>2022-05-21 06:41:27</time>
      </trkpt>
      <trkpt lat="42.07116" lon="2.5799">
        <ele>437</ele>
        <time>2022-05-21 06:41:28</time>
      </trkpt>
      <trkpt lat="42.07115" lon="2.5798">
        <ele>436.4</ele>
        <time>2022-05-21 06:41:29</time>
      </trkpt>
      <trkpt lat="42.07117" lon="2.57969">
        <ele>435.8</ele>
        <time>2022-05-21 06:41:30</time>
      </trkpt>
      <trkpt lat="42.07124" lon="2.57959">
        <ele>435.2</ele>
        <time>2022-05-21 06:41:31</time>
      </trkpt>
      <trkpt lat="42.07129" lon="2.57951">
        <ele>434.8</ele>
        <time>2022-05-21 06:41:32</time>
      </trkpt>
      <trkpt lat="42.07134" lon="2.57944">
        <ele>434.4</ele>
        <time>2022-05-21 06:41:33</time>
      </trkpt>
      <trkpt lat="42.07143" lon="2.57939">
        <ele>434</ele>
        <time>2022-05-21 06:41:34</time>
      </trkpt>
      <trkpt lat="42.07154" lon="2.57935">
        <ele>433.4</ele>
        <time>2022-05-21 06:41:35</time>
      </trkpt>
      <trkpt lat="42.07165" lon="2.5793">
        <ele>433</ele>
        <time>2022-05-21 06:41:36</time>
      </trkpt>
      <trkpt lat="42.07175" lon="2.57924">
        <ele>432.6</ele>
        <time>2022-05-21 06:41:37</time>
      </trkpt>
      <trkpt lat="42.07186" lon="2.57918">
        <ele>432.2</ele>
        <time>2022-05-21 06:41:38</time>
      </trkpt>
      <trkpt lat="42.07197" lon="2.57914">
        <ele>431.6</ele>
        <time>2022-05-21 06:41:39</time>
      </trkpt>
      <trkpt lat="42.07207" lon="2.57912">
        <ele>431</ele>
        <time>2022-05-21 06:41:40</time>
      </trkpt>
      <trkpt lat="42.07217" lon="2.57914">
        <ele>430.4</ele>
        <time>2022-05-21 06:41:41</time>
      </trkpt>
      <trkpt lat="42.07226" lon="2.57916">
        <ele>430</ele>
        <time>2022-05-21 06:41:42</time>
      </trkpt>
      <trkpt lat="42.07236" lon="2.57916">
        <ele>429.6</ele>
        <time>2022-05-21 06:41:43</time>
      </trkpt>
      <trkpt lat="42.07245" lon="2.57915">
        <ele>429</ele>
        <time>2022-05-21 06:41:44</time>
      </trkpt>
      <trkpt lat="42.07255" lon="2.57913">
        <ele>428.6</ele>
        <time>2022-05-21 06:41:45</time>
      </trkpt>
      <trkpt lat="42.07264" lon="2.57912">
        <ele>428</ele>
        <time>2022-05-21 06:41:46</time>
      </trkpt>
      <trkpt lat="42.07274" lon="2.57911">
        <ele>427.4</ele>
        <time>2022-05-21 06:41:47</time>
      </trkpt>
      <trkpt lat="42.07283" lon="2.57913">
        <ele>427</ele>
        <time>2022-05-21 06:41:48</time>
      </trkpt>
      <trkpt lat="42.0729" lon="2.5792">
        <ele>426.6</ele>
        <time>2022-05-21 06:41:49</time>
      </trkpt>
      <trkpt lat="42.07295" lon="2.5793">
        <ele>426.2</ele>
        <time>2022-05-21 06:41:50</time>
      </trkpt>
      <trkpt lat="42.073" lon="2.57942">
        <ele>425.6</ele>
        <time>2022-05-21 06:41:51</time>
      </trkpt>
      <trkpt lat="42.07304" lon="2.57957">
        <ele>425</ele>
        <time>2022-05-21 06:41:52</time>
      </trkpt>
      <trkpt lat="42.0731" lon="2.5797">
        <ele>424.4</ele>
        <time>2022-05-21 06:41:53</time>
      </trkpt>
      <trkpt lat="42.07316" lon="2.57983">
        <ele>423.8</ele>
        <time>2022-05-21 06:41:54</time>
      </trkpt>
      <trkpt lat="42.07324" lon="2.57995">
        <ele>423</ele>
        <time>2022-05-21 06:41:55</time>
      </trkpt>
      <trkpt lat="42.07332" lon="2.58006">
        <ele>422.4</ele>
        <time>2022-05-21 06:41:56</time>
      </trkpt>
      <trkpt lat="42.07341" lon="2.58017">
        <ele>421.6</ele>
        <time>2022-05-21 06:41:57</time>
      </trkpt>
      <trkpt lat="42.07351" lon="2.58027">
        <ele>420.8</ele>
        <time>2022-05-21 06:41:58</time>
      </trkpt>
      <trkpt lat="42.0736" lon="2.58036">
        <ele>420</ele>
        <time>2022-05-21 06:41:59</time>
      </trkpt>
      <trkpt lat="42.0737" lon="2.58046">
        <ele>419.2</ele>
        <time>2022-05-21 06:42:00</time>
      </trkpt>
      <trkpt lat="42.0738" lon="2.58056">
        <ele>418.4</ele>
        <time>2022-05-21 06:42:01</time>
      </trkpt>
      <trkpt lat="42.07389" lon="2.58067">
        <ele>417.8</ele>
        <time>2022-05-21 06:42:02</time>
      </trkpt>
      <trkpt lat="42.07397" lon="2.58078">
        <ele>417.2</ele>
        <time>2022-05-21 06:42:03</time>
      </trkpt>
      <trkpt lat="42.07405" lon="2.58087">
        <ele>416.4</ele>
        <time>2022-05-21 06:42:04</time>
      </trkpt>
      <trkpt lat="42.07414" lon="2.58094">
        <ele>416</ele>
        <time>2022-05-21 06:42:05</time>
      </trkpt>
      <trkpt lat="42.07423" lon="2.58097">
        <ele>415.4</ele>
        <time>2022-05-21 06:42:06</time>
      </trkpt>
      <trkpt lat="42.07431" lon="2.58097">
        <ele>415</ele>
        <time>2022-05-21 06:42:07</time>
      </trkpt>
      <trkpt lat="42.07438" lon="2.58092">
        <ele>414.6</ele>
        <time>2022-05-21 06:42:08</time>
      </trkpt>
      <trkpt lat="42.07444" lon="2.58083">
        <ele>414.2</ele>
        <time>2022-05-21 06:42:09</time>
      </trkpt>
      <trkpt lat="42.07451" lon="2.58074">
        <ele>413.8</ele>
        <time>2022-05-21 06:42:10</time>
      </trkpt>
      <trkpt lat="42.07458" lon="2.58067">
        <ele>413.4</ele>
        <time>2022-05-21 06:42:11</time>
      </trkpt>
      <trkpt lat="42.07465" lon="2.5806">
        <ele>413</ele>
        <time>2022-05-21 06:42:12</time>
      </trkpt>
      <trkpt lat="42.0747" lon="2.58051">
        <ele>412.6</ele>
        <time>2022-05-21 06:42:13</time>
      </trkpt>
      <trkpt lat="42.07474" lon="2.58041">
        <ele>412.2</ele>
        <time>2022-05-21 06:42:14</time>
      </trkpt>
      <trkpt lat="42.07476" lon="2.58029">
        <ele>411.8</ele>
        <time>2022-05-21 06:42:15</time>
      </trkpt>
      <trkpt lat="42.07477" lon="2.58016">
        <ele>411.2</ele>
        <time>2022-05-21 06:42:16</time>
      </trkpt>
      <trkpt lat="42.07477" lon="2.58003">
        <ele>410.8</ele>
        <time>2022-05-21 06:42:17</time>
      </trkpt>
      <trkpt lat="42.07477" lon="2.5799">
        <ele>410.4</ele>
        <time>2022-05-21 06:42:18</time>
      </trkpt>
      <trkpt lat="42.07476" lon="2.57978">
        <ele>410</ele>
        <time>2022-05-21 06:42:19</time>
      </trkpt>
      <trkpt lat="42.07476" lon="2.57965">
        <ele>409.6</ele>
        <time>2022-05-21 06:42:20</time>
      </trkpt>
      <trkpt lat="42.07479" lon="2.57954">
        <ele>409</ele>
        <time>2022-05-21 06:42:21</time>
      </trkpt>
      <trkpt lat="42.07484" lon="2.57943">
        <ele>408.6</ele>
        <time>2022-05-21 06:42:22</time>
      </trkpt>
      <trkpt lat="42.0749" lon="2.57934">
        <ele>408</ele>
        <time>2022-05-21 06:42:23</time>
      </trkpt>
      <trkpt lat="42.07498" lon="2.57929">
        <ele>407.4</ele>
        <time>2022-05-21 06:42:24</time>
      </trkpt>
      <trkpt lat="42.07507" lon="2.5793">
        <ele>407</ele>
        <time>2022-05-21 06:42:25</time>
      </trkpt>
      <trkpt lat="42.07517" lon="2.57934">
        <ele>406.6</ele>
        <time>2022-05-21 06:42:26</time>
      </trkpt>
      <trkpt lat="42.07525" lon="2.57939">
        <ele>406</ele>
        <time>2022-05-21 06:42:27</time>
      </trkpt>
      <trkpt lat="42.07529" lon="2.57949">
        <ele>405.6</ele>
        <time>2022-05-21 06:42:28</time>
      </trkpt>
      <trkpt lat="42.07531" lon="2.5796">
        <ele>405.2</ele>
        <time>2022-05-21 06:42:29</time>
      </trkpt>
      <trkpt lat="42.07534" lon="2.57971">
        <ele>404.8</ele>
        <time>2022-05-21 06:42:30</time>
      </trkpt>
      <trkpt lat="42.07538" lon="2.57984">
        <ele>404.2</ele>
        <time>2022-05-21 06:42:31</time>
      </trkpt>
      <trkpt lat="42.07543" lon="2.57995">
        <ele>403.8</ele>
        <time>2022-05-21 06:42:32</time>
      </trkpt>
      <trkpt lat="42.0755" lon="2.58005">
        <ele>403.2</ele>
        <time>2022-05-21 06:42:33</time>
      </trkpt>
      <trkpt lat="42.07557" lon="2.58013">
        <ele>403</ele>
        <time>2022-05-21 06:42:34</time>
      </trkpt>
      <trkpt lat="42.07565" lon="2.5802">
        <ele>402.8</ele>
        <time>2022-05-21 06:42:35</time>
      </trkpt>
      <trkpt lat="42.07575" lon="2.58025">
        <ele>402.4</ele>
        <time>2022-05-21 06:42:36</time>
      </trkpt>
      <trkpt lat="42.07585" lon="2.58031">
        <ele>401.8</ele>
        <time>2022-05-21 06:42:37</time>
      </trkpt>
      <trkpt lat="42.07594" lon="2.58038">
        <ele>401</ele>
        <time>2022-05-21 06:42:38</time>
      </trkpt>
      <trkpt lat="42.07601" lon="2.58047">
        <ele>400.6</ele>
        <time>2022-05-21 06:42:39</time>
      </trkpt>
      <trkpt lat="42.07608" lon="2.58058">
        <ele>400</ele>
        <time>2022-05-21 06:42:40</time>
      </trkpt>
      <trkpt lat="42.07612" lon="2.5807">
        <ele>399.4</ele>
        <time>2022-05-21 06:42:41</time>
      </trkpt>
      <trkpt lat="42.07614" lon="2.58085">
        <ele>399</ele>
        <time>2022-05-21 06:42:42</time>
      </trkpt>
      <trkpt lat="42.07612" lon="2.58098">
        <ele>398.6</ele>
        <time>2022-05-21 06:42:43</time>
      </trkpt>
      <trkpt lat="42.07608" lon="2.5811">
        <ele>398.2</ele>
        <time>2022-05-21 06:42:44</time>
      </trkpt>
      <trkpt lat="42.07603" lon="2.58121">
        <ele>397.8</ele>
        <time>2022-05-21 06:42:45</time>
      </trkpt>
      <trkpt lat="42.07597" lon="2.58132">
        <ele>397.4</ele>
        <time>2022-05-21 06:42:46</time>
      </trkpt>
      <trkpt lat="42.07591" lon="2.58143">
        <ele>397</ele>
        <time>2022-05-21 06:42:47</time>
      </trkpt>
      <trkpt lat="42.07585" lon="2.58153">
        <ele>396.8</ele>
        <time>2022-05-21 06:42:48</time>
      </trkpt>
      <trkpt lat="42.07579" lon="2.58164">
        <ele>396.4</ele>
        <time>2022-05-21 06:42:49</time>
      </trkpt>
      <trkpt lat="42.07574" lon="2.58175">
        <ele>396</ele>
        <time>2022-05-21 06:42:50</time>
      </trkpt>
      <trkpt lat="42.07569" lon="2.58187">
        <ele>395.4</ele>
        <time>2022-05-21 06:42:51</time>
      </trkpt>
      <trkpt lat="42.07564" lon="2.58199">
        <ele>395</ele>
        <time>2022-05-21 06:42:52</time>
      </trkpt>
      <trkpt lat="42.07559" lon="2.58212">
        <ele>394.4</ele>
        <time>2022-05-21 06:42:53</time>
      </trkpt>
      <trkpt lat="42.07554" lon="2.58226">
        <ele>393.8</ele>
        <time>2022-05-21 06:42:54</time>
      </trkpt>
      <trkpt lat="42.0755" lon="2.58239">
        <ele>393.2</ele>
        <time>2022-05-21 06:42:55</time>
      </trkpt>
      <trkpt lat="42.07545" lon="2.58251">
        <ele>392.6</ele>
        <time>2022-05-21 06:42:56</time>
      </trkpt>
      <trkpt lat="42.0754" lon="2.58263">
        <ele>392</ele>
        <time>2022-05-21 06:42:57</time>
      </trkpt>
      <trkpt lat="42.07533" lon="2.58273">
        <ele>391.4</ele>
        <time>2022-05-21 06:42:58</time>
      </trkpt>
      <trkpt lat="42.07524" lon="2.58284">
        <ele>390.8</ele>
        <time>2022-05-21 06:42:59</time>
      </trkpt>
      <trkpt lat="42.07515" lon="2.58294">
        <ele>390.2</ele>
        <time>2022-05-21 06:43:00</time>
      </trkpt>
      <trkpt lat="42.07506" lon="2.58304">
        <ele>389.6</ele>
        <time>2022-05-21 06:43:01</time>
      </trkpt>
      <trkpt lat="42.07497" lon="2.58313">
        <ele>389</ele>
        <time>2022-05-21 06:43:02</time>
      </trkpt>
      <trkpt lat="42.0749" lon="2.58323">
        <ele>388.6</ele>
        <time>2022-05-21 06:43:03</time>
      </trkpt>
      <trkpt lat="42.07484" lon="2.58336">
        <ele>387.8</ele>
        <time>2022-05-21 06:43:04</time>
      </trkpt>
      <trkpt lat="42.07481" lon="2.5835">
        <ele>387.4</ele>
        <time>2022-05-21 06:43:05</time>
      </trkpt>
      <trkpt lat="42.07479" lon="2.58365">
        <ele>386.6</ele>
        <time>2022-05-21 06:43:06</time>
      </trkpt>
      <trkpt lat="42.07478" lon="2.58381">
        <ele>386</ele>
        <time>2022-05-21 06:43:07</time>
      </trkpt>
      <trkpt lat="42.07478" lon="2.58396">
        <ele>385.4</ele>
        <time>2022-05-21 06:43:08</time>
      </trkpt>
      <trkpt lat="42.07476" lon="2.58415">
        <ele>384.8</ele>
        <time>2022-05-21 06:43:09</time>
      </trkpt>
      <trkpt lat="42.07475" lon="2.5843">
        <ele>384.2</ele>
        <time>2022-05-21 06:43:10</time>
      </trkpt>
      <trkpt lat="42.07474" lon="2.58445">
        <ele>383.6</ele>
        <time>2022-05-21 06:43:11</time>
      </trkpt>
      <trkpt lat="42.07471" lon="2.58461">
        <ele>382.6</ele>
        <time>2022-05-21 06:43:12</time>
      </trkpt>
      <trkpt lat="42.07467" lon="2.58478">
        <ele>381.8</ele>
        <time>2022-05-21 06:43:13</time>
      </trkpt>
      <trkpt lat="42.07465" lon="2.58493">
        <ele>381.2</ele>
        <time>2022-05-21 06:43:14</time>
      </trkpt>
      <trkpt lat="42.07464" lon="2.58508">
        <ele>380.6</ele>
        <time>2022-05-21 06:43:15</time>
      </trkpt>
      <trkpt lat="42.07467" lon="2.58523">
        <ele>379.8</ele>
        <time>2022-05-21 06:43:16</time>
      </trkpt>
      <trkpt lat="42.07472" lon="2.58535">
        <ele>379.2</ele>
        <time>2022-05-21 06:43:17</time>
      </trkpt>
      <trkpt lat="42.07478" lon="2.58545">
        <ele>378.6</ele>
        <time>2022-05-21 06:43:18</time>
      </trkpt>
      <trkpt lat="42.07486" lon="2.58551">
        <ele>378</ele>
        <time>2022-05-21 06:43:19</time>
      </trkpt>
      <trkpt lat="42.07495" lon="2.58556">
        <ele>377.2</ele>
        <time>2022-05-21 06:43:20</time>
      </trkpt>
      <trkpt lat="42.07505" lon="2.58558">
        <ele>376.6</ele>
        <time>2022-05-21 06:43:21</time>
      </trkpt>
      <trkpt lat="42.07516" lon="2.58559">
        <ele>376.2</ele>
        <time>2022-05-21 06:43:22</time>
      </trkpt>
      <trkpt lat="42.07526" lon="2.58559">
        <ele>375.8</ele>
        <time>2022-05-21 06:43:23</time>
      </trkpt>
      <trkpt lat="42.07539" lon="2.58562">
        <ele>375.2</ele>
        <time>2022-05-21 06:43:24</time>
      </trkpt>
      <trkpt lat="42.0755" lon="2.58567">
        <ele>374.8</ele>
        <time>2022-05-21 06:43:25</time>
      </trkpt>
      <trkpt lat="42.07558" lon="2.58573">
        <ele>374.6</ele>
        <time>2022-05-21 06:43:26</time>
      </trkpt>
      <trkpt lat="42.07565" lon="2.58581">
        <ele>374.4</ele>
        <time>2022-05-21 06:43:27</time>
      </trkpt>
      <trkpt lat="42.07571" lon="2.58589">
        <ele>374.2</ele>
        <time>2022-05-21 06:43:28</time>
      </trkpt>
      <trkpt lat="42.07573" lon="2.58598">
        <ele>374.2</ele>
        <time>2022-05-21 06:43:29</time>
      </trkpt>
      <trkpt lat="42.07569" lon="2.58605">
        <ele>374</ele>
        <time>2022-05-21 06:43:30</time>
      </trkpt>
      <trkpt lat="42.07564" lon="2.58613">
        <ele>373.8</ele>
        <time>2022-05-21 06:43:31</time>
      </trkpt>
      <trkpt lat="42.07558" lon="2.58619">
        <ele>373.6</ele>
        <time>2022-05-21 06:43:32</time>
      </trkpt>
      <trkpt lat="42.07553" lon="2.58626">
        <ele>373.2</ele>
        <time>2022-05-21 06:43:33</time>
      </trkpt>
      <trkpt lat="42.07535" lon="2.58639">
        <ele>372.8</ele>
        <time>2022-05-21 06:43:34</time>
      </trkpt>
      <trkpt lat="42.07524" lon="2.58648">
        <ele>372.4</ele>
        <time>2022-05-21 06:43:35</time>
      </trkpt>
      <trkpt lat="42.07513" lon="2.58657">
        <ele>371.8</ele>
        <time>2022-05-21 06:43:36</time>
      </trkpt>
      <trkpt lat="42.07503" lon="2.58664">
        <ele>371.4</ele>
        <time>2022-05-21 06:43:37</time>
      </trkpt>
      <trkpt lat="42.07494" lon="2.58672">
        <ele>371</ele>
        <time>2022-05-21 06:43:38</time>
      </trkpt>
      <trkpt lat="42.07483" lon="2.58681">
        <ele>370.4</ele>
        <time>2022-05-21 06:43:39</time>
      </trkpt>
      <trkpt lat="42.07474" lon="2.58688">
        <ele>370</ele>
        <time>2022-05-21 06:43:40</time>
      </trkpt>
      <trkpt lat="42.07464" lon="2.58695">
        <ele>369.6</ele>
        <time>2022-05-21 06:43:41</time>
      </trkpt>
      <trkpt lat="42.07455" lon="2.58706">
        <ele>369.2</ele>
        <time>2022-05-21 06:43:42</time>
      </trkpt>
      <trkpt lat="42.07447" lon="2.58717">
        <ele>368.8</ele>
        <time>2022-05-21 06:43:43</time>
      </trkpt>
      <trkpt lat="42.07439" lon="2.58727">
        <ele>368.6</ele>
        <time>2022-05-21 06:43:44</time>
      </trkpt>
      <trkpt lat="42.07431" lon="2.58736">
        <ele>368.2</ele>
        <time>2022-05-21 06:43:45</time>
      </trkpt>
      <trkpt lat="42.07421" lon="2.58745">
        <ele>367.8</ele>
        <time>2022-05-21 06:43:46</time>
      </trkpt>
      <trkpt lat="42.07412" lon="2.58753">
        <ele>367.4</ele>
        <time>2022-05-21 06:43:47</time>
      </trkpt>
      <trkpt lat="42.07403" lon="2.58764">
        <ele>367.2</ele>
        <time>2022-05-21 06:43:48</time>
      </trkpt>
      <trkpt lat="42.07398" lon="2.58775">
        <ele>366.8</ele>
        <time>2022-05-21 06:43:49</time>
      </trkpt>
      <trkpt lat="42.07396" lon="2.58786">
        <ele>366.6</ele>
        <time>2022-05-21 06:43:50</time>
      </trkpt>
      <trkpt lat="42.07395" lon="2.58799">
        <ele>366.2</ele>
        <time>2022-05-21 06:43:51</time>
      </trkpt>
      <trkpt lat="42.07397" lon="2.58813">
        <ele>365.8</ele>
        <time>2022-05-21 06:43:52</time>
      </trkpt>
      <trkpt lat="42.07399" lon="2.58825">
        <ele>365.4</ele>
        <time>2022-05-21 06:43:53</time>
      </trkpt>
      <trkpt lat="42.074" lon="2.58839">
        <ele>365</ele>
        <time>2022-05-21 06:43:54</time>
      </trkpt>
      <trkpt lat="42.07401" lon="2.58853">
        <ele>364.6</ele>
        <time>2022-05-21 06:43:55</time>
      </trkpt>
      <trkpt lat="42.07402" lon="2.58867">
        <ele>364.2</ele>
        <time>2022-05-21 06:43:56</time>
      </trkpt>
      <trkpt lat="42.07404" lon="2.5888">
        <ele>363.8</ele>
        <time>2022-05-21 06:43:57</time>
      </trkpt>
      <trkpt lat="42.07405" lon="2.58895">
        <ele>363.2</ele>
        <time>2022-05-21 06:43:58</time>
      </trkpt>
      <trkpt lat="42.07406" lon="2.58909">
        <ele>362.8</ele>
        <time>2022-05-21 06:43:59</time>
      </trkpt>
      <trkpt lat="42.07406" lon="2.58927">
        <ele>362</ele>
        <time>2022-05-21 06:44:00</time>
      </trkpt>
      <trkpt lat="42.07406" lon="2.58941">
        <ele>361.4</ele>
        <time>2022-05-21 06:44:01</time>
      </trkpt>
      <trkpt lat="42.07406" lon="2.58955">
        <ele>360.8</ele>
        <time>2022-05-21 06:44:02</time>
      </trkpt>
      <trkpt lat="42.07405" lon="2.58969">
        <ele>360.2</ele>
        <time>2022-05-21 06:44:03</time>
      </trkpt>
      <trkpt lat="42.07403" lon="2.58986">
        <ele>359.6</ele>
        <time>2022-05-21 06:44:04</time>
      </trkpt>
      <trkpt lat="42.07402" lon="2.59002">
        <ele>358.8</ele>
        <time>2022-05-21 06:44:05</time>
      </trkpt>
      <trkpt lat="42.074" lon="2.59017">
        <ele>358.2</ele>
        <time>2022-05-21 06:44:06</time>
      </trkpt>
      <trkpt lat="42.07399" lon="2.59033">
        <ele>357.6</ele>
        <time>2022-05-21 06:44:07</time>
      </trkpt>
      <trkpt lat="42.07401" lon="2.59049">
        <ele>357.2</ele>
        <time>2022-05-21 06:44:08</time>
      </trkpt>
      <trkpt lat="42.07404" lon="2.59061">
        <ele>356.6</ele>
        <time>2022-05-21 06:44:09</time>
      </trkpt>
      <trkpt lat="42.07409" lon="2.59071">
        <ele>356</ele>
        <time>2022-05-21 06:44:10</time>
      </trkpt>
      <trkpt lat="42.07419" lon="2.59079">
        <ele>355.2</ele>
        <time>2022-05-21 06:44:11</time>
      </trkpt>
      <trkpt lat="42.07426" lon="2.59082">
        <ele>354.4</ele>
        <time>2022-05-21 06:44:12</time>
      </trkpt>
      <trkpt lat="42.07437" lon="2.59082">
        <ele>353.8</ele>
        <time>2022-05-21 06:44:13</time>
      </trkpt>
      <trkpt lat="42.07444" lon="2.59081">
        <ele>353</ele>
        <time>2022-05-21 06:44:14</time>
      </trkpt>
      <trkpt lat="42.07457" lon="2.59076">
        <ele>352.4</ele>
        <time>2022-05-21 06:44:15</time>
      </trkpt>
      <trkpt lat="42.07468" lon="2.59071">
        <ele>351.6</ele>
        <time>2022-05-21 06:44:16</time>
      </trkpt>
      <trkpt lat="42.07478" lon="2.5907">
        <ele>351</ele>
        <time>2022-05-21 06:44:17</time>
      </trkpt>
      <trkpt lat="42.07485" lon="2.59072">
        <ele>350.6</ele>
        <time>2022-05-21 06:44:18</time>
      </trkpt>
      <trkpt lat="42.07497" lon="2.59076">
        <ele>350.2</ele>
        <time>2022-05-21 06:44:19</time>
      </trkpt>
      <trkpt lat="42.07503" lon="2.59086">
        <ele>349.8</ele>
        <time>2022-05-21 06:44:20</time>
      </trkpt>
      <trkpt lat="42.07497" lon="2.59097">
        <ele>349.6</ele>
        <time>2022-05-21 06:44:21</time>
      </trkpt>
      <trkpt lat="42.07491" lon="2.59107">
        <ele>349.2</ele>
        <time>2022-05-21 06:44:22</time>
      </trkpt>
      <trkpt lat="42.07485" lon="2.59113">
        <ele>348.8</ele>
        <time>2022-05-21 06:44:23</time>
      </trkpt>
      <trkpt lat="42.07479" lon="2.59119">
        <ele>348.2</ele>
        <time>2022-05-21 06:44:24</time>
      </trkpt>
      <trkpt lat="42.07473" lon="2.59125">
        <ele>347.6</ele>
        <time>2022-05-21 06:44:25</time>
      </trkpt>
      <trkpt lat="42.07465" lon="2.59134">
        <ele>347</ele>
        <time>2022-05-21 06:44:26</time>
      </trkpt>
      <trkpt lat="42.07461" lon="2.59143">
        <ele>346.4</ele>
        <time>2022-05-21 06:44:27</time>
      </trkpt>
      <trkpt lat="42.07455" lon="2.59157">
        <ele>345.8</ele>
        <time>2022-05-21 06:44:28</time>
      </trkpt>
      <trkpt lat="42.07448" lon="2.59169">
        <ele>345</ele>
        <time>2022-05-21 06:44:29</time>
      </trkpt>
      <trkpt lat="42.07441" lon="2.59177">
        <ele>344.4</ele>
        <time>2022-05-21 06:44:30</time>
      </trkpt>
      <trkpt lat="42.07431" lon="2.59185">
        <ele>343.8</ele>
        <time>2022-05-21 06:44:31</time>
      </trkpt>
      <trkpt lat="42.07421" lon="2.5919">
        <ele>342.8</ele>
        <time>2022-05-21 06:44:32</time>
      </trkpt>
      <trkpt lat="42.07409" lon="2.59192">
        <ele>342</ele>
        <time>2022-05-21 06:44:33</time>
      </trkpt>
      <trkpt lat="42.07397" lon="2.59194">
        <ele>341.2</ele>
        <time>2022-05-21 06:44:34</time>
      </trkpt>
      <trkpt lat="42.07386" lon="2.59196">
        <ele>340.4</ele>
        <time>2022-05-21 06:44:35</time>
      </trkpt>
      <trkpt lat="42.07375" lon="2.59199">
        <ele>339.6</ele>
        <time>2022-05-21 06:44:36</time>
      </trkpt>
      <trkpt lat="42.07364" lon="2.59203">
        <ele>339</ele>
        <time>2022-05-21 06:44:37</time>
      </trkpt>
      <trkpt lat="42.07353" lon="2.59211">
        <ele>338.2</ele>
        <time>2022-05-21 06:44:38</time>
      </trkpt>
      <trkpt lat="42.07343" lon="2.5922">
        <ele>337.6</ele>
        <time>2022-05-21 06:44:39</time>
      </trkpt>
      <trkpt lat="42.07334" lon="2.59229">
        <ele>336.8</ele>
        <time>2022-05-21 06:44:40</time>
      </trkpt>
      <trkpt lat="42.07327" lon="2.59241">
        <ele>336.2</ele>
        <time>2022-05-21 06:44:41</time>
      </trkpt>
      <trkpt lat="42.07319" lon="2.59253">
        <ele>335.4</ele>
        <time>2022-05-21 06:44:42</time>
      </trkpt>
      <trkpt lat="42.07312" lon="2.59266">
        <ele>334.4</ele>
        <time>2022-05-21 06:44:43</time>
      </trkpt>
      <trkpt lat="42.07305" lon="2.59279">
        <ele>333.8</ele>
        <time>2022-05-21 06:44:44</time>
      </trkpt>
      <trkpt lat="42.07299" lon="2.59293">
        <ele>333</ele>
        <time>2022-05-21 06:44:45</time>
      </trkpt>
      <trkpt lat="42.07293" lon="2.59307">
        <ele>332.4</ele>
        <time>2022-05-21 06:44:46</time>
      </trkpt>
      <trkpt lat="42.07287" lon="2.59321">
        <ele>331.6</ele>
        <time>2022-05-21 06:44:47</time>
      </trkpt>
      <trkpt lat="42.07279" lon="2.59335">
        <ele>331</ele>
        <time>2022-05-21 06:44:48</time>
      </trkpt>
      <trkpt lat="42.07269" lon="2.59347">
        <ele>330.4</ele>
        <time>2022-05-21 06:44:49</time>
      </trkpt>
      <trkpt lat="42.07257" lon="2.59357">
        <ele>329.8</ele>
        <time>2022-05-21 06:44:50</time>
      </trkpt>
      <trkpt lat="42.07246" lon="2.59365">
        <ele>329.2</ele>
        <time>2022-05-21 06:44:51</time>
      </trkpt>
      <trkpt lat="42.07236" lon="2.59372">
        <ele>328.8</ele>
        <time>2022-05-21 06:44:52</time>
      </trkpt>
      <trkpt lat="42.07228" lon="2.59383">
        <ele>328.4</ele>
        <time>2022-05-21 06:44:53</time>
      </trkpt>
      <trkpt lat="42.07221" lon="2.59395">
        <ele>328</ele>
        <time>2022-05-21 06:44:54</time>
      </trkpt>
      <trkpt lat="42.07216" lon="2.59408">
        <ele>327.4</ele>
        <time>2022-05-21 06:44:55</time>
      </trkpt>
      <trkpt lat="42.07213" lon="2.59423">
        <ele>327.2</ele>
        <time>2022-05-21 06:44:56</time>
      </trkpt>
      <trkpt lat="42.07212" lon="2.59438">
        <ele>326.6</ele>
        <time>2022-05-21 06:44:57</time>
      </trkpt>
      <trkpt lat="42.07209" lon="2.59453">
        <ele>326</ele>
        <time>2022-05-21 06:44:58</time>
      </trkpt>
      <trkpt lat="42.07203" lon="2.59465">
        <ele>325.4</ele>
        <time>2022-05-21 06:44:59</time>
      </trkpt>
      <trkpt lat="42.07195" lon="2.59475">
        <ele>324.8</ele>
        <time>2022-05-21 06:45:00</time>
      </trkpt>
      <trkpt lat="42.07186" lon="2.59482">
        <ele>324.2</ele>
        <time>2022-05-21 06:45:01</time>
      </trkpt>
      <trkpt lat="42.07175" lon="2.59489">
        <ele>323.4</ele>
        <time>2022-05-21 06:45:02</time>
      </trkpt>
      <trkpt lat="42.07166" lon="2.59498">
        <ele>322.8</ele>
        <time>2022-05-21 06:45:03</time>
      </trkpt>
      <trkpt lat="42.07159" lon="2.59508">
        <ele>322.2</ele>
        <time>2022-05-21 06:45:04</time>
      </trkpt>
      <trkpt lat="42.07153" lon="2.59521">
        <ele>321.4</ele>
        <time>2022-05-21 06:45:05</time>
      </trkpt>
      <trkpt lat="42.07146" lon="2.59533">
        <ele>320.8</ele>
        <time>2022-05-21 06:45:06</time>
      </trkpt>
      <trkpt lat="42.0714" lon="2.59547">
        <ele>320</ele>
        <time>2022-05-21 06:45:07</time>
      </trkpt>
      <trkpt lat="42.07134" lon="2.5956">
        <ele>319.2</ele>
        <time>2022-05-21 06:45:08</time>
      </trkpt>
      <trkpt lat="42.07128" lon="2.59574">
        <ele>318.6</ele>
        <time>2022-05-21 06:45:09</time>
      </trkpt>
      <trkpt lat="42.07123" lon="2.59589">
        <ele>317.8</ele>
        <time>2022-05-21 06:45:10</time>
      </trkpt>
      <trkpt lat="42.07121" lon="2.59605">
        <ele>317.4</ele>
        <time>2022-05-21 06:45:11</time>
      </trkpt>
      <trkpt lat="42.07119" lon="2.59619">
        <ele>316.8</ele>
        <time>2022-05-21 06:45:12</time>
      </trkpt>
      <trkpt lat="42.07117" lon="2.59634">
        <ele>316.2</ele>
        <time>2022-05-21 06:45:13</time>
      </trkpt>
      <trkpt lat="42.07117" lon="2.59649">
        <ele>315.6</ele>
        <time>2022-05-21 06:45:14</time>
      </trkpt>
      <trkpt lat="42.07116" lon="2.59664">
        <ele>315.2</ele>
        <time>2022-05-21 06:45:15</time>
      </trkpt>
      <trkpt lat="42.07113" lon="2.59678">
        <ele>314.6</ele>
        <time>2022-05-21 06:45:16</time>
      </trkpt>
      <trkpt lat="42.07111" lon="2.59694">
        <ele>314</ele>
        <time>2022-05-21 06:45:17</time>
      </trkpt>
      <trkpt lat="42.07109" lon="2.5971">
        <ele>313.4</ele>
        <time>2022-05-21 06:45:18</time>
      </trkpt>
      <trkpt lat="42.07107" lon="2.59725">
        <ele>313</ele>
        <time>2022-05-21 06:45:19</time>
      </trkpt>
      <trkpt lat="42.07107" lon="2.59741">
        <ele>312.4</ele>
        <time>2022-05-21 06:45:20</time>
      </trkpt>
      <trkpt lat="42.0711" lon="2.59756">
        <ele>312</ele>
        <time>2022-05-21 06:45:21</time>
      </trkpt>
      <trkpt lat="42.07116" lon="2.59767">
        <ele>311.6</ele>
        <time>2022-05-21 06:45:22</time>
      </trkpt>
      <trkpt lat="42.07125" lon="2.59778">
        <ele>311.2</ele>
        <time>2022-05-21 06:45:23</time>
      </trkpt>
      <trkpt lat="42.07135" lon="2.59786">
        <ele>310.6</ele>
        <time>2022-05-21 06:45:24</time>
      </trkpt>
      <trkpt lat="42.07144" lon="2.59793">
        <ele>310.2</ele>
        <time>2022-05-21 06:45:25</time>
      </trkpt>
      <trkpt lat="42.07153" lon="2.59802">
        <ele>310</ele>
        <time>2022-05-21 06:45:26</time>
      </trkpt>
      <trkpt lat="42.07162" lon="2.59811">
        <ele>309.6</ele>
        <time>2022-05-21 06:45:27</time>
      </trkpt>
      <trkpt lat="42.07171" lon="2.59819">
        <ele>309.2</ele>
        <time>2022-05-21 06:45:28</time>
      </trkpt>
      <trkpt lat="42.0718" lon="2.59827">
        <ele>308.6</ele>
        <time>2022-05-21 06:45:29</time>
      </trkpt>
      <trkpt lat="42.0719" lon="2.59834">
        <ele>308.2</ele>
        <time>2022-05-21 06:45:30</time>
      </trkpt>
      <trkpt lat="42.072" lon="2.59841">
        <ele>307.8</ele>
        <time>2022-05-21 06:45:31</time>
      </trkpt>
      <trkpt lat="42.07211" lon="2.59844">
        <ele>307.4</ele>
        <time>2022-05-21 06:45:32</time>
      </trkpt>
      <trkpt lat="42.07221" lon="2.59846">
        <ele>307.2</ele>
        <time>2022-05-21 06:45:33</time>
      </trkpt>
      <trkpt lat="42.07232" lon="2.59847">
        <ele>306.8</ele>
        <time>2022-05-21 06:45:34</time>
      </trkpt>
      <trkpt lat="42.07243" lon="2.59847">
        <ele>306.2</ele>
        <time>2022-05-21 06:45:35</time>
      </trkpt>
      <trkpt lat="42.07252" lon="2.59846">
        <ele>305.8</ele>
        <time>2022-05-21 06:45:36</time>
      </trkpt>
      <trkpt lat="42.07262" lon="2.59845">
        <ele>305.6</ele>
        <time>2022-05-21 06:45:37</time>
      </trkpt>
      <trkpt lat="42.07272" lon="2.59845">
        <ele>305</ele>
        <time>2022-05-21 06:45:38</time>
      </trkpt>
      <trkpt lat="42.07282" lon="2.59846">
        <ele>304.6</ele>
        <time>2022-05-21 06:45:39</time>
      </trkpt>
      <trkpt lat="42.07291" lon="2.5985">
        <ele>304.2</ele>
        <time>2022-05-21 06:45:40</time>
      </trkpt>
      <trkpt lat="42.07299" lon="2.59855">
        <ele>303.6</ele>
        <time>2022-05-21 06:45:41</time>
      </trkpt>
      <trkpt lat="42.07305" lon="2.59862">
        <ele>303.2</ele>
        <time>2022-05-21 06:45:42</time>
      </trkpt>
      <trkpt lat="42.07309" lon="2.59871">
        <ele>302.8</ele>
        <time>2022-05-21 06:45:43</time>
      </trkpt>
      <trkpt lat="42.07313" lon="2.59883">
        <ele>302.2</ele>
        <time>2022-05-21 06:45:44</time>
      </trkpt>
      <trkpt lat="42.07316" lon="2.59895">
        <ele>301.8</ele>
        <time>2022-05-21 06:45:45</time>
      </trkpt>
      <trkpt lat="42.07319" lon="2.59908">
        <ele>301.2</ele>
        <time>2022-05-21 06:45:46</time>
      </trkpt>
      <trkpt lat="42.07321" lon="2.59922">
        <ele>300.8</ele>
        <time>2022-05-21 06:45:47</time>
      </trkpt>
      <trkpt lat="42.07325" lon="2.59935">
        <ele>300.4</ele>
        <time>2022-05-21 06:45:48</time>
      </trkpt>
      <trkpt lat="42.07331" lon="2.59947">
        <ele>300</ele>
        <time>2022-05-21 06:45:49</time>
      </trkpt>
      <trkpt lat="42.07337" lon="2.59958">
        <ele>299.6</ele>
        <time>2022-05-21 06:45:50</time>
      </trkpt>
      <trkpt lat="42.07344" lon="2.59968">
        <ele>299</ele>
        <time>2022-05-21 06:45:51</time>
      </trkpt>
      <trkpt lat="42.0735" lon="2.59979">
        <ele>298.6</ele>
        <time>2022-05-21 06:45:52</time>
      </trkpt>
      <trkpt lat="42.07357" lon="2.59989">
        <ele>298.2</ele>
        <time>2022-05-21 06:45:53</time>
      </trkpt>
      <trkpt lat="42.07364" lon="2.6">
        <ele>297.8</ele>
        <time>2022-05-21 06:45:54</time>
      </trkpt>
      <trkpt lat="42.07371" lon="2.6001">
        <ele>297.4</ele>
        <time>2022-05-21 06:45:55</time>
      </trkpt>
      <trkpt lat="42.07377" lon="2.6002">
        <ele>297</ele>
        <time>2022-05-21 06:45:56</time>
      </trkpt>
      <trkpt lat="42.07383" lon="2.6003">
        <ele>296.8</ele>
        <time>2022-05-21 06:45:57</time>
      </trkpt>
      <trkpt lat="42.07388" lon="2.60039">
        <ele>296.4</ele>
        <time>2022-05-21 06:45:58</time>
      </trkpt>
      <trkpt lat="42.07391" lon="2.60048">
        <ele>296</ele>
        <time>2022-05-21 06:45:59</time>
      </trkpt>
      <trkpt lat="42.07386" lon="2.60055">
        <ele>295.6</ele>
        <time>2022-05-21 06:46:00</time>
      </trkpt>
      <trkpt lat="42.07378" lon="2.60062">
        <ele>295.2</ele>
        <time>2022-05-21 06:46:01</time>
      </trkpt>
      <trkpt lat="42.07372" lon="2.6007">
        <ele>294.8</ele>
        <time>2022-05-21 06:46:02</time>
      </trkpt>
      <trkpt lat="42.07365" lon="2.60078">
        <ele>294.4</ele>
        <time>2022-05-21 06:46:03</time>
      </trkpt>
      <trkpt lat="42.07359" lon="2.60085">
        <ele>294.2</ele>
        <time>2022-05-21 06:46:04</time>
      </trkpt>
      <trkpt lat="42.07353" lon="2.60093">
        <ele>293.8</ele>
        <time>2022-05-21 06:46:05</time>
      </trkpt>
      <trkpt lat="42.07347" lon="2.60102">
        <ele>293.4</ele>
        <time>2022-05-21 06:46:06</time>
      </trkpt>
      <trkpt lat="42.07341" lon="2.60114">
        <ele>293.2</ele>
        <time>2022-05-21 06:46:07</time>
      </trkpt>
      <trkpt lat="42.07334" lon="2.60123">
        <ele>292.8</ele>
        <time>2022-05-21 06:46:08</time>
      </trkpt>
      <trkpt lat="42.07328" lon="2.60132">
        <ele>292.4</ele>
        <time>2022-05-21 06:46:09</time>
      </trkpt>
      <trkpt lat="42.07321" lon="2.60142">
        <ele>292.2</ele>
        <time>2022-05-21 06:46:10</time>
      </trkpt>
      <trkpt lat="42.07315" lon="2.60151">
        <ele>292</ele>
        <time>2022-05-21 06:46:11</time>
      </trkpt>
      <trkpt lat="42.07309" lon="2.6016">
        <ele>291.6</ele>
        <time>2022-05-21 06:46:12</time>
      </trkpt>
      <trkpt lat="42.07304" lon="2.60169">
        <ele>291.2</ele>
        <time>2022-05-21 06:46:13</time>
      </trkpt>
      <trkpt lat="42.07298" lon="2.60178">
        <ele>291</ele>
        <time>2022-05-21 06:46:14</time>
      </trkpt>
      <trkpt lat="42.07293" lon="2.60188">
        <ele>290.8</ele>
        <time>2022-05-21 06:46:15</time>
      </trkpt>
      <trkpt lat="42.07287" lon="2.60197">
        <ele>290.6</ele>
        <time>2022-05-21 06:46:16</time>
      </trkpt>
      <trkpt lat="42.07281" lon="2.60206">
        <ele>290.4</ele>
        <time>2022-05-21 06:46:17</time>
      </trkpt>
      <trkpt lat="42.07275" lon="2.60215">
        <ele>290.4</ele>
        <time>2022-05-21 06:46:18</time>
      </trkpt>
      <trkpt lat="42.07269" lon="2.60223">
        <ele>290.2</ele>
        <time>2022-05-21 06:46:19</time>
      </trkpt>
      <trkpt lat="42.07262" lon="2.60232">
        <ele>290.2</ele>
        <time>2022-05-21 06:46:20</time>
      </trkpt>
      <trkpt lat="42.07255" lon="2.60242">
        <ele>290</ele>
        <time>2022-05-21 06:46:21</time>
      </trkpt>
      <trkpt lat="42.07248" lon="2.6025">
        <ele>290</ele>
        <time>2022-05-21 06:46:22</time>
      </trkpt>
      <trkpt lat="42.07242" lon="2.60259">
        <ele>289.8</ele>
        <time>2022-05-21 06:46:23</time>
      </trkpt>
      <trkpt lat="42.07235" lon="2.60266">
        <ele>289.8</ele>
        <time>2022-05-21 06:46:24</time>
      </trkpt>
      <trkpt lat="42.07228" lon="2.60273">
        <ele>289.8</ele>
        <time>2022-05-21 06:46:25</time>
      </trkpt>
      <trkpt lat="42.0722" lon="2.60279">
        <ele>289.6</ele>
        <time>2022-05-21 06:46:26</time>
      </trkpt>
      <trkpt lat="42.07212" lon="2.60284">
        <ele>289.6</ele>
        <time>2022-05-21 06:46:27</time>
      </trkpt>
      <trkpt lat="42.07204" lon="2.60287">
        <ele>289.8</ele>
        <time>2022-05-21 06:46:28</time>
      </trkpt>
      <trkpt lat="42.07196" lon="2.60289">
        <ele>289.8</ele>
        <time>2022-05-21 06:46:29</time>
      </trkpt>
      <trkpt lat="42.07188" lon="2.6029">
        <ele>289.8</ele>
        <time>2022-05-21 06:46:30</time>
      </trkpt>
      <trkpt lat="42.0718" lon="2.60292">
        <ele>290</ele>
        <time>2022-05-21 06:46:31</time>
      </trkpt>
      <trkpt lat="42.07173" lon="2.60293">
        <ele>290</ele>
        <time>2022-05-21 06:46:32</time>
      </trkpt>
      <trkpt lat="42.07166" lon="2.60294">
        <ele>290.2</ele>
        <time>2022-05-21 06:46:33</time>
      </trkpt>
      <trkpt lat="42.07161" lon="2.60297">
        <ele>290.2</ele>
        <time>2022-05-21 06:46:34</time>
      </trkpt>
      <trkpt lat="42.07155" lon="2.60302">
        <ele>290.4</ele>
        <time>2022-05-21 06:46:35</time>
      </trkpt>
      <trkpt lat="42.0715" lon="2.60308">
        <ele>290.4</ele>
        <time>2022-05-21 06:46:36</time>
      </trkpt>
      <trkpt lat="42.07144" lon="2.60315">
        <ele>290.4</ele>
        <time>2022-05-21 06:46:37</time>
      </trkpt>
      <trkpt lat="42.07138" lon="2.60322">
        <ele>290.4</ele>
        <time>2022-05-21 06:46:38</time>
      </trkpt>
      <trkpt lat="42.07132" lon="2.60329">
        <ele>290.4</ele>
        <time>2022-05-21 06:46:39</time>
      </trkpt>
      <trkpt lat="42.07127" lon="2.60336">
        <ele>290.2</ele>
        <time>2022-05-21 06:46:40</time>
      </trkpt>
      <trkpt lat="42.07121" lon="2.60343">
        <ele>290.2</ele>
        <time>2022-05-21 06:46:41</time>
      </trkpt>
      <trkpt lat="42.07114" lon="2.6035">
        <ele>290.2</ele>
        <time>2022-05-21 06:46:42</time>
      </trkpt>
      <trkpt lat="42.07109" lon="2.60356">
        <ele>290.2</ele>
        <time>2022-05-21 06:46:43</time>
      </trkpt>
      <trkpt lat="42.07104" lon="2.60362">
        <ele>290</ele>
        <time>2022-05-21 06:46:44</time>
      </trkpt>
      <trkpt lat="42.071" lon="2.6037">
        <ele>290</ele>
        <time>2022-05-21 06:46:45</time>
      </trkpt>
      <trkpt lat="42.07095" lon="2.60378">
        <ele>290</ele>
        <time>2022-05-21 06:46:46</time>
      </trkpt>
      <trkpt lat="42.0709" lon="2.60387">
        <ele>289.8</ele>
        <time>2022-05-21 06:46:47</time>
      </trkpt>
      <trkpt lat="42.07086" lon="2.60395">
        <ele>289.6</ele>
        <time>2022-05-21 06:46:48</time>
      </trkpt>
      <trkpt lat="42.07081" lon="2.60404">
        <ele>289.6</ele>
        <time>2022-05-21 06:46:49</time>
      </trkpt>
      <trkpt lat="42.07076" lon="2.60413">
        <ele>289.4</ele>
        <time>2022-05-21 06:46:50</time>
      </trkpt>
      <trkpt lat="42.07072" lon="2.60422">
        <ele>289.4</ele>
        <time>2022-05-21 06:46:51</time>
      </trkpt>
      <trkpt lat="42.07067" lon="2.60431">
        <ele>289.2</ele>
        <time>2022-05-21 06:46:52</time>
      </trkpt>
      <trkpt lat="42.07063" lon="2.60441">
        <ele>289.2</ele>
        <time>2022-05-21 06:46:53</time>
      </trkpt>
      <trkpt lat="42.07057" lon="2.60452">
        <ele>289.2</ele>
        <time>2022-05-21 06:46:54</time>
      </trkpt>
      <trkpt lat="42.07053" lon="2.60461">
        <ele>289</ele>
        <time>2022-05-21 06:46:55</time>
      </trkpt>
      <trkpt lat="42.07049" lon="2.6047">
        <ele>289</ele>
        <time>2022-05-21 06:46:56</time>
      </trkpt>
      <trkpt lat="42.07045" lon="2.60478">
        <ele>289</ele>
        <time>2022-05-21 06:46:57</time>
      </trkpt>
      <trkpt lat="42.0704" lon="2.60486">
        <ele>289</ele>
        <time>2022-05-21 06:46:58</time>
      </trkpt>
      <trkpt lat="42.07035" lon="2.60495">
        <ele>289</ele>
        <time>2022-05-21 06:46:59</time>
      </trkpt>
      <trkpt lat="42.0703" lon="2.60504">
        <ele>288.8</ele>
        <time>2022-05-21 06:47:00</time>
      </trkpt>
      <trkpt lat="42.07026" lon="2.60512">
        <ele>288.6</ele>
        <time>2022-05-21 06:47:01</time>
      </trkpt>
      <trkpt lat="42.07021" lon="2.6052">
        <ele>288.6</ele>
        <time>2022-05-21 06:47:02</time>
      </trkpt>
      <trkpt lat="42.07016" lon="2.60529">
        <ele>288.4</ele>
        <time>2022-05-21 06:47:03</time>
      </trkpt>
      <trkpt lat="42.07011" lon="2.60538">
        <ele>288.2</ele>
        <time>2022-05-21 06:47:04</time>
      </trkpt>
      <trkpt lat="42.07006" lon="2.60547">
        <ele>288.2</ele>
        <time>2022-05-21 06:47:05</time>
      </trkpt>
      <trkpt lat="42.07" lon="2.60557">
        <ele>288</ele>
        <time>2022-05-21 06:47:06</time>
      </trkpt>
      <trkpt lat="42.06994" lon="2.60566">
        <ele>287.8</ele>
        <time>2022-05-21 06:47:07</time>
      </trkpt>
      <trkpt lat="42.06989" lon="2.60575">
        <ele>287.6</ele>
        <time>2022-05-21 06:47:08</time>
      </trkpt>
      <trkpt lat="42.06982" lon="2.60585">
        <ele>287.4</ele>
        <time>2022-05-21 06:47:09</time>
      </trkpt>
      <trkpt lat="42.06976" lon="2.60595">
        <ele>287.2</ele>
        <time>2022-05-21 06:47:10</time>
      </trkpt>
      <trkpt lat="42.06969" lon="2.60605">
        <ele>287</ele>
        <time>2022-05-21 06:47:11</time>
      </trkpt>
      <trkpt lat="42.06963" lon="2.60614">
        <ele>286.8</ele>
        <time>2022-05-21 06:47:12</time>
      </trkpt>
      <trkpt lat="42.06956" lon="2.60624">
        <ele>286.6</ele>
        <time>2022-05-21 06:47:13</time>
      </trkpt>
      <trkpt lat="42.0695" lon="2.60632">
        <ele>286.2</ele>
        <time>2022-05-21 06:47:14</time>
      </trkpt>
      <trkpt lat="42.06943" lon="2.6064">
        <ele>286</ele>
        <time>2022-05-21 06:47:15</time>
      </trkpt>
      <trkpt lat="42.06935" lon="2.60648">
        <ele>285.8</ele>
        <time>2022-05-21 06:47:16</time>
      </trkpt>
      <trkpt lat="42.06927" lon="2.60655">
        <ele>285.6</ele>
        <time>2022-05-21 06:47:17</time>
      </trkpt>
      <trkpt lat="42.06919" lon="2.60661">
        <ele>285.6</ele>
        <time>2022-05-21 06:47:18</time>
      </trkpt>
      <trkpt lat="42.06911" lon="2.60667">
        <ele>285.4</ele>
        <time>2022-05-21 06:47:19</time>
      </trkpt>
      <trkpt lat="42.06902" lon="2.60674">
        <ele>285.2</ele>
        <time>2022-05-21 06:47:20</time>
      </trkpt>
      <trkpt lat="42.06894" lon="2.6068">
        <ele>285</ele>
        <time>2022-05-21 06:47:21</time>
      </trkpt>
      <trkpt lat="42.06886" lon="2.60687">
        <ele>284.8</ele>
        <time>2022-05-21 06:47:22</time>
      </trkpt>
      <trkpt lat="42.06878" lon="2.60694">
        <ele>284.4</ele>
        <time>2022-05-21 06:47:23</time>
      </trkpt>
      <trkpt lat="42.0687" lon="2.607">
        <ele>284.2</ele>
        <time>2022-05-21 06:47:24</time>
      </trkpt>
      <trkpt lat="42.06862" lon="2.60707">
        <ele>284</ele>
        <time>2022-05-21 06:47:25</time>
      </trkpt>
      <trkpt lat="42.06854" lon="2.60714">
        <ele>284</ele>
        <time>2022-05-21 06:47:26</time>
      </trkpt>
      <trkpt lat="42.06846" lon="2.6072">
        <ele>283.8</ele>
        <time>2022-05-21 06:47:27</time>
      </trkpt>
      <trkpt lat="42.06839" lon="2.60727">
        <ele>283.4</ele>
        <time>2022-05-21 06:47:28</time>
      </trkpt>
      <trkpt lat="42.06831" lon="2.60734">
        <ele>283.4</ele>
        <time>2022-05-21 06:47:29</time>
      </trkpt>
      <trkpt lat="42.06823" lon="2.6074">
        <ele>283.2</ele>
        <time>2022-05-21 06:47:30</time>
      </trkpt>
      <trkpt lat="42.06815" lon="2.60747">
        <ele>282.8</ele>
        <time>2022-05-21 06:47:31</time>
      </trkpt>
      <trkpt lat="42.06807" lon="2.60755">
        <ele>282.6</ele>
        <time>2022-05-21 06:47:32</time>
      </trkpt>
      <trkpt lat="42.06799" lon="2.60764">
        <ele>282.4</ele>
        <time>2022-05-21 06:47:33</time>
      </trkpt>
      <trkpt lat="42.06791" lon="2.60773">
        <ele>282.2</ele>
        <time>2022-05-21 06:47:34</time>
      </trkpt>
      <trkpt lat="42.06783" lon="2.60781">
        <ele>282</ele>
        <time>2022-05-21 06:47:35</time>
      </trkpt>
      <trkpt lat="42.06774" lon="2.60788">
        <ele>281.8</ele>
        <time>2022-05-21 06:47:36</time>
      </trkpt>
      <trkpt lat="42.06765" lon="2.60794">
        <ele>281.6</ele>
        <time>2022-05-21 06:47:37</time>
      </trkpt>
      <trkpt lat="42.06757" lon="2.60801">
        <ele>281.4</ele>
        <time>2022-05-21 06:47:38</time>
      </trkpt>
      <trkpt lat="42.06748" lon="2.60807">
        <ele>281.4</ele>
        <time>2022-05-21 06:47:39</time>
      </trkpt>
      <trkpt lat="42.0674" lon="2.60814">
        <ele>281.2</ele>
        <time>2022-05-21 06:47:40</time>
      </trkpt>
      <trkpt lat="42.06732" lon="2.60819">
        <ele>281.2</ele>
        <time>2022-05-21 06:47:41</time>
      </trkpt>
      <trkpt lat="42.06724" lon="2.60825">
        <ele>281</ele>
        <time>2022-05-21 06:47:42</time>
      </trkpt>
      <trkpt lat="42.06716" lon="2.6083">
        <ele>280.8</ele>
        <time>2022-05-21 06:47:43</time>
      </trkpt>
      <trkpt lat="42.06709" lon="2.60837">
        <ele>280.8</ele>
        <time>2022-05-21 06:47:44</time>
      </trkpt>
      <trkpt lat="42.06702" lon="2.60844">
        <ele>280.8</ele>
        <time>2022-05-21 06:47:45</time>
      </trkpt>
      <trkpt lat="42.06695" lon="2.60851">
        <ele>280.8</ele>
        <time>2022-05-21 06:47:46</time>
      </trkpt>
      <trkpt lat="42.06689" lon="2.60857">
        <ele>280.8</ele>
        <time>2022-05-21 06:47:47</time>
      </trkpt>
      <trkpt lat="42.06682" lon="2.60864">
        <ele>280.8</ele>
        <time>2022-05-21 06:47:48</time>
      </trkpt>
      <trkpt lat="42.06676" lon="2.60871">
        <ele>281</ele>
        <time>2022-05-21 06:47:49</time>
      </trkpt>
      <trkpt lat="42.0667" lon="2.60878">
        <ele>281</ele>
        <time>2022-05-21 06:47:50</time>
      </trkpt>
      <trkpt lat="42.06664" lon="2.60885">
        <ele>281.2</ele>
        <time>2022-05-21 06:47:51</time>
      </trkpt>
      <trkpt lat="42.06658" lon="2.60891">
        <ele>281.2</ele>
        <time>2022-05-21 06:47:52</time>
      </trkpt>
      <trkpt lat="42.06652" lon="2.60897">
        <ele>281.2</ele>
        <time>2022-05-21 06:47:53</time>
      </trkpt>
      <trkpt lat="42.06646" lon="2.60903">
        <ele>281.4</ele>
        <time>2022-05-21 06:47:54</time>
      </trkpt>
      <trkpt lat="42.0664" lon="2.60909">
        <ele>281.4</ele>
        <time>2022-05-21 06:47:55</time>
      </trkpt>
      <trkpt lat="42.06634" lon="2.60916">
        <ele>281.4</ele>
        <time>2022-05-21 06:47:56</time>
      </trkpt>
      <trkpt lat="42.06628" lon="2.60922">
        <ele>281.4</ele>
        <time>2022-05-21 06:47:57</time>
      </trkpt>
      <trkpt lat="42.06622" lon="2.60928">
        <ele>281.4</ele>
        <time>2022-05-21 06:47:58</time>
      </trkpt>
      <trkpt lat="42.06617" lon="2.60935">
        <ele>281.4</ele>
        <time>2022-05-21 06:47:59</time>
      </trkpt>
      <trkpt lat="42.06612" lon="2.60941">
        <ele>281.6</ele>
        <time>2022-05-21 06:48:00</time>
      </trkpt>
      <trkpt lat="42.06607" lon="2.60947">
        <ele>281.6</ele>
        <time>2022-05-21 06:48:01</time>
      </trkpt>
      <trkpt lat="42.06602" lon="2.60953">
        <ele>281.6</ele>
        <time>2022-05-21 06:48:02</time>
      </trkpt>
      <trkpt lat="42.06596" lon="2.60959">
        <ele>281.6</ele>
        <time>2022-05-21 06:48:03</time>
      </trkpt>
      <trkpt lat="42.06591" lon="2.60965">
        <ele>281.6</ele>
        <time>2022-05-21 06:48:04</time>
      </trkpt>
      <trkpt lat="42.06586" lon="2.60971">
        <ele>281.8</ele>
        <time>2022-05-21 06:48:05</time>
      </trkpt>
      <trkpt lat="42.0658" lon="2.60977">
        <ele>281.8</ele>
        <time>2022-05-21 06:48:06</time>
      </trkpt>
      <trkpt lat="42.06575" lon="2.60982">
        <ele>281.8</ele>
        <time>2022-05-21 06:48:07</time>
      </trkpt>
      <trkpt lat="42.06569" lon="2.60988">
        <ele>281.8</ele>
        <time>2022-05-21 06:48:08</time>
      </trkpt>
      <trkpt lat="42.06564" lon="2.60994">
        <ele>281.8</ele>
        <time>2022-05-21 06:48:09</time>
      </trkpt>
      <trkpt lat="42.06558" lon="2.60999">
        <ele>281.8</ele>
        <time>2022-05-21 06:48:10</time>
      </trkpt>
      <trkpt lat="42.06551" lon="2.61003">
        <ele>281.8</ele>
        <time>2022-05-21 06:48:11</time>
      </trkpt>
      <trkpt lat="42.06545" lon="2.61008">
        <ele>281.8</ele>
        <time>2022-05-21 06:48:12</time>
      </trkpt>
      <trkpt lat="42.06539" lon="2.61013">
        <ele>281.8</ele>
        <time>2022-05-21 06:48:13</time>
      </trkpt>
      <trkpt lat="42.06532" lon="2.61018">
        <ele>281.8</ele>
        <time>2022-05-21 06:48:14</time>
      </trkpt>
      <trkpt lat="42.06527" lon="2.61025">
        <ele>281.8</ele>
        <time>2022-05-21 06:48:15</time>
      </trkpt>
      <trkpt lat="42.06521" lon="2.61032">
        <ele>281.8</ele>
        <time>2022-05-21 06:48:16</time>
      </trkpt>
      <trkpt lat="42.06516" lon="2.6104">
        <ele>281.8</ele>
        <time>2022-05-21 06:48:17</time>
      </trkpt>
      <trkpt lat="42.06511" lon="2.61049">
        <ele>281.6</ele>
        <time>2022-05-21 06:48:18</time>
      </trkpt>
      <trkpt lat="42.06506" lon="2.61059">
        <ele>281.6</ele>
        <time>2022-05-21 06:48:19</time>
      </trkpt>
      <trkpt lat="42.065" lon="2.61069">
        <ele>281.2</ele>
        <time>2022-05-21 06:48:20</time>
      </trkpt>
      <trkpt lat="42.06495" lon="2.61079">
        <ele>281</ele>
        <time>2022-05-21 06:48:21</time>
      </trkpt>
      <trkpt lat="42.0649" lon="2.6109">
        <ele>280.6</ele>
        <time>2022-05-21 06:48:22</time>
      </trkpt>
      <trkpt lat="42.06484" lon="2.611">
        <ele>280.4</ele>
        <time>2022-05-21 06:48:23</time>
      </trkpt>
      <trkpt lat="42.06478" lon="2.61111">
        <ele>280</ele>
        <time>2022-05-21 06:48:24</time>
      </trkpt>
      <trkpt lat="42.06472" lon="2.61122">
        <ele>279.6</ele>
        <time>2022-05-21 06:48:25</time>
      </trkpt>
      <trkpt lat="42.06466" lon="2.61133">
        <ele>279.2</ele>
        <time>2022-05-21 06:48:26</time>
      </trkpt>
      <trkpt lat="42.0646" lon="2.61143">
        <ele>278.8</ele>
        <time>2022-05-21 06:48:27</time>
      </trkpt>
      <trkpt lat="42.06454" lon="2.61154">
        <ele>278.4</ele>
        <time>2022-05-21 06:48:28</time>
      </trkpt>
      <trkpt lat="42.06448" lon="2.61166">
        <ele>278.2</ele>
        <time>2022-05-21 06:48:29</time>
      </trkpt>
      <trkpt lat="42.06441" lon="2.6118">
        <ele>277.8</ele>
        <time>2022-05-21 06:48:30</time>
      </trkpt>
      <trkpt lat="42.06434" lon="2.61191">
        <ele>277.2</ele>
        <time>2022-05-21 06:48:31</time>
      </trkpt>
      <trkpt lat="42.06427" lon="2.61202">
        <ele>276.8</ele>
        <time>2022-05-21 06:48:32</time>
      </trkpt>
      <trkpt lat="42.06421" lon="2.61212">
        <ele>276.4</ele>
        <time>2022-05-21 06:48:33</time>
      </trkpt>
      <trkpt lat="42.06415" lon="2.61222">
        <ele>276.2</ele>
        <time>2022-05-21 06:48:34</time>
      </trkpt>
      <trkpt lat="42.0641" lon="2.61231">
        <ele>275.8</ele>
        <time>2022-05-21 06:48:35</time>
      </trkpt>
      <trkpt lat="42.06403" lon="2.61241">
        <ele>275.4</ele>
        <time>2022-05-21 06:48:36</time>
      </trkpt>
      <trkpt lat="42.06397" lon="2.6125">
        <ele>275</ele>
        <time>2022-05-21 06:48:37</time>
      </trkpt>
      <trkpt lat="42.06391" lon="2.6126">
        <ele>274.6</ele>
        <time>2022-05-21 06:48:38</time>
      </trkpt>
      <trkpt lat="42.06384" lon="2.6127">
        <ele>274.4</ele>
        <time>2022-05-21 06:48:39</time>
      </trkpt>
      <trkpt lat="42.06377" lon="2.61279">
        <ele>274.2</ele>
        <time>2022-05-21 06:48:40</time>
      </trkpt>
      <trkpt lat="42.06369" lon="2.61289">
        <ele>273.6</ele>
        <time>2022-05-21 06:48:41</time>
      </trkpt>
      <trkpt lat="42.06361" lon="2.613">
        <ele>273</ele>
        <time>2022-05-21 06:48:42</time>
      </trkpt>
      <trkpt lat="42.06353" lon="2.6131">
        <ele>272.4</ele>
        <time>2022-05-21 06:48:43</time>
      </trkpt>
      <trkpt lat="42.06345" lon="2.6132">
        <ele>272</ele>
        <time>2022-05-21 06:48:44</time>
      </trkpt>
      <trkpt lat="42.06337" lon="2.6133">
        <ele>271.6</ele>
        <time>2022-05-21 06:48:45</time>
      </trkpt>
      <trkpt lat="42.06329" lon="2.61339">
        <ele>271</ele>
        <time>2022-05-21 06:48:46</time>
      </trkpt>
      <trkpt lat="42.06321" lon="2.61348">
        <ele>270.6</ele>
        <time>2022-05-21 06:48:47</time>
      </trkpt>
      <trkpt lat="42.06313" lon="2.61357">
        <ele>270.2</ele>
        <time>2022-05-21 06:48:48</time>
      </trkpt>
      <trkpt lat="42.06306" lon="2.61365">
        <ele>270</ele>
        <time>2022-05-21 06:48:49</time>
      </trkpt>
      <trkpt lat="42.06298" lon="2.61374">
        <ele>269.8</ele>
        <time>2022-05-21 06:48:50</time>
      </trkpt>
      <trkpt lat="42.06292" lon="2.61382">
        <ele>269.4</ele>
        <time>2022-05-21 06:48:51</time>
      </trkpt>
      <trkpt lat="42.06284" lon="2.61391">
        <ele>269.2</ele>
        <time>2022-05-21 06:48:52</time>
      </trkpt>
      <trkpt lat="42.06278" lon="2.61401">
        <ele>269</ele>
        <time>2022-05-21 06:48:53</time>
      </trkpt>
      <trkpt lat="42.06271" lon="2.61412">
        <ele>269</ele>
        <time>2022-05-21 06:48:54</time>
      </trkpt>
      <trkpt lat="42.06265" lon="2.61421">
        <ele>268.8</ele>
        <time>2022-05-21 06:48:55</time>
      </trkpt>
      <trkpt lat="42.06259" lon="2.6143">
        <ele>268.8</ele>
        <time>2022-05-21 06:48:56</time>
      </trkpt>
      <trkpt lat="42.06252" lon="2.61439">
        <ele>268.6</ele>
        <time>2022-05-21 06:48:57</time>
      </trkpt>
      <trkpt lat="42.06244" lon="2.61448">
        <ele>268.6</ele>
        <time>2022-05-21 06:48:58</time>
      </trkpt>
      <trkpt lat="42.06237" lon="2.61455">
        <ele>268.4</ele>
        <time>2022-05-21 06:48:59</time>
      </trkpt>
      <trkpt lat="42.06229" lon="2.61463">
        <ele>268.4</ele>
        <time>2022-05-21 06:49:00</time>
      </trkpt>
      <trkpt lat="42.06222" lon="2.61469">
        <ele>268.2</ele>
        <time>2022-05-21 06:49:01</time>
      </trkpt>
      <trkpt lat="42.06215" lon="2.61477">
        <ele>268</ele>
        <time>2022-05-21 06:49:02</time>
      </trkpt>
      <trkpt lat="42.06208" lon="2.61486">
        <ele>268</ele>
        <time>2022-05-21 06:49:03</time>
      </trkpt>
      <trkpt lat="42.06202" lon="2.61496">
        <ele>267.8</ele>
        <time>2022-05-21 06:49:04</time>
      </trkpt>
      <trkpt lat="42.06196" lon="2.61506">
        <ele>267.6</ele>
        <time>2022-05-21 06:49:05</time>
      </trkpt>
      <trkpt lat="42.06189" lon="2.61515">
        <ele>267.6</ele>
        <time>2022-05-21 06:49:06</time>
      </trkpt>
      <trkpt lat="42.06183" lon="2.61523">
        <ele>267.4</ele>
        <time>2022-05-21 06:49:07</time>
      </trkpt>
      <trkpt lat="42.06176" lon="2.61531">
        <ele>267.2</ele>
        <time>2022-05-21 06:49:08</time>
      </trkpt>
      <trkpt lat="42.0617" lon="2.6154">
        <ele>267.2</ele>
        <time>2022-05-21 06:49:09</time>
      </trkpt>
      <trkpt lat="42.06163" lon="2.61547">
        <ele>267</ele>
        <time>2022-05-21 06:49:10</time>
      </trkpt>
      <trkpt lat="42.06156" lon="2.61555">
        <ele>266.8</ele>
        <time>2022-05-21 06:49:11</time>
      </trkpt>
      <trkpt lat="42.06149" lon="2.61563">
        <ele>266.8</ele>
        <time>2022-05-21 06:49:12</time>
      </trkpt>
      <trkpt lat="42.06143" lon="2.61572">
        <ele>266.6</ele>
        <time>2022-05-21 06:49:13</time>
      </trkpt>
      <trkpt lat="42.06137" lon="2.6158">
        <ele>266.4</ele>
        <time>2022-05-21 06:49:14</time>
      </trkpt>
      <trkpt lat="42.06131" lon="2.61589">
        <ele>266.4</ele>
        <time>2022-05-21 06:49:15</time>
      </trkpt>
      <trkpt lat="42.06125" lon="2.61597">
        <ele>266.2</ele>
        <time>2022-05-21 06:49:16</time>
      </trkpt>
      <trkpt lat="42.06119" lon="2.61605">
        <ele>266.2</ele>
        <time>2022-05-21 06:49:17</time>
      </trkpt>
      <trkpt lat="42.06113" lon="2.61613">
        <ele>266.2</ele>
        <time>2022-05-21 06:49:18</time>
      </trkpt>
      <trkpt lat="42.06106" lon="2.61621">
        <ele>266</ele>
        <time>2022-05-21 06:49:19</time>
      </trkpt>
      <trkpt lat="42.061" lon="2.61629">
        <ele>266</ele>
        <time>2022-05-21 06:49:20</time>
      </trkpt>
      <trkpt lat="42.06094" lon="2.61637">
        <ele>266</ele>
        <time>2022-05-21 06:49:21</time>
      </trkpt>
      <trkpt lat="42.06087" lon="2.61646">
        <ele>265.8</ele>
        <time>2022-05-21 06:49:22</time>
      </trkpt>
      <trkpt lat="42.0608" lon="2.61654">
        <ele>265.8</ele>
        <time>2022-05-21 06:49:23</time>
      </trkpt>
      <trkpt lat="42.06073" lon="2.61662">
        <ele>265.8</ele>
        <time>2022-05-21 06:49:24</time>
      </trkpt>
      <trkpt lat="42.06067" lon="2.6167">
        <ele>265.8</ele>
        <time>2022-05-21 06:49:25</time>
      </trkpt>
      <trkpt lat="42.0606" lon="2.61678">
        <ele>265.8</ele>
        <time>2022-05-21 06:49:26</time>
      </trkpt>
      <trkpt lat="42.06054" lon="2.61686">
        <ele>265.6</ele>
        <time>2022-05-21 06:49:27</time>
      </trkpt>
      <trkpt lat="42.06048" lon="2.61694">
        <ele>265.6</ele>
        <time>2022-05-21 06:49:28</time>
      </trkpt>
      <trkpt lat="42.06042" lon="2.61701">
        <ele>265.6</ele>
        <time>2022-05-21 06:49:29</time>
      </trkpt>
      <trkpt lat="42.06035" lon="2.61709">
        <ele>265.6</ele>
        <time>2022-05-21 06:49:30</time>
      </trkpt>
      <trkpt lat="42.06029" lon="2.61717">
        <ele>265.4</ele>
        <time>2022-05-21 06:49:31</time>
      </trkpt>
      <trkpt lat="42.06023" lon="2.61724">
        <ele>265.4</ele>
        <time>2022-05-21 06:49:32</time>
      </trkpt>
      <trkpt lat="42.06017" lon="2.61731">
        <ele>265.2</ele>
        <time>2022-05-21 06:49:33</time>
      </trkpt>
      <trkpt lat="42.06009" lon="2.6174">
        <ele>265.2</ele>
        <time>2022-05-21 06:49:34</time>
      </trkpt>
      <trkpt lat="42.06003" lon="2.61748">
        <ele>265.2</ele>
        <time>2022-05-21 06:49:35</time>
      </trkpt>
      <trkpt lat="42.05997" lon="2.61756">
        <ele>265.2</ele>
        <time>2022-05-21 06:49:36</time>
      </trkpt>
      <trkpt lat="42.05991" lon="2.61764">
        <ele>265</ele>
        <time>2022-05-21 06:49:37</time>
      </trkpt>
      <trkpt lat="42.05985" lon="2.61772">
        <ele>265</ele>
        <time>2022-05-21 06:49:38</time>
      </trkpt>
      <trkpt lat="42.05979" lon="2.6178">
        <ele>265</ele>
        <time>2022-05-21 06:49:39</time>
      </trkpt>
      <trkpt lat="42.05974" lon="2.61789">
        <ele>265</ele>
        <time>2022-05-21 06:49:40</time>
      </trkpt>
      <trkpt lat="42.05969" lon="2.61798">
        <ele>264.8</ele>
        <time>2022-05-21 06:49:41</time>
      </trkpt>
      <trkpt lat="42.05965" lon="2.61808">
        <ele>264.8</ele>
        <time>2022-05-21 06:49:42</time>
      </trkpt>
      <trkpt lat="42.05962" lon="2.61818">
        <ele>264.6</ele>
        <time>2022-05-21 06:49:43</time>
      </trkpt>
      <trkpt lat="42.05957" lon="2.61828">
        <ele>264.6</ele>
        <time>2022-05-21 06:49:44</time>
      </trkpt>
      <trkpt lat="42.05954" lon="2.61838">
        <ele>264.4</ele>
        <time>2022-05-21 06:49:45</time>
      </trkpt>
      <trkpt lat="42.05949" lon="2.61849">
        <ele>264.2</ele>
        <time>2022-05-21 06:49:46</time>
      </trkpt>
      <trkpt lat="42.05945" lon="2.61859">
        <ele>264</ele>
        <time>2022-05-21 06:49:47</time>
      </trkpt>
      <trkpt lat="42.05941" lon="2.6187">
        <ele>264</ele>
        <time>2022-05-21 06:49:48</time>
      </trkpt>
      <trkpt lat="42.05937" lon="2.61879">
        <ele>263.8</ele>
        <time>2022-05-21 06:49:49</time>
      </trkpt>
      <trkpt lat="42.05933" lon="2.6189">
        <ele>263.8</ele>
        <time>2022-05-21 06:49:50</time>
      </trkpt>
      <trkpt lat="42.05929" lon="2.619">
        <ele>263.6</ele>
        <time>2022-05-21 06:49:51</time>
      </trkpt>
      <trkpt lat="42.05925" lon="2.6191">
        <ele>263.6</ele>
        <time>2022-05-21 06:49:52</time>
      </trkpt>
      <trkpt lat="42.05922" lon="2.61921">
        <ele>263.4</ele>
        <time>2022-05-21 06:49:53</time>
      </trkpt>
      <trkpt lat="42.05917" lon="2.61931">
        <ele>263.4</ele>
        <time>2022-05-21 06:49:54</time>
      </trkpt>
      <trkpt lat="42.05913" lon="2.61942">
        <ele>263.2</ele>
        <time>2022-05-21 06:49:55</time>
      </trkpt>
      <trkpt lat="42.05909" lon="2.61952">
        <ele>263.2</ele>
        <time>2022-05-21 06:49:56</time>
      </trkpt>
      <trkpt lat="42.05905" lon="2.61962">
        <ele>263.2</ele>
        <time>2022-05-21 06:49:57</time>
      </trkpt>
      <trkpt lat="42.05901" lon="2.61972">
        <ele>263</ele>
        <time>2022-05-21 06:49:58</time>
      </trkpt>
      <trkpt lat="42.05898" lon="2.61981">
        <ele>263</ele>
        <time>2022-05-21 06:49:59</time>
      </trkpt>
      <trkpt lat="42.05894" lon="2.61993">
        <ele>263.2</ele>
        <time>2022-05-21 06:50:00</time>
      </trkpt>
      <trkpt lat="42.05891" lon="2.62001">
        <ele>263</ele>
        <time>2022-05-21 06:50:01</time>
      </trkpt>
      <trkpt lat="42.05888" lon="2.62007">
        <ele>263</ele>
        <time>2022-05-21 06:50:02</time>
      </trkpt>
      <trkpt lat="42.05883" lon="2.62022">
        <ele>262.8</ele>
        <time>2022-05-21 06:50:03</time>
      </trkpt>
      <trkpt lat="42.05878" lon="2.62033">
        <ele>262.6</ele>
        <time>2022-05-21 06:50:04</time>
      </trkpt>
      <trkpt lat="42.05875" lon="2.62043">
        <ele>262.6</ele>
        <time>2022-05-21 06:50:05</time>
      </trkpt>
      <trkpt lat="42.05871" lon="2.62053">
        <ele>262.4</ele>
        <time>2022-05-21 06:50:06</time>
      </trkpt>
      <trkpt lat="42.05868" lon="2.62062">
        <ele>262.4</ele>
        <time>2022-05-21 06:50:07</time>
      </trkpt>
      <trkpt lat="42.05864" lon="2.62074">
        <ele>262.2</ele>
        <time>2022-05-21 06:50:08</time>
      </trkpt>
      <trkpt lat="42.0586" lon="2.62084">
        <ele>262.2</ele>
        <time>2022-05-21 06:50:09</time>
      </trkpt>
      <trkpt lat="42.05856" lon="2.62095">
        <ele>262</ele>
        <time>2022-05-21 06:50:10</time>
      </trkpt>
      <trkpt lat="42.05852" lon="2.62105">
        <ele>261.8</ele>
        <time>2022-05-21 06:50:11</time>
      </trkpt>
      <trkpt lat="42.05848" lon="2.62115">
        <ele>261.8</ele>
        <time>2022-05-21 06:50:12</time>
      </trkpt>
      <trkpt lat="42.05844" lon="2.62126">
        <ele>261.6</ele>
        <time>2022-05-21 06:50:13</time>
      </trkpt>
      <trkpt lat="42.0584" lon="2.62136">
        <ele>261.4</ele>
        <time>2022-05-21 06:50:14</time>
      </trkpt>
      <trkpt lat="42.05836" lon="2.62146">
        <ele>261.4</ele>
        <time>2022-05-21 06:50:15</time>
      </trkpt>
      <trkpt lat="42.05832" lon="2.62157">
        <ele>261.4</ele>
        <time>2022-05-21 06:50:16</time>
      </trkpt>
      <trkpt lat="42.05828" lon="2.62167">
        <ele>261.2</ele>
        <time>2022-05-21 06:50:17</time>
      </trkpt>
      <trkpt lat="42.05824" lon="2.62177">
        <ele>261.2</ele>
        <time>2022-05-21 06:50:18</time>
      </trkpt>
      <trkpt lat="42.0582" lon="2.62187">
        <ele>261</ele>
        <time>2022-05-21 06:50:19</time>
      </trkpt>
      <trkpt lat="42.05816" lon="2.62197">
        <ele>261</ele>
        <time>2022-05-21 06:50:20</time>
      </trkpt>
      <trkpt lat="42.05811" lon="2.62207">
        <ele>261</ele>
        <time>2022-05-21 06:50:21</time>
      </trkpt>
      <trkpt lat="42.05807" lon="2.62217">
        <ele>260.8</ele>
        <time>2022-05-21 06:50:22</time>
      </trkpt>
      <trkpt lat="42.05804" lon="2.62226">
        <ele>260.8</ele>
        <time>2022-05-21 06:50:23</time>
      </trkpt>
      <trkpt lat="42.05799" lon="2.62236">
        <ele>260.8</ele>
        <time>2022-05-21 06:50:24</time>
      </trkpt>
      <trkpt lat="42.05796" lon="2.62247">
        <ele>260.6</ele>
        <time>2022-05-21 06:50:25</time>
      </trkpt>
      <trkpt lat="42.05792" lon="2.62256">
        <ele>260.6</ele>
        <time>2022-05-21 06:50:26</time>
      </trkpt>
      <trkpt lat="42.05788" lon="2.62266">
        <ele>260.6</ele>
        <time>2022-05-21 06:50:27</time>
      </trkpt>
      <trkpt lat="42.05784" lon="2.62275">
        <ele>260.4</ele>
        <time>2022-05-21 06:50:28</time>
      </trkpt>
      <trkpt lat="42.0578" lon="2.62285">
        <ele>260.2</ele>
        <time>2022-05-21 06:50:29</time>
      </trkpt>
      <trkpt lat="42.05775" lon="2.62295">
        <ele>260.2</ele>
        <time>2022-05-21 06:50:30</time>
      </trkpt>
      <trkpt lat="42.0577" lon="2.62304">
        <ele>260</ele>
        <time>2022-05-21 06:50:31</time>
      </trkpt>
      <trkpt lat="42.05766" lon="2.62313">
        <ele>260</ele>
        <time>2022-05-21 06:50:32</time>
      </trkpt>
      <trkpt lat="42.0576" lon="2.62321">
        <ele>260</ele>
        <time>2022-05-21 06:50:33</time>
      </trkpt>
      <trkpt lat="42.05754" lon="2.6233">
        <ele>259.8</ele>
        <time>2022-05-21 06:50:34</time>
      </trkpt>
      <trkpt lat="42.05749" lon="2.62337">
        <ele>259.8</ele>
        <time>2022-05-21 06:50:35</time>
      </trkpt>
      <trkpt lat="42.05743" lon="2.62346">
        <ele>259.8</ele>
        <time>2022-05-21 06:50:36</time>
      </trkpt>
      <trkpt lat="42.05738" lon="2.62354">
        <ele>259.8</ele>
        <time>2022-05-21 06:50:37</time>
      </trkpt>
      <trkpt lat="42.05732" lon="2.62362">
        <ele>259.8</ele>
        <time>2022-05-21 06:50:38</time>
      </trkpt>
      <trkpt lat="42.05727" lon="2.6237">
        <ele>259.8</ele>
        <time>2022-05-21 06:50:39</time>
      </trkpt>
      <trkpt lat="42.05721" lon="2.62377">
        <ele>259.8</ele>
        <time>2022-05-21 06:50:40</time>
      </trkpt>
      <trkpt lat="42.05716" lon="2.62385">
        <ele>259.8</ele>
        <time>2022-05-21 06:50:41</time>
      </trkpt>
      <trkpt lat="42.0571" lon="2.62393">
        <ele>259.8</ele>
        <time>2022-05-21 06:50:42</time>
      </trkpt>
      <trkpt lat="42.05704" lon="2.62401">
        <ele>259.8</ele>
        <time>2022-05-21 06:50:43</time>
      </trkpt>
      <trkpt lat="42.05699" lon="2.62409">
        <ele>259.8</ele>
        <time>2022-05-21 06:50:44</time>
      </trkpt>
      <trkpt lat="42.05693" lon="2.62417">
        <ele>259.8</ele>
        <time>2022-05-21 06:50:45</time>
      </trkpt>
      <trkpt lat="42.05688" lon="2.62425">
        <ele>259.8</ele>
        <time>2022-05-21 06:50:46</time>
      </trkpt>
      <trkpt lat="42.05682" lon="2.62433">
        <ele>259.8</ele>
        <time>2022-05-21 06:50:47</time>
      </trkpt>
      <trkpt lat="42.05676" lon="2.62441">
        <ele>259.8</ele>
        <time>2022-05-21 06:50:48</time>
      </trkpt>
      <trkpt lat="42.0567" lon="2.62449">
        <ele>259.8</ele>
        <time>2022-05-21 06:50:49</time>
      </trkpt>
      <trkpt lat="42.05665" lon="2.62456">
        <ele>259.6</ele>
        <time>2022-05-21 06:50:50</time>
      </trkpt>
      <trkpt lat="42.05659" lon="2.62464">
        <ele>259.6</ele>
        <time>2022-05-21 06:50:51</time>
      </trkpt>
      <trkpt lat="42.05654" lon="2.62472">
        <ele>259.6</ele>
        <time>2022-05-21 06:50:52</time>
      </trkpt>
      <trkpt lat="42.05648" lon="2.6248">
        <ele>259.6</ele>
        <time>2022-05-21 06:50:53</time>
      </trkpt>
      <trkpt lat="42.05643" lon="2.62489">
        <ele>259.6</ele>
        <time>2022-05-21 06:50:54</time>
      </trkpt>
      <trkpt lat="42.05638" lon="2.62497">
        <ele>259.6</ele>
        <time>2022-05-21 06:50:55</time>
      </trkpt>
      <trkpt lat="42.05632" lon="2.62505">
        <ele>259.6</ele>
        <time>2022-05-21 06:50:56</time>
      </trkpt>
      <trkpt lat="42.05627" lon="2.62513">
        <ele>259.6</ele>
        <time>2022-05-21 06:50:57</time>
      </trkpt>
      <trkpt lat="42.05621" lon="2.62521">
        <ele>259.6</ele>
        <time>2022-05-21 06:50:58</time>
      </trkpt>
      <trkpt lat="42.05616" lon="2.62529">
        <ele>259.6</ele>
        <time>2022-05-21 06:50:59</time>
      </trkpt>
      <trkpt lat="42.0561" lon="2.62537">
        <ele>259.6</ele>
        <time>2022-05-21 06:51:00</time>
      </trkpt>
      <trkpt lat="42.05605" lon="2.62544">
        <ele>259.6</ele>
        <time>2022-05-21 06:51:01</time>
      </trkpt>
      <trkpt lat="42.05598" lon="2.62552">
        <ele>259.4</ele>
        <time>2022-05-21 06:51:02</time>
      </trkpt>
      <trkpt lat="42.05593" lon="2.6256">
        <ele>259.4</ele>
        <time>2022-05-21 06:51:03</time>
      </trkpt>
      <trkpt lat="42.05587" lon="2.62568">
        <ele>259.4</ele>
        <time>2022-05-21 06:51:04</time>
      </trkpt>
      <trkpt lat="42.05582" lon="2.62576">
        <ele>259.4</ele>
        <time>2022-05-21 06:51:05</time>
      </trkpt>
      <trkpt lat="42.05576" lon="2.62584">
        <ele>259.2</ele>
        <time>2022-05-21 06:51:06</time>
      </trkpt>
      <trkpt lat="42.0557" lon="2.62592">
        <ele>259.2</ele>
        <time>2022-05-21 06:51:07</time>
      </trkpt>
      <trkpt lat="42.05565" lon="2.626">
        <ele>259.2</ele>
        <time>2022-05-21 06:51:08</time>
      </trkpt>
      <trkpt lat="42.05559" lon="2.62608">
        <ele>259.2</ele>
        <time>2022-05-21 06:51:09</time>
      </trkpt>
      <trkpt lat="42.05553" lon="2.62616">
        <ele>259</ele>
        <time>2022-05-21 06:51:10</time>
      </trkpt>
      <trkpt lat="42.05547" lon="2.62624">
        <ele>259</ele>
        <time>2022-05-21 06:51:11</time>
      </trkpt>
      <trkpt lat="42.05542" lon="2.62632">
        <ele>259</ele>
        <time>2022-05-21 06:51:12</time>
      </trkpt>
      <trkpt lat="42.05536" lon="2.62639">
        <ele>259</ele>
        <time>2022-05-21 06:51:13</time>
      </trkpt>
      <trkpt lat="42.05531" lon="2.62647">
        <ele>259</ele>
        <time>2022-05-21 06:51:14</time>
      </trkpt>
      <trkpt lat="42.05525" lon="2.62655">
        <ele>259</ele>
        <time>2022-05-21 06:51:15</time>
      </trkpt>
      <trkpt lat="42.05519" lon="2.62663">
        <ele>259</ele>
        <time>2022-05-21 06:51:16</time>
      </trkpt>
      <trkpt lat="42.05514" lon="2.6267">
        <ele>258.8</ele>
        <time>2022-05-21 06:51:17</time>
      </trkpt>
      <trkpt lat="42.05508" lon="2.62678">
        <ele>258.8</ele>
        <time>2022-05-21 06:51:18</time>
      </trkpt>
      <trkpt lat="42.05503" lon="2.62686">
        <ele>258.8</ele>
        <time>2022-05-21 06:51:19</time>
      </trkpt>
      <trkpt lat="42.05498" lon="2.62693">
        <ele>258.8</ele>
        <time>2022-05-21 06:51:20</time>
      </trkpt>
      <trkpt lat="42.05492" lon="2.62701">
        <ele>258.8</ele>
        <time>2022-05-21 06:51:21</time>
      </trkpt>
      <trkpt lat="42.05487" lon="2.62709">
        <ele>258.8</ele>
        <time>2022-05-21 06:51:22</time>
      </trkpt>
      <trkpt lat="42.05482" lon="2.62717">
        <ele>258.8</ele>
        <time>2022-05-21 06:51:23</time>
      </trkpt>
      <trkpt lat="42.05476" lon="2.62724">
        <ele>258.8</ele>
        <time>2022-05-21 06:51:24</time>
      </trkpt>
      <trkpt lat="42.0547" lon="2.62732">
        <ele>258.8</ele>
        <time>2022-05-21 06:51:25</time>
      </trkpt>
      <trkpt lat="42.05465" lon="2.6274">
        <ele>258.6</ele>
        <time>2022-05-21 06:51:26</time>
      </trkpt>
      <trkpt lat="42.05459" lon="2.62748">
        <ele>258.6</ele>
        <time>2022-05-21 06:51:27</time>
      </trkpt>
      <trkpt lat="42.05453" lon="2.62755">
        <ele>258.6</ele>
        <time>2022-05-21 06:51:28</time>
      </trkpt>
      <trkpt lat="42.05448" lon="2.62764">
        <ele>258.6</ele>
        <time>2022-05-21 06:51:29</time>
      </trkpt>
      <trkpt lat="42.05442" lon="2.62772">
        <ele>258.6</ele>
        <time>2022-05-21 06:51:30</time>
      </trkpt>
      <trkpt lat="42.05436" lon="2.6278">
        <ele>258.6</ele>
        <time>2022-05-21 06:51:31</time>
      </trkpt>
      <trkpt lat="42.05431" lon="2.62788">
        <ele>258.4</ele>
        <time>2022-05-21 06:51:32</time>
      </trkpt>
      <trkpt lat="42.05426" lon="2.62795">
        <ele>258.4</ele>
        <time>2022-05-21 06:51:33</time>
      </trkpt>
      <trkpt lat="42.0542" lon="2.62804">
        <ele>258.4</ele>
        <time>2022-05-21 06:51:34</time>
      </trkpt>
      <trkpt lat="42.05414" lon="2.62811">
        <ele>258.2</ele>
        <time>2022-05-21 06:51:35</time>
      </trkpt>
      <trkpt lat="42.05408" lon="2.62819">
        <ele>258.2</ele>
        <time>2022-05-21 06:51:36</time>
      </trkpt>
      <trkpt lat="42.05401" lon="2.62825">
        <ele>258.2</ele>
        <time>2022-05-21 06:51:37</time>
      </trkpt>
      <trkpt lat="42.05394" lon="2.62831">
        <ele>258.2</ele>
        <time>2022-05-21 06:51:38</time>
      </trkpt>
      <trkpt lat="42.05387" lon="2.62835">
        <ele>258.2</ele>
        <time>2022-05-21 06:51:39</time>
      </trkpt>
      <trkpt lat="42.05379" lon="2.6284">
        <ele>258</ele>
        <time>2022-05-21 06:51:40</time>
      </trkpt>
      <trkpt lat="42.05372" lon="2.62844">
        <ele>258</ele>
        <time>2022-05-21 06:51:41</time>
      </trkpt>
      <trkpt lat="42.05364" lon="2.62847">
        <ele>258</ele>
        <time>2022-05-21 06:51:42</time>
      </trkpt>
      <trkpt lat="42.05356" lon="2.62851">
        <ele>258</ele>
        <time>2022-05-21 06:51:43</time>
      </trkpt>
      <trkpt lat="42.05349" lon="2.62855">
        <ele>257.8</ele>
        <time>2022-05-21 06:51:44</time>
      </trkpt>
      <trkpt lat="42.05341" lon="2.62859">
        <ele>257.8</ele>
        <time>2022-05-21 06:51:45</time>
      </trkpt>
      <trkpt lat="42.05333" lon="2.62863">
        <ele>257.8</ele>
        <time>2022-05-21 06:51:46</time>
      </trkpt>
      <trkpt lat="42.05325" lon="2.62866">
        <ele>257.8</ele>
        <time>2022-05-21 06:51:47</time>
      </trkpt>
      <trkpt lat="42.05318" lon="2.62869">
        <ele>257.8</ele>
        <time>2022-05-21 06:51:48</time>
      </trkpt>
      <trkpt lat="42.0531" lon="2.62873">
        <ele>257.6</ele>
        <time>2022-05-21 06:51:49</time>
      </trkpt>
      <trkpt lat="42.05302" lon="2.62876">
        <ele>257.6</ele>
        <time>2022-05-21 06:51:50</time>
      </trkpt>
      <trkpt lat="42.05295" lon="2.62879">
        <ele>257.6</ele>
        <time>2022-05-21 06:51:51</time>
      </trkpt>
      <trkpt lat="42.05286" lon="2.62883">
        <ele>257.6</ele>
        <time>2022-05-21 06:51:52</time>
      </trkpt>
      <trkpt lat="42.05278" lon="2.62886">
        <ele>257.4</ele>
        <time>2022-05-21 06:51:53</time>
      </trkpt>
      <trkpt lat="42.0527" lon="2.6289">
        <ele>257.4</ele>
        <time>2022-05-21 06:51:54</time>
      </trkpt>
      <trkpt lat="42.05263" lon="2.62893">
        <ele>257.4</ele>
        <time>2022-05-21 06:51:55</time>
      </trkpt>
      <trkpt lat="42.05255" lon="2.62897">
        <ele>257.4</ele>
        <time>2022-05-21 06:51:56</time>
      </trkpt>
      <trkpt lat="42.05247" lon="2.629">
        <ele>257.4</ele>
        <time>2022-05-21 06:51:57</time>
      </trkpt>
      <trkpt lat="42.0524" lon="2.62904">
        <ele>257.4</ele>
        <time>2022-05-21 06:51:58</time>
      </trkpt>
      <trkpt lat="42.05232" lon="2.62907">
        <ele>257.4</ele>
        <time>2022-05-21 06:51:59</time>
      </trkpt>
      <trkpt lat="42.05225" lon="2.6291">
        <ele>257.4</ele>
        <time>2022-05-21 06:52:00</time>
      </trkpt>
      <trkpt lat="42.05217" lon="2.62914">
        <ele>257.4</ele>
        <time>2022-05-21 06:52:01</time>
      </trkpt>
      <trkpt lat="42.0521" lon="2.62918">
        <ele>257.4</ele>
        <time>2022-05-21 06:52:02</time>
      </trkpt>
      <trkpt lat="42.05202" lon="2.62921">
        <ele>257.4</ele>
        <time>2022-05-21 06:52:03</time>
      </trkpt>
      <trkpt lat="42.05195" lon="2.62925">
        <ele>257.4</ele>
        <time>2022-05-21 06:52:04</time>
      </trkpt>
      <trkpt lat="42.05188" lon="2.62929">
        <ele>257.4</ele>
        <time>2022-05-21 06:52:05</time>
      </trkpt>
      <trkpt lat="42.05182" lon="2.62935">
        <ele>257.4</ele>
        <time>2022-05-21 06:52:06</time>
      </trkpt>
      <trkpt lat="42.05177" lon="2.62941">
        <ele>257.6</ele>
        <time>2022-05-21 06:52:07</time>
      </trkpt>
      <trkpt lat="42.05173" lon="2.62948">
        <ele>257.6</ele>
        <time>2022-05-21 06:52:08</time>
      </trkpt>
      <trkpt lat="42.05169" lon="2.62957">
        <ele>257.8</ele>
        <time>2022-05-21 06:52:09</time>
      </trkpt>
      <trkpt lat="42.05165" lon="2.62966">
        <ele>257.8</ele>
        <time>2022-05-21 06:52:10</time>
      </trkpt>
      <trkpt lat="42.05163" lon="2.62975">
        <ele>258</ele>
        <time>2022-05-21 06:52:11</time>
      </trkpt>
      <trkpt lat="42.05161" lon="2.62984">
        <ele>258.2</ele>
        <time>2022-05-21 06:52:12</time>
      </trkpt>
      <trkpt lat="42.0516" lon="2.62992">
        <ele>258.4</ele>
        <time>2022-05-21 06:52:13</time>
      </trkpt>
      <trkpt lat="42.05158" lon="2.63">
        <ele>258.8</ele>
        <time>2022-05-21 06:52:14</time>
      </trkpt>
      <trkpt lat="42.05157" lon="2.63008">
        <ele>259</ele>
        <time>2022-05-21 06:52:15</time>
      </trkpt>
      <trkpt lat="42.05155" lon="2.63016">
        <ele>259.2</ele>
        <time>2022-05-21 06:52:16</time>
      </trkpt>
      <trkpt lat="42.05154" lon="2.63024">
        <ele>259.6</ele>
        <time>2022-05-21 06:52:17</time>
      </trkpt>
      <trkpt lat="42.05153" lon="2.63031">
        <ele>259.8</ele>
        <time>2022-05-21 06:52:18</time>
      </trkpt>
      <trkpt lat="42.05151" lon="2.63039">
        <ele>260.2</ele>
        <time>2022-05-21 06:52:19</time>
      </trkpt>
      <trkpt lat="42.05148" lon="2.63046">
        <ele>260.4</ele>
        <time>2022-05-21 06:52:20</time>
      </trkpt>
      <trkpt lat="42.05146" lon="2.63053">
        <ele>260.6</ele>
        <time>2022-05-21 06:52:21</time>
      </trkpt>
      <trkpt lat="42.05145" lon="2.6306">
        <ele>260.8</ele>
        <time>2022-05-21 06:52:22</time>
      </trkpt>
      <trkpt lat="42.05143" lon="2.63067">
        <ele>261</ele>
        <time>2022-05-21 06:52:23</time>
      </trkpt>
      <trkpt lat="42.05141" lon="2.63074">
        <ele>261.2</ele>
        <time>2022-05-21 06:52:24</time>
      </trkpt>
      <trkpt lat="42.0514" lon="2.63081">
        <ele>261.4</ele>
        <time>2022-05-21 06:52:25</time>
      </trkpt>
      <trkpt lat="42.05138" lon="2.63087">
        <ele>261.6</ele>
        <time>2022-05-21 06:52:26</time>
      </trkpt>
      <trkpt lat="42.05136" lon="2.63093">
        <ele>261.8</ele>
        <time>2022-05-21 06:52:27</time>
      </trkpt>
      <trkpt lat="42.05135" lon="2.631">
        <ele>261.8</ele>
        <time>2022-05-21 06:52:28</time>
      </trkpt>
      <trkpt lat="42.05133" lon="2.63106">
        <ele>262</ele>
        <time>2022-05-21 06:52:29</time>
      </trkpt>
      <trkpt lat="42.05132" lon="2.63113">
        <ele>262.2</ele>
        <time>2022-05-21 06:52:30</time>
      </trkpt>
      <trkpt lat="42.05131" lon="2.6312">
        <ele>262.4</ele>
        <time>2022-05-21 06:52:31</time>
      </trkpt>
      <trkpt lat="42.05129" lon="2.63126">
        <ele>262.6</ele>
        <time>2022-05-21 06:52:32</time>
      </trkpt>
      <trkpt lat="42.05128" lon="2.63133">
        <ele>262.6</ele>
        <time>2022-05-21 06:52:33</time>
      </trkpt>
      <trkpt lat="42.05127" lon="2.6314">
        <ele>262.8</ele>
        <time>2022-05-21 06:52:34</time>
      </trkpt>
      <trkpt lat="42.05126" lon="2.63146">
        <ele>263</ele>
        <time>2022-05-21 06:52:35</time>
      </trkpt>
      <trkpt lat="42.05125" lon="2.63153">
        <ele>263</ele>
        <time>2022-05-21 06:52:36</time>
      </trkpt>
      <trkpt lat="42.05124" lon="2.63161">
        <ele>263</ele>
        <time>2022-05-21 06:52:37</time>
      </trkpt>
      <trkpt lat="42.05122" lon="2.63168">
        <ele>263.2</ele>
        <time>2022-05-21 06:52:38</time>
      </trkpt>
      <trkpt lat="42.0512" lon="2.63175">
        <ele>263.2</ele>
        <time>2022-05-21 06:52:39</time>
      </trkpt>
      <trkpt lat="42.05118" lon="2.63183">
        <ele>263.2</ele>
        <time>2022-05-21 06:52:40</time>
      </trkpt>
      <trkpt lat="42.05116" lon="2.6319">
        <ele>263.2</ele>
        <time>2022-05-21 06:52:41</time>
      </trkpt>
      <trkpt lat="42.05113" lon="2.63197">
        <ele>263.2</ele>
        <time>2022-05-21 06:52:42</time>
      </trkpt>
      <trkpt lat="42.05109" lon="2.63204">
        <ele>263.4</ele>
        <time>2022-05-21 06:52:43</time>
      </trkpt>
      <trkpt lat="42.05106" lon="2.63211">
        <ele>263.4</ele>
        <time>2022-05-21 06:52:44</time>
      </trkpt>
      <trkpt lat="42.05103" lon="2.63217">
        <ele>263.4</ele>
        <time>2022-05-21 06:52:45</time>
      </trkpt>
      <trkpt lat="42.05099" lon="2.63224">
        <ele>263.6</ele>
        <time>2022-05-21 06:52:46</time>
      </trkpt>
      <trkpt lat="42.05096" lon="2.6323">
        <ele>263.6</ele>
        <time>2022-05-21 06:52:47</time>
      </trkpt>
      <trkpt lat="42.05093" lon="2.63235">
        <ele>263.6</ele>
        <time>2022-05-21 06:52:48</time>
      </trkpt>
      <trkpt lat="42.05089" lon="2.63241">
        <ele>263.8</ele>
        <time>2022-05-21 06:52:49</time>
      </trkpt>
      <trkpt lat="42.05085" lon="2.63246">
        <ele>263.8</ele>
        <time>2022-05-21 06:52:50</time>
      </trkpt>
      <trkpt lat="42.05081" lon="2.63251">
        <ele>263.8</ele>
        <time>2022-05-21 06:52:51</time>
      </trkpt>
      <trkpt lat="42.05077" lon="2.63256">
        <ele>264</ele>
        <time>2022-05-21 06:52:52</time>
      </trkpt>
      <trkpt lat="42.05074" lon="2.63262">
        <ele>264</ele>
        <time>2022-05-21 06:52:53</time>
      </trkpt>
      <trkpt lat="42.05069" lon="2.63268">
        <ele>264</ele>
        <time>2022-05-21 06:52:54</time>
      </trkpt>
      <trkpt lat="42.05065" lon="2.63273">
        <ele>264.2</ele>
        <time>2022-05-21 06:52:55</time>
      </trkpt>
      <trkpt lat="42.05061" lon="2.63278">
        <ele>264.2</ele>
        <time>2022-05-21 06:52:56</time>
      </trkpt>
      <trkpt lat="42.05056" lon="2.63284">
        <ele>264.2</ele>
        <time>2022-05-21 06:52:57</time>
      </trkpt>
      <trkpt lat="42.05051" lon="2.63289">
        <ele>264.2</ele>
        <time>2022-05-21 06:52:58</time>
      </trkpt>
      <trkpt lat="42.05046" lon="2.63294">
        <ele>264.4</ele>
        <time>2022-05-21 06:52:59</time>
      </trkpt>
      <trkpt lat="42.05041" lon="2.63299">
        <ele>264.4</ele>
        <time>2022-05-21 06:53:00</time>
      </trkpt>
      <trkpt lat="42.05036" lon="2.63304">
        <ele>264.4</ele>
        <time>2022-05-21 06:53:01</time>
      </trkpt>
      <trkpt lat="42.0503" lon="2.63309">
        <ele>264.2</ele>
        <time>2022-05-21 06:53:02</time>
      </trkpt>
      <trkpt lat="42.05024" lon="2.63313">
        <ele>264.2</ele>
        <time>2022-05-21 06:53:03</time>
      </trkpt>
      <trkpt lat="42.05018" lon="2.63317">
        <ele>264</ele>
        <time>2022-05-21 06:53:04</time>
      </trkpt>
      <trkpt lat="42.05011" lon="2.6332">
        <ele>264</ele>
        <time>2022-05-21 06:53:05</time>
      </trkpt>
      <trkpt lat="42.05005" lon="2.63323">
        <ele>263.8</ele>
        <time>2022-05-21 06:53:06</time>
      </trkpt>
      <trkpt lat="42.04999" lon="2.63326">
        <ele>263.6</ele>
        <time>2022-05-21 06:53:07</time>
      </trkpt>
      <trkpt lat="42.04992" lon="2.63329">
        <ele>263.4</ele>
        <time>2022-05-21 06:53:08</time>
      </trkpt>
      <trkpt lat="42.04984" lon="2.63332">
        <ele>263</ele>
        <time>2022-05-21 06:53:09</time>
      </trkpt>
      <trkpt lat="42.04977" lon="2.63335">
        <ele>262.8</ele>
        <time>2022-05-21 06:53:10</time>
      </trkpt>
      <trkpt lat="42.04969" lon="2.63338">
        <ele>262.4</ele>
        <time>2022-05-21 06:53:11</time>
      </trkpt>
      <trkpt lat="42.04961" lon="2.63342">
        <ele>262.2</ele>
        <time>2022-05-21 06:53:12</time>
      </trkpt>
      <trkpt lat="42.04953" lon="2.63345">
        <ele>262</ele>
        <time>2022-05-21 06:53:13</time>
      </trkpt>
      <trkpt lat="42.04946" lon="2.63348">
        <ele>261.6</ele>
        <time>2022-05-21 06:53:14</time>
      </trkpt>
      <trkpt lat="42.04937" lon="2.63351">
        <ele>261.4</ele>
        <time>2022-05-21 06:53:15</time>
      </trkpt>
      <trkpt lat="42.04929" lon="2.63355">
        <ele>261</ele>
        <time>2022-05-21 06:53:16</time>
      </trkpt>
      <trkpt lat="42.04921" lon="2.63358">
        <ele>260.8</ele>
        <time>2022-05-21 06:53:17</time>
      </trkpt>
      <trkpt lat="42.04913" lon="2.63361">
        <ele>260.6</ele>
        <time>2022-05-21 06:53:18</time>
      </trkpt>
      <trkpt lat="42.04905" lon="2.63365">
        <ele>260.2</ele>
        <time>2022-05-21 06:53:19</time>
      </trkpt>
      <trkpt lat="42.04896" lon="2.63368">
        <ele>260</ele>
        <time>2022-05-21 06:53:20</time>
      </trkpt>
      <trkpt lat="42.04887" lon="2.6337">
        <ele>259.8</ele>
        <time>2022-05-21 06:53:21</time>
      </trkpt>
      <trkpt lat="42.04879" lon="2.63373">
        <ele>259.4</ele>
        <time>2022-05-21 06:53:22</time>
      </trkpt>
      <trkpt lat="42.0487" lon="2.63377">
        <ele>259.2</ele>
        <time>2022-05-21 06:53:23</time>
      </trkpt>
      <trkpt lat="42.04862" lon="2.6338">
        <ele>258.8</ele>
        <time>2022-05-21 06:53:24</time>
      </trkpt>
      <trkpt lat="42.04853" lon="2.63384">
        <ele>258.6</ele>
        <time>2022-05-21 06:53:25</time>
      </trkpt>
      <trkpt lat="42.04844" lon="2.63388">
        <ele>258.4</ele>
        <time>2022-05-21 06:53:26</time>
      </trkpt>
      <trkpt lat="42.04835" lon="2.63392">
        <ele>258</ele>
        <time>2022-05-21 06:53:27</time>
      </trkpt>
      <trkpt lat="42.04825" lon="2.63397">
        <ele>257.6</ele>
        <time>2022-05-21 06:53:28</time>
      </trkpt>
      <trkpt lat="42.04815" lon="2.63401">
        <ele>257.4</ele>
        <time>2022-05-21 06:53:29</time>
      </trkpt>
      <trkpt lat="42.04805" lon="2.63406">
        <ele>257</ele>
        <time>2022-05-21 06:53:30</time>
      </trkpt>
      <trkpt lat="42.04795" lon="2.6341">
        <ele>256.8</ele>
        <time>2022-05-21 06:53:31</time>
      </trkpt>
      <trkpt lat="42.04787" lon="2.63415">
        <ele>256.6</ele>
        <time>2022-05-21 06:53:32</time>
      </trkpt>
      <trkpt lat="42.04779" lon="2.63421">
        <ele>256.4</ele>
        <time>2022-05-21 06:53:33</time>
      </trkpt>
      <trkpt lat="42.04771" lon="2.63431">
        <ele>256.2</ele>
        <time>2022-05-21 06:53:34</time>
      </trkpt>
      <trkpt lat="42.04764" lon="2.63439">
        <ele>256</ele>
        <time>2022-05-21 06:53:35</time>
      </trkpt>
      <trkpt lat="42.04758" lon="2.63447">
        <ele>256</ele>
        <time>2022-05-21 06:53:36</time>
      </trkpt>
      <trkpt lat="42.04751" lon="2.63455">
        <ele>255.8</ele>
        <time>2022-05-21 06:53:37</time>
      </trkpt>
      <trkpt lat="42.04745" lon="2.63462">
        <ele>255.8</ele>
        <time>2022-05-21 06:53:38</time>
      </trkpt>
      <trkpt lat="42.04738" lon="2.6347">
        <ele>255.8</ele>
        <time>2022-05-21 06:53:39</time>
      </trkpt>
      <trkpt lat="42.04733" lon="2.63478">
        <ele>255.8</ele>
        <time>2022-05-21 06:53:40</time>
      </trkpt>
      <trkpt lat="42.04727" lon="2.63488">
        <ele>255.8</ele>
        <time>2022-05-21 06:53:41</time>
      </trkpt>
      <trkpt lat="42.04723" lon="2.63498">
        <ele>255.8</ele>
        <time>2022-05-21 06:53:42</time>
      </trkpt>
      <trkpt lat="42.0472" lon="2.63509">
        <ele>255.6</ele>
        <time>2022-05-21 06:53:43</time>
      </trkpt>
      <trkpt lat="42.04717" lon="2.6352">
        <ele>255.6</ele>
        <time>2022-05-21 06:53:44</time>
      </trkpt>
      <trkpt lat="42.04715" lon="2.63532">
        <ele>255.6</ele>
        <time>2022-05-21 06:53:45</time>
      </trkpt>
      <trkpt lat="42.04713" lon="2.63543">
        <ele>255.4</ele>
        <time>2022-05-21 06:53:46</time>
      </trkpt>
      <trkpt lat="42.04711" lon="2.63555">
        <ele>255.2</ele>
        <time>2022-05-21 06:53:47</time>
      </trkpt>
      <trkpt lat="42.04707" lon="2.63566">
        <ele>255.2</ele>
        <time>2022-05-21 06:53:48</time>
      </trkpt>
      <trkpt lat="42.04703" lon="2.63577">
        <ele>255</ele>
        <time>2022-05-21 06:53:49</time>
      </trkpt>
      <trkpt lat="42.04699" lon="2.63587">
        <ele>255</ele>
        <time>2022-05-21 06:53:50</time>
      </trkpt>
      <trkpt lat="42.04694" lon="2.63598">
        <ele>255</ele>
        <time>2022-05-21 06:53:51</time>
      </trkpt>
      <trkpt lat="42.04688" lon="2.63609">
        <ele>254.8</ele>
        <time>2022-05-21 06:53:52</time>
      </trkpt>
      <trkpt lat="42.04683" lon="2.63619">
        <ele>254.8</ele>
        <time>2022-05-21 06:53:53</time>
      </trkpt>
      <trkpt lat="42.04678" lon="2.63632">
        <ele>254.6</ele>
        <time>2022-05-21 06:53:54</time>
      </trkpt>
      <trkpt lat="42.04672" lon="2.63642">
        <ele>254.6</ele>
        <time>2022-05-21 06:53:55</time>
      </trkpt>
      <trkpt lat="42.04667" lon="2.63652">
        <ele>254.6</ele>
        <time>2022-05-21 06:53:56</time>
      </trkpt>
      <trkpt lat="42.04663" lon="2.63662">
        <ele>254.6</ele>
        <time>2022-05-21 06:53:57</time>
      </trkpt>
      <trkpt lat="42.04658" lon="2.63672">
        <ele>254.6</ele>
        <time>2022-05-21 06:53:58</time>
      </trkpt>
      <trkpt lat="42.04654" lon="2.63682">
        <ele>254.6</ele>
        <time>2022-05-21 06:53:59</time>
      </trkpt>
      <trkpt lat="42.04649" lon="2.63694">
        <ele>254.6</ele>
        <time>2022-05-21 06:54:00</time>
      </trkpt>
      <trkpt lat="42.04645" lon="2.63703">
        <ele>254.4</ele>
        <time>2022-05-21 06:54:01</time>
      </trkpt>
      <trkpt lat="42.0464" lon="2.63713">
        <ele>254.4</ele>
        <time>2022-05-21 06:54:02</time>
      </trkpt>
      <trkpt lat="42.04634" lon="2.63725">
        <ele>254.4</ele>
        <time>2022-05-21 06:54:03</time>
      </trkpt>
      <trkpt lat="42.0463" lon="2.63734">
        <ele>254.4</ele>
        <time>2022-05-21 06:54:04</time>
      </trkpt>
      <trkpt lat="42.04625" lon="2.63743">
        <ele>254.4</ele>
        <time>2022-05-21 06:54:05</time>
      </trkpt>
      <trkpt lat="42.0462" lon="2.63752">
        <ele>254.4</ele>
        <time>2022-05-21 06:54:06</time>
      </trkpt>
      <trkpt lat="42.04615" lon="2.63761">
        <ele>254.4</ele>
        <time>2022-05-21 06:54:07</time>
      </trkpt>
      <trkpt lat="42.0461" lon="2.63771">
        <ele>254.4</ele>
        <time>2022-05-21 06:54:08</time>
      </trkpt>
      <trkpt lat="42.04606" lon="2.63779">
        <ele>254.2</ele>
        <time>2022-05-21 06:54:09</time>
      </trkpt>
      <trkpt lat="42.04601" lon="2.63789">
        <ele>254.2</ele>
        <time>2022-05-21 06:54:10</time>
      </trkpt>
      <trkpt lat="42.04597" lon="2.63797">
        <ele>254.2</ele>
        <time>2022-05-21 06:54:11</time>
      </trkpt>
      <trkpt lat="42.04592" lon="2.63807">
        <ele>254.2</ele>
        <time>2022-05-21 06:54:12</time>
      </trkpt>
      <trkpt lat="42.04587" lon="2.63816">
        <ele>254.2</ele>
        <time>2022-05-21 06:54:13</time>
      </trkpt>
      <trkpt lat="42.04583" lon="2.63825">
        <ele>254.2</ele>
        <time>2022-05-21 06:54:14</time>
      </trkpt>
      <trkpt lat="42.04578" lon="2.63834">
        <ele>254.2</ele>
        <time>2022-05-21 06:54:15</time>
      </trkpt>
      <trkpt lat="42.04573" lon="2.63844">
        <ele>254</ele>
        <time>2022-05-21 06:54:16</time>
      </trkpt>
      <trkpt lat="42.04568" lon="2.63853">
        <ele>253.8</ele>
        <time>2022-05-21 06:54:17</time>
      </trkpt>
      <trkpt lat="42.04564" lon="2.63862">
        <ele>253.6</ele>
        <time>2022-05-21 06:54:18</time>
      </trkpt>
      <trkpt lat="42.04559" lon="2.63871">
        <ele>253.2</ele>
        <time>2022-05-21 06:54:19</time>
      </trkpt>
      <trkpt lat="42.04554" lon="2.63882">
        <ele>253</ele>
        <time>2022-05-21 06:54:20</time>
      </trkpt>
      <trkpt lat="42.04549" lon="2.63892">
        <ele>252.8</ele>
        <time>2022-05-21 06:54:21</time>
      </trkpt>
      <trkpt lat="42.04544" lon="2.63903">
        <ele>252.4</ele>
        <time>2022-05-21 06:54:22</time>
      </trkpt>
      <trkpt lat="42.04539" lon="2.63913">
        <ele>252.2</ele>
        <time>2022-05-21 06:54:23</time>
      </trkpt>
      <trkpt lat="42.04533" lon="2.63924">
        <ele>251.8</ele>
        <time>2022-05-21 06:54:24</time>
      </trkpt>
      <trkpt lat="42.04528" lon="2.63934">
        <ele>251.4</ele>
        <time>2022-05-21 06:54:25</time>
      </trkpt>
      <trkpt lat="42.04522" lon="2.63945">
        <ele>251.2</ele>
        <time>2022-05-21 06:54:26</time>
      </trkpt>
      <trkpt lat="42.04517" lon="2.63956">
        <ele>250.8</ele>
        <time>2022-05-21 06:54:27</time>
      </trkpt>
      <trkpt lat="42.04511" lon="2.63967">
        <ele>250.6</ele>
        <time>2022-05-21 06:54:28</time>
      </trkpt>
      <trkpt lat="42.04506" lon="2.63976">
        <ele>250.2</ele>
        <time>2022-05-21 06:54:29</time>
      </trkpt>
      <trkpt lat="42.04501" lon="2.63986">
        <ele>249.8</ele>
        <time>2022-05-21 06:54:30</time>
      </trkpt>
      <trkpt lat="42.04495" lon="2.63998">
        <ele>249.4</ele>
        <time>2022-05-21 06:54:31</time>
      </trkpt>
      <trkpt lat="42.04488" lon="2.64009">
        <ele>249.2</ele>
        <time>2022-05-21 06:54:32</time>
      </trkpt>
      <trkpt lat="42.0448" lon="2.6402">
        <ele>248.8</ele>
        <time>2022-05-21 06:54:33</time>
      </trkpt>
      <trkpt lat="42.04473" lon="2.64031">
        <ele>248.4</ele>
        <time>2022-05-21 06:54:34</time>
      </trkpt>
      <trkpt lat="42.04466" lon="2.64043">
        <ele>248.2</ele>
        <time>2022-05-21 06:54:35</time>
      </trkpt>
      <trkpt lat="42.04461" lon="2.64054">
        <ele>247.8</ele>
        <time>2022-05-21 06:54:36</time>
      </trkpt>
      <trkpt lat="42.04455" lon="2.64063">
        <ele>247.6</ele>
        <time>2022-05-21 06:54:37</time>
      </trkpt>
      <trkpt lat="42.04451" lon="2.64071">
        <ele>247.2</ele>
        <time>2022-05-21 06:54:38</time>
      </trkpt>
      <trkpt lat="42.04444" lon="2.64083">
        <ele>247</ele>
        <time>2022-05-21 06:54:39</time>
      </trkpt>
      <trkpt lat="42.04438" lon="2.6409">
        <ele>246.8</ele>
        <time>2022-05-21 06:54:40</time>
      </trkpt>
      <trkpt lat="42.04431" lon="2.64098">
        <ele>246.6</ele>
        <time>2022-05-21 06:54:41</time>
      </trkpt>
      <trkpt lat="42.04423" lon="2.64105">
        <ele>246.4</ele>
        <time>2022-05-21 06:54:42</time>
      </trkpt>
      <trkpt lat="42.04414" lon="2.64112">
        <ele>246.2</ele>
        <time>2022-05-21 06:54:43</time>
      </trkpt>
      <trkpt lat="42.04406" lon="2.64117">
        <ele>246</ele>
        <time>2022-05-21 06:54:44</time>
      </trkpt>
      <trkpt lat="42.04398" lon="2.64122">
        <ele>245.8</ele>
        <time>2022-05-21 06:54:45</time>
      </trkpt>
      <trkpt lat="42.0439" lon="2.64127">
        <ele>245.4</ele>
        <time>2022-05-21 06:54:46</time>
      </trkpt>
      <trkpt lat="42.04379" lon="2.64132">
        <ele>245.2</ele>
        <time>2022-05-21 06:54:47</time>
      </trkpt>
      <trkpt lat="42.04371" lon="2.64136">
        <ele>245</ele>
        <time>2022-05-21 06:54:48</time>
      </trkpt>
      <trkpt lat="42.04362" lon="2.64141">
        <ele>244.8</ele>
        <time>2022-05-21 06:54:49</time>
      </trkpt>
      <trkpt lat="42.04353" lon="2.64146">
        <ele>244.6</ele>
        <time>2022-05-21 06:54:50</time>
      </trkpt>
      <trkpt lat="42.04345" lon="2.64151">
        <ele>244.4</ele>
        <time>2022-05-21 06:54:51</time>
      </trkpt>
      <trkpt lat="42.04335" lon="2.64156">
        <ele>244.2</ele>
        <time>2022-05-21 06:54:52</time>
      </trkpt>
      <trkpt lat="42.04326" lon="2.64161">
        <ele>244</ele>
        <time>2022-05-21 06:54:53</time>
      </trkpt>
      <trkpt lat="42.04318" lon="2.64166">
        <ele>243.8</ele>
        <time>2022-05-21 06:54:54</time>
      </trkpt>
      <trkpt lat="42.04308" lon="2.64171">
        <ele>243.6</ele>
        <time>2022-05-21 06:54:55</time>
      </trkpt>
      <trkpt lat="42.04299" lon="2.64176">
        <ele>243.4</ele>
        <time>2022-05-21 06:54:56</time>
      </trkpt>
      <trkpt lat="42.04291" lon="2.6418">
        <ele>243.2</ele>
        <time>2022-05-21 06:54:57</time>
      </trkpt>
      <trkpt lat="42.04281" lon="2.64184">
        <ele>242.8</ele>
        <time>2022-05-21 06:54:58</time>
      </trkpt>
      <trkpt lat="42.0427" lon="2.64187">
        <ele>242.4</ele>
        <time>2022-05-21 06:54:59</time>
      </trkpt>
      <trkpt lat="42.04261" lon="2.6419">
        <ele>242.2</ele>
        <time>2022-05-21 06:55:00</time>
      </trkpt>
      <trkpt lat="42.04251" lon="2.64192">
        <ele>241.8</ele>
        <time>2022-05-21 06:55:01</time>
      </trkpt>
      <trkpt lat="42.04241" lon="2.64195">
        <ele>241.4</ele>
        <time>2022-05-21 06:55:02</time>
      </trkpt>
      <trkpt lat="42.04231" lon="2.64198">
        <ele>241</ele>
        <time>2022-05-21 06:55:03</time>
      </trkpt>
      <trkpt lat="42.04221" lon="2.64201">
        <ele>240.6</ele>
        <time>2022-05-21 06:55:04</time>
      </trkpt>
      <trkpt lat="42.04209" lon="2.64205">
        <ele>240.2</ele>
        <time>2022-05-21 06:55:05</time>
      </trkpt>
      <trkpt lat="42.042" lon="2.64208">
        <ele>240</ele>
        <time>2022-05-21 06:55:06</time>
      </trkpt>
      <trkpt lat="42.04188" lon="2.64212">
        <ele>239.4</ele>
        <time>2022-05-21 06:55:07</time>
      </trkpt>
      <trkpt lat="42.04178" lon="2.64215">
        <ele>239</ele>
        <time>2022-05-21 06:55:08</time>
      </trkpt>
      <trkpt lat="42.04168" lon="2.64218">
        <ele>238.4</ele>
        <time>2022-05-21 06:55:09</time>
      </trkpt>
      <trkpt lat="42.04156" lon="2.64219">
        <ele>238</ele>
        <time>2022-05-21 06:55:10</time>
      </trkpt>
      <trkpt lat="42.04147" lon="2.64219">
        <ele>237.4</ele>
        <time>2022-05-21 06:55:11</time>
      </trkpt>
      <trkpt lat="42.04136" lon="2.64214">
        <ele>237</ele>
        <time>2022-05-21 06:55:12</time>
      </trkpt>
      <trkpt lat="42.04126" lon="2.64207">
        <ele>236.6</ele>
        <time>2022-05-21 06:55:13</time>
      </trkpt>
      <trkpt lat="42.04117" lon="2.64198">
        <ele>236</ele>
        <time>2022-05-21 06:55:14</time>
      </trkpt>
      <trkpt lat="42.04108" lon="2.64188">
        <ele>235.6</ele>
        <time>2022-05-21 06:55:15</time>
      </trkpt>
      <trkpt lat="42.041" lon="2.64181">
        <ele>235.2</ele>
        <time>2022-05-21 06:55:16</time>
      </trkpt>
      <trkpt lat="42.04091" lon="2.64172">
        <ele>234.8</ele>
        <time>2022-05-21 06:55:17</time>
      </trkpt>
      <trkpt lat="42.04079" lon="2.64164">
        <ele>234.4</ele>
        <time>2022-05-21 06:55:18</time>
      </trkpt>
      <trkpt lat="42.0407" lon="2.64159">
        <ele>234.2</ele>
        <time>2022-05-21 06:55:19</time>
      </trkpt>
      <trkpt lat="42.04062" lon="2.64155">
        <ele>234</ele>
        <time>2022-05-21 06:55:20</time>
      </trkpt>
      <trkpt lat="42.0405" lon="2.64152">
        <ele>233.8</ele>
        <time>2022-05-21 06:55:21</time>
      </trkpt>
      <trkpt lat="42.04042" lon="2.64149">
        <ele>233.8</ele>
        <time>2022-05-21 06:55:22</time>
      </trkpt>
      <trkpt lat="42.04031" lon="2.64146">
        <ele>233.8</ele>
        <time>2022-05-21 06:55:23</time>
      </trkpt>
      <trkpt lat="42.04023" lon="2.64144">
        <ele>234</ele>
        <time>2022-05-21 06:55:24</time>
      </trkpt>
      <trkpt lat="42.04016" lon="2.64143">
        <ele>234</ele>
        <time>2022-05-21 06:55:25</time>
      </trkpt>
      <trkpt lat="42.04006" lon="2.64143">
        <ele>234.2</ele>
        <time>2022-05-21 06:55:26</time>
      </trkpt>
      <trkpt lat="42.04002" lon="2.64145">
        <ele>234.4</ele>
        <time>2022-05-21 06:55:27</time>
      </trkpt>
      <trkpt lat="42.03996" lon="2.64153">
        <ele>234.6</ele>
        <time>2022-05-21 06:55:28</time>
      </trkpt>
      <trkpt lat="42.03993" lon="2.6416">
        <ele>234.8</ele>
        <time>2022-05-21 06:55:29</time>
      </trkpt>
      <trkpt lat="42.03991" lon="2.64169">
        <ele>235</ele>
        <time>2022-05-21 06:55:30</time>
      </trkpt>
      <trkpt lat="42.03989" lon="2.64177">
        <ele>235</ele>
        <time>2022-05-21 06:55:31</time>
      </trkpt>
      <trkpt lat="42.03987" lon="2.64186">
        <ele>235.2</ele>
        <time>2022-05-21 06:55:32</time>
      </trkpt>
      <trkpt lat="42.03987" lon="2.64192">
        <ele>235.2</ele>
        <time>2022-05-21 06:55:33</time>
      </trkpt>
      <trkpt lat="42.03984" lon="2.64207">
        <ele>235.4</ele>
        <time>2022-05-21 06:55:34</time>
      </trkpt>
      <trkpt lat="42.03981" lon="2.64216">
        <ele>235.4</ele>
        <time>2022-05-21 06:55:35</time>
      </trkpt>
      <trkpt lat="42.03977" lon="2.64224">
        <ele>235.4</ele>
        <time>2022-05-21 06:55:36</time>
      </trkpt>
      <trkpt lat="42.03973" lon="2.64232">
        <ele>235.2</ele>
        <time>2022-05-21 06:55:37</time>
      </trkpt>
      <trkpt lat="42.03968" lon="2.6424">
        <ele>235.2</ele>
        <time>2022-05-21 06:55:38</time>
      </trkpt>
      <trkpt lat="42.03964" lon="2.64247">
        <ele>235</ele>
        <time>2022-05-21 06:55:39</time>
      </trkpt>
      <trkpt lat="42.03958" lon="2.64256">
        <ele>235</ele>
        <time>2022-05-21 06:55:40</time>
      </trkpt>
      <trkpt lat="42.03953" lon="2.64263">
        <ele>234.8</ele>
        <time>2022-05-21 06:55:41</time>
      </trkpt>
      <trkpt lat="42.03947" lon="2.64272">
        <ele>234.6</ele>
        <time>2022-05-21 06:55:42</time>
      </trkpt>
      <trkpt lat="42.03942" lon="2.6428">
        <ele>234.4</ele>
        <time>2022-05-21 06:55:43</time>
      </trkpt>
      <trkpt lat="42.03936" lon="2.64288">
        <ele>234.4</ele>
        <time>2022-05-21 06:55:44</time>
      </trkpt>
      <trkpt lat="42.03931" lon="2.64296">
        <ele>234.2</ele>
        <time>2022-05-21 06:55:45</time>
      </trkpt>
      <trkpt lat="42.03924" lon="2.64305">
        <ele>234</ele>
        <time>2022-05-21 06:55:46</time>
      </trkpt>
      <trkpt lat="42.03918" lon="2.64313">
        <ele>234</ele>
        <time>2022-05-21 06:55:47</time>
      </trkpt>
      <trkpt lat="42.03912" lon="2.64322">
        <ele>233.8</ele>
        <time>2022-05-21 06:55:48</time>
      </trkpt>
      <trkpt lat="42.03907" lon="2.6433">
        <ele>233.8</ele>
        <time>2022-05-21 06:55:49</time>
      </trkpt>
      <trkpt lat="42.03901" lon="2.64339">
        <ele>233.6</ele>
        <time>2022-05-21 06:55:50</time>
      </trkpt>
      <trkpt lat="42.03896" lon="2.64346">
        <ele>233.6</ele>
        <time>2022-05-21 06:55:51</time>
      </trkpt>
      <trkpt lat="42.03889" lon="2.64354">
        <ele>233.6</ele>
        <time>2022-05-21 06:55:52</time>
      </trkpt>
      <trkpt lat="42.03885" lon="2.6436">
        <ele>233.4</ele>
        <time>2022-05-21 06:55:53</time>
      </trkpt>
      <trkpt lat="42.03877" lon="2.6437">
        <ele>233.2</ele>
        <time>2022-05-21 06:55:54</time>
      </trkpt>
      <trkpt lat="42.03872" lon="2.64378">
        <ele>233</ele>
        <time>2022-05-21 06:55:55</time>
      </trkpt>
      <trkpt lat="42.03866" lon="2.64386">
        <ele>233</ele>
        <time>2022-05-21 06:55:56</time>
      </trkpt>
      <trkpt lat="42.0386" lon="2.64394">
        <ele>232.8</ele>
        <time>2022-05-21 06:55:57</time>
      </trkpt>
      <trkpt lat="42.03853" lon="2.64403">
        <ele>232.6</ele>
        <time>2022-05-21 06:55:58</time>
      </trkpt>
      <trkpt lat="42.03847" lon="2.64411">
        <ele>232.6</ele>
        <time>2022-05-21 06:55:59</time>
      </trkpt>
      <trkpt lat="42.0384" lon="2.64419">
        <ele>232.4</ele>
        <time>2022-05-21 06:56:00</time>
      </trkpt>
      <trkpt lat="42.03834" lon="2.64427">
        <ele>232.4</ele>
        <time>2022-05-21 06:56:01</time>
      </trkpt>
      <trkpt lat="42.03827" lon="2.64435">
        <ele>232.4</ele>
        <time>2022-05-21 06:56:02</time>
      </trkpt>
      <trkpt lat="42.03821" lon="2.64442">
        <ele>232.2</ele>
        <time>2022-05-21 06:56:03</time>
      </trkpt>
      <trkpt lat="42.03815" lon="2.6445">
        <ele>232.2</ele>
        <time>2022-05-21 06:56:04</time>
      </trkpt>
      <trkpt lat="42.0381" lon="2.64457">
        <ele>232</ele>
        <time>2022-05-21 06:56:05</time>
      </trkpt>
      <trkpt lat="42.03804" lon="2.64467">
        <ele>232</ele>
        <time>2022-05-21 06:56:06</time>
      </trkpt>
      <trkpt lat="42.03799" lon="2.64475">
        <ele>231.8</ele>
        <time>2022-05-21 06:56:07</time>
      </trkpt>
      <trkpt lat="42.03793" lon="2.64486">
        <ele>231.6</ele>
        <time>2022-05-21 06:56:08</time>
      </trkpt>
      <trkpt lat="42.03789" lon="2.64495">
        <ele>231.4</ele>
        <time>2022-05-21 06:56:09</time>
      </trkpt>
      <trkpt lat="42.03784" lon="2.64506">
        <ele>231</ele>
        <time>2022-05-21 06:56:10</time>
      </trkpt>
      <trkpt lat="42.0378" lon="2.64516">
        <ele>230.8</ele>
        <time>2022-05-21 06:56:11</time>
      </trkpt>
      <trkpt lat="42.03776" lon="2.64526">
        <ele>230.4</ele>
        <time>2022-05-21 06:56:12</time>
      </trkpt>
      <trkpt lat="42.03771" lon="2.64537">
        <ele>230.2</ele>
        <time>2022-05-21 06:56:13</time>
      </trkpt>
      <trkpt lat="42.03767" lon="2.64549">
        <ele>229.8</ele>
        <time>2022-05-21 06:56:14</time>
      </trkpt>
      <trkpt lat="42.03762" lon="2.6456">
        <ele>229.4</ele>
        <time>2022-05-21 06:56:15</time>
      </trkpt>
      <trkpt lat="42.03758" lon="2.64572">
        <ele>228.8</ele>
        <time>2022-05-21 06:56:16</time>
      </trkpt>
      <trkpt lat="42.03754" lon="2.64584">
        <ele>228.4</ele>
        <time>2022-05-21 06:56:17</time>
      </trkpt>
      <trkpt lat="42.03749" lon="2.64595">
        <ele>228.2</ele>
        <time>2022-05-21 06:56:18</time>
      </trkpt>
      <trkpt lat="42.03744" lon="2.64608">
        <ele>227.8</ele>
        <time>2022-05-21 06:56:19</time>
      </trkpt>
      <trkpt lat="42.03739" lon="2.64619">
        <ele>227.6</ele>
        <time>2022-05-21 06:56:20</time>
      </trkpt>
      <trkpt lat="42.03735" lon="2.64631">
        <ele>227.4</ele>
        <time>2022-05-21 06:56:21</time>
      </trkpt>
      <trkpt lat="42.03729" lon="2.64643">
        <ele>227.2</ele>
        <time>2022-05-21 06:56:22</time>
      </trkpt>
      <trkpt lat="42.03725" lon="2.64656">
        <ele>227</ele>
        <time>2022-05-21 06:56:23</time>
      </trkpt>
      <trkpt lat="42.0372" lon="2.64667">
        <ele>227</ele>
        <time>2022-05-21 06:56:24</time>
      </trkpt>
      <trkpt lat="42.03716" lon="2.64678">
        <ele>226.8</ele>
        <time>2022-05-21 06:56:25</time>
      </trkpt>
      <trkpt lat="42.03711" lon="2.64689">
        <ele>226.8</ele>
        <time>2022-05-21 06:56:26</time>
      </trkpt>
      <trkpt lat="42.03706" lon="2.64699">
        <ele>226.8</ele>
        <time>2022-05-21 06:56:27</time>
      </trkpt>
      <trkpt lat="42.03701" lon="2.64709">
        <ele>226.8</ele>
        <time>2022-05-21 06:56:28</time>
      </trkpt>
      <trkpt lat="42.03696" lon="2.64718">
        <ele>226.8</ele>
        <time>2022-05-21 06:56:29</time>
      </trkpt>
      <trkpt lat="42.0369" lon="2.64727">
        <ele>226.8</ele>
        <time>2022-05-21 06:56:30</time>
      </trkpt>
      <trkpt lat="42.03684" lon="2.64735">
        <ele>226.8</ele>
        <time>2022-05-21 06:56:31</time>
      </trkpt>
      <trkpt lat="42.03679" lon="2.64742">
        <ele>227</ele>
        <time>2022-05-21 06:56:32</time>
      </trkpt>
      <trkpt lat="42.03673" lon="2.64751">
        <ele>227</ele>
        <time>2022-05-21 06:56:33</time>
      </trkpt>
      <trkpt lat="42.03667" lon="2.64759">
        <ele>227</ele>
        <time>2022-05-21 06:56:34</time>
      </trkpt>
      <trkpt lat="42.03662" lon="2.64766">
        <ele>227.2</ele>
        <time>2022-05-21 06:56:35</time>
      </trkpt>
      <trkpt lat="42.03657" lon="2.64774">
        <ele>227.2</ele>
        <time>2022-05-21 06:56:36</time>
      </trkpt>
      <trkpt lat="42.03651" lon="2.64781">
        <ele>227.4</ele>
        <time>2022-05-21 06:56:37</time>
      </trkpt>
      <trkpt lat="42.03644" lon="2.64787">
        <ele>227.4</ele>
        <time>2022-05-21 06:56:38</time>
      </trkpt>
      <trkpt lat="42.03637" lon="2.64793">
        <ele>227.6</ele>
        <time>2022-05-21 06:56:39</time>
      </trkpt>
      <trkpt lat="42.03629" lon="2.648">
        <ele>227.6</ele>
        <time>2022-05-21 06:56:40</time>
      </trkpt>
      <trkpt lat="42.0362" lon="2.64805">
        <ele>227.8</ele>
        <time>2022-05-21 06:56:41</time>
      </trkpt>
      <trkpt lat="42.03612" lon="2.64809">
        <ele>227.8</ele>
        <time>2022-05-21 06:56:42</time>
      </trkpt>
      <trkpt lat="42.03604" lon="2.64812">
        <ele>227.8</ele>
        <time>2022-05-21 06:56:43</time>
      </trkpt>
      <trkpt lat="42.03596" lon="2.64815">
        <ele>228</ele>
        <time>2022-05-21 06:56:44</time>
      </trkpt>
      <trkpt lat="42.03589" lon="2.64818">
        <ele>228</ele>
        <time>2022-05-21 06:56:45</time>
      </trkpt>
      <trkpt lat="42.03581" lon="2.64821">
        <ele>228</ele>
        <time>2022-05-21 06:56:46</time>
      </trkpt>
      <trkpt lat="42.03574" lon="2.64823">
        <ele>228</ele>
        <time>2022-05-21 06:56:47</time>
      </trkpt>
      <trkpt lat="42.03566" lon="2.64825">
        <ele>228.2</ele>
        <time>2022-05-21 06:56:48</time>
      </trkpt>
      <trkpt lat="42.03559" lon="2.64828">
        <ele>228.2</ele>
        <time>2022-05-21 06:56:49</time>
      </trkpt>
      <trkpt lat="42.03551" lon="2.6483">
        <ele>228.2</ele>
        <time>2022-05-21 06:56:50</time>
      </trkpt>
      <trkpt lat="42.03544" lon="2.64832">
        <ele>228.2</ele>
        <time>2022-05-21 06:56:51</time>
      </trkpt>
      <trkpt lat="42.03537" lon="2.64835">
        <ele>228.2</ele>
        <time>2022-05-21 06:56:52</time>
      </trkpt>
      <trkpt lat="42.0353" lon="2.64837">
        <ele>228.2</ele>
        <time>2022-05-21 06:56:53</time>
      </trkpt>
      <trkpt lat="42.03523" lon="2.64839">
        <ele>228.2</ele>
        <time>2022-05-21 06:56:54</time>
      </trkpt>
      <trkpt lat="42.03516" lon="2.64841">
        <ele>228.2</ele>
        <time>2022-05-21 06:56:55</time>
      </trkpt>
      <trkpt lat="42.03509" lon="2.64843">
        <ele>228.4</ele>
        <time>2022-05-21 06:56:56</time>
      </trkpt>
      <trkpt lat="42.03502" lon="2.64846">
        <ele>228.4</ele>
        <time>2022-05-21 06:56:57</time>
      </trkpt>
      <trkpt lat="42.03495" lon="2.6485">
        <ele>228.4</ele>
        <time>2022-05-21 06:56:58</time>
      </trkpt>
      <trkpt lat="42.03489" lon="2.64855">
        <ele>228.6</ele>
        <time>2022-05-21 06:56:59</time>
      </trkpt>
      <trkpt lat="42.03484" lon="2.6486">
        <ele>228.6</ele>
        <time>2022-05-21 06:57:00</time>
      </trkpt>
      <trkpt lat="42.03479" lon="2.64865">
        <ele>228.6</ele>
        <time>2022-05-21 06:57:01</time>
      </trkpt>
      <trkpt lat="42.03472" lon="2.64873">
        <ele>228.6</ele>
        <time>2022-05-21 06:57:02</time>
      </trkpt>
      <trkpt lat="42.03467" lon="2.6488">
        <ele>228.6</ele>
        <time>2022-05-21 06:57:03</time>
      </trkpt>
      <trkpt lat="42.03462" lon="2.64887">
        <ele>228.6</ele>
        <time>2022-05-21 06:57:04</time>
      </trkpt>
      <trkpt lat="42.03458" lon="2.64895">
        <ele>228.4</ele>
        <time>2022-05-21 06:57:05</time>
      </trkpt>
      <trkpt lat="42.03453" lon="2.64903">
        <ele>228.4</ele>
        <time>2022-05-21 06:57:06</time>
      </trkpt>
      <trkpt lat="42.03449" lon="2.64911">
        <ele>228.2</ele>
        <time>2022-05-21 06:57:07</time>
      </trkpt>
      <trkpt lat="42.03445" lon="2.6492">
        <ele>228.2</ele>
        <time>2022-05-21 06:57:08</time>
      </trkpt>
      <trkpt lat="42.0344" lon="2.64928">
        <ele>228</ele>
        <time>2022-05-21 06:57:09</time>
      </trkpt>
      <trkpt lat="42.03435" lon="2.64937">
        <ele>227.8</ele>
        <time>2022-05-21 06:57:10</time>
      </trkpt>
      <trkpt lat="42.03431" lon="2.64946">
        <ele>227.6</ele>
        <time>2022-05-21 06:57:11</time>
      </trkpt>
      <trkpt lat="42.03426" lon="2.64955">
        <ele>227.4</ele>
        <time>2022-05-21 06:57:12</time>
      </trkpt>
      <trkpt lat="42.03422" lon="2.64964">
        <ele>227.2</ele>
        <time>2022-05-21 06:57:13</time>
      </trkpt>
      <trkpt lat="42.03417" lon="2.64973">
        <ele>227</ele>
        <time>2022-05-21 06:57:14</time>
      </trkpt>
      <trkpt lat="42.03412" lon="2.64982">
        <ele>227</ele>
        <time>2022-05-21 06:57:15</time>
      </trkpt>
      <trkpt lat="42.03407" lon="2.64991">
        <ele>226.6</ele>
        <time>2022-05-21 06:57:16</time>
      </trkpt>
      <trkpt lat="42.03402" lon="2.65">
        <ele>226.4</ele>
        <time>2022-05-21 06:57:17</time>
      </trkpt>
      <trkpt lat="42.03397" lon="2.6501">
        <ele>226.2</ele>
        <time>2022-05-21 06:57:18</time>
      </trkpt>
      <trkpt lat="42.03392" lon="2.65019">
        <ele>226</ele>
        <time>2022-05-21 06:57:19</time>
      </trkpt>
      <trkpt lat="42.03387" lon="2.65029">
        <ele>225.8</ele>
        <time>2022-05-21 06:57:20</time>
      </trkpt>
      <trkpt lat="42.03382" lon="2.65038">
        <ele>225.8</ele>
        <time>2022-05-21 06:57:21</time>
      </trkpt>
      <trkpt lat="42.03377" lon="2.65047">
        <ele>225.6</ele>
        <time>2022-05-21 06:57:22</time>
      </trkpt>
      <trkpt lat="42.03373" lon="2.65057">
        <ele>225.6</ele>
        <time>2022-05-21 06:57:23</time>
      </trkpt>
      <trkpt lat="42.03368" lon="2.65066">
        <ele>225.4</ele>
        <time>2022-05-21 06:57:24</time>
      </trkpt>
      <trkpt lat="42.03363" lon="2.65075">
        <ele>225.2</ele>
        <time>2022-05-21 06:57:25</time>
      </trkpt>
      <trkpt lat="42.03359" lon="2.65084">
        <ele>225.2</ele>
        <time>2022-05-21 06:57:26</time>
      </trkpt>
      <trkpt lat="42.03354" lon="2.65093">
        <ele>225</ele>
        <time>2022-05-21 06:57:27</time>
      </trkpt>
      <trkpt lat="42.03349" lon="2.65102">
        <ele>225</ele>
        <time>2022-05-21 06:57:28</time>
      </trkpt>
      <trkpt lat="42.03344" lon="2.65111">
        <ele>225</ele>
        <time>2022-05-21 06:57:29</time>
      </trkpt>
      <trkpt lat="42.03339" lon="2.6512">
        <ele>225</ele>
        <time>2022-05-21 06:57:30</time>
      </trkpt>
      <trkpt lat="42.03334" lon="2.65129">
        <ele>225</ele>
        <time>2022-05-21 06:57:31</time>
      </trkpt>
      <trkpt lat="42.0333" lon="2.65137">
        <ele>225.2</ele>
        <time>2022-05-21 06:57:32</time>
      </trkpt>
      <trkpt lat="42.03326" lon="2.65146">
        <ele>225.2</ele>
        <time>2022-05-21 06:57:33</time>
      </trkpt>
      <trkpt lat="42.03321" lon="2.65155">
        <ele>225.2</ele>
        <time>2022-05-21 06:57:34</time>
      </trkpt>
      <trkpt lat="42.03316" lon="2.65163">
        <ele>225.4</ele>
        <time>2022-05-21 06:57:35</time>
      </trkpt>
      <trkpt lat="42.03312" lon="2.65172">
        <ele>225.4</ele>
        <time>2022-05-21 06:57:36</time>
      </trkpt>
      <trkpt lat="42.03307" lon="2.65181">
        <ele>225.4</ele>
        <time>2022-05-21 06:57:37</time>
      </trkpt>
      <trkpt lat="42.03302" lon="2.65189">
        <ele>225.4</ele>
        <time>2022-05-21 06:57:38</time>
      </trkpt>
      <trkpt lat="42.03298" lon="2.65198">
        <ele>225.4</ele>
        <time>2022-05-21 06:57:39</time>
      </trkpt>
      <trkpt lat="42.03294" lon="2.65206">
        <ele>225.4</ele>
        <time>2022-05-21 06:57:40</time>
      </trkpt>
      <trkpt lat="42.03289" lon="2.65215">
        <ele>225.6</ele>
        <time>2022-05-21 06:57:41</time>
      </trkpt>
      <trkpt lat="42.03284" lon="2.65223">
        <ele>225.6</ele>
        <time>2022-05-21 06:57:42</time>
      </trkpt>
      <trkpt lat="42.0328" lon="2.65232">
        <ele>225.6</ele>
        <time>2022-05-21 06:57:43</time>
      </trkpt>
      <trkpt lat="42.03275" lon="2.6524">
        <ele>225.6</ele>
        <time>2022-05-21 06:57:44</time>
      </trkpt>
      <trkpt lat="42.03271" lon="2.65248">
        <ele>225.8</ele>
        <time>2022-05-21 06:57:45</time>
      </trkpt>
      <trkpt lat="42.03267" lon="2.65257">
        <ele>225.8</ele>
        <time>2022-05-21 06:57:46</time>
      </trkpt>
      <trkpt lat="42.03262" lon="2.65265">
        <ele>225.8</ele>
        <time>2022-05-21 06:57:47</time>
      </trkpt>
      <trkpt lat="42.03258" lon="2.65274">
        <ele>225.8</ele>
        <time>2022-05-21 06:57:48</time>
      </trkpt>
      <trkpt lat="42.03254" lon="2.65282">
        <ele>225.6</ele>
        <time>2022-05-21 06:57:49</time>
      </trkpt>
      <trkpt lat="42.03249" lon="2.65291">
        <ele>225.8</ele>
        <time>2022-05-21 06:57:50</time>
      </trkpt>
      <trkpt lat="42.03245" lon="2.65299">
        <ele>225.8</ele>
        <time>2022-05-21 06:57:51</time>
      </trkpt>
      <trkpt lat="42.03241" lon="2.65307">
        <ele>226</ele>
        <time>2022-05-21 06:57:52</time>
      </trkpt>
      <trkpt lat="42.03236" lon="2.65315">
        <ele>226</ele>
        <time>2022-05-21 06:57:53</time>
      </trkpt>
      <trkpt lat="42.03232" lon="2.65323">
        <ele>226</ele>
        <time>2022-05-21 06:57:54</time>
      </trkpt>
      <trkpt lat="42.03228" lon="2.65331">
        <ele>226.2</ele>
        <time>2022-05-21 06:57:55</time>
      </trkpt>
      <trkpt lat="42.03223" lon="2.65339">
        <ele>226.2</ele>
        <time>2022-05-21 06:57:56</time>
      </trkpt>
      <trkpt lat="42.03219" lon="2.65347">
        <ele>226.2</ele>
        <time>2022-05-21 06:57:57</time>
      </trkpt>
      <trkpt lat="42.03215" lon="2.65354">
        <ele>226.4</ele>
        <time>2022-05-21 06:57:58</time>
      </trkpt>
      <trkpt lat="42.0321" lon="2.65362">
        <ele>226.4</ele>
        <time>2022-05-21 06:57:59</time>
      </trkpt>
      <trkpt lat="42.03206" lon="2.6537">
        <ele>226.4</ele>
        <time>2022-05-21 06:58:00</time>
      </trkpt>
      <trkpt lat="42.03202" lon="2.65378">
        <ele>226.4</ele>
        <time>2022-05-21 06:58:01</time>
      </trkpt>
      <trkpt lat="42.03198" lon="2.65386">
        <ele>226.4</ele>
        <time>2022-05-21 06:58:02</time>
      </trkpt>
      <trkpt lat="42.03194" lon="2.65394">
        <ele>226.4</ele>
        <time>2022-05-21 06:58:03</time>
      </trkpt>
      <trkpt lat="42.03189" lon="2.65402">
        <ele>226.6</ele>
        <time>2022-05-21 06:58:04</time>
      </trkpt>
      <trkpt lat="42.03185" lon="2.6541">
        <ele>226.6</ele>
        <time>2022-05-21 06:58:05</time>
      </trkpt>
      <trkpt lat="42.03181" lon="2.65417">
        <ele>226.6</ele>
        <time>2022-05-21 06:58:06</time>
      </trkpt>
      <trkpt lat="42.03177" lon="2.65425">
        <ele>226.6</ele>
        <time>2022-05-21 06:58:07</time>
      </trkpt>
      <trkpt lat="42.03173" lon="2.65433">
        <ele>226.6</ele>
        <time>2022-05-21 06:58:08</time>
      </trkpt>
      <trkpt lat="42.03168" lon="2.65441">
        <ele>226.6</ele>
        <time>2022-05-21 06:58:09</time>
      </trkpt>
      <trkpt lat="42.03164" lon="2.65449">
        <ele>226.4</ele>
        <time>2022-05-21 06:58:10</time>
      </trkpt>
      <trkpt lat="42.0316" lon="2.65458">
        <ele>226.2</ele>
        <time>2022-05-21 06:58:11</time>
      </trkpt>
      <trkpt lat="42.03155" lon="2.65467">
        <ele>226.2</ele>
        <time>2022-05-21 06:58:12</time>
      </trkpt>
      <trkpt lat="42.03151" lon="2.65475">
        <ele>226</ele>
        <time>2022-05-21 06:58:13</time>
      </trkpt>
      <trkpt lat="42.03146" lon="2.65484">
        <ele>225.8</ele>
        <time>2022-05-21 06:58:14</time>
      </trkpt>
      <trkpt lat="42.03141" lon="2.65493">
        <ele>225.6</ele>
        <time>2022-05-21 06:58:15</time>
      </trkpt>
      <trkpt lat="42.03136" lon="2.65502">
        <ele>225.4</ele>
        <time>2022-05-21 06:58:16</time>
      </trkpt>
      <trkpt lat="42.03131" lon="2.65511">
        <ele>225.2</ele>
        <time>2022-05-21 06:58:17</time>
      </trkpt>
      <trkpt lat="42.03127" lon="2.6552">
        <ele>225</ele>
        <time>2022-05-21 06:58:18</time>
      </trkpt>
      <trkpt lat="42.03122" lon="2.6553">
        <ele>224.8</ele>
        <time>2022-05-21 06:58:19</time>
      </trkpt>
      <trkpt lat="42.03117" lon="2.65539">
        <ele>224.6</ele>
        <time>2022-05-21 06:58:20</time>
      </trkpt>
      <trkpt lat="42.03112" lon="2.65548">
        <ele>224.4</ele>
        <time>2022-05-21 06:58:21</time>
      </trkpt>
      <trkpt lat="42.03107" lon="2.65558">
        <ele>224.2</ele>
        <time>2022-05-21 06:58:22</time>
      </trkpt>
      <trkpt lat="42.03102" lon="2.65567">
        <ele>224</ele>
        <time>2022-05-21 06:58:23</time>
      </trkpt>
      <trkpt lat="42.03096" lon="2.65576">
        <ele>223.8</ele>
        <time>2022-05-21 06:58:24</time>
      </trkpt>
      <trkpt lat="42.03091" lon="2.65586">
        <ele>223.6</ele>
        <time>2022-05-21 06:58:25</time>
      </trkpt>
      <trkpt lat="42.03086" lon="2.65596">
        <ele>223.2</ele>
        <time>2022-05-21 06:58:26</time>
      </trkpt>
      <trkpt lat="42.03081" lon="2.65606">
        <ele>223</ele>
        <time>2022-05-21 06:58:27</time>
      </trkpt>
      <trkpt lat="42.03076" lon="2.65615">
        <ele>222.8</ele>
        <time>2022-05-21 06:58:28</time>
      </trkpt>
      <trkpt lat="42.03071" lon="2.65625">
        <ele>222.6</ele>
        <time>2022-05-21 06:58:29</time>
      </trkpt>
      <trkpt lat="42.03065" lon="2.65635">
        <ele>222.4</ele>
        <time>2022-05-21 06:58:30</time>
      </trkpt>
      <trkpt lat="42.03061" lon="2.65645">
        <ele>222</ele>
        <time>2022-05-21 06:58:31</time>
      </trkpt>
      <trkpt lat="42.03055" lon="2.65655">
        <ele>221.8</ele>
        <time>2022-05-21 06:58:32</time>
      </trkpt>
      <trkpt lat="42.03051" lon="2.65665">
        <ele>221.6</ele>
        <time>2022-05-21 06:58:33</time>
      </trkpt>
      <trkpt lat="42.03046" lon="2.65674">
        <ele>221.4</ele>
        <time>2022-05-21 06:58:34</time>
      </trkpt>
      <trkpt lat="42.0304" lon="2.65684">
        <ele>221.2</ele>
        <time>2022-05-21 06:58:35</time>
      </trkpt>
      <trkpt lat="42.03035" lon="2.65694">
        <ele>221</ele>
        <time>2022-05-21 06:58:36</time>
      </trkpt>
      <trkpt lat="42.0303" lon="2.65703">
        <ele>220.6</ele>
        <time>2022-05-21 06:58:37</time>
      </trkpt>
      <trkpt lat="42.03025" lon="2.65713">
        <ele>220.4</ele>
        <time>2022-05-21 06:58:38</time>
      </trkpt>
      <trkpt lat="42.0302" lon="2.65722">
        <ele>220.2</ele>
        <time>2022-05-21 06:58:39</time>
      </trkpt>
      <trkpt lat="42.03014" lon="2.65732">
        <ele>220</ele>
        <time>2022-05-21 06:58:40</time>
      </trkpt>
      <trkpt lat="42.03009" lon="2.65741">
        <ele>219.8</ele>
        <time>2022-05-21 06:58:41</time>
      </trkpt>
      <trkpt lat="42.03004" lon="2.65751">
        <ele>219.6</ele>
        <time>2022-05-21 06:58:42</time>
      </trkpt>
      <trkpt lat="42.02999" lon="2.6576">
        <ele>219.4</ele>
        <time>2022-05-21 06:58:43</time>
      </trkpt>
      <trkpt lat="42.02994" lon="2.6577">
        <ele>219.2</ele>
        <time>2022-05-21 06:58:44</time>
      </trkpt>
      <trkpt lat="42.02989" lon="2.6578">
        <ele>219</ele>
        <time>2022-05-21 06:58:45</time>
      </trkpt>
      <trkpt lat="42.02984" lon="2.65789">
        <ele>218.8</ele>
        <time>2022-05-21 06:58:46</time>
      </trkpt>
      <trkpt lat="42.02979" lon="2.65799">
        <ele>218.6</ele>
        <time>2022-05-21 06:58:47</time>
      </trkpt>
      <trkpt lat="42.02974" lon="2.65808">
        <ele>218.4</ele>
        <time>2022-05-21 06:58:48</time>
      </trkpt>
      <trkpt lat="42.02968" lon="2.65818">
        <ele>218.4</ele>
        <time>2022-05-21 06:58:49</time>
      </trkpt>
      <trkpt lat="42.02963" lon="2.65827">
        <ele>218.2</ele>
        <time>2022-05-21 06:58:50</time>
      </trkpt>
      <trkpt lat="42.02958" lon="2.65837">
        <ele>218</ele>
        <time>2022-05-21 06:58:51</time>
      </trkpt>
      <trkpt lat="42.02953" lon="2.65847">
        <ele>217.8</ele>
        <time>2022-05-21 06:58:52</time>
      </trkpt>
      <trkpt lat="42.02948" lon="2.65856">
        <ele>217.6</ele>
        <time>2022-05-21 06:58:53</time>
      </trkpt>
      <trkpt lat="42.02943" lon="2.65866">
        <ele>217.6</ele>
        <time>2022-05-21 06:58:54</time>
      </trkpt>
      <trkpt lat="42.02938" lon="2.65875">
        <ele>217.4</ele>
        <time>2022-05-21 06:58:55</time>
      </trkpt>
      <trkpt lat="42.02932" lon="2.65885">
        <ele>217.2</ele>
        <time>2022-05-21 06:58:56</time>
      </trkpt>
      <trkpt lat="42.02927" lon="2.65894">
        <ele>217</ele>
        <time>2022-05-21 06:58:57</time>
      </trkpt>
      <trkpt lat="42.02922" lon="2.65904">
        <ele>217</ele>
        <time>2022-05-21 06:58:58</time>
      </trkpt>
      <trkpt lat="42.02918" lon="2.65914">
        <ele>216.8</ele>
        <time>2022-05-21 06:58:59</time>
      </trkpt>
      <trkpt lat="42.02913" lon="2.65923">
        <ele>216.6</ele>
        <time>2022-05-21 06:59:00</time>
      </trkpt>
      <trkpt lat="42.02908" lon="2.65933">
        <ele>216.4</ele>
        <time>2022-05-21 06:59:01</time>
      </trkpt>
      <trkpt lat="42.02902" lon="2.65943">
        <ele>216.4</ele>
        <time>2022-05-21 06:59:02</time>
      </trkpt>
      <trkpt lat="42.02898" lon="2.65953">
        <ele>216.2</ele>
        <time>2022-05-21 06:59:03</time>
      </trkpt>
      <trkpt lat="42.02893" lon="2.65962">
        <ele>216.2</ele>
        <time>2022-05-21 06:59:04</time>
      </trkpt>
      <trkpt lat="42.02888" lon="2.65972">
        <ele>216</ele>
        <time>2022-05-21 06:59:05</time>
      </trkpt>
      <trkpt lat="42.02884" lon="2.65981">
        <ele>216</ele>
        <time>2022-05-21 06:59:06</time>
      </trkpt>
      <trkpt lat="42.02879" lon="2.6599">
        <ele>216</ele>
        <time>2022-05-21 06:59:07</time>
      </trkpt>
      <trkpt lat="42.02874" lon="2.65998">
        <ele>215.8</ele>
        <time>2022-05-21 06:59:08</time>
      </trkpt>
      <trkpt lat="42.02869" lon="2.66007">
        <ele>215.8</ele>
        <time>2022-05-21 06:59:09</time>
      </trkpt>
      <trkpt lat="42.02864" lon="2.66016">
        <ele>215.8</ele>
        <time>2022-05-21 06:59:10</time>
      </trkpt>
      <trkpt lat="42.02859" lon="2.66024">
        <ele>215.6</ele>
        <time>2022-05-21 06:59:11</time>
      </trkpt>
      <trkpt lat="42.02854" lon="2.66033">
        <ele>215.6</ele>
        <time>2022-05-21 06:59:12</time>
      </trkpt>
      <trkpt lat="42.0285" lon="2.66041">
        <ele>215.6</ele>
        <time>2022-05-21 06:59:13</time>
      </trkpt>
      <trkpt lat="42.02845" lon="2.6605">
        <ele>215.6</ele>
        <time>2022-05-21 06:59:14</time>
      </trkpt>
      <trkpt lat="42.0284" lon="2.66058">
        <ele>215.6</ele>
        <time>2022-05-21 06:59:15</time>
      </trkpt>
      <trkpt lat="42.02836" lon="2.66067">
        <ele>215.4</ele>
        <time>2022-05-21 06:59:16</time>
      </trkpt>
      <trkpt lat="42.02832" lon="2.66075">
        <ele>215.4</ele>
        <time>2022-05-21 06:59:17</time>
      </trkpt>
      <trkpt lat="42.02828" lon="2.66083">
        <ele>215.4</ele>
        <time>2022-05-21 06:59:18</time>
      </trkpt>
      <trkpt lat="42.02824" lon="2.66091">
        <ele>215.4</ele>
        <time>2022-05-21 06:59:19</time>
      </trkpt>
      <trkpt lat="42.02819" lon="2.66099">
        <ele>215.4</ele>
        <time>2022-05-21 06:59:20</time>
      </trkpt>
      <trkpt lat="42.02815" lon="2.66108">
        <ele>215.2</ele>
        <time>2022-05-21 06:59:21</time>
      </trkpt>
      <trkpt lat="42.02811" lon="2.66116">
        <ele>215.2</ele>
        <time>2022-05-21 06:59:22</time>
      </trkpt>
      <trkpt lat="42.02807" lon="2.66124">
        <ele>215.2</ele>
        <time>2022-05-21 06:59:23</time>
      </trkpt>
      <trkpt lat="42.02803" lon="2.66133">
        <ele>215.2</ele>
        <time>2022-05-21 06:59:24</time>
      </trkpt>
      <trkpt lat="42.02798" lon="2.66141">
        <ele>215.2</ele>
        <time>2022-05-21 06:59:25</time>
      </trkpt>
      <trkpt lat="42.02794" lon="2.66149">
        <ele>215.2</ele>
        <time>2022-05-21 06:59:26</time>
      </trkpt>
      <trkpt lat="42.0279" lon="2.66157">
        <ele>215.2</ele>
        <time>2022-05-21 06:59:27</time>
      </trkpt>
      <trkpt lat="42.02785" lon="2.66165">
        <ele>215</ele>
        <time>2022-05-21 06:59:28</time>
      </trkpt>
      <trkpt lat="42.02781" lon="2.66172">
        <ele>215</ele>
        <time>2022-05-21 06:59:29</time>
      </trkpt>
      <trkpt lat="42.02777" lon="2.6618">
        <ele>215</ele>
        <time>2022-05-21 06:59:30</time>
      </trkpt>
      <trkpt lat="42.02772" lon="2.66188">
        <ele>215</ele>
        <time>2022-05-21 06:59:31</time>
      </trkpt>
      <trkpt lat="42.02768" lon="2.66196">
        <ele>214.8</ele>
        <time>2022-05-21 06:59:32</time>
      </trkpt>
      <trkpt lat="42.02764" lon="2.66204">
        <ele>214.8</ele>
        <time>2022-05-21 06:59:33</time>
      </trkpt>
      <trkpt lat="42.0276" lon="2.66212">
        <ele>214.8</ele>
        <time>2022-05-21 06:59:34</time>
      </trkpt>
      <trkpt lat="42.02756" lon="2.6622">
        <ele>214.8</ele>
        <time>2022-05-21 06:59:35</time>
      </trkpt>
      <trkpt lat="42.02752" lon="2.66229">
        <ele>214.8</ele>
        <time>2022-05-21 06:59:36</time>
      </trkpt>
      <trkpt lat="42.02747" lon="2.66236">
        <ele>214.6</ele>
        <time>2022-05-21 06:59:37</time>
      </trkpt>
      <trkpt lat="42.02743" lon="2.66244">
        <ele>214.6</ele>
        <time>2022-05-21 06:59:38</time>
      </trkpt>
      <trkpt lat="42.02739" lon="2.66252">
        <ele>214.6</ele>
        <time>2022-05-21 06:59:39</time>
      </trkpt>
      <trkpt lat="42.02735" lon="2.6626">
        <ele>214.6</ele>
        <time>2022-05-21 06:59:40</time>
      </trkpt>
      <trkpt lat="42.02731" lon="2.66267">
        <ele>214.6</ele>
        <time>2022-05-21 06:59:41</time>
      </trkpt>
      <trkpt lat="42.02726" lon="2.66275">
        <ele>214.6</ele>
        <time>2022-05-21 06:59:42</time>
      </trkpt>
      <trkpt lat="42.02722" lon="2.66283">
        <ele>214.6</ele>
        <time>2022-05-21 06:59:43</time>
      </trkpt>
      <trkpt lat="42.02718" lon="2.66291">
        <ele>214.6</ele>
        <time>2022-05-21 06:59:44</time>
      </trkpt>
      <trkpt lat="42.02714" lon="2.66298">
        <ele>214.6</ele>
        <time>2022-05-21 06:59:45</time>
      </trkpt>
      <trkpt lat="42.0271" lon="2.66306">
        <ele>214.6</ele>
        <time>2022-05-21 06:59:46</time>
      </trkpt>
      <trkpt lat="42.02706" lon="2.66314">
        <ele>214.6</ele>
        <time>2022-05-21 06:59:47</time>
      </trkpt>
      <trkpt lat="42.02702" lon="2.66322">
        <ele>214.4</ele>
        <time>2022-05-21 06:59:48</time>
      </trkpt>
      <trkpt lat="42.02697" lon="2.66329">
        <ele>214.4</ele>
        <time>2022-05-21 06:59:49</time>
      </trkpt>
      <trkpt lat="42.02694" lon="2.66337">
        <ele>214.4</ele>
        <time>2022-05-21 06:59:50</time>
      </trkpt>
      <trkpt lat="42.02689" lon="2.66344">
        <ele>214.4</ele>
        <time>2022-05-21 06:59:51</time>
      </trkpt>
      <trkpt lat="42.02685" lon="2.66352">
        <ele>214.4</ele>
        <time>2022-05-21 06:59:52</time>
      </trkpt>
      <trkpt lat="42.02681" lon="2.6636">
        <ele>214.2</ele>
        <time>2022-05-21 06:59:53</time>
      </trkpt>
      <trkpt lat="42.02677" lon="2.66368">
        <ele>214.2</ele>
        <time>2022-05-21 06:59:54</time>
      </trkpt>
      <trkpt lat="42.02673" lon="2.66376">
        <ele>214.2</ele>
        <time>2022-05-21 06:59:55</time>
      </trkpt>
      <trkpt lat="42.02669" lon="2.66383">
        <ele>214.2</ele>
        <time>2022-05-21 06:59:56</time>
      </trkpt>
      <trkpt lat="42.02665" lon="2.66391">
        <ele>214.2</ele>
        <time>2022-05-21 06:59:57</time>
      </trkpt>
      <trkpt lat="42.0266" lon="2.66399">
        <ele>214</ele>
        <time>2022-05-21 06:59:58</time>
      </trkpt>
      <trkpt lat="42.02657" lon="2.66407">
        <ele>214</ele>
        <time>2022-05-21 06:59:59</time>
      </trkpt>
      <trkpt lat="42.02652" lon="2.66415">
        <ele>214</ele>
        <time>2022-05-21 07:00:00</time>
      </trkpt>
      <trkpt lat="42.02648" lon="2.66423">
        <ele>213.8</ele>
        <time>2022-05-21 07:00:01</time>
      </trkpt>
      <trkpt lat="42.02644" lon="2.66431">
        <ele>213.8</ele>
        <time>2022-05-21 07:00:02</time>
      </trkpt>
      <trkpt lat="42.0264" lon="2.66439">
        <ele>213.8</ele>
        <time>2022-05-21 07:00:03</time>
      </trkpt>
      <trkpt lat="42.02636" lon="2.66447">
        <ele>213.8</ele>
        <time>2022-05-21 07:00:04</time>
      </trkpt>
      <trkpt lat="42.02631" lon="2.66455">
        <ele>213.8</ele>
        <time>2022-05-21 07:00:05</time>
      </trkpt>
      <trkpt lat="42.02628" lon="2.66463">
        <ele>213.8</ele>
        <time>2022-05-21 07:00:06</time>
      </trkpt>
      <trkpt lat="42.02623" lon="2.66471">
        <ele>213.8</ele>
        <time>2022-05-21 07:00:07</time>
      </trkpt>
      <trkpt lat="42.02619" lon="2.66479">
        <ele>213.8</ele>
        <time>2022-05-21 07:00:08</time>
      </trkpt>
      <trkpt lat="42.02615" lon="2.66487">
        <ele>213.8</ele>
        <time>2022-05-21 07:00:09</time>
      </trkpt>
      <trkpt lat="42.02611" lon="2.66494">
        <ele>213.8</ele>
        <time>2022-05-21 07:00:10</time>
      </trkpt>
      <trkpt lat="42.02606" lon="2.66502">
        <ele>213.8</ele>
        <time>2022-05-21 07:00:11</time>
      </trkpt>
      <trkpt lat="42.02602" lon="2.66509">
        <ele>213.8</ele>
        <time>2022-05-21 07:00:12</time>
      </trkpt>
      <trkpt lat="42.02598" lon="2.66517">
        <ele>213.8</ele>
        <time>2022-05-21 07:00:13</time>
      </trkpt>
      <trkpt lat="42.02594" lon="2.66525">
        <ele>213.8</ele>
        <time>2022-05-21 07:00:14</time>
      </trkpt>
      <trkpt lat="42.0259" lon="2.66533">
        <ele>213.8</ele>
        <time>2022-05-21 07:00:15</time>
      </trkpt>
      <trkpt lat="42.02586" lon="2.66541">
        <ele>213.8</ele>
        <time>2022-05-21 07:00:16</time>
      </trkpt>
      <trkpt lat="42.02582" lon="2.66549">
        <ele>213.8</ele>
        <time>2022-05-21 07:00:17</time>
      </trkpt>
      <trkpt lat="42.02578" lon="2.66557">
        <ele>213.8</ele>
        <time>2022-05-21 07:00:18</time>
      </trkpt>
      <trkpt lat="42.02574" lon="2.66564">
        <ele>213.8</ele>
        <time>2022-05-21 07:00:19</time>
      </trkpt>
      <trkpt lat="42.0257" lon="2.66572">
        <ele>214</ele>
        <time>2022-05-21 07:00:20</time>
      </trkpt>
      <trkpt lat="42.02568" lon="2.6658">
        <ele>214</ele>
        <time>2022-05-21 07:00:21</time>
      </trkpt>
      <trkpt lat="42.02566" lon="2.66589">
        <ele>214</ele>
        <time>2022-05-21 07:00:22</time>
      </trkpt>
      <trkpt lat="42.02565" lon="2.66598">
        <ele>214</ele>
        <time>2022-05-21 07:00:23</time>
      </trkpt>
      <trkpt lat="42.02565" lon="2.66606">
        <ele>214.2</ele>
        <time>2022-05-21 07:00:24</time>
      </trkpt>
      <trkpt lat="42.02566" lon="2.66615">
        <ele>214.2</ele>
        <time>2022-05-21 07:00:25</time>
      </trkpt>
      <trkpt lat="42.02568" lon="2.66623">
        <ele>214.2</ele>
        <time>2022-05-21 07:00:26</time>
      </trkpt>
      <trkpt lat="42.02571" lon="2.66631">
        <ele>214.2</ele>
        <time>2022-05-21 07:00:27</time>
      </trkpt>
      <trkpt lat="42.02575" lon="2.66638">
        <ele>214.4</ele>
        <time>2022-05-21 07:00:28</time>
      </trkpt>
      <trkpt lat="42.02579" lon="2.66644">
        <ele>214.4</ele>
        <time>2022-05-21 07:00:29</time>
      </trkpt>
      <trkpt lat="42.02584" lon="2.66649">
        <ele>214.6</ele>
        <time>2022-05-21 07:00:30</time>
      </trkpt>
      <trkpt lat="42.02589" lon="2.66654">
        <ele>214.6</ele>
        <time>2022-05-21 07:00:31</time>
      </trkpt>
      <trkpt lat="42.02595" lon="2.66659">
        <ele>214.6</ele>
        <time>2022-05-21 07:00:32</time>
      </trkpt>
      <trkpt lat="42.026" lon="2.66664">
        <ele>214.6</ele>
        <time>2022-05-21 07:00:33</time>
      </trkpt>
      <trkpt lat="42.02606" lon="2.66669">
        <ele>214.6</ele>
        <time>2022-05-21 07:00:34</time>
      </trkpt>
      <trkpt lat="42.02612" lon="2.66673">
        <ele>214.6</ele>
        <time>2022-05-21 07:00:35</time>
      </trkpt>
      <trkpt lat="42.02618" lon="2.66678">
        <ele>214.6</ele>
        <time>2022-05-21 07:00:36</time>
      </trkpt>
      <trkpt lat="42.02623" lon="2.66682">
        <ele>214.6</ele>
        <time>2022-05-21 07:00:37</time>
      </trkpt>
      <trkpt lat="42.02629" lon="2.66686">
        <ele>214.6</ele>
        <time>2022-05-21 07:00:38</time>
      </trkpt>
      <trkpt lat="42.02635" lon="2.6669">
        <ele>214.6</ele>
        <time>2022-05-21 07:00:39</time>
      </trkpt>
      <trkpt lat="42.02641" lon="2.66695">
        <ele>214.6</ele>
        <time>2022-05-21 07:00:40</time>
      </trkpt>
      <trkpt lat="42.02647" lon="2.66699">
        <ele>214.6</ele>
        <time>2022-05-21 07:00:41</time>
      </trkpt>
      <trkpt lat="42.02653" lon="2.66704">
        <ele>214.6</ele>
        <time>2022-05-21 07:00:42</time>
      </trkpt>
      <trkpt lat="42.02659" lon="2.66709">
        <ele>214.6</ele>
        <time>2022-05-21 07:00:43</time>
      </trkpt>
      <trkpt lat="42.02665" lon="2.66713">
        <ele>214.6</ele>
        <time>2022-05-21 07:00:44</time>
      </trkpt>
      <trkpt lat="42.02671" lon="2.66718">
        <ele>214.6</ele>
        <time>2022-05-21 07:00:45</time>
      </trkpt>
      <trkpt lat="42.02676" lon="2.66724">
        <ele>214.6</ele>
        <time>2022-05-21 07:00:46</time>
      </trkpt>
      <trkpt lat="42.02681" lon="2.6673">
        <ele>214.8</ele>
        <time>2022-05-21 07:00:47</time>
      </trkpt>
      <trkpt lat="42.02685" lon="2.66737">
        <ele>214.8</ele>
        <time>2022-05-21 07:00:48</time>
      </trkpt>
      <trkpt lat="42.02689" lon="2.66744">
        <ele>214.8</ele>
        <time>2022-05-21 07:00:49</time>
      </trkpt>
      <trkpt lat="42.02692" lon="2.66752">
        <ele>214.8</ele>
        <time>2022-05-21 07:00:50</time>
      </trkpt>
      <trkpt lat="42.02694" lon="2.66759">
        <ele>215</ele>
        <time>2022-05-21 07:00:51</time>
      </trkpt>
      <trkpt lat="42.02697" lon="2.66767">
        <ele>215</ele>
        <time>2022-05-21 07:00:52</time>
      </trkpt>
      <trkpt lat="42.027" lon="2.66774">
        <ele>215</ele>
        <time>2022-05-21 07:00:53</time>
      </trkpt>
      <trkpt lat="42.02703" lon="2.66781">
        <ele>215</ele>
        <time>2022-05-21 07:00:54</time>
      </trkpt>
      <trkpt lat="42.02706" lon="2.66789">
        <ele>215.2</ele>
        <time>2022-05-21 07:00:55</time>
      </trkpt>
      <trkpt lat="42.02709" lon="2.66797">
        <ele>215.2</ele>
        <time>2022-05-21 07:00:56</time>
      </trkpt>
      <trkpt lat="42.02711" lon="2.66804">
        <ele>215.4</ele>
        <time>2022-05-21 07:00:57</time>
      </trkpt>
      <trkpt lat="42.02714" lon="2.66811">
        <ele>215.4</ele>
        <time>2022-05-21 07:00:58</time>
      </trkpt>
      <trkpt lat="42.02717" lon="2.66818">
        <ele>215.6</ele>
        <time>2022-05-21 07:00:59</time>
      </trkpt>
      <trkpt lat="42.0272" lon="2.66825">
        <ele>215.8</ele>
        <time>2022-05-21 07:01:00</time>
      </trkpt>
      <trkpt lat="42.02722" lon="2.66832">
        <ele>215.8</ele>
        <time>2022-05-21 07:01:01</time>
      </trkpt>
      <trkpt lat="42.02724" lon="2.66839">
        <ele>216</ele>
        <time>2022-05-21 07:01:02</time>
      </trkpt>
      <trkpt lat="42.02727" lon="2.66846">
        <ele>216.2</ele>
        <time>2022-05-21 07:01:03</time>
      </trkpt>
      <trkpt lat="42.02729" lon="2.66853">
        <ele>216.2</ele>
        <time>2022-05-21 07:01:04</time>
      </trkpt>
      <trkpt lat="42.0273" lon="2.6686">
        <ele>216.4</ele>
        <time>2022-05-21 07:01:05</time>
      </trkpt>
      <trkpt lat="42.02731" lon="2.66867">
        <ele>216.6</ele>
        <time>2022-05-21 07:01:06</time>
      </trkpt>
      <trkpt lat="42.02731" lon="2.66874">
        <ele>216.6</ele>
        <time>2022-05-21 07:01:07</time>
      </trkpt>
      <trkpt lat="42.02732" lon="2.66881">
        <ele>216.8</ele>
        <time>2022-05-21 07:01:08</time>
      </trkpt>
      <trkpt lat="42.02732" lon="2.66888">
        <ele>217</ele>
        <time>2022-05-21 07:01:09</time>
      </trkpt>
      <trkpt lat="42.02732" lon="2.66895">
        <ele>217.2</ele>
        <time>2022-05-21 07:01:10</time>
      </trkpt>
      <trkpt lat="42.02733" lon="2.66902">
        <ele>217.2</ele>
        <time>2022-05-21 07:01:11</time>
      </trkpt>
      <trkpt lat="42.02734" lon="2.66908">
        <ele>217.4</ele>
        <time>2022-05-21 07:01:12</time>
      </trkpt>
      <trkpt lat="42.02734" lon="2.66915">
        <ele>217.6</ele>
        <time>2022-05-21 07:01:13</time>
      </trkpt>
      <trkpt lat="42.02734" lon="2.66921">
        <ele>217.8</ele>
        <time>2022-05-21 07:01:14</time>
      </trkpt>
      <trkpt lat="42.02734" lon="2.66927">
        <ele>217.8</ele>
        <time>2022-05-21 07:01:15</time>
      </trkpt>
      <trkpt lat="42.02735" lon="2.66934">
        <ele>218</ele>
        <time>2022-05-21 07:01:16</time>
      </trkpt>
      <trkpt lat="42.02736" lon="2.6694">
        <ele>218.2</ele>
        <time>2022-05-21 07:01:17</time>
      </trkpt>
      <trkpt lat="42.02736" lon="2.66947">
        <ele>218.2</ele>
        <time>2022-05-21 07:01:18</time>
      </trkpt>
      <trkpt lat="42.02737" lon="2.66953">
        <ele>218.4</ele>
        <time>2022-05-21 07:01:19</time>
      </trkpt>
      <trkpt lat="42.02739" lon="2.66958">
        <ele>218.6</ele>
        <time>2022-05-21 07:01:20</time>
      </trkpt>
      <trkpt lat="42.02742" lon="2.66964">
        <ele>218.6</ele>
        <time>2022-05-21 07:01:21</time>
      </trkpt>
      <trkpt lat="42.02744" lon="2.66969">
        <ele>218.8</ele>
        <time>2022-05-21 07:01:22</time>
      </trkpt>
      <trkpt lat="42.02747" lon="2.66974">
        <ele>218.8</ele>
        <time>2022-05-21 07:01:23</time>
      </trkpt>
      <trkpt lat="42.0275" lon="2.66981">
        <ele>218.8</ele>
        <time>2022-05-21 07:01:24</time>
      </trkpt>
      <trkpt lat="42.02752" lon="2.66987">
        <ele>218.8</ele>
        <time>2022-05-21 07:01:25</time>
      </trkpt>
      <trkpt lat="42.02754" lon="2.66994">
        <ele>219</ele>
        <time>2022-05-21 07:01:26</time>
      </trkpt>
      <trkpt lat="42.02755" lon="2.67001">
        <ele>219</ele>
        <time>2022-05-21 07:01:27</time>
      </trkpt>
      <trkpt lat="42.02756" lon="2.67009">
        <ele>219</ele>
        <time>2022-05-21 07:01:28</time>
      </trkpt>
      <trkpt lat="42.02756" lon="2.67016">
        <ele>219</ele>
        <time>2022-05-21 07:01:29</time>
      </trkpt>
      <trkpt lat="42.02756" lon="2.67024">
        <ele>219</ele>
        <time>2022-05-21 07:01:30</time>
      </trkpt>
      <trkpt lat="42.02756" lon="2.67032">
        <ele>219</ele>
        <time>2022-05-21 07:01:31</time>
      </trkpt>
      <trkpt lat="42.02756" lon="2.6704">
        <ele>219.2</ele>
        <time>2022-05-21 07:01:32</time>
      </trkpt>
      <trkpt lat="42.02755" lon="2.67048">
        <ele>219.2</ele>
        <time>2022-05-21 07:01:33</time>
      </trkpt>
      <trkpt lat="42.02754" lon="2.67055">
        <ele>219.2</ele>
        <time>2022-05-21 07:01:34</time>
      </trkpt>
      <trkpt lat="42.02752" lon="2.67062">
        <ele>219.4</ele>
        <time>2022-05-21 07:01:35</time>
      </trkpt>
      <trkpt lat="42.0275" lon="2.67068">
        <ele>219.6</ele>
        <time>2022-05-21 07:01:36</time>
      </trkpt>
      <trkpt lat="42.02748" lon="2.67074">
        <ele>219.8</ele>
        <time>2022-05-21 07:01:37</time>
      </trkpt>
      <trkpt lat="42.02746" lon="2.6708">
        <ele>220</ele>
        <time>2022-05-21 07:01:38</time>
      </trkpt>
      <trkpt lat="42.02745" lon="2.67085">
        <ele>220.2</ele>
        <time>2022-05-21 07:01:39</time>
      </trkpt>
      <trkpt lat="42.02743" lon="2.67091">
        <ele>220.6</ele>
        <time>2022-05-21 07:01:40</time>
      </trkpt>
      <trkpt lat="42.02742" lon="2.67096">
        <ele>220.6</ele>
        <time>2022-05-21 07:01:41</time>
      </trkpt>
      <trkpt lat="42.0274" lon="2.67101">
        <ele>221</ele>
        <time>2022-05-21 07:01:42</time>
      </trkpt>
      <trkpt lat="42.02739" lon="2.67107">
        <ele>221.2</ele>
        <time>2022-05-21 07:01:43</time>
      </trkpt>
      <trkpt lat="42.02738" lon="2.67112">
        <ele>221.4</ele>
        <time>2022-05-21 07:01:44</time>
      </trkpt>
      <trkpt lat="42.02736" lon="2.67117">
        <ele>221.6</ele>
        <time>2022-05-21 07:01:45</time>
      </trkpt>
      <trkpt lat="42.02735" lon="2.67122">
        <ele>221.8</ele>
        <time>2022-05-21 07:01:46</time>
      </trkpt>
      <trkpt lat="42.02733" lon="2.67128">
        <ele>221.8</ele>
        <time>2022-05-21 07:01:47</time>
      </trkpt>
      <trkpt lat="42.02732" lon="2.67133">
        <ele>222</ele>
        <time>2022-05-21 07:01:48</time>
      </trkpt>
      <trkpt lat="42.0273" lon="2.67138">
        <ele>222.2</ele>
        <time>2022-05-21 07:01:49</time>
      </trkpt>
      <trkpt lat="42.02729" lon="2.67143">
        <ele>222.4</ele>
        <time>2022-05-21 07:01:50</time>
      </trkpt>
      <trkpt lat="42.02727" lon="2.67148">
        <ele>222.6</ele>
        <time>2022-05-21 07:01:51</time>
      </trkpt>
      <trkpt lat="42.02726" lon="2.67152">
        <ele>222.8</ele>
        <time>2022-05-21 07:01:52</time>
      </trkpt>
      <trkpt lat="42.02724" lon="2.67157">
        <ele>223</ele>
        <time>2022-05-21 07:01:53</time>
      </trkpt>
      <trkpt lat="42.02722" lon="2.67161">
        <ele>223.2</ele>
        <time>2022-05-21 07:01:54</time>
      </trkpt>
      <trkpt lat="42.0272" lon="2.67165">
        <ele>223.4</ele>
        <time>2022-05-21 07:01:55</time>
      </trkpt>
      <trkpt lat="42.02718" lon="2.6717">
        <ele>223.4</ele>
        <time>2022-05-21 07:01:56</time>
      </trkpt>
      <trkpt lat="42.02716" lon="2.67174">
        <ele>223.6</ele>
        <time>2022-05-21 07:01:57</time>
      </trkpt>
      <trkpt lat="42.02713" lon="2.67178">
        <ele>223.8</ele>
        <time>2022-05-21 07:01:58</time>
      </trkpt>
      <trkpt lat="42.02711" lon="2.67181">
        <ele>224</ele>
        <time>2022-05-21 07:01:59</time>
      </trkpt>
      <trkpt lat="42.02709" lon="2.67185">
        <ele>224.2</ele>
        <time>2022-05-21 07:02:00</time>
      </trkpt>
      <trkpt lat="42.02707" lon="2.67189">
        <ele>224.4</ele>
        <time>2022-05-21 07:02:01</time>
      </trkpt>
      <trkpt lat="42.02705" lon="2.67193">
        <ele>224.6</ele>
        <time>2022-05-21 07:02:02</time>
      </trkpt>
      <trkpt lat="42.02702" lon="2.67197">
        <ele>224.8</ele>
        <time>2022-05-21 07:02:03</time>
      </trkpt>
      <trkpt lat="42.027" lon="2.672">
        <ele>224.8</ele>
        <time>2022-05-21 07:02:04</time>
      </trkpt>
      <trkpt lat="42.02698" lon="2.67204">
        <ele>225</ele>
        <time>2022-05-21 07:02:05</time>
      </trkpt>
      <trkpt lat="42.02695" lon="2.67208">
        <ele>225.2</ele>
        <time>2022-05-21 07:02:06</time>
      </trkpt>
      <trkpt lat="42.02693" lon="2.67212">
        <ele>225.4</ele>
        <time>2022-05-21 07:02:07</time>
      </trkpt>
      <trkpt lat="42.02691" lon="2.67216">
        <ele>225.6</ele>
        <time>2022-05-21 07:02:08</time>
      </trkpt>
      <trkpt lat="42.02688" lon="2.67219">
        <ele>225.8</ele>
        <time>2022-05-21 07:02:09</time>
      </trkpt>
      <trkpt lat="42.02686" lon="2.67223">
        <ele>226</ele>
        <time>2022-05-21 07:02:10</time>
      </trkpt>
      <trkpt lat="42.02684" lon="2.67227">
        <ele>226.2</ele>
        <time>2022-05-21 07:02:11</time>
      </trkpt>
      <trkpt lat="42.02682" lon="2.67231">
        <ele>226.4</ele>
        <time>2022-05-21 07:02:12</time>
      </trkpt>
      <trkpt lat="42.0268" lon="2.67235">
        <ele>226.4</ele>
        <time>2022-05-21 07:02:13</time>
      </trkpt>
      <trkpt lat="42.02678" lon="2.67241">
        <ele>226.6</ele>
        <time>2022-05-21 07:02:14</time>
      </trkpt>
      <trkpt lat="42.02676" lon="2.67247">
        <ele>226.8</ele>
        <time>2022-05-21 07:02:15</time>
      </trkpt>
      <trkpt lat="42.02675" lon="2.67253">
        <ele>226.8</ele>
        <time>2022-05-21 07:02:16</time>
      </trkpt>
      <trkpt lat="42.02674" lon="2.67259">
        <ele>226.8</ele>
        <time>2022-05-21 07:02:17</time>
      </trkpt>
      <trkpt lat="42.02674" lon="2.67265">
        <ele>227</ele>
        <time>2022-05-21 07:02:18</time>
      </trkpt>
      <trkpt lat="42.02673" lon="2.67272">
        <ele>227</ele>
        <time>2022-05-21 07:02:19</time>
      </trkpt>
      <trkpt lat="42.02673" lon="2.67278">
        <ele>227</ele>
        <time>2022-05-21 07:02:20</time>
      </trkpt>
      <trkpt lat="42.02673" lon="2.67284">
        <ele>227</ele>
        <time>2022-05-21 07:02:21</time>
      </trkpt>
      <trkpt lat="42.02673" lon="2.67291">
        <ele>227</ele>
        <time>2022-05-21 07:02:22</time>
      </trkpt>
      <trkpt lat="42.02674" lon="2.67297">
        <ele>227</ele>
        <time>2022-05-21 07:02:23</time>
      </trkpt>
      <trkpt lat="42.02675" lon="2.67303">
        <ele>227.2</ele>
        <time>2022-05-21 07:02:24</time>
      </trkpt>
      <trkpt lat="42.02676" lon="2.67309">
        <ele>227.2</ele>
        <time>2022-05-21 07:02:25</time>
      </trkpt>
      <trkpt lat="42.02678" lon="2.67315">
        <ele>227.2</ele>
        <time>2022-05-21 07:02:26</time>
      </trkpt>
      <trkpt lat="42.0268" lon="2.6732">
        <ele>227.2</ele>
        <time>2022-05-21 07:02:27</time>
      </trkpt>
      <trkpt lat="42.02682" lon="2.67326">
        <ele>227.2</ele>
        <time>2022-05-21 07:02:28</time>
      </trkpt>
      <trkpt lat="42.02684" lon="2.67331">
        <ele>227.2</ele>
        <time>2022-05-21 07:02:29</time>
      </trkpt>
      <trkpt lat="42.02687" lon="2.67336">
        <ele>227.4</ele>
        <time>2022-05-21 07:02:30</time>
      </trkpt>
      <trkpt lat="42.02691" lon="2.6734">
        <ele>227.4</ele>
        <time>2022-05-21 07:02:31</time>
      </trkpt>
      <trkpt lat="42.02695" lon="2.67344">
        <ele>227.4</ele>
        <time>2022-05-21 07:02:32</time>
      </trkpt>
      <trkpt lat="42.02699" lon="2.67347">
        <ele>227.4</ele>
        <time>2022-05-21 07:02:33</time>
      </trkpt>
      <trkpt lat="42.02703" lon="2.6735">
        <ele>227.4</ele>
        <time>2022-05-21 07:02:34</time>
      </trkpt>
      <trkpt lat="42.02708" lon="2.67354">
        <ele>227.4</ele>
        <time>2022-05-21 07:02:35</time>
      </trkpt>
      <trkpt lat="42.02713" lon="2.67357">
        <ele>227.4</ele>
        <time>2022-05-21 07:02:36</time>
      </trkpt>
      <trkpt lat="42.02717" lon="2.67361">
        <ele>227.4</ele>
        <time>2022-05-21 07:02:37</time>
      </trkpt>
      <trkpt lat="42.02721" lon="2.67364">
        <ele>227.4</ele>
        <time>2022-05-21 07:02:38</time>
      </trkpt>
      <trkpt lat="42.02726" lon="2.67367">
        <ele>227.4</ele>
        <time>2022-05-21 07:02:39</time>
      </trkpt>
      <trkpt lat="42.0273" lon="2.6737">
        <ele>227.4</ele>
        <time>2022-05-21 07:02:40</time>
      </trkpt>
      <trkpt lat="42.02734" lon="2.67373">
        <ele>227.4</ele>
        <time>2022-05-21 07:02:41</time>
      </trkpt>
      <trkpt lat="42.02739" lon="2.67377">
        <ele>227.4</ele>
        <time>2022-05-21 07:02:42</time>
      </trkpt>
      <trkpt lat="42.02743" lon="2.6738">
        <ele>227.4</ele>
        <time>2022-05-21 07:02:43</time>
      </trkpt>
      <trkpt lat="42.02747" lon="2.67384">
        <ele>227.4</ele>
        <time>2022-05-21 07:02:44</time>
      </trkpt>
      <trkpt lat="42.02751" lon="2.67389">
        <ele>227.4</ele>
        <time>2022-05-21 07:02:45</time>
      </trkpt>
      <trkpt lat="42.02755" lon="2.67393">
        <ele>227.4</ele>
        <time>2022-05-21 07:02:46</time>
      </trkpt>
      <trkpt lat="42.02758" lon="2.67398">
        <ele>227.4</ele>
        <time>2022-05-21 07:02:47</time>
      </trkpt>
      <trkpt lat="42.02761" lon="2.67403">
        <ele>227.4</ele>
        <time>2022-05-21 07:02:48</time>
      </trkpt>
      <trkpt lat="42.02763" lon="2.67408">
        <ele>227.4</ele>
        <time>2022-05-21 07:02:49</time>
      </trkpt>
      <trkpt lat="42.02766" lon="2.67414">
        <ele>227.6</ele>
        <time>2022-05-21 07:02:50</time>
      </trkpt>
      <trkpt lat="42.02768" lon="2.67419">
        <ele>227.6</ele>
        <time>2022-05-21 07:02:51</time>
      </trkpt>
      <trkpt lat="42.02769" lon="2.67425">
        <ele>227.6</ele>
        <time>2022-05-21 07:02:52</time>
      </trkpt>
      <trkpt lat="42.0277" lon="2.67431">
        <ele>227.8</ele>
        <time>2022-05-21 07:02:53</time>
      </trkpt>
      <trkpt lat="42.02771" lon="2.67437">
        <ele>227.8</ele>
        <time>2022-05-21 07:02:54</time>
      </trkpt>
      <trkpt lat="42.02771" lon="2.67443">
        <ele>227.8</ele>
        <time>2022-05-21 07:02:55</time>
      </trkpt>
      <trkpt lat="42.02771" lon="2.67449">
        <ele>228</ele>
        <time>2022-05-21 07:02:56</time>
      </trkpt>
      <trkpt lat="42.0277" lon="2.67454">
        <ele>228.2</ele>
        <time>2022-05-21 07:02:57</time>
      </trkpt>
      <trkpt lat="42.0277" lon="2.67459">
        <ele>228.4</ele>
        <time>2022-05-21 07:02:58</time>
      </trkpt>
      <trkpt lat="42.02769" lon="2.67464">
        <ele>228.4</ele>
        <time>2022-05-21 07:02:59</time>
      </trkpt>
      <trkpt lat="42.02768" lon="2.67469">
        <ele>228.6</ele>
        <time>2022-05-21 07:03:00</time>
      </trkpt>
      <trkpt lat="42.02768" lon="2.67474">
        <ele>228.8</ele>
        <time>2022-05-21 07:03:01</time>
      </trkpt>
      <trkpt lat="42.02767" lon="2.67479">
        <ele>229</ele>
        <time>2022-05-21 07:03:02</time>
      </trkpt>
      <trkpt lat="42.02766" lon="2.67483">
        <ele>229.2</ele>
        <time>2022-05-21 07:03:03</time>
      </trkpt>
      <trkpt lat="42.02765" lon="2.67488">
        <ele>229.4</ele>
        <time>2022-05-21 07:03:04</time>
      </trkpt>
      <trkpt lat="42.02764" lon="2.67492">
        <ele>229.6</ele>
        <time>2022-05-21 07:03:05</time>
      </trkpt>
      <trkpt lat="42.02763" lon="2.67497">
        <ele>229.8</ele>
        <time>2022-05-21 07:03:06</time>
      </trkpt>
      <trkpt lat="42.02761" lon="2.67501">
        <ele>230</ele>
        <time>2022-05-21 07:03:07</time>
      </trkpt>
      <trkpt lat="42.02761" lon="2.67506">
        <ele>230</ele>
        <time>2022-05-21 07:03:08</time>
      </trkpt>
      <trkpt lat="42.0276" lon="2.67511">
        <ele>230.2</ele>
        <time>2022-05-21 07:03:09</time>
      </trkpt>
      <trkpt lat="42.02759" lon="2.67515">
        <ele>230.4</ele>
        <time>2022-05-21 07:03:10</time>
      </trkpt>
      <trkpt lat="42.02758" lon="2.6752">
        <ele>230.6</ele>
        <time>2022-05-21 07:03:11</time>
      </trkpt>
      <trkpt lat="42.02756" lon="2.67524">
        <ele>230.6</ele>
        <time>2022-05-21 07:03:12</time>
      </trkpt>
      <trkpt lat="42.02755" lon="2.67528">
        <ele>230.8</ele>
        <time>2022-05-21 07:03:13</time>
      </trkpt>
      <trkpt lat="42.02754" lon="2.67533">
        <ele>231</ele>
        <time>2022-05-21 07:03:14</time>
      </trkpt>
      <trkpt lat="42.02753" lon="2.67537">
        <ele>231.2</ele>
        <time>2022-05-21 07:03:15</time>
      </trkpt>
      <trkpt lat="42.02751" lon="2.67541">
        <ele>231.2</ele>
        <time>2022-05-21 07:03:16</time>
      </trkpt>
      <trkpt lat="42.02749" lon="2.67545">
        <ele>231.4</ele>
        <time>2022-05-21 07:03:17</time>
      </trkpt>
      <trkpt lat="42.02747" lon="2.67549">
        <ele>231.6</ele>
        <time>2022-05-21 07:03:18</time>
      </trkpt>
      <trkpt lat="42.02745" lon="2.67553">
        <ele>231.8</ele>
        <time>2022-05-21 07:03:19</time>
      </trkpt>
      <trkpt lat="42.02743" lon="2.67556">
        <ele>232</ele>
        <time>2022-05-21 07:03:20</time>
      </trkpt>
      <trkpt lat="42.0274" lon="2.67559">
        <ele>232</ele>
        <time>2022-05-21 07:03:21</time>
      </trkpt>
      <trkpt lat="42.02738" lon="2.67563">
        <ele>232.2</ele>
        <time>2022-05-21 07:03:22</time>
      </trkpt>
      <trkpt lat="42.02736" lon="2.67566">
        <ele>232.4</ele>
        <time>2022-05-21 07:03:23</time>
      </trkpt>
      <trkpt lat="42.02733" lon="2.67569">
        <ele>232.4</ele>
        <time>2022-05-21 07:03:24</time>
      </trkpt>
      <trkpt lat="42.02731" lon="2.67573">
        <ele>232.6</ele>
        <time>2022-05-21 07:03:25</time>
      </trkpt>
      <trkpt lat="42.02728" lon="2.67576">
        <ele>232.8</ele>
        <time>2022-05-21 07:03:26</time>
      </trkpt>
      <trkpt lat="42.02726" lon="2.6758">
        <ele>233</ele>
        <time>2022-05-21 07:03:27</time>
      </trkpt>
      <trkpt lat="42.02723" lon="2.67583">
        <ele>233</ele>
        <time>2022-05-21 07:03:28</time>
      </trkpt>
      <trkpt lat="42.02721" lon="2.67586">
        <ele>233.2</ele>
        <time>2022-05-21 07:03:29</time>
      </trkpt>
      <trkpt lat="42.02718" lon="2.67589">
        <ele>233.4</ele>
        <time>2022-05-21 07:03:30</time>
      </trkpt>
      <trkpt lat="42.02715" lon="2.67592">
        <ele>233.4</ele>
        <time>2022-05-21 07:03:31</time>
      </trkpt>
      <trkpt lat="42.02713" lon="2.67595">
        <ele>233.6</ele>
        <time>2022-05-21 07:03:32</time>
      </trkpt>
      <trkpt lat="42.0271" lon="2.67596">
        <ele>233.8</ele>
        <time>2022-05-21 07:03:33</time>
      </trkpt>
      <trkpt lat="42.02706" lon="2.67599">
        <ele>233.8</ele>
        <time>2022-05-21 07:03:34</time>
      </trkpt>
      <trkpt lat="42.02703" lon="2.676">
        <ele>234</ele>
        <time>2022-05-21 07:03:35</time>
      </trkpt>
      <trkpt lat="42.02699" lon="2.67601">
        <ele>234.2</ele>
        <time>2022-05-21 07:03:36</time>
      </trkpt>
      <trkpt lat="42.02696" lon="2.67601">
        <ele>234.2</ele>
        <time>2022-05-21 07:03:37</time>
      </trkpt>
      <trkpt lat="42.02692" lon="2.67601">
        <ele>234.4</ele>
        <time>2022-05-21 07:03:38</time>
      </trkpt>
      <trkpt lat="42.02689" lon="2.67601">
        <ele>234.6</ele>
        <time>2022-05-21 07:03:39</time>
      </trkpt>
      <trkpt lat="42.02686" lon="2.67601">
        <ele>234.8</ele>
        <time>2022-05-21 07:03:40</time>
      </trkpt>
      <trkpt lat="42.02683" lon="2.67601">
        <ele>234.8</ele>
        <time>2022-05-21 07:03:41</time>
      </trkpt>
      <trkpt lat="42.02679" lon="2.676">
        <ele>235</ele>
        <time>2022-05-21 07:03:42</time>
      </trkpt>
      <trkpt lat="42.02676" lon="2.676">
        <ele>235.2</ele>
        <time>2022-05-21 07:03:43</time>
      </trkpt>
      <trkpt lat="42.02673" lon="2.67599">
        <ele>235.2</ele>
        <time>2022-05-21 07:03:44</time>
      </trkpt>
      <trkpt lat="42.02669" lon="2.67599">
        <ele>235.4</ele>
        <time>2022-05-21 07:03:45</time>
      </trkpt>
      <trkpt lat="42.02666" lon="2.67599">
        <ele>235.4</ele>
        <time>2022-05-21 07:03:46</time>
      </trkpt>
      <trkpt lat="42.02663" lon="2.67599">
        <ele>235.6</ele>
        <time>2022-05-21 07:03:47</time>
      </trkpt>
      <trkpt lat="42.02659" lon="2.67599">
        <ele>235.8</ele>
        <time>2022-05-21 07:03:48</time>
      </trkpt>
      <trkpt lat="42.02656" lon="2.67599">
        <ele>236</ele>
        <time>2022-05-21 07:03:49</time>
      </trkpt>
      <trkpt lat="42.02653" lon="2.67599">
        <ele>236.2</ele>
        <time>2022-05-21 07:03:50</time>
      </trkpt>
      <trkpt lat="42.02649" lon="2.67598">
        <ele>236.4</ele>
        <time>2022-05-21 07:03:51</time>
      </trkpt>
      <trkpt lat="42.02646" lon="2.67598">
        <ele>236.6</ele>
        <time>2022-05-21 07:03:52</time>
      </trkpt>
      <trkpt lat="42.02642" lon="2.67598">
        <ele>236.6</ele>
        <time>2022-05-21 07:03:53</time>
      </trkpt>
      <trkpt lat="42.02639" lon="2.67597">
        <ele>236.8</ele>
        <time>2022-05-21 07:03:54</time>
      </trkpt>
      <trkpt lat="42.02635" lon="2.67597">
        <ele>237</ele>
        <time>2022-05-21 07:03:55</time>
      </trkpt>
      <trkpt lat="42.02631" lon="2.67597">
        <ele>237.2</ele>
        <time>2022-05-21 07:03:56</time>
      </trkpt>
      <trkpt lat="42.02628" lon="2.67597">
        <ele>237.2</ele>
        <time>2022-05-21 07:03:57</time>
      </trkpt>
      <trkpt lat="42.02624" lon="2.67597">
        <ele>237.4</ele>
        <time>2022-05-21 07:03:58</time>
      </trkpt>
      <trkpt lat="42.0262" lon="2.67597">
        <ele>237.6</ele>
        <time>2022-05-21 07:03:59</time>
      </trkpt>
      <trkpt lat="42.02617" lon="2.67597">
        <ele>237.6</ele>
        <time>2022-05-21 07:04:00</time>
      </trkpt>
      <trkpt lat="42.02613" lon="2.67597">
        <ele>237.8</ele>
        <time>2022-05-21 07:04:01</time>
      </trkpt>
      <trkpt lat="42.0261" lon="2.67597">
        <ele>238</ele>
        <time>2022-05-21 07:04:02</time>
      </trkpt>
      <trkpt lat="42.02606" lon="2.67597">
        <ele>238.2</ele>
        <time>2022-05-21 07:04:03</time>
      </trkpt>
      <trkpt lat="42.02602" lon="2.67597">
        <ele>238.4</ele>
        <time>2022-05-21 07:04:04</time>
      </trkpt>
      <trkpt lat="42.02598" lon="2.67597">
        <ele>238.4</ele>
        <time>2022-05-21 07:04:05</time>
      </trkpt>
      <trkpt lat="42.02594" lon="2.67597">
        <ele>238.6</ele>
        <time>2022-05-21 07:04:06</time>
      </trkpt>
      <trkpt lat="42.0259" lon="2.67597">
        <ele>238.8</ele>
        <time>2022-05-21 07:04:07</time>
      </trkpt>
      <trkpt lat="42.02586" lon="2.67598">
        <ele>239</ele>
        <time>2022-05-21 07:04:08</time>
      </trkpt>
      <trkpt lat="42.02582" lon="2.67598">
        <ele>239</ele>
        <time>2022-05-21 07:04:09</time>
      </trkpt>
      <trkpt lat="42.02578" lon="2.67599">
        <ele>239.2</ele>
        <time>2022-05-21 07:04:10</time>
      </trkpt>
      <trkpt lat="42.02574" lon="2.67599">
        <ele>239.4</ele>
        <time>2022-05-21 07:04:11</time>
      </trkpt>
      <trkpt lat="42.0257" lon="2.676">
        <ele>239.6</ele>
        <time>2022-05-21 07:04:12</time>
      </trkpt>
      <trkpt lat="42.02567" lon="2.676">
        <ele>239.8</ele>
        <time>2022-05-21 07:04:13</time>
      </trkpt>
      <trkpt lat="42.02563" lon="2.676">
        <ele>240</ele>
        <time>2022-05-21 07:04:14</time>
      </trkpt>
      <trkpt lat="42.0256" lon="2.676">
        <ele>240</ele>
        <time>2022-05-21 07:04:15</time>
      </trkpt>
      <trkpt lat="42.02556" lon="2.676">
        <ele>240.2</ele>
        <time>2022-05-21 07:04:16</time>
      </trkpt>
      <trkpt lat="42.02552" lon="2.67601">
        <ele>240.4</ele>
        <time>2022-05-21 07:04:17</time>
      </trkpt>
      <trkpt lat="42.02549" lon="2.67601">
        <ele>240.6</ele>
        <time>2022-05-21 07:04:18</time>
      </trkpt>
      <trkpt lat="42.02545" lon="2.67601">
        <ele>240.8</ele>
        <time>2022-05-21 07:04:19</time>
      </trkpt>
      <trkpt lat="42.02541" lon="2.67601">
        <ele>240.8</ele>
        <time>2022-05-21 07:04:20</time>
      </trkpt>
      <trkpt lat="42.02536" lon="2.67601">
        <ele>241</ele>
        <time>2022-05-21 07:04:21</time>
      </trkpt>
      <trkpt lat="42.02533" lon="2.67601">
        <ele>241.2</ele>
        <time>2022-05-21 07:04:22</time>
      </trkpt>
      <trkpt lat="42.02529" lon="2.67601">
        <ele>241.2</ele>
        <time>2022-05-21 07:04:23</time>
      </trkpt>
      <trkpt lat="42.02525" lon="2.67601">
        <ele>241.4</ele>
        <time>2022-05-21 07:04:24</time>
      </trkpt>
      <trkpt lat="42.02521" lon="2.67602">
        <ele>241.6</ele>
        <time>2022-05-21 07:04:25</time>
      </trkpt>
      <trkpt lat="42.02517" lon="2.67602">
        <ele>241.8</ele>
        <time>2022-05-21 07:04:26</time>
      </trkpt>
      <trkpt lat="42.02513" lon="2.67602">
        <ele>241.8</ele>
        <time>2022-05-21 07:04:27</time>
      </trkpt>
      <trkpt lat="42.02509" lon="2.67602">
        <ele>242</ele>
        <time>2022-05-21 07:04:28</time>
      </trkpt>
      <trkpt lat="42.02505" lon="2.67603">
        <ele>242.2</ele>
        <time>2022-05-21 07:04:29</time>
      </trkpt>
      <trkpt lat="42.02502" lon="2.67604">
        <ele>242.2</ele>
        <time>2022-05-21 07:04:30</time>
      </trkpt>
      <trkpt lat="42.02498" lon="2.67605">
        <ele>242.2</ele>
        <time>2022-05-21 07:04:31</time>
      </trkpt>
      <trkpt lat="42.02494" lon="2.67606">
        <ele>242.4</ele>
        <time>2022-05-21 07:04:32</time>
      </trkpt>
      <trkpt lat="42.02491" lon="2.67607">
        <ele>242.6</ele>
        <time>2022-05-21 07:04:33</time>
      </trkpt>
      <trkpt lat="42.02487" lon="2.67609">
        <ele>242.8</ele>
        <time>2022-05-21 07:04:34</time>
      </trkpt>
      <trkpt lat="42.02483" lon="2.67611">
        <ele>243</ele>
        <time>2022-05-21 07:04:35</time>
      </trkpt>
      <trkpt lat="42.0248" lon="2.67613">
        <ele>243</ele>
        <time>2022-05-21 07:04:36</time>
      </trkpt>
      <trkpt lat="42.02476" lon="2.67615">
        <ele>243.2</ele>
        <time>2022-05-21 07:04:37</time>
      </trkpt>
      <trkpt lat="42.02472" lon="2.67618">
        <ele>243.2</ele>
        <time>2022-05-21 07:04:38</time>
      </trkpt>
      <trkpt lat="42.02468" lon="2.67621">
        <ele>243.4</ele>
        <time>2022-05-21 07:04:39</time>
      </trkpt>
      <trkpt lat="42.02465" lon="2.67625">
        <ele>243.6</ele>
        <time>2022-05-21 07:04:40</time>
      </trkpt>
      <trkpt lat="42.02462" lon="2.67628">
        <ele>243.6</ele>
        <time>2022-05-21 07:04:41</time>
      </trkpt>
      <trkpt lat="42.02458" lon="2.67631">
        <ele>243.6</ele>
        <time>2022-05-21 07:04:42</time>
      </trkpt>
      <trkpt lat="42.02454" lon="2.67634">
        <ele>243.8</ele>
        <time>2022-05-21 07:04:43</time>
      </trkpt>
      <trkpt lat="42.02451" lon="2.67637">
        <ele>243.8</ele>
        <time>2022-05-21 07:04:44</time>
      </trkpt>
      <trkpt lat="42.02447" lon="2.67641">
        <ele>244</ele>
        <time>2022-05-21 07:04:45</time>
      </trkpt>
      <trkpt lat="42.02443" lon="2.67644">
        <ele>244</ele>
        <time>2022-05-21 07:04:46</time>
      </trkpt>
      <trkpt lat="42.0244" lon="2.67647">
        <ele>244</ele>
        <time>2022-05-21 07:04:47</time>
      </trkpt>
      <trkpt lat="42.02436" lon="2.6765">
        <ele>244.2</ele>
        <time>2022-05-21 07:04:48</time>
      </trkpt>
      <trkpt lat="42.02432" lon="2.67653">
        <ele>244.2</ele>
        <time>2022-05-21 07:04:49</time>
      </trkpt>
      <trkpt lat="42.02428" lon="2.67656">
        <ele>244.2</ele>
        <time>2022-05-21 07:04:50</time>
      </trkpt>
      <trkpt lat="42.02425" lon="2.67659">
        <ele>244.4</ele>
        <time>2022-05-21 07:04:51</time>
      </trkpt>
      <trkpt lat="42.02421" lon="2.67662">
        <ele>244.4</ele>
        <time>2022-05-21 07:04:52</time>
      </trkpt>
      <trkpt lat="42.02417" lon="2.67665">
        <ele>244.4</ele>
        <time>2022-05-21 07:04:53</time>
      </trkpt>
      <trkpt lat="42.02414" lon="2.67668">
        <ele>244.4</ele>
        <time>2022-05-21 07:04:54</time>
      </trkpt>
      <trkpt lat="42.0241" lon="2.67672">
        <ele>244.6</ele>
        <time>2022-05-21 07:04:55</time>
      </trkpt>
      <trkpt lat="42.02406" lon="2.67675">
        <ele>244.6</ele>
        <time>2022-05-21 07:04:56</time>
      </trkpt>
      <trkpt lat="42.02402" lon="2.67679">
        <ele>244.6</ele>
        <time>2022-05-21 07:04:57</time>
      </trkpt>
      <trkpt lat="42.02399" lon="2.67682">
        <ele>244.6</ele>
        <time>2022-05-21 07:04:58</time>
      </trkpt>
      <trkpt lat="42.02395" lon="2.67687">
        <ele>244.8</ele>
        <time>2022-05-21 07:04:59</time>
      </trkpt>
      <trkpt lat="42.02392" lon="2.67691">
        <ele>244.8</ele>
        <time>2022-05-21 07:05:00</time>
      </trkpt>
      <trkpt lat="42.02389" lon="2.67695">
        <ele>244.8</ele>
        <time>2022-05-21 07:05:01</time>
      </trkpt>
      <trkpt lat="42.02386" lon="2.677">
        <ele>244.8</ele>
        <time>2022-05-21 07:05:02</time>
      </trkpt>
      <trkpt lat="42.02383" lon="2.67706">
        <ele>244.8</ele>
        <time>2022-05-21 07:05:03</time>
      </trkpt>
      <trkpt lat="42.0238" lon="2.67711">
        <ele>244.8</ele>
        <time>2022-05-21 07:05:04</time>
      </trkpt>
      <trkpt lat="42.02377" lon="2.67716">
        <ele>244.8</ele>
        <time>2022-05-21 07:05:05</time>
      </trkpt>
      <trkpt lat="42.02374" lon="2.67721">
        <ele>244.8</ele>
        <time>2022-05-21 07:05:06</time>
      </trkpt>
      <trkpt lat="42.0237" lon="2.67726">
        <ele>244.8</ele>
        <time>2022-05-21 07:05:07</time>
      </trkpt>
      <trkpt lat="42.02367" lon="2.67732">
        <ele>244.8</ele>
        <time>2022-05-21 07:05:08</time>
      </trkpt>
      <trkpt lat="42.02364" lon="2.67737">
        <ele>244.8</ele>
        <time>2022-05-21 07:05:09</time>
      </trkpt>
      <trkpt lat="42.02361" lon="2.67743">
        <ele>244.8</ele>
        <time>2022-05-21 07:05:10</time>
      </trkpt>
      <trkpt lat="42.02357" lon="2.67749">
        <ele>244.8</ele>
        <time>2022-05-21 07:05:11</time>
      </trkpt>
      <trkpt lat="42.02354" lon="2.67755">
        <ele>244.8</ele>
        <time>2022-05-21 07:05:12</time>
      </trkpt>
      <trkpt lat="42.02351" lon="2.67761">
        <ele>244.8</ele>
        <time>2022-05-21 07:05:13</time>
      </trkpt>
      <trkpt lat="42.02347" lon="2.67767">
        <ele>245</ele>
        <time>2022-05-21 07:05:14</time>
      </trkpt>
      <trkpt lat="42.02344" lon="2.67772">
        <ele>245</ele>
        <time>2022-05-21 07:05:15</time>
      </trkpt>
      <trkpt lat="42.02341" lon="2.67778">
        <ele>245</ele>
        <time>2022-05-21 07:05:16</time>
      </trkpt>
      <trkpt lat="42.02338" lon="2.67784">
        <ele>245</ele>
        <time>2022-05-21 07:05:17</time>
      </trkpt>
      <trkpt lat="42.02335" lon="2.6779">
        <ele>245</ele>
        <time>2022-05-21 07:05:18</time>
      </trkpt>
      <trkpt lat="42.02332" lon="2.67796">
        <ele>245</ele>
        <time>2022-05-21 07:05:19</time>
      </trkpt>
      <trkpt lat="42.02329" lon="2.67802">
        <ele>245</ele>
        <time>2022-05-21 07:05:20</time>
      </trkpt>
      <trkpt lat="42.02326" lon="2.67808">
        <ele>245</ele>
        <time>2022-05-21 07:05:21</time>
      </trkpt>
      <trkpt lat="42.02323" lon="2.67813">
        <ele>245.2</ele>
        <time>2022-05-21 07:05:22</time>
      </trkpt>
      <trkpt lat="42.0232" lon="2.67819">
        <ele>245.2</ele>
        <time>2022-05-21 07:05:23</time>
      </trkpt>
      <trkpt lat="42.02317" lon="2.67825">
        <ele>245.2</ele>
        <time>2022-05-21 07:05:24</time>
      </trkpt>
      <trkpt lat="42.02314" lon="2.6783">
        <ele>245.2</ele>
        <time>2022-05-21 07:05:25</time>
      </trkpt>
      <trkpt lat="42.02311" lon="2.67836">
        <ele>245.2</ele>
        <time>2022-05-21 07:05:26</time>
      </trkpt>
      <trkpt lat="42.02308" lon="2.67842">
        <ele>245.2</ele>
        <time>2022-05-21 07:05:27</time>
      </trkpt>
      <trkpt lat="42.02305" lon="2.67847">
        <ele>245.2</ele>
        <time>2022-05-21 07:05:28</time>
      </trkpt>
      <trkpt lat="42.02301" lon="2.67853">
        <ele>245.2</ele>
        <time>2022-05-21 07:05:29</time>
      </trkpt>
      <trkpt lat="42.02297" lon="2.67858">
        <ele>245.2</ele>
        <time>2022-05-21 07:05:30</time>
      </trkpt>
      <trkpt lat="42.02293" lon="2.67863">
        <ele>245.2</ele>
        <time>2022-05-21 07:05:31</time>
      </trkpt>
      <trkpt lat="42.02289" lon="2.67868">
        <ele>245.2</ele>
        <time>2022-05-21 07:05:32</time>
      </trkpt>
      <trkpt lat="42.02285" lon="2.67874">
        <ele>245.2</ele>
        <time>2022-05-21 07:05:33</time>
      </trkpt>
      <trkpt lat="42.02281" lon="2.6788">
        <ele>245.2</ele>
        <time>2022-05-21 07:05:34</time>
      </trkpt>
      <trkpt lat="42.02277" lon="2.67886">
        <ele>245.2</ele>
        <time>2022-05-21 07:05:35</time>
      </trkpt>
      <trkpt lat="42.02274" lon="2.67892">
        <ele>245.2</ele>
        <time>2022-05-21 07:05:36</time>
      </trkpt>
      <trkpt lat="42.0227" lon="2.67898">
        <ele>245.2</ele>
        <time>2022-05-21 07:05:37</time>
      </trkpt>
      <trkpt lat="42.02267" lon="2.67905">
        <ele>245.2</ele>
        <time>2022-05-21 07:05:38</time>
      </trkpt>
      <trkpt lat="42.02264" lon="2.67912">
        <ele>245.2</ele>
        <time>2022-05-21 07:05:39</time>
      </trkpt>
      <trkpt lat="42.02262" lon="2.67919">
        <ele>245.2</ele>
        <time>2022-05-21 07:05:40</time>
      </trkpt>
      <trkpt lat="42.0226" lon="2.67927">
        <ele>245</ele>
        <time>2022-05-21 07:05:41</time>
      </trkpt>
      <trkpt lat="42.02258" lon="2.67934">
        <ele>245</ele>
        <time>2022-05-21 07:05:42</time>
      </trkpt>
      <trkpt lat="42.02256" lon="2.67942">
        <ele>244.8</ele>
        <time>2022-05-21 07:05:43</time>
      </trkpt>
      <trkpt lat="42.02253" lon="2.6795">
        <ele>244.8</ele>
        <time>2022-05-21 07:05:44</time>
      </trkpt>
      <trkpt lat="42.0225" lon="2.67958">
        <ele>244.6</ele>
        <time>2022-05-21 07:05:45</time>
      </trkpt>
      <trkpt lat="42.02248" lon="2.67966">
        <ele>244.6</ele>
        <time>2022-05-21 07:05:46</time>
      </trkpt>
      <trkpt lat="42.02246" lon="2.67974">
        <ele>244.4</ele>
        <time>2022-05-21 07:05:47</time>
      </trkpt>
      <trkpt lat="42.02243" lon="2.67982">
        <ele>244.4</ele>
        <time>2022-05-21 07:05:48</time>
      </trkpt>
      <trkpt lat="42.02241" lon="2.6799">
        <ele>244.2</ele>
        <time>2022-05-21 07:05:49</time>
      </trkpt>
      <trkpt lat="42.02238" lon="2.67999">
        <ele>244</ele>
        <time>2022-05-21 07:05:50</time>
      </trkpt>
      <trkpt lat="42.02236" lon="2.68007">
        <ele>244</ele>
        <time>2022-05-21 07:05:51</time>
      </trkpt>
      <trkpt lat="42.02234" lon="2.68016">
        <ele>243.8</ele>
        <time>2022-05-21 07:05:52</time>
      </trkpt>
      <trkpt lat="42.02231" lon="2.68025">
        <ele>243.8</ele>
        <time>2022-05-21 07:05:53</time>
      </trkpt>
      <trkpt lat="42.02228" lon="2.68034">
        <ele>243.6</ele>
        <time>2022-05-21 07:05:54</time>
      </trkpt>
      <trkpt lat="42.02225" lon="2.68042">
        <ele>243.4</ele>
        <time>2022-05-21 07:05:55</time>
      </trkpt>
      <trkpt lat="42.02223" lon="2.68051">
        <ele>243.2</ele>
        <time>2022-05-21 07:05:56</time>
      </trkpt>
      <trkpt lat="42.02221" lon="2.68059">
        <ele>243.2</ele>
        <time>2022-05-21 07:05:57</time>
      </trkpt>
      <trkpt lat="42.02218" lon="2.68069">
        <ele>243</ele>
        <time>2022-05-21 07:05:58</time>
      </trkpt>
      <trkpt lat="42.02215" lon="2.68077">
        <ele>242.8</ele>
        <time>2022-05-21 07:05:59</time>
      </trkpt>
      <trkpt lat="42.02212" lon="2.68086">
        <ele>242.6</ele>
        <time>2022-05-21 07:06:00</time>
      </trkpt>
      <trkpt lat="42.02209" lon="2.68096">
        <ele>242.6</ele>
        <time>2022-05-21 07:06:01</time>
      </trkpt>
      <trkpt lat="42.02207" lon="2.68104">
        <ele>242.4</ele>
        <time>2022-05-21 07:06:02</time>
      </trkpt>
      <trkpt lat="42.02204" lon="2.68113">
        <ele>242.2</ele>
        <time>2022-05-21 07:06:03</time>
      </trkpt>
      <trkpt lat="42.02201" lon="2.68123">
        <ele>242.2</ele>
        <time>2022-05-21 07:06:04</time>
      </trkpt>
      <trkpt lat="42.02198" lon="2.68132">
        <ele>242</ele>
        <time>2022-05-21 07:06:05</time>
      </trkpt>
      <trkpt lat="42.02195" lon="2.68141">
        <ele>241.8</ele>
        <time>2022-05-21 07:06:06</time>
      </trkpt>
      <trkpt lat="42.02193" lon="2.6815">
        <ele>241.8</ele>
        <time>2022-05-21 07:06:07</time>
      </trkpt>
      <trkpt lat="42.0219" lon="2.68159">
        <ele>241.6</ele>
        <time>2022-05-21 07:06:08</time>
      </trkpt>
      <trkpt lat="42.02187" lon="2.68169">
        <ele>241.4</ele>
        <time>2022-05-21 07:06:09</time>
      </trkpt>
      <trkpt lat="42.02184" lon="2.68179">
        <ele>241.2</ele>
        <time>2022-05-21 07:06:10</time>
      </trkpt>
      <trkpt lat="42.02181" lon="2.68189">
        <ele>241</ele>
        <time>2022-05-21 07:06:11</time>
      </trkpt>
      <trkpt lat="42.02179" lon="2.68198">
        <ele>240.8</ele>
        <time>2022-05-21 07:06:12</time>
      </trkpt>
      <trkpt lat="42.02176" lon="2.68208">
        <ele>240.8</ele>
        <time>2022-05-21 07:06:13</time>
      </trkpt>
      <trkpt lat="42.02173" lon="2.68217">
        <ele>240.6</ele>
        <time>2022-05-21 07:06:14</time>
      </trkpt>
      <trkpt lat="42.0217" lon="2.68227">
        <ele>240.4</ele>
        <time>2022-05-21 07:06:15</time>
      </trkpt>
      <trkpt lat="42.02167" lon="2.68236">
        <ele>240.2</ele>
        <time>2022-05-21 07:06:16</time>
      </trkpt>
      <trkpt lat="42.02164" lon="2.68245">
        <ele>240</ele>
        <time>2022-05-21 07:06:17</time>
      </trkpt>
      <trkpt lat="42.02162" lon="2.68255">
        <ele>239.8</ele>
        <time>2022-05-21 07:06:18</time>
      </trkpt>
      <trkpt lat="42.02159" lon="2.68264">
        <ele>239.6</ele>
        <time>2022-05-21 07:06:19</time>
      </trkpt>
      <trkpt lat="42.02156" lon="2.68273">
        <ele>239.4</ele>
        <time>2022-05-21 07:06:20</time>
      </trkpt>
      <trkpt lat="42.02154" lon="2.68283">
        <ele>239.2</ele>
        <time>2022-05-21 07:06:21</time>
      </trkpt>
      <trkpt lat="42.02151" lon="2.68292">
        <ele>239.2</ele>
        <time>2022-05-21 07:06:22</time>
      </trkpt>
      <trkpt lat="42.02149" lon="2.68302">
        <ele>239</ele>
        <time>2022-05-21 07:06:23</time>
      </trkpt>
      <trkpt lat="42.02146" lon="2.68312">
        <ele>238.8</ele>
        <time>2022-05-21 07:06:24</time>
      </trkpt>
      <trkpt lat="42.02143" lon="2.68321">
        <ele>238.6</ele>
        <time>2022-05-21 07:06:25</time>
      </trkpt>
      <trkpt lat="42.0214" lon="2.68331">
        <ele>238.4</ele>
        <time>2022-05-21 07:06:26</time>
      </trkpt>
      <trkpt lat="42.02137" lon="2.68341">
        <ele>238.2</ele>
        <time>2022-05-21 07:06:27</time>
      </trkpt>
      <trkpt lat="42.02135" lon="2.68351">
        <ele>238</ele>
        <time>2022-05-21 07:06:28</time>
      </trkpt>
      <trkpt lat="42.02132" lon="2.6836">
        <ele>237.8</ele>
        <time>2022-05-21 07:06:29</time>
      </trkpt>
      <trkpt lat="42.02129" lon="2.6837">
        <ele>237.6</ele>
        <time>2022-05-21 07:06:30</time>
      </trkpt>
      <trkpt lat="42.02126" lon="2.68381">
        <ele>237.4</ele>
        <time>2022-05-21 07:06:31</time>
      </trkpt>
      <trkpt lat="42.02123" lon="2.68391">
        <ele>237.2</ele>
        <time>2022-05-21 07:06:32</time>
      </trkpt>
      <trkpt lat="42.0212" lon="2.68401">
        <ele>237</ele>
        <time>2022-05-21 07:06:33</time>
      </trkpt>
      <trkpt lat="42.02118" lon="2.68412">
        <ele>236.6</ele>
        <time>2022-05-21 07:06:34</time>
      </trkpt>
      <trkpt lat="42.02116" lon="2.68422">
        <ele>236.4</ele>
        <time>2022-05-21 07:06:35</time>
      </trkpt>
      <trkpt lat="42.02115" lon="2.68433">
        <ele>236</ele>
        <time>2022-05-21 07:06:36</time>
      </trkpt>
      <trkpt lat="42.02116" lon="2.68444">
        <ele>235.8</ele>
        <time>2022-05-21 07:06:37</time>
      </trkpt>
      <trkpt lat="42.02118" lon="2.68455">
        <ele>235.4</ele>
        <time>2022-05-21 07:06:38</time>
      </trkpt>
      <trkpt lat="42.02123" lon="2.68465">
        <ele>235.2</ele>
        <time>2022-05-21 07:06:39</time>
      </trkpt>
      <trkpt lat="42.02128" lon="2.68473">
        <ele>234.8</ele>
        <time>2022-05-21 07:06:40</time>
      </trkpt>
      <trkpt lat="42.02134" lon="2.6848">
        <ele>234.6</ele>
        <time>2022-05-21 07:06:41</time>
      </trkpt>
      <trkpt lat="42.0214" lon="2.68486">
        <ele>234.4</ele>
        <time>2022-05-21 07:06:42</time>
      </trkpt>
      <trkpt lat="42.02147" lon="2.68492">
        <ele>234</ele>
        <time>2022-05-21 07:06:43</time>
      </trkpt>
      <trkpt lat="42.02156" lon="2.68498">
        <ele>233.6</ele>
        <time>2022-05-21 07:06:44</time>
      </trkpt>
      <trkpt lat="42.02165" lon="2.68504">
        <ele>233.4</ele>
        <time>2022-05-21 07:06:45</time>
      </trkpt>
      <trkpt lat="42.02174" lon="2.68509">
        <ele>233</ele>
        <time>2022-05-21 07:06:46</time>
      </trkpt>
      <trkpt lat="42.02182" lon="2.68513">
        <ele>232.8</ele>
        <time>2022-05-21 07:06:47</time>
      </trkpt>
      <trkpt lat="42.02188" lon="2.68515">
        <ele>232.4</ele>
        <time>2022-05-21 07:06:48</time>
      </trkpt>
      <trkpt lat="42.02198" lon="2.6852">
        <ele>232</ele>
        <time>2022-05-21 07:06:49</time>
      </trkpt>
      <trkpt lat="42.02205" lon="2.68522">
        <ele>231.8</ele>
        <time>2022-05-21 07:06:50</time>
      </trkpt>
      <trkpt lat="42.02215" lon="2.68526">
        <ele>231.6</ele>
        <time>2022-05-21 07:06:51</time>
      </trkpt>
      <trkpt lat="42.02225" lon="2.68529">
        <ele>231.4</ele>
        <time>2022-05-21 07:06:52</time>
      </trkpt>
      <trkpt lat="42.02234" lon="2.68532">
        <ele>231</ele>
        <time>2022-05-21 07:06:53</time>
      </trkpt>
      <trkpt lat="42.02243" lon="2.68535">
        <ele>230.8</ele>
        <time>2022-05-21 07:06:54</time>
      </trkpt>
      <trkpt lat="42.02251" lon="2.68539">
        <ele>230.6</ele>
        <time>2022-05-21 07:06:55</time>
      </trkpt>
      <trkpt lat="42.02259" lon="2.68544">
        <ele>230.6</ele>
        <time>2022-05-21 07:06:56</time>
      </trkpt>
      <trkpt lat="42.02266" lon="2.68549">
        <ele>230.4</ele>
        <time>2022-05-21 07:06:57</time>
      </trkpt>
      <trkpt lat="42.02272" lon="2.68556">
        <ele>230.2</ele>
        <time>2022-05-21 07:06:58</time>
      </trkpt>
      <trkpt lat="42.02277" lon="2.68564">
        <ele>230</ele>
        <time>2022-05-21 07:06:59</time>
      </trkpt>
      <trkpt lat="42.02282" lon="2.68571">
        <ele>229.8</ele>
        <time>2022-05-21 07:07:00</time>
      </trkpt>
      <trkpt lat="42.02285" lon="2.68583">
        <ele>229.4</ele>
        <time>2022-05-21 07:07:01</time>
      </trkpt>
      <trkpt lat="42.02284" lon="2.68595">
        <ele>229.2</ele>
        <time>2022-05-21 07:07:02</time>
      </trkpt>
      <trkpt lat="42.02283" lon="2.68607">
        <ele>228.8</ele>
        <time>2022-05-21 07:07:03</time>
      </trkpt>
      <trkpt lat="42.02282" lon="2.68619">
        <ele>228.6</ele>
        <time>2022-05-21 07:07:04</time>
      </trkpt>
      <trkpt lat="42.0228" lon="2.68632">
        <ele>228</ele>
        <time>2022-05-21 07:07:05</time>
      </trkpt>
      <trkpt lat="42.02279" lon="2.68644">
        <ele>227.4</ele>
        <time>2022-05-21 07:07:06</time>
      </trkpt>
      <trkpt lat="42.02277" lon="2.68657">
        <ele>227</ele>
        <time>2022-05-21 07:07:07</time>
      </trkpt>
      <trkpt lat="42.02275" lon="2.6867">
        <ele>226.4</ele>
        <time>2022-05-21 07:07:08</time>
      </trkpt>
      <trkpt lat="42.02273" lon="2.68684">
        <ele>226</ele>
        <time>2022-05-21 07:07:09</time>
      </trkpt>
      <trkpt lat="42.02271" lon="2.68698">
        <ele>225.4</ele>
        <time>2022-05-21 07:07:10</time>
      </trkpt>
      <trkpt lat="42.02267" lon="2.68712">
        <ele>224.8</ele>
        <time>2022-05-21 07:07:11</time>
      </trkpt>
      <trkpt lat="42.02264" lon="2.68725">
        <ele>224.2</ele>
        <time>2022-05-21 07:07:12</time>
      </trkpt>
      <trkpt lat="42.0226" lon="2.68738">
        <ele>223.8</ele>
        <time>2022-05-21 07:07:13</time>
      </trkpt>
      <trkpt lat="42.02256" lon="2.68751">
        <ele>223.2</ele>
        <time>2022-05-21 07:07:14</time>
      </trkpt>
      <trkpt lat="42.02251" lon="2.68764">
        <ele>222.6</ele>
        <time>2022-05-21 07:07:15</time>
      </trkpt>
      <trkpt lat="42.02246" lon="2.68777">
        <ele>222</ele>
        <time>2022-05-21 07:07:16</time>
      </trkpt>
      <trkpt lat="42.0224" lon="2.6879">
        <ele>221.2</ele>
        <time>2022-05-21 07:07:17</time>
      </trkpt>
      <trkpt lat="42.02234" lon="2.68802">
        <ele>220.6</ele>
        <time>2022-05-21 07:07:18</time>
      </trkpt>
      <trkpt lat="42.02227" lon="2.68814">
        <ele>220</ele>
        <time>2022-05-21 07:07:19</time>
      </trkpt>
      <trkpt lat="42.02221" lon="2.68827">
        <ele>219.2</ele>
        <time>2022-05-21 07:07:20</time>
      </trkpt>
      <trkpt lat="42.02214" lon="2.68841">
        <ele>218.6</ele>
        <time>2022-05-21 07:07:21</time>
      </trkpt>
      <trkpt lat="42.02207" lon="2.68855">
        <ele>218</ele>
        <time>2022-05-21 07:07:22</time>
      </trkpt>
      <trkpt lat="42.022" lon="2.68869">
        <ele>217.4</ele>
        <time>2022-05-21 07:07:23</time>
      </trkpt>
      <trkpt lat="42.02192" lon="2.68884">
        <ele>216.8</ele>
        <time>2022-05-21 07:07:24</time>
      </trkpt>
      <trkpt lat="42.02184" lon="2.68897">
        <ele>216</ele>
        <time>2022-05-21 07:07:25</time>
      </trkpt>
      <trkpt lat="42.02174" lon="2.68909">
        <ele>215.4</ele>
        <time>2022-05-21 07:07:26</time>
      </trkpt>
      <trkpt lat="42.02163" lon="2.68916">
        <ele>214.8</ele>
        <time>2022-05-21 07:07:27</time>
      </trkpt>
      <trkpt lat="42.02151" lon="2.68921">
        <ele>214.2</ele>
        <time>2022-05-21 07:07:28</time>
      </trkpt>
      <trkpt lat="42.0214" lon="2.68925">
        <ele>213.4</ele>
        <time>2022-05-21 07:07:29</time>
      </trkpt>
      <trkpt lat="42.02127" lon="2.68928">
        <ele>212.6</ele>
        <time>2022-05-21 07:07:30</time>
      </trkpt>
      <trkpt lat="42.02114" lon="2.6893">
        <ele>212</ele>
        <time>2022-05-21 07:07:31</time>
      </trkpt>
      <trkpt lat="42.02102" lon="2.68929">
        <ele>211.4</ele>
        <time>2022-05-21 07:07:32</time>
      </trkpt>
      <trkpt lat="42.0209" lon="2.68926">
        <ele>210.6</ele>
        <time>2022-05-21 07:07:33</time>
      </trkpt>
      <trkpt lat="42.02076" lon="2.68926">
        <ele>210</ele>
        <time>2022-05-21 07:07:34</time>
      </trkpt>
      <trkpt lat="42.02067" lon="2.6893">
        <ele>209.4</ele>
        <time>2022-05-21 07:07:35</time>
      </trkpt>
      <trkpt lat="42.02061" lon="2.68941">
        <ele>208.8</ele>
        <time>2022-05-21 07:07:36</time>
      </trkpt>
      <trkpt lat="42.02058" lon="2.68955">
        <ele>208.2</ele>
        <time>2022-05-21 07:07:37</time>
      </trkpt>
      <trkpt lat="42.02057" lon="2.6897">
        <ele>207.6</ele>
        <time>2022-05-21 07:07:38</time>
      </trkpt>
      <trkpt lat="42.02058" lon="2.68985">
        <ele>207.2</ele>
        <time>2022-05-21 07:07:39</time>
      </trkpt>
      <trkpt lat="42.02059" lon="2.68999">
        <ele>206.4</ele>
        <time>2022-05-21 07:07:40</time>
      </trkpt>
      <trkpt lat="42.02061" lon="2.69011">
        <ele>205.8</ele>
        <time>2022-05-21 07:07:41</time>
      </trkpt>
      <trkpt lat="42.02065" lon="2.69024">
        <ele>205.2</ele>
        <time>2022-05-21 07:07:42</time>
      </trkpt>
      <trkpt lat="42.02071" lon="2.69036">
        <ele>204.6</ele>
        <time>2022-05-21 07:07:43</time>
      </trkpt>
      <trkpt lat="42.02078" lon="2.69048">
        <ele>204</ele>
        <time>2022-05-21 07:07:44</time>
      </trkpt>
      <trkpt lat="42.02087" lon="2.69058">
        <ele>203.2</ele>
        <time>2022-05-21 07:07:45</time>
      </trkpt>
      <trkpt lat="42.02096" lon="2.69067">
        <ele>202.6</ele>
        <time>2022-05-21 07:07:46</time>
      </trkpt>
      <trkpt lat="42.02105" lon="2.69076">
        <ele>202</ele>
        <time>2022-05-21 07:07:47</time>
      </trkpt>
      <trkpt lat="42.02114" lon="2.69087">
        <ele>201.4</ele>
        <time>2022-05-21 07:07:48</time>
      </trkpt>
      <trkpt lat="42.02121" lon="2.691">
        <ele>200.8</ele>
        <time>2022-05-21 07:07:49</time>
      </trkpt>
      <trkpt lat="42.02127" lon="2.69113">
        <ele>200.4</ele>
        <time>2022-05-21 07:07:50</time>
      </trkpt>
      <trkpt lat="42.02133" lon="2.69126">
        <ele>199.8</ele>
        <time>2022-05-21 07:07:51</time>
      </trkpt>
      <trkpt lat="42.02139" lon="2.69139">
        <ele>199.4</ele>
        <time>2022-05-21 07:07:52</time>
      </trkpt>
      <trkpt lat="42.02144" lon="2.69152">
        <ele>198.8</ele>
        <time>2022-05-21 07:07:53</time>
      </trkpt>
      <trkpt lat="42.02149" lon="2.69165">
        <ele>198.4</ele>
        <time>2022-05-21 07:07:54</time>
      </trkpt>
      <trkpt lat="42.02154" lon="2.69178">
        <ele>197.8</ele>
        <time>2022-05-21 07:07:55</time>
      </trkpt>
      <trkpt lat="42.02158" lon="2.69193">
        <ele>197.4</ele>
        <time>2022-05-21 07:07:56</time>
      </trkpt>
      <trkpt lat="42.02159" lon="2.69208">
        <ele>196.8</ele>
        <time>2022-05-21 07:07:57</time>
      </trkpt>
      <trkpt lat="42.0216" lon="2.69223">
        <ele>196.4</ele>
        <time>2022-05-21 07:07:58</time>
      </trkpt>
      <trkpt lat="42.0216" lon="2.69238">
        <ele>196</ele>
        <time>2022-05-21 07:07:59</time>
      </trkpt>
      <trkpt lat="42.02161" lon="2.69252">
        <ele>195.4</ele>
        <time>2022-05-21 07:08:00</time>
      </trkpt>
      <trkpt lat="42.02162" lon="2.69268">
        <ele>195</ele>
        <time>2022-05-21 07:08:01</time>
      </trkpt>
      <trkpt lat="42.02164" lon="2.69283">
        <ele>194.4</ele>
        <time>2022-05-21 07:08:02</time>
      </trkpt>
      <trkpt lat="42.02165" lon="2.69298">
        <ele>193.8</ele>
        <time>2022-05-21 07:08:03</time>
      </trkpt>
      <trkpt lat="42.02166" lon="2.69314">
        <ele>193.2</ele>
        <time>2022-05-21 07:08:04</time>
      </trkpt>
      <trkpt lat="42.02166" lon="2.6933">
        <ele>192.4</ele>
        <time>2022-05-21 07:08:05</time>
      </trkpt>
      <trkpt lat="42.02166" lon="2.69345">
        <ele>191.8</ele>
        <time>2022-05-21 07:08:06</time>
      </trkpt>
      <trkpt lat="42.02166" lon="2.69361">
        <ele>191</ele>
        <time>2022-05-21 07:08:07</time>
      </trkpt>
      <trkpt lat="42.02164" lon="2.69377">
        <ele>190.4</ele>
        <time>2022-05-21 07:08:08</time>
      </trkpt>
      <trkpt lat="42.02161" lon="2.69394">
        <ele>189.6</ele>
        <time>2022-05-21 07:08:09</time>
      </trkpt>
      <trkpt lat="42.02159" lon="2.6941">
        <ele>189</ele>
        <time>2022-05-21 07:08:10</time>
      </trkpt>
      <trkpt lat="42.02159" lon="2.69426">
        <ele>188.4</ele>
        <time>2022-05-21 07:08:11</time>
      </trkpt>
      <trkpt lat="42.02163" lon="2.6944">
        <ele>187.8</ele>
        <time>2022-05-21 07:08:12</time>
      </trkpt>
      <trkpt lat="42.02169" lon="2.69453">
        <ele>187.2</ele>
        <time>2022-05-21 07:08:13</time>
      </trkpt>
      <trkpt lat="42.02178" lon="2.69464">
        <ele>186.6</ele>
        <time>2022-05-21 07:08:14</time>
      </trkpt>
      <trkpt lat="42.02187" lon="2.69474">
        <ele>186</ele>
        <time>2022-05-21 07:08:15</time>
      </trkpt>
      <trkpt lat="42.02197" lon="2.69484">
        <ele>185.4</ele>
        <time>2022-05-21 07:08:16</time>
      </trkpt>
      <trkpt lat="42.02207" lon="2.69493">
        <ele>184.6</ele>
        <time>2022-05-21 07:08:17</time>
      </trkpt>
      <trkpt lat="42.02216" lon="2.69503">
        <ele>184</ele>
        <time>2022-05-21 07:08:18</time>
      </trkpt>
      <trkpt lat="42.02224" lon="2.69515">
        <ele>183.2</ele>
        <time>2022-05-21 07:08:19</time>
      </trkpt>
      <trkpt lat="42.02232" lon="2.69527">
        <ele>182.6</ele>
        <time>2022-05-21 07:08:20</time>
      </trkpt>
      <trkpt lat="42.02239" lon="2.6954">
        <ele>181.8</ele>
        <time>2022-05-21 07:08:21</time>
      </trkpt>
      <trkpt lat="42.02245" lon="2.69555">
        <ele>181.2</ele>
        <time>2022-05-21 07:08:22</time>
      </trkpt>
      <trkpt lat="42.02249" lon="2.69571">
        <ele>180.4</ele>
        <time>2022-05-21 07:08:23</time>
      </trkpt>
      <trkpt lat="42.02252" lon="2.69589">
        <ele>179.8</ele>
        <time>2022-05-21 07:08:24</time>
      </trkpt>
      <trkpt lat="42.02256" lon="2.69606">
        <ele>179.2</ele>
        <time>2022-05-21 07:08:25</time>
      </trkpt>
      <trkpt lat="42.02261" lon="2.69623">
        <ele>178.6</ele>
        <time>2022-05-21 07:08:26</time>
      </trkpt>
      <trkpt lat="42.02265" lon="2.69639">
        <ele>178.2</ele>
        <time>2022-05-21 07:08:27</time>
      </trkpt>
      <trkpt lat="42.0227" lon="2.69653">
        <ele>177.8</ele>
        <time>2022-05-21 07:08:28</time>
      </trkpt>
      <trkpt lat="42.02276" lon="2.69665">
        <ele>177.6</ele>
        <time>2022-05-21 07:08:29</time>
      </trkpt>
      <trkpt lat="42.02284" lon="2.69675">
        <ele>177.6</ele>
        <time>2022-05-21 07:08:30</time>
      </trkpt>
      <trkpt lat="42.02293" lon="2.69682">
        <ele>177.6</ele>
        <time>2022-05-21 07:08:31</time>
      </trkpt>
      <trkpt lat="42.02302" lon="2.69686">
        <ele>177.6</ele>
        <time>2022-05-21 07:08:32</time>
      </trkpt>
      <trkpt lat="42.02312" lon="2.69686">
        <ele>177.6</ele>
        <time>2022-05-21 07:08:33</time>
      </trkpt>
      <trkpt lat="42.02322" lon="2.69686">
        <ele>177.6</ele>
        <time>2022-05-21 07:08:34</time>
      </trkpt>
      <trkpt lat="42.02331" lon="2.69686">
        <ele>177.6</ele>
        <time>2022-05-21 07:08:35</time>
      </trkpt>
      <trkpt lat="42.0234" lon="2.69688">
        <ele>177.6</ele>
        <time>2022-05-21 07:08:36</time>
      </trkpt>
      <trkpt lat="42.02348" lon="2.69691">
        <ele>177.6</ele>
        <time>2022-05-21 07:08:37</time>
      </trkpt>
      <trkpt lat="42.02355" lon="2.69697">
        <ele>177.6</ele>
        <time>2022-05-21 07:08:38</time>
      </trkpt>
      <trkpt lat="42.02359" lon="2.69704">
        <ele>177.6</ele>
        <time>2022-05-21 07:08:39</time>
      </trkpt>
      <trkpt lat="42.02359" lon="2.69712">
        <ele>177.6</ele>
        <time>2022-05-21 07:08:40</time>
      </trkpt>
      <trkpt lat="42.02357" lon="2.69721">
        <ele>177.6</ele>
        <time>2022-05-21 07:08:41</time>
      </trkpt>
      <trkpt lat="42.02351" lon="2.69729">
        <ele>177.8</ele>
        <time>2022-05-21 07:08:42</time>
      </trkpt>
      <trkpt lat="42.02345" lon="2.69736">
        <ele>177.8</ele>
        <time>2022-05-21 07:08:43</time>
      </trkpt>
      <trkpt lat="42.02337" lon="2.69742">
        <ele>177.8</ele>
        <time>2022-05-21 07:08:44</time>
      </trkpt>
      <trkpt lat="42.02329" lon="2.69749">
        <ele>177.8</ele>
        <time>2022-05-21 07:08:45</time>
      </trkpt>
      <trkpt lat="42.02322" lon="2.69756">
        <ele>177.8</ele>
        <time>2022-05-21 07:08:46</time>
      </trkpt>
      <trkpt lat="42.02314" lon="2.69764">
        <ele>177.8</ele>
        <time>2022-05-21 07:08:47</time>
      </trkpt>
      <trkpt lat="42.02307" lon="2.69771">
        <ele>177.8</ele>
        <time>2022-05-21 07:08:48</time>
      </trkpt>
      <trkpt lat="42.023" lon="2.69777">
        <ele>177.8</ele>
        <time>2022-05-21 07:08:49</time>
      </trkpt>
      <trkpt lat="42.02293" lon="2.69784">
        <ele>178</ele>
        <time>2022-05-21 07:08:50</time>
      </trkpt>
      <trkpt lat="42.02287" lon="2.69791">
        <ele>178</ele>
        <time>2022-05-21 07:08:51</time>
      </trkpt>
      <trkpt lat="42.0228" lon="2.69798">
        <ele>178</ele>
        <time>2022-05-21 07:08:52</time>
      </trkpt>
      <trkpt lat="42.02275" lon="2.69806">
        <ele>178</ele>
        <time>2022-05-21 07:08:53</time>
      </trkpt>
      <trkpt lat="42.02271" lon="2.69815">
        <ele>178</ele>
        <time>2022-05-21 07:08:54</time>
      </trkpt>
      <trkpt lat="42.02266" lon="2.69824">
        <ele>178</ele>
        <time>2022-05-21 07:08:55</time>
      </trkpt>
      <trkpt lat="42.02263" lon="2.69833">
        <ele>178.2</ele>
        <time>2022-05-21 07:08:56</time>
      </trkpt>
      <trkpt lat="42.02261" lon="2.69843">
        <ele>178.2</ele>
        <time>2022-05-21 07:08:57</time>
      </trkpt>
      <trkpt lat="42.02259" lon="2.69853">
        <ele>178.2</ele>
        <time>2022-05-21 07:08:58</time>
      </trkpt>
      <trkpt lat="42.02257" lon="2.69864">
        <ele>178.2</ele>
        <time>2022-05-21 07:08:59</time>
      </trkpt>
      <trkpt lat="42.02256" lon="2.69875">
        <ele>178.4</ele>
        <time>2022-05-21 07:09:00</time>
      </trkpt>
      <trkpt lat="42.02254" lon="2.69885">
        <ele>178.4</ele>
        <time>2022-05-21 07:09:01</time>
      </trkpt>
      <trkpt lat="42.02253" lon="2.69896">
        <ele>178.4</ele>
        <time>2022-05-21 07:09:02</time>
      </trkpt>
      <trkpt lat="42.02252" lon="2.69906">
        <ele>178.4</ele>
        <time>2022-05-21 07:09:03</time>
      </trkpt>
      <trkpt lat="42.02251" lon="2.69917">
        <ele>178.4</ele>
        <time>2022-05-21 07:09:04</time>
      </trkpt>
      <trkpt lat="42.0225" lon="2.69928">
        <ele>178.6</ele>
        <time>2022-05-21 07:09:05</time>
      </trkpt>
      <trkpt lat="42.02249" lon="2.69938">
        <ele>178.6</ele>
        <time>2022-05-21 07:09:06</time>
      </trkpt>
      <trkpt lat="42.02248" lon="2.69949">
        <ele>178.6</ele>
        <time>2022-05-21 07:09:07</time>
      </trkpt>
      <trkpt lat="42.02246" lon="2.6996">
        <ele>178.6</ele>
        <time>2022-05-21 07:09:08</time>
      </trkpt>
      <trkpt lat="42.02245" lon="2.69971">
        <ele>178.8</ele>
        <time>2022-05-21 07:09:09</time>
      </trkpt>
      <trkpt lat="42.02245" lon="2.69981">
        <ele>178.8</ele>
        <time>2022-05-21 07:09:10</time>
      </trkpt>
      <trkpt lat="42.02243" lon="2.69991">
        <ele>179</ele>
        <time>2022-05-21 07:09:11</time>
      </trkpt>
      <trkpt lat="42.02242" lon="2.70001">
        <ele>179</ele>
        <time>2022-05-21 07:09:12</time>
      </trkpt>
      <trkpt lat="42.02242" lon="2.70011">
        <ele>179</ele>
        <time>2022-05-21 07:09:13</time>
      </trkpt>
      <trkpt lat="42.02243" lon="2.70021">
        <ele>179.2</ele>
        <time>2022-05-21 07:09:14</time>
      </trkpt>
      <trkpt lat="42.02244" lon="2.70031">
        <ele>179.2</ele>
        <time>2022-05-21 07:09:15</time>
      </trkpt>
      <trkpt lat="42.02246" lon="2.70042">
        <ele>179.2</ele>
        <time>2022-05-21 07:09:16</time>
      </trkpt>
      <trkpt lat="42.0225" lon="2.70051">
        <ele>179.4</ele>
        <time>2022-05-21 07:09:17</time>
      </trkpt>
      <trkpt lat="42.02254" lon="2.70059">
        <ele>179.4</ele>
        <time>2022-05-21 07:09:18</time>
      </trkpt>
      <trkpt lat="42.02259" lon="2.70067">
        <ele>179.4</ele>
        <time>2022-05-21 07:09:19</time>
      </trkpt>
      <trkpt lat="42.02264" lon="2.70073">
        <ele>179.4</ele>
        <time>2022-05-21 07:09:20</time>
      </trkpt>
      <trkpt lat="42.02271" lon="2.70079">
        <ele>179.4</ele>
        <time>2022-05-21 07:09:21</time>
      </trkpt>
      <trkpt lat="42.02277" lon="2.70084">
        <ele>179.4</ele>
        <time>2022-05-21 07:09:22</time>
      </trkpt>
      <trkpt lat="42.02284" lon="2.70088">
        <ele>179.6</ele>
        <time>2022-05-21 07:09:23</time>
      </trkpt>
      <trkpt lat="42.02291" lon="2.70093">
        <ele>179.6</ele>
        <time>2022-05-21 07:09:24</time>
      </trkpt>
      <trkpt lat="42.02298" lon="2.70098">
        <ele>179.6</ele>
        <time>2022-05-21 07:09:25</time>
      </trkpt>
      <trkpt lat="42.02304" lon="2.70104">
        <ele>179.6</ele>
        <time>2022-05-21 07:09:26</time>
      </trkpt>
      <trkpt lat="42.0231" lon="2.7011">
        <ele>179.4</ele>
        <time>2022-05-21 07:09:27</time>
      </trkpt>
      <trkpt lat="42.02315" lon="2.70116">
        <ele>179.4</ele>
        <time>2022-05-21 07:09:28</time>
      </trkpt>
      <trkpt lat="42.0232" lon="2.70123">
        <ele>179.4</ele>
        <time>2022-05-21 07:09:29</time>
      </trkpt>
      <trkpt lat="42.02324" lon="2.70131">
        <ele>179.4</ele>
        <time>2022-05-21 07:09:30</time>
      </trkpt>
      <trkpt lat="42.02326" lon="2.7014">
        <ele>179.4</ele>
        <time>2022-05-21 07:09:31</time>
      </trkpt>
      <trkpt lat="42.02328" lon="2.70149">
        <ele>179.4</ele>
        <time>2022-05-21 07:09:32</time>
      </trkpt>
      <trkpt lat="42.02328" lon="2.70159">
        <ele>179.4</ele>
        <time>2022-05-21 07:09:33</time>
      </trkpt>
      <trkpt lat="42.02327" lon="2.7017">
        <ele>179.4</ele>
        <time>2022-05-21 07:09:34</time>
      </trkpt>
      <trkpt lat="42.02326" lon="2.7018">
        <ele>179.4</ele>
        <time>2022-05-21 07:09:35</time>
      </trkpt>
      <trkpt lat="42.02325" lon="2.7019">
        <ele>179.4</ele>
        <time>2022-05-21 07:09:36</time>
      </trkpt>
      <trkpt lat="42.02324" lon="2.702">
        <ele>179.4</ele>
        <time>2022-05-21 07:09:37</time>
      </trkpt>
      <trkpt lat="42.02324" lon="2.7021">
        <ele>179.6</ele>
        <time>2022-05-21 07:09:38</time>
      </trkpt>
      <trkpt lat="42.02324" lon="2.70221">
        <ele>179.6</ele>
        <time>2022-05-21 07:09:39</time>
      </trkpt>
      <trkpt lat="42.02324" lon="2.70232">
        <ele>179.6</ele>
        <time>2022-05-21 07:09:40</time>
      </trkpt>
      <trkpt lat="42.02325" lon="2.70242">
        <ele>179.6</ele>
        <time>2022-05-21 07:09:41</time>
      </trkpt>
      <trkpt lat="42.02327" lon="2.70253">
        <ele>179.6</ele>
        <time>2022-05-21 07:09:42</time>
      </trkpt>
      <trkpt lat="42.02328" lon="2.70264">
        <ele>179.6</ele>
        <time>2022-05-21 07:09:43</time>
      </trkpt>
      <trkpt lat="42.02328" lon="2.70275">
        <ele>179.6</ele>
        <time>2022-05-21 07:09:44</time>
      </trkpt>
      <trkpt lat="42.02327" lon="2.70287">
        <ele>179.6</ele>
        <time>2022-05-21 07:09:45</time>
      </trkpt>
      <trkpt lat="42.02324" lon="2.70298">
        <ele>179.6</ele>
        <time>2022-05-21 07:09:46</time>
      </trkpt>
      <trkpt lat="42.0232" lon="2.70309">
        <ele>179.6</ele>
        <time>2022-05-21 07:09:47</time>
      </trkpt>
      <trkpt lat="42.02314" lon="2.70319">
        <ele>179.8</ele>
        <time>2022-05-21 07:09:48</time>
      </trkpt>
      <trkpt lat="42.02308" lon="2.70327">
        <ele>179.8</ele>
        <time>2022-05-21 07:09:49</time>
      </trkpt>
      <trkpt lat="42.02301" lon="2.70333">
        <ele>179.8</ele>
        <time>2022-05-21 07:09:50</time>
      </trkpt>
      <trkpt lat="42.02293" lon="2.70339">
        <ele>180</ele>
        <time>2022-05-21 07:09:51</time>
      </trkpt>
      <trkpt lat="42.02287" lon="2.70345">
        <ele>180</ele>
        <time>2022-05-21 07:09:52</time>
      </trkpt>
      <trkpt lat="42.02281" lon="2.70352">
        <ele>180</ele>
        <time>2022-05-21 07:09:53</time>
      </trkpt>
      <trkpt lat="42.02275" lon="2.7036">
        <ele>180.2</ele>
        <time>2022-05-21 07:09:54</time>
      </trkpt>
      <trkpt lat="42.02269" lon="2.70368">
        <ele>180.2</ele>
        <time>2022-05-21 07:09:55</time>
      </trkpt>
      <trkpt lat="42.02264" lon="2.70376">
        <ele>180.2</ele>
        <time>2022-05-21 07:09:56</time>
      </trkpt>
      <trkpt lat="42.02259" lon="2.70383">
        <ele>180.4</ele>
        <time>2022-05-21 07:09:57</time>
      </trkpt>
      <trkpt lat="42.02254" lon="2.70391">
        <ele>180.4</ele>
        <time>2022-05-21 07:09:58</time>
      </trkpt>
      <trkpt lat="42.02249" lon="2.70399">
        <ele>180.6</ele>
        <time>2022-05-21 07:09:59</time>
      </trkpt>
      <trkpt lat="42.02244" lon="2.70406">
        <ele>180.6</ele>
        <time>2022-05-21 07:10:00</time>
      </trkpt>
      <trkpt lat="42.02239" lon="2.70414">
        <ele>180.6</ele>
        <time>2022-05-21 07:10:01</time>
      </trkpt>
      <trkpt lat="42.02234" lon="2.70421">
        <ele>180.6</ele>
        <time>2022-05-21 07:10:02</time>
      </trkpt>
      <trkpt lat="42.02228" lon="2.70429">
        <ele>180.4</ele>
        <time>2022-05-21 07:10:03</time>
      </trkpt>
      <trkpt lat="42.02222" lon="2.70437">
        <ele>180.2</ele>
        <time>2022-05-21 07:10:04</time>
      </trkpt>
      <trkpt lat="42.02216" lon="2.70445">
        <ele>180</ele>
        <time>2022-05-21 07:10:05</time>
      </trkpt>
      <trkpt lat="42.0221" lon="2.70453">
        <ele>179.8</ele>
        <time>2022-05-21 07:10:06</time>
      </trkpt>
      <trkpt lat="42.02203" lon="2.7046">
        <ele>179.6</ele>
        <time>2022-05-21 07:10:07</time>
      </trkpt>
      <trkpt lat="42.02197" lon="2.70468">
        <ele>179.4</ele>
        <time>2022-05-21 07:10:08</time>
      </trkpt>
      <trkpt lat="42.0219" lon="2.70476">
        <ele>179</ele>
        <time>2022-05-21 07:10:09</time>
      </trkpt>
      <trkpt lat="42.02184" lon="2.70484">
        <ele>178.8</ele>
        <time>2022-05-21 07:10:10</time>
      </trkpt>
      <trkpt lat="42.02176" lon="2.70492">
        <ele>178.4</ele>
        <time>2022-05-21 07:10:11</time>
      </trkpt>
      <trkpt lat="42.02169" lon="2.70501">
        <ele>178</ele>
        <time>2022-05-21 07:10:12</time>
      </trkpt>
      <trkpt lat="42.02161" lon="2.70509">
        <ele>177.6</ele>
        <time>2022-05-21 07:10:13</time>
      </trkpt>
      <trkpt lat="42.02154" lon="2.70518">
        <ele>177.2</ele>
        <time>2022-05-21 07:10:14</time>
      </trkpt>
      <trkpt lat="42.02145" lon="2.70525">
        <ele>177</ele>
        <time>2022-05-21 07:10:15</time>
      </trkpt>
      <trkpt lat="42.02137" lon="2.70532">
        <ele>176.6</ele>
        <time>2022-05-21 07:10:16</time>
      </trkpt>
      <trkpt lat="42.02127" lon="2.70536">
        <ele>176.2</ele>
        <time>2022-05-21 07:10:17</time>
      </trkpt>
      <trkpt lat="42.02118" lon="2.7054">
        <ele>175.8</ele>
        <time>2022-05-21 07:10:18</time>
      </trkpt>
      <trkpt lat="42.02108" lon="2.70543">
        <ele>175.6</ele>
        <time>2022-05-21 07:10:19</time>
      </trkpt>
      <trkpt lat="42.02098" lon="2.70547">
        <ele>175.2</ele>
        <time>2022-05-21 07:10:20</time>
      </trkpt>
      <trkpt lat="42.02089" lon="2.7055">
        <ele>175</ele>
        <time>2022-05-21 07:10:21</time>
      </trkpt>
      <trkpt lat="42.02078" lon="2.70553">
        <ele>174.8</ele>
        <time>2022-05-21 07:10:22</time>
      </trkpt>
      <trkpt lat="42.02068" lon="2.70557">
        <ele>174.6</ele>
        <time>2022-05-21 07:10:23</time>
      </trkpt>
      <trkpt lat="42.02058" lon="2.70561">
        <ele>174.4</ele>
        <time>2022-05-21 07:10:24</time>
      </trkpt>
      <trkpt lat="42.02048" lon="2.70565">
        <ele>174.2</ele>
        <time>2022-05-21 07:10:25</time>
      </trkpt>
      <trkpt lat="42.02039" lon="2.70569">
        <ele>174</ele>
        <time>2022-05-21 07:10:26</time>
      </trkpt>
      <trkpt lat="42.02029" lon="2.70574">
        <ele>173.6</ele>
        <time>2022-05-21 07:10:27</time>
      </trkpt>
      <trkpt lat="42.0202" lon="2.7058">
        <ele>173.4</ele>
        <time>2022-05-21 07:10:28</time>
      </trkpt>
      <trkpt lat="42.02011" lon="2.70587">
        <ele>173</ele>
        <time>2022-05-21 07:10:29</time>
      </trkpt>
      <trkpt lat="42.02002" lon="2.70594">
        <ele>172.6</ele>
        <time>2022-05-21 07:10:30</time>
      </trkpt>
      <trkpt lat="42.01993" lon="2.70602">
        <ele>172.4</ele>
        <time>2022-05-21 07:10:31</time>
      </trkpt>
      <trkpt lat="42.01984" lon="2.70609">
        <ele>172</ele>
        <time>2022-05-21 07:10:32</time>
      </trkpt>
      <trkpt lat="42.01975" lon="2.70617">
        <ele>171.6</ele>
        <time>2022-05-21 07:10:33</time>
      </trkpt>
      <trkpt lat="42.01966" lon="2.70624">
        <ele>171.2</ele>
        <time>2022-05-21 07:10:34</time>
      </trkpt>
      <trkpt lat="42.01957" lon="2.70632">
        <ele>170.8</ele>
        <time>2022-05-21 07:10:35</time>
      </trkpt>
      <trkpt lat="42.01948" lon="2.70639">
        <ele>170.6</ele>
        <time>2022-05-21 07:10:36</time>
      </trkpt>
      <trkpt lat="42.01939" lon="2.70647">
        <ele>170.2</ele>
        <time>2022-05-21 07:10:37</time>
      </trkpt>
      <trkpt lat="42.01929" lon="2.70654">
        <ele>170</ele>
        <time>2022-05-21 07:10:38</time>
      </trkpt>
      <trkpt lat="42.0192" lon="2.70662">
        <ele>169.6</ele>
        <time>2022-05-21 07:10:39</time>
      </trkpt>
      <trkpt lat="42.0191" lon="2.70671">
        <ele>169.4</ele>
        <time>2022-05-21 07:10:40</time>
      </trkpt>
      <trkpt lat="42.01901" lon="2.7068">
        <ele>169</ele>
        <time>2022-05-21 07:10:41</time>
      </trkpt>
      <trkpt lat="42.01893" lon="2.7069">
        <ele>168.6</ele>
        <time>2022-05-21 07:10:42</time>
      </trkpt>
      <trkpt lat="42.01886" lon="2.70701">
        <ele>168.4</ele>
        <time>2022-05-21 07:10:43</time>
      </trkpt>
      <trkpt lat="42.01879" lon="2.70712">
        <ele>168.2</ele>
        <time>2022-05-21 07:10:44</time>
      </trkpt>
      <trkpt lat="42.01873" lon="2.70723">
        <ele>168</ele>
        <time>2022-05-21 07:10:45</time>
      </trkpt>
      <trkpt lat="42.01866" lon="2.70733">
        <ele>167.6</ele>
        <time>2022-05-21 07:10:46</time>
      </trkpt>
      <trkpt lat="42.0186" lon="2.70744">
        <ele>167.4</ele>
        <time>2022-05-21 07:10:47</time>
      </trkpt>
      <trkpt lat="42.01853" lon="2.70754">
        <ele>167.2</ele>
        <time>2022-05-21 07:10:48</time>
      </trkpt>
      <trkpt lat="42.01847" lon="2.70765">
        <ele>167.2</ele>
        <time>2022-05-21 07:10:49</time>
      </trkpt>
      <trkpt lat="42.01841" lon="2.70775">
        <ele>167</ele>
        <time>2022-05-21 07:10:50</time>
      </trkpt>
      <trkpt lat="42.01834" lon="2.70787">
        <ele>166.8</ele>
        <time>2022-05-21 07:10:51</time>
      </trkpt>
      <trkpt lat="42.01828" lon="2.70801">
        <ele>166.6</ele>
        <time>2022-05-21 07:10:52</time>
      </trkpt>
      <trkpt lat="42.01822" lon="2.70813">
        <ele>166.4</ele>
        <time>2022-05-21 07:10:53</time>
      </trkpt>
      <trkpt lat="42.01816" lon="2.70824">
        <ele>166.2</ele>
        <time>2022-05-21 07:10:54</time>
      </trkpt>
      <trkpt lat="42.0181" lon="2.70835">
        <ele>166</ele>
        <time>2022-05-21 07:10:55</time>
      </trkpt>
      <trkpt lat="42.01805" lon="2.70845">
        <ele>165.6</ele>
        <time>2022-05-21 07:10:56</time>
      </trkpt>
      <trkpt lat="42.01799" lon="2.70855">
        <ele>165.4</ele>
        <time>2022-05-21 07:10:57</time>
      </trkpt>
      <trkpt lat="42.01794" lon="2.70866">
        <ele>165.2</ele>
        <time>2022-05-21 07:10:58</time>
      </trkpt>
      <trkpt lat="42.01788" lon="2.70877">
        <ele>165</ele>
        <time>2022-05-21 07:10:59</time>
      </trkpt>
      <trkpt lat="42.01783" lon="2.70888">
        <ele>164.8</ele>
        <time>2022-05-21 07:11:00</time>
      </trkpt>
      <trkpt lat="42.01776" lon="2.70899">
        <ele>164.6</ele>
        <time>2022-05-21 07:11:01</time>
      </trkpt>
      <trkpt lat="42.0177" lon="2.70911">
        <ele>164.2</ele>
        <time>2022-05-21 07:11:02</time>
      </trkpt>
      <trkpt lat="42.01764" lon="2.70922">
        <ele>164</ele>
        <time>2022-05-21 07:11:03</time>
      </trkpt>
      <trkpt lat="42.01758" lon="2.70933">
        <ele>163.8</ele>
        <time>2022-05-21 07:11:04</time>
      </trkpt>
      <trkpt lat="42.01752" lon="2.70944">
        <ele>163.6</ele>
        <time>2022-05-21 07:11:05</time>
      </trkpt>
      <trkpt lat="42.01746" lon="2.70954">
        <ele>163.4</ele>
        <time>2022-05-21 07:11:06</time>
      </trkpt>
      <trkpt lat="42.0174" lon="2.70965">
        <ele>163.2</ele>
        <time>2022-05-21 07:11:07</time>
      </trkpt>
      <trkpt lat="42.01735" lon="2.70975">
        <ele>163</ele>
        <time>2022-05-21 07:11:08</time>
      </trkpt>
      <trkpt lat="42.01729" lon="2.70985">
        <ele>162.8</ele>
        <time>2022-05-21 07:11:09</time>
      </trkpt>
      <trkpt lat="42.01723" lon="2.70995">
        <ele>162.6</ele>
        <time>2022-05-21 07:11:10</time>
      </trkpt>
      <trkpt lat="42.01716" lon="2.71005">
        <ele>162.4</ele>
        <time>2022-05-21 07:11:11</time>
      </trkpt>
      <trkpt lat="42.01708" lon="2.71013">
        <ele>162.2</ele>
        <time>2022-05-21 07:11:12</time>
      </trkpt>
      <trkpt lat="42.017" lon="2.7102">
        <ele>162</ele>
        <time>2022-05-21 07:11:13</time>
      </trkpt>
      <trkpt lat="42.01692" lon="2.71027">
        <ele>161.8</ele>
        <time>2022-05-21 07:11:14</time>
      </trkpt>
      <trkpt lat="42.01684" lon="2.71032">
        <ele>161.6</ele>
        <time>2022-05-21 07:11:15</time>
      </trkpt>
      <trkpt lat="42.01677" lon="2.71038">
        <ele>161.4</ele>
        <time>2022-05-21 07:11:16</time>
      </trkpt>
      <trkpt lat="42.01666" lon="2.71045">
        <ele>161.2</ele>
        <time>2022-05-21 07:11:17</time>
      </trkpt>
      <trkpt lat="42.01659" lon="2.71051">
        <ele>161</ele>
        <time>2022-05-21 07:11:18</time>
      </trkpt>
      <trkpt lat="42.01654" lon="2.71055">
        <ele>160.6</ele>
        <time>2022-05-21 07:11:19</time>
      </trkpt>
      <trkpt lat="42.01642" lon="2.71064">
        <ele>160.4</ele>
        <time>2022-05-21 07:11:20</time>
      </trkpt>
      <trkpt lat="42.01634" lon="2.71071">
        <ele>160.2</ele>
        <time>2022-05-21 07:11:21</time>
      </trkpt>
      <trkpt lat="42.01627" lon="2.71078">
        <ele>160.2</ele>
        <time>2022-05-21 07:11:22</time>
      </trkpt>
      <trkpt lat="42.01619" lon="2.71085">
        <ele>160</ele>
        <time>2022-05-21 07:11:23</time>
      </trkpt>
      <trkpt lat="42.01612" lon="2.71093">
        <ele>160</ele>
        <time>2022-05-21 07:11:24</time>
      </trkpt>
      <trkpt lat="42.01606" lon="2.71102">
        <ele>159.8</ele>
        <time>2022-05-21 07:11:25</time>
      </trkpt>
      <trkpt lat="42.016" lon="2.71111">
        <ele>159.8</ele>
        <time>2022-05-21 07:11:26</time>
      </trkpt>
      <trkpt lat="42.01594" lon="2.7112">
        <ele>159.6</ele>
        <time>2022-05-21 07:11:27</time>
      </trkpt>
      <trkpt lat="42.0159" lon="2.7113">
        <ele>159.6</ele>
        <time>2022-05-21 07:11:28</time>
      </trkpt>
      <trkpt lat="42.01585" lon="2.7114">
        <ele>159.6</ele>
        <time>2022-05-21 07:11:29</time>
      </trkpt>
      <trkpt lat="42.01583" lon="2.71151">
        <ele>159.4</ele>
        <time>2022-05-21 07:11:30</time>
      </trkpt>
      <trkpt lat="42.01582" lon="2.71163">
        <ele>159.4</ele>
        <time>2022-05-21 07:11:31</time>
      </trkpt>
      <trkpt lat="42.01581" lon="2.71173">
        <ele>159.2</ele>
        <time>2022-05-21 07:11:32</time>
      </trkpt>
      <trkpt lat="42.01581" lon="2.71185">
        <ele>159.2</ele>
        <time>2022-05-21 07:11:33</time>
      </trkpt>
      <trkpt lat="42.01583" lon="2.71196">
        <ele>159</ele>
        <time>2022-05-21 07:11:34</time>
      </trkpt>
      <trkpt lat="42.01586" lon="2.71207">
        <ele>159</ele>
        <time>2022-05-21 07:11:35</time>
      </trkpt>
      <trkpt lat="42.0159" lon="2.71218">
        <ele>158.8</ele>
        <time>2022-05-21 07:11:36</time>
      </trkpt>
      <trkpt lat="42.01596" lon="2.71228">
        <ele>158.6</ele>
        <time>2022-05-21 07:11:37</time>
      </trkpt>
      <trkpt lat="42.016" lon="2.71238">
        <ele>158.2</ele>
        <time>2022-05-21 07:11:38</time>
      </trkpt>
      <trkpt lat="42.01603" lon="2.7125">
        <ele>157.8</ele>
        <time>2022-05-21 07:11:39</time>
      </trkpt>
      <trkpt lat="42.01603" lon="2.71262">
        <ele>157.4</ele>
        <time>2022-05-21 07:11:40</time>
      </trkpt>
      <trkpt lat="42.016" lon="2.71273">
        <ele>157</ele>
        <time>2022-05-21 07:11:41</time>
      </trkpt>
      <trkpt lat="42.01593" lon="2.71282">
        <ele>156.8</ele>
        <time>2022-05-21 07:11:42</time>
      </trkpt>
      <trkpt lat="42.01586" lon="2.71288">
        <ele>156.6</ele>
        <time>2022-05-21 07:11:43</time>
      </trkpt>
      <trkpt lat="42.01579" lon="2.71292">
        <ele>156.4</ele>
        <time>2022-05-21 07:11:44</time>
      </trkpt>
      <trkpt lat="42.01571" lon="2.71294">
        <ele>156.2</ele>
        <time>2022-05-21 07:11:45</time>
      </trkpt>
      <trkpt lat="42.01562" lon="2.71294">
        <ele>156</ele>
        <time>2022-05-21 07:11:46</time>
      </trkpt>
      <trkpt lat="42.01553" lon="2.71294">
        <ele>155.8</ele>
        <time>2022-05-21 07:11:47</time>
      </trkpt>
      <trkpt lat="42.01544" lon="2.71294">
        <ele>155.6</ele>
        <time>2022-05-21 07:11:48</time>
      </trkpt>
      <trkpt lat="42.01535" lon="2.71291">
        <ele>155.2</ele>
        <time>2022-05-21 07:11:49</time>
      </trkpt>
      <trkpt lat="42.01526" lon="2.71287">
        <ele>155</ele>
        <time>2022-05-21 07:11:50</time>
      </trkpt>
      <trkpt lat="42.01516" lon="2.71282">
        <ele>154.8</ele>
        <time>2022-05-21 07:11:51</time>
      </trkpt>
      <trkpt lat="42.01507" lon="2.7128">
        <ele>154.8</ele>
        <time>2022-05-21 07:11:52</time>
      </trkpt>
      <trkpt lat="42.01497" lon="2.7128">
        <ele>154.6</ele>
        <time>2022-05-21 07:11:53</time>
      </trkpt>
      <trkpt lat="42.01489" lon="2.71283">
        <ele>154.6</ele>
        <time>2022-05-21 07:11:54</time>
      </trkpt>
      <trkpt lat="42.01481" lon="2.71289">
        <ele>154.4</ele>
        <time>2022-05-21 07:11:55</time>
      </trkpt>
      <trkpt lat="42.01474" lon="2.71297">
        <ele>154.2</ele>
        <time>2022-05-21 07:11:56</time>
      </trkpt>
      <trkpt lat="42.01468" lon="2.71307">
        <ele>154.2</ele>
        <time>2022-05-21 07:11:57</time>
      </trkpt>
      <trkpt lat="42.01464" lon="2.71318">
        <ele>154.2</ele>
        <time>2022-05-21 07:11:58</time>
      </trkpt>
      <trkpt lat="42.01462" lon="2.7133">
        <ele>154</ele>
        <time>2022-05-21 07:11:59</time>
      </trkpt>
      <trkpt lat="42.01462" lon="2.71342">
        <ele>153.8</ele>
        <time>2022-05-21 07:12:00</time>
      </trkpt>
      <trkpt lat="42.01463" lon="2.71354">
        <ele>153.6</ele>
        <time>2022-05-21 07:12:01</time>
      </trkpt>
      <trkpt lat="42.01466" lon="2.71366">
        <ele>153.4</ele>
        <time>2022-05-21 07:12:02</time>
      </trkpt>
      <trkpt lat="42.01471" lon="2.71377">
        <ele>153.4</ele>
        <time>2022-05-21 07:12:03</time>
      </trkpt>
      <trkpt lat="42.01476" lon="2.71386">
        <ele>153.2</ele>
        <time>2022-05-21 07:12:04</time>
      </trkpt>
      <trkpt lat="42.01483" lon="2.71395">
        <ele>153</ele>
        <time>2022-05-21 07:12:05</time>
      </trkpt>
      <trkpt lat="42.0149" lon="2.71404">
        <ele>152.8</ele>
        <time>2022-05-21 07:12:06</time>
      </trkpt>
      <trkpt lat="42.01497" lon="2.71413">
        <ele>152.6</ele>
        <time>2022-05-21 07:12:07</time>
      </trkpt>
      <trkpt lat="42.01503" lon="2.71423">
        <ele>152.2</ele>
        <time>2022-05-21 07:12:08</time>
      </trkpt>
      <trkpt lat="42.01508" lon="2.71433">
        <ele>152</ele>
        <time>2022-05-21 07:12:09</time>
      </trkpt>
      <trkpt lat="42.01512" lon="2.71444">
        <ele>151.6</ele>
        <time>2022-05-21 07:12:10</time>
      </trkpt>
      <trkpt lat="42.01517" lon="2.71456">
        <ele>151.2</ele>
        <time>2022-05-21 07:12:11</time>
      </trkpt>
      <trkpt lat="42.01521" lon="2.71468">
        <ele>150.6</ele>
        <time>2022-05-21 07:12:12</time>
      </trkpt>
      <trkpt lat="42.01527" lon="2.71481">
        <ele>150.2</ele>
        <time>2022-05-21 07:12:13</time>
      </trkpt>
      <trkpt lat="42.01534" lon="2.71493">
        <ele>149.8</ele>
        <time>2022-05-21 07:12:14</time>
      </trkpt>
      <trkpt lat="42.0154" lon="2.71505">
        <ele>149.4</ele>
        <time>2022-05-21 07:12:15</time>
      </trkpt>
      <trkpt lat="42.01547" lon="2.71516">
        <ele>149</ele>
        <time>2022-05-21 07:12:16</time>
      </trkpt>
      <trkpt lat="42.01555" lon="2.71525">
        <ele>148.6</ele>
        <time>2022-05-21 07:12:17</time>
      </trkpt>
      <trkpt lat="42.01563" lon="2.71533">
        <ele>148.2</ele>
        <time>2022-05-21 07:12:18</time>
      </trkpt>
      <trkpt lat="42.01572" lon="2.71541">
        <ele>147.8</ele>
        <time>2022-05-21 07:12:19</time>
      </trkpt>
      <trkpt lat="42.01579" lon="2.7155">
        <ele>147.2</ele>
        <time>2022-05-21 07:12:20</time>
      </trkpt>
      <trkpt lat="42.01585" lon="2.71562">
        <ele>146.8</ele>
        <time>2022-05-21 07:12:21</time>
      </trkpt>
      <trkpt lat="42.01588" lon="2.71577">
        <ele>146.4</ele>
        <time>2022-05-21 07:12:22</time>
      </trkpt>
      <trkpt lat="42.01587" lon="2.71593">
        <ele>146</ele>
        <time>2022-05-21 07:12:23</time>
      </trkpt>
      <trkpt lat="42.01585" lon="2.71608">
        <ele>145.6</ele>
        <time>2022-05-21 07:12:24</time>
      </trkpt>
      <trkpt lat="42.01584" lon="2.71622">
        <ele>145.2</ele>
        <time>2022-05-21 07:12:25</time>
      </trkpt>
      <trkpt lat="42.01583" lon="2.71635">
        <ele>144.8</ele>
        <time>2022-05-21 07:12:26</time>
      </trkpt>
      <trkpt lat="42.01581" lon="2.71649">
        <ele>144.4</ele>
        <time>2022-05-21 07:12:27</time>
      </trkpt>
      <trkpt lat="42.01578" lon="2.71664">
        <ele>143.8</ele>
        <time>2022-05-21 07:12:28</time>
      </trkpt>
      <trkpt lat="42.01573" lon="2.71678">
        <ele>143.2</ele>
        <time>2022-05-21 07:12:29</time>
      </trkpt>
      <trkpt lat="42.01567" lon="2.71691">
        <ele>142.6</ele>
        <time>2022-05-21 07:12:30</time>
      </trkpt>
      <trkpt lat="42.01561" lon="2.71705">
        <ele>142.2</ele>
        <time>2022-05-21 07:12:31</time>
      </trkpt>
      <trkpt lat="42.01556" lon="2.71719">
        <ele>141.8</ele>
        <time>2022-05-21 07:12:32</time>
      </trkpt>
      <trkpt lat="42.01555" lon="2.71733">
        <ele>141.4</ele>
        <time>2022-05-21 07:12:33</time>
      </trkpt>
      <trkpt lat="42.01556" lon="2.71748">
        <ele>141</ele>
        <time>2022-05-21 07:12:34</time>
      </trkpt>
      <trkpt lat="42.01559" lon="2.71761">
        <ele>140.6</ele>
        <time>2022-05-21 07:12:35</time>
      </trkpt>
      <trkpt lat="42.01562" lon="2.71775">
        <ele>140.2</ele>
        <time>2022-05-21 07:12:36</time>
      </trkpt>
      <trkpt lat="42.01566" lon="2.7179">
        <ele>139.8</ele>
        <time>2022-05-21 07:12:37</time>
      </trkpt>
      <trkpt lat="42.01569" lon="2.71803">
        <ele>139.6</ele>
        <time>2022-05-21 07:12:38</time>
      </trkpt>
      <trkpt lat="42.0157" lon="2.71817">
        <ele>139.2</ele>
        <time>2022-05-21 07:12:39</time>
      </trkpt>
      <trkpt lat="42.01571" lon="2.71832">
        <ele>138.8</ele>
        <time>2022-05-21 07:12:40</time>
      </trkpt>
      <trkpt lat="42.01571" lon="2.71847">
        <ele>138.4</ele>
        <time>2022-05-21 07:12:41</time>
      </trkpt>
      <trkpt lat="42.01572" lon="2.71861">
        <ele>138</ele>
        <time>2022-05-21 07:12:42</time>
      </trkpt>
      <trkpt lat="42.01574" lon="2.71875">
        <ele>137.6</ele>
        <time>2022-05-21 07:12:43</time>
      </trkpt>
      <trkpt lat="42.01575" lon="2.7189">
        <ele>137.2</ele>
        <time>2022-05-21 07:12:44</time>
      </trkpt>
      <trkpt lat="42.01577" lon="2.71903">
        <ele>136.8</ele>
        <time>2022-05-21 07:12:45</time>
      </trkpt>
      <trkpt lat="42.01577" lon="2.71917">
        <ele>136.2</ele>
        <time>2022-05-21 07:12:46</time>
      </trkpt>
      <trkpt lat="42.01577" lon="2.71932">
        <ele>135.8</ele>
        <time>2022-05-21 07:12:47</time>
      </trkpt>
      <trkpt lat="42.01576" lon="2.71949">
        <ele>135.4</ele>
        <time>2022-05-21 07:12:48</time>
      </trkpt>
      <trkpt lat="42.01574" lon="2.71962">
        <ele>135</ele>
        <time>2022-05-21 07:12:49</time>
      </trkpt>
      <trkpt lat="42.01572" lon="2.71976">
        <ele>134.6</ele>
        <time>2022-05-21 07:12:50</time>
      </trkpt>
      <trkpt lat="42.01571" lon="2.71991">
        <ele>134.4</ele>
        <time>2022-05-21 07:12:51</time>
      </trkpt>
      <trkpt lat="42.01568" lon="2.72006">
        <ele>134</ele>
        <time>2022-05-21 07:12:52</time>
      </trkpt>
      <trkpt lat="42.01564" lon="2.7202">
        <ele>133.8</ele>
        <time>2022-05-21 07:12:53</time>
      </trkpt>
      <trkpt lat="42.01561" lon="2.72034">
        <ele>133.4</ele>
        <time>2022-05-21 07:12:54</time>
      </trkpt>
      <trkpt lat="42.01558" lon="2.7205">
        <ele>133.2</ele>
        <time>2022-05-21 07:12:55</time>
      </trkpt>
      <trkpt lat="42.01557" lon="2.72064">
        <ele>132.8</ele>
        <time>2022-05-21 07:12:56</time>
      </trkpt>
      <trkpt lat="42.01558" lon="2.72078">
        <ele>132.2</ele>
        <time>2022-05-21 07:12:57</time>
      </trkpt>
      <trkpt lat="42.01563" lon="2.7209">
        <ele>131.8</ele>
        <time>2022-05-21 07:12:58</time>
      </trkpt>
      <trkpt lat="42.01571" lon="2.72099">
        <ele>131.4</ele>
        <time>2022-05-21 07:12:59</time>
      </trkpt>
      <trkpt lat="42.0158" lon="2.72104">
        <ele>131</ele>
        <time>2022-05-21 07:13:00</time>
      </trkpt>
      <trkpt lat="42.01591" lon="2.72107">
        <ele>130.4</ele>
        <time>2022-05-21 07:13:01</time>
      </trkpt>
      <trkpt lat="42.01603" lon="2.72107">
        <ele>130</ele>
        <time>2022-05-21 07:13:02</time>
      </trkpt>
      <trkpt lat="42.01614" lon="2.72106">
        <ele>129.6</ele>
        <time>2022-05-21 07:13:03</time>
      </trkpt>
      <trkpt lat="42.01627" lon="2.72105">
        <ele>129</ele>
        <time>2022-05-21 07:13:04</time>
      </trkpt>
      <trkpt lat="42.01639" lon="2.72107">
        <ele>128.8</ele>
        <time>2022-05-21 07:13:05</time>
      </trkpt>
      <trkpt lat="42.0165" lon="2.72109">
        <ele>128.2</ele>
        <time>2022-05-21 07:13:06</time>
      </trkpt>
      <trkpt lat="42.01661" lon="2.72113">
        <ele>127.8</ele>
        <time>2022-05-21 07:13:07</time>
      </trkpt>
      <trkpt lat="42.01671" lon="2.72119">
        <ele>127.2</ele>
        <time>2022-05-21 07:13:08</time>
      </trkpt>
      <trkpt lat="42.01682" lon="2.72124">
        <ele>126.6</ele>
        <time>2022-05-21 07:13:09</time>
      </trkpt>
      <trkpt lat="42.01691" lon="2.7213">
        <ele>126</ele>
        <time>2022-05-21 07:13:10</time>
      </trkpt>
      <trkpt lat="42.01701" lon="2.72138">
        <ele>125.6</ele>
        <time>2022-05-21 07:13:11</time>
      </trkpt>
      <trkpt lat="42.01709" lon="2.72146">
        <ele>125.2</ele>
        <time>2022-05-21 07:13:12</time>
      </trkpt>
      <trkpt lat="42.01716" lon="2.72155">
        <ele>124.8</ele>
        <time>2022-05-21 07:13:13</time>
      </trkpt>
      <trkpt lat="42.01723" lon="2.72165">
        <ele>124.4</ele>
        <time>2022-05-21 07:13:14</time>
      </trkpt>
      <trkpt lat="42.01728" lon="2.72177">
        <ele>124.2</ele>
        <time>2022-05-21 07:13:15</time>
      </trkpt>
      <trkpt lat="42.01731" lon="2.72189">
        <ele>123.8</ele>
        <time>2022-05-21 07:13:16</time>
      </trkpt>
      <trkpt lat="42.01732" lon="2.72204">
        <ele>123.6</ele>
        <time>2022-05-21 07:13:17</time>
      </trkpt>
      <trkpt lat="42.01733" lon="2.72219">
        <ele>123.4</ele>
        <time>2022-05-21 07:13:18</time>
      </trkpt>
      <trkpt lat="42.01733" lon="2.72236">
        <ele>123</ele>
        <time>2022-05-21 07:13:19</time>
      </trkpt>
      <trkpt lat="42.01733" lon="2.72251">
        <ele>122.8</ele>
        <time>2022-05-21 07:13:20</time>
      </trkpt>
      <trkpt lat="42.01733" lon="2.72265">
        <ele>122.6</ele>
        <time>2022-05-21 07:13:21</time>
      </trkpt>
      <trkpt lat="42.01734" lon="2.72279">
        <ele>122.4</ele>
        <time>2022-05-21 07:13:22</time>
      </trkpt>
      <trkpt lat="42.01736" lon="2.72293">
        <ele>122.2</ele>
        <time>2022-05-21 07:13:23</time>
      </trkpt>
      <trkpt lat="42.01737" lon="2.72307">
        <ele>122</ele>
        <time>2022-05-21 07:13:24</time>
      </trkpt>
      <trkpt lat="42.01738" lon="2.72321">
        <ele>122</ele>
        <time>2022-05-21 07:13:25</time>
      </trkpt>
      <trkpt lat="42.01739" lon="2.72334">
        <ele>121.8</ele>
        <time>2022-05-21 07:13:26</time>
      </trkpt>
      <trkpt lat="42.0174" lon="2.72349">
        <ele>121.8</ele>
        <time>2022-05-21 07:13:27</time>
      </trkpt>
      <trkpt lat="42.01741" lon="2.72362">
        <ele>121.6</ele>
        <time>2022-05-21 07:13:28</time>
      </trkpt>
      <trkpt lat="42.01741" lon="2.72375">
        <ele>121.4</ele>
        <time>2022-05-21 07:13:29</time>
      </trkpt>
      <trkpt lat="42.01741" lon="2.72388">
        <ele>121.2</ele>
        <time>2022-05-21 07:13:30</time>
      </trkpt>
      <trkpt lat="42.01741" lon="2.72402">
        <ele>121</ele>
        <time>2022-05-21 07:13:31</time>
      </trkpt>
      <trkpt lat="42.01738" lon="2.72415">
        <ele>121</ele>
        <time>2022-05-21 07:13:32</time>
      </trkpt>
      <trkpt lat="42.01737" lon="2.72425">
        <ele>120.8</ele>
        <time>2022-05-21 07:13:33</time>
      </trkpt>
      <trkpt lat="42.01732" lon="2.7244">
        <ele>120.8</ele>
        <time>2022-05-21 07:13:34</time>
      </trkpt>
      <trkpt lat="42.01727" lon="2.7245">
        <ele>120.6</ele>
        <time>2022-05-21 07:13:35</time>
      </trkpt>
      <trkpt lat="42.01721" lon="2.72461">
        <ele>120.6</ele>
        <time>2022-05-21 07:13:36</time>
      </trkpt>
      <trkpt lat="42.01716" lon="2.72472">
        <ele>120.6</ele>
        <time>2022-05-21 07:13:37</time>
      </trkpt>
      <trkpt lat="42.01711" lon="2.72482">
        <ele>120.6</ele>
        <time>2022-05-21 07:13:38</time>
      </trkpt>
      <trkpt lat="42.01706" lon="2.72492">
        <ele>120.6</ele>
        <time>2022-05-21 07:13:39</time>
      </trkpt>
      <trkpt lat="42.01701" lon="2.72504">
        <ele>120.4</ele>
        <time>2022-05-21 07:13:40</time>
      </trkpt>
      <trkpt lat="42.01696" lon="2.72514">
        <ele>120.4</ele>
        <time>2022-05-21 07:13:41</time>
      </trkpt>
      <trkpt lat="42.01691" lon="2.72523">
        <ele>120.4</ele>
        <time>2022-05-21 07:13:42</time>
      </trkpt>
      <trkpt lat="42.01686" lon="2.72533">
        <ele>120.4</ele>
        <time>2022-05-21 07:13:43</time>
      </trkpt>
      <trkpt lat="42.01681" lon="2.72543">
        <ele>120.4</ele>
        <time>2022-05-21 07:13:44</time>
      </trkpt>
      <trkpt lat="42.01675" lon="2.72552">
        <ele>120.2</ele>
        <time>2022-05-21 07:13:45</time>
      </trkpt>
      <trkpt lat="42.01669" lon="2.72561">
        <ele>120.2</ele>
        <time>2022-05-21 07:13:46</time>
      </trkpt>
      <trkpt lat="42.01662" lon="2.72568">
        <ele>120.2</ele>
        <time>2022-05-21 07:13:47</time>
      </trkpt>
      <trkpt lat="42.01655" lon="2.72575">
        <ele>120</ele>
        <time>2022-05-21 07:13:48</time>
      </trkpt>
      <trkpt lat="42.01648" lon="2.7258">
        <ele>120</ele>
        <time>2022-05-21 07:13:49</time>
      </trkpt>
      <trkpt lat="42.0164" lon="2.72584">
        <ele>120</ele>
        <time>2022-05-21 07:13:50</time>
      </trkpt>
      <trkpt lat="42.01632" lon="2.72587">
        <ele>120</ele>
        <time>2022-05-21 07:13:51</time>
      </trkpt>
      <trkpt lat="42.01625" lon="2.72588">
        <ele>120</ele>
        <time>2022-05-21 07:13:52</time>
      </trkpt>
      <trkpt lat="42.01617" lon="2.72589">
        <ele>120</ele>
        <time>2022-05-21 07:13:53</time>
      </trkpt>
      <trkpt lat="42.01609" lon="2.7259">
        <ele>120</ele>
        <time>2022-05-21 07:13:54</time>
      </trkpt>
      <trkpt lat="42.01601" lon="2.7259">
        <ele>120</ele>
        <time>2022-05-21 07:13:55</time>
      </trkpt>
      <trkpt lat="42.01594" lon="2.7259">
        <ele>120</ele>
        <time>2022-05-21 07:13:56</time>
      </trkpt>
      <trkpt lat="42.01588" lon="2.7259">
        <ele>120</ele>
        <time>2022-05-21 07:13:57</time>
      </trkpt>
      <trkpt lat="42.01579" lon="2.72591">
        <ele>120</ele>
        <time>2022-05-21 07:13:58</time>
      </trkpt>
      <trkpt lat="42.01572" lon="2.72592">
        <ele>120</ele>
        <time>2022-05-21 07:13:59</time>
      </trkpt>
      <trkpt lat="42.01564" lon="2.72593">
        <ele>119.8</ele>
        <time>2022-05-21 07:14:00</time>
      </trkpt>
      <trkpt lat="42.01556" lon="2.72594">
        <ele>119.8</ele>
        <time>2022-05-21 07:14:01</time>
      </trkpt>
      <trkpt lat="42.01549" lon="2.72594">
        <ele>119.8</ele>
        <time>2022-05-21 07:14:02</time>
      </trkpt>
      <trkpt lat="42.01542" lon="2.72595">
        <ele>119.8</ele>
        <time>2022-05-21 07:14:03</time>
      </trkpt>
      <trkpt lat="42.01534" lon="2.72594">
        <ele>119.8</ele>
        <time>2022-05-21 07:14:04</time>
      </trkpt>
      <trkpt lat="42.01527" lon="2.72592">
        <ele>119.6</ele>
        <time>2022-05-21 07:14:05</time>
      </trkpt>
      <trkpt lat="42.01519" lon="2.7259">
        <ele>119.6</ele>
        <time>2022-05-21 07:14:06</time>
      </trkpt>
      <trkpt lat="42.01513" lon="2.72585">
        <ele>119.6</ele>
        <time>2022-05-21 07:14:07</time>
      </trkpt>
      <trkpt lat="42.01506" lon="2.7258">
        <ele>119.6</ele>
        <time>2022-05-21 07:14:08</time>
      </trkpt>
      <trkpt lat="42.015" lon="2.72575">
        <ele>119.6</ele>
        <time>2022-05-21 07:14:09</time>
      </trkpt>
      <trkpt lat="42.01493" lon="2.72571">
        <ele>119.6</ele>
        <time>2022-05-21 07:14:10</time>
      </trkpt>
      <trkpt lat="42.01487" lon="2.72568">
        <ele>119.6</ele>
        <time>2022-05-21 07:14:11</time>
      </trkpt>
      <trkpt lat="42.0148" lon="2.72565">
        <ele>119.4</ele>
        <time>2022-05-21 07:14:12</time>
      </trkpt>
      <trkpt lat="42.01474" lon="2.72562">
        <ele>119.4</ele>
        <time>2022-05-21 07:14:13</time>
      </trkpt>
      <trkpt lat="42.01467" lon="2.72559">
        <ele>119.4</ele>
        <time>2022-05-21 07:14:14</time>
      </trkpt>
      <trkpt lat="42.0146" lon="2.72556">
        <ele>119.2</ele>
        <time>2022-05-21 07:14:15</time>
      </trkpt>
      <trkpt lat="42.01451" lon="2.72553">
        <ele>119.2</ele>
        <time>2022-05-21 07:14:16</time>
      </trkpt>
      <trkpt lat="42.01445" lon="2.7255">
        <ele>119</ele>
        <time>2022-05-21 07:14:17</time>
      </trkpt>
      <trkpt lat="42.01437" lon="2.72548">
        <ele>119</ele>
        <time>2022-05-21 07:14:18</time>
      </trkpt>
      <trkpt lat="42.01431" lon="2.72545">
        <ele>119</ele>
        <time>2022-05-21 07:14:19</time>
      </trkpt>
      <trkpt lat="42.01423" lon="2.72542">
        <ele>118.8</ele>
        <time>2022-05-21 07:14:20</time>
      </trkpt>
      <trkpt lat="42.01417" lon="2.7254">
        <ele>118.8</ele>
        <time>2022-05-21 07:14:21</time>
      </trkpt>
      <trkpt lat="42.01408" lon="2.72537">
        <ele>118.6</ele>
        <time>2022-05-21 07:14:22</time>
      </trkpt>
      <trkpt lat="42.01402" lon="2.72533">
        <ele>118.6</ele>
        <time>2022-05-21 07:14:23</time>
      </trkpt>
      <trkpt lat="42.01395" lon="2.7253">
        <ele>118.6</ele>
        <time>2022-05-21 07:14:24</time>
      </trkpt>
      <trkpt lat="42.01389" lon="2.72526">
        <ele>118.4</ele>
        <time>2022-05-21 07:14:25</time>
      </trkpt>
      <trkpt lat="42.01381" lon="2.72522">
        <ele>118.2</ele>
        <time>2022-05-21 07:14:26</time>
      </trkpt>
      <trkpt lat="42.01374" lon="2.72518">
        <ele>118.2</ele>
        <time>2022-05-21 07:14:27</time>
      </trkpt>
      <trkpt lat="42.01365" lon="2.72514">
        <ele>118</ele>
        <time>2022-05-21 07:14:28</time>
      </trkpt>
      <trkpt lat="42.01356" lon="2.72512">
        <ele>118</ele>
        <time>2022-05-21 07:14:29</time>
      </trkpt>
      <trkpt lat="42.01347" lon="2.72512">
        <ele>118</ele>
        <time>2022-05-21 07:14:30</time>
      </trkpt>
      <trkpt lat="42.01339" lon="2.72515">
        <ele>117.8</ele>
        <time>2022-05-21 07:14:31</time>
      </trkpt>
      <trkpt lat="42.01331" lon="2.7252">
        <ele>117.8</ele>
        <time>2022-05-21 07:14:32</time>
      </trkpt>
      <trkpt lat="42.01325" lon="2.72527">
        <ele>117.8</ele>
        <time>2022-05-21 07:14:33</time>
      </trkpt>
      <trkpt lat="42.0132" lon="2.72534">
        <ele>117.8</ele>
        <time>2022-05-21 07:14:34</time>
      </trkpt>
      <trkpt lat="42.01315" lon="2.72544">
        <ele>117.8</ele>
        <time>2022-05-21 07:14:35</time>
      </trkpt>
      <trkpt lat="42.01311" lon="2.72553">
        <ele>117.8</ele>
        <time>2022-05-21 07:14:36</time>
      </trkpt>
      <trkpt lat="42.01308" lon="2.72563">
        <ele>117.6</ele>
        <time>2022-05-21 07:14:37</time>
      </trkpt>
      <trkpt lat="42.01305" lon="2.72573">
        <ele>117.6</ele>
        <time>2022-05-21 07:14:38</time>
      </trkpt>
      <trkpt lat="42.01302" lon="2.72584">
        <ele>117.6</ele>
        <time>2022-05-21 07:14:39</time>
      </trkpt>
      <trkpt lat="42.013" lon="2.72594">
        <ele>117.6</ele>
        <time>2022-05-21 07:14:40</time>
      </trkpt>
      <trkpt lat="42.01297" lon="2.72606">
        <ele>117.4</ele>
        <time>2022-05-21 07:14:41</time>
      </trkpt>
      <trkpt lat="42.01295" lon="2.72616">
        <ele>117.2</ele>
        <time>2022-05-21 07:14:42</time>
      </trkpt>
      <trkpt lat="42.01291" lon="2.72628">
        <ele>117.2</ele>
        <time>2022-05-21 07:14:43</time>
      </trkpt>
      <trkpt lat="42.01287" lon="2.72639">
        <ele>117.2</ele>
        <time>2022-05-21 07:14:44</time>
      </trkpt>
      <trkpt lat="42.01284" lon="2.72649">
        <ele>117</ele>
        <time>2022-05-21 07:14:45</time>
      </trkpt>
      <trkpt lat="42.0128" lon="2.72659">
        <ele>117</ele>
        <time>2022-05-21 07:14:46</time>
      </trkpt>
      <trkpt lat="42.01276" lon="2.7267">
        <ele>116.8</ele>
        <time>2022-05-21 07:14:47</time>
      </trkpt>
      <trkpt lat="42.01272" lon="2.7268">
        <ele>116.8</ele>
        <time>2022-05-21 07:14:48</time>
      </trkpt>
      <trkpt lat="42.01268" lon="2.72691">
        <ele>116.8</ele>
        <time>2022-05-21 07:14:49</time>
      </trkpt>
      <trkpt lat="42.01265" lon="2.727">
        <ele>116.6</ele>
        <time>2022-05-21 07:14:50</time>
      </trkpt>
      <trkpt lat="42.01261" lon="2.72711">
        <ele>116.6</ele>
        <time>2022-05-21 07:14:51</time>
      </trkpt>
      <trkpt lat="42.01257" lon="2.7272">
        <ele>116.6</ele>
        <time>2022-05-21 07:14:52</time>
      </trkpt>
      <trkpt lat="42.01254" lon="2.72732">
        <ele>116.6</ele>
        <time>2022-05-21 07:14:53</time>
      </trkpt>
      <trkpt lat="42.0125" lon="2.72742">
        <ele>116.6</ele>
        <time>2022-05-21 07:14:54</time>
      </trkpt>
      <trkpt lat="42.01247" lon="2.72752">
        <ele>116.6</ele>
        <time>2022-05-21 07:14:55</time>
      </trkpt>
      <trkpt lat="42.01244" lon="2.7276">
        <ele>116.6</ele>
        <time>2022-05-21 07:14:56</time>
      </trkpt>
      <trkpt lat="42.0124" lon="2.72772">
        <ele>116.6</ele>
        <time>2022-05-21 07:14:57</time>
      </trkpt>
      <trkpt lat="42.01236" lon="2.72781">
        <ele>116.6</ele>
        <time>2022-05-21 07:14:58</time>
      </trkpt>
      <trkpt lat="42.01233" lon="2.72791">
        <ele>116.4</ele>
        <time>2022-05-21 07:14:59</time>
      </trkpt>
      <trkpt lat="42.01229" lon="2.728">
        <ele>116.4</ele>
        <time>2022-05-21 07:15:00</time>
      </trkpt>
      <trkpt lat="42.01226" lon="2.7281">
        <ele>116.6</ele>
        <time>2022-05-21 07:15:01</time>
      </trkpt>
      <trkpt lat="42.01222" lon="2.72819">
        <ele>116.4</ele>
        <time>2022-05-21 07:15:02</time>
      </trkpt>
      <trkpt lat="42.01219" lon="2.72829">
        <ele>116.4</ele>
        <time>2022-05-21 07:15:03</time>
      </trkpt>
      <trkpt lat="42.01215" lon="2.72838">
        <ele>116.4</ele>
        <time>2022-05-21 07:15:04</time>
      </trkpt>
      <trkpt lat="42.0121" lon="2.72848">
        <ele>116.4</ele>
        <time>2022-05-21 07:15:05</time>
      </trkpt>
      <trkpt lat="42.01206" lon="2.72857">
        <ele>116.4</ele>
        <time>2022-05-21 07:15:06</time>
      </trkpt>
      <trkpt lat="42.01202" lon="2.72867">
        <ele>116.4</ele>
        <time>2022-05-21 07:15:07</time>
      </trkpt>
      <trkpt lat="42.01197" lon="2.72875">
        <ele>116.4</ele>
        <time>2022-05-21 07:15:08</time>
      </trkpt>
      <trkpt lat="42.01192" lon="2.72886">
        <ele>116.4</ele>
        <time>2022-05-21 07:15:09</time>
      </trkpt>
      <trkpt lat="42.01188" lon="2.72895">
        <ele>116.4</ele>
        <time>2022-05-21 07:15:10</time>
      </trkpt>
      <trkpt lat="42.01183" lon="2.72904">
        <ele>116.4</ele>
        <time>2022-05-21 07:15:11</time>
      </trkpt>
      <trkpt lat="42.01179" lon="2.72913">
        <ele>116.4</ele>
        <time>2022-05-21 07:15:12</time>
      </trkpt>
      <trkpt lat="42.01174" lon="2.72922">
        <ele>116.4</ele>
        <time>2022-05-21 07:15:13</time>
      </trkpt>
      <trkpt lat="42.0117" lon="2.7293">
        <ele>116.4</ele>
        <time>2022-05-21 07:15:14</time>
      </trkpt>
      <trkpt lat="42.01164" lon="2.7294">
        <ele>116.4</ele>
        <time>2022-05-21 07:15:15</time>
      </trkpt>
      <trkpt lat="42.0116" lon="2.72948">
        <ele>116.4</ele>
        <time>2022-05-21 07:15:16</time>
      </trkpt>
      <trkpt lat="42.01156" lon="2.72957">
        <ele>116.4</ele>
        <time>2022-05-21 07:15:17</time>
      </trkpt>
      <trkpt lat="42.01152" lon="2.72965">
        <ele>116.6</ele>
        <time>2022-05-21 07:15:18</time>
      </trkpt>
      <trkpt lat="42.01147" lon="2.72974">
        <ele>116.6</ele>
        <time>2022-05-21 07:15:19</time>
      </trkpt>
      <trkpt lat="42.01144" lon="2.72982">
        <ele>116.6</ele>
        <time>2022-05-21 07:15:20</time>
      </trkpt>
      <trkpt lat="42.01139" lon="2.7299">
        <ele>116.6</ele>
        <time>2022-05-21 07:15:21</time>
      </trkpt>
      <trkpt lat="42.01136" lon="2.72997">
        <ele>116.8</ele>
        <time>2022-05-21 07:15:22</time>
      </trkpt>
      <trkpt lat="42.01132" lon="2.73005">
        <ele>116.8</ele>
        <time>2022-05-21 07:15:23</time>
      </trkpt>
      <trkpt lat="42.01128" lon="2.73012">
        <ele>116.8</ele>
        <time>2022-05-21 07:15:24</time>
      </trkpt>
      <trkpt lat="42.01125" lon="2.7302">
        <ele>117</ele>
        <time>2022-05-21 07:15:25</time>
      </trkpt>
      <trkpt lat="42.01122" lon="2.73027">
        <ele>117</ele>
        <time>2022-05-21 07:15:26</time>
      </trkpt>
      <trkpt lat="42.01119" lon="2.73034">
        <ele>117</ele>
        <time>2022-05-21 07:15:27</time>
      </trkpt>
      <trkpt lat="42.01116" lon="2.7304">
        <ele>117</ele>
        <time>2022-05-21 07:15:28</time>
      </trkpt>
      <trkpt lat="42.01112" lon="2.73048">
        <ele>117</ele>
        <time>2022-05-21 07:15:29</time>
      </trkpt>
      <trkpt lat="42.01109" lon="2.73055">
        <ele>117</ele>
        <time>2022-05-21 07:15:30</time>
      </trkpt>
      <trkpt lat="42.01105" lon="2.73063">
        <ele>117</ele>
        <time>2022-05-21 07:15:31</time>
      </trkpt>
      <trkpt lat="42.01102" lon="2.73069">
        <ele>117</ele>
        <time>2022-05-21 07:15:32</time>
      </trkpt>
      <trkpt lat="42.01098" lon="2.73076">
        <ele>116.8</ele>
        <time>2022-05-21 07:15:33</time>
      </trkpt>
      <trkpt lat="42.01094" lon="2.73083">
        <ele>116.8</ele>
        <time>2022-05-21 07:15:34</time>
      </trkpt>
      <trkpt lat="42.0109" lon="2.73091">
        <ele>116.6</ele>
        <time>2022-05-21 07:15:35</time>
      </trkpt>
      <trkpt lat="42.01087" lon="2.73098">
        <ele>116.6</ele>
        <time>2022-05-21 07:15:36</time>
      </trkpt>
      <trkpt lat="42.01083" lon="2.73104">
        <ele>116.6</ele>
        <time>2022-05-21 07:15:37</time>
      </trkpt>
      <trkpt lat="42.01081" lon="2.73111">
        <ele>116.4</ele>
        <time>2022-05-21 07:15:38</time>
      </trkpt>
      <trkpt lat="42.01077" lon="2.73118">
        <ele>116.4</ele>
        <time>2022-05-21 07:15:39</time>
      </trkpt>
      <trkpt lat="42.01074" lon="2.73124">
        <ele>116.2</ele>
        <time>2022-05-21 07:15:40</time>
      </trkpt>
      <trkpt lat="42.0107" lon="2.73132">
        <ele>116.2</ele>
        <time>2022-05-21 07:15:41</time>
      </trkpt>
      <trkpt lat="42.01067" lon="2.73138">
        <ele>116</ele>
        <time>2022-05-21 07:15:42</time>
      </trkpt>
      <trkpt lat="42.01063" lon="2.73145">
        <ele>116</ele>
        <time>2022-05-21 07:15:43</time>
      </trkpt>
      <trkpt lat="42.01061" lon="2.7315">
        <ele>116</ele>
        <time>2022-05-21 07:15:44</time>
      </trkpt>
      <trkpt lat="42.0106" lon="2.73155">
        <ele>116</ele>
        <time>2022-05-21 07:15:45</time>
      </trkpt>
      <trkpt lat="42.01059" lon="2.73158">
        <ele>116</ele>
        <time>2022-05-21 07:15:46</time>
      </trkpt>
      <trkpt lat="42.01058" lon="2.73159">
        <ele>116.2</ele>
        <time>2022-05-21 07:15:47</time>
      </trkpt>
      <trkpt lat="42.01054" lon="2.73165">
        <ele>116.2</ele>
        <time>2022-05-21 07:15:48</time>
      </trkpt>
      <trkpt lat="42.01053" lon="2.73168">
        <ele>116.2</ele>
        <time>2022-05-21 07:15:49</time>
      </trkpt>
      <trkpt lat="42.01051" lon="2.73172">
        <ele>116.2</ele>
        <time>2022-05-21 07:15:50</time>
      </trkpt>
      <trkpt lat="42.01049" lon="2.73176">
        <ele>116.2</ele>
        <time>2022-05-21 07:15:51</time>
      </trkpt>
      <trkpt lat="42.01047" lon="2.73179">
        <ele>116.2</ele>
        <time>2022-05-21 07:15:52</time>
      </trkpt>
      <trkpt lat="42.01044" lon="2.73184">
        <ele>116.2</ele>
        <time>2022-05-21 07:15:53</time>
      </trkpt>
      <trkpt lat="42.01041" lon="2.73189">
        <ele>116</ele>
        <time>2022-05-21 07:15:54</time>
      </trkpt>
      <trkpt lat="42.01039" lon="2.73193">
        <ele>116</ele>
        <time>2022-05-21 07:15:55</time>
      </trkpt>
      <trkpt lat="42.01036" lon="2.73198">
        <ele>116</ele>
        <time>2022-05-21 07:15:56</time>
      </trkpt>
      <trkpt lat="42.01033" lon="2.73204">
        <ele>116</ele>
        <time>2022-05-21 07:15:57</time>
      </trkpt>
      <trkpt lat="42.0103" lon="2.73209">
        <ele>116</ele>
        <time>2022-05-21 07:15:58</time>
      </trkpt>
      <trkpt lat="42.01027" lon="2.73215">
        <ele>116</ele>
        <time>2022-05-21 07:15:59</time>
      </trkpt>
      <trkpt lat="42.01025" lon="2.7322">
        <ele>116</ele>
        <time>2022-05-21 07:16:00</time>
      </trkpt>
      <trkpt lat="42.01021" lon="2.73227">
        <ele>116</ele>
        <time>2022-05-21 07:16:01</time>
      </trkpt>
      <trkpt lat="42.01019" lon="2.73231">
        <ele>116</ele>
        <time>2022-05-21 07:16:02</time>
      </trkpt>
      <trkpt lat="42.01015" lon="2.7324">
        <ele>116</ele>
        <time>2022-05-21 07:16:03</time>
      </trkpt>
      <trkpt lat="42.01013" lon="2.73246">
        <ele>116</ele>
        <time>2022-05-21 07:16:04</time>
      </trkpt>
      <trkpt lat="42.01011" lon="2.73255">
        <ele>116</ele>
        <time>2022-05-21 07:16:05</time>
      </trkpt>
      <trkpt lat="42.0101" lon="2.7326">
        <ele>116</ele>
        <time>2022-05-21 07:16:06</time>
      </trkpt>
      <trkpt lat="42.01008" lon="2.73269">
        <ele>116</ele>
        <time>2022-05-21 07:16:07</time>
      </trkpt>
      <trkpt lat="42.01007" lon="2.73276">
        <ele>116</ele>
        <time>2022-05-21 07:16:08</time>
      </trkpt>
      <trkpt lat="42.01007" lon="2.73285">
        <ele>116</ele>
        <time>2022-05-21 07:16:09</time>
      </trkpt>
      <trkpt lat="42.01006" lon="2.73292">
        <ele>116</ele>
        <time>2022-05-21 07:16:10</time>
      </trkpt>
      <trkpt lat="42.01006" lon="2.73301">
        <ele>116</ele>
        <time>2022-05-21 07:16:11</time>
      </trkpt>
      <trkpt lat="42.01006" lon="2.73309">
        <ele>115.8</ele>
        <time>2022-05-21 07:16:12</time>
      </trkpt>
      <trkpt lat="42.01006" lon="2.73317">
        <ele>115.8</ele>
        <time>2022-05-21 07:16:13</time>
      </trkpt>
      <trkpt lat="42.01006" lon="2.73325">
        <ele>115.8</ele>
        <time>2022-05-21 07:16:14</time>
      </trkpt>
      <trkpt lat="42.01006" lon="2.73333">
        <ele>115.8</ele>
        <time>2022-05-21 07:16:15</time>
      </trkpt>
      <trkpt lat="42.01006" lon="2.7334">
        <ele>115.8</ele>
        <time>2022-05-21 07:17:42</time>
      </trkpt>
      <trkpt lat="42.01007" lon="2.73348">
        <ele>115.8</ele>
        <time>2022-05-21 07:17:43</time>
      </trkpt>
      <trkpt lat="42.01007" lon="2.73356">
        <ele>115.8</ele>
        <time>2022-05-21 07:17:44</time>
      </trkpt>
      <trkpt lat="42.01007" lon="2.73364">
        <ele>115.8</ele>
        <time>2022-05-21 07:17:45</time>
      </trkpt>
      <trkpt lat="42.01007" lon="2.73371">
        <ele>116</ele>
        <time>2022-05-21 07:17:46</time>
      </trkpt>
      <trkpt lat="42.01006" lon="2.73379">
        <ele>116</ele>
        <time>2022-05-21 07:17:47</time>
      </trkpt>
      <trkpt lat="42.01005" lon="2.73387">
        <ele>115.8</ele>
        <time>2022-05-21 07:17:48</time>
      </trkpt>
      <trkpt lat="42.01003" lon="2.73394">
        <ele>115.8</ele>
        <time>2022-05-21 07:17:49</time>
      </trkpt>
      <trkpt lat="42.01001" lon="2.73401">
        <ele>115.8</ele>
        <time>2022-05-21 07:17:50</time>
      </trkpt>
      <trkpt lat="42.00998" lon="2.73408">
        <ele>115.8</ele>
        <time>2022-05-21 07:17:51</time>
      </trkpt>
      <trkpt lat="42.00994" lon="2.73413">
        <ele>115.8</ele>
        <time>2022-05-21 07:17:52</time>
      </trkpt>
      <trkpt lat="42.0099" lon="2.73417">
        <ele>115.8</ele>
        <time>2022-05-21 07:17:53</time>
      </trkpt>
      <trkpt lat="42.00985" lon="2.73421">
        <ele>115.8</ele>
        <time>2022-05-21 07:17:54</time>
      </trkpt>
      <trkpt lat="42.0098" lon="2.73425">
        <ele>115.8</ele>
        <time>2022-05-21 07:17:55</time>
      </trkpt>
      <trkpt lat="42.00975" lon="2.73428">
        <ele>115.8</ele>
        <time>2022-05-21 07:17:56</time>
      </trkpt>
      <trkpt lat="42.00969" lon="2.73431">
        <ele>115.8</ele>
        <time>2022-05-21 07:17:57</time>
      </trkpt>
      <trkpt lat="42.00964" lon="2.73433">
        <ele>115.8</ele>
        <time>2022-05-21 07:17:58</time>
      </trkpt>
      <trkpt lat="42.00959" lon="2.73436">
        <ele>115.8</ele>
        <time>2022-05-21 07:17:59</time>
      </trkpt>
      <trkpt lat="42.00954" lon="2.73439">
        <ele>115.8</ele>
        <time>2022-05-21 07:18:00</time>
      </trkpt>
      <trkpt lat="42.00948" lon="2.73442">
        <ele>115.8</ele>
        <time>2022-05-21 07:18:01</time>
      </trkpt>
      <trkpt lat="42.00943" lon="2.73446">
        <ele>116</ele>
        <time>2022-05-21 07:18:02</time>
      </trkpt>
      <trkpt lat="42.00938" lon="2.7345">
        <ele>116</ele>
        <time>2022-05-21 07:18:03</time>
      </trkpt>
      <trkpt lat="42.00934" lon="2.73454">
        <ele>116</ele>
        <time>2022-05-21 07:18:04</time>
      </trkpt>
      <trkpt lat="42.0093" lon="2.73459">
        <ele>116.2</ele>
        <time>2022-05-21 07:18:05</time>
      </trkpt>
      <trkpt lat="42.00927" lon="2.73464">
        <ele>116.2</ele>
        <time>2022-05-21 07:18:06</time>
      </trkpt>
      <trkpt lat="42.00924" lon="2.7347">
        <ele>116.4</ele>
        <time>2022-05-21 07:18:07</time>
      </trkpt>
      <trkpt lat="42.00921" lon="2.73475">
        <ele>116.6</ele>
        <time>2022-05-21 07:18:08</time>
      </trkpt>
      <trkpt lat="42.00918" lon="2.73481">
        <ele>116.6</ele>
        <time>2022-05-21 07:18:09</time>
      </trkpt>
      <trkpt lat="42.00916" lon="2.73486">
        <ele>116.8</ele>
        <time>2022-05-21 07:18:10</time>
      </trkpt>
      <trkpt lat="42.00913" lon="2.73491">
        <ele>117</ele>
        <time>2022-05-21 07:18:11</time>
      </trkpt>
      <trkpt lat="42.00911" lon="2.73497">
        <ele>117.2</ele>
        <time>2022-05-21 07:18:12</time>
      </trkpt>
      <trkpt lat="42.00908" lon="2.73503">
        <ele>117.2</ele>
        <time>2022-05-21 07:18:13</time>
      </trkpt>
      <trkpt lat="42.00906" lon="2.73509">
        <ele>117.4</ele>
        <time>2022-05-21 07:18:14</time>
      </trkpt>
      <trkpt lat="42.00903" lon="2.73515">
        <ele>117.6</ele>
        <time>2022-05-21 07:18:15</time>
      </trkpt>
      <trkpt lat="42.00901" lon="2.73521">
        <ele>117.6</ele>
        <time>2022-05-21 07:18:16</time>
      </trkpt>
      <trkpt lat="42.00899" lon="2.73527">
        <ele>117.6</ele>
        <time>2022-05-21 07:18:17</time>
      </trkpt>
      <trkpt lat="42.00897" lon="2.73533">
        <ele>117.6</ele>
        <time>2022-05-21 07:18:18</time>
      </trkpt>
      <trkpt lat="42.00895" lon="2.7354">
        <ele>117.6</ele>
        <time>2022-05-21 07:18:19</time>
      </trkpt>
      <trkpt lat="42.00893" lon="2.73547">
        <ele>117.6</ele>
        <time>2022-05-21 07:18:20</time>
      </trkpt>
      <trkpt lat="42.0089" lon="2.73553">
        <ele>117.6</ele>
        <time>2022-05-21 07:18:21</time>
      </trkpt>
      <trkpt lat="42.00888" lon="2.7356">
        <ele>117.4</ele>
        <time>2022-05-21 07:18:22</time>
      </trkpt>
      <trkpt lat="42.00886" lon="2.73568">
        <ele>117.4</ele>
        <time>2022-05-21 07:18:23</time>
      </trkpt>
      <trkpt lat="42.00885" lon="2.73575">
        <ele>117.4</ele>
        <time>2022-05-21 07:18:24</time>
      </trkpt>
      <trkpt lat="42.00886" lon="2.73583">
        <ele>117.2</ele>
        <time>2022-05-21 07:18:25</time>
      </trkpt>
      <trkpt lat="42.00887" lon="2.7359">
        <ele>117.2</ele>
        <time>2022-05-21 07:18:26</time>
      </trkpt>
      <trkpt lat="42.00889" lon="2.73597">
        <ele>117</ele>
        <time>2022-05-21 07:18:27</time>
      </trkpt>
      <trkpt lat="42.00892" lon="2.73603">
        <ele>117</ele>
        <time>2022-05-21 07:18:28</time>
      </trkpt>
      <trkpt lat="42.00896" lon="2.73609">
        <ele>117</ele>
        <time>2022-05-21 07:18:29</time>
      </trkpt>
      <trkpt lat="42.009" lon="2.73614">
        <ele>117</ele>
        <time>2022-05-21 07:18:30</time>
      </trkpt>
      <trkpt lat="42.00904" lon="2.73618">
        <ele>116.8</ele>
        <time>2022-05-21 07:18:31</time>
      </trkpt>
      <trkpt lat="42.00908" lon="2.73622">
        <ele>116.8</ele>
        <time>2022-05-21 07:18:32</time>
      </trkpt>
      <trkpt lat="42.00912" lon="2.73626">
        <ele>116.8</ele>
        <time>2022-05-21 07:18:33</time>
      </trkpt>
      <trkpt lat="42.00917" lon="2.73629">
        <ele>116.8</ele>
        <time>2022-05-21 07:18:34</time>
      </trkpt>
      <trkpt lat="42.00922" lon="2.73632">
        <ele>116.8</ele>
        <time>2022-05-21 07:18:35</time>
      </trkpt>
      <trkpt lat="42.00927" lon="2.73634">
        <ele>116.6</ele>
        <time>2022-05-21 07:18:36</time>
      </trkpt>
      <trkpt lat="42.00931" lon="2.73637">
        <ele>116.6</ele>
        <time>2022-05-21 07:18:37</time>
      </trkpt>
      <trkpt lat="42.00936" lon="2.7364">
        <ele>116.6</ele>
        <time>2022-05-21 07:18:38</time>
      </trkpt>
      <trkpt lat="42.0094" lon="2.73644">
        <ele>116.4</ele>
        <time>2022-05-21 07:18:39</time>
      </trkpt>
      <trkpt lat="42.00945" lon="2.73648">
        <ele>116.4</ele>
        <time>2022-05-21 07:18:40</time>
      </trkpt>
      <trkpt lat="42.00949" lon="2.73653">
        <ele>116.4</ele>
        <time>2022-05-21 07:18:41</time>
      </trkpt>
      <trkpt lat="42.00954" lon="2.73659">
        <ele>116.2</ele>
        <time>2022-05-21 07:18:42</time>
      </trkpt>
      <trkpt lat="42.00958" lon="2.73666">
        <ele>116.2</ele>
        <time>2022-05-21 07:18:43</time>
      </trkpt>
      <trkpt lat="42.00961" lon="2.73673">
        <ele>116.2</ele>
        <time>2022-05-21 07:18:44</time>
      </trkpt>
      <trkpt lat="42.00965" lon="2.73681">
        <ele>116</ele>
        <time>2022-05-21 07:18:45</time>
      </trkpt>
      <trkpt lat="42.00967" lon="2.73689">
        <ele>116</ele>
        <time>2022-05-21 07:18:46</time>
      </trkpt>
      <trkpt lat="42.0097" lon="2.73698">
        <ele>116</ele>
        <time>2022-05-21 07:18:47</time>
      </trkpt>
      <trkpt lat="42.00973" lon="2.73706">
        <ele>116</ele>
        <time>2022-05-21 07:18:48</time>
      </trkpt>
      <trkpt lat="42.00975" lon="2.73714">
        <ele>115.8</ele>
        <time>2022-05-21 07:18:49</time>
      </trkpt>
      <trkpt lat="42.00978" lon="2.73722">
        <ele>115.8</ele>
        <time>2022-05-21 07:18:50</time>
      </trkpt>
      <trkpt lat="42.0098" lon="2.7373">
        <ele>115.8</ele>
        <time>2022-05-21 07:18:51</time>
      </trkpt>
      <trkpt lat="42.00982" lon="2.73739">
        <ele>116</ele>
        <time>2022-05-21 07:18:52</time>
      </trkpt>
      <trkpt lat="42.00984" lon="2.73747">
        <ele>116</ele>
        <time>2022-05-21 07:18:53</time>
      </trkpt>
      <trkpt lat="42.00985" lon="2.73755">
        <ele>116</ele>
        <time>2022-05-21 07:18:54</time>
      </trkpt>
      <trkpt lat="42.00984" lon="2.73762">
        <ele>116.2</ele>
        <time>2022-05-21 07:18:55</time>
      </trkpt>
      <trkpt lat="42.00983" lon="2.73767">
        <ele>116.2</ele>
        <time>2022-05-21 07:18:56</time>
      </trkpt>
      <trkpt lat="42.0098" lon="2.73773">
        <ele>116.4</ele>
        <time>2022-05-21 07:18:57</time>
      </trkpt>
      <trkpt lat="42.00975" lon="2.7378">
        <ele>116.6</ele>
        <time>2022-05-21 07:18:58</time>
      </trkpt>
      <trkpt lat="42.00969" lon="2.73787">
        <ele>116.6</ele>
        <time>2022-05-21 07:18:59</time>
      </trkpt>
      <trkpt lat="42.00962" lon="2.73791">
        <ele>116.8</ele>
        <time>2022-05-21 07:19:00</time>
      </trkpt>
      <trkpt lat="42.00957" lon="2.73794">
        <ele>116.8</ele>
        <time>2022-05-21 07:19:01</time>
      </trkpt>
      <trkpt lat="42.00951" lon="2.73796">
        <ele>116.8</ele>
        <time>2022-05-21 07:19:02</time>
      </trkpt>
      <trkpt lat="42.00945" lon="2.73797">
        <ele>116.8</ele>
        <time>2022-05-21 07:19:03</time>
      </trkpt>
      <trkpt lat="42.00938" lon="2.73798">
        <ele>116.8</ele>
        <time>2022-05-21 07:19:04</time>
      </trkpt>
      <trkpt lat="42.00932" lon="2.73799">
        <ele>117</ele>
        <time>2022-05-21 07:19:05</time>
      </trkpt>
      <trkpt lat="42.00925" lon="2.73799">
        <ele>117</ele>
        <time>2022-05-21 07:19:06</time>
      </trkpt>
      <trkpt lat="42.00919" lon="2.73799">
        <ele>117</ele>
        <time>2022-05-21 07:19:07</time>
      </trkpt>
      <trkpt lat="42.00912" lon="2.73798">
        <ele>117.2</ele>
        <time>2022-05-21 07:19:08</time>
      </trkpt>
      <trkpt lat="42.00906" lon="2.73798">
        <ele>117.2</ele>
        <time>2022-05-21 07:19:09</time>
      </trkpt>
      <trkpt lat="42.009" lon="2.73797">
        <ele>117.4</ele>
        <time>2022-05-21 07:19:10</time>
      </trkpt>
      <trkpt lat="42.00895" lon="2.73796">
        <ele>117.4</ele>
        <time>2022-05-21 07:19:11</time>
      </trkpt>
      <trkpt lat="42.00889" lon="2.73795">
        <ele>117.6</ele>
        <time>2022-05-21 07:19:12</time>
      </trkpt>
      <trkpt lat="42.00882" lon="2.73793">
        <ele>117.8</ele>
        <time>2022-05-21 07:19:13</time>
      </trkpt>
      <trkpt lat="42.00876" lon="2.73791">
        <ele>117.8</ele>
        <time>2022-05-21 07:19:14</time>
      </trkpt>
      <trkpt lat="42.0087" lon="2.7379">
        <ele>117.8</ele>
        <time>2022-05-21 07:19:15</time>
      </trkpt>
      <trkpt lat="42.00864" lon="2.73788">
        <ele>117.8</ele>
        <time>2022-05-21 07:19:16</time>
      </trkpt>
      <trkpt lat="42.00858" lon="2.73787">
        <ele>118</ele>
        <time>2022-05-21 07:19:17</time>
      </trkpt>
      <trkpt lat="42.00853" lon="2.73786">
        <ele>118</ele>
        <time>2022-05-21 07:19:18</time>
      </trkpt>
      <trkpt lat="42.00846" lon="2.73784">
        <ele>118.2</ele>
        <time>2022-05-21 07:19:19</time>
      </trkpt>
      <trkpt lat="42.00841" lon="2.73783">
        <ele>118.4</ele>
        <time>2022-05-21 07:19:20</time>
      </trkpt>
      <trkpt lat="42.00835" lon="2.73781">
        <ele>118.4</ele>
        <time>2022-05-21 07:19:21</time>
      </trkpt>
      <trkpt lat="42.00829" lon="2.73779">
        <ele>118.6</ele>
        <time>2022-05-21 07:19:22</time>
      </trkpt>
      <trkpt lat="42.00824" lon="2.73777">
        <ele>118.6</ele>
        <time>2022-05-21 07:19:23</time>
      </trkpt>
      <trkpt lat="42.00818" lon="2.73775">
        <ele>118.6</ele>
        <time>2022-05-21 07:19:24</time>
      </trkpt>
      <trkpt lat="42.00812" lon="2.73773">
        <ele>118.8</ele>
        <time>2022-05-21 07:19:25</time>
      </trkpt>
      <trkpt lat="42.00807" lon="2.73772">
        <ele>119</ele>
        <time>2022-05-21 07:19:26</time>
      </trkpt>
      <trkpt lat="42.00801" lon="2.7377">
        <ele>119.2</ele>
        <time>2022-05-21 07:19:27</time>
      </trkpt>
      <trkpt lat="42.00796" lon="2.73769">
        <ele>119.4</ele>
        <time>2022-05-21 07:19:28</time>
      </trkpt>
      <trkpt lat="42.0079" lon="2.73767">
        <ele>119.6</ele>
        <time>2022-05-21 07:19:29</time>
      </trkpt>
      <trkpt lat="42.00785" lon="2.73767">
        <ele>119.8</ele>
        <time>2022-05-21 07:19:30</time>
      </trkpt>
      <trkpt lat="42.0078" lon="2.73766">
        <ele>120</ele>
        <time>2022-05-21 07:19:31</time>
      </trkpt>
      <trkpt lat="42.00774" lon="2.73765">
        <ele>120.2</ele>
        <time>2022-05-21 07:19:32</time>
      </trkpt>
      <trkpt lat="42.00769" lon="2.73764">
        <ele>120.4</ele>
        <time>2022-05-21 07:19:33</time>
      </trkpt>
      <trkpt lat="42.00763" lon="2.73764">
        <ele>120.6</ele>
        <time>2022-05-21 07:19:34</time>
      </trkpt>
      <trkpt lat="42.00757" lon="2.73763">
        <ele>120.6</ele>
        <time>2022-05-21 07:19:35</time>
      </trkpt>
      <trkpt lat="42.00751" lon="2.73763">
        <ele>120.6</ele>
        <time>2022-05-21 07:19:36</time>
      </trkpt>
      <trkpt lat="42.00745" lon="2.73763">
        <ele>120.8</ele>
        <time>2022-05-21 07:19:37</time>
      </trkpt>
      <trkpt lat="42.00739" lon="2.73763">
        <ele>120.8</ele>
        <time>2022-05-21 07:19:38</time>
      </trkpt>
      <trkpt lat="42.00733" lon="2.73763">
        <ele>120.8</ele>
        <time>2022-05-21 07:19:39</time>
      </trkpt>
      <trkpt lat="42.00726" lon="2.73764">
        <ele>120.8</ele>
        <time>2022-05-21 07:19:40</time>
      </trkpt>
      <trkpt lat="42.0072" lon="2.73764">
        <ele>120.8</ele>
        <time>2022-05-21 07:19:41</time>
      </trkpt>
      <trkpt lat="42.00713" lon="2.73764">
        <ele>120.8</ele>
        <time>2022-05-21 07:19:42</time>
      </trkpt>
      <trkpt lat="42.00706" lon="2.73765">
        <ele>120.6</ele>
        <time>2022-05-21 07:19:43</time>
      </trkpt>
      <trkpt lat="42.00699" lon="2.73765">
        <ele>120.6</ele>
        <time>2022-05-21 07:19:44</time>
      </trkpt>
      <trkpt lat="42.00692" lon="2.73766">
        <ele>120.4</ele>
        <time>2022-05-21 07:19:45</time>
      </trkpt>
      <trkpt lat="42.00684" lon="2.73767">
        <ele>120.2</ele>
        <time>2022-05-21 07:19:46</time>
      </trkpt>
      <trkpt lat="42.00677" lon="2.73768">
        <ele>120.2</ele>
        <time>2022-05-21 07:19:47</time>
      </trkpt>
      <trkpt lat="42.00669" lon="2.73769">
        <ele>120</ele>
        <time>2022-05-21 07:19:48</time>
      </trkpt>
      <trkpt lat="42.00661" lon="2.7377">
        <ele>119.8</ele>
        <time>2022-05-21 07:19:49</time>
      </trkpt>
      <trkpt lat="42.00653" lon="2.73771">
        <ele>119.6</ele>
        <time>2022-05-21 07:19:50</time>
      </trkpt>
      <trkpt lat="42.00645" lon="2.73773">
        <ele>119.4</ele>
        <time>2022-05-21 07:19:51</time>
      </trkpt>
      <trkpt lat="42.00637" lon="2.73774">
        <ele>119.2</ele>
        <time>2022-05-21 07:19:52</time>
      </trkpt>
      <trkpt lat="42.00629" lon="2.73775">
        <ele>119</ele>
        <time>2022-05-21 07:19:53</time>
      </trkpt>
      <trkpt lat="42.0062" lon="2.73776">
        <ele>118.8</ele>
        <time>2022-05-21 07:19:54</time>
      </trkpt>
      <trkpt lat="42.00612" lon="2.73777">
        <ele>118.6</ele>
        <time>2022-05-21 07:19:55</time>
      </trkpt>
      <trkpt lat="42.00603" lon="2.73777">
        <ele>118.4</ele>
        <time>2022-05-21 07:19:56</time>
      </trkpt>
      <trkpt lat="42.00595" lon="2.73778">
        <ele>118.2</ele>
        <time>2022-05-21 07:19:57</time>
      </trkpt>
      <trkpt lat="42.00586" lon="2.73778">
        <ele>118</ele>
        <time>2022-05-21 07:19:58</time>
      </trkpt>
      <trkpt lat="42.00577" lon="2.73779">
        <ele>117.8</ele>
        <time>2022-05-21 07:19:59</time>
      </trkpt>
      <trkpt lat="42.00568" lon="2.73779">
        <ele>117.6</ele>
        <time>2022-05-21 07:20:00</time>
      </trkpt>
      <trkpt lat="42.00559" lon="2.7378">
        <ele>117.4</ele>
        <time>2022-05-21 07:20:01</time>
      </trkpt>
      <trkpt lat="42.0055" lon="2.7378">
        <ele>117.2</ele>
        <time>2022-05-21 07:20:02</time>
      </trkpt>
      <trkpt lat="42.00541" lon="2.73781">
        <ele>117</ele>
        <time>2022-05-21 07:20:03</time>
      </trkpt>
      <trkpt lat="42.00531" lon="2.7378">
        <ele>116.6</ele>
        <time>2022-05-21 07:20:04</time>
      </trkpt>
      <trkpt lat="42.00522" lon="2.7378">
        <ele>116.4</ele>
        <time>2022-05-21 07:20:05</time>
      </trkpt>
      <trkpt lat="42.00513" lon="2.7378">
        <ele>116.2</ele>
        <time>2022-05-21 07:20:06</time>
      </trkpt>
      <trkpt lat="42.00504" lon="2.73781">
        <ele>116</ele>
        <time>2022-05-21 07:20:07</time>
      </trkpt>
      <trkpt lat="42.00494" lon="2.73781">
        <ele>115.8</ele>
        <time>2022-05-21 07:20:08</time>
      </trkpt>
      <trkpt lat="42.00485" lon="2.73782">
        <ele>115.6</ele>
        <time>2022-05-21 07:20:09</time>
      </trkpt>
      <trkpt lat="42.00476" lon="2.73784">
        <ele>115.4</ele>
        <time>2022-05-21 07:20:10</time>
      </trkpt>
      <trkpt lat="42.00466" lon="2.73785">
        <ele>115.2</ele>
        <time>2022-05-21 07:20:11</time>
      </trkpt>
      <trkpt lat="42.00457" lon="2.73786">
        <ele>115</ele>
        <time>2022-05-21 07:20:12</time>
      </trkpt>
      <trkpt lat="42.00448" lon="2.73787">
        <ele>114.8</ele>
        <time>2022-05-21 07:20:13</time>
      </trkpt>
      <trkpt lat="42.00438" lon="2.73787">
        <ele>114.6</ele>
        <time>2022-05-21 07:20:14</time>
      </trkpt>
      <trkpt lat="42.00429" lon="2.73787">
        <ele>114.4</ele>
        <time>2022-05-21 07:20:15</time>
      </trkpt>
      <trkpt lat="42.00419" lon="2.73787">
        <ele>114.2</ele>
        <time>2022-05-21 07:20:16</time>
      </trkpt>
      <trkpt lat="42.0041" lon="2.73787">
        <ele>114</ele>
        <time>2022-05-21 07:20:17</time>
      </trkpt>
      <trkpt lat="42.00401" lon="2.73788">
        <ele>113.8</ele>
        <time>2022-05-21 07:20:18</time>
      </trkpt>
      <trkpt lat="42.00392" lon="2.73789">
        <ele>113.6</ele>
        <time>2022-05-21 07:20:19</time>
      </trkpt>
      <trkpt lat="42.00383" lon="2.7379">
        <ele>113.4</ele>
        <time>2022-05-21 07:20:20</time>
      </trkpt>
      <trkpt lat="42.00374" lon="2.73793">
        <ele>113.2</ele>
        <time>2022-05-21 07:20:21</time>
      </trkpt>
      <trkpt lat="42.00365" lon="2.73796">
        <ele>113.2</ele>
        <time>2022-05-21 07:20:22</time>
      </trkpt>
      <trkpt lat="42.00357" lon="2.73801">
        <ele>113</ele>
        <time>2022-05-21 07:20:23</time>
      </trkpt>
      <trkpt lat="42.00349" lon="2.73808">
        <ele>112.8</ele>
        <time>2022-05-21 07:20:24</time>
      </trkpt>
      <trkpt lat="42.00341" lon="2.73815">
        <ele>112.4</ele>
        <time>2022-05-21 07:20:25</time>
      </trkpt>
      <trkpt lat="42.00332" lon="2.73824">
        <ele>112.2</ele>
        <time>2022-05-21 07:20:26</time>
      </trkpt>
      <trkpt lat="42.00325" lon="2.73834">
        <ele>111.8</ele>
        <time>2022-05-21 07:20:27</time>
      </trkpt>
      <trkpt lat="42.00319" lon="2.73844">
        <ele>111.4</ele>
        <time>2022-05-21 07:20:28</time>
      </trkpt>
      <trkpt lat="42.00311" lon="2.73854">
        <ele>111</ele>
        <time>2022-05-21 07:20:29</time>
      </trkpt>
      <trkpt lat="42.00304" lon="2.73864">
        <ele>110.6</ele>
        <time>2022-05-21 07:20:30</time>
      </trkpt>
      <trkpt lat="42.00296" lon="2.73873">
        <ele>110.2</ele>
        <time>2022-05-21 07:20:31</time>
      </trkpt>
      <trkpt lat="42.00288" lon="2.73883">
        <ele>109.8</ele>
        <time>2022-05-21 07:20:32</time>
      </trkpt>
      <trkpt lat="42.00281" lon="2.73892">
        <ele>109.4</ele>
        <time>2022-05-21 07:20:33</time>
      </trkpt>
      <trkpt lat="42.00273" lon="2.73901">
        <ele>109</ele>
        <time>2022-05-21 07:20:34</time>
      </trkpt>
      <trkpt lat="42.00265" lon="2.7391">
        <ele>108.4</ele>
        <time>2022-05-21 07:20:35</time>
      </trkpt>
      <trkpt lat="42.00257" lon="2.7392">
        <ele>108</ele>
        <time>2022-05-21 07:20:36</time>
      </trkpt>
      <trkpt lat="42.00249" lon="2.7393">
        <ele>107.6</ele>
        <time>2022-05-21 07:20:37</time>
      </trkpt>
      <trkpt lat="42.00241" lon="2.7394">
        <ele>107.2</ele>
        <time>2022-05-21 07:20:38</time>
      </trkpt>
      <trkpt lat="42.00233" lon="2.7395">
        <ele>106.6</ele>
        <time>2022-05-21 07:20:39</time>
      </trkpt>
      <trkpt lat="42.00225" lon="2.73961">
        <ele>106.2</ele>
        <time>2022-05-21 07:20:40</time>
      </trkpt>
      <trkpt lat="42.00217" lon="2.73971">
        <ele>105.8</ele>
        <time>2022-05-21 07:20:41</time>
      </trkpt>
      <trkpt lat="42.00209" lon="2.73981">
        <ele>105.4</ele>
        <time>2022-05-21 07:20:42</time>
      </trkpt>
      <trkpt lat="42.00201" lon="2.73991">
        <ele>104.8</ele>
        <time>2022-05-21 07:20:43</time>
      </trkpt>
      <trkpt lat="42.00193" lon="2.74001">
        <ele>104.4</ele>
        <time>2022-05-21 07:20:44</time>
      </trkpt>
      <trkpt lat="42.00185" lon="2.74011">
        <ele>104.2</ele>
        <time>2022-05-21 07:20:45</time>
      </trkpt>
      <trkpt lat="42.00177" lon="2.74021">
        <ele>103.8</ele>
        <time>2022-05-21 07:20:46</time>
      </trkpt>
      <trkpt lat="42.00169" lon="2.74032">
        <ele>103.4</ele>
        <time>2022-05-21 07:20:47</time>
      </trkpt>
      <trkpt lat="42.00161" lon="2.74042">
        <ele>103.2</ele>
        <time>2022-05-21 07:20:48</time>
      </trkpt>
      <trkpt lat="42.00153" lon="2.74051">
        <ele>103.2</ele>
        <time>2022-05-21 07:20:49</time>
      </trkpt>
      <trkpt lat="42.00145" lon="2.7406">
        <ele>103</ele>
        <time>2022-05-21 07:20:50</time>
      </trkpt>
      <trkpt lat="42.00137" lon="2.74069">
        <ele>103</ele>
        <time>2022-05-21 07:20:51</time>
      </trkpt>
      <trkpt lat="42.0013" lon="2.74079">
        <ele>103</ele>
        <time>2022-05-21 07:20:52</time>
      </trkpt>
      <trkpt lat="42.00123" lon="2.74088">
        <ele>103</ele>
        <time>2022-05-21 07:20:53</time>
      </trkpt>
      <trkpt lat="42.00116" lon="2.74097">
        <ele>103</ele>
        <time>2022-05-21 07:20:54</time>
      </trkpt>
      <trkpt lat="42.0011" lon="2.74105">
        <ele>103</ele>
        <time>2022-05-21 07:20:55</time>
      </trkpt>
      <trkpt lat="42.00104" lon="2.74113">
        <ele>103</ele>
        <time>2022-05-21 07:20:56</time>
      </trkpt>
      <trkpt lat="42.00097" lon="2.74122">
        <ele>103</ele>
        <time>2022-05-21 07:20:57</time>
      </trkpt>
      <trkpt lat="42.00091" lon="2.74131">
        <ele>103</ele>
        <time>2022-05-21 07:20:58</time>
      </trkpt>
      <trkpt lat="42.00084" lon="2.7414">
        <ele>103</ele>
        <time>2022-05-21 07:20:59</time>
      </trkpt>
      <trkpt lat="42.00077" lon="2.74149">
        <ele>103</ele>
        <time>2022-05-21 07:21:00</time>
      </trkpt>
      <trkpt lat="42.0007" lon="2.74157">
        <ele>103</ele>
        <time>2022-05-21 07:21:01</time>
      </trkpt>
      <trkpt lat="42.00063" lon="2.74166">
        <ele>103</ele>
        <time>2022-05-21 07:21:02</time>
      </trkpt>
      <trkpt lat="42.00056" lon="2.74174">
        <ele>103</ele>
        <time>2022-05-21 07:21:03</time>
      </trkpt>
      <trkpt lat="42.00048" lon="2.74182">
        <ele>103</ele>
        <time>2022-05-21 07:21:04</time>
      </trkpt>
      <trkpt lat="42.00042" lon="2.74191">
        <ele>103</ele>
        <time>2022-05-21 07:21:05</time>
      </trkpt>
      <trkpt lat="42.00035" lon="2.742">
        <ele>103.2</ele>
        <time>2022-05-21 07:21:06</time>
      </trkpt>
      <trkpt lat="42.00029" lon="2.74208">
        <ele>103</ele>
        <time>2022-05-21 07:21:07</time>
      </trkpt>
      <trkpt lat="42.00023" lon="2.74217">
        <ele>103</ele>
        <time>2022-05-21 07:21:08</time>
      </trkpt>
      <trkpt lat="42.00016" lon="2.74225">
        <ele>103</ele>
        <time>2022-05-21 07:21:09</time>
      </trkpt>
      <trkpt lat="42.0001" lon="2.74234">
        <ele>103</ele>
        <time>2022-05-21 07:21:10</time>
      </trkpt>
      <trkpt lat="42.00003" lon="2.74242">
        <ele>103</ele>
        <time>2022-05-21 07:21:11</time>
      </trkpt>
      <trkpt lat="41.99997" lon="2.74251">
        <ele>103.2</ele>
        <time>2022-05-21 07:21:12</time>
      </trkpt>
      <trkpt lat="41.9999" lon="2.74259">
        <ele>103.2</ele>
        <time>2022-05-21 07:21:13</time>
      </trkpt>
      <trkpt lat="41.99984" lon="2.74266">
        <ele>103</ele>
        <time>2022-05-21 07:21:14</time>
      </trkpt>
      <trkpt lat="41.99977" lon="2.74275">
        <ele>103</ele>
        <time>2022-05-21 07:21:15</time>
      </trkpt>
      <trkpt lat="41.99971" lon="2.74283">
        <ele>103</ele>
        <time>2022-05-21 07:21:16</time>
      </trkpt>
      <trkpt lat="41.99964" lon="2.74291">
        <ele>103</ele>
        <time>2022-05-21 07:21:17</time>
      </trkpt>
      <trkpt lat="41.99957" lon="2.743">
        <ele>103</ele>
        <time>2022-05-21 07:21:18</time>
      </trkpt>
      <trkpt lat="41.99951" lon="2.74308">
        <ele>103</ele>
        <time>2022-05-21 07:21:19</time>
      </trkpt>
      <trkpt lat="41.99944" lon="2.74316">
        <ele>103</ele>
        <time>2022-05-21 07:21:20</time>
      </trkpt>
      <trkpt lat="41.99938" lon="2.74324">
        <ele>103</ele>
        <time>2022-05-21 07:21:21</time>
      </trkpt>
      <trkpt lat="41.99931" lon="2.74333">
        <ele>103</ele>
        <time>2022-05-21 07:21:22</time>
      </trkpt>
      <trkpt lat="41.99925" lon="2.74341">
        <ele>103</ele>
        <time>2022-05-21 07:21:23</time>
      </trkpt>
      <trkpt lat="41.99918" lon="2.74349">
        <ele>102.8</ele>
        <time>2022-05-21 07:21:24</time>
      </trkpt>
      <trkpt lat="41.99912" lon="2.74357">
        <ele>102.8</ele>
        <time>2022-05-21 07:21:25</time>
      </trkpt>
      <trkpt lat="41.99905" lon="2.74365">
        <ele>102.8</ele>
        <time>2022-05-21 07:21:26</time>
      </trkpt>
      <trkpt lat="41.99899" lon="2.74373">
        <ele>102.8</ele>
        <time>2022-05-21 07:21:27</time>
      </trkpt>
      <trkpt lat="41.99892" lon="2.74382">
        <ele>102.8</ele>
        <time>2022-05-21 07:21:28</time>
      </trkpt>
      <trkpt lat="41.99886" lon="2.7439">
        <ele>103</ele>
        <time>2022-05-21 07:21:29</time>
      </trkpt>
      <trkpt lat="41.9988" lon="2.74398">
        <ele>103</ele>
        <time>2022-05-21 07:21:30</time>
      </trkpt>
      <trkpt lat="41.99874" lon="2.74406">
        <ele>103</ele>
        <time>2022-05-21 07:21:31</time>
      </trkpt>
      <trkpt lat="41.99868" lon="2.74414">
        <ele>103</ele>
        <time>2022-05-21 07:21:32</time>
      </trkpt>
      <trkpt lat="41.99862" lon="2.74422">
        <ele>103</ele>
        <time>2022-05-21 07:21:33</time>
      </trkpt>
      <trkpt lat="41.99855" lon="2.7443">
        <ele>103</ele>
        <time>2022-05-21 07:21:34</time>
      </trkpt>
      <trkpt lat="41.99849" lon="2.74438">
        <ele>103</ele>
        <time>2022-05-21 07:21:35</time>
      </trkpt>
      <trkpt lat="41.99843" lon="2.74446">
        <ele>103</ele>
        <time>2022-05-21 07:21:36</time>
      </trkpt>
      <trkpt lat="41.99837" lon="2.74453">
        <ele>103</ele>
        <time>2022-05-21 07:21:37</time>
      </trkpt>
      <trkpt lat="41.99831" lon="2.74461">
        <ele>103</ele>
        <time>2022-05-21 07:21:38</time>
      </trkpt>
      <trkpt lat="41.99825" lon="2.74469">
        <ele>103</ele>
        <time>2022-05-21 07:21:39</time>
      </trkpt>
      <trkpt lat="41.99818" lon="2.74476">
        <ele>102.8</ele>
        <time>2022-05-21 07:21:40</time>
      </trkpt>
      <trkpt lat="41.99813" lon="2.74484">
        <ele>102.8</ele>
        <time>2022-05-21 07:21:41</time>
      </trkpt>
      <trkpt lat="41.99807" lon="2.74492">
        <ele>102.8</ele>
        <time>2022-05-21 07:21:42</time>
      </trkpt>
      <trkpt lat="41.998" lon="2.74499">
        <ele>102.6</ele>
        <time>2022-05-21 07:21:43</time>
      </trkpt>
      <trkpt lat="41.99794" lon="2.74507">
        <ele>102.6</ele>
        <time>2022-05-21 07:21:44</time>
      </trkpt>
      <trkpt lat="41.99788" lon="2.74515">
        <ele>102.6</ele>
        <time>2022-05-21 07:21:45</time>
      </trkpt>
      <trkpt lat="41.99782" lon="2.74523">
        <ele>102.6</ele>
        <time>2022-05-21 07:21:46</time>
      </trkpt>
      <trkpt lat="41.99776" lon="2.74531">
        <ele>102.6</ele>
        <time>2022-05-21 07:21:47</time>
      </trkpt>
      <trkpt lat="41.9977" lon="2.74539">
        <ele>102.4</ele>
        <time>2022-05-21 07:21:48</time>
      </trkpt>
      <trkpt lat="41.99763" lon="2.74546">
        <ele>102.4</ele>
        <time>2022-05-21 07:21:49</time>
      </trkpt>
      <trkpt lat="41.99757" lon="2.74555">
        <ele>102.2</ele>
        <time>2022-05-21 07:21:50</time>
      </trkpt>
      <trkpt lat="41.99751" lon="2.74563">
        <ele>102.2</ele>
        <time>2022-05-21 07:21:51</time>
      </trkpt>
      <trkpt lat="41.99745" lon="2.74571">
        <ele>102</ele>
        <time>2022-05-21 07:21:52</time>
      </trkpt>
      <trkpt lat="41.99738" lon="2.74579">
        <ele>101.8</ele>
        <time>2022-05-21 07:21:53</time>
      </trkpt>
      <trkpt lat="41.99731" lon="2.74588">
        <ele>101.6</ele>
        <time>2022-05-21 07:21:54</time>
      </trkpt>
      <trkpt lat="41.99725" lon="2.74597">
        <ele>101.2</ele>
        <time>2022-05-21 07:21:55</time>
      </trkpt>
      <trkpt lat="41.99718" lon="2.74605">
        <ele>101</ele>
        <time>2022-05-21 07:21:56</time>
      </trkpt>
      <trkpt lat="41.99711" lon="2.74613">
        <ele>100.8</ele>
        <time>2022-05-21 07:21:57</time>
      </trkpt>
      <trkpt lat="41.99705" lon="2.74622">
        <ele>100.6</ele>
        <time>2022-05-21 07:21:58</time>
      </trkpt>
      <trkpt lat="41.99699" lon="2.7463">
        <ele>100.2</ele>
        <time>2022-05-21 07:21:59</time>
      </trkpt>
      <trkpt lat="41.99692" lon="2.74639">
        <ele>100</ele>
        <time>2022-05-21 07:22:00</time>
      </trkpt>
      <trkpt lat="41.99685" lon="2.74648">
        <ele>99.8</ele>
        <time>2022-05-21 07:22:01</time>
      </trkpt>
      <trkpt lat="41.99679" lon="2.74656">
        <ele>99.6</ele>
        <time>2022-05-21 07:22:02</time>
      </trkpt>
      <trkpt lat="41.99672" lon="2.74664">
        <ele>99.4</ele>
        <time>2022-05-21 07:22:03</time>
      </trkpt>
      <trkpt lat="41.99665" lon="2.74673">
        <ele>99.2</ele>
        <time>2022-05-21 07:22:04</time>
      </trkpt>
      <trkpt lat="41.99659" lon="2.74682">
        <ele>99.2</ele>
        <time>2022-05-21 07:22:05</time>
      </trkpt>
      <trkpt lat="41.99652" lon="2.74691">
        <ele>99</ele>
        <time>2022-05-21 07:22:06</time>
      </trkpt>
      <trkpt lat="41.99645" lon="2.747">
        <ele>98.8</ele>
        <time>2022-05-21 07:22:07</time>
      </trkpt>
      <trkpt lat="41.99639" lon="2.74709">
        <ele>98.8</ele>
        <time>2022-05-21 07:22:08</time>
      </trkpt>
      <trkpt lat="41.99632" lon="2.74717">
        <ele>98.6</ele>
        <time>2022-05-21 07:22:09</time>
      </trkpt>
      <trkpt lat="41.99625" lon="2.74725">
        <ele>98.4</ele>
        <time>2022-05-21 07:22:10</time>
      </trkpt>
      <trkpt lat="41.99619" lon="2.74733">
        <ele>98.4</ele>
        <time>2022-05-21 07:22:11</time>
      </trkpt>
      <trkpt lat="41.99613" lon="2.74741">
        <ele>98.2</ele>
        <time>2022-05-21 07:22:12</time>
      </trkpt>
      <trkpt lat="41.99606" lon="2.74749">
        <ele>98.2</ele>
        <time>2022-05-21 07:22:13</time>
      </trkpt>
      <trkpt lat="41.996" lon="2.74757">
        <ele>98.2</ele>
        <time>2022-05-21 07:22:14</time>
      </trkpt>
      <trkpt lat="41.99594" lon="2.74765">
        <ele>98.2</ele>
        <time>2022-05-21 07:22:15</time>
      </trkpt>
      <trkpt lat="41.99587" lon="2.74773">
        <ele>98</ele>
        <time>2022-05-21 07:22:16</time>
      </trkpt>
      <trkpt lat="41.99581" lon="2.74781">
        <ele>98</ele>
        <time>2022-05-21 07:22:17</time>
      </trkpt>
      <trkpt lat="41.99574" lon="2.7479">
        <ele>97.8</ele>
        <time>2022-05-21 07:22:18</time>
      </trkpt>
      <trkpt lat="41.99567" lon="2.74798">
        <ele>97.8</ele>
        <time>2022-05-21 07:22:19</time>
      </trkpt>
      <trkpt lat="41.99561" lon="2.74806">
        <ele>97.6</ele>
        <time>2022-05-21 07:22:20</time>
      </trkpt>
      <trkpt lat="41.99555" lon="2.74814">
        <ele>97.6</ele>
        <time>2022-05-21 07:22:21</time>
      </trkpt>
      <trkpt lat="41.99549" lon="2.74822">
        <ele>97.4</ele>
        <time>2022-05-21 07:22:22</time>
      </trkpt>
      <trkpt lat="41.99542" lon="2.7483">
        <ele>97.4</ele>
        <time>2022-05-21 07:22:23</time>
      </trkpt>
      <trkpt lat="41.99535" lon="2.74839">
        <ele>97.2</ele>
        <time>2022-05-21 07:22:24</time>
      </trkpt>
      <trkpt lat="41.99529" lon="2.74847">
        <ele>97.2</ele>
        <time>2022-05-21 07:22:25</time>
      </trkpt>
      <trkpt lat="41.99523" lon="2.74855">
        <ele>97.2</ele>
        <time>2022-05-21 07:22:26</time>
      </trkpt>
      <trkpt lat="41.99516" lon="2.74863">
        <ele>97</ele>
        <time>2022-05-21 07:22:27</time>
      </trkpt>
      <trkpt lat="41.9951" lon="2.74871">
        <ele>97</ele>
        <time>2022-05-21 07:22:28</time>
      </trkpt>
      <trkpt lat="41.99503" lon="2.74879">
        <ele>96.8</ele>
        <time>2022-05-21 07:22:29</time>
      </trkpt>
      <trkpt lat="41.99497" lon="2.74887">
        <ele>96.8</ele>
        <time>2022-05-21 07:22:30</time>
      </trkpt>
      <trkpt lat="41.9949" lon="2.74895">
        <ele>96.8</ele>
        <time>2022-05-21 07:22:31</time>
      </trkpt>
      <trkpt lat="41.99484" lon="2.74903">
        <ele>96.8</ele>
        <time>2022-05-21 07:22:32</time>
      </trkpt>
      <trkpt lat="41.99478" lon="2.74911">
        <ele>96.6</ele>
        <time>2022-05-21 07:22:33</time>
      </trkpt>
      <trkpt lat="41.99472" lon="2.7492">
        <ele>96.6</ele>
        <time>2022-05-21 07:22:34</time>
      </trkpt>
      <trkpt lat="41.99466" lon="2.74928">
        <ele>96.6</ele>
        <time>2022-05-21 07:22:35</time>
      </trkpt>
      <trkpt lat="41.99459" lon="2.74936">
        <ele>96.6</ele>
        <time>2022-05-21 07:22:36</time>
      </trkpt>
      <trkpt lat="41.99453" lon="2.74944">
        <ele>96.6</ele>
        <time>2022-05-21 07:22:37</time>
      </trkpt>
      <trkpt lat="41.99447" lon="2.74952">
        <ele>96.6</ele>
        <time>2022-05-21 07:22:38</time>
      </trkpt>
      <trkpt lat="41.99441" lon="2.7496">
        <ele>96.6</ele>
        <time>2022-05-21 07:22:39</time>
      </trkpt>
      <trkpt lat="41.99435" lon="2.74969">
        <ele>96.6</ele>
        <time>2022-05-21 07:22:40</time>
      </trkpt>
      <trkpt lat="41.99428" lon="2.74976">
        <ele>96.4</ele>
        <time>2022-05-21 07:22:41</time>
      </trkpt>
      <trkpt lat="41.99422" lon="2.74984">
        <ele>96.4</ele>
        <time>2022-05-21 07:22:42</time>
      </trkpt>
      <trkpt lat="41.99416" lon="2.74992">
        <ele>96.4</ele>
        <time>2022-05-21 07:22:43</time>
      </trkpt>
      <trkpt lat="41.99409" lon="2.75">
        <ele>96.4</ele>
        <time>2022-05-21 07:22:44</time>
      </trkpt>
      <trkpt lat="41.99403" lon="2.75008">
        <ele>96.4</ele>
        <time>2022-05-21 07:22:45</time>
      </trkpt>
      <trkpt lat="41.99397" lon="2.75016">
        <ele>96.4</ele>
        <time>2022-05-21 07:22:46</time>
      </trkpt>
      <trkpt lat="41.9939" lon="2.75024">
        <ele>96.4</ele>
        <time>2022-05-21 07:22:47</time>
      </trkpt>
      <trkpt lat="41.99384" lon="2.75032">
        <ele>96.4</ele>
        <time>2022-05-21 07:22:48</time>
      </trkpt>
      <trkpt lat="41.99378" lon="2.75039">
        <ele>96.4</ele>
        <time>2022-05-21 07:22:49</time>
      </trkpt>
      <trkpt lat="41.99372" lon="2.75047">
        <ele>96.4</ele>
        <time>2022-05-21 07:22:50</time>
      </trkpt>
      <trkpt lat="41.99366" lon="2.75055">
        <ele>96.4</ele>
        <time>2022-05-21 07:22:51</time>
      </trkpt>
      <trkpt lat="41.99359" lon="2.75062">
        <ele>96.2</ele>
        <time>2022-05-21 07:22:52</time>
      </trkpt>
      <trkpt lat="41.99353" lon="2.7507">
        <ele>96.2</ele>
        <time>2022-05-21 07:22:53</time>
      </trkpt>
      <trkpt lat="41.99347" lon="2.75078">
        <ele>96.2</ele>
        <time>2022-05-21 07:22:54</time>
      </trkpt>
      <trkpt lat="41.99341" lon="2.75086">
        <ele>96.2</ele>
        <time>2022-05-21 07:22:55</time>
      </trkpt>
      <trkpt lat="41.99335" lon="2.75094">
        <ele>96.2</ele>
        <time>2022-05-21 07:22:56</time>
      </trkpt>
      <trkpt lat="41.99329" lon="2.75102">
        <ele>96.2</ele>
        <time>2022-05-21 07:22:57</time>
      </trkpt>
      <trkpt lat="41.99323" lon="2.7511">
        <ele>96</ele>
        <time>2022-05-21 07:22:58</time>
      </trkpt>
      <trkpt lat="41.99316" lon="2.75118">
        <ele>96</ele>
        <time>2022-05-21 07:22:59</time>
      </trkpt>
      <trkpt lat="41.9931" lon="2.75126">
        <ele>95.8</ele>
        <time>2022-05-21 07:23:00</time>
      </trkpt>
      <trkpt lat="41.99303" lon="2.75134">
        <ele>95.8</ele>
        <time>2022-05-21 07:23:01</time>
      </trkpt>
      <trkpt lat="41.99297" lon="2.75143">
        <ele>95.6</ele>
        <time>2022-05-21 07:23:02</time>
      </trkpt>
      <trkpt lat="41.99291" lon="2.75151">
        <ele>95.6</ele>
        <time>2022-05-21 07:23:03</time>
      </trkpt>
      <trkpt lat="41.99284" lon="2.75159">
        <ele>95.4</ele>
        <time>2022-05-21 07:23:04</time>
      </trkpt>
      <trkpt lat="41.99278" lon="2.75167">
        <ele>95.4</ele>
        <time>2022-05-21 07:23:05</time>
      </trkpt>
      <trkpt lat="41.99272" lon="2.75175">
        <ele>95.2</ele>
        <time>2022-05-21 07:23:06</time>
      </trkpt>
      <trkpt lat="41.99265" lon="2.75183">
        <ele>95.2</ele>
        <time>2022-05-21 07:23:07</time>
      </trkpt>
      <trkpt lat="41.99259" lon="2.75192">
        <ele>95</ele>
        <time>2022-05-21 07:23:08</time>
      </trkpt>
      <trkpt lat="41.99253" lon="2.752">
        <ele>95</ele>
        <time>2022-05-21 07:23:09</time>
      </trkpt>
      <trkpt lat="41.99246" lon="2.75208">
        <ele>94.8</ele>
        <time>2022-05-21 07:23:10</time>
      </trkpt>
      <trkpt lat="41.9924" lon="2.75217">
        <ele>94.8</ele>
        <time>2022-05-21 07:23:11</time>
      </trkpt>
      <trkpt lat="41.99233" lon="2.75226">
        <ele>94.6</ele>
        <time>2022-05-21 07:23:12</time>
      </trkpt>
      <trkpt lat="41.99227" lon="2.75234">
        <ele>94.6</ele>
        <time>2022-05-21 07:23:13</time>
      </trkpt>
      <trkpt lat="41.9922" lon="2.75242">
        <ele>94.4</ele>
        <time>2022-05-21 07:23:14</time>
      </trkpt>
      <trkpt lat="41.99214" lon="2.75251">
        <ele>94.2</ele>
        <time>2022-05-21 07:23:15</time>
      </trkpt>
      <trkpt lat="41.99208" lon="2.75259">
        <ele>94.2</ele>
        <time>2022-05-21 07:23:16</time>
      </trkpt>
      <trkpt lat="41.99201" lon="2.75267">
        <ele>94</ele>
        <time>2022-05-21 07:23:17</time>
      </trkpt>
      <trkpt lat="41.99195" lon="2.75276">
        <ele>93.8</ele>
        <time>2022-05-21 07:23:18</time>
      </trkpt>
      <trkpt lat="41.99188" lon="2.75284">
        <ele>93.8</ele>
        <time>2022-05-21 07:23:19</time>
      </trkpt>
      <trkpt lat="41.99181" lon="2.75292">
        <ele>93.6</ele>
        <time>2022-05-21 07:23:20</time>
      </trkpt>
      <trkpt lat="41.99175" lon="2.75299">
        <ele>93.4</ele>
        <time>2022-05-21 07:23:21</time>
      </trkpt>
      <trkpt lat="41.99168" lon="2.75306">
        <ele>93.4</ele>
        <time>2022-05-21 07:23:22</time>
      </trkpt>
      <trkpt lat="41.9916" lon="2.75313">
        <ele>93.2</ele>
        <time>2022-05-21 07:23:23</time>
      </trkpt>
      <trkpt lat="41.99153" lon="2.75321">
        <ele>93</ele>
        <time>2022-05-21 07:23:24</time>
      </trkpt>
      <trkpt lat="41.99147" lon="2.75329">
        <ele>92.8</ele>
        <time>2022-05-21 07:23:25</time>
      </trkpt>
      <trkpt lat="41.99141" lon="2.75338">
        <ele>92.8</ele>
        <time>2022-05-21 07:23:26</time>
      </trkpt>
      <trkpt lat="41.99136" lon="2.75347">
        <ele>92.8</ele>
        <time>2022-05-21 07:23:27</time>
      </trkpt>
      <trkpt lat="41.9913" lon="2.75356">
        <ele>92.6</ele>
        <time>2022-05-21 07:23:28</time>
      </trkpt>
      <trkpt lat="41.99123" lon="2.75364">
        <ele>92.6</ele>
        <time>2022-05-21 07:23:29</time>
      </trkpt>
      <trkpt lat="41.99117" lon="2.75372">
        <ele>92.6</ele>
        <time>2022-05-21 07:23:30</time>
      </trkpt>
      <trkpt lat="41.9911" lon="2.7538">
        <ele>92.4</ele>
        <time>2022-05-21 07:23:31</time>
      </trkpt>
      <trkpt lat="41.99104" lon="2.75388">
        <ele>92.4</ele>
        <time>2022-05-21 07:23:32</time>
      </trkpt>
      <trkpt lat="41.99098" lon="2.75396">
        <ele>92.4</ele>
        <time>2022-05-21 07:23:33</time>
      </trkpt>
      <trkpt lat="41.99092" lon="2.75404">
        <ele>92.2</ele>
        <time>2022-05-21 07:23:34</time>
      </trkpt>
      <trkpt lat="41.99086" lon="2.75414">
        <ele>92.2</ele>
        <time>2022-05-21 07:23:35</time>
      </trkpt>
      <trkpt lat="41.99081" lon="2.75423">
        <ele>92</ele>
        <time>2022-05-21 07:23:36</time>
      </trkpt>
      <trkpt lat="41.99076" lon="2.75434">
        <ele>92</ele>
        <time>2022-05-21 07:23:37</time>
      </trkpt>
      <trkpt lat="41.99073" lon="2.75444">
        <ele>91.8</ele>
        <time>2022-05-21 07:23:38</time>
      </trkpt>
      <trkpt lat="41.9907" lon="2.75456">
        <ele>91.8</ele>
        <time>2022-05-21 07:23:39</time>
      </trkpt>
      <trkpt lat="41.99069" lon="2.75468">
        <ele>91.6</ele>
        <time>2022-05-21 07:23:40</time>
      </trkpt>
      <trkpt lat="41.99068" lon="2.75479">
        <ele>91.6</ele>
        <time>2022-05-21 07:23:41</time>
      </trkpt>
      <trkpt lat="41.99068" lon="2.75491">
        <ele>91.6</ele>
        <time>2022-05-21 07:23:42</time>
      </trkpt>
      <trkpt lat="41.99067" lon="2.75503">
        <ele>91.6</ele>
        <time>2022-05-21 07:23:43</time>
      </trkpt>
      <trkpt lat="41.99067" lon="2.75514">
        <ele>91.6</ele>
        <time>2022-05-21 07:23:44</time>
      </trkpt>
      <trkpt lat="41.99067" lon="2.75525">
        <ele>91.8</ele>
        <time>2022-05-21 07:23:45</time>
      </trkpt>
      <trkpt lat="41.99067" lon="2.75536">
        <ele>91.8</ele>
        <time>2022-05-21 07:23:46</time>
      </trkpt>
      <trkpt lat="41.99067" lon="2.75547">
        <ele>91.8</ele>
        <time>2022-05-21 07:23:47</time>
      </trkpt>
      <trkpt lat="41.99066" lon="2.75557">
        <ele>92</ele>
        <time>2022-05-21 07:23:48</time>
      </trkpt>
      <trkpt lat="41.99066" lon="2.75568">
        <ele>92</ele>
        <time>2022-05-21 07:23:49</time>
      </trkpt>
      <trkpt lat="41.99066" lon="2.75579">
        <ele>92.2</ele>
        <time>2022-05-21 07:23:50</time>
      </trkpt>
      <trkpt lat="41.99066" lon="2.75589">
        <ele>92.4</ele>
        <time>2022-05-21 07:23:51</time>
      </trkpt>
      <trkpt lat="41.99066" lon="2.75599">
        <ele>92.6</ele>
        <time>2022-05-21 07:23:52</time>
      </trkpt>
      <trkpt lat="41.99066" lon="2.75609">
        <ele>92.6</ele>
        <time>2022-05-21 07:23:53</time>
      </trkpt>
      <trkpt lat="41.99066" lon="2.75619">
        <ele>92.8</ele>
        <time>2022-05-21 07:23:54</time>
      </trkpt>
      <trkpt lat="41.99066" lon="2.75629">
        <ele>92.8</ele>
        <time>2022-05-21 07:23:55</time>
      </trkpt>
      <trkpt lat="41.99066" lon="2.75638">
        <ele>93</ele>
        <time>2022-05-21 07:23:56</time>
      </trkpt>
      <trkpt lat="41.99065" lon="2.75648">
        <ele>93</ele>
        <time>2022-05-21 07:23:57</time>
      </trkpt>
      <trkpt lat="41.99065" lon="2.75657">
        <ele>93.2</ele>
        <time>2022-05-21 07:23:58</time>
      </trkpt>
      <trkpt lat="41.99065" lon="2.75667">
        <ele>93.2</ele>
        <time>2022-05-21 07:23:59</time>
      </trkpt>
      <trkpt lat="41.99064" lon="2.75676">
        <ele>93.2</ele>
        <time>2022-05-21 07:24:00</time>
      </trkpt>
      <trkpt lat="41.99064" lon="2.75686">
        <ele>93.2</ele>
        <time>2022-05-21 07:24:01</time>
      </trkpt>
      <trkpt lat="41.99064" lon="2.75695">
        <ele>93.2</ele>
        <time>2022-05-21 07:24:02</time>
      </trkpt>
      <trkpt lat="41.99064" lon="2.75705">
        <ele>93.2</ele>
        <time>2022-05-21 07:24:03</time>
      </trkpt>
      <trkpt lat="41.99064" lon="2.75715">
        <ele>93.2</ele>
        <time>2022-05-21 07:24:04</time>
      </trkpt>
      <trkpt lat="41.99063" lon="2.75724">
        <ele>93.2</ele>
        <time>2022-05-21 07:24:05</time>
      </trkpt>
      <trkpt lat="41.99063" lon="2.75734">
        <ele>93.2</ele>
        <time>2022-05-21 07:24:06</time>
      </trkpt>
      <trkpt lat="41.99063" lon="2.75744">
        <ele>93.2</ele>
        <time>2022-05-21 07:24:07</time>
      </trkpt>
      <trkpt lat="41.99062" lon="2.75754">
        <ele>93.2</ele>
        <time>2022-05-21 07:24:08</time>
      </trkpt>
      <trkpt lat="41.99062" lon="2.75764">
        <ele>93</ele>
        <time>2022-05-21 07:24:09</time>
      </trkpt>
      <trkpt lat="41.99062" lon="2.75774">
        <ele>93</ele>
        <time>2022-05-21 07:24:10</time>
      </trkpt>
      <trkpt lat="41.99062" lon="2.75785">
        <ele>93</ele>
        <time>2022-05-21 07:24:11</time>
      </trkpt>
      <trkpt lat="41.99062" lon="2.75795">
        <ele>92.8</ele>
        <time>2022-05-21 07:24:12</time>
      </trkpt>
      <trkpt lat="41.99062" lon="2.75805">
        <ele>92.8</ele>
        <time>2022-05-21 07:24:13</time>
      </trkpt>
      <trkpt lat="41.99062" lon="2.75815">
        <ele>92.8</ele>
        <time>2022-05-21 07:24:14</time>
      </trkpt>
      <trkpt lat="41.99062" lon="2.75825">
        <ele>92.8</ele>
        <time>2022-05-21 07:24:15</time>
      </trkpt>
      <trkpt lat="41.99062" lon="2.75835">
        <ele>92.8</ele>
        <time>2022-05-21 07:24:16</time>
      </trkpt>
      <trkpt lat="41.99062" lon="2.75845">
        <ele>92.8</ele>
        <time>2022-05-21 07:24:17</time>
      </trkpt>
      <trkpt lat="41.99061" lon="2.75855">
        <ele>92.6</ele>
        <time>2022-05-21 07:24:18</time>
      </trkpt>
      <trkpt lat="41.9906" lon="2.75866">
        <ele>92.6</ele>
        <time>2022-05-21 07:24:19</time>
      </trkpt>
      <trkpt lat="41.9906" lon="2.75876">
        <ele>92.6</ele>
        <time>2022-05-21 07:24:20</time>
      </trkpt>
      <trkpt lat="41.9906" lon="2.75886">
        <ele>92.6</ele>
        <time>2022-05-21 07:24:21</time>
      </trkpt>
      <trkpt lat="41.99059" lon="2.75897">
        <ele>92.6</ele>
        <time>2022-05-21 07:24:22</time>
      </trkpt>
      <trkpt lat="41.99059" lon="2.75907">
        <ele>92.6</ele>
        <time>2022-05-21 07:24:23</time>
      </trkpt>
      <trkpt lat="41.99059" lon="2.75917">
        <ele>92.6</ele>
        <time>2022-05-21 07:24:24</time>
      </trkpt>
      <trkpt lat="41.99059" lon="2.75927">
        <ele>92.6</ele>
        <time>2022-05-21 07:24:25</time>
      </trkpt>
      <trkpt lat="41.99059" lon="2.75938">
        <ele>92.6</ele>
        <time>2022-05-21 07:24:26</time>
      </trkpt>
      <trkpt lat="41.99058" lon="2.75948">
        <ele>92.6</ele>
        <time>2022-05-21 07:24:27</time>
      </trkpt>
      <trkpt lat="41.99058" lon="2.75958">
        <ele>92.6</ele>
        <time>2022-05-21 07:24:28</time>
      </trkpt>
      <trkpt lat="41.99058" lon="2.75968">
        <ele>92.4</ele>
        <time>2022-05-21 07:24:29</time>
      </trkpt>
      <trkpt lat="41.99058" lon="2.75978">
        <ele>92.6</ele>
        <time>2022-05-21 07:24:30</time>
      </trkpt>
      <trkpt lat="41.99058" lon="2.75988">
        <ele>92.6</ele>
        <time>2022-05-21 07:24:31</time>
      </trkpt>
      <trkpt lat="41.99057" lon="2.75997">
        <ele>92.6</ele>
        <time>2022-05-21 07:24:32</time>
      </trkpt>
      <trkpt lat="41.99057" lon="2.76006">
        <ele>92.6</ele>
        <time>2022-05-21 07:24:33</time>
      </trkpt>
      <trkpt lat="41.99057" lon="2.76015">
        <ele>92.6</ele>
        <time>2022-05-21 07:24:34</time>
      </trkpt>
      <trkpt lat="41.99057" lon="2.76024">
        <ele>92.6</ele>
        <time>2022-05-21 07:24:35</time>
      </trkpt>
      <trkpt lat="41.99057" lon="2.76033">
        <ele>92.6</ele>
        <time>2022-05-21 07:24:36</time>
      </trkpt>
      <trkpt lat="41.99057" lon="2.76042">
        <ele>92.6</ele>
        <time>2022-05-21 07:24:37</time>
      </trkpt>
      <trkpt lat="41.99057" lon="2.76049">
        <ele>92.8</ele>
        <time>2022-05-21 07:24:38</time>
      </trkpt>
      <trkpt lat="41.99056" lon="2.76054">
        <ele>92.8</ele>
        <time>2022-05-21 07:24:39</time>
      </trkpt>
      <trkpt lat="41.99056" lon="2.76057">
        <ele>93</ele>
        <time>2022-05-21 07:24:40</time>
      </trkpt>
      <trkpt lat="41.99056" lon="2.7606">
        <ele>93</ele>
        <time>2022-05-21 07:24:41</time>
      </trkpt>
      <trkpt lat="41.99055" lon="2.76063">
        <ele>93</ele>
        <time>2022-05-21 07:24:42</time>
      </trkpt>
      <trkpt lat="41.99055" lon="2.76066">
        <ele>93</ele>
        <time>2022-05-21 07:24:43</time>
      </trkpt>
      <trkpt lat="41.99055" lon="2.76071">
        <ele>93</ele>
        <time>2022-05-21 07:24:44</time>
      </trkpt>
      <trkpt lat="41.99055" lon="2.76076">
        <ele>93</ele>
        <time>2022-05-21 07:24:45</time>
      </trkpt>
      <trkpt lat="41.99055" lon="2.76082">
        <ele>93</ele>
        <time>2022-05-21 07:24:46</time>
      </trkpt>
      <trkpt lat="41.99055" lon="2.76089">
        <ele>93</ele>
        <time>2022-05-21 07:24:47</time>
      </trkpt>
      <trkpt lat="41.99054" lon="2.76095">
        <ele>93</ele>
        <time>2022-05-21 07:24:48</time>
      </trkpt>
      <trkpt lat="41.99054" lon="2.76102">
        <ele>93</ele>
        <time>2022-05-21 07:24:49</time>
      </trkpt>
      <trkpt lat="41.99054" lon="2.76109">
        <ele>93</ele>
        <time>2022-05-21 07:24:50</time>
      </trkpt>
      <trkpt lat="41.99054" lon="2.76116">
        <ele>92.8</ele>
        <time>2022-05-21 07:24:51</time>
      </trkpt>
      <trkpt lat="41.99053" lon="2.76124">
        <ele>92.8</ele>
        <time>2022-05-21 07:24:52</time>
      </trkpt>
      <trkpt lat="41.99053" lon="2.76133">
        <ele>92.8</ele>
        <time>2022-05-21 07:24:53</time>
      </trkpt>
      <trkpt lat="41.99052" lon="2.76141">
        <ele>92.6</ele>
        <time>2022-05-21 07:24:54</time>
      </trkpt>
      <trkpt lat="41.99052" lon="2.7615">
        <ele>92.6</ele>
        <time>2022-05-21 07:24:55</time>
      </trkpt>
      <trkpt lat="41.99052" lon="2.76158">
        <ele>92.4</ele>
        <time>2022-05-21 07:24:56</time>
      </trkpt>
      <trkpt lat="41.99051" lon="2.76167">
        <ele>92.4</ele>
        <time>2022-05-21 07:24:57</time>
      </trkpt>
      <trkpt lat="41.99051" lon="2.76176">
        <ele>92.4</ele>
        <time>2022-05-21 07:24:58</time>
      </trkpt>
      <trkpt lat="41.99051" lon="2.76186">
        <ele>92.4</ele>
        <time>2022-05-21 07:24:59</time>
      </trkpt>
      <trkpt lat="41.99051" lon="2.76195">
        <ele>92.4</ele>
        <time>2022-05-21 07:25:00</time>
      </trkpt>
      <trkpt lat="41.99051" lon="2.76205">
        <ele>92.4</ele>
        <time>2022-05-21 07:25:01</time>
      </trkpt>
      <trkpt lat="41.99051" lon="2.76214">
        <ele>92.4</ele>
        <time>2022-05-21 07:25:02</time>
      </trkpt>
      <trkpt lat="41.9905" lon="2.76224">
        <ele>92.2</ele>
        <time>2022-05-21 07:25:03</time>
      </trkpt>
      <trkpt lat="41.9905" lon="2.76233">
        <ele>92.2</ele>
        <time>2022-05-21 07:25:04</time>
      </trkpt>
      <trkpt lat="41.99049" lon="2.76243">
        <ele>92.4</ele>
        <time>2022-05-21 07:25:05</time>
      </trkpt>
      <trkpt lat="41.99049" lon="2.76252">
        <ele>92.2</ele>
        <time>2022-05-21 07:25:06</time>
      </trkpt>
      <trkpt lat="41.99049" lon="2.76262">
        <ele>92.2</ele>
        <time>2022-05-21 07:25:07</time>
      </trkpt>
      <trkpt lat="41.99049" lon="2.76271">
        <ele>92.2</ele>
        <time>2022-05-21 07:25:08</time>
      </trkpt>
      <trkpt lat="41.99049" lon="2.76281">
        <ele>92.2</ele>
        <time>2022-05-21 07:25:09</time>
      </trkpt>
      <trkpt lat="41.99048" lon="2.7629">
        <ele>92.2</ele>
        <time>2022-05-21 07:25:10</time>
      </trkpt>
      <trkpt lat="41.99048" lon="2.763">
        <ele>92.2</ele>
        <time>2022-05-21 07:25:11</time>
      </trkpt>
      <trkpt lat="41.99047" lon="2.7631">
        <ele>92.2</ele>
        <time>2022-05-21 07:25:12</time>
      </trkpt>
      <trkpt lat="41.99047" lon="2.7632">
        <ele>92.2</ele>
        <time>2022-05-21 07:25:13</time>
      </trkpt>
      <trkpt lat="41.99047" lon="2.7633">
        <ele>92.2</ele>
        <time>2022-05-21 07:25:14</time>
      </trkpt>
      <trkpt lat="41.99046" lon="2.76341">
        <ele>92</ele>
        <time>2022-05-21 07:25:15</time>
      </trkpt>
      <trkpt lat="41.99046" lon="2.76351">
        <ele>91.8</ele>
        <time>2022-05-21 07:25:16</time>
      </trkpt>
      <trkpt lat="41.99046" lon="2.76362">
        <ele>91.8</ele>
        <time>2022-05-21 07:25:17</time>
      </trkpt>
      <trkpt lat="41.99046" lon="2.76372">
        <ele>91.6</ele>
        <time>2022-05-21 07:25:18</time>
      </trkpt>
      <trkpt lat="41.99046" lon="2.76383">
        <ele>91.6</ele>
        <time>2022-05-21 07:25:19</time>
      </trkpt>
      <trkpt lat="41.99045" lon="2.76394">
        <ele>91.4</ele>
        <time>2022-05-21 07:25:20</time>
      </trkpt>
      <trkpt lat="41.99045" lon="2.76404">
        <ele>91.2</ele>
        <time>2022-05-21 07:25:21</time>
      </trkpt>
      <trkpt lat="41.99044" lon="2.76415">
        <ele>91.2</ele>
        <time>2022-05-21 07:25:22</time>
      </trkpt>
      <trkpt lat="41.99044" lon="2.76426">
        <ele>91</ele>
        <time>2022-05-21 07:25:23</time>
      </trkpt>
      <trkpt lat="41.99044" lon="2.76437">
        <ele>90.8</ele>
        <time>2022-05-21 07:25:24</time>
      </trkpt>
      <trkpt lat="41.99044" lon="2.76448">
        <ele>90.6</ele>
        <time>2022-05-21 07:25:25</time>
      </trkpt>
      <trkpt lat="41.99044" lon="2.76459">
        <ele>90.4</ele>
        <time>2022-05-21 07:25:26</time>
      </trkpt>
      <trkpt lat="41.99043" lon="2.7647">
        <ele>90.4</ele>
        <time>2022-05-21 07:25:27</time>
      </trkpt>
      <trkpt lat="41.99043" lon="2.76482">
        <ele>90.2</ele>
        <time>2022-05-21 07:25:28</time>
      </trkpt>
      <trkpt lat="41.99042" lon="2.76493">
        <ele>90</ele>
        <time>2022-05-21 07:25:29</time>
      </trkpt>
      <trkpt lat="41.99042" lon="2.76504">
        <ele>89.8</ele>
        <time>2022-05-21 07:25:30</time>
      </trkpt>
      <trkpt lat="41.99041" lon="2.76515">
        <ele>89.6</ele>
        <time>2022-05-21 07:25:31</time>
      </trkpt>
      <trkpt lat="41.99041" lon="2.76526">
        <ele>89.6</ele>
        <time>2022-05-21 07:25:32</time>
      </trkpt>
      <trkpt lat="41.99041" lon="2.76538">
        <ele>89.4</ele>
        <time>2022-05-21 07:25:33</time>
      </trkpt>
      <trkpt lat="41.99041" lon="2.76549">
        <ele>89.2</ele>
        <time>2022-05-21 07:25:34</time>
      </trkpt>
      <trkpt lat="41.99041" lon="2.7656">
        <ele>89</ele>
        <time>2022-05-21 07:25:35</time>
      </trkpt>
      <trkpt lat="41.99041" lon="2.76572">
        <ele>88.8</ele>
        <time>2022-05-21 07:25:36</time>
      </trkpt>
      <trkpt lat="41.9904" lon="2.76583">
        <ele>88.6</ele>
        <time>2022-05-21 07:25:37</time>
      </trkpt>
      <trkpt lat="41.99039" lon="2.76594">
        <ele>88.6</ele>
        <time>2022-05-21 07:25:38</time>
      </trkpt>
      <trkpt lat="41.99037" lon="2.76605">
        <ele>88.4</ele>
        <time>2022-05-21 07:25:39</time>
      </trkpt>
      <trkpt lat="41.99034" lon="2.76616">
        <ele>88.2</ele>
        <time>2022-05-21 07:25:40</time>
      </trkpt>
      <trkpt lat="41.9903" lon="2.76625">
        <ele>88.2</ele>
        <time>2022-05-21 07:25:41</time>
      </trkpt>
      <trkpt lat="41.99026" lon="2.76635">
        <ele>88.2</ele>
        <time>2022-05-21 07:25:42</time>
      </trkpt>
      <trkpt lat="41.99023" lon="2.76643">
        <ele>88.2</ele>
        <time>2022-05-21 07:25:43</time>
      </trkpt>
      <trkpt lat="41.99022" lon="2.76651">
        <ele>88.2</ele>
        <time>2022-05-21 07:25:44</time>
      </trkpt>
      <trkpt lat="41.99022" lon="2.76663">
        <ele>88.2</ele>
        <time>2022-05-21 07:25:45</time>
      </trkpt>
      <trkpt lat="41.99023" lon="2.76674">
        <ele>88</ele>
        <time>2022-05-21 07:25:46</time>
      </trkpt>
      <trkpt lat="41.99026" lon="2.76685">
        <ele>88</ele>
        <time>2022-05-21 07:25:47</time>
      </trkpt>
      <trkpt lat="41.9903" lon="2.76695">
        <ele>87.8</ele>
        <time>2022-05-21 07:25:48</time>
      </trkpt>
      <trkpt lat="41.99033" lon="2.76705">
        <ele>87.6</ele>
        <time>2022-05-21 07:25:49</time>
      </trkpt>
      <trkpt lat="41.99035" lon="2.76715">
        <ele>87.4</ele>
        <time>2022-05-21 07:25:50</time>
      </trkpt>
      <trkpt lat="41.99036" lon="2.76726">
        <ele>87.4</ele>
        <time>2022-05-21 07:25:51</time>
      </trkpt>
      <trkpt lat="41.99037" lon="2.76736">
        <ele>87.2</ele>
        <time>2022-05-21 07:25:52</time>
      </trkpt>
      <trkpt lat="41.99037" lon="2.76746">
        <ele>87.2</ele>
        <time>2022-05-21 07:25:53</time>
      </trkpt>
      <trkpt lat="41.99037" lon="2.76757">
        <ele>87</ele>
        <time>2022-05-21 07:25:54</time>
      </trkpt>
      <trkpt lat="41.99036" lon="2.76768">
        <ele>87</ele>
        <time>2022-05-21 07:25:55</time>
      </trkpt>
      <trkpt lat="41.99036" lon="2.76779">
        <ele>86.8</ele>
        <time>2022-05-21 07:25:56</time>
      </trkpt>
      <trkpt lat="41.99035" lon="2.7679">
        <ele>86.8</ele>
        <time>2022-05-21 07:25:57</time>
      </trkpt>
      <trkpt lat="41.99034" lon="2.76801">
        <ele>86.8</ele>
        <time>2022-05-21 07:25:58</time>
      </trkpt>
      <trkpt lat="41.99034" lon="2.76812">
        <ele>86.6</ele>
        <time>2022-05-21 07:25:59</time>
      </trkpt>
      <trkpt lat="41.99034" lon="2.76822">
        <ele>86.6</ele>
        <time>2022-05-21 07:26:00</time>
      </trkpt>
      <trkpt lat="41.99034" lon="2.76833">
        <ele>86.4</ele>
        <time>2022-05-21 07:26:01</time>
      </trkpt>
      <trkpt lat="41.99034" lon="2.76844">
        <ele>86.4</ele>
        <time>2022-05-21 07:26:02</time>
      </trkpt>
      <trkpt lat="41.99033" lon="2.76854">
        <ele>86.4</ele>
        <time>2022-05-21 07:26:03</time>
      </trkpt>
      <trkpt lat="41.99033" lon="2.76866">
        <ele>86.4</ele>
        <time>2022-05-21 07:26:04</time>
      </trkpt>
      <trkpt lat="41.99033" lon="2.76876">
        <ele>86.4</ele>
        <time>2022-05-21 07:26:05</time>
      </trkpt>
      <trkpt lat="41.99032" lon="2.76887">
        <ele>86.4</ele>
        <time>2022-05-21 07:26:06</time>
      </trkpt>
      <trkpt lat="41.99032" lon="2.76898">
        <ele>86.4</ele>
        <time>2022-05-21 07:26:07</time>
      </trkpt>
      <trkpt lat="41.99031" lon="2.76909">
        <ele>86.4</ele>
        <time>2022-05-21 07:26:08</time>
      </trkpt>
      <trkpt lat="41.99031" lon="2.76919">
        <ele>86.4</ele>
        <time>2022-05-21 07:26:09</time>
      </trkpt>
      <trkpt lat="41.99031" lon="2.7693">
        <ele>86.4</ele>
        <time>2022-05-21 07:26:10</time>
      </trkpt>
      <trkpt lat="41.9903" lon="2.76941">
        <ele>86.2</ele>
        <time>2022-05-21 07:26:11</time>
      </trkpt>
      <trkpt lat="41.9903" lon="2.76952">
        <ele>86.2</ele>
        <time>2022-05-21 07:26:12</time>
      </trkpt>
      <trkpt lat="41.99029" lon="2.76963">
        <ele>86.2</ele>
        <time>2022-05-21 07:26:13</time>
      </trkpt>
      <trkpt lat="41.99029" lon="2.76974">
        <ele>86.2</ele>
        <time>2022-05-21 07:26:14</time>
      </trkpt>
      <trkpt lat="41.99028" lon="2.76985">
        <ele>86.2</ele>
        <time>2022-05-21 07:26:15</time>
      </trkpt>
      <trkpt lat="41.99028" lon="2.76996">
        <ele>86</ele>
        <time>2022-05-21 07:26:16</time>
      </trkpt>
      <trkpt lat="41.99028" lon="2.77007">
        <ele>86</ele>
        <time>2022-05-21 07:26:17</time>
      </trkpt>
      <trkpt lat="41.99028" lon="2.77018">
        <ele>86</ele>
        <time>2022-05-21 07:26:18</time>
      </trkpt>
      <trkpt lat="41.99028" lon="2.77029">
        <ele>86</ele>
        <time>2022-05-21 07:26:19</time>
      </trkpt>
      <trkpt lat="41.99028" lon="2.7704">
        <ele>86</ele>
        <time>2022-05-21 07:26:20</time>
      </trkpt>
      <trkpt lat="41.99028" lon="2.77051">
        <ele>86</ele>
        <time>2022-05-21 07:26:21</time>
      </trkpt>
      <trkpt lat="41.99027" lon="2.77062">
        <ele>85.8</ele>
        <time>2022-05-21 07:26:22</time>
      </trkpt>
      <trkpt lat="41.99027" lon="2.77073">
        <ele>85.8</ele>
        <time>2022-05-21 07:26:23</time>
      </trkpt>
      <trkpt lat="41.99026" lon="2.77084">
        <ele>85.8</ele>
        <time>2022-05-21 07:26:24</time>
      </trkpt>
      <trkpt lat="41.99026" lon="2.77095">
        <ele>85.8</ele>
        <time>2022-05-21 07:26:25</time>
      </trkpt>
      <trkpt lat="41.99026" lon="2.77106">
        <ele>85.6</ele>
        <time>2022-05-21 07:26:26</time>
      </trkpt>
      <trkpt lat="41.99026" lon="2.77117">
        <ele>85.6</ele>
        <time>2022-05-21 07:26:27</time>
      </trkpt>
      <trkpt lat="41.99025" lon="2.77128">
        <ele>85.6</ele>
        <time>2022-05-21 07:26:28</time>
      </trkpt>
      <trkpt lat="41.99025" lon="2.77138">
        <ele>85.6</ele>
        <time>2022-05-21 07:26:29</time>
      </trkpt>
      <trkpt lat="41.99025" lon="2.77149">
        <ele>85.4</ele>
        <time>2022-05-21 07:26:30</time>
      </trkpt>
      <trkpt lat="41.99025" lon="2.7716">
        <ele>85.4</ele>
        <time>2022-05-21 07:26:31</time>
      </trkpt>
      <trkpt lat="41.99025" lon="2.77171">
        <ele>85.4</ele>
        <time>2022-05-21 07:26:32</time>
      </trkpt>
      <trkpt lat="41.99024" lon="2.77182">
        <ele>85.4</ele>
        <time>2022-05-21 07:26:33</time>
      </trkpt>
      <trkpt lat="41.99024" lon="2.77192">
        <ele>85.4</ele>
        <time>2022-05-21 07:26:34</time>
      </trkpt>
      <trkpt lat="41.99024" lon="2.77203">
        <ele>85.2</ele>
        <time>2022-05-21 07:26:35</time>
      </trkpt>
      <trkpt lat="41.99023" lon="2.77214">
        <ele>85.2</ele>
        <time>2022-05-21 07:26:36</time>
      </trkpt>
      <trkpt lat="41.99023" lon="2.77225">
        <ele>85.2</ele>
        <time>2022-05-21 07:26:37</time>
      </trkpt>
      <trkpt lat="41.99023" lon="2.77236">
        <ele>85.2</ele>
        <time>2022-05-21 07:26:38</time>
      </trkpt>
      <trkpt lat="41.99023" lon="2.77247">
        <ele>85.2</ele>
        <time>2022-05-21 07:26:39</time>
      </trkpt>
      <trkpt lat="41.99023" lon="2.77258">
        <ele>85</ele>
        <time>2022-05-21 07:26:40</time>
      </trkpt>
      <trkpt lat="41.99022" lon="2.77269">
        <ele>85</ele>
        <time>2022-05-21 07:26:41</time>
      </trkpt>
      <trkpt lat="41.99022" lon="2.7728">
        <ele>85</ele>
        <time>2022-05-21 07:26:42</time>
      </trkpt>
      <trkpt lat="41.99022" lon="2.77291">
        <ele>84.8</ele>
        <time>2022-05-21 07:26:43</time>
      </trkpt>
      <trkpt lat="41.99022" lon="2.77301">
        <ele>84.8</ele>
        <time>2022-05-21 07:26:44</time>
      </trkpt>
      <trkpt lat="41.99021" lon="2.77312">
        <ele>84.8</ele>
        <time>2022-05-21 07:26:45</time>
      </trkpt>
      <trkpt lat="41.99021" lon="2.77324">
        <ele>84.6</ele>
        <time>2022-05-21 07:26:46</time>
      </trkpt>
      <trkpt lat="41.9902" lon="2.77334">
        <ele>84.6</ele>
        <time>2022-05-21 07:26:47</time>
      </trkpt>
      <trkpt lat="41.9902" lon="2.77345">
        <ele>84.6</ele>
        <time>2022-05-21 07:26:48</time>
      </trkpt>
      <trkpt lat="41.9902" lon="2.77355">
        <ele>84.6</ele>
        <time>2022-05-21 07:26:49</time>
      </trkpt>
      <trkpt lat="41.99019" lon="2.77366">
        <ele>84.4</ele>
        <time>2022-05-21 07:26:50</time>
      </trkpt>
      <trkpt lat="41.99018" lon="2.77376">
        <ele>84.4</ele>
        <time>2022-05-21 07:26:51</time>
      </trkpt>
      <trkpt lat="41.99016" lon="2.77386">
        <ele>84.4</ele>
        <time>2022-05-21 07:26:52</time>
      </trkpt>
      <trkpt lat="41.99014" lon="2.77395">
        <ele>84.4</ele>
        <time>2022-05-21 07:26:53</time>
      </trkpt>
      <trkpt lat="41.9901" lon="2.77405">
        <ele>84.4</ele>
        <time>2022-05-21 07:26:54</time>
      </trkpt>
      <trkpt lat="41.99009" lon="2.77414">
        <ele>84.4</ele>
        <time>2022-05-21 07:26:55</time>
      </trkpt>
      <trkpt lat="41.99009" lon="2.77424">
        <ele>84.4</ele>
        <time>2022-05-21 07:26:56</time>
      </trkpt>
      <trkpt lat="41.99011" lon="2.77434">
        <ele>84.4</ele>
        <time>2022-05-21 07:26:57</time>
      </trkpt>
      <trkpt lat="41.99014" lon="2.77444">
        <ele>84.4</ele>
        <time>2022-05-21 07:26:58</time>
      </trkpt>
      <trkpt lat="41.99017" lon="2.77454">
        <ele>84.2</ele>
        <time>2022-05-21 07:26:59</time>
      </trkpt>
      <trkpt lat="41.99018" lon="2.77465">
        <ele>84.2</ele>
        <time>2022-05-21 07:27:00</time>
      </trkpt>
      <trkpt lat="41.99018" lon="2.77477">
        <ele>84.2</ele>
        <time>2022-05-21 07:27:01</time>
      </trkpt>
      <trkpt lat="41.99018" lon="2.77488">
        <ele>84.2</ele>
        <time>2022-05-21 07:27:02</time>
      </trkpt>
      <trkpt lat="41.99017" lon="2.77499">
        <ele>84</ele>
        <time>2022-05-21 07:27:03</time>
      </trkpt>
      <trkpt lat="41.99016" lon="2.7751">
        <ele>84</ele>
        <time>2022-05-21 07:27:04</time>
      </trkpt>
      <trkpt lat="41.99015" lon="2.77521">
        <ele>84</ele>
        <time>2022-05-21 07:27:05</time>
      </trkpt>
      <trkpt lat="41.99015" lon="2.77532">
        <ele>84</ele>
        <time>2022-05-21 07:27:06</time>
      </trkpt>
      <trkpt lat="41.99015" lon="2.77543">
        <ele>83.8</ele>
        <time>2022-05-21 07:27:07</time>
      </trkpt>
      <trkpt lat="41.99015" lon="2.77555">
        <ele>83.8</ele>
        <time>2022-05-21 07:27:08</time>
      </trkpt>
      <trkpt lat="41.99014" lon="2.77566">
        <ele>83.8</ele>
        <time>2022-05-21 07:27:09</time>
      </trkpt>
      <trkpt lat="41.99014" lon="2.77577">
        <ele>83.6</ele>
        <time>2022-05-21 07:27:10</time>
      </trkpt>
      <trkpt lat="41.99013" lon="2.77587">
        <ele>83.6</ele>
        <time>2022-05-21 07:27:11</time>
      </trkpt>
      <trkpt lat="41.99013" lon="2.77598">
        <ele>83.4</ele>
        <time>2022-05-21 07:27:12</time>
      </trkpt>
      <trkpt lat="41.99012" lon="2.7761">
        <ele>83.4</ele>
        <time>2022-05-21 07:27:13</time>
      </trkpt>
      <trkpt lat="41.99012" lon="2.77621">
        <ele>83.4</ele>
        <time>2022-05-21 07:27:14</time>
      </trkpt>
      <trkpt lat="41.99012" lon="2.77632">
        <ele>83.4</ele>
        <time>2022-05-21 07:27:15</time>
      </trkpt>
      <trkpt lat="41.99011" lon="2.77643">
        <ele>83.2</ele>
        <time>2022-05-21 07:27:16</time>
      </trkpt>
      <trkpt lat="41.99011" lon="2.77654">
        <ele>83.2</ele>
        <time>2022-05-21 07:27:17</time>
      </trkpt>
      <trkpt lat="41.9901" lon="2.77665">
        <ele>83</ele>
        <time>2022-05-21 07:27:18</time>
      </trkpt>
      <trkpt lat="41.9901" lon="2.77676">
        <ele>83</ele>
        <time>2022-05-21 07:27:19</time>
      </trkpt>
      <trkpt lat="41.9901" lon="2.77687">
        <ele>82.8</ele>
        <time>2022-05-21 07:27:20</time>
      </trkpt>
      <trkpt lat="41.99009" lon="2.77698">
        <ele>82.8</ele>
        <time>2022-05-21 07:27:21</time>
      </trkpt>
      <trkpt lat="41.99009" lon="2.77709">
        <ele>82.8</ele>
        <time>2022-05-21 07:27:22</time>
      </trkpt>
      <trkpt lat="41.99009" lon="2.7772">
        <ele>82.8</ele>
        <time>2022-05-21 07:27:23</time>
      </trkpt>
      <trkpt lat="41.99009" lon="2.77731">
        <ele>82.6</ele>
        <time>2022-05-21 07:27:24</time>
      </trkpt>
      <trkpt lat="41.99008" lon="2.77741">
        <ele>82.6</ele>
        <time>2022-05-21 07:27:25</time>
      </trkpt>
      <trkpt lat="41.99008" lon="2.77752">
        <ele>82.6</ele>
        <time>2022-05-21 07:27:26</time>
      </trkpt>
      <trkpt lat="41.99007" lon="2.77763">
        <ele>82.6</ele>
        <time>2022-05-21 07:27:27</time>
      </trkpt>
      <trkpt lat="41.99007" lon="2.77774">
        <ele>82.6</ele>
        <time>2022-05-21 07:27:28</time>
      </trkpt>
      <trkpt lat="41.99007" lon="2.77785">
        <ele>82.6</ele>
        <time>2022-05-21 07:27:29</time>
      </trkpt>
      <trkpt lat="41.99007" lon="2.77797">
        <ele>82.4</ele>
        <time>2022-05-21 07:27:30</time>
      </trkpt>
      <trkpt lat="41.99006" lon="2.77808">
        <ele>82.4</ele>
        <time>2022-05-21 07:27:31</time>
      </trkpt>
      <trkpt lat="41.99006" lon="2.77819">
        <ele>82.2</ele>
        <time>2022-05-21 07:27:32</time>
      </trkpt>
      <trkpt lat="41.99006" lon="2.7783">
        <ele>82.2</ele>
        <time>2022-05-21 07:27:33</time>
      </trkpt>
      <trkpt lat="41.99006" lon="2.77842">
        <ele>82.2</ele>
        <time>2022-05-21 07:27:34</time>
      </trkpt>
      <trkpt lat="41.99005" lon="2.77853">
        <ele>82</ele>
        <time>2022-05-21 07:27:35</time>
      </trkpt>
      <trkpt lat="41.99004" lon="2.77865">
        <ele>82</ele>
        <time>2022-05-21 07:27:36</time>
      </trkpt>
      <trkpt lat="41.99004" lon="2.77876">
        <ele>81.8</ele>
        <time>2022-05-21 07:27:37</time>
      </trkpt>
      <trkpt lat="41.99004" lon="2.77888">
        <ele>81.8</ele>
        <time>2022-05-21 07:27:38</time>
      </trkpt>
      <trkpt lat="41.99004" lon="2.779">
        <ele>81.6</ele>
        <time>2022-05-21 07:27:39</time>
      </trkpt>
      <trkpt lat="41.99003" lon="2.77912">
        <ele>81.6</ele>
        <time>2022-05-21 07:27:40</time>
      </trkpt>
      <trkpt lat="41.99003" lon="2.77924">
        <ele>81.4</ele>
        <time>2022-05-21 07:27:41</time>
      </trkpt>
      <trkpt lat="41.99003" lon="2.77935">
        <ele>81.4</ele>
        <time>2022-05-21 07:27:42</time>
      </trkpt>
      <trkpt lat="41.99003" lon="2.77947">
        <ele>81.2</ele>
        <time>2022-05-21 07:27:43</time>
      </trkpt>
      <trkpt lat="41.99002" lon="2.77959">
        <ele>81.2</ele>
        <time>2022-05-21 07:27:44</time>
      </trkpt>
      <trkpt lat="41.99002" lon="2.7797">
        <ele>81</ele>
        <time>2022-05-21 07:27:45</time>
      </trkpt>
      <trkpt lat="41.99002" lon="2.77982">
        <ele>81</ele>
        <time>2022-05-21 07:27:46</time>
      </trkpt>
      <trkpt lat="41.99001" lon="2.77994">
        <ele>80.8</ele>
        <time>2022-05-21 07:27:47</time>
      </trkpt>
      <trkpt lat="41.99001" lon="2.78006">
        <ele>80.8</ele>
        <time>2022-05-21 07:27:48</time>
      </trkpt>
      <trkpt lat="41.99" lon="2.78018">
        <ele>80.6</ele>
        <time>2022-05-21 07:27:49</time>
      </trkpt>
      <trkpt lat="41.99" lon="2.7803">
        <ele>80.6</ele>
        <time>2022-05-21 07:27:50</time>
      </trkpt>
      <trkpt lat="41.99" lon="2.78042">
        <ele>80.4</ele>
        <time>2022-05-21 07:27:51</time>
      </trkpt>
      <trkpt lat="41.98999" lon="2.78055">
        <ele>80.4</ele>
        <time>2022-05-21 07:27:52</time>
      </trkpt>
      <trkpt lat="41.98999" lon="2.78067">
        <ele>80.2</ele>
        <time>2022-05-21 07:27:53</time>
      </trkpt>
      <trkpt lat="41.98999" lon="2.78079">
        <ele>80.2</ele>
        <time>2022-05-21 07:27:54</time>
      </trkpt>
      <trkpt lat="41.98998" lon="2.78091">
        <ele>80</ele>
        <time>2022-05-21 07:27:55</time>
      </trkpt>
      <trkpt lat="41.98998" lon="2.78103">
        <ele>79.8</ele>
        <time>2022-05-21 07:27:56</time>
      </trkpt>
      <trkpt lat="41.98998" lon="2.78115">
        <ele>79.6</ele>
        <time>2022-05-21 07:27:57</time>
      </trkpt>
      <trkpt lat="41.98998" lon="2.78127">
        <ele>79.6</ele>
        <time>2022-05-21 07:27:58</time>
      </trkpt>
      <trkpt lat="41.98997" lon="2.7814">
        <ele>79.6</ele>
        <time>2022-05-21 07:27:59</time>
      </trkpt>
      <trkpt lat="41.98996" lon="2.78152">
        <ele>79.4</ele>
        <time>2022-05-21 07:28:00</time>
      </trkpt>
      <trkpt lat="41.98996" lon="2.78165">
        <ele>79.2</ele>
        <time>2022-05-21 07:28:01</time>
      </trkpt>
      <trkpt lat="41.98995" lon="2.78177">
        <ele>79.2</ele>
        <time>2022-05-21 07:28:02</time>
      </trkpt>
      <trkpt lat="41.98995" lon="2.78189">
        <ele>79.2</ele>
        <time>2022-05-21 07:28:03</time>
      </trkpt>
      <trkpt lat="41.98994" lon="2.78201">
        <ele>79</ele>
        <time>2022-05-21 07:28:04</time>
      </trkpt>
      <trkpt lat="41.98994" lon="2.78214">
        <ele>79</ele>
        <time>2022-05-21 07:28:05</time>
      </trkpt>
      <trkpt lat="41.98994" lon="2.78227">
        <ele>78.8</ele>
        <time>2022-05-21 07:28:06</time>
      </trkpt>
      <trkpt lat="41.98994" lon="2.78239">
        <ele>78.6</ele>
        <time>2022-05-21 07:28:07</time>
      </trkpt>
      <trkpt lat="41.98994" lon="2.78251">
        <ele>78.6</ele>
        <time>2022-05-21 07:28:08</time>
      </trkpt>
      <trkpt lat="41.98993" lon="2.78263">
        <ele>78.4</ele>
        <time>2022-05-21 07:28:09</time>
      </trkpt>
      <trkpt lat="41.98993" lon="2.78275">
        <ele>78.4</ele>
        <time>2022-05-21 07:28:10</time>
      </trkpt>
      <trkpt lat="41.98993" lon="2.78288">
        <ele>78.2</ele>
        <time>2022-05-21 07:28:11</time>
      </trkpt>
      <trkpt lat="41.98993" lon="2.78301">
        <ele>78</ele>
        <time>2022-05-21 07:28:12</time>
      </trkpt>
      <trkpt lat="41.98992" lon="2.78314">
        <ele>78</ele>
        <time>2022-05-21 07:28:13</time>
      </trkpt>
      <trkpt lat="41.98991" lon="2.78325">
        <ele>78</ele>
        <time>2022-05-21 07:28:14</time>
      </trkpt>
      <trkpt lat="41.98991" lon="2.78338">
        <ele>77.8</ele>
        <time>2022-05-21 07:28:15</time>
      </trkpt>
      <trkpt lat="41.98991" lon="2.7835">
        <ele>77.8</ele>
        <time>2022-05-21 07:28:16</time>
      </trkpt>
      <trkpt lat="41.9899" lon="2.78363">
        <ele>77.6</ele>
        <time>2022-05-21 07:28:17</time>
      </trkpt>
      <trkpt lat="41.9899" lon="2.78375">
        <ele>77.4</ele>
        <time>2022-05-21 07:28:18</time>
      </trkpt>
      <trkpt lat="41.9899" lon="2.78387">
        <ele>77.4</ele>
        <time>2022-05-21 07:28:19</time>
      </trkpt>
      <trkpt lat="41.9899" lon="2.784">
        <ele>77.2</ele>
        <time>2022-05-21 07:28:20</time>
      </trkpt>
      <trkpt lat="41.98989" lon="2.78412">
        <ele>77.2</ele>
        <time>2022-05-21 07:28:21</time>
      </trkpt>
      <trkpt lat="41.98989" lon="2.78424">
        <ele>77</ele>
        <time>2022-05-21 07:28:22</time>
      </trkpt>
      <trkpt lat="41.98989" lon="2.78436">
        <ele>77</ele>
        <time>2022-05-21 07:28:23</time>
      </trkpt>
      <trkpt lat="41.98989" lon="2.78449">
        <ele>77</ele>
        <time>2022-05-21 07:28:24</time>
      </trkpt>
      <trkpt lat="41.98989" lon="2.78461">
        <ele>76.8</ele>
        <time>2022-05-21 07:28:25</time>
      </trkpt>
      <trkpt lat="41.98988" lon="2.78474">
        <ele>76.8</ele>
        <time>2022-05-21 07:28:26</time>
      </trkpt>
      <trkpt lat="41.98989" lon="2.78487">
        <ele>76.6</ele>
        <time>2022-05-21 07:28:27</time>
      </trkpt>
      <trkpt lat="41.98988" lon="2.785">
        <ele>76.4</ele>
        <time>2022-05-21 07:28:28</time>
      </trkpt>
      <trkpt lat="41.98988" lon="2.78512">
        <ele>76.4</ele>
        <time>2022-05-21 07:28:29</time>
      </trkpt>
      <trkpt lat="41.98988" lon="2.78524">
        <ele>76.2</ele>
        <time>2022-05-21 07:28:30</time>
      </trkpt>
      <trkpt lat="41.98988" lon="2.78535">
        <ele>76.2</ele>
        <time>2022-05-21 07:28:31</time>
      </trkpt>
      <trkpt lat="41.98988" lon="2.78546">
        <ele>76.2</ele>
        <time>2022-05-21 07:28:32</time>
      </trkpt>
      <trkpt lat="41.98988" lon="2.78555">
        <ele>76.2</ele>
        <time>2022-05-21 07:28:33</time>
      </trkpt>
      <trkpt lat="41.98989" lon="2.78571">
        <ele>76</ele>
        <time>2022-05-21 07:28:34</time>
      </trkpt>
      <trkpt lat="41.9899" lon="2.78582">
        <ele>76.2</ele>
        <time>2022-05-21 07:28:35</time>
      </trkpt>
      <trkpt lat="41.98991" lon="2.78594">
        <ele>76.2</ele>
        <time>2022-05-21 07:28:36</time>
      </trkpt>
      <trkpt lat="41.98991" lon="2.78604">
        <ele>76.6</ele>
        <time>2022-05-21 07:28:37</time>
      </trkpt>
      <trkpt lat="41.98992" lon="2.78614">
        <ele>76.6</ele>
        <time>2022-05-21 07:28:38</time>
      </trkpt>
      <trkpt lat="41.98993" lon="2.78624">
        <ele>77</ele>
        <time>2022-05-21 07:28:39</time>
      </trkpt>
      <trkpt lat="41.98993" lon="2.78635">
        <ele>77.2</ele>
        <time>2022-05-21 07:28:40</time>
      </trkpt>
      <trkpt lat="41.98994" lon="2.78644">
        <ele>77.6</ele>
        <time>2022-05-21 07:28:41</time>
      </trkpt>
      <trkpt lat="41.98994" lon="2.78654">
        <ele>77.8</ele>
        <time>2022-05-21 07:28:42</time>
      </trkpt>
      <trkpt lat="41.98995" lon="2.78662">
        <ele>78.2</ele>
        <time>2022-05-21 07:28:43</time>
      </trkpt>
      <trkpt lat="41.98996" lon="2.78671">
        <ele>78.6</ele>
        <time>2022-05-21 07:28:44</time>
      </trkpt>
      <trkpt lat="41.98996" lon="2.78679">
        <ele>78.8</ele>
        <time>2022-05-21 07:28:45</time>
      </trkpt>
      <trkpt lat="41.98997" lon="2.78687">
        <ele>79.2</ele>
        <time>2022-05-21 07:28:46</time>
      </trkpt>
      <trkpt lat="41.98997" lon="2.78695">
        <ele>79.6</ele>
        <time>2022-05-21 07:28:47</time>
      </trkpt>
      <trkpt lat="41.98998" lon="2.78703">
        <ele>79.8</ele>
        <time>2022-05-21 07:28:48</time>
      </trkpt>
      <trkpt lat="41.98998" lon="2.7871">
        <ele>80.2</ele>
        <time>2022-05-21 07:28:49</time>
      </trkpt>
      <trkpt lat="41.98999" lon="2.78717">
        <ele>80.6</ele>
        <time>2022-05-21 07:28:50</time>
      </trkpt>
      <trkpt lat="41.98999" lon="2.78724">
        <ele>80.8</ele>
        <time>2022-05-21 07:28:51</time>
      </trkpt>
      <trkpt lat="41.98999" lon="2.78732">
        <ele>81</ele>
        <time>2022-05-21 07:28:52</time>
      </trkpt>
      <trkpt lat="41.98999" lon="2.78739">
        <ele>81.4</ele>
        <time>2022-05-21 07:28:53</time>
      </trkpt>
      <trkpt lat="41.98999" lon="2.78746">
        <ele>81.6</ele>
        <time>2022-05-21 07:28:54</time>
      </trkpt>
      <trkpt lat="41.98999" lon="2.78754">
        <ele>81.8</ele>
        <time>2022-05-21 07:28:55</time>
      </trkpt>
      <trkpt lat="41.98999" lon="2.78761">
        <ele>82</ele>
        <time>2022-05-21 07:28:56</time>
      </trkpt>
      <trkpt lat="41.98999" lon="2.78768">
        <ele>82</ele>
        <time>2022-05-21 07:28:57</time>
      </trkpt>
      <trkpt lat="41.98999" lon="2.78776">
        <ele>82.2</ele>
        <time>2022-05-21 07:28:58</time>
      </trkpt>
      <trkpt lat="41.98999" lon="2.78784">
        <ele>82.4</ele>
        <time>2022-05-21 07:28:59</time>
      </trkpt>
      <trkpt lat="41.98999" lon="2.78792">
        <ele>82.4</ele>
        <time>2022-05-21 07:29:00</time>
      </trkpt>
      <trkpt lat="41.98998" lon="2.78799">
        <ele>82.6</ele>
        <time>2022-05-21 07:29:01</time>
      </trkpt>
      <trkpt lat="41.98998" lon="2.78807">
        <ele>82.6</ele>
        <time>2022-05-21 07:29:02</time>
      </trkpt>
      <trkpt lat="41.98997" lon="2.78815">
        <ele>82.8</ele>
        <time>2022-05-21 07:29:03</time>
      </trkpt>
      <trkpt lat="41.98997" lon="2.78823">
        <ele>82.8</ele>
        <time>2022-05-21 07:29:04</time>
      </trkpt>
      <trkpt lat="41.98996" lon="2.78831">
        <ele>82.8</ele>
        <time>2022-05-21 07:29:05</time>
      </trkpt>
      <trkpt lat="41.98996" lon="2.78839">
        <ele>83</ele>
        <time>2022-05-21 07:29:06</time>
      </trkpt>
      <trkpt lat="41.98996" lon="2.78848">
        <ele>83</ele>
        <time>2022-05-21 07:29:07</time>
      </trkpt>
      <trkpt lat="41.98996" lon="2.78856">
        <ele>83</ele>
        <time>2022-05-21 07:29:08</time>
      </trkpt>
      <trkpt lat="41.98995" lon="2.78865">
        <ele>83</ele>
        <time>2022-05-21 07:29:09</time>
      </trkpt>
      <trkpt lat="41.98995" lon="2.78874">
        <ele>82.8</ele>
        <time>2022-05-21 07:29:10</time>
      </trkpt>
      <trkpt lat="41.98994" lon="2.78883">
        <ele>82.8</ele>
        <time>2022-05-21 07:29:11</time>
      </trkpt>
      <trkpt lat="41.98994" lon="2.78892">
        <ele>82.8</ele>
        <time>2022-05-21 07:29:12</time>
      </trkpt>
      <trkpt lat="41.98994" lon="2.78901">
        <ele>82.6</ele>
        <time>2022-05-21 07:29:13</time>
      </trkpt>
      <trkpt lat="41.98993" lon="2.78911">
        <ele>82.6</ele>
        <time>2022-05-21 07:29:14</time>
      </trkpt>
      <trkpt lat="41.98993" lon="2.78921">
        <ele>82.4</ele>
        <time>2022-05-21 07:29:15</time>
      </trkpt>
      <trkpt lat="41.98992" lon="2.78931">
        <ele>82.2</ele>
        <time>2022-05-21 07:29:16</time>
      </trkpt>
      <trkpt lat="41.98991" lon="2.78941">
        <ele>82</ele>
        <time>2022-05-21 07:29:17</time>
      </trkpt>
      <trkpt lat="41.98991" lon="2.78952">
        <ele>81.8</ele>
        <time>2022-05-21 07:29:18</time>
      </trkpt>
      <trkpt lat="41.9899" lon="2.78963">
        <ele>81.4</ele>
        <time>2022-05-21 07:29:19</time>
      </trkpt>
      <trkpt lat="41.98989" lon="2.78974">
        <ele>81</ele>
        <time>2022-05-21 07:29:20</time>
      </trkpt>
      <trkpt lat="41.98989" lon="2.78986">
        <ele>80.6</ele>
        <time>2022-05-21 07:29:21</time>
      </trkpt>
      <trkpt lat="41.98988" lon="2.78999">
        <ele>80.2</ele>
        <time>2022-05-21 07:29:22</time>
      </trkpt>
      <trkpt lat="41.98987" lon="2.79011">
        <ele>79.6</ele>
        <time>2022-05-21 07:29:23</time>
      </trkpt>
      <trkpt lat="41.98987" lon="2.79025">
        <ele>79</ele>
        <time>2022-05-21 07:29:24</time>
      </trkpt>
      <trkpt lat="41.98986" lon="2.79039">
        <ele>78.4</ele>
        <time>2022-05-21 07:29:25</time>
      </trkpt>
      <trkpt lat="41.98985" lon="2.79053">
        <ele>77.8</ele>
        <time>2022-05-21 07:29:26</time>
      </trkpt>
      <trkpt lat="41.98984" lon="2.79067">
        <ele>77.2</ele>
        <time>2022-05-21 07:29:27</time>
      </trkpt>
      <trkpt lat="41.98983" lon="2.79081">
        <ele>76.6</ele>
        <time>2022-05-21 07:29:28</time>
      </trkpt>
      <trkpt lat="41.98982" lon="2.79095">
        <ele>76.2</ele>
        <time>2022-05-21 07:29:29</time>
      </trkpt>
      <trkpt lat="41.98981" lon="2.7911">
        <ele>75.6</ele>
        <time>2022-05-21 07:29:30</time>
      </trkpt>
      <trkpt lat="41.98981" lon="2.79124">
        <ele>75</ele>
        <time>2022-05-21 07:29:31</time>
      </trkpt>
      <trkpt lat="41.98981" lon="2.79138">
        <ele>74.8</ele>
        <time>2022-05-21 07:29:32</time>
      </trkpt>
      <trkpt lat="41.98982" lon="2.79151">
        <ele>74.2</ele>
        <time>2022-05-21 07:29:33</time>
      </trkpt>
      <trkpt lat="41.98983" lon="2.79166">
        <ele>73.8</ele>
        <time>2022-05-21 07:29:34</time>
      </trkpt>
      <trkpt lat="41.98984" lon="2.79179">
        <ele>73.6</ele>
        <time>2022-05-21 07:29:35</time>
      </trkpt>
      <trkpt lat="41.98986" lon="2.79192">
        <ele>73.4</ele>
        <time>2022-05-21 07:29:36</time>
      </trkpt>
      <trkpt lat="41.98987" lon="2.79205">
        <ele>73.2</ele>
        <time>2022-05-21 07:29:37</time>
      </trkpt>
      <trkpt lat="41.98989" lon="2.79217">
        <ele>73.2</ele>
        <time>2022-05-21 07:29:38</time>
      </trkpt>
      <trkpt lat="41.98991" lon="2.79231">
        <ele>73</ele>
        <time>2022-05-21 07:29:39</time>
      </trkpt>
      <trkpt lat="41.98993" lon="2.79245">
        <ele>72.8</ele>
        <time>2022-05-21 07:29:40</time>
      </trkpt>
      <trkpt lat="41.98995" lon="2.79257">
        <ele>72.8</ele>
        <time>2022-05-21 07:29:41</time>
      </trkpt>
      <trkpt lat="41.98997" lon="2.79269">
        <ele>72.8</ele>
        <time>2022-05-21 07:29:42</time>
      </trkpt>
      <trkpt lat="41.99" lon="2.79282">
        <ele>72.6</ele>
        <time>2022-05-21 07:29:43</time>
      </trkpt>
      <trkpt lat="41.99002" lon="2.79294">
        <ele>72.6</ele>
        <time>2022-05-21 07:29:44</time>
      </trkpt>
      <trkpt lat="41.99004" lon="2.79307">
        <ele>72.6</ele>
        <time>2022-05-21 07:29:45</time>
      </trkpt>
      <trkpt lat="41.99006" lon="2.79319">
        <ele>72.6</ele>
        <time>2022-05-21 07:29:46</time>
      </trkpt>
      <trkpt lat="41.99008" lon="2.79329">
        <ele>72.6</ele>
        <time>2022-05-21 07:29:47</time>
      </trkpt>
      <trkpt lat="41.9901" lon="2.7934">
        <ele>72.4</ele>
        <time>2022-05-21 07:29:48</time>
      </trkpt>
      <trkpt lat="41.99012" lon="2.79353">
        <ele>72.4</ele>
        <time>2022-05-21 07:29:49</time>
      </trkpt>
      <trkpt lat="41.99014" lon="2.79365">
        <ele>72.4</ele>
        <time>2022-05-21 07:29:50</time>
      </trkpt>
      <trkpt lat="41.99016" lon="2.79376">
        <ele>72.4</ele>
        <time>2022-05-21 07:29:51</time>
      </trkpt>
      <trkpt lat="41.99018" lon="2.79387">
        <ele>72.4</ele>
        <time>2022-05-21 07:29:52</time>
      </trkpt>
      <trkpt lat="41.9902" lon="2.79398">
        <ele>72.4</ele>
        <time>2022-05-21 07:29:53</time>
      </trkpt>
      <trkpt lat="41.99022" lon="2.7941">
        <ele>72.4</ele>
        <time>2022-05-21 07:29:54</time>
      </trkpt>
      <trkpt lat="41.99024" lon="2.79422">
        <ele>72.4</ele>
        <time>2022-05-21 07:29:55</time>
      </trkpt>
      <trkpt lat="41.99026" lon="2.79433">
        <ele>72.4</ele>
        <time>2022-05-21 07:29:56</time>
      </trkpt>
      <trkpt lat="41.99028" lon="2.79444">
        <ele>72.4</ele>
        <time>2022-05-21 07:29:57</time>
      </trkpt>
      <trkpt lat="41.9903" lon="2.79455">
        <ele>72.2</ele>
        <time>2022-05-21 07:29:58</time>
      </trkpt>
      <trkpt lat="41.99031" lon="2.79467">
        <ele>72.2</ele>
        <time>2022-05-21 07:29:59</time>
      </trkpt>
      <trkpt lat="41.99031" lon="2.79478">
        <ele>72.2</ele>
        <time>2022-05-21 07:30:00</time>
      </trkpt>
      <trkpt lat="41.99029" lon="2.79489">
        <ele>72.2</ele>
        <time>2022-05-21 07:30:01</time>
      </trkpt>
      <trkpt lat="41.99026" lon="2.79499">
        <ele>72.2</ele>
        <time>2022-05-21 07:30:02</time>
      </trkpt>
      <trkpt lat="41.99023" lon="2.79508">
        <ele>72.4</ele>
        <time>2022-05-21 07:30:03</time>
      </trkpt>
      <trkpt lat="41.9902" lon="2.79519">
        <ele>72.4</ele>
        <time>2022-05-21 07:30:04</time>
      </trkpt>
      <trkpt lat="41.99019" lon="2.79529">
        <ele>72.6</ele>
        <time>2022-05-21 07:30:05</time>
      </trkpt>
      <trkpt lat="41.99021" lon="2.79539">
        <ele>72.6</ele>
        <time>2022-05-21 07:30:06</time>
      </trkpt>
      <trkpt lat="41.99023" lon="2.79548">
        <ele>72.6</ele>
        <time>2022-05-21 07:30:07</time>
      </trkpt>
      <trkpt lat="41.99028" lon="2.79556">
        <ele>72.8</ele>
        <time>2022-05-21 07:30:08</time>
      </trkpt>
      <trkpt lat="41.99033" lon="2.79563">
        <ele>72.6</ele>
        <time>2022-05-21 07:30:09</time>
      </trkpt>
      <trkpt lat="41.99039" lon="2.79571">
        <ele>72.6</ele>
        <time>2022-05-21 07:30:10</time>
      </trkpt>
      <trkpt lat="41.99044" lon="2.79579">
        <ele>72.4</ele>
        <time>2022-05-21 07:30:11</time>
      </trkpt>
      <trkpt lat="41.9905" lon="2.79587">
        <ele>72.2</ele>
        <time>2022-05-21 07:30:12</time>
      </trkpt>
      <trkpt lat="41.99054" lon="2.79596">
        <ele>72.2</ele>
        <time>2022-05-21 07:30:13</time>
      </trkpt>
      <trkpt lat="41.99058" lon="2.79605">
        <ele>72</ele>
        <time>2022-05-21 07:30:14</time>
      </trkpt>
      <trkpt lat="41.9906" lon="2.79614">
        <ele>71.8</ele>
        <time>2022-05-21 07:30:15</time>
      </trkpt>
      <trkpt lat="41.99062" lon="2.79625">
        <ele>71.8</ele>
        <time>2022-05-21 07:30:16</time>
      </trkpt>
      <trkpt lat="41.99064" lon="2.79636">
        <ele>71.6</ele>
        <time>2022-05-21 07:30:17</time>
      </trkpt>
      <trkpt lat="41.99066" lon="2.79646">
        <ele>71.6</ele>
        <time>2022-05-21 07:30:18</time>
      </trkpt>
      <trkpt lat="41.99067" lon="2.79657">
        <ele>71.4</ele>
        <time>2022-05-21 07:30:19</time>
      </trkpt>
      <trkpt lat="41.99069" lon="2.79667">
        <ele>71.4</ele>
        <time>2022-05-21 07:30:20</time>
      </trkpt>
      <trkpt lat="41.9907" lon="2.79677">
        <ele>71.4</ele>
        <time>2022-05-21 07:30:21</time>
      </trkpt>
      <trkpt lat="41.99072" lon="2.79688">
        <ele>71.2</ele>
        <time>2022-05-21 07:30:22</time>
      </trkpt>
      <trkpt lat="41.99074" lon="2.79698">
        <ele>71.2</ele>
        <time>2022-05-21 07:30:23</time>
      </trkpt>
      <trkpt lat="41.99076" lon="2.79708">
        <ele>71.2</ele>
        <time>2022-05-21 07:30:24</time>
      </trkpt>
      <trkpt lat="41.99078" lon="2.79719">
        <ele>71</ele>
        <time>2022-05-21 07:30:25</time>
      </trkpt>
      <trkpt lat="41.9908" lon="2.79729">
        <ele>71</ele>
        <time>2022-05-21 07:30:26</time>
      </trkpt>
      <trkpt lat="41.99081" lon="2.79739">
        <ele>71</ele>
        <time>2022-05-21 07:30:27</time>
      </trkpt>
      <trkpt lat="41.99083" lon="2.7975">
        <ele>71</ele>
        <time>2022-05-21 07:30:28</time>
      </trkpt>
      <trkpt lat="41.99084" lon="2.7976">
        <ele>71</ele>
        <time>2022-05-21 07:30:29</time>
      </trkpt>
      <trkpt lat="41.99086" lon="2.7977">
        <ele>71</ele>
        <time>2022-05-21 07:30:30</time>
      </trkpt>
      <trkpt lat="41.99088" lon="2.7978">
        <ele>71</ele>
        <time>2022-05-21 07:30:31</time>
      </trkpt>
      <trkpt lat="41.99089" lon="2.7979">
        <ele>70.8</ele>
        <time>2022-05-21 07:30:32</time>
      </trkpt>
      <trkpt lat="41.99091" lon="2.79799">
        <ele>70.8</ele>
        <time>2022-05-21 07:30:33</time>
      </trkpt>
      <trkpt lat="41.99093" lon="2.79811">
        <ele>70.8</ele>
        <time>2022-05-21 07:30:34</time>
      </trkpt>
      <trkpt lat="41.99095" lon="2.79821">
        <ele>70.6</ele>
        <time>2022-05-21 07:30:35</time>
      </trkpt>
      <trkpt lat="41.99097" lon="2.79832">
        <ele>70.6</ele>
        <time>2022-05-21 07:30:36</time>
      </trkpt>
      <trkpt lat="41.99099" lon="2.79843">
        <ele>70.4</ele>
        <time>2022-05-21 07:30:37</time>
      </trkpt>
      <trkpt lat="41.991" lon="2.79854">
        <ele>70.4</ele>
        <time>2022-05-21 07:30:38</time>
      </trkpt>
      <trkpt lat="41.99102" lon="2.79864">
        <ele>70.4</ele>
        <time>2022-05-21 07:30:39</time>
      </trkpt>
      <trkpt lat="41.99104" lon="2.79874">
        <ele>70.4</ele>
        <time>2022-05-21 07:30:40</time>
      </trkpt>
      <trkpt lat="41.99106" lon="2.79884">
        <ele>70.4</ele>
        <time>2022-05-21 07:30:41</time>
      </trkpt>
      <trkpt lat="41.99108" lon="2.79894">
        <ele>70.4</ele>
        <time>2022-05-21 07:30:42</time>
      </trkpt>
      <trkpt lat="41.9911" lon="2.79903">
        <ele>70.4</ele>
        <time>2022-05-21 07:30:43</time>
      </trkpt>
      <trkpt lat="41.99112" lon="2.79914">
        <ele>70.2</ele>
        <time>2022-05-21 07:30:44</time>
      </trkpt>
      <trkpt lat="41.99114" lon="2.79924">
        <ele>70.2</ele>
        <time>2022-05-21 07:30:45</time>
      </trkpt>
      <trkpt lat="41.99116" lon="2.79934">
        <ele>70.2</ele>
        <time>2022-05-21 07:30:46</time>
      </trkpt>
      <trkpt lat="41.99118" lon="2.79944">
        <ele>70.2</ele>
        <time>2022-05-21 07:30:47</time>
      </trkpt>
      <trkpt lat="41.9912" lon="2.79955">
        <ele>70.2</ele>
        <time>2022-05-21 07:30:48</time>
      </trkpt>
      <trkpt lat="41.99121" lon="2.79965">
        <ele>70</ele>
        <time>2022-05-21 07:30:49</time>
      </trkpt>
      <trkpt lat="41.99124" lon="2.79975">
        <ele>70</ele>
        <time>2022-05-21 07:30:50</time>
      </trkpt>
      <trkpt lat="41.99126" lon="2.79985">
        <ele>70</ele>
        <time>2022-05-21 07:30:51</time>
      </trkpt>
      <trkpt lat="41.99128" lon="2.79995">
        <ele>70</ele>
        <time>2022-05-21 07:30:52</time>
      </trkpt>
      <trkpt lat="41.9913" lon="2.80005">
        <ele>70</ele>
        <time>2022-05-21 07:30:53</time>
      </trkpt>
      <trkpt lat="41.99132" lon="2.80016">
        <ele>70</ele>
        <time>2022-05-21 07:30:54</time>
      </trkpt>
      <trkpt lat="41.99133" lon="2.80026">
        <ele>70</ele>
        <time>2022-05-21 07:30:55</time>
      </trkpt>
      <trkpt lat="41.99135" lon="2.80036">
        <ele>70</ele>
        <time>2022-05-21 07:30:56</time>
      </trkpt>
      <trkpt lat="41.99137" lon="2.80047">
        <ele>70</ele>
        <time>2022-05-21 07:30:57</time>
      </trkpt>
      <trkpt lat="41.99139" lon="2.80057">
        <ele>69.8</ele>
        <time>2022-05-21 07:30:58</time>
      </trkpt>
      <trkpt lat="41.9914" lon="2.80067">
        <ele>69.8</ele>
        <time>2022-05-21 07:30:59</time>
      </trkpt>
      <trkpt lat="41.99142" lon="2.80078">
        <ele>69.8</ele>
        <time>2022-05-21 07:31:00</time>
      </trkpt>
      <trkpt lat="41.99144" lon="2.80088">
        <ele>69.8</ele>
        <time>2022-05-21 07:31:01</time>
      </trkpt>
      <trkpt lat="41.99146" lon="2.80099">
        <ele>69.8</ele>
        <time>2022-05-21 07:31:02</time>
      </trkpt>
      <trkpt lat="41.99147" lon="2.8011">
        <ele>69.8</ele>
        <time>2022-05-21 07:31:03</time>
      </trkpt>
      <trkpt lat="41.99149" lon="2.80121">
        <ele>69.8</ele>
        <time>2022-05-21 07:31:04</time>
      </trkpt>
      <trkpt lat="41.9915" lon="2.80131">
        <ele>69.8</ele>
        <time>2022-05-21 07:31:05</time>
      </trkpt>
      <trkpt lat="41.99152" lon="2.80142">
        <ele>69.6</ele>
        <time>2022-05-21 07:31:06</time>
      </trkpt>
      <trkpt lat="41.99154" lon="2.80151">
        <ele>69.6</ele>
        <time>2022-05-21 07:31:07</time>
      </trkpt>
      <trkpt lat="41.99156" lon="2.80163">
        <ele>69.6</ele>
        <time>2022-05-21 07:31:08</time>
      </trkpt>
      <trkpt lat="41.99158" lon="2.80173">
        <ele>69.4</ele>
        <time>2022-05-21 07:31:09</time>
      </trkpt>
      <trkpt lat="41.9916" lon="2.80185">
        <ele>69.4</ele>
        <time>2022-05-21 07:31:10</time>
      </trkpt>
      <trkpt lat="41.99162" lon="2.80194">
        <ele>69.4</ele>
        <time>2022-05-21 07:31:11</time>
      </trkpt>
      <trkpt lat="41.99164" lon="2.80206">
        <ele>69.4</ele>
        <time>2022-05-21 07:31:12</time>
      </trkpt>
      <trkpt lat="41.99166" lon="2.80215">
        <ele>69.4</ele>
        <time>2022-05-21 07:31:13</time>
      </trkpt>
      <trkpt lat="41.99168" lon="2.80227">
        <ele>69.4</ele>
        <time>2022-05-21 07:31:14</time>
      </trkpt>
      <trkpt lat="41.9917" lon="2.80237">
        <ele>69.4</ele>
        <time>2022-05-21 07:31:15</time>
      </trkpt>
      <trkpt lat="41.99172" lon="2.80247">
        <ele>69.2</ele>
        <time>2022-05-21 07:31:16</time>
      </trkpt>
      <trkpt lat="41.99173" lon="2.80255">
        <ele>69.2</ele>
        <time>2022-05-21 07:31:17</time>
      </trkpt>
      <trkpt lat="41.99175" lon="2.80268">
        <ele>69.2</ele>
        <time>2022-05-21 07:31:18</time>
      </trkpt>
      <trkpt lat="41.99177" lon="2.80278">
        <ele>69.2</ele>
        <time>2022-05-21 07:31:19</time>
      </trkpt>
      <trkpt lat="41.99179" lon="2.80288">
        <ele>69</ele>
        <time>2022-05-21 07:31:20</time>
      </trkpt>
      <trkpt lat="41.99181" lon="2.80298">
        <ele>69</ele>
        <time>2022-05-21 07:31:21</time>
      </trkpt>
      <trkpt lat="41.99183" lon="2.80308">
        <ele>69</ele>
        <time>2022-05-21 07:31:22</time>
      </trkpt>
      <trkpt lat="41.99184" lon="2.80316">
        <ele>69</ele>
        <time>2022-05-21 07:31:23</time>
      </trkpt>
      <trkpt lat="41.99187" lon="2.80328">
        <ele>68.8</ele>
        <time>2022-05-21 07:31:24</time>
      </trkpt>
      <trkpt lat="41.99188" lon="2.80337">
        <ele>68.8</ele>
        <time>2022-05-21 07:31:25</time>
      </trkpt>
      <trkpt lat="41.9919" lon="2.80348">
        <ele>68.8</ele>
        <time>2022-05-21 07:31:26</time>
      </trkpt>
      <trkpt lat="41.99192" lon="2.80357">
        <ele>68.8</ele>
        <time>2022-05-21 07:31:27</time>
      </trkpt>
      <trkpt lat="41.99194" lon="2.80369">
        <ele>68.8</ele>
        <time>2022-05-21 07:31:28</time>
      </trkpt>
      <trkpt lat="41.99195" lon="2.80378">
        <ele>68.8</ele>
        <time>2022-05-21 07:31:29</time>
      </trkpt>
      <trkpt lat="41.99198" lon="2.80389">
        <ele>68.6</ele>
        <time>2022-05-21 07:31:30</time>
      </trkpt>
      <trkpt lat="41.992" lon="2.80399">
        <ele>68.6</ele>
        <time>2022-05-21 07:31:31</time>
      </trkpt>
      <trkpt lat="41.99201" lon="2.8041">
        <ele>68.6</ele>
        <time>2022-05-21 07:31:32</time>
      </trkpt>
      <trkpt lat="41.99203" lon="2.80419">
        <ele>68.6</ele>
        <time>2022-05-21 07:31:33</time>
      </trkpt>
      <trkpt lat="41.99205" lon="2.8043">
        <ele>68.4</ele>
        <time>2022-05-21 07:31:34</time>
      </trkpt>
      <trkpt lat="41.99206" lon="2.80439">
        <ele>68.4</ele>
        <time>2022-05-21 07:31:35</time>
      </trkpt>
      <trkpt lat="41.99208" lon="2.80451">
        <ele>68.2</ele>
        <time>2022-05-21 07:31:36</time>
      </trkpt>
      <trkpt lat="41.9921" lon="2.80461">
        <ele>68.2</ele>
        <time>2022-05-21 07:31:37</time>
      </trkpt>
      <trkpt lat="41.99211" lon="2.80472">
        <ele>68</ele>
        <time>2022-05-21 07:31:38</time>
      </trkpt>
      <trkpt lat="41.99213" lon="2.80481">
        <ele>68</ele>
        <time>2022-05-21 07:31:39</time>
      </trkpt>
      <trkpt lat="41.99215" lon="2.80492">
        <ele>67.8</ele>
        <time>2022-05-21 07:31:40</time>
      </trkpt>
      <trkpt lat="41.99217" lon="2.80501">
        <ele>67.6</ele>
        <time>2022-05-21 07:31:41</time>
      </trkpt>
      <trkpt lat="41.9922" lon="2.80514">
        <ele>67.4</ele>
        <time>2022-05-21 07:31:42</time>
      </trkpt>
      <trkpt lat="41.99223" lon="2.80524">
        <ele>67.4</ele>
        <time>2022-05-21 07:31:43</time>
      </trkpt>
      <trkpt lat="41.99225" lon="2.80535">
        <ele>67.2</ele>
        <time>2022-05-21 07:31:44</time>
      </trkpt>
      <trkpt lat="41.99226" lon="2.80545">
        <ele>67</ele>
        <time>2022-05-21 07:31:45</time>
      </trkpt>
      <trkpt lat="41.99229" lon="2.80558">
        <ele>67</ele>
        <time>2022-05-21 07:31:46</time>
      </trkpt>
      <trkpt lat="41.9923" lon="2.80567">
        <ele>66.8</ele>
        <time>2022-05-21 07:31:47</time>
      </trkpt>
      <trkpt lat="41.99232" lon="2.80579">
        <ele>66.6</ele>
        <time>2022-05-21 07:31:48</time>
      </trkpt>
      <trkpt lat="41.99233" lon="2.80589">
        <ele>66.6</ele>
        <time>2022-05-21 07:31:49</time>
      </trkpt>
      <trkpt lat="41.99234" lon="2.80601">
        <ele>66.4</ele>
        <time>2022-05-21 07:31:50</time>
      </trkpt>
      <trkpt lat="41.99235" lon="2.80611">
        <ele>66.4</ele>
        <time>2022-05-21 07:31:51</time>
      </trkpt>
      <trkpt lat="41.99236" lon="2.80623">
        <ele>66.2</ele>
        <time>2022-05-21 07:31:52</time>
      </trkpt>
      <trkpt lat="41.99235" lon="2.80634">
        <ele>66</ele>
        <time>2022-05-21 07:31:53</time>
      </trkpt>
      <trkpt lat="41.99234" lon="2.80646">
        <ele>66</ele>
        <time>2022-05-21 07:31:54</time>
      </trkpt>
      <trkpt lat="41.99234" lon="2.80657">
        <ele>65.8</ele>
        <time>2022-05-21 07:31:55</time>
      </trkpt>
      <trkpt lat="41.99233" lon="2.8067">
        <ele>65.6</ele>
        <time>2022-05-21 07:31:56</time>
      </trkpt>
      <trkpt lat="41.99233" lon="2.80681">
        <ele>65.4</ele>
        <time>2022-05-21 07:31:57</time>
      </trkpt>
      <trkpt lat="41.99232" lon="2.80693">
        <ele>65.4</ele>
        <time>2022-05-21 07:31:58</time>
      </trkpt>
      <trkpt lat="41.99232" lon="2.80704">
        <ele>65.4</ele>
        <time>2022-05-21 07:31:59</time>
      </trkpt>
      <trkpt lat="41.99232" lon="2.80716">
        <ele>65.2</ele>
        <time>2022-05-21 07:32:00</time>
      </trkpt>
      <trkpt lat="41.99231" lon="2.80727">
        <ele>65</ele>
        <time>2022-05-21 07:32:01</time>
      </trkpt>
      <trkpt lat="41.99231" lon="2.8074">
        <ele>65</ele>
        <time>2022-05-21 07:32:02</time>
      </trkpt>
      <trkpt lat="41.99231" lon="2.80751">
        <ele>64.8</ele>
        <time>2022-05-21 07:32:03</time>
      </trkpt>
      <trkpt lat="41.99231" lon="2.80764">
        <ele>64.6</ele>
        <time>2022-05-21 07:32:04</time>
      </trkpt>
      <trkpt lat="41.99231" lon="2.80773">
        <ele>64.6</ele>
        <time>2022-05-21 07:32:05</time>
      </trkpt>
      <trkpt lat="41.9923" lon="2.80788">
        <ele>64.4</ele>
        <time>2022-05-21 07:32:06</time>
      </trkpt>
      <trkpt lat="41.9923" lon="2.80798">
        <ele>64.2</ele>
        <time>2022-05-21 07:32:07</time>
      </trkpt>
      <trkpt lat="41.99229" lon="2.80811">
        <ele>64</ele>
        <time>2022-05-21 07:32:08</time>
      </trkpt>
      <trkpt lat="41.99229" lon="2.80823">
        <ele>64</ele>
        <time>2022-05-21 07:32:09</time>
      </trkpt>
      <trkpt lat="41.99229" lon="2.80835">
        <ele>63.8</ele>
        <time>2022-05-21 07:32:10</time>
      </trkpt>
      <trkpt lat="41.99228" lon="2.80844">
        <ele>63.8</ele>
        <time>2022-05-21 07:32:11</time>
      </trkpt>
      <trkpt lat="41.99226" lon="2.80858">
        <ele>63.6</ele>
        <time>2022-05-21 07:32:12</time>
      </trkpt>
      <trkpt lat="41.99223" lon="2.8087">
        <ele>63.6</ele>
        <time>2022-05-21 07:32:13</time>
      </trkpt>
      <trkpt lat="41.9922" lon="2.8088">
        <ele>63.4</ele>
        <time>2022-05-21 07:32:14</time>
      </trkpt>
      <trkpt lat="41.99216" lon="2.8089">
        <ele>63.4</ele>
        <time>2022-05-21 07:32:15</time>
      </trkpt>
      <trkpt lat="41.99213" lon="2.809">
        <ele>63.2</ele>
        <time>2022-05-21 07:32:16</time>
      </trkpt>
      <trkpt lat="41.99213" lon="2.80911">
        <ele>63.4</ele>
        <time>2022-05-21 07:32:17</time>
      </trkpt>
      <trkpt lat="41.99214" lon="2.80921">
        <ele>63.2</ele>
        <time>2022-05-21 07:32:18</time>
      </trkpt>
      <trkpt lat="41.99217" lon="2.80932">
        <ele>63.2</ele>
        <time>2022-05-21 07:32:19</time>
      </trkpt>
      <trkpt lat="41.99221" lon="2.80941">
        <ele>63.2</ele>
        <time>2022-05-21 07:32:20</time>
      </trkpt>
      <trkpt lat="41.99223" lon="2.80951">
        <ele>63.2</ele>
        <time>2022-05-21 07:32:21</time>
      </trkpt>
      <trkpt lat="41.99224" lon="2.80961">
        <ele>63.2</ele>
        <time>2022-05-21 07:32:22</time>
      </trkpt>
      <trkpt lat="41.99225" lon="2.80971">
        <ele>63.2</ele>
        <time>2022-05-21 07:32:23</time>
      </trkpt>
      <trkpt lat="41.99225" lon="2.80981">
        <ele>63.2</ele>
        <time>2022-05-21 07:32:24</time>
      </trkpt>
      <trkpt lat="41.99225" lon="2.80992">
        <ele>63</ele>
        <time>2022-05-21 07:32:25</time>
      </trkpt>
      <trkpt lat="41.99225" lon="2.81002">
        <ele>63</ele>
        <time>2022-05-21 07:32:26</time>
      </trkpt>
      <trkpt lat="41.99224" lon="2.81013">
        <ele>63</ele>
        <time>2022-05-21 07:32:27</time>
      </trkpt>
      <trkpt lat="41.99224" lon="2.81024">
        <ele>63</ele>
        <time>2022-05-21 07:32:28</time>
      </trkpt>
      <trkpt lat="41.99224" lon="2.81035">
        <ele>62.8</ele>
        <time>2022-05-21 07:32:29</time>
      </trkpt>
      <trkpt lat="41.99224" lon="2.81046">
        <ele>62.8</ele>
        <time>2022-05-21 07:32:30</time>
      </trkpt>
      <trkpt lat="41.99224" lon="2.81056">
        <ele>62.8</ele>
        <time>2022-05-21 07:32:31</time>
      </trkpt>
      <trkpt lat="41.99224" lon="2.81066">
        <ele>62.8</ele>
        <time>2022-05-21 07:32:32</time>
      </trkpt>
      <trkpt lat="41.99225" lon="2.81077">
        <ele>62.8</ele>
        <time>2022-05-21 07:32:33</time>
      </trkpt>
      <trkpt lat="41.99226" lon="2.81088">
        <ele>62.8</ele>
        <time>2022-05-21 07:32:34</time>
      </trkpt>
      <trkpt lat="41.99226" lon="2.811">
        <ele>62.8</ele>
        <time>2022-05-21 07:32:35</time>
      </trkpt>
      <trkpt lat="41.99227" lon="2.8111">
        <ele>62.8</ele>
        <time>2022-05-21 07:32:36</time>
      </trkpt>
      <trkpt lat="41.99226" lon="2.81121">
        <ele>62.8</ele>
        <time>2022-05-21 07:32:37</time>
      </trkpt>
      <trkpt lat="41.99225" lon="2.81131">
        <ele>62.8</ele>
        <time>2022-05-21 07:32:38</time>
      </trkpt>
      <trkpt lat="41.99223" lon="2.8114">
        <ele>62.8</ele>
        <time>2022-05-21 07:32:39</time>
      </trkpt>
      <trkpt lat="41.99219" lon="2.81149">
        <ele>63</ele>
        <time>2022-05-21 07:32:40</time>
      </trkpt>
      <trkpt lat="41.99216" lon="2.81158">
        <ele>63</ele>
        <time>2022-05-21 07:32:41</time>
      </trkpt>
      <trkpt lat="41.99214" lon="2.81167">
        <ele>63.2</ele>
        <time>2022-05-21 07:32:42</time>
      </trkpt>
      <trkpt lat="41.99213" lon="2.81177">
        <ele>63.2</ele>
        <time>2022-05-21 07:32:43</time>
      </trkpt>
      <trkpt lat="41.99215" lon="2.81186">
        <ele>63.2</ele>
        <time>2022-05-21 07:32:44</time>
      </trkpt>
      <trkpt lat="41.99219" lon="2.81193">
        <ele>63.4</ele>
        <time>2022-05-21 07:32:45</time>
      </trkpt>
      <trkpt lat="41.99224" lon="2.81199">
        <ele>63.4</ele>
        <time>2022-05-21 07:32:46</time>
      </trkpt>
      <trkpt lat="41.99229" lon="2.81203">
        <ele>63.6</ele>
        <time>2022-05-21 07:32:47</time>
      </trkpt>
      <trkpt lat="41.99236" lon="2.81205">
        <ele>63.6</ele>
        <time>2022-05-21 07:32:48</time>
      </trkpt>
      <trkpt lat="41.99244" lon="2.81205">
        <ele>63.6</ele>
        <time>2022-05-21 07:32:49</time>
      </trkpt>
      <trkpt lat="41.99251" lon="2.81205">
        <ele>63.6</ele>
        <time>2022-05-21 07:32:50</time>
      </trkpt>
      <trkpt lat="41.99258" lon="2.81207">
        <ele>63.8</ele>
        <time>2022-05-21 07:32:51</time>
      </trkpt>
      <trkpt lat="41.99265" lon="2.81211">
        <ele>63.8</ele>
        <time>2022-05-21 07:32:52</time>
      </trkpt>
      <trkpt lat="41.9927" lon="2.81217">
        <ele>64</ele>
        <time>2022-05-21 07:32:53</time>
      </trkpt>
      <trkpt lat="41.99276" lon="2.81223">
        <ele>64</ele>
        <time>2022-05-21 07:32:54</time>
      </trkpt>
      <trkpt lat="41.99281" lon="2.81229">
        <ele>64.2</ele>
        <time>2022-05-21 07:32:55</time>
      </trkpt>
      <trkpt lat="41.99286" lon="2.81235">
        <ele>64.4</ele>
        <time>2022-05-21 07:32:56</time>
      </trkpt>
      <trkpt lat="41.99292" lon="2.81241">
        <ele>64.4</ele>
        <time>2022-05-21 07:32:57</time>
      </trkpt>
      <trkpt lat="41.99297" lon="2.81248">
        <ele>64.6</ele>
        <time>2022-05-21 07:32:58</time>
      </trkpt>
      <trkpt lat="41.99302" lon="2.81254">
        <ele>64.6</ele>
        <time>2022-05-21 07:32:59</time>
      </trkpt>
      <trkpt lat="41.99308" lon="2.8126">
        <ele>64.8</ele>
        <time>2022-05-21 07:33:00</time>
      </trkpt>
      <trkpt lat="41.99313" lon="2.81266">
        <ele>64.8</ele>
        <time>2022-05-21 07:33:01</time>
      </trkpt>
      <trkpt lat="41.99318" lon="2.81272">
        <ele>65</ele>
        <time>2022-05-21 07:33:02</time>
      </trkpt>
      <trkpt lat="41.99323" lon="2.81277">
        <ele>65</ele>
        <time>2022-05-21 07:33:03</time>
      </trkpt>
      <trkpt lat="41.99329" lon="2.81283">
        <ele>65.2</ele>
        <time>2022-05-21 07:33:04</time>
      </trkpt>
      <trkpt lat="41.99334" lon="2.81288">
        <ele>65.2</ele>
        <time>2022-05-21 07:33:05</time>
      </trkpt>
      <trkpt lat="41.99339" lon="2.81294">
        <ele>65.4</ele>
        <time>2022-05-21 07:33:06</time>
      </trkpt>
      <trkpt lat="41.99343" lon="2.813">
        <ele>65.4</ele>
        <time>2022-05-21 07:33:07</time>
      </trkpt>
      <trkpt lat="41.99348" lon="2.81305">
        <ele>65.6</ele>
        <time>2022-05-21 07:33:08</time>
      </trkpt>
      <trkpt lat="41.99353" lon="2.8131">
        <ele>65.6</ele>
        <time>2022-05-21 07:33:09</time>
      </trkpt>
      <trkpt lat="41.99358" lon="2.81316">
        <ele>65.8</ele>
        <time>2022-05-21 07:33:10</time>
      </trkpt>
      <trkpt lat="41.99363" lon="2.81321">
        <ele>65.8</ele>
        <time>2022-05-21 07:33:11</time>
      </trkpt>
      <trkpt lat="41.99367" lon="2.81327">
        <ele>66</ele>
        <time>2022-05-21 07:33:12</time>
      </trkpt>
      <trkpt lat="41.99372" lon="2.81332">
        <ele>66.2</ele>
        <time>2022-05-21 07:33:13</time>
      </trkpt>
      <trkpt lat="41.99376" lon="2.81337">
        <ele>66.2</ele>
        <time>2022-05-21 07:33:14</time>
      </trkpt>
      <trkpt lat="41.99382" lon="2.81343">
        <ele>66.4</ele>
        <time>2022-05-21 07:33:15</time>
      </trkpt>
      <trkpt lat="41.99386" lon="2.81348">
        <ele>66.4</ele>
        <time>2022-05-21 07:33:16</time>
      </trkpt>
      <trkpt lat="41.99391" lon="2.81354">
        <ele>66.6</ele>
        <time>2022-05-21 07:33:17</time>
      </trkpt>
      <trkpt lat="41.99396" lon="2.81359">
        <ele>66.6</ele>
        <time>2022-05-21 07:33:18</time>
      </trkpt>
      <trkpt lat="41.99401" lon="2.81365">
        <ele>66.8</ele>
        <time>2022-05-21 07:33:19</time>
      </trkpt>
      <trkpt lat="41.99406" lon="2.8137">
        <ele>67</ele>
        <time>2022-05-21 07:33:20</time>
      </trkpt>
      <trkpt lat="41.99411" lon="2.81375">
        <ele>67</ele>
        <time>2022-05-21 07:33:21</time>
      </trkpt>
      <trkpt lat="41.99416" lon="2.8138">
        <ele>67.2</ele>
        <time>2022-05-21 07:33:22</time>
      </trkpt>
      <trkpt lat="41.99421" lon="2.81385">
        <ele>67.2</ele>
        <time>2022-05-21 07:33:23</time>
      </trkpt>
      <trkpt lat="41.99426" lon="2.81391">
        <ele>67.4</ele>
        <time>2022-05-21 07:33:24</time>
      </trkpt>
      <trkpt lat="41.9943" lon="2.81396">
        <ele>67.4</ele>
        <time>2022-05-21 07:33:25</time>
      </trkpt>
      <trkpt lat="41.99435" lon="2.81402">
        <ele>67.6</ele>
        <time>2022-05-21 07:33:26</time>
      </trkpt>
      <trkpt lat="41.9944" lon="2.81407">
        <ele>67.6</ele>
        <time>2022-05-21 07:33:27</time>
      </trkpt>
      <trkpt lat="41.99445" lon="2.81412">
        <ele>67.8</ele>
        <time>2022-05-21 07:33:28</time>
      </trkpt>
      <trkpt lat="41.9945" lon="2.81418">
        <ele>67.8</ele>
        <time>2022-05-21 07:33:29</time>
      </trkpt>
      <trkpt lat="41.99456" lon="2.81424">
        <ele>68</ele>
        <time>2022-05-21 07:33:30</time>
      </trkpt>
      <trkpt lat="41.99461" lon="2.81429">
        <ele>68.2</ele>
        <time>2022-05-21 07:33:31</time>
      </trkpt>
      <trkpt lat="41.99465" lon="2.81434">
        <ele>68.2</ele>
        <time>2022-05-21 07:33:32</time>
      </trkpt>
      <trkpt lat="41.9947" lon="2.81439">
        <ele>68.4</ele>
        <time>2022-05-21 07:33:33</time>
      </trkpt>
      <trkpt lat="41.99475" lon="2.81445">
        <ele>68.6</ele>
        <time>2022-05-21 07:33:34</time>
      </trkpt>
      <trkpt lat="41.9948" lon="2.8145">
        <ele>68.6</ele>
        <time>2022-05-21 07:33:35</time>
      </trkpt>
      <trkpt lat="41.99485" lon="2.81455">
        <ele>68.8</ele>
        <time>2022-05-21 07:33:36</time>
      </trkpt>
      <trkpt lat="41.9949" lon="2.8146">
        <ele>68.8</ele>
        <time>2022-05-21 07:33:37</time>
      </trkpt>
      <trkpt lat="41.99495" lon="2.81466">
        <ele>69</ele>
        <time>2022-05-21 07:33:38</time>
      </trkpt>
      <trkpt lat="41.995" lon="2.81471">
        <ele>69</ele>
        <time>2022-05-21 07:33:39</time>
      </trkpt>
      <trkpt lat="41.99506" lon="2.81476">
        <ele>69.2</ele>
        <time>2022-05-21 07:33:40</time>
      </trkpt>
      <trkpt lat="41.9951" lon="2.81481">
        <ele>69.2</ele>
        <time>2022-05-21 07:33:41</time>
      </trkpt>
      <trkpt lat="41.99515" lon="2.81487">
        <ele>69.4</ele>
        <time>2022-05-21 07:33:42</time>
      </trkpt>
      <trkpt lat="41.9952" lon="2.81492">
        <ele>69.4</ele>
        <time>2022-05-21 07:33:43</time>
      </trkpt>
      <trkpt lat="41.99525" lon="2.81498">
        <ele>69.6</ele>
        <time>2022-05-21 07:33:44</time>
      </trkpt>
      <trkpt lat="41.9953" lon="2.81503">
        <ele>69.8</ele>
        <time>2022-05-21 07:33:45</time>
      </trkpt>
      <trkpt lat="41.99535" lon="2.81508">
        <ele>70</ele>
        <time>2022-05-21 07:33:46</time>
      </trkpt>
      <trkpt lat="41.9954" lon="2.81514">
        <ele>70.2</ele>
        <time>2022-05-21 07:33:47</time>
      </trkpt>
      <trkpt lat="41.99545" lon="2.81519">
        <ele>70.4</ele>
        <time>2022-05-21 07:33:48</time>
      </trkpt>
      <trkpt lat="41.99549" lon="2.81523">
        <ele>70.6</ele>
        <time>2022-05-21 07:33:49</time>
      </trkpt>
      <trkpt lat="41.99554" lon="2.81528">
        <ele>70.8</ele>
        <time>2022-05-21 07:33:50</time>
      </trkpt>
      <trkpt lat="41.99559" lon="2.81533">
        <ele>71</ele>
        <time>2022-05-21 07:33:51</time>
      </trkpt>
      <trkpt lat="41.99564" lon="2.81537">
        <ele>71.2</ele>
        <time>2022-05-21 07:33:52</time>
      </trkpt>
      <trkpt lat="41.99568" lon="2.81542">
        <ele>71.4</ele>
        <time>2022-05-21 07:33:53</time>
      </trkpt>
      <trkpt lat="41.99573" lon="2.81546">
        <ele>71.6</ele>
        <time>2022-05-21 07:33:54</time>
      </trkpt>
      <trkpt lat="41.99577" lon="2.81551">
        <ele>71.6</ele>
        <time>2022-05-21 07:33:55</time>
      </trkpt>
      <trkpt lat="41.99582" lon="2.81556">
        <ele>71.8</ele>
        <time>2022-05-21 07:33:56</time>
      </trkpt>
      <trkpt lat="41.99586" lon="2.8156">
        <ele>72</ele>
        <time>2022-05-21 07:33:57</time>
      </trkpt>
      <trkpt lat="41.99591" lon="2.81564">
        <ele>72.2</ele>
        <time>2022-05-21 07:33:58</time>
      </trkpt>
      <trkpt lat="41.99595" lon="2.81569">
        <ele>72.2</ele>
        <time>2022-05-21 07:33:59</time>
      </trkpt>
      <trkpt lat="41.996" lon="2.81573">
        <ele>72.4</ele>
        <time>2022-05-21 07:34:00</time>
      </trkpt>
      <trkpt lat="41.99605" lon="2.81576">
        <ele>72.6</ele>
        <time>2022-05-21 07:34:01</time>
      </trkpt>
      <trkpt lat="41.9961" lon="2.8158">
        <ele>72.8</ele>
        <time>2022-05-21 07:34:02</time>
      </trkpt>
      <trkpt lat="41.99615" lon="2.81584">
        <ele>72.8</ele>
        <time>2022-05-21 07:34:03</time>
      </trkpt>
      <trkpt lat="41.9962" lon="2.81587">
        <ele>73</ele>
        <time>2022-05-21 07:34:04</time>
      </trkpt>
      <trkpt lat="41.99625" lon="2.8159">
        <ele>73.2</ele>
        <time>2022-05-21 07:34:05</time>
      </trkpt>
      <trkpt lat="41.99631" lon="2.81593">
        <ele>73.2</ele>
        <time>2022-05-21 07:34:06</time>
      </trkpt>
      <trkpt lat="41.99636" lon="2.81596">
        <ele>73.4</ele>
        <time>2022-05-21 07:34:07</time>
      </trkpt>
      <trkpt lat="41.99641" lon="2.81598">
        <ele>73.4</ele>
        <time>2022-05-21 07:34:08</time>
      </trkpt>
      <trkpt lat="41.99646" lon="2.81601">
        <ele>73.6</ele>
        <time>2022-05-21 07:34:09</time>
      </trkpt>
      <trkpt lat="41.99651" lon="2.81604">
        <ele>73.6</ele>
        <time>2022-05-21 07:34:10</time>
      </trkpt>
      <trkpt lat="41.99655" lon="2.81606">
        <ele>73.8</ele>
        <time>2022-05-21 07:34:11</time>
      </trkpt>
      <trkpt lat="41.9966" lon="2.81608">
        <ele>73.8</ele>
        <time>2022-05-21 07:34:12</time>
      </trkpt>
      <trkpt lat="41.99664" lon="2.81611">
        <ele>74</ele>
        <time>2022-05-21 07:34:13</time>
      </trkpt>
      <trkpt lat="41.99669" lon="2.81613">
        <ele>74</ele>
        <time>2022-05-21 07:34:14</time>
      </trkpt>
      <trkpt lat="41.99673" lon="2.81615">
        <ele>74</ele>
        <time>2022-05-21 07:34:15</time>
      </trkpt>
      <trkpt lat="41.99678" lon="2.81618">
        <ele>74</ele>
        <time>2022-05-21 07:34:16</time>
      </trkpt>
      <trkpt lat="41.99683" lon="2.8162">
        <ele>74</ele>
        <time>2022-05-21 07:34:17</time>
      </trkpt>
      <trkpt lat="41.99689" lon="2.81623">
        <ele>74</ele>
        <time>2022-05-21 07:34:18</time>
      </trkpt>
      <trkpt lat="41.99694" lon="2.81625">
        <ele>74</ele>
        <time>2022-05-21 07:34:19</time>
      </trkpt>
      <trkpt lat="41.99701" lon="2.81628">
        <ele>74</ele>
        <time>2022-05-21 07:34:20</time>
      </trkpt>
      <trkpt lat="41.99707" lon="2.81631">
        <ele>74</ele>
        <time>2022-05-21 07:34:21</time>
      </trkpt>
      <trkpt lat="41.99713" lon="2.81633">
        <ele>73.8</ele>
        <time>2022-05-21 07:34:22</time>
      </trkpt>
      <trkpt lat="41.99719" lon="2.81636">
        <ele>73.6</ele>
        <time>2022-05-21 07:34:23</time>
      </trkpt>
      <trkpt lat="41.99726" lon="2.8164">
        <ele>73.4</ele>
        <time>2022-05-21 07:34:24</time>
      </trkpt>
      <trkpt lat="41.99733" lon="2.81643">
        <ele>73.4</ele>
        <time>2022-05-21 07:34:25</time>
      </trkpt>
      <trkpt lat="41.99739" lon="2.81646">
        <ele>73.2</ele>
        <time>2022-05-21 07:34:26</time>
      </trkpt>
      <trkpt lat="41.99746" lon="2.81649">
        <ele>73</ele>
        <time>2022-05-21 07:34:27</time>
      </trkpt>
      <trkpt lat="41.99754" lon="2.81652">
        <ele>72.8</ele>
        <time>2022-05-21 07:34:28</time>
      </trkpt>
      <trkpt lat="41.99761" lon="2.81655">
        <ele>72.6</ele>
        <time>2022-05-21 07:34:29</time>
      </trkpt>
      <trkpt lat="41.99769" lon="2.81658">
        <ele>72.2</ele>
        <time>2022-05-21 07:34:30</time>
      </trkpt>
      <trkpt lat="41.99777" lon="2.81662">
        <ele>72</ele>
        <time>2022-05-21 07:34:31</time>
      </trkpt>
      <trkpt lat="41.99785" lon="2.81665">
        <ele>71.6</ele>
        <time>2022-05-21 07:34:32</time>
      </trkpt>
      <trkpt lat="41.99794" lon="2.81669">
        <ele>71.4</ele>
        <time>2022-05-21 07:34:33</time>
      </trkpt>
      <trkpt lat="41.99802" lon="2.81672">
        <ele>71</ele>
        <time>2022-05-21 07:34:34</time>
      </trkpt>
      <trkpt lat="41.9981" lon="2.81676">
        <ele>70.6</ele>
        <time>2022-05-21 07:34:35</time>
      </trkpt>
      <trkpt lat="41.99819" lon="2.8168">
        <ele>70.2</ele>
        <time>2022-05-21 07:34:36</time>
      </trkpt>
      <trkpt lat="41.99828" lon="2.81684">
        <ele>69.8</ele>
        <time>2022-05-21 07:34:37</time>
      </trkpt>
      <trkpt lat="41.99837" lon="2.81688">
        <ele>69.2</ele>
        <time>2022-05-21 07:34:38</time>
      </trkpt>
      <trkpt lat="41.99846" lon="2.81692">
        <ele>68.6</ele>
        <time>2022-05-21 07:34:39</time>
      </trkpt>
      <trkpt lat="41.99855" lon="2.81697">
        <ele>68.2</ele>
        <time>2022-05-21 07:34:40</time>
      </trkpt>
      <trkpt lat="41.99865" lon="2.81701">
        <ele>67.6</ele>
        <time>2022-05-21 07:34:41</time>
      </trkpt>
      <trkpt lat="41.99874" lon="2.81706">
        <ele>67.2</ele>
        <time>2022-05-21 07:34:42</time>
      </trkpt>
      <trkpt lat="41.99883" lon="2.8171">
        <ele>66.8</ele>
        <time>2022-05-21 07:34:43</time>
      </trkpt>
      <trkpt lat="41.99893" lon="2.81715">
        <ele>66.4</ele>
        <time>2022-05-21 07:34:44</time>
      </trkpt>
      <trkpt lat="41.99903" lon="2.8172">
        <ele>66</ele>
        <time>2022-05-21 07:34:45</time>
      </trkpt>
      <trkpt lat="41.99913" lon="2.81725">
        <ele>65.6</ele>
        <time>2022-05-21 07:34:46</time>
      </trkpt>
      <trkpt lat="41.99923" lon="2.8173">
        <ele>65.2</ele>
        <time>2022-05-21 07:34:47</time>
      </trkpt>
      <trkpt lat="41.99932" lon="2.81735">
        <ele>64.8</ele>
        <time>2022-05-21 07:34:48</time>
      </trkpt>
      <trkpt lat="41.99943" lon="2.8174">
        <ele>64.6</ele>
        <time>2022-05-21 07:34:49</time>
      </trkpt>
      <trkpt lat="41.99953" lon="2.81745">
        <ele>64.2</ele>
        <time>2022-05-21 07:34:50</time>
      </trkpt>
      <trkpt lat="41.99961" lon="2.81754">
        <ele>64</ele>
        <time>2022-05-21 07:34:51</time>
      </trkpt>
      <trkpt lat="41.99966" lon="2.81765">
        <ele>63.8</ele>
        <time>2022-05-21 07:34:52</time>
      </trkpt>
      <trkpt lat="41.99971" lon="2.81775">
        <ele>63.6</ele>
        <time>2022-05-21 07:34:53</time>
      </trkpt>
      <trkpt lat="41.99978" lon="2.81782">
        <ele>63.4</ele>
        <time>2022-05-21 07:34:54</time>
      </trkpt>
      <trkpt lat="41.99986" lon="2.81785">
        <ele>63.4</ele>
        <time>2022-05-21 07:34:55</time>
      </trkpt>
      <trkpt lat="41.99993" lon="2.81783">
        <ele>63.2</ele>
        <time>2022-05-21 07:34:56</time>
      </trkpt>
      <trkpt lat="41.99999" lon="2.81777">
        <ele>63.2</ele>
        <time>2022-05-21 07:34:57</time>
      </trkpt>
      <trkpt lat="42.00003" lon="2.8177">
        <ele>63.2</ele>
        <time>2022-05-21 07:34:58</time>
      </trkpt>
      <trkpt lat="42.00007" lon="2.81761">
        <ele>63</ele>
        <time>2022-05-21 07:34:59</time>
      </trkpt>
      <trkpt lat="42.0001" lon="2.81751">
        <ele>63</ele>
        <time>2022-05-21 07:35:00</time>
      </trkpt>
      <trkpt lat="42.00012" lon="2.81742">
        <ele>62.8</ele>
        <time>2022-05-21 07:35:01</time>
      </trkpt>
      <trkpt lat="42.00015" lon="2.81732">
        <ele>62.8</ele>
        <time>2022-05-21 07:35:02</time>
      </trkpt>
      <trkpt lat="42.0002" lon="2.81722">
        <ele>62.6</ele>
        <time>2022-05-21 07:35:03</time>
      </trkpt>
      <trkpt lat="42.00026" lon="2.81714">
        <ele>62.4</ele>
        <time>2022-05-21 07:35:04</time>
      </trkpt>
      <trkpt lat="42.00032" lon="2.81707">
        <ele>62.2</ele>
        <time>2022-05-21 07:35:05</time>
      </trkpt>
      <trkpt lat="42.00039" lon="2.81701">
        <ele>62.2</ele>
        <time>2022-05-21 07:35:06</time>
      </trkpt>
      <trkpt lat="42.00046" lon="2.81696">
        <ele>62</ele>
        <time>2022-05-21 07:35:07</time>
      </trkpt>
      <trkpt lat="42.00053" lon="2.8169">
        <ele>61.8</ele>
        <time>2022-05-21 07:35:08</time>
      </trkpt>
      <trkpt lat="42.00061" lon="2.81684">
        <ele>61.6</ele>
        <time>2022-05-21 07:35:09</time>
      </trkpt>
      <trkpt lat="42.00068" lon="2.81679">
        <ele>61.6</ele>
        <time>2022-05-21 07:35:10</time>
      </trkpt>
      <trkpt lat="42.00076" lon="2.81674">
        <ele>61.4</ele>
        <time>2022-05-21 07:35:11</time>
      </trkpt>
      <trkpt lat="42.00084" lon="2.81669">
        <ele>61.2</ele>
        <time>2022-05-21 07:35:12</time>
      </trkpt>
      <trkpt lat="42.00092" lon="2.81664">
        <ele>61.2</ele>
        <time>2022-05-21 07:35:13</time>
      </trkpt>
      <trkpt lat="42.001" lon="2.8166">
        <ele>61</ele>
        <time>2022-05-21 07:35:14</time>
      </trkpt>
      <trkpt lat="42.00107" lon="2.81655">
        <ele>60.8</ele>
        <time>2022-05-21 07:35:15</time>
      </trkpt>
      <trkpt lat="42.00116" lon="2.81651">
        <ele>60.8</ele>
        <time>2022-05-21 07:35:16</time>
      </trkpt>
      <trkpt lat="42.00124" lon="2.81648">
        <ele>60.6</ele>
        <time>2022-05-21 07:35:17</time>
      </trkpt>
      <trkpt lat="42.00132" lon="2.81645">
        <ele>60.4</ele>
        <time>2022-05-21 07:35:18</time>
      </trkpt>
      <trkpt lat="42.00141" lon="2.81642">
        <ele>60.4</ele>
        <time>2022-05-21 07:35:19</time>
      </trkpt>
      <trkpt lat="42.0015" lon="2.8164">
        <ele>60.2</ele>
        <time>2022-05-21 07:35:20</time>
      </trkpt>
      <trkpt lat="42.00158" lon="2.81637">
        <ele>60</ele>
        <time>2022-05-21 07:35:21</time>
      </trkpt>
      <trkpt lat="42.00166" lon="2.81636">
        <ele>60</ele>
        <time>2022-05-21 07:35:22</time>
      </trkpt>
      <trkpt lat="42.00175" lon="2.81634">
        <ele>59.8</ele>
        <time>2022-05-21 07:35:23</time>
      </trkpt>
      <trkpt lat="42.00183" lon="2.81632">
        <ele>59.8</ele>
        <time>2022-05-21 07:35:24</time>
      </trkpt>
      <trkpt lat="42.00191" lon="2.8163">
        <ele>59.6</ele>
        <time>2022-05-21 07:35:25</time>
      </trkpt>
      <trkpt lat="42.002" lon="2.81628">
        <ele>59.6</ele>
        <time>2022-05-21 07:35:26</time>
      </trkpt>
      <trkpt lat="42.00208" lon="2.81626">
        <ele>59.6</ele>
        <time>2022-05-21 07:35:27</time>
      </trkpt>
      <trkpt lat="42.00216" lon="2.81625">
        <ele>59.6</ele>
        <time>2022-05-21 07:35:28</time>
      </trkpt>
      <trkpt lat="42.00224" lon="2.81623">
        <ele>59.4</ele>
        <time>2022-05-21 07:35:29</time>
      </trkpt>
      <trkpt lat="42.00233" lon="2.81621">
        <ele>59.4</ele>
        <time>2022-05-21 07:35:30</time>
      </trkpt>
      <trkpt lat="42.00242" lon="2.81619">
        <ele>59.4</ele>
        <time>2022-05-21 07:35:31</time>
      </trkpt>
      <trkpt lat="42.00251" lon="2.81617">
        <ele>59.4</ele>
        <time>2022-05-21 07:35:32</time>
      </trkpt>
      <trkpt lat="42.0026" lon="2.81615">
        <ele>59.2</ele>
        <time>2022-05-21 07:35:33</time>
      </trkpt>
      <trkpt lat="42.00269" lon="2.81613">
        <ele>59.2</ele>
        <time>2022-05-21 07:35:34</time>
      </trkpt>
      <trkpt lat="42.00277" lon="2.81612">
        <ele>59</ele>
        <time>2022-05-21 07:35:35</time>
      </trkpt>
      <trkpt lat="42.00286" lon="2.81611">
        <ele>58.8</ele>
        <time>2022-05-21 07:35:36</time>
      </trkpt>
      <trkpt lat="42.00296" lon="2.8161">
        <ele>58.8</ele>
        <time>2022-05-21 07:35:37</time>
      </trkpt>
      <trkpt lat="42.00305" lon="2.8161">
        <ele>58.6</ele>
        <time>2022-05-21 07:35:38</time>
      </trkpt>
      <trkpt lat="42.00315" lon="2.81611">
        <ele>58.6</ele>
        <time>2022-05-21 07:35:39</time>
      </trkpt>
      <trkpt lat="42.00323" lon="2.81612">
        <ele>58.4</ele>
        <time>2022-05-21 07:35:40</time>
      </trkpt>
      <trkpt lat="42.00333" lon="2.81613">
        <ele>58.4</ele>
        <time>2022-05-21 07:35:41</time>
      </trkpt>
      <trkpt lat="42.00342" lon="2.81615">
        <ele>58.2</ele>
        <time>2022-05-21 07:35:42</time>
      </trkpt>
      <trkpt lat="42.00351" lon="2.81616">
        <ele>58.2</ele>
        <time>2022-05-21 07:35:43</time>
      </trkpt>
      <trkpt lat="42.0036" lon="2.81617">
        <ele>58</ele>
        <time>2022-05-21 07:35:44</time>
      </trkpt>
      <trkpt lat="42.00369" lon="2.81619">
        <ele>57.8</ele>
        <time>2022-05-21 07:35:45</time>
      </trkpt>
      <trkpt lat="42.00378" lon="2.8162">
        <ele>57.8</ele>
        <time>2022-05-21 07:35:46</time>
      </trkpt>
      <trkpt lat="42.00386" lon="2.81621">
        <ele>57.6</ele>
        <time>2022-05-21 07:35:47</time>
      </trkpt>
      <trkpt lat="42.00395" lon="2.81622">
        <ele>57.6</ele>
        <time>2022-05-21 07:35:48</time>
      </trkpt>
      <trkpt lat="42.00404" lon="2.81623">
        <ele>57.6</ele>
        <time>2022-05-21 07:35:49</time>
      </trkpt>
      <trkpt lat="42.00413" lon="2.81625">
        <ele>57.4</ele>
        <time>2022-05-21 07:35:50</time>
      </trkpt>
      <trkpt lat="42.00422" lon="2.81626">
        <ele>57.4</ele>
        <time>2022-05-21 07:35:51</time>
      </trkpt>
      <trkpt lat="42.0043" lon="2.81628">
        <ele>57.4</ele>
        <time>2022-05-21 07:35:52</time>
      </trkpt>
      <trkpt lat="42.00439" lon="2.8163">
        <ele>57.2</ele>
        <time>2022-05-21 07:35:53</time>
      </trkpt>
      <trkpt lat="42.00448" lon="2.81631">
        <ele>57.2</ele>
        <time>2022-05-21 07:35:54</time>
      </trkpt>
      <trkpt lat="42.00457" lon="2.81632">
        <ele>57.2</ele>
        <time>2022-05-21 07:35:55</time>
      </trkpt>
      <trkpt lat="42.00466" lon="2.81633">
        <ele>57</ele>
        <time>2022-05-21 07:35:56</time>
      </trkpt>
      <trkpt lat="42.00475" lon="2.81635">
        <ele>57</ele>
        <time>2022-05-21 07:35:57</time>
      </trkpt>
      <trkpt lat="42.00484" lon="2.81636">
        <ele>57</ele>
        <time>2022-05-21 07:35:58</time>
      </trkpt>
      <trkpt lat="42.00492" lon="2.81638">
        <ele>56.8</ele>
        <time>2022-05-21 07:35:59</time>
      </trkpt>
      <trkpt lat="42.00501" lon="2.81639">
        <ele>56.8</ele>
        <time>2022-05-21 07:36:00</time>
      </trkpt>
      <trkpt lat="42.0051" lon="2.8164">
        <ele>56.8</ele>
        <time>2022-05-21 07:36:01</time>
      </trkpt>
      <trkpt lat="42.00519" lon="2.81642">
        <ele>56.6</ele>
        <time>2022-05-21 07:36:02</time>
      </trkpt>
      <trkpt lat="42.00528" lon="2.81643">
        <ele>56.6</ele>
        <time>2022-05-21 07:36:03</time>
      </trkpt>
      <trkpt lat="42.00536" lon="2.81645">
        <ele>56.6</ele>
        <time>2022-05-21 07:36:04</time>
      </trkpt>
      <trkpt lat="42.00545" lon="2.81646">
        <ele>56.6</ele>
        <time>2022-05-21 07:36:05</time>
      </trkpt>
      <trkpt lat="42.00554" lon="2.81647">
        <ele>56.6</ele>
        <time>2022-05-21 07:36:06</time>
      </trkpt>
      <trkpt lat="42.00562" lon="2.81648">
        <ele>56.4</ele>
        <time>2022-05-21 07:36:07</time>
      </trkpt>
      <trkpt lat="42.0057" lon="2.81649">
        <ele>56.4</ele>
        <time>2022-05-21 07:36:08</time>
      </trkpt>
      <trkpt lat="42.00579" lon="2.8165">
        <ele>56.2</ele>
        <time>2022-05-21 07:36:09</time>
      </trkpt>
      <trkpt lat="42.00588" lon="2.81652">
        <ele>56.2</ele>
        <time>2022-05-21 07:36:10</time>
      </trkpt>
      <trkpt lat="42.00597" lon="2.81654">
        <ele>56</ele>
        <time>2022-05-21 07:36:11</time>
      </trkpt>
      <trkpt lat="42.00606" lon="2.81656">
        <ele>55.8</ele>
        <time>2022-05-21 07:36:12</time>
      </trkpt>
      <trkpt lat="42.00615" lon="2.81657">
        <ele>55.8</ele>
        <time>2022-05-21 07:36:13</time>
      </trkpt>
      <trkpt lat="42.00624" lon="2.81658">
        <ele>55.6</ele>
        <time>2022-05-21 07:36:14</time>
      </trkpt>
      <trkpt lat="42.00632" lon="2.81659">
        <ele>55.6</ele>
        <time>2022-05-21 07:36:15</time>
      </trkpt>
      <trkpt lat="42.00641" lon="2.8166">
        <ele>55.4</ele>
        <time>2022-05-21 07:36:16</time>
      </trkpt>
      <trkpt lat="42.0065" lon="2.81662">
        <ele>55.4</ele>
        <time>2022-05-21 07:36:17</time>
      </trkpt>
      <trkpt lat="42.00658" lon="2.81662">
        <ele>55.4</ele>
        <time>2022-05-21 07:36:18</time>
      </trkpt>
      <trkpt lat="42.00668" lon="2.81663">
        <ele>55.2</ele>
        <time>2022-05-21 07:36:19</time>
      </trkpt>
      <trkpt lat="42.00677" lon="2.81664">
        <ele>55.2</ele>
        <time>2022-05-21 07:36:20</time>
      </trkpt>
      <trkpt lat="42.00685" lon="2.81666">
        <ele>55</ele>
        <time>2022-05-21 07:36:21</time>
      </trkpt>
      <trkpt lat="42.00693" lon="2.81667">
        <ele>55</ele>
        <time>2022-05-21 07:36:22</time>
      </trkpt>
      <trkpt lat="42.00702" lon="2.81668">
        <ele>54.8</ele>
        <time>2022-05-21 07:36:23</time>
      </trkpt>
      <trkpt lat="42.00711" lon="2.81668">
        <ele>54.8</ele>
        <time>2022-05-21 07:36:24</time>
      </trkpt>
      <trkpt lat="42.0072" lon="2.81669">
        <ele>54.6</ele>
        <time>2022-05-21 07:36:25</time>
      </trkpt>
      <trkpt lat="42.00729" lon="2.81671">
        <ele>54.6</ele>
        <time>2022-05-21 07:36:26</time>
      </trkpt>
      <trkpt lat="42.00737" lon="2.81672">
        <ele>54.4</ele>
        <time>2022-05-21 07:36:27</time>
      </trkpt>
      <trkpt lat="42.00746" lon="2.81674">
        <ele>54.4</ele>
        <time>2022-05-21 07:36:28</time>
      </trkpt>
      <trkpt lat="42.00755" lon="2.81676">
        <ele>54.2</ele>
        <time>2022-05-21 07:36:29</time>
      </trkpt>
      <trkpt lat="42.00763" lon="2.81677">
        <ele>54.2</ele>
        <time>2022-05-21 07:36:30</time>
      </trkpt>
      <trkpt lat="42.00772" lon="2.81679">
        <ele>54.2</ele>
        <time>2022-05-21 07:36:31</time>
      </trkpt>
      <trkpt lat="42.0078" lon="2.8168">
        <ele>54</ele>
        <time>2022-05-21 07:36:32</time>
      </trkpt>
      <trkpt lat="42.00788" lon="2.81682">
        <ele>54</ele>
        <time>2022-05-21 07:36:33</time>
      </trkpt>
      <trkpt lat="42.00798" lon="2.81684">
        <ele>54</ele>
        <time>2022-05-21 07:36:34</time>
      </trkpt>
      <trkpt lat="42.00807" lon="2.81685">
        <ele>54</ele>
        <time>2022-05-21 07:36:35</time>
      </trkpt>
      <trkpt lat="42.00816" lon="2.81687">
        <ele>54</ele>
        <time>2022-05-21 07:36:36</time>
      </trkpt>
      <trkpt lat="42.00824" lon="2.81689">
        <ele>54</ele>
        <time>2022-05-21 07:36:37</time>
      </trkpt>
      <trkpt lat="42.00832" lon="2.8169">
        <ele>54</ele>
        <time>2022-05-21 07:36:38</time>
      </trkpt>
      <trkpt lat="42.00841" lon="2.8169">
        <ele>54</ele>
        <time>2022-05-21 07:36:39</time>
      </trkpt>
      <trkpt lat="42.00849" lon="2.81692">
        <ele>54</ele>
        <time>2022-05-21 07:36:40</time>
      </trkpt>
      <trkpt lat="42.00857" lon="2.81693">
        <ele>54.2</ele>
        <time>2022-05-21 07:36:41</time>
      </trkpt>
      <trkpt lat="42.00865" lon="2.81695">
        <ele>54.2</ele>
        <time>2022-05-21 07:36:42</time>
      </trkpt>
      <trkpt lat="42.00873" lon="2.81698">
        <ele>54.2</ele>
        <time>2022-05-21 07:36:43</time>
      </trkpt>
      <trkpt lat="42.0088" lon="2.81702">
        <ele>54.2</ele>
        <time>2022-05-21 07:36:44</time>
      </trkpt>
      <trkpt lat="42.00887" lon="2.81708">
        <ele>54.4</ele>
        <time>2022-05-21 07:36:45</time>
      </trkpt>
      <trkpt lat="42.00894" lon="2.81714">
        <ele>54.4</ele>
        <time>2022-05-21 07:36:46</time>
      </trkpt>
      <trkpt lat="42.00901" lon="2.81719">
        <ele>54.6</ele>
        <time>2022-05-21 07:36:47</time>
      </trkpt>
      <trkpt lat="42.00909" lon="2.8172">
        <ele>54.6</ele>
        <time>2022-05-21 07:36:48</time>
      </trkpt>
      <trkpt lat="42.00917" lon="2.8172">
        <ele>54.6</ele>
        <time>2022-05-21 07:36:49</time>
      </trkpt>
      <trkpt lat="42.00924" lon="2.81718">
        <ele>54.8</ele>
        <time>2022-05-21 07:36:50</time>
      </trkpt>
      <trkpt lat="42.00932" lon="2.81716">
        <ele>54.8</ele>
        <time>2022-05-21 07:36:51</time>
      </trkpt>
      <trkpt lat="42.00939" lon="2.81713">
        <ele>55</ele>
        <time>2022-05-21 07:36:52</time>
      </trkpt>
      <trkpt lat="42.00946" lon="2.81712">
        <ele>55.2</ele>
        <time>2022-05-21 07:36:53</time>
      </trkpt>
      <trkpt lat="42.00954" lon="2.81711">
        <ele>55.2</ele>
        <time>2022-05-21 07:36:54</time>
      </trkpt>
      <trkpt lat="42.00961" lon="2.81712">
        <ele>55.4</ele>
        <time>2022-05-21 07:36:55</time>
      </trkpt>
      <trkpt lat="42.00967" lon="2.81712">
        <ele>55.6</ele>
        <time>2022-05-21 07:36:56</time>
      </trkpt>
      <trkpt lat="42.00974" lon="2.81713">
        <ele>55.6</ele>
        <time>2022-05-21 07:36:57</time>
      </trkpt>
      <trkpt lat="42.0098" lon="2.81714">
        <ele>55.8</ele>
        <time>2022-05-21 07:36:58</time>
      </trkpt>
      <trkpt lat="42.00986" lon="2.81715">
        <ele>56</ele>
        <time>2022-05-21 07:36:59</time>
      </trkpt>
      <trkpt lat="42.00993" lon="2.81716">
        <ele>56.2</ele>
        <time>2022-05-21 07:37:00</time>
      </trkpt>
      <trkpt lat="42.00999" lon="2.81717">
        <ele>56.2</ele>
        <time>2022-05-21 07:37:01</time>
      </trkpt>
      <trkpt lat="42.01005" lon="2.81717">
        <ele>56.4</ele>
        <time>2022-05-21 07:37:02</time>
      </trkpt>
      <trkpt lat="42.01012" lon="2.81719">
        <ele>56.4</ele>
        <time>2022-05-21 07:37:03</time>
      </trkpt>
      <trkpt lat="42.01019" lon="2.8172">
        <ele>56.6</ele>
        <time>2022-05-21 07:37:04</time>
      </trkpt>
      <trkpt lat="42.01026" lon="2.81722">
        <ele>56.6</ele>
        <time>2022-05-21 07:37:05</time>
      </trkpt>
      <trkpt lat="42.01032" lon="2.81724">
        <ele>56.6</ele>
        <time>2022-05-21 07:37:06</time>
      </trkpt>
      <trkpt lat="42.01039" lon="2.81725">
        <ele>56.8</ele>
        <time>2022-05-21 07:37:07</time>
      </trkpt>
      <trkpt lat="42.01046" lon="2.81726">
        <ele>56.8</ele>
        <time>2022-05-21 07:37:08</time>
      </trkpt>
      <trkpt lat="42.01053" lon="2.81727">
        <ele>56.8</ele>
        <time>2022-05-21 07:37:09</time>
      </trkpt>
      <trkpt lat="42.0106" lon="2.81728">
        <ele>57</ele>
        <time>2022-05-21 07:37:10</time>
      </trkpt>
      <trkpt lat="42.01067" lon="2.81729">
        <ele>57</ele>
        <time>2022-05-21 07:37:11</time>
      </trkpt>
      <trkpt lat="42.01074" lon="2.8173">
        <ele>57.2</ele>
        <time>2022-05-21 07:37:12</time>
      </trkpt>
      <trkpt lat="42.01081" lon="2.81731">
        <ele>57.2</ele>
        <time>2022-05-21 07:37:13</time>
      </trkpt>
      <trkpt lat="42.01087" lon="2.81732">
        <ele>57.4</ele>
        <time>2022-05-21 07:37:14</time>
      </trkpt>
      <trkpt lat="42.01094" lon="2.81733">
        <ele>57.4</ele>
        <time>2022-05-21 07:37:15</time>
      </trkpt>
      <trkpt lat="42.011" lon="2.81734">
        <ele>57.4</ele>
        <time>2022-05-21 07:37:16</time>
      </trkpt>
      <trkpt lat="42.01108" lon="2.81735">
        <ele>57.4</ele>
        <time>2022-05-21 07:37:17</time>
      </trkpt>
      <trkpt lat="42.01115" lon="2.81736">
        <ele>57.4</ele>
        <time>2022-05-21 07:37:18</time>
      </trkpt>
      <trkpt lat="42.01121" lon="2.81738">
        <ele>57.4</ele>
        <time>2022-05-21 07:37:19</time>
      </trkpt>
      <trkpt lat="42.01127" lon="2.81739">
        <ele>57.4</ele>
        <time>2022-05-21 07:37:20</time>
      </trkpt>
      <trkpt lat="42.01136" lon="2.8174">
        <ele>57.4</ele>
        <time>2022-05-21 07:37:21</time>
      </trkpt>
      <trkpt lat="42.01143" lon="2.81741">
        <ele>57.4</ele>
        <time>2022-05-21 07:37:22</time>
      </trkpt>
      <trkpt lat="42.01149" lon="2.81743">
        <ele>57.4</ele>
        <time>2022-05-21 07:37:23</time>
      </trkpt>
      <trkpt lat="42.01155" lon="2.81744">
        <ele>57.4</ele>
        <time>2022-05-21 07:37:24</time>
      </trkpt>
      <trkpt lat="42.01163" lon="2.81745">
        <ele>57.4</ele>
        <time>2022-05-21 07:37:25</time>
      </trkpt>
      <trkpt lat="42.01168" lon="2.81746">
        <ele>57.4</ele>
        <time>2022-05-21 07:37:26</time>
      </trkpt>
      <trkpt lat="42.01177" lon="2.81748">
        <ele>57.4</ele>
        <time>2022-05-21 07:37:27</time>
      </trkpt>
      <trkpt lat="42.01182" lon="2.81749">
        <ele>57.4</ele>
        <time>2022-05-21 07:37:28</time>
      </trkpt>
      <trkpt lat="42.01192" lon="2.81751">
        <ele>57.4</ele>
        <time>2022-05-21 07:37:29</time>
      </trkpt>
      <trkpt lat="42.012" lon="2.81753">
        <ele>57.4</ele>
        <time>2022-05-21 07:37:30</time>
      </trkpt>
      <trkpt lat="42.01207" lon="2.81754">
        <ele>57.2</ele>
        <time>2022-05-21 07:37:31</time>
      </trkpt>
      <trkpt lat="42.01215" lon="2.81756">
        <ele>57.2</ele>
        <time>2022-05-21 07:37:32</time>
      </trkpt>
      <trkpt lat="42.01221" lon="2.81758">
        <ele>57.2</ele>
        <time>2022-05-21 07:37:33</time>
      </trkpt>
      <trkpt lat="42.01229" lon="2.8176">
        <ele>57.2</ele>
        <time>2022-05-21 07:37:34</time>
      </trkpt>
      <trkpt lat="42.01234" lon="2.81762">
        <ele>57.2</ele>
        <time>2022-05-21 07:37:35</time>
      </trkpt>
      <trkpt lat="42.01244" lon="2.81764">
        <ele>57.2</ele>
        <time>2022-05-21 07:37:36</time>
      </trkpt>
      <trkpt lat="42.01252" lon="2.81766">
        <ele>57.2</ele>
        <time>2022-05-21 07:37:37</time>
      </trkpt>
      <trkpt lat="42.01259" lon="2.81768">
        <ele>57.2</ele>
        <time>2022-05-21 07:37:38</time>
      </trkpt>
      <trkpt lat="42.01266" lon="2.8177">
        <ele>57.2</ele>
        <time>2022-05-21 07:37:39</time>
      </trkpt>
      <trkpt lat="42.01274" lon="2.81772">
        <ele>57.2</ele>
        <time>2022-05-21 07:37:40</time>
      </trkpt>
      <trkpt lat="42.01281" lon="2.81774">
        <ele>57.2</ele>
        <time>2022-05-21 07:37:41</time>
      </trkpt>
      <trkpt lat="42.01289" lon="2.81777">
        <ele>57.2</ele>
        <time>2022-05-21 07:37:42</time>
      </trkpt>
      <trkpt lat="42.01295" lon="2.81779">
        <ele>57.2</ele>
        <time>2022-05-21 07:37:43</time>
      </trkpt>
      <trkpt lat="42.01302" lon="2.81782">
        <ele>57.2</ele>
        <time>2022-05-21 07:37:44</time>
      </trkpt>
      <trkpt lat="42.01309" lon="2.81785">
        <ele>57.2</ele>
        <time>2022-05-21 07:37:45</time>
      </trkpt>
      <trkpt lat="42.01314" lon="2.81787">
        <ele>57.2</ele>
        <time>2022-05-21 07:37:46</time>
      </trkpt>
      <trkpt lat="42.01324" lon="2.81791">
        <ele>57.2</ele>
        <time>2022-05-21 07:37:47</time>
      </trkpt>
      <trkpt lat="42.01332" lon="2.81795">
        <ele>57.2</ele>
        <time>2022-05-21 07:37:48</time>
      </trkpt>
      <trkpt lat="42.01339" lon="2.81798">
        <ele>57.2</ele>
        <time>2022-05-21 07:37:49</time>
      </trkpt>
      <trkpt lat="42.01345" lon="2.81802">
        <ele>57.2</ele>
        <time>2022-05-21 07:37:50</time>
      </trkpt>
      <trkpt lat="42.01352" lon="2.81805">
        <ele>57.2</ele>
        <time>2022-05-21 07:37:51</time>
      </trkpt>
      <trkpt lat="42.01359" lon="2.81809">
        <ele>57.2</ele>
        <time>2022-05-21 07:37:52</time>
      </trkpt>
      <trkpt lat="42.01366" lon="2.81813">
        <ele>57.2</ele>
        <time>2022-05-21 07:37:53</time>
      </trkpt>
      <trkpt lat="42.01373" lon="2.81817">
        <ele>57.2</ele>
        <time>2022-05-21 07:37:54</time>
      </trkpt>
      <trkpt lat="42.0138" lon="2.81821">
        <ele>57.2</ele>
        <time>2022-05-21 07:37:55</time>
      </trkpt>
      <trkpt lat="42.01388" lon="2.81825">
        <ele>57.2</ele>
        <time>2022-05-21 07:37:56</time>
      </trkpt>
      <trkpt lat="42.01395" lon="2.81829">
        <ele>57.2</ele>
        <time>2022-05-21 07:37:57</time>
      </trkpt>
      <trkpt lat="42.01402" lon="2.81832">
        <ele>57.2</ele>
        <time>2022-05-21 07:37:58</time>
      </trkpt>
      <trkpt lat="42.0141" lon="2.81836">
        <ele>57.2</ele>
        <time>2022-05-21 07:37:59</time>
      </trkpt>
      <trkpt lat="42.01417" lon="2.8184">
        <ele>57</ele>
        <time>2022-05-21 07:38:00</time>
      </trkpt>
      <trkpt lat="42.01425" lon="2.81844">
        <ele>57</ele>
        <time>2022-05-21 07:38:01</time>
      </trkpt>
      <trkpt lat="42.01432" lon="2.81848">
        <ele>57</ele>
        <time>2022-05-21 07:38:02</time>
      </trkpt>
      <trkpt lat="42.01439" lon="2.81853">
        <ele>57</ele>
        <time>2022-05-21 07:38:03</time>
      </trkpt>
      <trkpt lat="42.01447" lon="2.81858">
        <ele>57</ele>
        <time>2022-05-21 07:38:04</time>
      </trkpt>
      <trkpt lat="42.01454" lon="2.81863">
        <ele>57</ele>
        <time>2022-05-21 07:38:05</time>
      </trkpt>
      <trkpt lat="42.01461" lon="2.81867">
        <ele>57</ele>
        <time>2022-05-21 07:38:06</time>
      </trkpt>
      <trkpt lat="42.01468" lon="2.81872">
        <ele>57</ele>
        <time>2022-05-21 07:38:07</time>
      </trkpt>
      <trkpt lat="42.01476" lon="2.81877">
        <ele>57</ele>
        <time>2022-05-21 07:38:08</time>
      </trkpt>
      <trkpt lat="42.01483" lon="2.81882">
        <ele>57</ele>
        <time>2022-05-21 07:38:09</time>
      </trkpt>
      <trkpt lat="42.0149" lon="2.81887">
        <ele>57.2</ele>
        <time>2022-05-21 07:38:10</time>
      </trkpt>
      <trkpt lat="42.01497" lon="2.81892">
        <ele>57.2</ele>
        <time>2022-05-21 07:38:11</time>
      </trkpt>
      <trkpt lat="42.01503" lon="2.81897">
        <ele>57.2</ele>
        <time>2022-05-21 07:38:12</time>
      </trkpt>
      <trkpt lat="42.01509" lon="2.81902">
        <ele>57.2</ele>
        <time>2022-05-21 07:38:13</time>
      </trkpt>
      <trkpt lat="42.01517" lon="2.81909">
        <ele>57.2</ele>
        <time>2022-05-21 07:38:14</time>
      </trkpt>
      <trkpt lat="42.01524" lon="2.81915">
        <ele>57.2</ele>
        <time>2022-05-21 07:38:15</time>
      </trkpt>
      <trkpt lat="42.01531" lon="2.8192">
        <ele>57.2</ele>
        <time>2022-05-21 07:38:16</time>
      </trkpt>
      <trkpt lat="42.01538" lon="2.81926">
        <ele>57.2</ele>
        <time>2022-05-21 07:38:17</time>
      </trkpt>
      <trkpt lat="42.01545" lon="2.81932">
        <ele>57.2</ele>
        <time>2022-05-21 07:38:18</time>
      </trkpt>
      <trkpt lat="42.01552" lon="2.81937">
        <ele>57.2</ele>
        <time>2022-05-21 07:38:19</time>
      </trkpt>
      <trkpt lat="42.01559" lon="2.81943">
        <ele>57.2</ele>
        <time>2022-05-21 07:38:20</time>
      </trkpt>
      <trkpt lat="42.01566" lon="2.81948">
        <ele>57.2</ele>
        <time>2022-05-21 07:38:21</time>
      </trkpt>
      <trkpt lat="42.01572" lon="2.81954">
        <ele>57.2</ele>
        <time>2022-05-21 07:38:22</time>
      </trkpt>
      <trkpt lat="42.01579" lon="2.8196">
        <ele>57.2</ele>
        <time>2022-05-21 07:38:23</time>
      </trkpt>
      <trkpt lat="42.01586" lon="2.81966">
        <ele>57.2</ele>
        <time>2022-05-21 07:38:24</time>
      </trkpt>
      <trkpt lat="42.01593" lon="2.81971">
        <ele>57.2</ele>
        <time>2022-05-21 07:38:25</time>
      </trkpt>
      <trkpt lat="42.01599" lon="2.81977">
        <ele>57.2</ele>
        <time>2022-05-21 07:38:26</time>
      </trkpt>
      <trkpt lat="42.01606" lon="2.81982">
        <ele>57.2</ele>
        <time>2022-05-21 07:38:27</time>
      </trkpt>
      <trkpt lat="42.01612" lon="2.81988">
        <ele>57.4</ele>
        <time>2022-05-21 07:38:28</time>
      </trkpt>
      <trkpt lat="42.01619" lon="2.81994">
        <ele>57.4</ele>
        <time>2022-05-21 07:38:29</time>
      </trkpt>
      <trkpt lat="42.01625" lon="2.81999">
        <ele>57.4</ele>
        <time>2022-05-21 07:38:30</time>
      </trkpt>
      <trkpt lat="42.0163" lon="2.82003">
        <ele>57.4</ele>
        <time>2022-05-21 07:38:31</time>
      </trkpt>
      <trkpt lat="42.01639" lon="2.82011">
        <ele>57.4</ele>
        <time>2022-05-21 07:38:32</time>
      </trkpt>
      <trkpt lat="42.01645" lon="2.82017">
        <ele>57.4</ele>
        <time>2022-05-21 07:38:33</time>
      </trkpt>
      <trkpt lat="42.01651" lon="2.82023">
        <ele>57.4</ele>
        <time>2022-05-21 07:38:34</time>
      </trkpt>
      <trkpt lat="42.01656" lon="2.8203">
        <ele>57.4</ele>
        <time>2022-05-21 07:38:35</time>
      </trkpt>
      <trkpt lat="42.01661" lon="2.82038">
        <ele>57.4</ele>
        <time>2022-05-21 07:38:36</time>
      </trkpt>
      <trkpt lat="42.01664" lon="2.82047">
        <ele>57.4</ele>
        <time>2022-05-21 07:38:37</time>
      </trkpt>
      <trkpt lat="42.01668" lon="2.82055">
        <ele>57.6</ele>
        <time>2022-05-21 07:38:38</time>
      </trkpt>
      <trkpt lat="42.01673" lon="2.82062">
        <ele>57.6</ele>
        <time>2022-05-21 07:38:39</time>
      </trkpt>
      <trkpt lat="42.0168" lon="2.82067">
        <ele>57.8</ele>
        <time>2022-05-21 07:38:40</time>
      </trkpt>
      <trkpt lat="42.01686" lon="2.8207">
        <ele>57.8</ele>
        <time>2022-05-21 07:38:41</time>
      </trkpt>
      <trkpt lat="42.01693" lon="2.82072">
        <ele>57.8</ele>
        <time>2022-05-21 07:38:42</time>
      </trkpt>
      <trkpt lat="42.01701" lon="2.82073">
        <ele>57.8</ele>
        <time>2022-05-21 07:38:43</time>
      </trkpt>
      <trkpt lat="42.01709" lon="2.82076">
        <ele>57.6</ele>
        <time>2022-05-21 07:38:44</time>
      </trkpt>
      <trkpt lat="42.01716" lon="2.8208">
        <ele>57.6</ele>
        <time>2022-05-21 07:38:45</time>
      </trkpt>
      <trkpt lat="42.01722" lon="2.82085">
        <ele>57.6</ele>
        <time>2022-05-21 07:38:46</time>
      </trkpt>
      <trkpt lat="42.01728" lon="2.82091">
        <ele>57.6</ele>
        <time>2022-05-21 07:38:47</time>
      </trkpt>
      <trkpt lat="42.01735" lon="2.82097">
        <ele>57.6</ele>
        <time>2022-05-21 07:38:48</time>
      </trkpt>
      <trkpt lat="42.01741" lon="2.82103">
        <ele>57.6</ele>
        <time>2022-05-21 07:38:49</time>
      </trkpt>
      <trkpt lat="42.01748" lon="2.82109">
        <ele>57.6</ele>
        <time>2022-05-21 07:38:50</time>
      </trkpt>
      <trkpt lat="42.01754" lon="2.82115">
        <ele>57.6</ele>
        <time>2022-05-21 07:38:51</time>
      </trkpt>
      <trkpt lat="42.01761" lon="2.82121">
        <ele>57.4</ele>
        <time>2022-05-21 07:38:52</time>
      </trkpt>
      <trkpt lat="42.01767" lon="2.82126">
        <ele>57.6</ele>
        <time>2022-05-21 07:38:53</time>
      </trkpt>
      <trkpt lat="42.01774" lon="2.82132">
        <ele>57.4</ele>
        <time>2022-05-21 07:38:54</time>
      </trkpt>
      <trkpt lat="42.01781" lon="2.82138">
        <ele>57.4</ele>
        <time>2022-05-21 07:38:55</time>
      </trkpt>
      <trkpt lat="42.01787" lon="2.82144">
        <ele>57.4</ele>
        <time>2022-05-21 07:38:56</time>
      </trkpt>
      <trkpt lat="42.01793" lon="2.82149">
        <ele>57.4</ele>
        <time>2022-05-21 07:38:57</time>
      </trkpt>
      <trkpt lat="42.018" lon="2.82155">
        <ele>57.4</ele>
        <time>2022-05-21 07:38:58</time>
      </trkpt>
      <trkpt lat="42.01805" lon="2.82161">
        <ele>57.4</ele>
        <time>2022-05-21 07:38:59</time>
      </trkpt>
      <trkpt lat="42.01813" lon="2.82167">
        <ele>57.2</ele>
        <time>2022-05-21 07:39:00</time>
      </trkpt>
      <trkpt lat="42.01819" lon="2.82172">
        <ele>57.2</ele>
        <time>2022-05-21 07:39:01</time>
      </trkpt>
      <trkpt lat="42.01826" lon="2.82179">
        <ele>57.2</ele>
        <time>2022-05-21 07:39:02</time>
      </trkpt>
      <trkpt lat="42.01833" lon="2.82185">
        <ele>57.2</ele>
        <time>2022-05-21 07:39:03</time>
      </trkpt>
      <trkpt lat="42.01841" lon="2.82192">
        <ele>57.2</ele>
        <time>2022-05-21 07:39:04</time>
      </trkpt>
      <trkpt lat="42.01847" lon="2.82198">
        <ele>57.2</ele>
        <time>2022-05-21 07:39:05</time>
      </trkpt>
      <trkpt lat="42.01854" lon="2.82205">
        <ele>57</ele>
        <time>2022-05-21 07:39:06</time>
      </trkpt>
      <trkpt lat="42.0186" lon="2.8221">
        <ele>57</ele>
        <time>2022-05-21 07:39:07</time>
      </trkpt>
      <trkpt lat="42.01867" lon="2.82219">
        <ele>57</ele>
        <time>2022-05-21 07:39:08</time>
      </trkpt>
      <trkpt lat="42.01873" lon="2.82225">
        <ele>57</ele>
        <time>2022-05-21 07:39:09</time>
      </trkpt>
      <trkpt lat="42.0188" lon="2.82232">
        <ele>57</ele>
        <time>2022-05-21 07:39:10</time>
      </trkpt>
      <trkpt lat="42.01887" lon="2.82237">
        <ele>56.8</ele>
        <time>2022-05-21 07:39:11</time>
      </trkpt>
      <trkpt lat="42.01895" lon="2.82244">
        <ele>56.8</ele>
        <time>2022-05-21 07:39:12</time>
      </trkpt>
      <trkpt lat="42.01902" lon="2.8225">
        <ele>56.8</ele>
        <time>2022-05-21 07:39:13</time>
      </trkpt>
      <trkpt lat="42.01909" lon="2.82256">
        <ele>56.8</ele>
        <time>2022-05-21 07:39:14</time>
      </trkpt>
      <trkpt lat="42.01915" lon="2.82261">
        <ele>56.8</ele>
        <time>2022-05-21 07:39:15</time>
      </trkpt>
      <trkpt lat="42.01923" lon="2.82268">
        <ele>56.6</ele>
        <time>2022-05-21 07:39:16</time>
      </trkpt>
      <trkpt lat="42.01929" lon="2.82274">
        <ele>56.6</ele>
        <time>2022-05-21 07:39:17</time>
      </trkpt>
      <trkpt lat="42.01937" lon="2.82279">
        <ele>56.6</ele>
        <time>2022-05-21 07:39:18</time>
      </trkpt>
      <trkpt lat="42.01943" lon="2.82284">
        <ele>56.4</ele>
        <time>2022-05-21 07:39:19</time>
      </trkpt>
      <trkpt lat="42.01951" lon="2.82291">
        <ele>56.4</ele>
        <time>2022-05-21 07:39:20</time>
      </trkpt>
      <trkpt lat="42.01957" lon="2.82296">
        <ele>56.4</ele>
        <time>2022-05-21 07:39:21</time>
      </trkpt>
      <trkpt lat="42.01965" lon="2.82302">
        <ele>56.2</ele>
        <time>2022-05-21 07:39:22</time>
      </trkpt>
      <trkpt lat="42.01972" lon="2.82308">
        <ele>56.2</ele>
        <time>2022-05-21 07:39:23</time>
      </trkpt>
      <trkpt lat="42.01979" lon="2.82314">
        <ele>56.2</ele>
        <time>2022-05-21 07:39:24</time>
      </trkpt>
      <trkpt lat="42.01986" lon="2.82319">
        <ele>56</ele>
        <time>2022-05-21 07:39:25</time>
      </trkpt>
      <trkpt lat="42.01992" lon="2.82325">
        <ele>56</ele>
        <time>2022-05-21 07:39:26</time>
      </trkpt>
      <trkpt lat="42.01997" lon="2.8233">
        <ele>56</ele>
        <time>2022-05-21 07:39:27</time>
      </trkpt>
      <trkpt lat="42.02005" lon="2.82337">
        <ele>56</ele>
        <time>2022-05-21 07:39:28</time>
      </trkpt>
      <trkpt lat="42.02011" lon="2.82342">
        <ele>55.8</ele>
        <time>2022-05-21 07:39:29</time>
      </trkpt>
      <trkpt lat="42.02019" lon="2.82349">
        <ele>55.8</ele>
        <time>2022-05-21 07:39:30</time>
      </trkpt>
      <trkpt lat="42.02025" lon="2.82354">
        <ele>55.8</ele>
        <time>2022-05-21 07:39:31</time>
      </trkpt>
      <trkpt lat="42.02034" lon="2.82362">
        <ele>55.8</ele>
        <time>2022-05-21 07:39:32</time>
      </trkpt>
      <trkpt lat="42.02041" lon="2.82369">
        <ele>55.8</ele>
        <time>2022-05-21 07:39:33</time>
      </trkpt>
      <trkpt lat="42.02048" lon="2.82375">
        <ele>55.8</ele>
        <time>2022-05-21 07:39:34</time>
      </trkpt>
      <trkpt lat="42.02055" lon="2.82381">
        <ele>55.6</ele>
        <time>2022-05-21 07:39:35</time>
      </trkpt>
      <trkpt lat="42.02062" lon="2.82387">
        <ele>55.6</ele>
        <time>2022-05-21 07:39:36</time>
      </trkpt>
      <trkpt lat="42.02069" lon="2.82394">
        <ele>55.4</ele>
        <time>2022-05-21 07:39:37</time>
      </trkpt>
      <trkpt lat="42.02077" lon="2.82401">
        <ele>55.4</ele>
        <time>2022-05-21 07:39:38</time>
      </trkpt>
      <trkpt lat="42.02084" lon="2.82407">
        <ele>55.4</ele>
        <time>2022-05-21 07:39:39</time>
      </trkpt>
      <trkpt lat="42.02091" lon="2.82412">
        <ele>55.4</ele>
        <time>2022-05-21 07:39:40</time>
      </trkpt>
      <trkpt lat="42.02098" lon="2.82419">
        <ele>55.2</ele>
        <time>2022-05-21 07:39:41</time>
      </trkpt>
      <trkpt lat="42.02105" lon="2.82425">
        <ele>55.2</ele>
        <time>2022-05-21 07:39:42</time>
      </trkpt>
      <trkpt lat="42.02112" lon="2.82431">
        <ele>55.2</ele>
        <time>2022-05-21 07:39:43</time>
      </trkpt>
      <trkpt lat="42.02119" lon="2.82437">
        <ele>55.2</ele>
        <time>2022-05-21 07:39:44</time>
      </trkpt>
      <trkpt lat="42.02126" lon="2.82444">
        <ele>55</ele>
        <time>2022-05-21 07:39:45</time>
      </trkpt>
      <trkpt lat="42.02133" lon="2.8245">
        <ele>55</ele>
        <time>2022-05-21 07:39:46</time>
      </trkpt>
      <trkpt lat="42.0214" lon="2.82456">
        <ele>55</ele>
        <time>2022-05-21 07:39:47</time>
      </trkpt>
      <trkpt lat="42.02147" lon="2.82462">
        <ele>54.8</ele>
        <time>2022-05-21 07:39:48</time>
      </trkpt>
      <trkpt lat="42.02154" lon="2.82468">
        <ele>54.8</ele>
        <time>2022-05-21 07:39:49</time>
      </trkpt>
      <trkpt lat="42.02161" lon="2.82475">
        <ele>54.8</ele>
        <time>2022-05-21 07:39:50</time>
      </trkpt>
      <trkpt lat="42.02169" lon="2.82481">
        <ele>54.6</ele>
        <time>2022-05-21 07:39:51</time>
      </trkpt>
      <trkpt lat="42.02176" lon="2.82487">
        <ele>54.6</ele>
        <time>2022-05-21 07:39:52</time>
      </trkpt>
      <trkpt lat="42.02183" lon="2.82494">
        <ele>54.6</ele>
        <time>2022-05-21 07:39:53</time>
      </trkpt>
      <trkpt lat="42.0219" lon="2.825">
        <ele>54.4</ele>
        <time>2022-05-21 07:39:54</time>
      </trkpt>
      <trkpt lat="42.02197" lon="2.82507">
        <ele>54.2</ele>
        <time>2022-05-21 07:39:55</time>
      </trkpt>
      <trkpt lat="42.02204" lon="2.82513">
        <ele>54.2</ele>
        <time>2022-05-21 07:39:56</time>
      </trkpt>
      <trkpt lat="42.02211" lon="2.82519">
        <ele>54</ele>
        <time>2022-05-21 07:39:57</time>
      </trkpt>
      <trkpt lat="42.02218" lon="2.82526">
        <ele>53.8</ele>
        <time>2022-05-21 07:39:58</time>
      </trkpt>
      <trkpt lat="42.02224" lon="2.82532">
        <ele>53.8</ele>
        <time>2022-05-21 07:39:59</time>
      </trkpt>
      <trkpt lat="42.02231" lon="2.82539">
        <ele>53.6</ele>
        <time>2022-05-21 07:40:00</time>
      </trkpt>
      <trkpt lat="42.02239" lon="2.82546">
        <ele>53.6</ele>
        <time>2022-05-21 07:40:01</time>
      </trkpt>
      <trkpt lat="42.02246" lon="2.82552">
        <ele>53.4</ele>
        <time>2022-05-21 07:40:02</time>
      </trkpt>
      <trkpt lat="42.02253" lon="2.82559">
        <ele>53.4</ele>
        <time>2022-05-21 07:40:03</time>
      </trkpt>
      <trkpt lat="42.0226" lon="2.82565">
        <ele>53.2</ele>
        <time>2022-05-21 07:40:04</time>
      </trkpt>
      <trkpt lat="42.02267" lon="2.82572">
        <ele>53.2</ele>
        <time>2022-05-21 07:40:05</time>
      </trkpt>
      <trkpt lat="42.02274" lon="2.82578">
        <ele>53</ele>
        <time>2022-05-21 07:40:06</time>
      </trkpt>
      <trkpt lat="42.02282" lon="2.82586">
        <ele>52.8</ele>
        <time>2022-05-21 07:40:07</time>
      </trkpt>
      <trkpt lat="42.02288" lon="2.82592">
        <ele>52.8</ele>
        <time>2022-05-21 07:40:08</time>
      </trkpt>
      <trkpt lat="42.02296" lon="2.82598">
        <ele>52.6</ele>
        <time>2022-05-21 07:40:09</time>
      </trkpt>
      <trkpt lat="42.02303" lon="2.82605">
        <ele>52.4</ele>
        <time>2022-05-21 07:40:10</time>
      </trkpt>
      <trkpt lat="42.02311" lon="2.82611">
        <ele>52.2</ele>
        <time>2022-05-21 07:40:11</time>
      </trkpt>
      <trkpt lat="42.02318" lon="2.82617">
        <ele>52.2</ele>
        <time>2022-05-21 07:40:12</time>
      </trkpt>
      <trkpt lat="42.02325" lon="2.82624">
        <ele>52</ele>
        <time>2022-05-21 07:40:13</time>
      </trkpt>
      <trkpt lat="42.02331" lon="2.82632">
        <ele>52</ele>
        <time>2022-05-21 07:40:14</time>
      </trkpt>
      <trkpt lat="42.02336" lon="2.82642">
        <ele>51.8</ele>
        <time>2022-05-21 07:40:15</time>
      </trkpt>
      <trkpt lat="42.0234" lon="2.82651">
        <ele>51.8</ele>
        <time>2022-05-21 07:40:16</time>
      </trkpt>
      <trkpt lat="42.02346" lon="2.82659">
        <ele>51.8</ele>
        <time>2022-05-21 07:40:17</time>
      </trkpt>
      <trkpt lat="42.02352" lon="2.82665">
        <ele>51.6</ele>
        <time>2022-05-21 07:40:18</time>
      </trkpt>
      <trkpt lat="42.02359" lon="2.82669">
        <ele>51.6</ele>
        <time>2022-05-21 07:40:19</time>
      </trkpt>
      <trkpt lat="42.02368" lon="2.82671">
        <ele>51.4</ele>
        <time>2022-05-21 07:40:20</time>
      </trkpt>
      <trkpt lat="42.02376" lon="2.82672">
        <ele>51.4</ele>
        <time>2022-05-21 07:40:21</time>
      </trkpt>
      <trkpt lat="42.02384" lon="2.82675">
        <ele>51.2</ele>
        <time>2022-05-21 07:40:22</time>
      </trkpt>
      <trkpt lat="42.02391" lon="2.82679">
        <ele>51.2</ele>
        <time>2022-05-21 07:40:23</time>
      </trkpt>
      <trkpt lat="42.02399" lon="2.82683">
        <ele>51.2</ele>
        <time>2022-05-21 07:40:24</time>
      </trkpt>
      <trkpt lat="42.02407" lon="2.82689">
        <ele>51</ele>
        <time>2022-05-21 07:40:25</time>
      </trkpt>
      <trkpt lat="42.02414" lon="2.82694">
        <ele>51</ele>
        <time>2022-05-21 07:40:26</time>
      </trkpt>
      <trkpt lat="42.02422" lon="2.82698">
        <ele>51</ele>
        <time>2022-05-21 07:40:27</time>
      </trkpt>
      <trkpt lat="42.0243" lon="2.82703">
        <ele>51</ele>
        <time>2022-05-21 07:40:28</time>
      </trkpt>
      <trkpt lat="42.02437" lon="2.82708">
        <ele>51</ele>
        <time>2022-05-21 07:40:29</time>
      </trkpt>
      <trkpt lat="42.02445" lon="2.82712">
        <ele>51</ele>
        <time>2022-05-21 07:40:30</time>
      </trkpt>
      <trkpt lat="42.02453" lon="2.82717">
        <ele>51</ele>
        <time>2022-05-21 07:40:31</time>
      </trkpt>
      <trkpt lat="42.0246" lon="2.82721">
        <ele>51</ele>
        <time>2022-05-21 07:40:32</time>
      </trkpt>
      <trkpt lat="42.02468" lon="2.82725">
        <ele>51</ele>
        <time>2022-05-21 07:40:33</time>
      </trkpt>
      <trkpt lat="42.02475" lon="2.82729">
        <ele>51.2</ele>
        <time>2022-05-21 07:40:34</time>
      </trkpt>
      <trkpt lat="42.02483" lon="2.82733">
        <ele>51.2</ele>
        <time>2022-05-21 07:40:35</time>
      </trkpt>
      <trkpt lat="42.0249" lon="2.82738">
        <ele>51.2</ele>
        <time>2022-05-21 07:40:36</time>
      </trkpt>
      <trkpt lat="42.02497" lon="2.82742">
        <ele>51.2</ele>
        <time>2022-05-21 07:40:37</time>
      </trkpt>
      <trkpt lat="42.02504" lon="2.82746">
        <ele>51.4</ele>
        <time>2022-05-21 07:40:38</time>
      </trkpt>
      <trkpt lat="42.02511" lon="2.82751">
        <ele>51.4</ele>
        <time>2022-05-21 07:40:39</time>
      </trkpt>
      <trkpt lat="42.02518" lon="2.82756">
        <ele>51.4</ele>
        <time>2022-05-21 07:40:40</time>
      </trkpt>
      <trkpt lat="42.02525" lon="2.8276">
        <ele>51.4</ele>
        <time>2022-05-21 07:40:41</time>
      </trkpt>
      <trkpt lat="42.02532" lon="2.82765">
        <ele>51.4</ele>
        <time>2022-05-21 07:40:42</time>
      </trkpt>
      <trkpt lat="42.02538" lon="2.82771">
        <ele>51.4</ele>
        <time>2022-05-21 07:40:43</time>
      </trkpt>
      <trkpt lat="42.02545" lon="2.82776">
        <ele>51.4</ele>
        <time>2022-05-21 07:40:44</time>
      </trkpt>
      <trkpt lat="42.02552" lon="2.82781">
        <ele>51.4</ele>
        <time>2022-05-21 07:40:45</time>
      </trkpt>
      <trkpt lat="42.02559" lon="2.82786">
        <ele>51.4</ele>
        <time>2022-05-21 07:40:46</time>
      </trkpt>
      <trkpt lat="42.02566" lon="2.82792">
        <ele>51.4</ele>
        <time>2022-05-21 07:40:47</time>
      </trkpt>
      <trkpt lat="42.02573" lon="2.82798">
        <ele>51.2</ele>
        <time>2022-05-21 07:40:48</time>
      </trkpt>
      <trkpt lat="42.0258" lon="2.82803">
        <ele>51.2</ele>
        <time>2022-05-21 07:40:49</time>
      </trkpt>
      <trkpt lat="42.02587" lon="2.82809">
        <ele>51.2</ele>
        <time>2022-05-21 07:40:50</time>
      </trkpt>
      <trkpt lat="42.02594" lon="2.82815">
        <ele>51</ele>
        <time>2022-05-21 07:40:51</time>
      </trkpt>
      <trkpt lat="42.02601" lon="2.82821">
        <ele>51</ele>
        <time>2022-05-21 07:40:52</time>
      </trkpt>
      <trkpt lat="42.02608" lon="2.82827">
        <ele>51</ele>
        <time>2022-05-21 07:40:53</time>
      </trkpt>
      <trkpt lat="42.02615" lon="2.82832">
        <ele>51</ele>
        <time>2022-05-21 07:40:54</time>
      </trkpt>
      <trkpt lat="42.02621" lon="2.82838">
        <ele>51</ele>
        <time>2022-05-21 07:40:55</time>
      </trkpt>
      <trkpt lat="42.02629" lon="2.82844">
        <ele>50.8</ele>
        <time>2022-05-21 07:40:56</time>
      </trkpt>
      <trkpt lat="42.02635" lon="2.8285">
        <ele>50.6</ele>
        <time>2022-05-21 07:40:57</time>
      </trkpt>
      <trkpt lat="42.02643" lon="2.82856">
        <ele>50.4</ele>
        <time>2022-05-21 07:40:58</time>
      </trkpt>
      <trkpt lat="42.02649" lon="2.82862">
        <ele>50.2</ele>
        <time>2022-05-21 07:40:59</time>
      </trkpt>
      <trkpt lat="42.02656" lon="2.82868">
        <ele>50</ele>
        <time>2022-05-21 07:41:00</time>
      </trkpt>
      <trkpt lat="42.02663" lon="2.82874">
        <ele>50</ele>
        <time>2022-05-21 07:41:01</time>
      </trkpt>
      <trkpt lat="42.0267" lon="2.8288">
        <ele>49.8</ele>
        <time>2022-05-21 07:41:02</time>
      </trkpt>
      <trkpt lat="42.02676" lon="2.82887">
        <ele>49.8</ele>
        <time>2022-05-21 07:41:03</time>
      </trkpt>
      <trkpt lat="42.02682" lon="2.82893">
        <ele>49.6</ele>
        <time>2022-05-21 07:41:04</time>
      </trkpt>
      <trkpt lat="42.02688" lon="2.829">
        <ele>49.6</ele>
        <time>2022-05-21 07:41:05</time>
      </trkpt>
      <trkpt lat="42.02694" lon="2.82907">
        <ele>49.6</ele>
        <time>2022-05-21 07:41:06</time>
      </trkpt>
      <trkpt lat="42.02699" lon="2.82914">
        <ele>49.6</ele>
        <time>2022-05-21 07:41:07</time>
      </trkpt>
      <trkpt lat="42.02705" lon="2.82921">
        <ele>49.8</ele>
        <time>2022-05-21 07:41:08</time>
      </trkpt>
      <trkpt lat="42.0271" lon="2.82928">
        <ele>50</ele>
        <time>2022-05-21 07:41:09</time>
      </trkpt>
      <trkpt lat="42.02715" lon="2.82934">
        <ele>50.2</ele>
        <time>2022-05-21 07:41:10</time>
      </trkpt>
      <trkpt lat="42.02719" lon="2.82941">
        <ele>50.4</ele>
        <time>2022-05-21 07:41:11</time>
      </trkpt>
      <trkpt lat="42.02723" lon="2.82947">
        <ele>50.8</ele>
        <time>2022-05-21 07:41:12</time>
      </trkpt>
      <trkpt lat="42.02727" lon="2.82952">
        <ele>51.2</ele>
        <time>2022-05-21 07:41:13</time>
      </trkpt>
      <trkpt lat="42.02731" lon="2.82958">
        <ele>51.4</ele>
        <time>2022-05-21 07:41:14</time>
      </trkpt>
      <trkpt lat="42.02735" lon="2.82964">
        <ele>51.8</ele>
        <time>2022-05-21 07:41:15</time>
      </trkpt>
      <trkpt lat="42.02738" lon="2.8297">
        <ele>52</ele>
        <time>2022-05-21 07:41:16</time>
      </trkpt>
      <trkpt lat="42.02742" lon="2.82976">
        <ele>52.4</ele>
        <time>2022-05-21 07:41:17</time>
      </trkpt>
      <trkpt lat="42.02745" lon="2.82982">
        <ele>52.8</ele>
        <time>2022-05-21 07:41:18</time>
      </trkpt>
      <trkpt lat="42.02749" lon="2.82988">
        <ele>53</ele>
        <time>2022-05-21 07:41:19</time>
      </trkpt>
      <trkpt lat="42.02752" lon="2.82993">
        <ele>53.2</ele>
        <time>2022-05-21 07:41:20</time>
      </trkpt>
      <trkpt lat="42.02756" lon="2.82999">
        <ele>53.4</ele>
        <time>2022-05-21 07:41:21</time>
      </trkpt>
      <trkpt lat="42.02759" lon="2.83005">
        <ele>53.8</ele>
        <time>2022-05-21 07:41:22</time>
      </trkpt>
      <trkpt lat="42.02762" lon="2.83011">
        <ele>54</ele>
        <time>2022-05-21 07:41:23</time>
      </trkpt>
      <trkpt lat="42.02766" lon="2.83017">
        <ele>54.2</ele>
        <time>2022-05-21 07:41:24</time>
      </trkpt>
      <trkpt lat="42.02769" lon="2.83023">
        <ele>54.2</ele>
        <time>2022-05-21 07:41:25</time>
      </trkpt>
      <trkpt lat="42.02773" lon="2.8303">
        <ele>54.4</ele>
        <time>2022-05-21 07:41:26</time>
      </trkpt>
      <trkpt lat="42.02776" lon="2.83036">
        <ele>54.4</ele>
        <time>2022-05-21 07:41:27</time>
      </trkpt>
      <trkpt lat="42.0278" lon="2.83044">
        <ele>54.6</ele>
        <time>2022-05-21 07:41:28</time>
      </trkpt>
      <trkpt lat="42.02783" lon="2.83051">
        <ele>54.6</ele>
        <time>2022-05-21 07:41:29</time>
      </trkpt>
      <trkpt lat="42.02786" lon="2.83059">
        <ele>54.6</ele>
        <time>2022-05-21 07:41:30</time>
      </trkpt>
      <trkpt lat="42.02789" lon="2.83067">
        <ele>54.6</ele>
        <time>2022-05-21 07:41:31</time>
      </trkpt>
      <trkpt lat="42.02792" lon="2.83075">
        <ele>54.6</ele>
        <time>2022-05-21 07:41:32</time>
      </trkpt>
      <trkpt lat="42.02795" lon="2.83084">
        <ele>54.4</ele>
        <time>2022-05-21 07:41:33</time>
      </trkpt>
      <trkpt lat="42.02797" lon="2.83093">
        <ele>54.4</ele>
        <time>2022-05-21 07:41:34</time>
      </trkpt>
      <trkpt lat="42.028" lon="2.83102">
        <ele>54.4</ele>
        <time>2022-05-21 07:41:35</time>
      </trkpt>
      <trkpt lat="42.02803" lon="2.83111">
        <ele>54.2</ele>
        <time>2022-05-21 07:41:36</time>
      </trkpt>
      <trkpt lat="42.02806" lon="2.8312">
        <ele>54</ele>
        <time>2022-05-21 07:41:37</time>
      </trkpt>
      <trkpt lat="42.02809" lon="2.83129">
        <ele>53.8</ele>
        <time>2022-05-21 07:41:38</time>
      </trkpt>
      <trkpt lat="42.02812" lon="2.83138">
        <ele>53.8</ele>
        <time>2022-05-21 07:41:39</time>
      </trkpt>
      <trkpt lat="42.02815" lon="2.83148">
        <ele>53.6</ele>
        <time>2022-05-21 07:41:40</time>
      </trkpt>
      <trkpt lat="42.02819" lon="2.83157">
        <ele>53.4</ele>
        <time>2022-05-21 07:41:41</time>
      </trkpt>
      <trkpt lat="42.02822" lon="2.83167">
        <ele>53.2</ele>
        <time>2022-05-21 07:41:42</time>
      </trkpt>
      <trkpt lat="42.02826" lon="2.83176">
        <ele>53.2</ele>
        <time>2022-05-21 07:41:43</time>
      </trkpt>
      <trkpt lat="42.02829" lon="2.83184">
        <ele>53</ele>
        <time>2022-05-21 07:41:44</time>
      </trkpt>
      <trkpt lat="42.02833" lon="2.83193">
        <ele>52.8</ele>
        <time>2022-05-21 07:41:45</time>
      </trkpt>
      <trkpt lat="42.02837" lon="2.83202">
        <ele>52.8</ele>
        <time>2022-05-21 07:41:46</time>
      </trkpt>
      <trkpt lat="42.02843" lon="2.83212">
        <ele>52.6</ele>
        <time>2022-05-21 07:41:47</time>
      </trkpt>
      <trkpt lat="42.02847" lon="2.83221">
        <ele>52.4</ele>
        <time>2022-05-21 07:41:48</time>
      </trkpt>
      <trkpt lat="42.02852" lon="2.83229">
        <ele>52</ele>
        <time>2022-05-21 07:41:49</time>
      </trkpt>
      <trkpt lat="42.02858" lon="2.83239">
        <ele>51.8</ele>
        <time>2022-05-21 07:41:50</time>
      </trkpt>
      <trkpt lat="42.02863" lon="2.83248">
        <ele>51.6</ele>
        <time>2022-05-21 07:41:51</time>
      </trkpt>
      <trkpt lat="42.02869" lon="2.83258">
        <ele>51.2</ele>
        <time>2022-05-21 07:41:52</time>
      </trkpt>
      <trkpt lat="42.02874" lon="2.83267">
        <ele>51</ele>
        <time>2022-05-21 07:41:53</time>
      </trkpt>
      <trkpt lat="42.0288" lon="2.83277">
        <ele>50.6</ele>
        <time>2022-05-21 07:41:54</time>
      </trkpt>
      <trkpt lat="42.02885" lon="2.83286">
        <ele>50.4</ele>
        <time>2022-05-21 07:41:55</time>
      </trkpt>
      <trkpt lat="42.02891" lon="2.83296">
        <ele>50.2</ele>
        <time>2022-05-21 07:41:56</time>
      </trkpt>
      <trkpt lat="42.02897" lon="2.83308">
        <ele>49.8</ele>
        <time>2022-05-21 07:41:57</time>
      </trkpt>
      <trkpt lat="42.02901" lon="2.8332">
        <ele>49.4</ele>
        <time>2022-05-21 07:41:58</time>
      </trkpt>
      <trkpt lat="42.02905" lon="2.83332">
        <ele>49.2</ele>
        <time>2022-05-21 07:41:59</time>
      </trkpt>
      <trkpt lat="42.02908" lon="2.83344">
        <ele>49</ele>
        <time>2022-05-21 07:42:00</time>
      </trkpt>
      <trkpt lat="42.02911" lon="2.83355">
        <ele>48.8</ele>
        <time>2022-05-21 07:42:01</time>
      </trkpt>
      <trkpt lat="42.02914" lon="2.83366">
        <ele>48.6</ele>
        <time>2022-05-21 07:42:02</time>
      </trkpt>
      <trkpt lat="42.02917" lon="2.83378">
        <ele>48.4</ele>
        <time>2022-05-21 07:42:03</time>
      </trkpt>
      <trkpt lat="42.02921" lon="2.83389">
        <ele>48.2</ele>
        <time>2022-05-21 07:42:04</time>
      </trkpt>
      <trkpt lat="42.02924" lon="2.834">
        <ele>48.2</ele>
        <time>2022-05-21 07:42:05</time>
      </trkpt>
      <trkpt lat="42.02927" lon="2.83411">
        <ele>48</ele>
        <time>2022-05-21 07:42:06</time>
      </trkpt>
      <trkpt lat="42.0293" lon="2.83422">
        <ele>48</ele>
        <time>2022-05-21 07:42:07</time>
      </trkpt>
      <trkpt lat="42.02934" lon="2.83433">
        <ele>47.8</ele>
        <time>2022-05-21 07:42:08</time>
      </trkpt>
      <trkpt lat="42.02938" lon="2.83444">
        <ele>47.8</ele>
        <time>2022-05-21 07:42:09</time>
      </trkpt>
      <trkpt lat="42.02941" lon="2.83454">
        <ele>47.6</ele>
        <time>2022-05-21 07:42:10</time>
      </trkpt>
      <trkpt lat="42.02944" lon="2.83465">
        <ele>47.6</ele>
        <time>2022-05-21 07:42:11</time>
      </trkpt>
      <trkpt lat="42.02947" lon="2.83475">
        <ele>47.6</ele>
        <time>2022-05-21 07:42:12</time>
      </trkpt>
      <trkpt lat="42.0295" lon="2.83485">
        <ele>47.6</ele>
        <time>2022-05-21 07:42:13</time>
      </trkpt>
      <trkpt lat="42.02953" lon="2.83494">
        <ele>47.8</ele>
        <time>2022-05-21 07:42:14</time>
      </trkpt>
      <trkpt lat="42.02957" lon="2.83504">
        <ele>47.8</ele>
        <time>2022-05-21 07:42:15</time>
      </trkpt>
      <trkpt lat="42.0296" lon="2.83513">
        <ele>47.8</ele>
        <time>2022-05-21 07:42:16</time>
      </trkpt>
      <trkpt lat="42.02963" lon="2.83523">
        <ele>47.8</ele>
        <time>2022-05-21 07:42:17</time>
      </trkpt>
      <trkpt lat="42.02967" lon="2.83533">
        <ele>47.8</ele>
        <time>2022-05-21 07:42:18</time>
      </trkpt>
      <trkpt lat="42.0297" lon="2.83542">
        <ele>48</ele>
        <time>2022-05-21 07:42:19</time>
      </trkpt>
      <trkpt lat="42.02974" lon="2.83551">
        <ele>48</ele>
        <time>2022-05-21 07:42:20</time>
      </trkpt>
      <trkpt lat="42.02977" lon="2.8356">
        <ele>48.2</ele>
        <time>2022-05-21 07:42:21</time>
      </trkpt>
      <trkpt lat="42.02981" lon="2.83568">
        <ele>48.2</ele>
        <time>2022-05-21 07:42:22</time>
      </trkpt>
      <trkpt lat="42.02985" lon="2.83577">
        <ele>48.4</ele>
        <time>2022-05-21 07:42:23</time>
      </trkpt>
      <trkpt lat="42.02989" lon="2.83585">
        <ele>48.6</ele>
        <time>2022-05-21 07:42:24</time>
      </trkpt>
      <trkpt lat="42.02993" lon="2.83593">
        <ele>48.6</ele>
        <time>2022-05-21 07:42:25</time>
      </trkpt>
      <trkpt lat="42.02996" lon="2.836">
        <ele>48.8</ele>
        <time>2022-05-21 07:42:26</time>
      </trkpt>
      <trkpt lat="42.03001" lon="2.83608">
        <ele>48.8</ele>
        <time>2022-05-21 07:42:27</time>
      </trkpt>
      <trkpt lat="42.03005" lon="2.83615">
        <ele>48.8</ele>
        <time>2022-05-21 07:42:28</time>
      </trkpt>
      <trkpt lat="42.03009" lon="2.83622">
        <ele>49</ele>
        <time>2022-05-21 07:42:29</time>
      </trkpt>
      <trkpt lat="42.03014" lon="2.83629">
        <ele>49</ele>
        <time>2022-05-21 07:42:30</time>
      </trkpt>
      <trkpt lat="42.03018" lon="2.83636">
        <ele>49.2</ele>
        <time>2022-05-21 07:42:31</time>
      </trkpt>
      <trkpt lat="42.03022" lon="2.83642">
        <ele>49.2</ele>
        <time>2022-05-21 07:42:32</time>
      </trkpt>
      <trkpt lat="42.03027" lon="2.8365">
        <ele>49.2</ele>
        <time>2022-05-21 07:42:33</time>
      </trkpt>
      <trkpt lat="42.03032" lon="2.83657">
        <ele>49.4</ele>
        <time>2022-05-21 07:42:34</time>
      </trkpt>
      <trkpt lat="42.03036" lon="2.83663">
        <ele>49.4</ele>
        <time>2022-05-21 07:42:35</time>
      </trkpt>
      <trkpt lat="42.03041" lon="2.83669">
        <ele>49.4</ele>
        <time>2022-05-21 07:42:36</time>
      </trkpt>
      <trkpt lat="42.03047" lon="2.83676">
        <ele>49.6</ele>
        <time>2022-05-21 07:42:37</time>
      </trkpt>
      <trkpt lat="42.03052" lon="2.83681">
        <ele>49.6</ele>
        <time>2022-05-21 07:42:38</time>
      </trkpt>
      <trkpt lat="42.03057" lon="2.83687">
        <ele>49.6</ele>
        <time>2022-05-21 07:42:39</time>
      </trkpt>
      <trkpt lat="42.03063" lon="2.83693">
        <ele>49.6</ele>
        <time>2022-05-21 07:42:40</time>
      </trkpt>
      <trkpt lat="42.03069" lon="2.83699">
        <ele>49.6</ele>
        <time>2022-05-21 07:42:41</time>
      </trkpt>
      <trkpt lat="42.03075" lon="2.83705">
        <ele>49.6</ele>
        <time>2022-05-21 07:42:42</time>
      </trkpt>
      <trkpt lat="42.0308" lon="2.83711">
        <ele>49.6</ele>
        <time>2022-05-21 07:42:43</time>
      </trkpt>
      <trkpt lat="42.03086" lon="2.83716">
        <ele>49.6</ele>
        <time>2022-05-21 07:42:44</time>
      </trkpt>
      <trkpt lat="42.03092" lon="2.83721">
        <ele>49.6</ele>
        <time>2022-05-21 07:42:45</time>
      </trkpt>
      <trkpt lat="42.03098" lon="2.83727">
        <ele>49.6</ele>
        <time>2022-05-21 07:42:46</time>
      </trkpt>
      <trkpt lat="42.03104" lon="2.83731">
        <ele>49.6</ele>
        <time>2022-05-21 07:42:47</time>
      </trkpt>
      <trkpt lat="42.0311" lon="2.83736">
        <ele>49.8</ele>
        <time>2022-05-21 07:42:48</time>
      </trkpt>
      <trkpt lat="42.03116" lon="2.8374">
        <ele>49.8</ele>
        <time>2022-05-21 07:42:49</time>
      </trkpt>
      <trkpt lat="42.03122" lon="2.83745">
        <ele>50</ele>
        <time>2022-05-21 07:42:50</time>
      </trkpt>
      <trkpt lat="42.03128" lon="2.83749">
        <ele>50</ele>
        <time>2022-05-21 07:42:51</time>
      </trkpt>
      <trkpt lat="42.03134" lon="2.83753">
        <ele>50.2</ele>
        <time>2022-05-21 07:42:52</time>
      </trkpt>
      <trkpt lat="42.03139" lon="2.83757">
        <ele>50.2</ele>
        <time>2022-05-21 07:42:53</time>
      </trkpt>
      <trkpt lat="42.03146" lon="2.83761">
        <ele>50.4</ele>
        <time>2022-05-21 07:42:54</time>
      </trkpt>
      <trkpt lat="42.03151" lon="2.83765">
        <ele>50.4</ele>
        <time>2022-05-21 07:42:55</time>
      </trkpt>
      <trkpt lat="42.03157" lon="2.83768">
        <ele>50.4</ele>
        <time>2022-05-21 07:42:56</time>
      </trkpt>
      <trkpt lat="42.03163" lon="2.83772">
        <ele>50.6</ele>
        <time>2022-05-21 07:42:57</time>
      </trkpt>
      <trkpt lat="42.03168" lon="2.83776">
        <ele>50.6</ele>
        <time>2022-05-21 07:42:58</time>
      </trkpt>
      <trkpt lat="42.03174" lon="2.8378">
        <ele>50.8</ele>
        <time>2022-05-21 07:42:59</time>
      </trkpt>
      <trkpt lat="42.0318" lon="2.83784">
        <ele>50.8</ele>
        <time>2022-05-21 07:43:00</time>
      </trkpt>
      <trkpt lat="42.03186" lon="2.83788">
        <ele>51</ele>
        <time>2022-05-21 07:43:01</time>
      </trkpt>
      <trkpt lat="42.03191" lon="2.83792">
        <ele>51.2</ele>
        <time>2022-05-21 07:43:02</time>
      </trkpt>
      <trkpt lat="42.03197" lon="2.83795">
        <ele>51.4</ele>
        <time>2022-05-21 07:43:03</time>
      </trkpt>
      <trkpt lat="42.03202" lon="2.83799">
        <ele>51.4</ele>
        <time>2022-05-21 07:43:04</time>
      </trkpt>
      <trkpt lat="42.03207" lon="2.83802">
        <ele>51.6</ele>
        <time>2022-05-21 07:43:05</time>
      </trkpt>
      <trkpt lat="42.03213" lon="2.83806">
        <ele>51.8</ele>
        <time>2022-05-21 07:43:06</time>
      </trkpt>
      <trkpt lat="42.03218" lon="2.83809">
        <ele>51.8</ele>
        <time>2022-05-21 07:43:07</time>
      </trkpt>
      <trkpt lat="42.03224" lon="2.83813">
        <ele>52</ele>
        <time>2022-05-21 07:43:08</time>
      </trkpt>
      <trkpt lat="42.03229" lon="2.83816">
        <ele>52.2</ele>
        <time>2022-05-21 07:43:09</time>
      </trkpt>
      <trkpt lat="42.03234" lon="2.8382">
        <ele>52.4</ele>
        <time>2022-05-21 07:43:10</time>
      </trkpt>
      <trkpt lat="42.03239" lon="2.83823">
        <ele>52.4</ele>
        <time>2022-05-21 07:43:11</time>
      </trkpt>
      <trkpt lat="42.03244" lon="2.83826">
        <ele>52.6</ele>
        <time>2022-05-21 07:43:12</time>
      </trkpt>
      <trkpt lat="42.03249" lon="2.83829">
        <ele>52.8</ele>
        <time>2022-05-21 07:43:13</time>
      </trkpt>
      <trkpt lat="42.03254" lon="2.83832">
        <ele>53</ele>
        <time>2022-05-21 07:43:14</time>
      </trkpt>
      <trkpt lat="42.03259" lon="2.83835">
        <ele>53</ele>
        <time>2022-05-21 07:43:15</time>
      </trkpt>
      <trkpt lat="42.03263" lon="2.83838">
        <ele>53.2</ele>
        <time>2022-05-21 07:43:16</time>
      </trkpt>
      <trkpt lat="42.03268" lon="2.8384">
        <ele>53.4</ele>
        <time>2022-05-21 07:43:17</time>
      </trkpt>
      <trkpt lat="42.03272" lon="2.83843">
        <ele>53.6</ele>
        <time>2022-05-21 07:43:18</time>
      </trkpt>
      <trkpt lat="42.03277" lon="2.83845">
        <ele>53.8</ele>
        <time>2022-05-21 07:43:19</time>
      </trkpt>
      <trkpt lat="42.03281" lon="2.83848">
        <ele>53.8</ele>
        <time>2022-05-21 07:43:20</time>
      </trkpt>
      <trkpt lat="42.03286" lon="2.8385">
        <ele>54</ele>
        <time>2022-05-21 07:43:21</time>
      </trkpt>
      <trkpt lat="42.0329" lon="2.83853">
        <ele>54.2</ele>
        <time>2022-05-21 07:43:22</time>
      </trkpt>
      <trkpt lat="42.03295" lon="2.83856">
        <ele>54.4</ele>
        <time>2022-05-21 07:43:23</time>
      </trkpt>
      <trkpt lat="42.03299" lon="2.83858">
        <ele>54.6</ele>
        <time>2022-05-21 07:43:24</time>
      </trkpt>
      <trkpt lat="42.03304" lon="2.83861">
        <ele>54.6</ele>
        <time>2022-05-21 07:43:25</time>
      </trkpt>
      <trkpt lat="42.03308" lon="2.83863">
        <ele>54.8</ele>
        <time>2022-05-21 07:43:26</time>
      </trkpt>
      <trkpt lat="42.03313" lon="2.83865">
        <ele>55</ele>
        <time>2022-05-21 07:43:27</time>
      </trkpt>
      <trkpt lat="42.03317" lon="2.83867">
        <ele>55.2</ele>
        <time>2022-05-21 07:43:28</time>
      </trkpt>
      <trkpt lat="42.03321" lon="2.8387">
        <ele>55.4</ele>
        <time>2022-05-21 07:43:29</time>
      </trkpt>
      <trkpt lat="42.03325" lon="2.83872">
        <ele>55.6</ele>
        <time>2022-05-21 07:43:30</time>
      </trkpt>
      <trkpt lat="42.03329" lon="2.83874">
        <ele>55.8</ele>
        <time>2022-05-21 07:43:31</time>
      </trkpt>
      <trkpt lat="42.03332" lon="2.83876">
        <ele>56</ele>
        <time>2022-05-21 07:43:32</time>
      </trkpt>
      <trkpt lat="42.03336" lon="2.83877">
        <ele>56.4</ele>
        <time>2022-05-21 07:43:33</time>
      </trkpt>
      <trkpt lat="42.0334" lon="2.83879">
        <ele>56.6</ele>
        <time>2022-05-21 07:43:34</time>
      </trkpt>
      <trkpt lat="42.03343" lon="2.8388">
        <ele>56.8</ele>
        <time>2022-05-21 07:43:35</time>
      </trkpt>
      <trkpt lat="42.03347" lon="2.83882">
        <ele>57.2</ele>
        <time>2022-05-21 07:43:36</time>
      </trkpt>
      <trkpt lat="42.0335" lon="2.83883">
        <ele>57.4</ele>
        <time>2022-05-21 07:43:37</time>
      </trkpt>
      <trkpt lat="42.03354" lon="2.83885">
        <ele>57.6</ele>
        <time>2022-05-21 07:43:38</time>
      </trkpt>
      <trkpt lat="42.03358" lon="2.83887">
        <ele>57.8</ele>
        <time>2022-05-21 07:43:39</time>
      </trkpt>
      <trkpt lat="42.0336" lon="2.83889">
        <ele>58</ele>
        <time>2022-05-21 07:43:40</time>
      </trkpt>
      <trkpt lat="42.03363" lon="2.83891">
        <ele>58.4</ele>
        <time>2022-05-21 07:43:41</time>
      </trkpt>
      <trkpt lat="42.03367" lon="2.83893">
        <ele>58.6</ele>
        <time>2022-05-21 07:43:42</time>
      </trkpt>
      <trkpt lat="42.0337" lon="2.83894">
        <ele>58.8</ele>
        <time>2022-05-21 07:43:43</time>
      </trkpt>
      <trkpt lat="42.03374" lon="2.83895">
        <ele>59.2</ele>
        <time>2022-05-21 07:43:44</time>
      </trkpt>
      <trkpt lat="42.03377" lon="2.83896">
        <ele>59.4</ele>
        <time>2022-05-21 07:43:45</time>
      </trkpt>
      <trkpt lat="42.03379" lon="2.83898">
        <ele>59.6</ele>
        <time>2022-05-21 07:43:46</time>
      </trkpt>
      <trkpt lat="42.03382" lon="2.83899">
        <ele>59.8</ele>
        <time>2022-05-21 07:43:47</time>
      </trkpt>
      <trkpt lat="42.03386" lon="2.83901">
        <ele>60.2</ele>
        <time>2022-05-21 07:43:48</time>
      </trkpt>
      <trkpt lat="42.03389" lon="2.83902">
        <ele>60.4</ele>
        <time>2022-05-21 07:43:49</time>
      </trkpt>
      <trkpt lat="42.03392" lon="2.83903">
        <ele>60.6</ele>
        <time>2022-05-21 07:43:50</time>
      </trkpt>
      <trkpt lat="42.03395" lon="2.83904">
        <ele>60.8</ele>
        <time>2022-05-21 07:43:51</time>
      </trkpt>
      <trkpt lat="42.03398" lon="2.83905">
        <ele>61</ele>
        <time>2022-05-21 07:43:52</time>
      </trkpt>
      <trkpt lat="42.03402" lon="2.83906">
        <ele>61.4</ele>
        <time>2022-05-21 07:43:53</time>
      </trkpt>
      <trkpt lat="42.03405" lon="2.83907">
        <ele>61.6</ele>
        <time>2022-05-21 07:43:54</time>
      </trkpt>
      <trkpt lat="42.03408" lon="2.83908">
        <ele>61.8</ele>
        <time>2022-05-21 07:43:55</time>
      </trkpt>
      <trkpt lat="42.03411" lon="2.83909">
        <ele>62</ele>
        <time>2022-05-21 07:43:56</time>
      </trkpt>
      <trkpt lat="42.03415" lon="2.8391">
        <ele>62.2</ele>
        <time>2022-05-21 07:43:57</time>
      </trkpt>
      <trkpt lat="42.03418" lon="2.83911">
        <ele>62.4</ele>
        <time>2022-05-21 07:43:58</time>
      </trkpt>
      <trkpt lat="42.03421" lon="2.83912">
        <ele>62.6</ele>
        <time>2022-05-21 07:43:59</time>
      </trkpt>
      <trkpt lat="42.03424" lon="2.83913">
        <ele>63</ele>
        <time>2022-05-21 07:44:00</time>
      </trkpt>
      <trkpt lat="42.03427" lon="2.83914">
        <ele>63.2</ele>
        <time>2022-05-21 07:44:01</time>
      </trkpt>
      <trkpt lat="42.0343" lon="2.83915">
        <ele>63.4</ele>
        <time>2022-05-21 07:44:02</time>
      </trkpt>
      <trkpt lat="42.03434" lon="2.83916">
        <ele>63.6</ele>
        <time>2022-05-21 07:44:03</time>
      </trkpt>
      <trkpt lat="42.03437" lon="2.83917">
        <ele>63.8</ele>
        <time>2022-05-21 07:44:04</time>
      </trkpt>
      <trkpt lat="42.03439" lon="2.83917">
        <ele>64.2</ele>
        <time>2022-05-21 07:44:05</time>
      </trkpt>
      <trkpt lat="42.03443" lon="2.83918">
        <ele>64.4</ele>
        <time>2022-05-21 07:44:06</time>
      </trkpt>
      <trkpt lat="42.03446" lon="2.83919">
        <ele>64.6</ele>
        <time>2022-05-21 07:44:07</time>
      </trkpt>
      <trkpt lat="42.03449" lon="2.8392">
        <ele>64.8</ele>
        <time>2022-05-21 07:44:08</time>
      </trkpt>
      <trkpt lat="42.03452" lon="2.83921">
        <ele>65</ele>
        <time>2022-05-21 07:44:09</time>
      </trkpt>
      <trkpt lat="42.03455" lon="2.83922">
        <ele>65.4</ele>
        <time>2022-05-21 07:44:10</time>
      </trkpt>
      <trkpt lat="42.03458" lon="2.83922">
        <ele>65.6</ele>
        <time>2022-05-21 07:44:11</time>
      </trkpt>
      <trkpt lat="42.03461" lon="2.83923">
        <ele>65.8</ele>
        <time>2022-05-21 07:44:12</time>
      </trkpt>
      <trkpt lat="42.03463" lon="2.83924">
        <ele>66</ele>
        <time>2022-05-21 07:44:13</time>
      </trkpt>
      <trkpt lat="42.03466" lon="2.83926">
        <ele>66.4</ele>
        <time>2022-05-21 07:44:14</time>
      </trkpt>
      <trkpt lat="42.03469" lon="2.83927">
        <ele>66.6</ele>
        <time>2022-05-21 07:44:15</time>
      </trkpt>
      <trkpt lat="42.03472" lon="2.83928">
        <ele>66.8</ele>
        <time>2022-05-21 07:44:16</time>
      </trkpt>
      <trkpt lat="42.03475" lon="2.83929">
        <ele>67</ele>
        <time>2022-05-21 07:44:17</time>
      </trkpt>
      <trkpt lat="42.03478" lon="2.8393">
        <ele>67.2</ele>
        <time>2022-05-21 07:44:18</time>
      </trkpt>
      <trkpt lat="42.03481" lon="2.83931">
        <ele>67.6</ele>
        <time>2022-05-21 07:44:19</time>
      </trkpt>
      <trkpt lat="42.03484" lon="2.83932">
        <ele>67.8</ele>
        <time>2022-05-21 07:44:20</time>
      </trkpt>
      <trkpt lat="42.03487" lon="2.83933">
        <ele>68</ele>
        <time>2022-05-21 07:44:21</time>
      </trkpt>
      <trkpt lat="42.0349" lon="2.83934">
        <ele>68.2</ele>
        <time>2022-05-21 07:44:22</time>
      </trkpt>
      <trkpt lat="42.03493" lon="2.83935">
        <ele>68.4</ele>
        <time>2022-05-21 07:44:23</time>
      </trkpt>
      <trkpt lat="42.03496" lon="2.83936">
        <ele>68.6</ele>
        <time>2022-05-21 07:44:24</time>
      </trkpt>
      <trkpt lat="42.03498" lon="2.83937">
        <ele>69</ele>
        <time>2022-05-21 07:44:25</time>
      </trkpt>
      <trkpt lat="42.03501" lon="2.83939">
        <ele>69.2</ele>
        <time>2022-05-21 07:44:26</time>
      </trkpt>
      <trkpt lat="42.03505" lon="2.8394">
        <ele>69.4</ele>
        <time>2022-05-21 07:44:27</time>
      </trkpt>
      <trkpt lat="42.03507" lon="2.83941">
        <ele>69.6</ele>
        <time>2022-05-21 07:44:28</time>
      </trkpt>
      <trkpt lat="42.0351" lon="2.83943">
        <ele>69.8</ele>
        <time>2022-05-21 07:44:29</time>
      </trkpt>
      <trkpt lat="42.03513" lon="2.83944">
        <ele>70</ele>
        <time>2022-05-21 07:44:30</time>
      </trkpt>
      <trkpt lat="42.03516" lon="2.83946">
        <ele>70.2</ele>
        <time>2022-05-21 07:44:31</time>
      </trkpt>
      <trkpt lat="42.03518" lon="2.83948">
        <ele>70.4</ele>
        <time>2022-05-21 07:44:32</time>
      </trkpt>
      <trkpt lat="42.03521" lon="2.8395">
        <ele>70.8</ele>
        <time>2022-05-21 07:44:33</time>
      </trkpt>
      <trkpt lat="42.03523" lon="2.83952">
        <ele>71</ele>
        <time>2022-05-21 07:44:34</time>
      </trkpt>
      <trkpt lat="42.03526" lon="2.83954">
        <ele>71.2</ele>
        <time>2022-05-21 07:44:35</time>
      </trkpt>
      <trkpt lat="42.03529" lon="2.83956">
        <ele>71.4</ele>
        <time>2022-05-21 07:44:36</time>
      </trkpt>
      <trkpt lat="42.03531" lon="2.83958">
        <ele>71.6</ele>
        <time>2022-05-21 07:44:37</time>
      </trkpt>
      <trkpt lat="42.03534" lon="2.8396">
        <ele>71.8</ele>
        <time>2022-05-21 07:44:38</time>
      </trkpt>
      <trkpt lat="42.03536" lon="2.83963">
        <ele>72</ele>
        <time>2022-05-21 07:44:39</time>
      </trkpt>
      <trkpt lat="42.03538" lon="2.83965">
        <ele>72.4</ele>
        <time>2022-05-21 07:44:40</time>
      </trkpt>
      <trkpt lat="42.0354" lon="2.83967">
        <ele>72.6</ele>
        <time>2022-05-21 07:44:41</time>
      </trkpt>
      <trkpt lat="42.03543" lon="2.8397">
        <ele>72.8</ele>
        <time>2022-05-21 07:44:42</time>
      </trkpt>
      <trkpt lat="42.03545" lon="2.83973">
        <ele>73</ele>
        <time>2022-05-21 07:44:43</time>
      </trkpt>
      <trkpt lat="42.03548" lon="2.83975">
        <ele>73.2</ele>
        <time>2022-05-21 07:44:44</time>
      </trkpt>
      <trkpt lat="42.0355" lon="2.83978">
        <ele>73.4</ele>
        <time>2022-05-21 07:44:45</time>
      </trkpt>
      <trkpt lat="42.03552" lon="2.8398">
        <ele>73.6</ele>
        <time>2022-05-21 07:44:46</time>
      </trkpt>
      <trkpt lat="42.03555" lon="2.83983">
        <ele>73.8</ele>
        <time>2022-05-21 07:44:47</time>
      </trkpt>
      <trkpt lat="42.03557" lon="2.83986">
        <ele>74</ele>
        <time>2022-05-21 07:44:48</time>
      </trkpt>
      <trkpt lat="42.03559" lon="2.83988">
        <ele>74.2</ele>
        <time>2022-05-21 07:44:49</time>
      </trkpt>
      <trkpt lat="42.03561" lon="2.83991">
        <ele>74.4</ele>
        <time>2022-05-21 07:44:50</time>
      </trkpt>
      <trkpt lat="42.03564" lon="2.83994">
        <ele>74.6</ele>
        <time>2022-05-21 07:44:51</time>
      </trkpt>
      <trkpt lat="42.03566" lon="2.83996">
        <ele>74.8</ele>
        <time>2022-05-21 07:44:52</time>
      </trkpt>
      <trkpt lat="42.03569" lon="2.83998">
        <ele>75</ele>
        <time>2022-05-21 07:44:53</time>
      </trkpt>
      <trkpt lat="42.03571" lon="2.84001">
        <ele>75.2</ele>
        <time>2022-05-21 07:44:54</time>
      </trkpt>
      <trkpt lat="42.03573" lon="2.84004">
        <ele>75.6</ele>
        <time>2022-05-21 07:44:55</time>
      </trkpt>
      <trkpt lat="42.03575" lon="2.84007">
        <ele>75.8</ele>
        <time>2022-05-21 07:44:56</time>
      </trkpt>
      <trkpt lat="42.03577" lon="2.84009">
        <ele>76</ele>
        <time>2022-05-21 07:44:57</time>
      </trkpt>
      <trkpt lat="42.03579" lon="2.84012">
        <ele>76.2</ele>
        <time>2022-05-21 07:44:58</time>
      </trkpt>
      <trkpt lat="42.03582" lon="2.84014">
        <ele>76.4</ele>
        <time>2022-05-21 07:44:59</time>
      </trkpt>
      <trkpt lat="42.03584" lon="2.84017">
        <ele>76.8</ele>
        <time>2022-05-21 07:45:00</time>
      </trkpt>
      <trkpt lat="42.03586" lon="2.84019">
        <ele>77</ele>
        <time>2022-05-21 07:45:01</time>
      </trkpt>
      <trkpt lat="42.03588" lon="2.84022">
        <ele>77.2</ele>
        <time>2022-05-21 07:45:02</time>
      </trkpt>
      <trkpt lat="42.0359" lon="2.84024">
        <ele>77.4</ele>
        <time>2022-05-21 07:45:03</time>
      </trkpt>
      <trkpt lat="42.03593" lon="2.84027">
        <ele>77.8</ele>
        <time>2022-05-21 07:45:04</time>
      </trkpt>
      <trkpt lat="42.03595" lon="2.84029">
        <ele>78</ele>
        <time>2022-05-21 07:45:05</time>
      </trkpt>
      <trkpt lat="42.03597" lon="2.84032">
        <ele>78.2</ele>
        <time>2022-05-21 07:45:06</time>
      </trkpt>
      <trkpt lat="42.036" lon="2.84034">
        <ele>78.4</ele>
        <time>2022-05-21 07:45:07</time>
      </trkpt>
      <trkpt lat="42.03602" lon="2.84036">
        <ele>78.6</ele>
        <time>2022-05-21 07:45:08</time>
      </trkpt>
      <trkpt lat="42.03604" lon="2.84039">
        <ele>78.8</ele>
        <time>2022-05-21 07:45:09</time>
      </trkpt>
      <trkpt lat="42.03607" lon="2.84042">
        <ele>79.2</ele>
        <time>2022-05-21 07:45:10</time>
      </trkpt>
      <trkpt lat="42.03609" lon="2.84044">
        <ele>79.4</ele>
        <time>2022-05-21 07:45:11</time>
      </trkpt>
      <trkpt lat="42.03612" lon="2.84046">
        <ele>79.6</ele>
        <time>2022-05-21 07:45:12</time>
      </trkpt>
      <trkpt lat="42.03615" lon="2.84048">
        <ele>79.8</ele>
        <time>2022-05-21 07:45:13</time>
      </trkpt>
      <trkpt lat="42.03617" lon="2.8405">
        <ele>80</ele>
        <time>2022-05-21 07:45:14</time>
      </trkpt>
      <trkpt lat="42.03619" lon="2.84052">
        <ele>80.4</ele>
        <time>2022-05-21 07:45:15</time>
      </trkpt>
      <trkpt lat="42.03622" lon="2.84053">
        <ele>80.6</ele>
        <time>2022-05-21 07:45:16</time>
      </trkpt>
      <trkpt lat="42.03624" lon="2.84055">
        <ele>80.8</ele>
        <time>2022-05-21 07:45:17</time>
      </trkpt>
      <trkpt lat="42.03627" lon="2.84057">
        <ele>81</ele>
        <time>2022-05-21 07:45:18</time>
      </trkpt>
      <trkpt lat="42.03629" lon="2.84058">
        <ele>81.2</ele>
        <time>2022-05-21 07:45:19</time>
      </trkpt>
      <trkpt lat="42.03632" lon="2.8406">
        <ele>81.4</ele>
        <time>2022-05-21 07:45:20</time>
      </trkpt>
      <trkpt lat="42.03635" lon="2.84061">
        <ele>81.6</ele>
        <time>2022-05-21 07:45:21</time>
      </trkpt>
      <trkpt lat="42.03638" lon="2.84062">
        <ele>81.8</ele>
        <time>2022-05-21 07:45:22</time>
      </trkpt>
      <trkpt lat="42.0364" lon="2.84063">
        <ele>82</ele>
        <time>2022-05-21 07:45:23</time>
      </trkpt>
      <trkpt lat="42.03643" lon="2.84064">
        <ele>82.2</ele>
        <time>2022-05-21 07:45:24</time>
      </trkpt>
      <trkpt lat="42.03646" lon="2.84066">
        <ele>82.4</ele>
        <time>2022-05-21 07:45:25</time>
      </trkpt>
      <trkpt lat="42.03648" lon="2.84067">
        <ele>82.6</ele>
        <time>2022-05-21 07:45:26</time>
      </trkpt>
      <trkpt lat="42.03652" lon="2.84068">
        <ele>82.8</ele>
        <time>2022-05-21 07:45:27</time>
      </trkpt>
      <trkpt lat="42.03654" lon="2.84069">
        <ele>82.8</ele>
        <time>2022-05-21 07:45:28</time>
      </trkpt>
      <trkpt lat="42.03657" lon="2.84071">
        <ele>83</ele>
        <time>2022-05-21 07:45:29</time>
      </trkpt>
      <trkpt lat="42.0366" lon="2.84072">
        <ele>83.2</ele>
        <time>2022-05-21 07:45:30</time>
      </trkpt>
      <trkpt lat="42.03663" lon="2.84073">
        <ele>83.4</ele>
        <time>2022-05-21 07:45:31</time>
      </trkpt>
      <trkpt lat="42.03666" lon="2.84074">
        <ele>83.6</ele>
        <time>2022-05-21 07:45:32</time>
      </trkpt>
      <trkpt lat="42.03668" lon="2.84076">
        <ele>83.8</ele>
        <time>2022-05-21 07:45:33</time>
      </trkpt>
      <trkpt lat="42.03671" lon="2.84077">
        <ele>84</ele>
        <time>2022-05-21 07:45:34</time>
      </trkpt>
      <trkpt lat="42.03674" lon="2.84078">
        <ele>84.2</ele>
        <time>2022-05-21 07:45:35</time>
      </trkpt>
      <trkpt lat="42.03677" lon="2.84079">
        <ele>84.4</ele>
        <time>2022-05-21 07:45:36</time>
      </trkpt>
      <trkpt lat="42.0368" lon="2.8408">
        <ele>84.6</ele>
        <time>2022-05-21 07:45:37</time>
      </trkpt>
      <trkpt lat="42.03683" lon="2.84081">
        <ele>84.8</ele>
        <time>2022-05-21 07:45:38</time>
      </trkpt>
      <trkpt lat="42.03686" lon="2.84082">
        <ele>85</ele>
        <time>2022-05-21 07:45:39</time>
      </trkpt>
      <trkpt lat="42.03689" lon="2.84082">
        <ele>85.2</ele>
        <time>2022-05-21 07:45:40</time>
      </trkpt>
      <trkpt lat="42.03691" lon="2.84083">
        <ele>85.4</ele>
        <time>2022-05-21 07:45:41</time>
      </trkpt>
      <trkpt lat="42.03694" lon="2.84084">
        <ele>85.6</ele>
        <time>2022-05-21 07:45:42</time>
      </trkpt>
      <trkpt lat="42.03697" lon="2.84084">
        <ele>85.8</ele>
        <time>2022-05-21 07:45:43</time>
      </trkpt>
      <trkpt lat="42.03699" lon="2.84085">
        <ele>86</ele>
        <time>2022-05-21 07:45:44</time>
      </trkpt>
      <trkpt lat="42.03702" lon="2.84086">
        <ele>86.2</ele>
        <time>2022-05-21 07:45:45</time>
      </trkpt>
      <trkpt lat="42.03704" lon="2.84087">
        <ele>86.6</ele>
        <time>2022-05-21 07:45:46</time>
      </trkpt>
      <trkpt lat="42.03706" lon="2.84089">
        <ele>86.8</ele>
        <time>2022-05-21 07:45:47</time>
      </trkpt>
      <trkpt lat="42.03709" lon="2.8409">
        <ele>87</ele>
        <time>2022-05-21 07:45:48</time>
      </trkpt>
      <trkpt lat="42.03711" lon="2.84091">
        <ele>87.2</ele>
        <time>2022-05-21 07:45:49</time>
      </trkpt>
      <trkpt lat="42.03714" lon="2.84092">
        <ele>87.4</ele>
        <time>2022-05-21 07:45:50</time>
      </trkpt>
      <trkpt lat="42.03717" lon="2.84093">
        <ele>87.6</ele>
        <time>2022-05-21 07:45:51</time>
      </trkpt>
      <trkpt lat="42.03719" lon="2.84095">
        <ele>87.8</ele>
        <time>2022-05-21 07:45:52</time>
      </trkpt>
      <trkpt lat="42.03721" lon="2.84097">
        <ele>88</ele>
        <time>2022-05-21 07:45:53</time>
      </trkpt>
      <trkpt lat="42.03724" lon="2.84098">
        <ele>88.2</ele>
        <time>2022-05-21 07:45:54</time>
      </trkpt>
      <trkpt lat="42.03726" lon="2.841">
        <ele>88.4</ele>
        <time>2022-05-21 07:45:55</time>
      </trkpt>
      <trkpt lat="42.03728" lon="2.84102">
        <ele>88.6</ele>
        <time>2022-05-21 07:45:56</time>
      </trkpt>
      <trkpt lat="42.03731" lon="2.84104">
        <ele>88.8</ele>
        <time>2022-05-21 07:45:57</time>
      </trkpt>
      <trkpt lat="42.03733" lon="2.84107">
        <ele>89</ele>
        <time>2022-05-21 07:45:58</time>
      </trkpt>
      <trkpt lat="42.03735" lon="2.84109">
        <ele>89.4</ele>
        <time>2022-05-21 07:45:59</time>
      </trkpt>
      <trkpt lat="42.03738" lon="2.84112">
        <ele>89.6</ele>
        <time>2022-05-21 07:46:00</time>
      </trkpt>
      <trkpt lat="42.03741" lon="2.84115">
        <ele>89.8</ele>
        <time>2022-05-21 07:46:01</time>
      </trkpt>
      <trkpt lat="42.03743" lon="2.84118">
        <ele>90</ele>
        <time>2022-05-21 07:46:02</time>
      </trkpt>
      <trkpt lat="42.03745" lon="2.8412">
        <ele>90.2</ele>
        <time>2022-05-21 07:46:03</time>
      </trkpt>
      <trkpt lat="42.03747" lon="2.84123">
        <ele>90.4</ele>
        <time>2022-05-21 07:46:04</time>
      </trkpt>
      <trkpt lat="42.03749" lon="2.84126">
        <ele>90.6</ele>
        <time>2022-05-21 07:46:05</time>
      </trkpt>
      <trkpt lat="42.03751" lon="2.84129">
        <ele>90.8</ele>
        <time>2022-05-21 07:46:06</time>
      </trkpt>
      <trkpt lat="42.03754" lon="2.84132">
        <ele>91</ele>
        <time>2022-05-21 07:46:07</time>
      </trkpt>
      <trkpt lat="42.03756" lon="2.84135">
        <ele>91.2</ele>
        <time>2022-05-21 07:46:08</time>
      </trkpt>
      <trkpt lat="42.03758" lon="2.84138">
        <ele>91.6</ele>
        <time>2022-05-21 07:46:09</time>
      </trkpt>
      <trkpt lat="42.0376" lon="2.84141">
        <ele>91.8</ele>
        <time>2022-05-21 07:46:10</time>
      </trkpt>
      <trkpt lat="42.03762" lon="2.84144">
        <ele>92</ele>
        <time>2022-05-21 07:46:11</time>
      </trkpt>
      <trkpt lat="42.03764" lon="2.84147">
        <ele>92.2</ele>
        <time>2022-05-21 07:46:12</time>
      </trkpt>
      <trkpt lat="42.03766" lon="2.8415">
        <ele>92.4</ele>
        <time>2022-05-21 07:46:13</time>
      </trkpt>
      <trkpt lat="42.03768" lon="2.84153">
        <ele>92.8</ele>
        <time>2022-05-21 07:46:14</time>
      </trkpt>
      <trkpt lat="42.0377" lon="2.84156">
        <ele>93</ele>
        <time>2022-05-21 07:46:15</time>
      </trkpt>
      <trkpt lat="42.03772" lon="2.84159">
        <ele>93.2</ele>
        <time>2022-05-21 07:46:16</time>
      </trkpt>
      <trkpt lat="42.03774" lon="2.84163">
        <ele>93.4</ele>
        <time>2022-05-21 07:46:17</time>
      </trkpt>
      <trkpt lat="42.03775" lon="2.84166">
        <ele>93.6</ele>
        <time>2022-05-21 07:46:18</time>
      </trkpt>
      <trkpt lat="42.03777" lon="2.84169">
        <ele>93.8</ele>
        <time>2022-05-21 07:46:19</time>
      </trkpt>
      <trkpt lat="42.03779" lon="2.84172">
        <ele>94.2</ele>
        <time>2022-05-21 07:46:20</time>
      </trkpt>
      <trkpt lat="42.03781" lon="2.84175">
        <ele>94.4</ele>
        <time>2022-05-21 07:46:21</time>
      </trkpt>
      <trkpt lat="42.03783" lon="2.84178">
        <ele>94.8</ele>
        <time>2022-05-21 07:46:22</time>
      </trkpt>
      <trkpt lat="42.03785" lon="2.84181">
        <ele>95</ele>
        <time>2022-05-21 07:46:23</time>
      </trkpt>
      <trkpt lat="42.03786" lon="2.84184">
        <ele>95.2</ele>
        <time>2022-05-21 07:46:24</time>
      </trkpt>
      <trkpt lat="42.03788" lon="2.84187">
        <ele>95.4</ele>
        <time>2022-05-21 07:46:25</time>
      </trkpt>
      <trkpt lat="42.0379" lon="2.8419">
        <ele>95.6</ele>
        <time>2022-05-21 07:46:26</time>
      </trkpt>
      <trkpt lat="42.03792" lon="2.84193">
        <ele>96</ele>
        <time>2022-05-21 07:46:27</time>
      </trkpt>
      <trkpt lat="42.03794" lon="2.84196">
        <ele>96.2</ele>
        <time>2022-05-21 07:46:28</time>
      </trkpt>
      <trkpt lat="42.03795" lon="2.84199">
        <ele>96.4</ele>
        <time>2022-05-21 07:46:29</time>
      </trkpt>
      <trkpt lat="42.03797" lon="2.84202">
        <ele>96.6</ele>
        <time>2022-05-21 07:46:30</time>
      </trkpt>
      <trkpt lat="42.03799" lon="2.84205">
        <ele>96.8</ele>
        <time>2022-05-21 07:46:31</time>
      </trkpt>
      <trkpt lat="42.03801" lon="2.84208">
        <ele>97</ele>
        <time>2022-05-21 07:46:32</time>
      </trkpt>
      <trkpt lat="42.03803" lon="2.84211">
        <ele>97.4</ele>
        <time>2022-05-21 07:46:33</time>
      </trkpt>
      <trkpt lat="42.03806" lon="2.84214">
        <ele>97.6</ele>
        <time>2022-05-21 07:46:34</time>
      </trkpt>
      <trkpt lat="42.03808" lon="2.84217">
        <ele>97.8</ele>
        <time>2022-05-21 07:46:35</time>
      </trkpt>
      <trkpt lat="42.0381" lon="2.84219">
        <ele>98</ele>
        <time>2022-05-21 07:46:36</time>
      </trkpt>
      <trkpt lat="42.03812" lon="2.84222">
        <ele>98.2</ele>
        <time>2022-05-21 07:46:37</time>
      </trkpt>
      <trkpt lat="42.03815" lon="2.84225">
        <ele>98.4</ele>
        <time>2022-05-21 07:46:38</time>
      </trkpt>
      <trkpt lat="42.03817" lon="2.84227">
        <ele>98.6</ele>
        <time>2022-05-21 07:46:39</time>
      </trkpt>
      <trkpt lat="42.0382" lon="2.84229">
        <ele>98.8</ele>
        <time>2022-05-21 07:46:40</time>
      </trkpt>
      <trkpt lat="42.03822" lon="2.84232">
        <ele>99</ele>
        <time>2022-05-21 07:46:41</time>
      </trkpt>
      <trkpt lat="42.03825" lon="2.84234">
        <ele>99.2</ele>
        <time>2022-05-21 07:46:42</time>
      </trkpt>
      <trkpt lat="42.03827" lon="2.84237">
        <ele>99.4</ele>
        <time>2022-05-21 07:46:43</time>
      </trkpt>
      <trkpt lat="42.0383" lon="2.84239">
        <ele>99.6</ele>
        <time>2022-05-21 07:46:44</time>
      </trkpt>
      <trkpt lat="42.03833" lon="2.84241">
        <ele>99.8</ele>
        <time>2022-05-21 07:46:45</time>
      </trkpt>
      <trkpt lat="42.03836" lon="2.84244">
        <ele>99.8</ele>
        <time>2022-05-21 07:46:46</time>
      </trkpt>
      <trkpt lat="42.03839" lon="2.84246">
        <ele>100</ele>
        <time>2022-05-21 07:46:47</time>
      </trkpt>
      <trkpt lat="42.03841" lon="2.84248">
        <ele>100.2</ele>
        <time>2022-05-21 07:46:48</time>
      </trkpt>
      <trkpt lat="42.03844" lon="2.84251">
        <ele>100.2</ele>
        <time>2022-05-21 07:46:49</time>
      </trkpt>
      <trkpt lat="42.03848" lon="2.84254">
        <ele>100.4</ele>
        <time>2022-05-21 07:46:50</time>
      </trkpt>
      <trkpt lat="42.0385" lon="2.84257">
        <ele>100.6</ele>
        <time>2022-05-21 07:46:51</time>
      </trkpt>
      <trkpt lat="42.03853" lon="2.84261">
        <ele>100.6</ele>
        <time>2022-05-21 07:46:52</time>
      </trkpt>
      <trkpt lat="42.03856" lon="2.84264">
        <ele>100.8</ele>
        <time>2022-05-21 07:46:53</time>
      </trkpt>
      <trkpt lat="42.03859" lon="2.84267">
        <ele>100.8</ele>
        <time>2022-05-21 07:46:54</time>
      </trkpt>
      <trkpt lat="42.03862" lon="2.8427">
        <ele>101</ele>
        <time>2022-05-21 07:46:55</time>
      </trkpt>
      <trkpt lat="42.03864" lon="2.84274">
        <ele>101.2</ele>
        <time>2022-05-21 07:46:56</time>
      </trkpt>
      <trkpt lat="42.03867" lon="2.84278">
        <ele>101.2</ele>
        <time>2022-05-21 07:46:57</time>
      </trkpt>
      <trkpt lat="42.0387" lon="2.84281">
        <ele>101.4</ele>
        <time>2022-05-21 07:46:58</time>
      </trkpt>
      <trkpt lat="42.03872" lon="2.84285">
        <ele>101.4</ele>
        <time>2022-05-21 07:46:59</time>
      </trkpt>
      <trkpt lat="42.03875" lon="2.84289">
        <ele>101.6</ele>
        <time>2022-05-21 07:47:00</time>
      </trkpt>
      <trkpt lat="42.03877" lon="2.84293">
        <ele>101.6</ele>
        <time>2022-05-21 07:47:01</time>
      </trkpt>
      <trkpt lat="42.0388" lon="2.84297">
        <ele>101.8</ele>
        <time>2022-05-21 07:47:02</time>
      </trkpt>
      <trkpt lat="42.03883" lon="2.84302">
        <ele>101.8</ele>
        <time>2022-05-21 07:47:03</time>
      </trkpt>
      <trkpt lat="42.03885" lon="2.84308">
        <ele>101.8</ele>
        <time>2022-05-21 07:47:04</time>
      </trkpt>
      <trkpt lat="42.03887" lon="2.84313">
        <ele>101.8</ele>
        <time>2022-05-21 07:47:05</time>
      </trkpt>
      <trkpt lat="42.0389" lon="2.84318">
        <ele>101.8</ele>
        <time>2022-05-21 07:47:06</time>
      </trkpt>
      <trkpt lat="42.03893" lon="2.84324">
        <ele>101.8</ele>
        <time>2022-05-21 07:47:07</time>
      </trkpt>
      <trkpt lat="42.03895" lon="2.8433">
        <ele>101.8</ele>
        <time>2022-05-21 07:47:08</time>
      </trkpt>
      <trkpt lat="42.03898" lon="2.84337">
        <ele>101.8</ele>
        <time>2022-05-21 07:47:09</time>
      </trkpt>
      <trkpt lat="42.039" lon="2.84343">
        <ele>101.8</ele>
        <time>2022-05-21 07:47:10</time>
      </trkpt>
      <trkpt lat="42.03902" lon="2.8435">
        <ele>101.6</ele>
        <time>2022-05-21 07:47:11</time>
      </trkpt>
      <trkpt lat="42.03904" lon="2.84358">
        <ele>101.6</ele>
        <time>2022-05-21 07:47:12</time>
      </trkpt>
      <trkpt lat="42.03906" lon="2.84366">
        <ele>101.4</ele>
        <time>2022-05-21 07:47:13</time>
      </trkpt>
      <trkpt lat="42.03908" lon="2.84374">
        <ele>101.2</ele>
        <time>2022-05-21 07:47:14</time>
      </trkpt>
      <trkpt lat="42.0391" lon="2.84382">
        <ele>100.8</ele>
        <time>2022-05-21 07:47:15</time>
      </trkpt>
      <trkpt lat="42.03911" lon="2.84391">
        <ele>100.6</ele>
        <time>2022-05-21 07:47:16</time>
      </trkpt>
      <trkpt lat="42.03912" lon="2.844">
        <ele>100.4</ele>
        <time>2022-05-21 07:47:17</time>
      </trkpt>
      <trkpt lat="42.03913" lon="2.8441">
        <ele>100.2</ele>
        <time>2022-05-21 07:47:18</time>
      </trkpt>
      <trkpt lat="42.03914" lon="2.8442">
        <ele>99.8</ele>
        <time>2022-05-21 07:47:19</time>
      </trkpt>
      <trkpt lat="42.03914" lon="2.84429">
        <ele>99.6</ele>
        <time>2022-05-21 07:47:20</time>
      </trkpt>
      <trkpt lat="42.03915" lon="2.8444">
        <ele>99.2</ele>
        <time>2022-05-21 07:47:21</time>
      </trkpt>
      <trkpt lat="42.03915" lon="2.8445">
        <ele>99</ele>
        <time>2022-05-21 07:47:22</time>
      </trkpt>
      <trkpt lat="42.03916" lon="2.8446">
        <ele>98.8</ele>
        <time>2022-05-21 07:47:23</time>
      </trkpt>
      <trkpt lat="42.03917" lon="2.8447">
        <ele>98.4</ele>
        <time>2022-05-21 07:47:24</time>
      </trkpt>
      <trkpt lat="42.03917" lon="2.84481">
        <ele>98.2</ele>
        <time>2022-05-21 07:47:25</time>
      </trkpt>
      <trkpt lat="42.03917" lon="2.8449">
        <ele>98</ele>
        <time>2022-05-21 07:47:26</time>
      </trkpt>
      <trkpt lat="42.03918" lon="2.84503">
        <ele>97.6</ele>
        <time>2022-05-21 07:47:27</time>
      </trkpt>
      <trkpt lat="42.0392" lon="2.84513">
        <ele>97.2</ele>
        <time>2022-05-21 07:47:28</time>
      </trkpt>
      <trkpt lat="42.03923" lon="2.84526">
        <ele>96.8</ele>
        <time>2022-05-21 07:47:29</time>
      </trkpt>
      <trkpt lat="42.03926" lon="2.84536">
        <ele>96.2</ele>
        <time>2022-05-21 07:47:30</time>
      </trkpt>
      <trkpt lat="42.03929" lon="2.84548">
        <ele>95.6</ele>
        <time>2022-05-21 07:47:31</time>
      </trkpt>
      <trkpt lat="42.03934" lon="2.84559">
        <ele>95</ele>
        <time>2022-05-21 07:47:32</time>
      </trkpt>
      <trkpt lat="42.03938" lon="2.84568">
        <ele>94.2</ele>
        <time>2022-05-21 07:47:33</time>
      </trkpt>
      <trkpt lat="42.03949" lon="2.84583">
        <ele>93.4</ele>
        <time>2022-05-21 07:47:34</time>
      </trkpt>
      <trkpt lat="42.03956" lon="2.84592">
        <ele>92.8</ele>
        <time>2022-05-21 07:47:35</time>
      </trkpt>
      <trkpt lat="42.03965" lon="2.84601">
        <ele>92</ele>
        <time>2022-05-21 07:47:36</time>
      </trkpt>
      <trkpt lat="42.03975" lon="2.84608">
        <ele>91.2</ele>
        <time>2022-05-21 07:47:37</time>
      </trkpt>
      <trkpt lat="42.03986" lon="2.84615">
        <ele>90.2</ele>
        <time>2022-05-21 07:47:38</time>
      </trkpt>
      <trkpt lat="42.03994" lon="2.84621">
        <ele>89.6</ele>
        <time>2022-05-21 07:47:39</time>
      </trkpt>
      <trkpt lat="42.04005" lon="2.84629">
        <ele>88.6</ele>
        <time>2022-05-21 07:47:40</time>
      </trkpt>
      <trkpt lat="42.04017" lon="2.84637">
        <ele>87.8</ele>
        <time>2022-05-21 07:47:41</time>
      </trkpt>
      <trkpt lat="42.04028" lon="2.84645">
        <ele>87</ele>
        <time>2022-05-21 07:47:42</time>
      </trkpt>
      <trkpt lat="42.04037" lon="2.84651">
        <ele>86.4</ele>
        <time>2022-05-21 07:47:43</time>
      </trkpt>
      <trkpt lat="42.04046" lon="2.84658">
        <ele>85.6</ele>
        <time>2022-05-21 07:47:44</time>
      </trkpt>
      <trkpt lat="42.04057" lon="2.84667">
        <ele>84.8</ele>
        <time>2022-05-21 07:47:45</time>
      </trkpt>
      <trkpt lat="42.0407" lon="2.84675">
        <ele>84</ele>
        <time>2022-05-21 07:47:46</time>
      </trkpt>
      <trkpt lat="42.0408" lon="2.84682">
        <ele>83.4</ele>
        <time>2022-05-21 07:47:47</time>
      </trkpt>
      <trkpt lat="42.04091" lon="2.84691">
        <ele>82.4</ele>
        <time>2022-05-21 07:47:48</time>
      </trkpt>
      <trkpt lat="42.04102" lon="2.84698">
        <ele>81.6</ele>
        <time>2022-05-21 07:47:49</time>
      </trkpt>
      <trkpt lat="42.04111" lon="2.84705">
        <ele>80.6</ele>
        <time>2022-05-21 07:47:50</time>
      </trkpt>
      <trkpt lat="42.04124" lon="2.84713">
        <ele>79.6</ele>
        <time>2022-05-21 07:47:51</time>
      </trkpt>
      <trkpt lat="42.04135" lon="2.84718">
        <ele>78.6</ele>
        <time>2022-05-21 07:47:52</time>
      </trkpt>
      <trkpt lat="42.04146" lon="2.84725">
        <ele>77.6</ele>
        <time>2022-05-21 07:47:53</time>
      </trkpt>
      <trkpt lat="42.0416" lon="2.84733">
        <ele>76.6</ele>
        <time>2022-05-21 07:47:54</time>
      </trkpt>
      <trkpt lat="42.04172" lon="2.8474">
        <ele>75.6</ele>
        <time>2022-05-21 07:47:55</time>
      </trkpt>
      <trkpt lat="42.04185" lon="2.84747">
        <ele>74.6</ele>
        <time>2022-05-21 07:47:56</time>
      </trkpt>
      <trkpt lat="42.04197" lon="2.84754">
        <ele>73.4</ele>
        <time>2022-05-21 07:47:57</time>
      </trkpt>
      <trkpt lat="42.04209" lon="2.84761">
        <ele>72.4</ele>
        <time>2022-05-21 07:47:58</time>
      </trkpt>
      <trkpt lat="42.04221" lon="2.84768">
        <ele>71.4</ele>
        <time>2022-05-21 07:47:59</time>
      </trkpt>
      <trkpt lat="42.04231" lon="2.84773">
        <ele>70.4</ele>
        <time>2022-05-21 07:48:00</time>
      </trkpt>
      <trkpt lat="42.04247" lon="2.84783">
        <ele>69</ele>
        <time>2022-05-21 07:48:01</time>
      </trkpt>
      <trkpt lat="42.04261" lon="2.84792">
        <ele>67.8</ele>
        <time>2022-05-21 07:48:02</time>
      </trkpt>
      <trkpt lat="42.04271" lon="2.84802">
        <ele>66.6</ele>
        <time>2022-05-21 07:48:03</time>
      </trkpt>
      <trkpt lat="42.0428" lon="2.84814">
        <ele>65.4</ele>
        <time>2022-05-21 07:48:04</time>
      </trkpt>
      <trkpt lat="42.0429" lon="2.84831">
        <ele>64.2</ele>
        <time>2022-05-21 07:48:05</time>
      </trkpt>
      <trkpt lat="42.04298" lon="2.84849">
        <ele>62.8</ele>
        <time>2022-05-21 07:48:06</time>
      </trkpt>
      <trkpt lat="42.04302" lon="2.84866">
        <ele>61.6</ele>
        <time>2022-05-21 07:48:07</time>
      </trkpt>
      <trkpt lat="42.04305" lon="2.84884">
        <ele>60.4</ele>
        <time>2022-05-21 07:48:08</time>
      </trkpt>
      <trkpt lat="42.04305" lon="2.84903">
        <ele>59.4</ele>
        <time>2022-05-21 07:48:09</time>
      </trkpt>
      <trkpt lat="42.04304" lon="2.84923">
        <ele>58.6</ele>
        <time>2022-05-21 07:48:10</time>
      </trkpt>
      <trkpt lat="42.04303" lon="2.84943">
        <ele>57.2</ele>
        <time>2022-05-21 07:48:11</time>
      </trkpt>
      <trkpt lat="42.043" lon="2.84962">
        <ele>56</ele>
        <time>2022-05-21 07:48:12</time>
      </trkpt>
      <trkpt lat="42.04296" lon="2.8498">
        <ele>55</ele>
        <time>2022-05-21 07:48:13</time>
      </trkpt>
      <trkpt lat="42.04294" lon="2.84999">
        <ele>54</ele>
        <time>2022-05-21 07:48:14</time>
      </trkpt>
      <trkpt lat="42.04291" lon="2.85018">
        <ele>53</ele>
        <time>2022-05-21 07:48:15</time>
      </trkpt>
      <trkpt lat="42.04289" lon="2.85036">
        <ele>52</ele>
        <time>2022-05-21 07:48:16</time>
      </trkpt>
      <trkpt lat="42.04286" lon="2.85054">
        <ele>51</ele>
        <time>2022-05-21 07:48:17</time>
      </trkpt>
      <trkpt lat="42.04284" lon="2.85072">
        <ele>50.2</ele>
        <time>2022-05-21 07:48:18</time>
      </trkpt>
      <trkpt lat="42.04281" lon="2.8509">
        <ele>49.2</ele>
        <time>2022-05-21 07:48:19</time>
      </trkpt>
      <trkpt lat="42.04279" lon="2.85109">
        <ele>48.2</ele>
        <time>2022-05-21 07:48:20</time>
      </trkpt>
      <trkpt lat="42.04276" lon="2.85127">
        <ele>47.2</ele>
        <time>2022-05-21 07:48:21</time>
      </trkpt>
      <trkpt lat="42.04273" lon="2.85144">
        <ele>46.6</ele>
        <time>2022-05-21 07:48:22</time>
      </trkpt>
      <trkpt lat="42.0427" lon="2.85161">
        <ele>46</ele>
        <time>2022-05-21 07:48:23</time>
      </trkpt>
      <trkpt lat="42.04268" lon="2.85178">
        <ele>45.6</ele>
        <time>2022-05-21 07:48:24</time>
      </trkpt>
      <trkpt lat="42.04266" lon="2.85194">
        <ele>45.2</ele>
        <time>2022-05-21 07:48:25</time>
      </trkpt>
      <trkpt lat="42.04264" lon="2.8521">
        <ele>45</ele>
        <time>2022-05-21 07:48:26</time>
      </trkpt>
      <trkpt lat="42.04261" lon="2.85226">
        <ele>45</ele>
        <time>2022-05-21 07:48:27</time>
      </trkpt>
      <trkpt lat="42.04259" lon="2.85241">
        <ele>45</ele>
        <time>2022-05-21 07:48:28</time>
      </trkpt>
      <trkpt lat="42.04256" lon="2.85256">
        <ele>45</ele>
        <time>2022-05-21 07:48:29</time>
      </trkpt>
      <trkpt lat="42.04254" lon="2.85271">
        <ele>45</ele>
        <time>2022-05-21 07:48:30</time>
      </trkpt>
      <trkpt lat="42.04251" lon="2.85286">
        <ele>45</ele>
        <time>2022-05-21 07:48:31</time>
      </trkpt>
      <trkpt lat="42.04248" lon="2.853">
        <ele>45.2</ele>
        <time>2022-05-21 07:48:32</time>
      </trkpt>
      <trkpt lat="42.04245" lon="2.85314">
        <ele>45.2</ele>
        <time>2022-05-21 07:48:33</time>
      </trkpt>
      <trkpt lat="42.04243" lon="2.85328">
        <ele>45.4</ele>
        <time>2022-05-21 07:48:34</time>
      </trkpt>
      <trkpt lat="42.0424" lon="2.85341">
        <ele>45.6</ele>
        <time>2022-05-21 07:48:35</time>
      </trkpt>
      <trkpt lat="42.04237" lon="2.85353">
        <ele>45.8</ele>
        <time>2022-05-21 07:48:36</time>
      </trkpt>
      <trkpt lat="42.04234" lon="2.85365">
        <ele>46</ele>
        <time>2022-05-21 07:48:37</time>
      </trkpt>
      <trkpt lat="42.04229" lon="2.85375">
        <ele>46.2</ele>
        <time>2022-05-21 07:48:38</time>
      </trkpt>
      <trkpt lat="42.04224" lon="2.85385">
        <ele>46.2</ele>
        <time>2022-05-21 07:48:39</time>
      </trkpt>
      <trkpt lat="42.04219" lon="2.85396">
        <ele>46.2</ele>
        <time>2022-05-21 07:48:40</time>
      </trkpt>
      <trkpt lat="42.04214" lon="2.85405">
        <ele>46.2</ele>
        <time>2022-05-21 07:48:41</time>
      </trkpt>
      <trkpt lat="42.04208" lon="2.85415">
        <ele>46.2</ele>
        <time>2022-05-21 07:48:42</time>
      </trkpt>
      <trkpt lat="42.04203" lon="2.85424">
        <ele>46.2</ele>
        <time>2022-05-21 07:48:43</time>
      </trkpt>
      <trkpt lat="42.04198" lon="2.85434">
        <ele>46.2</ele>
        <time>2022-05-21 07:48:44</time>
      </trkpt>
      <trkpt lat="42.04195" lon="2.85444">
        <ele>46.2</ele>
        <time>2022-05-21 07:48:45</time>
      </trkpt>
      <trkpt lat="42.04194" lon="2.85455">
        <ele>46.4</ele>
        <time>2022-05-21 07:48:46</time>
      </trkpt>
      <trkpt lat="42.04195" lon="2.85465">
        <ele>46.4</ele>
        <time>2022-05-21 07:48:47</time>
      </trkpt>
      <trkpt lat="42.042" lon="2.85474">
        <ele>46.6</ele>
        <time>2022-05-21 07:48:48</time>
      </trkpt>
      <trkpt lat="42.04206" lon="2.85481">
        <ele>46.8</ele>
        <time>2022-05-21 07:48:49</time>
      </trkpt>
      <trkpt lat="42.04211" lon="2.85486">
        <ele>47</ele>
        <time>2022-05-21 07:48:50</time>
      </trkpt>
      <trkpt lat="42.04218" lon="2.85491">
        <ele>47.2</ele>
        <time>2022-05-21 07:48:51</time>
      </trkpt>
      <trkpt lat="42.04223" lon="2.85497">
        <ele>47.6</ele>
        <time>2022-05-21 07:48:52</time>
      </trkpt>
      <trkpt lat="42.04227" lon="2.85503">
        <ele>47.8</ele>
        <time>2022-05-21 07:48:53</time>
      </trkpt>
      <trkpt lat="42.0423" lon="2.8551">
        <ele>48.2</ele>
        <time>2022-05-21 07:48:54</time>
      </trkpt>
      <trkpt lat="42.0423" lon="2.85517">
        <ele>48.4</ele>
        <time>2022-05-21 07:48:55</time>
      </trkpt>
      <trkpt lat="42.04231" lon="2.85524">
        <ele>48.6</ele>
        <time>2022-05-21 07:48:56</time>
      </trkpt>
      <trkpt lat="42.04232" lon="2.85531">
        <ele>48.8</ele>
        <time>2022-05-21 07:48:57</time>
      </trkpt>
      <trkpt lat="42.04232" lon="2.85538">
        <ele>49</ele>
        <time>2022-05-21 07:48:58</time>
      </trkpt>
      <trkpt lat="42.04233" lon="2.85545">
        <ele>49.2</ele>
        <time>2022-05-21 07:48:59</time>
      </trkpt>
      <trkpt lat="42.04234" lon="2.85552">
        <ele>49.2</ele>
        <time>2022-05-21 07:49:00</time>
      </trkpt>
      <trkpt lat="42.04234" lon="2.8556">
        <ele>49.2</ele>
        <time>2022-05-21 07:49:01</time>
      </trkpt>
      <trkpt lat="42.04235" lon="2.85567">
        <ele>49.2</ele>
        <time>2022-05-21 07:49:02</time>
      </trkpt>
      <trkpt lat="42.04236" lon="2.85575">
        <ele>49.4</ele>
        <time>2022-05-21 07:49:03</time>
      </trkpt>
      <trkpt lat="42.04237" lon="2.85584">
        <ele>49.4</ele>
        <time>2022-05-21 07:49:04</time>
      </trkpt>
      <trkpt lat="42.04239" lon="2.85592">
        <ele>49.4</ele>
        <time>2022-05-21 07:49:05</time>
      </trkpt>
      <trkpt lat="42.0424" lon="2.856">
        <ele>49.4</ele>
        <time>2022-05-21 07:49:06</time>
      </trkpt>
      <trkpt lat="42.04242" lon="2.85608">
        <ele>49.4</ele>
        <time>2022-05-21 07:49:07</time>
      </trkpt>
      <trkpt lat="42.04243" lon="2.85616">
        <ele>49.4</ele>
        <time>2022-05-21 07:49:08</time>
      </trkpt>
      <trkpt lat="42.04244" lon="2.85624">
        <ele>49.4</ele>
        <time>2022-05-21 07:49:09</time>
      </trkpt>
      <trkpt lat="42.04245" lon="2.85633">
        <ele>49.2</ele>
        <time>2022-05-21 07:49:10</time>
      </trkpt>
      <trkpt lat="42.04245" lon="2.85642">
        <ele>49.2</ele>
        <time>2022-05-21 07:49:11</time>
      </trkpt>
      <trkpt lat="42.04243" lon="2.8565">
        <ele>49.4</ele>
        <time>2022-05-21 07:49:12</time>
      </trkpt>
      <trkpt lat="42.04239" lon="2.85655">
        <ele>49.4</ele>
        <time>2022-05-21 07:49:13</time>
      </trkpt>
      <trkpt lat="42.04235" lon="2.85659">
        <ele>49.6</ele>
        <time>2022-05-21 07:49:14</time>
      </trkpt>
      <trkpt lat="42.04229" lon="2.8566">
        <ele>49.6</ele>
        <time>2022-05-21 07:49:15</time>
      </trkpt>
      <trkpt lat="42.04224" lon="2.85659">
        <ele>49.8</ele>
        <time>2022-05-21 07:49:16</time>
      </trkpt>
      <trkpt lat="42.04219" lon="2.85657">
        <ele>50</ele>
        <time>2022-05-21 07:49:17</time>
      </trkpt>
      <trkpt lat="42.04216" lon="2.85654">
        <ele>50.2</ele>
        <time>2022-05-21 07:49:18</time>
      </trkpt>
      <trkpt lat="42.04212" lon="2.85652">
        <ele>50.4</ele>
        <time>2022-05-21 07:49:19</time>
      </trkpt>
      <trkpt lat="42.04209" lon="2.85649">
        <ele>50.6</ele>
        <time>2022-05-21 07:49:20</time>
      </trkpt>
      <trkpt lat="42.04206" lon="2.85647">
        <ele>50.6</ele>
        <time>2022-05-21 07:49:21</time>
      </trkpt>
      <trkpt lat="42.04204" lon="2.85644">
        <ele>50.8</ele>
        <time>2022-05-21 07:49:22</time>
      </trkpt>
      <trkpt lat="42.04202" lon="2.85641">
        <ele>51</ele>
        <time>2022-05-21 07:49:23</time>
      </trkpt>
      <trkpt lat="42.042" lon="2.8564">
        <ele>51</ele>
        <time>2022-05-21 07:49:24</time>
      </trkpt>
      <trkpt lat="42.04198" lon="2.8564">
        <ele>51.2</ele>
        <time>2022-05-21 07:49:25</time>
      </trkpt>
      <trkpt lat="42.04197" lon="2.85642">
        <ele>51.2</ele>
        <time>2022-05-21 07:49:26</time>
      </trkpt>
      <trkpt lat="42.04198" lon="2.85646">
        <ele>51.2</ele>
        <time>2022-05-21 07:49:27</time>
      </trkpt>
      <trkpt lat="42.042" lon="2.85651">
        <ele>51</ele>
        <time>2022-05-21 07:49:28</time>
      </trkpt>
      <trkpt lat="42.04203" lon="2.85655">
        <ele>51</ele>
        <time>2022-05-21 07:49:29</time>
      </trkpt>
      <trkpt lat="42.04207" lon="2.85659">
        <ele>50.8</ele>
        <time>2022-05-21 07:49:30</time>
      </trkpt>
      <trkpt lat="42.04211" lon="2.85663">
        <ele>50.6</ele>
        <time>2022-05-21 07:49:31</time>
      </trkpt>
      <trkpt lat="42.04214" lon="2.85668">
        <ele>50.6</ele>
        <time>2022-05-21 07:49:32</time>
      </trkpt>
      <trkpt lat="42.04219" lon="2.85674">
        <ele>50.4</ele>
        <time>2022-05-21 07:49:33</time>
      </trkpt>
      <trkpt lat="42.04223" lon="2.8568">
        <ele>50.2</ele>
        <time>2022-05-21 07:49:34</time>
      </trkpt>
      <trkpt lat="42.04228" lon="2.85686">
        <ele>50</ele>
        <time>2022-05-21 07:49:35</time>
      </trkpt>
      <trkpt lat="42.04232" lon="2.85692">
        <ele>49.8</ele>
        <time>2022-05-21 07:49:36</time>
      </trkpt>
      <trkpt lat="42.04237" lon="2.85698">
        <ele>49.6</ele>
        <time>2022-05-21 07:49:37</time>
      </trkpt>
      <trkpt lat="42.04242" lon="2.85705">
        <ele>49.4</ele>
        <time>2022-05-21 07:49:38</time>
      </trkpt>
      <trkpt lat="42.04247" lon="2.85712">
        <ele>49.2</ele>
        <time>2022-05-21 07:49:39</time>
      </trkpt>
      <trkpt lat="42.04251" lon="2.85719">
        <ele>49</ele>
        <time>2022-05-21 07:49:40</time>
      </trkpt>
      <trkpt lat="42.04256" lon="2.85726">
        <ele>48.8</ele>
        <time>2022-05-21 07:49:41</time>
      </trkpt>
      <trkpt lat="42.04261" lon="2.85733">
        <ele>48.6</ele>
        <time>2022-05-21 07:49:42</time>
      </trkpt>
      <trkpt lat="42.04266" lon="2.85741">
        <ele>48.4</ele>
        <time>2022-05-21 07:49:43</time>
      </trkpt>
      <trkpt lat="42.04271" lon="2.85749">
        <ele>48.2</ele>
        <time>2022-05-21 07:49:44</time>
      </trkpt>
      <trkpt lat="42.04276" lon="2.85757">
        <ele>47.8</ele>
        <time>2022-05-21 07:49:45</time>
      </trkpt>
      <trkpt lat="42.04281" lon="2.85765">
        <ele>47.6</ele>
        <time>2022-05-21 07:49:46</time>
      </trkpt>
      <trkpt lat="42.04286" lon="2.85773">
        <ele>47.4</ele>
        <time>2022-05-21 07:49:47</time>
      </trkpt>
      <trkpt lat="42.04291" lon="2.85782">
        <ele>47</ele>
        <time>2022-05-21 07:49:48</time>
      </trkpt>
      <trkpt lat="42.04296" lon="2.8579">
        <ele>46.8</ele>
        <time>2022-05-21 07:49:49</time>
      </trkpt>
      <trkpt lat="42.04301" lon="2.85798">
        <ele>46.6</ele>
        <time>2022-05-21 07:49:50</time>
      </trkpt>
      <trkpt lat="42.04307" lon="2.85807">
        <ele>46.4</ele>
        <time>2022-05-21 07:49:51</time>
      </trkpt>
      <trkpt lat="42.04313" lon="2.85815">
        <ele>46.2</ele>
        <time>2022-05-21 07:49:52</time>
      </trkpt>
      <trkpt lat="42.04319" lon="2.85824">
        <ele>46</ele>
        <time>2022-05-21 07:49:53</time>
      </trkpt>
      <trkpt lat="42.04324" lon="2.85833">
        <ele>45.6</ele>
        <time>2022-05-21 07:49:54</time>
      </trkpt>
      <trkpt lat="42.0433" lon="2.85841">
        <ele>45.4</ele>
        <time>2022-05-21 07:49:55</time>
      </trkpt>
      <trkpt lat="42.04335" lon="2.8585">
        <ele>45.2</ele>
        <time>2022-05-21 07:49:56</time>
      </trkpt>
      <trkpt lat="42.04342" lon="2.85859">
        <ele>44.8</ele>
        <time>2022-05-21 07:49:57</time>
      </trkpt>
      <trkpt lat="42.04347" lon="2.85867">
        <ele>44.4</ele>
        <time>2022-05-21 07:49:58</time>
      </trkpt>
      <trkpt lat="42.04352" lon="2.85876">
        <ele>44.2</ele>
        <time>2022-05-21 07:49:59</time>
      </trkpt>
      <trkpt lat="42.04357" lon="2.85885">
        <ele>44</ele>
        <time>2022-05-21 07:50:00</time>
      </trkpt>
      <trkpt lat="42.04362" lon="2.85894">
        <ele>43.8</ele>
        <time>2022-05-21 07:50:01</time>
      </trkpt>
      <trkpt lat="42.04368" lon="2.85901">
        <ele>43.6</ele>
        <time>2022-05-21 07:50:02</time>
      </trkpt>
      <trkpt lat="42.04373" lon="2.85912">
        <ele>43.6</ele>
        <time>2022-05-21 07:50:03</time>
      </trkpt>
      <trkpt lat="42.04378" lon="2.85921">
        <ele>43.4</ele>
        <time>2022-05-21 07:50:04</time>
      </trkpt>
      <trkpt lat="42.04384" lon="2.85931">
        <ele>43.4</ele>
        <time>2022-05-21 07:50:05</time>
      </trkpt>
      <trkpt lat="42.04389" lon="2.85941">
        <ele>43.4</ele>
        <time>2022-05-21 07:50:06</time>
      </trkpt>
      <trkpt lat="42.04394" lon="2.8595">
        <ele>43.4</ele>
        <time>2022-05-21 07:50:07</time>
      </trkpt>
      <trkpt lat="42.04398" lon="2.85958">
        <ele>43.4</ele>
        <time>2022-05-21 07:50:08</time>
      </trkpt>
      <trkpt lat="42.04403" lon="2.85966">
        <ele>43.4</ele>
        <time>2022-05-21 07:50:09</time>
      </trkpt>
      <trkpt lat="42.04407" lon="2.85974">
        <ele>43.4</ele>
        <time>2022-05-21 07:50:10</time>
      </trkpt>
      <trkpt lat="42.04413" lon="2.85985">
        <ele>43.4</ele>
        <time>2022-05-21 07:50:11</time>
      </trkpt>
      <trkpt lat="42.04418" lon="2.85993">
        <ele>43.4</ele>
        <time>2022-05-21 07:50:12</time>
      </trkpt>
      <trkpt lat="42.04422" lon="2.86002">
        <ele>43.4</ele>
        <time>2022-05-21 07:50:13</time>
      </trkpt>
      <trkpt lat="42.04427" lon="2.86011">
        <ele>43.4</ele>
        <time>2022-05-21 07:50:14</time>
      </trkpt>
      <trkpt lat="42.04431" lon="2.86021">
        <ele>43.4</ele>
        <time>2022-05-21 07:50:15</time>
      </trkpt>
      <trkpt lat="42.04435" lon="2.8603">
        <ele>43.4</ele>
        <time>2022-05-21 07:50:16</time>
      </trkpt>
      <trkpt lat="42.0444" lon="2.86039">
        <ele>43.4</ele>
        <time>2022-05-21 07:50:17</time>
      </trkpt>
      <trkpt lat="42.04443" lon="2.86048">
        <ele>43.4</ele>
        <time>2022-05-21 07:50:18</time>
      </trkpt>
      <trkpt lat="42.04448" lon="2.86056">
        <ele>43.4</ele>
        <time>2022-05-21 07:50:19</time>
      </trkpt>
      <trkpt lat="42.04451" lon="2.86065">
        <ele>43.4</ele>
        <time>2022-05-21 07:50:20</time>
      </trkpt>
      <trkpt lat="42.04456" lon="2.86074">
        <ele>43.4</ele>
        <time>2022-05-21 07:50:21</time>
      </trkpt>
      <trkpt lat="42.04459" lon="2.86083">
        <ele>43.4</ele>
        <time>2022-05-21 07:50:22</time>
      </trkpt>
      <trkpt lat="42.04463" lon="2.86092">
        <ele>43.4</ele>
        <time>2022-05-21 07:50:23</time>
      </trkpt>
      <trkpt lat="42.04466" lon="2.86101">
        <ele>43.2</ele>
        <time>2022-05-21 07:50:24</time>
      </trkpt>
      <trkpt lat="42.0447" lon="2.86111">
        <ele>43.2</ele>
        <time>2022-05-21 07:50:25</time>
      </trkpt>
      <trkpt lat="42.04474" lon="2.86119">
        <ele>43.2</ele>
        <time>2022-05-21 07:50:26</time>
      </trkpt>
      <trkpt lat="42.04477" lon="2.86127">
        <ele>43.2</ele>
        <time>2022-05-21 07:50:27</time>
      </trkpt>
      <trkpt lat="42.0448" lon="2.86135">
        <ele>43.2</ele>
        <time>2022-05-21 07:50:28</time>
      </trkpt>
      <trkpt lat="42.04484" lon="2.86144">
        <ele>43.2</ele>
        <time>2022-05-21 07:50:29</time>
      </trkpt>
      <trkpt lat="42.04486" lon="2.86151">
        <ele>43.2</ele>
        <time>2022-05-21 07:50:30</time>
      </trkpt>
      <trkpt lat="42.0449" lon="2.8616">
        <ele>43.2</ele>
        <time>2022-05-21 07:50:31</time>
      </trkpt>
      <trkpt lat="42.04493" lon="2.86167">
        <ele>43</ele>
        <time>2022-05-21 07:50:32</time>
      </trkpt>
      <trkpt lat="42.04496" lon="2.86175">
        <ele>43</ele>
        <time>2022-05-21 07:50:33</time>
      </trkpt>
      <trkpt lat="42.04499" lon="2.86182">
        <ele>43</ele>
        <time>2022-05-21 07:50:34</time>
      </trkpt>
      <trkpt lat="42.04502" lon="2.86191">
        <ele>43</ele>
        <time>2022-05-21 07:50:35</time>
      </trkpt>
      <trkpt lat="42.04506" lon="2.86198">
        <ele>43</ele>
        <time>2022-05-21 07:50:36</time>
      </trkpt>
      <trkpt lat="42.04509" lon="2.86206">
        <ele>42.8</ele>
        <time>2022-05-21 07:50:37</time>
      </trkpt>
      <trkpt lat="42.04512" lon="2.86214">
        <ele>42.8</ele>
        <time>2022-05-21 07:50:38</time>
      </trkpt>
      <trkpt lat="42.04515" lon="2.86221">
        <ele>42.8</ele>
        <time>2022-05-21 07:50:39</time>
      </trkpt>
      <trkpt lat="42.04518" lon="2.86229">
        <ele>42.8</ele>
        <time>2022-05-21 07:50:40</time>
      </trkpt>
      <trkpt lat="42.0452" lon="2.86235">
        <ele>42.6</ele>
        <time>2022-05-21 07:50:41</time>
      </trkpt>
      <trkpt lat="42.04522" lon="2.8624">
        <ele>42.6</ele>
        <time>2022-05-21 07:50:42</time>
      </trkpt>
      <trkpt lat="42.04527" lon="2.8625">
        <ele>42.6</ele>
        <time>2022-05-21 07:50:43</time>
      </trkpt>
      <trkpt lat="42.0453" lon="2.86258">
        <ele>42.6</ele>
        <time>2022-05-21 07:50:44</time>
      </trkpt>
      <trkpt lat="42.04534" lon="2.86266">
        <ele>42.4</ele>
        <time>2022-05-21 07:50:45</time>
      </trkpt>
      <trkpt lat="42.04538" lon="2.86275">
        <ele>42.4</ele>
        <time>2022-05-21 07:50:46</time>
      </trkpt>
      <trkpt lat="42.04541" lon="2.86283">
        <ele>42.4</ele>
        <time>2022-05-21 07:50:47</time>
      </trkpt>
      <trkpt lat="42.04544" lon="2.86291">
        <ele>42.4</ele>
        <time>2022-05-21 07:50:48</time>
      </trkpt>
      <trkpt lat="42.04547" lon="2.86299">
        <ele>42.4</ele>
        <time>2022-05-21 07:50:49</time>
      </trkpt>
      <trkpt lat="42.0455" lon="2.86307">
        <ele>42.4</ele>
        <time>2022-05-21 07:50:50</time>
      </trkpt>
      <trkpt lat="42.04553" lon="2.86315">
        <ele>42.4</ele>
        <time>2022-05-21 07:50:51</time>
      </trkpt>
      <trkpt lat="42.04556" lon="2.86323">
        <ele>42.4</ele>
        <time>2022-05-21 07:50:52</time>
      </trkpt>
      <trkpt lat="42.04559" lon="2.8633">
        <ele>42.4</ele>
        <time>2022-05-21 07:50:53</time>
      </trkpt>
      <trkpt lat="42.04562" lon="2.86337">
        <ele>42.4</ele>
        <time>2022-05-21 07:50:54</time>
      </trkpt>
      <trkpt lat="42.04566" lon="2.86346">
        <ele>42.4</ele>
        <time>2022-05-21 07:50:55</time>
      </trkpt>
      <trkpt lat="42.04569" lon="2.86354">
        <ele>42.4</ele>
        <time>2022-05-21 07:50:56</time>
      </trkpt>
      <trkpt lat="42.04572" lon="2.86362">
        <ele>42.4</ele>
        <time>2022-05-21 07:50:57</time>
      </trkpt>
      <trkpt lat="42.04575" lon="2.8637">
        <ele>42.4</ele>
        <time>2022-05-21 07:50:58</time>
      </trkpt>
      <trkpt lat="42.04578" lon="2.86378">
        <ele>42.4</ele>
        <time>2022-05-21 07:50:59</time>
      </trkpt>
      <trkpt lat="42.04581" lon="2.86386">
        <ele>42.4</ele>
        <time>2022-05-21 07:51:00</time>
      </trkpt>
      <trkpt lat="42.04585" lon="2.86393">
        <ele>42.4</ele>
        <time>2022-05-21 07:51:01</time>
      </trkpt>
      <trkpt lat="42.04588" lon="2.86401">
        <ele>42.4</ele>
        <time>2022-05-21 07:51:02</time>
      </trkpt>
      <trkpt lat="42.04591" lon="2.86409">
        <ele>42.4</ele>
        <time>2022-05-21 07:51:03</time>
      </trkpt>
      <trkpt lat="42.04594" lon="2.86416">
        <ele>42.4</ele>
        <time>2022-05-21 07:51:04</time>
      </trkpt>
      <trkpt lat="42.04597" lon="2.86424">
        <ele>42.4</ele>
        <time>2022-05-21 07:51:05</time>
      </trkpt>
      <trkpt lat="42.046" lon="2.86432">
        <ele>42.4</ele>
        <time>2022-05-21 07:51:06</time>
      </trkpt>
      <trkpt lat="42.04603" lon="2.8644">
        <ele>42.4</ele>
        <time>2022-05-21 07:51:07</time>
      </trkpt>
      <trkpt lat="42.04606" lon="2.86448">
        <ele>42.4</ele>
        <time>2022-05-21 07:51:08</time>
      </trkpt>
      <trkpt lat="42.04609" lon="2.86456">
        <ele>42.4</ele>
        <time>2022-05-21 07:51:09</time>
      </trkpt>
      <trkpt lat="42.04613" lon="2.86464">
        <ele>42.2</ele>
        <time>2022-05-21 07:51:10</time>
      </trkpt>
      <trkpt lat="42.04616" lon="2.86472">
        <ele>42.2</ele>
        <time>2022-05-21 07:51:11</time>
      </trkpt>
      <trkpt lat="42.04619" lon="2.8648">
        <ele>42.2</ele>
        <time>2022-05-21 07:51:12</time>
      </trkpt>
      <trkpt lat="42.04623" lon="2.86488">
        <ele>42.2</ele>
        <time>2022-05-21 07:51:13</time>
      </trkpt>
      <trkpt lat="42.04626" lon="2.86496">
        <ele>42</ele>
        <time>2022-05-21 07:51:14</time>
      </trkpt>
      <trkpt lat="42.04629" lon="2.86505">
        <ele>42</ele>
        <time>2022-05-21 07:51:15</time>
      </trkpt>
      <trkpt lat="42.04633" lon="2.86513">
        <ele>41.8</ele>
        <time>2022-05-21 07:51:16</time>
      </trkpt>
      <trkpt lat="42.04636" lon="2.86522">
        <ele>41.8</ele>
        <time>2022-05-21 07:51:17</time>
      </trkpt>
      <trkpt lat="42.04639" lon="2.8653">
        <ele>41.8</ele>
        <time>2022-05-21 07:51:18</time>
      </trkpt>
      <trkpt lat="42.04643" lon="2.86539">
        <ele>41.6</ele>
        <time>2022-05-21 07:51:19</time>
      </trkpt>
      <trkpt lat="42.04646" lon="2.86548">
        <ele>41.6</ele>
        <time>2022-05-21 07:51:20</time>
      </trkpt>
      <trkpt lat="42.0465" lon="2.86556">
        <ele>41.4</ele>
        <time>2022-05-21 07:51:21</time>
      </trkpt>
      <trkpt lat="42.04653" lon="2.86565">
        <ele>41.4</ele>
        <time>2022-05-21 07:51:22</time>
      </trkpt>
      <trkpt lat="42.04657" lon="2.86573">
        <ele>41.4</ele>
        <time>2022-05-21 07:51:23</time>
      </trkpt>
      <trkpt lat="42.0466" lon="2.86582">
        <ele>41.4</ele>
        <time>2022-05-21 07:51:24</time>
      </trkpt>
      <trkpt lat="42.04664" lon="2.86591">
        <ele>41.2</ele>
        <time>2022-05-21 07:51:25</time>
      </trkpt>
      <trkpt lat="42.04667" lon="2.866">
        <ele>41.2</ele>
        <time>2022-05-21 07:51:26</time>
      </trkpt>
      <trkpt lat="42.04671" lon="2.86608">
        <ele>41.2</ele>
        <time>2022-05-21 07:51:27</time>
      </trkpt>
      <trkpt lat="42.04674" lon="2.86617">
        <ele>41.2</ele>
        <time>2022-05-21 07:51:28</time>
      </trkpt>
      <trkpt lat="42.04678" lon="2.86626">
        <ele>41</ele>
        <time>2022-05-21 07:51:29</time>
      </trkpt>
      <trkpt lat="42.04681" lon="2.86634">
        <ele>41</ele>
        <time>2022-05-21 07:51:30</time>
      </trkpt>
      <trkpt lat="42.04684" lon="2.86642">
        <ele>41</ele>
        <time>2022-05-21 07:51:31</time>
      </trkpt>
      <trkpt lat="42.04688" lon="2.86651">
        <ele>41</ele>
        <time>2022-05-21 07:51:32</time>
      </trkpt>
      <trkpt lat="42.04692" lon="2.8666">
        <ele>41.2</ele>
        <time>2022-05-21 07:51:33</time>
      </trkpt>
      <trkpt lat="42.04696" lon="2.86668">
        <ele>41.2</ele>
        <time>2022-05-21 07:51:34</time>
      </trkpt>
      <trkpt lat="42.04699" lon="2.86677">
        <ele>41.2</ele>
        <time>2022-05-21 07:51:35</time>
      </trkpt>
      <trkpt lat="42.04703" lon="2.86685">
        <ele>41.2</ele>
        <time>2022-05-21 07:51:36</time>
      </trkpt>
      <trkpt lat="42.04707" lon="2.86694">
        <ele>41.4</ele>
        <time>2022-05-21 07:51:37</time>
      </trkpt>
      <trkpt lat="42.0471" lon="2.86702">
        <ele>41.4</ele>
        <time>2022-05-21 07:51:38</time>
      </trkpt>
      <trkpt lat="42.04715" lon="2.8671">
        <ele>41.4</ele>
        <time>2022-05-21 07:51:39</time>
      </trkpt>
      <trkpt lat="42.04718" lon="2.86718">
        <ele>41.6</ele>
        <time>2022-05-21 07:51:40</time>
      </trkpt>
      <trkpt lat="42.04722" lon="2.86726">
        <ele>41.6</ele>
        <time>2022-05-21 07:51:41</time>
      </trkpt>
      <trkpt lat="42.04726" lon="2.86733">
        <ele>41.8</ele>
        <time>2022-05-21 07:51:42</time>
      </trkpt>
      <trkpt lat="42.04728" lon="2.86739">
        <ele>41.8</ele>
        <time>2022-05-21 07:51:43</time>
      </trkpt>
      <trkpt lat="42.04734" lon="2.86749">
        <ele>42</ele>
        <time>2022-05-21 07:51:44</time>
      </trkpt>
      <trkpt lat="42.04737" lon="2.86755">
        <ele>42</ele>
        <time>2022-05-21 07:51:45</time>
      </trkpt>
      <trkpt lat="42.04742" lon="2.86764">
        <ele>42</ele>
        <time>2022-05-21 07:51:46</time>
      </trkpt>
      <trkpt lat="42.04747" lon="2.86773">
        <ele>42</ele>
        <time>2022-05-21 07:51:47</time>
      </trkpt>
      <trkpt lat="42.04751" lon="2.86781">
        <ele>42</ele>
        <time>2022-05-21 07:51:48</time>
      </trkpt>
      <trkpt lat="42.04755" lon="2.86789">
        <ele>42</ele>
        <time>2022-05-21 07:51:49</time>
      </trkpt>
      <trkpt lat="42.04759" lon="2.86796">
        <ele>42</ele>
        <time>2022-05-21 07:51:50</time>
      </trkpt>
      <trkpt lat="42.04763" lon="2.86804">
        <ele>42</ele>
        <time>2022-05-21 07:51:51</time>
      </trkpt>
      <trkpt lat="42.04768" lon="2.86812">
        <ele>42</ele>
        <time>2022-05-21 07:51:52</time>
      </trkpt>
      <trkpt lat="42.04773" lon="2.8682">
        <ele>42</ele>
        <time>2022-05-21 07:51:53</time>
      </trkpt>
      <trkpt lat="42.04777" lon="2.86828">
        <ele>41.8</ele>
        <time>2022-05-21 07:51:54</time>
      </trkpt>
      <trkpt lat="42.04782" lon="2.86836">
        <ele>41.8</ele>
        <time>2022-05-21 07:51:55</time>
      </trkpt>
      <trkpt lat="42.04787" lon="2.86843">
        <ele>41.8</ele>
        <time>2022-05-21 07:51:56</time>
      </trkpt>
      <trkpt lat="42.04792" lon="2.86852">
        <ele>41.8</ele>
        <time>2022-05-21 07:51:57</time>
      </trkpt>
      <trkpt lat="42.04797" lon="2.86859">
        <ele>41.6</ele>
        <time>2022-05-21 07:51:58</time>
      </trkpt>
      <trkpt lat="42.04802" lon="2.86867">
        <ele>41.6</ele>
        <time>2022-05-21 07:51:59</time>
      </trkpt>
      <trkpt lat="42.04806" lon="2.86875">
        <ele>41.6</ele>
        <time>2022-05-21 07:52:00</time>
      </trkpt>
      <trkpt lat="42.04811" lon="2.86883">
        <ele>41.6</ele>
        <time>2022-05-21 07:52:01</time>
      </trkpt>
      <trkpt lat="42.04816" lon="2.86891">
        <ele>41.4</ele>
        <time>2022-05-21 07:52:02</time>
      </trkpt>
      <trkpt lat="42.04821" lon="2.86899">
        <ele>41.4</ele>
        <time>2022-05-21 07:52:03</time>
      </trkpt>
      <trkpt lat="42.04826" lon="2.86906">
        <ele>41.4</ele>
        <time>2022-05-21 07:52:04</time>
      </trkpt>
      <trkpt lat="42.04831" lon="2.86914">
        <ele>41.4</ele>
        <time>2022-05-21 07:52:05</time>
      </trkpt>
      <trkpt lat="42.04836" lon="2.86922">
        <ele>41.4</ele>
        <time>2022-05-21 07:52:06</time>
      </trkpt>
      <trkpt lat="42.0484" lon="2.8693">
        <ele>41.4</ele>
        <time>2022-05-21 07:52:07</time>
      </trkpt>
      <trkpt lat="42.04845" lon="2.86938">
        <ele>41.4</ele>
        <time>2022-05-21 07:52:08</time>
      </trkpt>
      <trkpt lat="42.0485" lon="2.86945">
        <ele>41.4</ele>
        <time>2022-05-21 07:52:09</time>
      </trkpt>
      <trkpt lat="42.04855" lon="2.86953">
        <ele>41.4</ele>
        <time>2022-05-21 07:52:10</time>
      </trkpt>
      <trkpt lat="42.04859" lon="2.8696">
        <ele>41.4</ele>
        <time>2022-05-21 07:52:11</time>
      </trkpt>
      <trkpt lat="42.04863" lon="2.86966">
        <ele>41.4</ele>
        <time>2022-05-21 07:52:12</time>
      </trkpt>
      <trkpt lat="42.0487" lon="2.86976">
        <ele>41.4</ele>
        <time>2022-05-21 07:52:13</time>
      </trkpt>
      <trkpt lat="42.04874" lon="2.86984">
        <ele>41.4</ele>
        <time>2022-05-21 07:52:14</time>
      </trkpt>
      <trkpt lat="42.04879" lon="2.86992">
        <ele>41.2</ele>
        <time>2022-05-21 07:52:15</time>
      </trkpt>
      <trkpt lat="42.04884" lon="2.87">
        <ele>41.2</ele>
        <time>2022-05-21 07:52:16</time>
      </trkpt>
      <trkpt lat="42.04888" lon="2.87008">
        <ele>41.2</ele>
        <time>2022-05-21 07:52:17</time>
      </trkpt>
      <trkpt lat="42.04893" lon="2.87016">
        <ele>41.2</ele>
        <time>2022-05-21 07:52:18</time>
      </trkpt>
      <trkpt lat="42.04897" lon="2.87024">
        <ele>41.2</ele>
        <time>2022-05-21 07:52:19</time>
      </trkpt>
      <trkpt lat="42.04902" lon="2.87032">
        <ele>41.2</ele>
        <time>2022-05-21 07:52:20</time>
      </trkpt>
      <trkpt lat="42.04906" lon="2.87041">
        <ele>41.2</ele>
        <time>2022-05-21 07:52:21</time>
      </trkpt>
      <trkpt lat="42.0491" lon="2.87049">
        <ele>41.4</ele>
        <time>2022-05-21 07:52:22</time>
      </trkpt>
      <trkpt lat="42.04914" lon="2.87057">
        <ele>41.4</ele>
        <time>2022-05-21 07:52:23</time>
      </trkpt>
      <trkpt lat="42.04918" lon="2.87065">
        <ele>41.2</ele>
        <time>2022-05-21 07:52:24</time>
      </trkpt>
      <trkpt lat="42.04922" lon="2.87073">
        <ele>41.4</ele>
        <time>2022-05-21 07:52:25</time>
      </trkpt>
      <trkpt lat="42.04926" lon="2.87082">
        <ele>41.4</ele>
        <time>2022-05-21 07:52:26</time>
      </trkpt>
      <trkpt lat="42.0493" lon="2.8709">
        <ele>41.4</ele>
        <time>2022-05-21 07:52:27</time>
      </trkpt>
      <trkpt lat="42.04934" lon="2.87098">
        <ele>41.4</ele>
        <time>2022-05-21 07:52:28</time>
      </trkpt>
      <trkpt lat="42.04939" lon="2.87106">
        <ele>41.2</ele>
        <time>2022-05-21 07:52:29</time>
      </trkpt>
      <trkpt lat="42.04943" lon="2.87115">
        <ele>41.2</ele>
        <time>2022-05-21 07:52:30</time>
      </trkpt>
      <trkpt lat="42.04947" lon="2.87122">
        <ele>41.2</ele>
        <time>2022-05-21 07:52:31</time>
      </trkpt>
      <trkpt lat="42.0495" lon="2.8713">
        <ele>41.2</ele>
        <time>2022-05-21 07:52:32</time>
      </trkpt>
      <trkpt lat="42.04955" lon="2.87139">
        <ele>41.4</ele>
        <time>2022-05-21 07:52:33</time>
      </trkpt>
      <trkpt lat="42.0496" lon="2.87148">
        <ele>41.2</ele>
        <time>2022-05-21 07:52:34</time>
      </trkpt>
      <trkpt lat="42.04964" lon="2.87157">
        <ele>41</ele>
        <time>2022-05-21 07:52:35</time>
      </trkpt>
      <trkpt lat="42.04969" lon="2.87165">
        <ele>41</ele>
        <time>2022-05-21 07:52:36</time>
      </trkpt>
      <trkpt lat="42.04973" lon="2.87172">
        <ele>41</ele>
        <time>2022-05-21 07:52:37</time>
      </trkpt>
      <trkpt lat="42.04977" lon="2.8718">
        <ele>41</ele>
        <time>2022-05-21 07:52:38</time>
      </trkpt>
      <trkpt lat="42.04982" lon="2.87188">
        <ele>40.8</ele>
        <time>2022-05-21 07:52:39</time>
      </trkpt>
      <trkpt lat="42.04987" lon="2.87197">
        <ele>40.6</ele>
        <time>2022-05-21 07:52:40</time>
      </trkpt>
      <trkpt lat="42.04991" lon="2.87204">
        <ele>40.6</ele>
        <time>2022-05-21 07:52:41</time>
      </trkpt>
      <trkpt lat="42.04996" lon="2.87212">
        <ele>40.4</ele>
        <time>2022-05-21 07:52:42</time>
      </trkpt>
      <trkpt lat="42.05001" lon="2.87219">
        <ele>40.4</ele>
        <time>2022-05-21 07:52:43</time>
      </trkpt>
      <trkpt lat="42.05006" lon="2.87227">
        <ele>40.2</ele>
        <time>2022-05-21 07:52:44</time>
      </trkpt>
      <trkpt lat="42.05011" lon="2.87234">
        <ele>40</ele>
        <time>2022-05-21 07:52:45</time>
      </trkpt>
      <trkpt lat="42.05016" lon="2.87242">
        <ele>39.8</ele>
        <time>2022-05-21 07:52:46</time>
      </trkpt>
      <trkpt lat="42.05021" lon="2.8725">
        <ele>39.8</ele>
        <time>2022-05-21 07:52:47</time>
      </trkpt>
      <trkpt lat="42.05026" lon="2.87257">
        <ele>39.6</ele>
        <time>2022-05-21 07:52:48</time>
      </trkpt>
      <trkpt lat="42.05032" lon="2.87265">
        <ele>39.4</ele>
        <time>2022-05-21 07:52:49</time>
      </trkpt>
      <trkpt lat="42.05037" lon="2.87273">
        <ele>39.2</ele>
        <time>2022-05-21 07:52:50</time>
      </trkpt>
      <trkpt lat="42.05042" lon="2.87281">
        <ele>39</ele>
        <time>2022-05-21 07:52:51</time>
      </trkpt>
      <trkpt lat="42.05048" lon="2.87288">
        <ele>39</ele>
        <time>2022-05-21 07:52:52</time>
      </trkpt>
      <trkpt lat="42.05053" lon="2.87297">
        <ele>38.8</ele>
        <time>2022-05-21 07:52:53</time>
      </trkpt>
      <trkpt lat="42.05059" lon="2.87304">
        <ele>38.6</ele>
        <time>2022-05-21 07:52:54</time>
      </trkpt>
      <trkpt lat="42.05064" lon="2.87312">
        <ele>38.4</ele>
        <time>2022-05-21 07:52:55</time>
      </trkpt>
      <trkpt lat="42.05069" lon="2.87319">
        <ele>38.4</ele>
        <time>2022-05-21 07:52:56</time>
      </trkpt>
      <trkpt lat="42.05075" lon="2.87327">
        <ele>38.2</ele>
        <time>2022-05-21 07:52:57</time>
      </trkpt>
      <trkpt lat="42.0508" lon="2.87335">
        <ele>38.2</ele>
        <time>2022-05-21 07:52:58</time>
      </trkpt>
      <trkpt lat="42.05086" lon="2.87343">
        <ele>38</ele>
        <time>2022-05-21 07:52:59</time>
      </trkpt>
      <trkpt lat="42.05091" lon="2.87351">
        <ele>38</ele>
        <time>2022-05-21 07:53:00</time>
      </trkpt>
      <trkpt lat="42.05096" lon="2.87358">
        <ele>37.8</ele>
        <time>2022-05-21 07:53:01</time>
      </trkpt>
      <trkpt lat="42.05102" lon="2.87366">
        <ele>37.8</ele>
        <time>2022-05-21 07:53:02</time>
      </trkpt>
      <trkpt lat="42.05107" lon="2.87373">
        <ele>37.8</ele>
        <time>2022-05-21 07:53:03</time>
      </trkpt>
      <trkpt lat="42.05112" lon="2.87381">
        <ele>37.8</ele>
        <time>2022-05-21 07:53:04</time>
      </trkpt>
      <trkpt lat="42.05118" lon="2.87388">
        <ele>37.8</ele>
        <time>2022-05-21 07:53:05</time>
      </trkpt>
      <trkpt lat="42.05123" lon="2.87396">
        <ele>37.6</ele>
        <time>2022-05-21 07:53:06</time>
      </trkpt>
      <trkpt lat="42.05128" lon="2.87403">
        <ele>37.8</ele>
        <time>2022-05-21 07:53:07</time>
      </trkpt>
      <trkpt lat="42.05133" lon="2.8741">
        <ele>37.8</ele>
        <time>2022-05-21 07:53:08</time>
      </trkpt>
      <trkpt lat="42.05139" lon="2.87417">
        <ele>37.6</ele>
        <time>2022-05-21 07:53:09</time>
      </trkpt>
      <trkpt lat="42.05144" lon="2.87424">
        <ele>37.6</ele>
        <time>2022-05-21 07:53:10</time>
      </trkpt>
      <trkpt lat="42.05149" lon="2.8743">
        <ele>37.6</ele>
        <time>2022-05-21 07:53:11</time>
      </trkpt>
      <trkpt lat="42.05155" lon="2.87437">
        <ele>37.6</ele>
        <time>2022-05-21 07:53:12</time>
      </trkpt>
      <trkpt lat="42.05161" lon="2.87443">
        <ele>37.6</ele>
        <time>2022-05-21 07:53:13</time>
      </trkpt>
      <trkpt lat="42.05166" lon="2.8745">
        <ele>37.6</ele>
        <time>2022-05-21 07:53:14</time>
      </trkpt>
      <trkpt lat="42.05172" lon="2.87456">
        <ele>37.6</ele>
        <time>2022-05-21 07:53:15</time>
      </trkpt>
      <trkpt lat="42.05177" lon="2.87462">
        <ele>37.6</ele>
        <time>2022-05-21 07:53:16</time>
      </trkpt>
      <trkpt lat="42.05183" lon="2.87469">
        <ele>37.6</ele>
        <time>2022-05-21 07:53:17</time>
      </trkpt>
      <trkpt lat="42.05189" lon="2.87475">
        <ele>37.6</ele>
        <time>2022-05-21 07:53:18</time>
      </trkpt>
      <trkpt lat="42.05195" lon="2.87481">
        <ele>37.6</ele>
        <time>2022-05-21 07:53:19</time>
      </trkpt>
      <trkpt lat="42.052" lon="2.87486">
        <ele>37.6</ele>
        <time>2022-05-21 07:53:20</time>
      </trkpt>
      <trkpt lat="42.05206" lon="2.87492">
        <ele>37.6</ele>
        <time>2022-05-21 07:53:21</time>
      </trkpt>
      <trkpt lat="42.05379" lon="2.87669">
        <ele>42</ele>
        <time>2022-05-21 07:53:22</time>
      </trkpt>
      <trkpt lat="42.05379" lon="2.87669">
        <ele>42</ele>
        <time>2022-05-21 07:53:23</time>
      </trkpt>
      <trkpt lat="42.05379" lon="2.87669">
        <ele>42</ele>
        <time>2022-05-21 07:53:24</time>
      </trkpt>
      <trkpt lat="42.05379" lon="2.87669">
        <ele>42</ele>
        <time>2022-05-21 07:53:25</time>
      </trkpt>
      <trkpt lat="42.05379" lon="2.87669">
        <ele>42</ele>
        <time>2022-05-21 07:53:26</time>
      </trkpt>
      <trkpt lat="42.05379" lon="2.87669">
        <ele>42</ele>
        <time>2022-05-21 07:53:27</time>
      </trkpt>
      <trkpt lat="42.05379" lon="2.87669">
        <ele>42</ele>
        <time>2022-05-21 07:53:28</time>
      </trkpt>
      <trkpt lat="42.05379" lon="2.87669">
        <ele>42</ele>
        <time>2022-05-21 07:53:29</time>
      </trkpt>
      <trkpt lat="42.05379" lon="2.87669">
        <ele>41.8</ele>
        <time>2022-05-21 07:53:30</time>
      </trkpt>
      <trkpt lat="42.05379" lon="2.87669">
        <ele>41.8</ele>
        <time>2022-05-21 07:53:31</time>
      </trkpt>
      <trkpt lat="42.05379" lon="2.87669">
        <ele>41.8</ele>
        <time>2022-05-21 07:53:32</time>
      </trkpt>
      <trkpt lat="42.05379" lon="2.87669">
        <ele>41.8</ele>
        <time>2022-05-21 07:53:33</time>
      </trkpt>
      <trkpt lat="42.05379" lon="2.87669">
        <ele>42</ele>
        <time>2022-05-21 07:53:34</time>
      </trkpt>
      <trkpt lat="42.05379" lon="2.87669">
        <ele>41.8</ele>
        <time>2022-05-21 07:53:35</time>
      </trkpt>
      <trkpt lat="42.05379" lon="2.87669">
        <ele>41.8</ele>
        <time>2022-05-21 07:53:36</time>
      </trkpt>
      <trkpt lat="42.05379" lon="2.87669">
        <ele>41.8</ele>
        <time>2022-05-21 07:53:37</time>
      </trkpt>
      <trkpt lat="42.05379" lon="2.87669">
        <ele>41.8</ele>
        <time>2022-05-21 07:53:38</time>
      </trkpt>
      <trkpt lat="42.05379" lon="2.87669">
        <ele>41.8</ele>
        <time>2022-05-21 07:53:39</time>
      </trkpt>
      <trkpt lat="42.05379" lon="2.87669">
        <ele>41.8</ele>
        <time>2022-05-21 07:53:40</time>
      </trkpt>
      <trkpt lat="42.05379" lon="2.87669">
        <ele>41.8</ele>
        <time>2022-05-21 07:53:41</time>
      </trkpt>
      <trkpt lat="42.05379" lon="2.87669">
        <ele>41.8</ele>
        <time>2022-05-21 07:53:42</time>
      </trkpt>
      <trkpt lat="42.05379" lon="2.87669">
        <ele>41.8</ele>
        <time>2022-05-21 07:53:43</time>
      </trkpt>
      <trkpt lat="42.05379" lon="2.87669">
        <ele>41.8</ele>
        <time>2022-05-21 07:53:44</time>
      </trkpt>
      <trkpt lat="42.05379" lon="2.87669">
        <ele>41.8</ele>
        <time>2022-05-21 07:53:45</time>
      </trkpt>
      <trkpt lat="42.05379" lon="2.87669">
        <ele>41.8</ele>
        <time>2022-05-21 07:53:46</time>
      </trkpt>
      <trkpt lat="42.05379" lon="2.87669">
        <ele>41.8</ele>
        <time>2022-05-21 07:53:47</time>
      </trkpt>
      <trkpt lat="42.05379" lon="2.87669">
        <ele>41.8</ele>
        <time>2022-05-21 07:53:48</time>
      </trkpt>
      <trkpt lat="42.05379" lon="2.87669">
        <ele>41.8</ele>
        <time>2022-05-21 07:53:49</time>
      </trkpt>
      <trkpt lat="42.05379" lon="2.87669">
        <ele>41.8</ele>
        <time>2022-05-21 07:59:03</time>
      </trkpt>
      <trkpt lat="42.05379" lon="2.87669">
        <ele>41.8</ele>
        <time>2022-05-21 07:59:04</time>
      </trkpt>
      <trkpt lat="42.05379" lon="2.87669">
        <ele>41.8</ele>
        <time>2022-05-21 07:59:05</time>
      </trkpt>
      <trkpt lat="42.05379" lon="2.87669">
        <ele>41.8</ele>
        <time>2022-05-21 07:59:06</time>
      </trkpt>
      <trkpt lat="42.05379" lon="2.87669">
        <ele>41.8</ele>
        <time>2022-05-21 07:59:07</time>
      </trkpt>
      <trkpt lat="42.05379" lon="2.87669">
        <ele>41.8</ele>
        <time>2022-05-21 07:59:08</time>
      </trkpt>
      <trkpt lat="42.05379" lon="2.87669">
        <ele>41.8</ele>
        <time>2022-05-21 07:59:09</time>
      </trkpt>
      <trkpt lat="42.05379" lon="2.87669">
        <ele>41.8</ele>
        <time>2022-05-21 07:59:10</time>
      </trkpt>
      <trkpt lat="42.05379" lon="2.87669">
        <ele>41.8</ele>
        <time>2022-05-21 07:59:11</time>
      </trkpt>
      <trkpt lat="42.05379" lon="2.87669">
        <ele>41.8</ele>
        <time>2022-05-21 07:59:12</time>
      </trkpt>
      <trkpt lat="42.05379" lon="2.87669">
        <ele>41.8</ele>
        <time>2022-05-21 07:59:13</time>
      </trkpt>
      <trkpt lat="42.05379" lon="2.87669">
        <ele>41.8</ele>
        <time>2022-05-21 07:59:14</time>
      </trkpt>
      <trkpt lat="42.05379" lon="2.87669">
        <ele>41.8</ele>
        <time>2022-05-21 07:59:15</time>
      </trkpt>
      <trkpt lat="42.05379" lon="2.87669">
        <ele>41.8</ele>
        <time>2022-05-21 07:59:16</time>
      </trkpt>
      <trkpt lat="42.05379" lon="2.87669">
        <ele>41.8</ele>
        <time>2022-05-21 07:59:17</time>
      </trkpt>
      <trkpt lat="42.05379" lon="2.87669">
        <ele>41.8</ele>
        <time>2022-05-21 07:59:18</time>
      </trkpt>
      <trkpt lat="42.05379" lon="2.87669">
        <ele>41.8</ele>
        <time>2022-05-21 07:59:19</time>
      </trkpt>
      <trkpt lat="42.05379" lon="2.87669">
        <ele>41.8</ele>
        <time>2022-05-21 07:59:20</time>
      </trkpt>
      <trkpt lat="42.05379" lon="2.87669">
        <ele>41.8</ele>
        <time>2022-05-21 07:59:21</time>
      </trkpt>
      <trkpt lat="42.05379" lon="2.87669">
        <ele>41.8</ele>
        <time>2022-05-21 07:59:22</time>
      </trkpt>
      <trkpt lat="42.05379" lon="2.87669">
        <ele>41.8</ele>
        <time>2022-05-21 07:59:23</time>
      </trkpt>
      <trkpt lat="42.05379" lon="2.87669">
        <ele>41.8</ele>
        <time>2022-05-21 07:59:24</time>
      </trkpt>
      <trkpt lat="42.05379" lon="2.87669">
        <ele>41.8</ele>
        <time>2022-05-21 07:59:25</time>
      </trkpt>
      <trkpt lat="42.05379" lon="2.87669">
        <ele>41.8</ele>
        <time>2022-05-21 07:59:26</time>
      </trkpt>
      <trkpt lat="42.05379" lon="2.87669">
        <ele>41.8</ele>
        <time>2022-05-21 07:59:27</time>
      </trkpt>
      <trkpt lat="42.05379" lon="2.87669">
        <ele>41.8</ele>
        <time>2022-05-21 07:59:28</time>
      </trkpt>
      <trkpt lat="42.05379" lon="2.87669">
        <ele>41.8</ele>
        <time>2022-05-21 07:59:29</time>
      </trkpt>
      <trkpt lat="42.05379" lon="2.87669">
        <ele>41.8</ele>
        <time>2022-05-21 07:59:30</time>
      </trkpt>
      <trkpt lat="42.05379" lon="2.87669">
        <ele>41.8</ele>
        <time>2022-05-21 07:59:31</time>
      </trkpt>
      <trkpt lat="42.05379" lon="2.87669">
        <ele>41.8</ele>
        <time>2022-05-21 07:59:32</time>
      </trkpt>
      <trkpt lat="42.05379" lon="2.87669">
        <ele>41.8</ele>
        <time>2022-05-21 07:59:33</time>
      </trkpt>
      <trkpt lat="42.05379" lon="2.87669">
        <ele>41.8</ele>
        <time>2022-05-21 07:59:34</time>
      </trkpt>
      <trkpt lat="42.05379" lon="2.87669">
        <ele>41.8</ele>
        <time>2022-05-21 07:59:35</time>
      </trkpt>
      <trkpt lat="42.05379" lon="2.87669">
        <ele>41.8</ele>
        <time>2022-05-21 07:59:36</time>
      </trkpt>
      <trkpt lat="42.05379" lon="2.87669">
        <ele>41.8</ele>
        <time>2022-05-21 07:59:37</time>
      </trkpt>
      <trkpt lat="42.05379" lon="2.87669">
        <ele>41.8</ele>
        <time>2022-05-21 07:59:38</time>
      </trkpt>
      <trkpt lat="42.05379" lon="2.87669">
        <ele>41.8</ele>
        <time>2022-05-21 07:59:39</time>
      </trkpt>
      <trkpt lat="42.05379" lon="2.87669">
        <ele>41.8</ele>
        <time>2022-05-21 07:59:40</time>
      </trkpt>
      <trkpt lat="42.05379" lon="2.87669">
        <ele>41.8</ele>
        <time>2022-05-21 07:59:41</time>
      </trkpt>
      <trkpt lat="42.05379" lon="2.87669">
        <ele>41.8</ele>
        <time>2022-05-21 07:59:42</time>
      </trkpt>
      <trkpt lat="42.05379" lon="2.87669">
        <ele>41.8</ele>
        <time>2022-05-21 07:59:43</time>
      </trkpt>
      <trkpt lat="42.05379" lon="2.87669">
        <ele>41.8</ele>
        <time>2022-05-21 07:59:44</time>
      </trkpt>
      <trkpt lat="42.05379" lon="2.87669">
        <ele>41.8</ele>
        <time>2022-05-21 07:59:45</time>
      </trkpt>
      <trkpt lat="42.05379" lon="2.87669">
        <ele>41.8</ele>
        <time>2022-05-21 07:59:46</time>
      </trkpt>
      <trkpt lat="42.05379" lon="2.87669">
        <ele>41.8</ele>
        <time>2022-05-21 07:59:47</time>
      </trkpt>
      <trkpt lat="42.05379" lon="2.87669">
        <ele>41.8</ele>
        <time>2022-05-21 07:59:48</time>
      </trkpt>
      <trkpt lat="42.05379" lon="2.87669">
        <ele>41.8</ele>
        <time>2022-05-21 07:59:49</time>
      </trkpt>
      <trkpt lat="42.05379" lon="2.87669">
        <ele>41.8</ele>
        <time>2022-05-21 07:59:50</time>
      </trkpt>
      <trkpt lat="42.05379" lon="2.87669">
        <ele>41.8</ele>
        <time>2022-05-21 07:59:51</time>
      </trkpt>
      <trkpt lat="42.05379" lon="2.87669">
        <ele>41.8</ele>
        <time>2022-05-21 07:59:52</time>
      </trkpt>
      <trkpt lat="42.05379" lon="2.87669">
        <ele>41.8</ele>
        <time>2022-05-21 07:59:53</time>
      </trkpt>
      <trkpt lat="42.05379" lon="2.87671">
        <ele>41.8</ele>
        <time>2022-05-21 07:59:54</time>
      </trkpt>
      <trkpt lat="42.05379" lon="2.87673">
        <ele>41.8</ele>
        <time>2022-05-21 07:59:55</time>
      </trkpt>
      <trkpt lat="42.05379" lon="2.87673">
        <ele>41.8</ele>
        <time>2022-05-21 07:59:56</time>
      </trkpt>
      <trkpt lat="42.05379" lon="2.87673">
        <ele>41.8</ele>
        <time>2022-05-21 07:59:57</time>
      </trkpt>
      <trkpt lat="42.05379" lon="2.87673">
        <ele>41.8</ele>
        <time>2022-05-21 07:59:58</time>
      </trkpt>
      <trkpt lat="42.05379" lon="2.87673">
        <ele>42</ele>
        <time>2022-05-21 07:59:59</time>
      </trkpt>
      <trkpt lat="42.0538" lon="2.87674">
        <ele>41.8</ele>
        <time>2022-05-21 08:00:00</time>
      </trkpt>
      <trkpt lat="42.05381" lon="2.87674">
        <ele>41.8</ele>
        <time>2022-05-21 08:00:01</time>
      </trkpt>
      <trkpt lat="42.05382" lon="2.87675">
        <ele>42</ele>
        <time>2022-05-21 08:00:02</time>
      </trkpt>
      <trkpt lat="42.05383" lon="2.87676">
        <ele>42</ele>
        <time>2022-05-21 08:00:03</time>
      </trkpt>
      <trkpt lat="42.05384" lon="2.87677">
        <ele>42</ele>
        <time>2022-05-21 08:00:04</time>
      </trkpt>
      <trkpt lat="42.05386" lon="2.87679">
        <ele>41.8</ele>
        <time>2022-05-21 08:00:05</time>
      </trkpt>
      <trkpt lat="42.05387" lon="2.87681">
        <ele>42</ele>
        <time>2022-05-21 08:00:06</time>
      </trkpt>
      <trkpt lat="42.05389" lon="2.87684">
        <ele>42</ele>
        <time>2022-05-21 08:00:07</time>
      </trkpt>
      <trkpt lat="42.05391" lon="2.87686">
        <ele>42</ele>
        <time>2022-05-21 08:00:08</time>
      </trkpt>
      <trkpt lat="42.05393" lon="2.87688">
        <ele>42</ele>
        <time>2022-05-21 08:00:09</time>
      </trkpt>
      <trkpt lat="42.05395" lon="2.8769">
        <ele>42</ele>
        <time>2022-05-21 08:00:10</time>
      </trkpt>
      <trkpt lat="42.05398" lon="2.87693">
        <ele>42</ele>
        <time>2022-05-21 08:00:11</time>
      </trkpt>
      <trkpt lat="42.05401" lon="2.87696">
        <ele>42</ele>
        <time>2022-05-21 08:00:12</time>
      </trkpt>
      <trkpt lat="42.05403" lon="2.87699">
        <ele>42</ele>
        <time>2022-05-21 08:00:13</time>
      </trkpt>
      <trkpt lat="42.05406" lon="2.87702">
        <ele>42.2</ele>
        <time>2022-05-21 08:00:14</time>
      </trkpt>
      <trkpt lat="42.05409" lon="2.87706">
        <ele>42.2</ele>
        <time>2022-05-21 08:00:15</time>
      </trkpt>
      <trkpt lat="42.05412" lon="2.87709">
        <ele>42.2</ele>
        <time>2022-05-21 08:00:16</time>
      </trkpt>
      <trkpt lat="42.05414" lon="2.87713">
        <ele>42.2</ele>
        <time>2022-05-21 08:00:17</time>
      </trkpt>
      <trkpt lat="42.05417" lon="2.87717">
        <ele>42.4</ele>
        <time>2022-05-21 08:00:18</time>
      </trkpt>
      <trkpt lat="42.05419" lon="2.87721">
        <ele>42.4</ele>
        <time>2022-05-21 08:00:19</time>
      </trkpt>
      <trkpt lat="42.05422" lon="2.87726">
        <ele>42.4</ele>
        <time>2022-05-21 08:00:20</time>
      </trkpt>
      <trkpt lat="42.05425" lon="2.87731">
        <ele>42.4</ele>
        <time>2022-05-21 08:00:21</time>
      </trkpt>
      <trkpt lat="42.05427" lon="2.87736">
        <ele>42.4</ele>
        <time>2022-05-21 08:00:22</time>
      </trkpt>
      <trkpt lat="42.05429" lon="2.8774">
        <ele>42.4</ele>
        <time>2022-05-21 08:00:23</time>
      </trkpt>
      <trkpt lat="42.05431" lon="2.87745">
        <ele>42.4</ele>
        <time>2022-05-21 08:00:24</time>
      </trkpt>
      <trkpt lat="42.05434" lon="2.87752">
        <ele>42.4</ele>
        <time>2022-05-21 08:00:25</time>
      </trkpt>
      <trkpt lat="42.05437" lon="2.87758">
        <ele>42.4</ele>
        <time>2022-05-21 08:00:26</time>
      </trkpt>
      <trkpt lat="42.05439" lon="2.87764">
        <ele>42.4</ele>
        <time>2022-05-21 08:00:27</time>
      </trkpt>
      <trkpt lat="42.0544" lon="2.87771">
        <ele>42.4</ele>
        <time>2022-05-21 08:00:28</time>
      </trkpt>
      <trkpt lat="42.05442" lon="2.87778">
        <ele>42.4</ele>
        <time>2022-05-21 08:00:29</time>
      </trkpt>
      <trkpt lat="42.05443" lon="2.87785">
        <ele>42.2</ele>
        <time>2022-05-21 08:00:30</time>
      </trkpt>
      <trkpt lat="42.05445" lon="2.87792">
        <ele>42.2</ele>
        <time>2022-05-21 08:00:31</time>
      </trkpt>
      <trkpt lat="42.05446" lon="2.87799">
        <ele>42.2</ele>
        <time>2022-05-21 08:00:32</time>
      </trkpt>
      <trkpt lat="42.05448" lon="2.87807">
        <ele>42.2</ele>
        <time>2022-05-21 08:00:33</time>
      </trkpt>
      <trkpt lat="42.05448" lon="2.87815">
        <ele>42.2</ele>
        <time>2022-05-21 08:00:34</time>
      </trkpt>
      <trkpt lat="42.05449" lon="2.87824">
        <ele>42.2</ele>
        <time>2022-05-21 08:00:35</time>
      </trkpt>
      <trkpt lat="42.05451" lon="2.87834">
        <ele>42</ele>
        <time>2022-05-21 08:00:36</time>
      </trkpt>
      <trkpt lat="42.05453" lon="2.87843">
        <ele>42</ele>
        <time>2022-05-21 08:00:37</time>
      </trkpt>
      <trkpt lat="42.05455" lon="2.87851">
        <ele>42</ele>
        <time>2022-05-21 08:00:38</time>
      </trkpt>
      <trkpt lat="42.05457" lon="2.87859">
        <ele>42</ele>
        <time>2022-05-21 08:00:39</time>
      </trkpt>
      <trkpt lat="42.05459" lon="2.87867">
        <ele>42</ele>
        <time>2022-05-21 08:00:40</time>
      </trkpt>
      <trkpt lat="42.05462" lon="2.87876">
        <ele>41.8</ele>
        <time>2022-05-21 08:00:41</time>
      </trkpt>
      <trkpt lat="42.05465" lon="2.87885">
        <ele>41.8</ele>
        <time>2022-05-21 08:00:42</time>
      </trkpt>
      <trkpt lat="42.05468" lon="2.87894">
        <ele>41.6</ele>
        <time>2022-05-21 08:00:43</time>
      </trkpt>
      <trkpt lat="42.05471" lon="2.87903">
        <ele>41.6</ele>
        <time>2022-05-21 08:00:44</time>
      </trkpt>
      <trkpt lat="42.05474" lon="2.87911">
        <ele>41.6</ele>
        <time>2022-05-21 08:00:45</time>
      </trkpt>
      <trkpt lat="42.05477" lon="2.87919">
        <ele>41.4</ele>
        <time>2022-05-21 08:00:46</time>
      </trkpt>
      <trkpt lat="42.05481" lon="2.87927">
        <ele>41.4</ele>
        <time>2022-05-21 08:00:47</time>
      </trkpt>
      <trkpt lat="42.05485" lon="2.87936">
        <ele>41.2</ele>
        <time>2022-05-21 08:00:48</time>
      </trkpt>
      <trkpt lat="42.05488" lon="2.87945">
        <ele>41</ele>
        <time>2022-05-21 08:00:49</time>
      </trkpt>
      <trkpt lat="42.05492" lon="2.87954">
        <ele>40.8</ele>
        <time>2022-05-21 08:00:50</time>
      </trkpt>
      <trkpt lat="42.05495" lon="2.87962">
        <ele>40.6</ele>
        <time>2022-05-21 08:00:51</time>
      </trkpt>
      <trkpt lat="42.055" lon="2.87971">
        <ele>40.4</ele>
        <time>2022-05-21 08:00:52</time>
      </trkpt>
      <trkpt lat="42.05504" lon="2.8798">
        <ele>40</ele>
        <time>2022-05-21 08:00:53</time>
      </trkpt>
      <trkpt lat="42.05508" lon="2.87989">
        <ele>39.8</ele>
        <time>2022-05-21 08:00:54</time>
      </trkpt>
      <trkpt lat="42.05512" lon="2.87998">
        <ele>39.6</ele>
        <time>2022-05-21 08:00:55</time>
      </trkpt>
      <trkpt lat="42.05516" lon="2.88007">
        <ele>39.2</ele>
        <time>2022-05-21 08:00:56</time>
      </trkpt>
      <trkpt lat="42.0552" lon="2.88017">
        <ele>38.8</ele>
        <time>2022-05-21 08:00:57</time>
      </trkpt>
      <trkpt lat="42.05524" lon="2.88026">
        <ele>38.6</ele>
        <time>2022-05-21 08:00:58</time>
      </trkpt>
      <trkpt lat="42.05529" lon="2.88038">
        <ele>38.4</ele>
        <time>2022-05-21 08:00:59</time>
      </trkpt>
      <trkpt lat="42.05533" lon="2.88047">
        <ele>38.2</ele>
        <time>2022-05-21 08:01:00</time>
      </trkpt>
      <trkpt lat="42.05537" lon="2.88056">
        <ele>38.2</ele>
        <time>2022-05-21 08:01:01</time>
      </trkpt>
      <trkpt lat="42.05541" lon="2.88064">
        <ele>38.2</ele>
        <time>2022-05-21 08:01:02</time>
      </trkpt>
      <trkpt lat="42.05545" lon="2.88073">
        <ele>38.2</ele>
        <time>2022-05-21 08:01:03</time>
      </trkpt>
      <trkpt lat="42.05549" lon="2.88082">
        <ele>38.2</ele>
        <time>2022-05-21 08:01:04</time>
      </trkpt>
      <trkpt lat="42.05554" lon="2.88091">
        <ele>38.4</ele>
        <time>2022-05-21 08:01:05</time>
      </trkpt>
      <trkpt lat="42.05559" lon="2.88099">
        <ele>38.4</ele>
        <time>2022-05-21 08:01:06</time>
      </trkpt>
      <trkpt lat="42.05564" lon="2.88105">
        <ele>38.4</ele>
        <time>2022-05-21 08:01:07</time>
      </trkpt>
      <trkpt lat="42.0557" lon="2.88112">
        <ele>38.6</ele>
        <time>2022-05-21 08:01:08</time>
      </trkpt>
      <trkpt lat="42.05575" lon="2.8812">
        <ele>38.6</ele>
        <time>2022-05-21 08:01:09</time>
      </trkpt>
      <trkpt lat="42.0558" lon="2.88128">
        <ele>38.6</ele>
        <time>2022-05-21 08:01:10</time>
      </trkpt>
      <trkpt lat="42.05584" lon="2.88135">
        <ele>38.6</ele>
        <time>2022-05-21 08:01:11</time>
      </trkpt>
      <trkpt lat="42.05587" lon="2.88143">
        <ele>38.8</ele>
        <time>2022-05-21 08:01:12</time>
      </trkpt>
      <trkpt lat="42.0559" lon="2.88152">
        <ele>38.8</ele>
        <time>2022-05-21 08:01:13</time>
      </trkpt>
      <trkpt lat="42.05591" lon="2.88162">
        <ele>38.8</ele>
        <time>2022-05-21 08:01:14</time>
      </trkpt>
      <trkpt lat="42.05593" lon="2.88171">
        <ele>38.8</ele>
        <time>2022-05-21 08:01:15</time>
      </trkpt>
      <trkpt lat="42.05596" lon="2.8818">
        <ele>39</ele>
        <time>2022-05-21 08:01:16</time>
      </trkpt>
      <trkpt lat="42.05599" lon="2.88191">
        <ele>39</ele>
        <time>2022-05-21 08:01:17</time>
      </trkpt>
      <trkpt lat="42.05602" lon="2.88201">
        <ele>39</ele>
        <time>2022-05-21 08:01:18</time>
      </trkpt>
      <trkpt lat="42.05604" lon="2.8821">
        <ele>39</ele>
        <time>2022-05-21 08:01:19</time>
      </trkpt>
      <trkpt lat="42.05607" lon="2.88219">
        <ele>39.2</ele>
        <time>2022-05-21 08:01:20</time>
      </trkpt>
      <trkpt lat="42.0561" lon="2.88228">
        <ele>39.2</ele>
        <time>2022-05-21 08:01:21</time>
      </trkpt>
      <trkpt lat="42.05613" lon="2.88237">
        <ele>39.4</ele>
        <time>2022-05-21 08:01:22</time>
      </trkpt>
      <trkpt lat="42.05616" lon="2.88247">
        <ele>39.4</ele>
        <time>2022-05-21 08:01:23</time>
      </trkpt>
      <trkpt lat="42.05619" lon="2.88255">
        <ele>39.6</ele>
        <time>2022-05-21 08:01:24</time>
      </trkpt>
      <trkpt lat="42.05622" lon="2.88263">
        <ele>39.6</ele>
        <time>2022-05-21 08:01:25</time>
      </trkpt>
      <trkpt lat="42.05625" lon="2.88271">
        <ele>39.8</ele>
        <time>2022-05-21 08:01:26</time>
      </trkpt>
      <trkpt lat="42.05629" lon="2.8828">
        <ele>39.8</ele>
        <time>2022-05-21 08:01:27</time>
      </trkpt>
      <trkpt lat="42.05632" lon="2.88289">
        <ele>40</ele>
        <time>2022-05-21 08:01:28</time>
      </trkpt>
      <trkpt lat="42.05635" lon="2.88298">
        <ele>40</ele>
        <time>2022-05-21 08:01:29</time>
      </trkpt>
      <trkpt lat="42.05638" lon="2.88306">
        <ele>40.2</ele>
        <time>2022-05-21 08:01:30</time>
      </trkpt>
      <trkpt lat="42.05641" lon="2.88314">
        <ele>40.2</ele>
        <time>2022-05-21 08:01:31</time>
      </trkpt>
      <trkpt lat="42.05644" lon="2.88322">
        <ele>40.4</ele>
        <time>2022-05-21 08:01:32</time>
      </trkpt>
      <trkpt lat="42.05647" lon="2.8833">
        <ele>40.4</ele>
        <time>2022-05-21 08:01:33</time>
      </trkpt>
      <trkpt lat="42.0565" lon="2.88339">
        <ele>40.6</ele>
        <time>2022-05-21 08:01:34</time>
      </trkpt>
      <trkpt lat="42.05653" lon="2.88346">
        <ele>40.6</ele>
        <time>2022-05-21 08:01:35</time>
      </trkpt>
      <trkpt lat="42.05656" lon="2.88354">
        <ele>40.8</ele>
        <time>2022-05-21 08:01:36</time>
      </trkpt>
      <trkpt lat="42.0566" lon="2.88363">
        <ele>40.8</ele>
        <time>2022-05-21 08:01:37</time>
      </trkpt>
      <trkpt lat="42.05663" lon="2.88371">
        <ele>41</ele>
        <time>2022-05-21 08:01:38</time>
      </trkpt>
      <trkpt lat="42.05666" lon="2.88379">
        <ele>41</ele>
        <time>2022-05-21 08:01:39</time>
      </trkpt>
      <trkpt lat="42.0567" lon="2.88387">
        <ele>41.2</ele>
        <time>2022-05-21 08:01:40</time>
      </trkpt>
      <trkpt lat="42.05673" lon="2.88395">
        <ele>41.2</ele>
        <time>2022-05-21 08:01:41</time>
      </trkpt>
      <trkpt lat="42.05676" lon="2.88403">
        <ele>41.4</ele>
        <time>2022-05-21 08:01:42</time>
      </trkpt>
      <trkpt lat="42.05679" lon="2.8841">
        <ele>41.4</ele>
        <time>2022-05-21 08:01:43</time>
      </trkpt>
      <trkpt lat="42.05683" lon="2.88418">
        <ele>41.4</ele>
        <time>2022-05-21 08:01:44</time>
      </trkpt>
      <trkpt lat="42.05686" lon="2.88427">
        <ele>41.6</ele>
        <time>2022-05-21 08:01:45</time>
      </trkpt>
      <trkpt lat="42.05689" lon="2.88435">
        <ele>41.6</ele>
        <time>2022-05-21 08:01:46</time>
      </trkpt>
      <trkpt lat="42.05693" lon="2.88442">
        <ele>41.6</ele>
        <time>2022-05-21 08:01:47</time>
      </trkpt>
      <trkpt lat="42.05696" lon="2.88451">
        <ele>41.6</ele>
        <time>2022-05-21 08:01:48</time>
      </trkpt>
      <trkpt lat="42.05699" lon="2.88459">
        <ele>41.6</ele>
        <time>2022-05-21 08:01:49</time>
      </trkpt>
      <trkpt lat="42.05702" lon="2.88467">
        <ele>41.6</ele>
        <time>2022-05-21 08:01:50</time>
      </trkpt>
      <trkpt lat="42.05705" lon="2.88475">
        <ele>41.6</ele>
        <time>2022-05-21 08:01:51</time>
      </trkpt>
      <trkpt lat="42.05709" lon="2.88484">
        <ele>41.6</ele>
        <time>2022-05-21 08:01:52</time>
      </trkpt>
      <trkpt lat="42.05713" lon="2.88492">
        <ele>41.6</ele>
        <time>2022-05-21 08:01:53</time>
      </trkpt>
      <trkpt lat="42.05716" lon="2.885">
        <ele>41.6</ele>
        <time>2022-05-21 08:01:54</time>
      </trkpt>
      <trkpt lat="42.0572" lon="2.88509">
        <ele>41.6</ele>
        <time>2022-05-21 08:01:55</time>
      </trkpt>
      <trkpt lat="42.05723" lon="2.88517">
        <ele>41.4</ele>
        <time>2022-05-21 08:01:56</time>
      </trkpt>
      <trkpt lat="42.05727" lon="2.88526">
        <ele>41.4</ele>
        <time>2022-05-21 08:01:57</time>
      </trkpt>
      <trkpt lat="42.05731" lon="2.88535">
        <ele>41.4</ele>
        <time>2022-05-21 08:01:58</time>
      </trkpt>
      <trkpt lat="42.05734" lon="2.88543">
        <ele>41.4</ele>
        <time>2022-05-21 08:01:59</time>
      </trkpt>
      <trkpt lat="42.05738" lon="2.88552">
        <ele>41.2</ele>
        <time>2022-05-21 08:02:00</time>
      </trkpt>
      <trkpt lat="42.05742" lon="2.8856">
        <ele>41.2</ele>
        <time>2022-05-21 08:02:01</time>
      </trkpt>
      <trkpt lat="42.05745" lon="2.88569">
        <ele>41.2</ele>
        <time>2022-05-21 08:02:02</time>
      </trkpt>
      <trkpt lat="42.05749" lon="2.88577">
        <ele>41.2</ele>
        <time>2022-05-21 08:02:03</time>
      </trkpt>
      <trkpt lat="42.05752" lon="2.88585">
        <ele>41.2</ele>
        <time>2022-05-21 08:02:04</time>
      </trkpt>
      <trkpt lat="42.05755" lon="2.88594">
        <ele>41.2</ele>
        <time>2022-05-21 08:02:05</time>
      </trkpt>
      <trkpt lat="42.05759" lon="2.88602">
        <ele>41.2</ele>
        <time>2022-05-21 08:02:06</time>
      </trkpt>
      <trkpt lat="42.05762" lon="2.8861">
        <ele>41.2</ele>
        <time>2022-05-21 08:02:07</time>
      </trkpt>
      <trkpt lat="42.05765" lon="2.88618">
        <ele>41.2</ele>
        <time>2022-05-21 08:02:08</time>
      </trkpt>
      <trkpt lat="42.05768" lon="2.88626">
        <ele>41.2</ele>
        <time>2022-05-21 08:02:09</time>
      </trkpt>
      <trkpt lat="42.05772" lon="2.88634">
        <ele>41.2</ele>
        <time>2022-05-21 08:02:10</time>
      </trkpt>
      <trkpt lat="42.05774" lon="2.88642">
        <ele>41.2</ele>
        <time>2022-05-21 08:02:11</time>
      </trkpt>
      <trkpt lat="42.05778" lon="2.8865">
        <ele>41.2</ele>
        <time>2022-05-21 08:02:12</time>
      </trkpt>
      <trkpt lat="42.05781" lon="2.88658">
        <ele>41.2</ele>
        <time>2022-05-21 08:02:13</time>
      </trkpt>
      <trkpt lat="42.05784" lon="2.88666">
        <ele>41.2</ele>
        <time>2022-05-21 08:02:14</time>
      </trkpt>
      <trkpt lat="42.05788" lon="2.88674">
        <ele>41</ele>
        <time>2022-05-21 08:02:15</time>
      </trkpt>
      <trkpt lat="42.05791" lon="2.88682">
        <ele>41</ele>
        <time>2022-05-21 08:02:16</time>
      </trkpt>
      <trkpt lat="42.05794" lon="2.88689">
        <ele>41</ele>
        <time>2022-05-21 08:02:17</time>
      </trkpt>
      <trkpt lat="42.05798" lon="2.88697">
        <ele>41</ele>
        <time>2022-05-21 08:02:18</time>
      </trkpt>
      <trkpt lat="42.05801" lon="2.88705">
        <ele>41</ele>
        <time>2022-05-21 08:02:19</time>
      </trkpt>
      <trkpt lat="42.05804" lon="2.88713">
        <ele>40.8</ele>
        <time>2022-05-21 08:02:20</time>
      </trkpt>
      <trkpt lat="42.05808" lon="2.8872">
        <ele>40.8</ele>
        <time>2022-05-21 08:02:21</time>
      </trkpt>
      <trkpt lat="42.05811" lon="2.88729">
        <ele>40.8</ele>
        <time>2022-05-21 08:02:22</time>
      </trkpt>
      <trkpt lat="42.05815" lon="2.88737">
        <ele>40.8</ele>
        <time>2022-05-21 08:02:23</time>
      </trkpt>
      <trkpt lat="42.05818" lon="2.88745">
        <ele>40.8</ele>
        <time>2022-05-21 08:02:24</time>
      </trkpt>
      <trkpt lat="42.05821" lon="2.88753">
        <ele>40.6</ele>
        <time>2022-05-21 08:02:25</time>
      </trkpt>
      <trkpt lat="42.05824" lon="2.88762">
        <ele>40.6</ele>
        <time>2022-05-21 08:02:26</time>
      </trkpt>
      <trkpt lat="42.05827" lon="2.88769">
        <ele>40.6</ele>
        <time>2022-05-21 08:02:27</time>
      </trkpt>
      <trkpt lat="42.0583" lon="2.88777">
        <ele>40.6</ele>
        <time>2022-05-21 08:02:28</time>
      </trkpt>
      <trkpt lat="42.05833" lon="2.88786">
        <ele>40.6</ele>
        <time>2022-05-21 08:02:29</time>
      </trkpt>
      <trkpt lat="42.05837" lon="2.88794">
        <ele>40.6</ele>
        <time>2022-05-21 08:02:30</time>
      </trkpt>
      <trkpt lat="42.0584" lon="2.88802">
        <ele>40.6</ele>
        <time>2022-05-21 08:02:31</time>
      </trkpt>
      <trkpt lat="42.05844" lon="2.88811">
        <ele>40.4</ele>
        <time>2022-05-21 08:02:32</time>
      </trkpt>
      <trkpt lat="42.05847" lon="2.8882">
        <ele>40.4</ele>
        <time>2022-05-21 08:02:33</time>
      </trkpt>
      <trkpt lat="42.05851" lon="2.88828">
        <ele>40.4</ele>
        <time>2022-05-21 08:02:34</time>
      </trkpt>
      <trkpt lat="42.05854" lon="2.88836">
        <ele>40.4</ele>
        <time>2022-05-21 08:02:35</time>
      </trkpt>
      <trkpt lat="42.05857" lon="2.88845">
        <ele>40.2</ele>
        <time>2022-05-21 08:02:36</time>
      </trkpt>
      <trkpt lat="42.05861" lon="2.88853">
        <ele>40.2</ele>
        <time>2022-05-21 08:02:37</time>
      </trkpt>
      <trkpt lat="42.05864" lon="2.8886">
        <ele>40.2</ele>
        <time>2022-05-21 08:02:38</time>
      </trkpt>
      <trkpt lat="42.05868" lon="2.88869">
        <ele>40.2</ele>
        <time>2022-05-21 08:02:39</time>
      </trkpt>
      <trkpt lat="42.05871" lon="2.88878">
        <ele>40.2</ele>
        <time>2022-05-21 08:02:40</time>
      </trkpt>
      <trkpt lat="42.05874" lon="2.88887">
        <ele>40.2</ele>
        <time>2022-05-21 08:02:41</time>
      </trkpt>
      <trkpt lat="42.05878" lon="2.88895">
        <ele>40.2</ele>
        <time>2022-05-21 08:02:42</time>
      </trkpt>
      <trkpt lat="42.05881" lon="2.88903">
        <ele>40.2</ele>
        <time>2022-05-21 08:02:43</time>
      </trkpt>
      <trkpt lat="42.05884" lon="2.88911">
        <ele>40.4</ele>
        <time>2022-05-21 08:02:44</time>
      </trkpt>
      <trkpt lat="42.05887" lon="2.88918">
        <ele>40.4</ele>
        <time>2022-05-21 08:02:45</time>
      </trkpt>
      <trkpt lat="42.0589" lon="2.88926">
        <ele>40.4</ele>
        <time>2022-05-21 08:02:46</time>
      </trkpt>
      <trkpt lat="42.05893" lon="2.88935">
        <ele>40.6</ele>
        <time>2022-05-21 08:02:47</time>
      </trkpt>
      <trkpt lat="42.05897" lon="2.88943">
        <ele>40.6</ele>
        <time>2022-05-21 08:02:48</time>
      </trkpt>
      <trkpt lat="42.059" lon="2.88951">
        <ele>40.6</ele>
        <time>2022-05-21 08:02:49</time>
      </trkpt>
      <trkpt lat="42.05903" lon="2.88959">
        <ele>40.6</ele>
        <time>2022-05-21 08:02:50</time>
      </trkpt>
      <trkpt lat="42.05906" lon="2.88967">
        <ele>40.8</ele>
        <time>2022-05-21 08:02:51</time>
      </trkpt>
      <trkpt lat="42.0591" lon="2.88975">
        <ele>40.8</ele>
        <time>2022-05-21 08:02:52</time>
      </trkpt>
      <trkpt lat="42.05913" lon="2.88983">
        <ele>40.8</ele>
        <time>2022-05-21 08:02:53</time>
      </trkpt>
      <trkpt lat="42.05916" lon="2.88991">
        <ele>41</ele>
        <time>2022-05-21 08:02:54</time>
      </trkpt>
      <trkpt lat="42.05919" lon="2.88999">
        <ele>41</ele>
        <time>2022-05-21 08:02:55</time>
      </trkpt>
      <trkpt lat="42.05922" lon="2.89006">
        <ele>41.2</ele>
        <time>2022-05-21 08:02:56</time>
      </trkpt>
      <trkpt lat="42.05926" lon="2.89015">
        <ele>41.2</ele>
        <time>2022-05-21 08:02:57</time>
      </trkpt>
      <trkpt lat="42.05929" lon="2.89024">
        <ele>41.2</ele>
        <time>2022-05-21 08:02:58</time>
      </trkpt>
      <trkpt lat="42.05933" lon="2.89032">
        <ele>41.4</ele>
        <time>2022-05-21 08:02:59</time>
      </trkpt>
      <trkpt lat="42.05937" lon="2.89039">
        <ele>41.4</ele>
        <time>2022-05-21 08:03:00</time>
      </trkpt>
      <trkpt lat="42.0594" lon="2.89047">
        <ele>41.4</ele>
        <time>2022-05-21 08:03:01</time>
      </trkpt>
      <trkpt lat="42.05943" lon="2.89056">
        <ele>41.4</ele>
        <time>2022-05-21 08:03:02</time>
      </trkpt>
      <trkpt lat="42.05947" lon="2.89064">
        <ele>41.6</ele>
        <time>2022-05-21 08:03:03</time>
      </trkpt>
      <trkpt lat="42.0595" lon="2.89073">
        <ele>41.6</ele>
        <time>2022-05-21 08:03:04</time>
      </trkpt>
      <trkpt lat="42.05953" lon="2.8908">
        <ele>41.6</ele>
        <time>2022-05-21 08:03:05</time>
      </trkpt>
      <trkpt lat="42.05957" lon="2.89089">
        <ele>41.6</ele>
        <time>2022-05-21 08:03:06</time>
      </trkpt>
      <trkpt lat="42.0596" lon="2.89097">
        <ele>41.6</ele>
        <time>2022-05-21 08:03:07</time>
      </trkpt>
      <trkpt lat="42.05963" lon="2.89104">
        <ele>41.6</ele>
        <time>2022-05-21 08:03:08</time>
      </trkpt>
      <trkpt lat="42.05967" lon="2.89114">
        <ele>41.6</ele>
        <time>2022-05-21 08:03:09</time>
      </trkpt>
      <trkpt lat="42.05971" lon="2.89122">
        <ele>41.6</ele>
        <time>2022-05-21 08:03:10</time>
      </trkpt>
      <trkpt lat="42.05974" lon="2.89131">
        <ele>41.6</ele>
        <time>2022-05-21 08:03:11</time>
      </trkpt>
      <trkpt lat="42.05976" lon="2.89137">
        <ele>41.6</ele>
        <time>2022-05-21 08:03:12</time>
      </trkpt>
      <trkpt lat="42.05981" lon="2.89149">
        <ele>41.6</ele>
        <time>2022-05-21 08:03:13</time>
      </trkpt>
      <trkpt lat="42.05985" lon="2.89158">
        <ele>41.6</ele>
        <time>2022-05-21 08:03:14</time>
      </trkpt>
      <trkpt lat="42.05989" lon="2.89167">
        <ele>41.6</ele>
        <time>2022-05-21 08:03:15</time>
      </trkpt>
      <trkpt lat="42.05993" lon="2.89175">
        <ele>41.6</ele>
        <time>2022-05-21 08:03:16</time>
      </trkpt>
      <trkpt lat="42.05996" lon="2.89184">
        <ele>41.6</ele>
        <time>2022-05-21 08:03:17</time>
      </trkpt>
      <trkpt lat="42.06" lon="2.89192">
        <ele>41.6</ele>
        <time>2022-05-21 08:03:18</time>
      </trkpt>
      <trkpt lat="42.06004" lon="2.892">
        <ele>41.6</ele>
        <time>2022-05-21 08:03:19</time>
      </trkpt>
      <trkpt lat="42.06008" lon="2.89209">
        <ele>41.6</ele>
        <time>2022-05-21 08:03:20</time>
      </trkpt>
      <trkpt lat="42.06012" lon="2.89217">
        <ele>41.6</ele>
        <time>2022-05-21 08:03:21</time>
      </trkpt>
      <trkpt lat="42.06016" lon="2.89225">
        <ele>41.6</ele>
        <time>2022-05-21 08:03:22</time>
      </trkpt>
      <trkpt lat="42.0602" lon="2.89233">
        <ele>41.6</ele>
        <time>2022-05-21 08:03:23</time>
      </trkpt>
      <trkpt lat="42.06024" lon="2.89241">
        <ele>41.6</ele>
        <time>2022-05-21 08:03:24</time>
      </trkpt>
      <trkpt lat="42.06028" lon="2.89249">
        <ele>41.6</ele>
        <time>2022-05-21 08:03:25</time>
      </trkpt>
      <trkpt lat="42.06033" lon="2.89257">
        <ele>41.6</ele>
        <time>2022-05-21 08:03:26</time>
      </trkpt>
      <trkpt lat="42.06037" lon="2.89265">
        <ele>41.6</ele>
        <time>2022-05-21 08:03:27</time>
      </trkpt>
      <trkpt lat="42.06041" lon="2.89273">
        <ele>41.6</ele>
        <time>2022-05-21 08:03:28</time>
      </trkpt>
      <trkpt lat="42.06045" lon="2.89281">
        <ele>41.4</ele>
        <time>2022-05-21 08:03:29</time>
      </trkpt>
      <trkpt lat="42.06049" lon="2.89289">
        <ele>41.4</ele>
        <time>2022-05-21 08:03:30</time>
      </trkpt>
      <trkpt lat="42.06053" lon="2.89297">
        <ele>41.4</ele>
        <time>2022-05-21 08:03:31</time>
      </trkpt>
      <trkpt lat="42.06057" lon="2.89305">
        <ele>41.4</ele>
        <time>2022-05-21 08:03:32</time>
      </trkpt>
      <trkpt lat="42.06062" lon="2.89313">
        <ele>41.4</ele>
        <time>2022-05-21 08:03:33</time>
      </trkpt>
      <trkpt lat="42.06066" lon="2.8932">
        <ele>41.4</ele>
        <time>2022-05-21 08:03:34</time>
      </trkpt>
      <trkpt lat="42.0607" lon="2.89328">
        <ele>41.4</ele>
        <time>2022-05-21 08:03:35</time>
      </trkpt>
      <trkpt lat="42.06074" lon="2.89336">
        <ele>41.4</ele>
        <time>2022-05-21 08:03:36</time>
      </trkpt>
      <trkpt lat="42.06078" lon="2.89343">
        <ele>41.4</ele>
        <time>2022-05-21 08:03:37</time>
      </trkpt>
      <trkpt lat="42.06081" lon="2.89351">
        <ele>41.4</ele>
        <time>2022-05-21 08:03:38</time>
      </trkpt>
      <trkpt lat="42.06085" lon="2.89358">
        <ele>41.4</ele>
        <time>2022-05-21 08:03:39</time>
      </trkpt>
      <trkpt lat="42.06089" lon="2.89366">
        <ele>41.4</ele>
        <time>2022-05-21 08:03:40</time>
      </trkpt>
      <trkpt lat="42.06093" lon="2.89374">
        <ele>41.4</ele>
        <time>2022-05-21 08:03:41</time>
      </trkpt>
      <trkpt lat="42.06097" lon="2.89381">
        <ele>41.4</ele>
        <time>2022-05-21 08:03:42</time>
      </trkpt>
      <trkpt lat="42.06101" lon="2.89388">
        <ele>41.4</ele>
        <time>2022-05-21 08:03:43</time>
      </trkpt>
      <trkpt lat="42.06105" lon="2.89396">
        <ele>41.4</ele>
        <time>2022-05-21 08:03:44</time>
      </trkpt>
      <trkpt lat="42.06108" lon="2.89404">
        <ele>41.4</ele>
        <time>2022-05-21 08:03:45</time>
      </trkpt>
      <trkpt lat="42.06113" lon="2.89411">
        <ele>41.4</ele>
        <time>2022-05-21 08:03:46</time>
      </trkpt>
      <trkpt lat="42.06117" lon="2.89419">
        <ele>41.4</ele>
        <time>2022-05-21 08:03:47</time>
      </trkpt>
      <trkpt lat="42.06121" lon="2.89427">
        <ele>41.4</ele>
        <time>2022-05-21 08:03:48</time>
      </trkpt>
      <trkpt lat="42.06125" lon="2.89434">
        <ele>41.4</ele>
        <time>2022-05-21 08:03:49</time>
      </trkpt>
      <trkpt lat="42.06128" lon="2.89442">
        <ele>41.4</ele>
        <time>2022-05-21 08:03:50</time>
      </trkpt>
      <trkpt lat="42.06132" lon="2.89449">
        <ele>41.4</ele>
        <time>2022-05-21 08:03:51</time>
      </trkpt>
      <trkpt lat="42.06136" lon="2.89457">
        <ele>41.4</ele>
        <time>2022-05-21 08:03:52</time>
      </trkpt>
      <trkpt lat="42.0614" lon="2.89464">
        <ele>41.4</ele>
        <time>2022-05-21 08:03:53</time>
      </trkpt>
      <trkpt lat="42.06145" lon="2.89471">
        <ele>41.4</ele>
        <time>2022-05-21 08:03:54</time>
      </trkpt>
      <trkpt lat="42.06149" lon="2.89479">
        <ele>41.4</ele>
        <time>2022-05-21 08:03:55</time>
      </trkpt>
      <trkpt lat="42.06152" lon="2.89487">
        <ele>41.4</ele>
        <time>2022-05-21 08:03:56</time>
      </trkpt>
      <trkpt lat="42.06156" lon="2.89494">
        <ele>41.4</ele>
        <time>2022-05-21 08:03:57</time>
      </trkpt>
      <trkpt lat="42.0616" lon="2.89502">
        <ele>41.4</ele>
        <time>2022-05-21 08:03:58</time>
      </trkpt>
      <trkpt lat="42.06165" lon="2.8951">
        <ele>41.4</ele>
        <time>2022-05-21 08:03:59</time>
      </trkpt>
      <trkpt lat="42.06169" lon="2.89518">
        <ele>41.4</ele>
        <time>2022-05-21 08:04:00</time>
      </trkpt>
      <trkpt lat="42.06173" lon="2.89526">
        <ele>41.4</ele>
        <time>2022-05-21 08:04:01</time>
      </trkpt>
      <trkpt lat="42.06176" lon="2.89534">
        <ele>41.4</ele>
        <time>2022-05-21 08:04:02</time>
      </trkpt>
      <trkpt lat="42.06181" lon="2.89541">
        <ele>41.4</ele>
        <time>2022-05-21 08:04:03</time>
      </trkpt>
      <trkpt lat="42.06185" lon="2.89549">
        <ele>41.4</ele>
        <time>2022-05-21 08:04:04</time>
      </trkpt>
      <trkpt lat="42.06189" lon="2.89557">
        <ele>41.4</ele>
        <time>2022-05-21 08:04:05</time>
      </trkpt>
      <trkpt lat="42.06193" lon="2.89565">
        <ele>41.4</ele>
        <time>2022-05-21 08:04:06</time>
      </trkpt>
      <trkpt lat="42.06197" lon="2.89573">
        <ele>41.4</ele>
        <time>2022-05-21 08:04:07</time>
      </trkpt>
      <trkpt lat="42.06201" lon="2.8958">
        <ele>41.4</ele>
        <time>2022-05-21 08:04:08</time>
      </trkpt>
      <trkpt lat="42.06205" lon="2.89588">
        <ele>41.4</ele>
        <time>2022-05-21 08:04:09</time>
      </trkpt>
      <trkpt lat="42.06209" lon="2.89596">
        <ele>41.4</ele>
        <time>2022-05-21 08:04:10</time>
      </trkpt>
      <trkpt lat="42.06213" lon="2.89604">
        <ele>41.4</ele>
        <time>2022-05-21 08:04:11</time>
      </trkpt>
      <trkpt lat="42.06217" lon="2.89612">
        <ele>41.4</ele>
        <time>2022-05-21 08:04:12</time>
      </trkpt>
      <trkpt lat="42.06221" lon="2.8962">
        <ele>41.4</ele>
        <time>2022-05-21 08:04:13</time>
      </trkpt>
      <trkpt lat="42.06225" lon="2.89628">
        <ele>41.4</ele>
        <time>2022-05-21 08:04:14</time>
      </trkpt>
      <trkpt lat="42.06229" lon="2.89636">
        <ele>41.4</ele>
        <time>2022-05-21 08:04:15</time>
      </trkpt>
      <trkpt lat="42.06233" lon="2.89644">
        <ele>41.4</ele>
        <time>2022-05-21 08:04:16</time>
      </trkpt>
      <trkpt lat="42.06238" lon="2.89652">
        <ele>41.4</ele>
        <time>2022-05-21 08:04:17</time>
      </trkpt>
      <trkpt lat="42.06242" lon="2.8966">
        <ele>41.4</ele>
        <time>2022-05-21 08:04:18</time>
      </trkpt>
      <trkpt lat="42.06246" lon="2.89668">
        <ele>41.2</ele>
        <time>2022-05-21 08:04:19</time>
      </trkpt>
      <trkpt lat="42.0625" lon="2.89676">
        <ele>41.2</ele>
        <time>2022-05-21 08:04:20</time>
      </trkpt>
      <trkpt lat="42.06254" lon="2.89684">
        <ele>41</ele>
        <time>2022-05-21 08:04:21</time>
      </trkpt>
      <trkpt lat="42.06258" lon="2.89692">
        <ele>41</ele>
        <time>2022-05-21 08:04:22</time>
      </trkpt>
      <trkpt lat="42.06263" lon="2.89701">
        <ele>40.8</ele>
        <time>2022-05-21 08:04:23</time>
      </trkpt>
      <trkpt lat="42.06267" lon="2.89709">
        <ele>40.8</ele>
        <time>2022-05-21 08:04:24</time>
      </trkpt>
      <trkpt lat="42.06272" lon="2.89717">
        <ele>40.6</ele>
        <time>2022-05-21 08:04:25</time>
      </trkpt>
      <trkpt lat="42.06276" lon="2.89726">
        <ele>40.4</ele>
        <time>2022-05-21 08:04:26</time>
      </trkpt>
      <trkpt lat="42.06281" lon="2.89734">
        <ele>40.4</ele>
        <time>2022-05-21 08:04:27</time>
      </trkpt>
      <trkpt lat="42.06285" lon="2.89743">
        <ele>40.2</ele>
        <time>2022-05-21 08:04:28</time>
      </trkpt>
      <trkpt lat="42.0629" lon="2.89751">
        <ele>40</ele>
        <time>2022-05-21 08:04:29</time>
      </trkpt>
      <trkpt lat="42.06294" lon="2.8976">
        <ele>40</ele>
        <time>2022-05-21 08:04:30</time>
      </trkpt>
      <trkpt lat="42.06299" lon="2.89769">
        <ele>39.8</ele>
        <time>2022-05-21 08:04:31</time>
      </trkpt>
      <trkpt lat="42.06304" lon="2.89778">
        <ele>39.6</ele>
        <time>2022-05-21 08:04:32</time>
      </trkpt>
      <trkpt lat="42.06308" lon="2.89787">
        <ele>39.4</ele>
        <time>2022-05-21 08:04:33</time>
      </trkpt>
      <trkpt lat="42.06313" lon="2.89796">
        <ele>39.2</ele>
        <time>2022-05-21 08:04:34</time>
      </trkpt>
      <trkpt lat="42.06317" lon="2.89804">
        <ele>39.2</ele>
        <time>2022-05-21 08:04:35</time>
      </trkpt>
      <trkpt lat="42.06322" lon="2.89813">
        <ele>39</ele>
        <time>2022-05-21 08:04:36</time>
      </trkpt>
      <trkpt lat="42.06327" lon="2.89822">
        <ele>38.8</ele>
        <time>2022-05-21 08:04:37</time>
      </trkpt>
      <trkpt lat="42.06331" lon="2.89831">
        <ele>38.6</ele>
        <time>2022-05-21 08:04:38</time>
      </trkpt>
      <trkpt lat="42.06336" lon="2.8984">
        <ele>38.6</ele>
        <time>2022-05-21 08:04:39</time>
      </trkpt>
      <trkpt lat="42.06341" lon="2.89849">
        <ele>38.4</ele>
        <time>2022-05-21 08:04:40</time>
      </trkpt>
      <trkpt lat="42.06345" lon="2.89858">
        <ele>38.2</ele>
        <time>2022-05-21 08:04:41</time>
      </trkpt>
      <trkpt lat="42.0635" lon="2.89868">
        <ele>38</ele>
        <time>2022-05-21 08:04:42</time>
      </trkpt>
      <trkpt lat="42.06355" lon="2.89877">
        <ele>38</ele>
        <time>2022-05-21 08:04:43</time>
      </trkpt>
      <trkpt lat="42.0636" lon="2.89886">
        <ele>37.8</ele>
        <time>2022-05-21 08:04:44</time>
      </trkpt>
      <trkpt lat="42.06364" lon="2.89895">
        <ele>37.6</ele>
        <time>2022-05-21 08:04:45</time>
      </trkpt>
      <trkpt lat="42.06369" lon="2.89904">
        <ele>37.4</ele>
        <time>2022-05-21 08:04:46</time>
      </trkpt>
      <trkpt lat="42.06374" lon="2.89914">
        <ele>37.2</ele>
        <time>2022-05-21 08:04:47</time>
      </trkpt>
      <trkpt lat="42.06379" lon="2.89923">
        <ele>37.2</ele>
        <time>2022-05-21 08:04:48</time>
      </trkpt>
      <trkpt lat="42.06384" lon="2.89932">
        <ele>37</ele>
        <time>2022-05-21 08:04:49</time>
      </trkpt>
      <trkpt lat="42.06389" lon="2.89941">
        <ele>37</ele>
        <time>2022-05-21 08:04:50</time>
      </trkpt>
      <trkpt lat="42.06393" lon="2.8995">
        <ele>37</ele>
        <time>2022-05-21 08:04:51</time>
      </trkpt>
      <trkpt lat="42.06398" lon="2.89959">
        <ele>37</ele>
        <time>2022-05-21 08:04:52</time>
      </trkpt>
      <trkpt lat="42.06402" lon="2.89968">
        <ele>37</ele>
        <time>2022-05-21 08:04:53</time>
      </trkpt>
      <trkpt lat="42.06407" lon="2.89977">
        <ele>37</ele>
        <time>2022-05-21 08:04:54</time>
      </trkpt>
      <trkpt lat="42.06411" lon="2.89985">
        <ele>37</ele>
        <time>2022-05-21 08:04:55</time>
      </trkpt>
      <trkpt lat="42.06416" lon="2.89994">
        <ele>37</ele>
        <time>2022-05-21 08:04:56</time>
      </trkpt>
      <trkpt lat="42.0642" lon="2.90002">
        <ele>37</ele>
        <time>2022-05-21 08:04:57</time>
      </trkpt>
      <trkpt lat="42.06424" lon="2.90011">
        <ele>37</ele>
        <time>2022-05-21 08:04:58</time>
      </trkpt>
      <trkpt lat="42.06429" lon="2.90019">
        <ele>37</ele>
        <time>2022-05-21 08:04:59</time>
      </trkpt>
      <trkpt lat="42.06433" lon="2.90027">
        <ele>37</ele>
        <time>2022-05-21 08:05:00</time>
      </trkpt>
      <trkpt lat="42.06437" lon="2.90036">
        <ele>37.2</ele>
        <time>2022-05-21 08:05:01</time>
      </trkpt>
      <trkpt lat="42.06441" lon="2.90043">
        <ele>37.2</ele>
        <time>2022-05-21 08:05:02</time>
      </trkpt>
      <trkpt lat="42.06445" lon="2.90051">
        <ele>37.2</ele>
        <time>2022-05-21 08:05:03</time>
      </trkpt>
      <trkpt lat="42.06449" lon="2.90059">
        <ele>37.4</ele>
        <time>2022-05-21 08:05:04</time>
      </trkpt>
      <trkpt lat="42.06454" lon="2.90067">
        <ele>37.4</ele>
        <time>2022-05-21 08:05:05</time>
      </trkpt>
      <trkpt lat="42.06458" lon="2.90075">
        <ele>37.4</ele>
        <time>2022-05-21 08:05:06</time>
      </trkpt>
      <trkpt lat="42.06462" lon="2.90083">
        <ele>37.6</ele>
        <time>2022-05-21 08:05:07</time>
      </trkpt>
      <trkpt lat="42.06466" lon="2.90091">
        <ele>37.6</ele>
        <time>2022-05-21 08:05:08</time>
      </trkpt>
      <trkpt lat="42.0647" lon="2.90099">
        <ele>37.8</ele>
        <time>2022-05-21 08:05:09</time>
      </trkpt>
      <trkpt lat="42.06474" lon="2.90106">
        <ele>37.8</ele>
        <time>2022-05-21 08:05:10</time>
      </trkpt>
      <trkpt lat="42.06478" lon="2.90114">
        <ele>38</ele>
        <time>2022-05-21 08:05:11</time>
      </trkpt>
      <trkpt lat="42.06482" lon="2.90121">
        <ele>38</ele>
        <time>2022-05-21 08:05:12</time>
      </trkpt>
      <trkpt lat="42.06486" lon="2.90129">
        <ele>38.2</ele>
        <time>2022-05-21 08:05:13</time>
      </trkpt>
      <trkpt lat="42.0649" lon="2.90136">
        <ele>38.2</ele>
        <time>2022-05-21 08:05:14</time>
      </trkpt>
      <trkpt lat="42.06494" lon="2.90143">
        <ele>38.4</ele>
        <time>2022-05-21 08:05:15</time>
      </trkpt>
      <trkpt lat="42.06498" lon="2.90151">
        <ele>38.4</ele>
        <time>2022-05-21 08:05:16</time>
      </trkpt>
      <trkpt lat="42.06501" lon="2.90158">
        <ele>38.6</ele>
        <time>2022-05-21 08:05:17</time>
      </trkpt>
      <trkpt lat="42.06505" lon="2.90165">
        <ele>38.6</ele>
        <time>2022-05-21 08:05:18</time>
      </trkpt>
      <trkpt lat="42.06509" lon="2.90173">
        <ele>38.6</ele>
        <time>2022-05-21 08:05:19</time>
      </trkpt>
      <trkpt lat="42.06513" lon="2.9018">
        <ele>38.6</ele>
        <time>2022-05-21 08:05:20</time>
      </trkpt>
      <trkpt lat="42.06516" lon="2.90187">
        <ele>38.8</ele>
        <time>2022-05-21 08:05:21</time>
      </trkpt>
      <trkpt lat="42.0652" lon="2.90194">
        <ele>38.8</ele>
        <time>2022-05-21 08:05:22</time>
      </trkpt>
      <trkpt lat="42.06523" lon="2.90202">
        <ele>39</ele>
        <time>2022-05-21 08:05:23</time>
      </trkpt>
      <trkpt lat="42.06527" lon="2.90209">
        <ele>39</ele>
        <time>2022-05-21 08:05:24</time>
      </trkpt>
      <trkpt lat="42.06531" lon="2.90216">
        <ele>39.2</ele>
        <time>2022-05-21 08:05:25</time>
      </trkpt>
      <trkpt lat="42.06535" lon="2.90223">
        <ele>39.2</ele>
        <time>2022-05-21 08:05:26</time>
      </trkpt>
      <trkpt lat="42.06538" lon="2.9023">
        <ele>39.4</ele>
        <time>2022-05-21 08:05:27</time>
      </trkpt>
      <trkpt lat="42.06542" lon="2.90236">
        <ele>39.4</ele>
        <time>2022-05-21 08:05:28</time>
      </trkpt>
      <trkpt lat="42.06546" lon="2.90243">
        <ele>39.6</ele>
        <time>2022-05-21 08:05:29</time>
      </trkpt>
      <trkpt lat="42.0655" lon="2.90249">
        <ele>39.8</ele>
        <time>2022-05-21 08:05:30</time>
      </trkpt>
      <trkpt lat="42.06554" lon="2.90256">
        <ele>39.8</ele>
        <time>2022-05-21 08:05:31</time>
      </trkpt>
      <trkpt lat="42.06558" lon="2.90262">
        <ele>40</ele>
        <time>2022-05-21 08:05:32</time>
      </trkpt>
      <trkpt lat="42.06562" lon="2.90269">
        <ele>40.2</ele>
        <time>2022-05-21 08:05:33</time>
      </trkpt>
      <trkpt lat="42.06566" lon="2.90275">
        <ele>40.2</ele>
        <time>2022-05-21 08:05:34</time>
      </trkpt>
      <trkpt lat="42.0657" lon="2.90281">
        <ele>40.4</ele>
        <time>2022-05-21 08:05:35</time>
      </trkpt>
      <trkpt lat="42.06573" lon="2.90288">
        <ele>40.6</ele>
        <time>2022-05-21 08:05:36</time>
      </trkpt>
      <trkpt lat="42.06574" lon="2.90296">
        <ele>40.6</ele>
        <time>2022-05-21 08:05:37</time>
      </trkpt>
      <trkpt lat="42.06575" lon="2.90304">
        <ele>40.8</ele>
        <time>2022-05-21 08:05:38</time>
      </trkpt>
      <trkpt lat="42.06575" lon="2.90313">
        <ele>40.8</ele>
        <time>2022-05-21 08:05:39</time>
      </trkpt>
      <trkpt lat="42.06574" lon="2.90322">
        <ele>40.6</ele>
        <time>2022-05-21 08:05:40</time>
      </trkpt>
      <trkpt lat="42.06572" lon="2.90331">
        <ele>40.6</ele>
        <time>2022-05-21 08:05:41</time>
      </trkpt>
      <trkpt lat="42.06569" lon="2.90339">
        <ele>40.6</ele>
        <time>2022-05-21 08:05:42</time>
      </trkpt>
      <trkpt lat="42.06566" lon="2.90347">
        <ele>40.4</ele>
        <time>2022-05-21 08:05:43</time>
      </trkpt>
      <trkpt lat="42.06561" lon="2.90355">
        <ele>40.2</ele>
        <time>2022-05-21 08:05:44</time>
      </trkpt>
      <trkpt lat="42.06557" lon="2.90363">
        <ele>40</ele>
        <time>2022-05-21 08:05:45</time>
      </trkpt>
      <trkpt lat="42.06552" lon="2.90371">
        <ele>39.8</ele>
        <time>2022-05-21 08:05:46</time>
      </trkpt>
      <trkpt lat="42.06548" lon="2.90379">
        <ele>39.8</ele>
        <time>2022-05-21 08:05:47</time>
      </trkpt>
      <trkpt lat="42.06544" lon="2.90388">
        <ele>39.8</ele>
        <time>2022-05-21 08:05:48</time>
      </trkpt>
      <trkpt lat="42.06541" lon="2.90397">
        <ele>39.6</ele>
        <time>2022-05-21 08:05:49</time>
      </trkpt>
      <trkpt lat="42.06538" lon="2.90407">
        <ele>39.6</ele>
        <time>2022-05-21 08:05:50</time>
      </trkpt>
      <trkpt lat="42.06537" lon="2.90417">
        <ele>39.6</ele>
        <time>2022-05-21 08:05:51</time>
      </trkpt>
      <trkpt lat="42.06536" lon="2.90427">
        <ele>39.4</ele>
        <time>2022-05-21 08:05:52</time>
      </trkpt>
      <trkpt lat="42.06536" lon="2.90438">
        <ele>39.4</ele>
        <time>2022-05-21 08:05:53</time>
      </trkpt>
      <trkpt lat="42.06537" lon="2.90448">
        <ele>39.2</ele>
        <time>2022-05-21 08:05:54</time>
      </trkpt>
      <trkpt lat="42.06539" lon="2.90458">
        <ele>39</ele>
        <time>2022-05-21 08:05:55</time>
      </trkpt>
      <trkpt lat="42.0654" lon="2.90469">
        <ele>38.8</ele>
        <time>2022-05-21 08:05:56</time>
      </trkpt>
      <trkpt lat="42.06541" lon="2.9048">
        <ele>38.6</ele>
        <time>2022-05-21 08:05:57</time>
      </trkpt>
      <trkpt lat="42.06543" lon="2.9049">
        <ele>38.4</ele>
        <time>2022-05-21 08:05:58</time>
      </trkpt>
      <trkpt lat="42.06544" lon="2.90501">
        <ele>38.2</ele>
        <time>2022-05-21 08:05:59</time>
      </trkpt>
      <trkpt lat="42.06545" lon="2.90512">
        <ele>38</ele>
        <time>2022-05-21 08:06:00</time>
      </trkpt>
      <trkpt lat="42.06547" lon="2.90523">
        <ele>38</ele>
        <time>2022-05-21 08:06:01</time>
      </trkpt>
      <trkpt lat="42.06549" lon="2.90533">
        <ele>37.8</ele>
        <time>2022-05-21 08:06:02</time>
      </trkpt>
      <trkpt lat="42.0655" lon="2.90544">
        <ele>37.6</ele>
        <time>2022-05-21 08:06:03</time>
      </trkpt>
      <trkpt lat="42.06552" lon="2.90555">
        <ele>37.4</ele>
        <time>2022-05-21 08:06:04</time>
      </trkpt>
      <trkpt lat="42.06553" lon="2.90566">
        <ele>37.2</ele>
        <time>2022-05-21 08:06:05</time>
      </trkpt>
      <trkpt lat="42.06554" lon="2.90576">
        <ele>37.2</ele>
        <time>2022-05-21 08:06:06</time>
      </trkpt>
      <trkpt lat="42.06556" lon="2.90587">
        <ele>37</ele>
        <time>2022-05-21 08:06:07</time>
      </trkpt>
      <trkpt lat="42.06558" lon="2.90597">
        <ele>36.8</ele>
        <time>2022-05-21 08:06:08</time>
      </trkpt>
      <trkpt lat="42.06559" lon="2.90608">
        <ele>36.8</ele>
        <time>2022-05-21 08:06:09</time>
      </trkpt>
      <trkpt lat="42.06561" lon="2.90619">
        <ele>36.6</ele>
        <time>2022-05-21 08:06:10</time>
      </trkpt>
      <trkpt lat="42.06562" lon="2.9063">
        <ele>36.4</ele>
        <time>2022-05-21 08:06:11</time>
      </trkpt>
      <trkpt lat="42.06563" lon="2.9064">
        <ele>36.4</ele>
        <time>2022-05-21 08:06:12</time>
      </trkpt>
      <trkpt lat="42.06564" lon="2.90651">
        <ele>36.2</ele>
        <time>2022-05-21 08:06:13</time>
      </trkpt>
      <trkpt lat="42.06566" lon="2.90662">
        <ele>36</ele>
        <time>2022-05-21 08:06:14</time>
      </trkpt>
      <trkpt lat="42.06567" lon="2.90672">
        <ele>36</ele>
        <time>2022-05-21 08:06:15</time>
      </trkpt>
      <trkpt lat="42.06568" lon="2.90684">
        <ele>35.8</ele>
        <time>2022-05-21 08:06:16</time>
      </trkpt>
      <trkpt lat="42.0657" lon="2.90694">
        <ele>35.6</ele>
        <time>2022-05-21 08:06:17</time>
      </trkpt>
      <trkpt lat="42.06571" lon="2.90705">
        <ele>35.6</ele>
        <time>2022-05-21 08:06:18</time>
      </trkpt>
      <trkpt lat="42.06572" lon="2.90716">
        <ele>35.4</ele>
        <time>2022-05-21 08:06:19</time>
      </trkpt>
      <trkpt lat="42.06573" lon="2.90726">
        <ele>35.4</ele>
        <time>2022-05-21 08:06:20</time>
      </trkpt>
      <trkpt lat="42.06575" lon="2.90737">
        <ele>35.2</ele>
        <time>2022-05-21 08:06:21</time>
      </trkpt>
      <trkpt lat="42.06576" lon="2.90748">
        <ele>35.2</ele>
        <time>2022-05-21 08:06:22</time>
      </trkpt>
      <trkpt lat="42.06577" lon="2.90758">
        <ele>35</ele>
        <time>2022-05-21 08:06:23</time>
      </trkpt>
      <trkpt lat="42.06578" lon="2.90769">
        <ele>35</ele>
        <time>2022-05-21 08:06:24</time>
      </trkpt>
      <trkpt lat="42.0658" lon="2.90779">
        <ele>34.8</ele>
        <time>2022-05-21 08:06:25</time>
      </trkpt>
      <trkpt lat="42.06581" lon="2.90789">
        <ele>34.6</ele>
        <time>2022-05-21 08:06:26</time>
      </trkpt>
      <trkpt lat="42.06582" lon="2.908">
        <ele>34.4</ele>
        <time>2022-05-21 08:06:27</time>
      </trkpt>
      <trkpt lat="42.06584" lon="2.9081">
        <ele>34.4</ele>
        <time>2022-05-21 08:06:28</time>
      </trkpt>
      <trkpt lat="42.06585" lon="2.90821">
        <ele>34.2</ele>
        <time>2022-05-21 08:06:29</time>
      </trkpt>
      <trkpt lat="42.06586" lon="2.90831">
        <ele>34</ele>
        <time>2022-05-21 08:06:30</time>
      </trkpt>
      <trkpt lat="42.06587" lon="2.90842">
        <ele>34</ele>
        <time>2022-05-21 08:06:31</time>
      </trkpt>
      <trkpt lat="42.06589" lon="2.90852">
        <ele>33.8</ele>
        <time>2022-05-21 08:06:32</time>
      </trkpt>
      <trkpt lat="42.06591" lon="2.90862">
        <ele>33.8</ele>
        <time>2022-05-21 08:06:33</time>
      </trkpt>
      <trkpt lat="42.06592" lon="2.90873">
        <ele>33.8</ele>
        <time>2022-05-21 08:06:34</time>
      </trkpt>
      <trkpt lat="42.06594" lon="2.90883">
        <ele>33.8</ele>
        <time>2022-05-21 08:06:35</time>
      </trkpt>
      <trkpt lat="42.06595" lon="2.90893">
        <ele>33.8</ele>
        <time>2022-05-21 08:06:36</time>
      </trkpt>
      <trkpt lat="42.06596" lon="2.90903">
        <ele>33.8</ele>
        <time>2022-05-21 08:06:37</time>
      </trkpt>
      <trkpt lat="42.06597" lon="2.90912">
        <ele>33.8</ele>
        <time>2022-05-21 08:06:38</time>
      </trkpt>
      <trkpt lat="42.06598" lon="2.90922">
        <ele>34</ele>
        <time>2022-05-21 08:06:39</time>
      </trkpt>
      <trkpt lat="42.06599" lon="2.90932">
        <ele>34</ele>
        <time>2022-05-21 08:06:40</time>
      </trkpt>
      <trkpt lat="42.066" lon="2.90942">
        <ele>34</ele>
        <time>2022-05-21 08:06:41</time>
      </trkpt>
      <trkpt lat="42.06601" lon="2.90951">
        <ele>34</ele>
        <time>2022-05-21 08:06:42</time>
      </trkpt>
      <trkpt lat="42.06602" lon="2.90961">
        <ele>34.2</ele>
        <time>2022-05-21 08:06:43</time>
      </trkpt>
      <trkpt lat="42.06604" lon="2.9097">
        <ele>34.2</ele>
        <time>2022-05-21 08:06:44</time>
      </trkpt>
      <trkpt lat="42.06605" lon="2.9098">
        <ele>34.4</ele>
        <time>2022-05-21 08:06:45</time>
      </trkpt>
      <trkpt lat="42.06606" lon="2.90989">
        <ele>34.4</ele>
        <time>2022-05-21 08:06:46</time>
      </trkpt>
      <trkpt lat="42.06607" lon="2.90998">
        <ele>34.4</ele>
        <time>2022-05-21 08:06:47</time>
      </trkpt>
      <trkpt lat="42.06608" lon="2.91008">
        <ele>34.4</ele>
        <time>2022-05-21 08:06:48</time>
      </trkpt>
      <trkpt lat="42.0661" lon="2.91017">
        <ele>34.6</ele>
        <time>2022-05-21 08:06:49</time>
      </trkpt>
      <trkpt lat="42.06611" lon="2.91027">
        <ele>34.6</ele>
        <time>2022-05-21 08:06:50</time>
      </trkpt>
      <trkpt lat="42.06612" lon="2.91036">
        <ele>34.6</ele>
        <time>2022-05-21 08:06:51</time>
      </trkpt>
      <trkpt lat="42.06614" lon="2.91045">
        <ele>34.6</ele>
        <time>2022-05-21 08:06:52</time>
      </trkpt>
      <trkpt lat="42.06615" lon="2.91054">
        <ele>34.8</ele>
        <time>2022-05-21 08:06:53</time>
      </trkpt>
      <trkpt lat="42.06616" lon="2.91063">
        <ele>34.8</ele>
        <time>2022-05-21 08:06:54</time>
      </trkpt>
      <trkpt lat="42.06617" lon="2.91073">
        <ele>34.8</ele>
        <time>2022-05-21 08:06:55</time>
      </trkpt>
      <trkpt lat="42.06618" lon="2.91082">
        <ele>35</ele>
        <time>2022-05-21 08:06:56</time>
      </trkpt>
      <trkpt lat="42.06619" lon="2.91091">
        <ele>35</ele>
        <time>2022-05-21 08:06:57</time>
      </trkpt>
      <trkpt lat="42.06621" lon="2.911">
        <ele>35</ele>
        <time>2022-05-21 08:06:58</time>
      </trkpt>
      <trkpt lat="42.06622" lon="2.91109">
        <ele>35</ele>
        <time>2022-05-21 08:06:59</time>
      </trkpt>
      <trkpt lat="42.06624" lon="2.91118">
        <ele>35</ele>
        <time>2022-05-21 08:07:00</time>
      </trkpt>
      <trkpt lat="42.06625" lon="2.91127">
        <ele>35</ele>
        <time>2022-05-21 08:07:01</time>
      </trkpt>
      <trkpt lat="42.06626" lon="2.91137">
        <ele>35</ele>
        <time>2022-05-21 08:07:02</time>
      </trkpt>
      <trkpt lat="42.06628" lon="2.91146">
        <ele>35</ele>
        <time>2022-05-21 08:07:03</time>
      </trkpt>
      <trkpt lat="42.06629" lon="2.91156">
        <ele>34.8</ele>
        <time>2022-05-21 08:07:04</time>
      </trkpt>
      <trkpt lat="42.0663" lon="2.91166">
        <ele>34.8</ele>
        <time>2022-05-21 08:07:05</time>
      </trkpt>
      <trkpt lat="42.06631" lon="2.91175">
        <ele>34.8</ele>
        <time>2022-05-21 08:07:06</time>
      </trkpt>
      <trkpt lat="42.06633" lon="2.91185">
        <ele>34.6</ele>
        <time>2022-05-21 08:07:07</time>
      </trkpt>
      <trkpt lat="42.06634" lon="2.91195">
        <ele>34.6</ele>
        <time>2022-05-21 08:07:08</time>
      </trkpt>
      <trkpt lat="42.06635" lon="2.91205">
        <ele>34.4</ele>
        <time>2022-05-21 08:07:09</time>
      </trkpt>
      <trkpt lat="42.06636" lon="2.91216">
        <ele>34.4</ele>
        <time>2022-05-21 08:07:10</time>
      </trkpt>
      <trkpt lat="42.06637" lon="2.91226">
        <ele>34.2</ele>
        <time>2022-05-21 08:07:11</time>
      </trkpt>
      <trkpt lat="42.06638" lon="2.91236">
        <ele>34.2</ele>
        <time>2022-05-21 08:07:12</time>
      </trkpt>
      <trkpt lat="42.0664" lon="2.91246">
        <ele>34</ele>
        <time>2022-05-21 08:07:13</time>
      </trkpt>
      <trkpt lat="42.06641" lon="2.91257">
        <ele>34</ele>
        <time>2022-05-21 08:07:14</time>
      </trkpt>
      <trkpt lat="42.06643" lon="2.91267">
        <ele>33.8</ele>
        <time>2022-05-21 08:07:15</time>
      </trkpt>
      <trkpt lat="42.06644" lon="2.91277">
        <ele>33.8</ele>
        <time>2022-05-21 08:07:16</time>
      </trkpt>
      <trkpt lat="42.06645" lon="2.91288">
        <ele>33.6</ele>
        <time>2022-05-21 08:07:17</time>
      </trkpt>
      <trkpt lat="42.06646" lon="2.913">
        <ele>33.4</ele>
        <time>2022-05-21 08:07:18</time>
      </trkpt>
      <trkpt lat="42.06647" lon="2.91311">
        <ele>33.2</ele>
        <time>2022-05-21 08:07:19</time>
      </trkpt>
      <trkpt lat="42.06648" lon="2.91322">
        <ele>33</ele>
        <time>2022-05-21 08:07:20</time>
      </trkpt>
      <trkpt lat="42.0665" lon="2.91333">
        <ele>33</ele>
        <time>2022-05-21 08:07:21</time>
      </trkpt>
      <trkpt lat="42.06651" lon="2.91344">
        <ele>32.8</ele>
        <time>2022-05-21 08:07:22</time>
      </trkpt>
      <trkpt lat="42.06652" lon="2.91356">
        <ele>32.6</ele>
        <time>2022-05-21 08:07:23</time>
      </trkpt>
      <trkpt lat="42.06653" lon="2.91367">
        <ele>32.4</ele>
        <time>2022-05-21 08:07:24</time>
      </trkpt>
      <trkpt lat="42.06655" lon="2.91378">
        <ele>32.2</ele>
        <time>2022-05-21 08:07:25</time>
      </trkpt>
      <trkpt lat="42.06656" lon="2.91389">
        <ele>32.2</ele>
        <time>2022-05-21 08:07:26</time>
      </trkpt>
      <trkpt lat="42.06658" lon="2.914">
        <ele>32</ele>
        <time>2022-05-21 08:07:27</time>
      </trkpt>
      <trkpt lat="42.06659" lon="2.91411">
        <ele>32</ele>
        <time>2022-05-21 08:07:28</time>
      </trkpt>
      <trkpt lat="42.06661" lon="2.91422">
        <ele>32</ele>
        <time>2022-05-21 08:07:29</time>
      </trkpt>
      <trkpt lat="42.06662" lon="2.91433">
        <ele>32</ele>
        <time>2022-05-21 08:07:30</time>
      </trkpt>
      <trkpt lat="42.06663" lon="2.91444">
        <ele>32</ele>
        <time>2022-05-21 08:07:31</time>
      </trkpt>
      <trkpt lat="42.06665" lon="2.91454">
        <ele>32.2</ele>
        <time>2022-05-21 08:07:32</time>
      </trkpt>
      <trkpt lat="42.06666" lon="2.91464">
        <ele>32.2</ele>
        <time>2022-05-21 08:07:33</time>
      </trkpt>
      <trkpt lat="42.06667" lon="2.91474">
        <ele>32.4</ele>
        <time>2022-05-21 08:07:34</time>
      </trkpt>
      <trkpt lat="42.06668" lon="2.91485">
        <ele>32.4</ele>
        <time>2022-05-21 08:07:35</time>
      </trkpt>
      <trkpt lat="42.0667" lon="2.91494">
        <ele>32.6</ele>
        <time>2022-05-21 08:07:36</time>
      </trkpt>
      <trkpt lat="42.06671" lon="2.91504">
        <ele>32.8</ele>
        <time>2022-05-21 08:07:37</time>
      </trkpt>
      <trkpt lat="42.06672" lon="2.91513">
        <ele>32.8</ele>
        <time>2022-05-21 08:07:38</time>
      </trkpt>
      <trkpt lat="42.06673" lon="2.91523">
        <ele>33</ele>
        <time>2022-05-21 08:07:39</time>
      </trkpt>
      <trkpt lat="42.06675" lon="2.91533">
        <ele>33</ele>
        <time>2022-05-21 08:07:40</time>
      </trkpt>
      <trkpt lat="42.06676" lon="2.91542">
        <ele>33.2</ele>
        <time>2022-05-21 08:07:41</time>
      </trkpt>
      <trkpt lat="42.06677" lon="2.91551">
        <ele>33.4</ele>
        <time>2022-05-21 08:07:42</time>
      </trkpt>
      <trkpt lat="42.06678" lon="2.91561">
        <ele>33.4</ele>
        <time>2022-05-21 08:07:43</time>
      </trkpt>
      <trkpt lat="42.0668" lon="2.9157">
        <ele>33.6</ele>
        <time>2022-05-21 08:07:44</time>
      </trkpt>
      <trkpt lat="42.06681" lon="2.9158">
        <ele>33.6</ele>
        <time>2022-05-21 08:07:45</time>
      </trkpt>
      <trkpt lat="42.06683" lon="2.91589">
        <ele>33.8</ele>
        <time>2022-05-21 08:07:46</time>
      </trkpt>
      <trkpt lat="42.06684" lon="2.91598">
        <ele>33.8</ele>
        <time>2022-05-21 08:07:47</time>
      </trkpt>
      <trkpt lat="42.06685" lon="2.91608">
        <ele>33.8</ele>
        <time>2022-05-21 08:07:48</time>
      </trkpt>
      <trkpt lat="42.06686" lon="2.91618">
        <ele>33.8</ele>
        <time>2022-05-21 08:07:49</time>
      </trkpt>
      <trkpt lat="42.06688" lon="2.91628">
        <ele>33.6</ele>
        <time>2022-05-21 08:07:50</time>
      </trkpt>
      <trkpt lat="42.06689" lon="2.91638">
        <ele>33.4</ele>
        <time>2022-05-21 08:07:51</time>
      </trkpt>
      <trkpt lat="42.06691" lon="2.91649">
        <ele>33.4</ele>
        <time>2022-05-21 08:07:52</time>
      </trkpt>
      <trkpt lat="42.06692" lon="2.91659">
        <ele>33.2</ele>
        <time>2022-05-21 08:07:53</time>
      </trkpt>
      <trkpt lat="42.06693" lon="2.9167">
        <ele>33</ele>
        <time>2022-05-21 08:07:54</time>
      </trkpt>
      <trkpt lat="42.06694" lon="2.91681">
        <ele>32.8</ele>
        <time>2022-05-21 08:07:55</time>
      </trkpt>
      <trkpt lat="42.06695" lon="2.91691">
        <ele>32.6</ele>
        <time>2022-05-21 08:07:56</time>
      </trkpt>
      <trkpt lat="42.06696" lon="2.91702">
        <ele>32.6</ele>
        <time>2022-05-21 08:07:57</time>
      </trkpt>
      <trkpt lat="42.06698" lon="2.91713">
        <ele>32.4</ele>
        <time>2022-05-21 08:07:58</time>
      </trkpt>
      <trkpt lat="42.06699" lon="2.91724">
        <ele>32.2</ele>
        <time>2022-05-21 08:07:59</time>
      </trkpt>
      <trkpt lat="42.06701" lon="2.91736">
        <ele>32</ele>
        <time>2022-05-21 08:08:00</time>
      </trkpt>
      <trkpt lat="42.06702" lon="2.91747">
        <ele>31.8</ele>
        <time>2022-05-21 08:08:01</time>
      </trkpt>
      <trkpt lat="42.06703" lon="2.91758">
        <ele>31.6</ele>
        <time>2022-05-21 08:08:02</time>
      </trkpt>
      <trkpt lat="42.06705" lon="2.9177">
        <ele>31.4</ele>
        <time>2022-05-21 08:08:03</time>
      </trkpt>
      <trkpt lat="42.06706" lon="2.91781">
        <ele>31.2</ele>
        <time>2022-05-21 08:08:04</time>
      </trkpt>
      <trkpt lat="42.06708" lon="2.91792">
        <ele>30.8</ele>
        <time>2022-05-21 08:08:05</time>
      </trkpt>
      <trkpt lat="42.06709" lon="2.91804">
        <ele>30.6</ele>
        <time>2022-05-21 08:08:06</time>
      </trkpt>
      <trkpt lat="42.0671" lon="2.91815">
        <ele>30.4</ele>
        <time>2022-05-21 08:08:07</time>
      </trkpt>
      <trkpt lat="42.06712" lon="2.91827">
        <ele>30.2</ele>
        <time>2022-05-21 08:08:08</time>
      </trkpt>
      <trkpt lat="42.06713" lon="2.91839">
        <ele>29.8</ele>
        <time>2022-05-21 08:08:09</time>
      </trkpt>
      <trkpt lat="42.06714" lon="2.9185">
        <ele>29.8</ele>
        <time>2022-05-21 08:08:10</time>
      </trkpt>
      <trkpt lat="42.06716" lon="2.91862">
        <ele>29.6</ele>
        <time>2022-05-21 08:08:11</time>
      </trkpt>
      <trkpt lat="42.06717" lon="2.91873">
        <ele>29.4</ele>
        <time>2022-05-21 08:08:12</time>
      </trkpt>
      <trkpt lat="42.06719" lon="2.91885">
        <ele>29.2</ele>
        <time>2022-05-21 08:08:13</time>
      </trkpt>
      <trkpt lat="42.0672" lon="2.91896">
        <ele>29.2</ele>
        <time>2022-05-21 08:08:14</time>
      </trkpt>
      <trkpt lat="42.06722" lon="2.91907">
        <ele>29</ele>
        <time>2022-05-21 08:08:15</time>
      </trkpt>
      <trkpt lat="42.06723" lon="2.91918">
        <ele>29</ele>
        <time>2022-05-21 08:08:16</time>
      </trkpt>
      <trkpt lat="42.06725" lon="2.91929">
        <ele>29</ele>
        <time>2022-05-21 08:08:17</time>
      </trkpt>
      <trkpt lat="42.06726" lon="2.91939">
        <ele>28.8</ele>
        <time>2022-05-21 08:08:18</time>
      </trkpt>
      <trkpt lat="42.06728" lon="2.9195">
        <ele>29</ele>
        <time>2022-05-21 08:08:19</time>
      </trkpt>
      <trkpt lat="42.06729" lon="2.91961">
        <ele>29</ele>
        <time>2022-05-21 08:08:20</time>
      </trkpt>
      <trkpt lat="42.0673" lon="2.91971">
        <ele>29</ele>
        <time>2022-05-21 08:08:21</time>
      </trkpt>
      <trkpt lat="42.06732" lon="2.91982">
        <ele>29</ele>
        <time>2022-05-21 08:08:22</time>
      </trkpt>
      <trkpt lat="42.06733" lon="2.91992">
        <ele>29</ele>
        <time>2022-05-21 08:08:23</time>
      </trkpt>
      <trkpt lat="42.06734" lon="2.92002">
        <ele>29</ele>
        <time>2022-05-21 08:08:24</time>
      </trkpt>
      <trkpt lat="42.06736" lon="2.92012">
        <ele>29</ele>
        <time>2022-05-21 08:08:25</time>
      </trkpt>
      <trkpt lat="42.06737" lon="2.92022">
        <ele>29</ele>
        <time>2022-05-21 08:08:26</time>
      </trkpt>
      <trkpt lat="42.06738" lon="2.92032">
        <ele>29</ele>
        <time>2022-05-21 08:08:27</time>
      </trkpt>
      <trkpt lat="42.0674" lon="2.92042">
        <ele>29</ele>
        <time>2022-05-21 08:08:28</time>
      </trkpt>
      <trkpt lat="42.06741" lon="2.92053">
        <ele>29</ele>
        <time>2022-05-21 08:08:29</time>
      </trkpt>
      <trkpt lat="42.06742" lon="2.92063">
        <ele>29</ele>
        <time>2022-05-21 08:08:30</time>
      </trkpt>
      <trkpt lat="42.06743" lon="2.92073">
        <ele>29</ele>
        <time>2022-05-21 08:08:31</time>
      </trkpt>
      <trkpt lat="42.06744" lon="2.92082">
        <ele>29</ele>
        <time>2022-05-21 08:08:32</time>
      </trkpt>
      <trkpt lat="42.06746" lon="2.92092">
        <ele>29</ele>
        <time>2022-05-21 08:08:33</time>
      </trkpt>
      <trkpt lat="42.06747" lon="2.92103">
        <ele>29</ele>
        <time>2022-05-21 08:08:34</time>
      </trkpt>
      <trkpt lat="42.06749" lon="2.92113">
        <ele>29</ele>
        <time>2022-05-21 08:08:35</time>
      </trkpt>
      <trkpt lat="42.0675" lon="2.92122">
        <ele>29</ele>
        <time>2022-05-21 08:08:36</time>
      </trkpt>
      <trkpt lat="42.06751" lon="2.92132">
        <ele>29</ele>
        <time>2022-05-21 08:08:37</time>
      </trkpt>
      <trkpt lat="42.06753" lon="2.92142">
        <ele>29</ele>
        <time>2022-05-21 08:08:38</time>
      </trkpt>
      <trkpt lat="42.06754" lon="2.92152">
        <ele>29</ele>
        <time>2022-05-21 08:08:39</time>
      </trkpt>
      <trkpt lat="42.06756" lon="2.92162">
        <ele>29</ele>
        <time>2022-05-21 08:08:40</time>
      </trkpt>
      <trkpt lat="42.06757" lon="2.92172">
        <ele>29.2</ele>
        <time>2022-05-21 08:08:41</time>
      </trkpt>
      <trkpt lat="42.06758" lon="2.92182">
        <ele>29.2</ele>
        <time>2022-05-21 08:08:42</time>
      </trkpt>
      <trkpt lat="42.0676" lon="2.92192">
        <ele>29.2</ele>
        <time>2022-05-21 08:08:43</time>
      </trkpt>
      <trkpt lat="42.06761" lon="2.92202">
        <ele>29</ele>
        <time>2022-05-21 08:08:44</time>
      </trkpt>
      <trkpt lat="42.06763" lon="2.92212">
        <ele>29</ele>
        <time>2022-05-21 08:08:45</time>
      </trkpt>
      <trkpt lat="42.06764" lon="2.92222">
        <ele>29</ele>
        <time>2022-05-21 08:08:46</time>
      </trkpt>
      <trkpt lat="42.06765" lon="2.92232">
        <ele>29</ele>
        <time>2022-05-21 08:08:47</time>
      </trkpt>
      <trkpt lat="42.06766" lon="2.92241">
        <ele>29.2</ele>
        <time>2022-05-21 08:08:48</time>
      </trkpt>
      <trkpt lat="42.06768" lon="2.92251">
        <ele>29.2</ele>
        <time>2022-05-21 08:08:49</time>
      </trkpt>
      <trkpt lat="42.06769" lon="2.92261">
        <ele>29.2</ele>
        <time>2022-05-21 08:08:50</time>
      </trkpt>
      <trkpt lat="42.0677" lon="2.92271">
        <ele>29.4</ele>
        <time>2022-05-21 08:08:51</time>
      </trkpt>
      <trkpt lat="42.06772" lon="2.9228">
        <ele>29.4</ele>
        <time>2022-05-21 08:08:52</time>
      </trkpt>
      <trkpt lat="42.06773" lon="2.9229">
        <ele>29.6</ele>
        <time>2022-05-21 08:08:53</time>
      </trkpt>
      <trkpt lat="42.06774" lon="2.92299">
        <ele>29.6</ele>
        <time>2022-05-21 08:08:54</time>
      </trkpt>
      <trkpt lat="42.06775" lon="2.92308">
        <ele>29.8</ele>
        <time>2022-05-21 08:08:55</time>
      </trkpt>
      <trkpt lat="42.06776" lon="2.92316">
        <ele>30</ele>
        <time>2022-05-21 08:08:56</time>
      </trkpt>
      <trkpt lat="42.06777" lon="2.92325">
        <ele>30.2</ele>
        <time>2022-05-21 08:08:57</time>
      </trkpt>
      <trkpt lat="42.06779" lon="2.92334">
        <ele>30.4</ele>
        <time>2022-05-21 08:08:58</time>
      </trkpt>
      <trkpt lat="42.0678" lon="2.92343">
        <ele>30.4</ele>
        <time>2022-05-21 08:08:59</time>
      </trkpt>
      <trkpt lat="42.06781" lon="2.92352">
        <ele>30.6</ele>
        <time>2022-05-21 08:09:00</time>
      </trkpt>
      <trkpt lat="42.06782" lon="2.92361">
        <ele>30.8</ele>
        <time>2022-05-21 08:09:01</time>
      </trkpt>
      <trkpt lat="42.06783" lon="2.92368">
        <ele>31</ele>
        <time>2022-05-21 08:09:02</time>
      </trkpt>
      <trkpt lat="42.06784" lon="2.92374">
        <ele>31.2</ele>
        <time>2022-05-21 08:09:03</time>
      </trkpt>
      <trkpt lat="42.06786" lon="2.92388">
        <ele>31</ele>
        <time>2022-05-21 08:09:04</time>
      </trkpt>
      <trkpt lat="42.06787" lon="2.92397">
        <ele>31</ele>
        <time>2022-05-21 08:09:05</time>
      </trkpt>
      <trkpt lat="42.06788" lon="2.92407">
        <ele>31</ele>
        <time>2022-05-21 08:09:06</time>
      </trkpt>
      <trkpt lat="42.06789" lon="2.92417">
        <ele>30.8</ele>
        <time>2022-05-21 08:09:07</time>
      </trkpt>
      <trkpt lat="42.06791" lon="2.92427">
        <ele>30.6</ele>
        <time>2022-05-21 08:09:08</time>
      </trkpt>
      <trkpt lat="42.06792" lon="2.92437">
        <ele>30.4</ele>
        <time>2022-05-21 08:09:09</time>
      </trkpt>
      <trkpt lat="42.06793" lon="2.92447">
        <ele>30.2</ele>
        <time>2022-05-21 08:09:10</time>
      </trkpt>
      <trkpt lat="42.06795" lon="2.92458">
        <ele>30</ele>
        <time>2022-05-21 08:09:11</time>
      </trkpt>
      <trkpt lat="42.06796" lon="2.92469">
        <ele>29.8</ele>
        <time>2022-05-21 08:09:12</time>
      </trkpt>
      <trkpt lat="42.06798" lon="2.9248">
        <ele>29.6</ele>
        <time>2022-05-21 08:09:13</time>
      </trkpt>
      <trkpt lat="42.06799" lon="2.9249">
        <ele>29.4</ele>
        <time>2022-05-21 08:09:14</time>
      </trkpt>
      <trkpt lat="42.06801" lon="2.92501">
        <ele>29</ele>
        <time>2022-05-21 08:09:15</time>
      </trkpt>
      <trkpt lat="42.06802" lon="2.92512">
        <ele>28.8</ele>
        <time>2022-05-21 08:09:16</time>
      </trkpt>
      <trkpt lat="42.06803" lon="2.92523">
        <ele>28.8</ele>
        <time>2022-05-21 08:09:17</time>
      </trkpt>
      <trkpt lat="42.06805" lon="2.92533">
        <ele>28.8</ele>
        <time>2022-05-21 08:09:18</time>
      </trkpt>
      <trkpt lat="42.06806" lon="2.92544">
        <ele>28.8</ele>
        <time>2022-05-21 08:09:19</time>
      </trkpt>
      <trkpt lat="42.06807" lon="2.92555">
        <ele>28.8</ele>
        <time>2022-05-21 08:09:20</time>
      </trkpt>
      <trkpt lat="42.06809" lon="2.92566">
        <ele>28.6</ele>
        <time>2022-05-21 08:09:21</time>
      </trkpt>
      <trkpt lat="42.0681" lon="2.92576">
        <ele>28.6</ele>
        <time>2022-05-21 08:09:22</time>
      </trkpt>
      <trkpt lat="42.06812" lon="2.92587">
        <ele>28.6</ele>
        <time>2022-05-21 08:09:23</time>
      </trkpt>
      <trkpt lat="42.06813" lon="2.92598">
        <ele>28.6</ele>
        <time>2022-05-21 08:09:24</time>
      </trkpt>
      <trkpt lat="42.06815" lon="2.92609">
        <ele>28.6</ele>
        <time>2022-05-21 08:09:25</time>
      </trkpt>
      <trkpt lat="42.06816" lon="2.92619">
        <ele>28.6</ele>
        <time>2022-05-21 08:09:26</time>
      </trkpt>
      <trkpt lat="42.06817" lon="2.9263">
        <ele>28.6</ele>
        <time>2022-05-21 08:09:27</time>
      </trkpt>
      <trkpt lat="42.06819" lon="2.92641">
        <ele>28.6</ele>
        <time>2022-05-21 08:09:28</time>
      </trkpt>
      <trkpt lat="42.0682" lon="2.92652">
        <ele>28.4</ele>
        <time>2022-05-21 08:09:29</time>
      </trkpt>
      <trkpt lat="42.06822" lon="2.92663">
        <ele>28.4</ele>
        <time>2022-05-21 08:09:30</time>
      </trkpt>
      <trkpt lat="42.06823" lon="2.92673">
        <ele>28.4</ele>
        <time>2022-05-21 08:09:31</time>
      </trkpt>
      <trkpt lat="42.06825" lon="2.92684">
        <ele>28.4</ele>
        <time>2022-05-21 08:09:32</time>
      </trkpt>
      <trkpt lat="42.06826" lon="2.92695">
        <ele>28.4</ele>
        <time>2022-05-21 08:09:33</time>
      </trkpt>
      <trkpt lat="42.06827" lon="2.92706">
        <ele>28.4</ele>
        <time>2022-05-21 08:09:34</time>
      </trkpt>
      <trkpt lat="42.06829" lon="2.92717">
        <ele>28.4</ele>
        <time>2022-05-21 08:09:35</time>
      </trkpt>
      <trkpt lat="42.0683" lon="2.92726">
        <ele>28.4</ele>
        <time>2022-05-21 08:09:36</time>
      </trkpt>
      <trkpt lat="42.06831" lon="2.92737">
        <ele>28.4</ele>
        <time>2022-05-21 08:09:37</time>
      </trkpt>
      <trkpt lat="42.06833" lon="2.92747">
        <ele>28.4</ele>
        <time>2022-05-21 08:09:38</time>
      </trkpt>
      <trkpt lat="42.06834" lon="2.92758">
        <ele>28.4</ele>
        <time>2022-05-21 08:09:39</time>
      </trkpt>
      <trkpt lat="42.06835" lon="2.92768">
        <ele>28.4</ele>
        <time>2022-05-21 08:09:40</time>
      </trkpt>
      <trkpt lat="42.06837" lon="2.92779">
        <ele>28.4</ele>
        <time>2022-05-21 08:09:41</time>
      </trkpt>
      <trkpt lat="42.06838" lon="2.92789">
        <ele>28.6</ele>
        <time>2022-05-21 08:09:42</time>
      </trkpt>
      <trkpt lat="42.0684" lon="2.928">
        <ele>28.6</ele>
        <time>2022-05-21 08:09:43</time>
      </trkpt>
      <trkpt lat="42.06841" lon="2.92811">
        <ele>28.6</ele>
        <time>2022-05-21 08:09:44</time>
      </trkpt>
      <trkpt lat="42.06842" lon="2.92821">
        <ele>28.6</ele>
        <time>2022-05-21 08:09:45</time>
      </trkpt>
      <trkpt lat="42.06844" lon="2.9283">
        <ele>28.6</ele>
        <time>2022-05-21 08:09:46</time>
      </trkpt>
      <trkpt lat="42.06845" lon="2.9284">
        <ele>28.4</ele>
        <time>2022-05-21 08:09:47</time>
      </trkpt>
      <trkpt lat="42.06846" lon="2.92851">
        <ele>28.4</ele>
        <time>2022-05-21 08:09:48</time>
      </trkpt>
      <trkpt lat="42.06848" lon="2.92862">
        <ele>28.4</ele>
        <time>2022-05-21 08:09:49</time>
      </trkpt>
      <trkpt lat="42.06849" lon="2.92873">
        <ele>28.4</ele>
        <time>2022-05-21 08:09:50</time>
      </trkpt>
      <trkpt lat="42.0685" lon="2.92884">
        <ele>28.4</ele>
        <time>2022-05-21 08:09:51</time>
      </trkpt>
      <trkpt lat="42.06852" lon="2.92894">
        <ele>28.4</ele>
        <time>2022-05-21 08:09:52</time>
      </trkpt>
      <trkpt lat="42.06853" lon="2.92905">
        <ele>28.4</ele>
        <time>2022-05-21 08:09:53</time>
      </trkpt>
      <trkpt lat="42.06854" lon="2.92915">
        <ele>28.4</ele>
        <time>2022-05-21 08:09:54</time>
      </trkpt>
      <trkpt lat="42.06855" lon="2.92925">
        <ele>28.4</ele>
        <time>2022-05-21 08:09:55</time>
      </trkpt>
      <trkpt lat="42.06857" lon="2.92936">
        <ele>28.4</ele>
        <time>2022-05-21 08:09:56</time>
      </trkpt>
      <trkpt lat="42.06858" lon="2.92946">
        <ele>28.4</ele>
        <time>2022-05-21 08:09:57</time>
      </trkpt>
      <trkpt lat="42.06859" lon="2.92956">
        <ele>28.4</ele>
        <time>2022-05-21 08:09:58</time>
      </trkpt>
      <trkpt lat="42.06861" lon="2.92967">
        <ele>28.4</ele>
        <time>2022-05-21 08:09:59</time>
      </trkpt>
      <trkpt lat="42.06862" lon="2.92977">
        <ele>28.4</ele>
        <time>2022-05-21 08:10:00</time>
      </trkpt>
      <trkpt lat="42.06864" lon="2.92988">
        <ele>28.4</ele>
        <time>2022-05-21 08:10:01</time>
      </trkpt>
      <trkpt lat="42.06865" lon="2.92998">
        <ele>28.4</ele>
        <time>2022-05-21 08:10:02</time>
      </trkpt>
      <trkpt lat="42.06866" lon="2.93008">
        <ele>28.4</ele>
        <time>2022-05-21 08:10:03</time>
      </trkpt>
      <trkpt lat="42.06867" lon="2.93018">
        <ele>28.4</ele>
        <time>2022-05-21 08:10:04</time>
      </trkpt>
      <trkpt lat="42.06869" lon="2.93029">
        <ele>28.4</ele>
        <time>2022-05-21 08:10:05</time>
      </trkpt>
      <trkpt lat="42.0687" lon="2.93039">
        <ele>28.4</ele>
        <time>2022-05-21 08:10:06</time>
      </trkpt>
      <trkpt lat="42.06871" lon="2.93049">
        <ele>28.4</ele>
        <time>2022-05-21 08:10:07</time>
      </trkpt>
      <trkpt lat="42.06873" lon="2.93059">
        <ele>28.4</ele>
        <time>2022-05-21 08:10:08</time>
      </trkpt>
      <trkpt lat="42.06874" lon="2.9307">
        <ele>28.4</ele>
        <time>2022-05-21 08:10:09</time>
      </trkpt>
      <trkpt lat="42.06875" lon="2.93081">
        <ele>28.4</ele>
        <time>2022-05-21 08:10:10</time>
      </trkpt>
      <trkpt lat="42.06877" lon="2.93091">
        <ele>28.4</ele>
        <time>2022-05-21 08:10:11</time>
      </trkpt>
      <trkpt lat="42.06878" lon="2.93102">
        <ele>28.4</ele>
        <time>2022-05-21 08:10:12</time>
      </trkpt>
      <trkpt lat="42.0688" lon="2.93112">
        <ele>28.4</ele>
        <time>2022-05-21 08:10:13</time>
      </trkpt>
      <trkpt lat="42.06881" lon="2.93122">
        <ele>28.6</ele>
        <time>2022-05-21 08:10:14</time>
      </trkpt>
      <trkpt lat="42.06882" lon="2.93132">
        <ele>28.6</ele>
        <time>2022-05-21 08:10:15</time>
      </trkpt>
      <trkpt lat="42.06884" lon="2.93143">
        <ele>28.6</ele>
        <time>2022-05-21 08:10:16</time>
      </trkpt>
      <trkpt lat="42.06885" lon="2.93153">
        <ele>28.6</ele>
        <time>2022-05-21 08:10:17</time>
      </trkpt>
      <trkpt lat="42.06886" lon="2.93163">
        <ele>28.6</ele>
        <time>2022-05-21 08:10:18</time>
      </trkpt>
      <trkpt lat="42.06887" lon="2.93174">
        <ele>28.6</ele>
        <time>2022-05-21 08:10:19</time>
      </trkpt>
      <trkpt lat="42.06888" lon="2.93184">
        <ele>28.6</ele>
        <time>2022-05-21 08:10:20</time>
      </trkpt>
      <trkpt lat="42.0689" lon="2.93194">
        <ele>28.6</ele>
        <time>2022-05-21 08:10:21</time>
      </trkpt>
      <trkpt lat="42.06891" lon="2.93205">
        <ele>28.6</ele>
        <time>2022-05-21 08:10:22</time>
      </trkpt>
      <trkpt lat="42.06893" lon="2.93215">
        <ele>28.6</ele>
        <time>2022-05-21 08:10:23</time>
      </trkpt>
      <trkpt lat="42.06894" lon="2.93225">
        <ele>28.6</ele>
        <time>2022-05-21 08:10:24</time>
      </trkpt>
      <trkpt lat="42.06895" lon="2.93235">
        <ele>28.6</ele>
        <time>2022-05-21 08:10:25</time>
      </trkpt>
      <trkpt lat="42.06896" lon="2.93245">
        <ele>28.4</ele>
        <time>2022-05-21 08:10:26</time>
      </trkpt>
      <trkpt lat="42.06897" lon="2.93255">
        <ele>28.4</ele>
        <time>2022-05-21 08:10:27</time>
      </trkpt>
      <trkpt lat="42.06898" lon="2.93266">
        <ele>28.4</ele>
        <time>2022-05-21 08:10:28</time>
      </trkpt>
      <trkpt lat="42.06899" lon="2.93277">
        <ele>28.4</ele>
        <time>2022-05-21 08:10:29</time>
      </trkpt>
      <trkpt lat="42.069" lon="2.93287">
        <ele>28.4</ele>
        <time>2022-05-21 08:10:30</time>
      </trkpt>
      <trkpt lat="42.06901" lon="2.93298">
        <ele>28.4</ele>
        <time>2022-05-21 08:10:31</time>
      </trkpt>
      <trkpt lat="42.06902" lon="2.93307">
        <ele>28.4</ele>
        <time>2022-05-21 08:10:32</time>
      </trkpt>
      <trkpt lat="42.06903" lon="2.93318">
        <ele>28.4</ele>
        <time>2022-05-21 08:10:33</time>
      </trkpt>
      <trkpt lat="42.06904" lon="2.93329">
        <ele>28.2</ele>
        <time>2022-05-21 08:10:34</time>
      </trkpt>
      <trkpt lat="42.06905" lon="2.93339">
        <ele>28.2</ele>
        <time>2022-05-21 08:10:35</time>
      </trkpt>
      <trkpt lat="42.06906" lon="2.9335">
        <ele>28.2</ele>
        <time>2022-05-21 08:10:36</time>
      </trkpt>
      <trkpt lat="42.06908" lon="2.93359">
        <ele>28.2</ele>
        <time>2022-05-21 08:10:37</time>
      </trkpt>
      <trkpt lat="42.06909" lon="2.93369">
        <ele>28.2</ele>
        <time>2022-05-21 08:10:38</time>
      </trkpt>
      <trkpt lat="42.06911" lon="2.9338">
        <ele>28.2</ele>
        <time>2022-05-21 08:10:39</time>
      </trkpt>
      <trkpt lat="42.06912" lon="2.9339">
        <ele>28</ele>
        <time>2022-05-21 08:10:40</time>
      </trkpt>
      <trkpt lat="42.06913" lon="2.934">
        <ele>28</ele>
        <time>2022-05-21 08:10:41</time>
      </trkpt>
      <trkpt lat="42.06914" lon="2.9341">
        <ele>28</ele>
        <time>2022-05-21 08:10:42</time>
      </trkpt>
      <trkpt lat="42.06916" lon="2.9342">
        <ele>28.2</ele>
        <time>2022-05-21 08:10:43</time>
      </trkpt>
      <trkpt lat="42.06917" lon="2.9343">
        <ele>28.2</ele>
        <time>2022-05-21 08:10:44</time>
      </trkpt>
      <trkpt lat="42.06919" lon="2.9344">
        <ele>28.2</ele>
        <time>2022-05-21 08:10:45</time>
      </trkpt>
      <trkpt lat="42.06921" lon="2.9345">
        <ele>28.4</ele>
        <time>2022-05-21 08:10:46</time>
      </trkpt>
      <trkpt lat="42.06922" lon="2.9346">
        <ele>28.6</ele>
        <time>2022-05-21 08:10:47</time>
      </trkpt>
      <trkpt lat="42.06924" lon="2.9347">
        <ele>28.6</ele>
        <time>2022-05-21 08:10:48</time>
      </trkpt>
      <trkpt lat="42.06926" lon="2.93481">
        <ele>28.6</ele>
        <time>2022-05-21 08:10:49</time>
      </trkpt>
      <trkpt lat="42.06927" lon="2.93491">
        <ele>28.8</ele>
        <time>2022-05-21 08:10:50</time>
      </trkpt>
      <trkpt lat="42.06929" lon="2.93501">
        <ele>28.8</ele>
        <time>2022-05-21 08:10:51</time>
      </trkpt>
      <trkpt lat="42.06931" lon="2.93511">
        <ele>28.8</ele>
        <time>2022-05-21 08:10:52</time>
      </trkpt>
      <trkpt lat="42.06932" lon="2.93522">
        <ele>28.8</ele>
        <time>2022-05-21 08:10:53</time>
      </trkpt>
      <trkpt lat="42.06934" lon="2.93532">
        <ele>28.8</ele>
        <time>2022-05-21 08:10:54</time>
      </trkpt>
      <trkpt lat="42.06935" lon="2.93542">
        <ele>28.8</ele>
        <time>2022-05-21 08:10:55</time>
      </trkpt>
      <trkpt lat="42.06936" lon="2.93552">
        <ele>28.8</ele>
        <time>2022-05-21 08:10:56</time>
      </trkpt>
      <trkpt lat="42.06938" lon="2.93562">
        <ele>28.8</ele>
        <time>2022-05-21 08:10:57</time>
      </trkpt>
      <trkpt lat="42.06939" lon="2.93572">
        <ele>28.8</ele>
        <time>2022-05-21 08:10:58</time>
      </trkpt>
      <trkpt lat="42.0694" lon="2.93582">
        <ele>28.8</ele>
        <time>2022-05-21 08:10:59</time>
      </trkpt>
      <trkpt lat="42.06942" lon="2.93592">
        <ele>28.8</ele>
        <time>2022-05-21 08:11:00</time>
      </trkpt>
      <trkpt lat="42.06943" lon="2.93603">
        <ele>28.8</ele>
        <time>2022-05-21 08:11:01</time>
      </trkpt>
      <trkpt lat="42.06944" lon="2.93612">
        <ele>28.8</ele>
        <time>2022-05-21 08:11:02</time>
      </trkpt>
      <trkpt lat="42.06946" lon="2.93623">
        <ele>28.8</ele>
        <time>2022-05-21 08:11:03</time>
      </trkpt>
      <trkpt lat="42.06947" lon="2.93633">
        <ele>28.8</ele>
        <time>2022-05-21 08:11:04</time>
      </trkpt>
      <trkpt lat="42.06948" lon="2.93643">
        <ele>28.8</ele>
        <time>2022-05-21 08:11:05</time>
      </trkpt>
      <trkpt lat="42.0695" lon="2.93653">
        <ele>28.8</ele>
        <time>2022-05-21 08:11:06</time>
      </trkpt>
      <trkpt lat="42.06951" lon="2.93663">
        <ele>28.8</ele>
        <time>2022-05-21 08:11:07</time>
      </trkpt>
      <trkpt lat="42.06952" lon="2.93673">
        <ele>28.8</ele>
        <time>2022-05-21 08:11:08</time>
      </trkpt>
      <trkpt lat="42.06954" lon="2.93683">
        <ele>28.8</ele>
        <time>2022-05-21 08:11:09</time>
      </trkpt>
      <trkpt lat="42.06955" lon="2.93693">
        <ele>28.8</ele>
        <time>2022-05-21 08:11:10</time>
      </trkpt>
      <trkpt lat="42.06956" lon="2.93703">
        <ele>28.8</ele>
        <time>2022-05-21 08:11:11</time>
      </trkpt>
      <trkpt lat="42.06958" lon="2.93712">
        <ele>28.8</ele>
        <time>2022-05-21 08:11:12</time>
      </trkpt>
      <trkpt lat="42.06959" lon="2.93723">
        <ele>28.8</ele>
        <time>2022-05-21 08:11:13</time>
      </trkpt>
      <trkpt lat="42.0696" lon="2.93732">
        <ele>28.8</ele>
        <time>2022-05-21 08:11:14</time>
      </trkpt>
      <trkpt lat="42.06961" lon="2.93743">
        <ele>28.8</ele>
        <time>2022-05-21 08:11:15</time>
      </trkpt>
      <trkpt lat="42.06962" lon="2.93752">
        <ele>28.8</ele>
        <time>2022-05-21 08:11:16</time>
      </trkpt>
      <trkpt lat="42.06963" lon="2.93762">
        <ele>29</ele>
        <time>2022-05-21 08:11:17</time>
      </trkpt>
      <trkpt lat="42.06964" lon="2.93773">
        <ele>29</ele>
        <time>2022-05-21 08:11:18</time>
      </trkpt>
      <trkpt lat="42.06966" lon="2.93782">
        <ele>29</ele>
        <time>2022-05-21 08:11:19</time>
      </trkpt>
      <trkpt lat="42.06967" lon="2.93792">
        <ele>29</ele>
        <time>2022-05-21 08:11:20</time>
      </trkpt>
      <trkpt lat="42.06968" lon="2.93802">
        <ele>29</ele>
        <time>2022-05-21 08:11:21</time>
      </trkpt>
      <trkpt lat="42.06969" lon="2.93811">
        <ele>29</ele>
        <time>2022-05-21 08:11:22</time>
      </trkpt>
      <trkpt lat="42.0697" lon="2.93821">
        <ele>29</ele>
        <time>2022-05-21 08:11:23</time>
      </trkpt>
      <trkpt lat="42.06971" lon="2.93831">
        <ele>29</ele>
        <time>2022-05-21 08:11:24</time>
      </trkpt>
      <trkpt lat="42.06972" lon="2.93841">
        <ele>29</ele>
        <time>2022-05-21 08:11:25</time>
      </trkpt>
      <trkpt lat="42.06973" lon="2.93851">
        <ele>29</ele>
        <time>2022-05-21 08:11:26</time>
      </trkpt>
      <trkpt lat="42.06975" lon="2.93861">
        <ele>29</ele>
        <time>2022-05-21 08:11:27</time>
      </trkpt>
      <trkpt lat="42.06976" lon="2.93871">
        <ele>29</ele>
        <time>2022-05-21 08:11:28</time>
      </trkpt>
      <trkpt lat="42.06977" lon="2.93881">
        <ele>29</ele>
        <time>2022-05-21 08:11:29</time>
      </trkpt>
      <trkpt lat="42.06979" lon="2.93892">
        <ele>29</ele>
        <time>2022-05-21 08:11:30</time>
      </trkpt>
      <trkpt lat="42.0698" lon="2.93902">
        <ele>29</ele>
        <time>2022-05-21 08:11:31</time>
      </trkpt>
      <trkpt lat="42.06981" lon="2.93911">
        <ele>29</ele>
        <time>2022-05-21 08:11:32</time>
      </trkpt>
      <trkpt lat="42.06983" lon="2.93921">
        <ele>29</ele>
        <time>2022-05-21 08:11:33</time>
      </trkpt>
      <trkpt lat="42.06984" lon="2.93931">
        <ele>29</ele>
        <time>2022-05-21 08:11:34</time>
      </trkpt>
      <trkpt lat="42.06986" lon="2.93941">
        <ele>29</ele>
        <time>2022-05-21 08:11:35</time>
      </trkpt>
      <trkpt lat="42.06987" lon="2.93952">
        <ele>29</ele>
        <time>2022-05-21 08:11:36</time>
      </trkpt>
      <trkpt lat="42.06988" lon="2.93961">
        <ele>29</ele>
        <time>2022-05-21 08:11:37</time>
      </trkpt>
      <trkpt lat="42.0699" lon="2.93971">
        <ele>29</ele>
        <time>2022-05-21 08:11:38</time>
      </trkpt>
      <trkpt lat="42.06991" lon="2.93982">
        <ele>29</ele>
        <time>2022-05-21 08:11:39</time>
      </trkpt>
      <trkpt lat="42.06992" lon="2.93992">
        <ele>29</ele>
        <time>2022-05-21 08:11:40</time>
      </trkpt>
      <trkpt lat="42.06993" lon="2.94002">
        <ele>29</ele>
        <time>2022-05-21 08:11:41</time>
      </trkpt>
      <trkpt lat="42.06995" lon="2.94012">
        <ele>29</ele>
        <time>2022-05-21 08:11:42</time>
      </trkpt>
      <trkpt lat="42.06996" lon="2.94022">
        <ele>28.8</ele>
        <time>2022-05-21 08:11:43</time>
      </trkpt>
      <trkpt lat="42.06998" lon="2.94032">
        <ele>29</ele>
        <time>2022-05-21 08:11:44</time>
      </trkpt>
      <trkpt lat="42.06999" lon="2.94042">
        <ele>29</ele>
        <time>2022-05-21 08:11:45</time>
      </trkpt>
      <trkpt lat="42.07" lon="2.94053">
        <ele>29</ele>
        <time>2022-05-21 08:11:46</time>
      </trkpt>
      <trkpt lat="42.07001" lon="2.94062">
        <ele>29</ele>
        <time>2022-05-21 08:11:47</time>
      </trkpt>
      <trkpt lat="42.07003" lon="2.94073">
        <ele>29</ele>
        <time>2022-05-21 08:11:48</time>
      </trkpt>
      <trkpt lat="42.07004" lon="2.94083">
        <ele>29</ele>
        <time>2022-05-21 08:11:49</time>
      </trkpt>
      <trkpt lat="42.07005" lon="2.94093">
        <ele>29</ele>
        <time>2022-05-21 08:11:50</time>
      </trkpt>
      <trkpt lat="42.07006" lon="2.94103">
        <ele>29</ele>
        <time>2022-05-21 08:11:51</time>
      </trkpt>
      <trkpt lat="42.07008" lon="2.94113">
        <ele>29</ele>
        <time>2022-05-21 08:11:52</time>
      </trkpt>
      <trkpt lat="42.07009" lon="2.94123">
        <ele>29</ele>
        <time>2022-05-21 08:11:53</time>
      </trkpt>
      <trkpt lat="42.0701" lon="2.94133">
        <ele>29</ele>
        <time>2022-05-21 08:11:54</time>
      </trkpt>
      <trkpt lat="42.07012" lon="2.94143">
        <ele>29</ele>
        <time>2022-05-21 08:11:55</time>
      </trkpt>
      <trkpt lat="42.07013" lon="2.94153">
        <ele>29</ele>
        <time>2022-05-21 08:11:56</time>
      </trkpt>
      <trkpt lat="42.07014" lon="2.94163">
        <ele>29</ele>
        <time>2022-05-21 08:11:57</time>
      </trkpt>
      <trkpt lat="42.07016" lon="2.94173">
        <ele>29</ele>
        <time>2022-05-21 08:11:58</time>
      </trkpt>
      <trkpt lat="42.07017" lon="2.94183">
        <ele>29</ele>
        <time>2022-05-21 08:11:59</time>
      </trkpt>
      <trkpt lat="42.07018" lon="2.94193">
        <ele>29</ele>
        <time>2022-05-21 08:12:00</time>
      </trkpt>
      <trkpt lat="42.07019" lon="2.94203">
        <ele>29</ele>
        <time>2022-05-21 08:12:01</time>
      </trkpt>
      <trkpt lat="42.0702" lon="2.94213">
        <ele>29</ele>
        <time>2022-05-21 08:12:02</time>
      </trkpt>
      <trkpt lat="42.07021" lon="2.94223">
        <ele>29</ele>
        <time>2022-05-21 08:12:03</time>
      </trkpt>
      <trkpt lat="42.07022" lon="2.94233">
        <ele>29</ele>
        <time>2022-05-21 08:12:04</time>
      </trkpt>
      <trkpt lat="42.07024" lon="2.94243">
        <ele>29</ele>
        <time>2022-05-21 08:12:05</time>
      </trkpt>
      <trkpt lat="42.07025" lon="2.94254">
        <ele>29</ele>
        <time>2022-05-21 08:12:06</time>
      </trkpt>
      <trkpt lat="42.07026" lon="2.94264">
        <ele>29</ele>
        <time>2022-05-21 08:12:07</time>
      </trkpt>
      <trkpt lat="42.07027" lon="2.94274">
        <ele>29</ele>
        <time>2022-05-21 08:12:08</time>
      </trkpt>
      <trkpt lat="42.07028" lon="2.94284">
        <ele>29</ele>
        <time>2022-05-21 08:12:09</time>
      </trkpt>
      <trkpt lat="42.07029" lon="2.94294">
        <ele>29</ele>
        <time>2022-05-21 08:12:10</time>
      </trkpt>
      <trkpt lat="42.0703" lon="2.94304">
        <ele>29</ele>
        <time>2022-05-21 08:12:11</time>
      </trkpt>
      <trkpt lat="42.07032" lon="2.94314">
        <ele>29</ele>
        <time>2022-05-21 08:12:12</time>
      </trkpt>
      <trkpt lat="42.07033" lon="2.94324">
        <ele>29</ele>
        <time>2022-05-21 08:12:13</time>
      </trkpt>
      <trkpt lat="42.07034" lon="2.94334">
        <ele>29</ele>
        <time>2022-05-21 08:12:14</time>
      </trkpt>
      <trkpt lat="42.07036" lon="2.94344">
        <ele>29.2</ele>
        <time>2022-05-21 08:12:15</time>
      </trkpt>
      <trkpt lat="42.07037" lon="2.94354">
        <ele>29.2</ele>
        <time>2022-05-21 08:12:16</time>
      </trkpt>
      <trkpt lat="42.07038" lon="2.94364">
        <ele>29.2</ele>
        <time>2022-05-21 08:12:17</time>
      </trkpt>
      <trkpt lat="42.07039" lon="2.94375">
        <ele>29.2</ele>
        <time>2022-05-21 08:12:18</time>
      </trkpt>
      <trkpt lat="42.07041" lon="2.94385">
        <ele>29</ele>
        <time>2022-05-21 08:12:19</time>
      </trkpt>
      <trkpt lat="42.07042" lon="2.94395">
        <ele>29</ele>
        <time>2022-05-21 08:12:20</time>
      </trkpt>
      <trkpt lat="42.07043" lon="2.94406">
        <ele>29</ele>
        <time>2022-05-21 08:12:21</time>
      </trkpt>
      <trkpt lat="42.07045" lon="2.94416">
        <ele>29</ele>
        <time>2022-05-21 08:12:22</time>
      </trkpt>
      <trkpt lat="42.07046" lon="2.94426">
        <ele>29</ele>
        <time>2022-05-21 08:12:23</time>
      </trkpt>
      <trkpt lat="42.07047" lon="2.94436">
        <ele>29</ele>
        <time>2022-05-21 08:12:24</time>
      </trkpt>
      <trkpt lat="42.07048" lon="2.94446">
        <ele>29</ele>
        <time>2022-05-21 08:12:25</time>
      </trkpt>
      <trkpt lat="42.0705" lon="2.94457">
        <ele>29.2</ele>
        <time>2022-05-21 08:12:26</time>
      </trkpt>
      <trkpt lat="42.07051" lon="2.94467">
        <ele>29.2</ele>
        <time>2022-05-21 08:12:27</time>
      </trkpt>
      <trkpt lat="42.07052" lon="2.94477">
        <ele>29.2</ele>
        <time>2022-05-21 08:12:28</time>
      </trkpt>
      <trkpt lat="42.07054" lon="2.94487">
        <ele>29.2</ele>
        <time>2022-05-21 08:12:29</time>
      </trkpt>
      <trkpt lat="42.07055" lon="2.94497">
        <ele>29.2</ele>
        <time>2022-05-21 08:12:30</time>
      </trkpt>
      <trkpt lat="42.07057" lon="2.94507">
        <ele>29.2</ele>
        <time>2022-05-21 08:12:31</time>
      </trkpt>
      <trkpt lat="42.07058" lon="2.94518">
        <ele>29.2</ele>
        <time>2022-05-21 08:12:32</time>
      </trkpt>
      <trkpt lat="42.07059" lon="2.94528">
        <ele>29.2</ele>
        <time>2022-05-21 08:12:33</time>
      </trkpt>
      <trkpt lat="42.0706" lon="2.94538">
        <ele>29.2</ele>
        <time>2022-05-21 08:12:34</time>
      </trkpt>
      <trkpt lat="42.07062" lon="2.94548">
        <ele>29.2</ele>
        <time>2022-05-21 08:12:35</time>
      </trkpt>
      <trkpt lat="42.07063" lon="2.94558">
        <ele>29.2</ele>
        <time>2022-05-21 08:12:36</time>
      </trkpt>
      <trkpt lat="42.07064" lon="2.94568">
        <ele>29.2</ele>
        <time>2022-05-21 08:12:37</time>
      </trkpt>
      <trkpt lat="42.07066" lon="2.94578">
        <ele>29.2</ele>
        <time>2022-05-21 08:12:38</time>
      </trkpt>
      <trkpt lat="42.07067" lon="2.94588">
        <ele>29.2</ele>
        <time>2022-05-21 08:12:39</time>
      </trkpt>
      <trkpt lat="42.07068" lon="2.94598">
        <ele>29.2</ele>
        <time>2022-05-21 08:12:40</time>
      </trkpt>
      <trkpt lat="42.0707" lon="2.94608">
        <ele>29.2</ele>
        <time>2022-05-21 08:12:41</time>
      </trkpt>
      <trkpt lat="42.07071" lon="2.94618">
        <ele>29.2</ele>
        <time>2022-05-21 08:12:42</time>
      </trkpt>
      <trkpt lat="42.07072" lon="2.94628">
        <ele>29.2</ele>
        <time>2022-05-21 08:12:43</time>
      </trkpt>
      <trkpt lat="42.07074" lon="2.94638">
        <ele>29.2</ele>
        <time>2022-05-21 08:12:44</time>
      </trkpt>
      <trkpt lat="42.07075" lon="2.94648">
        <ele>29.2</ele>
        <time>2022-05-21 08:12:45</time>
      </trkpt>
      <trkpt lat="42.07076" lon="2.94658">
        <ele>29.2</ele>
        <time>2022-05-21 08:12:46</time>
      </trkpt>
      <trkpt lat="42.07077" lon="2.94668">
        <ele>29.2</ele>
        <time>2022-05-21 08:12:47</time>
      </trkpt>
      <trkpt lat="42.07078" lon="2.94678">
        <ele>29.2</ele>
        <time>2022-05-21 08:12:48</time>
      </trkpt>
      <trkpt lat="42.0708" lon="2.94687">
        <ele>29.2</ele>
        <time>2022-05-21 08:12:49</time>
      </trkpt>
      <trkpt lat="42.07081" lon="2.94697">
        <ele>29.2</ele>
        <time>2022-05-21 08:12:50</time>
      </trkpt>
      <trkpt lat="42.07082" lon="2.94707">
        <ele>29.2</ele>
        <time>2022-05-21 08:12:51</time>
      </trkpt>
      <trkpt lat="42.07082" lon="2.94717">
        <ele>29.2</ele>
        <time>2022-05-21 08:12:52</time>
      </trkpt>
      <trkpt lat="42.07083" lon="2.94726">
        <ele>29.2</ele>
        <time>2022-05-21 08:12:53</time>
      </trkpt>
      <trkpt lat="42.07082" lon="2.94735">
        <ele>29.4</ele>
        <time>2022-05-21 08:12:54</time>
      </trkpt>
      <trkpt lat="42.0708" lon="2.94744">
        <ele>29.4</ele>
        <time>2022-05-21 08:12:55</time>
      </trkpt>
      <trkpt lat="42.07077" lon="2.94752">
        <ele>29.6</ele>
        <time>2022-05-21 08:12:56</time>
      </trkpt>
      <trkpt lat="42.07074" lon="2.9476">
        <ele>29.6</ele>
        <time>2022-05-21 08:12:57</time>
      </trkpt>
      <trkpt lat="42.07073" lon="2.94768">
        <ele>29.6</ele>
        <time>2022-05-21 08:12:58</time>
      </trkpt>
      <trkpt lat="42.07075" lon="2.94776">
        <ele>29.8</ele>
        <time>2022-05-21 08:12:59</time>
      </trkpt>
      <trkpt lat="42.07078" lon="2.94781">
        <ele>29.8</ele>
        <time>2022-05-21 08:13:00</time>
      </trkpt>
      <trkpt lat="42.07083" lon="2.94785">
        <ele>30</ele>
        <time>2022-05-21 08:13:01</time>
      </trkpt>
      <trkpt lat="42.07089" lon="2.94788">
        <ele>30.2</ele>
        <time>2022-05-21 08:13:02</time>
      </trkpt>
      <trkpt lat="42.07094" lon="2.94787">
        <ele>30.4</ele>
        <time>2022-05-21 08:13:03</time>
      </trkpt>
      <trkpt lat="42.071" lon="2.94785">
        <ele>30.6</ele>
        <time>2022-05-21 08:13:04</time>
      </trkpt>
      <trkpt lat="42.07105" lon="2.94783">
        <ele>30.6</ele>
        <time>2022-05-21 08:13:05</time>
      </trkpt>
      <trkpt lat="42.07111" lon="2.94782">
        <ele>30.6</ele>
        <time>2022-05-21 08:13:06</time>
      </trkpt>
      <trkpt lat="42.07118" lon="2.94783">
        <ele>30.6</ele>
        <time>2022-05-21 08:13:07</time>
      </trkpt>
      <trkpt lat="42.07124" lon="2.94785">
        <ele>30.6</ele>
        <time>2022-05-21 08:13:08</time>
      </trkpt>
      <trkpt lat="42.0713" lon="2.94787">
        <ele>30.6</ele>
        <time>2022-05-21 08:13:09</time>
      </trkpt>
      <trkpt lat="42.07137" lon="2.94789">
        <ele>30.6</ele>
        <time>2022-05-21 08:13:10</time>
      </trkpt>
      <trkpt lat="42.07143" lon="2.94791">
        <ele>30.6</ele>
        <time>2022-05-21 08:13:11</time>
      </trkpt>
      <trkpt lat="42.07149" lon="2.94794">
        <ele>30.6</ele>
        <time>2022-05-21 08:13:12</time>
      </trkpt>
      <trkpt lat="42.07155" lon="2.94796">
        <ele>30.6</ele>
        <time>2022-05-21 08:13:13</time>
      </trkpt>
      <trkpt lat="42.07161" lon="2.94799">
        <ele>30.6</ele>
        <time>2022-05-21 08:13:14</time>
      </trkpt>
      <trkpt lat="42.07167" lon="2.94801">
        <ele>30.8</ele>
        <time>2022-05-21 08:13:15</time>
      </trkpt>
      <trkpt lat="42.07173" lon="2.94804">
        <ele>31</ele>
        <time>2022-05-21 08:13:16</time>
      </trkpt>
      <trkpt lat="42.07178" lon="2.94806">
        <ele>31.2</ele>
        <time>2022-05-21 08:13:17</time>
      </trkpt>
      <trkpt lat="42.07183" lon="2.94808">
        <ele>31.2</ele>
        <time>2022-05-21 08:13:18</time>
      </trkpt>
      <trkpt lat="42.07188" lon="2.9481">
        <ele>31.6</ele>
        <time>2022-05-21 08:13:19</time>
      </trkpt>
      <trkpt lat="42.07193" lon="2.94813">
        <ele>31.8</ele>
        <time>2022-05-21 08:13:20</time>
      </trkpt>
      <trkpt lat="42.07198" lon="2.94815">
        <ele>32</ele>
        <time>2022-05-21 08:13:21</time>
      </trkpt>
      <trkpt lat="42.07202" lon="2.94818">
        <ele>32.4</ele>
        <time>2022-05-21 08:13:22</time>
      </trkpt>
      <trkpt lat="42.07207" lon="2.94821">
        <ele>32.6</ele>
        <time>2022-05-21 08:13:23</time>
      </trkpt>
      <trkpt lat="42.07211" lon="2.94823">
        <ele>33</ele>
        <time>2022-05-21 08:13:24</time>
      </trkpt>
      <trkpt lat="42.07216" lon="2.94826">
        <ele>33.2</ele>
        <time>2022-05-21 08:13:25</time>
      </trkpt>
      <trkpt lat="42.0722" lon="2.94829">
        <ele>33.6</ele>
        <time>2022-05-21 08:13:26</time>
      </trkpt>
      <trkpt lat="42.07224" lon="2.94832">
        <ele>33.8</ele>
        <time>2022-05-21 08:13:27</time>
      </trkpt>
      <trkpt lat="42.07227" lon="2.94836">
        <ele>34.2</ele>
        <time>2022-05-21 08:13:28</time>
      </trkpt>
      <trkpt lat="42.07231" lon="2.9484">
        <ele>34.4</ele>
        <time>2022-05-21 08:13:29</time>
      </trkpt>
      <trkpt lat="42.07234" lon="2.94843">
        <ele>34.8</ele>
        <time>2022-05-21 08:13:30</time>
      </trkpt>
      <trkpt lat="42.07238" lon="2.94847">
        <ele>35</ele>
        <time>2022-05-21 08:13:31</time>
      </trkpt>
      <trkpt lat="42.07241" lon="2.94851">
        <ele>35.4</ele>
        <time>2022-05-21 08:13:32</time>
      </trkpt>
      <trkpt lat="42.07244" lon="2.94855">
        <ele>35.6</ele>
        <time>2022-05-21 08:13:33</time>
      </trkpt>
      <trkpt lat="42.07248" lon="2.94859">
        <ele>36</ele>
        <time>2022-05-21 08:13:34</time>
      </trkpt>
      <trkpt lat="42.0725" lon="2.94862">
        <ele>36.2</ele>
        <time>2022-05-21 08:13:35</time>
      </trkpt>
      <trkpt lat="42.07253" lon="2.94866">
        <ele>36.4</ele>
        <time>2022-05-21 08:13:36</time>
      </trkpt>
      <trkpt lat="42.07257" lon="2.9487">
        <ele>36.8</ele>
        <time>2022-05-21 08:13:37</time>
      </trkpt>
      <trkpt lat="42.0726" lon="2.94874">
        <ele>37</ele>
        <time>2022-05-21 08:13:38</time>
      </trkpt>
      <trkpt lat="42.07262" lon="2.94878">
        <ele>37.2</ele>
        <time>2022-05-21 08:13:39</time>
      </trkpt>
      <trkpt lat="42.07265" lon="2.94882">
        <ele>37.4</ele>
        <time>2022-05-21 08:13:40</time>
      </trkpt>
      <trkpt lat="42.07268" lon="2.94886">
        <ele>37.8</ele>
        <time>2022-05-21 08:13:41</time>
      </trkpt>
      <trkpt lat="42.07271" lon="2.9489">
        <ele>38</ele>
        <time>2022-05-21 08:13:42</time>
      </trkpt>
      <trkpt lat="42.07274" lon="2.94895">
        <ele>38.2</ele>
        <time>2022-05-21 08:13:43</time>
      </trkpt>
      <trkpt lat="42.07277" lon="2.94899">
        <ele>38.4</ele>
        <time>2022-05-21 08:13:44</time>
      </trkpt>
      <trkpt lat="42.07279" lon="2.94903">
        <ele>38.6</ele>
        <time>2022-05-21 08:13:45</time>
      </trkpt>
      <trkpt lat="42.07282" lon="2.94907">
        <ele>38.8</ele>
        <time>2022-05-21 08:13:46</time>
      </trkpt>
      <trkpt lat="42.07284" lon="2.94912">
        <ele>39.2</ele>
        <time>2022-05-21 08:13:47</time>
      </trkpt>
      <trkpt lat="42.07287" lon="2.94916">
        <ele>39.4</ele>
        <time>2022-05-21 08:13:48</time>
      </trkpt>
      <trkpt lat="42.07289" lon="2.94921">
        <ele>39.6</ele>
        <time>2022-05-21 08:13:49</time>
      </trkpt>
      <trkpt lat="42.07291" lon="2.94925">
        <ele>39.8</ele>
        <time>2022-05-21 08:13:50</time>
      </trkpt>
      <trkpt lat="42.07293" lon="2.9493">
        <ele>39.8</ele>
        <time>2022-05-21 08:13:51</time>
      </trkpt>
      <trkpt lat="42.07296" lon="2.94935">
        <ele>40</ele>
        <time>2022-05-21 08:13:52</time>
      </trkpt>
      <trkpt lat="42.07298" lon="2.94941">
        <ele>40.4</ele>
        <time>2022-05-21 08:13:53</time>
      </trkpt>
      <trkpt lat="42.073" lon="2.94946">
        <ele>40.6</ele>
        <time>2022-05-21 08:13:54</time>
      </trkpt>
      <trkpt lat="42.07302" lon="2.94951">
        <ele>40.8</ele>
        <time>2022-05-21 08:13:55</time>
      </trkpt>
      <trkpt lat="42.07304" lon="2.94956">
        <ele>41</ele>
        <time>2022-05-21 08:13:56</time>
      </trkpt>
      <trkpt lat="42.07305" lon="2.94961">
        <ele>41</ele>
        <time>2022-05-21 08:13:57</time>
      </trkpt>
      <trkpt lat="42.07307" lon="2.94966">
        <ele>41.2</ele>
        <time>2022-05-21 08:13:58</time>
      </trkpt>
      <trkpt lat="42.07309" lon="2.94971">
        <ele>41.4</ele>
        <time>2022-05-21 08:13:59</time>
      </trkpt>
      <trkpt lat="42.07311" lon="2.94976">
        <ele>41.6</ele>
        <time>2022-05-21 08:14:00</time>
      </trkpt>
      <trkpt lat="42.07313" lon="2.94982">
        <ele>41.8</ele>
        <time>2022-05-21 08:14:01</time>
      </trkpt>
      <trkpt lat="42.07315" lon="2.94987">
        <ele>42</ele>
        <time>2022-05-21 08:14:02</time>
      </trkpt>
      <trkpt lat="42.07317" lon="2.94992">
        <ele>42.2</ele>
        <time>2022-05-21 08:14:03</time>
      </trkpt>
      <trkpt lat="42.07318" lon="2.94998">
        <ele>42.4</ele>
        <time>2022-05-21 08:14:04</time>
      </trkpt>
      <trkpt lat="42.07319" lon="2.95003">
        <ele>42.4</ele>
        <time>2022-05-21 08:14:05</time>
      </trkpt>
      <trkpt lat="42.07321" lon="2.95009">
        <ele>42.6</ele>
        <time>2022-05-21 08:14:06</time>
      </trkpt>
      <trkpt lat="42.07323" lon="2.95014">
        <ele>42.8</ele>
        <time>2022-05-21 08:14:07</time>
      </trkpt>
      <trkpt lat="42.07324" lon="2.9502">
        <ele>42.8</ele>
        <time>2022-05-21 08:14:08</time>
      </trkpt>
      <trkpt lat="42.07326" lon="2.95026">
        <ele>43</ele>
        <time>2022-05-21 08:14:09</time>
      </trkpt>
      <trkpt lat="42.07327" lon="2.95032">
        <ele>43.2</ele>
        <time>2022-05-21 08:14:10</time>
      </trkpt>
      <trkpt lat="42.07329" lon="2.95037">
        <ele>43.2</ele>
        <time>2022-05-21 08:14:11</time>
      </trkpt>
      <trkpt lat="42.07331" lon="2.95043">
        <ele>43.4</ele>
        <time>2022-05-21 08:14:12</time>
      </trkpt>
      <trkpt lat="42.07332" lon="2.95049">
        <ele>43.6</ele>
        <time>2022-05-21 08:14:13</time>
      </trkpt>
      <trkpt lat="42.07333" lon="2.95055">
        <ele>43.6</ele>
        <time>2022-05-21 08:14:14</time>
      </trkpt>
      <trkpt lat="42.07335" lon="2.95061">
        <ele>43.8</ele>
        <time>2022-05-21 08:14:15</time>
      </trkpt>
      <trkpt lat="42.07336" lon="2.95066">
        <ele>43.8</ele>
        <time>2022-05-21 08:14:16</time>
      </trkpt>
      <trkpt lat="42.07337" lon="2.95072">
        <ele>44</ele>
        <time>2022-05-21 08:14:17</time>
      </trkpt>
      <trkpt lat="42.07339" lon="2.95078">
        <ele>44</ele>
        <time>2022-05-21 08:14:18</time>
      </trkpt>
      <trkpt lat="42.0734" lon="2.95084">
        <ele>44</ele>
        <time>2022-05-21 08:14:19</time>
      </trkpt>
      <trkpt lat="42.07342" lon="2.9509">
        <ele>44.2</ele>
        <time>2022-05-21 08:14:20</time>
      </trkpt>
      <trkpt lat="42.07343" lon="2.95096">
        <ele>44.2</ele>
        <time>2022-05-21 08:14:21</time>
      </trkpt>
      <trkpt lat="42.07345" lon="2.95102">
        <ele>44.2</ele>
        <time>2022-05-21 08:14:22</time>
      </trkpt>
      <trkpt lat="42.07346" lon="2.95109">
        <ele>44.2</ele>
        <time>2022-05-21 08:14:23</time>
      </trkpt>
      <trkpt lat="42.07348" lon="2.95115">
        <ele>44.4</ele>
        <time>2022-05-21 08:14:24</time>
      </trkpt>
      <trkpt lat="42.07349" lon="2.9512">
        <ele>44.4</ele>
        <time>2022-05-21 08:14:25</time>
      </trkpt>
      <trkpt lat="42.07351" lon="2.95127">
        <ele>44.4</ele>
        <time>2022-05-21 08:14:26</time>
      </trkpt>
      <trkpt lat="42.07352" lon="2.95133">
        <ele>44.4</ele>
        <time>2022-05-21 08:14:27</time>
      </trkpt>
      <trkpt lat="42.07354" lon="2.95139">
        <ele>44.4</ele>
        <time>2022-05-21 08:14:28</time>
      </trkpt>
      <trkpt lat="42.07356" lon="2.95145">
        <ele>44.6</ele>
        <time>2022-05-21 08:14:29</time>
      </trkpt>
      <trkpt lat="42.07357" lon="2.95151">
        <ele>44.6</ele>
        <time>2022-05-21 08:14:30</time>
      </trkpt>
      <trkpt lat="42.07359" lon="2.95157">
        <ele>44.6</ele>
        <time>2022-05-21 08:14:31</time>
      </trkpt>
      <trkpt lat="42.0736" lon="2.95163">
        <ele>44.6</ele>
        <time>2022-05-21 08:14:32</time>
      </trkpt>
      <trkpt lat="42.07362" lon="2.95169">
        <ele>44.6</ele>
        <time>2022-05-21 08:14:33</time>
      </trkpt>
      <trkpt lat="42.07364" lon="2.95177">
        <ele>44.6</ele>
        <time>2022-05-21 08:14:34</time>
      </trkpt>
      <trkpt lat="42.07365" lon="2.95183">
        <ele>44.4</ele>
        <time>2022-05-21 08:14:35</time>
      </trkpt>
      <trkpt lat="42.07367" lon="2.9519">
        <ele>44.4</ele>
        <time>2022-05-21 08:14:36</time>
      </trkpt>
      <trkpt lat="42.07369" lon="2.95198">
        <ele>44.4</ele>
        <time>2022-05-21 08:14:37</time>
      </trkpt>
      <trkpt lat="42.07371" lon="2.95206">
        <ele>44.4</ele>
        <time>2022-05-21 08:14:38</time>
      </trkpt>
      <trkpt lat="42.07373" lon="2.95213">
        <ele>44.2</ele>
        <time>2022-05-21 08:14:39</time>
      </trkpt>
      <trkpt lat="42.07375" lon="2.95221">
        <ele>44.2</ele>
        <time>2022-05-21 08:14:40</time>
      </trkpt>
      <trkpt lat="42.07377" lon="2.95229">
        <ele>44.2</ele>
        <time>2022-05-21 08:14:41</time>
      </trkpt>
      <trkpt lat="42.07379" lon="2.95237">
        <ele>44.2</ele>
        <time>2022-05-21 08:14:42</time>
      </trkpt>
      <trkpt lat="42.07381" lon="2.95245">
        <ele>44</ele>
        <time>2022-05-21 08:14:43</time>
      </trkpt>
      <trkpt lat="42.07383" lon="2.95253">
        <ele>44</ele>
        <time>2022-05-21 08:14:44</time>
      </trkpt>
      <trkpt lat="42.07385" lon="2.95261">
        <ele>43.8</ele>
        <time>2022-05-21 08:14:45</time>
      </trkpt>
      <trkpt lat="42.07387" lon="2.9527">
        <ele>43.8</ele>
        <time>2022-05-21 08:14:46</time>
      </trkpt>
      <trkpt lat="42.07389" lon="2.95278">
        <ele>43.6</ele>
        <time>2022-05-21 08:14:47</time>
      </trkpt>
      <trkpt lat="42.07392" lon="2.95287">
        <ele>43.4</ele>
        <time>2022-05-21 08:14:48</time>
      </trkpt>
      <trkpt lat="42.07394" lon="2.95295">
        <ele>43.2</ele>
        <time>2022-05-21 08:14:49</time>
      </trkpt>
      <trkpt lat="42.07397" lon="2.95304">
        <ele>43</ele>
        <time>2022-05-21 08:14:50</time>
      </trkpt>
      <trkpt lat="42.074" lon="2.95314">
        <ele>42.8</ele>
        <time>2022-05-21 08:14:51</time>
      </trkpt>
      <trkpt lat="42.07403" lon="2.95323">
        <ele>42.8</ele>
        <time>2022-05-21 08:14:52</time>
      </trkpt>
      <trkpt lat="42.07406" lon="2.95333">
        <ele>42.4</ele>
        <time>2022-05-21 08:14:53</time>
      </trkpt>
      <trkpt lat="42.07409" lon="2.95342">
        <ele>42.4</ele>
        <time>2022-05-21 08:14:54</time>
      </trkpt>
      <trkpt lat="42.07413" lon="2.95352">
        <ele>42</ele>
        <time>2022-05-21 08:14:55</time>
      </trkpt>
      <trkpt lat="42.07416" lon="2.95362">
        <ele>41.8</ele>
        <time>2022-05-21 08:14:56</time>
      </trkpt>
      <trkpt lat="42.07419" lon="2.95372">
        <ele>41.6</ele>
        <time>2022-05-21 08:14:57</time>
      </trkpt>
      <trkpt lat="42.07423" lon="2.95382">
        <ele>41.2</ele>
        <time>2022-05-21 08:14:58</time>
      </trkpt>
      <trkpt lat="42.07426" lon="2.95392">
        <ele>41</ele>
        <time>2022-05-21 08:14:59</time>
      </trkpt>
      <trkpt lat="42.07431" lon="2.95402">
        <ele>40.6</ele>
        <time>2022-05-21 08:15:00</time>
      </trkpt>
      <trkpt lat="42.07435" lon="2.95411">
        <ele>40.2</ele>
        <time>2022-05-21 08:15:01</time>
      </trkpt>
      <trkpt lat="42.07439" lon="2.95422">
        <ele>39.8</ele>
        <time>2022-05-21 08:15:02</time>
      </trkpt>
      <trkpt lat="42.07444" lon="2.95432">
        <ele>39.4</ele>
        <time>2022-05-21 08:15:03</time>
      </trkpt>
      <trkpt lat="42.0745" lon="2.95443">
        <ele>38.8</ele>
        <time>2022-05-21 08:15:04</time>
      </trkpt>
      <trkpt lat="42.07456" lon="2.95453">
        <ele>38.2</ele>
        <time>2022-05-21 08:15:05</time>
      </trkpt>
      <trkpt lat="42.07462" lon="2.95464">
        <ele>37.8</ele>
        <time>2022-05-21 08:15:06</time>
      </trkpt>
      <trkpt lat="42.07468" lon="2.95475">
        <ele>37.4</ele>
        <time>2022-05-21 08:15:07</time>
      </trkpt>
      <trkpt lat="42.07475" lon="2.95487">
        <ele>36.6</ele>
        <time>2022-05-21 08:15:08</time>
      </trkpt>
      <trkpt lat="42.07481" lon="2.95498">
        <ele>36</ele>
        <time>2022-05-21 08:15:09</time>
      </trkpt>
      <trkpt lat="42.07489" lon="2.9551">
        <ele>35.2</ele>
        <time>2022-05-21 08:15:10</time>
      </trkpt>
      <trkpt lat="42.07496" lon="2.95521">
        <ele>34.4</ele>
        <time>2022-05-21 08:15:11</time>
      </trkpt>
      <trkpt lat="42.07503" lon="2.95532">
        <ele>33.8</ele>
        <time>2022-05-21 08:15:12</time>
      </trkpt>
      <trkpt lat="42.0751" lon="2.95543">
        <ele>33.2</ele>
        <time>2022-05-21 08:15:13</time>
      </trkpt>
      <trkpt lat="42.07518" lon="2.95553">
        <ele>32.4</ele>
        <time>2022-05-21 08:15:14</time>
      </trkpt>
      <trkpt lat="42.07527" lon="2.95565">
        <ele>31.8</ele>
        <time>2022-05-21 08:15:15</time>
      </trkpt>
      <trkpt lat="42.07535" lon="2.95575">
        <ele>31.2</ele>
        <time>2022-05-21 08:15:16</time>
      </trkpt>
      <trkpt lat="42.07542" lon="2.95586">
        <ele>30.6</ele>
        <time>2022-05-21 08:15:17</time>
      </trkpt>
      <trkpt lat="42.07551" lon="2.95599">
        <ele>30</ele>
        <time>2022-05-21 08:15:18</time>
      </trkpt>
      <trkpt lat="42.07559" lon="2.95609">
        <ele>29.6</ele>
        <time>2022-05-21 08:15:19</time>
      </trkpt>
      <trkpt lat="42.07567" lon="2.95618">
        <ele>29.2</ele>
        <time>2022-05-21 08:15:20</time>
      </trkpt>
      <trkpt lat="42.07575" lon="2.95629">
        <ele>28.8</ele>
        <time>2022-05-21 08:15:21</time>
      </trkpt>
      <trkpt lat="42.07583" lon="2.9564">
        <ele>28.4</ele>
        <time>2022-05-21 08:15:22</time>
      </trkpt>
      <trkpt lat="42.07591" lon="2.9565">
        <ele>28.2</ele>
        <time>2022-05-21 08:15:23</time>
      </trkpt>
      <trkpt lat="42.07599" lon="2.95659">
        <ele>28</ele>
        <time>2022-05-21 08:15:24</time>
      </trkpt>
      <trkpt lat="42.07606" lon="2.95668">
        <ele>27.8</ele>
        <time>2022-05-21 08:15:25</time>
      </trkpt>
      <trkpt lat="42.07614" lon="2.95677">
        <ele>27.6</ele>
        <time>2022-05-21 08:15:26</time>
      </trkpt>
      <trkpt lat="42.07621" lon="2.95686">
        <ele>27.4</ele>
        <time>2022-05-21 08:15:27</time>
      </trkpt>
      <trkpt lat="42.07628" lon="2.95695">
        <ele>27.2</ele>
        <time>2022-05-21 08:15:28</time>
      </trkpt>
      <trkpt lat="42.07635" lon="2.95704">
        <ele>27.2</ele>
        <time>2022-05-21 08:15:29</time>
      </trkpt>
      <trkpt lat="42.07643" lon="2.95713">
        <ele>27.2</ele>
        <time>2022-05-21 08:15:30</time>
      </trkpt>
      <trkpt lat="42.07648" lon="2.95721">
        <ele>27</ele>
        <time>2022-05-21 08:15:31</time>
      </trkpt>
      <trkpt lat="42.07656" lon="2.95731">
        <ele>27</ele>
        <time>2022-05-21 08:15:32</time>
      </trkpt>
      <trkpt lat="42.07663" lon="2.9574">
        <ele>27</ele>
        <time>2022-05-21 08:15:33</time>
      </trkpt>
      <trkpt lat="42.0767" lon="2.95749">
        <ele>27</ele>
        <time>2022-05-21 08:15:34</time>
      </trkpt>
      <trkpt lat="42.07676" lon="2.95757">
        <ele>26.8</ele>
        <time>2022-05-21 08:15:35</time>
      </trkpt>
      <trkpt lat="42.07683" lon="2.95766">
        <ele>26.8</ele>
        <time>2022-05-21 08:15:36</time>
      </trkpt>
      <trkpt lat="42.07689" lon="2.95775">
        <ele>26.8</ele>
        <time>2022-05-21 08:15:37</time>
      </trkpt>
      <trkpt lat="42.07696" lon="2.95783">
        <ele>26.6</ele>
        <time>2022-05-21 08:15:38</time>
      </trkpt>
      <trkpt lat="42.07702" lon="2.95791">
        <ele>26.6</ele>
        <time>2022-05-21 08:15:39</time>
      </trkpt>
      <trkpt lat="42.07709" lon="2.95799">
        <ele>26.6</ele>
        <time>2022-05-21 08:15:40</time>
      </trkpt>
      <trkpt lat="42.07715" lon="2.95808">
        <ele>26.4</ele>
        <time>2022-05-21 08:15:41</time>
      </trkpt>
      <trkpt lat="42.07721" lon="2.95816">
        <ele>26.4</ele>
        <time>2022-05-21 08:15:42</time>
      </trkpt>
      <trkpt lat="42.07728" lon="2.95824">
        <ele>26.2</ele>
        <time>2022-05-21 08:15:43</time>
      </trkpt>
      <trkpt lat="42.07734" lon="2.95833">
        <ele>26.2</ele>
        <time>2022-05-21 08:15:44</time>
      </trkpt>
      <trkpt lat="42.0774" lon="2.95841">
        <ele>26.2</ele>
        <time>2022-05-21 08:15:45</time>
      </trkpt>
      <trkpt lat="42.07746" lon="2.95849">
        <ele>26.2</ele>
        <time>2022-05-21 08:15:46</time>
      </trkpt>
      <trkpt lat="42.07753" lon="2.95857">
        <ele>26.2</ele>
        <time>2022-05-21 08:15:47</time>
      </trkpt>
      <trkpt lat="42.07759" lon="2.95865">
        <ele>26.2</ele>
        <time>2022-05-21 08:15:48</time>
      </trkpt>
      <trkpt lat="42.07765" lon="2.95873">
        <ele>26</ele>
        <time>2022-05-21 08:15:49</time>
      </trkpt>
      <trkpt lat="42.07771" lon="2.95881">
        <ele>26</ele>
        <time>2022-05-21 08:15:50</time>
      </trkpt>
      <trkpt lat="42.07777" lon="2.95889">
        <ele>26</ele>
        <time>2022-05-21 08:15:51</time>
      </trkpt>
      <trkpt lat="42.07783" lon="2.95897">
        <ele>26</ele>
        <time>2022-05-21 08:15:52</time>
      </trkpt>
      <trkpt lat="42.07789" lon="2.95905">
        <ele>26</ele>
        <time>2022-05-21 08:15:53</time>
      </trkpt>
      <trkpt lat="42.07795" lon="2.95913">
        <ele>25.8</ele>
        <time>2022-05-21 08:15:54</time>
      </trkpt>
      <trkpt lat="42.07802" lon="2.9592">
        <ele>25.8</ele>
        <time>2022-05-21 08:15:55</time>
      </trkpt>
      <trkpt lat="42.07808" lon="2.95928">
        <ele>25.8</ele>
        <time>2022-05-21 08:15:56</time>
      </trkpt>
      <trkpt lat="42.07814" lon="2.95936">
        <ele>25.8</ele>
        <time>2022-05-21 08:15:57</time>
      </trkpt>
      <trkpt lat="42.0782" lon="2.95943">
        <ele>25.8</ele>
        <time>2022-05-21 08:15:58</time>
      </trkpt>
      <trkpt lat="42.07825" lon="2.95951">
        <ele>25.6</ele>
        <time>2022-05-21 08:15:59</time>
      </trkpt>
      <trkpt lat="42.07831" lon="2.95958">
        <ele>25.6</ele>
        <time>2022-05-21 08:16:00</time>
      </trkpt>
      <trkpt lat="42.07838" lon="2.95966">
        <ele>25.6</ele>
        <time>2022-05-21 08:16:01</time>
      </trkpt>
      <trkpt lat="42.07844" lon="2.95974">
        <ele>25.4</ele>
        <time>2022-05-21 08:16:02</time>
      </trkpt>
      <trkpt lat="42.0785" lon="2.95981">
        <ele>25.4</ele>
        <time>2022-05-21 08:16:03</time>
      </trkpt>
      <trkpt lat="42.07856" lon="2.95989">
        <ele>25.4</ele>
        <time>2022-05-21 08:16:04</time>
      </trkpt>
      <trkpt lat="42.07862" lon="2.95996">
        <ele>25.4</ele>
        <time>2022-05-21 08:16:05</time>
      </trkpt>
      <trkpt lat="42.07867" lon="2.96003">
        <ele>25.4</ele>
        <time>2022-05-21 08:16:06</time>
      </trkpt>
      <trkpt lat="42.07873" lon="2.96011">
        <ele>25.2</ele>
        <time>2022-05-21 08:16:07</time>
      </trkpt>
      <trkpt lat="42.07879" lon="2.96019">
        <ele>25.2</ele>
        <time>2022-05-21 08:16:08</time>
      </trkpt>
      <trkpt lat="42.07885" lon="2.96026">
        <ele>25.2</ele>
        <time>2022-05-21 08:16:09</time>
      </trkpt>
      <trkpt lat="42.07891" lon="2.96034">
        <ele>25.2</ele>
        <time>2022-05-21 08:16:10</time>
      </trkpt>
      <trkpt lat="42.07897" lon="2.96041">
        <ele>25.2</ele>
        <time>2022-05-21 08:16:11</time>
      </trkpt>
      <trkpt lat="42.07903" lon="2.96049">
        <ele>25</ele>
        <time>2022-05-21 08:16:12</time>
      </trkpt>
      <trkpt lat="42.07909" lon="2.96056">
        <ele>25</ele>
        <time>2022-05-21 08:16:13</time>
      </trkpt>
      <trkpt lat="42.07916" lon="2.96064">
        <ele>25</ele>
        <time>2022-05-21 08:16:14</time>
      </trkpt>
      <trkpt lat="42.07922" lon="2.96072">
        <ele>24.8</ele>
        <time>2022-05-21 08:16:15</time>
      </trkpt>
      <trkpt lat="42.07928" lon="2.96079">
        <ele>24.8</ele>
        <time>2022-05-21 08:16:16</time>
      </trkpt>
      <trkpt lat="42.07933" lon="2.96087">
        <ele>24.8</ele>
        <time>2022-05-21 08:16:17</time>
      </trkpt>
      <trkpt lat="42.07939" lon="2.96094">
        <ele>24.6</ele>
        <time>2022-05-21 08:16:18</time>
      </trkpt>
      <trkpt lat="42.07945" lon="2.96102">
        <ele>24.6</ele>
        <time>2022-05-21 08:16:19</time>
      </trkpt>
      <trkpt lat="42.07951" lon="2.96109">
        <ele>24.6</ele>
        <time>2022-05-21 08:16:20</time>
      </trkpt>
      <trkpt lat="42.07957" lon="2.96117">
        <ele>24.6</ele>
        <time>2022-05-21 08:16:21</time>
      </trkpt>
      <trkpt lat="42.07963" lon="2.96124">
        <ele>24.6</ele>
        <time>2022-05-21 08:16:22</time>
      </trkpt>
      <trkpt lat="42.07968" lon="2.96131">
        <ele>24.6</ele>
        <time>2022-05-21 08:16:23</time>
      </trkpt>
      <trkpt lat="42.07974" lon="2.96139">
        <ele>24.4</ele>
        <time>2022-05-21 08:16:24</time>
      </trkpt>
      <trkpt lat="42.0798" lon="2.96146">
        <ele>24.4</ele>
        <time>2022-05-21 08:16:25</time>
      </trkpt>
      <trkpt lat="42.07986" lon="2.96154">
        <ele>24.4</ele>
        <time>2022-05-21 08:16:26</time>
      </trkpt>
      <trkpt lat="42.07992" lon="2.96161">
        <ele>24.4</ele>
        <time>2022-05-21 08:16:27</time>
      </trkpt>
      <trkpt lat="42.07998" lon="2.96168">
        <ele>24.4</ele>
        <time>2022-05-21 08:16:28</time>
      </trkpt>
      <trkpt lat="42.08004" lon="2.96176">
        <ele>24.4</ele>
        <time>2022-05-21 08:16:29</time>
      </trkpt>
      <trkpt lat="42.0801" lon="2.96183">
        <ele>24.2</ele>
        <time>2022-05-21 08:16:30</time>
      </trkpt>
      <trkpt lat="42.08015" lon="2.96191">
        <ele>24.2</ele>
        <time>2022-05-21 08:16:31</time>
      </trkpt>
      <trkpt lat="42.08021" lon="2.96198">
        <ele>24.2</ele>
        <time>2022-05-21 08:16:32</time>
      </trkpt>
      <trkpt lat="42.08027" lon="2.96206">
        <ele>24.2</ele>
        <time>2022-05-21 08:16:33</time>
      </trkpt>
      <trkpt lat="42.08033" lon="2.96214">
        <ele>24</ele>
        <time>2022-05-21 08:16:34</time>
      </trkpt>
      <trkpt lat="42.08038" lon="2.96222">
        <ele>24</ele>
        <time>2022-05-21 08:16:35</time>
      </trkpt>
      <trkpt lat="42.08044" lon="2.9623">
        <ele>24</ele>
        <time>2022-05-21 08:16:36</time>
      </trkpt>
      <trkpt lat="42.08049" lon="2.96238">
        <ele>23.8</ele>
        <time>2022-05-21 08:16:37</time>
      </trkpt>
      <trkpt lat="42.08054" lon="2.96247">
        <ele>23.8</ele>
        <time>2022-05-21 08:16:38</time>
      </trkpt>
      <trkpt lat="42.08059" lon="2.96255">
        <ele>23.6</ele>
        <time>2022-05-21 08:16:39</time>
      </trkpt>
      <trkpt lat="42.08063" lon="2.96264">
        <ele>23.6</ele>
        <time>2022-05-21 08:16:40</time>
      </trkpt>
      <trkpt lat="42.08068" lon="2.96273">
        <ele>23.6</ele>
        <time>2022-05-21 08:16:41</time>
      </trkpt>
      <trkpt lat="42.08072" lon="2.96282">
        <ele>23.6</ele>
        <time>2022-05-21 08:16:42</time>
      </trkpt>
      <trkpt lat="42.08076" lon="2.96291">
        <ele>23.4</ele>
        <time>2022-05-21 08:16:43</time>
      </trkpt>
      <trkpt lat="42.08079" lon="2.96301">
        <ele>23.4</ele>
        <time>2022-05-21 08:16:44</time>
      </trkpt>
      <trkpt lat="42.08083" lon="2.9631">
        <ele>23.4</ele>
        <time>2022-05-21 08:16:45</time>
      </trkpt>
      <trkpt lat="42.08086" lon="2.9632">
        <ele>23.2</ele>
        <time>2022-05-21 08:16:46</time>
      </trkpt>
      <trkpt lat="42.08089" lon="2.96329">
        <ele>23.2</ele>
        <time>2022-05-21 08:16:47</time>
      </trkpt>
      <trkpt lat="42.08092" lon="2.96339">
        <ele>23.2</ele>
        <time>2022-05-21 08:16:48</time>
      </trkpt>
      <trkpt lat="42.08095" lon="2.96349">
        <ele>23.2</ele>
        <time>2022-05-21 08:16:49</time>
      </trkpt>
      <trkpt lat="42.08098" lon="2.96359">
        <ele>23.2</ele>
        <time>2022-05-21 08:16:50</time>
      </trkpt>
      <trkpt lat="42.081" lon="2.96369">
        <ele>23.2</ele>
        <time>2022-05-21 08:16:51</time>
      </trkpt>
      <trkpt lat="42.08103" lon="2.96379">
        <ele>23</ele>
        <time>2022-05-21 08:16:52</time>
      </trkpt>
      <trkpt lat="42.08106" lon="2.96389">
        <ele>23</ele>
        <time>2022-05-21 08:16:53</time>
      </trkpt>
      <trkpt lat="42.08108" lon="2.964">
        <ele>23</ele>
        <time>2022-05-21 08:16:54</time>
      </trkpt>
      <trkpt lat="42.0811" lon="2.9641">
        <ele>23</ele>
        <time>2022-05-21 08:16:55</time>
      </trkpt>
      <trkpt lat="42.08112" lon="2.96421">
        <ele>23</ele>
        <time>2022-05-21 08:16:56</time>
      </trkpt>
      <trkpt lat="42.08115" lon="2.96431">
        <ele>23</ele>
        <time>2022-05-21 08:16:57</time>
      </trkpt>
      <trkpt lat="42.08117" lon="2.96441">
        <ele>23</ele>
        <time>2022-05-21 08:16:58</time>
      </trkpt>
      <trkpt lat="42.08119" lon="2.96451">
        <ele>23</ele>
        <time>2022-05-21 08:16:59</time>
      </trkpt>
      <trkpt lat="42.08122" lon="2.96462">
        <ele>22.8</ele>
        <time>2022-05-21 08:17:00</time>
      </trkpt>
      <trkpt lat="42.08124" lon="2.96473">
        <ele>22.8</ele>
        <time>2022-05-21 08:17:01</time>
      </trkpt>
      <trkpt lat="42.08126" lon="2.96483">
        <ele>22.8</ele>
        <time>2022-05-21 08:17:02</time>
      </trkpt>
      <trkpt lat="42.08128" lon="2.96494">
        <ele>22.6</ele>
        <time>2022-05-21 08:17:03</time>
      </trkpt>
      <trkpt lat="42.08131" lon="2.96504">
        <ele>22.6</ele>
        <time>2022-05-21 08:17:04</time>
      </trkpt>
      <trkpt lat="42.08133" lon="2.96515">
        <ele>22.6</ele>
        <time>2022-05-21 08:17:05</time>
      </trkpt>
      <trkpt lat="42.08135" lon="2.96525">
        <ele>22.6</ele>
        <time>2022-05-21 08:17:06</time>
      </trkpt>
      <trkpt lat="42.08137" lon="2.96536">
        <ele>22.6</ele>
        <time>2022-05-21 08:17:07</time>
      </trkpt>
      <trkpt lat="42.0814" lon="2.96546">
        <ele>22.6</ele>
        <time>2022-05-21 08:17:08</time>
      </trkpt>
      <trkpt lat="42.08142" lon="2.96556">
        <ele>22.6</ele>
        <time>2022-05-21 08:17:09</time>
      </trkpt>
      <trkpt lat="42.08144" lon="2.96566">
        <ele>22.6</ele>
        <time>2022-05-21 08:17:10</time>
      </trkpt>
      <trkpt lat="42.08146" lon="2.96576">
        <ele>22.6</ele>
        <time>2022-05-21 08:17:11</time>
      </trkpt>
      <trkpt lat="42.08148" lon="2.96586">
        <ele>22.6</ele>
        <time>2022-05-21 08:17:12</time>
      </trkpt>
      <trkpt lat="42.0815" lon="2.96596">
        <ele>22.6</ele>
        <time>2022-05-21 08:17:13</time>
      </trkpt>
      <trkpt lat="42.08153" lon="2.96607">
        <ele>22.6</ele>
        <time>2022-05-21 08:17:14</time>
      </trkpt>
      <trkpt lat="42.08155" lon="2.96617">
        <ele>22.6</ele>
        <time>2022-05-21 08:17:15</time>
      </trkpt>
      <trkpt lat="42.08157" lon="2.96627">
        <ele>22.6</ele>
        <time>2022-05-21 08:17:16</time>
      </trkpt>
      <trkpt lat="42.08159" lon="2.96636">
        <ele>22.6</ele>
        <time>2022-05-21 08:17:17</time>
      </trkpt>
      <trkpt lat="42.08161" lon="2.96646">
        <ele>22.6</ele>
        <time>2022-05-21 08:17:18</time>
      </trkpt>
      <trkpt lat="42.08163" lon="2.96656">
        <ele>22.8</ele>
        <time>2022-05-21 08:17:19</time>
      </trkpt>
      <trkpt lat="42.08165" lon="2.96665">
        <ele>22.8</ele>
        <time>2022-05-21 08:17:20</time>
      </trkpt>
      <trkpt lat="42.08168" lon="2.96675">
        <ele>22.8</ele>
        <time>2022-05-21 08:17:21</time>
      </trkpt>
      <trkpt lat="42.0817" lon="2.96684">
        <ele>22.8</ele>
        <time>2022-05-21 08:17:22</time>
      </trkpt>
      <trkpt lat="42.08172" lon="2.96694">
        <ele>23</ele>
        <time>2022-05-21 08:17:23</time>
      </trkpt>
      <trkpt lat="42.08174" lon="2.96703">
        <ele>23</ele>
        <time>2022-05-21 08:17:24</time>
      </trkpt>
      <trkpt lat="42.08176" lon="2.96713">
        <ele>23</ele>
        <time>2022-05-21 08:17:25</time>
      </trkpt>
      <trkpt lat="42.08178" lon="2.96722">
        <ele>23.2</ele>
        <time>2022-05-21 08:17:26</time>
      </trkpt>
      <trkpt lat="42.0818" lon="2.96731">
        <ele>23.2</ele>
        <time>2022-05-21 08:17:27</time>
      </trkpt>
      <trkpt lat="42.08182" lon="2.96741">
        <ele>23.2</ele>
        <time>2022-05-21 08:17:28</time>
      </trkpt>
      <trkpt lat="42.08184" lon="2.9675">
        <ele>23.2</ele>
        <time>2022-05-21 08:17:29</time>
      </trkpt>
      <trkpt lat="42.08186" lon="2.96759">
        <ele>23.2</ele>
        <time>2022-05-21 08:17:30</time>
      </trkpt>
      <trkpt lat="42.08188" lon="2.96769">
        <ele>23.2</ele>
        <time>2022-05-21 08:17:31</time>
      </trkpt>
      <trkpt lat="42.0819" lon="2.96778">
        <ele>23.2</ele>
        <time>2022-05-21 08:17:32</time>
      </trkpt>
      <trkpt lat="42.08193" lon="2.96787">
        <ele>23.2</ele>
        <time>2022-05-21 08:17:33</time>
      </trkpt>
      <trkpt lat="42.08194" lon="2.96797">
        <ele>23.2</ele>
        <time>2022-05-21 08:17:34</time>
      </trkpt>
      <trkpt lat="42.08196" lon="2.96806">
        <ele>23</ele>
        <time>2022-05-21 08:17:35</time>
      </trkpt>
      <trkpt lat="42.08198" lon="2.96815">
        <ele>23</ele>
        <time>2022-05-21 08:17:36</time>
      </trkpt>
      <trkpt lat="42.082" lon="2.96825">
        <ele>23</ele>
        <time>2022-05-21 08:17:37</time>
      </trkpt>
      <trkpt lat="42.08202" lon="2.96834">
        <ele>23</ele>
        <time>2022-05-21 08:17:38</time>
      </trkpt>
      <trkpt lat="42.08204" lon="2.96843">
        <ele>23</ele>
        <time>2022-05-21 08:17:39</time>
      </trkpt>
      <trkpt lat="42.08206" lon="2.96853">
        <ele>23</ele>
        <time>2022-05-21 08:17:40</time>
      </trkpt>
      <trkpt lat="42.08209" lon="2.96863">
        <ele>22.8</ele>
        <time>2022-05-21 08:17:41</time>
      </trkpt>
      <trkpt lat="42.08211" lon="2.96872">
        <ele>22.8</ele>
        <time>2022-05-21 08:17:42</time>
      </trkpt>
      <trkpt lat="42.08213" lon="2.96881">
        <ele>22.8</ele>
        <time>2022-05-21 08:17:43</time>
      </trkpt>
      <trkpt lat="42.08215" lon="2.96891">
        <ele>22.8</ele>
        <time>2022-05-21 08:17:44</time>
      </trkpt>
      <trkpt lat="42.08217" lon="2.969">
        <ele>22.8</ele>
        <time>2022-05-21 08:17:45</time>
      </trkpt>
      <trkpt lat="42.08219" lon="2.9691">
        <ele>22.8</ele>
        <time>2022-05-21 08:17:46</time>
      </trkpt>
      <trkpt lat="42.08221" lon="2.96919">
        <ele>22.8</ele>
        <time>2022-05-21 08:17:47</time>
      </trkpt>
      <trkpt lat="42.08224" lon="2.96928">
        <ele>22.8</ele>
        <time>2022-05-21 08:17:48</time>
      </trkpt>
      <trkpt lat="42.08226" lon="2.96937">
        <ele>22.6</ele>
        <time>2022-05-21 08:17:49</time>
      </trkpt>
      <trkpt lat="42.08229" lon="2.96946">
        <ele>22.6</ele>
        <time>2022-05-21 08:17:50</time>
      </trkpt>
      <trkpt lat="42.08231" lon="2.96955">
        <ele>22.6</ele>
        <time>2022-05-21 08:17:51</time>
      </trkpt>
      <trkpt lat="42.08234" lon="2.96964">
        <ele>22.6</ele>
        <time>2022-05-21 08:17:52</time>
      </trkpt>
      <trkpt lat="42.08237" lon="2.96973">
        <ele>22.6</ele>
        <time>2022-05-21 08:17:53</time>
      </trkpt>
      <trkpt lat="42.0824" lon="2.96982">
        <ele>22.6</ele>
        <time>2022-05-21 08:17:54</time>
      </trkpt>
      <trkpt lat="42.08244" lon="2.96991">
        <ele>22.6</ele>
        <time>2022-05-21 08:17:55</time>
      </trkpt>
      <trkpt lat="42.08248" lon="2.96999">
        <ele>22.4</ele>
        <time>2022-05-21 08:17:56</time>
      </trkpt>
      <trkpt lat="42.08251" lon="2.97008">
        <ele>22.4</ele>
        <time>2022-05-21 08:17:57</time>
      </trkpt>
      <trkpt lat="42.08255" lon="2.97016">
        <ele>22.4</ele>
        <time>2022-05-21 08:17:58</time>
      </trkpt>
      <trkpt lat="42.08259" lon="2.97025">
        <ele>22.4</ele>
        <time>2022-05-21 08:17:59</time>
      </trkpt>
      <trkpt lat="42.08263" lon="2.97033">
        <ele>22.4</ele>
        <time>2022-05-21 08:18:00</time>
      </trkpt>
      <trkpt lat="42.08267" lon="2.97042">
        <ele>22.4</ele>
        <time>2022-05-21 08:18:01</time>
      </trkpt>
      <trkpt lat="42.08271" lon="2.97049">
        <ele>22.4</ele>
        <time>2022-05-21 08:18:02</time>
      </trkpt>
      <trkpt lat="42.08275" lon="2.97057">
        <ele>22.2</ele>
        <time>2022-05-21 08:18:03</time>
      </trkpt>
      <trkpt lat="42.08281" lon="2.97065">
        <ele>22.2</ele>
        <time>2022-05-21 08:18:04</time>
      </trkpt>
      <trkpt lat="42.08286" lon="2.97072">
        <ele>22.2</ele>
        <time>2022-05-21 08:18:05</time>
      </trkpt>
      <trkpt lat="42.08292" lon="2.97079">
        <ele>22</ele>
        <time>2022-05-21 08:18:06</time>
      </trkpt>
      <trkpt lat="42.08297" lon="2.97086">
        <ele>22</ele>
        <time>2022-05-21 08:18:07</time>
      </trkpt>
      <trkpt lat="42.08302" lon="2.97094">
        <ele>21.8</ele>
        <time>2022-05-21 08:18:08</time>
      </trkpt>
      <trkpt lat="42.08308" lon="2.97101">
        <ele>21.8</ele>
        <time>2022-05-21 08:18:09</time>
      </trkpt>
      <trkpt lat="42.08314" lon="2.97107">
        <ele>21.8</ele>
        <time>2022-05-21 08:18:10</time>
      </trkpt>
      <trkpt lat="42.0832" lon="2.97114">
        <ele>21.8</ele>
        <time>2022-05-21 08:18:11</time>
      </trkpt>
      <trkpt lat="42.08326" lon="2.9712">
        <ele>21.6</ele>
        <time>2022-05-21 08:18:12</time>
      </trkpt>
      <trkpt lat="42.08332" lon="2.97126">
        <ele>21.6</ele>
        <time>2022-05-21 08:18:13</time>
      </trkpt>
      <trkpt lat="42.08338" lon="2.97132">
        <ele>21.6</ele>
        <time>2022-05-21 08:18:14</time>
      </trkpt>
      <trkpt lat="42.08344" lon="2.97138">
        <ele>21.4</ele>
        <time>2022-05-21 08:18:15</time>
      </trkpt>
      <trkpt lat="42.0835" lon="2.97144">
        <ele>21.4</ele>
        <time>2022-05-21 08:18:16</time>
      </trkpt>
      <trkpt lat="42.08356" lon="2.97151">
        <ele>21.4</ele>
        <time>2022-05-21 08:18:17</time>
      </trkpt>
      <trkpt lat="42.08362" lon="2.97156">
        <ele>21.2</ele>
        <time>2022-05-21 08:18:18</time>
      </trkpt>
      <trkpt lat="42.08368" lon="2.97163">
        <ele>21.2</ele>
        <time>2022-05-21 08:18:19</time>
      </trkpt>
      <trkpt lat="42.08375" lon="2.97169">
        <ele>21.2</ele>
        <time>2022-05-21 08:18:20</time>
      </trkpt>
      <trkpt lat="42.08381" lon="2.97175">
        <ele>21.2</ele>
        <time>2022-05-21 08:18:21</time>
      </trkpt>
      <trkpt lat="42.08387" lon="2.97181">
        <ele>21</ele>
        <time>2022-05-21 08:18:22</time>
      </trkpt>
      <trkpt lat="42.08394" lon="2.97186">
        <ele>21</ele>
        <time>2022-05-21 08:18:23</time>
      </trkpt>
      <trkpt lat="42.084" lon="2.97192">
        <ele>21</ele>
        <time>2022-05-21 08:18:24</time>
      </trkpt>
      <trkpt lat="42.08406" lon="2.97198">
        <ele>20.8</ele>
        <time>2022-05-21 08:18:25</time>
      </trkpt>
      <trkpt lat="42.08412" lon="2.97204">
        <ele>20.8</ele>
        <time>2022-05-21 08:18:26</time>
      </trkpt>
      <trkpt lat="42.08419" lon="2.9721">
        <ele>20.8</ele>
        <time>2022-05-21 08:18:27</time>
      </trkpt>
      <trkpt lat="42.08425" lon="2.97216">
        <ele>20.6</ele>
        <time>2022-05-21 08:18:28</time>
      </trkpt>
      <trkpt lat="42.08431" lon="2.97223">
        <ele>20.6</ele>
        <time>2022-05-21 08:18:29</time>
      </trkpt>
      <trkpt lat="42.08437" lon="2.9723">
        <ele>20.4</ele>
        <time>2022-05-21 08:18:30</time>
      </trkpt>
      <trkpt lat="42.08443" lon="2.97237">
        <ele>20.4</ele>
        <time>2022-05-21 08:18:31</time>
      </trkpt>
      <trkpt lat="42.08448" lon="2.97243">
        <ele>20.4</ele>
        <time>2022-05-21 08:18:32</time>
      </trkpt>
      <trkpt lat="42.08453" lon="2.97251">
        <ele>20.2</ele>
        <time>2022-05-21 08:18:33</time>
      </trkpt>
      <trkpt lat="42.08459" lon="2.97258">
        <ele>20.2</ele>
        <time>2022-05-21 08:18:34</time>
      </trkpt>
      <trkpt lat="42.08464" lon="2.97266">
        <ele>20.2</ele>
        <time>2022-05-21 08:18:35</time>
      </trkpt>
      <trkpt lat="42.08468" lon="2.97274">
        <ele>20.2</ele>
        <time>2022-05-21 08:18:36</time>
      </trkpt>
      <trkpt lat="42.08473" lon="2.97282">
        <ele>20</ele>
        <time>2022-05-21 08:18:37</time>
      </trkpt>
      <trkpt lat="42.08477" lon="2.9729">
        <ele>20</ele>
        <time>2022-05-21 08:18:38</time>
      </trkpt>
      <trkpt lat="42.08481" lon="2.97298">
        <ele>20</ele>
        <time>2022-05-21 08:18:39</time>
      </trkpt>
      <trkpt lat="42.08485" lon="2.97307">
        <ele>20</ele>
        <time>2022-05-21 08:18:40</time>
      </trkpt>
      <trkpt lat="42.08489" lon="2.97317">
        <ele>20</ele>
        <time>2022-05-21 08:18:41</time>
      </trkpt>
      <trkpt lat="42.08492" lon="2.97326">
        <ele>20</ele>
        <time>2022-05-21 08:18:42</time>
      </trkpt>
      <trkpt lat="42.08496" lon="2.97335">
        <ele>20</ele>
        <time>2022-05-21 08:18:43</time>
      </trkpt>
      <trkpt lat="42.08499" lon="2.97344">
        <ele>19.8</ele>
        <time>2022-05-21 08:18:44</time>
      </trkpt>
      <trkpt lat="42.08502" lon="2.97354">
        <ele>19.8</ele>
        <time>2022-05-21 08:18:45</time>
      </trkpt>
      <trkpt lat="42.08504" lon="2.97364">
        <ele>19.8</ele>
        <time>2022-05-21 08:18:46</time>
      </trkpt>
      <trkpt lat="42.08506" lon="2.97374">
        <ele>19.8</ele>
        <time>2022-05-21 08:18:47</time>
      </trkpt>
      <trkpt lat="42.08509" lon="2.97383">
        <ele>19.8</ele>
        <time>2022-05-21 08:18:48</time>
      </trkpt>
      <trkpt lat="42.08511" lon="2.97393">
        <ele>19.8</ele>
        <time>2022-05-21 08:18:49</time>
      </trkpt>
      <trkpt lat="42.08512" lon="2.97403">
        <ele>19.8</ele>
        <time>2022-05-21 08:18:50</time>
      </trkpt>
      <trkpt lat="42.08514" lon="2.97412">
        <ele>19.8</ele>
        <time>2022-05-21 08:18:51</time>
      </trkpt>
      <trkpt lat="42.08515" lon="2.97423">
        <ele>19.8</ele>
        <time>2022-05-21 08:18:52</time>
      </trkpt>
      <trkpt lat="42.08516" lon="2.97433">
        <ele>19.8</ele>
        <time>2022-05-21 08:18:53</time>
      </trkpt>
      <trkpt lat="42.08517" lon="2.97443">
        <ele>19.8</ele>
        <time>2022-05-21 08:18:54</time>
      </trkpt>
      <trkpt lat="42.08519" lon="2.97453">
        <ele>19.8</ele>
        <time>2022-05-21 08:18:55</time>
      </trkpt>
      <trkpt lat="42.0852" lon="2.97463">
        <ele>20</ele>
        <time>2022-05-21 08:18:56</time>
      </trkpt>
      <trkpt lat="42.08521" lon="2.97472">
        <ele>19.8</ele>
        <time>2022-05-21 08:18:57</time>
      </trkpt>
      <trkpt lat="42.08522" lon="2.97482">
        <ele>19.8</ele>
        <time>2022-05-21 08:18:58</time>
      </trkpt>
      <trkpt lat="42.08523" lon="2.97492">
        <ele>19.8</ele>
        <time>2022-05-21 08:18:59</time>
      </trkpt>
      <trkpt lat="42.08524" lon="2.97502">
        <ele>19.8</ele>
        <time>2022-05-21 08:19:00</time>
      </trkpt>
      <trkpt lat="42.08525" lon="2.97511">
        <ele>19.8</ele>
        <time>2022-05-21 08:19:01</time>
      </trkpt>
      <trkpt lat="42.08527" lon="2.97521">
        <ele>19.8</ele>
        <time>2022-05-21 08:19:02</time>
      </trkpt>
      <trkpt lat="42.08528" lon="2.97531">
        <ele>19.8</ele>
        <time>2022-05-21 08:19:03</time>
      </trkpt>
      <trkpt lat="42.08529" lon="2.9754">
        <ele>19.8</ele>
        <time>2022-05-21 08:19:04</time>
      </trkpt>
      <trkpt lat="42.0853" lon="2.9755">
        <ele>19.8</ele>
        <time>2022-05-21 08:19:05</time>
      </trkpt>
      <trkpt lat="42.08532" lon="2.97559">
        <ele>19.8</ele>
        <time>2022-05-21 08:19:06</time>
      </trkpt>
      <trkpt lat="42.08533" lon="2.97569">
        <ele>19.8</ele>
        <time>2022-05-21 08:19:07</time>
      </trkpt>
      <trkpt lat="42.08534" lon="2.97579">
        <ele>19.8</ele>
        <time>2022-05-21 08:19:08</time>
      </trkpt>
      <trkpt lat="42.08536" lon="2.97588">
        <ele>19.8</ele>
        <time>2022-05-21 08:19:09</time>
      </trkpt>
      <trkpt lat="42.08538" lon="2.97598">
        <ele>19.8</ele>
        <time>2022-05-21 08:19:10</time>
      </trkpt>
      <trkpt lat="42.0854" lon="2.97606">
        <ele>19.8</ele>
        <time>2022-05-21 08:19:11</time>
      </trkpt>
      <trkpt lat="42.08542" lon="2.97615">
        <ele>19.8</ele>
        <time>2022-05-21 08:19:12</time>
      </trkpt>
      <trkpt lat="42.08544" lon="2.97624">
        <ele>19.8</ele>
        <time>2022-05-21 08:19:13</time>
      </trkpt>
      <trkpt lat="42.08546" lon="2.97634">
        <ele>19.8</ele>
        <time>2022-05-21 08:19:14</time>
      </trkpt>
      <trkpt lat="42.08549" lon="2.97643">
        <ele>19.8</ele>
        <time>2022-05-21 08:19:15</time>
      </trkpt>
      <trkpt lat="42.0855" lon="2.97652">
        <ele>19.8</ele>
        <time>2022-05-21 08:19:16</time>
      </trkpt>
      <trkpt lat="42.08552" lon="2.97662">
        <ele>19.8</ele>
        <time>2022-05-21 08:19:17</time>
      </trkpt>
      <trkpt lat="42.08554" lon="2.97672">
        <ele>19.8</ele>
        <time>2022-05-21 08:19:18</time>
      </trkpt>
      <trkpt lat="42.08556" lon="2.97682">
        <ele>19.6</ele>
        <time>2022-05-21 08:19:19</time>
      </trkpt>
      <trkpt lat="42.08558" lon="2.97691">
        <ele>19.6</ele>
        <time>2022-05-21 08:19:20</time>
      </trkpt>
      <trkpt lat="42.0856" lon="2.97701">
        <ele>19.6</ele>
        <time>2022-05-21 08:19:21</time>
      </trkpt>
      <trkpt lat="42.08562" lon="2.97711">
        <ele>19.6</ele>
        <time>2022-05-21 08:19:22</time>
      </trkpt>
      <trkpt lat="42.08564" lon="2.97721">
        <ele>19.6</ele>
        <time>2022-05-21 08:19:23</time>
      </trkpt>
      <trkpt lat="42.08566" lon="2.9773">
        <ele>19.6</ele>
        <time>2022-05-21 08:19:24</time>
      </trkpt>
      <trkpt lat="42.08568" lon="2.9774">
        <ele>19.6</ele>
        <time>2022-05-21 08:19:25</time>
      </trkpt>
      <trkpt lat="42.08569" lon="2.9775">
        <ele>19.6</ele>
        <time>2022-05-21 08:19:26</time>
      </trkpt>
      <trkpt lat="42.0857" lon="2.9776">
        <ele>19.4</ele>
        <time>2022-05-21 08:19:27</time>
      </trkpt>
      <trkpt lat="42.0857" lon="2.9777">
        <ele>19.4</ele>
        <time>2022-05-21 08:19:28</time>
      </trkpt>
      <trkpt lat="42.0857" lon="2.9778">
        <ele>19.4</ele>
        <time>2022-05-21 08:19:29</time>
      </trkpt>
      <trkpt lat="42.0857" lon="2.97789">
        <ele>19.4</ele>
        <time>2022-05-21 08:19:30</time>
      </trkpt>
      <trkpt lat="42.08568" lon="2.97799">
        <ele>19.4</ele>
        <time>2022-05-21 08:19:31</time>
      </trkpt>
      <trkpt lat="42.08566" lon="2.97809">
        <ele>19.4</ele>
        <time>2022-05-21 08:19:32</time>
      </trkpt>
      <trkpt lat="42.08564" lon="2.97819">
        <ele>19.4</ele>
        <time>2022-05-21 08:19:33</time>
      </trkpt>
      <trkpt lat="42.08561" lon="2.97829">
        <ele>19.4</ele>
        <time>2022-05-21 08:19:34</time>
      </trkpt>
      <trkpt lat="42.08559" lon="2.97838">
        <ele>19.4</ele>
        <time>2022-05-21 08:19:35</time>
      </trkpt>
      <trkpt lat="42.08556" lon="2.97847">
        <ele>19.4</ele>
        <time>2022-05-21 08:19:36</time>
      </trkpt>
      <trkpt lat="42.08553" lon="2.97856">
        <ele>19.6</ele>
        <time>2022-05-21 08:19:37</time>
      </trkpt>
      <trkpt lat="42.0855" lon="2.97865">
        <ele>19.6</ele>
        <time>2022-05-21 08:19:38</time>
      </trkpt>
      <trkpt lat="42.08547" lon="2.97874">
        <ele>19.6</ele>
        <time>2022-05-21 08:19:39</time>
      </trkpt>
      <trkpt lat="42.08544" lon="2.97882">
        <ele>19.6</ele>
        <time>2022-05-21 08:19:40</time>
      </trkpt>
      <trkpt lat="42.08541" lon="2.97891">
        <ele>19.6</ele>
        <time>2022-05-21 08:19:41</time>
      </trkpt>
      <trkpt lat="42.08537" lon="2.97899">
        <ele>19.6</ele>
        <time>2022-05-21 08:19:42</time>
      </trkpt>
      <trkpt lat="42.08534" lon="2.97907">
        <ele>19.6</ele>
        <time>2022-05-21 08:19:43</time>
      </trkpt>
      <trkpt lat="42.0853" lon="2.97916">
        <ele>19.6</ele>
        <time>2022-05-21 08:19:44</time>
      </trkpt>
      <trkpt lat="42.08526" lon="2.97925">
        <ele>19.6</ele>
        <time>2022-05-21 08:19:45</time>
      </trkpt>
      <trkpt lat="42.08522" lon="2.97933">
        <ele>19.6</ele>
        <time>2022-05-21 08:19:46</time>
      </trkpt>
      <trkpt lat="42.08518" lon="2.97941">
        <ele>19.6</ele>
        <time>2022-05-21 08:19:47</time>
      </trkpt>
      <trkpt lat="42.08515" lon="2.97949">
        <ele>19.6</ele>
        <time>2022-05-21 08:19:48</time>
      </trkpt>
      <trkpt lat="42.08511" lon="2.97957">
        <ele>19.6</ele>
        <time>2022-05-21 08:19:49</time>
      </trkpt>
      <trkpt lat="42.08508" lon="2.97965">
        <ele>19.6</ele>
        <time>2022-05-21 08:19:50</time>
      </trkpt>
      <trkpt lat="42.08504" lon="2.97973">
        <ele>19.6</ele>
        <time>2022-05-21 08:19:51</time>
      </trkpt>
      <trkpt lat="42.085" lon="2.97981">
        <ele>19.6</ele>
        <time>2022-05-21 08:19:52</time>
      </trkpt>
      <trkpt lat="42.08497" lon="2.9799">
        <ele>19.8</ele>
        <time>2022-05-21 08:19:53</time>
      </trkpt>
      <trkpt lat="42.08493" lon="2.97999">
        <ele>19.8</ele>
        <time>2022-05-21 08:19:54</time>
      </trkpt>
      <trkpt lat="42.0849" lon="2.98007">
        <ele>19.8</ele>
        <time>2022-05-21 08:19:55</time>
      </trkpt>
      <trkpt lat="42.08487" lon="2.98016">
        <ele>19.8</ele>
        <time>2022-05-21 08:19:56</time>
      </trkpt>
      <trkpt lat="42.08484" lon="2.98025">
        <ele>19.8</ele>
        <time>2022-05-21 08:19:57</time>
      </trkpt>
      <trkpt lat="42.08482" lon="2.98034">
        <ele>19.8</ele>
        <time>2022-05-21 08:19:58</time>
      </trkpt>
      <trkpt lat="42.0848" lon="2.98043">
        <ele>19.8</ele>
        <time>2022-05-21 08:19:59</time>
      </trkpt>
      <trkpt lat="42.08477" lon="2.98052">
        <ele>19.8</ele>
        <time>2022-05-21 08:20:00</time>
      </trkpt>
      <trkpt lat="42.08474" lon="2.98061">
        <ele>19.8</ele>
        <time>2022-05-21 08:20:01</time>
      </trkpt>
      <trkpt lat="42.08471" lon="2.9807">
        <ele>19.8</ele>
        <time>2022-05-21 08:20:02</time>
      </trkpt>
      <trkpt lat="42.08469" lon="2.98079">
        <ele>19.8</ele>
        <time>2022-05-21 08:20:03</time>
      </trkpt>
      <trkpt lat="42.08466" lon="2.98088">
        <ele>19.8</ele>
        <time>2022-05-21 08:20:04</time>
      </trkpt>
      <trkpt lat="42.08464" lon="2.98097">
        <ele>19.8</ele>
        <time>2022-05-21 08:20:05</time>
      </trkpt>
      <trkpt lat="42.08461" lon="2.98106">
        <ele>19.8</ele>
        <time>2022-05-21 08:20:06</time>
      </trkpt>
      <trkpt lat="42.08459" lon="2.98116">
        <ele>19.8</ele>
        <time>2022-05-21 08:20:07</time>
      </trkpt>
      <trkpt lat="42.08456" lon="2.98125">
        <ele>19.8</ele>
        <time>2022-05-21 08:20:08</time>
      </trkpt>
      <trkpt lat="42.08454" lon="2.98134">
        <ele>19.8</ele>
        <time>2022-05-21 08:20:09</time>
      </trkpt>
      <trkpt lat="42.08453" lon="2.98143">
        <ele>19.6</ele>
        <time>2022-05-21 08:20:10</time>
      </trkpt>
      <trkpt lat="42.0845" lon="2.98153">
        <ele>19.6</ele>
        <time>2022-05-21 08:20:11</time>
      </trkpt>
      <trkpt lat="42.08448" lon="2.98162">
        <ele>19.6</ele>
        <time>2022-05-21 08:20:12</time>
      </trkpt>
      <trkpt lat="42.08446" lon="2.98172">
        <ele>19.6</ele>
        <time>2022-05-21 08:20:13</time>
      </trkpt>
      <trkpt lat="42.08444" lon="2.98181">
        <ele>19.6</ele>
        <time>2022-05-21 08:20:14</time>
      </trkpt>
      <trkpt lat="42.08442" lon="2.9819">
        <ele>19.6</ele>
        <time>2022-05-21 08:20:15</time>
      </trkpt>
      <trkpt lat="42.0844" lon="2.98199">
        <ele>19.6</ele>
        <time>2022-05-21 08:20:16</time>
      </trkpt>
      <trkpt lat="42.08439" lon="2.98207">
        <ele>19.6</ele>
        <time>2022-05-21 08:20:17</time>
      </trkpt>
      <trkpt lat="42.08437" lon="2.98216">
        <ele>19.6</ele>
        <time>2022-05-21 08:20:18</time>
      </trkpt>
      <trkpt lat="42.08435" lon="2.98225">
        <ele>19.6</ele>
        <time>2022-05-21 08:20:19</time>
      </trkpt>
      <trkpt lat="42.08434" lon="2.98234">
        <ele>19.6</ele>
        <time>2022-05-21 08:20:20</time>
      </trkpt>
      <trkpt lat="42.08432" lon="2.98243">
        <ele>19.6</ele>
        <time>2022-05-21 08:20:21</time>
      </trkpt>
      <trkpt lat="42.0843" lon="2.98252">
        <ele>19.4</ele>
        <time>2022-05-21 08:20:22</time>
      </trkpt>
      <trkpt lat="42.08428" lon="2.98261">
        <ele>19.4</ele>
        <time>2022-05-21 08:20:23</time>
      </trkpt>
      <trkpt lat="42.08426" lon="2.98269">
        <ele>19.4</ele>
        <time>2022-05-21 08:20:24</time>
      </trkpt>
      <trkpt lat="42.08424" lon="2.98278">
        <ele>19.2</ele>
        <time>2022-05-21 08:20:25</time>
      </trkpt>
      <trkpt lat="42.08423" lon="2.98287">
        <ele>19.2</ele>
        <time>2022-05-21 08:20:26</time>
      </trkpt>
      <trkpt lat="42.08421" lon="2.98295">
        <ele>19.2</ele>
        <time>2022-05-21 08:20:27</time>
      </trkpt>
      <trkpt lat="42.08421" lon="2.98303">
        <ele>19.2</ele>
        <time>2022-05-21 08:20:28</time>
      </trkpt>
      <trkpt lat="42.08425" lon="2.98306">
        <ele>19.2</ele>
        <time>2022-05-21 08:20:29</time>
      </trkpt>
      <trkpt lat="42.08432" lon="2.98307">
        <ele>19.2</ele>
        <time>2022-05-21 08:20:30</time>
      </trkpt>
      <trkpt lat="42.08439" lon="2.98307">
        <ele>19.2</ele>
        <time>2022-05-21 08:20:31</time>
      </trkpt>
      <trkpt lat="42.08446" lon="2.98307">
        <ele>19.2</ele>
        <time>2022-05-21 08:20:32</time>
      </trkpt>
      <trkpt lat="42.08453" lon="2.98307">
        <ele>19.2</ele>
        <time>2022-05-21 08:20:33</time>
      </trkpt>
      <trkpt lat="42.0846" lon="2.98307">
        <ele>19.2</ele>
        <time>2022-05-21 08:20:34</time>
      </trkpt>
      <trkpt lat="42.08466" lon="2.98307">
        <ele>19.2</ele>
        <time>2022-05-21 08:20:35</time>
      </trkpt>
      <trkpt lat="42.08474" lon="2.98308">
        <ele>19.2</ele>
        <time>2022-05-21 08:20:36</time>
      </trkpt>
      <trkpt lat="42.08481" lon="2.98309">
        <ele>19.2</ele>
        <time>2022-05-21 08:20:37</time>
      </trkpt>
      <trkpt lat="42.08488" lon="2.98309">
        <ele>19.2</ele>
        <time>2022-05-21 08:20:38</time>
      </trkpt>
      <trkpt lat="42.08495" lon="2.9831">
        <ele>19.2</ele>
        <time>2022-05-21 08:20:39</time>
      </trkpt>
      <trkpt lat="42.08502" lon="2.9831">
        <ele>19.2</ele>
        <time>2022-05-21 08:20:40</time>
      </trkpt>
      <trkpt lat="42.08509" lon="2.9831">
        <ele>19.2</ele>
        <time>2022-05-21 08:20:41</time>
      </trkpt>
      <trkpt lat="42.08516" lon="2.98311">
        <ele>19.2</ele>
        <time>2022-05-21 08:20:42</time>
      </trkpt>
      <trkpt lat="42.08523" lon="2.98311">
        <ele>19.2</ele>
        <time>2022-05-21 08:20:43</time>
      </trkpt>
      <trkpt lat="42.08531" lon="2.98312">
        <ele>19.2</ele>
        <time>2022-05-21 08:20:44</time>
      </trkpt>
      <trkpt lat="42.08538" lon="2.98313">
        <ele>19.2</ele>
        <time>2022-05-21 08:20:45</time>
      </trkpt>
      <trkpt lat="42.08545" lon="2.98313">
        <ele>19.2</ele>
        <time>2022-05-21 08:20:46</time>
      </trkpt>
      <trkpt lat="42.08553" lon="2.98313">
        <ele>19.2</ele>
        <time>2022-05-21 08:20:47</time>
      </trkpt>
      <trkpt lat="42.0856" lon="2.98313">
        <ele>19.2</ele>
        <time>2022-05-21 08:20:48</time>
      </trkpt>
      <trkpt lat="42.08568" lon="2.98314">
        <ele>19.2</ele>
        <time>2022-05-21 08:20:49</time>
      </trkpt>
      <trkpt lat="42.08575" lon="2.98314">
        <ele>19.2</ele>
        <time>2022-05-21 08:20:50</time>
      </trkpt>
      <trkpt lat="42.08582" lon="2.98314">
        <ele>19.2</ele>
        <time>2022-05-21 08:20:51</time>
      </trkpt>
      <trkpt lat="42.0859" lon="2.98314">
        <ele>19.2</ele>
        <time>2022-05-21 08:20:52</time>
      </trkpt>
      <trkpt lat="42.08597" lon="2.98315">
        <ele>19.2</ele>
        <time>2022-05-21 08:20:53</time>
      </trkpt>
      <trkpt lat="42.08604" lon="2.98316">
        <ele>19.4</ele>
        <time>2022-05-21 08:20:54</time>
      </trkpt>
      <trkpt lat="42.08612" lon="2.98316">
        <ele>19.4</ele>
        <time>2022-05-21 08:20:55</time>
      </trkpt>
      <trkpt lat="42.08619" lon="2.98316">
        <ele>19.4</ele>
        <time>2022-05-21 08:20:56</time>
      </trkpt>
      <trkpt lat="42.08627" lon="2.98316">
        <ele>19.4</ele>
        <time>2022-05-21 08:20:57</time>
      </trkpt>
      <trkpt lat="42.08634" lon="2.98317">
        <ele>19.4</ele>
        <time>2022-05-21 08:20:58</time>
      </trkpt>
      <trkpt lat="42.08641" lon="2.98317">
        <ele>19.4</ele>
        <time>2022-05-21 08:20:59</time>
      </trkpt>
      <trkpt lat="42.08649" lon="2.98318">
        <ele>19.4</ele>
        <time>2022-05-21 08:21:00</time>
      </trkpt>
      <trkpt lat="42.08657" lon="2.98318">
        <ele>19.4</ele>
        <time>2022-05-21 08:21:01</time>
      </trkpt>
      <trkpt lat="42.08665" lon="2.98319">
        <ele>19.4</ele>
        <time>2022-05-21 08:21:02</time>
      </trkpt>
      <trkpt lat="42.08672" lon="2.98319">
        <ele>19.4</ele>
        <time>2022-05-21 08:21:03</time>
      </trkpt>
      <trkpt lat="42.0868" lon="2.98319">
        <ele>19.4</ele>
        <time>2022-05-21 08:21:04</time>
      </trkpt>
      <trkpt lat="42.08687" lon="2.9832">
        <ele>19.4</ele>
        <time>2022-05-21 08:21:05</time>
      </trkpt>
      <trkpt lat="42.08695" lon="2.9832">
        <ele>19.4</ele>
        <time>2022-05-21 08:21:06</time>
      </trkpt>
      <trkpt lat="42.08702" lon="2.9832">
        <ele>19.4</ele>
        <time>2022-05-21 08:21:07</time>
      </trkpt>
      <trkpt lat="42.0871" lon="2.9832">
        <ele>19.4</ele>
        <time>2022-05-21 08:21:08</time>
      </trkpt>
      <trkpt lat="42.08717" lon="2.98321">
        <ele>19.4</ele>
        <time>2022-05-21 08:21:09</time>
      </trkpt>
      <trkpt lat="42.08725" lon="2.98321">
        <ele>19.6</ele>
        <time>2022-05-21 08:21:10</time>
      </trkpt>
      <trkpt lat="42.08732" lon="2.98321">
        <ele>19.6</ele>
        <time>2022-05-21 08:21:11</time>
      </trkpt>
      <trkpt lat="42.08739" lon="2.98322">
        <ele>19.8</ele>
        <time>2022-05-21 08:21:12</time>
      </trkpt>
      <trkpt lat="42.08746" lon="2.98322">
        <ele>19.8</ele>
        <time>2022-05-21 08:21:13</time>
      </trkpt>
      <trkpt lat="42.08753" lon="2.98323">
        <ele>20</ele>
        <time>2022-05-21 08:21:14</time>
      </trkpt>
      <trkpt lat="42.08761" lon="2.98323">
        <ele>20</ele>
        <time>2022-05-21 08:21:15</time>
      </trkpt>
      <trkpt lat="42.08768" lon="2.98324">
        <ele>20.2</ele>
        <time>2022-05-21 08:21:16</time>
      </trkpt>
      <trkpt lat="42.08775" lon="2.98324">
        <ele>20.2</ele>
        <time>2022-05-21 08:21:17</time>
      </trkpt>
      <trkpt lat="42.08782" lon="2.98324">
        <ele>20.4</ele>
        <time>2022-05-21 08:21:18</time>
      </trkpt>
      <trkpt lat="42.08789" lon="2.98325">
        <ele>20.4</ele>
        <time>2022-05-21 08:21:19</time>
      </trkpt>
      <trkpt lat="42.08796" lon="2.98325">
        <ele>20.6</ele>
        <time>2022-05-21 08:21:20</time>
      </trkpt>
      <trkpt lat="42.08804" lon="2.98325">
        <ele>20.6</ele>
        <time>2022-05-21 08:21:21</time>
      </trkpt>
      <trkpt lat="42.08811" lon="2.98325">
        <ele>20.8</ele>
        <time>2022-05-21 08:21:22</time>
      </trkpt>
      <trkpt lat="42.08818" lon="2.98326">
        <ele>20.8</ele>
        <time>2022-05-21 08:21:23</time>
      </trkpt>
      <trkpt lat="42.08826" lon="2.98326">
        <ele>21</ele>
        <time>2022-05-21 08:21:24</time>
      </trkpt>
      <trkpt lat="42.08833" lon="2.98327">
        <ele>21</ele>
        <time>2022-05-21 08:21:25</time>
      </trkpt>
      <trkpt lat="42.0884" lon="2.98327">
        <ele>21.2</ele>
        <time>2022-05-21 08:21:26</time>
      </trkpt>
      <trkpt lat="42.08847" lon="2.98327">
        <ele>21.2</ele>
        <time>2022-05-21 08:21:27</time>
      </trkpt>
      <trkpt lat="42.08854" lon="2.98328">
        <ele>21.4</ele>
        <time>2022-05-21 08:21:28</time>
      </trkpt>
      <trkpt lat="42.08862" lon="2.98328">
        <ele>21.4</ele>
        <time>2022-05-21 08:21:29</time>
      </trkpt>
      <trkpt lat="42.08869" lon="2.98328">
        <ele>21.6</ele>
        <time>2022-05-21 08:21:30</time>
      </trkpt>
      <trkpt lat="42.08876" lon="2.98329">
        <ele>21.6</ele>
        <time>2022-05-21 08:21:31</time>
      </trkpt>
      <trkpt lat="42.08883" lon="2.98329">
        <ele>21.8</ele>
        <time>2022-05-21 08:21:32</time>
      </trkpt>
      <trkpt lat="42.08891" lon="2.9833">
        <ele>21.8</ele>
        <time>2022-05-21 08:21:33</time>
      </trkpt>
      <trkpt lat="42.08898" lon="2.9833">
        <ele>22</ele>
        <time>2022-05-21 08:21:34</time>
      </trkpt>
      <trkpt lat="42.08905" lon="2.9833">
        <ele>22</ele>
        <time>2022-05-21 08:21:35</time>
      </trkpt>
      <trkpt lat="42.08911" lon="2.9833">
        <ele>22.2</ele>
        <time>2022-05-21 08:21:36</time>
      </trkpt>
      <trkpt lat="42.08919" lon="2.98331">
        <ele>22.2</ele>
        <time>2022-05-21 08:21:37</time>
      </trkpt>
      <trkpt lat="42.08926" lon="2.98331">
        <ele>22.4</ele>
        <time>2022-05-21 08:21:38</time>
      </trkpt>
      <trkpt lat="42.08933" lon="2.98331">
        <ele>22.4</ele>
        <time>2022-05-21 08:21:39</time>
      </trkpt>
      <trkpt lat="42.0894" lon="2.98331">
        <ele>22.6</ele>
        <time>2022-05-21 08:21:40</time>
      </trkpt>
      <trkpt lat="42.08947" lon="2.98332">
        <ele>22.6</ele>
        <time>2022-05-21 08:21:41</time>
      </trkpt>
      <trkpt lat="42.08954" lon="2.98332">
        <ele>22.6</ele>
        <time>2022-05-21 08:21:42</time>
      </trkpt>
      <trkpt lat="42.08962" lon="2.98332">
        <ele>22.8</ele>
        <time>2022-05-21 08:21:43</time>
      </trkpt>
      <trkpt lat="42.08969" lon="2.98333">
        <ele>22.8</ele>
        <time>2022-05-21 08:21:44</time>
      </trkpt>
      <trkpt lat="42.08976" lon="2.98333">
        <ele>23</ele>
        <time>2022-05-21 08:21:45</time>
      </trkpt>
      <trkpt lat="42.08983" lon="2.98333">
        <ele>23</ele>
        <time>2022-05-21 08:21:46</time>
      </trkpt>
      <trkpt lat="42.0899" lon="2.98334">
        <ele>23</ele>
        <time>2022-05-21 08:21:47</time>
      </trkpt>
      <trkpt lat="42.08998" lon="2.98334">
        <ele>23</ele>
        <time>2022-05-21 08:21:48</time>
      </trkpt>
      <trkpt lat="42.09005" lon="2.98335">
        <ele>23.2</ele>
        <time>2022-05-21 08:21:49</time>
      </trkpt>
      <trkpt lat="42.09012" lon="2.98335">
        <ele>23.2</ele>
        <time>2022-05-21 08:21:50</time>
      </trkpt>
      <trkpt lat="42.0902" lon="2.98335">
        <ele>23.2</ele>
        <time>2022-05-21 08:21:51</time>
      </trkpt>
      <trkpt lat="42.09027" lon="2.98335">
        <ele>23.4</ele>
        <time>2022-05-21 08:21:52</time>
      </trkpt>
      <trkpt lat="42.09034" lon="2.98336">
        <ele>23.4</ele>
        <time>2022-05-21 08:21:53</time>
      </trkpt>
      <trkpt lat="42.09041" lon="2.98336">
        <ele>23.4</ele>
        <time>2022-05-21 08:21:54</time>
      </trkpt>
      <trkpt lat="42.09048" lon="2.98336">
        <ele>23.4</ele>
        <time>2022-05-21 08:21:55</time>
      </trkpt>
      <trkpt lat="42.09056" lon="2.98337">
        <ele>23.6</ele>
        <time>2022-05-21 08:21:56</time>
      </trkpt>
      <trkpt lat="42.09063" lon="2.98337">
        <ele>23.6</ele>
        <time>2022-05-21 08:21:57</time>
      </trkpt>
      <trkpt lat="42.09071" lon="2.98337">
        <ele>23.6</ele>
        <time>2022-05-21 08:21:58</time>
      </trkpt>
      <trkpt lat="42.09078" lon="2.98337">
        <ele>23.6</ele>
        <time>2022-05-21 08:21:59</time>
      </trkpt>
      <trkpt lat="42.09085" lon="2.98338">
        <ele>23.6</ele>
        <time>2022-05-21 08:22:00</time>
      </trkpt>
      <trkpt lat="42.09092" lon="2.98338">
        <ele>23.6</ele>
        <time>2022-05-21 08:22:01</time>
      </trkpt>
      <trkpt lat="42.091" lon="2.98338">
        <ele>23.8</ele>
        <time>2022-05-21 08:22:02</time>
      </trkpt>
      <trkpt lat="42.09108" lon="2.98338">
        <ele>23.8</ele>
        <time>2022-05-21 08:22:03</time>
      </trkpt>
      <trkpt lat="42.09115" lon="2.98338">
        <ele>23.8</ele>
        <time>2022-05-21 08:22:04</time>
      </trkpt>
      <trkpt lat="42.09122" lon="2.98339">
        <ele>23.8</ele>
        <time>2022-05-21 08:22:05</time>
      </trkpt>
      <trkpt lat="42.0913" lon="2.9834">
        <ele>23.8</ele>
        <time>2022-05-21 08:22:06</time>
      </trkpt>
      <trkpt lat="42.09137" lon="2.9834">
        <ele>23.8</ele>
        <time>2022-05-21 08:22:07</time>
      </trkpt>
      <trkpt lat="42.09145" lon="2.9834">
        <ele>23.8</ele>
        <time>2022-05-21 08:22:08</time>
      </trkpt>
      <trkpt lat="42.09152" lon="2.98341">
        <ele>23.8</ele>
        <time>2022-05-21 08:22:09</time>
      </trkpt>
      <trkpt lat="42.09159" lon="2.98341">
        <ele>23.8</ele>
        <time>2022-05-21 08:22:10</time>
      </trkpt>
      <trkpt lat="42.09166" lon="2.98341">
        <ele>24</ele>
        <time>2022-05-21 08:22:11</time>
      </trkpt>
      <trkpt lat="42.09174" lon="2.98342">
        <ele>24</ele>
        <time>2022-05-21 08:22:12</time>
      </trkpt>
      <trkpt lat="42.09181" lon="2.98342">
        <ele>24</ele>
        <time>2022-05-21 08:22:13</time>
      </trkpt>
      <trkpt lat="42.09189" lon="2.98342">
        <ele>24</ele>
        <time>2022-05-21 08:22:14</time>
      </trkpt>
      <trkpt lat="42.09196" lon="2.98342">
        <ele>24</ele>
        <time>2022-05-21 08:22:15</time>
      </trkpt>
      <trkpt lat="42.09203" lon="2.98343">
        <ele>24</ele>
        <time>2022-05-21 08:22:16</time>
      </trkpt>
      <trkpt lat="42.0921" lon="2.98343">
        <ele>24.2</ele>
        <time>2022-05-21 08:22:17</time>
      </trkpt>
      <trkpt lat="42.09218" lon="2.98343">
        <ele>24.2</ele>
        <time>2022-05-21 08:22:18</time>
      </trkpt>
      <trkpt lat="42.09225" lon="2.98344">
        <ele>24.2</ele>
        <time>2022-05-21 08:22:19</time>
      </trkpt>
      <trkpt lat="42.09232" lon="2.98344">
        <ele>24.2</ele>
        <time>2022-05-21 08:22:20</time>
      </trkpt>
      <trkpt lat="42.09239" lon="2.98344">
        <ele>24.2</ele>
        <time>2022-05-21 08:22:21</time>
      </trkpt>
      <trkpt lat="42.09247" lon="2.98345">
        <ele>24.2</ele>
        <time>2022-05-21 08:22:22</time>
      </trkpt>
      <trkpt lat="42.09254" lon="2.98345">
        <ele>24.2</ele>
        <time>2022-05-21 08:22:23</time>
      </trkpt>
      <trkpt lat="42.09261" lon="2.98345">
        <ele>24.2</ele>
        <time>2022-05-21 08:22:24</time>
      </trkpt>
      <trkpt lat="42.09268" lon="2.98346">
        <ele>24.2</ele>
        <time>2022-05-21 08:22:25</time>
      </trkpt>
      <trkpt lat="42.09275" lon="2.98346">
        <ele>24.2</ele>
        <time>2022-05-21 08:22:26</time>
      </trkpt>
      <trkpt lat="42.09283" lon="2.98346">
        <ele>24.4</ele>
        <time>2022-05-21 08:22:27</time>
      </trkpt>
      <trkpt lat="42.09289" lon="2.98346">
        <ele>24.4</ele>
        <time>2022-05-21 08:22:28</time>
      </trkpt>
      <trkpt lat="42.09297" lon="2.98347">
        <ele>24.4</ele>
        <time>2022-05-21 08:22:29</time>
      </trkpt>
      <trkpt lat="42.09304" lon="2.98348">
        <ele>24.4</ele>
        <time>2022-05-21 08:22:30</time>
      </trkpt>
      <trkpt lat="42.09311" lon="2.98349">
        <ele>24.6</ele>
        <time>2022-05-21 08:22:31</time>
      </trkpt>
      <trkpt lat="42.09318" lon="2.98352">
        <ele>24.6</ele>
        <time>2022-05-21 08:22:32</time>
      </trkpt>
      <trkpt lat="42.09325" lon="2.98355">
        <ele>24.8</ele>
        <time>2022-05-21 08:22:33</time>
      </trkpt>
      <trkpt lat="42.09331" lon="2.98358">
        <ele>24.8</ele>
        <time>2022-05-21 08:22:34</time>
      </trkpt>
      <trkpt lat="42.09338" lon="2.98362">
        <ele>25</ele>
        <time>2022-05-21 08:22:35</time>
      </trkpt>
      <trkpt lat="42.09344" lon="2.98366">
        <ele>25</ele>
        <time>2022-05-21 08:22:36</time>
      </trkpt>
      <trkpt lat="42.0935" lon="2.98369">
        <ele>25.2</ele>
        <time>2022-05-21 08:22:37</time>
      </trkpt>
      <trkpt lat="42.09356" lon="2.98373">
        <ele>25.2</ele>
        <time>2022-05-21 08:22:38</time>
      </trkpt>
      <trkpt lat="42.09362" lon="2.98377">
        <ele>25.4</ele>
        <time>2022-05-21 08:22:39</time>
      </trkpt>
      <trkpt lat="42.09368" lon="2.98381">
        <ele>25.4</ele>
        <time>2022-05-21 08:22:40</time>
      </trkpt>
      <trkpt lat="42.09374" lon="2.98384">
        <ele>25.6</ele>
        <time>2022-05-21 08:22:41</time>
      </trkpt>
      <trkpt lat="42.0938" lon="2.98388">
        <ele>25.6</ele>
        <time>2022-05-21 08:22:42</time>
      </trkpt>
      <trkpt lat="42.09385" lon="2.98392">
        <ele>25.8</ele>
        <time>2022-05-21 08:22:43</time>
      </trkpt>
      <trkpt lat="42.09391" lon="2.98395">
        <ele>26</ele>
        <time>2022-05-21 08:22:44</time>
      </trkpt>
      <trkpt lat="42.09397" lon="2.98399">
        <ele>26</ele>
        <time>2022-05-21 08:22:45</time>
      </trkpt>
      <trkpt lat="42.09403" lon="2.98402">
        <ele>26.2</ele>
        <time>2022-05-21 08:22:46</time>
      </trkpt>
      <trkpt lat="42.09408" lon="2.98406">
        <ele>26.2</ele>
        <time>2022-05-21 08:22:47</time>
      </trkpt>
      <trkpt lat="42.09414" lon="2.98409">
        <ele>26.4</ele>
        <time>2022-05-21 08:22:48</time>
      </trkpt>
      <trkpt lat="42.09419" lon="2.98412">
        <ele>26.4</ele>
        <time>2022-05-21 08:22:49</time>
      </trkpt>
      <trkpt lat="42.09425" lon="2.98416">
        <ele>26.6</ele>
        <time>2022-05-21 08:22:50</time>
      </trkpt>
      <trkpt lat="42.09431" lon="2.98419">
        <ele>26.8</ele>
        <time>2022-05-21 08:22:51</time>
      </trkpt>
      <trkpt lat="42.09436" lon="2.98423">
        <ele>26.8</ele>
        <time>2022-05-21 08:22:52</time>
      </trkpt>
      <trkpt lat="42.09442" lon="2.98426">
        <ele>27</ele>
        <time>2022-05-21 08:22:53</time>
      </trkpt>
      <trkpt lat="42.09447" lon="2.98429">
        <ele>27</ele>
        <time>2022-05-21 08:22:54</time>
      </trkpt>
      <trkpt lat="42.09452" lon="2.98433">
        <ele>27.2</ele>
        <time>2022-05-21 08:22:55</time>
      </trkpt>
      <trkpt lat="42.09458" lon="2.98436">
        <ele>27.4</ele>
        <time>2022-05-21 08:22:56</time>
      </trkpt>
      <trkpt lat="42.09463" lon="2.98439">
        <ele>27.4</ele>
        <time>2022-05-21 08:22:57</time>
      </trkpt>
      <trkpt lat="42.09468" lon="2.98442">
        <ele>27.6</ele>
        <time>2022-05-21 08:22:58</time>
      </trkpt>
      <trkpt lat="42.09473" lon="2.98446">
        <ele>27.8</ele>
        <time>2022-05-21 08:22:59</time>
      </trkpt>
      <trkpt lat="42.09478" lon="2.98449">
        <ele>27.8</ele>
        <time>2022-05-21 08:23:00</time>
      </trkpt>
      <trkpt lat="42.09483" lon="2.98452">
        <ele>28</ele>
        <time>2022-05-21 08:23:01</time>
      </trkpt>
      <trkpt lat="42.09489" lon="2.98455">
        <ele>28.2</ele>
        <time>2022-05-21 08:23:02</time>
      </trkpt>
      <trkpt lat="42.09494" lon="2.98458">
        <ele>28.4</ele>
        <time>2022-05-21 08:23:03</time>
      </trkpt>
      <trkpt lat="42.09499" lon="2.98461">
        <ele>28.6</ele>
        <time>2022-05-21 08:23:04</time>
      </trkpt>
      <trkpt lat="42.09504" lon="2.98464">
        <ele>28.8</ele>
        <time>2022-05-21 08:23:05</time>
      </trkpt>
      <trkpt lat="42.09509" lon="2.98468">
        <ele>29</ele>
        <time>2022-05-21 08:23:06</time>
      </trkpt>
      <trkpt lat="42.09514" lon="2.98471">
        <ele>29.2</ele>
        <time>2022-05-21 08:23:07</time>
      </trkpt>
      <trkpt lat="42.09519" lon="2.98474">
        <ele>29.4</ele>
        <time>2022-05-21 08:23:08</time>
      </trkpt>
      <trkpt lat="42.09524" lon="2.98477">
        <ele>29.6</ele>
        <time>2022-05-21 08:23:09</time>
      </trkpt>
      <trkpt lat="42.09529" lon="2.9848">
        <ele>29.8</ele>
        <time>2022-05-21 08:23:10</time>
      </trkpt>
      <trkpt lat="42.09534" lon="2.98483">
        <ele>30</ele>
        <time>2022-05-21 08:23:11</time>
      </trkpt>
      <trkpt lat="42.09539" lon="2.98486">
        <ele>30.2</ele>
        <time>2022-05-21 08:23:12</time>
      </trkpt>
      <trkpt lat="42.09545" lon="2.98489">
        <ele>30.4</ele>
        <time>2022-05-21 08:23:13</time>
      </trkpt>
      <trkpt lat="42.0955" lon="2.98492">
        <ele>30.6</ele>
        <time>2022-05-21 08:23:14</time>
      </trkpt>
      <trkpt lat="42.09554" lon="2.98495">
        <ele>30.8</ele>
        <time>2022-05-21 08:23:15</time>
      </trkpt>
      <trkpt lat="42.09559" lon="2.98498">
        <ele>31</ele>
        <time>2022-05-21 08:23:16</time>
      </trkpt>
      <trkpt lat="42.09564" lon="2.98501">
        <ele>31.2</ele>
        <time>2022-05-21 08:23:17</time>
      </trkpt>
      <trkpt lat="42.09569" lon="2.98504">
        <ele>31.4</ele>
        <time>2022-05-21 08:23:18</time>
      </trkpt>
      <trkpt lat="42.09574" lon="2.98507">
        <ele>31.6</ele>
        <time>2022-05-21 08:23:19</time>
      </trkpt>
      <trkpt lat="42.09578" lon="2.9851">
        <ele>31.8</ele>
        <time>2022-05-21 08:23:20</time>
      </trkpt>
      <trkpt lat="42.09583" lon="2.98513">
        <ele>32</ele>
        <time>2022-05-21 08:23:21</time>
      </trkpt>
      <trkpt lat="42.09588" lon="2.98515">
        <ele>32.2</ele>
        <time>2022-05-21 08:23:22</time>
      </trkpt>
      <trkpt lat="42.09592" lon="2.98518">
        <ele>32.4</ele>
        <time>2022-05-21 08:23:23</time>
      </trkpt>
      <trkpt lat="42.09597" lon="2.98521">
        <ele>32.4</ele>
        <time>2022-05-21 08:23:24</time>
      </trkpt>
      <trkpt lat="42.09601" lon="2.98524">
        <ele>32.6</ele>
        <time>2022-05-21 08:23:25</time>
      </trkpt>
      <trkpt lat="42.09606" lon="2.98527">
        <ele>32.8</ele>
        <time>2022-05-21 08:23:26</time>
      </trkpt>
      <trkpt lat="42.0961" lon="2.98529">
        <ele>33</ele>
        <time>2022-05-21 08:23:27</time>
      </trkpt>
      <trkpt lat="42.09614" lon="2.98532">
        <ele>33.2</ele>
        <time>2022-05-21 08:23:28</time>
      </trkpt>
      <trkpt lat="42.09619" lon="2.98535">
        <ele>33.4</ele>
        <time>2022-05-21 08:23:29</time>
      </trkpt>
      <trkpt lat="42.09623" lon="2.98537">
        <ele>33.6</ele>
        <time>2022-05-21 08:23:30</time>
      </trkpt>
      <trkpt lat="42.09627" lon="2.9854">
        <ele>33.8</ele>
        <time>2022-05-21 08:23:31</time>
      </trkpt>
      <trkpt lat="42.09631" lon="2.98543">
        <ele>33.8</ele>
        <time>2022-05-21 08:23:32</time>
      </trkpt>
      <trkpt lat="42.09635" lon="2.98545">
        <ele>34</ele>
        <time>2022-05-21 08:23:33</time>
      </trkpt>
      <trkpt lat="42.0964" lon="2.98548">
        <ele>34.2</ele>
        <time>2022-05-21 08:23:34</time>
      </trkpt>
      <trkpt lat="42.09645" lon="2.98551">
        <ele>34.4</ele>
        <time>2022-05-21 08:23:35</time>
      </trkpt>
      <trkpt lat="42.09649" lon="2.98553">
        <ele>34.6</ele>
        <time>2022-05-21 08:23:36</time>
      </trkpt>
      <trkpt lat="42.09653" lon="2.98556">
        <ele>34.6</ele>
        <time>2022-05-21 08:23:37</time>
      </trkpt>
      <trkpt lat="42.09658" lon="2.98559">
        <ele>34.8</ele>
        <time>2022-05-21 08:23:38</time>
      </trkpt>
      <trkpt lat="42.09662" lon="2.98561">
        <ele>35</ele>
        <time>2022-05-21 08:23:39</time>
      </trkpt>
      <trkpt lat="42.09666" lon="2.98564">
        <ele>35.2</ele>
        <time>2022-05-21 08:23:40</time>
      </trkpt>
      <trkpt lat="42.09671" lon="2.98566">
        <ele>35.4</ele>
        <time>2022-05-21 08:23:41</time>
      </trkpt>
      <trkpt lat="42.09675" lon="2.98569">
        <ele>35.4</ele>
        <time>2022-05-21 08:23:42</time>
      </trkpt>
      <trkpt lat="42.09679" lon="2.98572">
        <ele>35.6</ele>
        <time>2022-05-21 08:23:43</time>
      </trkpt>
      <trkpt lat="42.09684" lon="2.98574">
        <ele>35.8</ele>
        <time>2022-05-21 08:23:44</time>
      </trkpt>
      <trkpt lat="42.09688" lon="2.98577">
        <ele>36</ele>
        <time>2022-05-21 08:23:45</time>
      </trkpt>
      <trkpt lat="42.09692" lon="2.9858">
        <ele>36</ele>
        <time>2022-05-21 08:23:46</time>
      </trkpt>
      <trkpt lat="42.09697" lon="2.98582">
        <ele>36.2</ele>
        <time>2022-05-21 08:23:47</time>
      </trkpt>
      <trkpt lat="42.09701" lon="2.98585">
        <ele>36.4</ele>
        <time>2022-05-21 08:23:48</time>
      </trkpt>
      <trkpt lat="42.09705" lon="2.98588">
        <ele>36.6</ele>
        <time>2022-05-21 08:23:49</time>
      </trkpt>
      <trkpt lat="42.0971" lon="2.9859">
        <ele>36.8</ele>
        <time>2022-05-21 08:23:50</time>
      </trkpt>
      <trkpt lat="42.09714" lon="2.98593">
        <ele>37</ele>
        <time>2022-05-21 08:23:51</time>
      </trkpt>
      <trkpt lat="42.09719" lon="2.98595">
        <ele>37.2</ele>
        <time>2022-05-21 08:23:52</time>
      </trkpt>
      <trkpt lat="42.09723" lon="2.98598">
        <ele>37.2</ele>
        <time>2022-05-21 08:23:53</time>
      </trkpt>
      <trkpt lat="42.09727" lon="2.986">
        <ele>37.4</ele>
        <time>2022-05-21 08:23:54</time>
      </trkpt>
      <trkpt lat="42.09732" lon="2.98603">
        <ele>37.6</ele>
        <time>2022-05-21 08:23:55</time>
      </trkpt>
      <trkpt lat="42.09736" lon="2.98606">
        <ele>37.8</ele>
        <time>2022-05-21 08:23:56</time>
      </trkpt>
      <trkpt lat="42.0974" lon="2.98608">
        <ele>38</ele>
        <time>2022-05-21 08:23:57</time>
      </trkpt>
      <trkpt lat="42.09745" lon="2.9861">
        <ele>38.2</ele>
        <time>2022-05-21 08:23:58</time>
      </trkpt>
      <trkpt lat="42.09749" lon="2.98613">
        <ele>38.2</ele>
        <time>2022-05-21 08:23:59</time>
      </trkpt>
      <trkpt lat="42.09754" lon="2.98616">
        <ele>38.4</ele>
        <time>2022-05-21 08:24:00</time>
      </trkpt>
      <trkpt lat="42.09758" lon="2.98619">
        <ele>38.4</ele>
        <time>2022-05-21 08:24:01</time>
      </trkpt>
      <trkpt lat="42.09763" lon="2.98622">
        <ele>38.6</ele>
        <time>2022-05-21 08:24:02</time>
      </trkpt>
      <trkpt lat="42.09767" lon="2.98625">
        <ele>38.6</ele>
        <time>2022-05-21 08:24:03</time>
      </trkpt>
      <trkpt lat="42.09772" lon="2.98628">
        <ele>38.6</ele>
        <time>2022-05-21 08:24:04</time>
      </trkpt>
      <trkpt lat="42.09777" lon="2.98631">
        <ele>38.6</ele>
        <time>2022-05-21 08:24:05</time>
      </trkpt>
      <trkpt lat="42.09782" lon="2.98634">
        <ele>38.6</ele>
        <time>2022-05-21 08:24:06</time>
      </trkpt>
      <trkpt lat="42.09787" lon="2.98637">
        <ele>38.6</ele>
        <time>2022-05-21 08:24:07</time>
      </trkpt>
      <trkpt lat="42.09792" lon="2.9864">
        <ele>38.8</ele>
        <time>2022-05-21 08:24:08</time>
      </trkpt>
      <trkpt lat="42.09798" lon="2.98643">
        <ele>38.8</ele>
        <time>2022-05-21 08:24:09</time>
      </trkpt>
      <trkpt lat="42.09803" lon="2.98646">
        <ele>38.8</ele>
        <time>2022-05-21 08:24:10</time>
      </trkpt>
      <trkpt lat="42.09808" lon="2.98649">
        <ele>39</ele>
        <time>2022-05-21 08:24:11</time>
      </trkpt>
      <trkpt lat="42.09813" lon="2.98652">
        <ele>39</ele>
        <time>2022-05-21 08:24:12</time>
      </trkpt>
      <trkpt lat="42.09819" lon="2.98656">
        <ele>39</ele>
        <time>2022-05-21 08:24:13</time>
      </trkpt>
      <trkpt lat="42.09824" lon="2.98659">
        <ele>39</ele>
        <time>2022-05-21 08:24:14</time>
      </trkpt>
      <trkpt lat="42.0983" lon="2.98663">
        <ele>39</ele>
        <time>2022-05-21 08:24:15</time>
      </trkpt>
      <trkpt lat="42.09835" lon="2.98667">
        <ele>39</ele>
        <time>2022-05-21 08:24:16</time>
      </trkpt>
      <trkpt lat="42.09841" lon="2.9867">
        <ele>39.2</ele>
        <time>2022-05-21 08:24:17</time>
      </trkpt>
      <trkpt lat="42.09846" lon="2.98673">
        <ele>39.2</ele>
        <time>2022-05-21 08:24:18</time>
      </trkpt>
      <trkpt lat="42.09852" lon="2.98677">
        <ele>39.2</ele>
        <time>2022-05-21 08:24:19</time>
      </trkpt>
      <trkpt lat="42.09857" lon="2.9868">
        <ele>39.2</ele>
        <time>2022-05-21 08:24:20</time>
      </trkpt>
      <trkpt lat="42.09863" lon="2.98684">
        <ele>39.2</ele>
        <time>2022-05-21 08:24:21</time>
      </trkpt>
      <trkpt lat="42.09869" lon="2.98687">
        <ele>39.4</ele>
        <time>2022-05-21 08:24:22</time>
      </trkpt>
      <trkpt lat="42.09874" lon="2.9869">
        <ele>39.4</ele>
        <time>2022-05-21 08:24:23</time>
      </trkpt>
      <trkpt lat="42.0988" lon="2.98693">
        <ele>39.4</ele>
        <time>2022-05-21 08:24:24</time>
      </trkpt>
      <trkpt lat="42.09885" lon="2.98697">
        <ele>39.4</ele>
        <time>2022-05-21 08:24:25</time>
      </trkpt>
      <trkpt lat="42.09891" lon="2.987">
        <ele>39.4</ele>
        <time>2022-05-21 08:24:26</time>
      </trkpt>
      <trkpt lat="42.09896" lon="2.98704">
        <ele>39.6</ele>
        <time>2022-05-21 08:24:27</time>
      </trkpt>
      <trkpt lat="42.09902" lon="2.98708">
        <ele>39.6</ele>
        <time>2022-05-21 08:24:28</time>
      </trkpt>
      <trkpt lat="42.09907" lon="2.98712">
        <ele>39.6</ele>
        <time>2022-05-21 08:24:29</time>
      </trkpt>
      <trkpt lat="42.09913" lon="2.98716">
        <ele>39.6</ele>
        <time>2022-05-21 08:24:30</time>
      </trkpt>
      <trkpt lat="42.09918" lon="2.9872">
        <ele>39.8</ele>
        <time>2022-05-21 08:24:31</time>
      </trkpt>
      <trkpt lat="42.09924" lon="2.98725">
        <ele>39.8</ele>
        <time>2022-05-21 08:24:32</time>
      </trkpt>
      <trkpt lat="42.09928" lon="2.9873">
        <ele>39.8</ele>
        <time>2022-05-21 08:24:33</time>
      </trkpt>
      <trkpt lat="42.09933" lon="2.98735">
        <ele>39.8</ele>
        <time>2022-05-21 08:24:34</time>
      </trkpt>
      <trkpt lat="42.09937" lon="2.98741">
        <ele>39.8</ele>
        <time>2022-05-21 08:24:35</time>
      </trkpt>
      <trkpt lat="42.09942" lon="2.98747">
        <ele>39.8</ele>
        <time>2022-05-21 08:24:36</time>
      </trkpt>
      <trkpt lat="42.09947" lon="2.98753">
        <ele>40</ele>
        <time>2022-05-21 08:24:37</time>
      </trkpt>
      <trkpt lat="42.09951" lon="2.98759">
        <ele>40</ele>
        <time>2022-05-21 08:24:38</time>
      </trkpt>
      <trkpt lat="42.09955" lon="2.98765">
        <ele>40.2</ele>
        <time>2022-05-21 08:24:39</time>
      </trkpt>
      <trkpt lat="42.09959" lon="2.98771">
        <ele>40.2</ele>
        <time>2022-05-21 08:24:40</time>
      </trkpt>
      <trkpt lat="42.09963" lon="2.98776">
        <ele>40.6</ele>
        <time>2022-05-21 08:24:41</time>
      </trkpt>
      <trkpt lat="42.09967" lon="2.98782">
        <ele>40.8</ele>
        <time>2022-05-21 08:24:42</time>
      </trkpt>
      <trkpt lat="42.09971" lon="2.98787">
        <ele>41</ele>
        <time>2022-05-21 08:24:43</time>
      </trkpt>
      <trkpt lat="42.09975" lon="2.98792">
        <ele>41.4</ele>
        <time>2022-05-21 08:24:44</time>
      </trkpt>
      <trkpt lat="42.09978" lon="2.98797">
        <ele>41.6</ele>
        <time>2022-05-21 08:24:45</time>
      </trkpt>
      <trkpt lat="42.09981" lon="2.98801">
        <ele>42</ele>
        <time>2022-05-21 08:24:46</time>
      </trkpt>
      <trkpt lat="42.09984" lon="2.98805">
        <ele>42.2</ele>
        <time>2022-05-21 08:24:47</time>
      </trkpt>
      <trkpt lat="42.09987" lon="2.9881">
        <ele>42.6</ele>
        <time>2022-05-21 08:24:48</time>
      </trkpt>
      <trkpt lat="42.0999" lon="2.98814">
        <ele>42.8</ele>
        <time>2022-05-21 08:24:49</time>
      </trkpt>
      <trkpt lat="42.09993" lon="2.98818">
        <ele>43.2</ele>
        <time>2022-05-21 08:24:50</time>
      </trkpt>
      <trkpt lat="42.09996" lon="2.98822">
        <ele>43.4</ele>
        <time>2022-05-21 08:24:51</time>
      </trkpt>
      <trkpt lat="42.09999" lon="2.98826">
        <ele>43.6</ele>
        <time>2022-05-21 08:24:52</time>
      </trkpt>
      <trkpt lat="42.10002" lon="2.98831">
        <ele>44</ele>
        <time>2022-05-21 08:24:53</time>
      </trkpt>
      <trkpt lat="42.10005" lon="2.98835">
        <ele>44.2</ele>
        <time>2022-05-21 08:24:54</time>
      </trkpt>
      <trkpt lat="42.10008" lon="2.98839">
        <ele>44.6</ele>
        <time>2022-05-21 08:24:55</time>
      </trkpt>
      <trkpt lat="42.10011" lon="2.98843">
        <ele>44.8</ele>
        <time>2022-05-21 08:24:56</time>
      </trkpt>
      <trkpt lat="42.10013" lon="2.98847">
        <ele>45</ele>
        <time>2022-05-21 08:24:57</time>
      </trkpt>
      <trkpt lat="42.10016" lon="2.98851">
        <ele>45.4</ele>
        <time>2022-05-21 08:24:58</time>
      </trkpt>
      <trkpt lat="42.10019" lon="2.98854">
        <ele>45.6</ele>
        <time>2022-05-21 08:24:59</time>
      </trkpt>
      <trkpt lat="42.10022" lon="2.98858">
        <ele>45.8</ele>
        <time>2022-05-21 08:25:00</time>
      </trkpt>
      <trkpt lat="42.10024" lon="2.98862">
        <ele>46.2</ele>
        <time>2022-05-21 08:25:01</time>
      </trkpt>
      <trkpt lat="42.10028" lon="2.98866">
        <ele>46.4</ele>
        <time>2022-05-21 08:25:02</time>
      </trkpt>
      <trkpt lat="42.1003" lon="2.9887">
        <ele>46.6</ele>
        <time>2022-05-21 08:25:03</time>
      </trkpt>
      <trkpt lat="42.10033" lon="2.98874">
        <ele>47</ele>
        <time>2022-05-21 08:25:04</time>
      </trkpt>
      <trkpt lat="42.10036" lon="2.98877">
        <ele>47.2</ele>
        <time>2022-05-21 08:25:05</time>
      </trkpt>
      <trkpt lat="42.10038" lon="2.98881">
        <ele>47.6</ele>
        <time>2022-05-21 08:25:06</time>
      </trkpt>
      <trkpt lat="42.10041" lon="2.98885">
        <ele>47.8</ele>
        <time>2022-05-21 08:25:07</time>
      </trkpt>
      <trkpt lat="42.10044" lon="2.98889">
        <ele>48</ele>
        <time>2022-05-21 08:25:08</time>
      </trkpt>
      <trkpt lat="42.10047" lon="2.98893">
        <ele>48.2</ele>
        <time>2022-05-21 08:25:09</time>
      </trkpt>
      <trkpt lat="42.10049" lon="2.98897">
        <ele>48.6</ele>
        <time>2022-05-21 08:25:10</time>
      </trkpt>
      <trkpt lat="42.10053" lon="2.98901">
        <ele>48.8</ele>
        <time>2022-05-21 08:25:11</time>
      </trkpt>
      <trkpt lat="42.10055" lon="2.98905">
        <ele>49</ele>
        <time>2022-05-21 08:25:12</time>
      </trkpt>
      <trkpt lat="42.10058" lon="2.98909">
        <ele>49.4</ele>
        <time>2022-05-21 08:25:13</time>
      </trkpt>
      <trkpt lat="42.10061" lon="2.98912">
        <ele>49.6</ele>
        <time>2022-05-21 08:25:14</time>
      </trkpt>
      <trkpt lat="42.10064" lon="2.98916">
        <ele>49.8</ele>
        <time>2022-05-21 08:25:15</time>
      </trkpt>
      <trkpt lat="42.10067" lon="2.9892">
        <ele>50</ele>
        <time>2022-05-21 08:25:16</time>
      </trkpt>
      <trkpt lat="42.1007" lon="2.98923">
        <ele>50.2</ele>
        <time>2022-05-21 08:25:17</time>
      </trkpt>
      <trkpt lat="42.10073" lon="2.98927">
        <ele>50.4</ele>
        <time>2022-05-21 08:25:18</time>
      </trkpt>
      <trkpt lat="42.10076" lon="2.9893">
        <ele>50.8</ele>
        <time>2022-05-21 08:25:19</time>
      </trkpt>
      <trkpt lat="42.1008" lon="2.98934">
        <ele>51</ele>
        <time>2022-05-21 08:25:20</time>
      </trkpt>
      <trkpt lat="42.10083" lon="2.98938">
        <ele>51.2</ele>
        <time>2022-05-21 08:25:21</time>
      </trkpt>
      <trkpt lat="42.10086" lon="2.98941">
        <ele>51.4</ele>
        <time>2022-05-21 08:25:22</time>
      </trkpt>
      <trkpt lat="42.1009" lon="2.98945">
        <ele>51.6</ele>
        <time>2022-05-21 08:25:23</time>
      </trkpt>
      <trkpt lat="42.10093" lon="2.98948">
        <ele>51.6</ele>
        <time>2022-05-21 08:25:24</time>
      </trkpt>
      <trkpt lat="42.10096" lon="2.98952">
        <ele>51.8</ele>
        <time>2022-05-21 08:25:25</time>
      </trkpt>
      <trkpt lat="42.101" lon="2.98956">
        <ele>51.8</ele>
        <time>2022-05-21 08:25:26</time>
      </trkpt>
      <trkpt lat="42.10104" lon="2.9896">
        <ele>52</ele>
        <time>2022-05-21 08:25:27</time>
      </trkpt>
      <trkpt lat="42.10108" lon="2.98964">
        <ele>52</ele>
        <time>2022-05-21 08:25:28</time>
      </trkpt>
      <trkpt lat="42.10113" lon="2.98968">
        <ele>52</ele>
        <time>2022-05-21 08:25:29</time>
      </trkpt>
      <trkpt lat="42.10117" lon="2.98972">
        <ele>52</ele>
        <time>2022-05-21 08:25:30</time>
      </trkpt>
      <trkpt lat="42.10121" lon="2.98976">
        <ele>52</ele>
        <time>2022-05-21 08:25:31</time>
      </trkpt>
      <trkpt lat="42.10125" lon="2.9898">
        <ele>52</ele>
        <time>2022-05-21 08:25:32</time>
      </trkpt>
      <trkpt lat="42.1013" lon="2.98985">
        <ele>52</ele>
        <time>2022-05-21 08:25:33</time>
      </trkpt>
      <trkpt lat="42.10135" lon="2.9899">
        <ele>52</ele>
        <time>2022-05-21 08:25:34</time>
      </trkpt>
      <trkpt lat="42.1014" lon="2.98994">
        <ele>52</ele>
        <time>2022-05-21 08:25:35</time>
      </trkpt>
      <trkpt lat="42.10145" lon="2.98998">
        <ele>52</ele>
        <time>2022-05-21 08:25:36</time>
      </trkpt>
      <trkpt lat="42.1015" lon="2.99003">
        <ele>52</ele>
        <time>2022-05-21 08:25:37</time>
      </trkpt>
      <trkpt lat="42.10155" lon="2.99008">
        <ele>52</ele>
        <time>2022-05-21 08:25:38</time>
      </trkpt>
      <trkpt lat="42.1016" lon="2.99013">
        <ele>52</ele>
        <time>2022-05-21 08:25:39</time>
      </trkpt>
      <trkpt lat="42.10165" lon="2.99017">
        <ele>52</ele>
        <time>2022-05-21 08:25:40</time>
      </trkpt>
      <trkpt lat="42.1017" lon="2.99022">
        <ele>52</ele>
        <time>2022-05-21 08:25:41</time>
      </trkpt>
      <trkpt lat="42.10175" lon="2.99027">
        <ele>52</ele>
        <time>2022-05-21 08:25:42</time>
      </trkpt>
      <trkpt lat="42.1018" lon="2.99032">
        <ele>52</ele>
        <time>2022-05-21 08:25:43</time>
      </trkpt>
      <trkpt lat="42.10185" lon="2.99037">
        <ele>52</ele>
        <time>2022-05-21 08:25:44</time>
      </trkpt>
      <trkpt lat="42.1019" lon="2.99042">
        <ele>52</ele>
        <time>2022-05-21 08:25:45</time>
      </trkpt>
      <trkpt lat="42.10195" lon="2.99046">
        <ele>52.2</ele>
        <time>2022-05-21 08:25:46</time>
      </trkpt>
      <trkpt lat="42.102" lon="2.99051">
        <ele>52.2</ele>
        <time>2022-05-21 08:25:47</time>
      </trkpt>
      <trkpt lat="42.10205" lon="2.99056">
        <ele>52.2</ele>
        <time>2022-05-21 08:25:48</time>
      </trkpt>
      <trkpt lat="42.1021" lon="2.99061">
        <ele>52.2</ele>
        <time>2022-05-21 08:25:49</time>
      </trkpt>
      <trkpt lat="42.10215" lon="2.99065">
        <ele>52.4</ele>
        <time>2022-05-21 08:25:50</time>
      </trkpt>
      <trkpt lat="42.1022" lon="2.9907">
        <ele>52.4</ele>
        <time>2022-05-21 08:25:51</time>
      </trkpt>
      <trkpt lat="42.10226" lon="2.99075">
        <ele>52.4</ele>
        <time>2022-05-21 08:25:52</time>
      </trkpt>
      <trkpt lat="42.10231" lon="2.9908">
        <ele>52.6</ele>
        <time>2022-05-21 08:25:53</time>
      </trkpt>
      <trkpt lat="42.10236" lon="2.99085">
        <ele>52.6</ele>
        <time>2022-05-21 08:25:54</time>
      </trkpt>
      <trkpt lat="42.10241" lon="2.9909">
        <ele>52.8</ele>
        <time>2022-05-21 08:25:55</time>
      </trkpt>
      <trkpt lat="42.10246" lon="2.99095">
        <ele>53</ele>
        <time>2022-05-21 08:25:56</time>
      </trkpt>
      <trkpt lat="42.1025" lon="2.99099">
        <ele>53.2</ele>
        <time>2022-05-21 08:25:57</time>
      </trkpt>
      <trkpt lat="42.10255" lon="2.99104">
        <ele>53.4</ele>
        <time>2022-05-21 08:25:58</time>
      </trkpt>
      <trkpt lat="42.1026" lon="2.99108">
        <ele>53.4</ele>
        <time>2022-05-21 08:25:59</time>
      </trkpt>
      <trkpt lat="42.10264" lon="2.99112">
        <ele>53.6</ele>
        <time>2022-05-21 08:26:00</time>
      </trkpt>
      <trkpt lat="42.10269" lon="2.99116">
        <ele>53.8</ele>
        <time>2022-05-21 08:26:01</time>
      </trkpt>
      <trkpt lat="42.10273" lon="2.99121">
        <ele>54</ele>
        <time>2022-05-21 08:26:02</time>
      </trkpt>
      <trkpt lat="42.10278" lon="2.99125">
        <ele>54.2</ele>
        <time>2022-05-21 08:26:03</time>
      </trkpt>
      <trkpt lat="42.10282" lon="2.99129">
        <ele>54.6</ele>
        <time>2022-05-21 08:26:04</time>
      </trkpt>
      <trkpt lat="42.10286" lon="2.99134">
        <ele>54.8</ele>
        <time>2022-05-21 08:26:05</time>
      </trkpt>
      <trkpt lat="42.1029" lon="2.99138">
        <ele>55</ele>
        <time>2022-05-21 08:26:06</time>
      </trkpt>
      <trkpt lat="42.10294" lon="2.99142">
        <ele>55.2</ele>
        <time>2022-05-21 08:26:07</time>
      </trkpt>
      <trkpt lat="42.10298" lon="2.99147">
        <ele>55.4</ele>
        <time>2022-05-21 08:26:08</time>
      </trkpt>
      <trkpt lat="42.10302" lon="2.99152">
        <ele>55.6</ele>
        <time>2022-05-21 08:26:09</time>
      </trkpt>
      <trkpt lat="42.10306" lon="2.99156">
        <ele>55.8</ele>
        <time>2022-05-21 08:26:10</time>
      </trkpt>
      <trkpt lat="42.10309" lon="2.99161">
        <ele>56</ele>
        <time>2022-05-21 08:26:11</time>
      </trkpt>
      <trkpt lat="42.10313" lon="2.99166">
        <ele>56.2</ele>
        <time>2022-05-21 08:26:12</time>
      </trkpt>
      <trkpt lat="42.10316" lon="2.99171">
        <ele>56.2</ele>
        <time>2022-05-21 08:26:13</time>
      </trkpt>
      <trkpt lat="42.1032" lon="2.99176">
        <ele>56.4</ele>
        <time>2022-05-21 08:26:14</time>
      </trkpt>
      <trkpt lat="42.10323" lon="2.99181">
        <ele>56.6</ele>
        <time>2022-05-21 08:26:15</time>
      </trkpt>
      <trkpt lat="42.10326" lon="2.99186">
        <ele>56.8</ele>
        <time>2022-05-21 08:26:16</time>
      </trkpt>
      <trkpt lat="42.10329" lon="2.99191">
        <ele>57</ele>
        <time>2022-05-21 08:26:17</time>
      </trkpt>
      <trkpt lat="42.10332" lon="2.99195">
        <ele>57.2</ele>
        <time>2022-05-21 08:26:18</time>
      </trkpt>
      <trkpt lat="42.10335" lon="2.992">
        <ele>57.4</ele>
        <time>2022-05-21 08:26:19</time>
      </trkpt>
      <trkpt lat="42.10338" lon="2.99204">
        <ele>57.6</ele>
        <time>2022-05-21 08:26:20</time>
      </trkpt>
      <trkpt lat="42.10341" lon="2.99209">
        <ele>57.8</ele>
        <time>2022-05-21 08:26:21</time>
      </trkpt>
      <trkpt lat="42.10344" lon="2.99214">
        <ele>58.2</ele>
        <time>2022-05-21 08:26:22</time>
      </trkpt>
      <trkpt lat="42.10347" lon="2.99218">
        <ele>58.4</ele>
        <time>2022-05-21 08:26:23</time>
      </trkpt>
      <trkpt lat="42.10349" lon="2.99222">
        <ele>58.6</ele>
        <time>2022-05-21 08:26:24</time>
      </trkpt>
      <trkpt lat="42.10351" lon="2.99226">
        <ele>58.8</ele>
        <time>2022-05-21 08:26:25</time>
      </trkpt>
      <trkpt lat="42.10354" lon="2.9923">
        <ele>59</ele>
        <time>2022-05-21 08:26:26</time>
      </trkpt>
      <trkpt lat="42.10357" lon="2.99236">
        <ele>59.2</ele>
        <time>2022-05-21 08:26:27</time>
      </trkpt>
      <trkpt lat="42.10359" lon="2.9924">
        <ele>59.4</ele>
        <time>2022-05-21 08:26:28</time>
      </trkpt>
      <trkpt lat="42.10362" lon="2.99244">
        <ele>59.8</ele>
        <time>2022-05-21 08:26:29</time>
      </trkpt>
      <trkpt lat="42.10364" lon="2.99248">
        <ele>60</ele>
        <time>2022-05-21 08:26:30</time>
      </trkpt>
      <trkpt lat="42.10367" lon="2.99252">
        <ele>60.2</ele>
        <time>2022-05-21 08:26:31</time>
      </trkpt>
      <trkpt lat="42.1037" lon="2.99256">
        <ele>60.4</ele>
        <time>2022-05-21 08:26:32</time>
      </trkpt>
      <trkpt lat="42.10373" lon="2.9926">
        <ele>60.6</ele>
        <time>2022-05-21 08:26:33</time>
      </trkpt>
      <trkpt lat="42.10375" lon="2.99263">
        <ele>60.8</ele>
        <time>2022-05-21 08:26:34</time>
      </trkpt>
      <trkpt lat="42.10377" lon="2.99267">
        <ele>61</ele>
        <time>2022-05-21 08:26:35</time>
      </trkpt>
      <trkpt lat="42.10381" lon="2.99272">
        <ele>61.2</ele>
        <time>2022-05-21 08:26:36</time>
      </trkpt>
      <trkpt lat="42.10383" lon="2.99276">
        <ele>61.4</ele>
        <time>2022-05-21 08:26:37</time>
      </trkpt>
      <trkpt lat="42.10386" lon="2.9928">
        <ele>61.8</ele>
        <time>2022-05-21 08:26:38</time>
      </trkpt>
      <trkpt lat="42.10389" lon="2.99285">
        <ele>62</ele>
        <time>2022-05-21 08:26:39</time>
      </trkpt>
      <trkpt lat="42.10391" lon="2.99289">
        <ele>62.2</ele>
        <time>2022-05-21 08:26:40</time>
      </trkpt>
      <trkpt lat="42.10393" lon="2.99293">
        <ele>62.4</ele>
        <time>2022-05-21 08:26:41</time>
      </trkpt>
      <trkpt lat="42.10395" lon="2.99297">
        <ele>62.6</ele>
        <time>2022-05-21 08:26:42</time>
      </trkpt>
      <trkpt lat="42.10397" lon="2.99301">
        <ele>62.8</ele>
        <time>2022-05-21 08:26:43</time>
      </trkpt>
      <trkpt lat="42.10399" lon="2.99305">
        <ele>63</ele>
        <time>2022-05-21 08:26:44</time>
      </trkpt>
      <trkpt lat="42.10401" lon="2.99309">
        <ele>63.4</ele>
        <time>2022-05-21 08:26:45</time>
      </trkpt>
      <trkpt lat="42.10403" lon="2.99313">
        <ele>63.6</ele>
        <time>2022-05-21 08:26:46</time>
      </trkpt>
      <trkpt lat="42.10405" lon="2.99317">
        <ele>63.8</ele>
        <time>2022-05-21 08:26:47</time>
      </trkpt>
      <trkpt lat="42.10407" lon="2.99321">
        <ele>64</ele>
        <time>2022-05-21 08:26:48</time>
      </trkpt>
      <trkpt lat="42.10408" lon="2.99324">
        <ele>64.2</ele>
        <time>2022-05-21 08:26:49</time>
      </trkpt>
      <trkpt lat="42.1041" lon="2.99328">
        <ele>64.4</ele>
        <time>2022-05-21 08:26:50</time>
      </trkpt>
      <trkpt lat="42.10413" lon="2.99333">
        <ele>64.6</ele>
        <time>2022-05-21 08:26:51</time>
      </trkpt>
      <trkpt lat="42.10415" lon="2.99336">
        <ele>64.8</ele>
        <time>2022-05-21 08:26:52</time>
      </trkpt>
      <trkpt lat="42.10417" lon="2.99339">
        <ele>65</ele>
        <time>2022-05-21 08:26:53</time>
      </trkpt>
      <trkpt lat="42.1042" lon="2.99343">
        <ele>65.2</ele>
        <time>2022-05-21 08:26:54</time>
      </trkpt>
      <trkpt lat="42.10422" lon="2.99346">
        <ele>65.4</ele>
        <time>2022-05-21 08:26:55</time>
      </trkpt>
      <trkpt lat="42.10425" lon="2.99349">
        <ele>65.8</ele>
        <time>2022-05-21 08:26:56</time>
      </trkpt>
      <trkpt lat="42.10429" lon="2.99352">
        <ele>66</ele>
        <time>2022-05-21 08:26:57</time>
      </trkpt>
      <trkpt lat="42.10431" lon="2.99354">
        <ele>66.2</ele>
        <time>2022-05-21 08:26:58</time>
      </trkpt>
      <trkpt lat="42.10433" lon="2.99356">
        <ele>66.4</ele>
        <time>2022-05-21 08:26:59</time>
      </trkpt>
      <trkpt lat="42.10437" lon="2.99359">
        <ele>66.6</ele>
        <time>2022-05-21 08:27:00</time>
      </trkpt>
      <trkpt lat="42.1044" lon="2.99361">
        <ele>66.8</ele>
        <time>2022-05-21 08:27:01</time>
      </trkpt>
      <trkpt lat="42.10443" lon="2.99363">
        <ele>67</ele>
        <time>2022-05-21 08:27:02</time>
      </trkpt>
      <trkpt lat="42.10446" lon="2.99366">
        <ele>67.4</ele>
        <time>2022-05-21 08:27:03</time>
      </trkpt>
      <trkpt lat="42.10449" lon="2.99368">
        <ele>67.6</ele>
        <time>2022-05-21 08:27:04</time>
      </trkpt>
      <trkpt lat="42.10453" lon="2.9937">
        <ele>67.8</ele>
        <time>2022-05-21 08:27:05</time>
      </trkpt>
      <trkpt lat="42.10456" lon="2.99373">
        <ele>68</ele>
        <time>2022-05-21 08:27:06</time>
      </trkpt>
      <trkpt lat="42.10459" lon="2.99375">
        <ele>68.2</ele>
        <time>2022-05-21 08:27:07</time>
      </trkpt>
      <trkpt lat="42.10462" lon="2.99377">
        <ele>68.4</ele>
        <time>2022-05-21 08:27:08</time>
      </trkpt>
      <trkpt lat="42.10466" lon="2.9938">
        <ele>68.6</ele>
        <time>2022-05-21 08:27:09</time>
      </trkpt>
      <trkpt lat="42.10469" lon="2.99383">
        <ele>68.8</ele>
        <time>2022-05-21 08:27:10</time>
      </trkpt>
      <trkpt lat="42.10471" lon="2.99385">
        <ele>69</ele>
        <time>2022-05-21 08:27:11</time>
      </trkpt>
      <trkpt lat="42.10475" lon="2.99388">
        <ele>69.2</ele>
        <time>2022-05-21 08:27:12</time>
      </trkpt>
      <trkpt lat="42.10478" lon="2.9939">
        <ele>69.4</ele>
        <time>2022-05-21 08:27:13</time>
      </trkpt>
      <trkpt lat="42.1048" lon="2.99393">
        <ele>69.6</ele>
        <time>2022-05-21 08:27:14</time>
      </trkpt>
      <trkpt lat="42.10484" lon="2.99395">
        <ele>69.8</ele>
        <time>2022-05-21 08:27:15</time>
      </trkpt>
      <trkpt lat="42.10487" lon="2.99398">
        <ele>70</ele>
        <time>2022-05-21 08:27:16</time>
      </trkpt>
      <trkpt lat="42.1049" lon="2.994">
        <ele>70.2</ele>
        <time>2022-05-21 08:27:17</time>
      </trkpt>
      <trkpt lat="42.10494" lon="2.99403">
        <ele>70.4</ele>
        <time>2022-05-21 08:27:18</time>
      </trkpt>
      <trkpt lat="42.10497" lon="2.99405">
        <ele>70.6</ele>
        <time>2022-05-21 08:27:19</time>
      </trkpt>
      <trkpt lat="42.105" lon="2.99407">
        <ele>70.8</ele>
        <time>2022-05-21 08:27:20</time>
      </trkpt>
      <trkpt lat="42.10503" lon="2.9941">
        <ele>71</ele>
        <time>2022-05-21 08:27:21</time>
      </trkpt>
      <trkpt lat="42.10506" lon="2.99412">
        <ele>71.2</ele>
        <time>2022-05-21 08:27:22</time>
      </trkpt>
      <trkpt lat="42.10509" lon="2.99414">
        <ele>71.4</ele>
        <time>2022-05-21 08:27:23</time>
      </trkpt>
      <trkpt lat="42.10513" lon="2.99417">
        <ele>71.6</ele>
        <time>2022-05-21 08:27:24</time>
      </trkpt>
      <trkpt lat="42.10516" lon="2.99419">
        <ele>71.8</ele>
        <time>2022-05-21 08:27:25</time>
      </trkpt>
      <trkpt lat="42.10519" lon="2.99422">
        <ele>72</ele>
        <time>2022-05-21 08:27:26</time>
      </trkpt>
      <trkpt lat="42.10523" lon="2.99425">
        <ele>72.2</ele>
        <time>2022-05-21 08:27:27</time>
      </trkpt>
      <trkpt lat="42.10526" lon="2.99427">
        <ele>72.4</ele>
        <time>2022-05-21 08:27:28</time>
      </trkpt>
      <trkpt lat="42.10529" lon="2.9943">
        <ele>72.6</ele>
        <time>2022-05-21 08:27:29</time>
      </trkpt>
      <trkpt lat="42.10533" lon="2.99433">
        <ele>72.8</ele>
        <time>2022-05-21 08:27:30</time>
      </trkpt>
      <trkpt lat="42.10536" lon="2.99435">
        <ele>73</ele>
        <time>2022-05-21 08:27:31</time>
      </trkpt>
      <trkpt lat="42.10539" lon="2.99437">
        <ele>73.2</ele>
        <time>2022-05-21 08:27:32</time>
      </trkpt>
      <trkpt lat="42.10542" lon="2.9944">
        <ele>73.4</ele>
        <time>2022-05-21 08:27:33</time>
      </trkpt>
      <trkpt lat="42.10545" lon="2.99442">
        <ele>73.6</ele>
        <time>2022-05-21 08:27:34</time>
      </trkpt>
      <trkpt lat="42.10548" lon="2.99444">
        <ele>73.8</ele>
        <time>2022-05-21 08:27:35</time>
      </trkpt>
      <trkpt lat="42.10552" lon="2.99447">
        <ele>74</ele>
        <time>2022-05-21 08:27:36</time>
      </trkpt>
      <trkpt lat="42.10555" lon="2.99449">
        <ele>74.2</ele>
        <time>2022-05-21 08:27:37</time>
      </trkpt>
      <trkpt lat="42.10559" lon="2.99451">
        <ele>74.4</ele>
        <time>2022-05-21 08:27:38</time>
      </trkpt>
      <trkpt lat="42.10562" lon="2.99453">
        <ele>74.6</ele>
        <time>2022-05-21 08:27:39</time>
      </trkpt>
      <trkpt lat="42.10565" lon="2.99454">
        <ele>74.8</ele>
        <time>2022-05-21 08:27:40</time>
      </trkpt>
      <trkpt lat="42.10568" lon="2.99455">
        <ele>75</ele>
        <time>2022-05-21 08:27:41</time>
      </trkpt>
      <trkpt lat="42.10573" lon="2.99457">
        <ele>75.4</ele>
        <time>2022-05-21 08:27:42</time>
      </trkpt>
      <trkpt lat="42.10576" lon="2.99458">
        <ele>75.6</ele>
        <time>2022-05-21 08:27:43</time>
      </trkpt>
      <trkpt lat="42.10579" lon="2.99459">
        <ele>75.8</ele>
        <time>2022-05-21 08:27:44</time>
      </trkpt>
      <trkpt lat="42.10584" lon="2.9946">
        <ele>76</ele>
        <time>2022-05-21 08:27:45</time>
      </trkpt>
      <trkpt lat="42.10587" lon="2.99461">
        <ele>76.2</ele>
        <time>2022-05-21 08:27:46</time>
      </trkpt>
      <trkpt lat="42.1059" lon="2.99461">
        <ele>76.4</ele>
        <time>2022-05-21 08:27:47</time>
      </trkpt>
      <trkpt lat="42.10594" lon="2.99462">
        <ele>76.6</ele>
        <time>2022-05-21 08:27:48</time>
      </trkpt>
      <trkpt lat="42.10598" lon="2.99462">
        <ele>76.8</ele>
        <time>2022-05-21 08:27:49</time>
      </trkpt>
      <trkpt lat="42.10601" lon="2.99463">
        <ele>77</ele>
        <time>2022-05-21 08:27:50</time>
      </trkpt>
      <trkpt lat="42.10605" lon="2.99464">
        <ele>77.2</ele>
        <time>2022-05-21 08:27:51</time>
      </trkpt>
      <trkpt lat="42.10608" lon="2.99464">
        <ele>77.4</ele>
        <time>2022-05-21 08:27:52</time>
      </trkpt>
      <trkpt lat="42.10611" lon="2.99465">
        <ele>77.6</ele>
        <time>2022-05-21 08:27:53</time>
      </trkpt>
      <trkpt lat="42.10615" lon="2.99465">
        <ele>78</ele>
        <time>2022-05-21 08:27:54</time>
      </trkpt>
      <trkpt lat="42.10619" lon="2.99466">
        <ele>78.2</ele>
        <time>2022-05-21 08:27:55</time>
      </trkpt>
      <trkpt lat="42.10622" lon="2.99466">
        <ele>78.4</ele>
        <time>2022-05-21 08:27:56</time>
      </trkpt>
      <trkpt lat="42.10626" lon="2.99467">
        <ele>78.6</ele>
        <time>2022-05-21 08:27:57</time>
      </trkpt>
      <trkpt lat="42.10629" lon="2.99467">
        <ele>78.8</ele>
        <time>2022-05-21 08:27:58</time>
      </trkpt>
      <trkpt lat="42.10633" lon="2.99468">
        <ele>79</ele>
        <time>2022-05-21 08:27:59</time>
      </trkpt>
      <trkpt lat="42.10637" lon="2.99468">
        <ele>79.2</ele>
        <time>2022-05-21 08:28:00</time>
      </trkpt>
      <trkpt lat="42.1064" lon="2.99469">
        <ele>79.4</ele>
        <time>2022-05-21 08:28:01</time>
      </trkpt>
      <trkpt lat="42.10643" lon="2.99469">
        <ele>79.6</ele>
        <time>2022-05-21 08:28:02</time>
      </trkpt>
      <trkpt lat="42.10647" lon="2.9947">
        <ele>79.8</ele>
        <time>2022-05-21 08:28:03</time>
      </trkpt>
      <trkpt lat="42.10651" lon="2.99471">
        <ele>80</ele>
        <time>2022-05-21 08:28:04</time>
      </trkpt>
      <trkpt lat="42.10655" lon="2.99471">
        <ele>80.2</ele>
        <time>2022-05-21 08:28:05</time>
      </trkpt>
      <trkpt lat="42.10659" lon="2.99471">
        <ele>80.2</ele>
        <time>2022-05-21 08:28:06</time>
      </trkpt>
      <trkpt lat="42.10662" lon="2.99471">
        <ele>80.4</ele>
        <time>2022-05-21 08:28:07</time>
      </trkpt>
      <trkpt lat="42.10666" lon="2.99472">
        <ele>80.6</ele>
        <time>2022-05-21 08:28:08</time>
      </trkpt>
      <trkpt lat="42.1067" lon="2.99472">
        <ele>80.6</ele>
        <time>2022-05-21 08:28:09</time>
      </trkpt>
      <trkpt lat="42.10674" lon="2.99473">
        <ele>80.8</ele>
        <time>2022-05-21 08:28:10</time>
      </trkpt>
      <trkpt lat="42.10678" lon="2.99474">
        <ele>80.8</ele>
        <time>2022-05-21 08:28:11</time>
      </trkpt>
      <trkpt lat="42.10683" lon="2.99475">
        <ele>81</ele>
        <time>2022-05-21 08:28:12</time>
      </trkpt>
      <trkpt lat="42.10687" lon="2.99476">
        <ele>81</ele>
        <time>2022-05-21 08:28:13</time>
      </trkpt>
      <trkpt lat="42.10691" lon="2.99476">
        <ele>81</ele>
        <time>2022-05-21 08:28:14</time>
      </trkpt>
      <trkpt lat="42.10695" lon="2.99477">
        <ele>81</ele>
        <time>2022-05-21 08:28:15</time>
      </trkpt>
      <trkpt lat="42.10699" lon="2.99478">
        <ele>81.2</ele>
        <time>2022-05-21 08:28:16</time>
      </trkpt>
      <trkpt lat="42.10705" lon="2.99479">
        <ele>81.2</ele>
        <time>2022-05-21 08:28:17</time>
      </trkpt>
      <trkpt lat="42.10708" lon="2.99479">
        <ele>81.4</ele>
        <time>2022-05-21 08:28:18</time>
      </trkpt>
      <trkpt lat="42.10713" lon="2.9948">
        <ele>81.4</ele>
        <time>2022-05-21 08:28:19</time>
      </trkpt>
      <trkpt lat="42.10717" lon="2.99481">
        <ele>81.6</ele>
        <time>2022-05-21 08:28:20</time>
      </trkpt>
      <trkpt lat="42.10721" lon="2.99481">
        <ele>81.6</ele>
        <time>2022-05-21 08:28:21</time>
      </trkpt>
      <trkpt lat="42.10726" lon="2.99482">
        <ele>81.8</ele>
        <time>2022-05-21 08:28:22</time>
      </trkpt>
      <trkpt lat="42.10731" lon="2.99482">
        <ele>81.8</ele>
        <time>2022-05-21 08:28:23</time>
      </trkpt>
      <trkpt lat="42.10735" lon="2.99483">
        <ele>82</ele>
        <time>2022-05-21 08:28:24</time>
      </trkpt>
      <trkpt lat="42.10739" lon="2.99483">
        <ele>82</ele>
        <time>2022-05-21 08:28:25</time>
      </trkpt>
      <trkpt lat="42.10744" lon="2.99484">
        <ele>82.2</ele>
        <time>2022-05-21 08:28:26</time>
      </trkpt>
      <trkpt lat="42.10748" lon="2.99485">
        <ele>82.2</ele>
        <time>2022-05-21 08:28:27</time>
      </trkpt>
      <trkpt lat="42.10752" lon="2.99486">
        <ele>82.4</ele>
        <time>2022-05-21 08:28:28</time>
      </trkpt>
      <trkpt lat="42.10757" lon="2.99486">
        <ele>82.4</ele>
        <time>2022-05-21 08:28:29</time>
      </trkpt>
      <trkpt lat="42.10761" lon="2.99487">
        <ele>82.6</ele>
        <time>2022-05-21 08:28:30</time>
      </trkpt>
      <trkpt lat="42.10763" lon="2.99487">
        <ele>82.6</ele>
        <time>2022-05-21 08:28:31</time>
      </trkpt>
      <trkpt lat="42.1077" lon="2.99488">
        <ele>82.8</ele>
        <time>2022-05-21 08:28:32</time>
      </trkpt>
      <trkpt lat="42.10775" lon="2.99488">
        <ele>83</ele>
        <time>2022-05-21 08:28:33</time>
      </trkpt>
      <trkpt lat="42.10779" lon="2.99489">
        <ele>83</ele>
        <time>2022-05-21 08:28:34</time>
      </trkpt>
      <trkpt lat="42.10783" lon="2.99489">
        <ele>83.2</ele>
        <time>2022-05-21 08:28:35</time>
      </trkpt>
      <trkpt lat="42.10788" lon="2.9949">
        <ele>83.4</ele>
        <time>2022-05-21 08:28:36</time>
      </trkpt>
      <trkpt lat="42.10793" lon="2.9949">
        <ele>83.6</ele>
        <time>2022-05-21 08:28:37</time>
      </trkpt>
      <trkpt lat="42.10797" lon="2.99491">
        <ele>83.6</ele>
        <time>2022-05-21 08:28:38</time>
      </trkpt>
      <trkpt lat="42.10801" lon="2.99492">
        <ele>83.8</ele>
        <time>2022-05-21 08:28:39</time>
      </trkpt>
      <trkpt lat="42.10806" lon="2.99492">
        <ele>84</ele>
        <time>2022-05-21 08:28:40</time>
      </trkpt>
      <trkpt lat="42.1081" lon="2.99493">
        <ele>84.2</ele>
        <time>2022-05-21 08:28:41</time>
      </trkpt>
      <trkpt lat="42.10814" lon="2.99493">
        <ele>84.4</ele>
        <time>2022-05-21 08:28:42</time>
      </trkpt>
      <trkpt lat="42.10818" lon="2.99494">
        <ele>84.6</ele>
        <time>2022-05-21 08:28:43</time>
      </trkpt>
      <trkpt lat="42.10823" lon="2.99494">
        <ele>84.8</ele>
        <time>2022-05-21 08:28:44</time>
      </trkpt>
      <trkpt lat="42.10826" lon="2.99495">
        <ele>85</ele>
        <time>2022-05-21 08:28:45</time>
      </trkpt>
      <trkpt lat="42.1083" lon="2.99495">
        <ele>85.2</ele>
        <time>2022-05-21 08:28:46</time>
      </trkpt>
      <trkpt lat="42.10835" lon="2.99496">
        <ele>85.4</ele>
        <time>2022-05-21 08:28:47</time>
      </trkpt>
      <trkpt lat="42.1084" lon="2.99497">
        <ele>85.6</ele>
        <time>2022-05-21 08:28:48</time>
      </trkpt>
      <trkpt lat="42.10844" lon="2.99497">
        <ele>85.8</ele>
        <time>2022-05-21 08:28:49</time>
      </trkpt>
      <trkpt lat="42.10848" lon="2.99498">
        <ele>86</ele>
        <time>2022-05-21 08:28:50</time>
      </trkpt>
      <trkpt lat="42.10853" lon="2.99499">
        <ele>86.2</ele>
        <time>2022-05-21 08:28:51</time>
      </trkpt>
      <trkpt lat="42.10857" lon="2.995">
        <ele>86.4</ele>
        <time>2022-05-21 08:28:52</time>
      </trkpt>
      <trkpt lat="42.10861" lon="2.995">
        <ele>86.6</ele>
        <time>2022-05-21 08:28:53</time>
      </trkpt>
      <trkpt lat="42.10865" lon="2.99501">
        <ele>86.8</ele>
        <time>2022-05-21 08:28:54</time>
      </trkpt>
      <trkpt lat="42.10869" lon="2.99501">
        <ele>87</ele>
        <time>2022-05-21 08:28:55</time>
      </trkpt>
      <trkpt lat="42.10873" lon="2.99502">
        <ele>87.2</ele>
        <time>2022-05-21 08:28:56</time>
      </trkpt>
      <trkpt lat="42.10878" lon="2.99502">
        <ele>87.6</ele>
        <time>2022-05-21 08:28:57</time>
      </trkpt>
      <trkpt lat="42.10882" lon="2.99503">
        <ele>87.8</ele>
        <time>2022-05-21 08:28:58</time>
      </trkpt>
      <trkpt lat="42.10886" lon="2.99503">
        <ele>88</ele>
        <time>2022-05-21 08:28:59</time>
      </trkpt>
      <trkpt lat="42.1089" lon="2.99504">
        <ele>88</ele>
        <time>2022-05-21 08:29:00</time>
      </trkpt>
      <trkpt lat="42.10894" lon="2.99505">
        <ele>88.2</ele>
        <time>2022-05-21 08:29:01</time>
      </trkpt>
      <trkpt lat="42.10898" lon="2.99506">
        <ele>88.4</ele>
        <time>2022-05-21 08:29:02</time>
      </trkpt>
      <trkpt lat="42.10902" lon="2.99508">
        <ele>88.6</ele>
        <time>2022-05-21 08:29:03</time>
      </trkpt>
      <trkpt lat="42.10906" lon="2.9951">
        <ele>88.8</ele>
        <time>2022-05-21 08:29:04</time>
      </trkpt>
      <trkpt lat="42.10909" lon="2.99513">
        <ele>89</ele>
        <time>2022-05-21 08:29:05</time>
      </trkpt>
      <trkpt lat="42.10913" lon="2.99517">
        <ele>89</ele>
        <time>2022-05-21 08:29:06</time>
      </trkpt>
      <trkpt lat="42.10916" lon="2.99522">
        <ele>89.2</ele>
        <time>2022-05-21 08:29:07</time>
      </trkpt>
      <trkpt lat="42.10918" lon="2.99527">
        <ele>89.4</ele>
        <time>2022-05-21 08:29:08</time>
      </trkpt>
      <trkpt lat="42.1092" lon="2.99532">
        <ele>89.4</ele>
        <time>2022-05-21 08:29:09</time>
      </trkpt>
      <trkpt lat="42.10922" lon="2.99538">
        <ele>89.4</ele>
        <time>2022-05-21 08:29:10</time>
      </trkpt>
      <trkpt lat="42.10923" lon="2.99544">
        <ele>89.4</ele>
        <time>2022-05-21 08:29:11</time>
      </trkpt>
      <trkpt lat="42.10923" lon="2.99551">
        <ele>89.4</ele>
        <time>2022-05-21 08:29:12</time>
      </trkpt>
      <trkpt lat="42.10924" lon="2.99558">
        <ele>89.6</ele>
        <time>2022-05-21 08:29:13</time>
      </trkpt>
      <trkpt lat="42.10925" lon="2.99564">
        <ele>89.6</ele>
        <time>2022-05-21 08:29:14</time>
      </trkpt>
      <trkpt lat="42.10925" lon="2.99571">
        <ele>89.6</ele>
        <time>2022-05-21 08:29:15</time>
      </trkpt>
      <trkpt lat="42.10926" lon="2.99577">
        <ele>89.8</ele>
        <time>2022-05-21 08:29:16</time>
      </trkpt>
      <trkpt lat="42.10926" lon="2.99583">
        <ele>90</ele>
        <time>2022-05-21 08:29:17</time>
      </trkpt>
      <trkpt lat="42.10927" lon="2.99589">
        <ele>90.2</ele>
        <time>2022-05-21 08:29:18</time>
      </trkpt>
      <trkpt lat="42.10928" lon="2.99595">
        <ele>90.4</ele>
        <time>2022-05-21 08:29:19</time>
      </trkpt>
      <trkpt lat="42.10929" lon="2.996">
        <ele>90.6</ele>
        <time>2022-05-21 08:29:20</time>
      </trkpt>
      <trkpt lat="42.10929" lon="2.99605">
        <ele>91</ele>
        <time>2022-05-21 08:29:21</time>
      </trkpt>
      <trkpt lat="42.10929" lon="2.9961">
        <ele>91.2</ele>
        <time>2022-05-21 08:29:22</time>
      </trkpt>
      <trkpt lat="42.10929" lon="2.99614">
        <ele>91.6</ele>
        <time>2022-05-21 08:29:23</time>
      </trkpt>
      <trkpt lat="42.10929" lon="2.99619">
        <ele>91.8</ele>
        <time>2022-05-21 08:29:24</time>
      </trkpt>
      <trkpt lat="42.10929" lon="2.99624">
        <ele>92</ele>
        <time>2022-05-21 08:29:25</time>
      </trkpt>
      <trkpt lat="42.10929" lon="2.99628">
        <ele>92.4</ele>
        <time>2022-05-21 08:29:26</time>
      </trkpt>
      <trkpt lat="42.10929" lon="2.99633">
        <ele>92.6</ele>
        <time>2022-05-21 08:29:27</time>
      </trkpt>
      <trkpt lat="42.10928" lon="2.99638">
        <ele>92.8</ele>
        <time>2022-05-21 08:29:28</time>
      </trkpt>
      <trkpt lat="42.10927" lon="2.99642">
        <ele>93.2</ele>
        <time>2022-05-21 08:29:29</time>
      </trkpt>
      <trkpt lat="42.10927" lon="2.99647">
        <ele>93.4</ele>
        <time>2022-05-21 08:29:30</time>
      </trkpt>
      <trkpt lat="42.10926" lon="2.99652">
        <ele>93.6</ele>
        <time>2022-05-21 08:29:31</time>
      </trkpt>
      <trkpt lat="42.10925" lon="2.99656">
        <ele>93.8</ele>
        <time>2022-05-21 08:29:32</time>
      </trkpt>
      <trkpt lat="42.10923" lon="2.9966">
        <ele>94</ele>
        <time>2022-05-21 08:29:33</time>
      </trkpt>
      <trkpt lat="42.10923" lon="2.99665">
        <ele>94.2</ele>
        <time>2022-05-21 08:29:34</time>
      </trkpt>
      <trkpt lat="42.10922" lon="2.99669">
        <ele>94.6</ele>
        <time>2022-05-21 08:29:35</time>
      </trkpt>
      <trkpt lat="42.1092" lon="2.99674">
        <ele>94.8</ele>
        <time>2022-05-21 08:29:36</time>
      </trkpt>
      <trkpt lat="42.10919" lon="2.99678">
        <ele>95</ele>
        <time>2022-05-21 08:29:37</time>
      </trkpt>
      <trkpt lat="42.10918" lon="2.99682">
        <ele>95.2</ele>
        <time>2022-05-21 08:29:38</time>
      </trkpt>
      <trkpt lat="42.10917" lon="2.99687">
        <ele>95.4</ele>
        <time>2022-05-21 08:29:39</time>
      </trkpt>
      <trkpt lat="42.10916" lon="2.99691">
        <ele>95.6</ele>
        <time>2022-05-21 08:29:40</time>
      </trkpt>
      <trkpt lat="42.10914" lon="2.99695">
        <ele>95.8</ele>
        <time>2022-05-21 08:29:41</time>
      </trkpt>
      <trkpt lat="42.10913" lon="2.997">
        <ele>96</ele>
        <time>2022-05-21 08:29:42</time>
      </trkpt>
      <trkpt lat="42.10912" lon="2.99705">
        <ele>96.2</ele>
        <time>2022-05-21 08:29:43</time>
      </trkpt>
      <trkpt lat="42.10911" lon="2.99709">
        <ele>96.4</ele>
        <time>2022-05-21 08:29:44</time>
      </trkpt>
      <trkpt lat="42.1091" lon="2.99714">
        <ele>96.6</ele>
        <time>2022-05-21 08:29:45</time>
      </trkpt>
      <trkpt lat="42.10909" lon="2.99719">
        <ele>96.8</ele>
        <time>2022-05-21 08:29:46</time>
      </trkpt>
      <trkpt lat="42.10908" lon="2.99724">
        <ele>97</ele>
        <time>2022-05-21 08:29:47</time>
      </trkpt>
      <trkpt lat="42.10908" lon="2.99729">
        <ele>97.2</ele>
        <time>2022-05-21 08:29:48</time>
      </trkpt>
      <trkpt lat="42.10907" lon="2.99734">
        <ele>97.4</ele>
        <time>2022-05-21 08:29:49</time>
      </trkpt>
      <trkpt lat="42.10907" lon="2.99739">
        <ele>97.4</ele>
        <time>2022-05-21 08:29:50</time>
      </trkpt>
      <trkpt lat="42.10906" lon="2.99744">
        <ele>97.6</ele>
        <time>2022-05-21 08:29:51</time>
      </trkpt>
      <trkpt lat="42.10906" lon="2.99749">
        <ele>97.8</ele>
        <time>2022-05-21 08:29:52</time>
      </trkpt>
      <trkpt lat="42.10906" lon="2.99754">
        <ele>98</ele>
        <time>2022-05-21 08:29:53</time>
      </trkpt>
      <trkpt lat="42.10906" lon="2.99759">
        <ele>98.2</ele>
        <time>2022-05-21 08:29:54</time>
      </trkpt>
      <trkpt lat="42.10906" lon="2.99764">
        <ele>98.4</ele>
        <time>2022-05-21 08:29:55</time>
      </trkpt>
      <trkpt lat="42.10907" lon="2.99769">
        <ele>98.4</ele>
        <time>2022-05-21 08:29:56</time>
      </trkpt>
      <trkpt lat="42.10907" lon="2.99774">
        <ele>98.6</ele>
        <time>2022-05-21 08:29:57</time>
      </trkpt>
      <trkpt lat="42.10908" lon="2.99779">
        <ele>98.8</ele>
        <time>2022-05-21 08:29:58</time>
      </trkpt>
      <trkpt lat="42.10908" lon="2.99784">
        <ele>99</ele>
        <time>2022-05-21 08:29:59</time>
      </trkpt>
      <trkpt lat="42.10909" lon="2.99789">
        <ele>99.2</ele>
        <time>2022-05-21 08:30:00</time>
      </trkpt>
      <trkpt lat="42.10909" lon="2.99794">
        <ele>99.4</ele>
        <time>2022-05-21 08:30:01</time>
      </trkpt>
      <trkpt lat="42.1091" lon="2.99798">
        <ele>99.6</ele>
        <time>2022-05-21 08:30:02</time>
      </trkpt>
      <trkpt lat="42.1091" lon="2.99803">
        <ele>99.8</ele>
        <time>2022-05-21 08:30:03</time>
      </trkpt>
      <trkpt lat="42.1091" lon="2.99808">
        <ele>100</ele>
        <time>2022-05-21 08:30:04</time>
      </trkpt>
      <trkpt lat="42.10911" lon="2.99813">
        <ele>100.2</ele>
        <time>2022-05-21 08:30:05</time>
      </trkpt>
      <trkpt lat="42.10911" lon="2.99818">
        <ele>100.4</ele>
        <time>2022-05-21 08:30:06</time>
      </trkpt>
      <trkpt lat="42.10911" lon="2.99823">
        <ele>100.6</ele>
        <time>2022-05-21 08:30:07</time>
      </trkpt>
      <trkpt lat="42.10912" lon="2.99828">
        <ele>100.8</ele>
        <time>2022-05-21 08:30:08</time>
      </trkpt>
      <trkpt lat="42.10912" lon="2.99832">
        <ele>101</ele>
        <time>2022-05-21 08:30:09</time>
      </trkpt>
      <trkpt lat="42.10913" lon="2.99837">
        <ele>101.4</ele>
        <time>2022-05-21 08:30:10</time>
      </trkpt>
      <trkpt lat="42.10913" lon="2.99842">
        <ele>101.6</ele>
        <time>2022-05-21 08:30:11</time>
      </trkpt>
      <trkpt lat="42.10914" lon="2.99847">
        <ele>101.8</ele>
        <time>2022-05-21 08:30:12</time>
      </trkpt>
      <trkpt lat="42.10915" lon="2.99852">
        <ele>102</ele>
        <time>2022-05-21 08:30:13</time>
      </trkpt>
      <trkpt lat="42.10915" lon="2.99856">
        <ele>102.2</ele>
        <time>2022-05-21 08:30:14</time>
      </trkpt>
      <trkpt lat="42.10916" lon="2.99861">
        <ele>102.4</ele>
        <time>2022-05-21 08:30:15</time>
      </trkpt>
      <trkpt lat="42.10918" lon="2.99866">
        <ele>102.6</ele>
        <time>2022-05-21 08:30:16</time>
      </trkpt>
      <trkpt lat="42.1092" lon="2.9987">
        <ele>102.8</ele>
        <time>2022-05-21 08:30:17</time>
      </trkpt>
      <trkpt lat="42.10922" lon="2.99875">
        <ele>103</ele>
        <time>2022-05-21 08:30:18</time>
      </trkpt>
      <trkpt lat="42.10924" lon="2.99879">
        <ele>103.2</ele>
        <time>2022-05-21 08:30:19</time>
      </trkpt>
      <trkpt lat="42.10927" lon="2.99882">
        <ele>103.4</ele>
        <time>2022-05-21 08:30:20</time>
      </trkpt>
      <trkpt lat="42.1093" lon="2.99885">
        <ele>103.6</ele>
        <time>2022-05-21 08:30:21</time>
      </trkpt>
      <trkpt lat="42.10933" lon="2.99888">
        <ele>103.8</ele>
        <time>2022-05-21 08:30:22</time>
      </trkpt>
      <trkpt lat="42.10937" lon="2.99891">
        <ele>104</ele>
        <time>2022-05-21 08:30:23</time>
      </trkpt>
      <trkpt lat="42.1094" lon="2.99893">
        <ele>104.2</ele>
        <time>2022-05-21 08:30:24</time>
      </trkpt>
      <trkpt lat="42.10944" lon="2.99895">
        <ele>104.2</ele>
        <time>2022-05-21 08:30:25</time>
      </trkpt>
      <trkpt lat="42.10948" lon="2.99896">
        <ele>104.4</ele>
        <time>2022-05-21 08:30:26</time>
      </trkpt>
      <trkpt lat="42.10951" lon="2.99897">
        <ele>104.6</ele>
        <time>2022-05-21 08:30:27</time>
      </trkpt>
      <trkpt lat="42.10955" lon="2.99898">
        <ele>104.8</ele>
        <time>2022-05-21 08:30:28</time>
      </trkpt>
      <trkpt lat="42.10959" lon="2.99899">
        <ele>105</ele>
        <time>2022-05-21 08:30:29</time>
      </trkpt>
      <trkpt lat="42.10963" lon="2.99899">
        <ele>105.2</ele>
        <time>2022-05-21 08:30:30</time>
      </trkpt>
      <trkpt lat="42.10967" lon="2.999">
        <ele>105.2</ele>
        <time>2022-05-21 08:30:31</time>
      </trkpt>
      <trkpt lat="42.10971" lon="2.99901">
        <ele>105.4</ele>
        <time>2022-05-21 08:30:32</time>
      </trkpt>
      <trkpt lat="42.10975" lon="2.99902">
        <ele>105.6</ele>
        <time>2022-05-21 08:30:33</time>
      </trkpt>
      <trkpt lat="42.10979" lon="2.99903">
        <ele>105.8</ele>
        <time>2022-05-21 08:30:34</time>
      </trkpt>
      <trkpt lat="42.10983" lon="2.99904">
        <ele>106</ele>
        <time>2022-05-21 08:30:35</time>
      </trkpt>
      <trkpt lat="42.10987" lon="2.99905">
        <ele>106.2</ele>
        <time>2022-05-21 08:30:36</time>
      </trkpt>
      <trkpt lat="42.1099" lon="2.99905">
        <ele>106.4</ele>
        <time>2022-05-21 08:30:37</time>
      </trkpt>
      <trkpt lat="42.10994" lon="2.99906">
        <ele>106.6</ele>
        <time>2022-05-21 08:30:38</time>
      </trkpt>
      <trkpt lat="42.10999" lon="2.99908">
        <ele>106.8</ele>
        <time>2022-05-21 08:30:39</time>
      </trkpt>
      <trkpt lat="42.11003" lon="2.99909">
        <ele>107</ele>
        <time>2022-05-21 08:30:40</time>
      </trkpt>
      <trkpt lat="42.11006" lon="2.9991">
        <ele>107.2</ele>
        <time>2022-05-21 08:30:41</time>
      </trkpt>
      <trkpt lat="42.1101" lon="2.99911">
        <ele>107.4</ele>
        <time>2022-05-21 08:30:42</time>
      </trkpt>
      <trkpt lat="42.11014" lon="2.99913">
        <ele>107.6</ele>
        <time>2022-05-21 08:30:43</time>
      </trkpt>
      <trkpt lat="42.11018" lon="2.99914">
        <ele>107.8</ele>
        <time>2022-05-21 08:30:44</time>
      </trkpt>
      <trkpt lat="42.11021" lon="2.99915">
        <ele>108</ele>
        <time>2022-05-21 08:30:45</time>
      </trkpt>
      <trkpt lat="42.11025" lon="2.99916">
        <ele>108.2</ele>
        <time>2022-05-21 08:30:46</time>
      </trkpt>
      <trkpt lat="42.11029" lon="2.99917">
        <ele>108.4</ele>
        <time>2022-05-21 08:30:47</time>
      </trkpt>
      <trkpt lat="42.11032" lon="2.99918">
        <ele>108.6</ele>
        <time>2022-05-21 08:30:48</time>
      </trkpt>
      <trkpt lat="42.11036" lon="2.99919">
        <ele>108.8</ele>
        <time>2022-05-21 08:30:49</time>
      </trkpt>
      <trkpt lat="42.11039" lon="2.99921">
        <ele>109</ele>
        <time>2022-05-21 08:30:50</time>
      </trkpt>
      <trkpt lat="42.11043" lon="2.99922">
        <ele>109</ele>
        <time>2022-05-21 08:30:51</time>
      </trkpt>
      <trkpt lat="42.11047" lon="2.99923">
        <ele>109.2</ele>
        <time>2022-05-21 08:30:52</time>
      </trkpt>
      <trkpt lat="42.11051" lon="2.99924">
        <ele>109.4</ele>
        <time>2022-05-21 08:30:53</time>
      </trkpt>
      <trkpt lat="42.11055" lon="2.99924">
        <ele>109.6</ele>
        <time>2022-05-21 08:30:54</time>
      </trkpt>
      <trkpt lat="42.11058" lon="2.99925">
        <ele>109.8</ele>
        <time>2022-05-21 08:30:55</time>
      </trkpt>
      <trkpt lat="42.11062" lon="2.99926">
        <ele>110</ele>
        <time>2022-05-21 08:30:56</time>
      </trkpt>
      <trkpt lat="42.11066" lon="2.99927">
        <ele>110.2</ele>
        <time>2022-05-21 08:30:57</time>
      </trkpt>
      <trkpt lat="42.11069" lon="2.99929">
        <ele>110.6</ele>
        <time>2022-05-21 08:30:58</time>
      </trkpt>
      <trkpt lat="42.11073" lon="2.9993">
        <ele>110.6</ele>
        <time>2022-05-21 08:30:59</time>
      </trkpt>
      <trkpt lat="42.11077" lon="2.99931">
        <ele>110.8</ele>
        <time>2022-05-21 08:31:00</time>
      </trkpt>
      <trkpt lat="42.1108" lon="2.99932">
        <ele>111.2</ele>
        <time>2022-05-21 08:31:01</time>
      </trkpt>
      <trkpt lat="42.11084" lon="2.99933">
        <ele>111.4</ele>
        <time>2022-05-21 08:31:02</time>
      </trkpt>
      <trkpt lat="42.11088" lon="2.99934">
        <ele>111.6</ele>
        <time>2022-05-21 08:31:03</time>
      </trkpt>
      <trkpt lat="42.11091" lon="2.99935">
        <ele>111.8</ele>
        <time>2022-05-21 08:31:04</time>
      </trkpt>
      <trkpt lat="42.11095" lon="2.99936">
        <ele>112</ele>
        <time>2022-05-21 08:31:05</time>
      </trkpt>
      <trkpt lat="42.11098" lon="2.99937">
        <ele>112.2</ele>
        <time>2022-05-21 08:31:06</time>
      </trkpt>
      <trkpt lat="42.11102" lon="2.99938">
        <ele>112.6</ele>
        <time>2022-05-21 08:31:07</time>
      </trkpt>
      <trkpt lat="42.11105" lon="2.99939">
        <ele>112.8</ele>
        <time>2022-05-21 08:31:08</time>
      </trkpt>
      <trkpt lat="42.11108" lon="2.9994">
        <ele>113</ele>
        <time>2022-05-21 08:31:09</time>
      </trkpt>
      <trkpt lat="42.11111" lon="2.99941">
        <ele>113.2</ele>
        <time>2022-05-21 08:31:10</time>
      </trkpt>
      <trkpt lat="42.11114" lon="2.99942">
        <ele>113.4</ele>
        <time>2022-05-21 08:31:11</time>
      </trkpt>
      <trkpt lat="42.11117" lon="2.99943">
        <ele>113.6</ele>
        <time>2022-05-21 08:31:12</time>
      </trkpt>
      <trkpt lat="42.1112" lon="2.99944">
        <ele>113.8</ele>
        <time>2022-05-21 08:31:13</time>
      </trkpt>
      <trkpt lat="42.11124" lon="2.99944">
        <ele>114</ele>
        <time>2022-05-21 08:31:14</time>
      </trkpt>
      <trkpt lat="42.11127" lon="2.99945">
        <ele>114.2</ele>
        <time>2022-05-21 08:31:15</time>
      </trkpt>
      <trkpt lat="42.1113" lon="2.99946">
        <ele>114.4</ele>
        <time>2022-05-21 08:31:16</time>
      </trkpt>
      <trkpt lat="42.11134" lon="2.99947">
        <ele>114.6</ele>
        <time>2022-05-21 08:31:17</time>
      </trkpt>
      <trkpt lat="42.11138" lon="2.99948">
        <ele>114.8</ele>
        <time>2022-05-21 08:31:18</time>
      </trkpt>
      <trkpt lat="42.11141" lon="2.99948">
        <ele>115</ele>
        <time>2022-05-21 08:31:19</time>
      </trkpt>
      <trkpt lat="42.11144" lon="2.99949">
        <ele>115.4</ele>
        <time>2022-05-21 08:31:20</time>
      </trkpt>
      <trkpt lat="42.11148" lon="2.9995">
        <ele>115.6</ele>
        <time>2022-05-21 08:31:21</time>
      </trkpt>
      <trkpt lat="42.11151" lon="2.99951">
        <ele>115.8</ele>
        <time>2022-05-21 08:31:22</time>
      </trkpt>
      <trkpt lat="42.11154" lon="2.99952">
        <ele>116</ele>
        <time>2022-05-21 08:31:23</time>
      </trkpt>
      <trkpt lat="42.11157" lon="2.99953">
        <ele>116.2</ele>
        <time>2022-05-21 08:31:24</time>
      </trkpt>
      <trkpt lat="42.1116" lon="2.99954">
        <ele>116.4</ele>
        <time>2022-05-21 08:31:25</time>
      </trkpt>
      <trkpt lat="42.11162" lon="2.99955">
        <ele>116.6</ele>
        <time>2022-05-21 08:31:26</time>
      </trkpt>
      <trkpt lat="42.11165" lon="2.99956">
        <ele>116.8</ele>
        <time>2022-05-21 08:31:27</time>
      </trkpt>
      <trkpt lat="42.11168" lon="2.99956">
        <ele>117</ele>
        <time>2022-05-21 08:31:28</time>
      </trkpt>
      <trkpt lat="42.11171" lon="2.99957">
        <ele>117.2</ele>
        <time>2022-05-21 08:31:29</time>
      </trkpt>
      <trkpt lat="42.11174" lon="2.99958">
        <ele>117.4</ele>
        <time>2022-05-21 08:31:30</time>
      </trkpt>
      <trkpt lat="42.11177" lon="2.99958">
        <ele>117.6</ele>
        <time>2022-05-21 08:31:31</time>
      </trkpt>
      <trkpt lat="42.11179" lon="2.99959">
        <ele>117.8</ele>
        <time>2022-05-21 08:31:32</time>
      </trkpt>
      <trkpt lat="42.11182" lon="2.9996">
        <ele>118</ele>
        <time>2022-05-21 08:31:33</time>
      </trkpt>
      <trkpt lat="42.11185" lon="2.99961">
        <ele>118.2</ele>
        <time>2022-05-21 08:31:34</time>
      </trkpt>
      <trkpt lat="42.11188" lon="2.99962">
        <ele>118.4</ele>
        <time>2022-05-21 08:31:35</time>
      </trkpt>
      <trkpt lat="42.11191" lon="2.99963">
        <ele>118.6</ele>
        <time>2022-05-21 08:31:36</time>
      </trkpt>
      <trkpt lat="42.11194" lon="2.99964">
        <ele>118.8</ele>
        <time>2022-05-21 08:31:37</time>
      </trkpt>
      <trkpt lat="42.11197" lon="2.99965">
        <ele>118.8</ele>
        <time>2022-05-21 08:31:38</time>
      </trkpt>
      <trkpt lat="42.112" lon="2.99966">
        <ele>119</ele>
        <time>2022-05-21 08:31:39</time>
      </trkpt>
      <trkpt lat="42.11203" lon="2.99967">
        <ele>119.2</ele>
        <time>2022-05-21 08:31:40</time>
      </trkpt>
      <trkpt lat="42.11207" lon="2.99968">
        <ele>119.4</ele>
        <time>2022-05-21 08:31:41</time>
      </trkpt>
      <trkpt lat="42.11211" lon="2.99969">
        <ele>119.4</ele>
        <time>2022-05-21 08:31:42</time>
      </trkpt>
      <trkpt lat="42.11214" lon="2.9997">
        <ele>119.4</ele>
        <time>2022-05-21 08:31:43</time>
      </trkpt>
      <trkpt lat="42.11218" lon="2.99971">
        <ele>119.6</ele>
        <time>2022-05-21 08:31:44</time>
      </trkpt>
      <trkpt lat="42.11222" lon="2.99973">
        <ele>119.6</ele>
        <time>2022-05-21 08:31:45</time>
      </trkpt>
      <trkpt lat="42.11227" lon="2.99974">
        <ele>119.4</ele>
        <time>2022-05-21 08:31:46</time>
      </trkpt>
      <trkpt lat="42.11232" lon="2.99975">
        <ele>119.4</ele>
        <time>2022-05-21 08:31:47</time>
      </trkpt>
      <trkpt lat="42.11237" lon="2.99977">
        <ele>119.4</ele>
        <time>2022-05-21 08:31:48</time>
      </trkpt>
      <trkpt lat="42.11242" lon="2.99978">
        <ele>119.2</ele>
        <time>2022-05-21 08:31:49</time>
      </trkpt>
      <trkpt lat="42.11247" lon="2.9998">
        <ele>119.2</ele>
        <time>2022-05-21 08:31:50</time>
      </trkpt>
      <trkpt lat="42.11253" lon="2.99982">
        <ele>119</ele>
        <time>2022-05-21 08:31:51</time>
      </trkpt>
      <trkpt lat="42.11259" lon="2.99983">
        <ele>118.8</ele>
        <time>2022-05-21 08:31:52</time>
      </trkpt>
      <trkpt lat="42.11265" lon="2.99985">
        <ele>118.6</ele>
        <time>2022-05-21 08:31:53</time>
      </trkpt>
      <trkpt lat="42.11271" lon="2.99987">
        <ele>118.4</ele>
        <time>2022-05-21 08:31:54</time>
      </trkpt>
      <trkpt lat="42.11278" lon="2.99989">
        <ele>118.2</ele>
        <time>2022-05-21 08:31:55</time>
      </trkpt>
      <trkpt lat="42.11284" lon="2.99991">
        <ele>118</ele>
        <time>2022-05-21 08:31:56</time>
      </trkpt>
      <trkpt lat="42.11291" lon="2.99993">
        <ele>118</ele>
        <time>2022-05-21 08:31:57</time>
      </trkpt>
      <trkpt lat="42.11297" lon="2.99994">
        <ele>117.8</ele>
        <time>2022-05-21 08:31:58</time>
      </trkpt>
      <trkpt lat="42.11304" lon="2.99996">
        <ele>117.6</ele>
        <time>2022-05-21 08:31:59</time>
      </trkpt>
      <trkpt lat="42.11311" lon="2.99998">
        <ele>117.4</ele>
        <time>2022-05-21 08:32:00</time>
      </trkpt>
      <trkpt lat="42.11318" lon="3">
        <ele>117.2</ele>
        <time>2022-05-21 08:32:01</time>
      </trkpt>
      <trkpt lat="42.11325" lon="3.00002">
        <ele>117.2</ele>
        <time>2022-05-21 08:32:02</time>
      </trkpt>
      <trkpt lat="42.11332" lon="3.00004">
        <ele>117</ele>
        <time>2022-05-21 08:32:03</time>
      </trkpt>
      <trkpt lat="42.1134" lon="3.00007">
        <ele>116.8</ele>
        <time>2022-05-21 08:32:04</time>
      </trkpt>
      <trkpt lat="42.11347" lon="3.00009">
        <ele>116.6</ele>
        <time>2022-05-21 08:32:05</time>
      </trkpt>
      <trkpt lat="42.11354" lon="3.0001">
        <ele>116.6</ele>
        <time>2022-05-21 08:32:06</time>
      </trkpt>
      <trkpt lat="42.11362" lon="3.00012">
        <ele>116.4</ele>
        <time>2022-05-21 08:32:07</time>
      </trkpt>
      <trkpt lat="42.11369" lon="3.00014">
        <ele>116.4</ele>
        <time>2022-05-21 08:32:08</time>
      </trkpt>
      <trkpt lat="42.11376" lon="3.00017">
        <ele>116.2</ele>
        <time>2022-05-21 08:32:09</time>
      </trkpt>
      <trkpt lat="42.11383" lon="3.00019">
        <ele>116.2</ele>
        <time>2022-05-21 08:32:10</time>
      </trkpt>
      <trkpt lat="42.1139" lon="3.0002">
        <ele>116.2</ele>
        <time>2022-05-21 08:32:11</time>
      </trkpt>
      <trkpt lat="42.11397" lon="3.00022">
        <ele>116</ele>
        <time>2022-05-21 08:32:12</time>
      </trkpt>
      <trkpt lat="42.11404" lon="3.00024">
        <ele>116</ele>
        <time>2022-05-21 08:32:13</time>
      </trkpt>
      <trkpt lat="42.1141" lon="3.00025">
        <ele>115.8</ele>
        <time>2022-05-21 08:32:14</time>
      </trkpt>
      <trkpt lat="42.11417" lon="3.00027">
        <ele>115.8</ele>
        <time>2022-05-21 08:32:15</time>
      </trkpt>
      <trkpt lat="42.11424" lon="3.00029">
        <ele>115.8</ele>
        <time>2022-05-21 08:32:16</time>
      </trkpt>
      <trkpt lat="42.11431" lon="3.00031">
        <ele>115.8</ele>
        <time>2022-05-21 08:32:17</time>
      </trkpt>
      <trkpt lat="42.11439" lon="3.00034">
        <ele>115.8</ele>
        <time>2022-05-21 08:32:18</time>
      </trkpt>
      <trkpt lat="42.11445" lon="3.00036">
        <ele>115.8</ele>
        <time>2022-05-21 08:32:19</time>
      </trkpt>
      <trkpt lat="42.11452" lon="3.00038">
        <ele>115.6</ele>
        <time>2022-05-21 08:32:20</time>
      </trkpt>
      <trkpt lat="42.11459" lon="3.0004">
        <ele>115.6</ele>
        <time>2022-05-21 08:32:21</time>
      </trkpt>
      <trkpt lat="42.11466" lon="3.00042">
        <ele>115.6</ele>
        <time>2022-05-21 08:32:22</time>
      </trkpt>
      <trkpt lat="42.11473" lon="3.00044">
        <ele>115.4</ele>
        <time>2022-05-21 08:32:23</time>
      </trkpt>
      <trkpt lat="42.1148" lon="3.00045">
        <ele>115.4</ele>
        <time>2022-05-21 08:32:24</time>
      </trkpt>
      <trkpt lat="42.11487" lon="3.00046">
        <ele>115.2</ele>
        <time>2022-05-21 08:32:25</time>
      </trkpt>
      <trkpt lat="42.11495" lon="3.00047">
        <ele>115.2</ele>
        <time>2022-05-21 08:32:26</time>
      </trkpt>
      <trkpt lat="42.11502" lon="3.00047">
        <ele>115</ele>
        <time>2022-05-21 08:32:27</time>
      </trkpt>
      <trkpt lat="42.11509" lon="3.00047">
        <ele>115</ele>
        <time>2022-05-21 08:32:28</time>
      </trkpt>
      <trkpt lat="42.11517" lon="3.00048">
        <ele>115</ele>
        <time>2022-05-21 08:32:29</time>
      </trkpt>
      <trkpt lat="42.11524" lon="3.00048">
        <ele>114.8</ele>
        <time>2022-05-21 08:32:30</time>
      </trkpt>
      <trkpt lat="42.11531" lon="3.00048">
        <ele>114.8</ele>
        <time>2022-05-21 08:32:31</time>
      </trkpt>
      <trkpt lat="42.11538" lon="3.00048">
        <ele>114.8</ele>
        <time>2022-05-21 08:32:32</time>
      </trkpt>
      <trkpt lat="42.11545" lon="3.00048">
        <ele>114.8</ele>
        <time>2022-05-21 08:32:33</time>
      </trkpt>
      <trkpt lat="42.11552" lon="3.00048">
        <ele>114.8</ele>
        <time>2022-05-21 08:32:34</time>
      </trkpt>
      <trkpt lat="42.11559" lon="3.00048">
        <ele>114.8</ele>
        <time>2022-05-21 08:32:35</time>
      </trkpt>
      <trkpt lat="42.11566" lon="3.00048">
        <ele>114.8</ele>
        <time>2022-05-21 08:32:36</time>
      </trkpt>
      <trkpt lat="42.11573" lon="3.00048">
        <ele>114.8</ele>
        <time>2022-05-21 08:32:37</time>
      </trkpt>
      <trkpt lat="42.1158" lon="3.00048">
        <ele>114.8</ele>
        <time>2022-05-21 08:32:38</time>
      </trkpt>
      <trkpt lat="42.11587" lon="3.00049">
        <ele>115</ele>
        <time>2022-05-21 08:32:39</time>
      </trkpt>
      <trkpt lat="42.11594" lon="3.00049">
        <ele>115</ele>
        <time>2022-05-21 08:32:40</time>
      </trkpt>
      <trkpt lat="42.11601" lon="3.0005">
        <ele>115</ele>
        <time>2022-05-21 08:32:41</time>
      </trkpt>
      <trkpt lat="42.11608" lon="3.00051">
        <ele>115.2</ele>
        <time>2022-05-21 08:32:42</time>
      </trkpt>
      <trkpt lat="42.11615" lon="3.00051">
        <ele>115.2</ele>
        <time>2022-05-21 08:32:43</time>
      </trkpt>
      <trkpt lat="42.11621" lon="3.00051">
        <ele>115.4</ele>
        <time>2022-05-21 08:32:44</time>
      </trkpt>
      <trkpt lat="42.11627" lon="3.00051">
        <ele>115.6</ele>
        <time>2022-05-21 08:32:45</time>
      </trkpt>
      <trkpt lat="42.11634" lon="3.00051">
        <ele>115.8</ele>
        <time>2022-05-21 08:32:46</time>
      </trkpt>
      <trkpt lat="42.1164" lon="3.00051">
        <ele>116</ele>
        <time>2022-05-21 08:32:47</time>
      </trkpt>
      <trkpt lat="42.11646" lon="3.00051">
        <ele>116.4</ele>
        <time>2022-05-21 08:32:48</time>
      </trkpt>
      <trkpt lat="42.11652" lon="3.00051">
        <ele>116.6</ele>
        <time>2022-05-21 08:32:49</time>
      </trkpt>
      <trkpt lat="42.11658" lon="3.0005">
        <ele>116.8</ele>
        <time>2022-05-21 08:32:50</time>
      </trkpt>
      <trkpt lat="42.11664" lon="3.00048">
        <ele>117</ele>
        <time>2022-05-21 08:32:51</time>
      </trkpt>
      <trkpt lat="42.11669" lon="3.00046">
        <ele>117.2</ele>
        <time>2022-05-21 08:32:52</time>
      </trkpt>
      <trkpt lat="42.11675" lon="3.00044">
        <ele>117.4</ele>
        <time>2022-05-21 08:32:53</time>
      </trkpt>
      <trkpt lat="42.11681" lon="3.00042">
        <ele>117.6</ele>
        <time>2022-05-21 08:32:54</time>
      </trkpt>
      <trkpt lat="42.11686" lon="3.00039">
        <ele>117.6</ele>
        <time>2022-05-21 08:32:55</time>
      </trkpt>
      <trkpt lat="42.11692" lon="3.00037">
        <ele>117.8</ele>
        <time>2022-05-21 08:32:56</time>
      </trkpt>
      <trkpt lat="42.11697" lon="3.00034">
        <ele>117.8</ele>
        <time>2022-05-21 08:32:57</time>
      </trkpt>
      <trkpt lat="42.11704" lon="3.00031">
        <ele>117.8</ele>
        <time>2022-05-21 08:32:58</time>
      </trkpt>
      <trkpt lat="42.1171" lon="3.00028">
        <ele>117.6</ele>
        <time>2022-05-21 08:32:59</time>
      </trkpt>
      <trkpt lat="42.11717" lon="3.00025">
        <ele>117.6</ele>
        <time>2022-05-21 08:33:00</time>
      </trkpt>
      <trkpt lat="42.11724" lon="3.00022">
        <ele>117.2</ele>
        <time>2022-05-21 08:33:01</time>
      </trkpt>
      <trkpt lat="42.11731" lon="3.00019">
        <ele>117</ele>
        <time>2022-05-21 08:33:02</time>
      </trkpt>
      <trkpt lat="42.11738" lon="3.00016">
        <ele>116.6</ele>
        <time>2022-05-21 08:33:03</time>
      </trkpt>
      <trkpt lat="42.11746" lon="3.00013">
        <ele>116.2</ele>
        <time>2022-05-21 08:33:04</time>
      </trkpt>
      <trkpt lat="42.11755" lon="3.00009">
        <ele>115.8</ele>
        <time>2022-05-21 08:33:05</time>
      </trkpt>
      <trkpt lat="42.11763" lon="3.00006">
        <ele>115.2</ele>
        <time>2022-05-21 08:33:06</time>
      </trkpt>
      <trkpt lat="42.11772" lon="3.00002">
        <ele>114.6</ele>
        <time>2022-05-21 08:33:07</time>
      </trkpt>
      <trkpt lat="42.1178" lon="2.99998">
        <ele>114.2</ele>
        <time>2022-05-21 08:33:08</time>
      </trkpt>
      <trkpt lat="42.1179" lon="2.99995">
        <ele>113.8</ele>
        <time>2022-05-21 08:33:09</time>
      </trkpt>
      <trkpt lat="42.118" lon="2.99992">
        <ele>113</ele>
        <time>2022-05-21 08:33:10</time>
      </trkpt>
      <trkpt lat="42.11809" lon="2.9999">
        <ele>112.4</ele>
        <time>2022-05-21 08:33:11</time>
      </trkpt>
      <trkpt lat="42.11819" lon="2.9999">
        <ele>111.8</ele>
        <time>2022-05-21 08:33:12</time>
      </trkpt>
      <trkpt lat="42.11829" lon="2.99992">
        <ele>111.4</ele>
        <time>2022-05-21 08:33:13</time>
      </trkpt>
      <trkpt lat="42.11839" lon="2.99995">
        <ele>111</ele>
        <time>2022-05-21 08:33:14</time>
      </trkpt>
      <trkpt lat="42.11848" lon="2.99998">
        <ele>110.6</ele>
        <time>2022-05-21 08:33:15</time>
      </trkpt>
      <trkpt lat="42.11858" lon="3">
        <ele>110.2</ele>
        <time>2022-05-21 08:33:16</time>
      </trkpt>
      <trkpt lat="42.11868" lon="3.00002">
        <ele>109.8</ele>
        <time>2022-05-21 08:33:17</time>
      </trkpt>
      <trkpt lat="42.11877" lon="3.00005">
        <ele>109.4</ele>
        <time>2022-05-21 08:33:18</time>
      </trkpt>
      <trkpt lat="42.11887" lon="3.00007">
        <ele>109</ele>
        <time>2022-05-21 08:33:19</time>
      </trkpt>
      <trkpt lat="42.11896" lon="3.00009">
        <ele>108.8</ele>
        <time>2022-05-21 08:33:20</time>
      </trkpt>
      <trkpt lat="42.11906" lon="3.00011">
        <ele>108.4</ele>
        <time>2022-05-21 08:33:21</time>
      </trkpt>
      <trkpt lat="42.11916" lon="3.00013">
        <ele>108</ele>
        <time>2022-05-21 08:33:22</time>
      </trkpt>
      <trkpt lat="42.11925" lon="3.00016">
        <ele>107.6</ele>
        <time>2022-05-21 08:33:23</time>
      </trkpt>
      <trkpt lat="42.11935" lon="3.00018">
        <ele>107.2</ele>
        <time>2022-05-21 08:33:24</time>
      </trkpt>
      <trkpt lat="42.11945" lon="3.00021">
        <ele>107</ele>
        <time>2022-05-21 08:33:25</time>
      </trkpt>
      <trkpt lat="42.11955" lon="3.00024">
        <ele>106.6</ele>
        <time>2022-05-21 08:33:26</time>
      </trkpt>
      <trkpt lat="42.11964" lon="3.00028">
        <ele>106.4</ele>
        <time>2022-05-21 08:33:27</time>
      </trkpt>
      <trkpt lat="42.11973" lon="3.00032">
        <ele>106</ele>
        <time>2022-05-21 08:33:28</time>
      </trkpt>
      <trkpt lat="42.11982" lon="3.00038">
        <ele>105.6</ele>
        <time>2022-05-21 08:33:29</time>
      </trkpt>
      <trkpt lat="42.11989" lon="3.00045">
        <ele>105.4</ele>
        <time>2022-05-21 08:33:30</time>
      </trkpt>
      <trkpt lat="42.11996" lon="3.00053">
        <ele>105.2</ele>
        <time>2022-05-21 08:33:31</time>
      </trkpt>
      <trkpt lat="42.12003" lon="3.00062">
        <ele>104.8</ele>
        <time>2022-05-21 08:33:32</time>
      </trkpt>
      <trkpt lat="42.1201" lon="3.00072">
        <ele>104.4</ele>
        <time>2022-05-21 08:33:33</time>
      </trkpt>
      <trkpt lat="42.12018" lon="3.00081">
        <ele>104</ele>
        <time>2022-05-21 08:33:34</time>
      </trkpt>
      <trkpt lat="42.12025" lon="3.00091">
        <ele>103.8</ele>
        <time>2022-05-21 08:33:35</time>
      </trkpt>
      <trkpt lat="42.12033" lon="3.00101">
        <ele>103.6</ele>
        <time>2022-05-21 08:33:36</time>
      </trkpt>
      <trkpt lat="42.12041" lon="3.0011">
        <ele>103.2</ele>
        <time>2022-05-21 08:33:37</time>
      </trkpt>
      <trkpt lat="42.12047" lon="3.00119">
        <ele>103</ele>
        <time>2022-05-21 08:33:38</time>
      </trkpt>
      <trkpt lat="42.12054" lon="3.00127">
        <ele>102.6</ele>
        <time>2022-05-21 08:33:39</time>
      </trkpt>
      <trkpt lat="42.1206" lon="3.00136">
        <ele>102.2</ele>
        <time>2022-05-21 08:33:40</time>
      </trkpt>
      <trkpt lat="42.12067" lon="3.00144">
        <ele>102</ele>
        <time>2022-05-21 08:33:41</time>
      </trkpt>
      <trkpt lat="42.12074" lon="3.00151">
        <ele>101.6</ele>
        <time>2022-05-21 08:33:42</time>
      </trkpt>
      <trkpt lat="42.12081" lon="3.00159">
        <ele>101.4</ele>
        <time>2022-05-21 08:33:43</time>
      </trkpt>
      <trkpt lat="42.12088" lon="3.00166">
        <ele>101</ele>
        <time>2022-05-21 08:33:44</time>
      </trkpt>
      <trkpt lat="42.12096" lon="3.00173">
        <ele>100.8</ele>
        <time>2022-05-21 08:33:45</time>
      </trkpt>
      <trkpt lat="42.12105" lon="3.00179">
        <ele>100.4</ele>
        <time>2022-05-21 08:33:46</time>
      </trkpt>
      <trkpt lat="42.12114" lon="3.00185">
        <ele>100.2</ele>
        <time>2022-05-21 08:33:47</time>
      </trkpt>
      <trkpt lat="42.12123" lon="3.00188">
        <ele>99.8</ele>
        <time>2022-05-21 08:33:48</time>
      </trkpt>
      <trkpt lat="42.12133" lon="3.0019">
        <ele>99.6</ele>
        <time>2022-05-21 08:33:49</time>
      </trkpt>
      <trkpt lat="42.12142" lon="3.00191">
        <ele>99.4</ele>
        <time>2022-05-21 08:33:50</time>
      </trkpt>
      <trkpt lat="42.12151" lon="3.00189">
        <ele>99.4</ele>
        <time>2022-05-21 08:33:51</time>
      </trkpt>
      <trkpt lat="42.12159" lon="3.00187">
        <ele>99.2</ele>
        <time>2022-05-21 08:33:52</time>
      </trkpt>
      <trkpt lat="42.12166" lon="3.00183">
        <ele>99.2</ele>
        <time>2022-05-21 08:33:53</time>
      </trkpt>
      <trkpt lat="42.12174" lon="3.00179">
        <ele>99.2</ele>
        <time>2022-05-21 08:33:54</time>
      </trkpt>
      <trkpt lat="42.12181" lon="3.00174">
        <ele>99.4</ele>
        <time>2022-05-21 08:33:55</time>
      </trkpt>
      <trkpt lat="42.12188" lon="3.0017">
        <ele>99.4</ele>
        <time>2022-05-21 08:33:56</time>
      </trkpt>
      <trkpt lat="42.12194" lon="3.00166">
        <ele>99.4</ele>
        <time>2022-05-21 08:33:57</time>
      </trkpt>
      <trkpt lat="42.12201" lon="3.00162">
        <ele>99.4</ele>
        <time>2022-05-21 08:33:58</time>
      </trkpt>
      <trkpt lat="42.12206" lon="3.00158">
        <ele>99.4</ele>
        <time>2022-05-21 08:33:59</time>
      </trkpt>
      <trkpt lat="42.12212" lon="3.00154">
        <ele>99.4</ele>
        <time>2022-05-21 08:34:00</time>
      </trkpt>
      <trkpt lat="42.12219" lon="3.0015">
        <ele>99.6</ele>
        <time>2022-05-21 08:34:01</time>
      </trkpt>
      <trkpt lat="42.12225" lon="3.00145">
        <ele>99.6</ele>
        <time>2022-05-21 08:34:02</time>
      </trkpt>
      <trkpt lat="42.12231" lon="3.00141">
        <ele>99.6</ele>
        <time>2022-05-21 08:34:03</time>
      </trkpt>
      <trkpt lat="42.12236" lon="3.00137">
        <ele>99.6</ele>
        <time>2022-05-21 08:34:04</time>
      </trkpt>
      <trkpt lat="42.12242" lon="3.00134">
        <ele>99.6</ele>
        <time>2022-05-21 08:34:05</time>
      </trkpt>
      <trkpt lat="42.12248" lon="3.0013">
        <ele>99.8</ele>
        <time>2022-05-21 08:34:06</time>
      </trkpt>
      <trkpt lat="42.12253" lon="3.00126">
        <ele>99.8</ele>
        <time>2022-05-21 08:34:07</time>
      </trkpt>
      <trkpt lat="42.12258" lon="3.00123">
        <ele>99.8</ele>
        <time>2022-05-21 08:34:08</time>
      </trkpt>
      <trkpt lat="42.12264" lon="3.00119">
        <ele>99.8</ele>
        <time>2022-05-21 08:34:09</time>
      </trkpt>
      <trkpt lat="42.12269" lon="3.00116">
        <ele>99.8</ele>
        <time>2022-05-21 08:34:10</time>
      </trkpt>
      <trkpt lat="42.12275" lon="3.00112">
        <ele>100</ele>
        <time>2022-05-21 08:34:11</time>
      </trkpt>
      <trkpt lat="42.12281" lon="3.00109">
        <ele>100</ele>
        <time>2022-05-21 08:34:12</time>
      </trkpt>
      <trkpt lat="42.12286" lon="3.00106">
        <ele>100.2</ele>
        <time>2022-05-21 08:34:13</time>
      </trkpt>
      <trkpt lat="42.12292" lon="3.00102">
        <ele>100.2</ele>
        <time>2022-05-21 08:34:14</time>
      </trkpt>
      <trkpt lat="42.12298" lon="3.00099">
        <ele>100.2</ele>
        <time>2022-05-21 08:34:15</time>
      </trkpt>
      <trkpt lat="42.12304" lon="3.00096">
        <ele>100.4</ele>
        <time>2022-05-21 08:34:16</time>
      </trkpt>
      <trkpt lat="42.12309" lon="3.00093">
        <ele>100.4</ele>
        <time>2022-05-21 08:34:17</time>
      </trkpt>
      <trkpt lat="42.12315" lon="3.0009">
        <ele>100.6</ele>
        <time>2022-05-21 08:34:18</time>
      </trkpt>
      <trkpt lat="42.1232" lon="3.00086">
        <ele>100.8</ele>
        <time>2022-05-21 08:34:19</time>
      </trkpt>
      <trkpt lat="42.12326" lon="3.00083">
        <ele>100.8</ele>
        <time>2022-05-21 08:34:20</time>
      </trkpt>
      <trkpt lat="42.12331" lon="3.00079">
        <ele>101</ele>
        <time>2022-05-21 08:34:21</time>
      </trkpt>
      <trkpt lat="42.12337" lon="3.00076">
        <ele>101</ele>
        <time>2022-05-21 08:34:22</time>
      </trkpt>
      <trkpt lat="42.12342" lon="3.00072">
        <ele>101.2</ele>
        <time>2022-05-21 08:34:23</time>
      </trkpt>
      <trkpt lat="42.12348" lon="3.00068">
        <ele>101.2</ele>
        <time>2022-05-21 08:34:24</time>
      </trkpt>
      <trkpt lat="42.12353" lon="3.00065">
        <ele>101.4</ele>
        <time>2022-05-21 08:34:25</time>
      </trkpt>
      <trkpt lat="42.12359" lon="3.00062">
        <ele>101.6</ele>
        <time>2022-05-21 08:34:26</time>
      </trkpt>
      <trkpt lat="42.12365" lon="3.00058">
        <ele>101.6</ele>
        <time>2022-05-21 08:34:27</time>
      </trkpt>
      <trkpt lat="42.1237" lon="3.00055">
        <ele>101.6</ele>
        <time>2022-05-21 08:34:28</time>
      </trkpt>
      <trkpt lat="42.12376" lon="3.00051">
        <ele>101.8</ele>
        <time>2022-05-21 08:34:29</time>
      </trkpt>
      <trkpt lat="42.12382" lon="3.00048">
        <ele>101.8</ele>
        <time>2022-05-21 08:34:30</time>
      </trkpt>
      <trkpt lat="42.12388" lon="3.00045">
        <ele>102</ele>
        <time>2022-05-21 08:34:31</time>
      </trkpt>
      <trkpt lat="42.12393" lon="3.00041">
        <ele>102.2</ele>
        <time>2022-05-21 08:34:32</time>
      </trkpt>
      <trkpt lat="42.12399" lon="3.00037">
        <ele>102.2</ele>
        <time>2022-05-21 08:34:33</time>
      </trkpt>
      <trkpt lat="42.12404" lon="3.00032">
        <ele>102.2</ele>
        <time>2022-05-21 08:34:34</time>
      </trkpt>
      <trkpt lat="42.12409" lon="3.00027">
        <ele>102.4</ele>
        <time>2022-05-21 08:34:35</time>
      </trkpt>
      <trkpt lat="42.12413" lon="3.0002">
        <ele>102.4</ele>
        <time>2022-05-21 08:34:36</time>
      </trkpt>
      <trkpt lat="42.12417" lon="3.00013">
        <ele>102.4</ele>
        <time>2022-05-21 08:34:37</time>
      </trkpt>
      <trkpt lat="42.1242" lon="3.00005">
        <ele>102.6</ele>
        <time>2022-05-21 08:34:38</time>
      </trkpt>
      <trkpt lat="42.12422" lon="2.99997">
        <ele>102.6</ele>
        <time>2022-05-21 08:34:39</time>
      </trkpt>
      <trkpt lat="42.12423" lon="2.99988">
        <ele>102.6</ele>
        <time>2022-05-21 08:34:40</time>
      </trkpt>
      <trkpt lat="42.12425" lon="2.9998">
        <ele>102.6</ele>
        <time>2022-05-21 08:34:41</time>
      </trkpt>
      <trkpt lat="42.12426" lon="2.99971">
        <ele>102.6</ele>
        <time>2022-05-21 08:34:42</time>
      </trkpt>
      <trkpt lat="42.12428" lon="2.99963">
        <ele>102.6</ele>
        <time>2022-05-21 08:34:43</time>
      </trkpt>
      <trkpt lat="42.1243" lon="2.99954">
        <ele>102.6</ele>
        <time>2022-05-21 08:34:44</time>
      </trkpt>
      <trkpt lat="42.12433" lon="2.99946">
        <ele>102.6</ele>
        <time>2022-05-21 08:34:45</time>
      </trkpt>
      <trkpt lat="42.12437" lon="2.9994">
        <ele>102.6</ele>
        <time>2022-05-21 08:34:46</time>
      </trkpt>
      <trkpt lat="42.12442" lon="2.99935">
        <ele>102.6</ele>
        <time>2022-05-21 08:34:47</time>
      </trkpt>
      <trkpt lat="42.12448" lon="2.99932">
        <ele>102.6</ele>
        <time>2022-05-21 08:34:48</time>
      </trkpt>
      <trkpt lat="42.12455" lon="2.99932">
        <ele>102.4</ele>
        <time>2022-05-21 08:34:49</time>
      </trkpt>
      <trkpt lat="42.12462" lon="2.99932">
        <ele>102.4</ele>
        <time>2022-05-21 08:34:50</time>
      </trkpt>
      <trkpt lat="42.12469" lon="2.99933">
        <ele>102.4</ele>
        <time>2022-05-21 08:34:51</time>
      </trkpt>
      <trkpt lat="42.12476" lon="2.99935">
        <ele>102.4</ele>
        <time>2022-05-21 08:34:52</time>
      </trkpt>
      <trkpt lat="42.12483" lon="2.99936">
        <ele>102.4</ele>
        <time>2022-05-21 08:34:53</time>
      </trkpt>
      <trkpt lat="42.1249" lon="2.99937">
        <ele>102.4</ele>
        <time>2022-05-21 08:34:54</time>
      </trkpt>
      <trkpt lat="42.12497" lon="2.99938">
        <ele>102.4</ele>
        <time>2022-05-21 08:34:55</time>
      </trkpt>
      <trkpt lat="42.12504" lon="2.99939">
        <ele>102.4</ele>
        <time>2022-05-21 08:34:56</time>
      </trkpt>
      <trkpt lat="42.12511" lon="2.99939">
        <ele>102.4</ele>
        <time>2022-05-21 08:34:57</time>
      </trkpt>
      <trkpt lat="42.12519" lon="2.99939">
        <ele>102.2</ele>
        <time>2022-05-21 08:34:58</time>
      </trkpt>
      <trkpt lat="42.12526" lon="2.99937">
        <ele>102.2</ele>
        <time>2022-05-21 08:34:59</time>
      </trkpt>
      <trkpt lat="42.12533" lon="2.99935">
        <ele>102.2</ele>
        <time>2022-05-21 08:35:00</time>
      </trkpt>
      <trkpt lat="42.12539" lon="2.99932">
        <ele>102</ele>
        <time>2022-05-21 08:35:01</time>
      </trkpt>
      <trkpt lat="42.12546" lon="2.99929">
        <ele>102</ele>
        <time>2022-05-21 08:35:02</time>
      </trkpt>
      <trkpt lat="42.12553" lon="2.99926">
        <ele>102</ele>
        <time>2022-05-21 08:35:03</time>
      </trkpt>
      <trkpt lat="42.12559" lon="2.99923">
        <ele>102</ele>
        <time>2022-05-21 08:35:04</time>
      </trkpt>
      <trkpt lat="42.12566" lon="2.99921">
        <ele>102</ele>
        <time>2022-05-21 08:35:05</time>
      </trkpt>
      <trkpt lat="42.12572" lon="2.99918">
        <ele>102</ele>
        <time>2022-05-21 08:35:06</time>
      </trkpt>
      <trkpt lat="42.12579" lon="2.99914">
        <ele>102.2</ele>
        <time>2022-05-21 08:35:07</time>
      </trkpt>
      <trkpt lat="42.12585" lon="2.99911">
        <ele>102.2</ele>
        <time>2022-05-21 08:35:08</time>
      </trkpt>
      <trkpt lat="42.1259" lon="2.99909">
        <ele>102.2</ele>
        <time>2022-05-21 08:35:09</time>
      </trkpt>
      <trkpt lat="42.12596" lon="2.99906">
        <ele>102.4</ele>
        <time>2022-05-21 08:35:10</time>
      </trkpt>
      <trkpt lat="42.12602" lon="2.99903">
        <ele>102.6</ele>
        <time>2022-05-21 08:35:11</time>
      </trkpt>
      <trkpt lat="42.12607" lon="2.99901">
        <ele>102.6</ele>
        <time>2022-05-21 08:35:12</time>
      </trkpt>
      <trkpt lat="42.12613" lon="2.99898">
        <ele>102.8</ele>
        <time>2022-05-21 08:35:13</time>
      </trkpt>
      <trkpt lat="42.12618" lon="2.99896">
        <ele>102.8</ele>
        <time>2022-05-21 08:35:14</time>
      </trkpt>
      <trkpt lat="42.12625" lon="2.99893">
        <ele>103</ele>
        <time>2022-05-21 08:35:15</time>
      </trkpt>
      <trkpt lat="42.1263" lon="2.99891">
        <ele>103</ele>
        <time>2022-05-21 08:35:16</time>
      </trkpt>
      <trkpt lat="42.12635" lon="2.99888">
        <ele>103.2</ele>
        <time>2022-05-21 08:35:17</time>
      </trkpt>
      <trkpt lat="42.12641" lon="2.99886">
        <ele>103.2</ele>
        <time>2022-05-21 08:35:18</time>
      </trkpt>
      <trkpt lat="42.12646" lon="2.99884">
        <ele>103.2</ele>
        <time>2022-05-21 08:35:19</time>
      </trkpt>
      <trkpt lat="42.12652" lon="2.99881">
        <ele>103.4</ele>
        <time>2022-05-21 08:35:20</time>
      </trkpt>
      <trkpt lat="42.12657" lon="2.99878">
        <ele>103.6</ele>
        <time>2022-05-21 08:35:21</time>
      </trkpt>
      <trkpt lat="42.12662" lon="2.99876">
        <ele>103.8</ele>
        <time>2022-05-21 08:35:22</time>
      </trkpt>
      <trkpt lat="42.12668" lon="2.99874">
        <ele>103.8</ele>
        <time>2022-05-21 08:35:23</time>
      </trkpt>
      <trkpt lat="42.12673" lon="2.99872">
        <ele>104</ele>
        <time>2022-05-21 08:35:24</time>
      </trkpt>
      <trkpt lat="42.12678" lon="2.99869">
        <ele>104.2</ele>
        <time>2022-05-21 08:35:25</time>
      </trkpt>
      <trkpt lat="42.12682" lon="2.99867">
        <ele>104.4</ele>
        <time>2022-05-21 08:35:26</time>
      </trkpt>
      <trkpt lat="42.12687" lon="2.99865">
        <ele>104.8</ele>
        <time>2022-05-21 08:35:27</time>
      </trkpt>
      <trkpt lat="42.12691" lon="2.99863">
        <ele>105</ele>
        <time>2022-05-21 08:35:28</time>
      </trkpt>
      <trkpt lat="42.12696" lon="2.9986">
        <ele>105.2</ele>
        <time>2022-05-21 08:35:29</time>
      </trkpt>
      <trkpt lat="42.127" lon="2.99858">
        <ele>105.4</ele>
        <time>2022-05-21 08:35:30</time>
      </trkpt>
      <trkpt lat="42.12705" lon="2.99856">
        <ele>105.6</ele>
        <time>2022-05-21 08:35:31</time>
      </trkpt>
      <trkpt lat="42.12709" lon="2.99854">
        <ele>105.8</ele>
        <time>2022-05-21 08:35:32</time>
      </trkpt>
      <trkpt lat="42.12714" lon="2.99852">
        <ele>106.2</ele>
        <time>2022-05-21 08:35:33</time>
      </trkpt>
      <trkpt lat="42.12719" lon="2.99849">
        <ele>106.2</ele>
        <time>2022-05-21 08:35:34</time>
      </trkpt>
      <trkpt lat="42.12724" lon="2.99847">
        <ele>106.6</ele>
        <time>2022-05-21 08:35:35</time>
      </trkpt>
      <trkpt lat="42.12729" lon="2.99844">
        <ele>106.8</ele>
        <time>2022-05-21 08:35:36</time>
      </trkpt>
      <trkpt lat="42.12733" lon="2.99842">
        <ele>107</ele>
        <time>2022-05-21 08:35:37</time>
      </trkpt>
      <trkpt lat="42.12738" lon="2.9984">
        <ele>107.2</ele>
        <time>2022-05-21 08:35:38</time>
      </trkpt>
      <trkpt lat="42.12743" lon="2.99838">
        <ele>107.4</ele>
        <time>2022-05-21 08:35:39</time>
      </trkpt>
      <trkpt lat="42.12748" lon="2.99836">
        <ele>107.6</ele>
        <time>2022-05-21 08:35:40</time>
      </trkpt>
      <trkpt lat="42.12753" lon="2.99834">
        <ele>107.8</ele>
        <time>2022-05-21 08:35:41</time>
      </trkpt>
      <trkpt lat="42.12757" lon="2.99832">
        <ele>108</ele>
        <time>2022-05-21 08:35:42</time>
      </trkpt>
      <trkpt lat="42.12762" lon="2.9983">
        <ele>108.2</ele>
        <time>2022-05-21 08:35:43</time>
      </trkpt>
      <trkpt lat="42.12767" lon="2.99828">
        <ele>108.6</ele>
        <time>2022-05-21 08:35:44</time>
      </trkpt>
      <trkpt lat="42.12772" lon="2.99826">
        <ele>108.8</ele>
        <time>2022-05-21 08:35:45</time>
      </trkpt>
      <trkpt lat="42.12776" lon="2.99823">
        <ele>108.8</ele>
        <time>2022-05-21 08:35:46</time>
      </trkpt>
      <trkpt lat="42.12781" lon="2.99821">
        <ele>109.2</ele>
        <time>2022-05-21 08:35:47</time>
      </trkpt>
      <trkpt lat="42.12786" lon="2.99819">
        <ele>109.2</ele>
        <time>2022-05-21 08:35:48</time>
      </trkpt>
      <trkpt lat="42.12791" lon="2.99817">
        <ele>109.4</ele>
        <time>2022-05-21 08:35:49</time>
      </trkpt>
      <trkpt lat="42.12796" lon="2.99814">
        <ele>109.6</ele>
        <time>2022-05-21 08:35:50</time>
      </trkpt>
      <trkpt lat="42.12801" lon="2.99812">
        <ele>109.6</ele>
        <time>2022-05-21 08:35:51</time>
      </trkpt>
      <trkpt lat="42.12806" lon="2.9981">
        <ele>109.6</ele>
        <time>2022-05-21 08:35:52</time>
      </trkpt>
      <trkpt lat="42.12811" lon="2.99807">
        <ele>109.6</ele>
        <time>2022-05-21 08:35:53</time>
      </trkpt>
      <trkpt lat="42.12817" lon="2.99805">
        <ele>109.6</ele>
        <time>2022-05-21 08:35:54</time>
      </trkpt>
      <trkpt lat="42.12823" lon="2.99802">
        <ele>109.4</ele>
        <time>2022-05-21 08:35:55</time>
      </trkpt>
      <trkpt lat="42.12828" lon="2.998">
        <ele>109.4</ele>
        <time>2022-05-21 08:35:56</time>
      </trkpt>
      <trkpt lat="42.12834" lon="2.99797">
        <ele>109.4</ele>
        <time>2022-05-21 08:35:57</time>
      </trkpt>
      <trkpt lat="42.1284" lon="2.99794">
        <ele>109.2</ele>
        <time>2022-05-21 08:35:58</time>
      </trkpt>
      <trkpt lat="42.12846" lon="2.99792">
        <ele>109.2</ele>
        <time>2022-05-21 08:35:59</time>
      </trkpt>
      <trkpt lat="42.12852" lon="2.99789">
        <ele>109</ele>
        <time>2022-05-21 08:36:00</time>
      </trkpt>
      <trkpt lat="42.12857" lon="2.99786">
        <ele>109</ele>
        <time>2022-05-21 08:36:01</time>
      </trkpt>
      <trkpt lat="42.12863" lon="2.99784">
        <ele>108.8</ele>
        <time>2022-05-21 08:36:02</time>
      </trkpt>
      <trkpt lat="42.12869" lon="2.99781">
        <ele>108.6</ele>
        <time>2022-05-21 08:36:03</time>
      </trkpt>
      <trkpt lat="42.12876" lon="2.99778">
        <ele>108.4</ele>
        <time>2022-05-21 08:36:04</time>
      </trkpt>
      <trkpt lat="42.12882" lon="2.99775">
        <ele>108.2</ele>
        <time>2022-05-21 08:36:05</time>
      </trkpt>
      <trkpt lat="42.12888" lon="2.99771">
        <ele>107.8</ele>
        <time>2022-05-21 08:36:06</time>
      </trkpt>
      <trkpt lat="42.12895" lon="2.99768">
        <ele>107.6</ele>
        <time>2022-05-21 08:36:07</time>
      </trkpt>
      <trkpt lat="42.12902" lon="2.99765">
        <ele>107.2</ele>
        <time>2022-05-21 08:36:08</time>
      </trkpt>
      <trkpt lat="42.1291" lon="2.99762">
        <ele>106.8</ele>
        <time>2022-05-21 08:36:09</time>
      </trkpt>
      <trkpt lat="42.12917" lon="2.99758">
        <ele>106.6</ele>
        <time>2022-05-21 08:36:10</time>
      </trkpt>
      <trkpt lat="42.12924" lon="2.99755">
        <ele>106.2</ele>
        <time>2022-05-21 08:36:11</time>
      </trkpt>
      <trkpt lat="42.12933" lon="2.99751">
        <ele>105.8</ele>
        <time>2022-05-21 08:36:12</time>
      </trkpt>
      <trkpt lat="42.12941" lon="2.99747">
        <ele>105.4</ele>
        <time>2022-05-21 08:36:13</time>
      </trkpt>
      <trkpt lat="42.12949" lon="2.99743">
        <ele>105</ele>
        <time>2022-05-21 08:36:14</time>
      </trkpt>
      <trkpt lat="42.12957" lon="2.99739">
        <ele>104.6</ele>
        <time>2022-05-21 08:36:15</time>
      </trkpt>
      <trkpt lat="42.12966" lon="2.99735">
        <ele>104</ele>
        <time>2022-05-21 08:36:16</time>
      </trkpt>
      <trkpt lat="42.12975" lon="2.99732">
        <ele>103.6</ele>
        <time>2022-05-21 08:36:17</time>
      </trkpt>
      <trkpt lat="42.12984" lon="2.99728">
        <ele>103.2</ele>
        <time>2022-05-21 08:36:18</time>
      </trkpt>
      <trkpt lat="42.12993" lon="2.99724">
        <ele>102.8</ele>
        <time>2022-05-21 08:36:19</time>
      </trkpt>
      <trkpt lat="42.13002" lon="2.9972">
        <ele>102.4</ele>
        <time>2022-05-21 08:36:20</time>
      </trkpt>
      <trkpt lat="42.1301" lon="2.99716">
        <ele>101.8</ele>
        <time>2022-05-21 08:36:21</time>
      </trkpt>
      <trkpt lat="42.13018" lon="2.99712">
        <ele>101.4</ele>
        <time>2022-05-21 08:36:22</time>
      </trkpt>
      <trkpt lat="42.13025" lon="2.99711">
        <ele>101</ele>
        <time>2022-05-21 08:36:23</time>
      </trkpt>
      <trkpt lat="42.13033" lon="2.99714">
        <ele>100.6</ele>
        <time>2022-05-21 08:36:24</time>
      </trkpt>
      <trkpt lat="42.13038" lon="2.99721">
        <ele>100.2</ele>
        <time>2022-05-21 08:36:25</time>
      </trkpt>
      <trkpt lat="42.1304" lon="2.99731">
        <ele>99.8</ele>
        <time>2022-05-21 08:36:26</time>
      </trkpt>
      <trkpt lat="42.13041" lon="2.99742">
        <ele>99.6</ele>
        <time>2022-05-21 08:36:27</time>
      </trkpt>
      <trkpt lat="42.1304" lon="2.99752">
        <ele>99.2</ele>
        <time>2022-05-21 08:36:28</time>
      </trkpt>
      <trkpt lat="42.13039" lon="2.99763">
        <ele>99</ele>
        <time>2022-05-21 08:36:29</time>
      </trkpt>
      <trkpt lat="42.13037" lon="2.99773">
        <ele>98.8</ele>
        <time>2022-05-21 08:36:30</time>
      </trkpt>
      <trkpt lat="42.13036" lon="2.99784">
        <ele>98.6</ele>
        <time>2022-05-21 08:36:31</time>
      </trkpt>
      <trkpt lat="42.13035" lon="2.99793">
        <ele>98.6</ele>
        <time>2022-05-21 08:36:32</time>
      </trkpt>
      <trkpt lat="42.13034" lon="2.99804">
        <ele>98.6</ele>
        <time>2022-05-21 08:36:33</time>
      </trkpt>
      <trkpt lat="42.13033" lon="2.99814">
        <ele>98.4</ele>
        <time>2022-05-21 08:36:34</time>
      </trkpt>
      <trkpt lat="42.13031" lon="2.99825">
        <ele>98.4</ele>
        <time>2022-05-21 08:36:35</time>
      </trkpt>
      <trkpt lat="42.1303" lon="2.99835">
        <ele>98.4</ele>
        <time>2022-05-21 08:36:36</time>
      </trkpt>
      <trkpt lat="42.13029" lon="2.99845">
        <ele>98.4</ele>
        <time>2022-05-21 08:36:37</time>
      </trkpt>
      <trkpt lat="42.13028" lon="2.99856">
        <ele>98.4</ele>
        <time>2022-05-21 08:36:38</time>
      </trkpt>
      <trkpt lat="42.13027" lon="2.99866">
        <ele>98.2</ele>
        <time>2022-05-21 08:36:39</time>
      </trkpt>
      <trkpt lat="42.13025" lon="2.99876">
        <ele>98.2</ele>
        <time>2022-05-21 08:36:40</time>
      </trkpt>
      <trkpt lat="42.13024" lon="2.99886">
        <ele>98.2</ele>
        <time>2022-05-21 08:36:41</time>
      </trkpt>
      <trkpt lat="42.13023" lon="2.99896">
        <ele>98.2</ele>
        <time>2022-05-21 08:36:42</time>
      </trkpt>
      <trkpt lat="42.13022" lon="2.99906">
        <ele>98</ele>
        <time>2022-05-21 08:36:43</time>
      </trkpt>
      <trkpt lat="42.13021" lon="2.99916">
        <ele>97.8</ele>
        <time>2022-05-21 08:36:44</time>
      </trkpt>
      <trkpt lat="42.1302" lon="2.99927">
        <ele>97.8</ele>
        <time>2022-05-21 08:36:45</time>
      </trkpt>
      <trkpt lat="42.13019" lon="2.99938">
        <ele>97.6</ele>
        <time>2022-05-21 08:36:46</time>
      </trkpt>
      <trkpt lat="42.13018" lon="2.99948">
        <ele>97.6</ele>
        <time>2022-05-21 08:36:47</time>
      </trkpt>
      <trkpt lat="42.13017" lon="2.99958">
        <ele>97.4</ele>
        <time>2022-05-21 08:36:48</time>
      </trkpt>
      <trkpt lat="42.13016" lon="2.99969">
        <ele>97.2</ele>
        <time>2022-05-21 08:36:49</time>
      </trkpt>
      <trkpt lat="42.13015" lon="2.9998">
        <ele>97</ele>
        <time>2022-05-21 08:36:50</time>
      </trkpt>
      <trkpt lat="42.13014" lon="2.99991">
        <ele>96.8</ele>
        <time>2022-05-21 08:36:51</time>
      </trkpt>
      <trkpt lat="42.13013" lon="3.00002">
        <ele>96.6</ele>
        <time>2022-05-21 08:36:52</time>
      </trkpt>
      <trkpt lat="42.13012" lon="3.00012">
        <ele>96.6</ele>
        <time>2022-05-21 08:36:53</time>
      </trkpt>
      <trkpt lat="42.13011" lon="3.00024">
        <ele>96.4</ele>
        <time>2022-05-21 08:36:54</time>
      </trkpt>
      <trkpt lat="42.1301" lon="3.00035">
        <ele>96.2</ele>
        <time>2022-05-21 08:36:55</time>
      </trkpt>
      <trkpt lat="42.13009" lon="3.00047">
        <ele>95.8</ele>
        <time>2022-05-21 08:36:56</time>
      </trkpt>
      <trkpt lat="42.13008" lon="3.00058">
        <ele>95.6</ele>
        <time>2022-05-21 08:36:57</time>
      </trkpt>
      <trkpt lat="42.13007" lon="3.00068">
        <ele>95.4</ele>
        <time>2022-05-21 08:36:58</time>
      </trkpt>
      <trkpt lat="42.13006" lon="3.00079">
        <ele>95</ele>
        <time>2022-05-21 08:36:59</time>
      </trkpt>
      <trkpt lat="42.13005" lon="3.00091">
        <ele>94.8</ele>
        <time>2022-05-21 08:37:00</time>
      </trkpt>
      <trkpt lat="42.13004" lon="3.00102">
        <ele>94.6</ele>
        <time>2022-05-21 08:37:01</time>
      </trkpt>
      <trkpt lat="42.13002" lon="3.00113">
        <ele>94.4</ele>
        <time>2022-05-21 08:37:02</time>
      </trkpt>
      <trkpt lat="42.13001" lon="3.00124">
        <ele>94.2</ele>
        <time>2022-05-21 08:37:03</time>
      </trkpt>
      <trkpt lat="42.13" lon="3.00135">
        <ele>93.8</ele>
        <time>2022-05-21 08:37:04</time>
      </trkpt>
      <trkpt lat="42.12999" lon="3.00147">
        <ele>93.6</ele>
        <time>2022-05-21 08:37:05</time>
      </trkpt>
      <trkpt lat="42.12997" lon="3.00158">
        <ele>93.4</ele>
        <time>2022-05-21 08:37:06</time>
      </trkpt>
      <trkpt lat="42.12996" lon="3.00169">
        <ele>93.2</ele>
        <time>2022-05-21 08:37:07</time>
      </trkpt>
      <trkpt lat="42.12995" lon="3.0018">
        <ele>92.8</ele>
        <time>2022-05-21 08:37:08</time>
      </trkpt>
      <trkpt lat="42.12994" lon="3.00191">
        <ele>92.6</ele>
        <time>2022-05-21 08:37:09</time>
      </trkpt>
      <trkpt lat="42.12993" lon="3.00203">
        <ele>92.4</ele>
        <time>2022-05-21 08:37:10</time>
      </trkpt>
      <trkpt lat="42.12992" lon="3.00214">
        <ele>92.2</ele>
        <time>2022-05-21 08:37:11</time>
      </trkpt>
      <trkpt lat="42.12991" lon="3.00225">
        <ele>92</ele>
        <time>2022-05-21 08:37:12</time>
      </trkpt>
      <trkpt lat="42.1299" lon="3.00236">
        <ele>91.6</ele>
        <time>2022-05-21 08:37:13</time>
      </trkpt>
      <trkpt lat="42.12989" lon="3.00248">
        <ele>91.4</ele>
        <time>2022-05-21 08:37:14</time>
      </trkpt>
      <trkpt lat="42.12988" lon="3.0026">
        <ele>91.2</ele>
        <time>2022-05-21 08:37:15</time>
      </trkpt>
      <trkpt lat="42.12986" lon="3.00271">
        <ele>91</ele>
        <time>2022-05-21 08:37:16</time>
      </trkpt>
      <trkpt lat="42.12985" lon="3.00283">
        <ele>90.8</ele>
        <time>2022-05-21 08:37:17</time>
      </trkpt>
      <trkpt lat="42.12984" lon="3.00295">
        <ele>90.6</ele>
        <time>2022-05-21 08:37:18</time>
      </trkpt>
      <trkpt lat="42.12983" lon="3.00306">
        <ele>90.2</ele>
        <time>2022-05-21 08:37:19</time>
      </trkpt>
      <trkpt lat="42.12981" lon="3.00318">
        <ele>90</ele>
        <time>2022-05-21 08:37:20</time>
      </trkpt>
      <trkpt lat="42.1298" lon="3.00331">
        <ele>89.6</ele>
        <time>2022-05-21 08:37:21</time>
      </trkpt>
      <trkpt lat="42.12979" lon="3.00343">
        <ele>89.2</ele>
        <time>2022-05-21 08:37:22</time>
      </trkpt>
      <trkpt lat="42.12978" lon="3.00356">
        <ele>89</ele>
        <time>2022-05-21 08:37:23</time>
      </trkpt>
      <trkpt lat="42.12977" lon="3.00368">
        <ele>88.6</ele>
        <time>2022-05-21 08:37:24</time>
      </trkpt>
      <trkpt lat="42.12976" lon="3.00381">
        <ele>88.2</ele>
        <time>2022-05-21 08:37:25</time>
      </trkpt>
      <trkpt lat="42.12975" lon="3.00394">
        <ele>88</ele>
        <time>2022-05-21 08:37:26</time>
      </trkpt>
      <trkpt lat="42.12974" lon="3.00407">
        <ele>87.6</ele>
        <time>2022-05-21 08:37:27</time>
      </trkpt>
      <trkpt lat="42.12974" lon="3.0042">
        <ele>87.4</ele>
        <time>2022-05-21 08:37:28</time>
      </trkpt>
      <trkpt lat="42.12973" lon="3.00433">
        <ele>86.8</ele>
        <time>2022-05-21 08:37:29</time>
      </trkpt>
      <trkpt lat="42.12973" lon="3.00446">
        <ele>86.4</ele>
        <time>2022-05-21 08:37:30</time>
      </trkpt>
      <trkpt lat="42.12973" lon="3.00459">
        <ele>86.2</ele>
        <time>2022-05-21 08:37:31</time>
      </trkpt>
      <trkpt lat="42.12974" lon="3.00472">
        <ele>85.8</ele>
        <time>2022-05-21 08:37:32</time>
      </trkpt>
      <trkpt lat="42.12974" lon="3.00485">
        <ele>85.4</ele>
        <time>2022-05-21 08:37:33</time>
      </trkpt>
      <trkpt lat="42.12975" lon="3.00497">
        <ele>85</ele>
        <time>2022-05-21 08:37:34</time>
      </trkpt>
      <trkpt lat="42.12977" lon="3.0051">
        <ele>84.6</ele>
        <time>2022-05-21 08:37:35</time>
      </trkpt>
      <trkpt lat="42.12979" lon="3.00523">
        <ele>84.2</ele>
        <time>2022-05-21 08:37:36</time>
      </trkpt>
      <trkpt lat="42.12981" lon="3.00535">
        <ele>83.8</ele>
        <time>2022-05-21 08:37:37</time>
      </trkpt>
      <trkpt lat="42.12983" lon="3.00548">
        <ele>83.6</ele>
        <time>2022-05-21 08:37:38</time>
      </trkpt>
      <trkpt lat="42.12986" lon="3.00561">
        <ele>83.2</ele>
        <time>2022-05-21 08:37:39</time>
      </trkpt>
      <trkpt lat="42.12989" lon="3.00573">
        <ele>82.8</ele>
        <time>2022-05-21 08:37:40</time>
      </trkpt>
      <trkpt lat="42.12992" lon="3.00586">
        <ele>82.4</ele>
        <time>2022-05-21 08:37:41</time>
      </trkpt>
      <trkpt lat="42.12996" lon="3.00598">
        <ele>82.2</ele>
        <time>2022-05-21 08:37:42</time>
      </trkpt>
      <trkpt lat="42.12999" lon="3.00609">
        <ele>81.8</ele>
        <time>2022-05-21 08:37:43</time>
      </trkpt>
      <trkpt lat="42.13004" lon="3.0062">
        <ele>81.4</ele>
        <time>2022-05-21 08:37:44</time>
      </trkpt>
      <trkpt lat="42.13008" lon="3.00632">
        <ele>81</ele>
        <time>2022-05-21 08:37:45</time>
      </trkpt>
      <trkpt lat="42.13013" lon="3.00645">
        <ele>80.6</ele>
        <time>2022-05-21 08:37:46</time>
      </trkpt>
      <trkpt lat="42.13018" lon="3.00656">
        <ele>80.4</ele>
        <time>2022-05-21 08:37:47</time>
      </trkpt>
      <trkpt lat="42.13023" lon="3.00666">
        <ele>80.2</ele>
        <time>2022-05-21 08:37:48</time>
      </trkpt>
      <trkpt lat="42.13028" lon="3.00676">
        <ele>79.8</ele>
        <time>2022-05-21 08:37:49</time>
      </trkpt>
      <trkpt lat="42.13035" lon="3.00688">
        <ele>79.4</ele>
        <time>2022-05-21 08:37:50</time>
      </trkpt>
      <trkpt lat="42.13042" lon="3.00698">
        <ele>79</ele>
        <time>2022-05-21 08:37:51</time>
      </trkpt>
      <trkpt lat="42.13048" lon="3.00708">
        <ele>78.6</ele>
        <time>2022-05-21 08:37:52</time>
      </trkpt>
      <trkpt lat="42.13055" lon="3.00718">
        <ele>78.2</ele>
        <time>2022-05-21 08:37:53</time>
      </trkpt>
      <trkpt lat="42.13062" lon="3.00728">
        <ele>78</ele>
        <time>2022-05-21 08:37:54</time>
      </trkpt>
      <trkpt lat="42.13069" lon="3.00737">
        <ele>77.6</ele>
        <time>2022-05-21 08:37:55</time>
      </trkpt>
      <trkpt lat="42.13076" lon="3.00746">
        <ele>77</ele>
        <time>2022-05-21 08:37:56</time>
      </trkpt>
      <trkpt lat="42.13084" lon="3.00754">
        <ele>76.6</ele>
        <time>2022-05-21 08:37:57</time>
      </trkpt>
      <trkpt lat="42.13092" lon="3.00762">
        <ele>76.2</ele>
        <time>2022-05-21 08:37:58</time>
      </trkpt>
      <trkpt lat="42.13101" lon="3.0077">
        <ele>75.8</ele>
        <time>2022-05-21 08:37:59</time>
      </trkpt>
      <trkpt lat="42.1311" lon="3.00777">
        <ele>75.4</ele>
        <time>2022-05-21 08:38:00</time>
      </trkpt>
      <trkpt lat="42.13119" lon="3.00784">
        <ele>75</ele>
        <time>2022-05-21 08:38:01</time>
      </trkpt>
      <trkpt lat="42.13129" lon="3.00792">
        <ele>74.6</ele>
        <time>2022-05-21 08:38:02</time>
      </trkpt>
      <trkpt lat="42.13138" lon="3.00798">
        <ele>74.2</ele>
        <time>2022-05-21 08:38:03</time>
      </trkpt>
      <trkpt lat="42.13147" lon="3.00804">
        <ele>73.8</ele>
        <time>2022-05-21 08:38:04</time>
      </trkpt>
      <trkpt lat="42.13157" lon="3.0081">
        <ele>73.4</ele>
        <time>2022-05-21 08:38:05</time>
      </trkpt>
      <trkpt lat="42.13166" lon="3.00815">
        <ele>73</ele>
        <time>2022-05-21 08:38:06</time>
      </trkpt>
      <trkpt lat="42.13176" lon="3.0082">
        <ele>72.6</ele>
        <time>2022-05-21 08:38:07</time>
      </trkpt>
      <trkpt lat="42.13186" lon="3.00824">
        <ele>72.2</ele>
        <time>2022-05-21 08:38:08</time>
      </trkpt>
      <trkpt lat="42.13196" lon="3.00829">
        <ele>71.8</ele>
        <time>2022-05-21 08:38:09</time>
      </trkpt>
      <trkpt lat="42.13207" lon="3.00833">
        <ele>71.4</ele>
        <time>2022-05-21 08:38:10</time>
      </trkpt>
      <trkpt lat="42.13217" lon="3.00838">
        <ele>71</ele>
        <time>2022-05-21 08:38:11</time>
      </trkpt>
      <trkpt lat="42.13227" lon="3.00842">
        <ele>70.6</ele>
        <time>2022-05-21 08:38:12</time>
      </trkpt>
      <trkpt lat="42.13237" lon="3.00847">
        <ele>70.2</ele>
        <time>2022-05-21 08:38:13</time>
      </trkpt>
      <trkpt lat="42.13248" lon="3.00851">
        <ele>69.8</ele>
        <time>2022-05-21 08:38:14</time>
      </trkpt>
      <trkpt lat="42.13259" lon="3.00856">
        <ele>69.4</ele>
        <time>2022-05-21 08:38:15</time>
      </trkpt>
      <trkpt lat="42.1327" lon="3.0086">
        <ele>69</ele>
        <time>2022-05-21 08:38:16</time>
      </trkpt>
      <trkpt lat="42.13281" lon="3.00864">
        <ele>68.4</ele>
        <time>2022-05-21 08:38:17</time>
      </trkpt>
      <trkpt lat="42.13291" lon="3.00869">
        <ele>68</ele>
        <time>2022-05-21 08:38:18</time>
      </trkpt>
      <trkpt lat="42.13302" lon="3.00873">
        <ele>67.6</ele>
        <time>2022-05-21 08:38:19</time>
      </trkpt>
      <trkpt lat="42.13313" lon="3.00878">
        <ele>67.2</ele>
        <time>2022-05-21 08:38:20</time>
      </trkpt>
      <trkpt lat="42.13323" lon="3.00881">
        <ele>66.6</ele>
        <time>2022-05-21 08:38:21</time>
      </trkpt>
      <trkpt lat="42.13333" lon="3.00884">
        <ele>66.2</ele>
        <time>2022-05-21 08:38:22</time>
      </trkpt>
      <trkpt lat="42.13344" lon="3.00888">
        <ele>65.8</ele>
        <time>2022-05-21 08:38:23</time>
      </trkpt>
      <trkpt lat="42.13355" lon="3.00894">
        <ele>65.4</ele>
        <time>2022-05-21 08:38:24</time>
      </trkpt>
      <trkpt lat="42.13365" lon="3.00898">
        <ele>65</ele>
        <time>2022-05-21 08:38:25</time>
      </trkpt>
      <trkpt lat="42.13376" lon="3.00903">
        <ele>64.6</ele>
        <time>2022-05-21 08:38:26</time>
      </trkpt>
      <trkpt lat="42.13386" lon="3.00908">
        <ele>64.2</ele>
        <time>2022-05-21 08:38:27</time>
      </trkpt>
      <trkpt lat="42.13397" lon="3.00914">
        <ele>63.8</ele>
        <time>2022-05-21 08:38:28</time>
      </trkpt>
      <trkpt lat="42.13407" lon="3.00919">
        <ele>63.2</ele>
        <time>2022-05-21 08:38:29</time>
      </trkpt>
      <trkpt lat="42.13418" lon="3.00924">
        <ele>62.6</ele>
        <time>2022-05-21 08:38:30</time>
      </trkpt>
      <trkpt lat="42.13429" lon="3.00929">
        <ele>62</ele>
        <time>2022-05-21 08:38:31</time>
      </trkpt>
      <trkpt lat="42.1344" lon="3.00934">
        <ele>61.6</ele>
        <time>2022-05-21 08:38:32</time>
      </trkpt>
      <trkpt lat="42.13451" lon="3.00939">
        <ele>61</ele>
        <time>2022-05-21 08:38:33</time>
      </trkpt>
      <trkpt lat="42.13463" lon="3.00943">
        <ele>60.4</ele>
        <time>2022-05-21 08:38:34</time>
      </trkpt>
      <trkpt lat="42.13473" lon="3.00948">
        <ele>59.8</ele>
        <time>2022-05-21 08:38:35</time>
      </trkpt>
      <trkpt lat="42.13484" lon="3.00953">
        <ele>59.4</ele>
        <time>2022-05-21 08:38:36</time>
      </trkpt>
      <trkpt lat="42.13495" lon="3.00958">
        <ele>58.8</ele>
        <time>2022-05-21 08:38:37</time>
      </trkpt>
      <trkpt lat="42.13506" lon="3.00963">
        <ele>58.2</ele>
        <time>2022-05-21 08:38:38</time>
      </trkpt>
      <trkpt lat="42.13517" lon="3.00969">
        <ele>57.6</ele>
        <time>2022-05-21 08:38:39</time>
      </trkpt>
      <trkpt lat="42.13527" lon="3.00975">
        <ele>57</ele>
        <time>2022-05-21 08:38:40</time>
      </trkpt>
      <trkpt lat="42.13538" lon="3.00981">
        <ele>56.2</ele>
        <time>2022-05-21 08:38:41</time>
      </trkpt>
      <trkpt lat="42.13549" lon="3.00988">
        <ele>55.6</ele>
        <time>2022-05-21 08:38:42</time>
      </trkpt>
      <trkpt lat="42.1356" lon="3.00994">
        <ele>55</ele>
        <time>2022-05-21 08:38:43</time>
      </trkpt>
      <trkpt lat="42.1357" lon="3.01001">
        <ele>54.4</ele>
        <time>2022-05-21 08:38:44</time>
      </trkpt>
      <trkpt lat="42.13581" lon="3.01009">
        <ele>53.8</ele>
        <time>2022-05-21 08:38:45</time>
      </trkpt>
      <trkpt lat="42.13591" lon="3.01017">
        <ele>53.4</ele>
        <time>2022-05-21 08:38:46</time>
      </trkpt>
      <trkpt lat="42.136" lon="3.01026">
        <ele>52.8</ele>
        <time>2022-05-21 08:38:47</time>
      </trkpt>
      <trkpt lat="42.13609" lon="3.01035">
        <ele>52.4</ele>
        <time>2022-05-21 08:38:48</time>
      </trkpt>
      <trkpt lat="42.13619" lon="3.01044">
        <ele>52</ele>
        <time>2022-05-21 08:38:49</time>
      </trkpt>
      <trkpt lat="42.13629" lon="3.01053">
        <ele>51.4</ele>
        <time>2022-05-21 08:38:50</time>
      </trkpt>
      <trkpt lat="42.13638" lon="3.01062">
        <ele>50.8</ele>
        <time>2022-05-21 08:38:51</time>
      </trkpt>
      <trkpt lat="42.13647" lon="3.01072">
        <ele>50.4</ele>
        <time>2022-05-21 08:38:52</time>
      </trkpt>
      <trkpt lat="42.13657" lon="3.01081">
        <ele>49.8</ele>
        <time>2022-05-21 08:38:53</time>
      </trkpt>
      <trkpt lat="42.13666" lon="3.0109">
        <ele>49.4</ele>
        <time>2022-05-21 08:38:54</time>
      </trkpt>
      <trkpt lat="42.13675" lon="3.01099">
        <ele>48.8</ele>
        <time>2022-05-21 08:38:55</time>
      </trkpt>
      <trkpt lat="42.13685" lon="3.01108">
        <ele>48.4</ele>
        <time>2022-05-21 08:38:56</time>
      </trkpt>
      <trkpt lat="42.13694" lon="3.01117">
        <ele>47.8</ele>
        <time>2022-05-21 08:38:57</time>
      </trkpt>
      <trkpt lat="42.13703" lon="3.01126">
        <ele>47.4</ele>
        <time>2022-05-21 08:38:58</time>
      </trkpt>
      <trkpt lat="42.13712" lon="3.01135">
        <ele>47</ele>
        <time>2022-05-21 08:38:59</time>
      </trkpt>
      <trkpt lat="42.13721" lon="3.01144">
        <ele>46.6</ele>
        <time>2022-05-21 08:39:00</time>
      </trkpt>
      <trkpt lat="42.1373" lon="3.01153">
        <ele>46.2</ele>
        <time>2022-05-21 08:39:01</time>
      </trkpt>
      <trkpt lat="42.13738" lon="3.01161">
        <ele>46</ele>
        <time>2022-05-21 08:39:02</time>
      </trkpt>
      <trkpt lat="42.13747" lon="3.0117">
        <ele>45.6</ele>
        <time>2022-05-21 08:39:03</time>
      </trkpt>
      <trkpt lat="42.13756" lon="3.01178">
        <ele>45.2</ele>
        <time>2022-05-21 08:39:04</time>
      </trkpt>
      <trkpt lat="42.13765" lon="3.01187">
        <ele>45</ele>
        <time>2022-05-21 08:39:05</time>
      </trkpt>
      <trkpt lat="42.13774" lon="3.01195">
        <ele>44.6</ele>
        <time>2022-05-21 08:39:06</time>
      </trkpt>
      <trkpt lat="42.13782" lon="3.01204">
        <ele>44.6</ele>
        <time>2022-05-21 08:39:07</time>
      </trkpt>
      <trkpt lat="42.13791" lon="3.01212">
        <ele>44.2</ele>
        <time>2022-05-21 08:39:08</time>
      </trkpt>
      <trkpt lat="42.13799" lon="3.0122">
        <ele>44</ele>
        <time>2022-05-21 08:39:09</time>
      </trkpt>
      <trkpt lat="42.13808" lon="3.01229">
        <ele>43.6</ele>
        <time>2022-05-21 08:39:10</time>
      </trkpt>
      <trkpt lat="42.13817" lon="3.01237">
        <ele>43.4</ele>
        <time>2022-05-21 08:39:11</time>
      </trkpt>
      <trkpt lat="42.13825" lon="3.01246">
        <ele>43</ele>
        <time>2022-05-21 08:39:12</time>
      </trkpt>
      <trkpt lat="42.13834" lon="3.01254">
        <ele>42.8</ele>
        <time>2022-05-21 08:39:13</time>
      </trkpt>
      <trkpt lat="42.13842" lon="3.01262">
        <ele>42.4</ele>
        <time>2022-05-21 08:39:14</time>
      </trkpt>
      <trkpt lat="42.13851" lon="3.01271">
        <ele>42</ele>
        <time>2022-05-21 08:39:15</time>
      </trkpt>
      <trkpt lat="42.1386" lon="3.01279">
        <ele>41.6</ele>
        <time>2022-05-21 08:39:16</time>
      </trkpt>
      <trkpt lat="42.13868" lon="3.01287">
        <ele>41.2</ele>
        <time>2022-05-21 08:39:17</time>
      </trkpt>
      <trkpt lat="42.13876" lon="3.01295">
        <ele>41</ele>
        <time>2022-05-21 08:39:18</time>
      </trkpt>
      <trkpt lat="42.13885" lon="3.01303">
        <ele>40.6</ele>
        <time>2022-05-21 08:39:19</time>
      </trkpt>
      <trkpt lat="42.13893" lon="3.01312">
        <ele>40.4</ele>
        <time>2022-05-21 08:39:20</time>
      </trkpt>
      <trkpt lat="42.13902" lon="3.0132">
        <ele>40</ele>
        <time>2022-05-21 08:39:21</time>
      </trkpt>
      <trkpt lat="42.13911" lon="3.01328">
        <ele>39.8</ele>
        <time>2022-05-21 08:39:22</time>
      </trkpt>
      <trkpt lat="42.13919" lon="3.01337">
        <ele>39.6</ele>
        <time>2022-05-21 08:39:23</time>
      </trkpt>
      <trkpt lat="42.13928" lon="3.01345">
        <ele>39.4</ele>
        <time>2022-05-21 08:39:24</time>
      </trkpt>
      <trkpt lat="42.13936" lon="3.01353">
        <ele>39</ele>
        <time>2022-05-21 08:39:25</time>
      </trkpt>
      <trkpt lat="42.13945" lon="3.01362">
        <ele>38.6</ele>
        <time>2022-05-21 08:39:26</time>
      </trkpt>
      <trkpt lat="42.13954" lon="3.01371">
        <ele>38.2</ele>
        <time>2022-05-21 08:39:27</time>
      </trkpt>
      <trkpt lat="42.13963" lon="3.0138">
        <ele>37.8</ele>
        <time>2022-05-21 08:39:28</time>
      </trkpt>
      <trkpt lat="42.13972" lon="3.01389">
        <ele>37.4</ele>
        <time>2022-05-21 08:39:29</time>
      </trkpt>
      <trkpt lat="42.1398" lon="3.01397">
        <ele>37.2</ele>
        <time>2022-05-21 08:39:30</time>
      </trkpt>
      <trkpt lat="42.13989" lon="3.01406">
        <ele>36.8</ele>
        <time>2022-05-21 08:39:31</time>
      </trkpt>
      <trkpt lat="42.13998" lon="3.01415">
        <ele>36.4</ele>
        <time>2022-05-21 08:39:32</time>
      </trkpt>
      <trkpt lat="42.14008" lon="3.01424">
        <ele>36.2</ele>
        <time>2022-05-21 08:39:33</time>
      </trkpt>
      <trkpt lat="42.14016" lon="3.01433">
        <ele>35.8</ele>
        <time>2022-05-21 08:39:34</time>
      </trkpt>
      <trkpt lat="42.14025" lon="3.01442">
        <ele>35.6</ele>
        <time>2022-05-21 08:39:35</time>
      </trkpt>
      <trkpt lat="42.14034" lon="3.01451">
        <ele>35.4</ele>
        <time>2022-05-21 08:39:36</time>
      </trkpt>
      <trkpt lat="42.14043" lon="3.01459">
        <ele>35.2</ele>
        <time>2022-05-21 08:39:37</time>
      </trkpt>
      <trkpt lat="42.14051" lon="3.01468">
        <ele>34.8</ele>
        <time>2022-05-21 08:39:38</time>
      </trkpt>
      <trkpt lat="42.1406" lon="3.01477">
        <ele>34.4</ele>
        <time>2022-05-21 08:39:39</time>
      </trkpt>
      <trkpt lat="42.14069" lon="3.01485">
        <ele>34.2</ele>
        <time>2022-05-21 08:39:40</time>
      </trkpt>
      <trkpt lat="42.14078" lon="3.01494">
        <ele>34</ele>
        <time>2022-05-21 08:39:41</time>
      </trkpt>
      <trkpt lat="42.14087" lon="3.01502">
        <ele>33.6</ele>
        <time>2022-05-21 08:39:42</time>
      </trkpt>
      <trkpt lat="42.14095" lon="3.01511">
        <ele>33.6</ele>
        <time>2022-05-21 08:39:43</time>
      </trkpt>
      <trkpt lat="42.14104" lon="3.01519">
        <ele>33.4</ele>
        <time>2022-05-21 08:39:44</time>
      </trkpt>
      <trkpt lat="42.14112" lon="3.01527">
        <ele>33</ele>
        <time>2022-05-21 08:39:45</time>
      </trkpt>
      <trkpt lat="42.14121" lon="3.01536">
        <ele>33</ele>
        <time>2022-05-21 08:39:46</time>
      </trkpt>
      <trkpt lat="42.1413" lon="3.01544">
        <ele>32.8</ele>
        <time>2022-05-21 08:39:47</time>
      </trkpt>
      <trkpt lat="42.14139" lon="3.01552">
        <ele>32.6</ele>
        <time>2022-05-21 08:39:48</time>
      </trkpt>
      <trkpt lat="42.14147" lon="3.01561">
        <ele>32.2</ele>
        <time>2022-05-21 08:39:49</time>
      </trkpt>
      <trkpt lat="42.14156" lon="3.01569">
        <ele>32</ele>
        <time>2022-05-21 08:39:50</time>
      </trkpt>
      <trkpt lat="42.14164" lon="3.01577">
        <ele>31.8</ele>
        <time>2022-05-21 08:39:51</time>
      </trkpt>
      <trkpt lat="42.14173" lon="3.01586">
        <ele>31.6</ele>
        <time>2022-05-21 08:39:52</time>
      </trkpt>
      <trkpt lat="42.14181" lon="3.01594">
        <ele>31.4</ele>
        <time>2022-05-21 08:39:53</time>
      </trkpt>
      <trkpt lat="42.1419" lon="3.01602">
        <ele>31.2</ele>
        <time>2022-05-21 08:39:54</time>
      </trkpt>
      <trkpt lat="42.14199" lon="3.01611">
        <ele>31</ele>
        <time>2022-05-21 08:39:55</time>
      </trkpt>
      <trkpt lat="42.14207" lon="3.01619">
        <ele>30.6</ele>
        <time>2022-05-21 08:39:56</time>
      </trkpt>
      <trkpt lat="42.14215" lon="3.01627">
        <ele>30.4</ele>
        <time>2022-05-21 08:39:57</time>
      </trkpt>
      <trkpt lat="42.14224" lon="3.01635">
        <ele>30.2</ele>
        <time>2022-05-21 08:39:58</time>
      </trkpt>
      <trkpt lat="42.14232" lon="3.01644">
        <ele>30</ele>
        <time>2022-05-21 08:39:59</time>
      </trkpt>
      <trkpt lat="42.1424" lon="3.01652">
        <ele>29.8</ele>
        <time>2022-05-21 08:40:00</time>
      </trkpt>
      <trkpt lat="42.14248" lon="3.01661">
        <ele>29.6</ele>
        <time>2022-05-21 08:40:01</time>
      </trkpt>
      <trkpt lat="42.14256" lon="3.01669">
        <ele>29.4</ele>
        <time>2022-05-21 08:40:02</time>
      </trkpt>
      <trkpt lat="42.14263" lon="3.01678">
        <ele>29.2</ele>
        <time>2022-05-21 08:40:03</time>
      </trkpt>
      <trkpt lat="42.14271" lon="3.01687">
        <ele>29</ele>
        <time>2022-05-21 08:40:04</time>
      </trkpt>
      <trkpt lat="42.14278" lon="3.01696">
        <ele>28.8</ele>
        <time>2022-05-21 08:40:05</time>
      </trkpt>
      <trkpt lat="42.14283" lon="3.01703">
        <ele>28.8</ele>
        <time>2022-05-21 08:40:06</time>
      </trkpt>
      <trkpt lat="42.14288" lon="3.01709">
        <ele>29</ele>
        <time>2022-05-21 08:40:07</time>
      </trkpt>
      <trkpt lat="42.14291" lon="3.01713">
        <ele>29</ele>
        <time>2022-05-21 08:40:08</time>
      </trkpt>
      <trkpt lat="42.14294" lon="3.01715">
        <ele>29.2</ele>
        <time>2022-05-21 08:40:09</time>
      </trkpt>
      <trkpt lat="42.14296" lon="3.01716">
        <ele>29.4</ele>
        <time>2022-05-21 08:40:10</time>
      </trkpt>
      <trkpt lat="42.14297" lon="3.01718">
        <ele>29.4</ele>
        <time>2022-05-21 08:40:11</time>
      </trkpt>
      <trkpt lat="42.14299" lon="3.01719">
        <ele>29.4</ele>
        <time>2022-05-21 08:40:12</time>
      </trkpt>
      <trkpt lat="42.14302" lon="3.01719">
        <ele>29.4</ele>
        <time>2022-05-21 08:40:13</time>
      </trkpt>
      <trkpt lat="42.14304" lon="3.01719">
        <ele>29.6</ele>
        <time>2022-05-21 08:40:14</time>
      </trkpt>
      <trkpt lat="42.14307" lon="3.01718">
        <ele>29.6</ele>
        <time>2022-05-21 08:40:15</time>
      </trkpt>
      <trkpt lat="42.1431" lon="3.01717">
        <ele>29.6</ele>
        <time>2022-05-21 08:40:16</time>
      </trkpt>
      <trkpt lat="42.14313" lon="3.01716">
        <ele>29.6</ele>
        <time>2022-05-21 08:40:17</time>
      </trkpt>
      <trkpt lat="42.14316" lon="3.01716">
        <ele>29.6</ele>
        <time>2022-05-21 08:40:18</time>
      </trkpt>
      <trkpt lat="42.1432" lon="3.01715">
        <ele>29.6</ele>
        <time>2022-05-21 08:40:19</time>
      </trkpt>
      <trkpt lat="42.14324" lon="3.01715">
        <ele>29.6</ele>
        <time>2022-05-21 08:40:20</time>
      </trkpt>
      <trkpt lat="42.14328" lon="3.01715">
        <ele>29.4</ele>
        <time>2022-05-21 08:40:21</time>
      </trkpt>
      <trkpt lat="42.14333" lon="3.01717">
        <ele>29.4</ele>
        <time>2022-05-21 08:40:22</time>
      </trkpt>
      <trkpt lat="42.14338" lon="3.01719">
        <ele>29.2</ele>
        <time>2022-05-21 08:40:23</time>
      </trkpt>
      <trkpt lat="42.14342" lon="3.01722">
        <ele>29</ele>
        <time>2022-05-21 08:40:24</time>
      </trkpt>
      <trkpt lat="42.14347" lon="3.01727">
        <ele>28.8</ele>
        <time>2022-05-21 08:40:25</time>
      </trkpt>
      <trkpt lat="42.14351" lon="3.01733">
        <ele>28.6</ele>
        <time>2022-05-21 08:40:26</time>
      </trkpt>
      <trkpt lat="42.14355" lon="3.0174">
        <ele>28.4</ele>
        <time>2022-05-21 08:40:27</time>
      </trkpt>
      <trkpt lat="42.14359" lon="3.01748">
        <ele>28.2</ele>
        <time>2022-05-21 08:40:28</time>
      </trkpt>
      <trkpt lat="42.14364" lon="3.01755">
        <ele>28</ele>
        <time>2022-05-21 08:40:29</time>
      </trkpt>
      <trkpt lat="42.14369" lon="3.01763">
        <ele>27.8</ele>
        <time>2022-05-21 08:40:30</time>
      </trkpt>
      <trkpt lat="42.14375" lon="3.0177">
        <ele>27.4</ele>
        <time>2022-05-21 08:40:31</time>
      </trkpt>
      <trkpt lat="42.14381" lon="3.01777">
        <ele>27.4</ele>
        <time>2022-05-21 08:40:32</time>
      </trkpt>
      <trkpt lat="42.14387" lon="3.01783">
        <ele>27.2</ele>
        <time>2022-05-21 08:40:33</time>
      </trkpt>
      <trkpt lat="42.14393" lon="3.0179">
        <ele>27</ele>
        <time>2022-05-21 08:40:34</time>
      </trkpt>
      <trkpt lat="42.144" lon="3.01797">
        <ele>26.8</ele>
        <time>2022-05-21 08:40:35</time>
      </trkpt>
      <trkpt lat="42.14406" lon="3.01803">
        <ele>26.6</ele>
        <time>2022-05-21 08:40:36</time>
      </trkpt>
      <trkpt lat="42.14412" lon="3.0181">
        <ele>26.4</ele>
        <time>2022-05-21 08:40:37</time>
      </trkpt>
      <trkpt lat="42.14419" lon="3.01816">
        <ele>26.4</ele>
        <time>2022-05-21 08:40:38</time>
      </trkpt>
      <trkpt lat="42.14424" lon="3.01822">
        <ele>26.2</ele>
        <time>2022-05-21 08:40:39</time>
      </trkpt>
      <trkpt lat="42.14429" lon="3.01827">
        <ele>26.2</ele>
        <time>2022-05-21 08:40:40</time>
      </trkpt>
      <trkpt lat="42.14439" lon="3.01836">
        <ele>26</ele>
        <time>2022-05-21 08:40:41</time>
      </trkpt>
      <trkpt lat="42.14445" lon="3.01841">
        <ele>25.8</ele>
        <time>2022-05-21 08:40:42</time>
      </trkpt>
      <trkpt lat="42.14451" lon="3.01848">
        <ele>25.6</ele>
        <time>2022-05-21 08:40:43</time>
      </trkpt>
      <trkpt lat="42.14459" lon="3.01855">
        <ele>25.4</ele>
        <time>2022-05-21 08:40:44</time>
      </trkpt>
      <trkpt lat="42.14465" lon="3.01862">
        <ele>25.2</ele>
        <time>2022-05-21 08:40:45</time>
      </trkpt>
      <trkpt lat="42.14472" lon="3.01868">
        <ele>25.2</ele>
        <time>2022-05-21 08:40:46</time>
      </trkpt>
      <trkpt lat="42.14478" lon="3.01874">
        <ele>25</ele>
        <time>2022-05-21 08:40:47</time>
      </trkpt>
      <trkpt lat="42.14485" lon="3.01881">
        <ele>24.8</ele>
        <time>2022-05-21 08:40:48</time>
      </trkpt>
      <trkpt lat="42.14491" lon="3.01887">
        <ele>24.8</ele>
        <time>2022-05-21 08:40:49</time>
      </trkpt>
      <trkpt lat="42.14498" lon="3.01893">
        <ele>24.6</ele>
        <time>2022-05-21 08:40:50</time>
      </trkpt>
      <trkpt lat="42.14505" lon="3.019">
        <ele>24.6</ele>
        <time>2022-05-21 08:40:51</time>
      </trkpt>
      <trkpt lat="42.14511" lon="3.01906">
        <ele>24.4</ele>
        <time>2022-05-21 08:40:52</time>
      </trkpt>
      <trkpt lat="42.14518" lon="3.01912">
        <ele>24.4</ele>
        <time>2022-05-21 08:40:53</time>
      </trkpt>
      <trkpt lat="42.14524" lon="3.01919">
        <ele>24.2</ele>
        <time>2022-05-21 08:40:54</time>
      </trkpt>
      <trkpt lat="42.14531" lon="3.01925">
        <ele>24.2</ele>
        <time>2022-05-21 08:40:55</time>
      </trkpt>
      <trkpt lat="42.14537" lon="3.01932">
        <ele>24.2</ele>
        <time>2022-05-21 08:40:56</time>
      </trkpt>
      <trkpt lat="42.14543" lon="3.01938">
        <ele>24</ele>
        <time>2022-05-21 08:40:57</time>
      </trkpt>
      <trkpt lat="42.1455" lon="3.01945">
        <ele>24</ele>
        <time>2022-05-21 08:40:58</time>
      </trkpt>
      <trkpt lat="42.14556" lon="3.01951">
        <ele>23.8</ele>
        <time>2022-05-21 08:40:59</time>
      </trkpt>
      <trkpt lat="42.14563" lon="3.01958">
        <ele>23.8</ele>
        <time>2022-05-21 08:41:00</time>
      </trkpt>
      <trkpt lat="42.14569" lon="3.01964">
        <ele>23.8</ele>
        <time>2022-05-21 08:41:01</time>
      </trkpt>
      <trkpt lat="42.14576" lon="3.0197">
        <ele>23.8</ele>
        <time>2022-05-21 08:41:02</time>
      </trkpt>
      <trkpt lat="42.14582" lon="3.01976">
        <ele>23.6</ele>
        <time>2022-05-21 08:41:03</time>
      </trkpt>
      <trkpt lat="42.14588" lon="3.01982">
        <ele>23.6</ele>
        <time>2022-05-21 08:41:04</time>
      </trkpt>
      <trkpt lat="42.14595" lon="3.01989">
        <ele>23.4</ele>
        <time>2022-05-21 08:41:05</time>
      </trkpt>
      <trkpt lat="42.14601" lon="3.01995">
        <ele>23.4</ele>
        <time>2022-05-21 08:41:06</time>
      </trkpt>
      <trkpt lat="42.14608" lon="3.02001">
        <ele>23.4</ele>
        <time>2022-05-21 08:41:07</time>
      </trkpt>
      <trkpt lat="42.14614" lon="3.02007">
        <ele>23.2</ele>
        <time>2022-05-21 08:41:08</time>
      </trkpt>
      <trkpt lat="42.1462" lon="3.02014">
        <ele>23.2</ele>
        <time>2022-05-21 08:41:09</time>
      </trkpt>
      <trkpt lat="42.14627" lon="3.0202">
        <ele>23</ele>
        <time>2022-05-21 08:41:10</time>
      </trkpt>
      <trkpt lat="42.14633" lon="3.02026">
        <ele>23</ele>
        <time>2022-05-21 08:41:11</time>
      </trkpt>
      <trkpt lat="42.14639" lon="3.02032">
        <ele>23</ele>
        <time>2022-05-21 08:41:12</time>
      </trkpt>
      <trkpt lat="42.14646" lon="3.02038">
        <ele>22.8</ele>
        <time>2022-05-21 08:41:13</time>
      </trkpt>
      <trkpt lat="42.14652" lon="3.02044">
        <ele>22.8</ele>
        <time>2022-05-21 08:41:14</time>
      </trkpt>
      <trkpt lat="42.14659" lon="3.0205">
        <ele>22.6</ele>
        <time>2022-05-21 08:41:15</time>
      </trkpt>
      <trkpt lat="42.14665" lon="3.02057">
        <ele>22.6</ele>
        <time>2022-05-21 08:41:16</time>
      </trkpt>
      <trkpt lat="42.14671" lon="3.02063">
        <ele>22.6</ele>
        <time>2022-05-21 08:41:17</time>
      </trkpt>
      <trkpt lat="42.14677" lon="3.02069">
        <ele>22.6</ele>
        <time>2022-05-21 08:41:18</time>
      </trkpt>
      <trkpt lat="42.14683" lon="3.02074">
        <ele>22.6</ele>
        <time>2022-05-21 08:41:19</time>
      </trkpt>
      <trkpt lat="42.14689" lon="3.0208">
        <ele>22.6</ele>
        <time>2022-05-21 08:41:20</time>
      </trkpt>
      <trkpt lat="42.14695" lon="3.02085">
        <ele>22.4</ele>
        <time>2022-05-21 08:41:21</time>
      </trkpt>
      <trkpt lat="42.14701" lon="3.02091">
        <ele>22.4</ele>
        <time>2022-05-21 08:41:22</time>
      </trkpt>
      <trkpt lat="42.14707" lon="3.02097">
        <ele>22.2</ele>
        <time>2022-05-21 08:41:23</time>
      </trkpt>
      <trkpt lat="42.14712" lon="3.02103">
        <ele>22.2</ele>
        <time>2022-05-21 08:41:24</time>
      </trkpt>
      <trkpt lat="42.14718" lon="3.02108">
        <ele>22.2</ele>
        <time>2022-05-21 08:41:25</time>
      </trkpt>
      <trkpt lat="42.14724" lon="3.02114">
        <ele>22.2</ele>
        <time>2022-05-21 08:41:26</time>
      </trkpt>
      <trkpt lat="42.1473" lon="3.0212">
        <ele>22.2</ele>
        <time>2022-05-21 08:41:27</time>
      </trkpt>
      <trkpt lat="42.14735" lon="3.02125">
        <ele>22</ele>
        <time>2022-05-21 08:41:28</time>
      </trkpt>
      <trkpt lat="42.14741" lon="3.02131">
        <ele>22</ele>
        <time>2022-05-21 08:41:29</time>
      </trkpt>
      <trkpt lat="42.14747" lon="3.02137">
        <ele>22</ele>
        <time>2022-05-21 08:41:30</time>
      </trkpt>
      <trkpt lat="42.14752" lon="3.02142">
        <ele>21.8</ele>
        <time>2022-05-21 08:41:31</time>
      </trkpt>
      <trkpt lat="42.14757" lon="3.02148">
        <ele>21.8</ele>
        <time>2022-05-21 08:41:32</time>
      </trkpt>
      <trkpt lat="42.14763" lon="3.02153">
        <ele>21.8</ele>
        <time>2022-05-21 08:41:33</time>
      </trkpt>
      <trkpt lat="42.14768" lon="3.02159">
        <ele>21.8</ele>
        <time>2022-05-21 08:41:34</time>
      </trkpt>
      <trkpt lat="42.14774" lon="3.02164">
        <ele>21.8</ele>
        <time>2022-05-21 08:41:35</time>
      </trkpt>
      <trkpt lat="42.14779" lon="3.02169">
        <ele>21.6</ele>
        <time>2022-05-21 08:41:36</time>
      </trkpt>
      <trkpt lat="42.14784" lon="3.02175">
        <ele>21.6</ele>
        <time>2022-05-21 08:41:37</time>
      </trkpt>
      <trkpt lat="42.14789" lon="3.0218">
        <ele>21.6</ele>
        <time>2022-05-21 08:41:38</time>
      </trkpt>
      <trkpt lat="42.14795" lon="3.02185">
        <ele>21.6</ele>
        <time>2022-05-21 08:41:39</time>
      </trkpt>
      <trkpt lat="42.148" lon="3.02191">
        <ele>21.6</ele>
        <time>2022-05-21 08:41:40</time>
      </trkpt>
      <trkpt lat="42.14806" lon="3.02196">
        <ele>21.6</ele>
        <time>2022-05-21 08:41:41</time>
      </trkpt>
      <trkpt lat="42.14811" lon="3.02201">
        <ele>21.4</ele>
        <time>2022-05-21 08:41:42</time>
      </trkpt>
      <trkpt lat="42.14817" lon="3.02206">
        <ele>21.4</ele>
        <time>2022-05-21 08:41:43</time>
      </trkpt>
      <trkpt lat="42.14822" lon="3.02211">
        <ele>21.4</ele>
        <time>2022-05-21 08:41:44</time>
      </trkpt>
      <trkpt lat="42.14827" lon="3.02216">
        <ele>21.4</ele>
        <time>2022-05-21 08:41:45</time>
      </trkpt>
      <trkpt lat="42.14833" lon="3.02221">
        <ele>21.2</ele>
        <time>2022-05-21 08:41:46</time>
      </trkpt>
      <trkpt lat="42.14838" lon="3.02226">
        <ele>21.2</ele>
        <time>2022-05-21 08:41:47</time>
      </trkpt>
      <trkpt lat="42.14843" lon="3.02232">
        <ele>21.2</ele>
        <time>2022-05-21 08:41:48</time>
      </trkpt>
      <trkpt lat="42.14849" lon="3.02237">
        <ele>21.2</ele>
        <time>2022-05-21 08:41:49</time>
      </trkpt>
      <trkpt lat="42.14854" lon="3.02242">
        <ele>21.2</ele>
        <time>2022-05-21 08:41:50</time>
      </trkpt>
      <trkpt lat="42.14859" lon="3.02247">
        <ele>21</ele>
        <time>2022-05-21 08:41:51</time>
      </trkpt>
      <trkpt lat="42.14864" lon="3.02252">
        <ele>21</ele>
        <time>2022-05-21 08:41:52</time>
      </trkpt>
      <trkpt lat="42.14869" lon="3.02258">
        <ele>20.8</ele>
        <time>2022-05-21 08:41:53</time>
      </trkpt>
      <trkpt lat="42.14875" lon="3.02263">
        <ele>20.8</ele>
        <time>2022-05-21 08:41:54</time>
      </trkpt>
      <trkpt lat="42.14881" lon="3.02269">
        <ele>20.8</ele>
        <time>2022-05-21 08:41:55</time>
      </trkpt>
      <trkpt lat="42.14887" lon="3.02274">
        <ele>20.6</ele>
        <time>2022-05-21 08:41:56</time>
      </trkpt>
      <trkpt lat="42.14893" lon="3.0228">
        <ele>20.4</ele>
        <time>2022-05-21 08:41:57</time>
      </trkpt>
      <trkpt lat="42.14899" lon="3.02286">
        <ele>20.2</ele>
        <time>2022-05-21 08:41:58</time>
      </trkpt>
      <trkpt lat="42.14905" lon="3.02291">
        <ele>20.2</ele>
        <time>2022-05-21 08:41:59</time>
      </trkpt>
      <trkpt lat="42.14911" lon="3.02297">
        <ele>20</ele>
        <time>2022-05-21 08:42:00</time>
      </trkpt>
      <trkpt lat="42.14917" lon="3.02302">
        <ele>20</ele>
        <time>2022-05-21 08:42:01</time>
      </trkpt>
      <trkpt lat="42.14923" lon="3.02308">
        <ele>19.8</ele>
        <time>2022-05-21 08:42:02</time>
      </trkpt>
      <trkpt lat="42.14929" lon="3.02314">
        <ele>19.8</ele>
        <time>2022-05-21 08:42:03</time>
      </trkpt>
      <trkpt lat="42.14935" lon="3.0232">
        <ele>19.8</ele>
        <time>2022-05-21 08:42:04</time>
      </trkpt>
      <trkpt lat="42.1494" lon="3.02326">
        <ele>19.6</ele>
        <time>2022-05-21 08:42:05</time>
      </trkpt>
      <trkpt lat="42.14945" lon="3.02331">
        <ele>19.6</ele>
        <time>2022-05-21 08:42:06</time>
      </trkpt>
      <trkpt lat="42.14951" lon="3.02337">
        <ele>19.4</ele>
        <time>2022-05-21 08:42:07</time>
      </trkpt>
      <trkpt lat="42.14958" lon="3.02344">
        <ele>19.4</ele>
        <time>2022-05-21 08:42:08</time>
      </trkpt>
      <trkpt lat="42.14964" lon="3.02349">
        <ele>19.2</ele>
        <time>2022-05-21 08:42:09</time>
      </trkpt>
      <trkpt lat="42.1497" lon="3.02355">
        <ele>19.2</ele>
        <time>2022-05-21 08:42:10</time>
      </trkpt>
      <trkpt lat="42.14976" lon="3.02361">
        <ele>19</ele>
        <time>2022-05-21 08:42:11</time>
      </trkpt>
      <trkpt lat="42.14982" lon="3.02367">
        <ele>18.8</ele>
        <time>2022-05-21 08:42:12</time>
      </trkpt>
      <trkpt lat="42.14988" lon="3.02373">
        <ele>18.8</ele>
        <time>2022-05-21 08:42:13</time>
      </trkpt>
      <trkpt lat="42.14994" lon="3.02379">
        <ele>18.6</ele>
        <time>2022-05-21 08:42:14</time>
      </trkpt>
      <trkpt lat="42.15" lon="3.02385">
        <ele>18.6</ele>
        <time>2022-05-21 08:42:15</time>
      </trkpt>
      <trkpt lat="42.15006" lon="3.0239">
        <ele>18.4</ele>
        <time>2022-05-21 08:42:16</time>
      </trkpt>
      <trkpt lat="42.15012" lon="3.02396">
        <ele>18.4</ele>
        <time>2022-05-21 08:42:17</time>
      </trkpt>
      <trkpt lat="42.15017" lon="3.02402">
        <ele>18.2</ele>
        <time>2022-05-21 08:42:18</time>
      </trkpt>
      <trkpt lat="42.15024" lon="3.02409">
        <ele>18</ele>
        <time>2022-05-21 08:42:19</time>
      </trkpt>
      <trkpt lat="42.1503" lon="3.02414">
        <ele>18</ele>
        <time>2022-05-21 08:42:20</time>
      </trkpt>
      <trkpt lat="42.15036" lon="3.0242">
        <ele>17.8</ele>
        <time>2022-05-21 08:42:21</time>
      </trkpt>
      <trkpt lat="42.15042" lon="3.02425">
        <ele>18</ele>
        <time>2022-05-21 08:42:22</time>
      </trkpt>
      <trkpt lat="42.15048" lon="3.02431">
        <ele>17.8</ele>
        <time>2022-05-21 08:42:23</time>
      </trkpt>
      <trkpt lat="42.15054" lon="3.02438">
        <ele>17.6</ele>
        <time>2022-05-21 08:42:24</time>
      </trkpt>
      <trkpt lat="42.1506" lon="3.02444">
        <ele>17.6</ele>
        <time>2022-05-21 08:42:25</time>
      </trkpt>
      <trkpt lat="42.15066" lon="3.0245">
        <ele>17.4</ele>
        <time>2022-05-21 08:42:26</time>
      </trkpt>
      <trkpt lat="42.15072" lon="3.02456">
        <ele>17.2</ele>
        <time>2022-05-21 08:42:27</time>
      </trkpt>
      <trkpt lat="42.15078" lon="3.02461">
        <ele>17.2</ele>
        <time>2022-05-21 08:42:28</time>
      </trkpt>
      <trkpt lat="42.15084" lon="3.02467">
        <ele>17.2</ele>
        <time>2022-05-21 08:42:29</time>
      </trkpt>
      <trkpt lat="42.1509" lon="3.02473">
        <ele>17</ele>
        <time>2022-05-21 08:42:30</time>
      </trkpt>
      <trkpt lat="42.15096" lon="3.02479">
        <ele>17</ele>
        <time>2022-05-21 08:42:31</time>
      </trkpt>
      <trkpt lat="42.15101" lon="3.02484">
        <ele>17</ele>
        <time>2022-05-21 08:42:32</time>
      </trkpt>
      <trkpt lat="42.15106" lon="3.0249">
        <ele>17</ele>
        <time>2022-05-21 08:42:33</time>
      </trkpt>
      <trkpt lat="42.15113" lon="3.02497">
        <ele>17.2</ele>
        <time>2022-05-21 08:42:34</time>
      </trkpt>
      <trkpt lat="42.15118" lon="3.02503">
        <ele>17.2</ele>
        <time>2022-05-21 08:42:35</time>
      </trkpt>
      <trkpt lat="42.15123" lon="3.02509">
        <ele>17.2</ele>
        <time>2022-05-21 08:42:36</time>
      </trkpt>
      <trkpt lat="42.15128" lon="3.02515">
        <ele>17.4</ele>
        <time>2022-05-21 08:42:37</time>
      </trkpt>
      <trkpt lat="42.15133" lon="3.02521">
        <ele>17.4</ele>
        <time>2022-05-21 08:42:38</time>
      </trkpt>
      <trkpt lat="42.15136" lon="3.02529">
        <ele>17.6</ele>
        <time>2022-05-21 08:42:39</time>
      </trkpt>
      <trkpt lat="42.15138" lon="3.02537">
        <ele>17.6</ele>
        <time>2022-05-21 08:42:40</time>
      </trkpt>
      <trkpt lat="42.15139" lon="3.02546">
        <ele>17.8</ele>
        <time>2022-05-21 08:42:41</time>
      </trkpt>
      <trkpt lat="42.15139" lon="3.02555">
        <ele>18</ele>
        <time>2022-05-21 08:42:42</time>
      </trkpt>
      <trkpt lat="42.15139" lon="3.02564">
        <ele>18</ele>
        <time>2022-05-21 08:42:43</time>
      </trkpt>
      <trkpt lat="42.15139" lon="3.02573">
        <ele>18.2</ele>
        <time>2022-05-21 08:42:44</time>
      </trkpt>
      <trkpt lat="42.1514" lon="3.02582">
        <ele>18.2</ele>
        <time>2022-05-21 08:42:45</time>
      </trkpt>
      <trkpt lat="42.1514" lon="3.02591">
        <ele>18.2</ele>
        <time>2022-05-21 08:42:46</time>
      </trkpt>
      <trkpt lat="42.1514" lon="3.02601">
        <ele>18.2</ele>
        <time>2022-05-21 08:42:47</time>
      </trkpt>
      <trkpt lat="42.15141" lon="3.0261">
        <ele>18.2</ele>
        <time>2022-05-21 08:42:48</time>
      </trkpt>
      <trkpt lat="42.15141" lon="3.02619">
        <ele>18.2</ele>
        <time>2022-05-21 08:42:49</time>
      </trkpt>
      <trkpt lat="42.15141" lon="3.02629">
        <ele>18</ele>
        <time>2022-05-21 08:42:50</time>
      </trkpt>
      <trkpt lat="42.15141" lon="3.02639">
        <ele>17.8</ele>
        <time>2022-05-21 08:42:51</time>
      </trkpt>
      <trkpt lat="42.15142" lon="3.02649">
        <ele>17.6</ele>
        <time>2022-05-21 08:42:52</time>
      </trkpt>
      <trkpt lat="42.15143" lon="3.02659">
        <ele>17.4</ele>
        <time>2022-05-21 08:42:53</time>
      </trkpt>
      <trkpt lat="42.15145" lon="3.02669">
        <ele>17</ele>
        <time>2022-05-21 08:42:54</time>
      </trkpt>
      <trkpt lat="42.15149" lon="3.02679">
        <ele>16.8</ele>
        <time>2022-05-21 08:42:55</time>
      </trkpt>
      <trkpt lat="42.15152" lon="3.02688">
        <ele>16.6</ele>
        <time>2022-05-21 08:42:56</time>
      </trkpt>
      <trkpt lat="42.15157" lon="3.02698">
        <ele>16.2</ele>
        <time>2022-05-21 08:42:57</time>
      </trkpt>
      <trkpt lat="42.15162" lon="3.02708">
        <ele>15.8</ele>
        <time>2022-05-21 08:42:58</time>
      </trkpt>
      <trkpt lat="42.15167" lon="3.02717">
        <ele>15.6</ele>
        <time>2022-05-21 08:42:59</time>
      </trkpt>
      <trkpt lat="42.15172" lon="3.02726">
        <ele>15.2</ele>
        <time>2022-05-21 08:43:00</time>
      </trkpt>
      <trkpt lat="42.15177" lon="3.02735">
        <ele>15</ele>
        <time>2022-05-21 08:43:01</time>
      </trkpt>
      <trkpt lat="42.15182" lon="3.02744">
        <ele>14.8</ele>
        <time>2022-05-21 08:43:02</time>
      </trkpt>
      <trkpt lat="42.15187" lon="3.02753">
        <ele>14.8</ele>
        <time>2022-05-21 08:43:03</time>
      </trkpt>
      <trkpt lat="42.15191" lon="3.02762">
        <ele>14.6</ele>
        <time>2022-05-21 08:43:04</time>
      </trkpt>
      <trkpt lat="42.15196" lon="3.0277">
        <ele>14.6</ele>
        <time>2022-05-21 08:43:05</time>
      </trkpt>
      <trkpt lat="42.15201" lon="3.02779">
        <ele>14.6</ele>
        <time>2022-05-21 08:43:06</time>
      </trkpt>
      <trkpt lat="42.15206" lon="3.02788">
        <ele>14.4</ele>
        <time>2022-05-21 08:43:07</time>
      </trkpt>
      <trkpt lat="42.1521" lon="3.02797">
        <ele>14.4</ele>
        <time>2022-05-21 08:43:08</time>
      </trkpt>
      <trkpt lat="42.15215" lon="3.02806">
        <ele>14.4</ele>
        <time>2022-05-21 08:43:09</time>
      </trkpt>
      <trkpt lat="42.15219" lon="3.02815">
        <ele>14.4</ele>
        <time>2022-05-21 08:43:10</time>
      </trkpt>
      <trkpt lat="42.15224" lon="3.02823">
        <ele>14.2</ele>
        <time>2022-05-21 08:43:11</time>
      </trkpt>
      <trkpt lat="42.15229" lon="3.02832">
        <ele>14.2</ele>
        <time>2022-05-21 08:43:12</time>
      </trkpt>
      <trkpt lat="42.15233" lon="3.0284">
        <ele>14</ele>
        <time>2022-05-21 08:43:13</time>
      </trkpt>
      <trkpt lat="42.15238" lon="3.02849">
        <ele>14</ele>
        <time>2022-05-21 08:43:14</time>
      </trkpt>
      <trkpt lat="42.15243" lon="3.02858">
        <ele>13.8</ele>
        <time>2022-05-21 08:43:15</time>
      </trkpt>
      <trkpt lat="42.15248" lon="3.02867">
        <ele>13.8</ele>
        <time>2022-05-21 08:43:16</time>
      </trkpt>
      <trkpt lat="42.15252" lon="3.02876">
        <ele>13.6</ele>
        <time>2022-05-21 08:43:17</time>
      </trkpt>
      <trkpt lat="42.15257" lon="3.02885">
        <ele>13.6</ele>
        <time>2022-05-21 08:43:18</time>
      </trkpt>
      <trkpt lat="42.15262" lon="3.02894">
        <ele>13.4</ele>
        <time>2022-05-21 08:43:19</time>
      </trkpt>
      <trkpt lat="42.15267" lon="3.02903">
        <ele>13.2</ele>
        <time>2022-05-21 08:43:20</time>
      </trkpt>
      <trkpt lat="42.15272" lon="3.02912">
        <ele>13.2</ele>
        <time>2022-05-21 08:43:21</time>
      </trkpt>
      <trkpt lat="42.15277" lon="3.0292">
        <ele>13.2</ele>
        <time>2022-05-21 08:43:22</time>
      </trkpt>
      <trkpt lat="42.15281" lon="3.02929">
        <ele>13.2</ele>
        <time>2022-05-21 08:43:23</time>
      </trkpt>
      <trkpt lat="42.15286" lon="3.02938">
        <ele>13</ele>
        <time>2022-05-21 08:43:24</time>
      </trkpt>
      <trkpt lat="42.15291" lon="3.02947">
        <ele>13</ele>
        <time>2022-05-21 08:43:25</time>
      </trkpt>
      <trkpt lat="42.15296" lon="3.02956">
        <ele>13</ele>
        <time>2022-05-21 08:43:26</time>
      </trkpt>
      <trkpt lat="42.15301" lon="3.02965">
        <ele>12.8</ele>
        <time>2022-05-21 08:43:27</time>
      </trkpt>
      <trkpt lat="42.15306" lon="3.02974">
        <ele>12.8</ele>
        <time>2022-05-21 08:43:28</time>
      </trkpt>
      <trkpt lat="42.15311" lon="3.02983">
        <ele>12.8</ele>
        <time>2022-05-21 08:43:29</time>
      </trkpt>
      <trkpt lat="42.15315" lon="3.02992">
        <ele>12.8</ele>
        <time>2022-05-21 08:43:30</time>
      </trkpt>
      <trkpt lat="42.1532" lon="3.03001">
        <ele>12.6</ele>
        <time>2022-05-21 08:43:31</time>
      </trkpt>
      <trkpt lat="42.15325" lon="3.0301">
        <ele>12.6</ele>
        <time>2022-05-21 08:43:32</time>
      </trkpt>
      <trkpt lat="42.1533" lon="3.03019">
        <ele>12.4</ele>
        <time>2022-05-21 08:43:33</time>
      </trkpt>
      <trkpt lat="42.15335" lon="3.03027">
        <ele>12.4</ele>
        <time>2022-05-21 08:43:34</time>
      </trkpt>
      <trkpt lat="42.1534" lon="3.03037">
        <ele>12.2</ele>
        <time>2022-05-21 08:43:35</time>
      </trkpt>
      <trkpt lat="42.15345" lon="3.03046">
        <ele>12.2</ele>
        <time>2022-05-21 08:43:36</time>
      </trkpt>
      <trkpt lat="42.1535" lon="3.03055">
        <ele>12</ele>
        <time>2022-05-21 08:43:37</time>
      </trkpt>
      <trkpt lat="42.15354" lon="3.03063">
        <ele>12</ele>
        <time>2022-05-21 08:43:38</time>
      </trkpt>
      <trkpt lat="42.15359" lon="3.03073">
        <ele>12</ele>
        <time>2022-05-21 08:43:39</time>
      </trkpt>
      <trkpt lat="42.15364" lon="3.03081">
        <ele>11.8</ele>
        <time>2022-05-21 08:43:40</time>
      </trkpt>
      <trkpt lat="42.15368" lon="3.0309">
        <ele>11.8</ele>
        <time>2022-05-21 08:43:41</time>
      </trkpt>
      <trkpt lat="42.15373" lon="3.031">
        <ele>11.8</ele>
        <time>2022-05-21 08:43:42</time>
      </trkpt>
      <trkpt lat="42.15378" lon="3.03109">
        <ele>11.6</ele>
        <time>2022-05-21 08:43:43</time>
      </trkpt>
      <trkpt lat="42.15383" lon="3.03117">
        <ele>11.6</ele>
        <time>2022-05-21 08:43:44</time>
      </trkpt>
      <trkpt lat="42.15387" lon="3.03126">
        <ele>11.6</ele>
        <time>2022-05-21 08:43:45</time>
      </trkpt>
      <trkpt lat="42.15392" lon="3.03134">
        <ele>11.6</ele>
        <time>2022-05-21 08:43:46</time>
      </trkpt>
      <trkpt lat="42.15397" lon="3.03142">
        <ele>11.6</ele>
        <time>2022-05-21 08:43:47</time>
      </trkpt>
      <trkpt lat="42.15401" lon="3.03151">
        <ele>11.6</ele>
        <time>2022-05-21 08:43:48</time>
      </trkpt>
      <trkpt lat="42.15406" lon="3.0316">
        <ele>11.6</ele>
        <time>2022-05-21 08:43:49</time>
      </trkpt>
      <trkpt lat="42.15409" lon="3.03167">
        <ele>11.6</ele>
        <time>2022-05-21 08:43:50</time>
      </trkpt>
      <trkpt lat="42.15414" lon="3.03175">
        <ele>11.6</ele>
        <time>2022-05-21 08:43:51</time>
      </trkpt>
      <trkpt lat="42.15419" lon="3.03184">
        <ele>11.6</ele>
        <time>2022-05-21 08:43:52</time>
      </trkpt>
      <trkpt lat="42.15423" lon="3.03192">
        <ele>11.6</ele>
        <time>2022-05-21 08:43:53</time>
      </trkpt>
      <trkpt lat="42.15428" lon="3.032">
        <ele>11.6</ele>
        <time>2022-05-21 08:43:54</time>
      </trkpt>
      <trkpt lat="42.15432" lon="3.03209">
        <ele>11.6</ele>
        <time>2022-05-21 08:43:55</time>
      </trkpt>
      <trkpt lat="42.15436" lon="3.03217">
        <ele>11.6</ele>
        <time>2022-05-21 08:43:56</time>
      </trkpt>
      <trkpt lat="42.15441" lon="3.03225">
        <ele>11.8</ele>
        <time>2022-05-21 08:43:57</time>
      </trkpt>
      <trkpt lat="42.15445" lon="3.03233">
        <ele>11.6</ele>
        <time>2022-05-21 08:43:58</time>
      </trkpt>
      <trkpt lat="42.15449" lon="3.03241">
        <ele>11.6</ele>
        <time>2022-05-21 08:43:59</time>
      </trkpt>
      <trkpt lat="42.15454" lon="3.03249">
        <ele>11.6</ele>
        <time>2022-05-21 08:44:00</time>
      </trkpt>
      <trkpt lat="42.15458" lon="3.03258">
        <ele>11.4</ele>
        <time>2022-05-21 08:44:01</time>
      </trkpt>
      <trkpt lat="42.15463" lon="3.03266">
        <ele>11.4</ele>
        <time>2022-05-21 08:44:02</time>
      </trkpt>
      <trkpt lat="42.15467" lon="3.03274">
        <ele>11.2</ele>
        <time>2022-05-21 08:44:03</time>
      </trkpt>
      <trkpt lat="42.15472" lon="3.03282">
        <ele>11</ele>
        <time>2022-05-21 08:44:04</time>
      </trkpt>
      <trkpt lat="42.15477" lon="3.0329">
        <ele>11</ele>
        <time>2022-05-21 08:44:05</time>
      </trkpt>
      <trkpt lat="42.15481" lon="3.03298">
        <ele>11</ele>
        <time>2022-05-21 08:44:06</time>
      </trkpt>
      <trkpt lat="42.15485" lon="3.03306">
        <ele>10.8</ele>
        <time>2022-05-21 08:44:07</time>
      </trkpt>
      <trkpt lat="42.15489" lon="3.03314">
        <ele>10.8</ele>
        <time>2022-05-21 08:44:08</time>
      </trkpt>
      <trkpt lat="42.15494" lon="3.03323">
        <ele>10.8</ele>
        <time>2022-05-21 08:44:09</time>
      </trkpt>
      <trkpt lat="42.15499" lon="3.03331">
        <ele>10.6</ele>
        <time>2022-05-21 08:44:10</time>
      </trkpt>
      <trkpt lat="42.15503" lon="3.0334">
        <ele>10.4</ele>
        <time>2022-05-21 08:44:11</time>
      </trkpt>
      <trkpt lat="42.15508" lon="3.03348">
        <ele>10.2</ele>
        <time>2022-05-21 08:44:12</time>
      </trkpt>
      <trkpt lat="42.15512" lon="3.03356">
        <ele>10.2</ele>
        <time>2022-05-21 08:44:13</time>
      </trkpt>
      <trkpt lat="42.15517" lon="3.03366">
        <ele>10</ele>
        <time>2022-05-21 08:44:14</time>
      </trkpt>
      <trkpt lat="42.15522" lon="3.03374">
        <ele>10</ele>
        <time>2022-05-21 08:44:15</time>
      </trkpt>
      <trkpt lat="42.15526" lon="3.03382">
        <ele>9.8</ele>
        <time>2022-05-21 08:44:16</time>
      </trkpt>
      <trkpt lat="42.15531" lon="3.03391">
        <ele>9.6</ele>
        <time>2022-05-21 08:44:17</time>
      </trkpt>
      <trkpt lat="42.15536" lon="3.034">
        <ele>9.6</ele>
        <time>2022-05-21 08:44:18</time>
      </trkpt>
      <trkpt lat="42.15541" lon="3.03408">
        <ele>9.6</ele>
        <time>2022-05-21 08:44:19</time>
      </trkpt>
      <trkpt lat="42.15545" lon="3.03417">
        <ele>9.4</ele>
        <time>2022-05-21 08:44:20</time>
      </trkpt>
      <trkpt lat="42.1555" lon="3.03426">
        <ele>9.4</ele>
        <time>2022-05-21 08:44:21</time>
      </trkpt>
      <trkpt lat="42.15555" lon="3.03434">
        <ele>9.2</ele>
        <time>2022-05-21 08:44:22</time>
      </trkpt>
      <trkpt lat="42.15559" lon="3.03442">
        <ele>9.2</ele>
        <time>2022-05-21 08:44:23</time>
      </trkpt>
      <trkpt lat="42.15564" lon="3.03451">
        <ele>9.2</ele>
        <time>2022-05-21 08:44:24</time>
      </trkpt>
      <trkpt lat="42.15568" lon="3.03459">
        <ele>9.2</ele>
        <time>2022-05-21 08:44:25</time>
      </trkpt>
      <trkpt lat="42.15573" lon="3.03469">
        <ele>9</ele>
        <time>2022-05-21 08:44:26</time>
      </trkpt>
      <trkpt lat="42.15579" lon="3.03478">
        <ele>9.2</ele>
        <time>2022-05-21 08:44:27</time>
      </trkpt>
      <trkpt lat="42.15583" lon="3.03486">
        <ele>9.2</ele>
        <time>2022-05-21 08:44:28</time>
      </trkpt>
      <trkpt lat="42.15588" lon="3.03495">
        <ele>9</ele>
        <time>2022-05-21 08:44:29</time>
      </trkpt>
      <trkpt lat="42.15593" lon="3.03504">
        <ele>9</ele>
        <time>2022-05-21 08:44:30</time>
      </trkpt>
      <trkpt lat="42.15598" lon="3.03513">
        <ele>9</ele>
        <time>2022-05-21 08:44:31</time>
      </trkpt>
      <trkpt lat="42.15602" lon="3.03521">
        <ele>9</ele>
        <time>2022-05-21 08:44:32</time>
      </trkpt>
      <trkpt lat="42.15607" lon="3.0353">
        <ele>9</ele>
        <time>2022-05-21 08:44:33</time>
      </trkpt>
      <trkpt lat="42.15612" lon="3.0354">
        <ele>8.8</ele>
        <time>2022-05-21 08:44:34</time>
      </trkpt>
      <trkpt lat="42.15617" lon="3.03549">
        <ele>8.6</ele>
        <time>2022-05-21 08:44:35</time>
      </trkpt>
      <trkpt lat="42.15622" lon="3.03557">
        <ele>8.6</ele>
        <time>2022-05-21 08:44:36</time>
      </trkpt>
      <trkpt lat="42.15627" lon="3.03566">
        <ele>8.4</ele>
        <time>2022-05-21 08:44:37</time>
      </trkpt>
      <trkpt lat="42.15632" lon="3.03576">
        <ele>8.4</ele>
        <time>2022-05-21 08:44:38</time>
      </trkpt>
      <trkpt lat="42.15636" lon="3.03585">
        <ele>8.4</ele>
        <time>2022-05-21 08:44:39</time>
      </trkpt>
      <trkpt lat="42.15641" lon="3.03594">
        <ele>8.2</ele>
        <time>2022-05-21 08:44:40</time>
      </trkpt>
      <trkpt lat="42.15646" lon="3.03603">
        <ele>8.2</ele>
        <time>2022-05-21 08:44:41</time>
      </trkpt>
      <trkpt lat="42.15651" lon="3.03612">
        <ele>8</ele>
        <time>2022-05-21 08:44:42</time>
      </trkpt>
      <trkpt lat="42.15656" lon="3.03622">
        <ele>8</ele>
        <time>2022-05-21 08:44:43</time>
      </trkpt>
      <trkpt lat="42.15661" lon="3.03631">
        <ele>7.8</ele>
        <time>2022-05-21 08:44:44</time>
      </trkpt>
      <trkpt lat="42.15666" lon="3.0364">
        <ele>7.6</ele>
        <time>2022-05-21 08:44:45</time>
      </trkpt>
      <trkpt lat="42.15671" lon="3.03649">
        <ele>7.6</ele>
        <time>2022-05-21 08:44:46</time>
      </trkpt>
      <trkpt lat="42.15676" lon="3.03658">
        <ele>7.4</ele>
        <time>2022-05-21 08:44:47</time>
      </trkpt>
      <trkpt lat="42.15681" lon="3.03667">
        <ele>7.4</ele>
        <time>2022-05-21 08:44:48</time>
      </trkpt>
      <trkpt lat="42.15686" lon="3.03676">
        <ele>7.4</ele>
        <time>2022-05-21 08:44:49</time>
      </trkpt>
      <trkpt lat="42.1569" lon="3.03685">
        <ele>7.2</ele>
        <time>2022-05-21 08:44:50</time>
      </trkpt>
      <trkpt lat="42.15695" lon="3.03694">
        <ele>7.2</ele>
        <time>2022-05-21 08:44:51</time>
      </trkpt>
      <trkpt lat="42.157" lon="3.03704">
        <ele>7.2</ele>
        <time>2022-05-21 08:44:52</time>
      </trkpt>
      <trkpt lat="42.15705" lon="3.03713">
        <ele>7.2</ele>
        <time>2022-05-21 08:44:53</time>
      </trkpt>
      <trkpt lat="42.1571" lon="3.03721">
        <ele>7</ele>
        <time>2022-05-21 08:44:54</time>
      </trkpt>
      <trkpt lat="42.15715" lon="3.0373">
        <ele>7</ele>
        <time>2022-05-21 08:44:55</time>
      </trkpt>
      <trkpt lat="42.1572" lon="3.03739">
        <ele>7</ele>
        <time>2022-05-21 08:44:56</time>
      </trkpt>
      <trkpt lat="42.15725" lon="3.03749">
        <ele>6.8</ele>
        <time>2022-05-21 08:44:57</time>
      </trkpt>
      <trkpt lat="42.15729" lon="3.03757">
        <ele>6.8</ele>
        <time>2022-05-21 08:44:58</time>
      </trkpt>
      <trkpt lat="42.15734" lon="3.03766">
        <ele>6.8</ele>
        <time>2022-05-21 08:44:59</time>
      </trkpt>
      <trkpt lat="42.15739" lon="3.03775">
        <ele>6.8</ele>
        <time>2022-05-21 08:45:00</time>
      </trkpt>
      <trkpt lat="42.15744" lon="3.03784">
        <ele>6.6</ele>
        <time>2022-05-21 08:45:01</time>
      </trkpt>
      <trkpt lat="42.15749" lon="3.03793">
        <ele>6.4</ele>
        <time>2022-05-21 08:45:02</time>
      </trkpt>
      <trkpt lat="42.15755" lon="3.03803">
        <ele>6.4</ele>
        <time>2022-05-21 08:45:03</time>
      </trkpt>
      <trkpt lat="42.1576" lon="3.03812">
        <ele>6.2</ele>
        <time>2022-05-21 08:45:04</time>
      </trkpt>
      <trkpt lat="42.15765" lon="3.03821">
        <ele>6.2</ele>
        <time>2022-05-21 08:45:05</time>
      </trkpt>
      <trkpt lat="42.1577" lon="3.0383">
        <ele>6.2</ele>
        <time>2022-05-21 08:45:06</time>
      </trkpt>
      <trkpt lat="42.15775" lon="3.0384">
        <ele>6</ele>
        <time>2022-05-21 08:45:07</time>
      </trkpt>
      <trkpt lat="42.1578" lon="3.03849">
        <ele>6</ele>
        <time>2022-05-21 08:45:08</time>
      </trkpt>
      <trkpt lat="42.15785" lon="3.03859">
        <ele>5.8</ele>
        <time>2022-05-21 08:45:09</time>
      </trkpt>
      <trkpt lat="42.15791" lon="3.03868">
        <ele>5.8</ele>
        <time>2022-05-21 08:45:10</time>
      </trkpt>
      <trkpt lat="42.15796" lon="3.03878">
        <ele>5.6</ele>
        <time>2022-05-21 08:45:11</time>
      </trkpt>
      <trkpt lat="42.15801" lon="3.03887">
        <ele>5.6</ele>
        <time>2022-05-21 08:45:12</time>
      </trkpt>
      <trkpt lat="42.15806" lon="3.03896">
        <ele>5.4</ele>
        <time>2022-05-21 08:45:13</time>
      </trkpt>
      <trkpt lat="42.1581" lon="3.03904">
        <ele>5.4</ele>
        <time>2022-05-21 08:45:14</time>
      </trkpt>
      <trkpt lat="42.15815" lon="3.03914">
        <ele>5.2</ele>
        <time>2022-05-21 08:45:15</time>
      </trkpt>
      <trkpt lat="42.1582" lon="3.03924">
        <ele>5.2</ele>
        <time>2022-05-21 08:45:16</time>
      </trkpt>
      <trkpt lat="42.15825" lon="3.03934">
        <ele>5</ele>
        <time>2022-05-21 08:45:17</time>
      </trkpt>
      <trkpt lat="42.1583" lon="3.03941">
        <ele>5</ele>
        <time>2022-05-21 08:45:18</time>
      </trkpt>
      <trkpt lat="42.15835" lon="3.03951">
        <ele>4.8</ele>
        <time>2022-05-21 08:45:19</time>
      </trkpt>
      <trkpt lat="42.1584" lon="3.03961">
        <ele>4.8</ele>
        <time>2022-05-21 08:45:20</time>
      </trkpt>
      <trkpt lat="42.15845" lon="3.03971">
        <ele>4.6</ele>
        <time>2022-05-21 08:45:21</time>
      </trkpt>
      <trkpt lat="42.1585" lon="3.0398">
        <ele>4.4</ele>
        <time>2022-05-21 08:45:22</time>
      </trkpt>
      <trkpt lat="42.15856" lon="3.03989">
        <ele>4.4</ele>
        <time>2022-05-21 08:45:23</time>
      </trkpt>
      <trkpt lat="42.15861" lon="3.03999">
        <ele>4.2</ele>
        <time>2022-05-21 08:45:24</time>
      </trkpt>
      <trkpt lat="42.15866" lon="3.04009">
        <ele>4.2</ele>
        <time>2022-05-21 08:45:25</time>
      </trkpt>
      <trkpt lat="42.15871" lon="3.04019">
        <ele>4</ele>
        <time>2022-05-21 08:45:26</time>
      </trkpt>
      <trkpt lat="42.15876" lon="3.04028">
        <ele>3.8</ele>
        <time>2022-05-21 08:45:27</time>
      </trkpt>
      <trkpt lat="42.15881" lon="3.04038">
        <ele>3.8</ele>
        <time>2022-05-21 08:45:28</time>
      </trkpt>
      <trkpt lat="42.15885" lon="3.04047">
        <ele>3.6</ele>
        <time>2022-05-21 08:45:29</time>
      </trkpt>
      <trkpt lat="42.15889" lon="3.04056">
        <ele>3.6</ele>
        <time>2022-05-21 08:45:30</time>
      </trkpt>
      <trkpt lat="42.15894" lon="3.04066">
        <ele>3.4</ele>
        <time>2022-05-21 08:45:31</time>
      </trkpt>
      <trkpt lat="42.15897" lon="3.04075">
        <ele>3.4</ele>
        <time>2022-05-21 08:45:32</time>
      </trkpt>
      <trkpt lat="42.15901" lon="3.04084">
        <ele>3.4</ele>
        <time>2022-05-21 08:45:33</time>
      </trkpt>
      <trkpt lat="42.15904" lon="3.04095">
        <ele>3.2</ele>
        <time>2022-05-21 08:45:34</time>
      </trkpt>
      <trkpt lat="42.15905" lon="3.04106">
        <ele>3.2</ele>
        <time>2022-05-21 08:45:35</time>
      </trkpt>
      <trkpt lat="42.15904" lon="3.04116">
        <ele>3.2</ele>
        <time>2022-05-21 08:45:36</time>
      </trkpt>
      <trkpt lat="42.15902" lon="3.04126">
        <ele>3.2</ele>
        <time>2022-05-21 08:45:37</time>
      </trkpt>
      <trkpt lat="42.15899" lon="3.04135">
        <ele>3.2</ele>
        <time>2022-05-21 08:45:38</time>
      </trkpt>
      <trkpt lat="42.15898" lon="3.04145">
        <ele>3.2</ele>
        <time>2022-05-21 08:45:39</time>
      </trkpt>
      <trkpt lat="42.15899" lon="3.04155">
        <ele>3.4</ele>
        <time>2022-05-21 08:45:40</time>
      </trkpt>
      <trkpt lat="42.15901" lon="3.04164">
        <ele>3.4</ele>
        <time>2022-05-21 08:45:41</time>
      </trkpt>
      <trkpt lat="42.15905" lon="3.04172">
        <ele>3.6</ele>
        <time>2022-05-21 08:45:42</time>
      </trkpt>
      <trkpt lat="42.1591" lon="3.0418">
        <ele>3.6</ele>
        <time>2022-05-21 08:45:43</time>
      </trkpt>
      <trkpt lat="42.15914" lon="3.04187">
        <ele>3.6</ele>
        <time>2022-05-21 08:45:44</time>
      </trkpt>
      <trkpt lat="42.15917" lon="3.04194">
        <ele>3.8</ele>
        <time>2022-05-21 08:45:45</time>
      </trkpt>
      <trkpt lat="42.1592" lon="3.04202">
        <ele>4</ele>
        <time>2022-05-21 08:45:46</time>
      </trkpt>
      <trkpt lat="42.15923" lon="3.0421">
        <ele>4.2</ele>
        <time>2022-05-21 08:45:47</time>
      </trkpt>
      <trkpt lat="42.15925" lon="3.04218">
        <ele>4.4</ele>
        <time>2022-05-21 08:45:48</time>
      </trkpt>
      <trkpt lat="42.15927" lon="3.04226">
        <ele>4.6</ele>
        <time>2022-05-21 08:45:49</time>
      </trkpt>
      <trkpt lat="42.15929" lon="3.04233">
        <ele>5</ele>
        <time>2022-05-21 08:45:50</time>
      </trkpt>
      <trkpt lat="42.15931" lon="3.04241">
        <ele>5.2</ele>
        <time>2022-05-21 08:45:51</time>
      </trkpt>
      <trkpt lat="42.15932" lon="3.04248">
        <ele>5.6</ele>
        <time>2022-05-21 08:45:52</time>
      </trkpt>
      <trkpt lat="42.15934" lon="3.04255">
        <ele>5.8</ele>
        <time>2022-05-21 08:45:53</time>
      </trkpt>
      <trkpt lat="42.15935" lon="3.04262">
        <ele>6.2</ele>
        <time>2022-05-21 08:45:54</time>
      </trkpt>
      <trkpt lat="42.15936" lon="3.04268">
        <ele>6.4</ele>
        <time>2022-05-21 08:45:55</time>
      </trkpt>
      <trkpt lat="42.15937" lon="3.04275">
        <ele>6.8</ele>
        <time>2022-05-21 08:45:56</time>
      </trkpt>
      <trkpt lat="42.15939" lon="3.04282">
        <ele>7</ele>
        <time>2022-05-21 08:45:57</time>
      </trkpt>
      <trkpt lat="42.1594" lon="3.04288">
        <ele>7.4</ele>
        <time>2022-05-21 08:45:58</time>
      </trkpt>
      <trkpt lat="42.15941" lon="3.04294">
        <ele>7.8</ele>
        <time>2022-05-21 08:45:59</time>
      </trkpt>
      <trkpt lat="42.15942" lon="3.043">
        <ele>8</ele>
        <time>2022-05-21 08:46:00</time>
      </trkpt>
      <trkpt lat="42.15944" lon="3.04305">
        <ele>8.2</ele>
        <time>2022-05-21 08:46:01</time>
      </trkpt>
      <trkpt lat="42.15945" lon="3.04314">
        <ele>8.4</ele>
        <time>2022-05-21 08:46:02</time>
      </trkpt>
      <trkpt lat="42.15947" lon="3.0432">
        <ele>8.6</ele>
        <time>2022-05-21 08:46:03</time>
      </trkpt>
      <trkpt lat="42.15948" lon="3.04327">
        <ele>9</ele>
        <time>2022-05-21 08:46:04</time>
      </trkpt>
      <trkpt lat="42.15949" lon="3.04334">
        <ele>9</ele>
        <time>2022-05-21 08:46:05</time>
      </trkpt>
      <trkpt lat="42.15951" lon="3.04341">
        <ele>9.2</ele>
        <time>2022-05-21 08:46:06</time>
      </trkpt>
      <trkpt lat="42.15953" lon="3.04349">
        <ele>9.2</ele>
        <time>2022-05-21 08:46:07</time>
      </trkpt>
      <trkpt lat="42.15955" lon="3.04356">
        <ele>9.4</ele>
        <time>2022-05-21 08:46:08</time>
      </trkpt>
      <trkpt lat="42.15956" lon="3.04364">
        <ele>9.4</ele>
        <time>2022-05-21 08:46:09</time>
      </trkpt>
      <trkpt lat="42.15958" lon="3.04372">
        <ele>9.4</ele>
        <time>2022-05-21 08:46:10</time>
      </trkpt>
      <trkpt lat="42.1596" lon="3.0438">
        <ele>9.4</ele>
        <time>2022-05-21 08:46:11</time>
      </trkpt>
      <trkpt lat="42.15962" lon="3.04389">
        <ele>9.2</ele>
        <time>2022-05-21 08:46:12</time>
      </trkpt>
      <trkpt lat="42.15964" lon="3.04398">
        <ele>9.2</ele>
        <time>2022-05-21 08:46:13</time>
      </trkpt>
      <trkpt lat="42.15966" lon="3.04407">
        <ele>8.8</ele>
        <time>2022-05-21 08:46:14</time>
      </trkpt>
      <trkpt lat="42.15969" lon="3.04417">
        <ele>8.6</ele>
        <time>2022-05-21 08:46:15</time>
      </trkpt>
      <trkpt lat="42.15971" lon="3.04426">
        <ele>8.2</ele>
        <time>2022-05-21 08:46:16</time>
      </trkpt>
      <trkpt lat="42.15973" lon="3.04436">
        <ele>7.8</ele>
        <time>2022-05-21 08:46:17</time>
      </trkpt>
      <trkpt lat="42.15975" lon="3.04448">
        <ele>7.2</ele>
        <time>2022-05-21 08:46:18</time>
      </trkpt>
      <trkpt lat="42.15978" lon="3.0446">
        <ele>6.6</ele>
        <time>2022-05-21 08:46:19</time>
      </trkpt>
      <trkpt lat="42.15981" lon="3.04471">
        <ele>5.8</ele>
        <time>2022-05-21 08:46:20</time>
      </trkpt>
      <trkpt lat="42.15983" lon="3.04484">
        <ele>5.2</ele>
        <time>2022-05-21 08:46:21</time>
      </trkpt>
      <trkpt lat="42.15986" lon="3.04496">
        <ele>4.4</ele>
        <time>2022-05-21 08:46:22</time>
      </trkpt>
      <trkpt lat="42.15988" lon="3.0451">
        <ele>3.8</ele>
        <time>2022-05-21 08:46:23</time>
      </trkpt>
      <trkpt lat="42.1599" lon="3.04524">
        <ele>3.2</ele>
        <time>2022-05-21 08:46:24</time>
      </trkpt>
      <trkpt lat="42.15991" lon="3.04537">
        <ele>2.8</ele>
        <time>2022-05-21 08:46:25</time>
      </trkpt>
      <trkpt lat="42.1599" lon="3.0455">
        <ele>2.6</ele>
        <time>2022-05-21 08:46:26</time>
      </trkpt>
      <trkpt lat="42.1599" lon="3.04561">
        <ele>2.4</ele>
        <time>2022-05-21 08:46:27</time>
      </trkpt>
      <trkpt lat="42.15993" lon="3.0457">
        <ele>2.2</ele>
        <time>2022-05-21 08:46:28</time>
      </trkpt>
      <trkpt lat="42.15998" lon="3.04576">
        <ele>1.8</ele>
        <time>2022-05-21 08:46:29</time>
      </trkpt>
      <trkpt lat="42.16003" lon="3.04579">
        <ele>1.6</ele>
        <time>2022-05-21 08:46:30</time>
      </trkpt>
      <trkpt lat="42.16009" lon="3.04578">
        <ele>1.4</ele>
        <time>2022-05-21 08:46:31</time>
      </trkpt>
      <trkpt lat="42.16018" lon="3.04573">
        <ele>1.2</ele>
        <time>2022-05-21 08:46:32</time>
      </trkpt>
      <trkpt lat="42.16024" lon="3.04567">
        <ele>1.2</ele>
        <time>2022-05-21 08:46:33</time>
      </trkpt>
      <trkpt lat="42.16029" lon="3.04562">
        <ele>1.2</ele>
        <time>2022-05-21 08:46:34</time>
      </trkpt>
      <trkpt lat="42.16035" lon="3.04557">
        <ele>1.2</ele>
        <time>2022-05-21 08:46:35</time>
      </trkpt>
      <trkpt lat="42.16042" lon="3.04552">
        <ele>1.2</ele>
        <time>2022-05-21 08:46:36</time>
      </trkpt>
      <trkpt lat="42.16048" lon="3.04547">
        <ele>1.2</ele>
        <time>2022-05-21 08:46:37</time>
      </trkpt>
      <trkpt lat="42.16054" lon="3.04542">
        <ele>1.2</ele>
        <time>2022-05-21 08:46:38</time>
      </trkpt>
      <trkpt lat="42.1606" lon="3.04537">
        <ele>1.2</ele>
        <time>2022-05-21 08:46:39</time>
      </trkpt>
      <trkpt lat="42.16067" lon="3.04531">
        <ele>1.2</ele>
        <time>2022-05-21 08:46:40</time>
      </trkpt>
      <trkpt lat="42.16073" lon="3.04525">
        <ele>1.2</ele>
        <time>2022-05-21 08:46:41</time>
      </trkpt>
      <trkpt lat="42.16078" lon="3.0452">
        <ele>1.2</ele>
        <time>2022-05-21 08:46:42</time>
      </trkpt>
      <trkpt lat="42.16084" lon="3.04514">
        <ele>1.2</ele>
        <time>2022-05-21 08:46:43</time>
      </trkpt>
      <trkpt lat="42.1609" lon="3.04507">
        <ele>1.2</ele>
        <time>2022-05-21 08:46:44</time>
      </trkpt>
      <trkpt lat="42.16095" lon="3.04501">
        <ele>1.2</ele>
        <time>2022-05-21 08:46:45</time>
      </trkpt>
      <trkpt lat="42.16101" lon="3.04496">
        <ele>1.2</ele>
        <time>2022-05-21 08:46:46</time>
      </trkpt>
      <trkpt lat="42.16107" lon="3.04489">
        <ele>1.2</ele>
        <time>2022-05-21 08:46:47</time>
      </trkpt>
      <trkpt lat="42.16113" lon="3.04484">
        <ele>1.2</ele>
        <time>2022-05-21 08:46:48</time>
      </trkpt>
      <trkpt lat="42.16118" lon="3.04478">
        <ele>1.4</ele>
        <time>2022-05-21 08:46:49</time>
      </trkpt>
      <trkpt lat="42.16124" lon="3.04473">
        <ele>1.4</ele>
        <time>2022-05-21 08:46:50</time>
      </trkpt>
      <trkpt lat="42.16129" lon="3.04467">
        <ele>1.4</ele>
        <time>2022-05-21 08:46:51</time>
      </trkpt>
      <trkpt lat="42.16135" lon="3.04461">
        <ele>1.6</ele>
        <time>2022-05-21 08:46:52</time>
      </trkpt>
      <trkpt lat="42.16141" lon="3.04455">
        <ele>1.6</ele>
        <time>2022-05-21 08:46:53</time>
      </trkpt>
      <trkpt lat="42.16146" lon="3.04449">
        <ele>1.6</ele>
        <time>2022-05-21 08:46:54</time>
      </trkpt>
      <trkpt lat="42.16152" lon="3.04445">
        <ele>1.6</ele>
        <time>2022-05-21 08:46:55</time>
      </trkpt>
      <trkpt lat="42.16158" lon="3.04442">
        <ele>1.6</ele>
        <time>2022-05-21 08:46:56</time>
      </trkpt>
      <trkpt lat="42.16165" lon="3.04442">
        <ele>1.6</ele>
        <time>2022-05-21 08:46:57</time>
      </trkpt>
      <trkpt lat="42.1617" lon="3.04445">
        <ele>1.6</ele>
        <time>2022-05-21 08:46:58</time>
      </trkpt>
      <trkpt lat="42.16175" lon="3.0445">
        <ele>1.6</ele>
        <time>2022-05-21 08:46:59</time>
      </trkpt>
      <trkpt lat="42.16179" lon="3.04458">
        <ele>1.6</ele>
        <time>2022-05-21 08:47:00</time>
      </trkpt>
      <trkpt lat="42.16184" lon="3.04466">
        <ele>1.4</ele>
        <time>2022-05-21 08:47:01</time>
      </trkpt>
      <trkpt lat="42.16188" lon="3.04473">
        <ele>1.4</ele>
        <time>2022-05-21 08:47:02</time>
      </trkpt>
      <trkpt lat="42.16192" lon="3.04481">
        <ele>1.4</ele>
        <time>2022-05-21 08:47:03</time>
      </trkpt>
      <trkpt lat="42.16196" lon="3.04489">
        <ele>1.4</ele>
        <time>2022-05-21 08:47:04</time>
      </trkpt>
      <trkpt lat="42.16201" lon="3.04496">
        <ele>1.4</ele>
        <time>2022-05-21 08:47:05</time>
      </trkpt>
      <trkpt lat="42.16206" lon="3.04504">
        <ele>1.4</ele>
        <time>2022-05-21 08:47:06</time>
      </trkpt>
      <trkpt lat="42.16211" lon="3.04513">
        <ele>1.4</ele>
        <time>2022-05-21 08:47:07</time>
      </trkpt>
      <trkpt lat="42.16216" lon="3.04521">
        <ele>1.4</ele>
        <time>2022-05-21 08:47:08</time>
      </trkpt>
      <trkpt lat="42.16221" lon="3.04529">
        <ele>1.4</ele>
        <time>2022-05-21 08:47:09</time>
      </trkpt>
      <trkpt lat="42.16226" lon="3.04536">
        <ele>1.2</ele>
        <time>2022-05-21 08:47:10</time>
      </trkpt>
      <trkpt lat="42.16232" lon="3.04543">
        <ele>1.2</ele>
        <time>2022-05-21 08:47:11</time>
      </trkpt>
      <trkpt lat="42.16238" lon="3.04551">
        <ele>1</ele>
        <time>2022-05-21 08:47:12</time>
      </trkpt>
      <trkpt lat="42.16244" lon="3.04558">
        <ele>1</ele>
        <time>2022-05-21 08:47:13</time>
      </trkpt>
      <trkpt lat="42.1625" lon="3.04566">
        <ele>0.8</ele>
        <time>2022-05-21 08:47:14</time>
      </trkpt>
      <trkpt lat="42.16255" lon="3.04574">
        <ele>0.8</ele>
        <time>2022-05-21 08:47:15</time>
      </trkpt>
      <trkpt lat="42.16261" lon="3.04582">
        <ele>0.6</ele>
        <time>2022-05-21 08:47:16</time>
      </trkpt>
      <trkpt lat="42.16267" lon="3.0459">
        <ele>0.6</ele>
        <time>2022-05-21 08:47:17</time>
      </trkpt>
      <trkpt lat="42.16273" lon="3.04598">
        <ele>0.6</ele>
        <time>2022-05-21 08:47:18</time>
      </trkpt>
      <trkpt lat="42.16279" lon="3.04605">
        <ele>0.6</ele>
        <time>2022-05-21 08:47:19</time>
      </trkpt>
      <trkpt lat="42.16285" lon="3.04612">
        <ele>0.6</ele>
        <time>2022-05-21 08:47:20</time>
      </trkpt>
      <trkpt lat="42.16291" lon="3.04619">
        <ele>0.6</ele>
        <time>2022-05-21 08:47:21</time>
      </trkpt>
      <trkpt lat="42.16296" lon="3.04627">
        <ele>0.6</ele>
        <time>2022-05-21 08:47:22</time>
      </trkpt>
      <trkpt lat="42.16302" lon="3.04634">
        <ele>0.6</ele>
        <time>2022-05-21 08:47:23</time>
      </trkpt>
      <trkpt lat="42.16307" lon="3.04641">
        <ele>0.6</ele>
        <time>2022-05-21 08:47:24</time>
      </trkpt>
      <trkpt lat="42.16313" lon="3.04648">
        <ele>0.6</ele>
        <time>2022-05-21 08:47:25</time>
      </trkpt>
      <trkpt lat="42.16319" lon="3.04655">
        <ele>0.6</ele>
        <time>2022-05-21 08:47:26</time>
      </trkpt>
      <trkpt lat="42.16324" lon="3.04662">
        <ele>0.6</ele>
        <time>2022-05-21 08:47:27</time>
      </trkpt>
      <trkpt lat="42.1633" lon="3.04669">
        <ele>0.6</ele>
        <time>2022-05-21 08:47:28</time>
      </trkpt>
      <trkpt lat="42.16335" lon="3.04676">
        <ele>0.6</ele>
        <time>2022-05-21 08:47:29</time>
      </trkpt>
      <trkpt lat="42.16341" lon="3.04683">
        <ele>0.6</ele>
        <time>2022-05-21 08:47:30</time>
      </trkpt>
      <trkpt lat="42.16346" lon="3.0469">
        <ele>0.6</ele>
        <time>2022-05-21 08:47:31</time>
      </trkpt>
      <trkpt lat="42.16353" lon="3.04696">
        <ele>0.6</ele>
        <time>2022-05-21 08:47:32</time>
      </trkpt>
      <trkpt lat="42.16359" lon="3.04703">
        <ele>0.6</ele>
        <time>2022-05-21 08:47:33</time>
      </trkpt>
      <trkpt lat="42.16365" lon="3.04709">
        <ele>0.6</ele>
        <time>2022-05-21 08:47:34</time>
      </trkpt>
      <trkpt lat="42.1637" lon="3.04715">
        <ele>0.6</ele>
        <time>2022-05-21 08:47:35</time>
      </trkpt>
      <trkpt lat="42.16375" lon="3.04722">
        <ele>0.8</ele>
        <time>2022-05-21 08:47:36</time>
      </trkpt>
      <trkpt lat="42.16381" lon="3.04729">
        <ele>0.8</ele>
        <time>2022-05-21 08:47:37</time>
      </trkpt>
      <trkpt lat="42.16386" lon="3.04736">
        <ele>0.8</ele>
        <time>2022-05-21 08:47:38</time>
      </trkpt>
      <trkpt lat="42.16392" lon="3.04744">
        <ele>0.8</ele>
        <time>2022-05-21 08:47:39</time>
      </trkpt>
      <trkpt lat="42.16396" lon="3.04751">
        <ele>0.6</ele>
        <time>2022-05-21 08:47:40</time>
      </trkpt>
      <trkpt lat="42.16402" lon="3.04758">
        <ele>0.6</ele>
        <time>2022-05-21 08:47:41</time>
      </trkpt>
      <trkpt lat="42.16407" lon="3.04766">
        <ele>0.6</ele>
        <time>2022-05-21 08:47:42</time>
      </trkpt>
      <trkpt lat="42.16411" lon="3.04774">
        <ele>0.4</ele>
        <time>2022-05-21 08:47:43</time>
      </trkpt>
      <trkpt lat="42.16416" lon="3.04782">
        <ele>0.4</ele>
        <time>2022-05-21 08:47:44</time>
      </trkpt>
      <trkpt lat="42.1642" lon="3.04791">
        <ele>0.2</ele>
        <time>2022-05-21 08:47:45</time>
      </trkpt>
      <trkpt lat="42.16424" lon="3.048">
        <ele>0.2</ele>
        <time>2022-05-21 08:47:46</time>
      </trkpt>
      <trkpt lat="42.16429" lon="3.04808">
        <ele>0.2</ele>
        <time>2022-05-21 08:47:47</time>
      </trkpt>
      <trkpt lat="42.16433" lon="3.04816">
        <ele>0.2</ele>
        <time>2022-05-21 08:47:48</time>
      </trkpt>
      <trkpt lat="42.16437" lon="3.04825">
        <ele>0.2</ele>
        <time>2022-05-21 08:47:49</time>
      </trkpt>
      <trkpt lat="42.16442" lon="3.04834">
        <ele>0.2</ele>
        <time>2022-05-21 08:47:50</time>
      </trkpt>
      <trkpt lat="42.16446" lon="3.04842">
        <ele>0.2</ele>
        <time>2022-05-21 08:47:51</time>
      </trkpt>
      <trkpt lat="42.1645" lon="3.04851">
        <ele>0.2</ele>
        <time>2022-05-21 08:47:52</time>
      </trkpt>
      <trkpt lat="42.16454" lon="3.0486">
        <ele>0.2</ele>
        <time>2022-05-21 08:47:53</time>
      </trkpt>
      <trkpt lat="42.16459" lon="3.04868">
        <ele>0.2</ele>
        <time>2022-05-21 08:47:54</time>
      </trkpt>
      <trkpt lat="42.16463" lon="3.04877">
        <ele>0.2</ele>
        <time>2022-05-21 08:47:55</time>
      </trkpt>
      <trkpt lat="42.16467" lon="3.04885">
        <ele>0.2</ele>
        <time>2022-05-21 08:47:56</time>
      </trkpt>
      <trkpt lat="42.16472" lon="3.04893">
        <ele>0.2</ele>
        <time>2022-05-21 08:47:57</time>
      </trkpt>
      <trkpt lat="42.16476" lon="3.04901">
        <ele>0.2</ele>
        <time>2022-05-21 08:47:58</time>
      </trkpt>
      <trkpt lat="42.16481" lon="3.0491">
        <ele>0.2</ele>
        <time>2022-05-21 08:47:59</time>
      </trkpt>
      <trkpt lat="42.16485" lon="3.04918">
        <ele>0.2</ele>
        <time>2022-05-21 08:48:00</time>
      </trkpt>
      <trkpt lat="42.16489" lon="3.04926">
        <ele>0.2</ele>
        <time>2022-05-21 08:48:01</time>
      </trkpt>
      <trkpt lat="42.16493" lon="3.04934">
        <ele>0.2</ele>
        <time>2022-05-21 08:48:02</time>
      </trkpt>
      <trkpt lat="42.16497" lon="3.04942">
        <ele>0.2</ele>
        <time>2022-05-21 08:48:03</time>
      </trkpt>
      <trkpt lat="42.16501" lon="3.04951">
        <ele>0.2</ele>
        <time>2022-05-21 08:48:04</time>
      </trkpt>
      <trkpt lat="42.16506" lon="3.04959">
        <time>2022-05-21 08:48:05</time>
      </trkpt>
      <trkpt lat="42.1651" lon="3.04967">
        <time>2022-05-21 08:48:06</time>
      </trkpt>
      <trkpt lat="42.16514" lon="3.04976">
        <time>2022-05-21 08:48:07</time>
      </trkpt>
      <trkpt lat="42.16519" lon="3.04984">
        <time>2022-05-21 08:48:08</time>
      </trkpt>
      <trkpt lat="42.16523" lon="3.04992">
        <time>2022-05-21 08:48:09</time>
      </trkpt>
      <trkpt lat="42.16527" lon="3.05001">
        <time>2022-05-21 08:48:10</time>
      </trkpt>
      <trkpt lat="42.16532" lon="3.05009">
        <time>2022-05-21 08:48:11</time>
      </trkpt>
      <trkpt lat="42.16536" lon="3.05018">
        <ele>-0.2</ele>
        <time>2022-05-21 08:48:12</time>
      </trkpt>
      <trkpt lat="42.1654" lon="3.05026">
        <ele>-0.2</ele>
        <time>2022-05-21 08:48:13</time>
      </trkpt>
      <trkpt lat="42.16545" lon="3.05034">
        <ele>-0.2</ele>
        <time>2022-05-21 08:48:14</time>
      </trkpt>
      <trkpt lat="42.16549" lon="3.05043">
        <ele>-0.2</ele>
        <time>2022-05-21 08:48:15</time>
      </trkpt>
      <trkpt lat="42.16553" lon="3.05051">
        <ele>-0.2</ele>
        <time>2022-05-21 08:48:16</time>
      </trkpt>
      <trkpt lat="42.16558" lon="3.05059">
        <ele>-0.2</ele>
        <time>2022-05-21 08:48:17</time>
      </trkpt>
      <trkpt lat="42.16562" lon="3.05067">
        <ele>-0.2</ele>
        <time>2022-05-21 08:48:18</time>
      </trkpt>
      <trkpt lat="42.16566" lon="3.05076">
        <ele>-0.4</ele>
        <time>2022-05-21 08:48:19</time>
      </trkpt>
      <trkpt lat="42.16571" lon="3.05084">
        <ele>-0.4</ele>
        <time>2022-05-21 08:48:20</time>
      </trkpt>
      <trkpt lat="42.16575" lon="3.05092">
        <ele>-0.2</ele>
        <time>2022-05-21 08:48:21</time>
      </trkpt>
      <trkpt lat="42.16579" lon="3.051">
        <ele>-0.2</ele>
        <time>2022-05-21 08:48:22</time>
      </trkpt>
      <trkpt lat="42.16583" lon="3.05108">
        <ele>-0.2</ele>
        <time>2022-05-21 08:48:23</time>
      </trkpt>
      <trkpt lat="42.16587" lon="3.05116">
        <ele>-0.2</ele>
        <time>2022-05-21 08:48:24</time>
      </trkpt>
      <trkpt lat="42.16591" lon="3.05124">
        <ele>-0.2</ele>
        <time>2022-05-21 08:48:25</time>
      </trkpt>
      <trkpt lat="42.16595" lon="3.05132">
        <time>2022-05-21 08:48:26</time>
      </trkpt>
      <trkpt lat="42.16598" lon="3.0514">
        <time>2022-05-21 08:48:27</time>
      </trkpt>
      <trkpt lat="42.16601" lon="3.05149">
        <time>2022-05-21 08:48:28</time>
      </trkpt>
      <trkpt lat="42.16604" lon="3.05159">
        <time>2022-05-21 08:48:29</time>
      </trkpt>
      <trkpt lat="42.16606" lon="3.05167">
        <time>2022-05-21 08:48:30</time>
      </trkpt>
      <trkpt lat="42.16608" lon="3.05175">
        <ele>0.2</ele>
        <time>2022-05-21 08:48:31</time>
      </trkpt>
      <trkpt lat="42.1661" lon="3.05184">
        <ele>0.2</ele>
        <time>2022-05-21 08:48:32</time>
      </trkpt>
      <trkpt lat="42.16612" lon="3.05194">
        <ele>0.2</ele>
        <time>2022-05-21 08:48:33</time>
      </trkpt>
      <trkpt lat="42.16615" lon="3.05203">
        <ele>0.2</ele>
        <time>2022-05-21 08:48:34</time>
      </trkpt>
      <trkpt lat="42.16617" lon="3.05212">
        <ele>0.2</ele>
        <time>2022-05-21 08:48:35</time>
      </trkpt>
      <trkpt lat="42.16619" lon="3.0522">
        <ele>0.2</ele>
        <time>2022-05-21 08:48:36</time>
      </trkpt>
      <trkpt lat="42.16622" lon="3.05229">
        <ele>0.2</ele>
        <time>2022-05-21 08:48:37</time>
      </trkpt>
      <trkpt lat="42.16624" lon="3.05238">
        <ele>0.2</ele>
        <time>2022-05-21 08:48:38</time>
      </trkpt>
      <trkpt lat="42.16626" lon="3.05247">
        <ele>0.2</ele>
        <time>2022-05-21 08:48:39</time>
      </trkpt>
      <trkpt lat="42.16628" lon="3.05256">
        <ele>0.2</ele>
        <time>2022-05-21 08:48:40</time>
      </trkpt>
      <trkpt lat="42.1663" lon="3.05265">
        <ele>0.2</ele>
        <time>2022-05-21 08:48:41</time>
      </trkpt>
      <trkpt lat="42.16633" lon="3.05273">
        <ele>0.2</ele>
        <time>2022-05-21 08:48:42</time>
      </trkpt>
      <trkpt lat="42.16635" lon="3.05281">
        <time>2022-05-21 08:48:43</time>
      </trkpt>
      <trkpt lat="42.16637" lon="3.0529">
        <time>2022-05-21 08:48:44</time>
      </trkpt>
      <trkpt lat="42.16639" lon="3.05298">
        <time>2022-05-21 08:48:45</time>
      </trkpt>
      <trkpt lat="42.16641" lon="3.05306">
        <time>2022-05-21 08:48:46</time>
      </trkpt>
      <trkpt lat="42.16643" lon="3.05316">
        <ele>-0.2</ele>
        <time>2022-05-21 08:48:47</time>
      </trkpt>
      <trkpt lat="42.16646" lon="3.05325">
        <ele>-0.2</ele>
        <time>2022-05-21 08:48:48</time>
      </trkpt>
      <trkpt lat="42.16648" lon="3.05335">
        <ele>-0.4</ele>
        <time>2022-05-21 08:48:49</time>
      </trkpt>
      <trkpt lat="42.1665" lon="3.05344">
        <ele>-0.4</ele>
        <time>2022-05-21 08:48:50</time>
      </trkpt>
      <trkpt lat="42.16652" lon="3.05354">
        <ele>-0.4</ele>
        <time>2022-05-21 08:48:51</time>
      </trkpt>
      <trkpt lat="42.16654" lon="3.05364">
        <ele>-0.4</ele>
        <time>2022-05-21 08:48:52</time>
      </trkpt>
      <trkpt lat="42.16656" lon="3.05374">
        <ele>-0.6</ele>
        <time>2022-05-21 08:48:53</time>
      </trkpt>
      <trkpt lat="42.16658" lon="3.05384">
        <ele>-0.6</ele>
        <time>2022-05-21 08:48:54</time>
      </trkpt>
      <trkpt lat="42.1666" lon="3.05394">
        <ele>-0.6</ele>
        <time>2022-05-21 08:48:55</time>
      </trkpt>
      <trkpt lat="42.16663" lon="3.05404">
        <ele>-0.6</ele>
        <time>2022-05-21 08:48:56</time>
      </trkpt>
      <trkpt lat="42.16666" lon="3.05413">
        <ele>-0.8</ele>
        <time>2022-05-21 08:48:57</time>
      </trkpt>
      <trkpt lat="42.16669" lon="3.05422">
        <ele>-0.8</ele>
        <time>2022-05-21 08:48:58</time>
      </trkpt>
      <trkpt lat="42.16673" lon="3.0543">
        <ele>-0.6</ele>
        <time>2022-05-21 08:48:59</time>
      </trkpt>
      <trkpt lat="42.16676" lon="3.05439">
        <ele>-0.6</ele>
        <time>2022-05-21 08:49:00</time>
      </trkpt>
      <trkpt lat="42.16681" lon="3.05447">
        <ele>-0.6</ele>
        <time>2022-05-21 08:49:01</time>
      </trkpt>
      <trkpt lat="42.16686" lon="3.05455">
        <ele>-0.4</ele>
        <time>2022-05-21 08:49:02</time>
      </trkpt>
      <trkpt lat="42.1669" lon="3.05462">
        <ele>-0.4</ele>
        <time>2022-05-21 08:49:03</time>
      </trkpt>
      <trkpt lat="42.16695" lon="3.05469">
        <ele>-0.4</ele>
        <time>2022-05-21 08:49:04</time>
      </trkpt>
      <trkpt lat="42.167" lon="3.05476">
        <ele>-0.2</ele>
        <time>2022-05-21 08:49:05</time>
      </trkpt>
      <trkpt lat="42.16704" lon="3.05483">
        <ele>-0.2</ele>
        <time>2022-05-21 08:49:06</time>
      </trkpt>
      <trkpt lat="42.16709" lon="3.05491">
        <ele>-0.4</ele>
        <time>2022-05-21 08:49:07</time>
      </trkpt>
      <trkpt lat="42.16714" lon="3.05498">
        <ele>-0.2</ele>
        <time>2022-05-21 08:49:08</time>
      </trkpt>
      <trkpt lat="42.16719" lon="3.05505">
        <ele>-0.2</ele>
        <time>2022-05-21 08:49:09</time>
      </trkpt>
      <trkpt lat="42.16724" lon="3.05513">
        <ele>-0.2</ele>
        <time>2022-05-21 08:49:10</time>
      </trkpt>
      <trkpt lat="42.16729" lon="3.05521">
        <ele>-0.2</ele>
        <time>2022-05-21 08:49:11</time>
      </trkpt>
      <trkpt lat="42.16734" lon="3.05528">
        <ele>-0.2</ele>
        <time>2022-05-21 08:49:12</time>
      </trkpt>
      <trkpt lat="42.16739" lon="3.05535">
        <ele>-0.2</ele>
        <time>2022-05-21 08:49:13</time>
      </trkpt>
      <trkpt lat="42.16745" lon="3.05543">
        <ele>-0.2</ele>
        <time>2022-05-21 08:49:14</time>
      </trkpt>
      <trkpt lat="42.1675" lon="3.05551">
        <ele>-0.4</ele>
        <time>2022-05-21 08:49:15</time>
      </trkpt>
      <trkpt lat="42.16755" lon="3.05559">
        <ele>-0.6</ele>
        <time>2022-05-21 08:49:16</time>
      </trkpt>
      <trkpt lat="42.1676" lon="3.05566">
        <ele>-0.8</ele>
        <time>2022-05-21 08:49:17</time>
      </trkpt>
      <trkpt lat="42.16766" lon="3.05574">
        <ele>-1</ele>
        <time>2022-05-21 08:49:18</time>
      </trkpt>
      <trkpt lat="42.16771" lon="3.05582">
        <ele>-1.2</ele>
        <time>2022-05-21 08:49:19</time>
      </trkpt>
      <trkpt lat="42.16777" lon="3.0559">
        <ele>-1.4</ele>
        <time>2022-05-21 08:49:20</time>
      </trkpt>
      <trkpt lat="42.16782" lon="3.05598">
        <ele>-1.4</ele>
        <time>2022-05-21 08:49:21</time>
      </trkpt>
      <trkpt lat="42.16787" lon="3.05606">
        <ele>-1.6</ele>
        <time>2022-05-21 08:49:22</time>
      </trkpt>
      <trkpt lat="42.16791" lon="3.05613">
        <ele>-1.6</ele>
        <time>2022-05-21 08:49:23</time>
      </trkpt>
      <trkpt lat="42.16796" lon="3.05621">
        <ele>-1.8</ele>
        <time>2022-05-21 08:49:24</time>
      </trkpt>
      <trkpt lat="42.16801" lon="3.05629">
        <ele>-1.8</ele>
        <time>2022-05-21 08:49:25</time>
      </trkpt>
      <trkpt lat="42.16806" lon="3.05637">
        <ele>-2</ele>
        <time>2022-05-21 08:49:26</time>
      </trkpt>
      <trkpt lat="42.1681" lon="3.05643">
        <ele>-2</ele>
        <time>2022-05-21 08:49:27</time>
      </trkpt>
      <trkpt lat="42.16815" lon="3.0565">
        <ele>-2</ele>
        <time>2022-05-21 08:49:28</time>
      </trkpt>
      <trkpt lat="42.1682" lon="3.05658">
        <ele>-2.2</ele>
        <time>2022-05-21 08:49:29</time>
      </trkpt>
      <trkpt lat="42.16825" lon="3.05666">
        <ele>-2.2</ele>
        <time>2022-05-21 08:49:30</time>
      </trkpt>
      <trkpt lat="42.16831" lon="3.05674">
        <ele>-2.2</ele>
        <time>2022-05-21 08:49:31</time>
      </trkpt>
      <trkpt lat="42.16836" lon="3.05682">
        <ele>-2.2</ele>
        <time>2022-05-21 08:49:32</time>
      </trkpt>
      <trkpt lat="42.1684" lon="3.0569">
        <ele>-2.2</ele>
        <time>2022-05-21 08:49:33</time>
      </trkpt>
      <trkpt lat="42.16846" lon="3.05698">
        <ele>-2.4</ele>
        <time>2022-05-21 08:49:34</time>
      </trkpt>
      <trkpt lat="42.16851" lon="3.05706">
        <ele>-2.4</ele>
        <time>2022-05-21 08:49:35</time>
      </trkpt>
      <trkpt lat="42.16855" lon="3.05714">
        <ele>-2.4</ele>
        <time>2022-05-21 08:49:36</time>
      </trkpt>
      <trkpt lat="42.16859" lon="3.05723">
        <ele>-2.4</ele>
        <time>2022-05-21 08:49:37</time>
      </trkpt>
      <trkpt lat="42.16863" lon="3.05731">
        <ele>-2.6</ele>
        <time>2022-05-21 08:49:38</time>
      </trkpt>
      <trkpt lat="42.16867" lon="3.0574">
        <ele>-2.6</ele>
        <time>2022-05-21 08:49:39</time>
      </trkpt>
      <trkpt lat="42.16871" lon="3.05748">
        <ele>-2.6</ele>
        <time>2022-05-21 08:49:40</time>
      </trkpt>
      <trkpt lat="42.16874" lon="3.05757">
        <ele>-2.6</ele>
        <time>2022-05-21 08:49:41</time>
      </trkpt>
      <trkpt lat="42.16878" lon="3.05767">
        <ele>-2.6</ele>
        <time>2022-05-21 08:49:42</time>
      </trkpt>
      <trkpt lat="42.16881" lon="3.05775">
        <ele>-2.6</ele>
        <time>2022-05-21 08:49:43</time>
      </trkpt>
      <trkpt lat="42.16883" lon="3.05785">
        <ele>-2.6</ele>
        <time>2022-05-21 08:49:44</time>
      </trkpt>
      <trkpt lat="42.16886" lon="3.05794">
        <ele>-2.6</ele>
        <time>2022-05-21 08:49:45</time>
      </trkpt>
      <trkpt lat="42.16888" lon="3.05804">
        <ele>-2.6</ele>
        <time>2022-05-21 08:49:46</time>
      </trkpt>
      <trkpt lat="42.16891" lon="3.05813">
        <ele>-2.6</ele>
        <time>2022-05-21 08:49:47</time>
      </trkpt>
      <trkpt lat="42.16893" lon="3.05823">
        <ele>-2.6</ele>
        <time>2022-05-21 08:49:48</time>
      </trkpt>
      <trkpt lat="42.16896" lon="3.05832">
        <ele>-2.6</ele>
        <time>2022-05-21 08:49:49</time>
      </trkpt>
      <trkpt lat="42.16898" lon="3.05841">
        <ele>-2.6</ele>
        <time>2022-05-21 08:49:50</time>
      </trkpt>
      <trkpt lat="42.169" lon="3.05851">
        <ele>-2.6</ele>
        <time>2022-05-21 08:49:51</time>
      </trkpt>
      <trkpt lat="42.16903" lon="3.0586">
        <ele>-2.6</ele>
        <time>2022-05-21 08:49:52</time>
      </trkpt>
      <trkpt lat="42.16905" lon="3.0587">
        <ele>-2.6</ele>
        <time>2022-05-21 08:49:53</time>
      </trkpt>
      <trkpt lat="42.16908" lon="3.05879">
        <ele>-2.6</ele>
        <time>2022-05-21 08:49:54</time>
      </trkpt>
      <trkpt lat="42.16911" lon="3.05888">
        <ele>-2.6</ele>
        <time>2022-05-21 08:49:55</time>
      </trkpt>
      <trkpt lat="42.16914" lon="3.05898">
        <ele>-2.6</ele>
        <time>2022-05-21 08:49:56</time>
      </trkpt>
      <trkpt lat="42.16916" lon="3.05907">
        <ele>-2.6</ele>
        <time>2022-05-21 08:49:57</time>
      </trkpt>
      <trkpt lat="42.1692" lon="3.05917">
        <ele>-2.6</ele>
        <time>2022-05-21 08:49:58</time>
      </trkpt>
      <trkpt lat="42.16923" lon="3.05926">
        <ele>-2.6</ele>
        <time>2022-05-21 08:49:59</time>
      </trkpt>
      <trkpt lat="42.16926" lon="3.05935">
        <ele>-2.6</ele>
        <time>2022-05-21 08:50:00</time>
      </trkpt>
      <trkpt lat="42.16929" lon="3.05945">
        <ele>-2.8</ele>
        <time>2022-05-21 08:50:01</time>
      </trkpt>
      <trkpt lat="42.16932" lon="3.05952">
        <ele>-2.8</ele>
        <time>2022-05-21 08:50:02</time>
      </trkpt>
      <trkpt lat="42.16935" lon="3.05961">
        <ele>-2.8</ele>
        <time>2022-05-21 08:50:03</time>
      </trkpt>
      <trkpt lat="42.16939" lon="3.05971">
        <ele>-2.8</ele>
        <time>2022-05-21 08:50:04</time>
      </trkpt>
      <trkpt lat="42.16942" lon="3.0598">
        <ele>-2.6</ele>
        <time>2022-05-21 08:50:05</time>
      </trkpt>
      <trkpt lat="42.16945" lon="3.05989">
        <ele>-2.6</ele>
        <time>2022-05-21 08:50:06</time>
      </trkpt>
      <trkpt lat="42.16949" lon="3.05998">
        <ele>-2.8</ele>
        <time>2022-05-21 08:50:07</time>
      </trkpt>
      <trkpt lat="42.16952" lon="3.06007">
        <ele>-2.8</ele>
        <time>2022-05-21 08:50:08</time>
      </trkpt>
      <trkpt lat="42.16955" lon="3.06016">
        <ele>-2.6</ele>
        <time>2022-05-21 08:50:09</time>
      </trkpt>
      <trkpt lat="42.16959" lon="3.06024">
        <ele>-2.6</ele>
        <time>2022-05-21 08:50:10</time>
      </trkpt>
      <trkpt lat="42.16962" lon="3.06032">
        <ele>-2.6</ele>
        <time>2022-05-21 08:50:11</time>
      </trkpt>
      <trkpt lat="42.16966" lon="3.0604">
        <ele>-2.6</ele>
        <time>2022-05-21 08:50:12</time>
      </trkpt>
      <trkpt lat="42.1697" lon="3.06048">
        <ele>-2.6</ele>
        <time>2022-05-21 08:50:13</time>
      </trkpt>
      <trkpt lat="42.16973" lon="3.06056">
        <ele>-2.8</ele>
        <time>2022-05-21 08:50:14</time>
      </trkpt>
      <trkpt lat="42.16977" lon="3.06063">
        <ele>-2.8</ele>
        <time>2022-05-21 08:50:15</time>
      </trkpt>
      <trkpt lat="42.16981" lon="3.06072">
        <ele>-2.6</ele>
        <time>2022-05-21 08:50:16</time>
      </trkpt>
      <trkpt lat="42.16985" lon="3.06081">
        <ele>-2.6</ele>
        <time>2022-05-21 08:50:17</time>
      </trkpt>
      <trkpt lat="42.16989" lon="3.0609">
        <ele>-2.6</ele>
        <time>2022-05-21 08:50:18</time>
      </trkpt>
      <trkpt lat="42.16993" lon="3.06098">
        <ele>-2.6</ele>
        <time>2022-05-21 08:50:19</time>
      </trkpt>
      <trkpt lat="42.16996" lon="3.06108">
        <ele>-2.6</ele>
        <time>2022-05-21 08:50:20</time>
      </trkpt>
      <trkpt lat="42.16999" lon="3.06116">
        <ele>-2.8</ele>
        <time>2022-05-21 08:50:21</time>
      </trkpt>
      <trkpt lat="42.17002" lon="3.06125">
        <ele>-2.8</ele>
        <time>2022-05-21 08:50:22</time>
      </trkpt>
      <trkpt lat="42.17006" lon="3.06133">
        <ele>-2.8</ele>
        <time>2022-05-21 08:50:23</time>
      </trkpt>
      <trkpt lat="42.17009" lon="3.06142">
        <ele>-2.8</ele>
        <time>2022-05-21 08:50:24</time>
      </trkpt>
      <trkpt lat="42.17013" lon="3.0615">
        <ele>-2.8</ele>
        <time>2022-05-21 08:50:25</time>
      </trkpt>
      <trkpt lat="42.17017" lon="3.06158">
        <ele>-2.8</ele>
        <time>2022-05-21 08:50:26</time>
      </trkpt>
      <trkpt lat="42.17021" lon="3.06168">
        <ele>-2.6</ele>
        <time>2022-05-21 08:50:27</time>
      </trkpt>
      <trkpt lat="42.17024" lon="3.06176">
        <ele>-2.6</ele>
        <time>2022-05-21 08:50:28</time>
      </trkpt>
      <trkpt lat="42.17028" lon="3.06184">
        <ele>-2.6</ele>
        <time>2022-05-21 08:50:29</time>
      </trkpt>
      <trkpt lat="42.17031" lon="3.06193">
        <ele>-2.6</ele>
        <time>2022-05-21 08:50:30</time>
      </trkpt>
      <trkpt lat="42.17034" lon="3.06201">
        <ele>-2.6</ele>
        <time>2022-05-21 08:50:31</time>
      </trkpt>
      <trkpt lat="42.17038" lon="3.06209">
        <ele>-2.6</ele>
        <time>2022-05-21 08:50:32</time>
      </trkpt>
      <trkpt lat="42.17041" lon="3.06218">
        <ele>-2.6</ele>
        <time>2022-05-21 08:50:33</time>
      </trkpt>
      <trkpt lat="42.17045" lon="3.06225">
        <ele>-2.6</ele>
        <time>2022-05-21 08:50:34</time>
      </trkpt>
      <trkpt lat="42.17048" lon="3.06233">
        <ele>-2.6</ele>
        <time>2022-05-21 08:50:35</time>
      </trkpt>
      <trkpt lat="42.17052" lon="3.06241">
        <ele>-2.6</ele>
        <time>2022-05-21 08:50:36</time>
      </trkpt>
      <trkpt lat="42.17055" lon="3.06249">
        <ele>-2.6</ele>
        <time>2022-05-21 08:50:37</time>
      </trkpt>
      <trkpt lat="42.17058" lon="3.06257">
        <ele>-2.6</ele>
        <time>2022-05-21 08:50:38</time>
      </trkpt>
      <trkpt lat="42.1706" lon="3.06266">
        <ele>-2.6</ele>
        <time>2022-05-21 08:50:39</time>
      </trkpt>
      <trkpt lat="42.17061" lon="3.06276">
        <ele>-2.6</ele>
        <time>2022-05-21 08:50:40</time>
      </trkpt>
      <trkpt lat="42.17062" lon="3.06285">
        <ele>-2.6</ele>
        <time>2022-05-21 08:50:41</time>
      </trkpt>
      <trkpt lat="42.17062" lon="3.06294">
        <ele>-2.6</ele>
        <time>2022-05-21 08:50:42</time>
      </trkpt>
      <trkpt lat="42.17063" lon="3.06304">
        <ele>-2.6</ele>
        <time>2022-05-21 08:50:43</time>
      </trkpt>
      <trkpt lat="42.17065" lon="3.06313">
        <ele>-2.6</ele>
        <time>2022-05-21 08:50:44</time>
      </trkpt>
      <trkpt lat="42.17067" lon="3.06323">
        <ele>-2.6</ele>
        <time>2022-05-21 08:50:45</time>
      </trkpt>
      <trkpt lat="42.17069" lon="3.06332">
        <ele>-2.6</ele>
        <time>2022-05-21 08:50:46</time>
      </trkpt>
      <trkpt lat="42.17071" lon="3.06341">
        <ele>-2.8</ele>
        <time>2022-05-21 08:50:47</time>
      </trkpt>
      <trkpt lat="42.17073" lon="3.0635">
        <ele>-2.8</ele>
        <time>2022-05-21 08:50:48</time>
      </trkpt>
      <trkpt lat="42.17075" lon="3.06359">
        <ele>-2.8</ele>
        <time>2022-05-21 08:50:49</time>
      </trkpt>
      <trkpt lat="42.17077" lon="3.06368">
        <ele>-2.8</ele>
        <time>2022-05-21 08:50:50</time>
      </trkpt>
      <trkpt lat="42.17079" lon="3.06376">
        <ele>-2.8</ele>
        <time>2022-05-21 08:50:51</time>
      </trkpt>
      <trkpt lat="42.1708" lon="3.06385">
        <ele>-2.6</ele>
        <time>2022-05-21 08:50:52</time>
      </trkpt>
      <trkpt lat="42.17081" lon="3.06394">
        <ele>-2.6</ele>
        <time>2022-05-21 08:50:53</time>
      </trkpt>
      <trkpt lat="42.17081" lon="3.06403">
        <ele>-2.6</ele>
        <time>2022-05-21 08:50:54</time>
      </trkpt>
      <trkpt lat="42.17082" lon="3.06413">
        <ele>-2.6</ele>
        <time>2022-05-21 08:50:55</time>
      </trkpt>
      <trkpt lat="42.17083" lon="3.06422">
        <ele>-2.8</ele>
        <time>2022-05-21 08:50:56</time>
      </trkpt>
      <trkpt lat="42.17083" lon="3.06431">
        <ele>-2.8</ele>
        <time>2022-05-21 08:50:57</time>
      </trkpt>
      <trkpt lat="42.17084" lon="3.06441">
        <ele>-3</ele>
        <time>2022-05-21 08:50:58</time>
      </trkpt>
      <trkpt lat="42.17085" lon="3.06452">
        <ele>-3</ele>
        <time>2022-05-21 08:50:59</time>
      </trkpt>
      <trkpt lat="42.17085" lon="3.06462">
        <ele>-3</ele>
        <time>2022-05-21 08:51:00</time>
      </trkpt>
      <trkpt lat="42.17086" lon="3.06472">
        <ele>-3</ele>
        <time>2022-05-21 08:51:01</time>
      </trkpt>
      <trkpt lat="42.17087" lon="3.06482">
        <ele>-3</ele>
        <time>2022-05-21 08:51:02</time>
      </trkpt>
      <trkpt lat="42.17087" lon="3.06492">
        <ele>-3.2</ele>
        <time>2022-05-21 08:51:03</time>
      </trkpt>
      <trkpt lat="42.17088" lon="3.06502">
        <ele>-3.2</ele>
        <time>2022-05-21 08:51:04</time>
      </trkpt>
      <trkpt lat="42.17088" lon="3.06512">
        <ele>-3.2</ele>
        <time>2022-05-21 08:51:05</time>
      </trkpt>
      <trkpt lat="42.17089" lon="3.06522">
        <ele>-3.2</ele>
        <time>2022-05-21 08:51:06</time>
      </trkpt>
      <trkpt lat="42.1709" lon="3.06533">
        <ele>-3.2</ele>
        <time>2022-05-21 08:51:07</time>
      </trkpt>
      <trkpt lat="42.17091" lon="3.06543">
        <ele>-3.2</ele>
        <time>2022-05-21 08:51:08</time>
      </trkpt>
      <trkpt lat="42.17092" lon="3.06553">
        <ele>-3.2</ele>
        <time>2022-05-21 08:51:09</time>
      </trkpt>
      <trkpt lat="42.17092" lon="3.06563">
        <ele>-3.2</ele>
        <time>2022-05-21 08:51:10</time>
      </trkpt>
      <trkpt lat="42.17093" lon="3.06572">
        <ele>-3.2</ele>
        <time>2022-05-21 08:51:11</time>
      </trkpt>
      <trkpt lat="42.17094" lon="3.06582">
        <ele>-3.2</ele>
        <time>2022-05-21 08:51:12</time>
      </trkpt>
      <trkpt lat="42.17095" lon="3.06593">
        <ele>-3.2</ele>
        <time>2022-05-21 08:51:13</time>
      </trkpt>
      <trkpt lat="42.17095" lon="3.06603">
        <ele>-3.2</ele>
        <time>2022-05-21 08:51:14</time>
      </trkpt>
      <trkpt lat="42.17096" lon="3.06613">
        <ele>-3.2</ele>
        <time>2022-05-21 08:51:15</time>
      </trkpt>
      <trkpt lat="42.17096" lon="3.06624">
        <ele>-3.2</ele>
        <time>2022-05-21 08:51:16</time>
      </trkpt>
      <trkpt lat="42.17096" lon="3.06635">
        <ele>-3.2</ele>
        <time>2022-05-21 08:51:17</time>
      </trkpt>
      <trkpt lat="42.17096" lon="3.06645">
        <ele>-3.4</ele>
        <time>2022-05-21 08:51:18</time>
      </trkpt>
      <trkpt lat="42.17096" lon="3.06656">
        <ele>-3.4</ele>
        <time>2022-05-21 08:51:19</time>
      </trkpt>
      <trkpt lat="42.17095" lon="3.06666">
        <ele>-3.4</ele>
        <time>2022-05-21 08:51:20</time>
      </trkpt>
      <trkpt lat="42.17094" lon="3.06676">
        <ele>-3.4</ele>
        <time>2022-05-21 08:51:21</time>
      </trkpt>
      <trkpt lat="42.17094" lon="3.06687">
        <ele>-3.6</ele>
        <time>2022-05-21 08:51:22</time>
      </trkpt>
      <trkpt lat="42.17093" lon="3.06698">
        <ele>-3.6</ele>
        <time>2022-05-21 08:51:23</time>
      </trkpt>
      <trkpt lat="42.17092" lon="3.06708">
        <ele>-3.6</ele>
        <time>2022-05-21 08:51:24</time>
      </trkpt>
      <trkpt lat="42.17091" lon="3.06718">
        <ele>-3.4</ele>
        <time>2022-05-21 08:51:25</time>
      </trkpt>
      <trkpt lat="42.17091" lon="3.06728">
        <ele>-3.4</ele>
        <time>2022-05-21 08:51:26</time>
      </trkpt>
      <trkpt lat="42.1709" lon="3.06739">
        <ele>-3.4</ele>
        <time>2022-05-21 08:51:27</time>
      </trkpt>
      <trkpt lat="42.17089" lon="3.06749">
        <ele>-3.4</ele>
        <time>2022-05-21 08:51:28</time>
      </trkpt>
      <trkpt lat="42.17089" lon="3.06759">
        <ele>-3.4</ele>
        <time>2022-05-21 08:51:29</time>
      </trkpt>
      <trkpt lat="42.17088" lon="3.06769">
        <ele>-3.4</ele>
        <time>2022-05-21 08:51:30</time>
      </trkpt>
      <trkpt lat="42.17087" lon="3.06778">
        <ele>-3.4</ele>
        <time>2022-05-21 08:51:31</time>
      </trkpt>
      <trkpt lat="42.17086" lon="3.06788">
        <ele>-3.4</ele>
        <time>2022-05-21 08:51:32</time>
      </trkpt>
      <trkpt lat="42.17086" lon="3.06798">
        <ele>-3.2</ele>
        <time>2022-05-21 08:51:33</time>
      </trkpt>
      <trkpt lat="42.17085" lon="3.06808">
        <ele>-3.2</ele>
        <time>2022-05-21 08:51:34</time>
      </trkpt>
      <trkpt lat="42.17084" lon="3.06818">
        <ele>-3.2</ele>
        <time>2022-05-21 08:51:35</time>
      </trkpt>
      <trkpt lat="42.17084" lon="3.06827">
        <ele>-3.2</ele>
        <time>2022-05-21 08:51:36</time>
      </trkpt>
      <trkpt lat="42.17083" lon="3.06837">
        <ele>-3.2</ele>
        <time>2022-05-21 08:51:37</time>
      </trkpt>
      <trkpt lat="42.17082" lon="3.06847">
        <ele>-3.2</ele>
        <time>2022-05-21 08:51:38</time>
      </trkpt>
      <trkpt lat="42.17081" lon="3.06857">
        <ele>-3.2</ele>
        <time>2022-05-21 08:51:39</time>
      </trkpt>
      <trkpt lat="42.1708" lon="3.06867">
        <ele>-3.2</ele>
        <time>2022-05-21 08:51:40</time>
      </trkpt>
      <trkpt lat="42.17078" lon="3.06876">
        <ele>-3.2</ele>
        <time>2022-05-21 08:51:41</time>
      </trkpt>
      <trkpt lat="42.17076" lon="3.06886">
        <ele>-3.2</ele>
        <time>2022-05-21 08:51:42</time>
      </trkpt>
      <trkpt lat="42.17072" lon="3.06895">
        <ele>-3.2</ele>
        <time>2022-05-21 08:51:43</time>
      </trkpt>
      <trkpt lat="42.17068" lon="3.06902">
        <ele>-3.2</ele>
        <time>2022-05-21 08:51:44</time>
      </trkpt>
      <trkpt lat="42.17062" lon="3.06909">
        <ele>-3.2</ele>
        <time>2022-05-21 08:51:45</time>
      </trkpt>
      <trkpt lat="42.17055" lon="3.06915">
        <ele>-3.2</ele>
        <time>2022-05-21 08:51:46</time>
      </trkpt>
      <trkpt lat="42.17048" lon="3.0692">
        <ele>-3.4</ele>
        <time>2022-05-21 08:51:47</time>
      </trkpt>
      <trkpt lat="42.17041" lon="3.06926">
        <ele>-3.4</ele>
        <time>2022-05-21 08:51:48</time>
      </trkpt>
      <trkpt lat="42.17034" lon="3.06931">
        <ele>-3.4</ele>
        <time>2022-05-21 08:51:49</time>
      </trkpt>
      <trkpt lat="42.17027" lon="3.06936">
        <ele>-3.4</ele>
        <time>2022-05-21 08:51:50</time>
      </trkpt>
      <trkpt lat="42.1702" lon="3.06941">
        <ele>-3.4</ele>
        <time>2022-05-21 08:51:51</time>
      </trkpt>
      <trkpt lat="42.17013" lon="3.06947">
        <ele>-3.4</ele>
        <time>2022-05-21 08:51:52</time>
      </trkpt>
      <trkpt lat="42.17008" lon="3.06952">
        <ele>-3.4</ele>
        <time>2022-05-21 08:51:53</time>
      </trkpt>
      <trkpt lat="42.17002" lon="3.0696">
        <ele>-3.4</ele>
        <time>2022-05-21 08:51:54</time>
      </trkpt>
      <trkpt lat="42.16998" lon="3.06969">
        <ele>-3.4</ele>
        <time>2022-05-21 08:51:55</time>
      </trkpt>
      <trkpt lat="42.16996" lon="3.06979">
        <ele>-3.4</ele>
        <time>2022-05-21 08:51:56</time>
      </trkpt>
      <trkpt lat="42.16996" lon="3.06989">
        <ele>-3.6</ele>
        <time>2022-05-21 08:51:57</time>
      </trkpt>
      <trkpt lat="42.16998" lon="3.07">
        <ele>-3.6</ele>
        <time>2022-05-21 08:51:58</time>
      </trkpt>
      <trkpt lat="42.17" lon="3.0701">
        <ele>-3.6</ele>
        <time>2022-05-21 08:51:59</time>
      </trkpt>
      <trkpt lat="42.17004" lon="3.0702">
        <ele>-3.6</ele>
        <time>2022-05-21 08:52:00</time>
      </trkpt>
      <trkpt lat="42.17007" lon="3.0703">
        <ele>-3.6</ele>
        <time>2022-05-21 08:52:01</time>
      </trkpt>
      <trkpt lat="42.1701" lon="3.0704">
        <ele>-3.8</ele>
        <time>2022-05-21 08:52:02</time>
      </trkpt>
      <trkpt lat="42.17013" lon="3.0705">
        <ele>-3.8</ele>
        <time>2022-05-21 08:52:03</time>
      </trkpt>
      <trkpt lat="42.17016" lon="3.0706">
        <ele>-3.8</ele>
        <time>2022-05-21 08:52:04</time>
      </trkpt>
      <trkpt lat="42.17019" lon="3.07069">
        <ele>-3.8</ele>
        <time>2022-05-21 08:52:05</time>
      </trkpt>
      <trkpt lat="42.17022" lon="3.07078">
        <ele>-3.8</ele>
        <time>2022-05-21 08:52:06</time>
      </trkpt>
      <trkpt lat="42.17026" lon="3.07086">
        <ele>-3.8</ele>
        <time>2022-05-21 08:52:07</time>
      </trkpt>
      <trkpt lat="42.1703" lon="3.07095">
        <ele>-3.8</ele>
        <time>2022-05-21 08:52:08</time>
      </trkpt>
      <trkpt lat="42.17034" lon="3.07104">
        <ele>-3.8</ele>
        <time>2022-05-21 08:52:09</time>
      </trkpt>
      <trkpt lat="42.17038" lon="3.07112">
        <ele>-3.8</ele>
        <time>2022-05-21 08:52:10</time>
      </trkpt>
      <trkpt lat="42.17042" lon="3.07121">
        <ele>-3.8</ele>
        <time>2022-05-21 08:52:11</time>
      </trkpt>
      <trkpt lat="42.17047" lon="3.07129">
        <ele>-4</ele>
        <time>2022-05-21 08:52:12</time>
      </trkpt>
      <trkpt lat="42.17051" lon="3.07137">
        <ele>-4</ele>
        <time>2022-05-21 08:52:13</time>
      </trkpt>
      <trkpt lat="42.17055" lon="3.07146">
        <ele>-4</ele>
        <time>2022-05-21 08:52:14</time>
      </trkpt>
      <trkpt lat="42.1706" lon="3.07153">
        <ele>-3.8</ele>
        <time>2022-05-21 08:52:15</time>
      </trkpt>
      <trkpt lat="42.17065" lon="3.07161">
        <ele>-3.8</ele>
        <time>2022-05-21 08:52:16</time>
      </trkpt>
      <trkpt lat="42.17069" lon="3.07168">
        <ele>-3.6</ele>
        <time>2022-05-21 08:52:17</time>
      </trkpt>
      <trkpt lat="42.17074" lon="3.07175">
        <ele>-3.6</ele>
        <time>2022-05-21 08:52:18</time>
      </trkpt>
      <trkpt lat="42.1708" lon="3.0718">
        <ele>-3.4</ele>
        <time>2022-05-21 08:52:19</time>
      </trkpt>
      <trkpt lat="42.17085" lon="3.07185">
        <ele>-3.2</ele>
        <time>2022-05-21 08:52:20</time>
      </trkpt>
      <trkpt lat="42.17092" lon="3.07189">
        <ele>-3.2</ele>
        <time>2022-05-21 08:52:21</time>
      </trkpt>
      <trkpt lat="42.17098" lon="3.07193">
        <ele>-3.2</ele>
        <time>2022-05-21 08:52:22</time>
      </trkpt>
      <trkpt lat="42.17105" lon="3.07196">
        <ele>-3</ele>
        <time>2022-05-21 08:52:23</time>
      </trkpt>
      <trkpt lat="42.17112" lon="3.07198">
        <ele>-3</ele>
        <time>2022-05-21 08:52:24</time>
      </trkpt>
      <trkpt lat="42.17119" lon="3.072">
        <ele>-3</ele>
        <time>2022-05-21 08:52:25</time>
      </trkpt>
      <trkpt lat="42.17126" lon="3.07202">
        <ele>-3</ele>
        <time>2022-05-21 08:52:26</time>
      </trkpt>
      <trkpt lat="42.17133" lon="3.07202">
        <ele>-3</ele>
        <time>2022-05-21 08:52:27</time>
      </trkpt>
      <trkpt lat="42.1714" lon="3.07203">
        <ele>-3</ele>
        <time>2022-05-21 08:52:28</time>
      </trkpt>
      <trkpt lat="42.17147" lon="3.07205">
        <ele>-3</ele>
        <time>2022-05-21 08:52:29</time>
      </trkpt>
      <trkpt lat="42.17154" lon="3.07208">
        <ele>-3</ele>
        <time>2022-05-21 08:52:30</time>
      </trkpt>
      <trkpt lat="42.17161" lon="3.07212">
        <ele>-3</ele>
        <time>2022-05-21 08:52:31</time>
      </trkpt>
      <trkpt lat="42.17166" lon="3.07218">
        <ele>-3.2</ele>
        <time>2022-05-21 08:52:32</time>
      </trkpt>
      <trkpt lat="42.1717" lon="3.07224">
        <ele>-3.2</ele>
        <time>2022-05-21 08:52:33</time>
      </trkpt>
      <trkpt lat="42.17174" lon="3.07232">
        <ele>-3.2</ele>
        <time>2022-05-21 08:52:34</time>
      </trkpt>
      <trkpt lat="42.17178" lon="3.07241">
        <ele>-3.2</ele>
        <time>2022-05-21 08:52:35</time>
      </trkpt>
      <trkpt lat="42.17182" lon="3.0725">
        <ele>-3.2</ele>
        <time>2022-05-21 08:52:36</time>
      </trkpt>
      <trkpt lat="42.17185" lon="3.07258">
        <ele>-3.2</ele>
        <time>2022-05-21 08:52:37</time>
      </trkpt>
      <trkpt lat="42.17188" lon="3.07267">
        <ele>-3.2</ele>
        <time>2022-05-21 08:52:38</time>
      </trkpt>
      <trkpt lat="42.17192" lon="3.07276">
        <ele>-3.2</ele>
        <time>2022-05-21 08:52:39</time>
      </trkpt>
      <trkpt lat="42.17195" lon="3.07284">
        <ele>-3.2</ele>
        <time>2022-05-21 08:52:40</time>
      </trkpt>
      <trkpt lat="42.17198" lon="3.07293">
        <ele>-3.2</ele>
        <time>2022-05-21 08:52:41</time>
      </trkpt>
      <trkpt lat="42.17202" lon="3.07301">
        <ele>-3.2</ele>
        <time>2022-05-21 08:52:42</time>
      </trkpt>
      <trkpt lat="42.17205" lon="3.0731">
        <ele>-3.2</ele>
        <time>2022-05-21 08:52:43</time>
      </trkpt>
      <trkpt lat="42.17209" lon="3.07318">
        <ele>-3.2</ele>
        <time>2022-05-21 08:52:44</time>
      </trkpt>
      <trkpt lat="42.17213" lon="3.07326">
        <ele>-3.2</ele>
        <time>2022-05-21 08:52:45</time>
      </trkpt>
      <trkpt lat="42.17216" lon="3.07334">
        <ele>-3.2</ele>
        <time>2022-05-21 08:52:46</time>
      </trkpt>
      <trkpt lat="42.1722" lon="3.07342">
        <ele>-3.2</ele>
        <time>2022-05-21 08:52:47</time>
      </trkpt>
      <trkpt lat="42.17223" lon="3.07349">
        <ele>-3.2</ele>
        <time>2022-05-21 08:52:48</time>
      </trkpt>
      <trkpt lat="42.17227" lon="3.07357">
        <ele>-3.2</ele>
        <time>2022-05-21 08:52:49</time>
      </trkpt>
      <trkpt lat="42.17231" lon="3.07366">
        <ele>-3.2</ele>
        <time>2022-05-21 08:52:50</time>
      </trkpt>
      <trkpt lat="42.17235" lon="3.07374">
        <ele>-3.2</ele>
        <time>2022-05-21 08:52:51</time>
      </trkpt>
      <trkpt lat="42.17239" lon="3.07382">
        <ele>-3.2</ele>
        <time>2022-05-21 08:52:52</time>
      </trkpt>
      <trkpt lat="42.17242" lon="3.07389">
        <ele>-3.2</ele>
        <time>2022-05-21 08:52:53</time>
      </trkpt>
      <trkpt lat="42.17246" lon="3.07396">
        <ele>-3.2</ele>
        <time>2022-05-21 08:52:54</time>
      </trkpt>
      <trkpt lat="42.1725" lon="3.07403">
        <ele>-3.2</ele>
        <time>2022-05-21 08:52:55</time>
      </trkpt>
      <trkpt lat="42.17254" lon="3.0741">
        <ele>-3.2</ele>
        <time>2022-05-21 08:52:56</time>
      </trkpt>
      <trkpt lat="42.1726" lon="3.07416">
        <ele>-3.4</ele>
        <time>2022-05-21 08:52:57</time>
      </trkpt>
      <trkpt lat="42.17266" lon="3.07422">
        <ele>-3.4</ele>
        <time>2022-05-21 08:52:58</time>
      </trkpt>
      <trkpt lat="42.17271" lon="3.07428">
        <ele>-3.4</ele>
        <time>2022-05-21 08:52:59</time>
      </trkpt>
      <trkpt lat="42.17276" lon="3.07433">
        <ele>-3.4</ele>
        <time>2022-05-21 08:53:00</time>
      </trkpt>
      <trkpt lat="42.17281" lon="3.07438">
        <ele>-3.4</ele>
        <time>2022-05-21 08:53:01</time>
      </trkpt>
      <trkpt lat="42.17287" lon="3.07444">
        <ele>-3.4</ele>
        <time>2022-05-21 08:53:02</time>
      </trkpt>
      <trkpt lat="42.17293" lon="3.07449">
        <ele>-3.6</ele>
        <time>2022-05-21 08:53:03</time>
      </trkpt>
      <trkpt lat="42.173" lon="3.07454">
        <ele>-3.6</ele>
        <time>2022-05-21 08:53:04</time>
      </trkpt>
      <trkpt lat="42.17306" lon="3.07459">
        <ele>-3.6</ele>
        <time>2022-05-21 08:53:05</time>
      </trkpt>
      <trkpt lat="42.17312" lon="3.07464">
        <ele>-3.6</ele>
        <time>2022-05-21 08:53:06</time>
      </trkpt>
      <trkpt lat="42.17318" lon="3.07469">
        <ele>-3.6</ele>
        <time>2022-05-21 08:53:07</time>
      </trkpt>
      <trkpt lat="42.17325" lon="3.07473">
        <ele>-3.8</ele>
        <time>2022-05-21 08:53:08</time>
      </trkpt>
      <trkpt lat="42.17331" lon="3.07477">
        <ele>-3.8</ele>
        <time>2022-05-21 08:53:09</time>
      </trkpt>
      <trkpt lat="42.17338" lon="3.07482">
        <ele>-3.8</ele>
        <time>2022-05-21 08:53:10</time>
      </trkpt>
      <trkpt lat="42.17344" lon="3.07486">
        <ele>-3.6</ele>
        <time>2022-05-21 08:53:11</time>
      </trkpt>
      <trkpt lat="42.17351" lon="3.0749">
        <ele>-3.8</ele>
        <time>2022-05-21 08:53:12</time>
      </trkpt>
      <trkpt lat="42.17357" lon="3.07495">
        <ele>-3.8</ele>
        <time>2022-05-21 08:53:13</time>
      </trkpt>
      <trkpt lat="42.17363" lon="3.075">
        <ele>-3.8</ele>
        <time>2022-05-21 08:53:14</time>
      </trkpt>
      <trkpt lat="42.17368" lon="3.07505">
        <ele>-3.8</ele>
        <time>2022-05-21 08:53:15</time>
      </trkpt>
      <trkpt lat="42.17373" lon="3.07511">
        <ele>-3.8</ele>
        <time>2022-05-21 08:53:16</time>
      </trkpt>
      <trkpt lat="42.17377" lon="3.07519">
        <ele>-3.8</ele>
        <time>2022-05-21 08:53:17</time>
      </trkpt>
      <trkpt lat="42.17379" lon="3.07527">
        <ele>-3.8</ele>
        <time>2022-05-21 08:53:18</time>
      </trkpt>
      <trkpt lat="42.17381" lon="3.07536">
        <ele>-3.6</ele>
        <time>2022-05-21 08:53:19</time>
      </trkpt>
      <trkpt lat="42.17383" lon="3.07545">
        <ele>-3.6</ele>
        <time>2022-05-21 08:53:20</time>
      </trkpt>
      <trkpt lat="42.17385" lon="3.07554">
        <ele>-3.6</ele>
        <time>2022-05-21 08:53:21</time>
      </trkpt>
      <trkpt lat="42.17384" lon="3.07563">
        <ele>-3.6</ele>
        <time>2022-05-21 08:53:22</time>
      </trkpt>
      <trkpt lat="42.17382" lon="3.07571">
        <ele>-3.6</ele>
        <time>2022-05-21 08:53:23</time>
      </trkpt>
      <trkpt lat="42.17378" lon="3.07579">
        <ele>-3.8</ele>
        <time>2022-05-21 08:53:24</time>
      </trkpt>
      <trkpt lat="42.17374" lon="3.07586">
        <ele>-3.8</ele>
        <time>2022-05-21 08:53:25</time>
      </trkpt>
      <trkpt lat="42.17368" lon="3.07593">
        <ele>-3.8</ele>
        <time>2022-05-21 08:53:26</time>
      </trkpt>
      <trkpt lat="42.17362" lon="3.076">
        <ele>-3.8</ele>
        <time>2022-05-21 08:53:27</time>
      </trkpt>
      <trkpt lat="42.17357" lon="3.07608">
        <ele>-3.8</ele>
        <time>2022-05-21 08:53:28</time>
      </trkpt>
      <trkpt lat="42.17354" lon="3.07616">
        <ele>-3.8</ele>
        <time>2022-05-21 08:53:29</time>
      </trkpt>
      <trkpt lat="42.17353" lon="3.07625">
        <ele>-4</ele>
        <time>2022-05-21 08:53:30</time>
      </trkpt>
      <trkpt lat="42.17354" lon="3.07634">
        <ele>-4</ele>
        <time>2022-05-21 08:53:31</time>
      </trkpt>
      <trkpt lat="42.17357" lon="3.07642">
        <ele>-4</ele>
        <time>2022-05-21 08:53:32</time>
      </trkpt>
      <trkpt lat="42.1736" lon="3.0765">
        <ele>-4</ele>
        <time>2022-05-21 08:53:33</time>
      </trkpt>
      <trkpt lat="42.17363" lon="3.07659">
        <ele>-4</ele>
        <time>2022-05-21 08:53:34</time>
      </trkpt>
      <trkpt lat="42.17366" lon="3.07667">
        <ele>-3.8</ele>
        <time>2022-05-21 08:53:35</time>
      </trkpt>
      <trkpt lat="42.17369" lon="3.07675">
        <ele>-3.8</ele>
        <time>2022-05-21 08:53:36</time>
      </trkpt>
      <trkpt lat="42.17372" lon="3.07683">
        <ele>-3.8</ele>
        <time>2022-05-21 08:53:37</time>
      </trkpt>
      <trkpt lat="42.17375" lon="3.07691">
        <ele>-3.6</ele>
        <time>2022-05-21 08:53:38</time>
      </trkpt>
      <trkpt lat="42.17378" lon="3.07698">
        <ele>-3.6</ele>
        <time>2022-05-21 08:53:39</time>
      </trkpt>
      <trkpt lat="42.17381" lon="3.07706">
        <ele>-3.6</ele>
        <time>2022-05-21 08:53:40</time>
      </trkpt>
      <trkpt lat="42.17384" lon="3.07715">
        <ele>-3.6</ele>
        <time>2022-05-21 08:53:41</time>
      </trkpt>
      <trkpt lat="42.17388" lon="3.07724">
        <ele>-3.4</ele>
        <time>2022-05-21 08:53:42</time>
      </trkpt>
      <trkpt lat="42.17391" lon="3.07732">
        <ele>-3.4</ele>
        <time>2022-05-21 08:53:43</time>
      </trkpt>
      <trkpt lat="42.17394" lon="3.07741">
        <ele>-3.4</ele>
        <time>2022-05-21 08:53:44</time>
      </trkpt>
      <trkpt lat="42.17396" lon="3.07749">
        <ele>-3.4</ele>
        <time>2022-05-21 08:53:45</time>
      </trkpt>
      <trkpt lat="42.174" lon="3.07757">
        <ele>-3.2</ele>
        <time>2022-05-21 08:53:46</time>
      </trkpt>
      <trkpt lat="42.17403" lon="3.07765">
        <ele>-3.2</ele>
        <time>2022-05-21 08:53:47</time>
      </trkpt>
      <trkpt lat="42.17406" lon="3.07774">
        <ele>-3.2</ele>
        <time>2022-05-21 08:53:48</time>
      </trkpt>
      <trkpt lat="42.17409" lon="3.07782">
        <ele>-3.2</ele>
        <time>2022-05-21 08:53:49</time>
      </trkpt>
      <trkpt lat="42.17412" lon="3.07791">
        <ele>-3.2</ele>
        <time>2022-05-21 08:53:50</time>
      </trkpt>
      <trkpt lat="42.17416" lon="3.078">
        <ele>-3.2</ele>
        <time>2022-05-21 08:53:51</time>
      </trkpt>
      <trkpt lat="42.17419" lon="3.07808">
        <ele>-3.2</ele>
        <time>2022-05-21 08:53:52</time>
      </trkpt>
      <trkpt lat="42.17422" lon="3.07817">
        <ele>-3.2</ele>
        <time>2022-05-21 08:53:53</time>
      </trkpt>
      <trkpt lat="42.17425" lon="3.07825">
        <ele>-3.2</ele>
        <time>2022-05-21 08:53:54</time>
      </trkpt>
      <trkpt lat="42.17428" lon="3.07834">
        <ele>-3.2</ele>
        <time>2022-05-21 08:53:55</time>
      </trkpt>
      <trkpt lat="42.17431" lon="3.07843">
        <ele>-3.2</ele>
        <time>2022-05-21 08:53:56</time>
      </trkpt>
      <trkpt lat="42.17435" lon="3.07851">
        <ele>-3.2</ele>
        <time>2022-05-21 08:53:57</time>
      </trkpt>
      <trkpt lat="42.17438" lon="3.0786">
        <ele>-3.2</ele>
        <time>2022-05-21 08:53:58</time>
      </trkpt>
      <trkpt lat="42.17442" lon="3.07869">
        <ele>-3.2</ele>
        <time>2022-05-21 08:53:59</time>
      </trkpt>
      <trkpt lat="42.17445" lon="3.07877">
        <ele>-3.2</ele>
        <time>2022-05-21 08:54:00</time>
      </trkpt>
      <trkpt lat="42.17448" lon="3.07886">
        <ele>-3.2</ele>
        <time>2022-05-21 08:54:01</time>
      </trkpt>
      <trkpt lat="42.17452" lon="3.07895">
        <ele>-3.2</ele>
        <time>2022-05-21 08:54:02</time>
      </trkpt>
      <trkpt lat="42.17455" lon="3.07905">
        <ele>-3.2</ele>
        <time>2022-05-21 08:54:03</time>
      </trkpt>
      <trkpt lat="42.17455" lon="3.07905">
        <ele>-3.2</ele>
        <time>2022-05-21 08:54:04</time>
      </trkpt>
      <trkpt lat="42.17991" lon="3.0847">
        <ele>-3.8</ele>
        <time>2022-05-21 08:57:30</time>
      </trkpt>
      <trkpt lat="42.17998" lon="3.08473">
        <ele>-3.8</ele>
        <time>2022-05-21 08:57:31</time>
      </trkpt>
      <trkpt lat="42.18004" lon="3.08475">
        <ele>-3.8</ele>
        <time>2022-05-21 08:57:32</time>
      </trkpt>
      <trkpt lat="42.18011" lon="3.08477">
        <ele>-3.8</ele>
        <time>2022-05-21 08:57:33</time>
      </trkpt>
      <trkpt lat="42.18017" lon="3.08479">
        <ele>-3.8</ele>
        <time>2022-05-21 08:57:34</time>
      </trkpt>
      <trkpt lat="42.18024" lon="3.08481">
        <ele>-3.8</ele>
        <time>2022-05-21 08:57:35</time>
      </trkpt>
      <trkpt lat="42.18031" lon="3.08483">
        <ele>-3.8</ele>
        <time>2022-05-21 08:57:36</time>
      </trkpt>
      <trkpt lat="42.18038" lon="3.08485">
        <ele>-3.8</ele>
        <time>2022-05-21 08:57:37</time>
      </trkpt>
      <trkpt lat="42.18045" lon="3.08486">
        <ele>-3.8</ele>
        <time>2022-05-21 08:57:38</time>
      </trkpt>
      <trkpt lat="42.18052" lon="3.08488">
        <ele>-3.8</ele>
        <time>2022-05-21 08:57:39</time>
      </trkpt>
      <trkpt lat="42.18058" lon="3.0849">
        <ele>-3.8</ele>
        <time>2022-05-21 08:57:40</time>
      </trkpt>
      <trkpt lat="42.18064" lon="3.08491">
        <ele>-3.6</ele>
        <time>2022-05-21 08:57:41</time>
      </trkpt>
      <trkpt lat="42.18072" lon="3.08493">
        <ele>-3.6</ele>
        <time>2022-05-21 08:57:42</time>
      </trkpt>
      <trkpt lat="42.18079" lon="3.08495">
        <ele>-3.6</ele>
        <time>2022-05-21 08:57:43</time>
      </trkpt>
      <trkpt lat="42.18086" lon="3.08497">
        <ele>-3.6</ele>
        <time>2022-05-21 08:57:44</time>
      </trkpt>
      <trkpt lat="42.18093" lon="3.08499">
        <ele>-3.6</ele>
        <time>2022-05-21 08:57:45</time>
      </trkpt>
      <trkpt lat="42.181" lon="3.08501">
        <ele>-3.6</ele>
        <time>2022-05-21 08:57:46</time>
      </trkpt>
      <trkpt lat="42.18107" lon="3.08504">
        <ele>-3.8</ele>
        <time>2022-05-21 08:57:47</time>
      </trkpt>
      <trkpt lat="42.18114" lon="3.08507">
        <ele>-3.8</ele>
        <time>2022-05-21 08:57:48</time>
      </trkpt>
      <trkpt lat="42.18121" lon="3.0851">
        <ele>-3.8</ele>
        <time>2022-05-21 08:57:49</time>
      </trkpt>
      <trkpt lat="42.18127" lon="3.08514">
        <ele>-3.8</ele>
        <time>2022-05-21 08:57:50</time>
      </trkpt>
      <trkpt lat="42.18134" lon="3.08518">
        <ele>-3.8</ele>
        <time>2022-05-21 08:57:51</time>
      </trkpt>
      <trkpt lat="42.1814" lon="3.08522">
        <ele>-3.8</ele>
        <time>2022-05-21 08:57:52</time>
      </trkpt>
      <trkpt lat="42.18147" lon="3.08526">
        <ele>-3.8</ele>
        <time>2022-05-21 08:57:53</time>
      </trkpt>
      <trkpt lat="42.18153" lon="3.0853">
        <ele>-3.8</ele>
        <time>2022-05-21 08:57:54</time>
      </trkpt>
      <trkpt lat="42.1816" lon="3.08535">
        <ele>-3.8</ele>
        <time>2022-05-21 08:57:55</time>
      </trkpt>
      <trkpt lat="42.18166" lon="3.0854">
        <ele>-3.6</ele>
        <time>2022-05-21 08:57:56</time>
      </trkpt>
      <trkpt lat="42.18171" lon="3.08545">
        <ele>-3.6</ele>
        <time>2022-05-21 08:57:57</time>
      </trkpt>
      <trkpt lat="42.18178" lon="3.08552">
        <ele>-3.6</ele>
        <time>2022-05-21 08:57:58</time>
      </trkpt>
      <trkpt lat="42.18183" lon="3.08558">
        <ele>-3.6</ele>
        <time>2022-05-21 08:57:59</time>
      </trkpt>
      <trkpt lat="42.18189" lon="3.08564">
        <ele>-3.6</ele>
        <time>2022-05-21 08:58:00</time>
      </trkpt>
      <trkpt lat="42.18194" lon="3.08571">
        <ele>-3.6</ele>
        <time>2022-05-21 08:58:01</time>
      </trkpt>
      <trkpt lat="42.182" lon="3.08577">
        <ele>-3.6</ele>
        <time>2022-05-21 08:58:02</time>
      </trkpt>
      <trkpt lat="42.18205" lon="3.08584">
        <ele>-3.6</ele>
        <time>2022-05-21 08:58:03</time>
      </trkpt>
      <trkpt lat="42.18211" lon="3.08591">
        <ele>-3.6</ele>
        <time>2022-05-21 08:58:04</time>
      </trkpt>
      <trkpt lat="42.18216" lon="3.08597">
        <ele>-3.6</ele>
        <time>2022-05-21 08:58:05</time>
      </trkpt>
      <trkpt lat="42.18223" lon="3.08603">
        <ele>-3.6</ele>
        <time>2022-05-21 08:58:06</time>
      </trkpt>
      <trkpt lat="42.18229" lon="3.08608">
        <ele>-3.6</ele>
        <time>2022-05-21 08:58:07</time>
      </trkpt>
      <trkpt lat="42.18235" lon="3.08613">
        <ele>-3.4</ele>
        <time>2022-05-21 08:58:08</time>
      </trkpt>
      <trkpt lat="42.18242" lon="3.08617">
        <ele>-3.4</ele>
        <time>2022-05-21 08:58:09</time>
      </trkpt>
      <trkpt lat="42.18249" lon="3.08621">
        <ele>-3.4</ele>
        <time>2022-05-21 08:58:10</time>
      </trkpt>
      <trkpt lat="42.18256" lon="3.08625">
        <ele>-3.4</ele>
        <time>2022-05-21 08:58:11</time>
      </trkpt>
      <trkpt lat="42.18263" lon="3.08628">
        <ele>-3.4</ele>
        <time>2022-05-21 08:58:12</time>
      </trkpt>
      <trkpt lat="42.18269" lon="3.08631">
        <ele>-3.4</ele>
        <time>2022-05-21 08:58:13</time>
      </trkpt>
      <trkpt lat="42.18277" lon="3.08633">
        <ele>-3.4</ele>
        <time>2022-05-21 08:58:14</time>
      </trkpt>
      <trkpt lat="42.18284" lon="3.08635">
        <ele>-3.6</ele>
        <time>2022-05-21 08:58:15</time>
      </trkpt>
      <trkpt lat="42.18291" lon="3.08636">
        <ele>-3.6</ele>
        <time>2022-05-21 08:58:16</time>
      </trkpt>
      <trkpt lat="42.18298" lon="3.08636">
        <ele>-3.6</ele>
        <time>2022-05-21 08:58:17</time>
      </trkpt>
      <trkpt lat="42.18306" lon="3.08636">
        <ele>-3.6</ele>
        <time>2022-05-21 08:58:18</time>
      </trkpt>
      <trkpt lat="42.18313" lon="3.08635">
        <ele>-3.6</ele>
        <time>2022-05-21 08:58:19</time>
      </trkpt>
      <trkpt lat="42.18321" lon="3.08635">
        <ele>-3.6</ele>
        <time>2022-05-21 08:58:20</time>
      </trkpt>
      <trkpt lat="42.18328" lon="3.08634">
        <ele>-3.6</ele>
        <time>2022-05-21 08:58:21</time>
      </trkpt>
      <trkpt lat="42.18336" lon="3.08633">
        <ele>-3.6</ele>
        <time>2022-05-21 08:58:22</time>
      </trkpt>
      <trkpt lat="42.18343" lon="3.08631">
        <ele>-3.8</ele>
        <time>2022-05-21 08:58:23</time>
      </trkpt>
      <trkpt lat="42.1835" lon="3.08629">
        <ele>-3.8</ele>
        <time>2022-05-21 08:58:24</time>
      </trkpt>
      <trkpt lat="42.18357" lon="3.08627">
        <ele>-3.8</ele>
        <time>2022-05-21 08:58:25</time>
      </trkpt>
      <trkpt lat="42.18365" lon="3.08626">
        <ele>-3.8</ele>
        <time>2022-05-21 08:58:26</time>
      </trkpt>
      <trkpt lat="42.18371" lon="3.08625">
        <ele>-4</ele>
        <time>2022-05-21 08:58:27</time>
      </trkpt>
      <trkpt lat="42.18379" lon="3.08624">
        <ele>-4</ele>
        <time>2022-05-21 08:58:28</time>
      </trkpt>
      <trkpt lat="42.18386" lon="3.08622">
        <ele>-4</ele>
        <time>2022-05-21 08:58:29</time>
      </trkpt>
      <trkpt lat="42.18394" lon="3.08621">
        <ele>-4</ele>
        <time>2022-05-21 08:58:30</time>
      </trkpt>
      <trkpt lat="42.18401" lon="3.0862">
        <ele>-3.8</ele>
        <time>2022-05-21 08:58:31</time>
      </trkpt>
      <trkpt lat="42.18408" lon="3.08619">
        <ele>-3.8</ele>
        <time>2022-05-21 08:58:32</time>
      </trkpt>
      <trkpt lat="42.18415" lon="3.08619">
        <ele>-3.8</ele>
        <time>2022-05-21 08:58:33</time>
      </trkpt>
      <trkpt lat="42.18423" lon="3.08618">
        <ele>-3.8</ele>
        <time>2022-05-21 08:58:34</time>
      </trkpt>
      <trkpt lat="42.1843" lon="3.08617">
        <ele>-3.8</ele>
        <time>2022-05-21 08:58:35</time>
      </trkpt>
      <trkpt lat="42.18438" lon="3.08616">
        <ele>-3.8</ele>
        <time>2022-05-21 08:58:36</time>
      </trkpt>
      <trkpt lat="42.18445" lon="3.08615">
        <ele>-3.6</ele>
        <time>2022-05-21 08:58:37</time>
      </trkpt>
      <trkpt lat="42.18453" lon="3.08615">
        <ele>-3.6</ele>
        <time>2022-05-21 08:58:38</time>
      </trkpt>
      <trkpt lat="42.1846" lon="3.08614">
        <ele>-3.6</ele>
        <time>2022-05-21 08:58:39</time>
      </trkpt>
      <trkpt lat="42.18468" lon="3.08614">
        <ele>-3.6</ele>
        <time>2022-05-21 08:58:40</time>
      </trkpt>
      <trkpt lat="42.18475" lon="3.08613">
        <ele>-3.6</ele>
        <time>2022-05-21 08:58:41</time>
      </trkpt>
      <trkpt lat="42.18483" lon="3.08612">
        <ele>-3.6</ele>
        <time>2022-05-21 08:58:42</time>
      </trkpt>
      <trkpt lat="42.1849" lon="3.08611">
        <ele>-3.6</ele>
        <time>2022-05-21 08:58:43</time>
      </trkpt>
      <trkpt lat="42.18498" lon="3.0861">
        <ele>-3.6</ele>
        <time>2022-05-21 08:58:44</time>
      </trkpt>
      <trkpt lat="42.18504" lon="3.0861">
        <ele>-3.6</ele>
        <time>2022-05-21 08:58:45</time>
      </trkpt>
      <trkpt lat="42.18513" lon="3.0861">
        <ele>-3.6</ele>
        <time>2022-05-21 08:58:46</time>
      </trkpt>
      <trkpt lat="42.1852" lon="3.08611">
        <ele>-3.6</ele>
        <time>2022-05-21 08:58:47</time>
      </trkpt>
      <trkpt lat="42.18527" lon="3.08613">
        <ele>-3.6</ele>
        <time>2022-05-21 08:58:48</time>
      </trkpt>
      <trkpt lat="42.18534" lon="3.08616">
        <ele>-3.6</ele>
        <time>2022-05-21 08:58:49</time>
      </trkpt>
      <trkpt lat="42.1854" lon="3.08619">
        <ele>-3.4</ele>
        <time>2022-05-21 08:58:50</time>
      </trkpt>
      <trkpt lat="42.18546" lon="3.08622">
        <ele>-3.4</ele>
        <time>2022-05-21 08:58:51</time>
      </trkpt>
      <trkpt lat="42.18552" lon="3.08625">
        <ele>-3.4</ele>
        <time>2022-05-21 08:58:52</time>
      </trkpt>
      <trkpt lat="42.18557" lon="3.08628">
        <ele>-3.2</ele>
        <time>2022-05-21 08:58:53</time>
      </trkpt>
      <trkpt lat="42.18563" lon="3.08631">
        <ele>-3.2</ele>
        <time>2022-05-21 08:58:54</time>
      </trkpt>
      <trkpt lat="42.18569" lon="3.08634">
        <ele>-3.2</ele>
        <time>2022-05-21 08:58:55</time>
      </trkpt>
      <trkpt lat="42.18574" lon="3.08637">
        <ele>-3</ele>
        <time>2022-05-21 08:58:56</time>
      </trkpt>
      <trkpt lat="42.1858" lon="3.08639">
        <ele>-3</ele>
        <time>2022-05-21 08:58:57</time>
      </trkpt>
      <trkpt lat="42.18585" lon="3.08641">
        <ele>-2.8</ele>
        <time>2022-05-21 08:58:58</time>
      </trkpt>
      <trkpt lat="42.1859" lon="3.08644">
        <ele>-2.8</ele>
        <time>2022-05-21 08:58:59</time>
      </trkpt>
      <trkpt lat="42.18596" lon="3.08647">
        <ele>-2.8</ele>
        <time>2022-05-21 08:59:00</time>
      </trkpt>
      <trkpt lat="42.18601" lon="3.08651">
        <ele>-2.6</ele>
        <time>2022-05-21 08:59:01</time>
      </trkpt>
      <trkpt lat="42.18607" lon="3.08654">
        <ele>-2.6</ele>
        <time>2022-05-21 08:59:02</time>
      </trkpt>
      <trkpt lat="42.18613" lon="3.08658">
        <ele>-2.6</ele>
        <time>2022-05-21 08:59:03</time>
      </trkpt>
      <trkpt lat="42.18619" lon="3.08661">
        <ele>-2.4</ele>
        <time>2022-05-21 08:59:04</time>
      </trkpt>
      <trkpt lat="42.18625" lon="3.08665">
        <ele>-2.4</ele>
        <time>2022-05-21 08:59:05</time>
      </trkpt>
      <trkpt lat="42.18629" lon="3.08668">
        <ele>-2.2</ele>
        <time>2022-05-21 08:59:06</time>
      </trkpt>
      <trkpt lat="42.18633" lon="3.08672">
        <ele>-2.2</ele>
        <time>2022-05-21 08:59:07</time>
      </trkpt>
      <trkpt lat="42.18637" lon="3.08674">
        <ele>-2</ele>
        <time>2022-05-21 08:59:08</time>
      </trkpt>
      <trkpt lat="42.1864" lon="3.08677">
        <ele>-2</ele>
        <time>2022-05-21 08:59:09</time>
      </trkpt>
      <trkpt lat="42.18642" lon="3.08678">
        <ele>-1.8</ele>
        <time>2022-05-21 08:59:10</time>
      </trkpt>
      <trkpt lat="42.18643" lon="3.0868">
        <ele>-1.8</ele>
        <time>2022-05-21 08:59:11</time>
      </trkpt>
      <trkpt lat="42.18649" lon="3.08685">
        <ele>-1.4</ele>
        <time>2022-05-21 09:00:13</time>
      </trkpt>
      <trkpt lat="42.18652" lon="3.08688">
        <ele>-1.6</ele>
        <time>2022-05-21 09:00:14</time>
      </trkpt>
      <trkpt lat="42.18654" lon="3.08691">
        <ele>-1.6</ele>
        <time>2022-05-21 09:00:15</time>
      </trkpt>
      <trkpt lat="42.18657" lon="3.08694">
        <ele>-1.8</ele>
        <time>2022-05-21 09:00:16</time>
      </trkpt>
      <trkpt lat="42.1866" lon="3.08697">
        <ele>-1.8</ele>
        <time>2022-05-21 09:00:17</time>
      </trkpt>
      <trkpt lat="42.18665" lon="3.08699">
        <ele>-2</ele>
        <time>2022-05-21 09:00:18</time>
      </trkpt>
      <trkpt lat="42.18669" lon="3.087">
        <ele>-2.2</ele>
        <time>2022-05-21 09:00:19</time>
      </trkpt>
      <trkpt lat="42.18672" lon="3.087">
        <ele>-2.2</ele>
        <time>2022-05-21 09:00:20</time>
      </trkpt>
      <trkpt lat="42.18678" lon="3.08697">
        <ele>-2.2</ele>
        <time>2022-05-21 09:00:21</time>
      </trkpt>
      <trkpt lat="42.18681" lon="3.08693">
        <ele>-2.2</ele>
        <time>2022-05-21 09:00:22</time>
      </trkpt>
      <trkpt lat="42.18684" lon="3.08688">
        <ele>-2.2</ele>
        <time>2022-05-21 09:00:23</time>
      </trkpt>
      <trkpt lat="42.18685" lon="3.08682">
        <ele>-2.2</ele>
        <time>2022-05-21 09:00:24</time>
      </trkpt>
      <trkpt lat="42.18685" lon="3.08676">
        <ele>-2.2</ele>
        <time>2022-05-21 09:00:25</time>
      </trkpt>
      <trkpt lat="42.18685" lon="3.08672">
        <ele>-2</ele>
        <time>2022-05-21 09:00:26</time>
      </trkpt>
      <trkpt lat="42.18686" lon="3.08666">
        <ele>-1.8</ele>
        <time>2022-05-21 09:00:27</time>
      </trkpt>
      <trkpt lat="42.18688" lon="3.08658">
        <ele>-1.8</ele>
        <time>2022-05-21 09:00:28</time>
      </trkpt>
      <trkpt lat="42.18689" lon="3.08653">
        <ele>-1.6</ele>
        <time>2022-05-21 09:00:29</time>
      </trkpt>
      <trkpt lat="42.1869" lon="3.08647">
        <ele>-1.6</ele>
        <time>2022-05-21 09:00:30</time>
      </trkpt>
      <trkpt lat="42.18692" lon="3.08641">
        <ele>-1.4</ele>
        <time>2022-05-21 09:00:31</time>
      </trkpt>
      <trkpt lat="42.18694" lon="3.08636">
        <ele>-1.4</ele>
        <time>2022-05-21 09:00:32</time>
      </trkpt>
      <trkpt lat="42.18697" lon="3.08629">
        <ele>-1.4</ele>
        <time>2022-05-21 09:00:33</time>
      </trkpt>
      <trkpt lat="42.18699" lon="3.08625">
        <ele>-1.2</ele>
        <time>2022-05-21 09:00:34</time>
      </trkpt>
      <trkpt lat="42.18703" lon="3.08618">
        <ele>-1.2</ele>
        <time>2022-05-21 09:00:35</time>
      </trkpt>
      <trkpt lat="42.18705" lon="3.08613">
        <ele>-1.2</ele>
        <time>2022-05-21 09:00:36</time>
      </trkpt>
      <trkpt lat="42.18709" lon="3.08605">
        <ele>-1.2</ele>
        <time>2022-05-21 09:00:37</time>
      </trkpt>
      <trkpt lat="42.18711" lon="3.086">
        <ele>-1.2</ele>
        <time>2022-05-21 09:00:38</time>
      </trkpt>
      <trkpt lat="42.18715" lon="3.08592">
        <ele>-1.2</ele>
        <time>2022-05-21 09:00:39</time>
      </trkpt>
      <trkpt lat="42.18716" lon="3.08587">
        <ele>-1.2</ele>
        <time>2022-05-21 09:00:40</time>
      </trkpt>
      <trkpt lat="42.18719" lon="3.08578">
        <ele>-1.2</ele>
        <time>2022-05-21 09:00:41</time>
      </trkpt>
      <trkpt lat="42.18722" lon="3.08572">
        <ele>-1.2</ele>
        <time>2022-05-21 09:00:42</time>
      </trkpt>
      <trkpt lat="42.18726" lon="3.08563">
        <ele>-1.2</ele>
        <time>2022-05-21 09:00:43</time>
      </trkpt>
      <trkpt lat="42.18729" lon="3.08557">
        <ele>-1.2</ele>
        <time>2022-05-21 09:00:44</time>
      </trkpt>
      <trkpt lat="42.18733" lon="3.08548">
        <ele>-1.2</ele>
        <time>2022-05-21 09:00:45</time>
      </trkpt>
      <trkpt lat="42.18736" lon="3.08543">
        <ele>-1.2</ele>
        <time>2022-05-21 09:00:46</time>
      </trkpt>
      <trkpt lat="42.1874" lon="3.08534">
        <ele>-1</ele>
        <time>2022-05-21 09:00:47</time>
      </trkpt>
      <trkpt lat="42.18743" lon="3.08528">
        <ele>-1</ele>
        <time>2022-05-21 09:00:48</time>
      </trkpt>
      <trkpt lat="42.18748" lon="3.08518">
        <ele>-1</ele>
        <time>2022-05-21 09:00:49</time>
      </trkpt>
      <trkpt lat="42.18752" lon="3.08512">
        <ele>-0.8</ele>
        <time>2022-05-21 09:00:50</time>
      </trkpt>
      <trkpt lat="42.18757" lon="3.08502">
        <ele>-0.8</ele>
        <time>2022-05-21 09:00:51</time>
      </trkpt>
      <trkpt lat="42.1876" lon="3.08497">
        <ele>-0.8</ele>
        <time>2022-05-21 09:00:52</time>
      </trkpt>
      <trkpt lat="42.18765" lon="3.08487">
        <ele>-1</ele>
        <time>2022-05-21 09:00:53</time>
      </trkpt>
      <trkpt lat="42.18769" lon="3.08482">
        <ele>-1</ele>
        <time>2022-05-21 09:00:54</time>
      </trkpt>
      <trkpt lat="42.18776" lon="3.08474">
        <ele>-1</ele>
        <time>2022-05-21 09:00:55</time>
      </trkpt>
      <trkpt lat="42.1878" lon="3.08471">
        <ele>-1.2</ele>
        <time>2022-05-21 09:00:56</time>
      </trkpt>
      <trkpt lat="42.18789" lon="3.08465">
        <ele>-1.4</ele>
        <time>2022-05-21 09:00:57</time>
      </trkpt>
      <trkpt lat="42.18795" lon="3.08463">
        <ele>-1.6</ele>
        <time>2022-05-21 09:00:58</time>
      </trkpt>
      <trkpt lat="42.18805" lon="3.08461">
        <ele>-2</ele>
        <time>2022-05-21 09:00:59</time>
      </trkpt>
      <trkpt lat="42.18811" lon="3.08461">
        <ele>-2.4</ele>
        <time>2022-05-21 09:01:00</time>
      </trkpt>
      <trkpt lat="42.18822" lon="3.08463">
        <ele>-2.8</ele>
        <time>2022-05-21 09:01:01</time>
      </trkpt>
      <trkpt lat="42.18828" lon="3.08466">
        <ele>-3.2</ele>
        <time>2022-05-21 09:01:02</time>
      </trkpt>
      <trkpt lat="42.18838" lon="3.08469">
        <ele>-3.6</ele>
        <time>2022-05-21 09:01:03</time>
      </trkpt>
      <trkpt lat="42.18846" lon="3.08472">
        <ele>-4</ele>
        <time>2022-05-21 09:01:04</time>
      </trkpt>
      <trkpt lat="42.18855" lon="3.08474">
        <ele>-4.4</ele>
        <time>2022-05-21 09:01:05</time>
      </trkpt>
      <trkpt lat="42.18862" lon="3.08476">
        <ele>-4.6</ele>
        <time>2022-05-21 09:01:06</time>
      </trkpt>
      <trkpt lat="42.18871" lon="3.08478">
        <ele>-4.6</ele>
        <time>2022-05-21 09:01:07</time>
      </trkpt>
      <trkpt lat="42.18877" lon="3.08479">
        <ele>-4.6</ele>
        <time>2022-05-21 09:01:08</time>
      </trkpt>
      <trkpt lat="42.18886" lon="3.08482">
        <ele>-4.6</ele>
        <time>2022-05-21 09:01:09</time>
      </trkpt>
      <trkpt lat="42.18891" lon="3.08485">
        <ele>-4.6</ele>
        <time>2022-05-21 09:01:10</time>
      </trkpt>
      <trkpt lat="42.189" lon="3.08489">
        <ele>-4.6</ele>
        <time>2022-05-21 09:01:11</time>
      </trkpt>
      <trkpt lat="42.18905" lon="3.08492">
        <ele>-4.8</ele>
        <time>2022-05-21 09:01:12</time>
      </trkpt>
      <trkpt lat="42.18913" lon="3.08496">
        <ele>-4.8</ele>
        <time>2022-05-21 09:01:13</time>
      </trkpt>
      <trkpt lat="42.18919" lon="3.08498">
        <ele>-4.8</ele>
        <time>2022-05-21 09:01:14</time>
      </trkpt>
      <trkpt lat="42.18926" lon="3.08502">
        <ele>-4.8</ele>
        <time>2022-05-21 09:01:15</time>
      </trkpt>
      <trkpt lat="42.18932" lon="3.08505">
        <ele>-4.8</ele>
        <time>2022-05-21 09:01:16</time>
      </trkpt>
      <trkpt lat="42.1894" lon="3.08511">
        <ele>-4.8</ele>
        <time>2022-05-21 09:01:17</time>
      </trkpt>
      <trkpt lat="42.18945" lon="3.08515">
        <ele>-4.8</ele>
        <time>2022-05-21 09:01:18</time>
      </trkpt>
      <trkpt lat="42.18952" lon="3.08523">
        <ele>-4.8</ele>
        <time>2022-05-21 09:01:19</time>
      </trkpt>
      <trkpt lat="42.18956" lon="3.08528">
        <ele>-4.8</ele>
        <time>2022-05-21 09:01:20</time>
      </trkpt>
      <trkpt lat="42.18963" lon="3.08537">
        <ele>-4.8</ele>
        <time>2022-05-21 09:01:21</time>
      </trkpt>
      <trkpt lat="42.18967" lon="3.08542">
        <ele>-4.8</ele>
        <time>2022-05-21 09:01:22</time>
      </trkpt>
      <trkpt lat="42.18973" lon="3.0855">
        <ele>-4.8</ele>
        <time>2022-05-21 09:01:23</time>
      </trkpt>
      <trkpt lat="42.18978" lon="3.08555">
        <ele>-4.8</ele>
        <time>2022-05-21 09:01:24</time>
      </trkpt>
      <trkpt lat="42.18985" lon="3.08564">
        <ele>-4.8</ele>
        <time>2022-05-21 09:01:25</time>
      </trkpt>
      <trkpt lat="42.18988" lon="3.08569">
        <ele>-4.8</ele>
        <time>2022-05-21 09:01:26</time>
      </trkpt>
      <trkpt lat="42.18996" lon="3.08577">
        <ele>-4.8</ele>
        <time>2022-05-21 09:01:27</time>
      </trkpt>
      <trkpt lat="42.18999" lon="3.08581">
        <ele>-4.8</ele>
        <time>2022-05-21 09:01:28</time>
      </trkpt>
      <trkpt lat="42.19007" lon="3.08588">
        <ele>-4.8</ele>
        <time>2022-05-21 09:01:29</time>
      </trkpt>
      <trkpt lat="42.19012" lon="3.08593">
        <ele>-4.8</ele>
        <time>2022-05-21 09:01:30</time>
      </trkpt>
      <trkpt lat="42.19019" lon="3.086">
        <ele>-4.8</ele>
        <time>2022-05-21 09:01:31</time>
      </trkpt>
      <trkpt lat="42.19023" lon="3.08604">
        <ele>-4.8</ele>
        <time>2022-05-21 09:01:32</time>
      </trkpt>
      <trkpt lat="42.19031" lon="3.0861">
        <ele>-4.8</ele>
        <time>2022-05-21 09:01:33</time>
      </trkpt>
      <trkpt lat="42.19036" lon="3.08614">
        <ele>-4.8</ele>
        <time>2022-05-21 09:01:34</time>
      </trkpt>
      <trkpt lat="42.19044" lon="3.0862">
        <ele>-4.8</ele>
        <time>2022-05-21 09:01:35</time>
      </trkpt>
      <trkpt lat="42.19049" lon="3.08623">
        <ele>-4.8</ele>
        <time>2022-05-21 09:01:36</time>
      </trkpt>
      <trkpt lat="42.19057" lon="3.0863">
        <ele>-4.8</ele>
        <time>2022-05-21 09:01:37</time>
      </trkpt>
      <trkpt lat="42.19061" lon="3.08633">
        <ele>-4.8</ele>
        <time>2022-05-21 09:01:38</time>
      </trkpt>
      <trkpt lat="42.1907" lon="3.08639">
        <ele>-4.8</ele>
        <time>2022-05-21 09:01:39</time>
      </trkpt>
      <trkpt lat="42.19074" lon="3.08642">
        <ele>-4.8</ele>
        <time>2022-05-21 09:01:40</time>
      </trkpt>
      <trkpt lat="42.19082" lon="3.08648">
        <ele>-4.8</ele>
        <time>2022-05-21 09:01:41</time>
      </trkpt>
      <trkpt lat="42.19087" lon="3.08651">
        <ele>-4.8</ele>
        <time>2022-05-21 09:01:42</time>
      </trkpt>
      <trkpt lat="42.19094" lon="3.08656">
        <ele>-4.8</ele>
        <time>2022-05-21 09:01:43</time>
      </trkpt>
      <trkpt lat="42.19099" lon="3.08658">
        <ele>-4.8</ele>
        <time>2022-05-21 09:01:44</time>
      </trkpt>
      <trkpt lat="42.19107" lon="3.0866">
        <ele>-4.6</ele>
        <time>2022-05-21 09:01:45</time>
      </trkpt>
      <trkpt lat="42.1911" lon="3.08658">
        <ele>-4.6</ele>
        <time>2022-05-21 09:01:46</time>
      </trkpt>
      <trkpt lat="42.19116" lon="3.08653">
        <ele>-4.6</ele>
        <time>2022-05-21 09:01:47</time>
      </trkpt>
      <trkpt lat="42.1912" lon="3.08649">
        <ele>-4.6</ele>
        <time>2022-05-21 09:01:48</time>
      </trkpt>
      <trkpt lat="42.19126" lon="3.08643">
        <ele>-4.6</ele>
        <time>2022-05-21 09:01:49</time>
      </trkpt>
      <trkpt lat="42.19129" lon="3.0864">
        <ele>-4.6</ele>
        <time>2022-05-21 09:01:50</time>
      </trkpt>
      <trkpt lat="42.19136" lon="3.08635">
        <ele>-4.6</ele>
        <time>2022-05-21 09:01:51</time>
      </trkpt>
      <trkpt lat="42.1914" lon="3.08632">
        <ele>-4.6</ele>
        <time>2022-05-21 09:01:52</time>
      </trkpt>
      <trkpt lat="42.19147" lon="3.08627">
        <ele>-4.6</ele>
        <time>2022-05-21 09:01:53</time>
      </trkpt>
      <trkpt lat="42.19151" lon="3.08623">
        <ele>-4.6</ele>
        <time>2022-05-21 09:01:54</time>
      </trkpt>
      <trkpt lat="42.19157" lon="3.08617">
        <ele>-4.6</ele>
        <time>2022-05-21 09:01:55</time>
      </trkpt>
      <trkpt lat="42.19161" lon="3.08613">
        <ele>-4.6</ele>
        <time>2022-05-21 09:01:56</time>
      </trkpt>
      <trkpt lat="42.19166" lon="3.08606">
        <ele>-4.4</ele>
        <time>2022-05-21 09:01:57</time>
      </trkpt>
      <trkpt lat="42.19169" lon="3.08601">
        <ele>-4.4</ele>
        <time>2022-05-21 09:01:58</time>
      </trkpt>
      <trkpt lat="42.19173" lon="3.08592">
        <ele>-4.4</ele>
        <time>2022-05-21 09:01:59</time>
      </trkpt>
      <trkpt lat="42.19174" lon="3.08586">
        <ele>-4.6</ele>
        <time>2022-05-21 09:02:00</time>
      </trkpt>
      <trkpt lat="42.19175" lon="3.08575">
        <ele>-4.6</ele>
        <time>2022-05-21 09:02:01</time>
      </trkpt>
      <trkpt lat="42.19175" lon="3.08568">
        <ele>-4.6</ele>
        <time>2022-05-21 09:02:02</time>
      </trkpt>
      <trkpt lat="42.19175" lon="3.08557">
        <ele>-4.6</ele>
        <time>2022-05-21 09:02:03</time>
      </trkpt>
      <trkpt lat="42.19175" lon="3.08552">
        <ele>-4.6</ele>
        <time>2022-05-21 09:02:04</time>
      </trkpt>
      <trkpt lat="42.19174" lon="3.0854">
        <ele>-4.6</ele>
        <time>2022-05-21 09:02:05</time>
      </trkpt>
      <trkpt lat="42.19174" lon="3.08534">
        <ele>-4.6</ele>
        <time>2022-05-21 09:02:06</time>
      </trkpt>
      <trkpt lat="42.19173" lon="3.08522">
        <ele>-4.6</ele>
        <time>2022-05-21 09:02:07</time>
      </trkpt>
      <trkpt lat="42.19172" lon="3.08515">
        <ele>-4.6</ele>
        <time>2022-05-21 09:02:08</time>
      </trkpt>
      <trkpt lat="42.19172" lon="3.08504">
        <ele>-4.6</ele>
        <time>2022-05-21 09:02:09</time>
      </trkpt>
      <trkpt lat="42.19171" lon="3.08498">
        <ele>-4.8</ele>
        <time>2022-05-21 09:02:10</time>
      </trkpt>
      <trkpt lat="42.1917" lon="3.08486">
        <ele>-4.8</ele>
        <time>2022-05-21 09:02:11</time>
      </trkpt>
      <trkpt lat="42.1917" lon="3.0848">
        <ele>-4.8</ele>
        <time>2022-05-21 09:02:12</time>
      </trkpt>
      <trkpt lat="42.19169" lon="3.08469">
        <ele>-4.8</ele>
        <time>2022-05-21 09:02:13</time>
      </trkpt>
      <trkpt lat="42.19169" lon="3.08462">
        <ele>-4.6</ele>
        <time>2022-05-21 09:02:14</time>
      </trkpt>
      <trkpt lat="42.19167" lon="3.08451">
        <ele>-4.6</ele>
        <time>2022-05-21 09:02:15</time>
      </trkpt>
      <trkpt lat="42.19167" lon="3.08444">
        <ele>-4.6</ele>
        <time>2022-05-21 09:02:16</time>
      </trkpt>
      <trkpt lat="42.19166" lon="3.08434">
        <ele>-4.6</ele>
        <time>2022-05-21 09:02:17</time>
      </trkpt>
      <trkpt lat="42.19165" lon="3.08428">
        <ele>-4.6</ele>
        <time>2022-05-21 09:02:18</time>
      </trkpt>
      <trkpt lat="42.19165" lon="3.08416">
        <ele>-4.6</ele>
        <time>2022-05-21 09:02:19</time>
      </trkpt>
      <trkpt lat="42.19164" lon="3.0841">
        <ele>-4.6</ele>
        <time>2022-05-21 09:02:20</time>
      </trkpt>
      <trkpt lat="42.19163" lon="3.08399">
        <ele>-4.6</ele>
        <time>2022-05-21 09:02:21</time>
      </trkpt>
      <trkpt lat="42.19163" lon="3.08393">
        <ele>-4.6</ele>
        <time>2022-05-21 09:02:22</time>
      </trkpt>
      <trkpt lat="42.19162" lon="3.08382">
        <ele>-4.6</ele>
        <time>2022-05-21 09:02:23</time>
      </trkpt>
      <trkpt lat="42.19162" lon="3.08373">
        <ele>-4.6</ele>
        <time>2022-05-21 09:02:24</time>
      </trkpt>
      <trkpt lat="42.19161" lon="3.08364">
        <ele>-4.6</ele>
        <time>2022-05-21 09:02:25</time>
      </trkpt>
      <trkpt lat="42.1916" lon="3.08356">
        <ele>-4.6</ele>
        <time>2022-05-21 09:02:26</time>
      </trkpt>
      <trkpt lat="42.1916" lon="3.08347">
        <ele>-4.6</ele>
        <time>2022-05-21 09:02:27</time>
      </trkpt>
      <trkpt lat="42.19159" lon="3.08341">
        <ele>-4.6</ele>
        <time>2022-05-21 09:02:28</time>
      </trkpt>
      <trkpt lat="42.19159" lon="3.08331">
        <ele>-4.6</ele>
        <time>2022-05-21 09:02:29</time>
      </trkpt>
      <trkpt lat="42.19158" lon="3.08319">
        <ele>-4.6</ele>
        <time>2022-05-21 09:02:30</time>
      </trkpt>
      <trkpt lat="42.19157" lon="3.08311">
        <ele>-4.8</ele>
        <time>2022-05-21 09:02:31</time>
      </trkpt>
      <trkpt lat="42.19157" lon="3.08302">
        <ele>-4.8</ele>
        <time>2022-05-21 09:02:32</time>
      </trkpt>
      <trkpt lat="42.19156" lon="3.08293">
        <ele>-4.8</ele>
        <time>2022-05-21 09:02:33</time>
      </trkpt>
      <trkpt lat="42.19155" lon="3.08284">
        <ele>-4.6</ele>
        <time>2022-05-21 09:02:34</time>
      </trkpt>
      <trkpt lat="42.19154" lon="3.08275">
        <ele>-4.6</ele>
        <time>2022-05-21 09:02:35</time>
      </trkpt>
      <trkpt lat="42.19152" lon="3.08266">
        <ele>-4.6</ele>
        <time>2022-05-21 09:02:36</time>
      </trkpt>
      <trkpt lat="42.19152" lon="3.08257">
        <ele>-4.8</ele>
        <time>2022-05-21 09:02:37</time>
      </trkpt>
      <trkpt lat="42.19153" lon="3.08249">
        <ele>-4.8</ele>
        <time>2022-05-21 09:02:38</time>
      </trkpt>
      <trkpt lat="42.19156" lon="3.08243">
        <ele>-5</ele>
        <time>2022-05-21 09:02:39</time>
      </trkpt>
      <trkpt lat="42.19162" lon="3.08239">
        <ele>-5.2</ele>
        <time>2022-05-21 09:02:40</time>
      </trkpt>
      <trkpt lat="42.19169" lon="3.08239">
        <ele>-5.4</ele>
        <time>2022-05-21 09:02:41</time>
      </trkpt>
      <trkpt lat="42.19176" lon="3.08241">
        <ele>-5.4</ele>
        <time>2022-05-21 09:02:42</time>
      </trkpt>
      <trkpt lat="42.19183" lon="3.08242">
        <ele>-5.4</ele>
        <time>2022-05-21 09:02:43</time>
      </trkpt>
      <trkpt lat="42.1919" lon="3.08244">
        <ele>-5.6</ele>
        <time>2022-05-21 09:02:44</time>
      </trkpt>
      <trkpt lat="42.19198" lon="3.08245">
        <ele>-5.6</ele>
        <time>2022-05-21 09:02:45</time>
      </trkpt>
      <trkpt lat="42.19205" lon="3.08247">
        <ele>-5.6</ele>
        <time>2022-05-21 09:02:46</time>
      </trkpt>
      <trkpt lat="42.19212" lon="3.08248">
        <ele>-5.6</ele>
        <time>2022-05-21 09:02:47</time>
      </trkpt>
      <trkpt lat="42.19219" lon="3.0825">
        <ele>-5.8</ele>
        <time>2022-05-21 09:02:48</time>
      </trkpt>
      <trkpt lat="42.19226" lon="3.08251">
        <ele>-5.8</ele>
        <time>2022-05-21 09:02:49</time>
      </trkpt>
      <trkpt lat="42.19234" lon="3.08252">
        <ele>-5.8</ele>
        <time>2022-05-21 09:02:50</time>
      </trkpt>
      <trkpt lat="42.19241" lon="3.08254">
        <ele>-5.8</ele>
        <time>2022-05-21 09:02:51</time>
      </trkpt>
      <trkpt lat="42.19248" lon="3.08255">
        <ele>-5.8</ele>
        <time>2022-05-21 09:02:52</time>
      </trkpt>
      <trkpt lat="42.19256" lon="3.08256">
        <ele>-5.8</ele>
        <time>2022-05-21 09:02:53</time>
      </trkpt>
      <trkpt lat="42.19263" lon="3.08258">
        <ele>-5.8</ele>
        <time>2022-05-21 09:02:54</time>
      </trkpt>
      <trkpt lat="42.1927" lon="3.08259">
        <ele>-6</ele>
        <time>2022-05-21 09:02:55</time>
      </trkpt>
      <trkpt lat="42.19277" lon="3.0826">
        <ele>-6</ele>
        <time>2022-05-21 09:02:56</time>
      </trkpt>
      <trkpt lat="42.19284" lon="3.08261">
        <ele>-6</ele>
        <time>2022-05-21 09:02:57</time>
      </trkpt>
      <trkpt lat="42.19291" lon="3.08262">
        <ele>-6</ele>
        <time>2022-05-21 09:02:58</time>
      </trkpt>
      <trkpt lat="42.19298" lon="3.08263">
        <ele>-6</ele>
        <time>2022-05-21 09:02:59</time>
      </trkpt>
      <trkpt lat="42.19305" lon="3.08265">
        <ele>-6</ele>
        <time>2022-05-21 09:03:00</time>
      </trkpt>
      <trkpt lat="42.19312" lon="3.08266">
        <ele>-6</ele>
        <time>2022-05-21 09:03:01</time>
      </trkpt>
      <trkpt lat="42.19319" lon="3.08267">
        <ele>-6</ele>
        <time>2022-05-21 09:03:02</time>
      </trkpt>
      <trkpt lat="42.19326" lon="3.08268">
        <ele>-6</ele>
        <time>2022-05-21 09:03:03</time>
      </trkpt>
      <trkpt lat="42.19333" lon="3.0827">
        <ele>-6</ele>
        <time>2022-05-21 09:03:04</time>
      </trkpt>
      <trkpt lat="42.1934" lon="3.08271">
        <ele>-6</ele>
        <time>2022-05-21 09:03:05</time>
      </trkpt>
      <trkpt lat="42.19347" lon="3.08272">
        <ele>-6.2</ele>
        <time>2022-05-21 09:03:06</time>
      </trkpt>
      <trkpt lat="42.19354" lon="3.08273">
        <ele>-6.2</ele>
        <time>2022-05-21 09:03:07</time>
      </trkpt>
      <trkpt lat="42.19361" lon="3.08274">
        <ele>-6.2</ele>
        <time>2022-05-21 09:03:08</time>
      </trkpt>
      <trkpt lat="42.19368" lon="3.08275">
        <ele>-6.2</ele>
        <time>2022-05-21 09:03:09</time>
      </trkpt>
      <trkpt lat="42.19375" lon="3.08277">
        <ele>-6.4</ele>
        <time>2022-05-21 09:03:10</time>
      </trkpt>
      <trkpt lat="42.19382" lon="3.08278">
        <ele>-6.4</ele>
        <time>2022-05-21 09:03:11</time>
      </trkpt>
      <trkpt lat="42.19388" lon="3.08279">
        <ele>-6.4</ele>
        <time>2022-05-21 09:03:12</time>
      </trkpt>
      <trkpt lat="42.19395" lon="3.0828">
        <ele>-6.4</ele>
        <time>2022-05-21 09:03:13</time>
      </trkpt>
      <trkpt lat="42.19402" lon="3.0828">
        <ele>-6.2</ele>
        <time>2022-05-21 09:03:14</time>
      </trkpt>
      <trkpt lat="42.19408" lon="3.08281">
        <ele>-6.2</ele>
        <time>2022-05-21 09:03:15</time>
      </trkpt>
      <trkpt lat="42.19415" lon="3.08282">
        <ele>-6.2</ele>
        <time>2022-05-21 09:03:16</time>
      </trkpt>
      <trkpt lat="42.19422" lon="3.08283">
        <ele>-6.2</ele>
        <time>2022-05-21 09:03:17</time>
      </trkpt>
      <trkpt lat="42.19429" lon="3.08284">
        <ele>-6.2</ele>
        <time>2022-05-21 09:03:18</time>
      </trkpt>
      <trkpt lat="42.19436" lon="3.08284">
        <ele>-6.2</ele>
        <time>2022-05-21 09:03:19</time>
      </trkpt>
      <trkpt lat="42.19443" lon="3.08285">
        <ele>-6.2</ele>
        <time>2022-05-21 09:03:20</time>
      </trkpt>
      <trkpt lat="42.1945" lon="3.08285">
        <ele>-6.2</ele>
        <time>2022-05-21 09:03:21</time>
      </trkpt>
      <trkpt lat="42.19457" lon="3.08286">
        <ele>-6.2</ele>
        <time>2022-05-21 09:03:22</time>
      </trkpt>
      <trkpt lat="42.19463" lon="3.08287">
        <ele>-6.2</ele>
        <time>2022-05-21 09:03:23</time>
      </trkpt>
      <trkpt lat="42.1947" lon="3.08288">
        <ele>-6.2</ele>
        <time>2022-05-21 09:03:24</time>
      </trkpt>
      <trkpt lat="42.19477" lon="3.08289">
        <ele>-6</ele>
        <time>2022-05-21 09:03:25</time>
      </trkpt>
      <trkpt lat="42.19484" lon="3.08289">
        <ele>-6</ele>
        <time>2022-05-21 09:03:26</time>
      </trkpt>
      <trkpt lat="42.19491" lon="3.0829">
        <ele>-6</ele>
        <time>2022-05-21 09:03:27</time>
      </trkpt>
      <trkpt lat="42.19498" lon="3.08291">
        <ele>-6</ele>
        <time>2022-05-21 09:03:28</time>
      </trkpt>
      <trkpt lat="42.19504" lon="3.08292">
        <ele>-6</ele>
        <time>2022-05-21 09:03:29</time>
      </trkpt>
      <trkpt lat="42.19512" lon="3.08293">
        <ele>-6</ele>
        <time>2022-05-21 09:03:30</time>
      </trkpt>
      <trkpt lat="42.19519" lon="3.08293">
        <ele>-6</ele>
        <time>2022-05-21 09:03:31</time>
      </trkpt>
      <trkpt lat="42.19526" lon="3.08294">
        <ele>-6</ele>
        <time>2022-05-21 09:03:32</time>
      </trkpt>
      <trkpt lat="42.19533" lon="3.08295">
        <ele>-6</ele>
        <time>2022-05-21 09:03:33</time>
      </trkpt>
      <trkpt lat="42.1954" lon="3.08296">
        <ele>-6</ele>
        <time>2022-05-21 09:03:34</time>
      </trkpt>
      <trkpt lat="42.19547" lon="3.08297">
        <ele>-6</ele>
        <time>2022-05-21 09:03:35</time>
      </trkpt>
      <trkpt lat="42.19554" lon="3.08298">
        <ele>-6</ele>
        <time>2022-05-21 09:03:36</time>
      </trkpt>
      <trkpt lat="42.19561" lon="3.08298">
        <ele>-6</ele>
        <time>2022-05-21 09:03:37</time>
      </trkpt>
      <trkpt lat="42.19568" lon="3.08299">
        <ele>-6</ele>
        <time>2022-05-21 09:03:38</time>
      </trkpt>
      <trkpt lat="42.19575" lon="3.083">
        <ele>-6</ele>
        <time>2022-05-21 09:03:39</time>
      </trkpt>
      <trkpt lat="42.19582" lon="3.08301">
        <ele>-6</ele>
        <time>2022-05-21 09:03:40</time>
      </trkpt>
      <trkpt lat="42.19589" lon="3.08302">
        <ele>-6</ele>
        <time>2022-05-21 09:03:41</time>
      </trkpt>
      <trkpt lat="42.19596" lon="3.08304">
        <ele>-6</ele>
        <time>2022-05-21 09:03:42</time>
      </trkpt>
      <trkpt lat="42.19604" lon="3.08305">
        <ele>-6</ele>
        <time>2022-05-21 09:03:43</time>
      </trkpt>
      <trkpt lat="42.1961" lon="3.08306">
        <ele>-6</ele>
        <time>2022-05-21 09:03:44</time>
      </trkpt>
      <trkpt lat="42.19618" lon="3.08307">
        <ele>-6</ele>
        <time>2022-05-21 09:03:45</time>
      </trkpt>
      <trkpt lat="42.19625" lon="3.08308">
        <ele>-6</ele>
        <time>2022-05-21 09:03:46</time>
      </trkpt>
      <trkpt lat="42.19632" lon="3.0831">
        <ele>-6</ele>
        <time>2022-05-21 09:03:47</time>
      </trkpt>
      <trkpt lat="42.1964" lon="3.08311">
        <ele>-6</ele>
        <time>2022-05-21 09:03:48</time>
      </trkpt>
      <trkpt lat="42.19647" lon="3.08312">
        <ele>-6</ele>
        <time>2022-05-21 09:03:49</time>
      </trkpt>
      <trkpt lat="42.19654" lon="3.08313">
        <ele>-6</ele>
        <time>2022-05-21 09:03:50</time>
      </trkpt>
      <trkpt lat="42.19661" lon="3.08315">
        <ele>-6</ele>
        <time>2022-05-21 09:03:51</time>
      </trkpt>
      <trkpt lat="42.19668" lon="3.08316">
        <ele>-6</ele>
        <time>2022-05-21 09:03:52</time>
      </trkpt>
      <trkpt lat="42.19676" lon="3.08317">
        <ele>-6</ele>
        <time>2022-05-21 09:03:53</time>
      </trkpt>
      <trkpt lat="42.19683" lon="3.08318">
        <ele>-6</ele>
        <time>2022-05-21 09:03:54</time>
      </trkpt>
      <trkpt lat="42.19691" lon="3.08319">
        <ele>-5.8</ele>
        <time>2022-05-21 09:03:55</time>
      </trkpt>
      <trkpt lat="42.19698" lon="3.08321">
        <ele>-5.8</ele>
        <time>2022-05-21 09:03:56</time>
      </trkpt>
      <trkpt lat="42.19706" lon="3.08322">
        <ele>-5.8</ele>
        <time>2022-05-21 09:03:57</time>
      </trkpt>
      <trkpt lat="42.19713" lon="3.08322">
        <ele>-6</ele>
        <time>2022-05-21 09:03:58</time>
      </trkpt>
      <trkpt lat="42.1972" lon="3.08324">
        <ele>-6</ele>
        <time>2022-05-21 09:03:59</time>
      </trkpt>
      <trkpt lat="42.19724" lon="3.08324">
        <ele>-6</ele>
        <time>2022-05-21 09:04:00</time>
      </trkpt>
      <trkpt lat="42.19735" lon="3.08326">
        <ele>-6</ele>
        <time>2022-05-21 09:04:01</time>
      </trkpt>
      <trkpt lat="42.19741" lon="3.08327">
        <ele>-5.8</ele>
        <time>2022-05-21 09:04:02</time>
      </trkpt>
      <trkpt lat="42.19749" lon="3.08329">
        <ele>-5.8</ele>
        <time>2022-05-21 09:04:03</time>
      </trkpt>
      <trkpt lat="42.19755" lon="3.0833">
        <ele>-5.8</ele>
        <time>2022-05-21 09:04:04</time>
      </trkpt>
      <trkpt lat="42.19764" lon="3.08332">
        <ele>-5.8</ele>
        <time>2022-05-21 09:04:05</time>
      </trkpt>
      <trkpt lat="42.19769" lon="3.08333">
        <ele>-5.8</ele>
        <time>2022-05-21 09:04:06</time>
      </trkpt>
      <trkpt lat="42.19779" lon="3.08334">
        <ele>-5.8</ele>
        <time>2022-05-21 09:04:07</time>
      </trkpt>
      <trkpt lat="42.19784" lon="3.08335">
        <ele>-5.8</ele>
        <time>2022-05-21 09:04:08</time>
      </trkpt>
      <trkpt lat="42.19793" lon="3.08337">
        <ele>-5.8</ele>
        <time>2022-05-21 09:04:09</time>
      </trkpt>
      <trkpt lat="42.19799" lon="3.08338">
        <ele>-6</ele>
        <time>2022-05-21 09:04:10</time>
      </trkpt>
      <trkpt lat="42.19808" lon="3.08339">
        <ele>-6</ele>
        <time>2022-05-21 09:04:11</time>
      </trkpt>
      <trkpt lat="42.19813" lon="3.0834">
        <ele>-6</ele>
        <time>2022-05-21 09:04:12</time>
      </trkpt>
      <trkpt lat="42.19823" lon="3.08342">
        <ele>-6</ele>
        <time>2022-05-21 09:04:13</time>
      </trkpt>
      <trkpt lat="42.19828" lon="3.08343">
        <ele>-6</ele>
        <time>2022-05-21 09:04:14</time>
      </trkpt>
      <trkpt lat="42.19838" lon="3.08344">
        <ele>-6</ele>
        <time>2022-05-21 09:04:15</time>
      </trkpt>
      <trkpt lat="42.19843" lon="3.08345">
        <ele>-6</ele>
        <time>2022-05-21 09:04:16</time>
      </trkpt>
      <trkpt lat="42.19853" lon="3.08347">
        <ele>-6</ele>
        <time>2022-05-21 09:04:17</time>
      </trkpt>
      <trkpt lat="42.19858" lon="3.08347">
        <ele>-6</ele>
        <time>2022-05-21 09:04:18</time>
      </trkpt>
      <trkpt lat="42.19867" lon="3.08349">
        <ele>-6</ele>
        <time>2022-05-21 09:04:19</time>
      </trkpt>
      <trkpt lat="42.19873" lon="3.0835">
        <ele>-6</ele>
        <time>2022-05-21 09:04:20</time>
      </trkpt>
      <trkpt lat="42.19882" lon="3.08352">
        <ele>-6</ele>
        <time>2022-05-21 09:04:21</time>
      </trkpt>
      <trkpt lat="42.19887" lon="3.08353">
        <ele>-6</ele>
        <time>2022-05-21 09:04:22</time>
      </trkpt>
      <trkpt lat="42.19897" lon="3.08354">
        <ele>-6</ele>
        <time>2022-05-21 09:04:23</time>
      </trkpt>
      <trkpt lat="42.19905" lon="3.08356">
        <ele>-6</ele>
        <time>2022-05-21 09:04:24</time>
      </trkpt>
      <trkpt lat="42.19912" lon="3.08357">
        <ele>-6</ele>
        <time>2022-05-21 09:04:25</time>
      </trkpt>
      <trkpt lat="42.19919" lon="3.08358">
        <ele>-6</ele>
        <time>2022-05-21 09:04:26</time>
      </trkpt>
      <trkpt lat="42.19927" lon="3.0836">
        <ele>-6</ele>
        <time>2022-05-21 09:04:27</time>
      </trkpt>
      <trkpt lat="42.19932" lon="3.0836">
        <ele>-6.2</ele>
        <time>2022-05-21 09:04:28</time>
      </trkpt>
      <trkpt lat="42.1994" lon="3.08362">
        <ele>-6.2</ele>
        <time>2022-05-21 09:04:29</time>
      </trkpt>
      <trkpt lat="42.19949" lon="3.08363">
        <ele>-6.2</ele>
        <time>2022-05-21 09:04:30</time>
      </trkpt>
      <trkpt lat="42.19957" lon="3.08364">
        <ele>-6.2</ele>
        <time>2022-05-21 09:04:31</time>
      </trkpt>
      <trkpt lat="42.19964" lon="3.08366">
        <ele>-6.2</ele>
        <time>2022-05-21 09:04:32</time>
      </trkpt>
      <trkpt lat="42.19971" lon="3.08367">
        <ele>-6.2</ele>
        <time>2022-05-21 09:04:33</time>
      </trkpt>
      <trkpt lat="42.19979" lon="3.08368">
        <ele>-6.2</ele>
        <time>2022-05-21 09:04:34</time>
      </trkpt>
      <trkpt lat="42.19986" lon="3.08369">
        <ele>-6.2</ele>
        <time>2022-05-21 09:04:35</time>
      </trkpt>
      <trkpt lat="42.19994" lon="3.0837">
        <ele>-6.2</ele>
        <time>2022-05-21 09:04:36</time>
      </trkpt>
      <trkpt lat="42.20001" lon="3.08372">
        <ele>-6.2</ele>
        <time>2022-05-21 09:04:37</time>
      </trkpt>
      <trkpt lat="42.20008" lon="3.08373">
        <ele>-6.2</ele>
        <time>2022-05-21 09:04:38</time>
      </trkpt>
      <trkpt lat="42.20016" lon="3.08374">
        <ele>-6.2</ele>
        <time>2022-05-21 09:04:39</time>
      </trkpt>
      <trkpt lat="42.20023" lon="3.08375">
        <ele>-6.2</ele>
        <time>2022-05-21 09:04:40</time>
      </trkpt>
      <trkpt lat="42.2003" lon="3.08377">
        <ele>-6.2</ele>
        <time>2022-05-21 09:04:41</time>
      </trkpt>
      <trkpt lat="42.20037" lon="3.08378">
        <ele>-6.4</ele>
        <time>2022-05-21 09:04:42</time>
      </trkpt>
      <trkpt lat="42.20046" lon="3.0838">
        <ele>-6.4</ele>
        <time>2022-05-21 09:04:43</time>
      </trkpt>
      <trkpt lat="42.20053" lon="3.08381">
        <ele>-6.4</ele>
        <time>2022-05-21 09:04:44</time>
      </trkpt>
      <trkpt lat="42.2006" lon="3.08382">
        <ele>-6.4</ele>
        <time>2022-05-21 09:04:45</time>
      </trkpt>
      <trkpt lat="42.20067" lon="3.08383">
        <ele>-6.4</ele>
        <time>2022-05-21 09:04:46</time>
      </trkpt>
      <trkpt lat="42.20074" lon="3.08384">
        <ele>-6.4</ele>
        <time>2022-05-21 09:04:47</time>
      </trkpt>
      <trkpt lat="42.20082" lon="3.08386">
        <ele>-6.4</ele>
        <time>2022-05-21 09:04:48</time>
      </trkpt>
      <trkpt lat="42.20089" lon="3.08387">
        <ele>-6.4</ele>
        <time>2022-05-21 09:04:49</time>
      </trkpt>
      <trkpt lat="42.20097" lon="3.08388">
        <ele>-6.4</ele>
        <time>2022-05-21 09:04:50</time>
      </trkpt>
      <trkpt lat="42.20104" lon="3.08389">
        <ele>-6.4</ele>
        <time>2022-05-21 09:04:51</time>
      </trkpt>
      <trkpt lat="42.20111" lon="3.08391">
        <ele>-6.4</ele>
        <time>2022-05-21 09:04:52</time>
      </trkpt>
      <trkpt lat="42.20118" lon="3.08392">
        <ele>-6.4</ele>
        <time>2022-05-21 09:04:53</time>
      </trkpt>
      <trkpt lat="42.20126" lon="3.08393">
        <ele>-6.2</ele>
        <time>2022-05-21 09:04:54</time>
      </trkpt>
      <trkpt lat="42.20134" lon="3.08394">
        <ele>-6.2</ele>
        <time>2022-05-21 09:04:55</time>
      </trkpt>
      <trkpt lat="42.20141" lon="3.08395">
        <ele>-6.2</ele>
        <time>2022-05-21 09:04:56</time>
      </trkpt>
      <trkpt lat="42.20148" lon="3.08397">
        <ele>-6.2</ele>
        <time>2022-05-21 09:04:57</time>
      </trkpt>
      <trkpt lat="42.20156" lon="3.08398">
        <ele>-6.2</ele>
        <time>2022-05-21 09:04:58</time>
      </trkpt>
      <trkpt lat="42.20162" lon="3.08399">
        <ele>-6.2</ele>
        <time>2022-05-21 09:04:59</time>
      </trkpt>
      <trkpt lat="42.2017" lon="3.08401">
        <ele>-6.2</ele>
        <time>2022-05-21 09:05:00</time>
      </trkpt>
      <trkpt lat="42.20177" lon="3.08402">
        <ele>-6.2</ele>
        <time>2022-05-21 09:05:01</time>
      </trkpt>
      <trkpt lat="42.20184" lon="3.08403">
        <ele>-6.2</ele>
        <time>2022-05-21 09:05:02</time>
      </trkpt>
      <trkpt lat="42.20191" lon="3.08404">
        <ele>-6.2</ele>
        <time>2022-05-21 09:05:03</time>
      </trkpt>
      <trkpt lat="42.20198" lon="3.08405">
        <ele>-6.2</ele>
        <time>2022-05-21 09:05:04</time>
      </trkpt>
      <trkpt lat="42.20205" lon="3.08406">
        <ele>-6.2</ele>
        <time>2022-05-21 09:05:05</time>
      </trkpt>
      <trkpt lat="42.20212" lon="3.08407">
        <ele>-6.2</ele>
        <time>2022-05-21 09:05:06</time>
      </trkpt>
      <trkpt lat="42.2022" lon="3.08409">
        <ele>-6.2</ele>
        <time>2022-05-21 09:05:07</time>
      </trkpt>
      <trkpt lat="42.20227" lon="3.0841">
        <ele>-6.2</ele>
        <time>2022-05-21 09:05:08</time>
      </trkpt>
      <trkpt lat="42.20234" lon="3.08411">
        <ele>-6.2</ele>
        <time>2022-05-21 09:05:09</time>
      </trkpt>
      <trkpt lat="42.20241" lon="3.08412">
        <ele>-6.2</ele>
        <time>2022-05-21 09:05:10</time>
      </trkpt>
      <trkpt lat="42.20248" lon="3.08414">
        <ele>-6.2</ele>
        <time>2022-05-21 09:05:11</time>
      </trkpt>
      <trkpt lat="42.20255" lon="3.08415">
        <ele>-6.2</ele>
        <time>2022-05-21 09:05:12</time>
      </trkpt>
      <trkpt lat="42.20262" lon="3.08416">
        <ele>-6.2</ele>
        <time>2022-05-21 09:05:13</time>
      </trkpt>
      <trkpt lat="42.20269" lon="3.08417">
        <ele>-6.2</ele>
        <time>2022-05-21 09:05:14</time>
      </trkpt>
      <trkpt lat="42.20276" lon="3.08418">
        <ele>-6.2</ele>
        <time>2022-05-21 09:05:15</time>
      </trkpt>
      <trkpt lat="42.20284" lon="3.0842">
        <ele>-6.2</ele>
        <time>2022-05-21 09:05:16</time>
      </trkpt>
      <trkpt lat="42.20291" lon="3.08421">
        <ele>-6.4</ele>
        <time>2022-05-21 09:05:17</time>
      </trkpt>
      <trkpt lat="42.20297" lon="3.08422">
        <ele>-6.4</ele>
        <time>2022-05-21 09:05:18</time>
      </trkpt>
      <trkpt lat="42.20305" lon="3.08423">
        <ele>-6.2</ele>
        <time>2022-05-21 09:05:19</time>
      </trkpt>
      <trkpt lat="42.20311" lon="3.08425">
        <ele>-6.2</ele>
        <time>2022-05-21 09:05:20</time>
      </trkpt>
      <trkpt lat="42.20319" lon="3.08426">
        <ele>-6.2</ele>
        <time>2022-05-21 09:05:21</time>
      </trkpt>
      <trkpt lat="42.20326" lon="3.08427">
        <ele>-6.2</ele>
        <time>2022-05-21 09:05:22</time>
      </trkpt>
      <trkpt lat="42.20333" lon="3.08428">
        <ele>-6.2</ele>
        <time>2022-05-21 09:05:23</time>
      </trkpt>
      <trkpt lat="42.2034" lon="3.08429">
        <ele>-6.2</ele>
        <time>2022-05-21 09:05:24</time>
      </trkpt>
      <trkpt lat="42.20347" lon="3.0843">
        <ele>-6.4</ele>
        <time>2022-05-21 09:05:25</time>
      </trkpt>
      <trkpt lat="42.20354" lon="3.08431">
        <ele>-6.4</ele>
        <time>2022-05-21 09:05:26</time>
      </trkpt>
      <trkpt lat="42.20361" lon="3.08433">
        <ele>-6.4</ele>
        <time>2022-05-21 09:05:27</time>
      </trkpt>
      <trkpt lat="42.20367" lon="3.08434">
        <ele>-6.4</ele>
        <time>2022-05-21 09:05:28</time>
      </trkpt>
      <trkpt lat="42.20374" lon="3.08435">
        <ele>-6.4</ele>
        <time>2022-05-21 09:05:29</time>
      </trkpt>
      <trkpt lat="42.20381" lon="3.08437">
        <ele>-6.4</ele>
        <time>2022-05-21 09:05:30</time>
      </trkpt>
      <trkpt lat="42.20387" lon="3.08438">
        <ele>-6.4</ele>
        <time>2022-05-21 09:05:31</time>
      </trkpt>
      <trkpt lat="42.20394" lon="3.08439">
        <ele>-6.6</ele>
        <time>2022-05-21 09:05:32</time>
      </trkpt>
      <trkpt lat="42.20401" lon="3.0844">
        <ele>-6.6</ele>
        <time>2022-05-21 09:05:33</time>
      </trkpt>
      <trkpt lat="42.20408" lon="3.08442">
        <ele>-6.6</ele>
        <time>2022-05-21 09:05:34</time>
      </trkpt>
      <trkpt lat="42.20415" lon="3.08443">
        <ele>-6.6</ele>
        <time>2022-05-21 09:05:35</time>
      </trkpt>
      <trkpt lat="42.20421" lon="3.08444">
        <ele>-6.6</ele>
        <time>2022-05-21 09:05:36</time>
      </trkpt>
      <trkpt lat="42.20428" lon="3.08445">
        <ele>-6.6</ele>
        <time>2022-05-21 09:05:37</time>
      </trkpt>
      <trkpt lat="42.20435" lon="3.08446">
        <ele>-6.6</ele>
        <time>2022-05-21 09:05:38</time>
      </trkpt>
      <trkpt lat="42.20442" lon="3.08448">
        <ele>-6.6</ele>
        <time>2022-05-21 09:05:39</time>
      </trkpt>
      <trkpt lat="42.20449" lon="3.08449">
        <ele>-6.6</ele>
        <time>2022-05-21 09:05:40</time>
      </trkpt>
      <trkpt lat="42.20456" lon="3.0845">
        <ele>-6.6</ele>
        <time>2022-05-21 09:05:41</time>
      </trkpt>
      <trkpt lat="42.20463" lon="3.08452">
        <ele>-6.6</ele>
        <time>2022-05-21 09:05:42</time>
      </trkpt>
      <trkpt lat="42.2047" lon="3.08453">
        <ele>-6.6</ele>
        <time>2022-05-21 09:05:43</time>
      </trkpt>
      <trkpt lat="42.20476" lon="3.08454">
        <ele>-6.6</ele>
        <time>2022-05-21 09:05:44</time>
      </trkpt>
      <trkpt lat="42.20483" lon="3.08456">
        <ele>-6.6</ele>
        <time>2022-05-21 09:05:45</time>
      </trkpt>
      <trkpt lat="42.20489" lon="3.08458">
        <ele>-6.6</ele>
        <time>2022-05-21 09:05:46</time>
      </trkpt>
      <trkpt lat="42.20497" lon="3.08459">
        <ele>-6.4</ele>
        <time>2022-05-21 09:05:47</time>
      </trkpt>
      <trkpt lat="42.20504" lon="3.0846">
        <ele>-6.4</ele>
        <time>2022-05-21 09:05:48</time>
      </trkpt>
      <trkpt lat="42.20511" lon="3.0846">
        <ele>-6.4</ele>
        <time>2022-05-21 09:05:49</time>
      </trkpt>
      <trkpt lat="42.20517" lon="3.08461">
        <ele>-6.4</ele>
        <time>2022-05-21 09:05:50</time>
      </trkpt>
      <trkpt lat="42.20525" lon="3.08462">
        <ele>-6.6</ele>
        <time>2022-05-21 09:05:51</time>
      </trkpt>
      <trkpt lat="42.20532" lon="3.08463">
        <ele>-6.6</ele>
        <time>2022-05-21 09:05:52</time>
      </trkpt>
      <trkpt lat="42.20539" lon="3.08464">
        <ele>-6.6</ele>
        <time>2022-05-21 09:05:53</time>
      </trkpt>
      <trkpt lat="42.20547" lon="3.08465">
        <ele>-6.6</ele>
        <time>2022-05-21 09:05:54</time>
      </trkpt>
      <trkpt lat="42.20554" lon="3.08467">
        <ele>-6.6</ele>
        <time>2022-05-21 09:05:55</time>
      </trkpt>
      <trkpt lat="42.20561" lon="3.08468">
        <ele>-6.6</ele>
        <time>2022-05-21 09:05:56</time>
      </trkpt>
      <trkpt lat="42.20569" lon="3.08469">
        <ele>-6.6</ele>
        <time>2022-05-21 09:05:57</time>
      </trkpt>
      <trkpt lat="42.20576" lon="3.0847">
        <ele>-6.6</ele>
        <time>2022-05-21 09:05:58</time>
      </trkpt>
      <trkpt lat="42.20583" lon="3.08471">
        <ele>-6.6</ele>
        <time>2022-05-21 09:05:59</time>
      </trkpt>
      <trkpt lat="42.2059" lon="3.08473">
        <ele>-6.6</ele>
        <time>2022-05-21 09:06:00</time>
      </trkpt>
      <trkpt lat="42.20597" lon="3.08474">
        <ele>-6.6</ele>
        <time>2022-05-21 09:06:01</time>
      </trkpt>
      <trkpt lat="42.20605" lon="3.08475">
        <ele>-6.6</ele>
        <time>2022-05-21 09:06:02</time>
      </trkpt>
      <trkpt lat="42.20611" lon="3.08476">
        <ele>-6.6</ele>
        <time>2022-05-21 09:06:03</time>
      </trkpt>
      <trkpt lat="42.20619" lon="3.08478">
        <ele>-6.6</ele>
        <time>2022-05-21 09:06:04</time>
      </trkpt>
      <trkpt lat="42.20626" lon="3.08479">
        <ele>-6.4</ele>
        <time>2022-05-21 09:06:05</time>
      </trkpt>
      <trkpt lat="42.20633" lon="3.0848">
        <ele>-6.4</ele>
        <time>2022-05-21 09:06:06</time>
      </trkpt>
      <trkpt lat="42.2064" lon="3.08481">
        <ele>-6.4</ele>
        <time>2022-05-21 09:06:07</time>
      </trkpt>
      <trkpt lat="42.20647" lon="3.08482">
        <ele>-6.4</ele>
        <time>2022-05-21 09:06:08</time>
      </trkpt>
      <trkpt lat="42.20654" lon="3.08483">
        <ele>-6.2</ele>
        <time>2022-05-21 09:06:09</time>
      </trkpt>
      <trkpt lat="42.20661" lon="3.08485">
        <ele>-6.2</ele>
        <time>2022-05-21 09:06:10</time>
      </trkpt>
      <trkpt lat="42.20668" lon="3.08486">
        <ele>-6.2</ele>
        <time>2022-05-21 09:06:11</time>
      </trkpt>
      <trkpt lat="42.20675" lon="3.08487">
        <ele>-6.2</ele>
        <time>2022-05-21 09:06:12</time>
      </trkpt>
      <trkpt lat="42.20682" lon="3.08488">
        <ele>-6.2</ele>
        <time>2022-05-21 09:06:13</time>
      </trkpt>
      <trkpt lat="42.20689" lon="3.08489">
        <ele>-6.2</ele>
        <time>2022-05-21 09:06:14</time>
      </trkpt>
      <trkpt lat="42.20696" lon="3.0849">
        <ele>-6.2</ele>
        <time>2022-05-21 09:06:15</time>
      </trkpt>
      <trkpt lat="42.20703" lon="3.08491">
        <ele>-6.2</ele>
        <time>2022-05-21 09:06:16</time>
      </trkpt>
      <trkpt lat="42.2071" lon="3.08492">
        <ele>-6.2</ele>
        <time>2022-05-21 09:06:17</time>
      </trkpt>
      <trkpt lat="42.20717" lon="3.08493">
        <ele>-6.2</ele>
        <time>2022-05-21 09:06:18</time>
      </trkpt>
      <trkpt lat="42.20724" lon="3.08494">
        <ele>-6.4</ele>
        <time>2022-05-21 09:06:19</time>
      </trkpt>
      <trkpt lat="42.20731" lon="3.08495">
        <ele>-6.4</ele>
        <time>2022-05-21 09:06:20</time>
      </trkpt>
      <trkpt lat="42.20738" lon="3.08497">
        <ele>-6.4</ele>
        <time>2022-05-21 09:06:21</time>
      </trkpt>
      <trkpt lat="42.20745" lon="3.08497">
        <ele>-6.4</ele>
        <time>2022-05-21 09:06:22</time>
      </trkpt>
      <trkpt lat="42.20752" lon="3.08499">
        <ele>-6.4</ele>
        <time>2022-05-21 09:06:23</time>
      </trkpt>
      <trkpt lat="42.20759" lon="3.085">
        <ele>-6.4</ele>
        <time>2022-05-21 09:06:24</time>
      </trkpt>
      <trkpt lat="42.20766" lon="3.08501">
        <ele>-6.4</ele>
        <time>2022-05-21 09:06:25</time>
      </trkpt>
      <trkpt lat="42.20773" lon="3.08502">
        <ele>-6.4</ele>
        <time>2022-05-21 09:06:26</time>
      </trkpt>
      <trkpt lat="42.20779" lon="3.08503">
        <ele>-6.2</ele>
        <time>2022-05-21 09:06:27</time>
      </trkpt>
      <trkpt lat="42.20786" lon="3.08504">
        <ele>-6.2</ele>
        <time>2022-05-21 09:06:28</time>
      </trkpt>
      <trkpt lat="42.20793" lon="3.08506">
        <ele>-6.2</ele>
        <time>2022-05-21 09:06:29</time>
      </trkpt>
      <trkpt lat="42.208" lon="3.08507">
        <ele>-6</ele>
        <time>2022-05-21 09:06:30</time>
      </trkpt>
      <trkpt lat="42.20806" lon="3.08508">
        <ele>-5.8</ele>
        <time>2022-05-21 09:06:31</time>
      </trkpt>
      <trkpt lat="42.20813" lon="3.08509">
        <ele>-5.8</ele>
        <time>2022-05-21 09:06:32</time>
      </trkpt>
      <trkpt lat="42.20819" lon="3.0851">
        <ele>-5.6</ele>
        <time>2022-05-21 09:06:33</time>
      </trkpt>
      <trkpt lat="42.20826" lon="3.08511">
        <ele>-5.6</ele>
        <time>2022-05-21 09:06:34</time>
      </trkpt>
      <trkpt lat="42.20833" lon="3.08512">
        <ele>-5.6</ele>
        <time>2022-05-21 09:06:35</time>
      </trkpt>
      <trkpt lat="42.2084" lon="3.08514">
        <ele>-5.4</ele>
        <time>2022-05-21 09:06:36</time>
      </trkpt>
      <trkpt lat="42.20846" lon="3.08515">
        <ele>-5.4</ele>
        <time>2022-05-21 09:06:37</time>
      </trkpt>
      <trkpt lat="42.20854" lon="3.08516">
        <ele>-5.4</ele>
        <time>2022-05-21 09:06:38</time>
      </trkpt>
      <trkpt lat="42.20861" lon="3.08517">
        <ele>-5.6</ele>
        <time>2022-05-21 09:06:39</time>
      </trkpt>
      <trkpt lat="42.20868" lon="3.08518">
        <ele>-5.6</ele>
        <time>2022-05-21 09:06:40</time>
      </trkpt>
      <trkpt lat="42.20875" lon="3.0852">
        <ele>-5.6</ele>
        <time>2022-05-21 09:06:41</time>
      </trkpt>
      <trkpt lat="42.20882" lon="3.08521">
        <ele>-5.6</ele>
        <time>2022-05-21 09:06:42</time>
      </trkpt>
      <trkpt lat="42.20889" lon="3.08522">
        <ele>-5.6</ele>
        <time>2022-05-21 09:06:43</time>
      </trkpt>
      <trkpt lat="42.20896" lon="3.08523">
        <ele>-5.8</ele>
        <time>2022-05-21 09:06:44</time>
      </trkpt>
      <trkpt lat="42.20904" lon="3.08525">
        <ele>-5.8</ele>
        <time>2022-05-21 09:06:45</time>
      </trkpt>
      <trkpt lat="42.20911" lon="3.08526">
        <ele>-6</ele>
        <time>2022-05-21 09:06:46</time>
      </trkpt>
      <trkpt lat="42.20919" lon="3.08527">
        <ele>-6</ele>
        <time>2022-05-21 09:06:47</time>
      </trkpt>
      <trkpt lat="42.20926" lon="3.08528">
        <ele>-6</ele>
        <time>2022-05-21 09:06:48</time>
      </trkpt>
      <trkpt lat="42.20933" lon="3.0853">
        <ele>-6.2</ele>
        <time>2022-05-21 09:06:49</time>
      </trkpt>
      <trkpt lat="42.2094" lon="3.08531">
        <ele>-6.2</ele>
        <time>2022-05-21 09:06:50</time>
      </trkpt>
      <trkpt lat="42.20948" lon="3.08532">
        <ele>-6.2</ele>
        <time>2022-05-21 09:06:51</time>
      </trkpt>
      <trkpt lat="42.20955" lon="3.08533">
        <ele>-6.4</ele>
        <time>2022-05-21 09:06:52</time>
      </trkpt>
      <trkpt lat="42.20963" lon="3.08534">
        <ele>-6.4</ele>
        <time>2022-05-21 09:06:53</time>
      </trkpt>
      <trkpt lat="42.20971" lon="3.08536">
        <ele>-6.4</ele>
        <time>2022-05-21 09:06:54</time>
      </trkpt>
      <trkpt lat="42.20978" lon="3.08537">
        <ele>-6.6</ele>
        <time>2022-05-21 09:06:55</time>
      </trkpt>
      <trkpt lat="42.20985" lon="3.08538">
        <ele>-6.6</ele>
        <time>2022-05-21 09:06:56</time>
      </trkpt>
      <trkpt lat="42.20993" lon="3.08539">
        <ele>-6.6</ele>
        <time>2022-05-21 09:06:57</time>
      </trkpt>
      <trkpt lat="42.21" lon="3.0854">
        <ele>-6.6</ele>
        <time>2022-05-21 09:06:58</time>
      </trkpt>
      <trkpt lat="42.21007" lon="3.08541">
        <ele>-6.6</ele>
        <time>2022-05-21 09:06:59</time>
      </trkpt>
      <trkpt lat="42.21014" lon="3.08542">
        <ele>-6.6</ele>
        <time>2022-05-21 09:07:00</time>
      </trkpt>
      <trkpt lat="42.21021" lon="3.08544">
        <ele>-6.6</ele>
        <time>2022-05-21 09:07:01</time>
      </trkpt>
      <trkpt lat="42.21028" lon="3.08545">
        <ele>-6.6</ele>
        <time>2022-05-21 09:07:02</time>
      </trkpt>
      <trkpt lat="42.21036" lon="3.08546">
        <ele>-6.6</ele>
        <time>2022-05-21 09:07:03</time>
      </trkpt>
      <trkpt lat="42.21042" lon="3.08548">
        <ele>-6.6</ele>
        <time>2022-05-21 09:07:04</time>
      </trkpt>
      <trkpt lat="42.21049" lon="3.08549">
        <ele>-6.6</ele>
        <time>2022-05-21 09:07:05</time>
      </trkpt>
      <trkpt lat="42.21056" lon="3.0855">
        <ele>-6.6</ele>
        <time>2022-05-21 09:07:06</time>
      </trkpt>
      <trkpt lat="42.21063" lon="3.08551">
        <ele>-6.6</ele>
        <time>2022-05-21 09:07:07</time>
      </trkpt>
      <trkpt lat="42.2107" lon="3.08552">
        <ele>-6.6</ele>
        <time>2022-05-21 09:07:08</time>
      </trkpt>
      <trkpt lat="42.21078" lon="3.08553">
        <ele>-6.6</ele>
        <time>2022-05-21 09:07:09</time>
      </trkpt>
      <trkpt lat="42.21084" lon="3.08554">
        <ele>-6.6</ele>
        <time>2022-05-21 09:07:10</time>
      </trkpt>
      <trkpt lat="42.21091" lon="3.08555">
        <ele>-6.6</ele>
        <time>2022-05-21 09:07:11</time>
      </trkpt>
      <trkpt lat="42.21097" lon="3.08556">
        <ele>-6.6</ele>
        <time>2022-05-21 09:07:12</time>
      </trkpt>
      <trkpt lat="42.21105" lon="3.08558">
        <ele>-6.6</ele>
        <time>2022-05-21 09:07:13</time>
      </trkpt>
      <trkpt lat="42.21112" lon="3.08559">
        <ele>-6.4</ele>
        <time>2022-05-21 09:07:14</time>
      </trkpt>
      <trkpt lat="42.21118" lon="3.0856">
        <ele>-6.4</ele>
        <time>2022-05-21 09:07:15</time>
      </trkpt>
      <trkpt lat="42.21125" lon="3.08562">
        <ele>-6.4</ele>
        <time>2022-05-21 09:07:16</time>
      </trkpt>
      <trkpt lat="42.21132" lon="3.08563">
        <ele>-6.4</ele>
        <time>2022-05-21 09:07:17</time>
      </trkpt>
      <trkpt lat="42.21139" lon="3.08565">
        <ele>-6.4</ele>
        <time>2022-05-21 09:07:18</time>
      </trkpt>
      <trkpt lat="42.21146" lon="3.08567">
        <ele>-6.4</ele>
        <time>2022-05-21 09:07:19</time>
      </trkpt>
      <trkpt lat="42.21153" lon="3.08568">
        <ele>-6.4</ele>
        <time>2022-05-21 09:07:20</time>
      </trkpt>
      <trkpt lat="42.2116" lon="3.08571">
        <ele>-6.4</ele>
        <time>2022-05-21 09:07:21</time>
      </trkpt>
      <trkpt lat="42.21167" lon="3.08573">
        <ele>-6.4</ele>
        <time>2022-05-21 09:07:22</time>
      </trkpt>
      <trkpt lat="42.21174" lon="3.08576">
        <ele>-6.4</ele>
        <time>2022-05-21 09:07:23</time>
      </trkpt>
      <trkpt lat="42.21181" lon="3.0858">
        <ele>-6.4</ele>
        <time>2022-05-21 09:07:24</time>
      </trkpt>
      <trkpt lat="42.21187" lon="3.08582">
        <ele>-6.4</ele>
        <time>2022-05-21 09:07:25</time>
      </trkpt>
      <trkpt lat="42.21195" lon="3.08586">
        <ele>-6.4</ele>
        <time>2022-05-21 09:07:26</time>
      </trkpt>
      <trkpt lat="42.21201" lon="3.0859">
        <ele>-6.4</ele>
        <time>2022-05-21 09:07:27</time>
      </trkpt>
      <trkpt lat="42.21208" lon="3.08594">
        <ele>-6.4</ele>
        <time>2022-05-21 09:07:28</time>
      </trkpt>
      <trkpt lat="42.21214" lon="3.08598">
        <ele>-6.4</ele>
        <time>2022-05-21 09:07:29</time>
      </trkpt>
      <trkpt lat="42.2122" lon="3.08602">
        <ele>-6.4</ele>
        <time>2022-05-21 09:07:30</time>
      </trkpt>
      <trkpt lat="42.21227" lon="3.08606">
        <ele>-6.2</ele>
        <time>2022-05-21 09:07:31</time>
      </trkpt>
      <trkpt lat="42.21233" lon="3.08611">
        <ele>-6.2</ele>
        <time>2022-05-21 09:07:32</time>
      </trkpt>
      <trkpt lat="42.21239" lon="3.08615">
        <ele>-6.2</ele>
        <time>2022-05-21 09:07:33</time>
      </trkpt>
      <trkpt lat="42.21246" lon="3.08619">
        <ele>-6.2</ele>
        <time>2022-05-21 09:07:34</time>
      </trkpt>
      <trkpt lat="42.21252" lon="3.08623">
        <ele>-6.2</ele>
        <time>2022-05-21 09:07:35</time>
      </trkpt>
      <trkpt lat="42.21259" lon="3.08628">
        <ele>-6.2</ele>
        <time>2022-05-21 09:07:36</time>
      </trkpt>
      <trkpt lat="42.21265" lon="3.08632">
        <ele>-6.2</ele>
        <time>2022-05-21 09:07:37</time>
      </trkpt>
      <trkpt lat="42.21272" lon="3.08637">
        <ele>-6.2</ele>
        <time>2022-05-21 09:07:38</time>
      </trkpt>
      <trkpt lat="42.21279" lon="3.08641">
        <ele>-6.4</ele>
        <time>2022-05-21 09:07:39</time>
      </trkpt>
      <trkpt lat="42.21285" lon="3.08646">
        <ele>-6.4</ele>
        <time>2022-05-21 09:07:40</time>
      </trkpt>
      <trkpt lat="42.21292" lon="3.0865">
        <ele>-6.4</ele>
        <time>2022-05-21 09:07:41</time>
      </trkpt>
      <trkpt lat="42.21298" lon="3.08654">
        <ele>-6.6</ele>
        <time>2022-05-21 09:07:42</time>
      </trkpt>
      <trkpt lat="42.21305" lon="3.08658">
        <ele>-6.8</ele>
        <time>2022-05-21 09:07:43</time>
      </trkpt>
      <trkpt lat="42.21311" lon="3.08663">
        <ele>-6.8</ele>
        <time>2022-05-21 09:07:44</time>
      </trkpt>
      <trkpt lat="42.21318" lon="3.08667">
        <ele>-7</ele>
        <time>2022-05-21 09:07:45</time>
      </trkpt>
      <trkpt lat="42.21324" lon="3.08671">
        <ele>-7</ele>
        <time>2022-05-21 09:07:46</time>
      </trkpt>
      <trkpt lat="42.2133" lon="3.08675">
        <ele>-7</ele>
        <time>2022-05-21 09:07:47</time>
      </trkpt>
      <trkpt lat="42.21337" lon="3.0868">
        <ele>-7</ele>
        <time>2022-05-21 09:07:48</time>
      </trkpt>
      <trkpt lat="42.21343" lon="3.08684">
        <ele>-7</ele>
        <time>2022-05-21 09:07:49</time>
      </trkpt>
      <trkpt lat="42.2135" lon="3.08688">
        <ele>-6.8</ele>
        <time>2022-05-21 09:07:50</time>
      </trkpt>
      <trkpt lat="42.21356" lon="3.08692">
        <ele>-6.8</ele>
        <time>2022-05-21 09:07:51</time>
      </trkpt>
      <trkpt lat="42.21363" lon="3.08696">
        <ele>-6.8</ele>
        <time>2022-05-21 09:07:52</time>
      </trkpt>
      <trkpt lat="42.21369" lon="3.08701">
        <ele>-6.8</ele>
        <time>2022-05-21 09:07:53</time>
      </trkpt>
      <trkpt lat="42.21375" lon="3.08705">
        <ele>-6.8</ele>
        <time>2022-05-21 09:07:54</time>
      </trkpt>
      <trkpt lat="42.21382" lon="3.08709">
        <ele>-6.8</ele>
        <time>2022-05-21 09:07:55</time>
      </trkpt>
      <trkpt lat="42.21388" lon="3.08714">
        <ele>-6.8</ele>
        <time>2022-05-21 09:07:56</time>
      </trkpt>
      <trkpt lat="42.21395" lon="3.08718">
        <ele>-6.8</ele>
        <time>2022-05-21 09:07:57</time>
      </trkpt>
      <trkpt lat="42.21401" lon="3.08722">
        <ele>-6.8</ele>
        <time>2022-05-21 09:07:58</time>
      </trkpt>
      <trkpt lat="42.21408" lon="3.08727">
        <ele>-6.8</ele>
        <time>2022-05-21 09:07:59</time>
      </trkpt>
      <trkpt lat="42.21414" lon="3.08731">
        <ele>-6.8</ele>
        <time>2022-05-21 09:08:00</time>
      </trkpt>
      <trkpt lat="42.21421" lon="3.08736">
        <ele>-6.8</ele>
        <time>2022-05-21 09:08:01</time>
      </trkpt>
      <trkpt lat="42.21427" lon="3.0874">
        <ele>-6.8</ele>
        <time>2022-05-21 09:08:02</time>
      </trkpt>
      <trkpt lat="42.21433" lon="3.08744">
        <ele>-6.8</ele>
        <time>2022-05-21 09:08:03</time>
      </trkpt>
      <trkpt lat="42.21439" lon="3.08749">
        <ele>-6.6</ele>
        <time>2022-05-21 09:08:04</time>
      </trkpt>
      <trkpt lat="42.21446" lon="3.08753">
        <ele>-6.6</ele>
        <time>2022-05-21 09:08:05</time>
      </trkpt>
      <trkpt lat="42.21452" lon="3.08757">
        <ele>-6.6</ele>
        <time>2022-05-21 09:08:06</time>
      </trkpt>
      <trkpt lat="42.21459" lon="3.08761">
        <ele>-6.4</ele>
        <time>2022-05-21 09:08:07</time>
      </trkpt>
      <trkpt lat="42.21465" lon="3.08765">
        <ele>-6.4</ele>
        <time>2022-05-21 09:08:08</time>
      </trkpt>
      <trkpt lat="42.21472" lon="3.0877">
        <ele>-6.2</ele>
        <time>2022-05-21 09:08:09</time>
      </trkpt>
      <trkpt lat="42.21478" lon="3.08774">
        <ele>-6.2</ele>
        <time>2022-05-21 09:08:10</time>
      </trkpt>
      <trkpt lat="42.21484" lon="3.08778">
        <ele>-6.2</ele>
        <time>2022-05-21 09:08:11</time>
      </trkpt>
      <trkpt lat="42.21491" lon="3.08783">
        <ele>-6.2</ele>
        <time>2022-05-21 09:08:12</time>
      </trkpt>
      <trkpt lat="42.21497" lon="3.08787">
        <ele>-6.2</ele>
        <time>2022-05-21 09:08:13</time>
      </trkpt>
      <trkpt lat="42.21504" lon="3.08792">
        <ele>-6.2</ele>
        <time>2022-05-21 09:08:14</time>
      </trkpt>
      <trkpt lat="42.2151" lon="3.08796">
        <ele>-6.2</ele>
        <time>2022-05-21 09:08:15</time>
      </trkpt>
      <trkpt lat="42.21517" lon="3.088">
        <ele>-6.2</ele>
        <time>2022-05-21 09:08:16</time>
      </trkpt>
      <trkpt lat="42.21523" lon="3.08805">
        <ele>-6.2</ele>
        <time>2022-05-21 09:08:17</time>
      </trkpt>
      <trkpt lat="42.2153" lon="3.08809">
        <ele>-6.2</ele>
        <time>2022-05-21 09:08:18</time>
      </trkpt>
      <trkpt lat="42.21536" lon="3.08814">
        <ele>-6.2</ele>
        <time>2022-05-21 09:08:19</time>
      </trkpt>
      <trkpt lat="42.21543" lon="3.08818">
        <ele>-6.2</ele>
        <time>2022-05-21 09:08:20</time>
      </trkpt>
      <trkpt lat="42.2155" lon="3.08822">
        <ele>-6.2</ele>
        <time>2022-05-21 09:08:21</time>
      </trkpt>
      <trkpt lat="42.21556" lon="3.08827">
        <ele>-6.4</ele>
        <time>2022-05-21 09:08:22</time>
      </trkpt>
      <trkpt lat="42.21563" lon="3.08831">
        <ele>-6.4</ele>
        <time>2022-05-21 09:08:23</time>
      </trkpt>
      <trkpt lat="42.21569" lon="3.08835">
        <ele>-6.4</ele>
        <time>2022-05-21 09:08:24</time>
      </trkpt>
      <trkpt lat="42.21576" lon="3.08839">
        <ele>-6.4</ele>
        <time>2022-05-21 09:08:25</time>
      </trkpt>
      <trkpt lat="42.21582" lon="3.08843">
        <ele>-6.4</ele>
        <time>2022-05-21 09:08:26</time>
      </trkpt>
      <trkpt lat="42.21589" lon="3.08848">
        <ele>-6.4</ele>
        <time>2022-05-21 09:08:27</time>
      </trkpt>
      <trkpt lat="42.21595" lon="3.08852">
        <ele>-6.4</ele>
        <time>2022-05-21 09:08:28</time>
      </trkpt>
      <trkpt lat="42.21601" lon="3.08855">
        <ele>-6.4</ele>
        <time>2022-05-21 09:08:29</time>
      </trkpt>
      <trkpt lat="42.21607" lon="3.08859">
        <ele>-6.4</ele>
        <time>2022-05-21 09:08:30</time>
      </trkpt>
      <trkpt lat="42.21613" lon="3.08863">
        <ele>-6.4</ele>
        <time>2022-05-21 09:08:31</time>
      </trkpt>
      <trkpt lat="42.2162" lon="3.08867">
        <ele>-6.2</ele>
        <time>2022-05-21 09:08:32</time>
      </trkpt>
      <trkpt lat="42.21626" lon="3.0887">
        <ele>-6.4</ele>
        <time>2022-05-21 09:08:33</time>
      </trkpt>
      <trkpt lat="42.21633" lon="3.08873">
        <ele>-6.4</ele>
        <time>2022-05-21 09:08:34</time>
      </trkpt>
      <trkpt lat="42.21639" lon="3.08875">
        <ele>-6.4</ele>
        <time>2022-05-21 09:08:35</time>
      </trkpt>
      <trkpt lat="42.21646" lon="3.08877">
        <ele>-6.4</ele>
        <time>2022-05-21 09:08:36</time>
      </trkpt>
      <trkpt lat="42.21653" lon="3.08878">
        <ele>-6.4</ele>
        <time>2022-05-21 09:08:37</time>
      </trkpt>
      <trkpt lat="42.2166" lon="3.08879">
        <ele>-6.4</ele>
        <time>2022-05-21 09:08:38</time>
      </trkpt>
      <trkpt lat="42.21667" lon="3.08879">
        <ele>-6.4</ele>
        <time>2022-05-21 09:08:39</time>
      </trkpt>
      <trkpt lat="42.21674" lon="3.08879">
        <ele>-6.4</ele>
        <time>2022-05-21 09:08:40</time>
      </trkpt>
      <trkpt lat="42.21681" lon="3.08878">
        <ele>-6.4</ele>
        <time>2022-05-21 09:08:41</time>
      </trkpt>
      <trkpt lat="42.21688" lon="3.08877">
        <ele>-6.4</ele>
        <time>2022-05-21 09:08:42</time>
      </trkpt>
      <trkpt lat="42.21695" lon="3.08875">
        <ele>-6.6</ele>
        <time>2022-05-21 09:08:43</time>
      </trkpt>
      <trkpt lat="42.21702" lon="3.08874">
        <ele>-6.6</ele>
        <time>2022-05-21 09:08:44</time>
      </trkpt>
      <trkpt lat="42.21709" lon="3.08871">
        <ele>-6.6</ele>
        <time>2022-05-21 09:08:45</time>
      </trkpt>
      <trkpt lat="42.21716" lon="3.08869">
        <ele>-6.6</ele>
        <time>2022-05-21 09:08:46</time>
      </trkpt>
      <trkpt lat="42.21722" lon="3.08866">
        <ele>-6.8</ele>
        <time>2022-05-21 09:08:47</time>
      </trkpt>
      <trkpt lat="42.21729" lon="3.08864">
        <ele>-6.8</ele>
        <time>2022-05-21 09:08:48</time>
      </trkpt>
      <trkpt lat="42.21736" lon="3.08862">
        <ele>-6.8</ele>
        <time>2022-05-21 09:08:49</time>
      </trkpt>
      <trkpt lat="42.21744" lon="3.0886">
        <ele>-6.8</ele>
        <time>2022-05-21 09:08:50</time>
      </trkpt>
      <trkpt lat="42.2175" lon="3.08858">
        <ele>-6.8</ele>
        <time>2022-05-21 09:08:51</time>
      </trkpt>
      <trkpt lat="42.21758" lon="3.08856">
        <ele>-7</ele>
        <time>2022-05-21 09:08:52</time>
      </trkpt>
      <trkpt lat="42.21765" lon="3.08855">
        <ele>-7</ele>
        <time>2022-05-21 09:08:53</time>
      </trkpt>
      <trkpt lat="42.21771" lon="3.08853">
        <ele>-7</ele>
        <time>2022-05-21 09:08:54</time>
      </trkpt>
      <trkpt lat="42.21778" lon="3.08852">
        <ele>-7</ele>
        <time>2022-05-21 09:08:55</time>
      </trkpt>
      <trkpt lat="42.21785" lon="3.08852">
        <ele>-6.8</ele>
        <time>2022-05-21 09:08:56</time>
      </trkpt>
      <trkpt lat="42.21792" lon="3.08851">
        <ele>-6.8</ele>
        <time>2022-05-21 09:08:57</time>
      </trkpt>
      <trkpt lat="42.21799" lon="3.08851">
        <ele>-6.8</ele>
        <time>2022-05-21 09:08:58</time>
      </trkpt>
      <trkpt lat="42.21806" lon="3.08851">
        <ele>-6.8</ele>
        <time>2022-05-21 09:08:59</time>
      </trkpt>
      <trkpt lat="42.21813" lon="3.08851">
        <ele>-6.8</ele>
        <time>2022-05-21 09:09:00</time>
      </trkpt>
      <trkpt lat="42.2182" lon="3.08852">
        <ele>-6.8</ele>
        <time>2022-05-21 09:09:01</time>
      </trkpt>
      <trkpt lat="42.21827" lon="3.08852">
        <ele>-6.8</ele>
        <time>2022-05-21 09:09:02</time>
      </trkpt>
      <trkpt lat="42.21833" lon="3.08853">
        <ele>-6.8</ele>
        <time>2022-05-21 09:09:03</time>
      </trkpt>
      <trkpt lat="42.2184" lon="3.08854">
        <ele>-6.8</ele>
        <time>2022-05-21 09:09:04</time>
      </trkpt>
      <trkpt lat="42.21847" lon="3.08854">
        <ele>-6.8</ele>
        <time>2022-05-21 09:09:05</time>
      </trkpt>
      <trkpt lat="42.21853" lon="3.08855">
        <ele>-6.8</ele>
        <time>2022-05-21 09:09:06</time>
      </trkpt>
      <trkpt lat="42.2186" lon="3.08855">
        <ele>-6.8</ele>
        <time>2022-05-21 09:09:07</time>
      </trkpt>
      <trkpt lat="42.21867" lon="3.08855">
        <ele>-6.8</ele>
        <time>2022-05-21 09:09:08</time>
      </trkpt>
      <trkpt lat="42.21874" lon="3.08856">
        <ele>-6.8</ele>
        <time>2022-05-21 09:09:09</time>
      </trkpt>
      <trkpt lat="42.2188" lon="3.08857">
        <ele>-6.8</ele>
        <time>2022-05-21 09:09:10</time>
      </trkpt>
      <trkpt lat="42.21887" lon="3.08857">
        <ele>-6.8</ele>
        <time>2022-05-21 09:09:11</time>
      </trkpt>
      <trkpt lat="42.21893" lon="3.08858">
        <ele>-6.8</ele>
        <time>2022-05-21 09:09:12</time>
      </trkpt>
      <trkpt lat="42.219" lon="3.08858">
        <ele>-6.8</ele>
        <time>2022-05-21 09:09:13</time>
      </trkpt>
      <trkpt lat="42.21907" lon="3.08858">
        <ele>-6.8</ele>
        <time>2022-05-21 09:09:14</time>
      </trkpt>
      <trkpt lat="42.21913" lon="3.08859">
        <ele>-6.8</ele>
        <time>2022-05-21 09:09:15</time>
      </trkpt>
      <trkpt lat="42.2192" lon="3.08859">
        <ele>-6.8</ele>
        <time>2022-05-21 09:09:16</time>
      </trkpt>
      <trkpt lat="42.21927" lon="3.0886">
        <ele>-6.8</ele>
        <time>2022-05-21 09:09:17</time>
      </trkpt>
      <trkpt lat="42.21933" lon="3.08861">
        <ele>-6.6</ele>
        <time>2022-05-21 09:09:18</time>
      </trkpt>
      <trkpt lat="42.2194" lon="3.08861">
        <ele>-6.6</ele>
        <time>2022-05-21 09:09:19</time>
      </trkpt>
      <trkpt lat="42.21947" lon="3.08862">
        <ele>-6.6</ele>
        <time>2022-05-21 09:09:20</time>
      </trkpt>
      <trkpt lat="42.21953" lon="3.08863">
        <ele>-6.6</ele>
        <time>2022-05-21 09:09:21</time>
      </trkpt>
      <trkpt lat="42.2196" lon="3.08863">
        <ele>-6.6</ele>
        <time>2022-05-21 09:09:22</time>
      </trkpt>
      <trkpt lat="42.21967" lon="3.08864">
        <ele>-6.6</ele>
        <time>2022-05-21 09:09:23</time>
      </trkpt>
      <trkpt lat="42.21973" lon="3.08864">
        <ele>-6.6</ele>
        <time>2022-05-21 09:09:24</time>
      </trkpt>
      <trkpt lat="42.2198" lon="3.08864">
        <ele>-6.6</ele>
        <time>2022-05-21 09:09:25</time>
      </trkpt>
      <trkpt lat="42.21987" lon="3.08864">
        <ele>-6.6</ele>
        <time>2022-05-21 09:09:26</time>
      </trkpt>
      <trkpt lat="42.21993" lon="3.08863">
        <ele>-6.4</ele>
        <time>2022-05-21 09:09:27</time>
      </trkpt>
      <trkpt lat="42.21999" lon="3.08863">
        <ele>-6.4</ele>
        <time>2022-05-21 09:09:28</time>
      </trkpt>
      <trkpt lat="42.22006" lon="3.08862">
        <ele>-6.4</ele>
        <time>2022-05-21 09:09:29</time>
      </trkpt>
      <trkpt lat="42.22012" lon="3.08861">
        <ele>-6.4</ele>
        <time>2022-05-21 09:09:30</time>
      </trkpt>
      <trkpt lat="42.22019" lon="3.08859">
        <ele>-6.4</ele>
        <time>2022-05-21 09:09:31</time>
      </trkpt>
      <trkpt lat="42.22025" lon="3.08857">
        <ele>-6.4</ele>
        <time>2022-05-21 09:09:32</time>
      </trkpt>
      <trkpt lat="42.22031" lon="3.08855">
        <ele>-6.4</ele>
        <time>2022-05-21 09:09:33</time>
      </trkpt>
      <trkpt lat="42.22037" lon="3.08852">
        <ele>-6.4</ele>
        <time>2022-05-21 09:09:34</time>
      </trkpt>
      <trkpt lat="42.22043" lon="3.08849">
        <ele>-6.4</ele>
        <time>2022-05-21 09:09:35</time>
      </trkpt>
      <trkpt lat="42.22049" lon="3.08846">
        <ele>-6.4</ele>
        <time>2022-05-21 09:09:36</time>
      </trkpt>
      <trkpt lat="42.22055" lon="3.08843">
        <ele>-6.6</ele>
        <time>2022-05-21 09:09:37</time>
      </trkpt>
      <trkpt lat="42.22061" lon="3.0884">
        <ele>-6.6</ele>
        <time>2022-05-21 09:09:38</time>
      </trkpt>
      <trkpt lat="42.22067" lon="3.08836">
        <ele>-6.6</ele>
        <time>2022-05-21 09:09:39</time>
      </trkpt>
      <trkpt lat="42.22073" lon="3.08833">
        <ele>-6.6</ele>
        <time>2022-05-21 09:09:40</time>
      </trkpt>
      <trkpt lat="42.22079" lon="3.0883">
        <ele>-6.4</ele>
        <time>2022-05-21 09:09:41</time>
      </trkpt>
      <trkpt lat="42.22084" lon="3.08826">
        <ele>-6.4</ele>
        <time>2022-05-21 09:09:42</time>
      </trkpt>
      <trkpt lat="42.22091" lon="3.08822">
        <ele>-6.4</ele>
        <time>2022-05-21 09:09:43</time>
      </trkpt>
      <trkpt lat="42.22096" lon="3.08819">
        <ele>-6.4</ele>
        <time>2022-05-21 09:09:44</time>
      </trkpt>
      <trkpt lat="42.22102" lon="3.08815">
        <ele>-6.4</ele>
        <time>2022-05-21 09:09:45</time>
      </trkpt>
      <trkpt lat="42.22109" lon="3.08811">
        <ele>-6.4</ele>
        <time>2022-05-21 09:09:46</time>
      </trkpt>
      <trkpt lat="42.22115" lon="3.08808">
        <ele>-6.4</ele>
        <time>2022-05-21 09:09:47</time>
      </trkpt>
      <trkpt lat="42.2212" lon="3.08804">
        <ele>-6.6</ele>
        <time>2022-05-21 09:09:48</time>
      </trkpt>
      <trkpt lat="42.22126" lon="3.088">
        <ele>-6.6</ele>
        <time>2022-05-21 09:09:49</time>
      </trkpt>
      <trkpt lat="42.22133" lon="3.08796">
        <ele>-6.6</ele>
        <time>2022-05-21 09:09:50</time>
      </trkpt>
      <trkpt lat="42.22138" lon="3.08793">
        <ele>-6.6</ele>
        <time>2022-05-21 09:09:51</time>
      </trkpt>
      <trkpt lat="42.22144" lon="3.08789">
        <ele>-6.6</ele>
        <time>2022-05-21 09:09:52</time>
      </trkpt>
      <trkpt lat="42.22151" lon="3.08785">
        <ele>-6.6</ele>
        <time>2022-05-21 09:09:53</time>
      </trkpt>
      <trkpt lat="42.22157" lon="3.08782">
        <ele>-6.8</ele>
        <time>2022-05-21 09:09:54</time>
      </trkpt>
      <trkpt lat="42.22162" lon="3.08778">
        <ele>-6.8</ele>
        <time>2022-05-21 09:09:55</time>
      </trkpt>
      <trkpt lat="42.22168" lon="3.08775">
        <ele>-6.8</ele>
        <time>2022-05-21 09:09:56</time>
      </trkpt>
      <trkpt lat="42.22175" lon="3.08771">
        <ele>-6.8</ele>
        <time>2022-05-21 09:09:57</time>
      </trkpt>
      <trkpt lat="42.22181" lon="3.08768">
        <ele>-6.8</ele>
        <time>2022-05-21 09:09:58</time>
      </trkpt>
      <trkpt lat="42.22187" lon="3.08764">
        <ele>-6.8</ele>
        <time>2022-05-21 09:09:59</time>
      </trkpt>
      <trkpt lat="42.22193" lon="3.08761">
        <ele>-6.8</ele>
        <time>2022-05-21 09:10:00</time>
      </trkpt>
      <trkpt lat="42.22199" lon="3.08758">
        <ele>-6.8</ele>
        <time>2022-05-21 09:10:01</time>
      </trkpt>
      <trkpt lat="42.22206" lon="3.08756">
        <ele>-6.8</ele>
        <time>2022-05-21 09:10:02</time>
      </trkpt>
      <trkpt lat="42.22212" lon="3.08754">
        <ele>-7</ele>
        <time>2022-05-21 09:10:03</time>
      </trkpt>
      <trkpt lat="42.22219" lon="3.08752">
        <ele>-7</ele>
        <time>2022-05-21 09:10:04</time>
      </trkpt>
      <trkpt lat="42.22226" lon="3.0875">
        <ele>-7</ele>
        <time>2022-05-21 09:10:05</time>
      </trkpt>
      <trkpt lat="42.22233" lon="3.08749">
        <ele>-7</ele>
        <time>2022-05-21 09:10:06</time>
      </trkpt>
      <trkpt lat="42.2224" lon="3.08749">
        <ele>-7</ele>
        <time>2022-05-21 09:10:07</time>
      </trkpt>
      <trkpt lat="42.22247" lon="3.08748">
        <ele>-7</ele>
        <time>2022-05-21 09:10:08</time>
      </trkpt>
      <trkpt lat="42.22253" lon="3.08748">
        <ele>-7</ele>
        <time>2022-05-21 09:10:09</time>
      </trkpt>
      <trkpt lat="42.2226" lon="3.08749">
        <ele>-7</ele>
        <time>2022-05-21 09:10:10</time>
      </trkpt>
      <trkpt lat="42.22267" lon="3.08749">
        <ele>-6.8</ele>
        <time>2022-05-21 09:10:11</time>
      </trkpt>
      <trkpt lat="42.22273" lon="3.0875">
        <ele>-6.8</ele>
        <time>2022-05-21 09:10:12</time>
      </trkpt>
      <trkpt lat="42.2228" lon="3.08751">
        <ele>-6.8</ele>
        <time>2022-05-21 09:10:13</time>
      </trkpt>
      <trkpt lat="42.22287" lon="3.08752">
        <ele>-6.8</ele>
        <time>2022-05-21 09:10:14</time>
      </trkpt>
      <trkpt lat="42.22293" lon="3.08753">
        <ele>-6.8</ele>
        <time>2022-05-21 09:10:15</time>
      </trkpt>
      <trkpt lat="42.223" lon="3.08754">
        <ele>-6.8</ele>
        <time>2022-05-21 09:10:16</time>
      </trkpt>
      <trkpt lat="42.22307" lon="3.08756">
        <ele>-6.8</ele>
        <time>2022-05-21 09:10:17</time>
      </trkpt>
      <trkpt lat="42.22314" lon="3.08757">
        <ele>-6.8</ele>
        <time>2022-05-21 09:10:18</time>
      </trkpt>
      <trkpt lat="42.2232" lon="3.08759">
        <ele>-6.8</ele>
        <time>2022-05-21 09:10:19</time>
      </trkpt>
      <trkpt lat="42.22327" lon="3.0876">
        <ele>-7</ele>
        <time>2022-05-21 09:10:20</time>
      </trkpt>
      <trkpt lat="42.22334" lon="3.08761">
        <ele>-7</ele>
        <time>2022-05-21 09:10:21</time>
      </trkpt>
      <trkpt lat="42.22341" lon="3.08763">
        <ele>-7</ele>
        <time>2022-05-21 09:10:22</time>
      </trkpt>
      <trkpt lat="42.22348" lon="3.08765">
        <ele>-7</ele>
        <time>2022-05-21 09:10:23</time>
      </trkpt>
      <trkpt lat="42.22354" lon="3.08767">
        <ele>-7</ele>
        <time>2022-05-21 09:10:24</time>
      </trkpt>
      <trkpt lat="42.22361" lon="3.08768">
        <ele>-7</ele>
        <time>2022-05-21 09:10:25</time>
      </trkpt>
      <trkpt lat="42.22368" lon="3.0877">
        <ele>-7</ele>
        <time>2022-05-21 09:10:26</time>
      </trkpt>
      <trkpt lat="42.22375" lon="3.08771">
        <ele>-7</ele>
        <time>2022-05-21 09:10:27</time>
      </trkpt>
      <trkpt lat="42.22382" lon="3.08773">
        <ele>-7</ele>
        <time>2022-05-21 09:10:28</time>
      </trkpt>
      <trkpt lat="42.22389" lon="3.08775">
        <ele>-6.8</ele>
        <time>2022-05-21 09:10:29</time>
      </trkpt>
      <trkpt lat="42.22395" lon="3.08776">
        <ele>-6.8</ele>
        <time>2022-05-21 09:10:30</time>
      </trkpt>
      <trkpt lat="42.22402" lon="3.08778">
        <ele>-6.8</ele>
        <time>2022-05-21 09:10:31</time>
      </trkpt>
      <trkpt lat="42.22409" lon="3.08779">
        <ele>-6.8</ele>
        <time>2022-05-21 09:10:32</time>
      </trkpt>
      <trkpt lat="42.22415" lon="3.0878">
        <ele>-6.8</ele>
        <time>2022-05-21 09:10:33</time>
      </trkpt>
      <trkpt lat="42.22422" lon="3.08781">
        <ele>-6.8</ele>
        <time>2022-05-21 09:10:34</time>
      </trkpt>
      <trkpt lat="42.22428" lon="3.08781">
        <ele>-6.8</ele>
        <time>2022-05-21 09:10:35</time>
      </trkpt>
      <trkpt lat="42.22434" lon="3.08781">
        <ele>-6.8</ele>
        <time>2022-05-21 09:10:36</time>
      </trkpt>
      <trkpt lat="42.2244" lon="3.0878">
        <ele>-6.8</ele>
        <time>2022-05-21 09:10:37</time>
      </trkpt>
      <trkpt lat="42.22446" lon="3.0878">
        <ele>-6.8</ele>
        <time>2022-05-21 09:10:38</time>
      </trkpt>
      <trkpt lat="42.22452" lon="3.08779">
        <ele>-6.8</ele>
        <time>2022-05-21 09:10:39</time>
      </trkpt>
      <trkpt lat="42.22458" lon="3.08778">
        <ele>-6.8</ele>
        <time>2022-05-21 09:10:40</time>
      </trkpt>
      <trkpt lat="42.22464" lon="3.08777">
        <ele>-6.6</ele>
        <time>2022-05-21 09:10:41</time>
      </trkpt>
      <trkpt lat="42.22469" lon="3.08775">
        <ele>-6.6</ele>
        <time>2022-05-21 09:10:42</time>
      </trkpt>
      <trkpt lat="42.22475" lon="3.08773">
        <ele>-6.6</ele>
        <time>2022-05-21 09:10:43</time>
      </trkpt>
      <trkpt lat="42.22482" lon="3.0877">
        <ele>-6.4</ele>
        <time>2022-05-21 09:10:44</time>
      </trkpt>
      <trkpt lat="42.22488" lon="3.08767">
        <ele>-6.4</ele>
        <time>2022-05-21 09:10:45</time>
      </trkpt>
      <trkpt lat="42.22494" lon="3.08764">
        <ele>-6.4</ele>
        <time>2022-05-21 09:10:46</time>
      </trkpt>
      <trkpt lat="42.225" lon="3.0876">
        <ele>-6.4</ele>
        <time>2022-05-21 09:10:47</time>
      </trkpt>
      <trkpt lat="42.22506" lon="3.08757">
        <ele>-6.4</ele>
        <time>2022-05-21 09:10:48</time>
      </trkpt>
      <trkpt lat="42.22511" lon="3.08753">
        <ele>-6.4</ele>
        <time>2022-05-21 09:10:49</time>
      </trkpt>
      <trkpt lat="42.22517" lon="3.08748">
        <ele>-6.2</ele>
        <time>2022-05-21 09:10:50</time>
      </trkpt>
      <trkpt lat="42.22523" lon="3.08744">
        <ele>-6.2</ele>
        <time>2022-05-21 09:10:51</time>
      </trkpt>
      <trkpt lat="42.22528" lon="3.0874">
        <ele>-6.2</ele>
        <time>2022-05-21 09:10:52</time>
      </trkpt>
      <trkpt lat="42.22534" lon="3.08735">
        <ele>-6.2</ele>
        <time>2022-05-21 09:10:53</time>
      </trkpt>
      <trkpt lat="42.2254" lon="3.08731">
        <ele>-6.2</ele>
        <time>2022-05-21 09:10:54</time>
      </trkpt>
      <trkpt lat="42.22545" lon="3.08727">
        <ele>-6.2</ele>
        <time>2022-05-21 09:10:55</time>
      </trkpt>
      <trkpt lat="42.2255" lon="3.08723">
        <ele>-6.2</ele>
        <time>2022-05-21 09:10:56</time>
      </trkpt>
      <trkpt lat="42.22556" lon="3.08719">
        <ele>-6.2</ele>
        <time>2022-05-21 09:10:57</time>
      </trkpt>
      <trkpt lat="42.22561" lon="3.08715">
        <ele>-6</ele>
        <time>2022-05-21 09:10:58</time>
      </trkpt>
      <trkpt lat="42.22567" lon="3.08712">
        <ele>-6</ele>
        <time>2022-05-21 09:10:59</time>
      </trkpt>
      <trkpt lat="42.22573" lon="3.08708">
        <ele>-5.8</ele>
        <time>2022-05-21 09:11:00</time>
      </trkpt>
      <trkpt lat="42.22578" lon="3.08704">
        <ele>-5.8</ele>
        <time>2022-05-21 09:11:01</time>
      </trkpt>
      <trkpt lat="42.22584" lon="3.08701">
        <ele>-5.6</ele>
        <time>2022-05-21 09:11:02</time>
      </trkpt>
      <trkpt lat="42.2259" lon="3.08699">
        <ele>-5.6</ele>
        <time>2022-05-21 09:11:03</time>
      </trkpt>
      <trkpt lat="42.22596" lon="3.08696">
        <ele>-5.6</ele>
        <time>2022-05-21 09:11:04</time>
      </trkpt>
      <trkpt lat="42.22603" lon="3.08693">
        <ele>-5.4</ele>
        <time>2022-05-21 09:11:05</time>
      </trkpt>
      <trkpt lat="42.22609" lon="3.08691">
        <ele>-5.4</ele>
        <time>2022-05-21 09:11:06</time>
      </trkpt>
      <trkpt lat="42.22615" lon="3.08688">
        <ele>-5.4</ele>
        <time>2022-05-21 09:11:07</time>
      </trkpt>
      <trkpt lat="42.22621" lon="3.08685">
        <ele>-5.4</ele>
        <time>2022-05-21 09:11:08</time>
      </trkpt>
      <trkpt lat="42.22627" lon="3.08683">
        <ele>-5.6</ele>
        <time>2022-05-21 09:11:09</time>
      </trkpt>
      <trkpt lat="42.22633" lon="3.0868">
        <ele>-5.6</ele>
        <time>2022-05-21 09:11:10</time>
      </trkpt>
      <trkpt lat="42.22639" lon="3.08677">
        <ele>-5.6</ele>
        <time>2022-05-21 09:11:11</time>
      </trkpt>
      <trkpt lat="42.22644" lon="3.08674">
        <ele>-5.8</ele>
        <time>2022-05-21 09:11:12</time>
      </trkpt>
      <trkpt lat="42.22651" lon="3.08671">
        <ele>-5.6</ele>
        <time>2022-05-21 09:11:13</time>
      </trkpt>
      <trkpt lat="42.22656" lon="3.08668">
        <ele>-5.6</ele>
        <time>2022-05-21 09:11:14</time>
      </trkpt>
      <trkpt lat="42.22663" lon="3.08665">
        <ele>-5.6</ele>
        <time>2022-05-21 09:11:15</time>
      </trkpt>
      <trkpt lat="42.22669" lon="3.08662">
        <ele>-5.6</ele>
        <time>2022-05-21 09:11:16</time>
      </trkpt>
      <trkpt lat="42.22675" lon="3.08659">
        <ele>-5.6</ele>
        <time>2022-05-21 09:11:17</time>
      </trkpt>
      <trkpt lat="42.22681" lon="3.08655">
        <ele>-5.8</ele>
        <time>2022-05-21 09:11:18</time>
      </trkpt>
      <trkpt lat="42.22687" lon="3.08652">
        <ele>-5.8</ele>
        <time>2022-05-21 09:11:19</time>
      </trkpt>
      <trkpt lat="42.22694" lon="3.08649">
        <ele>-6</ele>
        <time>2022-05-21 09:11:20</time>
      </trkpt>
      <trkpt lat="42.227" lon="3.08645">
        <ele>-6</ele>
        <time>2022-05-21 09:11:21</time>
      </trkpt>
      <trkpt lat="42.22706" lon="3.08641">
        <ele>-6</ele>
        <time>2022-05-21 09:11:22</time>
      </trkpt>
      <trkpt lat="42.22713" lon="3.08638">
        <ele>-6.2</ele>
        <time>2022-05-21 09:11:23</time>
      </trkpt>
      <trkpt lat="42.22719" lon="3.08634">
        <ele>-6.2</ele>
        <time>2022-05-21 09:11:24</time>
      </trkpt>
      <trkpt lat="42.22725" lon="3.0863">
        <ele>-6.4</ele>
        <time>2022-05-21 09:11:25</time>
      </trkpt>
      <trkpt lat="42.22732" lon="3.08626">
        <ele>-6.4</ele>
        <time>2022-05-21 09:11:26</time>
      </trkpt>
      <trkpt lat="42.22738" lon="3.08622">
        <ele>-6.4</ele>
        <time>2022-05-21 09:11:27</time>
      </trkpt>
      <trkpt lat="42.22745" lon="3.08618">
        <ele>-6.4</ele>
        <time>2022-05-21 09:11:28</time>
      </trkpt>
      <trkpt lat="42.22751" lon="3.08614">
        <ele>-6.4</ele>
        <time>2022-05-21 09:11:29</time>
      </trkpt>
      <trkpt lat="42.22757" lon="3.0861">
        <ele>-6.4</ele>
        <time>2022-05-21 09:11:30</time>
      </trkpt>
      <trkpt lat="42.22764" lon="3.08606">
        <ele>-6.4</ele>
        <time>2022-05-21 09:11:31</time>
      </trkpt>
      <trkpt lat="42.2277" lon="3.08602">
        <ele>-6.4</ele>
        <time>2022-05-21 09:11:32</time>
      </trkpt>
      <trkpt lat="42.22776" lon="3.08597">
        <ele>-6.4</ele>
        <time>2022-05-21 09:11:33</time>
      </trkpt>
      <trkpt lat="42.22781" lon="3.08593">
        <ele>-6.6</ele>
        <time>2022-05-21 09:11:34</time>
      </trkpt>
      <trkpt lat="42.22788" lon="3.08588">
        <ele>-6.6</ele>
        <time>2022-05-21 09:11:35</time>
      </trkpt>
      <trkpt lat="42.22794" lon="3.08584">
        <ele>-6.6</ele>
        <time>2022-05-21 09:11:36</time>
      </trkpt>
      <trkpt lat="42.22801" lon="3.08579">
        <ele>-6.6</ele>
        <time>2022-05-21 09:11:37</time>
      </trkpt>
      <trkpt lat="42.22807" lon="3.08575">
        <ele>-6.6</ele>
        <time>2022-05-21 09:11:38</time>
      </trkpt>
      <trkpt lat="42.22813" lon="3.08571">
        <ele>-6.6</ele>
        <time>2022-05-21 09:11:39</time>
      </trkpt>
      <trkpt lat="42.22819" lon="3.08566">
        <ele>-6.6</ele>
        <time>2022-05-21 09:11:40</time>
      </trkpt>
      <trkpt lat="42.22825" lon="3.08562">
        <ele>-6.6</ele>
        <time>2022-05-21 09:11:41</time>
      </trkpt>
      <trkpt lat="42.22831" lon="3.08558">
        <ele>-6.6</ele>
        <time>2022-05-21 09:11:42</time>
      </trkpt>
      <trkpt lat="42.22837" lon="3.08554">
        <ele>-6.6</ele>
        <time>2022-05-21 09:11:43</time>
      </trkpt>
      <trkpt lat="42.22842" lon="3.08549">
        <ele>-6.6</ele>
        <time>2022-05-21 09:11:44</time>
      </trkpt>
      <trkpt lat="42.22848" lon="3.08545">
        <ele>-6.6</ele>
        <time>2022-05-21 09:11:45</time>
      </trkpt>
      <trkpt lat="42.22855" lon="3.08541">
        <ele>-6.4</ele>
        <time>2022-05-21 09:11:46</time>
      </trkpt>
      <trkpt lat="42.2286" lon="3.08537">
        <ele>-6.4</ele>
        <time>2022-05-21 09:11:47</time>
      </trkpt>
      <trkpt lat="42.22867" lon="3.08532">
        <ele>-6.4</ele>
        <time>2022-05-21 09:11:48</time>
      </trkpt>
      <trkpt lat="42.22873" lon="3.08527">
        <ele>-6.4</ele>
        <time>2022-05-21 09:11:49</time>
      </trkpt>
      <trkpt lat="42.22878" lon="3.08523">
        <ele>-6.4</ele>
        <time>2022-05-21 09:11:50</time>
      </trkpt>
      <trkpt lat="42.22884" lon="3.08519">
        <ele>-6.4</ele>
        <time>2022-05-21 09:11:51</time>
      </trkpt>
      <trkpt lat="42.22891" lon="3.08515">
        <ele>-6.4</ele>
        <time>2022-05-21 09:11:52</time>
      </trkpt>
      <trkpt lat="42.22897" lon="3.0851">
        <ele>-6.4</ele>
        <time>2022-05-21 09:11:53</time>
      </trkpt>
      <trkpt lat="42.22903" lon="3.08506">
        <ele>-6.4</ele>
        <time>2022-05-21 09:11:54</time>
      </trkpt>
      <trkpt lat="42.22909" lon="3.08502">
        <ele>-6.4</ele>
        <time>2022-05-21 09:11:55</time>
      </trkpt>
      <trkpt lat="42.22915" lon="3.08497">
        <ele>-6.4</ele>
        <time>2022-05-21 09:11:56</time>
      </trkpt>
      <trkpt lat="42.22921" lon="3.08493">
        <ele>-6.4</ele>
        <time>2022-05-21 09:11:57</time>
      </trkpt>
      <trkpt lat="42.22928" lon="3.08488">
        <ele>-6.4</ele>
        <time>2022-05-21 09:11:58</time>
      </trkpt>
      <trkpt lat="42.22933" lon="3.08484">
        <ele>-6.4</ele>
        <time>2022-05-21 09:11:59</time>
      </trkpt>
      <trkpt lat="42.2294" lon="3.0848">
        <ele>-6.4</ele>
        <time>2022-05-21 09:12:00</time>
      </trkpt>
      <trkpt lat="42.22946" lon="3.08475">
        <ele>-6.4</ele>
        <time>2022-05-21 09:12:01</time>
      </trkpt>
      <trkpt lat="42.22953" lon="3.08471">
        <ele>-6.6</ele>
        <time>2022-05-21 09:12:02</time>
      </trkpt>
      <trkpt lat="42.22959" lon="3.08466">
        <ele>-6.6</ele>
        <time>2022-05-21 09:12:03</time>
      </trkpt>
      <trkpt lat="42.22965" lon="3.08462">
        <ele>-6.6</ele>
        <time>2022-05-21 09:12:04</time>
      </trkpt>
      <trkpt lat="42.22972" lon="3.08457">
        <ele>-6.6</ele>
        <time>2022-05-21 09:12:05</time>
      </trkpt>
      <trkpt lat="42.22978" lon="3.08453">
        <ele>-6.6</ele>
        <time>2022-05-21 09:12:06</time>
      </trkpt>
      <trkpt lat="42.22985" lon="3.08449">
        <ele>-6.4</ele>
        <time>2022-05-21 09:12:07</time>
      </trkpt>
      <trkpt lat="42.22991" lon="3.08445">
        <ele>-6.4</ele>
        <time>2022-05-21 09:12:08</time>
      </trkpt>
      <trkpt lat="42.22998" lon="3.08441">
        <ele>-6.4</ele>
        <time>2022-05-21 09:12:09</time>
      </trkpt>
      <trkpt lat="42.23004" lon="3.08437">
        <ele>-6.6</ele>
        <time>2022-05-21 09:12:10</time>
      </trkpt>
      <trkpt lat="42.23011" lon="3.08433">
        <ele>-6.6</ele>
        <time>2022-05-21 09:12:11</time>
      </trkpt>
      <trkpt lat="42.23018" lon="3.08429">
        <ele>-6.6</ele>
        <time>2022-05-21 09:12:12</time>
      </trkpt>
      <trkpt lat="42.23024" lon="3.08425">
        <ele>-6.6</ele>
        <time>2022-05-21 09:12:13</time>
      </trkpt>
      <trkpt lat="42.23031" lon="3.08422">
        <ele>-6.6</ele>
        <time>2022-05-21 09:12:14</time>
      </trkpt>
      <trkpt lat="42.23037" lon="3.08418">
        <ele>-6.6</ele>
        <time>2022-05-21 09:12:15</time>
      </trkpt>
      <trkpt lat="42.23044" lon="3.08414">
        <ele>-6.6</ele>
        <time>2022-05-21 09:12:16</time>
      </trkpt>
      <trkpt lat="42.23051" lon="3.08411">
        <ele>-6.6</ele>
        <time>2022-05-21 09:12:17</time>
      </trkpt>
      <trkpt lat="42.23058" lon="3.08407">
        <ele>-6.6</ele>
        <time>2022-05-21 09:12:18</time>
      </trkpt>
      <trkpt lat="42.23064" lon="3.08404">
        <ele>-6.6</ele>
        <time>2022-05-21 09:12:19</time>
      </trkpt>
      <trkpt lat="42.23071" lon="3.08401">
        <ele>-6.8</ele>
        <time>2022-05-21 09:12:20</time>
      </trkpt>
      <trkpt lat="42.23077" lon="3.08398">
        <ele>-6.8</ele>
        <time>2022-05-21 09:12:21</time>
      </trkpt>
      <trkpt lat="42.23085" lon="3.08394">
        <ele>-6.8</ele>
        <time>2022-05-21 09:12:22</time>
      </trkpt>
      <trkpt lat="42.23091" lon="3.08392">
        <ele>-6.8</ele>
        <time>2022-05-21 09:12:23</time>
      </trkpt>
      <trkpt lat="42.23098" lon="3.08388">
        <ele>-7</ele>
        <time>2022-05-21 09:12:24</time>
      </trkpt>
      <trkpt lat="42.23104" lon="3.08385">
        <ele>-7</ele>
        <time>2022-05-21 09:12:25</time>
      </trkpt>
      <trkpt lat="42.23111" lon="3.08382">
        <ele>-7</ele>
        <time>2022-05-21 09:12:26</time>
      </trkpt>
      <trkpt lat="42.23118" lon="3.08379">
        <ele>-7</ele>
        <time>2022-05-21 09:12:27</time>
      </trkpt>
      <trkpt lat="42.23125" lon="3.08376">
        <ele>-7</ele>
        <time>2022-05-21 09:12:28</time>
      </trkpt>
      <trkpt lat="42.23131" lon="3.08374">
        <ele>-7</ele>
        <time>2022-05-21 09:12:29</time>
      </trkpt>
      <trkpt lat="42.23138" lon="3.08371">
        <ele>-7</ele>
        <time>2022-05-21 09:12:30</time>
      </trkpt>
      <trkpt lat="42.23144" lon="3.08368">
        <ele>-6.8</ele>
        <time>2022-05-21 09:12:31</time>
      </trkpt>
      <trkpt lat="42.23152" lon="3.08366">
        <ele>-7</ele>
        <time>2022-05-21 09:12:32</time>
      </trkpt>
      <trkpt lat="42.23158" lon="3.08364">
        <ele>-7</ele>
        <time>2022-05-21 09:12:33</time>
      </trkpt>
      <trkpt lat="42.23165" lon="3.08362">
        <ele>-7</ele>
        <time>2022-05-21 09:12:34</time>
      </trkpt>
      <trkpt lat="42.23172" lon="3.0836">
        <ele>-7</ele>
        <time>2022-05-21 09:12:35</time>
      </trkpt>
      <trkpt lat="42.23179" lon="3.08358">
        <ele>-6.8</ele>
        <time>2022-05-21 09:12:36</time>
      </trkpt>
      <trkpt lat="42.23186" lon="3.08357">
        <ele>-6.8</ele>
        <time>2022-05-21 09:12:37</time>
      </trkpt>
      <trkpt lat="42.23193" lon="3.08355">
        <ele>-6.8</ele>
        <time>2022-05-21 09:12:38</time>
      </trkpt>
      <trkpt lat="42.23199" lon="3.08354">
        <ele>-6.8</ele>
        <time>2022-05-21 09:12:39</time>
      </trkpt>
      <trkpt lat="42.23207" lon="3.08353">
        <ele>-6.8</ele>
        <time>2022-05-21 09:12:40</time>
      </trkpt>
      <trkpt lat="42.23213" lon="3.08353">
        <ele>-6.8</ele>
        <time>2022-05-21 09:12:41</time>
      </trkpt>
      <trkpt lat="42.2322" lon="3.08353">
        <ele>-6.8</ele>
        <time>2022-05-21 09:12:42</time>
      </trkpt>
      <trkpt lat="42.23227" lon="3.08353">
        <ele>-6.8</ele>
        <time>2022-05-21 09:12:43</time>
      </trkpt>
      <trkpt lat="42.23234" lon="3.08353">
        <ele>-6.8</ele>
        <time>2022-05-21 09:12:44</time>
      </trkpt>
      <trkpt lat="42.2324" lon="3.08353">
        <ele>-6.8</ele>
        <time>2022-05-21 09:12:45</time>
      </trkpt>
      <trkpt lat="42.23248" lon="3.08353">
        <ele>-6.8</ele>
        <time>2022-05-21 09:12:46</time>
      </trkpt>
      <trkpt lat="42.23255" lon="3.08353">
        <ele>-6.8</ele>
        <time>2022-05-21 09:12:47</time>
      </trkpt>
      <trkpt lat="42.23263" lon="3.08353">
        <ele>-6.8</ele>
        <time>2022-05-21 09:12:48</time>
      </trkpt>
      <trkpt lat="42.23269" lon="3.08353">
        <ele>-6.6</ele>
        <time>2022-05-21 09:12:49</time>
      </trkpt>
      <trkpt lat="42.23276" lon="3.08353">
        <ele>-6.8</ele>
        <time>2022-05-21 09:12:50</time>
      </trkpt>
      <trkpt lat="42.23283" lon="3.08353">
        <ele>-6.8</ele>
        <time>2022-05-21 09:12:51</time>
      </trkpt>
      <trkpt lat="42.2329" lon="3.08353">
        <ele>-6.8</ele>
        <time>2022-05-21 09:12:52</time>
      </trkpt>
      <trkpt lat="42.23297" lon="3.08353">
        <ele>-6.8</ele>
        <time>2022-05-21 09:12:53</time>
      </trkpt>
      <trkpt lat="42.23304" lon="3.08353">
        <ele>-6.8</ele>
        <time>2022-05-21 09:12:54</time>
      </trkpt>
      <trkpt lat="42.23311" lon="3.08353">
        <ele>-6.8</ele>
        <time>2022-05-21 09:12:55</time>
      </trkpt>
      <trkpt lat="42.23319" lon="3.08353">
        <ele>-6.8</ele>
        <time>2022-05-21 09:12:56</time>
      </trkpt>
      <trkpt lat="42.23325" lon="3.08353">
        <ele>-6.8</ele>
        <time>2022-05-21 09:12:57</time>
      </trkpt>
      <trkpt lat="42.23332" lon="3.08353">
        <ele>-6.8</ele>
        <time>2022-05-21 09:12:58</time>
      </trkpt>
      <trkpt lat="42.23339" lon="3.08353">
        <ele>-6.8</ele>
        <time>2022-05-21 09:12:59</time>
      </trkpt>
      <trkpt lat="42.23346" lon="3.08353">
        <ele>-6.6</ele>
        <time>2022-05-21 09:13:00</time>
      </trkpt>
      <trkpt lat="42.23353" lon="3.08352">
        <ele>-6.6</ele>
        <time>2022-05-21 09:13:01</time>
      </trkpt>
      <trkpt lat="42.2336" lon="3.08351">
        <ele>-6.6</ele>
        <time>2022-05-21 09:13:02</time>
      </trkpt>
      <trkpt lat="42.23367" lon="3.08349">
        <ele>-6.6</ele>
        <time>2022-05-21 09:13:03</time>
      </trkpt>
      <trkpt lat="42.23374" lon="3.08348">
        <ele>-6.6</ele>
        <time>2022-05-21 09:13:04</time>
      </trkpt>
      <trkpt lat="42.2338" lon="3.08346">
        <ele>-6.6</ele>
        <time>2022-05-21 09:13:05</time>
      </trkpt>
      <trkpt lat="42.23388" lon="3.08344">
        <ele>-6.6</ele>
        <time>2022-05-21 09:13:06</time>
      </trkpt>
      <trkpt lat="42.23394" lon="3.08342">
        <ele>-6.6</ele>
        <time>2022-05-21 09:13:07</time>
      </trkpt>
      <trkpt lat="42.23402" lon="3.08339">
        <ele>-6.4</ele>
        <time>2022-05-21 09:13:08</time>
      </trkpt>
      <trkpt lat="42.23408" lon="3.08336">
        <ele>-6.4</ele>
        <time>2022-05-21 09:13:09</time>
      </trkpt>
      <trkpt lat="42.23416" lon="3.08333">
        <ele>-6.4</ele>
        <time>2022-05-21 09:13:10</time>
      </trkpt>
      <trkpt lat="42.23422" lon="3.08331">
        <ele>-6.4</ele>
        <time>2022-05-21 09:13:11</time>
      </trkpt>
      <trkpt lat="42.2343" lon="3.08327">
        <ele>-6.4</ele>
        <time>2022-05-21 09:13:12</time>
      </trkpt>
      <trkpt lat="42.23436" lon="3.08324">
        <ele>-6.4</ele>
        <time>2022-05-21 09:13:13</time>
      </trkpt>
      <trkpt lat="42.23444" lon="3.08321">
        <ele>-6.4</ele>
        <time>2022-05-21 09:13:14</time>
      </trkpt>
      <trkpt lat="42.2345" lon="3.08318">
        <ele>-6.6</ele>
        <time>2022-05-21 09:13:15</time>
      </trkpt>
      <trkpt lat="42.23457" lon="3.08314">
        <ele>-6.6</ele>
        <time>2022-05-21 09:13:16</time>
      </trkpt>
      <trkpt lat="42.23464" lon="3.08312">
        <ele>-6.6</ele>
        <time>2022-05-21 09:13:17</time>
      </trkpt>
      <trkpt lat="42.23471" lon="3.08308">
        <ele>-6.6</ele>
        <time>2022-05-21 09:13:18</time>
      </trkpt>
      <trkpt lat="42.23477" lon="3.08305">
        <ele>-6.6</ele>
        <time>2022-05-21 09:13:19</time>
      </trkpt>
      <trkpt lat="42.23484" lon="3.08302">
        <ele>-6.6</ele>
        <time>2022-05-21 09:13:20</time>
      </trkpt>
      <trkpt lat="42.2349" lon="3.08299">
        <ele>-6.6</ele>
        <time>2022-05-21 09:13:21</time>
      </trkpt>
      <trkpt lat="42.23497" lon="3.08295">
        <ele>-6.6</ele>
        <time>2022-05-21 09:13:22</time>
      </trkpt>
      <trkpt lat="42.23503" lon="3.08293">
        <ele>-6.6</ele>
        <time>2022-05-21 09:13:23</time>
      </trkpt>
      <trkpt lat="42.2351" lon="3.08289">
        <ele>-6.6</ele>
        <time>2022-05-21 09:13:24</time>
      </trkpt>
      <trkpt lat="42.23516" lon="3.08287">
        <ele>-6.6</ele>
        <time>2022-05-21 09:13:25</time>
      </trkpt>
      <trkpt lat="42.23523" lon="3.08283">
        <ele>-6.6</ele>
        <time>2022-05-21 09:13:26</time>
      </trkpt>
      <trkpt lat="42.23529" lon="3.0828">
        <ele>-6.6</ele>
        <time>2022-05-21 09:13:27</time>
      </trkpt>
      <trkpt lat="42.23536" lon="3.08277">
        <ele>-6.6</ele>
        <time>2022-05-21 09:13:28</time>
      </trkpt>
      <trkpt lat="42.23541" lon="3.08274">
        <ele>-6.6</ele>
        <time>2022-05-21 09:13:29</time>
      </trkpt>
      <trkpt lat="42.23549" lon="3.08271">
        <ele>-6.6</ele>
        <time>2022-05-21 09:13:30</time>
      </trkpt>
      <trkpt lat="42.23554" lon="3.08268">
        <ele>-6.4</ele>
        <time>2022-05-21 09:13:31</time>
      </trkpt>
      <trkpt lat="42.23562" lon="3.08264">
        <ele>-6.4</ele>
        <time>2022-05-21 09:13:32</time>
      </trkpt>
      <trkpt lat="42.23567" lon="3.08261">
        <ele>-6.4</ele>
        <time>2022-05-21 09:13:33</time>
      </trkpt>
      <trkpt lat="42.23574" lon="3.08257">
        <ele>-6.2</ele>
        <time>2022-05-21 09:13:34</time>
      </trkpt>
      <trkpt lat="42.2358" lon="3.08254">
        <ele>-6.2</ele>
        <time>2022-05-21 09:13:35</time>
      </trkpt>
      <trkpt lat="42.23586" lon="3.08249">
        <ele>-6.2</ele>
        <time>2022-05-21 09:13:36</time>
      </trkpt>
      <trkpt lat="42.23592" lon="3.08245">
        <ele>-6.2</ele>
        <time>2022-05-21 09:13:37</time>
      </trkpt>
      <trkpt lat="42.23599" lon="3.0824">
        <ele>-6.2</ele>
        <time>2022-05-21 09:13:38</time>
      </trkpt>
      <trkpt lat="42.23604" lon="3.08236">
        <ele>-6.2</ele>
        <time>2022-05-21 09:13:39</time>
      </trkpt>
      <trkpt lat="42.2361" lon="3.08231">
        <ele>-6.2</ele>
        <time>2022-05-21 09:13:40</time>
      </trkpt>
      <trkpt lat="42.23616" lon="3.08226">
        <ele>-6.2</ele>
        <time>2022-05-21 09:13:41</time>
      </trkpt>
      <trkpt lat="42.23622" lon="3.08221">
        <ele>-6.2</ele>
        <time>2022-05-21 09:13:42</time>
      </trkpt>
      <trkpt lat="42.23627" lon="3.08217">
        <ele>-6.2</ele>
        <time>2022-05-21 09:13:43</time>
      </trkpt>
      <trkpt lat="42.23633" lon="3.08212">
        <ele>-6.2</ele>
        <time>2022-05-21 09:13:44</time>
      </trkpt>
      <trkpt lat="42.23638" lon="3.08207">
        <ele>-6.2</ele>
        <time>2022-05-21 09:13:45</time>
      </trkpt>
      <trkpt lat="42.23644" lon="3.08202">
        <ele>-6.2</ele>
        <time>2022-05-21 09:13:46</time>
      </trkpt>
      <trkpt lat="42.2365" lon="3.08198">
        <ele>-6.2</ele>
        <time>2022-05-21 09:13:47</time>
      </trkpt>
      <trkpt lat="42.23655" lon="3.08193">
        <ele>-6.4</ele>
        <time>2022-05-21 09:13:48</time>
      </trkpt>
      <trkpt lat="42.23661" lon="3.08189">
        <ele>-6.4</ele>
        <time>2022-05-21 09:13:49</time>
      </trkpt>
      <trkpt lat="42.23666" lon="3.08184">
        <ele>-6.2</ele>
        <time>2022-05-21 09:13:50</time>
      </trkpt>
      <trkpt lat="42.23671" lon="3.0818">
        <ele>-6.2</ele>
        <time>2022-05-21 09:13:51</time>
      </trkpt>
      <trkpt lat="42.23678" lon="3.08174">
        <ele>-6.2</ele>
        <time>2022-05-21 09:13:52</time>
      </trkpt>
      <trkpt lat="42.23683" lon="3.08171">
        <ele>-6.2</ele>
        <time>2022-05-21 09:13:53</time>
      </trkpt>
      <trkpt lat="42.2369" lon="3.08166">
        <ele>-6.2</ele>
        <time>2022-05-21 09:13:54</time>
      </trkpt>
      <trkpt lat="42.23695" lon="3.08162">
        <ele>-6.2</ele>
        <time>2022-05-21 09:13:55</time>
      </trkpt>
      <trkpt lat="42.23702" lon="3.08157">
        <ele>-6.2</ele>
        <time>2022-05-21 09:13:56</time>
      </trkpt>
      <trkpt lat="42.23708" lon="3.08154">
        <ele>-6.2</ele>
        <time>2022-05-21 09:13:57</time>
      </trkpt>
      <trkpt lat="42.23715" lon="3.0815">
        <ele>-6.2</ele>
        <time>2022-05-21 09:13:58</time>
      </trkpt>
      <trkpt lat="42.2372" lon="3.08148">
        <ele>-6.2</ele>
        <time>2022-05-21 09:13:59</time>
      </trkpt>
      <trkpt lat="42.23729" lon="3.08144">
        <ele>-6</ele>
        <time>2022-05-21 09:14:00</time>
      </trkpt>
      <trkpt lat="42.23735" lon="3.08141">
        <ele>-6</ele>
        <time>2022-05-21 09:14:01</time>
      </trkpt>
      <trkpt lat="42.23742" lon="3.08137">
        <ele>-5.8</ele>
        <time>2022-05-21 09:14:02</time>
      </trkpt>
      <trkpt lat="42.23749" lon="3.08134">
        <ele>-5.8</ele>
        <time>2022-05-21 09:14:03</time>
      </trkpt>
      <trkpt lat="42.23756" lon="3.0813">
        <ele>-5.8</ele>
        <time>2022-05-21 09:14:04</time>
      </trkpt>
      <trkpt lat="42.23762" lon="3.08127">
        <ele>-5.8</ele>
        <time>2022-05-21 09:14:05</time>
      </trkpt>
      <trkpt lat="42.23769" lon="3.08124">
        <ele>-5.8</ele>
        <time>2022-05-21 09:14:06</time>
      </trkpt>
      <trkpt lat="42.23775" lon="3.0812">
        <ele>-5.8</ele>
        <time>2022-05-21 09:14:07</time>
      </trkpt>
      <trkpt lat="42.23782" lon="3.08116">
        <ele>-5.8</ele>
        <time>2022-05-21 09:14:08</time>
      </trkpt>
      <trkpt lat="42.23788" lon="3.08112">
        <ele>-5.8</ele>
        <time>2022-05-21 09:14:09</time>
      </trkpt>
      <trkpt lat="42.23795" lon="3.08107">
        <ele>-5.8</ele>
        <time>2022-05-21 09:14:10</time>
      </trkpt>
      <trkpt lat="42.238" lon="3.08103">
        <ele>-5.8</ele>
        <time>2022-05-21 09:14:11</time>
      </trkpt>
      <trkpt lat="42.23808" lon="3.08097">
        <ele>-5.8</ele>
        <time>2022-05-21 09:14:12</time>
      </trkpt>
      <trkpt lat="42.23813" lon="3.08093">
        <ele>-5.8</ele>
        <time>2022-05-21 09:14:13</time>
      </trkpt>
      <trkpt lat="42.2382" lon="3.08087">
        <ele>-5.8</ele>
        <time>2022-05-21 09:14:14</time>
      </trkpt>
      <trkpt lat="42.23825" lon="3.08083">
        <ele>-5.8</ele>
        <time>2022-05-21 09:14:15</time>
      </trkpt>
      <trkpt lat="42.23831" lon="3.08078">
        <ele>-5.8</ele>
        <time>2022-05-21 09:14:16</time>
      </trkpt>
      <trkpt lat="42.23837" lon="3.08074">
        <ele>-5.8</ele>
        <time>2022-05-21 09:14:17</time>
      </trkpt>
      <trkpt lat="42.23844" lon="3.08069">
        <ele>-5.8</ele>
        <time>2022-05-21 09:14:18</time>
      </trkpt>
      <trkpt lat="42.23849" lon="3.08065">
        <ele>-5.8</ele>
        <time>2022-05-21 09:14:19</time>
      </trkpt>
      <trkpt lat="42.23856" lon="3.08059">
        <ele>-5.8</ele>
        <time>2022-05-21 09:14:20</time>
      </trkpt>
      <trkpt lat="42.23861" lon="3.08055">
        <ele>-5.8</ele>
        <time>2022-05-21 09:14:21</time>
      </trkpt>
      <trkpt lat="42.23868" lon="3.0805">
        <ele>-5.8</ele>
        <time>2022-05-21 09:14:22</time>
      </trkpt>
      <trkpt lat="42.23873" lon="3.08046">
        <ele>-5.6</ele>
        <time>2022-05-21 09:14:23</time>
      </trkpt>
      <trkpt lat="42.2388" lon="3.0804">
        <ele>-5.6</ele>
        <time>2022-05-21 09:14:24</time>
      </trkpt>
      <trkpt lat="42.23885" lon="3.08037">
        <ele>-5.6</ele>
        <time>2022-05-21 09:14:25</time>
      </trkpt>
      <trkpt lat="42.23892" lon="3.08031">
        <ele>-5.6</ele>
        <time>2022-05-21 09:14:26</time>
      </trkpt>
      <trkpt lat="42.23897" lon="3.08027">
        <ele>-5.6</ele>
        <time>2022-05-21 09:14:27</time>
      </trkpt>
      <trkpt lat="42.23903" lon="3.08022">
        <ele>-5.6</ele>
        <time>2022-05-21 09:14:28</time>
      </trkpt>
      <trkpt lat="42.23908" lon="3.08018">
        <ele>-5.6</ele>
        <time>2022-05-21 09:14:29</time>
      </trkpt>
      <trkpt lat="42.23915" lon="3.08013">
        <ele>-5.6</ele>
        <time>2022-05-21 09:14:30</time>
      </trkpt>
      <trkpt lat="42.2392" lon="3.0801">
        <ele>-5.4</ele>
        <time>2022-05-21 09:14:31</time>
      </trkpt>
      <trkpt lat="42.23927" lon="3.08005">
        <ele>-5.4</ele>
        <time>2022-05-21 09:14:32</time>
      </trkpt>
      <trkpt lat="42.23932" lon="3.08002">
        <ele>-5.4</ele>
        <time>2022-05-21 09:14:33</time>
      </trkpt>
      <trkpt lat="42.23939" lon="3.07997">
        <ele>-5.4</ele>
        <time>2022-05-21 09:14:34</time>
      </trkpt>
      <trkpt lat="42.23944" lon="3.07994">
        <ele>-5.4</ele>
        <time>2022-05-21 09:14:35</time>
      </trkpt>
      <trkpt lat="42.23951" lon="3.0799">
        <ele>-5.4</ele>
        <time>2022-05-21 09:14:36</time>
      </trkpt>
      <trkpt lat="42.23956" lon="3.07987">
        <ele>-5.4</ele>
        <time>2022-05-21 09:14:37</time>
      </trkpt>
      <trkpt lat="42.23963" lon="3.07983">
        <ele>-5.2</ele>
        <time>2022-05-21 09:14:38</time>
      </trkpt>
      <trkpt lat="42.23968" lon="3.0798">
        <ele>-5.2</ele>
        <time>2022-05-21 09:14:39</time>
      </trkpt>
      <trkpt lat="42.23975" lon="3.07976">
        <ele>-5.2</ele>
        <time>2022-05-21 09:14:40</time>
      </trkpt>
      <trkpt lat="42.2398" lon="3.07974">
        <ele>-5.2</ele>
        <time>2022-05-21 09:14:41</time>
      </trkpt>
      <trkpt lat="42.23987" lon="3.0797">
        <ele>-5.2</ele>
        <time>2022-05-21 09:14:42</time>
      </trkpt>
      <trkpt lat="42.23992" lon="3.07968">
        <ele>-5.2</ele>
        <time>2022-05-21 09:14:43</time>
      </trkpt>
      <trkpt lat="42.23999" lon="3.07965">
        <ele>-5</ele>
        <time>2022-05-21 09:14:44</time>
      </trkpt>
      <trkpt lat="42.24004" lon="3.07963">
        <ele>-5</ele>
        <time>2022-05-21 09:14:45</time>
      </trkpt>
      <trkpt lat="42.24011" lon="3.07959">
        <ele>-5</ele>
        <time>2022-05-21 09:14:46</time>
      </trkpt>
      <trkpt lat="42.24016" lon="3.07956">
        <ele>-5</ele>
        <time>2022-05-21 09:14:47</time>
      </trkpt>
      <trkpt lat="42.24024" lon="3.07952">
        <ele>-5</ele>
        <time>2022-05-21 09:14:48</time>
      </trkpt>
      <trkpt lat="42.24029" lon="3.0795">
        <ele>-5</ele>
        <time>2022-05-21 09:14:49</time>
      </trkpt>
      <trkpt lat="42.24036" lon="3.07946">
        <ele>-4.8</ele>
        <time>2022-05-21 09:14:50</time>
      </trkpt>
      <trkpt lat="42.24041" lon="3.07944">
        <ele>-4.8</ele>
        <time>2022-05-21 09:14:51</time>
      </trkpt>
      <trkpt lat="42.24049" lon="3.0794">
        <ele>-4.8</ele>
        <time>2022-05-21 09:14:52</time>
      </trkpt>
      <trkpt lat="42.24054" lon="3.07938">
        <ele>-4.8</ele>
        <time>2022-05-21 09:14:53</time>
      </trkpt>
      <trkpt lat="42.24062" lon="3.07934">
        <ele>-4.8</ele>
        <time>2022-05-21 09:14:54</time>
      </trkpt>
      <trkpt lat="42.24067" lon="3.07931">
        <ele>-4.8</ele>
        <time>2022-05-21 09:14:55</time>
      </trkpt>
      <trkpt lat="42.24075" lon="3.07927">
        <ele>-4.8</ele>
        <time>2022-05-21 09:14:56</time>
      </trkpt>
      <trkpt lat="42.2408" lon="3.07925">
        <ele>-4.8</ele>
        <time>2022-05-21 09:14:57</time>
      </trkpt>
      <trkpt lat="42.24088" lon="3.07921">
        <ele>-4.8</ele>
        <time>2022-05-21 09:14:58</time>
      </trkpt>
      <trkpt lat="42.24093" lon="3.07918">
        <ele>-4.8</ele>
        <time>2022-05-21 09:14:59</time>
      </trkpt>
      <trkpt lat="42.24101" lon="3.07914">
        <ele>-4.8</ele>
        <time>2022-05-21 09:15:00</time>
      </trkpt>
      <trkpt lat="42.24106" lon="3.07911">
        <ele>-4.8</ele>
        <time>2022-05-21 09:15:01</time>
      </trkpt>
      <trkpt lat="42.24113" lon="3.07907">
        <ele>-4.6</ele>
        <time>2022-05-21 09:15:02</time>
      </trkpt>
      <trkpt lat="42.24119" lon="3.07904">
        <ele>-4.8</ele>
        <time>2022-05-21 09:15:03</time>
      </trkpt>
      <trkpt lat="42.24126" lon="3.079">
        <ele>-4.8</ele>
        <time>2022-05-21 09:15:04</time>
      </trkpt>
      <trkpt lat="42.24132" lon="3.07898">
        <ele>-4.8</ele>
        <time>2022-05-21 09:15:05</time>
      </trkpt>
      <trkpt lat="42.24139" lon="3.07894">
        <ele>-4.8</ele>
        <time>2022-05-21 09:15:06</time>
      </trkpt>
      <trkpt lat="42.24145" lon="3.07891">
        <ele>-4.8</ele>
        <time>2022-05-21 09:15:07</time>
      </trkpt>
      <trkpt lat="42.24152" lon="3.07888">
        <ele>-4.8</ele>
        <time>2022-05-21 09:15:08</time>
      </trkpt>
      <trkpt lat="42.24158" lon="3.07885">
        <ele>-4.8</ele>
        <time>2022-05-21 09:15:09</time>
      </trkpt>
      <trkpt lat="42.24165" lon="3.07881">
        <ele>-4.8</ele>
        <time>2022-05-21 09:15:10</time>
      </trkpt>
      <trkpt lat="42.24171" lon="3.07878">
        <ele>-4.8</ele>
        <time>2022-05-21 09:15:11</time>
      </trkpt>
      <trkpt lat="42.24178" lon="3.07874">
        <ele>-4.8</ele>
        <time>2022-05-21 09:15:12</time>
      </trkpt>
      <trkpt lat="42.24184" lon="3.07871">
        <ele>-5</ele>
        <time>2022-05-21 09:15:13</time>
      </trkpt>
      <trkpt lat="42.24192" lon="3.07867">
        <ele>-5</ele>
        <time>2022-05-21 09:15:14</time>
      </trkpt>
      <trkpt lat="42.24199" lon="3.07863">
        <ele>-5</ele>
        <time>2022-05-21 09:15:15</time>
      </trkpt>
      <trkpt lat="42.24206" lon="3.0786">
        <ele>-5</ele>
        <time>2022-05-21 09:15:16</time>
      </trkpt>
      <trkpt lat="42.24212" lon="3.07856">
        <ele>-5</ele>
        <time>2022-05-21 09:15:17</time>
      </trkpt>
      <trkpt lat="42.24218" lon="3.07853">
        <ele>-5</ele>
        <time>2022-05-21 09:15:18</time>
      </trkpt>
      <trkpt lat="42.24225" lon="3.07849">
        <ele>-4.8</ele>
        <time>2022-05-21 09:15:19</time>
      </trkpt>
      <trkpt lat="42.24232" lon="3.07846">
        <ele>-4.8</ele>
        <time>2022-05-21 09:15:20</time>
      </trkpt>
      <trkpt lat="42.24238" lon="3.07842">
        <ele>-4.8</ele>
        <time>2022-05-21 09:15:21</time>
      </trkpt>
      <trkpt lat="42.24245" lon="3.07839">
        <ele>-4.8</ele>
        <time>2022-05-21 09:15:22</time>
      </trkpt>
      <trkpt lat="42.24252" lon="3.07836">
        <ele>-4.8</ele>
        <time>2022-05-21 09:15:23</time>
      </trkpt>
      <trkpt lat="42.24259" lon="3.07832">
        <ele>-4.8</ele>
        <time>2022-05-21 09:15:24</time>
      </trkpt>
      <trkpt lat="42.24265" lon="3.07829">
        <ele>-4.8</ele>
        <time>2022-05-21 09:15:25</time>
      </trkpt>
      <trkpt lat="42.24271" lon="3.07825">
        <ele>-4.8</ele>
        <time>2022-05-21 09:15:26</time>
      </trkpt>
      <trkpt lat="42.24278" lon="3.07821">
        <ele>-4.8</ele>
        <time>2022-05-21 09:15:27</time>
      </trkpt>
      <trkpt lat="42.24285" lon="3.07817">
        <ele>-4.8</ele>
        <time>2022-05-21 09:15:28</time>
      </trkpt>
      <trkpt lat="42.24291" lon="3.07814">
        <ele>-4.6</ele>
        <time>2022-05-21 09:15:29</time>
      </trkpt>
      <trkpt lat="42.24298" lon="3.0781">
        <ele>-4.6</ele>
        <time>2022-05-21 09:15:30</time>
      </trkpt>
      <trkpt lat="42.24305" lon="3.07806">
        <ele>-4.8</ele>
        <time>2022-05-21 09:15:31</time>
      </trkpt>
      <trkpt lat="42.24311" lon="3.07802">
        <ele>-4.8</ele>
        <time>2022-05-21 09:15:32</time>
      </trkpt>
      <trkpt lat="42.24318" lon="3.07799">
        <ele>-4.8</ele>
        <time>2022-05-21 09:15:33</time>
      </trkpt>
      <trkpt lat="42.24324" lon="3.07795">
        <ele>-4.6</ele>
        <time>2022-05-21 09:15:34</time>
      </trkpt>
      <trkpt lat="42.24331" lon="3.07791">
        <ele>-4.6</ele>
        <time>2022-05-21 09:15:35</time>
      </trkpt>
      <trkpt lat="42.24338" lon="3.07787">
        <ele>-4.6</ele>
        <time>2022-05-21 09:15:36</time>
      </trkpt>
      <trkpt lat="42.24344" lon="3.07783">
        <ele>-4.6</ele>
        <time>2022-05-21 09:15:37</time>
      </trkpt>
      <trkpt lat="42.24351" lon="3.07779">
        <ele>-4.6</ele>
        <time>2022-05-21 09:15:38</time>
      </trkpt>
      <trkpt lat="42.24357" lon="3.07775">
        <ele>-4.6</ele>
        <time>2022-05-21 09:15:39</time>
      </trkpt>
      <trkpt lat="42.24363" lon="3.07771">
        <ele>-4.6</ele>
        <time>2022-05-21 09:15:40</time>
      </trkpt>
      <trkpt lat="42.2437" lon="3.07766">
        <ele>-4.8</ele>
        <time>2022-05-21 09:15:41</time>
      </trkpt>
      <trkpt lat="42.24376" lon="3.07762">
        <ele>-4.8</ele>
        <time>2022-05-21 09:15:42</time>
      </trkpt>
      <trkpt lat="42.24382" lon="3.07758">
        <ele>-4.8</ele>
        <time>2022-05-21 09:15:43</time>
      </trkpt>
      <trkpt lat="42.24389" lon="3.07754">
        <ele>-4.8</ele>
        <time>2022-05-21 09:15:44</time>
      </trkpt>
      <trkpt lat="42.24395" lon="3.07749">
        <ele>-4.8</ele>
        <time>2022-05-21 09:15:45</time>
      </trkpt>
      <trkpt lat="42.24401" lon="3.07745">
        <ele>-4.6</ele>
        <time>2022-05-21 09:15:46</time>
      </trkpt>
      <trkpt lat="42.24407" lon="3.07741">
        <ele>-4.6</ele>
        <time>2022-05-21 09:15:47</time>
      </trkpt>
      <trkpt lat="42.24414" lon="3.07737">
        <ele>-4.6</ele>
        <time>2022-05-21 09:15:48</time>
      </trkpt>
      <trkpt lat="42.2442" lon="3.07732">
        <ele>-4.6</ele>
        <time>2022-05-21 09:15:49</time>
      </trkpt>
      <trkpt lat="42.24426" lon="3.07728">
        <ele>-4.4</ele>
        <time>2022-05-21 09:15:50</time>
      </trkpt>
      <trkpt lat="42.24432" lon="3.07724">
        <ele>-4.4</ele>
        <time>2022-05-21 09:15:51</time>
      </trkpt>
      <trkpt lat="42.24439" lon="3.07719">
        <ele>-4.4</ele>
        <time>2022-05-21 09:15:52</time>
      </trkpt>
      <trkpt lat="42.24445" lon="3.07715">
        <ele>-4.4</ele>
        <time>2022-05-21 09:15:53</time>
      </trkpt>
      <trkpt lat="42.24452" lon="3.07711">
        <ele>-4.4</ele>
        <time>2022-05-21 09:15:54</time>
      </trkpt>
      <trkpt lat="42.24458" lon="3.07706">
        <ele>-4.4</ele>
        <time>2022-05-21 09:15:55</time>
      </trkpt>
      <trkpt lat="42.24464" lon="3.07702">
        <ele>-4.4</ele>
        <time>2022-05-21 09:15:56</time>
      </trkpt>
      <trkpt lat="42.2447" lon="3.07697">
        <ele>-4.2</ele>
        <time>2022-05-21 09:15:57</time>
      </trkpt>
      <trkpt lat="42.24476" lon="3.07693">
        <ele>-4.2</ele>
        <time>2022-05-21 09:15:58</time>
      </trkpt>
      <trkpt lat="42.24483" lon="3.07688">
        <ele>-4.2</ele>
        <time>2022-05-21 09:15:59</time>
      </trkpt>
      <trkpt lat="42.24489" lon="3.07684">
        <ele>-4.2</ele>
        <time>2022-05-21 09:16:00</time>
      </trkpt>
      <trkpt lat="42.24496" lon="3.07679">
        <ele>-4.4</ele>
        <time>2022-05-21 09:16:01</time>
      </trkpt>
      <trkpt lat="42.24502" lon="3.07675">
        <ele>-4.4</ele>
        <time>2022-05-21 09:16:02</time>
      </trkpt>
      <trkpt lat="42.24508" lon="3.07671">
        <ele>-4.2</ele>
        <time>2022-05-21 09:16:03</time>
      </trkpt>
      <trkpt lat="42.24515" lon="3.07666">
        <ele>-4.2</ele>
        <time>2022-05-21 09:16:04</time>
      </trkpt>
      <trkpt lat="42.2452" lon="3.07662">
        <ele>-4.2</ele>
        <time>2022-05-21 09:16:05</time>
      </trkpt>
      <trkpt lat="42.24527" lon="3.07657">
        <ele>-4.2</ele>
        <time>2022-05-21 09:16:06</time>
      </trkpt>
      <trkpt lat="42.24533" lon="3.07653">
        <ele>-4.2</ele>
        <time>2022-05-21 09:16:07</time>
      </trkpt>
      <trkpt lat="42.2454" lon="3.07648">
        <ele>-4.2</ele>
        <time>2022-05-21 09:16:08</time>
      </trkpt>
      <trkpt lat="42.24546" lon="3.07643">
        <ele>-4.2</ele>
        <time>2022-05-21 09:16:09</time>
      </trkpt>
      <trkpt lat="42.24552" lon="3.07638">
        <ele>-4.2</ele>
        <time>2022-05-21 09:16:10</time>
      </trkpt>
      <trkpt lat="42.24558" lon="3.07633">
        <ele>-4.2</ele>
        <time>2022-05-21 09:16:11</time>
      </trkpt>
      <trkpt lat="42.24563" lon="3.07627">
        <ele>-4.2</ele>
        <time>2022-05-21 09:16:12</time>
      </trkpt>
      <trkpt lat="42.24569" lon="3.07622">
        <ele>-4</ele>
        <time>2022-05-21 09:16:13</time>
      </trkpt>
      <trkpt lat="42.24575" lon="3.07616">
        <ele>-4</ele>
        <time>2022-05-21 09:16:14</time>
      </trkpt>
      <trkpt lat="42.2458" lon="3.0761">
        <ele>-4</ele>
        <time>2022-05-21 09:16:15</time>
      </trkpt>
      <trkpt lat="42.24586" lon="3.07604">
        <ele>-4</ele>
        <time>2022-05-21 09:16:16</time>
      </trkpt>
      <trkpt lat="42.24591" lon="3.07598">
        <ele>-4</ele>
        <time>2022-05-21 09:16:17</time>
      </trkpt>
      <trkpt lat="42.24597" lon="3.07592">
        <ele>-4</ele>
        <time>2022-05-21 09:16:18</time>
      </trkpt>
      <trkpt lat="42.24602" lon="3.07586">
        <ele>-4</ele>
        <time>2022-05-21 09:16:19</time>
      </trkpt>
      <trkpt lat="42.24608" lon="3.0758">
        <ele>-4</ele>
        <time>2022-05-21 09:16:20</time>
      </trkpt>
      <trkpt lat="42.24613" lon="3.07574">
        <ele>-4</ele>
        <time>2022-05-21 09:16:21</time>
      </trkpt>
      <trkpt lat="42.24619" lon="3.07568">
        <ele>-3.8</ele>
        <time>2022-05-21 09:16:22</time>
      </trkpt>
      <trkpt lat="42.24624" lon="3.07562">
        <ele>-3.8</ele>
        <time>2022-05-21 09:16:23</time>
      </trkpt>
      <trkpt lat="42.2463" lon="3.07557">
        <ele>-3.8</ele>
        <time>2022-05-21 09:16:24</time>
      </trkpt>
      <trkpt lat="42.24636" lon="3.07552">
        <ele>-3.8</ele>
        <time>2022-05-21 09:16:25</time>
      </trkpt>
      <trkpt lat="42.24642" lon="3.07547">
        <ele>-3.8</ele>
        <time>2022-05-21 09:16:26</time>
      </trkpt>
      <trkpt lat="42.24648" lon="3.07543">
        <ele>-3.8</ele>
        <time>2022-05-21 09:16:27</time>
      </trkpt>
      <trkpt lat="42.24654" lon="3.07539">
        <ele>-3.8</ele>
        <time>2022-05-21 09:16:28</time>
      </trkpt>
      <trkpt lat="42.2466" lon="3.07534">
        <ele>-3.8</ele>
        <time>2022-05-21 09:16:29</time>
      </trkpt>
      <trkpt lat="42.24666" lon="3.07531">
        <ele>-3.8</ele>
        <time>2022-05-21 09:16:30</time>
      </trkpt>
      <trkpt lat="42.24672" lon="3.07527">
        <ele>-3.6</ele>
        <time>2022-05-21 09:16:31</time>
      </trkpt>
      <trkpt lat="42.24678" lon="3.07524">
        <ele>-3.6</ele>
        <time>2022-05-21 09:16:32</time>
      </trkpt>
      <trkpt lat="42.24685" lon="3.07521">
        <ele>-3.6</ele>
        <time>2022-05-21 09:16:33</time>
      </trkpt>
      <trkpt lat="42.24691" lon="3.07518">
        <ele>-3.4</ele>
        <time>2022-05-21 09:16:34</time>
      </trkpt>
      <trkpt lat="42.24698" lon="3.07516">
        <ele>-3.4</ele>
        <time>2022-05-21 09:16:35</time>
      </trkpt>
      <trkpt lat="42.24704" lon="3.07514">
        <ele>-3.2</ele>
        <time>2022-05-21 09:16:36</time>
      </trkpt>
      <trkpt lat="42.24711" lon="3.07512">
        <ele>-3.2</ele>
        <time>2022-05-21 09:16:37</time>
      </trkpt>
      <trkpt lat="42.24717" lon="3.07511">
        <ele>-3.2</ele>
        <time>2022-05-21 09:16:38</time>
      </trkpt>
      <trkpt lat="42.24723" lon="3.07509">
        <ele>-3.2</ele>
        <time>2022-05-21 09:16:39</time>
      </trkpt>
      <trkpt lat="42.2473" lon="3.07508">
        <ele>-3.2</ele>
        <time>2022-05-21 09:16:40</time>
      </trkpt>
      <trkpt lat="42.24737" lon="3.07507">
        <ele>-3.2</ele>
        <time>2022-05-21 09:16:41</time>
      </trkpt>
      <trkpt lat="42.24743" lon="3.07506">
        <ele>-3.2</ele>
        <time>2022-05-21 09:16:42</time>
      </trkpt>
      <trkpt lat="42.2475" lon="3.07505">
        <ele>-3</ele>
        <time>2022-05-21 09:16:43</time>
      </trkpt>
      <trkpt lat="42.24757" lon="3.07505">
        <ele>-3</ele>
        <time>2022-05-21 09:16:44</time>
      </trkpt>
      <trkpt lat="42.24764" lon="3.07505">
        <ele>-3.2</ele>
        <time>2022-05-21 09:16:45</time>
      </trkpt>
      <trkpt lat="42.2477" lon="3.07505">
        <ele>-3.2</ele>
        <time>2022-05-21 09:16:46</time>
      </trkpt>
      <trkpt lat="42.24777" lon="3.07504">
        <ele>-3.2</ele>
        <time>2022-05-21 09:16:47</time>
      </trkpt>
      <trkpt lat="42.24784" lon="3.07505">
        <ele>-3.2</ele>
        <time>2022-05-21 09:16:48</time>
      </trkpt>
      <trkpt lat="42.2479" lon="3.07505">
        <ele>-3.2</ele>
        <time>2022-05-21 09:16:49</time>
      </trkpt>
      <trkpt lat="42.24797" lon="3.07505">
        <ele>-3.2</ele>
        <time>2022-05-21 09:16:50</time>
      </trkpt>
      <trkpt lat="42.24804" lon="3.07506">
        <ele>-3.2</ele>
        <time>2022-05-21 09:16:51</time>
      </trkpt>
      <trkpt lat="42.24811" lon="3.07506">
        <ele>-3.2</ele>
        <time>2022-05-21 09:16:52</time>
      </trkpt>
      <trkpt lat="42.24818" lon="3.07507">
        <ele>-3.2</ele>
        <time>2022-05-21 09:16:53</time>
      </trkpt>
      <trkpt lat="42.24825" lon="3.07508">
        <ele>-3.2</ele>
        <time>2022-05-21 09:16:54</time>
      </trkpt>
      <trkpt lat="42.24832" lon="3.0751">
        <ele>-3.2</ele>
        <time>2022-05-21 09:16:55</time>
      </trkpt>
      <trkpt lat="42.24839" lon="3.07511">
        <ele>-3.4</ele>
        <time>2022-05-21 09:16:56</time>
      </trkpt>
      <trkpt lat="42.24847" lon="3.07513">
        <ele>-3.4</ele>
        <time>2022-05-21 09:16:57</time>
      </trkpt>
      <trkpt lat="42.24854" lon="3.07514">
        <ele>-3.4</ele>
        <time>2022-05-21 09:16:58</time>
      </trkpt>
      <trkpt lat="42.24861" lon="3.07516">
        <ele>-3.4</ele>
        <time>2022-05-21 09:16:59</time>
      </trkpt>
      <trkpt lat="42.24868" lon="3.07517">
        <ele>-3.4</ele>
        <time>2022-05-21 09:17:00</time>
      </trkpt>
      <trkpt lat="42.24875" lon="3.07519">
        <ele>-3.4</ele>
        <time>2022-05-21 09:17:01</time>
      </trkpt>
      <trkpt lat="42.24882" lon="3.0752">
        <ele>-3.4</ele>
        <time>2022-05-21 09:17:02</time>
      </trkpt>
      <trkpt lat="42.24889" lon="3.07521">
        <ele>-3.4</ele>
        <time>2022-05-21 09:17:03</time>
      </trkpt>
      <trkpt lat="42.24896" lon="3.07523">
        <ele>-3.4</ele>
        <time>2022-05-21 09:17:04</time>
      </trkpt>
      <trkpt lat="42.24904" lon="3.07524">
        <ele>-3.4</ele>
        <time>2022-05-21 09:17:05</time>
      </trkpt>
      <trkpt lat="42.2491" lon="3.07526">
        <ele>-3.4</ele>
        <time>2022-05-21 09:17:06</time>
      </trkpt>
      <trkpt lat="42.24917" lon="3.07527">
        <ele>-3.4</ele>
        <time>2022-05-21 09:17:07</time>
      </trkpt>
      <trkpt lat="42.24925" lon="3.07529">
        <ele>-3.4</ele>
        <time>2022-05-21 09:17:08</time>
      </trkpt>
      <trkpt lat="42.24932" lon="3.0753">
        <ele>-3.4</ele>
        <time>2022-05-21 09:17:09</time>
      </trkpt>
      <trkpt lat="42.24938" lon="3.07531">
        <ele>-3.6</ele>
        <time>2022-05-21 09:17:10</time>
      </trkpt>
      <trkpt lat="42.24945" lon="3.07532">
        <ele>-3.6</ele>
        <time>2022-05-21 09:17:11</time>
      </trkpt>
      <trkpt lat="42.24953" lon="3.07534">
        <ele>-3.6</ele>
        <time>2022-05-21 09:17:12</time>
      </trkpt>
      <trkpt lat="42.2496" lon="3.07536">
        <ele>-3.6</ele>
        <time>2022-05-21 09:17:13</time>
      </trkpt>
      <trkpt lat="42.24966" lon="3.07537">
        <ele>-3.6</ele>
        <time>2022-05-21 09:17:14</time>
      </trkpt>
      <trkpt lat="42.24974" lon="3.07539">
        <ele>-3.6</ele>
        <time>2022-05-21 09:17:15</time>
      </trkpt>
      <trkpt lat="42.24981" lon="3.07541">
        <ele>-3.6</ele>
        <time>2022-05-21 09:17:16</time>
      </trkpt>
      <trkpt lat="42.24987" lon="3.07542">
        <ele>-3.6</ele>
        <time>2022-05-21 09:17:17</time>
      </trkpt>
      <trkpt lat="42.24994" lon="3.07544">
        <ele>-3.4</ele>
        <time>2022-05-21 09:17:18</time>
      </trkpt>
      <trkpt lat="42.25" lon="3.07546">
        <ele>-3.4</ele>
        <time>2022-05-21 09:17:19</time>
      </trkpt>
      <trkpt lat="42.25007" lon="3.07548">
        <ele>-3.4</ele>
        <time>2022-05-21 09:17:20</time>
      </trkpt>
      <trkpt lat="42.25013" lon="3.07551">
        <ele>-3.2</ele>
        <time>2022-05-21 09:17:21</time>
      </trkpt>
      <trkpt lat="42.25019" lon="3.07553">
        <ele>-3.2</ele>
        <time>2022-05-21 09:17:22</time>
      </trkpt>
      <trkpt lat="42.25025" lon="3.07557">
        <ele>-3</ele>
        <time>2022-05-21 09:17:23</time>
      </trkpt>
      <trkpt lat="42.25031" lon="3.07559">
        <ele>-2.8</ele>
        <time>2022-05-21 09:17:24</time>
      </trkpt>
      <trkpt lat="42.25037" lon="3.07563">
        <ele>-2.6</ele>
        <time>2022-05-21 09:17:25</time>
      </trkpt>
      <trkpt lat="42.25042" lon="3.07566">
        <ele>-2.4</ele>
        <time>2022-05-21 09:17:26</time>
      </trkpt>
      <trkpt lat="42.25047" lon="3.0757">
        <ele>-2.2</ele>
        <time>2022-05-21 09:17:27</time>
      </trkpt>
      <trkpt lat="42.25053" lon="3.07574">
        <ele>-2</ele>
        <time>2022-05-21 09:17:28</time>
      </trkpt>
      <trkpt lat="42.25058" lon="3.07577">
        <ele>-1.8</ele>
        <time>2022-05-21 09:17:29</time>
      </trkpt>
      <trkpt lat="42.25063" lon="3.07581">
        <ele>-1.6</ele>
        <time>2022-05-21 09:17:30</time>
      </trkpt>
      <trkpt lat="42.25068" lon="3.07585">
        <ele>-1.4</ele>
        <time>2022-05-21 09:17:31</time>
      </trkpt>
      <trkpt lat="42.25072" lon="3.07588">
        <ele>-1.2</ele>
        <time>2022-05-21 09:17:32</time>
      </trkpt>
      <trkpt lat="42.25077" lon="3.07591">
        <ele>-1</ele>
        <time>2022-05-21 09:17:33</time>
      </trkpt>
      <trkpt lat="42.25082" lon="3.07594">
        <ele>-0.8</ele>
        <time>2022-05-21 09:17:34</time>
      </trkpt>
      <trkpt lat="42.25086" lon="3.07598">
        <ele>-0.6</ele>
        <time>2022-05-21 09:17:35</time>
      </trkpt>
      <trkpt lat="42.25089" lon="3.07602">
        <ele>-0.4</ele>
        <time>2022-05-21 09:17:36</time>
      </trkpt>
      <trkpt lat="42.25092" lon="3.07606">
        <ele>-0.2</ele>
        <time>2022-05-21 09:17:37</time>
      </trkpt>
      <trkpt lat="42.25095" lon="3.07611">
        <time>2022-05-21 09:17:38</time>
      </trkpt>
      <trkpt lat="42.25097" lon="3.07617">
        <time>2022-05-21 09:17:39</time>
      </trkpt>
      <trkpt lat="42.25099" lon="3.07623">
        <time>2022-05-21 09:17:40</time>
      </trkpt>
      <trkpt lat="42.251" lon="3.0763">
        <ele>0.2</ele>
        <time>2022-05-21 09:17:41</time>
      </trkpt>
      <trkpt lat="42.25102" lon="3.07636">
        <ele>0.2</ele>
        <time>2022-05-21 09:17:42</time>
      </trkpt>
      <trkpt lat="42.25105" lon="3.07642">
        <ele>0.4</ele>
        <time>2022-05-21 09:17:43</time>
      </trkpt>
      <trkpt lat="42.25108" lon="3.07648">
        <ele>0.4</ele>
        <time>2022-05-21 09:17:44</time>
      </trkpt>
      <trkpt lat="42.25112" lon="3.07653">
        <ele>0.6</ele>
        <time>2022-05-21 09:17:45</time>
      </trkpt>
      <trkpt lat="42.25116" lon="3.07657">
        <ele>0.6</ele>
        <time>2022-05-21 09:17:46</time>
      </trkpt>
      <trkpt lat="42.25121" lon="3.07661">
        <ele>0.8</ele>
        <time>2022-05-21 09:17:47</time>
      </trkpt>
      <trkpt lat="42.25126" lon="3.07664">
        <ele>1</ele>
        <time>2022-05-21 09:17:48</time>
      </trkpt>
      <trkpt lat="42.25131" lon="3.07666">
        <ele>1</ele>
        <time>2022-05-21 09:17:49</time>
      </trkpt>
      <trkpt lat="42.25136" lon="3.07667">
        <ele>1.2</ele>
        <time>2022-05-21 09:17:50</time>
      </trkpt>
      <trkpt lat="42.25141" lon="3.07666">
        <ele>1.4</ele>
        <time>2022-05-21 09:17:51</time>
      </trkpt>
      <trkpt lat="42.25146" lon="3.07665">
        <ele>1.4</ele>
        <time>2022-05-21 09:17:52</time>
      </trkpt>
      <trkpt lat="42.25152" lon="3.07663">
        <ele>1.6</ele>
        <time>2022-05-21 09:17:53</time>
      </trkpt>
      <trkpt lat="42.25156" lon="3.0766">
        <ele>1.8</ele>
        <time>2022-05-21 09:17:54</time>
      </trkpt>
      <trkpt lat="42.25161" lon="3.07656">
        <ele>1.8</ele>
        <time>2022-05-21 09:17:55</time>
      </trkpt>
      <trkpt lat="42.25165" lon="3.07652">
        <ele>2</ele>
        <time>2022-05-21 09:17:56</time>
      </trkpt>
      <trkpt lat="42.25168" lon="3.07647">
        <ele>2.2</ele>
        <time>2022-05-21 09:17:57</time>
      </trkpt>
      <trkpt lat="42.25172" lon="3.07641">
        <ele>2.2</ele>
        <time>2022-05-21 09:17:58</time>
      </trkpt>
      <trkpt lat="42.25175" lon="3.07636">
        <ele>2.4</ele>
        <time>2022-05-21 09:17:59</time>
      </trkpt>
      <trkpt lat="42.2518" lon="3.07631">
        <ele>2.4</ele>
        <time>2022-05-21 09:18:00</time>
      </trkpt>
      <trkpt lat="42.25185" lon="3.07628">
        <ele>2.6</ele>
        <time>2022-05-21 09:18:01</time>
      </trkpt>
      <trkpt lat="42.25191" lon="3.07626">
        <ele>2.6</ele>
        <time>2022-05-21 09:18:02</time>
      </trkpt>
      <trkpt lat="42.25196" lon="3.07625">
        <ele>2.6</ele>
        <time>2022-05-21 09:18:03</time>
      </trkpt>
      <trkpt lat="42.25202" lon="3.07624">
        <ele>2.8</ele>
        <time>2022-05-21 09:18:04</time>
      </trkpt>
      <trkpt lat="42.25208" lon="3.07623">
        <ele>2.8</ele>
        <time>2022-05-21 09:18:05</time>
      </trkpt>
      <trkpt lat="42.25214" lon="3.07623">
        <ele>2.8</ele>
        <time>2022-05-21 09:18:06</time>
      </trkpt>
      <trkpt lat="42.2522" lon="3.07622">
        <ele>2.8</ele>
        <time>2022-05-21 09:18:07</time>
      </trkpt>
      <trkpt lat="42.25227" lon="3.07621">
        <ele>2.8</ele>
        <time>2022-05-21 09:18:08</time>
      </trkpt>
      <trkpt lat="42.25233" lon="3.0762">
        <ele>2.8</ele>
        <time>2022-05-21 09:18:09</time>
      </trkpt>
      <trkpt lat="42.25238" lon="3.07619">
        <ele>2.8</ele>
        <time>2022-05-21 09:18:10</time>
      </trkpt>
      <trkpt lat="42.25245" lon="3.07618">
        <ele>2.8</ele>
        <time>2022-05-21 09:18:11</time>
      </trkpt>
      <trkpt lat="42.25251" lon="3.07617">
        <ele>2.8</ele>
        <time>2022-05-21 09:18:12</time>
      </trkpt>
      <trkpt lat="42.25257" lon="3.07616">
        <ele>2.8</ele>
        <time>2022-05-21 09:18:13</time>
      </trkpt>
      <trkpt lat="42.25264" lon="3.07616">
        <ele>3</ele>
        <time>2022-05-21 09:18:14</time>
      </trkpt>
      <trkpt lat="42.2527" lon="3.07615">
        <ele>3</ele>
        <time>2022-05-21 09:18:15</time>
      </trkpt>
      <trkpt lat="42.25276" lon="3.07614">
        <ele>3</ele>
        <time>2022-05-21 09:18:16</time>
      </trkpt>
      <trkpt lat="42.25282" lon="3.07613">
        <ele>3</ele>
        <time>2022-05-21 09:18:17</time>
      </trkpt>
      <trkpt lat="42.25289" lon="3.07612">
        <ele>3</ele>
        <time>2022-05-21 09:18:18</time>
      </trkpt>
      <trkpt lat="42.25295" lon="3.07611">
        <ele>3</ele>
        <time>2022-05-21 09:18:19</time>
      </trkpt>
      <trkpt lat="42.25301" lon="3.07611">
        <ele>3.2</ele>
        <time>2022-05-21 09:18:20</time>
      </trkpt>
      <trkpt lat="42.25308" lon="3.0761">
        <ele>3.2</ele>
        <time>2022-05-21 09:18:21</time>
      </trkpt>
      <trkpt lat="42.25314" lon="3.07609">
        <ele>3.2</ele>
        <time>2022-05-21 09:18:22</time>
      </trkpt>
      <trkpt lat="42.2532" lon="3.07608">
        <ele>3.2</ele>
        <time>2022-05-21 09:18:23</time>
      </trkpt>
      <trkpt lat="42.25327" lon="3.07608">
        <ele>3</ele>
        <time>2022-05-21 09:18:24</time>
      </trkpt>
      <trkpt lat="42.25332" lon="3.0761">
        <ele>3</ele>
        <time>2022-05-21 09:18:25</time>
      </trkpt>
      <trkpt lat="42.25338" lon="3.07612">
        <ele>3</ele>
        <time>2022-05-21 09:18:26</time>
      </trkpt>
      <trkpt lat="42.25345" lon="3.07614">
        <ele>3</ele>
        <time>2022-05-21 09:18:27</time>
      </trkpt>
      <trkpt lat="42.25351" lon="3.07614">
        <ele>3</ele>
        <time>2022-05-21 09:18:28</time>
      </trkpt>
      <trkpt lat="42.25357" lon="3.07611">
        <ele>2.8</ele>
        <time>2022-05-21 09:18:29</time>
      </trkpt>
      <trkpt lat="42.25361" lon="3.07605">
        <ele>2.8</ele>
        <time>2022-05-21 09:18:30</time>
      </trkpt>
      <trkpt lat="42.25363" lon="3.07596">
        <ele>2.6</ele>
        <time>2022-05-21 09:18:31</time>
      </trkpt>
      <trkpt lat="42.25364" lon="3.07588">
        <ele>2.4</ele>
        <time>2022-05-21 09:18:32</time>
      </trkpt>
      <trkpt lat="42.25363" lon="3.07577">
        <ele>2.2</ele>
        <time>2022-05-21 09:18:33</time>
      </trkpt>
      <trkpt lat="42.25361" lon="3.07569">
        <ele>2</ele>
        <time>2022-05-21 09:18:34</time>
      </trkpt>
      <trkpt lat="42.2536" lon="3.0756">
        <ele>2</ele>
        <time>2022-05-21 09:18:35</time>
      </trkpt>
      <trkpt lat="42.2536" lon="3.07551">
        <ele>2</ele>
        <time>2022-05-21 09:18:36</time>
      </trkpt>
      <trkpt lat="42.25363" lon="3.07542">
        <ele>1.8</ele>
        <time>2022-05-21 09:18:37</time>
      </trkpt>
      <trkpt lat="42.25366" lon="3.07534">
        <ele>1.8</ele>
        <time>2022-05-21 09:18:38</time>
      </trkpt>
      <trkpt lat="42.2537" lon="3.07526">
        <ele>1.6</ele>
        <time>2022-05-21 09:18:39</time>
      </trkpt>
      <trkpt lat="42.25374" lon="3.07518">
        <ele>1.4</ele>
        <time>2022-05-21 09:18:40</time>
      </trkpt>
      <trkpt lat="42.25378" lon="3.0751">
        <ele>1.4</ele>
        <time>2022-05-21 09:18:41</time>
      </trkpt>
      <trkpt lat="42.25382" lon="3.07501">
        <ele>1.2</ele>
        <time>2022-05-21 09:18:42</time>
      </trkpt>
      <trkpt lat="42.25387" lon="3.07494">
        <ele>1</ele>
        <time>2022-05-21 09:18:43</time>
      </trkpt>
      <trkpt lat="42.25392" lon="3.07487">
        <ele>1</ele>
        <time>2022-05-21 09:18:44</time>
      </trkpt>
      <trkpt lat="42.25397" lon="3.07479">
        <ele>0.8</ele>
        <time>2022-05-21 09:18:45</time>
      </trkpt>
      <trkpt lat="42.25402" lon="3.07473">
        <ele>0.8</ele>
        <time>2022-05-21 09:18:46</time>
      </trkpt>
      <trkpt lat="42.25407" lon="3.07466">
        <ele>0.6</ele>
        <time>2022-05-21 09:18:47</time>
      </trkpt>
      <trkpt lat="42.25412" lon="3.07459">
        <ele>0.6</ele>
        <time>2022-05-21 09:18:48</time>
      </trkpt>
      <trkpt lat="42.25418" lon="3.07453">
        <ele>0.4</ele>
        <time>2022-05-21 09:18:49</time>
      </trkpt>
      <trkpt lat="42.25425" lon="3.07448">
        <ele>0.4</ele>
        <time>2022-05-21 09:18:50</time>
      </trkpt>
      <trkpt lat="42.25431" lon="3.07442">
        <ele>0.2</ele>
        <time>2022-05-21 09:18:51</time>
      </trkpt>
      <trkpt lat="42.25437" lon="3.07437">
        <time>2022-05-21 09:18:52</time>
      </trkpt>
      <trkpt lat="42.25444" lon="3.07433">
        <ele>-0.2</ele>
        <time>2022-05-21 09:18:53</time>
      </trkpt>
      <trkpt lat="42.2545" lon="3.07428">
        <ele>-0.2</ele>
        <time>2022-05-21 09:18:54</time>
      </trkpt>
      <trkpt lat="42.25457" lon="3.07424">
        <ele>-0.4</ele>
        <time>2022-05-21 09:18:55</time>
      </trkpt>
      <trkpt lat="42.25464" lon="3.0742">
        <ele>-0.4</ele>
        <time>2022-05-21 09:18:56</time>
      </trkpt>
      <trkpt lat="42.25471" lon="3.07417">
        <ele>-0.6</ele>
        <time>2022-05-21 09:18:57</time>
      </trkpt>
      <trkpt lat="42.25478" lon="3.07414">
        <ele>-0.6</ele>
        <time>2022-05-21 09:18:58</time>
      </trkpt>
      <trkpt lat="42.25484" lon="3.07412">
        <ele>-0.4</ele>
        <time>2022-05-21 09:18:59</time>
      </trkpt>
      <trkpt lat="42.25491" lon="3.07411">
        <ele>-0.4</ele>
        <time>2022-05-21 09:19:00</time>
      </trkpt>
      <trkpt lat="42.25497" lon="3.07411">
        <ele>-0.4</ele>
        <time>2022-05-21 09:19:01</time>
      </trkpt>
      <trkpt lat="42.25503" lon="3.07412">
        <ele>-0.2</ele>
        <time>2022-05-21 09:19:02</time>
      </trkpt>
      <trkpt lat="42.25509" lon="3.07415">
        <ele>-0.2</ele>
        <time>2022-05-21 09:19:03</time>
      </trkpt>
      <trkpt lat="42.25515" lon="3.07418">
        <time>2022-05-21 09:19:04</time>
      </trkpt>
      <trkpt lat="42.25521" lon="3.07423">
        <ele>-0.2</ele>
        <time>2022-05-21 09:19:05</time>
      </trkpt>
      <trkpt lat="42.25526" lon="3.07429">
        <ele>-0.2</ele>
        <time>2022-05-21 09:19:06</time>
      </trkpt>
      <trkpt lat="42.2553" lon="3.07436">
        <ele>-0.4</ele>
        <time>2022-05-21 09:19:07</time>
      </trkpt>
      <trkpt lat="42.25533" lon="3.07444">
        <ele>-0.6</ele>
        <time>2022-05-21 09:19:08</time>
      </trkpt>
      <trkpt lat="42.25536" lon="3.07453">
        <ele>-0.6</ele>
        <time>2022-05-21 09:19:09</time>
      </trkpt>
      <trkpt lat="42.25538" lon="3.07461">
        <ele>-0.6</ele>
        <time>2022-05-21 09:19:10</time>
      </trkpt>
      <trkpt lat="42.25541" lon="3.0747">
        <ele>-0.8</ele>
        <time>2022-05-21 09:19:11</time>
      </trkpt>
      <trkpt lat="42.25543" lon="3.0748">
        <ele>-0.8</ele>
        <time>2022-05-21 09:19:12</time>
      </trkpt>
      <trkpt lat="42.25545" lon="3.07489">
        <ele>-0.8</ele>
        <time>2022-05-21 09:19:13</time>
      </trkpt>
      <trkpt lat="42.25548" lon="3.07498">
        <ele>-1</ele>
        <time>2022-05-21 09:19:14</time>
      </trkpt>
      <trkpt lat="42.25549" lon="3.07507">
        <ele>-1.2</ele>
        <time>2022-05-21 09:19:15</time>
      </trkpt>
      <trkpt lat="42.25552" lon="3.07517">
        <ele>-1.2</ele>
        <time>2022-05-21 09:19:16</time>
      </trkpt>
      <trkpt lat="42.25554" lon="3.07526">
        <ele>-1.4</ele>
        <time>2022-05-21 09:19:17</time>
      </trkpt>
      <trkpt lat="42.25556" lon="3.07536">
        <ele>-1.4</ele>
        <time>2022-05-21 09:19:18</time>
      </trkpt>
      <trkpt lat="42.25559" lon="3.07545">
        <ele>-1.6</ele>
        <time>2022-05-21 09:19:19</time>
      </trkpt>
      <trkpt lat="42.25561" lon="3.07555">
        <ele>-1.6</ele>
        <time>2022-05-21 09:19:20</time>
      </trkpt>
      <trkpt lat="42.25563" lon="3.07564">
        <ele>-1.8</ele>
        <time>2022-05-21 09:19:21</time>
      </trkpt>
      <trkpt lat="42.25566" lon="3.07574">
        <ele>-1.8</ele>
        <time>2022-05-21 09:19:22</time>
      </trkpt>
      <trkpt lat="42.25568" lon="3.07583">
        <ele>-1.8</ele>
        <time>2022-05-21 09:19:23</time>
      </trkpt>
      <trkpt lat="42.25571" lon="3.07592">
        <ele>-2</ele>
        <time>2022-05-21 09:19:24</time>
      </trkpt>
      <trkpt lat="42.25574" lon="3.07601">
        <ele>-2</ele>
        <time>2022-05-21 09:19:25</time>
      </trkpt>
      <trkpt lat="42.25578" lon="3.0761">
        <ele>-2</ele>
        <time>2022-05-21 09:19:26</time>
      </trkpt>
      <trkpt lat="42.2558" lon="3.07619">
        <ele>-2.2</ele>
        <time>2022-05-21 09:19:27</time>
      </trkpt>
      <trkpt lat="42.25583" lon="3.07628">
        <ele>-2.2</ele>
        <time>2022-05-21 09:19:28</time>
      </trkpt>
      <trkpt lat="42.25585" lon="3.07637">
        <ele>-2.4</ele>
        <time>2022-05-21 09:19:29</time>
      </trkpt>
      <trkpt lat="42.25588" lon="3.07646">
        <ele>-2.4</ele>
        <time>2022-05-21 09:19:30</time>
      </trkpt>
      <trkpt lat="42.25591" lon="3.07655">
        <ele>-2.4</ele>
        <time>2022-05-21 09:19:31</time>
      </trkpt>
      <trkpt lat="42.25593" lon="3.07664">
        <ele>-2.6</ele>
        <time>2022-05-21 09:19:32</time>
      </trkpt>
      <trkpt lat="42.25596" lon="3.07674">
        <ele>-2.6</ele>
        <time>2022-05-21 09:19:33</time>
      </trkpt>
      <trkpt lat="42.25598" lon="3.07682">
        <ele>-2.6</ele>
        <time>2022-05-21 09:19:34</time>
      </trkpt>
      <trkpt lat="42.256" lon="3.07691">
        <ele>-2.8</ele>
        <time>2022-05-21 09:19:35</time>
      </trkpt>
      <trkpt lat="42.25602" lon="3.077">
        <ele>-2.8</ele>
        <time>2022-05-21 09:19:36</time>
      </trkpt>
      <trkpt lat="42.25604" lon="3.07709">
        <ele>-2.8</ele>
        <time>2022-05-21 09:19:37</time>
      </trkpt>
      <trkpt lat="42.25606" lon="3.07719">
        <ele>-2.8</ele>
        <time>2022-05-21 09:19:38</time>
      </trkpt>
      <trkpt lat="42.25609" lon="3.07728">
        <ele>-2.8</ele>
        <time>2022-05-21 09:19:39</time>
      </trkpt>
      <trkpt lat="42.25611" lon="3.07736">
        <ele>-2.8</ele>
        <time>2022-05-21 09:19:40</time>
      </trkpt>
      <trkpt lat="42.25613" lon="3.07745">
        <ele>-2.8</ele>
        <time>2022-05-21 09:19:41</time>
      </trkpt>
      <trkpt lat="42.25615" lon="3.07754">
        <ele>-2.8</ele>
        <time>2022-05-21 09:19:42</time>
      </trkpt>
      <trkpt lat="42.25617" lon="3.07762">
        <ele>-3</ele>
        <time>2022-05-21 09:19:43</time>
      </trkpt>
      <trkpt lat="42.25619" lon="3.07771">
        <ele>-3</ele>
        <time>2022-05-21 09:19:44</time>
      </trkpt>
      <trkpt lat="42.25621" lon="3.0778">
        <ele>-3</ele>
        <time>2022-05-21 09:19:45</time>
      </trkpt>
      <trkpt lat="42.25623" lon="3.07788">
        <ele>-3</ele>
        <time>2022-05-21 09:19:46</time>
      </trkpt>
      <trkpt lat="42.25625" lon="3.07796">
        <ele>-3</ele>
        <time>2022-05-21 09:19:47</time>
      </trkpt>
      <trkpt lat="42.25627" lon="3.07805">
        <ele>-3</ele>
        <time>2022-05-21 09:19:48</time>
      </trkpt>
      <trkpt lat="42.25629" lon="3.07814">
        <ele>-3</ele>
        <time>2022-05-21 09:19:49</time>
      </trkpt>
      <trkpt lat="42.25632" lon="3.07823">
        <ele>-3</ele>
        <time>2022-05-21 09:19:50</time>
      </trkpt>
      <trkpt lat="42.25634" lon="3.07832">
        <ele>-3</ele>
        <time>2022-05-21 09:19:51</time>
      </trkpt>
      <trkpt lat="42.25636" lon="3.0784">
        <ele>-3</ele>
        <time>2022-05-21 09:19:52</time>
      </trkpt>
      <trkpt lat="42.25638" lon="3.07849">
        <ele>-2.8</ele>
        <time>2022-05-21 09:19:53</time>
      </trkpt>
      <trkpt lat="42.2564" lon="3.07858">
        <ele>-2.8</ele>
        <time>2022-05-21 09:19:54</time>
      </trkpt>
      <trkpt lat="42.25643" lon="3.07867">
        <ele>-2.8</ele>
        <time>2022-05-21 09:19:55</time>
      </trkpt>
      <trkpt lat="42.25645" lon="3.07875">
        <ele>-3</ele>
        <time>2022-05-21 09:19:56</time>
      </trkpt>
      <trkpt lat="42.25648" lon="3.07884">
        <ele>-3</ele>
        <time>2022-05-21 09:19:57</time>
      </trkpt>
      <trkpt lat="42.2565" lon="3.07892">
        <ele>-3</ele>
        <time>2022-05-21 09:19:58</time>
      </trkpt>
      <trkpt lat="42.25652" lon="3.07901">
        <ele>-3</ele>
        <time>2022-05-21 09:19:59</time>
      </trkpt>
      <trkpt lat="42.25654" lon="3.0791">
        <ele>-3</ele>
        <time>2022-05-21 09:20:00</time>
      </trkpt>
      <trkpt lat="42.25657" lon="3.07919">
        <ele>-3</ele>
        <time>2022-05-21 09:20:01</time>
      </trkpt>
      <trkpt lat="42.25659" lon="3.07928">
        <ele>-3</ele>
        <time>2022-05-21 09:20:02</time>
      </trkpt>
      <trkpt lat="42.25662" lon="3.07937">
        <ele>-3</ele>
        <time>2022-05-21 09:20:03</time>
      </trkpt>
      <trkpt lat="42.25664" lon="3.07945">
        <ele>-3.2</ele>
        <time>2022-05-21 09:20:04</time>
      </trkpt>
      <trkpt lat="42.25666" lon="3.07954">
        <ele>-3.2</ele>
        <time>2022-05-21 09:20:05</time>
      </trkpt>
      <trkpt lat="42.25668" lon="3.07963">
        <ele>-3.2</ele>
        <time>2022-05-21 09:20:06</time>
      </trkpt>
      <trkpt lat="42.2567" lon="3.07972">
        <ele>-3.2</ele>
        <time>2022-05-21 09:20:07</time>
      </trkpt>
      <trkpt lat="42.25672" lon="3.0798">
        <ele>-3.2</ele>
        <time>2022-05-21 09:20:08</time>
      </trkpt>
      <trkpt lat="42.25675" lon="3.07989">
        <ele>-3.2</ele>
        <time>2022-05-21 09:20:09</time>
      </trkpt>
      <trkpt lat="42.25677" lon="3.07997">
        <ele>-3.2</ele>
        <time>2022-05-21 09:20:10</time>
      </trkpt>
      <trkpt lat="42.25679" lon="3.08006">
        <ele>-3.2</ele>
        <time>2022-05-21 09:20:11</time>
      </trkpt>
      <trkpt lat="42.25681" lon="3.08015">
        <ele>-3</ele>
        <time>2022-05-21 09:20:12</time>
      </trkpt>
      <trkpt lat="42.25683" lon="3.08024">
        <ele>-3</ele>
        <time>2022-05-21 09:20:13</time>
      </trkpt>
      <trkpt lat="42.25686" lon="3.08032">
        <ele>-3</ele>
        <time>2022-05-21 09:20:14</time>
      </trkpt>
      <trkpt lat="42.25688" lon="3.08039">
        <ele>-3</ele>
        <time>2022-05-21 09:20:15</time>
      </trkpt>
      <trkpt lat="42.25691" lon="3.08046">
        <ele>-3</ele>
        <time>2022-05-21 09:20:16</time>
      </trkpt>
      <trkpt lat="42.25694" lon="3.08051">
        <ele>-2.8</ele>
        <time>2022-05-21 09:20:17</time>
      </trkpt>
      <trkpt lat="42.25699" lon="3.08054">
        <ele>-2.8</ele>
        <time>2022-05-21 09:20:18</time>
      </trkpt>
      <trkpt lat="42.25704" lon="3.08055">
        <ele>-2.8</ele>
        <time>2022-05-21 09:20:19</time>
      </trkpt>
      <trkpt lat="42.25709" lon="3.08053">
        <ele>-3</ele>
        <time>2022-05-21 09:20:20</time>
      </trkpt>
      <trkpt lat="42.25713" lon="3.08049">
        <ele>-3</ele>
        <time>2022-05-21 09:20:21</time>
      </trkpt>
      <trkpt lat="42.25718" lon="3.08044">
        <ele>-3</ele>
        <time>2022-05-21 09:20:22</time>
      </trkpt>
      <trkpt lat="42.25722" lon="3.08038">
        <ele>-3</ele>
        <time>2022-05-21 09:20:23</time>
      </trkpt>
      <trkpt lat="42.25725" lon="3.08032">
        <ele>-3.2</ele>
        <time>2022-05-21 09:20:24</time>
      </trkpt>
      <trkpt lat="42.25729" lon="3.08026">
        <ele>-3.2</ele>
        <time>2022-05-21 09:20:25</time>
      </trkpt>
      <trkpt lat="42.25733" lon="3.0802">
        <ele>-3.2</ele>
        <time>2022-05-21 09:20:26</time>
      </trkpt>
      <trkpt lat="42.25737" lon="3.08013">
        <ele>-3.2</ele>
        <time>2022-05-21 09:20:27</time>
      </trkpt>
      <trkpt lat="42.2574" lon="3.08006">
        <ele>-3.4</ele>
        <time>2022-05-21 09:20:28</time>
      </trkpt>
      <trkpt lat="42.25744" lon="3.07999">
        <ele>-3.4</ele>
        <time>2022-05-21 09:20:29</time>
      </trkpt>
      <trkpt lat="42.25748" lon="3.07993">
        <ele>-3.4</ele>
        <time>2022-05-21 09:20:30</time>
      </trkpt>
      <trkpt lat="42.25752" lon="3.07986">
        <ele>-3.4</ele>
        <time>2022-05-21 09:20:31</time>
      </trkpt>
      <trkpt lat="42.25756" lon="3.07979">
        <ele>-3.4</ele>
        <time>2022-05-21 09:20:32</time>
      </trkpt>
      <trkpt lat="42.25758" lon="3.07973">
        <ele>-3.6</ele>
        <time>2022-05-21 09:20:33</time>
      </trkpt>
      <trkpt lat="42.25762" lon="3.07967">
        <ele>-3.6</ele>
        <time>2022-05-21 09:20:34</time>
      </trkpt>
      <trkpt lat="42.25765" lon="3.0796">
        <ele>-3.6</ele>
        <time>2022-05-21 09:20:35</time>
      </trkpt>
      <trkpt lat="42.25769" lon="3.07953">
        <ele>-3.6</ele>
        <time>2022-05-21 09:20:36</time>
      </trkpt>
      <trkpt lat="42.25773" lon="3.07946">
        <ele>-3.6</ele>
        <time>2022-05-21 09:20:37</time>
      </trkpt>
      <trkpt lat="42.25777" lon="3.07939">
        <ele>-3.6</ele>
        <time>2022-05-21 09:20:38</time>
      </trkpt>
      <trkpt lat="42.25782" lon="3.07933">
        <ele>-3.6</ele>
        <time>2022-05-21 09:20:39</time>
      </trkpt>
      <trkpt lat="42.25786" lon="3.07926">
        <ele>-3.6</ele>
        <time>2022-05-21 09:20:40</time>
      </trkpt>
      <trkpt lat="42.2579" lon="3.07919">
        <ele>-3.8</ele>
        <time>2022-05-21 09:20:41</time>
      </trkpt>
      <trkpt lat="42.25795" lon="3.07911">
        <ele>-3.8</ele>
        <time>2022-05-21 09:20:42</time>
      </trkpt>
      <trkpt lat="42.25799" lon="3.07904">
        <ele>-3.8</ele>
        <time>2022-05-21 09:20:43</time>
      </trkpt>
      <trkpt lat="42.25804" lon="3.07897">
        <ele>-3.8</ele>
        <time>2022-05-21 09:20:44</time>
      </trkpt>
      <trkpt lat="42.25808" lon="3.0789">
        <ele>-3.8</ele>
        <time>2022-05-21 09:20:45</time>
      </trkpt>
      <trkpt lat="42.25812" lon="3.07883">
        <ele>-3.8</ele>
        <time>2022-05-21 09:20:46</time>
      </trkpt>
      <trkpt lat="42.25816" lon="3.07876">
        <ele>-3.8</ele>
        <time>2022-05-21 09:20:47</time>
      </trkpt>
      <trkpt lat="42.25821" lon="3.0787">
        <ele>-3.8</ele>
        <time>2022-05-21 09:20:48</time>
      </trkpt>
      <trkpt lat="42.25825" lon="3.07863">
        <ele>-3.8</ele>
        <time>2022-05-21 09:20:49</time>
      </trkpt>
      <trkpt lat="42.25829" lon="3.07857">
        <ele>-3.8</ele>
        <time>2022-05-21 09:20:50</time>
      </trkpt>
      <trkpt lat="42.25832" lon="3.07851">
        <ele>-3.8</ele>
        <time>2022-05-21 09:20:51</time>
      </trkpt>
      <trkpt lat="42.25836" lon="3.07844">
        <ele>-3.8</ele>
        <time>2022-05-21 09:20:52</time>
      </trkpt>
      <trkpt lat="42.2584" lon="3.07837">
        <ele>-3.8</ele>
        <time>2022-05-21 09:20:53</time>
      </trkpt>
      <trkpt lat="42.25843" lon="3.07831">
        <ele>-3.8</ele>
        <time>2022-05-21 09:20:54</time>
      </trkpt>
      <trkpt lat="42.25847" lon="3.07826">
        <ele>-3.8</ele>
        <time>2022-05-21 09:20:55</time>
      </trkpt>
      <trkpt lat="42.25852" lon="3.07823">
        <ele>-3.8</ele>
        <time>2022-05-21 09:20:56</time>
      </trkpt>
      <trkpt lat="42.25857" lon="3.07825">
        <ele>-3.8</ele>
        <time>2022-05-21 09:20:57</time>
      </trkpt>
      <trkpt lat="42.25861" lon="3.07829">
        <ele>-3.6</ele>
        <time>2022-05-21 09:20:58</time>
      </trkpt>
      <trkpt lat="42.25864" lon="3.07834">
        <ele>-3.6</ele>
        <time>2022-05-21 09:20:59</time>
      </trkpt>
      <trkpt lat="42.25866" lon="3.07841">
        <ele>-3.6</ele>
        <time>2022-05-21 09:21:00</time>
      </trkpt>
      <trkpt lat="42.25869" lon="3.07848">
        <ele>-3.6</ele>
        <time>2022-05-21 09:21:01</time>
      </trkpt>
      <trkpt lat="42.25871" lon="3.07855">
        <ele>-3.6</ele>
        <time>2022-05-21 09:21:02</time>
      </trkpt>
      <trkpt lat="42.25872" lon="3.07863">
        <ele>-3.6</ele>
        <time>2022-05-21 09:21:03</time>
      </trkpt>
      <trkpt lat="42.25874" lon="3.0787">
        <ele>-3.6</ele>
        <time>2022-05-21 09:21:04</time>
      </trkpt>
      <trkpt lat="42.25875" lon="3.07878">
        <ele>-3.6</ele>
        <time>2022-05-21 09:21:05</time>
      </trkpt>
      <trkpt lat="42.25877" lon="3.07886">
        <ele>-3.6</ele>
        <time>2022-05-21 09:21:06</time>
      </trkpt>
      <trkpt lat="42.25879" lon="3.07894">
        <ele>-3.6</ele>
        <time>2022-05-21 09:21:07</time>
      </trkpt>
      <trkpt lat="42.25881" lon="3.07901">
        <ele>-3.6</ele>
        <time>2022-05-21 09:21:08</time>
      </trkpt>
      <trkpt lat="42.25882" lon="3.07909">
        <ele>-3.6</ele>
        <time>2022-05-21 09:21:09</time>
      </trkpt>
      <trkpt lat="42.25884" lon="3.07918">
        <ele>-3.6</ele>
        <time>2022-05-21 09:21:10</time>
      </trkpt>
      <trkpt lat="42.25886" lon="3.07926">
        <ele>-3.6</ele>
        <time>2022-05-21 09:21:11</time>
      </trkpt>
      <trkpt lat="42.25888" lon="3.07934">
        <ele>-3.8</ele>
        <time>2022-05-21 09:21:12</time>
      </trkpt>
      <trkpt lat="42.2589" lon="3.07943">
        <ele>-3.8</ele>
        <time>2022-05-21 09:21:13</time>
      </trkpt>
      <trkpt lat="42.25891" lon="3.07951">
        <ele>-3.8</ele>
        <time>2022-05-21 09:21:14</time>
      </trkpt>
      <trkpt lat="42.25893" lon="3.0796">
        <ele>-3.8</ele>
        <time>2022-05-21 09:21:15</time>
      </trkpt>
      <trkpt lat="42.25894" lon="3.07968">
        <ele>-3.8</ele>
        <time>2022-05-21 09:21:16</time>
      </trkpt>
      <trkpt lat="42.25896" lon="3.07977">
        <ele>-3.8</ele>
        <time>2022-05-21 09:21:17</time>
      </trkpt>
      <trkpt lat="42.25898" lon="3.07986">
        <ele>-3.8</ele>
        <time>2022-05-21 09:21:18</time>
      </trkpt>
      <trkpt lat="42.25899" lon="3.07994">
        <ele>-4</ele>
        <time>2022-05-21 09:21:19</time>
      </trkpt>
      <trkpt lat="42.25901" lon="3.08003">
        <ele>-4</ele>
        <time>2022-05-21 09:21:20</time>
      </trkpt>
      <trkpt lat="42.25902" lon="3.08012">
        <ele>-4</ele>
        <time>2022-05-21 09:21:21</time>
      </trkpt>
      <trkpt lat="42.25903" lon="3.0802">
        <ele>-4</ele>
        <time>2022-05-21 09:21:22</time>
      </trkpt>
      <trkpt lat="42.25904" lon="3.08029">
        <ele>-4</ele>
        <time>2022-05-21 09:21:23</time>
      </trkpt>
      <trkpt lat="42.25906" lon="3.08038">
        <ele>-4.2</ele>
        <time>2022-05-21 09:21:24</time>
      </trkpt>
      <trkpt lat="42.25907" lon="3.08047">
        <ele>-4.2</ele>
        <time>2022-05-21 09:21:25</time>
      </trkpt>
      <trkpt lat="42.25908" lon="3.08056">
        <ele>-4.2</ele>
        <time>2022-05-21 09:21:26</time>
      </trkpt>
      <trkpt lat="42.25909" lon="3.08064">
        <ele>-4.2</ele>
        <time>2022-05-21 09:21:27</time>
      </trkpt>
      <trkpt lat="42.25909" lon="3.08073">
        <ele>-4.2</ele>
        <time>2022-05-21 09:21:28</time>
      </trkpt>
      <trkpt lat="42.2591" lon="3.08082">
        <ele>-4.4</ele>
        <time>2022-05-21 09:21:29</time>
      </trkpt>
      <trkpt lat="42.25911" lon="3.0809">
        <ele>-4.4</ele>
        <time>2022-05-21 09:21:30</time>
      </trkpt>
      <trkpt lat="42.25912" lon="3.08099">
        <ele>-4.4</ele>
        <time>2022-05-21 09:21:31</time>
      </trkpt>
      <trkpt lat="42.25913" lon="3.08107">
        <ele>-4.4</ele>
        <time>2022-05-21 09:21:32</time>
      </trkpt>
      <trkpt lat="42.25914" lon="3.08115">
        <ele>-4.4</ele>
        <time>2022-05-21 09:21:33</time>
      </trkpt>
      <trkpt lat="42.25914" lon="3.08123">
        <ele>-4.4</ele>
        <time>2022-05-21 09:21:34</time>
      </trkpt>
      <trkpt lat="42.25916" lon="3.08131">
        <ele>-4.4</ele>
        <time>2022-05-21 09:21:35</time>
      </trkpt>
      <trkpt lat="42.25917" lon="3.08139">
        <ele>-4.4</ele>
        <time>2022-05-21 09:21:36</time>
      </trkpt>
      <trkpt lat="42.25918" lon="3.08148">
        <ele>-4.4</ele>
        <time>2022-05-21 09:21:37</time>
      </trkpt>
      <trkpt lat="42.25919" lon="3.08156">
        <ele>-4.4</ele>
        <time>2022-05-21 09:21:38</time>
      </trkpt>
      <trkpt lat="42.2592" lon="3.08165">
        <ele>-4.4</ele>
        <time>2022-05-21 09:21:39</time>
      </trkpt>
      <trkpt lat="42.25922" lon="3.08173">
        <ele>-4.4</ele>
        <time>2022-05-21 09:21:40</time>
      </trkpt>
      <trkpt lat="42.25923" lon="3.08182">
        <ele>-4.4</ele>
        <time>2022-05-21 09:21:41</time>
      </trkpt>
      <trkpt lat="42.25925" lon="3.08191">
        <ele>-4.4</ele>
        <time>2022-05-21 09:21:42</time>
      </trkpt>
      <trkpt lat="42.25926" lon="3.082">
        <ele>-4.4</ele>
        <time>2022-05-21 09:21:43</time>
      </trkpt>
      <trkpt lat="42.25928" lon="3.08209">
        <ele>-4.4</ele>
        <time>2022-05-21 09:21:44</time>
      </trkpt>
      <trkpt lat="42.25929" lon="3.08218">
        <ele>-4.4</ele>
        <time>2022-05-21 09:21:45</time>
      </trkpt>
      <trkpt lat="42.25931" lon="3.08227">
        <ele>-4.4</ele>
        <time>2022-05-21 09:21:46</time>
      </trkpt>
      <trkpt lat="42.25933" lon="3.08235">
        <ele>-4.6</ele>
        <time>2022-05-21 09:21:47</time>
      </trkpt>
      <trkpt lat="42.25934" lon="3.08245">
        <ele>-4.6</ele>
        <time>2022-05-21 09:21:48</time>
      </trkpt>
      <trkpt lat="42.25935" lon="3.08254">
        <ele>-4.6</ele>
        <time>2022-05-21 09:21:49</time>
      </trkpt>
      <trkpt lat="42.25937" lon="3.08263">
        <ele>-4.6</ele>
        <time>2022-05-21 09:21:50</time>
      </trkpt>
      <trkpt lat="42.25938" lon="3.08272">
        <ele>-4.6</ele>
        <time>2022-05-21 09:21:51</time>
      </trkpt>
      <trkpt lat="42.2594" lon="3.0828">
        <ele>-4.6</ele>
        <time>2022-05-21 09:21:52</time>
      </trkpt>
      <trkpt lat="42.25943" lon="3.08288">
        <ele>-4.4</ele>
        <time>2022-05-21 09:21:53</time>
      </trkpt>
      <trkpt lat="42.25948" lon="3.08295">
        <ele>-4.4</ele>
        <time>2022-05-21 09:21:54</time>
      </trkpt>
      <trkpt lat="42.25953" lon="3.08301">
        <ele>-4.4</ele>
        <time>2022-05-21 09:21:55</time>
      </trkpt>
      <trkpt lat="42.25958" lon="3.08307">
        <ele>-4.4</ele>
        <time>2022-05-21 09:21:56</time>
      </trkpt>
      <trkpt lat="42.25962" lon="3.08313">
        <ele>-4.4</ele>
        <time>2022-05-21 09:21:57</time>
      </trkpt>
      <trkpt lat="42.25967" lon="3.0832">
        <ele>-4.4</ele>
        <time>2022-05-21 09:21:58</time>
      </trkpt>
      <trkpt lat="42.25972" lon="3.08327">
        <ele>-4.2</ele>
        <time>2022-05-21 09:21:59</time>
      </trkpt>
      <trkpt lat="42.25976" lon="3.08333">
        <ele>-4</ele>
        <time>2022-05-21 09:22:00</time>
      </trkpt>
      <trkpt lat="42.2598" lon="3.08339">
        <ele>-3.8</ele>
        <time>2022-05-21 09:22:01</time>
      </trkpt>
      <trkpt lat="42.25984" lon="3.08345">
        <ele>-3.8</ele>
        <time>2022-05-21 09:22:02</time>
      </trkpt>
      <trkpt lat="42.25989" lon="3.08351">
        <ele>-3.6</ele>
        <time>2022-05-21 09:22:03</time>
      </trkpt>
      <trkpt lat="42.25993" lon="3.08357">
        <ele>-3.6</ele>
        <time>2022-05-21 09:22:04</time>
      </trkpt>
      <trkpt lat="42.25997" lon="3.08363">
        <ele>-3.4</ele>
        <time>2022-05-21 09:22:05</time>
      </trkpt>
      <trkpt lat="42.26001" lon="3.08368">
        <ele>-3.2</ele>
        <time>2022-05-21 09:22:06</time>
      </trkpt>
      <trkpt lat="42.26006" lon="3.08373">
        <ele>-3.2</ele>
        <time>2022-05-21 09:22:07</time>
      </trkpt>
      <trkpt lat="42.26011" lon="3.08377">
        <ele>-3</ele>
        <time>2022-05-21 09:22:08</time>
      </trkpt>
      <trkpt lat="42.26016" lon="3.08381">
        <ele>-3</ele>
        <time>2022-05-21 09:22:09</time>
      </trkpt>
      <trkpt lat="42.26022" lon="3.08384">
        <ele>-3</ele>
        <time>2022-05-21 09:22:10</time>
      </trkpt>
      <trkpt lat="42.26027" lon="3.08387">
        <ele>-3</ele>
        <time>2022-05-21 09:22:11</time>
      </trkpt>
      <trkpt lat="42.26033" lon="3.0839">
        <ele>-2.8</ele>
        <time>2022-05-21 09:22:12</time>
      </trkpt>
      <trkpt lat="42.26038" lon="3.08392">
        <ele>-2.8</ele>
        <time>2022-05-21 09:22:13</time>
      </trkpt>
      <trkpt lat="42.26045" lon="3.08394">
        <ele>-3</ele>
        <time>2022-05-21 09:22:14</time>
      </trkpt>
      <trkpt lat="42.26051" lon="3.08395">
        <ele>-3</ele>
        <time>2022-05-21 09:22:15</time>
      </trkpt>
      <trkpt lat="42.26058" lon="3.08397">
        <ele>-3</ele>
        <time>2022-05-21 09:22:16</time>
      </trkpt>
      <trkpt lat="42.26064" lon="3.08399">
        <ele>-3</ele>
        <time>2022-05-21 09:22:17</time>
      </trkpt>
      <trkpt lat="42.26071" lon="3.08401">
        <ele>-3.2</ele>
        <time>2022-05-21 09:22:18</time>
      </trkpt>
      <trkpt lat="42.26077" lon="3.08402">
        <ele>-3.2</ele>
        <time>2022-05-21 09:22:19</time>
      </trkpt>
      <trkpt lat="42.26084" lon="3.08404">
        <ele>-3.2</ele>
        <time>2022-05-21 09:22:20</time>
      </trkpt>
      <trkpt lat="42.26091" lon="3.08406">
        <ele>-3.2</ele>
        <time>2022-05-21 09:22:21</time>
      </trkpt>
      <trkpt lat="42.26097" lon="3.08407">
        <ele>-3.2</ele>
        <time>2022-05-21 09:22:22</time>
      </trkpt>
      <trkpt lat="42.26104" lon="3.08409">
        <ele>-3.2</ele>
        <time>2022-05-21 09:22:23</time>
      </trkpt>
      <trkpt lat="42.26111" lon="3.0841">
        <ele>-3.4</ele>
        <time>2022-05-21 09:22:24</time>
      </trkpt>
      <trkpt lat="42.26117" lon="3.08412">
        <ele>-3.4</ele>
        <time>2022-05-21 09:22:25</time>
      </trkpt>
      <trkpt lat="42.26124" lon="3.08414">
        <ele>-3.4</ele>
        <time>2022-05-21 09:22:26</time>
      </trkpt>
      <trkpt lat="42.26131" lon="3.08415">
        <ele>-3.4</ele>
        <time>2022-05-21 09:22:27</time>
      </trkpt>
      <trkpt lat="42.26138" lon="3.08417">
        <ele>-3.4</ele>
        <time>2022-05-21 09:22:28</time>
      </trkpt>
      <trkpt lat="42.26144" lon="3.08419">
        <ele>-3.6</ele>
        <time>2022-05-21 09:22:29</time>
      </trkpt>
      <trkpt lat="42.26151" lon="3.08421">
        <ele>-3.6</ele>
        <time>2022-05-21 09:22:30</time>
      </trkpt>
      <trkpt lat="42.26157" lon="3.08423">
        <ele>-3.6</ele>
        <time>2022-05-21 09:22:31</time>
      </trkpt>
      <trkpt lat="42.26164" lon="3.08424">
        <ele>-3.8</ele>
        <time>2022-05-21 09:22:32</time>
      </trkpt>
      <trkpt lat="42.26171" lon="3.08425">
        <ele>-3.8</ele>
        <time>2022-05-21 09:22:33</time>
      </trkpt>
      <trkpt lat="42.26179" lon="3.08426">
        <ele>-4</ele>
        <time>2022-05-21 09:22:34</time>
      </trkpt>
      <trkpt lat="42.26185" lon="3.08426">
        <ele>-4</ele>
        <time>2022-05-21 09:22:35</time>
      </trkpt>
      <trkpt lat="42.26193" lon="3.08426">
        <ele>-4.2</ele>
        <time>2022-05-21 09:22:36</time>
      </trkpt>
      <trkpt lat="42.262" lon="3.08426">
        <ele>-4.2</ele>
        <time>2022-05-21 09:22:37</time>
      </trkpt>
      <trkpt lat="42.26208" lon="3.08426">
        <ele>-4.4</ele>
        <time>2022-05-21 09:22:38</time>
      </trkpt>
      <trkpt lat="42.26215" lon="3.08426">
        <ele>-4.4</ele>
        <time>2022-05-21 09:22:39</time>
      </trkpt>
      <trkpt lat="42.26222" lon="3.08425">
        <ele>-4.6</ele>
        <time>2022-05-21 09:22:40</time>
      </trkpt>
      <trkpt lat="42.26229" lon="3.08425">
        <ele>-4.6</ele>
        <time>2022-05-21 09:22:41</time>
      </trkpt>
      <trkpt lat="42.26236" lon="3.08425">
        <ele>-4.6</ele>
        <time>2022-05-21 09:22:42</time>
      </trkpt>
      <trkpt lat="42.26243" lon="3.08424">
        <ele>-4.6</ele>
        <time>2022-05-21 09:22:43</time>
      </trkpt>
      <trkpt lat="42.2625" lon="3.08424">
        <ele>-4.8</ele>
        <time>2022-05-21 09:22:44</time>
      </trkpt>
      <trkpt lat="42.26257" lon="3.08424">
        <ele>-4.8</ele>
        <time>2022-05-21 09:22:45</time>
      </trkpt>
      <trkpt lat="42.26264" lon="3.08424">
        <ele>-4.8</ele>
        <time>2022-05-21 09:22:46</time>
      </trkpt>
      <trkpt lat="42.26271" lon="3.08424">
        <ele>-4.8</ele>
        <time>2022-05-21 09:22:47</time>
      </trkpt>
      <trkpt lat="42.26278" lon="3.08424">
        <ele>-4.8</ele>
        <time>2022-05-21 09:22:48</time>
      </trkpt>
      <trkpt lat="42.26285" lon="3.08424">
        <ele>-4.8</ele>
        <time>2022-05-21 09:22:49</time>
      </trkpt>
      <trkpt lat="42.26292" lon="3.08424">
        <ele>-4.8</ele>
        <time>2022-05-21 09:22:50</time>
      </trkpt>
      <trkpt lat="42.26299" lon="3.08423">
        <ele>-4.8</ele>
        <time>2022-05-21 09:22:51</time>
      </trkpt>
      <trkpt lat="42.26306" lon="3.08423">
        <ele>-5</ele>
        <time>2022-05-21 09:22:52</time>
      </trkpt>
      <trkpt lat="42.26312" lon="3.08424">
        <ele>-4.8</ele>
        <time>2022-05-21 09:22:53</time>
      </trkpt>
      <trkpt lat="42.26319" lon="3.08424">
        <ele>-4.8</ele>
        <time>2022-05-21 09:22:54</time>
      </trkpt>
      <trkpt lat="42.26326" lon="3.08424">
        <ele>-4.8</ele>
        <time>2022-05-21 09:22:55</time>
      </trkpt>
      <trkpt lat="42.26333" lon="3.08423">
        <ele>-5</ele>
        <time>2022-05-21 09:22:56</time>
      </trkpt>
      <trkpt lat="42.2634" lon="3.08423">
        <ele>-5</ele>
        <time>2022-05-21 09:22:57</time>
      </trkpt>
      <trkpt lat="42.26346" lon="3.08424">
        <ele>-5</ele>
        <time>2022-05-21 09:22:58</time>
      </trkpt>
      <trkpt lat="42.26353" lon="3.08425">
        <ele>-5</ele>
        <time>2022-05-21 09:22:59</time>
      </trkpt>
      <trkpt lat="42.2636" lon="3.08426">
        <ele>-5.2</ele>
        <time>2022-05-21 09:23:00</time>
      </trkpt>
      <trkpt lat="42.26367" lon="3.08428">
        <ele>-5.2</ele>
        <time>2022-05-21 09:23:01</time>
      </trkpt>
      <trkpt lat="42.26373" lon="3.08431">
        <ele>-5.2</ele>
        <time>2022-05-21 09:23:02</time>
      </trkpt>
      <trkpt lat="42.26379" lon="3.08435">
        <ele>-5.4</ele>
        <time>2022-05-21 09:23:03</time>
      </trkpt>
      <trkpt lat="42.26385" lon="3.0844">
        <ele>-5.4</ele>
        <time>2022-05-21 09:23:04</time>
      </trkpt>
      <trkpt lat="42.26391" lon="3.08446">
        <ele>-5.4</ele>
        <time>2022-05-21 09:23:05</time>
      </trkpt>
      <trkpt lat="42.26396" lon="3.08452">
        <ele>-5.4</ele>
        <time>2022-05-21 09:23:06</time>
      </trkpt>
      <trkpt lat="42.264" lon="3.08457">
        <ele>-5.4</ele>
        <time>2022-05-21 09:23:07</time>
      </trkpt>
      <trkpt lat="42.26406" lon="3.08464">
        <ele>-5.4</ele>
        <time>2022-05-21 09:23:08</time>
      </trkpt>
      <trkpt lat="42.26411" lon="3.0847">
        <ele>-5.4</ele>
        <time>2022-05-21 09:23:09</time>
      </trkpt>
      <trkpt lat="42.26416" lon="3.08476">
        <ele>-5.2</ele>
        <time>2022-05-21 09:23:10</time>
      </trkpt>
      <trkpt lat="42.2642" lon="3.08481">
        <ele>-5.2</ele>
        <time>2022-05-21 09:23:11</time>
      </trkpt>
      <trkpt lat="42.26426" lon="3.08489">
        <ele>-5.2</ele>
        <time>2022-05-21 09:23:12</time>
      </trkpt>
      <trkpt lat="42.26432" lon="3.08495">
        <ele>-5.2</ele>
        <time>2022-05-21 09:23:13</time>
      </trkpt>
      <trkpt lat="42.26437" lon="3.08501">
        <ele>-5.2</ele>
        <time>2022-05-21 09:23:14</time>
      </trkpt>
      <trkpt lat="42.26442" lon="3.08508">
        <ele>-5.4</ele>
        <time>2022-05-21 09:23:15</time>
      </trkpt>
      <trkpt lat="42.26447" lon="3.08515">
        <ele>-5.4</ele>
        <time>2022-05-21 09:23:16</time>
      </trkpt>
      <trkpt lat="42.26452" lon="3.0852">
        <ele>-5.4</ele>
        <time>2022-05-21 09:23:17</time>
      </trkpt>
      <trkpt lat="42.26458" lon="3.08528">
        <ele>-5.4</ele>
        <time>2022-05-21 09:23:18</time>
      </trkpt>
      <trkpt lat="42.26462" lon="3.08534">
        <ele>-5.4</ele>
        <time>2022-05-21 09:23:19</time>
      </trkpt>
      <trkpt lat="42.26467" lon="3.08541">
        <ele>-5.4</ele>
        <time>2022-05-21 09:23:20</time>
      </trkpt>
      <trkpt lat="42.26472" lon="3.08547">
        <ele>-5.4</ele>
        <time>2022-05-21 09:23:21</time>
      </trkpt>
      <trkpt lat="42.26477" lon="3.08555">
        <ele>-5.4</ele>
        <time>2022-05-21 09:23:22</time>
      </trkpt>
      <trkpt lat="42.26482" lon="3.08562">
        <ele>-5.4</ele>
        <time>2022-05-21 09:23:23</time>
      </trkpt>
      <trkpt lat="42.26487" lon="3.08569">
        <ele>-5.2</ele>
        <time>2022-05-21 09:23:24</time>
      </trkpt>
      <trkpt lat="42.26491" lon="3.08576">
        <ele>-5.2</ele>
        <time>2022-05-21 09:23:25</time>
      </trkpt>
      <trkpt lat="42.26496" lon="3.08583">
        <ele>-5.2</ele>
        <time>2022-05-21 09:23:26</time>
      </trkpt>
      <trkpt lat="42.265" lon="3.08589">
        <ele>-5.2</ele>
        <time>2022-05-21 09:23:27</time>
      </trkpt>
      <trkpt lat="42.26505" lon="3.08597">
        <ele>-5.2</ele>
        <time>2022-05-21 09:23:28</time>
      </trkpt>
      <trkpt lat="42.26509" lon="3.08604">
        <ele>-5.2</ele>
        <time>2022-05-21 09:23:29</time>
      </trkpt>
      <trkpt lat="42.26513" lon="3.08612">
        <ele>-5.2</ele>
        <time>2022-05-21 09:23:30</time>
      </trkpt>
      <trkpt lat="42.26517" lon="3.0862">
        <ele>-5.2</ele>
        <time>2022-05-21 09:23:31</time>
      </trkpt>
      <trkpt lat="42.26522" lon="3.08627">
        <ele>-5.2</ele>
        <time>2022-05-21 09:23:32</time>
      </trkpt>
      <trkpt lat="42.26526" lon="3.08634">
        <ele>-5.2</ele>
        <time>2022-05-21 09:23:33</time>
      </trkpt>
      <trkpt lat="42.26531" lon="3.08643">
        <ele>-5.2</ele>
        <time>2022-05-21 09:23:34</time>
      </trkpt>
      <trkpt lat="42.26535" lon="3.08651">
        <ele>-5.2</ele>
        <time>2022-05-21 09:23:35</time>
      </trkpt>
      <trkpt lat="42.2654" lon="3.08658">
        <ele>-5.2</ele>
        <time>2022-05-21 09:23:36</time>
      </trkpt>
      <trkpt lat="42.26544" lon="3.08665">
        <ele>-5.2</ele>
        <time>2022-05-21 09:23:37</time>
      </trkpt>
      <trkpt lat="42.2655" lon="3.08671">
        <ele>-5.2</ele>
        <time>2022-05-21 09:23:38</time>
      </trkpt>
      <trkpt lat="42.26555" lon="3.08677">
        <ele>-5.2</ele>
        <time>2022-05-21 09:23:39</time>
      </trkpt>
      <trkpt lat="42.26561" lon="3.08683">
        <ele>-5.2</ele>
        <time>2022-05-21 09:23:40</time>
      </trkpt>
      <trkpt lat="42.26567" lon="3.08689">
        <ele>-5.2</ele>
        <time>2022-05-21 09:23:41</time>
      </trkpt>
      <trkpt lat="42.26573" lon="3.08694">
        <ele>-5.2</ele>
        <time>2022-05-21 09:23:42</time>
      </trkpt>
      <trkpt lat="42.26579" lon="3.08699">
        <ele>-5.2</ele>
        <time>2022-05-21 09:23:43</time>
      </trkpt>
      <trkpt lat="42.26585" lon="3.08703">
        <ele>-5</ele>
        <time>2022-05-21 09:23:44</time>
      </trkpt>
      <trkpt lat="42.26591" lon="3.08708">
        <ele>-5</ele>
        <time>2022-05-21 09:23:45</time>
      </trkpt>
      <trkpt lat="42.26598" lon="3.08712">
        <ele>-4.8</ele>
        <time>2022-05-21 09:23:46</time>
      </trkpt>
      <trkpt lat="42.26604" lon="3.08717">
        <ele>-4.8</ele>
        <time>2022-05-21 09:23:47</time>
      </trkpt>
      <trkpt lat="42.2661" lon="3.08721">
        <ele>-4.6</ele>
        <time>2022-05-21 09:23:48</time>
      </trkpt>
      <trkpt lat="42.26616" lon="3.08725">
        <ele>-4.6</ele>
        <time>2022-05-21 09:23:49</time>
      </trkpt>
      <trkpt lat="42.26622" lon="3.08728">
        <ele>-4.4</ele>
        <time>2022-05-21 09:23:50</time>
      </trkpt>
      <trkpt lat="42.26627" lon="3.08732">
        <ele>-4.4</ele>
        <time>2022-05-21 09:23:51</time>
      </trkpt>
      <trkpt lat="42.26634" lon="3.08736">
        <ele>-4.4</ele>
        <time>2022-05-21 09:23:52</time>
      </trkpt>
      <trkpt lat="42.26639" lon="3.08739">
        <ele>-4.2</ele>
        <time>2022-05-21 09:23:53</time>
      </trkpt>
      <trkpt lat="42.26646" lon="3.08743">
        <ele>-4.2</ele>
        <time>2022-05-21 09:23:54</time>
      </trkpt>
      <trkpt lat="42.26652" lon="3.08748">
        <ele>-4.2</ele>
        <time>2022-05-21 09:23:55</time>
      </trkpt>
      <trkpt lat="42.26658" lon="3.08751">
        <ele>-4.2</ele>
        <time>2022-05-21 09:23:56</time>
      </trkpt>
      <trkpt lat="42.26664" lon="3.08755">
        <ele>-4.4</ele>
        <time>2022-05-21 09:23:57</time>
      </trkpt>
      <trkpt lat="42.2667" lon="3.08759">
        <ele>-4.4</ele>
        <time>2022-05-21 09:23:58</time>
      </trkpt>
      <trkpt lat="42.26677" lon="3.08764">
        <ele>-4.4</ele>
        <time>2022-05-21 09:23:59</time>
      </trkpt>
      <trkpt lat="42.26683" lon="3.08768">
        <ele>-4.4</ele>
        <time>2022-05-21 09:24:00</time>
      </trkpt>
      <trkpt lat="42.26689" lon="3.08772">
        <ele>-4.4</ele>
        <time>2022-05-21 09:24:01</time>
      </trkpt>
      <trkpt lat="42.26695" lon="3.08776">
        <ele>-4.4</ele>
        <time>2022-05-21 09:24:02</time>
      </trkpt>
      <trkpt lat="42.26701" lon="3.0878">
        <ele>-4.4</ele>
        <time>2022-05-21 09:24:03</time>
      </trkpt>
      <trkpt lat="42.26708" lon="3.08784">
        <ele>-4.4</ele>
        <time>2022-05-21 09:24:04</time>
      </trkpt>
      <trkpt lat="42.26713" lon="3.08787">
        <ele>-4.4</ele>
        <time>2022-05-21 09:24:05</time>
      </trkpt>
      <trkpt lat="42.26721" lon="3.08791">
        <ele>-4.4</ele>
        <time>2022-05-21 09:24:06</time>
      </trkpt>
      <trkpt lat="42.26726" lon="3.08794">
        <ele>-4.4</ele>
        <time>2022-05-21 09:24:07</time>
      </trkpt>
      <trkpt lat="42.26733" lon="3.08798">
        <ele>-4.6</ele>
        <time>2022-05-21 09:24:08</time>
      </trkpt>
      <trkpt lat="42.2674" lon="3.08801">
        <ele>-4.6</ele>
        <time>2022-05-21 09:24:09</time>
      </trkpt>
      <trkpt lat="42.26747" lon="3.08804">
        <ele>-4.6</ele>
        <time>2022-05-21 09:24:10</time>
      </trkpt>
      <trkpt lat="42.26753" lon="3.08807">
        <ele>-4.6</ele>
        <time>2022-05-21 09:24:11</time>
      </trkpt>
      <trkpt lat="42.2676" lon="3.08809">
        <ele>-4.6</ele>
        <time>2022-05-21 09:24:12</time>
      </trkpt>
      <trkpt lat="42.26767" lon="3.08812">
        <ele>-4.6</ele>
        <time>2022-05-21 09:24:13</time>
      </trkpt>
      <trkpt lat="42.26773" lon="3.08815">
        <ele>-4.8</ele>
        <time>2022-05-21 09:24:14</time>
      </trkpt>
      <trkpt lat="42.2678" lon="3.08818">
        <ele>-4.8</ele>
        <time>2022-05-21 09:24:15</time>
      </trkpt>
      <trkpt lat="42.26787" lon="3.08821">
        <ele>-4.8</ele>
        <time>2022-05-21 09:24:16</time>
      </trkpt>
      <trkpt lat="42.26793" lon="3.08824">
        <ele>-4.8</ele>
        <time>2022-05-21 09:24:17</time>
      </trkpt>
      <trkpt lat="42.268" lon="3.08827">
        <ele>-5</ele>
        <time>2022-05-21 09:24:18</time>
      </trkpt>
      <trkpt lat="42.26807" lon="3.08829">
        <ele>-5</ele>
        <time>2022-05-21 09:24:19</time>
      </trkpt>
      <trkpt lat="42.26814" lon="3.08832">
        <ele>-5</ele>
        <time>2022-05-21 09:24:20</time>
      </trkpt>
      <trkpt lat="42.26821" lon="3.08835">
        <ele>-5</ele>
        <time>2022-05-21 09:24:21</time>
      </trkpt>
      <trkpt lat="42.26827" lon="3.08837">
        <ele>-5</ele>
        <time>2022-05-21 09:24:22</time>
      </trkpt>
      <trkpt lat="42.26835" lon="3.0884">
        <ele>-5.2</ele>
        <time>2022-05-21 09:24:23</time>
      </trkpt>
      <trkpt lat="42.26841" lon="3.08843">
        <ele>-5.2</ele>
        <time>2022-05-21 09:24:24</time>
      </trkpt>
      <trkpt lat="42.26847" lon="3.08846">
        <ele>-5.4</ele>
        <time>2022-05-21 09:24:25</time>
      </trkpt>
      <trkpt lat="42.26855" lon="3.0885">
        <ele>-5.4</ele>
        <time>2022-05-21 09:24:26</time>
      </trkpt>
      <trkpt lat="42.26862" lon="3.08852">
        <ele>-5.4</ele>
        <time>2022-05-21 09:24:27</time>
      </trkpt>
      <trkpt lat="42.26869" lon="3.08856">
        <ele>-5.4</ele>
        <time>2022-05-21 09:24:28</time>
      </trkpt>
      <trkpt lat="42.26876" lon="3.08858">
        <ele>-5.4</ele>
        <time>2022-05-21 09:24:29</time>
      </trkpt>
      <trkpt lat="42.26884" lon="3.08862">
        <ele>-5.4</ele>
        <time>2022-05-21 09:24:30</time>
      </trkpt>
      <trkpt lat="42.26891" lon="3.08865">
        <ele>-5.4</ele>
        <time>2022-05-21 09:24:31</time>
      </trkpt>
      <trkpt lat="42.26897" lon="3.08869">
        <ele>-5.4</ele>
        <time>2022-05-21 09:24:32</time>
      </trkpt>
      <trkpt lat="42.26903" lon="3.08872">
        <ele>-5.4</ele>
        <time>2022-05-21 09:24:33</time>
      </trkpt>
      <trkpt lat="42.2691" lon="3.08878">
        <ele>-5.4</ele>
        <time>2022-05-21 09:24:34</time>
      </trkpt>
      <trkpt lat="42.26916" lon="3.08883">
        <ele>-5.4</ele>
        <time>2022-05-21 09:24:35</time>
      </trkpt>
      <trkpt lat="42.26922" lon="3.08888">
        <ele>-5.4</ele>
        <time>2022-05-21 09:24:36</time>
      </trkpt>
      <trkpt lat="42.26927" lon="3.08893">
        <ele>-5.4</ele>
        <time>2022-05-21 09:24:37</time>
      </trkpt>
      <trkpt lat="42.26934" lon="3.08899">
        <ele>-5.4</ele>
        <time>2022-05-21 09:24:38</time>
      </trkpt>
      <trkpt lat="42.26939" lon="3.08904">
        <ele>-5.6</ele>
        <time>2022-05-21 09:24:39</time>
      </trkpt>
      <trkpt lat="42.26945" lon="3.0891">
        <ele>-5.6</ele>
        <time>2022-05-21 09:24:40</time>
      </trkpt>
      <trkpt lat="42.26951" lon="3.08916">
        <ele>-5.6</ele>
        <time>2022-05-21 09:24:41</time>
      </trkpt>
      <trkpt lat="42.26957" lon="3.08922">
        <ele>-5.6</ele>
        <time>2022-05-21 09:24:42</time>
      </trkpt>
      <trkpt lat="42.26963" lon="3.08927">
        <ele>-5.6</ele>
        <time>2022-05-21 09:24:43</time>
      </trkpt>
      <trkpt lat="42.2697" lon="3.08933">
        <ele>-5.6</ele>
        <time>2022-05-21 09:24:44</time>
      </trkpt>
      <trkpt lat="42.26976" lon="3.08939">
        <ele>-5.8</ele>
        <time>2022-05-21 09:24:45</time>
      </trkpt>
      <trkpt lat="42.26982" lon="3.08944">
        <ele>-5.8</ele>
        <time>2022-05-21 09:24:46</time>
      </trkpt>
      <trkpt lat="42.26988" lon="3.08949">
        <ele>-5.8</ele>
        <time>2022-05-21 09:24:47</time>
      </trkpt>
      <trkpt lat="42.26994" lon="3.08955">
        <ele>-5.8</ele>
        <time>2022-05-21 09:24:48</time>
      </trkpt>
      <trkpt lat="42.27" lon="3.0896">
        <ele>-6</ele>
        <time>2022-05-21 09:24:49</time>
      </trkpt>
      <trkpt lat="42.27007" lon="3.08965">
        <ele>-6</ele>
        <time>2022-05-21 09:24:50</time>
      </trkpt>
      <trkpt lat="42.27012" lon="3.08969">
        <ele>-6</ele>
        <time>2022-05-21 09:24:51</time>
      </trkpt>
      <trkpt lat="42.2702" lon="3.08973">
        <ele>-6</ele>
        <time>2022-05-21 09:24:52</time>
      </trkpt>
      <trkpt lat="42.27026" lon="3.08977">
        <ele>-6</ele>
        <time>2022-05-21 09:24:53</time>
      </trkpt>
      <trkpt lat="42.27033" lon="3.08979">
        <ele>-6</ele>
        <time>2022-05-21 09:24:54</time>
      </trkpt>
      <trkpt lat="42.2704" lon="3.0898">
        <ele>-6</ele>
        <time>2022-05-21 09:24:55</time>
      </trkpt>
      <trkpt lat="42.27047" lon="3.0898">
        <ele>-6</ele>
        <time>2022-05-21 09:24:56</time>
      </trkpt>
      <trkpt lat="42.27054" lon="3.08978">
        <ele>-6</ele>
        <time>2022-05-21 09:24:57</time>
      </trkpt>
      <trkpt lat="42.2706" lon="3.08976">
        <ele>-5.8</ele>
        <time>2022-05-21 09:24:58</time>
      </trkpt>
      <trkpt lat="42.27067" lon="3.08973">
        <ele>-5.8</ele>
        <time>2022-05-21 09:24:59</time>
      </trkpt>
      <trkpt lat="42.27073" lon="3.08971">
        <ele>-5.8</ele>
        <time>2022-05-21 09:25:00</time>
      </trkpt>
      <trkpt lat="42.27079" lon="3.08967">
        <ele>-5.8</ele>
        <time>2022-05-21 09:25:01</time>
      </trkpt>
      <trkpt lat="42.27086" lon="3.08964">
        <ele>-5.8</ele>
        <time>2022-05-21 09:25:02</time>
      </trkpt>
      <trkpt lat="42.27092" lon="3.08961">
        <ele>-5.8</ele>
        <time>2022-05-21 09:25:03</time>
      </trkpt>
      <trkpt lat="42.27098" lon="3.08958">
        <ele>-5.8</ele>
        <time>2022-05-21 09:25:04</time>
      </trkpt>
      <trkpt lat="42.27104" lon="3.08955">
        <ele>-5.8</ele>
        <time>2022-05-21 09:25:05</time>
      </trkpt>
      <trkpt lat="42.2711" lon="3.08952">
        <ele>-5.8</ele>
        <time>2022-05-21 09:25:06</time>
      </trkpt>
      <trkpt lat="42.27116" lon="3.08949">
        <ele>-5.8</ele>
        <time>2022-05-21 09:25:07</time>
      </trkpt>
      <trkpt lat="42.27122" lon="3.08946">
        <ele>-5.6</ele>
        <time>2022-05-21 09:25:08</time>
      </trkpt>
      <trkpt lat="42.27128" lon="3.08943">
        <ele>-5.6</ele>
        <time>2022-05-21 09:25:09</time>
      </trkpt>
      <trkpt lat="42.27134" lon="3.0894">
        <ele>-5.6</ele>
        <time>2022-05-21 09:25:10</time>
      </trkpt>
      <trkpt lat="42.27139" lon="3.08937">
        <ele>-5.6</ele>
        <time>2022-05-21 09:25:11</time>
      </trkpt>
      <trkpt lat="42.27146" lon="3.08935">
        <ele>-5.6</ele>
        <time>2022-05-21 09:25:12</time>
      </trkpt>
      <trkpt lat="42.27152" lon="3.08933">
        <ele>-5.6</ele>
        <time>2022-05-21 09:25:13</time>
      </trkpt>
      <trkpt lat="42.27159" lon="3.08931">
        <ele>-5.6</ele>
        <time>2022-05-21 09:25:14</time>
      </trkpt>
      <trkpt lat="42.27164" lon="3.08931">
        <ele>-5.6</ele>
        <time>2022-05-21 09:25:15</time>
      </trkpt>
      <trkpt lat="42.27172" lon="3.08931">
        <ele>-5.6</ele>
        <time>2022-05-21 09:25:16</time>
      </trkpt>
      <trkpt lat="42.27179" lon="3.08933">
        <ele>-5.6</ele>
        <time>2022-05-21 09:25:17</time>
      </trkpt>
      <trkpt lat="42.27185" lon="3.08936">
        <ele>-5.6</ele>
        <time>2022-05-21 09:25:18</time>
      </trkpt>
      <trkpt lat="42.2719" lon="3.08941">
        <ele>-5.6</ele>
        <time>2022-05-21 09:25:19</time>
      </trkpt>
      <trkpt lat="42.27195" lon="3.08947">
        <ele>-5.6</ele>
        <time>2022-05-21 09:25:20</time>
      </trkpt>
      <trkpt lat="42.27199" lon="3.08954">
        <ele>-5.6</ele>
        <time>2022-05-21 09:25:21</time>
      </trkpt>
      <trkpt lat="42.27202" lon="3.08963">
        <ele>-5.6</ele>
        <time>2022-05-21 09:25:22</time>
      </trkpt>
      <trkpt lat="42.27206" lon="3.0897">
        <ele>-5.8</ele>
        <time>2022-05-21 09:25:23</time>
      </trkpt>
      <trkpt lat="42.27209" lon="3.08979">
        <ele>-5.8</ele>
        <time>2022-05-21 09:25:24</time>
      </trkpt>
      <trkpt lat="42.27212" lon="3.08986">
        <ele>-5.8</ele>
        <time>2022-05-21 09:25:25</time>
      </trkpt>
      <trkpt lat="42.27217" lon="3.08995">
        <ele>-5.8</ele>
        <time>2022-05-21 09:25:26</time>
      </trkpt>
      <trkpt lat="42.2722" lon="3.09002">
        <ele>-6</ele>
        <time>2022-05-21 09:25:27</time>
      </trkpt>
      <trkpt lat="42.27224" lon="3.09011">
        <ele>-6</ele>
        <time>2022-05-21 09:25:28</time>
      </trkpt>
      <trkpt lat="42.27227" lon="3.09018">
        <ele>-6</ele>
        <time>2022-05-21 09:25:29</time>
      </trkpt>
      <trkpt lat="42.27231" lon="3.09028">
        <ele>-6</ele>
        <time>2022-05-21 09:25:30</time>
      </trkpt>
      <trkpt lat="42.27234" lon="3.09035">
        <ele>-6</ele>
        <time>2022-05-21 09:25:31</time>
      </trkpt>
      <trkpt lat="42.27238" lon="3.09045">
        <ele>-6</ele>
        <time>2022-05-21 09:25:32</time>
      </trkpt>
      <trkpt lat="42.27241" lon="3.09052">
        <ele>-6.2</ele>
        <time>2022-05-21 09:25:33</time>
      </trkpt>
      <trkpt lat="42.27245" lon="3.09061">
        <ele>-6.2</ele>
        <time>2022-05-21 09:25:34</time>
      </trkpt>
      <trkpt lat="42.27248" lon="3.09069">
        <ele>-6.2</ele>
        <time>2022-05-21 09:25:35</time>
      </trkpt>
      <trkpt lat="42.27252" lon="3.09078">
        <ele>-6.2</ele>
        <time>2022-05-21 09:25:36</time>
      </trkpt>
      <trkpt lat="42.27255" lon="3.09085">
        <ele>-6.2</ele>
        <time>2022-05-21 09:25:37</time>
      </trkpt>
      <trkpt lat="42.27259" lon="3.09094">
        <ele>-6.2</ele>
        <time>2022-05-21 09:25:38</time>
      </trkpt>
      <trkpt lat="42.27262" lon="3.09101">
        <ele>-6.2</ele>
        <time>2022-05-21 09:25:39</time>
      </trkpt>
      <trkpt lat="42.27266" lon="3.0911">
        <ele>-6.2</ele>
        <time>2022-05-21 09:25:40</time>
      </trkpt>
      <trkpt lat="42.27269" lon="3.09118">
        <ele>-6.2</ele>
        <time>2022-05-21 09:25:41</time>
      </trkpt>
      <trkpt lat="42.27273" lon="3.09127">
        <ele>-6.4</ele>
        <time>2022-05-21 09:25:42</time>
      </trkpt>
      <trkpt lat="42.27276" lon="3.09135">
        <ele>-6.4</ele>
        <time>2022-05-21 09:25:43</time>
      </trkpt>
      <trkpt lat="42.2728" lon="3.09144">
        <ele>-6.4</ele>
        <time>2022-05-21 09:25:44</time>
      </trkpt>
      <trkpt lat="42.27283" lon="3.09151">
        <ele>-6.4</ele>
        <time>2022-05-21 09:25:45</time>
      </trkpt>
      <trkpt lat="42.27287" lon="3.09161">
        <ele>-6.6</ele>
        <time>2022-05-21 09:25:46</time>
      </trkpt>
      <trkpt lat="42.2729" lon="3.09169">
        <ele>-6.6</ele>
        <time>2022-05-21 09:25:47</time>
      </trkpt>
      <trkpt lat="42.27294" lon="3.09178">
        <ele>-6.6</ele>
        <time>2022-05-21 09:25:48</time>
      </trkpt>
      <trkpt lat="42.27298" lon="3.09186">
        <ele>-6.6</ele>
        <time>2022-05-21 09:25:49</time>
      </trkpt>
      <trkpt lat="42.27302" lon="3.09194">
        <ele>-6.6</ele>
        <time>2022-05-21 09:25:50</time>
      </trkpt>
      <trkpt lat="42.27305" lon="3.09201">
        <ele>-6.4</ele>
        <time>2022-05-21 09:25:51</time>
      </trkpt>
      <trkpt lat="42.27309" lon="3.0921">
        <ele>-6.4</ele>
        <time>2022-05-21 09:25:52</time>
      </trkpt>
      <trkpt lat="42.27312" lon="3.09217">
        <ele>-6.4</ele>
        <time>2022-05-21 09:25:53</time>
      </trkpt>
      <trkpt lat="42.27315" lon="3.09226">
        <ele>-6.4</ele>
        <time>2022-05-21 09:25:54</time>
      </trkpt>
      <trkpt lat="42.27319" lon="3.09233">
        <ele>-6.4</ele>
        <time>2022-05-21 09:25:55</time>
      </trkpt>
      <trkpt lat="42.27323" lon="3.09242">
        <ele>-6.4</ele>
        <time>2022-05-21 09:25:56</time>
      </trkpt>
      <trkpt lat="42.27326" lon="3.09249">
        <ele>-6.4</ele>
        <time>2022-05-21 09:25:57</time>
      </trkpt>
      <trkpt lat="42.2733" lon="3.09258">
        <ele>-6.4</ele>
        <time>2022-05-21 09:25:58</time>
      </trkpt>
      <trkpt lat="42.27333" lon="3.09266">
        <ele>-6.4</ele>
        <time>2022-05-21 09:25:59</time>
      </trkpt>
      <trkpt lat="42.27337" lon="3.09275">
        <ele>-6.4</ele>
        <time>2022-05-21 09:26:00</time>
      </trkpt>
      <trkpt lat="42.2734" lon="3.09282">
        <ele>-6.4</ele>
        <time>2022-05-21 09:26:01</time>
      </trkpt>
      <trkpt lat="42.27344" lon="3.09292">
        <ele>-6.4</ele>
        <time>2022-05-21 09:26:02</time>
      </trkpt>
      <trkpt lat="42.27347" lon="3.09299">
        <ele>-6.6</ele>
        <time>2022-05-21 09:26:03</time>
      </trkpt>
      <trkpt lat="42.27351" lon="3.09308">
        <ele>-6.6</ele>
        <time>2022-05-21 09:26:04</time>
      </trkpt>
      <trkpt lat="42.27354" lon="3.09315">
        <ele>-6.6</ele>
        <time>2022-05-21 09:26:05</time>
      </trkpt>
      <trkpt lat="42.27358" lon="3.09324">
        <ele>-6.6</ele>
        <time>2022-05-21 09:26:06</time>
      </trkpt>
      <trkpt lat="42.27361" lon="3.09332">
        <ele>-6.6</ele>
        <time>2022-05-21 09:26:07</time>
      </trkpt>
      <trkpt lat="42.27365" lon="3.0934">
        <ele>-6.6</ele>
        <time>2022-05-21 09:26:08</time>
      </trkpt>
      <trkpt lat="42.27368" lon="3.09348">
        <ele>-6.6</ele>
        <time>2022-05-21 09:26:09</time>
      </trkpt>
      <trkpt lat="42.27371" lon="3.09356">
        <ele>-6.6</ele>
        <time>2022-05-21 09:26:10</time>
      </trkpt>
      <trkpt lat="42.27375" lon="3.09364">
        <ele>-6.6</ele>
        <time>2022-05-21 09:26:11</time>
      </trkpt>
      <trkpt lat="42.27379" lon="3.09373">
        <ele>-6.8</ele>
        <time>2022-05-21 09:26:12</time>
      </trkpt>
      <trkpt lat="42.27382" lon="3.0938">
        <ele>-6.8</ele>
        <time>2022-05-21 09:26:13</time>
      </trkpt>
      <trkpt lat="42.27387" lon="3.09389">
        <ele>-6.8</ele>
        <time>2022-05-21 09:26:14</time>
      </trkpt>
      <trkpt lat="42.2739" lon="3.09395">
        <ele>-6.8</ele>
        <time>2022-05-21 09:26:15</time>
      </trkpt>
      <trkpt lat="42.27395" lon="3.09404">
        <ele>-7</ele>
        <time>2022-05-21 09:26:16</time>
      </trkpt>
      <trkpt lat="42.27398" lon="3.09411">
        <ele>-7</ele>
        <time>2022-05-21 09:26:17</time>
      </trkpt>
      <trkpt lat="42.27402" lon="3.0942">
        <ele>-7</ele>
        <time>2022-05-21 09:26:18</time>
      </trkpt>
      <trkpt lat="42.27406" lon="3.09427">
        <ele>-7.2</ele>
        <time>2022-05-21 09:26:19</time>
      </trkpt>
      <trkpt lat="42.2741" lon="3.09436">
        <ele>-7.2</ele>
        <time>2022-05-21 09:26:20</time>
      </trkpt>
      <trkpt lat="42.27414" lon="3.09442">
        <ele>-7.2</ele>
        <time>2022-05-21 09:26:21</time>
      </trkpt>
      <trkpt lat="42.27418" lon="3.09451">
        <ele>-7.2</ele>
        <time>2022-05-21 09:26:22</time>
      </trkpt>
      <trkpt lat="42.27422" lon="3.09458">
        <ele>-7.2</ele>
        <time>2022-05-21 09:26:23</time>
      </trkpt>
      <trkpt lat="42.27426" lon="3.09466">
        <ele>-7.2</ele>
        <time>2022-05-21 09:26:24</time>
      </trkpt>
      <trkpt lat="42.2743" lon="3.09473">
        <ele>-7.2</ele>
        <time>2022-05-21 09:26:25</time>
      </trkpt>
      <trkpt lat="42.27433" lon="3.09481">
        <ele>-7</ele>
        <time>2022-05-21 09:26:26</time>
      </trkpt>
      <trkpt lat="42.27437" lon="3.09489">
        <ele>-7</ele>
        <time>2022-05-21 09:26:27</time>
      </trkpt>
      <trkpt lat="42.2744" lon="3.09496">
        <ele>-7</ele>
        <time>2022-05-21 09:26:28</time>
      </trkpt>
      <trkpt lat="42.27444" lon="3.09504">
        <ele>-7</ele>
        <time>2022-05-21 09:26:29</time>
      </trkpt>
      <trkpt lat="42.27448" lon="3.09512">
        <ele>-7</ele>
        <time>2022-05-21 09:26:30</time>
      </trkpt>
      <trkpt lat="42.27451" lon="3.09518">
        <ele>-7</ele>
        <time>2022-05-21 09:26:31</time>
      </trkpt>
      <trkpt lat="42.27455" lon="3.09526">
        <ele>-6.8</ele>
        <time>2022-05-21 09:26:32</time>
      </trkpt>
      <trkpt lat="42.27458" lon="3.09533">
        <ele>-6.8</ele>
        <time>2022-05-21 09:26:33</time>
      </trkpt>
      <trkpt lat="42.27463" lon="3.09541">
        <ele>-6.8</ele>
        <time>2022-05-21 09:26:34</time>
      </trkpt>
      <trkpt lat="42.27466" lon="3.09548">
        <ele>-7</ele>
        <time>2022-05-21 09:26:35</time>
      </trkpt>
      <trkpt lat="42.2747" lon="3.09556">
        <ele>-7</ele>
        <time>2022-05-21 09:26:36</time>
      </trkpt>
      <trkpt lat="42.27473" lon="3.09562">
        <ele>-7</ele>
        <time>2022-05-21 09:26:37</time>
      </trkpt>
      <trkpt lat="42.27477" lon="3.09571">
        <ele>-7</ele>
        <time>2022-05-21 09:26:38</time>
      </trkpt>
      <trkpt lat="42.2748" lon="3.09577">
        <ele>-7</ele>
        <time>2022-05-21 09:26:39</time>
      </trkpt>
      <trkpt lat="42.27484" lon="3.09586">
        <ele>-7</ele>
        <time>2022-05-21 09:26:40</time>
      </trkpt>
      <trkpt lat="42.27488" lon="3.09593">
        <ele>-7</ele>
        <time>2022-05-21 09:26:41</time>
      </trkpt>
      <trkpt lat="42.27491" lon="3.09601">
        <ele>-7</ele>
        <time>2022-05-21 09:26:42</time>
      </trkpt>
      <trkpt lat="42.27495" lon="3.09607">
        <ele>-7</ele>
        <time>2022-05-21 09:26:43</time>
      </trkpt>
      <trkpt lat="42.27498" lon="3.09616">
        <ele>-7</ele>
        <time>2022-05-21 09:26:44</time>
      </trkpt>
      <trkpt lat="42.27501" lon="3.09622">
        <ele>-7</ele>
        <time>2022-05-21 09:26:45</time>
      </trkpt>
      <trkpt lat="42.27506" lon="3.0963">
        <ele>-7</ele>
        <time>2022-05-21 09:26:46</time>
      </trkpt>
      <trkpt lat="42.27509" lon="3.09637">
        <ele>-7</ele>
        <time>2022-05-21 09:26:47</time>
      </trkpt>
      <trkpt lat="42.27513" lon="3.09645">
        <ele>-7</ele>
        <time>2022-05-21 09:26:48</time>
      </trkpt>
      <trkpt lat="42.27516" lon="3.09651">
        <ele>-7.2</ele>
        <time>2022-05-21 09:26:49</time>
      </trkpt>
      <trkpt lat="42.2752" lon="3.0966">
        <ele>-7.2</ele>
        <time>2022-05-21 09:26:50</time>
      </trkpt>
      <trkpt lat="42.27524" lon="3.09667">
        <ele>-7.2</ele>
        <time>2022-05-21 09:26:51</time>
      </trkpt>
      <trkpt lat="42.27527" lon="3.09675">
        <ele>-7.2</ele>
        <time>2022-05-21 09:26:52</time>
      </trkpt>
      <trkpt lat="42.2753" lon="3.09681">
        <ele>-7</ele>
        <time>2022-05-21 09:26:53</time>
      </trkpt>
      <trkpt lat="42.27535" lon="3.09689">
        <ele>-7</ele>
        <time>2022-05-21 09:26:54</time>
      </trkpt>
      <trkpt lat="42.27538" lon="3.09695">
        <ele>-7</ele>
        <time>2022-05-21 09:26:55</time>
      </trkpt>
      <trkpt lat="42.27542" lon="3.09704">
        <ele>-7</ele>
        <time>2022-05-21 09:26:56</time>
      </trkpt>
      <trkpt lat="42.27546" lon="3.09711">
        <ele>-7</ele>
        <time>2022-05-21 09:26:57</time>
      </trkpt>
      <trkpt lat="42.2755" lon="3.09719">
        <ele>-7</ele>
        <time>2022-05-21 09:26:58</time>
      </trkpt>
      <trkpt lat="42.27553" lon="3.09725">
        <ele>-7.2</ele>
        <time>2022-05-21 09:26:59</time>
      </trkpt>
      <trkpt lat="42.27557" lon="3.09733">
        <ele>-7.2</ele>
        <time>2022-05-21 09:27:00</time>
      </trkpt>
      <trkpt lat="42.2756" lon="3.0974">
        <ele>-7.2</ele>
        <time>2022-05-21 09:27:01</time>
      </trkpt>
      <trkpt lat="42.27564" lon="3.09748">
        <ele>-7.2</ele>
        <time>2022-05-21 09:27:02</time>
      </trkpt>
      <trkpt lat="42.27567" lon="3.09755">
        <ele>-7.2</ele>
        <time>2022-05-21 09:27:03</time>
      </trkpt>
      <trkpt lat="42.27571" lon="3.09763">
        <ele>-7.2</ele>
        <time>2022-05-21 09:27:04</time>
      </trkpt>
      <trkpt lat="42.27575" lon="3.0977">
        <ele>-7.2</ele>
        <time>2022-05-21 09:27:05</time>
      </trkpt>
      <trkpt lat="42.27579" lon="3.09777">
        <ele>-7.2</ele>
        <time>2022-05-21 09:27:06</time>
      </trkpt>
      <trkpt lat="42.27582" lon="3.09783">
        <ele>-7.2</ele>
        <time>2022-05-21 09:27:07</time>
      </trkpt>
      <trkpt lat="42.27586" lon="3.09791">
        <ele>-7.2</ele>
        <time>2022-05-21 09:27:08</time>
      </trkpt>
      <trkpt lat="42.27589" lon="3.09797">
        <ele>-7.4</ele>
        <time>2022-05-21 09:27:09</time>
      </trkpt>
      <trkpt lat="42.27593" lon="3.09806">
        <ele>-7.4</ele>
        <time>2022-05-21 09:27:10</time>
      </trkpt>
      <trkpt lat="42.27596" lon="3.09812">
        <ele>-7.4</ele>
        <time>2022-05-21 09:27:11</time>
      </trkpt>
      <trkpt lat="42.276" lon="3.0982">
        <ele>-7.4</ele>
        <time>2022-05-21 09:27:12</time>
      </trkpt>
      <trkpt lat="42.27603" lon="3.09826">
        <ele>-7.4</ele>
        <time>2022-05-21 09:27:13</time>
      </trkpt>
      <trkpt lat="42.27607" lon="3.09834">
        <ele>-7.4</ele>
        <time>2022-05-21 09:27:14</time>
      </trkpt>
      <trkpt lat="42.2761" lon="3.09839">
        <ele>-7.4</ele>
        <time>2022-05-21 09:27:15</time>
      </trkpt>
      <trkpt lat="42.27614" lon="3.09848">
        <ele>-7.4</ele>
        <time>2022-05-21 09:27:16</time>
      </trkpt>
      <trkpt lat="42.27617" lon="3.09854">
        <ele>-7.4</ele>
        <time>2022-05-21 09:27:17</time>
      </trkpt>
      <trkpt lat="42.27621" lon="3.09863">
        <ele>-7.4</ele>
        <time>2022-05-21 09:27:18</time>
      </trkpt>
      <trkpt lat="42.27623" lon="3.09869">
        <ele>-7.4</ele>
        <time>2022-05-21 09:27:19</time>
      </trkpt>
      <trkpt lat="42.27627" lon="3.09878">
        <ele>-7.6</ele>
        <time>2022-05-21 09:27:20</time>
      </trkpt>
      <trkpt lat="42.27631" lon="3.09885">
        <ele>-7.6</ele>
        <time>2022-05-21 09:27:21</time>
      </trkpt>
      <trkpt lat="42.27635" lon="3.09893">
        <ele>-7.6</ele>
        <time>2022-05-21 09:27:22</time>
      </trkpt>
      <trkpt lat="42.27638" lon="3.099">
        <ele>-7.6</ele>
        <time>2022-05-21 09:27:23</time>
      </trkpt>
      <trkpt lat="42.27641" lon="3.09909">
        <ele>-7.8</ele>
        <time>2022-05-21 09:27:24</time>
      </trkpt>
      <trkpt lat="42.27644" lon="3.09915">
        <ele>-7.8</ele>
        <time>2022-05-21 09:27:25</time>
      </trkpt>
      <trkpt lat="42.27649" lon="3.09924">
        <ele>-7.8</ele>
        <time>2022-05-21 09:27:26</time>
      </trkpt>
      <trkpt lat="42.27651" lon="3.09929">
        <ele>-7.8</ele>
        <time>2022-05-21 09:27:27</time>
      </trkpt>
      <trkpt lat="42.27656" lon="3.09939">
        <ele>-7.8</ele>
        <time>2022-05-21 09:27:28</time>
      </trkpt>
      <trkpt lat="42.27659" lon="3.09946">
        <ele>-7.8</ele>
        <time>2022-05-21 09:27:29</time>
      </trkpt>
      <trkpt lat="42.27663" lon="3.09954">
        <ele>-7.8</ele>
        <time>2022-05-21 09:27:30</time>
      </trkpt>
      <trkpt lat="42.27666" lon="3.0996">
        <ele>-7.8</ele>
        <time>2022-05-21 09:27:31</time>
      </trkpt>
      <trkpt lat="42.2767" lon="3.09969">
        <ele>-7.8</ele>
        <time>2022-05-21 09:27:32</time>
      </trkpt>
      <trkpt lat="42.27673" lon="3.09976">
        <ele>-7.8</ele>
        <time>2022-05-21 09:27:33</time>
      </trkpt>
      <trkpt lat="42.27676" lon="3.09984">
        <ele>-7.8</ele>
        <time>2022-05-21 09:27:34</time>
      </trkpt>
      <trkpt lat="42.27679" lon="3.0999">
        <ele>-7.8</ele>
        <time>2022-05-21 09:27:35</time>
      </trkpt>
      <trkpt lat="42.27683" lon="3.09999">
        <ele>-7.8</ele>
        <time>2022-05-21 09:27:36</time>
      </trkpt>
      <trkpt lat="42.27686" lon="3.10006">
        <ele>-7.8</ele>
        <time>2022-05-21 09:27:37</time>
      </trkpt>
      <trkpt lat="42.2769" lon="3.10013">
        <ele>-7.6</ele>
        <time>2022-05-21 09:27:38</time>
      </trkpt>
      <trkpt lat="42.27693" lon="3.10019">
        <ele>-7.6</ele>
        <time>2022-05-21 09:27:39</time>
      </trkpt>
      <trkpt lat="42.27696" lon="3.10027">
        <ele>-7.6</ele>
        <time>2022-05-21 09:27:40</time>
      </trkpt>
      <trkpt lat="42.27699" lon="3.10034">
        <ele>-7.8</ele>
        <time>2022-05-21 09:27:41</time>
      </trkpt>
      <trkpt lat="42.27703" lon="3.10042">
        <ele>-7.8</ele>
        <time>2022-05-21 09:27:42</time>
      </trkpt>
      <trkpt lat="42.27706" lon="3.1005">
        <ele>-7.8</ele>
        <time>2022-05-21 09:27:43</time>
      </trkpt>
      <trkpt lat="42.27711" lon="3.10058">
        <ele>-7.8</ele>
        <time>2022-05-21 09:27:44</time>
      </trkpt>
      <trkpt lat="42.27713" lon="3.10064">
        <ele>-7.8</ele>
        <time>2022-05-21 09:27:45</time>
      </trkpt>
      <trkpt lat="42.27718" lon="3.10074">
        <ele>-7.8</ele>
        <time>2022-05-21 09:27:46</time>
      </trkpt>
      <trkpt lat="42.27721" lon="3.10081">
        <ele>-7.8</ele>
        <time>2022-05-21 09:27:47</time>
      </trkpt>
      <trkpt lat="42.27725" lon="3.10089">
        <ele>-7.8</ele>
        <time>2022-05-21 09:27:48</time>
      </trkpt>
      <trkpt lat="42.27728" lon="3.10096">
        <ele>-7.8</ele>
        <time>2022-05-21 09:27:49</time>
      </trkpt>
      <trkpt lat="42.27733" lon="3.10104">
        <ele>-7.8</ele>
        <time>2022-05-21 09:27:50</time>
      </trkpt>
      <trkpt lat="42.27736" lon="3.10111">
        <ele>-8</ele>
        <time>2022-05-21 09:27:51</time>
      </trkpt>
      <trkpt lat="42.2774" lon="3.1012">
        <ele>-8</ele>
        <time>2022-05-21 09:27:52</time>
      </trkpt>
      <trkpt lat="42.27743" lon="3.10127">
        <ele>-8</ele>
        <time>2022-05-21 09:27:53</time>
      </trkpt>
      <trkpt lat="42.27747" lon="3.10136">
        <ele>-8</ele>
        <time>2022-05-21 09:27:54</time>
      </trkpt>
      <trkpt lat="42.2775" lon="3.10142">
        <ele>-8.2</ele>
        <time>2022-05-21 09:27:55</time>
      </trkpt>
      <trkpt lat="42.27754" lon="3.10151">
        <ele>-8.2</ele>
        <time>2022-05-21 09:27:56</time>
      </trkpt>
      <trkpt lat="42.27758" lon="3.1016">
        <ele>-8.2</ele>
        <time>2022-05-21 09:27:57</time>
      </trkpt>
      <trkpt lat="42.2776" lon="3.10168">
        <ele>-8.2</ele>
        <time>2022-05-21 09:27:58</time>
      </trkpt>
      <trkpt lat="42.27762" lon="3.10176">
        <ele>-8.4</ele>
        <time>2022-05-21 09:27:59</time>
      </trkpt>
      <trkpt lat="42.27763" lon="3.10186">
        <ele>-8.4</ele>
        <time>2022-05-21 09:28:00</time>
      </trkpt>
      <trkpt lat="42.27763" lon="3.10194">
        <ele>-8.4</ele>
        <time>2022-05-21 09:28:01</time>
      </trkpt>
      <trkpt lat="42.27763" lon="3.10204">
        <ele>-8.6</ele>
        <time>2022-05-21 09:28:02</time>
      </trkpt>
      <trkpt lat="42.27762" lon="3.10212">
        <ele>-8.6</ele>
        <time>2022-05-21 09:28:03</time>
      </trkpt>
      <trkpt lat="42.2776" lon="3.10222">
        <ele>-8.6</ele>
        <time>2022-05-21 09:28:04</time>
      </trkpt>
      <trkpt lat="42.27759" lon="3.1023">
        <ele>-8.6</ele>
        <time>2022-05-21 09:28:05</time>
      </trkpt>
      <trkpt lat="42.27758" lon="3.1024">
        <ele>-8.6</ele>
        <time>2022-05-21 09:28:06</time>
      </trkpt>
      <trkpt lat="42.27757" lon="3.10246">
        <ele>-8.6</ele>
        <time>2022-05-21 09:28:07</time>
      </trkpt>
      <trkpt lat="42.27756" lon="3.10257">
        <ele>-8.6</ele>
        <time>2022-05-21 09:28:08</time>
      </trkpt>
      <trkpt lat="42.27756" lon="3.10265">
        <ele>-8.6</ele>
        <time>2022-05-21 09:28:09</time>
      </trkpt>
      <trkpt lat="42.27755" lon="3.10275">
        <ele>-8.6</ele>
        <time>2022-05-21 09:28:10</time>
      </trkpt>
      <trkpt lat="42.27754" lon="3.10282">
        <ele>-8.6</ele>
        <time>2022-05-21 09:28:11</time>
      </trkpt>
      <trkpt lat="42.27753" lon="3.10292">
        <ele>-8.6</ele>
        <time>2022-05-21 09:28:12</time>
      </trkpt>
      <trkpt lat="42.27753" lon="3.10299">
        <ele>-8.6</ele>
        <time>2022-05-21 09:28:13</time>
      </trkpt>
      <trkpt lat="42.27752" lon="3.10309">
        <ele>-8.6</ele>
        <time>2022-05-21 09:28:14</time>
      </trkpt>
      <trkpt lat="42.27751" lon="3.10315">
        <ele>-8.6</ele>
        <time>2022-05-21 09:28:15</time>
      </trkpt>
      <trkpt lat="42.27751" lon="3.10325">
        <ele>-8.6</ele>
        <time>2022-05-21 09:28:16</time>
      </trkpt>
      <trkpt lat="42.2775" lon="3.10332">
        <ele>-8.6</ele>
        <time>2022-05-21 09:28:17</time>
      </trkpt>
      <trkpt lat="42.27749" lon="3.10341">
        <ele>-8.6</ele>
        <time>2022-05-21 09:28:18</time>
      </trkpt>
      <trkpt lat="42.27748" lon="3.10348">
        <ele>-8.6</ele>
        <time>2022-05-21 09:28:19</time>
      </trkpt>
      <trkpt lat="42.27747" lon="3.10357">
        <ele>-8.6</ele>
        <time>2022-05-21 09:28:20</time>
      </trkpt>
      <trkpt lat="42.27747" lon="3.10364">
        <ele>-8.6</ele>
        <time>2022-05-21 09:28:21</time>
      </trkpt>
      <trkpt lat="42.27746" lon="3.10373">
        <ele>-8.6</ele>
        <time>2022-05-21 09:28:22</time>
      </trkpt>
      <trkpt lat="42.27746" lon="3.10379">
        <ele>-8.6</ele>
        <time>2022-05-21 09:28:23</time>
      </trkpt>
      <trkpt lat="42.27745" lon="3.10387">
        <ele>-8.4</ele>
        <time>2022-05-21 09:28:24</time>
      </trkpt>
      <trkpt lat="42.27745" lon="3.10394">
        <ele>-8.4</ele>
        <time>2022-05-21 09:28:25</time>
      </trkpt>
      <trkpt lat="42.27744" lon="3.10402">
        <ele>-8.4</ele>
        <time>2022-05-21 09:28:26</time>
      </trkpt>
      <trkpt lat="42.27743" lon="3.10408">
        <ele>-8.4</ele>
        <time>2022-05-21 09:28:27</time>
      </trkpt>
      <trkpt lat="42.27742" lon="3.10416">
        <ele>-8.2</ele>
        <time>2022-05-21 09:28:28</time>
      </trkpt>
      <trkpt lat="42.27741" lon="3.10422">
        <ele>-8.2</ele>
        <time>2022-05-21 09:28:29</time>
      </trkpt>
      <trkpt lat="42.2774" lon="3.10428">
        <ele>-8.2</ele>
        <time>2022-05-21 09:28:30</time>
      </trkpt>
      <trkpt lat="42.2774" lon="3.10435">
        <ele>-8.2</ele>
        <time>2022-05-21 09:28:31</time>
      </trkpt>
      <trkpt lat="42.27739" lon="3.10441">
        <ele>-8.4</ele>
        <time>2022-05-21 09:28:32</time>
      </trkpt>
      <trkpt lat="42.27739" lon="3.10446">
        <ele>-8.4</ele>
        <time>2022-05-21 09:28:33</time>
      </trkpt>
      <trkpt lat="42.27738" lon="3.10453">
        <ele>-8.4</ele>
        <time>2022-05-21 09:28:34</time>
      </trkpt>
      <trkpt lat="42.27738" lon="3.10459">
        <ele>-8.4</ele>
        <time>2022-05-21 09:28:35</time>
      </trkpt>
      <trkpt lat="42.27737" lon="3.10464">
        <ele>-8.4</ele>
        <time>2022-05-21 09:28:36</time>
      </trkpt>
      <trkpt lat="42.27737" lon="3.10472">
        <ele>-8.4</ele>
        <time>2022-05-21 09:28:37</time>
      </trkpt>
      <trkpt lat="42.27735" lon="3.10479">
        <ele>-8.4</ele>
        <time>2022-05-21 09:28:38</time>
      </trkpt>
      <trkpt lat="42.27734" lon="3.10483">
        <ele>-8.4</ele>
        <time>2022-05-21 09:28:39</time>
      </trkpt>
      <trkpt lat="42.27733" lon="3.10491">
        <ele>-8.2</ele>
        <time>2022-05-21 09:28:40</time>
      </trkpt>
      <trkpt lat="42.27731" lon="3.10495">
        <ele>-8.2</ele>
        <time>2022-05-21 09:28:41</time>
      </trkpt>
      <trkpt lat="42.27727" lon="3.10506">
        <ele>-8.2</ele>
        <time>2022-05-21 09:28:42</time>
      </trkpt>
      <trkpt lat="42.27725" lon="3.10512">
        <ele>-8.2</ele>
        <time>2022-05-21 09:28:43</time>
      </trkpt>
      <trkpt lat="42.27721" lon="3.10521">
        <ele>-8.2</ele>
        <time>2022-05-21 09:28:44</time>
      </trkpt>
      <trkpt lat="42.27718" lon="3.10527">
        <ele>-8.2</ele>
        <time>2022-05-21 09:28:45</time>
      </trkpt>
      <trkpt lat="42.27714" lon="3.1054">
        <ele>-8.2</ele>
        <time>2022-05-21 09:28:46</time>
      </trkpt>
      <trkpt lat="42.2771" lon="3.10549">
        <ele>-8.4</ele>
        <time>2022-05-21 09:28:47</time>
      </trkpt>
      <trkpt lat="42.27705" lon="3.1056">
        <ele>-8.4</ele>
        <time>2022-05-21 09:28:48</time>
      </trkpt>
      <trkpt lat="42.27699" lon="3.10572">
        <ele>-8.6</ele>
        <time>2022-05-21 09:28:49</time>
      </trkpt>
      <trkpt lat="42.27696" lon="3.10581">
        <ele>-8.6</ele>
        <time>2022-05-21 09:28:50</time>
      </trkpt>
      <trkpt lat="42.27692" lon="3.10592">
        <ele>-8.6</ele>
        <time>2022-05-21 09:28:51</time>
      </trkpt>
      <trkpt lat="42.27688" lon="3.10604">
        <ele>-8.6</ele>
        <time>2022-05-21 09:28:52</time>
      </trkpt>
      <trkpt lat="42.27685" lon="3.10612">
        <ele>-8.6</ele>
        <time>2022-05-21 09:28:53</time>
      </trkpt>
      <trkpt lat="42.27682" lon="3.10623">
        <ele>-8.6</ele>
        <time>2022-05-21 09:28:54</time>
      </trkpt>
      <trkpt lat="42.27679" lon="3.10632">
        <ele>-8.6</ele>
        <time>2022-05-21 09:28:55</time>
      </trkpt>
      <trkpt lat="42.27676" lon="3.10643">
        <ele>-8.6</ele>
        <time>2022-05-21 09:28:56</time>
      </trkpt>
      <trkpt lat="42.27674" lon="3.10651">
        <ele>-8.6</ele>
        <time>2022-05-21 09:28:57</time>
      </trkpt>
      <trkpt lat="42.27671" lon="3.10662">
        <ele>-8.6</ele>
        <time>2022-05-21 09:28:58</time>
      </trkpt>
      <trkpt lat="42.27669" lon="3.1067">
        <ele>-8.6</ele>
        <time>2022-05-21 09:28:59</time>
      </trkpt>
      <trkpt lat="42.27666" lon="3.1068">
        <ele>-8.6</ele>
        <time>2022-05-21 09:29:00</time>
      </trkpt>
      <trkpt lat="42.27664" lon="3.10688">
        <ele>-8.6</ele>
        <time>2022-05-21 09:29:01</time>
      </trkpt>
      <trkpt lat="42.27662" lon="3.10698">
        <ele>-8.6</ele>
        <time>2022-05-21 09:29:02</time>
      </trkpt>
      <trkpt lat="42.2766" lon="3.10704">
        <ele>-8.6</ele>
        <time>2022-05-21 09:29:03</time>
      </trkpt>
      <trkpt lat="42.27658" lon="3.10715">
        <ele>-8.6</ele>
        <time>2022-05-21 09:29:04</time>
      </trkpt>
      <trkpt lat="42.27656" lon="3.10721">
        <ele>-8.6</ele>
        <time>2022-05-21 09:29:05</time>
      </trkpt>
      <trkpt lat="42.27653" lon="3.10732">
        <ele>-8.8</ele>
        <time>2022-05-21 09:29:06</time>
      </trkpt>
      <trkpt lat="42.27652" lon="3.10739">
        <ele>-8.8</ele>
        <time>2022-05-21 09:29:07</time>
      </trkpt>
      <trkpt lat="42.27649" lon="3.1075">
        <ele>-8.8</ele>
        <time>2022-05-21 09:29:08</time>
      </trkpt>
      <trkpt lat="42.27648" lon="3.10756">
        <ele>-9</ele>
        <time>2022-05-21 09:29:09</time>
      </trkpt>
      <trkpt lat="42.27645" lon="3.10768">
        <ele>-9</ele>
        <time>2022-05-21 09:29:10</time>
      </trkpt>
      <trkpt lat="42.27643" lon="3.10775">
        <ele>-9</ele>
        <time>2022-05-21 09:29:11</time>
      </trkpt>
      <trkpt lat="42.2764" lon="3.10785">
        <ele>-9</ele>
        <time>2022-05-21 09:29:12</time>
      </trkpt>
      <trkpt lat="42.27639" lon="3.10792">
        <ele>-9.2</ele>
        <time>2022-05-21 09:29:13</time>
      </trkpt>
      <trkpt lat="42.27637" lon="3.10801">
        <ele>-9.2</ele>
        <time>2022-05-21 09:29:14</time>
      </trkpt>
      <trkpt lat="42.27635" lon="3.10809">
        <ele>-9.2</ele>
        <time>2022-05-21 09:29:15</time>
      </trkpt>
      <trkpt lat="42.27632" lon="3.10818">
        <ele>-9.2</ele>
        <time>2022-05-21 09:29:16</time>
      </trkpt>
      <trkpt lat="42.27631" lon="3.10825">
        <ele>-9</ele>
        <time>2022-05-21 09:29:17</time>
      </trkpt>
      <trkpt lat="42.27629" lon="3.10835">
        <ele>-9</ele>
        <time>2022-05-21 09:29:18</time>
      </trkpt>
      <trkpt lat="42.27627" lon="3.10841">
        <ele>-9</ele>
        <time>2022-05-21 09:29:19</time>
      </trkpt>
      <trkpt lat="42.27625" lon="3.10851">
        <ele>-9</ele>
        <time>2022-05-21 09:29:20</time>
      </trkpt>
      <trkpt lat="42.27623" lon="3.10858">
        <ele>-9</ele>
        <time>2022-05-21 09:29:21</time>
      </trkpt>
      <trkpt lat="42.27621" lon="3.10867">
        <ele>-9.2</ele>
        <time>2022-05-21 09:29:22</time>
      </trkpt>
      <trkpt lat="42.27619" lon="3.10875">
        <ele>-9.2</ele>
        <time>2022-05-21 09:29:23</time>
      </trkpt>
      <trkpt lat="42.27616" lon="3.10884">
        <ele>-9.2</ele>
        <time>2022-05-21 09:29:24</time>
      </trkpt>
      <trkpt lat="42.27613" lon="3.10892">
        <ele>-9.4</ele>
        <time>2022-05-21 09:29:25</time>
      </trkpt>
      <trkpt lat="42.2761" lon="3.10901">
        <ele>-9.4</ele>
        <time>2022-05-21 09:29:26</time>
      </trkpt>
      <trkpt lat="42.27607" lon="3.10907">
        <ele>-9.4</ele>
        <time>2022-05-21 09:29:27</time>
      </trkpt>
      <trkpt lat="42.27601" lon="3.10915">
        <ele>-9.6</ele>
        <time>2022-05-21 09:29:28</time>
      </trkpt>
      <trkpt lat="42.27597" lon="3.10919">
        <ele>-9.6</ele>
        <time>2022-05-21 09:29:29</time>
      </trkpt>
      <trkpt lat="42.27591" lon="3.10925">
        <ele>-9.6</ele>
        <time>2022-05-21 09:29:30</time>
      </trkpt>
      <trkpt lat="42.27586" lon="3.10928">
        <ele>-9.8</ele>
        <time>2022-05-21 09:29:31</time>
      </trkpt>
      <trkpt lat="42.27578" lon="3.10932">
        <ele>-9.8</ele>
        <time>2022-05-21 09:29:32</time>
      </trkpt>
      <trkpt lat="42.27573" lon="3.10936">
        <ele>-9.8</ele>
        <time>2022-05-21 09:29:33</time>
      </trkpt>
      <trkpt lat="42.27566" lon="3.10939">
        <ele>-9.8</ele>
        <time>2022-05-21 09:29:34</time>
      </trkpt>
      <trkpt lat="42.27561" lon="3.10943">
        <ele>-9.6</ele>
        <time>2022-05-21 09:29:35</time>
      </trkpt>
      <trkpt lat="42.27554" lon="3.10947">
        <ele>-9.6</ele>
        <time>2022-05-21 09:29:36</time>
      </trkpt>
      <trkpt lat="42.27548" lon="3.1095">
        <ele>-9.6</ele>
        <time>2022-05-21 09:29:37</time>
      </trkpt>
      <trkpt lat="42.27542" lon="3.10954">
        <ele>-9.6</ele>
        <time>2022-05-21 09:29:38</time>
      </trkpt>
      <trkpt lat="42.27538" lon="3.10956">
        <ele>-9.6</ele>
        <time>2022-05-21 09:29:39</time>
      </trkpt>
      <trkpt lat="42.2753" lon="3.10961">
        <ele>-9.6</ele>
        <time>2022-05-21 09:29:40</time>
      </trkpt>
      <trkpt lat="42.27525" lon="3.10965">
        <ele>-9.6</ele>
        <time>2022-05-21 09:29:41</time>
      </trkpt>
      <trkpt lat="42.27519" lon="3.10971">
        <ele>-9.6</ele>
        <time>2022-05-21 09:29:42</time>
      </trkpt>
      <trkpt lat="42.27514" lon="3.10976">
        <ele>-9.6</ele>
        <time>2022-05-21 09:29:43</time>
      </trkpt>
      <trkpt lat="42.2751" lon="3.10983">
        <ele>-9.6</ele>
        <time>2022-05-21 09:29:44</time>
      </trkpt>
      <trkpt lat="42.27507" lon="3.10988">
        <ele>-9.6</ele>
        <time>2022-05-21 09:29:45</time>
      </trkpt>
      <trkpt lat="42.27502" lon="3.10997">
        <ele>-9.6</ele>
        <time>2022-05-21 09:29:46</time>
      </trkpt>
      <trkpt lat="42.275" lon="3.11003">
        <ele>-9.6</ele>
        <time>2022-05-21 09:29:47</time>
      </trkpt>
      <trkpt lat="42.27497" lon="3.11012">
        <ele>-9.6</ele>
        <time>2022-05-21 09:29:48</time>
      </trkpt>
      <trkpt lat="42.27495" lon="3.1102">
        <ele>-9.6</ele>
        <time>2022-05-21 09:29:49</time>
      </trkpt>
      <trkpt lat="42.27493" lon="3.11029">
        <ele>-9.6</ele>
        <time>2022-05-21 09:29:50</time>
      </trkpt>
      <trkpt lat="42.27492" lon="3.11036">
        <ele>-9.4</ele>
        <time>2022-05-21 09:29:51</time>
      </trkpt>
      <trkpt lat="42.2749" lon="3.11046">
        <ele>-9.4</ele>
        <time>2022-05-21 09:29:52</time>
      </trkpt>
      <trkpt lat="42.27489" lon="3.11052">
        <ele>-9.4</ele>
        <time>2022-05-21 09:29:53</time>
      </trkpt>
      <trkpt lat="42.2749" lon="3.11062">
        <ele>-9.4</ele>
        <time>2022-05-21 09:29:54</time>
      </trkpt>
      <trkpt lat="42.2749" lon="3.11068">
        <ele>-9.4</ele>
        <time>2022-05-21 09:29:55</time>
      </trkpt>
      <trkpt lat="42.27491" lon="3.11078">
        <ele>-9.4</ele>
        <time>2022-05-21 09:29:56</time>
      </trkpt>
      <trkpt lat="42.27493" lon="3.11085">
        <ele>-9.4</ele>
        <time>2022-05-21 09:29:57</time>
      </trkpt>
      <trkpt lat="42.27495" lon="3.11095">
        <ele>-9.2</ele>
        <time>2022-05-21 09:29:58</time>
      </trkpt>
      <trkpt lat="42.27497" lon="3.11101">
        <ele>-9.2</ele>
        <time>2022-05-21 09:29:59</time>
      </trkpt>
      <trkpt lat="42.275" lon="3.11111">
        <ele>-9.2</ele>
        <time>2022-05-21 09:30:00</time>
      </trkpt>
      <trkpt lat="42.27501" lon="3.11117">
        <ele>-9.2</ele>
        <time>2022-05-21 09:30:01</time>
      </trkpt>
      <trkpt lat="42.27505" lon="3.11127">
        <ele>-9.2</ele>
        <time>2022-05-21 09:30:02</time>
      </trkpt>
      <trkpt lat="42.27507" lon="3.11132">
        <ele>-9.2</ele>
        <time>2022-05-21 09:30:03</time>
      </trkpt>
      <trkpt lat="42.2751" lon="3.11142">
        <ele>-9.2</ele>
        <time>2022-05-21 09:30:04</time>
      </trkpt>
      <trkpt lat="42.27513" lon="3.11147">
        <ele>-9.2</ele>
        <time>2022-05-21 09:30:05</time>
      </trkpt>
      <trkpt lat="42.27516" lon="3.11157">
        <ele>-9.2</ele>
        <time>2022-05-21 09:30:06</time>
      </trkpt>
      <trkpt lat="42.27519" lon="3.11163">
        <ele>-9.2</ele>
        <time>2022-05-21 09:30:07</time>
      </trkpt>
      <trkpt lat="42.27523" lon="3.11172">
        <ele>-9.2</ele>
        <time>2022-05-21 09:30:08</time>
      </trkpt>
      <trkpt lat="42.27525" lon="3.11178">
        <ele>-9.2</ele>
        <time>2022-05-21 09:30:09</time>
      </trkpt>
      <trkpt lat="42.27529" lon="3.11187">
        <ele>-9</ele>
        <time>2022-05-21 09:30:10</time>
      </trkpt>
      <trkpt lat="42.27531" lon="3.11193">
        <ele>-9</ele>
        <time>2022-05-21 09:30:11</time>
      </trkpt>
      <trkpt lat="42.27535" lon="3.11202">
        <ele>-9.2</ele>
        <time>2022-05-21 09:30:12</time>
      </trkpt>
      <trkpt lat="42.27538" lon="3.11207">
        <ele>-9.2</ele>
        <time>2022-05-21 09:30:13</time>
      </trkpt>
      <trkpt lat="42.27542" lon="3.11217">
        <ele>-9.2</ele>
        <time>2022-05-21 09:30:14</time>
      </trkpt>
      <trkpt lat="42.27545" lon="3.11223">
        <ele>-9.2</ele>
        <time>2022-05-21 09:30:15</time>
      </trkpt>
      <trkpt lat="42.27549" lon="3.11232">
        <ele>-9.2</ele>
        <time>2022-05-21 09:30:16</time>
      </trkpt>
      <trkpt lat="42.27551" lon="3.11238">
        <ele>-9.2</ele>
        <time>2022-05-21 09:30:17</time>
      </trkpt>
      <trkpt lat="42.27556" lon="3.11248">
        <ele>-9.2</ele>
        <time>2022-05-21 09:30:18</time>
      </trkpt>
      <trkpt lat="42.27558" lon="3.11253">
        <ele>-9.2</ele>
        <time>2022-05-21 09:30:19</time>
      </trkpt>
      <trkpt lat="42.27562" lon="3.11262">
        <ele>-9.2</ele>
        <time>2022-05-21 09:30:20</time>
      </trkpt>
      <trkpt lat="42.27566" lon="3.11268">
        <ele>-9.2</ele>
        <time>2022-05-21 09:30:21</time>
      </trkpt>
      <trkpt lat="42.2757" lon="3.11278">
        <ele>-9.2</ele>
        <time>2022-05-21 09:30:22</time>
      </trkpt>
      <trkpt lat="42.27572" lon="3.11282">
        <ele>-9.4</ele>
        <time>2022-05-21 09:30:23</time>
      </trkpt>
      <trkpt lat="42.27577" lon="3.11292">
        <ele>-9.4</ele>
        <time>2022-05-21 09:30:24</time>
      </trkpt>
      <trkpt lat="42.2758" lon="3.11299">
        <ele>-9.4</ele>
        <time>2022-05-21 09:30:25</time>
      </trkpt>
      <trkpt lat="42.27583" lon="3.11309">
        <ele>-9.4</ele>
        <time>2022-05-21 09:30:26</time>
      </trkpt>
      <trkpt lat="42.27586" lon="3.11317">
        <ele>-9.4</ele>
        <time>2022-05-21 09:30:27</time>
      </trkpt>
      <trkpt lat="42.27589" lon="3.11328">
        <ele>-9.4</ele>
        <time>2022-05-21 09:30:28</time>
      </trkpt>
      <trkpt lat="42.27591" lon="3.11334">
        <ele>-9.6</ele>
        <time>2022-05-21 09:30:29</time>
      </trkpt>
      <trkpt lat="42.27594" lon="3.11345">
        <ele>-9.6</ele>
        <time>2022-05-21 09:30:30</time>
      </trkpt>
      <trkpt lat="42.27596" lon="3.11351">
        <ele>-9.6</ele>
        <time>2022-05-21 09:30:31</time>
      </trkpt>
      <trkpt lat="42.27599" lon="3.11363">
        <ele>-9.8</ele>
        <time>2022-05-21 09:30:32</time>
      </trkpt>
      <trkpt lat="42.276" lon="3.11369">
        <ele>-9.8</ele>
        <time>2022-05-21 09:30:33</time>
      </trkpt>
      <trkpt lat="42.27604" lon="3.11383">
        <ele>-9.8</ele>
        <time>2022-05-21 09:30:34</time>
      </trkpt>
      <trkpt lat="42.27607" lon="3.11389">
        <ele>-9.8</ele>
        <time>2022-05-21 09:30:35</time>
      </trkpt>
      <trkpt lat="42.2761" lon="3.11402">
        <ele>-9.8</ele>
        <time>2022-05-21 09:30:36</time>
      </trkpt>
      <trkpt lat="42.27613" lon="3.1141">
        <ele>-9.8</ele>
        <time>2022-05-21 09:30:37</time>
      </trkpt>
      <trkpt lat="42.27616" lon="3.11422">
        <ele>-9.8</ele>
        <time>2022-05-21 09:30:38</time>
      </trkpt>
      <trkpt lat="42.27618" lon="3.11429">
        <ele>-9.8</ele>
        <time>2022-05-21 09:30:39</time>
      </trkpt>
      <trkpt lat="42.27622" lon="3.1144">
        <ele>-9.8</ele>
        <time>2022-05-21 09:30:40</time>
      </trkpt>
      <trkpt lat="42.27624" lon="3.11446">
        <ele>-9.8</ele>
        <time>2022-05-21 09:30:41</time>
      </trkpt>
      <trkpt lat="42.27628" lon="3.11456">
        <ele>-9.8</ele>
        <time>2022-05-21 09:30:42</time>
      </trkpt>
      <trkpt lat="42.27632" lon="3.11464">
        <ele>-10</ele>
        <time>2022-05-21 09:30:43</time>
      </trkpt>
      <trkpt lat="42.27637" lon="3.11474">
        <ele>-10</ele>
        <time>2022-05-21 09:30:44</time>
      </trkpt>
      <trkpt lat="42.2764" lon="3.11481">
        <ele>-10</ele>
        <time>2022-05-21 09:30:45</time>
      </trkpt>
      <trkpt lat="42.27645" lon="3.1149">
        <ele>-10</ele>
        <time>2022-05-21 09:30:46</time>
      </trkpt>
      <trkpt lat="42.2765" lon="3.11499">
        <ele>-10.2</ele>
        <time>2022-05-21 09:30:47</time>
      </trkpt>
      <trkpt lat="42.27654" lon="3.11507">
        <ele>-10.2</ele>
        <time>2022-05-21 09:30:48</time>
      </trkpt>
      <trkpt lat="42.27658" lon="3.11515">
        <ele>-10.2</ele>
        <time>2022-05-21 09:30:49</time>
      </trkpt>
      <trkpt lat="42.27661" lon="3.1152">
        <ele>-10.2</ele>
        <time>2022-05-21 09:30:50</time>
      </trkpt>
      <trkpt lat="42.27666" lon="3.11529">
        <ele>-10.2</ele>
        <time>2022-05-21 09:30:51</time>
      </trkpt>
      <trkpt lat="42.27671" lon="3.11538">
        <ele>-10.2</ele>
        <time>2022-05-21 09:30:52</time>
      </trkpt>
      <trkpt lat="42.27676" lon="3.11546">
        <ele>-10.4</ele>
        <time>2022-05-21 09:30:53</time>
      </trkpt>
      <trkpt lat="42.27681" lon="3.11552">
        <ele>-10.4</ele>
        <time>2022-05-21 09:30:54</time>
      </trkpt>
      <trkpt lat="42.27688" lon="3.11558">
        <ele>-10.4</ele>
        <time>2022-05-21 09:30:55</time>
      </trkpt>
      <trkpt lat="42.27694" lon="3.11563">
        <ele>-10.4</ele>
        <time>2022-05-21 09:30:56</time>
      </trkpt>
      <trkpt lat="42.277" lon="3.11567">
        <ele>-10.4</ele>
        <time>2022-05-21 09:30:57</time>
      </trkpt>
      <trkpt lat="42.27707" lon="3.11569">
        <ele>-10.4</ele>
        <time>2022-05-21 09:30:58</time>
      </trkpt>
      <trkpt lat="42.27714" lon="3.11572">
        <ele>-10.4</ele>
        <time>2022-05-21 09:30:59</time>
      </trkpt>
      <trkpt lat="42.2772" lon="3.11574">
        <ele>-10.4</ele>
        <time>2022-05-21 09:31:00</time>
      </trkpt>
      <trkpt lat="42.27727" lon="3.11577">
        <ele>-10.2</ele>
        <time>2022-05-21 09:31:01</time>
      </trkpt>
      <trkpt lat="42.27734" lon="3.1158">
        <ele>-10.2</ele>
        <time>2022-05-21 09:31:02</time>
      </trkpt>
      <trkpt lat="42.2774" lon="3.11583">
        <ele>-10.2</ele>
        <time>2022-05-21 09:31:03</time>
      </trkpt>
      <trkpt lat="42.27747" lon="3.11585">
        <ele>-10.2</ele>
        <time>2022-05-21 09:31:04</time>
      </trkpt>
      <trkpt lat="42.27753" lon="3.11588">
        <ele>-10.2</ele>
        <time>2022-05-21 09:31:05</time>
      </trkpt>
      <trkpt lat="42.2776" lon="3.1159">
        <ele>-10</ele>
        <time>2022-05-21 09:31:06</time>
      </trkpt>
      <trkpt lat="42.27766" lon="3.11593">
        <ele>-10</ele>
        <time>2022-05-21 09:31:07</time>
      </trkpt>
      <trkpt lat="42.27772" lon="3.11595">
        <ele>-10</ele>
        <time>2022-05-21 09:31:08</time>
      </trkpt>
      <trkpt lat="42.27779" lon="3.11598">
        <ele>-9.8</ele>
        <time>2022-05-21 09:31:09</time>
      </trkpt>
      <trkpt lat="42.27785" lon="3.116">
        <ele>-9.8</ele>
        <time>2022-05-21 09:31:10</time>
      </trkpt>
      <trkpt lat="42.27791" lon="3.11602">
        <ele>-9.6</ele>
        <time>2022-05-21 09:31:11</time>
      </trkpt>
      <trkpt lat="42.27797" lon="3.11604">
        <ele>-9.6</ele>
        <time>2022-05-21 09:31:12</time>
      </trkpt>
      <trkpt lat="42.27803" lon="3.11606">
        <ele>-9.4</ele>
        <time>2022-05-21 09:31:13</time>
      </trkpt>
      <trkpt lat="42.27809" lon="3.11609">
        <ele>-9.4</ele>
        <time>2022-05-21 09:31:14</time>
      </trkpt>
      <trkpt lat="42.27815" lon="3.11611">
        <ele>-9.2</ele>
        <time>2022-05-21 09:31:15</time>
      </trkpt>
      <trkpt lat="42.27821" lon="3.11614">
        <ele>-9.2</ele>
        <time>2022-05-21 09:31:16</time>
      </trkpt>
      <trkpt lat="42.27827" lon="3.11617">
        <ele>-9.2</ele>
        <time>2022-05-21 09:31:17</time>
      </trkpt>
      <trkpt lat="42.27833" lon="3.11619">
        <ele>-9.4</ele>
        <time>2022-05-21 09:31:18</time>
      </trkpt>
      <trkpt lat="42.27839" lon="3.11621">
        <ele>-9.4</ele>
        <time>2022-05-21 09:31:19</time>
      </trkpt>
      <trkpt lat="42.27845" lon="3.11624">
        <ele>-9.4</ele>
        <time>2022-05-21 09:31:20</time>
      </trkpt>
      <trkpt lat="42.27852" lon="3.11626">
        <ele>-9.4</ele>
        <time>2022-05-21 09:31:21</time>
      </trkpt>
      <trkpt lat="42.27858" lon="3.11629">
        <ele>-9.4</ele>
        <time>2022-05-21 09:31:22</time>
      </trkpt>
      <trkpt lat="42.27864" lon="3.11631">
        <ele>-9.4</ele>
        <time>2022-05-21 09:31:23</time>
      </trkpt>
      <trkpt lat="42.27871" lon="3.11634">
        <ele>-9.4</ele>
        <time>2022-05-21 09:31:24</time>
      </trkpt>
      <trkpt lat="42.27877" lon="3.11636">
        <ele>-9.6</ele>
        <time>2022-05-21 09:31:25</time>
      </trkpt>
      <trkpt lat="42.27884" lon="3.11639">
        <ele>-9.6</ele>
        <time>2022-05-21 09:31:26</time>
      </trkpt>
      <trkpt lat="42.2789" lon="3.11641">
        <ele>-9.6</ele>
        <time>2022-05-21 09:31:27</time>
      </trkpt>
      <trkpt lat="42.27897" lon="3.11644">
        <ele>-9.6</ele>
        <time>2022-05-21 09:31:28</time>
      </trkpt>
      <trkpt lat="42.27903" lon="3.11647">
        <ele>-9.6</ele>
        <time>2022-05-21 09:31:29</time>
      </trkpt>
      <trkpt lat="42.2791" lon="3.11649">
        <ele>-9.6</ele>
        <time>2022-05-21 09:31:30</time>
      </trkpt>
      <trkpt lat="42.27917" lon="3.11652">
        <ele>-9.6</ele>
        <time>2022-05-21 09:31:31</time>
      </trkpt>
      <trkpt lat="42.27923" lon="3.11654">
        <ele>-9.6</ele>
        <time>2022-05-21 09:31:32</time>
      </trkpt>
      <trkpt lat="42.2793" lon="3.11656">
        <ele>-9.6</ele>
        <time>2022-05-21 09:31:33</time>
      </trkpt>
      <trkpt lat="42.27936" lon="3.11657">
        <ele>-9.6</ele>
        <time>2022-05-21 09:31:34</time>
      </trkpt>
      <trkpt lat="42.27942" lon="3.1166">
        <ele>-9.6</ele>
        <time>2022-05-21 09:31:35</time>
      </trkpt>
      <trkpt lat="42.27948" lon="3.11663">
        <ele>-9.6</ele>
        <time>2022-05-21 09:31:36</time>
      </trkpt>
      <trkpt lat="42.27955" lon="3.11666">
        <ele>-9.6</ele>
        <time>2022-05-21 09:31:37</time>
      </trkpt>
      <trkpt lat="42.27961" lon="3.11668">
        <ele>-9.6</ele>
        <time>2022-05-21 09:31:38</time>
      </trkpt>
      <trkpt lat="42.27967" lon="3.11672">
        <ele>-9.6</ele>
        <time>2022-05-21 09:31:39</time>
      </trkpt>
      <trkpt lat="42.27973" lon="3.11674">
        <ele>-9.6</ele>
        <time>2022-05-21 09:31:40</time>
      </trkpt>
      <trkpt lat="42.2798" lon="3.11677">
        <ele>-9.6</ele>
        <time>2022-05-21 09:31:41</time>
      </trkpt>
      <trkpt lat="42.27986" lon="3.1168">
        <ele>-9.6</ele>
        <time>2022-05-21 09:31:42</time>
      </trkpt>
      <trkpt lat="42.27992" lon="3.11682">
        <ele>-9.6</ele>
        <time>2022-05-21 09:31:43</time>
      </trkpt>
      <trkpt lat="42.27999" lon="3.11684">
        <ele>-9.4</ele>
        <time>2022-05-21 09:31:44</time>
      </trkpt>
      <trkpt lat="42.28005" lon="3.11687">
        <ele>-9.4</ele>
        <time>2022-05-21 09:31:45</time>
      </trkpt>
      <trkpt lat="42.28011" lon="3.11689">
        <ele>-9.4</ele>
        <time>2022-05-21 09:31:46</time>
      </trkpt>
      <trkpt lat="42.28017" lon="3.11692">
        <ele>-9.4</ele>
        <time>2022-05-21 09:31:47</time>
      </trkpt>
      <trkpt lat="42.28024" lon="3.11694">
        <ele>-9.2</ele>
        <time>2022-05-21 09:31:48</time>
      </trkpt>
      <trkpt lat="42.2803" lon="3.11696">
        <ele>-9.2</ele>
        <time>2022-05-21 09:31:49</time>
      </trkpt>
      <trkpt lat="42.28036" lon="3.11699">
        <ele>-9.2</ele>
        <time>2022-05-21 09:31:50</time>
      </trkpt>
      <trkpt lat="42.28042" lon="3.11701">
        <ele>-9</ele>
        <time>2022-05-21 09:31:51</time>
      </trkpt>
      <trkpt lat="42.28048" lon="3.11704">
        <ele>-9</ele>
        <time>2022-05-21 09:31:52</time>
      </trkpt>
      <trkpt lat="42.28053" lon="3.11706">
        <ele>-9</ele>
        <time>2022-05-21 09:31:53</time>
      </trkpt>
      <trkpt lat="42.2806" lon="3.11708">
        <ele>-8.8</ele>
        <time>2022-05-21 09:31:54</time>
      </trkpt>
      <trkpt lat="42.28066" lon="3.1171">
        <ele>-8.8</ele>
        <time>2022-05-21 09:31:55</time>
      </trkpt>
      <trkpt lat="42.28072" lon="3.11712">
        <ele>-8.6</ele>
        <time>2022-05-21 09:31:56</time>
      </trkpt>
      <trkpt lat="42.28079" lon="3.11714">
        <ele>-8.6</ele>
        <time>2022-05-21 09:31:57</time>
      </trkpt>
      <trkpt lat="42.28085" lon="3.11716">
        <ele>-8.6</ele>
        <time>2022-05-21 09:31:58</time>
      </trkpt>
      <trkpt lat="42.2809" lon="3.11719">
        <ele>-8.6</ele>
        <time>2022-05-21 09:31:59</time>
      </trkpt>
      <trkpt lat="42.28096" lon="3.11721">
        <ele>-8.6</ele>
        <time>2022-05-21 09:32:00</time>
      </trkpt>
      <trkpt lat="42.28102" lon="3.11724">
        <ele>-8.6</ele>
        <time>2022-05-21 09:32:01</time>
      </trkpt>
      <trkpt lat="42.28109" lon="3.11727">
        <ele>-8.6</ele>
        <time>2022-05-21 09:32:02</time>
      </trkpt>
      <trkpt lat="42.28115" lon="3.1173">
        <ele>-8.8</ele>
        <time>2022-05-21 09:32:03</time>
      </trkpt>
      <trkpt lat="42.28122" lon="3.11733">
        <ele>-9</ele>
        <time>2022-05-21 09:32:04</time>
      </trkpt>
      <trkpt lat="42.28128" lon="3.11735">
        <ele>-9.2</ele>
        <time>2022-05-21 09:32:05</time>
      </trkpt>
      <trkpt lat="42.28135" lon="3.11738">
        <ele>-9.2</ele>
        <time>2022-05-21 09:32:06</time>
      </trkpt>
      <trkpt lat="42.28142" lon="3.11741">
        <ele>-9.4</ele>
        <time>2022-05-21 09:32:07</time>
      </trkpt>
      <trkpt lat="42.28149" lon="3.11743">
        <ele>-9.6</ele>
        <time>2022-05-21 09:32:08</time>
      </trkpt>
      <trkpt lat="42.28156" lon="3.11746">
        <ele>-9.8</ele>
        <time>2022-05-21 09:32:09</time>
      </trkpt>
      <trkpt lat="42.28163" lon="3.11748">
        <ele>-9.8</ele>
        <time>2022-05-21 09:32:10</time>
      </trkpt>
      <trkpt lat="42.28169" lon="3.11751">
        <ele>-9.8</ele>
        <time>2022-05-21 09:32:11</time>
      </trkpt>
      <trkpt lat="42.28176" lon="3.11754">
        <ele>-10</ele>
        <time>2022-05-21 09:32:12</time>
      </trkpt>
      <trkpt lat="42.28183" lon="3.11756">
        <ele>-10</ele>
        <time>2022-05-21 09:32:13</time>
      </trkpt>
      <trkpt lat="42.28189" lon="3.11759">
        <ele>-10</ele>
        <time>2022-05-21 09:32:14</time>
      </trkpt>
      <trkpt lat="42.28196" lon="3.11762">
        <ele>-10</ele>
        <time>2022-05-21 09:32:15</time>
      </trkpt>
      <trkpt lat="42.28203" lon="3.11764">
        <ele>-10.2</ele>
        <time>2022-05-21 09:32:16</time>
      </trkpt>
      <trkpt lat="42.28209" lon="3.11767">
        <ele>-10.2</ele>
        <time>2022-05-21 09:32:17</time>
      </trkpt>
      <trkpt lat="42.28216" lon="3.11769">
        <ele>-10.2</ele>
        <time>2022-05-21 09:32:18</time>
      </trkpt>
      <trkpt lat="42.28222" lon="3.11772">
        <ele>-10.2</ele>
        <time>2022-05-21 09:32:19</time>
      </trkpt>
      <trkpt lat="42.28228" lon="3.11774">
        <ele>-10.2</ele>
        <time>2022-05-21 09:32:20</time>
      </trkpt>
      <trkpt lat="42.28235" lon="3.11777">
        <ele>-10.2</ele>
        <time>2022-05-21 09:32:21</time>
      </trkpt>
      <trkpt lat="42.2824" lon="3.11779">
        <ele>-10.2</ele>
        <time>2022-05-21 09:32:22</time>
      </trkpt>
      <trkpt lat="42.28248" lon="3.11782">
        <ele>-10.2</ele>
        <time>2022-05-21 09:32:23</time>
      </trkpt>
      <trkpt lat="42.28254" lon="3.11784">
        <ele>-10.2</ele>
        <time>2022-05-21 09:32:24</time>
      </trkpt>
      <trkpt lat="42.28261" lon="3.11787">
        <ele>-10.4</ele>
        <time>2022-05-21 09:32:25</time>
      </trkpt>
      <trkpt lat="42.28268" lon="3.11789">
        <ele>-10.4</ele>
        <time>2022-05-21 09:32:26</time>
      </trkpt>
      <trkpt lat="42.28274" lon="3.11792">
        <ele>-10.4</ele>
        <time>2022-05-21 09:32:27</time>
      </trkpt>
      <trkpt lat="42.28281" lon="3.11795">
        <ele>-10.4</ele>
        <time>2022-05-21 09:32:28</time>
      </trkpt>
      <trkpt lat="42.28288" lon="3.11798">
        <ele>-10.6</ele>
        <time>2022-05-21 09:32:29</time>
      </trkpt>
      <trkpt lat="42.28294" lon="3.118">
        <ele>-10.6</ele>
        <time>2022-05-21 09:32:30</time>
      </trkpt>
      <trkpt lat="42.28301" lon="3.11803">
        <ele>-10.6</ele>
        <time>2022-05-21 09:32:31</time>
      </trkpt>
      <trkpt lat="42.28308" lon="3.11806">
        <ele>-10.6</ele>
        <time>2022-05-21 09:32:32</time>
      </trkpt>
      <trkpt lat="42.28314" lon="3.11808">
        <ele>-10.6</ele>
        <time>2022-05-21 09:32:33</time>
      </trkpt>
      <trkpt lat="42.28321" lon="3.11811">
        <ele>-10.6</ele>
        <time>2022-05-21 09:32:34</time>
      </trkpt>
      <trkpt lat="42.28327" lon="3.11814">
        <ele>-10.6</ele>
        <time>2022-05-21 09:32:35</time>
      </trkpt>
      <trkpt lat="42.28334" lon="3.11816">
        <ele>-10.6</ele>
        <time>2022-05-21 09:32:36</time>
      </trkpt>
      <trkpt lat="42.2834" lon="3.11818">
        <ele>-10.6</ele>
        <time>2022-05-21 09:32:37</time>
      </trkpt>
      <trkpt lat="42.28347" lon="3.11821">
        <ele>-10.6</ele>
        <time>2022-05-21 09:32:38</time>
      </trkpt>
      <trkpt lat="42.28353" lon="3.11824">
        <ele>-10.6</ele>
        <time>2022-05-21 09:32:39</time>
      </trkpt>
      <trkpt lat="42.28359" lon="3.11827">
        <ele>-10.6</ele>
        <time>2022-05-21 09:32:40</time>
      </trkpt>
      <trkpt lat="42.28366" lon="3.11829">
        <ele>-10.6</ele>
        <time>2022-05-21 09:32:41</time>
      </trkpt>
      <trkpt lat="42.28372" lon="3.11832">
        <ele>-10.6</ele>
        <time>2022-05-21 09:32:42</time>
      </trkpt>
      <trkpt lat="42.28378" lon="3.11835">
        <ele>-10.6</ele>
        <time>2022-05-21 09:32:43</time>
      </trkpt>
      <trkpt lat="42.28384" lon="3.11838">
        <ele>-10.6</ele>
        <time>2022-05-21 09:32:44</time>
      </trkpt>
      <trkpt lat="42.2839" lon="3.1184">
        <ele>-10.6</ele>
        <time>2022-05-21 09:32:45</time>
      </trkpt>
      <trkpt lat="42.28397" lon="3.11843">
        <ele>-10.4</ele>
        <time>2022-05-21 09:32:46</time>
      </trkpt>
      <trkpt lat="42.28403" lon="3.11847">
        <ele>-10.4</ele>
        <time>2022-05-21 09:32:47</time>
      </trkpt>
      <trkpt lat="42.28408" lon="3.1185">
        <ele>-10.4</ele>
        <time>2022-05-21 09:32:48</time>
      </trkpt>
      <trkpt lat="42.28414" lon="3.11854">
        <ele>-10.4</ele>
        <time>2022-05-21 09:32:49</time>
      </trkpt>
      <trkpt lat="42.28421" lon="3.11859">
        <ele>-10.2</ele>
        <time>2022-05-21 09:32:50</time>
      </trkpt>
      <trkpt lat="42.28426" lon="3.11863">
        <ele>-10.2</ele>
        <time>2022-05-21 09:32:51</time>
      </trkpt>
      <trkpt lat="42.28432" lon="3.11867">
        <ele>-10.2</ele>
        <time>2022-05-21 09:32:52</time>
      </trkpt>
      <trkpt lat="42.28438" lon="3.11872">
        <ele>-10.2</ele>
        <time>2022-05-21 09:32:53</time>
      </trkpt>
      <trkpt lat="42.28443" lon="3.11877">
        <ele>-10.2</ele>
        <time>2022-05-21 09:32:54</time>
      </trkpt>
      <trkpt lat="42.28449" lon="3.11882">
        <ele>-10</ele>
        <time>2022-05-21 09:32:55</time>
      </trkpt>
      <trkpt lat="42.28455" lon="3.11886">
        <ele>-10</ele>
        <time>2022-05-21 09:32:56</time>
      </trkpt>
      <trkpt lat="42.28461" lon="3.11891">
        <ele>-10</ele>
        <time>2022-05-21 09:32:57</time>
      </trkpt>
      <trkpt lat="42.28466" lon="3.11896">
        <ele>-10</ele>
        <time>2022-05-21 09:32:58</time>
      </trkpt>
      <trkpt lat="42.28472" lon="3.119">
        <ele>-10</ele>
        <time>2022-05-21 09:32:59</time>
      </trkpt>
      <trkpt lat="42.28477" lon="3.11904">
        <ele>-10</ele>
        <time>2022-05-21 09:33:00</time>
      </trkpt>
      <trkpt lat="42.28483" lon="3.11909">
        <ele>-10</ele>
        <time>2022-05-21 09:33:01</time>
      </trkpt>
      <trkpt lat="42.28488" lon="3.11913">
        <ele>-10</ele>
        <time>2022-05-21 09:33:02</time>
      </trkpt>
      <trkpt lat="42.28495" lon="3.11918">
        <ele>-10</ele>
        <time>2022-05-21 09:33:03</time>
      </trkpt>
      <trkpt lat="42.285" lon="3.11922">
        <ele>-10.2</ele>
        <time>2022-05-21 09:33:04</time>
      </trkpt>
      <trkpt lat="42.28506" lon="3.11926">
        <ele>-10</ele>
        <time>2022-05-21 09:33:05</time>
      </trkpt>
      <trkpt lat="42.28512" lon="3.11931">
        <ele>-10</ele>
        <time>2022-05-21 09:33:06</time>
      </trkpt>
      <trkpt lat="42.28517" lon="3.11935">
        <ele>-10</ele>
        <time>2022-05-21 09:33:07</time>
      </trkpt>
      <trkpt lat="42.28523" lon="3.1194">
        <ele>-10</ele>
        <time>2022-05-21 09:33:08</time>
      </trkpt>
      <trkpt lat="42.28529" lon="3.11945">
        <ele>-9.8</ele>
        <time>2022-05-21 09:33:09</time>
      </trkpt>
      <trkpt lat="42.28535" lon="3.11949">
        <ele>-9.8</ele>
        <time>2022-05-21 09:33:10</time>
      </trkpt>
      <trkpt lat="42.28539" lon="3.11953">
        <ele>-9.8</ele>
        <time>2022-05-21 09:33:11</time>
      </trkpt>
      <trkpt lat="42.28545" lon="3.11958">
        <ele>-9.8</ele>
        <time>2022-05-21 09:33:12</time>
      </trkpt>
      <trkpt lat="42.28551" lon="3.11963">
        <ele>-9.6</ele>
        <time>2022-05-21 09:33:13</time>
      </trkpt>
      <trkpt lat="42.28557" lon="3.11968">
        <ele>-9.6</ele>
        <time>2022-05-21 09:33:14</time>
      </trkpt>
      <trkpt lat="42.28562" lon="3.11973">
        <ele>-9.6</ele>
        <time>2022-05-21 09:33:15</time>
      </trkpt>
      <trkpt lat="42.28568" lon="3.11978">
        <ele>-9.6</ele>
        <time>2022-05-21 09:33:16</time>
      </trkpt>
      <trkpt lat="42.28573" lon="3.11983">
        <ele>-9.6</ele>
        <time>2022-05-21 09:33:17</time>
      </trkpt>
      <trkpt lat="42.28578" lon="3.11988">
        <ele>-9.6</ele>
        <time>2022-05-21 09:33:18</time>
      </trkpt>
      <trkpt lat="42.28583" lon="3.11994">
        <ele>-9.6</ele>
        <time>2022-05-21 09:33:19</time>
      </trkpt>
      <trkpt lat="42.28588" lon="3.12">
        <ele>-9.6</ele>
        <time>2022-05-21 09:33:20</time>
      </trkpt>
      <trkpt lat="42.28593" lon="3.12006">
        <ele>-9.6</ele>
        <time>2022-05-21 09:33:21</time>
      </trkpt>
      <trkpt lat="42.28597" lon="3.12012">
        <ele>-9.6</ele>
        <time>2022-05-21 09:33:22</time>
      </trkpt>
      <trkpt lat="42.28602" lon="3.12017">
        <ele>-9.6</ele>
        <time>2022-05-21 09:33:23</time>
      </trkpt>
      <trkpt lat="42.28606" lon="3.12023">
        <ele>-9.4</ele>
        <time>2022-05-21 09:33:24</time>
      </trkpt>
      <trkpt lat="42.28611" lon="3.12029">
        <ele>-9.4</ele>
        <time>2022-05-21 09:33:25</time>
      </trkpt>
      <trkpt lat="42.28615" lon="3.12035">
        <ele>-9.4</ele>
        <time>2022-05-21 09:33:26</time>
      </trkpt>
      <trkpt lat="42.2862" lon="3.12041">
        <ele>-9.4</ele>
        <time>2022-05-21 09:33:27</time>
      </trkpt>
      <trkpt lat="42.28624" lon="3.12047">
        <ele>-9.2</ele>
        <time>2022-05-21 09:33:28</time>
      </trkpt>
      <trkpt lat="42.28628" lon="3.12054">
        <ele>-9.2</ele>
        <time>2022-05-21 09:33:29</time>
      </trkpt>
      <trkpt lat="42.28633" lon="3.1206">
        <ele>-9.2</ele>
        <time>2022-05-21 09:33:30</time>
      </trkpt>
      <trkpt lat="42.28637" lon="3.12066">
        <ele>-9.2</ele>
        <time>2022-05-21 09:33:31</time>
      </trkpt>
      <trkpt lat="42.28641" lon="3.12072">
        <ele>-9</ele>
        <time>2022-05-21 09:33:32</time>
      </trkpt>
      <trkpt lat="42.28646" lon="3.12078">
        <ele>-9</ele>
        <time>2022-05-21 09:33:33</time>
      </trkpt>
      <trkpt lat="42.2865" lon="3.12084">
        <ele>-9</ele>
        <time>2022-05-21 09:33:34</time>
      </trkpt>
      <trkpt lat="42.28655" lon="3.12091">
        <ele>-8.8</ele>
        <time>2022-05-21 09:33:35</time>
      </trkpt>
      <trkpt lat="42.28659" lon="3.12097">
        <ele>-8.8</ele>
        <time>2022-05-21 09:33:36</time>
      </trkpt>
      <trkpt lat="42.28664" lon="3.12104">
        <ele>-8.6</ele>
        <time>2022-05-21 09:33:37</time>
      </trkpt>
      <trkpt lat="42.28668" lon="3.1211">
        <ele>-8.6</ele>
        <time>2022-05-21 09:33:38</time>
      </trkpt>
      <trkpt lat="42.28673" lon="3.12117">
        <ele>-8.4</ele>
        <time>2022-05-21 09:33:39</time>
      </trkpt>
      <trkpt lat="42.28677" lon="3.12123">
        <ele>-8.4</ele>
        <time>2022-05-21 09:33:40</time>
      </trkpt>
      <trkpt lat="42.28682" lon="3.12129">
        <ele>-8.4</ele>
        <time>2022-05-21 09:33:41</time>
      </trkpt>
      <trkpt lat="42.28686" lon="3.12135">
        <ele>-8.4</ele>
        <time>2022-05-21 09:33:42</time>
      </trkpt>
      <trkpt lat="42.28691" lon="3.12142">
        <ele>-8.4</ele>
        <time>2022-05-21 09:33:43</time>
      </trkpt>
      <trkpt lat="42.28695" lon="3.12148">
        <ele>-8.2</ele>
        <time>2022-05-21 09:33:44</time>
      </trkpt>
      <trkpt lat="42.287" lon="3.12154">
        <ele>-8.2</ele>
        <time>2022-05-21 09:33:45</time>
      </trkpt>
      <trkpt lat="42.28704" lon="3.1216">
        <ele>-8.2</ele>
        <time>2022-05-21 09:33:46</time>
      </trkpt>
      <trkpt lat="42.28709" lon="3.12167">
        <ele>-8.2</ele>
        <time>2022-05-21 09:33:47</time>
      </trkpt>
      <trkpt lat="42.28713" lon="3.12173">
        <ele>-8</ele>
        <time>2022-05-21 09:33:48</time>
      </trkpt>
      <trkpt lat="42.28718" lon="3.12179">
        <ele>-8</ele>
        <time>2022-05-21 09:33:49</time>
      </trkpt>
      <trkpt lat="42.28722" lon="3.12186">
        <ele>-8</ele>
        <time>2022-05-21 09:33:50</time>
      </trkpt>
      <trkpt lat="42.28727" lon="3.12192">
        <ele>-7.8</ele>
        <time>2022-05-21 09:33:51</time>
      </trkpt>
      <trkpt lat="42.28731" lon="3.12198">
        <ele>-7.8</ele>
        <time>2022-05-21 09:33:52</time>
      </trkpt>
      <trkpt lat="42.28736" lon="3.12204">
        <ele>-7.8</ele>
        <time>2022-05-21 09:33:53</time>
      </trkpt>
      <trkpt lat="42.28741" lon="3.12209">
        <ele>-7.6</ele>
        <time>2022-05-21 09:33:54</time>
      </trkpt>
      <trkpt lat="42.28745" lon="3.12215">
        <ele>-7.6</ele>
        <time>2022-05-21 09:33:55</time>
      </trkpt>
      <trkpt lat="42.2875" lon="3.12221">
        <ele>-7.4</ele>
        <time>2022-05-21 09:33:56</time>
      </trkpt>
      <trkpt lat="42.28754" lon="3.12227">
        <ele>-7.4</ele>
        <time>2022-05-21 09:33:57</time>
      </trkpt>
      <trkpt lat="42.28759" lon="3.12232">
        <ele>-7.2</ele>
        <time>2022-05-21 09:33:58</time>
      </trkpt>
      <trkpt lat="42.28764" lon="3.12237">
        <ele>-7.2</ele>
        <time>2022-05-21 09:33:59</time>
      </trkpt>
      <trkpt lat="42.28769" lon="3.12242">
        <ele>-7</ele>
        <time>2022-05-21 09:34:00</time>
      </trkpt>
      <trkpt lat="42.28773" lon="3.12246">
        <ele>-6.8</ele>
        <time>2022-05-21 09:34:01</time>
      </trkpt>
      <trkpt lat="42.28779" lon="3.12251">
        <ele>-6.8</ele>
        <time>2022-05-21 09:34:02</time>
      </trkpt>
      <trkpt lat="42.28784" lon="3.12255">
        <ele>-6.6</ele>
        <time>2022-05-21 09:34:03</time>
      </trkpt>
      <trkpt lat="42.28789" lon="3.12259">
        <ele>-6.4</ele>
        <time>2022-05-21 09:34:04</time>
      </trkpt>
      <trkpt lat="42.28795" lon="3.12263">
        <ele>-6.4</ele>
        <time>2022-05-21 09:34:05</time>
      </trkpt>
      <trkpt lat="42.288" lon="3.12267">
        <ele>-6.2</ele>
        <time>2022-05-21 09:34:06</time>
      </trkpt>
      <trkpt lat="42.28805" lon="3.12271">
        <ele>-6.2</ele>
        <time>2022-05-21 09:34:07</time>
      </trkpt>
      <trkpt lat="42.28811" lon="3.12275">
        <ele>-6.2</ele>
        <time>2022-05-21 09:34:08</time>
      </trkpt>
      <trkpt lat="42.28816" lon="3.12279">
        <ele>-6</ele>
        <time>2022-05-21 09:34:09</time>
      </trkpt>
      <trkpt lat="42.28821" lon="3.12282">
        <ele>-6</ele>
        <time>2022-05-21 09:34:10</time>
      </trkpt>
      <trkpt lat="42.28827" lon="3.12286">
        <ele>-5.8</ele>
        <time>2022-05-21 09:34:11</time>
      </trkpt>
      <trkpt lat="42.28832" lon="3.1229">
        <ele>-5.6</ele>
        <time>2022-05-21 09:34:12</time>
      </trkpt>
      <trkpt lat="42.28837" lon="3.12293">
        <ele>-5.4</ele>
        <time>2022-05-21 09:34:13</time>
      </trkpt>
      <trkpt lat="42.28842" lon="3.12297">
        <ele>-5.2</ele>
        <time>2022-05-21 09:34:14</time>
      </trkpt>
      <trkpt lat="42.28847" lon="3.123">
        <ele>-5</ele>
        <time>2022-05-21 09:34:15</time>
      </trkpt>
      <trkpt lat="42.28852" lon="3.12303">
        <ele>-4.8</ele>
        <time>2022-05-21 09:34:16</time>
      </trkpt>
      <trkpt lat="42.28857" lon="3.12306">
        <ele>-4.6</ele>
        <time>2022-05-21 09:34:17</time>
      </trkpt>
      <trkpt lat="42.28861" lon="3.12309">
        <ele>-4.4</ele>
        <time>2022-05-21 09:34:18</time>
      </trkpt>
      <trkpt lat="42.28865" lon="3.12312">
        <ele>-4.2</ele>
        <time>2022-05-21 09:34:19</time>
      </trkpt>
      <trkpt lat="42.2887" lon="3.12314">
        <ele>-3.8</ele>
        <time>2022-05-21 09:34:20</time>
      </trkpt>
      <trkpt lat="42.28874" lon="3.12317">
        <ele>-3.8</ele>
        <time>2022-05-21 09:34:21</time>
      </trkpt>
      <trkpt lat="42.28878" lon="3.1232">
        <ele>-3.4</ele>
        <time>2022-05-21 09:34:22</time>
      </trkpt>
      <trkpt lat="42.28882" lon="3.12323">
        <ele>-3.2</ele>
        <time>2022-05-21 09:34:23</time>
      </trkpt>
      <trkpt lat="42.28886" lon="3.12326">
        <ele>-3</ele>
        <time>2022-05-21 09:34:24</time>
      </trkpt>
      <trkpt lat="42.2889" lon="3.1233">
        <ele>-2.8</ele>
        <time>2022-05-21 09:34:25</time>
      </trkpt>
      <trkpt lat="42.28894" lon="3.12333">
        <ele>-2.6</ele>
        <time>2022-05-21 09:34:26</time>
      </trkpt>
      <trkpt lat="42.28898" lon="3.12336">
        <ele>-2.6</ele>
        <time>2022-05-21 09:34:27</time>
      </trkpt>
      <trkpt lat="42.28902" lon="3.1234">
        <ele>-2.4</ele>
        <time>2022-05-21 09:34:28</time>
      </trkpt>
      <trkpt lat="42.28906" lon="3.12345">
        <ele>-2.2</ele>
        <time>2022-05-21 09:34:29</time>
      </trkpt>
      <trkpt lat="42.2891" lon="3.12349">
        <ele>-2.2</ele>
        <time>2022-05-21 09:34:30</time>
      </trkpt>
      <trkpt lat="42.28914" lon="3.12354">
        <ele>-2</ele>
        <time>2022-05-21 09:34:31</time>
      </trkpt>
      <trkpt lat="42.28918" lon="3.12359">
        <ele>-2</ele>
        <time>2022-05-21 09:34:32</time>
      </trkpt>
      <trkpt lat="42.28922" lon="3.12364">
        <ele>-2</ele>
        <time>2022-05-21 09:34:33</time>
      </trkpt>
      <trkpt lat="42.28926" lon="3.1237">
        <ele>-2</ele>
        <time>2022-05-21 09:34:34</time>
      </trkpt>
      <trkpt lat="42.2893" lon="3.12376">
        <ele>-2</ele>
        <time>2022-05-21 09:34:35</time>
      </trkpt>
      <trkpt lat="42.28934" lon="3.12381">
        <ele>-2</ele>
        <time>2022-05-21 09:34:36</time>
      </trkpt>
      <trkpt lat="42.28937" lon="3.12387">
        <ele>-2</ele>
        <time>2022-05-21 09:34:37</time>
      </trkpt>
      <trkpt lat="42.28941" lon="3.12393">
        <ele>-2</ele>
        <time>2022-05-21 09:34:38</time>
      </trkpt>
      <trkpt lat="42.28945" lon="3.12398">
        <ele>-2</ele>
        <time>2022-05-21 09:34:39</time>
      </trkpt>
      <trkpt lat="42.28949" lon="3.12404">
        <ele>-1.8</ele>
        <time>2022-05-21 09:34:40</time>
      </trkpt>
      <trkpt lat="42.28953" lon="3.12409">
        <ele>-1.8</ele>
        <time>2022-05-21 09:34:41</time>
      </trkpt>
      <trkpt lat="42.28957" lon="3.12414">
        <ele>-1.8</ele>
        <time>2022-05-21 09:34:42</time>
      </trkpt>
      <trkpt lat="42.28961" lon="3.1242">
        <ele>-1.6</ele>
        <time>2022-05-21 09:34:43</time>
      </trkpt>
      <trkpt lat="42.28964" lon="3.12425">
        <ele>-1.6</ele>
        <time>2022-05-21 09:34:44</time>
      </trkpt>
      <trkpt lat="42.28968" lon="3.12431">
        <ele>-1.4</ele>
        <time>2022-05-21 09:34:45</time>
      </trkpt>
      <trkpt lat="42.28972" lon="3.12436">
        <ele>-1.2</ele>
        <time>2022-05-21 09:34:46</time>
      </trkpt>
      <trkpt lat="42.28976" lon="3.12441">
        <ele>-1.2</ele>
        <time>2022-05-21 09:34:47</time>
      </trkpt>
      <trkpt lat="42.28979" lon="3.12446">
        <ele>-1</ele>
        <time>2022-05-21 09:34:48</time>
      </trkpt>
      <trkpt lat="42.28983" lon="3.12452">
        <ele>-0.8</ele>
        <time>2022-05-21 09:34:49</time>
      </trkpt>
      <trkpt lat="42.28986" lon="3.12457">
        <ele>-0.8</ele>
        <time>2022-05-21 09:34:50</time>
      </trkpt>
      <trkpt lat="42.2899" lon="3.12462">
        <ele>-0.6</ele>
        <time>2022-05-21 09:34:51</time>
      </trkpt>
      <trkpt lat="42.28994" lon="3.12467">
        <ele>-0.4</ele>
        <time>2022-05-21 09:34:52</time>
      </trkpt>
      <trkpt lat="42.28997" lon="3.12473">
        <ele>-0.2</ele>
        <time>2022-05-21 09:34:53</time>
      </trkpt>
      <trkpt lat="42.29001" lon="3.12478">
        <ele>-0.2</ele>
        <time>2022-05-21 09:34:54</time>
      </trkpt>
      <trkpt lat="42.29005" lon="3.12483">
        <time>2022-05-21 09:34:55</time>
      </trkpt>
      <trkpt lat="42.29009" lon="3.12489">
        <ele>0.2</ele>
        <time>2022-05-21 09:34:56</time>
      </trkpt>
      <trkpt lat="42.29012" lon="3.12494">
        <ele>0.2</ele>
        <time>2022-05-21 09:34:57</time>
      </trkpt>
      <trkpt lat="42.29016" lon="3.125">
        <ele>0.4</ele>
        <time>2022-05-21 09:34:58</time>
      </trkpt>
      <trkpt lat="42.2902" lon="3.12505">
        <ele>0.6</ele>
        <time>2022-05-21 09:34:59</time>
      </trkpt>
      <trkpt lat="42.29023" lon="3.1251">
        <ele>0.6</ele>
        <time>2022-05-21 09:35:00</time>
      </trkpt>
      <trkpt lat="42.29027" lon="3.12515">
        <ele>0.8</ele>
        <time>2022-05-21 09:35:01</time>
      </trkpt>
      <trkpt lat="42.29031" lon="3.1252">
        <ele>1</ele>
        <time>2022-05-21 09:35:02</time>
      </trkpt>
      <trkpt lat="42.29036" lon="3.12525">
        <ele>1</ele>
        <time>2022-05-21 09:35:03</time>
      </trkpt>
      <trkpt lat="42.29041" lon="3.12529">
        <ele>1.2</ele>
        <time>2022-05-21 09:35:04</time>
      </trkpt>
      <trkpt lat="42.29046" lon="3.12533">
        <ele>1.2</ele>
        <time>2022-05-21 09:35:05</time>
      </trkpt>
      <trkpt lat="42.29051" lon="3.12537">
        <ele>1.2</ele>
        <time>2022-05-21 09:35:06</time>
      </trkpt>
      <trkpt lat="42.29056" lon="3.12541">
        <ele>1.2</ele>
        <time>2022-05-21 09:35:07</time>
      </trkpt>
      <trkpt lat="42.29062" lon="3.12544">
        <ele>1.4</ele>
        <time>2022-05-21 09:35:08</time>
      </trkpt>
      <trkpt lat="42.29067" lon="3.12548">
        <ele>1.4</ele>
        <time>2022-05-21 09:35:09</time>
      </trkpt>
      <trkpt lat="42.29073" lon="3.12551">
        <ele>1.2</ele>
        <time>2022-05-21 09:35:10</time>
      </trkpt>
      <trkpt lat="42.29078" lon="3.12554">
        <ele>1.2</ele>
        <time>2022-05-21 09:35:11</time>
      </trkpt>
      <trkpt lat="42.29083" lon="3.12557">
        <ele>1.2</ele>
        <time>2022-05-21 09:35:12</time>
      </trkpt>
      <trkpt lat="42.2909" lon="3.1256">
        <ele>1.2</ele>
        <time>2022-05-21 09:35:13</time>
      </trkpt>
      <trkpt lat="42.29096" lon="3.12564">
        <ele>1.4</ele>
        <time>2022-05-21 09:35:14</time>
      </trkpt>
      <trkpt lat="42.29102" lon="3.12567">
        <ele>1.4</ele>
        <time>2022-05-21 09:35:15</time>
      </trkpt>
      <trkpt lat="42.29107" lon="3.12571">
        <ele>1.4</ele>
        <time>2022-05-21 09:35:16</time>
      </trkpt>
      <trkpt lat="42.29113" lon="3.12574">
        <ele>1.4</ele>
        <time>2022-05-21 09:35:17</time>
      </trkpt>
      <trkpt lat="42.29118" lon="3.12577">
        <ele>1.4</ele>
        <time>2022-05-21 09:35:18</time>
      </trkpt>
      <trkpt lat="42.29125" lon="3.12581">
        <ele>1.4</ele>
        <time>2022-05-21 09:35:19</time>
      </trkpt>
      <trkpt lat="42.2913" lon="3.12585">
        <ele>1.4</ele>
        <time>2022-05-21 09:35:20</time>
      </trkpt>
      <trkpt lat="42.29136" lon="3.12588">
        <ele>1.4</ele>
        <time>2022-05-21 09:35:21</time>
      </trkpt>
      <trkpt lat="42.29142" lon="3.12592">
        <ele>1.4</ele>
        <time>2022-05-21 09:35:22</time>
      </trkpt>
      <trkpt lat="42.29148" lon="3.12595">
        <ele>1.4</ele>
        <time>2022-05-21 09:35:23</time>
      </trkpt>
      <trkpt lat="42.29154" lon="3.12599">
        <ele>1.6</ele>
        <time>2022-05-21 09:35:24</time>
      </trkpt>
      <trkpt lat="42.2916" lon="3.12602">
        <ele>1.6</ele>
        <time>2022-05-21 09:35:25</time>
      </trkpt>
      <trkpt lat="42.29166" lon="3.12605">
        <ele>1.6</ele>
        <time>2022-05-21 09:35:26</time>
      </trkpt>
      <trkpt lat="42.29172" lon="3.12609">
        <ele>1.4</ele>
        <time>2022-05-21 09:35:27</time>
      </trkpt>
      <trkpt lat="42.29178" lon="3.12613">
        <ele>1.4</ele>
        <time>2022-05-21 09:35:28</time>
      </trkpt>
      <trkpt lat="42.29184" lon="3.12616">
        <ele>1.4</ele>
        <time>2022-05-21 09:35:29</time>
      </trkpt>
      <trkpt lat="42.2919" lon="3.1262">
        <ele>1.4</ele>
        <time>2022-05-21 09:35:30</time>
      </trkpt>
      <trkpt lat="42.29196" lon="3.12623">
        <ele>1.4</ele>
        <time>2022-05-21 09:35:31</time>
      </trkpt>
      <trkpt lat="42.29202" lon="3.12627">
        <ele>1.4</ele>
        <time>2022-05-21 09:35:32</time>
      </trkpt>
      <trkpt lat="42.29208" lon="3.1263">
        <ele>1.4</ele>
        <time>2022-05-21 09:35:33</time>
      </trkpt>
      <trkpt lat="42.29213" lon="3.12633">
        <ele>1.4</ele>
        <time>2022-05-21 09:35:34</time>
      </trkpt>
      <trkpt lat="42.2922" lon="3.12637">
        <ele>1.2</ele>
        <time>2022-05-21 09:35:35</time>
      </trkpt>
      <trkpt lat="42.29225" lon="3.12641">
        <ele>1.2</ele>
        <time>2022-05-21 09:35:36</time>
      </trkpt>
      <trkpt lat="42.29232" lon="3.12644">
        <ele>1.2</ele>
        <time>2022-05-21 09:35:37</time>
      </trkpt>
      <trkpt lat="42.29237" lon="3.12648">
        <ele>1.4</ele>
        <time>2022-05-21 09:35:38</time>
      </trkpt>
      <trkpt lat="42.29243" lon="3.12651">
        <ele>1.4</ele>
        <time>2022-05-21 09:35:39</time>
      </trkpt>
      <trkpt lat="42.29249" lon="3.12654">
        <ele>1.4</ele>
        <time>2022-05-21 09:35:40</time>
      </trkpt>
      <trkpt lat="42.29254" lon="3.12658">
        <ele>1.4</ele>
        <time>2022-05-21 09:35:41</time>
      </trkpt>
      <trkpt lat="42.2926" lon="3.12661">
        <ele>1.4</ele>
        <time>2022-05-21 09:35:42</time>
      </trkpt>
      <trkpt lat="42.29266" lon="3.12664">
        <ele>1.6</ele>
        <time>2022-05-21 09:35:43</time>
      </trkpt>
      <trkpt lat="42.29271" lon="3.12667">
        <ele>1.6</ele>
        <time>2022-05-21 09:35:44</time>
      </trkpt>
      <trkpt lat="42.29277" lon="3.12671">
        <ele>1.6</ele>
        <time>2022-05-21 09:35:45</time>
      </trkpt>
      <trkpt lat="42.29283" lon="3.12674">
        <ele>1.8</ele>
        <time>2022-05-21 09:35:46</time>
      </trkpt>
      <trkpt lat="42.29289" lon="3.12677">
        <ele>1.8</ele>
        <time>2022-05-21 09:35:47</time>
      </trkpt>
      <trkpt lat="42.29294" lon="3.1268">
        <ele>1.8</ele>
        <time>2022-05-21 09:35:48</time>
      </trkpt>
      <trkpt lat="42.293" lon="3.12683">
        <ele>1.8</ele>
        <time>2022-05-21 09:35:49</time>
      </trkpt>
      <trkpt lat="42.29305" lon="3.12686">
        <ele>2</ele>
        <time>2022-05-21 09:35:50</time>
      </trkpt>
      <trkpt lat="42.29311" lon="3.12689">
        <ele>2</ele>
        <time>2022-05-21 09:35:51</time>
      </trkpt>
      <trkpt lat="42.29317" lon="3.12692">
        <ele>2</ele>
        <time>2022-05-21 09:35:52</time>
      </trkpt>
      <trkpt lat="42.29322" lon="3.12696">
        <ele>2.2</ele>
        <time>2022-05-21 09:35:53</time>
      </trkpt>
      <trkpt lat="42.29328" lon="3.12699">
        <ele>2.2</ele>
        <time>2022-05-21 09:35:54</time>
      </trkpt>
      <trkpt lat="42.29333" lon="3.12703">
        <ele>2.4</ele>
        <time>2022-05-21 09:35:55</time>
      </trkpt>
      <trkpt lat="42.29338" lon="3.12706">
        <ele>2.4</ele>
        <time>2022-05-21 09:35:56</time>
      </trkpt>
      <trkpt lat="42.29343" lon="3.12709">
        <ele>2.4</ele>
        <time>2022-05-21 09:35:57</time>
      </trkpt>
      <trkpt lat="42.29348" lon="3.12712">
        <ele>2.6</ele>
        <time>2022-05-21 09:35:58</time>
      </trkpt>
      <trkpt lat="42.29353" lon="3.12716">
        <ele>2.6</ele>
        <time>2022-05-21 09:35:59</time>
      </trkpt>
      <trkpt lat="42.29358" lon="3.12719">
        <ele>2.6</ele>
        <time>2022-05-21 09:36:00</time>
      </trkpt>
      <trkpt lat="42.29363" lon="3.12722">
        <ele>2.8</ele>
        <time>2022-05-21 09:36:01</time>
      </trkpt>
      <trkpt lat="42.29369" lon="3.12725">
        <ele>2.8</ele>
        <time>2022-05-21 09:36:02</time>
      </trkpt>
      <trkpt lat="42.29374" lon="3.12728">
        <ele>3</ele>
        <time>2022-05-21 09:36:03</time>
      </trkpt>
      <trkpt lat="42.29379" lon="3.12731">
        <ele>3</ele>
        <time>2022-05-21 09:36:04</time>
      </trkpt>
      <trkpt lat="42.29385" lon="3.12735">
        <ele>3</ele>
        <time>2022-05-21 09:36:05</time>
      </trkpt>
      <trkpt lat="42.2939" lon="3.12737">
        <ele>3.2</ele>
        <time>2022-05-21 09:36:06</time>
      </trkpt>
      <trkpt lat="42.29396" lon="3.1274">
        <ele>3.2</ele>
        <time>2022-05-21 09:36:07</time>
      </trkpt>
      <trkpt lat="42.29401" lon="3.12743">
        <ele>3.2</ele>
        <time>2022-05-21 09:36:08</time>
      </trkpt>
      <trkpt lat="42.29407" lon="3.12746">
        <ele>3.4</ele>
        <time>2022-05-21 09:36:09</time>
      </trkpt>
      <trkpt lat="42.29411" lon="3.12749">
        <ele>3.4</ele>
        <time>2022-05-21 09:36:10</time>
      </trkpt>
      <trkpt lat="42.29417" lon="3.12753">
        <ele>3.4</ele>
        <time>2022-05-21 09:36:11</time>
      </trkpt>
      <trkpt lat="42.29422" lon="3.12755">
        <ele>3.6</ele>
        <time>2022-05-21 09:36:12</time>
      </trkpt>
      <trkpt lat="42.29427" lon="3.12759">
        <ele>3.6</ele>
        <time>2022-05-21 09:36:13</time>
      </trkpt>
      <trkpt lat="42.29432" lon="3.12762">
        <ele>3.8</ele>
        <time>2022-05-21 09:36:14</time>
      </trkpt>
      <trkpt lat="42.29437" lon="3.12765">
        <ele>3.8</ele>
        <time>2022-05-21 09:36:15</time>
      </trkpt>
      <trkpt lat="42.29442" lon="3.12769">
        <ele>3.8</ele>
        <time>2022-05-21 09:36:16</time>
      </trkpt>
      <trkpt lat="42.29447" lon="3.12772">
        <ele>4</ele>
        <time>2022-05-21 09:36:17</time>
      </trkpt>
      <trkpt lat="42.29452" lon="3.12776">
        <ele>4.2</ele>
        <time>2022-05-21 09:36:18</time>
      </trkpt>
      <trkpt lat="42.29457" lon="3.12779">
        <ele>4.2</ele>
        <time>2022-05-21 09:36:19</time>
      </trkpt>
      <trkpt lat="42.29461" lon="3.12783">
        <ele>4.4</ele>
        <time>2022-05-21 09:36:20</time>
      </trkpt>
      <trkpt lat="42.29466" lon="3.12788">
        <ele>4.4</ele>
        <time>2022-05-21 09:36:21</time>
      </trkpt>
      <trkpt lat="42.29471" lon="3.12792">
        <ele>4.4</ele>
        <time>2022-05-21 09:36:22</time>
      </trkpt>
      <trkpt lat="42.29475" lon="3.12797">
        <ele>4.6</ele>
        <time>2022-05-21 09:36:23</time>
      </trkpt>
      <trkpt lat="42.29479" lon="3.12801">
        <ele>4.6</ele>
        <time>2022-05-21 09:36:24</time>
      </trkpt>
      <trkpt lat="42.29483" lon="3.12807">
        <ele>4.8</ele>
        <time>2022-05-21 09:36:25</time>
      </trkpt>
      <trkpt lat="42.29487" lon="3.12811">
        <ele>4.8</ele>
        <time>2022-05-21 09:36:26</time>
      </trkpt>
      <trkpt lat="42.29491" lon="3.12817">
        <ele>4.8</ele>
        <time>2022-05-21 09:36:27</time>
      </trkpt>
      <trkpt lat="42.29496" lon="3.12823">
        <ele>4.8</ele>
        <time>2022-05-21 09:36:28</time>
      </trkpt>
      <trkpt lat="42.29499" lon="3.12828">
        <ele>5</ele>
        <time>2022-05-21 09:36:29</time>
      </trkpt>
      <trkpt lat="42.29503" lon="3.12833">
        <ele>5</ele>
        <time>2022-05-21 09:36:30</time>
      </trkpt>
      <trkpt lat="42.29507" lon="3.12839">
        <ele>5</ele>
        <time>2022-05-21 09:36:31</time>
      </trkpt>
      <trkpt lat="42.29511" lon="3.12843">
        <ele>5</ele>
        <time>2022-05-21 09:36:32</time>
      </trkpt>
      <trkpt lat="42.29515" lon="3.1285">
        <ele>5</ele>
        <time>2022-05-21 09:36:33</time>
      </trkpt>
      <trkpt lat="42.29519" lon="3.12855">
        <ele>5.2</ele>
        <time>2022-05-21 09:36:34</time>
      </trkpt>
      <trkpt lat="42.29523" lon="3.1286">
        <ele>5.2</ele>
        <time>2022-05-21 09:36:35</time>
      </trkpt>
      <trkpt lat="42.29527" lon="3.12866">
        <ele>5.2</ele>
        <time>2022-05-21 09:36:36</time>
      </trkpt>
      <trkpt lat="42.29531" lon="3.12872">
        <ele>5.4</ele>
        <time>2022-05-21 09:36:37</time>
      </trkpt>
      <trkpt lat="42.29534" lon="3.12877">
        <ele>5.4</ele>
        <time>2022-05-21 09:36:38</time>
      </trkpt>
      <trkpt lat="42.29539" lon="3.12883">
        <ele>5.4</ele>
        <time>2022-05-21 09:36:39</time>
      </trkpt>
      <trkpt lat="42.29543" lon="3.12888">
        <ele>5.6</ele>
        <time>2022-05-21 09:36:40</time>
      </trkpt>
      <trkpt lat="42.29547" lon="3.12894">
        <ele>5.6</ele>
        <time>2022-05-21 09:36:41</time>
      </trkpt>
      <trkpt lat="42.2955" lon="3.12898">
        <ele>5.6</ele>
        <time>2022-05-21 09:36:42</time>
      </trkpt>
      <trkpt lat="42.29555" lon="3.12905">
        <ele>5.8</ele>
        <time>2022-05-21 09:36:43</time>
      </trkpt>
      <trkpt lat="42.29558" lon="3.1291">
        <ele>5.8</ele>
        <time>2022-05-21 09:36:44</time>
      </trkpt>
      <trkpt lat="42.29562" lon="3.12916">
        <ele>5.8</ele>
        <time>2022-05-21 09:36:45</time>
      </trkpt>
      <trkpt lat="42.29566" lon="3.12921">
        <ele>5.8</ele>
        <time>2022-05-21 09:36:46</time>
      </trkpt>
      <trkpt lat="42.2957" lon="3.12927">
        <ele>6</ele>
        <time>2022-05-21 09:36:47</time>
      </trkpt>
      <trkpt lat="42.29574" lon="3.12932">
        <ele>6</ele>
        <time>2022-05-21 09:36:48</time>
      </trkpt>
      <trkpt lat="42.29578" lon="3.12937">
        <ele>6</ele>
        <time>2022-05-21 09:36:49</time>
      </trkpt>
      <trkpt lat="42.29582" lon="3.12943">
        <ele>6.2</ele>
        <time>2022-05-21 09:36:50</time>
      </trkpt>
      <trkpt lat="42.29586" lon="3.12948">
        <ele>6.2</ele>
        <time>2022-05-21 09:36:51</time>
      </trkpt>
      <trkpt lat="42.29589" lon="3.12953">
        <ele>6.4</ele>
        <time>2022-05-21 09:36:52</time>
      </trkpt>
      <trkpt lat="42.29594" lon="3.12959">
        <ele>6.4</ele>
        <time>2022-05-21 09:36:53</time>
      </trkpt>
      <trkpt lat="42.29598" lon="3.12964">
        <ele>6.4</ele>
        <time>2022-05-21 09:36:54</time>
      </trkpt>
      <trkpt lat="42.29602" lon="3.12969">
        <ele>6.6</ele>
        <time>2022-05-21 09:36:55</time>
      </trkpt>
      <trkpt lat="42.29605" lon="3.12974">
        <ele>6.6</ele>
        <time>2022-05-21 09:36:56</time>
      </trkpt>
      <trkpt lat="42.29609" lon="3.1298">
        <ele>6.6</ele>
        <time>2022-05-21 09:36:57</time>
      </trkpt>
      <trkpt lat="42.29612" lon="3.12985">
        <ele>6.8</ele>
        <time>2022-05-21 09:36:58</time>
      </trkpt>
      <trkpt lat="42.29617" lon="3.12992">
        <ele>6.8</ele>
        <time>2022-05-21 09:36:59</time>
      </trkpt>
      <trkpt lat="42.2962" lon="3.12997">
        <ele>7</ele>
        <time>2022-05-21 09:37:00</time>
      </trkpt>
      <trkpt lat="42.29625" lon="3.13003">
        <ele>7</ele>
        <time>2022-05-21 09:37:01</time>
      </trkpt>
      <trkpt lat="42.29628" lon="3.13008">
        <ele>7.2</ele>
        <time>2022-05-21 09:37:02</time>
      </trkpt>
      <trkpt lat="42.29633" lon="3.13014">
        <ele>7.2</ele>
        <time>2022-05-21 09:37:03</time>
      </trkpt>
      <trkpt lat="42.29636" lon="3.13019">
        <ele>7.2</ele>
        <time>2022-05-21 09:37:04</time>
      </trkpt>
      <trkpt lat="42.29641" lon="3.13026">
        <ele>7.4</ele>
        <time>2022-05-21 09:37:05</time>
      </trkpt>
      <trkpt lat="42.29644" lon="3.1303">
        <ele>7.4</ele>
        <time>2022-05-21 09:37:06</time>
      </trkpt>
      <trkpt lat="42.29649" lon="3.13037">
        <ele>7.6</ele>
        <time>2022-05-21 09:37:07</time>
      </trkpt>
      <trkpt lat="42.29652" lon="3.13042">
        <ele>7.6</ele>
        <time>2022-05-21 09:37:08</time>
      </trkpt>
      <trkpt lat="42.29657" lon="3.13048">
        <ele>7.8</ele>
        <time>2022-05-21 09:37:09</time>
      </trkpt>
      <trkpt lat="42.2966" lon="3.13052">
        <ele>7.8</ele>
        <time>2022-05-21 09:37:10</time>
      </trkpt>
      <trkpt lat="42.29665" lon="3.13059">
        <ele>8</ele>
        <time>2022-05-21 09:37:11</time>
      </trkpt>
      <trkpt lat="42.29668" lon="3.13063">
        <ele>8</ele>
        <time>2022-05-21 09:37:12</time>
      </trkpt>
      <trkpt lat="42.29672" lon="3.1307">
        <ele>8.2</ele>
        <time>2022-05-21 09:37:13</time>
      </trkpt>
      <trkpt lat="42.29675" lon="3.13074">
        <ele>8.2</ele>
        <time>2022-05-21 09:37:14</time>
      </trkpt>
      <trkpt lat="42.2968" lon="3.13081">
        <ele>8.4</ele>
        <time>2022-05-21 09:37:15</time>
      </trkpt>
      <trkpt lat="42.29683" lon="3.13085">
        <ele>8.6</ele>
        <time>2022-05-21 09:37:16</time>
      </trkpt>
      <trkpt lat="42.29688" lon="3.13091">
        <ele>8.8</ele>
        <time>2022-05-21 09:37:17</time>
      </trkpt>
      <trkpt lat="42.2969" lon="3.13096">
        <ele>8.8</ele>
        <time>2022-05-21 09:37:18</time>
      </trkpt>
      <trkpt lat="42.29694" lon="3.13102">
        <ele>9</ele>
        <time>2022-05-21 09:37:19</time>
      </trkpt>
      <trkpt lat="42.29697" lon="3.13106">
        <ele>9.2</ele>
        <time>2022-05-21 09:37:20</time>
      </trkpt>
      <trkpt lat="42.29701" lon="3.13112">
        <ele>9.2</ele>
        <time>2022-05-21 09:37:21</time>
      </trkpt>
      <trkpt lat="42.29704" lon="3.13117">
        <ele>9.4</ele>
        <time>2022-05-21 09:37:22</time>
      </trkpt>
      <trkpt lat="42.29708" lon="3.13123">
        <ele>9.6</ele>
        <time>2022-05-21 09:37:23</time>
      </trkpt>
      <trkpt lat="42.2971" lon="3.13127">
        <ele>9.6</ele>
        <time>2022-05-21 09:37:24</time>
      </trkpt>
      <trkpt lat="42.29714" lon="3.13133">
        <ele>9.8</ele>
        <time>2022-05-21 09:37:25</time>
      </trkpt>
      <trkpt lat="42.29717" lon="3.13137">
        <ele>10</ele>
        <time>2022-05-21 09:37:26</time>
      </trkpt>
      <trkpt lat="42.29721" lon="3.13144">
        <ele>10</ele>
        <time>2022-05-21 09:37:27</time>
      </trkpt>
      <trkpt lat="42.29723" lon="3.13148">
        <ele>10.2</ele>
        <time>2022-05-21 09:37:28</time>
      </trkpt>
      <trkpt lat="42.29727" lon="3.13155">
        <ele>10.4</ele>
        <time>2022-05-21 09:37:29</time>
      </trkpt>
      <trkpt lat="42.29729" lon="3.13159">
        <ele>10.4</ele>
        <time>2022-05-21 09:37:30</time>
      </trkpt>
      <trkpt lat="42.29732" lon="3.13165">
        <ele>10.6</ele>
        <time>2022-05-21 09:37:31</time>
      </trkpt>
      <trkpt lat="42.29735" lon="3.1317">
        <ele>10.6</ele>
        <time>2022-05-21 09:37:32</time>
      </trkpt>
      <trkpt lat="42.29738" lon="3.13176">
        <ele>10.8</ele>
        <time>2022-05-21 09:37:33</time>
      </trkpt>
      <trkpt lat="42.29741" lon="3.1318">
        <ele>10.8</ele>
        <time>2022-05-21 09:37:34</time>
      </trkpt>
      <trkpt lat="42.29745" lon="3.13186">
        <ele>11</ele>
        <time>2022-05-21 09:37:35</time>
      </trkpt>
      <trkpt lat="42.29747" lon="3.1319">
        <ele>11</ele>
        <time>2022-05-21 09:37:36</time>
      </trkpt>
      <trkpt lat="42.29751" lon="3.13197">
        <ele>11.2</ele>
        <time>2022-05-21 09:37:37</time>
      </trkpt>
      <trkpt lat="42.29753" lon="3.13201">
        <ele>11.2</ele>
        <time>2022-05-21 09:37:38</time>
      </trkpt>
      <trkpt lat="42.29757" lon="3.13207">
        <ele>11.4</ele>
        <time>2022-05-21 09:37:39</time>
      </trkpt>
      <trkpt lat="42.2976" lon="3.13212">
        <ele>11.4</ele>
        <time>2022-05-21 09:37:40</time>
      </trkpt>
      <trkpt lat="42.29764" lon="3.13218">
        <ele>11.6</ele>
        <time>2022-05-21 09:37:41</time>
      </trkpt>
      <trkpt lat="42.29766" lon="3.13222">
        <ele>11.6</ele>
        <time>2022-05-21 09:37:42</time>
      </trkpt>
      <trkpt lat="42.2977" lon="3.13229">
        <ele>11.8</ele>
        <time>2022-05-21 09:37:43</time>
      </trkpt>
      <trkpt lat="42.29772" lon="3.13233">
        <ele>11.8</ele>
        <time>2022-05-21 09:37:44</time>
      </trkpt>
      <trkpt lat="42.29775" lon="3.1324">
        <ele>12</ele>
        <time>2022-05-21 09:37:45</time>
      </trkpt>
      <trkpt lat="42.29778" lon="3.13244">
        <ele>12</ele>
        <time>2022-05-21 09:37:46</time>
      </trkpt>
      <trkpt lat="42.29781" lon="3.1325">
        <ele>12.2</ele>
        <time>2022-05-21 09:37:47</time>
      </trkpt>
      <trkpt lat="42.29784" lon="3.13254">
        <ele>12.2</ele>
        <time>2022-05-21 09:37:48</time>
      </trkpt>
      <trkpt lat="42.29788" lon="3.13261">
        <ele>12.4</ele>
        <time>2022-05-21 09:37:49</time>
      </trkpt>
      <trkpt lat="42.2979" lon="3.13265">
        <ele>12.4</ele>
        <time>2022-05-21 09:37:50</time>
      </trkpt>
      <trkpt lat="42.29793" lon="3.13271">
        <ele>12.6</ele>
        <time>2022-05-21 09:37:51</time>
      </trkpt>
      <trkpt lat="42.29796" lon="3.13275">
        <ele>12.6</ele>
        <time>2022-05-21 09:37:52</time>
      </trkpt>
      <trkpt lat="42.298" lon="3.13281">
        <ele>12.8</ele>
        <time>2022-05-21 09:37:53</time>
      </trkpt>
      <trkpt lat="42.29802" lon="3.13286">
        <ele>12.8</ele>
        <time>2022-05-21 09:37:54</time>
      </trkpt>
      <trkpt lat="42.29806" lon="3.13292">
        <ele>13</ele>
        <time>2022-05-21 09:37:55</time>
      </trkpt>
      <trkpt lat="42.29808" lon="3.13296">
        <ele>13</ele>
        <time>2022-05-21 09:37:56</time>
      </trkpt>
      <trkpt lat="42.29811" lon="3.13303">
        <ele>13.2</ele>
        <time>2022-05-21 09:37:57</time>
      </trkpt>
      <trkpt lat="42.29814" lon="3.13307">
        <ele>13.4</ele>
        <time>2022-05-21 09:37:58</time>
      </trkpt>
      <trkpt lat="42.29817" lon="3.13313">
        <ele>13.4</ele>
        <time>2022-05-21 09:37:59</time>
      </trkpt>
      <trkpt lat="42.29819" lon="3.13318">
        <ele>13.6</ele>
        <time>2022-05-21 09:38:00</time>
      </trkpt>
      <trkpt lat="42.29823" lon="3.13324">
        <ele>13.6</ele>
        <time>2022-05-21 09:38:01</time>
      </trkpt>
      <trkpt lat="42.29825" lon="3.13328">
        <ele>13.8</ele>
        <time>2022-05-21 09:38:02</time>
      </trkpt>
      <trkpt lat="42.29829" lon="3.13335">
        <ele>13.8</ele>
        <time>2022-05-21 09:38:03</time>
      </trkpt>
      <trkpt lat="42.29831" lon="3.13339">
        <ele>14</ele>
        <time>2022-05-21 09:38:04</time>
      </trkpt>
      <trkpt lat="42.29835" lon="3.13346">
        <ele>14</ele>
        <time>2022-05-21 09:38:05</time>
      </trkpt>
      <trkpt lat="42.29837" lon="3.1335">
        <ele>14.2</ele>
        <time>2022-05-21 09:38:06</time>
      </trkpt>
      <trkpt lat="42.29841" lon="3.13356">
        <ele>14.2</ele>
        <time>2022-05-21 09:38:07</time>
      </trkpt>
      <trkpt lat="42.29843" lon="3.1336">
        <ele>14.4</ele>
        <time>2022-05-21 09:38:08</time>
      </trkpt>
      <trkpt lat="42.29847" lon="3.13367">
        <ele>14.6</ele>
        <time>2022-05-21 09:38:09</time>
      </trkpt>
      <trkpt lat="42.29849" lon="3.13371">
        <ele>14.6</ele>
        <time>2022-05-21 09:38:10</time>
      </trkpt>
      <trkpt lat="42.29853" lon="3.13377">
        <ele>14.6</ele>
        <time>2022-05-21 09:38:11</time>
      </trkpt>
      <trkpt lat="42.29855" lon="3.13382">
        <ele>14.8</ele>
        <time>2022-05-21 09:38:12</time>
      </trkpt>
      <trkpt lat="42.29859" lon="3.13388">
        <ele>15</ele>
        <time>2022-05-21 09:38:13</time>
      </trkpt>
      <trkpt lat="42.29861" lon="3.13393">
        <ele>15</ele>
        <time>2022-05-21 09:38:14</time>
      </trkpt>
      <trkpt lat="42.29865" lon="3.13399">
        <ele>15.2</ele>
        <time>2022-05-21 09:38:15</time>
      </trkpt>
      <trkpt lat="42.29868" lon="3.13403">
        <ele>15.2</ele>
        <time>2022-05-21 09:38:16</time>
      </trkpt>
      <trkpt lat="42.29871" lon="3.13409">
        <ele>15.4</ele>
        <time>2022-05-21 09:38:17</time>
      </trkpt>
      <trkpt lat="42.29874" lon="3.13414">
        <ele>15.4</ele>
        <time>2022-05-21 09:38:18</time>
      </trkpt>
      <trkpt lat="42.29877" lon="3.1342">
        <ele>15.6</ele>
        <time>2022-05-21 09:38:19</time>
      </trkpt>
      <trkpt lat="42.2988" lon="3.13424">
        <ele>15.8</ele>
        <time>2022-05-21 09:38:20</time>
      </trkpt>
      <trkpt lat="42.29883" lon="3.13431">
        <ele>15.8</ele>
        <time>2022-05-21 09:38:21</time>
      </trkpt>
      <trkpt lat="42.29886" lon="3.13435">
        <ele>16</ele>
        <time>2022-05-21 09:38:22</time>
      </trkpt>
      <trkpt lat="42.29889" lon="3.13441">
        <ele>16.2</ele>
        <time>2022-05-21 09:38:23</time>
      </trkpt>
      <trkpt lat="42.29891" lon="3.13446">
        <ele>16.2</ele>
        <time>2022-05-21 09:38:24</time>
      </trkpt>
      <trkpt lat="42.29895" lon="3.13452">
        <ele>16.4</ele>
        <time>2022-05-21 09:38:25</time>
      </trkpt>
      <trkpt lat="42.29898" lon="3.13456">
        <ele>16.6</ele>
        <time>2022-05-21 09:38:26</time>
      </trkpt>
      <trkpt lat="42.29901" lon="3.13463">
        <ele>16.6</ele>
        <time>2022-05-21 09:38:27</time>
      </trkpt>
      <trkpt lat="42.29903" lon="3.13467">
        <ele>16.8</ele>
        <time>2022-05-21 09:38:28</time>
      </trkpt>
      <trkpt lat="42.29907" lon="3.13474">
        <ele>17</ele>
        <time>2022-05-21 09:38:29</time>
      </trkpt>
      <trkpt lat="42.2991" lon="3.13479">
        <ele>17</ele>
        <time>2022-05-21 09:38:30</time>
      </trkpt>
      <trkpt lat="42.29913" lon="3.13485">
        <ele>17.2</ele>
        <time>2022-05-21 09:38:31</time>
      </trkpt>
      <trkpt lat="42.29915" lon="3.13489">
        <ele>17.2</ele>
        <time>2022-05-21 09:38:32</time>
      </trkpt>
      <trkpt lat="42.29919" lon="3.13495">
        <ele>17.4</ele>
        <time>2022-05-21 09:38:33</time>
      </trkpt>
      <trkpt lat="42.29921" lon="3.13499">
        <ele>17.6</ele>
        <time>2022-05-21 09:38:34</time>
      </trkpt>
      <trkpt lat="42.29925" lon="3.13506">
        <ele>17.8</ele>
        <time>2022-05-21 09:38:35</time>
      </trkpt>
      <trkpt lat="42.29928" lon="3.1351">
        <ele>17.8</ele>
        <time>2022-05-21 09:38:36</time>
      </trkpt>
      <trkpt lat="42.29931" lon="3.13516">
        <ele>18</ele>
        <time>2022-05-21 09:38:37</time>
      </trkpt>
      <trkpt lat="42.29933" lon="3.1352">
        <ele>18.2</ele>
        <time>2022-05-21 09:38:38</time>
      </trkpt>
      <trkpt lat="42.29937" lon="3.13526">
        <ele>18.4</ele>
        <time>2022-05-21 09:38:39</time>
      </trkpt>
      <trkpt lat="42.29939" lon="3.1353">
        <ele>18.4</ele>
        <time>2022-05-21 09:38:40</time>
      </trkpt>
      <trkpt lat="42.29942" lon="3.13536">
        <ele>18.6</ele>
        <time>2022-05-21 09:38:41</time>
      </trkpt>
      <trkpt lat="42.29945" lon="3.1354">
        <ele>18.8</ele>
        <time>2022-05-21 09:38:42</time>
      </trkpt>
      <trkpt lat="42.29948" lon="3.13546">
        <ele>19</ele>
        <time>2022-05-21 09:38:43</time>
      </trkpt>
      <trkpt lat="42.29951" lon="3.1355">
        <ele>19</ele>
        <time>2022-05-21 09:38:44</time>
      </trkpt>
      <trkpt lat="42.29954" lon="3.13556">
        <ele>19.2</ele>
        <time>2022-05-21 09:38:45</time>
      </trkpt>
      <trkpt lat="42.29956" lon="3.1356">
        <ele>19.4</ele>
        <time>2022-05-21 09:38:46</time>
      </trkpt>
      <trkpt lat="42.2996" lon="3.13566">
        <ele>19.4</ele>
        <time>2022-05-21 09:38:47</time>
      </trkpt>
      <trkpt lat="42.29962" lon="3.13569">
        <ele>19.6</ele>
        <time>2022-05-21 09:38:48</time>
      </trkpt>
      <trkpt lat="42.29965" lon="3.13575">
        <ele>19.8</ele>
        <time>2022-05-21 09:38:49</time>
      </trkpt>
      <trkpt lat="42.29968" lon="3.1358">
        <ele>19.8</ele>
        <time>2022-05-21 09:38:50</time>
      </trkpt>
      <trkpt lat="42.2997" lon="3.13583">
        <ele>20</ele>
        <time>2022-05-21 09:38:51</time>
      </trkpt>
      <trkpt lat="42.29973" lon="3.13589">
        <ele>20</ele>
        <time>2022-05-21 09:38:52</time>
      </trkpt>
      <trkpt lat="42.29976" lon="3.13593">
        <ele>20.2</ele>
        <time>2022-05-21 09:38:53</time>
      </trkpt>
      <trkpt lat="42.29979" lon="3.13599">
        <ele>20.4</ele>
        <time>2022-05-21 09:38:54</time>
      </trkpt>
      <trkpt lat="42.29981" lon="3.13603">
        <ele>20.4</ele>
        <time>2022-05-21 09:38:55</time>
      </trkpt>
      <trkpt lat="42.29985" lon="3.13609">
        <ele>20.6</ele>
        <time>2022-05-21 09:38:56</time>
      </trkpt>
      <trkpt lat="42.29988" lon="3.13614">
        <ele>20.8</ele>
        <time>2022-05-21 09:38:57</time>
      </trkpt>
      <trkpt lat="42.29991" lon="3.13619">
        <ele>20.8</ele>
        <time>2022-05-21 09:38:58</time>
      </trkpt>
      <trkpt lat="42.29993" lon="3.13623">
        <ele>21</ele>
        <time>2022-05-21 09:38:59</time>
      </trkpt>
      <trkpt lat="42.29996" lon="3.13629">
        <ele>21.2</ele>
        <time>2022-05-21 09:39:00</time>
      </trkpt>
      <trkpt lat="42.29999" lon="3.13634">
        <ele>21.4</ele>
        <time>2022-05-21 09:39:01</time>
      </trkpt>
      <trkpt lat="42.30002" lon="3.13638">
        <ele>21.4</ele>
        <time>2022-05-21 09:39:02</time>
      </trkpt>
      <trkpt lat="42.30005" lon="3.13643">
        <ele>21.6</ele>
        <time>2022-05-21 09:39:03</time>
      </trkpt>
      <trkpt lat="42.30007" lon="3.13648">
        <ele>21.8</ele>
        <time>2022-05-21 09:39:04</time>
      </trkpt>
      <trkpt lat="42.30009" lon="3.13651">
        <ele>21.8</ele>
        <time>2022-05-21 09:39:05</time>
      </trkpt>
      <trkpt lat="42.30013" lon="3.13657">
        <ele>22</ele>
        <time>2022-05-21 09:39:06</time>
      </trkpt>
      <trkpt lat="42.30015" lon="3.13662">
        <ele>22.2</ele>
        <time>2022-05-21 09:39:07</time>
      </trkpt>
      <trkpt lat="42.30017" lon="3.13666">
        <ele>22.4</ele>
        <time>2022-05-21 09:39:08</time>
      </trkpt>
      <trkpt lat="42.30021" lon="3.13671">
        <ele>22.4</ele>
        <time>2022-05-21 09:39:09</time>
      </trkpt>
      <trkpt lat="42.30023" lon="3.13676">
        <ele>22.6</ele>
        <time>2022-05-21 09:39:10</time>
      </trkpt>
      <trkpt lat="42.30025" lon="3.13679">
        <ele>22.6</ele>
        <time>2022-05-21 09:39:11</time>
      </trkpt>
      <trkpt lat="42.30029" lon="3.13685">
        <ele>22.8</ele>
        <time>2022-05-21 09:39:12</time>
      </trkpt>
      <trkpt lat="42.30031" lon="3.1369">
        <ele>23</ele>
        <time>2022-05-21 09:39:13</time>
      </trkpt>
      <trkpt lat="42.30033" lon="3.13694">
        <ele>23.2</ele>
        <time>2022-05-21 09:39:14</time>
      </trkpt>
      <trkpt lat="42.30036" lon="3.13699">
        <ele>23.4</ele>
        <time>2022-05-21 09:39:15</time>
      </trkpt>
      <trkpt lat="42.30039" lon="3.13704">
        <ele>23.6</ele>
        <time>2022-05-21 09:39:16</time>
      </trkpt>
      <trkpt lat="42.30041" lon="3.13708">
        <ele>23.8</ele>
        <time>2022-05-21 09:39:17</time>
      </trkpt>
      <trkpt lat="42.30044" lon="3.13713">
        <ele>24</ele>
        <time>2022-05-21 09:39:18</time>
      </trkpt>
      <trkpt lat="42.30046" lon="3.13717">
        <ele>24.2</ele>
        <time>2022-05-21 09:39:19</time>
      </trkpt>
      <trkpt lat="42.30048" lon="3.1372">
        <ele>24.4</ele>
        <time>2022-05-21 09:39:20</time>
      </trkpt>
      <trkpt lat="42.30051" lon="3.13726">
        <ele>24.6</ele>
        <time>2022-05-21 09:39:21</time>
      </trkpt>
      <trkpt lat="42.30053" lon="3.13731">
        <ele>24.8</ele>
        <time>2022-05-21 09:39:22</time>
      </trkpt>
      <trkpt lat="42.30054" lon="3.13735">
        <ele>25.2</ele>
        <time>2022-05-21 09:39:23</time>
      </trkpt>
      <trkpt lat="42.30056" lon="3.1374">
        <ele>25.4</ele>
        <time>2022-05-21 09:39:24</time>
      </trkpt>
      <trkpt lat="42.30057" lon="3.13745">
        <ele>25.8</ele>
        <time>2022-05-21 09:39:25</time>
      </trkpt>
      <trkpt lat="42.30058" lon="3.13749">
        <ele>26</ele>
        <time>2022-05-21 09:39:26</time>
      </trkpt>
      <trkpt lat="42.30058" lon="3.13754">
        <ele>26.2</ele>
        <time>2022-05-21 09:39:27</time>
      </trkpt>
      <trkpt lat="42.30059" lon="3.13758">
        <ele>26.6</ele>
        <time>2022-05-21 09:39:28</time>
      </trkpt>
      <trkpt lat="42.30059" lon="3.13763">
        <ele>26.8</ele>
        <time>2022-05-21 09:39:29</time>
      </trkpt>
      <trkpt lat="42.30059" lon="3.13767">
        <ele>27</ele>
        <time>2022-05-21 09:39:30</time>
      </trkpt>
      <trkpt lat="42.30058" lon="3.13772">
        <ele>27.4</ele>
        <time>2022-05-21 09:39:31</time>
      </trkpt>
      <trkpt lat="42.30057" lon="3.13776">
        <ele>27.6</ele>
        <time>2022-05-21 09:39:32</time>
      </trkpt>
      <trkpt lat="42.30057" lon="3.1378">
        <ele>27.8</ele>
        <time>2022-05-21 09:39:33</time>
      </trkpt>
      <trkpt lat="42.30057" lon="3.13784">
        <ele>28</ele>
        <time>2022-05-21 09:39:34</time>
      </trkpt>
      <trkpt lat="42.30058" lon="3.13788">
        <ele>28.2</ele>
        <time>2022-05-21 09:39:35</time>
      </trkpt>
      <trkpt lat="42.3006" lon="3.13792">
        <ele>28.2</ele>
        <time>2022-05-21 09:39:36</time>
      </trkpt>
      <trkpt lat="42.30064" lon="3.13795">
        <ele>28.2</ele>
        <time>2022-05-21 09:39:37</time>
      </trkpt>
      <trkpt lat="42.30068" lon="3.13796">
        <ele>28.2</ele>
        <time>2022-05-21 09:39:38</time>
      </trkpt>
      <trkpt lat="42.30073" lon="3.13798">
        <ele>28.4</ele>
        <time>2022-05-21 09:39:39</time>
      </trkpt>
      <trkpt lat="42.30078" lon="3.138">
        <ele>28.4</ele>
        <time>2022-05-21 09:39:40</time>
      </trkpt>
      <trkpt lat="42.30083" lon="3.13803">
        <ele>28.4</ele>
        <time>2022-05-21 09:39:41</time>
      </trkpt>
      <trkpt lat="42.30087" lon="3.13806">
        <ele>28.4</ele>
        <time>2022-05-21 09:39:42</time>
      </trkpt>
      <trkpt lat="42.30092" lon="3.13809">
        <ele>28.6</ele>
        <time>2022-05-21 09:39:43</time>
      </trkpt>
      <trkpt lat="42.30096" lon="3.13812">
        <ele>28.6</ele>
        <time>2022-05-21 09:39:44</time>
      </trkpt>
      <trkpt lat="42.301" lon="3.13816">
        <ele>28.6</ele>
        <time>2022-05-21 09:39:45</time>
      </trkpt>
      <trkpt lat="42.30104" lon="3.1382">
        <ele>28.6</ele>
        <time>2022-05-21 09:39:46</time>
      </trkpt>
      <trkpt lat="42.30108" lon="3.13824">
        <ele>28.8</ele>
        <time>2022-05-21 09:39:47</time>
      </trkpt>
      <trkpt lat="42.30112" lon="3.13829">
        <ele>28.8</ele>
        <time>2022-05-21 09:39:48</time>
      </trkpt>
      <trkpt lat="42.30116" lon="3.13833">
        <ele>29</ele>
        <time>2022-05-21 09:39:49</time>
      </trkpt>
      <trkpt lat="42.3012" lon="3.13837">
        <ele>29</ele>
        <time>2022-05-21 09:39:50</time>
      </trkpt>
      <trkpt lat="42.30124" lon="3.13841">
        <ele>29</ele>
        <time>2022-05-21 09:39:51</time>
      </trkpt>
      <trkpt lat="42.30127" lon="3.13845">
        <ele>29.2</ele>
        <time>2022-05-21 09:39:52</time>
      </trkpt>
      <trkpt lat="42.30131" lon="3.13849">
        <ele>29.2</ele>
        <time>2022-05-21 09:39:53</time>
      </trkpt>
      <trkpt lat="42.30136" lon="3.13853">
        <ele>29.4</ele>
        <time>2022-05-21 09:39:54</time>
      </trkpt>
      <trkpt lat="42.3014" lon="3.13856">
        <ele>29.6</ele>
        <time>2022-05-21 09:39:55</time>
      </trkpt>
      <trkpt lat="42.30144" lon="3.13859">
        <ele>29.6</ele>
        <time>2022-05-21 09:39:56</time>
      </trkpt>
      <trkpt lat="42.30149" lon="3.13862">
        <ele>29.6</ele>
        <time>2022-05-21 09:39:57</time>
      </trkpt>
      <trkpt lat="42.30154" lon="3.13865">
        <ele>29.8</ele>
        <time>2022-05-21 09:39:58</time>
      </trkpt>
      <trkpt lat="42.30158" lon="3.13867">
        <ele>29.8</ele>
        <time>2022-05-21 09:39:59</time>
      </trkpt>
      <trkpt lat="42.30163" lon="3.13869">
        <ele>29.8</ele>
        <time>2022-05-21 09:40:00</time>
      </trkpt>
      <trkpt lat="42.30168" lon="3.13871">
        <ele>30</ele>
        <time>2022-05-21 09:40:01</time>
      </trkpt>
      <trkpt lat="42.30173" lon="3.13873">
        <ele>30</ele>
        <time>2022-05-21 09:40:02</time>
      </trkpt>
      <trkpt lat="42.30178" lon="3.13876">
        <ele>30</ele>
        <time>2022-05-21 09:40:03</time>
      </trkpt>
      <trkpt lat="42.30183" lon="3.13877">
        <ele>30</ele>
        <time>2022-05-21 09:40:04</time>
      </trkpt>
      <trkpt lat="42.30188" lon="3.13879">
        <ele>30</ele>
        <time>2022-05-21 09:40:05</time>
      </trkpt>
      <trkpt lat="42.30193" lon="3.13881">
        <ele>30.2</ele>
        <time>2022-05-21 09:40:06</time>
      </trkpt>
      <trkpt lat="42.30199" lon="3.13882">
        <ele>30.2</ele>
        <time>2022-05-21 09:40:07</time>
      </trkpt>
      <trkpt lat="42.30204" lon="3.13884">
        <ele>30.2</ele>
        <time>2022-05-21 09:40:08</time>
      </trkpt>
      <trkpt lat="42.30209" lon="3.13885">
        <ele>30.4</ele>
        <time>2022-05-21 09:40:09</time>
      </trkpt>
      <trkpt lat="42.30214" lon="3.13886">
        <ele>30.4</ele>
        <time>2022-05-21 09:40:10</time>
      </trkpt>
      <trkpt lat="42.30219" lon="3.13887">
        <ele>30.4</ele>
        <time>2022-05-21 09:40:11</time>
      </trkpt>
      <trkpt lat="42.30224" lon="3.13888">
        <ele>30.4</ele>
        <time>2022-05-21 09:40:12</time>
      </trkpt>
      <trkpt lat="42.30229" lon="3.1389">
        <ele>30.6</ele>
        <time>2022-05-21 09:40:13</time>
      </trkpt>
      <trkpt lat="42.30234" lon="3.1389">
        <ele>30.6</ele>
        <time>2022-05-21 09:40:14</time>
      </trkpt>
      <trkpt lat="42.3024" lon="3.13891">
        <ele>30.6</ele>
        <time>2022-05-21 09:40:15</time>
      </trkpt>
      <trkpt lat="42.30245" lon="3.13891">
        <ele>30.8</ele>
        <time>2022-05-21 09:40:16</time>
      </trkpt>
      <trkpt lat="42.3025" lon="3.13892">
        <ele>30.8</ele>
        <time>2022-05-21 09:40:17</time>
      </trkpt>
      <trkpt lat="42.30256" lon="3.13893">
        <ele>30.8</ele>
        <time>2022-05-21 09:40:18</time>
      </trkpt>
      <trkpt lat="42.30261" lon="3.13894">
        <ele>30.8</ele>
        <time>2022-05-21 09:40:19</time>
      </trkpt>
      <trkpt lat="42.30267" lon="3.13895">
        <ele>30.8</ele>
        <time>2022-05-21 09:40:20</time>
      </trkpt>
      <trkpt lat="42.30272" lon="3.13896">
        <ele>31</ele>
        <time>2022-05-21 09:40:21</time>
      </trkpt>
      <trkpt lat="42.30277" lon="3.13897">
        <ele>31</ele>
        <time>2022-05-21 09:40:22</time>
      </trkpt>
      <trkpt lat="42.30283" lon="3.13899">
        <ele>31.2</ele>
        <time>2022-05-21 09:40:23</time>
      </trkpt>
      <trkpt lat="42.30287" lon="3.13902">
        <ele>31.2</ele>
        <time>2022-05-21 09:40:24</time>
      </trkpt>
      <trkpt lat="42.30292" lon="3.13906">
        <ele>31.4</ele>
        <time>2022-05-21 09:40:25</time>
      </trkpt>
      <trkpt lat="42.30297" lon="3.1391">
        <ele>31.4</ele>
        <time>2022-05-21 09:40:26</time>
      </trkpt>
      <trkpt lat="42.30301" lon="3.13914">
        <ele>31.6</ele>
        <time>2022-05-21 09:40:27</time>
      </trkpt>
      <trkpt lat="42.30304" lon="3.13918">
        <ele>31.8</ele>
        <time>2022-05-21 09:40:28</time>
      </trkpt>
      <trkpt lat="42.30308" lon="3.13923">
        <ele>32</ele>
        <time>2022-05-21 09:40:29</time>
      </trkpt>
      <trkpt lat="42.30311" lon="3.13927">
        <ele>32</ele>
        <time>2022-05-21 09:40:30</time>
      </trkpt>
      <trkpt lat="42.30314" lon="3.13932">
        <ele>32.2</ele>
        <time>2022-05-21 09:40:31</time>
      </trkpt>
      <trkpt lat="42.30316" lon="3.13938">
        <ele>32.4</ele>
        <time>2022-05-21 09:40:32</time>
      </trkpt>
      <trkpt lat="42.30319" lon="3.13943">
        <ele>32.6</ele>
        <time>2022-05-21 09:40:33</time>
      </trkpt>
      <trkpt lat="42.30322" lon="3.13949">
        <ele>32.8</ele>
        <time>2022-05-21 09:40:34</time>
      </trkpt>
      <trkpt lat="42.30325" lon="3.13954">
        <ele>32.8</ele>
        <time>2022-05-21 09:40:35</time>
      </trkpt>
      <trkpt lat="42.30327" lon="3.13959">
        <ele>33</ele>
        <time>2022-05-21 09:40:36</time>
      </trkpt>
      <trkpt lat="42.3033" lon="3.13964">
        <ele>33.2</ele>
        <time>2022-05-21 09:40:37</time>
      </trkpt>
      <trkpt lat="42.30332" lon="3.13969">
        <ele>33.4</ele>
        <time>2022-05-21 09:40:38</time>
      </trkpt>
      <trkpt lat="42.30335" lon="3.13975">
        <ele>33.4</ele>
        <time>2022-05-21 09:40:39</time>
      </trkpt>
      <trkpt lat="42.30337" lon="3.1398">
        <ele>33.6</ele>
        <time>2022-05-21 09:40:40</time>
      </trkpt>
      <trkpt lat="42.30339" lon="3.13985">
        <ele>33.8</ele>
        <time>2022-05-21 09:40:41</time>
      </trkpt>
      <trkpt lat="42.30342" lon="3.1399">
        <ele>34</ele>
        <time>2022-05-21 09:40:42</time>
      </trkpt>
      <trkpt lat="42.30345" lon="3.13994">
        <ele>34</ele>
        <time>2022-05-21 09:40:43</time>
      </trkpt>
      <trkpt lat="42.30348" lon="3.13999">
        <ele>34.2</ele>
        <time>2022-05-21 09:40:44</time>
      </trkpt>
      <trkpt lat="42.3035" lon="3.14005">
        <ele>34.4</ele>
        <time>2022-05-21 09:40:45</time>
      </trkpt>
      <trkpt lat="42.30353" lon="3.14009">
        <ele>34.4</ele>
        <time>2022-05-21 09:40:46</time>
      </trkpt>
      <trkpt lat="42.30356" lon="3.14014">
        <ele>34.6</ele>
        <time>2022-05-21 09:40:47</time>
      </trkpt>
      <trkpt lat="42.30359" lon="3.1402">
        <ele>34.8</ele>
        <time>2022-05-21 09:40:48</time>
      </trkpt>
      <trkpt lat="42.30361" lon="3.14024">
        <ele>34.8</ele>
        <time>2022-05-21 09:40:49</time>
      </trkpt>
      <trkpt lat="42.30364" lon="3.14029">
        <ele>35</ele>
        <time>2022-05-21 09:40:50</time>
      </trkpt>
      <trkpt lat="42.30367" lon="3.14035">
        <ele>35.2</ele>
        <time>2022-05-21 09:40:51</time>
      </trkpt>
      <trkpt lat="42.3037" lon="3.1404">
        <ele>35.2</ele>
        <time>2022-05-21 09:40:52</time>
      </trkpt>
      <trkpt lat="42.30372" lon="3.14045">
        <ele>35.4</ele>
        <time>2022-05-21 09:40:53</time>
      </trkpt>
      <trkpt lat="42.30375" lon="3.1405">
        <ele>35.4</ele>
        <time>2022-05-21 09:40:54</time>
      </trkpt>
      <trkpt lat="42.30378" lon="3.14055">
        <ele>35.6</ele>
        <time>2022-05-21 09:40:55</time>
      </trkpt>
      <trkpt lat="42.30381" lon="3.1406">
        <ele>35.8</ele>
        <time>2022-05-21 09:40:56</time>
      </trkpt>
      <trkpt lat="42.30384" lon="3.14065">
        <ele>35.8</ele>
        <time>2022-05-21 09:40:57</time>
      </trkpt>
      <trkpt lat="42.30386" lon="3.1407">
        <ele>36</ele>
        <time>2022-05-21 09:40:58</time>
      </trkpt>
      <trkpt lat="42.3039" lon="3.14075">
        <ele>36.2</ele>
        <time>2022-05-21 09:40:59</time>
      </trkpt>
      <trkpt lat="42.30392" lon="3.14079">
        <ele>36.4</ele>
        <time>2022-05-21 09:41:00</time>
      </trkpt>
      <trkpt lat="42.30395" lon="3.14085">
        <ele>36.4</ele>
        <time>2022-05-21 09:41:01</time>
      </trkpt>
      <trkpt lat="42.30397" lon="3.1409">
        <ele>36.6</ele>
        <time>2022-05-21 09:41:02</time>
      </trkpt>
      <trkpt lat="42.304" lon="3.14095">
        <ele>36.8</ele>
        <time>2022-05-21 09:41:03</time>
      </trkpt>
      <trkpt lat="42.30404" lon="3.14101">
        <ele>36.8</ele>
        <time>2022-05-21 09:41:04</time>
      </trkpt>
      <trkpt lat="42.30407" lon="3.14105">
        <ele>37</ele>
        <time>2022-05-21 09:41:05</time>
      </trkpt>
      <trkpt lat="42.3041" lon="3.1411">
        <ele>37.2</ele>
        <time>2022-05-21 09:41:06</time>
      </trkpt>
      <trkpt lat="42.30413" lon="3.14115">
        <ele>37.4</ele>
        <time>2022-05-21 09:41:07</time>
      </trkpt>
      <trkpt lat="42.30416" lon="3.14119">
        <ele>37.4</ele>
        <time>2022-05-21 09:41:08</time>
      </trkpt>
      <trkpt lat="42.30419" lon="3.14124">
        <ele>37.6</ele>
        <time>2022-05-21 09:41:09</time>
      </trkpt>
      <trkpt lat="42.30422" lon="3.14128">
        <ele>37.8</ele>
        <time>2022-05-21 09:41:10</time>
      </trkpt>
      <trkpt lat="42.30425" lon="3.14133">
        <ele>38</ele>
        <time>2022-05-21 09:41:11</time>
      </trkpt>
      <trkpt lat="42.30427" lon="3.14137">
        <ele>38.2</ele>
        <time>2022-05-21 09:41:12</time>
      </trkpt>
      <trkpt lat="42.3043" lon="3.14142">
        <ele>38.4</ele>
        <time>2022-05-21 09:41:13</time>
      </trkpt>
      <trkpt lat="42.30433" lon="3.14146">
        <ele>38.6</ele>
        <time>2022-05-21 09:41:14</time>
      </trkpt>
      <trkpt lat="42.30436" lon="3.1415">
        <ele>38.8</ele>
        <time>2022-05-21 09:41:15</time>
      </trkpt>
      <trkpt lat="42.30439" lon="3.14154">
        <ele>39</ele>
        <time>2022-05-21 09:41:16</time>
      </trkpt>
      <trkpt lat="42.30441" lon="3.14158">
        <ele>39</ele>
        <time>2022-05-21 09:41:17</time>
      </trkpt>
      <trkpt lat="42.30444" lon="3.14163">
        <ele>39.2</ele>
        <time>2022-05-21 09:41:18</time>
      </trkpt>
      <trkpt lat="42.30447" lon="3.14167">
        <ele>39.4</ele>
        <time>2022-05-21 09:41:19</time>
      </trkpt>
      <trkpt lat="42.30449" lon="3.14171">
        <ele>39.6</ele>
        <time>2022-05-21 09:41:20</time>
      </trkpt>
      <trkpt lat="42.30452" lon="3.14175">
        <ele>39.8</ele>
        <time>2022-05-21 09:41:21</time>
      </trkpt>
      <trkpt lat="42.30455" lon="3.14179">
        <ele>40</ele>
        <time>2022-05-21 09:41:22</time>
      </trkpt>
      <trkpt lat="42.30457" lon="3.14183">
        <ele>40.2</ele>
        <time>2022-05-21 09:41:23</time>
      </trkpt>
      <trkpt lat="42.3046" lon="3.14188">
        <ele>40.2</ele>
        <time>2022-05-21 09:41:24</time>
      </trkpt>
      <trkpt lat="42.30462" lon="3.14192">
        <ele>40.4</ele>
        <time>2022-05-21 09:41:25</time>
      </trkpt>
      <trkpt lat="42.30465" lon="3.14196">
        <ele>40.6</ele>
        <time>2022-05-21 09:41:26</time>
      </trkpt>
      <trkpt lat="42.30467" lon="3.142">
        <ele>40.8</ele>
        <time>2022-05-21 09:41:27</time>
      </trkpt>
      <trkpt lat="42.3047" lon="3.14204">
        <ele>41</ele>
        <time>2022-05-21 09:41:28</time>
      </trkpt>
      <trkpt lat="42.30473" lon="3.14208">
        <ele>41</ele>
        <time>2022-05-21 09:41:29</time>
      </trkpt>
      <trkpt lat="42.30476" lon="3.14212">
        <ele>41.2</ele>
        <time>2022-05-21 09:41:30</time>
      </trkpt>
      <trkpt lat="42.30478" lon="3.14217">
        <ele>41.4</ele>
        <time>2022-05-21 09:41:31</time>
      </trkpt>
      <trkpt lat="42.30481" lon="3.14221">
        <ele>41.6</ele>
        <time>2022-05-21 09:41:32</time>
      </trkpt>
      <trkpt lat="42.30483" lon="3.14225">
        <ele>41.6</ele>
        <time>2022-05-21 09:41:33</time>
      </trkpt>
      <trkpt lat="42.30486" lon="3.14229">
        <ele>41.8</ele>
        <time>2022-05-21 09:41:34</time>
      </trkpt>
      <trkpt lat="42.30489" lon="3.14233">
        <ele>42</ele>
        <time>2022-05-21 09:41:35</time>
      </trkpt>
      <trkpt lat="42.30492" lon="3.14237">
        <ele>42.2</ele>
        <time>2022-05-21 09:41:36</time>
      </trkpt>
      <trkpt lat="42.30494" lon="3.14241">
        <ele>42.4</ele>
        <time>2022-05-21 09:41:37</time>
      </trkpt>
      <trkpt lat="42.30497" lon="3.14245">
        <ele>42.6</ele>
        <time>2022-05-21 09:41:38</time>
      </trkpt>
      <trkpt lat="42.305" lon="3.14248">
        <ele>42.8</ele>
        <time>2022-05-21 09:41:39</time>
      </trkpt>
      <trkpt lat="42.30503" lon="3.14253">
        <ele>42.8</ele>
        <time>2022-05-21 09:41:40</time>
      </trkpt>
      <trkpt lat="42.30506" lon="3.14257">
        <ele>43</ele>
        <time>2022-05-21 09:41:41</time>
      </trkpt>
      <trkpt lat="42.30509" lon="3.14261">
        <ele>43.2</ele>
        <time>2022-05-21 09:41:42</time>
      </trkpt>
      <trkpt lat="42.30512" lon="3.14264">
        <ele>43.4</ele>
        <time>2022-05-21 09:41:43</time>
      </trkpt>
      <trkpt lat="42.30516" lon="3.14268">
        <ele>43.4</ele>
        <time>2022-05-21 09:41:44</time>
      </trkpt>
      <trkpt lat="42.30519" lon="3.14271">
        <ele>43.6</ele>
        <time>2022-05-21 09:41:45</time>
      </trkpt>
      <trkpt lat="42.30522" lon="3.14274">
        <ele>43.8</ele>
        <time>2022-05-21 09:41:46</time>
      </trkpt>
      <trkpt lat="42.30525" lon="3.14278">
        <ele>44</ele>
        <time>2022-05-21 09:41:47</time>
      </trkpt>
      <trkpt lat="42.30528" lon="3.1428">
        <ele>44.2</ele>
        <time>2022-05-21 09:41:48</time>
      </trkpt>
      <trkpt lat="42.30531" lon="3.14284">
        <ele>44.4</ele>
        <time>2022-05-21 09:41:49</time>
      </trkpt>
      <trkpt lat="42.30534" lon="3.14286">
        <ele>44.6</ele>
        <time>2022-05-21 09:41:50</time>
      </trkpt>
      <trkpt lat="42.30537" lon="3.14289">
        <ele>44.8</ele>
        <time>2022-05-21 09:41:51</time>
      </trkpt>
      <trkpt lat="42.3054" lon="3.14292">
        <ele>45</ele>
        <time>2022-05-21 09:41:52</time>
      </trkpt>
      <trkpt lat="42.30543" lon="3.14294">
        <ele>45.2</ele>
        <time>2022-05-21 09:41:53</time>
      </trkpt>
      <trkpt lat="42.30546" lon="3.14297">
        <ele>45.4</ele>
        <time>2022-05-21 09:41:54</time>
      </trkpt>
      <trkpt lat="42.30548" lon="3.14299">
        <ele>45.6</ele>
        <time>2022-05-21 09:41:55</time>
      </trkpt>
      <trkpt lat="42.30551" lon="3.14302">
        <ele>45.8</ele>
        <time>2022-05-21 09:41:56</time>
      </trkpt>
      <trkpt lat="42.30554" lon="3.14304">
        <ele>46</ele>
        <time>2022-05-21 09:41:57</time>
      </trkpt>
      <trkpt lat="42.30557" lon="3.14307">
        <ele>46.2</ele>
        <time>2022-05-21 09:41:58</time>
      </trkpt>
      <trkpt lat="42.3056" lon="3.14309">
        <ele>46.4</ele>
        <time>2022-05-21 09:41:59</time>
      </trkpt>
      <trkpt lat="42.30563" lon="3.14311">
        <ele>46.6</ele>
        <time>2022-05-21 09:42:00</time>
      </trkpt>
      <trkpt lat="42.30565" lon="3.14314">
        <ele>46.8</ele>
        <time>2022-05-21 09:42:01</time>
      </trkpt>
      <trkpt lat="42.30568" lon="3.14316">
        <ele>47.2</ele>
        <time>2022-05-21 09:42:02</time>
      </trkpt>
      <trkpt lat="42.30571" lon="3.14318">
        <ele>47.4</ele>
        <time>2022-05-21 09:42:03</time>
      </trkpt>
      <trkpt lat="42.30573" lon="3.1432">
        <ele>47.6</ele>
        <time>2022-05-21 09:42:04</time>
      </trkpt>
      <trkpt lat="42.30576" lon="3.14322">
        <ele>47.8</ele>
        <time>2022-05-21 09:42:05</time>
      </trkpt>
      <trkpt lat="42.30578" lon="3.14325">
        <ele>48</ele>
        <time>2022-05-21 09:42:06</time>
      </trkpt>
      <trkpt lat="42.30581" lon="3.14327">
        <ele>48.4</ele>
        <time>2022-05-21 09:42:07</time>
      </trkpt>
      <trkpt lat="42.30583" lon="3.14329">
        <ele>48.6</ele>
        <time>2022-05-21 09:42:08</time>
      </trkpt>
      <trkpt lat="42.30586" lon="3.14331">
        <ele>48.8</ele>
        <time>2022-05-21 09:42:09</time>
      </trkpt>
      <trkpt lat="42.30588" lon="3.14332">
        <ele>49</ele>
        <time>2022-05-21 09:42:10</time>
      </trkpt>
      <trkpt lat="42.3059" lon="3.14334">
        <ele>49.4</ele>
        <time>2022-05-21 09:42:11</time>
      </trkpt>
      <trkpt lat="42.30592" lon="3.14336">
        <ele>49.6</ele>
        <time>2022-05-21 09:42:12</time>
      </trkpt>
      <trkpt lat="42.30595" lon="3.14338">
        <ele>49.8</ele>
        <time>2022-05-21 09:42:13</time>
      </trkpt>
      <trkpt lat="42.30597" lon="3.1434">
        <ele>50</ele>
        <time>2022-05-21 09:42:14</time>
      </trkpt>
      <trkpt lat="42.30599" lon="3.14342">
        <ele>50.4</ele>
        <time>2022-05-21 09:42:15</time>
      </trkpt>
      <trkpt lat="42.30602" lon="3.14345">
        <ele>50.6</ele>
        <time>2022-05-21 09:42:16</time>
      </trkpt>
      <trkpt lat="42.30604" lon="3.14348">
        <ele>50.8</ele>
        <time>2022-05-21 09:42:17</time>
      </trkpt>
      <trkpt lat="42.30605" lon="3.14352">
        <ele>51</ele>
        <time>2022-05-21 09:42:18</time>
      </trkpt>
      <trkpt lat="42.30606" lon="3.14355">
        <ele>51.2</ele>
        <time>2022-05-21 09:42:19</time>
      </trkpt>
      <trkpt lat="42.30606" lon="3.1436">
        <ele>51.4</ele>
        <time>2022-05-21 09:42:20</time>
      </trkpt>
      <trkpt lat="42.30606" lon="3.14365">
        <ele>51.6</ele>
        <time>2022-05-21 09:42:21</time>
      </trkpt>
      <trkpt lat="42.30606" lon="3.14369">
        <ele>51.8</ele>
        <time>2022-05-21 09:42:22</time>
      </trkpt>
      <trkpt lat="42.30605" lon="3.14374">
        <ele>52</ele>
        <time>2022-05-21 09:42:23</time>
      </trkpt>
      <trkpt lat="42.30604" lon="3.14379">
        <ele>52</ele>
        <time>2022-05-21 09:42:24</time>
      </trkpt>
      <trkpt lat="42.30603" lon="3.14384">
        <ele>52.2</ele>
        <time>2022-05-21 09:42:25</time>
      </trkpt>
      <trkpt lat="42.30601" lon="3.14388">
        <ele>52.2</ele>
        <time>2022-05-21 09:42:26</time>
      </trkpt>
      <trkpt lat="42.30599" lon="3.14393">
        <ele>52.4</ele>
        <time>2022-05-21 09:42:27</time>
      </trkpt>
      <trkpt lat="42.30597" lon="3.14397">
        <ele>52.4</ele>
        <time>2022-05-21 09:42:28</time>
      </trkpt>
      <trkpt lat="42.30594" lon="3.14401">
        <ele>52.4</ele>
        <time>2022-05-21 09:42:29</time>
      </trkpt>
      <trkpt lat="42.30591" lon="3.14405">
        <ele>52.6</ele>
        <time>2022-05-21 09:42:30</time>
      </trkpt>
      <trkpt lat="42.30588" lon="3.14409">
        <ele>52.6</ele>
        <time>2022-05-21 09:42:31</time>
      </trkpt>
      <trkpt lat="42.30585" lon="3.14413">
        <ele>52.6</ele>
        <time>2022-05-21 09:42:32</time>
      </trkpt>
      <trkpt lat="42.30582" lon="3.14417">
        <ele>52.6</ele>
        <time>2022-05-21 09:42:33</time>
      </trkpt>
      <trkpt lat="42.30578" lon="3.14421">
        <ele>52.6</ele>
        <time>2022-05-21 09:42:34</time>
      </trkpt>
      <trkpt lat="42.30574" lon="3.14425">
        <ele>52.6</ele>
        <time>2022-05-21 09:42:35</time>
      </trkpt>
      <trkpt lat="42.3057" lon="3.1443">
        <ele>52.6</ele>
        <time>2022-05-21 09:42:36</time>
      </trkpt>
      <trkpt lat="42.30566" lon="3.14434">
        <ele>52.6</ele>
        <time>2022-05-21 09:42:37</time>
      </trkpt>
      <trkpt lat="42.30563" lon="3.14437">
        <ele>52.6</ele>
        <time>2022-05-21 09:42:38</time>
      </trkpt>
      <trkpt lat="42.30558" lon="3.14443">
        <ele>52.6</ele>
        <time>2022-05-21 09:42:39</time>
      </trkpt>
      <trkpt lat="42.30553" lon="3.14447">
        <ele>52.6</ele>
        <time>2022-05-21 09:42:40</time>
      </trkpt>
      <trkpt lat="42.30549" lon="3.14452">
        <ele>52.6</ele>
        <time>2022-05-21 09:42:41</time>
      </trkpt>
      <trkpt lat="42.30545" lon="3.14456">
        <ele>52.6</ele>
        <time>2022-05-21 09:42:42</time>
      </trkpt>
      <trkpt lat="42.30541" lon="3.1446">
        <ele>52.6</ele>
        <time>2022-05-21 09:42:43</time>
      </trkpt>
      <trkpt lat="42.30536" lon="3.14464">
        <ele>52.6</ele>
        <time>2022-05-21 09:42:44</time>
      </trkpt>
      <trkpt lat="42.30531" lon="3.14468">
        <ele>52.6</ele>
        <time>2022-05-21 09:42:45</time>
      </trkpt>
      <trkpt lat="42.30527" lon="3.14473">
        <ele>52.6</ele>
        <time>2022-05-21 09:42:46</time>
      </trkpt>
      <trkpt lat="42.30523" lon="3.14476">
        <ele>52.6</ele>
        <time>2022-05-21 09:42:47</time>
      </trkpt>
      <trkpt lat="42.30518" lon="3.14481">
        <ele>52.6</ele>
        <time>2022-05-21 09:42:48</time>
      </trkpt>
      <trkpt lat="42.30514" lon="3.14485">
        <ele>52.8</ele>
        <time>2022-05-21 09:42:49</time>
      </trkpt>
      <trkpt lat="42.30511" lon="3.14488">
        <ele>52.8</ele>
        <time>2022-05-21 09:42:50</time>
      </trkpt>
      <trkpt lat="42.30505" lon="3.14493">
        <ele>52.8</ele>
        <time>2022-05-21 09:42:51</time>
      </trkpt>
      <trkpt lat="42.305" lon="3.14497">
        <ele>52.8</ele>
        <time>2022-05-21 09:42:52</time>
      </trkpt>
      <trkpt lat="42.30496" lon="3.14501">
        <ele>52.8</ele>
        <time>2022-05-21 09:42:53</time>
      </trkpt>
      <trkpt lat="42.30491" lon="3.14504">
        <ele>52.8</ele>
        <time>2022-05-21 09:42:54</time>
      </trkpt>
      <trkpt lat="42.30486" lon="3.14509">
        <ele>52.8</ele>
        <time>2022-05-21 09:42:55</time>
      </trkpt>
      <trkpt lat="42.30481" lon="3.14512">
        <ele>52.8</ele>
        <time>2022-05-21 09:42:56</time>
      </trkpt>
      <trkpt lat="42.30477" lon="3.14516">
        <ele>52.8</ele>
        <time>2022-05-21 09:42:57</time>
      </trkpt>
      <trkpt lat="42.30472" lon="3.1452">
        <ele>52.8</ele>
        <time>2022-05-21 09:42:58</time>
      </trkpt>
      <trkpt lat="42.30468" lon="3.14523">
        <ele>52.8</ele>
        <time>2022-05-21 09:42:59</time>
      </trkpt>
      <trkpt lat="42.30463" lon="3.14527">
        <ele>52.8</ele>
        <time>2022-05-21 09:43:00</time>
      </trkpt>
      <trkpt lat="42.30458" lon="3.1453">
        <ele>52.8</ele>
        <time>2022-05-21 09:43:01</time>
      </trkpt>
      <trkpt lat="42.30454" lon="3.14534">
        <ele>52.8</ele>
        <time>2022-05-21 09:43:02</time>
      </trkpt>
      <trkpt lat="42.30449" lon="3.14537">
        <ele>53</ele>
        <time>2022-05-21 09:43:03</time>
      </trkpt>
      <trkpt lat="42.30444" lon="3.1454">
        <ele>53</ele>
        <time>2022-05-21 09:43:04</time>
      </trkpt>
      <trkpt lat="42.3044" lon="3.14544">
        <ele>53</ele>
        <time>2022-05-21 09:43:05</time>
      </trkpt>
      <trkpt lat="42.30435" lon="3.14547">
        <ele>53</ele>
        <time>2022-05-21 09:43:06</time>
      </trkpt>
      <trkpt lat="42.3043" lon="3.14551">
        <ele>53</ele>
        <time>2022-05-21 09:43:07</time>
      </trkpt>
      <trkpt lat="42.30425" lon="3.14554">
        <ele>53</ele>
        <time>2022-05-21 09:43:08</time>
      </trkpt>
      <trkpt lat="42.30421" lon="3.14557">
        <ele>53</ele>
        <time>2022-05-21 09:43:09</time>
      </trkpt>
      <trkpt lat="42.30416" lon="3.1456">
        <ele>53.2</ele>
        <time>2022-05-21 09:43:10</time>
      </trkpt>
      <trkpt lat="42.30412" lon="3.14564">
        <ele>53.2</ele>
        <time>2022-05-21 09:43:11</time>
      </trkpt>
      <trkpt lat="42.30407" lon="3.14567">
        <ele>53.2</ele>
        <time>2022-05-21 09:43:12</time>
      </trkpt>
      <trkpt lat="42.30402" lon="3.1457">
        <ele>53.2</ele>
        <time>2022-05-21 09:43:13</time>
      </trkpt>
      <trkpt lat="42.30396" lon="3.14573">
        <ele>53.2</ele>
        <time>2022-05-21 09:43:14</time>
      </trkpt>
      <trkpt lat="42.30391" lon="3.14576">
        <ele>53.2</ele>
        <time>2022-05-21 09:43:15</time>
      </trkpt>
      <trkpt lat="42.30386" lon="3.14579">
        <ele>53.2</ele>
        <time>2022-05-21 09:43:16</time>
      </trkpt>
      <trkpt lat="42.30381" lon="3.14582">
        <ele>53.2</ele>
        <time>2022-05-21 09:43:17</time>
      </trkpt>
      <trkpt lat="42.30376" lon="3.14585">
        <ele>53.2</ele>
        <time>2022-05-21 09:43:18</time>
      </trkpt>
      <trkpt lat="42.3037" lon="3.14587">
        <ele>53</ele>
        <time>2022-05-21 09:43:19</time>
      </trkpt>
      <trkpt lat="42.30365" lon="3.1459">
        <ele>53</ele>
        <time>2022-05-21 09:43:20</time>
      </trkpt>
      <trkpt lat="42.30359" lon="3.14593">
        <ele>53</ele>
        <time>2022-05-21 09:43:21</time>
      </trkpt>
      <trkpt lat="42.30353" lon="3.14596">
        <ele>52.8</ele>
        <time>2022-05-21 09:43:22</time>
      </trkpt>
      <trkpt lat="42.30347" lon="3.14599">
        <ele>52.8</ele>
        <time>2022-05-21 09:43:23</time>
      </trkpt>
      <trkpt lat="42.30341" lon="3.14602">
        <ele>52.8</ele>
        <time>2022-05-21 09:43:24</time>
      </trkpt>
      <trkpt lat="42.30335" lon="3.14605">
        <ele>52.8</ele>
        <time>2022-05-21 09:43:25</time>
      </trkpt>
      <trkpt lat="42.30329" lon="3.14608">
        <ele>52.6</ele>
        <time>2022-05-21 09:43:26</time>
      </trkpt>
      <trkpt lat="42.30323" lon="3.14611">
        <ele>52.6</ele>
        <time>2022-05-21 09:43:27</time>
      </trkpt>
      <trkpt lat="42.30316" lon="3.14614">
        <ele>52.4</ele>
        <time>2022-05-21 09:43:28</time>
      </trkpt>
      <trkpt lat="42.3031" lon="3.14617">
        <ele>52.2</ele>
        <time>2022-05-21 09:43:29</time>
      </trkpt>
      <trkpt lat="42.30304" lon="3.14621">
        <ele>52.2</ele>
        <time>2022-05-21 09:43:30</time>
      </trkpt>
      <trkpt lat="42.30297" lon="3.14624">
        <ele>52</ele>
        <time>2022-05-21 09:43:31</time>
      </trkpt>
      <trkpt lat="42.30291" lon="3.14627">
        <ele>51.8</ele>
        <time>2022-05-21 09:43:32</time>
      </trkpt>
      <trkpt lat="42.30284" lon="3.1463">
        <ele>51.8</ele>
        <time>2022-05-21 09:43:33</time>
      </trkpt>
      <trkpt lat="42.30277" lon="3.14634">
        <ele>51.6</ele>
        <time>2022-05-21 09:43:34</time>
      </trkpt>
      <trkpt lat="42.3027" lon="3.14637">
        <ele>51.4</ele>
        <time>2022-05-21 09:43:35</time>
      </trkpt>
      <trkpt lat="42.30263" lon="3.14641">
        <ele>51.4</ele>
        <time>2022-05-21 09:43:36</time>
      </trkpt>
      <trkpt lat="42.30256" lon="3.14644">
        <ele>51.2</ele>
        <time>2022-05-21 09:43:37</time>
      </trkpt>
      <trkpt lat="42.3025" lon="3.14647">
        <ele>51</ele>
        <time>2022-05-21 09:43:38</time>
      </trkpt>
      <trkpt lat="42.30242" lon="3.1465">
        <ele>50.6</ele>
        <time>2022-05-21 09:43:39</time>
      </trkpt>
      <trkpt lat="42.30235" lon="3.14654">
        <ele>50.4</ele>
        <time>2022-05-21 09:43:40</time>
      </trkpt>
      <trkpt lat="42.30228" lon="3.14657">
        <ele>50</ele>
        <time>2022-05-21 09:43:41</time>
      </trkpt>
      <trkpt lat="42.30221" lon="3.14661">
        <ele>49.8</ele>
        <time>2022-05-21 09:43:42</time>
      </trkpt>
      <trkpt lat="42.30214" lon="3.14664">
        <ele>49.6</ele>
        <time>2022-05-21 09:43:43</time>
      </trkpt>
      <trkpt lat="42.30207" lon="3.14667">
        <ele>49.4</ele>
        <time>2022-05-21 09:43:44</time>
      </trkpt>
      <trkpt lat="42.30199" lon="3.14671">
        <ele>49.2</ele>
        <time>2022-05-21 09:43:45</time>
      </trkpt>
      <trkpt lat="42.30192" lon="3.14674">
        <ele>49</ele>
        <time>2022-05-21 09:43:46</time>
      </trkpt>
      <trkpt lat="42.30185" lon="3.14677">
        <ele>48.6</ele>
        <time>2022-05-21 09:43:47</time>
      </trkpt>
      <trkpt lat="42.30177" lon="3.14681">
        <ele>48.4</ele>
        <time>2022-05-21 09:43:48</time>
      </trkpt>
      <trkpt lat="42.30169" lon="3.14684">
        <ele>48</ele>
        <time>2022-05-21 09:43:49</time>
      </trkpt>
      <trkpt lat="42.30162" lon="3.14687">
        <ele>47.8</ele>
        <time>2022-05-21 09:43:50</time>
      </trkpt>
      <trkpt lat="42.30154" lon="3.14691">
        <ele>47.6</ele>
        <time>2022-05-21 09:43:51</time>
      </trkpt>
      <trkpt lat="42.30146" lon="3.14694">
        <ele>47.4</ele>
        <time>2022-05-21 09:43:52</time>
      </trkpt>
      <trkpt lat="42.30138" lon="3.14697">
        <ele>47.2</ele>
        <time>2022-05-21 09:43:53</time>
      </trkpt>
      <trkpt lat="42.30131" lon="3.147">
        <ele>46.8</ele>
        <time>2022-05-21 09:43:54</time>
      </trkpt>
      <trkpt lat="42.30123" lon="3.14704">
        <ele>46.6</ele>
        <time>2022-05-21 09:43:55</time>
      </trkpt>
      <trkpt lat="42.30115" lon="3.14707">
        <ele>46.4</ele>
        <time>2022-05-21 09:43:56</time>
      </trkpt>
      <trkpt lat="42.30106" lon="3.14711">
        <ele>46.2</ele>
        <time>2022-05-21 09:43:57</time>
      </trkpt>
      <trkpt lat="42.30098" lon="3.14715">
        <ele>46</ele>
        <time>2022-05-21 09:43:58</time>
      </trkpt>
      <trkpt lat="42.3009" lon="3.14718">
        <ele>45.6</ele>
        <time>2022-05-21 09:43:59</time>
      </trkpt>
      <trkpt lat="42.30082" lon="3.14722">
        <ele>45.4</ele>
        <time>2022-05-21 09:44:00</time>
      </trkpt>
      <trkpt lat="42.30074" lon="3.14726">
        <ele>45</ele>
        <time>2022-05-21 09:44:01</time>
      </trkpt>
      <trkpt lat="42.30065" lon="3.1473">
        <ele>44.8</ele>
        <time>2022-05-21 09:44:02</time>
      </trkpt>
      <trkpt lat="42.30057" lon="3.14735">
        <ele>44.6</ele>
        <time>2022-05-21 09:44:03</time>
      </trkpt>
      <trkpt lat="42.30048" lon="3.14739">
        <ele>44.2</ele>
        <time>2022-05-21 09:44:04</time>
      </trkpt>
      <trkpt lat="42.3004" lon="3.14743">
        <ele>44</ele>
        <time>2022-05-21 09:44:05</time>
      </trkpt>
      <trkpt lat="42.30031" lon="3.14747">
        <ele>43.6</ele>
        <time>2022-05-21 09:44:06</time>
      </trkpt>
      <trkpt lat="42.30023" lon="3.14751">
        <ele>43.4</ele>
        <time>2022-05-21 09:44:07</time>
      </trkpt>
      <trkpt lat="42.30014" lon="3.14756">
        <ele>43</ele>
        <time>2022-05-21 09:44:08</time>
      </trkpt>
      <trkpt lat="42.30006" lon="3.1476">
        <ele>42.6</ele>
        <time>2022-05-21 09:44:09</time>
      </trkpt>
      <trkpt lat="42.29997" lon="3.14764">
        <ele>42.4</ele>
        <time>2022-05-21 09:44:10</time>
      </trkpt>
      <trkpt lat="42.29989" lon="3.14768">
        <ele>42</ele>
        <time>2022-05-21 09:44:11</time>
      </trkpt>
      <trkpt lat="42.2998" lon="3.14772">
        <ele>41.8</ele>
        <time>2022-05-21 09:44:12</time>
      </trkpt>
      <trkpt lat="42.29972" lon="3.14777">
        <ele>41.4</ele>
        <time>2022-05-21 09:44:13</time>
      </trkpt>
      <trkpt lat="42.29963" lon="3.14781">
        <ele>41</ele>
        <time>2022-05-21 09:44:14</time>
      </trkpt>
      <trkpt lat="42.29954" lon="3.14785">
        <ele>40.6</ele>
        <time>2022-05-21 09:44:15</time>
      </trkpt>
      <trkpt lat="42.29946" lon="3.14789">
        <ele>40.4</ele>
        <time>2022-05-21 09:44:16</time>
      </trkpt>
      <trkpt lat="42.29937" lon="3.14793">
        <ele>40</ele>
        <time>2022-05-21 09:44:17</time>
      </trkpt>
      <trkpt lat="42.29928" lon="3.14797">
        <ele>39.8</ele>
        <time>2022-05-21 09:44:18</time>
      </trkpt>
      <trkpt lat="42.29919" lon="3.14801">
        <ele>39.4</ele>
        <time>2022-05-21 09:44:19</time>
      </trkpt>
      <trkpt lat="42.2991" lon="3.14806">
        <ele>39</ele>
        <time>2022-05-21 09:44:20</time>
      </trkpt>
      <trkpt lat="42.29901" lon="3.1481">
        <ele>38.8</ele>
        <time>2022-05-21 09:44:21</time>
      </trkpt>
      <trkpt lat="42.29893" lon="3.14814">
        <ele>38.4</ele>
        <time>2022-05-21 09:44:22</time>
      </trkpt>
      <trkpt lat="42.29884" lon="3.14819">
        <ele>38</ele>
        <time>2022-05-21 09:44:23</time>
      </trkpt>
      <trkpt lat="42.29875" lon="3.14823">
        <ele>37.8</ele>
        <time>2022-05-21 09:44:24</time>
      </trkpt>
      <trkpt lat="42.29866" lon="3.14828">
        <ele>37.6</ele>
        <time>2022-05-21 09:44:25</time>
      </trkpt>
      <trkpt lat="42.29857" lon="3.14832">
        <ele>37.2</ele>
        <time>2022-05-21 09:44:26</time>
      </trkpt>
      <trkpt lat="42.29848" lon="3.14836">
        <ele>36.8</ele>
        <time>2022-05-21 09:44:27</time>
      </trkpt>
      <trkpt lat="42.2984" lon="3.1484">
        <ele>36.6</ele>
        <time>2022-05-21 09:44:28</time>
      </trkpt>
      <trkpt lat="42.2983" lon="3.14845">
        <ele>36.2</ele>
        <time>2022-05-21 09:44:29</time>
      </trkpt>
      <trkpt lat="42.29821" lon="3.14849">
        <ele>36</ele>
        <time>2022-05-21 09:44:30</time>
      </trkpt>
      <trkpt lat="42.29812" lon="3.14854">
        <ele>35.8</ele>
        <time>2022-05-21 09:44:31</time>
      </trkpt>
      <trkpt lat="42.29804" lon="3.14858">
        <ele>35.6</ele>
        <time>2022-05-21 09:44:32</time>
      </trkpt>
      <trkpt lat="42.29794" lon="3.14863">
        <ele>35.4</ele>
        <time>2022-05-21 09:44:33</time>
      </trkpt>
      <trkpt lat="42.29785" lon="3.14867">
        <ele>35</ele>
        <time>2022-05-21 09:44:34</time>
      </trkpt>
      <trkpt lat="42.29777" lon="3.14872">
        <ele>34.8</ele>
        <time>2022-05-21 09:44:35</time>
      </trkpt>
      <trkpt lat="42.29767" lon="3.14876">
        <ele>34.4</ele>
        <time>2022-05-21 09:44:36</time>
      </trkpt>
      <trkpt lat="42.29759" lon="3.14881">
        <ele>34.2</ele>
        <time>2022-05-21 09:44:37</time>
      </trkpt>
      <trkpt lat="42.2975" lon="3.14885">
        <ele>34</ele>
        <time>2022-05-21 09:44:38</time>
      </trkpt>
      <trkpt lat="42.29741" lon="3.1489">
        <ele>33.6</ele>
        <time>2022-05-21 09:44:39</time>
      </trkpt>
      <trkpt lat="42.29732" lon="3.14895">
        <ele>33.4</ele>
        <time>2022-05-21 09:44:40</time>
      </trkpt>
      <trkpt lat="42.29724" lon="3.149">
        <ele>33</ele>
        <time>2022-05-21 09:44:41</time>
      </trkpt>
      <trkpt lat="42.29714" lon="3.14905">
        <ele>32.8</ele>
        <time>2022-05-21 09:44:42</time>
      </trkpt>
      <trkpt lat="42.29705" lon="3.14909">
        <ele>32.6</ele>
        <time>2022-05-21 09:44:43</time>
      </trkpt>
      <trkpt lat="42.29697" lon="3.14914">
        <ele>32.2</ele>
        <time>2022-05-21 09:44:44</time>
      </trkpt>
      <trkpt lat="42.29688" lon="3.14918">
        <ele>32</ele>
        <time>2022-05-21 09:44:45</time>
      </trkpt>
      <trkpt lat="42.29679" lon="3.14922">
        <ele>31.8</ele>
        <time>2022-05-21 09:44:46</time>
      </trkpt>
      <trkpt lat="42.29671" lon="3.14926">
        <ele>31.6</ele>
        <time>2022-05-21 09:44:47</time>
      </trkpt>
      <trkpt lat="42.29663" lon="3.1493">
        <ele>31.4</ele>
        <time>2022-05-21 09:44:48</time>
      </trkpt>
      <trkpt lat="42.29654" lon="3.14934">
        <ele>31.4</ele>
        <time>2022-05-21 09:44:49</time>
      </trkpt>
      <trkpt lat="42.29646" lon="3.14938">
        <ele>31.2</ele>
        <time>2022-05-21 09:44:50</time>
      </trkpt>
      <trkpt lat="42.29638" lon="3.14942">
        <ele>31.2</ele>
        <time>2022-05-21 09:44:51</time>
      </trkpt>
      <trkpt lat="42.2963" lon="3.14946">
        <ele>31</ele>
        <time>2022-05-21 09:44:52</time>
      </trkpt>
      <trkpt lat="42.29622" lon="3.14949">
        <ele>31</ele>
        <time>2022-05-21 09:44:53</time>
      </trkpt>
      <trkpt lat="42.29614" lon="3.14953">
        <ele>31</ele>
        <time>2022-05-21 09:44:54</time>
      </trkpt>
      <trkpt lat="42.29607" lon="3.14957">
        <ele>31</ele>
        <time>2022-05-21 09:44:55</time>
      </trkpt>
      <trkpt lat="42.29599" lon="3.14961">
        <ele>31.2</ele>
        <time>2022-05-21 09:44:56</time>
      </trkpt>
      <trkpt lat="42.29592" lon="3.14965">
        <ele>31</ele>
        <time>2022-05-21 09:44:57</time>
      </trkpt>
      <trkpt lat="42.29585" lon="3.14968">
        <ele>31</ele>
        <time>2022-05-21 09:44:58</time>
      </trkpt>
      <trkpt lat="42.29577" lon="3.14972">
        <ele>31</ele>
        <time>2022-05-21 09:44:59</time>
      </trkpt>
      <trkpt lat="42.29571" lon="3.14975">
        <ele>31.2</ele>
        <time>2022-05-21 09:45:00</time>
      </trkpt>
      <trkpt lat="42.29563" lon="3.14978">
        <ele>31.2</ele>
        <time>2022-05-21 09:45:01</time>
      </trkpt>
      <trkpt lat="42.29555" lon="3.14982">
        <ele>31.2</ele>
        <time>2022-05-21 09:45:02</time>
      </trkpt>
      <trkpt lat="42.29548" lon="3.14985">
        <ele>31.2</ele>
        <time>2022-05-21 09:45:03</time>
      </trkpt>
      <trkpt lat="42.29541" lon="3.14989">
        <ele>31.2</ele>
        <time>2022-05-21 09:45:04</time>
      </trkpt>
      <trkpt lat="42.29534" lon="3.14993">
        <ele>31.2</ele>
        <time>2022-05-21 09:45:05</time>
      </trkpt>
      <trkpt lat="42.29527" lon="3.14996">
        <ele>31.2</ele>
        <time>2022-05-21 09:45:06</time>
      </trkpt>
      <trkpt lat="42.2952" lon="3.14999">
        <ele>31.2</ele>
        <time>2022-05-21 09:45:07</time>
      </trkpt>
      <trkpt lat="42.29513" lon="3.15003">
        <ele>31.2</ele>
        <time>2022-05-21 09:45:08</time>
      </trkpt>
      <trkpt lat="42.29506" lon="3.15006">
        <ele>31.2</ele>
        <time>2022-05-21 09:45:09</time>
      </trkpt>
      <trkpt lat="42.29498" lon="3.1501">
        <ele>31.2</ele>
        <time>2022-05-21 09:45:10</time>
      </trkpt>
      <trkpt lat="42.29491" lon="3.15013">
        <ele>31.2</ele>
        <time>2022-05-21 09:45:11</time>
      </trkpt>
      <trkpt lat="42.29484" lon="3.15017">
        <ele>31</ele>
        <time>2022-05-21 09:45:12</time>
      </trkpt>
      <trkpt lat="42.29477" lon="3.15021">
        <ele>31</ele>
        <time>2022-05-21 09:45:13</time>
      </trkpt>
      <trkpt lat="42.29469" lon="3.15024">
        <ele>30.8</ele>
        <time>2022-05-21 09:45:14</time>
      </trkpt>
      <trkpt lat="42.29462" lon="3.15028">
        <ele>30.8</ele>
        <time>2022-05-21 09:45:15</time>
      </trkpt>
      <trkpt lat="42.29454" lon="3.15031">
        <ele>30.6</ele>
        <time>2022-05-21 09:45:16</time>
      </trkpt>
      <trkpt lat="42.29447" lon="3.15035">
        <ele>30.6</ele>
        <time>2022-05-21 09:45:17</time>
      </trkpt>
      <trkpt lat="42.2944" lon="3.15039">
        <ele>30.4</ele>
        <time>2022-05-21 09:45:18</time>
      </trkpt>
      <trkpt lat="42.29432" lon="3.15042">
        <ele>30.4</ele>
        <time>2022-05-21 09:45:19</time>
      </trkpt>
      <trkpt lat="42.29425" lon="3.15046">
        <ele>30.4</ele>
        <time>2022-05-21 09:45:20</time>
      </trkpt>
      <trkpt lat="42.29417" lon="3.1505">
        <ele>30.2</ele>
        <time>2022-05-21 09:45:21</time>
      </trkpt>
      <trkpt lat="42.29409" lon="3.15054">
        <ele>30.2</ele>
        <time>2022-05-21 09:45:22</time>
      </trkpt>
      <trkpt lat="42.29402" lon="3.15057">
        <ele>30.2</ele>
        <time>2022-05-21 09:45:23</time>
      </trkpt>
      <trkpt lat="42.29395" lon="3.15061">
        <ele>30</ele>
        <time>2022-05-21 09:45:24</time>
      </trkpt>
      <trkpt lat="42.29387" lon="3.15065">
        <ele>30</ele>
        <time>2022-05-21 09:45:25</time>
      </trkpt>
      <trkpt lat="42.2938" lon="3.15068">
        <ele>30</ele>
        <time>2022-05-21 09:45:26</time>
      </trkpt>
      <trkpt lat="42.29373" lon="3.15072">
        <ele>29.8</ele>
        <time>2022-05-21 09:45:27</time>
      </trkpt>
      <trkpt lat="42.29366" lon="3.15076">
        <ele>29.8</ele>
        <time>2022-05-21 09:45:28</time>
      </trkpt>
      <trkpt lat="42.29358" lon="3.1508">
        <ele>29.6</ele>
        <time>2022-05-21 09:45:29</time>
      </trkpt>
      <trkpt lat="42.2935" lon="3.15084">
        <ele>29.6</ele>
        <time>2022-05-21 09:45:30</time>
      </trkpt>
      <trkpt lat="42.29343" lon="3.15087">
        <ele>29.6</ele>
        <time>2022-05-21 09:45:31</time>
      </trkpt>
      <trkpt lat="42.29335" lon="3.15091">
        <ele>29.6</ele>
        <time>2022-05-21 09:45:32</time>
      </trkpt>
      <trkpt lat="42.29327" lon="3.15094">
        <ele>29.4</ele>
        <time>2022-05-21 09:45:33</time>
      </trkpt>
      <trkpt lat="42.2932" lon="3.15097">
        <ele>29.4</ele>
        <time>2022-05-21 09:45:34</time>
      </trkpt>
      <trkpt lat="42.29312" lon="3.15101">
        <ele>29.4</ele>
        <time>2022-05-21 09:45:35</time>
      </trkpt>
      <trkpt lat="42.29305" lon="3.15104">
        <ele>29.4</ele>
        <time>2022-05-21 09:45:36</time>
      </trkpt>
      <trkpt lat="42.29298" lon="3.15107">
        <ele>29.2</ele>
        <time>2022-05-21 09:45:37</time>
      </trkpt>
      <trkpt lat="42.2929" lon="3.1511">
        <ele>29.2</ele>
        <time>2022-05-21 09:45:38</time>
      </trkpt>
      <trkpt lat="42.29283" lon="3.15114">
        <ele>29.2</ele>
        <time>2022-05-21 09:45:39</time>
      </trkpt>
      <trkpt lat="42.29275" lon="3.15117">
        <ele>29</ele>
        <time>2022-05-21 09:45:40</time>
      </trkpt>
      <trkpt lat="42.29268" lon="3.15121">
        <ele>29</ele>
        <time>2022-05-21 09:45:41</time>
      </trkpt>
      <trkpt lat="42.29261" lon="3.15125">
        <ele>29</ele>
        <time>2022-05-21 09:45:42</time>
      </trkpt>
      <trkpt lat="42.29255" lon="3.15128">
        <ele>28.8</ele>
        <time>2022-05-21 09:45:43</time>
      </trkpt>
      <trkpt lat="42.29246" lon="3.15132">
        <ele>28.8</ele>
        <time>2022-05-21 09:45:44</time>
      </trkpt>
      <trkpt lat="42.29239" lon="3.15135">
        <ele>28.8</ele>
        <time>2022-05-21 09:45:45</time>
      </trkpt>
      <trkpt lat="42.29231" lon="3.15139">
        <ele>28.8</ele>
        <time>2022-05-21 09:45:46</time>
      </trkpt>
      <trkpt lat="42.29225" lon="3.15142">
        <ele>28.8</ele>
        <time>2022-05-21 09:45:47</time>
      </trkpt>
      <trkpt lat="42.29217" lon="3.15146">
        <ele>28.8</ele>
        <time>2022-05-21 09:45:48</time>
      </trkpt>
      <trkpt lat="42.29209" lon="3.1515">
        <ele>28.8</ele>
        <time>2022-05-21 09:45:49</time>
      </trkpt>
      <trkpt lat="42.29201" lon="3.15153">
        <ele>28.8</ele>
        <time>2022-05-21 09:45:50</time>
      </trkpt>
      <trkpt lat="42.29194" lon="3.15156">
        <ele>28.6</ele>
        <time>2022-05-21 09:45:51</time>
      </trkpt>
      <trkpt lat="42.29186" lon="3.1516">
        <ele>28.6</ele>
        <time>2022-05-21 09:45:52</time>
      </trkpt>
      <trkpt lat="42.2918" lon="3.15163">
        <ele>28.6</ele>
        <time>2022-05-21 09:45:53</time>
      </trkpt>
      <trkpt lat="42.29171" lon="3.15167">
        <ele>28.4</ele>
        <time>2022-05-21 09:45:54</time>
      </trkpt>
      <trkpt lat="42.29164" lon="3.15171">
        <ele>28.4</ele>
        <time>2022-05-21 09:45:55</time>
      </trkpt>
      <trkpt lat="42.29156" lon="3.15175">
        <ele>28.2</ele>
        <time>2022-05-21 09:45:56</time>
      </trkpt>
      <trkpt lat="42.29148" lon="3.15178">
        <ele>28.2</ele>
        <time>2022-05-21 09:45:57</time>
      </trkpt>
      <trkpt lat="42.2914" lon="3.15182">
        <ele>28.2</ele>
        <time>2022-05-21 09:45:58</time>
      </trkpt>
      <trkpt lat="42.29131" lon="3.15186">
        <ele>28</ele>
        <time>2022-05-21 09:45:59</time>
      </trkpt>
      <trkpt lat="42.29124" lon="3.1519">
        <ele>27.8</ele>
        <time>2022-05-21 09:46:00</time>
      </trkpt>
      <trkpt lat="42.29116" lon="3.15194">
        <ele>27.8</ele>
        <time>2022-05-21 09:46:01</time>
      </trkpt>
      <trkpt lat="42.29108" lon="3.15197">
        <ele>27.6</ele>
        <time>2022-05-21 09:46:02</time>
      </trkpt>
      <trkpt lat="42.29102" lon="3.152">
        <ele>27.6</ele>
        <time>2022-05-21 09:46:03</time>
      </trkpt>
      <trkpt lat="42.29093" lon="3.15205">
        <ele>27.6</ele>
        <time>2022-05-21 09:46:04</time>
      </trkpt>
      <trkpt lat="42.29085" lon="3.15209">
        <ele>27.6</ele>
        <time>2022-05-21 09:46:05</time>
      </trkpt>
      <trkpt lat="42.29077" lon="3.15212">
        <ele>27.4</ele>
        <time>2022-05-21 09:46:06</time>
      </trkpt>
      <trkpt lat="42.29069" lon="3.15216">
        <ele>27.4</ele>
        <time>2022-05-21 09:46:07</time>
      </trkpt>
      <trkpt lat="42.29061" lon="3.15219">
        <ele>27.2</ele>
        <time>2022-05-21 09:46:08</time>
      </trkpt>
      <trkpt lat="42.29055" lon="3.15223">
        <ele>27.2</ele>
        <time>2022-05-21 09:46:09</time>
      </trkpt>
      <trkpt lat="42.29046" lon="3.15227">
        <ele>27</ele>
        <time>2022-05-21 09:46:10</time>
      </trkpt>
      <trkpt lat="42.29039" lon="3.1523">
        <ele>27</ele>
        <time>2022-05-21 09:46:11</time>
      </trkpt>
      <trkpt lat="42.29031" lon="3.15234">
        <ele>26.8</ele>
        <time>2022-05-21 09:46:12</time>
      </trkpt>
      <trkpt lat="42.29024" lon="3.15238">
        <ele>26.8</ele>
        <time>2022-05-21 09:46:13</time>
      </trkpt>
      <trkpt lat="42.29015" lon="3.15242">
        <ele>26.6</ele>
        <time>2022-05-21 09:46:14</time>
      </trkpt>
      <trkpt lat="42.29008" lon="3.15245">
        <ele>26.4</ele>
        <time>2022-05-21 09:46:15</time>
      </trkpt>
      <trkpt lat="42.29" lon="3.15249">
        <ele>26.4</ele>
        <time>2022-05-21 09:46:16</time>
      </trkpt>
      <trkpt lat="42.28993" lon="3.15253">
        <ele>26.2</ele>
        <time>2022-05-21 09:46:17</time>
      </trkpt>
      <trkpt lat="42.28985" lon="3.15256">
        <ele>26.2</ele>
        <time>2022-05-21 09:46:18</time>
      </trkpt>
      <trkpt lat="42.28978" lon="3.1526">
        <ele>26.2</ele>
        <time>2022-05-21 09:46:19</time>
      </trkpt>
      <trkpt lat="42.2897" lon="3.15264">
        <ele>26.2</ele>
        <time>2022-05-21 09:46:20</time>
      </trkpt>
      <trkpt lat="42.28963" lon="3.15267">
        <ele>26</ele>
        <time>2022-05-21 09:46:21</time>
      </trkpt>
      <trkpt lat="42.28954" lon="3.15271">
        <ele>25.8</ele>
        <time>2022-05-21 09:46:22</time>
      </trkpt>
      <trkpt lat="42.28947" lon="3.15275">
        <ele>25.8</ele>
        <time>2022-05-21 09:46:23</time>
      </trkpt>
      <trkpt lat="42.28938" lon="3.15278">
        <ele>25.6</ele>
        <time>2022-05-21 09:46:24</time>
      </trkpt>
      <trkpt lat="42.28931" lon="3.15282">
        <ele>25.4</ele>
        <time>2022-05-21 09:46:25</time>
      </trkpt>
      <trkpt lat="42.28923" lon="3.15286">
        <ele>25.2</ele>
        <time>2022-05-21 09:46:26</time>
      </trkpt>
      <trkpt lat="42.28915" lon="3.1529">
        <ele>25.2</ele>
        <time>2022-05-21 09:46:27</time>
      </trkpt>
      <trkpt lat="42.28907" lon="3.15294">
        <ele>25</ele>
        <time>2022-05-21 09:46:28</time>
      </trkpt>
      <trkpt lat="42.28899" lon="3.15298">
        <ele>24.8</ele>
        <time>2022-05-21 09:46:29</time>
      </trkpt>
      <trkpt lat="42.2889" lon="3.15302">
        <ele>24.8</ele>
        <time>2022-05-21 09:46:30</time>
      </trkpt>
      <trkpt lat="42.28883" lon="3.15305">
        <ele>24.6</ele>
        <time>2022-05-21 09:46:31</time>
      </trkpt>
      <trkpt lat="42.28875" lon="3.15309">
        <ele>24.4</ele>
        <time>2022-05-21 09:46:32</time>
      </trkpt>
      <trkpt lat="42.28867" lon="3.15313">
        <ele>24.2</ele>
        <time>2022-05-21 09:46:33</time>
      </trkpt>
      <trkpt lat="42.28858" lon="3.15317">
        <ele>24.2</ele>
        <time>2022-05-21 09:46:34</time>
      </trkpt>
      <trkpt lat="42.2885" lon="3.15321">
        <ele>24</ele>
        <time>2022-05-21 09:46:35</time>
      </trkpt>
      <trkpt lat="42.28842" lon="3.15325">
        <ele>23.6</ele>
        <time>2022-05-21 09:46:36</time>
      </trkpt>
      <trkpt lat="42.28835" lon="3.15329">
        <ele>23.4</ele>
        <time>2022-05-21 09:46:37</time>
      </trkpt>
      <trkpt lat="42.28827" lon="3.15332">
        <ele>23.2</ele>
        <time>2022-05-21 09:46:38</time>
      </trkpt>
      <trkpt lat="42.28819" lon="3.15336">
        <ele>23</ele>
        <time>2022-05-21 09:46:39</time>
      </trkpt>
      <trkpt lat="42.28811" lon="3.15339">
        <ele>23</ele>
        <time>2022-05-21 09:46:40</time>
      </trkpt>
      <trkpt lat="42.28803" lon="3.15343">
        <ele>22.8</ele>
        <time>2022-05-21 09:46:41</time>
      </trkpt>
      <trkpt lat="42.28795" lon="3.15347">
        <ele>22.6</ele>
        <time>2022-05-21 09:46:42</time>
      </trkpt>
      <trkpt lat="42.28788" lon="3.15351">
        <ele>22.4</ele>
        <time>2022-05-21 09:46:43</time>
      </trkpt>
      <trkpt lat="42.2878" lon="3.15355">
        <ele>22.2</ele>
        <time>2022-05-21 09:46:44</time>
      </trkpt>
      <trkpt lat="42.28772" lon="3.15359">
        <ele>22</ele>
        <time>2022-05-21 09:46:45</time>
      </trkpt>
      <trkpt lat="42.28764" lon="3.15362">
        <ele>22</ele>
        <time>2022-05-21 09:46:46</time>
      </trkpt>
      <trkpt lat="42.28756" lon="3.15366">
        <ele>21.8</ele>
        <time>2022-05-21 09:46:47</time>
      </trkpt>
      <trkpt lat="42.28748" lon="3.1537">
        <ele>21.6</ele>
        <time>2022-05-21 09:46:48</time>
      </trkpt>
      <trkpt lat="42.28739" lon="3.15374">
        <ele>21.4</ele>
        <time>2022-05-21 09:46:49</time>
      </trkpt>
      <trkpt lat="42.28731" lon="3.15378">
        <ele>21.4</ele>
        <time>2022-05-21 09:46:50</time>
      </trkpt>
      <trkpt lat="42.28723" lon="3.15382">
        <ele>21.2</ele>
        <time>2022-05-21 09:46:51</time>
      </trkpt>
      <trkpt lat="42.28715" lon="3.15386">
        <ele>21</ele>
        <time>2022-05-21 09:46:52</time>
      </trkpt>
      <trkpt lat="42.28707" lon="3.1539">
        <ele>20.8</ele>
        <time>2022-05-21 09:46:53</time>
      </trkpt>
      <trkpt lat="42.28699" lon="3.15394">
        <ele>20.6</ele>
        <time>2022-05-21 09:46:54</time>
      </trkpt>
      <trkpt lat="42.28691" lon="3.15398">
        <ele>20.4</ele>
        <time>2022-05-21 09:46:55</time>
      </trkpt>
      <trkpt lat="42.28683" lon="3.15401">
        <ele>20.2</ele>
        <time>2022-05-21 09:46:56</time>
      </trkpt>
      <trkpt lat="42.28675" lon="3.15405">
        <ele>20</ele>
        <time>2022-05-21 09:46:57</time>
      </trkpt>
      <trkpt lat="42.28668" lon="3.15409">
        <ele>20</ele>
        <time>2022-05-21 09:46:58</time>
      </trkpt>
      <trkpt lat="42.2866" lon="3.15413">
        <ele>19.8</ele>
        <time>2022-05-21 09:46:59</time>
      </trkpt>
      <trkpt lat="42.28652" lon="3.15417">
        <ele>19.8</ele>
        <time>2022-05-21 09:47:00</time>
      </trkpt>
      <trkpt lat="42.28645" lon="3.1542">
        <ele>19.6</ele>
        <time>2022-05-21 09:47:01</time>
      </trkpt>
      <trkpt lat="42.28637" lon="3.15424">
        <ele>19.4</ele>
        <time>2022-05-21 09:47:02</time>
      </trkpt>
      <trkpt lat="42.28629" lon="3.15428">
        <ele>19.2</ele>
        <time>2022-05-21 09:47:03</time>
      </trkpt>
      <trkpt lat="42.28622" lon="3.15431">
        <ele>19</ele>
        <time>2022-05-21 09:47:04</time>
      </trkpt>
      <trkpt lat="42.28613" lon="3.15435">
        <ele>18.8</ele>
        <time>2022-05-21 09:47:05</time>
      </trkpt>
      <trkpt lat="42.28605" lon="3.15439">
        <ele>18.6</ele>
        <time>2022-05-21 09:47:06</time>
      </trkpt>
      <trkpt lat="42.28597" lon="3.15443">
        <ele>18.4</ele>
        <time>2022-05-21 09:47:07</time>
      </trkpt>
      <trkpt lat="42.2859" lon="3.15447">
        <ele>18.2</ele>
        <time>2022-05-21 09:47:08</time>
      </trkpt>
      <trkpt lat="42.28582" lon="3.1545">
        <ele>18</ele>
        <time>2022-05-21 09:47:09</time>
      </trkpt>
      <trkpt lat="42.28575" lon="3.15454">
        <ele>18</ele>
        <time>2022-05-21 09:47:10</time>
      </trkpt>
      <trkpt lat="42.28566" lon="3.15459">
        <ele>17.8</ele>
        <time>2022-05-21 09:47:11</time>
      </trkpt>
      <trkpt lat="42.28559" lon="3.15463">
        <ele>17.8</ele>
        <time>2022-05-21 09:47:12</time>
      </trkpt>
      <trkpt lat="42.28551" lon="3.15466">
        <ele>17.6</ele>
        <time>2022-05-21 09:47:13</time>
      </trkpt>
      <trkpt lat="42.28543" lon="3.1547">
        <ele>17.4</ele>
        <time>2022-05-21 09:47:14</time>
      </trkpt>
      <trkpt lat="42.28536" lon="3.15474">
        <ele>17.2</ele>
        <time>2022-05-21 09:47:15</time>
      </trkpt>
      <trkpt lat="42.28528" lon="3.15478">
        <ele>17.2</ele>
        <time>2022-05-21 09:47:16</time>
      </trkpt>
      <trkpt lat="42.2852" lon="3.15481">
        <ele>17</ele>
        <time>2022-05-21 09:47:17</time>
      </trkpt>
      <trkpt lat="42.28513" lon="3.15484">
        <ele>16.8</ele>
        <time>2022-05-21 09:47:18</time>
      </trkpt>
      <trkpt lat="42.28505" lon="3.15488">
        <ele>16.6</ele>
        <time>2022-05-21 09:47:19</time>
      </trkpt>
      <trkpt lat="42.28498" lon="3.15491">
        <ele>16.4</ele>
        <time>2022-05-21 09:47:20</time>
      </trkpt>
      <trkpt lat="42.28491" lon="3.15495">
        <ele>16.2</ele>
        <time>2022-05-21 09:47:21</time>
      </trkpt>
      <trkpt lat="42.28483" lon="3.15499">
        <ele>16</ele>
        <time>2022-05-21 09:47:22</time>
      </trkpt>
      <trkpt lat="42.28476" lon="3.15503">
        <ele>15.8</ele>
        <time>2022-05-21 09:47:23</time>
      </trkpt>
      <trkpt lat="42.28469" lon="3.15505">
        <ele>15.6</ele>
        <time>2022-05-21 09:47:24</time>
      </trkpt>
      <trkpt lat="42.28461" lon="3.15505">
        <ele>15.6</ele>
        <time>2022-05-21 09:47:25</time>
      </trkpt>
      <trkpt lat="42.28454" lon="3.15504">
        <ele>15.4</ele>
        <time>2022-05-21 09:47:26</time>
      </trkpt>
      <trkpt lat="42.28447" lon="3.15504">
        <ele>15.2</ele>
        <time>2022-05-21 09:47:27</time>
      </trkpt>
      <trkpt lat="42.28439" lon="3.15507">
        <ele>15.2</ele>
        <time>2022-05-21 09:47:28</time>
      </trkpt>
      <trkpt lat="42.28433" lon="3.15512">
        <ele>15</ele>
        <time>2022-05-21 09:47:29</time>
      </trkpt>
      <trkpt lat="42.28428" lon="3.15519">
        <ele>14.8</ele>
        <time>2022-05-21 09:47:30</time>
      </trkpt>
      <trkpt lat="42.28422" lon="3.15526">
        <ele>14.6</ele>
        <time>2022-05-21 09:47:31</time>
      </trkpt>
      <trkpt lat="42.28416" lon="3.15531">
        <ele>14.6</ele>
        <time>2022-05-21 09:47:32</time>
      </trkpt>
      <trkpt lat="42.28409" lon="3.15535">
        <ele>14.2</ele>
        <time>2022-05-21 09:47:33</time>
      </trkpt>
      <trkpt lat="42.28401" lon="3.15538">
        <ele>14</ele>
        <time>2022-05-21 09:47:34</time>
      </trkpt>
      <trkpt lat="42.28393" lon="3.15542">
        <ele>13.8</ele>
        <time>2022-05-21 09:47:35</time>
      </trkpt>
      <trkpt lat="42.28386" lon="3.15545">
        <ele>13.6</ele>
        <time>2022-05-21 09:47:36</time>
      </trkpt>
      <trkpt lat="42.28377" lon="3.15549">
        <ele>13.4</ele>
        <time>2022-05-21 09:47:37</time>
      </trkpt>
      <trkpt lat="42.2837" lon="3.15553">
        <ele>13.2</ele>
        <time>2022-05-21 09:47:38</time>
      </trkpt>
      <trkpt lat="42.28361" lon="3.15557">
        <ele>13</ele>
        <time>2022-05-21 09:47:39</time>
      </trkpt>
      <trkpt lat="42.28353" lon="3.15561">
        <ele>12.8</ele>
        <time>2022-05-21 09:47:40</time>
      </trkpt>
      <trkpt lat="42.28344" lon="3.15565">
        <ele>12.6</ele>
        <time>2022-05-21 09:47:41</time>
      </trkpt>
      <trkpt lat="42.28336" lon="3.15569">
        <ele>12.4</ele>
        <time>2022-05-21 09:47:42</time>
      </trkpt>
      <trkpt lat="42.28328" lon="3.15573">
        <ele>12.2</ele>
        <time>2022-05-21 09:47:43</time>
      </trkpt>
      <trkpt lat="42.28319" lon="3.15577">
        <ele>12</ele>
        <time>2022-05-21 09:47:44</time>
      </trkpt>
      <trkpt lat="42.2831" lon="3.15581">
        <ele>12</ele>
        <time>2022-05-21 09:47:45</time>
      </trkpt>
      <trkpt lat="42.28301" lon="3.15585">
        <ele>11.8</ele>
        <time>2022-05-21 09:47:46</time>
      </trkpt>
      <trkpt lat="42.28293" lon="3.1559">
        <ele>11.4</ele>
        <time>2022-05-21 09:47:47</time>
      </trkpt>
      <trkpt lat="42.28284" lon="3.15594">
        <ele>11.2</ele>
        <time>2022-05-21 09:47:48</time>
      </trkpt>
      <trkpt lat="42.28276" lon="3.15598">
        <ele>11</ele>
        <time>2022-05-21 09:47:49</time>
      </trkpt>
      <trkpt lat="42.28267" lon="3.15602">
        <ele>10.8</ele>
        <time>2022-05-21 09:47:50</time>
      </trkpt>
      <trkpt lat="42.28259" lon="3.15607">
        <ele>10.6</ele>
        <time>2022-05-21 09:47:51</time>
      </trkpt>
      <trkpt lat="42.2825" lon="3.15611">
        <ele>10.4</ele>
        <time>2022-05-21 09:47:52</time>
      </trkpt>
      <trkpt lat="42.28243" lon="3.15615">
        <ele>10.4</ele>
        <time>2022-05-21 09:47:53</time>
      </trkpt>
      <trkpt lat="42.28233" lon="3.15619">
        <ele>10.4</ele>
        <time>2022-05-21 09:47:54</time>
      </trkpt>
      <trkpt lat="42.28226" lon="3.15623">
        <ele>10.2</ele>
        <time>2022-05-21 09:47:55</time>
      </trkpt>
      <trkpt lat="42.28216" lon="3.15627">
        <ele>10</ele>
        <time>2022-05-21 09:47:56</time>
      </trkpt>
      <trkpt lat="42.28208" lon="3.15631">
        <ele>9.8</ele>
        <time>2022-05-21 09:47:57</time>
      </trkpt>
      <trkpt lat="42.28199" lon="3.15635">
        <ele>9.6</ele>
        <time>2022-05-21 09:47:58</time>
      </trkpt>
      <trkpt lat="42.28192" lon="3.15639">
        <ele>9.4</ele>
        <time>2022-05-21 09:47:59</time>
      </trkpt>
      <trkpt lat="42.28182" lon="3.15644">
        <ele>9.2</ele>
        <time>2022-05-21 09:48:00</time>
      </trkpt>
      <trkpt lat="42.28174" lon="3.15648">
        <ele>9</ele>
        <time>2022-05-21 09:48:01</time>
      </trkpt>
      <trkpt lat="42.28166" lon="3.15652">
        <ele>8.8</ele>
        <time>2022-05-21 09:48:02</time>
      </trkpt>
      <trkpt lat="42.28157" lon="3.15656">
        <ele>8.6</ele>
        <time>2022-05-21 09:48:03</time>
      </trkpt>
      <trkpt lat="42.28149" lon="3.1566">
        <ele>8.4</ele>
        <time>2022-05-21 09:48:04</time>
      </trkpt>
      <trkpt lat="42.2814" lon="3.15664">
        <ele>8.2</ele>
        <time>2022-05-21 09:48:05</time>
      </trkpt>
      <trkpt lat="42.28132" lon="3.15668">
        <ele>8</ele>
        <time>2022-05-21 09:48:06</time>
      </trkpt>
      <trkpt lat="42.28123" lon="3.15672">
        <ele>7.8</ele>
        <time>2022-05-21 09:48:07</time>
      </trkpt>
      <trkpt lat="42.28114" lon="3.15676">
        <ele>7.6</ele>
        <time>2022-05-21 09:48:08</time>
      </trkpt>
      <trkpt lat="42.28106" lon="3.15681">
        <ele>7.4</ele>
        <time>2022-05-21 09:48:09</time>
      </trkpt>
      <trkpt lat="42.28098" lon="3.15685">
        <ele>7.2</ele>
        <time>2022-05-21 09:48:10</time>
      </trkpt>
      <trkpt lat="42.2809" lon="3.15689">
        <ele>7</ele>
        <time>2022-05-21 09:48:11</time>
      </trkpt>
      <trkpt lat="42.28081" lon="3.15694">
        <ele>6.8</ele>
        <time>2022-05-21 09:48:12</time>
      </trkpt>
      <trkpt lat="42.28073" lon="3.15697">
        <ele>6.6</ele>
        <time>2022-05-21 09:48:13</time>
      </trkpt>
      <trkpt lat="42.28065" lon="3.15701">
        <ele>6.4</ele>
        <time>2022-05-21 09:48:14</time>
      </trkpt>
      <trkpt lat="42.28056" lon="3.15704">
        <ele>6.2</ele>
        <time>2022-05-21 09:48:15</time>
      </trkpt>
      <trkpt lat="42.28047" lon="3.15708">
        <ele>6</ele>
        <time>2022-05-21 09:48:16</time>
      </trkpt>
      <trkpt lat="42.28039" lon="3.15713">
        <ele>6</ele>
        <time>2022-05-21 09:48:17</time>
      </trkpt>
      <trkpt lat="42.28031" lon="3.15717">
        <ele>5.8</ele>
        <time>2022-05-21 09:48:18</time>
      </trkpt>
      <trkpt lat="42.28023" lon="3.1572">
        <ele>5.6</ele>
        <time>2022-05-21 09:48:19</time>
      </trkpt>
      <trkpt lat="42.28014" lon="3.15725">
        <ele>5.4</ele>
        <time>2022-05-21 09:48:20</time>
      </trkpt>
      <trkpt lat="42.28006" lon="3.15729">
        <ele>5.2</ele>
        <time>2022-05-21 09:48:21</time>
      </trkpt>
      <trkpt lat="42.27997" lon="3.15733">
        <ele>5.2</ele>
        <time>2022-05-21 09:48:22</time>
      </trkpt>
      <trkpt lat="42.27989" lon="3.15737">
        <ele>5</ele>
        <time>2022-05-21 09:48:23</time>
      </trkpt>
      <trkpt lat="42.27981" lon="3.15741">
        <ele>4.8</ele>
        <time>2022-05-21 09:48:24</time>
      </trkpt>
      <trkpt lat="42.27972" lon="3.15745">
        <ele>4.8</ele>
        <time>2022-05-21 09:48:25</time>
      </trkpt>
      <trkpt lat="42.27964" lon="3.15749">
        <ele>4.6</ele>
        <time>2022-05-21 09:48:26</time>
      </trkpt>
      <trkpt lat="42.27956" lon="3.15753">
        <ele>4.4</ele>
        <time>2022-05-21 09:48:27</time>
      </trkpt>
      <trkpt lat="42.27947" lon="3.15757">
        <ele>4.4</ele>
        <time>2022-05-21 09:48:28</time>
      </trkpt>
      <trkpt lat="42.27938" lon="3.15761">
        <ele>4.2</ele>
        <time>2022-05-21 09:48:29</time>
      </trkpt>
      <trkpt lat="42.2793" lon="3.15766">
        <ele>4.2</ele>
        <time>2022-05-21 09:48:30</time>
      </trkpt>
      <trkpt lat="42.27921" lon="3.1577">
        <ele>4.2</ele>
        <time>2022-05-21 09:48:31</time>
      </trkpt>
      <trkpt lat="42.27914" lon="3.15773">
        <ele>4</ele>
        <time>2022-05-21 09:48:32</time>
      </trkpt>
      <trkpt lat="42.27905" lon="3.15778">
        <ele>4</ele>
        <time>2022-05-21 09:48:33</time>
      </trkpt>
      <trkpt lat="42.27898" lon="3.15781">
        <ele>4</ele>
        <time>2022-05-21 09:48:34</time>
      </trkpt>
      <trkpt lat="42.27888" lon="3.15786">
        <ele>3.8</ele>
        <time>2022-05-21 09:48:35</time>
      </trkpt>
      <trkpt lat="42.2788" lon="3.15789">
        <ele>3.8</ele>
        <time>2022-05-21 09:48:36</time>
      </trkpt>
      <trkpt lat="42.27872" lon="3.15793">
        <ele>3.8</ele>
        <time>2022-05-21 09:48:37</time>
      </trkpt>
      <trkpt lat="42.27865" lon="3.15797">
        <ele>3.8</ele>
        <time>2022-05-21 09:48:38</time>
      </trkpt>
      <trkpt lat="42.27856" lon="3.15801">
        <ele>3.8</ele>
        <time>2022-05-21 09:48:39</time>
      </trkpt>
      <trkpt lat="42.27848" lon="3.15805">
        <ele>3.8</ele>
        <time>2022-05-21 09:48:40</time>
      </trkpt>
      <trkpt lat="42.2784" lon="3.15809">
        <ele>3.8</ele>
        <time>2022-05-21 09:48:41</time>
      </trkpt>
      <trkpt lat="42.27832" lon="3.15812">
        <ele>3.8</ele>
        <time>2022-05-21 09:48:42</time>
      </trkpt>
      <trkpt lat="42.27825" lon="3.15816">
        <ele>3.8</ele>
        <time>2022-05-21 09:48:43</time>
      </trkpt>
      <trkpt lat="42.27817" lon="3.1582">
        <ele>3.8</ele>
        <time>2022-05-21 09:48:44</time>
      </trkpt>
      <trkpt lat="42.27809" lon="3.15824">
        <ele>3.8</ele>
        <time>2022-05-21 09:48:45</time>
      </trkpt>
      <trkpt lat="42.27801" lon="3.15827">
        <ele>3.8</ele>
        <time>2022-05-21 09:48:46</time>
      </trkpt>
      <trkpt lat="42.27794" lon="3.15831">
        <ele>3.8</ele>
        <time>2022-05-21 09:48:47</time>
      </trkpt>
      <trkpt lat="42.27787" lon="3.15834">
        <ele>3.8</ele>
        <time>2022-05-21 09:48:48</time>
      </trkpt>
      <trkpt lat="42.27779" lon="3.15838">
        <ele>3.8</ele>
        <time>2022-05-21 09:48:49</time>
      </trkpt>
      <trkpt lat="42.27773" lon="3.15841">
        <ele>3.8</ele>
        <time>2022-05-21 09:48:50</time>
      </trkpt>
      <trkpt lat="42.27764" lon="3.15846">
        <ele>3.8</ele>
        <time>2022-05-21 09:48:51</time>
      </trkpt>
      <trkpt lat="42.27757" lon="3.15849">
        <ele>3.8</ele>
        <time>2022-05-21 09:48:52</time>
      </trkpt>
      <trkpt lat="42.27749" lon="3.15853">
        <ele>3.8</ele>
        <time>2022-05-21 09:48:53</time>
      </trkpt>
      <trkpt lat="42.27742" lon="3.15856">
        <ele>3.8</ele>
        <time>2022-05-21 09:48:54</time>
      </trkpt>
      <trkpt lat="42.27735" lon="3.1586">
        <ele>3.8</ele>
        <time>2022-05-21 09:48:55</time>
      </trkpt>
      <trkpt lat="42.27728" lon="3.15863">
        <ele>3.6</ele>
        <time>2022-05-21 09:48:56</time>
      </trkpt>
      <trkpt lat="42.2772" lon="3.15867">
        <ele>3.6</ele>
        <time>2022-05-21 09:48:57</time>
      </trkpt>
      <trkpt lat="42.27713" lon="3.1587">
        <ele>3.6</ele>
        <time>2022-05-21 09:48:58</time>
      </trkpt>
      <trkpt lat="42.27705" lon="3.15874">
        <ele>3.6</ele>
        <time>2022-05-21 09:48:59</time>
      </trkpt>
      <trkpt lat="42.277" lon="3.15877">
        <ele>3.4</ele>
        <time>2022-05-21 09:49:00</time>
      </trkpt>
      <trkpt lat="42.2769" lon="3.15881">
        <ele>3.4</ele>
        <time>2022-05-21 09:49:01</time>
      </trkpt>
      <trkpt lat="42.27683" lon="3.15884">
        <ele>3.4</ele>
        <time>2022-05-21 09:49:02</time>
      </trkpt>
      <trkpt lat="42.27675" lon="3.15883">
        <ele>3.4</ele>
        <time>2022-05-21 09:49:03</time>
      </trkpt>
      <trkpt lat="42.27669" lon="3.15881">
        <ele>3.2</ele>
        <time>2022-05-21 09:49:04</time>
      </trkpt>
      <trkpt lat="42.27661" lon="3.15877">
        <ele>3.2</ele>
        <time>2022-05-21 09:49:05</time>
      </trkpt>
      <trkpt lat="42.27653" lon="3.15875">
        <ele>3</ele>
        <time>2022-05-21 09:49:06</time>
      </trkpt>
      <trkpt lat="42.27645" lon="3.15876">
        <ele>2.8</ele>
        <time>2022-05-21 09:49:07</time>
      </trkpt>
      <trkpt lat="42.27639" lon="3.15879">
        <ele>2.8</ele>
        <time>2022-05-21 09:49:08</time>
      </trkpt>
      <trkpt lat="42.27633" lon="3.15886">
        <ele>2.6</ele>
        <time>2022-05-21 09:49:09</time>
      </trkpt>
      <trkpt lat="42.27629" lon="3.15894">
        <ele>2.6</ele>
        <time>2022-05-21 09:49:10</time>
      </trkpt>
      <trkpt lat="42.27626" lon="3.15904">
        <ele>2.6</ele>
        <time>2022-05-21 09:49:11</time>
      </trkpt>
      <trkpt lat="42.27626" lon="3.15912">
        <ele>2.6</ele>
        <time>2022-05-21 09:49:12</time>
      </trkpt>
      <trkpt lat="42.27628" lon="3.15922">
        <ele>2.8</ele>
        <time>2022-05-21 09:49:13</time>
      </trkpt>
      <trkpt lat="42.27631" lon="3.15929">
        <ele>2.8</ele>
        <time>2022-05-21 09:49:14</time>
      </trkpt>
      <trkpt lat="42.27636" lon="3.15936">
        <ele>3</ele>
        <time>2022-05-21 09:49:15</time>
      </trkpt>
      <trkpt lat="42.27641" lon="3.1594">
        <ele>3.2</ele>
        <time>2022-05-21 09:49:16</time>
      </trkpt>
      <trkpt lat="42.27647" lon="3.15944">
        <ele>3.2</ele>
        <time>2022-05-21 09:49:17</time>
      </trkpt>
      <trkpt lat="42.27654" lon="3.15947">
        <ele>3.4</ele>
        <time>2022-05-21 09:49:18</time>
      </trkpt>
      <trkpt lat="42.2766" lon="3.1595">
        <ele>3.6</ele>
        <time>2022-05-21 09:49:19</time>
      </trkpt>
      <trkpt lat="42.27665" lon="3.15952">
        <ele>3.8</ele>
        <time>2022-05-21 09:49:20</time>
      </trkpt>
      <trkpt lat="42.27671" lon="3.15957">
        <ele>4</ele>
        <time>2022-05-21 09:49:21</time>
      </trkpt>
      <trkpt lat="42.27675" lon="3.15961">
        <ele>4.2</ele>
        <time>2022-05-21 09:49:22</time>
      </trkpt>
      <trkpt lat="42.2768" lon="3.15968">
        <ele>4.4</ele>
        <time>2022-05-21 09:49:23</time>
      </trkpt>
      <trkpt lat="42.27684" lon="3.15973">
        <ele>4.6</ele>
        <time>2022-05-21 09:49:24</time>
      </trkpt>
      <trkpt lat="42.27687" lon="3.1598">
        <ele>4.8</ele>
        <time>2022-05-21 09:49:25</time>
      </trkpt>
      <trkpt lat="42.27691" lon="3.15986">
        <ele>5</ele>
        <time>2022-05-21 09:49:26</time>
      </trkpt>
      <trkpt lat="42.27695" lon="3.15992">
        <ele>5.2</ele>
        <time>2022-05-21 09:49:27</time>
      </trkpt>
      <trkpt lat="42.27699" lon="3.15998">
        <ele>5.4</ele>
        <time>2022-05-21 09:49:28</time>
      </trkpt>
      <trkpt lat="42.27703" lon="3.16004">
        <ele>5.6</ele>
        <time>2022-05-21 09:49:29</time>
      </trkpt>
      <trkpt lat="42.27706" lon="3.16009">
        <ele>5.8</ele>
        <time>2022-05-21 09:49:30</time>
      </trkpt>
      <trkpt lat="42.27709" lon="3.16016">
        <ele>6</ele>
        <time>2022-05-21 09:49:31</time>
      </trkpt>
      <trkpt lat="42.27713" lon="3.16022">
        <ele>6</ele>
        <time>2022-05-21 09:49:32</time>
      </trkpt>
      <trkpt lat="42.27716" lon="3.16028">
        <ele>6.2</ele>
        <time>2022-05-21 09:49:33</time>
      </trkpt>
      <trkpt lat="42.27719" lon="3.16034">
        <ele>6.4</ele>
        <time>2022-05-21 09:49:34</time>
      </trkpt>
      <trkpt lat="42.27723" lon="3.1604">
        <ele>6.6</ele>
        <time>2022-05-21 09:49:35</time>
      </trkpt>
      <trkpt lat="42.27726" lon="3.16045">
        <ele>6.6</ele>
        <time>2022-05-21 09:49:36</time>
      </trkpt>
      <trkpt lat="42.2773" lon="3.16052">
        <ele>6.8</ele>
        <time>2022-05-21 09:49:37</time>
      </trkpt>
      <trkpt lat="42.27733" lon="3.16057">
        <ele>7</ele>
        <time>2022-05-21 09:49:38</time>
      </trkpt>
      <trkpt lat="42.27736" lon="3.16063">
        <ele>7</ele>
        <time>2022-05-21 09:49:39</time>
      </trkpt>
      <trkpt lat="42.27739" lon="3.16068">
        <ele>7</ele>
        <time>2022-05-21 09:49:40</time>
      </trkpt>
      <trkpt lat="42.27743" lon="3.16075">
        <ele>7</ele>
        <time>2022-05-21 09:49:41</time>
      </trkpt>
      <trkpt lat="42.27746" lon="3.1608">
        <ele>7.2</ele>
        <time>2022-05-21 09:49:42</time>
      </trkpt>
      <trkpt lat="42.27749" lon="3.16086">
        <ele>7.2</ele>
        <time>2022-05-21 09:49:43</time>
      </trkpt>
      <trkpt lat="42.27752" lon="3.16091">
        <ele>7.4</ele>
        <time>2022-05-21 09:49:44</time>
      </trkpt>
      <trkpt lat="42.27756" lon="3.16098">
        <ele>7.4</ele>
        <time>2022-05-21 09:49:45</time>
      </trkpt>
      <trkpt lat="42.27759" lon="3.16103">
        <ele>7.6</ele>
        <time>2022-05-21 09:49:46</time>
      </trkpt>
      <trkpt lat="42.27763" lon="3.1611">
        <ele>7.6</ele>
        <time>2022-05-21 09:49:47</time>
      </trkpt>
      <trkpt lat="42.27766" lon="3.16116">
        <ele>7.6</ele>
        <time>2022-05-21 09:49:48</time>
      </trkpt>
      <trkpt lat="42.2777" lon="3.16123">
        <ele>7.8</ele>
        <time>2022-05-21 09:49:49</time>
      </trkpt>
      <trkpt lat="42.27773" lon="3.16128">
        <ele>7.8</ele>
        <time>2022-05-21 09:49:50</time>
      </trkpt>
      <trkpt lat="42.27777" lon="3.16136">
        <ele>7.8</ele>
        <time>2022-05-21 09:49:51</time>
      </trkpt>
      <trkpt lat="42.27779" lon="3.16141">
        <ele>7.8</ele>
        <time>2022-05-21 09:49:52</time>
      </trkpt>
      <trkpt lat="42.27783" lon="3.16148">
        <ele>7.8</ele>
        <time>2022-05-21 09:49:53</time>
      </trkpt>
      <trkpt lat="42.27787" lon="3.16153">
        <ele>8</ele>
        <time>2022-05-21 09:49:54</time>
      </trkpt>
      <trkpt lat="42.27791" lon="3.1616">
        <ele>8</ele>
        <time>2022-05-21 09:49:55</time>
      </trkpt>
      <trkpt lat="42.27793" lon="3.16165">
        <ele>8</ele>
        <time>2022-05-21 09:49:56</time>
      </trkpt>
      <trkpt lat="42.27798" lon="3.16174">
        <ele>8</ele>
        <time>2022-05-21 09:49:57</time>
      </trkpt>
      <trkpt lat="42.278" lon="3.16179">
        <ele>8</ele>
        <time>2022-05-21 09:49:58</time>
      </trkpt>
      <trkpt lat="42.27804" lon="3.16187">
        <ele>8</ele>
        <time>2022-05-21 09:49:59</time>
      </trkpt>
      <trkpt lat="42.27808" lon="3.16192">
        <ele>8.2</ele>
        <time>2022-05-21 09:50:00</time>
      </trkpt>
      <trkpt lat="42.27812" lon="3.162">
        <ele>8.2</ele>
        <time>2022-05-21 09:50:01</time>
      </trkpt>
      <trkpt lat="42.27815" lon="3.16205">
        <ele>8.2</ele>
        <time>2022-05-21 09:50:02</time>
      </trkpt>
      <trkpt lat="42.27819" lon="3.16213">
        <ele>8.4</ele>
        <time>2022-05-21 09:50:03</time>
      </trkpt>
      <trkpt lat="42.27822" lon="3.16219">
        <ele>8.4</ele>
        <time>2022-05-21 09:50:04</time>
      </trkpt>
      <trkpt lat="42.27826" lon="3.16227">
        <ele>8.4</ele>
        <time>2022-05-21 09:50:05</time>
      </trkpt>
      <trkpt lat="42.27829" lon="3.16232">
        <ele>8.6</ele>
        <time>2022-05-21 09:50:06</time>
      </trkpt>
      <trkpt lat="42.27834" lon="3.1624">
        <ele>8.6</ele>
        <time>2022-05-21 09:50:07</time>
      </trkpt>
      <trkpt lat="42.27836" lon="3.16245">
        <ele>8.8</ele>
        <time>2022-05-21 09:50:08</time>
      </trkpt>
      <trkpt lat="42.27841" lon="3.16253">
        <ele>8.8</ele>
        <time>2022-05-21 09:50:09</time>
      </trkpt>
      <trkpt lat="42.27844" lon="3.16259">
        <ele>8.8</ele>
        <time>2022-05-21 09:50:10</time>
      </trkpt>
      <trkpt lat="42.27848" lon="3.16267">
        <ele>9</ele>
        <time>2022-05-21 09:50:11</time>
      </trkpt>
      <trkpt lat="42.27851" lon="3.16273">
        <ele>9</ele>
        <time>2022-05-21 09:50:12</time>
      </trkpt>
      <trkpt lat="42.27856" lon="3.16281">
        <ele>9</ele>
        <time>2022-05-21 09:50:13</time>
      </trkpt>
      <trkpt lat="42.27859" lon="3.16286">
        <ele>9</ele>
        <time>2022-05-21 09:50:14</time>
      </trkpt>
      <trkpt lat="42.27864" lon="3.16295">
        <ele>9.2</ele>
        <time>2022-05-21 09:50:15</time>
      </trkpt>
      <trkpt lat="42.27866" lon="3.163">
        <ele>9.2</ele>
        <time>2022-05-21 09:50:16</time>
      </trkpt>
      <trkpt lat="42.2787" lon="3.16308">
        <ele>9.2</ele>
        <time>2022-05-21 09:50:17</time>
      </trkpt>
      <trkpt lat="42.27873" lon="3.16313">
        <ele>9.2</ele>
        <time>2022-05-21 09:50:18</time>
      </trkpt>
      <trkpt lat="42.27878" lon="3.16322">
        <ele>9.2</ele>
        <time>2022-05-21 09:50:19</time>
      </trkpt>
      <trkpt lat="42.27881" lon="3.16328">
        <ele>9.2</ele>
        <time>2022-05-21 09:50:20</time>
      </trkpt>
      <trkpt lat="42.27885" lon="3.16335">
        <ele>9.2</ele>
        <time>2022-05-21 09:50:21</time>
      </trkpt>
      <trkpt lat="42.27889" lon="3.16341">
        <ele>9.4</ele>
        <time>2022-05-21 09:50:22</time>
      </trkpt>
      <trkpt lat="42.27893" lon="3.16349">
        <ele>9.4</ele>
        <time>2022-05-21 09:50:23</time>
      </trkpt>
      <trkpt lat="42.27896" lon="3.16354">
        <ele>9.4</ele>
        <time>2022-05-21 09:50:24</time>
      </trkpt>
      <trkpt lat="42.27901" lon="3.16363">
        <ele>9.6</ele>
        <time>2022-05-21 09:50:25</time>
      </trkpt>
      <trkpt lat="42.27905" lon="3.16369">
        <ele>9.6</ele>
        <time>2022-05-21 09:50:26</time>
      </trkpt>
      <trkpt lat="42.27909" lon="3.16377">
        <ele>9.6</ele>
        <time>2022-05-21 09:50:27</time>
      </trkpt>
      <trkpt lat="42.27912" lon="3.16383">
        <ele>9.8</ele>
        <time>2022-05-21 09:50:28</time>
      </trkpt>
      <trkpt lat="42.27916" lon="3.16391">
        <ele>9.8</ele>
        <time>2022-05-21 09:50:29</time>
      </trkpt>
      <trkpt lat="42.27919" lon="3.16397">
        <ele>9.8</ele>
        <time>2022-05-21 09:50:30</time>
      </trkpt>
      <trkpt lat="42.27924" lon="3.16405">
        <ele>10</ele>
        <time>2022-05-21 09:50:31</time>
      </trkpt>
      <trkpt lat="42.27927" lon="3.16411">
        <ele>10.2</ele>
        <time>2022-05-21 09:50:32</time>
      </trkpt>
      <trkpt lat="42.27931" lon="3.16419">
        <ele>10.2</ele>
        <time>2022-05-21 09:50:33</time>
      </trkpt>
      <trkpt lat="42.27934" lon="3.16425">
        <ele>10.4</ele>
        <time>2022-05-21 09:50:34</time>
      </trkpt>
      <trkpt lat="42.27939" lon="3.16434">
        <ele>10.4</ele>
        <time>2022-05-21 09:50:35</time>
      </trkpt>
      <trkpt lat="42.27942" lon="3.1644">
        <ele>10.4</ele>
        <time>2022-05-21 09:50:36</time>
      </trkpt>
      <trkpt lat="42.27947" lon="3.16448">
        <ele>10.6</ele>
        <time>2022-05-21 09:50:37</time>
      </trkpt>
      <trkpt lat="42.2795" lon="3.16453">
        <ele>10.6</ele>
        <time>2022-05-21 09:50:38</time>
      </trkpt>
      <trkpt lat="42.27955" lon="3.16461">
        <ele>10.8</ele>
        <time>2022-05-21 09:50:39</time>
      </trkpt>
      <trkpt lat="42.27958" lon="3.16467">
        <ele>10.8</ele>
        <time>2022-05-21 09:50:40</time>
      </trkpt>
      <trkpt lat="42.27962" lon="3.16475">
        <ele>11</ele>
        <time>2022-05-21 09:50:41</time>
      </trkpt>
      <trkpt lat="42.27965" lon="3.16481">
        <ele>11.2</ele>
        <time>2022-05-21 09:50:42</time>
      </trkpt>
      <trkpt lat="42.2797" lon="3.16489">
        <ele>11.2</ele>
        <time>2022-05-21 09:50:43</time>
      </trkpt>
      <trkpt lat="42.27973" lon="3.16494">
        <ele>11.2</ele>
        <time>2022-05-21 09:50:44</time>
      </trkpt>
      <trkpt lat="42.27977" lon="3.16502">
        <ele>11.4</ele>
        <time>2022-05-21 09:50:45</time>
      </trkpt>
      <trkpt lat="42.2798" lon="3.16508">
        <ele>11.6</ele>
        <time>2022-05-21 09:50:46</time>
      </trkpt>
      <trkpt lat="42.27984" lon="3.16515">
        <ele>11.6</ele>
        <time>2022-05-21 09:50:47</time>
      </trkpt>
      <trkpt lat="42.27988" lon="3.16521">
        <ele>11.8</ele>
        <time>2022-05-21 09:50:48</time>
      </trkpt>
      <trkpt lat="42.27992" lon="3.16529">
        <ele>12</ele>
        <time>2022-05-21 09:50:49</time>
      </trkpt>
      <trkpt lat="42.27995" lon="3.16534">
        <ele>12</ele>
        <time>2022-05-21 09:50:50</time>
      </trkpt>
      <trkpt lat="42.28" lon="3.16543">
        <ele>12.2</ele>
        <time>2022-05-21 09:50:51</time>
      </trkpt>
      <trkpt lat="42.28003" lon="3.16548">
        <ele>12.2</ele>
        <time>2022-05-21 09:50:52</time>
      </trkpt>
      <trkpt lat="42.28007" lon="3.16556">
        <ele>12.4</ele>
        <time>2022-05-21 09:50:53</time>
      </trkpt>
      <trkpt lat="42.2801" lon="3.16561">
        <ele>12.4</ele>
        <time>2022-05-21 09:50:54</time>
      </trkpt>
      <trkpt lat="42.28015" lon="3.1657">
        <ele>12.6</ele>
        <time>2022-05-21 09:50:55</time>
      </trkpt>
      <trkpt lat="42.28018" lon="3.16576">
        <ele>12.8</ele>
        <time>2022-05-21 09:50:56</time>
      </trkpt>
      <trkpt lat="42.28022" lon="3.16583">
        <ele>12.8</ele>
        <time>2022-05-21 09:50:57</time>
      </trkpt>
      <trkpt lat="42.28025" lon="3.16589">
        <ele>13</ele>
        <time>2022-05-21 09:50:58</time>
      </trkpt>
      <trkpt lat="42.28029" lon="3.16597">
        <ele>13.2</ele>
        <time>2022-05-21 09:50:59</time>
      </trkpt>
      <trkpt lat="42.28032" lon="3.16603">
        <ele>13.4</ele>
        <time>2022-05-21 09:51:00</time>
      </trkpt>
      <trkpt lat="42.28036" lon="3.1661">
        <ele>13.4</ele>
        <time>2022-05-21 09:51:01</time>
      </trkpt>
      <trkpt lat="42.28039" lon="3.16615">
        <ele>13.6</ele>
        <time>2022-05-21 09:51:02</time>
      </trkpt>
      <trkpt lat="42.28043" lon="3.16624">
        <ele>13.8</ele>
        <time>2022-05-21 09:51:03</time>
      </trkpt>
      <trkpt lat="42.28046" lon="3.1663">
        <ele>14</ele>
        <time>2022-05-21 09:51:04</time>
      </trkpt>
      <trkpt lat="42.2805" lon="3.16638">
        <ele>14</ele>
        <time>2022-05-21 09:51:05</time>
      </trkpt>
      <trkpt lat="42.28052" lon="3.16643">
        <ele>14.2</ele>
        <time>2022-05-21 09:51:06</time>
      </trkpt>
      <trkpt lat="42.28057" lon="3.16652">
        <ele>14.4</ele>
        <time>2022-05-21 09:51:07</time>
      </trkpt>
      <trkpt lat="42.28059" lon="3.16657">
        <ele>14.4</ele>
        <time>2022-05-21 09:51:08</time>
      </trkpt>
      <trkpt lat="42.28063" lon="3.16665">
        <ele>14.6</ele>
        <time>2022-05-21 09:51:09</time>
      </trkpt>
      <trkpt lat="42.28066" lon="3.16671">
        <ele>14.6</ele>
        <time>2022-05-21 09:51:10</time>
      </trkpt>
      <trkpt lat="42.28071" lon="3.16679">
        <ele>14.8</ele>
        <time>2022-05-21 09:51:11</time>
      </trkpt>
      <trkpt lat="42.28074" lon="3.16685">
        <ele>15</ele>
        <time>2022-05-21 09:51:12</time>
      </trkpt>
      <trkpt lat="42.28078" lon="3.16693">
        <ele>15</ele>
        <time>2022-05-21 09:51:13</time>
      </trkpt>
      <trkpt lat="42.28081" lon="3.16698">
        <ele>15.2</ele>
        <time>2022-05-21 09:51:14</time>
      </trkpt>
      <trkpt lat="42.28085" lon="3.16706">
        <ele>15.2</ele>
        <time>2022-05-21 09:51:15</time>
      </trkpt>
      <trkpt lat="42.28087" lon="3.16711">
        <ele>15.4</ele>
        <time>2022-05-21 09:51:16</time>
      </trkpt>
      <trkpt lat="42.28092" lon="3.1672">
        <ele>15.6</ele>
        <time>2022-05-21 09:51:17</time>
      </trkpt>
      <trkpt lat="42.28095" lon="3.16725">
        <ele>15.8</ele>
        <time>2022-05-21 09:51:18</time>
      </trkpt>
      <trkpt lat="42.281" lon="3.16733">
        <ele>15.8</ele>
        <time>2022-05-21 09:51:19</time>
      </trkpt>
      <trkpt lat="42.28103" lon="3.16738">
        <ele>16</ele>
        <time>2022-05-21 09:51:20</time>
      </trkpt>
      <trkpt lat="42.28107" lon="3.16746">
        <ele>16.2</ele>
        <time>2022-05-21 09:51:21</time>
      </trkpt>
      <trkpt lat="42.2811" lon="3.16751">
        <ele>16.2</ele>
        <time>2022-05-21 09:51:22</time>
      </trkpt>
      <trkpt lat="42.28114" lon="3.16759">
        <ele>16.2</ele>
        <time>2022-05-21 09:51:23</time>
      </trkpt>
      <trkpt lat="42.28117" lon="3.16764">
        <ele>16.4</ele>
        <time>2022-05-21 09:51:24</time>
      </trkpt>
      <trkpt lat="42.28121" lon="3.16772">
        <ele>16.4</ele>
        <time>2022-05-21 09:51:25</time>
      </trkpt>
      <trkpt lat="42.28124" lon="3.16777">
        <ele>16.6</ele>
        <time>2022-05-21 09:51:26</time>
      </trkpt>
      <trkpt lat="42.28129" lon="3.16784">
        <ele>16.8</ele>
        <time>2022-05-21 09:51:27</time>
      </trkpt>
      <trkpt lat="42.28131" lon="3.1679">
        <ele>16.8</ele>
        <time>2022-05-21 09:51:28</time>
      </trkpt>
      <trkpt lat="42.28136" lon="3.16797">
        <ele>17</ele>
        <time>2022-05-21 09:51:29</time>
      </trkpt>
      <trkpt lat="42.28139" lon="3.16803">
        <ele>17.2</ele>
        <time>2022-05-21 09:51:30</time>
      </trkpt>
      <trkpt lat="42.28143" lon="3.16811">
        <ele>17.4</ele>
        <time>2022-05-21 09:51:31</time>
      </trkpt>
      <trkpt lat="42.28146" lon="3.16816">
        <ele>17.4</ele>
        <time>2022-05-21 09:51:32</time>
      </trkpt>
      <trkpt lat="42.2815" lon="3.16824">
        <ele>17.6</ele>
        <time>2022-05-21 09:51:33</time>
      </trkpt>
      <trkpt lat="42.28153" lon="3.16829">
        <ele>17.6</ele>
        <time>2022-05-21 09:51:34</time>
      </trkpt>
      <trkpt lat="42.28157" lon="3.16837">
        <ele>17.8</ele>
        <time>2022-05-21 09:51:35</time>
      </trkpt>
      <trkpt lat="42.2816" lon="3.16842">
        <ele>18</ele>
        <time>2022-05-21 09:51:36</time>
      </trkpt>
      <trkpt lat="42.28164" lon="3.1685">
        <ele>18</ele>
        <time>2022-05-21 09:51:37</time>
      </trkpt>
      <trkpt lat="42.28167" lon="3.16855">
        <ele>18.2</ele>
        <time>2022-05-21 09:51:38</time>
      </trkpt>
      <trkpt lat="42.28172" lon="3.16863">
        <ele>18.4</ele>
        <time>2022-05-21 09:51:39</time>
      </trkpt>
      <trkpt lat="42.28175" lon="3.16868">
        <ele>18.6</ele>
        <time>2022-05-21 09:51:40</time>
      </trkpt>
      <trkpt lat="42.28179" lon="3.16875">
        <ele>18.8</ele>
        <time>2022-05-21 09:51:41</time>
      </trkpt>
      <trkpt lat="42.28182" lon="3.16879">
        <ele>18.8</ele>
        <time>2022-05-21 09:51:42</time>
      </trkpt>
      <trkpt lat="42.28186" lon="3.16887">
        <ele>19</ele>
        <time>2022-05-21 09:51:43</time>
      </trkpt>
      <trkpt lat="42.2819" lon="3.16893">
        <ele>19.2</ele>
        <time>2022-05-21 09:51:44</time>
      </trkpt>
      <trkpt lat="42.28193" lon="3.169">
        <ele>19.2</ele>
        <time>2022-05-21 09:51:45</time>
      </trkpt>
      <trkpt lat="42.28196" lon="3.16905">
        <ele>19.4</ele>
        <time>2022-05-21 09:51:46</time>
      </trkpt>
      <trkpt lat="42.282" lon="3.16912">
        <ele>19.6</ele>
        <time>2022-05-21 09:51:47</time>
      </trkpt>
      <trkpt lat="42.28203" lon="3.16917">
        <ele>19.8</ele>
        <time>2022-05-21 09:51:48</time>
      </trkpt>
      <trkpt lat="42.28208" lon="3.16924">
        <ele>20</ele>
        <time>2022-05-21 09:51:49</time>
      </trkpt>
      <trkpt lat="42.28211" lon="3.16929">
        <ele>20</ele>
        <time>2022-05-21 09:51:50</time>
      </trkpt>
      <trkpt lat="42.28215" lon="3.16936">
        <ele>20.2</ele>
        <time>2022-05-21 09:51:51</time>
      </trkpt>
      <trkpt lat="42.28219" lon="3.16941">
        <ele>20.4</ele>
        <time>2022-05-21 09:51:52</time>
      </trkpt>
      <trkpt lat="42.28222" lon="3.16948">
        <ele>20.6</ele>
        <time>2022-05-21 09:51:53</time>
      </trkpt>
      <trkpt lat="42.28225" lon="3.16953">
        <ele>20.8</ele>
        <time>2022-05-21 09:51:54</time>
      </trkpt>
      <trkpt lat="42.28229" lon="3.1696">
        <ele>21</ele>
        <time>2022-05-21 09:51:55</time>
      </trkpt>
      <trkpt lat="42.28232" lon="3.16965">
        <ele>21</ele>
        <time>2022-05-21 09:51:56</time>
      </trkpt>
      <trkpt lat="42.28236" lon="3.16972">
        <ele>21.2</ele>
        <time>2022-05-21 09:51:57</time>
      </trkpt>
      <trkpt lat="42.28239" lon="3.16977">
        <ele>21.2</ele>
        <time>2022-05-21 09:51:58</time>
      </trkpt>
      <trkpt lat="42.28243" lon="3.16985">
        <ele>21.4</ele>
        <time>2022-05-21 09:51:59</time>
      </trkpt>
      <trkpt lat="42.28246" lon="3.1699">
        <ele>21.6</ele>
        <time>2022-05-21 09:52:00</time>
      </trkpt>
      <trkpt lat="42.2825" lon="3.16997">
        <ele>21.6</ele>
        <time>2022-05-21 09:52:01</time>
      </trkpt>
      <trkpt lat="42.28253" lon="3.17002">
        <ele>21.8</ele>
        <time>2022-05-21 09:52:02</time>
      </trkpt>
      <trkpt lat="42.28257" lon="3.1701">
        <ele>22</ele>
        <time>2022-05-21 09:52:03</time>
      </trkpt>
      <trkpt lat="42.28259" lon="3.17015">
        <ele>22</ele>
        <time>2022-05-21 09:52:04</time>
      </trkpt>
      <trkpt lat="42.28264" lon="3.17022">
        <ele>22.2</ele>
        <time>2022-05-21 09:52:05</time>
      </trkpt>
      <trkpt lat="42.28266" lon="3.17027">
        <ele>22.2</ele>
        <time>2022-05-21 09:52:06</time>
      </trkpt>
      <trkpt lat="42.2827" lon="3.17034">
        <ele>22.4</ele>
        <time>2022-05-21 09:52:07</time>
      </trkpt>
      <trkpt lat="42.28273" lon="3.17039">
        <ele>22.4</ele>
        <time>2022-05-21 09:52:08</time>
      </trkpt>
      <trkpt lat="42.28277" lon="3.17047">
        <ele>22.6</ele>
        <time>2022-05-21 09:52:09</time>
      </trkpt>
      <trkpt lat="42.2828" lon="3.17052">
        <ele>22.8</ele>
        <time>2022-05-21 09:52:10</time>
      </trkpt>
      <trkpt lat="42.28284" lon="3.17059">
        <ele>22.8</ele>
        <time>2022-05-21 09:52:11</time>
      </trkpt>
      <trkpt lat="42.28286" lon="3.17064">
        <ele>23</ele>
        <time>2022-05-21 09:52:12</time>
      </trkpt>
      <trkpt lat="42.2829" lon="3.17071">
        <ele>23.2</ele>
        <time>2022-05-21 09:52:13</time>
      </trkpt>
      <trkpt lat="42.28293" lon="3.17075">
        <ele>23.4</ele>
        <time>2022-05-21 09:52:14</time>
      </trkpt>
      <trkpt lat="42.28297" lon="3.17083">
        <ele>23.6</ele>
        <time>2022-05-21 09:52:15</time>
      </trkpt>
      <trkpt lat="42.283" lon="3.17089">
        <ele>23.6</ele>
        <time>2022-05-21 09:52:16</time>
      </trkpt>
      <trkpt lat="42.28303" lon="3.17096">
        <ele>23.8</ele>
        <time>2022-05-21 09:52:17</time>
      </trkpt>
      <trkpt lat="42.28306" lon="3.17101">
        <ele>24</ele>
        <time>2022-05-21 09:52:18</time>
      </trkpt>
      <trkpt lat="42.2831" lon="3.1711">
        <ele>24</ele>
        <time>2022-05-21 09:52:19</time>
      </trkpt>
      <trkpt lat="42.28313" lon="3.17115">
        <ele>24</ele>
        <time>2022-05-21 09:52:20</time>
      </trkpt>
      <trkpt lat="42.28316" lon="3.17123">
        <ele>24.2</ele>
        <time>2022-05-21 09:52:21</time>
      </trkpt>
      <trkpt lat="42.28319" lon="3.17129">
        <ele>24.2</ele>
        <time>2022-05-21 09:52:22</time>
      </trkpt>
      <trkpt lat="42.28323" lon="3.17136">
        <ele>24.4</ele>
        <time>2022-05-21 09:52:23</time>
      </trkpt>
      <trkpt lat="42.28325" lon="3.17141">
        <ele>24.4</ele>
        <time>2022-05-21 09:52:24</time>
      </trkpt>
      <trkpt lat="42.28329" lon="3.17149">
        <ele>24.6</ele>
        <time>2022-05-21 09:52:25</time>
      </trkpt>
      <trkpt lat="42.28332" lon="3.17155">
        <ele>24.8</ele>
        <time>2022-05-21 09:52:26</time>
      </trkpt>
      <trkpt lat="42.28337" lon="3.17162">
        <ele>24.8</ele>
        <time>2022-05-21 09:52:27</time>
      </trkpt>
      <trkpt lat="42.2834" lon="3.17167">
        <ele>24.8</ele>
        <time>2022-05-21 09:52:28</time>
      </trkpt>
      <trkpt lat="42.28344" lon="3.17175">
        <ele>25</ele>
        <time>2022-05-21 09:52:29</time>
      </trkpt>
      <trkpt lat="42.28347" lon="3.1718">
        <ele>25</ele>
        <time>2022-05-21 09:52:30</time>
      </trkpt>
      <trkpt lat="42.28352" lon="3.17188">
        <ele>25.2</ele>
        <time>2022-05-21 09:52:31</time>
      </trkpt>
      <trkpt lat="42.28355" lon="3.17194">
        <ele>25.2</ele>
        <time>2022-05-21 09:52:32</time>
      </trkpt>
      <trkpt lat="42.28359" lon="3.17201">
        <ele>25.2</ele>
        <time>2022-05-21 09:52:33</time>
      </trkpt>
      <trkpt lat="42.28362" lon="3.17206">
        <ele>25.2</ele>
        <time>2022-05-21 09:52:34</time>
      </trkpt>
      <trkpt lat="42.28367" lon="3.17215">
        <ele>25.2</ele>
        <time>2022-05-21 09:52:35</time>
      </trkpt>
      <trkpt lat="42.2837" lon="3.17221">
        <ele>25.2</ele>
        <time>2022-05-21 09:52:36</time>
      </trkpt>
      <trkpt lat="42.28375" lon="3.17228">
        <ele>25.2</ele>
        <time>2022-05-21 09:52:37</time>
      </trkpt>
      <trkpt lat="42.28378" lon="3.17234">
        <ele>25.2</ele>
        <time>2022-05-21 09:52:38</time>
      </trkpt>
      <trkpt lat="42.28382" lon="3.17242">
        <ele>25.4</ele>
        <time>2022-05-21 09:52:39</time>
      </trkpt>
      <trkpt lat="42.28385" lon="3.17248">
        <ele>25.4</ele>
        <time>2022-05-21 09:52:40</time>
      </trkpt>
      <trkpt lat="42.2839" lon="3.17256">
        <ele>25.4</ele>
        <time>2022-05-21 09:52:41</time>
      </trkpt>
      <trkpt lat="42.28393" lon="3.17262">
        <ele>25.4</ele>
        <time>2022-05-21 09:52:42</time>
      </trkpt>
      <trkpt lat="42.28397" lon="3.1727">
        <ele>25.6</ele>
        <time>2022-05-21 09:52:43</time>
      </trkpt>
      <trkpt lat="42.284" lon="3.17275">
        <ele>25.6</ele>
        <time>2022-05-21 09:52:44</time>
      </trkpt>
      <trkpt lat="42.28405" lon="3.17284">
        <ele>25.6</ele>
        <time>2022-05-21 09:52:45</time>
      </trkpt>
      <trkpt lat="42.28408" lon="3.1729">
        <ele>25.6</ele>
        <time>2022-05-21 09:52:46</time>
      </trkpt>
      <trkpt lat="42.28413" lon="3.17298">
        <ele>25.6</ele>
        <time>2022-05-21 09:52:47</time>
      </trkpt>
      <trkpt lat="42.28415" lon="3.17303">
        <ele>25.6</ele>
        <time>2022-05-21 09:52:48</time>
      </trkpt>
      <trkpt lat="42.2842" lon="3.17313">
        <ele>25.6</ele>
        <time>2022-05-21 09:52:49</time>
      </trkpt>
      <trkpt lat="42.28424" lon="3.17319">
        <ele>25.6</ele>
        <time>2022-05-21 09:52:50</time>
      </trkpt>
      <trkpt lat="42.28428" lon="3.17327">
        <ele>25.8</ele>
        <time>2022-05-21 09:52:51</time>
      </trkpt>
      <trkpt lat="42.28432" lon="3.17332">
        <ele>25.8</ele>
        <time>2022-05-21 09:52:52</time>
      </trkpt>
      <trkpt lat="42.28436" lon="3.1734">
        <ele>25.8</ele>
        <time>2022-05-21 09:52:53</time>
      </trkpt>
      <trkpt lat="42.28439" lon="3.17346">
        <ele>25.8</ele>
        <time>2022-05-21 09:52:54</time>
      </trkpt>
      <trkpt lat="42.28445" lon="3.17355">
        <ele>25.8</ele>
        <time>2022-05-21 09:52:55</time>
      </trkpt>
      <trkpt lat="42.28448" lon="3.1736">
        <ele>25.8</ele>
        <time>2022-05-21 09:52:56</time>
      </trkpt>
      <trkpt lat="42.28453" lon="3.17368">
        <ele>25.8</ele>
        <time>2022-05-21 09:52:57</time>
      </trkpt>
      <trkpt lat="42.28456" lon="3.17374">
        <ele>25.8</ele>
        <time>2022-05-21 09:52:58</time>
      </trkpt>
      <trkpt lat="42.28461" lon="3.17382">
        <ele>25.8</ele>
        <time>2022-05-21 09:52:59</time>
      </trkpt>
      <trkpt lat="42.28465" lon="3.17387">
        <ele>25.8</ele>
        <time>2022-05-21 09:53:00</time>
      </trkpt>
      <trkpt lat="42.2847" lon="3.17395">
        <ele>25.8</ele>
        <time>2022-05-21 09:53:01</time>
      </trkpt>
      <trkpt lat="42.28474" lon="3.174">
        <ele>25.8</ele>
        <time>2022-05-21 09:53:02</time>
      </trkpt>
      <trkpt lat="42.28479" lon="3.17408">
        <ele>25.8</ele>
        <time>2022-05-21 09:53:03</time>
      </trkpt>
      <trkpt lat="42.28482" lon="3.17414">
        <ele>25.8</ele>
        <time>2022-05-21 09:53:04</time>
      </trkpt>
      <trkpt lat="42.28487" lon="3.17422">
        <ele>25.8</ele>
        <time>2022-05-21 09:53:05</time>
      </trkpt>
      <trkpt lat="42.2849" lon="3.17428">
        <ele>25.8</ele>
        <time>2022-05-21 09:53:06</time>
      </trkpt>
      <trkpt lat="42.28495" lon="3.17436">
        <ele>25.8</ele>
        <time>2022-05-21 09:53:07</time>
      </trkpt>
      <trkpt lat="42.28498" lon="3.17442">
        <ele>25.8</ele>
        <time>2022-05-21 09:53:08</time>
      </trkpt>
      <trkpt lat="42.28503" lon="3.1745">
        <ele>26</ele>
        <time>2022-05-21 09:53:09</time>
      </trkpt>
      <trkpt lat="42.28506" lon="3.17455">
        <ele>26</ele>
        <time>2022-05-21 09:53:10</time>
      </trkpt>
      <trkpt lat="42.2851" lon="3.17463">
        <ele>26</ele>
        <time>2022-05-21 09:53:11</time>
      </trkpt>
      <trkpt lat="42.28513" lon="3.17469">
        <ele>26</ele>
        <time>2022-05-21 09:53:12</time>
      </trkpt>
      <trkpt lat="42.28518" lon="3.17477">
        <ele>26</ele>
        <time>2022-05-21 09:53:13</time>
      </trkpt>
      <trkpt lat="42.28521" lon="3.17482">
        <ele>26</ele>
        <time>2022-05-21 09:53:14</time>
      </trkpt>
      <trkpt lat="42.28525" lon="3.1749">
        <ele>26</ele>
        <time>2022-05-21 09:53:15</time>
      </trkpt>
      <trkpt lat="42.28529" lon="3.17496">
        <ele>26</ele>
        <time>2022-05-21 09:53:16</time>
      </trkpt>
      <trkpt lat="42.28533" lon="3.17503">
        <ele>26.2</ele>
        <time>2022-05-21 09:53:17</time>
      </trkpt>
      <trkpt lat="42.28536" lon="3.17508">
        <ele>26.2</ele>
        <time>2022-05-21 09:53:18</time>
      </trkpt>
      <trkpt lat="42.2854" lon="3.17517">
        <ele>26.2</ele>
        <time>2022-05-21 09:53:19</time>
      </trkpt>
      <trkpt lat="42.28544" lon="3.17523">
        <ele>26.2</ele>
        <time>2022-05-21 09:53:20</time>
      </trkpt>
      <trkpt lat="42.28547" lon="3.1753">
        <ele>26.2</ele>
        <time>2022-05-21 09:53:21</time>
      </trkpt>
      <trkpt lat="42.2855" lon="3.17536">
        <ele>26.2</ele>
        <time>2022-05-21 09:53:22</time>
      </trkpt>
      <trkpt lat="42.28554" lon="3.17543">
        <ele>26.2</ele>
        <time>2022-05-21 09:53:23</time>
      </trkpt>
      <trkpt lat="42.28557" lon="3.17548">
        <ele>26.4</ele>
        <time>2022-05-21 09:53:24</time>
      </trkpt>
      <trkpt lat="42.28562" lon="3.17556">
        <ele>26.4</ele>
        <time>2022-05-21 09:53:25</time>
      </trkpt>
      <trkpt lat="42.28564" lon="3.17561">
        <ele>26.4</ele>
        <time>2022-05-21 09:53:26</time>
      </trkpt>
      <trkpt lat="42.28569" lon="3.17568">
        <ele>26.4</ele>
        <time>2022-05-21 09:53:27</time>
      </trkpt>
      <trkpt lat="42.28572" lon="3.17573">
        <ele>26.6</ele>
        <time>2022-05-21 09:53:28</time>
      </trkpt>
      <trkpt lat="42.28576" lon="3.17581">
        <ele>26.6</ele>
        <time>2022-05-21 09:53:29</time>
      </trkpt>
      <trkpt lat="42.28579" lon="3.17586">
        <ele>26.8</ele>
        <time>2022-05-21 09:53:30</time>
      </trkpt>
      <trkpt lat="42.28582" lon="3.17594">
        <ele>27</ele>
        <time>2022-05-21 09:53:31</time>
      </trkpt>
      <trkpt lat="42.28585" lon="3.17599">
        <ele>27</ele>
        <time>2022-05-21 09:53:32</time>
      </trkpt>
      <trkpt lat="42.28589" lon="3.17607">
        <ele>27.2</ele>
        <time>2022-05-21 09:53:33</time>
      </trkpt>
      <trkpt lat="42.28591" lon="3.17611">
        <ele>27.4</ele>
        <time>2022-05-21 09:53:34</time>
      </trkpt>
      <trkpt lat="42.28594" lon="3.17619">
        <ele>27.6</ele>
        <time>2022-05-21 09:53:35</time>
      </trkpt>
      <trkpt lat="42.28596" lon="3.17624">
        <ele>27.8</ele>
        <time>2022-05-21 09:53:36</time>
      </trkpt>
      <trkpt lat="42.28599" lon="3.17632">
        <ele>28</ele>
        <time>2022-05-21 09:53:37</time>
      </trkpt>
      <trkpt lat="42.286" lon="3.17636">
        <ele>28.2</ele>
        <time>2022-05-21 09:53:38</time>
      </trkpt>
      <trkpt lat="42.28603" lon="3.17644">
        <ele>28.4</ele>
        <time>2022-05-21 09:53:39</time>
      </trkpt>
      <trkpt lat="42.28604" lon="3.17649">
        <ele>28.6</ele>
        <time>2022-05-21 09:53:40</time>
      </trkpt>
      <trkpt lat="42.28606" lon="3.17657">
        <ele>28.8</ele>
        <time>2022-05-21 09:53:41</time>
      </trkpt>
      <trkpt lat="42.28607" lon="3.17662">
        <ele>29</ele>
        <time>2022-05-21 09:53:42</time>
      </trkpt>
      <trkpt lat="42.28608" lon="3.17669">
        <ele>29.2</ele>
        <time>2022-05-21 09:53:43</time>
      </trkpt>
      <trkpt lat="42.2861" lon="3.17673">
        <ele>29.4</ele>
        <time>2022-05-21 09:53:44</time>
      </trkpt>
      <trkpt lat="42.28611" lon="3.17681">
        <ele>29.6</ele>
        <time>2022-05-21 09:53:45</time>
      </trkpt>
      <trkpt lat="42.28612" lon="3.17686">
        <ele>29.8</ele>
        <time>2022-05-21 09:53:46</time>
      </trkpt>
      <trkpt lat="42.28614" lon="3.17692">
        <ele>30</ele>
        <time>2022-05-21 09:53:47</time>
      </trkpt>
      <trkpt lat="42.28615" lon="3.17697">
        <ele>30.2</ele>
        <time>2022-05-21 09:53:48</time>
      </trkpt>
      <trkpt lat="42.28616" lon="3.17705">
        <ele>30.4</ele>
        <time>2022-05-21 09:53:49</time>
      </trkpt>
      <trkpt lat="42.28617" lon="3.1771">
        <ele>30.6</ele>
        <time>2022-05-21 09:53:50</time>
      </trkpt>
      <trkpt lat="42.28618" lon="3.17717">
        <ele>30.8</ele>
        <time>2022-05-21 09:53:51</time>
      </trkpt>
      <trkpt lat="42.28618" lon="3.17722">
        <ele>31</ele>
        <time>2022-05-21 09:53:52</time>
      </trkpt>
      <trkpt lat="42.28619" lon="3.1773">
        <ele>31</ele>
        <time>2022-05-21 09:53:53</time>
      </trkpt>
      <trkpt lat="42.2862" lon="3.17735">
        <ele>31.2</ele>
        <time>2022-05-21 09:53:54</time>
      </trkpt>
      <trkpt lat="42.28622" lon="3.17742">
        <ele>31.4</ele>
        <time>2022-05-21 09:53:55</time>
      </trkpt>
      <trkpt lat="42.28623" lon="3.17748">
        <ele>31.6</ele>
        <time>2022-05-21 09:53:56</time>
      </trkpt>
      <trkpt lat="42.28624" lon="3.17754">
        <ele>31.6</ele>
        <time>2022-05-21 09:53:57</time>
      </trkpt>
      <trkpt lat="42.28625" lon="3.17759">
        <ele>31.8</ele>
        <time>2022-05-21 09:53:58</time>
      </trkpt>
      <trkpt lat="42.28627" lon="3.17766">
        <ele>32</ele>
        <time>2022-05-21 09:53:59</time>
      </trkpt>
      <trkpt lat="42.28628" lon="3.17771">
        <ele>32.2</ele>
        <time>2022-05-21 09:54:00</time>
      </trkpt>
      <trkpt lat="42.28629" lon="3.17778">
        <ele>32.2</ele>
        <time>2022-05-21 09:54:01</time>
      </trkpt>
      <trkpt lat="42.2863" lon="3.17783">
        <ele>32.4</ele>
        <time>2022-05-21 09:54:02</time>
      </trkpt>
      <trkpt lat="42.2863" lon="3.17791">
        <ele>32.6</ele>
        <time>2022-05-21 09:54:03</time>
      </trkpt>
      <trkpt lat="42.28631" lon="3.17796">
        <ele>32.6</ele>
        <time>2022-05-21 09:54:04</time>
      </trkpt>
      <trkpt lat="42.28632" lon="3.17804">
        <ele>32.8</ele>
        <time>2022-05-21 09:54:05</time>
      </trkpt>
      <trkpt lat="42.28633" lon="3.17808">
        <ele>33</ele>
        <time>2022-05-21 09:54:06</time>
      </trkpt>
      <trkpt lat="42.28634" lon="3.17815">
        <ele>33</ele>
        <time>2022-05-21 09:54:07</time>
      </trkpt>
      <trkpt lat="42.28635" lon="3.17821">
        <ele>33.2</ele>
        <time>2022-05-21 09:54:08</time>
      </trkpt>
      <trkpt lat="42.28636" lon="3.17826">
        <ele>33.4</ele>
        <time>2022-05-21 09:54:09</time>
      </trkpt>
      <trkpt lat="42.28637" lon="3.17832">
        <ele>33.6</ele>
        <time>2022-05-21 09:54:10</time>
      </trkpt>
      <trkpt lat="42.28639" lon="3.17837">
        <ele>33.6</ele>
        <time>2022-05-21 09:54:11</time>
      </trkpt>
      <trkpt lat="42.2864" lon="3.17841">
        <ele>33.8</ele>
        <time>2022-05-21 09:54:12</time>
      </trkpt>
      <trkpt lat="42.28642" lon="3.17848">
        <ele>33.8</ele>
        <time>2022-05-21 09:54:13</time>
      </trkpt>
      <trkpt lat="42.28644" lon="3.17853">
        <ele>34</ele>
        <time>2022-05-21 09:54:14</time>
      </trkpt>
      <trkpt lat="42.28645" lon="3.17858">
        <ele>34.2</ele>
        <time>2022-05-21 09:54:15</time>
      </trkpt>
      <trkpt lat="42.28648" lon="3.17864">
        <ele>34.2</ele>
        <time>2022-05-21 09:54:16</time>
      </trkpt>
      <trkpt lat="42.2865" lon="3.17868">
        <ele>34.4</ele>
        <time>2022-05-21 09:54:17</time>
      </trkpt>
      <trkpt lat="42.28653" lon="3.17873">
        <ele>34.6</ele>
        <time>2022-05-21 09:54:18</time>
      </trkpt>
      <trkpt lat="42.28656" lon="3.17878">
        <ele>34.6</ele>
        <time>2022-05-21 09:54:19</time>
      </trkpt>
      <trkpt lat="42.28658" lon="3.17882">
        <ele>34.8</ele>
        <time>2022-05-21 09:54:20</time>
      </trkpt>
      <trkpt lat="42.28661" lon="3.17888">
        <ele>34.8</ele>
        <time>2022-05-21 09:54:21</time>
      </trkpt>
      <trkpt lat="42.28664" lon="3.17892">
        <ele>35</ele>
        <time>2022-05-21 09:54:22</time>
      </trkpt>
      <trkpt lat="42.28666" lon="3.17896">
        <ele>35.2</ele>
        <time>2022-05-21 09:54:23</time>
      </trkpt>
      <trkpt lat="42.2867" lon="3.17901">
        <ele>35.2</ele>
        <time>2022-05-21 09:54:24</time>
      </trkpt>
      <trkpt lat="42.28673" lon="3.17906">
        <ele>35.4</ele>
        <time>2022-05-21 09:54:25</time>
      </trkpt>
      <trkpt lat="42.28675" lon="3.17909">
        <ele>35.4</ele>
        <time>2022-05-21 09:54:26</time>
      </trkpt>
      <trkpt lat="42.28678" lon="3.17914">
        <ele>35.6</ele>
        <time>2022-05-21 09:54:27</time>
      </trkpt>
      <trkpt lat="42.28681" lon="3.17918">
        <ele>35.6</ele>
        <time>2022-05-21 09:54:28</time>
      </trkpt>
      <trkpt lat="42.28684" lon="3.17922">
        <ele>35.6</ele>
        <time>2022-05-21 09:54:29</time>
      </trkpt>
      <trkpt lat="42.28687" lon="3.17927">
        <ele>35.8</ele>
        <time>2022-05-21 09:54:30</time>
      </trkpt>
      <trkpt lat="42.28691" lon="3.17931">
        <ele>35.8</ele>
        <time>2022-05-21 09:54:31</time>
      </trkpt>
      <trkpt lat="42.28693" lon="3.17934">
        <ele>35.8</ele>
        <time>2022-05-21 09:54:32</time>
      </trkpt>
      <trkpt lat="42.28696" lon="3.17939">
        <ele>36</ele>
        <time>2022-05-21 09:54:33</time>
      </trkpt>
      <trkpt lat="42.287" lon="3.17943">
        <ele>36.2</ele>
        <time>2022-05-21 09:54:34</time>
      </trkpt>
      <trkpt lat="42.28703" lon="3.17947">
        <ele>36.2</ele>
        <time>2022-05-21 09:54:35</time>
      </trkpt>
      <trkpt lat="42.28706" lon="3.17952">
        <ele>36.4</ele>
        <time>2022-05-21 09:54:36</time>
      </trkpt>
      <trkpt lat="42.28709" lon="3.17956">
        <ele>36.6</ele>
        <time>2022-05-21 09:54:37</time>
      </trkpt>
      <trkpt lat="42.28712" lon="3.1796">
        <ele>36.8</ele>
        <time>2022-05-21 09:54:38</time>
      </trkpt>
      <trkpt lat="42.28715" lon="3.17964">
        <ele>37</ele>
        <time>2022-05-21 09:54:39</time>
      </trkpt>
      <trkpt lat="42.28718" lon="3.17967">
        <ele>37.2</ele>
        <time>2022-05-21 09:54:40</time>
      </trkpt>
      <trkpt lat="42.2872" lon="3.1797">
        <ele>37.2</ele>
        <time>2022-05-21 09:54:41</time>
      </trkpt>
      <trkpt lat="42.28723" lon="3.17975">
        <ele>37.4</ele>
        <time>2022-05-21 09:54:42</time>
      </trkpt>
      <trkpt lat="42.28726" lon="3.17979">
        <ele>37.6</ele>
        <time>2022-05-21 09:54:43</time>
      </trkpt>
      <trkpt lat="42.28726" lon="3.17979">
        <ele>37.8</ele>
        <time>2022-05-21 09:54:44</time>
      </trkpt>
      <trkpt lat="42.28885" lon="3.18187">
        <time>2022-05-21 09:58:21</time>
      </trkpt>
      <trkpt lat="42.28887" lon="3.18188">
        <time>2022-05-21 09:58:22</time>
      </trkpt>
      <trkpt lat="42.28889" lon="3.1819">
        <time>2022-05-21 09:58:23</time>
      </trkpt>
      <trkpt lat="42.28891" lon="3.18191">
        <time>2022-05-21 09:58:24</time>
      </trkpt>
      <trkpt lat="42.28894" lon="3.18193">
        <time>2022-05-21 09:58:25</time>
      </trkpt>
      <trkpt lat="42.28896" lon="3.18195">
        <time>2022-05-21 09:58:26</time>
      </trkpt>
      <trkpt lat="42.28899" lon="3.18197">
        <time>2022-05-21 09:58:27</time>
      </trkpt>
      <trkpt lat="42.28902" lon="3.182">
        <time>2022-05-21 09:58:28</time>
      </trkpt>
      <trkpt lat="42.28904" lon="3.18202">
        <time>2022-05-21 09:58:29</time>
      </trkpt>
      <trkpt lat="42.28907" lon="3.18204">
        <time>2022-05-21 09:58:30</time>
      </trkpt>
      <trkpt lat="42.2891" lon="3.18205">
        <time>2022-05-21 09:58:31</time>
      </trkpt>
      <trkpt lat="42.28913" lon="3.18207">
        <time>2022-05-21 09:58:32</time>
      </trkpt>
      <trkpt lat="42.28916" lon="3.18209">
        <time>2022-05-21 09:58:33</time>
      </trkpt>
      <trkpt lat="42.28918" lon="3.1821">
        <time>2022-05-21 09:58:34</time>
      </trkpt>
      <trkpt lat="42.2892" lon="3.18212">
        <time>2022-05-21 09:58:35</time>
      </trkpt>
      <trkpt lat="42.28924" lon="3.18214">
        <time>2022-05-21 09:58:36</time>
      </trkpt>
      <trkpt lat="42.28926" lon="3.18216">
        <time>2022-05-21 09:58:37</time>
      </trkpt>
      <trkpt lat="42.28929" lon="3.18218">
        <time>2022-05-21 09:58:38</time>
      </trkpt>
      <trkpt lat="42.28932" lon="3.1822">
        <time>2022-05-21 09:58:39</time>
      </trkpt>
      <trkpt lat="42.28935" lon="3.18222">
        <time>2022-05-21 09:58:40</time>
      </trkpt>
      <trkpt lat="42.28937" lon="3.18224">
        <time>2022-05-21 09:58:41</time>
      </trkpt>
      <trkpt lat="42.28939" lon="3.18227">
        <time>2022-05-21 09:58:42</time>
      </trkpt>
      <trkpt lat="42.2894" lon="3.1823">
        <time>2022-05-21 09:58:43</time>
      </trkpt>
      <trkpt lat="42.28941" lon="3.18233">
        <time>2022-05-21 09:58:44</time>
      </trkpt>
      <trkpt lat="42.28942" lon="3.18237">
        <time>2022-05-21 09:58:45</time>
      </trkpt>
      <trkpt lat="42.28942" lon="3.1824">
        <time>2022-05-21 09:58:46</time>
      </trkpt>
      <trkpt lat="42.28941" lon="3.18244">
        <time>2022-05-21 09:58:47</time>
      </trkpt>
      <trkpt lat="42.28941" lon="3.18247">
        <time>2022-05-21 09:58:48</time>
      </trkpt>
      <trkpt lat="42.2894" lon="3.1825">
        <time>2022-05-21 09:58:49</time>
      </trkpt>
      <trkpt lat="42.28939" lon="3.18253">
        <ele>64.4</ele>
        <time>2022-05-21 09:58:50</time>
      </trkpt>
      <trkpt lat="42.28938" lon="3.18256">
        <ele>64.6</ele>
        <time>2022-05-21 09:58:51</time>
      </trkpt>
      <trkpt lat="42.28937" lon="3.18259">
        <ele>64.6</ele>
        <time>2022-05-21 09:58:52</time>
      </trkpt>
      <trkpt lat="42.28936" lon="3.18263">
        <ele>64.6</ele>
        <time>2022-05-21 09:58:53</time>
      </trkpt>
      <trkpt lat="42.28935" lon="3.18266">
        <ele>64.8</ele>
        <time>2022-05-21 09:58:54</time>
      </trkpt>
      <trkpt lat="42.28934" lon="3.18269">
        <ele>64.8</ele>
        <time>2022-05-21 09:58:55</time>
      </trkpt>
      <trkpt lat="42.28933" lon="3.18272">
        <ele>65</ele>
        <time>2022-05-21 09:58:56</time>
      </trkpt>
      <trkpt lat="42.28932" lon="3.18275">
        <ele>65.2</ele>
        <time>2022-05-21 09:58:57</time>
      </trkpt>
      <trkpt lat="42.28931" lon="3.18279">
        <ele>65.4</ele>
        <time>2022-05-21 09:58:58</time>
      </trkpt>
      <trkpt lat="42.2893" lon="3.18282">
        <ele>65.6</ele>
        <time>2022-05-21 09:58:59</time>
      </trkpt>
      <trkpt lat="42.28929" lon="3.18285">
        <ele>65.8</ele>
        <time>2022-05-21 09:59:00</time>
      </trkpt>
      <trkpt lat="42.28929" lon="3.18288">
        <ele>66</ele>
        <time>2022-05-21 09:59:01</time>
      </trkpt>
      <trkpt lat="42.28928" lon="3.18292">
        <ele>66.2</ele>
        <time>2022-05-21 09:59:02</time>
      </trkpt>
      <trkpt lat="42.28928" lon="3.18296">
        <ele>66.4</ele>
        <time>2022-05-21 09:59:03</time>
      </trkpt>
      <trkpt lat="42.28927" lon="3.18299">
        <ele>66.6</ele>
        <time>2022-05-21 09:59:04</time>
      </trkpt>
      <trkpt lat="42.28927" lon="3.18303">
        <ele>66.8</ele>
        <time>2022-05-21 09:59:05</time>
      </trkpt>
      <trkpt lat="42.28928" lon="3.18306">
        <ele>67</ele>
        <time>2022-05-21 09:59:06</time>
      </trkpt>
      <trkpt lat="42.28928" lon="3.1831">
        <ele>67.2</ele>
        <time>2022-05-21 09:59:07</time>
      </trkpt>
      <trkpt lat="42.28929" lon="3.18313">
        <ele>67.4</ele>
        <time>2022-05-21 09:59:08</time>
      </trkpt>
      <trkpt lat="42.2893" lon="3.18316">
        <ele>67.6</ele>
        <time>2022-05-21 09:59:09</time>
      </trkpt>
      <trkpt lat="42.28932" lon="3.18319">
        <ele>67.8</ele>
        <time>2022-05-21 09:59:10</time>
      </trkpt>
      <trkpt lat="42.28934" lon="3.18321">
        <ele>68</ele>
        <time>2022-05-21 09:59:11</time>
      </trkpt>
      <trkpt lat="42.28936" lon="3.18323">
        <ele>68.2</ele>
        <time>2022-05-21 09:59:12</time>
      </trkpt>
      <trkpt lat="42.28939" lon="3.18325">
        <ele>68.4</ele>
        <time>2022-05-21 09:59:13</time>
      </trkpt>
      <trkpt lat="42.28941" lon="3.18327">
        <ele>68.6</ele>
        <time>2022-05-21 09:59:14</time>
      </trkpt>
      <trkpt lat="42.28944" lon="3.18328">
        <ele>68.8</ele>
        <time>2022-05-21 09:59:15</time>
      </trkpt>
      <trkpt lat="42.28946" lon="3.18329">
        <ele>69</ele>
        <time>2022-05-21 09:59:16</time>
      </trkpt>
      <trkpt lat="42.28949" lon="3.1833">
        <ele>69.2</ele>
        <time>2022-05-21 09:59:17</time>
      </trkpt>
      <trkpt lat="42.28951" lon="3.1833">
        <ele>69.4</ele>
        <time>2022-05-21 09:59:18</time>
      </trkpt>
      <trkpt lat="42.28954" lon="3.18331">
        <ele>69.6</ele>
        <time>2022-05-21 09:59:19</time>
      </trkpt>
      <trkpt lat="42.28957" lon="3.18331">
        <ele>69.6</ele>
        <time>2022-05-21 09:59:20</time>
      </trkpt>
      <trkpt lat="42.28959" lon="3.18332">
        <ele>69.8</ele>
        <time>2022-05-21 09:59:21</time>
      </trkpt>
      <trkpt lat="42.28962" lon="3.18332">
        <ele>70</ele>
        <time>2022-05-21 09:59:22</time>
      </trkpt>
      <trkpt lat="42.28965" lon="3.18333">
        <ele>70.2</ele>
        <time>2022-05-21 09:59:23</time>
      </trkpt>
      <trkpt lat="42.28967" lon="3.18333">
        <ele>70.2</ele>
        <time>2022-05-21 09:59:24</time>
      </trkpt>
      <trkpt lat="42.2897" lon="3.18333">
        <ele>70.4</ele>
        <time>2022-05-21 09:59:25</time>
      </trkpt>
      <trkpt lat="42.28973" lon="3.18334">
        <ele>70.6</ele>
        <time>2022-05-21 09:59:26</time>
      </trkpt>
      <trkpt lat="42.28975" lon="3.18334">
        <ele>70.8</ele>
        <time>2022-05-21 09:59:27</time>
      </trkpt>
      <trkpt lat="42.28978" lon="3.18334">
        <ele>71</ele>
        <time>2022-05-21 09:59:28</time>
      </trkpt>
      <trkpt lat="42.28981" lon="3.18335">
        <ele>71.2</ele>
        <time>2022-05-21 09:59:29</time>
      </trkpt>
      <trkpt lat="42.28983" lon="3.18335">
        <ele>71.2</ele>
        <time>2022-05-21 09:59:30</time>
      </trkpt>
      <trkpt lat="42.28986" lon="3.18335">
        <ele>71.4</ele>
        <time>2022-05-21 09:59:31</time>
      </trkpt>
      <trkpt lat="42.28989" lon="3.18336">
        <ele>71.6</ele>
        <time>2022-05-21 09:59:32</time>
      </trkpt>
      <trkpt lat="42.28991" lon="3.18336">
        <ele>71.8</ele>
        <time>2022-05-21 09:59:33</time>
      </trkpt>
      <trkpt lat="42.28994" lon="3.18337">
        <ele>72</ele>
        <time>2022-05-21 09:59:34</time>
      </trkpt>
      <trkpt lat="42.28996" lon="3.18337">
        <ele>72.2</ele>
        <time>2022-05-21 09:59:35</time>
      </trkpt>
      <trkpt lat="42.28999" lon="3.18337">
        <ele>72.4</ele>
        <time>2022-05-21 09:59:36</time>
      </trkpt>
      <trkpt lat="42.29002" lon="3.18337">
        <ele>72.6</ele>
        <time>2022-05-21 09:59:37</time>
      </trkpt>
      <trkpt lat="42.29004" lon="3.18338">
        <ele>72.8</ele>
        <time>2022-05-21 09:59:38</time>
      </trkpt>
      <trkpt lat="42.29007" lon="3.18338">
        <ele>73</ele>
        <time>2022-05-21 09:59:39</time>
      </trkpt>
      <trkpt lat="42.2901" lon="3.18338">
        <ele>73.2</ele>
        <time>2022-05-21 09:59:40</time>
      </trkpt>
      <trkpt lat="42.29012" lon="3.18339">
        <ele>73.4</ele>
        <time>2022-05-21 09:59:41</time>
      </trkpt>
      <trkpt lat="42.29015" lon="3.18339">
        <ele>73.6</ele>
        <time>2022-05-21 09:59:42</time>
      </trkpt>
      <trkpt lat="42.29018" lon="3.1834">
        <ele>73.8</ele>
        <time>2022-05-21 09:59:43</time>
      </trkpt>
      <trkpt lat="42.2902" lon="3.1834">
        <ele>74</ele>
        <time>2022-05-21 09:59:44</time>
      </trkpt>
      <trkpt lat="42.29023" lon="3.1834">
        <ele>74.2</ele>
        <time>2022-05-21 09:59:45</time>
      </trkpt>
      <trkpt lat="42.29025" lon="3.18341">
        <ele>74.4</ele>
        <time>2022-05-21 09:59:46</time>
      </trkpt>
      <trkpt lat="42.29028" lon="3.18341">
        <ele>74.6</ele>
        <time>2022-05-21 09:59:47</time>
      </trkpt>
      <trkpt lat="42.29031" lon="3.18341">
        <ele>74.6</ele>
        <time>2022-05-21 09:59:48</time>
      </trkpt>
      <trkpt lat="42.29033" lon="3.18342">
        <ele>74.8</ele>
        <time>2022-05-21 09:59:49</time>
      </trkpt>
      <trkpt lat="42.29036" lon="3.18342">
        <ele>75</ele>
        <time>2022-05-21 09:59:50</time>
      </trkpt>
      <trkpt lat="42.29039" lon="3.18342">
        <ele>75.2</ele>
        <time>2022-05-21 09:59:51</time>
      </trkpt>
      <trkpt lat="42.29041" lon="3.18343">
        <ele>75.4</ele>
        <time>2022-05-21 09:59:52</time>
      </trkpt>
      <trkpt lat="42.29044" lon="3.18343">
        <ele>75.6</ele>
        <time>2022-05-21 09:59:53</time>
      </trkpt>
      <trkpt lat="42.29047" lon="3.18343">
        <ele>75.8</ele>
        <time>2022-05-21 09:59:54</time>
      </trkpt>
      <trkpt lat="42.2905" lon="3.18343">
        <ele>76</ele>
        <time>2022-05-21 09:59:55</time>
      </trkpt>
      <trkpt lat="42.29053" lon="3.18344">
        <ele>76.2</ele>
        <time>2022-05-21 09:59:56</time>
      </trkpt>
      <trkpt lat="42.29056" lon="3.18344">
        <ele>76.4</ele>
        <time>2022-05-21 09:59:57</time>
      </trkpt>
      <trkpt lat="42.29058" lon="3.18345">
        <ele>76.6</ele>
        <time>2022-05-21 09:59:58</time>
      </trkpt>
      <trkpt lat="42.29061" lon="3.18346">
        <ele>76.8</ele>
        <time>2022-05-21 09:59:59</time>
      </trkpt>
      <trkpt lat="42.29064" lon="3.18346">
        <ele>77</ele>
        <time>2022-05-21 10:00:00</time>
      </trkpt>
      <trkpt lat="42.29067" lon="3.18348">
        <ele>77.2</ele>
        <time>2022-05-21 10:00:01</time>
      </trkpt>
      <trkpt lat="42.29069" lon="3.18349">
        <ele>77.4</ele>
        <time>2022-05-21 10:00:02</time>
      </trkpt>
      <trkpt lat="42.29072" lon="3.18351">
        <ele>77.6</ele>
        <time>2022-05-21 10:00:03</time>
      </trkpt>
      <trkpt lat="42.29074" lon="3.18353">
        <ele>77.8</ele>
        <time>2022-05-21 10:00:04</time>
      </trkpt>
      <trkpt lat="42.29076" lon="3.18355">
        <ele>78</ele>
        <time>2022-05-21 10:00:05</time>
      </trkpt>
      <trkpt lat="42.29078" lon="3.18357">
        <ele>78.2</ele>
        <time>2022-05-21 10:00:06</time>
      </trkpt>
      <trkpt lat="42.2908" lon="3.1836">
        <ele>78.4</ele>
        <time>2022-05-21 10:00:07</time>
      </trkpt>
      <trkpt lat="42.29081" lon="3.18363">
        <ele>78.6</ele>
        <time>2022-05-21 10:00:08</time>
      </trkpt>
      <trkpt lat="42.29082" lon="3.18366">
        <ele>78.8</ele>
        <time>2022-05-21 10:00:09</time>
      </trkpt>
      <trkpt lat="42.29083" lon="3.18369">
        <ele>79</ele>
        <time>2022-05-21 10:00:10</time>
      </trkpt>
      <trkpt lat="42.29084" lon="3.18373">
        <ele>79.2</ele>
        <time>2022-05-21 10:00:11</time>
      </trkpt>
      <trkpt lat="42.29085" lon="3.18376">
        <ele>79.4</ele>
        <time>2022-05-21 10:00:12</time>
      </trkpt>
      <trkpt lat="42.29086" lon="3.18379">
        <ele>79.6</ele>
        <time>2022-05-21 10:00:13</time>
      </trkpt>
      <trkpt lat="42.29087" lon="3.18382">
        <ele>79.8</ele>
        <time>2022-05-21 10:00:14</time>
      </trkpt>
      <trkpt lat="42.29088" lon="3.18386">
        <ele>80</ele>
        <time>2022-05-21 10:00:15</time>
      </trkpt>
      <trkpt lat="42.29089" lon="3.1839">
        <ele>80.2</ele>
        <time>2022-05-21 10:00:16</time>
      </trkpt>
      <trkpt lat="42.2909" lon="3.18393">
        <ele>80.4</ele>
        <time>2022-05-21 10:00:17</time>
      </trkpt>
      <trkpt lat="42.29091" lon="3.18397">
        <ele>80.6</ele>
        <time>2022-05-21 10:00:18</time>
      </trkpt>
      <trkpt lat="42.29092" lon="3.184">
        <ele>80.8</ele>
        <time>2022-05-21 10:00:19</time>
      </trkpt>
      <trkpt lat="42.29094" lon="3.18404">
        <ele>81</ele>
        <time>2022-05-21 10:00:20</time>
      </trkpt>
      <trkpt lat="42.29095" lon="3.18407">
        <ele>81.2</ele>
        <time>2022-05-21 10:00:21</time>
      </trkpt>
      <trkpt lat="42.29096" lon="3.18411">
        <ele>81.4</ele>
        <time>2022-05-21 10:00:22</time>
      </trkpt>
      <trkpt lat="42.29098" lon="3.18414">
        <ele>81.6</ele>
        <time>2022-05-21 10:00:23</time>
      </trkpt>
      <trkpt lat="42.29099" lon="3.18417">
        <ele>81.6</ele>
        <time>2022-05-21 10:00:24</time>
      </trkpt>
      <trkpt lat="42.291" lon="3.1842">
        <ele>81.8</ele>
        <time>2022-05-21 10:00:25</time>
      </trkpt>
      <trkpt lat="42.29101" lon="3.18424">
        <ele>82</ele>
        <time>2022-05-21 10:00:26</time>
      </trkpt>
      <trkpt lat="42.29102" lon="3.18427">
        <ele>82.2</ele>
        <time>2022-05-21 10:00:27</time>
      </trkpt>
      <trkpt lat="42.29103" lon="3.18431">
        <ele>82.4</ele>
        <time>2022-05-21 10:00:28</time>
      </trkpt>
      <trkpt lat="42.29105" lon="3.18434">
        <ele>82.6</ele>
        <time>2022-05-21 10:00:29</time>
      </trkpt>
      <trkpt lat="42.29106" lon="3.18438">
        <ele>82.8</ele>
        <time>2022-05-21 10:00:30</time>
      </trkpt>
      <trkpt lat="42.29107" lon="3.18441">
        <ele>83</ele>
        <time>2022-05-21 10:00:31</time>
      </trkpt>
      <trkpt lat="42.29109" lon="3.18444">
        <ele>83.2</ele>
        <time>2022-05-21 10:00:32</time>
      </trkpt>
      <trkpt lat="42.2911" lon="3.18448">
        <ele>83.4</ele>
        <time>2022-05-21 10:00:33</time>
      </trkpt>
      <trkpt lat="42.29112" lon="3.18452">
        <ele>83.6</ele>
        <time>2022-05-21 10:00:34</time>
      </trkpt>
      <trkpt lat="42.29114" lon="3.18455">
        <ele>83.8</ele>
        <time>2022-05-21 10:00:35</time>
      </trkpt>
      <trkpt lat="42.29117" lon="3.18458">
        <ele>84</ele>
        <time>2022-05-21 10:00:36</time>
      </trkpt>
      <trkpt lat="42.29119" lon="3.18461">
        <ele>84.2</ele>
        <time>2022-05-21 10:00:37</time>
      </trkpt>
      <trkpt lat="42.29122" lon="3.18463">
        <ele>84.4</ele>
        <time>2022-05-21 10:00:38</time>
      </trkpt>
      <trkpt lat="42.29125" lon="3.18466">
        <ele>84.6</ele>
        <time>2022-05-21 10:00:39</time>
      </trkpt>
      <trkpt lat="42.29127" lon="3.18468">
        <ele>84.8</ele>
        <time>2022-05-21 10:00:40</time>
      </trkpt>
      <trkpt lat="42.2913" lon="3.1847">
        <ele>85</ele>
        <time>2022-05-21 10:00:41</time>
      </trkpt>
      <trkpt lat="42.29133" lon="3.18471">
        <ele>85.2</ele>
        <time>2022-05-21 10:00:42</time>
      </trkpt>
      <trkpt lat="42.29137" lon="3.18473">
        <ele>85.4</ele>
        <time>2022-05-21 10:00:43</time>
      </trkpt>
      <trkpt lat="42.2914" lon="3.18474">
        <ele>85.4</ele>
        <time>2022-05-21 10:00:44</time>
      </trkpt>
      <trkpt lat="42.29143" lon="3.18474">
        <ele>85.6</ele>
        <time>2022-05-21 10:00:45</time>
      </trkpt>
      <trkpt lat="42.29146" lon="3.18475">
        <ele>85.8</ele>
        <time>2022-05-21 10:00:46</time>
      </trkpt>
      <trkpt lat="42.29149" lon="3.18474">
        <ele>86</ele>
        <time>2022-05-21 10:00:47</time>
      </trkpt>
      <trkpt lat="42.29152" lon="3.18474">
        <ele>86</ele>
        <time>2022-05-21 10:00:48</time>
      </trkpt>
      <trkpt lat="42.29156" lon="3.18473">
        <ele>86.2</ele>
        <time>2022-05-21 10:00:49</time>
      </trkpt>
      <trkpt lat="42.29159" lon="3.18473">
        <ele>86.4</ele>
        <time>2022-05-21 10:00:50</time>
      </trkpt>
      <trkpt lat="42.29162" lon="3.18472">
        <ele>86.6</ele>
        <time>2022-05-21 10:00:51</time>
      </trkpt>
      <trkpt lat="42.29164" lon="3.18471">
        <ele>86.6</ele>
        <time>2022-05-21 10:00:52</time>
      </trkpt>
      <trkpt lat="42.29167" lon="3.1847">
        <ele>86.8</ele>
        <time>2022-05-21 10:00:53</time>
      </trkpt>
      <trkpt lat="42.2917" lon="3.18469">
        <ele>87</ele>
        <time>2022-05-21 10:00:54</time>
      </trkpt>
      <trkpt lat="42.29172" lon="3.18468">
        <ele>87.2</ele>
        <time>2022-05-21 10:00:55</time>
      </trkpt>
      <trkpt lat="42.29175" lon="3.18467">
        <ele>87.4</ele>
        <time>2022-05-21 10:00:56</time>
      </trkpt>
      <trkpt lat="42.29178" lon="3.18466">
        <ele>87.6</ele>
        <time>2022-05-21 10:00:57</time>
      </trkpt>
      <trkpt lat="42.2918" lon="3.18465">
        <ele>87.8</ele>
        <time>2022-05-21 10:00:58</time>
      </trkpt>
      <trkpt lat="42.29183" lon="3.18464">
        <ele>87.8</ele>
        <time>2022-05-21 10:00:59</time>
      </trkpt>
      <trkpt lat="42.29186" lon="3.18464">
        <ele>88</ele>
        <time>2022-05-21 10:01:00</time>
      </trkpt>
      <trkpt lat="42.29188" lon="3.18464">
        <ele>88.2</ele>
        <time>2022-05-21 10:01:01</time>
      </trkpt>
      <trkpt lat="42.29191" lon="3.18464">
        <ele>88.4</ele>
        <time>2022-05-21 10:01:02</time>
      </trkpt>
      <trkpt lat="42.29193" lon="3.18464">
        <ele>88.6</ele>
        <time>2022-05-21 10:01:03</time>
      </trkpt>
      <trkpt lat="42.29196" lon="3.18464">
        <ele>88.6</ele>
        <time>2022-05-21 10:01:04</time>
      </trkpt>
      <trkpt lat="42.29198" lon="3.18465">
        <ele>88.8</ele>
        <time>2022-05-21 10:01:05</time>
      </trkpt>
      <trkpt lat="42.29201" lon="3.18465">
        <ele>89</ele>
        <time>2022-05-21 10:01:06</time>
      </trkpt>
      <trkpt lat="42.29203" lon="3.18466">
        <ele>89.2</ele>
        <time>2022-05-21 10:01:07</time>
      </trkpt>
      <trkpt lat="42.29206" lon="3.18468">
        <ele>89.2</ele>
        <time>2022-05-21 10:01:08</time>
      </trkpt>
      <trkpt lat="42.29209" lon="3.1847">
        <ele>89.4</ele>
        <time>2022-05-21 10:01:09</time>
      </trkpt>
      <trkpt lat="42.29211" lon="3.18471">
        <ele>89.6</ele>
        <time>2022-05-21 10:01:10</time>
      </trkpt>
      <trkpt lat="42.29213" lon="3.18474">
        <ele>89.8</ele>
        <time>2022-05-21 10:01:11</time>
      </trkpt>
      <trkpt lat="42.29216" lon="3.18476">
        <ele>90</ele>
        <time>2022-05-21 10:01:12</time>
      </trkpt>
      <trkpt lat="42.29218" lon="3.18478">
        <ele>90.2</ele>
        <time>2022-05-21 10:01:13</time>
      </trkpt>
      <trkpt lat="42.2922" lon="3.1848">
        <ele>90.4</ele>
        <time>2022-05-21 10:01:14</time>
      </trkpt>
      <trkpt lat="42.29221" lon="3.18483">
        <ele>90.6</ele>
        <time>2022-05-21 10:01:15</time>
      </trkpt>
      <trkpt lat="42.29223" lon="3.18486">
        <ele>91</ele>
        <time>2022-05-21 10:01:16</time>
      </trkpt>
      <trkpt lat="42.29224" lon="3.18489">
        <ele>91.2</ele>
        <time>2022-05-21 10:01:17</time>
      </trkpt>
      <trkpt lat="42.29226" lon="3.18492">
        <ele>91.4</ele>
        <time>2022-05-21 10:01:18</time>
      </trkpt>
      <trkpt lat="42.29228" lon="3.18494">
        <ele>91.6</ele>
        <time>2022-05-21 10:01:19</time>
      </trkpt>
      <trkpt lat="42.29231" lon="3.18496">
        <ele>91.8</ele>
        <time>2022-05-21 10:01:20</time>
      </trkpt>
      <trkpt lat="42.29233" lon="3.18499">
        <ele>92</ele>
        <time>2022-05-21 10:01:21</time>
      </trkpt>
      <trkpt lat="42.29236" lon="3.18501">
        <ele>92.2</ele>
        <time>2022-05-21 10:01:22</time>
      </trkpt>
      <trkpt lat="42.29238" lon="3.18504">
        <ele>92.4</ele>
        <time>2022-05-21 10:01:23</time>
      </trkpt>
      <trkpt lat="42.2924" lon="3.18506">
        <ele>92.6</ele>
        <time>2022-05-21 10:01:24</time>
      </trkpt>
      <trkpt lat="42.29243" lon="3.18508">
        <ele>92.6</ele>
        <time>2022-05-21 10:01:25</time>
      </trkpt>
      <trkpt lat="42.29246" lon="3.1851">
        <ele>92.8</ele>
        <time>2022-05-21 10:01:26</time>
      </trkpt>
      <trkpt lat="42.29248" lon="3.18512">
        <ele>93</ele>
        <time>2022-05-21 10:01:27</time>
      </trkpt>
      <trkpt lat="42.29251" lon="3.18514">
        <ele>93.2</ele>
        <time>2022-05-21 10:01:28</time>
      </trkpt>
      <trkpt lat="42.29254" lon="3.18515">
        <ele>93.4</ele>
        <time>2022-05-21 10:01:29</time>
      </trkpt>
      <trkpt lat="42.29256" lon="3.18517">
        <ele>93.4</ele>
        <time>2022-05-21 10:01:30</time>
      </trkpt>
      <trkpt lat="42.29259" lon="3.18519">
        <ele>93.6</ele>
        <time>2022-05-21 10:01:31</time>
      </trkpt>
      <trkpt lat="42.29261" lon="3.18521">
        <ele>93.8</ele>
        <time>2022-05-21 10:01:32</time>
      </trkpt>
      <trkpt lat="42.29264" lon="3.18523">
        <ele>94</ele>
        <time>2022-05-21 10:01:33</time>
      </trkpt>
      <trkpt lat="42.29266" lon="3.18525">
        <ele>94.2</ele>
        <time>2022-05-21 10:01:34</time>
      </trkpt>
      <trkpt lat="42.29269" lon="3.18527">
        <ele>94.2</ele>
        <time>2022-05-21 10:01:35</time>
      </trkpt>
      <trkpt lat="42.29271" lon="3.18529">
        <ele>94.4</ele>
        <time>2022-05-21 10:01:36</time>
      </trkpt>
      <trkpt lat="42.29274" lon="3.18531">
        <ele>94.6</ele>
        <time>2022-05-21 10:01:37</time>
      </trkpt>
      <trkpt lat="42.29276" lon="3.18533">
        <ele>94.8</ele>
        <time>2022-05-21 10:01:38</time>
      </trkpt>
      <trkpt lat="42.29279" lon="3.18535">
        <ele>95</ele>
        <time>2022-05-21 10:01:39</time>
      </trkpt>
      <trkpt lat="42.29282" lon="3.18537">
        <ele>95.2</ele>
        <time>2022-05-21 10:01:40</time>
      </trkpt>
      <trkpt lat="42.29284" lon="3.18539">
        <ele>95.2</ele>
        <time>2022-05-21 10:01:41</time>
      </trkpt>
      <trkpt lat="42.29287" lon="3.1854">
        <ele>95.4</ele>
        <time>2022-05-21 10:01:42</time>
      </trkpt>
      <trkpt lat="42.29289" lon="3.18542">
        <ele>95.6</ele>
        <time>2022-05-21 10:01:43</time>
      </trkpt>
      <trkpt lat="42.29292" lon="3.18544">
        <ele>95.8</ele>
        <time>2022-05-21 10:01:44</time>
      </trkpt>
      <trkpt lat="42.29294" lon="3.18546">
        <ele>96</ele>
        <time>2022-05-21 10:01:45</time>
      </trkpt>
      <trkpt lat="42.29297" lon="3.18548">
        <ele>96.2</ele>
        <time>2022-05-21 10:01:46</time>
      </trkpt>
      <trkpt lat="42.29299" lon="3.18549">
        <ele>96.4</ele>
        <time>2022-05-21 10:01:47</time>
      </trkpt>
      <trkpt lat="42.29302" lon="3.18551">
        <ele>96.6</ele>
        <time>2022-05-21 10:01:48</time>
      </trkpt>
      <trkpt lat="42.29304" lon="3.18553">
        <ele>96.8</ele>
        <time>2022-05-21 10:01:49</time>
      </trkpt>
      <trkpt lat="42.29307" lon="3.18554">
        <ele>97</ele>
        <time>2022-05-21 10:01:50</time>
      </trkpt>
      <trkpt lat="42.2931" lon="3.18555">
        <ele>97.2</ele>
        <time>2022-05-21 10:01:51</time>
      </trkpt>
      <trkpt lat="42.29312" lon="3.18557">
        <ele>97.4</ele>
        <time>2022-05-21 10:01:52</time>
      </trkpt>
      <trkpt lat="42.29315" lon="3.18558">
        <ele>97.4</ele>
        <time>2022-05-21 10:01:53</time>
      </trkpt>
      <trkpt lat="42.29317" lon="3.18559">
        <ele>97.6</ele>
        <time>2022-05-21 10:01:54</time>
      </trkpt>
      <trkpt lat="42.2932" lon="3.1856">
        <ele>97.8</ele>
        <time>2022-05-21 10:01:55</time>
      </trkpt>
      <trkpt lat="42.29323" lon="3.18561">
        <ele>98</ele>
        <time>2022-05-21 10:01:56</time>
      </trkpt>
      <trkpt lat="42.29326" lon="3.18562">
        <ele>98.2</ele>
        <time>2022-05-21 10:01:57</time>
      </trkpt>
      <trkpt lat="42.29328" lon="3.18563">
        <ele>98.4</ele>
        <time>2022-05-21 10:01:58</time>
      </trkpt>
      <trkpt lat="42.29331" lon="3.18563">
        <ele>98.6</ele>
        <time>2022-05-21 10:01:59</time>
      </trkpt>
      <trkpt lat="42.29334" lon="3.18564">
        <ele>98.8</ele>
        <time>2022-05-21 10:02:00</time>
      </trkpt>
      <trkpt lat="42.29336" lon="3.18564">
        <ele>99</ele>
        <time>2022-05-21 10:02:01</time>
      </trkpt>
      <trkpt lat="42.29339" lon="3.18564">
        <ele>99.2</ele>
        <time>2022-05-21 10:02:02</time>
      </trkpt>
      <trkpt lat="42.29342" lon="3.18564">
        <ele>99.2</ele>
        <time>2022-05-21 10:02:03</time>
      </trkpt>
      <trkpt lat="42.29345" lon="3.18564">
        <ele>99.4</ele>
        <time>2022-05-21 10:02:04</time>
      </trkpt>
      <trkpt lat="42.29348" lon="3.18563">
        <ele>99.6</ele>
        <time>2022-05-21 10:02:05</time>
      </trkpt>
      <trkpt lat="42.2935" lon="3.18563">
        <ele>99.8</ele>
        <time>2022-05-21 10:02:06</time>
      </trkpt>
      <trkpt lat="42.29353" lon="3.18563">
        <ele>100</ele>
        <time>2022-05-21 10:02:07</time>
      </trkpt>
      <trkpt lat="42.29356" lon="3.18562">
        <ele>100.2</ele>
        <time>2022-05-21 10:02:08</time>
      </trkpt>
      <trkpt lat="42.29358" lon="3.18562">
        <ele>100.4</ele>
        <time>2022-05-21 10:02:09</time>
      </trkpt>
      <trkpt lat="42.29361" lon="3.18563">
        <ele>100.6</ele>
        <time>2022-05-21 10:02:10</time>
      </trkpt>
      <trkpt lat="42.29363" lon="3.18563">
        <ele>100.6</ele>
        <time>2022-05-21 10:02:11</time>
      </trkpt>
      <trkpt lat="42.29366" lon="3.18564">
        <ele>100.8</ele>
        <time>2022-05-21 10:02:12</time>
      </trkpt>
      <trkpt lat="42.29368" lon="3.18566">
        <ele>101</ele>
        <time>2022-05-21 10:02:13</time>
      </trkpt>
      <trkpt lat="42.29371" lon="3.18567">
        <ele>101.2</ele>
        <time>2022-05-21 10:02:14</time>
      </trkpt>
      <trkpt lat="42.29373" lon="3.1857">
        <ele>101.4</ele>
        <time>2022-05-21 10:02:15</time>
      </trkpt>
      <trkpt lat="42.29375" lon="3.18572">
        <ele>101.6</ele>
        <time>2022-05-21 10:02:16</time>
      </trkpt>
      <trkpt lat="42.29376" lon="3.18575">
        <ele>101.8</ele>
        <time>2022-05-21 10:02:17</time>
      </trkpt>
      <trkpt lat="42.29377" lon="3.18578">
        <ele>102</ele>
        <time>2022-05-21 10:02:18</time>
      </trkpt>
      <trkpt lat="42.29378" lon="3.18581">
        <ele>102.2</ele>
        <time>2022-05-21 10:02:19</time>
      </trkpt>
      <trkpt lat="42.29379" lon="3.18584">
        <ele>102.4</ele>
        <time>2022-05-21 10:02:20</time>
      </trkpt>
      <trkpt lat="42.2938" lon="3.18587">
        <ele>102.6</ele>
        <time>2022-05-21 10:02:21</time>
      </trkpt>
      <trkpt lat="42.29381" lon="3.1859">
        <ele>102.8</ele>
        <time>2022-05-21 10:02:22</time>
      </trkpt>
      <trkpt lat="42.29382" lon="3.18594">
        <ele>103</ele>
        <time>2022-05-21 10:02:23</time>
      </trkpt>
      <trkpt lat="42.29383" lon="3.18597">
        <ele>103.2</ele>
        <time>2022-05-21 10:02:24</time>
      </trkpt>
      <trkpt lat="42.29384" lon="3.186">
        <ele>103.6</ele>
        <time>2022-05-21 10:02:25</time>
      </trkpt>
      <trkpt lat="42.29385" lon="3.18603">
        <ele>103.8</ele>
        <time>2022-05-21 10:02:26</time>
      </trkpt>
      <trkpt lat="42.29386" lon="3.18606">
        <ele>104</ele>
        <time>2022-05-21 10:02:27</time>
      </trkpt>
      <trkpt lat="42.29388" lon="3.18609">
        <ele>104.2</ele>
        <time>2022-05-21 10:02:28</time>
      </trkpt>
      <trkpt lat="42.29389" lon="3.18612">
        <ele>104.4</ele>
        <time>2022-05-21 10:02:29</time>
      </trkpt>
      <trkpt lat="42.2939" lon="3.18615">
        <ele>104.6</ele>
        <time>2022-05-21 10:02:30</time>
      </trkpt>
      <trkpt lat="42.29392" lon="3.18617">
        <ele>104.8</ele>
        <time>2022-05-21 10:02:31</time>
      </trkpt>
      <trkpt lat="42.29394" lon="3.1862">
        <ele>105</ele>
        <time>2022-05-21 10:02:32</time>
      </trkpt>
      <trkpt lat="42.29396" lon="3.18622">
        <ele>105.2</ele>
        <time>2022-05-21 10:02:33</time>
      </trkpt>
      <trkpt lat="42.29398" lon="3.18624">
        <ele>105.4</ele>
        <time>2022-05-21 10:02:34</time>
      </trkpt>
      <trkpt lat="42.294" lon="3.18626">
        <ele>105.6</ele>
        <time>2022-05-21 10:02:35</time>
      </trkpt>
      <trkpt lat="42.29402" lon="3.18628">
        <ele>105.8</ele>
        <time>2022-05-21 10:02:36</time>
      </trkpt>
      <trkpt lat="42.29404" lon="3.18629">
        <ele>106</ele>
        <time>2022-05-21 10:02:37</time>
      </trkpt>
      <trkpt lat="42.29407" lon="3.1863">
        <ele>106.2</ele>
        <time>2022-05-21 10:02:38</time>
      </trkpt>
      <trkpt lat="42.29409" lon="3.18631">
        <ele>106.4</ele>
        <time>2022-05-21 10:02:39</time>
      </trkpt>
      <trkpt lat="42.29412" lon="3.18632">
        <ele>106.6</ele>
        <time>2022-05-21 10:02:40</time>
      </trkpt>
      <trkpt lat="42.29414" lon="3.18633">
        <ele>106.8</ele>
        <time>2022-05-21 10:02:41</time>
      </trkpt>
      <trkpt lat="42.29417" lon="3.18634">
        <ele>107</ele>
        <time>2022-05-21 10:02:42</time>
      </trkpt>
      <trkpt lat="42.2942" lon="3.18635">
        <ele>107.2</ele>
        <time>2022-05-21 10:02:43</time>
      </trkpt>
      <trkpt lat="42.29422" lon="3.18636">
        <ele>107.4</ele>
        <time>2022-05-21 10:02:44</time>
      </trkpt>
      <trkpt lat="42.29424" lon="3.18637">
        <ele>107.6</ele>
        <time>2022-05-21 10:02:45</time>
      </trkpt>
      <trkpt lat="42.29427" lon="3.18638">
        <ele>107.8</ele>
        <time>2022-05-21 10:02:46</time>
      </trkpt>
      <trkpt lat="42.2943" lon="3.18639">
        <ele>108</ele>
        <time>2022-05-21 10:02:47</time>
      </trkpt>
      <trkpt lat="42.29432" lon="3.1864">
        <ele>108</ele>
        <time>2022-05-21 10:02:48</time>
      </trkpt>
      <trkpt lat="42.29435" lon="3.18641">
        <ele>108.2</ele>
        <time>2022-05-21 10:02:49</time>
      </trkpt>
      <trkpt lat="42.29437" lon="3.18642">
        <ele>108.4</ele>
        <time>2022-05-21 10:02:50</time>
      </trkpt>
      <trkpt lat="42.2944" lon="3.18643">
        <ele>108.6</ele>
        <time>2022-05-21 10:02:51</time>
      </trkpt>
      <trkpt lat="42.29443" lon="3.18646">
        <ele>108.8</ele>
        <time>2022-05-21 10:02:52</time>
      </trkpt>
      <trkpt lat="42.29445" lon="3.18647">
        <ele>109</ele>
        <time>2022-05-21 10:02:53</time>
      </trkpt>
      <trkpt lat="42.29447" lon="3.18649">
        <ele>109.2</ele>
        <time>2022-05-21 10:02:54</time>
      </trkpt>
      <trkpt lat="42.29449" lon="3.18651">
        <ele>109.2</ele>
        <time>2022-05-21 10:02:55</time>
      </trkpt>
      <trkpt lat="42.29451" lon="3.18653">
        <ele>109.4</ele>
        <time>2022-05-21 10:02:56</time>
      </trkpt>
      <trkpt lat="42.29453" lon="3.18656">
        <ele>109.6</ele>
        <time>2022-05-21 10:02:57</time>
      </trkpt>
      <trkpt lat="42.29455" lon="3.18658">
        <ele>109.8</ele>
        <time>2022-05-21 10:02:58</time>
      </trkpt>
      <trkpt lat="42.29456" lon="3.18661">
        <ele>110</ele>
        <time>2022-05-21 10:02:59</time>
      </trkpt>
      <trkpt lat="42.29458" lon="3.18664">
        <ele>110.2</ele>
        <time>2022-05-21 10:03:00</time>
      </trkpt>
      <trkpt lat="42.29459" lon="3.18667">
        <ele>110.4</ele>
        <time>2022-05-21 10:03:01</time>
      </trkpt>
      <trkpt lat="42.2946" lon="3.1867">
        <ele>110.6</ele>
        <time>2022-05-21 10:03:02</time>
      </trkpt>
      <trkpt lat="42.29461" lon="3.18673">
        <ele>110.8</ele>
        <time>2022-05-21 10:03:03</time>
      </trkpt>
      <trkpt lat="42.29462" lon="3.18677">
        <ele>111</ele>
        <time>2022-05-21 10:03:04</time>
      </trkpt>
      <trkpt lat="42.29463" lon="3.1868">
        <ele>111.4</ele>
        <time>2022-05-21 10:03:05</time>
      </trkpt>
      <trkpt lat="42.29464" lon="3.18683">
        <ele>111.6</ele>
        <time>2022-05-21 10:03:06</time>
      </trkpt>
      <trkpt lat="42.29465" lon="3.18686">
        <ele>111.6</ele>
        <time>2022-05-21 10:03:07</time>
      </trkpt>
      <trkpt lat="42.29466" lon="3.1869">
        <ele>111.8</ele>
        <time>2022-05-21 10:03:08</time>
      </trkpt>
      <trkpt lat="42.29467" lon="3.18693">
        <ele>112</ele>
        <time>2022-05-21 10:03:09</time>
      </trkpt>
      <trkpt lat="42.29467" lon="3.18697">
        <ele>112.2</ele>
        <time>2022-05-21 10:03:10</time>
      </trkpt>
      <trkpt lat="42.29468" lon="3.187">
        <ele>112.4</ele>
        <time>2022-05-21 10:03:11</time>
      </trkpt>
      <trkpt lat="42.29469" lon="3.18703">
        <ele>112.6</ele>
        <time>2022-05-21 10:03:12</time>
      </trkpt>
      <trkpt lat="42.29471" lon="3.18706">
        <ele>112.8</ele>
        <time>2022-05-21 10:03:13</time>
      </trkpt>
      <trkpt lat="42.29472" lon="3.18709">
        <ele>113</ele>
        <time>2022-05-21 10:03:14</time>
      </trkpt>
      <trkpt lat="42.29474" lon="3.18712">
        <ele>113.2</ele>
        <time>2022-05-21 10:03:15</time>
      </trkpt>
      <trkpt lat="42.29475" lon="3.18716">
        <ele>113.4</ele>
        <time>2022-05-21 10:03:16</time>
      </trkpt>
      <trkpt lat="42.29476" lon="3.18719">
        <ele>113.6</ele>
        <time>2022-05-21 10:03:17</time>
      </trkpt>
      <trkpt lat="42.29478" lon="3.18722">
        <ele>113.8</ele>
        <time>2022-05-21 10:03:18</time>
      </trkpt>
      <trkpt lat="42.29479" lon="3.18725">
        <ele>114</ele>
        <time>2022-05-21 10:03:19</time>
      </trkpt>
      <trkpt lat="42.29482" lon="3.18728">
        <ele>114.2</ele>
        <time>2022-05-21 10:03:20</time>
      </trkpt>
      <trkpt lat="42.29483" lon="3.18731">
        <ele>114.4</ele>
        <time>2022-05-21 10:03:21</time>
      </trkpt>
      <trkpt lat="42.29485" lon="3.18734">
        <ele>114.6</ele>
        <time>2022-05-21 10:03:22</time>
      </trkpt>
      <trkpt lat="42.29487" lon="3.18736">
        <ele>114.6</ele>
        <time>2022-05-21 10:03:23</time>
      </trkpt>
      <trkpt lat="42.29489" lon="3.18739">
        <ele>114.8</ele>
        <time>2022-05-21 10:03:24</time>
      </trkpt>
      <trkpt lat="42.29491" lon="3.18742">
        <ele>115</ele>
        <time>2022-05-21 10:03:25</time>
      </trkpt>
      <trkpt lat="42.29493" lon="3.18744">
        <ele>115.2</ele>
        <time>2022-05-21 10:03:26</time>
      </trkpt>
      <trkpt lat="42.29495" lon="3.18747">
        <ele>115.4</ele>
        <time>2022-05-21 10:03:27</time>
      </trkpt>
      <trkpt lat="42.29497" lon="3.18751">
        <ele>115.6</ele>
        <time>2022-05-21 10:03:28</time>
      </trkpt>
      <trkpt lat="42.29499" lon="3.18754">
        <ele>115.8</ele>
        <time>2022-05-21 10:03:29</time>
      </trkpt>
      <trkpt lat="42.295" lon="3.18756">
        <ele>116</ele>
        <time>2022-05-21 10:03:30</time>
      </trkpt>
      <trkpt lat="42.29504" lon="3.1876">
        <ele>116.2</ele>
        <time>2022-05-21 10:03:31</time>
      </trkpt>
      <trkpt lat="42.29506" lon="3.18763">
        <ele>116.4</ele>
        <time>2022-05-21 10:03:32</time>
      </trkpt>
      <trkpt lat="42.29508" lon="3.18766">
        <ele>116.6</ele>
        <time>2022-05-21 10:03:33</time>
      </trkpt>
      <trkpt lat="42.2951" lon="3.1877">
        <ele>116.8</ele>
        <time>2022-05-21 10:03:34</time>
      </trkpt>
      <trkpt lat="42.29512" lon="3.18772">
        <ele>117</ele>
        <time>2022-05-21 10:03:35</time>
      </trkpt>
      <trkpt lat="42.29515" lon="3.18775">
        <ele>117.2</ele>
        <time>2022-05-21 10:03:36</time>
      </trkpt>
      <trkpt lat="42.29517" lon="3.18778">
        <ele>117.6</ele>
        <time>2022-05-21 10:03:37</time>
      </trkpt>
      <trkpt lat="42.29519" lon="3.1878">
        <ele>117.8</ele>
        <time>2022-05-21 10:03:38</time>
      </trkpt>
      <trkpt lat="42.29521" lon="3.18782">
        <ele>118</ele>
        <time>2022-05-21 10:03:39</time>
      </trkpt>
      <trkpt lat="42.29523" lon="3.18785">
        <ele>118.2</ele>
        <time>2022-05-21 10:03:40</time>
      </trkpt>
      <trkpt lat="42.29526" lon="3.18788">
        <ele>118.4</ele>
        <time>2022-05-21 10:03:41</time>
      </trkpt>
      <trkpt lat="42.29528" lon="3.18791">
        <ele>118.6</ele>
        <time>2022-05-21 10:03:42</time>
      </trkpt>
      <trkpt lat="42.29531" lon="3.18794">
        <ele>118.8</ele>
        <time>2022-05-21 10:03:43</time>
      </trkpt>
      <trkpt lat="42.29533" lon="3.18796">
        <ele>119</ele>
        <time>2022-05-21 10:03:44</time>
      </trkpt>
      <trkpt lat="42.29535" lon="3.18799">
        <ele>119.2</ele>
        <time>2022-05-21 10:03:45</time>
      </trkpt>
      <trkpt lat="42.29538" lon="3.18802">
        <ele>119.4</ele>
        <time>2022-05-21 10:03:46</time>
      </trkpt>
      <trkpt lat="42.29541" lon="3.18804">
        <ele>119.6</ele>
        <time>2022-05-21 10:03:47</time>
      </trkpt>
      <trkpt lat="42.29544" lon="3.18806">
        <ele>119.8</ele>
        <time>2022-05-21 10:03:48</time>
      </trkpt>
      <trkpt lat="42.29547" lon="3.18808">
        <ele>120</ele>
        <time>2022-05-21 10:03:49</time>
      </trkpt>
      <trkpt lat="42.2955" lon="3.1881">
        <ele>120.2</ele>
        <time>2022-05-21 10:03:50</time>
      </trkpt>
      <trkpt lat="42.29553" lon="3.18812">
        <ele>120.4</ele>
        <time>2022-05-21 10:03:51</time>
      </trkpt>
      <trkpt lat="42.29556" lon="3.18814">
        <ele>120.4</ele>
        <time>2022-05-21 10:03:52</time>
      </trkpt>
      <trkpt lat="42.29559" lon="3.18816">
        <ele>120.6</ele>
        <time>2022-05-21 10:03:53</time>
      </trkpt>
      <trkpt lat="42.29562" lon="3.18817">
        <ele>120.8</ele>
        <time>2022-05-21 10:03:54</time>
      </trkpt>
      <trkpt lat="42.29565" lon="3.18819">
        <ele>120.8</ele>
        <time>2022-05-21 10:03:55</time>
      </trkpt>
      <trkpt lat="42.29568" lon="3.18821">
        <ele>121</ele>
        <time>2022-05-21 10:03:56</time>
      </trkpt>
      <trkpt lat="42.29571" lon="3.18823">
        <ele>121</ele>
        <time>2022-05-21 10:03:57</time>
      </trkpt>
      <trkpt lat="42.29575" lon="3.18824">
        <ele>121.2</ele>
        <time>2022-05-21 10:03:58</time>
      </trkpt>
      <trkpt lat="42.29578" lon="3.18826">
        <ele>121.4</ele>
        <time>2022-05-21 10:03:59</time>
      </trkpt>
      <trkpt lat="42.29581" lon="3.18828">
        <ele>121.4</ele>
        <time>2022-05-21 10:04:00</time>
      </trkpt>
      <trkpt lat="42.29583" lon="3.1883">
        <ele>121.6</ele>
        <time>2022-05-21 10:04:01</time>
      </trkpt>
      <trkpt lat="42.29586" lon="3.18833">
        <ele>121.8</ele>
        <time>2022-05-21 10:04:02</time>
      </trkpt>
      <trkpt lat="42.29588" lon="3.18836">
        <ele>121.8</ele>
        <time>2022-05-21 10:04:03</time>
      </trkpt>
      <trkpt lat="42.2959" lon="3.1884">
        <ele>122</ele>
        <time>2022-05-21 10:04:04</time>
      </trkpt>
      <trkpt lat="42.29591" lon="3.18844">
        <ele>122.2</ele>
        <time>2022-05-21 10:04:05</time>
      </trkpt>
      <trkpt lat="42.29591" lon="3.18848">
        <ele>122.2</ele>
        <time>2022-05-21 10:04:06</time>
      </trkpt>
      <trkpt lat="42.29592" lon="3.18852">
        <ele>122.4</ele>
        <time>2022-05-21 10:04:07</time>
      </trkpt>
      <trkpt lat="42.29591" lon="3.18857">
        <ele>122.6</ele>
        <time>2022-05-21 10:04:08</time>
      </trkpt>
      <trkpt lat="42.29589" lon="3.18861">
        <ele>122.6</ele>
        <time>2022-05-21 10:04:09</time>
      </trkpt>
      <trkpt lat="42.29587" lon="3.18865">
        <ele>122.8</ele>
        <time>2022-05-21 10:04:10</time>
      </trkpt>
      <trkpt lat="42.29584" lon="3.18868">
        <ele>123</ele>
        <time>2022-05-21 10:04:11</time>
      </trkpt>
      <trkpt lat="42.29581" lon="3.18871">
        <ele>123.2</ele>
        <time>2022-05-21 10:04:12</time>
      </trkpt>
      <trkpt lat="42.29578" lon="3.18874">
        <ele>123.4</ele>
        <time>2022-05-21 10:04:13</time>
      </trkpt>
      <trkpt lat="42.29575" lon="3.18876">
        <ele>123.6</ele>
        <time>2022-05-21 10:04:14</time>
      </trkpt>
      <trkpt lat="42.29572" lon="3.18879">
        <ele>123.8</ele>
        <time>2022-05-21 10:04:15</time>
      </trkpt>
      <trkpt lat="42.29569" lon="3.18881">
        <ele>124</ele>
        <time>2022-05-21 10:04:16</time>
      </trkpt>
      <trkpt lat="42.29566" lon="3.18883">
        <ele>124.2</ele>
        <time>2022-05-21 10:04:17</time>
      </trkpt>
      <trkpt lat="42.29563" lon="3.18885">
        <ele>124.4</ele>
        <time>2022-05-21 10:04:18</time>
      </trkpt>
      <trkpt lat="42.2956" lon="3.18887">
        <ele>124.4</ele>
        <time>2022-05-21 10:04:19</time>
      </trkpt>
      <trkpt lat="42.29557" lon="3.18889">
        <ele>124.6</ele>
        <time>2022-05-21 10:04:20</time>
      </trkpt>
      <trkpt lat="42.29555" lon="3.18892">
        <ele>124.8</ele>
        <time>2022-05-21 10:04:21</time>
      </trkpt>
      <trkpt lat="42.29552" lon="3.18894">
        <ele>125</ele>
        <time>2022-05-21 10:04:22</time>
      </trkpt>
      <trkpt lat="42.29549" lon="3.18896">
        <ele>125.2</ele>
        <time>2022-05-21 10:04:23</time>
      </trkpt>
      <trkpt lat="42.29546" lon="3.18898">
        <ele>125.4</ele>
        <time>2022-05-21 10:04:24</time>
      </trkpt>
      <trkpt lat="42.29543" lon="3.189">
        <ele>125.4</ele>
        <time>2022-05-21 10:04:25</time>
      </trkpt>
      <trkpt lat="42.2954" lon="3.18902">
        <ele>125.6</ele>
        <time>2022-05-21 10:04:26</time>
      </trkpt>
      <trkpt lat="42.29537" lon="3.18905">
        <ele>125.8</ele>
        <time>2022-05-21 10:04:27</time>
      </trkpt>
      <trkpt lat="42.29534" lon="3.18907">
        <ele>125.8</ele>
        <time>2022-05-21 10:04:28</time>
      </trkpt>
      <trkpt lat="42.29532" lon="3.18909">
        <ele>126</ele>
        <time>2022-05-21 10:04:29</time>
      </trkpt>
      <trkpt lat="42.29529" lon="3.18911">
        <ele>126.2</ele>
        <time>2022-05-21 10:04:30</time>
      </trkpt>
      <trkpt lat="42.29526" lon="3.18914">
        <ele>126.4</ele>
        <time>2022-05-21 10:04:31</time>
      </trkpt>
      <trkpt lat="42.29524" lon="3.18917">
        <ele>126.6</ele>
        <time>2022-05-21 10:04:32</time>
      </trkpt>
      <trkpt lat="42.29521" lon="3.1892">
        <ele>126.8</ele>
        <time>2022-05-21 10:04:33</time>
      </trkpt>
      <trkpt lat="42.29519" lon="3.18923">
        <ele>127</ele>
        <time>2022-05-21 10:04:34</time>
      </trkpt>
      <trkpt lat="42.29517" lon="3.18927">
        <ele>127.2</ele>
        <time>2022-05-21 10:04:35</time>
      </trkpt>
      <trkpt lat="42.29516" lon="3.1893">
        <ele>127.4</ele>
        <time>2022-05-21 10:04:36</time>
      </trkpt>
      <trkpt lat="42.29515" lon="3.18934">
        <ele>127.6</ele>
        <time>2022-05-21 10:04:37</time>
      </trkpt>
      <trkpt lat="42.29514" lon="3.18939">
        <ele>127.8</ele>
        <time>2022-05-21 10:04:38</time>
      </trkpt>
      <trkpt lat="42.29513" lon="3.18943">
        <ele>128</ele>
        <time>2022-05-21 10:04:39</time>
      </trkpt>
      <trkpt lat="42.29513" lon="3.18948">
        <ele>128.2</ele>
        <time>2022-05-21 10:04:40</time>
      </trkpt>
      <trkpt lat="42.29513" lon="3.18952">
        <ele>128.4</ele>
        <time>2022-05-21 10:04:41</time>
      </trkpt>
      <trkpt lat="42.29513" lon="3.18956">
        <ele>128.6</ele>
        <time>2022-05-21 10:04:42</time>
      </trkpt>
      <trkpt lat="42.29514" lon="3.1896">
        <ele>128.8</ele>
        <time>2022-05-21 10:04:43</time>
      </trkpt>
      <trkpt lat="42.29514" lon="3.18964">
        <ele>129</ele>
        <time>2022-05-21 10:04:44</time>
      </trkpt>
      <trkpt lat="42.29514" lon="3.18968">
        <ele>129.2</ele>
        <time>2022-05-21 10:04:45</time>
      </trkpt>
      <trkpt lat="42.29514" lon="3.18973">
        <ele>129.4</ele>
        <time>2022-05-21 10:04:46</time>
      </trkpt>
      <trkpt lat="42.29515" lon="3.18977">
        <ele>129.6</ele>
        <time>2022-05-21 10:04:47</time>
      </trkpt>
      <trkpt lat="42.29515" lon="3.18981">
        <ele>129.6</ele>
        <time>2022-05-21 10:04:48</time>
      </trkpt>
      <trkpt lat="42.29516" lon="3.18985">
        <ele>129.8</ele>
        <time>2022-05-21 10:04:49</time>
      </trkpt>
      <trkpt lat="42.29517" lon="3.18989">
        <ele>130</ele>
        <time>2022-05-21 10:04:50</time>
      </trkpt>
      <trkpt lat="42.29518" lon="3.18993">
        <ele>130.2</ele>
        <time>2022-05-21 10:04:51</time>
      </trkpt>
      <trkpt lat="42.29518" lon="3.18997">
        <ele>130.6</ele>
        <time>2022-05-21 10:04:52</time>
      </trkpt>
      <trkpt lat="42.29519" lon="3.19">
        <ele>130.8</ele>
        <time>2022-05-21 10:04:53</time>
      </trkpt>
      <trkpt lat="42.2952" lon="3.19004">
        <ele>131</ele>
        <time>2022-05-21 10:04:54</time>
      </trkpt>
      <trkpt lat="42.2952" lon="3.19008">
        <ele>131.2</ele>
        <time>2022-05-21 10:04:55</time>
      </trkpt>
      <trkpt lat="42.2952" lon="3.19011">
        <ele>131.4</ele>
        <time>2022-05-21 10:04:56</time>
      </trkpt>
      <trkpt lat="42.29521" lon="3.19015">
        <ele>131.6</ele>
        <time>2022-05-21 10:04:57</time>
      </trkpt>
      <trkpt lat="42.29522" lon="3.19019">
        <ele>131.8</ele>
        <time>2022-05-21 10:04:58</time>
      </trkpt>
      <trkpt lat="42.29523" lon="3.19022">
        <ele>132</ele>
        <time>2022-05-21 10:04:59</time>
      </trkpt>
      <trkpt lat="42.29523" lon="3.19025">
        <ele>132.2</ele>
        <time>2022-05-21 10:05:00</time>
      </trkpt>
      <trkpt lat="42.29524" lon="3.19028">
        <ele>132.6</ele>
        <time>2022-05-21 10:05:01</time>
      </trkpt>
      <trkpt lat="42.29525" lon="3.19032">
        <ele>132.8</ele>
        <time>2022-05-21 10:05:02</time>
      </trkpt>
      <trkpt lat="42.29526" lon="3.19035">
        <ele>133</ele>
        <time>2022-05-21 10:05:03</time>
      </trkpt>
      <trkpt lat="42.29527" lon="3.19039">
        <ele>133.2</ele>
        <time>2022-05-21 10:05:04</time>
      </trkpt>
      <trkpt lat="42.29528" lon="3.19043">
        <ele>133.4</ele>
        <time>2022-05-21 10:05:05</time>
      </trkpt>
      <trkpt lat="42.29529" lon="3.19047">
        <ele>133.6</ele>
        <time>2022-05-21 10:05:06</time>
      </trkpt>
      <trkpt lat="42.2953" lon="3.19051">
        <ele>133.8</ele>
        <time>2022-05-21 10:05:07</time>
      </trkpt>
      <trkpt lat="42.29532" lon="3.19054">
        <ele>134</ele>
        <time>2022-05-21 10:05:08</time>
      </trkpt>
      <trkpt lat="42.29534" lon="3.19058">
        <ele>134.2</ele>
        <time>2022-05-21 10:05:09</time>
      </trkpt>
      <trkpt lat="42.29536" lon="3.19062">
        <ele>134.4</ele>
        <time>2022-05-21 10:05:10</time>
      </trkpt>
      <trkpt lat="42.29538" lon="3.19065">
        <ele>134.6</ele>
        <time>2022-05-21 10:05:11</time>
      </trkpt>
      <trkpt lat="42.2954" lon="3.19068">
        <ele>135</ele>
        <time>2022-05-21 10:05:12</time>
      </trkpt>
      <trkpt lat="42.29542" lon="3.1907">
        <ele>135.2</ele>
        <time>2022-05-21 10:05:13</time>
      </trkpt>
      <trkpt lat="42.29543" lon="3.19073">
        <ele>135.4</ele>
        <time>2022-05-21 10:05:14</time>
      </trkpt>
      <trkpt lat="42.29544" lon="3.19077">
        <ele>135.6</ele>
        <time>2022-05-21 10:05:15</time>
      </trkpt>
      <trkpt lat="42.29546" lon="3.19081">
        <ele>135.8</ele>
        <time>2022-05-21 10:05:16</time>
      </trkpt>
      <trkpt lat="42.29548" lon="3.19085">
        <ele>136</ele>
        <time>2022-05-21 10:05:17</time>
      </trkpt>
      <trkpt lat="42.29549" lon="3.19087">
        <ele>136.2</ele>
        <time>2022-05-21 10:05:18</time>
      </trkpt>
      <trkpt lat="42.29552" lon="3.1909">
        <ele>136.4</ele>
        <time>2022-05-21 10:05:19</time>
      </trkpt>
      <trkpt lat="42.29554" lon="3.19092">
        <ele>136.6</ele>
        <time>2022-05-21 10:05:20</time>
      </trkpt>
      <trkpt lat="42.29556" lon="3.19095">
        <ele>136.6</ele>
        <time>2022-05-21 10:05:21</time>
      </trkpt>
      <trkpt lat="42.29558" lon="3.19097">
        <ele>137</ele>
        <time>2022-05-21 10:05:22</time>
      </trkpt>
      <trkpt lat="42.2956" lon="3.19099">
        <ele>137.2</ele>
        <time>2022-05-21 10:05:23</time>
      </trkpt>
      <trkpt lat="42.29562" lon="3.19101">
        <ele>137.4</ele>
        <time>2022-05-21 10:05:24</time>
      </trkpt>
      <trkpt lat="42.29564" lon="3.19104">
        <ele>137.6</ele>
        <time>2022-05-21 10:05:25</time>
      </trkpt>
      <trkpt lat="42.29566" lon="3.19106">
        <ele>137.8</ele>
        <time>2022-05-21 10:05:26</time>
      </trkpt>
      <trkpt lat="42.29568" lon="3.19108">
        <ele>138</ele>
        <time>2022-05-21 10:05:27</time>
      </trkpt>
      <trkpt lat="42.2957" lon="3.19111">
        <ele>138</ele>
        <time>2022-05-21 10:05:28</time>
      </trkpt>
      <trkpt lat="42.29572" lon="3.19114">
        <ele>138.2</ele>
        <time>2022-05-21 10:05:29</time>
      </trkpt>
      <trkpt lat="42.29574" lon="3.19116">
        <ele>138.6</ele>
        <time>2022-05-21 10:05:30</time>
      </trkpt>
      <trkpt lat="42.29576" lon="3.19119">
        <ele>138.8</ele>
        <time>2022-05-21 10:05:31</time>
      </trkpt>
      <trkpt lat="42.29578" lon="3.19121">
        <ele>139</ele>
        <time>2022-05-21 10:05:32</time>
      </trkpt>
      <trkpt lat="42.2958" lon="3.19124">
        <ele>139.2</ele>
        <time>2022-05-21 10:05:33</time>
      </trkpt>
      <trkpt lat="42.29582" lon="3.19127">
        <ele>139.4</ele>
        <time>2022-05-21 10:05:34</time>
      </trkpt>
      <trkpt lat="42.29584" lon="3.1913">
        <ele>139.6</ele>
        <time>2022-05-21 10:05:35</time>
      </trkpt>
      <trkpt lat="42.29586" lon="3.19132">
        <ele>139.8</ele>
        <time>2022-05-21 10:05:36</time>
      </trkpt>
      <trkpt lat="42.29588" lon="3.19135">
        <ele>140.2</ele>
        <time>2022-05-21 10:05:37</time>
      </trkpt>
      <trkpt lat="42.2959" lon="3.19138">
        <ele>140.4</ele>
        <time>2022-05-21 10:05:38</time>
      </trkpt>
      <trkpt lat="42.29592" lon="3.1914">
        <ele>140.6</ele>
        <time>2022-05-21 10:05:39</time>
      </trkpt>
      <trkpt lat="42.29594" lon="3.19143">
        <ele>140.8</ele>
        <time>2022-05-21 10:05:40</time>
      </trkpt>
      <trkpt lat="42.29596" lon="3.19145">
        <ele>141</ele>
        <time>2022-05-21 10:05:41</time>
      </trkpt>
      <trkpt lat="42.29597" lon="3.19148">
        <ele>141.2</ele>
        <time>2022-05-21 10:05:42</time>
      </trkpt>
      <trkpt lat="42.29599" lon="3.1915">
        <ele>141.4</ele>
        <time>2022-05-21 10:05:43</time>
      </trkpt>
      <trkpt lat="42.29601" lon="3.19153">
        <ele>141.6</ele>
        <time>2022-05-21 10:05:44</time>
      </trkpt>
      <trkpt lat="42.29602" lon="3.19155">
        <ele>142</ele>
        <time>2022-05-21 10:05:45</time>
      </trkpt>
      <trkpt lat="42.29604" lon="3.19158">
        <ele>142.2</ele>
        <time>2022-05-21 10:05:46</time>
      </trkpt>
      <trkpt lat="42.29606" lon="3.19161">
        <ele>142.4</ele>
        <time>2022-05-21 10:05:47</time>
      </trkpt>
      <trkpt lat="42.29607" lon="3.19164">
        <ele>142.6</ele>
        <time>2022-05-21 10:05:48</time>
      </trkpt>
      <trkpt lat="42.29609" lon="3.19167">
        <ele>142.8</ele>
        <time>2022-05-21 10:05:49</time>
      </trkpt>
      <trkpt lat="42.29611" lon="3.19169">
        <ele>143</ele>
        <time>2022-05-21 10:05:50</time>
      </trkpt>
      <trkpt lat="42.29613" lon="3.19171">
        <ele>143.2</ele>
        <time>2022-05-21 10:05:51</time>
      </trkpt>
      <trkpt lat="42.29614" lon="3.19174">
        <ele>143.4</ele>
        <time>2022-05-21 10:05:52</time>
      </trkpt>
      <trkpt lat="42.29616" lon="3.19176">
        <ele>143.6</ele>
        <time>2022-05-21 10:05:53</time>
      </trkpt>
      <trkpt lat="42.29618" lon="3.19179">
        <ele>143.8</ele>
        <time>2022-05-21 10:05:54</time>
      </trkpt>
      <trkpt lat="42.29619" lon="3.19181">
        <ele>143.8</ele>
        <time>2022-05-21 10:05:55</time>
      </trkpt>
      <trkpt lat="42.29621" lon="3.19184">
        <ele>144</ele>
        <time>2022-05-21 10:05:56</time>
      </trkpt>
      <trkpt lat="42.29622" lon="3.19187">
        <ele>144.2</ele>
        <time>2022-05-21 10:05:57</time>
      </trkpt>
      <trkpt lat="42.29624" lon="3.1919">
        <ele>144.4</ele>
        <time>2022-05-21 10:05:58</time>
      </trkpt>
      <trkpt lat="42.29625" lon="3.19193">
        <ele>144.6</ele>
        <time>2022-05-21 10:05:59</time>
      </trkpt>
      <trkpt lat="42.29627" lon="3.19196">
        <ele>144.6</ele>
        <time>2022-05-21 10:06:00</time>
      </trkpt>
      <trkpt lat="42.29628" lon="3.19198">
        <ele>144.8</ele>
        <time>2022-05-21 10:06:01</time>
      </trkpt>
      <trkpt lat="42.2963" lon="3.19201">
        <ele>145</ele>
        <time>2022-05-21 10:06:02</time>
      </trkpt>
      <trkpt lat="42.29632" lon="3.19203">
        <ele>145.2</ele>
        <time>2022-05-21 10:06:03</time>
      </trkpt>
      <trkpt lat="42.29634" lon="3.19205">
        <ele>145.4</ele>
        <time>2022-05-21 10:06:04</time>
      </trkpt>
      <trkpt lat="42.29636" lon="3.19208">
        <ele>145.6</ele>
        <time>2022-05-21 10:06:05</time>
      </trkpt>
      <trkpt lat="42.29637" lon="3.1921">
        <ele>145.8</ele>
        <time>2022-05-21 10:06:06</time>
      </trkpt>
      <trkpt lat="42.29639" lon="3.19212">
        <ele>146</ele>
        <time>2022-05-21 10:06:07</time>
      </trkpt>
      <trkpt lat="42.2964" lon="3.19215">
        <ele>146.2</ele>
        <time>2022-05-21 10:06:08</time>
      </trkpt>
      <trkpt lat="42.29642" lon="3.19217">
        <ele>146.4</ele>
        <time>2022-05-21 10:06:09</time>
      </trkpt>
      <trkpt lat="42.29643" lon="3.1922">
        <ele>146.6</ele>
        <time>2022-05-21 10:06:10</time>
      </trkpt>
      <trkpt lat="42.29645" lon="3.19222">
        <ele>146.6</ele>
        <time>2022-05-21 10:06:11</time>
      </trkpt>
      <trkpt lat="42.29646" lon="3.19224">
        <ele>146.8</ele>
        <time>2022-05-21 10:06:12</time>
      </trkpt>
      <trkpt lat="42.29648" lon="3.19227">
        <ele>147</ele>
        <time>2022-05-21 10:06:13</time>
      </trkpt>
      <trkpt lat="42.2965" lon="3.19229">
        <ele>147.2</ele>
        <time>2022-05-21 10:06:14</time>
      </trkpt>
      <trkpt lat="42.29651" lon="3.19232">
        <ele>147.4</ele>
        <time>2022-05-21 10:06:15</time>
      </trkpt>
      <trkpt lat="42.29653" lon="3.19234">
        <ele>147.6</ele>
        <time>2022-05-21 10:06:16</time>
      </trkpt>
      <trkpt lat="42.29654" lon="3.19237">
        <ele>147.8</ele>
        <time>2022-05-21 10:06:17</time>
      </trkpt>
      <trkpt lat="42.29656" lon="3.1924">
        <ele>147.8</ele>
        <time>2022-05-21 10:06:18</time>
      </trkpt>
      <trkpt lat="42.29657" lon="3.19243">
        <ele>148</ele>
        <time>2022-05-21 10:06:19</time>
      </trkpt>
      <trkpt lat="42.29658" lon="3.19247">
        <ele>148.2</ele>
        <time>2022-05-21 10:06:20</time>
      </trkpt>
      <trkpt lat="42.29658" lon="3.1925">
        <ele>148.4</ele>
        <time>2022-05-21 10:06:21</time>
      </trkpt>
      <trkpt lat="42.29659" lon="3.19254">
        <ele>148.4</ele>
        <time>2022-05-21 10:06:22</time>
      </trkpt>
      <trkpt lat="42.29658" lon="3.19258">
        <ele>148.6</ele>
        <time>2022-05-21 10:06:23</time>
      </trkpt>
      <trkpt lat="42.29658" lon="3.19262">
        <ele>148.8</ele>
        <time>2022-05-21 10:06:24</time>
      </trkpt>
      <trkpt lat="42.29656" lon="3.19266">
        <ele>149</ele>
        <time>2022-05-21 10:06:25</time>
      </trkpt>
      <trkpt lat="42.29655" lon="3.19269">
        <ele>149.2</ele>
        <time>2022-05-21 10:06:26</time>
      </trkpt>
      <trkpt lat="42.29652" lon="3.19271">
        <ele>149.2</ele>
        <time>2022-05-21 10:06:27</time>
      </trkpt>
      <trkpt lat="42.2965" lon="3.19272">
        <ele>149.4</ele>
        <time>2022-05-21 10:06:28</time>
      </trkpt>
      <trkpt lat="42.29647" lon="3.19273">
        <ele>149.6</ele>
        <time>2022-05-21 10:06:29</time>
      </trkpt>
      <trkpt lat="42.29644" lon="3.19272">
        <ele>149.8</ele>
        <time>2022-05-21 10:06:30</time>
      </trkpt>
      <trkpt lat="42.29641" lon="3.19271">
        <ele>150</ele>
        <time>2022-05-21 10:06:31</time>
      </trkpt>
      <trkpt lat="42.29639" lon="3.1927">
        <ele>150</ele>
        <time>2022-05-21 10:06:32</time>
      </trkpt>
      <trkpt lat="42.29636" lon="3.19269">
        <ele>150.2</ele>
        <time>2022-05-21 10:06:33</time>
      </trkpt>
      <trkpt lat="42.29633" lon="3.19268">
        <ele>150.4</ele>
        <time>2022-05-21 10:06:34</time>
      </trkpt>
      <trkpt lat="42.29631" lon="3.19267">
        <ele>150.6</ele>
        <time>2022-05-21 10:06:35</time>
      </trkpt>
      <trkpt lat="42.29628" lon="3.19265">
        <ele>150.6</ele>
        <time>2022-05-21 10:06:36</time>
      </trkpt>
      <trkpt lat="42.29625" lon="3.19264">
        <ele>150.8</ele>
        <time>2022-05-21 10:06:37</time>
      </trkpt>
      <trkpt lat="42.29623" lon="3.19263">
        <ele>151</ele>
        <time>2022-05-21 10:06:38</time>
      </trkpt>
      <trkpt lat="42.2962" lon="3.19262">
        <ele>151.2</ele>
        <time>2022-05-21 10:06:39</time>
      </trkpt>
      <trkpt lat="42.29617" lon="3.19262">
        <ele>151.4</ele>
        <time>2022-05-21 10:06:40</time>
      </trkpt>
      <trkpt lat="42.29614" lon="3.19261">
        <ele>151.4</ele>
        <time>2022-05-21 10:06:41</time>
      </trkpt>
      <trkpt lat="42.29611" lon="3.19261">
        <ele>151.6</ele>
        <time>2022-05-21 10:06:42</time>
      </trkpt>
      <trkpt lat="42.29608" lon="3.1926">
        <ele>151.6</ele>
        <time>2022-05-21 10:06:43</time>
      </trkpt>
      <trkpt lat="42.29606" lon="3.1926">
        <ele>151.8</ele>
        <time>2022-05-21 10:06:44</time>
      </trkpt>
      <trkpt lat="42.29603" lon="3.1926">
        <ele>151.8</ele>
        <time>2022-05-21 10:06:45</time>
      </trkpt>
      <trkpt lat="42.296" lon="3.19259">
        <ele>152</ele>
        <time>2022-05-21 10:06:46</time>
      </trkpt>
      <trkpt lat="42.29597" lon="3.19259">
        <ele>152.2</ele>
        <time>2022-05-21 10:06:47</time>
      </trkpt>
      <trkpt lat="42.29595" lon="3.19259">
        <ele>152.4</ele>
        <time>2022-05-21 10:06:48</time>
      </trkpt>
      <trkpt lat="42.29592" lon="3.19259">
        <ele>152.6</ele>
        <time>2022-05-21 10:06:49</time>
      </trkpt>
      <trkpt lat="42.29589" lon="3.19259">
        <ele>152.8</ele>
        <time>2022-05-21 10:06:50</time>
      </trkpt>
      <trkpt lat="42.29586" lon="3.19258">
        <ele>153</ele>
        <time>2022-05-21 10:06:51</time>
      </trkpt>
      <trkpt lat="42.29583" lon="3.19258">
        <ele>153</ele>
        <time>2022-05-21 10:06:52</time>
      </trkpt>
      <trkpt lat="42.29581" lon="3.19258">
        <ele>153.4</ele>
        <time>2022-05-21 10:06:53</time>
      </trkpt>
      <trkpt lat="42.29578" lon="3.19258">
        <ele>153.4</ele>
        <time>2022-05-21 10:06:54</time>
      </trkpt>
      <trkpt lat="42.29575" lon="3.19258">
        <ele>153.6</ele>
        <time>2022-05-21 10:06:55</time>
      </trkpt>
      <trkpt lat="42.29572" lon="3.19258">
        <ele>153.8</ele>
        <time>2022-05-21 10:06:56</time>
      </trkpt>
      <trkpt lat="42.29569" lon="3.19258">
        <ele>154</ele>
        <time>2022-05-21 10:06:57</time>
      </trkpt>
      <trkpt lat="42.29566" lon="3.19258">
        <ele>154.2</ele>
        <time>2022-05-21 10:06:58</time>
      </trkpt>
      <trkpt lat="42.29564" lon="3.19258">
        <ele>154.4</ele>
        <time>2022-05-21 10:06:59</time>
      </trkpt>
      <trkpt lat="42.29561" lon="3.19258">
        <ele>154.6</ele>
        <time>2022-05-21 10:07:00</time>
      </trkpt>
      <trkpt lat="42.29558" lon="3.19257">
        <ele>154.8</ele>
        <time>2022-05-21 10:07:01</time>
      </trkpt>
      <trkpt lat="42.29555" lon="3.19257">
        <ele>155</ele>
        <time>2022-05-21 10:07:02</time>
      </trkpt>
      <trkpt lat="42.29552" lon="3.19257">
        <ele>155</ele>
        <time>2022-05-21 10:07:03</time>
      </trkpt>
      <trkpt lat="42.29549" lon="3.19257">
        <ele>155.2</ele>
        <time>2022-05-21 10:07:04</time>
      </trkpt>
      <trkpt lat="42.29546" lon="3.19257">
        <ele>155.4</ele>
        <time>2022-05-21 10:07:05</time>
      </trkpt>
      <trkpt lat="42.29544" lon="3.19257">
        <ele>155.6</ele>
        <time>2022-05-21 10:07:06</time>
      </trkpt>
      <trkpt lat="42.29541" lon="3.19257">
        <ele>155.8</ele>
        <time>2022-05-21 10:07:07</time>
      </trkpt>
      <trkpt lat="42.29538" lon="3.19257">
        <ele>156</ele>
        <time>2022-05-21 10:07:08</time>
      </trkpt>
      <trkpt lat="42.29535" lon="3.19258">
        <ele>156.2</ele>
        <time>2022-05-21 10:07:09</time>
      </trkpt>
      <trkpt lat="42.29532" lon="3.19258">
        <ele>156.4</ele>
        <time>2022-05-21 10:07:10</time>
      </trkpt>
      <trkpt lat="42.2953" lon="3.19259">
        <ele>156.6</ele>
        <time>2022-05-21 10:07:11</time>
      </trkpt>
      <trkpt lat="42.29527" lon="3.19259">
        <ele>156.8</ele>
        <time>2022-05-21 10:07:12</time>
      </trkpt>
      <trkpt lat="42.29524" lon="3.1926">
        <ele>157</ele>
        <time>2022-05-21 10:07:13</time>
      </trkpt>
      <trkpt lat="42.29521" lon="3.1926">
        <ele>157.2</ele>
        <time>2022-05-21 10:07:14</time>
      </trkpt>
      <trkpt lat="42.29518" lon="3.19261">
        <ele>157.4</ele>
        <time>2022-05-21 10:07:15</time>
      </trkpt>
      <trkpt lat="42.29516" lon="3.19262">
        <ele>157.4</ele>
        <time>2022-05-21 10:07:16</time>
      </trkpt>
      <trkpt lat="42.29513" lon="3.19263">
        <ele>157.6</ele>
        <time>2022-05-21 10:07:17</time>
      </trkpt>
      <trkpt lat="42.2951" lon="3.19264">
        <ele>157.8</ele>
        <time>2022-05-21 10:07:18</time>
      </trkpt>
      <trkpt lat="42.29507" lon="3.19265">
        <ele>158</ele>
        <time>2022-05-21 10:07:19</time>
      </trkpt>
      <trkpt lat="42.29504" lon="3.19265">
        <ele>158.2</ele>
        <time>2022-05-21 10:07:20</time>
      </trkpt>
      <trkpt lat="42.29501" lon="3.19266">
        <ele>158.4</ele>
        <time>2022-05-21 10:07:21</time>
      </trkpt>
      <trkpt lat="42.29499" lon="3.19267">
        <ele>158.6</ele>
        <time>2022-05-21 10:07:22</time>
      </trkpt>
      <trkpt lat="42.29496" lon="3.19268">
        <ele>158.8</ele>
        <time>2022-05-21 10:07:23</time>
      </trkpt>
      <trkpt lat="42.29493" lon="3.19269">
        <ele>159</ele>
        <time>2022-05-21 10:07:24</time>
      </trkpt>
      <trkpt lat="42.2949" lon="3.1927">
        <ele>159.2</ele>
        <time>2022-05-21 10:07:25</time>
      </trkpt>
      <trkpt lat="42.29487" lon="3.1927">
        <ele>159.4</ele>
        <time>2022-05-21 10:07:26</time>
      </trkpt>
      <trkpt lat="42.29484" lon="3.19271">
        <ele>159.6</ele>
        <time>2022-05-21 10:07:27</time>
      </trkpt>
      <trkpt lat="42.29482" lon="3.19272">
        <ele>159.8</ele>
        <time>2022-05-21 10:07:28</time>
      </trkpt>
      <trkpt lat="42.29479" lon="3.19273">
        <ele>160</ele>
        <time>2022-05-21 10:07:29</time>
      </trkpt>
      <trkpt lat="42.29476" lon="3.19274">
        <ele>160.2</ele>
        <time>2022-05-21 10:07:30</time>
      </trkpt>
      <trkpt lat="42.29473" lon="3.19275">
        <ele>160.4</ele>
        <time>2022-05-21 10:07:31</time>
      </trkpt>
      <trkpt lat="42.29471" lon="3.19276">
        <ele>160.6</ele>
        <time>2022-05-21 10:07:32</time>
      </trkpt>
      <trkpt lat="42.29468" lon="3.19277">
        <ele>160.8</ele>
        <time>2022-05-21 10:07:33</time>
      </trkpt>
      <trkpt lat="42.29465" lon="3.19277">
        <ele>161</ele>
        <time>2022-05-21 10:07:34</time>
      </trkpt>
      <trkpt lat="42.29462" lon="3.19278">
        <ele>161.2</ele>
        <time>2022-05-21 10:07:35</time>
      </trkpt>
      <trkpt lat="42.29459" lon="3.19279">
        <ele>161.4</ele>
        <time>2022-05-21 10:07:36</time>
      </trkpt>
      <trkpt lat="42.29457" lon="3.1928">
        <ele>161.6</ele>
        <time>2022-05-21 10:07:37</time>
      </trkpt>
      <trkpt lat="42.29454" lon="3.19281">
        <ele>161.8</ele>
        <time>2022-05-21 10:07:38</time>
      </trkpt>
      <trkpt lat="42.29451" lon="3.19282">
        <ele>162</ele>
        <time>2022-05-21 10:07:39</time>
      </trkpt>
      <trkpt lat="42.29448" lon="3.19283">
        <ele>162</ele>
        <time>2022-05-21 10:07:40</time>
      </trkpt>
      <trkpt lat="42.29446" lon="3.19283">
        <ele>162.2</ele>
        <time>2022-05-21 10:07:41</time>
      </trkpt>
      <trkpt lat="42.29443" lon="3.19284">
        <ele>162.4</ele>
        <time>2022-05-21 10:07:42</time>
      </trkpt>
      <trkpt lat="42.2944" lon="3.19285">
        <ele>162.6</ele>
        <time>2022-05-21 10:07:43</time>
      </trkpt>
      <trkpt lat="42.29437" lon="3.19286">
        <ele>162.8</ele>
        <time>2022-05-21 10:07:44</time>
      </trkpt>
      <trkpt lat="42.29435" lon="3.19287">
        <ele>163</ele>
        <time>2022-05-21 10:07:45</time>
      </trkpt>
      <trkpt lat="42.29431" lon="3.19288">
        <ele>163.2</ele>
        <time>2022-05-21 10:07:46</time>
      </trkpt>
      <trkpt lat="42.29429" lon="3.19288">
        <ele>163.4</ele>
        <time>2022-05-21 10:07:47</time>
      </trkpt>
      <trkpt lat="42.29426" lon="3.19289">
        <ele>163.6</ele>
        <time>2022-05-21 10:07:48</time>
      </trkpt>
      <trkpt lat="42.29425" lon="3.1929">
        <ele>163.8</ele>
        <time>2022-05-21 10:07:49</time>
      </trkpt>
      <trkpt lat="42.29421" lon="3.19292">
        <ele>163.8</ele>
        <time>2022-05-21 10:07:50</time>
      </trkpt>
      <trkpt lat="42.29418" lon="3.19293">
        <ele>164</ele>
        <time>2022-05-21 10:07:51</time>
      </trkpt>
      <trkpt lat="42.29416" lon="3.19294">
        <ele>164.2</ele>
        <time>2022-05-21 10:07:52</time>
      </trkpt>
      <trkpt lat="42.29414" lon="3.19296">
        <ele>164.4</ele>
        <time>2022-05-21 10:07:53</time>
      </trkpt>
      <trkpt lat="42.29411" lon="3.19298">
        <ele>164.6</ele>
        <time>2022-05-21 10:07:54</time>
      </trkpt>
      <trkpt lat="42.29409" lon="3.193">
        <ele>164.8</ele>
        <time>2022-05-21 10:07:55</time>
      </trkpt>
      <trkpt lat="42.29407" lon="3.19302">
        <ele>164.8</ele>
        <time>2022-05-21 10:07:56</time>
      </trkpt>
      <trkpt lat="42.29405" lon="3.19304">
        <ele>165</ele>
        <time>2022-05-21 10:07:57</time>
      </trkpt>
      <trkpt lat="42.29403" lon="3.19307">
        <ele>165.2</ele>
        <time>2022-05-21 10:07:58</time>
      </trkpt>
      <trkpt lat="42.29401" lon="3.1931">
        <ele>165.4</ele>
        <time>2022-05-21 10:07:59</time>
      </trkpt>
      <trkpt lat="42.29399" lon="3.19313">
        <ele>165.6</ele>
        <time>2022-05-21 10:08:00</time>
      </trkpt>
      <trkpt lat="42.29397" lon="3.19316">
        <ele>165.8</ele>
        <time>2022-05-21 10:08:01</time>
      </trkpt>
      <trkpt lat="42.29396" lon="3.1932">
        <ele>166</ele>
        <time>2022-05-21 10:08:02</time>
      </trkpt>
      <trkpt lat="42.29394" lon="3.19323">
        <ele>166.2</ele>
        <time>2022-05-21 10:08:03</time>
      </trkpt>
      <trkpt lat="42.29393" lon="3.19327">
        <ele>166.4</ele>
        <time>2022-05-21 10:08:04</time>
      </trkpt>
      <trkpt lat="42.29392" lon="3.1933">
        <ele>166.4</ele>
        <time>2022-05-21 10:08:05</time>
      </trkpt>
      <trkpt lat="42.29391" lon="3.19334">
        <ele>166.6</ele>
        <time>2022-05-21 10:08:06</time>
      </trkpt>
      <trkpt lat="42.2939" lon="3.19338">
        <ele>166.8</ele>
        <time>2022-05-21 10:08:07</time>
      </trkpt>
      <trkpt lat="42.29389" lon="3.19341">
        <ele>167</ele>
        <time>2022-05-21 10:08:08</time>
      </trkpt>
      <trkpt lat="42.29388" lon="3.19345">
        <ele>167.2</ele>
        <time>2022-05-21 10:08:09</time>
      </trkpt>
      <trkpt lat="42.29387" lon="3.19349">
        <ele>167.4</ele>
        <time>2022-05-21 10:08:10</time>
      </trkpt>
      <trkpt lat="42.29386" lon="3.19353">
        <ele>167.6</ele>
        <time>2022-05-21 10:08:11</time>
      </trkpt>
      <trkpt lat="42.29385" lon="3.19356">
        <ele>167.8</ele>
        <time>2022-05-21 10:08:12</time>
      </trkpt>
      <trkpt lat="42.29385" lon="3.1936">
        <ele>168</ele>
        <time>2022-05-21 10:08:13</time>
      </trkpt>
      <trkpt lat="42.29385" lon="3.19364">
        <ele>168.2</ele>
        <time>2022-05-21 10:08:14</time>
      </trkpt>
      <trkpt lat="42.29384" lon="3.19368">
        <ele>168.4</ele>
        <time>2022-05-21 10:08:15</time>
      </trkpt>
      <trkpt lat="42.29384" lon="3.19371">
        <ele>168.6</ele>
        <time>2022-05-21 10:08:16</time>
      </trkpt>
      <trkpt lat="42.29384" lon="3.19375">
        <ele>168.8</ele>
        <time>2022-05-21 10:08:17</time>
      </trkpt>
      <trkpt lat="42.29385" lon="3.19379">
        <ele>169</ele>
        <time>2022-05-21 10:08:18</time>
      </trkpt>
      <trkpt lat="42.29385" lon="3.19383">
        <ele>169.2</ele>
        <time>2022-05-21 10:08:19</time>
      </trkpt>
      <trkpt lat="42.29385" lon="3.19387">
        <ele>169.4</ele>
        <time>2022-05-21 10:08:20</time>
      </trkpt>
      <trkpt lat="42.29386" lon="3.1939">
        <ele>169.6</ele>
        <time>2022-05-21 10:08:21</time>
      </trkpt>
      <trkpt lat="42.29386" lon="3.19394">
        <ele>169.8</ele>
        <time>2022-05-21 10:08:22</time>
      </trkpt>
      <trkpt lat="42.29387" lon="3.19398">
        <ele>170</ele>
        <time>2022-05-21 10:08:23</time>
      </trkpt>
      <trkpt lat="42.29387" lon="3.19401">
        <ele>170.2</ele>
        <time>2022-05-21 10:08:24</time>
      </trkpt>
      <trkpt lat="42.29388" lon="3.19404">
        <ele>170.4</ele>
        <time>2022-05-21 10:08:25</time>
      </trkpt>
      <trkpt lat="42.29389" lon="3.19408">
        <ele>170.6</ele>
        <time>2022-05-21 10:08:26</time>
      </trkpt>
      <trkpt lat="42.2939" lon="3.19412">
        <ele>170.8</ele>
        <time>2022-05-21 10:08:27</time>
      </trkpt>
      <trkpt lat="42.29391" lon="3.19416">
        <ele>171</ele>
        <time>2022-05-21 10:08:28</time>
      </trkpt>
      <trkpt lat="42.29391" lon="3.19419">
        <ele>171.2</ele>
        <time>2022-05-21 10:08:29</time>
      </trkpt>
      <trkpt lat="42.29392" lon="3.19423">
        <ele>171.4</ele>
        <time>2022-05-21 10:08:30</time>
      </trkpt>
      <trkpt lat="42.29394" lon="3.19427">
        <ele>171.6</ele>
        <time>2022-05-21 10:08:31</time>
      </trkpt>
      <trkpt lat="42.29395" lon="3.1943">
        <ele>171.8</ele>
        <time>2022-05-21 10:08:32</time>
      </trkpt>
      <trkpt lat="42.29396" lon="3.19433">
        <ele>172</ele>
        <time>2022-05-21 10:08:33</time>
      </trkpt>
      <trkpt lat="42.29397" lon="3.19438">
        <ele>172.2</ele>
        <time>2022-05-21 10:08:34</time>
      </trkpt>
      <trkpt lat="42.29399" lon="3.19441">
        <ele>172.4</ele>
        <time>2022-05-21 10:08:35</time>
      </trkpt>
      <trkpt lat="42.294" lon="3.19444">
        <ele>172.6</ele>
        <time>2022-05-21 10:08:36</time>
      </trkpt>
      <trkpt lat="42.29402" lon="3.19447">
        <ele>172.8</ele>
        <time>2022-05-21 10:08:37</time>
      </trkpt>
      <trkpt lat="42.29404" lon="3.1945">
        <ele>173</ele>
        <time>2022-05-21 10:08:38</time>
      </trkpt>
      <trkpt lat="42.29406" lon="3.19453">
        <ele>173.2</ele>
        <time>2022-05-21 10:08:39</time>
      </trkpt>
      <trkpt lat="42.29407" lon="3.19456">
        <ele>173.4</ele>
        <time>2022-05-21 10:08:40</time>
      </trkpt>
      <trkpt lat="42.29409" lon="3.19459">
        <ele>173.6</ele>
        <time>2022-05-21 10:08:41</time>
      </trkpt>
      <trkpt lat="42.29411" lon="3.19462">
        <ele>174</ele>
        <time>2022-05-21 10:08:42</time>
      </trkpt>
      <trkpt lat="42.29413" lon="3.19464">
        <ele>174.2</ele>
        <time>2022-05-21 10:08:43</time>
      </trkpt>
      <trkpt lat="42.29415" lon="3.19467">
        <ele>174.4</ele>
        <time>2022-05-21 10:08:44</time>
      </trkpt>
      <trkpt lat="42.29417" lon="3.1947">
        <ele>174.4</ele>
        <time>2022-05-21 10:08:45</time>
      </trkpt>
      <trkpt lat="42.29419" lon="3.19473">
        <ele>174.6</ele>
        <time>2022-05-21 10:08:46</time>
      </trkpt>
      <trkpt lat="42.29422" lon="3.19476">
        <ele>174.8</ele>
        <time>2022-05-21 10:08:47</time>
      </trkpt>
      <trkpt lat="42.29423" lon="3.19478">
        <ele>175</ele>
        <time>2022-05-21 10:08:48</time>
      </trkpt>
      <trkpt lat="42.29425" lon="3.1948">
        <ele>175.2</ele>
        <time>2022-05-21 10:08:49</time>
      </trkpt>
      <trkpt lat="42.29428" lon="3.19483">
        <ele>175.4</ele>
        <time>2022-05-21 10:08:50</time>
      </trkpt>
      <trkpt lat="42.2943" lon="3.19486">
        <ele>175.6</ele>
        <time>2022-05-21 10:08:51</time>
      </trkpt>
      <trkpt lat="42.29432" lon="3.19489">
        <ele>175.8</ele>
        <time>2022-05-21 10:08:52</time>
      </trkpt>
      <trkpt lat="42.29434" lon="3.19491">
        <ele>176</ele>
        <time>2022-05-21 10:08:53</time>
      </trkpt>
      <trkpt lat="42.29436" lon="3.19495">
        <ele>176.2</ele>
        <time>2022-05-21 10:08:54</time>
      </trkpt>
      <trkpt lat="42.29438" lon="3.19498">
        <ele>176.2</ele>
        <time>2022-05-21 10:08:55</time>
      </trkpt>
      <trkpt lat="42.2944" lon="3.19501">
        <ele>176.4</ele>
        <time>2022-05-21 10:08:56</time>
      </trkpt>
      <trkpt lat="42.29442" lon="3.19504">
        <ele>176.6</ele>
        <time>2022-05-21 10:08:57</time>
      </trkpt>
      <trkpt lat="42.29444" lon="3.19508">
        <ele>176.8</ele>
        <time>2022-05-21 10:08:58</time>
      </trkpt>
      <trkpt lat="42.29446" lon="3.1951">
        <ele>177</ele>
        <time>2022-05-21 10:08:59</time>
      </trkpt>
      <trkpt lat="42.29448" lon="3.19513">
        <ele>177.2</ele>
        <time>2022-05-21 10:09:00</time>
      </trkpt>
      <trkpt lat="42.29451" lon="3.19516">
        <ele>177.4</ele>
        <time>2022-05-21 10:09:01</time>
      </trkpt>
      <trkpt lat="42.29453" lon="3.19519">
        <ele>177.8</ele>
        <time>2022-05-21 10:09:02</time>
      </trkpt>
      <trkpt lat="42.29454" lon="3.19522">
        <ele>177.8</ele>
        <time>2022-05-21 10:09:03</time>
      </trkpt>
      <trkpt lat="42.29457" lon="3.19524">
        <ele>178</ele>
        <time>2022-05-21 10:09:04</time>
      </trkpt>
      <trkpt lat="42.29459" lon="3.19527">
        <ele>178.4</ele>
        <time>2022-05-21 10:09:05</time>
      </trkpt>
      <trkpt lat="42.29461" lon="3.1953">
        <ele>178.6</ele>
        <time>2022-05-21 10:09:06</time>
      </trkpt>
      <trkpt lat="42.29463" lon="3.19532">
        <ele>178.8</ele>
        <time>2022-05-21 10:09:07</time>
      </trkpt>
      <trkpt lat="42.29465" lon="3.19535">
        <ele>179</ele>
        <time>2022-05-21 10:09:08</time>
      </trkpt>
      <trkpt lat="42.29468" lon="3.19538">
        <ele>179.2</ele>
        <time>2022-05-21 10:09:09</time>
      </trkpt>
      <trkpt lat="42.2947" lon="3.1954">
        <ele>179.4</ele>
        <time>2022-05-21 10:09:10</time>
      </trkpt>
      <trkpt lat="42.29472" lon="3.19543">
        <ele>179.6</ele>
        <time>2022-05-21 10:09:11</time>
      </trkpt>
      <trkpt lat="42.29474" lon="3.19546">
        <ele>179.8</ele>
        <time>2022-05-21 10:09:12</time>
      </trkpt>
      <trkpt lat="42.29477" lon="3.19549">
        <ele>180</ele>
        <time>2022-05-21 10:09:13</time>
      </trkpt>
      <trkpt lat="42.29479" lon="3.19551">
        <ele>180.2</ele>
        <time>2022-05-21 10:09:14</time>
      </trkpt>
      <trkpt lat="42.29481" lon="3.19554">
        <ele>180.4</ele>
        <time>2022-05-21 10:09:15</time>
      </trkpt>
      <trkpt lat="42.29484" lon="3.19557">
        <ele>180.6</ele>
        <time>2022-05-21 10:09:16</time>
      </trkpt>
      <trkpt lat="42.29487" lon="3.1956">
        <ele>181</ele>
        <time>2022-05-21 10:09:17</time>
      </trkpt>
      <trkpt lat="42.29489" lon="3.19563">
        <ele>181</ele>
        <time>2022-05-21 10:09:18</time>
      </trkpt>
      <trkpt lat="42.29492" lon="3.19566">
        <ele>181.2</ele>
        <time>2022-05-21 10:09:19</time>
      </trkpt>
      <trkpt lat="42.29495" lon="3.19568">
        <ele>181.6</ele>
        <time>2022-05-21 10:09:20</time>
      </trkpt>
      <trkpt lat="42.29498" lon="3.1957">
        <ele>181.8</ele>
        <time>2022-05-21 10:09:21</time>
      </trkpt>
      <trkpt lat="42.29501" lon="3.19572">
        <ele>182</ele>
        <time>2022-05-21 10:09:22</time>
      </trkpt>
      <trkpt lat="42.29504" lon="3.19574">
        <ele>182.2</ele>
        <time>2022-05-21 10:09:23</time>
      </trkpt>
      <trkpt lat="42.29507" lon="3.19576">
        <ele>182.4</ele>
        <time>2022-05-21 10:09:24</time>
      </trkpt>
      <trkpt lat="42.29511" lon="3.19578">
        <ele>182.6</ele>
        <time>2022-05-21 10:09:25</time>
      </trkpt>
      <trkpt lat="42.29513" lon="3.1958">
        <ele>182.8</ele>
        <time>2022-05-21 10:09:26</time>
      </trkpt>
      <trkpt lat="42.29516" lon="3.19581">
        <ele>183</ele>
        <time>2022-05-21 10:09:27</time>
      </trkpt>
      <trkpt lat="42.29519" lon="3.19583">
        <ele>183.2</ele>
        <time>2022-05-21 10:09:28</time>
      </trkpt>
      <trkpt lat="42.29522" lon="3.19584">
        <ele>183.4</ele>
        <time>2022-05-21 10:09:29</time>
      </trkpt>
      <trkpt lat="42.29525" lon="3.19586">
        <ele>183.6</ele>
        <time>2022-05-21 10:09:30</time>
      </trkpt>
      <trkpt lat="42.29528" lon="3.19588">
        <ele>183.8</ele>
        <time>2022-05-21 10:09:31</time>
      </trkpt>
      <trkpt lat="42.2953" lon="3.1959">
        <ele>184</ele>
        <time>2022-05-21 10:09:32</time>
      </trkpt>
      <trkpt lat="42.29533" lon="3.19592">
        <ele>184.2</ele>
        <time>2022-05-21 10:09:33</time>
      </trkpt>
      <trkpt lat="42.29536" lon="3.19594">
        <ele>184.4</ele>
        <time>2022-05-21 10:09:34</time>
      </trkpt>
      <trkpt lat="42.29538" lon="3.19595">
        <ele>184.6</ele>
        <time>2022-05-21 10:09:35</time>
      </trkpt>
      <trkpt lat="42.29541" lon="3.19597">
        <ele>184.8</ele>
        <time>2022-05-21 10:09:36</time>
      </trkpt>
      <trkpt lat="42.29545" lon="3.19598">
        <ele>185</ele>
        <time>2022-05-21 10:09:37</time>
      </trkpt>
      <trkpt lat="42.29548" lon="3.19599">
        <ele>185.2</ele>
        <time>2022-05-21 10:09:38</time>
      </trkpt>
      <trkpt lat="42.2955" lon="3.19601">
        <ele>185.4</ele>
        <time>2022-05-21 10:09:39</time>
      </trkpt>
      <trkpt lat="42.29553" lon="3.19604">
        <ele>185.8</ele>
        <time>2022-05-21 10:09:40</time>
      </trkpt>
      <trkpt lat="42.29556" lon="3.19605">
        <ele>186</ele>
        <time>2022-05-21 10:09:41</time>
      </trkpt>
      <trkpt lat="42.29559" lon="3.19606">
        <ele>186.2</ele>
        <time>2022-05-21 10:09:42</time>
      </trkpt>
      <trkpt lat="42.29562" lon="3.19608">
        <ele>186.4</ele>
        <time>2022-05-21 10:09:43</time>
      </trkpt>
      <trkpt lat="42.29565" lon="3.1961">
        <ele>186.6</ele>
        <time>2022-05-21 10:09:44</time>
      </trkpt>
      <trkpt lat="42.29567" lon="3.19611">
        <ele>187</ele>
        <time>2022-05-21 10:09:45</time>
      </trkpt>
      <trkpt lat="42.29571" lon="3.19613">
        <ele>187.2</ele>
        <time>2022-05-21 10:09:46</time>
      </trkpt>
      <trkpt lat="42.29573" lon="3.19615">
        <ele>187.4</ele>
        <time>2022-05-21 10:09:47</time>
      </trkpt>
      <trkpt lat="42.29576" lon="3.19617">
        <ele>187.6</ele>
        <time>2022-05-21 10:09:48</time>
      </trkpt>
      <trkpt lat="42.29579" lon="3.19619">
        <ele>187.8</ele>
        <time>2022-05-21 10:09:49</time>
      </trkpt>
      <trkpt lat="42.29582" lon="3.1962">
        <ele>188</ele>
        <time>2022-05-21 10:09:50</time>
      </trkpt>
      <trkpt lat="42.29584" lon="3.19622">
        <ele>188.2</ele>
        <time>2022-05-21 10:09:51</time>
      </trkpt>
      <trkpt lat="42.29587" lon="3.19625">
        <ele>188.4</ele>
        <time>2022-05-21 10:09:52</time>
      </trkpt>
      <trkpt lat="42.2959" lon="3.19627">
        <ele>188.6</ele>
        <time>2022-05-21 10:09:53</time>
      </trkpt>
      <trkpt lat="42.29592" lon="3.19629">
        <ele>188.8</ele>
        <time>2022-05-21 10:09:54</time>
      </trkpt>
      <trkpt lat="42.29595" lon="3.19633">
        <ele>189</ele>
        <time>2022-05-21 10:09:55</time>
      </trkpt>
      <trkpt lat="42.29596" lon="3.19636">
        <ele>189.2</ele>
        <time>2022-05-21 10:09:56</time>
      </trkpt>
      <trkpt lat="42.29598" lon="3.19639">
        <ele>189.4</ele>
        <time>2022-05-21 10:09:57</time>
      </trkpt>
      <trkpt lat="42.29599" lon="3.19643">
        <ele>189.6</ele>
        <time>2022-05-21 10:09:58</time>
      </trkpt>
      <trkpt lat="42.296" lon="3.19646">
        <ele>190</ele>
        <time>2022-05-21 10:09:59</time>
      </trkpt>
      <trkpt lat="42.29601" lon="3.19649">
        <ele>190.2</ele>
        <time>2022-05-21 10:10:00</time>
      </trkpt>
      <trkpt lat="42.29602" lon="3.19652">
        <ele>190.4</ele>
        <time>2022-05-21 10:10:01</time>
      </trkpt>
      <trkpt lat="42.29603" lon="3.19656">
        <ele>190.8</ele>
        <time>2022-05-21 10:10:02</time>
      </trkpt>
      <trkpt lat="42.29604" lon="3.19659">
        <ele>191</ele>
        <time>2022-05-21 10:10:03</time>
      </trkpt>
      <trkpt lat="42.29605" lon="3.19662">
        <ele>191.2</ele>
        <time>2022-05-21 10:10:04</time>
      </trkpt>
      <trkpt lat="42.29606" lon="3.19665">
        <ele>191.4</ele>
        <time>2022-05-21 10:10:05</time>
      </trkpt>
      <trkpt lat="42.29606" lon="3.19668">
        <ele>191.6</ele>
        <time>2022-05-21 10:10:06</time>
      </trkpt>
      <trkpt lat="42.29607" lon="3.19671">
        <ele>191.8</ele>
        <time>2022-05-21 10:10:07</time>
      </trkpt>
      <trkpt lat="42.29608" lon="3.19674">
        <ele>192.2</ele>
        <time>2022-05-21 10:10:08</time>
      </trkpt>
      <trkpt lat="42.29609" lon="3.19677">
        <ele>192.4</ele>
        <time>2022-05-21 10:10:09</time>
      </trkpt>
      <trkpt lat="42.2961" lon="3.19681">
        <ele>192.6</ele>
        <time>2022-05-21 10:10:10</time>
      </trkpt>
      <trkpt lat="42.29612" lon="3.19684">
        <ele>192.8</ele>
        <time>2022-05-21 10:10:11</time>
      </trkpt>
      <trkpt lat="42.29613" lon="3.19687">
        <ele>192.8</ele>
        <time>2022-05-21 10:10:12</time>
      </trkpt>
      <trkpt lat="42.29614" lon="3.1969">
        <ele>193</ele>
        <time>2022-05-21 10:10:13</time>
      </trkpt>
      <trkpt lat="42.29615" lon="3.19693">
        <ele>193.4</ele>
        <time>2022-05-21 10:10:14</time>
      </trkpt>
      <trkpt lat="42.29617" lon="3.19696">
        <ele>193.6</ele>
        <time>2022-05-21 10:10:15</time>
      </trkpt>
      <trkpt lat="42.29618" lon="3.19699">
        <ele>193.8</ele>
        <time>2022-05-21 10:10:16</time>
      </trkpt>
      <trkpt lat="42.29619" lon="3.19701">
        <ele>194</ele>
        <time>2022-05-21 10:10:17</time>
      </trkpt>
      <trkpt lat="42.29621" lon="3.19704">
        <ele>194.2</ele>
        <time>2022-05-21 10:10:18</time>
      </trkpt>
      <trkpt lat="42.29623" lon="3.19707">
        <ele>194.4</ele>
        <time>2022-05-21 10:10:19</time>
      </trkpt>
      <trkpt lat="42.29624" lon="3.19709">
        <ele>194.6</ele>
        <time>2022-05-21 10:10:20</time>
      </trkpt>
      <trkpt lat="42.29626" lon="3.19711">
        <ele>194.8</ele>
        <time>2022-05-21 10:10:21</time>
      </trkpt>
      <trkpt lat="42.29629" lon="3.19714">
        <ele>195</ele>
        <time>2022-05-21 10:10:22</time>
      </trkpt>
      <trkpt lat="42.2963" lon="3.19716">
        <ele>195.2</ele>
        <time>2022-05-21 10:10:23</time>
      </trkpt>
      <trkpt lat="42.29632" lon="3.19718">
        <ele>195.4</ele>
        <time>2022-05-21 10:10:24</time>
      </trkpt>
      <trkpt lat="42.29634" lon="3.1972">
        <ele>195.6</ele>
        <time>2022-05-21 10:10:25</time>
      </trkpt>
      <trkpt lat="42.29636" lon="3.19723">
        <ele>195.8</ele>
        <time>2022-05-21 10:10:26</time>
      </trkpt>
      <trkpt lat="42.29638" lon="3.19726">
        <ele>196</ele>
        <time>2022-05-21 10:10:27</time>
      </trkpt>
      <trkpt lat="42.29639" lon="3.19728">
        <ele>196.2</ele>
        <time>2022-05-21 10:10:28</time>
      </trkpt>
      <trkpt lat="42.29641" lon="3.19731">
        <ele>196.2</ele>
        <time>2022-05-21 10:10:29</time>
      </trkpt>
      <trkpt lat="42.29642" lon="3.19735">
        <ele>196.4</ele>
        <time>2022-05-21 10:10:30</time>
      </trkpt>
      <trkpt lat="42.29643" lon="3.19738">
        <ele>196.6</ele>
        <time>2022-05-21 10:10:31</time>
      </trkpt>
      <trkpt lat="42.29643" lon="3.19741">
        <ele>196.8</ele>
        <time>2022-05-21 10:10:32</time>
      </trkpt>
      <trkpt lat="42.29643" lon="3.19744">
        <ele>197</ele>
        <time>2022-05-21 10:10:33</time>
      </trkpt>
      <trkpt lat="42.29643" lon="3.19749">
        <ele>197.2</ele>
        <time>2022-05-21 10:10:34</time>
      </trkpt>
      <trkpt lat="42.29642" lon="3.19753">
        <ele>197.4</ele>
        <time>2022-05-21 10:10:35</time>
      </trkpt>
      <trkpt lat="42.29641" lon="3.19756">
        <ele>197.6</ele>
        <time>2022-05-21 10:10:36</time>
      </trkpt>
      <trkpt lat="42.2964" lon="3.19759">
        <ele>197.8</ele>
        <time>2022-05-21 10:10:37</time>
      </trkpt>
      <trkpt lat="42.29638" lon="3.19763">
        <ele>197.8</ele>
        <time>2022-05-21 10:10:38</time>
      </trkpt>
      <trkpt lat="42.29637" lon="3.19765">
        <ele>198</ele>
        <time>2022-05-21 10:10:39</time>
      </trkpt>
      <trkpt lat="42.29635" lon="3.19768">
        <ele>198.2</ele>
        <time>2022-05-21 10:10:40</time>
      </trkpt>
      <trkpt lat="42.29633" lon="3.19771">
        <ele>198.4</ele>
        <time>2022-05-21 10:10:41</time>
      </trkpt>
      <trkpt lat="42.29631" lon="3.19774">
        <ele>198.6</ele>
        <time>2022-05-21 10:10:42</time>
      </trkpt>
      <trkpt lat="42.29629" lon="3.19777">
        <ele>198.8</ele>
        <time>2022-05-21 10:10:43</time>
      </trkpt>
      <trkpt lat="42.29627" lon="3.1978">
        <ele>198.8</ele>
        <time>2022-05-21 10:10:44</time>
      </trkpt>
      <trkpt lat="42.29625" lon="3.19783">
        <ele>199</ele>
        <time>2022-05-21 10:10:45</time>
      </trkpt>
      <trkpt lat="42.29622" lon="3.19786">
        <ele>199.2</ele>
        <time>2022-05-21 10:10:46</time>
      </trkpt>
      <trkpt lat="42.2962" lon="3.19788">
        <ele>199.4</ele>
        <time>2022-05-21 10:10:47</time>
      </trkpt>
      <trkpt lat="42.29618" lon="3.19791">
        <ele>199.6</ele>
        <time>2022-05-21 10:10:48</time>
      </trkpt>
      <trkpt lat="42.29615" lon="3.19794">
        <ele>199.6</ele>
        <time>2022-05-21 10:10:49</time>
      </trkpt>
      <trkpt lat="42.29613" lon="3.19796">
        <ele>199.8</ele>
        <time>2022-05-21 10:10:50</time>
      </trkpt>
      <trkpt lat="42.29611" lon="3.19798">
        <ele>200</ele>
        <time>2022-05-21 10:10:51</time>
      </trkpt>
      <trkpt lat="42.29608" lon="3.19801">
        <ele>200.2</ele>
        <time>2022-05-21 10:10:52</time>
      </trkpt>
      <trkpt lat="42.29606" lon="3.19802">
        <ele>200.4</ele>
        <time>2022-05-21 10:10:53</time>
      </trkpt>
      <trkpt lat="42.29603" lon="3.19804">
        <ele>200.4</ele>
        <time>2022-05-21 10:10:54</time>
      </trkpt>
      <trkpt lat="42.29601" lon="3.19806">
        <ele>200.6</ele>
        <time>2022-05-21 10:10:55</time>
      </trkpt>
      <trkpt lat="42.29598" lon="3.19808">
        <ele>200.8</ele>
        <time>2022-05-21 10:10:56</time>
      </trkpt>
      <trkpt lat="42.29595" lon="3.1981">
        <ele>201</ele>
        <time>2022-05-21 10:10:57</time>
      </trkpt>
      <trkpt lat="42.29593" lon="3.19813">
        <ele>201.2</ele>
        <time>2022-05-21 10:10:58</time>
      </trkpt>
      <trkpt lat="42.29591" lon="3.19815">
        <ele>201.4</ele>
        <time>2022-05-21 10:10:59</time>
      </trkpt>
      <trkpt lat="42.29588" lon="3.19818">
        <ele>201.6</ele>
        <time>2022-05-21 10:11:00</time>
      </trkpt>
      <trkpt lat="42.29586" lon="3.1982">
        <ele>201.8</ele>
        <time>2022-05-21 10:11:01</time>
      </trkpt>
      <trkpt lat="42.29584" lon="3.19823">
        <ele>202</ele>
        <time>2022-05-21 10:11:02</time>
      </trkpt>
      <trkpt lat="42.29582" lon="3.19826">
        <ele>202</ele>
        <time>2022-05-21 10:11:03</time>
      </trkpt>
      <trkpt lat="42.2958" lon="3.19829">
        <ele>202.4</ele>
        <time>2022-05-21 10:11:04</time>
      </trkpt>
      <trkpt lat="42.29578" lon="3.19833">
        <ele>202.4</ele>
        <time>2022-05-21 10:11:05</time>
      </trkpt>
      <trkpt lat="42.29577" lon="3.19836">
        <ele>202.6</ele>
        <time>2022-05-21 10:11:06</time>
      </trkpt>
      <trkpt lat="42.29575" lon="3.19839">
        <ele>202.8</ele>
        <time>2022-05-21 10:11:07</time>
      </trkpt>
      <trkpt lat="42.29573" lon="3.19843">
        <ele>202.8</ele>
        <time>2022-05-21 10:11:08</time>
      </trkpt>
      <trkpt lat="42.29571" lon="3.19846">
        <ele>203</ele>
        <time>2022-05-21 10:11:09</time>
      </trkpt>
      <trkpt lat="42.29569" lon="3.19849">
        <ele>203.2</ele>
        <time>2022-05-21 10:11:10</time>
      </trkpt>
      <trkpt lat="42.29567" lon="3.19853">
        <ele>203.4</ele>
        <time>2022-05-21 10:11:11</time>
      </trkpt>
      <trkpt lat="42.29566" lon="3.19856">
        <ele>203.6</ele>
        <time>2022-05-21 10:11:12</time>
      </trkpt>
      <trkpt lat="42.29564" lon="3.19859">
        <ele>203.6</ele>
        <time>2022-05-21 10:11:13</time>
      </trkpt>
      <trkpt lat="42.29562" lon="3.19862">
        <ele>203.8</ele>
        <time>2022-05-21 10:11:14</time>
      </trkpt>
      <trkpt lat="42.2956" lon="3.19865">
        <ele>204</ele>
        <time>2022-05-21 10:11:15</time>
      </trkpt>
      <trkpt lat="42.29557" lon="3.19868">
        <ele>204</ele>
        <time>2022-05-21 10:11:16</time>
      </trkpt>
      <trkpt lat="42.29555" lon="3.1987">
        <ele>204.2</ele>
        <time>2022-05-21 10:11:17</time>
      </trkpt>
      <trkpt lat="42.29552" lon="3.19873">
        <ele>204.4</ele>
        <time>2022-05-21 10:11:18</time>
      </trkpt>
      <trkpt lat="42.2955" lon="3.19875">
        <ele>204.6</ele>
        <time>2022-05-21 10:11:19</time>
      </trkpt>
      <trkpt lat="42.29547" lon="3.19877">
        <ele>204.6</ele>
        <time>2022-05-21 10:11:20</time>
      </trkpt>
      <trkpt lat="42.29544" lon="3.19879">
        <ele>204.8</ele>
        <time>2022-05-21 10:11:21</time>
      </trkpt>
      <trkpt lat="42.29542" lon="3.19881">
        <ele>205</ele>
        <time>2022-05-21 10:11:22</time>
      </trkpt>
      <trkpt lat="42.2954" lon="3.19883">
        <ele>205.2</ele>
        <time>2022-05-21 10:11:23</time>
      </trkpt>
      <trkpt lat="42.29537" lon="3.19884">
        <ele>205.4</ele>
        <time>2022-05-21 10:11:24</time>
      </trkpt>
      <trkpt lat="42.29534" lon="3.19886">
        <ele>205.4</ele>
        <time>2022-05-21 10:11:25</time>
      </trkpt>
      <trkpt lat="42.29532" lon="3.19887">
        <ele>205.6</ele>
        <time>2022-05-21 10:11:26</time>
      </trkpt>
      <trkpt lat="42.29529" lon="3.19889">
        <ele>205.8</ele>
        <time>2022-05-21 10:11:27</time>
      </trkpt>
      <trkpt lat="42.29526" lon="3.1989">
        <ele>206</ele>
        <time>2022-05-21 10:11:28</time>
      </trkpt>
      <trkpt lat="42.29523" lon="3.19891">
        <ele>206</ele>
        <time>2022-05-21 10:11:29</time>
      </trkpt>
      <trkpt lat="42.29521" lon="3.19893">
        <ele>206.2</ele>
        <time>2022-05-21 10:11:30</time>
      </trkpt>
      <trkpt lat="42.29519" lon="3.19894">
        <ele>206.4</ele>
        <time>2022-05-21 10:11:31</time>
      </trkpt>
      <trkpt lat="42.29516" lon="3.19896">
        <ele>206.4</ele>
        <time>2022-05-21 10:11:32</time>
      </trkpt>
      <trkpt lat="42.29513" lon="3.19898">
        <ele>206.6</ele>
        <time>2022-05-21 10:11:33</time>
      </trkpt>
      <trkpt lat="42.29511" lon="3.19899">
        <ele>206.8</ele>
        <time>2022-05-21 10:11:34</time>
      </trkpt>
      <trkpt lat="42.29509" lon="3.199">
        <ele>207</ele>
        <time>2022-05-21 10:11:35</time>
      </trkpt>
      <trkpt lat="42.29505" lon="3.19902">
        <ele>207.2</ele>
        <time>2022-05-21 10:11:36</time>
      </trkpt>
      <trkpt lat="42.29503" lon="3.19904">
        <ele>207.4</ele>
        <time>2022-05-21 10:11:37</time>
      </trkpt>
      <trkpt lat="42.295" lon="3.19905">
        <ele>207.6</ele>
        <time>2022-05-21 10:11:38</time>
      </trkpt>
      <trkpt lat="42.29499" lon="3.19907">
        <ele>207.6</ele>
        <time>2022-05-21 10:11:39</time>
      </trkpt>
      <trkpt lat="42.29495" lon="3.19909">
        <ele>207.8</ele>
        <time>2022-05-21 10:11:40</time>
      </trkpt>
      <trkpt lat="42.29493" lon="3.19911">
        <ele>208</ele>
        <time>2022-05-21 10:11:41</time>
      </trkpt>
      <trkpt lat="42.2949" lon="3.19913">
        <ele>208.2</ele>
        <time>2022-05-21 10:11:42</time>
      </trkpt>
      <trkpt lat="42.29488" lon="3.19916">
        <ele>208.4</ele>
        <time>2022-05-21 10:11:43</time>
      </trkpt>
      <trkpt lat="42.29486" lon="3.19919">
        <ele>208.6</ele>
        <time>2022-05-21 10:11:44</time>
      </trkpt>
      <trkpt lat="42.29485" lon="3.19922">
        <ele>208.8</ele>
        <time>2022-05-21 10:11:45</time>
      </trkpt>
      <trkpt lat="42.29483" lon="3.19926">
        <ele>208.8</ele>
        <time>2022-05-21 10:11:46</time>
      </trkpt>
      <trkpt lat="42.29482" lon="3.19929">
        <ele>209</ele>
        <time>2022-05-21 10:11:47</time>
      </trkpt>
      <trkpt lat="42.29481" lon="3.19934">
        <ele>209.2</ele>
        <time>2022-05-21 10:11:48</time>
      </trkpt>
      <trkpt lat="42.29481" lon="3.19938">
        <ele>209.4</ele>
        <time>2022-05-21 10:11:49</time>
      </trkpt>
      <trkpt lat="42.29482" lon="3.19941">
        <ele>209.6</ele>
        <time>2022-05-21 10:11:50</time>
      </trkpt>
      <trkpt lat="42.29483" lon="3.19946">
        <ele>209.8</ele>
        <time>2022-05-21 10:11:51</time>
      </trkpt>
      <trkpt lat="42.29485" lon="3.1995">
        <ele>210</ele>
        <time>2022-05-21 10:11:52</time>
      </trkpt>
      <trkpt lat="42.29486" lon="3.19952">
        <ele>210.2</ele>
        <time>2022-05-21 10:11:53</time>
      </trkpt>
      <trkpt lat="42.29489" lon="3.19955">
        <ele>210.4</ele>
        <time>2022-05-21 10:11:54</time>
      </trkpt>
      <trkpt lat="42.29491" lon="3.19958">
        <ele>210.6</ele>
        <time>2022-05-21 10:11:55</time>
      </trkpt>
      <trkpt lat="42.29494" lon="3.19959">
        <ele>210.8</ele>
        <time>2022-05-21 10:11:56</time>
      </trkpt>
      <trkpt lat="42.29497" lon="3.19961">
        <ele>210.8</ele>
        <time>2022-05-21 10:11:57</time>
      </trkpt>
      <trkpt lat="42.295" lon="3.19962">
        <ele>211</ele>
        <time>2022-05-21 10:11:58</time>
      </trkpt>
      <trkpt lat="42.29503" lon="3.19963">
        <ele>211.2</ele>
        <time>2022-05-21 10:11:59</time>
      </trkpt>
      <trkpt lat="42.29507" lon="3.19963">
        <ele>211.4</ele>
        <time>2022-05-21 10:12:00</time>
      </trkpt>
      <trkpt lat="42.2951" lon="3.19964">
        <ele>211.6</ele>
        <time>2022-05-21 10:12:01</time>
      </trkpt>
      <trkpt lat="42.29513" lon="3.19964">
        <ele>211.8</ele>
        <time>2022-05-21 10:12:02</time>
      </trkpt>
      <trkpt lat="42.29517" lon="3.19964">
        <ele>212</ele>
        <time>2022-05-21 10:12:03</time>
      </trkpt>
      <trkpt lat="42.2952" lon="3.19964">
        <ele>212.2</ele>
        <time>2022-05-21 10:12:04</time>
      </trkpt>
      <trkpt lat="42.29522" lon="3.19965">
        <ele>212.4</ele>
        <time>2022-05-21 10:12:05</time>
      </trkpt>
      <trkpt lat="42.29526" lon="3.19967">
        <ele>212.6</ele>
        <time>2022-05-21 10:12:06</time>
      </trkpt>
      <trkpt lat="42.29529" lon="3.19969">
        <ele>212.8</ele>
        <time>2022-05-21 10:12:07</time>
      </trkpt>
      <trkpt lat="42.29532" lon="3.1997">
        <ele>213</ele>
        <time>2022-05-21 10:12:08</time>
      </trkpt>
      <trkpt lat="42.29535" lon="3.19972">
        <ele>213.2</ele>
        <time>2022-05-21 10:12:09</time>
      </trkpt>
      <trkpt lat="42.29538" lon="3.19973">
        <ele>213.4</ele>
        <time>2022-05-21 10:12:10</time>
      </trkpt>
      <trkpt lat="42.2954" lon="3.19974">
        <ele>213.6</ele>
        <time>2022-05-21 10:12:11</time>
      </trkpt>
      <trkpt lat="42.29544" lon="3.19976">
        <ele>213.8</ele>
        <time>2022-05-21 10:12:12</time>
      </trkpt>
      <trkpt lat="42.29547" lon="3.19977">
        <ele>214</ele>
        <time>2022-05-21 10:12:13</time>
      </trkpt>
      <trkpt lat="42.2955" lon="3.19978">
        <ele>214.2</ele>
        <time>2022-05-21 10:12:14</time>
      </trkpt>
      <trkpt lat="42.29553" lon="3.1998">
        <ele>214.4</ele>
        <time>2022-05-21 10:12:15</time>
      </trkpt>
      <trkpt lat="42.29555" lon="3.19981">
        <ele>214.6</ele>
        <time>2022-05-21 10:12:16</time>
      </trkpt>
      <trkpt lat="42.29558" lon="3.19983">
        <ele>214.8</ele>
        <time>2022-05-21 10:12:17</time>
      </trkpt>
      <trkpt lat="42.29562" lon="3.19984">
        <ele>215</ele>
        <time>2022-05-21 10:12:18</time>
      </trkpt>
      <trkpt lat="42.29564" lon="3.19985">
        <ele>215.2</ele>
        <time>2022-05-21 10:12:19</time>
      </trkpt>
      <trkpt lat="42.29567" lon="3.19987">
        <ele>215.4</ele>
        <time>2022-05-21 10:12:20</time>
      </trkpt>
      <trkpt lat="42.2957" lon="3.19989">
        <ele>215.6</ele>
        <time>2022-05-21 10:12:21</time>
      </trkpt>
      <trkpt lat="42.29573" lon="3.1999">
        <ele>215.8</ele>
        <time>2022-05-21 10:12:22</time>
      </trkpt>
      <trkpt lat="42.29575" lon="3.19991">
        <ele>216</ele>
        <time>2022-05-21 10:12:23</time>
      </trkpt>
      <trkpt lat="42.29579" lon="3.19993">
        <ele>216.2</ele>
        <time>2022-05-21 10:12:24</time>
      </trkpt>
      <trkpt lat="42.29581" lon="3.19994">
        <ele>216.4</ele>
        <time>2022-05-21 10:12:25</time>
      </trkpt>
      <trkpt lat="42.29584" lon="3.19995">
        <ele>216.6</ele>
        <time>2022-05-21 10:12:26</time>
      </trkpt>
      <trkpt lat="42.29587" lon="3.19997">
        <ele>216.8</ele>
        <time>2022-05-21 10:12:27</time>
      </trkpt>
      <trkpt lat="42.2959" lon="3.19998">
        <ele>217</ele>
        <time>2022-05-21 10:12:28</time>
      </trkpt>
      <trkpt lat="42.29593" lon="3.2">
        <ele>217.2</ele>
        <time>2022-05-21 10:12:29</time>
      </trkpt>
      <trkpt lat="42.29595" lon="3.20001">
        <ele>217.4</ele>
        <time>2022-05-21 10:12:30</time>
      </trkpt>
      <trkpt lat="42.29597" lon="3.20001">
        <ele>217.6</ele>
        <time>2022-05-21 10:12:31</time>
      </trkpt>
      <trkpt lat="42.29602" lon="3.20002">
        <ele>217.8</ele>
        <time>2022-05-21 10:12:32</time>
      </trkpt>
      <trkpt lat="42.29604" lon="3.20003">
        <ele>218</ele>
        <time>2022-05-21 10:12:33</time>
      </trkpt>
      <trkpt lat="42.29607" lon="3.20004">
        <ele>218.2</ele>
        <time>2022-05-21 10:12:34</time>
      </trkpt>
      <trkpt lat="42.2961" lon="3.20005">
        <ele>218.4</ele>
        <time>2022-05-21 10:12:35</time>
      </trkpt>
      <trkpt lat="42.29613" lon="3.20006">
        <ele>218.6</ele>
        <time>2022-05-21 10:12:36</time>
      </trkpt>
      <trkpt lat="42.29616" lon="3.20007">
        <ele>218.6</ele>
        <time>2022-05-21 10:12:37</time>
      </trkpt>
      <trkpt lat="42.29618" lon="3.20008">
        <ele>218.8</ele>
        <time>2022-05-21 10:12:38</time>
      </trkpt>
      <trkpt lat="42.29621" lon="3.2001">
        <ele>219</ele>
        <time>2022-05-21 10:12:39</time>
      </trkpt>
      <trkpt lat="42.29624" lon="3.20011">
        <ele>219.2</ele>
        <time>2022-05-21 10:12:40</time>
      </trkpt>
      <trkpt lat="42.29626" lon="3.20012">
        <ele>219.4</ele>
        <time>2022-05-21 10:12:41</time>
      </trkpt>
      <trkpt lat="42.29628" lon="3.20013">
        <ele>219.6</ele>
        <time>2022-05-21 10:12:42</time>
      </trkpt>
      <trkpt lat="42.29631" lon="3.20015">
        <ele>219.8</ele>
        <time>2022-05-21 10:12:43</time>
      </trkpt>
      <trkpt lat="42.29634" lon="3.20016">
        <ele>220</ele>
        <time>2022-05-21 10:12:44</time>
      </trkpt>
      <trkpt lat="42.29636" lon="3.20018">
        <ele>220.2</ele>
        <time>2022-05-21 10:12:45</time>
      </trkpt>
      <trkpt lat="42.29637" lon="3.20019">
        <ele>220.2</ele>
        <time>2022-05-21 10:12:46</time>
      </trkpt>
      <trkpt lat="42.2964" lon="3.20021">
        <ele>220.4</ele>
        <time>2022-05-21 10:12:47</time>
      </trkpt>
      <trkpt lat="42.29642" lon="3.20023">
        <ele>220.6</ele>
        <time>2022-05-21 10:12:48</time>
      </trkpt>
      <trkpt lat="42.29644" lon="3.20025">
        <ele>220.8</ele>
        <time>2022-05-21 10:12:49</time>
      </trkpt>
      <trkpt lat="42.29646" lon="3.20027">
        <ele>221</ele>
        <time>2022-05-21 10:12:50</time>
      </trkpt>
      <trkpt lat="42.29648" lon="3.2003">
        <ele>221</ele>
        <time>2022-05-21 10:12:51</time>
      </trkpt>
      <trkpt lat="42.2965" lon="3.20033">
        <ele>221.2</ele>
        <time>2022-05-21 10:12:52</time>
      </trkpt>
      <trkpt lat="42.29652" lon="3.20035">
        <ele>221.4</ele>
        <time>2022-05-21 10:12:53</time>
      </trkpt>
      <trkpt lat="42.29654" lon="3.20037">
        <ele>221.6</ele>
        <time>2022-05-21 10:12:54</time>
      </trkpt>
      <trkpt lat="42.29657" lon="3.2004">
        <ele>221.8</ele>
        <time>2022-05-21 10:12:55</time>
      </trkpt>
      <trkpt lat="42.29659" lon="3.20043">
        <ele>222</ele>
        <time>2022-05-21 10:12:56</time>
      </trkpt>
      <trkpt lat="42.2966" lon="3.20046">
        <ele>222</ele>
        <time>2022-05-21 10:12:57</time>
      </trkpt>
      <trkpt lat="42.29662" lon="3.20048">
        <ele>222.2</ele>
        <time>2022-05-21 10:12:58</time>
      </trkpt>
      <trkpt lat="42.29664" lon="3.20052">
        <ele>222.4</ele>
        <time>2022-05-21 10:12:59</time>
      </trkpt>
      <trkpt lat="42.29666" lon="3.20055">
        <ele>222.6</ele>
        <time>2022-05-21 10:13:00</time>
      </trkpt>
      <trkpt lat="42.29667" lon="3.20058">
        <ele>222.6</ele>
        <time>2022-05-21 10:13:01</time>
      </trkpt>
      <trkpt lat="42.29669" lon="3.2006">
        <ele>222.8</ele>
        <time>2022-05-21 10:13:02</time>
      </trkpt>
      <trkpt lat="42.29671" lon="3.20063">
        <ele>223</ele>
        <time>2022-05-21 10:13:03</time>
      </trkpt>
      <trkpt lat="42.29673" lon="3.20066">
        <ele>223.2</ele>
        <time>2022-05-21 10:13:04</time>
      </trkpt>
      <trkpt lat="42.29674" lon="3.20068">
        <ele>223.4</ele>
        <time>2022-05-21 10:13:05</time>
      </trkpt>
      <trkpt lat="42.29675" lon="3.20071">
        <ele>223.6</ele>
        <time>2022-05-21 10:13:06</time>
      </trkpt>
      <trkpt lat="42.29677" lon="3.20075">
        <ele>223.8</ele>
        <time>2022-05-21 10:13:07</time>
      </trkpt>
      <trkpt lat="42.29679" lon="3.20077">
        <ele>224</ele>
        <time>2022-05-21 10:13:08</time>
      </trkpt>
      <trkpt lat="42.2968" lon="3.20079">
        <ele>224.2</ele>
        <time>2022-05-21 10:13:09</time>
      </trkpt>
      <trkpt lat="42.29682" lon="3.20081">
        <ele>224.2</ele>
        <time>2022-05-21 10:13:10</time>
      </trkpt>
      <trkpt lat="42.29684" lon="3.20084">
        <ele>224.4</ele>
        <time>2022-05-21 10:13:11</time>
      </trkpt>
      <trkpt lat="42.29686" lon="3.20087">
        <ele>224.6</ele>
        <time>2022-05-21 10:13:12</time>
      </trkpt>
      <trkpt lat="42.29687" lon="3.2009">
        <ele>225</ele>
        <time>2022-05-21 10:13:13</time>
      </trkpt>
      <trkpt lat="42.29689" lon="3.20092">
        <ele>225.2</ele>
        <time>2022-05-21 10:13:14</time>
      </trkpt>
      <trkpt lat="42.29691" lon="3.20095">
        <ele>225.4</ele>
        <time>2022-05-21 10:13:15</time>
      </trkpt>
      <trkpt lat="42.29693" lon="3.20098">
        <ele>225.6</ele>
        <time>2022-05-21 10:13:16</time>
      </trkpt>
      <trkpt lat="42.29695" lon="3.201">
        <ele>225.8</ele>
        <time>2022-05-21 10:13:17</time>
      </trkpt>
      <trkpt lat="42.29697" lon="3.20103">
        <ele>226</ele>
        <time>2022-05-21 10:13:18</time>
      </trkpt>
      <trkpt lat="42.29699" lon="3.20106">
        <ele>226.2</ele>
        <time>2022-05-21 10:13:19</time>
      </trkpt>
      <trkpt lat="42.29701" lon="3.20108">
        <ele>226.4</ele>
        <time>2022-05-21 10:13:20</time>
      </trkpt>
      <trkpt lat="42.29703" lon="3.20111">
        <ele>226.6</ele>
        <time>2022-05-21 10:13:21</time>
      </trkpt>
      <trkpt lat="42.29704" lon="3.20113">
        <ele>226.6</ele>
        <time>2022-05-21 10:13:22</time>
      </trkpt>
      <trkpt lat="42.29707" lon="3.20117">
        <ele>227</ele>
        <time>2022-05-21 10:13:23</time>
      </trkpt>
      <trkpt lat="42.29708" lon="3.2012">
        <ele>227</ele>
        <time>2022-05-21 10:13:24</time>
      </trkpt>
      <trkpt lat="42.2971" lon="3.20123">
        <ele>227.2</ele>
        <time>2022-05-21 10:13:25</time>
      </trkpt>
      <trkpt lat="42.2971" lon="3.20126">
        <ele>227.4</ele>
        <time>2022-05-21 10:13:26</time>
      </trkpt>
      <trkpt lat="42.29712" lon="3.20131">
        <ele>227.6</ele>
        <time>2022-05-21 10:13:27</time>
      </trkpt>
      <trkpt lat="42.29712" lon="3.20135">
        <ele>227.8</ele>
        <time>2022-05-21 10:13:28</time>
      </trkpt>
      <trkpt lat="42.29712" lon="3.20138">
        <ele>228</ele>
        <time>2022-05-21 10:13:29</time>
      </trkpt>
      <trkpt lat="42.29712" lon="3.20142">
        <ele>228.2</ele>
        <time>2022-05-21 10:13:30</time>
      </trkpt>
      <trkpt lat="42.29711" lon="3.20146">
        <ele>228.4</ele>
        <time>2022-05-21 10:13:31</time>
      </trkpt>
      <trkpt lat="42.2971" lon="3.20149">
        <ele>228.6</ele>
        <time>2022-05-21 10:13:32</time>
      </trkpt>
      <trkpt lat="42.29708" lon="3.20152">
        <ele>228.8</ele>
        <time>2022-05-21 10:13:33</time>
      </trkpt>
      <trkpt lat="42.29707" lon="3.20155">
        <ele>229</ele>
        <time>2022-05-21 10:13:34</time>
      </trkpt>
      <trkpt lat="42.29705" lon="3.20159">
        <ele>229.2</ele>
        <time>2022-05-21 10:13:35</time>
      </trkpt>
      <trkpt lat="42.29703" lon="3.20162">
        <ele>229.4</ele>
        <time>2022-05-21 10:13:36</time>
      </trkpt>
      <trkpt lat="42.29701" lon="3.20164">
        <ele>229.6</ele>
        <time>2022-05-21 10:13:37</time>
      </trkpt>
      <trkpt lat="42.29699" lon="3.20167">
        <ele>229.8</ele>
        <time>2022-05-21 10:13:38</time>
      </trkpt>
      <trkpt lat="42.29697" lon="3.2017">
        <ele>230</ele>
        <time>2022-05-21 10:13:39</time>
      </trkpt>
      <trkpt lat="42.29695" lon="3.20173">
        <ele>230.2</ele>
        <time>2022-05-21 10:13:40</time>
      </trkpt>
      <trkpt lat="42.29692" lon="3.20176">
        <ele>230.2</ele>
        <time>2022-05-21 10:13:41</time>
      </trkpt>
      <trkpt lat="42.29689" lon="3.20179">
        <ele>230.4</ele>
        <time>2022-05-21 10:13:42</time>
      </trkpt>
      <trkpt lat="42.29687" lon="3.20181">
        <ele>230.6</ele>
        <time>2022-05-21 10:13:43</time>
      </trkpt>
      <trkpt lat="42.29685" lon="3.20184">
        <ele>230.8</ele>
        <time>2022-05-21 10:13:44</time>
      </trkpt>
      <trkpt lat="42.29682" lon="3.20186">
        <ele>231</ele>
        <time>2022-05-21 10:13:45</time>
      </trkpt>
      <trkpt lat="42.29679" lon="3.20188">
        <ele>231.2</ele>
        <time>2022-05-21 10:13:46</time>
      </trkpt>
      <trkpt lat="42.29677" lon="3.20189">
        <ele>231.4</ele>
        <time>2022-05-21 10:13:47</time>
      </trkpt>
      <trkpt lat="42.29674" lon="3.20191">
        <ele>231.6</ele>
        <time>2022-05-21 10:13:48</time>
      </trkpt>
      <trkpt lat="42.29671" lon="3.20192">
        <ele>231.8</ele>
        <time>2022-05-21 10:13:49</time>
      </trkpt>
      <trkpt lat="42.29668" lon="3.20194">
        <ele>232</ele>
        <time>2022-05-21 10:13:50</time>
      </trkpt>
      <trkpt lat="42.29666" lon="3.20195">
        <ele>232.2</ele>
        <time>2022-05-21 10:13:51</time>
      </trkpt>
      <trkpt lat="42.29663" lon="3.20196">
        <ele>232.4</ele>
        <time>2022-05-21 10:13:52</time>
      </trkpt>
      <trkpt lat="42.2966" lon="3.20198">
        <ele>232.6</ele>
        <time>2022-05-21 10:13:53</time>
      </trkpt>
      <trkpt lat="42.29657" lon="3.20199">
        <ele>232.8</ele>
        <time>2022-05-21 10:13:54</time>
      </trkpt>
      <trkpt lat="42.29655" lon="3.202">
        <ele>233</ele>
        <time>2022-05-21 10:13:55</time>
      </trkpt>
      <trkpt lat="42.29651" lon="3.20201">
        <ele>233.2</ele>
        <time>2022-05-21 10:13:56</time>
      </trkpt>
      <trkpt lat="42.29649" lon="3.20203">
        <ele>233.4</ele>
        <time>2022-05-21 10:13:57</time>
      </trkpt>
      <trkpt lat="42.29647" lon="3.20204">
        <ele>233.6</ele>
        <time>2022-05-21 10:13:58</time>
      </trkpt>
      <trkpt lat="42.29643" lon="3.20206">
        <ele>233.8</ele>
        <time>2022-05-21 10:13:59</time>
      </trkpt>
      <trkpt lat="42.2964" lon="3.20208">
        <ele>234</ele>
        <time>2022-05-21 10:14:00</time>
      </trkpt>
      <trkpt lat="42.29638" lon="3.20209">
        <ele>234.2</ele>
        <time>2022-05-21 10:14:01</time>
      </trkpt>
      <trkpt lat="42.29636" lon="3.20211">
        <ele>234.4</ele>
        <time>2022-05-21 10:14:02</time>
      </trkpt>
      <trkpt lat="42.29633" lon="3.20214">
        <ele>234.6</ele>
        <time>2022-05-21 10:14:03</time>
      </trkpt>
      <trkpt lat="42.29631" lon="3.20216">
        <ele>234.8</ele>
        <time>2022-05-21 10:14:04</time>
      </trkpt>
      <trkpt lat="42.29628" lon="3.20218">
        <ele>235</ele>
        <time>2022-05-21 10:14:05</time>
      </trkpt>
      <trkpt lat="42.29626" lon="3.20221">
        <ele>235.4</ele>
        <time>2022-05-21 10:14:06</time>
      </trkpt>
      <trkpt lat="42.29623" lon="3.20223">
        <ele>235.6</ele>
        <time>2022-05-21 10:14:07</time>
      </trkpt>
      <trkpt lat="42.29621" lon="3.20226">
        <ele>235.8</ele>
        <time>2022-05-21 10:14:08</time>
      </trkpt>
      <trkpt lat="42.2962" lon="3.20228">
        <ele>236</ele>
        <time>2022-05-21 10:14:09</time>
      </trkpt>
      <trkpt lat="42.29617" lon="3.20232">
        <ele>236.2</ele>
        <time>2022-05-21 10:14:10</time>
      </trkpt>
      <trkpt lat="42.29615" lon="3.20235">
        <ele>236.4</ele>
        <time>2022-05-21 10:14:11</time>
      </trkpt>
      <trkpt lat="42.29614" lon="3.20238">
        <ele>236.6</ele>
        <time>2022-05-21 10:14:12</time>
      </trkpt>
      <trkpt lat="42.29613" lon="3.20241">
        <ele>236.8</ele>
        <time>2022-05-21 10:14:13</time>
      </trkpt>
      <trkpt lat="42.29612" lon="3.20246">
        <ele>237</ele>
        <time>2022-05-21 10:14:14</time>
      </trkpt>
      <trkpt lat="42.29611" lon="3.2025">
        <ele>237.2</ele>
        <time>2022-05-21 10:14:15</time>
      </trkpt>
      <trkpt lat="42.29611" lon="3.20254">
        <ele>237.4</ele>
        <time>2022-05-21 10:14:16</time>
      </trkpt>
      <trkpt lat="42.29611" lon="3.20257">
        <ele>237.6</ele>
        <time>2022-05-21 10:14:17</time>
      </trkpt>
      <trkpt lat="42.2961" lon="3.20262">
        <ele>237.8</ele>
        <time>2022-05-21 10:14:18</time>
      </trkpt>
      <trkpt lat="42.2961" lon="3.20266">
        <ele>238</ele>
        <time>2022-05-21 10:14:19</time>
      </trkpt>
      <trkpt lat="42.29609" lon="3.20269">
        <ele>238.2</ele>
        <time>2022-05-21 10:14:20</time>
      </trkpt>
      <trkpt lat="42.29609" lon="3.20273">
        <ele>238.4</ele>
        <time>2022-05-21 10:14:21</time>
      </trkpt>
      <trkpt lat="42.29608" lon="3.20277">
        <ele>238.6</ele>
        <time>2022-05-21 10:14:22</time>
      </trkpt>
      <trkpt lat="42.29608" lon="3.20279">
        <ele>238.8</ele>
        <time>2022-05-21 10:14:23</time>
      </trkpt>
      <trkpt lat="42.29608" lon="3.20283">
        <ele>239</ele>
        <time>2022-05-21 10:14:24</time>
      </trkpt>
      <trkpt lat="42.29607" lon="3.20289">
        <ele>239.2</ele>
        <time>2022-05-21 10:14:25</time>
      </trkpt>
      <trkpt lat="42.29606" lon="3.20292">
        <ele>239.4</ele>
        <time>2022-05-21 10:14:26</time>
      </trkpt>
      <trkpt lat="42.29606" lon="3.20296">
        <ele>239.4</ele>
        <time>2022-05-21 10:14:27</time>
      </trkpt>
      <trkpt lat="42.29605" lon="3.203">
        <ele>239.6</ele>
        <time>2022-05-21 10:14:28</time>
      </trkpt>
      <trkpt lat="42.29605" lon="3.20303">
        <ele>239.8</ele>
        <time>2022-05-21 10:14:29</time>
      </trkpt>
      <trkpt lat="42.29604" lon="3.20307">
        <ele>240</ele>
        <time>2022-05-21 10:14:30</time>
      </trkpt>
      <trkpt lat="42.29603" lon="3.20311">
        <ele>240.2</ele>
        <time>2022-05-21 10:14:31</time>
      </trkpt>
      <trkpt lat="42.29602" lon="3.20314">
        <ele>240.4</ele>
        <time>2022-05-21 10:14:32</time>
      </trkpt>
      <trkpt lat="42.29601" lon="3.20318">
        <ele>240.6</ele>
        <time>2022-05-21 10:14:33</time>
      </trkpt>
      <trkpt lat="42.296" lon="3.20321">
        <ele>240.8</ele>
        <time>2022-05-21 10:14:34</time>
      </trkpt>
      <trkpt lat="42.29599" lon="3.20324">
        <ele>241</ele>
        <time>2022-05-21 10:14:35</time>
      </trkpt>
      <trkpt lat="42.29598" lon="3.20328">
        <ele>241.2</ele>
        <time>2022-05-21 10:14:36</time>
      </trkpt>
      <trkpt lat="42.29596" lon="3.20331">
        <ele>241.4</ele>
        <time>2022-05-21 10:14:37</time>
      </trkpt>
      <trkpt lat="42.29595" lon="3.20334">
        <ele>241.6</ele>
        <time>2022-05-21 10:14:38</time>
      </trkpt>
      <trkpt lat="42.29593" lon="3.20337">
        <ele>241.8</ele>
        <time>2022-05-21 10:14:39</time>
      </trkpt>
      <trkpt lat="42.29592" lon="3.2034">
        <ele>242</ele>
        <time>2022-05-21 10:14:40</time>
      </trkpt>
      <trkpt lat="42.29591" lon="3.20343">
        <ele>242.2</ele>
        <time>2022-05-21 10:14:41</time>
      </trkpt>
      <trkpt lat="42.29589" lon="3.20347">
        <ele>242.4</ele>
        <time>2022-05-21 10:14:42</time>
      </trkpt>
      <trkpt lat="42.29588" lon="3.2035">
        <ele>242.6</ele>
        <time>2022-05-21 10:14:43</time>
      </trkpt>
      <trkpt lat="42.29587" lon="3.20353">
        <ele>242.8</ele>
        <time>2022-05-21 10:14:44</time>
      </trkpt>
      <trkpt lat="42.29586" lon="3.20357">
        <ele>243</ele>
        <time>2022-05-21 10:14:45</time>
      </trkpt>
      <trkpt lat="42.29585" lon="3.2036">
        <ele>243.2</ele>
        <time>2022-05-21 10:14:46</time>
      </trkpt>
      <trkpt lat="42.29584" lon="3.20364">
        <ele>243.4</ele>
        <time>2022-05-21 10:14:47</time>
      </trkpt>
      <trkpt lat="42.29584" lon="3.20367">
        <ele>243.6</ele>
        <time>2022-05-21 10:14:48</time>
      </trkpt>
      <trkpt lat="42.29584" lon="3.20371">
        <ele>244</ele>
        <time>2022-05-21 10:14:49</time>
      </trkpt>
      <trkpt lat="42.29584" lon="3.20375">
        <ele>244</ele>
        <time>2022-05-21 10:14:50</time>
      </trkpt>
      <trkpt lat="42.29585" lon="3.20379">
        <ele>244.2</ele>
        <time>2022-05-21 10:14:51</time>
      </trkpt>
      <trkpt lat="42.29586" lon="3.20383">
        <ele>244.4</ele>
        <time>2022-05-21 10:14:52</time>
      </trkpt>
      <trkpt lat="42.29586" lon="3.20387">
        <ele>244.6</ele>
        <time>2022-05-21 10:14:53</time>
      </trkpt>
      <trkpt lat="42.29587" lon="3.20391">
        <ele>244.8</ele>
        <time>2022-05-21 10:14:54</time>
      </trkpt>
      <trkpt lat="42.29588" lon="3.20394">
        <ele>245</ele>
        <time>2022-05-21 10:14:55</time>
      </trkpt>
      <trkpt lat="42.29589" lon="3.20398">
        <ele>245.2</ele>
        <time>2022-05-21 10:14:56</time>
      </trkpt>
      <trkpt lat="42.2959" lon="3.20402">
        <ele>245.4</ele>
        <time>2022-05-21 10:14:57</time>
      </trkpt>
      <trkpt lat="42.2959" lon="3.20405">
        <ele>245.6</ele>
        <time>2022-05-21 10:14:58</time>
      </trkpt>
      <trkpt lat="42.29591" lon="3.20408">
        <ele>245.8</ele>
        <time>2022-05-21 10:14:59</time>
      </trkpt>
      <trkpt lat="42.29592" lon="3.20412">
        <ele>246</ele>
        <time>2022-05-21 10:15:00</time>
      </trkpt>
      <trkpt lat="42.29592" lon="3.20416">
        <ele>246.2</ele>
        <time>2022-05-21 10:15:01</time>
      </trkpt>
      <trkpt lat="42.29593" lon="3.20419">
        <ele>246.2</ele>
        <time>2022-05-21 10:15:02</time>
      </trkpt>
      <trkpt lat="42.29594" lon="3.20423">
        <ele>246.4</ele>
        <time>2022-05-21 10:15:03</time>
      </trkpt>
      <trkpt lat="42.29595" lon="3.20426">
        <ele>246.6</ele>
        <time>2022-05-21 10:15:04</time>
      </trkpt>
      <trkpt lat="42.29596" lon="3.2043">
        <ele>246.8</ele>
        <time>2022-05-21 10:15:05</time>
      </trkpt>
      <trkpt lat="42.29598" lon="3.20434">
        <ele>247</ele>
        <time>2022-05-21 10:15:06</time>
      </trkpt>
      <trkpt lat="42.29599" lon="3.20438">
        <ele>247.2</ele>
        <time>2022-05-21 10:15:07</time>
      </trkpt>
      <trkpt lat="42.29599" lon="3.20442">
        <ele>247.4</ele>
        <time>2022-05-21 10:15:08</time>
      </trkpt>
      <trkpt lat="42.296" lon="3.20445">
        <ele>247.4</ele>
        <time>2022-05-21 10:15:09</time>
      </trkpt>
      <trkpt lat="42.29602" lon="3.20449">
        <ele>247.6</ele>
        <time>2022-05-21 10:15:10</time>
      </trkpt>
      <trkpt lat="42.29602" lon="3.20453">
        <ele>247.8</ele>
        <time>2022-05-21 10:15:11</time>
      </trkpt>
      <trkpt lat="42.29603" lon="3.20456">
        <ele>248</ele>
        <time>2022-05-21 10:15:12</time>
      </trkpt>
      <trkpt lat="42.29603" lon="3.2046">
        <ele>248.2</ele>
        <time>2022-05-21 10:15:13</time>
      </trkpt>
      <trkpt lat="42.29604" lon="3.20463">
        <ele>248.4</ele>
        <time>2022-05-21 10:15:14</time>
      </trkpt>
      <trkpt lat="42.29604" lon="3.20468">
        <ele>248.6</ele>
        <time>2022-05-21 10:15:15</time>
      </trkpt>
      <trkpt lat="42.29605" lon="3.20472">
        <ele>248.8</ele>
        <time>2022-05-21 10:15:16</time>
      </trkpt>
      <trkpt lat="42.29605" lon="3.20475">
        <ele>249</ele>
        <time>2022-05-21 10:15:17</time>
      </trkpt>
      <trkpt lat="42.29605" lon="3.20479">
        <ele>249.2</ele>
        <time>2022-05-21 10:15:18</time>
      </trkpt>
      <trkpt lat="42.29605" lon="3.20483">
        <ele>249.4</ele>
        <time>2022-05-21 10:15:19</time>
      </trkpt>
      <trkpt lat="42.29605" lon="3.20487">
        <ele>249.6</ele>
        <time>2022-05-21 10:15:20</time>
      </trkpt>
      <trkpt lat="42.29605" lon="3.2049">
        <ele>249.8</ele>
        <time>2022-05-21 10:15:21</time>
      </trkpt>
      <trkpt lat="42.29605" lon="3.20494">
        <ele>250</ele>
        <time>2022-05-21 10:15:22</time>
      </trkpt>
      <trkpt lat="42.29606" lon="3.20498">
        <ele>250.2</ele>
        <time>2022-05-21 10:15:23</time>
      </trkpt>
      <trkpt lat="42.29606" lon="3.20502">
        <ele>250.4</ele>
        <time>2022-05-21 10:15:24</time>
      </trkpt>
      <trkpt lat="42.29606" lon="3.20506">
        <ele>250.4</ele>
        <time>2022-05-21 10:15:25</time>
      </trkpt>
      <trkpt lat="42.29605" lon="3.2051">
        <ele>250.6</ele>
        <time>2022-05-21 10:15:26</time>
      </trkpt>
      <trkpt lat="42.29605" lon="3.20514">
        <ele>251</ele>
        <time>2022-05-21 10:15:27</time>
      </trkpt>
      <trkpt lat="42.29603" lon="3.20518">
        <ele>251.2</ele>
        <time>2022-05-21 10:15:28</time>
      </trkpt>
      <trkpt lat="42.29602" lon="3.20522">
        <ele>251.2</ele>
        <time>2022-05-21 10:15:29</time>
      </trkpt>
      <trkpt lat="42.29601" lon="3.20525">
        <ele>251.4</ele>
        <time>2022-05-21 10:15:30</time>
      </trkpt>
      <trkpt lat="42.29599" lon="3.20528">
        <ele>251.8</ele>
        <time>2022-05-21 10:15:31</time>
      </trkpt>
      <trkpt lat="42.29597" lon="3.20531">
        <ele>252</ele>
        <time>2022-05-21 10:15:32</time>
      </trkpt>
      <trkpt lat="42.29594" lon="3.20533">
        <ele>252.2</ele>
        <time>2022-05-21 10:15:33</time>
      </trkpt>
      <trkpt lat="42.29591" lon="3.20535">
        <ele>252.4</ele>
        <time>2022-05-21 10:15:34</time>
      </trkpt>
      <trkpt lat="42.29589" lon="3.20536">
        <ele>252.6</ele>
        <time>2022-05-21 10:15:35</time>
      </trkpt>
      <trkpt lat="42.29586" lon="3.20537">
        <ele>252.8</ele>
        <time>2022-05-21 10:15:36</time>
      </trkpt>
      <trkpt lat="42.29583" lon="3.20538">
        <ele>253</ele>
        <time>2022-05-21 10:15:37</time>
      </trkpt>
      <trkpt lat="42.2958" lon="3.20538">
        <ele>253.2</ele>
        <time>2022-05-21 10:15:38</time>
      </trkpt>
      <trkpt lat="42.29577" lon="3.20539">
        <ele>253.4</ele>
        <time>2022-05-21 10:15:39</time>
      </trkpt>
      <trkpt lat="42.29574" lon="3.20539">
        <ele>253.4</ele>
        <time>2022-05-21 10:15:40</time>
      </trkpt>
      <trkpt lat="42.29571" lon="3.20539">
        <ele>253.8</ele>
        <time>2022-05-21 10:15:41</time>
      </trkpt>
      <trkpt lat="42.29568" lon="3.20539">
        <ele>254</ele>
        <time>2022-05-21 10:15:42</time>
      </trkpt>
      <trkpt lat="42.29565" lon="3.2054">
        <ele>254.2</ele>
        <time>2022-05-21 10:15:43</time>
      </trkpt>
      <trkpt lat="42.29562" lon="3.2054">
        <ele>254.4</ele>
        <time>2022-05-21 10:15:44</time>
      </trkpt>
      <trkpt lat="42.29558" lon="3.2054">
        <ele>254.6</ele>
        <time>2022-05-21 10:15:45</time>
      </trkpt>
      <trkpt lat="42.29555" lon="3.2054">
        <ele>254.8</ele>
        <time>2022-05-21 10:15:46</time>
      </trkpt>
      <trkpt lat="42.29552" lon="3.20539">
        <ele>255</ele>
        <time>2022-05-21 10:15:47</time>
      </trkpt>
      <trkpt lat="42.29549" lon="3.20539">
        <ele>255.2</ele>
        <time>2022-05-21 10:15:48</time>
      </trkpt>
      <trkpt lat="42.29545" lon="3.20538">
        <ele>255.4</ele>
        <time>2022-05-21 10:15:49</time>
      </trkpt>
      <trkpt lat="42.29542" lon="3.20537">
        <ele>255.6</ele>
        <time>2022-05-21 10:15:50</time>
      </trkpt>
      <trkpt lat="42.29539" lon="3.20536">
        <ele>255.8</ele>
        <time>2022-05-21 10:15:51</time>
      </trkpt>
      <trkpt lat="42.29535" lon="3.20535">
        <ele>255.8</ele>
        <time>2022-05-21 10:15:52</time>
      </trkpt>
      <trkpt lat="42.29531" lon="3.20535">
        <ele>256</ele>
        <time>2022-05-21 10:15:53</time>
      </trkpt>
      <trkpt lat="42.29528" lon="3.20534">
        <ele>256.2</ele>
        <time>2022-05-21 10:15:54</time>
      </trkpt>
      <trkpt lat="42.29524" lon="3.20534">
        <ele>256.4</ele>
        <time>2022-05-21 10:15:55</time>
      </trkpt>
      <trkpt lat="42.2952" lon="3.20534">
        <ele>256.6</ele>
        <time>2022-05-21 10:15:56</time>
      </trkpt>
      <trkpt lat="42.29517" lon="3.20535">
        <ele>256.8</ele>
        <time>2022-05-21 10:15:57</time>
      </trkpt>
      <trkpt lat="42.29513" lon="3.20536">
        <ele>257</ele>
        <time>2022-05-21 10:15:58</time>
      </trkpt>
      <trkpt lat="42.2951" lon="3.20538">
        <ele>257.2</ele>
        <time>2022-05-21 10:15:59</time>
      </trkpt>
      <trkpt lat="42.29507" lon="3.2054">
        <ele>257.2</ele>
        <time>2022-05-21 10:16:00</time>
      </trkpt>
      <trkpt lat="42.29505" lon="3.20544">
        <ele>257.4</ele>
        <time>2022-05-21 10:16:01</time>
      </trkpt>
      <trkpt lat="42.29502" lon="3.20547">
        <ele>257.6</ele>
        <time>2022-05-21 10:16:02</time>
      </trkpt>
      <trkpt lat="42.295" lon="3.20551">
        <ele>257.8</ele>
        <time>2022-05-21 10:16:03</time>
      </trkpt>
      <trkpt lat="42.29498" lon="3.20555">
        <ele>257.8</ele>
        <time>2022-05-21 10:16:04</time>
      </trkpt>
      <trkpt lat="42.29496" lon="3.20559">
        <ele>258</ele>
        <time>2022-05-21 10:16:05</time>
      </trkpt>
      <trkpt lat="42.29494" lon="3.20564">
        <ele>258.2</ele>
        <time>2022-05-21 10:16:06</time>
      </trkpt>
      <trkpt lat="42.29491" lon="3.20568">
        <ele>258.2</ele>
        <time>2022-05-21 10:16:07</time>
      </trkpt>
      <trkpt lat="42.29489" lon="3.20572">
        <ele>258.4</ele>
        <time>2022-05-21 10:16:08</time>
      </trkpt>
      <trkpt lat="42.29487" lon="3.20577">
        <ele>258.6</ele>
        <time>2022-05-21 10:16:09</time>
      </trkpt>
      <trkpt lat="42.29484" lon="3.2058">
        <ele>258.8</ele>
        <time>2022-05-21 10:16:10</time>
      </trkpt>
      <trkpt lat="42.29482" lon="3.20584">
        <ele>259</ele>
        <time>2022-05-21 10:16:11</time>
      </trkpt>
      <trkpt lat="42.29479" lon="3.20588">
        <ele>259</ele>
        <time>2022-05-21 10:16:12</time>
      </trkpt>
      <trkpt lat="42.29477" lon="3.20592">
        <ele>259.2</ele>
        <time>2022-05-21 10:16:13</time>
      </trkpt>
      <trkpt lat="42.29474" lon="3.20596">
        <ele>259.4</ele>
        <time>2022-05-21 10:16:14</time>
      </trkpt>
      <trkpt lat="42.29471" lon="3.20601">
        <ele>259.4</ele>
        <time>2022-05-21 10:16:15</time>
      </trkpt>
      <trkpt lat="42.29469" lon="3.20605">
        <ele>259.6</ele>
        <time>2022-05-21 10:16:16</time>
      </trkpt>
      <trkpt lat="42.29466" lon="3.20609">
        <ele>259.6</ele>
        <time>2022-05-21 10:16:17</time>
      </trkpt>
      <trkpt lat="42.29463" lon="3.20613">
        <ele>259.8</ele>
        <time>2022-05-21 10:16:18</time>
      </trkpt>
      <trkpt lat="42.2946" lon="3.20617">
        <ele>259.8</ele>
        <time>2022-05-21 10:16:19</time>
      </trkpt>
      <trkpt lat="42.29458" lon="3.20621">
        <ele>260</ele>
        <time>2022-05-21 10:16:20</time>
      </trkpt>
      <trkpt lat="42.29455" lon="3.20626">
        <ele>260.2</ele>
        <time>2022-05-21 10:16:21</time>
      </trkpt>
      <trkpt lat="42.29452" lon="3.2063">
        <ele>260.2</ele>
        <time>2022-05-21 10:16:22</time>
      </trkpt>
      <trkpt lat="42.2945" lon="3.20635">
        <ele>260.2</ele>
        <time>2022-05-21 10:16:23</time>
      </trkpt>
      <trkpt lat="42.29447" lon="3.20639">
        <ele>260.4</ele>
        <time>2022-05-21 10:16:24</time>
      </trkpt>
      <trkpt lat="42.29445" lon="3.20643">
        <ele>260.6</ele>
        <time>2022-05-21 10:16:25</time>
      </trkpt>
      <trkpt lat="42.29443" lon="3.20647">
        <ele>260.6</ele>
        <time>2022-05-21 10:16:26</time>
      </trkpt>
      <trkpt lat="42.29439" lon="3.20652">
        <ele>260.8</ele>
        <time>2022-05-21 10:16:27</time>
      </trkpt>
      <trkpt lat="42.29436" lon="3.20657">
        <ele>260.8</ele>
        <time>2022-05-21 10:16:28</time>
      </trkpt>
      <trkpt lat="42.29434" lon="3.20661">
        <ele>261</ele>
        <time>2022-05-21 10:16:29</time>
      </trkpt>
      <trkpt lat="42.2943" lon="3.20666">
        <ele>261</ele>
        <time>2022-05-21 10:16:30</time>
      </trkpt>
      <trkpt lat="42.29427" lon="3.2067">
        <ele>261.2</ele>
        <time>2022-05-21 10:16:31</time>
      </trkpt>
      <trkpt lat="42.29424" lon="3.20674">
        <ele>261.2</ele>
        <time>2022-05-21 10:16:32</time>
      </trkpt>
      <trkpt lat="42.29421" lon="3.20678">
        <ele>261.4</ele>
        <time>2022-05-21 10:16:33</time>
      </trkpt>
      <trkpt lat="42.29418" lon="3.20682">
        <ele>261.4</ele>
        <time>2022-05-21 10:16:34</time>
      </trkpt>
      <trkpt lat="42.29414" lon="3.20687">
        <ele>261.6</ele>
        <time>2022-05-21 10:16:35</time>
      </trkpt>
      <trkpt lat="42.29412" lon="3.2069">
        <ele>261.8</ele>
        <time>2022-05-21 10:16:36</time>
      </trkpt>
      <trkpt lat="42.29409" lon="3.20694">
        <ele>261.8</ele>
        <time>2022-05-21 10:16:37</time>
      </trkpt>
      <trkpt lat="42.29405" lon="3.20699">
        <ele>262</ele>
        <time>2022-05-21 10:16:38</time>
      </trkpt>
      <trkpt lat="42.29401" lon="3.20704">
        <ele>262</ele>
        <time>2022-05-21 10:16:39</time>
      </trkpt>
      <trkpt lat="42.29398" lon="3.20709">
        <ele>262.2</ele>
        <time>2022-05-21 10:16:40</time>
      </trkpt>
      <trkpt lat="42.29395" lon="3.20713">
        <ele>262.4</ele>
        <time>2022-05-21 10:16:41</time>
      </trkpt>
      <trkpt lat="42.29391" lon="3.20717">
        <ele>262.4</ele>
        <time>2022-05-21 10:16:42</time>
      </trkpt>
      <trkpt lat="42.29388" lon="3.20721">
        <ele>262.6</ele>
        <time>2022-05-21 10:16:43</time>
      </trkpt>
      <trkpt lat="42.29384" lon="3.20725">
        <ele>262.8</ele>
        <time>2022-05-21 10:16:44</time>
      </trkpt>
      <trkpt lat="42.2938" lon="3.20729">
        <ele>263</ele>
        <time>2022-05-21 10:16:45</time>
      </trkpt>
      <trkpt lat="42.29377" lon="3.20732">
        <ele>263.2</ele>
        <time>2022-05-21 10:16:46</time>
      </trkpt>
      <trkpt lat="42.29373" lon="3.20735">
        <ele>263.2</ele>
        <time>2022-05-21 10:16:47</time>
      </trkpt>
      <trkpt lat="42.29369" lon="3.20737">
        <ele>263.4</ele>
        <time>2022-05-21 10:16:48</time>
      </trkpt>
      <trkpt lat="42.29365" lon="3.2074">
        <ele>263.6</ele>
        <time>2022-05-21 10:16:49</time>
      </trkpt>
      <trkpt lat="42.29361" lon="3.20742">
        <ele>263.8</ele>
        <time>2022-05-21 10:16:50</time>
      </trkpt>
      <trkpt lat="42.29358" lon="3.20744">
        <ele>263.8</ele>
        <time>2022-05-21 10:16:51</time>
      </trkpt>
      <trkpt lat="42.29354" lon="3.20746">
        <ele>264</ele>
        <time>2022-05-21 10:16:52</time>
      </trkpt>
      <trkpt lat="42.2935" lon="3.20748">
        <ele>264.2</ele>
        <time>2022-05-21 10:16:53</time>
      </trkpt>
      <trkpt lat="42.29346" lon="3.2075">
        <ele>264.2</ele>
        <time>2022-05-21 10:16:54</time>
      </trkpt>
      <trkpt lat="42.29342" lon="3.20751">
        <ele>264.4</ele>
        <time>2022-05-21 10:16:55</time>
      </trkpt>
      <trkpt lat="42.29337" lon="3.20752">
        <ele>264.6</ele>
        <time>2022-05-21 10:16:56</time>
      </trkpt>
      <trkpt lat="42.29333" lon="3.20752">
        <ele>264.8</ele>
        <time>2022-05-21 10:16:57</time>
      </trkpt>
      <trkpt lat="42.29329" lon="3.20752">
        <ele>264.8</ele>
        <time>2022-05-21 10:16:58</time>
      </trkpt>
      <trkpt lat="42.29325" lon="3.20752">
        <ele>265</ele>
        <time>2022-05-21 10:16:59</time>
      </trkpt>
      <trkpt lat="42.2932" lon="3.20751">
        <ele>265.2</ele>
        <time>2022-05-21 10:17:00</time>
      </trkpt>
      <trkpt lat="42.29316" lon="3.20751">
        <ele>265.4</ele>
        <time>2022-05-21 10:17:01</time>
      </trkpt>
      <trkpt lat="42.29312" lon="3.2075">
        <ele>265.6</ele>
        <time>2022-05-21 10:17:02</time>
      </trkpt>
      <trkpt lat="42.29308" lon="3.2075">
        <ele>265.6</ele>
        <time>2022-05-21 10:17:03</time>
      </trkpt>
      <trkpt lat="42.29303" lon="3.20749">
        <ele>265.8</ele>
        <time>2022-05-21 10:17:04</time>
      </trkpt>
      <trkpt lat="42.29299" lon="3.20749">
        <ele>266</ele>
        <time>2022-05-21 10:17:05</time>
      </trkpt>
      <trkpt lat="42.29295" lon="3.20749">
        <ele>266</ele>
        <time>2022-05-21 10:17:06</time>
      </trkpt>
      <trkpt lat="42.2929" lon="3.20749">
        <ele>266.2</ele>
        <time>2022-05-21 10:17:07</time>
      </trkpt>
      <trkpt lat="42.29286" lon="3.20749">
        <ele>266.4</ele>
        <time>2022-05-21 10:17:08</time>
      </trkpt>
      <trkpt lat="42.29282" lon="3.20749">
        <ele>266.4</ele>
        <time>2022-05-21 10:17:09</time>
      </trkpt>
      <trkpt lat="42.29277" lon="3.2075">
        <ele>266.6</ele>
        <time>2022-05-21 10:17:10</time>
      </trkpt>
      <trkpt lat="42.29273" lon="3.20751">
        <ele>266.8</ele>
        <time>2022-05-21 10:17:11</time>
      </trkpt>
      <trkpt lat="42.29268" lon="3.20753">
        <ele>266.8</ele>
        <time>2022-05-21 10:17:12</time>
      </trkpt>
      <trkpt lat="42.29264" lon="3.20754">
        <ele>267</ele>
        <time>2022-05-21 10:17:13</time>
      </trkpt>
      <trkpt lat="42.2926" lon="3.20755">
        <ele>267</ele>
        <time>2022-05-21 10:17:14</time>
      </trkpt>
      <trkpt lat="42.29256" lon="3.20756">
        <ele>267.2</ele>
        <time>2022-05-21 10:17:15</time>
      </trkpt>
      <trkpt lat="42.29252" lon="3.20757">
        <ele>267.4</ele>
        <time>2022-05-21 10:17:16</time>
      </trkpt>
      <trkpt lat="42.29248" lon="3.20758">
        <ele>267.4</ele>
        <time>2022-05-21 10:17:17</time>
      </trkpt>
      <trkpt lat="42.29243" lon="3.2076">
        <ele>267.6</ele>
        <time>2022-05-21 10:17:18</time>
      </trkpt>
      <trkpt lat="42.29239" lon="3.20761">
        <ele>267.8</ele>
        <time>2022-05-21 10:17:19</time>
      </trkpt>
      <trkpt lat="42.29234" lon="3.20762">
        <ele>267.8</ele>
        <time>2022-05-21 10:17:20</time>
      </trkpt>
      <trkpt lat="42.2923" lon="3.20763">
        <ele>268</ele>
        <time>2022-05-21 10:17:21</time>
      </trkpt>
      <trkpt lat="42.29226" lon="3.20764">
        <ele>268.2</ele>
        <time>2022-05-21 10:17:22</time>
      </trkpt>
      <trkpt lat="42.29222" lon="3.20766">
        <ele>268.4</ele>
        <time>2022-05-21 10:17:23</time>
      </trkpt>
      <trkpt lat="42.29218" lon="3.20767">
        <ele>268.4</ele>
        <time>2022-05-21 10:17:24</time>
      </trkpt>
      <trkpt lat="42.29213" lon="3.20768">
        <ele>268.6</ele>
        <time>2022-05-21 10:17:25</time>
      </trkpt>
      <trkpt lat="42.29209" lon="3.20769">
        <ele>268.8</ele>
        <time>2022-05-21 10:17:26</time>
      </trkpt>
      <trkpt lat="42.29205" lon="3.20771">
        <ele>269</ele>
        <time>2022-05-21 10:17:27</time>
      </trkpt>
      <trkpt lat="42.29201" lon="3.20772">
        <ele>269.2</ele>
        <time>2022-05-21 10:17:28</time>
      </trkpt>
      <trkpt lat="42.29197" lon="3.20774">
        <ele>269.2</ele>
        <time>2022-05-21 10:17:29</time>
      </trkpt>
      <trkpt lat="42.29193" lon="3.20776">
        <ele>269.4</ele>
        <time>2022-05-21 10:17:30</time>
      </trkpt>
      <trkpt lat="42.29189" lon="3.20778">
        <ele>269.6</ele>
        <time>2022-05-21 10:17:31</time>
      </trkpt>
      <trkpt lat="42.29185" lon="3.20779">
        <ele>269.8</ele>
        <time>2022-05-21 10:17:32</time>
      </trkpt>
      <trkpt lat="42.29181" lon="3.20781">
        <ele>270</ele>
        <time>2022-05-21 10:17:33</time>
      </trkpt>
      <trkpt lat="42.29178" lon="3.20783">
        <ele>270.2</ele>
        <time>2022-05-21 10:17:34</time>
      </trkpt>
      <trkpt lat="42.29174" lon="3.20786">
        <ele>270.2</ele>
        <time>2022-05-21 10:17:35</time>
      </trkpt>
      <trkpt lat="42.2917" lon="3.20788">
        <ele>270.4</ele>
        <time>2022-05-21 10:17:36</time>
      </trkpt>
      <trkpt lat="42.29166" lon="3.20791">
        <ele>270.4</ele>
        <time>2022-05-21 10:17:37</time>
      </trkpt>
      <trkpt lat="42.29162" lon="3.20793">
        <ele>270.6</ele>
        <time>2022-05-21 10:17:38</time>
      </trkpt>
      <trkpt lat="42.29158" lon="3.20796">
        <ele>270.8</ele>
        <time>2022-05-21 10:17:39</time>
      </trkpt>
      <trkpt lat="42.29154" lon="3.20798">
        <ele>270.8</ele>
        <time>2022-05-21 10:17:40</time>
      </trkpt>
      <trkpt lat="42.29151" lon="3.208">
        <ele>271</ele>
        <time>2022-05-21 10:17:41</time>
      </trkpt>
      <trkpt lat="42.29147" lon="3.20803">
        <ele>271.2</ele>
        <time>2022-05-21 10:17:42</time>
      </trkpt>
      <trkpt lat="42.29143" lon="3.20805">
        <ele>271.4</ele>
        <time>2022-05-21 10:17:43</time>
      </trkpt>
      <trkpt lat="42.29139" lon="3.20808">
        <ele>271.4</ele>
        <time>2022-05-21 10:17:44</time>
      </trkpt>
      <trkpt lat="42.29135" lon="3.20811">
        <ele>271.6</ele>
        <time>2022-05-21 10:17:45</time>
      </trkpt>
      <trkpt lat="42.2913" lon="3.20813">
        <ele>271.6</ele>
        <time>2022-05-21 10:17:46</time>
      </trkpt>
      <trkpt lat="42.29125" lon="3.20814">
        <ele>271.6</ele>
        <time>2022-05-21 10:17:47</time>
      </trkpt>
      <trkpt lat="42.29121" lon="3.20815">
        <ele>271.8</ele>
        <time>2022-05-21 10:17:48</time>
      </trkpt>
      <trkpt lat="42.29116" lon="3.20815">
        <ele>271.8</ele>
        <time>2022-05-21 10:17:49</time>
      </trkpt>
      <trkpt lat="42.29112" lon="3.20815">
        <ele>272</ele>
        <time>2022-05-21 10:17:50</time>
      </trkpt>
      <trkpt lat="42.29107" lon="3.20815">
        <ele>272</ele>
        <time>2022-05-21 10:17:51</time>
      </trkpt>
      <trkpt lat="42.29102" lon="3.20814">
        <ele>272.2</ele>
        <time>2022-05-21 10:17:52</time>
      </trkpt>
      <trkpt lat="42.29098" lon="3.20812">
        <ele>272.2</ele>
        <time>2022-05-21 10:17:53</time>
      </trkpt>
      <trkpt lat="42.29094" lon="3.20811">
        <ele>272.4</ele>
        <time>2022-05-21 10:17:54</time>
      </trkpt>
      <trkpt lat="42.29089" lon="3.20808">
        <ele>272.4</ele>
        <time>2022-05-21 10:17:55</time>
      </trkpt>
      <trkpt lat="42.29085" lon="3.20806">
        <ele>272.6</ele>
        <time>2022-05-21 10:17:56</time>
      </trkpt>
      <trkpt lat="42.2908" lon="3.20803">
        <ele>272.6</ele>
        <time>2022-05-21 10:17:57</time>
      </trkpt>
      <trkpt lat="42.29076" lon="3.208">
        <ele>272.8</ele>
        <time>2022-05-21 10:17:58</time>
      </trkpt>
      <trkpt lat="42.29071" lon="3.20797">
        <ele>272.8</ele>
        <time>2022-05-21 10:17:59</time>
      </trkpt>
      <trkpt lat="42.29067" lon="3.20794">
        <ele>272.8</ele>
        <time>2022-05-21 10:18:00</time>
      </trkpt>
      <trkpt lat="42.29063" lon="3.20791">
        <ele>273</ele>
        <time>2022-05-21 10:18:01</time>
      </trkpt>
      <trkpt lat="42.29058" lon="3.20788">
        <ele>273</ele>
        <time>2022-05-21 10:18:02</time>
      </trkpt>
      <trkpt lat="42.29053" lon="3.20785">
        <ele>273</ele>
        <time>2022-05-21 10:18:03</time>
      </trkpt>
      <trkpt lat="42.29049" lon="3.20782">
        <ele>273.2</ele>
        <time>2022-05-21 10:18:04</time>
      </trkpt>
      <trkpt lat="42.29044" lon="3.20779">
        <ele>273.2</ele>
        <time>2022-05-21 10:18:05</time>
      </trkpt>
      <trkpt lat="42.29039" lon="3.20776">
        <ele>273.4</ele>
        <time>2022-05-21 10:18:06</time>
      </trkpt>
      <trkpt lat="42.29034" lon="3.20773">
        <ele>273.4</ele>
        <time>2022-05-21 10:18:07</time>
      </trkpt>
      <trkpt lat="42.29029" lon="3.20771">
        <ele>273.6</ele>
        <time>2022-05-21 10:18:08</time>
      </trkpt>
      <trkpt lat="42.29024" lon="3.2077">
        <ele>273.6</ele>
        <time>2022-05-21 10:18:09</time>
      </trkpt>
      <trkpt lat="42.29019" lon="3.2077">
        <ele>273.6</ele>
        <time>2022-05-21 10:18:10</time>
      </trkpt>
      <trkpt lat="42.29013" lon="3.20773">
        <ele>273.6</ele>
        <time>2022-05-21 10:18:11</time>
      </trkpt>
      <trkpt lat="42.29007" lon="3.20776">
        <ele>273.6</ele>
        <time>2022-05-21 10:18:12</time>
      </trkpt>
      <trkpt lat="42.29003" lon="3.20781">
        <ele>273.8</ele>
        <time>2022-05-21 10:18:13</time>
      </trkpt>
      <trkpt lat="42.29" lon="3.20787">
        <ele>273.8</ele>
        <time>2022-05-21 10:18:14</time>
      </trkpt>
      <trkpt lat="42.28997" lon="3.20794">
        <ele>274</ele>
        <time>2022-05-21 10:18:15</time>
      </trkpt>
      <trkpt lat="42.28996" lon="3.20801">
        <ele>274</ele>
        <time>2022-05-21 10:18:16</time>
      </trkpt>
      <trkpt lat="42.28994" lon="3.20809">
        <ele>274.2</ele>
        <time>2022-05-21 10:18:17</time>
      </trkpt>
      <trkpt lat="42.28992" lon="3.20817">
        <ele>274.2</ele>
        <time>2022-05-21 10:18:18</time>
      </trkpt>
      <trkpt lat="42.28991" lon="3.20824">
        <ele>274.2</ele>
        <time>2022-05-21 10:18:19</time>
      </trkpt>
      <trkpt lat="42.28989" lon="3.20831">
        <ele>274.4</ele>
        <time>2022-05-21 10:18:20</time>
      </trkpt>
      <trkpt lat="42.28986" lon="3.20838">
        <ele>274.4</ele>
        <time>2022-05-21 10:18:21</time>
      </trkpt>
      <trkpt lat="42.28982" lon="3.20844">
        <ele>274.6</ele>
        <time>2022-05-21 10:18:22</time>
      </trkpt>
      <trkpt lat="42.28979" lon="3.2085">
        <ele>274.6</ele>
        <time>2022-05-21 10:18:23</time>
      </trkpt>
      <trkpt lat="42.28974" lon="3.20855">
        <ele>274.8</ele>
        <time>2022-05-21 10:18:24</time>
      </trkpt>
      <trkpt lat="42.2897" lon="3.2086">
        <ele>274.8</ele>
        <time>2022-05-21 10:18:25</time>
      </trkpt>
      <trkpt lat="42.28966" lon="3.20866">
        <ele>275</ele>
        <time>2022-05-21 10:18:26</time>
      </trkpt>
      <trkpt lat="42.28962" lon="3.20871">
        <ele>275</ele>
        <time>2022-05-21 10:18:27</time>
      </trkpt>
      <trkpt lat="42.28959" lon="3.20878">
        <ele>275.2</ele>
        <time>2022-05-21 10:18:28</time>
      </trkpt>
      <trkpt lat="42.28956" lon="3.20885">
        <ele>275.2</ele>
        <time>2022-05-21 10:18:29</time>
      </trkpt>
      <trkpt lat="42.28953" lon="3.20892">
        <ele>275.4</ele>
        <time>2022-05-21 10:18:30</time>
      </trkpt>
      <trkpt lat="42.28951" lon="3.20899">
        <ele>275.4</ele>
        <time>2022-05-21 10:18:31</time>
      </trkpt>
      <trkpt lat="42.28949" lon="3.20907">
        <ele>275.4</ele>
        <time>2022-05-21 10:18:32</time>
      </trkpt>
      <trkpt lat="42.28947" lon="3.20915">
        <ele>275.4</ele>
        <time>2022-05-21 10:18:33</time>
      </trkpt>
      <trkpt lat="42.28945" lon="3.20923">
        <ele>275.4</ele>
        <time>2022-05-21 10:18:34</time>
      </trkpt>
      <trkpt lat="42.28943" lon="3.20931">
        <ele>275.4</ele>
        <time>2022-05-21 10:18:35</time>
      </trkpt>
      <trkpt lat="42.28941" lon="3.20939">
        <ele>275.4</ele>
        <time>2022-05-21 10:18:36</time>
      </trkpt>
      <trkpt lat="42.28939" lon="3.20948">
        <ele>275.2</ele>
        <time>2022-05-21 10:18:37</time>
      </trkpt>
      <trkpt lat="42.28937" lon="3.20956">
        <ele>275.2</ele>
        <time>2022-05-21 10:18:38</time>
      </trkpt>
      <trkpt lat="42.28935" lon="3.20964">
        <ele>275.2</ele>
        <time>2022-05-21 10:18:39</time>
      </trkpt>
      <trkpt lat="42.28932" lon="3.20972">
        <ele>275.2</ele>
        <time>2022-05-21 10:18:40</time>
      </trkpt>
      <trkpt lat="42.28929" lon="3.20979">
        <ele>275.2</ele>
        <time>2022-05-21 10:18:41</time>
      </trkpt>
      <trkpt lat="42.28926" lon="3.20986">
        <ele>275.2</ele>
        <time>2022-05-21 10:18:42</time>
      </trkpt>
      <trkpt lat="42.28922" lon="3.20993">
        <ele>275.2</ele>
        <time>2022-05-21 10:18:43</time>
      </trkpt>
      <trkpt lat="42.28918" lon="3.21">
        <ele>275.2</ele>
        <time>2022-05-21 10:18:44</time>
      </trkpt>
      <trkpt lat="42.28913" lon="3.21007">
        <ele>275.2</ele>
        <time>2022-05-21 10:18:45</time>
      </trkpt>
      <trkpt lat="42.28909" lon="3.21013">
        <ele>275.2</ele>
        <time>2022-05-21 10:18:46</time>
      </trkpt>
      <trkpt lat="42.28904" lon="3.21018">
        <ele>275.2</ele>
        <time>2022-05-21 10:18:47</time>
      </trkpt>
      <trkpt lat="42.28898" lon="3.21023">
        <ele>275.4</ele>
        <time>2022-05-21 10:18:48</time>
      </trkpt>
      <trkpt lat="42.28893" lon="3.21028">
        <ele>275.4</ele>
        <time>2022-05-21 10:18:49</time>
      </trkpt>
      <trkpt lat="42.28888" lon="3.21033">
        <ele>275.6</ele>
        <time>2022-05-21 10:18:50</time>
      </trkpt>
      <trkpt lat="42.28882" lon="3.21038">
        <ele>275.6</ele>
        <time>2022-05-21 10:18:51</time>
      </trkpt>
      <trkpt lat="42.28877" lon="3.21042">
        <ele>275.6</ele>
        <time>2022-05-21 10:18:52</time>
      </trkpt>
      <trkpt lat="42.28871" lon="3.21047">
        <ele>275.6</ele>
        <time>2022-05-21 10:18:53</time>
      </trkpt>
      <trkpt lat="42.28866" lon="3.21052">
        <ele>275.8</ele>
        <time>2022-05-21 10:18:54</time>
      </trkpt>
      <trkpt lat="42.2886" lon="3.21057">
        <ele>275.8</ele>
        <time>2022-05-21 10:18:55</time>
      </trkpt>
      <trkpt lat="42.28855" lon="3.21062">
        <ele>275.8</ele>
        <time>2022-05-21 10:18:56</time>
      </trkpt>
      <trkpt lat="42.28849" lon="3.21067">
        <ele>275.8</ele>
        <time>2022-05-21 10:18:57</time>
      </trkpt>
      <trkpt lat="42.28845" lon="3.21073">
        <ele>275.8</ele>
        <time>2022-05-21 10:18:58</time>
      </trkpt>
      <trkpt lat="42.28841" lon="3.21078">
        <ele>276</ele>
        <time>2022-05-21 10:18:59</time>
      </trkpt>
      <trkpt lat="42.28837" lon="3.21085">
        <ele>276</ele>
        <time>2022-05-21 10:19:00</time>
      </trkpt>
      <trkpt lat="42.28834" lon="3.21092">
        <ele>276.2</ele>
        <time>2022-05-21 10:19:01</time>
      </trkpt>
      <trkpt lat="42.28832" lon="3.211">
        <ele>276.2</ele>
        <time>2022-05-21 10:19:02</time>
      </trkpt>
      <trkpt lat="42.28832" lon="3.21108">
        <ele>276.4</ele>
        <time>2022-05-21 10:19:03</time>
      </trkpt>
      <trkpt lat="42.28833" lon="3.21116">
        <ele>276.4</ele>
        <time>2022-05-21 10:19:04</time>
      </trkpt>
      <trkpt lat="42.28835" lon="3.21124">
        <ele>276.4</ele>
        <time>2022-05-21 10:19:05</time>
      </trkpt>
      <trkpt lat="42.28837" lon="3.21132">
        <ele>276.4</ele>
        <time>2022-05-21 10:19:06</time>
      </trkpt>
      <trkpt lat="42.2884" lon="3.2114">
        <ele>276.4</ele>
        <time>2022-05-21 10:19:07</time>
      </trkpt>
      <trkpt lat="42.28843" lon="3.21148">
        <ele>276.4</ele>
        <time>2022-05-21 10:19:08</time>
      </trkpt>
      <trkpt lat="42.28846" lon="3.21156">
        <ele>276.4</ele>
        <time>2022-05-21 10:19:09</time>
      </trkpt>
      <trkpt lat="42.28849" lon="3.21164">
        <ele>276.6</ele>
        <time>2022-05-21 10:19:10</time>
      </trkpt>
      <trkpt lat="42.28852" lon="3.21172">
        <ele>276.6</ele>
        <time>2022-05-21 10:19:11</time>
      </trkpt>
      <trkpt lat="42.28855" lon="3.2118">
        <ele>276.8</ele>
        <time>2022-05-21 10:19:12</time>
      </trkpt>
      <trkpt lat="42.28858" lon="3.21188">
        <ele>276.8</ele>
        <time>2022-05-21 10:19:13</time>
      </trkpt>
      <trkpt lat="42.2886" lon="3.21195">
        <ele>276.8</ele>
        <time>2022-05-21 10:19:14</time>
      </trkpt>
      <trkpt lat="42.28863" lon="3.21204">
        <ele>276.6</ele>
        <time>2022-05-21 10:19:15</time>
      </trkpt>
      <trkpt lat="42.28864" lon="3.21212">
        <ele>276.6</ele>
        <time>2022-05-21 10:19:16</time>
      </trkpt>
      <trkpt lat="42.28865" lon="3.2122">
        <ele>276.6</ele>
        <time>2022-05-21 10:19:17</time>
      </trkpt>
      <trkpt lat="42.28865" lon="3.21229">
        <ele>276.6</ele>
        <time>2022-05-21 10:19:18</time>
      </trkpt>
      <trkpt lat="42.28864" lon="3.21238">
        <ele>276.6</ele>
        <time>2022-05-21 10:19:19</time>
      </trkpt>
      <trkpt lat="42.28863" lon="3.21246">
        <ele>276.6</ele>
        <time>2022-05-21 10:19:20</time>
      </trkpt>
      <trkpt lat="42.28863" lon="3.21255">
        <ele>276.8</ele>
        <time>2022-05-21 10:19:21</time>
      </trkpt>
      <trkpt lat="42.28863" lon="3.21263">
        <ele>276.8</ele>
        <time>2022-05-21 10:19:22</time>
      </trkpt>
      <trkpt lat="42.28863" lon="3.21272">
        <ele>276.8</ele>
        <time>2022-05-21 10:19:23</time>
      </trkpt>
      <trkpt lat="42.28865" lon="3.2128">
        <ele>277</ele>
        <time>2022-05-21 10:19:24</time>
      </trkpt>
      <trkpt lat="42.28866" lon="3.21288">
        <ele>277</ele>
        <time>2022-05-21 10:19:25</time>
      </trkpt>
      <trkpt lat="42.28868" lon="3.21296">
        <ele>277</ele>
        <time>2022-05-21 10:19:26</time>
      </trkpt>
      <trkpt lat="42.28869" lon="3.21304">
        <ele>277.2</ele>
        <time>2022-05-21 10:19:27</time>
      </trkpt>
      <trkpt lat="42.28871" lon="3.21312">
        <ele>277.4</ele>
        <time>2022-05-21 10:19:28</time>
      </trkpt>
      <trkpt lat="42.28872" lon="3.2132">
        <ele>277.6</ele>
        <time>2022-05-21 10:19:29</time>
      </trkpt>
      <trkpt lat="42.28873" lon="3.21328">
        <ele>277.8</ele>
        <time>2022-05-21 10:19:30</time>
      </trkpt>
      <trkpt lat="42.28874" lon="3.21335">
        <ele>278</ele>
        <time>2022-05-21 10:19:31</time>
      </trkpt>
      <trkpt lat="42.28875" lon="3.21342">
        <ele>278.2</ele>
        <time>2022-05-21 10:19:32</time>
      </trkpt>
      <trkpt lat="42.28876" lon="3.21349">
        <ele>278.4</ele>
        <time>2022-05-21 10:19:33</time>
      </trkpt>
      <trkpt lat="42.28878" lon="3.21356">
        <ele>278.8</ele>
        <time>2022-05-21 10:19:34</time>
      </trkpt>
      <trkpt lat="42.28879" lon="3.21363">
        <ele>279</ele>
        <time>2022-05-21 10:19:35</time>
      </trkpt>
      <trkpt lat="42.2888" lon="3.2137">
        <ele>279.2</ele>
        <time>2022-05-21 10:19:36</time>
      </trkpt>
      <trkpt lat="42.28882" lon="3.21376">
        <ele>279.4</ele>
        <time>2022-05-21 10:19:37</time>
      </trkpt>
      <trkpt lat="42.28883" lon="3.21383">
        <ele>279.8</ele>
        <time>2022-05-21 10:19:38</time>
      </trkpt>
      <trkpt lat="42.28884" lon="3.21389">
        <ele>280</ele>
        <time>2022-05-21 10:19:39</time>
      </trkpt>
      <trkpt lat="42.28885" lon="3.21396">
        <ele>280.2</ele>
        <time>2022-05-21 10:19:40</time>
      </trkpt>
      <trkpt lat="42.28887" lon="3.21402">
        <ele>280.4</ele>
        <time>2022-05-21 10:19:41</time>
      </trkpt>
      <trkpt lat="42.28889" lon="3.21409">
        <ele>280.8</ele>
        <time>2022-05-21 10:19:42</time>
      </trkpt>
      <trkpt lat="42.2889" lon="3.21415">
        <ele>281</ele>
        <time>2022-05-21 10:19:43</time>
      </trkpt>
      <trkpt lat="42.28892" lon="3.21421">
        <ele>281.2</ele>
        <time>2022-05-21 10:19:44</time>
      </trkpt>
      <trkpt lat="42.28893" lon="3.21428">
        <ele>281.6</ele>
        <time>2022-05-21 10:19:45</time>
      </trkpt>
      <trkpt lat="42.28894" lon="3.21434">
        <ele>281.8</ele>
        <time>2022-05-21 10:19:46</time>
      </trkpt>
      <trkpt lat="42.28896" lon="3.2144">
        <ele>282</ele>
        <time>2022-05-21 10:19:47</time>
      </trkpt>
      <trkpt lat="42.28897" lon="3.21446">
        <ele>282.2</ele>
        <time>2022-05-21 10:19:48</time>
      </trkpt>
      <trkpt lat="42.28897" lon="3.21453">
        <ele>282.2</ele>
        <time>2022-05-21 10:19:49</time>
      </trkpt>
      <trkpt lat="42.28896" lon="3.21459">
        <ele>282.4</ele>
        <time>2022-05-21 10:19:50</time>
      </trkpt>
      <trkpt lat="42.28895" lon="3.21466">
        <ele>282.4</ele>
        <time>2022-05-21 10:19:51</time>
      </trkpt>
      <trkpt lat="42.28894" lon="3.21473">
        <ele>282.4</ele>
        <time>2022-05-21 10:19:52</time>
      </trkpt>
      <trkpt lat="42.28893" lon="3.21481">
        <ele>282.4</ele>
        <time>2022-05-21 10:19:53</time>
      </trkpt>
      <trkpt lat="42.28893" lon="3.21489">
        <ele>282.2</ele>
        <time>2022-05-21 10:19:54</time>
      </trkpt>
      <trkpt lat="42.28891" lon="3.21497">
        <ele>282.2</ele>
        <time>2022-05-21 10:19:55</time>
      </trkpt>
      <trkpt lat="42.2889" lon="3.21506">
        <ele>282.2</ele>
        <time>2022-05-21 10:19:56</time>
      </trkpt>
      <trkpt lat="42.28888" lon="3.21514">
        <ele>282</ele>
        <time>2022-05-21 10:19:57</time>
      </trkpt>
      <trkpt lat="42.28887" lon="3.21522">
        <ele>282</ele>
        <time>2022-05-21 10:19:58</time>
      </trkpt>
      <trkpt lat="42.28885" lon="3.21529">
        <ele>281.8</ele>
        <time>2022-05-21 10:19:59</time>
      </trkpt>
      <trkpt lat="42.28883" lon="3.21537">
        <ele>281.8</ele>
        <time>2022-05-21 10:20:00</time>
      </trkpt>
      <trkpt lat="42.2888" lon="3.21544">
        <ele>281.6</ele>
        <time>2022-05-21 10:20:01</time>
      </trkpt>
      <trkpt lat="42.28876" lon="3.21551">
        <ele>281.6</ele>
        <time>2022-05-21 10:20:02</time>
      </trkpt>
      <trkpt lat="42.28873" lon="3.21558">
        <ele>281.4</ele>
        <time>2022-05-21 10:20:03</time>
      </trkpt>
      <trkpt lat="42.28869" lon="3.21565">
        <ele>281.2</ele>
        <time>2022-05-21 10:20:04</time>
      </trkpt>
      <trkpt lat="42.28865" lon="3.21572">
        <ele>281.2</ele>
        <time>2022-05-21 10:20:05</time>
      </trkpt>
      <trkpt lat="42.2886" lon="3.21579">
        <ele>281.2</ele>
        <time>2022-05-21 10:20:06</time>
      </trkpt>
      <trkpt lat="42.28856" lon="3.21586">
        <ele>281</ele>
        <time>2022-05-21 10:20:07</time>
      </trkpt>
      <trkpt lat="42.28852" lon="3.21594">
        <ele>280.8</ele>
        <time>2022-05-21 10:20:08</time>
      </trkpt>
      <trkpt lat="42.28848" lon="3.21601">
        <ele>280.6</ele>
        <time>2022-05-21 10:20:09</time>
      </trkpt>
      <trkpt lat="42.28845" lon="3.21609">
        <ele>280.6</ele>
        <time>2022-05-21 10:20:10</time>
      </trkpt>
      <trkpt lat="42.28842" lon="3.21616">
        <ele>280.4</ele>
        <time>2022-05-21 10:20:11</time>
      </trkpt>
      <trkpt lat="42.28841" lon="3.21624">
        <ele>280.4</ele>
        <time>2022-05-21 10:20:12</time>
      </trkpt>
      <trkpt lat="42.28841" lon="3.21633">
        <ele>280.4</ele>
        <time>2022-05-21 10:20:13</time>
      </trkpt>
      <trkpt lat="42.28843" lon="3.21641">
        <ele>280.2</ele>
        <time>2022-05-21 10:20:14</time>
      </trkpt>
      <trkpt lat="42.28846" lon="3.21647">
        <ele>280.2</ele>
        <time>2022-05-21 10:20:15</time>
      </trkpt>
      <trkpt lat="42.28851" lon="3.21653">
        <ele>280.2</ele>
        <time>2022-05-21 10:20:16</time>
      </trkpt>
      <trkpt lat="42.28857" lon="3.21657">
        <ele>280</ele>
        <time>2022-05-21 10:20:17</time>
      </trkpt>
      <trkpt lat="42.28863" lon="3.21661">
        <ele>279.8</ele>
        <time>2022-05-21 10:20:18</time>
      </trkpt>
      <trkpt lat="42.2887" lon="3.21665">
        <ele>279.8</ele>
        <time>2022-05-21 10:20:19</time>
      </trkpt>
      <trkpt lat="42.28876" lon="3.21669">
        <ele>279.8</ele>
        <time>2022-05-21 10:20:20</time>
      </trkpt>
      <trkpt lat="42.28882" lon="3.21672">
        <ele>279.6</ele>
        <time>2022-05-21 10:20:21</time>
      </trkpt>
      <trkpt lat="42.28888" lon="3.21676">
        <ele>279.6</ele>
        <time>2022-05-21 10:20:22</time>
      </trkpt>
      <trkpt lat="42.28894" lon="3.21679">
        <ele>279.6</ele>
        <time>2022-05-21 10:20:23</time>
      </trkpt>
      <trkpt lat="42.289" lon="3.21682">
        <ele>279.6</ele>
        <time>2022-05-21 10:20:24</time>
      </trkpt>
      <trkpt lat="42.28907" lon="3.21684">
        <ele>279.4</ele>
        <time>2022-05-21 10:20:25</time>
      </trkpt>
      <trkpt lat="42.28913" lon="3.21685">
        <ele>279.4</ele>
        <time>2022-05-21 10:20:26</time>
      </trkpt>
      <trkpt lat="42.2892" lon="3.21686">
        <ele>279.4</ele>
        <time>2022-05-21 10:20:27</time>
      </trkpt>
      <trkpt lat="42.28927" lon="3.21686">
        <ele>279.4</ele>
        <time>2022-05-21 10:20:28</time>
      </trkpt>
      <trkpt lat="42.28934" lon="3.21686">
        <ele>279.2</ele>
        <time>2022-05-21 10:20:29</time>
      </trkpt>
      <trkpt lat="42.28941" lon="3.21686">
        <ele>279.2</ele>
        <time>2022-05-21 10:20:30</time>
      </trkpt>
      <trkpt lat="42.28948" lon="3.21686">
        <ele>279.2</ele>
        <time>2022-05-21 10:20:31</time>
      </trkpt>
      <trkpt lat="42.28955" lon="3.21686">
        <ele>279</ele>
        <time>2022-05-21 10:20:32</time>
      </trkpt>
      <trkpt lat="42.28962" lon="3.21686">
        <ele>279</ele>
        <time>2022-05-21 10:20:33</time>
      </trkpt>
      <trkpt lat="42.2897" lon="3.21687">
        <ele>279</ele>
        <time>2022-05-21 10:20:34</time>
      </trkpt>
      <trkpt lat="42.28977" lon="3.21687">
        <ele>278.8</ele>
        <time>2022-05-21 10:20:35</time>
      </trkpt>
      <trkpt lat="42.28984" lon="3.21687">
        <ele>278.8</ele>
        <time>2022-05-21 10:20:36</time>
      </trkpt>
      <trkpt lat="42.28991" lon="3.21687">
        <ele>278.6</ele>
        <time>2022-05-21 10:20:37</time>
      </trkpt>
      <trkpt lat="42.28998" lon="3.21687">
        <ele>278.6</ele>
        <time>2022-05-21 10:20:38</time>
      </trkpt>
      <trkpt lat="42.29006" lon="3.21687">
        <ele>278.6</ele>
        <time>2022-05-21 10:20:39</time>
      </trkpt>
      <trkpt lat="42.29013" lon="3.21687">
        <ele>278.4</ele>
        <time>2022-05-21 10:20:40</time>
      </trkpt>
      <trkpt lat="42.2902" lon="3.21688">
        <ele>278.4</ele>
        <time>2022-05-21 10:20:41</time>
      </trkpt>
      <trkpt lat="42.29027" lon="3.21691">
        <ele>278.4</ele>
        <time>2022-05-21 10:20:42</time>
      </trkpt>
      <trkpt lat="42.29033" lon="3.21695">
        <ele>278.2</ele>
        <time>2022-05-21 10:20:43</time>
      </trkpt>
      <trkpt lat="42.29039" lon="3.21699">
        <ele>278.2</ele>
        <time>2022-05-21 10:20:44</time>
      </trkpt>
      <trkpt lat="42.29045" lon="3.21704">
        <ele>278</ele>
        <time>2022-05-21 10:20:45</time>
      </trkpt>
      <trkpt lat="42.29051" lon="3.21709">
        <ele>278</ele>
        <time>2022-05-21 10:20:46</time>
      </trkpt>
      <trkpt lat="42.29057" lon="3.21714">
        <ele>277.8</ele>
        <time>2022-05-21 10:20:47</time>
      </trkpt>
      <trkpt lat="42.29062" lon="3.21719">
        <ele>277.8</ele>
        <time>2022-05-21 10:20:48</time>
      </trkpt>
      <trkpt lat="42.29068" lon="3.21724">
        <ele>277.6</ele>
        <time>2022-05-21 10:20:49</time>
      </trkpt>
      <trkpt lat="42.29073" lon="3.2173">
        <ele>277.6</ele>
        <time>2022-05-21 10:20:50</time>
      </trkpt>
      <trkpt lat="42.29079" lon="3.21735">
        <ele>277.6</ele>
        <time>2022-05-21 10:20:51</time>
      </trkpt>
      <trkpt lat="42.29084" lon="3.2174">
        <ele>277.4</ele>
        <time>2022-05-21 10:20:52</time>
      </trkpt>
      <trkpt lat="42.2909" lon="3.21745">
        <ele>277.4</ele>
        <time>2022-05-21 10:20:53</time>
      </trkpt>
      <trkpt lat="42.29095" lon="3.21749">
        <ele>277.4</ele>
        <time>2022-05-21 10:20:54</time>
      </trkpt>
      <trkpt lat="42.29101" lon="3.21754">
        <ele>277.2</ele>
        <time>2022-05-21 10:20:55</time>
      </trkpt>
      <trkpt lat="42.29106" lon="3.21759">
        <ele>277.2</ele>
        <time>2022-05-21 10:20:56</time>
      </trkpt>
      <trkpt lat="42.29112" lon="3.21765">
        <ele>277.2</ele>
        <time>2022-05-21 10:20:57</time>
      </trkpt>
      <trkpt lat="42.29118" lon="3.2177">
        <ele>277</ele>
        <time>2022-05-21 10:20:58</time>
      </trkpt>
      <trkpt lat="42.29123" lon="3.21775">
        <ele>277</ele>
        <time>2022-05-21 10:20:59</time>
      </trkpt>
      <trkpt lat="42.29129" lon="3.2178">
        <ele>276.8</ele>
        <time>2022-05-21 10:21:00</time>
      </trkpt>
      <trkpt lat="42.29134" lon="3.21786">
        <ele>276.8</ele>
        <time>2022-05-21 10:21:01</time>
      </trkpt>
      <trkpt lat="42.29139" lon="3.21792">
        <ele>276.8</ele>
        <time>2022-05-21 10:21:02</time>
      </trkpt>
      <trkpt lat="42.29142" lon="3.218">
        <ele>276.8</ele>
        <time>2022-05-21 10:21:03</time>
      </trkpt>
      <trkpt lat="42.29144" lon="3.21808">
        <ele>276.6</ele>
        <time>2022-05-21 10:21:04</time>
      </trkpt>
      <trkpt lat="42.29146" lon="3.21818">
        <ele>276.6</ele>
        <time>2022-05-21 10:21:05</time>
      </trkpt>
      <trkpt lat="42.29148" lon="3.21827">
        <ele>276.4</ele>
        <time>2022-05-21 10:21:06</time>
      </trkpt>
      <trkpt lat="42.2915" lon="3.21837">
        <ele>276.4</ele>
        <time>2022-05-21 10:21:07</time>
      </trkpt>
      <trkpt lat="42.29152" lon="3.21846">
        <ele>276.2</ele>
        <time>2022-05-21 10:21:08</time>
      </trkpt>
      <trkpt lat="42.29154" lon="3.21855">
        <ele>276.2</ele>
        <time>2022-05-21 10:21:09</time>
      </trkpt>
      <trkpt lat="42.29155" lon="3.21864">
        <ele>276.2</ele>
        <time>2022-05-21 10:21:10</time>
      </trkpt>
      <trkpt lat="42.29157" lon="3.21873">
        <ele>276.2</ele>
        <time>2022-05-21 10:21:11</time>
      </trkpt>
      <trkpt lat="42.29159" lon="3.21882">
        <ele>276</ele>
        <time>2022-05-21 10:21:12</time>
      </trkpt>
      <trkpt lat="42.2916" lon="3.21892">
        <ele>276</ele>
        <time>2022-05-21 10:21:13</time>
      </trkpt>
      <trkpt lat="42.29161" lon="3.21901">
        <ele>276</ele>
        <time>2022-05-21 10:21:14</time>
      </trkpt>
      <trkpt lat="42.29163" lon="3.21911">
        <ele>276</ele>
        <time>2022-05-21 10:21:15</time>
      </trkpt>
      <trkpt lat="42.29163" lon="3.21919">
        <ele>276</ele>
        <time>2022-05-21 10:21:16</time>
      </trkpt>
      <trkpt lat="42.29163" lon="3.21929">
        <ele>276</ele>
        <time>2022-05-21 10:21:17</time>
      </trkpt>
      <trkpt lat="42.29162" lon="3.21935">
        <ele>275.8</ele>
        <time>2022-05-21 10:21:18</time>
      </trkpt>
      <trkpt lat="42.29159" lon="3.21947">
        <ele>275.8</ele>
        <time>2022-05-21 10:21:19</time>
      </trkpt>
      <trkpt lat="42.29157" lon="3.21953">
        <ele>275.8</ele>
        <time>2022-05-21 10:21:20</time>
      </trkpt>
      <trkpt lat="42.29152" lon="3.21962">
        <ele>275.8</ele>
        <time>2022-05-21 10:21:21</time>
      </trkpt>
      <trkpt lat="42.29149" lon="3.21967">
        <ele>275.6</ele>
        <time>2022-05-21 10:21:22</time>
      </trkpt>
      <trkpt lat="42.29141" lon="3.21974">
        <ele>275.6</ele>
        <time>2022-05-21 10:21:23</time>
      </trkpt>
      <trkpt lat="42.29136" lon="3.21975">
        <ele>275.4</ele>
        <time>2022-05-21 10:21:24</time>
      </trkpt>
      <trkpt lat="42.29128" lon="3.21974">
        <ele>275.2</ele>
        <time>2022-05-21 10:21:25</time>
      </trkpt>
      <trkpt lat="42.29124" lon="3.21973">
        <ele>275</ele>
        <time>2022-05-21 10:21:26</time>
      </trkpt>
      <trkpt lat="42.29116" lon="3.21968">
        <ele>275</ele>
        <time>2022-05-21 10:21:27</time>
      </trkpt>
      <trkpt lat="42.29113" lon="3.21965">
        <ele>275</ele>
        <time>2022-05-21 10:21:28</time>
      </trkpt>
      <trkpt lat="42.29103" lon="3.21959">
        <ele>274.8</ele>
        <time>2022-05-21 10:21:29</time>
      </trkpt>
      <trkpt lat="42.29097" lon="3.21957">
        <ele>274.8</ele>
        <time>2022-05-21 10:21:30</time>
      </trkpt>
      <trkpt lat="42.2909" lon="3.21956">
        <ele>274.6</ele>
        <time>2022-05-21 10:21:31</time>
      </trkpt>
      <trkpt lat="42.29083" lon="3.21957">
        <ele>274.6</ele>
        <time>2022-05-21 10:21:32</time>
      </trkpt>
      <trkpt lat="42.29076" lon="3.21958">
        <ele>274.4</ele>
        <time>2022-05-21 10:21:33</time>
      </trkpt>
      <trkpt lat="42.29069" lon="3.21959">
        <ele>274.4</ele>
        <time>2022-05-21 10:21:34</time>
      </trkpt>
      <trkpt lat="42.29062" lon="3.21961">
        <ele>274.4</ele>
        <time>2022-05-21 10:21:35</time>
      </trkpt>
      <trkpt lat="42.29056" lon="3.21963">
        <ele>274.4</ele>
        <time>2022-05-21 10:21:36</time>
      </trkpt>
      <trkpt lat="42.2905" lon="3.21966">
        <ele>274.2</ele>
        <time>2022-05-21 10:21:37</time>
      </trkpt>
      <trkpt lat="42.29044" lon="3.2197">
        <ele>274.2</ele>
        <time>2022-05-21 10:21:38</time>
      </trkpt>
      <trkpt lat="42.29039" lon="3.21974">
        <ele>274.2</ele>
        <time>2022-05-21 10:21:39</time>
      </trkpt>
      <trkpt lat="42.29034" lon="3.21981">
        <ele>274.2</ele>
        <time>2022-05-21 10:21:40</time>
      </trkpt>
      <trkpt lat="42.29031" lon="3.21988">
        <ele>274.2</ele>
        <time>2022-05-21 10:21:41</time>
      </trkpt>
      <trkpt lat="42.29029" lon="3.21996">
        <ele>274.4</ele>
        <time>2022-05-21 10:21:42</time>
      </trkpt>
      <trkpt lat="42.29027" lon="3.22005">
        <ele>274.2</ele>
        <time>2022-05-21 10:21:43</time>
      </trkpt>
      <trkpt lat="42.29026" lon="3.22013">
        <ele>274.2</ele>
        <time>2022-05-21 10:21:44</time>
      </trkpt>
      <trkpt lat="42.29025" lon="3.22022">
        <ele>274.2</ele>
        <time>2022-05-21 10:21:45</time>
      </trkpt>
      <trkpt lat="42.29023" lon="3.22031">
        <ele>274</ele>
        <time>2022-05-21 10:21:46</time>
      </trkpt>
      <trkpt lat="42.29022" lon="3.2204">
        <ele>274</ele>
        <time>2022-05-21 10:21:47</time>
      </trkpt>
      <trkpt lat="42.29019" lon="3.22048">
        <ele>273.8</ele>
        <time>2022-05-21 10:21:48</time>
      </trkpt>
      <trkpt lat="42.29016" lon="3.22056">
        <ele>273.6</ele>
        <time>2022-05-21 10:21:49</time>
      </trkpt>
      <trkpt lat="42.29012" lon="3.22063">
        <ele>273.4</ele>
        <time>2022-05-21 10:21:50</time>
      </trkpt>
      <trkpt lat="42.29007" lon="3.22068">
        <ele>273.2</ele>
        <time>2022-05-21 10:21:51</time>
      </trkpt>
      <trkpt lat="42.29001" lon="3.22072">
        <ele>273</ele>
        <time>2022-05-21 10:21:52</time>
      </trkpt>
      <trkpt lat="42.28996" lon="3.22076">
        <ele>273</ele>
        <time>2022-05-21 10:21:53</time>
      </trkpt>
      <trkpt lat="42.2899" lon="3.22079">
        <ele>272.8</ele>
        <time>2022-05-21 10:21:54</time>
      </trkpt>
      <trkpt lat="42.28984" lon="3.22082">
        <ele>272.6</ele>
        <time>2022-05-21 10:21:55</time>
      </trkpt>
      <trkpt lat="42.28977" lon="3.22085">
        <ele>272.6</ele>
        <time>2022-05-21 10:21:56</time>
      </trkpt>
      <trkpt lat="42.2897" lon="3.22088">
        <ele>272.4</ele>
        <time>2022-05-21 10:21:57</time>
      </trkpt>
      <trkpt lat="42.28964" lon="3.2209">
        <ele>272.4</ele>
        <time>2022-05-21 10:21:58</time>
      </trkpt>
      <trkpt lat="42.28958" lon="3.22092">
        <ele>272.4</ele>
        <time>2022-05-21 10:21:59</time>
      </trkpt>
      <trkpt lat="42.28952" lon="3.22095">
        <ele>272.4</ele>
        <time>2022-05-21 10:22:00</time>
      </trkpt>
      <trkpt lat="42.28945" lon="3.22097">
        <ele>272.4</ele>
        <time>2022-05-21 10:22:01</time>
      </trkpt>
      <trkpt lat="42.28939" lon="3.221">
        <ele>272.4</ele>
        <time>2022-05-21 10:22:02</time>
      </trkpt>
      <trkpt lat="42.28933" lon="3.22103">
        <ele>272.4</ele>
        <time>2022-05-21 10:22:03</time>
      </trkpt>
      <trkpt lat="42.28927" lon="3.22107">
        <ele>272.4</ele>
        <time>2022-05-21 10:22:04</time>
      </trkpt>
      <trkpt lat="42.28921" lon="3.22111">
        <ele>272.4</ele>
        <time>2022-05-21 10:22:05</time>
      </trkpt>
      <trkpt lat="42.28915" lon="3.22115">
        <ele>272.2</ele>
        <time>2022-05-21 10:22:06</time>
      </trkpt>
      <trkpt lat="42.28909" lon="3.2212">
        <ele>272.2</ele>
        <time>2022-05-21 10:22:07</time>
      </trkpt>
      <trkpt lat="42.28903" lon="3.22124">
        <ele>272.2</ele>
        <time>2022-05-21 10:22:08</time>
      </trkpt>
      <trkpt lat="42.28897" lon="3.22129">
        <ele>272</ele>
        <time>2022-05-21 10:22:09</time>
      </trkpt>
      <trkpt lat="42.28891" lon="3.22133">
        <ele>271.8</ele>
        <time>2022-05-21 10:22:10</time>
      </trkpt>
      <trkpt lat="42.28884" lon="3.22137">
        <ele>271.6</ele>
        <time>2022-05-21 10:22:11</time>
      </trkpt>
      <trkpt lat="42.28877" lon="3.2214">
        <ele>271.6</ele>
        <time>2022-05-21 10:22:12</time>
      </trkpt>
      <trkpt lat="42.2887" lon="3.22143">
        <ele>271.4</ele>
        <time>2022-05-21 10:22:13</time>
      </trkpt>
      <trkpt lat="42.28863" lon="3.22145">
        <ele>271.4</ele>
        <time>2022-05-21 10:22:14</time>
      </trkpt>
      <trkpt lat="42.28856" lon="3.22147">
        <ele>271.4</ele>
        <time>2022-05-21 10:22:15</time>
      </trkpt>
      <trkpt lat="42.2885" lon="3.22149">
        <ele>271.2</ele>
        <time>2022-05-21 10:22:16</time>
      </trkpt>
      <trkpt lat="42.28843" lon="3.22151">
        <ele>271.2</ele>
        <time>2022-05-21 10:22:17</time>
      </trkpt>
      <trkpt lat="42.28836" lon="3.22152">
        <ele>271</ele>
        <time>2022-05-21 10:22:18</time>
      </trkpt>
      <trkpt lat="42.28829" lon="3.22154">
        <ele>271</ele>
        <time>2022-05-21 10:22:19</time>
      </trkpt>
      <trkpt lat="42.28822" lon="3.22156">
        <ele>271</ele>
        <time>2022-05-21 10:22:20</time>
      </trkpt>
      <trkpt lat="42.28816" lon="3.22158">
        <ele>271</ele>
        <time>2022-05-21 10:22:21</time>
      </trkpt>
      <trkpt lat="42.28809" lon="3.22159">
        <ele>271</ele>
        <time>2022-05-21 10:22:22</time>
      </trkpt>
      <trkpt lat="42.28803" lon="3.22161">
        <ele>271.2</ele>
        <time>2022-05-21 10:22:23</time>
      </trkpt>
      <trkpt lat="42.28796" lon="3.22163">
        <ele>271.2</ele>
        <time>2022-05-21 10:22:24</time>
      </trkpt>
      <trkpt lat="42.28789" lon="3.22165">
        <ele>271.2</ele>
        <time>2022-05-21 10:22:25</time>
      </trkpt>
      <trkpt lat="42.28783" lon="3.22166">
        <ele>271</ele>
        <time>2022-05-21 10:22:26</time>
      </trkpt>
      <trkpt lat="42.28776" lon="3.22168">
        <ele>271</ele>
        <time>2022-05-21 10:22:27</time>
      </trkpt>
      <trkpt lat="42.28769" lon="3.2217">
        <ele>270.8</ele>
        <time>2022-05-21 10:22:28</time>
      </trkpt>
      <trkpt lat="42.28763" lon="3.22171">
        <ele>271</ele>
        <time>2022-05-21 10:22:29</time>
      </trkpt>
      <trkpt lat="42.28756" lon="3.22173">
        <ele>271</ele>
        <time>2022-05-21 10:22:30</time>
      </trkpt>
      <trkpt lat="42.2875" lon="3.22174">
        <ele>271</ele>
        <time>2022-05-21 10:22:31</time>
      </trkpt>
      <trkpt lat="42.28743" lon="3.22176">
        <ele>270.8</ele>
        <time>2022-05-21 10:22:32</time>
      </trkpt>
      <trkpt lat="42.28737" lon="3.22177">
        <ele>270.8</ele>
        <time>2022-05-21 10:22:33</time>
      </trkpt>
      <trkpt lat="42.28731" lon="3.22179">
        <ele>270.8</ele>
        <time>2022-05-21 10:22:34</time>
      </trkpt>
      <trkpt lat="42.28724" lon="3.22181">
        <ele>270.8</ele>
        <time>2022-05-21 10:22:35</time>
      </trkpt>
      <trkpt lat="42.28718" lon="3.22183">
        <ele>270.8</ele>
        <time>2022-05-21 10:22:36</time>
      </trkpt>
      <trkpt lat="42.28713" lon="3.22187">
        <ele>270.8</ele>
        <time>2022-05-21 10:22:37</time>
      </trkpt>
      <trkpt lat="42.28709" lon="3.22192">
        <ele>270.8</ele>
        <time>2022-05-21 10:22:38</time>
      </trkpt>
      <trkpt lat="42.28707" lon="3.222">
        <ele>270.8</ele>
        <time>2022-05-21 10:22:39</time>
      </trkpt>
      <trkpt lat="42.28707" lon="3.22208">
        <ele>270.8</ele>
        <time>2022-05-21 10:22:40</time>
      </trkpt>
      <trkpt lat="42.28709" lon="3.22215">
        <ele>270.8</ele>
        <time>2022-05-21 10:22:41</time>
      </trkpt>
      <trkpt lat="42.28713" lon="3.22222">
        <ele>270.8</ele>
        <time>2022-05-21 10:22:42</time>
      </trkpt>
      <trkpt lat="42.28719" lon="3.22226">
        <ele>270.8</ele>
        <time>2022-05-21 10:22:43</time>
      </trkpt>
      <trkpt lat="42.28724" lon="3.2223">
        <ele>270.8</ele>
        <time>2022-05-21 10:22:44</time>
      </trkpt>
      <trkpt lat="42.2873" lon="3.22232">
        <ele>270.8</ele>
        <time>2022-05-21 10:22:45</time>
      </trkpt>
      <trkpt lat="42.28737" lon="3.22234">
        <ele>270.8</ele>
        <time>2022-05-21 10:22:46</time>
      </trkpt>
      <trkpt lat="42.28743" lon="3.22235">
        <ele>270.8</ele>
        <time>2022-05-21 10:22:47</time>
      </trkpt>
      <trkpt lat="42.2875" lon="3.22236">
        <ele>270.6</ele>
        <time>2022-05-21 10:22:48</time>
      </trkpt>
      <trkpt lat="42.28756" lon="3.22237">
        <ele>270.6</ele>
        <time>2022-05-21 10:22:49</time>
      </trkpt>
      <trkpt lat="42.28763" lon="3.22238">
        <ele>270.6</ele>
        <time>2022-05-21 10:22:50</time>
      </trkpt>
      <trkpt lat="42.28769" lon="3.22239">
        <ele>270.6</ele>
        <time>2022-05-21 10:22:51</time>
      </trkpt>
      <trkpt lat="42.28775" lon="3.2224">
        <ele>270.6</ele>
        <time>2022-05-21 10:22:52</time>
      </trkpt>
      <trkpt lat="42.28783" lon="3.2224">
        <ele>270.6</ele>
        <time>2022-05-21 10:22:53</time>
      </trkpt>
      <trkpt lat="42.2879" lon="3.22241">
        <ele>270.6</ele>
        <time>2022-05-21 10:22:54</time>
      </trkpt>
      <trkpt lat="42.28797" lon="3.22242">
        <ele>270.4</ele>
        <time>2022-05-21 10:22:55</time>
      </trkpt>
      <trkpt lat="42.28804" lon="3.22243">
        <ele>270.2</ele>
        <time>2022-05-21 10:22:56</time>
      </trkpt>
      <trkpt lat="42.28811" lon="3.22244">
        <ele>270</ele>
        <time>2022-05-21 10:22:57</time>
      </trkpt>
      <trkpt lat="42.28818" lon="3.22245">
        <ele>270</ele>
        <time>2022-05-21 10:22:58</time>
      </trkpt>
      <trkpt lat="42.28825" lon="3.22245">
        <ele>269.8</ele>
        <time>2022-05-21 10:22:59</time>
      </trkpt>
      <trkpt lat="42.28832" lon="3.22246">
        <ele>269.8</ele>
        <time>2022-05-21 10:23:00</time>
      </trkpt>
      <trkpt lat="42.28839" lon="3.22247">
        <ele>269.6</ele>
        <time>2022-05-21 10:23:01</time>
      </trkpt>
      <trkpt lat="42.28846" lon="3.22248">
        <ele>269.4</ele>
        <time>2022-05-21 10:23:02</time>
      </trkpt>
      <trkpt lat="42.28853" lon="3.22249">
        <ele>269.4</ele>
        <time>2022-05-21 10:23:03</time>
      </trkpt>
      <trkpt lat="42.2886" lon="3.2225">
        <ele>269.2</ele>
        <time>2022-05-21 10:23:04</time>
      </trkpt>
      <trkpt lat="42.28868" lon="3.22251">
        <ele>269</ele>
        <time>2022-05-21 10:23:05</time>
      </trkpt>
      <trkpt lat="42.28875" lon="3.22253">
        <ele>268.8</ele>
        <time>2022-05-21 10:23:06</time>
      </trkpt>
      <trkpt lat="42.28882" lon="3.22255">
        <ele>268.6</ele>
        <time>2022-05-21 10:23:07</time>
      </trkpt>
      <trkpt lat="42.28889" lon="3.22259">
        <ele>268.4</ele>
        <time>2022-05-21 10:23:08</time>
      </trkpt>
      <trkpt lat="42.28895" lon="3.22262">
        <ele>268.2</ele>
        <time>2022-05-21 10:23:09</time>
      </trkpt>
      <trkpt lat="42.28902" lon="3.22266">
        <ele>268</ele>
        <time>2022-05-21 10:23:10</time>
      </trkpt>
      <trkpt lat="42.2891" lon="3.2227">
        <ele>267.8</ele>
        <time>2022-05-21 10:23:11</time>
      </trkpt>
      <trkpt lat="42.28917" lon="3.22273">
        <ele>267.6</ele>
        <time>2022-05-21 10:23:12</time>
      </trkpt>
      <trkpt lat="42.28924" lon="3.22277">
        <ele>267.4</ele>
        <time>2022-05-21 10:23:13</time>
      </trkpt>
      <trkpt lat="42.28931" lon="3.22281">
        <ele>267.2</ele>
        <time>2022-05-21 10:23:14</time>
      </trkpt>
      <trkpt lat="42.28938" lon="3.22284">
        <ele>267</ele>
        <time>2022-05-21 10:23:15</time>
      </trkpt>
      <trkpt lat="42.28945" lon="3.22287">
        <ele>267</ele>
        <time>2022-05-21 10:23:16</time>
      </trkpt>
      <trkpt lat="42.28952" lon="3.22289">
        <ele>266.8</ele>
        <time>2022-05-21 10:23:17</time>
      </trkpt>
      <trkpt lat="42.28959" lon="3.22292">
        <ele>266.6</ele>
        <time>2022-05-21 10:23:18</time>
      </trkpt>
      <trkpt lat="42.28967" lon="3.22294">
        <ele>266.6</ele>
        <time>2022-05-21 10:23:19</time>
      </trkpt>
      <trkpt lat="42.28974" lon="3.22295">
        <ele>266.4</ele>
        <time>2022-05-21 10:23:20</time>
      </trkpt>
      <trkpt lat="42.28981" lon="3.22297">
        <ele>266.2</ele>
        <time>2022-05-21 10:23:21</time>
      </trkpt>
      <trkpt lat="42.28988" lon="3.22298">
        <ele>266</ele>
        <time>2022-05-21 10:23:22</time>
      </trkpt>
      <trkpt lat="42.28996" lon="3.22299">
        <ele>266</ele>
        <time>2022-05-21 10:23:23</time>
      </trkpt>
      <trkpt lat="42.29003" lon="3.22301">
        <ele>265.8</ele>
        <time>2022-05-21 10:23:24</time>
      </trkpt>
      <trkpt lat="42.2901" lon="3.22303">
        <ele>265.8</ele>
        <time>2022-05-21 10:23:25</time>
      </trkpt>
      <trkpt lat="42.29018" lon="3.22304">
        <ele>265.6</ele>
        <time>2022-05-21 10:23:26</time>
      </trkpt>
      <trkpt lat="42.29025" lon="3.22306">
        <ele>265.6</ele>
        <time>2022-05-21 10:23:27</time>
      </trkpt>
      <trkpt lat="42.29031" lon="3.22308">
        <ele>265.4</ele>
        <time>2022-05-21 10:23:28</time>
      </trkpt>
      <trkpt lat="42.29039" lon="3.22311">
        <ele>265.4</ele>
        <time>2022-05-21 10:23:29</time>
      </trkpt>
      <trkpt lat="42.29046" lon="3.22315">
        <ele>265.2</ele>
        <time>2022-05-21 10:23:30</time>
      </trkpt>
      <trkpt lat="42.29053" lon="3.22318">
        <ele>265</ele>
        <time>2022-05-21 10:23:31</time>
      </trkpt>
      <trkpt lat="42.29059" lon="3.22322">
        <ele>265</ele>
        <time>2022-05-21 10:23:32</time>
      </trkpt>
      <trkpt lat="42.29066" lon="3.22325">
        <ele>264.8</ele>
        <time>2022-05-21 10:23:33</time>
      </trkpt>
      <trkpt lat="42.29072" lon="3.22328">
        <ele>264.8</ele>
        <time>2022-05-21 10:23:34</time>
      </trkpt>
      <trkpt lat="42.29079" lon="3.22332">
        <ele>264.8</ele>
        <time>2022-05-21 10:23:35</time>
      </trkpt>
      <trkpt lat="42.29086" lon="3.22336">
        <ele>264.6</ele>
        <time>2022-05-21 10:23:36</time>
      </trkpt>
      <trkpt lat="42.29092" lon="3.22339">
        <ele>264.6</ele>
        <time>2022-05-21 10:23:37</time>
      </trkpt>
      <trkpt lat="42.29099" lon="3.22342">
        <ele>264.6</ele>
        <time>2022-05-21 10:23:38</time>
      </trkpt>
      <trkpt lat="42.29106" lon="3.22346">
        <ele>264.4</ele>
        <time>2022-05-21 10:23:39</time>
      </trkpt>
      <trkpt lat="42.29112" lon="3.22349">
        <ele>264.4</ele>
        <time>2022-05-21 10:23:40</time>
      </trkpt>
      <trkpt lat="42.29119" lon="3.22353">
        <ele>264.4</ele>
        <time>2022-05-21 10:23:41</time>
      </trkpt>
      <trkpt lat="42.29126" lon="3.22356">
        <ele>264.4</ele>
        <time>2022-05-21 10:23:42</time>
      </trkpt>
      <trkpt lat="42.29133" lon="3.22359">
        <ele>264.2</ele>
        <time>2022-05-21 10:23:43</time>
      </trkpt>
      <trkpt lat="42.29139" lon="3.22363">
        <ele>264.2</ele>
        <time>2022-05-21 10:23:44</time>
      </trkpt>
      <trkpt lat="42.29146" lon="3.22366">
        <ele>264.2</ele>
        <time>2022-05-21 10:23:45</time>
      </trkpt>
      <trkpt lat="42.29153" lon="3.2237">
        <ele>264</ele>
        <time>2022-05-21 10:23:46</time>
      </trkpt>
      <trkpt lat="42.2916" lon="3.22373">
        <ele>264</ele>
        <time>2022-05-21 10:23:47</time>
      </trkpt>
      <trkpt lat="42.29167" lon="3.22377">
        <ele>263.8</ele>
        <time>2022-05-21 10:23:48</time>
      </trkpt>
      <trkpt lat="42.29173" lon="3.22381">
        <ele>263.8</ele>
        <time>2022-05-21 10:23:49</time>
      </trkpt>
      <trkpt lat="42.2918" lon="3.22385">
        <ele>263.8</ele>
        <time>2022-05-21 10:23:50</time>
      </trkpt>
      <trkpt lat="42.29187" lon="3.2239">
        <ele>263.6</ele>
        <time>2022-05-21 10:23:51</time>
      </trkpt>
      <trkpt lat="42.29194" lon="3.22395">
        <ele>263.6</ele>
        <time>2022-05-21 10:23:52</time>
      </trkpt>
      <trkpt lat="42.29199" lon="3.22401">
        <ele>263.6</ele>
        <time>2022-05-21 10:23:53</time>
      </trkpt>
      <trkpt lat="42.29205" lon="3.22407">
        <ele>263.4</ele>
        <time>2022-05-21 10:23:54</time>
      </trkpt>
      <trkpt lat="42.2921" lon="3.22414">
        <ele>263.4</ele>
        <time>2022-05-21 10:23:55</time>
      </trkpt>
      <trkpt lat="42.29216" lon="3.22421">
        <ele>263.2</ele>
        <time>2022-05-21 10:23:56</time>
      </trkpt>
      <trkpt lat="42.29221" lon="3.22428">
        <ele>263.2</ele>
        <time>2022-05-21 10:23:57</time>
      </trkpt>
      <trkpt lat="42.29225" lon="3.22435">
        <ele>263</ele>
        <time>2022-05-21 10:23:58</time>
      </trkpt>
      <trkpt lat="42.29229" lon="3.22443">
        <ele>263</ele>
        <time>2022-05-21 10:23:59</time>
      </trkpt>
      <trkpt lat="42.29233" lon="3.22451">
        <ele>262.8</ele>
        <time>2022-05-21 10:24:00</time>
      </trkpt>
      <trkpt lat="42.29236" lon="3.22461">
        <ele>262.8</ele>
        <time>2022-05-21 10:24:01</time>
      </trkpt>
      <trkpt lat="42.29238" lon="3.2247">
        <ele>262.8</ele>
        <time>2022-05-21 10:24:02</time>
      </trkpt>
      <trkpt lat="42.2924" lon="3.22479">
        <ele>262.8</ele>
        <time>2022-05-21 10:24:03</time>
      </trkpt>
      <trkpt lat="42.29242" lon="3.22489">
        <ele>262.8</ele>
        <time>2022-05-21 10:24:04</time>
      </trkpt>
      <trkpt lat="42.29243" lon="3.22498">
        <ele>262.8</ele>
        <time>2022-05-21 10:24:05</time>
      </trkpt>
      <trkpt lat="42.29245" lon="3.22507">
        <ele>262.6</ele>
        <time>2022-05-21 10:24:06</time>
      </trkpt>
      <trkpt lat="42.29246" lon="3.22516">
        <ele>262.4</ele>
        <time>2022-05-21 10:24:07</time>
      </trkpt>
      <trkpt lat="42.29249" lon="3.22524">
        <ele>262.4</ele>
        <time>2022-05-21 10:24:08</time>
      </trkpt>
      <trkpt lat="42.29253" lon="3.22531">
        <ele>262.4</ele>
        <time>2022-05-21 10:24:09</time>
      </trkpt>
      <trkpt lat="42.29258" lon="3.22537">
        <ele>262.2</ele>
        <time>2022-05-21 10:24:10</time>
      </trkpt>
      <trkpt lat="42.29265" lon="3.2254">
        <ele>262.2</ele>
        <time>2022-05-21 10:24:11</time>
      </trkpt>
      <trkpt lat="42.29272" lon="3.22541">
        <ele>262</ele>
        <time>2022-05-21 10:24:12</time>
      </trkpt>
      <trkpt lat="42.29279" lon="3.2254">
        <ele>261.8</ele>
        <time>2022-05-21 10:24:13</time>
      </trkpt>
      <trkpt lat="42.29286" lon="3.22539">
        <ele>261.8</ele>
        <time>2022-05-21 10:24:14</time>
      </trkpt>
      <trkpt lat="42.29293" lon="3.22538">
        <ele>261.6</ele>
        <time>2022-05-21 10:24:15</time>
      </trkpt>
      <trkpt lat="42.29301" lon="3.22536">
        <ele>261.6</ele>
        <time>2022-05-21 10:24:16</time>
      </trkpt>
      <trkpt lat="42.29308" lon="3.22535">
        <ele>261.4</ele>
        <time>2022-05-21 10:24:17</time>
      </trkpt>
      <trkpt lat="42.29315" lon="3.22534">
        <ele>261.2</ele>
        <time>2022-05-21 10:24:18</time>
      </trkpt>
      <trkpt lat="42.29323" lon="3.22533">
        <ele>261.2</ele>
        <time>2022-05-21 10:24:19</time>
      </trkpt>
      <trkpt lat="42.2933" lon="3.22532">
        <ele>261</ele>
        <time>2022-05-21 10:24:20</time>
      </trkpt>
      <trkpt lat="42.29337" lon="3.22534">
        <ele>261</ele>
        <time>2022-05-21 10:24:21</time>
      </trkpt>
      <trkpt lat="42.29344" lon="3.22538">
        <ele>260.8</ele>
        <time>2022-05-21 10:24:22</time>
      </trkpt>
      <trkpt lat="42.29349" lon="3.22544">
        <ele>260.6</ele>
        <time>2022-05-21 10:24:23</time>
      </trkpt>
      <trkpt lat="42.29354" lon="3.22551">
        <ele>260.6</ele>
        <time>2022-05-21 10:24:24</time>
      </trkpt>
      <trkpt lat="42.29359" lon="3.22559">
        <ele>260.6</ele>
        <time>2022-05-21 10:24:25</time>
      </trkpt>
      <trkpt lat="42.29363" lon="3.22567">
        <ele>260.4</ele>
        <time>2022-05-21 10:24:26</time>
      </trkpt>
      <trkpt lat="42.29366" lon="3.22575">
        <ele>260.2</ele>
        <time>2022-05-21 10:24:27</time>
      </trkpt>
      <trkpt lat="42.29369" lon="3.22583">
        <ele>260</ele>
        <time>2022-05-21 10:24:28</time>
      </trkpt>
      <trkpt lat="42.29373" lon="3.22594">
        <ele>260</ele>
        <time>2022-05-21 10:24:29</time>
      </trkpt>
      <trkpt lat="42.29375" lon="3.22603">
        <ele>259.8</ele>
        <time>2022-05-21 10:24:30</time>
      </trkpt>
      <trkpt lat="42.29377" lon="3.22614">
        <ele>259.8</ele>
        <time>2022-05-21 10:24:31</time>
      </trkpt>
      <trkpt lat="42.2938" lon="3.22624">
        <ele>259.6</ele>
        <time>2022-05-21 10:24:32</time>
      </trkpt>
      <trkpt lat="42.29382" lon="3.22634">
        <ele>259.6</ele>
        <time>2022-05-21 10:24:33</time>
      </trkpt>
      <trkpt lat="42.29385" lon="3.22643">
        <ele>259.4</ele>
        <time>2022-05-21 10:24:34</time>
      </trkpt>
      <trkpt lat="42.29387" lon="3.22653">
        <ele>259.4</ele>
        <time>2022-05-21 10:24:35</time>
      </trkpt>
      <trkpt lat="42.29389" lon="3.22663">
        <ele>259.4</ele>
        <time>2022-05-21 10:24:36</time>
      </trkpt>
      <trkpt lat="42.29391" lon="3.22672">
        <ele>259.2</ele>
        <time>2022-05-21 10:24:37</time>
      </trkpt>
      <trkpt lat="42.29393" lon="3.22682">
        <ele>259.2</ele>
        <time>2022-05-21 10:24:38</time>
      </trkpt>
      <trkpt lat="42.29393" lon="3.22692">
        <ele>259.2</ele>
        <time>2022-05-21 10:24:39</time>
      </trkpt>
      <trkpt lat="42.29393" lon="3.22702">
        <ele>259.2</ele>
        <time>2022-05-21 10:24:40</time>
      </trkpt>
      <trkpt lat="42.29393" lon="3.22712">
        <ele>259.2</ele>
        <time>2022-05-21 10:24:41</time>
      </trkpt>
      <trkpt lat="42.29392" lon="3.22722">
        <ele>259</ele>
        <time>2022-05-21 10:24:42</time>
      </trkpt>
      <trkpt lat="42.29391" lon="3.22732">
        <ele>258.8</ele>
        <time>2022-05-21 10:24:43</time>
      </trkpt>
      <trkpt lat="42.2939" lon="3.22741">
        <ele>258.8</ele>
        <time>2022-05-21 10:24:44</time>
      </trkpt>
      <trkpt lat="42.2939" lon="3.22751">
        <ele>258.8</ele>
        <time>2022-05-21 10:24:45</time>
      </trkpt>
      <trkpt lat="42.29389" lon="3.2276">
        <ele>258.6</ele>
        <time>2022-05-21 10:24:46</time>
      </trkpt>
      <trkpt lat="42.29388" lon="3.2277">
        <ele>258.6</ele>
        <time>2022-05-21 10:24:47</time>
      </trkpt>
      <trkpt lat="42.29387" lon="3.22779">
        <ele>258.4</ele>
        <time>2022-05-21 10:24:48</time>
      </trkpt>
      <trkpt lat="42.29386" lon="3.22788">
        <ele>258.2</ele>
        <time>2022-05-21 10:24:49</time>
      </trkpt>
      <trkpt lat="42.29386" lon="3.22798">
        <ele>258.2</ele>
        <time>2022-05-21 10:24:50</time>
      </trkpt>
      <trkpt lat="42.29385" lon="3.22807">
        <ele>258</ele>
        <time>2022-05-21 10:24:51</time>
      </trkpt>
      <trkpt lat="42.29384" lon="3.22816">
        <ele>258</ele>
        <time>2022-05-21 10:24:52</time>
      </trkpt>
      <trkpt lat="42.29384" lon="3.22826">
        <ele>257.8</ele>
        <time>2022-05-21 10:24:53</time>
      </trkpt>
      <trkpt lat="42.29383" lon="3.22835">
        <ele>257.8</ele>
        <time>2022-05-21 10:24:54</time>
      </trkpt>
      <trkpt lat="42.29382" lon="3.22844">
        <ele>257.6</ele>
        <time>2022-05-21 10:24:55</time>
      </trkpt>
      <trkpt lat="42.29381" lon="3.22853">
        <ele>257.6</ele>
        <time>2022-05-21 10:24:56</time>
      </trkpt>
      <trkpt lat="42.2938" lon="3.22862">
        <ele>257.4</ele>
        <time>2022-05-21 10:24:57</time>
      </trkpt>
      <trkpt lat="42.29379" lon="3.22871">
        <ele>257.2</ele>
        <time>2022-05-21 10:24:58</time>
      </trkpt>
      <trkpt lat="42.29378" lon="3.2288">
        <ele>257</ele>
        <time>2022-05-21 10:24:59</time>
      </trkpt>
      <trkpt lat="42.29377" lon="3.22889">
        <ele>256.8</ele>
        <time>2022-05-21 10:25:00</time>
      </trkpt>
      <trkpt lat="42.29376" lon="3.22897">
        <ele>256.6</ele>
        <time>2022-05-21 10:25:01</time>
      </trkpt>
      <trkpt lat="42.29373" lon="3.22906">
        <ele>256.2</ele>
        <time>2022-05-21 10:25:02</time>
      </trkpt>
      <trkpt lat="42.29368" lon="3.22914">
        <ele>256</ele>
        <time>2022-05-21 10:25:03</time>
      </trkpt>
      <trkpt lat="42.29363" lon="3.22922">
        <ele>255.6</ele>
        <time>2022-05-21 10:25:04</time>
      </trkpt>
      <trkpt lat="42.29356" lon="3.22929">
        <ele>255</ele>
        <time>2022-05-21 10:25:05</time>
      </trkpt>
      <trkpt lat="42.29349" lon="3.22937">
        <ele>254.6</ele>
        <time>2022-05-21 10:25:06</time>
      </trkpt>
      <trkpt lat="42.29341" lon="3.22945">
        <ele>254</ele>
        <time>2022-05-21 10:25:07</time>
      </trkpt>
      <trkpt lat="42.29334" lon="3.22952">
        <ele>253.6</ele>
        <time>2022-05-21 10:25:08</time>
      </trkpt>
      <trkpt lat="42.29327" lon="3.2296">
        <ele>253</ele>
        <time>2022-05-21 10:25:09</time>
      </trkpt>
      <trkpt lat="42.2932" lon="3.22968">
        <ele>252.6</ele>
        <time>2022-05-21 10:25:10</time>
      </trkpt>
      <trkpt lat="42.29312" lon="3.22976">
        <ele>252</ele>
        <time>2022-05-21 10:25:11</time>
      </trkpt>
      <trkpt lat="42.29305" lon="3.22984">
        <ele>251.2</ele>
        <time>2022-05-21 10:25:12</time>
      </trkpt>
      <trkpt lat="42.29297" lon="3.22992">
        <ele>250.8</ele>
        <time>2022-05-21 10:25:13</time>
      </trkpt>
      <trkpt lat="42.2929" lon="3.23">
        <ele>250.2</ele>
        <time>2022-05-21 10:25:14</time>
      </trkpt>
      <trkpt lat="42.29282" lon="3.23008">
        <ele>249.6</ele>
        <time>2022-05-21 10:25:15</time>
      </trkpt>
      <trkpt lat="42.29274" lon="3.23016">
        <ele>248.8</ele>
        <time>2022-05-21 10:25:16</time>
      </trkpt>
      <trkpt lat="42.29265" lon="3.23023">
        <ele>248.2</ele>
        <time>2022-05-21 10:25:17</time>
      </trkpt>
      <trkpt lat="42.29256" lon="3.23029">
        <ele>247.4</ele>
        <time>2022-05-21 10:25:18</time>
      </trkpt>
      <trkpt lat="42.29247" lon="3.23035">
        <ele>246.8</ele>
        <time>2022-05-21 10:25:19</time>
      </trkpt>
      <trkpt lat="42.29238" lon="3.2304">
        <ele>246.2</ele>
        <time>2022-05-21 10:25:20</time>
      </trkpt>
      <trkpt lat="42.29227" lon="3.23045">
        <ele>245.4</ele>
        <time>2022-05-21 10:25:21</time>
      </trkpt>
      <trkpt lat="42.29217" lon="3.23046">
        <ele>244.8</ele>
        <time>2022-05-21 10:25:22</time>
      </trkpt>
      <trkpt lat="42.29207" lon="3.23046">
        <ele>244</ele>
        <time>2022-05-21 10:25:23</time>
      </trkpt>
      <trkpt lat="42.29196" lon="3.23045">
        <ele>243.6</ele>
        <time>2022-05-21 10:25:24</time>
      </trkpt>
      <trkpt lat="42.29185" lon="3.23045">
        <ele>243.2</ele>
        <time>2022-05-21 10:25:25</time>
      </trkpt>
      <trkpt lat="42.29175" lon="3.23046">
        <ele>242.8</ele>
        <time>2022-05-21 10:25:26</time>
      </trkpt>
      <trkpt lat="42.29166" lon="3.2305">
        <ele>242.4</ele>
        <time>2022-05-21 10:25:27</time>
      </trkpt>
      <trkpt lat="42.2916" lon="3.23058">
        <ele>242.2</ele>
        <time>2022-05-21 10:25:28</time>
      </trkpt>
      <trkpt lat="42.29158" lon="3.2307">
        <ele>242</ele>
        <time>2022-05-21 10:25:29</time>
      </trkpt>
      <trkpt lat="42.29159" lon="3.23081">
        <ele>242</ele>
        <time>2022-05-21 10:25:30</time>
      </trkpt>
      <trkpt lat="42.29162" lon="3.23092">
        <ele>242</ele>
        <time>2022-05-21 10:25:31</time>
      </trkpt>
      <trkpt lat="42.29167" lon="3.231">
        <ele>242</ele>
        <time>2022-05-21 10:25:32</time>
      </trkpt>
      <trkpt lat="42.29172" lon="3.23107">
        <ele>242.2</ele>
        <time>2022-05-21 10:25:33</time>
      </trkpt>
      <trkpt lat="42.2918" lon="3.23116">
        <ele>242.2</ele>
        <time>2022-05-21 10:25:34</time>
      </trkpt>
      <trkpt lat="42.29186" lon="3.23123">
        <ele>242.4</ele>
        <time>2022-05-21 10:25:35</time>
      </trkpt>
      <trkpt lat="42.29192" lon="3.2313">
        <ele>242.4</ele>
        <time>2022-05-21 10:25:36</time>
      </trkpt>
      <trkpt lat="42.29196" lon="3.23139">
        <ele>242.4</ele>
        <time>2022-05-21 10:25:37</time>
      </trkpt>
      <trkpt lat="42.29199" lon="3.23149">
        <ele>242.2</ele>
        <time>2022-05-21 10:25:38</time>
      </trkpt>
      <trkpt lat="42.292" lon="3.23159">
        <ele>242.2</ele>
        <time>2022-05-21 10:25:39</time>
      </trkpt>
      <trkpt lat="42.292" lon="3.2317">
        <ele>242</ele>
        <time>2022-05-21 10:25:40</time>
      </trkpt>
      <trkpt lat="42.29198" lon="3.23179">
        <ele>241.8</ele>
        <time>2022-05-21 10:25:41</time>
      </trkpt>
      <trkpt lat="42.29195" lon="3.23188">
        <ele>241.8</ele>
        <time>2022-05-21 10:25:42</time>
      </trkpt>
      <trkpt lat="42.29191" lon="3.23195">
        <ele>241.6</ele>
        <time>2022-05-21 10:25:43</time>
      </trkpt>
      <trkpt lat="42.29186" lon="3.23203">
        <ele>241.6</ele>
        <time>2022-05-21 10:25:44</time>
      </trkpt>
      <trkpt lat="42.29181" lon="3.23209">
        <ele>241.6</ele>
        <time>2022-05-21 10:25:45</time>
      </trkpt>
      <trkpt lat="42.29175" lon="3.23214">
        <ele>241.6</ele>
        <time>2022-05-21 10:25:46</time>
      </trkpt>
      <trkpt lat="42.29169" lon="3.23219">
        <ele>241.6</ele>
        <time>2022-05-21 10:25:47</time>
      </trkpt>
      <trkpt lat="42.29162" lon="3.23224">
        <ele>241.6</ele>
        <time>2022-05-21 10:25:48</time>
      </trkpt>
      <trkpt lat="42.29156" lon="3.23229">
        <ele>241.6</ele>
        <time>2022-05-21 10:25:49</time>
      </trkpt>
      <trkpt lat="42.2915" lon="3.23234">
        <ele>241.6</ele>
        <time>2022-05-21 10:25:50</time>
      </trkpt>
      <trkpt lat="42.29144" lon="3.23239">
        <ele>241.6</ele>
        <time>2022-05-21 10:25:51</time>
      </trkpt>
      <trkpt lat="42.29139" lon="3.23245">
        <ele>241.6</ele>
        <time>2022-05-21 10:25:52</time>
      </trkpt>
      <trkpt lat="42.29134" lon="3.23253">
        <ele>241.8</ele>
        <time>2022-05-21 10:25:53</time>
      </trkpt>
      <trkpt lat="42.29132" lon="3.23261">
        <ele>241.8</ele>
        <time>2022-05-21 10:25:54</time>
      </trkpt>
      <trkpt lat="42.29131" lon="3.2327">
        <ele>241.8</ele>
        <time>2022-05-21 10:25:55</time>
      </trkpt>
      <trkpt lat="42.29131" lon="3.23279">
        <ele>241.8</ele>
        <time>2022-05-21 10:25:56</time>
      </trkpt>
      <trkpt lat="42.29132" lon="3.23288">
        <ele>241.8</ele>
        <time>2022-05-21 10:25:57</time>
      </trkpt>
      <trkpt lat="42.29134" lon="3.23298">
        <ele>241.8</ele>
        <time>2022-05-21 10:25:58</time>
      </trkpt>
      <trkpt lat="42.29137" lon="3.23307">
        <ele>241.6</ele>
        <time>2022-05-21 10:25:59</time>
      </trkpt>
      <trkpt lat="42.2914" lon="3.23316">
        <ele>241.6</ele>
        <time>2022-05-21 10:26:00</time>
      </trkpt>
      <trkpt lat="42.29144" lon="3.23323">
        <ele>241.6</ele>
        <time>2022-05-21 10:26:01</time>
      </trkpt>
      <trkpt lat="42.2915" lon="3.23329">
        <ele>241.6</ele>
        <time>2022-05-21 10:26:02</time>
      </trkpt>
      <trkpt lat="42.29157" lon="3.23334">
        <ele>241.6</ele>
        <time>2022-05-21 10:26:03</time>
      </trkpt>
      <trkpt lat="42.29164" lon="3.23336">
        <ele>241.6</ele>
        <time>2022-05-21 10:26:04</time>
      </trkpt>
      <trkpt lat="42.29171" lon="3.23336">
        <ele>241.6</ele>
        <time>2022-05-21 10:26:05</time>
      </trkpt>
      <trkpt lat="42.29178" lon="3.23335">
        <ele>241.6</ele>
        <time>2022-05-21 10:26:06</time>
      </trkpt>
      <trkpt lat="42.29185" lon="3.23334">
        <ele>241.6</ele>
        <time>2022-05-21 10:26:07</time>
      </trkpt>
      <trkpt lat="42.29192" lon="3.23331">
        <ele>241.6</ele>
        <time>2022-05-21 10:26:08</time>
      </trkpt>
      <trkpt lat="42.29199" lon="3.23329">
        <ele>241.4</ele>
        <time>2022-05-21 10:26:09</time>
      </trkpt>
      <trkpt lat="42.29207" lon="3.23327">
        <ele>241.6</ele>
        <time>2022-05-21 10:26:10</time>
      </trkpt>
      <trkpt lat="42.29214" lon="3.23326">
        <ele>241.6</ele>
        <time>2022-05-21 10:26:11</time>
      </trkpt>
      <trkpt lat="42.29221" lon="3.23324">
        <ele>241.6</ele>
        <time>2022-05-21 10:26:12</time>
      </trkpt>
      <trkpt lat="42.29229" lon="3.23322">
        <ele>241.6</ele>
        <time>2022-05-21 10:26:13</time>
      </trkpt>
      <trkpt lat="42.29237" lon="3.2332">
        <ele>241.6</ele>
        <time>2022-05-21 10:26:14</time>
      </trkpt>
      <trkpt lat="42.29245" lon="3.23318">
        <ele>241.6</ele>
        <time>2022-05-21 10:26:15</time>
      </trkpt>
      <trkpt lat="42.29252" lon="3.23316">
        <ele>241.6</ele>
        <time>2022-05-21 10:26:16</time>
      </trkpt>
      <trkpt lat="42.29259" lon="3.23315">
        <ele>241.6</ele>
        <time>2022-05-21 10:26:17</time>
      </trkpt>
      <trkpt lat="42.29267" lon="3.23315">
        <ele>241.8</ele>
        <time>2022-05-21 10:26:18</time>
      </trkpt>
      <trkpt lat="42.29274" lon="3.23316">
        <ele>241.8</ele>
        <time>2022-05-21 10:26:19</time>
      </trkpt>
      <trkpt lat="42.29282" lon="3.23317">
        <ele>241.8</ele>
        <time>2022-05-21 10:26:20</time>
      </trkpt>
      <trkpt lat="42.29289" lon="3.23319">
        <ele>241.8</ele>
        <time>2022-05-21 10:26:21</time>
      </trkpt>
      <trkpt lat="42.29297" lon="3.2332">
        <ele>241.8</ele>
        <time>2022-05-21 10:26:22</time>
      </trkpt>
      <trkpt lat="42.29304" lon="3.23321">
        <ele>241.8</ele>
        <time>2022-05-21 10:26:23</time>
      </trkpt>
      <trkpt lat="42.29312" lon="3.23323">
        <ele>241.8</ele>
        <time>2022-05-21 10:26:24</time>
      </trkpt>
      <trkpt lat="42.2932" lon="3.23325">
        <ele>241.8</ele>
        <time>2022-05-21 10:26:25</time>
      </trkpt>
      <trkpt lat="42.29327" lon="3.23327">
        <ele>242</ele>
        <time>2022-05-21 10:26:26</time>
      </trkpt>
      <trkpt lat="42.29334" lon="3.2333">
        <ele>242</ele>
        <time>2022-05-21 10:26:27</time>
      </trkpt>
      <trkpt lat="42.29341" lon="3.23335">
        <ele>242</ele>
        <time>2022-05-21 10:26:28</time>
      </trkpt>
      <trkpt lat="42.29346" lon="3.23342">
        <ele>242.2</ele>
        <time>2022-05-21 10:26:29</time>
      </trkpt>
      <trkpt lat="42.2935" lon="3.2335">
        <ele>242.2</ele>
        <time>2022-05-21 10:26:30</time>
      </trkpt>
      <trkpt lat="42.29354" lon="3.23359">
        <ele>242.2</ele>
        <time>2022-05-21 10:26:31</time>
      </trkpt>
      <trkpt lat="42.29357" lon="3.23368">
        <ele>242.2</ele>
        <time>2022-05-21 10:26:32</time>
      </trkpt>
      <trkpt lat="42.2936" lon="3.23377">
        <ele>242.2</ele>
        <time>2022-05-21 10:26:33</time>
      </trkpt>
      <trkpt lat="42.29363" lon="3.23385">
        <ele>242.2</ele>
        <time>2022-05-21 10:26:34</time>
      </trkpt>
      <trkpt lat="42.29367" lon="3.23394">
        <ele>242.2</ele>
        <time>2022-05-21 10:26:35</time>
      </trkpt>
      <trkpt lat="42.2937" lon="3.23403">
        <ele>242.2</ele>
        <time>2022-05-21 10:26:36</time>
      </trkpt>
      <trkpt lat="42.29374" lon="3.23411">
        <ele>242.2</ele>
        <time>2022-05-21 10:26:37</time>
      </trkpt>
      <trkpt lat="42.29378" lon="3.23417">
        <ele>242.4</ele>
        <time>2022-05-21 10:26:38</time>
      </trkpt>
      <trkpt lat="42.29384" lon="3.23423">
        <ele>242.4</ele>
        <time>2022-05-21 10:26:39</time>
      </trkpt>
      <trkpt lat="42.29391" lon="3.23428">
        <ele>242.4</ele>
        <time>2022-05-21 10:26:40</time>
      </trkpt>
      <trkpt lat="42.29398" lon="3.23432">
        <ele>242.4</ele>
        <time>2022-05-21 10:26:41</time>
      </trkpt>
      <trkpt lat="42.29405" lon="3.23437">
        <ele>242.4</ele>
        <time>2022-05-21 10:26:42</time>
      </trkpt>
      <trkpt lat="42.29412" lon="3.23441">
        <ele>242.4</ele>
        <time>2022-05-21 10:26:43</time>
      </trkpt>
      <trkpt lat="42.29418" lon="3.23445">
        <ele>242.4</ele>
        <time>2022-05-21 10:26:44</time>
      </trkpt>
      <trkpt lat="42.29425" lon="3.2345">
        <ele>242.4</ele>
        <time>2022-05-21 10:26:45</time>
      </trkpt>
      <trkpt lat="42.29432" lon="3.23454">
        <ele>242.4</ele>
        <time>2022-05-21 10:26:46</time>
      </trkpt>
      <trkpt lat="42.29439" lon="3.23459">
        <ele>242.4</ele>
        <time>2022-05-21 10:26:47</time>
      </trkpt>
      <trkpt lat="42.29445" lon="3.23463">
        <ele>242.4</ele>
        <time>2022-05-21 10:26:48</time>
      </trkpt>
      <trkpt lat="42.29452" lon="3.23467">
        <ele>242.4</ele>
        <time>2022-05-21 10:26:49</time>
      </trkpt>
      <trkpt lat="42.29458" lon="3.23471">
        <ele>242.4</ele>
        <time>2022-05-21 10:26:50</time>
      </trkpt>
      <trkpt lat="42.29465" lon="3.23473">
        <ele>242.4</ele>
        <time>2022-05-21 10:26:51</time>
      </trkpt>
      <trkpt lat="42.29472" lon="3.23475">
        <ele>242.6</ele>
        <time>2022-05-21 10:26:52</time>
      </trkpt>
      <trkpt lat="42.2948" lon="3.23474">
        <ele>242.6</ele>
        <time>2022-05-21 10:26:53</time>
      </trkpt>
      <trkpt lat="42.29487" lon="3.23473">
        <ele>242.6</ele>
        <time>2022-05-21 10:26:54</time>
      </trkpt>
      <trkpt lat="42.29494" lon="3.23472">
        <ele>242.6</ele>
        <time>2022-05-21 10:26:55</time>
      </trkpt>
      <trkpt lat="42.29501" lon="3.23471">
        <ele>242.6</ele>
        <time>2022-05-21 10:26:56</time>
      </trkpt>
      <trkpt lat="42.29508" lon="3.23469">
        <ele>242.6</ele>
        <time>2022-05-21 10:26:57</time>
      </trkpt>
      <trkpt lat="42.29516" lon="3.23467">
        <ele>242.8</ele>
        <time>2022-05-21 10:26:58</time>
      </trkpt>
      <trkpt lat="42.29523" lon="3.23466">
        <ele>242.8</ele>
        <time>2022-05-21 10:26:59</time>
      </trkpt>
      <trkpt lat="42.2953" lon="3.23465">
        <ele>242.8</ele>
        <time>2022-05-21 10:27:00</time>
      </trkpt>
      <trkpt lat="42.29537" lon="3.23465">
        <ele>242.8</ele>
        <time>2022-05-21 10:27:01</time>
      </trkpt>
      <trkpt lat="42.29544" lon="3.23466">
        <ele>243</ele>
        <time>2022-05-21 10:27:02</time>
      </trkpt>
      <trkpt lat="42.29551" lon="3.23468">
        <ele>243</ele>
        <time>2022-05-21 10:27:03</time>
      </trkpt>
      <trkpt lat="42.29559" lon="3.23471">
        <ele>243</ele>
        <time>2022-05-21 10:27:04</time>
      </trkpt>
      <trkpt lat="42.29566" lon="3.23474">
        <ele>243</ele>
        <time>2022-05-21 10:27:05</time>
      </trkpt>
      <trkpt lat="42.29573" lon="3.23476">
        <ele>243</ele>
        <time>2022-05-21 10:27:06</time>
      </trkpt>
      <trkpt lat="42.2958" lon="3.23479">
        <ele>243</ele>
        <time>2022-05-21 10:27:07</time>
      </trkpt>
      <trkpt lat="42.29587" lon="3.23481">
        <ele>243.2</ele>
        <time>2022-05-21 10:27:08</time>
      </trkpt>
      <trkpt lat="42.29593" lon="3.23484">
        <ele>243.2</ele>
        <time>2022-05-21 10:27:09</time>
      </trkpt>
      <trkpt lat="42.29601" lon="3.23487">
        <ele>243.2</ele>
        <time>2022-05-21 10:27:10</time>
      </trkpt>
      <trkpt lat="42.29608" lon="3.23489">
        <ele>243.2</ele>
        <time>2022-05-21 10:27:11</time>
      </trkpt>
      <trkpt lat="42.29615" lon="3.23491">
        <ele>243.2</ele>
        <time>2022-05-21 10:27:12</time>
      </trkpt>
      <trkpt lat="42.29622" lon="3.23494">
        <ele>243.2</ele>
        <time>2022-05-21 10:27:13</time>
      </trkpt>
      <trkpt lat="42.29628" lon="3.23496">
        <ele>243.2</ele>
        <time>2022-05-21 10:27:14</time>
      </trkpt>
      <trkpt lat="42.29635" lon="3.23498">
        <ele>243.2</ele>
        <time>2022-05-21 10:27:15</time>
      </trkpt>
      <trkpt lat="42.29642" lon="3.23501">
        <ele>243.2</ele>
        <time>2022-05-21 10:27:16</time>
      </trkpt>
      <trkpt lat="42.29648" lon="3.23503">
        <ele>243.4</ele>
        <time>2022-05-21 10:27:17</time>
      </trkpt>
      <trkpt lat="42.29655" lon="3.23505">
        <ele>243.4</ele>
        <time>2022-05-21 10:27:18</time>
      </trkpt>
      <trkpt lat="42.29661" lon="3.23507">
        <ele>243.4</ele>
        <time>2022-05-21 10:27:19</time>
      </trkpt>
      <trkpt lat="42.29668" lon="3.2351">
        <ele>243.4</ele>
        <time>2022-05-21 10:27:20</time>
      </trkpt>
      <trkpt lat="42.29674" lon="3.23514">
        <ele>243.2</ele>
        <time>2022-05-21 10:27:21</time>
      </trkpt>
      <trkpt lat="42.2968" lon="3.23519">
        <ele>243.2</ele>
        <time>2022-05-21 10:27:22</time>
      </trkpt>
      <trkpt lat="42.29685" lon="3.23525">
        <ele>243</ele>
        <time>2022-05-21 10:27:23</time>
      </trkpt>
      <trkpt lat="42.29689" lon="3.23532">
        <ele>243</ele>
        <time>2022-05-21 10:27:24</time>
      </trkpt>
      <trkpt lat="42.29691" lon="3.2354">
        <ele>243</ele>
        <time>2022-05-21 10:27:25</time>
      </trkpt>
      <trkpt lat="42.29692" lon="3.23548">
        <ele>243</ele>
        <time>2022-05-21 10:27:26</time>
      </trkpt>
      <trkpt lat="42.29691" lon="3.23557">
        <ele>243</ele>
        <time>2022-05-21 10:27:27</time>
      </trkpt>
      <trkpt lat="42.2969" lon="3.23565">
        <ele>242.8</ele>
        <time>2022-05-21 10:27:28</time>
      </trkpt>
      <trkpt lat="42.29688" lon="3.23574">
        <ele>242.8</ele>
        <time>2022-05-21 10:27:29</time>
      </trkpt>
      <trkpt lat="42.29685" lon="3.23582">
        <ele>242.8</ele>
        <time>2022-05-21 10:27:30</time>
      </trkpt>
      <trkpt lat="42.29682" lon="3.23589">
        <ele>242.8</ele>
        <time>2022-05-21 10:27:31</time>
      </trkpt>
      <trkpt lat="42.2968" lon="3.23598">
        <ele>242.8</ele>
        <time>2022-05-21 10:27:32</time>
      </trkpt>
      <trkpt lat="42.29677" lon="3.23605">
        <ele>242.8</ele>
        <time>2022-05-21 10:27:33</time>
      </trkpt>
      <trkpt lat="42.29674" lon="3.23613">
        <ele>242.8</ele>
        <time>2022-05-21 10:27:34</time>
      </trkpt>
      <trkpt lat="42.29671" lon="3.2362">
        <ele>242.8</ele>
        <time>2022-05-21 10:27:35</time>
      </trkpt>
      <trkpt lat="42.29669" lon="3.23628">
        <ele>242.8</ele>
        <time>2022-05-21 10:27:36</time>
      </trkpt>
      <trkpt lat="42.29667" lon="3.23635">
        <ele>242.8</ele>
        <time>2022-05-21 10:27:37</time>
      </trkpt>
      <trkpt lat="42.29667" lon="3.23642">
        <ele>243</ele>
        <time>2022-05-21 10:27:38</time>
      </trkpt>
      <trkpt lat="42.29669" lon="3.23648">
        <ele>243.2</ele>
        <time>2022-05-21 10:27:39</time>
      </trkpt>
      <trkpt lat="42.29673" lon="3.23653">
        <ele>243</ele>
        <time>2022-05-21 10:27:40</time>
      </trkpt>
      <trkpt lat="42.29679" lon="3.23658">
        <ele>242.8</ele>
        <time>2022-05-21 10:27:41</time>
      </trkpt>
      <trkpt lat="42.29685" lon="3.23662">
        <ele>242.4</ele>
        <time>2022-05-21 10:27:42</time>
      </trkpt>
      <trkpt lat="42.29692" lon="3.23667">
        <ele>242</ele>
        <time>2022-05-21 10:27:43</time>
      </trkpt>
      <trkpt lat="42.297" lon="3.2367">
        <ele>241.8</ele>
        <time>2022-05-21 10:27:44</time>
      </trkpt>
      <trkpt lat="42.29708" lon="3.23671">
        <ele>241.4</ele>
        <time>2022-05-21 10:27:45</time>
      </trkpt>
      <trkpt lat="42.29715" lon="3.2367">
        <ele>240.8</ele>
        <time>2022-05-21 10:27:46</time>
      </trkpt>
      <trkpt lat="42.29722" lon="3.23664">
        <ele>240.4</ele>
        <time>2022-05-21 10:27:47</time>
      </trkpt>
      <trkpt lat="42.29727" lon="3.23656">
        <ele>240</ele>
        <time>2022-05-21 10:27:48</time>
      </trkpt>
      <trkpt lat="42.29729" lon="3.23644">
        <ele>239.4</ele>
        <time>2022-05-21 10:27:49</time>
      </trkpt>
      <trkpt lat="42.29733" lon="3.23632">
        <ele>238.8</ele>
        <time>2022-05-21 10:27:50</time>
      </trkpt>
      <trkpt lat="42.29738" lon="3.23621">
        <ele>238.4</ele>
        <time>2022-05-21 10:27:51</time>
      </trkpt>
      <trkpt lat="42.29743" lon="3.23611">
        <ele>237.8</ele>
        <time>2022-05-21 10:27:52</time>
      </trkpt>
      <trkpt lat="42.2975" lon="3.23601">
        <ele>237.2</ele>
        <time>2022-05-21 10:27:53</time>
      </trkpt>
      <trkpt lat="42.29757" lon="3.2359">
        <ele>236.4</ele>
        <time>2022-05-21 10:27:54</time>
      </trkpt>
      <trkpt lat="42.29765" lon="3.2358">
        <ele>235.8</ele>
        <time>2022-05-21 10:27:55</time>
      </trkpt>
      <trkpt lat="42.29772" lon="3.23569">
        <ele>235.2</ele>
        <time>2022-05-21 10:27:56</time>
      </trkpt>
      <trkpt lat="42.29779" lon="3.23558">
        <ele>234.8</ele>
        <time>2022-05-21 10:27:57</time>
      </trkpt>
      <trkpt lat="42.29787" lon="3.23546">
        <ele>234</ele>
        <time>2022-05-21 10:27:58</time>
      </trkpt>
      <trkpt lat="42.29793" lon="3.23533">
        <ele>233.2</ele>
        <time>2022-05-21 10:27:59</time>
      </trkpt>
      <trkpt lat="42.29799" lon="3.23521">
        <ele>232.4</ele>
        <time>2022-05-21 10:28:00</time>
      </trkpt>
      <trkpt lat="42.29804" lon="3.23509">
        <ele>231.6</ele>
        <time>2022-05-21 10:28:01</time>
      </trkpt>
      <trkpt lat="42.2981" lon="3.23491">
        <ele>230.8</ele>
        <time>2022-05-21 10:28:02</time>
      </trkpt>
      <trkpt lat="42.29814" lon="3.23477">
        <ele>230.2</ele>
        <time>2022-05-21 10:28:03</time>
      </trkpt>
      <trkpt lat="42.29816" lon="3.23461">
        <ele>229.4</ele>
        <time>2022-05-21 10:28:04</time>
      </trkpt>
      <trkpt lat="42.29817" lon="3.23445">
        <ele>228.8</ele>
        <time>2022-05-21 10:28:05</time>
      </trkpt>
      <trkpt lat="42.29817" lon="3.23429">
        <ele>228.2</ele>
        <time>2022-05-21 10:28:06</time>
      </trkpt>
      <trkpt lat="42.29816" lon="3.23412">
        <ele>227.4</ele>
        <time>2022-05-21 10:28:07</time>
      </trkpt>
      <trkpt lat="42.29816" lon="3.23397">
        <ele>227</ele>
        <time>2022-05-21 10:28:08</time>
      </trkpt>
      <trkpt lat="42.29818" lon="3.23381">
        <ele>226.4</ele>
        <time>2022-05-21 10:28:09</time>
      </trkpt>
      <trkpt lat="42.29821" lon="3.23365">
        <ele>225.8</ele>
        <time>2022-05-21 10:28:10</time>
      </trkpt>
      <trkpt lat="42.29826" lon="3.23349">
        <ele>225</ele>
        <time>2022-05-21 10:28:11</time>
      </trkpt>
      <trkpt lat="42.29832" lon="3.23335">
        <ele>224.4</ele>
        <time>2022-05-21 10:28:12</time>
      </trkpt>
      <trkpt lat="42.29839" lon="3.23321">
        <ele>223.8</ele>
        <time>2022-05-21 10:28:13</time>
      </trkpt>
      <trkpt lat="42.29846" lon="3.23308">
        <ele>223.2</ele>
        <time>2022-05-21 10:28:14</time>
      </trkpt>
      <trkpt lat="42.29855" lon="3.23296">
        <ele>222.6</ele>
        <time>2022-05-21 10:28:15</time>
      </trkpt>
      <trkpt lat="42.29864" lon="3.23284">
        <ele>221.8</ele>
        <time>2022-05-21 10:28:16</time>
      </trkpt>
      <trkpt lat="42.29872" lon="3.23272">
        <ele>221.2</ele>
        <time>2022-05-21 10:28:17</time>
      </trkpt>
      <trkpt lat="42.2988" lon="3.23259">
        <ele>220.6</ele>
        <time>2022-05-21 10:28:18</time>
      </trkpt>
      <trkpt lat="42.29889" lon="3.23245">
        <ele>220</ele>
        <time>2022-05-21 10:28:19</time>
      </trkpt>
      <trkpt lat="42.29897" lon="3.23231">
        <ele>219.2</ele>
        <time>2022-05-21 10:28:20</time>
      </trkpt>
      <trkpt lat="42.29904" lon="3.23218">
        <ele>218.4</ele>
        <time>2022-05-21 10:28:21</time>
      </trkpt>
      <trkpt lat="42.29912" lon="3.23205">
        <ele>217.8</ele>
        <time>2022-05-21 10:28:22</time>
      </trkpt>
      <trkpt lat="42.29919" lon="3.23191">
        <ele>217.2</ele>
        <time>2022-05-21 10:28:23</time>
      </trkpt>
      <trkpt lat="42.29927" lon="3.23177">
        <ele>216.6</ele>
        <time>2022-05-21 10:28:24</time>
      </trkpt>
      <trkpt lat="42.29935" lon="3.23163">
        <ele>215.8</ele>
        <time>2022-05-21 10:28:25</time>
      </trkpt>
      <trkpt lat="42.29943" lon="3.23149">
        <ele>215.2</ele>
        <time>2022-05-21 10:28:26</time>
      </trkpt>
      <trkpt lat="42.2995" lon="3.23135">
        <ele>214.6</ele>
        <time>2022-05-21 10:28:27</time>
      </trkpt>
      <trkpt lat="42.29957" lon="3.23121">
        <ele>213.8</ele>
        <time>2022-05-21 10:28:28</time>
      </trkpt>
      <trkpt lat="42.29963" lon="3.23106">
        <ele>213.2</ele>
        <time>2022-05-21 10:28:29</time>
      </trkpt>
      <trkpt lat="42.29968" lon="3.2309">
        <ele>212.8</ele>
        <time>2022-05-21 10:28:30</time>
      </trkpt>
      <trkpt lat="42.29973" lon="3.23074">
        <ele>212.2</ele>
        <time>2022-05-21 10:28:31</time>
      </trkpt>
      <trkpt lat="42.29978" lon="3.23059">
        <ele>211.4</ele>
        <time>2022-05-21 10:28:32</time>
      </trkpt>
      <trkpt lat="42.29986" lon="3.23044">
        <ele>210.6</ele>
        <time>2022-05-21 10:28:33</time>
      </trkpt>
      <trkpt lat="42.29994" lon="3.23032">
        <ele>210</ele>
        <time>2022-05-21 10:28:34</time>
      </trkpt>
      <trkpt lat="42.30004" lon="3.23021">
        <ele>209.4</ele>
        <time>2022-05-21 10:28:35</time>
      </trkpt>
      <trkpt lat="42.30015" lon="3.23012">
        <ele>208.6</ele>
        <time>2022-05-21 10:28:36</time>
      </trkpt>
      <trkpt lat="42.30026" lon="3.23005">
        <ele>208</ele>
        <time>2022-05-21 10:28:37</time>
      </trkpt>
      <trkpt lat="42.30037" lon="3.22998">
        <ele>207.4</ele>
        <time>2022-05-21 10:28:38</time>
      </trkpt>
      <trkpt lat="42.30049" lon="3.22991">
        <ele>206.8</ele>
        <time>2022-05-21 10:28:39</time>
      </trkpt>
      <trkpt lat="42.30061" lon="3.22983">
        <ele>206.4</ele>
        <time>2022-05-21 10:28:40</time>
      </trkpt>
      <trkpt lat="42.30073" lon="3.22976">
        <ele>205.8</ele>
        <time>2022-05-21 10:28:41</time>
      </trkpt>
      <trkpt lat="42.30085" lon="3.22969">
        <ele>205</ele>
        <time>2022-05-21 10:28:42</time>
      </trkpt>
      <trkpt lat="42.30096" lon="3.22962">
        <ele>204.4</ele>
        <time>2022-05-21 10:28:43</time>
      </trkpt>
      <trkpt lat="42.30107" lon="3.22955">
        <ele>203.6</ele>
        <time>2022-05-21 10:28:44</time>
      </trkpt>
      <trkpt lat="42.30119" lon="3.22948">
        <ele>203</ele>
        <time>2022-05-21 10:28:45</time>
      </trkpt>
      <trkpt lat="42.30132" lon="3.2294">
        <ele>202.2</ele>
        <time>2022-05-21 10:28:46</time>
      </trkpt>
      <trkpt lat="42.30144" lon="3.22932">
        <ele>201.2</ele>
        <time>2022-05-21 10:28:47</time>
      </trkpt>
      <trkpt lat="42.30155" lon="3.22925">
        <ele>200.4</ele>
        <time>2022-05-21 10:28:48</time>
      </trkpt>
      <trkpt lat="42.30167" lon="3.22916">
        <ele>199.6</ele>
        <time>2022-05-21 10:28:49</time>
      </trkpt>
      <trkpt lat="42.3018" lon="3.22908">
        <ele>198.8</ele>
        <time>2022-05-21 10:28:50</time>
      </trkpt>
      <trkpt lat="42.30192" lon="3.22901">
        <ele>197.8</ele>
        <time>2022-05-21 10:28:51</time>
      </trkpt>
      <trkpt lat="42.30204" lon="3.22895">
        <ele>197</ele>
        <time>2022-05-21 10:28:52</time>
      </trkpt>
      <trkpt lat="42.30217" lon="3.2289">
        <ele>196.2</ele>
        <time>2022-05-21 10:28:53</time>
      </trkpt>
      <trkpt lat="42.30229" lon="3.22888">
        <ele>195.2</ele>
        <time>2022-05-21 10:28:54</time>
      </trkpt>
      <trkpt lat="42.3024" lon="3.2289">
        <ele>194.4</ele>
        <time>2022-05-21 10:28:55</time>
      </trkpt>
      <trkpt lat="42.3025" lon="3.22896">
        <ele>193.8</ele>
        <time>2022-05-21 10:28:56</time>
      </trkpt>
      <trkpt lat="42.3026" lon="3.22904">
        <ele>193</ele>
        <time>2022-05-21 10:28:57</time>
      </trkpt>
      <trkpt lat="42.30271" lon="3.22911">
        <ele>192</ele>
        <time>2022-05-21 10:28:58</time>
      </trkpt>
      <trkpt lat="42.30282" lon="3.22913">
        <ele>191.2</ele>
        <time>2022-05-21 10:28:59</time>
      </trkpt>
      <trkpt lat="42.30293" lon="3.22912">
        <ele>190.4</ele>
        <time>2022-05-21 10:29:00</time>
      </trkpt>
      <trkpt lat="42.30305" lon="3.22909">
        <ele>189.6</ele>
        <time>2022-05-21 10:29:01</time>
      </trkpt>
      <trkpt lat="42.30316" lon="3.22905">
        <ele>188.6</ele>
        <time>2022-05-21 10:29:02</time>
      </trkpt>
      <trkpt lat="42.30327" lon="3.22901">
        <ele>188</ele>
        <time>2022-05-21 10:29:03</time>
      </trkpt>
      <trkpt lat="42.30338" lon="3.22894">
        <ele>187.2</ele>
        <time>2022-05-21 10:29:04</time>
      </trkpt>
      <trkpt lat="42.30348" lon="3.22885">
        <ele>186.4</ele>
        <time>2022-05-21 10:29:05</time>
      </trkpt>
      <trkpt lat="42.30356" lon="3.22875">
        <ele>185.6</ele>
        <time>2022-05-21 10:29:06</time>
      </trkpt>
      <trkpt lat="42.30363" lon="3.22863">
        <ele>185</ele>
        <time>2022-05-21 10:29:07</time>
      </trkpt>
      <trkpt lat="42.3037" lon="3.22851">
        <ele>184.2</ele>
        <time>2022-05-21 10:29:08</time>
      </trkpt>
      <trkpt lat="42.30377" lon="3.22837">
        <ele>183.4</ele>
        <time>2022-05-21 10:29:09</time>
      </trkpt>
      <trkpt lat="42.30385" lon="3.22824">
        <ele>182.8</ele>
        <time>2022-05-21 10:29:10</time>
      </trkpt>
      <trkpt lat="42.30392" lon="3.22811">
        <ele>182</ele>
        <time>2022-05-21 10:29:11</time>
      </trkpt>
      <trkpt lat="42.30398" lon="3.22797">
        <ele>181.2</ele>
        <time>2022-05-21 10:29:12</time>
      </trkpt>
      <trkpt lat="42.30403" lon="3.22782">
        <ele>180.6</ele>
        <time>2022-05-21 10:29:13</time>
      </trkpt>
      <trkpt lat="42.30409" lon="3.22767">
        <ele>180</ele>
        <time>2022-05-21 10:29:14</time>
      </trkpt>
      <trkpt lat="42.30414" lon="3.22752">
        <ele>179.2</ele>
        <time>2022-05-21 10:29:15</time>
      </trkpt>
      <trkpt lat="42.3042" lon="3.22738">
        <ele>178.2</ele>
        <time>2022-05-21 10:29:16</time>
      </trkpt>
      <trkpt lat="42.30427" lon="3.22722">
        <ele>177</ele>
        <time>2022-05-21 10:29:17</time>
      </trkpt>
      <trkpt lat="42.30434" lon="3.22706">
        <ele>176</ele>
        <time>2022-05-21 10:29:18</time>
      </trkpt>
      <trkpt lat="42.3044" lon="3.22692">
        <ele>175</ele>
        <time>2022-05-21 10:29:19</time>
      </trkpt>
      <trkpt lat="42.30447" lon="3.22677">
        <ele>174</ele>
        <time>2022-05-21 10:29:20</time>
      </trkpt>
      <trkpt lat="42.30455" lon="3.22665">
        <ele>173</ele>
        <time>2022-05-21 10:29:21</time>
      </trkpt>
      <trkpt lat="42.30464" lon="3.22654">
        <ele>172.2</ele>
        <time>2022-05-21 10:29:22</time>
      </trkpt>
      <trkpt lat="42.30476" lon="3.22644">
        <ele>171.4</ele>
        <time>2022-05-21 10:29:23</time>
      </trkpt>
      <trkpt lat="42.30487" lon="3.22636">
        <ele>170.6</ele>
        <time>2022-05-21 10:29:24</time>
      </trkpt>
      <trkpt lat="42.30498" lon="3.22628">
        <ele>170</ele>
        <time>2022-05-21 10:29:25</time>
      </trkpt>
      <trkpt lat="42.30508" lon="3.22621">
        <ele>169.4</ele>
        <time>2022-05-21 10:29:26</time>
      </trkpt>
      <trkpt lat="42.30518" lon="3.22615">
        <ele>168.6</ele>
        <time>2022-05-21 10:29:27</time>
      </trkpt>
      <trkpt lat="42.30529" lon="3.22612">
        <ele>167.8</ele>
        <time>2022-05-21 10:29:28</time>
      </trkpt>
      <trkpt lat="42.3054" lon="3.22614">
        <ele>167</ele>
        <time>2022-05-21 10:29:29</time>
      </trkpt>
      <trkpt lat="42.3055" lon="3.2262">
        <ele>166.4</ele>
        <time>2022-05-21 10:29:30</time>
      </trkpt>
      <trkpt lat="42.30559" lon="3.22627">
        <ele>165.8</ele>
        <time>2022-05-21 10:29:31</time>
      </trkpt>
      <trkpt lat="42.3057" lon="3.22634">
        <ele>165.2</ele>
        <time>2022-05-21 10:29:32</time>
      </trkpt>
      <trkpt lat="42.3058" lon="3.22642">
        <ele>164.6</ele>
        <time>2022-05-21 10:29:33</time>
      </trkpt>
      <trkpt lat="42.3059" lon="3.2265">
        <ele>163.8</ele>
        <time>2022-05-21 10:29:34</time>
      </trkpt>
      <trkpt lat="42.306" lon="3.22658">
        <ele>163.2</ele>
        <time>2022-05-21 10:29:35</time>
      </trkpt>
      <trkpt lat="42.3061" lon="3.22667">
        <ele>162.6</ele>
        <time>2022-05-21 10:29:36</time>
      </trkpt>
      <trkpt lat="42.30618" lon="3.22678">
        <ele>161.8</ele>
        <time>2022-05-21 10:29:37</time>
      </trkpt>
      <trkpt lat="42.30626" lon="3.22691">
        <ele>161</ele>
        <time>2022-05-21 10:29:38</time>
      </trkpt>
      <trkpt lat="42.30634" lon="3.22705">
        <ele>160.2</ele>
        <time>2022-05-21 10:29:39</time>
      </trkpt>
      <trkpt lat="42.3064" lon="3.22719">
        <ele>159.4</ele>
        <time>2022-05-21 10:29:40</time>
      </trkpt>
      <trkpt lat="42.30646" lon="3.22733">
        <ele>158.6</ele>
        <time>2022-05-21 10:29:41</time>
      </trkpt>
      <trkpt lat="42.30652" lon="3.22748">
        <ele>158</ele>
        <time>2022-05-21 10:29:42</time>
      </trkpt>
      <trkpt lat="42.30656" lon="3.22762">
        <ele>157.6</ele>
        <time>2022-05-21 10:29:43</time>
      </trkpt>
      <trkpt lat="42.30662" lon="3.22774">
        <ele>157.2</ele>
        <time>2022-05-21 10:29:44</time>
      </trkpt>
      <trkpt lat="42.30669" lon="3.22784">
        <ele>156.8</ele>
        <time>2022-05-21 10:29:45</time>
      </trkpt>
      <trkpt lat="42.30677" lon="3.2279">
        <ele>156.4</ele>
        <time>2022-05-21 10:29:46</time>
      </trkpt>
      <trkpt lat="42.30685" lon="3.22791">
        <ele>156</ele>
        <time>2022-05-21 10:29:47</time>
      </trkpt>
      <trkpt lat="42.30694" lon="3.22788">
        <ele>155.6</ele>
        <time>2022-05-21 10:29:48</time>
      </trkpt>
      <trkpt lat="42.30701" lon="3.22781">
        <ele>155.4</ele>
        <time>2022-05-21 10:29:49</time>
      </trkpt>
      <trkpt lat="42.30705" lon="3.22771">
        <ele>154.8</ele>
        <time>2022-05-21 10:29:50</time>
      </trkpt>
      <trkpt lat="42.30707" lon="3.22759">
        <ele>154.4</ele>
        <time>2022-05-21 10:29:51</time>
      </trkpt>
      <trkpt lat="42.30707" lon="3.22747">
        <ele>154</ele>
        <time>2022-05-21 10:29:52</time>
      </trkpt>
      <trkpt lat="42.30707" lon="3.22735">
        <ele>153.6</ele>
        <time>2022-05-21 10:29:53</time>
      </trkpt>
      <trkpt lat="42.30706" lon="3.22724">
        <ele>153.4</ele>
        <time>2022-05-21 10:29:54</time>
      </trkpt>
      <trkpt lat="42.30705" lon="3.22712">
        <ele>153.2</ele>
        <time>2022-05-21 10:29:55</time>
      </trkpt>
      <trkpt lat="42.30702" lon="3.227">
        <ele>152.8</ele>
        <time>2022-05-21 10:29:56</time>
      </trkpt>
      <trkpt lat="42.30699" lon="3.22689">
        <ele>152.6</ele>
        <time>2022-05-21 10:29:57</time>
      </trkpt>
      <trkpt lat="42.30696" lon="3.22677">
        <ele>152.2</ele>
        <time>2022-05-21 10:29:58</time>
      </trkpt>
      <trkpt lat="42.30693" lon="3.22666">
        <ele>152</ele>
        <time>2022-05-21 10:29:59</time>
      </trkpt>
      <trkpt lat="42.3069" lon="3.22656">
        <ele>151.6</ele>
        <time>2022-05-21 10:30:00</time>
      </trkpt>
      <trkpt lat="42.30687" lon="3.22643">
        <ele>151.4</ele>
        <time>2022-05-21 10:30:01</time>
      </trkpt>
      <trkpt lat="42.30684" lon="3.22632">
        <ele>151</ele>
        <time>2022-05-21 10:30:02</time>
      </trkpt>
      <trkpt lat="42.30681" lon="3.2262">
        <ele>150.8</ele>
        <time>2022-05-21 10:30:03</time>
      </trkpt>
      <trkpt lat="42.30677" lon="3.22607">
        <ele>150.2</ele>
        <time>2022-05-21 10:30:04</time>
      </trkpt>
      <trkpt lat="42.30673" lon="3.22595">
        <ele>149.8</ele>
        <time>2022-05-21 10:30:05</time>
      </trkpt>
      <trkpt lat="42.3067" lon="3.22583">
        <ele>149.4</ele>
        <time>2022-05-21 10:30:06</time>
      </trkpt>
      <trkpt lat="42.30666" lon="3.22572">
        <ele>149</ele>
        <time>2022-05-21 10:30:07</time>
      </trkpt>
      <trkpt lat="42.30662" lon="3.2256">
        <ele>148.6</ele>
        <time>2022-05-21 10:30:08</time>
      </trkpt>
      <trkpt lat="42.30657" lon="3.2255">
        <ele>148.2</ele>
        <time>2022-05-21 10:30:09</time>
      </trkpt>
      <trkpt lat="42.30651" lon="3.2254">
        <ele>147.8</ele>
        <time>2022-05-21 10:30:10</time>
      </trkpt>
      <trkpt lat="42.30647" lon="3.22529">
        <ele>147.2</ele>
        <time>2022-05-21 10:30:11</time>
      </trkpt>
      <trkpt lat="42.30641" lon="3.22517">
        <ele>146.6</ele>
        <time>2022-05-21 10:30:12</time>
      </trkpt>
      <trkpt lat="42.30636" lon="3.22506">
        <ele>146</ele>
        <time>2022-05-21 10:30:13</time>
      </trkpt>
      <trkpt lat="42.30631" lon="3.22494">
        <ele>145.4</ele>
        <time>2022-05-21 10:30:14</time>
      </trkpt>
      <trkpt lat="42.30626" lon="3.22481">
        <ele>144.8</ele>
        <time>2022-05-21 10:30:15</time>
      </trkpt>
      <trkpt lat="42.30621" lon="3.2247">
        <ele>144.2</ele>
        <time>2022-05-21 10:30:16</time>
      </trkpt>
      <trkpt lat="42.30616" lon="3.22458">
        <ele>143.6</ele>
        <time>2022-05-21 10:30:17</time>
      </trkpt>
      <trkpt lat="42.3061" lon="3.22447">
        <ele>143</ele>
        <time>2022-05-21 10:30:18</time>
      </trkpt>
      <trkpt lat="42.30605" lon="3.22435">
        <ele>142.6</ele>
        <time>2022-05-21 10:30:19</time>
      </trkpt>
      <trkpt lat="42.306" lon="3.22421">
        <ele>141.8</ele>
        <time>2022-05-21 10:30:20</time>
      </trkpt>
      <trkpt lat="42.30597" lon="3.22408">
        <ele>141</ele>
        <time>2022-05-21 10:30:21</time>
      </trkpt>
      <trkpt lat="42.30595" lon="3.22394">
        <ele>140.4</ele>
        <time>2022-05-21 10:30:22</time>
      </trkpt>
      <trkpt lat="42.30594" lon="3.2238">
        <ele>139.8</ele>
        <time>2022-05-21 10:30:23</time>
      </trkpt>
      <trkpt lat="42.30593" lon="3.22366">
        <ele>139.2</ele>
        <time>2022-05-21 10:30:24</time>
      </trkpt>
      <trkpt lat="42.30595" lon="3.22353">
        <ele>138.4</ele>
        <time>2022-05-21 10:30:25</time>
      </trkpt>
      <trkpt lat="42.30597" lon="3.22338">
        <ele>137.8</ele>
        <time>2022-05-21 10:30:26</time>
      </trkpt>
      <trkpt lat="42.306" lon="3.22322">
        <ele>137.2</ele>
        <time>2022-05-21 10:30:27</time>
      </trkpt>
      <trkpt lat="42.30603" lon="3.22307">
        <ele>136.6</ele>
        <time>2022-05-21 10:30:28</time>
      </trkpt>
      <trkpt lat="42.30607" lon="3.22293">
        <ele>136.2</ele>
        <time>2022-05-21 10:30:29</time>
      </trkpt>
      <trkpt lat="42.30611" lon="3.22279">
        <ele>135.6</ele>
        <time>2022-05-21 10:30:30</time>
      </trkpt>
      <trkpt lat="42.30615" lon="3.22266">
        <ele>135</ele>
        <time>2022-05-21 10:30:31</time>
      </trkpt>
      <trkpt lat="42.30621" lon="3.22253">
        <ele>134.4</ele>
        <time>2022-05-21 10:30:32</time>
      </trkpt>
      <trkpt lat="42.30629" lon="3.22243">
        <ele>134</ele>
        <time>2022-05-21 10:30:33</time>
      </trkpt>
      <trkpt lat="42.30638" lon="3.22234">
        <ele>133.4</ele>
        <time>2022-05-21 10:30:34</time>
      </trkpt>
      <trkpt lat="42.30646" lon="3.22224">
        <ele>133</ele>
        <time>2022-05-21 10:30:35</time>
      </trkpt>
      <trkpt lat="42.30654" lon="3.22213">
        <ele>132.4</ele>
        <time>2022-05-21 10:30:36</time>
      </trkpt>
      <trkpt lat="42.3066" lon="3.22201">
        <ele>131.8</ele>
        <time>2022-05-21 10:30:37</time>
      </trkpt>
      <trkpt lat="42.30666" lon="3.22189">
        <ele>131.4</ele>
        <time>2022-05-21 10:30:38</time>
      </trkpt>
      <trkpt lat="42.30671" lon="3.22177">
        <ele>131</ele>
        <time>2022-05-21 10:30:39</time>
      </trkpt>
      <trkpt lat="42.30678" lon="3.22164">
        <ele>130.6</ele>
        <time>2022-05-21 10:30:40</time>
      </trkpt>
      <trkpt lat="42.30683" lon="3.22152">
        <ele>130.2</ele>
        <time>2022-05-21 10:30:41</time>
      </trkpt>
      <trkpt lat="42.30689" lon="3.2214">
        <ele>129.8</ele>
        <time>2022-05-21 10:30:42</time>
      </trkpt>
      <trkpt lat="42.30696" lon="3.22128">
        <ele>129.4</ele>
        <time>2022-05-21 10:30:43</time>
      </trkpt>
      <trkpt lat="42.30702" lon="3.22118">
        <ele>129</ele>
        <time>2022-05-21 10:30:44</time>
      </trkpt>
      <trkpt lat="42.30709" lon="3.22107">
        <ele>128.6</ele>
        <time>2022-05-21 10:30:45</time>
      </trkpt>
      <trkpt lat="42.30716" lon="3.22095">
        <ele>128.2</ele>
        <time>2022-05-21 10:30:46</time>
      </trkpt>
      <trkpt lat="42.30722" lon="3.22085">
        <ele>127.8</ele>
        <time>2022-05-21 10:30:47</time>
      </trkpt>
      <trkpt lat="42.30728" lon="3.22074">
        <ele>127.6</ele>
        <time>2022-05-21 10:30:48</time>
      </trkpt>
      <trkpt lat="42.30735" lon="3.22063">
        <ele>127.2</ele>
        <time>2022-05-21 10:30:49</time>
      </trkpt>
      <trkpt lat="42.30742" lon="3.22054">
        <ele>127</ele>
        <time>2022-05-21 10:30:50</time>
      </trkpt>
      <trkpt lat="42.30751" lon="3.22049">
        <ele>126.8</ele>
        <time>2022-05-21 10:30:51</time>
      </trkpt>
      <trkpt lat="42.30762" lon="3.22048">
        <ele>126.4</ele>
        <time>2022-05-21 10:30:52</time>
      </trkpt>
      <trkpt lat="42.30774" lon="3.22052">
        <ele>126.4</ele>
        <time>2022-05-21 10:30:53</time>
      </trkpt>
      <trkpt lat="42.30784" lon="3.22057">
        <ele>126.4</ele>
        <time>2022-05-21 10:30:54</time>
      </trkpt>
      <trkpt lat="42.30793" lon="3.22059">
        <ele>126.4</ele>
        <time>2022-05-21 10:30:55</time>
      </trkpt>
      <trkpt lat="42.30803" lon="3.2206">
        <ele>126.2</ele>
        <time>2022-05-21 10:30:56</time>
      </trkpt>
      <trkpt lat="42.30813" lon="3.22061">
        <ele>126.2</ele>
        <time>2022-05-21 10:30:57</time>
      </trkpt>
      <trkpt lat="42.30822" lon="3.22059">
        <ele>126</ele>
        <time>2022-05-21 10:30:58</time>
      </trkpt>
      <trkpt lat="42.30828" lon="3.22053">
        <ele>126</ele>
        <time>2022-05-21 10:30:59</time>
      </trkpt>
      <trkpt lat="42.30833" lon="3.22044">
        <ele>125.8</ele>
        <time>2022-05-21 10:31:00</time>
      </trkpt>
      <trkpt lat="42.30833" lon="3.22034">
        <ele>125.6</ele>
        <time>2022-05-21 10:31:01</time>
      </trkpt>
      <trkpt lat="42.3083" lon="3.22025">
        <ele>125.4</ele>
        <time>2022-05-21 10:31:02</time>
      </trkpt>
      <trkpt lat="42.30824" lon="3.22018">
        <ele>125.4</ele>
        <time>2022-05-21 10:31:03</time>
      </trkpt>
      <trkpt lat="42.30818" lon="3.22013">
        <ele>125.4</ele>
        <time>2022-05-21 10:31:04</time>
      </trkpt>
      <trkpt lat="42.30811" lon="3.2201">
        <ele>125.4</ele>
        <time>2022-05-21 10:31:05</time>
      </trkpt>
      <trkpt lat="42.30803" lon="3.22007">
        <ele>125.2</ele>
        <time>2022-05-21 10:31:06</time>
      </trkpt>
      <trkpt lat="42.30795" lon="3.22004">
        <ele>125.2</ele>
        <time>2022-05-21 10:31:07</time>
      </trkpt>
      <trkpt lat="42.30787" lon="3.22002">
        <ele>125.2</ele>
        <time>2022-05-21 10:31:08</time>
      </trkpt>
      <trkpt lat="42.3078" lon="3.22">
        <ele>124.8</ele>
        <time>2022-05-21 10:31:09</time>
      </trkpt>
      <trkpt lat="42.30772" lon="3.21997">
        <ele>124.6</ele>
        <time>2022-05-21 10:31:10</time>
      </trkpt>
      <trkpt lat="42.30764" lon="3.21994">
        <ele>124.4</ele>
        <time>2022-05-21 10:31:11</time>
      </trkpt>
      <trkpt lat="42.30756" lon="3.21991">
        <ele>124</ele>
        <time>2022-05-21 10:31:12</time>
      </trkpt>
      <trkpt lat="42.30748" lon="3.21987">
        <ele>123.4</ele>
        <time>2022-05-21 10:31:13</time>
      </trkpt>
      <trkpt lat="42.30741" lon="3.21982">
        <ele>123</ele>
        <time>2022-05-21 10:31:14</time>
      </trkpt>
      <trkpt lat="42.30734" lon="3.21975">
        <ele>122.6</ele>
        <time>2022-05-21 10:31:15</time>
      </trkpt>
      <trkpt lat="42.30728" lon="3.21966">
        <ele>122.2</ele>
        <time>2022-05-21 10:31:16</time>
      </trkpt>
      <trkpt lat="42.30725" lon="3.21956">
        <ele>121.8</ele>
        <time>2022-05-21 10:31:17</time>
      </trkpt>
      <trkpt lat="42.30726" lon="3.21945">
        <ele>121.4</ele>
        <time>2022-05-21 10:31:18</time>
      </trkpt>
      <trkpt lat="42.30729" lon="3.21934">
        <ele>121</ele>
        <time>2022-05-21 10:31:19</time>
      </trkpt>
      <trkpt lat="42.30735" lon="3.21923">
        <ele>120.6</ele>
        <time>2022-05-21 10:31:20</time>
      </trkpt>
      <trkpt lat="42.30742" lon="3.21914">
        <ele>120.2</ele>
        <time>2022-05-21 10:31:21</time>
      </trkpt>
      <trkpt lat="42.30749" lon="3.21906">
        <ele>119.8</ele>
        <time>2022-05-21 10:31:22</time>
      </trkpt>
      <trkpt lat="42.30756" lon="3.21897">
        <ele>119.4</ele>
        <time>2022-05-21 10:31:23</time>
      </trkpt>
      <trkpt lat="42.30763" lon="3.21887">
        <ele>119</ele>
        <time>2022-05-21 10:31:24</time>
      </trkpt>
      <trkpt lat="42.30768" lon="3.21877">
        <ele>118.4</ele>
        <time>2022-05-21 10:31:25</time>
      </trkpt>
      <trkpt lat="42.30772" lon="3.21864">
        <ele>118</ele>
        <time>2022-05-21 10:31:26</time>
      </trkpt>
      <trkpt lat="42.30774" lon="3.21852">
        <ele>117.4</ele>
        <time>2022-05-21 10:31:27</time>
      </trkpt>
      <trkpt lat="42.30774" lon="3.21839">
        <ele>117</ele>
        <time>2022-05-21 10:31:28</time>
      </trkpt>
      <trkpt lat="42.30773" lon="3.21826">
        <ele>116.6</ele>
        <time>2022-05-21 10:31:29</time>
      </trkpt>
      <trkpt lat="42.30772" lon="3.21815">
        <ele>116.2</ele>
        <time>2022-05-21 10:31:30</time>
      </trkpt>
      <trkpt lat="42.30772" lon="3.21806">
        <ele>115.8</ele>
        <time>2022-05-21 10:31:31</time>
      </trkpt>
      <trkpt lat="42.30771" lon="3.21786">
        <ele>115.2</ele>
        <time>2022-05-21 10:31:32</time>
      </trkpt>
      <trkpt lat="42.3077" lon="3.21773">
        <ele>114.8</ele>
        <time>2022-05-21 10:31:33</time>
      </trkpt>
      <trkpt lat="42.30769" lon="3.2176">
        <ele>114.4</ele>
        <time>2022-05-21 10:31:34</time>
      </trkpt>
      <trkpt lat="42.30767" lon="3.21746">
        <ele>113.8</ele>
        <time>2022-05-21 10:31:35</time>
      </trkpt>
      <trkpt lat="42.30766" lon="3.21733">
        <ele>113.4</ele>
        <time>2022-05-21 10:31:36</time>
      </trkpt>
      <trkpt lat="42.30765" lon="3.21719">
        <ele>112.8</ele>
        <time>2022-05-21 10:31:37</time>
      </trkpt>
      <trkpt lat="42.30765" lon="3.21707">
        <ele>112.4</ele>
        <time>2022-05-21 10:31:38</time>
      </trkpt>
      <trkpt lat="42.30764" lon="3.21692">
        <ele>111.8</ele>
        <time>2022-05-21 10:31:39</time>
      </trkpt>
      <trkpt lat="42.30763" lon="3.21676">
        <ele>111.4</ele>
        <time>2022-05-21 10:31:40</time>
      </trkpt>
      <trkpt lat="42.30762" lon="3.21663">
        <ele>110.8</ele>
        <time>2022-05-21 10:31:41</time>
      </trkpt>
      <trkpt lat="42.30761" lon="3.2165">
        <ele>110.2</ele>
        <time>2022-05-21 10:31:42</time>
      </trkpt>
      <trkpt lat="42.30759" lon="3.21638">
        <ele>109.8</ele>
        <time>2022-05-21 10:31:43</time>
      </trkpt>
      <trkpt lat="42.30757" lon="3.21624">
        <ele>109.4</ele>
        <time>2022-05-21 10:31:44</time>
      </trkpt>
      <trkpt lat="42.30754" lon="3.21609">
        <ele>108.8</ele>
        <time>2022-05-21 10:31:45</time>
      </trkpt>
      <trkpt lat="42.3075" lon="3.21595">
        <ele>108.4</ele>
        <time>2022-05-21 10:31:46</time>
      </trkpt>
      <trkpt lat="42.30746" lon="3.21582">
        <ele>107.8</ele>
        <time>2022-05-21 10:31:47</time>
      </trkpt>
      <trkpt lat="42.30744" lon="3.21569">
        <ele>107.2</ele>
        <time>2022-05-21 10:31:48</time>
      </trkpt>
      <trkpt lat="42.30743" lon="3.21556">
        <ele>106.8</ele>
        <time>2022-05-21 10:31:49</time>
      </trkpt>
      <trkpt lat="42.30744" lon="3.21543">
        <ele>106.2</ele>
        <time>2022-05-21 10:31:50</time>
      </trkpt>
      <trkpt lat="42.30747" lon="3.21532">
        <ele>105.8</ele>
        <time>2022-05-21 10:31:51</time>
      </trkpt>
      <trkpt lat="42.30752" lon="3.21517">
        <ele>105.4</ele>
        <time>2022-05-21 10:31:52</time>
      </trkpt>
      <trkpt lat="42.30757" lon="3.21504">
        <ele>104.8</ele>
        <time>2022-05-21 10:31:53</time>
      </trkpt>
      <trkpt lat="42.30762" lon="3.2149">
        <ele>104.4</ele>
        <time>2022-05-21 10:31:54</time>
      </trkpt>
      <trkpt lat="42.30765" lon="3.21477">
        <ele>104</ele>
        <time>2022-05-21 10:31:55</time>
      </trkpt>
      <trkpt lat="42.30769" lon="3.21463">
        <ele>103.4</ele>
        <time>2022-05-21 10:31:56</time>
      </trkpt>
      <trkpt lat="42.30772" lon="3.21448">
        <ele>103</ele>
        <time>2022-05-21 10:31:57</time>
      </trkpt>
      <trkpt lat="42.30774" lon="3.21435">
        <ele>102.4</ele>
        <time>2022-05-21 10:31:58</time>
      </trkpt>
      <trkpt lat="42.30777" lon="3.21421">
        <ele>102</ele>
        <time>2022-05-21 10:31:59</time>
      </trkpt>
      <trkpt lat="42.3078" lon="3.21407">
        <ele>101.4</ele>
        <time>2022-05-21 10:32:00</time>
      </trkpt>
      <trkpt lat="42.30784" lon="3.21393">
        <ele>100.8</ele>
        <time>2022-05-21 10:32:01</time>
      </trkpt>
      <trkpt lat="42.30789" lon="3.2138">
        <ele>100.2</ele>
        <time>2022-05-21 10:32:02</time>
      </trkpt>
      <trkpt lat="42.30796" lon="3.21368">
        <ele>99.6</ele>
        <time>2022-05-21 10:32:03</time>
      </trkpt>
      <trkpt lat="42.30805" lon="3.2136">
        <ele>99</ele>
        <time>2022-05-21 10:32:04</time>
      </trkpt>
      <trkpt lat="42.30815" lon="3.21356">
        <ele>98.6</ele>
        <time>2022-05-21 10:32:05</time>
      </trkpt>
      <trkpt lat="42.30826" lon="3.21356">
        <ele>98.2</ele>
        <time>2022-05-21 10:32:06</time>
      </trkpt>
      <trkpt lat="42.30836" lon="3.21361">
        <ele>97.6</ele>
        <time>2022-05-21 10:32:07</time>
      </trkpt>
      <trkpt lat="42.30846" lon="3.21368">
        <ele>97</ele>
        <time>2022-05-21 10:32:08</time>
      </trkpt>
      <trkpt lat="42.30854" lon="3.21376">
        <ele>96.4</ele>
        <time>2022-05-21 10:32:09</time>
      </trkpt>
      <trkpt lat="42.30861" lon="3.21387">
        <ele>96</ele>
        <time>2022-05-21 10:32:10</time>
      </trkpt>
      <trkpt lat="42.30868" lon="3.214">
        <ele>95.4</ele>
        <time>2022-05-21 10:32:11</time>
      </trkpt>
      <trkpt lat="42.30873" lon="3.21415">
        <ele>95</ele>
        <time>2022-05-21 10:32:12</time>
      </trkpt>
      <trkpt lat="42.30878" lon="3.21428">
        <ele>94.4</ele>
        <time>2022-05-21 10:32:13</time>
      </trkpt>
      <trkpt lat="42.30883" lon="3.21442">
        <ele>93.8</ele>
        <time>2022-05-21 10:32:14</time>
      </trkpt>
      <trkpt lat="42.30888" lon="3.21455">
        <ele>93.2</ele>
        <time>2022-05-21 10:32:15</time>
      </trkpt>
      <trkpt lat="42.30893" lon="3.21469">
        <ele>92.6</ele>
        <time>2022-05-21 10:32:16</time>
      </trkpt>
      <trkpt lat="42.30898" lon="3.21484">
        <ele>92.2</ele>
        <time>2022-05-21 10:32:17</time>
      </trkpt>
      <trkpt lat="42.30902" lon="3.21498">
        <ele>91.6</ele>
        <time>2022-05-21 10:32:18</time>
      </trkpt>
      <trkpt lat="42.30907" lon="3.21512">
        <ele>91</ele>
        <time>2022-05-21 10:32:19</time>
      </trkpt>
      <trkpt lat="42.30911" lon="3.21526">
        <ele>90.4</ele>
        <time>2022-05-21 10:32:20</time>
      </trkpt>
      <trkpt lat="42.30917" lon="3.21541">
        <ele>89.8</ele>
        <time>2022-05-21 10:32:21</time>
      </trkpt>
      <trkpt lat="42.30921" lon="3.21554">
        <ele>89</ele>
        <time>2022-05-21 10:32:22</time>
      </trkpt>
      <trkpt lat="42.30927" lon="3.21569">
        <ele>88.4</ele>
        <time>2022-05-21 10:32:23</time>
      </trkpt>
      <trkpt lat="42.30932" lon="3.21583">
        <ele>87.8</ele>
        <time>2022-05-21 10:32:24</time>
      </trkpt>
      <trkpt lat="42.30939" lon="3.21596">
        <ele>87.2</ele>
        <time>2022-05-21 10:32:25</time>
      </trkpt>
      <trkpt lat="42.30946" lon="3.21607">
        <ele>86.6</ele>
        <time>2022-05-21 10:32:26</time>
      </trkpt>
      <trkpt lat="42.30955" lon="3.21618">
        <ele>86</ele>
        <time>2022-05-21 10:32:27</time>
      </trkpt>
      <trkpt lat="42.30963" lon="3.21628">
        <ele>85.6</ele>
        <time>2022-05-21 10:32:28</time>
      </trkpt>
      <trkpt lat="42.30971" lon="3.21638">
        <ele>85.2</ele>
        <time>2022-05-21 10:32:29</time>
      </trkpt>
      <trkpt lat="42.3098" lon="3.21651">
        <ele>84.4</ele>
        <time>2022-05-21 10:32:30</time>
      </trkpt>
      <trkpt lat="42.30986" lon="3.21662">
        <ele>84</ele>
        <time>2022-05-21 10:32:31</time>
      </trkpt>
      <trkpt lat="42.30991" lon="3.21674">
        <ele>83.4</ele>
        <time>2022-05-21 10:32:32</time>
      </trkpt>
      <trkpt lat="42.30994" lon="3.21687">
        <ele>82.8</ele>
        <time>2022-05-21 10:32:33</time>
      </trkpt>
      <trkpt lat="42.30999" lon="3.217">
        <ele>82.4</ele>
        <time>2022-05-21 10:32:34</time>
      </trkpt>
      <trkpt lat="42.31005" lon="3.21709">
        <ele>82</ele>
        <time>2022-05-21 10:32:35</time>
      </trkpt>
      <trkpt lat="42.31012" lon="3.21717">
        <ele>81.8</ele>
        <time>2022-05-21 10:32:36</time>
      </trkpt>
      <trkpt lat="42.31019" lon="3.21722">
        <ele>81.6</ele>
        <time>2022-05-21 10:32:37</time>
      </trkpt>
      <trkpt lat="42.31028" lon="3.21727">
        <ele>81.4</ele>
        <time>2022-05-21 10:32:38</time>
      </trkpt>
      <trkpt lat="42.31035" lon="3.21733">
        <ele>81</ele>
        <time>2022-05-21 10:32:39</time>
      </trkpt>
      <trkpt lat="42.31042" lon="3.2174">
        <ele>80.8</ele>
        <time>2022-05-21 10:32:40</time>
      </trkpt>
      <trkpt lat="42.31048" lon="3.21746">
        <ele>80.6</ele>
        <time>2022-05-21 10:32:41</time>
      </trkpt>
      <trkpt lat="42.31056" lon="3.21751">
        <ele>80.6</ele>
        <time>2022-05-21 10:32:42</time>
      </trkpt>
      <trkpt lat="42.31063" lon="3.21752">
        <ele>80.4</ele>
        <time>2022-05-21 10:32:43</time>
      </trkpt>
      <trkpt lat="42.31069" lon="3.2175">
        <ele>80.4</ele>
        <time>2022-05-21 10:32:44</time>
      </trkpt>
      <trkpt lat="42.31073" lon="3.21743">
        <ele>80.2</ele>
        <time>2022-05-21 10:32:45</time>
      </trkpt>
      <trkpt lat="42.31076" lon="3.21734">
        <ele>80</ele>
        <time>2022-05-21 10:32:46</time>
      </trkpt>
      <trkpt lat="42.31079" lon="3.21724">
        <ele>79.8</ele>
        <time>2022-05-21 10:32:47</time>
      </trkpt>
      <trkpt lat="42.3108" lon="3.21714">
        <ele>79.6</ele>
        <time>2022-05-21 10:32:48</time>
      </trkpt>
      <trkpt lat="42.31082" lon="3.21704">
        <ele>79.4</ele>
        <time>2022-05-21 10:32:49</time>
      </trkpt>
      <trkpt lat="42.31085" lon="3.21696">
        <ele>79.2</ele>
        <time>2022-05-21 10:32:50</time>
      </trkpt>
      <trkpt lat="42.31088" lon="3.21689">
        <ele>79</ele>
        <time>2022-05-21 10:32:51</time>
      </trkpt>
      <trkpt lat="42.31094" lon="3.21682">
        <ele>78.8</ele>
        <time>2022-05-21 10:32:52</time>
      </trkpt>
      <trkpt lat="42.311" lon="3.21678">
        <ele>78.6</ele>
        <time>2022-05-21 10:32:53</time>
      </trkpt>
      <trkpt lat="42.31107" lon="3.21675">
        <ele>78.4</ele>
        <time>2022-05-21 10:32:54</time>
      </trkpt>
      <trkpt lat="42.31115" lon="3.21672">
        <ele>78.2</ele>
        <time>2022-05-21 10:32:55</time>
      </trkpt>
      <trkpt lat="42.31123" lon="3.21669">
        <ele>77.8</ele>
        <time>2022-05-21 10:32:56</time>
      </trkpt>
      <trkpt lat="42.31132" lon="3.21667">
        <ele>77.4</ele>
        <time>2022-05-21 10:32:57</time>
      </trkpt>
      <trkpt lat="42.3114" lon="3.21665">
        <ele>77</ele>
        <time>2022-05-21 10:32:58</time>
      </trkpt>
      <trkpt lat="42.31149" lon="3.21662">
        <ele>76.6</ele>
        <time>2022-05-21 10:32:59</time>
      </trkpt>
      <trkpt lat="42.31159" lon="3.21659">
        <ele>76.4</ele>
        <time>2022-05-21 10:33:00</time>
      </trkpt>
      <trkpt lat="42.31169" lon="3.21655">
        <ele>75.8</ele>
        <time>2022-05-21 10:33:01</time>
      </trkpt>
      <trkpt lat="42.31179" lon="3.21652">
        <ele>75.4</ele>
        <time>2022-05-21 10:33:02</time>
      </trkpt>
      <trkpt lat="42.31188" lon="3.21648">
        <ele>74.8</ele>
        <time>2022-05-21 10:33:03</time>
      </trkpt>
      <trkpt lat="42.31198" lon="3.21645">
        <ele>74.4</ele>
        <time>2022-05-21 10:33:04</time>
      </trkpt>
      <trkpt lat="42.31208" lon="3.21642">
        <ele>73.8</ele>
        <time>2022-05-21 10:33:05</time>
      </trkpt>
      <trkpt lat="42.31219" lon="3.21639">
        <ele>73.2</ele>
        <time>2022-05-21 10:33:06</time>
      </trkpt>
      <trkpt lat="42.3123" lon="3.21635">
        <ele>72.8</ele>
        <time>2022-05-21 10:33:07</time>
      </trkpt>
      <trkpt lat="42.3124" lon="3.2163">
        <ele>72.2</ele>
        <time>2022-05-21 10:33:08</time>
      </trkpt>
      <trkpt lat="42.31248" lon="3.21622">
        <ele>71.8</ele>
        <time>2022-05-21 10:33:09</time>
      </trkpt>
      <trkpt lat="42.31255" lon="3.21613">
        <ele>71.4</ele>
        <time>2022-05-21 10:33:10</time>
      </trkpt>
      <trkpt lat="42.31263" lon="3.21604">
        <ele>71</ele>
        <time>2022-05-21 10:33:11</time>
      </trkpt>
      <trkpt lat="42.31271" lon="3.21596">
        <ele>70.4</ele>
        <time>2022-05-21 10:33:12</time>
      </trkpt>
      <trkpt lat="42.31282" lon="3.2159">
        <ele>69.8</ele>
        <time>2022-05-21 10:33:13</time>
      </trkpt>
      <trkpt lat="42.31292" lon="3.21586">
        <ele>69.4</ele>
        <time>2022-05-21 10:33:14</time>
      </trkpt>
      <trkpt lat="42.31302" lon="3.21583">
        <ele>69</ele>
        <time>2022-05-21 10:33:15</time>
      </trkpt>
      <trkpt lat="42.31311" lon="3.21579">
        <ele>68.4</ele>
        <time>2022-05-21 10:33:16</time>
      </trkpt>
      <trkpt lat="42.31321" lon="3.21576">
        <ele>68</ele>
        <time>2022-05-21 10:33:17</time>
      </trkpt>
      <trkpt lat="42.31332" lon="3.21572">
        <ele>67.6</ele>
        <time>2022-05-21 10:33:18</time>
      </trkpt>
      <trkpt lat="42.31341" lon="3.21569">
        <ele>67.2</ele>
        <time>2022-05-21 10:33:19</time>
      </trkpt>
      <trkpt lat="42.31351" lon="3.21565">
        <ele>66.8</ele>
        <time>2022-05-21 10:33:20</time>
      </trkpt>
      <trkpt lat="42.3136" lon="3.21559">
        <ele>66.4</ele>
        <time>2022-05-21 10:33:21</time>
      </trkpt>
      <trkpt lat="42.31369" lon="3.21552">
        <ele>66</ele>
        <time>2022-05-21 10:33:22</time>
      </trkpt>
      <trkpt lat="42.31375" lon="3.21544">
        <ele>65.8</ele>
        <time>2022-05-21 10:33:23</time>
      </trkpt>
      <trkpt lat="42.3138" lon="3.21535">
        <ele>65.2</ele>
        <time>2022-05-21 10:33:24</time>
      </trkpt>
      <trkpt lat="42.31384" lon="3.21524">
        <ele>64.6</ele>
        <time>2022-05-21 10:33:25</time>
      </trkpt>
      <trkpt lat="42.31386" lon="3.21511">
        <ele>64.2</ele>
        <time>2022-05-21 10:33:26</time>
      </trkpt>
      <trkpt lat="42.31389" lon="3.21497">
        <ele>63.8</ele>
        <time>2022-05-21 10:33:27</time>
      </trkpt>
      <trkpt lat="42.31391" lon="3.21485">
        <ele>63.4</ele>
        <time>2022-05-21 10:33:28</time>
      </trkpt>
      <trkpt lat="42.31394" lon="3.21472">
        <ele>62.8</ele>
        <time>2022-05-21 10:33:29</time>
      </trkpt>
      <trkpt lat="42.31399" lon="3.2146">
        <ele>62.4</ele>
        <time>2022-05-21 10:33:30</time>
      </trkpt>
      <trkpt lat="42.31403" lon="3.21447">
        <ele>62</ele>
        <time>2022-05-21 10:33:31</time>
      </trkpt>
      <trkpt lat="42.31408" lon="3.21435">
        <ele>61.6</ele>
        <time>2022-05-21 10:33:32</time>
      </trkpt>
      <trkpt lat="42.31412" lon="3.21423">
        <ele>61.2</ele>
        <time>2022-05-21 10:33:33</time>
      </trkpt>
      <trkpt lat="42.31416" lon="3.2141">
        <ele>60.6</ele>
        <time>2022-05-21 10:33:34</time>
      </trkpt>
      <trkpt lat="42.31419" lon="3.21396">
        <ele>60</ele>
        <time>2022-05-21 10:33:35</time>
      </trkpt>
      <trkpt lat="42.31422" lon="3.21384">
        <ele>59.6</ele>
        <time>2022-05-21 10:33:36</time>
      </trkpt>
      <trkpt lat="42.31424" lon="3.21369">
        <ele>58.8</ele>
        <time>2022-05-21 10:33:37</time>
      </trkpt>
      <trkpt lat="42.31426" lon="3.21356">
        <ele>58.4</ele>
        <time>2022-05-21 10:33:38</time>
      </trkpt>
      <trkpt lat="42.31428" lon="3.21343">
        <ele>58</ele>
        <time>2022-05-21 10:33:39</time>
      </trkpt>
      <trkpt lat="42.31429" lon="3.21326">
        <ele>57.4</ele>
        <time>2022-05-21 10:33:40</time>
      </trkpt>
      <trkpt lat="42.31429" lon="3.2131">
        <ele>57</ele>
        <time>2022-05-21 10:33:41</time>
      </trkpt>
      <trkpt lat="42.31428" lon="3.21297">
        <ele>56.6</ele>
        <time>2022-05-21 10:33:42</time>
      </trkpt>
      <trkpt lat="42.31424" lon="3.21284">
        <ele>56.2</ele>
        <time>2022-05-21 10:33:43</time>
      </trkpt>
      <trkpt lat="42.31419" lon="3.21271">
        <ele>55.4</ele>
        <time>2022-05-21 10:33:44</time>
      </trkpt>
      <trkpt lat="42.31412" lon="3.2126">
        <ele>54.8</ele>
        <time>2022-05-21 10:33:45</time>
      </trkpt>
      <trkpt lat="42.31404" lon="3.21247">
        <ele>54</ele>
        <time>2022-05-21 10:33:46</time>
      </trkpt>
      <trkpt lat="42.31397" lon="3.21235">
        <ele>53.4</ele>
        <time>2022-05-21 10:33:47</time>
      </trkpt>
      <trkpt lat="42.3139" lon="3.21224">
        <ele>52.8</ele>
        <time>2022-05-21 10:33:48</time>
      </trkpt>
      <trkpt lat="42.31384" lon="3.21212">
        <ele>52.4</ele>
        <time>2022-05-21 10:33:49</time>
      </trkpt>
      <trkpt lat="42.31378" lon="3.21199">
        <ele>51.8</ele>
        <time>2022-05-21 10:33:50</time>
      </trkpt>
      <trkpt lat="42.31371" lon="3.21187">
        <ele>51.2</ele>
        <time>2022-05-21 10:33:51</time>
      </trkpt>
      <trkpt lat="42.31364" lon="3.21175">
        <ele>51.2</ele>
        <time>2022-05-21 10:33:52</time>
      </trkpt>
      <trkpt lat="42.31358" lon="3.21163">
        <ele>50.8</ele>
        <time>2022-05-21 10:33:53</time>
      </trkpt>
      <trkpt lat="42.31352" lon="3.21152">
        <ele>50.4</ele>
        <time>2022-05-21 10:33:54</time>
      </trkpt>
      <trkpt lat="42.31347" lon="3.21141">
        <ele>50.2</ele>
        <time>2022-05-21 10:33:55</time>
      </trkpt>
      <trkpt lat="42.31341" lon="3.2113">
        <ele>50</ele>
        <time>2022-05-21 10:33:56</time>
      </trkpt>
      <trkpt lat="42.31336" lon="3.21119">
        <ele>49.8</ele>
        <time>2022-05-21 10:33:57</time>
      </trkpt>
      <trkpt lat="42.31331" lon="3.21109">
        <ele>49.6</ele>
        <time>2022-05-21 10:33:58</time>
      </trkpt>
      <trkpt lat="42.31326" lon="3.21099">
        <ele>49.2</ele>
        <time>2022-05-21 10:33:59</time>
      </trkpt>
      <trkpt lat="42.31322" lon="3.21089">
        <ele>49.2</ele>
        <time>2022-05-21 10:34:00</time>
      </trkpt>
      <trkpt lat="42.31318" lon="3.2108">
        <ele>49.2</ele>
        <time>2022-05-21 10:34:01</time>
      </trkpt>
      <trkpt lat="42.31314" lon="3.2107">
        <ele>49.2</ele>
        <time>2022-05-21 10:34:02</time>
      </trkpt>
      <trkpt lat="42.31309" lon="3.2106">
        <ele>49</ele>
        <time>2022-05-21 10:34:03</time>
      </trkpt>
      <trkpt lat="42.31304" lon="3.21051">
        <ele>48.8</ele>
        <time>2022-05-21 10:34:04</time>
      </trkpt>
      <trkpt lat="42.313" lon="3.21041">
        <ele>48.6</ele>
        <time>2022-05-21 10:34:05</time>
      </trkpt>
      <trkpt lat="42.31295" lon="3.21031">
        <ele>48.2</ele>
        <time>2022-05-21 10:34:06</time>
      </trkpt>
      <trkpt lat="42.31291" lon="3.21021">
        <ele>48</ele>
        <time>2022-05-21 10:34:07</time>
      </trkpt>
      <trkpt lat="42.31286" lon="3.21011">
        <ele>47.6</ele>
        <time>2022-05-21 10:34:08</time>
      </trkpt>
      <trkpt lat="42.31281" lon="3.21001">
        <ele>47.4</ele>
        <time>2022-05-21 10:34:09</time>
      </trkpt>
      <trkpt lat="42.31277" lon="3.20991">
        <ele>47</ele>
        <time>2022-05-21 10:34:10</time>
      </trkpt>
      <trkpt lat="42.31272" lon="3.2098">
        <ele>46.8</ele>
        <time>2022-05-21 10:34:11</time>
      </trkpt>
      <trkpt lat="42.31268" lon="3.2097">
        <ele>46.6</ele>
        <time>2022-05-21 10:34:12</time>
      </trkpt>
      <trkpt lat="42.31263" lon="3.20959">
        <ele>46.2</ele>
        <time>2022-05-21 10:34:13</time>
      </trkpt>
      <trkpt lat="42.31258" lon="3.20948">
        <ele>45.8</ele>
        <time>2022-05-21 10:34:14</time>
      </trkpt>
      <trkpt lat="42.31253" lon="3.20938">
        <ele>45.4</ele>
        <time>2022-05-21 10:34:15</time>
      </trkpt>
      <trkpt lat="42.31248" lon="3.20928">
        <ele>45</ele>
        <time>2022-05-21 10:34:16</time>
      </trkpt>
      <trkpt lat="42.31244" lon="3.20918">
        <ele>44.8</ele>
        <time>2022-05-21 10:34:17</time>
      </trkpt>
      <trkpt lat="42.31242" lon="3.20908">
        <ele>44.4</ele>
        <time>2022-05-21 10:34:18</time>
      </trkpt>
      <trkpt lat="42.31244" lon="3.20898">
        <ele>44.2</ele>
        <time>2022-05-21 10:34:19</time>
      </trkpt>
      <trkpt lat="42.3125" lon="3.20891">
        <ele>43.8</ele>
        <time>2022-05-21 10:34:20</time>
      </trkpt>
      <trkpt lat="42.31258" lon="3.20887">
        <ele>43.6</ele>
        <time>2022-05-21 10:34:21</time>
      </trkpt>
      <trkpt lat="42.31267" lon="3.20886">
        <ele>43.4</ele>
        <time>2022-05-21 10:34:22</time>
      </trkpt>
      <trkpt lat="42.31276" lon="3.20887">
        <ele>43.2</ele>
        <time>2022-05-21 10:34:23</time>
      </trkpt>
      <trkpt lat="42.31285" lon="3.20888">
        <ele>42.8</ele>
        <time>2022-05-21 10:34:24</time>
      </trkpt>
      <trkpt lat="42.31294" lon="3.20888">
        <ele>42.4</ele>
        <time>2022-05-21 10:34:25</time>
      </trkpt>
      <trkpt lat="42.31304" lon="3.20889">
        <ele>42</ele>
        <time>2022-05-21 10:34:26</time>
      </trkpt>
      <trkpt lat="42.31313" lon="3.2089">
        <ele>41.6</ele>
        <time>2022-05-21 10:34:27</time>
      </trkpt>
      <trkpt lat="42.31322" lon="3.20891">
        <ele>41.2</ele>
        <time>2022-05-21 10:34:28</time>
      </trkpt>
      <trkpt lat="42.31331" lon="3.20892">
        <ele>40.8</ele>
        <time>2022-05-21 10:34:29</time>
      </trkpt>
      <trkpt lat="42.31341" lon="3.20894">
        <ele>40.4</ele>
        <time>2022-05-21 10:34:30</time>
      </trkpt>
      <trkpt lat="42.3135" lon="3.20897">
        <ele>40</ele>
        <time>2022-05-21 10:34:31</time>
      </trkpt>
      <trkpt lat="42.31359" lon="3.20901">
        <ele>39.6</ele>
        <time>2022-05-21 10:34:32</time>
      </trkpt>
      <trkpt lat="42.31368" lon="3.20905">
        <ele>39.2</ele>
        <time>2022-05-21 10:34:33</time>
      </trkpt>
      <trkpt lat="42.31377" lon="3.20909">
        <ele>39</ele>
        <time>2022-05-21 10:34:34</time>
      </trkpt>
      <trkpt lat="42.31386" lon="3.20913">
        <ele>38.8</ele>
        <time>2022-05-21 10:34:35</time>
      </trkpt>
      <trkpt lat="42.31396" lon="3.20917">
        <ele>38.4</ele>
        <time>2022-05-21 10:34:36</time>
      </trkpt>
      <trkpt lat="42.31406" lon="3.20921">
        <ele>38.2</ele>
        <time>2022-05-21 10:34:37</time>
      </trkpt>
      <trkpt lat="42.31415" lon="3.20926">
        <ele>37.8</ele>
        <time>2022-05-21 10:34:38</time>
      </trkpt>
      <trkpt lat="42.31425" lon="3.20929">
        <ele>37.4</ele>
        <time>2022-05-21 10:34:39</time>
      </trkpt>
      <trkpt lat="42.31435" lon="3.20931">
        <ele>37</ele>
        <time>2022-05-21 10:34:40</time>
      </trkpt>
      <trkpt lat="42.31446" lon="3.20934">
        <ele>36.8</ele>
        <time>2022-05-21 10:34:41</time>
      </trkpt>
      <trkpt lat="42.31456" lon="3.20936">
        <ele>36.4</ele>
        <time>2022-05-21 10:34:42</time>
      </trkpt>
      <trkpt lat="42.31466" lon="3.20939">
        <ele>36</ele>
        <time>2022-05-21 10:34:43</time>
      </trkpt>
      <trkpt lat="42.31476" lon="3.20942">
        <ele>35.6</ele>
        <time>2022-05-21 10:34:44</time>
      </trkpt>
      <trkpt lat="42.31486" lon="3.20944">
        <ele>35.4</ele>
        <time>2022-05-21 10:34:45</time>
      </trkpt>
      <trkpt lat="42.31497" lon="3.20946">
        <ele>35</ele>
        <time>2022-05-21 10:34:46</time>
      </trkpt>
      <trkpt lat="42.31507" lon="3.20948">
        <ele>34.6</ele>
        <time>2022-05-21 10:34:47</time>
      </trkpt>
      <trkpt lat="42.31518" lon="3.20951">
        <ele>34</ele>
        <time>2022-05-21 10:34:48</time>
      </trkpt>
      <trkpt lat="42.31528" lon="3.20953">
        <ele>33.6</ele>
        <time>2022-05-21 10:34:49</time>
      </trkpt>
      <trkpt lat="42.31538" lon="3.20954">
        <ele>33.2</ele>
        <time>2022-05-21 10:34:50</time>
      </trkpt>
      <trkpt lat="42.31548" lon="3.20954">
        <ele>32.8</ele>
        <time>2022-05-21 10:34:51</time>
      </trkpt>
      <trkpt lat="42.31559" lon="3.20951">
        <ele>32.4</ele>
        <time>2022-05-21 10:34:52</time>
      </trkpt>
      <trkpt lat="42.31569" lon="3.20946">
        <ele>32</ele>
        <time>2022-05-21 10:34:53</time>
      </trkpt>
      <trkpt lat="42.31579" lon="3.2094">
        <ele>31.6</ele>
        <time>2022-05-21 10:34:54</time>
      </trkpt>
      <trkpt lat="42.31589" lon="3.20936">
        <ele>31</ele>
        <time>2022-05-21 10:34:55</time>
      </trkpt>
      <trkpt lat="42.316" lon="3.20935">
        <ele>30.8</ele>
        <time>2022-05-21 10:34:56</time>
      </trkpt>
      <trkpt lat="42.31612" lon="3.20937">
        <ele>30.2</ele>
        <time>2022-05-21 10:34:57</time>
      </trkpt>
      <trkpt lat="42.31623" lon="3.20941">
        <ele>29.8</ele>
        <time>2022-05-21 10:34:58</time>
      </trkpt>
      <trkpt lat="42.31633" lon="3.20946">
        <ele>29.4</ele>
        <time>2022-05-21 10:34:59</time>
      </trkpt>
      <trkpt lat="42.31643" lon="3.20951">
        <ele>29</ele>
        <time>2022-05-21 10:35:00</time>
      </trkpt>
      <trkpt lat="42.31652" lon="3.20956">
        <ele>28.6</ele>
        <time>2022-05-21 10:35:01</time>
      </trkpt>
      <trkpt lat="42.3166" lon="3.2096">
        <ele>28.2</ele>
        <time>2022-05-21 10:35:02</time>
      </trkpt>
      <trkpt lat="42.31666" lon="3.20963">
        <ele>28</ele>
        <time>2022-05-21 10:35:03</time>
      </trkpt>
      <trkpt lat="42.31679" lon="3.2097">
        <ele>27.6</ele>
        <time>2022-05-21 10:35:04</time>
      </trkpt>
      <trkpt lat="42.31687" lon="3.20974">
        <ele>27.4</ele>
        <time>2022-05-21 10:35:05</time>
      </trkpt>
      <trkpt lat="42.31698" lon="3.20979">
        <ele>27.4</ele>
        <time>2022-05-21 10:35:06</time>
      </trkpt>
      <trkpt lat="42.31707" lon="3.20984">
        <ele>27.2</ele>
        <time>2022-05-21 10:35:07</time>
      </trkpt>
      <trkpt lat="42.31716" lon="3.20988">
        <ele>27</ele>
        <time>2022-05-21 10:35:08</time>
      </trkpt>
      <trkpt lat="42.31724" lon="3.20993">
        <ele>27</ele>
        <time>2022-05-21 10:35:09</time>
      </trkpt>
      <trkpt lat="42.31732" lon="3.20998">
        <ele>26.8</ele>
        <time>2022-05-21 10:35:10</time>
      </trkpt>
      <trkpt lat="42.3174" lon="3.21003">
        <ele>26.8</ele>
        <time>2022-05-21 10:35:11</time>
      </trkpt>
      <trkpt lat="42.3175" lon="3.21009">
        <ele>26.6</ele>
        <time>2022-05-21 10:35:12</time>
      </trkpt>
      <trkpt lat="42.31758" lon="3.21016">
        <ele>26.4</ele>
        <time>2022-05-21 10:35:13</time>
      </trkpt>
      <trkpt lat="42.31765" lon="3.21022">
        <ele>26.4</ele>
        <time>2022-05-21 10:35:14</time>
      </trkpt>
      <trkpt lat="42.31772" lon="3.21027">
        <ele>26.2</ele>
        <time>2022-05-21 10:35:15</time>
      </trkpt>
      <trkpt lat="42.31781" lon="3.21035">
        <ele>26</ele>
        <time>2022-05-21 10:35:16</time>
      </trkpt>
      <trkpt lat="42.31789" lon="3.21041">
        <ele>26</ele>
        <time>2022-05-21 10:35:17</time>
      </trkpt>
      <trkpt lat="42.31796" lon="3.21048">
        <ele>26</ele>
        <time>2022-05-21 10:35:18</time>
      </trkpt>
      <trkpt lat="42.31804" lon="3.21054">
        <ele>25.8</ele>
        <time>2022-05-21 10:35:19</time>
      </trkpt>
      <trkpt lat="42.31812" lon="3.2106">
        <ele>25.8</ele>
        <time>2022-05-21 10:35:20</time>
      </trkpt>
      <trkpt lat="42.31818" lon="3.21065">
        <ele>25.8</ele>
        <time>2022-05-21 10:35:21</time>
      </trkpt>
      <trkpt lat="42.31823" lon="3.21069">
        <ele>25.8</ele>
        <time>2022-05-21 10:35:22</time>
      </trkpt>
      <trkpt lat="42.31834" lon="3.21077">
        <ele>25.6</ele>
        <time>2022-05-21 10:35:23</time>
      </trkpt>
      <trkpt lat="42.31842" lon="3.21081">
        <ele>25.4</ele>
        <time>2022-05-21 10:35:24</time>
      </trkpt>
      <trkpt lat="42.31849" lon="3.21085">
        <ele>25.2</ele>
        <time>2022-05-21 10:35:25</time>
      </trkpt>
      <trkpt lat="42.31856" lon="3.21089">
        <ele>25.2</ele>
        <time>2022-05-21 10:35:26</time>
      </trkpt>
      <trkpt lat="42.31866" lon="3.21093">
        <ele>25</ele>
        <time>2022-05-21 10:35:27</time>
      </trkpt>
      <trkpt lat="42.31872" lon="3.21096">
        <ele>25</ele>
        <time>2022-05-21 10:35:28</time>
      </trkpt>
      <trkpt lat="42.31878" lon="3.21099">
        <ele>25</ele>
        <time>2022-05-21 10:35:29</time>
      </trkpt>
      <trkpt lat="42.31883" lon="3.21101">
        <ele>24.8</ele>
        <time>2022-05-21 10:35:30</time>
      </trkpt>
      <trkpt lat="42.31894" lon="3.21105">
        <ele>24.8</ele>
        <time>2022-05-21 10:35:31</time>
      </trkpt>
      <trkpt lat="42.31901" lon="3.21107">
        <ele>24.8</ele>
        <time>2022-05-21 10:35:32</time>
      </trkpt>
      <trkpt lat="42.31909" lon="3.21107">
        <ele>24.8</ele>
        <time>2022-05-21 10:35:33</time>
      </trkpt>
      <trkpt lat="42.31916" lon="3.21106">
        <ele>24.8</ele>
        <time>2022-05-21 10:35:34</time>
      </trkpt>
      <trkpt lat="42.31923" lon="3.21104">
        <ele>24.8</ele>
        <time>2022-05-21 10:35:35</time>
      </trkpt>
      <trkpt lat="42.31929" lon="3.211">
        <ele>24.6</ele>
        <time>2022-05-21 10:35:36</time>
      </trkpt>
      <trkpt lat="42.31937" lon="3.21096">
        <ele>24.6</ele>
        <time>2022-05-21 10:35:37</time>
      </trkpt>
      <trkpt lat="42.31943" lon="3.21093">
        <ele>24.4</ele>
        <time>2022-05-21 10:35:38</time>
      </trkpt>
      <trkpt lat="42.31949" lon="3.21089">
        <ele>24.4</ele>
        <time>2022-05-21 10:35:39</time>
      </trkpt>
      <trkpt lat="42.31954" lon="3.21087">
        <ele>24.4</ele>
        <time>2022-05-21 10:35:40</time>
      </trkpt>
      <trkpt lat="42.31963" lon="3.21083">
        <ele>24.2</ele>
        <time>2022-05-21 10:35:41</time>
      </trkpt>
      <trkpt lat="42.3197" lon="3.21081">
        <ele>24.2</ele>
        <time>2022-05-21 10:35:42</time>
      </trkpt>
      <trkpt lat="42.31978" lon="3.21077">
        <ele>24</ele>
        <time>2022-05-21 10:35:43</time>
      </trkpt>
      <trkpt lat="42.31985" lon="3.21075">
        <ele>23.8</ele>
        <time>2022-05-21 10:35:44</time>
      </trkpt>
      <trkpt lat="42.31992" lon="3.21071">
        <ele>23.8</ele>
        <time>2022-05-21 10:35:45</time>
      </trkpt>
      <trkpt lat="42.31998" lon="3.21068">
        <ele>23.6</ele>
        <time>2022-05-21 10:35:46</time>
      </trkpt>
      <trkpt lat="42.32005" lon="3.21063">
        <ele>23.4</ele>
        <time>2022-05-21 10:35:47</time>
      </trkpt>
      <trkpt lat="42.3201" lon="3.21058">
        <ele>23.2</ele>
        <time>2022-05-21 10:35:48</time>
      </trkpt>
      <trkpt lat="42.32016" lon="3.21052">
        <ele>23</ele>
        <time>2022-05-21 10:35:49</time>
      </trkpt>
      <trkpt lat="42.32021" lon="3.21047">
        <ele>22.8</ele>
        <time>2022-05-21 10:35:50</time>
      </trkpt>
      <trkpt lat="42.32028" lon="3.21038">
        <ele>22.8</ele>
        <time>2022-05-21 10:35:51</time>
      </trkpt>
      <trkpt lat="42.32034" lon="3.21032">
        <ele>22.6</ele>
        <time>2022-05-21 10:35:52</time>
      </trkpt>
      <trkpt lat="42.32039" lon="3.21025">
        <ele>22.6</ele>
        <time>2022-05-21 10:35:53</time>
      </trkpt>
      <trkpt lat="42.32043" lon="3.21018">
        <ele>22.4</ele>
        <time>2022-05-21 10:35:54</time>
      </trkpt>
      <trkpt lat="42.32049" lon="3.2101">
        <ele>22.4</ele>
        <time>2022-05-21 10:35:55</time>
      </trkpt>
      <trkpt lat="42.32053" lon="3.21002">
        <ele>22.2</ele>
        <time>2022-05-21 10:35:56</time>
      </trkpt>
      <trkpt lat="42.32057" lon="3.20991">
        <ele>22.2</ele>
        <time>2022-05-21 10:35:57</time>
      </trkpt>
      <trkpt lat="42.32059" lon="3.20982">
        <ele>22.2</ele>
        <time>2022-05-21 10:35:58</time>
      </trkpt>
      <trkpt lat="42.32061" lon="3.20971">
        <ele>22</ele>
        <time>2022-05-21 10:35:59</time>
      </trkpt>
      <trkpt lat="42.32062" lon="3.20963">
        <ele>21.8</ele>
        <time>2022-05-21 10:36:00</time>
      </trkpt>
      <trkpt lat="42.32062" lon="3.20949">
        <ele>21.6</ele>
        <time>2022-05-21 10:36:01</time>
      </trkpt>
      <trkpt lat="42.32062" lon="3.2094">
        <ele>21.4</ele>
        <time>2022-05-21 10:36:02</time>
      </trkpt>
      <trkpt lat="42.32062" lon="3.20927">
        <ele>21.2</ele>
        <time>2022-05-21 10:36:03</time>
      </trkpt>
      <trkpt lat="42.32062" lon="3.20917">
        <ele>21</ele>
        <time>2022-05-21 10:36:04</time>
      </trkpt>
      <trkpt lat="42.32062" lon="3.20906">
        <ele>21</ele>
        <time>2022-05-21 10:36:05</time>
      </trkpt>
      <trkpt lat="42.32061" lon="3.20896">
        <ele>20.8</ele>
        <time>2022-05-21 10:36:06</time>
      </trkpt>
      <trkpt lat="42.32061" lon="3.20884">
        <ele>20.6</ele>
        <time>2022-05-21 10:36:07</time>
      </trkpt>
      <trkpt lat="42.32061" lon="3.20875">
        <ele>20.4</ele>
        <time>2022-05-21 10:36:08</time>
      </trkpt>
      <trkpt lat="42.32061" lon="3.20863">
        <ele>20.2</ele>
        <time>2022-05-21 10:36:09</time>
      </trkpt>
      <trkpt lat="42.32061" lon="3.20854">
        <ele>20.2</ele>
        <time>2022-05-21 10:36:10</time>
      </trkpt>
      <trkpt lat="42.32061" lon="3.20842">
        <ele>20.2</ele>
        <time>2022-05-21 10:36:11</time>
      </trkpt>
      <trkpt lat="42.32061" lon="3.20832">
        <ele>19.8</ele>
        <time>2022-05-21 10:36:12</time>
      </trkpt>
      <trkpt lat="42.3206" lon="3.2082">
        <ele>19.6</ele>
        <time>2022-05-21 10:36:13</time>
      </trkpt>
      <trkpt lat="42.3206" lon="3.20813">
        <ele>19.4</ele>
        <time>2022-05-21 10:36:14</time>
      </trkpt>
      <trkpt lat="42.3206" lon="3.20799">
        <ele>19.2</ele>
        <time>2022-05-21 10:36:15</time>
      </trkpt>
      <trkpt lat="42.3206" lon="3.20789">
        <ele>19</ele>
        <time>2022-05-21 10:36:16</time>
      </trkpt>
      <trkpt lat="42.3206" lon="3.20779">
        <ele>19</ele>
        <time>2022-05-21 10:36:17</time>
      </trkpt>
      <trkpt lat="42.32061" lon="3.2077">
        <ele>19</ele>
        <time>2022-05-21 10:36:18</time>
      </trkpt>
      <trkpt lat="42.32061" lon="3.20759">
        <ele>18.8</ele>
        <time>2022-05-21 10:36:19</time>
      </trkpt>
      <trkpt lat="42.32061" lon="3.2075">
        <ele>18.8</ele>
        <time>2022-05-21 10:36:20</time>
      </trkpt>
      <trkpt lat="42.32062" lon="3.20739">
        <ele>18.6</ele>
        <time>2022-05-21 10:36:21</time>
      </trkpt>
      <trkpt lat="42.32063" lon="3.2073">
        <ele>18.6</ele>
        <time>2022-05-21 10:36:22</time>
      </trkpt>
      <trkpt lat="42.32065" lon="3.20719">
        <ele>18.4</ele>
        <time>2022-05-21 10:36:23</time>
      </trkpt>
      <trkpt lat="42.32068" lon="3.20711">
        <ele>18.4</ele>
        <time>2022-05-21 10:36:24</time>
      </trkpt>
      <trkpt lat="42.32071" lon="3.207">
        <ele>18.2</ele>
        <time>2022-05-21 10:36:25</time>
      </trkpt>
      <trkpt lat="42.32075" lon="3.20692">
        <ele>18.2</ele>
        <time>2022-05-21 10:36:26</time>
      </trkpt>
      <trkpt lat="42.32079" lon="3.20682">
        <ele>18</ele>
        <time>2022-05-21 10:36:27</time>
      </trkpt>
      <trkpt lat="42.32084" lon="3.20675">
        <ele>18</ele>
        <time>2022-05-21 10:36:28</time>
      </trkpt>
      <trkpt lat="42.3209" lon="3.20667">
        <ele>17.6</ele>
        <time>2022-05-21 10:36:29</time>
      </trkpt>
      <trkpt lat="42.32096" lon="3.20661">
        <ele>17.4</ele>
        <time>2022-05-21 10:36:30</time>
      </trkpt>
      <trkpt lat="42.32104" lon="3.20656">
        <ele>17.2</ele>
        <time>2022-05-21 10:36:31</time>
      </trkpt>
      <trkpt lat="42.32111" lon="3.20652">
        <ele>17</ele>
        <time>2022-05-21 10:36:32</time>
      </trkpt>
      <trkpt lat="42.32119" lon="3.20649">
        <ele>17</ele>
        <time>2022-05-21 10:36:33</time>
      </trkpt>
      <trkpt lat="42.32125" lon="3.20648">
        <ele>16.8</ele>
        <time>2022-05-21 10:36:34</time>
      </trkpt>
      <trkpt lat="42.32134" lon="3.20645">
        <ele>16.6</ele>
        <time>2022-05-21 10:36:35</time>
      </trkpt>
      <trkpt lat="42.32141" lon="3.20643">
        <ele>16.6</ele>
        <time>2022-05-21 10:36:36</time>
      </trkpt>
      <trkpt lat="42.3215" lon="3.20641">
        <ele>16.6</ele>
        <time>2022-05-21 10:36:37</time>
      </trkpt>
      <trkpt lat="42.32158" lon="3.20639">
        <ele>16.6</ele>
        <time>2022-05-21 10:36:38</time>
      </trkpt>
      <trkpt lat="42.32165" lon="3.20637">
        <ele>16.4</ele>
        <time>2022-05-21 10:36:39</time>
      </trkpt>
      <trkpt lat="42.32172" lon="3.20636">
        <ele>16.4</ele>
        <time>2022-05-21 10:36:40</time>
      </trkpt>
      <trkpt lat="42.32181" lon="3.20633">
        <ele>16.2</ele>
        <time>2022-05-21 10:36:41</time>
      </trkpt>
      <trkpt lat="42.32188" lon="3.20632">
        <ele>16</ele>
        <time>2022-05-21 10:36:42</time>
      </trkpt>
      <trkpt lat="42.32196" lon="3.20629">
        <ele>16</ele>
        <time>2022-05-21 10:36:43</time>
      </trkpt>
      <trkpt lat="42.32203" lon="3.20627">
        <ele>15.8</ele>
        <time>2022-05-21 10:36:44</time>
      </trkpt>
      <trkpt lat="42.32212" lon="3.20625">
        <ele>15.8</ele>
        <time>2022-05-21 10:36:45</time>
      </trkpt>
      <trkpt lat="42.32219" lon="3.20623">
        <ele>15.6</ele>
        <time>2022-05-21 10:36:46</time>
      </trkpt>
      <trkpt lat="42.32227" lon="3.20621">
        <ele>15.6</ele>
        <time>2022-05-21 10:36:47</time>
      </trkpt>
      <trkpt lat="42.32234" lon="3.20619">
        <ele>15.6</ele>
        <time>2022-05-21 10:36:48</time>
      </trkpt>
      <trkpt lat="42.32242" lon="3.20617">
        <ele>15.6</ele>
        <time>2022-05-21 10:36:49</time>
      </trkpt>
      <trkpt lat="42.32249" lon="3.20616">
        <ele>15.4</ele>
        <time>2022-05-21 10:36:50</time>
      </trkpt>
      <trkpt lat="42.32258" lon="3.20614">
        <ele>15.4</ele>
        <time>2022-05-21 10:36:51</time>
      </trkpt>
      <trkpt lat="42.32265" lon="3.20612">
        <ele>15.2</ele>
        <time>2022-05-21 10:36:52</time>
      </trkpt>
      <trkpt lat="42.32273" lon="3.2061">
        <ele>15.2</ele>
        <time>2022-05-21 10:36:53</time>
      </trkpt>
      <trkpt lat="42.3228" lon="3.20609">
        <ele>15</ele>
        <time>2022-05-21 10:36:54</time>
      </trkpt>
      <trkpt lat="42.32288" lon="3.20607">
        <ele>15</ele>
        <time>2022-05-21 10:36:55</time>
      </trkpt>
      <trkpt lat="42.32294" lon="3.20605">
        <ele>15</ele>
        <time>2022-05-21 10:36:56</time>
      </trkpt>
      <trkpt lat="42.32303" lon="3.20603">
        <ele>15</ele>
        <time>2022-05-21 10:36:57</time>
      </trkpt>
      <trkpt lat="42.32309" lon="3.20601">
        <ele>15</ele>
        <time>2022-05-21 10:36:58</time>
      </trkpt>
      <trkpt lat="42.32318" lon="3.20599">
        <ele>14.8</ele>
        <time>2022-05-21 10:36:59</time>
      </trkpt>
      <trkpt lat="42.32325" lon="3.20597">
        <ele>14.8</ele>
        <time>2022-05-21 10:37:00</time>
      </trkpt>
      <trkpt lat="42.32333" lon="3.20595">
        <ele>14.6</ele>
        <time>2022-05-21 10:37:01</time>
      </trkpt>
      <trkpt lat="42.32339" lon="3.20594">
        <ele>14.4</ele>
        <time>2022-05-21 10:37:02</time>
      </trkpt>
      <trkpt lat="42.32347" lon="3.20592">
        <ele>14.4</ele>
        <time>2022-05-21 10:37:03</time>
      </trkpt>
      <trkpt lat="42.32354" lon="3.2059">
        <ele>14.2</ele>
        <time>2022-05-21 10:37:04</time>
      </trkpt>
      <trkpt lat="42.32361" lon="3.20588">
        <ele>14.2</ele>
        <time>2022-05-21 10:37:05</time>
      </trkpt>
      <trkpt lat="42.32368" lon="3.20586">
        <ele>14.2</ele>
        <time>2022-05-21 10:37:06</time>
      </trkpt>
      <trkpt lat="42.32375" lon="3.20584">
        <ele>14.2</ele>
        <time>2022-05-21 10:37:07</time>
      </trkpt>
      <trkpt lat="42.32381" lon="3.20583">
        <ele>14.2</ele>
        <time>2022-05-21 10:37:08</time>
      </trkpt>
      <trkpt lat="42.32389" lon="3.20581">
        <ele>14.2</ele>
        <time>2022-05-21 10:37:09</time>
      </trkpt>
      <trkpt lat="42.32395" lon="3.20579">
        <ele>14.2</ele>
        <time>2022-05-21 10:37:10</time>
      </trkpt>
      <trkpt lat="42.32403" lon="3.20576">
        <ele>14.2</ele>
        <time>2022-05-21 10:37:11</time>
      </trkpt>
      <trkpt lat="42.3241" lon="3.20574">
        <ele>14.2</ele>
        <time>2022-05-21 10:37:12</time>
      </trkpt>
      <trkpt lat="42.32418" lon="3.20572">
        <ele>14.2</ele>
        <time>2022-05-21 10:37:13</time>
      </trkpt>
      <trkpt lat="42.32424" lon="3.2057">
        <ele>14.2</ele>
        <time>2022-05-21 10:37:14</time>
      </trkpt>
      <trkpt lat="42.32431" lon="3.20568">
        <ele>14.4</ele>
        <time>2022-05-21 10:37:15</time>
      </trkpt>
      <trkpt lat="42.32438" lon="3.20566">
        <ele>14.2</ele>
        <time>2022-05-21 10:37:16</time>
      </trkpt>
      <trkpt lat="42.32444" lon="3.20564">
        <ele>14.2</ele>
        <time>2022-05-21 10:37:17</time>
      </trkpt>
      <trkpt lat="42.32451" lon="3.20562">
        <ele>14.2</ele>
        <time>2022-05-21 10:37:18</time>
      </trkpt>
      <trkpt lat="42.32458" lon="3.2056">
        <ele>14</ele>
        <time>2022-05-21 10:37:19</time>
      </trkpt>
      <trkpt lat="42.32464" lon="3.20558">
        <ele>13.8</ele>
        <time>2022-05-21 10:37:20</time>
      </trkpt>
      <trkpt lat="42.32471" lon="3.20556">
        <ele>13.6</ele>
        <time>2022-05-21 10:37:21</time>
      </trkpt>
      <trkpt lat="42.32477" lon="3.20554">
        <ele>13.6</ele>
        <time>2022-05-21 10:37:22</time>
      </trkpt>
      <trkpt lat="42.32484" lon="3.20552">
        <ele>13.6</ele>
        <time>2022-05-21 10:37:23</time>
      </trkpt>
      <trkpt lat="42.3249" lon="3.2055">
        <ele>13.6</ele>
        <time>2022-05-21 10:37:24</time>
      </trkpt>
      <trkpt lat="42.32497" lon="3.20548">
        <ele>13.6</ele>
        <time>2022-05-21 10:37:25</time>
      </trkpt>
      <trkpt lat="42.32503" lon="3.20546">
        <ele>13.6</ele>
        <time>2022-05-21 10:37:26</time>
      </trkpt>
      <trkpt lat="42.32509" lon="3.20544">
        <ele>13.6</ele>
        <time>2022-05-21 10:37:27</time>
      </trkpt>
      <trkpt lat="42.32514" lon="3.20543">
        <ele>13.6</ele>
        <time>2022-05-21 10:37:28</time>
      </trkpt>
      <trkpt lat="42.32521" lon="3.20541">
        <ele>13.6</ele>
        <time>2022-05-21 10:37:29</time>
      </trkpt>
      <trkpt lat="42.32527" lon="3.2054">
        <ele>13.6</ele>
        <time>2022-05-21 10:37:30</time>
      </trkpt>
      <trkpt lat="42.32533" lon="3.20539">
        <ele>13.6</ele>
        <time>2022-05-21 10:37:31</time>
      </trkpt>
      <trkpt lat="42.3254" lon="3.20538">
        <ele>13.6</ele>
        <time>2022-05-21 10:37:32</time>
      </trkpt>
      <trkpt lat="42.32546" lon="3.20538">
        <ele>13.6</ele>
        <time>2022-05-21 10:37:33</time>
      </trkpt>
      <trkpt lat="42.32553" lon="3.20538">
        <ele>13.4</ele>
        <time>2022-05-21 10:37:34</time>
      </trkpt>
      <trkpt lat="42.3256" lon="3.20538">
        <ele>13.4</ele>
        <time>2022-05-21 10:37:35</time>
      </trkpt>
      <trkpt lat="42.32566" lon="3.20538">
        <ele>13.4</ele>
        <time>2022-05-21 10:37:36</time>
      </trkpt>
      <trkpt lat="42.32573" lon="3.20538">
        <ele>13.4</ele>
        <time>2022-05-21 10:37:37</time>
      </trkpt>
      <trkpt lat="42.32579" lon="3.20538">
        <ele>13.4</ele>
        <time>2022-05-21 10:37:38</time>
      </trkpt>
      <trkpt lat="42.32586" lon="3.20538">
        <ele>13.4</ele>
        <time>2022-05-21 10:37:39</time>
      </trkpt>
      <trkpt lat="42.32593" lon="3.20538">
        <ele>13.4</ele>
        <time>2022-05-21 10:37:40</time>
      </trkpt>
      <trkpt lat="42.326" lon="3.20538">
        <ele>13.4</ele>
        <time>2022-05-21 10:37:41</time>
      </trkpt>
      <trkpt lat="42.32606" lon="3.20538">
        <ele>13.4</ele>
        <time>2022-05-21 10:37:42</time>
      </trkpt>
      <trkpt lat="42.32613" lon="3.20538">
        <ele>13.4</ele>
        <time>2022-05-21 10:37:43</time>
      </trkpt>
      <trkpt lat="42.3262" lon="3.20538">
        <ele>13.4</ele>
        <time>2022-05-21 10:37:44</time>
      </trkpt>
      <trkpt lat="42.32627" lon="3.20538">
        <ele>13.4</ele>
        <time>2022-05-21 10:37:45</time>
      </trkpt>
      <trkpt lat="42.32633" lon="3.20538">
        <ele>13.4</ele>
        <time>2022-05-21 10:37:46</time>
      </trkpt>
      <trkpt lat="42.3264" lon="3.20537">
        <ele>13.6</ele>
        <time>2022-05-21 10:37:47</time>
      </trkpt>
      <trkpt lat="42.32647" lon="3.20537">
        <ele>13.6</ele>
        <time>2022-05-21 10:37:48</time>
      </trkpt>
      <trkpt lat="42.32653" lon="3.20537">
        <ele>13.6</ele>
        <time>2022-05-21 10:37:49</time>
      </trkpt>
      <trkpt lat="42.3266" lon="3.20537">
        <ele>13.6</ele>
        <time>2022-05-21 10:37:50</time>
      </trkpt>
      <trkpt lat="42.32666" lon="3.20537">
        <ele>13.6</ele>
        <time>2022-05-21 10:37:51</time>
      </trkpt>
      <trkpt lat="42.32673" lon="3.20537">
        <ele>13.6</ele>
        <time>2022-05-21 10:37:52</time>
      </trkpt>
      <trkpt lat="42.3268" lon="3.20536">
        <ele>13.8</ele>
        <time>2022-05-21 10:37:53</time>
      </trkpt>
      <trkpt lat="42.32686" lon="3.20536">
        <ele>13.8</ele>
        <time>2022-05-21 10:37:54</time>
      </trkpt>
      <trkpt lat="42.32693" lon="3.20536">
        <ele>13.8</ele>
        <time>2022-05-21 10:37:55</time>
      </trkpt>
      <trkpt lat="42.32699" lon="3.20536">
        <ele>13.8</ele>
        <time>2022-05-21 10:37:56</time>
      </trkpt>
      <trkpt lat="42.32705" lon="3.20536">
        <ele>13.8</ele>
        <time>2022-05-21 10:37:57</time>
      </trkpt>
      <trkpt lat="42.32712" lon="3.20536">
        <ele>13.8</ele>
        <time>2022-05-21 10:37:58</time>
      </trkpt>
      <trkpt lat="42.32718" lon="3.20536">
        <ele>14</ele>
        <time>2022-05-21 10:37:59</time>
      </trkpt>
      <trkpt lat="42.32724" lon="3.20535">
        <ele>14</ele>
        <time>2022-05-21 10:38:00</time>
      </trkpt>
      <trkpt lat="42.3273" lon="3.20535">
        <ele>14.2</ele>
        <time>2022-05-21 10:38:01</time>
      </trkpt>
      <trkpt lat="42.32736" lon="3.20535">
        <ele>14.2</ele>
        <time>2022-05-21 10:38:02</time>
      </trkpt>
      <trkpt lat="42.32742" lon="3.20535">
        <ele>14.4</ele>
        <time>2022-05-21 10:38:03</time>
      </trkpt>
      <trkpt lat="42.32747" lon="3.20535">
        <ele>14.4</ele>
        <time>2022-05-21 10:38:04</time>
      </trkpt>
      <trkpt lat="42.32753" lon="3.20535">
        <ele>14.6</ele>
        <time>2022-05-21 10:38:05</time>
      </trkpt>
      <trkpt lat="42.32759" lon="3.20535">
        <ele>14.6</ele>
        <time>2022-05-21 10:38:06</time>
      </trkpt>
      <trkpt lat="42.32764" lon="3.20535">
        <ele>14.8</ele>
        <time>2022-05-21 10:38:07</time>
      </trkpt>
      <trkpt lat="42.3277" lon="3.20534">
        <ele>15</ele>
        <time>2022-05-21 10:38:08</time>
      </trkpt>
      <trkpt lat="42.32775" lon="3.20534">
        <ele>15</ele>
        <time>2022-05-21 10:38:09</time>
      </trkpt>
      <trkpt lat="42.32781" lon="3.20534">
        <ele>15</ele>
        <time>2022-05-21 10:38:10</time>
      </trkpt>
      <trkpt lat="42.32786" lon="3.20534">
        <ele>15</ele>
        <time>2022-05-21 10:38:11</time>
      </trkpt>
      <trkpt lat="42.32792" lon="3.20534">
        <ele>15</ele>
        <time>2022-05-21 10:38:12</time>
      </trkpt>
      <trkpt lat="42.32797" lon="3.20534">
        <ele>15</ele>
        <time>2022-05-21 10:38:13</time>
      </trkpt>
      <trkpt lat="42.32803" lon="3.20533">
        <ele>15</ele>
        <time>2022-05-21 10:38:14</time>
      </trkpt>
      <trkpt lat="42.32809" lon="3.20533">
        <ele>15</ele>
        <time>2022-05-21 10:38:15</time>
      </trkpt>
      <trkpt lat="42.32814" lon="3.20533">
        <ele>15.2</ele>
        <time>2022-05-21 10:38:16</time>
      </trkpt>
      <trkpt lat="42.3282" lon="3.20532">
        <ele>15</ele>
        <time>2022-05-21 10:38:17</time>
      </trkpt>
      <trkpt lat="42.32826" lon="3.20532">
        <ele>14.8</ele>
        <time>2022-05-21 10:38:18</time>
      </trkpt>
      <trkpt lat="42.32832" lon="3.20532">
        <ele>14.6</ele>
        <time>2022-05-21 10:38:19</time>
      </trkpt>
      <trkpt lat="42.32839" lon="3.20532">
        <ele>14.6</ele>
        <time>2022-05-21 10:38:20</time>
      </trkpt>
      <trkpt lat="42.32845" lon="3.20532">
        <ele>14.4</ele>
        <time>2022-05-21 10:38:21</time>
      </trkpt>
      <trkpt lat="42.32852" lon="3.20532">
        <ele>14.4</ele>
        <time>2022-05-21 10:38:22</time>
      </trkpt>
      <trkpt lat="42.32858" lon="3.20532">
        <ele>14.2</ele>
        <time>2022-05-21 10:38:23</time>
      </trkpt>
      <trkpt lat="42.32865" lon="3.20532">
        <ele>14.2</ele>
        <time>2022-05-21 10:38:24</time>
      </trkpt>
      <trkpt lat="42.32871" lon="3.20534">
        <ele>14.2</ele>
        <time>2022-05-21 10:38:25</time>
      </trkpt>
      <trkpt lat="42.32876" lon="3.20536">
        <ele>14.2</ele>
        <time>2022-05-21 10:38:26</time>
      </trkpt>
      <trkpt lat="42.32883" lon="3.20541">
        <ele>14.2</ele>
        <time>2022-05-21 10:38:27</time>
      </trkpt>
      <trkpt lat="42.32888" lon="3.20544">
        <ele>14.2</ele>
        <time>2022-05-21 10:38:28</time>
      </trkpt>
      <trkpt lat="42.32894" lon="3.20544">
        <ele>14.2</ele>
        <time>2022-05-21 10:38:29</time>
      </trkpt>
      <trkpt lat="42.329" lon="3.20543">
        <ele>14</ele>
        <time>2022-05-21 10:38:30</time>
      </trkpt>
      <trkpt lat="42.32907" lon="3.20539">
        <ele>14</ele>
        <time>2022-05-21 10:38:31</time>
      </trkpt>
      <trkpt lat="42.32913" lon="3.20536">
        <ele>13.8</ele>
        <time>2022-05-21 10:38:32</time>
      </trkpt>
      <trkpt lat="42.3292" lon="3.20534">
        <ele>13.8</ele>
        <time>2022-05-21 10:38:33</time>
      </trkpt>
      <trkpt lat="42.32926" lon="3.20533">
        <ele>13.6</ele>
        <time>2022-05-21 10:38:34</time>
      </trkpt>
      <trkpt lat="42.32932" lon="3.20532">
        <ele>13.4</ele>
        <time>2022-05-21 10:38:35</time>
      </trkpt>
      <trkpt lat="42.32938" lon="3.20532">
        <ele>13.4</ele>
        <time>2022-05-21 10:38:36</time>
      </trkpt>
      <trkpt lat="42.32945" lon="3.20531">
        <ele>13.4</ele>
        <time>2022-05-21 10:38:37</time>
      </trkpt>
      <trkpt lat="42.32952" lon="3.20531">
        <ele>13.2</ele>
        <time>2022-05-21 10:38:38</time>
      </trkpt>
      <trkpt lat="42.32959" lon="3.20531">
        <ele>13.2</ele>
        <time>2022-05-21 10:38:39</time>
      </trkpt>
      <trkpt lat="42.32966" lon="3.2053">
        <ele>13.2</ele>
        <time>2022-05-21 10:38:40</time>
      </trkpt>
      <trkpt lat="42.32973" lon="3.2053">
        <ele>13</ele>
        <time>2022-05-21 10:38:41</time>
      </trkpt>
      <trkpt lat="42.3298" lon="3.20529">
        <ele>13</ele>
        <time>2022-05-21 10:38:42</time>
      </trkpt>
      <trkpt lat="42.32986" lon="3.20528">
        <ele>13</ele>
        <time>2022-05-21 10:38:43</time>
      </trkpt>
      <trkpt lat="42.32993" lon="3.20527">
        <ele>13</ele>
        <time>2022-05-21 10:38:44</time>
      </trkpt>
      <trkpt lat="42.33" lon="3.20527">
        <ele>12.8</ele>
        <time>2022-05-21 10:38:45</time>
      </trkpt>
      <trkpt lat="42.33006" lon="3.20526">
        <ele>12.8</ele>
        <time>2022-05-21 10:38:46</time>
      </trkpt>
      <trkpt lat="42.33014" lon="3.20526">
        <ele>12.6</ele>
        <time>2022-05-21 10:38:47</time>
      </trkpt>
      <trkpt lat="42.33021" lon="3.20525">
        <ele>12.6</ele>
        <time>2022-05-21 10:38:48</time>
      </trkpt>
      <trkpt lat="42.33028" lon="3.20525">
        <ele>12.4</ele>
        <time>2022-05-21 10:38:49</time>
      </trkpt>
      <trkpt lat="42.33035" lon="3.20524">
        <ele>12.2</ele>
        <time>2022-05-21 10:38:50</time>
      </trkpt>
      <trkpt lat="42.33042" lon="3.20523">
        <ele>12.2</ele>
        <time>2022-05-21 10:38:51</time>
      </trkpt>
      <trkpt lat="42.33048" lon="3.20523">
        <ele>12</ele>
        <time>2022-05-21 10:38:52</time>
      </trkpt>
      <trkpt lat="42.33055" lon="3.20523">
        <ele>12</ele>
        <time>2022-05-21 10:38:53</time>
      </trkpt>
      <trkpt lat="42.33059" lon="3.20523">
        <ele>11.8</ele>
        <time>2022-05-21 10:38:54</time>
      </trkpt>
      <trkpt lat="42.33069" lon="3.20523">
        <ele>11.6</ele>
        <time>2022-05-21 10:38:55</time>
      </trkpt>
      <trkpt lat="42.33076" lon="3.20523">
        <ele>11.6</ele>
        <time>2022-05-21 10:38:56</time>
      </trkpt>
      <trkpt lat="42.33083" lon="3.20522">
        <ele>11.4</ele>
        <time>2022-05-21 10:38:57</time>
      </trkpt>
      <trkpt lat="42.33089" lon="3.20522">
        <ele>11.4</ele>
        <time>2022-05-21 10:38:58</time>
      </trkpt>
      <trkpt lat="42.33097" lon="3.20522">
        <ele>11.2</ele>
        <time>2022-05-21 10:38:59</time>
      </trkpt>
      <trkpt lat="42.33103" lon="3.20522">
        <ele>11</ele>
        <time>2022-05-21 10:39:00</time>
      </trkpt>
      <trkpt lat="42.33111" lon="3.20522">
        <ele>11</ele>
        <time>2022-05-21 10:39:01</time>
      </trkpt>
      <trkpt lat="42.33117" lon="3.20522">
        <ele>10.8</ele>
        <time>2022-05-21 10:39:02</time>
      </trkpt>
      <trkpt lat="42.33125" lon="3.20521">
        <ele>10.8</ele>
        <time>2022-05-21 10:39:03</time>
      </trkpt>
      <trkpt lat="42.33131" lon="3.20521">
        <ele>10.6</ele>
        <time>2022-05-21 10:39:04</time>
      </trkpt>
      <trkpt lat="42.33139" lon="3.20521">
        <ele>10.6</ele>
        <time>2022-05-21 10:39:05</time>
      </trkpt>
      <trkpt lat="42.33146" lon="3.20521">
        <ele>10.4</ele>
        <time>2022-05-21 10:39:06</time>
      </trkpt>
      <trkpt lat="42.33153" lon="3.20521">
        <ele>10.2</ele>
        <time>2022-05-21 10:39:07</time>
      </trkpt>
      <trkpt lat="42.3316" lon="3.20521">
        <ele>10.2</ele>
        <time>2022-05-21 10:39:08</time>
      </trkpt>
      <trkpt lat="42.33167" lon="3.2052">
        <ele>10</ele>
        <time>2022-05-21 10:39:09</time>
      </trkpt>
      <trkpt lat="42.33173" lon="3.20519">
        <ele>10</ele>
        <time>2022-05-21 10:39:10</time>
      </trkpt>
      <trkpt lat="42.3318" lon="3.20518">
        <ele>9.8</ele>
        <time>2022-05-21 10:39:11</time>
      </trkpt>
      <trkpt lat="42.33186" lon="3.20517">
        <ele>9.8</ele>
        <time>2022-05-21 10:39:12</time>
      </trkpt>
      <trkpt lat="42.33193" lon="3.20516">
        <ele>9.8</ele>
        <time>2022-05-21 10:39:13</time>
      </trkpt>
      <trkpt lat="42.33198" lon="3.20517">
        <ele>9.8</ele>
        <time>2022-05-21 10:39:14</time>
      </trkpt>
      <trkpt lat="42.33207" lon="3.20518">
        <ele>9.8</ele>
        <time>2022-05-21 10:39:15</time>
      </trkpt>
      <trkpt lat="42.33212" lon="3.20517">
        <ele>10</ele>
        <time>2022-05-21 10:39:16</time>
      </trkpt>
      <trkpt lat="42.33219" lon="3.20513">
        <ele>10</ele>
        <time>2022-05-21 10:39:17</time>
      </trkpt>
      <trkpt lat="42.33224" lon="3.20509">
        <ele>9.8</ele>
        <time>2022-05-21 10:39:18</time>
      </trkpt>
      <trkpt lat="42.3323" lon="3.20503">
        <ele>9.8</ele>
        <time>2022-05-21 10:39:19</time>
      </trkpt>
      <trkpt lat="42.33234" lon="3.20498">
        <ele>9.6</ele>
        <time>2022-05-21 10:39:20</time>
      </trkpt>
      <trkpt lat="42.33241" lon="3.20492">
        <ele>9.6</ele>
        <time>2022-05-21 10:39:21</time>
      </trkpt>
      <trkpt lat="42.33247" lon="3.20488">
        <ele>9.4</ele>
        <time>2022-05-21 10:39:22</time>
      </trkpt>
      <trkpt lat="42.33254" lon="3.20485">
        <ele>9.4</ele>
        <time>2022-05-21 10:39:23</time>
      </trkpt>
      <trkpt lat="42.33259" lon="3.20482">
        <ele>9.2</ele>
        <time>2022-05-21 10:39:24</time>
      </trkpt>
      <trkpt lat="42.33266" lon="3.20478">
        <ele>9.2</ele>
        <time>2022-05-21 10:39:25</time>
      </trkpt>
      <trkpt lat="42.33272" lon="3.20476">
        <ele>9.2</ele>
        <time>2022-05-21 10:39:26</time>
      </trkpt>
      <trkpt lat="42.33278" lon="3.20472">
        <ele>9.2</ele>
        <time>2022-05-21 10:39:27</time>
      </trkpt>
      <trkpt lat="42.33284" lon="3.20469">
        <ele>9</ele>
        <time>2022-05-21 10:39:28</time>
      </trkpt>
      <trkpt lat="42.33291" lon="3.20466">
        <ele>9</ele>
        <time>2022-05-21 10:39:29</time>
      </trkpt>
      <trkpt lat="42.33297" lon="3.20463">
        <ele>9</ele>
        <time>2022-05-21 10:39:30</time>
      </trkpt>
      <trkpt lat="42.33304" lon="3.2046">
        <ele>9</ele>
        <time>2022-05-21 10:39:31</time>
      </trkpt>
      <trkpt lat="42.3331" lon="3.20457">
        <ele>9</ele>
        <time>2022-05-21 10:39:32</time>
      </trkpt>
      <trkpt lat="42.33316" lon="3.20455">
        <ele>9</ele>
        <time>2022-05-21 10:39:33</time>
      </trkpt>
      <trkpt lat="42.3332" lon="3.20453">
        <ele>9</ele>
        <time>2022-05-21 10:39:34</time>
      </trkpt>
      <trkpt lat="42.33327" lon="3.2045">
        <ele>8.8</ele>
        <time>2022-05-21 10:39:35</time>
      </trkpt>
      <trkpt lat="42.33333" lon="3.20447">
        <ele>9</ele>
        <time>2022-05-21 10:39:36</time>
      </trkpt>
      <trkpt lat="42.33339" lon="3.20445">
        <ele>9</ele>
        <time>2022-05-21 10:39:37</time>
      </trkpt>
      <trkpt lat="42.33344" lon="3.20443">
        <ele>9</ele>
        <time>2022-05-21 10:39:38</time>
      </trkpt>
      <trkpt lat="42.3335" lon="3.20441">
        <ele>9</ele>
        <time>2022-05-21 10:39:39</time>
      </trkpt>
      <trkpt lat="42.33356" lon="3.20439">
        <ele>9.2</ele>
        <time>2022-05-21 10:39:40</time>
      </trkpt>
      <trkpt lat="42.33362" lon="3.20437">
        <ele>9.2</ele>
        <time>2022-05-21 10:39:41</time>
      </trkpt>
      <trkpt lat="42.33367" lon="3.20435">
        <ele>9.2</ele>
        <time>2022-05-21 10:39:42</time>
      </trkpt>
      <trkpt lat="42.33374" lon="3.20432">
        <ele>9.2</ele>
        <time>2022-05-21 10:39:43</time>
      </trkpt>
      <trkpt lat="42.33379" lon="3.2043">
        <ele>9.2</ele>
        <time>2022-05-21 10:39:44</time>
      </trkpt>
      <trkpt lat="42.33385" lon="3.20427">
        <ele>9.2</ele>
        <time>2022-05-21 10:39:45</time>
      </trkpt>
      <trkpt lat="42.33391" lon="3.20425">
        <ele>9.2</ele>
        <time>2022-05-21 10:39:46</time>
      </trkpt>
      <trkpt lat="42.33397" lon="3.20423">
        <ele>9.2</ele>
        <time>2022-05-21 10:39:47</time>
      </trkpt>
      <trkpt lat="42.33402" lon="3.20422">
        <ele>9.2</ele>
        <time>2022-05-21 10:39:48</time>
      </trkpt>
      <trkpt lat="42.33407" lon="3.2042">
        <ele>9.2</ele>
        <time>2022-05-21 10:39:49</time>
      </trkpt>
      <trkpt lat="42.33411" lon="3.20418">
        <ele>9.2</ele>
        <time>2022-05-21 10:39:50</time>
      </trkpt>
      <trkpt lat="42.33418" lon="3.20415">
        <ele>9.2</ele>
        <time>2022-05-21 10:39:51</time>
      </trkpt>
      <trkpt lat="42.33423" lon="3.20413">
        <ele>9</ele>
        <time>2022-05-21 10:39:52</time>
      </trkpt>
      <trkpt lat="42.33429" lon="3.20411">
        <ele>9</ele>
        <time>2022-05-21 10:39:53</time>
      </trkpt>
      <trkpt lat="42.33434" lon="3.20408">
        <ele>9</ele>
        <time>2022-05-21 10:39:54</time>
      </trkpt>
      <trkpt lat="42.33439" lon="3.20407">
        <ele>9</ele>
        <time>2022-05-21 10:39:55</time>
      </trkpt>
      <trkpt lat="42.33442" lon="3.20406">
        <ele>9</ele>
        <time>2022-05-21 10:39:56</time>
      </trkpt>
      <trkpt lat="42.33451" lon="3.20403">
        <ele>9</ele>
        <time>2022-05-21 10:39:57</time>
      </trkpt>
      <trkpt lat="42.33457" lon="3.204">
        <ele>9</ele>
        <time>2022-05-21 10:39:58</time>
      </trkpt>
      <trkpt lat="42.33463" lon="3.20398">
        <ele>9</ele>
        <time>2022-05-21 10:39:59</time>
      </trkpt>
      <trkpt lat="42.33467" lon="3.20396">
        <ele>8.8</ele>
        <time>2022-05-21 10:40:00</time>
      </trkpt>
      <trkpt lat="42.33475" lon="3.20393">
        <ele>8.8</ele>
        <time>2022-05-21 10:40:01</time>
      </trkpt>
      <trkpt lat="42.33481" lon="3.2039">
        <ele>8.8</ele>
        <time>2022-05-21 10:40:02</time>
      </trkpt>
      <trkpt lat="42.33486" lon="3.20387">
        <ele>8.8</ele>
        <time>2022-05-21 10:40:03</time>
      </trkpt>
      <trkpt lat="42.3349" lon="3.20384">
        <ele>8.8</ele>
        <time>2022-05-21 10:40:04</time>
      </trkpt>
      <trkpt lat="42.33496" lon="3.2038">
        <ele>8.8</ele>
        <time>2022-05-21 10:40:05</time>
      </trkpt>
      <trkpt lat="42.33501" lon="3.20377">
        <ele>8.8</ele>
        <time>2022-05-21 10:40:06</time>
      </trkpt>
      <trkpt lat="42.33506" lon="3.20373">
        <ele>8.6</ele>
        <time>2022-05-21 10:40:07</time>
      </trkpt>
      <trkpt lat="42.33512" lon="3.20368">
        <ele>8.6</ele>
        <time>2022-05-21 10:40:08</time>
      </trkpt>
      <trkpt lat="42.33516" lon="3.20362">
        <ele>8.6</ele>
        <time>2022-05-21 10:40:09</time>
      </trkpt>
      <trkpt lat="42.3352" lon="3.20356">
        <ele>8.6</ele>
        <time>2022-05-21 10:40:10</time>
      </trkpt>
      <trkpt lat="42.33524" lon="3.2035">
        <ele>8.4</ele>
        <time>2022-05-21 10:40:11</time>
      </trkpt>
      <trkpt lat="42.33528" lon="3.20343">
        <ele>8.2</ele>
        <time>2022-05-21 10:40:12</time>
      </trkpt>
      <trkpt lat="42.33532" lon="3.20337">
        <ele>8.2</ele>
        <time>2022-05-21 10:40:13</time>
      </trkpt>
      <trkpt lat="42.33535" lon="3.20331">
        <ele>8.2</ele>
        <time>2022-05-21 10:40:14</time>
      </trkpt>
      <trkpt lat="42.33538" lon="3.20324">
        <ele>8.2</ele>
        <time>2022-05-21 10:40:15</time>
      </trkpt>
      <trkpt lat="42.33542" lon="3.20318">
        <ele>8</ele>
        <time>2022-05-21 10:40:16</time>
      </trkpt>
      <trkpt lat="42.33545" lon="3.20312">
        <ele>8</ele>
        <time>2022-05-21 10:40:17</time>
      </trkpt>
      <trkpt lat="42.33548" lon="3.20306">
        <ele>8</ele>
        <time>2022-05-21 10:40:18</time>
      </trkpt>
      <trkpt lat="42.33551" lon="3.20301">
        <ele>8</ele>
        <time>2022-05-21 10:40:19</time>
      </trkpt>
      <trkpt lat="42.33554" lon="3.20295">
        <ele>7.8</ele>
        <time>2022-05-21 10:40:20</time>
      </trkpt>
      <trkpt lat="42.33556" lon="3.20289">
        <ele>7.8</ele>
        <time>2022-05-21 10:40:21</time>
      </trkpt>
      <trkpt lat="42.33557" lon="3.20283">
        <ele>8</ele>
        <time>2022-05-21 10:40:22</time>
      </trkpt>
      <trkpt lat="42.33558" lon="3.20277">
        <ele>7.8</ele>
        <time>2022-05-21 10:40:23</time>
      </trkpt>
      <trkpt lat="42.33556" lon="3.2027">
        <ele>7.8</ele>
        <time>2022-05-21 10:40:24</time>
      </trkpt>
      <trkpt lat="42.33554" lon="3.20263">
        <ele>7.8</ele>
        <time>2022-05-21 10:40:25</time>
      </trkpt>
      <trkpt lat="42.33551" lon="3.20257">
        <ele>7.6</ele>
        <time>2022-05-21 10:40:26</time>
      </trkpt>
      <trkpt lat="42.33549" lon="3.2025">
        <ele>7.6</ele>
        <time>2022-05-21 10:40:27</time>
      </trkpt>
      <trkpt lat="42.33546" lon="3.20243">
        <ele>7.6</ele>
        <time>2022-05-21 10:40:28</time>
      </trkpt>
      <trkpt lat="42.33543" lon="3.20237">
        <ele>7.6</ele>
        <time>2022-05-21 10:40:29</time>
      </trkpt>
      <trkpt lat="42.33541" lon="3.20229">
        <ele>7.6</ele>
        <time>2022-05-21 10:40:30</time>
      </trkpt>
      <trkpt lat="42.33539" lon="3.20222">
        <ele>7.6</ele>
        <time>2022-05-21 10:40:31</time>
      </trkpt>
      <trkpt lat="42.33538" lon="3.20215">
        <ele>7.6</ele>
        <time>2022-05-21 10:40:32</time>
      </trkpt>
      <trkpt lat="42.33536" lon="3.20208">
        <ele>7.8</ele>
        <time>2022-05-21 10:40:33</time>
      </trkpt>
      <trkpt lat="42.33534" lon="3.20201">
        <ele>7.8</ele>
        <time>2022-05-21 10:40:34</time>
      </trkpt>
      <trkpt lat="42.33532" lon="3.20195">
        <ele>7.8</ele>
        <time>2022-05-21 10:40:35</time>
      </trkpt>
      <trkpt lat="42.3353" lon="3.20189">
        <ele>8</ele>
        <time>2022-05-21 10:40:36</time>
      </trkpt>
      <trkpt lat="42.33528" lon="3.20183">
        <ele>8</ele>
        <time>2022-05-21 10:40:37</time>
      </trkpt>
      <trkpt lat="42.33527" lon="3.20178">
        <ele>8.2</ele>
        <time>2022-05-21 10:40:38</time>
      </trkpt>
      <trkpt lat="42.33525" lon="3.20173">
        <ele>8.4</ele>
        <time>2022-05-21 10:40:39</time>
      </trkpt>
      <trkpt lat="42.33525" lon="3.20169">
        <ele>8.4</ele>
        <time>2022-05-21 10:40:40</time>
      </trkpt>
      <trkpt lat="42.33524" lon="3.20166">
        <ele>8.6</ele>
        <time>2022-05-21 10:40:41</time>
      </trkpt>
      <trkpt lat="42.33523" lon="3.20164">
        <ele>8.6</ele>
        <time>2022-05-21 10:40:42</time>
      </trkpt>
      <trkpt lat="42.33522" lon="3.20161">
        <ele>8.8</ele>
        <time>2022-05-21 10:40:43</time>
      </trkpt>
      <trkpt lat="42.33521" lon="3.20158">
        <ele>8.8</ele>
        <time>2022-05-21 10:40:44</time>
      </trkpt>
      <trkpt lat="42.3352" lon="3.20154">
        <ele>8.8</ele>
        <time>2022-05-21 10:40:45</time>
      </trkpt>
      <trkpt lat="42.33519" lon="3.2015">
        <ele>9</ele>
        <time>2022-05-21 10:40:46</time>
      </trkpt>
      <trkpt lat="42.33518" lon="3.20145">
        <ele>9</ele>
        <time>2022-05-21 10:40:47</time>
      </trkpt>
      <trkpt lat="42.33516" lon="3.2014">
        <ele>9.2</ele>
        <time>2022-05-21 10:40:48</time>
      </trkpt>
      <trkpt lat="42.33515" lon="3.20135">
        <ele>9.2</ele>
        <time>2022-05-21 10:40:49</time>
      </trkpt>
      <trkpt lat="42.33513" lon="3.2013">
        <ele>9.2</ele>
        <time>2022-05-21 10:40:50</time>
      </trkpt>
      <trkpt lat="42.33512" lon="3.20125">
        <ele>9.2</ele>
        <time>2022-05-21 10:40:51</time>
      </trkpt>
      <trkpt lat="42.3351" lon="3.2012">
        <ele>9.4</ele>
        <time>2022-05-21 10:40:52</time>
      </trkpt>
      <trkpt lat="42.33508" lon="3.20114">
        <ele>9.4</ele>
        <time>2022-05-21 10:40:53</time>
      </trkpt>
      <trkpt lat="42.33506" lon="3.20109">
        <ele>9.6</ele>
        <time>2022-05-21 10:40:54</time>
      </trkpt>
      <trkpt lat="42.33505" lon="3.20103">
        <ele>9.6</ele>
        <time>2022-05-21 10:40:55</time>
      </trkpt>
      <trkpt lat="42.33503" lon="3.20097">
        <ele>9.8</ele>
        <time>2022-05-21 10:40:56</time>
      </trkpt>
      <trkpt lat="42.33501" lon="3.20091">
        <ele>9.8</ele>
        <time>2022-05-21 10:40:57</time>
      </trkpt>
      <trkpt lat="42.335" lon="3.20086">
        <ele>10</ele>
        <time>2022-05-21 10:40:58</time>
      </trkpt>
      <trkpt lat="42.33498" lon="3.2008">
        <ele>10.2</ele>
        <time>2022-05-21 10:40:59</time>
      </trkpt>
      <trkpt lat="42.33497" lon="3.20074">
        <ele>10.4</ele>
        <time>2022-05-21 10:41:00</time>
      </trkpt>
      <trkpt lat="42.33495" lon="3.20068">
        <ele>10.6</ele>
        <time>2022-05-21 10:41:01</time>
      </trkpt>
      <trkpt lat="42.33493" lon="3.20062">
        <ele>10.6</ele>
        <time>2022-05-21 10:41:02</time>
      </trkpt>
      <trkpt lat="42.33491" lon="3.20057">
        <ele>10.8</ele>
        <time>2022-05-21 10:41:03</time>
      </trkpt>
      <trkpt lat="42.3349" lon="3.20051">
        <ele>11</ele>
        <time>2022-05-21 10:41:04</time>
      </trkpt>
      <trkpt lat="42.33488" lon="3.20045">
        <ele>11</ele>
        <time>2022-05-21 10:41:05</time>
      </trkpt>
      <trkpt lat="42.33486" lon="3.20039">
        <ele>11</ele>
        <time>2022-05-21 10:41:06</time>
      </trkpt>
      <trkpt lat="42.33485" lon="3.20032">
        <ele>11</ele>
        <time>2022-05-21 10:41:07</time>
      </trkpt>
      <trkpt lat="42.33483" lon="3.20025">
        <ele>11</ele>
        <time>2022-05-21 10:41:08</time>
      </trkpt>
      <trkpt lat="42.3348" lon="3.20018">
        <ele>10.8</ele>
        <time>2022-05-21 10:41:09</time>
      </trkpt>
      <trkpt lat="42.33478" lon="3.20011">
        <ele>10.8</ele>
        <time>2022-05-21 10:41:10</time>
      </trkpt>
      <trkpt lat="42.33476" lon="3.20003">
        <ele>10.6</ele>
        <time>2022-05-21 10:41:11</time>
      </trkpt>
      <trkpt lat="42.33474" lon="3.19995">
        <ele>10.4</ele>
        <time>2022-05-21 10:41:12</time>
      </trkpt>
      <trkpt lat="42.33471" lon="3.19987">
        <ele>10.2</ele>
        <time>2022-05-21 10:41:13</time>
      </trkpt>
      <trkpt lat="42.33469" lon="3.19979">
        <ele>10.2</ele>
        <time>2022-05-21 10:41:14</time>
      </trkpt>
      <trkpt lat="42.33467" lon="3.19972">
        <ele>10</ele>
        <time>2022-05-21 10:41:15</time>
      </trkpt>
      <trkpt lat="42.33464" lon="3.19962">
        <ele>9.6</ele>
        <time>2022-05-21 10:41:16</time>
      </trkpt>
      <trkpt lat="42.33461" lon="3.19953">
        <ele>9.4</ele>
        <time>2022-05-21 10:41:17</time>
      </trkpt>
      <trkpt lat="42.33459" lon="3.19944">
        <ele>9.2</ele>
        <time>2022-05-21 10:41:18</time>
      </trkpt>
      <trkpt lat="42.33457" lon="3.19935">
        <ele>8.8</ele>
        <time>2022-05-21 10:41:19</time>
      </trkpt>
      <trkpt lat="42.33454" lon="3.19927">
        <ele>8.6</ele>
        <time>2022-05-21 10:41:20</time>
      </trkpt>
      <trkpt lat="42.33452" lon="3.19919">
        <ele>8.4</ele>
        <time>2022-05-21 10:41:21</time>
      </trkpt>
      <trkpt lat="42.33448" lon="3.19908">
        <ele>8.2</ele>
        <time>2022-05-21 10:41:22</time>
      </trkpt>
      <trkpt lat="42.33446" lon="3.19899">
        <ele>8</ele>
        <time>2022-05-21 10:41:23</time>
      </trkpt>
      <trkpt lat="42.33443" lon="3.19889">
        <ele>8</ele>
        <time>2022-05-21 10:41:24</time>
      </trkpt>
      <trkpt lat="42.3344" lon="3.1988">
        <ele>8</ele>
        <time>2022-05-21 10:41:25</time>
      </trkpt>
      <trkpt lat="42.33437" lon="3.1987">
        <ele>8</ele>
        <time>2022-05-21 10:41:26</time>
      </trkpt>
      <trkpt lat="42.33435" lon="3.19862">
        <ele>8</ele>
        <time>2022-05-21 10:41:27</time>
      </trkpt>
      <trkpt lat="42.33432" lon="3.19853">
        <ele>8</ele>
        <time>2022-05-21 10:41:28</time>
      </trkpt>
      <trkpt lat="42.33429" lon="3.19844">
        <ele>8</ele>
        <time>2022-05-21 10:41:29</time>
      </trkpt>
      <trkpt lat="42.33426" lon="3.19835">
        <ele>8</ele>
        <time>2022-05-21 10:41:30</time>
      </trkpt>
      <trkpt lat="42.33424" lon="3.19827">
        <ele>8.2</ele>
        <time>2022-05-21 10:41:31</time>
      </trkpt>
      <trkpt lat="42.33421" lon="3.19819">
        <ele>8.4</ele>
        <time>2022-05-21 10:41:32</time>
      </trkpt>
      <trkpt lat="42.33419" lon="3.19811">
        <ele>8.6</ele>
        <time>2022-05-21 10:41:33</time>
      </trkpt>
      <trkpt lat="42.33417" lon="3.19803">
        <ele>8.8</ele>
        <time>2022-05-21 10:41:34</time>
      </trkpt>
      <trkpt lat="42.33415" lon="3.19796">
        <ele>9</ele>
        <time>2022-05-21 10:41:35</time>
      </trkpt>
      <trkpt lat="42.33414" lon="3.19788">
        <ele>9.2</ele>
        <time>2022-05-21 10:41:36</time>
      </trkpt>
      <trkpt lat="42.33414" lon="3.19781">
        <ele>9.4</ele>
        <time>2022-05-21 10:41:37</time>
      </trkpt>
      <trkpt lat="42.33414" lon="3.19773">
        <ele>9.6</ele>
        <time>2022-05-21 10:41:38</time>
      </trkpt>
      <trkpt lat="42.33416" lon="3.19766">
        <ele>9.8</ele>
        <time>2022-05-21 10:41:39</time>
      </trkpt>
      <trkpt lat="42.33417" lon="3.1976">
        <ele>10</ele>
        <time>2022-05-21 10:41:40</time>
      </trkpt>
      <trkpt lat="42.33419" lon="3.19755">
        <ele>10</ele>
        <time>2022-05-21 10:41:41</time>
      </trkpt>
      <trkpt lat="42.33421" lon="3.19747">
        <ele>10.2</ele>
        <time>2022-05-21 10:41:42</time>
      </trkpt>
      <trkpt lat="42.33423" lon="3.19741">
        <ele>10.2</ele>
        <time>2022-05-21 10:41:43</time>
      </trkpt>
      <trkpt lat="42.33426" lon="3.19735">
        <ele>10.4</ele>
        <time>2022-05-21 10:41:44</time>
      </trkpt>
      <trkpt lat="42.33428" lon="3.1973">
        <ele>10.4</ele>
        <time>2022-05-21 10:41:45</time>
      </trkpt>
      <trkpt lat="42.3343" lon="3.19724">
        <ele>10.6</ele>
        <time>2022-05-21 10:41:46</time>
      </trkpt>
      <trkpt lat="42.33432" lon="3.1972">
        <ele>10.6</ele>
        <time>2022-05-21 10:41:47</time>
      </trkpt>
      <trkpt lat="42.33433" lon="3.19716">
        <ele>10.8</ele>
        <time>2022-05-21 10:41:48</time>
      </trkpt>
      <trkpt lat="42.33432" lon="3.19713">
        <ele>11</ele>
        <time>2022-05-21 10:41:49</time>
      </trkpt>
      <trkpt lat="42.3343" lon="3.19711">
        <ele>11</ele>
        <time>2022-05-21 10:41:50</time>
      </trkpt>
      <trkpt lat="42.33427" lon="3.1971">
        <ele>11.2</ele>
        <time>2022-05-21 10:41:51</time>
      </trkpt>
      <trkpt lat="42.33423" lon="3.19711">
        <ele>11.2</ele>
        <time>2022-05-21 10:41:52</time>
      </trkpt>
      <trkpt lat="42.3342" lon="3.19711">
        <ele>11.2</ele>
        <time>2022-05-21 10:41:53</time>
      </trkpt>
      <trkpt lat="42.33416" lon="3.19712">
        <ele>11.2</ele>
        <time>2022-05-21 10:41:54</time>
      </trkpt>
      <trkpt lat="42.33411" lon="3.19712">
        <ele>11.2</ele>
        <time>2022-05-21 10:41:55</time>
      </trkpt>
      <trkpt lat="42.33407" lon="3.19712">
        <ele>11.2</ele>
        <time>2022-05-21 10:41:56</time>
      </trkpt>
      <trkpt lat="42.33402" lon="3.1971">
        <ele>11.2</ele>
        <time>2022-05-21 10:41:57</time>
      </trkpt>
      <trkpt lat="42.33398" lon="3.19707">
        <ele>11.2</ele>
        <time>2022-05-21 10:41:58</time>
      </trkpt>
      <trkpt lat="42.33395" lon="3.19704">
        <ele>11.4</ele>
        <time>2022-05-21 10:41:59</time>
      </trkpt>
      <trkpt lat="42.33393" lon="3.19699">
        <ele>11.4</ele>
        <time>2022-05-21 10:42:00</time>
      </trkpt>
      <trkpt lat="42.33391" lon="3.19695">
        <ele>11.8</ele>
        <time>2022-05-21 10:42:01</time>
      </trkpt>
      <trkpt lat="42.3339" lon="3.19691">
        <ele>12</ele>
        <time>2022-05-21 10:42:02</time>
      </trkpt>
      <trkpt lat="42.33389" lon="3.19688">
        <ele>12.2</ele>
        <time>2022-05-21 10:42:03</time>
      </trkpt>
      <trkpt lat="42.33388" lon="3.19684">
        <ele>12.6</ele>
        <time>2022-05-21 10:42:04</time>
      </trkpt>
      <trkpt lat="42.33387" lon="3.19681">
        <ele>12.8</ele>
        <time>2022-05-21 10:42:05</time>
      </trkpt>
      <trkpt lat="42.33386" lon="3.19677">
        <ele>13.2</ele>
        <time>2022-05-21 10:42:06</time>
      </trkpt>
      <trkpt lat="42.33385" lon="3.19674">
        <ele>13.4</ele>
        <time>2022-05-21 10:42:07</time>
      </trkpt>
      <trkpt lat="42.33384" lon="3.19672">
        <ele>13.6</ele>
        <time>2022-05-21 10:42:08</time>
      </trkpt>
      <trkpt lat="42.33383" lon="3.19669">
        <ele>14</ele>
        <time>2022-05-21 10:42:09</time>
      </trkpt>
      <trkpt lat="42.33383" lon="3.19666">
        <ele>14.2</ele>
        <time>2022-05-21 10:42:10</time>
      </trkpt>
      <trkpt lat="42.33382" lon="3.19663">
        <ele>14.6</ele>
        <time>2022-05-21 10:42:11</time>
      </trkpt>
      <trkpt lat="42.33382" lon="3.1966">
        <ele>14.8</ele>
        <time>2022-05-21 10:42:12</time>
      </trkpt>
      <trkpt lat="42.33381" lon="3.19657">
        <ele>15</ele>
        <time>2022-05-21 10:42:13</time>
      </trkpt>
      <trkpt lat="42.33381" lon="3.19654">
        <ele>15.4</ele>
        <time>2022-05-21 10:42:14</time>
      </trkpt>
      <trkpt lat="42.3338" lon="3.19651">
        <ele>15.6</ele>
        <time>2022-05-21 10:42:15</time>
      </trkpt>
      <trkpt lat="42.3338" lon="3.19648">
        <ele>15.8</ele>
        <time>2022-05-21 10:42:16</time>
      </trkpt>
      <trkpt lat="42.33378" lon="3.19646">
        <ele>16</ele>
        <time>2022-05-21 10:42:17</time>
      </trkpt>
      <trkpt lat="42.33378" lon="3.19643">
        <ele>16.4</ele>
        <time>2022-05-21 10:42:18</time>
      </trkpt>
      <trkpt lat="42.33377" lon="3.1964">
        <ele>16.6</ele>
        <time>2022-05-21 10:42:19</time>
      </trkpt>
      <trkpt lat="42.33376" lon="3.19637">
        <ele>16.8</ele>
        <time>2022-05-21 10:42:20</time>
      </trkpt>
      <trkpt lat="42.33375" lon="3.19634">
        <ele>17</ele>
        <time>2022-05-21 10:42:21</time>
      </trkpt>
      <trkpt lat="42.33374" lon="3.19632">
        <ele>17.4</ele>
        <time>2022-05-21 10:42:22</time>
      </trkpt>
      <trkpt lat="42.33373" lon="3.19629">
        <ele>17.6</ele>
        <time>2022-05-21 10:42:23</time>
      </trkpt>
      <trkpt lat="42.33373" lon="3.19627">
        <ele>17.8</ele>
        <time>2022-05-21 10:42:24</time>
      </trkpt>
      <trkpt lat="42.33372" lon="3.19623">
        <ele>18.2</ele>
        <time>2022-05-21 10:42:25</time>
      </trkpt>
      <trkpt lat="42.33372" lon="3.1962">
        <ele>18.4</ele>
        <time>2022-05-21 10:42:26</time>
      </trkpt>
      <trkpt lat="42.33371" lon="3.19617">
        <ele>18.6</ele>
        <time>2022-05-21 10:42:27</time>
      </trkpt>
      <trkpt lat="42.3337" lon="3.19615">
        <ele>19</ele>
        <time>2022-05-21 10:42:28</time>
      </trkpt>
      <trkpt lat="42.33369" lon="3.19612">
        <ele>19.2</ele>
        <time>2022-05-21 10:42:29</time>
      </trkpt>
      <trkpt lat="42.33368" lon="3.19609">
        <ele>19.6</ele>
        <time>2022-05-21 10:42:30</time>
      </trkpt>
      <trkpt lat="42.33368" lon="3.19607">
        <ele>19.8</ele>
        <time>2022-05-21 10:42:31</time>
      </trkpt>
      <trkpt lat="42.33367" lon="3.19605">
        <ele>20.2</ele>
        <time>2022-05-21 10:42:32</time>
      </trkpt>
      <trkpt lat="42.33365" lon="3.19603">
        <ele>20.4</ele>
        <time>2022-05-21 10:42:33</time>
      </trkpt>
      <trkpt lat="42.33365" lon="3.19601">
        <ele>20.8</ele>
        <time>2022-05-21 10:42:34</time>
      </trkpt>
      <trkpt lat="42.33364" lon="3.19599">
        <ele>21.2</ele>
        <time>2022-05-21 10:42:35</time>
      </trkpt>
      <trkpt lat="42.33363" lon="3.19597">
        <ele>21.4</ele>
        <time>2022-05-21 10:42:36</time>
      </trkpt>
      <trkpt lat="42.33362" lon="3.19595">
        <ele>21.8</ele>
        <time>2022-05-21 10:42:37</time>
      </trkpt>
      <trkpt lat="42.33361" lon="3.19593">
        <ele>22.2</ele>
        <time>2022-05-21 10:42:38</time>
      </trkpt>
      <trkpt lat="42.3336" lon="3.19591">
        <ele>22.4</ele>
        <time>2022-05-21 10:42:39</time>
      </trkpt>
      <trkpt lat="42.3336" lon="3.19589">
        <ele>22.8</ele>
        <time>2022-05-21 10:42:40</time>
      </trkpt>
      <trkpt lat="42.33359" lon="3.19586">
        <ele>23.2</ele>
        <time>2022-05-21 10:42:41</time>
      </trkpt>
      <trkpt lat="42.33358" lon="3.19584">
        <ele>23.4</ele>
        <time>2022-05-21 10:42:42</time>
      </trkpt>
      <trkpt lat="42.33357" lon="3.19582">
        <ele>23.8</ele>
        <time>2022-05-21 10:42:43</time>
      </trkpt>
      <trkpt lat="42.33356" lon="3.1958">
        <ele>24</ele>
        <time>2022-05-21 10:42:44</time>
      </trkpt>
      <trkpt lat="42.33356" lon="3.19578">
        <ele>24.4</ele>
        <time>2022-05-21 10:42:45</time>
      </trkpt>
      <trkpt lat="42.33355" lon="3.19576">
        <ele>24.8</ele>
        <time>2022-05-21 10:42:46</time>
      </trkpt>
      <trkpt lat="42.33354" lon="3.19574">
        <ele>25</ele>
        <time>2022-05-21 10:42:47</time>
      </trkpt>
      <trkpt lat="42.33353" lon="3.19572">
        <ele>25.4</ele>
        <time>2022-05-21 10:42:48</time>
      </trkpt>
      <trkpt lat="42.33351" lon="3.1957">
        <ele>25.6</ele>
        <time>2022-05-21 10:42:49</time>
      </trkpt>
      <trkpt lat="42.3335" lon="3.19568">
        <ele>26</ele>
        <time>2022-05-21 10:42:50</time>
      </trkpt>
      <trkpt lat="42.33349" lon="3.19566">
        <ele>26.2</ele>
        <time>2022-05-21 10:42:51</time>
      </trkpt>
      <trkpt lat="42.33349" lon="3.19563">
        <ele>26.6</ele>
        <time>2022-05-21 10:42:52</time>
      </trkpt>
      <trkpt lat="42.33348" lon="3.19561">
        <ele>27</ele>
        <time>2022-05-21 10:42:53</time>
      </trkpt>
      <trkpt lat="42.33347" lon="3.19559">
        <ele>27.2</ele>
        <time>2022-05-21 10:42:54</time>
      </trkpt>
      <trkpt lat="42.33346" lon="3.19557">
        <ele>27.4</ele>
        <time>2022-05-21 10:42:55</time>
      </trkpt>
      <trkpt lat="42.33345" lon="3.19555">
        <ele>27.8</ele>
        <time>2022-05-21 10:42:56</time>
      </trkpt>
      <trkpt lat="42.33344" lon="3.19553">
        <ele>28.2</ele>
        <time>2022-05-21 10:42:57</time>
      </trkpt>
      <trkpt lat="42.33344" lon="3.19551">
        <ele>28.4</ele>
        <time>2022-05-21 10:42:58</time>
      </trkpt>
      <trkpt lat="42.33343" lon="3.19549">
        <ele>28.8</ele>
        <time>2022-05-21 10:42:59</time>
      </trkpt>
      <trkpt lat="42.33341" lon="3.19547">
        <ele>29</ele>
        <time>2022-05-21 10:43:00</time>
      </trkpt>
      <trkpt lat="42.3334" lon="3.19545">
        <ele>29.4</ele>
        <time>2022-05-21 10:43:01</time>
      </trkpt>
      <trkpt lat="42.33339" lon="3.19544">
        <ele>29.6</ele>
        <time>2022-05-21 10:43:02</time>
      </trkpt>
      <trkpt lat="42.33337" lon="3.19543">
        <ele>29.8</ele>
        <time>2022-05-21 10:43:03</time>
      </trkpt>
      <trkpt lat="42.33335" lon="3.19542">
        <ele>30</ele>
        <time>2022-05-21 10:43:04</time>
      </trkpt>
      <trkpt lat="42.33333" lon="3.19542">
        <ele>30.2</ele>
        <time>2022-05-21 10:43:05</time>
      </trkpt>
      <trkpt lat="42.3333" lon="3.19542">
        <ele>30.4</ele>
        <time>2022-05-21 10:43:06</time>
      </trkpt>
      <trkpt lat="42.33328" lon="3.19542">
        <ele>30.6</ele>
        <time>2022-05-21 10:43:07</time>
      </trkpt>
      <trkpt lat="42.33325" lon="3.19543">
        <ele>30.6</ele>
        <time>2022-05-21 10:43:08</time>
      </trkpt>
      <trkpt lat="42.33322" lon="3.19544">
        <ele>30.6</ele>
        <time>2022-05-21 10:43:09</time>
      </trkpt>
      <trkpt lat="42.33319" lon="3.19545">
        <ele>30.8</ele>
        <time>2022-05-21 10:43:10</time>
      </trkpt>
      <trkpt lat="42.33315" lon="3.19547">
        <ele>30.8</ele>
        <time>2022-05-21 10:43:11</time>
      </trkpt>
      <trkpt lat="42.33311" lon="3.19548">
        <ele>30.8</ele>
        <time>2022-05-21 10:43:12</time>
      </trkpt>
      <trkpt lat="42.33307" lon="3.1955">
        <ele>30.8</ele>
        <time>2022-05-21 10:43:13</time>
      </trkpt>
      <trkpt lat="42.33303" lon="3.19551">
        <ele>30.8</ele>
        <time>2022-05-21 10:43:14</time>
      </trkpt>
      <trkpt lat="42.33298" lon="3.19552">
        <ele>30.8</ele>
        <time>2022-05-21 10:43:15</time>
      </trkpt>
      <trkpt lat="42.33294" lon="3.19553">
        <ele>30.8</ele>
        <time>2022-05-21 10:43:16</time>
      </trkpt>
      <trkpt lat="42.33289" lon="3.19554">
        <ele>30.8</ele>
        <time>2022-05-21 10:43:17</time>
      </trkpt>
      <trkpt lat="42.33285" lon="3.19554">
        <ele>30.8</ele>
        <time>2022-05-21 10:43:18</time>
      </trkpt>
      <trkpt lat="42.33281" lon="3.19555">
        <ele>31</ele>
        <time>2022-05-21 10:43:19</time>
      </trkpt>
      <trkpt lat="42.33277" lon="3.19555">
        <ele>31</ele>
        <time>2022-05-21 10:43:20</time>
      </trkpt>
      <trkpt lat="42.33273" lon="3.19555">
        <ele>31.2</ele>
        <time>2022-05-21 10:43:21</time>
      </trkpt>
      <trkpt lat="42.33269" lon="3.19555">
        <ele>31.2</ele>
        <time>2022-05-21 10:43:22</time>
      </trkpt>
      <trkpt lat="42.33264" lon="3.19554">
        <ele>31.4</ele>
        <time>2022-05-21 10:43:23</time>
      </trkpt>
      <trkpt lat="42.3326" lon="3.19552">
        <ele>31.4</ele>
        <time>2022-05-21 10:43:24</time>
      </trkpt>
      <trkpt lat="42.33255" lon="3.19551">
        <ele>31.6</ele>
        <time>2022-05-21 10:43:25</time>
      </trkpt>
      <trkpt lat="42.33251" lon="3.19549">
        <ele>31.8</ele>
        <time>2022-05-21 10:43:26</time>
      </trkpt>
      <trkpt lat="42.33247" lon="3.19547">
        <ele>31.8</ele>
        <time>2022-05-21 10:43:27</time>
      </trkpt>
      <trkpt lat="42.33244" lon="3.19546">
        <ele>32.2</ele>
        <time>2022-05-21 10:43:28</time>
      </trkpt>
      <trkpt lat="42.33241" lon="3.19544">
        <ele>32.4</ele>
        <time>2022-05-21 10:43:29</time>
      </trkpt>
      <trkpt lat="42.33239" lon="3.19543">
        <ele>32.6</ele>
        <time>2022-05-21 10:43:30</time>
      </trkpt>
      <trkpt lat="42.33236" lon="3.1954">
        <ele>33</ele>
        <time>2022-05-21 10:43:31</time>
      </trkpt>
      <trkpt lat="42.33235" lon="3.19537">
        <ele>33.4</ele>
        <time>2022-05-21 10:43:32</time>
      </trkpt>
      <trkpt lat="42.33234" lon="3.19535">
        <ele>33.8</ele>
        <time>2022-05-21 10:43:33</time>
      </trkpt>
      <trkpt lat="42.33233" lon="3.19532">
        <ele>34</ele>
        <time>2022-05-21 10:43:34</time>
      </trkpt>
      <trkpt lat="42.33232" lon="3.19529">
        <ele>34.4</ele>
        <time>2022-05-21 10:43:35</time>
      </trkpt>
      <trkpt lat="42.33231" lon="3.19526">
        <ele>34.8</ele>
        <time>2022-05-21 10:43:36</time>
      </trkpt>
      <trkpt lat="42.3323" lon="3.19523">
        <ele>35.2</ele>
        <time>2022-05-21 10:43:37</time>
      </trkpt>
      <trkpt lat="42.33229" lon="3.1952">
        <ele>35.6</ele>
        <time>2022-05-21 10:43:38</time>
      </trkpt>
      <trkpt lat="42.33228" lon="3.19518">
        <ele>35.8</ele>
        <time>2022-05-21 10:43:39</time>
      </trkpt>
      <trkpt lat="42.33228" lon="3.19514">
        <ele>36.2</ele>
        <time>2022-05-21 10:43:40</time>
      </trkpt>
      <trkpt lat="42.33227" lon="3.19511">
        <ele>36.4</ele>
        <time>2022-05-21 10:43:41</time>
      </trkpt>
      <trkpt lat="42.33226" lon="3.19508">
        <ele>36.6</ele>
        <time>2022-05-21 10:43:42</time>
      </trkpt>
      <trkpt lat="42.33225" lon="3.19505">
        <ele>37</ele>
        <time>2022-05-21 10:43:43</time>
      </trkpt>
      <trkpt lat="42.33224" lon="3.19501">
        <ele>37.2</ele>
        <time>2022-05-21 10:43:44</time>
      </trkpt>
      <trkpt lat="42.33223" lon="3.19498">
        <ele>37.4</ele>
        <time>2022-05-21 10:43:45</time>
      </trkpt>
      <trkpt lat="42.33221" lon="3.19496">
        <ele>37.6</ele>
        <time>2022-05-21 10:43:46</time>
      </trkpt>
      <trkpt lat="42.33219" lon="3.19493">
        <ele>37.8</ele>
        <time>2022-05-21 10:43:47</time>
      </trkpt>
      <trkpt lat="42.33217" lon="3.19491">
        <ele>38</ele>
        <time>2022-05-21 10:43:48</time>
      </trkpt>
      <trkpt lat="42.33215" lon="3.19489">
        <ele>38.2</ele>
        <time>2022-05-21 10:43:49</time>
      </trkpt>
      <trkpt lat="42.33213" lon="3.19488">
        <ele>38.2</ele>
        <time>2022-05-21 10:43:50</time>
      </trkpt>
      <trkpt lat="42.33211" lon="3.19486">
        <ele>38.4</ele>
        <time>2022-05-21 10:43:51</time>
      </trkpt>
      <trkpt lat="42.33208" lon="3.19485">
        <ele>38.6</ele>
        <time>2022-05-21 10:43:52</time>
      </trkpt>
      <trkpt lat="42.33205" lon="3.19483">
        <ele>38.8</ele>
        <time>2022-05-21 10:43:53</time>
      </trkpt>
      <trkpt lat="42.33202" lon="3.19481">
        <ele>39</ele>
        <time>2022-05-21 10:43:54</time>
      </trkpt>
      <trkpt lat="42.332" lon="3.1948">
        <ele>39.2</ele>
        <time>2022-05-21 10:43:55</time>
      </trkpt>
      <trkpt lat="42.33197" lon="3.19478">
        <ele>39.4</ele>
        <time>2022-05-21 10:43:56</time>
      </trkpt>
      <trkpt lat="42.33194" lon="3.19476">
        <ele>39.6</ele>
        <time>2022-05-21 10:43:57</time>
      </trkpt>
      <trkpt lat="42.33191" lon="3.19473">
        <ele>39.6</ele>
        <time>2022-05-21 10:43:58</time>
      </trkpt>
      <trkpt lat="42.33189" lon="3.19471">
        <ele>39.8</ele>
        <time>2022-05-21 10:43:59</time>
      </trkpt>
      <trkpt lat="42.33186" lon="3.19468">
        <ele>40</ele>
        <time>2022-05-21 10:44:00</time>
      </trkpt>
      <trkpt lat="42.33184" lon="3.19465">
        <ele>40</ele>
        <time>2022-05-21 10:44:01</time>
      </trkpt>
      <trkpt lat="42.33181" lon="3.19462">
        <ele>40.2</ele>
        <time>2022-05-21 10:44:02</time>
      </trkpt>
      <trkpt lat="42.33179" lon="3.1946">
        <ele>40.2</ele>
        <time>2022-05-21 10:44:03</time>
      </trkpt>
      <trkpt lat="42.33177" lon="3.19457">
        <ele>40.2</ele>
        <time>2022-05-21 10:44:04</time>
      </trkpt>
      <trkpt lat="42.33174" lon="3.19454">
        <ele>40.4</ele>
        <time>2022-05-21 10:44:05</time>
      </trkpt>
      <trkpt lat="42.33172" lon="3.19452">
        <ele>40.4</ele>
        <time>2022-05-21 10:44:06</time>
      </trkpt>
      <trkpt lat="42.33169" lon="3.1945">
        <ele>40.6</ele>
        <time>2022-05-21 10:44:07</time>
      </trkpt>
      <trkpt lat="42.33166" lon="3.19448">
        <ele>40.6</ele>
        <time>2022-05-21 10:44:08</time>
      </trkpt>
      <trkpt lat="42.33163" lon="3.19446">
        <ele>40.8</ele>
        <time>2022-05-21 10:44:09</time>
      </trkpt>
      <trkpt lat="42.3316" lon="3.19445">
        <ele>41</ele>
        <time>2022-05-21 10:44:10</time>
      </trkpt>
      <trkpt lat="42.33157" lon="3.19445">
        <ele>41</ele>
        <time>2022-05-21 10:44:11</time>
      </trkpt>
      <trkpt lat="42.33154" lon="3.19445">
        <ele>41.2</ele>
        <time>2022-05-21 10:44:12</time>
      </trkpt>
      <trkpt lat="42.33151" lon="3.19446">
        <ele>41.2</ele>
        <time>2022-05-21 10:44:13</time>
      </trkpt>
      <trkpt lat="42.33147" lon="3.19448">
        <ele>41.4</ele>
        <time>2022-05-21 10:44:14</time>
      </trkpt>
      <trkpt lat="42.33144" lon="3.1945">
        <ele>41.6</ele>
        <time>2022-05-21 10:44:15</time>
      </trkpt>
      <trkpt lat="42.33141" lon="3.19452">
        <ele>41.8</ele>
        <time>2022-05-21 10:44:16</time>
      </trkpt>
      <trkpt lat="42.33139" lon="3.19454">
        <ele>42</ele>
        <time>2022-05-21 10:44:17</time>
      </trkpt>
      <trkpt lat="42.33137" lon="3.19457">
        <ele>42.2</ele>
        <time>2022-05-21 10:44:18</time>
      </trkpt>
      <trkpt lat="42.33134" lon="3.19459">
        <ele>42.6</ele>
        <time>2022-05-21 10:44:19</time>
      </trkpt>
      <trkpt lat="42.33132" lon="3.19462">
        <ele>42.8</ele>
        <time>2022-05-21 10:44:20</time>
      </trkpt>
      <trkpt lat="42.33131" lon="3.19464">
        <ele>43.2</ele>
        <time>2022-05-21 10:44:21</time>
      </trkpt>
      <trkpt lat="42.33129" lon="3.19466">
        <ele>43.4</ele>
        <time>2022-05-21 10:44:22</time>
      </trkpt>
      <trkpt lat="42.33127" lon="3.19468">
        <ele>43.6</ele>
        <time>2022-05-21 10:44:23</time>
      </trkpt>
      <trkpt lat="42.33125" lon="3.1947">
        <ele>44</ele>
        <time>2022-05-21 10:44:24</time>
      </trkpt>
      <trkpt lat="42.33123" lon="3.19472">
        <ele>44.4</ele>
        <time>2022-05-21 10:44:25</time>
      </trkpt>
      <trkpt lat="42.33122" lon="3.19474">
        <ele>44.6</ele>
        <time>2022-05-21 10:44:26</time>
      </trkpt>
      <trkpt lat="42.3312" lon="3.19476">
        <ele>45</ele>
        <time>2022-05-21 10:44:27</time>
      </trkpt>
      <trkpt lat="42.33118" lon="3.19477">
        <ele>45.4</ele>
        <time>2022-05-21 10:44:28</time>
      </trkpt>
      <trkpt lat="42.33116" lon="3.19479">
        <ele>45.6</ele>
        <time>2022-05-21 10:44:29</time>
      </trkpt>
      <trkpt lat="42.33114" lon="3.1948">
        <ele>46</ele>
        <time>2022-05-21 10:44:30</time>
      </trkpt>
      <trkpt lat="42.33112" lon="3.19481">
        <ele>46.4</ele>
        <time>2022-05-21 10:44:31</time>
      </trkpt>
      <trkpt lat="42.3311" lon="3.19483">
        <ele>46.6</ele>
        <time>2022-05-21 10:44:32</time>
      </trkpt>
      <trkpt lat="42.33108" lon="3.19484">
        <ele>47</ele>
        <time>2022-05-21 10:44:33</time>
      </trkpt>
      <trkpt lat="42.33106" lon="3.19486">
        <ele>47.2</ele>
        <time>2022-05-21 10:44:34</time>
      </trkpt>
      <trkpt lat="42.33104" lon="3.19487">
        <ele>47.6</ele>
        <time>2022-05-21 10:44:35</time>
      </trkpt>
      <trkpt lat="42.33102" lon="3.19489">
        <ele>47.8</ele>
        <time>2022-05-21 10:44:36</time>
      </trkpt>
      <trkpt lat="42.331" lon="3.1949">
        <ele>48</ele>
        <time>2022-05-21 10:44:37</time>
      </trkpt>
      <trkpt lat="42.33098" lon="3.19491">
        <ele>48.4</ele>
        <time>2022-05-21 10:44:38</time>
      </trkpt>
      <trkpt lat="42.33096" lon="3.19493">
        <ele>48.6</ele>
        <time>2022-05-21 10:44:39</time>
      </trkpt>
      <trkpt lat="42.33094" lon="3.19494">
        <ele>48.8</ele>
        <time>2022-05-21 10:44:40</time>
      </trkpt>
      <trkpt lat="42.33091" lon="3.19495">
        <ele>49</ele>
        <time>2022-05-21 10:44:41</time>
      </trkpt>
      <trkpt lat="42.33089" lon="3.19496">
        <ele>49.4</ele>
        <time>2022-05-21 10:44:42</time>
      </trkpt>
      <trkpt lat="42.33087" lon="3.19497">
        <ele>49.6</ele>
        <time>2022-05-21 10:44:43</time>
      </trkpt>
      <trkpt lat="42.33085" lon="3.19497">
        <ele>49.8</ele>
        <time>2022-05-21 10:44:44</time>
      </trkpt>
      <trkpt lat="42.33083" lon="3.19498">
        <ele>50</ele>
        <time>2022-05-21 10:44:45</time>
      </trkpt>
      <trkpt lat="42.33081" lon="3.19498">
        <ele>50.2</ele>
        <time>2022-05-21 10:44:46</time>
      </trkpt>
      <trkpt lat="42.33079" lon="3.19498">
        <ele>50.4</ele>
        <time>2022-05-21 10:44:47</time>
      </trkpt>
      <trkpt lat="42.33077" lon="3.19499">
        <ele>50.8</ele>
        <time>2022-05-21 10:44:48</time>
      </trkpt>
      <trkpt lat="42.33074" lon="3.195">
        <ele>51</ele>
        <time>2022-05-21 10:44:49</time>
      </trkpt>
      <trkpt lat="42.33073" lon="3.19502">
        <ele>51.2</ele>
        <time>2022-05-21 10:44:50</time>
      </trkpt>
      <trkpt lat="42.33071" lon="3.19502">
        <ele>51.4</ele>
        <time>2022-05-21 10:44:51</time>
      </trkpt>
      <trkpt lat="42.33068" lon="3.19502">
        <ele>51.6</ele>
        <time>2022-05-21 10:44:52</time>
      </trkpt>
      <trkpt lat="42.33066" lon="3.19502">
        <ele>51.8</ele>
        <time>2022-05-21 10:44:53</time>
      </trkpt>
      <trkpt lat="42.33064" lon="3.19502">
        <ele>52</ele>
        <time>2022-05-21 10:44:54</time>
      </trkpt>
      <trkpt lat="42.33061" lon="3.19503">
        <ele>52.2</ele>
        <time>2022-05-21 10:44:55</time>
      </trkpt>
      <trkpt lat="42.33059" lon="3.19503">
        <ele>52.4</ele>
        <time>2022-05-21 10:44:56</time>
      </trkpt>
      <trkpt lat="42.33057" lon="3.19502">
        <ele>52.8</ele>
        <time>2022-05-21 10:44:57</time>
      </trkpt>
      <trkpt lat="42.33055" lon="3.195">
        <ele>53</ele>
        <time>2022-05-21 10:44:58</time>
      </trkpt>
      <trkpt lat="42.33053" lon="3.19499">
        <ele>53.2</ele>
        <time>2022-05-21 10:44:59</time>
      </trkpt>
      <trkpt lat="42.33051" lon="3.19498">
        <ele>53.4</ele>
        <time>2022-05-21 10:45:00</time>
      </trkpt>
      <trkpt lat="42.33049" lon="3.19497">
        <ele>53.6</ele>
        <time>2022-05-21 10:45:01</time>
      </trkpt>
      <trkpt lat="42.33047" lon="3.19495">
        <ele>53.8</ele>
        <time>2022-05-21 10:45:02</time>
      </trkpt>
      <trkpt lat="42.33046" lon="3.19494">
        <ele>54</ele>
        <time>2022-05-21 10:45:03</time>
      </trkpt>
      <trkpt lat="42.33044" lon="3.19492">
        <ele>54.2</ele>
        <time>2022-05-21 10:45:04</time>
      </trkpt>
      <trkpt lat="42.33043" lon="3.19491">
        <ele>54.4</ele>
        <time>2022-05-21 10:45:05</time>
      </trkpt>
      <trkpt lat="42.33041" lon="3.19488">
        <ele>54.6</ele>
        <time>2022-05-21 10:45:06</time>
      </trkpt>
      <trkpt lat="42.3304" lon="3.19486">
        <ele>55</ele>
        <time>2022-05-21 10:45:07</time>
      </trkpt>
      <trkpt lat="42.33039" lon="3.19483">
        <ele>55.2</ele>
        <time>2022-05-21 10:45:08</time>
      </trkpt>
      <trkpt lat="42.33039" lon="3.1948">
        <ele>55.4</ele>
        <time>2022-05-21 10:45:09</time>
      </trkpt>
      <trkpt lat="42.33038" lon="3.19477">
        <ele>55.6</ele>
        <time>2022-05-21 10:45:10</time>
      </trkpt>
      <trkpt lat="42.33037" lon="3.19474">
        <ele>55.8</ele>
        <time>2022-05-21 10:45:11</time>
      </trkpt>
      <trkpt lat="42.33037" lon="3.19471">
        <ele>56</ele>
        <time>2022-05-21 10:45:12</time>
      </trkpt>
      <trkpt lat="42.33036" lon="3.19469">
        <ele>56.2</ele>
        <time>2022-05-21 10:45:13</time>
      </trkpt>
      <trkpt lat="42.33036" lon="3.19466">
        <ele>56.4</ele>
        <time>2022-05-21 10:45:14</time>
      </trkpt>
      <trkpt lat="42.33035" lon="3.19463">
        <ele>56.4</ele>
        <time>2022-05-21 10:45:15</time>
      </trkpt>
      <trkpt lat="42.33035" lon="3.1946">
        <ele>56.6</ele>
        <time>2022-05-21 10:45:16</time>
      </trkpt>
      <trkpt lat="42.33035" lon="3.19457">
        <ele>56.8</ele>
        <time>2022-05-21 10:45:17</time>
      </trkpt>
      <trkpt lat="42.33035" lon="3.19454">
        <ele>57</ele>
        <time>2022-05-21 10:45:18</time>
      </trkpt>
      <trkpt lat="42.33035" lon="3.19451">
        <ele>57</ele>
        <time>2022-05-21 10:45:19</time>
      </trkpt>
      <trkpt lat="42.33035" lon="3.19448">
        <ele>57.2</ele>
        <time>2022-05-21 10:45:20</time>
      </trkpt>
      <trkpt lat="42.33036" lon="3.19445">
        <ele>57.4</ele>
        <time>2022-05-21 10:45:21</time>
      </trkpt>
      <trkpt lat="42.33036" lon="3.19442">
        <ele>57.4</ele>
        <time>2022-05-21 10:45:22</time>
      </trkpt>
      <trkpt lat="42.33037" lon="3.19438">
        <ele>57.6</ele>
        <time>2022-05-21 10:45:23</time>
      </trkpt>
      <trkpt lat="42.33037" lon="3.19435">
        <ele>57.6</ele>
        <time>2022-05-21 10:45:24</time>
      </trkpt>
      <trkpt lat="42.33037" lon="3.19432">
        <ele>57.8</ele>
        <time>2022-05-21 10:45:25</time>
      </trkpt>
      <trkpt lat="42.33038" lon="3.19429">
        <ele>58</ele>
        <time>2022-05-21 10:45:26</time>
      </trkpt>
      <trkpt lat="42.33038" lon="3.19426">
        <ele>58.2</ele>
        <time>2022-05-21 10:45:27</time>
      </trkpt>
      <trkpt lat="42.33038" lon="3.19423">
        <ele>58.4</ele>
        <time>2022-05-21 10:45:28</time>
      </trkpt>
      <trkpt lat="42.33038" lon="3.1942">
        <ele>58.6</ele>
        <time>2022-05-21 10:45:29</time>
      </trkpt>
      <trkpt lat="42.33038" lon="3.19417">
        <ele>58.8</ele>
        <time>2022-05-21 10:45:30</time>
      </trkpt>
      <trkpt lat="42.33038" lon="3.19414">
        <ele>59</ele>
        <time>2022-05-21 10:45:31</time>
      </trkpt>
      <trkpt lat="42.33038" lon="3.19411">
        <ele>59.2</ele>
        <time>2022-05-21 10:45:32</time>
      </trkpt>
      <trkpt lat="42.33037" lon="3.19408">
        <ele>59.4</ele>
        <time>2022-05-21 10:45:33</time>
      </trkpt>
      <trkpt lat="42.33037" lon="3.19405">
        <ele>59.6</ele>
        <time>2022-05-21 10:45:34</time>
      </trkpt>
      <trkpt lat="42.33037" lon="3.19402">
        <ele>59.8</ele>
        <time>2022-05-21 10:45:35</time>
      </trkpt>
      <trkpt lat="42.33037" lon="3.194">
        <ele>60</ele>
        <time>2022-05-21 10:45:36</time>
      </trkpt>
      <trkpt lat="42.33037" lon="3.19397">
        <ele>60.2</ele>
        <time>2022-05-21 10:45:37</time>
      </trkpt>
      <trkpt lat="42.33037" lon="3.19394">
        <ele>60.4</ele>
        <time>2022-05-21 10:45:38</time>
      </trkpt>
      <trkpt lat="42.33037" lon="3.19391">
        <ele>60.6</ele>
        <time>2022-05-21 10:45:39</time>
      </trkpt>
      <trkpt lat="42.33037" lon="3.19388">
        <ele>60.8</ele>
        <time>2022-05-21 10:45:40</time>
      </trkpt>
      <trkpt lat="42.33037" lon="3.19385">
        <ele>61</ele>
        <time>2022-05-21 10:45:41</time>
      </trkpt>
      <trkpt lat="42.33036" lon="3.19382">
        <ele>61.4</ele>
        <time>2022-05-21 10:45:42</time>
      </trkpt>
      <trkpt lat="42.33036" lon="3.19378">
        <ele>61.6</ele>
        <time>2022-05-21 10:45:43</time>
      </trkpt>
      <trkpt lat="42.33036" lon="3.19376">
        <ele>61.8</ele>
        <time>2022-05-21 10:45:44</time>
      </trkpt>
      <trkpt lat="42.33037" lon="3.19373">
        <ele>62</ele>
        <time>2022-05-21 10:45:45</time>
      </trkpt>
      <trkpt lat="42.33037" lon="3.1937">
        <ele>62.2</ele>
        <time>2022-05-21 10:45:46</time>
      </trkpt>
      <trkpt lat="42.33037" lon="3.19367">
        <ele>62.6</ele>
        <time>2022-05-21 10:45:47</time>
      </trkpt>
      <trkpt lat="42.33037" lon="3.19364">
        <ele>62.8</ele>
        <time>2022-05-21 10:45:48</time>
      </trkpt>
      <trkpt lat="42.33037" lon="3.19361">
        <ele>63</ele>
        <time>2022-05-21 10:45:49</time>
      </trkpt>
      <trkpt lat="42.33037" lon="3.19358">
        <ele>63.2</ele>
        <time>2022-05-21 10:45:50</time>
      </trkpt>
      <trkpt lat="42.33037" lon="3.19355">
        <ele>63.6</ele>
        <time>2022-05-21 10:45:51</time>
      </trkpt>
      <trkpt lat="42.33036" lon="3.19352">
        <ele>63.8</ele>
        <time>2022-05-21 10:45:52</time>
      </trkpt>
      <trkpt lat="42.33036" lon="3.19349">
        <ele>64</ele>
        <time>2022-05-21 10:45:53</time>
      </trkpt>
      <trkpt lat="42.33035" lon="3.19346">
        <ele>64.4</ele>
        <time>2022-05-21 10:45:54</time>
      </trkpt>
      <trkpt lat="42.33034" lon="3.19343">
        <ele>64.6</ele>
        <time>2022-05-21 10:45:55</time>
      </trkpt>
      <trkpt lat="42.33033" lon="3.19341">
        <ele>65</ele>
        <time>2022-05-21 10:45:56</time>
      </trkpt>
      <trkpt lat="42.33033" lon="3.19338">
        <ele>65.2</ele>
        <time>2022-05-21 10:45:57</time>
      </trkpt>
      <trkpt lat="42.33032" lon="3.19336">
        <ele>65.4</ele>
        <time>2022-05-21 10:45:58</time>
      </trkpt>
      <trkpt lat="42.3303" lon="3.19333">
        <ele>65.6</ele>
        <time>2022-05-21 10:45:59</time>
      </trkpt>
      <trkpt lat="42.33029" lon="3.1933">
        <ele>65.8</ele>
        <time>2022-05-21 10:46:00</time>
      </trkpt>
      <trkpt lat="42.33027" lon="3.19328">
        <ele>66.2</ele>
        <time>2022-05-21 10:46:01</time>
      </trkpt>
      <trkpt lat="42.33026" lon="3.19325">
        <ele>66.4</ele>
        <time>2022-05-21 10:46:02</time>
      </trkpt>
      <trkpt lat="42.33025" lon="3.19323">
        <ele>66.4</ele>
        <time>2022-05-21 10:46:03</time>
      </trkpt>
      <trkpt lat="42.33023" lon="3.19321">
        <ele>66.6</ele>
        <time>2022-05-21 10:46:04</time>
      </trkpt>
      <trkpt lat="42.33022" lon="3.19319">
        <ele>66.8</ele>
        <time>2022-05-21 10:46:05</time>
      </trkpt>
      <trkpt lat="42.3302" lon="3.19318">
        <ele>67</ele>
        <time>2022-05-21 10:46:06</time>
      </trkpt>
      <trkpt lat="42.33018" lon="3.19316">
        <ele>67.2</ele>
        <time>2022-05-21 10:46:07</time>
      </trkpt>
      <trkpt lat="42.33015" lon="3.19315">
        <ele>67.4</ele>
        <time>2022-05-21 10:46:08</time>
      </trkpt>
      <trkpt lat="42.33013" lon="3.19314">
        <ele>67.4</ele>
        <time>2022-05-21 10:46:09</time>
      </trkpt>
      <trkpt lat="42.33011" lon="3.19313">
        <ele>67.6</ele>
        <time>2022-05-21 10:46:10</time>
      </trkpt>
      <trkpt lat="42.3301" lon="3.19312">
        <ele>67.8</ele>
        <time>2022-05-21 10:46:11</time>
      </trkpt>
      <trkpt lat="42.33008" lon="3.19311">
        <ele>68</ele>
        <time>2022-05-21 10:46:12</time>
      </trkpt>
      <trkpt lat="42.33005" lon="3.19309">
        <ele>68.2</ele>
        <time>2022-05-21 10:46:13</time>
      </trkpt>
      <trkpt lat="42.33003" lon="3.19308">
        <ele>68.4</ele>
        <time>2022-05-21 10:46:14</time>
      </trkpt>
      <trkpt lat="42.33001" lon="3.19307">
        <ele>68.4</ele>
        <time>2022-05-21 10:46:15</time>
      </trkpt>
      <trkpt lat="42.32999" lon="3.19307">
        <ele>68.8</ele>
        <time>2022-05-21 10:46:16</time>
      </trkpt>
      <trkpt lat="42.32997" lon="3.19306">
        <ele>69</ele>
        <time>2022-05-21 10:46:17</time>
      </trkpt>
      <trkpt lat="42.32995" lon="3.19305">
        <ele>69.2</ele>
        <time>2022-05-21 10:46:18</time>
      </trkpt>
      <trkpt lat="42.32994" lon="3.19304">
        <ele>69.2</ele>
        <time>2022-05-21 10:46:19</time>
      </trkpt>
      <trkpt lat="42.32992" lon="3.19303">
        <ele>69.4</ele>
        <time>2022-05-21 10:46:20</time>
      </trkpt>
      <trkpt lat="42.3299" lon="3.19301">
        <ele>69.6</ele>
        <time>2022-05-21 10:46:21</time>
      </trkpt>
      <trkpt lat="42.32988" lon="3.19301">
        <ele>70</ele>
        <time>2022-05-21 10:46:22</time>
      </trkpt>
      <trkpt lat="42.32986" lon="3.193">
        <ele>70.2</ele>
        <time>2022-05-21 10:46:23</time>
      </trkpt>
      <trkpt lat="42.32983" lon="3.19299">
        <ele>70.4</ele>
        <time>2022-05-21 10:46:24</time>
      </trkpt>
      <trkpt lat="42.32981" lon="3.19298">
        <ele>70.6</ele>
        <time>2022-05-21 10:46:25</time>
      </trkpt>
      <trkpt lat="42.3298" lon="3.19297">
        <ele>70.8</ele>
        <time>2022-05-21 10:46:26</time>
      </trkpt>
      <trkpt lat="42.32978" lon="3.19295">
        <ele>71</ele>
        <time>2022-05-21 10:46:27</time>
      </trkpt>
      <trkpt lat="42.32976" lon="3.19293">
        <ele>71.4</ele>
        <time>2022-05-21 10:46:28</time>
      </trkpt>
      <trkpt lat="42.32975" lon="3.19292">
        <ele>71.6</ele>
        <time>2022-05-21 10:46:29</time>
      </trkpt>
      <trkpt lat="42.32973" lon="3.1929">
        <ele>71.8</ele>
        <time>2022-05-21 10:46:30</time>
      </trkpt>
      <trkpt lat="42.32972" lon="3.19288">
        <ele>72</ele>
        <time>2022-05-21 10:46:31</time>
      </trkpt>
      <trkpt lat="42.32972" lon="3.19285">
        <ele>72.4</ele>
        <time>2022-05-21 10:46:32</time>
      </trkpt>
      <trkpt lat="42.32971" lon="3.19283">
        <ele>72.6</ele>
        <time>2022-05-21 10:46:33</time>
      </trkpt>
      <trkpt lat="42.32971" lon="3.1928">
        <ele>73</ele>
        <time>2022-05-21 10:46:34</time>
      </trkpt>
      <trkpt lat="42.32972" lon="3.19277">
        <ele>73.2</ele>
        <time>2022-05-21 10:46:35</time>
      </trkpt>
      <trkpt lat="42.32973" lon="3.19275">
        <ele>73.6</ele>
        <time>2022-05-21 10:46:36</time>
      </trkpt>
      <trkpt lat="42.32974" lon="3.19273">
        <ele>73.8</ele>
        <time>2022-05-21 10:46:37</time>
      </trkpt>
      <trkpt lat="42.32976" lon="3.19271">
        <ele>74</ele>
        <time>2022-05-21 10:46:38</time>
      </trkpt>
      <trkpt lat="42.32977" lon="3.1927">
        <ele>74.4</ele>
        <time>2022-05-21 10:46:39</time>
      </trkpt>
      <trkpt lat="42.32979" lon="3.19269">
        <ele>74.6</ele>
        <time>2022-05-21 10:46:40</time>
      </trkpt>
      <trkpt lat="42.32981" lon="3.19268">
        <ele>74.8</ele>
        <time>2022-05-21 10:46:41</time>
      </trkpt>
      <trkpt lat="42.32984" lon="3.19268">
        <ele>75</ele>
        <time>2022-05-21 10:46:42</time>
      </trkpt>
      <trkpt lat="42.32986" lon="3.19268">
        <ele>75.2</ele>
        <time>2022-05-21 10:46:43</time>
      </trkpt>
      <trkpt lat="42.32988" lon="3.19268">
        <ele>75.6</ele>
        <time>2022-05-21 10:46:44</time>
      </trkpt>
      <trkpt lat="42.3299" lon="3.19269">
        <ele>75.8</ele>
        <time>2022-05-21 10:46:45</time>
      </trkpt>
      <trkpt lat="42.32992" lon="3.1927">
        <ele>76</ele>
        <time>2022-05-21 10:46:46</time>
      </trkpt>
      <trkpt lat="42.32995" lon="3.19272">
        <ele>76.2</ele>
        <time>2022-05-21 10:46:47</time>
      </trkpt>
      <trkpt lat="42.32997" lon="3.19273">
        <ele>76.6</ele>
        <time>2022-05-21 10:46:48</time>
      </trkpt>
      <trkpt lat="42.32999" lon="3.19275">
        <ele>76.8</ele>
        <time>2022-05-21 10:46:49</time>
      </trkpt>
      <trkpt lat="42.33001" lon="3.19276">
        <ele>77</ele>
        <time>2022-05-21 10:46:50</time>
      </trkpt>
      <trkpt lat="42.33003" lon="3.19277">
        <ele>77.2</ele>
        <time>2022-05-21 10:46:51</time>
      </trkpt>
      <trkpt lat="42.33005" lon="3.19278">
        <ele>77.4</ele>
        <time>2022-05-21 10:46:52</time>
      </trkpt>
      <trkpt lat="42.33007" lon="3.1928">
        <ele>77.4</ele>
        <time>2022-05-21 10:46:53</time>
      </trkpt>
      <trkpt lat="42.33008" lon="3.19281">
        <ele>77.8</ele>
        <time>2022-05-21 10:46:54</time>
      </trkpt>
      <trkpt lat="42.33011" lon="3.19283">
        <ele>78</ele>
        <time>2022-05-21 10:46:55</time>
      </trkpt>
      <trkpt lat="42.33013" lon="3.19284">
        <ele>78.2</ele>
        <time>2022-05-21 10:46:56</time>
      </trkpt>
      <trkpt lat="42.33016" lon="3.19286">
        <ele>78.4</ele>
        <time>2022-05-21 10:46:57</time>
      </trkpt>
      <trkpt lat="42.33018" lon="3.19287">
        <ele>78.6</ele>
        <time>2022-05-21 10:46:58</time>
      </trkpt>
      <trkpt lat="42.3302" lon="3.19289">
        <ele>78.8</ele>
        <time>2022-05-21 10:46:59</time>
      </trkpt>
      <trkpt lat="42.33022" lon="3.19291">
        <ele>78.8</ele>
        <time>2022-05-21 10:47:00</time>
      </trkpt>
      <trkpt lat="42.33025" lon="3.19292">
        <ele>79</ele>
        <time>2022-05-21 10:47:01</time>
      </trkpt>
      <trkpt lat="42.33027" lon="3.19294">
        <ele>79</ele>
        <time>2022-05-21 10:47:02</time>
      </trkpt>
      <trkpt lat="42.3303" lon="3.19296">
        <ele>79.2</ele>
        <time>2022-05-21 10:47:03</time>
      </trkpt>
      <trkpt lat="42.33033" lon="3.19298">
        <ele>79.2</ele>
        <time>2022-05-21 10:47:04</time>
      </trkpt>
      <trkpt lat="42.33035" lon="3.193">
        <ele>79.4</ele>
        <time>2022-05-21 10:47:05</time>
      </trkpt>
      <trkpt lat="42.33038" lon="3.19302">
        <ele>79.4</ele>
        <time>2022-05-21 10:47:06</time>
      </trkpt>
      <trkpt lat="42.33041" lon="3.19305">
        <ele>79.4</ele>
        <time>2022-05-21 10:47:07</time>
      </trkpt>
      <trkpt lat="42.33044" lon="3.19308">
        <ele>79.2</ele>
        <time>2022-05-21 10:47:08</time>
      </trkpt>
      <trkpt lat="42.33047" lon="3.19311">
        <ele>79.2</ele>
        <time>2022-05-21 10:47:09</time>
      </trkpt>
      <trkpt lat="42.3305" lon="3.19314">
        <ele>79.2</ele>
        <time>2022-05-21 10:47:10</time>
      </trkpt>
      <trkpt lat="42.33052" lon="3.19318">
        <ele>79.2</ele>
        <time>2022-05-21 10:47:11</time>
      </trkpt>
      <trkpt lat="42.33055" lon="3.19321">
        <ele>79.2</ele>
        <time>2022-05-21 10:47:12</time>
      </trkpt>
      <trkpt lat="42.33058" lon="3.19326">
        <ele>79.2</ele>
        <time>2022-05-21 10:47:13</time>
      </trkpt>
      <trkpt lat="42.3306" lon="3.19331">
        <ele>79</ele>
        <time>2022-05-21 10:47:14</time>
      </trkpt>
      <trkpt lat="42.33063" lon="3.19335">
        <ele>79</ele>
        <time>2022-05-21 10:47:15</time>
      </trkpt>
      <trkpt lat="42.33066" lon="3.19339">
        <ele>79</ele>
        <time>2022-05-21 10:47:16</time>
      </trkpt>
      <trkpt lat="42.33069" lon="3.19344">
        <ele>79</ele>
        <time>2022-05-21 10:47:17</time>
      </trkpt>
      <trkpt lat="42.33073" lon="3.19348">
        <ele>78.8</ele>
        <time>2022-05-21 10:47:18</time>
      </trkpt>
      <trkpt lat="42.33077" lon="3.19351">
        <ele>78.8</ele>
        <time>2022-05-21 10:47:19</time>
      </trkpt>
      <trkpt lat="42.33081" lon="3.19353">
        <ele>78.8</ele>
        <time>2022-05-21 10:47:20</time>
      </trkpt>
      <trkpt lat="42.33085" lon="3.19355">
        <ele>78.8</ele>
        <time>2022-05-21 10:47:21</time>
      </trkpt>
      <trkpt lat="42.33091" lon="3.19356">
        <ele>78.6</ele>
        <time>2022-05-21 10:47:22</time>
      </trkpt>
      <trkpt lat="42.33095" lon="3.19356">
        <ele>78.6</ele>
        <time>2022-05-21 10:47:23</time>
      </trkpt>
      <trkpt lat="42.331" lon="3.19356">
        <ele>78.6</ele>
        <time>2022-05-21 10:47:24</time>
      </trkpt>
      <trkpt lat="42.33104" lon="3.19354">
        <ele>78.8</ele>
        <time>2022-05-21 10:47:25</time>
      </trkpt>
      <trkpt lat="42.33108" lon="3.19352">
        <ele>78.8</ele>
        <time>2022-05-21 10:47:26</time>
      </trkpt>
      <trkpt lat="42.33112" lon="3.1935">
        <ele>78.8</ele>
        <time>2022-05-21 10:47:27</time>
      </trkpt>
      <trkpt lat="42.33117" lon="3.19348">
        <ele>78.8</ele>
        <time>2022-05-21 10:47:28</time>
      </trkpt>
      <trkpt lat="42.33121" lon="3.19345">
        <ele>79</ele>
        <time>2022-05-21 10:47:29</time>
      </trkpt>
      <trkpt lat="42.33125" lon="3.19343">
        <ele>79</ele>
        <time>2022-05-21 10:47:30</time>
      </trkpt>
      <trkpt lat="42.33129" lon="3.1934">
        <ele>79.2</ele>
        <time>2022-05-21 10:47:31</time>
      </trkpt>
      <trkpt lat="42.33132" lon="3.19337">
        <ele>79.2</ele>
        <time>2022-05-21 10:47:32</time>
      </trkpt>
      <trkpt lat="42.33136" lon="3.19335">
        <ele>79.4</ele>
        <time>2022-05-21 10:47:33</time>
      </trkpt>
      <trkpt lat="42.3314" lon="3.19333">
        <ele>79.6</ele>
        <time>2022-05-21 10:47:34</time>
      </trkpt>
      <trkpt lat="42.33143" lon="3.1933">
        <ele>79.6</ele>
        <time>2022-05-21 10:47:35</time>
      </trkpt>
      <trkpt lat="42.33147" lon="3.19328">
        <ele>79.8</ele>
        <time>2022-05-21 10:47:36</time>
      </trkpt>
      <trkpt lat="42.33151" lon="3.19326">
        <ele>80</ele>
        <time>2022-05-21 10:47:37</time>
      </trkpt>
      <trkpt lat="42.33154" lon="3.19324">
        <ele>80.2</ele>
        <time>2022-05-21 10:47:38</time>
      </trkpt>
      <trkpt lat="42.33157" lon="3.19322">
        <ele>80.4</ele>
        <time>2022-05-21 10:47:39</time>
      </trkpt>
      <trkpt lat="42.3316" lon="3.1932">
        <ele>80.8</ele>
        <time>2022-05-21 10:47:40</time>
      </trkpt>
      <trkpt lat="42.33163" lon="3.19317">
        <ele>81</ele>
        <time>2022-05-21 10:47:41</time>
      </trkpt>
      <trkpt lat="42.33165" lon="3.19314">
        <ele>81.2</ele>
        <time>2022-05-21 10:47:42</time>
      </trkpt>
      <trkpt lat="42.33168" lon="3.19311">
        <ele>81.6</ele>
        <time>2022-05-21 10:47:43</time>
      </trkpt>
      <trkpt lat="42.3317" lon="3.19308">
        <ele>81.8</ele>
        <time>2022-05-21 10:47:44</time>
      </trkpt>
      <trkpt lat="42.33173" lon="3.19304">
        <ele>82</ele>
        <time>2022-05-21 10:47:45</time>
      </trkpt>
      <trkpt lat="42.33175" lon="3.193">
        <ele>82.4</ele>
        <time>2022-05-21 10:47:46</time>
      </trkpt>
      <trkpt lat="42.33176" lon="3.19296">
        <ele>82.8</ele>
        <time>2022-05-21 10:47:47</time>
      </trkpt>
      <trkpt lat="42.33178" lon="3.19292">
        <ele>83.2</ele>
        <time>2022-05-21 10:47:48</time>
      </trkpt>
      <trkpt lat="42.33179" lon="3.19288">
        <ele>83.4</ele>
        <time>2022-05-21 10:47:49</time>
      </trkpt>
      <trkpt lat="42.3318" lon="3.19285">
        <ele>83.6</ele>
        <time>2022-05-21 10:47:50</time>
      </trkpt>
      <trkpt lat="42.33182" lon="3.19281">
        <ele>84</ele>
        <time>2022-05-21 10:47:51</time>
      </trkpt>
      <trkpt lat="42.33183" lon="3.19277">
        <ele>84.4</ele>
        <time>2022-05-21 10:47:52</time>
      </trkpt>
      <trkpt lat="42.33184" lon="3.19274">
        <ele>84.8</ele>
        <time>2022-05-21 10:47:53</time>
      </trkpt>
      <trkpt lat="42.33184" lon="3.19271">
        <ele>85.2</ele>
        <time>2022-05-21 10:47:54</time>
      </trkpt>
      <trkpt lat="42.33185" lon="3.19268">
        <ele>85.6</ele>
        <time>2022-05-21 10:47:55</time>
      </trkpt>
      <trkpt lat="42.33185" lon="3.19265">
        <ele>85.8</ele>
        <time>2022-05-21 10:47:56</time>
      </trkpt>
      <trkpt lat="42.33186" lon="3.19262">
        <ele>86.2</ele>
        <time>2022-05-21 10:47:57</time>
      </trkpt>
      <trkpt lat="42.33186" lon="3.1926">
        <ele>86.4</ele>
        <time>2022-05-21 10:47:58</time>
      </trkpt>
      <trkpt lat="42.33187" lon="3.19256">
        <ele>86.8</ele>
        <time>2022-05-21 10:47:59</time>
      </trkpt>
      <trkpt lat="42.33187" lon="3.19254">
        <ele>87</ele>
        <time>2022-05-21 10:48:00</time>
      </trkpt>
      <trkpt lat="42.33187" lon="3.19251">
        <ele>87.2</ele>
        <time>2022-05-21 10:48:01</time>
      </trkpt>
      <trkpt lat="42.33187" lon="3.19248">
        <ele>87.4</ele>
        <time>2022-05-21 10:48:02</time>
      </trkpt>
      <trkpt lat="42.33187" lon="3.19245">
        <ele>87.8</ele>
        <time>2022-05-21 10:48:03</time>
      </trkpt>
      <trkpt lat="42.33187" lon="3.19241">
        <ele>88</ele>
        <time>2022-05-21 10:48:04</time>
      </trkpt>
      <trkpt lat="42.33187" lon="3.19238">
        <ele>88.2</ele>
        <time>2022-05-21 10:48:05</time>
      </trkpt>
      <trkpt lat="42.33187" lon="3.19236">
        <ele>88.4</ele>
        <time>2022-05-21 10:48:06</time>
      </trkpt>
      <trkpt lat="42.33187" lon="3.19233">
        <ele>88.6</ele>
        <time>2022-05-21 10:48:07</time>
      </trkpt>
      <trkpt lat="42.33187" lon="3.19229">
        <ele>88.8</ele>
        <time>2022-05-21 10:48:08</time>
      </trkpt>
      <trkpt lat="42.33187" lon="3.19226">
        <ele>89</ele>
        <time>2022-05-21 10:48:09</time>
      </trkpt>
      <trkpt lat="42.33187" lon="3.19223">
        <ele>89.2</ele>
        <time>2022-05-21 10:48:10</time>
      </trkpt>
      <trkpt lat="42.33187" lon="3.1922">
        <ele>89.4</ele>
        <time>2022-05-21 10:48:11</time>
      </trkpt>
      <trkpt lat="42.33187" lon="3.19217">
        <ele>89.6</ele>
        <time>2022-05-21 10:48:12</time>
      </trkpt>
      <trkpt lat="42.33188" lon="3.19214">
        <ele>89.8</ele>
        <time>2022-05-21 10:48:13</time>
      </trkpt>
      <trkpt lat="42.33188" lon="3.19211">
        <ele>90</ele>
        <time>2022-05-21 10:48:14</time>
      </trkpt>
      <trkpt lat="42.33188" lon="3.19207">
        <ele>90</ele>
        <time>2022-05-21 10:48:15</time>
      </trkpt>
      <trkpt lat="42.33188" lon="3.19204">
        <ele>90.2</ele>
        <time>2022-05-21 10:48:16</time>
      </trkpt>
      <trkpt lat="42.33188" lon="3.19201">
        <ele>90.4</ele>
        <time>2022-05-21 10:48:17</time>
      </trkpt>
      <trkpt lat="42.33189" lon="3.19198">
        <ele>90.6</ele>
        <time>2022-05-21 10:48:18</time>
      </trkpt>
      <trkpt lat="42.33189" lon="3.19196">
        <ele>90.8</ele>
        <time>2022-05-21 10:48:19</time>
      </trkpt>
      <trkpt lat="42.3319" lon="3.19192">
        <ele>91</ele>
        <time>2022-05-21 10:48:20</time>
      </trkpt>
      <trkpt lat="42.33191" lon="3.19189">
        <ele>91.2</ele>
        <time>2022-05-21 10:48:21</time>
      </trkpt>
      <trkpt lat="42.33191" lon="3.19186">
        <ele>91.4</ele>
        <time>2022-05-21 10:48:22</time>
      </trkpt>
      <trkpt lat="42.33191" lon="3.19183">
        <ele>91.6</ele>
        <time>2022-05-21 10:48:23</time>
      </trkpt>
      <trkpt lat="42.33192" lon="3.19179">
        <ele>91.8</ele>
        <time>2022-05-21 10:48:24</time>
      </trkpt>
      <trkpt lat="42.33192" lon="3.19176">
        <ele>92</ele>
        <time>2022-05-21 10:48:25</time>
      </trkpt>
      <trkpt lat="42.33193" lon="3.19173">
        <ele>92</ele>
        <time>2022-05-21 10:48:26</time>
      </trkpt>
      <trkpt lat="42.33193" lon="3.19169">
        <ele>92.2</ele>
        <time>2022-05-21 10:48:27</time>
      </trkpt>
      <trkpt lat="42.33193" lon="3.19166">
        <ele>92.4</ele>
        <time>2022-05-21 10:48:28</time>
      </trkpt>
      <trkpt lat="42.33193" lon="3.19162">
        <ele>92.6</ele>
        <time>2022-05-21 10:48:29</time>
      </trkpt>
      <trkpt lat="42.33193" lon="3.19159">
        <ele>92.8</ele>
        <time>2022-05-21 10:48:30</time>
      </trkpt>
      <trkpt lat="42.33192" lon="3.19156">
        <ele>93</ele>
        <time>2022-05-21 10:48:31</time>
      </trkpt>
      <trkpt lat="42.33192" lon="3.19152">
        <ele>93.2</ele>
        <time>2022-05-21 10:48:32</time>
      </trkpt>
      <trkpt lat="42.33192" lon="3.19149">
        <ele>93.4</ele>
        <time>2022-05-21 10:48:33</time>
      </trkpt>
      <trkpt lat="42.33191" lon="3.19146">
        <ele>93.6</ele>
        <time>2022-05-21 10:48:34</time>
      </trkpt>
      <trkpt lat="42.3319" lon="3.19142">
        <ele>93.8</ele>
        <time>2022-05-21 10:48:35</time>
      </trkpt>
      <trkpt lat="42.3319" lon="3.19139">
        <ele>94</ele>
        <time>2022-05-21 10:48:36</time>
      </trkpt>
      <trkpt lat="42.33189" lon="3.19136">
        <ele>94</ele>
        <time>2022-05-21 10:48:37</time>
      </trkpt>
      <trkpt lat="42.33189" lon="3.19132">
        <ele>94.2</ele>
        <time>2022-05-21 10:48:38</time>
      </trkpt>
      <trkpt lat="42.33189" lon="3.19129">
        <ele>94.4</ele>
        <time>2022-05-21 10:48:39</time>
      </trkpt>
      <trkpt lat="42.33188" lon="3.19126">
        <ele>94.6</ele>
        <time>2022-05-21 10:48:40</time>
      </trkpt>
      <trkpt lat="42.33188" lon="3.19123">
        <ele>94.8</ele>
        <time>2022-05-21 10:48:41</time>
      </trkpt>
      <trkpt lat="42.33187" lon="3.1912">
        <ele>95</ele>
        <time>2022-05-21 10:48:42</time>
      </trkpt>
      <trkpt lat="42.33185" lon="3.19117">
        <ele>95.4</ele>
        <time>2022-05-21 10:48:43</time>
      </trkpt>
      <trkpt lat="42.33184" lon="3.19114">
        <ele>95.4</ele>
        <time>2022-05-21 10:48:44</time>
      </trkpt>
      <trkpt lat="42.33184" lon="3.19111">
        <ele>95.8</ele>
        <time>2022-05-21 10:48:45</time>
      </trkpt>
      <trkpt lat="42.33183" lon="3.19108">
        <ele>95.8</ele>
        <time>2022-05-21 10:48:46</time>
      </trkpt>
      <trkpt lat="42.33182" lon="3.19105">
        <ele>96.2</ele>
        <time>2022-05-21 10:48:47</time>
      </trkpt>
      <trkpt lat="42.33181" lon="3.19102">
        <ele>96.4</ele>
        <time>2022-05-21 10:48:48</time>
      </trkpt>
      <trkpt lat="42.3318" lon="3.19099">
        <ele>96.6</ele>
        <time>2022-05-21 10:48:49</time>
      </trkpt>
      <trkpt lat="42.33179" lon="3.19096">
        <ele>96.8</ele>
        <time>2022-05-21 10:48:50</time>
      </trkpt>
      <trkpt lat="42.33179" lon="3.19094">
        <ele>97.2</ele>
        <time>2022-05-21 10:48:51</time>
      </trkpt>
      <trkpt lat="42.33178" lon="3.1909">
        <ele>97.4</ele>
        <time>2022-05-21 10:48:52</time>
      </trkpt>
      <trkpt lat="42.33178" lon="3.19087">
        <ele>97.6</ele>
        <time>2022-05-21 10:48:53</time>
      </trkpt>
      <trkpt lat="42.33177" lon="3.19085">
        <ele>98</ele>
        <time>2022-05-21 10:48:54</time>
      </trkpt>
      <trkpt lat="42.33177" lon="3.19082">
        <ele>98.2</ele>
        <time>2022-05-21 10:48:55</time>
      </trkpt>
      <trkpt lat="42.33176" lon="3.19079">
        <ele>98.4</ele>
        <time>2022-05-21 10:48:56</time>
      </trkpt>
      <trkpt lat="42.33176" lon="3.19076">
        <ele>98.6</ele>
        <time>2022-05-21 10:48:57</time>
      </trkpt>
      <trkpt lat="42.33176" lon="3.19073">
        <ele>99</ele>
        <time>2022-05-21 10:48:58</time>
      </trkpt>
      <trkpt lat="42.33175" lon="3.1907">
        <ele>99.2</ele>
        <time>2022-05-21 10:48:59</time>
      </trkpt>
      <trkpt lat="42.33175" lon="3.19067">
        <ele>99.4</ele>
        <time>2022-05-21 10:49:00</time>
      </trkpt>
      <trkpt lat="42.33175" lon="3.19064">
        <ele>99.6</ele>
        <time>2022-05-21 10:49:01</time>
      </trkpt>
      <trkpt lat="42.33174" lon="3.19061">
        <ele>100</ele>
        <time>2022-05-21 10:49:02</time>
      </trkpt>
      <trkpt lat="42.33174" lon="3.19059">
        <ele>100.2</ele>
        <time>2022-05-21 10:49:03</time>
      </trkpt>
      <trkpt lat="42.33173" lon="3.19056">
        <ele>100.4</ele>
        <time>2022-05-21 10:49:04</time>
      </trkpt>
      <trkpt lat="42.33173" lon="3.19053">
        <ele>100.6</ele>
        <time>2022-05-21 10:49:05</time>
      </trkpt>
      <trkpt lat="42.33173" lon="3.1905">
        <ele>101</ele>
        <time>2022-05-21 10:49:06</time>
      </trkpt>
      <trkpt lat="42.33172" lon="3.19047">
        <ele>101.2</ele>
        <time>2022-05-21 10:49:07</time>
      </trkpt>
      <trkpt lat="42.33172" lon="3.19044">
        <ele>101.4</ele>
        <time>2022-05-21 10:49:08</time>
      </trkpt>
      <trkpt lat="42.33172" lon="3.19041">
        <ele>101.6</ele>
        <time>2022-05-21 10:49:09</time>
      </trkpt>
      <trkpt lat="42.33172" lon="3.19038">
        <ele>101.8</ele>
        <time>2022-05-21 10:49:10</time>
      </trkpt>
      <trkpt lat="42.33171" lon="3.19035">
        <ele>102</ele>
        <time>2022-05-21 10:49:11</time>
      </trkpt>
      <trkpt lat="42.33171" lon="3.19032">
        <ele>102.2</ele>
        <time>2022-05-21 10:49:12</time>
      </trkpt>
      <trkpt lat="42.33171" lon="3.19029">
        <ele>102.4</ele>
        <time>2022-05-21 10:49:13</time>
      </trkpt>
      <trkpt lat="42.3317" lon="3.19026">
        <ele>102.8</ele>
        <time>2022-05-21 10:49:14</time>
      </trkpt>
      <trkpt lat="42.3317" lon="3.19024">
        <ele>103</ele>
        <time>2022-05-21 10:49:15</time>
      </trkpt>
      <trkpt lat="42.33169" lon="3.1902">
        <ele>103.2</ele>
        <time>2022-05-21 10:49:16</time>
      </trkpt>
      <trkpt lat="42.33169" lon="3.19018">
        <ele>103.4</ele>
        <time>2022-05-21 10:49:17</time>
      </trkpt>
      <trkpt lat="42.33169" lon="3.19015">
        <ele>103.6</ele>
        <time>2022-05-21 10:49:18</time>
      </trkpt>
      <trkpt lat="42.33169" lon="3.19012">
        <ele>103.8</ele>
        <time>2022-05-21 10:49:19</time>
      </trkpt>
      <trkpt lat="42.33168" lon="3.19009">
        <ele>104</ele>
        <time>2022-05-21 10:49:20</time>
      </trkpt>
      <trkpt lat="42.33168" lon="3.19007">
        <ele>104.2</ele>
        <time>2022-05-21 10:49:21</time>
      </trkpt>
      <trkpt lat="42.33168" lon="3.19004">
        <ele>104.4</ele>
        <time>2022-05-21 10:49:22</time>
      </trkpt>
      <trkpt lat="42.33167" lon="3.19001">
        <ele>104.6</ele>
        <time>2022-05-21 10:49:23</time>
      </trkpt>
      <trkpt lat="42.33167" lon="3.18998">
        <ele>104.8</ele>
        <time>2022-05-21 10:49:24</time>
      </trkpt>
      <trkpt lat="42.33167" lon="3.18995">
        <ele>105</ele>
        <time>2022-05-21 10:49:25</time>
      </trkpt>
      <trkpt lat="42.33167" lon="3.18992">
        <ele>105.2</ele>
        <time>2022-05-21 10:49:26</time>
      </trkpt>
      <trkpt lat="42.33167" lon="3.18989">
        <ele>105.4</ele>
        <time>2022-05-21 10:49:27</time>
      </trkpt>
      <trkpt lat="42.33166" lon="3.18986">
        <ele>105.6</ele>
        <time>2022-05-21 10:49:28</time>
      </trkpt>
      <trkpt lat="42.33166" lon="3.18984">
        <ele>105.8</ele>
        <time>2022-05-21 10:49:29</time>
      </trkpt>
      <trkpt lat="42.33165" lon="3.18981">
        <ele>106</ele>
        <time>2022-05-21 10:49:30</time>
      </trkpt>
      <trkpt lat="42.33164" lon="3.18978">
        <ele>106.2</ele>
        <time>2022-05-21 10:49:31</time>
      </trkpt>
      <trkpt lat="42.33164" lon="3.18975">
        <ele>106.4</ele>
        <time>2022-05-21 10:49:32</time>
      </trkpt>
      <trkpt lat="42.33163" lon="3.18972">
        <ele>106.6</ele>
        <time>2022-05-21 10:49:33</time>
      </trkpt>
      <trkpt lat="42.33163" lon="3.1897">
        <ele>106.8</ele>
        <time>2022-05-21 10:49:34</time>
      </trkpt>
      <trkpt lat="42.33162" lon="3.18967">
        <ele>106.8</ele>
        <time>2022-05-21 10:49:35</time>
      </trkpt>
      <trkpt lat="42.33162" lon="3.18964">
        <ele>107</ele>
        <time>2022-05-21 10:49:36</time>
      </trkpt>
      <trkpt lat="42.33162" lon="3.18961">
        <ele>107.2</ele>
        <time>2022-05-21 10:49:37</time>
      </trkpt>
      <trkpt lat="42.33161" lon="3.18959">
        <ele>107.4</ele>
        <time>2022-05-21 10:49:38</time>
      </trkpt>
      <trkpt lat="42.33161" lon="3.18956">
        <ele>107.6</ele>
        <time>2022-05-21 10:49:39</time>
      </trkpt>
      <trkpt lat="42.33161" lon="3.18954">
        <ele>107.8</ele>
        <time>2022-05-21 10:49:40</time>
      </trkpt>
      <trkpt lat="42.3316" lon="3.18951">
        <ele>108</ele>
        <time>2022-05-21 10:49:41</time>
      </trkpt>
      <trkpt lat="42.3316" lon="3.18948">
        <ele>108.2</ele>
        <time>2022-05-21 10:49:42</time>
      </trkpt>
      <trkpt lat="42.33159" lon="3.18946">
        <ele>108.4</ele>
        <time>2022-05-21 10:49:43</time>
      </trkpt>
      <trkpt lat="42.33159" lon="3.18943">
        <ele>108.8</ele>
        <time>2022-05-21 10:49:44</time>
      </trkpt>
      <trkpt lat="42.33159" lon="3.1894">
        <ele>109</ele>
        <time>2022-05-21 10:49:45</time>
      </trkpt>
      <trkpt lat="42.33159" lon="3.18937">
        <ele>109.2</ele>
        <time>2022-05-21 10:49:46</time>
      </trkpt>
      <trkpt lat="42.33159" lon="3.18935">
        <ele>109.4</ele>
        <time>2022-05-21 10:49:47</time>
      </trkpt>
      <trkpt lat="42.33159" lon="3.18932">
        <ele>109.6</ele>
        <time>2022-05-21 10:49:48</time>
      </trkpt>
      <trkpt lat="42.33159" lon="3.1893">
        <ele>109.8</ele>
        <time>2022-05-21 10:49:49</time>
      </trkpt>
      <trkpt lat="42.33158" lon="3.18927">
        <ele>110.2</ele>
        <time>2022-05-21 10:49:50</time>
      </trkpt>
      <trkpt lat="42.33158" lon="3.18924">
        <ele>110.4</ele>
        <time>2022-05-21 10:49:51</time>
      </trkpt>
      <trkpt lat="42.33157" lon="3.18922">
        <ele>110.6</ele>
        <time>2022-05-21 10:49:52</time>
      </trkpt>
      <trkpt lat="42.33157" lon="3.18919">
        <ele>110.8</ele>
        <time>2022-05-21 10:49:53</time>
      </trkpt>
      <trkpt lat="42.33157" lon="3.18917">
        <ele>111</ele>
        <time>2022-05-21 10:49:54</time>
      </trkpt>
      <trkpt lat="42.33157" lon="3.18914">
        <ele>111.2</ele>
        <time>2022-05-21 10:49:55</time>
      </trkpt>
      <trkpt lat="42.33157" lon="3.18911">
        <ele>111.4</ele>
        <time>2022-05-21 10:49:56</time>
      </trkpt>
      <trkpt lat="42.33158" lon="3.18908">
        <ele>111.6</ele>
        <time>2022-05-21 10:49:57</time>
      </trkpt>
      <trkpt lat="42.33158" lon="3.18905">
        <ele>112</ele>
        <time>2022-05-21 10:49:58</time>
      </trkpt>
      <trkpt lat="42.33158" lon="3.18902">
        <ele>112.2</ele>
        <time>2022-05-21 10:49:59</time>
      </trkpt>
      <trkpt lat="42.33158" lon="3.18899">
        <ele>112.4</ele>
        <time>2022-05-21 10:50:00</time>
      </trkpt>
      <trkpt lat="42.33158" lon="3.18896">
        <ele>112.6</ele>
        <time>2022-05-21 10:50:01</time>
      </trkpt>
      <trkpt lat="42.33158" lon="3.18893">
        <ele>112.8</ele>
        <time>2022-05-21 10:50:02</time>
      </trkpt>
      <trkpt lat="42.33158" lon="3.1889">
        <ele>113</ele>
        <time>2022-05-21 10:50:03</time>
      </trkpt>
      <trkpt lat="42.33158" lon="3.18888">
        <ele>113.2</ele>
        <time>2022-05-21 10:50:04</time>
      </trkpt>
      <trkpt lat="42.33159" lon="3.18885">
        <ele>113.6</ele>
        <time>2022-05-21 10:50:05</time>
      </trkpt>
      <trkpt lat="42.33159" lon="3.18882">
        <ele>113.8</ele>
        <time>2022-05-21 10:50:06</time>
      </trkpt>
      <trkpt lat="42.33159" lon="3.18879">
        <ele>114</ele>
        <time>2022-05-21 10:50:07</time>
      </trkpt>
      <trkpt lat="42.3316" lon="3.18877">
        <ele>114.2</ele>
        <time>2022-05-21 10:50:08</time>
      </trkpt>
      <trkpt lat="42.3316" lon="3.18874">
        <ele>114.4</ele>
        <time>2022-05-21 10:50:09</time>
      </trkpt>
      <trkpt lat="42.33161" lon="3.18871">
        <ele>114.6</ele>
        <time>2022-05-21 10:50:10</time>
      </trkpt>
      <trkpt lat="42.33162" lon="3.18868">
        <ele>114.8</ele>
        <time>2022-05-21 10:50:11</time>
      </trkpt>
      <trkpt lat="42.33162" lon="3.18866">
        <ele>115</ele>
        <time>2022-05-21 10:50:12</time>
      </trkpt>
      <trkpt lat="42.33163" lon="3.18863">
        <ele>115.2</ele>
        <time>2022-05-21 10:50:13</time>
      </trkpt>
      <trkpt lat="42.33164" lon="3.1886">
        <ele>115.4</ele>
        <time>2022-05-21 10:50:14</time>
      </trkpt>
      <trkpt lat="42.33165" lon="3.18858">
        <ele>115.6</ele>
        <time>2022-05-21 10:50:15</time>
      </trkpt>
      <trkpt lat="42.33165" lon="3.18855">
        <ele>115.8</ele>
        <time>2022-05-21 10:50:16</time>
      </trkpt>
      <trkpt lat="42.33166" lon="3.18852">
        <ele>116</ele>
        <time>2022-05-21 10:50:17</time>
      </trkpt>
      <trkpt lat="42.33166" lon="3.18849">
        <ele>116.2</ele>
        <time>2022-05-21 10:50:18</time>
      </trkpt>
      <trkpt lat="42.33167" lon="3.18846">
        <ele>116.4</ele>
        <time>2022-05-21 10:50:19</time>
      </trkpt>
      <trkpt lat="42.33167" lon="3.18843">
        <ele>116.6</ele>
        <time>2022-05-21 10:50:20</time>
      </trkpt>
      <trkpt lat="42.33168" lon="3.1884">
        <ele>116.8</ele>
        <time>2022-05-21 10:50:21</time>
      </trkpt>
      <trkpt lat="42.33168" lon="3.18836">
        <ele>117</ele>
        <time>2022-05-21 10:50:22</time>
      </trkpt>
      <trkpt lat="42.33169" lon="3.18833">
        <ele>117.2</ele>
        <time>2022-05-21 10:50:23</time>
      </trkpt>
      <trkpt lat="42.3317" lon="3.18829">
        <ele>117.4</ele>
        <time>2022-05-21 10:50:24</time>
      </trkpt>
      <trkpt lat="42.3317" lon="3.18826">
        <ele>117.6</ele>
        <time>2022-05-21 10:50:25</time>
      </trkpt>
      <trkpt lat="42.33171" lon="3.18822">
        <ele>118</ele>
        <time>2022-05-21 10:50:26</time>
      </trkpt>
      <trkpt lat="42.33171" lon="3.18819">
        <ele>118.2</ele>
        <time>2022-05-21 10:50:27</time>
      </trkpt>
      <trkpt lat="42.33172" lon="3.18815">
        <ele>118.4</ele>
        <time>2022-05-21 10:50:28</time>
      </trkpt>
      <trkpt lat="42.33173" lon="3.18812">
        <ele>118.6</ele>
        <time>2022-05-21 10:50:29</time>
      </trkpt>
      <trkpt lat="42.33174" lon="3.18808">
        <ele>118.8</ele>
        <time>2022-05-21 10:50:30</time>
      </trkpt>
      <trkpt lat="42.33175" lon="3.18805">
        <ele>119</ele>
        <time>2022-05-21 10:50:31</time>
      </trkpt>
      <trkpt lat="42.33176" lon="3.18802">
        <ele>119.2</ele>
        <time>2022-05-21 10:50:32</time>
      </trkpt>
      <trkpt lat="42.33177" lon="3.18799">
        <ele>119.6</ele>
        <time>2022-05-21 10:50:33</time>
      </trkpt>
      <trkpt lat="42.33178" lon="3.18796">
        <ele>119.8</ele>
        <time>2022-05-21 10:50:34</time>
      </trkpt>
      <trkpt lat="42.33179" lon="3.18793">
        <ele>120</ele>
        <time>2022-05-21 10:50:35</time>
      </trkpt>
      <trkpt lat="42.3318" lon="3.1879">
        <ele>120.2</ele>
        <time>2022-05-21 10:50:36</time>
      </trkpt>
      <trkpt lat="42.33181" lon="3.18787">
        <ele>120.6</ele>
        <time>2022-05-21 10:50:37</time>
      </trkpt>
      <trkpt lat="42.33182" lon="3.18783">
        <ele>120.8</ele>
        <time>2022-05-21 10:50:38</time>
      </trkpt>
      <trkpt lat="42.33183" lon="3.18781">
        <ele>121</ele>
        <time>2022-05-21 10:50:39</time>
      </trkpt>
      <trkpt lat="42.33185" lon="3.18778">
        <ele>121.4</ele>
        <time>2022-05-21 10:50:40</time>
      </trkpt>
      <trkpt lat="42.33186" lon="3.18775">
        <ele>121.6</ele>
        <time>2022-05-21 10:50:41</time>
      </trkpt>
      <trkpt lat="42.33187" lon="3.18772">
        <ele>122</ele>
        <time>2022-05-21 10:50:42</time>
      </trkpt>
      <trkpt lat="42.33187" lon="3.18769">
        <ele>122.2</ele>
        <time>2022-05-21 10:50:43</time>
      </trkpt>
      <trkpt lat="42.33188" lon="3.18766">
        <ele>122.4</ele>
        <time>2022-05-21 10:50:44</time>
      </trkpt>
      <trkpt lat="42.33189" lon="3.18763">
        <ele>122.8</ele>
        <time>2022-05-21 10:50:45</time>
      </trkpt>
      <trkpt lat="42.3319" lon="3.18759">
        <ele>123</ele>
        <time>2022-05-21 10:50:46</time>
      </trkpt>
      <trkpt lat="42.33191" lon="3.18756">
        <ele>123.2</ele>
        <time>2022-05-21 10:50:47</time>
      </trkpt>
      <trkpt lat="42.33192" lon="3.18754">
        <ele>123.4</ele>
        <time>2022-05-21 10:50:48</time>
      </trkpt>
      <trkpt lat="42.33193" lon="3.18751">
        <ele>123.6</ele>
        <time>2022-05-21 10:50:49</time>
      </trkpt>
      <trkpt lat="42.33194" lon="3.18747">
        <ele>124</ele>
        <time>2022-05-21 10:50:50</time>
      </trkpt>
      <trkpt lat="42.33195" lon="3.18745">
        <ele>124.2</ele>
        <time>2022-05-21 10:50:51</time>
      </trkpt>
      <trkpt lat="42.33196" lon="3.18742">
        <ele>124.6</ele>
        <time>2022-05-21 10:50:52</time>
      </trkpt>
      <trkpt lat="42.33197" lon="3.18739">
        <ele>124.8</ele>
        <time>2022-05-21 10:50:53</time>
      </trkpt>
      <trkpt lat="42.33199" lon="3.18737">
        <ele>125</ele>
        <time>2022-05-21 10:50:54</time>
      </trkpt>
      <trkpt lat="42.33201" lon="3.18735">
        <ele>125.2</ele>
        <time>2022-05-21 10:50:55</time>
      </trkpt>
      <trkpt lat="42.33203" lon="3.18733">
        <ele>125.2</ele>
        <time>2022-05-21 10:50:56</time>
      </trkpt>
      <trkpt lat="42.33205" lon="3.18732">
        <ele>125.4</ele>
        <time>2022-05-21 10:50:57</time>
      </trkpt>
      <trkpt lat="42.33208" lon="3.18732">
        <ele>125.6</ele>
        <time>2022-05-21 10:50:58</time>
      </trkpt>
      <trkpt lat="42.33211" lon="3.18734">
        <ele>125.8</ele>
        <time>2022-05-21 10:50:59</time>
      </trkpt>
      <trkpt lat="42.33213" lon="3.18737">
        <ele>125.8</ele>
        <time>2022-05-21 10:51:00</time>
      </trkpt>
      <trkpt lat="42.33215" lon="3.18739">
        <ele>126</ele>
        <time>2022-05-21 10:51:01</time>
      </trkpt>
      <trkpt lat="42.33217" lon="3.18743">
        <ele>126</ele>
        <time>2022-05-21 10:51:02</time>
      </trkpt>
      <trkpt lat="42.33219" lon="3.18746">
        <ele>126.2</ele>
        <time>2022-05-21 10:51:03</time>
      </trkpt>
      <trkpt lat="42.33221" lon="3.18749">
        <ele>126.4</ele>
        <time>2022-05-21 10:51:04</time>
      </trkpt>
      <trkpt lat="42.33223" lon="3.18752">
        <ele>126.4</ele>
        <time>2022-05-21 10:51:05</time>
      </trkpt>
      <trkpt lat="42.33225" lon="3.18755">
        <ele>126.6</ele>
        <time>2022-05-21 10:51:06</time>
      </trkpt>
      <trkpt lat="42.33227" lon="3.18758">
        <ele>126.6</ele>
        <time>2022-05-21 10:51:07</time>
      </trkpt>
      <trkpt lat="42.3323" lon="3.18761">
        <ele>126.6</ele>
        <time>2022-05-21 10:51:08</time>
      </trkpt>
      <trkpt lat="42.33232" lon="3.18765">
        <ele>126.6</ele>
        <time>2022-05-21 10:51:09</time>
      </trkpt>
      <trkpt lat="42.33234" lon="3.18767">
        <ele>126.8</ele>
        <time>2022-05-21 10:51:10</time>
      </trkpt>
      <trkpt lat="42.33237" lon="3.1877">
        <ele>126.8</ele>
        <time>2022-05-21 10:51:11</time>
      </trkpt>
      <trkpt lat="42.3324" lon="3.18772">
        <ele>127</ele>
        <time>2022-05-21 10:51:12</time>
      </trkpt>
      <trkpt lat="42.33243" lon="3.18774">
        <ele>127</ele>
        <time>2022-05-21 10:51:13</time>
      </trkpt>
      <trkpt lat="42.33246" lon="3.18776">
        <ele>127.2</ele>
        <time>2022-05-21 10:51:14</time>
      </trkpt>
      <trkpt lat="42.33248" lon="3.18778">
        <ele>127.4</ele>
        <time>2022-05-21 10:51:15</time>
      </trkpt>
      <trkpt lat="42.33251" lon="3.1878">
        <ele>127.6</ele>
        <time>2022-05-21 10:51:16</time>
      </trkpt>
      <trkpt lat="42.33254" lon="3.18781">
        <ele>127.8</ele>
        <time>2022-05-21 10:51:17</time>
      </trkpt>
      <trkpt lat="42.33257" lon="3.18783">
        <ele>128.2</ele>
        <time>2022-05-21 10:51:18</time>
      </trkpt>
      <trkpt lat="42.33259" lon="3.18785">
        <ele>128.4</ele>
        <time>2022-05-21 10:51:19</time>
      </trkpt>
      <trkpt lat="42.33262" lon="3.18786">
        <ele>128.6</ele>
        <time>2022-05-21 10:51:20</time>
      </trkpt>
      <trkpt lat="42.33264" lon="3.18787">
        <ele>129</ele>
        <time>2022-05-21 10:51:21</time>
      </trkpt>
      <trkpt lat="42.33267" lon="3.18788">
        <ele>129.2</ele>
        <time>2022-05-21 10:51:22</time>
      </trkpt>
      <trkpt lat="42.3327" lon="3.18789">
        <ele>129.4</ele>
        <time>2022-05-21 10:51:23</time>
      </trkpt>
      <trkpt lat="42.33272" lon="3.1879">
        <ele>129.6</ele>
        <time>2022-05-21 10:51:24</time>
      </trkpt>
      <trkpt lat="42.33275" lon="3.1879">
        <ele>130</ele>
        <time>2022-05-21 10:51:25</time>
      </trkpt>
      <trkpt lat="42.33277" lon="3.18791">
        <ele>130.2</ele>
        <time>2022-05-21 10:51:26</time>
      </trkpt>
      <trkpt lat="42.33279" lon="3.18791">
        <ele>130.4</ele>
        <time>2022-05-21 10:51:27</time>
      </trkpt>
      <trkpt lat="42.33282" lon="3.18791">
        <ele>130.8</ele>
        <time>2022-05-21 10:51:28</time>
      </trkpt>
      <trkpt lat="42.33284" lon="3.18791">
        <ele>131</ele>
        <time>2022-05-21 10:51:29</time>
      </trkpt>
      <trkpt lat="42.33286" lon="3.18791">
        <ele>131.2</ele>
        <time>2022-05-21 10:51:30</time>
      </trkpt>
      <trkpt lat="42.33289" lon="3.18791">
        <ele>131.4</ele>
        <time>2022-05-21 10:51:31</time>
      </trkpt>
      <trkpt lat="42.33291" lon="3.18791">
        <ele>131.8</ele>
        <time>2022-05-21 10:51:32</time>
      </trkpt>
      <trkpt lat="42.33293" lon="3.18792">
        <ele>132</ele>
        <time>2022-05-21 10:51:33</time>
      </trkpt>
      <trkpt lat="42.33295" lon="3.18792">
        <ele>132.2</ele>
        <time>2022-05-21 10:51:34</time>
      </trkpt>
      <trkpt lat="42.33298" lon="3.18792">
        <ele>132.4</ele>
        <time>2022-05-21 10:51:35</time>
      </trkpt>
      <trkpt lat="42.333" lon="3.18792">
        <ele>132.6</ele>
        <time>2022-05-21 10:51:36</time>
      </trkpt>
      <trkpt lat="42.33302" lon="3.18793">
        <ele>132.8</ele>
        <time>2022-05-21 10:51:37</time>
      </trkpt>
      <trkpt lat="42.33304" lon="3.18793">
        <ele>133</ele>
        <time>2022-05-21 10:51:38</time>
      </trkpt>
      <trkpt lat="42.33306" lon="3.18793">
        <ele>133.2</ele>
        <time>2022-05-21 10:51:39</time>
      </trkpt>
      <trkpt lat="42.33308" lon="3.18793">
        <ele>133.4</ele>
        <time>2022-05-21 10:51:40</time>
      </trkpt>
      <trkpt lat="42.3331" lon="3.18794">
        <ele>133.6</ele>
        <time>2022-05-21 10:51:41</time>
      </trkpt>
      <trkpt lat="42.33312" lon="3.18794">
        <ele>133.8</ele>
        <time>2022-05-21 10:51:42</time>
      </trkpt>
      <trkpt lat="42.33314" lon="3.18794">
        <ele>133.8</ele>
        <time>2022-05-21 10:51:43</time>
      </trkpt>
      <trkpt lat="42.33317" lon="3.18795">
        <ele>134</ele>
        <time>2022-05-21 10:51:44</time>
      </trkpt>
      <trkpt lat="42.33319" lon="3.18796">
        <ele>134.2</ele>
        <time>2022-05-21 10:51:45</time>
      </trkpt>
      <trkpt lat="42.33321" lon="3.18797">
        <ele>134.4</ele>
        <time>2022-05-21 10:51:46</time>
      </trkpt>
      <trkpt lat="42.33323" lon="3.18798">
        <ele>134.4</ele>
        <time>2022-05-21 10:51:47</time>
      </trkpt>
      <trkpt lat="42.33325" lon="3.18799">
        <ele>134.6</ele>
        <time>2022-05-21 10:51:48</time>
      </trkpt>
      <trkpt lat="42.33327" lon="3.188">
        <ele>134.8</ele>
        <time>2022-05-21 10:51:49</time>
      </trkpt>
      <trkpt lat="42.33329" lon="3.18801">
        <ele>135</ele>
        <time>2022-05-21 10:51:50</time>
      </trkpt>
      <trkpt lat="42.33331" lon="3.18802">
        <ele>135</ele>
        <time>2022-05-21 10:51:51</time>
      </trkpt>
      <trkpt lat="42.33333" lon="3.18802">
        <ele>135.2</ele>
        <time>2022-05-21 10:51:52</time>
      </trkpt>
      <trkpt lat="42.33336" lon="3.18803">
        <ele>135.4</ele>
        <time>2022-05-21 10:51:53</time>
      </trkpt>
      <trkpt lat="42.33338" lon="3.18804">
        <ele>135.6</ele>
        <time>2022-05-21 10:51:54</time>
      </trkpt>
      <trkpt lat="42.3334" lon="3.18804">
        <ele>135.8</ele>
        <time>2022-05-21 10:51:55</time>
      </trkpt>
      <trkpt lat="42.33342" lon="3.18804">
        <ele>136</ele>
        <time>2022-05-21 10:51:56</time>
      </trkpt>
      <trkpt lat="42.33344" lon="3.18804">
        <ele>136.2</ele>
        <time>2022-05-21 10:51:57</time>
      </trkpt>
      <trkpt lat="42.33346" lon="3.18804">
        <ele>136.4</ele>
        <time>2022-05-21 10:51:58</time>
      </trkpt>
      <trkpt lat="42.33348" lon="3.18805">
        <ele>136.6</ele>
        <time>2022-05-21 10:51:59</time>
      </trkpt>
      <trkpt lat="42.33351" lon="3.18805">
        <ele>136.6</ele>
        <time>2022-05-21 10:52:00</time>
      </trkpt>
      <trkpt lat="42.33352" lon="3.18805">
        <ele>136.8</ele>
        <time>2022-05-21 10:52:01</time>
      </trkpt>
      <trkpt lat="42.33354" lon="3.18806">
        <ele>137</ele>
        <time>2022-05-21 10:52:02</time>
      </trkpt>
      <trkpt lat="42.33356" lon="3.18806">
        <ele>137</ele>
        <time>2022-05-21 10:52:03</time>
      </trkpt>
      <trkpt lat="42.33358" lon="3.18806">
        <ele>137.2</ele>
        <time>2022-05-21 10:52:04</time>
      </trkpt>
      <trkpt lat="42.3336" lon="3.18805">
        <ele>137.4</ele>
        <time>2022-05-21 10:52:05</time>
      </trkpt>
      <trkpt lat="42.33362" lon="3.18805">
        <ele>137.6</ele>
        <time>2022-05-21 10:52:06</time>
      </trkpt>
      <trkpt lat="42.33364" lon="3.18804">
        <ele>137.8</ele>
        <time>2022-05-21 10:52:07</time>
      </trkpt>
      <trkpt lat="42.33366" lon="3.18804">
        <ele>138</ele>
        <time>2022-05-21 10:52:08</time>
      </trkpt>
      <trkpt lat="42.33368" lon="3.18803">
        <ele>138</ele>
        <time>2022-05-21 10:52:09</time>
      </trkpt>
      <trkpt lat="42.3337" lon="3.18803">
        <ele>138.2</ele>
        <time>2022-05-21 10:52:10</time>
      </trkpt>
      <trkpt lat="42.33372" lon="3.18802">
        <ele>138.4</ele>
        <time>2022-05-21 10:52:11</time>
      </trkpt>
      <trkpt lat="42.33375" lon="3.18801">
        <ele>138.6</ele>
        <time>2022-05-21 10:52:12</time>
      </trkpt>
      <trkpt lat="42.33376" lon="3.188">
        <ele>138.8</ele>
        <time>2022-05-21 10:52:13</time>
      </trkpt>
      <trkpt lat="42.33378" lon="3.18799">
        <ele>139</ele>
        <time>2022-05-21 10:52:14</time>
      </trkpt>
      <trkpt lat="42.3338" lon="3.18798">
        <ele>139.2</ele>
        <time>2022-05-21 10:52:15</time>
      </trkpt>
      <trkpt lat="42.33382" lon="3.18797">
        <ele>139.2</ele>
        <time>2022-05-21 10:52:16</time>
      </trkpt>
      <trkpt lat="42.33384" lon="3.18795">
        <ele>139.4</ele>
        <time>2022-05-21 10:52:17</time>
      </trkpt>
      <trkpt lat="42.33386" lon="3.18794">
        <ele>139.6</ele>
        <time>2022-05-21 10:52:18</time>
      </trkpt>
      <trkpt lat="42.33388" lon="3.18792">
        <ele>139.8</ele>
        <time>2022-05-21 10:52:19</time>
      </trkpt>
      <trkpt lat="42.33389" lon="3.18791">
        <ele>140</ele>
        <time>2022-05-21 10:52:20</time>
      </trkpt>
      <trkpt lat="42.33391" lon="3.18789">
        <ele>140</ele>
        <time>2022-05-21 10:52:21</time>
      </trkpt>
      <trkpt lat="42.33393" lon="3.18788">
        <ele>140.2</ele>
        <time>2022-05-21 10:52:22</time>
      </trkpt>
      <trkpt lat="42.33395" lon="3.18786">
        <ele>140.4</ele>
        <time>2022-05-21 10:52:23</time>
      </trkpt>
      <trkpt lat="42.33397" lon="3.18784">
        <ele>140.4</ele>
        <time>2022-05-21 10:52:24</time>
      </trkpt>
      <trkpt lat="42.33398" lon="3.18782">
        <ele>140.6</ele>
        <time>2022-05-21 10:52:25</time>
      </trkpt>
      <trkpt lat="42.334" lon="3.1878">
        <ele>140.8</ele>
        <time>2022-05-21 10:52:26</time>
      </trkpt>
      <trkpt lat="42.33401" lon="3.18778">
        <ele>141</ele>
        <time>2022-05-21 10:52:27</time>
      </trkpt>
      <trkpt lat="42.33402" lon="3.18776">
        <ele>141.2</ele>
        <time>2022-05-21 10:52:28</time>
      </trkpt>
      <trkpt lat="42.33404" lon="3.18774">
        <ele>141.4</ele>
        <time>2022-05-21 10:52:29</time>
      </trkpt>
      <trkpt lat="42.33405" lon="3.18772">
        <ele>141.6</ele>
        <time>2022-05-21 10:52:30</time>
      </trkpt>
      <trkpt lat="42.33406" lon="3.1877">
        <ele>141.8</ele>
        <time>2022-05-21 10:52:31</time>
      </trkpt>
      <trkpt lat="42.33408" lon="3.18767">
        <ele>141.8</ele>
        <time>2022-05-21 10:52:32</time>
      </trkpt>
      <trkpt lat="42.33409" lon="3.18765">
        <ele>142</ele>
        <time>2022-05-21 10:52:33</time>
      </trkpt>
      <trkpt lat="42.33409" lon="3.18763">
        <ele>142.2</ele>
        <time>2022-05-21 10:52:34</time>
      </trkpt>
      <trkpt lat="42.3341" lon="3.1876">
        <ele>142.4</ele>
        <time>2022-05-21 10:52:35</time>
      </trkpt>
      <trkpt lat="42.33411" lon="3.18758">
        <ele>142.6</ele>
        <time>2022-05-21 10:52:36</time>
      </trkpt>
      <trkpt lat="42.33411" lon="3.18755">
        <ele>142.8</ele>
        <time>2022-05-21 10:52:37</time>
      </trkpt>
      <trkpt lat="42.33412" lon="3.18752">
        <ele>143.2</ele>
        <time>2022-05-21 10:52:38</time>
      </trkpt>
      <trkpt lat="42.33412" lon="3.18749">
        <ele>143.4</ele>
        <time>2022-05-21 10:52:39</time>
      </trkpt>
      <trkpt lat="42.33413" lon="3.18747">
        <ele>143.6</ele>
        <time>2022-05-21 10:52:40</time>
      </trkpt>
      <trkpt lat="42.33413" lon="3.18744">
        <ele>143.8</ele>
        <time>2022-05-21 10:52:41</time>
      </trkpt>
      <trkpt lat="42.33414" lon="3.18741">
        <ele>144</ele>
        <time>2022-05-21 10:52:42</time>
      </trkpt>
      <trkpt lat="42.33414" lon="3.18738">
        <ele>144.2</ele>
        <time>2022-05-21 10:52:43</time>
      </trkpt>
      <trkpt lat="42.33414" lon="3.18735">
        <ele>144.4</ele>
        <time>2022-05-21 10:52:44</time>
      </trkpt>
      <trkpt lat="42.33415" lon="3.18732">
        <ele>144.6</ele>
        <time>2022-05-21 10:52:45</time>
      </trkpt>
      <trkpt lat="42.33415" lon="3.18729">
        <ele>145</ele>
        <time>2022-05-21 10:52:46</time>
      </trkpt>
      <trkpt lat="42.33415" lon="3.18727">
        <ele>145.2</ele>
        <time>2022-05-21 10:52:47</time>
      </trkpt>
      <trkpt lat="42.33416" lon="3.18724">
        <ele>145.4</ele>
        <time>2022-05-21 10:52:48</time>
      </trkpt>
      <trkpt lat="42.33416" lon="3.18721">
        <ele>145.8</ele>
        <time>2022-05-21 10:52:49</time>
      </trkpt>
      <trkpt lat="42.33416" lon="3.18718">
        <ele>146</ele>
        <time>2022-05-21 10:52:50</time>
      </trkpt>
      <trkpt lat="42.33416" lon="3.18716">
        <ele>146.4</ele>
        <time>2022-05-21 10:52:51</time>
      </trkpt>
      <trkpt lat="42.33416" lon="3.18713">
        <ele>146.6</ele>
        <time>2022-05-21 10:52:52</time>
      </trkpt>
      <trkpt lat="42.33416" lon="3.1871">
        <ele>146.8</ele>
        <time>2022-05-21 10:52:53</time>
      </trkpt>
      <trkpt lat="42.33416" lon="3.18707">
        <ele>147</ele>
        <time>2022-05-21 10:52:54</time>
      </trkpt>
      <trkpt lat="42.33416" lon="3.18705">
        <ele>147.2</ele>
        <time>2022-05-21 10:52:55</time>
      </trkpt>
      <trkpt lat="42.33417" lon="3.18702">
        <ele>147.4</ele>
        <time>2022-05-21 10:52:56</time>
      </trkpt>
      <trkpt lat="42.33417" lon="3.187">
        <ele>147.6</ele>
        <time>2022-05-21 10:52:57</time>
      </trkpt>
      <trkpt lat="42.33417" lon="3.18697">
        <ele>147.8</ele>
        <time>2022-05-21 10:52:58</time>
      </trkpt>
      <trkpt lat="42.33417" lon="3.18694">
        <ele>148</ele>
        <time>2022-05-21 10:52:59</time>
      </trkpt>
      <trkpt lat="42.33416" lon="3.18691">
        <ele>148.2</ele>
        <time>2022-05-21 10:53:00</time>
      </trkpt>
      <trkpt lat="42.33416" lon="3.18689">
        <ele>148.4</ele>
        <time>2022-05-21 10:53:01</time>
      </trkpt>
      <trkpt lat="42.33416" lon="3.18686">
        <ele>148.4</ele>
        <time>2022-05-21 10:53:02</time>
      </trkpt>
      <trkpt lat="42.33416" lon="3.18684">
        <ele>148.6</ele>
        <time>2022-05-21 10:53:03</time>
      </trkpt>
      <trkpt lat="42.33416" lon="3.18681">
        <ele>148.8</ele>
        <time>2022-05-21 10:53:04</time>
      </trkpt>
      <trkpt lat="42.33416" lon="3.18678">
        <ele>149</ele>
        <time>2022-05-21 10:53:05</time>
      </trkpt>
      <trkpt lat="42.33416" lon="3.18676">
        <ele>149.2</ele>
        <time>2022-05-21 10:53:06</time>
      </trkpt>
      <trkpt lat="42.33416" lon="3.18673">
        <ele>149.2</ele>
        <time>2022-05-21 10:53:07</time>
      </trkpt>
      <trkpt lat="42.33416" lon="3.18671">
        <ele>149.4</ele>
        <time>2022-05-21 10:53:08</time>
      </trkpt>
      <trkpt lat="42.33416" lon="3.18668">
        <ele>149.6</ele>
        <time>2022-05-21 10:53:09</time>
      </trkpt>
      <trkpt lat="42.33416" lon="3.18666">
        <ele>149.8</ele>
        <time>2022-05-21 10:53:10</time>
      </trkpt>
      <trkpt lat="42.33415" lon="3.18663">
        <ele>150</ele>
        <time>2022-05-21 10:53:11</time>
      </trkpt>
      <trkpt lat="42.33415" lon="3.1866">
        <ele>150.2</ele>
        <time>2022-05-21 10:53:12</time>
      </trkpt>
      <trkpt lat="42.33415" lon="3.18658">
        <ele>150.4</ele>
        <time>2022-05-21 10:53:13</time>
      </trkpt>
      <trkpt lat="42.33415" lon="3.18655">
        <ele>150.6</ele>
        <time>2022-05-21 10:53:14</time>
      </trkpt>
      <trkpt lat="42.33415" lon="3.18653">
        <ele>150.6</ele>
        <time>2022-05-21 10:53:15</time>
      </trkpt>
      <trkpt lat="42.33415" lon="3.1865">
        <ele>150.8</ele>
        <time>2022-05-21 10:53:16</time>
      </trkpt>
      <trkpt lat="42.33415" lon="3.18647">
        <ele>151</ele>
        <time>2022-05-21 10:53:17</time>
      </trkpt>
      <trkpt lat="42.33415" lon="3.18644">
        <ele>151.2</ele>
        <time>2022-05-21 10:53:18</time>
      </trkpt>
      <trkpt lat="42.33415" lon="3.18641">
        <ele>151.2</ele>
        <time>2022-05-21 10:53:19</time>
      </trkpt>
      <trkpt lat="42.33415" lon="3.18639">
        <ele>151.4</ele>
        <time>2022-05-21 10:53:20</time>
      </trkpt>
      <trkpt lat="42.33415" lon="3.18636">
        <ele>151.6</ele>
        <time>2022-05-21 10:53:21</time>
      </trkpt>
      <trkpt lat="42.33415" lon="3.18633">
        <ele>151.8</ele>
        <time>2022-05-21 10:53:22</time>
      </trkpt>
      <trkpt lat="42.33415" lon="3.1863">
        <ele>152</ele>
        <time>2022-05-21 10:53:23</time>
      </trkpt>
      <trkpt lat="42.33415" lon="3.18627">
        <ele>152.2</ele>
        <time>2022-05-21 10:53:24</time>
      </trkpt>
      <trkpt lat="42.33415" lon="3.18624">
        <ele>152.4</ele>
        <time>2022-05-21 10:53:25</time>
      </trkpt>
      <trkpt lat="42.33415" lon="3.18622">
        <ele>152.4</ele>
        <time>2022-05-21 10:53:26</time>
      </trkpt>
      <trkpt lat="42.33415" lon="3.18619">
        <ele>152.6</ele>
        <time>2022-05-21 10:53:27</time>
      </trkpt>
      <trkpt lat="42.33415" lon="3.18616">
        <ele>152.8</ele>
        <time>2022-05-21 10:53:28</time>
      </trkpt>
      <trkpt lat="42.33415" lon="3.18613">
        <ele>153</ele>
        <time>2022-05-21 10:53:29</time>
      </trkpt>
      <trkpt lat="42.33415" lon="3.1861">
        <ele>153</ele>
        <time>2022-05-21 10:53:30</time>
      </trkpt>
      <trkpt lat="42.33415" lon="3.18607">
        <ele>153.2</ele>
        <time>2022-05-21 10:53:31</time>
      </trkpt>
      <trkpt lat="42.33415" lon="3.18604">
        <ele>153.4</ele>
        <time>2022-05-21 10:53:32</time>
      </trkpt>
      <trkpt lat="42.33416" lon="3.18601">
        <ele>153.4</ele>
        <time>2022-05-21 10:53:33</time>
      </trkpt>
      <trkpt lat="42.33416" lon="3.18598">
        <ele>153.6</ele>
        <time>2022-05-21 10:53:34</time>
      </trkpt>
      <trkpt lat="42.33416" lon="3.18595">
        <ele>153.8</ele>
        <time>2022-05-21 10:53:35</time>
      </trkpt>
      <trkpt lat="42.33417" lon="3.18592">
        <ele>154</ele>
        <time>2022-05-21 10:53:36</time>
      </trkpt>
      <trkpt lat="42.33419" lon="3.1859">
        <ele>154.2</ele>
        <time>2022-05-21 10:53:37</time>
      </trkpt>
      <trkpt lat="42.33421" lon="3.18587">
        <ele>154.4</ele>
        <time>2022-05-21 10:53:38</time>
      </trkpt>
      <trkpt lat="42.33422" lon="3.18585">
        <ele>154.8</ele>
        <time>2022-05-21 10:53:39</time>
      </trkpt>
      <trkpt lat="42.33424" lon="3.18584">
        <ele>155</ele>
        <time>2022-05-21 10:53:40</time>
      </trkpt>
      <trkpt lat="42.33426" lon="3.18582">
        <ele>155.2</ele>
        <time>2022-05-21 10:53:41</time>
      </trkpt>
      <trkpt lat="42.33428" lon="3.18581">
        <ele>155.6</ele>
        <time>2022-05-21 10:53:42</time>
      </trkpt>
      <trkpt lat="42.33429" lon="3.18579">
        <ele>155.8</ele>
        <time>2022-05-21 10:53:43</time>
      </trkpt>
      <trkpt lat="42.33432" lon="3.18578">
        <ele>156.2</ele>
        <time>2022-05-21 10:53:44</time>
      </trkpt>
      <trkpt lat="42.33434" lon="3.18577">
        <ele>156.4</ele>
        <time>2022-05-21 10:53:45</time>
      </trkpt>
      <trkpt lat="42.33436" lon="3.18576">
        <ele>156.6</ele>
        <time>2022-05-21 10:53:46</time>
      </trkpt>
      <trkpt lat="42.33438" lon="3.18574">
        <ele>156.8</ele>
        <time>2022-05-21 10:53:47</time>
      </trkpt>
      <trkpt lat="42.3344" lon="3.18572">
        <ele>157.2</ele>
        <time>2022-05-21 10:53:48</time>
      </trkpt>
      <trkpt lat="42.33442" lon="3.1857">
        <ele>157.4</ele>
        <time>2022-05-21 10:53:49</time>
      </trkpt>
      <trkpt lat="42.33444" lon="3.18568">
        <ele>157.6</ele>
        <time>2022-05-21 10:53:50</time>
      </trkpt>
      <trkpt lat="42.33446" lon="3.18566">
        <ele>157.8</ele>
        <time>2022-05-21 10:53:51</time>
      </trkpt>
      <trkpt lat="42.33448" lon="3.18564">
        <ele>158</ele>
        <time>2022-05-21 10:53:52</time>
      </trkpt>
      <trkpt lat="42.3345" lon="3.18562">
        <ele>158.2</ele>
        <time>2022-05-21 10:53:53</time>
      </trkpt>
      <trkpt lat="42.33452" lon="3.18559">
        <ele>158.4</ele>
        <time>2022-05-21 10:53:54</time>
      </trkpt>
      <trkpt lat="42.33454" lon="3.18557">
        <ele>158.6</ele>
        <time>2022-05-21 10:53:55</time>
      </trkpt>
      <trkpt lat="42.33455" lon="3.18554">
        <ele>158.8</ele>
        <time>2022-05-21 10:53:56</time>
      </trkpt>
      <trkpt lat="42.33457" lon="3.18552">
        <ele>159</ele>
        <time>2022-05-21 10:53:57</time>
      </trkpt>
      <trkpt lat="42.33458" lon="3.1855">
        <ele>159.2</ele>
        <time>2022-05-21 10:53:58</time>
      </trkpt>
      <trkpt lat="42.3346" lon="3.18547">
        <ele>159.4</ele>
        <time>2022-05-21 10:53:59</time>
      </trkpt>
      <trkpt lat="42.33461" lon="3.18543">
        <ele>159.6</ele>
        <time>2022-05-21 10:54:00</time>
      </trkpt>
      <trkpt lat="42.33463" lon="3.1854">
        <ele>159.8</ele>
        <time>2022-05-21 10:54:01</time>
      </trkpt>
      <trkpt lat="42.33464" lon="3.18538">
        <ele>160</ele>
        <time>2022-05-21 10:54:02</time>
      </trkpt>
      <trkpt lat="42.33466" lon="3.18535">
        <ele>160.2</ele>
        <time>2022-05-21 10:54:03</time>
      </trkpt>
      <trkpt lat="42.33467" lon="3.18532">
        <ele>160.2</ele>
        <time>2022-05-21 10:54:04</time>
      </trkpt>
      <trkpt lat="42.33468" lon="3.18529">
        <ele>160.4</ele>
        <time>2022-05-21 10:54:05</time>
      </trkpt>
      <trkpt lat="42.3347" lon="3.18527">
        <ele>160.6</ele>
        <time>2022-05-21 10:54:06</time>
      </trkpt>
      <trkpt lat="42.33471" lon="3.18524">
        <ele>160.8</ele>
        <time>2022-05-21 10:54:07</time>
      </trkpt>
      <trkpt lat="42.33472" lon="3.18521">
        <ele>160.8</ele>
        <time>2022-05-21 10:54:08</time>
      </trkpt>
      <trkpt lat="42.33474" lon="3.18519">
        <ele>161</ele>
        <time>2022-05-21 10:54:09</time>
      </trkpt>
      <trkpt lat="42.33477" lon="3.18516">
        <ele>161</ele>
        <time>2022-05-21 10:54:10</time>
      </trkpt>
      <trkpt lat="42.33479" lon="3.18514">
        <ele>161.2</ele>
        <time>2022-05-21 10:54:11</time>
      </trkpt>
      <trkpt lat="42.33481" lon="3.18512">
        <ele>161.2</ele>
        <time>2022-05-21 10:54:12</time>
      </trkpt>
      <trkpt lat="42.33484" lon="3.18511">
        <ele>161.2</ele>
        <time>2022-05-21 10:54:13</time>
      </trkpt>
      <trkpt lat="42.33486" lon="3.1851">
        <ele>161.4</ele>
        <time>2022-05-21 10:54:14</time>
      </trkpt>
      <trkpt lat="42.33489" lon="3.1851">
        <ele>161.4</ele>
        <time>2022-05-21 10:54:15</time>
      </trkpt>
      <trkpt lat="42.33493" lon="3.18509">
        <ele>161.6</ele>
        <time>2022-05-21 10:54:16</time>
      </trkpt>
      <trkpt lat="42.33495" lon="3.18509">
        <ele>161.8</ele>
        <time>2022-05-21 10:54:17</time>
      </trkpt>
      <trkpt lat="42.33498" lon="3.18508">
        <ele>161.8</ele>
        <time>2022-05-21 10:54:18</time>
      </trkpt>
      <trkpt lat="42.335" lon="3.18508">
        <ele>162</ele>
        <time>2022-05-21 10:54:19</time>
      </trkpt>
      <trkpt lat="42.33503" lon="3.18507">
        <ele>162.2</ele>
        <time>2022-05-21 10:54:20</time>
      </trkpt>
      <trkpt lat="42.33506" lon="3.18507">
        <ele>162.4</ele>
        <time>2022-05-21 10:54:21</time>
      </trkpt>
      <trkpt lat="42.33508" lon="3.18507">
        <ele>162.6</ele>
        <time>2022-05-21 10:54:22</time>
      </trkpt>
      <trkpt lat="42.33511" lon="3.18507">
        <ele>162.6</ele>
        <time>2022-05-21 10:54:23</time>
      </trkpt>
      <trkpt lat="42.33514" lon="3.18507">
        <ele>162.8</ele>
        <time>2022-05-21 10:54:24</time>
      </trkpt>
      <trkpt lat="42.33516" lon="3.18507">
        <ele>163</ele>
        <time>2022-05-21 10:54:25</time>
      </trkpt>
      <trkpt lat="42.33519" lon="3.18507">
        <ele>163.2</ele>
        <time>2022-05-21 10:54:26</time>
      </trkpt>
      <trkpt lat="42.33521" lon="3.18507">
        <ele>163.4</ele>
        <time>2022-05-21 10:54:27</time>
      </trkpt>
      <trkpt lat="42.33524" lon="3.18506">
        <ele>163.6</ele>
        <time>2022-05-21 10:54:28</time>
      </trkpt>
      <trkpt lat="42.33526" lon="3.18505">
        <ele>163.8</ele>
        <time>2022-05-21 10:54:29</time>
      </trkpt>
      <trkpt lat="42.33529" lon="3.18504">
        <ele>164</ele>
        <time>2022-05-21 10:54:30</time>
      </trkpt>
      <trkpt lat="42.33531" lon="3.18503">
        <ele>164.4</ele>
        <time>2022-05-21 10:54:31</time>
      </trkpt>
      <trkpt lat="42.33533" lon="3.18502">
        <ele>164.6</ele>
        <time>2022-05-21 10:54:32</time>
      </trkpt>
      <trkpt lat="42.33535" lon="3.185">
        <ele>164.8</ele>
        <time>2022-05-21 10:54:33</time>
      </trkpt>
      <trkpt lat="42.33536" lon="3.18498">
        <ele>164.8</ele>
        <time>2022-05-21 10:54:34</time>
      </trkpt>
      <trkpt lat="42.33538" lon="3.18496">
        <ele>165</ele>
        <time>2022-05-21 10:54:35</time>
      </trkpt>
      <trkpt lat="42.3354" lon="3.18493">
        <ele>165.4</ele>
        <time>2022-05-21 10:54:36</time>
      </trkpt>
      <trkpt lat="42.33541" lon="3.1849">
        <ele>165.6</ele>
        <time>2022-05-21 10:54:37</time>
      </trkpt>
      <trkpt lat="42.33541" lon="3.18488">
        <ele>165.8</ele>
        <time>2022-05-21 10:54:38</time>
      </trkpt>
      <trkpt lat="42.33542" lon="3.18485">
        <ele>166</ele>
        <time>2022-05-21 10:54:39</time>
      </trkpt>
      <trkpt lat="42.33542" lon="3.18482">
        <ele>166.2</ele>
        <time>2022-05-21 10:54:40</time>
      </trkpt>
      <trkpt lat="42.33542" lon="3.18479">
        <ele>166.4</ele>
        <time>2022-05-21 10:54:41</time>
      </trkpt>
      <trkpt lat="42.33541" lon="3.18476">
        <ele>166.8</ele>
        <time>2022-05-21 10:54:42</time>
      </trkpt>
      <trkpt lat="42.33541" lon="3.18474">
        <ele>167</ele>
        <time>2022-05-21 10:54:43</time>
      </trkpt>
      <trkpt lat="42.33539" lon="3.18471">
        <ele>167.2</ele>
        <time>2022-05-21 10:54:44</time>
      </trkpt>
      <trkpt lat="42.33538" lon="3.18469">
        <ele>167.4</ele>
        <time>2022-05-21 10:54:45</time>
      </trkpt>
      <trkpt lat="42.33536" lon="3.18467">
        <ele>167.6</ele>
        <time>2022-05-21 10:54:46</time>
      </trkpt>
      <trkpt lat="42.33534" lon="3.18465">
        <ele>167.8</ele>
        <time>2022-05-21 10:54:47</time>
      </trkpt>
      <trkpt lat="42.33532" lon="3.18464">
        <ele>168</ele>
        <time>2022-05-21 10:54:48</time>
      </trkpt>
      <trkpt lat="42.3353" lon="3.18464">
        <ele>168.4</ele>
        <time>2022-05-21 10:54:49</time>
      </trkpt>
      <trkpt lat="42.33528" lon="3.18463">
        <ele>168.6</ele>
        <time>2022-05-21 10:54:50</time>
      </trkpt>
      <trkpt lat="42.33526" lon="3.18463">
        <ele>168.8</ele>
        <time>2022-05-21 10:54:51</time>
      </trkpt>
      <trkpt lat="42.33523" lon="3.18464">
        <ele>169.2</ele>
        <time>2022-05-21 10:54:52</time>
      </trkpt>
      <trkpt lat="42.33522" lon="3.18464">
        <ele>169.4</ele>
        <time>2022-05-21 10:54:53</time>
      </trkpt>
      <trkpt lat="42.33519" lon="3.18465">
        <ele>169.8</ele>
        <time>2022-05-21 10:54:54</time>
      </trkpt>
      <trkpt lat="42.33517" lon="3.18465">
        <ele>170</ele>
        <time>2022-05-21 10:54:55</time>
      </trkpt>
      <trkpt lat="42.33516" lon="3.18466">
        <ele>170.2</ele>
        <time>2022-05-21 10:54:56</time>
      </trkpt>
      <trkpt lat="42.33514" lon="3.18466">
        <ele>170.6</ele>
        <time>2022-05-21 10:54:57</time>
      </trkpt>
      <trkpt lat="42.33512" lon="3.18467">
        <ele>170.8</ele>
        <time>2022-05-21 10:54:58</time>
      </trkpt>
      <trkpt lat="42.3351" lon="3.18468">
        <ele>171</ele>
        <time>2022-05-21 10:54:59</time>
      </trkpt>
      <trkpt lat="42.33508" lon="3.18469">
        <ele>171.2</ele>
        <time>2022-05-21 10:55:00</time>
      </trkpt>
      <trkpt lat="42.33506" lon="3.18469">
        <ele>171.4</ele>
        <time>2022-05-21 10:55:01</time>
      </trkpt>
      <trkpt lat="42.33504" lon="3.1847">
        <ele>171.6</ele>
        <time>2022-05-21 10:55:02</time>
      </trkpt>
      <trkpt lat="42.33502" lon="3.18471">
        <ele>172</ele>
        <time>2022-05-21 10:55:03</time>
      </trkpt>
      <trkpt lat="42.335" lon="3.18472">
        <ele>172.2</ele>
        <time>2022-05-21 10:55:04</time>
      </trkpt>
      <trkpt lat="42.33498" lon="3.18473">
        <ele>172.4</ele>
        <time>2022-05-21 10:55:05</time>
      </trkpt>
      <trkpt lat="42.33497" lon="3.18475">
        <ele>172.6</ele>
        <time>2022-05-21 10:55:06</time>
      </trkpt>
      <trkpt lat="42.33494" lon="3.18476">
        <ele>172.8</ele>
        <time>2022-05-21 10:55:07</time>
      </trkpt>
      <trkpt lat="42.33493" lon="3.18476">
        <ele>173</ele>
        <time>2022-05-21 10:55:08</time>
      </trkpt>
      <trkpt lat="42.3349" lon="3.18477">
        <ele>173.2</ele>
        <time>2022-05-21 10:55:09</time>
      </trkpt>
      <trkpt lat="42.33488" lon="3.18477">
        <ele>173.4</ele>
        <time>2022-05-21 10:55:10</time>
      </trkpt>
      <trkpt lat="42.33486" lon="3.18477">
        <ele>173.8</ele>
        <time>2022-05-21 10:55:11</time>
      </trkpt>
      <trkpt lat="42.33485" lon="3.18476">
        <ele>174</ele>
        <time>2022-05-21 10:55:12</time>
      </trkpt>
      <trkpt lat="42.33482" lon="3.18476">
        <ele>174.2</ele>
        <time>2022-05-21 10:55:13</time>
      </trkpt>
      <trkpt lat="42.3348" lon="3.18476">
        <ele>174.4</ele>
        <time>2022-05-21 10:55:14</time>
      </trkpt>
      <trkpt lat="42.33478" lon="3.18476">
        <ele>174.6</ele>
        <time>2022-05-21 10:55:15</time>
      </trkpt>
      <trkpt lat="42.33476" lon="3.18476">
        <ele>174.8</ele>
        <time>2022-05-21 10:55:16</time>
      </trkpt>
      <trkpt lat="42.33474" lon="3.18476">
        <ele>175.2</ele>
        <time>2022-05-21 10:55:17</time>
      </trkpt>
      <trkpt lat="42.33472" lon="3.18477">
        <ele>175.2</ele>
        <time>2022-05-21 10:55:18</time>
      </trkpt>
      <trkpt lat="42.3347" lon="3.18477">
        <ele>175.4</ele>
        <time>2022-05-21 10:55:19</time>
      </trkpt>
      <trkpt lat="42.33468" lon="3.18478">
        <ele>175.8</ele>
        <time>2022-05-21 10:55:20</time>
      </trkpt>
      <trkpt lat="42.33465" lon="3.18479">
        <ele>176</ele>
        <time>2022-05-21 10:55:21</time>
      </trkpt>
      <trkpt lat="42.33464" lon="3.1848">
        <ele>176.2</ele>
        <time>2022-05-21 10:55:22</time>
      </trkpt>
      <trkpt lat="42.33462" lon="3.18481">
        <ele>176.4</ele>
        <time>2022-05-21 10:55:23</time>
      </trkpt>
      <trkpt lat="42.3346" lon="3.18483">
        <ele>176.6</ele>
        <time>2022-05-21 10:55:24</time>
      </trkpt>
      <trkpt lat="42.33458" lon="3.18484">
        <ele>176.8</ele>
        <time>2022-05-21 10:55:25</time>
      </trkpt>
      <trkpt lat="42.33456" lon="3.18485">
        <ele>177</ele>
        <time>2022-05-21 10:55:26</time>
      </trkpt>
      <trkpt lat="42.33454" lon="3.18487">
        <ele>177.2</ele>
        <time>2022-05-21 10:55:27</time>
      </trkpt>
      <trkpt lat="42.33452" lon="3.18489">
        <ele>177.4</ele>
        <time>2022-05-21 10:55:28</time>
      </trkpt>
      <trkpt lat="42.33451" lon="3.18491">
        <ele>177.6</ele>
        <time>2022-05-21 10:55:29</time>
      </trkpt>
      <trkpt lat="42.33449" lon="3.18493">
        <ele>177.8</ele>
        <time>2022-05-21 10:55:30</time>
      </trkpt>
      <trkpt lat="42.33447" lon="3.18495">
        <ele>178</ele>
        <time>2022-05-21 10:55:31</time>
      </trkpt>
      <trkpt lat="42.33445" lon="3.18498">
        <ele>178.2</ele>
        <time>2022-05-21 10:55:32</time>
      </trkpt>
      <trkpt lat="42.33444" lon="3.185">
        <ele>178.2</ele>
        <time>2022-05-21 10:55:33</time>
      </trkpt>
      <trkpt lat="42.33442" lon="3.18502">
        <ele>178.4</ele>
        <time>2022-05-21 10:55:34</time>
      </trkpt>
      <trkpt lat="42.3344" lon="3.18505">
        <ele>178.6</ele>
        <time>2022-05-21 10:55:35</time>
      </trkpt>
      <trkpt lat="42.33439" lon="3.18507">
        <ele>178.8</ele>
        <time>2022-05-21 10:55:36</time>
      </trkpt>
      <trkpt lat="42.33437" lon="3.18509">
        <ele>179</ele>
        <time>2022-05-21 10:55:37</time>
      </trkpt>
      <trkpt lat="42.33435" lon="3.18511">
        <ele>179.2</ele>
        <time>2022-05-21 10:55:38</time>
      </trkpt>
      <trkpt lat="42.33433" lon="3.18513">
        <ele>179.4</ele>
        <time>2022-05-21 10:55:39</time>
      </trkpt>
      <trkpt lat="42.33431" lon="3.18515">
        <ele>179.6</ele>
        <time>2022-05-21 10:55:40</time>
      </trkpt>
      <trkpt lat="42.33429" lon="3.18517">
        <ele>179.6</ele>
        <time>2022-05-21 10:55:41</time>
      </trkpt>
      <trkpt lat="42.33427" lon="3.18519">
        <ele>179.8</ele>
        <time>2022-05-21 10:55:42</time>
      </trkpt>
      <trkpt lat="42.33424" lon="3.1852">
        <ele>180</ele>
        <time>2022-05-21 10:55:43</time>
      </trkpt>
      <trkpt lat="42.33422" lon="3.18522">
        <ele>180</ele>
        <time>2022-05-21 10:55:44</time>
      </trkpt>
      <trkpt lat="42.33419" lon="3.18523">
        <ele>180.2</ele>
        <time>2022-05-21 10:55:45</time>
      </trkpt>
      <trkpt lat="42.33417" lon="3.18525">
        <ele>180.4</ele>
        <time>2022-05-21 10:55:46</time>
      </trkpt>
      <trkpt lat="42.33415" lon="3.18526">
        <ele>180.4</ele>
        <time>2022-05-21 10:55:47</time>
      </trkpt>
      <trkpt lat="42.33412" lon="3.18527">
        <ele>180.6</ele>
        <time>2022-05-21 10:55:48</time>
      </trkpt>
      <trkpt lat="42.3341" lon="3.18528">
        <ele>180.8</ele>
        <time>2022-05-21 10:55:49</time>
      </trkpt>
      <trkpt lat="42.33407" lon="3.18528">
        <ele>181</ele>
        <time>2022-05-21 10:55:50</time>
      </trkpt>
      <trkpt lat="42.33404" lon="3.18528">
        <ele>181</ele>
        <time>2022-05-21 10:55:51</time>
      </trkpt>
      <trkpt lat="42.33402" lon="3.18528">
        <ele>181.2</ele>
        <time>2022-05-21 10:55:52</time>
      </trkpt>
      <trkpt lat="42.334" lon="3.18527">
        <ele>181.4</ele>
        <time>2022-05-21 10:55:53</time>
      </trkpt>
      <trkpt lat="42.33397" lon="3.18527">
        <ele>181.6</ele>
        <time>2022-05-21 10:55:54</time>
      </trkpt>
      <trkpt lat="42.33395" lon="3.18526">
        <ele>181.8</ele>
        <time>2022-05-21 10:55:55</time>
      </trkpt>
      <trkpt lat="42.33392" lon="3.18526">
        <ele>182</ele>
        <time>2022-05-21 10:55:56</time>
      </trkpt>
      <trkpt lat="42.3339" lon="3.18527">
        <ele>182.2</ele>
        <time>2022-05-21 10:55:57</time>
      </trkpt>
      <trkpt lat="42.33388" lon="3.18527">
        <ele>182.4</ele>
        <time>2022-05-21 10:55:58</time>
      </trkpt>
      <trkpt lat="42.33386" lon="3.18528">
        <ele>182.6</ele>
        <time>2022-05-21 10:55:59</time>
      </trkpt>
      <trkpt lat="42.33384" lon="3.18529">
        <ele>183</ele>
        <time>2022-05-21 10:56:00</time>
      </trkpt>
      <trkpt lat="42.33383" lon="3.18531">
        <ele>183.2</ele>
        <time>2022-05-21 10:56:01</time>
      </trkpt>
      <trkpt lat="42.33381" lon="3.18532">
        <ele>183.6</ele>
        <time>2022-05-21 10:56:02</time>
      </trkpt>
      <trkpt lat="42.3338" lon="3.18534">
        <ele>183.8</ele>
        <time>2022-05-21 10:56:03</time>
      </trkpt>
      <trkpt lat="42.33379" lon="3.18537">
        <ele>184</ele>
        <time>2022-05-21 10:56:04</time>
      </trkpt>
      <trkpt lat="42.33378" lon="3.18539">
        <ele>184.2</ele>
        <time>2022-05-21 10:56:05</time>
      </trkpt>
      <trkpt lat="42.33376" lon="3.18542">
        <ele>184.4</ele>
        <time>2022-05-21 10:56:06</time>
      </trkpt>
      <trkpt lat="42.33374" lon="3.18544">
        <ele>184.8</ele>
        <time>2022-05-21 10:56:07</time>
      </trkpt>
      <trkpt lat="42.33373" lon="3.18546">
        <ele>185</ele>
        <time>2022-05-21 10:56:08</time>
      </trkpt>
      <trkpt lat="42.33371" lon="3.18548">
        <ele>185.2</ele>
        <time>2022-05-21 10:56:09</time>
      </trkpt>
      <trkpt lat="42.33369" lon="3.1855">
        <ele>185.4</ele>
        <time>2022-05-21 10:56:10</time>
      </trkpt>
      <trkpt lat="42.33368" lon="3.18552">
        <ele>185.8</ele>
        <time>2022-05-21 10:56:11</time>
      </trkpt>
      <trkpt lat="42.33366" lon="3.18554">
        <ele>186</ele>
        <time>2022-05-21 10:56:12</time>
      </trkpt>
      <trkpt lat="42.33365" lon="3.18556">
        <ele>186.2</ele>
        <time>2022-05-21 10:56:13</time>
      </trkpt>
      <trkpt lat="42.33363" lon="3.18559">
        <ele>186.4</ele>
        <time>2022-05-21 10:56:14</time>
      </trkpt>
      <trkpt lat="42.33362" lon="3.18563">
        <ele>186.6</ele>
        <time>2022-05-21 10:56:15</time>
      </trkpt>
      <trkpt lat="42.33361" lon="3.18566">
        <ele>187</ele>
        <time>2022-05-21 10:56:16</time>
      </trkpt>
      <trkpt lat="42.3336" lon="3.18569">
        <ele>187</ele>
        <time>2022-05-21 10:56:17</time>
      </trkpt>
      <trkpt lat="42.33358" lon="3.18572">
        <ele>187.2</ele>
        <time>2022-05-21 10:56:18</time>
      </trkpt>
      <trkpt lat="42.33357" lon="3.18574">
        <ele>187.4</ele>
        <time>2022-05-21 10:56:19</time>
      </trkpt>
      <trkpt lat="42.33356" lon="3.18577">
        <ele>187.6</ele>
        <time>2022-05-21 10:56:20</time>
      </trkpt>
      <trkpt lat="42.33355" lon="3.1858">
        <ele>187.8</ele>
        <time>2022-05-21 10:56:21</time>
      </trkpt>
      <trkpt lat="42.33354" lon="3.18583">
        <ele>188.2</ele>
        <time>2022-05-21 10:56:22</time>
      </trkpt>
      <trkpt lat="42.33353" lon="3.18586">
        <ele>188.2</ele>
        <time>2022-05-21 10:56:23</time>
      </trkpt>
      <trkpt lat="42.33352" lon="3.18589">
        <ele>188.4</ele>
        <time>2022-05-21 10:56:24</time>
      </trkpt>
      <trkpt lat="42.33351" lon="3.18592">
        <ele>188.6</ele>
        <time>2022-05-21 10:56:25</time>
      </trkpt>
      <trkpt lat="42.3335" lon="3.18595">
        <ele>188.8</ele>
        <time>2022-05-21 10:56:26</time>
      </trkpt>
      <trkpt lat="42.33349" lon="3.18598">
        <ele>189</ele>
        <time>2022-05-21 10:56:27</time>
      </trkpt>
      <trkpt lat="42.33348" lon="3.18601">
        <ele>189.2</ele>
        <time>2022-05-21 10:56:28</time>
      </trkpt>
      <trkpt lat="42.33347" lon="3.18604">
        <ele>189.4</ele>
        <time>2022-05-21 10:56:29</time>
      </trkpt>
      <trkpt lat="42.33345" lon="3.18607">
        <ele>189.6</ele>
        <time>2022-05-21 10:56:30</time>
      </trkpt>
      <trkpt lat="42.33343" lon="3.1861">
        <ele>189.6</ele>
        <time>2022-05-21 10:56:31</time>
      </trkpt>
      <trkpt lat="42.33342" lon="3.18612">
        <ele>189.8</ele>
        <time>2022-05-21 10:56:32</time>
      </trkpt>
      <trkpt lat="42.3334" lon="3.18615">
        <ele>190</ele>
        <time>2022-05-21 10:56:33</time>
      </trkpt>
      <trkpt lat="42.33337" lon="3.18617">
        <ele>190.2</ele>
        <time>2022-05-21 10:56:34</time>
      </trkpt>
      <trkpt lat="42.33335" lon="3.18618">
        <ele>190.4</ele>
        <time>2022-05-21 10:56:35</time>
      </trkpt>
      <trkpt lat="42.33333" lon="3.1862">
        <ele>190.6</ele>
        <time>2022-05-21 10:56:36</time>
      </trkpt>
      <trkpt lat="42.33331" lon="3.18621">
        <ele>190.8</ele>
        <time>2022-05-21 10:56:37</time>
      </trkpt>
      <trkpt lat="42.33328" lon="3.18622">
        <ele>191</ele>
        <time>2022-05-21 10:56:38</time>
      </trkpt>
      <trkpt lat="42.33326" lon="3.18622">
        <ele>191.2</ele>
        <time>2022-05-21 10:56:39</time>
      </trkpt>
      <trkpt lat="42.33324" lon="3.18622">
        <ele>191.4</ele>
        <time>2022-05-21 10:56:40</time>
      </trkpt>
      <trkpt lat="42.33321" lon="3.18621">
        <ele>191.6</ele>
        <time>2022-05-21 10:56:41</time>
      </trkpt>
      <trkpt lat="42.33319" lon="3.1862">
        <ele>191.8</ele>
        <time>2022-05-21 10:56:42</time>
      </trkpt>
      <trkpt lat="42.33317" lon="3.18618">
        <ele>192</ele>
        <time>2022-05-21 10:56:43</time>
      </trkpt>
      <trkpt lat="42.33316" lon="3.18617">
        <ele>192.2</ele>
        <time>2022-05-21 10:56:44</time>
      </trkpt>
      <trkpt lat="42.33314" lon="3.18615">
        <ele>192.4</ele>
        <time>2022-05-21 10:56:45</time>
      </trkpt>
      <trkpt lat="42.33313" lon="3.18613">
        <ele>192.8</ele>
        <time>2022-05-21 10:56:46</time>
      </trkpt>
      <trkpt lat="42.33312" lon="3.1861">
        <ele>193</ele>
        <time>2022-05-21 10:56:47</time>
      </trkpt>
      <trkpt lat="42.33311" lon="3.18608">
        <ele>193.2</ele>
        <time>2022-05-21 10:56:48</time>
      </trkpt>
      <trkpt lat="42.33309" lon="3.18606">
        <ele>193.2</ele>
        <time>2022-05-21 10:56:49</time>
      </trkpt>
      <trkpt lat="42.33308" lon="3.18604">
        <ele>193.6</ele>
        <time>2022-05-21 10:56:50</time>
      </trkpt>
      <trkpt lat="42.33307" lon="3.18602">
        <ele>193.8</ele>
        <time>2022-05-21 10:56:51</time>
      </trkpt>
      <trkpt lat="42.33305" lon="3.186">
        <ele>194.2</ele>
        <time>2022-05-21 10:56:52</time>
      </trkpt>
      <trkpt lat="42.33304" lon="3.18598">
        <ele>194.4</ele>
        <time>2022-05-21 10:56:53</time>
      </trkpt>
      <trkpt lat="42.33302" lon="3.18596">
        <ele>194.8</ele>
        <time>2022-05-21 10:56:54</time>
      </trkpt>
      <trkpt lat="42.33301" lon="3.18594">
        <ele>195</ele>
        <time>2022-05-21 10:56:55</time>
      </trkpt>
      <trkpt lat="42.333" lon="3.18592">
        <ele>195.2</ele>
        <time>2022-05-21 10:56:56</time>
      </trkpt>
      <trkpt lat="42.33299" lon="3.1859">
        <ele>195.6</ele>
        <time>2022-05-21 10:56:57</time>
      </trkpt>
      <trkpt lat="42.33298" lon="3.18588">
        <ele>195.8</ele>
        <time>2022-05-21 10:56:58</time>
      </trkpt>
      <trkpt lat="42.33297" lon="3.18586">
        <ele>196</ele>
        <time>2022-05-21 10:56:59</time>
      </trkpt>
      <trkpt lat="42.33296" lon="3.18583">
        <ele>196.4</ele>
        <time>2022-05-21 10:57:00</time>
      </trkpt>
      <trkpt lat="42.33295" lon="3.18581">
        <ele>196.6</ele>
        <time>2022-05-21 10:57:01</time>
      </trkpt>
      <trkpt lat="42.33293" lon="3.18579">
        <ele>196.8</ele>
        <time>2022-05-21 10:57:02</time>
      </trkpt>
      <trkpt lat="42.33292" lon="3.18577">
        <ele>197</ele>
        <time>2022-05-21 10:57:03</time>
      </trkpt>
      <trkpt lat="42.33291" lon="3.18575">
        <ele>197.2</ele>
        <time>2022-05-21 10:57:04</time>
      </trkpt>
      <trkpt lat="42.3329" lon="3.18572">
        <ele>197.4</ele>
        <time>2022-05-21 10:57:05</time>
      </trkpt>
      <trkpt lat="42.33288" lon="3.1857">
        <ele>197.8</ele>
        <time>2022-05-21 10:57:06</time>
      </trkpt>
      <trkpt lat="42.33287" lon="3.18568">
        <ele>198</ele>
        <time>2022-05-21 10:57:07</time>
      </trkpt>
      <trkpt lat="42.33286" lon="3.18566">
        <ele>198.2</ele>
        <time>2022-05-21 10:57:08</time>
      </trkpt>
      <trkpt lat="42.33285" lon="3.18564">
        <ele>198.4</ele>
        <time>2022-05-21 10:57:09</time>
      </trkpt>
      <trkpt lat="42.33284" lon="3.18562">
        <ele>198.6</ele>
        <time>2022-05-21 10:57:10</time>
      </trkpt>
      <trkpt lat="42.33282" lon="3.18561">
        <ele>198.8</ele>
        <time>2022-05-21 10:57:11</time>
      </trkpt>
      <trkpt lat="42.33281" lon="3.18559">
        <ele>199</ele>
        <time>2022-05-21 10:57:12</time>
      </trkpt>
      <trkpt lat="42.3328" lon="3.18557">
        <ele>199.2</ele>
        <time>2022-05-21 10:57:13</time>
      </trkpt>
      <trkpt lat="42.33279" lon="3.18556">
        <ele>199.4</ele>
        <time>2022-05-21 10:57:14</time>
      </trkpt>
      <trkpt lat="42.33277" lon="3.18553">
        <ele>199.6</ele>
        <time>2022-05-21 10:57:15</time>
      </trkpt>
      <trkpt lat="42.33276" lon="3.18551">
        <ele>199.8</ele>
        <time>2022-05-21 10:57:16</time>
      </trkpt>
      <trkpt lat="42.33275" lon="3.18549">
        <ele>200</ele>
        <time>2022-05-21 10:57:17</time>
      </trkpt>
      <trkpt lat="42.33274" lon="3.18547">
        <ele>200.2</ele>
        <time>2022-05-21 10:57:18</time>
      </trkpt>
      <trkpt lat="42.33272" lon="3.18544">
        <ele>200.4</ele>
        <time>2022-05-21 10:57:19</time>
      </trkpt>
      <trkpt lat="42.33271" lon="3.18543">
        <ele>200.6</ele>
        <time>2022-05-21 10:57:20</time>
      </trkpt>
      <trkpt lat="42.3327" lon="3.18541">
        <ele>200.8</ele>
        <time>2022-05-21 10:57:21</time>
      </trkpt>
      <trkpt lat="42.33268" lon="3.18539">
        <ele>201.2</ele>
        <time>2022-05-21 10:57:22</time>
      </trkpt>
      <trkpt lat="42.33267" lon="3.18538">
        <ele>201.4</ele>
        <time>2022-05-21 10:57:23</time>
      </trkpt>
      <trkpt lat="42.33265" lon="3.18536">
        <ele>201.6</ele>
        <time>2022-05-21 10:57:24</time>
      </trkpt>
      <trkpt lat="42.33264" lon="3.18535">
        <ele>201.8</ele>
        <time>2022-05-21 10:57:25</time>
      </trkpt>
      <trkpt lat="42.33262" lon="3.18533">
        <ele>202</ele>
        <time>2022-05-21 10:57:26</time>
      </trkpt>
      <trkpt lat="42.33261" lon="3.18531">
        <ele>202.2</ele>
        <time>2022-05-21 10:57:27</time>
      </trkpt>
      <trkpt lat="42.3326" lon="3.18529">
        <ele>202.4</ele>
        <time>2022-05-21 10:57:28</time>
      </trkpt>
      <trkpt lat="42.33258" lon="3.18527">
        <ele>202.6</ele>
        <time>2022-05-21 10:57:29</time>
      </trkpt>
      <trkpt lat="42.33257" lon="3.18526">
        <ele>202.8</ele>
        <time>2022-05-21 10:57:30</time>
      </trkpt>
      <trkpt lat="42.33256" lon="3.18523">
        <ele>203</ele>
        <time>2022-05-21 10:57:31</time>
      </trkpt>
      <trkpt lat="42.33255" lon="3.18521">
        <ele>203.2</ele>
        <time>2022-05-21 10:57:32</time>
      </trkpt>
      <trkpt lat="42.33254" lon="3.18519">
        <ele>203.4</ele>
        <time>2022-05-21 10:57:33</time>
      </trkpt>
      <trkpt lat="42.33252" lon="3.18518">
        <ele>203.8</ele>
        <time>2022-05-21 10:57:34</time>
      </trkpt>
      <trkpt lat="42.33251" lon="3.18516">
        <ele>204</ele>
        <time>2022-05-21 10:57:35</time>
      </trkpt>
      <trkpt lat="42.3325" lon="3.18514">
        <ele>204.2</ele>
        <time>2022-05-21 10:57:36</time>
      </trkpt>
      <trkpt lat="42.33248" lon="3.18513">
        <ele>204.6</ele>
        <time>2022-05-21 10:57:37</time>
      </trkpt>
      <trkpt lat="42.33247" lon="3.18511">
        <ele>204.8</ele>
        <time>2022-05-21 10:57:38</time>
      </trkpt>
      <trkpt lat="42.33245" lon="3.1851">
        <ele>205</ele>
        <time>2022-05-21 10:57:39</time>
      </trkpt>
      <trkpt lat="42.33244" lon="3.18508">
        <ele>205.4</ele>
        <time>2022-05-21 10:57:40</time>
      </trkpt>
      <trkpt lat="42.33243" lon="3.18506">
        <ele>205.6</ele>
        <time>2022-05-21 10:57:41</time>
      </trkpt>
      <trkpt lat="42.33241" lon="3.18505">
        <ele>206</ele>
        <time>2022-05-21 10:57:42</time>
      </trkpt>
      <trkpt lat="42.33239" lon="3.18503">
        <ele>206.2</ele>
        <time>2022-05-21 10:57:43</time>
      </trkpt>
      <trkpt lat="42.33238" lon="3.18501">
        <ele>206.6</ele>
        <time>2022-05-21 10:57:44</time>
      </trkpt>
      <trkpt lat="42.33237" lon="3.185">
        <ele>206.8</ele>
        <time>2022-05-21 10:57:45</time>
      </trkpt>
      <trkpt lat="42.33236" lon="3.18499">
        <ele>207.2</ele>
        <time>2022-05-21 10:57:46</time>
      </trkpt>
      <trkpt lat="42.33234" lon="3.18496">
        <ele>207.6</ele>
        <time>2022-05-21 10:57:47</time>
      </trkpt>
      <trkpt lat="42.33232" lon="3.18494">
        <ele>207.8</ele>
        <time>2022-05-21 10:57:48</time>
      </trkpt>
      <trkpt lat="42.33231" lon="3.18492">
        <ele>208.2</ele>
        <time>2022-05-21 10:57:49</time>
      </trkpt>
      <trkpt lat="42.33229" lon="3.1849">
        <ele>208.4</ele>
        <time>2022-05-21 10:57:50</time>
      </trkpt>
      <trkpt lat="42.33228" lon="3.18489">
        <ele>208.8</ele>
        <time>2022-05-21 10:57:51</time>
      </trkpt>
      <trkpt lat="42.33226" lon="3.18487">
        <ele>209.2</ele>
        <time>2022-05-21 10:57:52</time>
      </trkpt>
      <trkpt lat="42.33225" lon="3.18486">
        <ele>209.4</ele>
        <time>2022-05-21 10:57:53</time>
      </trkpt>
      <trkpt lat="42.33223" lon="3.18484">
        <ele>209.8</ele>
        <time>2022-05-21 10:57:54</time>
      </trkpt>
      <trkpt lat="42.33221" lon="3.18483">
        <ele>210</ele>
        <time>2022-05-21 10:57:55</time>
      </trkpt>
      <trkpt lat="42.3322" lon="3.18482">
        <ele>210.4</ele>
        <time>2022-05-21 10:57:56</time>
      </trkpt>
      <trkpt lat="42.33218" lon="3.1848">
        <ele>210.8</ele>
        <time>2022-05-21 10:57:57</time>
      </trkpt>
      <trkpt lat="42.33216" lon="3.18479">
        <ele>211</ele>
        <time>2022-05-21 10:57:58</time>
      </trkpt>
      <trkpt lat="42.33215" lon="3.18478">
        <ele>211.4</ele>
        <time>2022-05-21 10:57:59</time>
      </trkpt>
      <trkpt lat="42.33214" lon="3.18477">
        <ele>211.6</ele>
        <time>2022-05-21 10:58:00</time>
      </trkpt>
      <trkpt lat="42.33212" lon="3.18476">
        <ele>212</ele>
        <time>2022-05-21 10:58:01</time>
      </trkpt>
      <trkpt lat="42.3321" lon="3.18474">
        <ele>212.2</ele>
        <time>2022-05-21 10:58:02</time>
      </trkpt>
      <trkpt lat="42.33209" lon="3.18473">
        <ele>212.6</ele>
        <time>2022-05-21 10:58:03</time>
      </trkpt>
      <trkpt lat="42.33207" lon="3.18472">
        <ele>212.8</ele>
        <time>2022-05-21 10:58:04</time>
      </trkpt>
      <trkpt lat="42.33205" lon="3.18472">
        <ele>213.2</ele>
        <time>2022-05-21 10:58:05</time>
      </trkpt>
      <trkpt lat="42.33204" lon="3.18471">
        <ele>213.4</ele>
        <time>2022-05-21 10:58:06</time>
      </trkpt>
      <trkpt lat="42.33202" lon="3.18471">
        <ele>213.8</ele>
        <time>2022-05-21 10:58:07</time>
      </trkpt>
      <trkpt lat="42.332" lon="3.18471">
        <ele>214</ele>
        <time>2022-05-21 10:58:08</time>
      </trkpt>
      <trkpt lat="42.33198" lon="3.1847">
        <ele>214.4</ele>
        <time>2022-05-21 10:58:09</time>
      </trkpt>
      <trkpt lat="42.33197" lon="3.18469">
        <ele>214.6</ele>
        <time>2022-05-21 10:58:10</time>
      </trkpt>
      <trkpt lat="42.33195" lon="3.18468">
        <ele>215</ele>
        <time>2022-05-21 10:58:11</time>
      </trkpt>
      <trkpt lat="42.33194" lon="3.18467">
        <ele>215.2</ele>
        <time>2022-05-21 10:58:12</time>
      </trkpt>
      <trkpt lat="42.33192" lon="3.18466">
        <ele>215.6</ele>
        <time>2022-05-21 10:58:13</time>
      </trkpt>
      <trkpt lat="42.3319" lon="3.18466">
        <ele>215.8</ele>
        <time>2022-05-21 10:58:14</time>
      </trkpt>
      <trkpt lat="42.33188" lon="3.18466">
        <ele>216</ele>
        <time>2022-05-21 10:58:15</time>
      </trkpt>
      <trkpt lat="42.33186" lon="3.18466">
        <ele>216.2</ele>
        <time>2022-05-21 10:58:16</time>
      </trkpt>
      <trkpt lat="42.33184" lon="3.18466">
        <ele>216.6</ele>
        <time>2022-05-21 10:58:17</time>
      </trkpt>
      <trkpt lat="42.33182" lon="3.18466">
        <ele>216.8</ele>
        <time>2022-05-21 10:58:18</time>
      </trkpt>
      <trkpt lat="42.3318" lon="3.18466">
        <ele>217</ele>
        <time>2022-05-21 10:58:19</time>
      </trkpt>
      <trkpt lat="42.33178" lon="3.18466">
        <ele>217.2</ele>
        <time>2022-05-21 10:58:20</time>
      </trkpt>
      <trkpt lat="42.33176" lon="3.18466">
        <ele>217.4</ele>
        <time>2022-05-21 10:58:21</time>
      </trkpt>
      <trkpt lat="42.33174" lon="3.18466">
        <ele>217.6</ele>
        <time>2022-05-21 10:58:22</time>
      </trkpt>
      <trkpt lat="42.33172" lon="3.18466">
        <ele>217.8</ele>
        <time>2022-05-21 10:58:23</time>
      </trkpt>
      <trkpt lat="42.33169" lon="3.18467">
        <ele>218</ele>
        <time>2022-05-21 10:58:24</time>
      </trkpt>
      <trkpt lat="42.33168" lon="3.18468">
        <ele>218.2</ele>
        <time>2022-05-21 10:58:25</time>
      </trkpt>
      <trkpt lat="42.33165" lon="3.18469">
        <ele>218.4</ele>
        <time>2022-05-21 10:58:26</time>
      </trkpt>
      <trkpt lat="42.33164" lon="3.1847">
        <ele>218.6</ele>
        <time>2022-05-21 10:58:27</time>
      </trkpt>
      <trkpt lat="42.33162" lon="3.18471">
        <ele>218.6</ele>
        <time>2022-05-21 10:58:28</time>
      </trkpt>
      <trkpt lat="42.3316" lon="3.18474">
        <ele>218.8</ele>
        <time>2022-05-21 10:58:29</time>
      </trkpt>
      <trkpt lat="42.33158" lon="3.18476">
        <ele>219</ele>
        <time>2022-05-21 10:58:30</time>
      </trkpt>
      <trkpt lat="42.33155" lon="3.18479">
        <ele>219</ele>
        <time>2022-05-21 10:58:31</time>
      </trkpt>
      <trkpt lat="42.33153" lon="3.18481">
        <ele>219.2</ele>
        <time>2022-05-21 10:58:32</time>
      </trkpt>
      <trkpt lat="42.33151" lon="3.18484">
        <ele>219.2</ele>
        <time>2022-05-21 10:58:33</time>
      </trkpt>
      <trkpt lat="42.33149" lon="3.18487">
        <ele>219.2</ele>
        <time>2022-05-21 10:58:34</time>
      </trkpt>
      <trkpt lat="42.33147" lon="3.18489">
        <ele>219.4</ele>
        <time>2022-05-21 10:58:35</time>
      </trkpt>
      <trkpt lat="42.33145" lon="3.18492">
        <ele>219.4</ele>
        <time>2022-05-21 10:58:36</time>
      </trkpt>
      <trkpt lat="42.33143" lon="3.18494">
        <ele>219.4</ele>
        <time>2022-05-21 10:58:37</time>
      </trkpt>
      <trkpt lat="42.3314" lon="3.18497">
        <ele>219.6</ele>
        <time>2022-05-21 10:58:38</time>
      </trkpt>
      <trkpt lat="42.33139" lon="3.185">
        <ele>219.6</ele>
        <time>2022-05-21 10:58:39</time>
      </trkpt>
      <trkpt lat="42.33137" lon="3.18503">
        <ele>219.8</ele>
        <time>2022-05-21 10:58:40</time>
      </trkpt>
      <trkpt lat="42.33135" lon="3.18506">
        <ele>219.8</ele>
        <time>2022-05-21 10:58:41</time>
      </trkpt>
      <trkpt lat="42.33134" lon="3.18509">
        <ele>220</ele>
        <time>2022-05-21 10:58:42</time>
      </trkpt>
      <trkpt lat="42.33132" lon="3.18511">
        <ele>220</ele>
        <time>2022-05-21 10:58:43</time>
      </trkpt>
      <trkpt lat="42.33131" lon="3.18514">
        <ele>220.2</ele>
        <time>2022-05-21 10:58:44</time>
      </trkpt>
      <trkpt lat="42.33129" lon="3.18517">
        <ele>220.4</ele>
        <time>2022-05-21 10:58:45</time>
      </trkpt>
      <trkpt lat="42.33127" lon="3.1852">
        <ele>220.6</ele>
        <time>2022-05-21 10:58:46</time>
      </trkpt>
      <trkpt lat="42.33126" lon="3.18523">
        <ele>220.8</ele>
        <time>2022-05-21 10:58:47</time>
      </trkpt>
      <trkpt lat="42.33124" lon="3.18525">
        <ele>221</ele>
        <time>2022-05-21 10:58:48</time>
      </trkpt>
      <trkpt lat="42.33122" lon="3.18528">
        <ele>221</ele>
        <time>2022-05-21 10:58:49</time>
      </trkpt>
      <trkpt lat="42.33121" lon="3.18531">
        <ele>221.2</ele>
        <time>2022-05-21 10:58:50</time>
      </trkpt>
      <trkpt lat="42.33119" lon="3.18533">
        <ele>221.4</ele>
        <time>2022-05-21 10:58:51</time>
      </trkpt>
      <trkpt lat="42.33118" lon="3.18536">
        <ele>221.6</ele>
        <time>2022-05-21 10:58:52</time>
      </trkpt>
      <trkpt lat="42.33116" lon="3.18539">
        <ele>221.8</ele>
        <time>2022-05-21 10:58:53</time>
      </trkpt>
      <trkpt lat="42.33114" lon="3.18541">
        <ele>221.8</ele>
        <time>2022-05-21 10:58:54</time>
      </trkpt>
      <trkpt lat="42.33113" lon="3.18543">
        <ele>222</ele>
        <time>2022-05-21 10:58:55</time>
      </trkpt>
      <trkpt lat="42.33111" lon="3.18545">
        <ele>222.2</ele>
        <time>2022-05-21 10:58:56</time>
      </trkpt>
      <trkpt lat="42.33109" lon="3.18548">
        <ele>222.4</ele>
        <time>2022-05-21 10:58:57</time>
      </trkpt>
      <trkpt lat="42.33106" lon="3.18551">
        <ele>222.6</ele>
        <time>2022-05-21 10:58:58</time>
      </trkpt>
      <trkpt lat="42.33105" lon="3.18553">
        <ele>222.8</ele>
        <time>2022-05-21 10:58:59</time>
      </trkpt>
      <trkpt lat="42.33102" lon="3.18555">
        <ele>223</ele>
        <time>2022-05-21 10:59:00</time>
      </trkpt>
      <trkpt lat="42.331" lon="3.18558">
        <ele>223.2</ele>
        <time>2022-05-21 10:59:01</time>
      </trkpt>
      <trkpt lat="42.33098" lon="3.18561">
        <ele>223.2</ele>
        <time>2022-05-21 10:59:02</time>
      </trkpt>
      <trkpt lat="42.33096" lon="3.18563">
        <ele>223.4</ele>
        <time>2022-05-21 10:59:03</time>
      </trkpt>
      <trkpt lat="42.33094" lon="3.18565">
        <ele>223.6</ele>
        <time>2022-05-21 10:59:04</time>
      </trkpt>
      <trkpt lat="42.33091" lon="3.18568">
        <ele>223.6</ele>
        <time>2022-05-21 10:59:05</time>
      </trkpt>
      <trkpt lat="42.33089" lon="3.1857">
        <ele>223.8</ele>
        <time>2022-05-21 10:59:06</time>
      </trkpt>
      <trkpt lat="42.33087" lon="3.18572">
        <ele>224</ele>
        <time>2022-05-21 10:59:07</time>
      </trkpt>
      <trkpt lat="42.33084" lon="3.18574">
        <ele>224</ele>
        <time>2022-05-21 10:59:08</time>
      </trkpt>
      <trkpt lat="42.33082" lon="3.18576">
        <ele>224.2</ele>
        <time>2022-05-21 10:59:09</time>
      </trkpt>
      <trkpt lat="42.33079" lon="3.18578">
        <ele>224.4</ele>
        <time>2022-05-21 10:59:10</time>
      </trkpt>
      <trkpt lat="42.33077" lon="3.18579">
        <ele>224.4</ele>
        <time>2022-05-21 10:59:11</time>
      </trkpt>
      <trkpt lat="42.33075" lon="3.18581">
        <ele>224.6</ele>
        <time>2022-05-21 10:59:12</time>
      </trkpt>
      <trkpt lat="42.33071" lon="3.18584">
        <ele>224.6</ele>
        <time>2022-05-21 10:59:13</time>
      </trkpt>
      <trkpt lat="42.33069" lon="3.18586">
        <ele>224.8</ele>
        <time>2022-05-21 10:59:14</time>
      </trkpt>
      <trkpt lat="42.33066" lon="3.18588">
        <ele>225</ele>
        <time>2022-05-21 10:59:15</time>
      </trkpt>
      <trkpt lat="42.33064" lon="3.1859">
        <ele>225.2</ele>
        <time>2022-05-21 10:59:16</time>
      </trkpt>
      <trkpt lat="42.33061" lon="3.18593">
        <ele>225.2</ele>
        <time>2022-05-21 10:59:17</time>
      </trkpt>
      <trkpt lat="42.33059" lon="3.18595">
        <ele>225.4</ele>
        <time>2022-05-21 10:59:18</time>
      </trkpt>
      <trkpt lat="42.33056" lon="3.18597">
        <ele>225.6</ele>
        <time>2022-05-21 10:59:19</time>
      </trkpt>
      <trkpt lat="42.33053" lon="3.186">
        <ele>225.6</ele>
        <time>2022-05-21 10:59:20</time>
      </trkpt>
      <trkpt lat="42.33051" lon="3.18602">
        <ele>225.8</ele>
        <time>2022-05-21 10:59:21</time>
      </trkpt>
      <trkpt lat="42.33049" lon="3.18604">
        <ele>226</ele>
        <time>2022-05-21 10:59:22</time>
      </trkpt>
      <trkpt lat="42.33046" lon="3.18607">
        <ele>226.2</ele>
        <time>2022-05-21 10:59:23</time>
      </trkpt>
      <trkpt lat="42.33044" lon="3.1861">
        <ele>226.4</ele>
        <time>2022-05-21 10:59:24</time>
      </trkpt>
      <trkpt lat="42.33042" lon="3.18613">
        <ele>226.4</ele>
        <time>2022-05-21 10:59:25</time>
      </trkpt>
      <trkpt lat="42.3304" lon="3.18616">
        <ele>226.6</ele>
        <time>2022-05-21 10:59:26</time>
      </trkpt>
      <trkpt lat="42.33038" lon="3.18619">
        <ele>226.6</ele>
        <time>2022-05-21 10:59:27</time>
      </trkpt>
      <trkpt lat="42.33036" lon="3.18621">
        <ele>226.8</ele>
        <time>2022-05-21 10:59:28</time>
      </trkpt>
      <trkpt lat="42.33034" lon="3.18623">
        <ele>227</ele>
        <time>2022-05-21 10:59:29</time>
      </trkpt>
      <trkpt lat="42.33032" lon="3.18625">
        <ele>227.2</ele>
        <time>2022-05-21 10:59:30</time>
      </trkpt>
      <trkpt lat="42.33029" lon="3.18628">
        <ele>227.2</ele>
        <time>2022-05-21 10:59:31</time>
      </trkpt>
      <trkpt lat="42.33028" lon="3.1863">
        <ele>227.4</ele>
        <time>2022-05-21 10:59:32</time>
      </trkpt>
      <trkpt lat="42.33026" lon="3.18632">
        <ele>227.6</ele>
        <time>2022-05-21 10:59:33</time>
      </trkpt>
      <trkpt lat="42.33023" lon="3.18635">
        <ele>227.8</ele>
        <time>2022-05-21 10:59:34</time>
      </trkpt>
      <trkpt lat="42.33021" lon="3.18637">
        <ele>227.8</ele>
        <time>2022-05-21 10:59:35</time>
      </trkpt>
      <trkpt lat="42.33019" lon="3.1864">
        <ele>228</ele>
        <time>2022-05-21 10:59:36</time>
      </trkpt>
      <trkpt lat="42.33017" lon="3.18643">
        <ele>228.2</ele>
        <time>2022-05-21 10:59:37</time>
      </trkpt>
      <trkpt lat="42.33015" lon="3.18645">
        <ele>228.4</ele>
        <time>2022-05-21 10:59:38</time>
      </trkpt>
      <trkpt lat="42.33013" lon="3.18648">
        <ele>228.6</ele>
        <time>2022-05-21 10:59:39</time>
      </trkpt>
      <trkpt lat="42.33011" lon="3.18651">
        <ele>228.8</ele>
        <time>2022-05-21 10:59:40</time>
      </trkpt>
      <trkpt lat="42.33008" lon="3.18653">
        <ele>229</ele>
        <time>2022-05-21 10:59:41</time>
      </trkpt>
      <trkpt lat="42.33006" lon="3.18656">
        <ele>229.2</ele>
        <time>2022-05-21 10:59:42</time>
      </trkpt>
      <trkpt lat="42.33004" lon="3.18659">
        <ele>229.4</ele>
        <time>2022-05-21 10:59:43</time>
      </trkpt>
      <trkpt lat="42.33002" lon="3.18662">
        <ele>229.6</ele>
        <time>2022-05-21 10:59:44</time>
      </trkpt>
      <trkpt lat="42.32999" lon="3.18664">
        <ele>229.8</ele>
        <time>2022-05-21 10:59:45</time>
      </trkpt>
      <trkpt lat="42.32996" lon="3.18666">
        <ele>230</ele>
        <time>2022-05-21 10:59:46</time>
      </trkpt>
      <trkpt lat="42.32994" lon="3.18668">
        <ele>230.2</ele>
        <time>2022-05-21 10:59:47</time>
      </trkpt>
      <trkpt lat="42.32991" lon="3.18669">
        <ele>230.2</ele>
        <time>2022-05-21 10:59:48</time>
      </trkpt>
      <trkpt lat="42.32988" lon="3.18669">
        <ele>230.6</ele>
        <time>2022-05-21 10:59:49</time>
      </trkpt>
      <trkpt lat="42.32985" lon="3.1867">
        <ele>230.8</ele>
        <time>2022-05-21 10:59:50</time>
      </trkpt>
      <trkpt lat="42.32982" lon="3.18669">
        <ele>230.8</ele>
        <time>2022-05-21 10:59:51</time>
      </trkpt>
      <trkpt lat="42.3298" lon="3.18668">
        <ele>231</ele>
        <time>2022-05-21 10:59:52</time>
      </trkpt>
      <trkpt lat="42.32978" lon="3.18667">
        <ele>231.2</ele>
        <time>2022-05-21 10:59:53</time>
      </trkpt>
      <trkpt lat="42.32976" lon="3.18664">
        <ele>231.4</ele>
        <time>2022-05-21 10:59:54</time>
      </trkpt>
      <trkpt lat="42.32976" lon="3.1866">
        <ele>231.6</ele>
        <time>2022-05-21 10:59:55</time>
      </trkpt>
      <trkpt lat="42.32976" lon="3.18656">
        <ele>231.8</ele>
        <time>2022-05-21 10:59:56</time>
      </trkpt>
      <trkpt lat="42.32977" lon="3.18653">
        <ele>232</ele>
        <time>2022-05-21 10:59:57</time>
      </trkpt>
      <trkpt lat="42.32979" lon="3.1865">
        <ele>232</ele>
        <time>2022-05-21 10:59:58</time>
      </trkpt>
      <trkpt lat="42.3298" lon="3.18647">
        <ele>232.2</ele>
        <time>2022-05-21 10:59:59</time>
      </trkpt>
      <trkpt lat="42.32983" lon="3.18644">
        <ele>232.4</ele>
        <time>2022-05-21 11:00:00</time>
      </trkpt>
      <trkpt lat="42.32985" lon="3.18642">
        <ele>232.6</ele>
        <time>2022-05-21 11:00:01</time>
      </trkpt>
      <trkpt lat="42.32988" lon="3.1864">
        <ele>232.8</ele>
        <time>2022-05-21 11:00:02</time>
      </trkpt>
      <trkpt lat="42.3299" lon="3.18638">
        <ele>233</ele>
        <time>2022-05-21 11:00:03</time>
      </trkpt>
      <trkpt lat="42.32992" lon="3.18637">
        <ele>233.2</ele>
        <time>2022-05-21 11:00:04</time>
      </trkpt>
      <trkpt lat="42.32995" lon="3.18636">
        <ele>233.6</ele>
        <time>2022-05-21 11:00:05</time>
      </trkpt>
      <trkpt lat="42.32997" lon="3.18635">
        <ele>233.6</ele>
        <time>2022-05-21 11:00:06</time>
      </trkpt>
      <trkpt lat="42.32998" lon="3.18635">
        <ele>233.8</ele>
        <time>2022-05-21 11:00:07</time>
      </trkpt>
      <trkpt lat="42.33001" lon="3.18634">
        <ele>234.2</ele>
        <time>2022-05-21 11:00:08</time>
      </trkpt>
      <trkpt lat="42.33003" lon="3.18633">
        <ele>234.4</ele>
        <time>2022-05-21 11:00:09</time>
      </trkpt>
      <trkpt lat="42.33006" lon="3.18632">
        <ele>234.6</ele>
        <time>2022-05-21 11:00:10</time>
      </trkpt>
      <trkpt lat="42.33008" lon="3.18631">
        <ele>234.8</ele>
        <time>2022-05-21 11:00:11</time>
      </trkpt>
      <trkpt lat="42.3301" lon="3.18629">
        <ele>234.8</ele>
        <time>2022-05-21 11:00:12</time>
      </trkpt>
      <trkpt lat="42.33012" lon="3.18628">
        <ele>235</ele>
        <time>2022-05-21 11:00:13</time>
      </trkpt>
      <trkpt lat="42.33014" lon="3.18626">
        <ele>235.2</ele>
        <time>2022-05-21 11:00:14</time>
      </trkpt>
      <trkpt lat="42.33016" lon="3.18624">
        <ele>235.4</ele>
        <time>2022-05-21 11:00:15</time>
      </trkpt>
      <trkpt lat="42.33018" lon="3.18621">
        <ele>235.4</ele>
        <time>2022-05-21 11:00:16</time>
      </trkpt>
      <trkpt lat="42.33019" lon="3.18619">
        <ele>235.6</ele>
        <time>2022-05-21 11:00:17</time>
      </trkpt>
      <trkpt lat="42.33021" lon="3.18617">
        <ele>235.8</ele>
        <time>2022-05-21 11:00:18</time>
      </trkpt>
      <trkpt lat="42.33023" lon="3.18614">
        <ele>235.8</ele>
        <time>2022-05-21 11:00:19</time>
      </trkpt>
      <trkpt lat="42.33024" lon="3.18611">
        <ele>236</ele>
        <time>2022-05-21 11:00:20</time>
      </trkpt>
      <trkpt lat="42.33026" lon="3.18608">
        <ele>236.2</ele>
        <time>2022-05-21 11:00:21</time>
      </trkpt>
      <trkpt lat="42.33028" lon="3.18606">
        <ele>236.2</ele>
        <time>2022-05-21 11:00:22</time>
      </trkpt>
      <trkpt lat="42.3303" lon="3.18604">
        <ele>236.4</ele>
        <time>2022-05-21 11:00:23</time>
      </trkpt>
      <trkpt lat="42.33031" lon="3.18601">
        <ele>236.6</ele>
        <time>2022-05-21 11:00:24</time>
      </trkpt>
      <trkpt lat="42.33033" lon="3.18599">
        <ele>236.8</ele>
        <time>2022-05-21 11:00:25</time>
      </trkpt>
      <trkpt lat="42.33034" lon="3.18597">
        <ele>237</ele>
        <time>2022-05-21 11:00:26</time>
      </trkpt>
      <trkpt lat="42.33036" lon="3.18594">
        <ele>237.2</ele>
        <time>2022-05-21 11:00:27</time>
      </trkpt>
      <trkpt lat="42.33038" lon="3.18592">
        <ele>237.4</ele>
        <time>2022-05-21 11:00:28</time>
      </trkpt>
      <trkpt lat="42.33039" lon="3.1859">
        <ele>237.6</ele>
        <time>2022-05-21 11:00:29</time>
      </trkpt>
      <trkpt lat="42.33041" lon="3.18588">
        <ele>237.8</ele>
        <time>2022-05-21 11:00:30</time>
      </trkpt>
      <trkpt lat="42.33042" lon="3.18585">
        <ele>238</ele>
        <time>2022-05-21 11:00:31</time>
      </trkpt>
      <trkpt lat="42.33044" lon="3.18583">
        <ele>238.2</ele>
        <time>2022-05-21 11:00:32</time>
      </trkpt>
      <trkpt lat="42.33045" lon="3.1858">
        <ele>238.4</ele>
        <time>2022-05-21 11:00:33</time>
      </trkpt>
      <trkpt lat="42.33047" lon="3.18578">
        <ele>238.6</ele>
        <time>2022-05-21 11:00:34</time>
      </trkpt>
      <trkpt lat="42.33049" lon="3.18575">
        <ele>238.8</ele>
        <time>2022-05-21 11:00:35</time>
      </trkpt>
      <trkpt lat="42.3305" lon="3.18573">
        <ele>239</ele>
        <time>2022-05-21 11:00:36</time>
      </trkpt>
      <trkpt lat="42.33052" lon="3.1857">
        <ele>239.2</ele>
        <time>2022-05-21 11:00:37</time>
      </trkpt>
      <trkpt lat="42.33054" lon="3.18568">
        <ele>239.4</ele>
        <time>2022-05-21 11:00:38</time>
      </trkpt>
      <trkpt lat="42.33056" lon="3.18566">
        <ele>239.8</ele>
        <time>2022-05-21 11:00:39</time>
      </trkpt>
      <trkpt lat="42.33057" lon="3.18564">
        <ele>240</ele>
        <time>2022-05-21 11:00:40</time>
      </trkpt>
      <trkpt lat="42.33059" lon="3.18561">
        <ele>240.2</ele>
        <time>2022-05-21 11:00:41</time>
      </trkpt>
      <trkpt lat="42.3306" lon="3.18559">
        <ele>240.4</ele>
        <time>2022-05-21 11:00:42</time>
      </trkpt>
      <trkpt lat="42.33061" lon="3.18557">
        <ele>240.8</ele>
        <time>2022-05-21 11:00:43</time>
      </trkpt>
      <trkpt lat="42.33063" lon="3.18555">
        <ele>241</ele>
        <time>2022-05-21 11:00:44</time>
      </trkpt>
      <trkpt lat="42.33064" lon="3.18553">
        <ele>241.2</ele>
        <time>2022-05-21 11:00:45</time>
      </trkpt>
      <trkpt lat="42.33065" lon="3.18552">
        <ele>241.2</ele>
        <time>2022-05-21 11:00:46</time>
      </trkpt>
      <trkpt lat="42.33066" lon="3.18549">
        <ele>241.6</ele>
        <time>2022-05-21 11:00:47</time>
      </trkpt>
      <trkpt lat="42.33068" lon="3.18548">
        <ele>241.8</ele>
        <time>2022-05-21 11:00:48</time>
      </trkpt>
      <trkpt lat="42.33069" lon="3.18546">
        <ele>242</ele>
        <time>2022-05-21 11:00:49</time>
      </trkpt>
      <trkpt lat="42.3307" lon="3.18544">
        <ele>242.4</ele>
        <time>2022-05-21 11:00:50</time>
      </trkpt>
      <trkpt lat="42.33071" lon="3.18543">
        <ele>242.6</ele>
        <time>2022-05-21 11:00:51</time>
      </trkpt>
      <trkpt lat="42.33073" lon="3.18541">
        <ele>242.8</ele>
        <time>2022-05-21 11:00:52</time>
      </trkpt>
      <trkpt lat="42.33074" lon="3.18539">
        <ele>243</ele>
        <time>2022-05-21 11:00:53</time>
      </trkpt>
      <trkpt lat="42.33075" lon="3.18538">
        <ele>243.2</ele>
        <time>2022-05-21 11:00:54</time>
      </trkpt>
      <trkpt lat="42.33077" lon="3.18536">
        <ele>243.2</ele>
        <time>2022-05-21 11:00:55</time>
      </trkpt>
      <trkpt lat="42.33078" lon="3.18533">
        <ele>243.4</ele>
        <time>2022-05-21 11:00:56</time>
      </trkpt>
      <trkpt lat="42.33079" lon="3.18531">
        <ele>243.6</ele>
        <time>2022-05-21 11:00:57</time>
      </trkpt>
      <trkpt lat="42.3308" lon="3.18529">
        <ele>243.8</ele>
        <time>2022-05-21 11:00:58</time>
      </trkpt>
      <trkpt lat="42.33081" lon="3.18526">
        <ele>244</ele>
        <time>2022-05-21 11:00:59</time>
      </trkpt>
      <trkpt lat="42.33082" lon="3.18523">
        <ele>244.2</ele>
        <time>2022-05-21 11:01:00</time>
      </trkpt>
      <trkpt lat="42.33084" lon="3.18521">
        <ele>244.2</ele>
        <time>2022-05-21 11:01:01</time>
      </trkpt>
      <trkpt lat="42.33085" lon="3.18518">
        <ele>244.4</ele>
        <time>2022-05-21 11:01:02</time>
      </trkpt>
      <trkpt lat="42.33086" lon="3.18516">
        <ele>244.6</ele>
        <time>2022-05-21 11:01:03</time>
      </trkpt>
      <trkpt lat="42.33087" lon="3.18513">
        <ele>244.6</ele>
        <time>2022-05-21 11:01:04</time>
      </trkpt>
      <trkpt lat="42.33088" lon="3.18511">
        <ele>244.8</ele>
        <time>2022-05-21 11:01:05</time>
      </trkpt>
      <trkpt lat="42.33089" lon="3.18508">
        <ele>245</ele>
        <time>2022-05-21 11:01:06</time>
      </trkpt>
      <trkpt lat="42.3309" lon="3.18505">
        <ele>245.2</ele>
        <time>2022-05-21 11:01:07</time>
      </trkpt>
      <trkpt lat="42.33091" lon="3.18503">
        <ele>245.2</ele>
        <time>2022-05-21 11:01:08</time>
      </trkpt>
      <trkpt lat="42.33092" lon="3.185">
        <ele>245.4</ele>
        <time>2022-05-21 11:01:09</time>
      </trkpt>
      <trkpt lat="42.33093" lon="3.18497">
        <ele>245.6</ele>
        <time>2022-05-21 11:01:10</time>
      </trkpt>
      <trkpt lat="42.33094" lon="3.18495">
        <ele>245.6</ele>
        <time>2022-05-21 11:01:11</time>
      </trkpt>
      <trkpt lat="42.33095" lon="3.18492">
        <ele>245.8</ele>
        <time>2022-05-21 11:01:12</time>
      </trkpt>
      <trkpt lat="42.33096" lon="3.18489">
        <ele>246</ele>
        <time>2022-05-21 11:01:13</time>
      </trkpt>
      <trkpt lat="42.33097" lon="3.18487">
        <ele>246.2</ele>
        <time>2022-05-21 11:01:14</time>
      </trkpt>
      <trkpt lat="42.33098" lon="3.18484">
        <ele>246.4</ele>
        <time>2022-05-21 11:01:15</time>
      </trkpt>
      <trkpt lat="42.33099" lon="3.18482">
        <ele>246.6</ele>
        <time>2022-05-21 11:01:16</time>
      </trkpt>
      <trkpt lat="42.33099" lon="3.18479">
        <ele>246.6</ele>
        <time>2022-05-21 11:01:17</time>
      </trkpt>
      <trkpt lat="42.331" lon="3.18476">
        <ele>246.8</ele>
        <time>2022-05-21 11:01:18</time>
      </trkpt>
      <trkpt lat="42.33101" lon="3.18473">
        <ele>247</ele>
        <time>2022-05-21 11:01:19</time>
      </trkpt>
      <trkpt lat="42.33102" lon="3.18471">
        <ele>247.2</ele>
        <time>2022-05-21 11:01:20</time>
      </trkpt>
      <trkpt lat="42.33103" lon="3.18468">
        <ele>247.4</ele>
        <time>2022-05-21 11:01:21</time>
      </trkpt>
      <trkpt lat="42.33104" lon="3.18465">
        <ele>247.6</ele>
        <time>2022-05-21 11:01:22</time>
      </trkpt>
      <trkpt lat="42.33105" lon="3.18463">
        <ele>247.8</ele>
        <time>2022-05-21 11:01:23</time>
      </trkpt>
      <trkpt lat="42.33106" lon="3.1846">
        <ele>248</ele>
        <time>2022-05-21 11:01:24</time>
      </trkpt>
      <trkpt lat="42.33107" lon="3.18457">
        <ele>248.2</ele>
        <time>2022-05-21 11:01:25</time>
      </trkpt>
      <trkpt lat="42.33107" lon="3.18455">
        <ele>248.4</ele>
        <time>2022-05-21 11:01:26</time>
      </trkpt>
      <trkpt lat="42.33108" lon="3.18452">
        <ele>248.6</ele>
        <time>2022-05-21 11:01:27</time>
      </trkpt>
      <trkpt lat="42.33109" lon="3.18449">
        <ele>248.8</ele>
        <time>2022-05-21 11:01:28</time>
      </trkpt>
      <trkpt lat="42.3311" lon="3.18446">
        <ele>249</ele>
        <time>2022-05-21 11:01:29</time>
      </trkpt>
      <trkpt lat="42.3311" lon="3.18444">
        <ele>249.2</ele>
        <time>2022-05-21 11:01:30</time>
      </trkpt>
      <trkpt lat="42.33111" lon="3.18441">
        <ele>249.4</ele>
        <time>2022-05-21 11:01:31</time>
      </trkpt>
      <trkpt lat="42.33112" lon="3.18438">
        <ele>249.6</ele>
        <time>2022-05-21 11:01:32</time>
      </trkpt>
      <trkpt lat="42.33113" lon="3.18436">
        <ele>249.8</ele>
        <time>2022-05-21 11:01:33</time>
      </trkpt>
      <trkpt lat="42.33114" lon="3.18433">
        <ele>250</ele>
        <time>2022-05-21 11:01:34</time>
      </trkpt>
      <trkpt lat="42.33115" lon="3.1843">
        <ele>250.2</ele>
        <time>2022-05-21 11:01:35</time>
      </trkpt>
      <trkpt lat="42.33115" lon="3.18428">
        <ele>250.4</ele>
        <time>2022-05-21 11:01:36</time>
      </trkpt>
      <trkpt lat="42.33116" lon="3.18425">
        <ele>250.6</ele>
        <time>2022-05-21 11:01:37</time>
      </trkpt>
      <trkpt lat="42.33117" lon="3.18422">
        <ele>250.8</ele>
        <time>2022-05-21 11:01:38</time>
      </trkpt>
      <trkpt lat="42.33118" lon="3.1842">
        <ele>251</ele>
        <time>2022-05-21 11:01:39</time>
      </trkpt>
      <trkpt lat="42.33118" lon="3.18417">
        <ele>251.2</ele>
        <time>2022-05-21 11:01:40</time>
      </trkpt>
      <trkpt lat="42.33119" lon="3.18414">
        <ele>251.4</ele>
        <time>2022-05-21 11:01:41</time>
      </trkpt>
      <trkpt lat="42.3312" lon="3.18412">
        <ele>251.6</ele>
        <time>2022-05-21 11:01:42</time>
      </trkpt>
      <trkpt lat="42.33121" lon="3.18409">
        <ele>251.8</ele>
        <time>2022-05-21 11:01:43</time>
      </trkpt>
      <trkpt lat="42.33121" lon="3.18407">
        <ele>252</ele>
        <time>2022-05-21 11:01:44</time>
      </trkpt>
      <trkpt lat="42.33122" lon="3.18404">
        <ele>252.2</ele>
        <time>2022-05-21 11:01:45</time>
      </trkpt>
      <trkpt lat="42.33124" lon="3.18402">
        <ele>252.4</ele>
        <time>2022-05-21 11:01:46</time>
      </trkpt>
      <trkpt lat="42.33125" lon="3.184">
        <ele>252.8</ele>
        <time>2022-05-21 11:01:47</time>
      </trkpt>
      <trkpt lat="42.33126" lon="3.18398">
        <ele>253</ele>
        <time>2022-05-21 11:01:48</time>
      </trkpt>
      <trkpt lat="42.33128" lon="3.18396">
        <ele>253.2</ele>
        <time>2022-05-21 11:01:49</time>
      </trkpt>
      <trkpt lat="42.3313" lon="3.18395">
        <ele>253.6</ele>
        <time>2022-05-21 11:01:50</time>
      </trkpt>
      <trkpt lat="42.33132" lon="3.18393">
        <ele>253.8</ele>
        <time>2022-05-21 11:01:51</time>
      </trkpt>
      <trkpt lat="42.33133" lon="3.18391">
        <ele>254</ele>
        <time>2022-05-21 11:01:52</time>
      </trkpt>
      <trkpt lat="42.33135" lon="3.1839">
        <ele>254.4</ele>
        <time>2022-05-21 11:01:53</time>
      </trkpt>
      <trkpt lat="42.33137" lon="3.18389">
        <ele>254.6</ele>
        <time>2022-05-21 11:01:54</time>
      </trkpt>
      <trkpt lat="42.3314" lon="3.18388">
        <ele>254.8</ele>
        <time>2022-05-21 11:01:55</time>
      </trkpt>
      <trkpt lat="42.33142" lon="3.18387">
        <ele>255.2</ele>
        <time>2022-05-21 11:01:56</time>
      </trkpt>
      <trkpt lat="42.33144" lon="3.18385">
        <ele>255.4</ele>
        <time>2022-05-21 11:01:57</time>
      </trkpt>
      <trkpt lat="42.33146" lon="3.18384">
        <ele>255.6</ele>
        <time>2022-05-21 11:01:58</time>
      </trkpt>
      <trkpt lat="42.33148" lon="3.18383">
        <ele>255.8</ele>
        <time>2022-05-21 11:01:59</time>
      </trkpt>
      <trkpt lat="42.3315" lon="3.18383">
        <ele>256</ele>
        <time>2022-05-21 11:02:00</time>
      </trkpt>
      <trkpt lat="42.33152" lon="3.18382">
        <ele>256.4</ele>
        <time>2022-05-21 11:02:01</time>
      </trkpt>
      <trkpt lat="42.33154" lon="3.18381">
        <ele>256.6</ele>
        <time>2022-05-21 11:02:02</time>
      </trkpt>
      <trkpt lat="42.33156" lon="3.18381">
        <ele>256.8</ele>
        <time>2022-05-21 11:02:03</time>
      </trkpt>
      <trkpt lat="42.33158" lon="3.1838">
        <ele>257</ele>
        <time>2022-05-21 11:02:04</time>
      </trkpt>
      <trkpt lat="42.3316" lon="3.1838">
        <ele>257.2</ele>
        <time>2022-05-21 11:02:05</time>
      </trkpt>
      <trkpt lat="42.33161" lon="3.18379">
        <ele>257.4</ele>
        <time>2022-05-21 11:02:06</time>
      </trkpt>
      <trkpt lat="42.33164" lon="3.18379">
        <ele>257.6</ele>
        <time>2022-05-21 11:02:07</time>
      </trkpt>
      <trkpt lat="42.33165" lon="3.18379">
        <ele>257.8</ele>
        <time>2022-05-21 11:02:08</time>
      </trkpt>
      <trkpt lat="42.33168" lon="3.18379">
        <ele>258</ele>
        <time>2022-05-21 11:02:09</time>
      </trkpt>
      <trkpt lat="42.3317" lon="3.18378">
        <ele>258.2</ele>
        <time>2022-05-21 11:02:10</time>
      </trkpt>
      <trkpt lat="42.33172" lon="3.18378">
        <ele>258.4</ele>
        <time>2022-05-21 11:02:11</time>
      </trkpt>
      <trkpt lat="42.33174" lon="3.18377">
        <ele>258.6</ele>
        <time>2022-05-21 11:02:12</time>
      </trkpt>
      <trkpt lat="42.33176" lon="3.18376">
        <ele>258.8</ele>
        <time>2022-05-21 11:02:13</time>
      </trkpt>
      <trkpt lat="42.33178" lon="3.18376">
        <ele>259</ele>
        <time>2022-05-21 11:02:14</time>
      </trkpt>
      <trkpt lat="42.3318" lon="3.18376">
        <ele>259.2</ele>
        <time>2022-05-21 11:02:15</time>
      </trkpt>
      <trkpt lat="42.33182" lon="3.18376">
        <ele>259.4</ele>
        <time>2022-05-21 11:02:16</time>
      </trkpt>
      <trkpt lat="42.33184" lon="3.18376">
        <ele>259.6</ele>
        <time>2022-05-21 11:02:17</time>
      </trkpt>
      <trkpt lat="42.33186" lon="3.18376">
        <ele>259.8</ele>
        <time>2022-05-21 11:02:18</time>
      </trkpt>
      <trkpt lat="42.33188" lon="3.18376">
        <ele>260</ele>
        <time>2022-05-21 11:02:19</time>
      </trkpt>
      <trkpt lat="42.3319" lon="3.18376">
        <ele>260.2</ele>
        <time>2022-05-21 11:02:20</time>
      </trkpt>
      <trkpt lat="42.33192" lon="3.18375">
        <ele>260.4</ele>
        <time>2022-05-21 11:02:21</time>
      </trkpt>
      <trkpt lat="42.33194" lon="3.18375">
        <ele>260.6</ele>
        <time>2022-05-21 11:02:22</time>
      </trkpt>
      <trkpt lat="42.33196" lon="3.18374">
        <ele>260.8</ele>
        <time>2022-05-21 11:02:23</time>
      </trkpt>
      <trkpt lat="42.33197" lon="3.18374">
        <ele>261</ele>
        <time>2022-05-21 11:02:24</time>
      </trkpt>
      <trkpt lat="42.33199" lon="3.18374">
        <ele>261.2</ele>
        <time>2022-05-21 11:02:25</time>
      </trkpt>
      <trkpt lat="42.33201" lon="3.18374">
        <ele>261.4</ele>
        <time>2022-05-21 11:02:26</time>
      </trkpt>
      <trkpt lat="42.33203" lon="3.18373">
        <ele>261.6</ele>
        <time>2022-05-21 11:02:27</time>
      </trkpt>
      <trkpt lat="42.33205" lon="3.18373">
        <ele>261.8</ele>
        <time>2022-05-21 11:02:28</time>
      </trkpt>
      <trkpt lat="42.33207" lon="3.18373">
        <ele>262</ele>
        <time>2022-05-21 11:02:29</time>
      </trkpt>
      <trkpt lat="42.33208" lon="3.18372">
        <ele>262.2</ele>
        <time>2022-05-21 11:02:30</time>
      </trkpt>
      <trkpt lat="42.3321" lon="3.18372">
        <ele>262.6</ele>
        <time>2022-05-21 11:02:31</time>
      </trkpt>
      <trkpt lat="42.33212" lon="3.18372">
        <ele>262.8</ele>
        <time>2022-05-21 11:02:32</time>
      </trkpt>
      <trkpt lat="42.33214" lon="3.18371">
        <ele>263</ele>
        <time>2022-05-21 11:02:33</time>
      </trkpt>
      <trkpt lat="42.33216" lon="3.18371">
        <ele>263.2</ele>
        <time>2022-05-21 11:02:34</time>
      </trkpt>
      <trkpt lat="42.33217" lon="3.1837">
        <ele>263.4</ele>
        <time>2022-05-21 11:02:35</time>
      </trkpt>
      <trkpt lat="42.33219" lon="3.18369">
        <ele>263.6</ele>
        <time>2022-05-21 11:02:36</time>
      </trkpt>
      <trkpt lat="42.33221" lon="3.18368">
        <ele>264</ele>
        <time>2022-05-21 11:02:37</time>
      </trkpt>
      <trkpt lat="42.33223" lon="3.18367">
        <ele>264.2</ele>
        <time>2022-05-21 11:02:38</time>
      </trkpt>
      <trkpt lat="42.33224" lon="3.18366">
        <ele>264.4</ele>
        <time>2022-05-21 11:02:39</time>
      </trkpt>
      <trkpt lat="42.33226" lon="3.18364">
        <ele>264.6</ele>
        <time>2022-05-21 11:02:40</time>
      </trkpt>
      <trkpt lat="42.33227" lon="3.18362">
        <ele>264.8</ele>
        <time>2022-05-21 11:02:41</time>
      </trkpt>
      <trkpt lat="42.33228" lon="3.18361">
        <ele>265</ele>
        <time>2022-05-21 11:02:42</time>
      </trkpt>
      <trkpt lat="42.33229" lon="3.18358">
        <ele>265.2</ele>
        <time>2022-05-21 11:02:43</time>
      </trkpt>
      <trkpt lat="42.3323" lon="3.18356">
        <ele>265.6</ele>
        <time>2022-05-21 11:02:44</time>
      </trkpt>
      <trkpt lat="42.33231" lon="3.18354">
        <ele>265.8</ele>
        <time>2022-05-21 11:02:45</time>
      </trkpt>
      <trkpt lat="42.33232" lon="3.18351">
        <ele>266</ele>
        <time>2022-05-21 11:02:46</time>
      </trkpt>
      <trkpt lat="42.33232" lon="3.18349">
        <ele>266.2</ele>
        <time>2022-05-21 11:02:47</time>
      </trkpt>
      <trkpt lat="42.33232" lon="3.18346">
        <ele>266.4</ele>
        <time>2022-05-21 11:02:48</time>
      </trkpt>
      <trkpt lat="42.33232" lon="3.18344">
        <ele>266.8</ele>
        <time>2022-05-21 11:02:49</time>
      </trkpt>
      <trkpt lat="42.33231" lon="3.18341">
        <ele>267</ele>
        <time>2022-05-21 11:02:50</time>
      </trkpt>
      <trkpt lat="42.33231" lon="3.18339">
        <ele>267.2</ele>
        <time>2022-05-21 11:02:51</time>
      </trkpt>
      <trkpt lat="42.3323" lon="3.18336">
        <ele>267.6</ele>
        <time>2022-05-21 11:02:52</time>
      </trkpt>
      <trkpt lat="42.33229" lon="3.18334">
        <ele>267.8</ele>
        <time>2022-05-21 11:02:53</time>
      </trkpt>
      <trkpt lat="42.33228" lon="3.18331">
        <ele>268</ele>
        <time>2022-05-21 11:02:54</time>
      </trkpt>
      <trkpt lat="42.33228" lon="3.18329">
        <ele>268.2</ele>
        <time>2022-05-21 11:02:55</time>
      </trkpt>
      <trkpt lat="42.33227" lon="3.18327">
        <ele>268.4</ele>
        <time>2022-05-21 11:02:56</time>
      </trkpt>
      <trkpt lat="42.33226" lon="3.18324">
        <ele>268.8</ele>
        <time>2022-05-21 11:02:57</time>
      </trkpt>
      <trkpt lat="42.33226" lon="3.18322">
        <ele>269</ele>
        <time>2022-05-21 11:02:58</time>
      </trkpt>
      <trkpt lat="42.33225" lon="3.1832">
        <ele>269.2</ele>
        <time>2022-05-21 11:02:59</time>
      </trkpt>
      <trkpt lat="42.33224" lon="3.18318">
        <ele>269.4</ele>
        <time>2022-05-21 11:03:00</time>
      </trkpt>
      <trkpt lat="42.33223" lon="3.18316">
        <ele>269.6</ele>
        <time>2022-05-21 11:03:01</time>
      </trkpt>
      <trkpt lat="42.33222" lon="3.18314">
        <ele>269.8</ele>
        <time>2022-05-21 11:03:02</time>
      </trkpt>
      <trkpt lat="42.3322" lon="3.18312">
        <ele>270</ele>
        <time>2022-05-21 11:03:03</time>
      </trkpt>
      <trkpt lat="42.33219" lon="3.1831">
        <ele>270.2</ele>
        <time>2022-05-21 11:03:04</time>
      </trkpt>
      <trkpt lat="42.33218" lon="3.18308">
        <ele>270.6</ele>
        <time>2022-05-21 11:03:05</time>
      </trkpt>
      <trkpt lat="42.33217" lon="3.18306">
        <ele>270.8</ele>
        <time>2022-05-21 11:03:06</time>
      </trkpt>
      <trkpt lat="42.33215" lon="3.18304">
        <ele>271</ele>
        <time>2022-05-21 11:03:07</time>
      </trkpt>
      <trkpt lat="42.33214" lon="3.18303">
        <ele>271.2</ele>
        <time>2022-05-21 11:03:08</time>
      </trkpt>
      <trkpt lat="42.33213" lon="3.18301">
        <ele>271.4</ele>
        <time>2022-05-21 11:03:09</time>
      </trkpt>
      <trkpt lat="42.33212" lon="3.18299">
        <ele>271.6</ele>
        <time>2022-05-21 11:03:10</time>
      </trkpt>
      <trkpt lat="42.3321" lon="3.18297">
        <ele>271.8</ele>
        <time>2022-05-21 11:03:11</time>
      </trkpt>
      <trkpt lat="42.33209" lon="3.18295">
        <ele>272</ele>
        <time>2022-05-21 11:03:12</time>
      </trkpt>
      <trkpt lat="42.33207" lon="3.18293">
        <ele>272.2</ele>
        <time>2022-05-21 11:03:13</time>
      </trkpt>
      <trkpt lat="42.33205" lon="3.18291">
        <ele>272.4</ele>
        <time>2022-05-21 11:03:14</time>
      </trkpt>
      <trkpt lat="42.33204" lon="3.18289">
        <ele>272.6</ele>
        <time>2022-05-21 11:03:15</time>
      </trkpt>
      <trkpt lat="42.33203" lon="3.18288">
        <ele>272.8</ele>
        <time>2022-05-21 11:03:16</time>
      </trkpt>
      <trkpt lat="42.33201" lon="3.18286">
        <ele>273</ele>
        <time>2022-05-21 11:03:17</time>
      </trkpt>
      <trkpt lat="42.332" lon="3.18284">
        <ele>273.2</ele>
        <time>2022-05-21 11:03:18</time>
      </trkpt>
      <trkpt lat="42.33199" lon="3.18282">
        <ele>273.4</ele>
        <time>2022-05-21 11:03:19</time>
      </trkpt>
      <trkpt lat="42.33198" lon="3.1828">
        <ele>273.6</ele>
        <time>2022-05-21 11:03:20</time>
      </trkpt>
      <trkpt lat="42.33196" lon="3.18278">
        <ele>273.8</ele>
        <time>2022-05-21 11:03:21</time>
      </trkpt>
      <trkpt lat="42.33195" lon="3.18276">
        <ele>274</ele>
        <time>2022-05-21 11:03:22</time>
      </trkpt>
      <trkpt lat="42.33193" lon="3.18274">
        <ele>274.2</ele>
        <time>2022-05-21 11:03:23</time>
      </trkpt>
      <trkpt lat="42.33192" lon="3.18272">
        <ele>274.4</ele>
        <time>2022-05-21 11:03:24</time>
      </trkpt>
      <trkpt lat="42.3319" lon="3.18271">
        <ele>274.8</ele>
        <time>2022-05-21 11:03:25</time>
      </trkpt>
      <trkpt lat="42.33189" lon="3.18269">
        <ele>275</ele>
        <time>2022-05-21 11:03:26</time>
      </trkpt>
      <trkpt lat="42.33188" lon="3.18267">
        <ele>275.2</ele>
        <time>2022-05-21 11:03:27</time>
      </trkpt>
      <trkpt lat="42.33186" lon="3.18266">
        <ele>275.4</ele>
        <time>2022-05-21 11:03:28</time>
      </trkpt>
      <trkpt lat="42.33184" lon="3.18264">
        <ele>275.6</ele>
        <time>2022-05-21 11:03:29</time>
      </trkpt>
      <trkpt lat="42.33182" lon="3.18263">
        <ele>275.8</ele>
        <time>2022-05-21 11:03:30</time>
      </trkpt>
      <trkpt lat="42.33181" lon="3.18262">
        <ele>276</ele>
        <time>2022-05-21 11:03:31</time>
      </trkpt>
      <trkpt lat="42.33179" lon="3.1826">
        <ele>276.2</ele>
        <time>2022-05-21 11:03:32</time>
      </trkpt>
      <trkpt lat="42.33177" lon="3.18259">
        <ele>276.4</ele>
        <time>2022-05-21 11:03:33</time>
      </trkpt>
      <trkpt lat="42.33176" lon="3.18257">
        <ele>276.6</ele>
        <time>2022-05-21 11:03:34</time>
      </trkpt>
      <trkpt lat="42.33174" lon="3.18256">
        <ele>277</ele>
        <time>2022-05-21 11:03:35</time>
      </trkpt>
      <trkpt lat="42.33172" lon="3.18255">
        <ele>277</ele>
        <time>2022-05-21 11:03:36</time>
      </trkpt>
      <trkpt lat="42.3317" lon="3.18254">
        <ele>277.2</ele>
        <time>2022-05-21 11:03:37</time>
      </trkpt>
      <trkpt lat="42.33168" lon="3.18252">
        <ele>277.6</ele>
        <time>2022-05-21 11:03:38</time>
      </trkpt>
      <trkpt lat="42.33167" lon="3.18251">
        <ele>277.8</ele>
        <time>2022-05-21 11:03:39</time>
      </trkpt>
      <trkpt lat="42.33165" lon="3.18249">
        <ele>278</ele>
        <time>2022-05-21 11:03:40</time>
      </trkpt>
      <trkpt lat="42.33163" lon="3.18248">
        <ele>278.2</ele>
        <time>2022-05-21 11:03:41</time>
      </trkpt>
      <trkpt lat="42.33161" lon="3.18246">
        <ele>278.4</ele>
        <time>2022-05-21 11:03:42</time>
      </trkpt>
      <trkpt lat="42.3316" lon="3.18245">
        <ele>278.6</ele>
        <time>2022-05-21 11:03:43</time>
      </trkpt>
      <trkpt lat="42.33158" lon="3.18243">
        <ele>278.8</ele>
        <time>2022-05-21 11:03:44</time>
      </trkpt>
      <trkpt lat="42.33156" lon="3.18241">
        <ele>279</ele>
        <time>2022-05-21 11:03:45</time>
      </trkpt>
      <trkpt lat="42.33155" lon="3.1824">
        <ele>279.2</ele>
        <time>2022-05-21 11:03:46</time>
      </trkpt>
      <trkpt lat="42.33153" lon="3.18238">
        <ele>279.4</ele>
        <time>2022-05-21 11:03:47</time>
      </trkpt>
      <trkpt lat="42.33152" lon="3.18236">
        <ele>279.6</ele>
        <time>2022-05-21 11:03:48</time>
      </trkpt>
      <trkpt lat="42.3315" lon="3.18235">
        <ele>279.8</ele>
        <time>2022-05-21 11:03:49</time>
      </trkpt>
      <trkpt lat="42.33149" lon="3.18233">
        <ele>280</ele>
        <time>2022-05-21 11:03:50</time>
      </trkpt>
      <trkpt lat="42.33148" lon="3.18232">
        <ele>280</ele>
        <time>2022-05-21 11:03:51</time>
      </trkpt>
      <trkpt lat="42.33146" lon="3.18229">
        <ele>280.4</ele>
        <time>2022-05-21 11:03:52</time>
      </trkpt>
      <trkpt lat="42.33145" lon="3.18227">
        <ele>280.6</ele>
        <time>2022-05-21 11:03:53</time>
      </trkpt>
      <trkpt lat="42.33143" lon="3.18226">
        <ele>280.8</ele>
        <time>2022-05-21 11:03:54</time>
      </trkpt>
      <trkpt lat="42.33141" lon="3.18224">
        <ele>281</ele>
        <time>2022-05-21 11:03:55</time>
      </trkpt>
      <trkpt lat="42.33139" lon="3.18223">
        <ele>281.2</ele>
        <time>2022-05-21 11:03:56</time>
      </trkpt>
      <trkpt lat="42.33137" lon="3.18221">
        <ele>281.2</ele>
        <time>2022-05-21 11:03:57</time>
      </trkpt>
      <trkpt lat="42.33136" lon="3.18219">
        <ele>281.4</ele>
        <time>2022-05-21 11:03:58</time>
      </trkpt>
      <trkpt lat="42.33134" lon="3.18218">
        <ele>281.6</ele>
        <time>2022-05-21 11:03:59</time>
      </trkpt>
      <trkpt lat="42.33132" lon="3.18216">
        <ele>281.6</ele>
        <time>2022-05-21 11:04:00</time>
      </trkpt>
      <trkpt lat="42.3313" lon="3.18215">
        <ele>281.8</ele>
        <time>2022-05-21 11:04:01</time>
      </trkpt>
      <trkpt lat="42.33129" lon="3.18213">
        <ele>282</ele>
        <time>2022-05-21 11:04:02</time>
      </trkpt>
      <trkpt lat="42.33127" lon="3.18211">
        <ele>282</ele>
        <time>2022-05-21 11:04:03</time>
      </trkpt>
      <trkpt lat="42.33125" lon="3.1821">
        <ele>282.2</ele>
        <time>2022-05-21 11:04:04</time>
      </trkpt>
      <trkpt lat="42.33123" lon="3.18208">
        <ele>282.2</ele>
        <time>2022-05-21 11:04:05</time>
      </trkpt>
      <trkpt lat="42.33121" lon="3.18205">
        <ele>282.4</ele>
        <time>2022-05-21 11:04:06</time>
      </trkpt>
      <trkpt lat="42.33119" lon="3.18203">
        <ele>282.4</ele>
        <time>2022-05-21 11:04:07</time>
      </trkpt>
      <trkpt lat="42.33118" lon="3.18201">
        <ele>282.6</ele>
        <time>2022-05-21 11:04:08</time>
      </trkpt>
      <trkpt lat="42.33116" lon="3.18199">
        <ele>282.6</ele>
        <time>2022-05-21 11:04:09</time>
      </trkpt>
      <trkpt lat="42.33115" lon="3.18197">
        <ele>282.8</ele>
        <time>2022-05-21 11:04:10</time>
      </trkpt>
      <trkpt lat="42.33113" lon="3.18194">
        <ele>283</ele>
        <time>2022-05-21 11:04:11</time>
      </trkpt>
      <trkpt lat="42.33111" lon="3.18192">
        <ele>283.2</ele>
        <time>2022-05-21 11:04:12</time>
      </trkpt>
      <trkpt lat="42.33109" lon="3.1819">
        <ele>283.2</ele>
        <time>2022-05-21 11:04:13</time>
      </trkpt>
      <trkpt lat="42.33107" lon="3.18188">
        <ele>283.4</ele>
        <time>2022-05-21 11:04:14</time>
      </trkpt>
      <trkpt lat="42.33105" lon="3.18186">
        <ele>283.6</ele>
        <time>2022-05-21 11:04:15</time>
      </trkpt>
      <trkpt lat="42.33104" lon="3.18184">
        <ele>283.8</ele>
        <time>2022-05-21 11:04:16</time>
      </trkpt>
      <trkpt lat="42.33102" lon="3.18182">
        <ele>283.8</ele>
        <time>2022-05-21 11:04:17</time>
      </trkpt>
      <trkpt lat="42.33101" lon="3.18181">
        <ele>284</ele>
        <time>2022-05-21 11:04:18</time>
      </trkpt>
      <trkpt lat="42.33098" lon="3.18178">
        <ele>284.2</ele>
        <time>2022-05-21 11:04:19</time>
      </trkpt>
      <trkpt lat="42.33097" lon="3.18176">
        <ele>284.2</ele>
        <time>2022-05-21 11:04:20</time>
      </trkpt>
      <trkpt lat="42.33095" lon="3.18174">
        <ele>284.4</ele>
        <time>2022-05-21 11:04:21</time>
      </trkpt>
      <trkpt lat="42.33093" lon="3.18172">
        <ele>284.6</ele>
        <time>2022-05-21 11:04:22</time>
      </trkpt>
      <trkpt lat="42.33091" lon="3.1817">
        <ele>284.6</ele>
        <time>2022-05-21 11:04:23</time>
      </trkpt>
      <trkpt lat="42.33089" lon="3.18168">
        <ele>284.8</ele>
        <time>2022-05-21 11:04:24</time>
      </trkpt>
      <trkpt lat="42.33087" lon="3.18166">
        <ele>285</ele>
        <time>2022-05-21 11:04:25</time>
      </trkpt>
      <trkpt lat="42.33085" lon="3.18164">
        <ele>285</ele>
        <time>2022-05-21 11:04:26</time>
      </trkpt>
      <trkpt lat="42.33083" lon="3.18162">
        <ele>285.2</ele>
        <time>2022-05-21 11:04:27</time>
      </trkpt>
      <trkpt lat="42.33081" lon="3.1816">
        <ele>285.4</ele>
        <time>2022-05-21 11:04:28</time>
      </trkpt>
      <trkpt lat="42.33079" lon="3.18158">
        <ele>285.4</ele>
        <time>2022-05-21 11:04:29</time>
      </trkpt>
      <trkpt lat="42.33077" lon="3.18156">
        <ele>285.6</ele>
        <time>2022-05-21 11:04:30</time>
      </trkpt>
      <trkpt lat="42.33075" lon="3.18155">
        <ele>285.8</ele>
        <time>2022-05-21 11:04:31</time>
      </trkpt>
      <trkpt lat="42.33073" lon="3.18153">
        <ele>285.8</ele>
        <time>2022-05-21 11:04:32</time>
      </trkpt>
      <trkpt lat="42.33071" lon="3.18152">
        <ele>286</ele>
        <time>2022-05-21 11:04:33</time>
      </trkpt>
      <trkpt lat="42.33069" lon="3.1815">
        <ele>286</ele>
        <time>2022-05-21 11:04:34</time>
      </trkpt>
      <trkpt lat="42.33066" lon="3.18148">
        <ele>286.2</ele>
        <time>2022-05-21 11:04:35</time>
      </trkpt>
      <trkpt lat="42.33064" lon="3.18147">
        <ele>286.4</ele>
        <time>2022-05-21 11:04:36</time>
      </trkpt>
      <trkpt lat="42.33063" lon="3.18145">
        <ele>286.6</ele>
        <time>2022-05-21 11:04:37</time>
      </trkpt>
      <trkpt lat="42.33061" lon="3.18143">
        <ele>286.6</ele>
        <time>2022-05-21 11:04:38</time>
      </trkpt>
      <trkpt lat="42.33059" lon="3.18141">
        <ele>286.8</ele>
        <time>2022-05-21 11:04:39</time>
      </trkpt>
      <trkpt lat="42.33057" lon="3.18139">
        <ele>287</ele>
        <time>2022-05-21 11:04:40</time>
      </trkpt>
      <trkpt lat="42.33056" lon="3.18137">
        <ele>287.2</ele>
        <time>2022-05-21 11:04:41</time>
      </trkpt>
      <trkpt lat="42.33054" lon="3.18136">
        <ele>287.4</ele>
        <time>2022-05-21 11:04:42</time>
      </trkpt>
      <trkpt lat="42.33051" lon="3.18134">
        <ele>287.4</ele>
        <time>2022-05-21 11:04:43</time>
      </trkpt>
      <trkpt lat="42.33049" lon="3.18132">
        <ele>287.6</ele>
        <time>2022-05-21 11:04:44</time>
      </trkpt>
      <trkpt lat="42.33047" lon="3.18131">
        <ele>287.8</ele>
        <time>2022-05-21 11:04:45</time>
      </trkpt>
      <trkpt lat="42.33045" lon="3.1813">
        <ele>288</ele>
        <time>2022-05-21 11:04:46</time>
      </trkpt>
      <trkpt lat="42.33042" lon="3.18129">
        <ele>288.2</ele>
        <time>2022-05-21 11:04:47</time>
      </trkpt>
      <trkpt lat="42.3304" lon="3.18128">
        <ele>288.4</ele>
        <time>2022-05-21 11:04:48</time>
      </trkpt>
      <trkpt lat="42.33038" lon="3.18127">
        <ele>288.6</ele>
        <time>2022-05-21 11:04:49</time>
      </trkpt>
      <trkpt lat="42.33036" lon="3.18125">
        <ele>288.8</ele>
        <time>2022-05-21 11:04:50</time>
      </trkpt>
      <trkpt lat="42.33033" lon="3.18123">
        <ele>289</ele>
        <time>2022-05-21 11:04:51</time>
      </trkpt>
      <trkpt lat="42.33031" lon="3.18122">
        <ele>289.2</ele>
        <time>2022-05-21 11:04:52</time>
      </trkpt>
      <trkpt lat="42.33029" lon="3.18121">
        <ele>289.2</ele>
        <time>2022-05-21 11:04:53</time>
      </trkpt>
      <trkpt lat="42.33027" lon="3.18119">
        <ele>289.4</ele>
        <time>2022-05-21 11:04:54</time>
      </trkpt>
      <trkpt lat="42.33025" lon="3.18117">
        <ele>289.6</ele>
        <time>2022-05-21 11:04:55</time>
      </trkpt>
      <trkpt lat="42.33023" lon="3.18115">
        <ele>289.8</ele>
        <time>2022-05-21 11:04:56</time>
      </trkpt>
      <trkpt lat="42.33021" lon="3.18113">
        <ele>290</ele>
        <time>2022-05-21 11:04:57</time>
      </trkpt>
      <trkpt lat="42.3302" lon="3.18111">
        <ele>290.2</ele>
        <time>2022-05-21 11:04:58</time>
      </trkpt>
      <trkpt lat="42.33018" lon="3.18109">
        <ele>290.4</ele>
        <time>2022-05-21 11:04:59</time>
      </trkpt>
      <trkpt lat="42.33016" lon="3.18106">
        <ele>290.6</ele>
        <time>2022-05-21 11:05:00</time>
      </trkpt>
      <trkpt lat="42.33014" lon="3.18104">
        <ele>290.8</ele>
        <time>2022-05-21 11:05:01</time>
      </trkpt>
      <trkpt lat="42.33013" lon="3.18102">
        <ele>291</ele>
        <time>2022-05-21 11:05:02</time>
      </trkpt>
      <trkpt lat="42.33011" lon="3.181">
        <ele>291.2</ele>
        <time>2022-05-21 11:05:03</time>
      </trkpt>
      <trkpt lat="42.33009" lon="3.18098">
        <ele>291.2</ele>
        <time>2022-05-21 11:05:04</time>
      </trkpt>
      <trkpt lat="42.33007" lon="3.18097">
        <ele>291.4</ele>
        <time>2022-05-21 11:05:05</time>
      </trkpt>
      <trkpt lat="42.33005" lon="3.18095">
        <ele>291.6</ele>
        <time>2022-05-21 11:05:06</time>
      </trkpt>
      <trkpt lat="42.33002" lon="3.18093">
        <ele>291.8</ele>
        <time>2022-05-21 11:05:07</time>
      </trkpt>
      <trkpt lat="42.33" lon="3.18091">
        <ele>292</ele>
        <time>2022-05-21 11:05:08</time>
      </trkpt>
      <trkpt lat="42.32999" lon="3.1809">
        <ele>292.2</ele>
        <time>2022-05-21 11:05:09</time>
      </trkpt>
      <trkpt lat="42.32996" lon="3.18087">
        <ele>292.4</ele>
        <time>2022-05-21 11:05:10</time>
      </trkpt>
      <trkpt lat="42.32994" lon="3.18084">
        <ele>292.6</ele>
        <time>2022-05-21 11:05:11</time>
      </trkpt>
      <trkpt lat="42.32993" lon="3.18083">
        <ele>292.8</ele>
        <time>2022-05-21 11:05:12</time>
      </trkpt>
      <trkpt lat="42.32992" lon="3.18081">
        <ele>293</ele>
        <time>2022-05-21 11:05:13</time>
      </trkpt>
      <trkpt lat="42.32989" lon="3.18079">
        <ele>293.2</ele>
        <time>2022-05-21 11:05:14</time>
      </trkpt>
      <trkpt lat="42.32987" lon="3.18077">
        <ele>293.4</ele>
        <time>2022-05-21 11:05:15</time>
      </trkpt>
      <trkpt lat="42.32985" lon="3.18074">
        <ele>293.6</ele>
        <time>2022-05-21 11:05:16</time>
      </trkpt>
      <trkpt lat="42.32983" lon="3.18072">
        <ele>293.8</ele>
        <time>2022-05-21 11:05:17</time>
      </trkpt>
      <trkpt lat="42.32982" lon="3.1807">
        <ele>294</ele>
        <time>2022-05-21 11:05:18</time>
      </trkpt>
      <trkpt lat="42.32981" lon="3.18067">
        <ele>294.2</ele>
        <time>2022-05-21 11:05:19</time>
      </trkpt>
      <trkpt lat="42.3298" lon="3.18064">
        <ele>294.4</ele>
        <time>2022-05-21 11:05:20</time>
      </trkpt>
      <trkpt lat="42.32979" lon="3.18062">
        <ele>294.6</ele>
        <time>2022-05-21 11:05:21</time>
      </trkpt>
      <trkpt lat="42.32977" lon="3.18059">
        <ele>294.8</ele>
        <time>2022-05-21 11:05:22</time>
      </trkpt>
      <trkpt lat="42.32976" lon="3.18057">
        <ele>295</ele>
        <time>2022-05-21 11:05:23</time>
      </trkpt>
      <trkpt lat="42.32974" lon="3.18055">
        <ele>295.2</ele>
        <time>2022-05-21 11:05:24</time>
      </trkpt>
      <trkpt lat="42.32973" lon="3.18053">
        <ele>295.4</ele>
        <time>2022-05-21 11:05:25</time>
      </trkpt>
      <trkpt lat="42.32972" lon="3.1805">
        <ele>295.6</ele>
        <time>2022-05-21 11:05:26</time>
      </trkpt>
      <trkpt lat="42.3297" lon="3.18048">
        <ele>295.8</ele>
        <time>2022-05-21 11:05:27</time>
      </trkpt>
      <trkpt lat="42.32969" lon="3.18046">
        <ele>296</ele>
        <time>2022-05-21 11:05:28</time>
      </trkpt>
      <trkpt lat="42.32967" lon="3.18044">
        <ele>296.2</ele>
        <time>2022-05-21 11:05:29</time>
      </trkpt>
      <trkpt lat="42.32966" lon="3.18042">
        <ele>296.6</ele>
        <time>2022-05-21 11:05:30</time>
      </trkpt>
      <trkpt lat="42.32964" lon="3.1804">
        <ele>296.8</ele>
        <time>2022-05-21 11:05:31</time>
      </trkpt>
      <trkpt lat="42.32963" lon="3.18038">
        <ele>297</ele>
        <time>2022-05-21 11:05:32</time>
      </trkpt>
      <trkpt lat="42.32961" lon="3.18036">
        <ele>297.2</ele>
        <time>2022-05-21 11:05:33</time>
      </trkpt>
      <trkpt lat="42.3296" lon="3.18034">
        <ele>297.4</ele>
        <time>2022-05-21 11:05:34</time>
      </trkpt>
      <trkpt lat="42.32958" lon="3.18032">
        <ele>297.6</ele>
        <time>2022-05-21 11:05:35</time>
      </trkpt>
      <trkpt lat="42.32957" lon="3.18031">
        <ele>297.8</ele>
        <time>2022-05-21 11:05:36</time>
      </trkpt>
      <trkpt lat="42.32955" lon="3.18029">
        <ele>298</ele>
        <time>2022-05-21 11:05:37</time>
      </trkpt>
      <trkpt lat="42.32954" lon="3.18027">
        <ele>298.2</ele>
        <time>2022-05-21 11:05:38</time>
      </trkpt>
      <trkpt lat="42.32952" lon="3.18026">
        <ele>298.4</ele>
        <time>2022-05-21 11:05:39</time>
      </trkpt>
      <trkpt lat="42.32951" lon="3.18024">
        <ele>298.6</ele>
        <time>2022-05-21 11:05:40</time>
      </trkpt>
      <trkpt lat="42.32949" lon="3.18022">
        <ele>298.8</ele>
        <time>2022-05-21 11:05:41</time>
      </trkpt>
      <trkpt lat="42.32947" lon="3.1802">
        <ele>299</ele>
        <time>2022-05-21 11:05:42</time>
      </trkpt>
      <trkpt lat="42.32946" lon="3.18018">
        <ele>299</ele>
        <time>2022-05-21 11:05:43</time>
      </trkpt>
      <trkpt lat="42.32945" lon="3.18016">
        <ele>299.2</ele>
        <time>2022-05-21 11:05:44</time>
      </trkpt>
      <trkpt lat="42.32943" lon="3.18014">
        <ele>299.4</ele>
        <time>2022-05-21 11:05:45</time>
      </trkpt>
      <trkpt lat="42.32942" lon="3.18012">
        <ele>299.6</ele>
        <time>2022-05-21 11:05:46</time>
      </trkpt>
      <trkpt lat="42.3294" lon="3.18011">
        <ele>299.8</ele>
        <time>2022-05-21 11:05:47</time>
      </trkpt>
      <trkpt lat="42.32938" lon="3.18009">
        <ele>300</ele>
        <time>2022-05-21 11:05:48</time>
      </trkpt>
      <trkpt lat="42.32936" lon="3.18007">
        <ele>300.2</ele>
        <time>2022-05-21 11:05:49</time>
      </trkpt>
      <trkpt lat="42.32934" lon="3.18006">
        <ele>300.4</ele>
        <time>2022-05-21 11:05:50</time>
      </trkpt>
      <trkpt lat="42.32932" lon="3.18004">
        <ele>300.6</ele>
        <time>2022-05-21 11:05:51</time>
      </trkpt>
      <trkpt lat="42.3293" lon="3.18002">
        <ele>300.8</ele>
        <time>2022-05-21 11:05:52</time>
      </trkpt>
      <trkpt lat="42.32928" lon="3.18">
        <ele>300.8</ele>
        <time>2022-05-21 11:05:53</time>
      </trkpt>
      <trkpt lat="42.32926" lon="3.17998">
        <ele>301</ele>
        <time>2022-05-21 11:05:54</time>
      </trkpt>
      <trkpt lat="42.32925" lon="3.17997">
        <ele>301.2</ele>
        <time>2022-05-21 11:05:55</time>
      </trkpt>
      <trkpt lat="42.32923" lon="3.17995">
        <ele>301.4</ele>
        <time>2022-05-21 11:05:56</time>
      </trkpt>
      <trkpt lat="42.32921" lon="3.17993">
        <ele>301.6</ele>
        <time>2022-05-21 11:05:57</time>
      </trkpt>
      <trkpt lat="42.32919" lon="3.17992">
        <ele>301.8</ele>
        <time>2022-05-21 11:05:58</time>
      </trkpt>
      <trkpt lat="42.32917" lon="3.1799">
        <ele>301.8</ele>
        <time>2022-05-21 11:05:59</time>
      </trkpt>
      <trkpt lat="42.32916" lon="3.17988">
        <ele>302</ele>
        <time>2022-05-21 11:06:00</time>
      </trkpt>
      <trkpt lat="42.32914" lon="3.17986">
        <ele>302.2</ele>
        <time>2022-05-21 11:06:01</time>
      </trkpt>
      <trkpt lat="42.32913" lon="3.17984">
        <ele>302.4</ele>
        <time>2022-05-21 11:06:02</time>
      </trkpt>
      <trkpt lat="42.32911" lon="3.17982">
        <ele>302.4</ele>
        <time>2022-05-21 11:06:03</time>
      </trkpt>
      <trkpt lat="42.32909" lon="3.1798">
        <ele>302.6</ele>
        <time>2022-05-21 11:06:04</time>
      </trkpt>
      <trkpt lat="42.32907" lon="3.17979">
        <ele>302.8</ele>
        <time>2022-05-21 11:06:05</time>
      </trkpt>
      <trkpt lat="42.32905" lon="3.17977">
        <ele>303</ele>
        <time>2022-05-21 11:06:06</time>
      </trkpt>
      <trkpt lat="42.32903" lon="3.17975">
        <ele>303.2</ele>
        <time>2022-05-21 11:06:07</time>
      </trkpt>
      <trkpt lat="42.32901" lon="3.17973">
        <ele>303.2</ele>
        <time>2022-05-21 11:06:08</time>
      </trkpt>
      <trkpt lat="42.32899" lon="3.17972">
        <ele>303.4</ele>
        <time>2022-05-21 11:06:09</time>
      </trkpt>
      <trkpt lat="42.32897" lon="3.1797">
        <ele>303.6</ele>
        <time>2022-05-21 11:06:10</time>
      </trkpt>
      <trkpt lat="42.32896" lon="3.17968">
        <ele>303.6</ele>
        <time>2022-05-21 11:06:11</time>
      </trkpt>
      <trkpt lat="42.32894" lon="3.17967">
        <ele>303.8</ele>
        <time>2022-05-21 11:06:12</time>
      </trkpt>
      <trkpt lat="42.32892" lon="3.17965">
        <ele>304</ele>
        <time>2022-05-21 11:06:13</time>
      </trkpt>
      <trkpt lat="42.3289" lon="3.17964">
        <ele>304.2</ele>
        <time>2022-05-21 11:06:14</time>
      </trkpt>
      <trkpt lat="42.32888" lon="3.17962">
        <ele>304.2</ele>
        <time>2022-05-21 11:06:15</time>
      </trkpt>
      <trkpt lat="42.32886" lon="3.1796">
        <ele>304.4</ele>
        <time>2022-05-21 11:06:16</time>
      </trkpt>
      <trkpt lat="42.32884" lon="3.17958">
        <ele>304.6</ele>
        <time>2022-05-21 11:06:17</time>
      </trkpt>
      <trkpt lat="42.32883" lon="3.17956">
        <ele>304.6</ele>
        <time>2022-05-21 11:06:18</time>
      </trkpt>
      <trkpt lat="42.32881" lon="3.17954">
        <ele>304.8</ele>
        <time>2022-05-21 11:06:19</time>
      </trkpt>
      <trkpt lat="42.3288" lon="3.17951">
        <ele>305</ele>
        <time>2022-05-21 11:06:20</time>
      </trkpt>
      <trkpt lat="42.32878" lon="3.17949">
        <ele>305.2</ele>
        <time>2022-05-21 11:06:21</time>
      </trkpt>
      <trkpt lat="42.32877" lon="3.17946">
        <ele>305.4</ele>
        <time>2022-05-21 11:06:22</time>
      </trkpt>
      <trkpt lat="42.32876" lon="3.17944">
        <ele>305.4</ele>
        <time>2022-05-21 11:06:23</time>
      </trkpt>
      <trkpt lat="42.32875" lon="3.17941">
        <ele>305.6</ele>
        <time>2022-05-21 11:06:24</time>
      </trkpt>
      <trkpt lat="42.32874" lon="3.17939">
        <ele>305.8</ele>
        <time>2022-05-21 11:06:25</time>
      </trkpt>
      <trkpt lat="42.32873" lon="3.17936">
        <ele>305.8</ele>
        <time>2022-05-21 11:06:26</time>
      </trkpt>
      <trkpt lat="42.32872" lon="3.17933">
        <ele>306</ele>
        <time>2022-05-21 11:06:27</time>
      </trkpt>
      <trkpt lat="42.32871" lon="3.1793">
        <ele>306.2</ele>
        <time>2022-05-21 11:06:28</time>
      </trkpt>
      <trkpt lat="42.32871" lon="3.17927">
        <ele>306.2</ele>
        <time>2022-05-21 11:06:29</time>
      </trkpt>
      <trkpt lat="42.3287" lon="3.17924">
        <ele>306.4</ele>
        <time>2022-05-21 11:06:30</time>
      </trkpt>
      <trkpt lat="42.32869" lon="3.17921">
        <ele>306.6</ele>
        <time>2022-05-21 11:06:31</time>
      </trkpt>
      <trkpt lat="42.32868" lon="3.17918">
        <ele>306.6</ele>
        <time>2022-05-21 11:06:32</time>
      </trkpt>
      <trkpt lat="42.32866" lon="3.17916">
        <ele>306.8</ele>
        <time>2022-05-21 11:06:33</time>
      </trkpt>
      <trkpt lat="42.32865" lon="3.17913">
        <ele>307</ele>
        <time>2022-05-21 11:06:34</time>
      </trkpt>
      <trkpt lat="42.32864" lon="3.17911">
        <ele>307.2</ele>
        <time>2022-05-21 11:06:35</time>
      </trkpt>
      <trkpt lat="42.32863" lon="3.17909">
        <ele>307.4</ele>
        <time>2022-05-21 11:06:36</time>
      </trkpt>
      <trkpt lat="42.32862" lon="3.17906">
        <ele>307.6</ele>
        <time>2022-05-21 11:06:37</time>
      </trkpt>
      <trkpt lat="42.32861" lon="3.17904">
        <ele>307.6</ele>
        <time>2022-05-21 11:06:38</time>
      </trkpt>
      <trkpt lat="42.3286" lon="3.17901">
        <ele>307.8</ele>
        <time>2022-05-21 11:06:39</time>
      </trkpt>
      <trkpt lat="42.32859" lon="3.17898">
        <ele>308</ele>
        <time>2022-05-21 11:06:40</time>
      </trkpt>
      <trkpt lat="42.32858" lon="3.17896">
        <ele>308.2</ele>
        <time>2022-05-21 11:06:41</time>
      </trkpt>
      <trkpt lat="42.32857" lon="3.17893">
        <ele>308.2</ele>
        <time>2022-05-21 11:06:42</time>
      </trkpt>
      <trkpt lat="42.32856" lon="3.17891">
        <ele>308.6</ele>
        <time>2022-05-21 11:06:43</time>
      </trkpt>
      <trkpt lat="42.32856" lon="3.17888">
        <ele>308.8</ele>
        <time>2022-05-21 11:06:44</time>
      </trkpt>
      <trkpt lat="42.32855" lon="3.17886">
        <ele>309</ele>
        <time>2022-05-21 11:06:45</time>
      </trkpt>
      <trkpt lat="42.32854" lon="3.17883">
        <ele>309.2</ele>
        <time>2022-05-21 11:06:46</time>
      </trkpt>
      <trkpt lat="42.32853" lon="3.17881">
        <ele>309.2</ele>
        <time>2022-05-21 11:06:47</time>
      </trkpt>
      <trkpt lat="42.32852" lon="3.17878">
        <ele>309.4</ele>
        <time>2022-05-21 11:06:48</time>
      </trkpt>
      <trkpt lat="42.3285" lon="3.17876">
        <ele>309.6</ele>
        <time>2022-05-21 11:06:49</time>
      </trkpt>
      <trkpt lat="42.32849" lon="3.17874">
        <ele>309.8</ele>
        <time>2022-05-21 11:06:50</time>
      </trkpt>
      <trkpt lat="42.32848" lon="3.17872">
        <ele>310</ele>
        <time>2022-05-21 11:06:51</time>
      </trkpt>
      <trkpt lat="42.32847" lon="3.17869">
        <ele>310.2</ele>
        <time>2022-05-21 11:06:52</time>
      </trkpt>
      <trkpt lat="42.32846" lon="3.17867">
        <ele>310.4</ele>
        <time>2022-05-21 11:06:53</time>
      </trkpt>
      <trkpt lat="42.32845" lon="3.17865">
        <ele>310.6</ele>
        <time>2022-05-21 11:06:54</time>
      </trkpt>
      <trkpt lat="42.32844" lon="3.17862">
        <ele>310.8</ele>
        <time>2022-05-21 11:06:55</time>
      </trkpt>
      <trkpt lat="42.32843" lon="3.1786">
        <ele>311</ele>
        <time>2022-05-21 11:06:56</time>
      </trkpt>
      <trkpt lat="42.32842" lon="3.17857">
        <ele>311.2</ele>
        <time>2022-05-21 11:06:57</time>
      </trkpt>
      <trkpt lat="42.32842" lon="3.17855">
        <ele>311.4</ele>
        <time>2022-05-21 11:06:58</time>
      </trkpt>
      <trkpt lat="42.32841" lon="3.17852">
        <ele>311.6</ele>
        <time>2022-05-21 11:06:59</time>
      </trkpt>
      <trkpt lat="42.32841" lon="3.1785">
        <ele>311.6</ele>
        <time>2022-05-21 11:07:00</time>
      </trkpt>
      <trkpt lat="42.3284" lon="3.17847">
        <ele>311.8</ele>
        <time>2022-05-21 11:07:01</time>
      </trkpt>
      <trkpt lat="42.32839" lon="3.17845">
        <ele>312</ele>
        <time>2022-05-21 11:07:02</time>
      </trkpt>
      <trkpt lat="42.32839" lon="3.17843">
        <ele>312.2</ele>
        <time>2022-05-21 11:07:03</time>
      </trkpt>
      <trkpt lat="42.32838" lon="3.17841">
        <ele>312.4</ele>
        <time>2022-05-21 11:07:04</time>
      </trkpt>
      <trkpt lat="42.32838" lon="3.17838">
        <ele>312.8</ele>
        <time>2022-05-21 11:07:05</time>
      </trkpt>
      <trkpt lat="42.32837" lon="3.17836">
        <ele>313</ele>
        <time>2022-05-21 11:07:06</time>
      </trkpt>
      <trkpt lat="42.32836" lon="3.17834">
        <ele>313.2</ele>
        <time>2022-05-21 11:07:07</time>
      </trkpt>
      <trkpt lat="42.32836" lon="3.17832">
        <ele>313.4</ele>
        <time>2022-05-21 11:07:08</time>
      </trkpt>
      <trkpt lat="42.32835" lon="3.1783">
        <ele>313.6</ele>
        <time>2022-05-21 11:07:09</time>
      </trkpt>
      <trkpt lat="42.32835" lon="3.17828">
        <ele>313.8</ele>
        <time>2022-05-21 11:07:10</time>
      </trkpt>
      <trkpt lat="42.32834" lon="3.17826">
        <ele>314</ele>
        <time>2022-05-21 11:07:11</time>
      </trkpt>
      <trkpt lat="42.32834" lon="3.17823">
        <ele>314.2</ele>
        <time>2022-05-21 11:07:12</time>
      </trkpt>
      <trkpt lat="42.32834" lon="3.17821">
        <ele>314.4</ele>
        <time>2022-05-21 11:07:13</time>
      </trkpt>
      <trkpt lat="42.32833" lon="3.17819">
        <ele>314.8</ele>
        <time>2022-05-21 11:07:14</time>
      </trkpt>
      <trkpt lat="42.32833" lon="3.17817">
        <ele>315</ele>
        <time>2022-05-21 11:07:15</time>
      </trkpt>
      <trkpt lat="42.32833" lon="3.17815">
        <ele>315.2</ele>
        <time>2022-05-21 11:07:16</time>
      </trkpt>
      <trkpt lat="42.32832" lon="3.17813">
        <ele>315.4</ele>
        <time>2022-05-21 11:07:17</time>
      </trkpt>
      <trkpt lat="42.32832" lon="3.1781">
        <ele>315.6</ele>
        <time>2022-05-21 11:07:18</time>
      </trkpt>
      <trkpt lat="42.32832" lon="3.17808">
        <ele>315.8</ele>
        <time>2022-05-21 11:07:19</time>
      </trkpt>
      <trkpt lat="42.32831" lon="3.17806">
        <ele>316</ele>
        <time>2022-05-21 11:07:20</time>
      </trkpt>
      <trkpt lat="42.32831" lon="3.17804">
        <ele>316.2</ele>
        <time>2022-05-21 11:07:21</time>
      </trkpt>
      <trkpt lat="42.32831" lon="3.17801">
        <ele>316.4</ele>
        <time>2022-05-21 11:07:22</time>
      </trkpt>
      <trkpt lat="42.32831" lon="3.17799">
        <ele>316.8</ele>
        <time>2022-05-21 11:07:23</time>
      </trkpt>
      <trkpt lat="42.3283" lon="3.17797">
        <ele>317</ele>
        <time>2022-05-21 11:07:24</time>
      </trkpt>
      <trkpt lat="42.3283" lon="3.17794">
        <ele>317.2</ele>
        <time>2022-05-21 11:07:25</time>
      </trkpt>
      <trkpt lat="42.3283" lon="3.17792">
        <ele>317.6</ele>
        <time>2022-05-21 11:07:26</time>
      </trkpt>
      <trkpt lat="42.3283" lon="3.1779">
        <ele>317.8</ele>
        <time>2022-05-21 11:07:27</time>
      </trkpt>
      <trkpt lat="42.32829" lon="3.17788">
        <ele>318</ele>
        <time>2022-05-21 11:07:28</time>
      </trkpt>
      <trkpt lat="42.32829" lon="3.17786">
        <ele>318.2</ele>
        <time>2022-05-21 11:07:29</time>
      </trkpt>
      <trkpt lat="42.32829" lon="3.17783">
        <ele>318.4</ele>
        <time>2022-05-21 11:07:30</time>
      </trkpt>
      <trkpt lat="42.32829" lon="3.17781">
        <ele>318.8</ele>
        <time>2022-05-21 11:07:31</time>
      </trkpt>
      <trkpt lat="42.32828" lon="3.17779">
        <ele>319</ele>
        <time>2022-05-21 11:07:32</time>
      </trkpt>
      <trkpt lat="42.32828" lon="3.17776">
        <ele>319.2</ele>
        <time>2022-05-21 11:07:33</time>
      </trkpt>
      <trkpt lat="42.32828" lon="3.17774">
        <ele>319.4</ele>
        <time>2022-05-21 11:07:34</time>
      </trkpt>
      <trkpt lat="42.32828" lon="3.17772">
        <ele>319.6</ele>
        <time>2022-05-21 11:07:35</time>
      </trkpt>
      <trkpt lat="42.32828" lon="3.17769">
        <ele>320</ele>
        <time>2022-05-21 11:07:36</time>
      </trkpt>
      <trkpt lat="42.32828" lon="3.17767">
        <ele>320.2</ele>
        <time>2022-05-21 11:07:37</time>
      </trkpt>
      <trkpt lat="42.32828" lon="3.17764">
        <ele>320.4</ele>
        <time>2022-05-21 11:07:38</time>
      </trkpt>
      <trkpt lat="42.32828" lon="3.17762">
        <ele>320.6</ele>
        <time>2022-05-21 11:07:39</time>
      </trkpt>
      <trkpt lat="42.32828" lon="3.17759">
        <ele>320.6</ele>
        <time>2022-05-21 11:07:40</time>
      </trkpt>
      <trkpt lat="42.32829" lon="3.17757">
        <ele>320.8</ele>
        <time>2022-05-21 11:07:41</time>
      </trkpt>
      <trkpt lat="42.32829" lon="3.17754">
        <ele>321</ele>
        <time>2022-05-21 11:07:42</time>
      </trkpt>
      <trkpt lat="42.32829" lon="3.17752">
        <ele>321.2</ele>
        <time>2022-05-21 11:07:43</time>
      </trkpt>
      <trkpt lat="42.32829" lon="3.17749">
        <ele>321.2</ele>
        <time>2022-05-21 11:07:44</time>
      </trkpt>
      <trkpt lat="42.3283" lon="3.17747">
        <ele>321.4</ele>
        <time>2022-05-21 11:07:45</time>
      </trkpt>
      <trkpt lat="42.3283" lon="3.17744">
        <ele>321.6</ele>
        <time>2022-05-21 11:07:46</time>
      </trkpt>
      <trkpt lat="42.3283" lon="3.17741">
        <ele>321.6</ele>
        <time>2022-05-21 11:07:47</time>
      </trkpt>
      <trkpt lat="42.3283" lon="3.17739">
        <ele>321.8</ele>
        <time>2022-05-21 11:07:48</time>
      </trkpt>
      <trkpt lat="42.32831" lon="3.17736">
        <ele>322</ele>
        <time>2022-05-21 11:07:49</time>
      </trkpt>
      <trkpt lat="42.32831" lon="3.17733">
        <ele>322</ele>
        <time>2022-05-21 11:07:50</time>
      </trkpt>
      <trkpt lat="42.32832" lon="3.1773">
        <ele>322.2</ele>
        <time>2022-05-21 11:07:51</time>
      </trkpt>
      <trkpt lat="42.32832" lon="3.17727">
        <ele>322.2</ele>
        <time>2022-05-21 11:07:52</time>
      </trkpt>
      <trkpt lat="42.32832" lon="3.17724">
        <ele>322.4</ele>
        <time>2022-05-21 11:07:53</time>
      </trkpt>
      <trkpt lat="42.32833" lon="3.1772">
        <ele>322.4</ele>
        <time>2022-05-21 11:07:54</time>
      </trkpt>
      <trkpt lat="42.32833" lon="3.17717">
        <ele>322.6</ele>
        <time>2022-05-21 11:07:55</time>
      </trkpt>
      <trkpt lat="42.32833" lon="3.17714">
        <ele>322.6</ele>
        <time>2022-05-21 11:07:56</time>
      </trkpt>
      <trkpt lat="42.32833" lon="3.1771">
        <ele>322.8</ele>
        <time>2022-05-21 11:07:57</time>
      </trkpt>
      <trkpt lat="42.32833" lon="3.17707">
        <ele>322.8</ele>
        <time>2022-05-21 11:07:58</time>
      </trkpt>
      <trkpt lat="42.32833" lon="3.17703">
        <ele>323</ele>
        <time>2022-05-21 11:07:59</time>
      </trkpt>
      <trkpt lat="42.32832" lon="3.17699">
        <ele>323</ele>
        <time>2022-05-21 11:08:00</time>
      </trkpt>
      <trkpt lat="42.32832" lon="3.17695">
        <ele>323.2</ele>
        <time>2022-05-21 11:08:01</time>
      </trkpt>
      <trkpt lat="42.32831" lon="3.17692">
        <ele>323.2</ele>
        <time>2022-05-21 11:08:02</time>
      </trkpt>
      <trkpt lat="42.3283" lon="3.17688">
        <ele>323.2</ele>
        <time>2022-05-21 11:08:03</time>
      </trkpt>
      <trkpt lat="42.32829" lon="3.17684">
        <ele>323.4</ele>
        <time>2022-05-21 11:08:04</time>
      </trkpt>
      <trkpt lat="42.32827" lon="3.1768">
        <ele>323.4</ele>
        <time>2022-05-21 11:08:05</time>
      </trkpt>
      <trkpt lat="42.32826" lon="3.17677">
        <ele>323.6</ele>
        <time>2022-05-21 11:08:06</time>
      </trkpt>
      <trkpt lat="42.32824" lon="3.17674">
        <ele>323.6</ele>
        <time>2022-05-21 11:08:07</time>
      </trkpt>
      <trkpt lat="42.32822" lon="3.17671">
        <ele>323.8</ele>
        <time>2022-05-21 11:08:08</time>
      </trkpt>
      <trkpt lat="42.32819" lon="3.17668">
        <ele>323.8</ele>
        <time>2022-05-21 11:08:09</time>
      </trkpt>
      <trkpt lat="42.32817" lon="3.17665">
        <ele>324</ele>
        <time>2022-05-21 11:08:10</time>
      </trkpt>
      <trkpt lat="42.32814" lon="3.17663">
        <ele>324.2</ele>
        <time>2022-05-21 11:08:11</time>
      </trkpt>
      <trkpt lat="42.32812" lon="3.17661">
        <ele>324.2</ele>
        <time>2022-05-21 11:08:12</time>
      </trkpt>
      <trkpt lat="42.32809" lon="3.17659">
        <ele>324.4</ele>
        <time>2022-05-21 11:08:13</time>
      </trkpt>
      <trkpt lat="42.32806" lon="3.17657">
        <ele>324.4</ele>
        <time>2022-05-21 11:08:14</time>
      </trkpt>
      <trkpt lat="42.32803" lon="3.17656">
        <ele>324.6</ele>
        <time>2022-05-21 11:08:15</time>
      </trkpt>
      <trkpt lat="42.328" lon="3.17654">
        <ele>324.8</ele>
        <time>2022-05-21 11:08:16</time>
      </trkpt>
      <trkpt lat="42.32798" lon="3.17653">
        <ele>324.8</ele>
        <time>2022-05-21 11:08:17</time>
      </trkpt>
      <trkpt lat="42.32795" lon="3.17651">
        <ele>325</ele>
        <time>2022-05-21 11:08:18</time>
      </trkpt>
      <trkpt lat="42.32792" lon="3.17648">
        <ele>325.2</ele>
        <time>2022-05-21 11:08:19</time>
      </trkpt>
      <trkpt lat="42.3279" lon="3.17646">
        <ele>325.2</ele>
        <time>2022-05-21 11:08:20</time>
      </trkpt>
      <trkpt lat="42.32788" lon="3.17644">
        <ele>325.4</ele>
        <time>2022-05-21 11:08:21</time>
      </trkpt>
      <trkpt lat="42.32786" lon="3.17641">
        <ele>325.6</ele>
        <time>2022-05-21 11:08:22</time>
      </trkpt>
      <trkpt lat="42.32784" lon="3.17639">
        <ele>325.8</ele>
        <time>2022-05-21 11:08:23</time>
      </trkpt>
      <trkpt lat="42.32783" lon="3.17636">
        <ele>325.8</ele>
        <time>2022-05-21 11:08:24</time>
      </trkpt>
      <trkpt lat="42.32781" lon="3.17633">
        <ele>326</ele>
        <time>2022-05-21 11:08:25</time>
      </trkpt>
      <trkpt lat="42.3278" lon="3.1763">
        <ele>326.2</ele>
        <time>2022-05-21 11:08:26</time>
      </trkpt>
      <trkpt lat="42.32778" lon="3.17627">
        <ele>326.4</ele>
        <time>2022-05-21 11:08:27</time>
      </trkpt>
      <trkpt lat="42.32777" lon="3.17624">
        <ele>326.6</ele>
        <time>2022-05-21 11:08:28</time>
      </trkpt>
      <trkpt lat="42.32775" lon="3.17621">
        <ele>326.8</ele>
        <time>2022-05-21 11:08:29</time>
      </trkpt>
      <trkpt lat="42.32774" lon="3.17618">
        <ele>327</ele>
        <time>2022-05-21 11:08:30</time>
      </trkpt>
      <trkpt lat="42.32773" lon="3.17615">
        <ele>327.2</ele>
        <time>2022-05-21 11:08:31</time>
      </trkpt>
      <trkpt lat="42.32772" lon="3.17612">
        <ele>327.4</ele>
        <time>2022-05-21 11:08:32</time>
      </trkpt>
      <trkpt lat="42.32771" lon="3.17608">
        <ele>327.6</ele>
        <time>2022-05-21 11:08:33</time>
      </trkpt>
      <trkpt lat="42.32769" lon="3.17605">
        <ele>327.8</ele>
        <time>2022-05-21 11:08:34</time>
      </trkpt>
      <trkpt lat="42.32768" lon="3.17602">
        <ele>328</ele>
        <time>2022-05-21 11:08:35</time>
      </trkpt>
      <trkpt lat="42.32767" lon="3.17599">
        <ele>328.2</ele>
        <time>2022-05-21 11:08:36</time>
      </trkpt>
      <trkpt lat="42.32765" lon="3.17596">
        <ele>328.4</ele>
        <time>2022-05-21 11:08:37</time>
      </trkpt>
      <trkpt lat="42.32764" lon="3.17593">
        <ele>328.6</ele>
        <time>2022-05-21 11:08:38</time>
      </trkpt>
      <trkpt lat="42.32763" lon="3.1759">
        <ele>328.8</ele>
        <time>2022-05-21 11:08:39</time>
      </trkpt>
      <trkpt lat="42.32762" lon="3.17587">
        <ele>329.2</ele>
        <time>2022-05-21 11:08:40</time>
      </trkpt>
      <trkpt lat="42.32762" lon="3.17584">
        <ele>329.4</ele>
        <time>2022-05-21 11:08:41</time>
      </trkpt>
      <trkpt lat="42.32762" lon="3.17581">
        <ele>329.6</ele>
        <time>2022-05-21 11:08:42</time>
      </trkpt>
      <trkpt lat="42.32762" lon="3.17579">
        <ele>329.8</ele>
        <time>2022-05-21 11:08:43</time>
      </trkpt>
      <trkpt lat="42.32763" lon="3.17576">
        <ele>330</ele>
        <time>2022-05-21 11:08:44</time>
      </trkpt>
      <trkpt lat="42.32763" lon="3.17574">
        <ele>330.2</ele>
        <time>2022-05-21 11:08:45</time>
      </trkpt>
      <trkpt lat="42.32764" lon="3.17571">
        <ele>330.4</ele>
        <time>2022-05-21 11:08:46</time>
      </trkpt>
      <trkpt lat="42.32764" lon="3.17569">
        <ele>330.6</ele>
        <time>2022-05-21 11:08:47</time>
      </trkpt>
      <trkpt lat="42.32765" lon="3.17566">
        <ele>330.8</ele>
        <time>2022-05-21 11:08:48</time>
      </trkpt>
      <trkpt lat="42.32766" lon="3.17564">
        <ele>331</ele>
        <time>2022-05-21 11:08:49</time>
      </trkpt>
      <trkpt lat="42.32767" lon="3.17562">
        <ele>331.2</ele>
        <time>2022-05-21 11:08:50</time>
      </trkpt>
      <trkpt lat="42.32767" lon="3.1756">
        <ele>331.4</ele>
        <time>2022-05-21 11:08:51</time>
      </trkpt>
      <trkpt lat="42.32768" lon="3.17558">
        <ele>331.6</ele>
        <time>2022-05-21 11:08:52</time>
      </trkpt>
      <trkpt lat="42.32769" lon="3.17555">
        <ele>331.8</ele>
        <time>2022-05-21 11:08:53</time>
      </trkpt>
      <trkpt lat="42.3277" lon="3.17553">
        <ele>332</ele>
        <time>2022-05-21 11:08:54</time>
      </trkpt>
      <trkpt lat="42.32771" lon="3.17551">
        <ele>332.2</ele>
        <time>2022-05-21 11:08:55</time>
      </trkpt>
      <trkpt lat="42.32772" lon="3.17549">
        <ele>332.4</ele>
        <time>2022-05-21 11:08:56</time>
      </trkpt>
      <trkpt lat="42.32773" lon="3.17547">
        <ele>332.6</ele>
        <time>2022-05-21 11:08:57</time>
      </trkpt>
      <trkpt lat="42.32774" lon="3.17545">
        <ele>332.8</ele>
        <time>2022-05-21 11:08:58</time>
      </trkpt>
      <trkpt lat="42.32775" lon="3.17543">
        <ele>333</ele>
        <time>2022-05-21 11:08:59</time>
      </trkpt>
      <trkpt lat="42.32776" lon="3.17541">
        <ele>333.2</ele>
        <time>2022-05-21 11:09:00</time>
      </trkpt>
      <trkpt lat="42.32778" lon="3.17539">
        <ele>333.4</ele>
        <time>2022-05-21 11:09:01</time>
      </trkpt>
      <trkpt lat="42.32779" lon="3.17537">
        <ele>333.6</ele>
        <time>2022-05-21 11:09:02</time>
      </trkpt>
      <trkpt lat="42.3278" lon="3.17535">
        <ele>333.8</ele>
        <time>2022-05-21 11:09:03</time>
      </trkpt>
      <trkpt lat="42.32781" lon="3.17533">
        <ele>334</ele>
        <time>2022-05-21 11:09:04</time>
      </trkpt>
      <trkpt lat="42.32782" lon="3.17531">
        <ele>334.2</ele>
        <time>2022-05-21 11:09:05</time>
      </trkpt>
      <trkpt lat="42.32783" lon="3.17529">
        <ele>334.4</ele>
        <time>2022-05-21 11:09:06</time>
      </trkpt>
      <trkpt lat="42.32784" lon="3.17527">
        <ele>334.6</ele>
        <time>2022-05-21 11:09:07</time>
      </trkpt>
      <trkpt lat="42.32786" lon="3.17525">
        <ele>334.8</ele>
        <time>2022-05-21 11:09:08</time>
      </trkpt>
      <trkpt lat="42.32787" lon="3.17523">
        <ele>335</ele>
        <time>2022-05-21 11:09:09</time>
      </trkpt>
      <trkpt lat="42.32788" lon="3.1752">
        <ele>335</ele>
        <time>2022-05-21 11:09:10</time>
      </trkpt>
      <trkpt lat="42.32789" lon="3.17518">
        <ele>335.2</ele>
        <time>2022-05-21 11:09:11</time>
      </trkpt>
      <trkpt lat="42.3279" lon="3.17516">
        <ele>335.4</ele>
        <time>2022-05-21 11:09:12</time>
      </trkpt>
      <trkpt lat="42.3279" lon="3.17513">
        <ele>335.6</ele>
        <time>2022-05-21 11:09:13</time>
      </trkpt>
      <trkpt lat="42.32791" lon="3.17511">
        <ele>335.8</ele>
        <time>2022-05-21 11:09:14</time>
      </trkpt>
      <trkpt lat="42.32791" lon="3.17508">
        <ele>336</ele>
        <time>2022-05-21 11:09:15</time>
      </trkpt>
      <trkpt lat="42.32792" lon="3.17506">
        <ele>336</ele>
        <time>2022-05-21 11:09:16</time>
      </trkpt>
      <trkpt lat="42.32792" lon="3.17503">
        <ele>336.2</ele>
        <time>2022-05-21 11:09:17</time>
      </trkpt>
      <trkpt lat="42.32792" lon="3.175">
        <ele>336.4</ele>
        <time>2022-05-21 11:09:18</time>
      </trkpt>
      <trkpt lat="42.32791" lon="3.17497">
        <ele>336.6</ele>
        <time>2022-05-21 11:09:19</time>
      </trkpt>
      <trkpt lat="42.3279" lon="3.17495">
        <ele>336.8</ele>
        <time>2022-05-21 11:09:20</time>
      </trkpt>
      <trkpt lat="42.32789" lon="3.17492">
        <ele>336.8</ele>
        <time>2022-05-21 11:09:21</time>
      </trkpt>
      <trkpt lat="42.32787" lon="3.1749">
        <ele>337</ele>
        <time>2022-05-21 11:09:22</time>
      </trkpt>
      <trkpt lat="42.32786" lon="3.17488">
        <ele>337.2</ele>
        <time>2022-05-21 11:09:23</time>
      </trkpt>
      <trkpt lat="42.32784" lon="3.17487">
        <ele>337.4</ele>
        <time>2022-05-21 11:09:24</time>
      </trkpt>
      <trkpt lat="42.32782" lon="3.17487">
        <ele>337.4</ele>
        <time>2022-05-21 11:09:25</time>
      </trkpt>
      <trkpt lat="42.3278" lon="3.17486">
        <ele>337.6</ele>
        <time>2022-05-21 11:09:26</time>
      </trkpt>
      <trkpt lat="42.32778" lon="3.17486">
        <ele>337.8</ele>
        <time>2022-05-21 11:09:27</time>
      </trkpt>
      <trkpt lat="42.32776" lon="3.17487">
        <ele>338</ele>
        <time>2022-05-21 11:09:28</time>
      </trkpt>
      <trkpt lat="42.32774" lon="3.17488">
        <ele>338.2</ele>
        <time>2022-05-21 11:09:29</time>
      </trkpt>
      <trkpt lat="42.32772" lon="3.1749">
        <ele>338.4</ele>
        <time>2022-05-21 11:09:30</time>
      </trkpt>
      <trkpt lat="42.3277" lon="3.17491">
        <ele>338.6</ele>
        <time>2022-05-21 11:09:31</time>
      </trkpt>
      <trkpt lat="42.32768" lon="3.17493">
        <ele>338.8</ele>
        <time>2022-05-21 11:09:32</time>
      </trkpt>
      <trkpt lat="42.32767" lon="3.17495">
        <ele>339</ele>
        <time>2022-05-21 11:09:33</time>
      </trkpt>
      <trkpt lat="42.32766" lon="3.17497">
        <ele>339.2</ele>
        <time>2022-05-21 11:09:34</time>
      </trkpt>
      <trkpt lat="42.32764" lon="3.175">
        <ele>339.4</ele>
        <time>2022-05-21 11:09:35</time>
      </trkpt>
      <trkpt lat="42.32764" lon="3.17502">
        <ele>339.6</ele>
        <time>2022-05-21 11:09:36</time>
      </trkpt>
      <trkpt lat="42.32763" lon="3.17504">
        <ele>339.8</ele>
        <time>2022-05-21 11:09:37</time>
      </trkpt>
      <trkpt lat="42.32762" lon="3.17507">
        <ele>340</ele>
        <time>2022-05-21 11:09:38</time>
      </trkpt>
      <trkpt lat="42.32761" lon="3.17509">
        <ele>340.2</ele>
        <time>2022-05-21 11:09:39</time>
      </trkpt>
      <trkpt lat="42.3276" lon="3.17511">
        <ele>340.4</ele>
        <time>2022-05-21 11:09:40</time>
      </trkpt>
      <trkpt lat="42.32759" lon="3.17514">
        <ele>340.6</ele>
        <time>2022-05-21 11:09:41</time>
      </trkpt>
      <trkpt lat="42.32758" lon="3.17517">
        <ele>340.8</ele>
        <time>2022-05-21 11:09:42</time>
      </trkpt>
      <trkpt lat="42.32757" lon="3.17519">
        <ele>341</ele>
        <time>2022-05-21 11:09:43</time>
      </trkpt>
      <trkpt lat="42.32756" lon="3.17522">
        <ele>341.2</ele>
        <time>2022-05-21 11:09:44</time>
      </trkpt>
      <trkpt lat="42.32756" lon="3.17525">
        <ele>341.4</ele>
        <time>2022-05-21 11:09:45</time>
      </trkpt>
      <trkpt lat="42.32755" lon="3.17527">
        <ele>341.4</ele>
        <time>2022-05-21 11:09:46</time>
      </trkpt>
      <trkpt lat="42.32754" lon="3.1753">
        <ele>341.6</ele>
        <time>2022-05-21 11:09:47</time>
      </trkpt>
      <trkpt lat="42.32753" lon="3.17532">
        <ele>341.8</ele>
        <time>2022-05-21 11:09:48</time>
      </trkpt>
      <trkpt lat="42.32752" lon="3.17534">
        <ele>342</ele>
        <time>2022-05-21 11:09:49</time>
      </trkpt>
      <trkpt lat="42.32751" lon="3.17537">
        <ele>342</ele>
        <time>2022-05-21 11:09:50</time>
      </trkpt>
      <trkpt lat="42.32749" lon="3.17539">
        <ele>342.2</ele>
        <time>2022-05-21 11:09:51</time>
      </trkpt>
      <trkpt lat="42.32748" lon="3.17541">
        <ele>342.2</ele>
        <time>2022-05-21 11:09:52</time>
      </trkpt>
      <trkpt lat="42.32746" lon="3.17544">
        <ele>342.4</ele>
        <time>2022-05-21 11:09:53</time>
      </trkpt>
      <trkpt lat="42.32745" lon="3.17546">
        <ele>342.6</ele>
        <time>2022-05-21 11:09:54</time>
      </trkpt>
      <trkpt lat="42.32743" lon="3.17548">
        <ele>342.6</ele>
        <time>2022-05-21 11:09:55</time>
      </trkpt>
      <trkpt lat="42.32741" lon="3.1755">
        <ele>342.8</ele>
        <time>2022-05-21 11:09:56</time>
      </trkpt>
      <trkpt lat="42.32739" lon="3.17552">
        <ele>342.8</ele>
        <time>2022-05-21 11:09:57</time>
      </trkpt>
      <trkpt lat="42.32738" lon="3.17554">
        <ele>343</ele>
        <time>2022-05-21 11:09:58</time>
      </trkpt>
      <trkpt lat="42.32736" lon="3.17555">
        <ele>343.2</ele>
        <time>2022-05-21 11:09:59</time>
      </trkpt>
      <trkpt lat="42.32734" lon="3.17557">
        <ele>343.2</ele>
        <time>2022-05-21 11:10:00</time>
      </trkpt>
      <trkpt lat="42.32733" lon="3.17561">
        <ele>343.4</ele>
        <time>2022-05-21 11:10:01</time>
      </trkpt>
      <trkpt lat="42.32731" lon="3.17563">
        <ele>343.4</ele>
        <time>2022-05-21 11:10:02</time>
      </trkpt>
      <trkpt lat="42.3273" lon="3.17566">
        <ele>343.4</ele>
        <time>2022-05-21 11:10:03</time>
      </trkpt>
      <trkpt lat="42.32729" lon="3.17569">
        <ele>343.6</ele>
        <time>2022-05-21 11:10:04</time>
      </trkpt>
      <trkpt lat="42.32729" lon="3.17572">
        <ele>343.6</ele>
        <time>2022-05-21 11:10:05</time>
      </trkpt>
      <trkpt lat="42.32728" lon="3.17575">
        <ele>343.8</ele>
        <time>2022-05-21 11:10:06</time>
      </trkpt>
      <trkpt lat="42.32728" lon="3.17579">
        <ele>344</ele>
        <time>2022-05-21 11:10:07</time>
      </trkpt>
      <trkpt lat="42.32727" lon="3.17582">
        <ele>344</ele>
        <time>2022-05-21 11:10:08</time>
      </trkpt>
      <trkpt lat="42.32727" lon="3.17585">
        <ele>344.2</ele>
        <time>2022-05-21 11:10:09</time>
      </trkpt>
      <trkpt lat="42.32727" lon="3.17588">
        <ele>344.4</ele>
        <time>2022-05-21 11:10:10</time>
      </trkpt>
      <trkpt lat="42.32727" lon="3.17592">
        <ele>344.4</ele>
        <time>2022-05-21 11:10:11</time>
      </trkpt>
      <trkpt lat="42.32727" lon="3.17595">
        <ele>344.6</ele>
        <time>2022-05-21 11:10:12</time>
      </trkpt>
      <trkpt lat="42.32727" lon="3.17598">
        <ele>344.6</ele>
        <time>2022-05-21 11:10:13</time>
      </trkpt>
      <trkpt lat="42.32727" lon="3.17601">
        <ele>344.8</ele>
        <time>2022-05-21 11:10:14</time>
      </trkpt>
      <trkpt lat="42.32727" lon="3.17604">
        <ele>344.8</ele>
        <time>2022-05-21 11:10:15</time>
      </trkpt>
      <trkpt lat="42.32728" lon="3.17607">
        <ele>344.8</ele>
        <time>2022-05-21 11:10:16</time>
      </trkpt>
      <trkpt lat="42.32728" lon="3.17611">
        <ele>345</ele>
        <time>2022-05-21 11:10:17</time>
      </trkpt>
      <trkpt lat="42.32728" lon="3.17615">
        <ele>345</ele>
        <time>2022-05-21 11:10:18</time>
      </trkpt>
      <trkpt lat="42.32728" lon="3.17617">
        <ele>345.2</ele>
        <time>2022-05-21 11:10:19</time>
      </trkpt>
      <trkpt lat="42.32728" lon="3.1762">
        <ele>345.2</ele>
        <time>2022-05-21 11:10:20</time>
      </trkpt>
      <trkpt lat="42.32728" lon="3.17624">
        <ele>345.2</ele>
        <time>2022-05-21 11:10:21</time>
      </trkpt>
      <trkpt lat="42.32728" lon="3.17627">
        <ele>345.4</ele>
        <time>2022-05-21 11:10:22</time>
      </trkpt>
      <trkpt lat="42.32728" lon="3.17631">
        <ele>345.4</ele>
        <time>2022-05-21 11:10:23</time>
      </trkpt>
      <trkpt lat="42.32728" lon="3.17634">
        <ele>345.6</ele>
        <time>2022-05-21 11:10:24</time>
      </trkpt>
      <trkpt lat="42.32729" lon="3.17637">
        <ele>345.6</ele>
        <time>2022-05-21 11:10:25</time>
      </trkpt>
      <trkpt lat="42.32729" lon="3.1764">
        <ele>345.8</ele>
        <time>2022-05-21 11:10:26</time>
      </trkpt>
      <trkpt lat="42.32729" lon="3.17643">
        <ele>345.8</ele>
        <time>2022-05-21 11:10:27</time>
      </trkpt>
      <trkpt lat="42.32729" lon="3.17646">
        <ele>346</ele>
        <time>2022-05-21 11:10:28</time>
      </trkpt>
      <trkpt lat="42.32729" lon="3.1765">
        <ele>346</ele>
        <time>2022-05-21 11:10:29</time>
      </trkpt>
      <trkpt lat="42.32729" lon="3.17653">
        <ele>346.2</ele>
        <time>2022-05-21 11:10:30</time>
      </trkpt>
      <trkpt lat="42.32728" lon="3.17656">
        <ele>346.4</ele>
        <time>2022-05-21 11:10:31</time>
      </trkpt>
      <trkpt lat="42.32728" lon="3.17658">
        <ele>346.4</ele>
        <time>2022-05-21 11:10:32</time>
      </trkpt>
      <trkpt lat="42.32728" lon="3.17661">
        <ele>346.6</ele>
        <time>2022-05-21 11:10:33</time>
      </trkpt>
      <trkpt lat="42.32727" lon="3.17664">
        <ele>346.8</ele>
        <time>2022-05-21 11:10:34</time>
      </trkpt>
      <trkpt lat="42.32726" lon="3.17667">
        <ele>347</ele>
        <time>2022-05-21 11:10:35</time>
      </trkpt>
      <trkpt lat="42.32725" lon="3.17669">
        <ele>347.2</ele>
        <time>2022-05-21 11:10:36</time>
      </trkpt>
      <trkpt lat="42.32724" lon="3.17672">
        <ele>347.4</ele>
        <time>2022-05-21 11:10:37</time>
      </trkpt>
      <trkpt lat="42.32723" lon="3.17675">
        <ele>347.6</ele>
        <time>2022-05-21 11:10:38</time>
      </trkpt>
      <trkpt lat="42.32722" lon="3.17677">
        <ele>347.8</ele>
        <time>2022-05-21 11:10:39</time>
      </trkpt>
      <trkpt lat="42.32721" lon="3.1768">
        <ele>348</ele>
        <time>2022-05-21 11:10:40</time>
      </trkpt>
      <trkpt lat="42.32719" lon="3.17683">
        <ele>348.2</ele>
        <time>2022-05-21 11:10:41</time>
      </trkpt>
      <trkpt lat="42.32718" lon="3.17686">
        <ele>348.4</ele>
        <time>2022-05-21 11:10:42</time>
      </trkpt>
      <trkpt lat="42.32717" lon="3.17688">
        <ele>348.6</ele>
        <time>2022-05-21 11:10:43</time>
      </trkpt>
      <trkpt lat="42.32715" lon="3.17691">
        <ele>348.8</ele>
        <time>2022-05-21 11:10:44</time>
      </trkpt>
      <trkpt lat="42.32714" lon="3.17693">
        <ele>349</ele>
        <time>2022-05-21 11:10:45</time>
      </trkpt>
      <trkpt lat="42.32713" lon="3.17696">
        <ele>349.2</ele>
        <time>2022-05-21 11:10:46</time>
      </trkpt>
      <trkpt lat="42.32711" lon="3.17699">
        <ele>349.4</ele>
        <time>2022-05-21 11:10:47</time>
      </trkpt>
      <trkpt lat="42.3271" lon="3.17701">
        <ele>349.6</ele>
        <time>2022-05-21 11:10:48</time>
      </trkpt>
      <trkpt lat="42.32709" lon="3.17703">
        <ele>349.8</ele>
        <time>2022-05-21 11:10:49</time>
      </trkpt>
      <trkpt lat="42.32707" lon="3.17706">
        <ele>350</ele>
        <time>2022-05-21 11:10:50</time>
      </trkpt>
      <trkpt lat="42.32706" lon="3.17708">
        <ele>350.2</ele>
        <time>2022-05-21 11:10:51</time>
      </trkpt>
      <trkpt lat="42.32705" lon="3.1771">
        <ele>350.4</ele>
        <time>2022-05-21 11:10:52</time>
      </trkpt>
      <trkpt lat="42.32703" lon="3.17712">
        <ele>350.4</ele>
        <time>2022-05-21 11:10:53</time>
      </trkpt>
      <trkpt lat="42.32701" lon="3.17713">
        <ele>350.6</ele>
        <time>2022-05-21 11:10:54</time>
      </trkpt>
      <trkpt lat="42.327" lon="3.17715">
        <ele>350.8</ele>
        <time>2022-05-21 11:10:55</time>
      </trkpt>
      <trkpt lat="42.32698" lon="3.17717">
        <ele>350.8</ele>
        <time>2022-05-21 11:10:56</time>
      </trkpt>
      <trkpt lat="42.32696" lon="3.17718">
        <ele>351</ele>
        <time>2022-05-21 11:10:57</time>
      </trkpt>
      <trkpt lat="42.32694" lon="3.1772">
        <ele>351.2</ele>
        <time>2022-05-21 11:10:58</time>
      </trkpt>
      <trkpt lat="42.32692" lon="3.17721">
        <ele>351.4</ele>
        <time>2022-05-21 11:10:59</time>
      </trkpt>
      <trkpt lat="42.3269" lon="3.17722">
        <ele>351.6</ele>
        <time>2022-05-21 11:11:00</time>
      </trkpt>
      <trkpt lat="42.32688" lon="3.17723">
        <ele>351.6</ele>
        <time>2022-05-21 11:11:01</time>
      </trkpt>
      <trkpt lat="42.32686" lon="3.17724">
        <ele>351.8</ele>
        <time>2022-05-21 11:11:02</time>
      </trkpt>
      <trkpt lat="42.32685" lon="3.17724">
        <ele>352</ele>
        <time>2022-05-21 11:11:03</time>
      </trkpt>
      <trkpt lat="42.32683" lon="3.17725">
        <ele>352.2</ele>
        <time>2022-05-21 11:11:04</time>
      </trkpt>
      <trkpt lat="42.32681" lon="3.17725">
        <ele>352.2</ele>
        <time>2022-05-21 11:11:05</time>
      </trkpt>
      <trkpt lat="42.32679" lon="3.17726">
        <ele>352.4</ele>
        <time>2022-05-21 11:11:06</time>
      </trkpt>
      <trkpt lat="42.32677" lon="3.17726">
        <ele>352.6</ele>
        <time>2022-05-21 11:11:07</time>
      </trkpt>
      <trkpt lat="42.32675" lon="3.17726">
        <ele>352.8</ele>
        <time>2022-05-21 11:11:08</time>
      </trkpt>
      <trkpt lat="42.32674" lon="3.17726">
        <ele>353.2</ele>
        <time>2022-05-21 11:11:09</time>
      </trkpt>
      <trkpt lat="42.32672" lon="3.17725">
        <ele>353.4</ele>
        <time>2022-05-21 11:11:10</time>
      </trkpt>
      <trkpt lat="42.3267" lon="3.17725">
        <ele>353.6</ele>
        <time>2022-05-21 11:11:11</time>
      </trkpt>
      <trkpt lat="42.32668" lon="3.17723">
        <ele>353.8</ele>
        <time>2022-05-21 11:11:12</time>
      </trkpt>
      <trkpt lat="42.32667" lon="3.17722">
        <ele>354.2</ele>
        <time>2022-05-21 11:11:13</time>
      </trkpt>
      <trkpt lat="42.32666" lon="3.1772">
        <ele>354.4</ele>
        <time>2022-05-21 11:11:14</time>
      </trkpt>
      <trkpt lat="42.32665" lon="3.17718">
        <ele>354.6</ele>
        <time>2022-05-21 11:11:15</time>
      </trkpt>
      <trkpt lat="42.32665" lon="3.17716">
        <ele>354.8</ele>
        <time>2022-05-21 11:11:16</time>
      </trkpt>
      <trkpt lat="42.32665" lon="3.17713">
        <ele>355.2</ele>
        <time>2022-05-21 11:11:17</time>
      </trkpt>
      <trkpt lat="42.32666" lon="3.17711">
        <ele>355.4</ele>
        <time>2022-05-21 11:11:18</time>
      </trkpt>
      <trkpt lat="42.32666" lon="3.17708">
        <ele>355.6</ele>
        <time>2022-05-21 11:11:19</time>
      </trkpt>
      <trkpt lat="42.32667" lon="3.17706">
        <ele>355.8</ele>
        <time>2022-05-21 11:11:20</time>
      </trkpt>
      <trkpt lat="42.32668" lon="3.17704">
        <ele>356.2</ele>
        <time>2022-05-21 11:11:21</time>
      </trkpt>
      <trkpt lat="42.32669" lon="3.17702">
        <ele>356.4</ele>
        <time>2022-05-21 11:11:22</time>
      </trkpt>
      <trkpt lat="42.3267" lon="3.177">
        <ele>356.6</ele>
        <time>2022-05-21 11:11:23</time>
      </trkpt>
      <trkpt lat="42.32671" lon="3.17697">
        <ele>356.8</ele>
        <time>2022-05-21 11:11:24</time>
      </trkpt>
      <trkpt lat="42.32672" lon="3.17695">
        <ele>357.2</ele>
        <time>2022-05-21 11:11:25</time>
      </trkpt>
      <trkpt lat="42.32673" lon="3.17693">
        <ele>357.4</ele>
        <time>2022-05-21 11:11:26</time>
      </trkpt>
      <trkpt lat="42.32674" lon="3.17691">
        <ele>357.6</ele>
        <time>2022-05-21 11:11:27</time>
      </trkpt>
      <trkpt lat="42.32675" lon="3.17689">
        <ele>357.6</ele>
        <time>2022-05-21 11:11:28</time>
      </trkpt>
      <trkpt lat="42.32676" lon="3.17687">
        <ele>357.8</ele>
        <time>2022-05-21 11:11:29</time>
      </trkpt>
      <trkpt lat="42.32677" lon="3.17684">
        <ele>358</ele>
        <time>2022-05-21 11:11:30</time>
      </trkpt>
      <trkpt lat="42.32678" lon="3.17682">
        <ele>358.2</ele>
        <time>2022-05-21 11:11:31</time>
      </trkpt>
      <trkpt lat="42.32679" lon="3.1768">
        <ele>358.4</ele>
        <time>2022-05-21 11:11:32</time>
      </trkpt>
      <trkpt lat="42.3268" lon="3.17678">
        <ele>358.6</ele>
        <time>2022-05-21 11:11:33</time>
      </trkpt>
      <trkpt lat="42.32681" lon="3.17676">
        <ele>358.8</ele>
        <time>2022-05-21 11:11:34</time>
      </trkpt>
      <trkpt lat="42.32682" lon="3.17674">
        <ele>359</ele>
        <time>2022-05-21 11:11:35</time>
      </trkpt>
      <trkpt lat="42.32682" lon="3.17671">
        <ele>359.2</ele>
        <time>2022-05-21 11:11:36</time>
      </trkpt>
      <trkpt lat="42.32683" lon="3.17669">
        <ele>359.4</ele>
        <time>2022-05-21 11:11:37</time>
      </trkpt>
      <trkpt lat="42.32684" lon="3.17667">
        <ele>359.6</ele>
        <time>2022-05-21 11:11:38</time>
      </trkpt>
      <trkpt lat="42.32684" lon="3.17664">
        <ele>359.8</ele>
        <time>2022-05-21 11:11:39</time>
      </trkpt>
      <trkpt lat="42.32685" lon="3.17662">
        <ele>360</ele>
        <time>2022-05-21 11:11:40</time>
      </trkpt>
      <trkpt lat="42.32685" lon="3.17659">
        <ele>360.2</ele>
        <time>2022-05-21 11:11:41</time>
      </trkpt>
      <trkpt lat="42.32685" lon="3.17657">
        <ele>360.2</ele>
        <time>2022-05-21 11:11:42</time>
      </trkpt>
      <trkpt lat="42.32686" lon="3.17654">
        <ele>360.4</ele>
        <time>2022-05-21 11:11:43</time>
      </trkpt>
      <trkpt lat="42.32686" lon="3.17652">
        <ele>360.6</ele>
        <time>2022-05-21 11:11:44</time>
      </trkpt>
      <trkpt lat="42.32686" lon="3.17649">
        <ele>360.8</ele>
        <time>2022-05-21 11:11:45</time>
      </trkpt>
      <trkpt lat="42.32686" lon="3.17646">
        <ele>361</ele>
        <time>2022-05-21 11:11:46</time>
      </trkpt>
      <trkpt lat="42.32687" lon="3.17644">
        <ele>361.2</ele>
        <time>2022-05-21 11:11:47</time>
      </trkpt>
      <trkpt lat="42.32687" lon="3.17641">
        <ele>361.2</ele>
        <time>2022-05-21 11:11:48</time>
      </trkpt>
      <trkpt lat="42.32687" lon="3.17638">
        <ele>361.4</ele>
        <time>2022-05-21 11:11:49</time>
      </trkpt>
      <trkpt lat="42.32686" lon="3.17636">
        <ele>361.6</ele>
        <time>2022-05-21 11:11:50</time>
      </trkpt>
      <trkpt lat="42.32686" lon="3.17633">
        <ele>361.8</ele>
        <time>2022-05-21 11:11:51</time>
      </trkpt>
      <trkpt lat="42.32686" lon="3.1763">
        <ele>362</ele>
        <time>2022-05-21 11:11:52</time>
      </trkpt>
      <trkpt lat="42.32686" lon="3.17628">
        <ele>362.2</ele>
        <time>2022-05-21 11:11:53</time>
      </trkpt>
      <trkpt lat="42.32685" lon="3.17625">
        <ele>362.4</ele>
        <time>2022-05-21 11:11:54</time>
      </trkpt>
      <trkpt lat="42.32685" lon="3.17623">
        <ele>362.6</ele>
        <time>2022-05-21 11:11:55</time>
      </trkpt>
      <trkpt lat="42.32685" lon="3.1762">
        <ele>362.8</ele>
        <time>2022-05-21 11:11:56</time>
      </trkpt>
      <trkpt lat="42.32684" lon="3.17618">
        <ele>363</ele>
        <time>2022-05-21 11:11:57</time>
      </trkpt>
      <trkpt lat="42.32684" lon="3.17615">
        <ele>363.2</ele>
        <time>2022-05-21 11:11:58</time>
      </trkpt>
      <trkpt lat="42.32684" lon="3.17613">
        <ele>363.4</ele>
        <time>2022-05-21 11:11:59</time>
      </trkpt>
      <trkpt lat="42.32683" lon="3.1761">
        <ele>363.6</ele>
        <time>2022-05-21 11:12:00</time>
      </trkpt>
      <trkpt lat="42.32683" lon="3.17608">
        <ele>363.8</ele>
        <time>2022-05-21 11:12:01</time>
      </trkpt>
      <trkpt lat="42.32683" lon="3.17605">
        <ele>364</ele>
        <time>2022-05-21 11:12:02</time>
      </trkpt>
      <trkpt lat="42.32683" lon="3.17602">
        <ele>364</ele>
        <time>2022-05-21 11:12:03</time>
      </trkpt>
      <trkpt lat="42.32682" lon="3.176">
        <ele>364.2</ele>
        <time>2022-05-21 11:12:04</time>
      </trkpt>
      <trkpt lat="42.32682" lon="3.17597">
        <ele>364.4</ele>
        <time>2022-05-21 11:12:05</time>
      </trkpt>
      <trkpt lat="42.32681" lon="3.17595">
        <ele>364.6</ele>
        <time>2022-05-21 11:12:06</time>
      </trkpt>
      <trkpt lat="42.32681" lon="3.17592">
        <ele>364.8</ele>
        <time>2022-05-21 11:12:07</time>
      </trkpt>
      <trkpt lat="42.32681" lon="3.1759">
        <ele>365</ele>
        <time>2022-05-21 11:12:08</time>
      </trkpt>
      <trkpt lat="42.3268" lon="3.17587">
        <ele>365.2</ele>
        <time>2022-05-21 11:12:09</time>
      </trkpt>
      <trkpt lat="42.3268" lon="3.17585">
        <ele>365.4</ele>
        <time>2022-05-21 11:12:10</time>
      </trkpt>
      <trkpt lat="42.32679" lon="3.17583">
        <ele>365.4</ele>
        <time>2022-05-21 11:12:11</time>
      </trkpt>
      <trkpt lat="42.32679" lon="3.1758">
        <ele>365.6</ele>
        <time>2022-05-21 11:12:12</time>
      </trkpt>
      <trkpt lat="42.32678" lon="3.17577">
        <ele>365.8</ele>
        <time>2022-05-21 11:12:13</time>
      </trkpt>
      <trkpt lat="42.32677" lon="3.17575">
        <ele>366</ele>
        <time>2022-05-21 11:12:14</time>
      </trkpt>
      <trkpt lat="42.32677" lon="3.17572">
        <ele>366.2</ele>
        <time>2022-05-21 11:12:15</time>
      </trkpt>
      <trkpt lat="42.32676" lon="3.1757">
        <ele>366.2</ele>
        <time>2022-05-21 11:12:16</time>
      </trkpt>
      <trkpt lat="42.32676" lon="3.17567">
        <ele>366.4</ele>
        <time>2022-05-21 11:12:17</time>
      </trkpt>
      <trkpt lat="42.32675" lon="3.17565">
        <ele>366.6</ele>
        <time>2022-05-21 11:12:18</time>
      </trkpt>
      <trkpt lat="42.32674" lon="3.17562">
        <ele>366.8</ele>
        <time>2022-05-21 11:12:19</time>
      </trkpt>
      <trkpt lat="42.32674" lon="3.1756">
        <ele>367</ele>
        <time>2022-05-21 11:12:20</time>
      </trkpt>
      <trkpt lat="42.32674" lon="3.17558">
        <ele>367.2</ele>
        <time>2022-05-21 11:12:21</time>
      </trkpt>
      <trkpt lat="42.32674" lon="3.17555">
        <ele>367.4</ele>
        <time>2022-05-21 11:12:22</time>
      </trkpt>
      <trkpt lat="42.32674" lon="3.17553">
        <ele>367.6</ele>
        <time>2022-05-21 11:12:23</time>
      </trkpt>
      <trkpt lat="42.32674" lon="3.17551">
        <ele>367.8</ele>
        <time>2022-05-21 11:12:24</time>
      </trkpt>
      <trkpt lat="42.32674" lon="3.17548">
        <ele>368</ele>
        <time>2022-05-21 11:12:25</time>
      </trkpt>
      <trkpt lat="42.32674" lon="3.17546">
        <ele>368.2</ele>
        <time>2022-05-21 11:12:26</time>
      </trkpt>
      <trkpt lat="42.32674" lon="3.17544">
        <ele>368.4</ele>
        <time>2022-05-21 11:12:27</time>
      </trkpt>
      <trkpt lat="42.32675" lon="3.17541">
        <ele>368.6</ele>
        <time>2022-05-21 11:12:28</time>
      </trkpt>
      <trkpt lat="42.32675" lon="3.17539">
        <ele>368.8</ele>
        <time>2022-05-21 11:12:29</time>
      </trkpt>
      <trkpt lat="42.32676" lon="3.17537">
        <ele>369</ele>
        <time>2022-05-21 11:12:30</time>
      </trkpt>
      <trkpt lat="42.32677" lon="3.17534">
        <ele>369.2</ele>
        <time>2022-05-21 11:12:31</time>
      </trkpt>
      <trkpt lat="42.32678" lon="3.17532">
        <ele>369.4</ele>
        <time>2022-05-21 11:12:32</time>
      </trkpt>
      <trkpt lat="42.32678" lon="3.1753">
        <ele>369.6</ele>
        <time>2022-05-21 11:12:33</time>
      </trkpt>
      <trkpt lat="42.32679" lon="3.17528">
        <ele>369.6</ele>
        <time>2022-05-21 11:12:34</time>
      </trkpt>
      <trkpt lat="42.3268" lon="3.17525">
        <ele>369.8</ele>
        <time>2022-05-21 11:12:35</time>
      </trkpt>
      <trkpt lat="42.3268" lon="3.17523">
        <ele>370</ele>
        <time>2022-05-21 11:12:36</time>
      </trkpt>
      <trkpt lat="42.32682" lon="3.17521">
        <ele>370.2</ele>
        <time>2022-05-21 11:12:37</time>
      </trkpt>
      <trkpt lat="42.32683" lon="3.17518">
        <ele>370.4</ele>
        <time>2022-05-21 11:12:38</time>
      </trkpt>
      <trkpt lat="42.32684" lon="3.17516">
        <ele>370.4</ele>
        <time>2022-05-21 11:12:39</time>
      </trkpt>
      <trkpt lat="42.32686" lon="3.17514">
        <ele>370.6</ele>
        <time>2022-05-21 11:12:40</time>
      </trkpt>
      <trkpt lat="42.32687" lon="3.17512">
        <ele>370.6</ele>
        <time>2022-05-21 11:12:41</time>
      </trkpt>
      <trkpt lat="42.32688" lon="3.1751">
        <ele>370.8</ele>
        <time>2022-05-21 11:12:42</time>
      </trkpt>
      <trkpt lat="42.3269" lon="3.17508">
        <ele>371</ele>
        <time>2022-05-21 11:12:43</time>
      </trkpt>
      <trkpt lat="42.32691" lon="3.17506">
        <ele>371</ele>
        <time>2022-05-21 11:12:44</time>
      </trkpt>
      <trkpt lat="42.32692" lon="3.17504">
        <ele>371.2</ele>
        <time>2022-05-21 11:12:45</time>
      </trkpt>
      <trkpt lat="42.32693" lon="3.17502">
        <ele>371.2</ele>
        <time>2022-05-21 11:12:46</time>
      </trkpt>
      <trkpt lat="42.32695" lon="3.175">
        <ele>371.4</ele>
        <time>2022-05-21 11:12:47</time>
      </trkpt>
      <trkpt lat="42.32696" lon="3.17498">
        <ele>371.4</ele>
        <time>2022-05-21 11:12:48</time>
      </trkpt>
      <trkpt lat="42.32698" lon="3.17496">
        <ele>371.6</ele>
        <time>2022-05-21 11:12:49</time>
      </trkpt>
      <trkpt lat="42.32699" lon="3.17494">
        <ele>371.6</ele>
        <time>2022-05-21 11:12:50</time>
      </trkpt>
      <trkpt lat="42.32701" lon="3.17492">
        <ele>371.8</ele>
        <time>2022-05-21 11:12:51</time>
      </trkpt>
      <trkpt lat="42.32703" lon="3.1749">
        <ele>372</ele>
        <time>2022-05-21 11:12:52</time>
      </trkpt>
      <trkpt lat="42.32704" lon="3.17488">
        <ele>372</ele>
        <time>2022-05-21 11:12:53</time>
      </trkpt>
      <trkpt lat="42.32706" lon="3.17486">
        <ele>372.2</ele>
        <time>2022-05-21 11:12:54</time>
      </trkpt>
      <trkpt lat="42.32708" lon="3.17484">
        <ele>372.4</ele>
        <time>2022-05-21 11:12:55</time>
      </trkpt>
      <trkpt lat="42.32709" lon="3.17483">
        <ele>372.4</ele>
        <time>2022-05-21 11:12:56</time>
      </trkpt>
      <trkpt lat="42.32711" lon="3.17481">
        <ele>372.6</ele>
        <time>2022-05-21 11:12:57</time>
      </trkpt>
      <trkpt lat="42.32712" lon="3.17479">
        <ele>372.8</ele>
        <time>2022-05-21 11:12:58</time>
      </trkpt>
      <trkpt lat="42.32714" lon="3.17477">
        <ele>373</ele>
        <time>2022-05-21 11:12:59</time>
      </trkpt>
      <trkpt lat="42.32715" lon="3.17476">
        <ele>373</ele>
        <time>2022-05-21 11:13:00</time>
      </trkpt>
      <trkpt lat="42.32717" lon="3.17474">
        <ele>373.2</ele>
        <time>2022-05-21 11:13:01</time>
      </trkpt>
      <trkpt lat="42.32718" lon="3.17472">
        <ele>373.4</ele>
        <time>2022-05-21 11:13:02</time>
      </trkpt>
      <trkpt lat="42.3272" lon="3.1747">
        <ele>373.6</ele>
        <time>2022-05-21 11:13:03</time>
      </trkpt>
      <trkpt lat="42.32721" lon="3.17467">
        <ele>374</ele>
        <time>2022-05-21 11:13:04</time>
      </trkpt>
      <trkpt lat="42.32722" lon="3.17465">
        <ele>374.2</ele>
        <time>2022-05-21 11:13:05</time>
      </trkpt>
      <trkpt lat="42.32723" lon="3.17463">
        <ele>374.4</ele>
        <time>2022-05-21 11:13:06</time>
      </trkpt>
      <trkpt lat="42.32723" lon="3.1746">
        <ele>374.6</ele>
        <time>2022-05-21 11:13:07</time>
      </trkpt>
      <trkpt lat="42.32723" lon="3.17457">
        <ele>374.8</ele>
        <time>2022-05-21 11:13:08</time>
      </trkpt>
      <trkpt lat="42.32723" lon="3.17454">
        <ele>375</ele>
        <time>2022-05-21 11:13:09</time>
      </trkpt>
      <trkpt lat="42.32722" lon="3.17452">
        <ele>375.4</ele>
        <time>2022-05-21 11:13:10</time>
      </trkpt>
      <trkpt lat="42.32721" lon="3.17449">
        <ele>375.6</ele>
        <time>2022-05-21 11:13:11</time>
      </trkpt>
      <trkpt lat="42.3272" lon="3.17447">
        <ele>375.8</ele>
        <time>2022-05-21 11:13:12</time>
      </trkpt>
      <trkpt lat="42.32719" lon="3.17446">
        <ele>376</ele>
        <time>2022-05-21 11:13:13</time>
      </trkpt>
      <trkpt lat="42.32718" lon="3.17444">
        <ele>376.2</ele>
        <time>2022-05-21 11:13:14</time>
      </trkpt>
      <trkpt lat="42.32716" lon="3.17443">
        <ele>376.4</ele>
        <time>2022-05-21 11:13:15</time>
      </trkpt>
      <trkpt lat="42.32714" lon="3.17442">
        <ele>376.6</ele>
        <time>2022-05-21 11:13:16</time>
      </trkpt>
      <trkpt lat="42.32713" lon="3.17441">
        <ele>376.6</ele>
        <time>2022-05-21 11:13:17</time>
      </trkpt>
      <trkpt lat="42.32711" lon="3.17441">
        <ele>377</ele>
        <time>2022-05-21 11:13:18</time>
      </trkpt>
      <trkpt lat="42.32709" lon="3.17442">
        <ele>377.2</ele>
        <time>2022-05-21 11:13:19</time>
      </trkpt>
      <trkpt lat="42.32707" lon="3.17442">
        <ele>377.4</ele>
        <time>2022-05-21 11:13:20</time>
      </trkpt>
      <trkpt lat="42.32705" lon="3.17443">
        <ele>377.6</ele>
        <time>2022-05-21 11:13:21</time>
      </trkpt>
      <trkpt lat="42.32703" lon="3.17444">
        <ele>377.6</ele>
        <time>2022-05-21 11:13:22</time>
      </trkpt>
      <trkpt lat="42.32702" lon="3.17446">
        <ele>377.8</ele>
        <time>2022-05-21 11:13:23</time>
      </trkpt>
      <trkpt lat="42.32701" lon="3.17448">
        <ele>378</ele>
        <time>2022-05-21 11:13:24</time>
      </trkpt>
      <trkpt lat="42.32699" lon="3.17449">
        <ele>378.2</ele>
        <time>2022-05-21 11:13:25</time>
      </trkpt>
      <trkpt lat="42.32698" lon="3.17451">
        <ele>378.4</ele>
        <time>2022-05-21 11:13:26</time>
      </trkpt>
      <trkpt lat="42.32697" lon="3.17452">
        <ele>378.6</ele>
        <time>2022-05-21 11:13:27</time>
      </trkpt>
      <trkpt lat="42.32695" lon="3.17454">
        <ele>378.8</ele>
        <time>2022-05-21 11:13:28</time>
      </trkpt>
      <trkpt lat="42.32694" lon="3.17455">
        <ele>379</ele>
        <time>2022-05-21 11:13:29</time>
      </trkpt>
      <trkpt lat="42.32693" lon="3.17457">
        <ele>379.2</ele>
        <time>2022-05-21 11:13:30</time>
      </trkpt>
      <trkpt lat="42.32692" lon="3.17459">
        <ele>379.4</ele>
        <time>2022-05-21 11:13:31</time>
      </trkpt>
      <trkpt lat="42.32691" lon="3.17461">
        <ele>379.6</ele>
        <time>2022-05-21 11:13:32</time>
      </trkpt>
      <trkpt lat="42.32689" lon="3.17463">
        <ele>379.8</ele>
        <time>2022-05-21 11:13:33</time>
      </trkpt>
      <trkpt lat="42.32689" lon="3.17465">
        <ele>380</ele>
        <time>2022-05-21 11:13:34</time>
      </trkpt>
      <trkpt lat="42.32688" lon="3.17467">
        <ele>380.2</ele>
        <time>2022-05-21 11:13:35</time>
      </trkpt>
      <trkpt lat="42.32687" lon="3.17469">
        <ele>380.2</ele>
        <time>2022-05-21 11:13:36</time>
      </trkpt>
      <trkpt lat="42.32686" lon="3.17471">
        <ele>380.4</ele>
        <time>2022-05-21 11:13:37</time>
      </trkpt>
      <trkpt lat="42.32685" lon="3.17473">
        <ele>380.6</ele>
        <time>2022-05-21 11:13:38</time>
      </trkpt>
      <trkpt lat="42.32684" lon="3.17474">
        <ele>380.8</ele>
        <time>2022-05-21 11:13:39</time>
      </trkpt>
      <trkpt lat="42.32683" lon="3.17476">
        <ele>381</ele>
        <time>2022-05-21 11:13:40</time>
      </trkpt>
      <trkpt lat="42.32681" lon="3.17478">
        <ele>381.2</ele>
        <time>2022-05-21 11:13:41</time>
      </trkpt>
      <trkpt lat="42.32679" lon="3.17479">
        <ele>381.4</ele>
        <time>2022-05-21 11:13:42</time>
      </trkpt>
      <trkpt lat="42.32678" lon="3.17481">
        <ele>381.6</ele>
        <time>2022-05-21 11:13:43</time>
      </trkpt>
      <trkpt lat="42.32676" lon="3.17483">
        <ele>381.8</ele>
        <time>2022-05-21 11:13:44</time>
      </trkpt>
      <trkpt lat="42.32675" lon="3.17484">
        <ele>382</ele>
        <time>2022-05-21 11:13:45</time>
      </trkpt>
      <trkpt lat="42.32673" lon="3.17486">
        <ele>382.2</ele>
        <time>2022-05-21 11:13:46</time>
      </trkpt>
      <trkpt lat="42.32672" lon="3.17487">
        <ele>382.2</ele>
        <time>2022-05-21 11:13:47</time>
      </trkpt>
      <trkpt lat="42.32671" lon="3.17489">
        <ele>382.4</ele>
        <time>2022-05-21 11:13:48</time>
      </trkpt>
      <trkpt lat="42.32669" lon="3.1749">
        <ele>382.6</ele>
        <time>2022-05-21 11:13:49</time>
      </trkpt>
      <trkpt lat="42.32668" lon="3.17491">
        <ele>382.6</ele>
        <time>2022-05-21 11:13:50</time>
      </trkpt>
      <trkpt lat="42.32666" lon="3.17492">
        <ele>383</ele>
        <time>2022-05-21 11:13:51</time>
      </trkpt>
      <trkpt lat="42.32664" lon="3.17493">
        <ele>383.2</ele>
        <time>2022-05-21 11:13:52</time>
      </trkpt>
      <trkpt lat="42.32662" lon="3.17494">
        <ele>383.4</ele>
        <time>2022-05-21 11:13:53</time>
      </trkpt>
      <trkpt lat="42.3266" lon="3.17495">
        <ele>383.4</ele>
        <time>2022-05-21 11:13:54</time>
      </trkpt>
      <trkpt lat="42.32658" lon="3.17495">
        <ele>383.6</ele>
        <time>2022-05-21 11:13:55</time>
      </trkpt>
      <trkpt lat="42.32657" lon="3.17496">
        <ele>383.8</ele>
        <time>2022-05-21 11:13:56</time>
      </trkpt>
      <trkpt lat="42.32655" lon="3.17497">
        <ele>384</ele>
        <time>2022-05-21 11:13:57</time>
      </trkpt>
      <trkpt lat="42.32653" lon="3.17498">
        <ele>384.2</ele>
        <time>2022-05-21 11:13:58</time>
      </trkpt>
      <trkpt lat="42.32652" lon="3.17499">
        <ele>384.4</ele>
        <time>2022-05-21 11:13:59</time>
      </trkpt>
      <trkpt lat="42.32651" lon="3.175">
        <ele>384.6</ele>
        <time>2022-05-21 11:14:00</time>
      </trkpt>
      <trkpt lat="42.32649" lon="3.17501">
        <ele>384.8</ele>
        <time>2022-05-21 11:14:01</time>
      </trkpt>
      <trkpt lat="42.32647" lon="3.17502">
        <ele>385</ele>
        <time>2022-05-21 11:14:02</time>
      </trkpt>
      <trkpt lat="42.32646" lon="3.17503">
        <ele>385</ele>
        <time>2022-05-21 11:14:03</time>
      </trkpt>
      <trkpt lat="42.32644" lon="3.17504">
        <ele>385.2</ele>
        <time>2022-05-21 11:14:04</time>
      </trkpt>
      <trkpt lat="42.32643" lon="3.17505">
        <ele>385.4</ele>
        <time>2022-05-21 11:14:05</time>
      </trkpt>
      <trkpt lat="42.32641" lon="3.17506">
        <ele>385.6</ele>
        <time>2022-05-21 11:14:06</time>
      </trkpt>
      <trkpt lat="42.3264" lon="3.17508">
        <ele>385.8</ele>
        <time>2022-05-21 11:14:07</time>
      </trkpt>
      <trkpt lat="42.32639" lon="3.17509">
        <ele>386</ele>
        <time>2022-05-21 11:14:08</time>
      </trkpt>
      <trkpt lat="42.32637" lon="3.1751">
        <ele>386.2</ele>
        <time>2022-05-21 11:14:09</time>
      </trkpt>
      <trkpt lat="42.32636" lon="3.17511">
        <ele>386.4</ele>
        <time>2022-05-21 11:14:10</time>
      </trkpt>
      <trkpt lat="42.32634" lon="3.17512">
        <ele>386.6</ele>
        <time>2022-05-21 11:14:11</time>
      </trkpt>
      <trkpt lat="42.32633" lon="3.17513">
        <ele>387</ele>
        <time>2022-05-21 11:14:12</time>
      </trkpt>
      <trkpt lat="42.32631" lon="3.17514">
        <ele>387.2</ele>
        <time>2022-05-21 11:14:13</time>
      </trkpt>
      <trkpt lat="42.3263" lon="3.17515">
        <ele>387.4</ele>
        <time>2022-05-21 11:14:14</time>
      </trkpt>
      <trkpt lat="42.32628" lon="3.17517">
        <ele>387.6</ele>
        <time>2022-05-21 11:14:15</time>
      </trkpt>
      <trkpt lat="42.32627" lon="3.17518">
        <ele>387.8</ele>
        <time>2022-05-21 11:14:16</time>
      </trkpt>
      <trkpt lat="42.32626" lon="3.17519">
        <ele>388</ele>
        <time>2022-05-21 11:14:17</time>
      </trkpt>
      <trkpt lat="42.32624" lon="3.17521">
        <ele>388.2</ele>
        <time>2022-05-21 11:14:18</time>
      </trkpt>
      <trkpt lat="42.32623" lon="3.17522">
        <ele>388.4</ele>
        <time>2022-05-21 11:14:19</time>
      </trkpt>
      <trkpt lat="42.32622" lon="3.17524">
        <ele>388.6</ele>
        <time>2022-05-21 11:14:20</time>
      </trkpt>
      <trkpt lat="42.3262" lon="3.17525">
        <ele>388.6</ele>
        <time>2022-05-21 11:14:21</time>
      </trkpt>
      <trkpt lat="42.32619" lon="3.17528">
        <ele>388.8</ele>
        <time>2022-05-21 11:14:22</time>
      </trkpt>
      <trkpt lat="42.32618" lon="3.1753">
        <ele>389</ele>
        <time>2022-05-21 11:14:23</time>
      </trkpt>
      <trkpt lat="42.32617" lon="3.17532">
        <ele>389.2</ele>
        <time>2022-05-21 11:14:24</time>
      </trkpt>
      <trkpt lat="42.32617" lon="3.17534">
        <ele>389.4</ele>
        <time>2022-05-21 11:14:25</time>
      </trkpt>
      <trkpt lat="42.32616" lon="3.17537">
        <ele>389.4</ele>
        <time>2022-05-21 11:14:26</time>
      </trkpt>
      <trkpt lat="42.32616" lon="3.1754">
        <ele>389.6</ele>
        <time>2022-05-21 11:14:27</time>
      </trkpt>
      <trkpt lat="42.32616" lon="3.17542">
        <ele>389.8</ele>
        <time>2022-05-21 11:14:28</time>
      </trkpt>
      <trkpt lat="42.32615" lon="3.17544">
        <ele>389.8</ele>
        <time>2022-05-21 11:14:29</time>
      </trkpt>
      <trkpt lat="42.32615" lon="3.17547">
        <ele>390</ele>
        <time>2022-05-21 11:14:30</time>
      </trkpt>
      <trkpt lat="42.32614" lon="3.1755">
        <ele>390.2</ele>
        <time>2022-05-21 11:14:31</time>
      </trkpt>
      <trkpt lat="42.32614" lon="3.17553">
        <ele>390.2</ele>
        <time>2022-05-21 11:14:32</time>
      </trkpt>
      <trkpt lat="42.32613" lon="3.17556">
        <ele>390.4</ele>
        <time>2022-05-21 11:14:33</time>
      </trkpt>
      <trkpt lat="42.32613" lon="3.17558">
        <ele>390.4</ele>
        <time>2022-05-21 11:14:34</time>
      </trkpt>
      <trkpt lat="42.32613" lon="3.17561">
        <ele>390.6</ele>
        <time>2022-05-21 11:14:35</time>
      </trkpt>
      <trkpt lat="42.32612" lon="3.17564">
        <ele>390.6</ele>
        <time>2022-05-21 11:14:36</time>
      </trkpt>
      <trkpt lat="42.32612" lon="3.17567">
        <ele>390.8</ele>
        <time>2022-05-21 11:14:37</time>
      </trkpt>
      <trkpt lat="42.32612" lon="3.1757">
        <ele>390.8</ele>
        <time>2022-05-21 11:14:38</time>
      </trkpt>
      <trkpt lat="42.32611" lon="3.17572">
        <ele>391</ele>
        <time>2022-05-21 11:14:39</time>
      </trkpt>
      <trkpt lat="42.32611" lon="3.17575">
        <ele>391.2</ele>
        <time>2022-05-21 11:14:40</time>
      </trkpt>
      <trkpt lat="42.32611" lon="3.17578">
        <ele>391.2</ele>
        <time>2022-05-21 11:14:41</time>
      </trkpt>
      <trkpt lat="42.3261" lon="3.1758">
        <ele>391.4</ele>
        <time>2022-05-21 11:14:42</time>
      </trkpt>
      <trkpt lat="42.3261" lon="3.17583">
        <ele>391.4</ele>
        <time>2022-05-21 11:14:43</time>
      </trkpt>
      <trkpt lat="42.32609" lon="3.17585">
        <ele>391.6</ele>
        <time>2022-05-21 11:14:44</time>
      </trkpt>
      <trkpt lat="42.32608" lon="3.17588">
        <ele>391.6</ele>
        <time>2022-05-21 11:14:45</time>
      </trkpt>
      <trkpt lat="42.32607" lon="3.1759">
        <ele>391.8</ele>
        <time>2022-05-21 11:14:46</time>
      </trkpt>
      <trkpt lat="42.32607" lon="3.17593">
        <ele>392</ele>
        <time>2022-05-21 11:14:47</time>
      </trkpt>
      <trkpt lat="42.32606" lon="3.17595">
        <ele>392</ele>
        <time>2022-05-21 11:14:48</time>
      </trkpt>
      <trkpt lat="42.32605" lon="3.17598">
        <ele>392.2</ele>
        <time>2022-05-21 11:14:49</time>
      </trkpt>
      <trkpt lat="42.32604" lon="3.176">
        <ele>392.4</ele>
        <time>2022-05-21 11:14:50</time>
      </trkpt>
      <trkpt lat="42.32602" lon="3.17602">
        <ele>392.6</ele>
        <time>2022-05-21 11:14:51</time>
      </trkpt>
      <trkpt lat="42.32601" lon="3.17604">
        <ele>392.8</ele>
        <time>2022-05-21 11:14:52</time>
      </trkpt>
      <trkpt lat="42.32599" lon="3.17606">
        <ele>392.8</ele>
        <time>2022-05-21 11:14:53</time>
      </trkpt>
      <trkpt lat="42.32598" lon="3.17608">
        <ele>393</ele>
        <time>2022-05-21 11:14:54</time>
      </trkpt>
      <trkpt lat="42.32596" lon="3.17609">
        <ele>393.2</ele>
        <time>2022-05-21 11:14:55</time>
      </trkpt>
      <trkpt lat="42.32594" lon="3.1761">
        <ele>393.4</ele>
        <time>2022-05-21 11:14:56</time>
      </trkpt>
      <trkpt lat="42.32593" lon="3.17611">
        <ele>393.6</ele>
        <time>2022-05-21 11:14:57</time>
      </trkpt>
      <trkpt lat="42.32591" lon="3.17612">
        <ele>393.8</ele>
        <time>2022-05-21 11:14:58</time>
      </trkpt>
      <trkpt lat="42.32589" lon="3.17613">
        <ele>394</ele>
        <time>2022-05-21 11:14:59</time>
      </trkpt>
      <trkpt lat="42.32588" lon="3.17614">
        <ele>394.4</ele>
        <time>2022-05-21 11:15:00</time>
      </trkpt>
      <trkpt lat="42.32586" lon="3.17614">
        <ele>394.6</ele>
        <time>2022-05-21 11:15:01</time>
      </trkpt>
      <trkpt lat="42.32585" lon="3.17615">
        <ele>394.8</ele>
        <time>2022-05-21 11:15:02</time>
      </trkpt>
      <trkpt lat="42.32583" lon="3.17616">
        <ele>395</ele>
        <time>2022-05-21 11:15:03</time>
      </trkpt>
      <trkpt lat="42.32582" lon="3.17616">
        <ele>395.2</ele>
        <time>2022-05-21 11:15:04</time>
      </trkpt>
      <trkpt lat="42.3258" lon="3.17616">
        <ele>395.4</ele>
        <time>2022-05-21 11:15:05</time>
      </trkpt>
      <trkpt lat="42.32578" lon="3.17616">
        <ele>395.6</ele>
        <time>2022-05-21 11:15:06</time>
      </trkpt>
      <trkpt lat="42.32576" lon="3.17616">
        <ele>395.8</ele>
        <time>2022-05-21 11:15:07</time>
      </trkpt>
      <trkpt lat="42.32575" lon="3.17617">
        <ele>396</ele>
        <time>2022-05-21 11:15:08</time>
      </trkpt>
      <trkpt lat="42.32573" lon="3.17617">
        <ele>396.2</ele>
        <time>2022-05-21 11:15:09</time>
      </trkpt>
      <trkpt lat="42.32571" lon="3.17617">
        <ele>396.4</ele>
        <time>2022-05-21 11:15:10</time>
      </trkpt>
      <trkpt lat="42.32569" lon="3.17617">
        <ele>396.6</ele>
        <time>2022-05-21 11:15:11</time>
      </trkpt>
      <trkpt lat="42.32567" lon="3.17617">
        <ele>397</ele>
        <time>2022-05-21 11:15:12</time>
      </trkpt>
      <trkpt lat="42.32565" lon="3.17617">
        <ele>397.2</ele>
        <time>2022-05-21 11:15:13</time>
      </trkpt>
      <trkpt lat="42.32563" lon="3.17617">
        <ele>397.4</ele>
        <time>2022-05-21 11:15:14</time>
      </trkpt>
      <trkpt lat="42.32562" lon="3.17617">
        <ele>397.6</ele>
        <time>2022-05-21 11:15:15</time>
      </trkpt>
      <trkpt lat="42.3256" lon="3.17617">
        <ele>397.8</ele>
        <time>2022-05-21 11:15:16</time>
      </trkpt>
      <trkpt lat="42.32558" lon="3.17617">
        <ele>398</ele>
        <time>2022-05-21 11:15:17</time>
      </trkpt>
      <trkpt lat="42.32556" lon="3.17616">
        <ele>398.2</ele>
        <time>2022-05-21 11:15:18</time>
      </trkpt>
      <trkpt lat="42.32554" lon="3.17616">
        <ele>398.4</ele>
        <time>2022-05-21 11:15:19</time>
      </trkpt>
      <trkpt lat="42.32553" lon="3.17616">
        <ele>398.6</ele>
        <time>2022-05-21 11:15:20</time>
      </trkpt>
      <trkpt lat="42.32551" lon="3.17616">
        <ele>398.8</ele>
        <time>2022-05-21 11:15:21</time>
      </trkpt>
      <trkpt lat="42.3255" lon="3.17616">
        <ele>399</ele>
        <time>2022-05-21 11:15:22</time>
      </trkpt>
      <trkpt lat="42.32548" lon="3.17615">
        <ele>399.2</ele>
        <time>2022-05-21 11:15:23</time>
      </trkpt>
      <trkpt lat="42.32546" lon="3.17615">
        <ele>399.6</ele>
        <time>2022-05-21 11:15:24</time>
      </trkpt>
      <trkpt lat="42.32544" lon="3.17614">
        <ele>399.8</ele>
        <time>2022-05-21 11:15:25</time>
      </trkpt>
      <trkpt lat="42.32543" lon="3.17613">
        <ele>400</ele>
        <time>2022-05-21 11:15:26</time>
      </trkpt>
      <trkpt lat="42.32542" lon="3.17611">
        <ele>400.2</ele>
        <time>2022-05-21 11:15:27</time>
      </trkpt>
      <trkpt lat="42.32541" lon="3.17609">
        <ele>400.4</ele>
        <time>2022-05-21 11:15:28</time>
      </trkpt>
      <trkpt lat="42.3254" lon="3.17606">
        <ele>400.6</ele>
        <time>2022-05-21 11:15:29</time>
      </trkpt>
      <trkpt lat="42.32539" lon="3.17603">
        <ele>400.8</ele>
        <time>2022-05-21 11:15:30</time>
      </trkpt>
      <trkpt lat="42.32539" lon="3.17601">
        <ele>401</ele>
        <time>2022-05-21 11:15:31</time>
      </trkpt>
      <trkpt lat="42.32539" lon="3.17598">
        <ele>401.2</ele>
        <time>2022-05-21 11:15:32</time>
      </trkpt>
      <trkpt lat="42.32539" lon="3.17596">
        <ele>401.4</ele>
        <time>2022-05-21 11:15:33</time>
      </trkpt>
      <trkpt lat="42.3254" lon="3.17593">
        <ele>401.6</ele>
        <time>2022-05-21 11:15:34</time>
      </trkpt>
      <trkpt lat="42.32541" lon="3.17591">
        <ele>401.8</ele>
        <time>2022-05-21 11:15:35</time>
      </trkpt>
      <trkpt lat="42.32542" lon="3.17589">
        <ele>402</ele>
        <time>2022-05-21 11:15:36</time>
      </trkpt>
      <trkpt lat="42.32543" lon="3.17587">
        <ele>402</ele>
        <time>2022-05-21 11:15:37</time>
      </trkpt>
      <trkpt lat="42.32545" lon="3.17584">
        <ele>402.2</ele>
        <time>2022-05-21 11:15:38</time>
      </trkpt>
      <trkpt lat="42.32546" lon="3.17582">
        <ele>402.4</ele>
        <time>2022-05-21 11:15:39</time>
      </trkpt>
      <trkpt lat="42.32548" lon="3.17579">
        <ele>402.4</ele>
        <time>2022-05-21 11:15:40</time>
      </trkpt>
      <trkpt lat="42.32549" lon="3.17577">
        <ele>402.4</ele>
        <time>2022-05-21 11:15:41</time>
      </trkpt>
      <trkpt lat="42.3255" lon="3.17574">
        <ele>402.6</ele>
        <time>2022-05-21 11:15:42</time>
      </trkpt>
      <trkpt lat="42.32552" lon="3.17572">
        <ele>402.6</ele>
        <time>2022-05-21 11:15:43</time>
      </trkpt>
      <trkpt lat="42.32553" lon="3.17569">
        <ele>402.8</ele>
        <time>2022-05-21 11:15:44</time>
      </trkpt>
      <trkpt lat="42.32554" lon="3.17567">
        <ele>402.8</ele>
        <time>2022-05-21 11:15:45</time>
      </trkpt>
      <trkpt lat="42.32555" lon="3.17564">
        <ele>403</ele>
        <time>2022-05-21 11:15:46</time>
      </trkpt>
      <trkpt lat="42.32556" lon="3.17562">
        <ele>403</ele>
        <time>2022-05-21 11:15:47</time>
      </trkpt>
      <trkpt lat="42.32557" lon="3.17558">
        <ele>403</ele>
        <time>2022-05-21 11:15:48</time>
      </trkpt>
      <trkpt lat="42.32558" lon="3.17555">
        <ele>403.2</ele>
        <time>2022-05-21 11:15:49</time>
      </trkpt>
      <trkpt lat="42.32559" lon="3.17552">
        <ele>403.2</ele>
        <time>2022-05-21 11:15:50</time>
      </trkpt>
      <trkpt lat="42.3256" lon="3.1755">
        <ele>403.4</ele>
        <time>2022-05-21 11:15:51</time>
      </trkpt>
      <trkpt lat="42.32561" lon="3.17546">
        <ele>403.4</ele>
        <time>2022-05-21 11:15:52</time>
      </trkpt>
      <trkpt lat="42.32561" lon="3.17543">
        <ele>403.6</ele>
        <time>2022-05-21 11:15:53</time>
      </trkpt>
      <trkpt lat="42.32561" lon="3.17541">
        <ele>403.6</ele>
        <time>2022-05-21 11:15:54</time>
      </trkpt>
      <trkpt lat="42.32561" lon="3.17538">
        <ele>403.6</ele>
        <time>2022-05-21 11:15:55</time>
      </trkpt>
      <trkpt lat="42.32562" lon="3.17536">
        <ele>403.8</ele>
        <time>2022-05-21 11:15:56</time>
      </trkpt>
      <trkpt lat="42.32562" lon="3.17533">
        <ele>403.8</ele>
        <time>2022-05-21 11:15:57</time>
      </trkpt>
      <trkpt lat="42.32561" lon="3.1753">
        <ele>404</ele>
        <time>2022-05-21 11:15:58</time>
      </trkpt>
      <trkpt lat="42.3256" lon="3.17527">
        <ele>404.2</ele>
        <time>2022-05-21 11:15:59</time>
      </trkpt>
      <trkpt lat="42.3256" lon="3.17525">
        <ele>404.2</ele>
        <time>2022-05-21 11:16:00</time>
      </trkpt>
      <trkpt lat="42.32559" lon="3.17523">
        <ele>404.4</ele>
        <time>2022-05-21 11:16:01</time>
      </trkpt>
      <trkpt lat="42.32559" lon="3.17519">
        <ele>404.6</ele>
        <time>2022-05-21 11:16:02</time>
      </trkpt>
      <trkpt lat="42.32558" lon="3.17517">
        <ele>404.8</ele>
        <time>2022-05-21 11:16:03</time>
      </trkpt>
      <trkpt lat="42.32557" lon="3.17515">
        <ele>405</ele>
        <time>2022-05-21 11:16:04</time>
      </trkpt>
      <trkpt lat="42.32556" lon="3.17513">
        <ele>405.2</ele>
        <time>2022-05-21 11:16:05</time>
      </trkpt>
      <trkpt lat="42.32555" lon="3.17511">
        <ele>405.4</ele>
        <time>2022-05-21 11:16:06</time>
      </trkpt>
      <trkpt lat="42.32554" lon="3.17508">
        <ele>405.6</ele>
        <time>2022-05-21 11:16:07</time>
      </trkpt>
      <trkpt lat="42.32553" lon="3.17506">
        <ele>405.8</ele>
        <time>2022-05-21 11:16:08</time>
      </trkpt>
      <trkpt lat="42.32553" lon="3.17504">
        <ele>406</ele>
        <time>2022-05-21 11:16:09</time>
      </trkpt>
      <trkpt lat="42.32552" lon="3.17502">
        <ele>406.2</ele>
        <time>2022-05-21 11:16:10</time>
      </trkpt>
      <trkpt lat="42.32552" lon="3.175">
        <ele>406.4</ele>
        <time>2022-05-21 11:16:11</time>
      </trkpt>
      <trkpt lat="42.32551" lon="3.17497">
        <ele>406.6</ele>
        <time>2022-05-21 11:16:12</time>
      </trkpt>
      <trkpt lat="42.3255" lon="3.17494">
        <ele>407</ele>
        <time>2022-05-21 11:16:13</time>
      </trkpt>
      <trkpt lat="42.32549" lon="3.17492">
        <ele>407.2</ele>
        <time>2022-05-21 11:16:14</time>
      </trkpt>
      <trkpt lat="42.32549" lon="3.1749">
        <ele>407.4</ele>
        <time>2022-05-21 11:16:15</time>
      </trkpt>
      <trkpt lat="42.32548" lon="3.17488">
        <ele>407.8</ele>
        <time>2022-05-21 11:16:16</time>
      </trkpt>
      <trkpt lat="42.32548" lon="3.17486">
        <ele>408</ele>
        <time>2022-05-21 11:16:17</time>
      </trkpt>
      <trkpt lat="42.32547" lon="3.17484">
        <ele>408.4</ele>
        <time>2022-05-21 11:16:18</time>
      </trkpt>
      <trkpt lat="42.32547" lon="3.17482">
        <ele>408.6</ele>
        <time>2022-05-21 11:16:19</time>
      </trkpt>
      <trkpt lat="42.32547" lon="3.1748">
        <ele>408.8</ele>
        <time>2022-05-21 11:16:20</time>
      </trkpt>
      <trkpt lat="42.32547" lon="3.17478">
        <ele>409.2</ele>
        <time>2022-05-21 11:16:21</time>
      </trkpt>
      <trkpt lat="42.32547" lon="3.17476">
        <ele>409.6</ele>
        <time>2022-05-21 11:16:22</time>
      </trkpt>
      <trkpt lat="42.32546" lon="3.17473">
        <ele>409.8</ele>
        <time>2022-05-21 11:16:23</time>
      </trkpt>
      <trkpt lat="42.32546" lon="3.17471">
        <ele>410.2</ele>
        <time>2022-05-21 11:16:24</time>
      </trkpt>
      <trkpt lat="42.32546" lon="3.17469">
        <ele>410.4</ele>
        <time>2022-05-21 11:16:25</time>
      </trkpt>
      <trkpt lat="42.32547" lon="3.17467">
        <ele>410.8</ele>
        <time>2022-05-21 11:16:26</time>
      </trkpt>
      <trkpt lat="42.32547" lon="3.17465">
        <ele>411</ele>
        <time>2022-05-21 11:16:27</time>
      </trkpt>
      <trkpt lat="42.32547" lon="3.17464">
        <ele>411.4</ele>
        <time>2022-05-21 11:16:28</time>
      </trkpt>
      <trkpt lat="42.32548" lon="3.17462">
        <ele>411.6</ele>
        <time>2022-05-21 11:16:29</time>
      </trkpt>
      <trkpt lat="42.32549" lon="3.1746">
        <ele>412</ele>
        <time>2022-05-21 11:16:30</time>
      </trkpt>
      <trkpt lat="42.32549" lon="3.17458">
        <ele>412.2</ele>
        <time>2022-05-21 11:16:31</time>
      </trkpt>
      <trkpt lat="42.3255" lon="3.17456">
        <ele>412.4</ele>
        <time>2022-05-21 11:16:32</time>
      </trkpt>
      <trkpt lat="42.32551" lon="3.17455">
        <ele>412.6</ele>
        <time>2022-05-21 11:16:33</time>
      </trkpt>
      <trkpt lat="42.32551" lon="3.17453">
        <ele>412.8</ele>
        <time>2022-05-21 11:16:34</time>
      </trkpt>
      <trkpt lat="42.32552" lon="3.17451">
        <ele>413</ele>
        <time>2022-05-21 11:16:35</time>
      </trkpt>
      <trkpt lat="42.32553" lon="3.17449">
        <ele>413.2</ele>
        <time>2022-05-21 11:16:36</time>
      </trkpt>
      <trkpt lat="42.32554" lon="3.17447">
        <ele>413.6</ele>
        <time>2022-05-21 11:16:37</time>
      </trkpt>
      <trkpt lat="42.32555" lon="3.17445">
        <ele>413.8</ele>
        <time>2022-05-21 11:16:38</time>
      </trkpt>
      <trkpt lat="42.32555" lon="3.17443">
        <ele>414</ele>
        <time>2022-05-21 11:16:39</time>
      </trkpt>
      <trkpt lat="42.32556" lon="3.17442">
        <ele>414.2</ele>
        <time>2022-05-21 11:16:40</time>
      </trkpt>
      <trkpt lat="42.32557" lon="3.17441">
        <ele>414.4</ele>
        <time>2022-05-21 11:16:41</time>
      </trkpt>
      <trkpt lat="42.32558" lon="3.17438">
        <ele>414.6</ele>
        <time>2022-05-21 11:16:42</time>
      </trkpt>
      <trkpt lat="42.32559" lon="3.17436">
        <ele>414.8</ele>
        <time>2022-05-21 11:16:43</time>
      </trkpt>
      <trkpt lat="42.3256" lon="3.17434">
        <ele>415</ele>
        <time>2022-05-21 11:16:44</time>
      </trkpt>
      <trkpt lat="42.32561" lon="3.17433">
        <ele>415.2</ele>
        <time>2022-05-21 11:16:45</time>
      </trkpt>
      <trkpt lat="42.32562" lon="3.17431">
        <ele>415.2</ele>
        <time>2022-05-21 11:16:46</time>
      </trkpt>
      <trkpt lat="42.32563" lon="3.1743">
        <ele>415.4</ele>
        <time>2022-05-21 11:16:47</time>
      </trkpt>
      <trkpt lat="42.32565" lon="3.17428">
        <ele>415.6</ele>
        <time>2022-05-21 11:16:48</time>
      </trkpt>
      <trkpt lat="42.32567" lon="3.17427">
        <ele>415.8</ele>
        <time>2022-05-21 11:16:49</time>
      </trkpt>
      <trkpt lat="42.32569" lon="3.17427">
        <ele>415.8</ele>
        <time>2022-05-21 11:16:50</time>
      </trkpt>
      <trkpt lat="42.32571" lon="3.17426">
        <ele>416</ele>
        <time>2022-05-21 11:16:51</time>
      </trkpt>
      <trkpt lat="42.32573" lon="3.17425">
        <ele>416.2</ele>
        <time>2022-05-21 11:16:52</time>
      </trkpt>
      <trkpt lat="42.32575" lon="3.17425">
        <ele>416.2</ele>
        <time>2022-05-21 11:16:53</time>
      </trkpt>
      <trkpt lat="42.32577" lon="3.17424">
        <ele>416.4</ele>
        <time>2022-05-21 11:16:54</time>
      </trkpt>
      <trkpt lat="42.32579" lon="3.17424">
        <ele>416.4</ele>
        <time>2022-05-21 11:16:55</time>
      </trkpt>
      <trkpt lat="42.32581" lon="3.17424">
        <ele>416.6</ele>
        <time>2022-05-21 11:16:56</time>
      </trkpt>
      <trkpt lat="42.32583" lon="3.17424">
        <ele>416.8</ele>
        <time>2022-05-21 11:16:57</time>
      </trkpt>
      <trkpt lat="42.32585" lon="3.17424">
        <ele>416.8</ele>
        <time>2022-05-21 11:16:58</time>
      </trkpt>
      <trkpt lat="42.32587" lon="3.17423">
        <ele>417</ele>
        <time>2022-05-21 11:16:59</time>
      </trkpt>
      <trkpt lat="42.32588" lon="3.17423">
        <ele>417.2</ele>
        <time>2022-05-21 11:17:00</time>
      </trkpt>
      <trkpt lat="42.3259" lon="3.17423">
        <ele>417.2</ele>
        <time>2022-05-21 11:17:01</time>
      </trkpt>
      <trkpt lat="42.32592" lon="3.17423">
        <ele>417.4</ele>
        <time>2022-05-21 11:17:02</time>
      </trkpt>
      <trkpt lat="42.32594" lon="3.17423">
        <ele>417.6</ele>
        <time>2022-05-21 11:17:03</time>
      </trkpt>
      <trkpt lat="42.32596" lon="3.17423">
        <ele>417.6</ele>
        <time>2022-05-21 11:17:04</time>
      </trkpt>
      <trkpt lat="42.32598" lon="3.17423">
        <ele>417.8</ele>
        <time>2022-05-21 11:17:05</time>
      </trkpt>
      <trkpt lat="42.326" lon="3.17422">
        <ele>418</ele>
        <time>2022-05-21 11:17:06</time>
      </trkpt>
      <trkpt lat="42.32601" lon="3.17422">
        <ele>418.2</ele>
        <time>2022-05-21 11:17:07</time>
      </trkpt>
      <trkpt lat="42.32603" lon="3.17421">
        <ele>418.2</ele>
        <time>2022-05-21 11:17:08</time>
      </trkpt>
      <trkpt lat="42.32605" lon="3.1742">
        <ele>418.4</ele>
        <time>2022-05-21 11:17:09</time>
      </trkpt>
      <trkpt lat="42.32607" lon="3.17419">
        <ele>418.6</ele>
        <time>2022-05-21 11:17:10</time>
      </trkpt>
      <trkpt lat="42.32608" lon="3.17418">
        <ele>418.8</ele>
        <time>2022-05-21 11:17:11</time>
      </trkpt>
      <trkpt lat="42.3261" lon="3.17417">
        <ele>418.8</ele>
        <time>2022-05-21 11:17:12</time>
      </trkpt>
      <trkpt lat="42.32611" lon="3.17415">
        <ele>419</ele>
        <time>2022-05-21 11:17:13</time>
      </trkpt>
      <trkpt lat="42.32613" lon="3.17414">
        <ele>419.2</ele>
        <time>2022-05-21 11:17:14</time>
      </trkpt>
      <trkpt lat="42.32614" lon="3.17412">
        <ele>419.4</ele>
        <time>2022-05-21 11:17:15</time>
      </trkpt>
      <trkpt lat="42.32615" lon="3.1741">
        <ele>419.4</ele>
        <time>2022-05-21 11:17:16</time>
      </trkpt>
      <trkpt lat="42.32616" lon="3.17408">
        <ele>419.6</ele>
        <time>2022-05-21 11:17:17</time>
      </trkpt>
      <trkpt lat="42.32617" lon="3.17406">
        <ele>419.8</ele>
        <time>2022-05-21 11:17:18</time>
      </trkpt>
      <trkpt lat="42.32618" lon="3.17404">
        <ele>419.8</ele>
        <time>2022-05-21 11:17:19</time>
      </trkpt>
      <trkpt lat="42.32619" lon="3.17402">
        <ele>420</ele>
        <time>2022-05-21 11:17:20</time>
      </trkpt>
      <trkpt lat="42.3262" lon="3.17399">
        <ele>420.2</ele>
        <time>2022-05-21 11:17:21</time>
      </trkpt>
      <trkpt lat="42.32621" lon="3.17397">
        <ele>420.4</ele>
        <time>2022-05-21 11:17:22</time>
      </trkpt>
      <trkpt lat="42.32621" lon="3.17395">
        <ele>420.4</ele>
        <time>2022-05-21 11:17:23</time>
      </trkpt>
      <trkpt lat="42.32622" lon="3.17393">
        <ele>420.6</ele>
        <time>2022-05-21 11:17:24</time>
      </trkpt>
      <trkpt lat="42.32622" lon="3.1739">
        <ele>420.8</ele>
        <time>2022-05-21 11:17:25</time>
      </trkpt>
      <trkpt lat="42.32622" lon="3.17388">
        <ele>421</ele>
        <time>2022-05-21 11:17:26</time>
      </trkpt>
      <trkpt lat="42.32622" lon="3.17385">
        <ele>421.2</ele>
        <time>2022-05-21 11:17:27</time>
      </trkpt>
      <trkpt lat="42.32622" lon="3.17383">
        <ele>421.2</ele>
        <time>2022-05-21 11:17:28</time>
      </trkpt>
      <trkpt lat="42.32622" lon="3.1738">
        <ele>421.4</ele>
        <time>2022-05-21 11:17:29</time>
      </trkpt>
      <trkpt lat="42.32622" lon="3.17378">
        <ele>421.6</ele>
        <time>2022-05-21 11:17:30</time>
      </trkpt>
      <trkpt lat="42.32622" lon="3.17375">
        <ele>421.8</ele>
        <time>2022-05-21 11:17:31</time>
      </trkpt>
      <trkpt lat="42.32622" lon="3.17372">
        <ele>421.8</ele>
        <time>2022-05-21 11:17:32</time>
      </trkpt>
      <trkpt lat="42.32622" lon="3.1737">
        <ele>422</ele>
        <time>2022-05-21 11:17:33</time>
      </trkpt>
      <trkpt lat="42.32621" lon="3.17367">
        <ele>422.2</ele>
        <time>2022-05-21 11:17:34</time>
      </trkpt>
      <trkpt lat="42.32621" lon="3.17364">
        <ele>422.4</ele>
        <time>2022-05-21 11:17:35</time>
      </trkpt>
      <trkpt lat="42.32621" lon="3.17362">
        <ele>422.6</ele>
        <time>2022-05-21 11:17:36</time>
      </trkpt>
      <trkpt lat="42.3262" lon="3.17359">
        <ele>422.8</ele>
        <time>2022-05-21 11:17:37</time>
      </trkpt>
      <trkpt lat="42.3262" lon="3.17357">
        <ele>423</ele>
        <time>2022-05-21 11:17:38</time>
      </trkpt>
      <trkpt lat="42.3262" lon="3.17355">
        <ele>423.2</ele>
        <time>2022-05-21 11:17:39</time>
      </trkpt>
      <trkpt lat="42.32619" lon="3.17352">
        <ele>423.2</ele>
        <time>2022-05-21 11:17:40</time>
      </trkpt>
      <trkpt lat="42.32619" lon="3.1735">
        <ele>423.4</ele>
        <time>2022-05-21 11:17:41</time>
      </trkpt>
      <trkpt lat="42.32619" lon="3.17347">
        <ele>423.6</ele>
        <time>2022-05-21 11:17:42</time>
      </trkpt>
      <trkpt lat="42.32618" lon="3.17345">
        <ele>423.8</ele>
        <time>2022-05-21 11:17:43</time>
      </trkpt>
      <trkpt lat="42.32617" lon="3.17343">
        <ele>424</ele>
        <time>2022-05-21 11:17:44</time>
      </trkpt>
      <trkpt lat="42.32616" lon="3.17341">
        <ele>424.2</ele>
        <time>2022-05-21 11:17:45</time>
      </trkpt>
      <trkpt lat="42.32615" lon="3.17338">
        <ele>424.4</ele>
        <time>2022-05-21 11:17:46</time>
      </trkpt>
      <trkpt lat="42.32615" lon="3.17336">
        <ele>424.6</ele>
        <time>2022-05-21 11:17:47</time>
      </trkpt>
      <trkpt lat="42.32614" lon="3.17334">
        <ele>424.6</ele>
        <time>2022-05-21 11:17:48</time>
      </trkpt>
      <trkpt lat="42.32614" lon="3.17332">
        <ele>424.8</ele>
        <time>2022-05-21 11:17:49</time>
      </trkpt>
      <trkpt lat="42.32613" lon="3.1733">
        <ele>425</ele>
        <time>2022-05-21 11:17:50</time>
      </trkpt>
      <trkpt lat="42.32612" lon="3.17328">
        <ele>425.2</ele>
        <time>2022-05-21 11:17:51</time>
      </trkpt>
      <trkpt lat="42.32611" lon="3.17326">
        <ele>425.4</ele>
        <time>2022-05-21 11:17:52</time>
      </trkpt>
      <trkpt lat="42.32609" lon="3.17325">
        <ele>425.4</ele>
        <time>2022-05-21 11:17:53</time>
      </trkpt>
      <trkpt lat="42.32608" lon="3.17323">
        <ele>425.6</ele>
        <time>2022-05-21 11:17:54</time>
      </trkpt>
      <trkpt lat="42.32606" lon="3.17321">
        <ele>425.8</ele>
        <time>2022-05-21 11:17:55</time>
      </trkpt>
      <trkpt lat="42.32605" lon="3.1732">
        <ele>426</ele>
        <time>2022-05-21 11:17:56</time>
      </trkpt>
      <trkpt lat="42.32603" lon="3.17318">
        <ele>426.2</ele>
        <time>2022-05-21 11:17:57</time>
      </trkpt>
      <trkpt lat="42.32602" lon="3.17317">
        <ele>426.4</ele>
        <time>2022-05-21 11:17:58</time>
      </trkpt>
      <trkpt lat="42.326" lon="3.17315">
        <ele>426.6</ele>
        <time>2022-05-21 11:17:59</time>
      </trkpt>
      <trkpt lat="42.32599" lon="3.17313">
        <ele>426.6</ele>
        <time>2022-05-21 11:18:00</time>
      </trkpt>
      <trkpt lat="42.32597" lon="3.17312">
        <ele>426.8</ele>
        <time>2022-05-21 11:18:01</time>
      </trkpt>
      <trkpt lat="42.32595" lon="3.1731">
        <ele>426.8</ele>
        <time>2022-05-21 11:18:02</time>
      </trkpt>
      <trkpt lat="42.32594" lon="3.17309">
        <ele>427</ele>
        <time>2022-05-21 11:18:03</time>
      </trkpt>
      <trkpt lat="42.32593" lon="3.17307">
        <ele>427.2</ele>
        <time>2022-05-21 11:18:04</time>
      </trkpt>
      <trkpt lat="42.32591" lon="3.17305">
        <ele>427.2</ele>
        <time>2022-05-21 11:18:05</time>
      </trkpt>
      <trkpt lat="42.3259" lon="3.17303">
        <ele>427.4</ele>
        <time>2022-05-21 11:18:06</time>
      </trkpt>
      <trkpt lat="42.32589" lon="3.17301">
        <ele>427.6</ele>
        <time>2022-05-21 11:18:07</time>
      </trkpt>
      <trkpt lat="42.32588" lon="3.17299">
        <ele>427.8</ele>
        <time>2022-05-21 11:18:08</time>
      </trkpt>
      <trkpt lat="42.32587" lon="3.17297">
        <ele>428</ele>
        <time>2022-05-21 11:18:09</time>
      </trkpt>
      <trkpt lat="42.32586" lon="3.17295">
        <ele>428.2</ele>
        <time>2022-05-21 11:18:10</time>
      </trkpt>
      <trkpt lat="42.32585" lon="3.17292">
        <ele>428.4</ele>
        <time>2022-05-21 11:18:11</time>
      </trkpt>
      <trkpt lat="42.32584" lon="3.1729">
        <ele>428.4</ele>
        <time>2022-05-21 11:18:12</time>
      </trkpt>
      <trkpt lat="42.32584" lon="3.17288">
        <ele>428.6</ele>
        <time>2022-05-21 11:18:13</time>
      </trkpt>
      <trkpt lat="42.32583" lon="3.17286">
        <ele>428.8</ele>
        <time>2022-05-21 11:18:14</time>
      </trkpt>
      <trkpt lat="42.32583" lon="3.17284">
        <ele>429</ele>
        <time>2022-05-21 11:18:15</time>
      </trkpt>
      <trkpt lat="42.32582" lon="3.17282">
        <ele>429.2</ele>
        <time>2022-05-21 11:18:16</time>
      </trkpt>
      <trkpt lat="42.32582" lon="3.17279">
        <ele>429.4</ele>
        <time>2022-05-21 11:18:17</time>
      </trkpt>
      <trkpt lat="42.32581" lon="3.17277">
        <ele>429.6</ele>
        <time>2022-05-21 11:18:18</time>
      </trkpt>
      <trkpt lat="42.32581" lon="3.17275">
        <ele>430</ele>
        <time>2022-05-21 11:18:19</time>
      </trkpt>
      <trkpt lat="42.3258" lon="3.17273">
        <ele>430.2</ele>
        <time>2022-05-21 11:18:20</time>
      </trkpt>
      <trkpt lat="42.3258" lon="3.17271">
        <ele>430.4</ele>
        <time>2022-05-21 11:18:21</time>
      </trkpt>
      <trkpt lat="42.32579" lon="3.17269">
        <ele>430.6</ele>
        <time>2022-05-21 11:18:22</time>
      </trkpt>
      <trkpt lat="42.32579" lon="3.17266">
        <ele>431</ele>
        <time>2022-05-21 11:18:23</time>
      </trkpt>
      <trkpt lat="42.32579" lon="3.17264">
        <ele>431.2</ele>
        <time>2022-05-21 11:18:24</time>
      </trkpt>
      <trkpt lat="42.32579" lon="3.17262">
        <ele>431.4</ele>
        <time>2022-05-21 11:18:25</time>
      </trkpt>
      <trkpt lat="42.32578" lon="3.1726">
        <ele>431.8</ele>
        <time>2022-05-21 11:18:26</time>
      </trkpt>
      <trkpt lat="42.32578" lon="3.17257">
        <ele>432</ele>
        <time>2022-05-21 11:18:27</time>
      </trkpt>
      <trkpt lat="42.32577" lon="3.17255">
        <ele>432.2</ele>
        <time>2022-05-21 11:18:28</time>
      </trkpt>
      <trkpt lat="42.32575" lon="3.17254">
        <ele>432.6</ele>
        <time>2022-05-21 11:18:29</time>
      </trkpt>
      <trkpt lat="42.32574" lon="3.17252">
        <ele>432.8</ele>
        <time>2022-05-21 11:18:30</time>
      </trkpt>
      <trkpt lat="42.32573" lon="3.1725">
        <ele>433.2</ele>
        <time>2022-05-21 11:18:31</time>
      </trkpt>
      <trkpt lat="42.32571" lon="3.17248">
        <ele>433.4</ele>
        <time>2022-05-21 11:18:32</time>
      </trkpt>
      <trkpt lat="42.3257" lon="3.17247">
        <ele>433.6</ele>
        <time>2022-05-21 11:18:33</time>
      </trkpt>
      <trkpt lat="42.32568" lon="3.17245">
        <ele>434</ele>
        <time>2022-05-21 11:18:34</time>
      </trkpt>
      <trkpt lat="42.32567" lon="3.17244">
        <ele>434.2</ele>
        <time>2022-05-21 11:18:35</time>
      </trkpt>
      <trkpt lat="42.32565" lon="3.17244">
        <ele>434.4</ele>
        <time>2022-05-21 11:18:36</time>
      </trkpt>
      <trkpt lat="42.32563" lon="3.17243">
        <ele>434.6</ele>
        <time>2022-05-21 11:18:37</time>
      </trkpt>
      <trkpt lat="42.32561" lon="3.17243">
        <ele>435</ele>
        <time>2022-05-21 11:18:38</time>
      </trkpt>
      <trkpt lat="42.32559" lon="3.17244">
        <ele>435.2</ele>
        <time>2022-05-21 11:18:39</time>
      </trkpt>
      <trkpt lat="42.32558" lon="3.17245">
        <ele>435.4</ele>
        <time>2022-05-21 11:18:40</time>
      </trkpt>
      <trkpt lat="42.32556" lon="3.17246">
        <ele>435.6</ele>
        <time>2022-05-21 11:18:41</time>
      </trkpt>
      <trkpt lat="42.32555" lon="3.17247">
        <ele>436</ele>
        <time>2022-05-21 11:18:42</time>
      </trkpt>
      <trkpt lat="42.32554" lon="3.17248">
        <ele>436.2</ele>
        <time>2022-05-21 11:18:43</time>
      </trkpt>
      <trkpt lat="42.32552" lon="3.1725">
        <ele>436.2</ele>
        <time>2022-05-21 11:18:44</time>
      </trkpt>
      <trkpt lat="42.32551" lon="3.17251">
        <ele>436.4</ele>
        <time>2022-05-21 11:18:45</time>
      </trkpt>
      <trkpt lat="42.3255" lon="3.17253">
        <ele>436.6</ele>
        <time>2022-05-21 11:18:46</time>
      </trkpt>
      <trkpt lat="42.32549" lon="3.17255">
        <ele>436.8</ele>
        <time>2022-05-21 11:18:47</time>
      </trkpt>
      <trkpt lat="42.32548" lon="3.17257">
        <ele>437</ele>
        <time>2022-05-21 11:18:48</time>
      </trkpt>
      <trkpt lat="42.32547" lon="3.17258">
        <ele>437.2</ele>
        <time>2022-05-21 11:18:49</time>
      </trkpt>
      <trkpt lat="42.32546" lon="3.1726">
        <ele>437.2</ele>
        <time>2022-05-21 11:18:50</time>
      </trkpt>
      <trkpt lat="42.32545" lon="3.17262">
        <ele>437.6</ele>
        <time>2022-05-21 11:18:51</time>
      </trkpt>
      <trkpt lat="42.32544" lon="3.17264">
        <ele>437.8</ele>
        <time>2022-05-21 11:18:52</time>
      </trkpt>
      <trkpt lat="42.32542" lon="3.17266">
        <ele>438</ele>
        <time>2022-05-21 11:18:53</time>
      </trkpt>
      <trkpt lat="42.32541" lon="3.17268">
        <ele>438.2</ele>
        <time>2022-05-21 11:18:54</time>
      </trkpt>
      <trkpt lat="42.3254" lon="3.17269">
        <ele>438.2</ele>
        <time>2022-05-21 11:18:55</time>
      </trkpt>
      <trkpt lat="42.32538" lon="3.17271">
        <ele>438.4</ele>
        <time>2022-05-21 11:18:56</time>
      </trkpt>
      <trkpt lat="42.32537" lon="3.17273">
        <ele>438.6</ele>
        <time>2022-05-21 11:18:57</time>
      </trkpt>
      <trkpt lat="42.32536" lon="3.17275">
        <ele>438.8</ele>
        <time>2022-05-21 11:18:58</time>
      </trkpt>
      <trkpt lat="42.32535" lon="3.17277">
        <ele>438.8</ele>
        <time>2022-05-21 11:18:59</time>
      </trkpt>
      <trkpt lat="42.32533" lon="3.17279">
        <ele>439</ele>
        <time>2022-05-21 11:19:00</time>
      </trkpt>
      <trkpt lat="42.32532" lon="3.17281">
        <ele>439.2</ele>
        <time>2022-05-21 11:19:01</time>
      </trkpt>
      <trkpt lat="42.3253" lon="3.17283">
        <ele>439.4</ele>
        <time>2022-05-21 11:19:02</time>
      </trkpt>
      <trkpt lat="42.32529" lon="3.17284">
        <ele>439.6</ele>
        <time>2022-05-21 11:19:03</time>
      </trkpt>
      <trkpt lat="42.32527" lon="3.17285">
        <ele>439.8</ele>
        <time>2022-05-21 11:19:04</time>
      </trkpt>
      <trkpt lat="42.32525" lon="3.17286">
        <ele>440</ele>
        <time>2022-05-21 11:19:05</time>
      </trkpt>
      <trkpt lat="42.32523" lon="3.17287">
        <ele>440</ele>
        <time>2022-05-21 11:19:06</time>
      </trkpt>
      <trkpt lat="42.32521" lon="3.17289">
        <ele>440.2</ele>
        <time>2022-05-21 11:19:07</time>
      </trkpt>
      <trkpt lat="42.32519" lon="3.1729">
        <ele>440.2</ele>
        <time>2022-05-21 11:19:08</time>
      </trkpt>
      <trkpt lat="42.32517" lon="3.17291">
        <ele>440.4</ele>
        <time>2022-05-21 11:19:09</time>
      </trkpt>
      <trkpt lat="42.32516" lon="3.17292">
        <ele>440.6</ele>
        <time>2022-05-21 11:19:10</time>
      </trkpt>
      <trkpt lat="42.32514" lon="3.17293">
        <ele>440.6</ele>
        <time>2022-05-21 11:19:11</time>
      </trkpt>
      <trkpt lat="42.32512" lon="3.17294">
        <ele>440.8</ele>
        <time>2022-05-21 11:19:12</time>
      </trkpt>
      <trkpt lat="42.32509" lon="3.17294">
        <ele>441</ele>
        <time>2022-05-21 11:19:13</time>
      </trkpt>
      <trkpt lat="42.32507" lon="3.17295">
        <ele>441.2</ele>
        <time>2022-05-21 11:19:14</time>
      </trkpt>
      <trkpt lat="42.32505" lon="3.17295">
        <ele>441.2</ele>
        <time>2022-05-21 11:19:15</time>
      </trkpt>
      <trkpt lat="42.32503" lon="3.17295">
        <ele>441.4</ele>
        <time>2022-05-21 11:19:16</time>
      </trkpt>
      <trkpt lat="42.32501" lon="3.17296">
        <ele>441.6</ele>
        <time>2022-05-21 11:19:17</time>
      </trkpt>
      <trkpt lat="42.32498" lon="3.17296">
        <ele>441.8</ele>
        <time>2022-05-21 11:19:18</time>
      </trkpt>
      <trkpt lat="42.32497" lon="3.17297">
        <ele>441.8</ele>
        <time>2022-05-21 11:19:19</time>
      </trkpt>
      <trkpt lat="42.32495" lon="3.17298">
        <ele>442</ele>
        <time>2022-05-21 11:19:20</time>
      </trkpt>
      <trkpt lat="42.32493" lon="3.17299">
        <ele>442</ele>
        <time>2022-05-21 11:19:21</time>
      </trkpt>
      <trkpt lat="42.32491" lon="3.173">
        <ele>442.2</ele>
        <time>2022-05-21 11:19:22</time>
      </trkpt>
      <trkpt lat="42.32489" lon="3.17302">
        <ele>442.4</ele>
        <time>2022-05-21 11:19:23</time>
      </trkpt>
      <trkpt lat="42.32487" lon="3.17303">
        <ele>442.4</ele>
        <time>2022-05-21 11:19:24</time>
      </trkpt>
      <trkpt lat="42.32485" lon="3.17304">
        <ele>442.6</ele>
        <time>2022-05-21 11:19:25</time>
      </trkpt>
      <trkpt lat="42.32483" lon="3.17305">
        <ele>442.8</ele>
        <time>2022-05-21 11:19:26</time>
      </trkpt>
      <trkpt lat="42.32481" lon="3.17305">
        <ele>443</ele>
        <time>2022-05-21 11:19:27</time>
      </trkpt>
      <trkpt lat="42.32479" lon="3.17306">
        <ele>443</ele>
        <time>2022-05-21 11:19:28</time>
      </trkpt>
      <trkpt lat="42.32477" lon="3.17307">
        <ele>443.2</ele>
        <time>2022-05-21 11:19:29</time>
      </trkpt>
      <trkpt lat="42.32475" lon="3.17308">
        <ele>443.4</ele>
        <time>2022-05-21 11:19:30</time>
      </trkpt>
      <trkpt lat="42.32473" lon="3.17309">
        <ele>443.6</ele>
        <time>2022-05-21 11:19:31</time>
      </trkpt>
      <trkpt lat="42.32471" lon="3.17309">
        <ele>443.8</ele>
        <time>2022-05-21 11:19:32</time>
      </trkpt>
      <trkpt lat="42.32469" lon="3.1731">
        <ele>443.8</ele>
        <time>2022-05-21 11:19:33</time>
      </trkpt>
      <trkpt lat="42.32467" lon="3.17309">
        <ele>444</ele>
        <time>2022-05-21 11:19:34</time>
      </trkpt>
      <trkpt lat="42.32464" lon="3.17309">
        <ele>444.2</ele>
        <time>2022-05-21 11:19:35</time>
      </trkpt>
      <trkpt lat="42.32462" lon="3.17308">
        <ele>444.2</ele>
        <time>2022-05-21 11:19:36</time>
      </trkpt>
      <trkpt lat="42.32459" lon="3.17308">
        <ele>444.6</ele>
        <time>2022-05-21 11:19:37</time>
      </trkpt>
      <trkpt lat="42.32458" lon="3.17308">
        <ele>444.6</ele>
        <time>2022-05-21 11:19:38</time>
      </trkpt>
      <trkpt lat="42.32456" lon="3.17309">
        <ele>444.8</ele>
        <time>2022-05-21 11:19:39</time>
      </trkpt>
      <trkpt lat="42.32453" lon="3.17309">
        <ele>445</ele>
        <time>2022-05-21 11:19:40</time>
      </trkpt>
      <trkpt lat="42.32451" lon="3.17308">
        <ele>445.2</ele>
        <time>2022-05-21 11:19:41</time>
      </trkpt>
      <trkpt lat="42.32449" lon="3.17308">
        <ele>445.4</ele>
        <time>2022-05-21 11:19:42</time>
      </trkpt>
      <trkpt lat="42.32447" lon="3.17308">
        <ele>445.6</ele>
        <time>2022-05-21 11:19:43</time>
      </trkpt>
      <trkpt lat="42.32445" lon="3.17307">
        <ele>445.8</ele>
        <time>2022-05-21 11:19:44</time>
      </trkpt>
      <trkpt lat="42.32443" lon="3.17306">
        <ele>446</ele>
        <time>2022-05-21 11:19:45</time>
      </trkpt>
      <trkpt lat="42.32441" lon="3.17306">
        <ele>446</ele>
        <time>2022-05-21 11:19:46</time>
      </trkpt>
      <trkpt lat="42.32439" lon="3.17305">
        <ele>446.4</ele>
        <time>2022-05-21 11:19:47</time>
      </trkpt>
      <trkpt lat="42.32437" lon="3.17304">
        <ele>446.6</ele>
        <time>2022-05-21 11:19:48</time>
      </trkpt>
      <trkpt lat="42.32435" lon="3.17303">
        <ele>447</ele>
        <time>2022-05-21 11:19:49</time>
      </trkpt>
      <trkpt lat="42.32433" lon="3.17302">
        <ele>447</ele>
        <time>2022-05-21 11:19:50</time>
      </trkpt>
      <trkpt lat="42.32431" lon="3.17301">
        <ele>447.4</ele>
        <time>2022-05-21 11:19:51</time>
      </trkpt>
      <trkpt lat="42.32429" lon="3.173">
        <ele>447.6</ele>
        <time>2022-05-21 11:19:52</time>
      </trkpt>
      <trkpt lat="42.32428" lon="3.17299">
        <ele>447.6</ele>
        <time>2022-05-21 11:19:53</time>
      </trkpt>
      <trkpt lat="42.32426" lon="3.17297">
        <ele>447.8</ele>
        <time>2022-05-21 11:19:54</time>
      </trkpt>
      <trkpt lat="42.32425" lon="3.17296">
        <ele>448</ele>
        <time>2022-05-21 11:19:55</time>
      </trkpt>
      <trkpt lat="42.32423" lon="3.17294">
        <ele>448.2</ele>
        <time>2022-05-21 11:19:56</time>
      </trkpt>
      <trkpt lat="42.32422" lon="3.17292">
        <ele>448.4</ele>
        <time>2022-05-21 11:19:57</time>
      </trkpt>
      <trkpt lat="42.32421" lon="3.1729">
        <ele>448.6</ele>
        <time>2022-05-21 11:19:58</time>
      </trkpt>
      <trkpt lat="42.3242" lon="3.17287">
        <ele>448.8</ele>
        <time>2022-05-21 11:19:59</time>
      </trkpt>
      <trkpt lat="42.32419" lon="3.17285">
        <ele>449</ele>
        <time>2022-05-21 11:20:00</time>
      </trkpt>
      <trkpt lat="42.32419" lon="3.17282">
        <ele>449.2</ele>
        <time>2022-05-21 11:20:01</time>
      </trkpt>
      <trkpt lat="42.32419" lon="3.1728">
        <ele>449.4</ele>
        <time>2022-05-21 11:20:02</time>
      </trkpt>
      <trkpt lat="42.3242" lon="3.17277">
        <ele>449.6</ele>
        <time>2022-05-21 11:20:03</time>
      </trkpt>
      <trkpt lat="42.32422" lon="3.17275">
        <ele>449.8</ele>
        <time>2022-05-21 11:20:04</time>
      </trkpt>
      <trkpt lat="42.32425" lon="3.17275">
        <ele>450</ele>
        <time>2022-05-21 11:20:05</time>
      </trkpt>
      <trkpt lat="42.32427" lon="3.17273">
        <ele>450.2</ele>
        <time>2022-05-21 11:20:06</time>
      </trkpt>
      <trkpt lat="42.32427" lon="3.17271">
        <ele>450.4</ele>
        <time>2022-05-21 11:20:07</time>
      </trkpt>
      <trkpt lat="42.32429" lon="3.17268">
        <ele>450.6</ele>
        <time>2022-05-21 11:20:08</time>
      </trkpt>
      <trkpt lat="42.3243" lon="3.17266">
        <ele>450.8</ele>
        <time>2022-05-21 11:20:09</time>
      </trkpt>
      <trkpt lat="42.32432" lon="3.17265">
        <ele>451</ele>
        <time>2022-05-21 11:20:10</time>
      </trkpt>
      <trkpt lat="42.32434" lon="3.17264">
        <ele>451.2</ele>
        <time>2022-05-21 11:20:11</time>
      </trkpt>
      <trkpt lat="42.32436" lon="3.17263">
        <ele>451.4</ele>
        <time>2022-05-21 11:20:12</time>
      </trkpt>
      <trkpt lat="42.32439" lon="3.17262">
        <ele>451.6</ele>
        <time>2022-05-21 11:20:13</time>
      </trkpt>
      <trkpt lat="42.32441" lon="3.17261">
        <ele>451.8</ele>
        <time>2022-05-21 11:20:14</time>
      </trkpt>
      <trkpt lat="42.32443" lon="3.1726">
        <ele>452</ele>
        <time>2022-05-21 11:20:15</time>
      </trkpt>
      <trkpt lat="42.32445" lon="3.17259">
        <ele>452.2</ele>
        <time>2022-05-21 11:20:16</time>
      </trkpt>
      <trkpt lat="42.32447" lon="3.17257">
        <ele>452.2</ele>
        <time>2022-05-21 11:20:17</time>
      </trkpt>
      <trkpt lat="42.32449" lon="3.17256">
        <ele>452.4</ele>
        <time>2022-05-21 11:20:18</time>
      </trkpt>
      <trkpt lat="42.32451" lon="3.17254">
        <ele>452.6</ele>
        <time>2022-05-21 11:20:19</time>
      </trkpt>
      <trkpt lat="42.32453" lon="3.17253">
        <ele>452.8</ele>
        <time>2022-05-21 11:20:20</time>
      </trkpt>
      <trkpt lat="42.32455" lon="3.17252">
        <ele>453</ele>
        <time>2022-05-21 11:20:21</time>
      </trkpt>
      <trkpt lat="42.32457" lon="3.1725">
        <ele>453.2</ele>
        <time>2022-05-21 11:20:22</time>
      </trkpt>
      <trkpt lat="42.32459" lon="3.17249">
        <ele>453.4</ele>
        <time>2022-05-21 11:20:23</time>
      </trkpt>
      <trkpt lat="42.32461" lon="3.17247">
        <ele>453.4</ele>
        <time>2022-05-21 11:20:24</time>
      </trkpt>
      <trkpt lat="42.32462" lon="3.17246">
        <ele>453.6</ele>
        <time>2022-05-21 11:20:25</time>
      </trkpt>
      <trkpt lat="42.32464" lon="3.17244">
        <ele>453.8</ele>
        <time>2022-05-21 11:20:26</time>
      </trkpt>
      <trkpt lat="42.32466" lon="3.17242">
        <ele>453.8</ele>
        <time>2022-05-21 11:20:27</time>
      </trkpt>
      <trkpt lat="42.32467" lon="3.1724">
        <ele>453.8</ele>
        <time>2022-05-21 11:20:28</time>
      </trkpt>
      <trkpt lat="42.32468" lon="3.17238">
        <ele>454</ele>
        <time>2022-05-21 11:20:29</time>
      </trkpt>
      <trkpt lat="42.3247" lon="3.17235">
        <ele>454</ele>
        <time>2022-05-21 11:20:30</time>
      </trkpt>
      <trkpt lat="42.32471" lon="3.17233">
        <ele>454.2</ele>
        <time>2022-05-21 11:20:31</time>
      </trkpt>
      <trkpt lat="42.32472" lon="3.1723">
        <ele>454.4</ele>
        <time>2022-05-21 11:20:32</time>
      </trkpt>
      <trkpt lat="42.32473" lon="3.17228">
        <ele>454.4</ele>
        <time>2022-05-21 11:20:33</time>
      </trkpt>
      <trkpt lat="42.32475" lon="3.17225">
        <ele>454.6</ele>
        <time>2022-05-21 11:20:34</time>
      </trkpt>
      <trkpt lat="42.32476" lon="3.17223">
        <ele>454.8</ele>
        <time>2022-05-21 11:20:35</time>
      </trkpt>
      <trkpt lat="42.32477" lon="3.1722">
        <ele>454.8</ele>
        <time>2022-05-21 11:20:36</time>
      </trkpt>
      <trkpt lat="42.32478" lon="3.17218">
        <ele>455</ele>
        <time>2022-05-21 11:20:37</time>
      </trkpt>
      <trkpt lat="42.32478" lon="3.17215">
        <ele>455.2</ele>
        <time>2022-05-21 11:20:38</time>
      </trkpt>
      <trkpt lat="42.32479" lon="3.17212">
        <ele>455.4</ele>
        <time>2022-05-21 11:20:39</time>
      </trkpt>
      <trkpt lat="42.3248" lon="3.1721">
        <ele>455.6</ele>
        <time>2022-05-21 11:20:40</time>
      </trkpt>
      <trkpt lat="42.32481" lon="3.17207">
        <ele>455.6</ele>
        <time>2022-05-21 11:20:41</time>
      </trkpt>
      <trkpt lat="42.32481" lon="3.17204">
        <ele>455.8</ele>
        <time>2022-05-21 11:20:42</time>
      </trkpt>
      <trkpt lat="42.32482" lon="3.17202">
        <ele>456</ele>
        <time>2022-05-21 11:20:43</time>
      </trkpt>
      <trkpt lat="42.32482" lon="3.17199">
        <ele>456.2</ele>
        <time>2022-05-21 11:20:44</time>
      </trkpt>
      <trkpt lat="42.32482" lon="3.17197">
        <ele>456.4</ele>
        <time>2022-05-21 11:20:45</time>
      </trkpt>
      <trkpt lat="42.32482" lon="3.17194">
        <ele>456.6</ele>
        <time>2022-05-21 11:20:46</time>
      </trkpt>
      <trkpt lat="42.32482" lon="3.17191">
        <ele>456.8</ele>
        <time>2022-05-21 11:20:47</time>
      </trkpt>
      <trkpt lat="42.32482" lon="3.17188">
        <ele>457</ele>
        <time>2022-05-21 11:20:48</time>
      </trkpt>
      <trkpt lat="42.32481" lon="3.17185">
        <ele>457.2</ele>
        <time>2022-05-21 11:20:49</time>
      </trkpt>
      <trkpt lat="42.32481" lon="3.17183">
        <ele>457.2</ele>
        <time>2022-05-21 11:20:50</time>
      </trkpt>
      <trkpt lat="42.3248" lon="3.1718">
        <ele>457.4</ele>
        <time>2022-05-21 11:20:51</time>
      </trkpt>
      <trkpt lat="42.32479" lon="3.17177">
        <ele>457.6</ele>
        <time>2022-05-21 11:20:52</time>
      </trkpt>
      <trkpt lat="42.32478" lon="3.17174">
        <ele>457.6</ele>
        <time>2022-05-21 11:20:53</time>
      </trkpt>
      <trkpt lat="42.32476" lon="3.17171">
        <ele>457.8</ele>
        <time>2022-05-21 11:20:54</time>
      </trkpt>
      <trkpt lat="42.32475" lon="3.17168">
        <ele>458</ele>
        <time>2022-05-21 11:20:55</time>
      </trkpt>
      <trkpt lat="42.32473" lon="3.17166">
        <ele>458.2</ele>
        <time>2022-05-21 11:20:56</time>
      </trkpt>
      <trkpt lat="42.32471" lon="3.17163">
        <ele>458.2</ele>
        <time>2022-05-21 11:20:57</time>
      </trkpt>
      <trkpt lat="42.32469" lon="3.17161">
        <ele>458.4</ele>
        <time>2022-05-21 11:20:58</time>
      </trkpt>
      <trkpt lat="42.32466" lon="3.17159">
        <ele>458.4</ele>
        <time>2022-05-21 11:20:59</time>
      </trkpt>
      <trkpt lat="42.32464" lon="3.17157">
        <ele>458.6</ele>
        <time>2022-05-21 11:21:00</time>
      </trkpt>
      <trkpt lat="42.32461" lon="3.17155">
        <ele>458.6</ele>
        <time>2022-05-21 11:21:01</time>
      </trkpt>
      <trkpt lat="42.32459" lon="3.17153">
        <ele>458.8</ele>
        <time>2022-05-21 11:21:02</time>
      </trkpt>
      <trkpt lat="42.32456" lon="3.17151">
        <ele>458.8</ele>
        <time>2022-05-21 11:21:03</time>
      </trkpt>
      <trkpt lat="42.32452" lon="3.17149">
        <ele>459</ele>
        <time>2022-05-21 11:21:04</time>
      </trkpt>
      <trkpt lat="42.3245" lon="3.17147">
        <ele>459</ele>
        <time>2022-05-21 11:21:05</time>
      </trkpt>
      <trkpt lat="42.32447" lon="3.17145">
        <ele>459.2</ele>
        <time>2022-05-21 11:21:06</time>
      </trkpt>
      <trkpt lat="42.32444" lon="3.17144">
        <ele>459.2</ele>
        <time>2022-05-21 11:21:07</time>
      </trkpt>
      <trkpt lat="42.32441" lon="3.17142">
        <ele>459.2</ele>
        <time>2022-05-21 11:21:08</time>
      </trkpt>
      <trkpt lat="42.32438" lon="3.1714">
        <ele>459.4</ele>
        <time>2022-05-21 11:21:09</time>
      </trkpt>
      <trkpt lat="42.32435" lon="3.17138">
        <ele>459.4</ele>
        <time>2022-05-21 11:21:10</time>
      </trkpt>
      <trkpt lat="42.32432" lon="3.17136">
        <ele>459.6</ele>
        <time>2022-05-21 11:21:11</time>
      </trkpt>
      <trkpt lat="42.32429" lon="3.17134">
        <ele>459.6</ele>
        <time>2022-05-21 11:21:12</time>
      </trkpt>
      <trkpt lat="42.32426" lon="3.17131">
        <ele>459.8</ele>
        <time>2022-05-21 11:21:13</time>
      </trkpt>
      <trkpt lat="42.32423" lon="3.17128">
        <ele>459.8</ele>
        <time>2022-05-21 11:21:14</time>
      </trkpt>
      <trkpt lat="42.32421" lon="3.17126">
        <ele>460</ele>
        <time>2022-05-21 11:21:15</time>
      </trkpt>
      <trkpt lat="42.32418" lon="3.17124">
        <ele>460</ele>
        <time>2022-05-21 11:21:16</time>
      </trkpt>
      <trkpt lat="42.32415" lon="3.17122">
        <ele>460.2</ele>
        <time>2022-05-21 11:21:17</time>
      </trkpt>
      <trkpt lat="42.32412" lon="3.17119">
        <ele>460.2</ele>
        <time>2022-05-21 11:21:18</time>
      </trkpt>
      <trkpt lat="42.32409" lon="3.17117">
        <ele>460.4</ele>
        <time>2022-05-21 11:21:19</time>
      </trkpt>
      <trkpt lat="42.32406" lon="3.17114">
        <ele>460.4</ele>
        <time>2022-05-21 11:21:20</time>
      </trkpt>
      <trkpt lat="42.32404" lon="3.17111">
        <ele>460.6</ele>
        <time>2022-05-21 11:21:21</time>
      </trkpt>
      <trkpt lat="42.32401" lon="3.17108">
        <ele>460.6</ele>
        <time>2022-05-21 11:21:22</time>
      </trkpt>
      <trkpt lat="42.32398" lon="3.17105">
        <ele>460.6</ele>
        <time>2022-05-21 11:21:23</time>
      </trkpt>
      <trkpt lat="42.32394" lon="3.17102">
        <ele>460.8</ele>
        <time>2022-05-21 11:21:24</time>
      </trkpt>
      <trkpt lat="42.32391" lon="3.17099">
        <ele>460.8</ele>
        <time>2022-05-21 11:21:25</time>
      </trkpt>
      <trkpt lat="42.32389" lon="3.17096">
        <ele>460.8</ele>
        <time>2022-05-21 11:21:26</time>
      </trkpt>
      <trkpt lat="42.32385" lon="3.17093">
        <ele>461</ele>
        <time>2022-05-21 11:21:27</time>
      </trkpt>
      <trkpt lat="42.32382" lon="3.1709">
        <ele>461</ele>
        <time>2022-05-21 11:21:28</time>
      </trkpt>
      <trkpt lat="42.32378" lon="3.17087">
        <ele>461</ele>
        <time>2022-05-21 11:21:29</time>
      </trkpt>
      <trkpt lat="42.32374" lon="3.17085">
        <ele>461</ele>
        <time>2022-05-21 11:21:30</time>
      </trkpt>
      <trkpt lat="42.32371" lon="3.17082">
        <ele>461</ele>
        <time>2022-05-21 11:21:31</time>
      </trkpt>
      <trkpt lat="42.32367" lon="3.17079">
        <ele>461</ele>
        <time>2022-05-21 11:21:32</time>
      </trkpt>
      <trkpt lat="42.32362" lon="3.17077">
        <ele>461</ele>
        <time>2022-05-21 11:21:33</time>
      </trkpt>
      <trkpt lat="42.32358" lon="3.17075">
        <ele>461</ele>
        <time>2022-05-21 11:21:34</time>
      </trkpt>
      <trkpt lat="42.32354" lon="3.17073">
        <ele>461</ele>
        <time>2022-05-21 11:21:35</time>
      </trkpt>
      <trkpt lat="42.3235" lon="3.17072">
        <ele>461</ele>
        <time>2022-05-21 11:21:36</time>
      </trkpt>
      <trkpt lat="42.32346" lon="3.1707">
        <ele>461</ele>
        <time>2022-05-21 11:21:37</time>
      </trkpt>
      <trkpt lat="42.32343" lon="3.17068">
        <ele>461.2</ele>
        <time>2022-05-21 11:21:38</time>
      </trkpt>
      <trkpt lat="42.32339" lon="3.17066">
        <ele>461.2</ele>
        <time>2022-05-21 11:21:39</time>
      </trkpt>
      <trkpt lat="42.32335" lon="3.17064">
        <ele>461.2</ele>
        <time>2022-05-21 11:21:40</time>
      </trkpt>
      <trkpt lat="42.32332" lon="3.17061">
        <ele>461.2</ele>
        <time>2022-05-21 11:21:41</time>
      </trkpt>
      <trkpt lat="42.32328" lon="3.17059">
        <ele>461.2</ele>
        <time>2022-05-21 11:21:42</time>
      </trkpt>
      <trkpt lat="42.32324" lon="3.17056">
        <ele>461.2</ele>
        <time>2022-05-21 11:21:43</time>
      </trkpt>
      <trkpt lat="42.32321" lon="3.17052">
        <ele>461.2</ele>
        <time>2022-05-21 11:21:44</time>
      </trkpt>
      <trkpt lat="42.32318" lon="3.17048">
        <ele>461.2</ele>
        <time>2022-05-21 11:21:45</time>
      </trkpt>
      <trkpt lat="42.32315" lon="3.17044">
        <ele>461.2</ele>
        <time>2022-05-21 11:21:46</time>
      </trkpt>
      <trkpt lat="42.32313" lon="3.17039">
        <ele>461.2</ele>
        <time>2022-05-21 11:21:47</time>
      </trkpt>
      <trkpt lat="42.3231" lon="3.17034">
        <ele>461.2</ele>
        <time>2022-05-21 11:21:48</time>
      </trkpt>
      <trkpt lat="42.32308" lon="3.17028">
        <ele>461</ele>
        <time>2022-05-21 11:21:49</time>
      </trkpt>
      <trkpt lat="42.32306" lon="3.17021">
        <ele>461</ele>
        <time>2022-05-21 11:21:50</time>
      </trkpt>
      <trkpt lat="42.32304" lon="3.17015">
        <ele>460.8</ele>
        <time>2022-05-21 11:21:51</time>
      </trkpt>
      <trkpt lat="42.32303" lon="3.17009">
        <ele>460.8</ele>
        <time>2022-05-21 11:21:52</time>
      </trkpt>
      <trkpt lat="42.32303" lon="3.17001">
        <ele>460.6</ele>
        <time>2022-05-21 11:21:53</time>
      </trkpt>
      <trkpt lat="42.32303" lon="3.16994">
        <ele>460.6</ele>
        <time>2022-05-21 11:21:54</time>
      </trkpt>
      <trkpt lat="42.32303" lon="3.16988">
        <ele>460.6</ele>
        <time>2022-05-21 11:21:55</time>
      </trkpt>
      <trkpt lat="42.32304" lon="3.16981">
        <ele>460.4</ele>
        <time>2022-05-21 11:21:56</time>
      </trkpt>
      <trkpt lat="42.32305" lon="3.16974">
        <ele>460.4</ele>
        <time>2022-05-21 11:21:57</time>
      </trkpt>
      <trkpt lat="42.32306" lon="3.16967">
        <ele>460.2</ele>
        <time>2022-05-21 11:21:58</time>
      </trkpt>
      <trkpt lat="42.32308" lon="3.1696">
        <ele>460.2</ele>
        <time>2022-05-21 11:21:59</time>
      </trkpt>
      <trkpt lat="42.3231" lon="3.16953">
        <ele>460.2</ele>
        <time>2022-05-21 11:22:00</time>
      </trkpt>
      <trkpt lat="42.32311" lon="3.16946">
        <ele>460</ele>
        <time>2022-05-21 11:22:01</time>
      </trkpt>
      <trkpt lat="42.32312" lon="3.16939">
        <ele>460</ele>
        <time>2022-05-21 11:22:02</time>
      </trkpt>
      <trkpt lat="42.32313" lon="3.16932">
        <ele>459.8</ele>
        <time>2022-05-21 11:22:03</time>
      </trkpt>
      <trkpt lat="42.32314" lon="3.16925">
        <ele>459.8</ele>
        <time>2022-05-21 11:22:04</time>
      </trkpt>
      <trkpt lat="42.32314" lon="3.16917">
        <ele>459.8</ele>
        <time>2022-05-21 11:22:05</time>
      </trkpt>
      <trkpt lat="42.32315" lon="3.1691">
        <ele>459.8</ele>
        <time>2022-05-21 11:22:06</time>
      </trkpt>
      <trkpt lat="42.32316" lon="3.16903">
        <ele>459.6</ele>
        <time>2022-05-21 11:22:07</time>
      </trkpt>
      <trkpt lat="42.32317" lon="3.16896">
        <ele>459.6</ele>
        <time>2022-05-21 11:22:08</time>
      </trkpt>
      <trkpt lat="42.32317" lon="3.16889">
        <ele>459.6</ele>
        <time>2022-05-21 11:22:09</time>
      </trkpt>
      <trkpt lat="42.32318" lon="3.16882">
        <ele>459.6</ele>
        <time>2022-05-21 11:22:10</time>
      </trkpt>
      <trkpt lat="42.32319" lon="3.16874">
        <ele>459.4</ele>
        <time>2022-05-21 11:22:11</time>
      </trkpt>
      <trkpt lat="42.32319" lon="3.16867">
        <ele>459.4</ele>
        <time>2022-05-21 11:22:12</time>
      </trkpt>
      <trkpt lat="42.32321" lon="3.16859">
        <ele>459.2</ele>
        <time>2022-05-21 11:22:13</time>
      </trkpt>
      <trkpt lat="42.32322" lon="3.16852">
        <ele>459</ele>
        <time>2022-05-21 11:22:14</time>
      </trkpt>
      <trkpt lat="42.32324" lon="3.16844">
        <ele>459</ele>
        <time>2022-05-21 11:22:15</time>
      </trkpt>
      <trkpt lat="42.32327" lon="3.16837">
        <ele>458.8</ele>
        <time>2022-05-21 11:22:16</time>
      </trkpt>
      <trkpt lat="42.3233" lon="3.1683">
        <ele>458.8</ele>
        <time>2022-05-21 11:22:17</time>
      </trkpt>
      <trkpt lat="42.32333" lon="3.16823">
        <ele>458.8</ele>
        <time>2022-05-21 11:22:18</time>
      </trkpt>
      <trkpt lat="42.32335" lon="3.16816">
        <ele>458.6</ele>
        <time>2022-05-21 11:22:19</time>
      </trkpt>
      <trkpt lat="42.32337" lon="3.1681">
        <ele>458.6</ele>
        <time>2022-05-21 11:22:20</time>
      </trkpt>
      <trkpt lat="42.3234" lon="3.16803">
        <ele>458.6</ele>
        <time>2022-05-21 11:22:21</time>
      </trkpt>
      <trkpt lat="42.32343" lon="3.16797">
        <ele>458.6</ele>
        <time>2022-05-21 11:22:22</time>
      </trkpt>
      <trkpt lat="42.32347" lon="3.16791">
        <ele>458.6</ele>
        <time>2022-05-21 11:22:23</time>
      </trkpt>
      <trkpt lat="42.32351" lon="3.16785">
        <ele>458.4</ele>
        <time>2022-05-21 11:22:24</time>
      </trkpt>
      <trkpt lat="42.32356" lon="3.1678">
        <ele>458.4</ele>
        <time>2022-05-21 11:22:25</time>
      </trkpt>
      <trkpt lat="42.32362" lon="3.16777">
        <ele>458.4</ele>
        <time>2022-05-21 11:22:26</time>
      </trkpt>
      <trkpt lat="42.32368" lon="3.16776">
        <ele>458.2</ele>
        <time>2022-05-21 11:22:27</time>
      </trkpt>
      <trkpt lat="42.32374" lon="3.16776">
        <ele>458.2</ele>
        <time>2022-05-21 11:22:28</time>
      </trkpt>
      <trkpt lat="42.32381" lon="3.16778">
        <ele>458.2</ele>
        <time>2022-05-21 11:22:29</time>
      </trkpt>
      <trkpt lat="42.32386" lon="3.1678">
        <ele>458</ele>
        <time>2022-05-21 11:22:30</time>
      </trkpt>
      <trkpt lat="42.32392" lon="3.16782">
        <ele>458</ele>
        <time>2022-05-21 11:22:31</time>
      </trkpt>
      <trkpt lat="42.32398" lon="3.16783">
        <ele>457.8</ele>
        <time>2022-05-21 11:22:32</time>
      </trkpt>
      <trkpt lat="42.32406" lon="3.16784">
        <ele>457.6</ele>
        <time>2022-05-21 11:22:33</time>
      </trkpt>
      <trkpt lat="42.32412" lon="3.16784">
        <ele>457.6</ele>
        <time>2022-05-21 11:22:34</time>
      </trkpt>
      <trkpt lat="42.32418" lon="3.16782">
        <ele>457.4</ele>
        <time>2022-05-21 11:22:35</time>
      </trkpt>
      <trkpt lat="42.32423" lon="3.16779">
        <ele>457.4</ele>
        <time>2022-05-21 11:22:36</time>
      </trkpt>
      <trkpt lat="42.32428" lon="3.16774">
        <ele>457.2</ele>
        <time>2022-05-21 11:22:37</time>
      </trkpt>
      <trkpt lat="42.32432" lon="3.16767">
        <ele>457.2</ele>
        <time>2022-05-21 11:22:38</time>
      </trkpt>
      <trkpt lat="42.32434" lon="3.16761">
        <ele>457.2</ele>
        <time>2022-05-21 11:22:39</time>
      </trkpt>
      <trkpt lat="42.32437" lon="3.16754">
        <ele>457.2</ele>
        <time>2022-05-21 11:22:40</time>
      </trkpt>
      <trkpt lat="42.32438" lon="3.16747">
        <ele>457.4</ele>
        <time>2022-05-21 11:22:41</time>
      </trkpt>
      <trkpt lat="42.32439" lon="3.1674">
        <ele>457.4</ele>
        <time>2022-05-21 11:22:42</time>
      </trkpt>
      <trkpt lat="42.32439" lon="3.16733">
        <ele>457.6</ele>
        <time>2022-05-21 11:22:43</time>
      </trkpt>
      <trkpt lat="42.32439" lon="3.16727">
        <ele>458</ele>
        <time>2022-05-21 11:22:44</time>
      </trkpt>
      <trkpt lat="42.32439" lon="3.16722">
        <ele>458.2</ele>
        <time>2022-05-21 11:22:45</time>
      </trkpt>
      <trkpt lat="42.32438" lon="3.16717">
        <ele>458.6</ele>
        <time>2022-05-21 11:22:46</time>
      </trkpt>
      <trkpt lat="42.32437" lon="3.16711">
        <ele>459</ele>
        <time>2022-05-21 11:22:47</time>
      </trkpt>
      <trkpt lat="42.32435" lon="3.16707">
        <ele>459.4</ele>
        <time>2022-05-21 11:22:48</time>
      </trkpt>
      <trkpt lat="42.32434" lon="3.16702">
        <ele>459.8</ele>
        <time>2022-05-21 11:22:49</time>
      </trkpt>
      <trkpt lat="42.32433" lon="3.16697">
        <ele>460.2</ele>
        <time>2022-05-21 11:22:50</time>
      </trkpt>
      <trkpt lat="42.32432" lon="3.16693">
        <ele>460.4</ele>
        <time>2022-05-21 11:22:51</time>
      </trkpt>
      <trkpt lat="42.32432" lon="3.16689">
        <ele>460.8</ele>
        <time>2022-05-21 11:22:52</time>
      </trkpt>
      <trkpt lat="42.32431" lon="3.16684">
        <ele>461.2</ele>
        <time>2022-05-21 11:22:53</time>
      </trkpt>
      <trkpt lat="42.3243" lon="3.1668">
        <ele>461.6</ele>
        <time>2022-05-21 11:22:54</time>
      </trkpt>
      <trkpt lat="42.32429" lon="3.16676">
        <ele>462</ele>
        <time>2022-05-21 11:22:55</time>
      </trkpt>
      <trkpt lat="42.32429" lon="3.16671">
        <ele>462.4</ele>
        <time>2022-05-21 11:22:56</time>
      </trkpt>
      <trkpt lat="42.32428" lon="3.16667">
        <ele>462.8</ele>
        <time>2022-05-21 11:22:57</time>
      </trkpt>
      <trkpt lat="42.32428" lon="3.16663">
        <ele>463</ele>
        <time>2022-05-21 11:22:58</time>
      </trkpt>
      <trkpt lat="42.32427" lon="3.16659">
        <ele>463.4</ele>
        <time>2022-05-21 11:22:59</time>
      </trkpt>
      <trkpt lat="42.32426" lon="3.16655">
        <ele>463.8</ele>
        <time>2022-05-21 11:23:00</time>
      </trkpt>
      <trkpt lat="42.32425" lon="3.16651">
        <ele>464</ele>
        <time>2022-05-21 11:23:01</time>
      </trkpt>
      <trkpt lat="42.32424" lon="3.16647">
        <ele>464.2</ele>
        <time>2022-05-21 11:23:02</time>
      </trkpt>
      <trkpt lat="42.32423" lon="3.16642">
        <ele>464.4</ele>
        <time>2022-05-21 11:23:03</time>
      </trkpt>
      <trkpt lat="42.32422" lon="3.16637">
        <ele>464.6</ele>
        <time>2022-05-21 11:23:04</time>
      </trkpt>
      <trkpt lat="42.3242" lon="3.16631">
        <ele>464.8</ele>
        <time>2022-05-21 11:23:05</time>
      </trkpt>
      <trkpt lat="42.32419" lon="3.16627">
        <ele>464.8</ele>
        <time>2022-05-21 11:23:06</time>
      </trkpt>
      <trkpt lat="42.32418" lon="3.16622">
        <ele>465</ele>
        <time>2022-05-21 11:23:07</time>
      </trkpt>
      <trkpt lat="42.32416" lon="3.16617">
        <ele>465</ele>
        <time>2022-05-21 11:23:08</time>
      </trkpt>
      <trkpt lat="42.32414" lon="3.16612">
        <ele>465</ele>
        <time>2022-05-21 11:23:09</time>
      </trkpt>
      <trkpt lat="42.32412" lon="3.16606">
        <ele>465</ele>
        <time>2022-05-21 11:23:10</time>
      </trkpt>
      <trkpt lat="42.32411" lon="3.166">
        <ele>465</ele>
        <time>2022-05-21 11:23:11</time>
      </trkpt>
      <trkpt lat="42.3241" lon="3.16595">
        <ele>465</ele>
        <time>2022-05-21 11:23:12</time>
      </trkpt>
      <trkpt lat="42.32408" lon="3.16588">
        <ele>465</ele>
        <time>2022-05-21 11:23:13</time>
      </trkpt>
      <trkpt lat="42.32408" lon="3.16581">
        <ele>465</ele>
        <time>2022-05-21 11:23:14</time>
      </trkpt>
      <trkpt lat="42.32409" lon="3.16575">
        <ele>464.8</ele>
        <time>2022-05-21 11:23:15</time>
      </trkpt>
      <trkpt lat="42.32411" lon="3.16569">
        <ele>464.8</ele>
        <time>2022-05-21 11:23:16</time>
      </trkpt>
      <trkpt lat="42.32413" lon="3.16564">
        <ele>464.8</ele>
        <time>2022-05-21 11:23:17</time>
      </trkpt>
      <trkpt lat="42.32417" lon="3.16559">
        <ele>464.8</ele>
        <time>2022-05-21 11:23:18</time>
      </trkpt>
      <trkpt lat="42.32421" lon="3.16556">
        <ele>464.8</ele>
        <time>2022-05-21 11:23:19</time>
      </trkpt>
      <trkpt lat="42.32426" lon="3.16554">
        <ele>464.8</ele>
        <time>2022-05-21 11:23:20</time>
      </trkpt>
      <trkpt lat="42.3243" lon="3.16551">
        <ele>464.8</ele>
        <time>2022-05-21 11:23:21</time>
      </trkpt>
      <trkpt lat="42.32435" lon="3.16549">
        <ele>465</ele>
        <time>2022-05-21 11:23:22</time>
      </trkpt>
      <trkpt lat="42.32439" lon="3.16547">
        <ele>465</ele>
        <time>2022-05-21 11:23:23</time>
      </trkpt>
      <trkpt lat="42.32443" lon="3.16546">
        <ele>465</ele>
        <time>2022-05-21 11:23:24</time>
      </trkpt>
      <trkpt lat="42.32448" lon="3.16545">
        <ele>465</ele>
        <time>2022-05-21 11:23:25</time>
      </trkpt>
      <trkpt lat="42.32453" lon="3.16544">
        <ele>465</ele>
        <time>2022-05-21 11:23:26</time>
      </trkpt>
      <trkpt lat="42.32458" lon="3.16544">
        <ele>465</ele>
        <time>2022-05-21 11:23:27</time>
      </trkpt>
      <trkpt lat="42.32464" lon="3.16545">
        <ele>465</ele>
        <time>2022-05-21 11:23:28</time>
      </trkpt>
      <trkpt lat="42.32469" lon="3.16545">
        <ele>465</ele>
        <time>2022-05-21 11:23:29</time>
      </trkpt>
      <trkpt lat="42.32474" lon="3.16545">
        <ele>465.2</ele>
        <time>2022-05-21 11:23:30</time>
      </trkpt>
      <trkpt lat="42.3248" lon="3.16546">
        <ele>465.2</ele>
        <time>2022-05-21 11:23:31</time>
      </trkpt>
      <trkpt lat="42.32485" lon="3.16546">
        <ele>465</ele>
        <time>2022-05-21 11:23:32</time>
      </trkpt>
      <trkpt lat="42.32491" lon="3.16545">
        <ele>464.8</ele>
        <time>2022-05-21 11:23:33</time>
      </trkpt>
      <trkpt lat="42.32497" lon="3.16543">
        <ele>464.4</ele>
        <time>2022-05-21 11:23:34</time>
      </trkpt>
      <trkpt lat="42.32502" lon="3.1654">
        <ele>464.2</ele>
        <time>2022-05-21 11:23:35</time>
      </trkpt>
      <trkpt lat="42.32508" lon="3.16536">
        <ele>463.8</ele>
        <time>2022-05-21 11:23:36</time>
      </trkpt>
      <trkpt lat="42.32514" lon="3.16532">
        <ele>463.2</ele>
        <time>2022-05-21 11:23:37</time>
      </trkpt>
      <trkpt lat="42.3252" lon="3.16528">
        <ele>462.8</ele>
        <time>2022-05-21 11:23:38</time>
      </trkpt>
      <trkpt lat="42.32527" lon="3.16524">
        <ele>462.4</ele>
        <time>2022-05-21 11:23:39</time>
      </trkpt>
      <trkpt lat="42.32532" lon="3.16518">
        <ele>462.2</ele>
        <time>2022-05-21 11:23:40</time>
      </trkpt>
      <trkpt lat="42.32537" lon="3.16511">
        <ele>462</ele>
        <time>2022-05-21 11:23:41</time>
      </trkpt>
      <trkpt lat="42.3254" lon="3.16503">
        <ele>462</ele>
        <time>2022-05-21 11:23:42</time>
      </trkpt>
      <trkpt lat="42.32542" lon="3.16495">
        <ele>462</ele>
        <time>2022-05-21 11:23:43</time>
      </trkpt>
      <trkpt lat="42.32544" lon="3.16487">
        <ele>462</ele>
        <time>2022-05-21 11:23:44</time>
      </trkpt>
      <trkpt lat="42.32547" lon="3.1648">
        <ele>462.2</ele>
        <time>2022-05-21 11:23:45</time>
      </trkpt>
      <trkpt lat="42.3255" lon="3.16474">
        <ele>462.2</ele>
        <time>2022-05-21 11:23:46</time>
      </trkpt>
      <trkpt lat="42.32552" lon="3.16467">
        <ele>462.4</ele>
        <time>2022-05-21 11:23:47</time>
      </trkpt>
      <trkpt lat="42.32555" lon="3.16461">
        <ele>462.4</ele>
        <time>2022-05-21 11:23:48</time>
      </trkpt>
      <trkpt lat="42.32557" lon="3.16455">
        <ele>462.6</ele>
        <time>2022-05-21 11:23:49</time>
      </trkpt>
      <trkpt lat="42.3256" lon="3.16449">
        <ele>462.8</ele>
        <time>2022-05-21 11:23:50</time>
      </trkpt>
      <trkpt lat="42.32562" lon="3.16444">
        <ele>462.8</ele>
        <time>2022-05-21 11:23:51</time>
      </trkpt>
      <trkpt lat="42.32565" lon="3.16438">
        <ele>463</ele>
        <time>2022-05-21 11:23:52</time>
      </trkpt>
      <trkpt lat="42.32567" lon="3.16433">
        <ele>463.2</ele>
        <time>2022-05-21 11:23:53</time>
      </trkpt>
      <trkpt lat="42.3257" lon="3.16427">
        <ele>463.2</ele>
        <time>2022-05-21 11:23:54</time>
      </trkpt>
      <trkpt lat="42.32573" lon="3.16423">
        <ele>463.4</ele>
        <time>2022-05-21 11:23:55</time>
      </trkpt>
      <trkpt lat="42.32576" lon="3.16417">
        <ele>463.6</ele>
        <time>2022-05-21 11:23:56</time>
      </trkpt>
      <trkpt lat="42.32578" lon="3.16412">
        <ele>463.8</ele>
        <time>2022-05-21 11:23:57</time>
      </trkpt>
      <trkpt lat="42.32581" lon="3.16407">
        <ele>464</ele>
        <time>2022-05-21 11:23:58</time>
      </trkpt>
      <trkpt lat="42.32582" lon="3.16402">
        <ele>464.4</ele>
        <time>2022-05-21 11:23:59</time>
      </trkpt>
      <trkpt lat="42.32583" lon="3.16398">
        <ele>464.6</ele>
        <time>2022-05-21 11:24:00</time>
      </trkpt>
      <trkpt lat="42.32584" lon="3.16391">
        <ele>465</ele>
        <time>2022-05-21 11:24:01</time>
      </trkpt>
      <trkpt lat="42.32584" lon="3.16387">
        <ele>465.2</ele>
        <time>2022-05-21 11:24:02</time>
      </trkpt>
      <trkpt lat="42.32584" lon="3.16382">
        <ele>465.6</ele>
        <time>2022-05-21 11:24:03</time>
      </trkpt>
      <trkpt lat="42.32582" lon="3.16377">
        <ele>466</ele>
        <time>2022-05-21 11:24:04</time>
      </trkpt>
      <trkpt lat="42.3258" lon="3.16373">
        <ele>466.2</ele>
        <time>2022-05-21 11:24:05</time>
      </trkpt>
      <trkpt lat="42.32577" lon="3.16369">
        <ele>466.6</ele>
        <time>2022-05-21 11:24:06</time>
      </trkpt>
      <trkpt lat="42.32575" lon="3.16365">
        <ele>466.8</ele>
        <time>2022-05-21 11:24:07</time>
      </trkpt>
      <trkpt lat="42.32572" lon="3.16362">
        <ele>467.2</ele>
        <time>2022-05-21 11:24:08</time>
      </trkpt>
      <trkpt lat="42.3257" lon="3.1636">
        <ele>467.4</ele>
        <time>2022-05-21 11:24:09</time>
      </trkpt>
      <trkpt lat="42.32567" lon="3.16356">
        <ele>467.8</ele>
        <time>2022-05-21 11:24:10</time>
      </trkpt>
      <trkpt lat="42.32565" lon="3.16354">
        <ele>468</ele>
        <time>2022-05-21 11:24:11</time>
      </trkpt>
      <trkpt lat="42.32562" lon="3.16352">
        <ele>468.2</ele>
        <time>2022-05-21 11:24:12</time>
      </trkpt>
      <trkpt lat="42.32559" lon="3.16348">
        <ele>468.4</ele>
        <time>2022-05-21 11:24:13</time>
      </trkpt>
      <trkpt lat="42.32557" lon="3.16346">
        <ele>468.6</ele>
        <time>2022-05-21 11:24:14</time>
      </trkpt>
      <trkpt lat="42.32555" lon="3.16343">
        <ele>468.8</ele>
        <time>2022-05-21 11:24:15</time>
      </trkpt>
      <trkpt lat="42.32552" lon="3.16338">
        <ele>469.2</ele>
        <time>2022-05-21 11:24:16</time>
      </trkpt>
      <trkpt lat="42.32551" lon="3.16335">
        <ele>469.4</ele>
        <time>2022-05-21 11:24:17</time>
      </trkpt>
      <trkpt lat="42.32549" lon="3.16331">
        <ele>469.6</ele>
        <time>2022-05-21 11:24:18</time>
      </trkpt>
      <trkpt lat="42.32548" lon="3.16327">
        <ele>469.8</ele>
        <time>2022-05-21 11:24:19</time>
      </trkpt>
      <trkpt lat="42.32547" lon="3.16323">
        <ele>470</ele>
        <time>2022-05-21 11:24:20</time>
      </trkpt>
      <trkpt lat="42.32546" lon="3.1632">
        <ele>470.2</ele>
        <time>2022-05-21 11:24:21</time>
      </trkpt>
      <trkpt lat="42.32545" lon="3.16315">
        <ele>470.4</ele>
        <time>2022-05-21 11:24:22</time>
      </trkpt>
      <trkpt lat="42.32544" lon="3.16311">
        <ele>470.6</ele>
        <time>2022-05-21 11:24:23</time>
      </trkpt>
      <trkpt lat="42.32543" lon="3.16307">
        <ele>470.8</ele>
        <time>2022-05-21 11:24:24</time>
      </trkpt>
      <trkpt lat="42.32543" lon="3.16303">
        <ele>471</ele>
        <time>2022-05-21 11:24:25</time>
      </trkpt>
      <trkpt lat="42.32542" lon="3.16299">
        <ele>471.2</ele>
        <time>2022-05-21 11:24:26</time>
      </trkpt>
      <trkpt lat="42.32542" lon="3.16296">
        <ele>471.4</ele>
        <time>2022-05-21 11:24:27</time>
      </trkpt>
      <trkpt lat="42.32542" lon="3.16292">
        <ele>471.6</ele>
        <time>2022-05-21 11:24:28</time>
      </trkpt>
      <trkpt lat="42.32541" lon="3.16287">
        <ele>471.8</ele>
        <time>2022-05-21 11:24:29</time>
      </trkpt>
      <trkpt lat="42.32541" lon="3.16283">
        <ele>472</ele>
        <time>2022-05-21 11:24:30</time>
      </trkpt>
      <trkpt lat="42.32541" lon="3.1628">
        <ele>472.2</ele>
        <time>2022-05-21 11:24:31</time>
      </trkpt>
      <trkpt lat="42.3254" lon="3.16276">
        <ele>472.2</ele>
        <time>2022-05-21 11:24:32</time>
      </trkpt>
      <trkpt lat="42.32539" lon="3.16271">
        <ele>472.4</ele>
        <time>2022-05-21 11:24:33</time>
      </trkpt>
      <trkpt lat="42.32539" lon="3.16267">
        <ele>472.6</ele>
        <time>2022-05-21 11:24:34</time>
      </trkpt>
      <trkpt lat="42.32539" lon="3.16264">
        <ele>472.6</ele>
        <time>2022-05-21 11:24:35</time>
      </trkpt>
      <trkpt lat="42.32538" lon="3.16259">
        <ele>472.8</ele>
        <time>2022-05-21 11:24:36</time>
      </trkpt>
      <trkpt lat="42.32538" lon="3.16255">
        <ele>472.8</ele>
        <time>2022-05-21 11:24:37</time>
      </trkpt>
      <trkpt lat="42.32538" lon="3.16251">
        <ele>472.8</ele>
        <time>2022-05-21 11:24:38</time>
      </trkpt>
      <trkpt lat="42.32538" lon="3.16245">
        <ele>473</ele>
        <time>2022-05-21 11:24:39</time>
      </trkpt>
      <trkpt lat="42.32538" lon="3.16241">
        <ele>473</ele>
        <time>2022-05-21 11:24:40</time>
      </trkpt>
      <trkpt lat="42.32538" lon="3.16237">
        <ele>473</ele>
        <time>2022-05-21 11:24:41</time>
      </trkpt>
      <trkpt lat="42.3254" lon="3.1623">
        <ele>473</ele>
        <time>2022-05-21 11:24:42</time>
      </trkpt>
      <trkpt lat="42.32542" lon="3.16225">
        <ele>473</ele>
        <time>2022-05-21 11:24:43</time>
      </trkpt>
      <trkpt lat="42.32545" lon="3.16221">
        <ele>472.8</ele>
        <time>2022-05-21 11:24:44</time>
      </trkpt>
      <trkpt lat="42.32549" lon="3.16217">
        <ele>472.8</ele>
        <time>2022-05-21 11:24:45</time>
      </trkpt>
      <trkpt lat="42.32553" lon="3.16214">
        <ele>472.8</ele>
        <time>2022-05-21 11:24:46</time>
      </trkpt>
      <trkpt lat="42.32558" lon="3.16211">
        <ele>472.6</ele>
        <time>2022-05-21 11:24:47</time>
      </trkpt>
      <trkpt lat="42.32563" lon="3.16209">
        <ele>472.4</ele>
        <time>2022-05-21 11:24:48</time>
      </trkpt>
      <trkpt lat="42.32569" lon="3.16208">
        <ele>472.4</ele>
        <time>2022-05-21 11:24:49</time>
      </trkpt>
      <trkpt lat="42.32573" lon="3.16208">
        <ele>472.2</ele>
        <time>2022-05-21 11:24:50</time>
      </trkpt>
      <trkpt lat="42.3258" lon="3.16207">
        <ele>472.2</ele>
        <time>2022-05-21 11:24:51</time>
      </trkpt>
      <trkpt lat="42.32583" lon="3.16207">
        <ele>472.2</ele>
        <time>2022-05-21 11:24:52</time>
      </trkpt>
      <trkpt lat="42.3259" lon="3.16206">
        <ele>472.2</ele>
        <time>2022-05-21 11:24:53</time>
      </trkpt>
      <trkpt lat="42.32594" lon="3.16204">
        <ele>472.2</ele>
        <time>2022-05-21 11:24:54</time>
      </trkpt>
      <trkpt lat="42.32599" lon="3.16201">
        <ele>472.2</ele>
        <time>2022-05-21 11:24:55</time>
      </trkpt>
      <trkpt lat="42.32603" lon="3.16199">
        <ele>472.4</ele>
        <time>2022-05-21 11:24:56</time>
      </trkpt>
      <trkpt lat="42.32608" lon="3.16194">
        <ele>472.4</ele>
        <time>2022-05-21 11:24:57</time>
      </trkpt>
      <trkpt lat="42.3261" lon="3.16191">
        <ele>472.4</ele>
        <time>2022-05-21 11:24:58</time>
      </trkpt>
      <trkpt lat="42.32614" lon="3.16185">
        <ele>472.4</ele>
        <time>2022-05-21 11:24:59</time>
      </trkpt>
      <trkpt lat="42.32617" lon="3.16181">
        <ele>472.4</ele>
        <time>2022-05-21 11:25:00</time>
      </trkpt>
      <trkpt lat="42.32622" lon="3.16176">
        <ele>472.4</ele>
        <time>2022-05-21 11:25:01</time>
      </trkpt>
      <trkpt lat="42.32626" lon="3.16172">
        <ele>472.6</ele>
        <time>2022-05-21 11:25:02</time>
      </trkpt>
      <trkpt lat="42.32631" lon="3.16169">
        <ele>472.6</ele>
        <time>2022-05-21 11:25:03</time>
      </trkpt>
      <trkpt lat="42.32635" lon="3.16167">
        <ele>472.8</ele>
        <time>2022-05-21 11:25:04</time>
      </trkpt>
      <trkpt lat="42.3264" lon="3.16165">
        <ele>472.8</ele>
        <time>2022-05-21 11:25:05</time>
      </trkpt>
      <trkpt lat="42.32644" lon="3.16163">
        <ele>473</ele>
        <time>2022-05-21 11:25:06</time>
      </trkpt>
      <trkpt lat="42.32648" lon="3.16162">
        <ele>473.2</ele>
        <time>2022-05-21 11:25:07</time>
      </trkpt>
      <trkpt lat="42.32652" lon="3.16161">
        <ele>473.4</ele>
        <time>2022-05-21 11:25:08</time>
      </trkpt>
      <trkpt lat="42.32657" lon="3.16161">
        <ele>473.4</ele>
        <time>2022-05-21 11:25:09</time>
      </trkpt>
      <trkpt lat="42.32662" lon="3.1616">
        <ele>473.6</ele>
        <time>2022-05-21 11:25:10</time>
      </trkpt>
      <trkpt lat="42.32667" lon="3.1616">
        <ele>473.8</ele>
        <time>2022-05-21 11:25:11</time>
      </trkpt>
      <trkpt lat="42.32671" lon="3.1616">
        <ele>474</ele>
        <time>2022-05-21 11:25:12</time>
      </trkpt>
      <trkpt lat="42.32673" lon="3.16159">
        <ele>474</ele>
        <time>2022-05-21 11:25:13</time>
      </trkpt>
      <trkpt lat="42.3268" lon="3.16158">
        <ele>474.2</ele>
        <time>2022-05-21 11:25:14</time>
      </trkpt>
      <trkpt lat="42.32685" lon="3.16157">
        <ele>474.4</ele>
        <time>2022-05-21 11:25:15</time>
      </trkpt>
      <trkpt lat="42.3269" lon="3.16156">
        <ele>474.4</ele>
        <time>2022-05-21 11:25:16</time>
      </trkpt>
      <trkpt lat="42.32694" lon="3.16155">
        <ele>474.4</ele>
        <time>2022-05-21 11:25:17</time>
      </trkpt>
      <trkpt lat="42.32698" lon="3.16153">
        <ele>474.4</ele>
        <time>2022-05-21 11:25:18</time>
      </trkpt>
      <trkpt lat="42.32702" lon="3.1615">
        <ele>474.6</ele>
        <time>2022-05-21 11:25:19</time>
      </trkpt>
      <trkpt lat="42.32705" lon="3.16147">
        <ele>474.6</ele>
        <time>2022-05-21 11:25:20</time>
      </trkpt>
      <trkpt lat="42.32709" lon="3.16144">
        <ele>474.6</ele>
        <time>2022-05-21 11:25:21</time>
      </trkpt>
      <trkpt lat="42.32712" lon="3.1614">
        <ele>474.8</ele>
        <time>2022-05-21 11:25:22</time>
      </trkpt>
      <trkpt lat="42.32715" lon="3.16136">
        <ele>474.8</ele>
        <time>2022-05-21 11:25:23</time>
      </trkpt>
      <trkpt lat="42.32717" lon="3.16132">
        <ele>475</ele>
        <time>2022-05-21 11:25:24</time>
      </trkpt>
      <trkpt lat="42.3272" lon="3.16128">
        <ele>475</ele>
        <time>2022-05-21 11:25:25</time>
      </trkpt>
      <trkpt lat="42.32722" lon="3.16124">
        <ele>475.4</ele>
        <time>2022-05-21 11:25:26</time>
      </trkpt>
      <trkpt lat="42.32725" lon="3.1612">
        <ele>475.6</ele>
        <time>2022-05-21 11:25:27</time>
      </trkpt>
      <trkpt lat="42.32727" lon="3.16116">
        <ele>475.8</ele>
        <time>2022-05-21 11:25:28</time>
      </trkpt>
      <trkpt lat="42.3273" lon="3.16113">
        <ele>476</ele>
        <time>2022-05-21 11:25:29</time>
      </trkpt>
      <trkpt lat="42.32732" lon="3.16109">
        <ele>476</ele>
        <time>2022-05-21 11:25:30</time>
      </trkpt>
      <trkpt lat="42.32735" lon="3.16105">
        <ele>476.2</ele>
        <time>2022-05-21 11:25:31</time>
      </trkpt>
      <trkpt lat="42.32737" lon="3.16102">
        <ele>476.2</ele>
        <time>2022-05-21 11:25:32</time>
      </trkpt>
      <trkpt lat="42.3274" lon="3.16098">
        <ele>476.2</ele>
        <time>2022-05-21 11:25:33</time>
      </trkpt>
      <trkpt lat="42.32743" lon="3.16096">
        <ele>476.4</ele>
        <time>2022-05-21 11:25:34</time>
      </trkpt>
      <trkpt lat="42.32747" lon="3.16093">
        <ele>476.4</ele>
        <time>2022-05-21 11:25:35</time>
      </trkpt>
      <trkpt lat="42.3275" lon="3.16091">
        <ele>476.6</ele>
        <time>2022-05-21 11:25:36</time>
      </trkpt>
      <trkpt lat="42.32754" lon="3.1609">
        <ele>476.6</ele>
        <time>2022-05-21 11:25:37</time>
      </trkpt>
      <trkpt lat="42.32758" lon="3.16089">
        <ele>476.8</ele>
        <time>2022-05-21 11:25:38</time>
      </trkpt>
      <trkpt lat="42.32762" lon="3.16089">
        <ele>476.8</ele>
        <time>2022-05-21 11:25:39</time>
      </trkpt>
      <trkpt lat="42.32766" lon="3.16089">
        <ele>477</ele>
        <time>2022-05-21 11:25:40</time>
      </trkpt>
      <trkpt lat="42.3277" lon="3.16089">
        <ele>477</ele>
        <time>2022-05-21 11:25:41</time>
      </trkpt>
      <trkpt lat="42.32774" lon="3.16089">
        <ele>477.2</ele>
        <time>2022-05-21 11:25:42</time>
      </trkpt>
      <trkpt lat="42.32778" lon="3.16088">
        <ele>477.2</ele>
        <time>2022-05-21 11:25:43</time>
      </trkpt>
      <trkpt lat="42.32782" lon="3.16088">
        <ele>477.2</ele>
        <time>2022-05-21 11:25:44</time>
      </trkpt>
      <trkpt lat="42.32786" lon="3.16087">
        <ele>477.4</ele>
        <time>2022-05-21 11:25:45</time>
      </trkpt>
      <trkpt lat="42.3279" lon="3.16086">
        <ele>477.4</ele>
        <time>2022-05-21 11:25:46</time>
      </trkpt>
      <trkpt lat="42.32794" lon="3.16085">
        <ele>477.4</ele>
        <time>2022-05-21 11:25:47</time>
      </trkpt>
      <trkpt lat="42.32799" lon="3.16083">
        <ele>477.4</ele>
        <time>2022-05-21 11:25:48</time>
      </trkpt>
      <trkpt lat="42.32803" lon="3.16082">
        <ele>477.6</ele>
        <time>2022-05-21 11:25:49</time>
      </trkpt>
      <trkpt lat="42.32807" lon="3.1608">
        <ele>477.6</ele>
        <time>2022-05-21 11:25:50</time>
      </trkpt>
      <trkpt lat="42.32811" lon="3.16077">
        <ele>477.6</ele>
        <time>2022-05-21 11:25:51</time>
      </trkpt>
      <trkpt lat="42.32815" lon="3.16075">
        <ele>477.8</ele>
        <time>2022-05-21 11:25:52</time>
      </trkpt>
      <trkpt lat="42.32819" lon="3.16073">
        <ele>477.8</ele>
        <time>2022-05-21 11:25:53</time>
      </trkpt>
      <trkpt lat="42.32824" lon="3.16071">
        <ele>477.8</ele>
        <time>2022-05-21 11:25:54</time>
      </trkpt>
      <trkpt lat="42.32828" lon="3.1607">
        <ele>478</ele>
        <time>2022-05-21 11:25:55</time>
      </trkpt>
      <trkpt lat="42.32832" lon="3.1607">
        <ele>478</ele>
        <time>2022-05-21 11:25:56</time>
      </trkpt>
      <trkpt lat="42.32837" lon="3.16071">
        <ele>478.2</ele>
        <time>2022-05-21 11:25:57</time>
      </trkpt>
      <trkpt lat="42.32841" lon="3.16071">
        <ele>478.4</ele>
        <time>2022-05-21 11:25:58</time>
      </trkpt>
      <trkpt lat="42.32845" lon="3.16072">
        <ele>478.6</ele>
        <time>2022-05-21 11:25:59</time>
      </trkpt>
      <trkpt lat="42.32849" lon="3.16073">
        <ele>478.8</ele>
        <time>2022-05-21 11:26:00</time>
      </trkpt>
      <trkpt lat="42.32853" lon="3.16074">
        <ele>479</ele>
        <time>2022-05-21 11:26:01</time>
      </trkpt>
      <trkpt lat="42.32858" lon="3.16074">
        <ele>479.2</ele>
        <time>2022-05-21 11:26:02</time>
      </trkpt>
      <trkpt lat="42.32862" lon="3.16074">
        <ele>479.4</ele>
        <time>2022-05-21 11:26:03</time>
      </trkpt>
      <trkpt lat="42.32866" lon="3.16075">
        <ele>479.6</ele>
        <time>2022-05-21 11:26:04</time>
      </trkpt>
      <trkpt lat="42.3287" lon="3.16074">
        <ele>479.8</ele>
        <time>2022-05-21 11:26:05</time>
      </trkpt>
      <trkpt lat="42.32874" lon="3.16074">
        <ele>480.2</ele>
        <time>2022-05-21 11:26:06</time>
      </trkpt>
      <trkpt lat="42.32878" lon="3.16073">
        <ele>480.4</ele>
        <time>2022-05-21 11:26:07</time>
      </trkpt>
      <trkpt lat="42.32882" lon="3.16072">
        <ele>480.6</ele>
        <time>2022-05-21 11:26:08</time>
      </trkpt>
      <trkpt lat="42.32886" lon="3.16071">
        <ele>480.8</ele>
        <time>2022-05-21 11:26:09</time>
      </trkpt>
      <trkpt lat="42.32889" lon="3.16069">
        <ele>481</ele>
        <time>2022-05-21 11:26:10</time>
      </trkpt>
      <trkpt lat="42.32893" lon="3.16067">
        <ele>481.2</ele>
        <time>2022-05-21 11:26:11</time>
      </trkpt>
      <trkpt lat="42.32895" lon="3.16064">
        <ele>481.6</ele>
        <time>2022-05-21 11:26:12</time>
      </trkpt>
      <trkpt lat="42.32898" lon="3.1606">
        <ele>481.8</ele>
        <time>2022-05-21 11:26:13</time>
      </trkpt>
      <trkpt lat="42.32899" lon="3.16056">
        <ele>482.2</ele>
        <time>2022-05-21 11:26:14</time>
      </trkpt>
      <trkpt lat="42.32901" lon="3.16051">
        <ele>482.6</ele>
        <time>2022-05-21 11:26:15</time>
      </trkpt>
      <trkpt lat="42.32902" lon="3.16046">
        <ele>482.8</ele>
        <time>2022-05-21 11:26:16</time>
      </trkpt>
      <trkpt lat="42.32903" lon="3.16042">
        <ele>483</ele>
        <time>2022-05-21 11:26:17</time>
      </trkpt>
      <trkpt lat="42.32903" lon="3.16038">
        <ele>483.4</ele>
        <time>2022-05-21 11:26:18</time>
      </trkpt>
      <trkpt lat="42.32904" lon="3.16033">
        <ele>483.8</ele>
        <time>2022-05-21 11:26:19</time>
      </trkpt>
      <trkpt lat="42.32905" lon="3.16029">
        <ele>484</ele>
        <time>2022-05-21 11:26:20</time>
      </trkpt>
      <trkpt lat="42.32905" lon="3.16025">
        <ele>484.4</ele>
        <time>2022-05-21 11:26:21</time>
      </trkpt>
      <trkpt lat="42.32905" lon="3.16021">
        <ele>484.6</ele>
        <time>2022-05-21 11:26:22</time>
      </trkpt>
      <trkpt lat="42.32905" lon="3.16017">
        <ele>484.8</ele>
        <time>2022-05-21 11:26:23</time>
      </trkpt>
      <trkpt lat="42.32905" lon="3.16012">
        <ele>485.2</ele>
        <time>2022-05-21 11:26:24</time>
      </trkpt>
      <trkpt lat="42.32905" lon="3.16008">
        <ele>485.4</ele>
        <time>2022-05-21 11:26:25</time>
      </trkpt>
      <trkpt lat="42.32905" lon="3.16004">
        <ele>485.6</ele>
        <time>2022-05-21 11:26:26</time>
      </trkpt>
      <trkpt lat="42.32905" lon="3.16">
        <ele>485.8</ele>
        <time>2022-05-21 11:26:27</time>
      </trkpt>
      <trkpt lat="42.32905" lon="3.15995">
        <ele>486</ele>
        <time>2022-05-21 11:26:28</time>
      </trkpt>
      <trkpt lat="42.32905" lon="3.15991">
        <ele>486.2</ele>
        <time>2022-05-21 11:26:29</time>
      </trkpt>
      <trkpt lat="42.32905" lon="3.15986">
        <ele>486.2</ele>
        <time>2022-05-21 11:26:30</time>
      </trkpt>
      <trkpt lat="42.32905" lon="3.15982">
        <ele>486.4</ele>
        <time>2022-05-21 11:26:31</time>
      </trkpt>
      <trkpt lat="42.32905" lon="3.15977">
        <ele>486.4</ele>
        <time>2022-05-21 11:26:32</time>
      </trkpt>
      <trkpt lat="42.32905" lon="3.15973">
        <ele>486.6</ele>
        <time>2022-05-21 11:26:33</time>
      </trkpt>
      <trkpt lat="42.32905" lon="3.15968">
        <ele>486.6</ele>
        <time>2022-05-21 11:26:34</time>
      </trkpt>
      <trkpt lat="42.32905" lon="3.15964">
        <ele>486.8</ele>
        <time>2022-05-21 11:26:35</time>
      </trkpt>
      <trkpt lat="42.32905" lon="3.15961">
        <ele>486.8</ele>
        <time>2022-05-21 11:26:36</time>
      </trkpt>
      <trkpt lat="42.32905" lon="3.15958">
        <ele>487</ele>
        <time>2022-05-21 11:26:37</time>
      </trkpt>
      <trkpt lat="42.32906" lon="3.15952">
        <ele>487.2</ele>
        <time>2022-05-21 11:26:38</time>
      </trkpt>
      <trkpt lat="42.32907" lon="3.15948">
        <ele>487.4</ele>
        <time>2022-05-21 11:26:39</time>
      </trkpt>
      <trkpt lat="42.32908" lon="3.15944">
        <ele>487.6</ele>
        <time>2022-05-21 11:26:40</time>
      </trkpt>
      <trkpt lat="42.32909" lon="3.15941">
        <ele>487.8</ele>
        <time>2022-05-21 11:26:41</time>
      </trkpt>
      <trkpt lat="42.32911" lon="3.15938">
        <ele>488</ele>
        <time>2022-05-21 11:26:42</time>
      </trkpt>
      <trkpt lat="42.32912" lon="3.15934">
        <ele>488.2</ele>
        <time>2022-05-21 11:26:43</time>
      </trkpt>
      <trkpt lat="42.32913" lon="3.15931">
        <ele>488.6</ele>
        <time>2022-05-21 11:26:44</time>
      </trkpt>
      <trkpt lat="42.32915" lon="3.15928">
        <ele>488.8</ele>
        <time>2022-05-21 11:26:45</time>
      </trkpt>
      <trkpt lat="42.32917" lon="3.15925">
        <ele>489</ele>
        <time>2022-05-21 11:26:46</time>
      </trkpt>
      <trkpt lat="42.32918" lon="3.15923">
        <ele>489.4</ele>
        <time>2022-05-21 11:26:47</time>
      </trkpt>
      <trkpt lat="42.3292" lon="3.1592">
        <ele>489.6</ele>
        <time>2022-05-21 11:26:48</time>
      </trkpt>
      <trkpt lat="42.32922" lon="3.15918">
        <ele>489.8</ele>
        <time>2022-05-21 11:26:49</time>
      </trkpt>
      <trkpt lat="42.32924" lon="3.15916">
        <ele>490.2</ele>
        <time>2022-05-21 11:26:50</time>
      </trkpt>
      <trkpt lat="42.32926" lon="3.15913">
        <ele>490.4</ele>
        <time>2022-05-21 11:26:51</time>
      </trkpt>
      <trkpt lat="42.32928" lon="3.15911">
        <ele>490.8</ele>
        <time>2022-05-21 11:26:52</time>
      </trkpt>
      <trkpt lat="42.3293" lon="3.15909">
        <ele>491</ele>
        <time>2022-05-21 11:26:53</time>
      </trkpt>
      <trkpt lat="42.32932" lon="3.15907">
        <ele>491.4</ele>
        <time>2022-05-21 11:26:54</time>
      </trkpt>
      <trkpt lat="42.32934" lon="3.15904">
        <ele>491.8</ele>
        <time>2022-05-21 11:26:55</time>
      </trkpt>
      <trkpt lat="42.32937" lon="3.15903">
        <ele>492</ele>
        <time>2022-05-21 11:26:56</time>
      </trkpt>
      <trkpt lat="42.32939" lon="3.15901">
        <ele>492.4</ele>
        <time>2022-05-21 11:26:57</time>
      </trkpt>
      <trkpt lat="42.32942" lon="3.15899">
        <ele>492.6</ele>
        <time>2022-05-21 11:26:58</time>
      </trkpt>
      <trkpt lat="42.32944" lon="3.15896">
        <ele>492.8</ele>
        <time>2022-05-21 11:26:59</time>
      </trkpt>
      <trkpt lat="42.32947" lon="3.15894">
        <ele>493.2</ele>
        <time>2022-05-21 11:27:00</time>
      </trkpt>
      <trkpt lat="42.32949" lon="3.15891">
        <ele>493.4</ele>
        <time>2022-05-21 11:27:01</time>
      </trkpt>
      <trkpt lat="42.32951" lon="3.15888">
        <ele>493.6</ele>
        <time>2022-05-21 11:27:02</time>
      </trkpt>
      <trkpt lat="42.32953" lon="3.15886">
        <ele>493.8</ele>
        <time>2022-05-21 11:27:03</time>
      </trkpt>
      <trkpt lat="42.32954" lon="3.15883">
        <ele>494</ele>
        <time>2022-05-21 11:27:04</time>
      </trkpt>
      <trkpt lat="42.32956" lon="3.15879">
        <ele>494.4</ele>
        <time>2022-05-21 11:27:05</time>
      </trkpt>
      <trkpt lat="42.32957" lon="3.15876">
        <ele>494.6</ele>
        <time>2022-05-21 11:27:06</time>
      </trkpt>
      <trkpt lat="42.32958" lon="3.15872">
        <ele>494.8</ele>
        <time>2022-05-21 11:27:07</time>
      </trkpt>
      <trkpt lat="42.32959" lon="3.15869">
        <ele>495</ele>
        <time>2022-05-21 11:27:08</time>
      </trkpt>
      <trkpt lat="42.32959" lon="3.15865">
        <ele>495</ele>
        <time>2022-05-21 11:27:09</time>
      </trkpt>
      <trkpt lat="42.3296" lon="3.15862">
        <ele>495.2</ele>
        <time>2022-05-21 11:27:10</time>
      </trkpt>
      <trkpt lat="42.3296" lon="3.15858">
        <ele>495.4</ele>
        <time>2022-05-21 11:27:11</time>
      </trkpt>
      <trkpt lat="42.3296" lon="3.15854">
        <ele>495.4</ele>
        <time>2022-05-21 11:27:12</time>
      </trkpt>
      <trkpt lat="42.32961" lon="3.15851">
        <ele>495.6</ele>
        <time>2022-05-21 11:27:13</time>
      </trkpt>
      <trkpt lat="42.32961" lon="3.15847">
        <ele>495.8</ele>
        <time>2022-05-21 11:27:14</time>
      </trkpt>
      <trkpt lat="42.32962" lon="3.15843">
        <ele>496.2</ele>
        <time>2022-05-21 11:27:15</time>
      </trkpt>
      <trkpt lat="42.32962" lon="3.15839">
        <ele>496.4</ele>
        <time>2022-05-21 11:27:16</time>
      </trkpt>
      <trkpt lat="42.32962" lon="3.15836">
        <ele>496.6</ele>
        <time>2022-05-21 11:27:17</time>
      </trkpt>
      <trkpt lat="42.32962" lon="3.15832">
        <ele>496.8</ele>
        <time>2022-05-21 11:27:18</time>
      </trkpt>
      <trkpt lat="42.32962" lon="3.15828">
        <ele>497</ele>
        <time>2022-05-21 11:27:19</time>
      </trkpt>
      <trkpt lat="42.32963" lon="3.15825">
        <ele>497.2</ele>
        <time>2022-05-21 11:27:20</time>
      </trkpt>
      <trkpt lat="42.32963" lon="3.15821">
        <ele>497.4</ele>
        <time>2022-05-21 11:27:21</time>
      </trkpt>
      <trkpt lat="42.32963" lon="3.15818">
        <ele>497.6</ele>
        <time>2022-05-21 11:27:22</time>
      </trkpt>
      <trkpt lat="42.32963" lon="3.15814">
        <ele>498</ele>
        <time>2022-05-21 11:27:23</time>
      </trkpt>
      <trkpt lat="42.32964" lon="3.15811">
        <ele>498.2</ele>
        <time>2022-05-21 11:27:24</time>
      </trkpt>
      <trkpt lat="42.32964" lon="3.15808">
        <ele>498.4</ele>
        <time>2022-05-21 11:27:25</time>
      </trkpt>
      <trkpt lat="42.32964" lon="3.15805">
        <ele>498.8</ele>
        <time>2022-05-21 11:27:26</time>
      </trkpt>
      <trkpt lat="42.32965" lon="3.15801">
        <ele>499</ele>
        <time>2022-05-21 11:27:27</time>
      </trkpt>
      <trkpt lat="42.32965" lon="3.15798">
        <ele>499.4</ele>
        <time>2022-05-21 11:27:28</time>
      </trkpt>
      <trkpt lat="42.32965" lon="3.15795">
        <ele>499.6</ele>
        <time>2022-05-21 11:27:29</time>
      </trkpt>
      <trkpt lat="42.32965" lon="3.15791">
        <ele>499.8</ele>
        <time>2022-05-21 11:27:30</time>
      </trkpt>
      <trkpt lat="42.32965" lon="3.15788">
        <ele>500</ele>
        <time>2022-05-21 11:27:31</time>
      </trkpt>
      <trkpt lat="42.32966" lon="3.15785">
        <ele>500.2</ele>
        <time>2022-05-21 11:27:32</time>
      </trkpt>
      <trkpt lat="42.32966" lon="3.15781">
        <ele>500.6</ele>
        <time>2022-05-21 11:27:33</time>
      </trkpt>
      <trkpt lat="42.32967" lon="3.15778">
        <ele>500.8</ele>
        <time>2022-05-21 11:27:34</time>
      </trkpt>
      <trkpt lat="42.32967" lon="3.15774">
        <ele>501</ele>
        <time>2022-05-21 11:27:35</time>
      </trkpt>
      <trkpt lat="42.32967" lon="3.15771">
        <ele>501.2</ele>
        <time>2022-05-21 11:27:36</time>
      </trkpt>
      <trkpt lat="42.32967" lon="3.15767">
        <ele>501.4</ele>
        <time>2022-05-21 11:27:37</time>
      </trkpt>
      <trkpt lat="42.32967" lon="3.15764">
        <ele>501.6</ele>
        <time>2022-05-21 11:27:38</time>
      </trkpt>
      <trkpt lat="42.32968" lon="3.15761">
        <ele>501.8</ele>
        <time>2022-05-21 11:27:39</time>
      </trkpt>
      <trkpt lat="42.32968" lon="3.15757">
        <ele>502</ele>
        <time>2022-05-21 11:27:40</time>
      </trkpt>
      <trkpt lat="42.32968" lon="3.15754">
        <ele>502.4</ele>
        <time>2022-05-21 11:27:41</time>
      </trkpt>
      <trkpt lat="42.32968" lon="3.15751">
        <ele>502.6</ele>
        <time>2022-05-21 11:27:42</time>
      </trkpt>
      <trkpt lat="42.32968" lon="3.15747">
        <ele>502.8</ele>
        <time>2022-05-21 11:27:43</time>
      </trkpt>
      <trkpt lat="42.32968" lon="3.15744">
        <ele>502.8</ele>
        <time>2022-05-21 11:27:44</time>
      </trkpt>
      <trkpt lat="42.32969" lon="3.1574">
        <ele>503</ele>
        <time>2022-05-21 11:27:45</time>
      </trkpt>
      <trkpt lat="42.32969" lon="3.15737">
        <ele>503.4</ele>
        <time>2022-05-21 11:27:46</time>
      </trkpt>
      <trkpt lat="42.32969" lon="3.15733">
        <ele>503.4</ele>
        <time>2022-05-21 11:27:47</time>
      </trkpt>
      <trkpt lat="42.32968" lon="3.15729">
        <ele>503.6</ele>
        <time>2022-05-21 11:27:48</time>
      </trkpt>
      <trkpt lat="42.32968" lon="3.15725">
        <ele>503.8</ele>
        <time>2022-05-21 11:27:49</time>
      </trkpt>
      <trkpt lat="42.32966" lon="3.15722">
        <ele>503.8</ele>
        <time>2022-05-21 11:27:50</time>
      </trkpt>
      <trkpt lat="42.32965" lon="3.1572">
        <ele>504</ele>
        <time>2022-05-21 11:27:51</time>
      </trkpt>
      <trkpt lat="42.32962" lon="3.15717">
        <ele>504.2</ele>
        <time>2022-05-21 11:27:52</time>
      </trkpt>
      <trkpt lat="42.32959" lon="3.15716">
        <ele>504.4</ele>
        <time>2022-05-21 11:27:53</time>
      </trkpt>
      <trkpt lat="42.32956" lon="3.15716">
        <ele>504.6</ele>
        <time>2022-05-21 11:27:54</time>
      </trkpt>
      <trkpt lat="42.32953" lon="3.15716">
        <ele>505</ele>
        <time>2022-05-21 11:27:55</time>
      </trkpt>
      <trkpt lat="42.3295" lon="3.15717">
        <ele>505.2</ele>
        <time>2022-05-21 11:27:56</time>
      </trkpt>
      <trkpt lat="42.32947" lon="3.15718">
        <ele>505.4</ele>
        <time>2022-05-21 11:27:57</time>
      </trkpt>
      <trkpt lat="42.32945" lon="3.15718">
        <ele>505.8</ele>
        <time>2022-05-21 11:27:58</time>
      </trkpt>
      <trkpt lat="42.32942" lon="3.15719">
        <ele>506</ele>
        <time>2022-05-21 11:27:59</time>
      </trkpt>
      <trkpt lat="42.3294" lon="3.1572">
        <ele>506.2</ele>
        <time>2022-05-21 11:28:00</time>
      </trkpt>
      <trkpt lat="42.32937" lon="3.15722">
        <ele>506.6</ele>
        <time>2022-05-21 11:28:01</time>
      </trkpt>
      <trkpt lat="42.32935" lon="3.15723">
        <ele>506.8</ele>
        <time>2022-05-21 11:28:02</time>
      </trkpt>
      <trkpt lat="42.32933" lon="3.15724">
        <ele>507</ele>
        <time>2022-05-21 11:28:03</time>
      </trkpt>
      <trkpt lat="42.3293" lon="3.15726">
        <ele>507.2</ele>
        <time>2022-05-21 11:28:04</time>
      </trkpt>
      <trkpt lat="42.32928" lon="3.15728">
        <ele>507.6</ele>
        <time>2022-05-21 11:28:05</time>
      </trkpt>
      <trkpt lat="42.32926" lon="3.1573">
        <ele>507.8</ele>
        <time>2022-05-21 11:28:06</time>
      </trkpt>
      <trkpt lat="42.32923" lon="3.15732">
        <ele>508</ele>
        <time>2022-05-21 11:28:07</time>
      </trkpt>
      <trkpt lat="42.32921" lon="3.15734">
        <ele>508.2</ele>
        <time>2022-05-21 11:28:08</time>
      </trkpt>
      <trkpt lat="42.32919" lon="3.15737">
        <ele>508.4</ele>
        <time>2022-05-21 11:28:09</time>
      </trkpt>
      <trkpt lat="42.32917" lon="3.15739">
        <ele>508.6</ele>
        <time>2022-05-21 11:28:10</time>
      </trkpt>
      <trkpt lat="42.32915" lon="3.15741">
        <ele>508.6</ele>
        <time>2022-05-21 11:28:11</time>
      </trkpt>
      <trkpt lat="42.32913" lon="3.15743">
        <ele>508.8</ele>
        <time>2022-05-21 11:28:12</time>
      </trkpt>
      <trkpt lat="42.32912" lon="3.15745">
        <ele>509</ele>
        <time>2022-05-21 11:28:13</time>
      </trkpt>
      <trkpt lat="42.3291" lon="3.15747">
        <ele>509.2</ele>
        <time>2022-05-21 11:28:14</time>
      </trkpt>
      <trkpt lat="42.32909" lon="3.15749">
        <ele>509.2</ele>
        <time>2022-05-21 11:28:15</time>
      </trkpt>
      <trkpt lat="42.32909" lon="3.1575">
        <ele>509.4</ele>
        <time>2022-05-21 11:28:16</time>
      </trkpt>
      <trkpt lat="42.32908" lon="3.15743">
        <ele>509.8</ele>
        <time>2022-05-21 11:46:05</time>
      </trkpt>
      <trkpt lat="42.3291" lon="3.1574">
        <ele>509.8</ele>
        <time>2022-05-21 11:46:06</time>
      </trkpt>
      <trkpt lat="42.32913" lon="3.15738">
        <ele>509.6</ele>
        <time>2022-05-21 11:46:07</time>
      </trkpt>
      <trkpt lat="42.32916" lon="3.15735">
        <ele>509.6</ele>
        <time>2022-05-21 11:46:08</time>
      </trkpt>
      <trkpt lat="42.3292" lon="3.15732">
        <ele>509.4</ele>
        <time>2022-05-21 11:46:09</time>
      </trkpt>
      <trkpt lat="42.32923" lon="3.1573">
        <ele>509.4</ele>
        <time>2022-05-21 11:46:10</time>
      </trkpt>
      <trkpt lat="42.32927" lon="3.15728">
        <ele>509.2</ele>
        <time>2022-05-21 11:46:11</time>
      </trkpt>
      <trkpt lat="42.32932" lon="3.15725">
        <ele>509</ele>
        <time>2022-05-21 11:46:12</time>
      </trkpt>
      <trkpt lat="42.32936" lon="3.15722">
        <ele>508.8</ele>
        <time>2022-05-21 11:46:13</time>
      </trkpt>
      <trkpt lat="42.32941" lon="3.1572">
        <ele>508.4</ele>
        <time>2022-05-21 11:46:14</time>
      </trkpt>
      <trkpt lat="42.32947" lon="3.15718">
        <ele>508</ele>
        <time>2022-05-21 11:46:15</time>
      </trkpt>
      <trkpt lat="42.32952" lon="3.15716">
        <ele>507.6</ele>
        <time>2022-05-21 11:46:16</time>
      </trkpt>
      <trkpt lat="42.32957" lon="3.15714">
        <ele>507.2</ele>
        <time>2022-05-21 11:46:17</time>
      </trkpt>
      <trkpt lat="42.32963" lon="3.15712">
        <ele>506.8</ele>
        <time>2022-05-21 11:46:18</time>
      </trkpt>
      <trkpt lat="42.32968" lon="3.15708">
        <ele>506.2</ele>
        <time>2022-05-21 11:46:19</time>
      </trkpt>
      <trkpt lat="42.32973" lon="3.15702">
        <ele>505.6</ele>
        <time>2022-05-21 11:46:20</time>
      </trkpt>
      <trkpt lat="42.32976" lon="3.15695">
        <ele>505</ele>
        <time>2022-05-21 11:46:21</time>
      </trkpt>
      <trkpt lat="42.32977" lon="3.15686">
        <ele>504.2</ele>
        <time>2022-05-21 11:46:22</time>
      </trkpt>
      <trkpt lat="42.32975" lon="3.15677">
        <ele>503.4</ele>
        <time>2022-05-21 11:46:23</time>
      </trkpt>
      <trkpt lat="42.32971" lon="3.15668">
        <ele>502.2</ele>
        <time>2022-05-21 11:46:24</time>
      </trkpt>
      <trkpt lat="42.32967" lon="3.15659">
        <ele>501.4</ele>
        <time>2022-05-21 11:46:25</time>
      </trkpt>
      <trkpt lat="42.32962" lon="3.1565">
        <ele>500.6</ele>
        <time>2022-05-21 11:46:26</time>
      </trkpt>
      <trkpt lat="42.32958" lon="3.1564">
        <ele>499.8</ele>
        <time>2022-05-21 11:46:27</time>
      </trkpt>
      <trkpt lat="42.32955" lon="3.15629">
        <ele>499.2</ele>
        <time>2022-05-21 11:46:28</time>
      </trkpt>
      <trkpt lat="42.32953" lon="3.15617">
        <ele>498.6</ele>
        <time>2022-05-21 11:46:29</time>
      </trkpt>
      <trkpt lat="42.3295" lon="3.15605">
        <ele>497.8</ele>
        <time>2022-05-21 11:46:30</time>
      </trkpt>
      <trkpt lat="42.32949" lon="3.15592">
        <ele>497.2</ele>
        <time>2022-05-21 11:46:31</time>
      </trkpt>
      <trkpt lat="42.32947" lon="3.15579">
        <ele>496.6</ele>
        <time>2022-05-21 11:46:32</time>
      </trkpt>
      <trkpt lat="42.32946" lon="3.15566">
        <ele>496</ele>
        <time>2022-05-21 11:46:33</time>
      </trkpt>
      <trkpt lat="42.32945" lon="3.15553">
        <ele>495.6</ele>
        <time>2022-05-21 11:46:34</time>
      </trkpt>
      <trkpt lat="42.32944" lon="3.1554">
        <ele>495</ele>
        <time>2022-05-21 11:46:35</time>
      </trkpt>
      <trkpt lat="42.32943" lon="3.15527">
        <ele>494.4</ele>
        <time>2022-05-21 11:46:36</time>
      </trkpt>
      <trkpt lat="42.3294" lon="3.15515">
        <ele>493.8</ele>
        <time>2022-05-21 11:46:37</time>
      </trkpt>
      <trkpt lat="42.32934" lon="3.15505">
        <ele>493</ele>
        <time>2022-05-21 11:46:38</time>
      </trkpt>
      <trkpt lat="42.32928" lon="3.15496">
        <ele>492.4</ele>
        <time>2022-05-21 11:46:39</time>
      </trkpt>
      <trkpt lat="42.32919" lon="3.15491">
        <ele>491.6</ele>
        <time>2022-05-21 11:46:40</time>
      </trkpt>
      <trkpt lat="42.32909" lon="3.15487">
        <ele>490.8</ele>
        <time>2022-05-21 11:46:41</time>
      </trkpt>
      <trkpt lat="42.32899" lon="3.15483">
        <ele>490</ele>
        <time>2022-05-21 11:46:42</time>
      </trkpt>
      <trkpt lat="42.32888" lon="3.1548">
        <ele>489.2</ele>
        <time>2022-05-21 11:46:43</time>
      </trkpt>
      <trkpt lat="42.32879" lon="3.15475">
        <ele>488.4</ele>
        <time>2022-05-21 11:46:44</time>
      </trkpt>
      <trkpt lat="42.32869" lon="3.15468">
        <ele>487.6</ele>
        <time>2022-05-21 11:46:45</time>
      </trkpt>
      <trkpt lat="42.32863" lon="3.15457">
        <ele>486.8</ele>
        <time>2022-05-21 11:46:46</time>
      </trkpt>
      <trkpt lat="42.32862" lon="3.15443">
        <ele>486.2</ele>
        <time>2022-05-21 11:46:47</time>
      </trkpt>
      <trkpt lat="42.3286" lon="3.15428">
        <ele>485.4</ele>
        <time>2022-05-21 11:46:48</time>
      </trkpt>
      <trkpt lat="42.32858" lon="3.15414">
        <ele>484.6</ele>
        <time>2022-05-21 11:46:49</time>
      </trkpt>
      <trkpt lat="42.32855" lon="3.154">
        <ele>484</ele>
        <time>2022-05-21 11:46:50</time>
      </trkpt>
      <trkpt lat="42.32851" lon="3.15387">
        <ele>483.4</ele>
        <time>2022-05-21 11:46:51</time>
      </trkpt>
      <trkpt lat="42.32844" lon="3.15376">
        <ele>482.6</ele>
        <time>2022-05-21 11:46:52</time>
      </trkpt>
      <trkpt lat="42.32837" lon="3.15365">
        <ele>482</ele>
        <time>2022-05-21 11:46:53</time>
      </trkpt>
      <trkpt lat="42.32828" lon="3.15355">
        <ele>481.2</ele>
        <time>2022-05-21 11:46:54</time>
      </trkpt>
      <trkpt lat="42.3282" lon="3.15345">
        <ele>480.8</ele>
        <time>2022-05-21 11:46:55</time>
      </trkpt>
      <trkpt lat="42.32811" lon="3.15336">
        <ele>480</ele>
        <time>2022-05-21 11:46:56</time>
      </trkpt>
      <trkpt lat="42.32802" lon="3.15326">
        <ele>479.4</ele>
        <time>2022-05-21 11:46:57</time>
      </trkpt>
      <trkpt lat="42.32794" lon="3.15316">
        <ele>478.8</ele>
        <time>2022-05-21 11:46:58</time>
      </trkpt>
      <trkpt lat="42.32785" lon="3.15307">
        <ele>478.4</ele>
        <time>2022-05-21 11:46:59</time>
      </trkpt>
      <trkpt lat="42.32777" lon="3.15298">
        <ele>478.4</ele>
        <time>2022-05-21 11:47:00</time>
      </trkpt>
      <trkpt lat="42.32769" lon="3.15292">
        <ele>478.4</ele>
        <time>2022-05-21 11:47:01</time>
      </trkpt>
      <trkpt lat="42.32761" lon="3.15286">
        <ele>478.6</ele>
        <time>2022-05-21 11:47:02</time>
      </trkpt>
      <trkpt lat="42.32752" lon="3.15282">
        <ele>478.8</ele>
        <time>2022-05-21 11:47:03</time>
      </trkpt>
      <trkpt lat="42.32744" lon="3.15279">
        <ele>478.8</ele>
        <time>2022-05-21 11:47:04</time>
      </trkpt>
      <trkpt lat="42.32735" lon="3.15275">
        <ele>479</ele>
        <time>2022-05-21 11:47:05</time>
      </trkpt>
      <trkpt lat="42.32728" lon="3.1527">
        <ele>479</ele>
        <time>2022-05-21 11:47:06</time>
      </trkpt>
      <trkpt lat="42.32721" lon="3.15264">
        <ele>478.8</ele>
        <time>2022-05-21 11:47:07</time>
      </trkpt>
      <trkpt lat="42.32715" lon="3.15256">
        <ele>478.8</ele>
        <time>2022-05-21 11:47:08</time>
      </trkpt>
      <trkpt lat="42.32709" lon="3.15247">
        <ele>478.8</ele>
        <time>2022-05-21 11:47:09</time>
      </trkpt>
      <trkpt lat="42.32705" lon="3.15238">
        <ele>479</ele>
        <time>2022-05-21 11:47:10</time>
      </trkpt>
      <trkpt lat="42.32701" lon="3.15229">
        <ele>479</ele>
        <time>2022-05-21 11:47:11</time>
      </trkpt>
      <trkpt lat="42.32698" lon="3.15219">
        <ele>479</ele>
        <time>2022-05-21 11:47:12</time>
      </trkpt>
      <trkpt lat="42.32696" lon="3.15209">
        <ele>479</ele>
        <time>2022-05-21 11:47:13</time>
      </trkpt>
      <trkpt lat="42.32693" lon="3.152">
        <ele>479</ele>
        <time>2022-05-21 11:47:14</time>
      </trkpt>
      <trkpt lat="42.32691" lon="3.1519">
        <ele>478.8</ele>
        <time>2022-05-21 11:47:15</time>
      </trkpt>
      <trkpt lat="42.32688" lon="3.1518">
        <ele>478.6</ele>
        <time>2022-05-21 11:47:16</time>
      </trkpt>
      <trkpt lat="42.32685" lon="3.1517">
        <ele>478.6</ele>
        <time>2022-05-21 11:47:17</time>
      </trkpt>
      <trkpt lat="42.32683" lon="3.1516">
        <ele>478.4</ele>
        <time>2022-05-21 11:47:18</time>
      </trkpt>
      <trkpt lat="42.3268" lon="3.1515">
        <ele>478.2</ele>
        <time>2022-05-21 11:47:19</time>
      </trkpt>
      <trkpt lat="42.32678" lon="3.1514">
        <ele>478</ele>
        <time>2022-05-21 11:47:20</time>
      </trkpt>
      <trkpt lat="42.32676" lon="3.15131">
        <ele>477.8</ele>
        <time>2022-05-21 11:47:21</time>
      </trkpt>
      <trkpt lat="42.32674" lon="3.15121">
        <ele>477.8</ele>
        <time>2022-05-21 11:47:22</time>
      </trkpt>
      <trkpt lat="42.32671" lon="3.15111">
        <ele>477.6</ele>
        <time>2022-05-21 11:47:23</time>
      </trkpt>
      <trkpt lat="42.32669" lon="3.15101">
        <ele>477.4</ele>
        <time>2022-05-21 11:47:24</time>
      </trkpt>
      <trkpt lat="42.32667" lon="3.15091">
        <ele>477.2</ele>
        <time>2022-05-21 11:47:25</time>
      </trkpt>
      <trkpt lat="42.32665" lon="3.15081">
        <ele>477</ele>
        <time>2022-05-21 11:47:26</time>
      </trkpt>
      <trkpt lat="42.32664" lon="3.1507">
        <ele>476.8</ele>
        <time>2022-05-21 11:47:27</time>
      </trkpt>
      <trkpt lat="42.32662" lon="3.1506">
        <ele>476.6</ele>
        <time>2022-05-21 11:47:28</time>
      </trkpt>
      <trkpt lat="42.32661" lon="3.15049">
        <ele>476.2</ele>
        <time>2022-05-21 11:47:29</time>
      </trkpt>
      <trkpt lat="42.3266" lon="3.15039">
        <ele>476.2</ele>
        <time>2022-05-21 11:47:30</time>
      </trkpt>
      <trkpt lat="42.32658" lon="3.15029">
        <ele>476</ele>
        <time>2022-05-21 11:47:31</time>
      </trkpt>
      <trkpt lat="42.32657" lon="3.15018">
        <ele>476</ele>
        <time>2022-05-21 11:47:32</time>
      </trkpt>
      <trkpt lat="42.32655" lon="3.15008">
        <ele>475.8</ele>
        <time>2022-05-21 11:47:33</time>
      </trkpt>
      <trkpt lat="42.32654" lon="3.14998">
        <ele>475.8</ele>
        <time>2022-05-21 11:47:34</time>
      </trkpt>
      <trkpt lat="42.32653" lon="3.14988">
        <ele>475.6</ele>
        <time>2022-05-21 11:47:35</time>
      </trkpt>
      <trkpt lat="42.32651" lon="3.14978">
        <ele>475.4</ele>
        <time>2022-05-21 11:47:36</time>
      </trkpt>
      <trkpt lat="42.32649" lon="3.14967">
        <ele>475.2</ele>
        <time>2022-05-21 11:47:37</time>
      </trkpt>
      <trkpt lat="42.32647" lon="3.14957">
        <ele>475</ele>
        <time>2022-05-21 11:47:38</time>
      </trkpt>
      <trkpt lat="42.32645" lon="3.14947">
        <ele>474.8</ele>
        <time>2022-05-21 11:47:39</time>
      </trkpt>
      <trkpt lat="42.32641" lon="3.14938">
        <ele>474.6</ele>
        <time>2022-05-21 11:47:40</time>
      </trkpt>
      <trkpt lat="42.32638" lon="3.14929">
        <ele>474.6</ele>
        <time>2022-05-21 11:47:41</time>
      </trkpt>
      <trkpt lat="42.32633" lon="3.1492">
        <ele>474.2</ele>
        <time>2022-05-21 11:47:42</time>
      </trkpt>
      <trkpt lat="42.32629" lon="3.14912">
        <ele>474</ele>
        <time>2022-05-21 11:47:43</time>
      </trkpt>
      <trkpt lat="42.32624" lon="3.14904">
        <ele>473.8</ele>
        <time>2022-05-21 11:47:44</time>
      </trkpt>
      <trkpt lat="42.32619" lon="3.14896">
        <ele>473.6</ele>
        <time>2022-05-21 11:47:45</time>
      </trkpt>
      <trkpt lat="42.32614" lon="3.14887">
        <ele>473.4</ele>
        <time>2022-05-21 11:47:46</time>
      </trkpt>
      <trkpt lat="42.32609" lon="3.14879">
        <ele>473.2</ele>
        <time>2022-05-21 11:47:47</time>
      </trkpt>
      <trkpt lat="42.32605" lon="3.14869">
        <ele>473</ele>
        <time>2022-05-21 11:47:48</time>
      </trkpt>
      <trkpt lat="42.32602" lon="3.1486">
        <ele>472.8</ele>
        <time>2022-05-21 11:47:49</time>
      </trkpt>
      <trkpt lat="42.32599" lon="3.1485">
        <ele>472.6</ele>
        <time>2022-05-21 11:47:50</time>
      </trkpt>
      <trkpt lat="42.32597" lon="3.14838">
        <ele>472.2</ele>
        <time>2022-05-21 11:47:51</time>
      </trkpt>
      <trkpt lat="42.32595" lon="3.14828">
        <ele>472</ele>
        <time>2022-05-21 11:47:52</time>
      </trkpt>
      <trkpt lat="42.32593" lon="3.14817">
        <ele>471.6</ele>
        <time>2022-05-21 11:47:53</time>
      </trkpt>
      <trkpt lat="42.32592" lon="3.14806">
        <ele>471.4</ele>
        <time>2022-05-21 11:47:54</time>
      </trkpt>
      <trkpt lat="42.32592" lon="3.14796">
        <ele>471</ele>
        <time>2022-05-21 11:47:55</time>
      </trkpt>
      <trkpt lat="42.32594" lon="3.14785">
        <ele>470.8</ele>
        <time>2022-05-21 11:47:56</time>
      </trkpt>
      <trkpt lat="42.32596" lon="3.14775">
        <ele>470.4</ele>
        <time>2022-05-21 11:47:57</time>
      </trkpt>
      <trkpt lat="42.326" lon="3.14764">
        <ele>469.8</ele>
        <time>2022-05-21 11:47:58</time>
      </trkpt>
      <trkpt lat="42.32605" lon="3.14754">
        <ele>469.2</ele>
        <time>2022-05-21 11:47:59</time>
      </trkpt>
      <trkpt lat="42.3261" lon="3.14742">
        <ele>468.6</ele>
        <time>2022-05-21 11:48:00</time>
      </trkpt>
      <trkpt lat="42.32615" lon="3.14729">
        <ele>467.6</ele>
        <time>2022-05-21 11:48:01</time>
      </trkpt>
      <trkpt lat="42.32617" lon="3.14715">
        <ele>466.6</ele>
        <time>2022-05-21 11:48:02</time>
      </trkpt>
      <trkpt lat="42.32616" lon="3.14701">
        <ele>465.6</ele>
        <time>2022-05-21 11:48:03</time>
      </trkpt>
      <trkpt lat="42.32613" lon="3.14686">
        <ele>464.6</ele>
        <time>2022-05-21 11:48:04</time>
      </trkpt>
      <trkpt lat="42.3261" lon="3.14672">
        <ele>463.6</ele>
        <time>2022-05-21 11:48:05</time>
      </trkpt>
      <trkpt lat="42.32606" lon="3.14657">
        <ele>462.6</ele>
        <time>2022-05-21 11:48:06</time>
      </trkpt>
      <trkpt lat="42.32604" lon="3.14642">
        <ele>461.6</ele>
        <time>2022-05-21 11:48:07</time>
      </trkpt>
      <trkpt lat="42.32602" lon="3.14626">
        <ele>461</ele>
        <time>2022-05-21 11:48:08</time>
      </trkpt>
      <trkpt lat="42.32601" lon="3.14611">
        <ele>460.2</ele>
        <time>2022-05-21 11:48:09</time>
      </trkpt>
      <trkpt lat="42.32601" lon="3.14595">
        <ele>459.8</ele>
        <time>2022-05-21 11:48:10</time>
      </trkpt>
      <trkpt lat="42.326" lon="3.14579">
        <ele>459.2</ele>
        <time>2022-05-21 11:48:11</time>
      </trkpt>
      <trkpt lat="42.32598" lon="3.14564">
        <ele>458.4</ele>
        <time>2022-05-21 11:48:12</time>
      </trkpt>
      <trkpt lat="42.32595" lon="3.14548">
        <ele>457.6</ele>
        <time>2022-05-21 11:48:13</time>
      </trkpt>
      <trkpt lat="42.32591" lon="3.14533">
        <ele>456.6</ele>
        <time>2022-05-21 11:48:14</time>
      </trkpt>
      <trkpt lat="42.32585" lon="3.14517">
        <ele>455.4</ele>
        <time>2022-05-21 11:48:15</time>
      </trkpt>
      <trkpt lat="42.32579" lon="3.14502">
        <ele>454.2</ele>
        <time>2022-05-21 11:48:16</time>
      </trkpt>
      <trkpt lat="42.32572" lon="3.14488">
        <ele>453</ele>
        <time>2022-05-21 11:48:17</time>
      </trkpt>
      <trkpt lat="42.32565" lon="3.14473">
        <ele>451.8</ele>
        <time>2022-05-21 11:48:18</time>
      </trkpt>
      <trkpt lat="42.32556" lon="3.14458">
        <ele>450.8</ele>
        <time>2022-05-21 11:48:19</time>
      </trkpt>
      <trkpt lat="42.32548" lon="3.14444">
        <ele>449.6</ele>
        <time>2022-05-21 11:48:20</time>
      </trkpt>
      <trkpt lat="42.32541" lon="3.1443">
        <ele>448.6</ele>
        <time>2022-05-21 11:48:21</time>
      </trkpt>
      <trkpt lat="42.32535" lon="3.14415">
        <ele>447.6</ele>
        <time>2022-05-21 11:48:22</time>
      </trkpt>
      <trkpt lat="42.3253" lon="3.144">
        <ele>446.4</ele>
        <time>2022-05-21 11:48:23</time>
      </trkpt>
      <trkpt lat="42.32528" lon="3.14384">
        <ele>445.6</ele>
        <time>2022-05-21 11:48:24</time>
      </trkpt>
      <trkpt lat="42.3253" lon="3.14368">
        <ele>444.6</ele>
        <time>2022-05-21 11:48:25</time>
      </trkpt>
      <trkpt lat="42.32534" lon="3.14354">
        <ele>443.6</ele>
        <time>2022-05-21 11:48:26</time>
      </trkpt>
      <trkpt lat="42.32539" lon="3.1434">
        <ele>442.8</ele>
        <time>2022-05-21 11:48:27</time>
      </trkpt>
      <trkpt lat="42.32546" lon="3.14326">
        <ele>442</ele>
        <time>2022-05-21 11:48:28</time>
      </trkpt>
      <trkpt lat="42.32552" lon="3.14311">
        <ele>441.2</ele>
        <time>2022-05-21 11:48:29</time>
      </trkpt>
      <trkpt lat="42.32559" lon="3.14296">
        <ele>440.2</ele>
        <time>2022-05-21 11:48:30</time>
      </trkpt>
      <trkpt lat="42.32565" lon="3.14281">
        <ele>439.4</ele>
        <time>2022-05-21 11:48:31</time>
      </trkpt>
      <trkpt lat="42.32571" lon="3.14266">
        <ele>438.4</ele>
        <time>2022-05-21 11:48:32</time>
      </trkpt>
      <trkpt lat="42.32577" lon="3.1425">
        <ele>437.4</ele>
        <time>2022-05-21 11:48:33</time>
      </trkpt>
      <trkpt lat="42.32582" lon="3.14232">
        <ele>436.2</ele>
        <time>2022-05-21 11:48:34</time>
      </trkpt>
      <trkpt lat="42.32586" lon="3.14212">
        <ele>434.8</ele>
        <time>2022-05-21 11:48:35</time>
      </trkpt>
      <trkpt lat="42.32588" lon="3.14194">
        <ele>433.6</ele>
        <time>2022-05-21 11:48:36</time>
      </trkpt>
      <trkpt lat="42.32591" lon="3.14176">
        <ele>432.4</ele>
        <time>2022-05-21 11:48:37</time>
      </trkpt>
      <trkpt lat="42.32596" lon="3.14159">
        <ele>431.4</ele>
        <time>2022-05-21 11:48:38</time>
      </trkpt>
      <trkpt lat="42.32603" lon="3.14144">
        <ele>430.4</ele>
        <time>2022-05-21 11:48:39</time>
      </trkpt>
      <trkpt lat="42.32612" lon="3.1413">
        <ele>429.4</ele>
        <time>2022-05-21 11:48:40</time>
      </trkpt>
      <trkpt lat="42.32621" lon="3.14118">
        <ele>428.4</ele>
        <time>2022-05-21 11:48:41</time>
      </trkpt>
      <trkpt lat="42.32631" lon="3.14106">
        <ele>427.6</ele>
        <time>2022-05-21 11:48:42</time>
      </trkpt>
      <trkpt lat="42.32641" lon="3.14094">
        <ele>426.6</ele>
        <time>2022-05-21 11:48:43</time>
      </trkpt>
      <trkpt lat="42.32652" lon="3.14083">
        <ele>426</ele>
        <time>2022-05-21 11:48:44</time>
      </trkpt>
      <trkpt lat="42.32663" lon="3.14073">
        <ele>425.4</ele>
        <time>2022-05-21 11:48:45</time>
      </trkpt>
      <trkpt lat="42.32673" lon="3.14062">
        <ele>424.6</ele>
        <time>2022-05-21 11:48:46</time>
      </trkpt>
      <trkpt lat="42.32684" lon="3.14052">
        <ele>423.6</ele>
        <time>2022-05-21 11:48:47</time>
      </trkpt>
      <trkpt lat="42.32697" lon="3.14042">
        <ele>422.6</ele>
        <time>2022-05-21 11:48:48</time>
      </trkpt>
      <trkpt lat="42.32709" lon="3.14036">
        <ele>421.8</ele>
        <time>2022-05-21 11:48:49</time>
      </trkpt>
      <trkpt lat="42.32721" lon="3.14034">
        <ele>420.8</ele>
        <time>2022-05-21 11:48:50</time>
      </trkpt>
      <trkpt lat="42.32734" lon="3.14035">
        <ele>419.8</ele>
        <time>2022-05-21 11:48:51</time>
      </trkpt>
      <trkpt lat="42.32747" lon="3.14039">
        <ele>418.8</ele>
        <time>2022-05-21 11:48:52</time>
      </trkpt>
      <trkpt lat="42.3276" lon="3.14043">
        <ele>417.8</ele>
        <time>2022-05-21 11:48:53</time>
      </trkpt>
      <trkpt lat="42.32772" lon="3.14044">
        <ele>417</ele>
        <time>2022-05-21 11:48:54</time>
      </trkpt>
      <trkpt lat="42.32785" lon="3.14041">
        <ele>415.8</ele>
        <time>2022-05-21 11:48:55</time>
      </trkpt>
      <trkpt lat="42.32797" lon="3.14035">
        <ele>414.4</ele>
        <time>2022-05-21 11:48:56</time>
      </trkpt>
      <trkpt lat="42.32808" lon="3.14027">
        <ele>413.2</ele>
        <time>2022-05-21 11:48:57</time>
      </trkpt>
      <trkpt lat="42.32818" lon="3.14016">
        <ele>412</ele>
        <time>2022-05-21 11:48:58</time>
      </trkpt>
      <trkpt lat="42.32827" lon="3.14003">
        <ele>411</ele>
        <time>2022-05-21 11:48:59</time>
      </trkpt>
      <trkpt lat="42.32833" lon="3.13989">
        <ele>409.8</ele>
        <time>2022-05-21 11:49:00</time>
      </trkpt>
      <trkpt lat="42.32838" lon="3.13973">
        <ele>408.6</ele>
        <time>2022-05-21 11:49:01</time>
      </trkpt>
      <trkpt lat="42.32842" lon="3.13959">
        <ele>407.6</ele>
        <time>2022-05-21 11:49:02</time>
      </trkpt>
      <trkpt lat="42.32848" lon="3.13947">
        <ele>406.6</ele>
        <time>2022-05-21 11:49:03</time>
      </trkpt>
      <trkpt lat="42.32857" lon="3.13939">
        <ele>406</ele>
        <time>2022-05-21 11:49:04</time>
      </trkpt>
      <trkpt lat="42.32866" lon="3.13934">
        <ele>405.4</ele>
        <time>2022-05-21 11:49:05</time>
      </trkpt>
      <trkpt lat="42.32876" lon="3.13928">
        <ele>404.6</ele>
        <time>2022-05-21 11:49:06</time>
      </trkpt>
      <trkpt lat="42.32884" lon="3.1392">
        <ele>403.8</ele>
        <time>2022-05-21 11:49:07</time>
      </trkpt>
      <trkpt lat="42.3289" lon="3.13909">
        <ele>403</ele>
        <time>2022-05-21 11:49:08</time>
      </trkpt>
      <trkpt lat="42.32892" lon="3.13895">
        <ele>402</ele>
        <time>2022-05-21 11:49:09</time>
      </trkpt>
      <trkpt lat="42.32892" lon="3.1388">
        <ele>401</ele>
        <time>2022-05-21 11:49:10</time>
      </trkpt>
      <trkpt lat="42.3289" lon="3.13865">
        <ele>400</ele>
        <time>2022-05-21 11:49:11</time>
      </trkpt>
      <trkpt lat="42.32887" lon="3.13848">
        <ele>398.8</ele>
        <time>2022-05-21 11:49:12</time>
      </trkpt>
      <trkpt lat="42.32884" lon="3.13832">
        <ele>397.8</ele>
        <time>2022-05-21 11:49:13</time>
      </trkpt>
      <trkpt lat="42.32883" lon="3.13816">
        <ele>396.6</ele>
        <time>2022-05-21 11:49:14</time>
      </trkpt>
      <trkpt lat="42.32885" lon="3.13799">
        <ele>395.6</ele>
        <time>2022-05-21 11:49:15</time>
      </trkpt>
      <trkpt lat="42.32889" lon="3.13783">
        <ele>394.8</ele>
        <time>2022-05-21 11:49:16</time>
      </trkpt>
      <trkpt lat="42.32894" lon="3.13767">
        <ele>393.8</ele>
        <time>2022-05-21 11:49:17</time>
      </trkpt>
      <trkpt lat="42.329" lon="3.13752">
        <ele>392.6</ele>
        <time>2022-05-21 11:49:18</time>
      </trkpt>
      <trkpt lat="42.32904" lon="3.13737">
        <ele>391.6</ele>
        <time>2022-05-21 11:49:19</time>
      </trkpt>
      <trkpt lat="42.32908" lon="3.13721">
        <ele>390.6</ele>
        <time>2022-05-21 11:49:20</time>
      </trkpt>
      <trkpt lat="42.32911" lon="3.13704">
        <ele>389.4</ele>
        <time>2022-05-21 11:49:21</time>
      </trkpt>
      <trkpt lat="42.32913" lon="3.13687">
        <ele>388.4</ele>
        <time>2022-05-21 11:49:22</time>
      </trkpt>
      <trkpt lat="42.32917" lon="3.13669">
        <ele>387.2</ele>
        <time>2022-05-21 11:49:23</time>
      </trkpt>
      <trkpt lat="42.32922" lon="3.13652">
        <ele>386.2</ele>
        <time>2022-05-21 11:49:24</time>
      </trkpt>
      <trkpt lat="42.32927" lon="3.13635">
        <ele>385.2</ele>
        <time>2022-05-21 11:49:25</time>
      </trkpt>
      <trkpt lat="42.32932" lon="3.13619">
        <ele>384.4</ele>
        <time>2022-05-21 11:49:26</time>
      </trkpt>
      <trkpt lat="42.32937" lon="3.13602">
        <ele>383.4</ele>
        <time>2022-05-21 11:49:27</time>
      </trkpt>
      <trkpt lat="42.32942" lon="3.13587">
        <ele>382.6</ele>
        <time>2022-05-21 11:49:28</time>
      </trkpt>
      <trkpt lat="42.32946" lon="3.13573">
        <ele>381.8</ele>
        <time>2022-05-21 11:49:29</time>
      </trkpt>
      <trkpt lat="42.32951" lon="3.13561">
        <ele>381.2</ele>
        <time>2022-05-21 11:49:30</time>
      </trkpt>
      <trkpt lat="42.32958" lon="3.13551">
        <ele>380.6</ele>
        <time>2022-05-21 11:49:31</time>
      </trkpt>
      <trkpt lat="42.32965" lon="3.13546">
        <ele>380.2</ele>
        <time>2022-05-21 11:49:32</time>
      </trkpt>
      <trkpt lat="42.32974" lon="3.13545">
        <ele>379.6</ele>
        <time>2022-05-21 11:49:33</time>
      </trkpt>
      <trkpt lat="42.32982" lon="3.13548">
        <ele>379.2</ele>
        <time>2022-05-21 11:49:34</time>
      </trkpt>
      <trkpt lat="42.3299" lon="3.13551">
        <ele>378.6</ele>
        <time>2022-05-21 11:49:35</time>
      </trkpt>
      <trkpt lat="42.32998" lon="3.13554">
        <ele>378.2</ele>
        <time>2022-05-21 11:49:36</time>
      </trkpt>
      <trkpt lat="42.33004" lon="3.13551">
        <ele>377.6</ele>
        <time>2022-05-21 11:49:37</time>
      </trkpt>
      <trkpt lat="42.33008" lon="3.13543">
        <ele>377.2</ele>
        <time>2022-05-21 11:49:38</time>
      </trkpt>
      <trkpt lat="42.33007" lon="3.13534">
        <ele>376.4</ele>
        <time>2022-05-21 11:49:39</time>
      </trkpt>
      <trkpt lat="42.33003" lon="3.13525">
        <ele>375.8</ele>
        <time>2022-05-21 11:49:40</time>
      </trkpt>
      <trkpt lat="42.32996" lon="3.13518">
        <ele>375</ele>
        <time>2022-05-21 11:49:41</time>
      </trkpt>
      <trkpt lat="42.32988" lon="3.13512">
        <ele>374.4</ele>
        <time>2022-05-21 11:49:42</time>
      </trkpt>
      <trkpt lat="42.3298" lon="3.13506">
        <ele>373.6</ele>
        <time>2022-05-21 11:49:43</time>
      </trkpt>
      <trkpt lat="42.32972" lon="3.13499">
        <ele>372.8</ele>
        <time>2022-05-21 11:49:44</time>
      </trkpt>
      <trkpt lat="42.32964" lon="3.13492">
        <ele>372</ele>
        <time>2022-05-21 11:49:45</time>
      </trkpt>
      <trkpt lat="42.32957" lon="3.13484">
        <ele>371.4</ele>
        <time>2022-05-21 11:49:46</time>
      </trkpt>
      <trkpt lat="42.32953" lon="3.13475">
        <ele>370.8</ele>
        <time>2022-05-21 11:49:47</time>
      </trkpt>
      <trkpt lat="42.32953" lon="3.13467">
        <ele>370.4</ele>
        <time>2022-05-21 11:49:48</time>
      </trkpt>
      <trkpt lat="42.32956" lon="3.1346">
        <ele>370</ele>
        <time>2022-05-21 11:49:49</time>
      </trkpt>
      <trkpt lat="42.32962" lon="3.13455">
        <ele>369.4</ele>
        <time>2022-05-21 11:49:50</time>
      </trkpt>
      <trkpt lat="42.32969" lon="3.13453">
        <ele>369</ele>
        <time>2022-05-21 11:49:51</time>
      </trkpt>
      <trkpt lat="42.32977" lon="3.13451">
        <ele>368.4</ele>
        <time>2022-05-21 11:49:52</time>
      </trkpt>
      <trkpt lat="42.32985" lon="3.13448">
        <ele>367.8</ele>
        <time>2022-05-21 11:49:53</time>
      </trkpt>
      <trkpt lat="42.32992" lon="3.13443">
        <ele>367.2</ele>
        <time>2022-05-21 11:49:54</time>
      </trkpt>
      <trkpt lat="42.32999" lon="3.13435">
        <ele>366.4</ele>
        <time>2022-05-21 11:49:55</time>
      </trkpt>
      <trkpt lat="42.33004" lon="3.13425">
        <ele>365.6</ele>
        <time>2022-05-21 11:49:56</time>
      </trkpt>
      <trkpt lat="42.33007" lon="3.13412">
        <ele>364.8</ele>
        <time>2022-05-21 11:49:57</time>
      </trkpt>
      <trkpt lat="42.3301" lon="3.13399">
        <ele>364.2</ele>
        <time>2022-05-21 11:49:58</time>
      </trkpt>
      <trkpt lat="42.33013" lon="3.13386">
        <ele>363.4</ele>
        <time>2022-05-21 11:49:59</time>
      </trkpt>
      <trkpt lat="42.33016" lon="3.13372">
        <ele>362.6</ele>
        <time>2022-05-21 11:50:00</time>
      </trkpt>
      <trkpt lat="42.33018" lon="3.13358">
        <ele>361.8</ele>
        <time>2022-05-21 11:50:01</time>
      </trkpt>
      <trkpt lat="42.33019" lon="3.13344">
        <ele>361</ele>
        <time>2022-05-21 11:50:02</time>
      </trkpt>
      <trkpt lat="42.3302" lon="3.1333">
        <ele>360.2</ele>
        <time>2022-05-21 11:50:03</time>
      </trkpt>
      <trkpt lat="42.33021" lon="3.13315">
        <ele>359.6</ele>
        <time>2022-05-21 11:50:04</time>
      </trkpt>
      <trkpt lat="42.33022" lon="3.133">
        <ele>358.8</ele>
        <time>2022-05-21 11:50:05</time>
      </trkpt>
      <trkpt lat="42.33025" lon="3.13285">
        <ele>358</ele>
        <time>2022-05-21 11:50:06</time>
      </trkpt>
      <trkpt lat="42.33027" lon="3.1327">
        <ele>357.2</ele>
        <time>2022-05-21 11:50:07</time>
      </trkpt>
      <trkpt lat="42.3303" lon="3.13255">
        <ele>356.2</ele>
        <time>2022-05-21 11:50:08</time>
      </trkpt>
      <trkpt lat="42.33034" lon="3.1324">
        <ele>355.4</ele>
        <time>2022-05-21 11:50:09</time>
      </trkpt>
      <trkpt lat="42.33039" lon="3.13224">
        <ele>354.4</ele>
        <time>2022-05-21 11:50:10</time>
      </trkpt>
      <trkpt lat="42.33044" lon="3.13209">
        <ele>353.4</ele>
        <time>2022-05-21 11:50:11</time>
      </trkpt>
      <trkpt lat="42.33051" lon="3.13194">
        <ele>352.2</ele>
        <time>2022-05-21 11:50:12</time>
      </trkpt>
      <trkpt lat="42.33058" lon="3.1318">
        <ele>351.2</ele>
        <time>2022-05-21 11:50:13</time>
      </trkpt>
      <trkpt lat="42.33065" lon="3.13166">
        <ele>350</ele>
        <time>2022-05-21 11:50:14</time>
      </trkpt>
      <trkpt lat="42.33072" lon="3.13151">
        <ele>349</ele>
        <time>2022-05-21 11:50:15</time>
      </trkpt>
      <trkpt lat="42.33079" lon="3.13135">
        <ele>347.8</ele>
        <time>2022-05-21 11:50:16</time>
      </trkpt>
      <trkpt lat="42.33085" lon="3.13119">
        <ele>346.8</ele>
        <time>2022-05-21 11:50:17</time>
      </trkpt>
      <trkpt lat="42.33091" lon="3.13103">
        <ele>345.8</ele>
        <time>2022-05-21 11:50:18</time>
      </trkpt>
      <trkpt lat="42.33096" lon="3.13087">
        <ele>344.6</ele>
        <time>2022-05-21 11:50:19</time>
      </trkpt>
      <trkpt lat="42.33101" lon="3.13072">
        <ele>343.6</ele>
        <time>2022-05-21 11:50:20</time>
      </trkpt>
      <trkpt lat="42.33105" lon="3.13057">
        <ele>342.8</ele>
        <time>2022-05-21 11:50:21</time>
      </trkpt>
      <trkpt lat="42.33109" lon="3.13044">
        <ele>342</ele>
        <time>2022-05-21 11:50:22</time>
      </trkpt>
      <trkpt lat="42.33114" lon="3.13032">
        <ele>341.4</ele>
        <time>2022-05-21 11:50:23</time>
      </trkpt>
      <trkpt lat="42.33119" lon="3.13022">
        <ele>340.8</ele>
        <time>2022-05-21 11:50:24</time>
      </trkpt>
      <trkpt lat="42.33127" lon="3.13015">
        <ele>340.4</ele>
        <time>2022-05-21 11:50:25</time>
      </trkpt>
      <trkpt lat="42.33135" lon="3.13014">
        <ele>339.8</ele>
        <time>2022-05-21 11:50:26</time>
      </trkpt>
      <trkpt lat="42.33142" lon="3.13018">
        <ele>339.4</ele>
        <time>2022-05-21 11:50:27</time>
      </trkpt>
      <trkpt lat="42.33146" lon="3.13026">
        <ele>339</ele>
        <time>2022-05-21 11:50:28</time>
      </trkpt>
      <trkpt lat="42.33146" lon="3.13036">
        <ele>338.6</ele>
        <time>2022-05-21 11:50:29</time>
      </trkpt>
      <trkpt lat="42.33143" lon="3.13046">
        <ele>338.2</ele>
        <time>2022-05-21 11:50:30</time>
      </trkpt>
      <trkpt lat="42.3314" lon="3.13055">
        <ele>337.6</ele>
        <time>2022-05-21 11:50:31</time>
      </trkpt>
      <trkpt lat="42.33136" lon="3.13066">
        <ele>336.8</ele>
        <time>2022-05-21 11:50:32</time>
      </trkpt>
      <trkpt lat="42.33133" lon="3.13077">
        <ele>336.4</ele>
        <time>2022-05-21 11:50:33</time>
      </trkpt>
      <trkpt lat="42.3313" lon="3.13089">
        <ele>335.8</ele>
        <time>2022-05-21 11:50:34</time>
      </trkpt>
      <trkpt lat="42.33128" lon="3.13102">
        <ele>335.2</ele>
        <time>2022-05-21 11:50:35</time>
      </trkpt>
      <trkpt lat="42.33127" lon="3.13115">
        <ele>334.6</ele>
        <time>2022-05-21 11:50:36</time>
      </trkpt>
      <trkpt lat="42.33126" lon="3.13128">
        <ele>334</ele>
        <time>2022-05-21 11:50:37</time>
      </trkpt>
      <trkpt lat="42.33127" lon="3.13141">
        <ele>333.6</ele>
        <time>2022-05-21 11:50:38</time>
      </trkpt>
      <trkpt lat="42.33129" lon="3.13152">
        <ele>333.2</ele>
        <time>2022-05-21 11:50:39</time>
      </trkpt>
      <trkpt lat="42.33133" lon="3.13161">
        <ele>333</ele>
        <time>2022-05-21 11:50:40</time>
      </trkpt>
      <trkpt lat="42.33139" lon="3.13166">
        <ele>332.6</ele>
        <time>2022-05-21 11:50:41</time>
      </trkpt>
      <trkpt lat="42.33147" lon="3.13165">
        <ele>332.2</ele>
        <time>2022-05-21 11:50:42</time>
      </trkpt>
      <trkpt lat="42.33153" lon="3.13159">
        <ele>331.8</ele>
        <time>2022-05-21 11:50:43</time>
      </trkpt>
      <trkpt lat="42.33158" lon="3.13151">
        <ele>331.2</ele>
        <time>2022-05-21 11:50:44</time>
      </trkpt>
      <trkpt lat="42.33164" lon="3.13141">
        <ele>330.4</ele>
        <time>2022-05-21 11:50:45</time>
      </trkpt>
      <trkpt lat="42.33171" lon="3.13131">
        <ele>329.8</ele>
        <time>2022-05-21 11:50:46</time>
      </trkpt>
      <trkpt lat="42.33177" lon="3.1312">
        <ele>329</ele>
        <time>2022-05-21 11:50:47</time>
      </trkpt>
      <trkpt lat="42.33183" lon="3.13109">
        <ele>328.2</ele>
        <time>2022-05-21 11:50:48</time>
      </trkpt>
      <trkpt lat="42.3319" lon="3.13098">
        <ele>327.2</ele>
        <time>2022-05-21 11:50:49</time>
      </trkpt>
      <trkpt lat="42.33197" lon="3.13086">
        <ele>326.2</ele>
        <time>2022-05-21 11:50:50</time>
      </trkpt>
      <trkpt lat="42.33204" lon="3.13074">
        <ele>325.2</ele>
        <time>2022-05-21 11:50:51</time>
      </trkpt>
      <trkpt lat="42.33211" lon="3.13061">
        <ele>324.6</ele>
        <time>2022-05-21 11:50:52</time>
      </trkpt>
      <trkpt lat="42.33218" lon="3.1305">
        <ele>323.6</ele>
        <time>2022-05-21 11:50:53</time>
      </trkpt>
      <trkpt lat="42.33227" lon="3.13039">
        <ele>322.4</ele>
        <time>2022-05-21 11:50:54</time>
      </trkpt>
      <trkpt lat="42.33236" lon="3.13028">
        <ele>321.2</ele>
        <time>2022-05-21 11:50:55</time>
      </trkpt>
      <trkpt lat="42.33246" lon="3.13019">
        <ele>320.2</ele>
        <time>2022-05-21 11:50:56</time>
      </trkpt>
      <trkpt lat="42.33256" lon="3.1301">
        <ele>319.2</ele>
        <time>2022-05-21 11:50:57</time>
      </trkpt>
      <trkpt lat="42.33267" lon="3.13001">
        <ele>318.4</ele>
        <time>2022-05-21 11:50:58</time>
      </trkpt>
      <trkpt lat="42.33278" lon="3.12993">
        <ele>317.4</ele>
        <time>2022-05-21 11:50:59</time>
      </trkpt>
      <trkpt lat="42.33289" lon="3.12986">
        <ele>316.6</ele>
        <time>2022-05-21 11:51:00</time>
      </trkpt>
      <trkpt lat="42.33302" lon="3.12982">
        <ele>315.6</ele>
        <time>2022-05-21 11:51:01</time>
      </trkpt>
      <trkpt lat="42.33315" lon="3.1298">
        <ele>314.8</ele>
        <time>2022-05-21 11:51:02</time>
      </trkpt>
      <trkpt lat="42.33328" lon="3.12978">
        <ele>314</ele>
        <time>2022-05-21 11:51:03</time>
      </trkpt>
      <trkpt lat="42.33341" lon="3.12975">
        <ele>313.2</ele>
        <time>2022-05-21 11:51:04</time>
      </trkpt>
      <trkpt lat="42.33353" lon="3.1297">
        <ele>312</ele>
        <time>2022-05-21 11:51:05</time>
      </trkpt>
      <trkpt lat="42.33365" lon="3.12963">
        <ele>310.6</ele>
        <time>2022-05-21 11:51:06</time>
      </trkpt>
      <trkpt lat="42.33377" lon="3.12954">
        <ele>309.2</ele>
        <time>2022-05-21 11:51:07</time>
      </trkpt>
      <trkpt lat="42.33387" lon="3.12942">
        <ele>308</ele>
        <time>2022-05-21 11:51:08</time>
      </trkpt>
      <trkpt lat="42.33396" lon="3.12927">
        <ele>306.8</ele>
        <time>2022-05-21 11:51:09</time>
      </trkpt>
      <trkpt lat="42.33403" lon="3.12911">
        <ele>305.4</ele>
        <time>2022-05-21 11:51:10</time>
      </trkpt>
      <trkpt lat="42.33409" lon="3.12895">
        <ele>304</ele>
        <time>2022-05-21 11:51:11</time>
      </trkpt>
      <trkpt lat="42.33416" lon="3.12878">
        <ele>302.8</ele>
        <time>2022-05-21 11:51:12</time>
      </trkpt>
      <trkpt lat="42.33423" lon="3.12861">
        <ele>301.4</ele>
        <time>2022-05-21 11:51:13</time>
      </trkpt>
      <trkpt lat="42.33431" lon="3.12845">
        <ele>300.4</ele>
        <time>2022-05-21 11:51:14</time>
      </trkpt>
      <trkpt lat="42.33438" lon="3.12828">
        <ele>299</ele>
        <time>2022-05-21 11:51:15</time>
      </trkpt>
      <trkpt lat="42.33445" lon="3.12809">
        <ele>297.6</ele>
        <time>2022-05-21 11:51:16</time>
      </trkpt>
      <trkpt lat="42.33452" lon="3.12791">
        <ele>296.4</ele>
        <time>2022-05-21 11:51:17</time>
      </trkpt>
      <trkpt lat="42.33457" lon="3.12772">
        <ele>295</ele>
        <time>2022-05-21 11:51:18</time>
      </trkpt>
      <trkpt lat="42.33462" lon="3.12754">
        <ele>293.6</ele>
        <time>2022-05-21 11:51:19</time>
      </trkpt>
      <trkpt lat="42.33467" lon="3.12737">
        <ele>292.2</ele>
        <time>2022-05-21 11:51:20</time>
      </trkpt>
      <trkpt lat="42.33474" lon="3.12722">
        <ele>291.2</ele>
        <time>2022-05-21 11:51:21</time>
      </trkpt>
      <trkpt lat="42.33482" lon="3.1271">
        <ele>290.2</ele>
        <time>2022-05-21 11:51:22</time>
      </trkpt>
      <trkpt lat="42.33492" lon="3.12701">
        <ele>289.2</ele>
        <time>2022-05-21 11:51:23</time>
      </trkpt>
      <trkpt lat="42.33504" lon="3.12694">
        <ele>288.4</ele>
        <time>2022-05-21 11:51:24</time>
      </trkpt>
      <trkpt lat="42.33516" lon="3.12692">
        <ele>287.6</ele>
        <time>2022-05-21 11:51:25</time>
      </trkpt>
      <trkpt lat="42.33527" lon="3.12693">
        <ele>286.8</ele>
        <time>2022-05-21 11:51:26</time>
      </trkpt>
      <trkpt lat="42.33539" lon="3.12699">
        <ele>285.8</ele>
        <time>2022-05-21 11:51:27</time>
      </trkpt>
      <trkpt lat="42.33552" lon="3.12707">
        <ele>284.6</ele>
        <time>2022-05-21 11:51:28</time>
      </trkpt>
      <trkpt lat="42.33565" lon="3.12718">
        <ele>283.6</ele>
        <time>2022-05-21 11:51:29</time>
      </trkpt>
      <trkpt lat="42.33576" lon="3.12729">
        <ele>282.6</ele>
        <time>2022-05-21 11:51:30</time>
      </trkpt>
      <trkpt lat="42.33586" lon="3.1274">
        <ele>281.4</ele>
        <time>2022-05-21 11:51:31</time>
      </trkpt>
      <trkpt lat="42.33595" lon="3.12754">
        <ele>280.4</ele>
        <time>2022-05-21 11:51:32</time>
      </trkpt>
      <trkpt lat="42.33604" lon="3.12771">
        <ele>279.2</ele>
        <time>2022-05-21 11:51:33</time>
      </trkpt>
      <trkpt lat="42.33612" lon="3.12787">
        <ele>278</ele>
        <time>2022-05-21 11:51:34</time>
      </trkpt>
      <trkpt lat="42.3362" lon="3.12802">
        <ele>276.6</ele>
        <time>2022-05-21 11:51:35</time>
      </trkpt>
      <trkpt lat="42.33628" lon="3.12816">
        <ele>275.4</ele>
        <time>2022-05-21 11:51:36</time>
      </trkpt>
      <trkpt lat="42.33634" lon="3.12831">
        <ele>274.6</ele>
        <time>2022-05-21 11:51:37</time>
      </trkpt>
      <trkpt lat="42.33638" lon="3.12845">
        <ele>273.6</ele>
        <time>2022-05-21 11:51:38</time>
      </trkpt>
      <trkpt lat="42.33639" lon="3.12859">
        <ele>272.6</ele>
        <time>2022-05-21 11:51:39</time>
      </trkpt>
      <trkpt lat="42.33638" lon="3.12873">
        <ele>271.6</ele>
        <time>2022-05-21 11:51:40</time>
      </trkpt>
      <trkpt lat="42.33636" lon="3.12885">
        <ele>271</ele>
        <time>2022-05-21 11:51:41</time>
      </trkpt>
      <trkpt lat="42.33637" lon="3.12895">
        <ele>270.4</ele>
        <time>2022-05-21 11:51:42</time>
      </trkpt>
      <trkpt lat="42.33641" lon="3.12901">
        <ele>270</ele>
        <time>2022-05-21 11:51:43</time>
      </trkpt>
      <trkpt lat="42.33647" lon="3.12902">
        <ele>269.2</ele>
        <time>2022-05-21 11:51:44</time>
      </trkpt>
      <trkpt lat="42.33653" lon="3.12897">
        <ele>268.4</ele>
        <time>2022-05-21 11:51:45</time>
      </trkpt>
      <trkpt lat="42.33658" lon="3.12889">
        <ele>267.8</ele>
        <time>2022-05-21 11:51:46</time>
      </trkpt>
      <trkpt lat="42.3366" lon="3.12878">
        <ele>267</ele>
        <time>2022-05-21 11:51:47</time>
      </trkpt>
      <trkpt lat="42.33662" lon="3.12866">
        <ele>266.2</ele>
        <time>2022-05-21 11:51:48</time>
      </trkpt>
      <trkpt lat="42.33663" lon="3.12853">
        <ele>265.6</ele>
        <time>2022-05-21 11:51:49</time>
      </trkpt>
      <trkpt lat="42.33664" lon="3.12841">
        <ele>265</ele>
        <time>2022-05-21 11:51:50</time>
      </trkpt>
      <trkpt lat="42.33666" lon="3.12829">
        <ele>264.2</ele>
        <time>2022-05-21 11:51:51</time>
      </trkpt>
      <trkpt lat="42.33666" lon="3.12816">
        <ele>263.6</ele>
        <time>2022-05-21 11:51:52</time>
      </trkpt>
      <trkpt lat="42.33665" lon="3.12804">
        <ele>262.8</ele>
        <time>2022-05-21 11:51:53</time>
      </trkpt>
      <trkpt lat="42.33663" lon="3.12791">
        <ele>262</ele>
        <time>2022-05-21 11:51:54</time>
      </trkpt>
      <trkpt lat="42.33658" lon="3.12778">
        <ele>261.2</ele>
        <time>2022-05-21 11:51:55</time>
      </trkpt>
      <trkpt lat="42.33653" lon="3.12765">
        <ele>260.2</ele>
        <time>2022-05-21 11:51:56</time>
      </trkpt>
      <trkpt lat="42.33649" lon="3.12751">
        <ele>259.2</ele>
        <time>2022-05-21 11:51:57</time>
      </trkpt>
      <trkpt lat="42.33647" lon="3.12737">
        <ele>258.4</ele>
        <time>2022-05-21 11:51:58</time>
      </trkpt>
      <trkpt lat="42.33645" lon="3.12723">
        <ele>257.6</ele>
        <time>2022-05-21 11:51:59</time>
      </trkpt>
      <trkpt lat="42.33644" lon="3.12709">
        <ele>256.8</ele>
        <time>2022-05-21 11:52:00</time>
      </trkpt>
      <trkpt lat="42.33644" lon="3.12696">
        <ele>256</ele>
        <time>2022-05-21 11:52:01</time>
      </trkpt>
      <trkpt lat="42.33645" lon="3.12684">
        <ele>255.2</ele>
        <time>2022-05-21 11:52:02</time>
      </trkpt>
      <trkpt lat="42.33647" lon="3.12672">
        <ele>254.4</ele>
        <time>2022-05-21 11:52:03</time>
      </trkpt>
      <trkpt lat="42.3365" lon="3.12662">
        <ele>253.8</ele>
        <time>2022-05-21 11:52:04</time>
      </trkpt>
      <trkpt lat="42.33654" lon="3.12654">
        <ele>253</ele>
        <time>2022-05-21 11:52:05</time>
      </trkpt>
      <trkpt lat="42.33658" lon="3.12646">
        <ele>252.4</ele>
        <time>2022-05-21 11:52:06</time>
      </trkpt>
      <trkpt lat="42.33661" lon="3.12639">
        <ele>251.8</ele>
        <time>2022-05-21 11:52:07</time>
      </trkpt>
      <trkpt lat="42.33665" lon="3.12632">
        <ele>251.4</ele>
        <time>2022-05-21 11:52:08</time>
      </trkpt>
      <trkpt lat="42.33668" lon="3.12625">
        <ele>250.8</ele>
        <time>2022-05-21 11:52:09</time>
      </trkpt>
      <trkpt lat="42.33671" lon="3.12618">
        <ele>250.4</ele>
        <time>2022-05-21 11:52:10</time>
      </trkpt>
      <trkpt lat="42.33674" lon="3.12611">
        <ele>249.8</ele>
        <time>2022-05-21 11:52:11</time>
      </trkpt>
      <trkpt lat="42.33676" lon="3.12604">
        <ele>249.4</ele>
        <time>2022-05-21 11:52:12</time>
      </trkpt>
      <trkpt lat="42.33679" lon="3.12596">
        <ele>248.8</ele>
        <time>2022-05-21 11:52:13</time>
      </trkpt>
      <trkpt lat="42.33682" lon="3.12589">
        <ele>248.4</ele>
        <time>2022-05-21 11:52:14</time>
      </trkpt>
      <trkpt lat="42.33684" lon="3.1258">
        <ele>247.8</ele>
        <time>2022-05-21 11:52:15</time>
      </trkpt>
      <trkpt lat="42.33686" lon="3.12571">
        <ele>247</ele>
        <time>2022-05-21 11:52:16</time>
      </trkpt>
      <trkpt lat="42.33687" lon="3.1256">
        <ele>246.2</ele>
        <time>2022-05-21 11:52:17</time>
      </trkpt>
      <trkpt lat="42.33689" lon="3.12549">
        <ele>245.4</ele>
        <time>2022-05-21 11:52:18</time>
      </trkpt>
      <trkpt lat="42.3369" lon="3.12537">
        <ele>244.4</ele>
        <time>2022-05-21 11:52:19</time>
      </trkpt>
      <trkpt lat="42.33692" lon="3.12523">
        <ele>243.6</ele>
        <time>2022-05-21 11:52:20</time>
      </trkpt>
      <trkpt lat="42.33693" lon="3.12509">
        <ele>242.4</ele>
        <time>2022-05-21 11:52:21</time>
      </trkpt>
      <trkpt lat="42.33695" lon="3.12494">
        <ele>241.2</ele>
        <time>2022-05-21 11:52:22</time>
      </trkpt>
      <trkpt lat="42.33697" lon="3.12478">
        <ele>239.8</ele>
        <time>2022-05-21 11:52:23</time>
      </trkpt>
      <trkpt lat="42.33699" lon="3.12462">
        <ele>238.6</ele>
        <time>2022-05-21 11:52:24</time>
      </trkpt>
      <trkpt lat="42.33701" lon="3.12445">
        <ele>237.2</ele>
        <time>2022-05-21 11:52:25</time>
      </trkpt>
      <trkpt lat="42.33703" lon="3.12429">
        <ele>235.8</ele>
        <time>2022-05-21 11:52:26</time>
      </trkpt>
      <trkpt lat="42.33704" lon="3.12411">
        <ele>234.6</ele>
        <time>2022-05-21 11:52:27</time>
      </trkpt>
      <trkpt lat="42.33704" lon="3.12394">
        <ele>233.8</ele>
        <time>2022-05-21 11:52:28</time>
      </trkpt>
      <trkpt lat="42.33703" lon="3.12377">
        <ele>232.8</ele>
        <time>2022-05-21 11:52:29</time>
      </trkpt>
      <trkpt lat="42.33702" lon="3.12361">
        <ele>232</ele>
        <time>2022-05-21 11:52:30</time>
      </trkpt>
      <trkpt lat="42.33701" lon="3.12344">
        <ele>231.6</ele>
        <time>2022-05-21 11:52:31</time>
      </trkpt>
      <trkpt lat="42.33699" lon="3.12328">
        <ele>231</ele>
        <time>2022-05-21 11:52:32</time>
      </trkpt>
      <trkpt lat="42.33698" lon="3.12313">
        <ele>230.6</ele>
        <time>2022-05-21 11:52:33</time>
      </trkpt>
      <trkpt lat="42.33697" lon="3.12297">
        <ele>230</ele>
        <time>2022-05-21 11:52:34</time>
      </trkpt>
      <trkpt lat="42.33697" lon="3.12282">
        <ele>229</ele>
        <time>2022-05-21 11:52:35</time>
      </trkpt>
      <trkpt lat="42.33698" lon="3.12266">
        <ele>228</ele>
        <time>2022-05-21 11:52:36</time>
      </trkpt>
      <trkpt lat="42.337" lon="3.12251">
        <ele>226.8</ele>
        <time>2022-05-21 11:52:37</time>
      </trkpt>
      <trkpt lat="42.33704" lon="3.12235">
        <ele>225.8</ele>
        <time>2022-05-21 11:52:38</time>
      </trkpt>
      <trkpt lat="42.33709" lon="3.12219">
        <ele>224.6</ele>
        <time>2022-05-21 11:52:39</time>
      </trkpt>
      <trkpt lat="42.33715" lon="3.12204">
        <ele>223.6</ele>
        <time>2022-05-21 11:52:40</time>
      </trkpt>
      <trkpt lat="42.33718" lon="3.12188">
        <ele>222.2</ele>
        <time>2022-05-21 11:52:41</time>
      </trkpt>
      <trkpt lat="42.3372" lon="3.12172">
        <ele>221.2</ele>
        <time>2022-05-21 11:52:42</time>
      </trkpt>
      <trkpt lat="42.3372" lon="3.12156">
        <ele>220</ele>
        <time>2022-05-21 11:52:43</time>
      </trkpt>
      <trkpt lat="42.33717" lon="3.1214">
        <ele>218.8</ele>
        <time>2022-05-21 11:52:44</time>
      </trkpt>
      <trkpt lat="42.33714" lon="3.12124">
        <ele>217.4</ele>
        <time>2022-05-21 11:52:45</time>
      </trkpt>
      <trkpt lat="42.33709" lon="3.12106">
        <ele>216.2</ele>
        <time>2022-05-21 11:52:46</time>
      </trkpt>
      <trkpt lat="42.33704" lon="3.1209">
        <ele>215.2</ele>
        <time>2022-05-21 11:52:47</time>
      </trkpt>
      <trkpt lat="42.33699" lon="3.12075">
        <ele>214.2</ele>
        <time>2022-05-21 11:52:48</time>
      </trkpt>
      <trkpt lat="42.33693" lon="3.1206">
        <ele>213</ele>
        <time>2022-05-21 11:52:49</time>
      </trkpt>
      <trkpt lat="42.33687" lon="3.12041">
        <ele>211.8</ele>
        <time>2022-05-21 11:52:50</time>
      </trkpt>
      <trkpt lat="42.33683" lon="3.12025">
        <ele>210.4</ele>
        <time>2022-05-21 11:52:51</time>
      </trkpt>
      <trkpt lat="42.33681" lon="3.12007">
        <ele>209.2</ele>
        <time>2022-05-21 11:52:52</time>
      </trkpt>
      <trkpt lat="42.33681" lon="3.11989">
        <ele>208.4</ele>
        <time>2022-05-21 11:52:53</time>
      </trkpt>
      <trkpt lat="42.33682" lon="3.11972">
        <ele>207.4</ele>
        <time>2022-05-21 11:52:54</time>
      </trkpt>
      <trkpt lat="42.33683" lon="3.11954">
        <ele>206.4</ele>
        <time>2022-05-21 11:52:55</time>
      </trkpt>
      <trkpt lat="42.33685" lon="3.11938">
        <ele>205.4</ele>
        <time>2022-05-21 11:52:56</time>
      </trkpt>
      <trkpt lat="42.33687" lon="3.11922">
        <ele>204.6</ele>
        <time>2022-05-21 11:52:57</time>
      </trkpt>
      <trkpt lat="42.33689" lon="3.11905">
        <ele>203.8</ele>
        <time>2022-05-21 11:52:58</time>
      </trkpt>
      <trkpt lat="42.33691" lon="3.11889">
        <ele>203</ele>
        <time>2022-05-21 11:52:59</time>
      </trkpt>
      <trkpt lat="42.33694" lon="3.11873">
        <ele>202</ele>
        <time>2022-05-21 11:53:00</time>
      </trkpt>
      <trkpt lat="42.33697" lon="3.11858">
        <ele>201</ele>
        <time>2022-05-21 11:53:01</time>
      </trkpt>
      <trkpt lat="42.33701" lon="3.11844">
        <ele>200.2</ele>
        <time>2022-05-21 11:53:02</time>
      </trkpt>
      <trkpt lat="42.33706" lon="3.1183">
        <ele>199.2</ele>
        <time>2022-05-21 11:53:03</time>
      </trkpt>
      <trkpt lat="42.33709" lon="3.11818">
        <ele>198.4</ele>
        <time>2022-05-21 11:53:04</time>
      </trkpt>
      <trkpt lat="42.33711" lon="3.11806">
        <ele>197.6</ele>
        <time>2022-05-21 11:53:05</time>
      </trkpt>
      <trkpt lat="42.33711" lon="3.11795">
        <ele>196.8</ele>
        <time>2022-05-21 11:53:06</time>
      </trkpt>
      <trkpt lat="42.33709" lon="3.11784">
        <ele>196</ele>
        <time>2022-05-21 11:53:07</time>
      </trkpt>
      <trkpt lat="42.33706" lon="3.11775">
        <ele>195</ele>
        <time>2022-05-21 11:53:08</time>
      </trkpt>
      <trkpt lat="42.33701" lon="3.11767">
        <ele>194.2</ele>
        <time>2022-05-21 11:53:09</time>
      </trkpt>
      <trkpt lat="42.33692" lon="3.11765">
        <ele>193.4</ele>
        <time>2022-05-21 11:53:10</time>
      </trkpt>
      <trkpt lat="42.33682" lon="3.11767">
        <ele>192.6</ele>
        <time>2022-05-21 11:53:11</time>
      </trkpt>
      <trkpt lat="42.33673" lon="3.11772">
        <ele>191.8</ele>
        <time>2022-05-21 11:53:12</time>
      </trkpt>
      <trkpt lat="42.33663" lon="3.11777">
        <ele>191.2</ele>
        <time>2022-05-21 11:53:13</time>
      </trkpt>
      <trkpt lat="42.33655" lon="3.11784">
        <ele>190.4</ele>
        <time>2022-05-21 11:53:14</time>
      </trkpt>
      <trkpt lat="42.33645" lon="3.11791">
        <ele>189.6</ele>
        <time>2022-05-21 11:53:15</time>
      </trkpt>
      <trkpt lat="42.33636" lon="3.11797">
        <ele>189</ele>
        <time>2022-05-21 11:53:16</time>
      </trkpt>
      <trkpt lat="42.33627" lon="3.11804">
        <ele>188.2</ele>
        <time>2022-05-21 11:53:17</time>
      </trkpt>
      <trkpt lat="42.33617" lon="3.11811">
        <ele>187.4</ele>
        <time>2022-05-21 11:53:18</time>
      </trkpt>
      <trkpt lat="42.33607" lon="3.11817">
        <ele>186.6</ele>
        <time>2022-05-21 11:53:19</time>
      </trkpt>
      <trkpt lat="42.33597" lon="3.11823">
        <ele>185.8</ele>
        <time>2022-05-21 11:53:20</time>
      </trkpt>
      <trkpt lat="42.33587" lon="3.1183">
        <ele>185.2</ele>
        <time>2022-05-21 11:53:21</time>
      </trkpt>
      <trkpt lat="42.33576" lon="3.11837">
        <ele>184.4</ele>
        <time>2022-05-21 11:53:22</time>
      </trkpt>
      <trkpt lat="42.33566" lon="3.11844">
        <ele>183.6</ele>
        <time>2022-05-21 11:53:23</time>
      </trkpt>
      <trkpt lat="42.33556" lon="3.11851">
        <ele>182.8</ele>
        <time>2022-05-21 11:53:24</time>
      </trkpt>
      <trkpt lat="42.33546" lon="3.11857">
        <ele>181.8</ele>
        <time>2022-05-21 11:53:25</time>
      </trkpt>
      <trkpt lat="42.33536" lon="3.11864">
        <ele>181</ele>
        <time>2022-05-21 11:53:26</time>
      </trkpt>
      <trkpt lat="42.33527" lon="3.1187">
        <ele>180.2</ele>
        <time>2022-05-21 11:53:27</time>
      </trkpt>
      <trkpt lat="42.33517" lon="3.11874">
        <ele>179.4</ele>
        <time>2022-05-21 11:53:28</time>
      </trkpt>
      <trkpt lat="42.33507" lon="3.11876">
        <ele>178.6</ele>
        <time>2022-05-21 11:53:29</time>
      </trkpt>
      <trkpt lat="42.33497" lon="3.11874">
        <ele>177.8</ele>
        <time>2022-05-21 11:53:30</time>
      </trkpt>
      <trkpt lat="42.33487" lon="3.11868">
        <ele>177</ele>
        <time>2022-05-21 11:53:31</time>
      </trkpt>
      <trkpt lat="42.33478" lon="3.11862">
        <ele>176.2</ele>
        <time>2022-05-21 11:53:32</time>
      </trkpt>
      <trkpt lat="42.33469" lon="3.11855">
        <ele>175.4</ele>
        <time>2022-05-21 11:53:33</time>
      </trkpt>
      <trkpt lat="42.3346" lon="3.11849">
        <ele>174.6</ele>
        <time>2022-05-21 11:53:34</time>
      </trkpt>
      <trkpt lat="42.33449" lon="3.11841">
        <ele>173.6</ele>
        <time>2022-05-21 11:53:35</time>
      </trkpt>
      <trkpt lat="42.33439" lon="3.11834">
        <ele>172.8</ele>
        <time>2022-05-21 11:53:36</time>
      </trkpt>
      <trkpt lat="42.33429" lon="3.11827">
        <ele>172</ele>
        <time>2022-05-21 11:53:37</time>
      </trkpt>
      <trkpt lat="42.33419" lon="3.1182">
        <ele>171</ele>
        <time>2022-05-21 11:53:38</time>
      </trkpt>
      <trkpt lat="42.33409" lon="3.11812">
        <ele>170</ele>
        <time>2022-05-21 11:53:39</time>
      </trkpt>
      <trkpt lat="42.33398" lon="3.11804">
        <ele>169</ele>
        <time>2022-05-21 11:53:40</time>
      </trkpt>
      <trkpt lat="42.33387" lon="3.11796">
        <ele>168</ele>
        <time>2022-05-21 11:53:41</time>
      </trkpt>
      <trkpt lat="42.33376" lon="3.11787">
        <ele>167</ele>
        <time>2022-05-21 11:53:42</time>
      </trkpt>
      <trkpt lat="42.33366" lon="3.11778">
        <ele>165.8</ele>
        <time>2022-05-21 11:53:43</time>
      </trkpt>
      <trkpt lat="42.33356" lon="3.11767">
        <ele>164.8</ele>
        <time>2022-05-21 11:53:44</time>
      </trkpt>
      <trkpt lat="42.33346" lon="3.11755">
        <ele>163.6</ele>
        <time>2022-05-21 11:53:45</time>
      </trkpt>
      <trkpt lat="42.33338" lon="3.11741">
        <ele>162.6</ele>
        <time>2022-05-21 11:53:46</time>
      </trkpt>
      <trkpt lat="42.33331" lon="3.11726">
        <ele>161.4</ele>
        <time>2022-05-21 11:53:47</time>
      </trkpt>
      <trkpt lat="42.33325" lon="3.1171">
        <ele>160</ele>
        <time>2022-05-21 11:53:48</time>
      </trkpt>
      <trkpt lat="42.33321" lon="3.11693">
        <ele>158.8</ele>
        <time>2022-05-21 11:53:49</time>
      </trkpt>
      <trkpt lat="42.33318" lon="3.11675">
        <ele>157.8</ele>
        <time>2022-05-21 11:53:50</time>
      </trkpt>
      <trkpt lat="42.33317" lon="3.11656">
        <ele>156.6</ele>
        <time>2022-05-21 11:53:51</time>
      </trkpt>
      <trkpt lat="42.33316" lon="3.11637">
        <ele>155.4</ele>
        <time>2022-05-21 11:53:52</time>
      </trkpt>
      <trkpt lat="42.33314" lon="3.11618">
        <ele>154.2</ele>
        <time>2022-05-21 11:53:53</time>
      </trkpt>
      <trkpt lat="42.33311" lon="3.11599">
        <ele>153</ele>
        <time>2022-05-21 11:53:54</time>
      </trkpt>
      <trkpt lat="42.33307" lon="3.1158">
        <ele>151.8</ele>
        <time>2022-05-21 11:53:55</time>
      </trkpt>
      <trkpt lat="42.33302" lon="3.11562">
        <ele>150.4</ele>
        <time>2022-05-21 11:53:56</time>
      </trkpt>
      <trkpt lat="42.33298" lon="3.11544">
        <ele>149.2</ele>
        <time>2022-05-21 11:53:57</time>
      </trkpt>
      <trkpt lat="42.33294" lon="3.11526">
        <ele>148</ele>
        <time>2022-05-21 11:53:58</time>
      </trkpt>
      <trkpt lat="42.3329" lon="3.11509">
        <ele>147</ele>
        <time>2022-05-21 11:53:59</time>
      </trkpt>
      <trkpt lat="42.33286" lon="3.11493">
        <ele>146</ele>
        <time>2022-05-21 11:54:00</time>
      </trkpt>
      <trkpt lat="42.33282" lon="3.11479">
        <ele>145</ele>
        <time>2022-05-21 11:54:01</time>
      </trkpt>
      <trkpt lat="42.33276" lon="3.11467">
        <ele>144.2</ele>
        <time>2022-05-21 11:54:02</time>
      </trkpt>
      <trkpt lat="42.33268" lon="3.11455">
        <ele>143.2</ele>
        <time>2022-05-21 11:54:03</time>
      </trkpt>
      <trkpt lat="42.33258" lon="3.11448">
        <ele>142.2</ele>
        <time>2022-05-21 11:54:04</time>
      </trkpt>
      <trkpt lat="42.33248" lon="3.11445">
        <ele>141.4</ele>
        <time>2022-05-21 11:54:05</time>
      </trkpt>
      <trkpt lat="42.33239" lon="3.11447">
        <ele>140.6</ele>
        <time>2022-05-21 11:54:06</time>
      </trkpt>
      <trkpt lat="42.3323" lon="3.11453">
        <ele>139.8</ele>
        <time>2022-05-21 11:54:07</time>
      </trkpt>
      <trkpt lat="42.33223" lon="3.11462">
        <ele>139</ele>
        <time>2022-05-21 11:54:08</time>
      </trkpt>
      <trkpt lat="42.33216" lon="3.11472">
        <ele>138.2</ele>
        <time>2022-05-21 11:54:09</time>
      </trkpt>
      <trkpt lat="42.3321" lon="3.11483">
        <ele>137.4</ele>
        <time>2022-05-21 11:54:10</time>
      </trkpt>
      <trkpt lat="42.33205" lon="3.11496">
        <ele>136.4</ele>
        <time>2022-05-21 11:54:11</time>
      </trkpt>
      <trkpt lat="42.332" lon="3.1151">
        <ele>135.6</ele>
        <time>2022-05-21 11:54:12</time>
      </trkpt>
      <trkpt lat="42.33195" lon="3.11524">
        <ele>134.6</ele>
        <time>2022-05-21 11:54:13</time>
      </trkpt>
      <trkpt lat="42.3319" lon="3.11538">
        <ele>133.6</ele>
        <time>2022-05-21 11:54:14</time>
      </trkpt>
      <trkpt lat="42.33184" lon="3.11552">
        <ele>132.4</ele>
        <time>2022-05-21 11:54:15</time>
      </trkpt>
      <trkpt lat="42.33176" lon="3.11565">
        <ele>131.4</ele>
        <time>2022-05-21 11:54:16</time>
      </trkpt>
      <trkpt lat="42.33168" lon="3.11577">
        <ele>130.4</ele>
        <time>2022-05-21 11:54:17</time>
      </trkpt>
      <trkpt lat="42.33158" lon="3.11588">
        <ele>129.4</ele>
        <time>2022-05-21 11:54:18</time>
      </trkpt>
      <trkpt lat="42.33148" lon="3.11599">
        <ele>128</ele>
        <time>2022-05-21 11:54:19</time>
      </trkpt>
      <trkpt lat="42.33138" lon="3.1161">
        <ele>126.6</ele>
        <time>2022-05-21 11:54:20</time>
      </trkpt>
      <trkpt lat="42.33128" lon="3.11621">
        <ele>125.2</ele>
        <time>2022-05-21 11:54:21</time>
      </trkpt>
      <trkpt lat="42.33118" lon="3.1163">
        <ele>124</ele>
        <time>2022-05-21 11:54:22</time>
      </trkpt>
      <trkpt lat="42.33107" lon="3.1164">
        <ele>123</ele>
        <time>2022-05-21 11:54:23</time>
      </trkpt>
      <trkpt lat="42.33097" lon="3.11649">
        <ele>122</ele>
        <time>2022-05-21 11:54:24</time>
      </trkpt>
      <trkpt lat="42.33088" lon="3.11661">
        <ele>120.8</ele>
        <time>2022-05-21 11:54:25</time>
      </trkpt>
      <trkpt lat="42.3308" lon="3.11675">
        <ele>119.6</ele>
        <time>2022-05-21 11:54:26</time>
      </trkpt>
      <trkpt lat="42.33073" lon="3.11689">
        <ele>118.6</ele>
        <time>2022-05-21 11:54:27</time>
      </trkpt>
      <trkpt lat="42.33066" lon="3.11703">
        <ele>117.4</ele>
        <time>2022-05-21 11:54:28</time>
      </trkpt>
      <trkpt lat="42.3306" lon="3.11718">
        <ele>116.4</ele>
        <time>2022-05-21 11:54:29</time>
      </trkpt>
      <trkpt lat="42.33053" lon="3.1173">
        <ele>115.6</ele>
        <time>2022-05-21 11:54:30</time>
      </trkpt>
      <trkpt lat="42.33047" lon="3.11742">
        <ele>114.8</ele>
        <time>2022-05-21 11:54:31</time>
      </trkpt>
      <trkpt lat="42.33043" lon="3.11755">
        <ele>114</ele>
        <time>2022-05-21 11:54:32</time>
      </trkpt>
      <trkpt lat="42.33041" lon="3.11768">
        <ele>113.2</ele>
        <time>2022-05-21 11:54:33</time>
      </trkpt>
      <trkpt lat="42.3304" lon="3.1178">
        <ele>112.8</ele>
        <time>2022-05-21 11:54:34</time>
      </trkpt>
      <trkpt lat="42.33037" lon="3.11789">
        <ele>112.2</ele>
        <time>2022-05-21 11:54:35</time>
      </trkpt>
      <trkpt lat="42.33031" lon="3.11793">
        <ele>111.6</ele>
        <time>2022-05-21 11:54:36</time>
      </trkpt>
      <trkpt lat="42.33025" lon="3.11791">
        <ele>111</ele>
        <time>2022-05-21 11:54:37</time>
      </trkpt>
      <trkpt lat="42.33019" lon="3.11783">
        <ele>110.4</ele>
        <time>2022-05-21 11:54:38</time>
      </trkpt>
      <trkpt lat="42.33017" lon="3.11773">
        <ele>110</ele>
        <time>2022-05-21 11:54:39</time>
      </trkpt>
      <trkpt lat="42.33017" lon="3.11762">
        <ele>109.4</ele>
        <time>2022-05-21 11:54:40</time>
      </trkpt>
      <trkpt lat="42.33018" lon="3.11751">
        <ele>108.6</ele>
        <time>2022-05-21 11:54:41</time>
      </trkpt>
      <trkpt lat="42.33019" lon="3.11739">
        <ele>108</ele>
        <time>2022-05-21 11:54:42</time>
      </trkpt>
      <trkpt lat="42.33021" lon="3.11727">
        <ele>107.2</ele>
        <time>2022-05-21 11:54:43</time>
      </trkpt>
      <trkpt lat="42.33022" lon="3.11715">
        <ele>106.6</ele>
        <time>2022-05-21 11:54:44</time>
      </trkpt>
      <trkpt lat="42.33023" lon="3.11701">
        <ele>105.8</ele>
        <time>2022-05-21 11:54:45</time>
      </trkpt>
      <trkpt lat="42.33023" lon="3.11687">
        <ele>105</ele>
        <time>2022-05-21 11:54:46</time>
      </trkpt>
      <trkpt lat="42.33023" lon="3.11673">
        <ele>104.4</ele>
        <time>2022-05-21 11:54:47</time>
      </trkpt>
      <trkpt lat="42.33024" lon="3.11659">
        <ele>103.8</ele>
        <time>2022-05-21 11:54:48</time>
      </trkpt>
      <trkpt lat="42.33024" lon="3.11644">
        <ele>102.8</ele>
        <time>2022-05-21 11:54:49</time>
      </trkpt>
      <trkpt lat="42.33025" lon="3.11629">
        <ele>102</ele>
        <time>2022-05-21 11:54:50</time>
      </trkpt>
      <trkpt lat="42.33025" lon="3.11614">
        <ele>100.8</ele>
        <time>2022-05-21 11:54:51</time>
      </trkpt>
      <trkpt lat="42.33027" lon="3.11598">
        <ele>99.8</ele>
        <time>2022-05-21 11:54:52</time>
      </trkpt>
      <trkpt lat="42.3303" lon="3.11583">
        <ele>98.8</ele>
        <time>2022-05-21 11:54:53</time>
      </trkpt>
      <trkpt lat="42.33035" lon="3.11569">
        <ele>98</ele>
        <time>2022-05-21 11:54:54</time>
      </trkpt>
      <trkpt lat="42.33042" lon="3.11556">
        <ele>97.2</ele>
        <time>2022-05-21 11:54:55</time>
      </trkpt>
      <trkpt lat="42.33048" lon="3.11544">
        <ele>96.2</ele>
        <time>2022-05-21 11:54:56</time>
      </trkpt>
      <trkpt lat="42.33053" lon="3.11532">
        <ele>95.2</ele>
        <time>2022-05-21 11:54:57</time>
      </trkpt>
      <trkpt lat="42.33057" lon="3.1152">
        <ele>94.2</ele>
        <time>2022-05-21 11:54:58</time>
      </trkpt>
      <trkpt lat="42.33058" lon="3.11506">
        <ele>93.2</ele>
        <time>2022-05-21 11:54:59</time>
      </trkpt>
      <trkpt lat="42.33057" lon="3.11491">
        <ele>92.2</ele>
        <time>2022-05-21 11:55:00</time>
      </trkpt>
      <trkpt lat="42.33058" lon="3.11476">
        <ele>91.4</ele>
        <time>2022-05-21 11:55:01</time>
      </trkpt>
      <trkpt lat="42.3306" lon="3.1146">
        <ele>90.4</ele>
        <time>2022-05-21 11:55:02</time>
      </trkpt>
      <trkpt lat="42.33062" lon="3.11444">
        <ele>89.2</ele>
        <time>2022-05-21 11:55:03</time>
      </trkpt>
      <trkpt lat="42.33062" lon="3.11426">
        <ele>88</ele>
        <time>2022-05-21 11:55:04</time>
      </trkpt>
      <trkpt lat="42.3306" lon="3.11409">
        <ele>87</ele>
        <time>2022-05-21 11:55:05</time>
      </trkpt>
      <trkpt lat="42.33058" lon="3.11391">
        <ele>86</ele>
        <time>2022-05-21 11:55:06</time>
      </trkpt>
      <trkpt lat="42.33057" lon="3.11373">
        <ele>84.6</ele>
        <time>2022-05-21 11:55:07</time>
      </trkpt>
      <trkpt lat="42.33058" lon="3.11354">
        <ele>83.4</ele>
        <time>2022-05-21 11:55:08</time>
      </trkpt>
      <trkpt lat="42.33059" lon="3.11335">
        <ele>82</ele>
        <time>2022-05-21 11:55:09</time>
      </trkpt>
      <trkpt lat="42.3306" lon="3.11316">
        <ele>80.8</ele>
        <time>2022-05-21 11:55:10</time>
      </trkpt>
      <trkpt lat="42.33062" lon="3.11296">
        <ele>79.4</ele>
        <time>2022-05-21 11:55:11</time>
      </trkpt>
      <trkpt lat="42.33063" lon="3.11277">
        <ele>78.2</ele>
        <time>2022-05-21 11:55:12</time>
      </trkpt>
      <trkpt lat="42.33065" lon="3.11257">
        <ele>77.2</ele>
        <time>2022-05-21 11:55:13</time>
      </trkpt>
      <trkpt lat="42.33066" lon="3.11237">
        <ele>76</ele>
        <time>2022-05-21 11:55:14</time>
      </trkpt>
      <trkpt lat="42.33068" lon="3.11218">
        <ele>75</ele>
        <time>2022-05-21 11:55:15</time>
      </trkpt>
      <trkpt lat="42.33069" lon="3.11198">
        <ele>74.2</ele>
        <time>2022-05-21 11:55:16</time>
      </trkpt>
      <trkpt lat="42.33071" lon="3.11179">
        <ele>73.4</ele>
        <time>2022-05-21 11:55:17</time>
      </trkpt>
      <trkpt lat="42.33072" lon="3.1116">
        <ele>72.8</ele>
        <time>2022-05-21 11:55:18</time>
      </trkpt>
      <trkpt lat="42.33073" lon="3.11141">
        <ele>72.2</ele>
        <time>2022-05-21 11:55:19</time>
      </trkpt>
      <trkpt lat="42.33075" lon="3.11123">
        <ele>71.6</ele>
        <time>2022-05-21 11:55:20</time>
      </trkpt>
      <trkpt lat="42.33075" lon="3.11104">
        <ele>71</ele>
        <time>2022-05-21 11:55:21</time>
      </trkpt>
      <trkpt lat="42.33075" lon="3.11085">
        <ele>70.2</ele>
        <time>2022-05-21 11:55:22</time>
      </trkpt>
      <trkpt lat="42.33075" lon="3.11066">
        <ele>69.4</ele>
        <time>2022-05-21 11:55:23</time>
      </trkpt>
      <trkpt lat="42.33074" lon="3.11047">
        <ele>68.6</ele>
        <time>2022-05-21 11:55:24</time>
      </trkpt>
      <trkpt lat="42.33073" lon="3.11029">
        <ele>68</ele>
        <time>2022-05-21 11:55:25</time>
      </trkpt>
      <trkpt lat="42.33072" lon="3.11011">
        <ele>67.2</ele>
        <time>2022-05-21 11:55:26</time>
      </trkpt>
      <trkpt lat="42.33071" lon="3.10992">
        <ele>66.4</ele>
        <time>2022-05-21 11:55:27</time>
      </trkpt>
      <trkpt lat="42.33069" lon="3.10974">
        <ele>65.6</ele>
        <time>2022-05-21 11:55:28</time>
      </trkpt>
      <trkpt lat="42.33068" lon="3.10957">
        <ele>64.8</ele>
        <time>2022-05-21 11:55:29</time>
      </trkpt>
      <trkpt lat="42.33067" lon="3.1094">
        <ele>64.2</ele>
        <time>2022-05-21 11:55:30</time>
      </trkpt>
      <trkpt lat="42.33066" lon="3.10922">
        <ele>63.6</ele>
        <time>2022-05-21 11:55:31</time>
      </trkpt>
      <trkpt lat="42.33065" lon="3.10906">
        <ele>63.2</ele>
        <time>2022-05-21 11:55:32</time>
      </trkpt>
      <trkpt lat="42.33064" lon="3.10889">
        <ele>62.8</ele>
        <time>2022-05-21 11:55:33</time>
      </trkpt>
      <trkpt lat="42.33063" lon="3.10872">
        <ele>62.6</ele>
        <time>2022-05-21 11:55:34</time>
      </trkpt>
      <trkpt lat="42.33061" lon="3.10856">
        <ele>62.2</ele>
        <time>2022-05-21 11:55:35</time>
      </trkpt>
      <trkpt lat="42.33058" lon="3.1084">
        <ele>61.8</ele>
        <time>2022-05-21 11:55:36</time>
      </trkpt>
      <trkpt lat="42.33053" lon="3.10825">
        <ele>61.4</ele>
        <time>2022-05-21 11:55:37</time>
      </trkpt>
      <trkpt lat="42.33046" lon="3.10812">
        <ele>61</ele>
        <time>2022-05-21 11:55:38</time>
      </trkpt>
      <trkpt lat="42.33038" lon="3.108">
        <ele>60.6</ele>
        <time>2022-05-21 11:55:39</time>
      </trkpt>
      <trkpt lat="42.3303" lon="3.10788">
        <ele>60.2</ele>
        <time>2022-05-21 11:55:40</time>
      </trkpt>
      <trkpt lat="42.33022" lon="3.10777">
        <ele>60</ele>
        <time>2022-05-21 11:55:41</time>
      </trkpt>
      <trkpt lat="42.33014" lon="3.10766">
        <ele>59.8</ele>
        <time>2022-05-21 11:55:42</time>
      </trkpt>
      <trkpt lat="42.33006" lon="3.10755">
        <ele>59.8</ele>
        <time>2022-05-21 11:55:43</time>
      </trkpt>
      <trkpt lat="42.32999" lon="3.10745">
        <ele>59.6</ele>
        <time>2022-05-21 11:55:44</time>
      </trkpt>
      <trkpt lat="42.32993" lon="3.10733">
        <ele>59.2</ele>
        <time>2022-05-21 11:55:45</time>
      </trkpt>
      <trkpt lat="42.32987" lon="3.10719">
        <ele>58.8</ele>
        <time>2022-05-21 11:55:46</time>
      </trkpt>
      <trkpt lat="42.32983" lon="3.10705">
        <ele>58.2</ele>
        <time>2022-05-21 11:55:47</time>
      </trkpt>
      <trkpt lat="42.32981" lon="3.1069">
        <ele>57.8</ele>
        <time>2022-05-21 11:55:48</time>
      </trkpt>
      <trkpt lat="42.32979" lon="3.10675">
        <ele>57.4</ele>
        <time>2022-05-21 11:55:49</time>
      </trkpt>
      <trkpt lat="42.32978" lon="3.1066">
        <ele>56.8</ele>
        <time>2022-05-21 11:55:50</time>
      </trkpt>
      <trkpt lat="42.32975" lon="3.10644">
        <ele>56.4</ele>
        <time>2022-05-21 11:55:51</time>
      </trkpt>
      <trkpt lat="42.32972" lon="3.1063">
        <ele>56</ele>
        <time>2022-05-21 11:55:52</time>
      </trkpt>
      <trkpt lat="42.32969" lon="3.10615">
        <ele>55.6</ele>
        <time>2022-05-21 11:55:53</time>
      </trkpt>
      <trkpt lat="42.32964" lon="3.106">
        <ele>55.4</ele>
        <time>2022-05-21 11:55:54</time>
      </trkpt>
      <trkpt lat="42.3296" lon="3.10586">
        <ele>55</ele>
        <time>2022-05-21 11:55:55</time>
      </trkpt>
      <trkpt lat="42.32955" lon="3.10573">
        <ele>55</ele>
        <time>2022-05-21 11:55:56</time>
      </trkpt>
      <trkpt lat="42.3295" lon="3.1056">
        <ele>54.8</ele>
        <time>2022-05-21 11:55:57</time>
      </trkpt>
      <trkpt lat="42.32945" lon="3.10547">
        <ele>54.6</ele>
        <time>2022-05-21 11:55:58</time>
      </trkpt>
      <trkpt lat="42.32939" lon="3.10535">
        <ele>54.4</ele>
        <time>2022-05-21 11:55:59</time>
      </trkpt>
      <trkpt lat="42.32934" lon="3.10524">
        <ele>54.2</ele>
        <time>2022-05-21 11:56:00</time>
      </trkpt>
      <trkpt lat="42.32929" lon="3.10512">
        <ele>54.2</ele>
        <time>2022-05-21 11:56:01</time>
      </trkpt>
      <trkpt lat="42.32925" lon="3.10501">
        <ele>53.8</ele>
        <time>2022-05-21 11:56:02</time>
      </trkpt>
      <trkpt lat="42.3292" lon="3.1049">
        <ele>53.8</ele>
        <time>2022-05-21 11:56:03</time>
      </trkpt>
      <trkpt lat="42.32915" lon="3.1048">
        <ele>53.6</ele>
        <time>2022-05-21 11:56:04</time>
      </trkpt>
      <trkpt lat="42.3291" lon="3.10469">
        <ele>53.6</ele>
        <time>2022-05-21 11:56:05</time>
      </trkpt>
      <trkpt lat="42.32905" lon="3.10459">
        <ele>53.6</ele>
        <time>2022-05-21 11:56:06</time>
      </trkpt>
      <trkpt lat="42.329" lon="3.10449">
        <ele>53.4</ele>
        <time>2022-05-21 11:56:07</time>
      </trkpt>
      <trkpt lat="42.32895" lon="3.1044">
        <ele>53.4</ele>
        <time>2022-05-21 11:56:08</time>
      </trkpt>
      <trkpt lat="42.32891" lon="3.10431">
        <ele>53.2</ele>
        <time>2022-05-21 11:56:09</time>
      </trkpt>
      <trkpt lat="42.32885" lon="3.10418">
        <ele>53.2</ele>
        <time>2022-05-21 11:56:10</time>
      </trkpt>
      <trkpt lat="42.3288" lon="3.10409">
        <ele>53</ele>
        <time>2022-05-21 11:56:11</time>
      </trkpt>
      <trkpt lat="42.32875" lon="3.10399">
        <ele>53</ele>
        <time>2022-05-21 11:56:12</time>
      </trkpt>
      <trkpt lat="42.32869" lon="3.1039">
        <ele>52.8</ele>
        <time>2022-05-21 11:56:13</time>
      </trkpt>
      <trkpt lat="42.32864" lon="3.1038">
        <ele>52.8</ele>
        <time>2022-05-21 11:56:14</time>
      </trkpt>
      <trkpt lat="42.3286" lon="3.1037">
        <ele>52.6</ele>
        <time>2022-05-21 11:56:15</time>
      </trkpt>
      <trkpt lat="42.32856" lon="3.1036">
        <ele>52.6</ele>
        <time>2022-05-21 11:56:16</time>
      </trkpt>
      <trkpt lat="42.32852" lon="3.1035">
        <ele>52.6</ele>
        <time>2022-05-21 11:56:17</time>
      </trkpt>
      <trkpt lat="42.32848" lon="3.1034">
        <ele>52.6</ele>
        <time>2022-05-21 11:56:18</time>
      </trkpt>
      <trkpt lat="42.32845" lon="3.10329">
        <ele>52.6</ele>
        <time>2022-05-21 11:56:19</time>
      </trkpt>
      <trkpt lat="42.32843" lon="3.10319">
        <ele>52.4</ele>
        <time>2022-05-21 11:56:20</time>
      </trkpt>
      <trkpt lat="42.3284" lon="3.10308">
        <ele>52.4</ele>
        <time>2022-05-21 11:56:21</time>
      </trkpt>
      <trkpt lat="42.32837" lon="3.10297">
        <ele>52.2</ele>
        <time>2022-05-21 11:56:22</time>
      </trkpt>
      <trkpt lat="42.32833" lon="3.10286">
        <ele>51.8</ele>
        <time>2022-05-21 11:56:23</time>
      </trkpt>
      <trkpt lat="42.3283" lon="3.10275">
        <ele>51.6</ele>
        <time>2022-05-21 11:56:24</time>
      </trkpt>
      <trkpt lat="42.32827" lon="3.10264">
        <ele>51.4</ele>
        <time>2022-05-21 11:56:25</time>
      </trkpt>
      <trkpt lat="42.32823" lon="3.10253">
        <ele>51</ele>
        <time>2022-05-21 11:56:26</time>
      </trkpt>
      <trkpt lat="42.3282" lon="3.10242">
        <ele>50.8</ele>
        <time>2022-05-21 11:56:27</time>
      </trkpt>
      <trkpt lat="42.32816" lon="3.10231">
        <ele>50.6</ele>
        <time>2022-05-21 11:56:28</time>
      </trkpt>
      <trkpt lat="42.32813" lon="3.1022">
        <ele>50.2</ele>
        <time>2022-05-21 11:56:29</time>
      </trkpt>
      <trkpt lat="42.32809" lon="3.10209">
        <ele>50</ele>
        <time>2022-05-21 11:56:30</time>
      </trkpt>
      <trkpt lat="42.32806" lon="3.10198">
        <ele>49.8</ele>
        <time>2022-05-21 11:56:31</time>
      </trkpt>
      <trkpt lat="42.32802" lon="3.10187">
        <ele>49.6</ele>
        <time>2022-05-21 11:56:32</time>
      </trkpt>
      <trkpt lat="42.32799" lon="3.10176">
        <ele>49.4</ele>
        <time>2022-05-21 11:56:33</time>
      </trkpt>
      <trkpt lat="42.32795" lon="3.10165">
        <ele>49.2</ele>
        <time>2022-05-21 11:56:34</time>
      </trkpt>
      <trkpt lat="42.32791" lon="3.10155">
        <ele>49</ele>
        <time>2022-05-21 11:56:35</time>
      </trkpt>
      <trkpt lat="42.32787" lon="3.10145">
        <ele>49</ele>
        <time>2022-05-21 11:56:36</time>
      </trkpt>
      <trkpt lat="42.32783" lon="3.10134">
        <ele>48.8</ele>
        <time>2022-05-21 11:56:37</time>
      </trkpt>
      <trkpt lat="42.3278" lon="3.10124">
        <ele>48.6</ele>
        <time>2022-05-21 11:56:38</time>
      </trkpt>
      <trkpt lat="42.32777" lon="3.10114">
        <ele>48.6</ele>
        <time>2022-05-21 11:56:39</time>
      </trkpt>
      <trkpt lat="42.32773" lon="3.10103">
        <ele>48.4</ele>
        <time>2022-05-21 11:56:40</time>
      </trkpt>
      <trkpt lat="42.3277" lon="3.10093">
        <ele>48.4</ele>
        <time>2022-05-21 11:56:41</time>
      </trkpt>
      <trkpt lat="42.32767" lon="3.10082">
        <ele>48.4</ele>
        <time>2022-05-21 11:56:42</time>
      </trkpt>
      <trkpt lat="42.32764" lon="3.10072">
        <ele>48.4</ele>
        <time>2022-05-21 11:56:43</time>
      </trkpt>
      <trkpt lat="42.32761" lon="3.10062">
        <ele>48.4</ele>
        <time>2022-05-21 11:56:44</time>
      </trkpt>
      <trkpt lat="42.32758" lon="3.10052">
        <ele>48.4</ele>
        <time>2022-05-21 11:56:45</time>
      </trkpt>
      <trkpt lat="42.32755" lon="3.10042">
        <ele>48.4</ele>
        <time>2022-05-21 11:56:46</time>
      </trkpt>
      <trkpt lat="42.32752" lon="3.10032">
        <ele>48.4</ele>
        <time>2022-05-21 11:56:47</time>
      </trkpt>
      <trkpt lat="42.32749" lon="3.10022">
        <ele>48.4</ele>
        <time>2022-05-21 11:56:48</time>
      </trkpt>
      <trkpt lat="42.32746" lon="3.10013">
        <ele>48.4</ele>
        <time>2022-05-21 11:56:49</time>
      </trkpt>
      <trkpt lat="42.32744" lon="3.10003">
        <ele>48.4</ele>
        <time>2022-05-21 11:56:50</time>
      </trkpt>
      <trkpt lat="42.32741" lon="3.09994">
        <ele>48.4</ele>
        <time>2022-05-21 11:56:51</time>
      </trkpt>
      <trkpt lat="42.3274" lon="3.09985">
        <ele>48.6</ele>
        <time>2022-05-21 11:56:52</time>
      </trkpt>
      <trkpt lat="42.32739" lon="3.09976">
        <ele>48.8</ele>
        <time>2022-05-21 11:56:53</time>
      </trkpt>
      <trkpt lat="42.32739" lon="3.09967">
        <ele>49</ele>
        <time>2022-05-21 11:56:54</time>
      </trkpt>
      <trkpt lat="42.32739" lon="3.09959">
        <ele>49.2</ele>
        <time>2022-05-21 11:56:55</time>
      </trkpt>
      <trkpt lat="42.32741" lon="3.09951">
        <ele>49.6</ele>
        <time>2022-05-21 11:56:56</time>
      </trkpt>
      <trkpt lat="42.32742" lon="3.09943">
        <ele>49.8</ele>
        <time>2022-05-21 11:56:57</time>
      </trkpt>
      <trkpt lat="42.32743" lon="3.09935">
        <ele>50.2</ele>
        <time>2022-05-21 11:56:58</time>
      </trkpt>
      <trkpt lat="42.32744" lon="3.09928">
        <ele>50.4</ele>
        <time>2022-05-21 11:56:59</time>
      </trkpt>
      <trkpt lat="42.32745" lon="3.0992">
        <ele>50.6</ele>
        <time>2022-05-21 11:57:00</time>
      </trkpt>
      <trkpt lat="42.32746" lon="3.09913">
        <ele>50.8</ele>
        <time>2022-05-21 11:57:01</time>
      </trkpt>
      <trkpt lat="42.32748" lon="3.09905">
        <ele>51</ele>
        <time>2022-05-21 11:57:02</time>
      </trkpt>
      <trkpt lat="42.32749" lon="3.09898">
        <ele>51</ele>
        <time>2022-05-21 11:57:03</time>
      </trkpt>
      <trkpt lat="42.32751" lon="3.0989">
        <ele>51.2</ele>
        <time>2022-05-21 11:57:04</time>
      </trkpt>
      <trkpt lat="42.32753" lon="3.09883">
        <ele>51.2</ele>
        <time>2022-05-21 11:57:05</time>
      </trkpt>
      <trkpt lat="42.32756" lon="3.09876">
        <ele>51.4</ele>
        <time>2022-05-21 11:57:06</time>
      </trkpt>
      <trkpt lat="42.32758" lon="3.09869">
        <ele>51.4</ele>
        <time>2022-05-21 11:57:07</time>
      </trkpt>
      <trkpt lat="42.32761" lon="3.09862">
        <ele>51.4</ele>
        <time>2022-05-21 11:57:08</time>
      </trkpt>
      <trkpt lat="42.32764" lon="3.09855">
        <ele>51.2</ele>
        <time>2022-05-21 11:57:09</time>
      </trkpt>
      <trkpt lat="42.32767" lon="3.09848">
        <ele>51.2</ele>
        <time>2022-05-21 11:57:10</time>
      </trkpt>
      <trkpt lat="42.32771" lon="3.09841">
        <ele>51</ele>
        <time>2022-05-21 11:57:11</time>
      </trkpt>
      <trkpt lat="42.32774" lon="3.09833">
        <ele>50.8</ele>
        <time>2022-05-21 11:57:12</time>
      </trkpt>
      <trkpt lat="42.32777" lon="3.09825">
        <ele>50.6</ele>
        <time>2022-05-21 11:57:13</time>
      </trkpt>
      <trkpt lat="42.3278" lon="3.09817">
        <ele>50.2</ele>
        <time>2022-05-21 11:57:14</time>
      </trkpt>
      <trkpt lat="42.32783" lon="3.09808">
        <ele>49.8</ele>
        <time>2022-05-21 11:57:15</time>
      </trkpt>
      <trkpt lat="42.32785" lon="3.09798">
        <ele>49.4</ele>
        <time>2022-05-21 11:57:16</time>
      </trkpt>
      <trkpt lat="42.32787" lon="3.09788">
        <ele>49.2</ele>
        <time>2022-05-21 11:57:17</time>
      </trkpt>
      <trkpt lat="42.32788" lon="3.09777">
        <ele>48.8</ele>
        <time>2022-05-21 11:57:18</time>
      </trkpt>
      <trkpt lat="42.32788" lon="3.09766">
        <ele>48.4</ele>
        <time>2022-05-21 11:57:19</time>
      </trkpt>
      <trkpt lat="42.32787" lon="3.09755">
        <ele>48</ele>
        <time>2022-05-21 11:57:20</time>
      </trkpt>
      <trkpt lat="42.32785" lon="3.09743">
        <ele>47.6</ele>
        <time>2022-05-21 11:57:21</time>
      </trkpt>
      <trkpt lat="42.32783" lon="3.09732">
        <ele>47.2</ele>
        <time>2022-05-21 11:57:22</time>
      </trkpt>
      <trkpt lat="42.32781" lon="3.09721">
        <ele>47</ele>
        <time>2022-05-21 11:57:23</time>
      </trkpt>
      <trkpt lat="42.32778" lon="3.09711">
        <ele>46.6</ele>
        <time>2022-05-21 11:57:24</time>
      </trkpt>
      <trkpt lat="42.32775" lon="3.09701">
        <ele>46.2</ele>
        <time>2022-05-21 11:57:25</time>
      </trkpt>
      <trkpt lat="42.32772" lon="3.09691">
        <ele>45.8</ele>
        <time>2022-05-21 11:57:26</time>
      </trkpt>
      <trkpt lat="42.32769" lon="3.09681">
        <ele>45.6</ele>
        <time>2022-05-21 11:57:27</time>
      </trkpt>
      <trkpt lat="42.32767" lon="3.09672">
        <ele>45.4</ele>
        <time>2022-05-21 11:57:28</time>
      </trkpt>
      <trkpt lat="42.32765" lon="3.09659">
        <ele>45.2</ele>
        <time>2022-05-21 11:57:29</time>
      </trkpt>
      <trkpt lat="42.32763" lon="3.09649">
        <ele>45</ele>
        <time>2022-05-21 11:57:30</time>
      </trkpt>
      <trkpt lat="42.3276" lon="3.0964">
        <ele>44.8</ele>
        <time>2022-05-21 11:57:31</time>
      </trkpt>
      <trkpt lat="42.32757" lon="3.0963">
        <ele>44.6</ele>
        <time>2022-05-21 11:57:32</time>
      </trkpt>
      <trkpt lat="42.32754" lon="3.09622">
        <ele>44.6</ele>
        <time>2022-05-21 11:57:33</time>
      </trkpt>
      <trkpt lat="42.32752" lon="3.09614">
        <ele>44.4</ele>
        <time>2022-05-21 11:57:34</time>
      </trkpt>
      <trkpt lat="42.32749" lon="3.09605">
        <ele>44.4</ele>
        <time>2022-05-21 11:57:35</time>
      </trkpt>
      <trkpt lat="42.32746" lon="3.09597">
        <ele>44.4</ele>
        <time>2022-05-21 11:57:36</time>
      </trkpt>
      <trkpt lat="42.32744" lon="3.09589">
        <ele>44.4</ele>
        <time>2022-05-21 11:57:37</time>
      </trkpt>
      <trkpt lat="42.32741" lon="3.09581">
        <ele>44.4</ele>
        <time>2022-05-21 11:57:38</time>
      </trkpt>
      <trkpt lat="42.32739" lon="3.09573">
        <ele>44.4</ele>
        <time>2022-05-21 11:57:39</time>
      </trkpt>
      <trkpt lat="42.32737" lon="3.09565">
        <ele>44.4</ele>
        <time>2022-05-21 11:57:40</time>
      </trkpt>
      <trkpt lat="42.32735" lon="3.09559">
        <ele>44.6</ele>
        <time>2022-05-21 11:57:41</time>
      </trkpt>
      <trkpt lat="42.32735" lon="3.09556">
        <ele>44.8</ele>
        <time>2022-05-21 11:57:42</time>
      </trkpt>
      <trkpt lat="42.32735" lon="3.09554">
        <ele>44.8</ele>
        <time>2022-05-21 11:57:43</time>
      </trkpt>
      <trkpt lat="42.32737" lon="3.09559">
        <ele>45.4</ele>
        <time>2022-05-21 11:58:16</time>
      </trkpt>
      <trkpt lat="42.32733" lon="3.09555">
        <ele>45.2</ele>
        <time>2022-05-21 11:58:17</time>
      </trkpt>
      <trkpt lat="42.32732" lon="3.09552">
        <ele>45.2</ele>
        <time>2022-05-21 11:58:18</time>
      </trkpt>
      <trkpt lat="42.3273" lon="3.09548">
        <ele>45.2</ele>
        <time>2022-05-21 11:58:19</time>
      </trkpt>
      <trkpt lat="42.32727" lon="3.09545">
        <ele>45.2</ele>
        <time>2022-05-21 11:58:20</time>
      </trkpt>
      <trkpt lat="42.32725" lon="3.0954">
        <ele>45</ele>
        <time>2022-05-21 11:58:21</time>
      </trkpt>
      <trkpt lat="42.32722" lon="3.09536">
        <ele>45</ele>
        <time>2022-05-21 11:58:22</time>
      </trkpt>
      <trkpt lat="42.32719" lon="3.09531">
        <ele>45</ele>
        <time>2022-05-21 11:58:23</time>
      </trkpt>
      <trkpt lat="42.32715" lon="3.09528">
        <ele>44.8</ele>
        <time>2022-05-21 11:58:24</time>
      </trkpt>
      <trkpt lat="42.32711" lon="3.09524">
        <ele>44.8</ele>
        <time>2022-05-21 11:58:25</time>
      </trkpt>
      <trkpt lat="42.32707" lon="3.0952">
        <ele>44.6</ele>
        <time>2022-05-21 11:58:26</time>
      </trkpt>
      <trkpt lat="42.32702" lon="3.09515">
        <ele>44.6</ele>
        <time>2022-05-21 11:58:27</time>
      </trkpt>
      <trkpt lat="42.32698" lon="3.09511">
        <ele>44.4</ele>
        <time>2022-05-21 11:58:28</time>
      </trkpt>
      <trkpt lat="42.32693" lon="3.09506">
        <ele>44.2</ele>
        <time>2022-05-21 11:58:29</time>
      </trkpt>
      <trkpt lat="42.32689" lon="3.09501">
        <ele>44.2</ele>
        <time>2022-05-21 11:58:30</time>
      </trkpt>
      <trkpt lat="42.32684" lon="3.09497">
        <ele>44</ele>
        <time>2022-05-21 11:58:31</time>
      </trkpt>
      <trkpt lat="42.32679" lon="3.09492">
        <ele>44</ele>
        <time>2022-05-21 11:58:32</time>
      </trkpt>
      <trkpt lat="42.32675" lon="3.09488">
        <ele>43.8</ele>
        <time>2022-05-21 11:58:33</time>
      </trkpt>
      <trkpt lat="42.32671" lon="3.09482">
        <ele>43.8</ele>
        <time>2022-05-21 11:58:34</time>
      </trkpt>
      <trkpt lat="42.32666" lon="3.09477">
        <ele>43.6</ele>
        <time>2022-05-21 11:58:35</time>
      </trkpt>
      <trkpt lat="42.32662" lon="3.09471">
        <ele>43.4</ele>
        <time>2022-05-21 11:58:36</time>
      </trkpt>
      <trkpt lat="42.32658" lon="3.09465">
        <ele>43.4</ele>
        <time>2022-05-21 11:58:37</time>
      </trkpt>
      <trkpt lat="42.32654" lon="3.09459">
        <ele>43.2</ele>
        <time>2022-05-21 11:58:38</time>
      </trkpt>
      <trkpt lat="42.32651" lon="3.09454">
        <ele>43.2</ele>
        <time>2022-05-21 11:58:39</time>
      </trkpt>
      <trkpt lat="42.32647" lon="3.09449">
        <ele>43</ele>
        <time>2022-05-21 11:58:40</time>
      </trkpt>
      <trkpt lat="42.32644" lon="3.09444">
        <ele>42.8</ele>
        <time>2022-05-21 11:58:41</time>
      </trkpt>
      <trkpt lat="42.32642" lon="3.0944">
        <ele>42.8</ele>
        <time>2022-05-21 11:58:42</time>
      </trkpt>
      <trkpt lat="42.32641" lon="3.09435">
        <ele>42.6</ele>
        <time>2022-05-21 11:58:43</time>
      </trkpt>
      <trkpt lat="42.32642" lon="3.0943">
        <ele>42.4</ele>
        <time>2022-05-21 11:58:44</time>
      </trkpt>
      <trkpt lat="42.32644" lon="3.09425">
        <ele>42.2</ele>
        <time>2022-05-21 11:58:45</time>
      </trkpt>
      <trkpt lat="42.32646" lon="3.09422">
        <ele>42</ele>
        <time>2022-05-21 11:58:46</time>
      </trkpt>
      <trkpt lat="42.32648" lon="3.09418">
        <ele>41.8</ele>
        <time>2022-05-21 11:58:47</time>
      </trkpt>
      <trkpt lat="42.3265" lon="3.09414">
        <ele>41.8</ele>
        <time>2022-05-21 11:58:48</time>
      </trkpt>
      <trkpt lat="42.32651" lon="3.0941">
        <ele>41.6</ele>
        <time>2022-05-21 11:58:49</time>
      </trkpt>
      <trkpt lat="42.32652" lon="3.09406">
        <ele>41.4</ele>
        <time>2022-05-21 11:58:50</time>
      </trkpt>
      <trkpt lat="42.32652" lon="3.09402">
        <ele>41.4</ele>
        <time>2022-05-21 11:58:51</time>
      </trkpt>
      <trkpt lat="42.32653" lon="3.09399">
        <ele>41.4</ele>
        <time>2022-05-21 11:58:52</time>
      </trkpt>
      <trkpt lat="42.32652" lon="3.09396">
        <ele>41.2</ele>
        <time>2022-05-21 11:58:53</time>
      </trkpt>
      <trkpt lat="42.32651" lon="3.09394">
        <ele>41.2</ele>
        <time>2022-05-21 11:58:54</time>
      </trkpt>
      <trkpt lat="42.3265" lon="3.09392">
        <ele>41.2</ele>
        <time>2022-05-21 11:58:55</time>
      </trkpt>
      <trkpt lat="42.32648" lon="3.0939">
        <ele>41</ele>
        <time>2022-05-21 11:58:56</time>
      </trkpt>
      <trkpt lat="42.32647" lon="3.09388">
        <ele>41</ele>
        <time>2022-05-21 11:58:57</time>
      </trkpt>
      <trkpt lat="42.32646" lon="3.09387">
        <ele>41</ele>
        <time>2022-05-21 11:58:58</time>
      </trkpt>
      <trkpt lat="42.32644" lon="3.09385">
        <ele>41</ele>
        <time>2022-05-21 11:58:59</time>
      </trkpt>
      <trkpt lat="42.32643" lon="3.09384">
        <ele>41</ele>
        <time>2022-05-21 11:59:00</time>
      </trkpt>
      <trkpt lat="42.32641" lon="3.09383">
        <ele>41</ele>
        <time>2022-05-21 11:59:01</time>
      </trkpt>
      <trkpt lat="42.3264" lon="3.09381">
        <ele>41</ele>
        <time>2022-05-21 11:59:02</time>
      </trkpt>
      <trkpt lat="42.32639" lon="3.09379">
        <ele>41</ele>
        <time>2022-05-21 11:59:03</time>
      </trkpt>
      <trkpt lat="42.32638" lon="3.09378">
        <ele>41</ele>
        <time>2022-05-21 11:59:04</time>
      </trkpt>
      <trkpt lat="42.32643" lon="3.09381">
        <ele>40.8</ele>
        <time>2022-05-21 11:59:08</time>
      </trkpt>
      <trkpt lat="42.32645" lon="3.09384">
        <ele>40.8</ele>
        <time>2022-05-21 11:59:09</time>
      </trkpt>
      <trkpt lat="42.32646" lon="3.09387">
        <ele>40.8</ele>
        <time>2022-05-21 11:59:10</time>
      </trkpt>
      <trkpt lat="42.32646" lon="3.0939">
        <ele>40.8</ele>
        <time>2022-05-21 11:59:11</time>
      </trkpt>
      <trkpt lat="42.32646" lon="3.09393">
        <ele>40.8</ele>
        <time>2022-05-21 11:59:12</time>
      </trkpt>
      <trkpt lat="42.32645" lon="3.09397">
        <ele>41</ele>
        <time>2022-05-21 11:59:13</time>
      </trkpt>
      <trkpt lat="42.32643" lon="3.094">
        <ele>41</ele>
        <time>2022-05-21 11:59:14</time>
      </trkpt>
      <trkpt lat="42.32641" lon="3.09404">
        <ele>41.2</ele>
        <time>2022-05-21 11:59:15</time>
      </trkpt>
      <trkpt lat="42.3264" lon="3.09408">
        <ele>41.4</ele>
        <time>2022-05-21 11:59:16</time>
      </trkpt>
      <trkpt lat="42.3264" lon="3.09412">
        <ele>41.4</ele>
        <time>2022-05-21 11:59:17</time>
      </trkpt>
      <trkpt lat="42.3264" lon="3.09415">
        <ele>41.6</ele>
        <time>2022-05-21 11:59:18</time>
      </trkpt>
      <trkpt lat="42.32641" lon="3.09418">
        <ele>41.6</ele>
        <time>2022-05-21 11:59:19</time>
      </trkpt>
      <trkpt lat="42.32641" lon="3.0942">
        <ele>41.8</ele>
        <time>2022-05-21 11:59:20</time>
      </trkpt>
      <trkpt lat="42.32642" lon="3.09422">
        <ele>41.8</ele>
        <time>2022-05-21 11:59:21</time>
      </trkpt>
      <trkpt lat="42.32641" lon="3.09422">
        <ele>41.8</ele>
        <time>2022-05-21 11:59:22</time>
      </trkpt>
      <trkpt lat="42.32641" lon="3.09421">
        <ele>42</ele>
        <time>2022-05-21 11:59:23</time>
      </trkpt>
      <trkpt lat="42.3264" lon="3.09421">
        <ele>42</ele>
        <time>2022-05-21 11:59:24</time>
      </trkpt>
      <trkpt lat="42.3264" lon="3.09421">
        <ele>42</ele>
        <time>2022-05-21 11:59:25</time>
      </trkpt>
      <trkpt lat="42.3264" lon="3.09421">
        <ele>42</ele>
        <time>2022-05-21 11:59:26</time>
      </trkpt>
      <trkpt lat="42.32645" lon="3.09408">
        <ele>42</ele>
        <time>2022-05-21 12:05:24</time>
      </trkpt>
      <trkpt lat="42.32645" lon="3.09406">
        <ele>42</ele>
        <time>2022-05-21 12:05:25</time>
      </trkpt>
      <trkpt lat="42.32646" lon="3.09404">
        <ele>42</ele>
        <time>2022-05-21 12:05:26</time>
      </trkpt>
      <trkpt lat="42.32647" lon="3.09401">
        <ele>41.8</ele>
        <time>2022-05-21 12:05:27</time>
      </trkpt>
      <trkpt lat="42.32647" lon="3.09399">
        <ele>41.8</ele>
        <time>2022-05-21 12:05:28</time>
      </trkpt>
      <trkpt lat="42.32647" lon="3.09396">
        <ele>41.8</ele>
        <time>2022-05-21 12:05:29</time>
      </trkpt>
      <trkpt lat="42.32647" lon="3.09394">
        <ele>41.6</ele>
        <time>2022-05-21 12:05:30</time>
      </trkpt>
      <trkpt lat="42.32647" lon="3.09391">
        <ele>41.6</ele>
        <time>2022-05-21 12:05:31</time>
      </trkpt>
      <trkpt lat="42.32646" lon="3.09388">
        <ele>41.6</ele>
        <time>2022-05-21 12:05:32</time>
      </trkpt>
      <trkpt lat="42.32644" lon="3.09385">
        <ele>41.6</ele>
        <time>2022-05-21 12:05:33</time>
      </trkpt>
      <trkpt lat="42.32643" lon="3.09383">
        <ele>41.4</ele>
        <time>2022-05-21 12:05:34</time>
      </trkpt>
      <trkpt lat="42.32641" lon="3.09382">
        <ele>41.4</ele>
        <time>2022-05-21 12:05:35</time>
      </trkpt>
      <trkpt lat="42.32638" lon="3.09378">
        <ele>41.4</ele>
        <time>2022-05-21 12:05:36</time>
      </trkpt>
      <trkpt lat="42.32635" lon="3.09376">
        <ele>41.4</ele>
        <time>2022-05-21 12:05:37</time>
      </trkpt>
      <trkpt lat="42.32632" lon="3.09375">
        <ele>41.4</ele>
        <time>2022-05-21 12:05:38</time>
      </trkpt>
      <trkpt lat="42.32631" lon="3.09373">
        <ele>41.4</ele>
        <time>2022-05-21 12:05:39</time>
      </trkpt>
      <trkpt lat="42.32625" lon="3.09371">
        <ele>41.2</ele>
        <time>2022-05-21 12:05:40</time>
      </trkpt>
      <trkpt lat="42.32623" lon="3.09369">
        <ele>41.2</ele>
        <time>2022-05-21 12:05:41</time>
      </trkpt>
      <trkpt lat="42.32621" lon="3.09367">
        <ele>41.2</ele>
        <time>2022-05-21 12:05:42</time>
      </trkpt>
      <trkpt lat="42.32617" lon="3.09362">
        <ele>41.2</ele>
        <time>2022-05-21 12:05:43</time>
      </trkpt>
      <trkpt lat="42.32615" lon="3.09359">
        <ele>41.2</ele>
        <time>2022-05-21 12:05:44</time>
      </trkpt>
      <trkpt lat="42.32612" lon="3.09357">
        <ele>41.2</ele>
        <time>2022-05-21 12:05:45</time>
      </trkpt>
      <trkpt lat="42.32609" lon="3.09354">
        <ele>41.2</ele>
        <time>2022-05-21 12:05:46</time>
      </trkpt>
      <trkpt lat="42.32607" lon="3.09351">
        <ele>41</ele>
        <time>2022-05-21 12:05:47</time>
      </trkpt>
      <trkpt lat="42.32603" lon="3.09348">
        <ele>41</ele>
        <time>2022-05-21 12:05:48</time>
      </trkpt>
      <trkpt lat="42.326" lon="3.09344">
        <ele>41</ele>
        <time>2022-05-21 12:05:49</time>
      </trkpt>
      <trkpt lat="42.32597" lon="3.0934">
        <ele>41</ele>
        <time>2022-05-21 12:05:50</time>
      </trkpt>
      <trkpt lat="42.32594" lon="3.09337">
        <ele>41</ele>
        <time>2022-05-21 12:05:51</time>
      </trkpt>
      <trkpt lat="42.32591" lon="3.09334">
        <ele>41</ele>
        <time>2022-05-21 12:05:52</time>
      </trkpt>
      <trkpt lat="42.32587" lon="3.0933">
        <ele>41</ele>
        <time>2022-05-21 12:05:53</time>
      </trkpt>
      <trkpt lat="42.32584" lon="3.09326">
        <ele>41</ele>
        <time>2022-05-21 12:05:54</time>
      </trkpt>
      <trkpt lat="42.32581" lon="3.09321">
        <ele>41</ele>
        <time>2022-05-21 12:05:55</time>
      </trkpt>
      <trkpt lat="42.32578" lon="3.09318">
        <ele>41</ele>
        <time>2022-05-21 12:05:56</time>
      </trkpt>
      <trkpt lat="42.32575" lon="3.09314">
        <ele>41</ele>
        <time>2022-05-21 12:05:57</time>
      </trkpt>
      <trkpt lat="42.32573" lon="3.09309">
        <ele>41</ele>
        <time>2022-05-21 12:05:58</time>
      </trkpt>
      <trkpt lat="42.32571" lon="3.09305">
        <ele>41.2</ele>
        <time>2022-05-21 12:05:59</time>
      </trkpt>
      <trkpt lat="42.32569" lon="3.09301">
        <ele>41.2</ele>
        <time>2022-05-21 12:06:00</time>
      </trkpt>
      <trkpt lat="42.32568" lon="3.09297">
        <ele>41.2</ele>
        <time>2022-05-21 12:06:01</time>
      </trkpt>
      <trkpt lat="42.32566" lon="3.09293">
        <ele>41.4</ele>
        <time>2022-05-21 12:06:02</time>
      </trkpt>
      <trkpt lat="42.32565" lon="3.09288">
        <ele>41.4</ele>
        <time>2022-05-21 12:06:03</time>
      </trkpt>
      <trkpt lat="42.32563" lon="3.09284">
        <ele>41.4</ele>
        <time>2022-05-21 12:06:04</time>
      </trkpt>
      <trkpt lat="42.32562" lon="3.09279">
        <ele>41.4</ele>
        <time>2022-05-21 12:06:05</time>
      </trkpt>
      <trkpt lat="42.3256" lon="3.09275">
        <ele>41.4</ele>
        <time>2022-05-21 12:06:06</time>
      </trkpt>
      <trkpt lat="42.32559" lon="3.09271">
        <ele>41.2</ele>
        <time>2022-05-21 12:06:07</time>
      </trkpt>
      <trkpt lat="42.32557" lon="3.09267">
        <ele>41.2</ele>
        <time>2022-05-21 12:06:08</time>
      </trkpt>
      <trkpt lat="42.32554" lon="3.09262">
        <ele>41</ele>
        <time>2022-05-21 12:06:09</time>
      </trkpt>
      <trkpt lat="42.32551" lon="3.09257">
        <ele>40.8</ele>
        <time>2022-05-21 12:06:10</time>
      </trkpt>
      <trkpt lat="42.32549" lon="3.09253">
        <ele>40.6</ele>
        <time>2022-05-21 12:06:11</time>
      </trkpt>
      <trkpt lat="42.32545" lon="3.09249">
        <ele>40.4</ele>
        <time>2022-05-21 12:06:12</time>
      </trkpt>
      <trkpt lat="42.32541" lon="3.09246">
        <ele>40.2</ele>
        <time>2022-05-21 12:06:13</time>
      </trkpt>
      <trkpt lat="42.32536" lon="3.09246">
        <ele>40</ele>
        <time>2022-05-21 12:06:14</time>
      </trkpt>
      <trkpt lat="42.32531" lon="3.09247">
        <ele>39.8</ele>
        <time>2022-05-21 12:06:15</time>
      </trkpt>
      <trkpt lat="42.32527" lon="3.09246">
        <ele>39.6</ele>
        <time>2022-05-21 12:06:16</time>
      </trkpt>
      <trkpt lat="42.32524" lon="3.09244">
        <ele>39.4</ele>
        <time>2022-05-21 12:06:17</time>
      </trkpt>
      <trkpt lat="42.32521" lon="3.09241">
        <ele>39.2</ele>
        <time>2022-05-21 12:06:18</time>
      </trkpt>
      <trkpt lat="42.32518" lon="3.09237">
        <ele>38.8</ele>
        <time>2022-05-21 12:06:19</time>
      </trkpt>
      <trkpt lat="42.32515" lon="3.09234">
        <ele>38.6</ele>
        <time>2022-05-21 12:06:20</time>
      </trkpt>
      <trkpt lat="42.32513" lon="3.0923">
        <ele>38.4</ele>
        <time>2022-05-21 12:06:21</time>
      </trkpt>
      <trkpt lat="42.32511" lon="3.09227">
        <ele>38.4</ele>
        <time>2022-05-21 12:06:22</time>
      </trkpt>
      <trkpt lat="42.32509" lon="3.09224">
        <ele>38.2</ele>
        <time>2022-05-21 12:06:23</time>
      </trkpt>
      <trkpt lat="42.32507" lon="3.09222">
        <ele>38</ele>
        <time>2022-05-21 12:06:24</time>
      </trkpt>
      <trkpt lat="42.32506" lon="3.09221">
        <ele>38</ele>
        <time>2022-05-21 12:06:25</time>
      </trkpt>
      <trkpt lat="42.32494" lon="3.09214">
        <ele>37.4</ele>
        <time>2022-05-21 13:06:11</time>
      </trkpt>
      <trkpt lat="42.32493" lon="3.09213">
        <ele>37.4</ele>
        <time>2022-05-21 13:06:12</time>
      </trkpt>
      <trkpt lat="42.32492" lon="3.09211">
        <ele>37.4</ele>
        <time>2022-05-21 13:06:13</time>
      </trkpt>
      <trkpt lat="42.32491" lon="3.0921">
        <ele>37.4</ele>
        <time>2022-05-21 13:06:14</time>
      </trkpt>
      <trkpt lat="42.32489" lon="3.09207">
        <ele>37.4</ele>
        <time>2022-05-21 13:06:15</time>
      </trkpt>
      <trkpt lat="42.32488" lon="3.09205">
        <ele>37.4</ele>
        <time>2022-05-21 13:06:16</time>
      </trkpt>
      <trkpt lat="42.32486" lon="3.09202">
        <ele>37.2</ele>
        <time>2022-05-21 13:06:17</time>
      </trkpt>
      <trkpt lat="42.32484" lon="3.092">
        <ele>37.2</ele>
        <time>2022-05-21 13:06:18</time>
      </trkpt>
      <trkpt lat="42.32482" lon="3.09197">
        <ele>37.2</ele>
        <time>2022-05-21 13:06:19</time>
      </trkpt>
      <trkpt lat="42.3248" lon="3.09194">
        <ele>37.2</ele>
        <time>2022-05-21 13:06:20</time>
      </trkpt>
      <trkpt lat="42.32478" lon="3.09191">
        <ele>37.2</ele>
        <time>2022-05-21 13:06:21</time>
      </trkpt>
      <trkpt lat="42.32477" lon="3.09189">
        <ele>37</ele>
        <time>2022-05-21 13:06:22</time>
      </trkpt>
      <trkpt lat="42.32473" lon="3.09184">
        <ele>37</ele>
        <time>2022-05-21 13:06:23</time>
      </trkpt>
      <trkpt lat="42.32471" lon="3.0918">
        <ele>37</ele>
        <time>2022-05-21 13:06:24</time>
      </trkpt>
      <trkpt lat="42.32469" lon="3.09177">
        <ele>37</ele>
        <time>2022-05-21 13:06:25</time>
      </trkpt>
      <trkpt lat="42.32467" lon="3.09174">
        <ele>36.8</ele>
        <time>2022-05-21 13:06:26</time>
      </trkpt>
      <trkpt lat="42.32464" lon="3.0917">
        <ele>36.8</ele>
        <time>2022-05-21 13:06:27</time>
      </trkpt>
      <trkpt lat="42.32461" lon="3.09167">
        <ele>36.8</ele>
        <time>2022-05-21 13:06:28</time>
      </trkpt>
      <trkpt lat="42.32458" lon="3.09164">
        <ele>36.8</ele>
        <time>2022-05-21 13:06:29</time>
      </trkpt>
      <trkpt lat="42.32456" lon="3.09161">
        <ele>36.6</ele>
        <time>2022-05-21 13:06:30</time>
      </trkpt>
      <trkpt lat="42.32453" lon="3.09157">
        <ele>36.4</ele>
        <time>2022-05-21 13:06:31</time>
      </trkpt>
      <trkpt lat="42.3245" lon="3.09153">
        <ele>36.4</ele>
        <time>2022-05-21 13:06:32</time>
      </trkpt>
      <trkpt lat="42.32448" lon="3.0915">
        <ele>36.2</ele>
        <time>2022-05-21 13:06:33</time>
      </trkpt>
      <trkpt lat="42.32444" lon="3.09146">
        <ele>36.2</ele>
        <time>2022-05-21 13:06:34</time>
      </trkpt>
      <trkpt lat="42.32441" lon="3.09142">
        <ele>36</ele>
        <time>2022-05-21 13:06:35</time>
      </trkpt>
      <trkpt lat="42.32438" lon="3.09138">
        <ele>36</ele>
        <time>2022-05-21 13:06:36</time>
      </trkpt>
      <trkpt lat="42.32434" lon="3.09134">
        <ele>36</ele>
        <time>2022-05-21 13:06:37</time>
      </trkpt>
      <trkpt lat="42.32431" lon="3.0913">
        <ele>35.8</ele>
        <time>2022-05-21 13:06:38</time>
      </trkpt>
      <trkpt lat="42.32427" lon="3.09126">
        <ele>35.8</ele>
        <time>2022-05-21 13:06:39</time>
      </trkpt>
      <trkpt lat="42.32424" lon="3.09121">
        <ele>35.6</ele>
        <time>2022-05-21 13:06:40</time>
      </trkpt>
      <trkpt lat="42.3242" lon="3.09116">
        <ele>35.6</ele>
        <time>2022-05-21 13:06:41</time>
      </trkpt>
      <trkpt lat="42.32417" lon="3.09112">
        <ele>35.4</ele>
        <time>2022-05-21 13:06:42</time>
      </trkpt>
      <trkpt lat="42.32414" lon="3.09108">
        <ele>35.4</ele>
        <time>2022-05-21 13:06:43</time>
      </trkpt>
      <trkpt lat="42.3241" lon="3.09104">
        <ele>35.4</ele>
        <time>2022-05-21 13:06:44</time>
      </trkpt>
      <trkpt lat="42.32407" lon="3.091">
        <ele>35.4</ele>
        <time>2022-05-21 13:06:45</time>
      </trkpt>
      <trkpt lat="42.32404" lon="3.09095">
        <ele>35.4</ele>
        <time>2022-05-21 13:06:46</time>
      </trkpt>
      <trkpt lat="42.32401" lon="3.09091">
        <ele>35.2</ele>
        <time>2022-05-21 13:06:47</time>
      </trkpt>
      <trkpt lat="42.32398" lon="3.09086">
        <ele>35.2</ele>
        <time>2022-05-21 13:06:48</time>
      </trkpt>
      <trkpt lat="42.32395" lon="3.09082">
        <ele>35.2</ele>
        <time>2022-05-21 13:06:49</time>
      </trkpt>
      <trkpt lat="42.32392" lon="3.09077">
        <ele>35</ele>
        <time>2022-05-21 13:06:50</time>
      </trkpt>
      <trkpt lat="42.32389" lon="3.09072">
        <ele>35</ele>
        <time>2022-05-21 13:06:51</time>
      </trkpt>
      <trkpt lat="42.32387" lon="3.09066">
        <ele>35</ele>
        <time>2022-05-21 13:06:52</time>
      </trkpt>
      <trkpt lat="42.32386" lon="3.0906">
        <ele>35.2</ele>
        <time>2022-05-21 13:06:53</time>
      </trkpt>
      <trkpt lat="42.32385" lon="3.09054">
        <ele>35.2</ele>
        <time>2022-05-21 13:06:54</time>
      </trkpt>
      <trkpt lat="42.32386" lon="3.09047">
        <ele>35.2</ele>
        <time>2022-05-21 13:06:55</time>
      </trkpt>
      <trkpt lat="42.32386" lon="3.09041">
        <ele>35.2</ele>
        <time>2022-05-21 13:06:56</time>
      </trkpt>
      <trkpt lat="42.32387" lon="3.09034">
        <ele>35.2</ele>
        <time>2022-05-21 13:06:57</time>
      </trkpt>
      <trkpt lat="42.32388" lon="3.09028">
        <ele>35.2</ele>
        <time>2022-05-21 13:06:58</time>
      </trkpt>
      <trkpt lat="42.32389" lon="3.09021">
        <ele>35.2</ele>
        <time>2022-05-21 13:06:59</time>
      </trkpt>
      <trkpt lat="42.32391" lon="3.09015">
        <ele>35.2</ele>
        <time>2022-05-21 13:07:00</time>
      </trkpt>
      <trkpt lat="42.32393" lon="3.09008">
        <ele>35</ele>
        <time>2022-05-21 13:07:01</time>
      </trkpt>
      <trkpt lat="42.32395" lon="3.09002">
        <ele>35.2</ele>
        <time>2022-05-21 13:07:02</time>
      </trkpt>
      <trkpt lat="42.32398" lon="3.08997">
        <ele>35.2</ele>
        <time>2022-05-21 13:07:03</time>
      </trkpt>
      <trkpt lat="42.32402" lon="3.08992">
        <ele>35.2</ele>
        <time>2022-05-21 13:07:04</time>
      </trkpt>
      <trkpt lat="42.32405" lon="3.08988">
        <ele>35.2</ele>
        <time>2022-05-21 13:07:05</time>
      </trkpt>
      <trkpt lat="42.32409" lon="3.08983">
        <ele>35.4</ele>
        <time>2022-05-21 13:07:06</time>
      </trkpt>
      <trkpt lat="42.32413" lon="3.0898">
        <ele>35.6</ele>
        <time>2022-05-21 13:07:07</time>
      </trkpt>
      <trkpt lat="42.32417" lon="3.08976">
        <ele>35.6</ele>
        <time>2022-05-21 13:07:08</time>
      </trkpt>
      <trkpt lat="42.32421" lon="3.08973">
        <ele>35.8</ele>
        <time>2022-05-21 13:07:09</time>
      </trkpt>
      <trkpt lat="42.32425" lon="3.08969">
        <ele>36</ele>
        <time>2022-05-21 13:07:10</time>
      </trkpt>
      <trkpt lat="42.32429" lon="3.08965">
        <ele>36</ele>
        <time>2022-05-21 13:07:11</time>
      </trkpt>
      <trkpt lat="42.32433" lon="3.08962">
        <ele>36.2</ele>
        <time>2022-05-21 13:07:12</time>
      </trkpt>
      <trkpt lat="42.32437" lon="3.08959">
        <ele>36.4</ele>
        <time>2022-05-21 13:07:13</time>
      </trkpt>
      <trkpt lat="42.3244" lon="3.08956">
        <ele>36.6</ele>
        <time>2022-05-21 13:07:14</time>
      </trkpt>
      <trkpt lat="42.32444" lon="3.08954">
        <ele>36.6</ele>
        <time>2022-05-21 13:07:15</time>
      </trkpt>
      <trkpt lat="42.32448" lon="3.08952">
        <ele>36.8</ele>
        <time>2022-05-21 13:07:16</time>
      </trkpt>
      <trkpt lat="42.32451" lon="3.0895">
        <ele>37</ele>
        <time>2022-05-21 13:07:17</time>
      </trkpt>
      <trkpt lat="42.32454" lon="3.08949">
        <ele>37.2</ele>
        <time>2022-05-21 13:07:18</time>
      </trkpt>
      <trkpt lat="42.32458" lon="3.08947">
        <ele>37.4</ele>
        <time>2022-05-21 13:07:19</time>
      </trkpt>
      <trkpt lat="42.32462" lon="3.08945">
        <ele>37.6</ele>
        <time>2022-05-21 13:07:20</time>
      </trkpt>
      <trkpt lat="42.32466" lon="3.08944">
        <ele>37.8</ele>
        <time>2022-05-21 13:07:21</time>
      </trkpt>
      <trkpt lat="42.32469" lon="3.08943">
        <ele>38</ele>
        <time>2022-05-21 13:07:22</time>
      </trkpt>
      <trkpt lat="42.32473" lon="3.08941">
        <ele>38.2</ele>
        <time>2022-05-21 13:07:23</time>
      </trkpt>
      <trkpt lat="42.32477" lon="3.08939">
        <ele>38.4</ele>
        <time>2022-05-21 13:07:24</time>
      </trkpt>
      <trkpt lat="42.32481" lon="3.08937">
        <ele>38.6</ele>
        <time>2022-05-21 13:07:25</time>
      </trkpt>
      <trkpt lat="42.32485" lon="3.08935">
        <ele>38.8</ele>
        <time>2022-05-21 13:07:26</time>
      </trkpt>
      <trkpt lat="42.32489" lon="3.08933">
        <ele>39</ele>
        <time>2022-05-21 13:07:27</time>
      </trkpt>
      <trkpt lat="42.32493" lon="3.08932">
        <ele>39.2</ele>
        <time>2022-05-21 13:07:28</time>
      </trkpt>
      <trkpt lat="42.32497" lon="3.0893">
        <ele>39.4</ele>
        <time>2022-05-21 13:07:29</time>
      </trkpt>
      <trkpt lat="42.32501" lon="3.08929">
        <ele>39.6</ele>
        <time>2022-05-21 13:07:30</time>
      </trkpt>
      <trkpt lat="42.32505" lon="3.08928">
        <ele>39.8</ele>
        <time>2022-05-21 13:07:31</time>
      </trkpt>
      <trkpt lat="42.32509" lon="3.08927">
        <ele>39.8</ele>
        <time>2022-05-21 13:07:32</time>
      </trkpt>
      <trkpt lat="42.32513" lon="3.08926">
        <ele>40</ele>
        <time>2022-05-21 13:07:33</time>
      </trkpt>
      <trkpt lat="42.32517" lon="3.08925">
        <ele>40.4</ele>
        <time>2022-05-21 13:07:34</time>
      </trkpt>
      <trkpt lat="42.32521" lon="3.08925">
        <ele>40.6</ele>
        <time>2022-05-21 13:07:35</time>
      </trkpt>
      <trkpt lat="42.32524" lon="3.08925">
        <ele>40.8</ele>
        <time>2022-05-21 13:07:36</time>
      </trkpt>
      <trkpt lat="42.32528" lon="3.08924">
        <ele>41</ele>
        <time>2022-05-21 13:07:37</time>
      </trkpt>
      <trkpt lat="42.32532" lon="3.08924">
        <ele>41.2</ele>
        <time>2022-05-21 13:07:38</time>
      </trkpt>
      <trkpt lat="42.32535" lon="3.08923">
        <ele>41.4</ele>
        <time>2022-05-21 13:07:39</time>
      </trkpt>
      <trkpt lat="42.32539" lon="3.08923">
        <ele>41.6</ele>
        <time>2022-05-21 13:07:40</time>
      </trkpt>
      <trkpt lat="42.32542" lon="3.08923">
        <ele>41.8</ele>
        <time>2022-05-21 13:07:41</time>
      </trkpt>
      <trkpt lat="42.32545" lon="3.08923">
        <ele>42</ele>
        <time>2022-05-21 13:07:42</time>
      </trkpt>
      <trkpt lat="42.32547" lon="3.08923">
        <ele>42</ele>
        <time>2022-05-21 13:07:43</time>
      </trkpt>
      <trkpt lat="42.3255" lon="3.08923">
        <ele>42.2</ele>
        <time>2022-05-21 13:07:44</time>
      </trkpt>
      <trkpt lat="42.32552" lon="3.08923">
        <ele>42.4</ele>
        <time>2022-05-21 13:07:45</time>
      </trkpt>
      <trkpt lat="42.32555" lon="3.08923">
        <ele>42.6</ele>
        <time>2022-05-21 13:07:46</time>
      </trkpt>
      <trkpt lat="42.32557" lon="3.08923">
        <ele>42.6</ele>
        <time>2022-05-21 13:07:47</time>
      </trkpt>
      <trkpt lat="42.32559" lon="3.08923">
        <ele>42.6</ele>
        <time>2022-05-21 13:07:48</time>
      </trkpt>
      <trkpt lat="42.32561" lon="3.08923">
        <ele>42.8</ele>
        <time>2022-05-21 13:07:49</time>
      </trkpt>
      <trkpt lat="42.32565" lon="3.08923">
        <ele>43</ele>
        <time>2022-05-21 13:07:50</time>
      </trkpt>
      <trkpt lat="42.32567" lon="3.08923">
        <ele>43</ele>
        <time>2022-05-21 13:07:51</time>
      </trkpt>
      <trkpt lat="42.3257" lon="3.08923">
        <ele>43.2</ele>
        <time>2022-05-21 13:07:52</time>
      </trkpt>
      <trkpt lat="42.32572" lon="3.08923">
        <ele>43.2</ele>
        <time>2022-05-21 13:07:53</time>
      </trkpt>
      <trkpt lat="42.32575" lon="3.08923">
        <ele>43.4</ele>
        <time>2022-05-21 13:07:54</time>
      </trkpt>
      <trkpt lat="42.32578" lon="3.08923">
        <ele>43.4</ele>
        <time>2022-05-21 13:07:55</time>
      </trkpt>
      <trkpt lat="42.3258" lon="3.08923">
        <ele>43.6</ele>
        <time>2022-05-21 13:07:56</time>
      </trkpt>
      <trkpt lat="42.32583" lon="3.08924">
        <ele>43.6</ele>
        <time>2022-05-21 13:07:57</time>
      </trkpt>
      <trkpt lat="42.32586" lon="3.08924">
        <ele>43.8</ele>
        <time>2022-05-21 13:07:58</time>
      </trkpt>
      <trkpt lat="42.32589" lon="3.08924">
        <ele>43.8</ele>
        <time>2022-05-21 13:07:59</time>
      </trkpt>
      <trkpt lat="42.32592" lon="3.08924">
        <ele>44</ele>
        <time>2022-05-21 13:08:00</time>
      </trkpt>
      <trkpt lat="42.32595" lon="3.08925">
        <ele>44</ele>
        <time>2022-05-21 13:08:01</time>
      </trkpt>
      <trkpt lat="42.32598" lon="3.08925">
        <ele>44.2</ele>
        <time>2022-05-21 13:08:02</time>
      </trkpt>
      <trkpt lat="42.32601" lon="3.08925">
        <ele>44.2</ele>
        <time>2022-05-21 13:08:03</time>
      </trkpt>
      <trkpt lat="42.32604" lon="3.08926">
        <ele>44.4</ele>
        <time>2022-05-21 13:08:04</time>
      </trkpt>
      <trkpt lat="42.32607" lon="3.08926">
        <ele>44.4</ele>
        <time>2022-05-21 13:08:05</time>
      </trkpt>
      <trkpt lat="42.3261" lon="3.08927">
        <ele>44.6</ele>
        <time>2022-05-21 13:08:06</time>
      </trkpt>
      <trkpt lat="42.32614" lon="3.08928">
        <ele>44.6</ele>
        <time>2022-05-21 13:08:07</time>
      </trkpt>
      <trkpt lat="42.32617" lon="3.08928">
        <ele>44.8</ele>
        <time>2022-05-21 13:08:08</time>
      </trkpt>
      <trkpt lat="42.3262" lon="3.08929">
        <ele>44.8</ele>
        <time>2022-05-21 13:08:09</time>
      </trkpt>
      <trkpt lat="42.32623" lon="3.08929">
        <ele>44.8</ele>
        <time>2022-05-21 13:08:10</time>
      </trkpt>
      <trkpt lat="42.32627" lon="3.08929">
        <ele>45</ele>
        <time>2022-05-21 13:08:11</time>
      </trkpt>
      <trkpt lat="42.3263" lon="3.08929">
        <ele>45.2</ele>
        <time>2022-05-21 13:08:12</time>
      </trkpt>
      <trkpt lat="42.32633" lon="3.0893">
        <ele>45.2</ele>
        <time>2022-05-21 13:08:13</time>
      </trkpt>
      <trkpt lat="42.32637" lon="3.0893">
        <ele>45.4</ele>
        <time>2022-05-21 13:08:14</time>
      </trkpt>
      <trkpt lat="42.3264" lon="3.0893">
        <ele>45.4</ele>
        <time>2022-05-21 13:08:15</time>
      </trkpt>
      <trkpt lat="42.32643" lon="3.08931">
        <ele>45.6</ele>
        <time>2022-05-21 13:08:16</time>
      </trkpt>
      <trkpt lat="42.32646" lon="3.08931">
        <ele>45.8</ele>
        <time>2022-05-21 13:08:17</time>
      </trkpt>
      <trkpt lat="42.3265" lon="3.08931">
        <ele>45.8</ele>
        <time>2022-05-21 13:08:18</time>
      </trkpt>
      <trkpt lat="42.32653" lon="3.08931">
        <ele>46</ele>
        <time>2022-05-21 13:08:19</time>
      </trkpt>
      <trkpt lat="42.32657" lon="3.08932">
        <ele>46</ele>
        <time>2022-05-21 13:08:20</time>
      </trkpt>
      <trkpt lat="42.32661" lon="3.08932">
        <ele>46.2</ele>
        <time>2022-05-21 13:08:21</time>
      </trkpt>
      <trkpt lat="42.32664" lon="3.08933">
        <ele>46.2</ele>
        <time>2022-05-21 13:08:22</time>
      </trkpt>
      <trkpt lat="42.32668" lon="3.08933">
        <ele>46.2</ele>
        <time>2022-05-21 13:08:23</time>
      </trkpt>
      <trkpt lat="42.32673" lon="3.08934">
        <ele>46.4</ele>
        <time>2022-05-21 13:08:24</time>
      </trkpt>
      <trkpt lat="42.32677" lon="3.08934">
        <ele>46.4</ele>
        <time>2022-05-21 13:08:25</time>
      </trkpt>
      <trkpt lat="42.32681" lon="3.08935">
        <ele>46.4</ele>
        <time>2022-05-21 13:08:26</time>
      </trkpt>
      <trkpt lat="42.32685" lon="3.08935">
        <ele>46.4</ele>
        <time>2022-05-21 13:08:27</time>
      </trkpt>
      <trkpt lat="42.3269" lon="3.08936">
        <ele>46.4</ele>
        <time>2022-05-21 13:08:28</time>
      </trkpt>
      <trkpt lat="42.32694" lon="3.08936">
        <ele>46.4</ele>
        <time>2022-05-21 13:08:29</time>
      </trkpt>
      <trkpt lat="42.32698" lon="3.08937">
        <ele>46.4</ele>
        <time>2022-05-21 13:08:30</time>
      </trkpt>
      <trkpt lat="42.32702" lon="3.08937">
        <ele>46.4</ele>
        <time>2022-05-21 13:08:31</time>
      </trkpt>
      <trkpt lat="42.32707" lon="3.08938">
        <ele>46.4</ele>
        <time>2022-05-21 13:08:32</time>
      </trkpt>
      <trkpt lat="42.32711" lon="3.08938">
        <ele>46.4</ele>
        <time>2022-05-21 13:08:33</time>
      </trkpt>
      <trkpt lat="42.32715" lon="3.08939">
        <ele>46.4</ele>
        <time>2022-05-21 13:08:34</time>
      </trkpt>
      <trkpt lat="42.32719" lon="3.0894">
        <ele>46.4</ele>
        <time>2022-05-21 13:08:35</time>
      </trkpt>
      <trkpt lat="42.32724" lon="3.0894">
        <ele>46.4</ele>
        <time>2022-05-21 13:08:36</time>
      </trkpt>
      <trkpt lat="42.32729" lon="3.0894">
        <ele>46.4</ele>
        <time>2022-05-21 13:08:37</time>
      </trkpt>
      <trkpt lat="42.32733" lon="3.0894">
        <ele>46.2</ele>
        <time>2022-05-21 13:08:38</time>
      </trkpt>
      <trkpt lat="42.32738" lon="3.0894">
        <ele>46.2</ele>
        <time>2022-05-21 13:08:39</time>
      </trkpt>
      <trkpt lat="42.32743" lon="3.0894">
        <ele>46</ele>
        <time>2022-05-21 13:08:40</time>
      </trkpt>
      <trkpt lat="42.32748" lon="3.08939">
        <ele>45.8</ele>
        <time>2022-05-21 13:08:41</time>
      </trkpt>
      <trkpt lat="42.32753" lon="3.08938">
        <ele>45.6</ele>
        <time>2022-05-21 13:08:42</time>
      </trkpt>
      <trkpt lat="42.32758" lon="3.08937">
        <ele>45.4</ele>
        <time>2022-05-21 13:08:43</time>
      </trkpt>
      <trkpt lat="42.32764" lon="3.08935">
        <ele>45.2</ele>
        <time>2022-05-21 13:08:44</time>
      </trkpt>
      <trkpt lat="42.32769" lon="3.08933">
        <ele>45</ele>
        <time>2022-05-21 13:08:45</time>
      </trkpt>
      <trkpt lat="42.32775" lon="3.0893">
        <ele>44.8</ele>
        <time>2022-05-21 13:08:46</time>
      </trkpt>
      <trkpt lat="42.32781" lon="3.08927">
        <ele>44.6</ele>
        <time>2022-05-21 13:08:47</time>
      </trkpt>
      <trkpt lat="42.32786" lon="3.08924">
        <ele>44.4</ele>
        <time>2022-05-21 13:08:48</time>
      </trkpt>
      <trkpt lat="42.32791" lon="3.0892">
        <ele>44.2</ele>
        <time>2022-05-21 13:08:49</time>
      </trkpt>
      <trkpt lat="42.32798" lon="3.08915">
        <ele>44</ele>
        <time>2022-05-21 13:08:50</time>
      </trkpt>
      <trkpt lat="42.32804" lon="3.08909">
        <ele>43.8</ele>
        <time>2022-05-21 13:08:51</time>
      </trkpt>
      <trkpt lat="42.32809" lon="3.08903">
        <ele>43.6</ele>
        <time>2022-05-21 13:08:52</time>
      </trkpt>
      <trkpt lat="42.32814" lon="3.08898">
        <ele>43.4</ele>
        <time>2022-05-21 13:08:53</time>
      </trkpt>
      <trkpt lat="42.32819" lon="3.08892">
        <ele>43.2</ele>
        <time>2022-05-21 13:08:54</time>
      </trkpt>
      <trkpt lat="42.32824" lon="3.08886">
        <ele>43.2</ele>
        <time>2022-05-21 13:08:55</time>
      </trkpt>
      <trkpt lat="42.32829" lon="3.0888">
        <ele>43</ele>
        <time>2022-05-21 13:08:56</time>
      </trkpt>
      <trkpt lat="42.32834" lon="3.08874">
        <ele>43</ele>
        <time>2022-05-21 13:08:57</time>
      </trkpt>
      <trkpt lat="42.32839" lon="3.08868">
        <ele>43</ele>
        <time>2022-05-21 13:08:58</time>
      </trkpt>
      <trkpt lat="42.32844" lon="3.08862">
        <ele>43</ele>
        <time>2022-05-21 13:08:59</time>
      </trkpt>
      <trkpt lat="42.32848" lon="3.08856">
        <ele>43</ele>
        <time>2022-05-21 13:09:00</time>
      </trkpt>
      <trkpt lat="42.32853" lon="3.0885">
        <ele>43</ele>
        <time>2022-05-21 13:09:01</time>
      </trkpt>
      <trkpt lat="42.32857" lon="3.08844">
        <ele>43</ele>
        <time>2022-05-21 13:09:02</time>
      </trkpt>
      <trkpt lat="42.32861" lon="3.08839">
        <ele>43</ele>
        <time>2022-05-21 13:09:03</time>
      </trkpt>
      <trkpt lat="42.32866" lon="3.08833">
        <ele>43</ele>
        <time>2022-05-21 13:09:04</time>
      </trkpt>
      <trkpt lat="42.32871" lon="3.08827">
        <ele>43</ele>
        <time>2022-05-21 13:09:05</time>
      </trkpt>
      <trkpt lat="42.32875" lon="3.08822">
        <ele>43</ele>
        <time>2022-05-21 13:09:06</time>
      </trkpt>
      <trkpt lat="42.32879" lon="3.08817">
        <ele>43</ele>
        <time>2022-05-21 13:09:07</time>
      </trkpt>
      <trkpt lat="42.32882" lon="3.08812">
        <ele>43.2</ele>
        <time>2022-05-21 13:09:08</time>
      </trkpt>
      <trkpt lat="42.32888" lon="3.08805">
        <ele>43.2</ele>
        <time>2022-05-21 13:09:09</time>
      </trkpt>
      <trkpt lat="42.32893" lon="3.08799">
        <ele>43.2</ele>
        <time>2022-05-21 13:09:10</time>
      </trkpt>
      <trkpt lat="42.32897" lon="3.08794">
        <ele>43</ele>
        <time>2022-05-21 13:09:11</time>
      </trkpt>
      <trkpt lat="42.32901" lon="3.08788">
        <ele>43</ele>
        <time>2022-05-21 13:09:12</time>
      </trkpt>
      <trkpt lat="42.32906" lon="3.08783">
        <ele>43</ele>
        <time>2022-05-21 13:09:13</time>
      </trkpt>
      <trkpt lat="42.3291" lon="3.08777">
        <ele>43</ele>
        <time>2022-05-21 13:09:14</time>
      </trkpt>
      <trkpt lat="42.32915" lon="3.08772">
        <ele>43</ele>
        <time>2022-05-21 13:09:15</time>
      </trkpt>
      <trkpt lat="42.32919" lon="3.08766">
        <ele>42.8</ele>
        <time>2022-05-21 13:09:16</time>
      </trkpt>
      <trkpt lat="42.32924" lon="3.0876">
        <ele>42.8</ele>
        <time>2022-05-21 13:09:17</time>
      </trkpt>
      <trkpt lat="42.32928" lon="3.08755">
        <ele>42.8</ele>
        <time>2022-05-21 13:09:18</time>
      </trkpt>
      <trkpt lat="42.32932" lon="3.08749">
        <ele>42.8</ele>
        <time>2022-05-21 13:09:19</time>
      </trkpt>
      <trkpt lat="42.32937" lon="3.08744">
        <ele>42.8</ele>
        <time>2022-05-21 13:09:20</time>
      </trkpt>
      <trkpt lat="42.32941" lon="3.08738">
        <ele>43</ele>
        <time>2022-05-21 13:09:21</time>
      </trkpt>
      <trkpt lat="42.32945" lon="3.08733">
        <ele>43</ele>
        <time>2022-05-21 13:09:22</time>
      </trkpt>
      <trkpt lat="42.3295" lon="3.08727">
        <ele>43</ele>
        <time>2022-05-21 13:09:23</time>
      </trkpt>
      <trkpt lat="42.32954" lon="3.08722">
        <ele>43</ele>
        <time>2022-05-21 13:09:24</time>
      </trkpt>
      <trkpt lat="42.32958" lon="3.08716">
        <ele>43</ele>
        <time>2022-05-21 13:09:25</time>
      </trkpt>
      <trkpt lat="42.32963" lon="3.0871">
        <ele>43</ele>
        <time>2022-05-21 13:09:26</time>
      </trkpt>
      <trkpt lat="42.32967" lon="3.08705">
        <ele>43</ele>
        <time>2022-05-21 13:09:27</time>
      </trkpt>
      <trkpt lat="42.32972" lon="3.08699">
        <ele>43</ele>
        <time>2022-05-21 13:09:28</time>
      </trkpt>
      <trkpt lat="42.32976" lon="3.08694">
        <ele>43.2</ele>
        <time>2022-05-21 13:09:29</time>
      </trkpt>
      <trkpt lat="42.3298" lon="3.08689">
        <ele>43.2</ele>
        <time>2022-05-21 13:09:30</time>
      </trkpt>
      <trkpt lat="42.32985" lon="3.08683">
        <ele>43.2</ele>
        <time>2022-05-21 13:09:31</time>
      </trkpt>
      <trkpt lat="42.32989" lon="3.08678">
        <ele>43.2</ele>
        <time>2022-05-21 13:09:32</time>
      </trkpt>
      <trkpt lat="42.32994" lon="3.08672">
        <ele>43.4</ele>
        <time>2022-05-21 13:09:33</time>
      </trkpt>
      <trkpt lat="42.32998" lon="3.08666">
        <ele>43.4</ele>
        <time>2022-05-21 13:09:34</time>
      </trkpt>
      <trkpt lat="42.33002" lon="3.08661">
        <ele>43.4</ele>
        <time>2022-05-21 13:09:35</time>
      </trkpt>
      <trkpt lat="42.33007" lon="3.08655">
        <ele>43.4</ele>
        <time>2022-05-21 13:09:36</time>
      </trkpt>
      <trkpt lat="42.33011" lon="3.08649">
        <ele>43.4</ele>
        <time>2022-05-21 13:09:37</time>
      </trkpt>
      <trkpt lat="42.33015" lon="3.08644">
        <ele>43.6</ele>
        <time>2022-05-21 13:09:38</time>
      </trkpt>
      <trkpt lat="42.3302" lon="3.08638">
        <ele>43.6</ele>
        <time>2022-05-21 13:09:39</time>
      </trkpt>
      <trkpt lat="42.33024" lon="3.08632">
        <ele>43.6</ele>
        <time>2022-05-21 13:09:40</time>
      </trkpt>
      <trkpt lat="42.33028" lon="3.08627">
        <ele>43.6</ele>
        <time>2022-05-21 13:09:41</time>
      </trkpt>
      <trkpt lat="42.33033" lon="3.08621">
        <ele>43.6</ele>
        <time>2022-05-21 13:09:42</time>
      </trkpt>
      <trkpt lat="42.33037" lon="3.08615">
        <ele>43.6</ele>
        <time>2022-05-21 13:09:43</time>
      </trkpt>
      <trkpt lat="42.33041" lon="3.08609">
        <ele>43.8</ele>
        <time>2022-05-21 13:09:44</time>
      </trkpt>
      <trkpt lat="42.33045" lon="3.08603">
        <ele>43.8</ele>
        <time>2022-05-21 13:09:45</time>
      </trkpt>
      <trkpt lat="42.33049" lon="3.08597">
        <ele>43.8</ele>
        <time>2022-05-21 13:09:46</time>
      </trkpt>
      <trkpt lat="42.33054" lon="3.08591">
        <ele>43.8</ele>
        <time>2022-05-21 13:09:47</time>
      </trkpt>
      <trkpt lat="42.33057" lon="3.08585">
        <ele>44</ele>
        <time>2022-05-21 13:09:48</time>
      </trkpt>
      <trkpt lat="42.33061" lon="3.08578">
        <ele>44</ele>
        <time>2022-05-21 13:09:49</time>
      </trkpt>
      <trkpt lat="42.33064" lon="3.08572">
        <ele>44</ele>
        <time>2022-05-21 13:09:50</time>
      </trkpt>
      <trkpt lat="42.33068" lon="3.08565">
        <ele>44</ele>
        <time>2022-05-21 13:09:51</time>
      </trkpt>
      <trkpt lat="42.33072" lon="3.08558">
        <ele>44</ele>
        <time>2022-05-21 13:09:52</time>
      </trkpt>
      <trkpt lat="42.33075" lon="3.0855">
        <ele>44</ele>
        <time>2022-05-21 13:09:53</time>
      </trkpt>
      <trkpt lat="42.33078" lon="3.08544">
        <ele>44</ele>
        <time>2022-05-21 13:09:54</time>
      </trkpt>
      <trkpt lat="42.33081" lon="3.08537">
        <ele>44</ele>
        <time>2022-05-21 13:09:55</time>
      </trkpt>
      <trkpt lat="42.33085" lon="3.08528">
        <ele>44</ele>
        <time>2022-05-21 13:09:56</time>
      </trkpt>
      <trkpt lat="42.33088" lon="3.08521">
        <ele>44</ele>
        <time>2022-05-21 13:09:57</time>
      </trkpt>
      <trkpt lat="42.33091" lon="3.08515">
        <ele>43.8</ele>
        <time>2022-05-21 13:09:58</time>
      </trkpt>
      <trkpt lat="42.33095" lon="3.08506">
        <ele>43.8</ele>
        <time>2022-05-21 13:09:59</time>
      </trkpt>
      <trkpt lat="42.33098" lon="3.08499">
        <ele>43.8</ele>
        <time>2022-05-21 13:10:00</time>
      </trkpt>
      <trkpt lat="42.33101" lon="3.08491">
        <ele>43.8</ele>
        <time>2022-05-21 13:10:01</time>
      </trkpt>
      <trkpt lat="42.33105" lon="3.08484">
        <ele>43.8</ele>
        <time>2022-05-21 13:10:02</time>
      </trkpt>
      <trkpt lat="42.33107" lon="3.08477">
        <ele>43.8</ele>
        <time>2022-05-21 13:10:03</time>
      </trkpt>
      <trkpt lat="42.3311" lon="3.0847">
        <ele>43.8</ele>
        <time>2022-05-21 13:10:04</time>
      </trkpt>
      <trkpt lat="42.33113" lon="3.08462">
        <ele>43.8</ele>
        <time>2022-05-21 13:10:05</time>
      </trkpt>
      <trkpt lat="42.33116" lon="3.08455">
        <ele>43.8</ele>
        <time>2022-05-21 13:10:06</time>
      </trkpt>
      <trkpt lat="42.33119" lon="3.08449">
        <ele>43.8</ele>
        <time>2022-05-21 13:10:07</time>
      </trkpt>
      <trkpt lat="42.33123" lon="3.08442">
        <ele>44</ele>
        <time>2022-05-21 13:10:08</time>
      </trkpt>
      <trkpt lat="42.33126" lon="3.08435">
        <ele>44</ele>
        <time>2022-05-21 13:10:09</time>
      </trkpt>
      <trkpt lat="42.33128" lon="3.08427">
        <ele>44</ele>
        <time>2022-05-21 13:10:10</time>
      </trkpt>
      <trkpt lat="42.33131" lon="3.08421">
        <ele>44</ele>
        <time>2022-05-21 13:10:11</time>
      </trkpt>
      <trkpt lat="42.33134" lon="3.08414">
        <ele>44</ele>
        <time>2022-05-21 13:10:12</time>
      </trkpt>
      <trkpt lat="42.33138" lon="3.08407">
        <ele>44</ele>
        <time>2022-05-21 13:10:13</time>
      </trkpt>
      <trkpt lat="42.33141" lon="3.084">
        <ele>44.2</ele>
        <time>2022-05-21 13:10:14</time>
      </trkpt>
      <trkpt lat="42.33144" lon="3.08393">
        <ele>44.2</ele>
        <time>2022-05-21 13:10:15</time>
      </trkpt>
      <trkpt lat="42.33147" lon="3.08385">
        <ele>44.2</ele>
        <time>2022-05-21 13:10:16</time>
      </trkpt>
      <trkpt lat="42.3315" lon="3.08378">
        <ele>44.2</ele>
        <time>2022-05-21 13:10:17</time>
      </trkpt>
      <trkpt lat="42.33154" lon="3.08371">
        <ele>44.2</ele>
        <time>2022-05-21 13:10:18</time>
      </trkpt>
      <trkpt lat="42.33157" lon="3.08364">
        <ele>44.2</ele>
        <time>2022-05-21 13:10:19</time>
      </trkpt>
      <trkpt lat="42.3316" lon="3.08357">
        <ele>44.2</ele>
        <time>2022-05-21 13:10:20</time>
      </trkpt>
      <trkpt lat="42.33163" lon="3.0835">
        <ele>44.2</ele>
        <time>2022-05-21 13:10:21</time>
      </trkpt>
      <trkpt lat="42.33166" lon="3.08343">
        <ele>44.2</ele>
        <time>2022-05-21 13:10:22</time>
      </trkpt>
      <trkpt lat="42.33169" lon="3.08336">
        <ele>44.4</ele>
        <time>2022-05-21 13:10:23</time>
      </trkpt>
      <trkpt lat="42.33173" lon="3.08329">
        <ele>44.4</ele>
        <time>2022-05-21 13:10:24</time>
      </trkpt>
      <trkpt lat="42.33176" lon="3.08322">
        <ele>44.4</ele>
        <time>2022-05-21 13:10:25</time>
      </trkpt>
      <trkpt lat="42.33179" lon="3.08315">
        <ele>44.4</ele>
        <time>2022-05-21 13:10:26</time>
      </trkpt>
      <trkpt lat="42.33182" lon="3.08308">
        <ele>44.4</ele>
        <time>2022-05-21 13:10:27</time>
      </trkpt>
      <trkpt lat="42.33185" lon="3.08301">
        <ele>44.6</ele>
        <time>2022-05-21 13:10:28</time>
      </trkpt>
      <trkpt lat="42.33188" lon="3.08294">
        <ele>44.6</ele>
        <time>2022-05-21 13:10:29</time>
      </trkpt>
      <trkpt lat="42.33191" lon="3.08288">
        <ele>44.4</ele>
        <time>2022-05-21 13:10:30</time>
      </trkpt>
      <trkpt lat="42.33194" lon="3.08281">
        <ele>44.4</ele>
        <time>2022-05-21 13:10:31</time>
      </trkpt>
      <trkpt lat="42.33197" lon="3.08274">
        <ele>44.4</ele>
        <time>2022-05-21 13:10:32</time>
      </trkpt>
      <trkpt lat="42.33201" lon="3.08267">
        <ele>44.4</ele>
        <time>2022-05-21 13:10:33</time>
      </trkpt>
      <trkpt lat="42.33203" lon="3.0826">
        <ele>44.4</ele>
        <time>2022-05-21 13:10:34</time>
      </trkpt>
      <trkpt lat="42.33206" lon="3.08253">
        <ele>44.4</ele>
        <time>2022-05-21 13:10:35</time>
      </trkpt>
      <trkpt lat="42.3321" lon="3.08247">
        <ele>44.4</ele>
        <time>2022-05-21 13:10:36</time>
      </trkpt>
      <trkpt lat="42.33213" lon="3.0824">
        <ele>44.4</ele>
        <time>2022-05-21 13:10:37</time>
      </trkpt>
      <trkpt lat="42.33215" lon="3.08233">
        <ele>44.6</ele>
        <time>2022-05-21 13:10:38</time>
      </trkpt>
      <trkpt lat="42.33218" lon="3.08226">
        <ele>44.6</ele>
        <time>2022-05-21 13:10:39</time>
      </trkpt>
      <trkpt lat="42.33221" lon="3.08219">
        <ele>44.6</ele>
        <time>2022-05-21 13:10:40</time>
      </trkpt>
      <trkpt lat="42.33224" lon="3.08212">
        <ele>44.6</ele>
        <time>2022-05-21 13:10:41</time>
      </trkpt>
      <trkpt lat="42.33227" lon="3.08205">
        <ele>44.6</ele>
        <time>2022-05-21 13:10:42</time>
      </trkpt>
      <trkpt lat="42.33231" lon="3.08198">
        <ele>44.6</ele>
        <time>2022-05-21 13:10:43</time>
      </trkpt>
      <trkpt lat="42.33234" lon="3.08191">
        <ele>44.6</ele>
        <time>2022-05-21 13:10:44</time>
      </trkpt>
      <trkpt lat="42.33236" lon="3.08184">
        <ele>44.6</ele>
        <time>2022-05-21 13:10:45</time>
      </trkpt>
      <trkpt lat="42.33239" lon="3.08177">
        <ele>44.6</ele>
        <time>2022-05-21 13:10:46</time>
      </trkpt>
      <trkpt lat="42.33242" lon="3.08171">
        <ele>44.6</ele>
        <time>2022-05-21 13:10:47</time>
      </trkpt>
      <trkpt lat="42.33246" lon="3.08164">
        <ele>44.6</ele>
        <time>2022-05-21 13:10:48</time>
      </trkpt>
      <trkpt lat="42.33249" lon="3.08157">
        <ele>44.6</ele>
        <time>2022-05-21 13:10:49</time>
      </trkpt>
      <trkpt lat="42.33252" lon="3.0815">
        <ele>44.6</ele>
        <time>2022-05-21 13:10:50</time>
      </trkpt>
      <trkpt lat="42.33255" lon="3.08142">
        <ele>44.6</ele>
        <time>2022-05-21 13:10:51</time>
      </trkpt>
      <trkpt lat="42.33259" lon="3.08135">
        <ele>44.6</ele>
        <time>2022-05-21 13:10:52</time>
      </trkpt>
      <trkpt lat="42.33262" lon="3.08128">
        <ele>44.6</ele>
        <time>2022-05-21 13:10:53</time>
      </trkpt>
      <trkpt lat="42.33265" lon="3.08121">
        <ele>44.4</ele>
        <time>2022-05-21 13:10:54</time>
      </trkpt>
      <trkpt lat="42.33268" lon="3.08114">
        <ele>44.4</ele>
        <time>2022-05-21 13:10:55</time>
      </trkpt>
      <trkpt lat="42.33271" lon="3.08107">
        <ele>44.4</ele>
        <time>2022-05-21 13:10:56</time>
      </trkpt>
      <trkpt lat="42.33274" lon="3.081">
        <ele>44.4</ele>
        <time>2022-05-21 13:10:57</time>
      </trkpt>
      <trkpt lat="42.33278" lon="3.08093">
        <ele>44.4</ele>
        <time>2022-05-21 13:10:58</time>
      </trkpt>
      <trkpt lat="42.33281" lon="3.08086">
        <ele>44.4</ele>
        <time>2022-05-21 13:10:59</time>
      </trkpt>
      <trkpt lat="42.33284" lon="3.08079">
        <ele>44.2</ele>
        <time>2022-05-21 13:11:00</time>
      </trkpt>
      <trkpt lat="42.33288" lon="3.08071">
        <ele>44.2</ele>
        <time>2022-05-21 13:11:01</time>
      </trkpt>
      <trkpt lat="42.33291" lon="3.08064">
        <ele>44</ele>
        <time>2022-05-21 13:11:02</time>
      </trkpt>
      <trkpt lat="42.33294" lon="3.08057">
        <ele>44</ele>
        <time>2022-05-21 13:11:03</time>
      </trkpt>
      <trkpt lat="42.33297" lon="3.0805">
        <ele>44</ele>
        <time>2022-05-21 13:11:04</time>
      </trkpt>
      <trkpt lat="42.33301" lon="3.08043">
        <ele>44</ele>
        <time>2022-05-21 13:11:05</time>
      </trkpt>
      <trkpt lat="42.33304" lon="3.08036">
        <ele>44.2</ele>
        <time>2022-05-21 13:11:06</time>
      </trkpt>
      <trkpt lat="42.33307" lon="3.08029">
        <ele>44.2</ele>
        <time>2022-05-21 13:11:07</time>
      </trkpt>
      <trkpt lat="42.3331" lon="3.08022">
        <ele>44.2</ele>
        <time>2022-05-21 13:11:08</time>
      </trkpt>
      <trkpt lat="42.33314" lon="3.08015">
        <ele>44.2</ele>
        <time>2022-05-21 13:11:09</time>
      </trkpt>
      <trkpt lat="42.33317" lon="3.08008">
        <ele>44.2</ele>
        <time>2022-05-21 13:11:10</time>
      </trkpt>
      <trkpt lat="42.3332" lon="3.08001">
        <ele>44.2</ele>
        <time>2022-05-21 13:11:11</time>
      </trkpt>
      <trkpt lat="42.33322" lon="3.07994">
        <ele>44.2</ele>
        <time>2022-05-21 13:11:12</time>
      </trkpt>
      <trkpt lat="42.33326" lon="3.07987">
        <ele>44.2</ele>
        <time>2022-05-21 13:11:13</time>
      </trkpt>
      <trkpt lat="42.33329" lon="3.07981">
        <ele>44.2</ele>
        <time>2022-05-21 13:11:14</time>
      </trkpt>
      <trkpt lat="42.33331" lon="3.07974">
        <ele>44.4</ele>
        <time>2022-05-21 13:11:15</time>
      </trkpt>
      <trkpt lat="42.33335" lon="3.07967">
        <ele>44.4</ele>
        <time>2022-05-21 13:11:16</time>
      </trkpt>
      <trkpt lat="42.33338" lon="3.0796">
        <ele>44.2</ele>
        <time>2022-05-21 13:11:17</time>
      </trkpt>
      <trkpt lat="42.33341" lon="3.07953">
        <ele>44.2</ele>
        <time>2022-05-21 13:11:18</time>
      </trkpt>
      <trkpt lat="42.33344" lon="3.07946">
        <ele>44.2</ele>
        <time>2022-05-21 13:11:19</time>
      </trkpt>
      <trkpt lat="42.33346" lon="3.0794">
        <ele>44.2</ele>
        <time>2022-05-21 13:11:20</time>
      </trkpt>
      <trkpt lat="42.3335" lon="3.07933">
        <ele>44.2</ele>
        <time>2022-05-21 13:11:21</time>
      </trkpt>
      <trkpt lat="42.33353" lon="3.07926">
        <ele>44.2</ele>
        <time>2022-05-21 13:11:22</time>
      </trkpt>
      <trkpt lat="42.33356" lon="3.07919">
        <ele>44.2</ele>
        <time>2022-05-21 13:11:23</time>
      </trkpt>
      <trkpt lat="42.33359" lon="3.07912">
        <ele>44</ele>
        <time>2022-05-21 13:11:24</time>
      </trkpt>
      <trkpt lat="42.33362" lon="3.07906">
        <ele>44.2</ele>
        <time>2022-05-21 13:11:25</time>
      </trkpt>
      <trkpt lat="42.33365" lon="3.07899">
        <ele>44.2</ele>
        <time>2022-05-21 13:11:26</time>
      </trkpt>
      <trkpt lat="42.33368" lon="3.07892">
        <ele>44.2</ele>
        <time>2022-05-21 13:11:27</time>
      </trkpt>
      <trkpt lat="42.33371" lon="3.07884">
        <ele>44</ele>
        <time>2022-05-21 13:11:28</time>
      </trkpt>
      <trkpt lat="42.33374" lon="3.07877">
        <ele>44</ele>
        <time>2022-05-21 13:11:29</time>
      </trkpt>
      <trkpt lat="42.33377" lon="3.07871">
        <ele>44</ele>
        <time>2022-05-21 13:11:30</time>
      </trkpt>
      <trkpt lat="42.3338" lon="3.07864">
        <ele>44</ele>
        <time>2022-05-21 13:11:31</time>
      </trkpt>
      <trkpt lat="42.33382" lon="3.07857">
        <ele>44</ele>
        <time>2022-05-21 13:11:32</time>
      </trkpt>
      <trkpt lat="42.33385" lon="3.07851">
        <ele>44</ele>
        <time>2022-05-21 13:11:33</time>
      </trkpt>
      <trkpt lat="42.33388" lon="3.07844">
        <ele>44</ele>
        <time>2022-05-21 13:11:34</time>
      </trkpt>
      <trkpt lat="42.33391" lon="3.07837">
        <ele>44</ele>
        <time>2022-05-21 13:11:35</time>
      </trkpt>
      <trkpt lat="42.33395" lon="3.07831">
        <ele>44</ele>
        <time>2022-05-21 13:11:36</time>
      </trkpt>
      <trkpt lat="42.33397" lon="3.07824">
        <ele>44</ele>
        <time>2022-05-21 13:11:37</time>
      </trkpt>
      <trkpt lat="42.334" lon="3.07818">
        <ele>44</ele>
        <time>2022-05-21 13:11:38</time>
      </trkpt>
      <trkpt lat="42.33402" lon="3.07812">
        <ele>44.2</ele>
        <time>2022-05-21 13:11:39</time>
      </trkpt>
      <trkpt lat="42.33405" lon="3.07806">
        <ele>44.2</ele>
        <time>2022-05-21 13:11:40</time>
      </trkpt>
      <trkpt lat="42.33409" lon="3.07798">
        <ele>44.2</ele>
        <time>2022-05-21 13:11:41</time>
      </trkpt>
      <trkpt lat="42.33412" lon="3.07791">
        <ele>44.2</ele>
        <time>2022-05-21 13:11:42</time>
      </trkpt>
      <trkpt lat="42.33415" lon="3.07785">
        <ele>44.2</ele>
        <time>2022-05-21 13:11:43</time>
      </trkpt>
      <trkpt lat="42.33417" lon="3.07778">
        <ele>44.2</ele>
        <time>2022-05-21 13:11:44</time>
      </trkpt>
      <trkpt lat="42.3342" lon="3.07772">
        <ele>44.2</ele>
        <time>2022-05-21 13:11:45</time>
      </trkpt>
      <trkpt lat="42.33424" lon="3.07765">
        <ele>44.2</ele>
        <time>2022-05-21 13:11:46</time>
      </trkpt>
      <trkpt lat="42.33427" lon="3.07759">
        <ele>44.2</ele>
        <time>2022-05-21 13:11:47</time>
      </trkpt>
      <trkpt lat="42.3343" lon="3.07752">
        <ele>44.4</ele>
        <time>2022-05-21 13:11:48</time>
      </trkpt>
      <trkpt lat="42.33433" lon="3.07746">
        <ele>44.4</ele>
        <time>2022-05-21 13:11:49</time>
      </trkpt>
      <trkpt lat="42.33435" lon="3.07739">
        <ele>44.4</ele>
        <time>2022-05-21 13:11:50</time>
      </trkpt>
      <trkpt lat="42.33438" lon="3.07732">
        <ele>44.4</ele>
        <time>2022-05-21 13:11:51</time>
      </trkpt>
      <trkpt lat="42.33441" lon="3.07726">
        <ele>44.4</ele>
        <time>2022-05-21 13:11:52</time>
      </trkpt>
      <trkpt lat="42.33444" lon="3.07719">
        <ele>44.4</ele>
        <time>2022-05-21 13:11:53</time>
      </trkpt>
      <trkpt lat="42.33447" lon="3.07713">
        <ele>44.4</ele>
        <time>2022-05-21 13:11:54</time>
      </trkpt>
      <trkpt lat="42.3345" lon="3.07706">
        <ele>44.4</ele>
        <time>2022-05-21 13:11:55</time>
      </trkpt>
      <trkpt lat="42.33453" lon="3.077">
        <ele>44.4</ele>
        <time>2022-05-21 13:11:56</time>
      </trkpt>
      <trkpt lat="42.33456" lon="3.07694">
        <ele>44.4</ele>
        <time>2022-05-21 13:11:57</time>
      </trkpt>
      <trkpt lat="42.33458" lon="3.07687">
        <ele>44.6</ele>
        <time>2022-05-21 13:11:58</time>
      </trkpt>
      <trkpt lat="42.33462" lon="3.0768">
        <ele>44.6</ele>
        <time>2022-05-21 13:11:59</time>
      </trkpt>
      <trkpt lat="42.33465" lon="3.07674">
        <ele>44.6</ele>
        <time>2022-05-21 13:12:00</time>
      </trkpt>
      <trkpt lat="42.33468" lon="3.07667">
        <ele>44.6</ele>
        <time>2022-05-21 13:12:01</time>
      </trkpt>
      <trkpt lat="42.33471" lon="3.07661">
        <ele>44.8</ele>
        <time>2022-05-21 13:12:02</time>
      </trkpt>
      <trkpt lat="42.33474" lon="3.07654">
        <ele>44.8</ele>
        <time>2022-05-21 13:12:03</time>
      </trkpt>
      <trkpt lat="42.33476" lon="3.07648">
        <ele>44.8</ele>
        <time>2022-05-21 13:12:04</time>
      </trkpt>
      <trkpt lat="42.33479" lon="3.07641">
        <ele>44.8</ele>
        <time>2022-05-21 13:12:05</time>
      </trkpt>
      <trkpt lat="42.33482" lon="3.07634">
        <ele>44.8</ele>
        <time>2022-05-21 13:12:06</time>
      </trkpt>
      <trkpt lat="42.33485" lon="3.07628">
        <ele>44.8</ele>
        <time>2022-05-21 13:12:07</time>
      </trkpt>
      <trkpt lat="42.33488" lon="3.07621">
        <ele>44.8</ele>
        <time>2022-05-21 13:12:08</time>
      </trkpt>
      <trkpt lat="42.33491" lon="3.07615">
        <ele>44.8</ele>
        <time>2022-05-21 13:12:09</time>
      </trkpt>
      <trkpt lat="42.33494" lon="3.07609">
        <ele>44.8</ele>
        <time>2022-05-21 13:12:10</time>
      </trkpt>
      <trkpt lat="42.33497" lon="3.07603">
        <ele>44.8</ele>
        <time>2022-05-21 13:12:11</time>
      </trkpt>
      <trkpt lat="42.33499" lon="3.07596">
        <ele>45</ele>
        <time>2022-05-21 13:12:12</time>
      </trkpt>
      <trkpt lat="42.33502" lon="3.0759">
        <ele>45</ele>
        <time>2022-05-21 13:12:13</time>
      </trkpt>
      <trkpt lat="42.33505" lon="3.07584">
        <ele>45</ele>
        <time>2022-05-21 13:12:14</time>
      </trkpt>
      <trkpt lat="42.33508" lon="3.07577">
        <ele>45</ele>
        <time>2022-05-21 13:12:15</time>
      </trkpt>
      <trkpt lat="42.33511" lon="3.07571">
        <ele>45.2</ele>
        <time>2022-05-21 13:12:16</time>
      </trkpt>
      <trkpt lat="42.33514" lon="3.07564">
        <ele>45.2</ele>
        <time>2022-05-21 13:12:17</time>
      </trkpt>
      <trkpt lat="42.33517" lon="3.07557">
        <ele>45.2</ele>
        <time>2022-05-21 13:12:18</time>
      </trkpt>
      <trkpt lat="42.33519" lon="3.07552">
        <ele>45.2</ele>
        <time>2022-05-21 13:12:19</time>
      </trkpt>
      <trkpt lat="42.33521" lon="3.07548">
        <ele>45</ele>
        <time>2022-05-21 13:12:20</time>
      </trkpt>
      <trkpt lat="42.33525" lon="3.07538">
        <ele>45.2</ele>
        <time>2022-05-21 13:12:21</time>
      </trkpt>
      <trkpt lat="42.33527" lon="3.07533">
        <ele>45.2</ele>
        <time>2022-05-21 13:12:22</time>
      </trkpt>
      <trkpt lat="42.33529" lon="3.0753">
        <ele>45.2</ele>
        <time>2022-05-21 13:12:23</time>
      </trkpt>
      <trkpt lat="42.33532" lon="3.07522">
        <ele>45.2</ele>
        <time>2022-05-21 13:12:24</time>
      </trkpt>
      <trkpt lat="42.33536" lon="3.07512">
        <ele>45.4</ele>
        <time>2022-05-21 13:12:25</time>
      </trkpt>
      <trkpt lat="42.33539" lon="3.07505">
        <ele>45.4</ele>
        <time>2022-05-21 13:12:26</time>
      </trkpt>
      <trkpt lat="42.33543" lon="3.07499">
        <ele>45.4</ele>
        <time>2022-05-21 13:12:27</time>
      </trkpt>
      <trkpt lat="42.33545" lon="3.07492">
        <ele>45.4</ele>
        <time>2022-05-21 13:12:28</time>
      </trkpt>
      <trkpt lat="42.33548" lon="3.07486">
        <ele>45.4</ele>
        <time>2022-05-21 13:12:29</time>
      </trkpt>
      <trkpt lat="42.33551" lon="3.0748">
        <ele>45.4</ele>
        <time>2022-05-21 13:12:30</time>
      </trkpt>
      <trkpt lat="42.33554" lon="3.07473">
        <ele>45.6</ele>
        <time>2022-05-21 13:12:31</time>
      </trkpt>
      <trkpt lat="42.33557" lon="3.07467">
        <ele>45.6</ele>
        <time>2022-05-21 13:12:32</time>
      </trkpt>
      <trkpt lat="42.3356" lon="3.0746">
        <ele>45.6</ele>
        <time>2022-05-21 13:12:33</time>
      </trkpt>
      <trkpt lat="42.33563" lon="3.07454">
        <ele>45.6</ele>
        <time>2022-05-21 13:12:34</time>
      </trkpt>
      <trkpt lat="42.33566" lon="3.07447">
        <ele>45.8</ele>
        <time>2022-05-21 13:12:35</time>
      </trkpt>
      <trkpt lat="42.33569" lon="3.07441">
        <ele>45.8</ele>
        <time>2022-05-21 13:12:36</time>
      </trkpt>
      <trkpt lat="42.33572" lon="3.07434">
        <ele>45.8</ele>
        <time>2022-05-21 13:12:37</time>
      </trkpt>
      <trkpt lat="42.33575" lon="3.07427">
        <ele>45.8</ele>
        <time>2022-05-21 13:12:38</time>
      </trkpt>
      <trkpt lat="42.33578" lon="3.07421">
        <ele>45.8</ele>
        <time>2022-05-21 13:12:39</time>
      </trkpt>
      <trkpt lat="42.33581" lon="3.07414">
        <ele>45.8</ele>
        <time>2022-05-21 13:12:40</time>
      </trkpt>
      <trkpt lat="42.33584" lon="3.07408">
        <ele>46</ele>
        <time>2022-05-21 13:12:41</time>
      </trkpt>
      <trkpt lat="42.33586" lon="3.07401">
        <ele>46</ele>
        <time>2022-05-21 13:12:42</time>
      </trkpt>
      <trkpt lat="42.33589" lon="3.07395">
        <ele>46</ele>
        <time>2022-05-21 13:12:43</time>
      </trkpt>
      <trkpt lat="42.33592" lon="3.07388">
        <ele>46</ele>
        <time>2022-05-21 13:12:44</time>
      </trkpt>
      <trkpt lat="42.33595" lon="3.07382">
        <ele>46.2</ele>
        <time>2022-05-21 13:12:45</time>
      </trkpt>
      <trkpt lat="42.33598" lon="3.07375">
        <ele>46.2</ele>
        <time>2022-05-21 13:12:46</time>
      </trkpt>
      <trkpt lat="42.33601" lon="3.07369">
        <ele>46.2</ele>
        <time>2022-05-21 13:12:47</time>
      </trkpt>
      <trkpt lat="42.33604" lon="3.07363">
        <ele>46.2</ele>
        <time>2022-05-21 13:12:48</time>
      </trkpt>
      <trkpt lat="42.33607" lon="3.07356">
        <ele>46.4</ele>
        <time>2022-05-21 13:12:49</time>
      </trkpt>
      <trkpt lat="42.3361" lon="3.0735">
        <ele>46.4</ele>
        <time>2022-05-21 13:12:50</time>
      </trkpt>
      <trkpt lat="42.33613" lon="3.07343">
        <ele>46.4</ele>
        <time>2022-05-21 13:12:51</time>
      </trkpt>
      <trkpt lat="42.33616" lon="3.07336">
        <ele>46.4</ele>
        <time>2022-05-21 13:12:52</time>
      </trkpt>
      <trkpt lat="42.33618" lon="3.0733">
        <ele>46.4</ele>
        <time>2022-05-21 13:12:53</time>
      </trkpt>
      <trkpt lat="42.33622" lon="3.07323">
        <ele>46.4</ele>
        <time>2022-05-21 13:12:54</time>
      </trkpt>
      <trkpt lat="42.33625" lon="3.07317">
        <ele>46.6</ele>
        <time>2022-05-21 13:12:55</time>
      </trkpt>
      <trkpt lat="42.33628" lon="3.0731">
        <ele>46.6</ele>
        <time>2022-05-21 13:12:56</time>
      </trkpt>
      <trkpt lat="42.33631" lon="3.07303">
        <ele>46.8</ele>
        <time>2022-05-21 13:12:57</time>
      </trkpt>
      <trkpt lat="42.33634" lon="3.07296">
        <ele>46.8</ele>
        <time>2022-05-21 13:12:58</time>
      </trkpt>
      <trkpt lat="42.33637" lon="3.0729">
        <ele>46.8</ele>
        <time>2022-05-21 13:12:59</time>
      </trkpt>
      <trkpt lat="42.33639" lon="3.07283">
        <ele>46.8</ele>
        <time>2022-05-21 13:13:00</time>
      </trkpt>
      <trkpt lat="42.33643" lon="3.07276">
        <ele>46.8</ele>
        <time>2022-05-21 13:13:01</time>
      </trkpt>
      <trkpt lat="42.33646" lon="3.0727">
        <ele>46.8</ele>
        <time>2022-05-21 13:13:02</time>
      </trkpt>
      <trkpt lat="42.33649" lon="3.07263">
        <ele>47</ele>
        <time>2022-05-21 13:13:03</time>
      </trkpt>
      <trkpt lat="42.33652" lon="3.07256">
        <ele>47</ele>
        <time>2022-05-21 13:13:04</time>
      </trkpt>
      <trkpt lat="42.33655" lon="3.07249">
        <ele>47</ele>
        <time>2022-05-21 13:13:05</time>
      </trkpt>
      <trkpt lat="42.33658" lon="3.07242">
        <ele>47</ele>
        <time>2022-05-21 13:13:06</time>
      </trkpt>
      <trkpt lat="42.3366" lon="3.07235">
        <ele>47</ele>
        <time>2022-05-21 13:13:07</time>
      </trkpt>
      <trkpt lat="42.33663" lon="3.07228">
        <ele>47</ele>
        <time>2022-05-21 13:13:08</time>
      </trkpt>
      <trkpt lat="42.33666" lon="3.07221">
        <ele>47</ele>
        <time>2022-05-21 13:13:09</time>
      </trkpt>
      <trkpt lat="42.3367" lon="3.07214">
        <ele>47.2</ele>
        <time>2022-05-21 13:13:10</time>
      </trkpt>
      <trkpt lat="42.33673" lon="3.07206">
        <ele>47.2</ele>
        <time>2022-05-21 13:13:11</time>
      </trkpt>
      <trkpt lat="42.33676" lon="3.07199">
        <ele>47.2</ele>
        <time>2022-05-21 13:13:12</time>
      </trkpt>
      <trkpt lat="42.3368" lon="3.07192">
        <ele>47.2</ele>
        <time>2022-05-21 13:13:13</time>
      </trkpt>
      <trkpt lat="42.33683" lon="3.07184">
        <ele>47.2</ele>
        <time>2022-05-21 13:13:14</time>
      </trkpt>
      <trkpt lat="42.33686" lon="3.07177">
        <ele>47.2</ele>
        <time>2022-05-21 13:13:15</time>
      </trkpt>
      <trkpt lat="42.33689" lon="3.0717">
        <ele>47.2</ele>
        <time>2022-05-21 13:13:16</time>
      </trkpt>
      <trkpt lat="42.33692" lon="3.07163">
        <ele>47.2</ele>
        <time>2022-05-21 13:13:17</time>
      </trkpt>
      <trkpt lat="42.33695" lon="3.07155">
        <ele>47.4</ele>
        <time>2022-05-21 13:13:18</time>
      </trkpt>
      <trkpt lat="42.33699" lon="3.07148">
        <ele>47.4</ele>
        <time>2022-05-21 13:13:19</time>
      </trkpt>
      <trkpt lat="42.33702" lon="3.07141">
        <ele>47.6</ele>
        <time>2022-05-21 13:13:20</time>
      </trkpt>
      <trkpt lat="42.33705" lon="3.07134">
        <ele>47.6</ele>
        <time>2022-05-21 13:13:21</time>
      </trkpt>
      <trkpt lat="42.33708" lon="3.07126">
        <ele>47.6</ele>
        <time>2022-05-21 13:13:22</time>
      </trkpt>
      <trkpt lat="42.33712" lon="3.07119">
        <ele>47.8</ele>
        <time>2022-05-21 13:13:23</time>
      </trkpt>
      <trkpt lat="42.33715" lon="3.07112">
        <ele>47.8</ele>
        <time>2022-05-21 13:13:24</time>
      </trkpt>
      <trkpt lat="42.33718" lon="3.07105">
        <ele>47.8</ele>
        <time>2022-05-21 13:13:25</time>
      </trkpt>
      <trkpt lat="42.33721" lon="3.07097">
        <ele>47.8</ele>
        <time>2022-05-21 13:13:26</time>
      </trkpt>
      <trkpt lat="42.33725" lon="3.0709">
        <ele>47.8</ele>
        <time>2022-05-21 13:13:27</time>
      </trkpt>
      <trkpt lat="42.33728" lon="3.07083">
        <ele>48</ele>
        <time>2022-05-21 13:13:28</time>
      </trkpt>
      <trkpt lat="42.33731" lon="3.07076">
        <ele>48</ele>
        <time>2022-05-21 13:13:29</time>
      </trkpt>
      <trkpt lat="42.33734" lon="3.07069">
        <ele>48</ele>
        <time>2022-05-21 13:13:30</time>
      </trkpt>
      <trkpt lat="42.33737" lon="3.07062">
        <ele>48</ele>
        <time>2022-05-21 13:13:31</time>
      </trkpt>
      <trkpt lat="42.33741" lon="3.07055">
        <ele>48</ele>
        <time>2022-05-21 13:13:32</time>
      </trkpt>
      <trkpt lat="42.33744" lon="3.07048">
        <ele>48</ele>
        <time>2022-05-21 13:13:33</time>
      </trkpt>
      <trkpt lat="42.33747" lon="3.0704">
        <ele>48</ele>
        <time>2022-05-21 13:13:34</time>
      </trkpt>
      <trkpt lat="42.3375" lon="3.07033">
        <ele>48</ele>
        <time>2022-05-21 13:13:35</time>
      </trkpt>
      <trkpt lat="42.33754" lon="3.07027">
        <ele>48</ele>
        <time>2022-05-21 13:13:36</time>
      </trkpt>
      <trkpt lat="42.33757" lon="3.0702">
        <ele>48</ele>
        <time>2022-05-21 13:13:37</time>
      </trkpt>
      <trkpt lat="42.3376" lon="3.07013">
        <ele>48</ele>
        <time>2022-05-21 13:13:38</time>
      </trkpt>
      <trkpt lat="42.33763" lon="3.07006">
        <ele>48.2</ele>
        <time>2022-05-21 13:13:39</time>
      </trkpt>
      <trkpt lat="42.33766" lon="3.06999">
        <ele>48.2</ele>
        <time>2022-05-21 13:13:40</time>
      </trkpt>
      <trkpt lat="42.3377" lon="3.06992">
        <ele>48.4</ele>
        <time>2022-05-21 13:13:41</time>
      </trkpt>
      <trkpt lat="42.33773" lon="3.06985">
        <ele>48.4</ele>
        <time>2022-05-21 13:13:42</time>
      </trkpt>
      <trkpt lat="42.33776" lon="3.06978">
        <ele>48.4</ele>
        <time>2022-05-21 13:13:43</time>
      </trkpt>
      <trkpt lat="42.33779" lon="3.06971">
        <ele>48.6</ele>
        <time>2022-05-21 13:13:44</time>
      </trkpt>
      <trkpt lat="42.33783" lon="3.06964">
        <ele>48.6</ele>
        <time>2022-05-21 13:13:45</time>
      </trkpt>
      <trkpt lat="42.33786" lon="3.06957">
        <ele>48.8</ele>
        <time>2022-05-21 13:13:46</time>
      </trkpt>
      <trkpt lat="42.33789" lon="3.0695">
        <ele>48.8</ele>
        <time>2022-05-21 13:13:47</time>
      </trkpt>
      <trkpt lat="42.33792" lon="3.06943">
        <ele>48.8</ele>
        <time>2022-05-21 13:13:48</time>
      </trkpt>
      <trkpt lat="42.33795" lon="3.06935">
        <ele>48.8</ele>
        <time>2022-05-21 13:13:49</time>
      </trkpt>
      <trkpt lat="42.33798" lon="3.06928">
        <ele>48.8</ele>
        <time>2022-05-21 13:13:50</time>
      </trkpt>
      <trkpt lat="42.33802" lon="3.06921">
        <ele>49</ele>
        <time>2022-05-21 13:13:51</time>
      </trkpt>
      <trkpt lat="42.33805" lon="3.06914">
        <ele>49</ele>
        <time>2022-05-21 13:13:52</time>
      </trkpt>
      <trkpt lat="42.33808" lon="3.06907">
        <ele>49</ele>
        <time>2022-05-21 13:13:53</time>
      </trkpt>
      <trkpt lat="42.33811" lon="3.069">
        <ele>49</ele>
        <time>2022-05-21 13:13:54</time>
      </trkpt>
      <trkpt lat="42.33814" lon="3.06893">
        <ele>49</ele>
        <time>2022-05-21 13:13:55</time>
      </trkpt>
      <trkpt lat="42.33817" lon="3.06886">
        <ele>49.2</ele>
        <time>2022-05-21 13:13:56</time>
      </trkpt>
      <trkpt lat="42.3382" lon="3.06879">
        <ele>49.2</ele>
        <time>2022-05-21 13:13:57</time>
      </trkpt>
      <trkpt lat="42.33824" lon="3.06872">
        <ele>49.2</ele>
        <time>2022-05-21 13:13:58</time>
      </trkpt>
      <trkpt lat="42.33827" lon="3.06865">
        <ele>49.2</ele>
        <time>2022-05-21 13:13:59</time>
      </trkpt>
      <trkpt lat="42.3383" lon="3.06859">
        <ele>49.2</ele>
        <time>2022-05-21 13:14:00</time>
      </trkpt>
      <trkpt lat="42.33833" lon="3.06852">
        <ele>49.2</ele>
        <time>2022-05-21 13:14:01</time>
      </trkpt>
      <trkpt lat="42.33836" lon="3.06845">
        <ele>49.2</ele>
        <time>2022-05-21 13:14:02</time>
      </trkpt>
      <trkpt lat="42.33839" lon="3.06838">
        <ele>49.4</ele>
        <time>2022-05-21 13:14:03</time>
      </trkpt>
      <trkpt lat="42.33842" lon="3.06831">
        <ele>49.4</ele>
        <time>2022-05-21 13:14:04</time>
      </trkpt>
      <trkpt lat="42.33845" lon="3.06824">
        <ele>49.4</ele>
        <time>2022-05-21 13:14:05</time>
      </trkpt>
      <trkpt lat="42.33848" lon="3.06817">
        <ele>49.4</ele>
        <time>2022-05-21 13:14:06</time>
      </trkpt>
      <trkpt lat="42.33851" lon="3.0681">
        <ele>49.4</ele>
        <time>2022-05-21 13:14:07</time>
      </trkpt>
      <trkpt lat="42.33854" lon="3.06803">
        <ele>49.4</ele>
        <time>2022-05-21 13:14:08</time>
      </trkpt>
      <trkpt lat="42.33857" lon="3.06796">
        <ele>49.4</ele>
        <time>2022-05-21 13:14:09</time>
      </trkpt>
      <trkpt lat="42.3386" lon="3.06789">
        <ele>49.4</ele>
        <time>2022-05-21 13:14:10</time>
      </trkpt>
      <trkpt lat="42.33863" lon="3.06782">
        <ele>49.4</ele>
        <time>2022-05-21 13:14:11</time>
      </trkpt>
      <trkpt lat="42.33866" lon="3.06776">
        <ele>49.4</ele>
        <time>2022-05-21 13:14:12</time>
      </trkpt>
      <trkpt lat="42.33869" lon="3.06769">
        <ele>49.6</ele>
        <time>2022-05-21 13:14:13</time>
      </trkpt>
      <trkpt lat="42.33872" lon="3.06762">
        <ele>49.6</ele>
        <time>2022-05-21 13:14:14</time>
      </trkpt>
      <trkpt lat="42.33875" lon="3.06755">
        <ele>49.6</ele>
        <time>2022-05-21 13:14:15</time>
      </trkpt>
      <trkpt lat="42.33878" lon="3.06748">
        <ele>49.8</ele>
        <time>2022-05-21 13:14:16</time>
      </trkpt>
      <trkpt lat="42.33881" lon="3.06742">
        <ele>49.8</ele>
        <time>2022-05-21 13:14:17</time>
      </trkpt>
      <trkpt lat="42.33884" lon="3.06735">
        <ele>49.8</ele>
        <time>2022-05-21 13:14:18</time>
      </trkpt>
      <trkpt lat="42.33887" lon="3.06729">
        <ele>50</ele>
        <time>2022-05-21 13:14:19</time>
      </trkpt>
      <trkpt lat="42.3389" lon="3.06722">
        <ele>50</ele>
        <time>2022-05-21 13:14:20</time>
      </trkpt>
      <trkpt lat="42.33893" lon="3.06715">
        <ele>50.2</ele>
        <time>2022-05-21 13:14:21</time>
      </trkpt>
      <trkpt lat="42.33895" lon="3.06708">
        <ele>50</ele>
        <time>2022-05-21 13:14:22</time>
      </trkpt>
      <trkpt lat="42.33898" lon="3.06701">
        <ele>50.2</ele>
        <time>2022-05-21 13:14:23</time>
      </trkpt>
      <trkpt lat="42.33901" lon="3.06694">
        <ele>50.2</ele>
        <time>2022-05-21 13:14:24</time>
      </trkpt>
      <trkpt lat="42.33905" lon="3.06687">
        <ele>50.2</ele>
        <time>2022-05-21 13:14:25</time>
      </trkpt>
      <trkpt lat="42.33908" lon="3.0668">
        <ele>50.2</ele>
        <time>2022-05-21 13:14:26</time>
      </trkpt>
      <trkpt lat="42.33911" lon="3.06673">
        <ele>50.4</ele>
        <time>2022-05-21 13:14:27</time>
      </trkpt>
      <trkpt lat="42.33914" lon="3.06665">
        <ele>50.4</ele>
        <time>2022-05-21 13:14:28</time>
      </trkpt>
      <trkpt lat="42.33917" lon="3.06658">
        <ele>50.4</ele>
        <time>2022-05-21 13:14:29</time>
      </trkpt>
      <trkpt lat="42.33921" lon="3.06651">
        <ele>50.4</ele>
        <time>2022-05-21 13:14:30</time>
      </trkpt>
      <trkpt lat="42.33924" lon="3.06643">
        <ele>50.4</ele>
        <time>2022-05-21 13:14:31</time>
      </trkpt>
      <trkpt lat="42.33927" lon="3.06636">
        <ele>50.4</ele>
        <time>2022-05-21 13:14:32</time>
      </trkpt>
      <trkpt lat="42.3393" lon="3.06629">
        <ele>50.6</ele>
        <time>2022-05-21 13:14:33</time>
      </trkpt>
      <trkpt lat="42.33934" lon="3.06622">
        <ele>50.6</ele>
        <time>2022-05-21 13:14:34</time>
      </trkpt>
      <trkpt lat="42.33937" lon="3.06615">
        <ele>50.6</ele>
        <time>2022-05-21 13:14:35</time>
      </trkpt>
      <trkpt lat="42.3394" lon="3.06609">
        <ele>50.6</ele>
        <time>2022-05-21 13:14:36</time>
      </trkpt>
      <trkpt lat="42.33943" lon="3.06601">
        <ele>50.6</ele>
        <time>2022-05-21 13:14:37</time>
      </trkpt>
      <trkpt lat="42.33946" lon="3.06595">
        <ele>50.8</ele>
        <time>2022-05-21 13:14:38</time>
      </trkpt>
      <trkpt lat="42.33949" lon="3.06588">
        <ele>50.8</ele>
        <time>2022-05-21 13:14:39</time>
      </trkpt>
      <trkpt lat="42.33952" lon="3.06581">
        <ele>50.8</ele>
        <time>2022-05-21 13:14:40</time>
      </trkpt>
      <trkpt lat="42.33955" lon="3.06574">
        <ele>50.8</ele>
        <time>2022-05-21 13:14:41</time>
      </trkpt>
      <trkpt lat="42.33957" lon="3.06567">
        <ele>51</ele>
        <time>2022-05-21 13:14:42</time>
      </trkpt>
      <trkpt lat="42.3396" lon="3.0656">
        <ele>51</ele>
        <time>2022-05-21 13:14:43</time>
      </trkpt>
      <trkpt lat="42.33963" lon="3.06553">
        <ele>51</ele>
        <time>2022-05-21 13:14:44</time>
      </trkpt>
      <trkpt lat="42.33966" lon="3.06546">
        <ele>51</ele>
        <time>2022-05-21 13:14:45</time>
      </trkpt>
      <trkpt lat="42.33969" lon="3.0654">
        <ele>51.2</ele>
        <time>2022-05-21 13:14:46</time>
      </trkpt>
      <trkpt lat="42.33972" lon="3.06533">
        <ele>51.2</ele>
        <time>2022-05-21 13:14:47</time>
      </trkpt>
      <trkpt lat="42.33974" lon="3.06526">
        <ele>51.4</ele>
        <time>2022-05-21 13:14:48</time>
      </trkpt>
      <trkpt lat="42.33977" lon="3.06518">
        <ele>51.4</ele>
        <time>2022-05-21 13:14:49</time>
      </trkpt>
      <trkpt lat="42.33979" lon="3.06511">
        <ele>51.4</ele>
        <time>2022-05-21 13:14:50</time>
      </trkpt>
      <trkpt lat="42.33983" lon="3.06504">
        <ele>51.4</ele>
        <time>2022-05-21 13:14:51</time>
      </trkpt>
      <trkpt lat="42.33986" lon="3.06497">
        <ele>51.4</ele>
        <time>2022-05-21 13:14:52</time>
      </trkpt>
      <trkpt lat="42.3399" lon="3.0649">
        <ele>51.4</ele>
        <time>2022-05-21 13:14:53</time>
      </trkpt>
      <trkpt lat="42.33994" lon="3.06484">
        <ele>51.4</ele>
        <time>2022-05-21 13:14:54</time>
      </trkpt>
      <trkpt lat="42.33997" lon="3.06477">
        <ele>51.4</ele>
        <time>2022-05-21 13:14:55</time>
      </trkpt>
      <trkpt lat="42.34001" lon="3.0647">
        <ele>51.2</ele>
        <time>2022-05-21 13:14:56</time>
      </trkpt>
      <trkpt lat="42.34004" lon="3.06463">
        <ele>51.2</ele>
        <time>2022-05-21 13:14:57</time>
      </trkpt>
      <trkpt lat="42.34008" lon="3.06456">
        <ele>51.2</ele>
        <time>2022-05-21 13:14:58</time>
      </trkpt>
      <trkpt lat="42.34012" lon="3.06449">
        <ele>51.2</ele>
        <time>2022-05-21 13:14:59</time>
      </trkpt>
      <trkpt lat="42.34016" lon="3.06441">
        <ele>51.2</ele>
        <time>2022-05-21 13:15:00</time>
      </trkpt>
      <trkpt lat="42.3402" lon="3.06434">
        <ele>51.2</ele>
        <time>2022-05-21 13:15:01</time>
      </trkpt>
      <trkpt lat="42.34024" lon="3.06428">
        <ele>51</ele>
        <time>2022-05-21 13:15:02</time>
      </trkpt>
      <trkpt lat="42.34028" lon="3.06421">
        <ele>51</ele>
        <time>2022-05-21 13:15:03</time>
      </trkpt>
      <trkpt lat="42.34033" lon="3.06415">
        <ele>51</ele>
        <time>2022-05-21 13:15:04</time>
      </trkpt>
      <trkpt lat="42.34037" lon="3.06408">
        <ele>51</ele>
        <time>2022-05-21 13:15:05</time>
      </trkpt>
      <trkpt lat="42.34041" lon="3.06401">
        <ele>51</ele>
        <time>2022-05-21 13:15:06</time>
      </trkpt>
      <trkpt lat="42.34045" lon="3.06395">
        <ele>50.8</ele>
        <time>2022-05-21 13:15:07</time>
      </trkpt>
      <trkpt lat="42.3405" lon="3.06388">
        <ele>50.8</ele>
        <time>2022-05-21 13:15:08</time>
      </trkpt>
      <trkpt lat="42.34054" lon="3.06382">
        <ele>50.8</ele>
        <time>2022-05-21 13:15:09</time>
      </trkpt>
      <trkpt lat="42.34058" lon="3.06375">
        <ele>50.8</ele>
        <time>2022-05-21 13:15:10</time>
      </trkpt>
      <trkpt lat="42.34063" lon="3.06368">
        <ele>50.6</ele>
        <time>2022-05-21 13:15:11</time>
      </trkpt>
      <trkpt lat="42.34067" lon="3.06361">
        <ele>50.6</ele>
        <time>2022-05-21 13:15:12</time>
      </trkpt>
      <trkpt lat="42.34072" lon="3.06354">
        <ele>50.6</ele>
        <time>2022-05-21 13:15:13</time>
      </trkpt>
      <trkpt lat="42.34077" lon="3.06347">
        <ele>50.4</ele>
        <time>2022-05-21 13:15:14</time>
      </trkpt>
      <trkpt lat="42.34081" lon="3.0634">
        <ele>50.4</ele>
        <time>2022-05-21 13:15:15</time>
      </trkpt>
      <trkpt lat="42.34086" lon="3.06333">
        <ele>50.4</ele>
        <time>2022-05-21 13:15:16</time>
      </trkpt>
      <trkpt lat="42.34091" lon="3.06326">
        <ele>50.2</ele>
        <time>2022-05-21 13:15:17</time>
      </trkpt>
      <trkpt lat="42.34095" lon="3.06319">
        <ele>50.2</ele>
        <time>2022-05-21 13:15:18</time>
      </trkpt>
      <trkpt lat="42.341" lon="3.06311">
        <ele>50.2</ele>
        <time>2022-05-21 13:15:19</time>
      </trkpt>
      <trkpt lat="42.34105" lon="3.06304">
        <ele>50.2</ele>
        <time>2022-05-21 13:15:20</time>
      </trkpt>
      <trkpt lat="42.3411" lon="3.06297">
        <ele>50.2</ele>
        <time>2022-05-21 13:15:21</time>
      </trkpt>
      <trkpt lat="42.34115" lon="3.0629">
        <ele>50.2</ele>
        <time>2022-05-21 13:15:22</time>
      </trkpt>
      <trkpt lat="42.3412" lon="3.06282">
        <ele>50</ele>
        <time>2022-05-21 13:15:23</time>
      </trkpt>
      <trkpt lat="42.34124" lon="3.06276">
        <ele>50</ele>
        <time>2022-05-21 13:15:24</time>
      </trkpt>
      <trkpt lat="42.34129" lon="3.06268">
        <ele>49.8</ele>
        <time>2022-05-21 13:15:25</time>
      </trkpt>
      <trkpt lat="42.34134" lon="3.06261">
        <ele>49.6</ele>
        <time>2022-05-21 13:15:26</time>
      </trkpt>
      <trkpt lat="42.34139" lon="3.06254">
        <ele>49.6</ele>
        <time>2022-05-21 13:15:27</time>
      </trkpt>
      <trkpt lat="42.34144" lon="3.06247">
        <ele>49.6</ele>
        <time>2022-05-21 13:15:28</time>
      </trkpt>
      <trkpt lat="42.34148" lon="3.06239">
        <ele>49.6</ele>
        <time>2022-05-21 13:15:29</time>
      </trkpt>
      <trkpt lat="42.34153" lon="3.06232">
        <ele>49.4</ele>
        <time>2022-05-21 13:15:30</time>
      </trkpt>
      <trkpt lat="42.34158" lon="3.06225">
        <ele>49.4</ele>
        <time>2022-05-21 13:15:31</time>
      </trkpt>
      <trkpt lat="42.34162" lon="3.06218">
        <ele>49.4</ele>
        <time>2022-05-21 13:15:32</time>
      </trkpt>
      <trkpt lat="42.34167" lon="3.06211">
        <ele>49.2</ele>
        <time>2022-05-21 13:15:33</time>
      </trkpt>
      <trkpt lat="42.34172" lon="3.06204">
        <ele>49.4</ele>
        <time>2022-05-21 13:15:34</time>
      </trkpt>
      <trkpt lat="42.34176" lon="3.06197">
        <ele>49.2</ele>
        <time>2022-05-21 13:15:35</time>
      </trkpt>
      <trkpt lat="42.3418" lon="3.0619">
        <ele>49.2</ele>
        <time>2022-05-21 13:15:36</time>
      </trkpt>
      <trkpt lat="42.34185" lon="3.06183">
        <ele>49.2</ele>
        <time>2022-05-21 13:15:37</time>
      </trkpt>
      <trkpt lat="42.34189" lon="3.06176">
        <ele>49.2</ele>
        <time>2022-05-21 13:15:38</time>
      </trkpt>
      <trkpt lat="42.34194" lon="3.0617">
        <ele>49.2</ele>
        <time>2022-05-21 13:15:39</time>
      </trkpt>
      <trkpt lat="42.34198" lon="3.06163">
        <ele>49.2</ele>
        <time>2022-05-21 13:15:40</time>
      </trkpt>
      <trkpt lat="42.34203" lon="3.06157">
        <ele>49.4</ele>
        <time>2022-05-21 13:15:41</time>
      </trkpt>
      <trkpt lat="42.34207" lon="3.0615">
        <ele>49.4</ele>
        <time>2022-05-21 13:15:42</time>
      </trkpt>
      <trkpt lat="42.34211" lon="3.06143">
        <ele>49.6</ele>
        <time>2022-05-21 13:15:43</time>
      </trkpt>
      <trkpt lat="42.34215" lon="3.06137">
        <ele>49.6</ele>
        <time>2022-05-21 13:15:44</time>
      </trkpt>
      <trkpt lat="42.34219" lon="3.0613">
        <ele>49.6</ele>
        <time>2022-05-21 13:15:45</time>
      </trkpt>
      <trkpt lat="42.34224" lon="3.06124">
        <ele>49.6</ele>
        <time>2022-05-21 13:15:46</time>
      </trkpt>
      <trkpt lat="42.34228" lon="3.06117">
        <ele>49.6</ele>
        <time>2022-05-21 13:15:47</time>
      </trkpt>
      <trkpt lat="42.34233" lon="3.06111">
        <ele>49.6</ele>
        <time>2022-05-21 13:15:48</time>
      </trkpt>
      <trkpt lat="42.34237" lon="3.06105">
        <ele>49.6</ele>
        <time>2022-05-21 13:15:49</time>
      </trkpt>
      <trkpt lat="42.34241" lon="3.06098">
        <ele>49.6</ele>
        <time>2022-05-21 13:15:50</time>
      </trkpt>
      <trkpt lat="42.34246" lon="3.06091">
        <ele>49.8</ele>
        <time>2022-05-21 13:15:51</time>
      </trkpt>
      <trkpt lat="42.3425" lon="3.06085">
        <ele>49.8</ele>
        <time>2022-05-21 13:15:52</time>
      </trkpt>
      <trkpt lat="42.34254" lon="3.06079">
        <ele>49.8</ele>
        <time>2022-05-21 13:15:53</time>
      </trkpt>
      <trkpt lat="42.34258" lon="3.06073">
        <ele>50</ele>
        <time>2022-05-21 13:15:54</time>
      </trkpt>
      <trkpt lat="42.34262" lon="3.06067">
        <ele>50.2</ele>
        <time>2022-05-21 13:15:55</time>
      </trkpt>
      <trkpt lat="42.34266" lon="3.06061">
        <ele>50.2</ele>
        <time>2022-05-21 13:15:56</time>
      </trkpt>
      <trkpt lat="42.34271" lon="3.06055">
        <ele>50.2</ele>
        <time>2022-05-21 13:15:57</time>
      </trkpt>
      <trkpt lat="42.34275" lon="3.06049">
        <ele>50.2</ele>
        <time>2022-05-21 13:15:58</time>
      </trkpt>
      <trkpt lat="42.34278" lon="3.06043">
        <ele>50.2</ele>
        <time>2022-05-21 13:15:59</time>
      </trkpt>
      <trkpt lat="42.34283" lon="3.06037">
        <ele>50.4</ele>
        <time>2022-05-21 13:16:00</time>
      </trkpt>
      <trkpt lat="42.34286" lon="3.06031">
        <ele>50.4</ele>
        <time>2022-05-21 13:16:01</time>
      </trkpt>
      <trkpt lat="42.3429" lon="3.06025">
        <ele>50.4</ele>
        <time>2022-05-21 13:16:02</time>
      </trkpt>
      <trkpt lat="42.34294" lon="3.06019">
        <ele>50.4</ele>
        <time>2022-05-21 13:16:03</time>
      </trkpt>
      <trkpt lat="42.34298" lon="3.06013">
        <ele>50.6</ele>
        <time>2022-05-21 13:16:04</time>
      </trkpt>
      <trkpt lat="42.34302" lon="3.06007">
        <ele>50.6</ele>
        <time>2022-05-21 13:16:05</time>
      </trkpt>
      <trkpt lat="42.34306" lon="3.06001">
        <ele>50.6</ele>
        <time>2022-05-21 13:16:06</time>
      </trkpt>
      <trkpt lat="42.3431" lon="3.05995">
        <ele>50.6</ele>
        <time>2022-05-21 13:16:07</time>
      </trkpt>
      <trkpt lat="42.34313" lon="3.05989">
        <ele>50.6</ele>
        <time>2022-05-21 13:16:08</time>
      </trkpt>
      <trkpt lat="42.34317" lon="3.05983">
        <ele>50.8</ele>
        <time>2022-05-21 13:16:09</time>
      </trkpt>
      <trkpt lat="42.3432" lon="3.05977">
        <ele>50.8</ele>
        <time>2022-05-21 13:16:10</time>
      </trkpt>
      <trkpt lat="42.34324" lon="3.05971">
        <ele>51</ele>
        <time>2022-05-21 13:16:11</time>
      </trkpt>
      <trkpt lat="42.34328" lon="3.05965">
        <ele>51</ele>
        <time>2022-05-21 13:16:12</time>
      </trkpt>
      <trkpt lat="42.34332" lon="3.05958">
        <ele>51</ele>
        <time>2022-05-21 13:16:13</time>
      </trkpt>
      <trkpt lat="42.34335" lon="3.05951">
        <ele>51.2</ele>
        <time>2022-05-21 13:16:14</time>
      </trkpt>
      <trkpt lat="42.34337" lon="3.05944">
        <ele>51.2</ele>
        <time>2022-05-21 13:16:15</time>
      </trkpt>
      <trkpt lat="42.3434" lon="3.05937">
        <ele>51.4</ele>
        <time>2022-05-21 13:16:16</time>
      </trkpt>
      <trkpt lat="42.34342" lon="3.05929">
        <ele>51.4</ele>
        <time>2022-05-21 13:16:17</time>
      </trkpt>
      <trkpt lat="42.34344" lon="3.05922">
        <ele>51.6</ele>
        <time>2022-05-21 13:16:18</time>
      </trkpt>
      <trkpt lat="42.34346" lon="3.05915">
        <ele>51.6</ele>
        <time>2022-05-21 13:16:19</time>
      </trkpt>
      <trkpt lat="42.34349" lon="3.05909">
        <ele>51.8</ele>
        <time>2022-05-21 13:16:20</time>
      </trkpt>
      <trkpt lat="42.34353" lon="3.05904">
        <ele>51.8</ele>
        <time>2022-05-21 13:16:21</time>
      </trkpt>
      <trkpt lat="42.34358" lon="3.05902">
        <ele>51.8</ele>
        <time>2022-05-21 13:16:22</time>
      </trkpt>
      <trkpt lat="42.34363" lon="3.05902">
        <ele>51.8</ele>
        <time>2022-05-21 13:16:23</time>
      </trkpt>
      <trkpt lat="42.34369" lon="3.05902">
        <ele>52</ele>
        <time>2022-05-21 13:16:24</time>
      </trkpt>
      <trkpt lat="42.34374" lon="3.059">
        <ele>52</ele>
        <time>2022-05-21 13:16:25</time>
      </trkpt>
      <trkpt lat="42.34379" lon="3.05897">
        <ele>52.2</ele>
        <time>2022-05-21 13:16:26</time>
      </trkpt>
      <trkpt lat="42.34384" lon="3.05892">
        <ele>52.4</ele>
        <time>2022-05-21 13:16:27</time>
      </trkpt>
      <trkpt lat="42.34388" lon="3.05887">
        <ele>52.4</ele>
        <time>2022-05-21 13:16:28</time>
      </trkpt>
      <trkpt lat="42.34392" lon="3.05881">
        <ele>52.4</ele>
        <time>2022-05-21 13:16:29</time>
      </trkpt>
      <trkpt lat="42.34396" lon="3.05875">
        <ele>52.4</ele>
        <time>2022-05-21 13:16:30</time>
      </trkpt>
      <trkpt lat="42.34401" lon="3.05869">
        <ele>52.4</ele>
        <time>2022-05-21 13:16:31</time>
      </trkpt>
      <trkpt lat="42.34405" lon="3.05864">
        <ele>52.4</ele>
        <time>2022-05-21 13:16:32</time>
      </trkpt>
      <trkpt lat="42.34409" lon="3.05858">
        <ele>52.4</ele>
        <time>2022-05-21 13:16:33</time>
      </trkpt>
      <trkpt lat="42.34413" lon="3.05851">
        <ele>52.4</ele>
        <time>2022-05-21 13:16:34</time>
      </trkpt>
      <trkpt lat="42.34415" lon="3.05844">
        <ele>52.4</ele>
        <time>2022-05-21 13:16:35</time>
      </trkpt>
      <trkpt lat="42.34417" lon="3.05838">
        <ele>52.6</ele>
        <time>2022-05-21 13:16:36</time>
      </trkpt>
      <trkpt lat="42.3442" lon="3.05831">
        <ele>52.6</ele>
        <time>2022-05-21 13:16:37</time>
      </trkpt>
      <trkpt lat="42.34423" lon="3.05824">
        <ele>52.6</ele>
        <time>2022-05-21 13:16:38</time>
      </trkpt>
      <trkpt lat="42.34425" lon="3.05816">
        <ele>52.6</ele>
        <time>2022-05-21 13:16:39</time>
      </trkpt>
      <trkpt lat="42.34428" lon="3.05808">
        <ele>52.6</ele>
        <time>2022-05-21 13:16:40</time>
      </trkpt>
      <trkpt lat="42.34431" lon="3.058">
        <ele>52.6</ele>
        <time>2022-05-21 13:16:41</time>
      </trkpt>
      <trkpt lat="42.34433" lon="3.05792">
        <ele>52.6</ele>
        <time>2022-05-21 13:16:42</time>
      </trkpt>
      <trkpt lat="42.34436" lon="3.05785">
        <ele>52.6</ele>
        <time>2022-05-21 13:16:43</time>
      </trkpt>
      <trkpt lat="42.34439" lon="3.05777">
        <ele>52.6</ele>
        <time>2022-05-21 13:16:44</time>
      </trkpt>
      <trkpt lat="42.34442" lon="3.0577">
        <ele>52.6</ele>
        <time>2022-05-21 13:16:45</time>
      </trkpt>
      <trkpt lat="42.34445" lon="3.05762">
        <ele>52.6</ele>
        <time>2022-05-21 13:16:46</time>
      </trkpt>
      <trkpt lat="42.34448" lon="3.05754">
        <ele>52.6</ele>
        <time>2022-05-21 13:16:47</time>
      </trkpt>
      <trkpt lat="42.3445" lon="3.05747">
        <ele>52.8</ele>
        <time>2022-05-21 13:16:48</time>
      </trkpt>
      <trkpt lat="42.34453" lon="3.05739">
        <ele>52.8</ele>
        <time>2022-05-21 13:16:49</time>
      </trkpt>
      <trkpt lat="42.34455" lon="3.05731">
        <ele>52.8</ele>
        <time>2022-05-21 13:16:50</time>
      </trkpt>
      <trkpt lat="42.34458" lon="3.05724">
        <ele>52.8</ele>
        <time>2022-05-21 13:16:51</time>
      </trkpt>
      <trkpt lat="42.34461" lon="3.05716">
        <ele>52.8</ele>
        <time>2022-05-21 13:16:52</time>
      </trkpt>
      <trkpt lat="42.34464" lon="3.05708">
        <ele>53</ele>
        <time>2022-05-21 13:16:53</time>
      </trkpt>
      <trkpt lat="42.34467" lon="3.057">
        <ele>53</ele>
        <time>2022-05-21 13:16:54</time>
      </trkpt>
      <trkpt lat="42.3447" lon="3.05692">
        <ele>53.2</ele>
        <time>2022-05-21 13:16:55</time>
      </trkpt>
      <trkpt lat="42.34473" lon="3.05685">
        <ele>53.2</ele>
        <time>2022-05-21 13:16:56</time>
      </trkpt>
      <trkpt lat="42.34475" lon="3.05677">
        <ele>53.2</ele>
        <time>2022-05-21 13:16:57</time>
      </trkpt>
      <trkpt lat="42.34478" lon="3.05669">
        <ele>53.2</ele>
        <time>2022-05-21 13:16:58</time>
      </trkpt>
      <trkpt lat="42.34481" lon="3.05662">
        <ele>53.2</ele>
        <time>2022-05-21 13:16:59</time>
      </trkpt>
      <trkpt lat="42.34483" lon="3.05655">
        <ele>53.4</ele>
        <time>2022-05-21 13:17:00</time>
      </trkpt>
      <trkpt lat="42.34485" lon="3.05648">
        <ele>53.4</ele>
        <time>2022-05-21 13:17:01</time>
      </trkpt>
      <trkpt lat="42.34487" lon="3.05641">
        <ele>53.4</ele>
        <time>2022-05-21 13:17:02</time>
      </trkpt>
      <trkpt lat="42.34489" lon="3.05633">
        <ele>53.4</ele>
        <time>2022-05-21 13:17:03</time>
      </trkpt>
      <trkpt lat="42.34492" lon="3.05626">
        <ele>53.6</ele>
        <time>2022-05-21 13:17:04</time>
      </trkpt>
      <trkpt lat="42.34494" lon="3.05618">
        <ele>53.6</ele>
        <time>2022-05-21 13:17:05</time>
      </trkpt>
      <trkpt lat="42.34497" lon="3.05611">
        <ele>53.6</ele>
        <time>2022-05-21 13:17:06</time>
      </trkpt>
      <trkpt lat="42.345" lon="3.05604">
        <ele>53.6</ele>
        <time>2022-05-21 13:17:07</time>
      </trkpt>
      <trkpt lat="42.34503" lon="3.05597">
        <ele>53.6</ele>
        <time>2022-05-21 13:17:08</time>
      </trkpt>
      <trkpt lat="42.34506" lon="3.0559">
        <ele>53.8</ele>
        <time>2022-05-21 13:17:09</time>
      </trkpt>
      <trkpt lat="42.34508" lon="3.05583">
        <ele>53.8</ele>
        <time>2022-05-21 13:17:10</time>
      </trkpt>
      <trkpt lat="42.34512" lon="3.05576">
        <ele>53.8</ele>
        <time>2022-05-21 13:17:11</time>
      </trkpt>
      <trkpt lat="42.34515" lon="3.05569">
        <ele>53.8</ele>
        <time>2022-05-21 13:17:12</time>
      </trkpt>
      <trkpt lat="42.34518" lon="3.05562">
        <ele>54</ele>
        <time>2022-05-21 13:17:13</time>
      </trkpt>
      <trkpt lat="42.34521" lon="3.05556">
        <ele>54.2</ele>
        <time>2022-05-21 13:17:14</time>
      </trkpt>
      <trkpt lat="42.34523" lon="3.05549">
        <ele>54.2</ele>
        <time>2022-05-21 13:17:15</time>
      </trkpt>
      <trkpt lat="42.34525" lon="3.05542">
        <ele>54.4</ele>
        <time>2022-05-21 13:17:16</time>
      </trkpt>
      <trkpt lat="42.34528" lon="3.05535">
        <ele>54.4</ele>
        <time>2022-05-21 13:17:17</time>
      </trkpt>
      <trkpt lat="42.3453" lon="3.05528">
        <ele>54.4</ele>
        <time>2022-05-21 13:17:18</time>
      </trkpt>
      <trkpt lat="42.34532" lon="3.05521">
        <ele>54.6</ele>
        <time>2022-05-21 13:17:19</time>
      </trkpt>
      <trkpt lat="42.34535" lon="3.05514">
        <ele>54.6</ele>
        <time>2022-05-21 13:17:20</time>
      </trkpt>
      <trkpt lat="42.34537" lon="3.05507">
        <ele>54.6</ele>
        <time>2022-05-21 13:17:21</time>
      </trkpt>
      <trkpt lat="42.3454" lon="3.055">
        <ele>54.6</ele>
        <time>2022-05-21 13:17:22</time>
      </trkpt>
      <trkpt lat="42.34543" lon="3.05493">
        <ele>54.8</ele>
        <time>2022-05-21 13:17:23</time>
      </trkpt>
      <trkpt lat="42.34545" lon="3.05487">
        <ele>54.8</ele>
        <time>2022-05-21 13:17:24</time>
      </trkpt>
      <trkpt lat="42.34547" lon="3.0548">
        <ele>55</ele>
        <time>2022-05-21 13:17:25</time>
      </trkpt>
      <trkpt lat="42.3455" lon="3.05473">
        <ele>55</ele>
        <time>2022-05-21 13:17:26</time>
      </trkpt>
      <trkpt lat="42.34552" lon="3.05466">
        <ele>55.2</ele>
        <time>2022-05-21 13:17:27</time>
      </trkpt>
      <trkpt lat="42.34555" lon="3.05459">
        <ele>55.2</ele>
        <time>2022-05-21 13:17:28</time>
      </trkpt>
      <trkpt lat="42.34557" lon="3.05452">
        <ele>55.4</ele>
        <time>2022-05-21 13:17:29</time>
      </trkpt>
      <trkpt lat="42.34559" lon="3.05445">
        <ele>55.4</ele>
        <time>2022-05-21 13:17:30</time>
      </trkpt>
      <trkpt lat="42.34561" lon="3.05438">
        <ele>55.4</ele>
        <time>2022-05-21 13:17:31</time>
      </trkpt>
      <trkpt lat="42.34562" lon="3.05431">
        <ele>55.6</ele>
        <time>2022-05-21 13:17:32</time>
      </trkpt>
      <trkpt lat="42.34564" lon="3.05424">
        <ele>55.6</ele>
        <time>2022-05-21 13:17:33</time>
      </trkpt>
      <trkpt lat="42.34566" lon="3.05417">
        <ele>55.6</ele>
        <time>2022-05-21 13:17:34</time>
      </trkpt>
      <trkpt lat="42.34568" lon="3.0541">
        <ele>55.8</ele>
        <time>2022-05-21 13:17:35</time>
      </trkpt>
      <trkpt lat="42.3457" lon="3.05403">
        <ele>56</ele>
        <time>2022-05-21 13:17:36</time>
      </trkpt>
      <trkpt lat="42.34572" lon="3.05396">
        <ele>56</ele>
        <time>2022-05-21 13:17:37</time>
      </trkpt>
      <trkpt lat="42.34574" lon="3.05389">
        <ele>56.2</ele>
        <time>2022-05-21 13:17:38</time>
      </trkpt>
      <trkpt lat="42.34577" lon="3.05382">
        <ele>56.2</ele>
        <time>2022-05-21 13:17:39</time>
      </trkpt>
      <trkpt lat="42.34579" lon="3.05375">
        <ele>56.2</ele>
        <time>2022-05-21 13:17:40</time>
      </trkpt>
      <trkpt lat="42.34581" lon="3.05368">
        <ele>56.4</ele>
        <time>2022-05-21 13:17:41</time>
      </trkpt>
      <trkpt lat="42.34584" lon="3.05361">
        <ele>56.4</ele>
        <time>2022-05-21 13:17:42</time>
      </trkpt>
      <trkpt lat="42.34586" lon="3.05354">
        <ele>56.6</ele>
        <time>2022-05-21 13:17:43</time>
      </trkpt>
      <trkpt lat="42.34588" lon="3.05347">
        <ele>56.6</ele>
        <time>2022-05-21 13:17:44</time>
      </trkpt>
      <trkpt lat="42.3459" lon="3.0534">
        <ele>56.8</ele>
        <time>2022-05-21 13:17:45</time>
      </trkpt>
      <trkpt lat="42.34593" lon="3.05333">
        <ele>56.8</ele>
        <time>2022-05-21 13:17:46</time>
      </trkpt>
      <trkpt lat="42.34595" lon="3.05326">
        <ele>57</ele>
        <time>2022-05-21 13:17:47</time>
      </trkpt>
      <trkpt lat="42.34597" lon="3.0532">
        <ele>57</ele>
        <time>2022-05-21 13:17:48</time>
      </trkpt>
      <trkpt lat="42.34599" lon="3.05314">
        <ele>57</ele>
        <time>2022-05-21 13:17:49</time>
      </trkpt>
      <trkpt lat="42.34602" lon="3.05305">
        <ele>57.2</ele>
        <time>2022-05-21 13:17:50</time>
      </trkpt>
      <trkpt lat="42.34605" lon="3.05299">
        <ele>57.2</ele>
        <time>2022-05-21 13:17:51</time>
      </trkpt>
      <trkpt lat="42.34607" lon="3.05292">
        <ele>57.2</ele>
        <time>2022-05-21 13:17:52</time>
      </trkpt>
      <trkpt lat="42.3461" lon="3.05285">
        <ele>57.2</ele>
        <time>2022-05-21 13:17:53</time>
      </trkpt>
      <trkpt lat="42.34612" lon="3.05278">
        <ele>57.2</ele>
        <time>2022-05-21 13:17:54</time>
      </trkpt>
      <trkpt lat="42.34614" lon="3.05271">
        <ele>57.4</ele>
        <time>2022-05-21 13:17:55</time>
      </trkpt>
      <trkpt lat="42.34617" lon="3.05264">
        <ele>57.4</ele>
        <time>2022-05-21 13:17:56</time>
      </trkpt>
      <trkpt lat="42.34619" lon="3.05257">
        <ele>57.4</ele>
        <time>2022-05-21 13:17:57</time>
      </trkpt>
      <trkpt lat="42.34621" lon="3.05249">
        <ele>57.6</ele>
        <time>2022-05-21 13:17:58</time>
      </trkpt>
      <trkpt lat="42.34624" lon="3.05242">
        <ele>57.6</ele>
        <time>2022-05-21 13:17:59</time>
      </trkpt>
      <trkpt lat="42.34626" lon="3.05234">
        <ele>57.6</ele>
        <time>2022-05-21 13:18:00</time>
      </trkpt>
      <trkpt lat="42.34629" lon="3.05227">
        <ele>57.6</ele>
        <time>2022-05-21 13:18:01</time>
      </trkpt>
      <trkpt lat="42.34631" lon="3.05219">
        <ele>57.6</ele>
        <time>2022-05-21 13:18:02</time>
      </trkpt>
      <trkpt lat="42.34634" lon="3.05211">
        <ele>57.6</ele>
        <time>2022-05-21 13:18:03</time>
      </trkpt>
      <trkpt lat="42.34637" lon="3.05203">
        <ele>57.6</ele>
        <time>2022-05-21 13:18:04</time>
      </trkpt>
      <trkpt lat="42.34639" lon="3.05194">
        <ele>57.4</ele>
        <time>2022-05-21 13:18:05</time>
      </trkpt>
      <trkpt lat="42.34642" lon="3.05186">
        <ele>57.4</ele>
        <time>2022-05-21 13:18:06</time>
      </trkpt>
      <trkpt lat="42.34645" lon="3.05177">
        <ele>57.4</ele>
        <time>2022-05-21 13:18:07</time>
      </trkpt>
      <trkpt lat="42.34648" lon="3.05169">
        <ele>57.4</ele>
        <time>2022-05-21 13:18:08</time>
      </trkpt>
      <trkpt lat="42.34651" lon="3.0516">
        <ele>57.2</ele>
        <time>2022-05-21 13:18:09</time>
      </trkpt>
      <trkpt lat="42.34654" lon="3.05151">
        <ele>57.2</ele>
        <time>2022-05-21 13:18:10</time>
      </trkpt>
      <trkpt lat="42.34657" lon="3.05143">
        <ele>57</ele>
        <time>2022-05-21 13:18:11</time>
      </trkpt>
      <trkpt lat="42.34659" lon="3.05134">
        <ele>57</ele>
        <time>2022-05-21 13:18:12</time>
      </trkpt>
      <trkpt lat="42.34662" lon="3.05126">
        <ele>57</ele>
        <time>2022-05-21 13:18:13</time>
      </trkpt>
      <trkpt lat="42.34665" lon="3.05117">
        <ele>57</ele>
        <time>2022-05-21 13:18:14</time>
      </trkpt>
      <trkpt lat="42.34668" lon="3.05108">
        <ele>56.8</ele>
        <time>2022-05-21 13:18:15</time>
      </trkpt>
      <trkpt lat="42.34671" lon="3.051">
        <ele>56.8</ele>
        <time>2022-05-21 13:18:16</time>
      </trkpt>
      <trkpt lat="42.34674" lon="3.05091">
        <ele>56.8</ele>
        <time>2022-05-21 13:18:17</time>
      </trkpt>
      <trkpt lat="42.34677" lon="3.05082">
        <ele>56.8</ele>
        <time>2022-05-21 13:18:18</time>
      </trkpt>
      <trkpt lat="42.3468" lon="3.05074">
        <ele>56.6</ele>
        <time>2022-05-21 13:18:19</time>
      </trkpt>
      <trkpt lat="42.34683" lon="3.05065">
        <ele>56.6</ele>
        <time>2022-05-21 13:18:20</time>
      </trkpt>
      <trkpt lat="42.34687" lon="3.05056">
        <ele>56.4</ele>
        <time>2022-05-21 13:18:21</time>
      </trkpt>
      <trkpt lat="42.3469" lon="3.05048">
        <ele>56.4</ele>
        <time>2022-05-21 13:18:22</time>
      </trkpt>
      <trkpt lat="42.34693" lon="3.05039">
        <ele>56.4</ele>
        <time>2022-05-21 13:18:23</time>
      </trkpt>
      <trkpt lat="42.34696" lon="3.0503">
        <ele>56.4</ele>
        <time>2022-05-21 13:18:24</time>
      </trkpt>
      <trkpt lat="42.34699" lon="3.05022">
        <ele>56.4</ele>
        <time>2022-05-21 13:18:25</time>
      </trkpt>
      <trkpt lat="42.34702" lon="3.05013">
        <ele>56.2</ele>
        <time>2022-05-21 13:18:26</time>
      </trkpt>
      <trkpt lat="42.34705" lon="3.05005">
        <ele>56.4</ele>
        <time>2022-05-21 13:18:27</time>
      </trkpt>
      <trkpt lat="42.34708" lon="3.04997">
        <ele>56.2</ele>
        <time>2022-05-21 13:18:28</time>
      </trkpt>
      <trkpt lat="42.34711" lon="3.04988">
        <ele>56.2</ele>
        <time>2022-05-21 13:18:29</time>
      </trkpt>
      <trkpt lat="42.34714" lon="3.0498">
        <ele>56</ele>
        <time>2022-05-21 13:18:30</time>
      </trkpt>
      <trkpt lat="42.34717" lon="3.04972">
        <ele>56</ele>
        <time>2022-05-21 13:18:31</time>
      </trkpt>
      <trkpt lat="42.34719" lon="3.04964">
        <ele>56</ele>
        <time>2022-05-21 13:18:32</time>
      </trkpt>
      <trkpt lat="42.34722" lon="3.04956">
        <ele>56</ele>
        <time>2022-05-21 13:18:33</time>
      </trkpt>
      <trkpt lat="42.34725" lon="3.04947">
        <ele>56</ele>
        <time>2022-05-21 13:18:34</time>
      </trkpt>
      <trkpt lat="42.34728" lon="3.04939">
        <ele>56</ele>
        <time>2022-05-21 13:18:35</time>
      </trkpt>
      <trkpt lat="42.34731" lon="3.0493">
        <ele>56</ele>
        <time>2022-05-21 13:18:36</time>
      </trkpt>
      <trkpt lat="42.34734" lon="3.04922">
        <ele>56</ele>
        <time>2022-05-21 13:18:37</time>
      </trkpt>
      <trkpt lat="42.34737" lon="3.04913">
        <ele>55.8</ele>
        <time>2022-05-21 13:18:38</time>
      </trkpt>
      <trkpt lat="42.34739" lon="3.04905">
        <ele>55.8</ele>
        <time>2022-05-21 13:18:39</time>
      </trkpt>
      <trkpt lat="42.34742" lon="3.04896">
        <ele>55.8</ele>
        <time>2022-05-21 13:18:40</time>
      </trkpt>
      <trkpt lat="42.34745" lon="3.04888">
        <ele>55.6</ele>
        <time>2022-05-21 13:18:41</time>
      </trkpt>
      <trkpt lat="42.34748" lon="3.04879">
        <ele>55.6</ele>
        <time>2022-05-21 13:18:42</time>
      </trkpt>
      <trkpt lat="42.34751" lon="3.0487">
        <ele>55.6</ele>
        <time>2022-05-21 13:18:43</time>
      </trkpt>
      <trkpt lat="42.34754" lon="3.04862">
        <ele>55.6</ele>
        <time>2022-05-21 13:18:44</time>
      </trkpt>
      <trkpt lat="42.34757" lon="3.04853">
        <ele>55.6</ele>
        <time>2022-05-21 13:18:45</time>
      </trkpt>
      <trkpt lat="42.3476" lon="3.04844">
        <ele>55.4</ele>
        <time>2022-05-21 13:18:46</time>
      </trkpt>
      <trkpt lat="42.34763" lon="3.04835">
        <ele>55.4</ele>
        <time>2022-05-21 13:18:47</time>
      </trkpt>
      <trkpt lat="42.34766" lon="3.04827">
        <ele>55.2</ele>
        <time>2022-05-21 13:18:48</time>
      </trkpt>
      <trkpt lat="42.34768" lon="3.04818">
        <ele>55.2</ele>
        <time>2022-05-21 13:18:49</time>
      </trkpt>
      <trkpt lat="42.34771" lon="3.04809">
        <ele>55</ele>
        <time>2022-05-21 13:18:50</time>
      </trkpt>
      <trkpt lat="42.34774" lon="3.048">
        <ele>55</ele>
        <time>2022-05-21 13:18:51</time>
      </trkpt>
      <trkpt lat="42.34777" lon="3.04792">
        <ele>55</ele>
        <time>2022-05-21 13:18:52</time>
      </trkpt>
      <trkpt lat="42.34781" lon="3.04783">
        <ele>55</ele>
        <time>2022-05-21 13:18:53</time>
      </trkpt>
      <trkpt lat="42.34784" lon="3.04773">
        <ele>54.8</ele>
        <time>2022-05-21 13:18:54</time>
      </trkpt>
      <trkpt lat="42.34787" lon="3.04764">
        <ele>54.8</ele>
        <time>2022-05-21 13:18:55</time>
      </trkpt>
      <trkpt lat="42.3479" lon="3.04756">
        <ele>54.8</ele>
        <time>2022-05-21 13:18:56</time>
      </trkpt>
      <trkpt lat="42.34793" lon="3.04747">
        <ele>54.6</ele>
        <time>2022-05-21 13:18:57</time>
      </trkpt>
      <trkpt lat="42.34796" lon="3.04738">
        <ele>54.6</ele>
        <time>2022-05-21 13:18:58</time>
      </trkpt>
      <trkpt lat="42.34799" lon="3.04729">
        <ele>54.6</ele>
        <time>2022-05-21 13:18:59</time>
      </trkpt>
      <trkpt lat="42.34803" lon="3.0472">
        <ele>54.6</ele>
        <time>2022-05-21 13:19:00</time>
      </trkpt>
      <trkpt lat="42.34807" lon="3.04712">
        <ele>54.6</ele>
        <time>2022-05-21 13:19:01</time>
      </trkpt>
      <trkpt lat="42.34812" lon="3.04704">
        <ele>54.4</ele>
        <time>2022-05-21 13:19:02</time>
      </trkpt>
      <trkpt lat="42.34816" lon="3.04697">
        <ele>54.4</ele>
        <time>2022-05-21 13:19:03</time>
      </trkpt>
      <trkpt lat="42.3482" lon="3.04689">
        <ele>54.4</ele>
        <time>2022-05-21 13:19:04</time>
      </trkpt>
      <trkpt lat="42.34825" lon="3.04681">
        <ele>54.2</ele>
        <time>2022-05-21 13:19:05</time>
      </trkpt>
      <trkpt lat="42.3483" lon="3.04673">
        <ele>54.2</ele>
        <time>2022-05-21 13:19:06</time>
      </trkpt>
      <trkpt lat="42.34834" lon="3.04666">
        <ele>54.2</ele>
        <time>2022-05-21 13:19:07</time>
      </trkpt>
      <trkpt lat="42.34839" lon="3.04658">
        <ele>54.2</ele>
        <time>2022-05-21 13:19:08</time>
      </trkpt>
      <trkpt lat="42.34843" lon="3.04651">
        <ele>54.2</ele>
        <time>2022-05-21 13:19:09</time>
      </trkpt>
      <trkpt lat="42.34848" lon="3.04643">
        <ele>54.2</ele>
        <time>2022-05-21 13:19:10</time>
      </trkpt>
      <trkpt lat="42.34852" lon="3.04636">
        <ele>54.2</ele>
        <time>2022-05-21 13:19:11</time>
      </trkpt>
      <trkpt lat="42.34857" lon="3.04629">
        <ele>54.2</ele>
        <time>2022-05-21 13:19:12</time>
      </trkpt>
      <trkpt lat="42.34861" lon="3.04621">
        <ele>54.2</ele>
        <time>2022-05-21 13:19:13</time>
      </trkpt>
      <trkpt lat="42.34865" lon="3.04614">
        <ele>54.2</ele>
        <time>2022-05-21 13:19:14</time>
      </trkpt>
      <trkpt lat="42.3487" lon="3.04606">
        <ele>54.2</ele>
        <time>2022-05-21 13:19:15</time>
      </trkpt>
      <trkpt lat="42.34874" lon="3.04599">
        <ele>54.2</ele>
        <time>2022-05-21 13:19:16</time>
      </trkpt>
      <trkpt lat="42.34878" lon="3.04592">
        <ele>54.2</ele>
        <time>2022-05-21 13:19:17</time>
      </trkpt>
      <trkpt lat="42.34883" lon="3.04584">
        <ele>54.2</ele>
        <time>2022-05-21 13:19:18</time>
      </trkpt>
      <trkpt lat="42.34887" lon="3.04577">
        <ele>54.2</ele>
        <time>2022-05-21 13:19:19</time>
      </trkpt>
      <trkpt lat="42.34891" lon="3.0457">
        <ele>54</ele>
        <time>2022-05-21 13:19:20</time>
      </trkpt>
      <trkpt lat="42.34896" lon="3.04563">
        <ele>54</ele>
        <time>2022-05-21 13:19:21</time>
      </trkpt>
      <trkpt lat="42.349" lon="3.04555">
        <ele>54</ele>
        <time>2022-05-21 13:19:22</time>
      </trkpt>
      <trkpt lat="42.34905" lon="3.04548">
        <ele>54.2</ele>
        <time>2022-05-21 13:19:23</time>
      </trkpt>
      <trkpt lat="42.34909" lon="3.04541">
        <ele>54.2</ele>
        <time>2022-05-21 13:19:24</time>
      </trkpt>
      <trkpt lat="42.34913" lon="3.04534">
        <ele>54.2</ele>
        <time>2022-05-21 13:19:25</time>
      </trkpt>
      <trkpt lat="42.34918" lon="3.04527">
        <ele>54.2</ele>
        <time>2022-05-21 13:19:26</time>
      </trkpt>
      <trkpt lat="42.34922" lon="3.04519">
        <ele>54.2</ele>
        <time>2022-05-21 13:19:27</time>
      </trkpt>
      <trkpt lat="42.34926" lon="3.04512">
        <ele>54.2</ele>
        <time>2022-05-21 13:19:28</time>
      </trkpt>
      <trkpt lat="42.3493" lon="3.04505">
        <ele>54.2</ele>
        <time>2022-05-21 13:19:29</time>
      </trkpt>
      <trkpt lat="42.34934" lon="3.04498">
        <ele>54.2</ele>
        <time>2022-05-21 13:19:30</time>
      </trkpt>
      <trkpt lat="42.34939" lon="3.04491">
        <ele>54.2</ele>
        <time>2022-05-21 13:19:31</time>
      </trkpt>
      <trkpt lat="42.34943" lon="3.04484">
        <ele>54.2</ele>
        <time>2022-05-21 13:19:32</time>
      </trkpt>
      <trkpt lat="42.34947" lon="3.04477">
        <ele>54.4</ele>
        <time>2022-05-21 13:19:33</time>
      </trkpt>
      <trkpt lat="42.34951" lon="3.04469">
        <ele>54.4</ele>
        <time>2022-05-21 13:19:34</time>
      </trkpt>
      <trkpt lat="42.34956" lon="3.04463">
        <ele>54.4</ele>
        <time>2022-05-21 13:19:35</time>
      </trkpt>
      <trkpt lat="42.3496" lon="3.04456">
        <ele>54.4</ele>
        <time>2022-05-21 13:19:36</time>
      </trkpt>
      <trkpt lat="42.34964" lon="3.04449">
        <ele>54.4</ele>
        <time>2022-05-21 13:19:37</time>
      </trkpt>
      <trkpt lat="42.34968" lon="3.04442">
        <ele>54.4</ele>
        <time>2022-05-21 13:19:38</time>
      </trkpt>
      <trkpt lat="42.34972" lon="3.04435">
        <ele>54.4</ele>
        <time>2022-05-21 13:19:39</time>
      </trkpt>
      <trkpt lat="42.34976" lon="3.04429">
        <ele>54.6</ele>
        <time>2022-05-21 13:19:40</time>
      </trkpt>
      <trkpt lat="42.3498" lon="3.04422">
        <ele>54.6</ele>
        <time>2022-05-21 13:19:41</time>
      </trkpt>
      <trkpt lat="42.34984" lon="3.04415">
        <ele>54.6</ele>
        <time>2022-05-21 13:19:42</time>
      </trkpt>
      <trkpt lat="42.34988" lon="3.04408">
        <ele>54.8</ele>
        <time>2022-05-21 13:19:43</time>
      </trkpt>
      <trkpt lat="42.34992" lon="3.04402">
        <ele>54.8</ele>
        <time>2022-05-21 13:19:44</time>
      </trkpt>
      <trkpt lat="42.34995" lon="3.04395">
        <ele>55</ele>
        <time>2022-05-21 13:19:45</time>
      </trkpt>
      <trkpt lat="42.34999" lon="3.04389">
        <ele>55</ele>
        <time>2022-05-21 13:19:46</time>
      </trkpt>
      <trkpt lat="42.35003" lon="3.04382">
        <ele>55</ele>
        <time>2022-05-21 13:19:47</time>
      </trkpt>
      <trkpt lat="42.35007" lon="3.04376">
        <ele>55.2</ele>
        <time>2022-05-21 13:19:48</time>
      </trkpt>
      <trkpt lat="42.35011" lon="3.0437">
        <ele>55.2</ele>
        <time>2022-05-21 13:19:49</time>
      </trkpt>
      <trkpt lat="42.35014" lon="3.04364">
        <ele>55.4</ele>
        <time>2022-05-21 13:19:50</time>
      </trkpt>
      <trkpt lat="42.35017" lon="3.04359">
        <ele>55.6</ele>
        <time>2022-05-21 13:19:51</time>
      </trkpt>
      <trkpt lat="42.35021" lon="3.04353">
        <ele>55.6</ele>
        <time>2022-05-21 13:19:52</time>
      </trkpt>
      <trkpt lat="42.35024" lon="3.04347">
        <ele>55.6</ele>
        <time>2022-05-21 13:19:53</time>
      </trkpt>
      <trkpt lat="42.35028" lon="3.04341">
        <ele>55.8</ele>
        <time>2022-05-21 13:19:54</time>
      </trkpt>
      <trkpt lat="42.35031" lon="3.04335">
        <ele>55.8</ele>
        <time>2022-05-21 13:19:55</time>
      </trkpt>
      <trkpt lat="42.35035" lon="3.04329">
        <ele>56</ele>
        <time>2022-05-21 13:19:56</time>
      </trkpt>
      <trkpt lat="42.35039" lon="3.04323">
        <ele>56</ele>
        <time>2022-05-21 13:19:57</time>
      </trkpt>
      <trkpt lat="42.35042" lon="3.04317">
        <ele>56.2</ele>
        <time>2022-05-21 13:19:58</time>
      </trkpt>
      <trkpt lat="42.35046" lon="3.04312">
        <ele>56.4</ele>
        <time>2022-05-21 13:19:59</time>
      </trkpt>
      <trkpt lat="42.35049" lon="3.04306">
        <ele>56.6</ele>
        <time>2022-05-21 13:20:00</time>
      </trkpt>
      <trkpt lat="42.35053" lon="3.043">
        <ele>56.6</ele>
        <time>2022-05-21 13:20:01</time>
      </trkpt>
      <trkpt lat="42.35056" lon="3.04294">
        <ele>56.6</ele>
        <time>2022-05-21 13:20:02</time>
      </trkpt>
      <trkpt lat="42.35059" lon="3.04289">
        <ele>56.8</ele>
        <time>2022-05-21 13:20:03</time>
      </trkpt>
      <trkpt lat="42.35062" lon="3.04283">
        <ele>56.8</ele>
        <time>2022-05-21 13:20:04</time>
      </trkpt>
      <trkpt lat="42.35066" lon="3.04277">
        <ele>57</ele>
        <time>2022-05-21 13:20:05</time>
      </trkpt>
      <trkpt lat="42.35069" lon="3.04271">
        <ele>57.2</ele>
        <time>2022-05-21 13:20:06</time>
      </trkpt>
      <trkpt lat="42.35072" lon="3.04266">
        <ele>57.2</ele>
        <time>2022-05-21 13:20:07</time>
      </trkpt>
      <trkpt lat="42.35076" lon="3.0426">
        <ele>57.4</ele>
        <time>2022-05-21 13:20:08</time>
      </trkpt>
      <trkpt lat="42.35079" lon="3.04255">
        <ele>57.6</ele>
        <time>2022-05-21 13:20:09</time>
      </trkpt>
      <trkpt lat="42.35082" lon="3.04249">
        <ele>57.8</ele>
        <time>2022-05-21 13:20:10</time>
      </trkpt>
      <trkpt lat="42.35086" lon="3.04243">
        <ele>58</ele>
        <time>2022-05-21 13:20:11</time>
      </trkpt>
      <trkpt lat="42.35089" lon="3.04237">
        <ele>58</ele>
        <time>2022-05-21 13:20:12</time>
      </trkpt>
      <trkpt lat="42.35092" lon="3.04232">
        <ele>58.2</ele>
        <time>2022-05-21 13:20:13</time>
      </trkpt>
      <trkpt lat="42.35096" lon="3.04226">
        <ele>58.2</ele>
        <time>2022-05-21 13:20:14</time>
      </trkpt>
      <trkpt lat="42.35099" lon="3.0422">
        <ele>58.4</ele>
        <time>2022-05-21 13:20:15</time>
      </trkpt>
      <trkpt lat="42.35102" lon="3.04215">
        <ele>58.4</ele>
        <time>2022-05-21 13:20:16</time>
      </trkpt>
      <trkpt lat="42.35105" lon="3.04209">
        <ele>58.6</ele>
        <time>2022-05-21 13:20:17</time>
      </trkpt>
      <trkpt lat="42.35109" lon="3.04204">
        <ele>58.8</ele>
        <time>2022-05-21 13:20:18</time>
      </trkpt>
      <trkpt lat="42.35112" lon="3.04198">
        <ele>58.8</ele>
        <time>2022-05-21 13:20:19</time>
      </trkpt>
      <trkpt lat="42.35115" lon="3.04193">
        <ele>59</ele>
        <time>2022-05-21 13:20:20</time>
      </trkpt>
      <trkpt lat="42.35119" lon="3.04187">
        <ele>59.2</ele>
        <time>2022-05-21 13:20:21</time>
      </trkpt>
      <trkpt lat="42.35122" lon="3.04182">
        <ele>59.2</ele>
        <time>2022-05-21 13:20:22</time>
      </trkpt>
      <trkpt lat="42.35125" lon="3.04176">
        <ele>59.4</ele>
        <time>2022-05-21 13:20:23</time>
      </trkpt>
      <trkpt lat="42.35128" lon="3.04171">
        <ele>59.4</ele>
        <time>2022-05-21 13:20:24</time>
      </trkpt>
      <trkpt lat="42.35131" lon="3.04166">
        <ele>59.6</ele>
        <time>2022-05-21 13:20:25</time>
      </trkpt>
      <trkpt lat="42.35135" lon="3.0416">
        <ele>59.6</ele>
        <time>2022-05-21 13:20:26</time>
      </trkpt>
      <trkpt lat="42.35138" lon="3.04155">
        <ele>59.6</ele>
        <time>2022-05-21 13:20:27</time>
      </trkpt>
      <trkpt lat="42.35141" lon="3.04149">
        <ele>59.8</ele>
        <time>2022-05-21 13:20:28</time>
      </trkpt>
      <trkpt lat="42.35144" lon="3.04143">
        <ele>60</ele>
        <time>2022-05-21 13:20:29</time>
      </trkpt>
      <trkpt lat="42.35148" lon="3.04137">
        <ele>60</ele>
        <time>2022-05-21 13:20:30</time>
      </trkpt>
      <trkpt lat="42.35152" lon="3.04131">
        <ele>60</ele>
        <time>2022-05-21 13:20:31</time>
      </trkpt>
      <trkpt lat="42.35155" lon="3.04125">
        <ele>60</ele>
        <time>2022-05-21 13:20:32</time>
      </trkpt>
      <trkpt lat="42.35159" lon="3.04119">
        <ele>60</ele>
        <time>2022-05-21 13:20:33</time>
      </trkpt>
      <trkpt lat="42.35163" lon="3.04112">
        <ele>59.8</ele>
        <time>2022-05-21 13:20:34</time>
      </trkpt>
      <trkpt lat="42.35167" lon="3.04106">
        <ele>59.8</ele>
        <time>2022-05-21 13:20:35</time>
      </trkpt>
      <trkpt lat="42.35171" lon="3.04099">
        <ele>59.6</ele>
        <time>2022-05-21 13:20:36</time>
      </trkpt>
      <trkpt lat="42.35175" lon="3.04092">
        <ele>59.6</ele>
        <time>2022-05-21 13:20:37</time>
      </trkpt>
      <trkpt lat="42.35179" lon="3.04086">
        <ele>59.4</ele>
        <time>2022-05-21 13:20:38</time>
      </trkpt>
      <trkpt lat="42.35183" lon="3.04079">
        <ele>59.4</ele>
        <time>2022-05-21 13:20:39</time>
      </trkpt>
      <trkpt lat="42.35187" lon="3.04072">
        <ele>59.4</ele>
        <time>2022-05-21 13:20:40</time>
      </trkpt>
      <trkpt lat="42.35191" lon="3.04065">
        <ele>59.4</ele>
        <time>2022-05-21 13:20:41</time>
      </trkpt>
      <trkpt lat="42.35195" lon="3.04058">
        <ele>59.4</ele>
        <time>2022-05-21 13:20:42</time>
      </trkpt>
      <trkpt lat="42.35199" lon="3.04051">
        <ele>59.2</ele>
        <time>2022-05-21 13:20:43</time>
      </trkpt>
      <trkpt lat="42.35203" lon="3.04044">
        <ele>59.2</ele>
        <time>2022-05-21 13:20:44</time>
      </trkpt>
      <trkpt lat="42.35208" lon="3.04037">
        <ele>59.2</ele>
        <time>2022-05-21 13:20:45</time>
      </trkpt>
      <trkpt lat="42.35212" lon="3.0403">
        <ele>59</ele>
        <time>2022-05-21 13:20:46</time>
      </trkpt>
      <trkpt lat="42.35216" lon="3.04023">
        <ele>59</ele>
        <time>2022-05-21 13:20:47</time>
      </trkpt>
      <trkpt lat="42.3522" lon="3.04016">
        <ele>58.8</ele>
        <time>2022-05-21 13:20:48</time>
      </trkpt>
      <trkpt lat="42.35224" lon="3.04009">
        <ele>58.8</ele>
        <time>2022-05-21 13:20:49</time>
      </trkpt>
      <trkpt lat="42.35228" lon="3.04002">
        <ele>58.6</ele>
        <time>2022-05-21 13:20:50</time>
      </trkpt>
      <trkpt lat="42.35233" lon="3.03995">
        <ele>58.6</ele>
        <time>2022-05-21 13:20:51</time>
      </trkpt>
      <trkpt lat="42.35237" lon="3.03988">
        <ele>58.4</ele>
        <time>2022-05-21 13:20:52</time>
      </trkpt>
      <trkpt lat="42.35241" lon="3.03981">
        <ele>58.4</ele>
        <time>2022-05-21 13:20:53</time>
      </trkpt>
      <trkpt lat="42.35245" lon="3.03974">
        <ele>58.4</ele>
        <time>2022-05-21 13:20:54</time>
      </trkpt>
      <trkpt lat="42.35249" lon="3.03967">
        <ele>58.4</ele>
        <time>2022-05-21 13:20:55</time>
      </trkpt>
      <trkpt lat="42.35253" lon="3.0396">
        <ele>58.6</ele>
        <time>2022-05-21 13:20:56</time>
      </trkpt>
      <trkpt lat="42.35257" lon="3.03954">
        <ele>58.6</ele>
        <time>2022-05-21 13:20:57</time>
      </trkpt>
      <trkpt lat="42.3526" lon="3.03947">
        <ele>58.6</ele>
        <time>2022-05-21 13:20:58</time>
      </trkpt>
      <trkpt lat="42.35264" lon="3.03941">
        <ele>58.6</ele>
        <time>2022-05-21 13:20:59</time>
      </trkpt>
      <trkpt lat="42.35269" lon="3.03934">
        <ele>58.8</ele>
        <time>2022-05-21 13:21:00</time>
      </trkpt>
      <trkpt lat="42.35273" lon="3.03927">
        <ele>58.8</ele>
        <time>2022-05-21 13:21:01</time>
      </trkpt>
      <trkpt lat="42.35277" lon="3.03921">
        <ele>58.8</ele>
        <time>2022-05-21 13:21:02</time>
      </trkpt>
      <trkpt lat="42.3528" lon="3.03914">
        <ele>58.8</ele>
        <time>2022-05-21 13:21:03</time>
      </trkpt>
      <trkpt lat="42.35284" lon="3.03908">
        <ele>59</ele>
        <time>2022-05-21 13:21:04</time>
      </trkpt>
      <trkpt lat="42.35288" lon="3.03901">
        <ele>59</ele>
        <time>2022-05-21 13:21:05</time>
      </trkpt>
      <trkpt lat="42.35292" lon="3.03895">
        <ele>59</ele>
        <time>2022-05-21 13:21:06</time>
      </trkpt>
      <trkpt lat="42.35296" lon="3.03888">
        <ele>59</ele>
        <time>2022-05-21 13:21:07</time>
      </trkpt>
      <trkpt lat="42.353" lon="3.03882">
        <ele>59</ele>
        <time>2022-05-21 13:21:08</time>
      </trkpt>
      <trkpt lat="42.35304" lon="3.03875">
        <ele>59.2</ele>
        <time>2022-05-21 13:21:09</time>
      </trkpt>
      <trkpt lat="42.35308" lon="3.03869">
        <ele>59.2</ele>
        <time>2022-05-21 13:21:10</time>
      </trkpt>
      <trkpt lat="42.35311" lon="3.03862">
        <ele>59.2</ele>
        <time>2022-05-21 13:21:11</time>
      </trkpt>
      <trkpt lat="42.35315" lon="3.03856">
        <ele>59.4</ele>
        <time>2022-05-21 13:21:12</time>
      </trkpt>
      <trkpt lat="42.35319" lon="3.03849">
        <ele>59.4</ele>
        <time>2022-05-21 13:21:13</time>
      </trkpt>
      <trkpt lat="42.35323" lon="3.03843">
        <ele>59.6</ele>
        <time>2022-05-21 13:21:14</time>
      </trkpt>
      <trkpt lat="42.35326" lon="3.03837">
        <ele>59.6</ele>
        <time>2022-05-21 13:21:15</time>
      </trkpt>
      <trkpt lat="42.3533" lon="3.03831">
        <ele>59.6</ele>
        <time>2022-05-21 13:21:16</time>
      </trkpt>
      <trkpt lat="42.35334" lon="3.03824">
        <ele>59.8</ele>
        <time>2022-05-21 13:21:17</time>
      </trkpt>
      <trkpt lat="42.35338" lon="3.03818">
        <ele>59.8</ele>
        <time>2022-05-21 13:21:18</time>
      </trkpt>
      <trkpt lat="42.35342" lon="3.03812">
        <ele>60</ele>
        <time>2022-05-21 13:21:19</time>
      </trkpt>
      <trkpt lat="42.35347" lon="3.03807">
        <ele>60</ele>
        <time>2022-05-21 13:21:20</time>
      </trkpt>
      <trkpt lat="42.35351" lon="3.03801">
        <ele>60</ele>
        <time>2022-05-21 13:21:21</time>
      </trkpt>
      <trkpt lat="42.35356" lon="3.03796">
        <ele>60.2</ele>
        <time>2022-05-21 13:21:22</time>
      </trkpt>
      <trkpt lat="42.35361" lon="3.03792">
        <ele>60.2</ele>
        <time>2022-05-21 13:21:23</time>
      </trkpt>
      <trkpt lat="42.35366" lon="3.03788">
        <ele>60.4</ele>
        <time>2022-05-21 13:21:24</time>
      </trkpt>
      <trkpt lat="42.35371" lon="3.03783">
        <ele>60.6</ele>
        <time>2022-05-21 13:21:25</time>
      </trkpt>
      <trkpt lat="42.35376" lon="3.03779">
        <ele>60.6</ele>
        <time>2022-05-21 13:21:26</time>
      </trkpt>
      <trkpt lat="42.35381" lon="3.03776">
        <ele>60.8</ele>
        <time>2022-05-21 13:21:27</time>
      </trkpt>
      <trkpt lat="42.35387" lon="3.03772">
        <ele>61</ele>
        <time>2022-05-21 13:21:28</time>
      </trkpt>
      <trkpt lat="42.35392" lon="3.03768">
        <ele>61.2</ele>
        <time>2022-05-21 13:21:29</time>
      </trkpt>
      <trkpt lat="42.35397" lon="3.03764">
        <ele>61.4</ele>
        <time>2022-05-21 13:21:30</time>
      </trkpt>
      <trkpt lat="42.35402" lon="3.0376">
        <ele>61.4</ele>
        <time>2022-05-21 13:21:31</time>
      </trkpt>
      <trkpt lat="42.35407" lon="3.03757">
        <ele>61.6</ele>
        <time>2022-05-21 13:21:32</time>
      </trkpt>
      <trkpt lat="42.35411" lon="3.03753">
        <ele>61.8</ele>
        <time>2022-05-21 13:21:33</time>
      </trkpt>
      <trkpt lat="42.35416" lon="3.03749">
        <ele>62</ele>
        <time>2022-05-21 13:21:34</time>
      </trkpt>
      <trkpt lat="42.35421" lon="3.03746">
        <ele>62.2</ele>
        <time>2022-05-21 13:21:35</time>
      </trkpt>
      <trkpt lat="42.35426" lon="3.03742">
        <ele>62.4</ele>
        <time>2022-05-21 13:21:36</time>
      </trkpt>
      <trkpt lat="42.35431" lon="3.03739">
        <ele>62.4</ele>
        <time>2022-05-21 13:21:37</time>
      </trkpt>
      <trkpt lat="42.35435" lon="3.03735">
        <ele>62.6</ele>
        <time>2022-05-21 13:21:38</time>
      </trkpt>
      <trkpt lat="42.3544" lon="3.03732">
        <ele>62.8</ele>
        <time>2022-05-21 13:21:39</time>
      </trkpt>
      <trkpt lat="42.35444" lon="3.03728">
        <ele>63</ele>
        <time>2022-05-21 13:21:40</time>
      </trkpt>
      <trkpt lat="42.35449" lon="3.03724">
        <ele>63.2</ele>
        <time>2022-05-21 13:21:41</time>
      </trkpt>
      <trkpt lat="42.35454" lon="3.03721">
        <ele>63.2</ele>
        <time>2022-05-21 13:21:42</time>
      </trkpt>
      <trkpt lat="42.35458" lon="3.03717">
        <ele>63.4</ele>
        <time>2022-05-21 13:21:43</time>
      </trkpt>
      <trkpt lat="42.35463" lon="3.03713">
        <ele>63.6</ele>
        <time>2022-05-21 13:21:44</time>
      </trkpt>
      <trkpt lat="42.35467" lon="3.0371">
        <ele>63.8</ele>
        <time>2022-05-21 13:21:45</time>
      </trkpt>
      <trkpt lat="42.35472" lon="3.03706">
        <ele>64</ele>
        <time>2022-05-21 13:21:46</time>
      </trkpt>
      <trkpt lat="42.35476" lon="3.03703">
        <ele>64.2</ele>
        <time>2022-05-21 13:21:47</time>
      </trkpt>
      <trkpt lat="42.3548" lon="3.037">
        <ele>64.4</ele>
        <time>2022-05-21 13:21:48</time>
      </trkpt>
      <trkpt lat="42.35485" lon="3.03697">
        <ele>64.6</ele>
        <time>2022-05-21 13:21:49</time>
      </trkpt>
      <trkpt lat="42.35489" lon="3.03694">
        <ele>64.8</ele>
        <time>2022-05-21 13:21:50</time>
      </trkpt>
      <trkpt lat="42.35494" lon="3.0369">
        <ele>65</ele>
        <time>2022-05-21 13:21:51</time>
      </trkpt>
      <trkpt lat="42.35499" lon="3.03687">
        <ele>65</ele>
        <time>2022-05-21 13:21:52</time>
      </trkpt>
      <trkpt lat="42.35503" lon="3.03684">
        <ele>65.2</ele>
        <time>2022-05-21 13:21:53</time>
      </trkpt>
      <trkpt lat="42.35507" lon="3.0368">
        <ele>65.4</ele>
        <time>2022-05-21 13:21:54</time>
      </trkpt>
      <trkpt lat="42.35512" lon="3.03677">
        <ele>65.4</ele>
        <time>2022-05-21 13:21:55</time>
      </trkpt>
      <trkpt lat="42.35516" lon="3.03674">
        <ele>65.6</ele>
        <time>2022-05-21 13:21:56</time>
      </trkpt>
      <trkpt lat="42.3552" lon="3.0367">
        <ele>65.8</ele>
        <time>2022-05-21 13:21:57</time>
      </trkpt>
      <trkpt lat="42.35525" lon="3.03667">
        <ele>66</ele>
        <time>2022-05-21 13:21:58</time>
      </trkpt>
      <trkpt lat="42.35529" lon="3.03664">
        <ele>66.2</ele>
        <time>2022-05-21 13:21:59</time>
      </trkpt>
      <trkpt lat="42.35534" lon="3.03661">
        <ele>66.2</ele>
        <time>2022-05-21 13:22:00</time>
      </trkpt>
      <trkpt lat="42.35538" lon="3.03659">
        <ele>66.4</ele>
        <time>2022-05-21 13:22:01</time>
      </trkpt>
      <trkpt lat="42.35542" lon="3.03655">
        <ele>66.6</ele>
        <time>2022-05-21 13:22:02</time>
      </trkpt>
      <trkpt lat="42.35546" lon="3.03653">
        <ele>66.6</ele>
        <time>2022-05-21 13:22:03</time>
      </trkpt>
      <trkpt lat="42.35549" lon="3.0365">
        <ele>66.8</ele>
        <time>2022-05-21 13:22:04</time>
      </trkpt>
      <trkpt lat="42.35553" lon="3.03647">
        <ele>67</ele>
        <time>2022-05-21 13:22:05</time>
      </trkpt>
      <trkpt lat="42.35557" lon="3.03644">
        <ele>67.2</ele>
        <time>2022-05-21 13:22:06</time>
      </trkpt>
      <trkpt lat="42.35561" lon="3.03641">
        <ele>67.4</ele>
        <time>2022-05-21 13:22:07</time>
      </trkpt>
      <trkpt lat="42.35565" lon="3.03638">
        <ele>67.8</ele>
        <time>2022-05-21 13:22:08</time>
      </trkpt>
      <trkpt lat="42.35568" lon="3.03636">
        <ele>67.8</ele>
        <time>2022-05-21 13:22:09</time>
      </trkpt>
      <trkpt lat="42.35572" lon="3.03633">
        <ele>68.2</ele>
        <time>2022-05-21 13:22:10</time>
      </trkpt>
      <trkpt lat="42.35576" lon="3.0363">
        <ele>68.4</ele>
        <time>2022-05-21 13:22:11</time>
      </trkpt>
      <trkpt lat="42.3558" lon="3.03627">
        <ele>68.6</ele>
        <time>2022-05-21 13:22:12</time>
      </trkpt>
      <trkpt lat="42.35583" lon="3.03624">
        <ele>68.8</ele>
        <time>2022-05-21 13:22:13</time>
      </trkpt>
      <trkpt lat="42.35587" lon="3.03621">
        <ele>69</ele>
        <time>2022-05-21 13:22:14</time>
      </trkpt>
      <trkpt lat="42.3559" lon="3.03619">
        <ele>69.2</ele>
        <time>2022-05-21 13:22:15</time>
      </trkpt>
      <trkpt lat="42.35594" lon="3.03616">
        <ele>69.4</ele>
        <time>2022-05-21 13:22:16</time>
      </trkpt>
      <trkpt lat="42.35598" lon="3.03614">
        <ele>69.4</ele>
        <time>2022-05-21 13:22:17</time>
      </trkpt>
      <trkpt lat="42.35601" lon="3.03611">
        <ele>69.8</ele>
        <time>2022-05-21 13:22:18</time>
      </trkpt>
      <trkpt lat="42.35605" lon="3.03609">
        <ele>70</ele>
        <time>2022-05-21 13:22:19</time>
      </trkpt>
      <trkpt lat="42.35608" lon="3.03606">
        <ele>70.2</ele>
        <time>2022-05-21 13:22:20</time>
      </trkpt>
      <trkpt lat="42.35612" lon="3.03604">
        <ele>70.4</ele>
        <time>2022-05-21 13:22:21</time>
      </trkpt>
      <trkpt lat="42.35615" lon="3.03601">
        <ele>70.6</ele>
        <time>2022-05-21 13:22:22</time>
      </trkpt>
      <trkpt lat="42.35618" lon="3.03599">
        <ele>70.8</ele>
        <time>2022-05-21 13:22:23</time>
      </trkpt>
      <trkpt lat="42.35622" lon="3.03596">
        <ele>71</ele>
        <time>2022-05-21 13:22:24</time>
      </trkpt>
      <trkpt lat="42.35625" lon="3.03593">
        <ele>71.2</ele>
        <time>2022-05-21 13:22:25</time>
      </trkpt>
      <trkpt lat="42.35628" lon="3.0359">
        <ele>71.6</ele>
        <time>2022-05-21 13:22:26</time>
      </trkpt>
      <trkpt lat="42.35632" lon="3.03588">
        <ele>71.8</ele>
        <time>2022-05-21 13:22:27</time>
      </trkpt>
      <trkpt lat="42.35635" lon="3.03585">
        <ele>72</ele>
        <time>2022-05-21 13:22:28</time>
      </trkpt>
      <trkpt lat="42.35639" lon="3.03582">
        <ele>72.2</ele>
        <time>2022-05-21 13:22:29</time>
      </trkpt>
      <trkpt lat="42.35642" lon="3.03579">
        <ele>72.4</ele>
        <time>2022-05-21 13:22:30</time>
      </trkpt>
      <trkpt lat="42.35645" lon="3.03577">
        <ele>72.6</ele>
        <time>2022-05-21 13:22:31</time>
      </trkpt>
      <trkpt lat="42.35649" lon="3.03574">
        <ele>73</ele>
        <time>2022-05-21 13:22:32</time>
      </trkpt>
      <trkpt lat="42.35652" lon="3.03572">
        <ele>73.2</ele>
        <time>2022-05-21 13:22:33</time>
      </trkpt>
      <trkpt lat="42.35656" lon="3.03569">
        <ele>73.4</ele>
        <time>2022-05-21 13:22:34</time>
      </trkpt>
      <trkpt lat="42.35659" lon="3.03566">
        <ele>73.6</ele>
        <time>2022-05-21 13:22:35</time>
      </trkpt>
      <trkpt lat="42.35662" lon="3.03563">
        <ele>73.6</ele>
        <time>2022-05-21 13:22:36</time>
      </trkpt>
      <trkpt lat="42.35666" lon="3.03561">
        <ele>73.8</ele>
        <time>2022-05-21 13:22:37</time>
      </trkpt>
      <trkpt lat="42.35669" lon="3.03558">
        <ele>74</ele>
        <time>2022-05-21 13:22:38</time>
      </trkpt>
      <trkpt lat="42.35672" lon="3.03556">
        <ele>74.2</ele>
        <time>2022-05-21 13:22:39</time>
      </trkpt>
      <trkpt lat="42.35676" lon="3.03553">
        <ele>74.4</ele>
        <time>2022-05-21 13:22:40</time>
      </trkpt>
      <trkpt lat="42.35679" lon="3.03551">
        <ele>74.6</ele>
        <time>2022-05-21 13:22:41</time>
      </trkpt>
      <trkpt lat="42.35682" lon="3.03548">
        <ele>74.8</ele>
        <time>2022-05-21 13:22:42</time>
      </trkpt>
      <trkpt lat="42.35686" lon="3.03546">
        <ele>75</ele>
        <time>2022-05-21 13:22:43</time>
      </trkpt>
      <trkpt lat="42.35689" lon="3.03543">
        <ele>75.2</ele>
        <time>2022-05-21 13:22:44</time>
      </trkpt>
      <trkpt lat="42.35692" lon="3.0354">
        <ele>75.4</ele>
        <time>2022-05-21 13:22:45</time>
      </trkpt>
      <trkpt lat="42.35695" lon="3.03538">
        <ele>75.4</ele>
        <time>2022-05-21 13:22:46</time>
      </trkpt>
      <trkpt lat="42.35699" lon="3.03536">
        <ele>75.6</ele>
        <time>2022-05-21 13:22:47</time>
      </trkpt>
      <trkpt lat="42.35702" lon="3.03533">
        <ele>75.8</ele>
        <time>2022-05-21 13:22:48</time>
      </trkpt>
      <trkpt lat="42.35705" lon="3.03531">
        <ele>76</ele>
        <time>2022-05-21 13:22:49</time>
      </trkpt>
      <trkpt lat="42.35708" lon="3.03529">
        <ele>76</ele>
        <time>2022-05-21 13:22:50</time>
      </trkpt>
      <trkpt lat="42.35711" lon="3.03527">
        <ele>76.2</ele>
        <time>2022-05-21 13:22:51</time>
      </trkpt>
      <trkpt lat="42.35714" lon="3.03524">
        <ele>76.4</ele>
        <time>2022-05-21 13:22:52</time>
      </trkpt>
      <trkpt lat="42.35717" lon="3.03522">
        <ele>76.6</ele>
        <time>2022-05-21 13:22:53</time>
      </trkpt>
      <trkpt lat="42.3572" lon="3.03519">
        <ele>76.8</ele>
        <time>2022-05-21 13:22:54</time>
      </trkpt>
      <trkpt lat="42.35723" lon="3.03517">
        <ele>77</ele>
        <time>2022-05-21 13:22:55</time>
      </trkpt>
      <trkpt lat="42.35726" lon="3.03515">
        <ele>77.2</ele>
        <time>2022-05-21 13:22:56</time>
      </trkpt>
      <trkpt lat="42.3573" lon="3.03512">
        <ele>77.4</ele>
        <time>2022-05-21 13:22:57</time>
      </trkpt>
      <trkpt lat="42.35733" lon="3.0351">
        <ele>77.6</ele>
        <time>2022-05-21 13:22:58</time>
      </trkpt>
      <trkpt lat="42.35736" lon="3.03508">
        <ele>77.6</ele>
        <time>2022-05-21 13:22:59</time>
      </trkpt>
      <trkpt lat="42.35739" lon="3.03505">
        <ele>77.8</ele>
        <time>2022-05-21 13:23:00</time>
      </trkpt>
      <trkpt lat="42.35742" lon="3.03503">
        <ele>78</ele>
        <time>2022-05-21 13:23:01</time>
      </trkpt>
      <trkpt lat="42.35745" lon="3.03501">
        <ele>78</ele>
        <time>2022-05-21 13:23:02</time>
      </trkpt>
      <trkpt lat="42.35748" lon="3.03498">
        <ele>78.2</ele>
        <time>2022-05-21 13:23:03</time>
      </trkpt>
      <trkpt lat="42.35751" lon="3.03496">
        <ele>78.4</ele>
        <time>2022-05-21 13:23:04</time>
      </trkpt>
      <trkpt lat="42.35755" lon="3.03494">
        <ele>78.8</ele>
        <time>2022-05-21 13:23:05</time>
      </trkpt>
      <trkpt lat="42.35758" lon="3.03492">
        <ele>79</ele>
        <time>2022-05-21 13:23:06</time>
      </trkpt>
      <trkpt lat="42.35761" lon="3.03489">
        <ele>79.2</ele>
        <time>2022-05-21 13:23:07</time>
      </trkpt>
      <trkpt lat="42.35764" lon="3.03486">
        <ele>79.4</ele>
        <time>2022-05-21 13:23:08</time>
      </trkpt>
      <trkpt lat="42.35767" lon="3.03484">
        <ele>79.6</ele>
        <time>2022-05-21 13:23:09</time>
      </trkpt>
      <trkpt lat="42.3577" lon="3.03481">
        <ele>79.6</ele>
        <time>2022-05-21 13:23:10</time>
      </trkpt>
      <trkpt lat="42.35773" lon="3.03479">
        <ele>79.8</ele>
        <time>2022-05-21 13:23:11</time>
      </trkpt>
      <trkpt lat="42.35776" lon="3.03477">
        <ele>80</ele>
        <time>2022-05-21 13:23:12</time>
      </trkpt>
      <trkpt lat="42.3578" lon="3.03475">
        <ele>80.2</ele>
        <time>2022-05-21 13:23:13</time>
      </trkpt>
      <trkpt lat="42.35783" lon="3.03472">
        <ele>80.4</ele>
        <time>2022-05-21 13:23:14</time>
      </trkpt>
      <trkpt lat="42.35786" lon="3.0347">
        <ele>80.6</ele>
        <time>2022-05-21 13:23:15</time>
      </trkpt>
      <trkpt lat="42.35789" lon="3.03468">
        <ele>80.8</ele>
        <time>2022-05-21 13:23:16</time>
      </trkpt>
      <trkpt lat="42.35793" lon="3.03465">
        <ele>81</ele>
        <time>2022-05-21 13:23:17</time>
      </trkpt>
      <trkpt lat="42.35796" lon="3.03463">
        <ele>81.2</ele>
        <time>2022-05-21 13:23:18</time>
      </trkpt>
      <trkpt lat="42.35799" lon="3.03461">
        <ele>81.4</ele>
        <time>2022-05-21 13:23:19</time>
      </trkpt>
      <trkpt lat="42.35803" lon="3.03458">
        <ele>81.4</ele>
        <time>2022-05-21 13:23:20</time>
      </trkpt>
      <trkpt lat="42.35806" lon="3.03456">
        <ele>81.6</ele>
        <time>2022-05-21 13:23:21</time>
      </trkpt>
      <trkpt lat="42.35809" lon="3.03453">
        <ele>81.8</ele>
        <time>2022-05-21 13:23:22</time>
      </trkpt>
      <trkpt lat="42.35813" lon="3.0345">
        <ele>81.8</ele>
        <time>2022-05-21 13:23:23</time>
      </trkpt>
      <trkpt lat="42.35816" lon="3.03448">
        <ele>82</ele>
        <time>2022-05-21 13:23:24</time>
      </trkpt>
      <trkpt lat="42.35819" lon="3.03446">
        <ele>82.2</ele>
        <time>2022-05-21 13:23:25</time>
      </trkpt>
      <trkpt lat="42.35822" lon="3.03443">
        <ele>82.4</ele>
        <time>2022-05-21 13:23:26</time>
      </trkpt>
      <trkpt lat="42.35825" lon="3.03441">
        <ele>82.6</ele>
        <time>2022-05-21 13:23:27</time>
      </trkpt>
      <trkpt lat="42.35829" lon="3.03438">
        <ele>82.8</ele>
        <time>2022-05-21 13:23:28</time>
      </trkpt>
      <trkpt lat="42.35832" lon="3.03435">
        <ele>82.8</ele>
        <time>2022-05-21 13:23:29</time>
      </trkpt>
      <trkpt lat="42.35835" lon="3.03433">
        <ele>83</ele>
        <time>2022-05-21 13:23:30</time>
      </trkpt>
      <trkpt lat="42.35839" lon="3.03431">
        <ele>83.2</ele>
        <time>2022-05-21 13:23:31</time>
      </trkpt>
      <trkpt lat="42.35842" lon="3.03428">
        <ele>83.2</ele>
        <time>2022-05-21 13:23:32</time>
      </trkpt>
      <trkpt lat="42.35846" lon="3.03427">
        <ele>83.4</ele>
        <time>2022-05-21 13:23:33</time>
      </trkpt>
      <trkpt lat="42.3585" lon="3.03425">
        <ele>83.6</ele>
        <time>2022-05-21 13:23:34</time>
      </trkpt>
      <trkpt lat="42.35853" lon="3.03424">
        <ele>83.6</ele>
        <time>2022-05-21 13:23:35</time>
      </trkpt>
      <trkpt lat="42.35857" lon="3.03423">
        <ele>83.8</ele>
        <time>2022-05-21 13:23:36</time>
      </trkpt>
      <trkpt lat="42.35861" lon="3.03423">
        <ele>84</ele>
        <time>2022-05-21 13:23:37</time>
      </trkpt>
      <trkpt lat="42.35865" lon="3.03423">
        <ele>84</ele>
        <time>2022-05-21 13:23:38</time>
      </trkpt>
      <trkpt lat="42.35868" lon="3.03423">
        <ele>84.2</ele>
        <time>2022-05-21 13:23:39</time>
      </trkpt>
      <trkpt lat="42.35872" lon="3.03423">
        <ele>84.4</ele>
        <time>2022-05-21 13:23:40</time>
      </trkpt>
      <trkpt lat="42.35876" lon="3.03424">
        <ele>84.4</ele>
        <time>2022-05-21 13:23:41</time>
      </trkpt>
      <trkpt lat="42.3588" lon="3.03425">
        <ele>84.6</ele>
        <time>2022-05-21 13:23:42</time>
      </trkpt>
      <trkpt lat="42.35884" lon="3.03425">
        <ele>84.8</ele>
        <time>2022-05-21 13:23:43</time>
      </trkpt>
      <trkpt lat="42.35887" lon="3.03426">
        <ele>84.8</ele>
        <time>2022-05-21 13:23:44</time>
      </trkpt>
      <trkpt lat="42.35891" lon="3.03427">
        <ele>85</ele>
        <time>2022-05-21 13:23:45</time>
      </trkpt>
      <trkpt lat="42.35895" lon="3.03428">
        <ele>85.2</ele>
        <time>2022-05-21 13:23:46</time>
      </trkpt>
      <trkpt lat="42.35899" lon="3.03428">
        <ele>85.2</ele>
        <time>2022-05-21 13:23:47</time>
      </trkpt>
      <trkpt lat="42.35903" lon="3.03429">
        <ele>85.4</ele>
        <time>2022-05-21 13:23:48</time>
      </trkpt>
      <trkpt lat="42.35907" lon="3.0343">
        <ele>85.6</ele>
        <time>2022-05-21 13:23:49</time>
      </trkpt>
      <trkpt lat="42.35911" lon="3.0343">
        <ele>85.6</ele>
        <time>2022-05-21 13:23:50</time>
      </trkpt>
      <trkpt lat="42.35915" lon="3.03431">
        <ele>85.8</ele>
        <time>2022-05-21 13:23:51</time>
      </trkpt>
      <trkpt lat="42.35919" lon="3.03432">
        <ele>85.8</ele>
        <time>2022-05-21 13:23:52</time>
      </trkpt>
      <trkpt lat="42.35923" lon="3.03433">
        <ele>86</ele>
        <time>2022-05-21 13:23:53</time>
      </trkpt>
      <trkpt lat="42.35927" lon="3.03433">
        <ele>86</ele>
        <time>2022-05-21 13:23:54</time>
      </trkpt>
      <trkpt lat="42.35932" lon="3.03434">
        <ele>86.2</ele>
        <time>2022-05-21 13:23:55</time>
      </trkpt>
      <trkpt lat="42.35936" lon="3.03435">
        <ele>86.2</ele>
        <time>2022-05-21 13:23:56</time>
      </trkpt>
      <trkpt lat="42.35939" lon="3.03435">
        <ele>86.4</ele>
        <time>2022-05-21 13:23:57</time>
      </trkpt>
      <trkpt lat="42.35943" lon="3.03436">
        <ele>86.6</ele>
        <time>2022-05-21 13:23:58</time>
      </trkpt>
      <trkpt lat="42.35948" lon="3.03437">
        <ele>86.8</ele>
        <time>2022-05-21 13:23:59</time>
      </trkpt>
      <trkpt lat="42.35951" lon="3.03437">
        <ele>86.8</ele>
        <time>2022-05-21 13:24:00</time>
      </trkpt>
      <trkpt lat="42.35957" lon="3.03438">
        <ele>87</ele>
        <time>2022-05-21 13:24:01</time>
      </trkpt>
      <trkpt lat="42.35961" lon="3.03439">
        <ele>87</ele>
        <time>2022-05-21 13:24:02</time>
      </trkpt>
      <trkpt lat="42.35965" lon="3.03439">
        <ele>87.2</ele>
        <time>2022-05-21 13:24:03</time>
      </trkpt>
      <trkpt lat="42.3597" lon="3.0344">
        <ele>87.4</ele>
        <time>2022-05-21 13:24:04</time>
      </trkpt>
      <trkpt lat="42.35974" lon="3.03441">
        <ele>87.4</ele>
        <time>2022-05-21 13:24:05</time>
      </trkpt>
      <trkpt lat="42.35978" lon="3.03441">
        <ele>87.4</ele>
        <time>2022-05-21 13:24:06</time>
      </trkpt>
      <trkpt lat="42.35982" lon="3.03442">
        <ele>87.6</ele>
        <time>2022-05-21 13:24:07</time>
      </trkpt>
      <trkpt lat="42.35986" lon="3.03442">
        <ele>87.8</ele>
        <time>2022-05-21 13:24:08</time>
      </trkpt>
      <trkpt lat="42.3599" lon="3.03443">
        <ele>88</ele>
        <time>2022-05-21 13:24:09</time>
      </trkpt>
      <trkpt lat="42.35994" lon="3.03444">
        <ele>88.2</ele>
        <time>2022-05-21 13:24:10</time>
      </trkpt>
      <trkpt lat="42.35998" lon="3.03445">
        <ele>88.4</ele>
        <time>2022-05-21 13:24:11</time>
      </trkpt>
      <trkpt lat="42.36003" lon="3.03446">
        <ele>88.4</ele>
        <time>2022-05-21 13:24:12</time>
      </trkpt>
      <trkpt lat="42.36008" lon="3.03446">
        <ele>88.6</ele>
        <time>2022-05-21 13:24:13</time>
      </trkpt>
      <trkpt lat="42.36013" lon="3.03447">
        <ele>88.6</ele>
        <time>2022-05-21 13:24:14</time>
      </trkpt>
      <trkpt lat="42.36018" lon="3.03447">
        <ele>88.8</ele>
        <time>2022-05-21 13:24:15</time>
      </trkpt>
      <trkpt lat="42.36023" lon="3.03448">
        <ele>89</ele>
        <time>2022-05-21 13:24:16</time>
      </trkpt>
      <trkpt lat="42.36027" lon="3.03448">
        <ele>89</ele>
        <time>2022-05-21 13:24:17</time>
      </trkpt>
      <trkpt lat="42.36032" lon="3.03447">
        <ele>89.2</ele>
        <time>2022-05-21 13:24:18</time>
      </trkpt>
      <trkpt lat="42.36037" lon="3.03445">
        <ele>89.4</ele>
        <time>2022-05-21 13:24:19</time>
      </trkpt>
      <trkpt lat="42.36041" lon="3.03443">
        <ele>89.4</ele>
        <time>2022-05-21 13:24:20</time>
      </trkpt>
      <trkpt lat="42.36046" lon="3.0344">
        <ele>89.6</ele>
        <time>2022-05-21 13:24:21</time>
      </trkpt>
      <trkpt lat="42.36049" lon="3.03436">
        <ele>89.6</ele>
        <time>2022-05-21 13:24:22</time>
      </trkpt>
      <trkpt lat="42.36053" lon="3.0343">
        <ele>89.6</ele>
        <time>2022-05-21 13:24:23</time>
      </trkpt>
      <trkpt lat="42.36056" lon="3.03425">
        <ele>89.6</ele>
        <time>2022-05-21 13:24:24</time>
      </trkpt>
      <trkpt lat="42.36059" lon="3.03419">
        <ele>89.6</ele>
        <time>2022-05-21 13:24:25</time>
      </trkpt>
      <trkpt lat="42.36062" lon="3.03413">
        <ele>89.6</ele>
        <time>2022-05-21 13:24:26</time>
      </trkpt>
      <trkpt lat="42.36065" lon="3.03407">
        <ele>89.6</ele>
        <time>2022-05-21 13:24:27</time>
      </trkpt>
      <trkpt lat="42.36068" lon="3.03401">
        <ele>89.6</ele>
        <time>2022-05-21 13:24:28</time>
      </trkpt>
      <trkpt lat="42.36071" lon="3.03395">
        <ele>89.4</ele>
        <time>2022-05-21 13:24:29</time>
      </trkpt>
      <trkpt lat="42.36074" lon="3.03388">
        <ele>89.4</ele>
        <time>2022-05-21 13:24:30</time>
      </trkpt>
      <trkpt lat="42.36077" lon="3.03382">
        <ele>89.4</ele>
        <time>2022-05-21 13:24:31</time>
      </trkpt>
      <trkpt lat="42.3608" lon="3.03375">
        <ele>89.2</ele>
        <time>2022-05-21 13:24:32</time>
      </trkpt>
      <trkpt lat="42.36083" lon="3.03368">
        <ele>89.2</ele>
        <time>2022-05-21 13:24:33</time>
      </trkpt>
      <trkpt lat="42.36086" lon="3.03361">
        <ele>89</ele>
        <time>2022-05-21 13:24:34</time>
      </trkpt>
      <trkpt lat="42.36089" lon="3.03354">
        <ele>89</ele>
        <time>2022-05-21 13:24:35</time>
      </trkpt>
      <trkpt lat="42.36092" lon="3.03347">
        <ele>89</ele>
        <time>2022-05-21 13:24:36</time>
      </trkpt>
      <trkpt lat="42.36096" lon="3.0334">
        <ele>89</ele>
        <time>2022-05-21 13:24:37</time>
      </trkpt>
      <trkpt lat="42.36099" lon="3.03333">
        <ele>89</ele>
        <time>2022-05-21 13:24:38</time>
      </trkpt>
      <trkpt lat="42.36103" lon="3.03326">
        <ele>89</ele>
        <time>2022-05-21 13:24:39</time>
      </trkpt>
      <trkpt lat="42.36106" lon="3.03318">
        <ele>88.8</ele>
        <time>2022-05-21 13:24:40</time>
      </trkpt>
      <trkpt lat="42.3611" lon="3.03311">
        <ele>88.8</ele>
        <time>2022-05-21 13:24:41</time>
      </trkpt>
      <trkpt lat="42.36113" lon="3.03303">
        <ele>88.6</ele>
        <time>2022-05-21 13:24:42</time>
      </trkpt>
      <trkpt lat="42.36117" lon="3.03295">
        <ele>88.4</ele>
        <time>2022-05-21 13:24:43</time>
      </trkpt>
      <trkpt lat="42.3612" lon="3.03287">
        <ele>88.2</ele>
        <time>2022-05-21 13:24:44</time>
      </trkpt>
      <trkpt lat="42.36124" lon="3.03278">
        <ele>88.2</ele>
        <time>2022-05-21 13:24:45</time>
      </trkpt>
      <trkpt lat="42.36128" lon="3.0327">
        <ele>88</ele>
        <time>2022-05-21 13:24:46</time>
      </trkpt>
      <trkpt lat="42.36132" lon="3.03262">
        <ele>87.6</ele>
        <time>2022-05-21 13:24:47</time>
      </trkpt>
      <trkpt lat="42.36135" lon="3.03253">
        <ele>87.4</ele>
        <time>2022-05-21 13:24:48</time>
      </trkpt>
      <trkpt lat="42.3614" lon="3.03245">
        <ele>87.2</ele>
        <time>2022-05-21 13:24:49</time>
      </trkpt>
      <trkpt lat="42.36143" lon="3.03236">
        <ele>87</ele>
        <time>2022-05-21 13:24:50</time>
      </trkpt>
      <trkpt lat="42.36147" lon="3.03227">
        <ele>86.8</ele>
        <time>2022-05-21 13:24:51</time>
      </trkpt>
      <trkpt lat="42.36152" lon="3.03219">
        <ele>86.6</ele>
        <time>2022-05-21 13:24:52</time>
      </trkpt>
      <trkpt lat="42.36156" lon="3.0321">
        <ele>86.4</ele>
        <time>2022-05-21 13:24:53</time>
      </trkpt>
      <trkpt lat="42.3616" lon="3.03201">
        <ele>86.2</ele>
        <time>2022-05-21 13:24:54</time>
      </trkpt>
      <trkpt lat="42.36164" lon="3.03192">
        <ele>86</ele>
        <time>2022-05-21 13:24:55</time>
      </trkpt>
      <trkpt lat="42.36168" lon="3.03183">
        <ele>85.8</ele>
        <time>2022-05-21 13:24:56</time>
      </trkpt>
      <trkpt lat="42.36172" lon="3.03174">
        <ele>85.4</ele>
        <time>2022-05-21 13:24:57</time>
      </trkpt>
      <trkpt lat="42.36176" lon="3.03165">
        <ele>85.2</ele>
        <time>2022-05-21 13:24:58</time>
      </trkpt>
      <trkpt lat="42.36181" lon="3.03156">
        <ele>85</ele>
        <time>2022-05-21 13:24:59</time>
      </trkpt>
      <trkpt lat="42.36185" lon="3.03147">
        <ele>84.8</ele>
        <time>2022-05-21 13:25:00</time>
      </trkpt>
      <trkpt lat="42.36189" lon="3.03138">
        <ele>84.4</ele>
        <time>2022-05-21 13:25:01</time>
      </trkpt>
      <trkpt lat="42.36193" lon="3.03128">
        <ele>84.2</ele>
        <time>2022-05-21 13:25:02</time>
      </trkpt>
      <trkpt lat="42.36198" lon="3.03119">
        <ele>84</ele>
        <time>2022-05-21 13:25:03</time>
      </trkpt>
      <trkpt lat="42.36202" lon="3.03111">
        <ele>83.8</ele>
        <time>2022-05-21 13:25:04</time>
      </trkpt>
      <trkpt lat="42.36206" lon="3.03102">
        <ele>83.8</ele>
        <time>2022-05-21 13:25:05</time>
      </trkpt>
      <trkpt lat="42.36211" lon="3.03093">
        <ele>83.6</ele>
        <time>2022-05-21 13:25:06</time>
      </trkpt>
      <trkpt lat="42.36215" lon="3.03083">
        <ele>83.4</ele>
        <time>2022-05-21 13:25:07</time>
      </trkpt>
      <trkpt lat="42.3622" lon="3.03075">
        <ele>83</ele>
        <time>2022-05-21 13:25:08</time>
      </trkpt>
      <trkpt lat="42.36227" lon="3.03067">
        <ele>82.8</ele>
        <time>2022-05-21 13:25:09</time>
      </trkpt>
      <trkpt lat="42.36233" lon="3.0306">
        <ele>82.4</ele>
        <time>2022-05-21 13:25:10</time>
      </trkpt>
      <trkpt lat="42.3624" lon="3.03054">
        <ele>82.2</ele>
        <time>2022-05-21 13:25:11</time>
      </trkpt>
      <trkpt lat="42.36248" lon="3.03048">
        <ele>82</ele>
        <time>2022-05-21 13:25:12</time>
      </trkpt>
      <trkpt lat="42.36255" lon="3.03042">
        <ele>81.8</ele>
        <time>2022-05-21 13:25:13</time>
      </trkpt>
      <trkpt lat="42.36262" lon="3.03036">
        <ele>81.6</ele>
        <time>2022-05-21 13:25:14</time>
      </trkpt>
      <trkpt lat="42.36269" lon="3.0303">
        <ele>81.2</ele>
        <time>2022-05-21 13:25:15</time>
      </trkpt>
      <trkpt lat="42.36276" lon="3.03024">
        <ele>81</ele>
        <time>2022-05-21 13:25:16</time>
      </trkpt>
      <trkpt lat="42.36284" lon="3.03018">
        <ele>80.8</ele>
        <time>2022-05-21 13:25:17</time>
      </trkpt>
      <trkpt lat="42.36291" lon="3.03012">
        <ele>80.4</ele>
        <time>2022-05-21 13:25:18</time>
      </trkpt>
      <trkpt lat="42.36298" lon="3.03006">
        <ele>80.2</ele>
        <time>2022-05-21 13:25:19</time>
      </trkpt>
      <trkpt lat="42.36306" lon="3.02999">
        <ele>80</ele>
        <time>2022-05-21 13:25:20</time>
      </trkpt>
      <trkpt lat="42.36314" lon="3.02993">
        <ele>79.8</ele>
        <time>2022-05-21 13:25:21</time>
      </trkpt>
      <trkpt lat="42.36321" lon="3.02987">
        <ele>79.6</ele>
        <time>2022-05-21 13:25:22</time>
      </trkpt>
      <trkpt lat="42.36329" lon="3.02981">
        <ele>79.4</ele>
        <time>2022-05-21 13:25:23</time>
      </trkpt>
      <trkpt lat="42.36336" lon="3.02975">
        <ele>79.2</ele>
        <time>2022-05-21 13:25:24</time>
      </trkpt>
      <trkpt lat="42.36344" lon="3.02969">
        <ele>78.8</ele>
        <time>2022-05-21 13:25:25</time>
      </trkpt>
      <trkpt lat="42.36352" lon="3.02963">
        <ele>78.6</ele>
        <time>2022-05-21 13:25:26</time>
      </trkpt>
      <trkpt lat="42.36359" lon="3.02957">
        <ele>78.2</ele>
        <time>2022-05-21 13:25:27</time>
      </trkpt>
      <trkpt lat="42.36367" lon="3.0295">
        <ele>78</ele>
        <time>2022-05-21 13:25:28</time>
      </trkpt>
      <trkpt lat="42.36375" lon="3.02944">
        <ele>77.6</ele>
        <time>2022-05-21 13:25:29</time>
      </trkpt>
      <trkpt lat="42.36383" lon="3.02937">
        <ele>77</ele>
        <time>2022-05-21 13:25:30</time>
      </trkpt>
      <trkpt lat="42.36391" lon="3.0293">
        <ele>76.6</ele>
        <time>2022-05-21 13:25:31</time>
      </trkpt>
      <trkpt lat="42.36398" lon="3.02923">
        <ele>76</ele>
        <time>2022-05-21 13:25:32</time>
      </trkpt>
      <trkpt lat="42.36404" lon="3.02918">
        <ele>75.6</ele>
        <time>2022-05-21 13:25:33</time>
      </trkpt>
      <trkpt lat="42.36418" lon="3.02907">
        <ele>75</ele>
        <time>2022-05-21 13:25:34</time>
      </trkpt>
      <trkpt lat="42.36427" lon="3.029">
        <ele>74.6</ele>
        <time>2022-05-21 13:25:35</time>
      </trkpt>
      <trkpt lat="42.36434" lon="3.02894">
        <ele>74.4</ele>
        <time>2022-05-21 13:25:36</time>
      </trkpt>
      <trkpt lat="42.36443" lon="3.02887">
        <ele>73.4</ele>
        <time>2022-05-21 13:25:37</time>
      </trkpt>
      <trkpt lat="42.36451" lon="3.0288">
        <ele>72.8</ele>
        <time>2022-05-21 13:25:38</time>
      </trkpt>
      <trkpt lat="42.36461" lon="3.02872">
        <ele>72.2</ele>
        <time>2022-05-21 13:25:39</time>
      </trkpt>
      <trkpt lat="42.3647" lon="3.02864">
        <ele>71.8</ele>
        <time>2022-05-21 13:25:40</time>
      </trkpt>
      <trkpt lat="42.36479" lon="3.02857">
        <ele>71.2</ele>
        <time>2022-05-21 13:25:41</time>
      </trkpt>
      <trkpt lat="42.36487" lon="3.02849">
        <ele>70.6</ele>
        <time>2022-05-21 13:25:42</time>
      </trkpt>
      <trkpt lat="42.36496" lon="3.02841">
        <ele>70</ele>
        <time>2022-05-21 13:25:43</time>
      </trkpt>
      <trkpt lat="42.36506" lon="3.02834">
        <ele>69.6</ele>
        <time>2022-05-21 13:25:44</time>
      </trkpt>
      <trkpt lat="42.36515" lon="3.02827">
        <ele>69.2</ele>
        <time>2022-05-21 13:25:45</time>
      </trkpt>
      <trkpt lat="42.36524" lon="3.02817">
        <ele>68.8</ele>
        <time>2022-05-21 13:25:46</time>
      </trkpt>
      <trkpt lat="42.36531" lon="3.02805">
        <ele>68</ele>
        <time>2022-05-21 13:25:47</time>
      </trkpt>
      <trkpt lat="42.36538" lon="3.02792">
        <ele>67.2</ele>
        <time>2022-05-21 13:25:48</time>
      </trkpt>
      <trkpt lat="42.36545" lon="3.02779">
        <ele>66.6</ele>
        <time>2022-05-21 13:25:49</time>
      </trkpt>
      <trkpt lat="42.36551" lon="3.02765">
        <ele>66</ele>
        <time>2022-05-21 13:25:50</time>
      </trkpt>
      <trkpt lat="42.36557" lon="3.02751">
        <ele>65.6</ele>
        <time>2022-05-21 13:25:51</time>
      </trkpt>
      <trkpt lat="42.36563" lon="3.02738">
        <ele>65.4</ele>
        <time>2022-05-21 13:25:52</time>
      </trkpt>
      <trkpt lat="42.36567" lon="3.02726">
        <ele>65.2</ele>
        <time>2022-05-21 13:25:53</time>
      </trkpt>
      <trkpt lat="42.36572" lon="3.02716">
        <ele>65.2</ele>
        <time>2022-05-21 13:25:54</time>
      </trkpt>
      <trkpt lat="42.36577" lon="3.02707">
        <ele>65.4</ele>
        <time>2022-05-21 13:25:55</time>
      </trkpt>
      <trkpt lat="42.36582" lon="3.02699">
        <ele>65.6</ele>
        <time>2022-05-21 13:25:56</time>
      </trkpt>
      <trkpt lat="42.36586" lon="3.02692">
        <ele>66</ele>
        <time>2022-05-21 13:25:57</time>
      </trkpt>
      <trkpt lat="42.36592" lon="3.02686">
        <ele>66.2</ele>
        <time>2022-05-21 13:25:58</time>
      </trkpt>
      <trkpt lat="42.36598" lon="3.02681">
        <ele>66.6</ele>
        <time>2022-05-21 13:25:59</time>
      </trkpt>
      <trkpt lat="42.36604" lon="3.02679">
        <ele>66.8</ele>
        <time>2022-05-21 13:26:00</time>
      </trkpt>
      <trkpt lat="42.3661" lon="3.02677">
        <ele>67.2</ele>
        <time>2022-05-21 13:26:01</time>
      </trkpt>
      <trkpt lat="42.36615" lon="3.02675">
        <ele>67.4</ele>
        <time>2022-05-21 13:26:02</time>
      </trkpt>
      <trkpt lat="42.36621" lon="3.02673">
        <ele>67.8</ele>
        <time>2022-05-21 13:26:03</time>
      </trkpt>
      <trkpt lat="42.36626" lon="3.02671">
        <ele>68.2</ele>
        <time>2022-05-21 13:26:04</time>
      </trkpt>
      <trkpt lat="42.36631" lon="3.02669">
        <ele>68.4</ele>
        <time>2022-05-21 13:26:05</time>
      </trkpt>
      <trkpt lat="42.36636" lon="3.02668">
        <ele>68.6</ele>
        <time>2022-05-21 13:26:06</time>
      </trkpt>
      <trkpt lat="42.3664" lon="3.02666">
        <ele>69</ele>
        <time>2022-05-21 13:26:07</time>
      </trkpt>
      <trkpt lat="42.36645" lon="3.02665">
        <ele>69.2</ele>
        <time>2022-05-21 13:26:08</time>
      </trkpt>
      <trkpt lat="42.36649" lon="3.02663">
        <ele>69.4</ele>
        <time>2022-05-21 13:26:09</time>
      </trkpt>
      <trkpt lat="42.36653" lon="3.02662">
        <ele>69.6</ele>
        <time>2022-05-21 13:26:10</time>
      </trkpt>
      <trkpt lat="42.36658" lon="3.0266">
        <ele>69.8</ele>
        <time>2022-05-21 13:26:11</time>
      </trkpt>
      <trkpt lat="42.36662" lon="3.02658">
        <ele>70</ele>
        <time>2022-05-21 13:26:12</time>
      </trkpt>
      <trkpt lat="42.36666" lon="3.02657">
        <ele>70.2</ele>
        <time>2022-05-21 13:26:13</time>
      </trkpt>
      <trkpt lat="42.3667" lon="3.02655">
        <ele>70.4</ele>
        <time>2022-05-21 13:26:14</time>
      </trkpt>
      <trkpt lat="42.36674" lon="3.02653">
        <ele>70.6</ele>
        <time>2022-05-21 13:26:15</time>
      </trkpt>
      <trkpt lat="42.36678" lon="3.02652">
        <ele>70.8</ele>
        <time>2022-05-21 13:26:16</time>
      </trkpt>
      <trkpt lat="42.36682" lon="3.0265">
        <ele>71</ele>
        <time>2022-05-21 13:26:17</time>
      </trkpt>
      <trkpt lat="42.36686" lon="3.02648">
        <ele>71.2</ele>
        <time>2022-05-21 13:26:18</time>
      </trkpt>
      <trkpt lat="42.3669" lon="3.02646">
        <ele>71.4</ele>
        <time>2022-05-21 13:26:19</time>
      </trkpt>
      <trkpt lat="42.36693" lon="3.02645">
        <ele>71.6</ele>
        <time>2022-05-21 13:26:20</time>
      </trkpt>
      <trkpt lat="42.36697" lon="3.02644">
        <ele>71.8</ele>
        <time>2022-05-21 13:26:21</time>
      </trkpt>
      <trkpt lat="42.36701" lon="3.02642">
        <ele>72</ele>
        <time>2022-05-21 13:26:22</time>
      </trkpt>
      <trkpt lat="42.36705" lon="3.02641">
        <ele>72.2</ele>
        <time>2022-05-21 13:26:23</time>
      </trkpt>
      <trkpt lat="42.36709" lon="3.0264">
        <ele>72.2</ele>
        <time>2022-05-21 13:26:24</time>
      </trkpt>
      <trkpt lat="42.36712" lon="3.02638">
        <ele>72.4</ele>
        <time>2022-05-21 13:26:25</time>
      </trkpt>
      <trkpt lat="42.36716" lon="3.02637">
        <ele>72.6</ele>
        <time>2022-05-21 13:26:26</time>
      </trkpt>
      <trkpt lat="42.3672" lon="3.02635">
        <ele>72.8</ele>
        <time>2022-05-21 13:26:27</time>
      </trkpt>
      <trkpt lat="42.36724" lon="3.02634">
        <ele>73</ele>
        <time>2022-05-21 13:26:28</time>
      </trkpt>
      <trkpt lat="42.36727" lon="3.02632">
        <ele>73.2</ele>
        <time>2022-05-21 13:26:29</time>
      </trkpt>
      <trkpt lat="42.36731" lon="3.02631">
        <ele>73.4</ele>
        <time>2022-05-21 13:26:30</time>
      </trkpt>
      <trkpt lat="42.36735" lon="3.0263">
        <ele>73.4</ele>
        <time>2022-05-21 13:26:31</time>
      </trkpt>
      <trkpt lat="42.36738" lon="3.02629">
        <ele>73.6</ele>
        <time>2022-05-21 13:26:32</time>
      </trkpt>
      <trkpt lat="42.36742" lon="3.02628">
        <ele>73.6</ele>
        <time>2022-05-21 13:26:33</time>
      </trkpt>
      <trkpt lat="42.36746" lon="3.02627">
        <ele>73.8</ele>
        <time>2022-05-21 13:26:34</time>
      </trkpt>
      <trkpt lat="42.3675" lon="3.02627">
        <ele>74</ele>
        <time>2022-05-21 13:26:35</time>
      </trkpt>
      <trkpt lat="42.36754" lon="3.02627">
        <ele>74.2</ele>
        <time>2022-05-21 13:26:36</time>
      </trkpt>
      <trkpt lat="42.36757" lon="3.02627">
        <ele>74.2</ele>
        <time>2022-05-21 13:26:37</time>
      </trkpt>
      <trkpt lat="42.36761" lon="3.02629">
        <ele>74.4</ele>
        <time>2022-05-21 13:26:38</time>
      </trkpt>
      <trkpt lat="42.36765" lon="3.0263">
        <ele>74.6</ele>
        <time>2022-05-21 13:26:39</time>
      </trkpt>
      <trkpt lat="42.36769" lon="3.02631">
        <ele>74.8</ele>
        <time>2022-05-21 13:26:40</time>
      </trkpt>
      <trkpt lat="42.36772" lon="3.02633">
        <ele>75</ele>
        <time>2022-05-21 13:26:41</time>
      </trkpt>
      <trkpt lat="42.36776" lon="3.02635">
        <ele>75.2</ele>
        <time>2022-05-21 13:26:42</time>
      </trkpt>
      <trkpt lat="42.3678" lon="3.02636">
        <ele>75.4</ele>
        <time>2022-05-21 13:26:43</time>
      </trkpt>
      <trkpt lat="42.36784" lon="3.02638">
        <ele>75.6</ele>
        <time>2022-05-21 13:26:44</time>
      </trkpt>
      <trkpt lat="42.36788" lon="3.0264">
        <ele>75.6</ele>
        <time>2022-05-21 13:26:45</time>
      </trkpt>
      <trkpt lat="42.36792" lon="3.02642">
        <ele>75.8</ele>
        <time>2022-05-21 13:26:46</time>
      </trkpt>
      <trkpt lat="42.36797" lon="3.02644">
        <ele>76</ele>
        <time>2022-05-21 13:26:47</time>
      </trkpt>
      <trkpt lat="42.36802" lon="3.02645">
        <ele>76.2</ele>
        <time>2022-05-21 13:26:48</time>
      </trkpt>
      <trkpt lat="42.36806" lon="3.02647">
        <ele>76.4</ele>
        <time>2022-05-21 13:26:49</time>
      </trkpt>
      <trkpt lat="42.36811" lon="3.02649">
        <ele>76.4</ele>
        <time>2022-05-21 13:26:50</time>
      </trkpt>
      <trkpt lat="42.36815" lon="3.0265">
        <ele>76.6</ele>
        <time>2022-05-21 13:26:51</time>
      </trkpt>
      <trkpt lat="42.36819" lon="3.02652">
        <ele>76.6</ele>
        <time>2022-05-21 13:26:52</time>
      </trkpt>
      <trkpt lat="42.36824" lon="3.02654">
        <ele>76.6</ele>
        <time>2022-05-21 13:26:53</time>
      </trkpt>
      <trkpt lat="42.36828" lon="3.02656">
        <ele>76.6</ele>
        <time>2022-05-21 13:26:54</time>
      </trkpt>
      <trkpt lat="42.36833" lon="3.02658">
        <ele>76.6</ele>
        <time>2022-05-21 13:26:55</time>
      </trkpt>
      <trkpt lat="42.36838" lon="3.02659">
        <ele>76.8</ele>
        <time>2022-05-21 13:26:56</time>
      </trkpt>
      <trkpt lat="42.36842" lon="3.02661">
        <ele>76.8</ele>
        <time>2022-05-21 13:26:57</time>
      </trkpt>
      <trkpt lat="42.36847" lon="3.02663">
        <ele>76.8</ele>
        <time>2022-05-21 13:26:58</time>
      </trkpt>
      <trkpt lat="42.36851" lon="3.02665">
        <ele>77</ele>
        <time>2022-05-21 13:26:59</time>
      </trkpt>
      <trkpt lat="42.36856" lon="3.02667">
        <ele>77</ele>
        <time>2022-05-21 13:27:00</time>
      </trkpt>
      <trkpt lat="42.36861" lon="3.02669">
        <ele>77</ele>
        <time>2022-05-21 13:27:01</time>
      </trkpt>
      <trkpt lat="42.36866" lon="3.02671">
        <ele>77</ele>
        <time>2022-05-21 13:27:02</time>
      </trkpt>
      <trkpt lat="42.3687" lon="3.02673">
        <ele>77.2</ele>
        <time>2022-05-21 13:27:03</time>
      </trkpt>
      <trkpt lat="42.36875" lon="3.02675">
        <ele>77.2</ele>
        <time>2022-05-21 13:27:04</time>
      </trkpt>
      <trkpt lat="42.3688" lon="3.02677">
        <ele>77.2</ele>
        <time>2022-05-21 13:27:05</time>
      </trkpt>
      <trkpt lat="42.36884" lon="3.02678">
        <ele>77.2</ele>
        <time>2022-05-21 13:27:06</time>
      </trkpt>
      <trkpt lat="42.36889" lon="3.0268">
        <ele>77.4</ele>
        <time>2022-05-21 13:27:07</time>
      </trkpt>
      <trkpt lat="42.36893" lon="3.02682">
        <ele>77.4</ele>
        <time>2022-05-21 13:27:08</time>
      </trkpt>
      <trkpt lat="42.36897" lon="3.02684">
        <ele>77.4</ele>
        <time>2022-05-21 13:27:09</time>
      </trkpt>
      <trkpt lat="42.36902" lon="3.02686">
        <ele>77.6</ele>
        <time>2022-05-21 13:27:10</time>
      </trkpt>
      <trkpt lat="42.36907" lon="3.02688">
        <ele>77.6</ele>
        <time>2022-05-21 13:27:11</time>
      </trkpt>
      <trkpt lat="42.36911" lon="3.0269">
        <ele>77.6</ele>
        <time>2022-05-21 13:27:12</time>
      </trkpt>
      <trkpt lat="42.36916" lon="3.02692">
        <ele>77.8</ele>
        <time>2022-05-21 13:27:13</time>
      </trkpt>
      <trkpt lat="42.36921" lon="3.02694">
        <ele>77.8</ele>
        <time>2022-05-21 13:27:14</time>
      </trkpt>
      <trkpt lat="42.36926" lon="3.02695">
        <ele>77.8</ele>
        <time>2022-05-21 13:27:15</time>
      </trkpt>
      <trkpt lat="42.36931" lon="3.02697">
        <ele>77.8</ele>
        <time>2022-05-21 13:27:16</time>
      </trkpt>
      <trkpt lat="42.36936" lon="3.02699">
        <ele>78</ele>
        <time>2022-05-21 13:27:17</time>
      </trkpt>
      <trkpt lat="42.36941" lon="3.027">
        <ele>78</ele>
        <time>2022-05-21 13:27:18</time>
      </trkpt>
      <trkpt lat="42.36945" lon="3.02702">
        <ele>78.2</ele>
        <time>2022-05-21 13:27:19</time>
      </trkpt>
      <trkpt lat="42.3695" lon="3.02704">
        <ele>78.2</ele>
        <time>2022-05-21 13:27:20</time>
      </trkpt>
      <trkpt lat="42.36955" lon="3.02706">
        <ele>78.4</ele>
        <time>2022-05-21 13:27:21</time>
      </trkpt>
      <trkpt lat="42.36959" lon="3.02708">
        <ele>78.4</ele>
        <time>2022-05-21 13:27:22</time>
      </trkpt>
      <trkpt lat="42.36964" lon="3.0271">
        <ele>78.6</ele>
        <time>2022-05-21 13:27:23</time>
      </trkpt>
      <trkpt lat="42.36968" lon="3.02711">
        <ele>78.6</ele>
        <time>2022-05-21 13:27:24</time>
      </trkpt>
      <trkpt lat="42.36972" lon="3.02713">
        <ele>78.8</ele>
        <time>2022-05-21 13:27:25</time>
      </trkpt>
      <trkpt lat="42.36977" lon="3.02715">
        <ele>79</ele>
        <time>2022-05-21 13:27:26</time>
      </trkpt>
      <trkpt lat="42.36981" lon="3.02717">
        <ele>79.2</ele>
        <time>2022-05-21 13:27:27</time>
      </trkpt>
      <trkpt lat="42.36985" lon="3.02718">
        <ele>79.4</ele>
        <time>2022-05-21 13:27:28</time>
      </trkpt>
      <trkpt lat="42.36989" lon="3.02719">
        <ele>79.4</ele>
        <time>2022-05-21 13:27:29</time>
      </trkpt>
      <trkpt lat="42.36992" lon="3.02721">
        <ele>79.6</ele>
        <time>2022-05-21 13:27:30</time>
      </trkpt>
      <trkpt lat="42.36996" lon="3.02722">
        <ele>79.8</ele>
        <time>2022-05-21 13:27:31</time>
      </trkpt>
      <trkpt lat="42.37" lon="3.02724">
        <ele>80</ele>
        <time>2022-05-21 13:27:32</time>
      </trkpt>
      <trkpt lat="42.37004" lon="3.02725">
        <ele>80.2</ele>
        <time>2022-05-21 13:27:33</time>
      </trkpt>
      <trkpt lat="42.37007" lon="3.02727">
        <ele>80.4</ele>
        <time>2022-05-21 13:27:34</time>
      </trkpt>
      <trkpt lat="42.37011" lon="3.02729">
        <ele>80.6</ele>
        <time>2022-05-21 13:27:35</time>
      </trkpt>
      <trkpt lat="42.37014" lon="3.0273">
        <ele>80.8</ele>
        <time>2022-05-21 13:27:36</time>
      </trkpt>
      <trkpt lat="42.37018" lon="3.02731">
        <ele>81</ele>
        <time>2022-05-21 13:27:37</time>
      </trkpt>
      <trkpt lat="42.37021" lon="3.02732">
        <ele>81.2</ele>
        <time>2022-05-21 13:27:38</time>
      </trkpt>
      <trkpt lat="42.37025" lon="3.02733">
        <ele>81.4</ele>
        <time>2022-05-21 13:27:39</time>
      </trkpt>
      <trkpt lat="42.37028" lon="3.02734">
        <ele>81.6</ele>
        <time>2022-05-21 13:27:40</time>
      </trkpt>
      <trkpt lat="42.37031" lon="3.02735">
        <ele>81.8</ele>
        <time>2022-05-21 13:27:41</time>
      </trkpt>
      <trkpt lat="42.37035" lon="3.02736">
        <ele>82</ele>
        <time>2022-05-21 13:27:42</time>
      </trkpt>
      <trkpt lat="42.37038" lon="3.02737">
        <ele>82.2</ele>
        <time>2022-05-21 13:27:43</time>
      </trkpt>
      <trkpt lat="42.37041" lon="3.02738">
        <ele>82.2</ele>
        <time>2022-05-21 13:27:44</time>
      </trkpt>
      <trkpt lat="42.37044" lon="3.02739">
        <ele>82.4</ele>
        <time>2022-05-21 13:27:45</time>
      </trkpt>
      <trkpt lat="42.37048" lon="3.02741">
        <ele>82.6</ele>
        <time>2022-05-21 13:27:46</time>
      </trkpt>
      <trkpt lat="42.37052" lon="3.02743">
        <ele>82.8</ele>
        <time>2022-05-21 13:27:47</time>
      </trkpt>
      <trkpt lat="42.37055" lon="3.02744">
        <ele>83</ele>
        <time>2022-05-21 13:27:48</time>
      </trkpt>
      <trkpt lat="42.37059" lon="3.02745">
        <ele>83.2</ele>
        <time>2022-05-21 13:27:49</time>
      </trkpt>
      <trkpt lat="42.37062" lon="3.02746">
        <ele>83.4</ele>
        <time>2022-05-21 13:27:50</time>
      </trkpt>
      <trkpt lat="42.37065" lon="3.02747">
        <ele>83.4</ele>
        <time>2022-05-21 13:27:51</time>
      </trkpt>
      <trkpt lat="42.37068" lon="3.02747">
        <ele>83.6</ele>
        <time>2022-05-21 13:27:52</time>
      </trkpt>
      <trkpt lat="42.37073" lon="3.02747">
        <ele>83.8</ele>
        <time>2022-05-21 13:27:53</time>
      </trkpt>
      <trkpt lat="42.37076" lon="3.02746">
        <ele>84</ele>
        <time>2022-05-21 13:27:54</time>
      </trkpt>
      <trkpt lat="42.37078" lon="3.02743">
        <ele>84</ele>
        <time>2022-05-21 13:27:55</time>
      </trkpt>
      <trkpt lat="42.3708" lon="3.02739">
        <ele>84.2</ele>
        <time>2022-05-21 13:27:56</time>
      </trkpt>
      <trkpt lat="42.3708" lon="3.02735">
        <ele>84.2</ele>
        <time>2022-05-21 13:27:57</time>
      </trkpt>
      <trkpt lat="42.37079" lon="3.02729">
        <ele>84.2</ele>
        <time>2022-05-21 13:27:58</time>
      </trkpt>
      <trkpt lat="42.37078" lon="3.02724">
        <ele>84.2</ele>
        <time>2022-05-21 13:27:59</time>
      </trkpt>
      <trkpt lat="42.37077" lon="3.02719">
        <ele>84.4</ele>
        <time>2022-05-21 13:28:00</time>
      </trkpt>
      <trkpt lat="42.37076" lon="3.02714">
        <ele>84.4</ele>
        <time>2022-05-21 13:28:01</time>
      </trkpt>
      <trkpt lat="42.37075" lon="3.02709">
        <ele>84.6</ele>
        <time>2022-05-21 13:28:02</time>
      </trkpt>
      <trkpt lat="42.37074" lon="3.02704">
        <ele>84.8</ele>
        <time>2022-05-21 13:28:03</time>
      </trkpt>
      <trkpt lat="42.37072" lon="3.02699">
        <ele>84.8</ele>
        <time>2022-05-21 13:28:04</time>
      </trkpt>
      <trkpt lat="42.3707" lon="3.02694">
        <ele>85</ele>
        <time>2022-05-21 13:28:05</time>
      </trkpt>
      <trkpt lat="42.37069" lon="3.02689">
        <ele>85.2</ele>
        <time>2022-05-21 13:28:06</time>
      </trkpt>
      <trkpt lat="42.37067" lon="3.02684">
        <ele>85.4</ele>
        <time>2022-05-21 13:28:07</time>
      </trkpt>
      <trkpt lat="42.37064" lon="3.0268">
        <ele>85.4</ele>
        <time>2022-05-21 13:28:08</time>
      </trkpt>
      <trkpt lat="42.37062" lon="3.02676">
        <ele>85.6</ele>
        <time>2022-05-21 13:28:09</time>
      </trkpt>
      <trkpt lat="42.37059" lon="3.02672">
        <ele>85.6</ele>
        <time>2022-05-21 13:28:10</time>
      </trkpt>
      <trkpt lat="42.37055" lon="3.02668">
        <ele>85.6</ele>
        <time>2022-05-21 13:28:11</time>
      </trkpt>
      <trkpt lat="42.37052" lon="3.02664">
        <ele>85.8</ele>
        <time>2022-05-21 13:28:12</time>
      </trkpt>
      <trkpt lat="42.37049" lon="3.02661">
        <ele>85.8</ele>
        <time>2022-05-21 13:28:13</time>
      </trkpt>
      <trkpt lat="42.37045" lon="3.02658">
        <ele>85.8</ele>
        <time>2022-05-21 13:28:14</time>
      </trkpt>
      <trkpt lat="42.37041" lon="3.02654">
        <ele>86</ele>
        <time>2022-05-21 13:28:15</time>
      </trkpt>
      <trkpt lat="42.37037" lon="3.02652">
        <ele>86</ele>
        <time>2022-05-21 13:28:16</time>
      </trkpt>
      <trkpt lat="42.37032" lon="3.0265">
        <ele>86</ele>
        <time>2022-05-21 13:28:17</time>
      </trkpt>
      <trkpt lat="42.37028" lon="3.02648">
        <ele>86.2</ele>
        <time>2022-05-21 13:28:18</time>
      </trkpt>
      <trkpt lat="42.37024" lon="3.02647">
        <ele>86.2</ele>
        <time>2022-05-21 13:28:19</time>
      </trkpt>
      <trkpt lat="42.37019" lon="3.02646">
        <ele>86.2</ele>
        <time>2022-05-21 13:28:20</time>
      </trkpt>
      <trkpt lat="42.37015" lon="3.02645">
        <ele>86.2</ele>
        <time>2022-05-21 13:28:21</time>
      </trkpt>
      <trkpt lat="42.37011" lon="3.02644">
        <ele>86.4</ele>
        <time>2022-05-21 13:28:22</time>
      </trkpt>
      <trkpt lat="42.37006" lon="3.02643">
        <ele>86.4</ele>
        <time>2022-05-21 13:28:23</time>
      </trkpt>
      <trkpt lat="42.37001" lon="3.02642">
        <ele>86.4</ele>
        <time>2022-05-21 13:28:24</time>
      </trkpt>
      <trkpt lat="42.36997" lon="3.02641">
        <ele>86.2</ele>
        <time>2022-05-21 13:28:25</time>
      </trkpt>
      <trkpt lat="42.36991" lon="3.0264">
        <ele>86.2</ele>
        <time>2022-05-21 13:28:26</time>
      </trkpt>
      <trkpt lat="42.36986" lon="3.02639">
        <ele>86.2</ele>
        <time>2022-05-21 13:28:27</time>
      </trkpt>
      <trkpt lat="42.36981" lon="3.02637">
        <ele>86.2</ele>
        <time>2022-05-21 13:28:28</time>
      </trkpt>
      <trkpt lat="42.36975" lon="3.02635">
        <ele>86.2</ele>
        <time>2022-05-21 13:28:29</time>
      </trkpt>
      <trkpt lat="42.3697" lon="3.02634">
        <ele>86</ele>
        <time>2022-05-21 13:28:30</time>
      </trkpt>
      <trkpt lat="42.36964" lon="3.02632">
        <ele>85.8</ele>
        <time>2022-05-21 13:28:31</time>
      </trkpt>
      <trkpt lat="42.36959" lon="3.0263">
        <ele>85.6</ele>
        <time>2022-05-21 13:28:32</time>
      </trkpt>
      <trkpt lat="42.36953" lon="3.02627">
        <ele>85.4</ele>
        <time>2022-05-21 13:28:33</time>
      </trkpt>
      <trkpt lat="42.36948" lon="3.02625">
        <ele>85.4</ele>
        <time>2022-05-21 13:28:34</time>
      </trkpt>
      <trkpt lat="42.36942" lon="3.02622">
        <ele>85.2</ele>
        <time>2022-05-21 13:28:35</time>
      </trkpt>
      <trkpt lat="42.36937" lon="3.02619">
        <ele>85.2</ele>
        <time>2022-05-21 13:28:36</time>
      </trkpt>
      <trkpt lat="42.36931" lon="3.02615">
        <ele>85</ele>
        <time>2022-05-21 13:28:37</time>
      </trkpt>
      <trkpt lat="42.36926" lon="3.02611">
        <ele>85</ele>
        <time>2022-05-21 13:28:38</time>
      </trkpt>
      <trkpt lat="42.3692" lon="3.02606">
        <ele>84.8</ele>
        <time>2022-05-21 13:28:39</time>
      </trkpt>
      <trkpt lat="42.36915" lon="3.02601">
        <ele>84.6</ele>
        <time>2022-05-21 13:28:40</time>
      </trkpt>
      <trkpt lat="42.36909" lon="3.02596">
        <ele>84.4</ele>
        <time>2022-05-21 13:28:41</time>
      </trkpt>
      <trkpt lat="42.36904" lon="3.02591">
        <ele>84.2</ele>
        <time>2022-05-21 13:28:42</time>
      </trkpt>
      <trkpt lat="42.36899" lon="3.02585">
        <ele>84</ele>
        <time>2022-05-21 13:28:43</time>
      </trkpt>
      <trkpt lat="42.36894" lon="3.02579">
        <ele>84</ele>
        <time>2022-05-21 13:28:44</time>
      </trkpt>
      <trkpt lat="42.36889" lon="3.02573">
        <ele>83.8</ele>
        <time>2022-05-21 13:28:45</time>
      </trkpt>
      <trkpt lat="42.36884" lon="3.02568">
        <ele>83.8</ele>
        <time>2022-05-21 13:28:46</time>
      </trkpt>
      <trkpt lat="42.36879" lon="3.02562">
        <ele>83.8</ele>
        <time>2022-05-21 13:28:47</time>
      </trkpt>
      <trkpt lat="42.36874" lon="3.02556">
        <ele>83.8</ele>
        <time>2022-05-21 13:28:48</time>
      </trkpt>
      <trkpt lat="42.36869" lon="3.02551">
        <ele>83.8</ele>
        <time>2022-05-21 13:28:49</time>
      </trkpt>
      <trkpt lat="42.36864" lon="3.02545">
        <ele>83.8</ele>
        <time>2022-05-21 13:28:50</time>
      </trkpt>
      <trkpt lat="42.36859" lon="3.0254">
        <ele>84</ele>
        <time>2022-05-21 13:28:51</time>
      </trkpt>
      <trkpt lat="42.36854" lon="3.02534">
        <ele>84</ele>
        <time>2022-05-21 13:28:52</time>
      </trkpt>
      <trkpt lat="42.36849" lon="3.02529">
        <ele>84.2</ele>
        <time>2022-05-21 13:28:53</time>
      </trkpt>
      <trkpt lat="42.36844" lon="3.02524">
        <ele>84.2</ele>
        <time>2022-05-21 13:28:54</time>
      </trkpt>
      <trkpt lat="42.3684" lon="3.02518">
        <ele>84.2</ele>
        <time>2022-05-21 13:28:55</time>
      </trkpt>
      <trkpt lat="42.36835" lon="3.02513">
        <ele>84.4</ele>
        <time>2022-05-21 13:28:56</time>
      </trkpt>
      <trkpt lat="42.36831" lon="3.02507">
        <ele>84.6</ele>
        <time>2022-05-21 13:28:57</time>
      </trkpt>
      <trkpt lat="42.36827" lon="3.02501">
        <ele>84.6</ele>
        <time>2022-05-21 13:28:58</time>
      </trkpt>
      <trkpt lat="42.36824" lon="3.02495">
        <ele>84.8</ele>
        <time>2022-05-21 13:28:59</time>
      </trkpt>
      <trkpt lat="42.36821" lon="3.02489">
        <ele>85</ele>
        <time>2022-05-21 13:29:00</time>
      </trkpt>
      <trkpt lat="42.36817" lon="3.02482">
        <ele>85</ele>
        <time>2022-05-21 13:29:01</time>
      </trkpt>
      <trkpt lat="42.36814" lon="3.02476">
        <ele>85</ele>
        <time>2022-05-21 13:29:02</time>
      </trkpt>
      <trkpt lat="42.36811" lon="3.02469">
        <ele>85.2</ele>
        <time>2022-05-21 13:29:03</time>
      </trkpt>
      <trkpt lat="42.36807" lon="3.02462">
        <ele>85.2</ele>
        <time>2022-05-21 13:29:04</time>
      </trkpt>
      <trkpt lat="42.36803" lon="3.02456">
        <ele>85.2</ele>
        <time>2022-05-21 13:29:05</time>
      </trkpt>
      <trkpt lat="42.36799" lon="3.0245">
        <ele>85.2</ele>
        <time>2022-05-21 13:29:06</time>
      </trkpt>
      <trkpt lat="42.36794" lon="3.02444">
        <ele>85.2</ele>
        <time>2022-05-21 13:29:07</time>
      </trkpt>
      <trkpt lat="42.36789" lon="3.02439">
        <ele>85.2</ele>
        <time>2022-05-21 13:29:08</time>
      </trkpt>
      <trkpt lat="42.36784" lon="3.02433">
        <ele>85.2</ele>
        <time>2022-05-21 13:29:09</time>
      </trkpt>
      <trkpt lat="42.36779" lon="3.02428">
        <ele>85.4</ele>
        <time>2022-05-21 13:29:10</time>
      </trkpt>
      <trkpt lat="42.36774" lon="3.02423">
        <ele>85.6</ele>
        <time>2022-05-21 13:29:11</time>
      </trkpt>
      <trkpt lat="42.36769" lon="3.02418">
        <ele>85.8</ele>
        <time>2022-05-21 13:29:12</time>
      </trkpt>
      <trkpt lat="42.36764" lon="3.02414">
        <ele>85.8</ele>
        <time>2022-05-21 13:29:13</time>
      </trkpt>
      <trkpt lat="42.36759" lon="3.02409">
        <ele>86</ele>
        <time>2022-05-21 13:29:14</time>
      </trkpt>
      <trkpt lat="42.36754" lon="3.02405">
        <ele>86.2</ele>
        <time>2022-05-21 13:29:15</time>
      </trkpt>
      <trkpt lat="42.36749" lon="3.02401">
        <ele>86.2</ele>
        <time>2022-05-21 13:29:16</time>
      </trkpt>
      <trkpt lat="42.36745" lon="3.02396">
        <ele>86.2</ele>
        <time>2022-05-21 13:29:17</time>
      </trkpt>
      <trkpt lat="42.3674" lon="3.02392">
        <ele>86</ele>
        <time>2022-05-21 13:29:18</time>
      </trkpt>
      <trkpt lat="42.36734" lon="3.02387">
        <ele>86</ele>
        <time>2022-05-21 13:29:19</time>
      </trkpt>
      <trkpt lat="42.36728" lon="3.02383">
        <ele>85.8</ele>
        <time>2022-05-21 13:29:20</time>
      </trkpt>
      <trkpt lat="42.36722" lon="3.02378">
        <ele>85.4</ele>
        <time>2022-05-21 13:29:21</time>
      </trkpt>
      <trkpt lat="42.36716" lon="3.02373">
        <ele>85.2</ele>
        <time>2022-05-21 13:29:22</time>
      </trkpt>
      <trkpt lat="42.36709" lon="3.02368">
        <ele>84.8</ele>
        <time>2022-05-21 13:29:23</time>
      </trkpt>
      <trkpt lat="42.36702" lon="3.02362">
        <ele>84.4</ele>
        <time>2022-05-21 13:29:24</time>
      </trkpt>
      <trkpt lat="42.36696" lon="3.02357">
        <ele>84</ele>
        <time>2022-05-21 13:29:25</time>
      </trkpt>
      <trkpt lat="42.36689" lon="3.02351">
        <ele>83.6</ele>
        <time>2022-05-21 13:29:26</time>
      </trkpt>
      <trkpt lat="42.36682" lon="3.02345">
        <ele>83</ele>
        <time>2022-05-21 13:29:27</time>
      </trkpt>
      <trkpt lat="42.36674" lon="3.02338">
        <ele>82.6</ele>
        <time>2022-05-21 13:29:28</time>
      </trkpt>
      <trkpt lat="42.36667" lon="3.02331">
        <ele>82</ele>
        <time>2022-05-21 13:29:29</time>
      </trkpt>
      <trkpt lat="42.3666" lon="3.02323">
        <ele>81.4</ele>
        <time>2022-05-21 13:29:30</time>
      </trkpt>
      <trkpt lat="42.36654" lon="3.02313">
        <ele>80.6</ele>
        <time>2022-05-21 13:29:31</time>
      </trkpt>
      <trkpt lat="42.36649" lon="3.02302">
        <ele>80</ele>
        <time>2022-05-21 13:29:32</time>
      </trkpt>
      <trkpt lat="42.36644" lon="3.0229">
        <ele>79.4</ele>
        <time>2022-05-21 13:29:33</time>
      </trkpt>
      <trkpt lat="42.3664" lon="3.02279">
        <ele>78.8</ele>
        <time>2022-05-21 13:29:34</time>
      </trkpt>
      <trkpt lat="42.36636" lon="3.02266">
        <ele>78.4</ele>
        <time>2022-05-21 13:29:35</time>
      </trkpt>
      <trkpt lat="42.36633" lon="3.02252">
        <ele>78</ele>
        <time>2022-05-21 13:29:36</time>
      </trkpt>
      <trkpt lat="42.36632" lon="3.02239">
        <ele>77.6</ele>
        <time>2022-05-21 13:29:37</time>
      </trkpt>
      <trkpt lat="42.3663" lon="3.02227">
        <ele>77.4</ele>
        <time>2022-05-21 13:29:38</time>
      </trkpt>
      <trkpt lat="42.36628" lon="3.02215">
        <ele>77.2</ele>
        <time>2022-05-21 13:29:39</time>
      </trkpt>
      <trkpt lat="42.36627" lon="3.02203">
        <ele>77</ele>
        <time>2022-05-21 13:29:40</time>
      </trkpt>
      <trkpt lat="42.36625" lon="3.02192">
        <ele>77</ele>
        <time>2022-05-21 13:29:41</time>
      </trkpt>
      <trkpt lat="42.36623" lon="3.02182">
        <ele>77.2</ele>
        <time>2022-05-21 13:29:42</time>
      </trkpt>
      <trkpt lat="42.36621" lon="3.02171">
        <ele>77.4</ele>
        <time>2022-05-21 13:29:43</time>
      </trkpt>
      <trkpt lat="42.36619" lon="3.02161">
        <ele>77.6</ele>
        <time>2022-05-21 13:29:44</time>
      </trkpt>
      <trkpt lat="42.36616" lon="3.02152">
        <ele>77.8</ele>
        <time>2022-05-21 13:29:45</time>
      </trkpt>
      <trkpt lat="42.36614" lon="3.02144">
        <ele>78.2</ele>
        <time>2022-05-21 13:29:46</time>
      </trkpt>
      <trkpt lat="42.36611" lon="3.02135">
        <ele>78.6</ele>
        <time>2022-05-21 13:29:47</time>
      </trkpt>
      <trkpt lat="42.36609" lon="3.02126">
        <ele>78.8</ele>
        <time>2022-05-21 13:29:48</time>
      </trkpt>
      <trkpt lat="42.36606" lon="3.02119">
        <ele>79.2</ele>
        <time>2022-05-21 13:29:49</time>
      </trkpt>
      <trkpt lat="42.36604" lon="3.02112">
        <ele>79.6</ele>
        <time>2022-05-21 13:29:50</time>
      </trkpt>
      <trkpt lat="42.36602" lon="3.02105">
        <ele>79.8</ele>
        <time>2022-05-21 13:29:51</time>
      </trkpt>
      <trkpt lat="42.36601" lon="3.02099">
        <ele>80.2</ele>
        <time>2022-05-21 13:29:52</time>
      </trkpt>
      <trkpt lat="42.36599" lon="3.02093">
        <ele>80.6</ele>
        <time>2022-05-21 13:29:53</time>
      </trkpt>
      <trkpt lat="42.36598" lon="3.02088">
        <ele>81</ele>
        <time>2022-05-21 13:29:54</time>
      </trkpt>
      <trkpt lat="42.36596" lon="3.02083">
        <ele>81.4</ele>
        <time>2022-05-21 13:29:55</time>
      </trkpt>
      <trkpt lat="42.36595" lon="3.02078">
        <ele>81.8</ele>
        <time>2022-05-21 13:29:56</time>
      </trkpt>
      <trkpt lat="42.36593" lon="3.02074">
        <ele>82</ele>
        <time>2022-05-21 13:29:57</time>
      </trkpt>
      <trkpt lat="42.36592" lon="3.02069">
        <ele>82.4</ele>
        <time>2022-05-21 13:29:58</time>
      </trkpt>
      <trkpt lat="42.3659" lon="3.02065">
        <ele>82.6</ele>
        <time>2022-05-21 13:29:59</time>
      </trkpt>
      <trkpt lat="42.36589" lon="3.02061">
        <ele>83</ele>
        <time>2022-05-21 13:30:00</time>
      </trkpt>
      <trkpt lat="42.36588" lon="3.02056">
        <ele>83.4</ele>
        <time>2022-05-21 13:30:01</time>
      </trkpt>
      <trkpt lat="42.36586" lon="3.02052">
        <ele>83.8</ele>
        <time>2022-05-21 13:30:02</time>
      </trkpt>
      <trkpt lat="42.36585" lon="3.02048">
        <ele>84</ele>
        <time>2022-05-21 13:30:03</time>
      </trkpt>
      <trkpt lat="42.36583" lon="3.02044">
        <ele>84.2</ele>
        <time>2022-05-21 13:30:04</time>
      </trkpt>
      <trkpt lat="42.36581" lon="3.0204">
        <ele>84.6</ele>
        <time>2022-05-21 13:30:05</time>
      </trkpt>
      <trkpt lat="42.3658" lon="3.02037">
        <ele>84.8</ele>
        <time>2022-05-21 13:30:06</time>
      </trkpt>
      <trkpt lat="42.36578" lon="3.02033">
        <ele>85</ele>
        <time>2022-05-21 13:30:07</time>
      </trkpt>
      <trkpt lat="42.36576" lon="3.02029">
        <ele>85.4</ele>
        <time>2022-05-21 13:30:08</time>
      </trkpt>
      <trkpt lat="42.36574" lon="3.02025">
        <ele>85.6</ele>
        <time>2022-05-21 13:30:09</time>
      </trkpt>
      <trkpt lat="42.36573" lon="3.02021">
        <ele>85.8</ele>
        <time>2022-05-21 13:30:10</time>
      </trkpt>
      <trkpt lat="42.36571" lon="3.02018">
        <ele>86</ele>
        <time>2022-05-21 13:30:11</time>
      </trkpt>
      <trkpt lat="42.36569" lon="3.02014">
        <ele>86.2</ele>
        <time>2022-05-21 13:30:12</time>
      </trkpt>
      <trkpt lat="42.36567" lon="3.0201">
        <ele>86.4</ele>
        <time>2022-05-21 13:30:13</time>
      </trkpt>
      <trkpt lat="42.36565" lon="3.02006">
        <ele>86.6</ele>
        <time>2022-05-21 13:30:14</time>
      </trkpt>
      <trkpt lat="42.36563" lon="3.02002">
        <ele>86.8</ele>
        <time>2022-05-21 13:30:15</time>
      </trkpt>
      <trkpt lat="42.36561" lon="3.01998">
        <ele>87</ele>
        <time>2022-05-21 13:30:16</time>
      </trkpt>
      <trkpt lat="42.36559" lon="3.01994">
        <ele>87.2</ele>
        <time>2022-05-21 13:30:17</time>
      </trkpt>
      <trkpt lat="42.36557" lon="3.0199">
        <ele>87.6</ele>
        <time>2022-05-21 13:30:18</time>
      </trkpt>
      <trkpt lat="42.36555" lon="3.01986">
        <ele>87.6</ele>
        <time>2022-05-21 13:30:19</time>
      </trkpt>
      <trkpt lat="42.36553" lon="3.01983">
        <ele>87.8</ele>
        <time>2022-05-21 13:30:20</time>
      </trkpt>
      <trkpt lat="42.3655" lon="3.01978">
        <ele>88</ele>
        <time>2022-05-21 13:30:21</time>
      </trkpt>
      <trkpt lat="42.36547" lon="3.01974">
        <ele>88</ele>
        <time>2022-05-21 13:30:22</time>
      </trkpt>
      <trkpt lat="42.36545" lon="3.01969">
        <ele>88.2</ele>
        <time>2022-05-21 13:30:23</time>
      </trkpt>
      <trkpt lat="42.36542" lon="3.01964">
        <ele>88.2</ele>
        <time>2022-05-21 13:30:24</time>
      </trkpt>
      <trkpt lat="42.36539" lon="3.01959">
        <ele>88.2</ele>
        <time>2022-05-21 13:30:25</time>
      </trkpt>
      <trkpt lat="42.36536" lon="3.01954">
        <ele>88.2</ele>
        <time>2022-05-21 13:30:26</time>
      </trkpt>
      <trkpt lat="42.36533" lon="3.01948">
        <ele>88</ele>
        <time>2022-05-21 13:30:27</time>
      </trkpt>
      <trkpt lat="42.3653" lon="3.01942">
        <ele>87.8</ele>
        <time>2022-05-21 13:30:28</time>
      </trkpt>
      <trkpt lat="42.36526" lon="3.01936">
        <ele>87.6</ele>
        <time>2022-05-21 13:30:29</time>
      </trkpt>
      <trkpt lat="42.36522" lon="3.01928">
        <ele>87.4</ele>
        <time>2022-05-21 13:30:30</time>
      </trkpt>
      <trkpt lat="42.36517" lon="3.01921">
        <ele>87</ele>
        <time>2022-05-21 13:30:31</time>
      </trkpt>
      <trkpt lat="42.36513" lon="3.01913">
        <ele>86.6</ele>
        <time>2022-05-21 13:30:32</time>
      </trkpt>
      <trkpt lat="42.36508" lon="3.01905">
        <ele>86.2</ele>
        <time>2022-05-21 13:30:33</time>
      </trkpt>
      <trkpt lat="42.36503" lon="3.01897">
        <ele>85.8</ele>
        <time>2022-05-21 13:30:34</time>
      </trkpt>
      <trkpt lat="42.36498" lon="3.01888">
        <ele>85.2</ele>
        <time>2022-05-21 13:30:35</time>
      </trkpt>
      <trkpt lat="42.36493" lon="3.0188">
        <ele>84.6</ele>
        <time>2022-05-21 13:30:36</time>
      </trkpt>
      <trkpt lat="42.36487" lon="3.01871">
        <ele>84</ele>
        <time>2022-05-21 13:30:37</time>
      </trkpt>
      <trkpt lat="42.36482" lon="3.01861">
        <ele>83.6</ele>
        <time>2022-05-21 13:30:38</time>
      </trkpt>
      <trkpt lat="42.36476" lon="3.01851">
        <ele>83</ele>
        <time>2022-05-21 13:30:39</time>
      </trkpt>
      <trkpt lat="42.3647" lon="3.01841">
        <ele>82.2</ele>
        <time>2022-05-21 13:30:40</time>
      </trkpt>
      <trkpt lat="42.36464" lon="3.01831">
        <ele>81.6</ele>
        <time>2022-05-21 13:30:41</time>
      </trkpt>
      <trkpt lat="42.36458" lon="3.0182">
        <ele>81</ele>
        <time>2022-05-21 13:30:42</time>
      </trkpt>
      <trkpt lat="42.36452" lon="3.01807">
        <ele>80.2</ele>
        <time>2022-05-21 13:30:43</time>
      </trkpt>
      <trkpt lat="42.36447" lon="3.01794">
        <ele>79.6</ele>
        <time>2022-05-21 13:30:44</time>
      </trkpt>
      <trkpt lat="42.36443" lon="3.01781">
        <ele>79.2</ele>
        <time>2022-05-21 13:30:45</time>
      </trkpt>
      <trkpt lat="42.3644" lon="3.01767">
        <ele>78.8</ele>
        <time>2022-05-21 13:30:46</time>
      </trkpt>
      <trkpt lat="42.36436" lon="3.01754">
        <ele>78.6</ele>
        <time>2022-05-21 13:30:47</time>
      </trkpt>
      <trkpt lat="42.36433" lon="3.01742">
        <ele>78.4</ele>
        <time>2022-05-21 13:30:48</time>
      </trkpt>
      <trkpt lat="42.36429" lon="3.01731">
        <ele>78.2</ele>
        <time>2022-05-21 13:30:49</time>
      </trkpt>
      <trkpt lat="42.36425" lon="3.01721">
        <ele>78.2</ele>
        <time>2022-05-21 13:30:50</time>
      </trkpt>
      <trkpt lat="42.3642" lon="3.01711">
        <ele>78.2</ele>
        <time>2022-05-21 13:30:51</time>
      </trkpt>
      <trkpt lat="42.36415" lon="3.01702">
        <ele>78.2</ele>
        <time>2022-05-21 13:30:52</time>
      </trkpt>
      <trkpt lat="42.3641" lon="3.01694">
        <ele>78.2</ele>
        <time>2022-05-21 13:30:53</time>
      </trkpt>
      <trkpt lat="42.36405" lon="3.01685">
        <ele>78.2</ele>
        <time>2022-05-21 13:30:54</time>
      </trkpt>
      <trkpt lat="42.364" lon="3.01676">
        <ele>78</ele>
        <time>2022-05-21 13:30:55</time>
      </trkpt>
      <trkpt lat="42.36396" lon="3.01667">
        <ele>78</ele>
        <time>2022-05-21 13:30:56</time>
      </trkpt>
      <trkpt lat="42.36392" lon="3.01658">
        <ele>77.8</ele>
        <time>2022-05-21 13:30:57</time>
      </trkpt>
      <trkpt lat="42.36387" lon="3.01648">
        <ele>77.8</ele>
        <time>2022-05-21 13:30:58</time>
      </trkpt>
      <trkpt lat="42.36384" lon="3.01637">
        <ele>77.6</ele>
        <time>2022-05-21 13:30:59</time>
      </trkpt>
      <trkpt lat="42.36381" lon="3.01625">
        <ele>77.4</ele>
        <time>2022-05-21 13:31:00</time>
      </trkpt>
      <trkpt lat="42.36379" lon="3.01613">
        <ele>77</ele>
        <time>2022-05-21 13:31:01</time>
      </trkpt>
      <trkpt lat="42.36379" lon="3.01601">
        <ele>76.8</ele>
        <time>2022-05-21 13:31:02</time>
      </trkpt>
      <trkpt lat="42.36379" lon="3.01588">
        <ele>76.6</ele>
        <time>2022-05-21 13:31:03</time>
      </trkpt>
      <trkpt lat="42.3638" lon="3.01575">
        <ele>76.4</ele>
        <time>2022-05-21 13:31:04</time>
      </trkpt>
      <trkpt lat="42.36381" lon="3.01563">
        <ele>76</ele>
        <time>2022-05-21 13:31:05</time>
      </trkpt>
      <trkpt lat="42.36383" lon="3.0155">
        <ele>75.8</ele>
        <time>2022-05-21 13:31:06</time>
      </trkpt>
      <trkpt lat="42.36384" lon="3.01538">
        <ele>75.6</ele>
        <time>2022-05-21 13:31:07</time>
      </trkpt>
      <trkpt lat="42.36385" lon="3.01527">
        <ele>75.6</ele>
        <time>2022-05-21 13:31:08</time>
      </trkpt>
      <trkpt lat="42.36387" lon="3.01516">
        <ele>75.6</ele>
        <time>2022-05-21 13:31:09</time>
      </trkpt>
      <trkpt lat="42.36388" lon="3.01504">
        <ele>75.8</ele>
        <time>2022-05-21 13:31:10</time>
      </trkpt>
      <trkpt lat="42.3639" lon="3.01493">
        <ele>75.8</ele>
        <time>2022-05-21 13:31:11</time>
      </trkpt>
      <trkpt lat="42.36391" lon="3.01482">
        <ele>75.8</ele>
        <time>2022-05-21 13:31:12</time>
      </trkpt>
      <trkpt lat="42.36393" lon="3.01472">
        <ele>75.8</ele>
        <time>2022-05-21 13:31:13</time>
      </trkpt>
      <trkpt lat="42.36396" lon="3.01461">
        <ele>75.8</ele>
        <time>2022-05-21 13:31:14</time>
      </trkpt>
      <trkpt lat="42.36399" lon="3.01449">
        <ele>75.8</ele>
        <time>2022-05-21 13:31:15</time>
      </trkpt>
      <trkpt lat="42.36403" lon="3.01438">
        <ele>75.4</ele>
        <time>2022-05-21 13:31:16</time>
      </trkpt>
      <trkpt lat="42.36407" lon="3.01427">
        <ele>75.2</ele>
        <time>2022-05-21 13:31:17</time>
      </trkpt>
      <trkpt lat="42.36411" lon="3.01416">
        <ele>75</ele>
        <time>2022-05-21 13:31:18</time>
      </trkpt>
      <trkpt lat="42.36415" lon="3.01405">
        <ele>74.8</ele>
        <time>2022-05-21 13:31:19</time>
      </trkpt>
      <trkpt lat="42.36419" lon="3.01394">
        <ele>74.6</ele>
        <time>2022-05-21 13:31:20</time>
      </trkpt>
      <trkpt lat="42.36424" lon="3.01383">
        <ele>74.2</ele>
        <time>2022-05-21 13:31:21</time>
      </trkpt>
      <trkpt lat="42.36429" lon="3.01372">
        <ele>74</ele>
        <time>2022-05-21 13:31:22</time>
      </trkpt>
      <trkpt lat="42.36434" lon="3.01361">
        <ele>73.8</ele>
        <time>2022-05-21 13:31:23</time>
      </trkpt>
      <trkpt lat="42.36438" lon="3.0135">
        <ele>73.4</ele>
        <time>2022-05-21 13:31:24</time>
      </trkpt>
      <trkpt lat="42.36443" lon="3.01339">
        <ele>73</ele>
        <time>2022-05-21 13:31:25</time>
      </trkpt>
      <trkpt lat="42.36448" lon="3.01328">
        <ele>72.8</ele>
        <time>2022-05-21 13:31:26</time>
      </trkpt>
      <trkpt lat="42.36452" lon="3.01315">
        <ele>72.4</ele>
        <time>2022-05-21 13:31:27</time>
      </trkpt>
      <trkpt lat="42.36456" lon="3.01302">
        <ele>72.2</ele>
        <time>2022-05-21 13:31:28</time>
      </trkpt>
      <trkpt lat="42.36458" lon="3.01289">
        <ele>72</ele>
        <time>2022-05-21 13:31:29</time>
      </trkpt>
      <trkpt lat="42.36459" lon="3.01276">
        <ele>71.8</ele>
        <time>2022-05-21 13:31:30</time>
      </trkpt>
      <trkpt lat="42.36458" lon="3.01262">
        <ele>71.6</ele>
        <time>2022-05-21 13:31:31</time>
      </trkpt>
      <trkpt lat="42.36458" lon="3.01249">
        <ele>71.4</ele>
        <time>2022-05-21 13:31:32</time>
      </trkpt>
      <trkpt lat="42.36457" lon="3.01236">
        <ele>71</ele>
        <time>2022-05-21 13:31:33</time>
      </trkpt>
      <trkpt lat="42.36455" lon="3.01223">
        <ele>70.8</ele>
        <time>2022-05-21 13:31:34</time>
      </trkpt>
      <trkpt lat="42.36452" lon="3.0121">
        <ele>70.4</ele>
        <time>2022-05-21 13:31:35</time>
      </trkpt>
      <trkpt lat="42.3645" lon="3.01197">
        <ele>70</ele>
        <time>2022-05-21 13:31:36</time>
      </trkpt>
      <trkpt lat="42.36448" lon="3.01184">
        <ele>69.6</ele>
        <time>2022-05-21 13:31:37</time>
      </trkpt>
      <trkpt lat="42.36445" lon="3.0117">
        <ele>69.4</ele>
        <time>2022-05-21 13:31:38</time>
      </trkpt>
      <trkpt lat="42.36442" lon="3.01156">
        <ele>69</ele>
        <time>2022-05-21 13:31:39</time>
      </trkpt>
      <trkpt lat="42.3644" lon="3.0114">
        <ele>68.8</ele>
        <time>2022-05-21 13:31:40</time>
      </trkpt>
      <trkpt lat="42.36437" lon="3.01127">
        <ele>68.4</ele>
        <time>2022-05-21 13:31:41</time>
      </trkpt>
      <trkpt lat="42.36435" lon="3.01115">
        <ele>68.2</ele>
        <time>2022-05-21 13:31:42</time>
      </trkpt>
      <trkpt lat="42.36433" lon="3.01103">
        <ele>67.6</ele>
        <time>2022-05-21 13:31:43</time>
      </trkpt>
      <trkpt lat="42.36431" lon="3.01091">
        <ele>67.2</ele>
        <time>2022-05-21 13:31:44</time>
      </trkpt>
      <trkpt lat="42.36429" lon="3.01079">
        <ele>67</ele>
        <time>2022-05-21 13:31:45</time>
      </trkpt>
      <trkpt lat="42.36427" lon="3.01068">
        <ele>66.8</ele>
        <time>2022-05-21 13:31:46</time>
      </trkpt>
      <trkpt lat="42.36425" lon="3.01056">
        <ele>66.6</ele>
        <time>2022-05-21 13:31:47</time>
      </trkpt>
      <trkpt lat="42.36423" lon="3.01045">
        <ele>66.2</ele>
        <time>2022-05-21 13:31:48</time>
      </trkpt>
      <trkpt lat="42.36421" lon="3.01033">
        <ele>66.2</ele>
        <time>2022-05-21 13:31:49</time>
      </trkpt>
      <trkpt lat="42.3642" lon="3.01022">
        <ele>66</ele>
        <time>2022-05-21 13:31:50</time>
      </trkpt>
      <trkpt lat="42.36417" lon="3.0101">
        <ele>65.8</ele>
        <time>2022-05-21 13:31:51</time>
      </trkpt>
      <trkpt lat="42.36414" lon="3.00999">
        <ele>65.6</ele>
        <time>2022-05-21 13:31:52</time>
      </trkpt>
      <trkpt lat="42.3641" lon="3.00987">
        <ele>65.4</ele>
        <time>2022-05-21 13:31:53</time>
      </trkpt>
      <trkpt lat="42.36406" lon="3.00975">
        <ele>65.4</ele>
        <time>2022-05-21 13:31:54</time>
      </trkpt>
      <trkpt lat="42.36401" lon="3.00964">
        <ele>65.2</ele>
        <time>2022-05-21 13:31:55</time>
      </trkpt>
      <trkpt lat="42.36396" lon="3.00953">
        <ele>65</ele>
        <time>2022-05-21 13:31:56</time>
      </trkpt>
      <trkpt lat="42.36391" lon="3.00943">
        <ele>65</ele>
        <time>2022-05-21 13:31:57</time>
      </trkpt>
      <trkpt lat="42.36387" lon="3.00933">
        <ele>65</ele>
        <time>2022-05-21 13:31:58</time>
      </trkpt>
      <trkpt lat="42.36382" lon="3.00924">
        <ele>65</ele>
        <time>2022-05-21 13:31:59</time>
      </trkpt>
      <trkpt lat="42.36378" lon="3.00914">
        <ele>65</ele>
        <time>2022-05-21 13:32:00</time>
      </trkpt>
      <trkpt lat="42.36373" lon="3.00904">
        <ele>64.8</ele>
        <time>2022-05-21 13:32:01</time>
      </trkpt>
      <trkpt lat="42.36369" lon="3.00894">
        <ele>64.8</ele>
        <time>2022-05-21 13:32:02</time>
      </trkpt>
      <trkpt lat="42.36364" lon="3.00885">
        <ele>64.8</ele>
        <time>2022-05-21 13:32:03</time>
      </trkpt>
      <trkpt lat="42.36359" lon="3.00875">
        <ele>64.8</ele>
        <time>2022-05-21 13:32:04</time>
      </trkpt>
      <trkpt lat="42.36354" lon="3.00866">
        <ele>64.8</ele>
        <time>2022-05-21 13:32:05</time>
      </trkpt>
      <trkpt lat="42.36349" lon="3.00857">
        <ele>64.8</ele>
        <time>2022-05-21 13:32:06</time>
      </trkpt>
      <trkpt lat="42.36344" lon="3.00847">
        <ele>64.8</ele>
        <time>2022-05-21 13:32:07</time>
      </trkpt>
      <trkpt lat="42.36339" lon="3.00838">
        <ele>64.6</ele>
        <time>2022-05-21 13:32:08</time>
      </trkpt>
      <trkpt lat="42.36333" lon="3.0083">
        <ele>64.6</ele>
        <time>2022-05-21 13:32:09</time>
      </trkpt>
      <trkpt lat="42.36327" lon="3.00822">
        <ele>64.4</ele>
        <time>2022-05-21 13:32:10</time>
      </trkpt>
      <trkpt lat="42.3632" lon="3.00815">
        <ele>64.4</ele>
        <time>2022-05-21 13:32:11</time>
      </trkpt>
      <trkpt lat="42.36313" lon="3.00809">
        <ele>64.2</ele>
        <time>2022-05-21 13:32:12</time>
      </trkpt>
      <trkpt lat="42.36305" lon="3.00803">
        <ele>64</ele>
        <time>2022-05-21 13:32:13</time>
      </trkpt>
      <trkpt lat="42.36298" lon="3.00798">
        <ele>63.8</ele>
        <time>2022-05-21 13:32:14</time>
      </trkpt>
      <trkpt lat="42.3629" lon="3.00793">
        <ele>63.8</ele>
        <time>2022-05-21 13:32:15</time>
      </trkpt>
      <trkpt lat="42.36282" lon="3.00788">
        <ele>63.6</ele>
        <time>2022-05-21 13:32:16</time>
      </trkpt>
      <trkpt lat="42.36275" lon="3.00783">
        <ele>63.4</ele>
        <time>2022-05-21 13:32:17</time>
      </trkpt>
      <trkpt lat="42.36267" lon="3.00779">
        <ele>63.2</ele>
        <time>2022-05-21 13:32:18</time>
      </trkpt>
      <trkpt lat="42.3626" lon="3.00774">
        <ele>63.2</ele>
        <time>2022-05-21 13:32:19</time>
      </trkpt>
      <trkpt lat="42.36252" lon="3.00769">
        <ele>63.2</ele>
        <time>2022-05-21 13:32:20</time>
      </trkpt>
      <trkpt lat="42.36245" lon="3.00763">
        <ele>63.2</ele>
        <time>2022-05-21 13:32:21</time>
      </trkpt>
      <trkpt lat="42.36238" lon="3.00757">
        <ele>63.2</ele>
        <time>2022-05-21 13:32:22</time>
      </trkpt>
      <trkpt lat="42.36232" lon="3.00751">
        <ele>63.2</ele>
        <time>2022-05-21 13:32:23</time>
      </trkpt>
      <trkpt lat="42.36226" lon="3.00744">
        <ele>63</ele>
        <time>2022-05-21 13:32:24</time>
      </trkpt>
      <trkpt lat="42.36219" lon="3.00737">
        <ele>63</ele>
        <time>2022-05-21 13:32:25</time>
      </trkpt>
      <trkpt lat="42.36213" lon="3.0073">
        <ele>63.2</ele>
        <time>2022-05-21 13:32:26</time>
      </trkpt>
      <trkpt lat="42.36207" lon="3.00723">
        <ele>63</ele>
        <time>2022-05-21 13:32:27</time>
      </trkpt>
      <trkpt lat="42.362" lon="3.00715">
        <ele>63</ele>
        <time>2022-05-21 13:32:28</time>
      </trkpt>
      <trkpt lat="42.36194" lon="3.00708">
        <ele>63</ele>
        <time>2022-05-21 13:32:29</time>
      </trkpt>
      <trkpt lat="42.36189" lon="3.007">
        <ele>62.8</ele>
        <time>2022-05-21 13:32:30</time>
      </trkpt>
      <trkpt lat="42.36183" lon="3.00692">
        <ele>62.8</ele>
        <time>2022-05-21 13:32:31</time>
      </trkpt>
      <trkpt lat="42.36178" lon="3.00684">
        <ele>62.6</ele>
        <time>2022-05-21 13:32:32</time>
      </trkpt>
      <trkpt lat="42.36173" lon="3.00676">
        <ele>62.6</ele>
        <time>2022-05-21 13:32:33</time>
      </trkpt>
      <trkpt lat="42.36169" lon="3.00666">
        <ele>62.4</ele>
        <time>2022-05-21 13:32:34</time>
      </trkpt>
      <trkpt lat="42.36165" lon="3.00657">
        <ele>62.4</ele>
        <time>2022-05-21 13:32:35</time>
      </trkpt>
      <trkpt lat="42.36161" lon="3.00648">
        <ele>62.4</ele>
        <time>2022-05-21 13:32:36</time>
      </trkpt>
      <trkpt lat="42.36158" lon="3.00639">
        <ele>62.4</ele>
        <time>2022-05-21 13:32:37</time>
      </trkpt>
      <trkpt lat="42.36155" lon="3.00629">
        <ele>62.2</ele>
        <time>2022-05-21 13:32:38</time>
      </trkpt>
      <trkpt lat="42.36151" lon="3.0062">
        <ele>62.2</ele>
        <time>2022-05-21 13:32:39</time>
      </trkpt>
      <trkpt lat="42.36148" lon="3.00611">
        <ele>62.2</ele>
        <time>2022-05-21 13:32:40</time>
      </trkpt>
      <trkpt lat="42.36145" lon="3.00602">
        <ele>62.4</ele>
        <time>2022-05-21 13:32:41</time>
      </trkpt>
      <trkpt lat="42.36142" lon="3.00593">
        <ele>62.4</ele>
        <time>2022-05-21 13:32:42</time>
      </trkpt>
      <trkpt lat="42.36139" lon="3.00583">
        <ele>62.4</ele>
        <time>2022-05-21 13:32:43</time>
      </trkpt>
      <trkpt lat="42.36136" lon="3.00574">
        <ele>62.4</ele>
        <time>2022-05-21 13:32:44</time>
      </trkpt>
      <trkpt lat="42.36133" lon="3.00565">
        <ele>62.2</ele>
        <time>2022-05-21 13:32:45</time>
      </trkpt>
      <trkpt lat="42.3613" lon="3.00556">
        <ele>62.2</ele>
        <time>2022-05-21 13:32:46</time>
      </trkpt>
      <trkpt lat="42.36127" lon="3.00546">
        <ele>62.2</ele>
        <time>2022-05-21 13:32:47</time>
      </trkpt>
      <trkpt lat="42.36124" lon="3.00536">
        <ele>62</ele>
        <time>2022-05-21 13:32:48</time>
      </trkpt>
      <trkpt lat="42.36121" lon="3.00527">
        <ele>62</ele>
        <time>2022-05-21 13:32:49</time>
      </trkpt>
      <trkpt lat="42.36119" lon="3.00517">
        <ele>61.8</ele>
        <time>2022-05-21 13:32:50</time>
      </trkpt>
      <trkpt lat="42.36116" lon="3.00506">
        <ele>61.8</ele>
        <time>2022-05-21 13:32:51</time>
      </trkpt>
      <trkpt lat="42.36114" lon="3.00496">
        <ele>61.6</ele>
        <time>2022-05-21 13:32:52</time>
      </trkpt>
      <trkpt lat="42.36112" lon="3.00486">
        <ele>61.6</ele>
        <time>2022-05-21 13:32:53</time>
      </trkpt>
      <trkpt lat="42.36111" lon="3.00476">
        <ele>61.2</ele>
        <time>2022-05-21 13:32:54</time>
      </trkpt>
      <trkpt lat="42.36109" lon="3.00466">
        <ele>61</ele>
        <time>2022-05-21 13:32:55</time>
      </trkpt>
      <trkpt lat="42.36108" lon="3.00455">
        <ele>60.8</ele>
        <time>2022-05-21 13:32:56</time>
      </trkpt>
      <trkpt lat="42.36106" lon="3.00445">
        <ele>60.6</ele>
        <time>2022-05-21 13:32:57</time>
      </trkpt>
      <trkpt lat="42.36104" lon="3.00434">
        <ele>60.4</ele>
        <time>2022-05-21 13:32:58</time>
      </trkpt>
      <trkpt lat="42.36102" lon="3.00423">
        <ele>60.2</ele>
        <time>2022-05-21 13:32:59</time>
      </trkpt>
      <trkpt lat="42.36099" lon="3.00413">
        <ele>59.8</ele>
        <time>2022-05-21 13:33:00</time>
      </trkpt>
      <trkpt lat="42.36096" lon="3.00403">
        <ele>59.6</ele>
        <time>2022-05-21 13:33:01</time>
      </trkpt>
      <trkpt lat="42.36093" lon="3.00394">
        <ele>59.6</ele>
        <time>2022-05-21 13:33:02</time>
      </trkpt>
      <trkpt lat="42.36089" lon="3.00385">
        <ele>59.4</ele>
        <time>2022-05-21 13:33:03</time>
      </trkpt>
      <trkpt lat="42.36085" lon="3.00376">
        <ele>59.2</ele>
        <time>2022-05-21 13:33:04</time>
      </trkpt>
      <trkpt lat="42.3608" lon="3.00368">
        <ele>59.2</ele>
        <time>2022-05-21 13:33:05</time>
      </trkpt>
      <trkpt lat="42.36076" lon="3.0036">
        <ele>59.2</ele>
        <time>2022-05-21 13:33:06</time>
      </trkpt>
      <trkpt lat="42.36073" lon="3.00351">
        <ele>59.2</ele>
        <time>2022-05-21 13:33:07</time>
      </trkpt>
      <trkpt lat="42.3607" lon="3.00342">
        <ele>59.4</ele>
        <time>2022-05-21 13:33:08</time>
      </trkpt>
      <trkpt lat="42.36069" lon="3.00333">
        <ele>59.6</ele>
        <time>2022-05-21 13:33:09</time>
      </trkpt>
      <trkpt lat="42.36068" lon="3.00323">
        <ele>59.6</ele>
        <time>2022-05-21 13:33:10</time>
      </trkpt>
      <trkpt lat="42.36067" lon="3.00314">
        <ele>59.8</ele>
        <time>2022-05-21 13:33:11</time>
      </trkpt>
      <trkpt lat="42.36067" lon="3.00305">
        <ele>59.8</ele>
        <time>2022-05-21 13:33:12</time>
      </trkpt>
      <trkpt lat="42.36067" lon="3.00295">
        <ele>59.8</ele>
        <time>2022-05-21 13:33:13</time>
      </trkpt>
      <trkpt lat="42.36066" lon="3.00286">
        <ele>59.8</ele>
        <time>2022-05-21 13:33:14</time>
      </trkpt>
      <trkpt lat="42.36065" lon="3.00276">
        <ele>59.8</ele>
        <time>2022-05-21 13:33:15</time>
      </trkpt>
      <trkpt lat="42.36065" lon="3.00266">
        <ele>59.6</ele>
        <time>2022-05-21 13:33:16</time>
      </trkpt>
      <trkpt lat="42.36065" lon="3.00256">
        <ele>59.6</ele>
        <time>2022-05-21 13:33:17</time>
      </trkpt>
      <trkpt lat="42.36064" lon="3.00246">
        <ele>59.4</ele>
        <time>2022-05-21 13:33:18</time>
      </trkpt>
      <trkpt lat="42.36063" lon="3.00235">
        <ele>59.2</ele>
        <time>2022-05-21 13:33:19</time>
      </trkpt>
      <trkpt lat="42.36063" lon="3.00225">
        <ele>59</ele>
        <time>2022-05-21 13:33:20</time>
      </trkpt>
      <trkpt lat="42.36062" lon="3.00214">
        <ele>58.8</ele>
        <time>2022-05-21 13:33:21</time>
      </trkpt>
      <trkpt lat="42.3606" lon="3.00203">
        <ele>58.6</ele>
        <time>2022-05-21 13:33:22</time>
      </trkpt>
      <trkpt lat="42.36059" lon="3.00193">
        <ele>58.4</ele>
        <time>2022-05-21 13:33:23</time>
      </trkpt>
      <trkpt lat="42.36057" lon="3.00183">
        <ele>58.4</ele>
        <time>2022-05-21 13:33:24</time>
      </trkpt>
      <trkpt lat="42.36055" lon="3.00173">
        <ele>58.4</ele>
        <time>2022-05-21 13:33:25</time>
      </trkpt>
      <trkpt lat="42.36054" lon="3.00163">
        <ele>58.4</ele>
        <time>2022-05-21 13:33:26</time>
      </trkpt>
      <trkpt lat="42.36054" lon="3.00153">
        <ele>58.4</ele>
        <time>2022-05-21 13:33:27</time>
      </trkpt>
      <trkpt lat="42.36055" lon="3.00143">
        <ele>58.4</ele>
        <time>2022-05-21 13:33:28</time>
      </trkpt>
      <trkpt lat="42.36056" lon="3.00135">
        <ele>58.4</ele>
        <time>2022-05-21 13:33:29</time>
      </trkpt>
      <trkpt lat="42.36059" lon="3.00126">
        <ele>58.6</ele>
        <time>2022-05-21 13:33:30</time>
      </trkpt>
      <trkpt lat="42.36061" lon="3.00118">
        <ele>58.6</ele>
        <time>2022-05-21 13:33:31</time>
      </trkpt>
      <trkpt lat="42.36063" lon="3.0011">
        <ele>58.8</ele>
        <time>2022-05-21 13:33:32</time>
      </trkpt>
      <trkpt lat="42.36065" lon="3.00103">
        <ele>59</ele>
        <time>2022-05-21 13:33:33</time>
      </trkpt>
      <trkpt lat="42.36066" lon="3.00095">
        <ele>59.2</ele>
        <time>2022-05-21 13:33:34</time>
      </trkpt>
      <trkpt lat="42.36068" lon="3.00088">
        <ele>59.4</ele>
        <time>2022-05-21 13:33:35</time>
      </trkpt>
      <trkpt lat="42.3607" lon="3.00081">
        <ele>59.6</ele>
        <time>2022-05-21 13:33:36</time>
      </trkpt>
      <trkpt lat="42.36072" lon="3.00075">
        <ele>59.8</ele>
        <time>2022-05-21 13:33:37</time>
      </trkpt>
      <trkpt lat="42.36074" lon="3.00069">
        <ele>60</ele>
        <time>2022-05-21 13:33:38</time>
      </trkpt>
      <trkpt lat="42.36076" lon="3.00063">
        <ele>60.2</ele>
        <time>2022-05-21 13:33:39</time>
      </trkpt>
      <trkpt lat="42.36078" lon="3.00057">
        <ele>60.4</ele>
        <time>2022-05-21 13:33:40</time>
      </trkpt>
      <trkpt lat="42.36081" lon="3.00052">
        <ele>60.8</ele>
        <time>2022-05-21 13:33:41</time>
      </trkpt>
      <trkpt lat="42.36084" lon="3.00048">
        <ele>61</ele>
        <time>2022-05-21 13:33:42</time>
      </trkpt>
      <trkpt lat="42.36087" lon="3.00043">
        <ele>61.2</ele>
        <time>2022-05-21 13:33:43</time>
      </trkpt>
      <trkpt lat="42.3609" lon="3.00039">
        <ele>61.4</ele>
        <time>2022-05-21 13:33:44</time>
      </trkpt>
      <trkpt lat="42.36093" lon="3.00036">
        <ele>61.6</ele>
        <time>2022-05-21 13:33:45</time>
      </trkpt>
      <trkpt lat="42.36096" lon="3.00032">
        <ele>61.8</ele>
        <time>2022-05-21 13:33:46</time>
      </trkpt>
      <trkpt lat="42.361" lon="3.00029">
        <ele>62</ele>
        <time>2022-05-21 13:33:47</time>
      </trkpt>
      <trkpt lat="42.36103" lon="3.00025">
        <ele>62.2</ele>
        <time>2022-05-21 13:33:48</time>
      </trkpt>
      <trkpt lat="42.36106" lon="3.00022">
        <ele>62.2</ele>
        <time>2022-05-21 13:33:49</time>
      </trkpt>
      <trkpt lat="42.3611" lon="3.00018">
        <ele>62.2</ele>
        <time>2022-05-21 13:33:50</time>
      </trkpt>
      <trkpt lat="42.36113" lon="3.00014">
        <ele>62.2</ele>
        <time>2022-05-21 13:33:51</time>
      </trkpt>
      <trkpt lat="42.36117" lon="3.0001">
        <ele>62.2</ele>
        <time>2022-05-21 13:33:52</time>
      </trkpt>
      <trkpt lat="42.36121" lon="3.00005">
        <ele>62.2</ele>
        <time>2022-05-21 13:33:53</time>
      </trkpt>
      <trkpt lat="42.36125" lon="3.00001">
        <ele>62.2</ele>
        <time>2022-05-21 13:33:54</time>
      </trkpt>
      <trkpt lat="42.36128" lon="2.99996">
        <ele>62.2</ele>
        <time>2022-05-21 13:33:55</time>
      </trkpt>
      <trkpt lat="42.36132" lon="2.99991">
        <ele>61.8</ele>
        <time>2022-05-21 13:33:56</time>
      </trkpt>
      <trkpt lat="42.36137" lon="2.99986">
        <ele>61.6</ele>
        <time>2022-05-21 13:33:57</time>
      </trkpt>
      <trkpt lat="42.36141" lon="2.99981">
        <ele>61.6</ele>
        <time>2022-05-21 13:33:58</time>
      </trkpt>
      <trkpt lat="42.36145" lon="2.99978">
        <ele>61.4</ele>
        <time>2022-05-21 13:33:59</time>
      </trkpt>
      <trkpt lat="42.3615" lon="2.99975">
        <ele>61.4</ele>
        <time>2022-05-21 13:34:00</time>
      </trkpt>
      <trkpt lat="42.36156" lon="2.99972">
        <ele>61.4</ele>
        <time>2022-05-21 13:34:01</time>
      </trkpt>
      <trkpt lat="42.36162" lon="2.99969">
        <ele>61.4</ele>
        <time>2022-05-21 13:34:02</time>
      </trkpt>
      <trkpt lat="42.36168" lon="2.99965">
        <ele>61.2</ele>
        <time>2022-05-21 13:34:03</time>
      </trkpt>
      <trkpt lat="42.36174" lon="2.99962">
        <ele>61.2</ele>
        <time>2022-05-21 13:34:04</time>
      </trkpt>
      <trkpt lat="42.36181" lon="2.9996">
        <ele>61.2</ele>
        <time>2022-05-21 13:34:05</time>
      </trkpt>
      <trkpt lat="42.36187" lon="2.99957">
        <ele>61</ele>
        <time>2022-05-21 13:34:06</time>
      </trkpt>
      <trkpt lat="42.36192" lon="2.99955">
        <ele>60.8</ele>
        <time>2022-05-21 13:34:07</time>
      </trkpt>
      <trkpt lat="42.36198" lon="2.99953">
        <ele>60.8</ele>
        <time>2022-05-21 13:34:08</time>
      </trkpt>
      <trkpt lat="42.36204" lon="2.99952">
        <ele>60.6</ele>
        <time>2022-05-21 13:34:09</time>
      </trkpt>
      <trkpt lat="42.3621" lon="2.99952">
        <ele>60.6</ele>
        <time>2022-05-21 13:34:10</time>
      </trkpt>
      <trkpt lat="42.36215" lon="2.99952">
        <ele>60.6</ele>
        <time>2022-05-21 13:34:11</time>
      </trkpt>
      <trkpt lat="42.36221" lon="2.99953">
        <ele>60.6</ele>
        <time>2022-05-21 13:34:12</time>
      </trkpt>
      <trkpt lat="42.36226" lon="2.99955">
        <ele>60.6</ele>
        <time>2022-05-21 13:34:13</time>
      </trkpt>
      <trkpt lat="42.36232" lon="2.99957">
        <ele>60.6</ele>
        <time>2022-05-21 13:34:14</time>
      </trkpt>
      <trkpt lat="42.36238" lon="2.99959">
        <ele>60.8</ele>
        <time>2022-05-21 13:34:15</time>
      </trkpt>
      <trkpt lat="42.36243" lon="2.9996">
        <ele>60.8</ele>
        <time>2022-05-21 13:34:16</time>
      </trkpt>
      <trkpt lat="42.36249" lon="2.9996">
        <ele>60.8</ele>
        <time>2022-05-21 13:34:17</time>
      </trkpt>
      <trkpt lat="42.36254" lon="2.9996">
        <ele>60.8</ele>
        <time>2022-05-21 13:34:18</time>
      </trkpt>
      <trkpt lat="42.3626" lon="2.99958">
        <ele>60.8</ele>
        <time>2022-05-21 13:34:19</time>
      </trkpt>
      <trkpt lat="42.36265" lon="2.99956">
        <ele>60.8</ele>
        <time>2022-05-21 13:34:20</time>
      </trkpt>
      <trkpt lat="42.3627" lon="2.99953">
        <ele>61</ele>
        <time>2022-05-21 13:34:21</time>
      </trkpt>
      <trkpt lat="42.36275" lon="2.9995">
        <ele>61</ele>
        <time>2022-05-21 13:34:22</time>
      </trkpt>
      <trkpt lat="42.3628" lon="2.99947">
        <ele>61</ele>
        <time>2022-05-21 13:34:23</time>
      </trkpt>
      <trkpt lat="42.36285" lon="2.99943">
        <ele>61.2</ele>
        <time>2022-05-21 13:34:24</time>
      </trkpt>
      <trkpt lat="42.3629" lon="2.9994">
        <ele>61.2</ele>
        <time>2022-05-21 13:34:25</time>
      </trkpt>
      <trkpt lat="42.36296" lon="2.99937">
        <ele>61.2</ele>
        <time>2022-05-21 13:34:26</time>
      </trkpt>
      <trkpt lat="42.36301" lon="2.99934">
        <ele>61.2</ele>
        <time>2022-05-21 13:34:27</time>
      </trkpt>
      <trkpt lat="42.36306" lon="2.99931">
        <ele>61.2</ele>
        <time>2022-05-21 13:34:28</time>
      </trkpt>
      <trkpt lat="42.36312" lon="2.99928">
        <ele>61.4</ele>
        <time>2022-05-21 13:34:29</time>
      </trkpt>
      <trkpt lat="42.36316" lon="2.99925">
        <ele>61.4</ele>
        <time>2022-05-21 13:34:30</time>
      </trkpt>
      <trkpt lat="42.3632" lon="2.99921">
        <ele>61.6</ele>
        <time>2022-05-21 13:34:31</time>
      </trkpt>
      <trkpt lat="42.36324" lon="2.99916">
        <ele>61.6</ele>
        <time>2022-05-21 13:34:32</time>
      </trkpt>
      <trkpt lat="42.36327" lon="2.9991">
        <ele>61.8</ele>
        <time>2022-05-21 13:34:33</time>
      </trkpt>
      <trkpt lat="42.36328" lon="2.99903">
        <ele>62</ele>
        <time>2022-05-21 13:34:34</time>
      </trkpt>
      <trkpt lat="42.36329" lon="2.99897">
        <ele>62.2</ele>
        <time>2022-05-21 13:34:35</time>
      </trkpt>
      <trkpt lat="42.36331" lon="2.99891">
        <ele>62.4</ele>
        <time>2022-05-21 13:34:36</time>
      </trkpt>
      <trkpt lat="42.36332" lon="2.99884">
        <ele>62.6</ele>
        <time>2022-05-21 13:34:37</time>
      </trkpt>
      <trkpt lat="42.36334" lon="2.99878">
        <ele>62.8</ele>
        <time>2022-05-21 13:34:38</time>
      </trkpt>
      <trkpt lat="42.36335" lon="2.99871">
        <ele>62.8</ele>
        <time>2022-05-21 13:34:39</time>
      </trkpt>
      <trkpt lat="42.36337" lon="2.99864">
        <ele>63</ele>
        <time>2022-05-21 13:34:40</time>
      </trkpt>
      <trkpt lat="42.36338" lon="2.99857">
        <ele>63</ele>
        <time>2022-05-21 13:34:41</time>
      </trkpt>
      <trkpt lat="42.36338" lon="2.99849">
        <ele>63.2</ele>
        <time>2022-05-21 13:34:42</time>
      </trkpt>
      <trkpt lat="42.36338" lon="2.99842">
        <ele>63.2</ele>
        <time>2022-05-21 13:34:43</time>
      </trkpt>
      <trkpt lat="42.36338" lon="2.99834">
        <ele>63.2</ele>
        <time>2022-05-21 13:34:44</time>
      </trkpt>
      <trkpt lat="42.36338" lon="2.99827">
        <ele>63.4</ele>
        <time>2022-05-21 13:34:45</time>
      </trkpt>
      <trkpt lat="42.36337" lon="2.9982">
        <ele>63.4</ele>
        <time>2022-05-21 13:34:46</time>
      </trkpt>
      <trkpt lat="42.36336" lon="2.99812">
        <ele>63.4</ele>
        <time>2022-05-21 13:34:47</time>
      </trkpt>
      <trkpt lat="42.36335" lon="2.99806">
        <ele>63.4</ele>
        <time>2022-05-21 13:34:48</time>
      </trkpt>
      <trkpt lat="42.36334" lon="2.99801">
        <ele>63.4</ele>
        <time>2022-05-21 13:34:49</time>
      </trkpt>
      <trkpt lat="42.36332" lon="2.9979">
        <ele>63.2</ele>
        <time>2022-05-21 13:34:50</time>
      </trkpt>
      <trkpt lat="42.36331" lon="2.99782">
        <ele>63.2</ele>
        <time>2022-05-21 13:34:51</time>
      </trkpt>
      <trkpt lat="42.3633" lon="2.99774">
        <ele>63.2</ele>
        <time>2022-05-21 13:34:52</time>
      </trkpt>
      <trkpt lat="42.36328" lon="2.99767">
        <ele>63.2</ele>
        <time>2022-05-21 13:34:53</time>
      </trkpt>
      <trkpt lat="42.36327" lon="2.9976">
        <ele>63.2</ele>
        <time>2022-05-21 13:34:54</time>
      </trkpt>
      <trkpt lat="42.36325" lon="2.99753">
        <ele>63</ele>
        <time>2022-05-21 13:34:55</time>
      </trkpt>
      <trkpt lat="42.36323" lon="2.99746">
        <ele>63</ele>
        <time>2022-05-21 13:34:56</time>
      </trkpt>
      <trkpt lat="42.3632" lon="2.99739">
        <ele>63</ele>
        <time>2022-05-21 13:34:57</time>
      </trkpt>
      <trkpt lat="42.36318" lon="2.99732">
        <ele>63</ele>
        <time>2022-05-21 13:34:58</time>
      </trkpt>
      <trkpt lat="42.36314" lon="2.99726">
        <ele>62.8</ele>
        <time>2022-05-21 13:34:59</time>
      </trkpt>
      <trkpt lat="42.3631" lon="2.9972">
        <ele>62.8</ele>
        <time>2022-05-21 13:35:00</time>
      </trkpt>
      <trkpt lat="42.36306" lon="2.99714">
        <ele>62.8</ele>
        <time>2022-05-21 13:35:01</time>
      </trkpt>
      <trkpt lat="42.36302" lon="2.99709">
        <ele>62.8</ele>
        <time>2022-05-21 13:35:02</time>
      </trkpt>
      <trkpt lat="42.36297" lon="2.99704">
        <ele>62.6</ele>
        <time>2022-05-21 13:35:03</time>
      </trkpt>
      <trkpt lat="42.36292" lon="2.997">
        <ele>62.6</ele>
        <time>2022-05-21 13:35:04</time>
      </trkpt>
      <trkpt lat="42.36286" lon="2.99696">
        <ele>62.4</ele>
        <time>2022-05-21 13:35:05</time>
      </trkpt>
      <trkpt lat="42.3628" lon="2.99692">
        <ele>62.4</ele>
        <time>2022-05-21 13:35:06</time>
      </trkpt>
      <trkpt lat="42.36274" lon="2.99689">
        <ele>62.4</ele>
        <time>2022-05-21 13:35:07</time>
      </trkpt>
      <trkpt lat="42.36268" lon="2.99686">
        <ele>62.4</ele>
        <time>2022-05-21 13:35:08</time>
      </trkpt>
      <trkpt lat="42.36262" lon="2.99683">
        <ele>62.4</ele>
        <time>2022-05-21 13:35:09</time>
      </trkpt>
      <trkpt lat="42.36256" lon="2.99679">
        <ele>62.2</ele>
        <time>2022-05-21 13:35:10</time>
      </trkpt>
      <trkpt lat="42.36251" lon="2.99675">
        <ele>62.2</ele>
        <time>2022-05-21 13:35:11</time>
      </trkpt>
      <trkpt lat="42.36246" lon="2.99669">
        <ele>62.2</ele>
        <time>2022-05-21 13:35:12</time>
      </trkpt>
      <trkpt lat="42.36244" lon="2.99662">
        <ele>62</ele>
        <time>2022-05-21 13:35:13</time>
      </trkpt>
      <trkpt lat="42.36243" lon="2.99654">
        <ele>62</ele>
        <time>2022-05-21 13:35:14</time>
      </trkpt>
      <trkpt lat="42.36244" lon="2.99646">
        <ele>62</ele>
        <time>2022-05-21 13:35:15</time>
      </trkpt>
      <trkpt lat="42.36247" lon="2.99639">
        <ele>62</ele>
        <time>2022-05-21 13:35:16</time>
      </trkpt>
      <trkpt lat="42.3625" lon="2.99633">
        <ele>62</ele>
        <time>2022-05-21 13:35:17</time>
      </trkpt>
      <trkpt lat="42.36254" lon="2.99626">
        <ele>62</ele>
        <time>2022-05-21 13:35:18</time>
      </trkpt>
      <trkpt lat="42.36257" lon="2.9962">
        <ele>62.2</ele>
        <time>2022-05-21 13:35:19</time>
      </trkpt>
      <trkpt lat="42.3626" lon="2.99614">
        <ele>62.4</ele>
        <time>2022-05-21 13:35:20</time>
      </trkpt>
      <trkpt lat="42.36264" lon="2.99607">
        <ele>62.4</ele>
        <time>2022-05-21 13:35:21</time>
      </trkpt>
      <trkpt lat="42.36266" lon="2.99601">
        <ele>62.6</ele>
        <time>2022-05-21 13:35:22</time>
      </trkpt>
      <trkpt lat="42.3627" lon="2.99595">
        <ele>62.6</ele>
        <time>2022-05-21 13:35:23</time>
      </trkpt>
      <trkpt lat="42.36273" lon="2.99589">
        <ele>62.8</ele>
        <time>2022-05-21 13:35:24</time>
      </trkpt>
      <trkpt lat="42.36276" lon="2.99582">
        <ele>63</ele>
        <time>2022-05-21 13:35:25</time>
      </trkpt>
      <trkpt lat="42.36278" lon="2.99576">
        <ele>63</ele>
        <time>2022-05-21 13:35:26</time>
      </trkpt>
      <trkpt lat="42.36281" lon="2.9957">
        <ele>63.2</ele>
        <time>2022-05-21 13:35:27</time>
      </trkpt>
      <trkpt lat="42.36284" lon="2.99564">
        <ele>63.4</ele>
        <time>2022-05-21 13:35:28</time>
      </trkpt>
      <trkpt lat="42.36287" lon="2.99558">
        <ele>63.4</ele>
        <time>2022-05-21 13:35:29</time>
      </trkpt>
      <trkpt lat="42.3629" lon="2.99553">
        <ele>63.6</ele>
        <time>2022-05-21 13:35:30</time>
      </trkpt>
      <trkpt lat="42.36293" lon="2.99547">
        <ele>63.8</ele>
        <time>2022-05-21 13:35:31</time>
      </trkpt>
      <trkpt lat="42.36296" lon="2.99542">
        <ele>64</ele>
        <time>2022-05-21 13:35:32</time>
      </trkpt>
      <trkpt lat="42.36299" lon="2.99537">
        <ele>64.2</ele>
        <time>2022-05-21 13:35:33</time>
      </trkpt>
      <trkpt lat="42.36302" lon="2.99532">
        <ele>64.2</ele>
        <time>2022-05-21 13:35:34</time>
      </trkpt>
      <trkpt lat="42.36305" lon="2.99528">
        <ele>64.4</ele>
        <time>2022-05-21 13:35:35</time>
      </trkpt>
      <trkpt lat="42.36309" lon="2.99523">
        <ele>64.6</ele>
        <time>2022-05-21 13:35:36</time>
      </trkpt>
      <trkpt lat="42.36312" lon="2.99518">
        <ele>64.6</ele>
        <time>2022-05-21 13:35:37</time>
      </trkpt>
      <trkpt lat="42.36315" lon="2.99513">
        <ele>64.8</ele>
        <time>2022-05-21 13:35:38</time>
      </trkpt>
      <trkpt lat="42.36319" lon="2.99508">
        <ele>64.8</ele>
        <time>2022-05-21 13:35:39</time>
      </trkpt>
      <trkpt lat="42.36322" lon="2.99503">
        <ele>64.8</ele>
        <time>2022-05-21 13:35:40</time>
      </trkpt>
      <trkpt lat="42.36326" lon="2.99498">
        <ele>64.8</ele>
        <time>2022-05-21 13:35:41</time>
      </trkpt>
      <trkpt lat="42.36329" lon="2.99493">
        <ele>65</ele>
        <time>2022-05-21 13:35:42</time>
      </trkpt>
      <trkpt lat="42.36333" lon="2.99488">
        <ele>65</ele>
        <time>2022-05-21 13:35:43</time>
      </trkpt>
      <trkpt lat="42.36337" lon="2.99483">
        <ele>65</ele>
        <time>2022-05-21 13:35:44</time>
      </trkpt>
      <trkpt lat="42.3634" lon="2.99477">
        <ele>65.2</ele>
        <time>2022-05-21 13:35:45</time>
      </trkpt>
      <trkpt lat="42.36343" lon="2.99472">
        <ele>65.2</ele>
        <time>2022-05-21 13:35:46</time>
      </trkpt>
      <trkpt lat="42.36347" lon="2.99466">
        <ele>65.4</ele>
        <time>2022-05-21 13:35:47</time>
      </trkpt>
      <trkpt lat="42.3635" lon="2.9946">
        <ele>65.4</ele>
        <time>2022-05-21 13:35:48</time>
      </trkpt>
      <trkpt lat="42.36353" lon="2.99454">
        <ele>65.4</ele>
        <time>2022-05-21 13:35:49</time>
      </trkpt>
      <trkpt lat="42.36356" lon="2.99448">
        <ele>65.6</ele>
        <time>2022-05-21 13:35:50</time>
      </trkpt>
      <trkpt lat="42.3636" lon="2.99441">
        <ele>65.6</ele>
        <time>2022-05-21 13:35:51</time>
      </trkpt>
      <trkpt lat="42.36363" lon="2.99435">
        <ele>65.6</ele>
        <time>2022-05-21 13:35:52</time>
      </trkpt>
      <trkpt lat="42.36366" lon="2.99429">
        <ele>65.8</ele>
        <time>2022-05-21 13:35:53</time>
      </trkpt>
      <trkpt lat="42.36368" lon="2.99422">
        <ele>65.8</ele>
        <time>2022-05-21 13:35:54</time>
      </trkpt>
      <trkpt lat="42.36371" lon="2.99416">
        <ele>65.8</ele>
        <time>2022-05-21 13:35:55</time>
      </trkpt>
      <trkpt lat="42.36375" lon="2.9941">
        <ele>66</ele>
        <time>2022-05-21 13:35:56</time>
      </trkpt>
      <trkpt lat="42.36378" lon="2.99404">
        <ele>66</ele>
        <time>2022-05-21 13:35:57</time>
      </trkpt>
      <trkpt lat="42.36381" lon="2.99398">
        <ele>66.2</ele>
        <time>2022-05-21 13:35:58</time>
      </trkpt>
      <trkpt lat="42.36384" lon="2.99392">
        <ele>66.2</ele>
        <time>2022-05-21 13:35:59</time>
      </trkpt>
      <trkpt lat="42.36387" lon="2.99386">
        <ele>66.4</ele>
        <time>2022-05-21 13:36:00</time>
      </trkpt>
      <trkpt lat="42.3639" lon="2.9938">
        <ele>66.4</ele>
        <time>2022-05-21 13:36:01</time>
      </trkpt>
      <trkpt lat="42.36393" lon="2.99374">
        <ele>66.6</ele>
        <time>2022-05-21 13:36:02</time>
      </trkpt>
      <trkpt lat="42.36396" lon="2.99368">
        <ele>66.6</ele>
        <time>2022-05-21 13:36:03</time>
      </trkpt>
      <trkpt lat="42.36398" lon="2.99363">
        <ele>66.8</ele>
        <time>2022-05-21 13:36:04</time>
      </trkpt>
      <trkpt lat="42.36401" lon="2.99357">
        <ele>66.8</ele>
        <time>2022-05-21 13:36:05</time>
      </trkpt>
      <trkpt lat="42.36404" lon="2.99351">
        <ele>67</ele>
        <time>2022-05-21 13:36:06</time>
      </trkpt>
      <trkpt lat="42.36406" lon="2.99345">
        <ele>67.2</ele>
        <time>2022-05-21 13:36:07</time>
      </trkpt>
      <trkpt lat="42.36409" lon="2.99338">
        <ele>67.2</ele>
        <time>2022-05-21 13:36:08</time>
      </trkpt>
      <trkpt lat="42.36412" lon="2.99332">
        <ele>67.4</ele>
        <time>2022-05-21 13:36:09</time>
      </trkpt>
      <trkpt lat="42.36414" lon="2.99326">
        <ele>67.4</ele>
        <time>2022-05-21 13:36:10</time>
      </trkpt>
      <trkpt lat="42.36417" lon="2.9932">
        <ele>67.6</ele>
        <time>2022-05-21 13:36:11</time>
      </trkpt>
      <trkpt lat="42.36419" lon="2.99314">
        <ele>67.6</ele>
        <time>2022-05-21 13:36:12</time>
      </trkpt>
      <trkpt lat="42.36422" lon="2.99309">
        <ele>67.8</ele>
        <time>2022-05-21 13:36:13</time>
      </trkpt>
      <trkpt lat="42.36425" lon="2.99303">
        <ele>68</ele>
        <time>2022-05-21 13:36:14</time>
      </trkpt>
      <trkpt lat="42.36428" lon="2.99297">
        <ele>68</ele>
        <time>2022-05-21 13:36:15</time>
      </trkpt>
      <trkpt lat="42.36431" lon="2.99292">
        <ele>68.2</ele>
        <time>2022-05-21 13:36:16</time>
      </trkpt>
      <trkpt lat="42.36434" lon="2.99287">
        <ele>68.2</ele>
        <time>2022-05-21 13:36:17</time>
      </trkpt>
      <trkpt lat="42.36437" lon="2.99281">
        <ele>68.4</ele>
        <time>2022-05-21 13:36:18</time>
      </trkpt>
      <trkpt lat="42.3644" lon="2.99276">
        <ele>68.6</ele>
        <time>2022-05-21 13:36:19</time>
      </trkpt>
      <trkpt lat="42.36443" lon="2.99271">
        <ele>68.8</ele>
        <time>2022-05-21 13:36:20</time>
      </trkpt>
      <trkpt lat="42.36446" lon="2.99266">
        <ele>68.8</ele>
        <time>2022-05-21 13:36:21</time>
      </trkpt>
      <trkpt lat="42.36449" lon="2.99261">
        <ele>69</ele>
        <time>2022-05-21 13:36:22</time>
      </trkpt>
      <trkpt lat="42.36452" lon="2.99256">
        <ele>69.2</ele>
        <time>2022-05-21 13:36:23</time>
      </trkpt>
      <trkpt lat="42.36454" lon="2.99251">
        <ele>69.2</ele>
        <time>2022-05-21 13:36:24</time>
      </trkpt>
      <trkpt lat="42.36457" lon="2.99246">
        <ele>69.4</ele>
        <time>2022-05-21 13:36:25</time>
      </trkpt>
      <trkpt lat="42.3646" lon="2.99242">
        <ele>69.6</ele>
        <time>2022-05-21 13:36:26</time>
      </trkpt>
      <trkpt lat="42.36463" lon="2.99237">
        <ele>69.6</ele>
        <time>2022-05-21 13:36:27</time>
      </trkpt>
      <trkpt lat="42.36465" lon="2.99232">
        <ele>69.8</ele>
        <time>2022-05-21 13:36:28</time>
      </trkpt>
      <trkpt lat="42.36467" lon="2.99228">
        <ele>70</ele>
        <time>2022-05-21 13:36:29</time>
      </trkpt>
      <trkpt lat="42.36469" lon="2.99223">
        <ele>70</ele>
        <time>2022-05-21 13:36:30</time>
      </trkpt>
      <trkpt lat="42.36471" lon="2.99219">
        <ele>70.2</ele>
        <time>2022-05-21 13:36:31</time>
      </trkpt>
      <trkpt lat="42.36473" lon="2.99215">
        <ele>70.4</ele>
        <time>2022-05-21 13:36:32</time>
      </trkpt>
      <trkpt lat="42.36476" lon="2.9921">
        <ele>70.6</ele>
        <time>2022-05-21 13:36:33</time>
      </trkpt>
      <trkpt lat="42.36477" lon="2.99206">
        <ele>70.8</ele>
        <time>2022-05-21 13:36:34</time>
      </trkpt>
      <trkpt lat="42.36479" lon="2.99201">
        <ele>71</ele>
        <time>2022-05-21 13:36:35</time>
      </trkpt>
      <trkpt lat="42.36481" lon="2.99196">
        <ele>71.2</ele>
        <time>2022-05-21 13:36:36</time>
      </trkpt>
      <trkpt lat="42.36482" lon="2.9919">
        <ele>71.2</ele>
        <time>2022-05-21 13:36:37</time>
      </trkpt>
      <trkpt lat="42.36483" lon="2.99185">
        <ele>71.6</ele>
        <time>2022-05-21 13:36:38</time>
      </trkpt>
      <trkpt lat="42.36484" lon="2.99179">
        <ele>71.6</ele>
        <time>2022-05-21 13:36:39</time>
      </trkpt>
      <trkpt lat="42.36484" lon="2.99174">
        <ele>71.8</ele>
        <time>2022-05-21 13:36:40</time>
      </trkpt>
      <trkpt lat="42.36484" lon="2.99169">
        <ele>72</ele>
        <time>2022-05-21 13:36:41</time>
      </trkpt>
      <trkpt lat="42.36483" lon="2.99164">
        <ele>72</ele>
        <time>2022-05-21 13:36:42</time>
      </trkpt>
      <trkpt lat="42.36482" lon="2.99159">
        <ele>72.2</ele>
        <time>2022-05-21 13:36:43</time>
      </trkpt>
      <trkpt lat="42.36481" lon="2.99154">
        <ele>72.4</ele>
        <time>2022-05-21 13:36:44</time>
      </trkpt>
      <trkpt lat="42.3648" lon="2.99149">
        <ele>72.6</ele>
        <time>2022-05-21 13:36:45</time>
      </trkpt>
      <trkpt lat="42.36479" lon="2.99145">
        <ele>72.6</ele>
        <time>2022-05-21 13:36:46</time>
      </trkpt>
      <trkpt lat="42.36478" lon="2.99141">
        <ele>72.8</ele>
        <time>2022-05-21 13:36:47</time>
      </trkpt>
      <trkpt lat="42.36477" lon="2.99138">
        <ele>73</ele>
        <time>2022-05-21 13:36:48</time>
      </trkpt>
      <trkpt lat="42.36476" lon="2.99134">
        <ele>73.2</ele>
        <time>2022-05-21 13:36:49</time>
      </trkpt>
      <trkpt lat="42.36476" lon="2.99131">
        <ele>73.4</ele>
        <time>2022-05-21 13:36:50</time>
      </trkpt>
      <trkpt lat="42.36475" lon="2.99128">
        <ele>73.6</ele>
        <time>2022-05-21 13:36:51</time>
      </trkpt>
      <trkpt lat="42.36475" lon="2.99125">
        <ele>73.8</ele>
        <time>2022-05-21 13:36:52</time>
      </trkpt>
      <trkpt lat="42.36474" lon="2.99122">
        <ele>74</ele>
        <time>2022-05-21 13:36:53</time>
      </trkpt>
      <trkpt lat="42.36474" lon="2.99119">
        <ele>74.2</ele>
        <time>2022-05-21 13:36:54</time>
      </trkpt>
      <trkpt lat="42.36473" lon="2.99117">
        <ele>74.4</ele>
        <time>2022-05-21 13:36:55</time>
      </trkpt>
      <trkpt lat="42.36473" lon="2.99114">
        <ele>74.4</ele>
        <time>2022-05-21 13:36:56</time>
      </trkpt>
      <trkpt lat="42.36473" lon="2.99111">
        <ele>74.6</ele>
        <time>2022-05-21 13:36:57</time>
      </trkpt>
      <trkpt lat="42.36473" lon="2.99108">
        <ele>74.8</ele>
        <time>2022-05-21 13:36:58</time>
      </trkpt>
      <trkpt lat="42.36472" lon="2.99105">
        <ele>75</ele>
        <time>2022-05-21 13:36:59</time>
      </trkpt>
      <trkpt lat="42.36472" lon="2.99102">
        <ele>75.2</ele>
        <time>2022-05-21 13:37:00</time>
      </trkpt>
      <trkpt lat="42.36472" lon="2.99099">
        <ele>75.4</ele>
        <time>2022-05-21 13:37:01</time>
      </trkpt>
      <trkpt lat="42.36472" lon="2.99095">
        <ele>75.6</ele>
        <time>2022-05-21 13:37:02</time>
      </trkpt>
      <trkpt lat="42.36471" lon="2.99092">
        <ele>75.8</ele>
        <time>2022-05-21 13:37:03</time>
      </trkpt>
      <trkpt lat="42.3647" lon="2.9909">
        <ele>76</ele>
        <time>2022-05-21 13:37:04</time>
      </trkpt>
      <trkpt lat="42.36469" lon="2.99086">
        <ele>76.2</ele>
        <time>2022-05-21 13:37:05</time>
      </trkpt>
      <trkpt lat="42.36469" lon="2.99083">
        <ele>76.4</ele>
        <time>2022-05-21 13:37:06</time>
      </trkpt>
      <trkpt lat="42.36469" lon="2.99079">
        <ele>76.6</ele>
        <time>2022-05-21 13:37:07</time>
      </trkpt>
      <trkpt lat="42.36468" lon="2.99075">
        <ele>76.8</ele>
        <time>2022-05-21 13:37:08</time>
      </trkpt>
      <trkpt lat="42.36467" lon="2.99071">
        <ele>77</ele>
        <time>2022-05-21 13:37:09</time>
      </trkpt>
      <trkpt lat="42.36467" lon="2.99068">
        <ele>77.2</ele>
        <time>2022-05-21 13:37:10</time>
      </trkpt>
      <trkpt lat="42.36467" lon="2.99064">
        <ele>77.4</ele>
        <time>2022-05-21 13:37:11</time>
      </trkpt>
      <trkpt lat="42.36467" lon="2.99061">
        <ele>77.6</ele>
        <time>2022-05-21 13:37:12</time>
      </trkpt>
      <trkpt lat="42.36467" lon="2.99057">
        <ele>77.8</ele>
        <time>2022-05-21 13:37:13</time>
      </trkpt>
      <trkpt lat="42.36467" lon="2.99054">
        <ele>78</ele>
        <time>2022-05-21 13:37:14</time>
      </trkpt>
      <trkpt lat="42.36467" lon="2.99051">
        <ele>78.2</ele>
        <time>2022-05-21 13:37:15</time>
      </trkpt>
      <trkpt lat="42.36468" lon="2.99048">
        <ele>78.4</ele>
        <time>2022-05-21 13:37:16</time>
      </trkpt>
      <trkpt lat="42.36469" lon="2.99044">
        <ele>78.6</ele>
        <time>2022-05-21 13:37:17</time>
      </trkpt>
      <trkpt lat="42.3647" lon="2.9904">
        <ele>79</ele>
        <time>2022-05-21 13:37:18</time>
      </trkpt>
      <trkpt lat="42.36472" lon="2.99037">
        <ele>79.2</ele>
        <time>2022-05-21 13:37:19</time>
      </trkpt>
      <trkpt lat="42.36473" lon="2.99033">
        <ele>79.4</ele>
        <time>2022-05-21 13:37:20</time>
      </trkpt>
      <trkpt lat="42.36474" lon="2.99029">
        <ele>79.6</ele>
        <time>2022-05-21 13:37:21</time>
      </trkpt>
      <trkpt lat="42.36475" lon="2.99025">
        <ele>79.8</ele>
        <time>2022-05-21 13:37:22</time>
      </trkpt>
      <trkpt lat="42.36475" lon="2.99021">
        <ele>80</ele>
        <time>2022-05-21 13:37:23</time>
      </trkpt>
      <trkpt lat="42.36476" lon="2.99017">
        <ele>80.2</ele>
        <time>2022-05-21 13:37:24</time>
      </trkpt>
      <trkpt lat="42.36476" lon="2.99014">
        <ele>80.4</ele>
        <time>2022-05-21 13:37:25</time>
      </trkpt>
      <trkpt lat="42.36477" lon="2.99011">
        <ele>80.6</ele>
        <time>2022-05-21 13:37:26</time>
      </trkpt>
      <trkpt lat="42.36478" lon="2.99008">
        <ele>80.8</ele>
        <time>2022-05-21 13:37:27</time>
      </trkpt>
      <trkpt lat="42.36479" lon="2.99005">
        <ele>81.2</ele>
        <time>2022-05-21 13:37:28</time>
      </trkpt>
      <trkpt lat="42.3648" lon="2.99002">
        <ele>81.4</ele>
        <time>2022-05-21 13:37:29</time>
      </trkpt>
      <trkpt lat="42.36481" lon="2.98999">
        <ele>81.6</ele>
        <time>2022-05-21 13:37:30</time>
      </trkpt>
      <trkpt lat="42.36482" lon="2.98996">
        <ele>81.8</ele>
        <time>2022-05-21 13:37:31</time>
      </trkpt>
      <trkpt lat="42.36483" lon="2.98994">
        <ele>82</ele>
        <time>2022-05-21 13:37:32</time>
      </trkpt>
      <trkpt lat="42.36484" lon="2.98991">
        <ele>82.2</ele>
        <time>2022-05-21 13:37:33</time>
      </trkpt>
      <trkpt lat="42.36486" lon="2.98988">
        <ele>82.4</ele>
        <time>2022-05-21 13:37:34</time>
      </trkpt>
      <trkpt lat="42.36487" lon="2.98986">
        <ele>82.6</ele>
        <time>2022-05-21 13:37:35</time>
      </trkpt>
      <trkpt lat="42.36488" lon="2.98983">
        <ele>82.8</ele>
        <time>2022-05-21 13:37:36</time>
      </trkpt>
      <trkpt lat="42.3649" lon="2.9898">
        <ele>83</ele>
        <time>2022-05-21 13:37:37</time>
      </trkpt>
      <trkpt lat="42.36491" lon="2.98978">
        <ele>83.2</ele>
        <time>2022-05-21 13:37:38</time>
      </trkpt>
      <trkpt lat="42.36492" lon="2.98975">
        <ele>83.4</ele>
        <time>2022-05-21 13:37:39</time>
      </trkpt>
      <trkpt lat="42.36493" lon="2.98972">
        <ele>83.6</ele>
        <time>2022-05-21 13:37:40</time>
      </trkpt>
      <trkpt lat="42.36494" lon="2.98969">
        <ele>83.8</ele>
        <time>2022-05-21 13:37:41</time>
      </trkpt>
      <trkpt lat="42.36496" lon="2.98967">
        <ele>84</ele>
        <time>2022-05-21 13:37:42</time>
      </trkpt>
      <trkpt lat="42.36497" lon="2.98964">
        <ele>84.2</ele>
        <time>2022-05-21 13:37:43</time>
      </trkpt>
      <trkpt lat="42.36499" lon="2.98961">
        <ele>84.4</ele>
        <time>2022-05-21 13:37:44</time>
      </trkpt>
      <trkpt lat="42.365" lon="2.98959">
        <ele>84.6</ele>
        <time>2022-05-21 13:37:45</time>
      </trkpt>
      <trkpt lat="42.36502" lon="2.98956">
        <ele>84.8</ele>
        <time>2022-05-21 13:37:46</time>
      </trkpt>
      <trkpt lat="42.36503" lon="2.98953">
        <ele>85</ele>
        <time>2022-05-21 13:37:47</time>
      </trkpt>
      <trkpt lat="42.36505" lon="2.98951">
        <ele>85.2</ele>
        <time>2022-05-21 13:37:48</time>
      </trkpt>
      <trkpt lat="42.36506" lon="2.98948">
        <ele>85.4</ele>
        <time>2022-05-21 13:37:49</time>
      </trkpt>
      <trkpt lat="42.36508" lon="2.98946">
        <ele>85.6</ele>
        <time>2022-05-21 13:37:50</time>
      </trkpt>
      <trkpt lat="42.36509" lon="2.98943">
        <ele>85.8</ele>
        <time>2022-05-21 13:37:51</time>
      </trkpt>
      <trkpt lat="42.3651" lon="2.9894">
        <ele>86</ele>
        <time>2022-05-21 13:37:52</time>
      </trkpt>
      <trkpt lat="42.36512" lon="2.98937">
        <ele>86.2</ele>
        <time>2022-05-21 13:37:53</time>
      </trkpt>
      <trkpt lat="42.36513" lon="2.98935">
        <ele>86.2</ele>
        <time>2022-05-21 13:37:54</time>
      </trkpt>
      <trkpt lat="42.36515" lon="2.98932">
        <ele>86.4</ele>
        <time>2022-05-21 13:37:55</time>
      </trkpt>
      <trkpt lat="42.36517" lon="2.98929">
        <ele>86.6</ele>
        <time>2022-05-21 13:37:56</time>
      </trkpt>
      <trkpt lat="42.36518" lon="2.98926">
        <ele>86.8</ele>
        <time>2022-05-21 13:37:57</time>
      </trkpt>
      <trkpt lat="42.3652" lon="2.98924">
        <ele>87</ele>
        <time>2022-05-21 13:37:58</time>
      </trkpt>
      <trkpt lat="42.36521" lon="2.98921">
        <ele>87</ele>
        <time>2022-05-21 13:37:59</time>
      </trkpt>
      <trkpt lat="42.36522" lon="2.98918">
        <ele>87.2</ele>
        <time>2022-05-21 13:38:00</time>
      </trkpt>
      <trkpt lat="42.36524" lon="2.98915">
        <ele>87.4</ele>
        <time>2022-05-21 13:38:01</time>
      </trkpt>
      <trkpt lat="42.36525" lon="2.98912">
        <ele>87.4</ele>
        <time>2022-05-21 13:38:02</time>
      </trkpt>
      <trkpt lat="42.36527" lon="2.9891">
        <ele>87.6</ele>
        <time>2022-05-21 13:38:03</time>
      </trkpt>
      <trkpt lat="42.36528" lon="2.98907">
        <ele>87.8</ele>
        <time>2022-05-21 13:38:04</time>
      </trkpt>
      <trkpt lat="42.3653" lon="2.98904">
        <ele>88</ele>
        <time>2022-05-21 13:38:05</time>
      </trkpt>
      <trkpt lat="42.36531" lon="2.98901">
        <ele>88</ele>
        <time>2022-05-21 13:38:06</time>
      </trkpt>
      <trkpt lat="42.36533" lon="2.98899">
        <ele>88.2</ele>
        <time>2022-05-21 13:38:07</time>
      </trkpt>
      <trkpt lat="42.36535" lon="2.98896">
        <ele>88.2</ele>
        <time>2022-05-21 13:38:08</time>
      </trkpt>
      <trkpt lat="42.36536" lon="2.98893">
        <ele>88.4</ele>
        <time>2022-05-21 13:38:09</time>
      </trkpt>
      <trkpt lat="42.36538" lon="2.98891">
        <ele>88.6</ele>
        <time>2022-05-21 13:38:10</time>
      </trkpt>
      <trkpt lat="42.36538" lon="2.98889">
        <ele>88.8</ele>
        <time>2022-05-21 13:38:11</time>
      </trkpt>
      <trkpt lat="42.36541" lon="2.98885">
        <ele>89</ele>
        <time>2022-05-21 13:38:12</time>
      </trkpt>
      <trkpt lat="42.36542" lon="2.98882">
        <ele>89.2</ele>
        <time>2022-05-21 13:38:13</time>
      </trkpt>
      <trkpt lat="42.36544" lon="2.9888">
        <ele>89.4</ele>
        <time>2022-05-21 13:38:14</time>
      </trkpt>
      <trkpt lat="42.36546" lon="2.98877">
        <ele>89.4</ele>
        <time>2022-05-21 13:38:15</time>
      </trkpt>
      <trkpt lat="42.36547" lon="2.98874">
        <ele>89.6</ele>
        <time>2022-05-21 13:38:16</time>
      </trkpt>
      <trkpt lat="42.36549" lon="2.98871">
        <ele>89.8</ele>
        <time>2022-05-21 13:38:17</time>
      </trkpt>
      <trkpt lat="42.3655" lon="2.98869">
        <ele>90</ele>
        <time>2022-05-21 13:38:18</time>
      </trkpt>
      <trkpt lat="42.36552" lon="2.98866">
        <ele>90.2</ele>
        <time>2022-05-21 13:38:19</time>
      </trkpt>
      <trkpt lat="42.36554" lon="2.98863">
        <ele>90.4</ele>
        <time>2022-05-21 13:38:20</time>
      </trkpt>
      <trkpt lat="42.36555" lon="2.98861">
        <ele>90.4</ele>
        <time>2022-05-21 13:38:21</time>
      </trkpt>
      <trkpt lat="42.36557" lon="2.98858">
        <ele>90.6</ele>
        <time>2022-05-21 13:38:22</time>
      </trkpt>
      <trkpt lat="42.36558" lon="2.98855">
        <ele>90.8</ele>
        <time>2022-05-21 13:38:23</time>
      </trkpt>
      <trkpt lat="42.3656" lon="2.98852">
        <ele>90.8</ele>
        <time>2022-05-21 13:38:24</time>
      </trkpt>
      <trkpt lat="42.36561" lon="2.98849">
        <ele>91</ele>
        <time>2022-05-21 13:38:25</time>
      </trkpt>
      <trkpt lat="42.36563" lon="2.98846">
        <ele>91.2</ele>
        <time>2022-05-21 13:38:26</time>
      </trkpt>
      <trkpt lat="42.36565" lon="2.98844">
        <ele>91.4</ele>
        <time>2022-05-21 13:38:27</time>
      </trkpt>
      <trkpt lat="42.36567" lon="2.98841">
        <ele>91.4</ele>
        <time>2022-05-21 13:38:28</time>
      </trkpt>
      <trkpt lat="42.36568" lon="2.98838">
        <ele>91.6</ele>
        <time>2022-05-21 13:38:29</time>
      </trkpt>
      <trkpt lat="42.36569" lon="2.98835">
        <ele>91.8</ele>
        <time>2022-05-21 13:38:30</time>
      </trkpt>
      <trkpt lat="42.36571" lon="2.98833">
        <ele>91.8</ele>
        <time>2022-05-21 13:38:31</time>
      </trkpt>
      <trkpt lat="42.36573" lon="2.9883">
        <ele>92</ele>
        <time>2022-05-21 13:38:32</time>
      </trkpt>
      <trkpt lat="42.36575" lon="2.98827">
        <ele>92.2</ele>
        <time>2022-05-21 13:38:33</time>
      </trkpt>
      <trkpt lat="42.36576" lon="2.98825">
        <ele>92.4</ele>
        <time>2022-05-21 13:38:34</time>
      </trkpt>
      <trkpt lat="42.36578" lon="2.98822">
        <ele>92.4</ele>
        <time>2022-05-21 13:38:35</time>
      </trkpt>
      <trkpt lat="42.36579" lon="2.98819">
        <ele>92.6</ele>
        <time>2022-05-21 13:38:36</time>
      </trkpt>
      <trkpt lat="42.36581" lon="2.98816">
        <ele>92.8</ele>
        <time>2022-05-21 13:38:37</time>
      </trkpt>
      <trkpt lat="42.36582" lon="2.98813">
        <ele>93</ele>
        <time>2022-05-21 13:38:38</time>
      </trkpt>
      <trkpt lat="42.36584" lon="2.9881">
        <ele>93</ele>
        <time>2022-05-21 13:38:39</time>
      </trkpt>
      <trkpt lat="42.36586" lon="2.98808">
        <ele>93.2</ele>
        <time>2022-05-21 13:38:40</time>
      </trkpt>
      <trkpt lat="42.36588" lon="2.98805">
        <ele>93.4</ele>
        <time>2022-05-21 13:38:41</time>
      </trkpt>
      <trkpt lat="42.3659" lon="2.98802">
        <ele>93.6</ele>
        <time>2022-05-21 13:38:42</time>
      </trkpt>
      <trkpt lat="42.36592" lon="2.988">
        <ele>93.8</ele>
        <time>2022-05-21 13:38:43</time>
      </trkpt>
      <trkpt lat="42.36593" lon="2.98797">
        <ele>93.8</ele>
        <time>2022-05-21 13:38:44</time>
      </trkpt>
      <trkpt lat="42.36595" lon="2.98794">
        <ele>94</ele>
        <time>2022-05-21 13:38:45</time>
      </trkpt>
      <trkpt lat="42.36598" lon="2.98792">
        <ele>94</ele>
        <time>2022-05-21 13:38:46</time>
      </trkpt>
      <trkpt lat="42.366" lon="2.98789">
        <ele>94</ele>
        <time>2022-05-21 13:38:47</time>
      </trkpt>
      <trkpt lat="42.36602" lon="2.98786">
        <ele>94.2</ele>
        <time>2022-05-21 13:38:48</time>
      </trkpt>
      <trkpt lat="42.36604" lon="2.98783">
        <ele>94.2</ele>
        <time>2022-05-21 13:38:49</time>
      </trkpt>
      <trkpt lat="42.36607" lon="2.98779">
        <ele>94.2</ele>
        <time>2022-05-21 13:38:50</time>
      </trkpt>
      <trkpt lat="42.36609" lon="2.98776">
        <ele>94.2</ele>
        <time>2022-05-21 13:38:51</time>
      </trkpt>
      <trkpt lat="42.36611" lon="2.98773">
        <ele>94.4</ele>
        <time>2022-05-21 13:38:52</time>
      </trkpt>
      <trkpt lat="42.36614" lon="2.9877">
        <ele>94.4</ele>
        <time>2022-05-21 13:38:53</time>
      </trkpt>
      <trkpt lat="42.36617" lon="2.98766">
        <ele>94.4</ele>
        <time>2022-05-21 13:38:54</time>
      </trkpt>
      <trkpt lat="42.3662" lon="2.98763">
        <ele>94.4</ele>
        <time>2022-05-21 13:38:55</time>
      </trkpt>
      <trkpt lat="42.36624" lon="2.9876">
        <ele>94.4</ele>
        <time>2022-05-21 13:38:56</time>
      </trkpt>
      <trkpt lat="42.36627" lon="2.98756">
        <ele>94.4</ele>
        <time>2022-05-21 13:38:57</time>
      </trkpt>
      <trkpt lat="42.36631" lon="2.98753">
        <ele>94.2</ele>
        <time>2022-05-21 13:38:58</time>
      </trkpt>
      <trkpt lat="42.36635" lon="2.98749">
        <ele>94.2</ele>
        <time>2022-05-21 13:38:59</time>
      </trkpt>
      <trkpt lat="42.36638" lon="2.98745">
        <ele>94.2</ele>
        <time>2022-05-21 13:39:00</time>
      </trkpt>
      <trkpt lat="42.36642" lon="2.98741">
        <ele>94.2</ele>
        <time>2022-05-21 13:39:01</time>
      </trkpt>
      <trkpt lat="42.36645" lon="2.98738">
        <ele>94.2</ele>
        <time>2022-05-21 13:39:02</time>
      </trkpt>
      <trkpt lat="42.36649" lon="2.98734">
        <ele>94.2</ele>
        <time>2022-05-21 13:39:03</time>
      </trkpt>
      <trkpt lat="42.36652" lon="2.9873">
        <ele>94.2</ele>
        <time>2022-05-21 13:39:04</time>
      </trkpt>
      <trkpt lat="42.36655" lon="2.98726">
        <ele>94.2</ele>
        <time>2022-05-21 13:39:05</time>
      </trkpt>
      <trkpt lat="42.36658" lon="2.98722">
        <ele>94.4</ele>
        <time>2022-05-21 13:39:06</time>
      </trkpt>
      <trkpt lat="42.36661" lon="2.98718">
        <ele>94.4</ele>
        <time>2022-05-21 13:39:07</time>
      </trkpt>
      <trkpt lat="42.36664" lon="2.98713">
        <ele>94.4</ele>
        <time>2022-05-21 13:39:08</time>
      </trkpt>
      <trkpt lat="42.36667" lon="2.98709">
        <ele>94.4</ele>
        <time>2022-05-21 13:39:09</time>
      </trkpt>
      <trkpt lat="42.3667" lon="2.98704">
        <ele>94.4</ele>
        <time>2022-05-21 13:39:10</time>
      </trkpt>
      <trkpt lat="42.36673" lon="2.98699">
        <ele>94.4</ele>
        <time>2022-05-21 13:39:11</time>
      </trkpt>
      <trkpt lat="42.36676" lon="2.98695">
        <ele>94.6</ele>
        <time>2022-05-21 13:39:12</time>
      </trkpt>
      <trkpt lat="42.36679" lon="2.9869">
        <ele>94.6</ele>
        <time>2022-05-21 13:39:13</time>
      </trkpt>
      <trkpt lat="42.36682" lon="2.98686">
        <ele>94.8</ele>
        <time>2022-05-21 13:39:14</time>
      </trkpt>
      <trkpt lat="42.36685" lon="2.98681">
        <ele>94.8</ele>
        <time>2022-05-21 13:39:15</time>
      </trkpt>
      <trkpt lat="42.36687" lon="2.98677">
        <ele>95</ele>
        <time>2022-05-21 13:39:16</time>
      </trkpt>
      <trkpt lat="42.3669" lon="2.98672">
        <ele>95.2</ele>
        <time>2022-05-21 13:39:17</time>
      </trkpt>
      <trkpt lat="42.36693" lon="2.98668">
        <ele>95.2</ele>
        <time>2022-05-21 13:39:18</time>
      </trkpt>
      <trkpt lat="42.36695" lon="2.98664">
        <ele>95.4</ele>
        <time>2022-05-21 13:39:19</time>
      </trkpt>
      <trkpt lat="42.36698" lon="2.9866">
        <ele>95.6</ele>
        <time>2022-05-21 13:39:20</time>
      </trkpt>
      <trkpt lat="42.36701" lon="2.98656">
        <ele>95.8</ele>
        <time>2022-05-21 13:39:21</time>
      </trkpt>
      <trkpt lat="42.36704" lon="2.98652">
        <ele>96</ele>
        <time>2022-05-21 13:39:22</time>
      </trkpt>
      <trkpt lat="42.36706" lon="2.98648">
        <ele>96.2</ele>
        <time>2022-05-21 13:39:23</time>
      </trkpt>
      <trkpt lat="42.36709" lon="2.98644">
        <ele>96.4</ele>
        <time>2022-05-21 13:39:24</time>
      </trkpt>
      <trkpt lat="42.36713" lon="2.9864">
        <ele>96.6</ele>
        <time>2022-05-21 13:39:25</time>
      </trkpt>
      <trkpt lat="42.36716" lon="2.98637">
        <ele>96.6</ele>
        <time>2022-05-21 13:39:26</time>
      </trkpt>
      <trkpt lat="42.36719" lon="2.98633">
        <ele>96.8</ele>
        <time>2022-05-21 13:39:27</time>
      </trkpt>
      <trkpt lat="42.36722" lon="2.9863">
        <ele>97</ele>
        <time>2022-05-21 13:39:28</time>
      </trkpt>
      <trkpt lat="42.36726" lon="2.98626">
        <ele>97.2</ele>
        <time>2022-05-21 13:39:29</time>
      </trkpt>
      <trkpt lat="42.36729" lon="2.98624">
        <ele>97.2</ele>
        <time>2022-05-21 13:39:30</time>
      </trkpt>
      <trkpt lat="42.36733" lon="2.98621">
        <ele>97.4</ele>
        <time>2022-05-21 13:39:31</time>
      </trkpt>
      <trkpt lat="42.36736" lon="2.98619">
        <ele>97.6</ele>
        <time>2022-05-21 13:39:32</time>
      </trkpt>
      <trkpt lat="42.3674" lon="2.98617">
        <ele>97.6</ele>
        <time>2022-05-21 13:39:33</time>
      </trkpt>
      <trkpt lat="42.36743" lon="2.98614">
        <ele>97.6</ele>
        <time>2022-05-21 13:39:34</time>
      </trkpt>
      <trkpt lat="42.36747" lon="2.98612">
        <ele>97.8</ele>
        <time>2022-05-21 13:39:35</time>
      </trkpt>
      <trkpt lat="42.36751" lon="2.9861">
        <ele>97.8</ele>
        <time>2022-05-21 13:39:36</time>
      </trkpt>
      <trkpt lat="42.36755" lon="2.98608">
        <ele>98</ele>
        <time>2022-05-21 13:39:37</time>
      </trkpt>
      <trkpt lat="42.36759" lon="2.98606">
        <ele>98</ele>
        <time>2022-05-21 13:39:38</time>
      </trkpt>
      <trkpt lat="42.36763" lon="2.98605">
        <ele>98.2</ele>
        <time>2022-05-21 13:39:39</time>
      </trkpt>
      <trkpt lat="42.36767" lon="2.98603">
        <ele>98.2</ele>
        <time>2022-05-21 13:39:40</time>
      </trkpt>
      <trkpt lat="42.36771" lon="2.98601">
        <ele>98.4</ele>
        <time>2022-05-21 13:39:41</time>
      </trkpt>
      <trkpt lat="42.36775" lon="2.986">
        <ele>98.4</ele>
        <time>2022-05-21 13:39:42</time>
      </trkpt>
      <trkpt lat="42.36779" lon="2.98599">
        <ele>98.6</ele>
        <time>2022-05-21 13:39:43</time>
      </trkpt>
      <trkpt lat="42.36784" lon="2.98597">
        <ele>98.6</ele>
        <time>2022-05-21 13:39:44</time>
      </trkpt>
      <trkpt lat="42.36788" lon="2.98596">
        <ele>98.6</ele>
        <time>2022-05-21 13:39:45</time>
      </trkpt>
      <trkpt lat="42.36792" lon="2.98594">
        <ele>98.6</ele>
        <time>2022-05-21 13:39:46</time>
      </trkpt>
      <trkpt lat="42.36797" lon="2.98593">
        <ele>98.6</ele>
        <time>2022-05-21 13:39:47</time>
      </trkpt>
      <trkpt lat="42.36801" lon="2.98592">
        <ele>98.8</ele>
        <time>2022-05-21 13:39:48</time>
      </trkpt>
      <trkpt lat="42.36805" lon="2.9859">
        <ele>98.8</ele>
        <time>2022-05-21 13:39:49</time>
      </trkpt>
      <trkpt lat="42.36809" lon="2.98589">
        <ele>99</ele>
        <time>2022-05-21 13:39:50</time>
      </trkpt>
      <trkpt lat="42.36814" lon="2.98588">
        <ele>99</ele>
        <time>2022-05-21 13:39:51</time>
      </trkpt>
      <trkpt lat="42.36818" lon="2.98586">
        <ele>99.2</ele>
        <time>2022-05-21 13:39:52</time>
      </trkpt>
      <trkpt lat="42.36822" lon="2.98585">
        <ele>99.2</ele>
        <time>2022-05-21 13:39:53</time>
      </trkpt>
      <trkpt lat="42.36827" lon="2.98584">
        <ele>99.4</ele>
        <time>2022-05-21 13:39:54</time>
      </trkpt>
      <trkpt lat="42.36831" lon="2.98582">
        <ele>99.4</ele>
        <time>2022-05-21 13:39:55</time>
      </trkpt>
      <trkpt lat="42.36835" lon="2.98581">
        <ele>99.6</ele>
        <time>2022-05-21 13:39:56</time>
      </trkpt>
      <trkpt lat="42.3684" lon="2.98579">
        <ele>99.6</ele>
        <time>2022-05-21 13:39:57</time>
      </trkpt>
      <trkpt lat="42.36844" lon="2.98577">
        <ele>99.6</ele>
        <time>2022-05-21 13:39:58</time>
      </trkpt>
      <trkpt lat="42.36849" lon="2.98576">
        <ele>99.6</ele>
        <time>2022-05-21 13:39:59</time>
      </trkpt>
      <trkpt lat="42.36853" lon="2.98575">
        <ele>99.6</ele>
        <time>2022-05-21 13:40:00</time>
      </trkpt>
      <trkpt lat="42.36858" lon="2.98573">
        <ele>99.6</ele>
        <time>2022-05-21 13:40:01</time>
      </trkpt>
      <trkpt lat="42.36863" lon="2.98572">
        <ele>99.6</ele>
        <time>2022-05-21 13:40:02</time>
      </trkpt>
      <trkpt lat="42.36868" lon="2.9857">
        <ele>99.6</ele>
        <time>2022-05-21 13:40:03</time>
      </trkpt>
      <trkpt lat="42.36873" lon="2.98568">
        <ele>99.6</ele>
        <time>2022-05-21 13:40:04</time>
      </trkpt>
      <trkpt lat="42.36879" lon="2.98566">
        <ele>99.6</ele>
        <time>2022-05-21 13:40:05</time>
      </trkpt>
      <trkpt lat="42.36884" lon="2.98564">
        <ele>99.6</ele>
        <time>2022-05-21 13:40:06</time>
      </trkpt>
      <trkpt lat="42.3689" lon="2.98562">
        <ele>99.4</ele>
        <time>2022-05-21 13:40:07</time>
      </trkpt>
      <trkpt lat="42.36896" lon="2.98558">
        <ele>99.4</ele>
        <time>2022-05-21 13:40:08</time>
      </trkpt>
      <trkpt lat="42.36902" lon="2.98554">
        <ele>99.2</ele>
        <time>2022-05-21 13:40:09</time>
      </trkpt>
      <trkpt lat="42.36907" lon="2.9855">
        <ele>99</ele>
        <time>2022-05-21 13:40:10</time>
      </trkpt>
      <trkpt lat="42.36913" lon="2.98545">
        <ele>98.8</ele>
        <time>2022-05-21 13:40:11</time>
      </trkpt>
      <trkpt lat="42.36918" lon="2.98539">
        <ele>98.4</ele>
        <time>2022-05-21 13:40:12</time>
      </trkpt>
      <trkpt lat="42.36924" lon="2.98532">
        <ele>98.4</ele>
        <time>2022-05-21 13:40:13</time>
      </trkpt>
      <trkpt lat="42.36928" lon="2.98525">
        <ele>98</ele>
        <time>2022-05-21 13:40:14</time>
      </trkpt>
      <trkpt lat="42.36933" lon="2.98516">
        <ele>97.8</ele>
        <time>2022-05-21 13:40:15</time>
      </trkpt>
      <trkpt lat="42.36936" lon="2.98507">
        <ele>97.4</ele>
        <time>2022-05-21 13:40:16</time>
      </trkpt>
      <trkpt lat="42.3694" lon="2.98498">
        <ele>97.2</ele>
        <time>2022-05-21 13:40:17</time>
      </trkpt>
      <trkpt lat="42.36943" lon="2.98488">
        <ele>96.8</ele>
        <time>2022-05-21 13:40:18</time>
      </trkpt>
      <trkpt lat="42.36945" lon="2.98478">
        <ele>96.4</ele>
        <time>2022-05-21 13:40:19</time>
      </trkpt>
      <trkpt lat="42.36946" lon="2.98466">
        <ele>96</ele>
        <time>2022-05-21 13:40:20</time>
      </trkpt>
      <trkpt lat="42.36947" lon="2.98455">
        <ele>95.6</ele>
        <time>2022-05-21 13:40:21</time>
      </trkpt>
      <trkpt lat="42.36946" lon="2.98443">
        <ele>95</ele>
        <time>2022-05-21 13:40:22</time>
      </trkpt>
      <trkpt lat="42.36945" lon="2.98431">
        <ele>94.4</ele>
        <time>2022-05-21 13:40:23</time>
      </trkpt>
      <trkpt lat="42.36944" lon="2.98419">
        <ele>93.8</ele>
        <time>2022-05-21 13:40:24</time>
      </trkpt>
      <trkpt lat="42.36941" lon="2.98406">
        <ele>93.2</ele>
        <time>2022-05-21 13:40:25</time>
      </trkpt>
      <trkpt lat="42.36936" lon="2.98394">
        <ele>92.6</ele>
        <time>2022-05-21 13:40:26</time>
      </trkpt>
      <trkpt lat="42.36931" lon="2.98382">
        <ele>92</ele>
        <time>2022-05-21 13:40:27</time>
      </trkpt>
      <trkpt lat="42.36924" lon="2.9837">
        <ele>91.4</ele>
        <time>2022-05-21 13:40:28</time>
      </trkpt>
      <trkpt lat="42.36918" lon="2.9836">
        <ele>90.8</ele>
        <time>2022-05-21 13:40:29</time>
      </trkpt>
      <trkpt lat="42.36911" lon="2.98349">
        <ele>90.2</ele>
        <time>2022-05-21 13:40:30</time>
      </trkpt>
      <trkpt lat="42.36903" lon="2.98338">
        <ele>89.8</ele>
        <time>2022-05-21 13:40:31</time>
      </trkpt>
      <trkpt lat="42.36897" lon="2.98328">
        <ele>89.2</ele>
        <time>2022-05-21 13:40:32</time>
      </trkpt>
      <trkpt lat="42.36891" lon="2.98317">
        <ele>88.8</ele>
        <time>2022-05-21 13:40:33</time>
      </trkpt>
      <trkpt lat="42.36886" lon="2.98305">
        <ele>88.4</ele>
        <time>2022-05-21 13:40:34</time>
      </trkpt>
      <trkpt lat="42.36881" lon="2.98295">
        <ele>87.8</ele>
        <time>2022-05-21 13:40:35</time>
      </trkpt>
      <trkpt lat="42.36878" lon="2.98283">
        <ele>87.4</ele>
        <time>2022-05-21 13:40:36</time>
      </trkpt>
      <trkpt lat="42.36875" lon="2.98268">
        <ele>86.8</ele>
        <time>2022-05-21 13:40:37</time>
      </trkpt>
      <trkpt lat="42.36873" lon="2.98254">
        <ele>86.4</ele>
        <time>2022-05-21 13:40:38</time>
      </trkpt>
      <trkpt lat="42.36872" lon="2.98239">
        <ele>86.2</ele>
        <time>2022-05-21 13:40:39</time>
      </trkpt>
      <trkpt lat="42.36871" lon="2.98224">
        <ele>85.8</ele>
        <time>2022-05-21 13:40:40</time>
      </trkpt>
      <trkpt lat="42.3687" lon="2.9821">
        <ele>85.4</ele>
        <time>2022-05-21 13:40:41</time>
      </trkpt>
      <trkpt lat="42.36869" lon="2.98197">
        <ele>85.2</ele>
        <time>2022-05-21 13:40:42</time>
      </trkpt>
      <trkpt lat="42.36869" lon="2.98184">
        <ele>85.2</ele>
        <time>2022-05-21 13:40:43</time>
      </trkpt>
      <trkpt lat="42.36869" lon="2.98173">
        <ele>85.2</ele>
        <time>2022-05-21 13:40:44</time>
      </trkpt>
      <trkpt lat="42.36869" lon="2.98164">
        <ele>85.2</ele>
        <time>2022-05-21 13:40:45</time>
      </trkpt>
      <trkpt lat="42.36869" lon="2.98157">
        <ele>85.4</ele>
        <time>2022-05-21 13:40:46</time>
      </trkpt>
      <trkpt lat="42.36869" lon="2.98152">
        <ele>85.4</ele>
        <time>2022-05-21 13:40:47</time>
      </trkpt>
      <trkpt lat="42.36869" lon="2.98149">
        <ele>85.6</ele>
        <time>2022-05-21 13:40:48</time>
      </trkpt>
      <trkpt lat="42.36868" lon="2.98147">
        <ele>85.8</ele>
        <time>2022-05-21 13:40:49</time>
      </trkpt>
      <trkpt lat="42.36868" lon="2.98145">
        <ele>85.8</ele>
        <time>2022-05-21 13:40:50</time>
      </trkpt>
      <trkpt lat="42.36866" lon="2.98143">
        <ele>85.8</ele>
        <time>2022-05-21 13:40:51</time>
      </trkpt>
      <trkpt lat="42.36865" lon="2.98141">
        <ele>85.8</ele>
        <time>2022-05-21 13:40:52</time>
      </trkpt>
      <trkpt lat="42.36863" lon="2.9814">
        <ele>85.8</ele>
        <time>2022-05-21 13:40:53</time>
      </trkpt>
      <trkpt lat="42.36859" lon="2.98139">
        <ele>85.8</ele>
        <time>2022-05-21 13:40:54</time>
      </trkpt>
      <trkpt lat="42.36855" lon="2.98137">
        <ele>85.8</ele>
        <time>2022-05-21 13:40:55</time>
      </trkpt>
      <trkpt lat="42.36851" lon="2.98135">
        <ele>85.8</ele>
        <time>2022-05-21 13:40:56</time>
      </trkpt>
      <trkpt lat="42.36846" lon="2.98133">
        <ele>85.8</ele>
        <time>2022-05-21 13:40:57</time>
      </trkpt>
      <trkpt lat="42.36842" lon="2.98131">
        <ele>85.8</ele>
        <time>2022-05-21 13:40:58</time>
      </trkpt>
      <trkpt lat="42.36837" lon="2.98129">
        <ele>85.6</ele>
        <time>2022-05-21 13:40:59</time>
      </trkpt>
      <trkpt lat="42.36831" lon="2.98126">
        <ele>85.6</ele>
        <time>2022-05-21 13:41:00</time>
      </trkpt>
      <trkpt lat="42.36826" lon="2.98123">
        <ele>85.6</ele>
        <time>2022-05-21 13:41:01</time>
      </trkpt>
      <trkpt lat="42.36821" lon="2.98121">
        <ele>85.6</ele>
        <time>2022-05-21 13:41:02</time>
      </trkpt>
      <trkpt lat="42.36815" lon="2.98118">
        <ele>85.4</ele>
        <time>2022-05-21 13:41:03</time>
      </trkpt>
      <trkpt lat="42.36809" lon="2.98115">
        <ele>85.4</ele>
        <time>2022-05-21 13:41:04</time>
      </trkpt>
      <trkpt lat="42.36802" lon="2.98112">
        <ele>85.4</ele>
        <time>2022-05-21 13:41:05</time>
      </trkpt>
      <trkpt lat="42.36796" lon="2.9811">
        <ele>85.2</ele>
        <time>2022-05-21 13:41:06</time>
      </trkpt>
      <trkpt lat="42.3679" lon="2.98107">
        <ele>85.2</ele>
        <time>2022-05-21 13:41:07</time>
      </trkpt>
      <trkpt lat="42.36784" lon="2.98104">
        <ele>85.2</ele>
        <time>2022-05-21 13:41:08</time>
      </trkpt>
      <trkpt lat="42.36778" lon="2.981">
        <ele>85</ele>
        <time>2022-05-21 13:41:09</time>
      </trkpt>
      <trkpt lat="42.36771" lon="2.98097">
        <ele>85</ele>
        <time>2022-05-21 13:41:10</time>
      </trkpt>
      <trkpt lat="42.36765" lon="2.98094">
        <ele>85</ele>
        <time>2022-05-21 13:41:11</time>
      </trkpt>
      <trkpt lat="42.36759" lon="2.9809">
        <ele>84.8</ele>
        <time>2022-05-21 13:41:12</time>
      </trkpt>
      <trkpt lat="42.36752" lon="2.98086">
        <ele>84.8</ele>
        <time>2022-05-21 13:41:13</time>
      </trkpt>
      <trkpt lat="42.36745" lon="2.98082">
        <ele>84.6</ele>
        <time>2022-05-21 13:41:14</time>
      </trkpt>
      <trkpt lat="42.36739" lon="2.98078">
        <ele>84.4</ele>
        <time>2022-05-21 13:41:15</time>
      </trkpt>
      <trkpt lat="42.36732" lon="2.98073">
        <ele>84.4</ele>
        <time>2022-05-21 13:41:16</time>
      </trkpt>
      <trkpt lat="42.36724" lon="2.98069">
        <ele>84.2</ele>
        <time>2022-05-21 13:41:17</time>
      </trkpt>
      <trkpt lat="42.36717" lon="2.98064">
        <ele>83.8</ele>
        <time>2022-05-21 13:41:18</time>
      </trkpt>
      <trkpt lat="42.3671" lon="2.9806">
        <ele>83.6</ele>
        <time>2022-05-21 13:41:19</time>
      </trkpt>
      <trkpt lat="42.36703" lon="2.98054">
        <ele>83.2</ele>
        <time>2022-05-21 13:41:20</time>
      </trkpt>
      <trkpt lat="42.36697" lon="2.98047">
        <ele>83</ele>
        <time>2022-05-21 13:41:21</time>
      </trkpt>
      <trkpt lat="42.36691" lon="2.98039">
        <ele>82.6</ele>
        <time>2022-05-21 13:41:22</time>
      </trkpt>
      <trkpt lat="42.36685" lon="2.98031">
        <ele>82.4</ele>
        <time>2022-05-21 13:41:23</time>
      </trkpt>
      <trkpt lat="42.3668" lon="2.98022">
        <ele>82.2</ele>
        <time>2022-05-21 13:41:24</time>
      </trkpt>
      <trkpt lat="42.36675" lon="2.98013">
        <ele>82</ele>
        <time>2022-05-21 13:41:25</time>
      </trkpt>
      <trkpt lat="42.36669" lon="2.98004">
        <ele>81.6</ele>
        <time>2022-05-21 13:41:26</time>
      </trkpt>
      <trkpt lat="42.36664" lon="2.97994">
        <ele>81.4</ele>
        <time>2022-05-21 13:41:27</time>
      </trkpt>
      <trkpt lat="42.36659" lon="2.97985">
        <ele>81.2</ele>
        <time>2022-05-21 13:41:28</time>
      </trkpt>
      <trkpt lat="42.36653" lon="2.97976">
        <ele>81</ele>
        <time>2022-05-21 13:41:29</time>
      </trkpt>
      <trkpt lat="42.36648" lon="2.97968">
        <ele>81</ele>
        <time>2022-05-21 13:41:30</time>
      </trkpt>
      <trkpt lat="42.36643" lon="2.97959">
        <ele>80.8</ele>
        <time>2022-05-21 13:41:31</time>
      </trkpt>
      <trkpt lat="42.36638" lon="2.97951">
        <ele>80.6</ele>
        <time>2022-05-21 13:41:32</time>
      </trkpt>
      <trkpt lat="42.36633" lon="2.97942">
        <ele>80.6</ele>
        <time>2022-05-21 13:41:33</time>
      </trkpt>
      <trkpt lat="42.36628" lon="2.97933">
        <ele>80.4</ele>
        <time>2022-05-21 13:41:34</time>
      </trkpt>
      <trkpt lat="42.36623" lon="2.97925">
        <ele>80.4</ele>
        <time>2022-05-21 13:41:35</time>
      </trkpt>
      <trkpt lat="42.36618" lon="2.97916">
        <ele>80.2</ele>
        <time>2022-05-21 13:41:36</time>
      </trkpt>
      <trkpt lat="42.36613" lon="2.97907">
        <ele>80.2</ele>
        <time>2022-05-21 13:41:37</time>
      </trkpt>
      <trkpt lat="42.36607" lon="2.97899">
        <ele>80</ele>
        <time>2022-05-21 13:41:38</time>
      </trkpt>
      <trkpt lat="42.36602" lon="2.9789">
        <ele>80</ele>
        <time>2022-05-21 13:41:39</time>
      </trkpt>
      <trkpt lat="42.36597" lon="2.97881">
        <ele>79.8</ele>
        <time>2022-05-21 13:41:40</time>
      </trkpt>
      <trkpt lat="42.36592" lon="2.97873">
        <ele>79.6</ele>
        <time>2022-05-21 13:41:41</time>
      </trkpt>
      <trkpt lat="42.36587" lon="2.97864">
        <ele>79.6</ele>
        <time>2022-05-21 13:41:42</time>
      </trkpt>
      <trkpt lat="42.36582" lon="2.97856">
        <ele>79.4</ele>
        <time>2022-05-21 13:41:43</time>
      </trkpt>
      <trkpt lat="42.36577" lon="2.97847">
        <ele>79.4</ele>
        <time>2022-05-21 13:41:44</time>
      </trkpt>
      <trkpt lat="42.36573" lon="2.97839">
        <ele>79.4</ele>
        <time>2022-05-21 13:41:45</time>
      </trkpt>
      <trkpt lat="42.36568" lon="2.97831">
        <ele>79.4</ele>
        <time>2022-05-21 13:41:46</time>
      </trkpt>
      <trkpt lat="42.36563" lon="2.97823">
        <ele>79.4</ele>
        <time>2022-05-21 13:41:47</time>
      </trkpt>
      <trkpt lat="42.36558" lon="2.97814">
        <ele>79.2</ele>
        <time>2022-05-21 13:41:48</time>
      </trkpt>
      <trkpt lat="42.36553" lon="2.97806">
        <ele>79.2</ele>
        <time>2022-05-21 13:41:49</time>
      </trkpt>
      <trkpt lat="42.36548" lon="2.97797">
        <ele>79.2</ele>
        <time>2022-05-21 13:41:50</time>
      </trkpt>
      <trkpt lat="42.36543" lon="2.97789">
        <ele>79.2</ele>
        <time>2022-05-21 13:41:51</time>
      </trkpt>
      <trkpt lat="42.36538" lon="2.97781">
        <ele>79</ele>
        <time>2022-05-21 13:41:52</time>
      </trkpt>
      <trkpt lat="42.36534" lon="2.97773">
        <ele>79</ele>
        <time>2022-05-21 13:41:53</time>
      </trkpt>
      <trkpt lat="42.36529" lon="2.97766">
        <ele>79</ele>
        <time>2022-05-21 13:41:54</time>
      </trkpt>
      <trkpt lat="42.36524" lon="2.97757">
        <ele>79</ele>
        <time>2022-05-21 13:41:55</time>
      </trkpt>
      <trkpt lat="42.36518" lon="2.97748">
        <ele>79</ele>
        <time>2022-05-21 13:41:56</time>
      </trkpt>
      <trkpt lat="42.36514" lon="2.9774">
        <ele>79</ele>
        <time>2022-05-21 13:41:57</time>
      </trkpt>
      <trkpt lat="42.36509" lon="2.97733">
        <ele>79</ele>
        <time>2022-05-21 13:41:58</time>
      </trkpt>
      <trkpt lat="42.36505" lon="2.97725">
        <ele>79</ele>
        <time>2022-05-21 13:41:59</time>
      </trkpt>
      <trkpt lat="42.365" lon="2.97717">
        <ele>79</ele>
        <time>2022-05-21 13:42:00</time>
      </trkpt>
      <trkpt lat="42.36495" lon="2.97709">
        <ele>79.2</ele>
        <time>2022-05-21 13:42:01</time>
      </trkpt>
      <trkpt lat="42.36491" lon="2.97701">
        <ele>79.2</ele>
        <time>2022-05-21 13:42:02</time>
      </trkpt>
      <trkpt lat="42.36486" lon="2.97693">
        <ele>79</ele>
        <time>2022-05-21 13:42:03</time>
      </trkpt>
      <trkpt lat="42.36482" lon="2.97685">
        <ele>79</ele>
        <time>2022-05-21 13:42:04</time>
      </trkpt>
      <trkpt lat="42.36477" lon="2.97677">
        <ele>79</ele>
        <time>2022-05-21 13:42:05</time>
      </trkpt>
      <trkpt lat="42.36472" lon="2.97669">
        <ele>79</ele>
        <time>2022-05-21 13:42:06</time>
      </trkpt>
      <trkpt lat="42.36467" lon="2.97662">
        <ele>79</ele>
        <time>2022-05-21 13:42:07</time>
      </trkpt>
      <trkpt lat="42.36463" lon="2.97654">
        <ele>78.8</ele>
        <time>2022-05-21 13:42:08</time>
      </trkpt>
      <trkpt lat="42.36459" lon="2.97646">
        <ele>78.8</ele>
        <time>2022-05-21 13:42:09</time>
      </trkpt>
      <trkpt lat="42.36454" lon="2.97638">
        <ele>78.8</ele>
        <time>2022-05-21 13:42:10</time>
      </trkpt>
      <trkpt lat="42.3645" lon="2.9763">
        <ele>78.8</ele>
        <time>2022-05-21 13:42:11</time>
      </trkpt>
      <trkpt lat="42.36445" lon="2.97623">
        <ele>78.6</ele>
        <time>2022-05-21 13:42:12</time>
      </trkpt>
      <trkpt lat="42.36441" lon="2.97615">
        <ele>78.6</ele>
        <time>2022-05-21 13:42:13</time>
      </trkpt>
      <trkpt lat="42.36436" lon="2.97608">
        <ele>78.6</ele>
        <time>2022-05-21 13:42:14</time>
      </trkpt>
      <trkpt lat="42.36432" lon="2.97601">
        <ele>78.4</ele>
        <time>2022-05-21 13:42:15</time>
      </trkpt>
      <trkpt lat="42.36428" lon="2.97593">
        <ele>78.4</ele>
        <time>2022-05-21 13:42:16</time>
      </trkpt>
      <trkpt lat="42.36423" lon="2.97586">
        <ele>78.4</ele>
        <time>2022-05-21 13:42:17</time>
      </trkpt>
      <trkpt lat="42.36419" lon="2.97578">
        <ele>78.4</ele>
        <time>2022-05-21 13:42:18</time>
      </trkpt>
      <trkpt lat="42.36415" lon="2.97571">
        <ele>78.4</ele>
        <time>2022-05-21 13:42:19</time>
      </trkpt>
      <trkpt lat="42.3641" lon="2.97564">
        <ele>78.4</ele>
        <time>2022-05-21 13:42:20</time>
      </trkpt>
      <trkpt lat="42.36406" lon="2.97556">
        <ele>78.4</ele>
        <time>2022-05-21 13:42:21</time>
      </trkpt>
      <trkpt lat="42.36402" lon="2.97549">
        <ele>78.4</ele>
        <time>2022-05-21 13:42:22</time>
      </trkpt>
      <trkpt lat="42.36398" lon="2.97541">
        <ele>78.4</ele>
        <time>2022-05-21 13:42:23</time>
      </trkpt>
      <trkpt lat="42.36393" lon="2.97534">
        <ele>78.4</ele>
        <time>2022-05-21 13:42:24</time>
      </trkpt>
      <trkpt lat="42.36388" lon="2.97526">
        <ele>78.4</ele>
        <time>2022-05-21 13:42:25</time>
      </trkpt>
      <trkpt lat="42.36384" lon="2.97518">
        <ele>78.4</ele>
        <time>2022-05-21 13:42:26</time>
      </trkpt>
      <trkpt lat="42.3638" lon="2.97511">
        <ele>78.2</ele>
        <time>2022-05-21 13:42:27</time>
      </trkpt>
      <trkpt lat="42.36375" lon="2.97503">
        <ele>78.2</ele>
        <time>2022-05-21 13:42:28</time>
      </trkpt>
      <trkpt lat="42.36371" lon="2.97496">
        <ele>78.4</ele>
        <time>2022-05-21 13:42:29</time>
      </trkpt>
      <trkpt lat="42.36366" lon="2.97488">
        <ele>78.4</ele>
        <time>2022-05-21 13:42:30</time>
      </trkpt>
      <trkpt lat="42.36361" lon="2.97481">
        <ele>78.4</ele>
        <time>2022-05-21 13:42:31</time>
      </trkpt>
      <trkpt lat="42.36357" lon="2.97473">
        <ele>78.4</ele>
        <time>2022-05-21 13:42:32</time>
      </trkpt>
      <trkpt lat="42.36353" lon="2.97466">
        <ele>78.2</ele>
        <time>2022-05-21 13:42:33</time>
      </trkpt>
      <trkpt lat="42.36349" lon="2.97458">
        <ele>78.2</ele>
        <time>2022-05-21 13:42:34</time>
      </trkpt>
      <trkpt lat="42.36344" lon="2.97451">
        <ele>78.2</ele>
        <time>2022-05-21 13:42:35</time>
      </trkpt>
      <trkpt lat="42.3634" lon="2.97443">
        <ele>78.2</ele>
        <time>2022-05-21 13:42:36</time>
      </trkpt>
      <trkpt lat="42.36336" lon="2.97435">
        <ele>78</ele>
        <time>2022-05-21 13:42:37</time>
      </trkpt>
      <trkpt lat="42.36332" lon="2.97427">
        <ele>78</ele>
        <time>2022-05-21 13:42:38</time>
      </trkpt>
      <trkpt lat="42.36327" lon="2.9742">
        <ele>78</ele>
        <time>2022-05-21 13:42:39</time>
      </trkpt>
      <trkpt lat="42.36323" lon="2.97413">
        <ele>78</ele>
        <time>2022-05-21 13:42:40</time>
      </trkpt>
      <trkpt lat="42.36319" lon="2.97405">
        <ele>78</ele>
        <time>2022-05-21 13:42:41</time>
      </trkpt>
      <trkpt lat="42.36315" lon="2.97398">
        <ele>78.2</ele>
        <time>2022-05-21 13:42:42</time>
      </trkpt>
      <trkpt lat="42.36312" lon="2.97391">
        <ele>78.4</ele>
        <time>2022-05-21 13:42:43</time>
      </trkpt>
      <trkpt lat="42.36308" lon="2.97385">
        <ele>78.6</ele>
        <time>2022-05-21 13:42:44</time>
      </trkpt>
      <trkpt lat="42.36305" lon="2.97379">
        <ele>78.8</ele>
        <time>2022-05-21 13:42:45</time>
      </trkpt>
      <trkpt lat="42.36302" lon="2.97373">
        <ele>79.2</ele>
        <time>2022-05-21 13:42:46</time>
      </trkpt>
      <trkpt lat="42.36298" lon="2.97366">
        <ele>79.4</ele>
        <time>2022-05-21 13:42:47</time>
      </trkpt>
      <trkpt lat="42.36295" lon="2.97362">
        <ele>79.6</ele>
        <time>2022-05-21 13:42:48</time>
      </trkpt>
      <trkpt lat="42.36293" lon="2.97358">
        <ele>79.8</ele>
        <time>2022-05-21 13:42:49</time>
      </trkpt>
      <trkpt lat="42.36289" lon="2.97349">
        <ele>80</ele>
        <time>2022-05-21 13:42:50</time>
      </trkpt>
      <trkpt lat="42.36285" lon="2.97344">
        <ele>80</ele>
        <time>2022-05-21 13:42:51</time>
      </trkpt>
      <trkpt lat="42.36282" lon="2.97338">
        <ele>80.2</ele>
        <time>2022-05-21 13:42:52</time>
      </trkpt>
      <trkpt lat="42.36278" lon="2.97332">
        <ele>80.2</ele>
        <time>2022-05-21 13:42:53</time>
      </trkpt>
      <trkpt lat="42.36274" lon="2.97326">
        <ele>80.4</ele>
        <time>2022-05-21 13:42:54</time>
      </trkpt>
      <trkpt lat="42.3627" lon="2.9732">
        <ele>80.4</ele>
        <time>2022-05-21 13:42:55</time>
      </trkpt>
      <trkpt lat="42.36267" lon="2.97314">
        <ele>80.4</ele>
        <time>2022-05-21 13:42:56</time>
      </trkpt>
      <trkpt lat="42.36263" lon="2.97308">
        <ele>80.2</ele>
        <time>2022-05-21 13:42:57</time>
      </trkpt>
      <trkpt lat="42.3626" lon="2.97302">
        <ele>80.2</ele>
        <time>2022-05-21 13:42:58</time>
      </trkpt>
      <trkpt lat="42.36256" lon="2.97296">
        <ele>80.2</ele>
        <time>2022-05-21 13:42:59</time>
      </trkpt>
      <trkpt lat="42.36252" lon="2.97289">
        <ele>80.4</ele>
        <time>2022-05-21 13:43:00</time>
      </trkpt>
      <trkpt lat="42.36248" lon="2.97283">
        <ele>80.4</ele>
        <time>2022-05-21 13:43:01</time>
      </trkpt>
      <trkpt lat="42.36244" lon="2.97276">
        <ele>80.4</ele>
        <time>2022-05-21 13:43:02</time>
      </trkpt>
      <trkpt lat="42.36241" lon="2.9727">
        <ele>80.4</ele>
        <time>2022-05-21 13:43:03</time>
      </trkpt>
      <trkpt lat="42.36237" lon="2.97263">
        <ele>80.4</ele>
        <time>2022-05-21 13:43:04</time>
      </trkpt>
      <trkpt lat="42.36233" lon="2.97257">
        <ele>80.2</ele>
        <time>2022-05-21 13:43:05</time>
      </trkpt>
      <trkpt lat="42.36229" lon="2.9725">
        <ele>80.2</ele>
        <time>2022-05-21 13:43:06</time>
      </trkpt>
      <trkpt lat="42.36225" lon="2.97244">
        <ele>80.2</ele>
        <time>2022-05-21 13:43:07</time>
      </trkpt>
      <trkpt lat="42.36222" lon="2.97238">
        <ele>80.2</ele>
        <time>2022-05-21 13:43:08</time>
      </trkpt>
      <trkpt lat="42.36218" lon="2.97231">
        <ele>80.2</ele>
        <time>2022-05-21 13:43:09</time>
      </trkpt>
      <trkpt lat="42.36214" lon="2.97224">
        <ele>80</ele>
        <time>2022-05-21 13:43:10</time>
      </trkpt>
      <trkpt lat="42.36211" lon="2.97218">
        <ele>80.2</ele>
        <time>2022-05-21 13:43:11</time>
      </trkpt>
      <trkpt lat="42.36207" lon="2.97211">
        <ele>80</ele>
        <time>2022-05-21 13:43:12</time>
      </trkpt>
      <trkpt lat="42.36203" lon="2.97205">
        <ele>80</ele>
        <time>2022-05-21 13:43:13</time>
      </trkpt>
      <trkpt lat="42.362" lon="2.97199">
        <ele>80.2</ele>
        <time>2022-05-21 13:43:14</time>
      </trkpt>
      <trkpt lat="42.36196" lon="2.97192">
        <ele>80.2</ele>
        <time>2022-05-21 13:43:15</time>
      </trkpt>
      <trkpt lat="42.36192" lon="2.97186">
        <ele>80.2</ele>
        <time>2022-05-21 13:43:16</time>
      </trkpt>
      <trkpt lat="42.36188" lon="2.97179">
        <ele>80.2</ele>
        <time>2022-05-21 13:43:17</time>
      </trkpt>
      <trkpt lat="42.36184" lon="2.97173">
        <ele>80.2</ele>
        <time>2022-05-21 13:43:18</time>
      </trkpt>
      <trkpt lat="42.36181" lon="2.97166">
        <ele>80.2</ele>
        <time>2022-05-21 13:43:19</time>
      </trkpt>
      <trkpt lat="42.36177" lon="2.97159">
        <ele>80.2</ele>
        <time>2022-05-21 13:43:20</time>
      </trkpt>
      <trkpt lat="42.36173" lon="2.97153">
        <ele>80.2</ele>
        <time>2022-05-21 13:43:21</time>
      </trkpt>
      <trkpt lat="42.36169" lon="2.97146">
        <ele>80.2</ele>
        <time>2022-05-21 13:43:22</time>
      </trkpt>
      <trkpt lat="42.36165" lon="2.97139">
        <ele>80.2</ele>
        <time>2022-05-21 13:43:23</time>
      </trkpt>
      <trkpt lat="42.36162" lon="2.97131">
        <ele>80</ele>
        <time>2022-05-21 13:43:24</time>
      </trkpt>
      <trkpt lat="42.36159" lon="2.97124">
        <ele>80</ele>
        <time>2022-05-21 13:43:25</time>
      </trkpt>
      <trkpt lat="42.36157" lon="2.97116">
        <ele>80</ele>
        <time>2022-05-21 13:43:26</time>
      </trkpt>
      <trkpt lat="42.36155" lon="2.97107">
        <ele>80.2</ele>
        <time>2022-05-21 13:43:27</time>
      </trkpt>
      <trkpt lat="42.36154" lon="2.97098">
        <ele>80.2</ele>
        <time>2022-05-21 13:43:28</time>
      </trkpt>
      <trkpt lat="42.36154" lon="2.97089">
        <ele>80.2</ele>
        <time>2022-05-21 13:43:29</time>
      </trkpt>
      <trkpt lat="42.36153" lon="2.9708">
        <ele>80.2</ele>
        <time>2022-05-21 13:43:30</time>
      </trkpt>
      <trkpt lat="42.36153" lon="2.97071">
        <ele>80.2</ele>
        <time>2022-05-21 13:43:31</time>
      </trkpt>
      <trkpt lat="42.36153" lon="2.97062">
        <ele>80.2</ele>
        <time>2022-05-21 13:43:32</time>
      </trkpt>
      <trkpt lat="42.36153" lon="2.97053">
        <ele>80.4</ele>
        <time>2022-05-21 13:43:33</time>
      </trkpt>
      <trkpt lat="42.36153" lon="2.97044">
        <ele>80.4</ele>
        <time>2022-05-21 13:43:34</time>
      </trkpt>
      <trkpt lat="42.36153" lon="2.97035">
        <ele>80.6</ele>
        <time>2022-05-21 13:43:35</time>
      </trkpt>
      <trkpt lat="42.36153" lon="2.97026">
        <ele>80.8</ele>
        <time>2022-05-21 13:43:36</time>
      </trkpt>
      <trkpt lat="42.36153" lon="2.97017">
        <ele>80.8</ele>
        <time>2022-05-21 13:43:37</time>
      </trkpt>
      <trkpt lat="42.36153" lon="2.97008">
        <ele>81</ele>
        <time>2022-05-21 13:43:38</time>
      </trkpt>
      <trkpt lat="42.36153" lon="2.97">
        <ele>81.2</ele>
        <time>2022-05-21 13:43:39</time>
      </trkpt>
      <trkpt lat="42.36153" lon="2.96991">
        <ele>81.2</ele>
        <time>2022-05-21 13:43:40</time>
      </trkpt>
      <trkpt lat="42.36153" lon="2.96983">
        <ele>81.4</ele>
        <time>2022-05-21 13:43:41</time>
      </trkpt>
      <trkpt lat="42.36153" lon="2.96975">
        <ele>81.4</ele>
        <time>2022-05-21 13:43:42</time>
      </trkpt>
      <trkpt lat="42.36153" lon="2.96966">
        <ele>81.6</ele>
        <time>2022-05-21 13:43:43</time>
      </trkpt>
      <trkpt lat="42.36154" lon="2.96957">
        <ele>81.6</ele>
        <time>2022-05-21 13:43:44</time>
      </trkpt>
      <trkpt lat="42.36154" lon="2.96949">
        <ele>81.8</ele>
        <time>2022-05-21 13:43:45</time>
      </trkpt>
      <trkpt lat="42.36154" lon="2.9694">
        <ele>81.8</ele>
        <time>2022-05-21 13:43:46</time>
      </trkpt>
      <trkpt lat="42.36154" lon="2.96932">
        <ele>82</ele>
        <time>2022-05-21 13:43:47</time>
      </trkpt>
      <trkpt lat="42.36154" lon="2.96923">
        <ele>82</ele>
        <time>2022-05-21 13:43:48</time>
      </trkpt>
      <trkpt lat="42.36154" lon="2.96915">
        <ele>82.2</ele>
        <time>2022-05-21 13:43:49</time>
      </trkpt>
      <trkpt lat="42.36154" lon="2.96906">
        <ele>82.2</ele>
        <time>2022-05-21 13:43:50</time>
      </trkpt>
      <trkpt lat="42.36155" lon="2.96897">
        <ele>82.4</ele>
        <time>2022-05-21 13:43:51</time>
      </trkpt>
      <trkpt lat="42.36155" lon="2.96889">
        <ele>82.4</ele>
        <time>2022-05-21 13:43:52</time>
      </trkpt>
      <trkpt lat="42.36155" lon="2.9688">
        <ele>82.4</ele>
        <time>2022-05-21 13:43:53</time>
      </trkpt>
      <trkpt lat="42.36155" lon="2.96871">
        <ele>82.6</ele>
        <time>2022-05-21 13:43:54</time>
      </trkpt>
      <trkpt lat="42.36155" lon="2.96863">
        <ele>82.6</ele>
        <time>2022-05-21 13:43:55</time>
      </trkpt>
      <trkpt lat="42.36155" lon="2.96854">
        <ele>82.6</ele>
        <time>2022-05-21 13:43:56</time>
      </trkpt>
      <trkpt lat="42.36155" lon="2.96845">
        <ele>82.8</ele>
        <time>2022-05-21 13:43:57</time>
      </trkpt>
      <trkpt lat="42.36155" lon="2.96837">
        <ele>82.8</ele>
        <time>2022-05-21 13:43:58</time>
      </trkpt>
      <trkpt lat="42.36156" lon="2.96829">
        <ele>83</ele>
        <time>2022-05-21 13:43:59</time>
      </trkpt>
      <trkpt lat="42.36156" lon="2.9682">
        <ele>83.2</ele>
        <time>2022-05-21 13:44:00</time>
      </trkpt>
      <trkpt lat="42.36156" lon="2.96812">
        <ele>83.2</ele>
        <time>2022-05-21 13:44:01</time>
      </trkpt>
      <trkpt lat="42.36156" lon="2.96804">
        <ele>83.4</ele>
        <time>2022-05-21 13:44:02</time>
      </trkpt>
      <trkpt lat="42.36156" lon="2.96795">
        <ele>83.4</ele>
        <time>2022-05-21 13:44:03</time>
      </trkpt>
      <trkpt lat="42.36156" lon="2.96787">
        <ele>83.6</ele>
        <time>2022-05-21 13:44:04</time>
      </trkpt>
      <trkpt lat="42.36156" lon="2.9678">
        <ele>83.8</ele>
        <time>2022-05-21 13:44:05</time>
      </trkpt>
      <trkpt lat="42.36156" lon="2.96772">
        <ele>83.8</ele>
        <time>2022-05-21 13:44:06</time>
      </trkpt>
      <trkpt lat="42.36156" lon="2.96764">
        <ele>84</ele>
        <time>2022-05-21 13:44:07</time>
      </trkpt>
      <trkpt lat="42.36156" lon="2.96756">
        <ele>84.2</ele>
        <time>2022-05-21 13:44:08</time>
      </trkpt>
      <trkpt lat="42.36157" lon="2.96748">
        <ele>84.2</ele>
        <time>2022-05-21 13:44:09</time>
      </trkpt>
      <trkpt lat="42.36157" lon="2.9674">
        <ele>84.2</ele>
        <time>2022-05-21 13:44:10</time>
      </trkpt>
      <trkpt lat="42.36157" lon="2.96732">
        <ele>84.4</ele>
        <time>2022-05-21 13:44:11</time>
      </trkpt>
      <trkpt lat="42.36157" lon="2.96725">
        <ele>84.4</ele>
        <time>2022-05-21 13:44:12</time>
      </trkpt>
      <trkpt lat="42.36157" lon="2.96717">
        <ele>84.6</ele>
        <time>2022-05-21 13:44:13</time>
      </trkpt>
      <trkpt lat="42.36157" lon="2.96709">
        <ele>84.8</ele>
        <time>2022-05-21 13:44:14</time>
      </trkpt>
      <trkpt lat="42.36158" lon="2.96702">
        <ele>84.8</ele>
        <time>2022-05-21 13:44:15</time>
      </trkpt>
      <trkpt lat="42.36158" lon="2.96694">
        <ele>85</ele>
        <time>2022-05-21 13:44:16</time>
      </trkpt>
      <trkpt lat="42.36158" lon="2.96687">
        <ele>85</ele>
        <time>2022-05-21 13:44:17</time>
      </trkpt>
      <trkpt lat="42.36158" lon="2.96679">
        <ele>85.2</ele>
        <time>2022-05-21 13:44:18</time>
      </trkpt>
      <trkpt lat="42.36158" lon="2.96672">
        <ele>85.2</ele>
        <time>2022-05-21 13:44:19</time>
      </trkpt>
      <trkpt lat="42.36158" lon="2.96664">
        <ele>85.4</ele>
        <time>2022-05-21 13:44:20</time>
      </trkpt>
      <trkpt lat="42.36158" lon="2.96656">
        <ele>85.4</ele>
        <time>2022-05-21 13:44:21</time>
      </trkpt>
      <trkpt lat="42.36158" lon="2.96649">
        <ele>85.6</ele>
        <time>2022-05-21 13:44:22</time>
      </trkpt>
      <trkpt lat="42.36158" lon="2.96642">
        <ele>85.6</ele>
        <time>2022-05-21 13:44:23</time>
      </trkpt>
      <trkpt lat="42.36158" lon="2.96634">
        <ele>85.8</ele>
        <time>2022-05-21 13:44:24</time>
      </trkpt>
      <trkpt lat="42.36158" lon="2.96627">
        <ele>85.8</ele>
        <time>2022-05-21 13:44:25</time>
      </trkpt>
      <trkpt lat="42.36159" lon="2.9662">
        <ele>86</ele>
        <time>2022-05-21 13:44:26</time>
      </trkpt>
      <trkpt lat="42.36159" lon="2.96612">
        <ele>86</ele>
        <time>2022-05-21 13:44:27</time>
      </trkpt>
      <trkpt lat="42.3616" lon="2.96604">
        <ele>86.2</ele>
        <time>2022-05-21 13:44:28</time>
      </trkpt>
      <trkpt lat="42.36162" lon="2.96597">
        <ele>86.2</ele>
        <time>2022-05-21 13:44:29</time>
      </trkpt>
      <trkpt lat="42.36163" lon="2.96589">
        <ele>86.4</ele>
        <time>2022-05-21 13:44:30</time>
      </trkpt>
      <trkpt lat="42.36165" lon="2.96582">
        <ele>86.4</ele>
        <time>2022-05-21 13:44:31</time>
      </trkpt>
      <trkpt lat="42.36167" lon="2.96575">
        <ele>86.4</ele>
        <time>2022-05-21 13:44:32</time>
      </trkpt>
      <trkpt lat="42.36169" lon="2.96568">
        <ele>86.6</ele>
        <time>2022-05-21 13:44:33</time>
      </trkpt>
      <trkpt lat="42.36171" lon="2.96561">
        <ele>86.6</ele>
        <time>2022-05-21 13:44:34</time>
      </trkpt>
      <trkpt lat="42.36173" lon="2.96554">
        <ele>86.8</ele>
        <time>2022-05-21 13:44:35</time>
      </trkpt>
      <trkpt lat="42.36175" lon="2.96546">
        <ele>86.8</ele>
        <time>2022-05-21 13:44:36</time>
      </trkpt>
      <trkpt lat="42.36177" lon="2.96539">
        <ele>86.8</ele>
        <time>2022-05-21 13:44:37</time>
      </trkpt>
      <trkpt lat="42.36179" lon="2.96531">
        <ele>87</ele>
        <time>2022-05-21 13:44:38</time>
      </trkpt>
      <trkpt lat="42.36181" lon="2.96524">
        <ele>87</ele>
        <time>2022-05-21 13:44:39</time>
      </trkpt>
      <trkpt lat="42.36183" lon="2.96517">
        <ele>87.2</ele>
        <time>2022-05-21 13:44:40</time>
      </trkpt>
      <trkpt lat="42.36185" lon="2.96509">
        <ele>87.2</ele>
        <time>2022-05-21 13:44:41</time>
      </trkpt>
      <trkpt lat="42.36187" lon="2.96502">
        <ele>87.2</ele>
        <time>2022-05-21 13:44:42</time>
      </trkpt>
      <trkpt lat="42.36188" lon="2.96494">
        <ele>87.4</ele>
        <time>2022-05-21 13:44:43</time>
      </trkpt>
      <trkpt lat="42.3619" lon="2.96487">
        <ele>87.4</ele>
        <time>2022-05-21 13:44:44</time>
      </trkpt>
      <trkpt lat="42.36191" lon="2.96479">
        <ele>87.6</ele>
        <time>2022-05-21 13:44:45</time>
      </trkpt>
      <trkpt lat="42.36193" lon="2.96472">
        <ele>87.6</ele>
        <time>2022-05-21 13:44:46</time>
      </trkpt>
      <trkpt lat="42.36195" lon="2.96464">
        <ele>87.6</ele>
        <time>2022-05-21 13:44:47</time>
      </trkpt>
      <trkpt lat="42.36197" lon="2.96457">
        <ele>87.6</ele>
        <time>2022-05-21 13:44:48</time>
      </trkpt>
      <trkpt lat="42.36198" lon="2.96452">
        <ele>87.8</ele>
        <time>2022-05-21 13:44:49</time>
      </trkpt>
      <trkpt lat="42.362" lon="2.96442">
        <ele>87.8</ele>
        <time>2022-05-21 13:44:50</time>
      </trkpt>
      <trkpt lat="42.36202" lon="2.96435">
        <ele>88</ele>
        <time>2022-05-21 13:44:51</time>
      </trkpt>
      <trkpt lat="42.36204" lon="2.96427">
        <ele>88</ele>
        <time>2022-05-21 13:44:52</time>
      </trkpt>
      <trkpt lat="42.36206" lon="2.9642">
        <ele>88.2</ele>
        <time>2022-05-21 13:44:53</time>
      </trkpt>
      <trkpt lat="42.36208" lon="2.96413">
        <ele>88.2</ele>
        <time>2022-05-21 13:44:54</time>
      </trkpt>
      <trkpt lat="42.3621" lon="2.96406">
        <ele>88.2</ele>
        <time>2022-05-21 13:44:55</time>
      </trkpt>
      <trkpt lat="42.36212" lon="2.96399">
        <ele>88.4</ele>
        <time>2022-05-21 13:44:56</time>
      </trkpt>
      <trkpt lat="42.36214" lon="2.96392">
        <ele>88.4</ele>
        <time>2022-05-21 13:44:57</time>
      </trkpt>
      <trkpt lat="42.36215" lon="2.96385">
        <ele>88.4</ele>
        <time>2022-05-21 13:44:58</time>
      </trkpt>
      <trkpt lat="42.36217" lon="2.96378">
        <ele>88.4</ele>
        <time>2022-05-21 13:44:59</time>
      </trkpt>
      <trkpt lat="42.36219" lon="2.9637">
        <ele>88.4</ele>
        <time>2022-05-21 13:45:00</time>
      </trkpt>
      <trkpt lat="42.36221" lon="2.96363">
        <ele>88.6</ele>
        <time>2022-05-21 13:45:01</time>
      </trkpt>
      <trkpt lat="42.36223" lon="2.96356">
        <ele>88.6</ele>
        <time>2022-05-21 13:45:02</time>
      </trkpt>
      <trkpt lat="42.36225" lon="2.96349">
        <ele>88.8</ele>
        <time>2022-05-21 13:45:03</time>
      </trkpt>
      <trkpt lat="42.36226" lon="2.96342">
        <ele>88.8</ele>
        <time>2022-05-21 13:45:04</time>
      </trkpt>
      <trkpt lat="42.36228" lon="2.96336">
        <ele>89</ele>
        <time>2022-05-21 13:45:05</time>
      </trkpt>
      <trkpt lat="42.3623" lon="2.96329">
        <ele>89.2</ele>
        <time>2022-05-21 13:45:06</time>
      </trkpt>
      <trkpt lat="42.36232" lon="2.96323">
        <ele>89.4</ele>
        <time>2022-05-21 13:45:07</time>
      </trkpt>
      <trkpt lat="42.36234" lon="2.96317">
        <ele>89.6</ele>
        <time>2022-05-21 13:45:08</time>
      </trkpt>
      <trkpt lat="42.36236" lon="2.96312">
        <ele>89.8</ele>
        <time>2022-05-21 13:45:09</time>
      </trkpt>
      <trkpt lat="42.36238" lon="2.96306">
        <ele>90</ele>
        <time>2022-05-21 13:45:10</time>
      </trkpt>
      <trkpt lat="42.36241" lon="2.96301">
        <ele>90.2</ele>
        <time>2022-05-21 13:45:11</time>
      </trkpt>
      <trkpt lat="42.36244" lon="2.96296">
        <ele>90.4</ele>
        <time>2022-05-21 13:45:12</time>
      </trkpt>
      <trkpt lat="42.36247" lon="2.96292">
        <ele>90.6</ele>
        <time>2022-05-21 13:45:13</time>
      </trkpt>
      <trkpt lat="42.36249" lon="2.96288">
        <ele>90.8</ele>
        <time>2022-05-21 13:45:14</time>
      </trkpt>
      <trkpt lat="42.36252" lon="2.96284">
        <ele>91</ele>
        <time>2022-05-21 13:45:15</time>
      </trkpt>
      <trkpt lat="42.36255" lon="2.96281">
        <ele>91.2</ele>
        <time>2022-05-21 13:45:16</time>
      </trkpt>
      <trkpt lat="42.36258" lon="2.96277">
        <ele>91.4</ele>
        <time>2022-05-21 13:45:17</time>
      </trkpt>
      <trkpt lat="42.36261" lon="2.96273">
        <ele>91.6</ele>
        <time>2022-05-21 13:45:18</time>
      </trkpt>
      <trkpt lat="42.36264" lon="2.96269">
        <ele>91.6</ele>
        <time>2022-05-21 13:45:19</time>
      </trkpt>
      <trkpt lat="42.36267" lon="2.96266">
        <ele>91.8</ele>
        <time>2022-05-21 13:45:20</time>
      </trkpt>
      <trkpt lat="42.36271" lon="2.96262">
        <ele>91.8</ele>
        <time>2022-05-21 13:45:21</time>
      </trkpt>
      <trkpt lat="42.36275" lon="2.96257">
        <ele>92</ele>
        <time>2022-05-21 13:45:22</time>
      </trkpt>
      <trkpt lat="42.36278" lon="2.96253">
        <ele>92.2</ele>
        <time>2022-05-21 13:45:23</time>
      </trkpt>
      <trkpt lat="42.36282" lon="2.96249">
        <ele>92.2</ele>
        <time>2022-05-21 13:45:24</time>
      </trkpt>
      <trkpt lat="42.36285" lon="2.96245">
        <ele>92.4</ele>
        <time>2022-05-21 13:45:25</time>
      </trkpt>
      <trkpt lat="42.36288" lon="2.96241">
        <ele>92.4</ele>
        <time>2022-05-21 13:45:26</time>
      </trkpt>
      <trkpt lat="42.36292" lon="2.96237">
        <ele>92.4</ele>
        <time>2022-05-21 13:45:27</time>
      </trkpt>
      <trkpt lat="42.36295" lon="2.96233">
        <ele>92.6</ele>
        <time>2022-05-21 13:45:28</time>
      </trkpt>
      <trkpt lat="42.36299" lon="2.96229">
        <ele>92.6</ele>
        <time>2022-05-21 13:45:29</time>
      </trkpt>
      <trkpt lat="42.36302" lon="2.96225">
        <ele>92.6</ele>
        <time>2022-05-21 13:45:30</time>
      </trkpt>
      <trkpt lat="42.36305" lon="2.9622">
        <ele>92.8</ele>
        <time>2022-05-21 13:45:31</time>
      </trkpt>
      <trkpt lat="42.36309" lon="2.96216">
        <ele>92.8</ele>
        <time>2022-05-21 13:45:32</time>
      </trkpt>
      <trkpt lat="42.36313" lon="2.96212">
        <ele>92.8</ele>
        <time>2022-05-21 13:45:33</time>
      </trkpt>
      <trkpt lat="42.36317" lon="2.96207">
        <ele>92.8</ele>
        <time>2022-05-21 13:45:34</time>
      </trkpt>
      <trkpt lat="42.3632" lon="2.96203">
        <ele>92.8</ele>
        <time>2022-05-21 13:45:35</time>
      </trkpt>
      <trkpt lat="42.36324" lon="2.96199">
        <ele>92.8</ele>
        <time>2022-05-21 13:45:36</time>
      </trkpt>
      <trkpt lat="42.36327" lon="2.96195">
        <ele>92.8</ele>
        <time>2022-05-21 13:45:37</time>
      </trkpt>
      <trkpt lat="42.36331" lon="2.96191">
        <ele>92.8</ele>
        <time>2022-05-21 13:45:38</time>
      </trkpt>
      <trkpt lat="42.36335" lon="2.96186">
        <ele>92.8</ele>
        <time>2022-05-21 13:45:39</time>
      </trkpt>
      <trkpt lat="42.36338" lon="2.96182">
        <ele>93</ele>
        <time>2022-05-21 13:45:40</time>
      </trkpt>
      <trkpt lat="42.36342" lon="2.96178">
        <ele>93</ele>
        <time>2022-05-21 13:45:41</time>
      </trkpt>
      <trkpt lat="42.36346" lon="2.96174">
        <ele>93</ele>
        <time>2022-05-21 13:45:42</time>
      </trkpt>
      <trkpt lat="42.36349" lon="2.9617">
        <ele>93</ele>
        <time>2022-05-21 13:45:43</time>
      </trkpt>
      <trkpt lat="42.36353" lon="2.96166">
        <ele>93.2</ele>
        <time>2022-05-21 13:45:44</time>
      </trkpt>
      <trkpt lat="42.36356" lon="2.96162">
        <ele>93.2</ele>
        <time>2022-05-21 13:45:45</time>
      </trkpt>
      <trkpt lat="42.36359" lon="2.96158">
        <ele>93.4</ele>
        <time>2022-05-21 13:45:46</time>
      </trkpt>
      <trkpt lat="42.36362" lon="2.96154">
        <ele>93.4</ele>
        <time>2022-05-21 13:45:47</time>
      </trkpt>
      <trkpt lat="42.36365" lon="2.96149">
        <ele>93.6</ele>
        <time>2022-05-21 13:45:48</time>
      </trkpt>
      <trkpt lat="42.36369" lon="2.96145">
        <ele>93.8</ele>
        <time>2022-05-21 13:45:49</time>
      </trkpt>
      <trkpt lat="42.36372" lon="2.96141">
        <ele>93.8</ele>
        <time>2022-05-21 13:45:50</time>
      </trkpt>
      <trkpt lat="42.36374" lon="2.96136">
        <ele>94</ele>
        <time>2022-05-21 13:45:51</time>
      </trkpt>
      <trkpt lat="42.36377" lon="2.96131">
        <ele>94</ele>
        <time>2022-05-21 13:45:52</time>
      </trkpt>
      <trkpt lat="42.36379" lon="2.96126">
        <ele>94</ele>
        <time>2022-05-21 13:45:53</time>
      </trkpt>
      <trkpt lat="42.36382" lon="2.96121">
        <ele>94.2</ele>
        <time>2022-05-21 13:45:54</time>
      </trkpt>
      <trkpt lat="42.36384" lon="2.96116">
        <ele>94.2</ele>
        <time>2022-05-21 13:45:55</time>
      </trkpt>
      <trkpt lat="42.36387" lon="2.96111">
        <ele>94.4</ele>
        <time>2022-05-21 13:45:56</time>
      </trkpt>
      <trkpt lat="42.36389" lon="2.96106">
        <ele>94.4</ele>
        <time>2022-05-21 13:45:57</time>
      </trkpt>
      <trkpt lat="42.36392" lon="2.96101">
        <ele>94.6</ele>
        <time>2022-05-21 13:45:58</time>
      </trkpt>
      <trkpt lat="42.36394" lon="2.96096">
        <ele>94.6</ele>
        <time>2022-05-21 13:45:59</time>
      </trkpt>
      <trkpt lat="42.36397" lon="2.96091">
        <ele>94.8</ele>
        <time>2022-05-21 13:46:00</time>
      </trkpt>
      <trkpt lat="42.36399" lon="2.96087">
        <ele>95</ele>
        <time>2022-05-21 13:46:01</time>
      </trkpt>
      <trkpt lat="42.36402" lon="2.96082">
        <ele>95</ele>
        <time>2022-05-21 13:46:02</time>
      </trkpt>
      <trkpt lat="42.36404" lon="2.96077">
        <ele>95.2</ele>
        <time>2022-05-21 13:46:03</time>
      </trkpt>
      <trkpt lat="42.36406" lon="2.96073">
        <ele>95.4</ele>
        <time>2022-05-21 13:46:04</time>
      </trkpt>
      <trkpt lat="42.36408" lon="2.96068">
        <ele>95.4</ele>
        <time>2022-05-21 13:46:05</time>
      </trkpt>
      <trkpt lat="42.3641" lon="2.96064">
        <ele>95.6</ele>
        <time>2022-05-21 13:46:06</time>
      </trkpt>
      <trkpt lat="42.36413" lon="2.96059">
        <ele>95.8</ele>
        <time>2022-05-21 13:46:07</time>
      </trkpt>
      <trkpt lat="42.36415" lon="2.96055">
        <ele>95.8</ele>
        <time>2022-05-21 13:46:08</time>
      </trkpt>
      <trkpt lat="42.36418" lon="2.9605">
        <ele>96</ele>
        <time>2022-05-21 13:46:09</time>
      </trkpt>
      <trkpt lat="42.3642" lon="2.96046">
        <ele>96.2</ele>
        <time>2022-05-21 13:46:10</time>
      </trkpt>
      <trkpt lat="42.36422" lon="2.96041">
        <ele>96.2</ele>
        <time>2022-05-21 13:46:11</time>
      </trkpt>
      <trkpt lat="42.36424" lon="2.96037">
        <ele>96.4</ele>
        <time>2022-05-21 13:46:12</time>
      </trkpt>
      <trkpt lat="42.36427" lon="2.96032">
        <ele>96.4</ele>
        <time>2022-05-21 13:46:13</time>
      </trkpt>
      <trkpt lat="42.36429" lon="2.96028">
        <ele>96.6</ele>
        <time>2022-05-21 13:46:14</time>
      </trkpt>
      <trkpt lat="42.36431" lon="2.96023">
        <ele>96.6</ele>
        <time>2022-05-21 13:46:15</time>
      </trkpt>
      <trkpt lat="42.36433" lon="2.96019">
        <ele>96.8</ele>
        <time>2022-05-21 13:46:16</time>
      </trkpt>
      <trkpt lat="42.36436" lon="2.96014">
        <ele>97</ele>
        <time>2022-05-21 13:46:17</time>
      </trkpt>
      <trkpt lat="42.36438" lon="2.9601">
        <ele>97</ele>
        <time>2022-05-21 13:46:18</time>
      </trkpt>
      <trkpt lat="42.3644" lon="2.96005">
        <ele>97.2</ele>
        <time>2022-05-21 13:46:19</time>
      </trkpt>
      <trkpt lat="42.36443" lon="2.96001">
        <ele>97.2</ele>
        <time>2022-05-21 13:46:20</time>
      </trkpt>
      <trkpt lat="42.36445" lon="2.95996">
        <ele>97.4</ele>
        <time>2022-05-21 13:46:21</time>
      </trkpt>
      <trkpt lat="42.36447" lon="2.95992">
        <ele>97.4</ele>
        <time>2022-05-21 13:46:22</time>
      </trkpt>
      <trkpt lat="42.3645" lon="2.95987">
        <ele>97.6</ele>
        <time>2022-05-21 13:46:23</time>
      </trkpt>
      <trkpt lat="42.36452" lon="2.95983">
        <ele>97.6</ele>
        <time>2022-05-21 13:46:24</time>
      </trkpt>
      <trkpt lat="42.36454" lon="2.95978">
        <ele>97.8</ele>
        <time>2022-05-21 13:46:25</time>
      </trkpt>
      <trkpt lat="42.36457" lon="2.95974">
        <ele>98</ele>
        <time>2022-05-21 13:46:26</time>
      </trkpt>
      <trkpt lat="42.36459" lon="2.95969">
        <ele>98.2</ele>
        <time>2022-05-21 13:46:27</time>
      </trkpt>
      <trkpt lat="42.36461" lon="2.95965">
        <ele>98.2</ele>
        <time>2022-05-21 13:46:28</time>
      </trkpt>
      <trkpt lat="42.36464" lon="2.95961">
        <ele>98.4</ele>
        <time>2022-05-21 13:46:29</time>
      </trkpt>
      <trkpt lat="42.36466" lon="2.95957">
        <ele>98.4</ele>
        <time>2022-05-21 13:46:30</time>
      </trkpt>
      <trkpt lat="42.36468" lon="2.95952">
        <ele>98.6</ele>
        <time>2022-05-21 13:46:31</time>
      </trkpt>
      <trkpt lat="42.36471" lon="2.95948">
        <ele>98.6</ele>
        <time>2022-05-21 13:46:32</time>
      </trkpt>
      <trkpt lat="42.36475" lon="2.95943">
        <ele>98.8</ele>
        <time>2022-05-21 13:46:33</time>
      </trkpt>
      <trkpt lat="42.36478" lon="2.95939">
        <ele>98.8</ele>
        <time>2022-05-21 13:46:34</time>
      </trkpt>
      <trkpt lat="42.36481" lon="2.95935">
        <ele>99</ele>
        <time>2022-05-21 13:46:35</time>
      </trkpt>
      <trkpt lat="42.36484" lon="2.95932">
        <ele>99</ele>
        <time>2022-05-21 13:46:36</time>
      </trkpt>
      <trkpt lat="42.36488" lon="2.95928">
        <ele>99.2</ele>
        <time>2022-05-21 13:46:37</time>
      </trkpt>
      <trkpt lat="42.36491" lon="2.95925">
        <ele>99.2</ele>
        <time>2022-05-21 13:46:38</time>
      </trkpt>
      <trkpt lat="42.36495" lon="2.95922">
        <ele>99.4</ele>
        <time>2022-05-21 13:46:39</time>
      </trkpt>
      <trkpt lat="42.36498" lon="2.95919">
        <ele>99.4</ele>
        <time>2022-05-21 13:46:40</time>
      </trkpt>
      <trkpt lat="42.36501" lon="2.95916">
        <ele>99.6</ele>
        <time>2022-05-21 13:46:41</time>
      </trkpt>
      <trkpt lat="42.36505" lon="2.95914">
        <ele>99.6</ele>
        <time>2022-05-21 13:46:42</time>
      </trkpt>
      <trkpt lat="42.36508" lon="2.95911">
        <ele>99.8</ele>
        <time>2022-05-21 13:46:43</time>
      </trkpt>
      <trkpt lat="42.36512" lon="2.95908">
        <ele>99.8</ele>
        <time>2022-05-21 13:46:44</time>
      </trkpt>
      <trkpt lat="42.36516" lon="2.95906">
        <ele>99.8</ele>
        <time>2022-05-21 13:46:45</time>
      </trkpt>
      <trkpt lat="42.36519" lon="2.95903">
        <ele>100</ele>
        <time>2022-05-21 13:46:46</time>
      </trkpt>
      <trkpt lat="42.36523" lon="2.95901">
        <ele>100</ele>
        <time>2022-05-21 13:46:47</time>
      </trkpt>
      <trkpt lat="42.36526" lon="2.95898">
        <ele>100.2</ele>
        <time>2022-05-21 13:46:48</time>
      </trkpt>
      <trkpt lat="42.3653" lon="2.95896">
        <ele>100.4</ele>
        <time>2022-05-21 13:46:49</time>
      </trkpt>
      <trkpt lat="42.36533" lon="2.95893">
        <ele>100.4</ele>
        <time>2022-05-21 13:46:50</time>
      </trkpt>
      <trkpt lat="42.36537" lon="2.9589">
        <ele>100.6</ele>
        <time>2022-05-21 13:46:51</time>
      </trkpt>
      <trkpt lat="42.3654" lon="2.95887">
        <ele>100.8</ele>
        <time>2022-05-21 13:46:52</time>
      </trkpt>
      <trkpt lat="42.36544" lon="2.95885">
        <ele>100.8</ele>
        <time>2022-05-21 13:46:53</time>
      </trkpt>
      <trkpt lat="42.36548" lon="2.95882">
        <ele>101</ele>
        <time>2022-05-21 13:46:54</time>
      </trkpt>
      <trkpt lat="42.36552" lon="2.9588">
        <ele>101.2</ele>
        <time>2022-05-21 13:46:55</time>
      </trkpt>
      <trkpt lat="42.36556" lon="2.95877">
        <ele>101.2</ele>
        <time>2022-05-21 13:46:56</time>
      </trkpt>
      <trkpt lat="42.36559" lon="2.95874">
        <ele>101.4</ele>
        <time>2022-05-21 13:46:57</time>
      </trkpt>
      <trkpt lat="42.36563" lon="2.95872">
        <ele>101.6</ele>
        <time>2022-05-21 13:46:58</time>
      </trkpt>
      <trkpt lat="42.36567" lon="2.95869">
        <ele>101.6</ele>
        <time>2022-05-21 13:46:59</time>
      </trkpt>
      <trkpt lat="42.3657" lon="2.95866">
        <ele>101.8</ele>
        <time>2022-05-21 13:47:00</time>
      </trkpt>
      <trkpt lat="42.36573" lon="2.95863">
        <ele>101.8</ele>
        <time>2022-05-21 13:47:01</time>
      </trkpt>
      <trkpt lat="42.36577" lon="2.9586">
        <ele>102</ele>
        <time>2022-05-21 13:47:02</time>
      </trkpt>
      <trkpt lat="42.36581" lon="2.95856">
        <ele>102.2</ele>
        <time>2022-05-21 13:47:03</time>
      </trkpt>
      <trkpt lat="42.36584" lon="2.95853">
        <ele>102.2</ele>
        <time>2022-05-21 13:47:04</time>
      </trkpt>
      <trkpt lat="42.36587" lon="2.9585">
        <ele>102.4</ele>
        <time>2022-05-21 13:47:05</time>
      </trkpt>
      <trkpt lat="42.3659" lon="2.95846">
        <ele>102.6</ele>
        <time>2022-05-21 13:47:06</time>
      </trkpt>
      <trkpt lat="42.36593" lon="2.95843">
        <ele>102.8</ele>
        <time>2022-05-21 13:47:07</time>
      </trkpt>
      <trkpt lat="42.36596" lon="2.95839">
        <ele>103</ele>
        <time>2022-05-21 13:47:08</time>
      </trkpt>
      <trkpt lat="42.36599" lon="2.95835">
        <ele>103</ele>
        <time>2022-05-21 13:47:09</time>
      </trkpt>
      <trkpt lat="42.36602" lon="2.95831">
        <ele>103.2</ele>
        <time>2022-05-21 13:47:10</time>
      </trkpt>
      <trkpt lat="42.36605" lon="2.95827">
        <ele>103.2</ele>
        <time>2022-05-21 13:47:11</time>
      </trkpt>
      <trkpt lat="42.36608" lon="2.95824">
        <ele>103.2</ele>
        <time>2022-05-21 13:47:12</time>
      </trkpt>
      <trkpt lat="42.36611" lon="2.9582">
        <ele>103.4</ele>
        <time>2022-05-21 13:47:13</time>
      </trkpt>
      <trkpt lat="42.36614" lon="2.95816">
        <ele>103.4</ele>
        <time>2022-05-21 13:47:14</time>
      </trkpt>
      <trkpt lat="42.36617" lon="2.95812">
        <ele>103.4</ele>
        <time>2022-05-21 13:47:15</time>
      </trkpt>
      <trkpt lat="42.3662" lon="2.95807">
        <ele>103.4</ele>
        <time>2022-05-21 13:47:16</time>
      </trkpt>
      <trkpt lat="42.36623" lon="2.95803">
        <ele>103.4</ele>
        <time>2022-05-21 13:47:17</time>
      </trkpt>
      <trkpt lat="42.36626" lon="2.95799">
        <ele>103.6</ele>
        <time>2022-05-21 13:47:18</time>
      </trkpt>
      <trkpt lat="42.36629" lon="2.95795">
        <ele>103.6</ele>
        <time>2022-05-21 13:47:19</time>
      </trkpt>
      <trkpt lat="42.36632" lon="2.95791">
        <ele>103.8</ele>
        <time>2022-05-21 13:47:20</time>
      </trkpt>
      <trkpt lat="42.36635" lon="2.95787">
        <ele>103.8</ele>
        <time>2022-05-21 13:47:21</time>
      </trkpt>
      <trkpt lat="42.36638" lon="2.95783">
        <ele>104</ele>
        <time>2022-05-21 13:47:22</time>
      </trkpt>
      <trkpt lat="42.36642" lon="2.95779">
        <ele>104</ele>
        <time>2022-05-21 13:47:23</time>
      </trkpt>
      <trkpt lat="42.36645" lon="2.95774">
        <ele>104</ele>
        <time>2022-05-21 13:47:24</time>
      </trkpt>
      <trkpt lat="42.36648" lon="2.9577">
        <ele>104</ele>
        <time>2022-05-21 13:47:25</time>
      </trkpt>
      <trkpt lat="42.36652" lon="2.95766">
        <ele>104.2</ele>
        <time>2022-05-21 13:47:26</time>
      </trkpt>
      <trkpt lat="42.36655" lon="2.95762">
        <ele>104.2</ele>
        <time>2022-05-21 13:47:27</time>
      </trkpt>
      <trkpt lat="42.36658" lon="2.95758">
        <ele>104.2</ele>
        <time>2022-05-21 13:47:28</time>
      </trkpt>
      <trkpt lat="42.36661" lon="2.95754">
        <ele>104.4</ele>
        <time>2022-05-21 13:47:29</time>
      </trkpt>
      <trkpt lat="42.36664" lon="2.95749">
        <ele>104.4</ele>
        <time>2022-05-21 13:47:30</time>
      </trkpt>
      <trkpt lat="42.36667" lon="2.95745">
        <ele>104.6</ele>
        <time>2022-05-21 13:47:31</time>
      </trkpt>
      <trkpt lat="42.36669" lon="2.95741">
        <ele>104.8</ele>
        <time>2022-05-21 13:47:32</time>
      </trkpt>
      <trkpt lat="42.36672" lon="2.95737">
        <ele>104.8</ele>
        <time>2022-05-21 13:47:33</time>
      </trkpt>
      <trkpt lat="42.36675" lon="2.95732">
        <ele>104.8</ele>
        <time>2022-05-21 13:47:34</time>
      </trkpt>
      <trkpt lat="42.36677" lon="2.95727">
        <ele>105</ele>
        <time>2022-05-21 13:47:35</time>
      </trkpt>
      <trkpt lat="42.3668" lon="2.95722">
        <ele>105</ele>
        <time>2022-05-21 13:47:36</time>
      </trkpt>
      <trkpt lat="42.36682" lon="2.95717">
        <ele>105</ele>
        <time>2022-05-21 13:47:37</time>
      </trkpt>
      <trkpt lat="42.36684" lon="2.95712">
        <ele>105</ele>
        <time>2022-05-21 13:47:38</time>
      </trkpt>
      <trkpt lat="42.36686" lon="2.95706">
        <ele>105</ele>
        <time>2022-05-21 13:47:39</time>
      </trkpt>
      <trkpt lat="42.36688" lon="2.957">
        <ele>105.2</ele>
        <time>2022-05-21 13:47:40</time>
      </trkpt>
      <trkpt lat="42.3669" lon="2.95694">
        <ele>105.2</ele>
        <time>2022-05-21 13:47:41</time>
      </trkpt>
      <trkpt lat="42.36691" lon="2.95688">
        <ele>105.4</ele>
        <time>2022-05-21 13:47:42</time>
      </trkpt>
      <trkpt lat="42.36693" lon="2.95682">
        <ele>105.4</ele>
        <time>2022-05-21 13:47:43</time>
      </trkpt>
      <trkpt lat="42.36695" lon="2.95677">
        <ele>105.4</ele>
        <time>2022-05-21 13:47:44</time>
      </trkpt>
      <trkpt lat="42.36697" lon="2.95671">
        <ele>105.6</ele>
        <time>2022-05-21 13:47:45</time>
      </trkpt>
      <trkpt lat="42.36699" lon="2.95664">
        <ele>105.6</ele>
        <time>2022-05-21 13:47:46</time>
      </trkpt>
      <trkpt lat="42.367" lon="2.95658">
        <ele>105.6</ele>
        <time>2022-05-21 13:47:47</time>
      </trkpt>
      <trkpt lat="42.36702" lon="2.95651">
        <ele>105.8</ele>
        <time>2022-05-21 13:47:48</time>
      </trkpt>
      <trkpt lat="42.36704" lon="2.95644">
        <ele>105.8</ele>
        <time>2022-05-21 13:47:49</time>
      </trkpt>
      <trkpt lat="42.36706" lon="2.95638">
        <ele>106</ele>
        <time>2022-05-21 13:47:50</time>
      </trkpt>
      <trkpt lat="42.36708" lon="2.95631">
        <ele>106</ele>
        <time>2022-05-21 13:47:51</time>
      </trkpt>
      <trkpt lat="42.3671" lon="2.95625">
        <ele>106.2</ele>
        <time>2022-05-21 13:47:52</time>
      </trkpt>
      <trkpt lat="42.36712" lon="2.95619">
        <ele>106.4</ele>
        <time>2022-05-21 13:47:53</time>
      </trkpt>
      <trkpt lat="42.36713" lon="2.95613">
        <ele>106.4</ele>
        <time>2022-05-21 13:47:54</time>
      </trkpt>
      <trkpt lat="42.36715" lon="2.95607">
        <ele>106.6</ele>
        <time>2022-05-21 13:47:55</time>
      </trkpt>
      <trkpt lat="42.36717" lon="2.956">
        <ele>106.6</ele>
        <time>2022-05-21 13:47:56</time>
      </trkpt>
      <trkpt lat="42.36719" lon="2.95594">
        <ele>106.8</ele>
        <time>2022-05-21 13:47:57</time>
      </trkpt>
      <trkpt lat="42.3672" lon="2.95588">
        <ele>106.8</ele>
        <time>2022-05-21 13:47:58</time>
      </trkpt>
      <trkpt lat="42.36722" lon="2.95582">
        <ele>107</ele>
        <time>2022-05-21 13:47:59</time>
      </trkpt>
      <trkpt lat="42.36724" lon="2.95577">
        <ele>107.2</ele>
        <time>2022-05-21 13:48:00</time>
      </trkpt>
      <trkpt lat="42.36726" lon="2.95571">
        <ele>107.2</ele>
        <time>2022-05-21 13:48:01</time>
      </trkpt>
      <trkpt lat="42.36728" lon="2.95564">
        <ele>107.4</ele>
        <time>2022-05-21 13:48:02</time>
      </trkpt>
      <trkpt lat="42.3673" lon="2.95558">
        <ele>107.4</ele>
        <time>2022-05-21 13:48:03</time>
      </trkpt>
      <trkpt lat="42.36732" lon="2.95552">
        <ele>107.4</ele>
        <time>2022-05-21 13:48:04</time>
      </trkpt>
      <trkpt lat="42.36733" lon="2.95545">
        <ele>107.6</ele>
        <time>2022-05-21 13:48:05</time>
      </trkpt>
      <trkpt lat="42.36735" lon="2.95539">
        <ele>107.6</ele>
        <time>2022-05-21 13:48:06</time>
      </trkpt>
      <trkpt lat="42.36737" lon="2.95532">
        <ele>107.6</ele>
        <time>2022-05-21 13:48:07</time>
      </trkpt>
      <trkpt lat="42.36739" lon="2.95526">
        <ele>107.6</ele>
        <time>2022-05-21 13:48:08</time>
      </trkpt>
      <trkpt lat="42.36741" lon="2.9552">
        <ele>107.8</ele>
        <time>2022-05-21 13:48:09</time>
      </trkpt>
      <trkpt lat="42.36742" lon="2.95513">
        <ele>107.8</ele>
        <time>2022-05-21 13:48:10</time>
      </trkpt>
      <trkpt lat="42.36744" lon="2.95507">
        <ele>107.8</ele>
        <time>2022-05-21 13:48:11</time>
      </trkpt>
      <trkpt lat="42.36746" lon="2.95501">
        <ele>108</ele>
        <time>2022-05-21 13:48:12</time>
      </trkpt>
      <trkpt lat="42.36748" lon="2.95495">
        <ele>108</ele>
        <time>2022-05-21 13:48:13</time>
      </trkpt>
      <trkpt lat="42.36749" lon="2.95489">
        <ele>108.2</ele>
        <time>2022-05-21 13:48:14</time>
      </trkpt>
      <trkpt lat="42.36751" lon="2.95483">
        <ele>108.4</ele>
        <time>2022-05-21 13:48:15</time>
      </trkpt>
      <trkpt lat="42.36753" lon="2.95477">
        <ele>108.4</ele>
        <time>2022-05-21 13:48:16</time>
      </trkpt>
      <trkpt lat="42.36754" lon="2.95472">
        <ele>108.6</ele>
        <time>2022-05-21 13:48:17</time>
      </trkpt>
      <trkpt lat="42.36756" lon="2.95466">
        <ele>108.8</ele>
        <time>2022-05-21 13:48:18</time>
      </trkpt>
      <trkpt lat="42.36758" lon="2.95461">
        <ele>109.2</ele>
        <time>2022-05-21 13:48:19</time>
      </trkpt>
      <trkpt lat="42.36759" lon="2.95456">
        <ele>109.4</ele>
        <time>2022-05-21 13:48:20</time>
      </trkpt>
      <trkpt lat="42.36761" lon="2.95452">
        <ele>109.6</ele>
        <time>2022-05-21 13:48:21</time>
      </trkpt>
      <trkpt lat="42.36762" lon="2.95447">
        <ele>109.8</ele>
        <time>2022-05-21 13:48:22</time>
      </trkpt>
      <trkpt lat="42.36763" lon="2.95443">
        <ele>110</ele>
        <time>2022-05-21 13:48:23</time>
      </trkpt>
      <trkpt lat="42.36765" lon="2.95438">
        <ele>110.2</ele>
        <time>2022-05-21 13:48:24</time>
      </trkpt>
      <trkpt lat="42.36766" lon="2.95434">
        <ele>110.4</ele>
        <time>2022-05-21 13:48:25</time>
      </trkpt>
      <trkpt lat="42.36767" lon="2.9543">
        <ele>110.6</ele>
        <time>2022-05-21 13:48:26</time>
      </trkpt>
      <trkpt lat="42.36768" lon="2.95426">
        <ele>110.8</ele>
        <time>2022-05-21 13:48:27</time>
      </trkpt>
      <trkpt lat="42.3677" lon="2.95422">
        <ele>111</ele>
        <time>2022-05-21 13:48:28</time>
      </trkpt>
      <trkpt lat="42.36771" lon="2.95418">
        <ele>111.2</ele>
        <time>2022-05-21 13:48:29</time>
      </trkpt>
      <trkpt lat="42.36772" lon="2.95414">
        <ele>111.4</ele>
        <time>2022-05-21 13:48:30</time>
      </trkpt>
      <trkpt lat="42.36773" lon="2.9541">
        <ele>111.6</ele>
        <time>2022-05-21 13:48:31</time>
      </trkpt>
      <trkpt lat="42.36775" lon="2.95406">
        <ele>111.8</ele>
        <time>2022-05-21 13:48:32</time>
      </trkpt>
      <trkpt lat="42.36776" lon="2.95402">
        <ele>112</ele>
        <time>2022-05-21 13:48:33</time>
      </trkpt>
      <trkpt lat="42.36777" lon="2.95398">
        <ele>112.2</ele>
        <time>2022-05-21 13:48:34</time>
      </trkpt>
      <trkpt lat="42.36778" lon="2.95394">
        <ele>112.4</ele>
        <time>2022-05-21 13:48:35</time>
      </trkpt>
      <trkpt lat="42.36779" lon="2.95391">
        <ele>112.6</ele>
        <time>2022-05-21 13:48:36</time>
      </trkpt>
      <trkpt lat="42.3678" lon="2.95387">
        <ele>112.8</ele>
        <time>2022-05-21 13:48:37</time>
      </trkpt>
      <trkpt lat="42.36782" lon="2.95383">
        <ele>113</ele>
        <time>2022-05-21 13:48:38</time>
      </trkpt>
      <trkpt lat="42.36783" lon="2.95379">
        <ele>113.2</ele>
        <time>2022-05-21 13:48:39</time>
      </trkpt>
      <trkpt lat="42.36784" lon="2.95375">
        <ele>113.4</ele>
        <time>2022-05-21 13:48:40</time>
      </trkpt>
      <trkpt lat="42.36785" lon="2.95371">
        <ele>113.6</ele>
        <time>2022-05-21 13:48:41</time>
      </trkpt>
      <trkpt lat="42.36786" lon="2.95367">
        <ele>113.8</ele>
        <time>2022-05-21 13:48:42</time>
      </trkpt>
      <trkpt lat="42.36787" lon="2.95363">
        <ele>113.8</ele>
        <time>2022-05-21 13:48:43</time>
      </trkpt>
      <trkpt lat="42.36789" lon="2.95359">
        <ele>114</ele>
        <time>2022-05-21 13:48:44</time>
      </trkpt>
      <trkpt lat="42.3679" lon="2.95355">
        <ele>114.2</ele>
        <time>2022-05-21 13:48:45</time>
      </trkpt>
      <trkpt lat="42.36791" lon="2.95351">
        <ele>114.4</ele>
        <time>2022-05-21 13:48:46</time>
      </trkpt>
      <trkpt lat="42.36792" lon="2.95346">
        <ele>114.6</ele>
        <time>2022-05-21 13:48:47</time>
      </trkpt>
      <trkpt lat="42.36793" lon="2.95342">
        <ele>114.8</ele>
        <time>2022-05-21 13:48:48</time>
      </trkpt>
      <trkpt lat="42.36794" lon="2.95339">
        <ele>115</ele>
        <time>2022-05-21 13:48:49</time>
      </trkpt>
      <trkpt lat="42.36796" lon="2.95334">
        <ele>115.2</ele>
        <time>2022-05-21 13:48:50</time>
      </trkpt>
      <trkpt lat="42.36797" lon="2.9533">
        <ele>115.4</ele>
        <time>2022-05-21 13:48:51</time>
      </trkpt>
      <trkpt lat="42.36798" lon="2.95326">
        <ele>115.6</ele>
        <time>2022-05-21 13:48:52</time>
      </trkpt>
      <trkpt lat="42.36799" lon="2.95322">
        <ele>115.8</ele>
        <time>2022-05-21 13:48:53</time>
      </trkpt>
      <trkpt lat="42.36801" lon="2.95318">
        <ele>116</ele>
        <time>2022-05-21 13:48:54</time>
      </trkpt>
      <trkpt lat="42.36802" lon="2.95314">
        <ele>116.4</ele>
        <time>2022-05-21 13:48:55</time>
      </trkpt>
      <trkpt lat="42.36803" lon="2.9531">
        <ele>116.6</ele>
        <time>2022-05-21 13:48:56</time>
      </trkpt>
      <trkpt lat="42.36805" lon="2.95306">
        <ele>116.8</ele>
        <time>2022-05-21 13:48:57</time>
      </trkpt>
      <trkpt lat="42.36806" lon="2.95302">
        <ele>116.8</ele>
        <time>2022-05-21 13:48:58</time>
      </trkpt>
      <trkpt lat="42.36807" lon="2.95298">
        <ele>117</ele>
        <time>2022-05-21 13:48:59</time>
      </trkpt>
      <trkpt lat="42.36809" lon="2.95295">
        <ele>117.2</ele>
        <time>2022-05-21 13:49:00</time>
      </trkpt>
      <trkpt lat="42.3681" lon="2.95291">
        <ele>117.4</ele>
        <time>2022-05-21 13:49:01</time>
      </trkpt>
      <trkpt lat="42.36811" lon="2.95287">
        <ele>117.6</ele>
        <time>2022-05-21 13:49:02</time>
      </trkpt>
      <trkpt lat="42.36812" lon="2.95283">
        <ele>117.8</ele>
        <time>2022-05-21 13:49:03</time>
      </trkpt>
      <trkpt lat="42.36813" lon="2.95279">
        <ele>118</ele>
        <time>2022-05-21 13:49:04</time>
      </trkpt>
      <trkpt lat="42.36814" lon="2.95275">
        <ele>118.2</ele>
        <time>2022-05-21 13:49:05</time>
      </trkpt>
      <trkpt lat="42.36815" lon="2.95271">
        <ele>118.4</ele>
        <time>2022-05-21 13:49:06</time>
      </trkpt>
      <trkpt lat="42.36817" lon="2.95267">
        <ele>118.6</ele>
        <time>2022-05-21 13:49:07</time>
      </trkpt>
      <trkpt lat="42.36818" lon="2.95263">
        <ele>118.8</ele>
        <time>2022-05-21 13:49:08</time>
      </trkpt>
      <trkpt lat="42.36819" lon="2.95258">
        <ele>119</ele>
        <time>2022-05-21 13:49:09</time>
      </trkpt>
      <trkpt lat="42.36821" lon="2.95254">
        <ele>119.2</ele>
        <time>2022-05-21 13:49:10</time>
      </trkpt>
      <trkpt lat="42.36822" lon="2.9525">
        <ele>119.4</ele>
        <time>2022-05-21 13:49:11</time>
      </trkpt>
      <trkpt lat="42.36823" lon="2.95246">
        <ele>119.4</ele>
        <time>2022-05-21 13:49:12</time>
      </trkpt>
      <trkpt lat="42.36825" lon="2.95242">
        <ele>119.6</ele>
        <time>2022-05-21 13:49:13</time>
      </trkpt>
      <trkpt lat="42.36826" lon="2.95238">
        <ele>119.8</ele>
        <time>2022-05-21 13:49:14</time>
      </trkpt>
      <trkpt lat="42.36828" lon="2.95233">
        <ele>119.8</ele>
        <time>2022-05-21 13:49:15</time>
      </trkpt>
      <trkpt lat="42.3683" lon="2.95229">
        <ele>119.8</ele>
        <time>2022-05-21 13:49:16</time>
      </trkpt>
      <trkpt lat="42.36833" lon="2.95224">
        <ele>120</ele>
        <time>2022-05-21 13:49:17</time>
      </trkpt>
      <trkpt lat="42.36835" lon="2.9522">
        <ele>120</ele>
        <time>2022-05-21 13:49:18</time>
      </trkpt>
      <trkpt lat="42.36838" lon="2.95216">
        <ele>120</ele>
        <time>2022-05-21 13:49:19</time>
      </trkpt>
      <trkpt lat="42.36841" lon="2.95211">
        <ele>120</ele>
        <time>2022-05-21 13:49:20</time>
      </trkpt>
      <trkpt lat="42.36844" lon="2.95207">
        <ele>120</ele>
        <time>2022-05-21 13:49:21</time>
      </trkpt>
      <trkpt lat="42.36848" lon="2.95203">
        <ele>120</ele>
        <time>2022-05-21 13:49:22</time>
      </trkpt>
      <trkpt lat="42.36851" lon="2.95199">
        <ele>120</ele>
        <time>2022-05-21 13:49:23</time>
      </trkpt>
      <trkpt lat="42.36855" lon="2.95194">
        <ele>120</ele>
        <time>2022-05-21 13:49:24</time>
      </trkpt>
      <trkpt lat="42.36859" lon="2.9519">
        <ele>120</ele>
        <time>2022-05-21 13:49:25</time>
      </trkpt>
      <trkpt lat="42.36862" lon="2.95185">
        <ele>120</ele>
        <time>2022-05-21 13:49:26</time>
      </trkpt>
      <trkpt lat="42.36866" lon="2.95181">
        <ele>120</ele>
        <time>2022-05-21 13:49:27</time>
      </trkpt>
      <trkpt lat="42.3687" lon="2.95176">
        <ele>119.8</ele>
        <time>2022-05-21 13:49:28</time>
      </trkpt>
      <trkpt lat="42.36875" lon="2.95171">
        <ele>119.8</ele>
        <time>2022-05-21 13:49:29</time>
      </trkpt>
      <trkpt lat="42.36879" lon="2.95166">
        <ele>119.6</ele>
        <time>2022-05-21 13:49:30</time>
      </trkpt>
      <trkpt lat="42.36884" lon="2.9516">
        <ele>119.4</ele>
        <time>2022-05-21 13:49:31</time>
      </trkpt>
      <trkpt lat="42.36888" lon="2.95155">
        <ele>119.4</ele>
        <time>2022-05-21 13:49:32</time>
      </trkpt>
      <trkpt lat="42.36893" lon="2.9515">
        <ele>119.2</ele>
        <time>2022-05-21 13:49:33</time>
      </trkpt>
      <trkpt lat="42.36898" lon="2.95144">
        <ele>119.2</ele>
        <time>2022-05-21 13:49:34</time>
      </trkpt>
      <trkpt lat="42.36903" lon="2.95139">
        <ele>119</ele>
        <time>2022-05-21 13:49:35</time>
      </trkpt>
      <trkpt lat="42.36908" lon="2.95133">
        <ele>119</ele>
        <time>2022-05-21 13:49:36</time>
      </trkpt>
      <trkpt lat="42.36913" lon="2.95127">
        <ele>118.8</ele>
        <time>2022-05-21 13:49:37</time>
      </trkpt>
      <trkpt lat="42.36917" lon="2.95121">
        <ele>118.8</ele>
        <time>2022-05-21 13:49:38</time>
      </trkpt>
      <trkpt lat="42.36922" lon="2.95115">
        <ele>118.8</ele>
        <time>2022-05-21 13:49:39</time>
      </trkpt>
      <trkpt lat="42.36927" lon="2.95109">
        <ele>118.8</ele>
        <time>2022-05-21 13:49:40</time>
      </trkpt>
      <trkpt lat="42.36932" lon="2.95103">
        <ele>118.8</ele>
        <time>2022-05-21 13:49:41</time>
      </trkpt>
      <trkpt lat="42.36937" lon="2.95097">
        <ele>118.6</ele>
        <time>2022-05-21 13:49:42</time>
      </trkpt>
      <trkpt lat="42.36942" lon="2.95091">
        <ele>118.6</ele>
        <time>2022-05-21 13:49:43</time>
      </trkpt>
      <trkpt lat="42.36947" lon="2.95085">
        <ele>118.6</ele>
        <time>2022-05-21 13:49:44</time>
      </trkpt>
      <trkpt lat="42.36952" lon="2.9508">
        <ele>118.6</ele>
        <time>2022-05-21 13:49:45</time>
      </trkpt>
      <trkpt lat="42.36956" lon="2.95074">
        <ele>118.6</ele>
        <time>2022-05-21 13:49:46</time>
      </trkpt>
      <trkpt lat="42.3696" lon="2.95069">
        <ele>118.6</ele>
        <time>2022-05-21 13:49:47</time>
      </trkpt>
      <trkpt lat="42.36963" lon="2.95065">
        <ele>118.6</ele>
        <time>2022-05-21 13:49:48</time>
      </trkpt>
      <trkpt lat="42.3697" lon="2.95058">
        <ele>118.6</ele>
        <time>2022-05-21 13:49:49</time>
      </trkpt>
      <trkpt lat="42.36974" lon="2.95053">
        <ele>118.6</ele>
        <time>2022-05-21 13:49:50</time>
      </trkpt>
      <trkpt lat="42.36979" lon="2.95047">
        <ele>118.6</ele>
        <time>2022-05-21 13:49:51</time>
      </trkpt>
      <trkpt lat="42.36984" lon="2.95042">
        <ele>118.6</ele>
        <time>2022-05-21 13:49:52</time>
      </trkpt>
      <trkpt lat="42.36988" lon="2.95036">
        <ele>118.6</ele>
        <time>2022-05-21 13:49:53</time>
      </trkpt>
      <trkpt lat="42.36993" lon="2.95031">
        <ele>118.6</ele>
        <time>2022-05-21 13:49:54</time>
      </trkpt>
      <trkpt lat="42.36997" lon="2.95025">
        <ele>118.6</ele>
        <time>2022-05-21 13:49:55</time>
      </trkpt>
      <trkpt lat="42.37001" lon="2.9502">
        <ele>118.6</ele>
        <time>2022-05-21 13:49:56</time>
      </trkpt>
      <trkpt lat="42.37006" lon="2.95015">
        <ele>118.8</ele>
        <time>2022-05-21 13:49:57</time>
      </trkpt>
      <trkpt lat="42.3701" lon="2.9501">
        <ele>118.8</ele>
        <time>2022-05-21 13:49:58</time>
      </trkpt>
      <trkpt lat="42.37014" lon="2.95004">
        <ele>119</ele>
        <time>2022-05-21 13:49:59</time>
      </trkpt>
      <trkpt lat="42.37019" lon="2.94999">
        <ele>119</ele>
        <time>2022-05-21 13:50:00</time>
      </trkpt>
      <trkpt lat="42.37023" lon="2.94994">
        <ele>119</ele>
        <time>2022-05-21 13:50:01</time>
      </trkpt>
      <trkpt lat="42.37028" lon="2.94989">
        <ele>119.2</ele>
        <time>2022-05-21 13:50:02</time>
      </trkpt>
      <trkpt lat="42.37032" lon="2.94985">
        <ele>119.2</ele>
        <time>2022-05-21 13:50:03</time>
      </trkpt>
      <trkpt lat="42.37037" lon="2.94982">
        <ele>119</ele>
        <time>2022-05-21 13:50:04</time>
      </trkpt>
      <trkpt lat="42.37043" lon="2.94982">
        <ele>119.2</ele>
        <time>2022-05-21 13:50:05</time>
      </trkpt>
      <trkpt lat="42.37048" lon="2.94985">
        <ele>119.2</ele>
        <time>2022-05-21 13:50:06</time>
      </trkpt>
      <trkpt lat="42.37052" lon="2.94989">
        <ele>119.4</ele>
        <time>2022-05-21 13:50:07</time>
      </trkpt>
      <trkpt lat="42.37056" lon="2.94996">
        <ele>119.6</ele>
        <time>2022-05-21 13:50:08</time>
      </trkpt>
      <trkpt lat="42.37058" lon="2.95002">
        <ele>119.4</ele>
        <time>2022-05-21 13:50:09</time>
      </trkpt>
      <trkpt lat="42.37061" lon="2.95009">
        <ele>119.4</ele>
        <time>2022-05-21 13:50:10</time>
      </trkpt>
      <trkpt lat="42.37063" lon="2.95016">
        <ele>119.2</ele>
        <time>2022-05-21 13:50:11</time>
      </trkpt>
      <trkpt lat="42.37066" lon="2.95022">
        <ele>119.2</ele>
        <time>2022-05-21 13:50:12</time>
      </trkpt>
      <trkpt lat="42.37068" lon="2.95029">
        <ele>119</ele>
        <time>2022-05-21 13:50:13</time>
      </trkpt>
      <trkpt lat="42.37071" lon="2.95034">
        <ele>119</ele>
        <time>2022-05-21 13:50:14</time>
      </trkpt>
      <trkpt lat="42.37074" lon="2.9504">
        <ele>119</ele>
        <time>2022-05-21 13:50:15</time>
      </trkpt>
      <trkpt lat="42.37077" lon="2.95046">
        <ele>119</ele>
        <time>2022-05-21 13:50:16</time>
      </trkpt>
      <trkpt lat="42.37081" lon="2.9505">
        <ele>119.2</ele>
        <time>2022-05-21 13:50:17</time>
      </trkpt>
      <trkpt lat="42.37084" lon="2.95055">
        <ele>119.2</ele>
        <time>2022-05-21 13:50:18</time>
      </trkpt>
      <trkpt lat="42.37088" lon="2.95058">
        <ele>119.4</ele>
        <time>2022-05-21 13:50:19</time>
      </trkpt>
      <trkpt lat="42.37092" lon="2.95061">
        <ele>119.4</ele>
        <time>2022-05-21 13:50:20</time>
      </trkpt>
      <trkpt lat="42.37096" lon="2.95064">
        <ele>119.8</ele>
        <time>2022-05-21 13:50:21</time>
      </trkpt>
      <trkpt lat="42.371" lon="2.95066">
        <ele>120</ele>
        <time>2022-05-21 13:50:22</time>
      </trkpt>
      <trkpt lat="42.37104" lon="2.95067">
        <ele>120.2</ele>
        <time>2022-05-21 13:50:23</time>
      </trkpt>
      <trkpt lat="42.37107" lon="2.95067">
        <ele>120.6</ele>
        <time>2022-05-21 13:50:24</time>
      </trkpt>
      <trkpt lat="42.37111" lon="2.95067">
        <ele>120.8</ele>
        <time>2022-05-21 13:50:25</time>
      </trkpt>
      <trkpt lat="42.37115" lon="2.95067">
        <ele>121</ele>
        <time>2022-05-21 13:50:26</time>
      </trkpt>
      <trkpt lat="42.37118" lon="2.95067">
        <ele>121.2</ele>
        <time>2022-05-21 13:50:27</time>
      </trkpt>
      <trkpt lat="42.37122" lon="2.95067">
        <ele>121.4</ele>
        <time>2022-05-21 13:50:28</time>
      </trkpt>
      <trkpt lat="42.37126" lon="2.95067">
        <ele>121.4</ele>
        <time>2022-05-21 13:50:29</time>
      </trkpt>
      <trkpt lat="42.3713" lon="2.95067">
        <ele>121.6</ele>
        <time>2022-05-21 13:50:30</time>
      </trkpt>
      <trkpt lat="42.37134" lon="2.95067">
        <ele>121.6</ele>
        <time>2022-05-21 13:50:31</time>
      </trkpt>
      <trkpt lat="42.37139" lon="2.95066">
        <ele>121.6</ele>
        <time>2022-05-21 13:50:32</time>
      </trkpt>
      <trkpt lat="42.37145" lon="2.95066">
        <ele>121.6</ele>
        <time>2022-05-21 13:50:33</time>
      </trkpt>
      <trkpt lat="42.3715" lon="2.95066">
        <ele>121.6</ele>
        <time>2022-05-21 13:50:34</time>
      </trkpt>
      <trkpt lat="42.37155" lon="2.95066">
        <ele>121.6</ele>
        <time>2022-05-21 13:50:35</time>
      </trkpt>
      <trkpt lat="42.3716" lon="2.95066">
        <ele>121.6</ele>
        <time>2022-05-21 13:50:36</time>
      </trkpt>
      <trkpt lat="42.37165" lon="2.95067">
        <ele>121.6</ele>
        <time>2022-05-21 13:50:37</time>
      </trkpt>
      <trkpt lat="42.3717" lon="2.95068">
        <ele>121.6</ele>
        <time>2022-05-21 13:50:38</time>
      </trkpt>
      <trkpt lat="42.37176" lon="2.95069">
        <ele>121.6</ele>
        <time>2022-05-21 13:50:39</time>
      </trkpt>
      <trkpt lat="42.37182" lon="2.95069">
        <ele>121.6</ele>
        <time>2022-05-21 13:50:40</time>
      </trkpt>
      <trkpt lat="42.37187" lon="2.9507">
        <ele>121.6</ele>
        <time>2022-05-21 13:50:41</time>
      </trkpt>
      <trkpt lat="42.37194" lon="2.95072">
        <ele>121.6</ele>
        <time>2022-05-21 13:50:42</time>
      </trkpt>
      <trkpt lat="42.37199" lon="2.95073">
        <ele>121.4</ele>
        <time>2022-05-21 13:50:43</time>
      </trkpt>
      <trkpt lat="42.37205" lon="2.95076">
        <ele>121.2</ele>
        <time>2022-05-21 13:50:44</time>
      </trkpt>
      <trkpt lat="42.3721" lon="2.95078">
        <ele>121.2</ele>
        <time>2022-05-21 13:50:45</time>
      </trkpt>
      <trkpt lat="42.37216" lon="2.95081">
        <ele>121</ele>
        <time>2022-05-21 13:50:46</time>
      </trkpt>
      <trkpt lat="42.37221" lon="2.95084">
        <ele>121</ele>
        <time>2022-05-21 13:50:47</time>
      </trkpt>
      <trkpt lat="42.37226" lon="2.95087">
        <ele>121</ele>
        <time>2022-05-21 13:50:48</time>
      </trkpt>
      <trkpt lat="42.37231" lon="2.9509">
        <ele>120.8</ele>
        <time>2022-05-21 13:50:49</time>
      </trkpt>
      <trkpt lat="42.37237" lon="2.95093">
        <ele>120.8</ele>
        <time>2022-05-21 13:50:50</time>
      </trkpt>
      <trkpt lat="42.37242" lon="2.95096">
        <ele>120.8</ele>
        <time>2022-05-21 13:50:51</time>
      </trkpt>
      <trkpt lat="42.37247" lon="2.95099">
        <ele>120.8</ele>
        <time>2022-05-21 13:50:52</time>
      </trkpt>
      <trkpt lat="42.37253" lon="2.95102">
        <ele>120.8</ele>
        <time>2022-05-21 13:50:53</time>
      </trkpt>
      <trkpt lat="42.37258" lon="2.95105">
        <ele>120.6</ele>
        <time>2022-05-21 13:50:54</time>
      </trkpt>
      <trkpt lat="42.37264" lon="2.95107">
        <ele>120.6</ele>
        <time>2022-05-21 13:50:55</time>
      </trkpt>
      <trkpt lat="42.37269" lon="2.95109">
        <ele>120.6</ele>
        <time>2022-05-21 13:50:56</time>
      </trkpt>
      <trkpt lat="42.37275" lon="2.95111">
        <ele>120.6</ele>
        <time>2022-05-21 13:50:57</time>
      </trkpt>
      <trkpt lat="42.37281" lon="2.95113">
        <ele>120.8</ele>
        <time>2022-05-21 13:50:58</time>
      </trkpt>
      <trkpt lat="42.37286" lon="2.95114">
        <ele>120.8</ele>
        <time>2022-05-21 13:50:59</time>
      </trkpt>
      <trkpt lat="42.37292" lon="2.95116">
        <ele>120.8</ele>
        <time>2022-05-21 13:51:00</time>
      </trkpt>
      <trkpt lat="42.37299" lon="2.95118">
        <ele>120.8</ele>
        <time>2022-05-21 13:51:01</time>
      </trkpt>
      <trkpt lat="42.37304" lon="2.95119">
        <ele>120.8</ele>
        <time>2022-05-21 13:51:02</time>
      </trkpt>
      <trkpt lat="42.3731" lon="2.95121">
        <ele>121</ele>
        <time>2022-05-21 13:51:03</time>
      </trkpt>
      <trkpt lat="42.37316" lon="2.95123">
        <ele>121</ele>
        <time>2022-05-21 13:51:04</time>
      </trkpt>
      <trkpt lat="42.37322" lon="2.95125">
        <ele>121</ele>
        <time>2022-05-21 13:51:05</time>
      </trkpt>
      <trkpt lat="42.37327" lon="2.95126">
        <ele>121</ele>
        <time>2022-05-21 13:51:06</time>
      </trkpt>
      <trkpt lat="42.37333" lon="2.95128">
        <ele>121</ele>
        <time>2022-05-21 13:51:07</time>
      </trkpt>
      <trkpt lat="42.37339" lon="2.9513">
        <ele>121.2</ele>
        <time>2022-05-21 13:51:08</time>
      </trkpt>
      <trkpt lat="42.37345" lon="2.95131">
        <ele>121.2</ele>
        <time>2022-05-21 13:51:09</time>
      </trkpt>
      <trkpt lat="42.3735" lon="2.95133">
        <ele>121.4</ele>
        <time>2022-05-21 13:51:10</time>
      </trkpt>
      <trkpt lat="42.37355" lon="2.95134">
        <ele>121.6</ele>
        <time>2022-05-21 13:51:11</time>
      </trkpt>
      <trkpt lat="42.37361" lon="2.95135">
        <ele>121.8</ele>
        <time>2022-05-21 13:51:12</time>
      </trkpt>
      <trkpt lat="42.37365" lon="2.95136">
        <ele>122</ele>
        <time>2022-05-21 13:51:13</time>
      </trkpt>
      <trkpt lat="42.3737" lon="2.95136">
        <ele>122.2</ele>
        <time>2022-05-21 13:51:14</time>
      </trkpt>
      <trkpt lat="42.37375" lon="2.95137">
        <ele>122.4</ele>
        <time>2022-05-21 13:51:15</time>
      </trkpt>
      <trkpt lat="42.3738" lon="2.95136">
        <ele>122.6</ele>
        <time>2022-05-21 13:51:16</time>
      </trkpt>
      <trkpt lat="42.37385" lon="2.95136">
        <ele>122.8</ele>
        <time>2022-05-21 13:51:17</time>
      </trkpt>
      <trkpt lat="42.37389" lon="2.95135">
        <ele>123</ele>
        <time>2022-05-21 13:51:18</time>
      </trkpt>
      <trkpt lat="42.37393" lon="2.95133">
        <ele>123.2</ele>
        <time>2022-05-21 13:51:19</time>
      </trkpt>
      <trkpt lat="42.37398" lon="2.95132">
        <ele>123.4</ele>
        <time>2022-05-21 13:51:20</time>
      </trkpt>
      <trkpt lat="42.37402" lon="2.95129">
        <ele>123.6</ele>
        <time>2022-05-21 13:51:21</time>
      </trkpt>
      <trkpt lat="42.37406" lon="2.95126">
        <ele>123.6</ele>
        <time>2022-05-21 13:51:22</time>
      </trkpt>
      <trkpt lat="42.3741" lon="2.95122">
        <ele>123.6</ele>
        <time>2022-05-21 13:51:23</time>
      </trkpt>
      <trkpt lat="42.37415" lon="2.95118">
        <ele>123.4</ele>
        <time>2022-05-21 13:51:24</time>
      </trkpt>
      <trkpt lat="42.37419" lon="2.95113">
        <ele>123.4</ele>
        <time>2022-05-21 13:51:25</time>
      </trkpt>
      <trkpt lat="42.37424" lon="2.95108">
        <ele>123.2</ele>
        <time>2022-05-21 13:51:26</time>
      </trkpt>
      <trkpt lat="42.37429" lon="2.95103">
        <ele>123</ele>
        <time>2022-05-21 13:51:27</time>
      </trkpt>
      <trkpt lat="42.37434" lon="2.95097">
        <ele>122.6</ele>
        <time>2022-05-21 13:51:28</time>
      </trkpt>
      <trkpt lat="42.3744" lon="2.95091">
        <ele>122.2</ele>
        <time>2022-05-21 13:51:29</time>
      </trkpt>
      <trkpt lat="42.37445" lon="2.95085">
        <ele>122</ele>
        <time>2022-05-21 13:51:30</time>
      </trkpt>
      <trkpt lat="42.37451" lon="2.95079">
        <ele>121.6</ele>
        <time>2022-05-21 13:51:31</time>
      </trkpt>
      <trkpt lat="42.37458" lon="2.95074">
        <ele>121.4</ele>
        <time>2022-05-21 13:51:32</time>
      </trkpt>
      <trkpt lat="42.37464" lon="2.95069">
        <ele>121.2</ele>
        <time>2022-05-21 13:51:33</time>
      </trkpt>
      <trkpt lat="42.37471" lon="2.95064">
        <ele>120.8</ele>
        <time>2022-05-21 13:51:34</time>
      </trkpt>
      <trkpt lat="42.37478" lon="2.95059">
        <ele>120.6</ele>
        <time>2022-05-21 13:51:35</time>
      </trkpt>
      <trkpt lat="42.37485" lon="2.95054">
        <ele>120.4</ele>
        <time>2022-05-21 13:51:36</time>
      </trkpt>
      <trkpt lat="42.37492" lon="2.95049">
        <ele>120.2</ele>
        <time>2022-05-21 13:51:37</time>
      </trkpt>
      <trkpt lat="42.37499" lon="2.95045">
        <ele>120.2</ele>
        <time>2022-05-21 13:51:38</time>
      </trkpt>
      <trkpt lat="42.37506" lon="2.95041">
        <ele>120</ele>
        <time>2022-05-21 13:51:39</time>
      </trkpt>
      <trkpt lat="42.37513" lon="2.95038">
        <ele>119.8</ele>
        <time>2022-05-21 13:51:40</time>
      </trkpt>
      <trkpt lat="42.3752" lon="2.95035">
        <ele>119.8</ele>
        <time>2022-05-21 13:51:41</time>
      </trkpt>
      <trkpt lat="42.37527" lon="2.95031">
        <ele>119.8</ele>
        <time>2022-05-21 13:51:42</time>
      </trkpt>
      <trkpt lat="42.37533" lon="2.95027">
        <ele>119.6</ele>
        <time>2022-05-21 13:51:43</time>
      </trkpt>
      <trkpt lat="42.3754" lon="2.95023">
        <ele>119.6</ele>
        <time>2022-05-21 13:51:44</time>
      </trkpt>
      <trkpt lat="42.37547" lon="2.9502">
        <ele>119.6</ele>
        <time>2022-05-21 13:51:45</time>
      </trkpt>
      <trkpt lat="42.37553" lon="2.95017">
        <ele>119.6</ele>
        <time>2022-05-21 13:51:46</time>
      </trkpt>
      <trkpt lat="42.37559" lon="2.95013">
        <ele>119.6</ele>
        <time>2022-05-21 13:51:47</time>
      </trkpt>
      <trkpt lat="42.37566" lon="2.9501">
        <ele>119.6</ele>
        <time>2022-05-21 13:51:48</time>
      </trkpt>
      <trkpt lat="42.37572" lon="2.95007">
        <ele>119.6</ele>
        <time>2022-05-21 13:51:49</time>
      </trkpt>
      <trkpt lat="42.37578" lon="2.95004">
        <ele>119.6</ele>
        <time>2022-05-21 13:51:50</time>
      </trkpt>
      <trkpt lat="42.37584" lon="2.95">
        <ele>119.8</ele>
        <time>2022-05-21 13:51:51</time>
      </trkpt>
      <trkpt lat="42.37591" lon="2.94997">
        <ele>119.8</ele>
        <time>2022-05-21 13:51:52</time>
      </trkpt>
      <trkpt lat="42.37597" lon="2.94994">
        <ele>119.6</ele>
        <time>2022-05-21 13:51:53</time>
      </trkpt>
      <trkpt lat="42.37602" lon="2.94991">
        <ele>119.8</ele>
        <time>2022-05-21 13:51:54</time>
      </trkpt>
      <trkpt lat="42.37609" lon="2.94987">
        <ele>119.8</ele>
        <time>2022-05-21 13:51:55</time>
      </trkpt>
      <trkpt lat="42.37615" lon="2.94984">
        <ele>119.8</ele>
        <time>2022-05-21 13:51:56</time>
      </trkpt>
      <trkpt lat="42.3762" lon="2.94981">
        <ele>119.8</ele>
        <time>2022-05-21 13:51:57</time>
      </trkpt>
      <trkpt lat="42.37626" lon="2.94977">
        <ele>119.8</ele>
        <time>2022-05-21 13:51:58</time>
      </trkpt>
      <trkpt lat="42.37632" lon="2.94974">
        <ele>119.8</ele>
        <time>2022-05-21 13:51:59</time>
      </trkpt>
      <trkpt lat="42.37638" lon="2.94971">
        <ele>119.8</ele>
        <time>2022-05-21 13:52:00</time>
      </trkpt>
      <trkpt lat="42.37644" lon="2.94967">
        <ele>120</ele>
        <time>2022-05-21 13:52:01</time>
      </trkpt>
      <trkpt lat="42.3765" lon="2.94963">
        <ele>120</ele>
        <time>2022-05-21 13:52:02</time>
      </trkpt>
      <trkpt lat="42.37656" lon="2.9496">
        <ele>120</ele>
        <time>2022-05-21 13:52:03</time>
      </trkpt>
      <trkpt lat="42.37661" lon="2.94957">
        <ele>120</ele>
        <time>2022-05-21 13:52:04</time>
      </trkpt>
      <trkpt lat="42.37667" lon="2.94953">
        <ele>120</ele>
        <time>2022-05-21 13:52:05</time>
      </trkpt>
      <trkpt lat="42.37673" lon="2.9495">
        <ele>120</ele>
        <time>2022-05-21 13:52:06</time>
      </trkpt>
      <trkpt lat="42.37678" lon="2.94946">
        <ele>120</ele>
        <time>2022-05-21 13:52:07</time>
      </trkpt>
      <trkpt lat="42.37683" lon="2.94943">
        <ele>120.2</ele>
        <time>2022-05-21 13:52:08</time>
      </trkpt>
      <trkpt lat="42.37689" lon="2.94939">
        <ele>120.2</ele>
        <time>2022-05-21 13:52:09</time>
      </trkpt>
      <trkpt lat="42.37694" lon="2.94935">
        <ele>120.2</ele>
        <time>2022-05-21 13:52:10</time>
      </trkpt>
      <trkpt lat="42.377" lon="2.94932">
        <ele>120.2</ele>
        <time>2022-05-21 13:52:11</time>
      </trkpt>
      <trkpt lat="42.37705" lon="2.94928">
        <ele>120.2</ele>
        <time>2022-05-21 13:52:12</time>
      </trkpt>
      <trkpt lat="42.37711" lon="2.94925">
        <ele>120.2</ele>
        <time>2022-05-21 13:52:13</time>
      </trkpt>
      <trkpt lat="42.37716" lon="2.94921">
        <ele>120.4</ele>
        <time>2022-05-21 13:52:14</time>
      </trkpt>
      <trkpt lat="42.37722" lon="2.94918">
        <ele>120.4</ele>
        <time>2022-05-21 13:52:15</time>
      </trkpt>
      <trkpt lat="42.37727" lon="2.94915">
        <ele>120.4</ele>
        <time>2022-05-21 13:52:16</time>
      </trkpt>
      <trkpt lat="42.37732" lon="2.94911">
        <ele>120.4</ele>
        <time>2022-05-21 13:52:17</time>
      </trkpt>
      <trkpt lat="42.37738" lon="2.94907">
        <ele>120.4</ele>
        <time>2022-05-21 13:52:18</time>
      </trkpt>
      <trkpt lat="42.37743" lon="2.94904">
        <ele>120.4</ele>
        <time>2022-05-21 13:52:19</time>
      </trkpt>
      <trkpt lat="42.37748" lon="2.94901">
        <ele>120.4</ele>
        <time>2022-05-21 13:52:20</time>
      </trkpt>
      <trkpt lat="42.37753" lon="2.94897">
        <ele>120.4</ele>
        <time>2022-05-21 13:52:21</time>
      </trkpt>
      <trkpt lat="42.37759" lon="2.94894">
        <ele>120.4</ele>
        <time>2022-05-21 13:52:22</time>
      </trkpt>
      <trkpt lat="42.37764" lon="2.94892">
        <ele>120.6</ele>
        <time>2022-05-21 13:52:23</time>
      </trkpt>
      <trkpt lat="42.37769" lon="2.94889">
        <ele>120.6</ele>
        <time>2022-05-21 13:52:24</time>
      </trkpt>
      <trkpt lat="42.37774" lon="2.94887">
        <ele>120.8</ele>
        <time>2022-05-21 13:52:25</time>
      </trkpt>
      <trkpt lat="42.37779" lon="2.94886">
        <ele>120.8</ele>
        <time>2022-05-21 13:52:26</time>
      </trkpt>
      <trkpt lat="42.37785" lon="2.94884">
        <ele>121</ele>
        <time>2022-05-21 13:52:27</time>
      </trkpt>
      <trkpt lat="42.3779" lon="2.94883">
        <ele>121.2</ele>
        <time>2022-05-21 13:52:28</time>
      </trkpt>
      <trkpt lat="42.37795" lon="2.94882">
        <ele>121.2</ele>
        <time>2022-05-21 13:52:29</time>
      </trkpt>
      <trkpt lat="42.37801" lon="2.9488">
        <ele>121.4</ele>
        <time>2022-05-21 13:52:30</time>
      </trkpt>
      <trkpt lat="42.37806" lon="2.94879">
        <ele>121.6</ele>
        <time>2022-05-21 13:52:31</time>
      </trkpt>
      <trkpt lat="42.37811" lon="2.94879">
        <ele>121.6</ele>
        <time>2022-05-21 13:52:32</time>
      </trkpt>
      <trkpt lat="42.37816" lon="2.94878">
        <ele>121.8</ele>
        <time>2022-05-21 13:52:33</time>
      </trkpt>
      <trkpt lat="42.37822" lon="2.94877">
        <ele>121.8</ele>
        <time>2022-05-21 13:52:34</time>
      </trkpt>
      <trkpt lat="42.37827" lon="2.94876">
        <ele>122</ele>
        <time>2022-05-21 13:52:35</time>
      </trkpt>
      <trkpt lat="42.37832" lon="2.94875">
        <ele>122</ele>
        <time>2022-05-21 13:52:36</time>
      </trkpt>
      <trkpt lat="42.37838" lon="2.94874">
        <ele>122</ele>
        <time>2022-05-21 13:52:37</time>
      </trkpt>
      <trkpt lat="42.37843" lon="2.94872">
        <ele>122</ele>
        <time>2022-05-21 13:52:38</time>
      </trkpt>
      <trkpt lat="42.37849" lon="2.9487">
        <ele>121.8</ele>
        <time>2022-05-21 13:52:39</time>
      </trkpt>
      <trkpt lat="42.37855" lon="2.94869">
        <ele>121.8</ele>
        <time>2022-05-21 13:52:40</time>
      </trkpt>
      <trkpt lat="42.3786" lon="2.94866">
        <ele>121.8</ele>
        <time>2022-05-21 13:52:41</time>
      </trkpt>
      <trkpt lat="42.37865" lon="2.94864">
        <ele>121.6</ele>
        <time>2022-05-21 13:52:42</time>
      </trkpt>
      <trkpt lat="42.37871" lon="2.94862">
        <ele>121.6</ele>
        <time>2022-05-21 13:52:43</time>
      </trkpt>
      <trkpt lat="42.37876" lon="2.94859">
        <ele>121.6</ele>
        <time>2022-05-21 13:52:44</time>
      </trkpt>
      <trkpt lat="42.37882" lon="2.94857">
        <ele>121.4</ele>
        <time>2022-05-21 13:52:45</time>
      </trkpt>
      <trkpt lat="42.37887" lon="2.94854">
        <ele>121.4</ele>
        <time>2022-05-21 13:52:46</time>
      </trkpt>
      <trkpt lat="42.37892" lon="2.94852">
        <ele>121.4</ele>
        <time>2022-05-21 13:52:47</time>
      </trkpt>
      <trkpt lat="42.37897" lon="2.9485">
        <ele>121.2</ele>
        <time>2022-05-21 13:52:48</time>
      </trkpt>
      <trkpt lat="42.37902" lon="2.94847">
        <ele>121.2</ele>
        <time>2022-05-21 13:52:49</time>
      </trkpt>
      <trkpt lat="42.37907" lon="2.94844">
        <ele>121.2</ele>
        <time>2022-05-21 13:52:50</time>
      </trkpt>
      <trkpt lat="42.37912" lon="2.94841">
        <ele>121.2</ele>
        <time>2022-05-21 13:52:51</time>
      </trkpt>
      <trkpt lat="42.37916" lon="2.94838">
        <ele>121.2</ele>
        <time>2022-05-21 13:52:52</time>
      </trkpt>
      <trkpt lat="42.3792" lon="2.94834">
        <ele>121.4</ele>
        <time>2022-05-21 13:52:53</time>
      </trkpt>
      <trkpt lat="42.37925" lon="2.9483">
        <ele>121.4</ele>
        <time>2022-05-21 13:52:54</time>
      </trkpt>
      <trkpt lat="42.37929" lon="2.94825">
        <ele>121.6</ele>
        <time>2022-05-21 13:52:55</time>
      </trkpt>
      <trkpt lat="42.37932" lon="2.9482">
        <ele>121.6</ele>
        <time>2022-05-21 13:52:56</time>
      </trkpt>
      <trkpt lat="42.37936" lon="2.94815">
        <ele>121.6</ele>
        <time>2022-05-21 13:52:57</time>
      </trkpt>
      <trkpt lat="42.3794" lon="2.9481">
        <ele>121.6</ele>
        <time>2022-05-21 13:52:58</time>
      </trkpt>
      <trkpt lat="42.37944" lon="2.94805">
        <ele>121.8</ele>
        <time>2022-05-21 13:52:59</time>
      </trkpt>
      <trkpt lat="42.37947" lon="2.948">
        <ele>121.8</ele>
        <time>2022-05-21 13:53:00</time>
      </trkpt>
      <trkpt lat="42.3795" lon="2.94795">
        <ele>121.8</ele>
        <time>2022-05-21 13:53:01</time>
      </trkpt>
      <trkpt lat="42.37954" lon="2.9479">
        <ele>122</ele>
        <time>2022-05-21 13:53:02</time>
      </trkpt>
      <trkpt lat="42.37957" lon="2.94784">
        <ele>122</ele>
        <time>2022-05-21 13:53:03</time>
      </trkpt>
      <trkpt lat="42.37959" lon="2.94779">
        <ele>122</ele>
        <time>2022-05-21 13:53:04</time>
      </trkpt>
      <trkpt lat="42.37962" lon="2.94773">
        <ele>122.2</ele>
        <time>2022-05-21 13:53:05</time>
      </trkpt>
      <trkpt lat="42.37965" lon="2.94767">
        <ele>122.2</ele>
        <time>2022-05-21 13:53:06</time>
      </trkpt>
      <trkpt lat="42.37968" lon="2.94761">
        <ele>122.4</ele>
        <time>2022-05-21 13:53:07</time>
      </trkpt>
      <trkpt lat="42.37971" lon="2.94754">
        <ele>122.4</ele>
        <time>2022-05-21 13:53:08</time>
      </trkpt>
      <trkpt lat="42.37974" lon="2.94748">
        <ele>122.2</ele>
        <time>2022-05-21 13:53:09</time>
      </trkpt>
      <trkpt lat="42.37978" lon="2.94741">
        <ele>122.2</ele>
        <time>2022-05-21 13:53:10</time>
      </trkpt>
      <trkpt lat="42.37981" lon="2.94734">
        <ele>122</ele>
        <time>2022-05-21 13:53:11</time>
      </trkpt>
      <trkpt lat="42.37984" lon="2.94727">
        <ele>121.8</ele>
        <time>2022-05-21 13:53:12</time>
      </trkpt>
      <trkpt lat="42.37987" lon="2.94719">
        <ele>121.8</ele>
        <time>2022-05-21 13:53:13</time>
      </trkpt>
      <trkpt lat="42.37991" lon="2.94712">
        <ele>121.6</ele>
        <time>2022-05-21 13:53:14</time>
      </trkpt>
      <trkpt lat="42.37994" lon="2.94705">
        <ele>121.4</ele>
        <time>2022-05-21 13:53:15</time>
      </trkpt>
      <trkpt lat="42.37998" lon="2.94699">
        <ele>121.2</ele>
        <time>2022-05-21 13:53:16</time>
      </trkpt>
      <trkpt lat="42.38002" lon="2.94692">
        <ele>120.8</ele>
        <time>2022-05-21 13:53:17</time>
      </trkpt>
      <trkpt lat="42.38007" lon="2.94686">
        <ele>120.6</ele>
        <time>2022-05-21 13:53:18</time>
      </trkpt>
      <trkpt lat="42.38012" lon="2.9468">
        <ele>120.6</ele>
        <time>2022-05-21 13:53:19</time>
      </trkpt>
      <trkpt lat="42.38017" lon="2.94674">
        <ele>120.4</ele>
        <time>2022-05-21 13:53:20</time>
      </trkpt>
      <trkpt lat="42.38022" lon="2.94668">
        <ele>120.4</ele>
        <time>2022-05-21 13:53:21</time>
      </trkpt>
      <trkpt lat="42.38027" lon="2.94662">
        <ele>120.2</ele>
        <time>2022-05-21 13:53:22</time>
      </trkpt>
      <trkpt lat="42.38032" lon="2.94656">
        <ele>120.2</ele>
        <time>2022-05-21 13:53:23</time>
      </trkpt>
      <trkpt lat="42.38038" lon="2.9465">
        <ele>120</ele>
        <time>2022-05-21 13:53:24</time>
      </trkpt>
      <trkpt lat="42.38043" lon="2.94644">
        <ele>120</ele>
        <time>2022-05-21 13:53:25</time>
      </trkpt>
      <trkpt lat="42.38049" lon="2.94638">
        <ele>119.8</ele>
        <time>2022-05-21 13:53:26</time>
      </trkpt>
      <trkpt lat="42.38054" lon="2.94634">
        <ele>119.8</ele>
        <time>2022-05-21 13:53:27</time>
      </trkpt>
      <trkpt lat="42.3806" lon="2.94629">
        <ele>119.6</ele>
        <time>2022-05-21 13:53:28</time>
      </trkpt>
      <trkpt lat="42.38066" lon="2.94624">
        <ele>119.6</ele>
        <time>2022-05-21 13:53:29</time>
      </trkpt>
      <trkpt lat="42.38072" lon="2.94619">
        <ele>119.4</ele>
        <time>2022-05-21 13:53:30</time>
      </trkpt>
      <trkpt lat="42.38079" lon="2.94614">
        <ele>119.2</ele>
        <time>2022-05-21 13:53:31</time>
      </trkpt>
      <trkpt lat="42.38085" lon="2.94609">
        <ele>119.2</ele>
        <time>2022-05-21 13:53:32</time>
      </trkpt>
      <trkpt lat="42.38091" lon="2.94605">
        <ele>119</ele>
        <time>2022-05-21 13:53:33</time>
      </trkpt>
      <trkpt lat="42.38097" lon="2.946">
        <ele>119</ele>
        <time>2022-05-21 13:53:34</time>
      </trkpt>
      <trkpt lat="42.38104" lon="2.94596">
        <ele>118.8</ele>
        <time>2022-05-21 13:53:35</time>
      </trkpt>
      <trkpt lat="42.3811" lon="2.94591">
        <ele>118.8</ele>
        <time>2022-05-21 13:53:36</time>
      </trkpt>
      <trkpt lat="42.38116" lon="2.94587">
        <ele>118.6</ele>
        <time>2022-05-21 13:53:37</time>
      </trkpt>
      <trkpt lat="42.38122" lon="2.94582">
        <ele>118.6</ele>
        <time>2022-05-21 13:53:38</time>
      </trkpt>
      <trkpt lat="42.38129" lon="2.94578">
        <ele>118.4</ele>
        <time>2022-05-21 13:53:39</time>
      </trkpt>
      <trkpt lat="42.38135" lon="2.94573">
        <ele>118.4</ele>
        <time>2022-05-21 13:53:40</time>
      </trkpt>
      <trkpt lat="42.38141" lon="2.94569">
        <ele>118.4</ele>
        <time>2022-05-21 13:53:41</time>
      </trkpt>
      <trkpt lat="42.38147" lon="2.94564">
        <ele>118.4</ele>
        <time>2022-05-21 13:53:42</time>
      </trkpt>
      <trkpt lat="42.38153" lon="2.9456">
        <ele>118.4</ele>
        <time>2022-05-21 13:53:43</time>
      </trkpt>
      <trkpt lat="42.38159" lon="2.94555">
        <ele>118.4</ele>
        <time>2022-05-21 13:53:44</time>
      </trkpt>
      <trkpt lat="42.38164" lon="2.94551">
        <ele>118.4</ele>
        <time>2022-05-21 13:53:45</time>
      </trkpt>
      <trkpt lat="42.3817" lon="2.94547">
        <ele>118.4</ele>
        <time>2022-05-21 13:53:46</time>
      </trkpt>
      <trkpt lat="42.38176" lon="2.94543">
        <ele>118.6</ele>
        <time>2022-05-21 13:53:47</time>
      </trkpt>
      <trkpt lat="42.38182" lon="2.94539">
        <ele>118.6</ele>
        <time>2022-05-21 13:53:48</time>
      </trkpt>
      <trkpt lat="42.38187" lon="2.94536">
        <ele>118.8</ele>
        <time>2022-05-21 13:53:49</time>
      </trkpt>
      <trkpt lat="42.38193" lon="2.94532">
        <ele>118.8</ele>
        <time>2022-05-21 13:53:50</time>
      </trkpt>
      <trkpt lat="42.38198" lon="2.94528">
        <ele>119</ele>
        <time>2022-05-21 13:53:51</time>
      </trkpt>
      <trkpt lat="42.38204" lon="2.94525">
        <ele>119</ele>
        <time>2022-05-21 13:53:52</time>
      </trkpt>
      <trkpt lat="42.3821" lon="2.94522">
        <ele>119</ele>
        <time>2022-05-21 13:53:53</time>
      </trkpt>
      <trkpt lat="42.38216" lon="2.9452">
        <ele>119.2</ele>
        <time>2022-05-21 13:53:54</time>
      </trkpt>
      <trkpt lat="42.38222" lon="2.94518">
        <ele>119.2</ele>
        <time>2022-05-21 13:53:55</time>
      </trkpt>
      <trkpt lat="42.38228" lon="2.94516">
        <ele>119.2</ele>
        <time>2022-05-21 13:53:56</time>
      </trkpt>
      <trkpt lat="42.38234" lon="2.94516">
        <ele>119.2</ele>
        <time>2022-05-21 13:53:57</time>
      </trkpt>
      <trkpt lat="42.3824" lon="2.94517">
        <ele>119.2</ele>
        <time>2022-05-21 13:53:58</time>
      </trkpt>
      <trkpt lat="42.38246" lon="2.94518">
        <ele>119.4</ele>
        <time>2022-05-21 13:53:59</time>
      </trkpt>
      <trkpt lat="42.38252" lon="2.9452">
        <ele>119.6</ele>
        <time>2022-05-21 13:54:00</time>
      </trkpt>
      <trkpt lat="42.38257" lon="2.94522">
        <ele>119.6</ele>
        <time>2022-05-21 13:54:01</time>
      </trkpt>
      <trkpt lat="42.38263" lon="2.94524">
        <ele>119.8</ele>
        <time>2022-05-21 13:54:02</time>
      </trkpt>
      <trkpt lat="42.38268" lon="2.94526">
        <ele>120</ele>
        <time>2022-05-21 13:54:03</time>
      </trkpt>
      <trkpt lat="42.38273" lon="2.94527">
        <ele>120.2</ele>
        <time>2022-05-21 13:54:04</time>
      </trkpt>
      <trkpt lat="42.38278" lon="2.94528">
        <ele>120.2</ele>
        <time>2022-05-21 13:54:05</time>
      </trkpt>
      <trkpt lat="42.38283" lon="2.94529">
        <ele>120.4</ele>
        <time>2022-05-21 13:54:06</time>
      </trkpt>
      <trkpt lat="42.38289" lon="2.94528">
        <ele>120.6</ele>
        <time>2022-05-21 13:54:07</time>
      </trkpt>
      <trkpt lat="42.38294" lon="2.94526">
        <ele>120.8</ele>
        <time>2022-05-21 13:54:08</time>
      </trkpt>
      <trkpt lat="42.38299" lon="2.94524">
        <ele>121</ele>
        <time>2022-05-21 13:54:09</time>
      </trkpt>
      <trkpt lat="42.38304" lon="2.94522">
        <ele>121</ele>
        <time>2022-05-21 13:54:10</time>
      </trkpt>
      <trkpt lat="42.38309" lon="2.9452">
        <ele>121.2</ele>
        <time>2022-05-21 13:54:11</time>
      </trkpt>
      <trkpt lat="42.38314" lon="2.94517">
        <ele>121.2</ele>
        <time>2022-05-21 13:54:12</time>
      </trkpt>
      <trkpt lat="42.3832" lon="2.94515">
        <ele>121.4</ele>
        <time>2022-05-21 13:54:13</time>
      </trkpt>
      <trkpt lat="42.38325" lon="2.94512">
        <ele>121.4</ele>
        <time>2022-05-21 13:54:14</time>
      </trkpt>
      <trkpt lat="42.38331" lon="2.9451">
        <ele>121.6</ele>
        <time>2022-05-21 13:54:15</time>
      </trkpt>
      <trkpt lat="42.38336" lon="2.94508">
        <ele>121.6</ele>
        <time>2022-05-21 13:54:16</time>
      </trkpt>
      <trkpt lat="42.38341" lon="2.94506">
        <ele>121.6</ele>
        <time>2022-05-21 13:54:17</time>
      </trkpt>
      <trkpt lat="42.38347" lon="2.94504">
        <ele>121.8</ele>
        <time>2022-05-21 13:54:18</time>
      </trkpt>
      <trkpt lat="42.38353" lon="2.94502">
        <ele>121.8</ele>
        <time>2022-05-21 13:54:19</time>
      </trkpt>
      <trkpt lat="42.38358" lon="2.945">
        <ele>122</ele>
        <time>2022-05-21 13:54:20</time>
      </trkpt>
      <trkpt lat="42.38363" lon="2.94497">
        <ele>122</ele>
        <time>2022-05-21 13:54:21</time>
      </trkpt>
      <trkpt lat="42.38369" lon="2.94495">
        <ele>122</ele>
        <time>2022-05-21 13:54:22</time>
      </trkpt>
      <trkpt lat="42.38374" lon="2.94493">
        <ele>122</ele>
        <time>2022-05-21 13:54:23</time>
      </trkpt>
      <trkpt lat="42.3838" lon="2.94491">
        <ele>122</ele>
        <time>2022-05-21 13:54:24</time>
      </trkpt>
      <trkpt lat="42.38385" lon="2.94488">
        <ele>122</ele>
        <time>2022-05-21 13:54:25</time>
      </trkpt>
      <trkpt lat="42.3839" lon="2.94486">
        <ele>122</ele>
        <time>2022-05-21 13:54:26</time>
      </trkpt>
      <trkpt lat="42.38396" lon="2.94484">
        <ele>122.2</ele>
        <time>2022-05-21 13:54:27</time>
      </trkpt>
      <trkpt lat="42.38401" lon="2.94482">
        <ele>122.2</ele>
        <time>2022-05-21 13:54:28</time>
      </trkpt>
      <trkpt lat="42.38407" lon="2.9448">
        <ele>122.4</ele>
        <time>2022-05-21 13:54:29</time>
      </trkpt>
      <trkpt lat="42.38412" lon="2.94477">
        <ele>122.4</ele>
        <time>2022-05-21 13:54:30</time>
      </trkpt>
      <trkpt lat="42.38417" lon="2.94475">
        <ele>122.6</ele>
        <time>2022-05-21 13:54:31</time>
      </trkpt>
      <trkpt lat="42.38423" lon="2.94473">
        <ele>122.6</ele>
        <time>2022-05-21 13:54:32</time>
      </trkpt>
      <trkpt lat="42.38428" lon="2.94471">
        <ele>122.8</ele>
        <time>2022-05-21 13:54:33</time>
      </trkpt>
      <trkpt lat="42.38433" lon="2.94468">
        <ele>123</ele>
        <time>2022-05-21 13:54:34</time>
      </trkpt>
      <trkpt lat="42.38438" lon="2.94466">
        <ele>123</ele>
        <time>2022-05-21 13:54:35</time>
      </trkpt>
      <trkpt lat="42.38443" lon="2.94463">
        <ele>123.2</ele>
        <time>2022-05-21 13:54:36</time>
      </trkpt>
      <trkpt lat="42.38448" lon="2.94461">
        <ele>123.2</ele>
        <time>2022-05-21 13:54:37</time>
      </trkpt>
      <trkpt lat="42.38454" lon="2.94458">
        <ele>123.2</ele>
        <time>2022-05-21 13:54:38</time>
      </trkpt>
      <trkpt lat="42.38459" lon="2.94455">
        <ele>123.4</ele>
        <time>2022-05-21 13:54:39</time>
      </trkpt>
      <trkpt lat="42.38464" lon="2.94452">
        <ele>123.4</ele>
        <time>2022-05-21 13:54:40</time>
      </trkpt>
      <trkpt lat="42.38469" lon="2.94448">
        <ele>123.2</ele>
        <time>2022-05-21 13:54:41</time>
      </trkpt>
      <trkpt lat="42.38474" lon="2.94445">
        <ele>123.2</ele>
        <time>2022-05-21 13:54:42</time>
      </trkpt>
      <trkpt lat="42.3848" lon="2.94441">
        <ele>123.2</ele>
        <time>2022-05-21 13:54:43</time>
      </trkpt>
      <trkpt lat="42.38486" lon="2.94438">
        <ele>123</ele>
        <time>2022-05-21 13:54:44</time>
      </trkpt>
      <trkpt lat="42.38492" lon="2.94434">
        <ele>122.8</ele>
        <time>2022-05-21 13:54:45</time>
      </trkpt>
      <trkpt lat="42.38498" lon="2.9443">
        <ele>122.8</ele>
        <time>2022-05-21 13:54:46</time>
      </trkpt>
      <trkpt lat="42.38503" lon="2.94426">
        <ele>122.6</ele>
        <time>2022-05-21 13:54:47</time>
      </trkpt>
      <trkpt lat="42.38509" lon="2.94423">
        <ele>122.6</ele>
        <time>2022-05-21 13:54:48</time>
      </trkpt>
      <trkpt lat="42.38515" lon="2.94419">
        <ele>122.6</ele>
        <time>2022-05-21 13:54:49</time>
      </trkpt>
      <trkpt lat="42.38521" lon="2.94415">
        <ele>122.4</ele>
        <time>2022-05-21 13:54:50</time>
      </trkpt>
      <trkpt lat="42.38527" lon="2.94412">
        <ele>122.4</ele>
        <time>2022-05-21 13:54:51</time>
      </trkpt>
      <trkpt lat="42.38532" lon="2.94408">
        <ele>122.4</ele>
        <time>2022-05-21 13:54:52</time>
      </trkpt>
      <trkpt lat="42.38538" lon="2.94403">
        <ele>122.4</ele>
        <time>2022-05-21 13:54:53</time>
      </trkpt>
      <trkpt lat="42.38543" lon="2.94399">
        <ele>122.4</ele>
        <time>2022-05-21 13:54:54</time>
      </trkpt>
      <trkpt lat="42.38548" lon="2.94394">
        <ele>122.4</ele>
        <time>2022-05-21 13:54:55</time>
      </trkpt>
      <trkpt lat="42.38554" lon="2.94389">
        <ele>122.4</ele>
        <time>2022-05-21 13:54:56</time>
      </trkpt>
      <trkpt lat="42.38559" lon="2.94384">
        <ele>122.4</ele>
        <time>2022-05-21 13:54:57</time>
      </trkpt>
      <trkpt lat="42.38564" lon="2.94378">
        <ele>122.4</ele>
        <time>2022-05-21 13:54:58</time>
      </trkpt>
      <trkpt lat="42.38569" lon="2.94373">
        <ele>122.2</ele>
        <time>2022-05-21 13:54:59</time>
      </trkpt>
      <trkpt lat="42.38575" lon="2.94367">
        <ele>122.2</ele>
        <time>2022-05-21 13:55:00</time>
      </trkpt>
      <trkpt lat="42.3858" lon="2.94362">
        <ele>122</ele>
        <time>2022-05-21 13:55:01</time>
      </trkpt>
      <trkpt lat="42.38585" lon="2.94357">
        <ele>122</ele>
        <time>2022-05-21 13:55:02</time>
      </trkpt>
      <trkpt lat="42.38591" lon="2.94352">
        <ele>122</ele>
        <time>2022-05-21 13:55:03</time>
      </trkpt>
      <trkpt lat="42.38597" lon="2.94347">
        <ele>122</ele>
        <time>2022-05-21 13:55:04</time>
      </trkpt>
      <trkpt lat="42.38602" lon="2.94342">
        <ele>121.8</ele>
        <time>2022-05-21 13:55:05</time>
      </trkpt>
      <trkpt lat="42.38608" lon="2.94338">
        <ele>121.8</ele>
        <time>2022-05-21 13:55:06</time>
      </trkpt>
      <trkpt lat="42.38613" lon="2.94333">
        <ele>121.6</ele>
        <time>2022-05-21 13:55:07</time>
      </trkpt>
      <trkpt lat="42.38619" lon="2.94328">
        <ele>121.6</ele>
        <time>2022-05-21 13:55:08</time>
      </trkpt>
      <trkpt lat="42.38624" lon="2.94324">
        <ele>121.4</ele>
        <time>2022-05-21 13:55:09</time>
      </trkpt>
      <trkpt lat="42.3863" lon="2.9432">
        <ele>121.4</ele>
        <time>2022-05-21 13:55:10</time>
      </trkpt>
      <trkpt lat="42.38635" lon="2.94315">
        <ele>121.4</ele>
        <time>2022-05-21 13:55:11</time>
      </trkpt>
      <trkpt lat="42.3864" lon="2.94311">
        <ele>121.4</ele>
        <time>2022-05-21 13:55:12</time>
      </trkpt>
      <trkpt lat="42.38646" lon="2.94307">
        <ele>121.6</ele>
        <time>2022-05-21 13:55:13</time>
      </trkpt>
      <trkpt lat="42.38651" lon="2.94303">
        <ele>121.6</ele>
        <time>2022-05-21 13:55:14</time>
      </trkpt>
      <trkpt lat="42.38657" lon="2.94299">
        <ele>121.6</ele>
        <time>2022-05-21 13:55:15</time>
      </trkpt>
      <trkpt lat="42.38662" lon="2.94295">
        <ele>121.6</ele>
        <time>2022-05-21 13:55:16</time>
      </trkpt>
      <trkpt lat="42.38668" lon="2.94292">
        <ele>121.8</ele>
        <time>2022-05-21 13:55:17</time>
      </trkpt>
      <trkpt lat="42.38674" lon="2.94288">
        <ele>121.8</ele>
        <time>2022-05-21 13:55:18</time>
      </trkpt>
      <trkpt lat="42.3868" lon="2.94285">
        <ele>121.8</ele>
        <time>2022-05-21 13:55:19</time>
      </trkpt>
      <trkpt lat="42.38685" lon="2.94282">
        <ele>121.8</ele>
        <time>2022-05-21 13:55:20</time>
      </trkpt>
      <trkpt lat="42.38691" lon="2.94279">
        <ele>122</ele>
        <time>2022-05-21 13:55:21</time>
      </trkpt>
      <trkpt lat="42.38697" lon="2.94277">
        <ele>122</ele>
        <time>2022-05-21 13:55:22</time>
      </trkpt>
      <trkpt lat="42.38703" lon="2.94275">
        <ele>122</ele>
        <time>2022-05-21 13:55:23</time>
      </trkpt>
      <trkpt lat="42.38709" lon="2.94273">
        <ele>122</ele>
        <time>2022-05-21 13:55:24</time>
      </trkpt>
      <trkpt lat="42.38715" lon="2.94273">
        <ele>122.2</ele>
        <time>2022-05-21 13:55:25</time>
      </trkpt>
      <trkpt lat="42.38721" lon="2.94273">
        <ele>122.2</ele>
        <time>2022-05-21 13:55:26</time>
      </trkpt>
      <trkpt lat="42.38726" lon="2.94275">
        <ele>122.4</ele>
        <time>2022-05-21 13:55:27</time>
      </trkpt>
      <trkpt lat="42.38731" lon="2.94276">
        <ele>122.6</ele>
        <time>2022-05-21 13:55:28</time>
      </trkpt>
      <trkpt lat="42.38736" lon="2.94278">
        <ele>123</ele>
        <time>2022-05-21 13:55:29</time>
      </trkpt>
      <trkpt lat="42.38741" lon="2.9428">
        <ele>123.4</ele>
        <time>2022-05-21 13:55:30</time>
      </trkpt>
      <trkpt lat="42.38744" lon="2.94283">
        <ele>123.6</ele>
        <time>2022-05-21 13:55:31</time>
      </trkpt>
      <trkpt lat="42.38748" lon="2.94285">
        <ele>124</ele>
        <time>2022-05-21 13:55:32</time>
      </trkpt>
      <trkpt lat="42.38751" lon="2.94288">
        <ele>124.2</ele>
        <time>2022-05-21 13:55:33</time>
      </trkpt>
      <trkpt lat="42.38753" lon="2.9429">
        <ele>124.6</ele>
        <time>2022-05-21 13:55:34</time>
      </trkpt>
      <trkpt lat="42.38757" lon="2.94293">
        <ele>125</ele>
        <time>2022-05-21 13:55:35</time>
      </trkpt>
      <trkpt lat="42.3876" lon="2.94296">
        <ele>125.2</ele>
        <time>2022-05-21 13:55:36</time>
      </trkpt>
      <trkpt lat="42.38763" lon="2.94298">
        <ele>125.4</ele>
        <time>2022-05-21 13:55:37</time>
      </trkpt>
      <trkpt lat="42.38765" lon="2.94301">
        <ele>125.8</ele>
        <time>2022-05-21 13:55:38</time>
      </trkpt>
      <trkpt lat="42.38768" lon="2.94304">
        <ele>126</ele>
        <time>2022-05-21 13:55:39</time>
      </trkpt>
      <trkpt lat="42.3877" lon="2.94307">
        <ele>126.4</ele>
        <time>2022-05-21 13:55:40</time>
      </trkpt>
      <trkpt lat="42.38773" lon="2.94309">
        <ele>126.6</ele>
        <time>2022-05-21 13:55:41</time>
      </trkpt>
      <trkpt lat="42.38775" lon="2.94312">
        <ele>126.8</ele>
        <time>2022-05-21 13:55:42</time>
      </trkpt>
      <trkpt lat="42.38777" lon="2.94315">
        <ele>127.2</ele>
        <time>2022-05-21 13:55:43</time>
      </trkpt>
      <trkpt lat="42.3878" lon="2.94317">
        <ele>127.4</ele>
        <time>2022-05-21 13:55:44</time>
      </trkpt>
      <trkpt lat="42.38782" lon="2.9432">
        <ele>127.6</ele>
        <time>2022-05-21 13:55:45</time>
      </trkpt>
      <trkpt lat="42.38783" lon="2.94323">
        <ele>128</ele>
        <time>2022-05-21 13:55:46</time>
      </trkpt>
      <trkpt lat="42.38785" lon="2.94327">
        <ele>128.2</ele>
        <time>2022-05-21 13:55:47</time>
      </trkpt>
      <trkpt lat="42.38786" lon="2.9433">
        <ele>128.4</ele>
        <time>2022-05-21 13:55:48</time>
      </trkpt>
      <trkpt lat="42.38788" lon="2.94334">
        <ele>128.6</ele>
        <time>2022-05-21 13:55:49</time>
      </trkpt>
      <trkpt lat="42.3879" lon="2.94338">
        <ele>128.8</ele>
        <time>2022-05-21 13:55:50</time>
      </trkpt>
      <trkpt lat="42.38791" lon="2.94342">
        <ele>129</ele>
        <time>2022-05-21 13:55:51</time>
      </trkpt>
      <trkpt lat="42.38792" lon="2.94347">
        <ele>129.2</ele>
        <time>2022-05-21 13:55:52</time>
      </trkpt>
      <trkpt lat="42.38794" lon="2.94351">
        <ele>129.2</ele>
        <time>2022-05-21 13:55:53</time>
      </trkpt>
      <trkpt lat="42.38795" lon="2.94356">
        <ele>129.4</ele>
        <time>2022-05-21 13:55:54</time>
      </trkpt>
      <trkpt lat="42.38797" lon="2.9436">
        <ele>129.6</ele>
        <time>2022-05-21 13:55:55</time>
      </trkpt>
      <trkpt lat="42.38798" lon="2.94365">
        <ele>129.8</ele>
        <time>2022-05-21 13:55:56</time>
      </trkpt>
      <trkpt lat="42.388" lon="2.9437">
        <ele>129.8</ele>
        <time>2022-05-21 13:55:57</time>
      </trkpt>
      <trkpt lat="42.38801" lon="2.94375">
        <ele>130</ele>
        <time>2022-05-21 13:55:58</time>
      </trkpt>
      <trkpt lat="42.38803" lon="2.9438">
        <ele>130</ele>
        <time>2022-05-21 13:55:59</time>
      </trkpt>
      <trkpt lat="42.38805" lon="2.94385">
        <ele>130</ele>
        <time>2022-05-21 13:56:00</time>
      </trkpt>
      <trkpt lat="42.38807" lon="2.9439">
        <ele>130</ele>
        <time>2022-05-21 13:56:01</time>
      </trkpt>
      <trkpt lat="42.38809" lon="2.94394">
        <ele>130</ele>
        <time>2022-05-21 13:56:02</time>
      </trkpt>
      <trkpt lat="42.38811" lon="2.94399">
        <ele>130</ele>
        <time>2022-05-21 13:56:03</time>
      </trkpt>
      <trkpt lat="42.38814" lon="2.94405">
        <ele>130</ele>
        <time>2022-05-21 13:56:04</time>
      </trkpt>
      <trkpt lat="42.38816" lon="2.9441">
        <ele>130</ele>
        <time>2022-05-21 13:56:05</time>
      </trkpt>
      <trkpt lat="42.38819" lon="2.94415">
        <ele>130</ele>
        <time>2022-05-21 13:56:06</time>
      </trkpt>
      <trkpt lat="42.38822" lon="2.9442">
        <ele>130</ele>
        <time>2022-05-21 13:56:07</time>
      </trkpt>
      <trkpt lat="42.38824" lon="2.94425">
        <ele>130</ele>
        <time>2022-05-21 13:56:08</time>
      </trkpt>
      <trkpt lat="42.38827" lon="2.94431">
        <ele>130</ele>
        <time>2022-05-21 13:56:09</time>
      </trkpt>
      <trkpt lat="42.3883" lon="2.94437">
        <ele>129.8</ele>
        <time>2022-05-21 13:56:10</time>
      </trkpt>
      <trkpt lat="42.38832" lon="2.94442">
        <ele>129.8</ele>
        <time>2022-05-21 13:56:11</time>
      </trkpt>
      <trkpt lat="42.38835" lon="2.94448">
        <ele>129.8</ele>
        <time>2022-05-21 13:56:12</time>
      </trkpt>
      <trkpt lat="42.38839" lon="2.94455">
        <ele>129.4</ele>
        <time>2022-05-21 13:56:13</time>
      </trkpt>
      <trkpt lat="42.38843" lon="2.94462">
        <ele>129.2</ele>
        <time>2022-05-21 13:56:14</time>
      </trkpt>
      <trkpt lat="42.38846" lon="2.94469">
        <ele>129</ele>
        <time>2022-05-21 13:56:15</time>
      </trkpt>
      <trkpt lat="42.3885" lon="2.94477">
        <ele>128.8</ele>
        <time>2022-05-21 13:56:16</time>
      </trkpt>
      <trkpt lat="42.38854" lon="2.94484">
        <ele>128.6</ele>
        <time>2022-05-21 13:56:17</time>
      </trkpt>
      <trkpt lat="42.38859" lon="2.94492">
        <ele>128.2</ele>
        <time>2022-05-21 13:56:18</time>
      </trkpt>
      <trkpt lat="42.38863" lon="2.94499">
        <ele>128</ele>
        <time>2022-05-21 13:56:19</time>
      </trkpt>
      <trkpt lat="42.38868" lon="2.94506">
        <ele>127.8</ele>
        <time>2022-05-21 13:56:20</time>
      </trkpt>
      <trkpt lat="42.38872" lon="2.94513">
        <ele>127.6</ele>
        <time>2022-05-21 13:56:21</time>
      </trkpt>
      <trkpt lat="42.38877" lon="2.94519">
        <ele>127.4</ele>
        <time>2022-05-21 13:56:22</time>
      </trkpt>
      <trkpt lat="42.38881" lon="2.94526">
        <ele>127.4</ele>
        <time>2022-05-21 13:56:23</time>
      </trkpt>
      <trkpt lat="42.38886" lon="2.94532">
        <ele>127.6</ele>
        <time>2022-05-21 13:56:24</time>
      </trkpt>
      <trkpt lat="42.3889" lon="2.94537">
        <ele>127.8</ele>
        <time>2022-05-21 13:56:25</time>
      </trkpt>
      <trkpt lat="42.38894" lon="2.94542">
        <ele>128</ele>
        <time>2022-05-21 13:56:26</time>
      </trkpt>
      <trkpt lat="42.38899" lon="2.94546">
        <ele>128.4</ele>
        <time>2022-05-21 13:56:27</time>
      </trkpt>
      <trkpt lat="42.38903" lon="2.94549">
        <ele>128.6</ele>
        <time>2022-05-21 13:56:28</time>
      </trkpt>
      <trkpt lat="42.38907" lon="2.94551">
        <ele>129</ele>
        <time>2022-05-21 13:56:29</time>
      </trkpt>
      <trkpt lat="42.38911" lon="2.94553">
        <ele>129.2</ele>
        <time>2022-05-21 13:56:30</time>
      </trkpt>
      <trkpt lat="42.38915" lon="2.94554">
        <ele>129.6</ele>
        <time>2022-05-21 13:56:31</time>
      </trkpt>
      <trkpt lat="42.38919" lon="2.94554">
        <ele>129.8</ele>
        <time>2022-05-21 13:56:32</time>
      </trkpt>
      <trkpt lat="42.38923" lon="2.94554">
        <ele>130.2</ele>
        <time>2022-05-21 13:56:33</time>
      </trkpt>
      <trkpt lat="42.38927" lon="2.94554">
        <ele>130.4</ele>
        <time>2022-05-21 13:56:34</time>
      </trkpt>
      <trkpt lat="42.3893" lon="2.94554">
        <ele>130.8</ele>
        <time>2022-05-21 13:56:35</time>
      </trkpt>
      <trkpt lat="42.38933" lon="2.94554">
        <ele>131</ele>
        <time>2022-05-21 13:56:36</time>
      </trkpt>
      <trkpt lat="42.38936" lon="2.94553">
        <ele>131.2</ele>
        <time>2022-05-21 13:56:37</time>
      </trkpt>
      <trkpt lat="42.38939" lon="2.94553">
        <ele>131.6</ele>
        <time>2022-05-21 13:56:38</time>
      </trkpt>
      <trkpt lat="42.38942" lon="2.94552">
        <ele>131.8</ele>
        <time>2022-05-21 13:56:39</time>
      </trkpt>
      <trkpt lat="42.38945" lon="2.94551">
        <ele>132</ele>
        <time>2022-05-21 13:56:40</time>
      </trkpt>
      <trkpt lat="42.38948" lon="2.94551">
        <ele>132.2</ele>
        <time>2022-05-21 13:56:41</time>
      </trkpt>
      <trkpt lat="42.38951" lon="2.94551">
        <ele>132.4</ele>
        <time>2022-05-21 13:56:42</time>
      </trkpt>
      <trkpt lat="42.38954" lon="2.94551">
        <ele>132.6</ele>
        <time>2022-05-21 13:56:43</time>
      </trkpt>
      <trkpt lat="42.38957" lon="2.9455">
        <ele>132.8</ele>
        <time>2022-05-21 13:56:44</time>
      </trkpt>
      <trkpt lat="42.38959" lon="2.9455">
        <ele>133</ele>
        <time>2022-05-21 13:56:45</time>
      </trkpt>
      <trkpt lat="42.38962" lon="2.9455">
        <ele>133.2</ele>
        <time>2022-05-21 13:56:46</time>
      </trkpt>
      <trkpt lat="42.38965" lon="2.9455">
        <ele>133.4</ele>
        <time>2022-05-21 13:56:47</time>
      </trkpt>
      <trkpt lat="42.38967" lon="2.94549">
        <ele>133.6</ele>
        <time>2022-05-21 13:56:48</time>
      </trkpt>
      <trkpt lat="42.3897" lon="2.94549">
        <ele>133.8</ele>
        <time>2022-05-21 13:56:49</time>
      </trkpt>
      <trkpt lat="42.38973" lon="2.94549">
        <ele>134</ele>
        <time>2022-05-21 13:56:50</time>
      </trkpt>
      <trkpt lat="42.38976" lon="2.94549">
        <ele>134.2</ele>
        <time>2022-05-21 13:56:51</time>
      </trkpt>
      <trkpt lat="42.38979" lon="2.94549">
        <ele>134.4</ele>
        <time>2022-05-21 13:56:52</time>
      </trkpt>
      <trkpt lat="42.38981" lon="2.94549">
        <ele>134.6</ele>
        <time>2022-05-21 13:56:53</time>
      </trkpt>
      <trkpt lat="42.38984" lon="2.94549">
        <ele>135</ele>
        <time>2022-05-21 13:56:54</time>
      </trkpt>
      <trkpt lat="42.38987" lon="2.94549">
        <ele>135.2</ele>
        <time>2022-05-21 13:56:55</time>
      </trkpt>
      <trkpt lat="42.3899" lon="2.9455">
        <ele>135.4</ele>
        <time>2022-05-21 13:56:56</time>
      </trkpt>
      <trkpt lat="42.38992" lon="2.9455">
        <ele>135.6</ele>
        <time>2022-05-21 13:56:57</time>
      </trkpt>
      <trkpt lat="42.38995" lon="2.94551">
        <ele>135.8</ele>
        <time>2022-05-21 13:56:58</time>
      </trkpt>
      <trkpt lat="42.38997" lon="2.94552">
        <ele>136</ele>
        <time>2022-05-21 13:56:59</time>
      </trkpt>
      <trkpt lat="42.38999" lon="2.94553">
        <ele>136.2</ele>
        <time>2022-05-21 13:57:00</time>
      </trkpt>
      <trkpt lat="42.39002" lon="2.94555">
        <ele>136.4</ele>
        <time>2022-05-21 13:57:01</time>
      </trkpt>
      <trkpt lat="42.39004" lon="2.94557">
        <ele>136.6</ele>
        <time>2022-05-21 13:57:02</time>
      </trkpt>
      <trkpt lat="42.39006" lon="2.94559">
        <ele>136.8</ele>
        <time>2022-05-21 13:57:03</time>
      </trkpt>
      <trkpt lat="42.39007" lon="2.94562">
        <ele>137</ele>
        <time>2022-05-21 13:57:04</time>
      </trkpt>
      <trkpt lat="42.39008" lon="2.94564">
        <ele>137.2</ele>
        <time>2022-05-21 13:57:05</time>
      </trkpt>
      <trkpt lat="42.3901" lon="2.94567">
        <ele>137.4</ele>
        <time>2022-05-21 13:57:06</time>
      </trkpt>
      <trkpt lat="42.39011" lon="2.94571">
        <ele>137.6</ele>
        <time>2022-05-21 13:57:07</time>
      </trkpt>
      <trkpt lat="42.39013" lon="2.94574">
        <ele>137.8</ele>
        <time>2022-05-21 13:57:08</time>
      </trkpt>
      <trkpt lat="42.39014" lon="2.94578">
        <ele>138</ele>
        <time>2022-05-21 13:57:09</time>
      </trkpt>
      <trkpt lat="42.39015" lon="2.94581">
        <ele>138</ele>
        <time>2022-05-21 13:57:10</time>
      </trkpt>
      <trkpt lat="42.39017" lon="2.94585">
        <ele>138.2</ele>
        <time>2022-05-21 13:57:11</time>
      </trkpt>
      <trkpt lat="42.39018" lon="2.94589">
        <ele>138.4</ele>
        <time>2022-05-21 13:57:12</time>
      </trkpt>
      <trkpt lat="42.39019" lon="2.94592">
        <ele>138.6</ele>
        <time>2022-05-21 13:57:13</time>
      </trkpt>
      <trkpt lat="42.39021" lon="2.94596">
        <ele>138.6</ele>
        <time>2022-05-21 13:57:14</time>
      </trkpt>
      <trkpt lat="42.39022" lon="2.946">
        <ele>138.6</ele>
        <time>2022-05-21 13:57:15</time>
      </trkpt>
      <trkpt lat="42.39024" lon="2.94604">
        <ele>138.6</ele>
        <time>2022-05-21 13:57:16</time>
      </trkpt>
      <trkpt lat="42.39025" lon="2.94609">
        <ele>138.8</ele>
        <time>2022-05-21 13:57:17</time>
      </trkpt>
      <trkpt lat="42.39027" lon="2.94613">
        <ele>138.8</ele>
        <time>2022-05-21 13:57:18</time>
      </trkpt>
      <trkpt lat="42.39029" lon="2.94618">
        <ele>138.8</ele>
        <time>2022-05-21 13:57:19</time>
      </trkpt>
      <trkpt lat="42.39031" lon="2.94622">
        <ele>138.8</ele>
        <time>2022-05-21 13:57:20</time>
      </trkpt>
      <trkpt lat="42.39033" lon="2.94627">
        <ele>139</ele>
        <time>2022-05-21 13:57:21</time>
      </trkpt>
      <trkpt lat="42.39035" lon="2.94631">
        <ele>139</ele>
        <time>2022-05-21 13:57:22</time>
      </trkpt>
      <trkpt lat="42.39037" lon="2.94635">
        <ele>139</ele>
        <time>2022-05-21 13:57:23</time>
      </trkpt>
      <trkpt lat="42.3904" lon="2.94639">
        <ele>139.2</ele>
        <time>2022-05-21 13:57:24</time>
      </trkpt>
      <trkpt lat="42.39043" lon="2.94643">
        <ele>139.2</ele>
        <time>2022-05-21 13:57:25</time>
      </trkpt>
      <trkpt lat="42.39045" lon="2.94646">
        <ele>139.4</ele>
        <time>2022-05-21 13:57:26</time>
      </trkpt>
      <trkpt lat="42.39049" lon="2.94649">
        <ele>139.4</ele>
        <time>2022-05-21 13:57:27</time>
      </trkpt>
      <trkpt lat="42.39052" lon="2.94651">
        <ele>139.6</ele>
        <time>2022-05-21 13:57:28</time>
      </trkpt>
      <trkpt lat="42.39056" lon="2.94653">
        <ele>139.6</ele>
        <time>2022-05-21 13:57:29</time>
      </trkpt>
      <trkpt lat="42.39059" lon="2.94654">
        <ele>139.8</ele>
        <time>2022-05-21 13:57:30</time>
      </trkpt>
      <trkpt lat="42.39063" lon="2.94655">
        <ele>139.8</ele>
        <time>2022-05-21 13:57:31</time>
      </trkpt>
      <trkpt lat="42.39068" lon="2.94655">
        <ele>139.8</ele>
        <time>2022-05-21 13:57:32</time>
      </trkpt>
      <trkpt lat="42.39072" lon="2.94655">
        <ele>139.8</ele>
        <time>2022-05-21 13:57:33</time>
      </trkpt>
      <trkpt lat="42.39076" lon="2.94656">
        <ele>139.8</ele>
        <time>2022-05-21 13:57:34</time>
      </trkpt>
      <trkpt lat="42.3908" lon="2.94656">
        <ele>140</ele>
        <time>2022-05-21 13:57:35</time>
      </trkpt>
      <trkpt lat="42.39084" lon="2.94656">
        <ele>140</ele>
        <time>2022-05-21 13:57:36</time>
      </trkpt>
      <trkpt lat="42.39088" lon="2.94656">
        <ele>140</ele>
        <time>2022-05-21 13:57:37</time>
      </trkpt>
      <trkpt lat="42.39091" lon="2.94655">
        <ele>140</ele>
        <time>2022-05-21 13:57:38</time>
      </trkpt>
      <trkpt lat="42.39094" lon="2.94654">
        <ele>140</ele>
        <time>2022-05-21 13:57:39</time>
      </trkpt>
      <trkpt lat="42.39098" lon="2.94653">
        <ele>140.2</ele>
        <time>2022-05-21 13:57:40</time>
      </trkpt>
      <trkpt lat="42.39103" lon="2.94653">
        <ele>140.2</ele>
        <time>2022-05-21 13:57:41</time>
      </trkpt>
      <trkpt lat="42.39109" lon="2.94654">
        <ele>140.2</ele>
        <time>2022-05-21 13:57:42</time>
      </trkpt>
      <trkpt lat="42.39116" lon="2.94656">
        <ele>140.2</ele>
        <time>2022-05-21 13:57:43</time>
      </trkpt>
      <trkpt lat="42.39122" lon="2.94657">
        <ele>140.2</ele>
        <time>2022-05-21 13:57:44</time>
      </trkpt>
      <trkpt lat="42.39124" lon="2.94657">
        <ele>140.2</ele>
        <time>2022-05-21 13:57:45</time>
      </trkpt>
      <trkpt lat="42.39131" lon="2.94658">
        <ele>140.4</ele>
        <time>2022-05-21 13:57:46</time>
      </trkpt>
      <trkpt lat="42.39136" lon="2.94658">
        <ele>140.4</ele>
        <time>2022-05-21 13:57:47</time>
      </trkpt>
      <trkpt lat="42.39141" lon="2.94658">
        <ele>140.4</ele>
        <time>2022-05-21 13:57:48</time>
      </trkpt>
      <trkpt lat="42.39145" lon="2.94658">
        <ele>140.6</ele>
        <time>2022-05-21 13:57:49</time>
      </trkpt>
      <trkpt lat="42.39151" lon="2.94658">
        <ele>140.6</ele>
        <time>2022-05-21 13:57:50</time>
      </trkpt>
      <trkpt lat="42.39155" lon="2.94659">
        <ele>140.4</ele>
        <time>2022-05-21 13:57:51</time>
      </trkpt>
      <trkpt lat="42.3916" lon="2.9466">
        <ele>140.4</ele>
        <time>2022-05-21 13:57:52</time>
      </trkpt>
      <trkpt lat="42.39167" lon="2.94663">
        <ele>140.2</ele>
        <time>2022-05-21 13:57:53</time>
      </trkpt>
      <trkpt lat="42.39172" lon="2.94665">
        <ele>140</ele>
        <time>2022-05-21 13:57:54</time>
      </trkpt>
      <trkpt lat="42.39177" lon="2.94669">
        <ele>139.8</ele>
        <time>2022-05-21 13:57:55</time>
      </trkpt>
      <trkpt lat="42.39182" lon="2.94674">
        <ele>139.4</ele>
        <time>2022-05-21 13:57:56</time>
      </trkpt>
      <trkpt lat="42.39187" lon="2.9468">
        <ele>139.2</ele>
        <time>2022-05-21 13:57:57</time>
      </trkpt>
      <trkpt lat="42.39192" lon="2.94686">
        <ele>139</ele>
        <time>2022-05-21 13:57:58</time>
      </trkpt>
      <trkpt lat="42.39198" lon="2.94693">
        <ele>138.6</ele>
        <time>2022-05-21 13:57:59</time>
      </trkpt>
      <trkpt lat="42.39204" lon="2.94698">
        <ele>138.2</ele>
        <time>2022-05-21 13:58:00</time>
      </trkpt>
      <trkpt lat="42.3921" lon="2.94703">
        <ele>137.8</ele>
        <time>2022-05-21 13:58:01</time>
      </trkpt>
      <trkpt lat="42.39217" lon="2.94706">
        <ele>137.6</ele>
        <time>2022-05-21 13:58:02</time>
      </trkpt>
      <trkpt lat="42.39224" lon="2.94707">
        <ele>137.2</ele>
        <time>2022-05-21 13:58:03</time>
      </trkpt>
      <trkpt lat="42.39232" lon="2.94708">
        <ele>136.8</ele>
        <time>2022-05-21 13:58:04</time>
      </trkpt>
      <trkpt lat="42.3924" lon="2.94708">
        <ele>136.4</ele>
        <time>2022-05-21 13:58:05</time>
      </trkpt>
      <trkpt lat="42.39248" lon="2.94708">
        <ele>136</ele>
        <time>2022-05-21 13:58:06</time>
      </trkpt>
      <trkpt lat="42.39256" lon="2.94707">
        <ele>135.8</ele>
        <time>2022-05-21 13:58:07</time>
      </trkpt>
      <trkpt lat="42.39264" lon="2.94708">
        <ele>135.6</ele>
        <time>2022-05-21 13:58:08</time>
      </trkpt>
      <trkpt lat="42.39271" lon="2.94709">
        <ele>135.4</ele>
        <time>2022-05-21 13:58:09</time>
      </trkpt>
      <trkpt lat="42.39278" lon="2.9471">
        <ele>135.4</ele>
        <time>2022-05-21 13:58:10</time>
      </trkpt>
      <trkpt lat="42.39285" lon="2.94713">
        <ele>135.4</ele>
        <time>2022-05-21 13:58:11</time>
      </trkpt>
      <trkpt lat="42.39291" lon="2.94715">
        <ele>135.6</ele>
        <time>2022-05-21 13:58:12</time>
      </trkpt>
      <trkpt lat="42.39297" lon="2.94718">
        <ele>135.6</ele>
        <time>2022-05-21 13:58:13</time>
      </trkpt>
      <trkpt lat="42.39302" lon="2.94721">
        <ele>135.8</ele>
        <time>2022-05-21 13:58:14</time>
      </trkpt>
      <trkpt lat="42.39307" lon="2.94724">
        <ele>136.2</ele>
        <time>2022-05-21 13:58:15</time>
      </trkpt>
      <trkpt lat="42.39312" lon="2.94727">
        <ele>136.6</ele>
        <time>2022-05-21 13:58:16</time>
      </trkpt>
      <trkpt lat="42.39316" lon="2.9473">
        <ele>137</ele>
        <time>2022-05-21 13:58:17</time>
      </trkpt>
      <trkpt lat="42.3932" lon="2.94732">
        <ele>137.2</ele>
        <time>2022-05-21 13:58:18</time>
      </trkpt>
      <trkpt lat="42.39324" lon="2.94734">
        <ele>137.6</ele>
        <time>2022-05-21 13:58:19</time>
      </trkpt>
      <trkpt lat="42.39328" lon="2.94737">
        <ele>137.8</ele>
        <time>2022-05-21 13:58:20</time>
      </trkpt>
      <trkpt lat="42.39331" lon="2.94739">
        <ele>138.2</ele>
        <time>2022-05-21 13:58:21</time>
      </trkpt>
      <trkpt lat="42.39334" lon="2.94741">
        <ele>138.6</ele>
        <time>2022-05-21 13:58:22</time>
      </trkpt>
      <trkpt lat="42.39337" lon="2.94743">
        <ele>138.8</ele>
        <time>2022-05-21 13:58:23</time>
      </trkpt>
      <trkpt lat="42.39339" lon="2.94745">
        <ele>139</ele>
        <time>2022-05-21 13:58:24</time>
      </trkpt>
      <trkpt lat="42.39342" lon="2.94747">
        <ele>139.4</ele>
        <time>2022-05-21 13:58:25</time>
      </trkpt>
      <trkpt lat="42.39344" lon="2.94749">
        <ele>139.6</ele>
        <time>2022-05-21 13:58:26</time>
      </trkpt>
      <trkpt lat="42.39347" lon="2.94751">
        <ele>140</ele>
        <time>2022-05-21 13:58:27</time>
      </trkpt>
      <trkpt lat="42.39349" lon="2.94752">
        <ele>140.4</ele>
        <time>2022-05-21 13:58:28</time>
      </trkpt>
      <trkpt lat="42.39351" lon="2.94754">
        <ele>140.6</ele>
        <time>2022-05-21 13:58:29</time>
      </trkpt>
      <trkpt lat="42.39354" lon="2.94755">
        <ele>141</ele>
        <time>2022-05-21 13:58:30</time>
      </trkpt>
      <trkpt lat="42.39356" lon="2.94756">
        <ele>141.2</ele>
        <time>2022-05-21 13:58:31</time>
      </trkpt>
      <trkpt lat="42.39358" lon="2.94757">
        <ele>141.4</ele>
        <time>2022-05-21 13:58:32</time>
      </trkpt>
      <trkpt lat="42.3936" lon="2.94759">
        <ele>141.6</ele>
        <time>2022-05-21 13:58:33</time>
      </trkpt>
      <trkpt lat="42.39362" lon="2.9476">
        <ele>142</ele>
        <time>2022-05-21 13:58:34</time>
      </trkpt>
      <trkpt lat="42.39365" lon="2.94762">
        <ele>142.2</ele>
        <time>2022-05-21 13:58:35</time>
      </trkpt>
      <trkpt lat="42.39367" lon="2.94763">
        <ele>142.4</ele>
        <time>2022-05-21 13:58:36</time>
      </trkpt>
      <trkpt lat="42.39369" lon="2.94764">
        <ele>142.6</ele>
        <time>2022-05-21 13:58:37</time>
      </trkpt>
      <trkpt lat="42.39371" lon="2.94766">
        <ele>142.8</ele>
        <time>2022-05-21 13:58:38</time>
      </trkpt>
      <trkpt lat="42.39374" lon="2.94767">
        <ele>143.2</ele>
        <time>2022-05-21 13:58:39</time>
      </trkpt>
      <trkpt lat="42.39376" lon="2.94768">
        <ele>143.4</ele>
        <time>2022-05-21 13:58:40</time>
      </trkpt>
      <trkpt lat="42.39379" lon="2.94769">
        <ele>143.6</ele>
        <time>2022-05-21 13:58:41</time>
      </trkpt>
      <trkpt lat="42.39381" lon="2.9477">
        <ele>143.8</ele>
        <time>2022-05-21 13:58:42</time>
      </trkpt>
      <trkpt lat="42.39383" lon="2.94771">
        <ele>144</ele>
        <time>2022-05-21 13:58:43</time>
      </trkpt>
      <trkpt lat="42.39386" lon="2.94771">
        <ele>144.4</ele>
        <time>2022-05-21 13:58:44</time>
      </trkpt>
      <trkpt lat="42.39388" lon="2.94772">
        <ele>144.6</ele>
        <time>2022-05-21 13:58:45</time>
      </trkpt>
      <trkpt lat="42.39391" lon="2.94773">
        <ele>144.8</ele>
        <time>2022-05-21 13:58:46</time>
      </trkpt>
      <trkpt lat="42.39393" lon="2.94774">
        <ele>145.2</ele>
        <time>2022-05-21 13:58:47</time>
      </trkpt>
      <trkpt lat="42.39395" lon="2.94775">
        <ele>145.4</ele>
        <time>2022-05-21 13:58:48</time>
      </trkpt>
      <trkpt lat="42.39397" lon="2.94776">
        <ele>145.6</ele>
        <time>2022-05-21 13:58:49</time>
      </trkpt>
      <trkpt lat="42.39399" lon="2.94777">
        <ele>145.8</ele>
        <time>2022-05-21 13:58:50</time>
      </trkpt>
      <trkpt lat="42.39401" lon="2.94777">
        <ele>146.2</ele>
        <time>2022-05-21 13:58:51</time>
      </trkpt>
      <trkpt lat="42.39403" lon="2.94778">
        <ele>146.4</ele>
        <time>2022-05-21 13:58:52</time>
      </trkpt>
      <trkpt lat="42.39406" lon="2.94779">
        <ele>146.6</ele>
        <time>2022-05-21 13:58:53</time>
      </trkpt>
      <trkpt lat="42.39408" lon="2.94779">
        <ele>147</ele>
        <time>2022-05-21 13:58:54</time>
      </trkpt>
      <trkpt lat="42.3941" lon="2.94779">
        <ele>147.2</ele>
        <time>2022-05-21 13:58:55</time>
      </trkpt>
      <trkpt lat="42.39413" lon="2.94779">
        <ele>147.6</ele>
        <time>2022-05-21 13:58:56</time>
      </trkpt>
      <trkpt lat="42.39415" lon="2.94779">
        <ele>147.8</ele>
        <time>2022-05-21 13:58:57</time>
      </trkpt>
      <trkpt lat="42.39417" lon="2.9478">
        <ele>148.2</ele>
        <time>2022-05-21 13:58:58</time>
      </trkpt>
      <trkpt lat="42.39419" lon="2.9478">
        <ele>148.4</ele>
        <time>2022-05-21 13:58:59</time>
      </trkpt>
      <trkpt lat="42.39422" lon="2.9478">
        <ele>148.6</ele>
        <time>2022-05-21 13:59:00</time>
      </trkpt>
      <trkpt lat="42.39424" lon="2.94779">
        <ele>149</ele>
        <time>2022-05-21 13:59:01</time>
      </trkpt>
      <trkpt lat="42.39426" lon="2.94779">
        <ele>149.2</ele>
        <time>2022-05-21 13:59:02</time>
      </trkpt>
      <trkpt lat="42.39428" lon="2.94778">
        <ele>149.4</ele>
        <time>2022-05-21 13:59:03</time>
      </trkpt>
      <trkpt lat="42.39431" lon="2.94778">
        <ele>149.6</ele>
        <time>2022-05-21 13:59:04</time>
      </trkpt>
      <trkpt lat="42.39434" lon="2.94778">
        <ele>149.8</ele>
        <time>2022-05-21 13:59:05</time>
      </trkpt>
      <trkpt lat="42.39436" lon="2.94778">
        <ele>150</ele>
        <time>2022-05-21 13:59:06</time>
      </trkpt>
      <trkpt lat="42.39439" lon="2.94778">
        <ele>150.2</ele>
        <time>2022-05-21 13:59:07</time>
      </trkpt>
      <trkpt lat="42.39441" lon="2.94777">
        <ele>150.4</ele>
        <time>2022-05-21 13:59:08</time>
      </trkpt>
      <trkpt lat="42.39444" lon="2.94777">
        <ele>150.6</ele>
        <time>2022-05-21 13:59:09</time>
      </trkpt>
      <trkpt lat="42.39446" lon="2.94777">
        <ele>150.6</ele>
        <time>2022-05-21 13:59:10</time>
      </trkpt>
      <trkpt lat="42.39449" lon="2.94777">
        <ele>150.8</ele>
        <time>2022-05-21 13:59:11</time>
      </trkpt>
      <trkpt lat="42.39451" lon="2.94777">
        <ele>151</ele>
        <time>2022-05-21 13:59:12</time>
      </trkpt>
      <trkpt lat="42.39454" lon="2.94777">
        <ele>151</ele>
        <time>2022-05-21 13:59:13</time>
      </trkpt>
      <trkpt lat="42.39457" lon="2.94777">
        <ele>151.2</ele>
        <time>2022-05-21 13:59:14</time>
      </trkpt>
      <trkpt lat="42.3946" lon="2.94778">
        <ele>151.4</ele>
        <time>2022-05-21 13:59:15</time>
      </trkpt>
      <trkpt lat="42.39462" lon="2.94779">
        <ele>151.6</ele>
        <time>2022-05-21 13:59:16</time>
      </trkpt>
      <trkpt lat="42.39464" lon="2.9478">
        <ele>151.6</ele>
        <time>2022-05-21 13:59:17</time>
      </trkpt>
      <trkpt lat="42.39467" lon="2.94781">
        <ele>151.8</ele>
        <time>2022-05-21 13:59:18</time>
      </trkpt>
      <trkpt lat="42.39469" lon="2.94783">
        <ele>151.8</ele>
        <time>2022-05-21 13:59:19</time>
      </trkpt>
      <trkpt lat="42.39471" lon="2.94784">
        <ele>152</ele>
        <time>2022-05-21 13:59:20</time>
      </trkpt>
      <trkpt lat="42.39474" lon="2.94786">
        <ele>152</ele>
        <time>2022-05-21 13:59:21</time>
      </trkpt>
      <trkpt lat="42.39476" lon="2.94788">
        <ele>152.2</ele>
        <time>2022-05-21 13:59:22</time>
      </trkpt>
      <trkpt lat="42.39479" lon="2.94791">
        <ele>152.4</ele>
        <time>2022-05-21 13:59:23</time>
      </trkpt>
      <trkpt lat="42.39481" lon="2.94794">
        <ele>152.4</ele>
        <time>2022-05-21 13:59:24</time>
      </trkpt>
      <trkpt lat="42.39483" lon="2.94797">
        <ele>152.6</ele>
        <time>2022-05-21 13:59:25</time>
      </trkpt>
      <trkpt lat="42.39485" lon="2.948">
        <ele>152.6</ele>
        <time>2022-05-21 13:59:26</time>
      </trkpt>
      <trkpt lat="42.39487" lon="2.94803">
        <ele>152.8</ele>
        <time>2022-05-21 13:59:27</time>
      </trkpt>
      <trkpt lat="42.39489" lon="2.94807">
        <ele>152.8</ele>
        <time>2022-05-21 13:59:28</time>
      </trkpt>
      <trkpt lat="42.39491" lon="2.9481">
        <ele>152.8</ele>
        <time>2022-05-21 13:59:29</time>
      </trkpt>
      <trkpt lat="42.39494" lon="2.94813">
        <ele>153</ele>
        <time>2022-05-21 13:59:30</time>
      </trkpt>
      <trkpt lat="42.39496" lon="2.94817">
        <ele>153</ele>
        <time>2022-05-21 13:59:31</time>
      </trkpt>
      <trkpt lat="42.39498" lon="2.94821">
        <ele>153.2</ele>
        <time>2022-05-21 13:59:32</time>
      </trkpt>
      <trkpt lat="42.39501" lon="2.94824">
        <ele>153.2</ele>
        <time>2022-05-21 13:59:33</time>
      </trkpt>
      <trkpt lat="42.39503" lon="2.94828">
        <ele>153.4</ele>
        <time>2022-05-21 13:59:34</time>
      </trkpt>
      <trkpt lat="42.39506" lon="2.94832">
        <ele>153.4</ele>
        <time>2022-05-21 13:59:35</time>
      </trkpt>
      <trkpt lat="42.39509" lon="2.94836">
        <ele>153.4</ele>
        <time>2022-05-21 13:59:36</time>
      </trkpt>
      <trkpt lat="42.39512" lon="2.94841">
        <ele>153.4</ele>
        <time>2022-05-21 13:59:37</time>
      </trkpt>
      <trkpt lat="42.39515" lon="2.94845">
        <ele>153.4</ele>
        <time>2022-05-21 13:59:38</time>
      </trkpt>
      <trkpt lat="42.39518" lon="2.9485">
        <ele>153.2</ele>
        <time>2022-05-21 13:59:39</time>
      </trkpt>
      <trkpt lat="42.39522" lon="2.94855">
        <ele>153.2</ele>
        <time>2022-05-21 13:59:40</time>
      </trkpt>
      <trkpt lat="42.39526" lon="2.9486">
        <ele>153</ele>
        <time>2022-05-21 13:59:41</time>
      </trkpt>
      <trkpt lat="42.39531" lon="2.94865">
        <ele>152.6</ele>
        <time>2022-05-21 13:59:42</time>
      </trkpt>
      <trkpt lat="42.39535" lon="2.9487">
        <ele>152.4</ele>
        <time>2022-05-21 13:59:43</time>
      </trkpt>
      <trkpt lat="42.39539" lon="2.94876">
        <ele>152.2</ele>
        <time>2022-05-21 13:59:44</time>
      </trkpt>
      <trkpt lat="42.39544" lon="2.94882">
        <ele>152</ele>
        <time>2022-05-21 13:59:45</time>
      </trkpt>
      <trkpt lat="42.3955" lon="2.94887">
        <ele>151.8</ele>
        <time>2022-05-21 13:59:46</time>
      </trkpt>
      <trkpt lat="42.39554" lon="2.94891">
        <ele>151.6</ele>
        <time>2022-05-21 13:59:47</time>
      </trkpt>
      <trkpt lat="42.3956" lon="2.94896">
        <ele>151.4</ele>
        <time>2022-05-21 13:59:48</time>
      </trkpt>
      <trkpt lat="42.39565" lon="2.94899">
        <ele>151.2</ele>
        <time>2022-05-21 13:59:49</time>
      </trkpt>
      <trkpt lat="42.3957" lon="2.94903">
        <ele>151.2</ele>
        <time>2022-05-21 13:59:50</time>
      </trkpt>
      <trkpt lat="42.39576" lon="2.94907">
        <ele>151</ele>
        <time>2022-05-21 13:59:51</time>
      </trkpt>
      <trkpt lat="42.39582" lon="2.9491">
        <ele>150.8</ele>
        <time>2022-05-21 13:59:52</time>
      </trkpt>
      <trkpt lat="42.39588" lon="2.94913">
        <ele>150.6</ele>
        <time>2022-05-21 13:59:53</time>
      </trkpt>
      <trkpt lat="42.39594" lon="2.94916">
        <ele>150.4</ele>
        <time>2022-05-21 13:59:54</time>
      </trkpt>
      <trkpt lat="42.39601" lon="2.94918">
        <ele>150.2</ele>
        <time>2022-05-21 13:59:55</time>
      </trkpt>
      <trkpt lat="42.39608" lon="2.9492">
        <ele>150</ele>
        <time>2022-05-21 13:59:56</time>
      </trkpt>
      <trkpt lat="42.39614" lon="2.94922">
        <ele>149.6</ele>
        <time>2022-05-21 13:59:57</time>
      </trkpt>
      <trkpt lat="42.39622" lon="2.94926">
        <ele>149.4</ele>
        <time>2022-05-21 13:59:58</time>
      </trkpt>
      <trkpt lat="42.39629" lon="2.9493">
        <ele>149</ele>
        <time>2022-05-21 13:59:59</time>
      </trkpt>
      <trkpt lat="42.39635" lon="2.94935">
        <ele>148.6</ele>
        <time>2022-05-21 14:00:00</time>
      </trkpt>
      <trkpt lat="42.39642" lon="2.94941">
        <ele>148.2</ele>
        <time>2022-05-21 14:00:01</time>
      </trkpt>
      <trkpt lat="42.39648" lon="2.94948">
        <ele>147.8</ele>
        <time>2022-05-21 14:00:02</time>
      </trkpt>
      <trkpt lat="42.39654" lon="2.94956">
        <ele>147.2</ele>
        <time>2022-05-21 14:00:03</time>
      </trkpt>
      <trkpt lat="42.39659" lon="2.94965">
        <ele>146.8</ele>
        <time>2022-05-21 14:00:04</time>
      </trkpt>
      <trkpt lat="42.39665" lon="2.94975">
        <ele>146.4</ele>
        <time>2022-05-21 14:00:05</time>
      </trkpt>
      <trkpt lat="42.3967" lon="2.94985">
        <ele>146</ele>
        <time>2022-05-21 14:00:06</time>
      </trkpt>
      <trkpt lat="42.39676" lon="2.94994">
        <ele>145.6</ele>
        <time>2022-05-21 14:00:07</time>
      </trkpt>
      <trkpt lat="42.39683" lon="2.95003">
        <ele>145.2</ele>
        <time>2022-05-21 14:00:08</time>
      </trkpt>
      <trkpt lat="42.39689" lon="2.95011">
        <ele>144.8</ele>
        <time>2022-05-21 14:00:09</time>
      </trkpt>
      <trkpt lat="42.39696" lon="2.95018">
        <ele>144.6</ele>
        <time>2022-05-21 14:00:10</time>
      </trkpt>
      <trkpt lat="42.39703" lon="2.95024">
        <ele>144.6</ele>
        <time>2022-05-21 14:00:11</time>
      </trkpt>
      <trkpt lat="42.39711" lon="2.95031">
        <ele>144.6</ele>
        <time>2022-05-21 14:00:12</time>
      </trkpt>
      <trkpt lat="42.39717" lon="2.95037">
        <ele>144.6</ele>
        <time>2022-05-21 14:00:13</time>
      </trkpt>
      <trkpt lat="42.39724" lon="2.95042">
        <ele>144.6</ele>
        <time>2022-05-21 14:00:14</time>
      </trkpt>
      <trkpt lat="42.3973" lon="2.95048">
        <ele>144.6</ele>
        <time>2022-05-21 14:00:15</time>
      </trkpt>
      <trkpt lat="42.39737" lon="2.95053">
        <ele>144.8</ele>
        <time>2022-05-21 14:00:16</time>
      </trkpt>
      <trkpt lat="42.39744" lon="2.95059">
        <ele>144.6</ele>
        <time>2022-05-21 14:00:17</time>
      </trkpt>
      <trkpt lat="42.3975" lon="2.95064">
        <ele>144.8</ele>
        <time>2022-05-21 14:00:18</time>
      </trkpt>
      <trkpt lat="42.39756" lon="2.95069">
        <ele>144.8</ele>
        <time>2022-05-21 14:00:19</time>
      </trkpt>
      <trkpt lat="42.39762" lon="2.95073">
        <ele>145</ele>
        <time>2022-05-21 14:00:20</time>
      </trkpt>
      <trkpt lat="42.39768" lon="2.95078">
        <ele>145</ele>
        <time>2022-05-21 14:00:21</time>
      </trkpt>
      <trkpt lat="42.39774" lon="2.95082">
        <ele>145.2</ele>
        <time>2022-05-21 14:00:22</time>
      </trkpt>
      <trkpt lat="42.3978" lon="2.95087">
        <ele>145.4</ele>
        <time>2022-05-21 14:00:23</time>
      </trkpt>
      <trkpt lat="42.39786" lon="2.95092">
        <ele>145.4</ele>
        <time>2022-05-21 14:00:24</time>
      </trkpt>
      <trkpt lat="42.39792" lon="2.95096">
        <ele>145.6</ele>
        <time>2022-05-21 14:00:25</time>
      </trkpt>
      <trkpt lat="42.39797" lon="2.95101">
        <ele>145.8</ele>
        <time>2022-05-21 14:00:26</time>
      </trkpt>
      <trkpt lat="42.39803" lon="2.95106">
        <ele>145.8</ele>
        <time>2022-05-21 14:00:27</time>
      </trkpt>
      <trkpt lat="42.39808" lon="2.9511">
        <ele>146</ele>
        <time>2022-05-21 14:00:28</time>
      </trkpt>
      <trkpt lat="42.39813" lon="2.95114">
        <ele>146.2</ele>
        <time>2022-05-21 14:00:29</time>
      </trkpt>
      <trkpt lat="42.39818" lon="2.95119">
        <ele>146.4</ele>
        <time>2022-05-21 14:00:30</time>
      </trkpt>
      <trkpt lat="42.39823" lon="2.95123">
        <ele>146.6</ele>
        <time>2022-05-21 14:00:31</time>
      </trkpt>
      <trkpt lat="42.39828" lon="2.95127">
        <ele>146.6</ele>
        <time>2022-05-21 14:00:32</time>
      </trkpt>
      <trkpt lat="42.39833" lon="2.95131">
        <ele>146.8</ele>
        <time>2022-05-21 14:00:33</time>
      </trkpt>
      <trkpt lat="42.39838" lon="2.95135">
        <ele>147</ele>
        <time>2022-05-21 14:00:34</time>
      </trkpt>
      <trkpt lat="42.39842" lon="2.95139">
        <ele>147.2</ele>
        <time>2022-05-21 14:00:35</time>
      </trkpt>
      <trkpt lat="42.39847" lon="2.95143">
        <ele>147.4</ele>
        <time>2022-05-21 14:00:36</time>
      </trkpt>
      <trkpt lat="42.39851" lon="2.95146">
        <ele>147.6</ele>
        <time>2022-05-21 14:00:37</time>
      </trkpt>
      <trkpt lat="42.39855" lon="2.9515">
        <ele>147.8</ele>
        <time>2022-05-21 14:00:38</time>
      </trkpt>
      <trkpt lat="42.39859" lon="2.95154">
        <ele>148</ele>
        <time>2022-05-21 14:00:39</time>
      </trkpt>
      <trkpt lat="42.39863" lon="2.95157">
        <ele>148.4</ele>
        <time>2022-05-21 14:00:40</time>
      </trkpt>
      <trkpt lat="42.39867" lon="2.9516">
        <ele>148.6</ele>
        <time>2022-05-21 14:00:41</time>
      </trkpt>
      <trkpt lat="42.39871" lon="2.95163">
        <ele>148.8</ele>
        <time>2022-05-21 14:00:42</time>
      </trkpt>
      <trkpt lat="42.39874" lon="2.95166">
        <ele>149</ele>
        <time>2022-05-21 14:00:43</time>
      </trkpt>
      <trkpt lat="42.39878" lon="2.9517">
        <ele>149.2</ele>
        <time>2022-05-21 14:00:44</time>
      </trkpt>
      <trkpt lat="42.39882" lon="2.95173">
        <ele>149.4</ele>
        <time>2022-05-21 14:00:45</time>
      </trkpt>
      <trkpt lat="42.39886" lon="2.95176">
        <ele>149.8</ele>
        <time>2022-05-21 14:00:46</time>
      </trkpt>
      <trkpt lat="42.3989" lon="2.95179">
        <ele>150</ele>
        <time>2022-05-21 14:00:47</time>
      </trkpt>
      <trkpt lat="42.39893" lon="2.95182">
        <ele>150.2</ele>
        <time>2022-05-21 14:00:48</time>
      </trkpt>
      <trkpt lat="42.39897" lon="2.95185">
        <ele>150.4</ele>
        <time>2022-05-21 14:00:49</time>
      </trkpt>
      <trkpt lat="42.39901" lon="2.95188">
        <ele>150.6</ele>
        <time>2022-05-21 14:00:50</time>
      </trkpt>
      <trkpt lat="42.39905" lon="2.95192">
        <ele>150.8</ele>
        <time>2022-05-21 14:00:51</time>
      </trkpt>
      <trkpt lat="42.39908" lon="2.95195">
        <ele>151</ele>
        <time>2022-05-21 14:00:52</time>
      </trkpt>
      <trkpt lat="42.39912" lon="2.95198">
        <ele>151</ele>
        <time>2022-05-21 14:00:53</time>
      </trkpt>
      <trkpt lat="42.39916" lon="2.95201">
        <ele>151.2</ele>
        <time>2022-05-21 14:00:54</time>
      </trkpt>
      <trkpt lat="42.3992" lon="2.95204">
        <ele>151.4</ele>
        <time>2022-05-21 14:00:55</time>
      </trkpt>
      <trkpt lat="42.39924" lon="2.95207">
        <ele>151.6</ele>
        <time>2022-05-21 14:00:56</time>
      </trkpt>
      <trkpt lat="42.39928" lon="2.9521">
        <ele>151.8</ele>
        <time>2022-05-21 14:00:57</time>
      </trkpt>
      <trkpt lat="42.39932" lon="2.95213">
        <ele>152</ele>
        <time>2022-05-21 14:00:58</time>
      </trkpt>
      <trkpt lat="42.39936" lon="2.95216">
        <ele>152.2</ele>
        <time>2022-05-21 14:00:59</time>
      </trkpt>
      <trkpt lat="42.3994" lon="2.95218">
        <ele>152.4</ele>
        <time>2022-05-21 14:01:00</time>
      </trkpt>
      <trkpt lat="42.39945" lon="2.9522">
        <ele>152.6</ele>
        <time>2022-05-21 14:01:01</time>
      </trkpt>
      <trkpt lat="42.39949" lon="2.95221">
        <ele>152.6</ele>
        <time>2022-05-21 14:01:02</time>
      </trkpt>
      <trkpt lat="42.39953" lon="2.95223">
        <ele>152.8</ele>
        <time>2022-05-21 14:01:03</time>
      </trkpt>
      <trkpt lat="42.39958" lon="2.95224">
        <ele>152.8</ele>
        <time>2022-05-21 14:01:04</time>
      </trkpt>
      <trkpt lat="42.39963" lon="2.95224">
        <ele>152.8</ele>
        <time>2022-05-21 14:01:05</time>
      </trkpt>
      <trkpt lat="42.39968" lon="2.95224">
        <ele>152.8</ele>
        <time>2022-05-21 14:01:06</time>
      </trkpt>
      <trkpt lat="42.39973" lon="2.95224">
        <ele>152.8</ele>
        <time>2022-05-21 14:01:07</time>
      </trkpt>
      <trkpt lat="42.39978" lon="2.95223">
        <ele>152.6</ele>
        <time>2022-05-21 14:01:08</time>
      </trkpt>
      <trkpt lat="42.39983" lon="2.95222">
        <ele>152.6</ele>
        <time>2022-05-21 14:01:09</time>
      </trkpt>
      <trkpt lat="42.39988" lon="2.9522">
        <ele>152.4</ele>
        <time>2022-05-21 14:01:10</time>
      </trkpt>
      <trkpt lat="42.39993" lon="2.95217">
        <ele>152.4</ele>
        <time>2022-05-21 14:01:11</time>
      </trkpt>
      <trkpt lat="42.39998" lon="2.95212">
        <ele>152.2</ele>
        <time>2022-05-21 14:01:12</time>
      </trkpt>
      <trkpt lat="42.40002" lon="2.95207">
        <ele>152</ele>
        <time>2022-05-21 14:01:13</time>
      </trkpt>
      <trkpt lat="42.40007" lon="2.952">
        <ele>151.6</ele>
        <time>2022-05-21 14:01:14</time>
      </trkpt>
      <trkpt lat="42.40012" lon="2.95192">
        <ele>151.4</ele>
        <time>2022-05-21 14:01:15</time>
      </trkpt>
      <trkpt lat="42.40016" lon="2.95185">
        <ele>151.2</ele>
        <time>2022-05-21 14:01:16</time>
      </trkpt>
      <trkpt lat="42.40021" lon="2.95177">
        <ele>151</ele>
        <time>2022-05-21 14:01:17</time>
      </trkpt>
      <trkpt lat="42.40025" lon="2.9517">
        <ele>150.8</ele>
        <time>2022-05-21 14:01:18</time>
      </trkpt>
      <trkpt lat="42.4003" lon="2.95162">
        <ele>150.6</ele>
        <time>2022-05-21 14:01:19</time>
      </trkpt>
      <trkpt lat="42.40035" lon="2.95154">
        <ele>150.4</ele>
        <time>2022-05-21 14:01:20</time>
      </trkpt>
      <trkpt lat="42.4004" lon="2.95146">
        <ele>150</ele>
        <time>2022-05-21 14:01:21</time>
      </trkpt>
      <trkpt lat="42.40045" lon="2.95138">
        <ele>149.8</ele>
        <time>2022-05-21 14:01:22</time>
      </trkpt>
      <trkpt lat="42.40049" lon="2.95131">
        <ele>149.6</ele>
        <time>2022-05-21 14:01:23</time>
      </trkpt>
      <trkpt lat="42.40054" lon="2.95123">
        <ele>149.4</ele>
        <time>2022-05-21 14:01:24</time>
      </trkpt>
      <trkpt lat="42.40059" lon="2.95115">
        <ele>149.2</ele>
        <time>2022-05-21 14:01:25</time>
      </trkpt>
      <trkpt lat="42.40064" lon="2.95107">
        <ele>149</ele>
        <time>2022-05-21 14:01:26</time>
      </trkpt>
      <trkpt lat="42.40068" lon="2.951">
        <ele>148.8</ele>
        <time>2022-05-21 14:01:27</time>
      </trkpt>
      <trkpt lat="42.40073" lon="2.95093">
        <ele>148.6</ele>
        <time>2022-05-21 14:01:28</time>
      </trkpt>
      <trkpt lat="42.40078" lon="2.95085">
        <ele>148.4</ele>
        <time>2022-05-21 14:01:29</time>
      </trkpt>
      <trkpt lat="42.40083" lon="2.95077">
        <ele>148.2</ele>
        <time>2022-05-21 14:01:30</time>
      </trkpt>
      <trkpt lat="42.40088" lon="2.9507">
        <ele>148</ele>
        <time>2022-05-21 14:01:31</time>
      </trkpt>
      <trkpt lat="42.40093" lon="2.95063">
        <ele>148</ele>
        <time>2022-05-21 14:01:32</time>
      </trkpt>
      <trkpt lat="42.40099" lon="2.95055">
        <ele>147.8</ele>
        <time>2022-05-21 14:01:33</time>
      </trkpt>
      <trkpt lat="42.40104" lon="2.95046">
        <ele>147.6</ele>
        <time>2022-05-21 14:01:34</time>
      </trkpt>
      <trkpt lat="42.4011" lon="2.95037">
        <ele>147.4</ele>
        <time>2022-05-21 14:01:35</time>
      </trkpt>
      <trkpt lat="42.40115" lon="2.95029">
        <ele>147.4</ele>
        <time>2022-05-21 14:01:36</time>
      </trkpt>
      <trkpt lat="42.4012" lon="2.9502">
        <ele>147.2</ele>
        <time>2022-05-21 14:01:37</time>
      </trkpt>
      <trkpt lat="42.40126" lon="2.95011">
        <ele>147</ele>
        <time>2022-05-21 14:01:38</time>
      </trkpt>
      <trkpt lat="42.40131" lon="2.95003">
        <ele>146.8</ele>
        <time>2022-05-21 14:01:39</time>
      </trkpt>
      <trkpt lat="42.40137" lon="2.94994">
        <ele>146.6</ele>
        <time>2022-05-21 14:01:40</time>
      </trkpt>
      <trkpt lat="42.40143" lon="2.94987">
        <ele>146.6</ele>
        <time>2022-05-21 14:01:41</time>
      </trkpt>
      <trkpt lat="42.40149" lon="2.94981">
        <ele>146.4</ele>
        <time>2022-05-21 14:01:42</time>
      </trkpt>
      <trkpt lat="42.40156" lon="2.94976">
        <ele>146.4</ele>
        <time>2022-05-21 14:01:43</time>
      </trkpt>
      <trkpt lat="42.40163" lon="2.94971">
        <ele>146.2</ele>
        <time>2022-05-21 14:01:44</time>
      </trkpt>
      <trkpt lat="42.40169" lon="2.94966">
        <ele>146.2</ele>
        <time>2022-05-21 14:01:45</time>
      </trkpt>
      <trkpt lat="42.40176" lon="2.94961">
        <ele>146</ele>
        <time>2022-05-21 14:01:46</time>
      </trkpt>
      <trkpt lat="42.40183" lon="2.94956">
        <ele>146</ele>
        <time>2022-05-21 14:01:47</time>
      </trkpt>
      <trkpt lat="42.4019" lon="2.94951">
        <ele>145.8</ele>
        <time>2022-05-21 14:01:48</time>
      </trkpt>
      <trkpt lat="42.40197" lon="2.94946">
        <ele>145.8</ele>
        <time>2022-05-21 14:01:49</time>
      </trkpt>
      <trkpt lat="42.40203" lon="2.94942">
        <ele>145.6</ele>
        <time>2022-05-21 14:01:50</time>
      </trkpt>
      <trkpt lat="42.40211" lon="2.94937">
        <ele>145.6</ele>
        <time>2022-05-21 14:01:51</time>
      </trkpt>
      <trkpt lat="42.40218" lon="2.94934">
        <ele>145.6</ele>
        <time>2022-05-21 14:01:52</time>
      </trkpt>
      <trkpt lat="42.40225" lon="2.94932">
        <ele>145.6</ele>
        <time>2022-05-21 14:01:53</time>
      </trkpt>
      <trkpt lat="42.40233" lon="2.94929">
        <ele>145.6</ele>
        <time>2022-05-21 14:01:54</time>
      </trkpt>
      <trkpt lat="42.4024" lon="2.94927">
        <ele>145.4</ele>
        <time>2022-05-21 14:01:55</time>
      </trkpt>
      <trkpt lat="42.40247" lon="2.94924">
        <ele>145.2</ele>
        <time>2022-05-21 14:01:56</time>
      </trkpt>
      <trkpt lat="42.40254" lon="2.94922">
        <ele>145.2</ele>
        <time>2022-05-21 14:01:57</time>
      </trkpt>
      <trkpt lat="42.40261" lon="2.94919">
        <ele>145.2</ele>
        <time>2022-05-21 14:01:58</time>
      </trkpt>
      <trkpt lat="42.40268" lon="2.94917">
        <ele>145.2</ele>
        <time>2022-05-21 14:01:59</time>
      </trkpt>
      <trkpt lat="42.40275" lon="2.94916">
        <ele>145.2</ele>
        <time>2022-05-21 14:02:00</time>
      </trkpt>
      <trkpt lat="42.40283" lon="2.94914">
        <ele>145.4</ele>
        <time>2022-05-21 14:02:01</time>
      </trkpt>
      <trkpt lat="42.4029" lon="2.94913">
        <ele>145.4</ele>
        <time>2022-05-21 14:02:02</time>
      </trkpt>
      <trkpt lat="42.40297" lon="2.94913">
        <ele>145.4</ele>
        <time>2022-05-21 14:02:03</time>
      </trkpt>
      <trkpt lat="42.40304" lon="2.94913">
        <ele>145.4</ele>
        <time>2022-05-21 14:02:04</time>
      </trkpt>
      <trkpt lat="42.40311" lon="2.94912">
        <ele>145.2</ele>
        <time>2022-05-21 14:02:05</time>
      </trkpt>
      <trkpt lat="42.40318" lon="2.94912">
        <ele>145.2</ele>
        <time>2022-05-21 14:02:06</time>
      </trkpt>
      <trkpt lat="42.40326" lon="2.94912">
        <ele>145.2</ele>
        <time>2022-05-21 14:02:07</time>
      </trkpt>
      <trkpt lat="42.40333" lon="2.94911">
        <ele>145.2</ele>
        <time>2022-05-21 14:02:08</time>
      </trkpt>
      <trkpt lat="42.4034" lon="2.9491">
        <ele>145.2</ele>
        <time>2022-05-21 14:02:09</time>
      </trkpt>
      <trkpt lat="42.40347" lon="2.94908">
        <ele>145.2</ele>
        <time>2022-05-21 14:02:10</time>
      </trkpt>
      <trkpt lat="42.40353" lon="2.94905">
        <ele>145</ele>
        <time>2022-05-21 14:02:11</time>
      </trkpt>
      <trkpt lat="42.4036" lon="2.94901">
        <ele>145</ele>
        <time>2022-05-21 14:02:12</time>
      </trkpt>
      <trkpt lat="42.40366" lon="2.94897">
        <ele>145</ele>
        <time>2022-05-21 14:02:13</time>
      </trkpt>
      <trkpt lat="42.40371" lon="2.94892">
        <ele>145</ele>
        <time>2022-05-21 14:02:14</time>
      </trkpt>
      <trkpt lat="42.40377" lon="2.94888">
        <ele>145</ele>
        <time>2022-05-21 14:02:15</time>
      </trkpt>
      <trkpt lat="42.40382" lon="2.94883">
        <ele>145</ele>
        <time>2022-05-21 14:02:16</time>
      </trkpt>
      <trkpt lat="42.40388" lon="2.94877">
        <ele>145</ele>
        <time>2022-05-21 14:02:17</time>
      </trkpt>
      <trkpt lat="42.40393" lon="2.94872">
        <ele>145</ele>
        <time>2022-05-21 14:02:18</time>
      </trkpt>
      <trkpt lat="42.40398" lon="2.94866">
        <ele>145</ele>
        <time>2022-05-21 14:02:19</time>
      </trkpt>
      <trkpt lat="42.40403" lon="2.94861">
        <ele>145.2</ele>
        <time>2022-05-21 14:02:20</time>
      </trkpt>
      <trkpt lat="42.40408" lon="2.94856">
        <ele>145.2</ele>
        <time>2022-05-21 14:02:21</time>
      </trkpt>
      <trkpt lat="42.40412" lon="2.9485">
        <ele>145.2</ele>
        <time>2022-05-21 14:02:22</time>
      </trkpt>
      <trkpt lat="42.40417" lon="2.94844">
        <ele>145.2</ele>
        <time>2022-05-21 14:02:23</time>
      </trkpt>
      <trkpt lat="42.40421" lon="2.94838">
        <ele>145.4</ele>
        <time>2022-05-21 14:02:24</time>
      </trkpt>
      <trkpt lat="42.40425" lon="2.94831">
        <ele>145.4</ele>
        <time>2022-05-21 14:02:25</time>
      </trkpt>
      <trkpt lat="42.40428" lon="2.94824">
        <ele>145.4</ele>
        <time>2022-05-21 14:02:26</time>
      </trkpt>
      <trkpt lat="42.40431" lon="2.94816">
        <ele>145.6</ele>
        <time>2022-05-21 14:02:27</time>
      </trkpt>
      <trkpt lat="42.40434" lon="2.94809">
        <ele>145.6</ele>
        <time>2022-05-21 14:02:28</time>
      </trkpt>
      <trkpt lat="42.40438" lon="2.94802">
        <ele>145.6</ele>
        <time>2022-05-21 14:02:29</time>
      </trkpt>
      <trkpt lat="42.40442" lon="2.94796">
        <ele>145.6</ele>
        <time>2022-05-21 14:02:30</time>
      </trkpt>
      <trkpt lat="42.40447" lon="2.94791">
        <ele>145.6</ele>
        <time>2022-05-21 14:02:31</time>
      </trkpt>
      <trkpt lat="42.40452" lon="2.94787">
        <ele>145.8</ele>
        <time>2022-05-21 14:02:32</time>
      </trkpt>
      <trkpt lat="42.40458" lon="2.94782">
        <ele>145.8</ele>
        <time>2022-05-21 14:02:33</time>
      </trkpt>
      <trkpt lat="42.40463" lon="2.94778">
        <ele>145.8</ele>
        <time>2022-05-21 14:02:34</time>
      </trkpt>
      <trkpt lat="42.40468" lon="2.94773">
        <ele>146</ele>
        <time>2022-05-21 14:02:35</time>
      </trkpt>
      <trkpt lat="42.40473" lon="2.94769">
        <ele>146</ele>
        <time>2022-05-21 14:02:36</time>
      </trkpt>
      <trkpt lat="42.40478" lon="2.94764">
        <ele>146.2</ele>
        <time>2022-05-21 14:02:37</time>
      </trkpt>
      <trkpt lat="42.40482" lon="2.9476">
        <ele>146.2</ele>
        <time>2022-05-21 14:02:38</time>
      </trkpt>
      <trkpt lat="42.40487" lon="2.94755">
        <ele>146.4</ele>
        <time>2022-05-21 14:02:39</time>
      </trkpt>
      <trkpt lat="42.40492" lon="2.94751">
        <ele>146.4</ele>
        <time>2022-05-21 14:02:40</time>
      </trkpt>
      <trkpt lat="42.40497" lon="2.94747">
        <ele>146.6</ele>
        <time>2022-05-21 14:02:41</time>
      </trkpt>
      <trkpt lat="42.40502" lon="2.94742">
        <ele>146.6</ele>
        <time>2022-05-21 14:02:42</time>
      </trkpt>
      <trkpt lat="42.40506" lon="2.94737">
        <ele>146.8</ele>
        <time>2022-05-21 14:02:43</time>
      </trkpt>
      <trkpt lat="42.40511" lon="2.94732">
        <ele>146.8</ele>
        <time>2022-05-21 14:02:44</time>
      </trkpt>
      <trkpt lat="42.40515" lon="2.94727">
        <ele>147</ele>
        <time>2022-05-21 14:02:45</time>
      </trkpt>
      <trkpt lat="42.40519" lon="2.94721">
        <ele>147</ele>
        <time>2022-05-21 14:02:46</time>
      </trkpt>
      <trkpt lat="42.40522" lon="2.94715">
        <ele>147</ele>
        <time>2022-05-21 14:02:47</time>
      </trkpt>
      <trkpt lat="42.40525" lon="2.94707">
        <ele>147</ele>
        <time>2022-05-21 14:02:48</time>
      </trkpt>
      <trkpt lat="42.40526" lon="2.94699">
        <ele>147</ele>
        <time>2022-05-21 14:02:49</time>
      </trkpt>
      <trkpt lat="42.40525" lon="2.94691">
        <ele>147</ele>
        <time>2022-05-21 14:02:50</time>
      </trkpt>
      <trkpt lat="42.40524" lon="2.94683">
        <ele>146.8</ele>
        <time>2022-05-21 14:02:51</time>
      </trkpt>
      <trkpt lat="42.40522" lon="2.94675">
        <ele>146.8</ele>
        <time>2022-05-21 14:02:52</time>
      </trkpt>
      <trkpt lat="42.4052" lon="2.94666">
        <ele>146.6</ele>
        <time>2022-05-21 14:02:53</time>
      </trkpt>
      <trkpt lat="42.40519" lon="2.94658">
        <ele>146.4</ele>
        <time>2022-05-21 14:02:54</time>
      </trkpt>
      <trkpt lat="42.40517" lon="2.94649">
        <ele>146.4</ele>
        <time>2022-05-21 14:02:55</time>
      </trkpt>
      <trkpt lat="42.40516" lon="2.9464">
        <ele>146.4</ele>
        <time>2022-05-21 14:02:56</time>
      </trkpt>
      <trkpt lat="42.40516" lon="2.94632">
        <ele>146.2</ele>
        <time>2022-05-21 14:02:57</time>
      </trkpt>
      <trkpt lat="42.40515" lon="2.94623">
        <ele>146.2</ele>
        <time>2022-05-21 14:02:58</time>
      </trkpt>
      <trkpt lat="42.40515" lon="2.94614">
        <ele>146</ele>
        <time>2022-05-21 14:02:59</time>
      </trkpt>
      <trkpt lat="42.40514" lon="2.94606">
        <ele>146</ele>
        <time>2022-05-21 14:03:00</time>
      </trkpt>
      <trkpt lat="42.40514" lon="2.94598">
        <ele>146</ele>
        <time>2022-05-21 14:03:01</time>
      </trkpt>
      <trkpt lat="42.40514" lon="2.94589">
        <ele>146</ele>
        <time>2022-05-21 14:03:02</time>
      </trkpt>
      <trkpt lat="42.40513" lon="2.94581">
        <ele>145.8</ele>
        <time>2022-05-21 14:03:03</time>
      </trkpt>
      <trkpt lat="42.40513" lon="2.94572">
        <ele>145.8</ele>
        <time>2022-05-21 14:03:04</time>
      </trkpt>
      <trkpt lat="42.40513" lon="2.94564">
        <ele>145.6</ele>
        <time>2022-05-21 14:03:05</time>
      </trkpt>
      <trkpt lat="42.40512" lon="2.94555">
        <ele>145.6</ele>
        <time>2022-05-21 14:03:06</time>
      </trkpt>
      <trkpt lat="42.40512" lon="2.94547">
        <ele>145.4</ele>
        <time>2022-05-21 14:03:07</time>
      </trkpt>
      <trkpt lat="42.40512" lon="2.94539">
        <ele>145.6</ele>
        <time>2022-05-21 14:03:08</time>
      </trkpt>
      <trkpt lat="42.40512" lon="2.9453">
        <ele>145.4</ele>
        <time>2022-05-21 14:03:09</time>
      </trkpt>
      <trkpt lat="42.40512" lon="2.94522">
        <ele>145.4</ele>
        <time>2022-05-21 14:03:10</time>
      </trkpt>
      <trkpt lat="42.40512" lon="2.94514">
        <ele>145.4</ele>
        <time>2022-05-21 14:03:11</time>
      </trkpt>
      <trkpt lat="42.40513" lon="2.94506">
        <ele>145.4</ele>
        <time>2022-05-21 14:03:12</time>
      </trkpt>
      <trkpt lat="42.40513" lon="2.94498">
        <ele>145.4</ele>
        <time>2022-05-21 14:03:13</time>
      </trkpt>
      <trkpt lat="42.40514" lon="2.9449">
        <ele>145.4</ele>
        <time>2022-05-21 14:03:14</time>
      </trkpt>
      <trkpt lat="42.40516" lon="2.94483">
        <ele>145.4</ele>
        <time>2022-05-21 14:03:15</time>
      </trkpt>
      <trkpt lat="42.40519" lon="2.94475">
        <ele>145.6</ele>
        <time>2022-05-21 14:03:16</time>
      </trkpt>
      <trkpt lat="42.40522" lon="2.94469">
        <ele>145.6</ele>
        <time>2022-05-21 14:03:17</time>
      </trkpt>
      <trkpt lat="42.40525" lon="2.94463">
        <ele>145.8</ele>
        <time>2022-05-21 14:03:18</time>
      </trkpt>
      <trkpt lat="42.40527" lon="2.94457">
        <ele>145.8</ele>
        <time>2022-05-21 14:03:19</time>
      </trkpt>
      <trkpt lat="42.40531" lon="2.9445">
        <ele>145.8</ele>
        <time>2022-05-21 14:03:20</time>
      </trkpt>
      <trkpt lat="42.40534" lon="2.94444">
        <ele>146</ele>
        <time>2022-05-21 14:03:21</time>
      </trkpt>
      <trkpt lat="42.40536" lon="2.94437">
        <ele>146</ele>
        <time>2022-05-21 14:03:22</time>
      </trkpt>
      <trkpt lat="42.40539" lon="2.94431">
        <ele>146</ele>
        <time>2022-05-21 14:03:23</time>
      </trkpt>
      <trkpt lat="42.40542" lon="2.94425">
        <ele>146</ele>
        <time>2022-05-21 14:03:24</time>
      </trkpt>
      <trkpt lat="42.40546" lon="2.94418">
        <ele>146</ele>
        <time>2022-05-21 14:03:25</time>
      </trkpt>
      <trkpt lat="42.40549" lon="2.94412">
        <ele>145.8</ele>
        <time>2022-05-21 14:03:26</time>
      </trkpt>
      <trkpt lat="42.40553" lon="2.94407">
        <ele>145.8</ele>
        <time>2022-05-21 14:03:27</time>
      </trkpt>
      <trkpt lat="42.40557" lon="2.94402">
        <ele>145.8</ele>
        <time>2022-05-21 14:03:28</time>
      </trkpt>
      <trkpt lat="42.40561" lon="2.94397">
        <ele>145.8</ele>
        <time>2022-05-21 14:03:29</time>
      </trkpt>
      <trkpt lat="42.40565" lon="2.94392">
        <ele>145.8</ele>
        <time>2022-05-21 14:03:30</time>
      </trkpt>
      <trkpt lat="42.40569" lon="2.94387">
        <ele>145.8</ele>
        <time>2022-05-21 14:03:31</time>
      </trkpt>
      <trkpt lat="42.40573" lon="2.94382">
        <ele>146</ele>
        <time>2022-05-21 14:03:32</time>
      </trkpt>
      <trkpt lat="42.40577" lon="2.94377">
        <ele>146</ele>
        <time>2022-05-21 14:03:33</time>
      </trkpt>
      <trkpt lat="42.40581" lon="2.94373">
        <ele>146.2</ele>
        <time>2022-05-21 14:03:34</time>
      </trkpt>
      <trkpt lat="42.40584" lon="2.94367">
        <ele>146.2</ele>
        <time>2022-05-21 14:03:35</time>
      </trkpt>
      <trkpt lat="42.40588" lon="2.94361">
        <ele>146.4</ele>
        <time>2022-05-21 14:03:36</time>
      </trkpt>
      <trkpt lat="42.4059" lon="2.94355">
        <ele>146.4</ele>
        <time>2022-05-21 14:03:37</time>
      </trkpt>
      <trkpt lat="42.40593" lon="2.94348">
        <ele>146.4</ele>
        <time>2022-05-21 14:03:38</time>
      </trkpt>
      <trkpt lat="42.40595" lon="2.94341">
        <ele>146.4</ele>
        <time>2022-05-21 14:03:39</time>
      </trkpt>
      <trkpt lat="42.40596" lon="2.94334">
        <ele>146.4</ele>
        <time>2022-05-21 14:03:40</time>
      </trkpt>
      <trkpt lat="42.40596" lon="2.94328">
        <ele>146.6</ele>
        <time>2022-05-21 14:03:41</time>
      </trkpt>
      <trkpt lat="42.40598" lon="2.94321">
        <ele>146.6</ele>
        <time>2022-05-21 14:03:42</time>
      </trkpt>
      <trkpt lat="42.406" lon="2.94314">
        <ele>146.6</ele>
        <time>2022-05-21 14:03:43</time>
      </trkpt>
      <trkpt lat="42.40602" lon="2.94308">
        <ele>146.8</ele>
        <time>2022-05-21 14:03:44</time>
      </trkpt>
      <trkpt lat="42.40604" lon="2.94302">
        <ele>146.8</ele>
        <time>2022-05-21 14:03:45</time>
      </trkpt>
      <trkpt lat="42.40607" lon="2.94296">
        <ele>147</ele>
        <time>2022-05-21 14:03:46</time>
      </trkpt>
      <trkpt lat="42.4061" lon="2.9429">
        <ele>147</ele>
        <time>2022-05-21 14:03:47</time>
      </trkpt>
      <trkpt lat="42.40614" lon="2.94285">
        <ele>147.2</ele>
        <time>2022-05-21 14:03:48</time>
      </trkpt>
      <trkpt lat="42.40617" lon="2.9428">
        <ele>147.2</ele>
        <time>2022-05-21 14:03:49</time>
      </trkpt>
      <trkpt lat="42.4062" lon="2.94275">
        <ele>147.4</ele>
        <time>2022-05-21 14:03:50</time>
      </trkpt>
      <trkpt lat="42.40624" lon="2.94269">
        <ele>147.4</ele>
        <time>2022-05-21 14:03:51</time>
      </trkpt>
      <trkpt lat="42.40627" lon="2.94265">
        <ele>147.4</ele>
        <time>2022-05-21 14:03:52</time>
      </trkpt>
      <trkpt lat="42.40631" lon="2.9426">
        <ele>147.6</ele>
        <time>2022-05-21 14:03:53</time>
      </trkpt>
      <trkpt lat="42.40634" lon="2.94255">
        <ele>147.6</ele>
        <time>2022-05-21 14:03:54</time>
      </trkpt>
      <trkpt lat="42.40638" lon="2.9425">
        <ele>147.6</ele>
        <time>2022-05-21 14:03:55</time>
      </trkpt>
      <trkpt lat="42.40641" lon="2.94245">
        <ele>147.6</ele>
        <time>2022-05-21 14:03:56</time>
      </trkpt>
      <trkpt lat="42.40644" lon="2.9424">
        <ele>147.6</ele>
        <time>2022-05-21 14:03:57</time>
      </trkpt>
      <trkpt lat="42.40647" lon="2.94235">
        <ele>147.8</ele>
        <time>2022-05-21 14:03:58</time>
      </trkpt>
      <trkpt lat="42.40651" lon="2.9423">
        <ele>147.8</ele>
        <time>2022-05-21 14:03:59</time>
      </trkpt>
      <trkpt lat="42.40654" lon="2.94225">
        <ele>147.8</ele>
        <time>2022-05-21 14:04:00</time>
      </trkpt>
      <trkpt lat="42.40657" lon="2.9422">
        <ele>147.8</ele>
        <time>2022-05-21 14:04:01</time>
      </trkpt>
      <trkpt lat="42.4066" lon="2.94215">
        <ele>147.8</ele>
        <time>2022-05-21 14:04:02</time>
      </trkpt>
      <trkpt lat="42.40664" lon="2.9421">
        <ele>148</ele>
        <time>2022-05-21 14:04:03</time>
      </trkpt>
      <trkpt lat="42.40667" lon="2.94204">
        <ele>148</ele>
        <time>2022-05-21 14:04:04</time>
      </trkpt>
      <trkpt lat="42.40671" lon="2.94199">
        <ele>148</ele>
        <time>2022-05-21 14:04:05</time>
      </trkpt>
      <trkpt lat="42.40674" lon="2.94194">
        <ele>148.2</ele>
        <time>2022-05-21 14:04:06</time>
      </trkpt>
      <trkpt lat="42.40677" lon="2.94189">
        <ele>148.2</ele>
        <time>2022-05-21 14:04:07</time>
      </trkpt>
      <trkpt lat="42.40681" lon="2.94184">
        <ele>148.2</ele>
        <time>2022-05-21 14:04:08</time>
      </trkpt>
      <trkpt lat="42.40684" lon="2.94179">
        <ele>148.4</ele>
        <time>2022-05-21 14:04:09</time>
      </trkpt>
      <trkpt lat="42.40688" lon="2.94174">
        <ele>148.4</ele>
        <time>2022-05-21 14:04:10</time>
      </trkpt>
      <trkpt lat="42.40691" lon="2.94169">
        <ele>148.6</ele>
        <time>2022-05-21 14:04:11</time>
      </trkpt>
      <trkpt lat="42.40695" lon="2.94164">
        <ele>148.6</ele>
        <time>2022-05-21 14:04:12</time>
      </trkpt>
      <trkpt lat="42.40698" lon="2.94158">
        <ele>148.8</ele>
        <time>2022-05-21 14:04:13</time>
      </trkpt>
      <trkpt lat="42.40702" lon="2.94153">
        <ele>148.8</ele>
        <time>2022-05-21 14:04:14</time>
      </trkpt>
      <trkpt lat="42.40705" lon="2.94149">
        <ele>149</ele>
        <time>2022-05-21 14:04:15</time>
      </trkpt>
      <trkpt lat="42.40709" lon="2.94143">
        <ele>149</ele>
        <time>2022-05-21 14:04:16</time>
      </trkpt>
      <trkpt lat="42.40712" lon="2.94138">
        <ele>149.2</ele>
        <time>2022-05-21 14:04:17</time>
      </trkpt>
      <trkpt lat="42.40716" lon="2.94133">
        <ele>149.2</ele>
        <time>2022-05-21 14:04:18</time>
      </trkpt>
      <trkpt lat="42.40719" lon="2.94128">
        <ele>149.2</ele>
        <time>2022-05-21 14:04:19</time>
      </trkpt>
      <trkpt lat="42.40723" lon="2.94123">
        <ele>149.4</ele>
        <time>2022-05-21 14:04:20</time>
      </trkpt>
      <trkpt lat="42.40727" lon="2.94117">
        <ele>149.4</ele>
        <time>2022-05-21 14:04:21</time>
      </trkpt>
      <trkpt lat="42.40731" lon="2.94112">
        <ele>149.4</ele>
        <time>2022-05-21 14:04:22</time>
      </trkpt>
      <trkpt lat="42.40734" lon="2.94107">
        <ele>149.4</ele>
        <time>2022-05-21 14:04:23</time>
      </trkpt>
      <trkpt lat="42.40738" lon="2.94101">
        <ele>149.4</ele>
        <time>2022-05-21 14:04:24</time>
      </trkpt>
      <trkpt lat="42.40742" lon="2.94096">
        <ele>149.6</ele>
        <time>2022-05-21 14:04:25</time>
      </trkpt>
      <trkpt lat="42.40746" lon="2.94091">
        <ele>149.6</ele>
        <time>2022-05-21 14:04:26</time>
      </trkpt>
      <trkpt lat="42.4075" lon="2.94085">
        <ele>149.6</ele>
        <time>2022-05-21 14:04:27</time>
      </trkpt>
      <trkpt lat="42.40753" lon="2.9408">
        <ele>149.6</ele>
        <time>2022-05-21 14:04:28</time>
      </trkpt>
      <trkpt lat="42.40757" lon="2.94075">
        <ele>149.6</ele>
        <time>2022-05-21 14:04:29</time>
      </trkpt>
      <trkpt lat="42.40761" lon="2.94069">
        <ele>149.6</ele>
        <time>2022-05-21 14:04:30</time>
      </trkpt>
      <trkpt lat="42.40765" lon="2.94064">
        <ele>149.6</ele>
        <time>2022-05-21 14:04:31</time>
      </trkpt>
      <trkpt lat="42.40768" lon="2.94058">
        <ele>149.6</ele>
        <time>2022-05-21 14:04:32</time>
      </trkpt>
      <trkpt lat="42.40772" lon="2.94054">
        <ele>149.8</ele>
        <time>2022-05-21 14:04:33</time>
      </trkpt>
      <trkpt lat="42.40776" lon="2.94048">
        <ele>149.8</ele>
        <time>2022-05-21 14:04:34</time>
      </trkpt>
      <trkpt lat="42.4078" lon="2.94042">
        <ele>149.8</ele>
        <time>2022-05-21 14:04:35</time>
      </trkpt>
      <trkpt lat="42.40783" lon="2.94037">
        <ele>150</ele>
        <time>2022-05-21 14:04:36</time>
      </trkpt>
      <trkpt lat="42.40787" lon="2.94032">
        <ele>150</ele>
        <time>2022-05-21 14:04:37</time>
      </trkpt>
      <trkpt lat="42.4079" lon="2.94026">
        <ele>150</ele>
        <time>2022-05-21 14:04:38</time>
      </trkpt>
      <trkpt lat="42.40794" lon="2.94021">
        <ele>150.2</ele>
        <time>2022-05-21 14:04:39</time>
      </trkpt>
      <trkpt lat="42.40798" lon="2.94016">
        <ele>150.2</ele>
        <time>2022-05-21 14:04:40</time>
      </trkpt>
      <trkpt lat="42.40802" lon="2.94011">
        <ele>150.2</ele>
        <time>2022-05-21 14:04:41</time>
      </trkpt>
      <trkpt lat="42.40805" lon="2.94006">
        <ele>150.2</ele>
        <time>2022-05-21 14:04:42</time>
      </trkpt>
      <trkpt lat="42.40809" lon="2.94">
        <ele>150.2</ele>
        <time>2022-05-21 14:04:43</time>
      </trkpt>
      <trkpt lat="42.40813" lon="2.93995">
        <ele>150.4</ele>
        <time>2022-05-21 14:04:44</time>
      </trkpt>
      <trkpt lat="42.40816" lon="2.9399">
        <ele>150.4</ele>
        <time>2022-05-21 14:04:45</time>
      </trkpt>
      <trkpt lat="42.4082" lon="2.93984">
        <ele>150.4</ele>
        <time>2022-05-21 14:04:46</time>
      </trkpt>
      <trkpt lat="42.40824" lon="2.93979">
        <ele>150.4</ele>
        <time>2022-05-21 14:04:47</time>
      </trkpt>
      <trkpt lat="42.40827" lon="2.93974">
        <ele>150.4</ele>
        <time>2022-05-21 14:04:48</time>
      </trkpt>
      <trkpt lat="42.40831" lon="2.93969">
        <ele>150.4</ele>
        <time>2022-05-21 14:04:49</time>
      </trkpt>
      <trkpt lat="42.40835" lon="2.93964">
        <ele>150.4</ele>
        <time>2022-05-21 14:04:50</time>
      </trkpt>
      <trkpt lat="42.40838" lon="2.93959">
        <ele>150.4</ele>
        <time>2022-05-21 14:04:51</time>
      </trkpt>
      <trkpt lat="42.40842" lon="2.93954">
        <ele>150.4</ele>
        <time>2022-05-21 14:04:52</time>
      </trkpt>
      <trkpt lat="42.40846" lon="2.9395">
        <ele>150.4</ele>
        <time>2022-05-21 14:04:53</time>
      </trkpt>
      <trkpt lat="42.4085" lon="2.93946">
        <ele>150.6</ele>
        <time>2022-05-21 14:04:54</time>
      </trkpt>
      <trkpt lat="42.40855" lon="2.93943">
        <ele>150.6</ele>
        <time>2022-05-21 14:04:55</time>
      </trkpt>
      <trkpt lat="42.40859" lon="2.9394">
        <ele>150.8</ele>
        <time>2022-05-21 14:04:56</time>
      </trkpt>
      <trkpt lat="42.40864" lon="2.93937">
        <ele>150.8</ele>
        <time>2022-05-21 14:04:57</time>
      </trkpt>
      <trkpt lat="42.40869" lon="2.93934">
        <ele>151</ele>
        <time>2022-05-21 14:04:58</time>
      </trkpt>
      <trkpt lat="42.40874" lon="2.93932">
        <ele>151</ele>
        <time>2022-05-21 14:04:59</time>
      </trkpt>
      <trkpt lat="42.40879" lon="2.93929">
        <ele>151.2</ele>
        <time>2022-05-21 14:05:00</time>
      </trkpt>
      <trkpt lat="42.40883" lon="2.93925">
        <ele>151.2</ele>
        <time>2022-05-21 14:05:01</time>
      </trkpt>
      <trkpt lat="42.40888" lon="2.93921">
        <ele>151.4</ele>
        <time>2022-05-21 14:05:02</time>
      </trkpt>
      <trkpt lat="42.40892" lon="2.93917">
        <ele>151.4</ele>
        <time>2022-05-21 14:05:03</time>
      </trkpt>
      <trkpt lat="42.40896" lon="2.93912">
        <ele>151.6</ele>
        <time>2022-05-21 14:05:04</time>
      </trkpt>
      <trkpt lat="42.409" lon="2.93907">
        <ele>151.6</ele>
        <time>2022-05-21 14:05:05</time>
      </trkpt>
      <trkpt lat="42.40904" lon="2.93902">
        <ele>151.8</ele>
        <time>2022-05-21 14:05:06</time>
      </trkpt>
      <trkpt lat="42.40907" lon="2.93897">
        <ele>151.8</ele>
        <time>2022-05-21 14:05:07</time>
      </trkpt>
      <trkpt lat="42.40911" lon="2.93891">
        <ele>152</ele>
        <time>2022-05-21 14:05:08</time>
      </trkpt>
      <trkpt lat="42.40915" lon="2.93885">
        <ele>152</ele>
        <time>2022-05-21 14:05:09</time>
      </trkpt>
      <trkpt lat="42.40918" lon="2.9388">
        <ele>152</ele>
        <time>2022-05-21 14:05:10</time>
      </trkpt>
      <trkpt lat="42.40921" lon="2.93874">
        <ele>152.2</ele>
        <time>2022-05-21 14:05:11</time>
      </trkpt>
      <trkpt lat="42.40925" lon="2.93868">
        <ele>152.2</ele>
        <time>2022-05-21 14:05:12</time>
      </trkpt>
      <trkpt lat="42.40929" lon="2.93863">
        <ele>152.4</ele>
        <time>2022-05-21 14:05:13</time>
      </trkpt>
      <trkpt lat="42.40932" lon="2.93857">
        <ele>152.4</ele>
        <time>2022-05-21 14:05:14</time>
      </trkpt>
      <trkpt lat="42.40936" lon="2.93851">
        <ele>152.4</ele>
        <time>2022-05-21 14:05:15</time>
      </trkpt>
      <trkpt lat="42.4094" lon="2.93846">
        <ele>152.6</ele>
        <time>2022-05-21 14:05:16</time>
      </trkpt>
      <trkpt lat="42.40943" lon="2.9384">
        <ele>152.6</ele>
        <time>2022-05-21 14:05:17</time>
      </trkpt>
      <trkpt lat="42.40947" lon="2.93834">
        <ele>152.6</ele>
        <time>2022-05-21 14:05:18</time>
      </trkpt>
      <trkpt lat="42.40951" lon="2.93828">
        <ele>152.6</ele>
        <time>2022-05-21 14:05:19</time>
      </trkpt>
      <trkpt lat="42.40956" lon="2.93822">
        <ele>152.4</ele>
        <time>2022-05-21 14:05:20</time>
      </trkpt>
      <trkpt lat="42.4096" lon="2.93815">
        <ele>152.4</ele>
        <time>2022-05-21 14:05:21</time>
      </trkpt>
      <trkpt lat="42.40965" lon="2.93809">
        <ele>152.2</ele>
        <time>2022-05-21 14:05:22</time>
      </trkpt>
      <trkpt lat="42.40969" lon="2.93802">
        <ele>152</ele>
        <time>2022-05-21 14:05:23</time>
      </trkpt>
      <trkpt lat="42.40974" lon="2.93796">
        <ele>151.8</ele>
        <time>2022-05-21 14:05:24</time>
      </trkpt>
      <trkpt lat="42.40979" lon="2.93789">
        <ele>151.6</ele>
        <time>2022-05-21 14:05:25</time>
      </trkpt>
      <trkpt lat="42.40984" lon="2.93783">
        <ele>151.4</ele>
        <time>2022-05-21 14:05:26</time>
      </trkpt>
      <trkpt lat="42.40989" lon="2.93776">
        <ele>151.4</ele>
        <time>2022-05-21 14:05:27</time>
      </trkpt>
      <trkpt lat="42.40993" lon="2.93771">
        <ele>151.4</ele>
        <time>2022-05-21 14:05:28</time>
      </trkpt>
      <trkpt lat="42.40998" lon="2.93766">
        <ele>151.6</ele>
        <time>2022-05-21 14:05:29</time>
      </trkpt>
      <trkpt lat="42.41002" lon="2.93761">
        <ele>151.8</ele>
        <time>2022-05-21 14:05:30</time>
      </trkpt>
      <trkpt lat="42.41006" lon="2.93756">
        <ele>152.2</ele>
        <time>2022-05-21 14:05:31</time>
      </trkpt>
      <trkpt lat="42.4101" lon="2.93752">
        <ele>152.4</ele>
        <time>2022-05-21 14:05:32</time>
      </trkpt>
      <trkpt lat="42.41014" lon="2.93748">
        <ele>152.8</ele>
        <time>2022-05-21 14:05:33</time>
      </trkpt>
      <trkpt lat="42.41018" lon="2.93745">
        <ele>153</ele>
        <time>2022-05-21 14:05:34</time>
      </trkpt>
      <trkpt lat="42.41022" lon="2.93741">
        <ele>153.2</ele>
        <time>2022-05-21 14:05:35</time>
      </trkpt>
      <trkpt lat="42.41027" lon="2.93738">
        <ele>153.4</ele>
        <time>2022-05-21 14:05:36</time>
      </trkpt>
      <trkpt lat="42.41031" lon="2.93735">
        <ele>153.6</ele>
        <time>2022-05-21 14:05:37</time>
      </trkpt>
      <trkpt lat="42.41035" lon="2.93732">
        <ele>153.8</ele>
        <time>2022-05-21 14:05:38</time>
      </trkpt>
      <trkpt lat="42.41039" lon="2.93728">
        <ele>154</ele>
        <time>2022-05-21 14:05:39</time>
      </trkpt>
      <trkpt lat="42.41044" lon="2.93725">
        <ele>154.2</ele>
        <time>2022-05-21 14:05:40</time>
      </trkpt>
      <trkpt lat="42.41049" lon="2.93722">
        <ele>154.2</ele>
        <time>2022-05-21 14:05:41</time>
      </trkpt>
      <trkpt lat="42.41053" lon="2.93719">
        <ele>154.4</ele>
        <time>2022-05-21 14:05:42</time>
      </trkpt>
      <trkpt lat="42.41057" lon="2.93716">
        <ele>154.6</ele>
        <time>2022-05-21 14:05:43</time>
      </trkpt>
      <trkpt lat="42.41061" lon="2.93712">
        <ele>154.6</ele>
        <time>2022-05-21 14:05:44</time>
      </trkpt>
      <trkpt lat="42.41066" lon="2.93709">
        <ele>154.8</ele>
        <time>2022-05-21 14:05:45</time>
      </trkpt>
      <trkpt lat="42.4107" lon="2.93705">
        <ele>155</ele>
        <time>2022-05-21 14:05:46</time>
      </trkpt>
      <trkpt lat="42.41074" lon="2.93702">
        <ele>155</ele>
        <time>2022-05-21 14:05:47</time>
      </trkpt>
      <trkpt lat="42.41078" lon="2.93698">
        <ele>155.2</ele>
        <time>2022-05-21 14:05:48</time>
      </trkpt>
      <trkpt lat="42.41082" lon="2.93694">
        <ele>155.4</ele>
        <time>2022-05-21 14:05:49</time>
      </trkpt>
      <trkpt lat="42.41086" lon="2.93691">
        <ele>155.4</ele>
        <time>2022-05-21 14:05:50</time>
      </trkpt>
      <trkpt lat="42.4109" lon="2.93687">
        <ele>155.6</ele>
        <time>2022-05-21 14:05:51</time>
      </trkpt>
      <trkpt lat="42.41094" lon="2.93683">
        <ele>155.6</ele>
        <time>2022-05-21 14:05:52</time>
      </trkpt>
      <trkpt lat="42.41098" lon="2.9368">
        <ele>155.8</ele>
        <time>2022-05-21 14:05:53</time>
      </trkpt>
      <trkpt lat="42.41102" lon="2.93676">
        <ele>156</ele>
        <time>2022-05-21 14:05:54</time>
      </trkpt>
      <trkpt lat="42.41106" lon="2.93672">
        <ele>156</ele>
        <time>2022-05-21 14:05:55</time>
      </trkpt>
      <trkpt lat="42.41111" lon="2.93669">
        <ele>156</ele>
        <time>2022-05-21 14:05:56</time>
      </trkpt>
      <trkpt lat="42.41115" lon="2.93665">
        <ele>156.2</ele>
        <time>2022-05-21 14:05:57</time>
      </trkpt>
      <trkpt lat="42.41119" lon="2.93662">
        <ele>156.2</ele>
        <time>2022-05-21 14:05:58</time>
      </trkpt>
      <trkpt lat="42.41123" lon="2.93658">
        <ele>156.4</ele>
        <time>2022-05-21 14:05:59</time>
      </trkpt>
      <trkpt lat="42.41128" lon="2.93655">
        <ele>156.4</ele>
        <time>2022-05-21 14:06:00</time>
      </trkpt>
      <trkpt lat="42.41132" lon="2.93652">
        <ele>156.6</ele>
        <time>2022-05-21 14:06:01</time>
      </trkpt>
      <trkpt lat="42.41136" lon="2.93649">
        <ele>156.6</ele>
        <time>2022-05-21 14:06:02</time>
      </trkpt>
      <trkpt lat="42.41141" lon="2.93646">
        <ele>156.8</ele>
        <time>2022-05-21 14:06:03</time>
      </trkpt>
      <trkpt lat="42.41145" lon="2.93643">
        <ele>156.8</ele>
        <time>2022-05-21 14:06:04</time>
      </trkpt>
      <trkpt lat="42.41149" lon="2.9364">
        <ele>157</ele>
        <time>2022-05-21 14:06:05</time>
      </trkpt>
      <trkpt lat="42.41153" lon="2.93637">
        <ele>157.2</ele>
        <time>2022-05-21 14:06:06</time>
      </trkpt>
      <trkpt lat="42.41157" lon="2.93635">
        <ele>157.4</ele>
        <time>2022-05-21 14:06:07</time>
      </trkpt>
      <trkpt lat="42.41162" lon="2.93632">
        <ele>157.6</ele>
        <time>2022-05-21 14:06:08</time>
      </trkpt>
      <trkpt lat="42.41166" lon="2.9363">
        <ele>157.6</ele>
        <time>2022-05-21 14:06:09</time>
      </trkpt>
      <trkpt lat="42.4117" lon="2.93627">
        <ele>157.8</ele>
        <time>2022-05-21 14:06:10</time>
      </trkpt>
      <trkpt lat="42.41175" lon="2.93625">
        <ele>158</ele>
        <time>2022-05-21 14:06:11</time>
      </trkpt>
      <trkpt lat="42.41179" lon="2.93623">
        <ele>158.2</ele>
        <time>2022-05-21 14:06:12</time>
      </trkpt>
      <trkpt lat="42.41183" lon="2.93621">
        <ele>158.2</ele>
        <time>2022-05-21 14:06:13</time>
      </trkpt>
      <trkpt lat="42.41188" lon="2.93619">
        <ele>158.4</ele>
        <time>2022-05-21 14:06:14</time>
      </trkpt>
      <trkpt lat="42.41192" lon="2.93617">
        <ele>158.6</ele>
        <time>2022-05-21 14:06:15</time>
      </trkpt>
      <trkpt lat="42.41197" lon="2.93614">
        <ele>158.8</ele>
        <time>2022-05-21 14:06:16</time>
      </trkpt>
      <trkpt lat="42.41201" lon="2.93612">
        <ele>158.8</ele>
        <time>2022-05-21 14:06:17</time>
      </trkpt>
      <trkpt lat="42.41205" lon="2.93609">
        <ele>159</ele>
        <time>2022-05-21 14:06:18</time>
      </trkpt>
      <trkpt lat="42.4121" lon="2.93607">
        <ele>159.2</ele>
        <time>2022-05-21 14:06:19</time>
      </trkpt>
      <trkpt lat="42.41214" lon="2.93605">
        <ele>159.4</ele>
        <time>2022-05-21 14:06:20</time>
      </trkpt>
      <trkpt lat="42.41219" lon="2.93603">
        <ele>159.6</ele>
        <time>2022-05-21 14:06:21</time>
      </trkpt>
      <trkpt lat="42.41223" lon="2.936">
        <ele>159.8</ele>
        <time>2022-05-21 14:06:22</time>
      </trkpt>
      <trkpt lat="42.41227" lon="2.93597">
        <ele>159.8</ele>
        <time>2022-05-21 14:06:23</time>
      </trkpt>
      <trkpt lat="42.41232" lon="2.93595">
        <ele>160</ele>
        <time>2022-05-21 14:06:24</time>
      </trkpt>
      <trkpt lat="42.41236" lon="2.93592">
        <ele>160.2</ele>
        <time>2022-05-21 14:06:25</time>
      </trkpt>
      <trkpt lat="42.4124" lon="2.93589">
        <ele>160.4</ele>
        <time>2022-05-21 14:06:26</time>
      </trkpt>
      <trkpt lat="42.41244" lon="2.93586">
        <ele>160.6</ele>
        <time>2022-05-21 14:06:27</time>
      </trkpt>
      <trkpt lat="42.41247" lon="2.93582">
        <ele>160.8</ele>
        <time>2022-05-21 14:06:28</time>
      </trkpt>
      <trkpt lat="42.41251" lon="2.93578">
        <ele>161</ele>
        <time>2022-05-21 14:06:29</time>
      </trkpt>
      <trkpt lat="42.41254" lon="2.93575">
        <ele>161.2</ele>
        <time>2022-05-21 14:06:30</time>
      </trkpt>
      <trkpt lat="42.41258" lon="2.93571">
        <ele>161.2</ele>
        <time>2022-05-21 14:06:31</time>
      </trkpt>
      <trkpt lat="42.41262" lon="2.93567">
        <ele>161.4</ele>
        <time>2022-05-21 14:06:32</time>
      </trkpt>
      <trkpt lat="42.41265" lon="2.93564">
        <ele>161.6</ele>
        <time>2022-05-21 14:06:33</time>
      </trkpt>
      <trkpt lat="42.41269" lon="2.9356">
        <ele>161.6</ele>
        <time>2022-05-21 14:06:34</time>
      </trkpt>
      <trkpt lat="42.41273" lon="2.93556">
        <ele>161.8</ele>
        <time>2022-05-21 14:06:35</time>
      </trkpt>
      <trkpt lat="42.41277" lon="2.93553">
        <ele>161.8</ele>
        <time>2022-05-21 14:06:36</time>
      </trkpt>
      <trkpt lat="42.41281" lon="2.93549">
        <ele>162</ele>
        <time>2022-05-21 14:06:37</time>
      </trkpt>
      <trkpt lat="42.41284" lon="2.93545">
        <ele>162</ele>
        <time>2022-05-21 14:06:38</time>
      </trkpt>
      <trkpt lat="42.41288" lon="2.93542">
        <ele>162.2</ele>
        <time>2022-05-21 14:06:39</time>
      </trkpt>
      <trkpt lat="42.41292" lon="2.93538">
        <ele>162.2</ele>
        <time>2022-05-21 14:06:40</time>
      </trkpt>
      <trkpt lat="42.41296" lon="2.93534">
        <ele>162.4</ele>
        <time>2022-05-21 14:06:41</time>
      </trkpt>
      <trkpt lat="42.413" lon="2.9353">
        <ele>162.4</ele>
        <time>2022-05-21 14:06:42</time>
      </trkpt>
      <trkpt lat="42.41303" lon="2.93526">
        <ele>162.6</ele>
        <time>2022-05-21 14:06:43</time>
      </trkpt>
      <trkpt lat="42.41307" lon="2.93521">
        <ele>162.8</ele>
        <time>2022-05-21 14:06:44</time>
      </trkpt>
      <trkpt lat="42.4131" lon="2.93517">
        <ele>162.8</ele>
        <time>2022-05-21 14:06:45</time>
      </trkpt>
      <trkpt lat="42.41313" lon="2.93512">
        <ele>163</ele>
        <time>2022-05-21 14:06:46</time>
      </trkpt>
      <trkpt lat="42.41316" lon="2.93508">
        <ele>163.2</ele>
        <time>2022-05-21 14:06:47</time>
      </trkpt>
      <trkpt lat="42.41318" lon="2.93503">
        <ele>163.2</ele>
        <time>2022-05-21 14:06:48</time>
      </trkpt>
      <trkpt lat="42.41321" lon="2.93499">
        <ele>163.4</ele>
        <time>2022-05-21 14:06:49</time>
      </trkpt>
      <trkpt lat="42.41325" lon="2.93495">
        <ele>163.6</ele>
        <time>2022-05-21 14:06:50</time>
      </trkpt>
      <trkpt lat="42.41328" lon="2.93491">
        <ele>163.8</ele>
        <time>2022-05-21 14:06:51</time>
      </trkpt>
      <trkpt lat="42.41331" lon="2.93487">
        <ele>163.8</ele>
        <time>2022-05-21 14:06:52</time>
      </trkpt>
      <trkpt lat="42.41334" lon="2.93482">
        <ele>164</ele>
        <time>2022-05-21 14:06:53</time>
      </trkpt>
      <trkpt lat="42.41337" lon="2.93478">
        <ele>164.2</ele>
        <time>2022-05-21 14:06:54</time>
      </trkpt>
      <trkpt lat="42.4134" lon="2.93474">
        <ele>164.2</ele>
        <time>2022-05-21 14:06:55</time>
      </trkpt>
      <trkpt lat="42.41342" lon="2.9347">
        <ele>164.4</ele>
        <time>2022-05-21 14:06:56</time>
      </trkpt>
      <trkpt lat="42.41345" lon="2.93465">
        <ele>164.4</ele>
        <time>2022-05-21 14:06:57</time>
      </trkpt>
      <trkpt lat="42.41349" lon="2.93461">
        <ele>164.6</ele>
        <time>2022-05-21 14:06:58</time>
      </trkpt>
      <trkpt lat="42.41351" lon="2.93457">
        <ele>164.6</ele>
        <time>2022-05-21 14:06:59</time>
      </trkpt>
      <trkpt lat="42.41354" lon="2.93453">
        <ele>164.8</ele>
        <time>2022-05-21 14:07:00</time>
      </trkpt>
      <trkpt lat="42.41357" lon="2.93448">
        <ele>164.8</ele>
        <time>2022-05-21 14:07:01</time>
      </trkpt>
      <trkpt lat="42.4136" lon="2.93444">
        <ele>165</ele>
        <time>2022-05-21 14:07:02</time>
      </trkpt>
      <trkpt lat="42.41363" lon="2.9344">
        <ele>165</ele>
        <time>2022-05-21 14:07:03</time>
      </trkpt>
      <trkpt lat="42.41366" lon="2.93435">
        <ele>165.2</ele>
        <time>2022-05-21 14:07:04</time>
      </trkpt>
      <trkpt lat="42.41369" lon="2.93431">
        <ele>165.4</ele>
        <time>2022-05-21 14:07:05</time>
      </trkpt>
      <trkpt lat="42.41372" lon="2.93428">
        <ele>165.4</ele>
        <time>2022-05-21 14:07:06</time>
      </trkpt>
      <trkpt lat="42.41375" lon="2.93424">
        <ele>165.6</ele>
        <time>2022-05-21 14:07:07</time>
      </trkpt>
      <trkpt lat="42.41378" lon="2.9342">
        <ele>165.6</ele>
        <time>2022-05-21 14:07:08</time>
      </trkpt>
      <trkpt lat="42.41381" lon="2.93416">
        <ele>165.8</ele>
        <time>2022-05-21 14:07:09</time>
      </trkpt>
      <trkpt lat="42.41385" lon="2.93412">
        <ele>165.8</ele>
        <time>2022-05-21 14:07:10</time>
      </trkpt>
      <trkpt lat="42.41388" lon="2.93408">
        <ele>165.8</ele>
        <time>2022-05-21 14:07:11</time>
      </trkpt>
      <trkpt lat="42.41391" lon="2.93404">
        <ele>166</ele>
        <time>2022-05-21 14:07:12</time>
      </trkpt>
      <trkpt lat="42.41395" lon="2.93401">
        <ele>166</ele>
        <time>2022-05-21 14:07:13</time>
      </trkpt>
      <trkpt lat="42.41398" lon="2.93397">
        <ele>166.2</ele>
        <time>2022-05-21 14:07:14</time>
      </trkpt>
      <trkpt lat="42.41402" lon="2.93393">
        <ele>166.2</ele>
        <time>2022-05-21 14:07:15</time>
      </trkpt>
      <trkpt lat="42.41405" lon="2.9339">
        <ele>166.4</ele>
        <time>2022-05-21 14:07:16</time>
      </trkpt>
      <trkpt lat="42.41409" lon="2.93386">
        <ele>166.4</ele>
        <time>2022-05-21 14:07:17</time>
      </trkpt>
      <trkpt lat="42.41412" lon="2.93383">
        <ele>166.6</ele>
        <time>2022-05-21 14:07:18</time>
      </trkpt>
      <trkpt lat="42.41416" lon="2.93379">
        <ele>166.8</ele>
        <time>2022-05-21 14:07:19</time>
      </trkpt>
      <trkpt lat="42.41419" lon="2.93375">
        <ele>166.8</ele>
        <time>2022-05-21 14:07:20</time>
      </trkpt>
      <trkpt lat="42.41422" lon="2.93371">
        <ele>167</ele>
        <time>2022-05-21 14:07:21</time>
      </trkpt>
      <trkpt lat="42.41426" lon="2.93367">
        <ele>167</ele>
        <time>2022-05-21 14:07:22</time>
      </trkpt>
      <trkpt lat="42.41429" lon="2.93363">
        <ele>167.2</ele>
        <time>2022-05-21 14:07:23</time>
      </trkpt>
      <trkpt lat="42.41432" lon="2.9336">
        <ele>167.4</ele>
        <time>2022-05-21 14:07:24</time>
      </trkpt>
      <trkpt lat="42.41436" lon="2.93356">
        <ele>167.4</ele>
        <time>2022-05-21 14:07:25</time>
      </trkpt>
      <trkpt lat="42.41439" lon="2.93352">
        <ele>167.6</ele>
        <time>2022-05-21 14:07:26</time>
      </trkpt>
      <trkpt lat="42.41442" lon="2.93349">
        <ele>167.8</ele>
        <time>2022-05-21 14:07:27</time>
      </trkpt>
      <trkpt lat="42.41446" lon="2.93345">
        <ele>167.8</ele>
        <time>2022-05-21 14:07:28</time>
      </trkpt>
      <trkpt lat="42.41449" lon="2.93341">
        <ele>168</ele>
        <time>2022-05-21 14:07:29</time>
      </trkpt>
      <trkpt lat="42.41452" lon="2.93337">
        <ele>168.2</ele>
        <time>2022-05-21 14:07:30</time>
      </trkpt>
      <trkpt lat="42.41456" lon="2.93333">
        <ele>168.2</ele>
        <time>2022-05-21 14:07:31</time>
      </trkpt>
      <trkpt lat="42.41459" lon="2.93329">
        <ele>168.4</ele>
        <time>2022-05-21 14:07:32</time>
      </trkpt>
      <trkpt lat="42.41462" lon="2.93326">
        <ele>168.4</ele>
        <time>2022-05-21 14:07:33</time>
      </trkpt>
      <trkpt lat="42.41466" lon="2.93322">
        <ele>168.6</ele>
        <time>2022-05-21 14:07:34</time>
      </trkpt>
      <trkpt lat="42.41469" lon="2.93318">
        <ele>168.6</ele>
        <time>2022-05-21 14:07:35</time>
      </trkpt>
      <trkpt lat="42.41473" lon="2.93314">
        <ele>168.6</ele>
        <time>2022-05-21 14:07:36</time>
      </trkpt>
      <trkpt lat="42.41477" lon="2.93311">
        <ele>168.8</ele>
        <time>2022-05-21 14:07:37</time>
      </trkpt>
      <trkpt lat="42.4148" lon="2.93307">
        <ele>168.8</ele>
        <time>2022-05-21 14:07:38</time>
      </trkpt>
      <trkpt lat="42.41484" lon="2.93304">
        <ele>169</ele>
        <time>2022-05-21 14:07:39</time>
      </trkpt>
      <trkpt lat="42.41487" lon="2.933">
        <ele>169</ele>
        <time>2022-05-21 14:07:40</time>
      </trkpt>
      <trkpt lat="42.41491" lon="2.93297">
        <ele>169.2</ele>
        <time>2022-05-21 14:07:41</time>
      </trkpt>
      <trkpt lat="42.41494" lon="2.93293">
        <ele>169.4</ele>
        <time>2022-05-21 14:07:42</time>
      </trkpt>
      <trkpt lat="42.41497" lon="2.9329">
        <ele>169.4</ele>
        <time>2022-05-21 14:07:43</time>
      </trkpt>
      <trkpt lat="42.41501" lon="2.93286">
        <ele>169.6</ele>
        <time>2022-05-21 14:07:44</time>
      </trkpt>
      <trkpt lat="42.41504" lon="2.93282">
        <ele>169.6</ele>
        <time>2022-05-21 14:07:45</time>
      </trkpt>
      <trkpt lat="42.41508" lon="2.93279">
        <ele>169.8</ele>
        <time>2022-05-21 14:07:46</time>
      </trkpt>
      <trkpt lat="42.41512" lon="2.93275">
        <ele>170</ele>
        <time>2022-05-21 14:07:47</time>
      </trkpt>
      <trkpt lat="42.41515" lon="2.93272">
        <ele>170.2</ele>
        <time>2022-05-21 14:07:48</time>
      </trkpt>
      <trkpt lat="42.41519" lon="2.93269">
        <ele>170.2</ele>
        <time>2022-05-21 14:07:49</time>
      </trkpt>
      <trkpt lat="42.41522" lon="2.93265">
        <ele>170.2</ele>
        <time>2022-05-21 14:07:50</time>
      </trkpt>
      <trkpt lat="42.41526" lon="2.93262">
        <ele>170.2</ele>
        <time>2022-05-21 14:07:51</time>
      </trkpt>
      <trkpt lat="42.41529" lon="2.93259">
        <ele>170.4</ele>
        <time>2022-05-21 14:07:52</time>
      </trkpt>
      <trkpt lat="42.41533" lon="2.93256">
        <ele>170.4</ele>
        <time>2022-05-21 14:07:53</time>
      </trkpt>
      <trkpt lat="42.41537" lon="2.93253">
        <ele>170.6</ele>
        <time>2022-05-21 14:07:54</time>
      </trkpt>
      <trkpt lat="42.4154" lon="2.9325">
        <ele>170.6</ele>
        <time>2022-05-21 14:07:55</time>
      </trkpt>
      <trkpt lat="42.41544" lon="2.93247">
        <ele>170.8</ele>
        <time>2022-05-21 14:07:56</time>
      </trkpt>
      <trkpt lat="42.41547" lon="2.93244">
        <ele>170.8</ele>
        <time>2022-05-21 14:07:57</time>
      </trkpt>
      <trkpt lat="42.4155" lon="2.9324">
        <ele>171</ele>
        <time>2022-05-21 14:07:58</time>
      </trkpt>
      <trkpt lat="42.41554" lon="2.93237">
        <ele>171</ele>
        <time>2022-05-21 14:07:59</time>
      </trkpt>
      <trkpt lat="42.41557" lon="2.93234">
        <ele>171.2</ele>
        <time>2022-05-21 14:08:00</time>
      </trkpt>
      <trkpt lat="42.41561" lon="2.93231">
        <ele>171.2</ele>
        <time>2022-05-21 14:08:01</time>
      </trkpt>
      <trkpt lat="42.41564" lon="2.93228">
        <ele>171.4</ele>
        <time>2022-05-21 14:08:02</time>
      </trkpt>
      <trkpt lat="42.41568" lon="2.93225">
        <ele>171.6</ele>
        <time>2022-05-21 14:08:03</time>
      </trkpt>
      <trkpt lat="42.41572" lon="2.93222">
        <ele>171.6</ele>
        <time>2022-05-21 14:08:04</time>
      </trkpt>
      <trkpt lat="42.41575" lon="2.93219">
        <ele>171.8</ele>
        <time>2022-05-21 14:08:05</time>
      </trkpt>
      <trkpt lat="42.41578" lon="2.93216">
        <ele>171.8</ele>
        <time>2022-05-21 14:08:06</time>
      </trkpt>
      <trkpt lat="42.41581" lon="2.93213">
        <ele>172</ele>
        <time>2022-05-21 14:08:07</time>
      </trkpt>
      <trkpt lat="42.41585" lon="2.9321">
        <ele>172.2</ele>
        <time>2022-05-21 14:08:08</time>
      </trkpt>
      <trkpt lat="42.41589" lon="2.93206">
        <ele>172.2</ele>
        <time>2022-05-21 14:08:09</time>
      </trkpt>
      <trkpt lat="42.41592" lon="2.93203">
        <ele>172.4</ele>
        <time>2022-05-21 14:08:10</time>
      </trkpt>
      <trkpt lat="42.41595" lon="2.932">
        <ele>172.4</ele>
        <time>2022-05-21 14:08:11</time>
      </trkpt>
      <trkpt lat="42.41599" lon="2.93196">
        <ele>172.4</ele>
        <time>2022-05-21 14:08:12</time>
      </trkpt>
      <trkpt lat="42.41602" lon="2.93193">
        <ele>172.6</ele>
        <time>2022-05-21 14:08:13</time>
      </trkpt>
      <trkpt lat="42.41606" lon="2.93189">
        <ele>172.6</ele>
        <time>2022-05-21 14:08:14</time>
      </trkpt>
      <trkpt lat="42.4161" lon="2.93186">
        <ele>172.8</ele>
        <time>2022-05-21 14:08:15</time>
      </trkpt>
      <trkpt lat="42.41613" lon="2.93182">
        <ele>172.8</ele>
        <time>2022-05-21 14:08:16</time>
      </trkpt>
      <trkpt lat="42.41617" lon="2.93178">
        <ele>173</ele>
        <time>2022-05-21 14:08:17</time>
      </trkpt>
      <trkpt lat="42.4162" lon="2.93175">
        <ele>173</ele>
        <time>2022-05-21 14:08:18</time>
      </trkpt>
      <trkpt lat="42.41623" lon="2.93171">
        <ele>173.2</ele>
        <time>2022-05-21 14:08:19</time>
      </trkpt>
      <trkpt lat="42.41626" lon="2.93168">
        <ele>173.4</ele>
        <time>2022-05-21 14:08:20</time>
      </trkpt>
      <trkpt lat="42.4163" lon="2.93164">
        <ele>173.4</ele>
        <time>2022-05-21 14:08:21</time>
      </trkpt>
      <trkpt lat="42.41633" lon="2.9316">
        <ele>173.6</ele>
        <time>2022-05-21 14:08:22</time>
      </trkpt>
      <trkpt lat="42.41637" lon="2.93157">
        <ele>173.6</ele>
        <time>2022-05-21 14:08:23</time>
      </trkpt>
      <trkpt lat="42.4164" lon="2.93153">
        <ele>173.8</ele>
        <time>2022-05-21 14:08:24</time>
      </trkpt>
      <trkpt lat="42.41644" lon="2.93149">
        <ele>173.8</ele>
        <time>2022-05-21 14:08:25</time>
      </trkpt>
      <trkpt lat="42.41647" lon="2.93145">
        <ele>173.8</ele>
        <time>2022-05-21 14:08:26</time>
      </trkpt>
      <trkpt lat="42.41651" lon="2.93141">
        <ele>174</ele>
        <time>2022-05-21 14:08:27</time>
      </trkpt>
      <trkpt lat="42.41654" lon="2.93137">
        <ele>174</ele>
        <time>2022-05-21 14:08:28</time>
      </trkpt>
      <trkpt lat="42.41658" lon="2.93133">
        <ele>174.2</ele>
        <time>2022-05-21 14:08:29</time>
      </trkpt>
      <trkpt lat="42.41661" lon="2.93129">
        <ele>174.2</ele>
        <time>2022-05-21 14:08:30</time>
      </trkpt>
      <trkpt lat="42.41665" lon="2.93125">
        <ele>174.2</ele>
        <time>2022-05-21 14:08:31</time>
      </trkpt>
      <trkpt lat="42.41668" lon="2.93121">
        <ele>174.2</ele>
        <time>2022-05-21 14:08:32</time>
      </trkpt>
      <trkpt lat="42.41672" lon="2.93118">
        <ele>174.4</ele>
        <time>2022-05-21 14:08:33</time>
      </trkpt>
      <trkpt lat="42.41675" lon="2.93114">
        <ele>174.4</ele>
        <time>2022-05-21 14:08:34</time>
      </trkpt>
      <trkpt lat="42.41679" lon="2.9311">
        <ele>174.6</ele>
        <time>2022-05-21 14:08:35</time>
      </trkpt>
      <trkpt lat="42.41682" lon="2.93107">
        <ele>174.6</ele>
        <time>2022-05-21 14:08:36</time>
      </trkpt>
      <trkpt lat="42.41685" lon="2.93103">
        <ele>174.8</ele>
        <time>2022-05-21 14:08:37</time>
      </trkpt>
      <trkpt lat="42.41688" lon="2.931">
        <ele>174.8</ele>
        <time>2022-05-21 14:08:38</time>
      </trkpt>
      <trkpt lat="42.41692" lon="2.93096">
        <ele>175</ele>
        <time>2022-05-21 14:08:39</time>
      </trkpt>
      <trkpt lat="42.41695" lon="2.93093">
        <ele>175</ele>
        <time>2022-05-21 14:08:40</time>
      </trkpt>
      <trkpt lat="42.41698" lon="2.93089">
        <ele>175.2</ele>
        <time>2022-05-21 14:08:41</time>
      </trkpt>
      <trkpt lat="42.41702" lon="2.93085">
        <ele>175.2</ele>
        <time>2022-05-21 14:08:42</time>
      </trkpt>
      <trkpt lat="42.41705" lon="2.93081">
        <ele>175.4</ele>
        <time>2022-05-21 14:08:43</time>
      </trkpt>
      <trkpt lat="42.41708" lon="2.93077">
        <ele>175.4</ele>
        <time>2022-05-21 14:08:44</time>
      </trkpt>
      <trkpt lat="42.41712" lon="2.93073">
        <ele>175.6</ele>
        <time>2022-05-21 14:08:45</time>
      </trkpt>
      <trkpt lat="42.41715" lon="2.9307">
        <ele>175.6</ele>
        <time>2022-05-21 14:08:46</time>
      </trkpt>
      <trkpt lat="42.41719" lon="2.93066">
        <ele>175.8</ele>
        <time>2022-05-21 14:08:47</time>
      </trkpt>
      <trkpt lat="42.41722" lon="2.93062">
        <ele>175.8</ele>
        <time>2022-05-21 14:08:48</time>
      </trkpt>
      <trkpt lat="42.41725" lon="2.93059">
        <ele>175.8</ele>
        <time>2022-05-21 14:08:49</time>
      </trkpt>
      <trkpt lat="42.41729" lon="2.93055">
        <ele>176</ele>
        <time>2022-05-21 14:08:50</time>
      </trkpt>
      <trkpt lat="42.41732" lon="2.93051">
        <ele>176</ele>
        <time>2022-05-21 14:08:51</time>
      </trkpt>
      <trkpt lat="42.41735" lon="2.93047">
        <ele>176</ele>
        <time>2022-05-21 14:08:52</time>
      </trkpt>
      <trkpt lat="42.41739" lon="2.93044">
        <ele>176.2</ele>
        <time>2022-05-21 14:08:53</time>
      </trkpt>
      <trkpt lat="42.41742" lon="2.9304">
        <ele>176.2</ele>
        <time>2022-05-21 14:08:54</time>
      </trkpt>
      <trkpt lat="42.41745" lon="2.93036">
        <ele>176.4</ele>
        <time>2022-05-21 14:08:55</time>
      </trkpt>
      <trkpt lat="42.41748" lon="2.93032">
        <ele>176.4</ele>
        <time>2022-05-21 14:08:56</time>
      </trkpt>
      <trkpt lat="42.41751" lon="2.93029">
        <ele>176.6</ele>
        <time>2022-05-21 14:08:57</time>
      </trkpt>
      <trkpt lat="42.41754" lon="2.93026">
        <ele>176.6</ele>
        <time>2022-05-21 14:08:58</time>
      </trkpt>
      <trkpt lat="42.41757" lon="2.93023">
        <ele>176.8</ele>
        <time>2022-05-21 14:08:59</time>
      </trkpt>
      <trkpt lat="42.4176" lon="2.93019">
        <ele>177</ele>
        <time>2022-05-21 14:09:00</time>
      </trkpt>
      <trkpt lat="42.41763" lon="2.93015">
        <ele>177</ele>
        <time>2022-05-21 14:09:01</time>
      </trkpt>
      <trkpt lat="42.41765" lon="2.93012">
        <ele>177.2</ele>
        <time>2022-05-21 14:09:02</time>
      </trkpt>
      <trkpt lat="42.41768" lon="2.93008">
        <ele>177.4</ele>
        <time>2022-05-21 14:09:03</time>
      </trkpt>
      <trkpt lat="42.41771" lon="2.93005">
        <ele>177.6</ele>
        <time>2022-05-21 14:09:04</time>
      </trkpt>
      <trkpt lat="42.41773" lon="2.93001">
        <ele>177.6</ele>
        <time>2022-05-21 14:09:05</time>
      </trkpt>
      <trkpt lat="42.41776" lon="2.92998">
        <ele>177.8</ele>
        <time>2022-05-21 14:09:06</time>
      </trkpt>
      <trkpt lat="42.41779" lon="2.92994">
        <ele>177.8</ele>
        <time>2022-05-21 14:09:07</time>
      </trkpt>
      <trkpt lat="42.41782" lon="2.9299">
        <ele>178</ele>
        <time>2022-05-21 14:09:08</time>
      </trkpt>
      <trkpt lat="42.41784" lon="2.92987">
        <ele>178.2</ele>
        <time>2022-05-21 14:09:09</time>
      </trkpt>
      <trkpt lat="42.41787" lon="2.92984">
        <ele>178.2</ele>
        <time>2022-05-21 14:09:10</time>
      </trkpt>
      <trkpt lat="42.4179" lon="2.9298">
        <ele>178.4</ele>
        <time>2022-05-21 14:09:11</time>
      </trkpt>
      <trkpt lat="42.41792" lon="2.92976">
        <ele>178.6</ele>
        <time>2022-05-21 14:09:12</time>
      </trkpt>
      <trkpt lat="42.41795" lon="2.92973">
        <ele>178.8</ele>
        <time>2022-05-21 14:09:13</time>
      </trkpt>
      <trkpt lat="42.41798" lon="2.92969">
        <ele>178.8</ele>
        <time>2022-05-21 14:09:14</time>
      </trkpt>
      <trkpt lat="42.418" lon="2.92966">
        <ele>179</ele>
        <time>2022-05-21 14:09:15</time>
      </trkpt>
      <trkpt lat="42.41803" lon="2.92962">
        <ele>179.2</ele>
        <time>2022-05-21 14:09:16</time>
      </trkpt>
      <trkpt lat="42.41805" lon="2.92959">
        <ele>179.2</ele>
        <time>2022-05-21 14:09:17</time>
      </trkpt>
      <trkpt lat="42.41808" lon="2.92955">
        <ele>179.4</ele>
        <time>2022-05-21 14:09:18</time>
      </trkpt>
      <trkpt lat="42.41811" lon="2.92952">
        <ele>179.6</ele>
        <time>2022-05-21 14:09:19</time>
      </trkpt>
      <trkpt lat="42.41814" lon="2.92948">
        <ele>179.8</ele>
        <time>2022-05-21 14:09:20</time>
      </trkpt>
      <trkpt lat="42.41816" lon="2.92945">
        <ele>179.8</ele>
        <time>2022-05-21 14:09:21</time>
      </trkpt>
      <trkpt lat="42.41819" lon="2.92941">
        <ele>180</ele>
        <time>2022-05-21 14:09:22</time>
      </trkpt>
      <trkpt lat="42.41822" lon="2.92937">
        <ele>180.2</ele>
        <time>2022-05-21 14:09:23</time>
      </trkpt>
      <trkpt lat="42.41824" lon="2.92934">
        <ele>180.2</ele>
        <time>2022-05-21 14:09:24</time>
      </trkpt>
      <trkpt lat="42.41827" lon="2.9293">
        <ele>180.4</ele>
        <time>2022-05-21 14:09:25</time>
      </trkpt>
      <trkpt lat="42.41829" lon="2.92927">
        <ele>180.6</ele>
        <time>2022-05-21 14:09:26</time>
      </trkpt>
      <trkpt lat="42.41832" lon="2.92924">
        <ele>180.8</ele>
        <time>2022-05-21 14:09:27</time>
      </trkpt>
      <trkpt lat="42.41834" lon="2.9292">
        <ele>180.8</ele>
        <time>2022-05-21 14:09:28</time>
      </trkpt>
      <trkpt lat="42.41836" lon="2.92916">
        <ele>181</ele>
        <time>2022-05-21 14:09:29</time>
      </trkpt>
      <trkpt lat="42.41839" lon="2.92913">
        <ele>181.2</ele>
        <time>2022-05-21 14:09:30</time>
      </trkpt>
      <trkpt lat="42.41841" lon="2.92909">
        <ele>181.2</ele>
        <time>2022-05-21 14:09:31</time>
      </trkpt>
      <trkpt lat="42.41844" lon="2.92905">
        <ele>181.4</ele>
        <time>2022-05-21 14:09:32</time>
      </trkpt>
      <trkpt lat="42.41846" lon="2.92902">
        <ele>181.6</ele>
        <time>2022-05-21 14:09:33</time>
      </trkpt>
      <trkpt lat="42.41848" lon="2.92898">
        <ele>181.6</ele>
        <time>2022-05-21 14:09:34</time>
      </trkpt>
      <trkpt lat="42.4185" lon="2.92895">
        <ele>181.8</ele>
        <time>2022-05-21 14:09:35</time>
      </trkpt>
      <trkpt lat="42.41853" lon="2.92891">
        <ele>182</ele>
        <time>2022-05-21 14:09:36</time>
      </trkpt>
      <trkpt lat="42.41855" lon="2.92888">
        <ele>182.2</ele>
        <time>2022-05-21 14:09:37</time>
      </trkpt>
      <trkpt lat="42.41858" lon="2.92884">
        <ele>182.4</ele>
        <time>2022-05-21 14:09:38</time>
      </trkpt>
      <trkpt lat="42.4186" lon="2.92881">
        <ele>182.4</ele>
        <time>2022-05-21 14:09:39</time>
      </trkpt>
      <trkpt lat="42.41863" lon="2.92878">
        <ele>182.6</ele>
        <time>2022-05-21 14:09:40</time>
      </trkpt>
      <trkpt lat="42.41866" lon="2.92875">
        <ele>182.8</ele>
        <time>2022-05-21 14:09:41</time>
      </trkpt>
      <trkpt lat="42.41868" lon="2.92871">
        <ele>182.8</ele>
        <time>2022-05-21 14:09:42</time>
      </trkpt>
      <trkpt lat="42.41871" lon="2.92868">
        <ele>183</ele>
        <time>2022-05-21 14:09:43</time>
      </trkpt>
      <trkpt lat="42.41873" lon="2.92865">
        <ele>183.2</ele>
        <time>2022-05-21 14:09:44</time>
      </trkpt>
      <trkpt lat="42.41877" lon="2.92861">
        <ele>183.4</ele>
        <time>2022-05-21 14:09:45</time>
      </trkpt>
      <trkpt lat="42.41879" lon="2.92858">
        <ele>183.4</ele>
        <time>2022-05-21 14:09:46</time>
      </trkpt>
      <trkpt lat="42.41882" lon="2.92855">
        <ele>183.6</ele>
        <time>2022-05-21 14:09:47</time>
      </trkpt>
      <trkpt lat="42.41885" lon="2.92852">
        <ele>183.6</ele>
        <time>2022-05-21 14:09:48</time>
      </trkpt>
      <trkpt lat="42.41889" lon="2.92848">
        <ele>183.6</ele>
        <time>2022-05-21 14:09:49</time>
      </trkpt>
      <trkpt lat="42.41892" lon="2.92844">
        <ele>183.8</ele>
        <time>2022-05-21 14:09:50</time>
      </trkpt>
      <trkpt lat="42.41895" lon="2.9284">
        <ele>183.8</ele>
        <time>2022-05-21 14:09:51</time>
      </trkpt>
      <trkpt lat="42.41898" lon="2.92837">
        <ele>183.8</ele>
        <time>2022-05-21 14:09:52</time>
      </trkpt>
      <trkpt lat="42.41901" lon="2.92833">
        <ele>184</ele>
        <time>2022-05-21 14:09:53</time>
      </trkpt>
      <trkpt lat="42.41904" lon="2.92829">
        <ele>184</ele>
        <time>2022-05-21 14:09:54</time>
      </trkpt>
      <trkpt lat="42.41907" lon="2.92825">
        <ele>184.2</ele>
        <time>2022-05-21 14:09:55</time>
      </trkpt>
      <trkpt lat="42.4191" lon="2.92821">
        <ele>184.2</ele>
        <time>2022-05-21 14:09:56</time>
      </trkpt>
      <trkpt lat="42.41913" lon="2.92818">
        <ele>184.4</ele>
        <time>2022-05-21 14:09:57</time>
      </trkpt>
      <trkpt lat="42.41917" lon="2.92814">
        <ele>184.4</ele>
        <time>2022-05-21 14:09:58</time>
      </trkpt>
      <trkpt lat="42.4192" lon="2.9281">
        <ele>184.6</ele>
        <time>2022-05-21 14:09:59</time>
      </trkpt>
      <trkpt lat="42.41923" lon="2.92807">
        <ele>184.6</ele>
        <time>2022-05-21 14:10:00</time>
      </trkpt>
      <trkpt lat="42.41926" lon="2.92803">
        <ele>184.8</ele>
        <time>2022-05-21 14:10:01</time>
      </trkpt>
      <trkpt lat="42.41929" lon="2.928">
        <ele>185</ele>
        <time>2022-05-21 14:10:02</time>
      </trkpt>
      <trkpt lat="42.41932" lon="2.92796">
        <ele>185</ele>
        <time>2022-05-21 14:10:03</time>
      </trkpt>
      <trkpt lat="42.41935" lon="2.92792">
        <ele>185.2</ele>
        <time>2022-05-21 14:10:04</time>
      </trkpt>
      <trkpt lat="42.41939" lon="2.92789">
        <ele>185.2</ele>
        <time>2022-05-21 14:10:05</time>
      </trkpt>
      <trkpt lat="42.41942" lon="2.92785">
        <ele>185.4</ele>
        <time>2022-05-21 14:10:06</time>
      </trkpt>
      <trkpt lat="42.41945" lon="2.92781">
        <ele>185.4</ele>
        <time>2022-05-21 14:10:07</time>
      </trkpt>
      <trkpt lat="42.41948" lon="2.92776">
        <ele>185.6</ele>
        <time>2022-05-21 14:10:08</time>
      </trkpt>
      <trkpt lat="42.41951" lon="2.92772">
        <ele>185.6</ele>
        <time>2022-05-21 14:10:09</time>
      </trkpt>
      <trkpt lat="42.41955" lon="2.92768">
        <ele>185.8</ele>
        <time>2022-05-21 14:10:10</time>
      </trkpt>
      <trkpt lat="42.41958" lon="2.92764">
        <ele>185.8</ele>
        <time>2022-05-21 14:10:11</time>
      </trkpt>
      <trkpt lat="42.41962" lon="2.9276">
        <ele>186</ele>
        <time>2022-05-21 14:10:12</time>
      </trkpt>
      <trkpt lat="42.41965" lon="2.92756">
        <ele>186</ele>
        <time>2022-05-21 14:10:13</time>
      </trkpt>
      <trkpt lat="42.41968" lon="2.92752">
        <ele>186.2</ele>
        <time>2022-05-21 14:10:14</time>
      </trkpt>
      <trkpt lat="42.41972" lon="2.92748">
        <ele>186.2</ele>
        <time>2022-05-21 14:10:15</time>
      </trkpt>
      <trkpt lat="42.41976" lon="2.92745">
        <ele>186.2</ele>
        <time>2022-05-21 14:10:16</time>
      </trkpt>
      <trkpt lat="42.41979" lon="2.92742">
        <ele>186.4</ele>
        <time>2022-05-21 14:10:17</time>
      </trkpt>
      <trkpt lat="42.41983" lon="2.92739">
        <ele>186.4</ele>
        <time>2022-05-21 14:10:18</time>
      </trkpt>
      <trkpt lat="42.41987" lon="2.92736">
        <ele>186.4</ele>
        <time>2022-05-21 14:10:19</time>
      </trkpt>
      <trkpt lat="42.41991" lon="2.92733">
        <ele>186.6</ele>
        <time>2022-05-21 14:10:20</time>
      </trkpt>
      <trkpt lat="42.41995" lon="2.92731">
        <ele>186.6</ele>
        <time>2022-05-21 14:10:21</time>
      </trkpt>
      <trkpt lat="42.41999" lon="2.92728">
        <ele>186.8</ele>
        <time>2022-05-21 14:10:22</time>
      </trkpt>
      <trkpt lat="42.42002" lon="2.92726">
        <ele>187</ele>
        <time>2022-05-21 14:10:23</time>
      </trkpt>
      <trkpt lat="42.42005" lon="2.92723">
        <ele>187</ele>
        <time>2022-05-21 14:10:24</time>
      </trkpt>
      <trkpt lat="42.42008" lon="2.9272">
        <ele>187.2</ele>
        <time>2022-05-21 14:10:25</time>
      </trkpt>
      <trkpt lat="42.42011" lon="2.92717">
        <ele>187.4</ele>
        <time>2022-05-21 14:10:26</time>
      </trkpt>
      <trkpt lat="42.42014" lon="2.92713">
        <ele>187.4</ele>
        <time>2022-05-21 14:10:27</time>
      </trkpt>
      <trkpt lat="42.42015" lon="2.92709">
        <ele>187.4</ele>
        <time>2022-05-21 14:10:28</time>
      </trkpt>
      <trkpt lat="42.42015" lon="2.92703">
        <ele>187.4</ele>
        <time>2022-05-21 14:10:29</time>
      </trkpt>
      <trkpt lat="42.42014" lon="2.92698">
        <ele>187.4</ele>
        <time>2022-05-21 14:10:30</time>
      </trkpt>
      <trkpt lat="42.42013" lon="2.92692">
        <ele>187.2</ele>
        <time>2022-05-21 14:10:31</time>
      </trkpt>
      <trkpt lat="42.42011" lon="2.92686">
        <ele>187</ele>
        <time>2022-05-21 14:10:32</time>
      </trkpt>
      <trkpt lat="42.4201" lon="2.92679">
        <ele>187</ele>
        <time>2022-05-21 14:10:33</time>
      </trkpt>
      <trkpt lat="42.42009" lon="2.92673">
        <ele>187</ele>
        <time>2022-05-21 14:10:34</time>
      </trkpt>
      <trkpt lat="42.42007" lon="2.92666">
        <ele>187</ele>
        <time>2022-05-21 14:10:35</time>
      </trkpt>
      <trkpt lat="42.42005" lon="2.9266">
        <ele>187.2</ele>
        <time>2022-05-21 14:10:36</time>
      </trkpt>
      <trkpt lat="42.42003" lon="2.92654">
        <ele>187.2</ele>
        <time>2022-05-21 14:10:37</time>
      </trkpt>
      <trkpt lat="42.42002" lon="2.92649">
        <ele>187.4</ele>
        <time>2022-05-21 14:10:38</time>
      </trkpt>
      <trkpt lat="42.42001" lon="2.92643">
        <ele>187.4</ele>
        <time>2022-05-21 14:10:39</time>
      </trkpt>
      <trkpt lat="42.41999" lon="2.92638">
        <ele>187.6</ele>
        <time>2022-05-21 14:10:40</time>
      </trkpt>
      <trkpt lat="42.41998" lon="2.92633">
        <ele>187.8</ele>
        <time>2022-05-21 14:10:41</time>
      </trkpt>
      <trkpt lat="42.41997" lon="2.92628">
        <ele>188</ele>
        <time>2022-05-21 14:10:42</time>
      </trkpt>
      <trkpt lat="42.41996" lon="2.92624">
        <ele>188.4</ele>
        <time>2022-05-21 14:10:43</time>
      </trkpt>
      <trkpt lat="42.41996" lon="2.9262">
        <ele>188.6</ele>
        <time>2022-05-21 14:10:44</time>
      </trkpt>
      <trkpt lat="42.41995" lon="2.92616">
        <ele>188.8</ele>
        <time>2022-05-21 14:10:45</time>
      </trkpt>
      <trkpt lat="42.41994" lon="2.92612">
        <ele>189</ele>
        <time>2022-05-21 14:10:46</time>
      </trkpt>
      <trkpt lat="42.41993" lon="2.92607">
        <ele>189.2</ele>
        <time>2022-05-21 14:10:47</time>
      </trkpt>
      <trkpt lat="42.41992" lon="2.92603">
        <ele>189.4</ele>
        <time>2022-05-21 14:10:48</time>
      </trkpt>
      <trkpt lat="42.41991" lon="2.926">
        <ele>189.6</ele>
        <time>2022-05-21 14:10:49</time>
      </trkpt>
      <trkpt lat="42.41991" lon="2.92595">
        <ele>189.8</ele>
        <time>2022-05-21 14:10:50</time>
      </trkpt>
      <trkpt lat="42.41991" lon="2.9259">
        <ele>190</ele>
        <time>2022-05-21 14:10:51</time>
      </trkpt>
      <trkpt lat="42.41992" lon="2.92586">
        <ele>190.2</ele>
        <time>2022-05-21 14:10:52</time>
      </trkpt>
      <trkpt lat="42.41995" lon="2.92583">
        <ele>190.4</ele>
        <time>2022-05-21 14:10:53</time>
      </trkpt>
      <trkpt lat="42.41997" lon="2.9258">
        <ele>190.6</ele>
        <time>2022-05-21 14:10:54</time>
      </trkpt>
      <trkpt lat="42.42" lon="2.92578">
        <ele>190.8</ele>
        <time>2022-05-21 14:10:55</time>
      </trkpt>
      <trkpt lat="42.42003" lon="2.92576">
        <ele>190.8</ele>
        <time>2022-05-21 14:10:56</time>
      </trkpt>
      <trkpt lat="42.42006" lon="2.92574">
        <ele>191</ele>
        <time>2022-05-21 14:10:57</time>
      </trkpt>
      <trkpt lat="42.42009" lon="2.92572">
        <ele>191.2</ele>
        <time>2022-05-21 14:10:58</time>
      </trkpt>
      <trkpt lat="42.42012" lon="2.92571">
        <ele>191.4</ele>
        <time>2022-05-21 14:10:59</time>
      </trkpt>
      <trkpt lat="42.42015" lon="2.9257">
        <ele>191.6</ele>
        <time>2022-05-21 14:11:00</time>
      </trkpt>
      <trkpt lat="42.42018" lon="2.92568">
        <ele>191.8</ele>
        <time>2022-05-21 14:11:01</time>
      </trkpt>
      <trkpt lat="42.4202" lon="2.92565">
        <ele>192.2</ele>
        <time>2022-05-21 14:11:02</time>
      </trkpt>
      <trkpt lat="42.42022" lon="2.92563">
        <ele>192.4</ele>
        <time>2022-05-21 14:11:03</time>
      </trkpt>
      <trkpt lat="42.42024" lon="2.92561">
        <ele>192.6</ele>
        <time>2022-05-21 14:11:04</time>
      </trkpt>
      <trkpt lat="42.42026" lon="2.92559">
        <ele>193</ele>
        <time>2022-05-21 14:11:05</time>
      </trkpt>
      <trkpt lat="42.42028" lon="2.92557">
        <ele>193.2</ele>
        <time>2022-05-21 14:11:06</time>
      </trkpt>
      <trkpt lat="42.42028" lon="2.92555">
        <ele>193.4</ele>
        <time>2022-05-21 14:11:07</time>
      </trkpt>
      <trkpt lat="42.42028" lon="2.92553">
        <ele>193.6</ele>
        <time>2022-05-21 14:11:08</time>
      </trkpt>
      <trkpt lat="42.42027" lon="2.92551">
        <ele>193.8</ele>
        <time>2022-05-21 14:11:09</time>
      </trkpt>
      <trkpt lat="42.42026" lon="2.92549">
        <ele>193.8</ele>
        <time>2022-05-21 14:11:10</time>
      </trkpt>
      <trkpt lat="42.42023" lon="2.92546">
        <ele>194</ele>
        <time>2022-05-21 14:11:11</time>
      </trkpt>
      <trkpt lat="42.42021" lon="2.92543">
        <ele>194</ele>
        <time>2022-05-21 14:11:12</time>
      </trkpt>
      <trkpt lat="42.42019" lon="2.92541">
        <ele>194.2</ele>
        <time>2022-05-21 14:11:13</time>
      </trkpt>
      <trkpt lat="42.42017" lon="2.92538">
        <ele>194.2</ele>
        <time>2022-05-21 14:11:14</time>
      </trkpt>
      <trkpt lat="42.42015" lon="2.92535">
        <ele>194.4</ele>
        <time>2022-05-21 14:11:15</time>
      </trkpt>
      <trkpt lat="42.42013" lon="2.92532">
        <ele>194.4</ele>
        <time>2022-05-21 14:11:16</time>
      </trkpt>
      <trkpt lat="42.42011" lon="2.92529">
        <ele>194.4</ele>
        <time>2022-05-21 14:11:17</time>
      </trkpt>
      <trkpt lat="42.4201" lon="2.92526">
        <ele>194.6</ele>
        <time>2022-05-21 14:11:18</time>
      </trkpt>
      <trkpt lat="42.42009" lon="2.92522">
        <ele>194.6</ele>
        <time>2022-05-21 14:11:19</time>
      </trkpt>
      <trkpt lat="42.42008" lon="2.92518">
        <ele>194.8</ele>
        <time>2022-05-21 14:11:20</time>
      </trkpt>
      <trkpt lat="42.42007" lon="2.92514">
        <ele>194.8</ele>
        <time>2022-05-21 14:11:21</time>
      </trkpt>
      <trkpt lat="42.42005" lon="2.92509">
        <ele>195</ele>
        <time>2022-05-21 14:11:22</time>
      </trkpt>
      <trkpt lat="42.42004" lon="2.92504">
        <ele>195</ele>
        <time>2022-05-21 14:11:23</time>
      </trkpt>
      <trkpt lat="42.42003" lon="2.925">
        <ele>195</ele>
        <time>2022-05-21 14:11:24</time>
      </trkpt>
      <trkpt lat="42.42002" lon="2.92495">
        <ele>195.2</ele>
        <time>2022-05-21 14:11:25</time>
      </trkpt>
      <trkpt lat="42.42001" lon="2.9249">
        <ele>195.2</ele>
        <time>2022-05-21 14:11:26</time>
      </trkpt>
      <trkpt lat="42.41999" lon="2.92485">
        <ele>195.2</ele>
        <time>2022-05-21 14:11:27</time>
      </trkpt>
      <trkpt lat="42.41998" lon="2.9248">
        <ele>195.2</ele>
        <time>2022-05-21 14:11:28</time>
      </trkpt>
      <trkpt lat="42.41997" lon="2.92476">
        <ele>195.4</ele>
        <time>2022-05-21 14:11:29</time>
      </trkpt>
      <trkpt lat="42.41996" lon="2.92471">
        <ele>195.4</ele>
        <time>2022-05-21 14:11:30</time>
      </trkpt>
      <trkpt lat="42.41995" lon="2.92466">
        <ele>195.4</ele>
        <time>2022-05-21 14:11:31</time>
      </trkpt>
      <trkpt lat="42.41993" lon="2.92461">
        <ele>195.4</ele>
        <time>2022-05-21 14:11:32</time>
      </trkpt>
      <trkpt lat="42.41992" lon="2.92456">
        <ele>195.2</ele>
        <time>2022-05-21 14:11:33</time>
      </trkpt>
      <trkpt lat="42.4199" lon="2.92451">
        <ele>195.2</ele>
        <time>2022-05-21 14:11:34</time>
      </trkpt>
      <trkpt lat="42.41989" lon="2.92445">
        <ele>195</ele>
        <time>2022-05-21 14:11:35</time>
      </trkpt>
      <trkpt lat="42.41987" lon="2.92439">
        <ele>195</ele>
        <time>2022-05-21 14:11:36</time>
      </trkpt>
      <trkpt lat="42.41985" lon="2.92433">
        <ele>194.8</ele>
        <time>2022-05-21 14:11:37</time>
      </trkpt>
      <trkpt lat="42.41983" lon="2.92428">
        <ele>194.8</ele>
        <time>2022-05-21 14:11:38</time>
      </trkpt>
      <trkpt lat="42.41981" lon="2.92423">
        <ele>194.8</ele>
        <time>2022-05-21 14:11:39</time>
      </trkpt>
      <trkpt lat="42.41979" lon="2.92418">
        <ele>194.6</ele>
        <time>2022-05-21 14:11:40</time>
      </trkpt>
      <trkpt lat="42.41978" lon="2.92412">
        <ele>194.6</ele>
        <time>2022-05-21 14:11:41</time>
      </trkpt>
      <trkpt lat="42.41976" lon="2.92406">
        <ele>194.6</ele>
        <time>2022-05-21 14:11:42</time>
      </trkpt>
      <trkpt lat="42.41975" lon="2.924">
        <ele>194.8</ele>
        <time>2022-05-21 14:11:43</time>
      </trkpt>
      <trkpt lat="42.41974" lon="2.92394">
        <ele>194.8</ele>
        <time>2022-05-21 14:11:44</time>
      </trkpt>
      <trkpt lat="42.41972" lon="2.92388">
        <ele>194.8</ele>
        <time>2022-05-21 14:11:45</time>
      </trkpt>
      <trkpt lat="42.41971" lon="2.92382">
        <ele>195</ele>
        <time>2022-05-21 14:11:46</time>
      </trkpt>
      <trkpt lat="42.41969" lon="2.92377">
        <ele>195.2</ele>
        <time>2022-05-21 14:11:47</time>
      </trkpt>
      <trkpt lat="42.41968" lon="2.92373">
        <ele>195.2</ele>
        <time>2022-05-21 14:11:48</time>
      </trkpt>
      <trkpt lat="42.41967" lon="2.92368">
        <ele>195.4</ele>
        <time>2022-05-21 14:11:49</time>
      </trkpt>
      <trkpt lat="42.41965" lon="2.92364">
        <ele>195.6</ele>
        <time>2022-05-21 14:11:50</time>
      </trkpt>
      <trkpt lat="42.41963" lon="2.92359">
        <ele>195.6</ele>
        <time>2022-05-21 14:11:51</time>
      </trkpt>
      <trkpt lat="42.41961" lon="2.92355">
        <ele>195.8</ele>
        <time>2022-05-21 14:11:52</time>
      </trkpt>
      <trkpt lat="42.41959" lon="2.9235">
        <ele>196</ele>
        <time>2022-05-21 14:11:53</time>
      </trkpt>
      <trkpt lat="42.41956" lon="2.92345">
        <ele>196.2</ele>
        <time>2022-05-21 14:11:54</time>
      </trkpt>
      <trkpt lat="42.41954" lon="2.92341">
        <ele>196.4</ele>
        <time>2022-05-21 14:11:55</time>
      </trkpt>
      <trkpt lat="42.41951" lon="2.92337">
        <ele>196.4</ele>
        <time>2022-05-21 14:11:56</time>
      </trkpt>
      <trkpt lat="42.41948" lon="2.92333">
        <ele>196.6</ele>
        <time>2022-05-21 14:11:57</time>
      </trkpt>
      <trkpt lat="42.41945" lon="2.9233">
        <ele>196.6</ele>
        <time>2022-05-21 14:11:58</time>
      </trkpt>
      <trkpt lat="42.41942" lon="2.92326">
        <ele>196.8</ele>
        <time>2022-05-21 14:11:59</time>
      </trkpt>
      <trkpt lat="42.41939" lon="2.92323">
        <ele>196.8</ele>
        <time>2022-05-21 14:12:00</time>
      </trkpt>
      <trkpt lat="42.41936" lon="2.92321">
        <ele>197</ele>
        <time>2022-05-21 14:12:01</time>
      </trkpt>
      <trkpt lat="42.41933" lon="2.92319">
        <ele>197</ele>
        <time>2022-05-21 14:12:02</time>
      </trkpt>
      <trkpt lat="42.41929" lon="2.92317">
        <ele>197</ele>
        <time>2022-05-21 14:12:03</time>
      </trkpt>
      <trkpt lat="42.41926" lon="2.92315">
        <ele>197.2</ele>
        <time>2022-05-21 14:12:04</time>
      </trkpt>
      <trkpt lat="42.41922" lon="2.92313">
        <ele>197.2</ele>
        <time>2022-05-21 14:12:05</time>
      </trkpt>
      <trkpt lat="42.41919" lon="2.92312">
        <ele>197.4</ele>
        <time>2022-05-21 14:12:06</time>
      </trkpt>
      <trkpt lat="42.41915" lon="2.9231">
        <ele>197.4</ele>
        <time>2022-05-21 14:12:07</time>
      </trkpt>
      <trkpt lat="42.41912" lon="2.92309">
        <ele>197.6</ele>
        <time>2022-05-21 14:12:08</time>
      </trkpt>
      <trkpt lat="42.41908" lon="2.92307">
        <ele>197.6</ele>
        <time>2022-05-21 14:12:09</time>
      </trkpt>
      <trkpt lat="42.41905" lon="2.92305">
        <ele>197.8</ele>
        <time>2022-05-21 14:12:10</time>
      </trkpt>
      <trkpt lat="42.41901" lon="2.92304">
        <ele>197.8</ele>
        <time>2022-05-21 14:12:11</time>
      </trkpt>
      <trkpt lat="42.41898" lon="2.92302">
        <ele>198</ele>
        <time>2022-05-21 14:12:12</time>
      </trkpt>
      <trkpt lat="42.41894" lon="2.923">
        <ele>198</ele>
        <time>2022-05-21 14:12:13</time>
      </trkpt>
      <trkpt lat="42.41891" lon="2.92299">
        <ele>198.2</ele>
        <time>2022-05-21 14:12:14</time>
      </trkpt>
      <trkpt lat="42.41887" lon="2.92298">
        <ele>198.4</ele>
        <time>2022-05-21 14:12:15</time>
      </trkpt>
      <trkpt lat="42.41883" lon="2.92297">
        <ele>198.6</ele>
        <time>2022-05-21 14:12:16</time>
      </trkpt>
      <trkpt lat="42.4188" lon="2.92295">
        <ele>198.6</ele>
        <time>2022-05-21 14:12:17</time>
      </trkpt>
      <trkpt lat="42.41876" lon="2.92294">
        <ele>198.8</ele>
        <time>2022-05-21 14:12:18</time>
      </trkpt>
      <trkpt lat="42.41872" lon="2.92293">
        <ele>199</ele>
        <time>2022-05-21 14:12:19</time>
      </trkpt>
      <trkpt lat="42.41869" lon="2.92292">
        <ele>199</ele>
        <time>2022-05-21 14:12:20</time>
      </trkpt>
      <trkpt lat="42.41865" lon="2.9229">
        <ele>199.2</ele>
        <time>2022-05-21 14:12:21</time>
      </trkpt>
      <trkpt lat="42.41862" lon="2.92289">
        <ele>199.4</ele>
        <time>2022-05-21 14:12:22</time>
      </trkpt>
      <trkpt lat="42.41858" lon="2.92288">
        <ele>199.4</ele>
        <time>2022-05-21 14:12:23</time>
      </trkpt>
      <trkpt lat="42.41855" lon="2.92287">
        <ele>199.6</ele>
        <time>2022-05-21 14:12:24</time>
      </trkpt>
      <trkpt lat="42.41851" lon="2.92286">
        <ele>199.8</ele>
        <time>2022-05-21 14:12:25</time>
      </trkpt>
      <trkpt lat="42.41848" lon="2.92285">
        <ele>199.8</ele>
        <time>2022-05-21 14:12:26</time>
      </trkpt>
      <trkpt lat="42.41844" lon="2.92284">
        <ele>200</ele>
        <time>2022-05-21 14:12:27</time>
      </trkpt>
      <trkpt lat="42.41841" lon="2.92283">
        <ele>200</ele>
        <time>2022-05-21 14:12:28</time>
      </trkpt>
      <trkpt lat="42.41837" lon="2.92282">
        <ele>200.2</ele>
        <time>2022-05-21 14:12:29</time>
      </trkpt>
      <trkpt lat="42.41834" lon="2.92281">
        <ele>200.4</ele>
        <time>2022-05-21 14:12:30</time>
      </trkpt>
      <trkpt lat="42.41831" lon="2.9228">
        <ele>200.4</ele>
        <time>2022-05-21 14:12:31</time>
      </trkpt>
      <trkpt lat="42.41827" lon="2.92278">
        <ele>200.6</ele>
        <time>2022-05-21 14:12:32</time>
      </trkpt>
      <trkpt lat="42.41824" lon="2.92276">
        <ele>200.6</ele>
        <time>2022-05-21 14:12:33</time>
      </trkpt>
      <trkpt lat="42.41821" lon="2.92274">
        <ele>200.8</ele>
        <time>2022-05-21 14:12:34</time>
      </trkpt>
      <trkpt lat="42.41818" lon="2.92272">
        <ele>201</ele>
        <time>2022-05-21 14:12:35</time>
      </trkpt>
      <trkpt lat="42.41815" lon="2.9227">
        <ele>201</ele>
        <time>2022-05-21 14:12:36</time>
      </trkpt>
      <trkpt lat="42.41812" lon="2.92266">
        <ele>201.2</ele>
        <time>2022-05-21 14:12:37</time>
      </trkpt>
      <trkpt lat="42.41809" lon="2.92263">
        <ele>201.2</ele>
        <time>2022-05-21 14:12:38</time>
      </trkpt>
      <trkpt lat="42.41806" lon="2.9226">
        <ele>201.4</ele>
        <time>2022-05-21 14:12:39</time>
      </trkpt>
      <trkpt lat="42.41804" lon="2.92256">
        <ele>201.6</ele>
        <time>2022-05-21 14:12:40</time>
      </trkpt>
      <trkpt lat="42.41802" lon="2.92252">
        <ele>201.6</ele>
        <time>2022-05-21 14:12:41</time>
      </trkpt>
      <trkpt lat="42.418" lon="2.92248">
        <ele>201.8</ele>
        <time>2022-05-21 14:12:42</time>
      </trkpt>
      <trkpt lat="42.41798" lon="2.92244">
        <ele>201.8</ele>
        <time>2022-05-21 14:12:43</time>
      </trkpt>
      <trkpt lat="42.41796" lon="2.9224">
        <ele>202</ele>
        <time>2022-05-21 14:12:44</time>
      </trkpt>
      <trkpt lat="42.41794" lon="2.92236">
        <ele>202</ele>
        <time>2022-05-21 14:12:45</time>
      </trkpt>
      <trkpt lat="42.41791" lon="2.92232">
        <ele>202.2</ele>
        <time>2022-05-21 14:12:46</time>
      </trkpt>
      <trkpt lat="42.41789" lon="2.92228">
        <ele>202.2</ele>
        <time>2022-05-21 14:12:47</time>
      </trkpt>
      <trkpt lat="42.41787" lon="2.92224">
        <ele>202.4</ele>
        <time>2022-05-21 14:12:48</time>
      </trkpt>
      <trkpt lat="42.41786" lon="2.9222">
        <ele>202.6</ele>
        <time>2022-05-21 14:12:49</time>
      </trkpt>
      <trkpt lat="42.41785" lon="2.92216">
        <ele>202.6</ele>
        <time>2022-05-21 14:12:50</time>
      </trkpt>
      <trkpt lat="42.41783" lon="2.92212">
        <ele>202.8</ele>
        <time>2022-05-21 14:12:51</time>
      </trkpt>
      <trkpt lat="42.41781" lon="2.92208">
        <ele>202.8</ele>
        <time>2022-05-21 14:12:52</time>
      </trkpt>
      <trkpt lat="42.41779" lon="2.92204">
        <ele>203</ele>
        <time>2022-05-21 14:12:53</time>
      </trkpt>
      <trkpt lat="42.41777" lon="2.92199">
        <ele>203</ele>
        <time>2022-05-21 14:12:54</time>
      </trkpt>
      <trkpt lat="42.41775" lon="2.92196">
        <ele>203.2</ele>
        <time>2022-05-21 14:12:55</time>
      </trkpt>
      <trkpt lat="42.41773" lon="2.92192">
        <ele>203.4</ele>
        <time>2022-05-21 14:12:56</time>
      </trkpt>
      <trkpt lat="42.41772" lon="2.92187">
        <ele>203.4</ele>
        <time>2022-05-21 14:12:57</time>
      </trkpt>
      <trkpt lat="42.41772" lon="2.92183">
        <ele>203.6</ele>
        <time>2022-05-21 14:12:58</time>
      </trkpt>
      <trkpt lat="42.41771" lon="2.92178">
        <ele>203.6</ele>
        <time>2022-05-21 14:12:59</time>
      </trkpt>
      <trkpt lat="42.41771" lon="2.92174">
        <ele>203.8</ele>
        <time>2022-05-21 14:13:00</time>
      </trkpt>
      <trkpt lat="42.4177" lon="2.92169">
        <ele>204</ele>
        <time>2022-05-21 14:13:01</time>
      </trkpt>
      <trkpt lat="42.41769" lon="2.92165">
        <ele>204</ele>
        <time>2022-05-21 14:13:02</time>
      </trkpt>
      <trkpt lat="42.41769" lon="2.92161">
        <ele>204.2</ele>
        <time>2022-05-21 14:13:03</time>
      </trkpt>
      <trkpt lat="42.41768" lon="2.92156">
        <ele>204.2</ele>
        <time>2022-05-21 14:13:04</time>
      </trkpt>
      <trkpt lat="42.41768" lon="2.92151">
        <ele>204.4</ele>
        <time>2022-05-21 14:13:05</time>
      </trkpt>
      <trkpt lat="42.41768" lon="2.92147">
        <ele>204.4</ele>
        <time>2022-05-21 14:13:06</time>
      </trkpt>
      <trkpt lat="42.41768" lon="2.92143">
        <ele>204.6</ele>
        <time>2022-05-21 14:13:07</time>
      </trkpt>
      <trkpt lat="42.41768" lon="2.92138">
        <ele>204.8</ele>
        <time>2022-05-21 14:13:08</time>
      </trkpt>
      <trkpt lat="42.41768" lon="2.92134">
        <ele>204.8</ele>
        <time>2022-05-21 14:13:09</time>
      </trkpt>
      <trkpt lat="42.41768" lon="2.92129">
        <ele>205</ele>
        <time>2022-05-21 14:13:10</time>
      </trkpt>
      <trkpt lat="42.41768" lon="2.92125">
        <ele>205.2</ele>
        <time>2022-05-21 14:13:11</time>
      </trkpt>
      <trkpt lat="42.41768" lon="2.9212">
        <ele>205.2</ele>
        <time>2022-05-21 14:13:12</time>
      </trkpt>
      <trkpt lat="42.41767" lon="2.92116">
        <ele>205.4</ele>
        <time>2022-05-21 14:13:13</time>
      </trkpt>
      <trkpt lat="42.41767" lon="2.92111">
        <ele>205.6</ele>
        <time>2022-05-21 14:13:14</time>
      </trkpt>
      <trkpt lat="42.41766" lon="2.92106">
        <ele>205.6</ele>
        <time>2022-05-21 14:13:15</time>
      </trkpt>
      <trkpt lat="42.41766" lon="2.92101">
        <ele>205.8</ele>
        <time>2022-05-21 14:13:16</time>
      </trkpt>
      <trkpt lat="42.41766" lon="2.92097">
        <ele>206</ele>
        <time>2022-05-21 14:13:17</time>
      </trkpt>
      <trkpt lat="42.41766" lon="2.92093">
        <ele>206</ele>
        <time>2022-05-21 14:13:18</time>
      </trkpt>
      <trkpt lat="42.41766" lon="2.92088">
        <ele>206.2</ele>
        <time>2022-05-21 14:13:19</time>
      </trkpt>
      <trkpt lat="42.41765" lon="2.92084">
        <ele>206.4</ele>
        <time>2022-05-21 14:13:20</time>
      </trkpt>
      <trkpt lat="42.41765" lon="2.92079">
        <ele>206.6</ele>
        <time>2022-05-21 14:13:21</time>
      </trkpt>
      <trkpt lat="42.41765" lon="2.92075">
        <ele>206.8</ele>
        <time>2022-05-21 14:13:22</time>
      </trkpt>
      <trkpt lat="42.41765" lon="2.92071">
        <ele>206.8</ele>
        <time>2022-05-21 14:13:23</time>
      </trkpt>
      <trkpt lat="42.41766" lon="2.92067">
        <ele>207</ele>
        <time>2022-05-21 14:13:24</time>
      </trkpt>
      <trkpt lat="42.41767" lon="2.92063">
        <ele>207.2</ele>
        <time>2022-05-21 14:13:25</time>
      </trkpt>
      <trkpt lat="42.41768" lon="2.92059">
        <ele>207.4</ele>
        <time>2022-05-21 14:13:26</time>
      </trkpt>
      <trkpt lat="42.41769" lon="2.92056">
        <ele>207.6</ele>
        <time>2022-05-21 14:13:27</time>
      </trkpt>
      <trkpt lat="42.41771" lon="2.92052">
        <ele>207.6</ele>
        <time>2022-05-21 14:13:28</time>
      </trkpt>
      <trkpt lat="42.41773" lon="2.92049">
        <ele>207.8</ele>
        <time>2022-05-21 14:13:29</time>
      </trkpt>
      <trkpt lat="42.41775" lon="2.92046">
        <ele>208</ele>
        <time>2022-05-21 14:13:30</time>
      </trkpt>
      <trkpt lat="42.41777" lon="2.92043">
        <ele>208.2</ele>
        <time>2022-05-21 14:13:31</time>
      </trkpt>
      <trkpt lat="42.4178" lon="2.9204">
        <ele>208.4</ele>
        <time>2022-05-21 14:13:32</time>
      </trkpt>
      <trkpt lat="42.41782" lon="2.92038">
        <ele>208.4</ele>
        <time>2022-05-21 14:13:33</time>
      </trkpt>
      <trkpt lat="42.41785" lon="2.92036">
        <ele>208.6</ele>
        <time>2022-05-21 14:13:34</time>
      </trkpt>
      <trkpt lat="42.41787" lon="2.92034">
        <ele>208.8</ele>
        <time>2022-05-21 14:13:35</time>
      </trkpt>
      <trkpt lat="42.4179" lon="2.92032">
        <ele>209</ele>
        <time>2022-05-21 14:13:36</time>
      </trkpt>
      <trkpt lat="42.41793" lon="2.9203">
        <ele>209</ele>
        <time>2022-05-21 14:13:37</time>
      </trkpt>
      <trkpt lat="42.41795" lon="2.92028">
        <ele>209.2</ele>
        <time>2022-05-21 14:13:38</time>
      </trkpt>
      <trkpt lat="42.41798" lon="2.92026">
        <ele>209.4</ele>
        <time>2022-05-21 14:13:39</time>
      </trkpt>
      <trkpt lat="42.41801" lon="2.92023">
        <ele>209.6</ele>
        <time>2022-05-21 14:13:40</time>
      </trkpt>
      <trkpt lat="42.41804" lon="2.92021">
        <ele>209.8</ele>
        <time>2022-05-21 14:13:41</time>
      </trkpt>
      <trkpt lat="42.41806" lon="2.92018">
        <ele>210</ele>
        <time>2022-05-21 14:13:42</time>
      </trkpt>
      <trkpt lat="42.41808" lon="2.92015">
        <ele>210.2</ele>
        <time>2022-05-21 14:13:43</time>
      </trkpt>
      <trkpt lat="42.4181" lon="2.92012">
        <ele>210.2</ele>
        <time>2022-05-21 14:13:44</time>
      </trkpt>
      <trkpt lat="42.41812" lon="2.92009">
        <ele>210.4</ele>
        <time>2022-05-21 14:13:45</time>
      </trkpt>
      <trkpt lat="42.41814" lon="2.92005">
        <ele>210.6</ele>
        <time>2022-05-21 14:13:46</time>
      </trkpt>
      <trkpt lat="42.41815" lon="2.92001">
        <ele>210.6</ele>
        <time>2022-05-21 14:13:47</time>
      </trkpt>
      <trkpt lat="42.41816" lon="2.91998">
        <ele>210.8</ele>
        <time>2022-05-21 14:13:48</time>
      </trkpt>
      <trkpt lat="42.41817" lon="2.91993">
        <ele>211</ele>
        <time>2022-05-21 14:13:49</time>
      </trkpt>
      <trkpt lat="42.41817" lon="2.91989">
        <ele>211.2</ele>
        <time>2022-05-21 14:13:50</time>
      </trkpt>
      <trkpt lat="42.41818" lon="2.91985">
        <ele>211.2</ele>
        <time>2022-05-21 14:13:51</time>
      </trkpt>
      <trkpt lat="42.41818" lon="2.9198">
        <ele>211.4</ele>
        <time>2022-05-21 14:13:52</time>
      </trkpt>
      <trkpt lat="42.41818" lon="2.91976">
        <ele>211.6</ele>
        <time>2022-05-21 14:13:53</time>
      </trkpt>
      <trkpt lat="42.41818" lon="2.91972">
        <ele>211.8</ele>
        <time>2022-05-21 14:13:54</time>
      </trkpt>
      <trkpt lat="42.41818" lon="2.91968">
        <ele>212</ele>
        <time>2022-05-21 14:13:55</time>
      </trkpt>
      <trkpt lat="42.41817" lon="2.91964">
        <ele>212.4</ele>
        <time>2022-05-21 14:13:56</time>
      </trkpt>
      <trkpt lat="42.41817" lon="2.91959">
        <ele>212.6</ele>
        <time>2022-05-21 14:13:57</time>
      </trkpt>
      <trkpt lat="42.41817" lon="2.91955">
        <ele>212.6</ele>
        <time>2022-05-21 14:13:58</time>
      </trkpt>
      <trkpt lat="42.41817" lon="2.9195">
        <ele>212.8</ele>
        <time>2022-05-21 14:13:59</time>
      </trkpt>
      <trkpt lat="42.41817" lon="2.91946">
        <ele>213</ele>
        <time>2022-05-21 14:14:00</time>
      </trkpt>
      <trkpt lat="42.41816" lon="2.91942">
        <ele>213.2</ele>
        <time>2022-05-21 14:14:01</time>
      </trkpt>
      <trkpt lat="42.41815" lon="2.91937">
        <ele>213.2</ele>
        <time>2022-05-21 14:14:02</time>
      </trkpt>
      <trkpt lat="42.41815" lon="2.91933">
        <ele>213.4</ele>
        <time>2022-05-21 14:14:03</time>
      </trkpt>
      <trkpt lat="42.41814" lon="2.91929">
        <ele>213.6</ele>
        <time>2022-05-21 14:14:04</time>
      </trkpt>
      <trkpt lat="42.41813" lon="2.91924">
        <ele>213.6</ele>
        <time>2022-05-21 14:14:05</time>
      </trkpt>
      <trkpt lat="42.41813" lon="2.9192">
        <ele>213.8</ele>
        <time>2022-05-21 14:14:06</time>
      </trkpt>
      <trkpt lat="42.41813" lon="2.91915">
        <ele>213.8</ele>
        <time>2022-05-21 14:14:07</time>
      </trkpt>
      <trkpt lat="42.41813" lon="2.91911">
        <ele>214</ele>
        <time>2022-05-21 14:14:08</time>
      </trkpt>
      <trkpt lat="42.41814" lon="2.91906">
        <ele>214</ele>
        <time>2022-05-21 14:14:09</time>
      </trkpt>
      <trkpt lat="42.41814" lon="2.91902">
        <ele>214.2</ele>
        <time>2022-05-21 14:14:10</time>
      </trkpt>
      <trkpt lat="42.41815" lon="2.91898">
        <ele>214.4</ele>
        <time>2022-05-21 14:14:11</time>
      </trkpt>
      <trkpt lat="42.41816" lon="2.91894">
        <ele>214.4</ele>
        <time>2022-05-21 14:14:12</time>
      </trkpt>
      <trkpt lat="42.41818" lon="2.91891">
        <ele>214.6</ele>
        <time>2022-05-21 14:14:13</time>
      </trkpt>
      <trkpt lat="42.4182" lon="2.91887">
        <ele>214.8</ele>
        <time>2022-05-21 14:14:14</time>
      </trkpt>
      <trkpt lat="42.41822" lon="2.91884">
        <ele>215</ele>
        <time>2022-05-21 14:14:15</time>
      </trkpt>
      <trkpt lat="42.41824" lon="2.91881">
        <ele>215.2</ele>
        <time>2022-05-21 14:14:16</time>
      </trkpt>
      <trkpt lat="42.41825" lon="2.91878">
        <ele>215.4</ele>
        <time>2022-05-21 14:14:17</time>
      </trkpt>
      <trkpt lat="42.41827" lon="2.91875">
        <ele>215.6</ele>
        <time>2022-05-21 14:14:18</time>
      </trkpt>
      <trkpt lat="42.4183" lon="2.91872">
        <ele>215.8</ele>
        <time>2022-05-21 14:14:19</time>
      </trkpt>
      <trkpt lat="42.41832" lon="2.91869">
        <ele>215.8</ele>
        <time>2022-05-21 14:14:20</time>
      </trkpt>
      <trkpt lat="42.41834" lon="2.91866">
        <ele>216</ele>
        <time>2022-05-21 14:14:21</time>
      </trkpt>
      <trkpt lat="42.41836" lon="2.91863">
        <ele>216.2</ele>
        <time>2022-05-21 14:14:22</time>
      </trkpt>
      <trkpt lat="42.41838" lon="2.91861">
        <ele>216.4</ele>
        <time>2022-05-21 14:14:23</time>
      </trkpt>
      <trkpt lat="42.4184" lon="2.91858">
        <ele>216.6</ele>
        <time>2022-05-21 14:14:24</time>
      </trkpt>
      <trkpt lat="42.41843" lon="2.91855">
        <ele>216.6</ele>
        <time>2022-05-21 14:14:25</time>
      </trkpt>
      <trkpt lat="42.41845" lon="2.91852">
        <ele>216.8</ele>
        <time>2022-05-21 14:14:26</time>
      </trkpt>
      <trkpt lat="42.41848" lon="2.91849">
        <ele>217</ele>
        <time>2022-05-21 14:14:27</time>
      </trkpt>
      <trkpt lat="42.4185" lon="2.91847">
        <ele>217.2</ele>
        <time>2022-05-21 14:14:28</time>
      </trkpt>
      <trkpt lat="42.41852" lon="2.91844">
        <ele>217.2</ele>
        <time>2022-05-21 14:14:29</time>
      </trkpt>
      <trkpt lat="42.41854" lon="2.91841">
        <ele>217.4</ele>
        <time>2022-05-21 14:14:30</time>
      </trkpt>
      <trkpt lat="42.41856" lon="2.91838">
        <ele>217.6</ele>
        <time>2022-05-21 14:14:31</time>
      </trkpt>
      <trkpt lat="42.41858" lon="2.91836">
        <ele>217.8</ele>
        <time>2022-05-21 14:14:32</time>
      </trkpt>
      <trkpt lat="42.4186" lon="2.91833">
        <ele>218</ele>
        <time>2022-05-21 14:14:33</time>
      </trkpt>
      <trkpt lat="42.41862" lon="2.91831">
        <ele>218</ele>
        <time>2022-05-21 14:14:34</time>
      </trkpt>
      <trkpt lat="42.41864" lon="2.91828">
        <ele>218.2</ele>
        <time>2022-05-21 14:14:35</time>
      </trkpt>
      <trkpt lat="42.41866" lon="2.91825">
        <ele>218.4</ele>
        <time>2022-05-21 14:14:36</time>
      </trkpt>
      <trkpt lat="42.41868" lon="2.91822">
        <ele>218.6</ele>
        <time>2022-05-21 14:14:37</time>
      </trkpt>
      <trkpt lat="42.4187" lon="2.91819">
        <ele>218.6</ele>
        <time>2022-05-21 14:14:38</time>
      </trkpt>
      <trkpt lat="42.41872" lon="2.91816">
        <ele>218.8</ele>
        <time>2022-05-21 14:14:39</time>
      </trkpt>
      <trkpt lat="42.41874" lon="2.91813">
        <ele>219</ele>
        <time>2022-05-21 14:14:40</time>
      </trkpt>
      <trkpt lat="42.41875" lon="2.9181">
        <ele>219.2</ele>
        <time>2022-05-21 14:14:41</time>
      </trkpt>
      <trkpt lat="42.41876" lon="2.91807">
        <ele>219.4</ele>
        <time>2022-05-21 14:14:42</time>
      </trkpt>
      <trkpt lat="42.41877" lon="2.91804">
        <ele>219.4</ele>
        <time>2022-05-21 14:14:43</time>
      </trkpt>
      <trkpt lat="42.41877" lon="2.91798">
        <ele>219.6</ele>
        <time>2022-05-21 14:14:44</time>
      </trkpt>
      <trkpt lat="42.41877" lon="2.91794">
        <ele>219.6</ele>
        <time>2022-05-21 14:14:45</time>
      </trkpt>
      <trkpt lat="42.41877" lon="2.9179">
        <ele>219.8</ele>
        <time>2022-05-21 14:14:46</time>
      </trkpt>
      <trkpt lat="42.41876" lon="2.91786">
        <ele>219.8</ele>
        <time>2022-05-21 14:14:47</time>
      </trkpt>
      <trkpt lat="42.41875" lon="2.91782">
        <ele>219.8</ele>
        <time>2022-05-21 14:14:48</time>
      </trkpt>
      <trkpt lat="42.41873" lon="2.91778">
        <ele>220</ele>
        <time>2022-05-21 14:14:49</time>
      </trkpt>
      <trkpt lat="42.41872" lon="2.91774">
        <ele>220.2</ele>
        <time>2022-05-21 14:14:50</time>
      </trkpt>
      <trkpt lat="42.4187" lon="2.91771">
        <ele>220.4</ele>
        <time>2022-05-21 14:14:51</time>
      </trkpt>
      <trkpt lat="42.41868" lon="2.91767">
        <ele>220.4</ele>
        <time>2022-05-21 14:14:52</time>
      </trkpt>
      <trkpt lat="42.41865" lon="2.91763">
        <ele>220.6</ele>
        <time>2022-05-21 14:14:53</time>
      </trkpt>
      <trkpt lat="42.41863" lon="2.9176">
        <ele>220.8</ele>
        <time>2022-05-21 14:14:54</time>
      </trkpt>
      <trkpt lat="42.41861" lon="2.91756">
        <ele>220.8</ele>
        <time>2022-05-21 14:14:55</time>
      </trkpt>
      <trkpt lat="42.41859" lon="2.91753">
        <ele>221</ele>
        <time>2022-05-21 14:14:56</time>
      </trkpt>
      <trkpt lat="42.41857" lon="2.91749">
        <ele>221</ele>
        <time>2022-05-21 14:14:57</time>
      </trkpt>
      <trkpt lat="42.41854" lon="2.91745">
        <ele>221</ele>
        <time>2022-05-21 14:14:58</time>
      </trkpt>
      <trkpt lat="42.41852" lon="2.91741">
        <ele>221.2</ele>
        <time>2022-05-21 14:14:59</time>
      </trkpt>
      <trkpt lat="42.4185" lon="2.91737">
        <ele>221.2</ele>
        <time>2022-05-21 14:15:00</time>
      </trkpt>
      <trkpt lat="42.41848" lon="2.91733">
        <ele>221.4</ele>
        <time>2022-05-21 14:15:01</time>
      </trkpt>
      <trkpt lat="42.41847" lon="2.91728">
        <ele>221.6</ele>
        <time>2022-05-21 14:15:02</time>
      </trkpt>
      <trkpt lat="42.41846" lon="2.91723">
        <ele>221.6</ele>
        <time>2022-05-21 14:15:03</time>
      </trkpt>
      <trkpt lat="42.41847" lon="2.91717">
        <ele>221.8</ele>
        <time>2022-05-21 14:15:04</time>
      </trkpt>
      <trkpt lat="42.41847" lon="2.91712">
        <ele>222</ele>
        <time>2022-05-21 14:15:05</time>
      </trkpt>
      <trkpt lat="42.41848" lon="2.91707">
        <ele>222.2</ele>
        <time>2022-05-21 14:15:06</time>
      </trkpt>
      <trkpt lat="42.41849" lon="2.91703">
        <ele>222.4</ele>
        <time>2022-05-21 14:15:07</time>
      </trkpt>
      <trkpt lat="42.4185" lon="2.91697">
        <ele>222.4</ele>
        <time>2022-05-21 14:15:08</time>
      </trkpt>
      <trkpt lat="42.41851" lon="2.91692">
        <ele>222.6</ele>
        <time>2022-05-21 14:15:09</time>
      </trkpt>
      <trkpt lat="42.41852" lon="2.91687">
        <ele>222.8</ele>
        <time>2022-05-21 14:15:10</time>
      </trkpt>
      <trkpt lat="42.41853" lon="2.91682">
        <ele>222.8</ele>
        <time>2022-05-21 14:15:11</time>
      </trkpt>
      <trkpt lat="42.41854" lon="2.91677">
        <ele>223</ele>
        <time>2022-05-21 14:15:12</time>
      </trkpt>
      <trkpt lat="42.41855" lon="2.91672">
        <ele>223.2</ele>
        <time>2022-05-21 14:15:13</time>
      </trkpt>
      <trkpt lat="42.41857" lon="2.91668">
        <ele>223.2</ele>
        <time>2022-05-21 14:15:14</time>
      </trkpt>
      <trkpt lat="42.41857" lon="2.91663">
        <ele>223.4</ele>
        <time>2022-05-21 14:15:15</time>
      </trkpt>
      <trkpt lat="42.41858" lon="2.91658">
        <ele>223.6</ele>
        <time>2022-05-21 14:15:16</time>
      </trkpt>
      <trkpt lat="42.41859" lon="2.91652">
        <ele>223.6</ele>
        <time>2022-05-21 14:15:17</time>
      </trkpt>
      <trkpt lat="42.4186" lon="2.91647">
        <ele>223.8</ele>
        <time>2022-05-21 14:15:18</time>
      </trkpt>
      <trkpt lat="42.41861" lon="2.91643">
        <ele>223.8</ele>
        <time>2022-05-21 14:15:19</time>
      </trkpt>
      <trkpt lat="42.41862" lon="2.91637">
        <ele>224</ele>
        <time>2022-05-21 14:15:20</time>
      </trkpt>
      <trkpt lat="42.41863" lon="2.91632">
        <ele>224</ele>
        <time>2022-05-21 14:15:21</time>
      </trkpt>
      <trkpt lat="42.41864" lon="2.91627">
        <ele>224.2</ele>
        <time>2022-05-21 14:15:22</time>
      </trkpt>
      <trkpt lat="42.41865" lon="2.91622">
        <ele>224.4</ele>
        <time>2022-05-21 14:15:23</time>
      </trkpt>
      <trkpt lat="42.41866" lon="2.91617">
        <ele>224.6</ele>
        <time>2022-05-21 14:15:24</time>
      </trkpt>
      <trkpt lat="42.41866" lon="2.91612">
        <ele>224.6</ele>
        <time>2022-05-21 14:15:25</time>
      </trkpt>
      <trkpt lat="42.41866" lon="2.91607">
        <ele>224.6</ele>
        <time>2022-05-21 14:15:26</time>
      </trkpt>
      <trkpt lat="42.41866" lon="2.91602">
        <ele>224.6</ele>
        <time>2022-05-21 14:15:27</time>
      </trkpt>
      <trkpt lat="42.41864" lon="2.91597">
        <ele>224.6</ele>
        <time>2022-05-21 14:15:28</time>
      </trkpt>
      <trkpt lat="42.41863" lon="2.91592">
        <ele>224.6</ele>
        <time>2022-05-21 14:15:29</time>
      </trkpt>
      <trkpt lat="42.41861" lon="2.91586">
        <ele>224.4</ele>
        <time>2022-05-21 14:15:30</time>
      </trkpt>
      <trkpt lat="42.41859" lon="2.91581">
        <ele>224.4</ele>
        <time>2022-05-21 14:15:31</time>
      </trkpt>
      <trkpt lat="42.41856" lon="2.91576">
        <ele>224.2</ele>
        <time>2022-05-21 14:15:32</time>
      </trkpt>
      <trkpt lat="42.41853" lon="2.91571">
        <ele>224.2</ele>
        <time>2022-05-21 14:15:33</time>
      </trkpt>
      <trkpt lat="42.4185" lon="2.91565">
        <ele>224</ele>
        <time>2022-05-21 14:15:34</time>
      </trkpt>
      <trkpt lat="42.41847" lon="2.9156">
        <ele>224</ele>
        <time>2022-05-21 14:15:35</time>
      </trkpt>
      <trkpt lat="42.41845" lon="2.91554">
        <ele>223.8</ele>
        <time>2022-05-21 14:15:36</time>
      </trkpt>
      <trkpt lat="42.41843" lon="2.91547">
        <ele>223.8</ele>
        <time>2022-05-21 14:15:37</time>
      </trkpt>
      <trkpt lat="42.41843" lon="2.9154">
        <ele>223.6</ele>
        <time>2022-05-21 14:15:38</time>
      </trkpt>
      <trkpt lat="42.41844" lon="2.91532">
        <ele>223.6</ele>
        <time>2022-05-21 14:15:39</time>
      </trkpt>
      <trkpt lat="42.41845" lon="2.91525">
        <ele>223.6</ele>
        <time>2022-05-21 14:15:40</time>
      </trkpt>
      <trkpt lat="42.41847" lon="2.91517">
        <ele>223.4</ele>
        <time>2022-05-21 14:15:41</time>
      </trkpt>
      <trkpt lat="42.41848" lon="2.9151">
        <ele>223.2</ele>
        <time>2022-05-21 14:15:42</time>
      </trkpt>
      <trkpt lat="42.41849" lon="2.91502">
        <ele>223</ele>
        <time>2022-05-21 14:15:43</time>
      </trkpt>
      <trkpt lat="42.41851" lon="2.91495">
        <ele>223</ele>
        <time>2022-05-21 14:15:44</time>
      </trkpt>
      <trkpt lat="42.41852" lon="2.91488">
        <ele>222.8</ele>
        <time>2022-05-21 14:15:45</time>
      </trkpt>
      <trkpt lat="42.41853" lon="2.91481">
        <ele>222.6</ele>
        <time>2022-05-21 14:15:46</time>
      </trkpt>
      <trkpt lat="42.41854" lon="2.91473">
        <ele>222.6</ele>
        <time>2022-05-21 14:15:47</time>
      </trkpt>
      <trkpt lat="42.41855" lon="2.91466">
        <ele>222.6</ele>
        <time>2022-05-21 14:15:48</time>
      </trkpt>
      <trkpt lat="42.41855" lon="2.91459">
        <ele>222.6</ele>
        <time>2022-05-21 14:15:49</time>
      </trkpt>
      <trkpt lat="42.41854" lon="2.91452">
        <ele>222.6</ele>
        <time>2022-05-21 14:15:50</time>
      </trkpt>
      <trkpt lat="42.41852" lon="2.91446">
        <ele>222.6</ele>
        <time>2022-05-21 14:15:51</time>
      </trkpt>
      <trkpt lat="42.4185" lon="2.9144">
        <ele>222.6</ele>
        <time>2022-05-21 14:15:52</time>
      </trkpt>
      <trkpt lat="42.41846" lon="2.91434">
        <ele>222.6</ele>
        <time>2022-05-21 14:15:53</time>
      </trkpt>
      <trkpt lat="42.41843" lon="2.91429">
        <ele>222.4</ele>
        <time>2022-05-21 14:15:54</time>
      </trkpt>
      <trkpt lat="42.41839" lon="2.91423">
        <ele>222.4</ele>
        <time>2022-05-21 14:15:55</time>
      </trkpt>
      <trkpt lat="42.41835" lon="2.91417">
        <ele>222.2</ele>
        <time>2022-05-21 14:15:56</time>
      </trkpt>
      <trkpt lat="42.4183" lon="2.91411">
        <ele>222</ele>
        <time>2022-05-21 14:15:57</time>
      </trkpt>
      <trkpt lat="42.41826" lon="2.91404">
        <ele>222</ele>
        <time>2022-05-21 14:15:58</time>
      </trkpt>
      <trkpt lat="42.41822" lon="2.91398">
        <ele>221.8</ele>
        <time>2022-05-21 14:15:59</time>
      </trkpt>
      <trkpt lat="42.41818" lon="2.91391">
        <ele>221.8</ele>
        <time>2022-05-21 14:16:00</time>
      </trkpt>
      <trkpt lat="42.41814" lon="2.91385">
        <ele>221.6</ele>
        <time>2022-05-21 14:16:01</time>
      </trkpt>
      <trkpt lat="42.4181" lon="2.91379">
        <ele>221.6</ele>
        <time>2022-05-21 14:16:02</time>
      </trkpt>
      <trkpt lat="42.41805" lon="2.91373">
        <ele>221.4</ele>
        <time>2022-05-21 14:16:03</time>
      </trkpt>
      <trkpt lat="42.41801" lon="2.91367">
        <ele>221.4</ele>
        <time>2022-05-21 14:16:04</time>
      </trkpt>
      <trkpt lat="42.41796" lon="2.91361">
        <ele>221.2</ele>
        <time>2022-05-21 14:16:05</time>
      </trkpt>
      <trkpt lat="42.41792" lon="2.91354">
        <ele>221.2</ele>
        <time>2022-05-21 14:16:06</time>
      </trkpt>
      <trkpt lat="42.41788" lon="2.91348">
        <ele>221</ele>
        <time>2022-05-21 14:16:07</time>
      </trkpt>
      <trkpt lat="42.41783" lon="2.91341">
        <ele>221</ele>
        <time>2022-05-21 14:16:08</time>
      </trkpt>
      <trkpt lat="42.41779" lon="2.91335">
        <ele>220.8</ele>
        <time>2022-05-21 14:16:09</time>
      </trkpt>
      <trkpt lat="42.41775" lon="2.91329">
        <ele>220.8</ele>
        <time>2022-05-21 14:16:10</time>
      </trkpt>
      <trkpt lat="42.41771" lon="2.91323">
        <ele>220.6</ele>
        <time>2022-05-21 14:16:11</time>
      </trkpt>
      <trkpt lat="42.41766" lon="2.91316">
        <ele>220.6</ele>
        <time>2022-05-21 14:16:12</time>
      </trkpt>
      <trkpt lat="42.41762" lon="2.9131">
        <ele>220.6</ele>
        <time>2022-05-21 14:16:13</time>
      </trkpt>
      <trkpt lat="42.41757" lon="2.91304">
        <ele>220.6</ele>
        <time>2022-05-21 14:16:14</time>
      </trkpt>
      <trkpt lat="42.41753" lon="2.91298">
        <ele>220.4</ele>
        <time>2022-05-21 14:16:15</time>
      </trkpt>
      <trkpt lat="42.41748" lon="2.91292">
        <ele>220.4</ele>
        <time>2022-05-21 14:16:16</time>
      </trkpt>
      <trkpt lat="42.41744" lon="2.91285">
        <ele>220.2</ele>
        <time>2022-05-21 14:16:17</time>
      </trkpt>
      <trkpt lat="42.41739" lon="2.91279">
        <ele>220.2</ele>
        <time>2022-05-21 14:16:18</time>
      </trkpt>
      <trkpt lat="42.41734" lon="2.91272">
        <ele>220</ele>
        <time>2022-05-21 14:16:19</time>
      </trkpt>
      <trkpt lat="42.4173" lon="2.91266">
        <ele>220</ele>
        <time>2022-05-21 14:16:20</time>
      </trkpt>
      <trkpt lat="42.41725" lon="2.91259">
        <ele>219.8</ele>
        <time>2022-05-21 14:16:21</time>
      </trkpt>
      <trkpt lat="42.4172" lon="2.91252">
        <ele>219.8</ele>
        <time>2022-05-21 14:16:22</time>
      </trkpt>
      <trkpt lat="42.41716" lon="2.91245">
        <ele>219.6</ele>
        <time>2022-05-21 14:16:23</time>
      </trkpt>
      <trkpt lat="42.41711" lon="2.91238">
        <ele>219.4</ele>
        <time>2022-05-21 14:16:24</time>
      </trkpt>
      <trkpt lat="42.41706" lon="2.91232">
        <ele>219.4</ele>
        <time>2022-05-21 14:16:25</time>
      </trkpt>
      <trkpt lat="42.41702" lon="2.91225">
        <ele>219.4</ele>
        <time>2022-05-21 14:16:26</time>
      </trkpt>
      <trkpt lat="42.41697" lon="2.91218">
        <ele>219.4</ele>
        <time>2022-05-21 14:16:27</time>
      </trkpt>
      <trkpt lat="42.41692" lon="2.91211">
        <ele>219.2</ele>
        <time>2022-05-21 14:16:28</time>
      </trkpt>
      <trkpt lat="42.41688" lon="2.91205">
        <ele>219.2</ele>
        <time>2022-05-21 14:16:29</time>
      </trkpt>
      <trkpt lat="42.41684" lon="2.91198">
        <ele>219.2</ele>
        <time>2022-05-21 14:16:30</time>
      </trkpt>
      <trkpt lat="42.4168" lon="2.91192">
        <ele>219.2</ele>
        <time>2022-05-21 14:16:31</time>
      </trkpt>
      <trkpt lat="42.41675" lon="2.91186">
        <ele>219.4</ele>
        <time>2022-05-21 14:16:32</time>
      </trkpt>
      <trkpt lat="42.4167" lon="2.91179">
        <ele>219.4</ele>
        <time>2022-05-21 14:16:33</time>
      </trkpt>
      <trkpt lat="42.41666" lon="2.91173">
        <ele>219.4</ele>
        <time>2022-05-21 14:16:34</time>
      </trkpt>
      <trkpt lat="42.41661" lon="2.91166">
        <ele>219.4</ele>
        <time>2022-05-21 14:16:35</time>
      </trkpt>
      <trkpt lat="42.41657" lon="2.91159">
        <ele>219.4</ele>
        <time>2022-05-21 14:16:36</time>
      </trkpt>
      <trkpt lat="42.41653" lon="2.91152">
        <ele>219.4</ele>
        <time>2022-05-21 14:16:37</time>
      </trkpt>
      <trkpt lat="42.4165" lon="2.91145">
        <ele>219.4</ele>
        <time>2022-05-21 14:16:38</time>
      </trkpt>
      <trkpt lat="42.41647" lon="2.91137">
        <ele>219.4</ele>
        <time>2022-05-21 14:16:39</time>
      </trkpt>
      <trkpt lat="42.41645" lon="2.91129">
        <ele>219.4</ele>
        <time>2022-05-21 14:16:40</time>
      </trkpt>
      <trkpt lat="42.41644" lon="2.9112">
        <ele>219.4</ele>
        <time>2022-05-21 14:16:41</time>
      </trkpt>
      <trkpt lat="42.41643" lon="2.91111">
        <ele>219.4</ele>
        <time>2022-05-21 14:16:42</time>
      </trkpt>
      <trkpt lat="42.41643" lon="2.91102">
        <ele>219.4</ele>
        <time>2022-05-21 14:16:43</time>
      </trkpt>
      <trkpt lat="42.41643" lon="2.91093">
        <ele>219.4</ele>
        <time>2022-05-21 14:16:44</time>
      </trkpt>
      <trkpt lat="42.41643" lon="2.91084">
        <ele>219.4</ele>
        <time>2022-05-21 14:16:45</time>
      </trkpt>
      <trkpt lat="42.41643" lon="2.91076">
        <ele>219.4</ele>
        <time>2022-05-21 14:16:46</time>
      </trkpt>
      <trkpt lat="42.41642" lon="2.91068">
        <ele>219.4</ele>
        <time>2022-05-21 14:16:47</time>
      </trkpt>
      <trkpt lat="42.41642" lon="2.91058">
        <ele>219.4</ele>
        <time>2022-05-21 14:16:48</time>
      </trkpt>
      <trkpt lat="42.41642" lon="2.91049">
        <ele>219.4</ele>
        <time>2022-05-21 14:16:49</time>
      </trkpt>
      <trkpt lat="42.4164" lon="2.9104">
        <ele>219.4</ele>
        <time>2022-05-21 14:16:50</time>
      </trkpt>
      <trkpt lat="42.41638" lon="2.91032">
        <ele>219.6</ele>
        <time>2022-05-21 14:16:51</time>
      </trkpt>
      <trkpt lat="42.41635" lon="2.91026">
        <ele>219.6</ele>
        <time>2022-05-21 14:16:52</time>
      </trkpt>
      <trkpt lat="42.4163" lon="2.91021">
        <ele>219.6</ele>
        <time>2022-05-21 14:16:53</time>
      </trkpt>
      <trkpt lat="42.41625" lon="2.91017">
        <ele>219.6</ele>
        <time>2022-05-21 14:16:54</time>
      </trkpt>
      <trkpt lat="42.41618" lon="2.91016">
        <ele>219.6</ele>
        <time>2022-05-21 14:16:55</time>
      </trkpt>
      <trkpt lat="42.41611" lon="2.91014">
        <ele>219.4</ele>
        <time>2022-05-21 14:16:56</time>
      </trkpt>
      <trkpt lat="42.41604" lon="2.91013">
        <ele>219.4</ele>
        <time>2022-05-21 14:16:57</time>
      </trkpt>
      <trkpt lat="42.41598" lon="2.91009">
        <ele>219.4</ele>
        <time>2022-05-21 14:16:58</time>
      </trkpt>
      <trkpt lat="42.41592" lon="2.91004">
        <ele>219.4</ele>
        <time>2022-05-21 14:16:59</time>
      </trkpt>
      <trkpt lat="42.41587" lon="2.90997">
        <ele>219.2</ele>
        <time>2022-05-21 14:17:00</time>
      </trkpt>
      <trkpt lat="42.41584" lon="2.90989">
        <ele>219</ele>
        <time>2022-05-21 14:17:01</time>
      </trkpt>
      <trkpt lat="42.41581" lon="2.9098">
        <ele>219</ele>
        <time>2022-05-21 14:17:02</time>
      </trkpt>
      <trkpt lat="42.41579" lon="2.90971">
        <ele>219</ele>
        <time>2022-05-21 14:17:03</time>
      </trkpt>
      <trkpt lat="42.41578" lon="2.90962">
        <ele>218.8</ele>
        <time>2022-05-21 14:17:04</time>
      </trkpt>
      <trkpt lat="42.41577" lon="2.90952">
        <ele>218.8</ele>
        <time>2022-05-21 14:17:05</time>
      </trkpt>
      <trkpt lat="42.41576" lon="2.90943">
        <ele>218.8</ele>
        <time>2022-05-21 14:17:06</time>
      </trkpt>
      <trkpt lat="42.41575" lon="2.90934">
        <ele>218.6</ele>
        <time>2022-05-21 14:17:07</time>
      </trkpt>
      <trkpt lat="42.41574" lon="2.90924">
        <ele>218.6</ele>
        <time>2022-05-21 14:17:08</time>
      </trkpt>
      <trkpt lat="42.41572" lon="2.90916">
        <ele>218.6</ele>
        <time>2022-05-21 14:17:09</time>
      </trkpt>
      <trkpt lat="42.4157" lon="2.90907">
        <ele>218.4</ele>
        <time>2022-05-21 14:17:10</time>
      </trkpt>
      <trkpt lat="42.41567" lon="2.90899">
        <ele>218.4</ele>
        <time>2022-05-21 14:17:11</time>
      </trkpt>
      <trkpt lat="42.41563" lon="2.90892">
        <ele>218.2</ele>
        <time>2022-05-21 14:17:12</time>
      </trkpt>
      <trkpt lat="42.41559" lon="2.90884">
        <ele>218.2</ele>
        <time>2022-05-21 14:17:13</time>
      </trkpt>
      <trkpt lat="42.41554" lon="2.90878">
        <ele>218</ele>
        <time>2022-05-21 14:17:14</time>
      </trkpt>
      <trkpt lat="42.41548" lon="2.90871">
        <ele>217.8</ele>
        <time>2022-05-21 14:17:15</time>
      </trkpt>
      <trkpt lat="42.41543" lon="2.90865">
        <ele>217.8</ele>
        <time>2022-05-21 14:17:16</time>
      </trkpt>
      <trkpt lat="42.41537" lon="2.90858">
        <ele>217.6</ele>
        <time>2022-05-21 14:17:17</time>
      </trkpt>
      <trkpt lat="42.41532" lon="2.90852">
        <ele>217.6</ele>
        <time>2022-05-21 14:17:18</time>
      </trkpt>
      <trkpt lat="42.41527" lon="2.90845">
        <ele>217.4</ele>
        <time>2022-05-21 14:17:19</time>
      </trkpt>
      <trkpt lat="42.41522" lon="2.90838">
        <ele>217.2</ele>
        <time>2022-05-21 14:17:20</time>
      </trkpt>
      <trkpt lat="42.41517" lon="2.90831">
        <ele>217</ele>
        <time>2022-05-21 14:17:21</time>
      </trkpt>
      <trkpt lat="42.41511" lon="2.90824">
        <ele>217</ele>
        <time>2022-05-21 14:17:22</time>
      </trkpt>
      <trkpt lat="42.41506" lon="2.90816">
        <ele>216.8</ele>
        <time>2022-05-21 14:17:23</time>
      </trkpt>
      <trkpt lat="42.41503" lon="2.90808">
        <ele>216.6</ele>
        <time>2022-05-21 14:17:24</time>
      </trkpt>
      <trkpt lat="42.41501" lon="2.90798">
        <ele>216.6</ele>
        <time>2022-05-21 14:17:25</time>
      </trkpt>
      <trkpt lat="42.41501" lon="2.90789">
        <ele>216.6</ele>
        <time>2022-05-21 14:17:26</time>
      </trkpt>
      <trkpt lat="42.41501" lon="2.9078">
        <ele>216.6</ele>
        <time>2022-05-21 14:17:27</time>
      </trkpt>
      <trkpt lat="42.41501" lon="2.9077">
        <ele>216.4</ele>
        <time>2022-05-21 14:17:28</time>
      </trkpt>
      <trkpt lat="42.415" lon="2.90761">
        <ele>216.4</ele>
        <time>2022-05-21 14:17:29</time>
      </trkpt>
      <trkpt lat="42.41496" lon="2.90753">
        <ele>216.2</ele>
        <time>2022-05-21 14:17:30</time>
      </trkpt>
      <trkpt lat="42.41491" lon="2.90747">
        <ele>216</ele>
        <time>2022-05-21 14:17:31</time>
      </trkpt>
      <trkpt lat="42.41485" lon="2.90743">
        <ele>216</ele>
        <time>2022-05-21 14:17:32</time>
      </trkpt>
      <trkpt lat="42.41477" lon="2.90742">
        <ele>215.8</ele>
        <time>2022-05-21 14:17:33</time>
      </trkpt>
      <trkpt lat="42.41469" lon="2.90742">
        <ele>215.6</ele>
        <time>2022-05-21 14:17:34</time>
      </trkpt>
      <trkpt lat="42.41461" lon="2.90742">
        <ele>215.4</ele>
        <time>2022-05-21 14:17:35</time>
      </trkpt>
      <trkpt lat="42.41454" lon="2.90741">
        <ele>215.2</ele>
        <time>2022-05-21 14:17:36</time>
      </trkpt>
      <trkpt lat="42.41447" lon="2.90739">
        <ele>215</ele>
        <time>2022-05-21 14:17:37</time>
      </trkpt>
      <trkpt lat="42.4144" lon="2.90736">
        <ele>215</ele>
        <time>2022-05-21 14:17:38</time>
      </trkpt>
      <trkpt lat="42.41434" lon="2.90733">
        <ele>214.8</ele>
        <time>2022-05-21 14:17:39</time>
      </trkpt>
      <trkpt lat="42.41427" lon="2.9073">
        <ele>214.8</ele>
        <time>2022-05-21 14:17:40</time>
      </trkpt>
      <trkpt lat="42.41421" lon="2.90726">
        <ele>214.8</ele>
        <time>2022-05-21 14:17:41</time>
      </trkpt>
      <trkpt lat="42.41414" lon="2.90722">
        <ele>214.6</ele>
        <time>2022-05-21 14:17:42</time>
      </trkpt>
      <trkpt lat="42.41407" lon="2.90718">
        <ele>214.6</ele>
        <time>2022-05-21 14:17:43</time>
      </trkpt>
      <trkpt lat="42.41401" lon="2.90714">
        <ele>214.6</ele>
        <time>2022-05-21 14:17:44</time>
      </trkpt>
      <trkpt lat="42.41394" lon="2.90709">
        <ele>214.6</ele>
        <time>2022-05-21 14:17:45</time>
      </trkpt>
      <trkpt lat="42.41387" lon="2.90705">
        <ele>214.6</ele>
        <time>2022-05-21 14:17:46</time>
      </trkpt>
      <trkpt lat="42.41381" lon="2.907">
        <ele>214.6</ele>
        <time>2022-05-21 14:17:47</time>
      </trkpt>
      <trkpt lat="42.41375" lon="2.90695">
        <ele>214.4</ele>
        <time>2022-05-21 14:17:48</time>
      </trkpt>
      <trkpt lat="42.41369" lon="2.9069">
        <ele>214.2</ele>
        <time>2022-05-21 14:17:49</time>
      </trkpt>
      <trkpt lat="42.41363" lon="2.90685">
        <ele>214.2</ele>
        <time>2022-05-21 14:17:50</time>
      </trkpt>
      <trkpt lat="42.41356" lon="2.9068">
        <ele>214</ele>
        <time>2022-05-21 14:17:51</time>
      </trkpt>
      <trkpt lat="42.41351" lon="2.90674">
        <ele>213.8</ele>
        <time>2022-05-21 14:17:52</time>
      </trkpt>
      <trkpt lat="42.41346" lon="2.90668">
        <ele>213.6</ele>
        <time>2022-05-21 14:17:53</time>
      </trkpt>
      <trkpt lat="42.41342" lon="2.9066">
        <ele>213.4</ele>
        <time>2022-05-21 14:17:54</time>
      </trkpt>
      <trkpt lat="42.41338" lon="2.90653">
        <ele>213.4</ele>
        <time>2022-05-21 14:17:55</time>
      </trkpt>
      <trkpt lat="42.41335" lon="2.90644">
        <ele>213.4</ele>
        <time>2022-05-21 14:17:56</time>
      </trkpt>
      <trkpt lat="42.41332" lon="2.90636">
        <ele>213.2</ele>
        <time>2022-05-21 14:17:57</time>
      </trkpt>
      <trkpt lat="42.4133" lon="2.90627">
        <ele>213.2</ele>
        <time>2022-05-21 14:17:58</time>
      </trkpt>
      <trkpt lat="42.41328" lon="2.90619">
        <ele>213</ele>
        <time>2022-05-21 14:17:59</time>
      </trkpt>
      <trkpt lat="42.41326" lon="2.90611">
        <ele>213</ele>
        <time>2022-05-21 14:18:00</time>
      </trkpt>
      <trkpt lat="42.41324" lon="2.90602">
        <ele>213</ele>
        <time>2022-05-21 14:18:01</time>
      </trkpt>
      <trkpt lat="42.41321" lon="2.90594">
        <ele>212.8</ele>
        <time>2022-05-21 14:18:02</time>
      </trkpt>
      <trkpt lat="42.41316" lon="2.90587">
        <ele>212.8</ele>
        <time>2022-05-21 14:18:03</time>
      </trkpt>
      <trkpt lat="42.41311" lon="2.90581">
        <ele>212.6</ele>
        <time>2022-05-21 14:18:04</time>
      </trkpt>
      <trkpt lat="42.41305" lon="2.90575">
        <ele>212.6</ele>
        <time>2022-05-21 14:18:05</time>
      </trkpt>
      <trkpt lat="42.41299" lon="2.90572">
        <ele>212.6</ele>
        <time>2022-05-21 14:18:06</time>
      </trkpt>
      <trkpt lat="42.41292" lon="2.90571">
        <ele>212.4</ele>
        <time>2022-05-21 14:18:07</time>
      </trkpt>
      <trkpt lat="42.41286" lon="2.9057">
        <ele>212.2</ele>
        <time>2022-05-21 14:18:08</time>
      </trkpt>
      <trkpt lat="42.41279" lon="2.9057">
        <ele>212.2</ele>
        <time>2022-05-21 14:18:09</time>
      </trkpt>
      <trkpt lat="42.41272" lon="2.90569">
        <ele>212</ele>
        <time>2022-05-21 14:18:10</time>
      </trkpt>
      <trkpt lat="42.41265" lon="2.90568">
        <ele>211.8</ele>
        <time>2022-05-21 14:18:11</time>
      </trkpt>
      <trkpt lat="42.41258" lon="2.90568">
        <ele>211.6</ele>
        <time>2022-05-21 14:18:12</time>
      </trkpt>
      <trkpt lat="42.41251" lon="2.90567">
        <ele>211.4</ele>
        <time>2022-05-21 14:18:13</time>
      </trkpt>
      <trkpt lat="42.41244" lon="2.90566">
        <ele>211.2</ele>
        <time>2022-05-21 14:18:14</time>
      </trkpt>
      <trkpt lat="42.41237" lon="2.90565">
        <ele>211.2</ele>
        <time>2022-05-21 14:18:15</time>
      </trkpt>
      <trkpt lat="42.4123" lon="2.90564">
        <ele>211</ele>
        <time>2022-05-21 14:18:16</time>
      </trkpt>
      <trkpt lat="42.41223" lon="2.90563">
        <ele>210.8</ele>
        <time>2022-05-21 14:18:17</time>
      </trkpt>
      <trkpt lat="42.41216" lon="2.90563">
        <ele>210.8</ele>
        <time>2022-05-21 14:18:18</time>
      </trkpt>
      <trkpt lat="42.4121" lon="2.90562">
        <ele>210.6</ele>
        <time>2022-05-21 14:18:19</time>
      </trkpt>
      <trkpt lat="42.41203" lon="2.90561">
        <ele>210.6</ele>
        <time>2022-05-21 14:18:20</time>
      </trkpt>
      <trkpt lat="42.41196" lon="2.9056">
        <ele>210.4</ele>
        <time>2022-05-21 14:18:21</time>
      </trkpt>
      <trkpt lat="42.4119" lon="2.9056">
        <ele>210.4</ele>
        <time>2022-05-21 14:18:22</time>
      </trkpt>
      <trkpt lat="42.41183" lon="2.90559">
        <ele>210.2</ele>
        <time>2022-05-21 14:18:23</time>
      </trkpt>
      <trkpt lat="42.41177" lon="2.90558">
        <ele>210.2</ele>
        <time>2022-05-21 14:18:24</time>
      </trkpt>
      <trkpt lat="42.4117" lon="2.90558">
        <ele>210.2</ele>
        <time>2022-05-21 14:18:25</time>
      </trkpt>
      <trkpt lat="42.41164" lon="2.90556">
        <ele>210</ele>
        <time>2022-05-21 14:18:26</time>
      </trkpt>
      <trkpt lat="42.41157" lon="2.90555">
        <ele>210</ele>
        <time>2022-05-21 14:18:27</time>
      </trkpt>
      <trkpt lat="42.4115" lon="2.90552">
        <ele>210</ele>
        <time>2022-05-21 14:18:28</time>
      </trkpt>
      <trkpt lat="42.41144" lon="2.9055">
        <ele>209.8</ele>
        <time>2022-05-21 14:18:29</time>
      </trkpt>
      <trkpt lat="42.41138" lon="2.90548">
        <ele>209.8</ele>
        <time>2022-05-21 14:18:30</time>
      </trkpt>
      <trkpt lat="42.41131" lon="2.90545">
        <ele>209.6</ele>
        <time>2022-05-21 14:18:31</time>
      </trkpt>
      <trkpt lat="42.41124" lon="2.90542">
        <ele>209.4</ele>
        <time>2022-05-21 14:18:32</time>
      </trkpt>
      <trkpt lat="42.41118" lon="2.90539">
        <ele>209.2</ele>
        <time>2022-05-21 14:18:33</time>
      </trkpt>
      <trkpt lat="42.41112" lon="2.90537">
        <ele>209</ele>
        <time>2022-05-21 14:18:34</time>
      </trkpt>
      <trkpt lat="42.41105" lon="2.90534">
        <ele>209</ele>
        <time>2022-05-21 14:18:35</time>
      </trkpt>
      <trkpt lat="42.41098" lon="2.90531">
        <ele>208.8</ele>
        <time>2022-05-21 14:18:36</time>
      </trkpt>
      <trkpt lat="42.41091" lon="2.90528">
        <ele>208.6</ele>
        <time>2022-05-21 14:18:37</time>
      </trkpt>
      <trkpt lat="42.41084" lon="2.90525">
        <ele>208.4</ele>
        <time>2022-05-21 14:18:38</time>
      </trkpt>
      <trkpt lat="42.41078" lon="2.90522">
        <ele>208.2</ele>
        <time>2022-05-21 14:18:39</time>
      </trkpt>
      <trkpt lat="42.41071" lon="2.90519">
        <ele>208</ele>
        <time>2022-05-21 14:18:40</time>
      </trkpt>
      <trkpt lat="42.41065" lon="2.90516">
        <ele>207.8</ele>
        <time>2022-05-21 14:18:41</time>
      </trkpt>
      <trkpt lat="42.41058" lon="2.90513">
        <ele>207.6</ele>
        <time>2022-05-21 14:18:42</time>
      </trkpt>
      <trkpt lat="42.41051" lon="2.9051">
        <ele>207.4</ele>
        <time>2022-05-21 14:18:43</time>
      </trkpt>
      <trkpt lat="42.41044" lon="2.90507">
        <ele>207.2</ele>
        <time>2022-05-21 14:18:44</time>
      </trkpt>
      <trkpt lat="42.41037" lon="2.90504">
        <ele>207</ele>
        <time>2022-05-21 14:18:45</time>
      </trkpt>
      <trkpt lat="42.4103" lon="2.90501">
        <ele>207</ele>
        <time>2022-05-21 14:18:46</time>
      </trkpt>
      <trkpt lat="42.41023" lon="2.90498">
        <ele>206.8</ele>
        <time>2022-05-21 14:18:47</time>
      </trkpt>
      <trkpt lat="42.41016" lon="2.90496">
        <ele>206.8</ele>
        <time>2022-05-21 14:18:48</time>
      </trkpt>
      <trkpt lat="42.41009" lon="2.90493">
        <ele>206.6</ele>
        <time>2022-05-21 14:18:49</time>
      </trkpt>
      <trkpt lat="42.41002" lon="2.9049">
        <ele>206.6</ele>
        <time>2022-05-21 14:18:50</time>
      </trkpt>
      <trkpt lat="42.40995" lon="2.90487">
        <ele>206.4</ele>
        <time>2022-05-21 14:18:51</time>
      </trkpt>
      <trkpt lat="42.40987" lon="2.90484">
        <ele>206.4</ele>
        <time>2022-05-21 14:18:52</time>
      </trkpt>
      <trkpt lat="42.4098" lon="2.90481">
        <ele>206.2</ele>
        <time>2022-05-21 14:18:53</time>
      </trkpt>
      <trkpt lat="42.40972" lon="2.90477">
        <ele>206</ele>
        <time>2022-05-21 14:18:54</time>
      </trkpt>
      <trkpt lat="42.40965" lon="2.90473">
        <ele>205.8</ele>
        <time>2022-05-21 14:18:55</time>
      </trkpt>
      <trkpt lat="42.40958" lon="2.90469">
        <ele>205.4</ele>
        <time>2022-05-21 14:18:56</time>
      </trkpt>
      <trkpt lat="42.40951" lon="2.90464">
        <ele>205.2</ele>
        <time>2022-05-21 14:18:57</time>
      </trkpt>
      <trkpt lat="42.40943" lon="2.9046">
        <ele>205</ele>
        <time>2022-05-21 14:18:58</time>
      </trkpt>
      <trkpt lat="42.40936" lon="2.90455">
        <ele>204.6</ele>
        <time>2022-05-21 14:18:59</time>
      </trkpt>
      <trkpt lat="42.40928" lon="2.90449">
        <ele>204.4</ele>
        <time>2022-05-21 14:19:00</time>
      </trkpt>
      <trkpt lat="42.40921" lon="2.90444">
        <ele>204</ele>
        <time>2022-05-21 14:19:01</time>
      </trkpt>
      <trkpt lat="42.40913" lon="2.90439">
        <ele>203.6</ele>
        <time>2022-05-21 14:19:02</time>
      </trkpt>
      <trkpt lat="42.40906" lon="2.90433">
        <ele>203.2</ele>
        <time>2022-05-21 14:19:03</time>
      </trkpt>
      <trkpt lat="42.40898" lon="2.90428">
        <ele>202.8</ele>
        <time>2022-05-21 14:19:04</time>
      </trkpt>
      <trkpt lat="42.40891" lon="2.90423">
        <ele>202.6</ele>
        <time>2022-05-21 14:19:05</time>
      </trkpt>
      <trkpt lat="42.40883" lon="2.90418">
        <ele>202.2</ele>
        <time>2022-05-21 14:19:06</time>
      </trkpt>
      <trkpt lat="42.40876" lon="2.90413">
        <ele>202</ele>
        <time>2022-05-21 14:19:07</time>
      </trkpt>
      <trkpt lat="42.40868" lon="2.90408">
        <ele>201.6</ele>
        <time>2022-05-21 14:19:08</time>
      </trkpt>
      <trkpt lat="42.40861" lon="2.90403">
        <ele>201.4</ele>
        <time>2022-05-21 14:19:09</time>
      </trkpt>
      <trkpt lat="42.40854" lon="2.90398">
        <ele>201</ele>
        <time>2022-05-21 14:19:10</time>
      </trkpt>
      <trkpt lat="42.40846" lon="2.90393">
        <ele>200.8</ele>
        <time>2022-05-21 14:19:11</time>
      </trkpt>
      <trkpt lat="42.40839" lon="2.90388">
        <ele>200.6</ele>
        <time>2022-05-21 14:19:12</time>
      </trkpt>
      <trkpt lat="42.40832" lon="2.90383">
        <ele>200.2</ele>
        <time>2022-05-21 14:19:13</time>
      </trkpt>
      <trkpt lat="42.40824" lon="2.90377">
        <ele>200</ele>
        <time>2022-05-21 14:19:14</time>
      </trkpt>
      <trkpt lat="42.40816" lon="2.90372">
        <ele>199.8</ele>
        <time>2022-05-21 14:19:15</time>
      </trkpt>
      <trkpt lat="42.40809" lon="2.90367">
        <ele>199.6</ele>
        <time>2022-05-21 14:19:16</time>
      </trkpt>
      <trkpt lat="42.40801" lon="2.90361">
        <ele>199.4</ele>
        <time>2022-05-21 14:19:17</time>
      </trkpt>
      <trkpt lat="42.40793" lon="2.90356">
        <ele>199.2</ele>
        <time>2022-05-21 14:19:18</time>
      </trkpt>
      <trkpt lat="42.40786" lon="2.9035">
        <ele>198.8</ele>
        <time>2022-05-21 14:19:19</time>
      </trkpt>
      <trkpt lat="42.40778" lon="2.90345">
        <ele>198.6</ele>
        <time>2022-05-21 14:19:20</time>
      </trkpt>
      <trkpt lat="42.40771" lon="2.90339">
        <ele>198.2</ele>
        <time>2022-05-21 14:19:21</time>
      </trkpt>
      <trkpt lat="42.40763" lon="2.90334">
        <ele>198</ele>
        <time>2022-05-21 14:19:22</time>
      </trkpt>
      <trkpt lat="42.40755" lon="2.90329">
        <ele>197.6</ele>
        <time>2022-05-21 14:19:23</time>
      </trkpt>
      <trkpt lat="42.40747" lon="2.90324">
        <ele>197.4</ele>
        <time>2022-05-21 14:19:24</time>
      </trkpt>
      <trkpt lat="42.40739" lon="2.90318">
        <ele>197.2</ele>
        <time>2022-05-21 14:19:25</time>
      </trkpt>
      <trkpt lat="42.40731" lon="2.90313">
        <ele>197</ele>
        <time>2022-05-21 14:19:26</time>
      </trkpt>
      <trkpt lat="42.40723" lon="2.90308">
        <ele>196.6</ele>
        <time>2022-05-21 14:19:27</time>
      </trkpt>
      <trkpt lat="42.40715" lon="2.90302">
        <ele>196.4</ele>
        <time>2022-05-21 14:19:28</time>
      </trkpt>
      <trkpt lat="42.40707" lon="2.90296">
        <ele>196</ele>
        <time>2022-05-21 14:19:29</time>
      </trkpt>
      <trkpt lat="42.40699" lon="2.90291">
        <ele>195.6</ele>
        <time>2022-05-21 14:19:30</time>
      </trkpt>
      <trkpt lat="42.40691" lon="2.90285">
        <ele>195.2</ele>
        <time>2022-05-21 14:19:31</time>
      </trkpt>
      <trkpt lat="42.40683" lon="2.9028">
        <ele>194.8</ele>
        <time>2022-05-21 14:19:32</time>
      </trkpt>
      <trkpt lat="42.40675" lon="2.90275">
        <ele>194.4</ele>
        <time>2022-05-21 14:19:33</time>
      </trkpt>
      <trkpt lat="42.40667" lon="2.90269">
        <ele>194.2</ele>
        <time>2022-05-21 14:19:34</time>
      </trkpt>
      <trkpt lat="42.4066" lon="2.90264">
        <ele>194</ele>
        <time>2022-05-21 14:19:35</time>
      </trkpt>
      <trkpt lat="42.40652" lon="2.90258">
        <ele>193.6</ele>
        <time>2022-05-21 14:19:36</time>
      </trkpt>
      <trkpt lat="42.40644" lon="2.90252">
        <ele>193.4</ele>
        <time>2022-05-21 14:19:37</time>
      </trkpt>
      <trkpt lat="42.40636" lon="2.90246">
        <ele>193.2</ele>
        <time>2022-05-21 14:19:38</time>
      </trkpt>
      <trkpt lat="42.40627" lon="2.9024">
        <ele>193</ele>
        <time>2022-05-21 14:19:39</time>
      </trkpt>
      <trkpt lat="42.40618" lon="2.90234">
        <ele>192.6</ele>
        <time>2022-05-21 14:19:40</time>
      </trkpt>
      <trkpt lat="42.40609" lon="2.90228">
        <ele>192.2</ele>
        <time>2022-05-21 14:19:41</time>
      </trkpt>
      <trkpt lat="42.40601" lon="2.90223">
        <ele>191.8</ele>
        <time>2022-05-21 14:19:42</time>
      </trkpt>
      <trkpt lat="42.40592" lon="2.90217">
        <ele>191.4</ele>
        <time>2022-05-21 14:19:43</time>
      </trkpt>
      <trkpt lat="42.40583" lon="2.90211">
        <ele>191.2</ele>
        <time>2022-05-21 14:19:44</time>
      </trkpt>
      <trkpt lat="42.40575" lon="2.90206">
        <ele>190.8</ele>
        <time>2022-05-21 14:19:45</time>
      </trkpt>
      <trkpt lat="42.40567" lon="2.902">
        <ele>190.4</ele>
        <time>2022-05-21 14:19:46</time>
      </trkpt>
      <trkpt lat="42.40559" lon="2.90194">
        <ele>190.2</ele>
        <time>2022-05-21 14:19:47</time>
      </trkpt>
      <trkpt lat="42.40551" lon="2.90189">
        <ele>189.8</ele>
        <time>2022-05-21 14:19:48</time>
      </trkpt>
      <trkpt lat="42.40542" lon="2.90183">
        <ele>189.6</ele>
        <time>2022-05-21 14:19:49</time>
      </trkpt>
      <trkpt lat="42.40534" lon="2.90177">
        <ele>189.2</ele>
        <time>2022-05-21 14:19:50</time>
      </trkpt>
      <trkpt lat="42.40525" lon="2.90172">
        <ele>188.8</ele>
        <time>2022-05-21 14:19:51</time>
      </trkpt>
      <trkpt lat="42.40517" lon="2.90167">
        <ele>188.4</ele>
        <time>2022-05-21 14:19:52</time>
      </trkpt>
      <trkpt lat="42.40509" lon="2.90161">
        <ele>188.2</ele>
        <time>2022-05-21 14:19:53</time>
      </trkpt>
      <trkpt lat="42.40501" lon="2.90156">
        <ele>187.8</ele>
        <time>2022-05-21 14:19:54</time>
      </trkpt>
      <trkpt lat="42.40492" lon="2.9015">
        <ele>187.4</ele>
        <time>2022-05-21 14:19:55</time>
      </trkpt>
      <trkpt lat="42.40483" lon="2.90145">
        <ele>186.8</ele>
        <time>2022-05-21 14:19:56</time>
      </trkpt>
      <trkpt lat="42.40475" lon="2.90139">
        <ele>186.4</ele>
        <time>2022-05-21 14:19:57</time>
      </trkpt>
      <trkpt lat="42.40466" lon="2.90134">
        <ele>186.2</ele>
        <time>2022-05-21 14:19:58</time>
      </trkpt>
      <trkpt lat="42.40458" lon="2.90128">
        <ele>185.8</ele>
        <time>2022-05-21 14:19:59</time>
      </trkpt>
      <trkpt lat="42.4045" lon="2.90122">
        <ele>185.6</ele>
        <time>2022-05-21 14:20:00</time>
      </trkpt>
      <trkpt lat="42.40441" lon="2.90116">
        <ele>185.2</ele>
        <time>2022-05-21 14:20:01</time>
      </trkpt>
      <trkpt lat="42.40433" lon="2.9011">
        <ele>184.6</ele>
        <time>2022-05-21 14:20:02</time>
      </trkpt>
      <trkpt lat="42.40425" lon="2.90104">
        <ele>184.4</ele>
        <time>2022-05-21 14:20:03</time>
      </trkpt>
      <trkpt lat="42.40416" lon="2.90098">
        <ele>183.8</ele>
        <time>2022-05-21 14:20:04</time>
      </trkpt>
      <trkpt lat="42.40407" lon="2.90092">
        <ele>183.6</ele>
        <time>2022-05-21 14:20:05</time>
      </trkpt>
      <trkpt lat="42.40399" lon="2.90086">
        <ele>183.4</ele>
        <time>2022-05-21 14:20:06</time>
      </trkpt>
      <trkpt lat="42.4039" lon="2.9008">
        <ele>183</ele>
        <time>2022-05-21 14:20:07</time>
      </trkpt>
      <trkpt lat="42.40382" lon="2.90074">
        <ele>182.8</ele>
        <time>2022-05-21 14:20:08</time>
      </trkpt>
      <trkpt lat="42.40374" lon="2.90069">
        <ele>182.4</ele>
        <time>2022-05-21 14:20:09</time>
      </trkpt>
      <trkpt lat="42.40366" lon="2.90063">
        <ele>182.2</ele>
        <time>2022-05-21 14:20:10</time>
      </trkpt>
      <trkpt lat="42.40359" lon="2.90058">
        <ele>182</ele>
        <time>2022-05-21 14:20:11</time>
      </trkpt>
      <trkpt lat="42.40352" lon="2.90053">
        <ele>181.8</ele>
        <time>2022-05-21 14:20:12</time>
      </trkpt>
      <trkpt lat="42.40344" lon="2.90048">
        <ele>181.8</ele>
        <time>2022-05-21 14:20:13</time>
      </trkpt>
      <trkpt lat="42.40337" lon="2.90043">
        <ele>181.6</ele>
        <time>2022-05-21 14:20:14</time>
      </trkpt>
      <trkpt lat="42.4033" lon="2.90038">
        <ele>181.6</ele>
        <time>2022-05-21 14:20:15</time>
      </trkpt>
      <trkpt lat="42.40323" lon="2.90033">
        <ele>181.4</ele>
        <time>2022-05-21 14:20:16</time>
      </trkpt>
      <trkpt lat="42.40316" lon="2.90029">
        <ele>181.4</ele>
        <time>2022-05-21 14:20:17</time>
      </trkpt>
      <trkpt lat="42.4031" lon="2.90024">
        <ele>181.4</ele>
        <time>2022-05-21 14:20:18</time>
      </trkpt>
      <trkpt lat="42.40304" lon="2.90019">
        <ele>181.4</ele>
        <time>2022-05-21 14:20:19</time>
      </trkpt>
      <trkpt lat="42.40298" lon="2.90013">
        <ele>181.4</ele>
        <time>2022-05-21 14:20:20</time>
      </trkpt>
      <trkpt lat="42.40291" lon="2.90008">
        <ele>181.2</ele>
        <time>2022-05-21 14:20:21</time>
      </trkpt>
      <trkpt lat="42.40285" lon="2.90003">
        <ele>181.4</ele>
        <time>2022-05-21 14:20:22</time>
      </trkpt>
      <trkpt lat="42.40279" lon="2.89998">
        <ele>181.4</ele>
        <time>2022-05-21 14:20:23</time>
      </trkpt>
      <trkpt lat="42.40273" lon="2.89993">
        <ele>181.4</ele>
        <time>2022-05-21 14:20:24</time>
      </trkpt>
      <trkpt lat="42.40266" lon="2.89988">
        <ele>181.4</ele>
        <time>2022-05-21 14:20:25</time>
      </trkpt>
      <trkpt lat="42.4026" lon="2.89983">
        <ele>181.4</ele>
        <time>2022-05-21 14:20:26</time>
      </trkpt>
      <trkpt lat="42.40254" lon="2.89977">
        <ele>181.4</ele>
        <time>2022-05-21 14:20:27</time>
      </trkpt>
      <trkpt lat="42.40249" lon="2.89972">
        <ele>181.4</ele>
        <time>2022-05-21 14:20:28</time>
      </trkpt>
      <trkpt lat="42.40243" lon="2.89967">
        <ele>181.2</ele>
        <time>2022-05-21 14:20:29</time>
      </trkpt>
      <trkpt lat="42.40237" lon="2.89961">
        <ele>181.2</ele>
        <time>2022-05-21 14:20:30</time>
      </trkpt>
      <trkpt lat="42.40231" lon="2.89956">
        <ele>181</ele>
        <time>2022-05-21 14:20:31</time>
      </trkpt>
      <trkpt lat="42.40226" lon="2.89951">
        <ele>181</ele>
        <time>2022-05-21 14:20:32</time>
      </trkpt>
      <trkpt lat="42.4022" lon="2.89945">
        <ele>180.8</ele>
        <time>2022-05-21 14:20:33</time>
      </trkpt>
      <trkpt lat="42.40214" lon="2.8994">
        <ele>180.8</ele>
        <time>2022-05-21 14:20:34</time>
      </trkpt>
      <trkpt lat="42.40208" lon="2.89935">
        <ele>180.8</ele>
        <time>2022-05-21 14:20:35</time>
      </trkpt>
      <trkpt lat="42.40202" lon="2.8993">
        <ele>180.6</ele>
        <time>2022-05-21 14:20:36</time>
      </trkpt>
      <trkpt lat="42.40196" lon="2.89925">
        <ele>180.4</ele>
        <time>2022-05-21 14:20:37</time>
      </trkpt>
      <trkpt lat="42.4019" lon="2.8992">
        <ele>180.4</ele>
        <time>2022-05-21 14:20:38</time>
      </trkpt>
      <trkpt lat="42.40184" lon="2.89916">
        <ele>180.2</ele>
        <time>2022-05-21 14:20:39</time>
      </trkpt>
      <trkpt lat="42.40179" lon="2.89911">
        <ele>180.2</ele>
        <time>2022-05-21 14:20:40</time>
      </trkpt>
      <trkpt lat="42.40174" lon="2.89906">
        <ele>180.2</ele>
        <time>2022-05-21 14:20:41</time>
      </trkpt>
      <trkpt lat="42.40169" lon="2.89902">
        <ele>180.2</ele>
        <time>2022-05-21 14:20:42</time>
      </trkpt>
      <trkpt lat="42.40164" lon="2.89897">
        <ele>180</ele>
        <time>2022-05-21 14:20:43</time>
      </trkpt>
      <trkpt lat="42.40158" lon="2.89893">
        <ele>180</ele>
        <time>2022-05-21 14:20:44</time>
      </trkpt>
      <trkpt lat="42.40153" lon="2.89889">
        <ele>180</ele>
        <time>2022-05-21 14:20:45</time>
      </trkpt>
      <trkpt lat="42.40148" lon="2.89884">
        <ele>179.8</ele>
        <time>2022-05-21 14:20:46</time>
      </trkpt>
      <trkpt lat="42.40143" lon="2.89879">
        <ele>180</ele>
        <time>2022-05-21 14:20:47</time>
      </trkpt>
      <trkpt lat="42.40138" lon="2.89875">
        <ele>180</ele>
        <time>2022-05-21 14:20:48</time>
      </trkpt>
      <trkpt lat="42.40133" lon="2.8987">
        <ele>180</ele>
        <time>2022-05-21 14:20:49</time>
      </trkpt>
      <trkpt lat="42.40128" lon="2.89865">
        <ele>180</ele>
        <time>2022-05-21 14:20:50</time>
      </trkpt>
      <trkpt lat="42.40123" lon="2.8986">
        <ele>180</ele>
        <time>2022-05-21 14:20:51</time>
      </trkpt>
      <trkpt lat="42.40117" lon="2.89856">
        <ele>180</ele>
        <time>2022-05-21 14:20:52</time>
      </trkpt>
      <trkpt lat="42.40112" lon="2.89851">
        <ele>180</ele>
        <time>2022-05-21 14:20:53</time>
      </trkpt>
      <trkpt lat="42.40107" lon="2.89847">
        <ele>180</ele>
        <time>2022-05-21 14:20:54</time>
      </trkpt>
      <trkpt lat="42.40102" lon="2.89842">
        <ele>180</ele>
        <time>2022-05-21 14:20:55</time>
      </trkpt>
      <trkpt lat="42.40097" lon="2.89838">
        <ele>179.8</ele>
        <time>2022-05-21 14:20:56</time>
      </trkpt>
      <trkpt lat="42.40092" lon="2.89833">
        <ele>179.8</ele>
        <time>2022-05-21 14:20:57</time>
      </trkpt>
      <trkpt lat="42.40086" lon="2.89829">
        <ele>179.8</ele>
        <time>2022-05-21 14:20:58</time>
      </trkpt>
      <trkpt lat="42.40081" lon="2.89824">
        <ele>179.8</ele>
        <time>2022-05-21 14:20:59</time>
      </trkpt>
      <trkpt lat="42.40075" lon="2.8982">
        <ele>179.8</ele>
        <time>2022-05-21 14:21:00</time>
      </trkpt>
      <trkpt lat="42.4007" lon="2.89815">
        <ele>179.8</ele>
        <time>2022-05-21 14:21:01</time>
      </trkpt>
      <trkpt lat="42.40065" lon="2.89811">
        <ele>180</ele>
        <time>2022-05-21 14:21:02</time>
      </trkpt>
      <trkpt lat="42.40059" lon="2.89807">
        <ele>179.8</ele>
        <time>2022-05-21 14:21:03</time>
      </trkpt>
      <trkpt lat="42.40055" lon="2.89803">
        <ele>179.8</ele>
        <time>2022-05-21 14:21:04</time>
      </trkpt>
      <trkpt lat="42.4005" lon="2.89799">
        <ele>180</ele>
        <time>2022-05-21 14:21:05</time>
      </trkpt>
      <trkpt lat="42.40044" lon="2.89794">
        <ele>179.8</ele>
        <time>2022-05-21 14:21:06</time>
      </trkpt>
      <trkpt lat="42.40039" lon="2.89789">
        <ele>179.8</ele>
        <time>2022-05-21 14:21:07</time>
      </trkpt>
      <trkpt lat="42.40033" lon="2.89785">
        <ele>179.8</ele>
        <time>2022-05-21 14:21:08</time>
      </trkpt>
      <trkpt lat="42.40028" lon="2.8978">
        <ele>179.8</ele>
        <time>2022-05-21 14:21:09</time>
      </trkpt>
      <trkpt lat="42.40022" lon="2.89775">
        <ele>179.6</ele>
        <time>2022-05-21 14:21:10</time>
      </trkpt>
      <trkpt lat="42.40018" lon="2.8977">
        <ele>179.6</ele>
        <time>2022-05-21 14:21:11</time>
      </trkpt>
      <trkpt lat="42.40013" lon="2.89763">
        <ele>179.4</ele>
        <time>2022-05-21 14:21:12</time>
      </trkpt>
      <trkpt lat="42.40009" lon="2.89756">
        <ele>179.4</ele>
        <time>2022-05-21 14:21:13</time>
      </trkpt>
      <trkpt lat="42.40006" lon="2.89748">
        <ele>179.2</ele>
        <time>2022-05-21 14:21:14</time>
      </trkpt>
      <trkpt lat="42.40004" lon="2.8974">
        <ele>179.2</ele>
        <time>2022-05-21 14:21:15</time>
      </trkpt>
      <trkpt lat="42.40002" lon="2.89732">
        <ele>179.2</ele>
        <time>2022-05-21 14:21:16</time>
      </trkpt>
      <trkpt lat="42.4" lon="2.89723">
        <ele>179.2</ele>
        <time>2022-05-21 14:21:17</time>
      </trkpt>
      <trkpt lat="42.39999" lon="2.89714">
        <ele>179.2</ele>
        <time>2022-05-21 14:21:18</time>
      </trkpt>
      <trkpt lat="42.39997" lon="2.89705">
        <ele>179.4</ele>
        <time>2022-05-21 14:21:19</time>
      </trkpt>
      <trkpt lat="42.39995" lon="2.89697">
        <ele>179.4</ele>
        <time>2022-05-21 14:21:20</time>
      </trkpt>
      <trkpt lat="42.39994" lon="2.89688">
        <ele>179.4</ele>
        <time>2022-05-21 14:21:21</time>
      </trkpt>
      <trkpt lat="42.39992" lon="2.89679">
        <ele>179.4</ele>
        <time>2022-05-21 14:21:22</time>
      </trkpt>
      <trkpt lat="42.3999" lon="2.89671">
        <ele>179.2</ele>
        <time>2022-05-21 14:21:23</time>
      </trkpt>
      <trkpt lat="42.39989" lon="2.89662">
        <ele>179.2</ele>
        <time>2022-05-21 14:21:24</time>
      </trkpt>
      <trkpt lat="42.39987" lon="2.89654">
        <ele>179.2</ele>
        <time>2022-05-21 14:21:25</time>
      </trkpt>
      <trkpt lat="42.39986" lon="2.89646">
        <ele>179.2</ele>
        <time>2022-05-21 14:21:26</time>
      </trkpt>
      <trkpt lat="42.39984" lon="2.89638">
        <ele>179</ele>
        <time>2022-05-21 14:21:27</time>
      </trkpt>
      <trkpt lat="42.39982" lon="2.8963">
        <ele>179</ele>
        <time>2022-05-21 14:21:28</time>
      </trkpt>
      <trkpt lat="42.39981" lon="2.89621">
        <ele>179</ele>
        <time>2022-05-21 14:21:29</time>
      </trkpt>
      <trkpt lat="42.39979" lon="2.89612">
        <ele>178.8</ele>
        <time>2022-05-21 14:21:30</time>
      </trkpt>
      <trkpt lat="42.39978" lon="2.89602">
        <ele>178.8</ele>
        <time>2022-05-21 14:21:31</time>
      </trkpt>
      <trkpt lat="42.39976" lon="2.89594">
        <ele>178.6</ele>
        <time>2022-05-21 14:21:32</time>
      </trkpt>
      <trkpt lat="42.39975" lon="2.89585">
        <ele>178.6</ele>
        <time>2022-05-21 14:21:33</time>
      </trkpt>
      <trkpt lat="42.39973" lon="2.89576">
        <ele>178.4</ele>
        <time>2022-05-21 14:21:34</time>
      </trkpt>
      <trkpt lat="42.39971" lon="2.89566">
        <ele>178.2</ele>
        <time>2022-05-21 14:21:35</time>
      </trkpt>
      <trkpt lat="42.39969" lon="2.89557">
        <ele>178</ele>
        <time>2022-05-21 14:21:36</time>
      </trkpt>
      <trkpt lat="42.39967" lon="2.89547">
        <ele>177.8</ele>
        <time>2022-05-21 14:21:37</time>
      </trkpt>
      <trkpt lat="42.39965" lon="2.89537">
        <ele>177.8</ele>
        <time>2022-05-21 14:21:38</time>
      </trkpt>
      <trkpt lat="42.39962" lon="2.89528">
        <ele>177.6</ele>
        <time>2022-05-21 14:21:39</time>
      </trkpt>
      <trkpt lat="42.3996" lon="2.89519">
        <ele>177.4</ele>
        <time>2022-05-21 14:21:40</time>
      </trkpt>
      <trkpt lat="42.39956" lon="2.89509">
        <ele>177.2</ele>
        <time>2022-05-21 14:21:41</time>
      </trkpt>
      <trkpt lat="42.39951" lon="2.89501">
        <ele>177</ele>
        <time>2022-05-21 14:21:42</time>
      </trkpt>
      <trkpt lat="42.39946" lon="2.89492">
        <ele>176.8</ele>
        <time>2022-05-21 14:21:43</time>
      </trkpt>
      <trkpt lat="42.39942" lon="2.89483">
        <ele>176.6</ele>
        <time>2022-05-21 14:21:44</time>
      </trkpt>
      <trkpt lat="42.39939" lon="2.89473">
        <ele>176.2</ele>
        <time>2022-05-21 14:21:45</time>
      </trkpt>
      <trkpt lat="42.39937" lon="2.89461">
        <ele>175.8</ele>
        <time>2022-05-21 14:21:46</time>
      </trkpt>
      <trkpt lat="42.39938" lon="2.8945">
        <ele>175.4</ele>
        <time>2022-05-21 14:21:47</time>
      </trkpt>
      <trkpt lat="42.39939" lon="2.89439">
        <ele>175.2</ele>
        <time>2022-05-21 14:21:48</time>
      </trkpt>
      <trkpt lat="42.39942" lon="2.89427">
        <ele>174.8</ele>
        <time>2022-05-21 14:21:49</time>
      </trkpt>
      <trkpt lat="42.39946" lon="2.89416">
        <ele>174.4</ele>
        <time>2022-05-21 14:21:50</time>
      </trkpt>
      <trkpt lat="42.3995" lon="2.89405">
        <ele>174</ele>
        <time>2022-05-21 14:21:51</time>
      </trkpt>
      <trkpt lat="42.39954" lon="2.89393">
        <ele>173.6</ele>
        <time>2022-05-21 14:21:52</time>
      </trkpt>
      <trkpt lat="42.39958" lon="2.8938">
        <ele>173</ele>
        <time>2022-05-21 14:21:53</time>
      </trkpt>
      <trkpt lat="42.39961" lon="2.89367">
        <ele>172.6</ele>
        <time>2022-05-21 14:21:54</time>
      </trkpt>
      <trkpt lat="42.39964" lon="2.89354">
        <ele>172.2</ele>
        <time>2022-05-21 14:21:55</time>
      </trkpt>
      <trkpt lat="42.39968" lon="2.89341">
        <ele>171.8</ele>
        <time>2022-05-21 14:21:56</time>
      </trkpt>
      <trkpt lat="42.39974" lon="2.8933">
        <ele>171.4</ele>
        <time>2022-05-21 14:21:57</time>
      </trkpt>
      <trkpt lat="42.39981" lon="2.89323">
        <ele>170.8</ele>
        <time>2022-05-21 14:21:58</time>
      </trkpt>
      <trkpt lat="42.39991" lon="2.89319">
        <ele>170.2</ele>
        <time>2022-05-21 14:21:59</time>
      </trkpt>
      <trkpt lat="42.40002" lon="2.89319">
        <ele>169.6</ele>
        <time>2022-05-21 14:22:00</time>
      </trkpt>
      <trkpt lat="42.40013" lon="2.89319">
        <ele>169.2</ele>
        <time>2022-05-21 14:22:01</time>
      </trkpt>
      <trkpt lat="42.40024" lon="2.89318">
        <ele>168.8</ele>
        <time>2022-05-21 14:22:02</time>
      </trkpt>
      <trkpt lat="42.40033" lon="2.89316">
        <ele>168.4</ele>
        <time>2022-05-21 14:22:03</time>
      </trkpt>
      <trkpt lat="42.4004" lon="2.8931">
        <ele>168</ele>
        <time>2022-05-21 14:22:04</time>
      </trkpt>
      <trkpt lat="42.40044" lon="2.893">
        <ele>167.4</ele>
        <time>2022-05-21 14:22:05</time>
      </trkpt>
      <trkpt lat="42.40044" lon="2.89289">
        <ele>167</ele>
        <time>2022-05-21 14:22:06</time>
      </trkpt>
      <trkpt lat="42.4004" lon="2.89279">
        <ele>166.4</ele>
        <time>2022-05-21 14:22:07</time>
      </trkpt>
      <trkpt lat="42.40034" lon="2.8927">
        <ele>165.8</ele>
        <time>2022-05-21 14:22:08</time>
      </trkpt>
      <trkpt lat="42.40027" lon="2.89262">
        <ele>165.2</ele>
        <time>2022-05-21 14:22:09</time>
      </trkpt>
      <trkpt lat="42.4002" lon="2.89253">
        <ele>164.8</ele>
        <time>2022-05-21 14:22:10</time>
      </trkpt>
      <trkpt lat="42.40015" lon="2.89243">
        <ele>164.2</ele>
        <time>2022-05-21 14:22:11</time>
      </trkpt>
      <trkpt lat="42.40013" lon="2.89231">
        <ele>163.8</ele>
        <time>2022-05-21 14:22:12</time>
      </trkpt>
      <trkpt lat="42.40015" lon="2.89219">
        <ele>163.4</ele>
        <time>2022-05-21 14:22:13</time>
      </trkpt>
      <trkpt lat="42.40019" lon="2.89206">
        <ele>163</ele>
        <time>2022-05-21 14:22:14</time>
      </trkpt>
      <trkpt lat="42.40025" lon="2.89195">
        <ele>162.6</ele>
        <time>2022-05-21 14:22:15</time>
      </trkpt>
      <trkpt lat="42.4003" lon="2.89184">
        <ele>162.2</ele>
        <time>2022-05-21 14:22:16</time>
      </trkpt>
      <trkpt lat="42.40033" lon="2.89172">
        <ele>161.8</ele>
        <time>2022-05-21 14:22:17</time>
      </trkpt>
      <trkpt lat="42.40031" lon="2.8916">
        <ele>161.4</ele>
        <time>2022-05-21 14:22:18</time>
      </trkpt>
      <trkpt lat="42.40025" lon="2.89149">
        <ele>160.8</ele>
        <time>2022-05-21 14:22:19</time>
      </trkpt>
      <trkpt lat="42.40017" lon="2.8914">
        <ele>160.2</ele>
        <time>2022-05-21 14:22:20</time>
      </trkpt>
      <trkpt lat="42.40007" lon="2.89132">
        <ele>159.6</ele>
        <time>2022-05-21 14:22:21</time>
      </trkpt>
      <trkpt lat="42.40001" lon="2.89121">
        <ele>159.2</ele>
        <time>2022-05-21 14:22:22</time>
      </trkpt>
      <trkpt lat="42.39997" lon="2.89107">
        <ele>158.6</ele>
        <time>2022-05-21 14:22:23</time>
      </trkpt>
      <trkpt lat="42.39996" lon="2.89093">
        <ele>158.2</ele>
        <time>2022-05-21 14:22:24</time>
      </trkpt>
      <trkpt lat="42.39995" lon="2.89078">
        <ele>157.6</ele>
        <time>2022-05-21 14:22:25</time>
      </trkpt>
      <trkpt lat="42.39995" lon="2.89063">
        <ele>157.2</ele>
        <time>2022-05-21 14:22:26</time>
      </trkpt>
      <trkpt lat="42.39995" lon="2.89049">
        <ele>156.8</ele>
        <time>2022-05-21 14:22:27</time>
      </trkpt>
      <trkpt lat="42.39998" lon="2.89034">
        <ele>156.2</ele>
        <time>2022-05-21 14:22:28</time>
      </trkpt>
      <trkpt lat="42.40003" lon="2.89022">
        <ele>155.8</ele>
        <time>2022-05-21 14:22:29</time>
      </trkpt>
      <trkpt lat="42.40008" lon="2.8901">
        <ele>155.2</ele>
        <time>2022-05-21 14:22:30</time>
      </trkpt>
      <trkpt lat="42.40015" lon="2.88998">
        <ele>154.6</ele>
        <time>2022-05-21 14:22:31</time>
      </trkpt>
      <trkpt lat="42.40021" lon="2.88985">
        <ele>154.2</ele>
        <time>2022-05-21 14:22:32</time>
      </trkpt>
      <trkpt lat="42.40025" lon="2.88973">
        <ele>153.6</ele>
        <time>2022-05-21 14:22:33</time>
      </trkpt>
      <trkpt lat="42.40027" lon="2.88959">
        <ele>153.2</ele>
        <time>2022-05-21 14:22:34</time>
      </trkpt>
      <trkpt lat="42.40027" lon="2.88945">
        <ele>152.8</ele>
        <time>2022-05-21 14:22:35</time>
      </trkpt>
      <trkpt lat="42.40026" lon="2.8893">
        <ele>152.4</ele>
        <time>2022-05-21 14:22:36</time>
      </trkpt>
      <trkpt lat="42.40027" lon="2.88916">
        <ele>152</ele>
        <time>2022-05-21 14:22:37</time>
      </trkpt>
      <trkpt lat="42.40031" lon="2.88907">
        <ele>151.6</ele>
        <time>2022-05-21 14:22:38</time>
      </trkpt>
      <trkpt lat="42.40038" lon="2.88902">
        <ele>151.2</ele>
        <time>2022-05-21 14:22:39</time>
      </trkpt>
      <trkpt lat="42.40046" lon="2.88896">
        <ele>150.8</ele>
        <time>2022-05-21 14:22:40</time>
      </trkpt>
      <trkpt lat="42.40051" lon="2.88888">
        <ele>150.4</ele>
        <time>2022-05-21 14:22:41</time>
      </trkpt>
      <trkpt lat="42.40055" lon="2.88878">
        <ele>149.8</ele>
        <time>2022-05-21 14:22:42</time>
      </trkpt>
      <trkpt lat="42.40055" lon="2.88865">
        <ele>149.4</ele>
        <time>2022-05-21 14:22:43</time>
      </trkpt>
      <trkpt lat="42.40053" lon="2.88852">
        <ele>149</ele>
        <time>2022-05-21 14:22:44</time>
      </trkpt>
      <trkpt lat="42.4005" lon="2.8884">
        <ele>148.4</ele>
        <time>2022-05-21 14:22:45</time>
      </trkpt>
      <trkpt lat="42.40047" lon="2.88827">
        <ele>148</ele>
        <time>2022-05-21 14:22:46</time>
      </trkpt>
      <trkpt lat="42.40048" lon="2.88814">
        <ele>147.4</ele>
        <time>2022-05-21 14:22:47</time>
      </trkpt>
      <trkpt lat="42.40052" lon="2.88799">
        <ele>146.8</ele>
        <time>2022-05-21 14:22:48</time>
      </trkpt>
      <trkpt lat="42.40058" lon="2.88787">
        <ele>146.2</ele>
        <time>2022-05-21 14:22:49</time>
      </trkpt>
      <trkpt lat="42.40066" lon="2.88777">
        <ele>145.6</ele>
        <time>2022-05-21 14:22:50</time>
      </trkpt>
      <trkpt lat="42.40074" lon="2.88768">
        <ele>145</ele>
        <time>2022-05-21 14:22:51</time>
      </trkpt>
      <trkpt lat="42.40083" lon="2.8876">
        <ele>144.4</ele>
        <time>2022-05-21 14:22:52</time>
      </trkpt>
      <trkpt lat="42.40092" lon="2.88754">
        <ele>143.8</ele>
        <time>2022-05-21 14:22:53</time>
      </trkpt>
      <trkpt lat="42.40102" lon="2.88747">
        <ele>143.2</ele>
        <time>2022-05-21 14:22:54</time>
      </trkpt>
      <trkpt lat="42.40111" lon="2.8874">
        <ele>142.8</ele>
        <time>2022-05-21 14:22:55</time>
      </trkpt>
      <trkpt lat="42.4012" lon="2.88732">
        <ele>142.4</ele>
        <time>2022-05-21 14:22:56</time>
      </trkpt>
      <trkpt lat="42.40128" lon="2.88724">
        <ele>142</ele>
        <time>2022-05-21 14:22:57</time>
      </trkpt>
      <trkpt lat="42.40138" lon="2.88717">
        <ele>141.4</ele>
        <time>2022-05-21 14:22:58</time>
      </trkpt>
      <trkpt lat="42.40148" lon="2.88713">
        <ele>141</ele>
        <time>2022-05-21 14:22:59</time>
      </trkpt>
      <trkpt lat="42.40158" lon="2.8871">
        <ele>140.6</ele>
        <time>2022-05-21 14:23:00</time>
      </trkpt>
      <trkpt lat="42.4017" lon="2.88707">
        <ele>140</ele>
        <time>2022-05-21 14:23:01</time>
      </trkpt>
      <trkpt lat="42.4018" lon="2.88701">
        <ele>139.4</ele>
        <time>2022-05-21 14:23:02</time>
      </trkpt>
      <trkpt lat="42.40189" lon="2.88691">
        <ele>138.8</ele>
        <time>2022-05-21 14:23:03</time>
      </trkpt>
      <trkpt lat="42.40196" lon="2.8868">
        <ele>138.4</ele>
        <time>2022-05-21 14:23:04</time>
      </trkpt>
      <trkpt lat="42.40204" lon="2.88671">
        <ele>137.8</ele>
        <time>2022-05-21 14:23:05</time>
      </trkpt>
      <trkpt lat="42.40214" lon="2.88665">
        <ele>137.2</ele>
        <time>2022-05-21 14:23:06</time>
      </trkpt>
      <trkpt lat="42.40224" lon="2.8866">
        <ele>136.8</ele>
        <time>2022-05-21 14:23:07</time>
      </trkpt>
      <trkpt lat="42.40234" lon="2.88655">
        <ele>136.2</ele>
        <time>2022-05-21 14:23:08</time>
      </trkpt>
      <trkpt lat="42.40242" lon="2.88646">
        <ele>135.6</ele>
        <time>2022-05-21 14:23:09</time>
      </trkpt>
      <trkpt lat="42.40246" lon="2.88633">
        <ele>135.2</ele>
        <time>2022-05-21 14:23:10</time>
      </trkpt>
      <trkpt lat="42.40249" lon="2.88621">
        <ele>134.8</ele>
        <time>2022-05-21 14:23:11</time>
      </trkpt>
      <trkpt lat="42.40254" lon="2.88608">
        <ele>134.4</ele>
        <time>2022-05-21 14:23:12</time>
      </trkpt>
      <trkpt lat="42.40261" lon="2.88596">
        <ele>134</ele>
        <time>2022-05-21 14:23:13</time>
      </trkpt>
      <trkpt lat="42.40269" lon="2.88585">
        <ele>133.4</ele>
        <time>2022-05-21 14:23:14</time>
      </trkpt>
      <trkpt lat="42.40276" lon="2.88573">
        <ele>133</ele>
        <time>2022-05-21 14:23:15</time>
      </trkpt>
      <trkpt lat="42.40283" lon="2.88563">
        <ele>132.4</ele>
        <time>2022-05-21 14:23:16</time>
      </trkpt>
      <trkpt lat="42.40291" lon="2.88553">
        <ele>132</ele>
        <time>2022-05-21 14:23:17</time>
      </trkpt>
      <trkpt lat="42.40298" lon="2.88542">
        <ele>131.6</ele>
        <time>2022-05-21 14:23:18</time>
      </trkpt>
      <trkpt lat="42.40306" lon="2.88533">
        <ele>131.2</ele>
        <time>2022-05-21 14:23:19</time>
      </trkpt>
      <trkpt lat="42.40313" lon="2.88523">
        <ele>130.8</ele>
        <time>2022-05-21 14:23:20</time>
      </trkpt>
      <trkpt lat="42.40321" lon="2.88514">
        <ele>130.4</ele>
        <time>2022-05-21 14:23:21</time>
      </trkpt>
      <trkpt lat="42.40329" lon="2.88505">
        <ele>130</ele>
        <time>2022-05-21 14:23:22</time>
      </trkpt>
      <trkpt lat="42.40337" lon="2.88496">
        <ele>129.4</ele>
        <time>2022-05-21 14:23:23</time>
      </trkpt>
      <trkpt lat="42.40344" lon="2.88486">
        <ele>129</ele>
        <time>2022-05-21 14:23:24</time>
      </trkpt>
      <trkpt lat="42.40351" lon="2.88475">
        <ele>128.4</ele>
        <time>2022-05-21 14:23:25</time>
      </trkpt>
      <trkpt lat="42.40358" lon="2.88465">
        <ele>128</ele>
        <time>2022-05-21 14:23:26</time>
      </trkpt>
      <trkpt lat="42.40366" lon="2.88455">
        <ele>127.6</ele>
        <time>2022-05-21 14:23:27</time>
      </trkpt>
      <trkpt lat="42.40375" lon="2.88445">
        <ele>127.2</ele>
        <time>2022-05-21 14:23:28</time>
      </trkpt>
      <trkpt lat="42.40383" lon="2.88435">
        <ele>126.6</ele>
        <time>2022-05-21 14:23:29</time>
      </trkpt>
      <trkpt lat="42.40391" lon="2.88426">
        <ele>126</ele>
        <time>2022-05-21 14:23:30</time>
      </trkpt>
      <trkpt lat="42.404" lon="2.8842">
        <ele>125.4</ele>
        <time>2022-05-21 14:23:31</time>
      </trkpt>
      <trkpt lat="42.40409" lon="2.88415">
        <ele>124.8</ele>
        <time>2022-05-21 14:23:32</time>
      </trkpt>
      <trkpt lat="42.40418" lon="2.88412">
        <ele>124.4</ele>
        <time>2022-05-21 14:23:33</time>
      </trkpt>
      <trkpt lat="42.40425" lon="2.88406">
        <ele>124</ele>
        <time>2022-05-21 14:23:34</time>
      </trkpt>
      <trkpt lat="42.40429" lon="2.88398">
        <ele>123.6</ele>
        <time>2022-05-21 14:23:35</time>
      </trkpt>
      <trkpt lat="42.40429" lon="2.88388">
        <ele>123.4</ele>
        <time>2022-05-21 14:23:36</time>
      </trkpt>
      <trkpt lat="42.40428" lon="2.88379">
        <ele>122.8</ele>
        <time>2022-05-21 14:23:37</time>
      </trkpt>
      <trkpt lat="42.40429" lon="2.88367">
        <ele>122.2</ele>
        <time>2022-05-21 14:23:38</time>
      </trkpt>
      <trkpt lat="42.40431" lon="2.88356">
        <ele>121.8</ele>
        <time>2022-05-21 14:23:39</time>
      </trkpt>
      <trkpt lat="42.40434" lon="2.88345">
        <ele>121.2</ele>
        <time>2022-05-21 14:23:40</time>
      </trkpt>
      <trkpt lat="42.40438" lon="2.88334">
        <ele>120.6</ele>
        <time>2022-05-21 14:23:41</time>
      </trkpt>
      <trkpt lat="42.40443" lon="2.88323">
        <ele>120.2</ele>
        <time>2022-05-21 14:23:42</time>
      </trkpt>
      <trkpt lat="42.40448" lon="2.88311">
        <ele>119.4</ele>
        <time>2022-05-21 14:23:43</time>
      </trkpt>
      <trkpt lat="42.40452" lon="2.883">
        <ele>118.8</ele>
        <time>2022-05-21 14:23:44</time>
      </trkpt>
      <trkpt lat="42.40457" lon="2.88288">
        <ele>118.4</ele>
        <time>2022-05-21 14:23:45</time>
      </trkpt>
      <trkpt lat="42.40462" lon="2.88276">
        <ele>117.8</ele>
        <time>2022-05-21 14:23:46</time>
      </trkpt>
      <trkpt lat="42.40467" lon="2.88264">
        <ele>117.2</ele>
        <time>2022-05-21 14:23:47</time>
      </trkpt>
      <trkpt lat="42.40471" lon="2.88251">
        <ele>116.6</ele>
        <time>2022-05-21 14:23:48</time>
      </trkpt>
      <trkpt lat="42.40476" lon="2.88239">
        <ele>116</ele>
        <time>2022-05-21 14:23:49</time>
      </trkpt>
      <trkpt lat="42.40482" lon="2.88226">
        <ele>115.2</ele>
        <time>2022-05-21 14:23:50</time>
      </trkpt>
      <trkpt lat="42.40487" lon="2.88211">
        <ele>114.6</ele>
        <time>2022-05-21 14:23:51</time>
      </trkpt>
      <trkpt lat="42.40492" lon="2.88197">
        <ele>114</ele>
        <time>2022-05-21 14:23:52</time>
      </trkpt>
      <trkpt lat="42.40496" lon="2.88184">
        <ele>113.6</ele>
        <time>2022-05-21 14:23:53</time>
      </trkpt>
      <trkpt lat="42.405" lon="2.88172">
        <ele>113.2</ele>
        <time>2022-05-21 14:23:54</time>
      </trkpt>
      <trkpt lat="42.40503" lon="2.88162">
        <ele>112.8</ele>
        <time>2022-05-21 14:23:55</time>
      </trkpt>
      <trkpt lat="42.40504" lon="2.88153">
        <ele>112.6</ele>
        <time>2022-05-21 14:23:56</time>
      </trkpt>
      <trkpt lat="42.40505" lon="2.88146">
        <ele>112.4</ele>
        <time>2022-05-21 14:23:57</time>
      </trkpt>
      <trkpt lat="42.40506" lon="2.8814">
        <ele>112.4</ele>
        <time>2022-05-21 14:23:58</time>
      </trkpt>
      <trkpt lat="42.40508" lon="2.88134">
        <ele>112.2</ele>
        <time>2022-05-21 14:23:59</time>
      </trkpt>
      <trkpt lat="42.40509" lon="2.8813">
        <ele>112.2</ele>
        <time>2022-05-21 14:24:00</time>
      </trkpt>
      <trkpt lat="42.40511" lon="2.88126">
        <ele>112.2</ele>
        <time>2022-05-21 14:24:01</time>
      </trkpt>
      <trkpt lat="42.40511" lon="2.88122">
        <ele>112.2</ele>
        <time>2022-05-21 14:24:02</time>
      </trkpt>
      <trkpt lat="42.40511" lon="2.88118">
        <ele>112.2</ele>
        <time>2022-05-21 14:24:03</time>
      </trkpt>
      <trkpt lat="42.4051" lon="2.88114">
        <ele>112</ele>
        <time>2022-05-21 14:24:04</time>
      </trkpt>
      <trkpt lat="42.40508" lon="2.88109">
        <ele>112</ele>
        <time>2022-05-21 14:24:05</time>
      </trkpt>
      <trkpt lat="42.40505" lon="2.88104">
        <ele>111.6</ele>
        <time>2022-05-21 14:24:06</time>
      </trkpt>
      <trkpt lat="42.40501" lon="2.881">
        <ele>111.4</ele>
        <time>2022-05-21 14:24:07</time>
      </trkpt>
      <trkpt lat="42.40497" lon="2.88096">
        <ele>111.2</ele>
        <time>2022-05-21 14:24:08</time>
      </trkpt>
      <trkpt lat="42.40492" lon="2.88091">
        <ele>111</ele>
        <time>2022-05-21 14:24:09</time>
      </trkpt>
      <trkpt lat="42.40488" lon="2.88085">
        <ele>110.6</ele>
        <time>2022-05-21 14:24:10</time>
      </trkpt>
      <trkpt lat="42.40484" lon="2.88079">
        <ele>110.4</ele>
        <time>2022-05-21 14:24:11</time>
      </trkpt>
      <trkpt lat="42.40482" lon="2.88073">
        <ele>110.4</ele>
        <time>2022-05-21 14:24:12</time>
      </trkpt>
      <trkpt lat="42.4048" lon="2.88067">
        <ele>110.2</ele>
        <time>2022-05-21 14:24:13</time>
      </trkpt>
      <trkpt lat="42.40479" lon="2.8806">
        <ele>109.8</ele>
        <time>2022-05-21 14:24:14</time>
      </trkpt>
      <trkpt lat="42.40477" lon="2.88053">
        <ele>109.6</ele>
        <time>2022-05-21 14:24:15</time>
      </trkpt>
      <trkpt lat="42.40476" lon="2.88046">
        <ele>109.4</ele>
        <time>2022-05-21 14:24:16</time>
      </trkpt>
      <trkpt lat="42.40474" lon="2.88039">
        <ele>109.2</ele>
        <time>2022-05-21 14:24:17</time>
      </trkpt>
      <trkpt lat="42.40472" lon="2.88032">
        <ele>108.8</ele>
        <time>2022-05-21 14:24:18</time>
      </trkpt>
      <trkpt lat="42.40471" lon="2.88025">
        <ele>108.6</ele>
        <time>2022-05-21 14:24:19</time>
      </trkpt>
      <trkpt lat="42.40469" lon="2.88018">
        <ele>108.2</ele>
        <time>2022-05-21 14:24:20</time>
      </trkpt>
      <trkpt lat="42.40467" lon="2.8801">
        <ele>108</ele>
        <time>2022-05-21 14:24:21</time>
      </trkpt>
      <trkpt lat="42.40466" lon="2.88002">
        <ele>107.6</ele>
        <time>2022-05-21 14:24:22</time>
      </trkpt>
      <trkpt lat="42.40464" lon="2.87994">
        <ele>107.4</ele>
        <time>2022-05-21 14:24:23</time>
      </trkpt>
      <trkpt lat="42.40462" lon="2.87987">
        <ele>107.2</ele>
        <time>2022-05-21 14:24:24</time>
      </trkpt>
      <trkpt lat="42.40461" lon="2.87979">
        <ele>107</ele>
        <time>2022-05-21 14:24:25</time>
      </trkpt>
      <trkpt lat="42.40459" lon="2.87972">
        <ele>106.8</ele>
        <time>2022-05-21 14:24:26</time>
      </trkpt>
      <trkpt lat="42.40458" lon="2.87965">
        <ele>106.6</ele>
        <time>2022-05-21 14:24:27</time>
      </trkpt>
      <trkpt lat="42.40457" lon="2.8796">
        <ele>106.6</ele>
        <time>2022-05-21 14:24:28</time>
      </trkpt>
      <trkpt lat="42.40457" lon="2.87955">
        <ele>106.4</ele>
        <time>2022-05-21 14:24:29</time>
      </trkpt>
      <trkpt lat="42.40457" lon="2.8795">
        <ele>106.2</ele>
        <time>2022-05-21 14:24:30</time>
      </trkpt>
      <trkpt lat="42.40457" lon="2.87946">
        <ele>106.2</ele>
        <time>2022-05-21 14:24:31</time>
      </trkpt>
      <trkpt lat="42.40456" lon="2.87942">
        <ele>106</ele>
        <time>2022-05-21 14:24:32</time>
      </trkpt>
      <trkpt lat="42.40456" lon="2.87938">
        <ele>105.8</ele>
        <time>2022-05-21 14:24:33</time>
      </trkpt>
      <trkpt lat="42.40455" lon="2.87935">
        <ele>105.8</ele>
        <time>2022-05-21 14:24:34</time>
      </trkpt>
      <trkpt lat="42.40455" lon="2.87932">
        <ele>105.6</ele>
        <time>2022-05-21 14:24:35</time>
      </trkpt>
      <trkpt lat="42.40455" lon="2.8793">
        <ele>105.6</ele>
        <time>2022-05-21 14:24:36</time>
      </trkpt>
      <trkpt lat="42.40455" lon="2.87928">
        <ele>105.6</ele>
        <time>2022-05-21 14:24:37</time>
      </trkpt>
      <trkpt lat="42.40456" lon="2.87926">
        <ele>105.4</ele>
        <time>2022-05-21 14:24:38</time>
      </trkpt>
      <trkpt lat="42.40456" lon="2.87924">
        <ele>105.4</ele>
        <time>2022-05-21 14:24:39</time>
      </trkpt>
      <trkpt lat="42.40457" lon="2.8792">
        <ele>105.4</ele>
        <time>2022-05-21 14:24:40</time>
      </trkpt>
      <trkpt lat="42.40458" lon="2.87917">
        <ele>105.2</ele>
        <time>2022-05-21 14:24:41</time>
      </trkpt>
      <trkpt lat="42.40459" lon="2.87913">
        <ele>105.2</ele>
        <time>2022-05-21 14:24:42</time>
      </trkpt>
      <trkpt lat="42.40461" lon="2.87908">
        <ele>105.2</ele>
        <time>2022-05-21 14:24:43</time>
      </trkpt>
      <trkpt lat="42.40463" lon="2.87903">
        <ele>105</ele>
        <time>2022-05-21 14:24:44</time>
      </trkpt>
      <trkpt lat="42.40464" lon="2.87898">
        <ele>105</ele>
        <time>2022-05-21 14:24:45</time>
      </trkpt>
      <trkpt lat="42.40466" lon="2.87892">
        <ele>104.8</ele>
        <time>2022-05-21 14:24:46</time>
      </trkpt>
      <trkpt lat="42.40466" lon="2.87885">
        <ele>104.8</ele>
        <time>2022-05-21 14:24:47</time>
      </trkpt>
      <trkpt lat="42.40466" lon="2.87879">
        <ele>104.6</ele>
        <time>2022-05-21 14:24:48</time>
      </trkpt>
      <trkpt lat="42.40465" lon="2.87872">
        <ele>104.6</ele>
        <time>2022-05-21 14:24:49</time>
      </trkpt>
      <trkpt lat="42.40463" lon="2.87866">
        <ele>104.4</ele>
        <time>2022-05-21 14:24:50</time>
      </trkpt>
      <trkpt lat="42.40461" lon="2.87861">
        <ele>104.2</ele>
        <time>2022-05-21 14:24:51</time>
      </trkpt>
      <trkpt lat="42.40458" lon="2.87857">
        <ele>104.2</ele>
        <time>2022-05-21 14:24:52</time>
      </trkpt>
      <trkpt lat="42.40451" lon="2.87851">
        <ele>104</ele>
        <time>2022-05-21 14:24:53</time>
      </trkpt>
      <trkpt lat="42.40447" lon="2.87848">
        <ele>103.8</ele>
        <time>2022-05-21 14:24:54</time>
      </trkpt>
      <trkpt lat="42.40442" lon="2.87847">
        <ele>103.6</ele>
        <time>2022-05-21 14:24:55</time>
      </trkpt>
      <trkpt lat="42.40437" lon="2.87846">
        <ele>103.4</ele>
        <time>2022-05-21 14:24:56</time>
      </trkpt>
      <trkpt lat="42.40433" lon="2.87845">
        <ele>103.2</ele>
        <time>2022-05-21 14:24:57</time>
      </trkpt>
      <trkpt lat="42.4043" lon="2.87842">
        <ele>103.2</ele>
        <time>2022-05-21 14:24:58</time>
      </trkpt>
      <trkpt lat="42.40429" lon="2.87839">
        <ele>103</ele>
        <time>2022-05-21 14:24:59</time>
      </trkpt>
      <trkpt lat="42.40429" lon="2.87835">
        <ele>103</ele>
        <time>2022-05-21 14:25:00</time>
      </trkpt>
      <trkpt lat="42.4043" lon="2.87832">
        <ele>103</ele>
        <time>2022-05-21 14:25:01</time>
      </trkpt>
      <trkpt lat="42.40429" lon="2.87828">
        <ele>102.8</ele>
        <time>2022-05-21 14:25:02</time>
      </trkpt>
      <trkpt lat="42.40428" lon="2.87823">
        <ele>102.8</ele>
        <time>2022-05-21 14:25:03</time>
      </trkpt>
      <trkpt lat="42.40426" lon="2.87818">
        <ele>102.6</ele>
        <time>2022-05-21 14:25:04</time>
      </trkpt>
      <trkpt lat="42.40424" lon="2.87812">
        <ele>102.4</ele>
        <time>2022-05-21 14:25:05</time>
      </trkpt>
      <trkpt lat="42.40422" lon="2.87806">
        <ele>102.2</ele>
        <time>2022-05-21 14:25:06</time>
      </trkpt>
      <trkpt lat="42.4042" lon="2.87799">
        <ele>102.2</ele>
        <time>2022-05-21 14:25:07</time>
      </trkpt>
      <trkpt lat="42.40418" lon="2.87793">
        <ele>102</ele>
        <time>2022-05-21 14:25:08</time>
      </trkpt>
      <trkpt lat="42.40416" lon="2.87786">
        <ele>101.8</ele>
        <time>2022-05-21 14:25:09</time>
      </trkpt>
      <trkpt lat="42.40414" lon="2.87778">
        <ele>101.6</ele>
        <time>2022-05-21 14:25:10</time>
      </trkpt>
      <trkpt lat="42.40412" lon="2.87771">
        <ele>101.6</ele>
        <time>2022-05-21 14:25:11</time>
      </trkpt>
      <trkpt lat="42.4041" lon="2.87763">
        <ele>101.6</ele>
        <time>2022-05-21 14:25:12</time>
      </trkpt>
      <trkpt lat="42.40408" lon="2.87756">
        <ele>101.4</ele>
        <time>2022-05-21 14:25:13</time>
      </trkpt>
      <trkpt lat="42.40406" lon="2.87748">
        <ele>101.4</ele>
        <time>2022-05-21 14:25:14</time>
      </trkpt>
      <trkpt lat="42.40404" lon="2.8774">
        <ele>101.4</ele>
        <time>2022-05-21 14:25:15</time>
      </trkpt>
      <trkpt lat="42.40403" lon="2.87732">
        <ele>101.4</ele>
        <time>2022-05-21 14:25:16</time>
      </trkpt>
      <trkpt lat="42.40401" lon="2.87724">
        <ele>101.2</ele>
        <time>2022-05-21 14:25:17</time>
      </trkpt>
      <trkpt lat="42.40399" lon="2.87716">
        <ele>101.2</ele>
        <time>2022-05-21 14:25:18</time>
      </trkpt>
      <trkpt lat="42.40397" lon="2.87708">
        <ele>101.2</ele>
        <time>2022-05-21 14:25:19</time>
      </trkpt>
      <trkpt lat="42.40395" lon="2.877">
        <ele>101.2</ele>
        <time>2022-05-21 14:25:20</time>
      </trkpt>
      <trkpt lat="42.40393" lon="2.87692">
        <ele>101.2</ele>
        <time>2022-05-21 14:25:21</time>
      </trkpt>
      <trkpt lat="42.40391" lon="2.87684">
        <ele>101.2</ele>
        <time>2022-05-21 14:25:22</time>
      </trkpt>
      <trkpt lat="42.4039" lon="2.87676">
        <ele>101.2</ele>
        <time>2022-05-21 14:25:23</time>
      </trkpt>
      <trkpt lat="42.40388" lon="2.87668">
        <ele>101.2</ele>
        <time>2022-05-21 14:25:24</time>
      </trkpt>
      <trkpt lat="42.40386" lon="2.8766">
        <ele>101.2</ele>
        <time>2022-05-21 14:25:25</time>
      </trkpt>
      <trkpt lat="42.40384" lon="2.87652">
        <ele>101.2</ele>
        <time>2022-05-21 14:25:26</time>
      </trkpt>
      <trkpt lat="42.40382" lon="2.87644">
        <ele>101.2</ele>
        <time>2022-05-21 14:25:27</time>
      </trkpt>
      <trkpt lat="42.4038" lon="2.87636">
        <ele>101.2</ele>
        <time>2022-05-21 14:25:28</time>
      </trkpt>
      <trkpt lat="42.40378" lon="2.8763">
        <ele>101.2</ele>
        <time>2022-05-21 14:25:29</time>
      </trkpt>
      <trkpt lat="42.40377" lon="2.87625">
        <ele>101.2</ele>
        <time>2022-05-21 14:25:30</time>
      </trkpt>
      <trkpt lat="42.40375" lon="2.87614">
        <ele>101.2</ele>
        <time>2022-05-21 14:25:31</time>
      </trkpt>
      <trkpt lat="42.40373" lon="2.87607">
        <ele>101.2</ele>
        <time>2022-05-21 14:25:32</time>
      </trkpt>
      <trkpt lat="42.40371" lon="2.87599">
        <ele>101.2</ele>
        <time>2022-05-21 14:25:33</time>
      </trkpt>
      <trkpt lat="42.4037" lon="2.87593">
        <ele>101.2</ele>
        <time>2022-05-21 14:25:34</time>
      </trkpt>
      <trkpt lat="42.40369" lon="2.87587">
        <ele>101.2</ele>
        <time>2022-05-21 14:25:35</time>
      </trkpt>
      <trkpt lat="42.40368" lon="2.87581">
        <ele>101.2</ele>
        <time>2022-05-21 14:25:36</time>
      </trkpt>
      <trkpt lat="42.40365" lon="2.8757">
        <ele>101.2</ele>
        <time>2022-05-21 14:25:37</time>
      </trkpt>
      <trkpt lat="42.40364" lon="2.87562">
        <ele>101</ele>
        <time>2022-05-21 14:25:38</time>
      </trkpt>
      <trkpt lat="42.40362" lon="2.87554">
        <ele>101</ele>
        <time>2022-05-21 14:25:39</time>
      </trkpt>
      <trkpt lat="42.4036" lon="2.87546">
        <ele>100.8</ele>
        <time>2022-05-21 14:25:40</time>
      </trkpt>
      <trkpt lat="42.40358" lon="2.87537">
        <ele>100.6</ele>
        <time>2022-05-21 14:25:41</time>
      </trkpt>
      <trkpt lat="42.40356" lon="2.87529">
        <ele>100.4</ele>
        <time>2022-05-21 14:25:42</time>
      </trkpt>
      <trkpt lat="42.40354" lon="2.8752">
        <ele>100.2</ele>
        <time>2022-05-21 14:25:43</time>
      </trkpt>
      <trkpt lat="42.40352" lon="2.87511">
        <ele>100</ele>
        <time>2022-05-21 14:25:44</time>
      </trkpt>
      <trkpt lat="42.4035" lon="2.87502">
        <ele>99.8</ele>
        <time>2022-05-21 14:25:45</time>
      </trkpt>
      <trkpt lat="42.40347" lon="2.87493">
        <ele>99.6</ele>
        <time>2022-05-21 14:25:46</time>
      </trkpt>
      <trkpt lat="42.40345" lon="2.87485">
        <ele>99.6</ele>
        <time>2022-05-21 14:25:47</time>
      </trkpt>
      <trkpt lat="42.40344" lon="2.87477">
        <ele>99.6</ele>
        <time>2022-05-21 14:25:48</time>
      </trkpt>
      <trkpt lat="42.40342" lon="2.87469">
        <ele>99.4</ele>
        <time>2022-05-21 14:25:49</time>
      </trkpt>
      <trkpt lat="42.40341" lon="2.87462">
        <ele>99.4</ele>
        <time>2022-05-21 14:25:50</time>
      </trkpt>
      <trkpt lat="42.40339" lon="2.87453">
        <ele>99.4</ele>
        <time>2022-05-21 14:25:51</time>
      </trkpt>
      <trkpt lat="42.40338" lon="2.87446">
        <ele>99.6</ele>
        <time>2022-05-21 14:25:52</time>
      </trkpt>
      <trkpt lat="42.40336" lon="2.87438">
        <ele>99.6</ele>
        <time>2022-05-21 14:25:53</time>
      </trkpt>
      <trkpt lat="42.40336" lon="2.8743">
        <ele>99.8</ele>
        <time>2022-05-21 14:25:54</time>
      </trkpt>
      <trkpt lat="42.40335" lon="2.87424">
        <ele>99.8</ele>
        <time>2022-05-21 14:25:55</time>
      </trkpt>
      <trkpt lat="42.40334" lon="2.87418">
        <ele>100</ele>
        <time>2022-05-21 14:25:56</time>
      </trkpt>
      <trkpt lat="42.40333" lon="2.87411">
        <ele>100.2</ele>
        <time>2022-05-21 14:25:57</time>
      </trkpt>
      <trkpt lat="42.40331" lon="2.87405">
        <ele>100.4</ele>
        <time>2022-05-21 14:25:58</time>
      </trkpt>
      <trkpt lat="42.40329" lon="2.87399">
        <ele>100.6</ele>
        <time>2022-05-21 14:25:59</time>
      </trkpt>
      <trkpt lat="42.40328" lon="2.87394">
        <ele>100.8</ele>
        <time>2022-05-21 14:26:00</time>
      </trkpt>
      <trkpt lat="42.40326" lon="2.87388">
        <ele>101</ele>
        <time>2022-05-21 14:26:01</time>
      </trkpt>
      <trkpt lat="42.40324" lon="2.87382">
        <ele>101.2</ele>
        <time>2022-05-21 14:26:02</time>
      </trkpt>
      <trkpt lat="42.40323" lon="2.87376">
        <ele>101.4</ele>
        <time>2022-05-21 14:26:03</time>
      </trkpt>
      <trkpt lat="42.40322" lon="2.87371">
        <ele>101.6</ele>
        <time>2022-05-21 14:26:04</time>
      </trkpt>
      <trkpt lat="42.40322" lon="2.87365">
        <ele>101.8</ele>
        <time>2022-05-21 14:26:05</time>
      </trkpt>
      <trkpt lat="42.40321" lon="2.8736">
        <ele>102</ele>
        <time>2022-05-21 14:26:06</time>
      </trkpt>
      <trkpt lat="42.40321" lon="2.87354">
        <ele>102.2</ele>
        <time>2022-05-21 14:26:07</time>
      </trkpt>
      <trkpt lat="42.4032" lon="2.87349">
        <ele>102.4</ele>
        <time>2022-05-21 14:26:08</time>
      </trkpt>
      <trkpt lat="42.4032" lon="2.87344">
        <ele>102.6</ele>
        <time>2022-05-21 14:26:09</time>
      </trkpt>
      <trkpt lat="42.4032" lon="2.87338">
        <ele>102.6</ele>
        <time>2022-05-21 14:26:10</time>
      </trkpt>
      <trkpt lat="42.4032" lon="2.87333">
        <ele>102.8</ele>
        <time>2022-05-21 14:26:11</time>
      </trkpt>
      <trkpt lat="42.4032" lon="2.87328">
        <ele>103</ele>
        <time>2022-05-21 14:26:12</time>
      </trkpt>
      <trkpt lat="42.4032" lon="2.87323">
        <ele>103.2</ele>
        <time>2022-05-21 14:26:13</time>
      </trkpt>
      <trkpt lat="42.4032" lon="2.87318">
        <ele>103.4</ele>
        <time>2022-05-21 14:26:14</time>
      </trkpt>
      <trkpt lat="42.4032" lon="2.87313">
        <ele>103.4</ele>
        <time>2022-05-21 14:26:15</time>
      </trkpt>
      <trkpt lat="42.4032" lon="2.87308">
        <ele>103.6</ele>
        <time>2022-05-21 14:26:16</time>
      </trkpt>
      <trkpt lat="42.4032" lon="2.87303">
        <ele>103.8</ele>
        <time>2022-05-21 14:26:17</time>
      </trkpt>
      <trkpt lat="42.40321" lon="2.87298">
        <ele>104</ele>
        <time>2022-05-21 14:26:18</time>
      </trkpt>
      <trkpt lat="42.40322" lon="2.87293">
        <ele>104.2</ele>
        <time>2022-05-21 14:26:19</time>
      </trkpt>
      <trkpt lat="42.40322" lon="2.87289">
        <ele>104.4</ele>
        <time>2022-05-21 14:26:20</time>
      </trkpt>
      <trkpt lat="42.40322" lon="2.87284">
        <ele>104.6</ele>
        <time>2022-05-21 14:26:21</time>
      </trkpt>
      <trkpt lat="42.40323" lon="2.8728">
        <ele>104.8</ele>
        <time>2022-05-21 14:26:22</time>
      </trkpt>
      <trkpt lat="42.40323" lon="2.87275">
        <ele>105</ele>
        <time>2022-05-21 14:26:23</time>
      </trkpt>
      <trkpt lat="42.40323" lon="2.87271">
        <ele>105.2</ele>
        <time>2022-05-21 14:26:24</time>
      </trkpt>
      <trkpt lat="42.40324" lon="2.87267">
        <ele>105.4</ele>
        <time>2022-05-21 14:26:25</time>
      </trkpt>
      <trkpt lat="42.40324" lon="2.87262">
        <ele>105.6</ele>
        <time>2022-05-21 14:26:26</time>
      </trkpt>
      <trkpt lat="42.40324" lon="2.87258">
        <ele>105.8</ele>
        <time>2022-05-21 14:26:27</time>
      </trkpt>
      <trkpt lat="42.40325" lon="2.87255">
        <ele>106</ele>
        <time>2022-05-21 14:26:28</time>
      </trkpt>
      <trkpt lat="42.40325" lon="2.87251">
        <ele>106</ele>
        <time>2022-05-21 14:26:29</time>
      </trkpt>
      <trkpt lat="42.40325" lon="2.87247">
        <ele>106.2</ele>
        <time>2022-05-21 14:26:30</time>
      </trkpt>
      <trkpt lat="42.40325" lon="2.87244">
        <ele>106.4</ele>
        <time>2022-05-21 14:26:31</time>
      </trkpt>
      <trkpt lat="42.40326" lon="2.8724">
        <ele>106.6</ele>
        <time>2022-05-21 14:26:32</time>
      </trkpt>
      <trkpt lat="42.40326" lon="2.87235">
        <ele>106.8</ele>
        <time>2022-05-21 14:26:33</time>
      </trkpt>
      <trkpt lat="42.40326" lon="2.87232">
        <ele>107</ele>
        <time>2022-05-21 14:26:34</time>
      </trkpt>
      <trkpt lat="42.40326" lon="2.87228">
        <ele>107.2</ele>
        <time>2022-05-21 14:26:35</time>
      </trkpt>
      <trkpt lat="42.40326" lon="2.87225">
        <ele>107.4</ele>
        <time>2022-05-21 14:26:36</time>
      </trkpt>
      <trkpt lat="42.40327" lon="2.87221">
        <ele>107.6</ele>
        <time>2022-05-21 14:26:37</time>
      </trkpt>
      <trkpt lat="42.40327" lon="2.87217">
        <ele>107.8</ele>
        <time>2022-05-21 14:26:38</time>
      </trkpt>
      <trkpt lat="42.40327" lon="2.87214">
        <ele>108</ele>
        <time>2022-05-21 14:26:39</time>
      </trkpt>
      <trkpt lat="42.40327" lon="2.8721">
        <ele>108.2</ele>
        <time>2022-05-21 14:26:40</time>
      </trkpt>
      <trkpt lat="42.40327" lon="2.87207">
        <ele>108.4</ele>
        <time>2022-05-21 14:26:41</time>
      </trkpt>
      <trkpt lat="42.40327" lon="2.87204">
        <ele>108.4</ele>
        <time>2022-05-21 14:26:42</time>
      </trkpt>
      <trkpt lat="42.40327" lon="2.872">
        <ele>108.6</ele>
        <time>2022-05-21 14:26:43</time>
      </trkpt>
      <trkpt lat="42.40327" lon="2.87197">
        <ele>108.8</ele>
        <time>2022-05-21 14:26:44</time>
      </trkpt>
      <trkpt lat="42.40327" lon="2.87193">
        <ele>109</ele>
        <time>2022-05-21 14:26:45</time>
      </trkpt>
      <trkpt lat="42.40327" lon="2.8719">
        <ele>109.2</ele>
        <time>2022-05-21 14:26:46</time>
      </trkpt>
      <trkpt lat="42.40327" lon="2.87186">
        <ele>109.2</ele>
        <time>2022-05-21 14:26:47</time>
      </trkpt>
      <trkpt lat="42.40326" lon="2.87183">
        <ele>109.4</ele>
        <time>2022-05-21 14:26:48</time>
      </trkpt>
      <trkpt lat="42.40325" lon="2.87179">
        <ele>109.6</ele>
        <time>2022-05-21 14:26:49</time>
      </trkpt>
      <trkpt lat="42.40325" lon="2.87176">
        <ele>109.8</ele>
        <time>2022-05-21 14:26:50</time>
      </trkpt>
      <trkpt lat="42.40324" lon="2.87172">
        <ele>110</ele>
        <time>2022-05-21 14:26:51</time>
      </trkpt>
      <trkpt lat="42.40324" lon="2.87169">
        <ele>110</ele>
        <time>2022-05-21 14:26:52</time>
      </trkpt>
      <trkpt lat="42.40323" lon="2.87165">
        <ele>110.2</ele>
        <time>2022-05-21 14:26:53</time>
      </trkpt>
      <trkpt lat="42.40322" lon="2.87161">
        <ele>110.4</ele>
        <time>2022-05-21 14:26:54</time>
      </trkpt>
      <trkpt lat="42.40322" lon="2.87158">
        <ele>110.6</ele>
        <time>2022-05-21 14:26:55</time>
      </trkpt>
      <trkpt lat="42.40321" lon="2.87154">
        <ele>110.8</ele>
        <time>2022-05-21 14:26:56</time>
      </trkpt>
      <trkpt lat="42.4032" lon="2.87151">
        <ele>110.8</ele>
        <time>2022-05-21 14:26:57</time>
      </trkpt>
      <trkpt lat="42.40319" lon="2.87148">
        <ele>111</ele>
        <time>2022-05-21 14:26:58</time>
      </trkpt>
      <trkpt lat="42.40318" lon="2.87144">
        <ele>111.2</ele>
        <time>2022-05-21 14:26:59</time>
      </trkpt>
      <trkpt lat="42.40317" lon="2.87141">
        <ele>111.4</ele>
        <time>2022-05-21 14:27:00</time>
      </trkpt>
      <trkpt lat="42.40316" lon="2.87138">
        <ele>111.6</ele>
        <time>2022-05-21 14:27:01</time>
      </trkpt>
      <trkpt lat="42.40315" lon="2.87135">
        <ele>111.6</ele>
        <time>2022-05-21 14:27:02</time>
      </trkpt>
      <trkpt lat="42.40314" lon="2.87131">
        <ele>111.8</ele>
        <time>2022-05-21 14:27:03</time>
      </trkpt>
      <trkpt lat="42.40313" lon="2.87128">
        <ele>112</ele>
        <time>2022-05-21 14:27:04</time>
      </trkpt>
      <trkpt lat="42.40311" lon="2.87125">
        <ele>112.2</ele>
        <time>2022-05-21 14:27:05</time>
      </trkpt>
      <trkpt lat="42.4031" lon="2.87121">
        <ele>112.4</ele>
        <time>2022-05-21 14:27:06</time>
      </trkpt>
      <trkpt lat="42.40309" lon="2.87118">
        <ele>112.4</ele>
        <time>2022-05-21 14:27:07</time>
      </trkpt>
      <trkpt lat="42.40308" lon="2.87115">
        <ele>112.6</ele>
        <time>2022-05-21 14:27:08</time>
      </trkpt>
      <trkpt lat="42.40307" lon="2.87111">
        <ele>112.8</ele>
        <time>2022-05-21 14:27:09</time>
      </trkpt>
      <trkpt lat="42.40306" lon="2.87108">
        <ele>113</ele>
        <time>2022-05-21 14:27:10</time>
      </trkpt>
      <trkpt lat="42.40304" lon="2.87105">
        <ele>113</ele>
        <time>2022-05-21 14:27:11</time>
      </trkpt>
      <trkpt lat="42.40303" lon="2.87101">
        <ele>113.2</ele>
        <time>2022-05-21 14:27:12</time>
      </trkpt>
      <trkpt lat="42.40302" lon="2.87098">
        <ele>113.4</ele>
        <time>2022-05-21 14:27:13</time>
      </trkpt>
      <trkpt lat="42.403" lon="2.87095">
        <ele>113.6</ele>
        <time>2022-05-21 14:27:14</time>
      </trkpt>
      <trkpt lat="42.40299" lon="2.87092">
        <ele>113.8</ele>
        <time>2022-05-21 14:27:15</time>
      </trkpt>
      <trkpt lat="42.40297" lon="2.87089">
        <ele>113.8</ele>
        <time>2022-05-21 14:27:16</time>
      </trkpt>
      <trkpt lat="42.40296" lon="2.87086">
        <ele>114</ele>
        <time>2022-05-21 14:27:17</time>
      </trkpt>
      <trkpt lat="42.40295" lon="2.87082">
        <ele>114</ele>
        <time>2022-05-21 14:27:18</time>
      </trkpt>
      <trkpt lat="42.40294" lon="2.87078">
        <ele>114.2</ele>
        <time>2022-05-21 14:27:19</time>
      </trkpt>
      <trkpt lat="42.40293" lon="2.87075">
        <ele>114.2</ele>
        <time>2022-05-21 14:27:20</time>
      </trkpt>
      <trkpt lat="42.40291" lon="2.87071">
        <ele>114.4</ele>
        <time>2022-05-21 14:27:21</time>
      </trkpt>
      <trkpt lat="42.4029" lon="2.87068">
        <ele>114.4</ele>
        <time>2022-05-21 14:27:22</time>
      </trkpt>
      <trkpt lat="42.40288" lon="2.87065">
        <ele>114.6</ele>
        <time>2022-05-21 14:27:23</time>
      </trkpt>
      <trkpt lat="42.40287" lon="2.87061">
        <ele>114.6</ele>
        <time>2022-05-21 14:27:24</time>
      </trkpt>
      <trkpt lat="42.40286" lon="2.87058">
        <ele>115</ele>
        <time>2022-05-21 14:27:25</time>
      </trkpt>
      <trkpt lat="42.40284" lon="2.87054">
        <ele>115.2</ele>
        <time>2022-05-21 14:27:26</time>
      </trkpt>
      <trkpt lat="42.40283" lon="2.87051">
        <ele>115.2</ele>
        <time>2022-05-21 14:27:27</time>
      </trkpt>
      <trkpt lat="42.40282" lon="2.87047">
        <ele>115.4</ele>
        <time>2022-05-21 14:27:28</time>
      </trkpt>
      <trkpt lat="42.4028" lon="2.87044">
        <ele>115.6</ele>
        <time>2022-05-21 14:27:29</time>
      </trkpt>
      <trkpt lat="42.40279" lon="2.8704">
        <ele>115.6</ele>
        <time>2022-05-21 14:27:30</time>
      </trkpt>
      <trkpt lat="42.40278" lon="2.87036">
        <ele>115.6</ele>
        <time>2022-05-21 14:27:31</time>
      </trkpt>
      <trkpt lat="42.40276" lon="2.87032">
        <ele>115.8</ele>
        <time>2022-05-21 14:27:32</time>
      </trkpt>
      <trkpt lat="42.40275" lon="2.87028">
        <ele>115.8</ele>
        <time>2022-05-21 14:27:33</time>
      </trkpt>
      <trkpt lat="42.40273" lon="2.87025">
        <ele>116</ele>
        <time>2022-05-21 14:27:34</time>
      </trkpt>
      <trkpt lat="42.40271" lon="2.87021">
        <ele>116</ele>
        <time>2022-05-21 14:27:35</time>
      </trkpt>
      <trkpt lat="42.40269" lon="2.87018">
        <ele>116</ele>
        <time>2022-05-21 14:27:36</time>
      </trkpt>
      <trkpt lat="42.40267" lon="2.87013">
        <ele>116.2</ele>
        <time>2022-05-21 14:27:37</time>
      </trkpt>
      <trkpt lat="42.40265" lon="2.87009">
        <ele>116.2</ele>
        <time>2022-05-21 14:27:38</time>
      </trkpt>
      <trkpt lat="42.40263" lon="2.87005">
        <ele>116.4</ele>
        <time>2022-05-21 14:27:39</time>
      </trkpt>
      <trkpt lat="42.40261" lon="2.87">
        <ele>116.4</ele>
        <time>2022-05-21 14:27:40</time>
      </trkpt>
      <trkpt lat="42.40259" lon="2.86995">
        <ele>116.4</ele>
        <time>2022-05-21 14:27:41</time>
      </trkpt>
      <trkpt lat="42.40257" lon="2.8699">
        <ele>116.6</ele>
        <time>2022-05-21 14:27:42</time>
      </trkpt>
      <trkpt lat="42.40255" lon="2.86985">
        <ele>116.6</ele>
        <time>2022-05-21 14:27:43</time>
      </trkpt>
      <trkpt lat="42.40253" lon="2.86981">
        <ele>116.6</ele>
        <time>2022-05-21 14:27:44</time>
      </trkpt>
      <trkpt lat="42.40251" lon="2.86975">
        <ele>116.6</ele>
        <time>2022-05-21 14:27:45</time>
      </trkpt>
      <trkpt lat="42.40249" lon="2.8697">
        <ele>116.6</ele>
        <time>2022-05-21 14:27:46</time>
      </trkpt>
      <trkpt lat="42.40246" lon="2.86965">
        <ele>116.8</ele>
        <time>2022-05-21 14:27:47</time>
      </trkpt>
      <trkpt lat="42.40243" lon="2.8696">
        <ele>116.8</ele>
        <time>2022-05-21 14:27:48</time>
      </trkpt>
      <trkpt lat="42.40241" lon="2.86955">
        <ele>116.8</ele>
        <time>2022-05-21 14:27:49</time>
      </trkpt>
      <trkpt lat="42.40238" lon="2.86949">
        <ele>116.8</ele>
        <time>2022-05-21 14:27:50</time>
      </trkpt>
      <trkpt lat="42.40234" lon="2.86944">
        <ele>117</ele>
        <time>2022-05-21 14:27:51</time>
      </trkpt>
      <trkpt lat="42.40231" lon="2.86939">
        <ele>117</ele>
        <time>2022-05-21 14:27:52</time>
      </trkpt>
      <trkpt lat="42.40228" lon="2.86934">
        <ele>117</ele>
        <time>2022-05-21 14:27:53</time>
      </trkpt>
      <trkpt lat="42.40225" lon="2.86928">
        <ele>117</ele>
        <time>2022-05-21 14:27:54</time>
      </trkpt>
      <trkpt lat="42.40222" lon="2.86923">
        <ele>117</ele>
        <time>2022-05-21 14:27:55</time>
      </trkpt>
      <trkpt lat="42.40219" lon="2.86918">
        <ele>117</ele>
        <time>2022-05-21 14:27:56</time>
      </trkpt>
      <trkpt lat="42.40215" lon="2.86912">
        <ele>117.2</ele>
        <time>2022-05-21 14:27:57</time>
      </trkpt>
      <trkpt lat="42.40212" lon="2.86907">
        <ele>117.2</ele>
        <time>2022-05-21 14:27:58</time>
      </trkpt>
      <trkpt lat="42.40209" lon="2.86901">
        <ele>117.2</ele>
        <time>2022-05-21 14:27:59</time>
      </trkpt>
      <trkpt lat="42.40205" lon="2.86896">
        <ele>117.2</ele>
        <time>2022-05-21 14:28:00</time>
      </trkpt>
      <trkpt lat="42.40202" lon="2.8689">
        <ele>117.2</ele>
        <time>2022-05-21 14:28:01</time>
      </trkpt>
      <trkpt lat="42.40199" lon="2.86885">
        <ele>117.2</ele>
        <time>2022-05-21 14:28:02</time>
      </trkpt>
      <trkpt lat="42.40195" lon="2.8688">
        <ele>117.2</ele>
        <time>2022-05-21 14:28:03</time>
      </trkpt>
      <trkpt lat="42.40192" lon="2.86875">
        <ele>117.2</ele>
        <time>2022-05-21 14:28:04</time>
      </trkpt>
      <trkpt lat="42.40188" lon="2.86869">
        <ele>117.4</ele>
        <time>2022-05-21 14:28:05</time>
      </trkpt>
      <trkpt lat="42.40185" lon="2.86864">
        <ele>117.4</ele>
        <time>2022-05-21 14:28:06</time>
      </trkpt>
      <trkpt lat="42.40182" lon="2.86858">
        <ele>117.4</ele>
        <time>2022-05-21 14:28:07</time>
      </trkpt>
      <trkpt lat="42.40179" lon="2.86853">
        <ele>117.4</ele>
        <time>2022-05-21 14:28:08</time>
      </trkpt>
      <trkpt lat="42.40176" lon="2.86847">
        <ele>117.4</ele>
        <time>2022-05-21 14:28:09</time>
      </trkpt>
      <trkpt lat="42.40172" lon="2.86842">
        <ele>117.6</ele>
        <time>2022-05-21 14:28:10</time>
      </trkpt>
      <trkpt lat="42.40169" lon="2.86836">
        <ele>117.6</ele>
        <time>2022-05-21 14:28:11</time>
      </trkpt>
      <trkpt lat="42.40166" lon="2.86831">
        <ele>117.6</ele>
        <time>2022-05-21 14:28:12</time>
      </trkpt>
      <trkpt lat="42.40163" lon="2.86826">
        <ele>117.6</ele>
        <time>2022-05-21 14:28:13</time>
      </trkpt>
      <trkpt lat="42.4016" lon="2.8682">
        <ele>117.6</ele>
        <time>2022-05-21 14:28:14</time>
      </trkpt>
      <trkpt lat="42.40156" lon="2.86815">
        <ele>117.6</ele>
        <time>2022-05-21 14:28:15</time>
      </trkpt>
      <trkpt lat="42.40153" lon="2.8681">
        <ele>117.6</ele>
        <time>2022-05-21 14:28:16</time>
      </trkpt>
      <trkpt lat="42.4015" lon="2.86804">
        <ele>117.4</ele>
        <time>2022-05-21 14:28:17</time>
      </trkpt>
      <trkpt lat="42.40147" lon="2.86799">
        <ele>117.4</ele>
        <time>2022-05-21 14:28:18</time>
      </trkpt>
      <trkpt lat="42.40144" lon="2.86794">
        <ele>117.4</ele>
        <time>2022-05-21 14:28:19</time>
      </trkpt>
      <trkpt lat="42.4014" lon="2.86789">
        <ele>117.4</ele>
        <time>2022-05-21 14:28:20</time>
      </trkpt>
      <trkpt lat="42.40137" lon="2.86783">
        <ele>117.4</ele>
        <time>2022-05-21 14:28:21</time>
      </trkpt>
      <trkpt lat="42.40134" lon="2.86778">
        <ele>117.4</ele>
        <time>2022-05-21 14:28:22</time>
      </trkpt>
      <trkpt lat="42.40131" lon="2.86773">
        <ele>117.4</ele>
        <time>2022-05-21 14:28:23</time>
      </trkpt>
      <trkpt lat="42.40127" lon="2.86767">
        <ele>117.6</ele>
        <time>2022-05-21 14:28:24</time>
      </trkpt>
      <trkpt lat="42.40124" lon="2.86762">
        <ele>117.6</ele>
        <time>2022-05-21 14:28:25</time>
      </trkpt>
      <trkpt lat="42.40121" lon="2.86757">
        <ele>117.6</ele>
        <time>2022-05-21 14:28:26</time>
      </trkpt>
      <trkpt lat="42.40118" lon="2.86751">
        <ele>117.6</ele>
        <time>2022-05-21 14:28:27</time>
      </trkpt>
      <trkpt lat="42.40115" lon="2.86746">
        <ele>117.6</ele>
        <time>2022-05-21 14:28:28</time>
      </trkpt>
      <trkpt lat="42.40111" lon="2.86741">
        <ele>117.6</ele>
        <time>2022-05-21 14:28:29</time>
      </trkpt>
      <trkpt lat="42.40108" lon="2.86736">
        <ele>117.6</ele>
        <time>2022-05-21 14:28:30</time>
      </trkpt>
      <trkpt lat="42.40105" lon="2.8673">
        <ele>117.6</ele>
        <time>2022-05-21 14:28:31</time>
      </trkpt>
      <trkpt lat="42.40102" lon="2.86725">
        <ele>117.6</ele>
        <time>2022-05-21 14:28:32</time>
      </trkpt>
      <trkpt lat="42.40099" lon="2.86719">
        <ele>117.6</ele>
        <time>2022-05-21 14:28:33</time>
      </trkpt>
      <trkpt lat="42.40096" lon="2.86714">
        <ele>117.8</ele>
        <time>2022-05-21 14:28:34</time>
      </trkpt>
      <trkpt lat="42.40092" lon="2.86708">
        <ele>117.8</ele>
        <time>2022-05-21 14:28:35</time>
      </trkpt>
      <trkpt lat="42.40089" lon="2.86703">
        <ele>117.8</ele>
        <time>2022-05-21 14:28:36</time>
      </trkpt>
      <trkpt lat="42.40086" lon="2.86698">
        <ele>118</ele>
        <time>2022-05-21 14:28:37</time>
      </trkpt>
      <trkpt lat="42.40082" lon="2.86693">
        <ele>118</ele>
        <time>2022-05-21 14:28:38</time>
      </trkpt>
      <trkpt lat="42.40079" lon="2.86687">
        <ele>118.2</ele>
        <time>2022-05-21 14:28:39</time>
      </trkpt>
      <trkpt lat="42.40076" lon="2.86681">
        <ele>118.2</ele>
        <time>2022-05-21 14:28:40</time>
      </trkpt>
      <trkpt lat="42.40073" lon="2.86676">
        <ele>118.4</ele>
        <time>2022-05-21 14:28:41</time>
      </trkpt>
      <trkpt lat="42.4007" lon="2.86671">
        <ele>118.4</ele>
        <time>2022-05-21 14:28:42</time>
      </trkpt>
      <trkpt lat="42.40066" lon="2.86666">
        <ele>118.6</ele>
        <time>2022-05-21 14:28:43</time>
      </trkpt>
      <trkpt lat="42.40064" lon="2.86661">
        <ele>118.6</ele>
        <time>2022-05-21 14:28:44</time>
      </trkpt>
      <trkpt lat="42.40061" lon="2.86655">
        <ele>118.8</ele>
        <time>2022-05-21 14:28:45</time>
      </trkpt>
      <trkpt lat="42.40057" lon="2.86651">
        <ele>118.8</ele>
        <time>2022-05-21 14:28:46</time>
      </trkpt>
      <trkpt lat="42.40055" lon="2.86646">
        <ele>119</ele>
        <time>2022-05-21 14:28:47</time>
      </trkpt>
      <trkpt lat="42.40052" lon="2.86641">
        <ele>119</ele>
        <time>2022-05-21 14:28:48</time>
      </trkpt>
      <trkpt lat="42.4005" lon="2.86637">
        <ele>119.2</ele>
        <time>2022-05-21 14:28:49</time>
      </trkpt>
      <trkpt lat="42.40047" lon="2.86633">
        <ele>119.4</ele>
        <time>2022-05-21 14:28:50</time>
      </trkpt>
      <trkpt lat="42.40045" lon="2.86629">
        <ele>119.6</ele>
        <time>2022-05-21 14:28:51</time>
      </trkpt>
      <trkpt lat="42.40042" lon="2.86625">
        <ele>119.8</ele>
        <time>2022-05-21 14:28:52</time>
      </trkpt>
      <trkpt lat="42.4004" lon="2.86621">
        <ele>119.8</ele>
        <time>2022-05-21 14:28:53</time>
      </trkpt>
      <trkpt lat="42.40037" lon="2.86617">
        <ele>120</ele>
        <time>2022-05-21 14:28:54</time>
      </trkpt>
      <trkpt lat="42.40035" lon="2.86613">
        <ele>120.2</ele>
        <time>2022-05-21 14:28:55</time>
      </trkpt>
      <trkpt lat="42.40032" lon="2.86609">
        <ele>120.4</ele>
        <time>2022-05-21 14:28:56</time>
      </trkpt>
      <trkpt lat="42.4003" lon="2.86605">
        <ele>120.6</ele>
        <time>2022-05-21 14:28:57</time>
      </trkpt>
      <trkpt lat="42.40028" lon="2.86601">
        <ele>120.8</ele>
        <time>2022-05-21 14:28:58</time>
      </trkpt>
      <trkpt lat="42.40026" lon="2.86597">
        <ele>121.2</ele>
        <time>2022-05-21 14:28:59</time>
      </trkpt>
      <trkpt lat="42.40023" lon="2.86593">
        <ele>121.4</ele>
        <time>2022-05-21 14:29:00</time>
      </trkpt>
      <trkpt lat="42.40021" lon="2.86589">
        <ele>121.6</ele>
        <time>2022-05-21 14:29:01</time>
      </trkpt>
      <trkpt lat="42.40019" lon="2.86585">
        <ele>121.8</ele>
        <time>2022-05-21 14:29:02</time>
      </trkpt>
      <trkpt lat="42.40016" lon="2.86582">
        <ele>122.2</ele>
        <time>2022-05-21 14:29:03</time>
      </trkpt>
      <trkpt lat="42.40014" lon="2.86578">
        <ele>122.4</ele>
        <time>2022-05-21 14:29:04</time>
      </trkpt>
      <trkpt lat="42.40012" lon="2.86574">
        <ele>122.6</ele>
        <time>2022-05-21 14:29:05</time>
      </trkpt>
      <trkpt lat="42.4001" lon="2.8657">
        <ele>122.8</ele>
        <time>2022-05-21 14:29:06</time>
      </trkpt>
      <trkpt lat="42.40007" lon="2.86566">
        <ele>123</ele>
        <time>2022-05-21 14:29:07</time>
      </trkpt>
      <trkpt lat="42.40005" lon="2.86562">
        <ele>123.2</ele>
        <time>2022-05-21 14:29:08</time>
      </trkpt>
      <trkpt lat="42.40003" lon="2.86559">
        <ele>123.4</ele>
        <time>2022-05-21 14:29:09</time>
      </trkpt>
      <trkpt lat="42.4" lon="2.86555">
        <ele>123.6</ele>
        <time>2022-05-21 14:29:10</time>
      </trkpt>
      <trkpt lat="42.39998" lon="2.86551">
        <ele>123.8</ele>
        <time>2022-05-21 14:29:11</time>
      </trkpt>
      <trkpt lat="42.39996" lon="2.86548">
        <ele>124</ele>
        <time>2022-05-21 14:29:12</time>
      </trkpt>
      <trkpt lat="42.39994" lon="2.86545">
        <ele>124.2</ele>
        <time>2022-05-21 14:29:13</time>
      </trkpt>
      <trkpt lat="42.39992" lon="2.86542">
        <ele>124.4</ele>
        <time>2022-05-21 14:29:14</time>
      </trkpt>
      <trkpt lat="42.3999" lon="2.86538">
        <ele>124.6</ele>
        <time>2022-05-21 14:29:15</time>
      </trkpt>
      <trkpt lat="42.39988" lon="2.86535">
        <ele>124.8</ele>
        <time>2022-05-21 14:29:16</time>
      </trkpt>
      <trkpt lat="42.39986" lon="2.86532">
        <ele>125</ele>
        <time>2022-05-21 14:29:17</time>
      </trkpt>
      <trkpt lat="42.39985" lon="2.86529">
        <ele>125.2</ele>
        <time>2022-05-21 14:29:18</time>
      </trkpt>
      <trkpt lat="42.39983" lon="2.86526">
        <ele>125.4</ele>
        <time>2022-05-21 14:29:19</time>
      </trkpt>
      <trkpt lat="42.39981" lon="2.86523">
        <ele>125.6</ele>
        <time>2022-05-21 14:29:20</time>
      </trkpt>
      <trkpt lat="42.39979" lon="2.8652">
        <ele>125.8</ele>
        <time>2022-05-21 14:29:21</time>
      </trkpt>
      <trkpt lat="42.39978" lon="2.86516">
        <ele>126</ele>
        <time>2022-05-21 14:29:22</time>
      </trkpt>
      <trkpt lat="42.39976" lon="2.86513">
        <ele>126</ele>
        <time>2022-05-21 14:29:23</time>
      </trkpt>
      <trkpt lat="42.39975" lon="2.8651">
        <ele>126.2</ele>
        <time>2022-05-21 14:29:24</time>
      </trkpt>
      <trkpt lat="42.39972" lon="2.86507">
        <ele>126.4</ele>
        <time>2022-05-21 14:29:25</time>
      </trkpt>
      <trkpt lat="42.3997" lon="2.86503">
        <ele>126.6</ele>
        <time>2022-05-21 14:29:26</time>
      </trkpt>
      <trkpt lat="42.39968" lon="2.865">
        <ele>126.8</ele>
        <time>2022-05-21 14:29:27</time>
      </trkpt>
      <trkpt lat="42.39966" lon="2.86497">
        <ele>127</ele>
        <time>2022-05-21 14:29:28</time>
      </trkpt>
      <trkpt lat="42.39965" lon="2.86494">
        <ele>127.2</ele>
        <time>2022-05-21 14:29:29</time>
      </trkpt>
      <trkpt lat="42.39963" lon="2.86491">
        <ele>127.4</ele>
        <time>2022-05-21 14:29:30</time>
      </trkpt>
      <trkpt lat="42.39961" lon="2.86487">
        <ele>127.4</ele>
        <time>2022-05-21 14:29:31</time>
      </trkpt>
      <trkpt lat="42.39959" lon="2.86484">
        <ele>127.6</ele>
        <time>2022-05-21 14:29:32</time>
      </trkpt>
      <trkpt lat="42.39957" lon="2.86481">
        <ele>127.8</ele>
        <time>2022-05-21 14:29:33</time>
      </trkpt>
      <trkpt lat="42.39955" lon="2.86479">
        <ele>128</ele>
        <time>2022-05-21 14:29:34</time>
      </trkpt>
      <trkpt lat="42.39953" lon="2.86476">
        <ele>128.2</ele>
        <time>2022-05-21 14:29:35</time>
      </trkpt>
      <trkpt lat="42.39951" lon="2.86473">
        <ele>128.4</ele>
        <time>2022-05-21 14:29:36</time>
      </trkpt>
      <trkpt lat="42.3995" lon="2.86469">
        <ele>128.6</ele>
        <time>2022-05-21 14:29:37</time>
      </trkpt>
      <trkpt lat="42.39948" lon="2.86466">
        <ele>128.6</ele>
        <time>2022-05-21 14:29:38</time>
      </trkpt>
      <trkpt lat="42.39946" lon="2.86463">
        <ele>128.8</ele>
        <time>2022-05-21 14:29:39</time>
      </trkpt>
      <trkpt lat="42.39944" lon="2.8646">
        <ele>129</ele>
        <time>2022-05-21 14:29:40</time>
      </trkpt>
      <trkpt lat="42.39942" lon="2.86457">
        <ele>129.2</ele>
        <time>2022-05-21 14:29:41</time>
      </trkpt>
      <trkpt lat="42.3994" lon="2.86454">
        <ele>129.4</ele>
        <time>2022-05-21 14:29:42</time>
      </trkpt>
      <trkpt lat="42.39939" lon="2.86451">
        <ele>129.6</ele>
        <time>2022-05-21 14:29:43</time>
      </trkpt>
      <trkpt lat="42.39937" lon="2.86448">
        <ele>129.8</ele>
        <time>2022-05-21 14:29:44</time>
      </trkpt>
      <trkpt lat="42.39935" lon="2.86445">
        <ele>130</ele>
        <time>2022-05-21 14:29:45</time>
      </trkpt>
      <trkpt lat="42.39933" lon="2.86442">
        <ele>130.2</ele>
        <time>2022-05-21 14:29:46</time>
      </trkpt>
      <trkpt lat="42.39931" lon="2.86438">
        <ele>130.2</ele>
        <time>2022-05-21 14:29:47</time>
      </trkpt>
      <trkpt lat="42.39929" lon="2.86435">
        <ele>130.4</ele>
        <time>2022-05-21 14:29:48</time>
      </trkpt>
      <trkpt lat="42.39927" lon="2.86432">
        <ele>130.6</ele>
        <time>2022-05-21 14:29:49</time>
      </trkpt>
      <trkpt lat="42.39925" lon="2.86429">
        <ele>130.8</ele>
        <time>2022-05-21 14:29:50</time>
      </trkpt>
      <trkpt lat="42.39923" lon="2.86426">
        <ele>131</ele>
        <time>2022-05-21 14:29:51</time>
      </trkpt>
      <trkpt lat="42.39922" lon="2.86423">
        <ele>131</ele>
        <time>2022-05-21 14:29:52</time>
      </trkpt>
      <trkpt lat="42.3992" lon="2.8642">
        <ele>131.2</ele>
        <time>2022-05-21 14:29:53</time>
      </trkpt>
      <trkpt lat="42.39918" lon="2.86417">
        <ele>131.4</ele>
        <time>2022-05-21 14:29:54</time>
      </trkpt>
      <trkpt lat="42.39916" lon="2.86414">
        <ele>131.6</ele>
        <time>2022-05-21 14:29:55</time>
      </trkpt>
      <trkpt lat="42.39914" lon="2.86411">
        <ele>131.6</ele>
        <time>2022-05-21 14:29:56</time>
      </trkpt>
      <trkpt lat="42.39912" lon="2.86407">
        <ele>131.8</ele>
        <time>2022-05-21 14:29:57</time>
      </trkpt>
      <trkpt lat="42.3991" lon="2.86404">
        <ele>132</ele>
        <time>2022-05-21 14:29:58</time>
      </trkpt>
      <trkpt lat="42.39908" lon="2.86401">
        <ele>132.2</ele>
        <time>2022-05-21 14:29:59</time>
      </trkpt>
      <trkpt lat="42.39907" lon="2.86398">
        <ele>132.4</ele>
        <time>2022-05-21 14:30:00</time>
      </trkpt>
      <trkpt lat="42.39905" lon="2.86395">
        <ele>132.6</ele>
        <time>2022-05-21 14:30:01</time>
      </trkpt>
      <trkpt lat="42.39903" lon="2.86392">
        <ele>132.8</ele>
        <time>2022-05-21 14:30:02</time>
      </trkpt>
      <trkpt lat="42.39901" lon="2.86389">
        <ele>133</ele>
        <time>2022-05-21 14:30:03</time>
      </trkpt>
      <trkpt lat="42.39899" lon="2.86386">
        <ele>133.2</ele>
        <time>2022-05-21 14:30:04</time>
      </trkpt>
      <trkpt lat="42.39897" lon="2.86382">
        <ele>133.2</ele>
        <time>2022-05-21 14:30:05</time>
      </trkpt>
      <trkpt lat="42.39895" lon="2.86379">
        <ele>133.4</ele>
        <time>2022-05-21 14:30:06</time>
      </trkpt>
      <trkpt lat="42.39893" lon="2.86376">
        <ele>133.6</ele>
        <time>2022-05-21 14:30:07</time>
      </trkpt>
      <trkpt lat="42.39891" lon="2.86373">
        <ele>133.8</ele>
        <time>2022-05-21 14:30:08</time>
      </trkpt>
      <trkpt lat="42.39889" lon="2.8637">
        <ele>134</ele>
        <time>2022-05-21 14:30:09</time>
      </trkpt>
      <trkpt lat="42.39888" lon="2.86367">
        <ele>134.2</ele>
        <time>2022-05-21 14:30:10</time>
      </trkpt>
      <trkpt lat="42.39886" lon="2.86364">
        <ele>134.4</ele>
        <time>2022-05-21 14:30:11</time>
      </trkpt>
      <trkpt lat="42.39884" lon="2.86361">
        <ele>134.4</ele>
        <time>2022-05-21 14:30:12</time>
      </trkpt>
      <trkpt lat="42.39882" lon="2.86358">
        <ele>134.6</ele>
        <time>2022-05-21 14:30:13</time>
      </trkpt>
      <trkpt lat="42.3988" lon="2.86356">
        <ele>134.8</ele>
        <time>2022-05-21 14:30:14</time>
      </trkpt>
      <trkpt lat="42.39878" lon="2.86353">
        <ele>135</ele>
        <time>2022-05-21 14:30:15</time>
      </trkpt>
      <trkpt lat="42.39877" lon="2.8635">
        <ele>135.2</ele>
        <time>2022-05-21 14:30:16</time>
      </trkpt>
      <trkpt lat="42.39875" lon="2.86347">
        <ele>135.4</ele>
        <time>2022-05-21 14:30:17</time>
      </trkpt>
      <trkpt lat="42.39873" lon="2.86344">
        <ele>135.4</ele>
        <time>2022-05-21 14:30:18</time>
      </trkpt>
      <trkpt lat="42.39872" lon="2.86341">
        <ele>135.6</ele>
        <time>2022-05-21 14:30:19</time>
      </trkpt>
      <trkpt lat="42.3987" lon="2.86338">
        <ele>135.8</ele>
        <time>2022-05-21 14:30:20</time>
      </trkpt>
      <trkpt lat="42.39868" lon="2.86335">
        <ele>136</ele>
        <time>2022-05-21 14:30:21</time>
      </trkpt>
      <trkpt lat="42.39867" lon="2.86332">
        <ele>136.2</ele>
        <time>2022-05-21 14:30:22</time>
      </trkpt>
      <trkpt lat="42.39865" lon="2.86329">
        <ele>136.2</ele>
        <time>2022-05-21 14:30:23</time>
      </trkpt>
      <trkpt lat="42.39863" lon="2.86326">
        <ele>136.4</ele>
        <time>2022-05-21 14:30:24</time>
      </trkpt>
      <trkpt lat="42.39861" lon="2.86323">
        <ele>136.6</ele>
        <time>2022-05-21 14:30:25</time>
      </trkpt>
      <trkpt lat="42.39859" lon="2.8632">
        <ele>136.8</ele>
        <time>2022-05-21 14:30:26</time>
      </trkpt>
      <trkpt lat="42.39857" lon="2.86318">
        <ele>137</ele>
        <time>2022-05-21 14:30:27</time>
      </trkpt>
      <trkpt lat="42.39855" lon="2.86315">
        <ele>137.2</ele>
        <time>2022-05-21 14:30:28</time>
      </trkpt>
      <trkpt lat="42.39853" lon="2.86312">
        <ele>137.2</ele>
        <time>2022-05-21 14:30:29</time>
      </trkpt>
      <trkpt lat="42.39851" lon="2.86309">
        <ele>137.4</ele>
        <time>2022-05-21 14:30:30</time>
      </trkpt>
      <trkpt lat="42.3985" lon="2.86305">
        <ele>137.6</ele>
        <time>2022-05-21 14:30:31</time>
      </trkpt>
      <trkpt lat="42.39848" lon="2.86302">
        <ele>137.6</ele>
        <time>2022-05-21 14:30:32</time>
      </trkpt>
      <trkpt lat="42.39846" lon="2.86299">
        <ele>137.8</ele>
        <time>2022-05-21 14:30:33</time>
      </trkpt>
      <trkpt lat="42.39844" lon="2.86295">
        <ele>137.8</ele>
        <time>2022-05-21 14:30:34</time>
      </trkpt>
      <trkpt lat="42.39842" lon="2.86292">
        <ele>138</ele>
        <time>2022-05-21 14:30:35</time>
      </trkpt>
      <trkpt lat="42.3984" lon="2.86289">
        <ele>138.2</ele>
        <time>2022-05-21 14:30:36</time>
      </trkpt>
      <trkpt lat="42.39838" lon="2.86285">
        <ele>138.2</ele>
        <time>2022-05-21 14:30:37</time>
      </trkpt>
      <trkpt lat="42.39836" lon="2.86281">
        <ele>138.4</ele>
        <time>2022-05-21 14:30:38</time>
      </trkpt>
      <trkpt lat="42.39834" lon="2.86278">
        <ele>138.4</ele>
        <time>2022-05-21 14:30:39</time>
      </trkpt>
      <trkpt lat="42.39832" lon="2.86274">
        <ele>138.4</ele>
        <time>2022-05-21 14:30:40</time>
      </trkpt>
      <trkpt lat="42.39829" lon="2.8627">
        <ele>138.6</ele>
        <time>2022-05-21 14:30:41</time>
      </trkpt>
      <trkpt lat="42.39827" lon="2.86266">
        <ele>138.6</ele>
        <time>2022-05-21 14:30:42</time>
      </trkpt>
      <trkpt lat="42.39825" lon="2.86262">
        <ele>138.6</ele>
        <time>2022-05-21 14:30:43</time>
      </trkpt>
      <trkpt lat="42.39822" lon="2.86258">
        <ele>138.6</ele>
        <time>2022-05-21 14:30:44</time>
      </trkpt>
      <trkpt lat="42.39819" lon="2.86254">
        <ele>138.8</ele>
        <time>2022-05-21 14:30:45</time>
      </trkpt>
      <trkpt lat="42.39816" lon="2.86249">
        <ele>138.8</ele>
        <time>2022-05-21 14:30:46</time>
      </trkpt>
      <trkpt lat="42.39813" lon="2.86245">
        <ele>138.8</ele>
        <time>2022-05-21 14:30:47</time>
      </trkpt>
      <trkpt lat="42.3981" lon="2.86241">
        <ele>139</ele>
        <time>2022-05-21 14:30:48</time>
      </trkpt>
      <trkpt lat="42.39808" lon="2.86236">
        <ele>139</ele>
        <time>2022-05-21 14:30:49</time>
      </trkpt>
      <trkpt lat="42.39805" lon="2.86232">
        <ele>139</ele>
        <time>2022-05-21 14:30:50</time>
      </trkpt>
      <trkpt lat="42.39802" lon="2.86228">
        <ele>139.2</ele>
        <time>2022-05-21 14:30:51</time>
      </trkpt>
      <trkpt lat="42.398" lon="2.86224">
        <ele>139.2</ele>
        <time>2022-05-21 14:30:52</time>
      </trkpt>
      <trkpt lat="42.39798" lon="2.8622">
        <ele>139.2</ele>
        <time>2022-05-21 14:30:53</time>
      </trkpt>
      <trkpt lat="42.39795" lon="2.86215">
        <ele>139.4</ele>
        <time>2022-05-21 14:30:54</time>
      </trkpt>
      <trkpt lat="42.39793" lon="2.86211">
        <ele>139.2</ele>
        <time>2022-05-21 14:30:55</time>
      </trkpt>
      <trkpt lat="42.3979" lon="2.86207">
        <ele>139.2</ele>
        <time>2022-05-21 14:30:56</time>
      </trkpt>
      <trkpt lat="42.39788" lon="2.86203">
        <ele>139.4</ele>
        <time>2022-05-21 14:30:57</time>
      </trkpt>
      <trkpt lat="42.39785" lon="2.86198">
        <ele>139.4</ele>
        <time>2022-05-21 14:30:58</time>
      </trkpt>
      <trkpt lat="42.39783" lon="2.86194">
        <ele>139.4</ele>
        <time>2022-05-21 14:30:59</time>
      </trkpt>
      <trkpt lat="42.39781" lon="2.86189">
        <ele>139.6</ele>
        <time>2022-05-21 14:31:00</time>
      </trkpt>
      <trkpt lat="42.39778" lon="2.86184">
        <ele>139.6</ele>
        <time>2022-05-21 14:31:01</time>
      </trkpt>
      <trkpt lat="42.39775" lon="2.86179">
        <ele>139.6</ele>
        <time>2022-05-21 14:31:02</time>
      </trkpt>
      <trkpt lat="42.39772" lon="2.86175">
        <ele>139.4</ele>
        <time>2022-05-21 14:31:03</time>
      </trkpt>
      <trkpt lat="42.39769" lon="2.8617">
        <ele>139.4</ele>
        <time>2022-05-21 14:31:04</time>
      </trkpt>
      <trkpt lat="42.39767" lon="2.86165">
        <ele>139.4</ele>
        <time>2022-05-21 14:31:05</time>
      </trkpt>
      <trkpt lat="42.39764" lon="2.8616">
        <ele>139.4</ele>
        <time>2022-05-21 14:31:06</time>
      </trkpt>
      <trkpt lat="42.39761" lon="2.86156">
        <ele>139.4</ele>
        <time>2022-05-21 14:31:07</time>
      </trkpt>
      <trkpt lat="42.39758" lon="2.86151">
        <ele>139.4</ele>
        <time>2022-05-21 14:31:08</time>
      </trkpt>
      <trkpt lat="42.39755" lon="2.86146">
        <ele>139.4</ele>
        <time>2022-05-21 14:31:09</time>
      </trkpt>
      <trkpt lat="42.39752" lon="2.86141">
        <ele>139.4</ele>
        <time>2022-05-21 14:31:10</time>
      </trkpt>
      <trkpt lat="42.39749" lon="2.86136">
        <ele>139.6</ele>
        <time>2022-05-21 14:31:11</time>
      </trkpt>
      <trkpt lat="42.39746" lon="2.86131">
        <ele>139.6</ele>
        <time>2022-05-21 14:31:12</time>
      </trkpt>
      <trkpt lat="42.39743" lon="2.86126">
        <ele>139.6</ele>
        <time>2022-05-21 14:31:13</time>
      </trkpt>
      <trkpt lat="42.3974" lon="2.86121">
        <ele>139.6</ele>
        <time>2022-05-21 14:31:14</time>
      </trkpt>
      <trkpt lat="42.39736" lon="2.86115">
        <ele>139.6</ele>
        <time>2022-05-21 14:31:15</time>
      </trkpt>
      <trkpt lat="42.39733" lon="2.8611">
        <ele>139.6</ele>
        <time>2022-05-21 14:31:16</time>
      </trkpt>
      <trkpt lat="42.3973" lon="2.86105">
        <ele>139.6</ele>
        <time>2022-05-21 14:31:17</time>
      </trkpt>
      <trkpt lat="42.39727" lon="2.86099">
        <ele>139.6</ele>
        <time>2022-05-21 14:31:18</time>
      </trkpt>
      <trkpt lat="42.39724" lon="2.86094">
        <ele>139.6</ele>
        <time>2022-05-21 14:31:19</time>
      </trkpt>
      <trkpt lat="42.39721" lon="2.86089">
        <ele>139.6</ele>
        <time>2022-05-21 14:31:20</time>
      </trkpt>
      <trkpt lat="42.39718" lon="2.86083">
        <ele>139.6</ele>
        <time>2022-05-21 14:31:21</time>
      </trkpt>
      <trkpt lat="42.39715" lon="2.86077">
        <ele>139.6</ele>
        <time>2022-05-21 14:31:22</time>
      </trkpt>
      <trkpt lat="42.39712" lon="2.86072">
        <ele>139.4</ele>
        <time>2022-05-21 14:31:23</time>
      </trkpt>
      <trkpt lat="42.39708" lon="2.86066">
        <ele>139.4</ele>
        <time>2022-05-21 14:31:24</time>
      </trkpt>
      <trkpt lat="42.39704" lon="2.8606">
        <ele>139.4</ele>
        <time>2022-05-21 14:31:25</time>
      </trkpt>
      <trkpt lat="42.39701" lon="2.86055">
        <ele>139.4</ele>
        <time>2022-05-21 14:31:26</time>
      </trkpt>
      <trkpt lat="42.39698" lon="2.86049">
        <ele>139.2</ele>
        <time>2022-05-21 14:31:27</time>
      </trkpt>
      <trkpt lat="42.39695" lon="2.86043">
        <ele>139.2</ele>
        <time>2022-05-21 14:31:28</time>
      </trkpt>
      <trkpt lat="42.39691" lon="2.86037">
        <ele>139.2</ele>
        <time>2022-05-21 14:31:29</time>
      </trkpt>
      <trkpt lat="42.39687" lon="2.86031">
        <ele>139.2</ele>
        <time>2022-05-21 14:31:30</time>
      </trkpt>
      <trkpt lat="42.39684" lon="2.86025">
        <ele>139</ele>
        <time>2022-05-21 14:31:31</time>
      </trkpt>
      <trkpt lat="42.3968" lon="2.86019">
        <ele>139</ele>
        <time>2022-05-21 14:31:32</time>
      </trkpt>
      <trkpt lat="42.39676" lon="2.86013">
        <ele>138.8</ele>
        <time>2022-05-21 14:31:33</time>
      </trkpt>
      <trkpt lat="42.39672" lon="2.86006">
        <ele>138.8</ele>
        <time>2022-05-21 14:31:34</time>
      </trkpt>
      <trkpt lat="42.39668" lon="2.86">
        <ele>138.6</ele>
        <time>2022-05-21 14:31:35</time>
      </trkpt>
      <trkpt lat="42.39664" lon="2.85993">
        <ele>138.4</ele>
        <time>2022-05-21 14:31:36</time>
      </trkpt>
      <trkpt lat="42.3966" lon="2.85987">
        <ele>138.2</ele>
        <time>2022-05-21 14:31:37</time>
      </trkpt>
      <trkpt lat="42.39656" lon="2.8598">
        <ele>138</ele>
        <time>2022-05-21 14:31:38</time>
      </trkpt>
      <trkpt lat="42.39652" lon="2.85973">
        <ele>137.8</ele>
        <time>2022-05-21 14:31:39</time>
      </trkpt>
      <trkpt lat="42.39648" lon="2.85967">
        <ele>137.6</ele>
        <time>2022-05-21 14:31:40</time>
      </trkpt>
      <trkpt lat="42.39643" lon="2.8596">
        <ele>137.6</ele>
        <time>2022-05-21 14:31:41</time>
      </trkpt>
      <trkpt lat="42.39639" lon="2.85953">
        <ele>137.4</ele>
        <time>2022-05-21 14:31:42</time>
      </trkpt>
      <trkpt lat="42.39635" lon="2.85946">
        <ele>137.2</ele>
        <time>2022-05-21 14:31:43</time>
      </trkpt>
      <trkpt lat="42.39631" lon="2.85939">
        <ele>137</ele>
        <time>2022-05-21 14:31:44</time>
      </trkpt>
      <trkpt lat="42.39626" lon="2.85932">
        <ele>136.6</ele>
        <time>2022-05-21 14:31:45</time>
      </trkpt>
      <trkpt lat="42.39622" lon="2.85925">
        <ele>136.6</ele>
        <time>2022-05-21 14:31:46</time>
      </trkpt>
      <trkpt lat="42.39618" lon="2.85918">
        <ele>136.4</ele>
        <time>2022-05-21 14:31:47</time>
      </trkpt>
      <trkpt lat="42.39613" lon="2.85911">
        <ele>136.2</ele>
        <time>2022-05-21 14:31:48</time>
      </trkpt>
      <trkpt lat="42.39609" lon="2.85904">
        <ele>136</ele>
        <time>2022-05-21 14:31:49</time>
      </trkpt>
      <trkpt lat="42.39605" lon="2.85896">
        <ele>135.8</ele>
        <time>2022-05-21 14:31:50</time>
      </trkpt>
      <trkpt lat="42.39601" lon="2.85889">
        <ele>135.6</ele>
        <time>2022-05-21 14:31:51</time>
      </trkpt>
      <trkpt lat="42.39596" lon="2.85882">
        <ele>135.6</ele>
        <time>2022-05-21 14:31:52</time>
      </trkpt>
      <trkpt lat="42.39592" lon="2.85876">
        <ele>135.6</ele>
        <time>2022-05-21 14:31:53</time>
      </trkpt>
      <trkpt lat="42.39588" lon="2.85869">
        <ele>135.4</ele>
        <time>2022-05-21 14:31:54</time>
      </trkpt>
      <trkpt lat="42.39584" lon="2.85862">
        <ele>135.4</ele>
        <time>2022-05-21 14:31:55</time>
      </trkpt>
      <trkpt lat="42.3958" lon="2.85856">
        <ele>135.4</ele>
        <time>2022-05-21 14:31:56</time>
      </trkpt>
      <trkpt lat="42.39576" lon="2.85849">
        <ele>135.2</ele>
        <time>2022-05-21 14:31:57</time>
      </trkpt>
      <trkpt lat="42.39572" lon="2.85843">
        <ele>135.2</ele>
        <time>2022-05-21 14:31:58</time>
      </trkpt>
      <trkpt lat="42.39569" lon="2.85837">
        <ele>135.2</ele>
        <time>2022-05-21 14:31:59</time>
      </trkpt>
      <trkpt lat="42.39565" lon="2.8583">
        <ele>135.4</ele>
        <time>2022-05-21 14:32:00</time>
      </trkpt>
      <trkpt lat="42.39562" lon="2.85824">
        <ele>135.4</ele>
        <time>2022-05-21 14:32:01</time>
      </trkpt>
      <trkpt lat="42.39558" lon="2.85819">
        <ele>135.4</ele>
        <time>2022-05-21 14:32:02</time>
      </trkpt>
      <trkpt lat="42.39555" lon="2.85814">
        <ele>135.6</ele>
        <time>2022-05-21 14:32:03</time>
      </trkpt>
      <trkpt lat="42.39552" lon="2.85808">
        <ele>135.8</ele>
        <time>2022-05-21 14:32:04</time>
      </trkpt>
      <trkpt lat="42.39548" lon="2.85803">
        <ele>135.8</ele>
        <time>2022-05-21 14:32:05</time>
      </trkpt>
      <trkpt lat="42.39545" lon="2.85798">
        <ele>136</ele>
        <time>2022-05-21 14:32:06</time>
      </trkpt>
      <trkpt lat="42.39542" lon="2.85793">
        <ele>136.2</ele>
        <time>2022-05-21 14:32:07</time>
      </trkpt>
      <trkpt lat="42.39539" lon="2.85788">
        <ele>136.4</ele>
        <time>2022-05-21 14:32:08</time>
      </trkpt>
      <trkpt lat="42.39536" lon="2.85783">
        <ele>136.6</ele>
        <time>2022-05-21 14:32:09</time>
      </trkpt>
      <trkpt lat="42.39533" lon="2.85779">
        <ele>136.8</ele>
        <time>2022-05-21 14:32:10</time>
      </trkpt>
      <trkpt lat="42.3953" lon="2.85774">
        <ele>137</ele>
        <time>2022-05-21 14:32:11</time>
      </trkpt>
      <trkpt lat="42.39528" lon="2.85769">
        <ele>137.2</ele>
        <time>2022-05-21 14:32:12</time>
      </trkpt>
      <trkpt lat="42.39525" lon="2.85764">
        <ele>137.4</ele>
        <time>2022-05-21 14:32:13</time>
      </trkpt>
      <trkpt lat="42.39522" lon="2.8576">
        <ele>137.6</ele>
        <time>2022-05-21 14:32:14</time>
      </trkpt>
      <trkpt lat="42.3952" lon="2.85755">
        <ele>137.6</ele>
        <time>2022-05-21 14:32:15</time>
      </trkpt>
      <trkpt lat="42.39517" lon="2.85751">
        <ele>137.8</ele>
        <time>2022-05-21 14:32:16</time>
      </trkpt>
      <trkpt lat="42.39515" lon="2.85746">
        <ele>137.8</ele>
        <time>2022-05-21 14:32:17</time>
      </trkpt>
      <trkpt lat="42.39512" lon="2.85742">
        <ele>138</ele>
        <time>2022-05-21 14:32:18</time>
      </trkpt>
      <trkpt lat="42.3951" lon="2.85737">
        <ele>138</ele>
        <time>2022-05-21 14:32:19</time>
      </trkpt>
      <trkpt lat="42.39508" lon="2.85732">
        <ele>138.2</ele>
        <time>2022-05-21 14:32:20</time>
      </trkpt>
      <trkpt lat="42.39506" lon="2.85728">
        <ele>138.4</ele>
        <time>2022-05-21 14:32:21</time>
      </trkpt>
      <trkpt lat="42.39504" lon="2.85723">
        <ele>138.6</ele>
        <time>2022-05-21 14:32:22</time>
      </trkpt>
      <trkpt lat="42.39503" lon="2.85718">
        <ele>138.6</ele>
        <time>2022-05-21 14:32:23</time>
      </trkpt>
      <trkpt lat="42.39502" lon="2.85713">
        <ele>138.8</ele>
        <time>2022-05-21 14:32:24</time>
      </trkpt>
      <trkpt lat="42.39501" lon="2.85708">
        <ele>139</ele>
        <time>2022-05-21 14:32:25</time>
      </trkpt>
      <trkpt lat="42.395" lon="2.85703">
        <ele>139.2</ele>
        <time>2022-05-21 14:32:26</time>
      </trkpt>
      <trkpt lat="42.39499" lon="2.85698">
        <ele>139.4</ele>
        <time>2022-05-21 14:32:27</time>
      </trkpt>
      <trkpt lat="42.39499" lon="2.85693">
        <ele>139.6</ele>
        <time>2022-05-21 14:32:28</time>
      </trkpt>
      <trkpt lat="42.39499" lon="2.85688">
        <ele>139.8</ele>
        <time>2022-05-21 14:32:29</time>
      </trkpt>
      <trkpt lat="42.39498" lon="2.85683">
        <ele>140.2</ele>
        <time>2022-05-21 14:32:30</time>
      </trkpt>
      <trkpt lat="42.39498" lon="2.85678">
        <ele>140.4</ele>
        <time>2022-05-21 14:32:31</time>
      </trkpt>
      <trkpt lat="42.39497" lon="2.85673">
        <ele>140.6</ele>
        <time>2022-05-21 14:32:32</time>
      </trkpt>
      <trkpt lat="42.39497" lon="2.85668">
        <ele>140.6</ele>
        <time>2022-05-21 14:32:33</time>
      </trkpt>
      <trkpt lat="42.39496" lon="2.85663">
        <ele>140.8</ele>
        <time>2022-05-21 14:32:34</time>
      </trkpt>
      <trkpt lat="42.39496" lon="2.85658">
        <ele>141</ele>
        <time>2022-05-21 14:32:35</time>
      </trkpt>
      <trkpt lat="42.39496" lon="2.85653">
        <ele>141.2</ele>
        <time>2022-05-21 14:32:36</time>
      </trkpt>
      <trkpt lat="42.39496" lon="2.85648">
        <ele>141.2</ele>
        <time>2022-05-21 14:32:37</time>
      </trkpt>
      <trkpt lat="42.39496" lon="2.85643">
        <ele>141.4</ele>
        <time>2022-05-21 14:32:38</time>
      </trkpt>
      <trkpt lat="42.39495" lon="2.85638">
        <ele>141.4</ele>
        <time>2022-05-21 14:32:39</time>
      </trkpt>
      <trkpt lat="42.39495" lon="2.85632">
        <ele>141.6</ele>
        <time>2022-05-21 14:32:40</time>
      </trkpt>
      <trkpt lat="42.39495" lon="2.85627">
        <ele>141.6</ele>
        <time>2022-05-21 14:32:41</time>
      </trkpt>
      <trkpt lat="42.39495" lon="2.85622">
        <ele>141.8</ele>
        <time>2022-05-21 14:32:42</time>
      </trkpt>
      <trkpt lat="42.39494" lon="2.85617">
        <ele>142</ele>
        <time>2022-05-21 14:32:43</time>
      </trkpt>
      <trkpt lat="42.39494" lon="2.85612">
        <ele>142.2</ele>
        <time>2022-05-21 14:32:44</time>
      </trkpt>
      <trkpt lat="42.39493" lon="2.85607">
        <ele>142.2</ele>
        <time>2022-05-21 14:32:45</time>
      </trkpt>
      <trkpt lat="42.39493" lon="2.85602">
        <ele>142.4</ele>
        <time>2022-05-21 14:32:46</time>
      </trkpt>
      <trkpt lat="42.39492" lon="2.85598">
        <ele>142.6</ele>
        <time>2022-05-21 14:32:47</time>
      </trkpt>
      <trkpt lat="42.39491" lon="2.85592">
        <ele>142.8</ele>
        <time>2022-05-21 14:32:48</time>
      </trkpt>
      <trkpt lat="42.39491" lon="2.85587">
        <ele>143</ele>
        <time>2022-05-21 14:32:49</time>
      </trkpt>
      <trkpt lat="42.39491" lon="2.85582">
        <ele>143</ele>
        <time>2022-05-21 14:32:50</time>
      </trkpt>
      <trkpt lat="42.3949" lon="2.85577">
        <ele>143.2</ele>
        <time>2022-05-21 14:32:51</time>
      </trkpt>
      <trkpt lat="42.3949" lon="2.85572">
        <ele>143.4</ele>
        <time>2022-05-21 14:32:52</time>
      </trkpt>
      <trkpt lat="42.39489" lon="2.85567">
        <ele>143.4</ele>
        <time>2022-05-21 14:32:53</time>
      </trkpt>
      <trkpt lat="42.39489" lon="2.85563">
        <ele>143.6</ele>
        <time>2022-05-21 14:32:54</time>
      </trkpt>
      <trkpt lat="42.39488" lon="2.85558">
        <ele>143.6</ele>
        <time>2022-05-21 14:32:55</time>
      </trkpt>
      <trkpt lat="42.39488" lon="2.85553">
        <ele>143.8</ele>
        <time>2022-05-21 14:32:56</time>
      </trkpt>
      <trkpt lat="42.39487" lon="2.85548">
        <ele>144</ele>
        <time>2022-05-21 14:32:57</time>
      </trkpt>
      <trkpt lat="42.39487" lon="2.85543">
        <ele>144</ele>
        <time>2022-05-21 14:32:58</time>
      </trkpt>
      <trkpt lat="42.39486" lon="2.85538">
        <ele>144.2</ele>
        <time>2022-05-21 14:32:59</time>
      </trkpt>
      <trkpt lat="42.39486" lon="2.85533">
        <ele>144.4</ele>
        <time>2022-05-21 14:33:00</time>
      </trkpt>
      <trkpt lat="42.39485" lon="2.85528">
        <ele>144.4</ele>
        <time>2022-05-21 14:33:01</time>
      </trkpt>
      <trkpt lat="42.39485" lon="2.85523">
        <ele>144.6</ele>
        <time>2022-05-21 14:33:02</time>
      </trkpt>
      <trkpt lat="42.39485" lon="2.85518">
        <ele>144.6</ele>
        <time>2022-05-21 14:33:03</time>
      </trkpt>
      <trkpt lat="42.39485" lon="2.85513">
        <ele>144.8</ele>
        <time>2022-05-21 14:33:04</time>
      </trkpt>
      <trkpt lat="42.39484" lon="2.85508">
        <ele>145</ele>
        <time>2022-05-21 14:33:05</time>
      </trkpt>
      <trkpt lat="42.39484" lon="2.85503">
        <ele>145</ele>
        <time>2022-05-21 14:33:06</time>
      </trkpt>
      <trkpt lat="42.39484" lon="2.85498">
        <ele>145.2</ele>
        <time>2022-05-21 14:33:07</time>
      </trkpt>
      <trkpt lat="42.39484" lon="2.85493">
        <ele>145.4</ele>
        <time>2022-05-21 14:33:08</time>
      </trkpt>
      <trkpt lat="42.39483" lon="2.85488">
        <ele>145.4</ele>
        <time>2022-05-21 14:33:09</time>
      </trkpt>
      <trkpt lat="42.39483" lon="2.85483">
        <ele>145.6</ele>
        <time>2022-05-21 14:33:10</time>
      </trkpt>
      <trkpt lat="42.39483" lon="2.85478">
        <ele>145.8</ele>
        <time>2022-05-21 14:33:11</time>
      </trkpt>
      <trkpt lat="42.39483" lon="2.85473">
        <ele>145.8</ele>
        <time>2022-05-21 14:33:12</time>
      </trkpt>
      <trkpt lat="42.39482" lon="2.85468">
        <ele>146</ele>
        <time>2022-05-21 14:33:13</time>
      </trkpt>
      <trkpt lat="42.39482" lon="2.85463">
        <ele>146</ele>
        <time>2022-05-21 14:33:14</time>
      </trkpt>
      <trkpt lat="42.39482" lon="2.85458">
        <ele>146.2</ele>
        <time>2022-05-21 14:33:15</time>
      </trkpt>
      <trkpt lat="42.39482" lon="2.85453">
        <ele>146.4</ele>
        <time>2022-05-21 14:33:16</time>
      </trkpt>
      <trkpt lat="42.39481" lon="2.85448">
        <ele>146.4</ele>
        <time>2022-05-21 14:33:17</time>
      </trkpt>
      <trkpt lat="42.39481" lon="2.85443">
        <ele>146.6</ele>
        <time>2022-05-21 14:33:18</time>
      </trkpt>
      <trkpt lat="42.39481" lon="2.85438">
        <ele>146.8</ele>
        <time>2022-05-21 14:33:19</time>
      </trkpt>
      <trkpt lat="42.3948" lon="2.85433">
        <ele>147</ele>
        <time>2022-05-21 14:33:20</time>
      </trkpt>
      <trkpt lat="42.39479" lon="2.85428">
        <ele>147.2</ele>
        <time>2022-05-21 14:33:21</time>
      </trkpt>
      <trkpt lat="42.39479" lon="2.85423">
        <ele>147.2</ele>
        <time>2022-05-21 14:33:22</time>
      </trkpt>
      <trkpt lat="42.39479" lon="2.85418">
        <ele>147.4</ele>
        <time>2022-05-21 14:33:23</time>
      </trkpt>
      <trkpt lat="42.39478" lon="2.85412">
        <ele>147.6</ele>
        <time>2022-05-21 14:33:24</time>
      </trkpt>
      <trkpt lat="42.39478" lon="2.85407">
        <ele>147.8</ele>
        <time>2022-05-21 14:33:25</time>
      </trkpt>
      <trkpt lat="42.39478" lon="2.85402">
        <ele>148</ele>
        <time>2022-05-21 14:33:26</time>
      </trkpt>
      <trkpt lat="42.39478" lon="2.85397">
        <ele>148</ele>
        <time>2022-05-21 14:33:27</time>
      </trkpt>
      <trkpt lat="42.39477" lon="2.85392">
        <ele>148.2</ele>
        <time>2022-05-21 14:33:28</time>
      </trkpt>
      <trkpt lat="42.39477" lon="2.85387">
        <ele>148.4</ele>
        <time>2022-05-21 14:33:29</time>
      </trkpt>
      <trkpt lat="42.39477" lon="2.85382">
        <ele>148.4</ele>
        <time>2022-05-21 14:33:30</time>
      </trkpt>
      <trkpt lat="42.39478" lon="2.85377">
        <ele>148.6</ele>
        <time>2022-05-21 14:33:31</time>
      </trkpt>
      <trkpt lat="42.39478" lon="2.85372">
        <ele>148.6</ele>
        <time>2022-05-21 14:33:32</time>
      </trkpt>
      <trkpt lat="42.39479" lon="2.85367">
        <ele>148.8</ele>
        <time>2022-05-21 14:33:33</time>
      </trkpt>
      <trkpt lat="42.3948" lon="2.85362">
        <ele>148.8</ele>
        <time>2022-05-21 14:33:34</time>
      </trkpt>
      <trkpt lat="42.39481" lon="2.85357">
        <ele>149</ele>
        <time>2022-05-21 14:33:35</time>
      </trkpt>
      <trkpt lat="42.39482" lon="2.85352">
        <ele>149</ele>
        <time>2022-05-21 14:33:36</time>
      </trkpt>
      <trkpt lat="42.39484" lon="2.85348">
        <ele>149.2</ele>
        <time>2022-05-21 14:33:37</time>
      </trkpt>
      <trkpt lat="42.39485" lon="2.85343">
        <ele>149.2</ele>
        <time>2022-05-21 14:33:38</time>
      </trkpt>
      <trkpt lat="42.39487" lon="2.85338">
        <ele>149.2</ele>
        <time>2022-05-21 14:33:39</time>
      </trkpt>
      <trkpt lat="42.3949" lon="2.85333">
        <ele>149.4</ele>
        <time>2022-05-21 14:33:40</time>
      </trkpt>
      <trkpt lat="42.39492" lon="2.85329">
        <ele>149.4</ele>
        <time>2022-05-21 14:33:41</time>
      </trkpt>
      <trkpt lat="42.39495" lon="2.85325">
        <ele>149.4</ele>
        <time>2022-05-21 14:33:42</time>
      </trkpt>
      <trkpt lat="42.39498" lon="2.85321">
        <ele>149.4</ele>
        <time>2022-05-21 14:33:43</time>
      </trkpt>
      <trkpt lat="42.39502" lon="2.85317">
        <ele>149.4</ele>
        <time>2022-05-21 14:33:44</time>
      </trkpt>
      <trkpt lat="42.39505" lon="2.85313">
        <ele>149.4</ele>
        <time>2022-05-21 14:33:45</time>
      </trkpt>
      <trkpt lat="42.39509" lon="2.85309">
        <ele>149.4</ele>
        <time>2022-05-21 14:33:46</time>
      </trkpt>
      <trkpt lat="42.39512" lon="2.85305">
        <ele>149.4</ele>
        <time>2022-05-21 14:33:47</time>
      </trkpt>
      <trkpt lat="42.39516" lon="2.853">
        <ele>149.4</ele>
        <time>2022-05-21 14:33:48</time>
      </trkpt>
      <trkpt lat="42.3952" lon="2.85296">
        <ele>149.4</ele>
        <time>2022-05-21 14:33:49</time>
      </trkpt>
      <trkpt lat="42.39524" lon="2.85291">
        <ele>149.6</ele>
        <time>2022-05-21 14:33:50</time>
      </trkpt>
      <trkpt lat="42.39528" lon="2.85286">
        <ele>149.6</ele>
        <time>2022-05-21 14:33:51</time>
      </trkpt>
      <trkpt lat="42.39531" lon="2.85282">
        <ele>149.6</ele>
        <time>2022-05-21 14:33:52</time>
      </trkpt>
      <trkpt lat="42.39535" lon="2.85277">
        <ele>149.6</ele>
        <time>2022-05-21 14:33:53</time>
      </trkpt>
      <trkpt lat="42.39539" lon="2.85272">
        <ele>149.4</ele>
        <time>2022-05-21 14:33:54</time>
      </trkpt>
      <trkpt lat="42.39543" lon="2.85267">
        <ele>149.4</ele>
        <time>2022-05-21 14:33:55</time>
      </trkpt>
      <trkpt lat="42.39546" lon="2.85262">
        <ele>149.4</ele>
        <time>2022-05-21 14:33:56</time>
      </trkpt>
      <trkpt lat="42.3955" lon="2.85257">
        <ele>149.4</ele>
        <time>2022-05-21 14:33:57</time>
      </trkpt>
      <trkpt lat="42.39554" lon="2.85252">
        <ele>149.4</ele>
        <time>2022-05-21 14:33:58</time>
      </trkpt>
      <trkpt lat="42.39557" lon="2.85247">
        <ele>149.4</ele>
        <time>2022-05-21 14:33:59</time>
      </trkpt>
      <trkpt lat="42.39561" lon="2.85242">
        <ele>149.4</ele>
        <time>2022-05-21 14:34:00</time>
      </trkpt>
      <trkpt lat="42.39563" lon="2.85236">
        <ele>149.6</ele>
        <time>2022-05-21 14:34:01</time>
      </trkpt>
      <trkpt lat="42.39565" lon="2.85229">
        <ele>149.6</ele>
        <time>2022-05-21 14:34:02</time>
      </trkpt>
      <trkpt lat="42.39565" lon="2.85222">
        <ele>149.6</ele>
        <time>2022-05-21 14:34:03</time>
      </trkpt>
      <trkpt lat="42.39565" lon="2.85215">
        <ele>149.6</ele>
        <time>2022-05-21 14:34:04</time>
      </trkpt>
      <trkpt lat="42.39563" lon="2.85209">
        <ele>149.6</ele>
        <time>2022-05-21 14:34:05</time>
      </trkpt>
      <trkpt lat="42.39561" lon="2.85203">
        <ele>149.6</ele>
        <time>2022-05-21 14:34:06</time>
      </trkpt>
      <trkpt lat="42.39557" lon="2.85198">
        <ele>149.6</ele>
        <time>2022-05-21 14:34:07</time>
      </trkpt>
      <trkpt lat="42.39553" lon="2.85194">
        <ele>149.6</ele>
        <time>2022-05-21 14:34:08</time>
      </trkpt>
      <trkpt lat="42.39549" lon="2.8519">
        <ele>149.8</ele>
        <time>2022-05-21 14:34:09</time>
      </trkpt>
      <trkpt lat="42.39544" lon="2.85186">
        <ele>149.8</ele>
        <time>2022-05-21 14:34:10</time>
      </trkpt>
      <trkpt lat="42.3954" lon="2.85183">
        <ele>149.8</ele>
        <time>2022-05-21 14:34:11</time>
      </trkpt>
      <trkpt lat="42.39535" lon="2.85179">
        <ele>149.8</ele>
        <time>2022-05-21 14:34:12</time>
      </trkpt>
      <trkpt lat="42.39531" lon="2.85176">
        <ele>149.8</ele>
        <time>2022-05-21 14:34:13</time>
      </trkpt>
      <trkpt lat="42.39527" lon="2.85172">
        <ele>149.6</ele>
        <time>2022-05-21 14:34:14</time>
      </trkpt>
      <trkpt lat="42.39523" lon="2.85168">
        <ele>149.6</ele>
        <time>2022-05-21 14:34:15</time>
      </trkpt>
      <trkpt lat="42.39518" lon="2.85165">
        <ele>149.6</ele>
        <time>2022-05-21 14:34:16</time>
      </trkpt>
      <trkpt lat="42.39513" lon="2.85161">
        <ele>149.6</ele>
        <time>2022-05-21 14:34:17</time>
      </trkpt>
      <trkpt lat="42.39508" lon="2.85158">
        <ele>149.6</ele>
        <time>2022-05-21 14:34:18</time>
      </trkpt>
      <trkpt lat="42.39503" lon="2.85154">
        <ele>149.6</ele>
        <time>2022-05-21 14:34:19</time>
      </trkpt>
      <trkpt lat="42.39499" lon="2.8515">
        <ele>149.6</ele>
        <time>2022-05-21 14:34:20</time>
      </trkpt>
      <trkpt lat="42.39494" lon="2.85146">
        <ele>149.6</ele>
        <time>2022-05-21 14:34:21</time>
      </trkpt>
      <trkpt lat="42.3949" lon="2.85141">
        <ele>149.4</ele>
        <time>2022-05-21 14:34:22</time>
      </trkpt>
      <trkpt lat="42.39487" lon="2.85135">
        <ele>149.4</ele>
        <time>2022-05-21 14:34:23</time>
      </trkpt>
      <trkpt lat="42.39484" lon="2.85128">
        <ele>149.4</ele>
        <time>2022-05-21 14:34:24</time>
      </trkpt>
      <trkpt lat="42.39482" lon="2.85122">
        <ele>149.4</ele>
        <time>2022-05-21 14:34:25</time>
      </trkpt>
      <trkpt lat="42.39481" lon="2.85115">
        <ele>149.4</ele>
        <time>2022-05-21 14:34:26</time>
      </trkpt>
      <trkpt lat="42.3948" lon="2.85107">
        <ele>149.4</ele>
        <time>2022-05-21 14:34:27</time>
      </trkpt>
      <trkpt lat="42.3948" lon="2.85099">
        <ele>149.2</ele>
        <time>2022-05-21 14:34:28</time>
      </trkpt>
      <trkpt lat="42.39482" lon="2.85091">
        <ele>149.2</ele>
        <time>2022-05-21 14:34:29</time>
      </trkpt>
      <trkpt lat="42.39484" lon="2.85083">
        <ele>149.2</ele>
        <time>2022-05-21 14:34:30</time>
      </trkpt>
      <trkpt lat="42.39487" lon="2.85076">
        <ele>149</ele>
        <time>2022-05-21 14:34:31</time>
      </trkpt>
      <trkpt lat="42.39491" lon="2.8507">
        <ele>149</ele>
        <time>2022-05-21 14:34:32</time>
      </trkpt>
      <trkpt lat="42.39495" lon="2.85064">
        <ele>149</ele>
        <time>2022-05-21 14:34:33</time>
      </trkpt>
      <trkpt lat="42.39501" lon="2.85058">
        <ele>149</ele>
        <time>2022-05-21 14:34:34</time>
      </trkpt>
      <trkpt lat="42.39506" lon="2.85053">
        <ele>148.8</ele>
        <time>2022-05-21 14:34:35</time>
      </trkpt>
      <trkpt lat="42.39511" lon="2.85047">
        <ele>148.8</ele>
        <time>2022-05-21 14:34:36</time>
      </trkpt>
      <trkpt lat="42.39516" lon="2.85042">
        <ele>148.6</ele>
        <time>2022-05-21 14:34:37</time>
      </trkpt>
      <trkpt lat="42.39522" lon="2.85036">
        <ele>148.4</ele>
        <time>2022-05-21 14:34:38</time>
      </trkpt>
      <trkpt lat="42.39527" lon="2.85031">
        <ele>148.4</ele>
        <time>2022-05-21 14:34:39</time>
      </trkpt>
      <trkpt lat="42.39532" lon="2.85026">
        <ele>148.2</ele>
        <time>2022-05-21 14:34:40</time>
      </trkpt>
      <trkpt lat="42.39537" lon="2.8502">
        <ele>148.2</ele>
        <time>2022-05-21 14:34:41</time>
      </trkpt>
      <trkpt lat="42.39543" lon="2.85015">
        <ele>148</ele>
        <time>2022-05-21 14:34:42</time>
      </trkpt>
      <trkpt lat="42.39548" lon="2.8501">
        <ele>148</ele>
        <time>2022-05-21 14:34:43</time>
      </trkpt>
      <trkpt lat="42.39554" lon="2.85004">
        <ele>147.8</ele>
        <time>2022-05-21 14:34:44</time>
      </trkpt>
      <trkpt lat="42.39559" lon="2.84998">
        <ele>147.6</ele>
        <time>2022-05-21 14:34:45</time>
      </trkpt>
      <trkpt lat="42.39565" lon="2.84991">
        <ele>147.2</ele>
        <time>2022-05-21 14:34:46</time>
      </trkpt>
      <trkpt lat="42.39571" lon="2.84985">
        <ele>147</ele>
        <time>2022-05-21 14:34:47</time>
      </trkpt>
      <trkpt lat="42.39577" lon="2.84978">
        <ele>146.6</ele>
        <time>2022-05-21 14:34:48</time>
      </trkpt>
      <trkpt lat="42.39583" lon="2.84971">
        <ele>146.2</ele>
        <time>2022-05-21 14:34:49</time>
      </trkpt>
      <trkpt lat="42.39589" lon="2.84964">
        <ele>146</ele>
        <time>2022-05-21 14:34:50</time>
      </trkpt>
      <trkpt lat="42.39594" lon="2.84955">
        <ele>145.4</ele>
        <time>2022-05-21 14:34:51</time>
      </trkpt>
      <trkpt lat="42.396" lon="2.84947">
        <ele>145</ele>
        <time>2022-05-21 14:34:52</time>
      </trkpt>
      <trkpt lat="42.39607" lon="2.84938">
        <ele>144.8</ele>
        <time>2022-05-21 14:34:53</time>
      </trkpt>
      <trkpt lat="42.39613" lon="2.84929">
        <ele>144.4</ele>
        <time>2022-05-21 14:34:54</time>
      </trkpt>
      <trkpt lat="42.39619" lon="2.8492">
        <ele>144</ele>
        <time>2022-05-21 14:34:55</time>
      </trkpt>
      <trkpt lat="42.39624" lon="2.8491">
        <ele>143.6</ele>
        <time>2022-05-21 14:34:56</time>
      </trkpt>
      <trkpt lat="42.39628" lon="2.84898">
        <ele>143.4</ele>
        <time>2022-05-21 14:34:57</time>
      </trkpt>
      <trkpt lat="42.3963" lon="2.84887">
        <ele>143</ele>
        <time>2022-05-21 14:34:58</time>
      </trkpt>
      <trkpt lat="42.39631" lon="2.84875">
        <ele>142.6</ele>
        <time>2022-05-21 14:34:59</time>
      </trkpt>
      <trkpt lat="42.39628" lon="2.84865">
        <ele>142.4</ele>
        <time>2022-05-21 14:35:00</time>
      </trkpt>
      <trkpt lat="42.39623" lon="2.84857">
        <ele>142.2</ele>
        <time>2022-05-21 14:35:01</time>
      </trkpt>
      <trkpt lat="42.39616" lon="2.84849">
        <ele>142</ele>
        <time>2022-05-21 14:35:02</time>
      </trkpt>
      <trkpt lat="42.39609" lon="2.84842">
        <ele>142</ele>
        <time>2022-05-21 14:35:03</time>
      </trkpt>
      <trkpt lat="42.39603" lon="2.84835">
        <ele>142</ele>
        <time>2022-05-21 14:35:04</time>
      </trkpt>
      <trkpt lat="42.39597" lon="2.84828">
        <ele>142.2</ele>
        <time>2022-05-21 14:35:05</time>
      </trkpt>
      <trkpt lat="42.3959" lon="2.84822">
        <ele>142.2</ele>
        <time>2022-05-21 14:35:06</time>
      </trkpt>
      <trkpt lat="42.39584" lon="2.84817">
        <ele>142.2</ele>
        <time>2022-05-21 14:35:07</time>
      </trkpt>
      <trkpt lat="42.39577" lon="2.84814">
        <ele>142.4</ele>
        <time>2022-05-21 14:35:08</time>
      </trkpt>
      <trkpt lat="42.3957" lon="2.84812">
        <ele>142.4</ele>
        <time>2022-05-21 14:35:09</time>
      </trkpt>
      <trkpt lat="42.39562" lon="2.84811">
        <ele>142.4</ele>
        <time>2022-05-21 14:35:10</time>
      </trkpt>
      <trkpt lat="42.39555" lon="2.84811">
        <ele>142.6</ele>
        <time>2022-05-21 14:35:11</time>
      </trkpt>
      <trkpt lat="42.39549" lon="2.84811">
        <ele>143</ele>
        <time>2022-05-21 14:35:12</time>
      </trkpt>
      <trkpt lat="42.39543" lon="2.84813">
        <ele>143.2</ele>
        <time>2022-05-21 14:35:13</time>
      </trkpt>
      <trkpt lat="42.39538" lon="2.84815">
        <ele>143.4</ele>
        <time>2022-05-21 14:35:14</time>
      </trkpt>
      <trkpt lat="42.39534" lon="2.84817">
        <ele>143.8</ele>
        <time>2022-05-21 14:35:15</time>
      </trkpt>
      <trkpt lat="42.3953" lon="2.84821">
        <ele>144</ele>
        <time>2022-05-21 14:35:16</time>
      </trkpt>
      <trkpt lat="42.39527" lon="2.84824">
        <ele>144.4</ele>
        <time>2022-05-21 14:35:17</time>
      </trkpt>
      <trkpt lat="42.39524" lon="2.84827">
        <ele>144.6</ele>
        <time>2022-05-21 14:35:18</time>
      </trkpt>
      <trkpt lat="42.3952" lon="2.8483">
        <ele>145</ele>
        <time>2022-05-21 14:35:19</time>
      </trkpt>
      <trkpt lat="42.39517" lon="2.84833">
        <ele>145.2</ele>
        <time>2022-05-21 14:35:20</time>
      </trkpt>
      <trkpt lat="42.39514" lon="2.84836">
        <ele>145.6</ele>
        <time>2022-05-21 14:35:21</time>
      </trkpt>
      <trkpt lat="42.39512" lon="2.84839">
        <ele>146</ele>
        <time>2022-05-21 14:35:22</time>
      </trkpt>
      <trkpt lat="42.3951" lon="2.84842">
        <ele>146.2</ele>
        <time>2022-05-21 14:35:23</time>
      </trkpt>
      <trkpt lat="42.39507" lon="2.84844">
        <ele>146.4</ele>
        <time>2022-05-21 14:35:24</time>
      </trkpt>
      <trkpt lat="42.39505" lon="2.84847">
        <ele>146.6</ele>
        <time>2022-05-21 14:35:25</time>
      </trkpt>
      <trkpt lat="42.39503" lon="2.8485">
        <ele>147</ele>
        <time>2022-05-21 14:35:26</time>
      </trkpt>
      <trkpt lat="42.395" lon="2.84853">
        <ele>147.2</ele>
        <time>2022-05-21 14:35:27</time>
      </trkpt>
      <trkpt lat="42.39498" lon="2.84855">
        <ele>147.4</ele>
        <time>2022-05-21 14:35:28</time>
      </trkpt>
      <trkpt lat="42.39496" lon="2.84858">
        <ele>147.6</ele>
        <time>2022-05-21 14:35:29</time>
      </trkpt>
      <trkpt lat="42.39494" lon="2.8486">
        <ele>147.6</ele>
        <time>2022-05-21 14:35:30</time>
      </trkpt>
      <trkpt lat="42.39491" lon="2.84862">
        <ele>147.8</ele>
        <time>2022-05-21 14:35:31</time>
      </trkpt>
      <trkpt lat="42.39489" lon="2.84864">
        <ele>148</ele>
        <time>2022-05-21 14:35:32</time>
      </trkpt>
      <trkpt lat="42.39486" lon="2.84865">
        <ele>148.2</ele>
        <time>2022-05-21 14:35:33</time>
      </trkpt>
      <trkpt lat="42.39484" lon="2.84865">
        <ele>148.4</ele>
        <time>2022-05-21 14:35:34</time>
      </trkpt>
      <trkpt lat="42.3948" lon="2.84865">
        <ele>148.6</ele>
        <time>2022-05-21 14:35:35</time>
      </trkpt>
      <trkpt lat="42.39477" lon="2.84864">
        <ele>148.8</ele>
        <time>2022-05-21 14:35:36</time>
      </trkpt>
      <trkpt lat="42.39475" lon="2.84864">
        <ele>149</ele>
        <time>2022-05-21 14:35:37</time>
      </trkpt>
      <trkpt lat="42.39473" lon="2.84863">
        <ele>149.2</ele>
        <time>2022-05-21 14:35:38</time>
      </trkpt>
      <trkpt lat="42.39471" lon="2.84861">
        <ele>149.6</ele>
        <time>2022-05-21 14:35:39</time>
      </trkpt>
      <trkpt lat="42.39469" lon="2.8486">
        <ele>149.8</ele>
        <time>2022-05-21 14:35:40</time>
      </trkpt>
      <trkpt lat="42.39467" lon="2.84859">
        <ele>150</ele>
        <time>2022-05-21 14:35:41</time>
      </trkpt>
      <trkpt lat="42.39465" lon="2.84858">
        <ele>150.2</ele>
        <time>2022-05-21 14:35:42</time>
      </trkpt>
      <trkpt lat="42.39463" lon="2.84858">
        <ele>150.4</ele>
        <time>2022-05-21 14:35:43</time>
      </trkpt>
      <trkpt lat="42.3946" lon="2.84859">
        <ele>150.4</ele>
        <time>2022-05-21 14:35:44</time>
      </trkpt>
      <trkpt lat="42.39457" lon="2.84862">
        <ele>150.4</ele>
        <time>2022-05-21 14:35:45</time>
      </trkpt>
      <trkpt lat="42.39455" lon="2.84866">
        <ele>150.2</ele>
        <time>2022-05-21 14:35:46</time>
      </trkpt>
      <trkpt lat="42.39452" lon="2.84871">
        <ele>150</ele>
        <time>2022-05-21 14:35:47</time>
      </trkpt>
      <trkpt lat="42.39449" lon="2.84877">
        <ele>149.6</ele>
        <time>2022-05-21 14:35:48</time>
      </trkpt>
      <trkpt lat="42.39447" lon="2.84883">
        <ele>149.4</ele>
        <time>2022-05-21 14:35:49</time>
      </trkpt>
      <trkpt lat="42.39443" lon="2.8489">
        <ele>148.8</ele>
        <time>2022-05-21 14:35:50</time>
      </trkpt>
      <trkpt lat="42.3944" lon="2.84897">
        <ele>148.4</ele>
        <time>2022-05-21 14:35:51</time>
      </trkpt>
      <trkpt lat="42.39436" lon="2.84905">
        <ele>148</ele>
        <time>2022-05-21 14:35:52</time>
      </trkpt>
      <trkpt lat="42.39432" lon="2.84913">
        <ele>147.6</ele>
        <time>2022-05-21 14:35:53</time>
      </trkpt>
      <trkpt lat="42.39428" lon="2.84922">
        <ele>147</ele>
        <time>2022-05-21 14:35:54</time>
      </trkpt>
      <trkpt lat="42.39424" lon="2.8493">
        <ele>146.6</ele>
        <time>2022-05-21 14:35:55</time>
      </trkpt>
      <trkpt lat="42.39419" lon="2.8494">
        <ele>146.2</ele>
        <time>2022-05-21 14:35:56</time>
      </trkpt>
      <trkpt lat="42.39415" lon="2.84949">
        <ele>145.8</ele>
        <time>2022-05-21 14:35:57</time>
      </trkpt>
      <trkpt lat="42.3941" lon="2.84958">
        <ele>145.4</ele>
        <time>2022-05-21 14:35:58</time>
      </trkpt>
      <trkpt lat="42.39405" lon="2.84968">
        <ele>145</ele>
        <time>2022-05-21 14:35:59</time>
      </trkpt>
      <trkpt lat="42.39401" lon="2.84976">
        <ele>144.4</ele>
        <time>2022-05-21 14:36:00</time>
      </trkpt>
      <trkpt lat="42.39395" lon="2.84984">
        <ele>144</ele>
        <time>2022-05-21 14:36:01</time>
      </trkpt>
      <trkpt lat="42.39388" lon="2.84993">
        <ele>143.6</ele>
        <time>2022-05-21 14:36:02</time>
      </trkpt>
      <trkpt lat="42.39381" lon="2.84999">
        <ele>143.4</ele>
        <time>2022-05-21 14:36:03</time>
      </trkpt>
      <trkpt lat="42.39374" lon="2.85004">
        <ele>143.2</ele>
        <time>2022-05-21 14:36:04</time>
      </trkpt>
      <trkpt lat="42.39367" lon="2.85009">
        <ele>143</ele>
        <time>2022-05-21 14:36:05</time>
      </trkpt>
      <trkpt lat="42.39358" lon="2.85015">
        <ele>143</ele>
        <time>2022-05-21 14:36:06</time>
      </trkpt>
      <trkpt lat="42.39351" lon="2.8502">
        <ele>143</ele>
        <time>2022-05-21 14:36:07</time>
      </trkpt>
      <trkpt lat="42.39345" lon="2.85025">
        <ele>143.2</ele>
        <time>2022-05-21 14:36:08</time>
      </trkpt>
      <trkpt lat="42.39339" lon="2.8503">
        <ele>143.4</ele>
        <time>2022-05-21 14:36:09</time>
      </trkpt>
      <trkpt lat="42.39334" lon="2.85035">
        <ele>143.6</ele>
        <time>2022-05-21 14:36:10</time>
      </trkpt>
      <trkpt lat="42.39329" lon="2.85041">
        <ele>143.8</ele>
        <time>2022-05-21 14:36:11</time>
      </trkpt>
      <trkpt lat="42.39326" lon="2.85047">
        <ele>144</ele>
        <time>2022-05-21 14:36:12</time>
      </trkpt>
      <trkpt lat="42.39322" lon="2.85053">
        <ele>144.2</ele>
        <time>2022-05-21 14:36:13</time>
      </trkpt>
      <trkpt lat="42.39318" lon="2.85059">
        <ele>144.6</ele>
        <time>2022-05-21 14:36:14</time>
      </trkpt>
      <trkpt lat="42.39315" lon="2.85065">
        <ele>144.8</ele>
        <time>2022-05-21 14:36:15</time>
      </trkpt>
      <trkpt lat="42.39312" lon="2.8507">
        <ele>145</ele>
        <time>2022-05-21 14:36:16</time>
      </trkpt>
      <trkpt lat="42.39309" lon="2.85076">
        <ele>145.2</ele>
        <time>2022-05-21 14:36:17</time>
      </trkpt>
      <trkpt lat="42.39306" lon="2.85082">
        <ele>145.2</ele>
        <time>2022-05-21 14:36:18</time>
      </trkpt>
      <trkpt lat="42.39303" lon="2.85087">
        <ele>145.4</ele>
        <time>2022-05-21 14:36:19</time>
      </trkpt>
      <trkpt lat="42.393" lon="2.85091">
        <ele>145.6</ele>
        <time>2022-05-21 14:36:20</time>
      </trkpt>
      <trkpt lat="42.39298" lon="2.85096">
        <ele>145.8</ele>
        <time>2022-05-21 14:36:21</time>
      </trkpt>
      <trkpt lat="42.39295" lon="2.85102">
        <ele>146</ele>
        <time>2022-05-21 14:36:22</time>
      </trkpt>
      <trkpt lat="42.39292" lon="2.85107">
        <ele>146.2</ele>
        <time>2022-05-21 14:36:23</time>
      </trkpt>
      <trkpt lat="42.39289" lon="2.85112">
        <ele>146.2</ele>
        <time>2022-05-21 14:36:24</time>
      </trkpt>
      <trkpt lat="42.39286" lon="2.85117">
        <ele>146.4</ele>
        <time>2022-05-21 14:36:25</time>
      </trkpt>
      <trkpt lat="42.39283" lon="2.85121">
        <ele>146.6</ele>
        <time>2022-05-21 14:36:26</time>
      </trkpt>
      <trkpt lat="42.3928" lon="2.85125">
        <ele>146.8</ele>
        <time>2022-05-21 14:36:27</time>
      </trkpt>
      <trkpt lat="42.39276" lon="2.85128">
        <ele>147</ele>
        <time>2022-05-21 14:36:28</time>
      </trkpt>
      <trkpt lat="42.39272" lon="2.85131">
        <ele>147.2</ele>
        <time>2022-05-21 14:36:29</time>
      </trkpt>
      <trkpt lat="42.39268" lon="2.85134">
        <ele>147.4</ele>
        <time>2022-05-21 14:36:30</time>
      </trkpt>
      <trkpt lat="42.39264" lon="2.85135">
        <ele>147.6</ele>
        <time>2022-05-21 14:36:31</time>
      </trkpt>
      <trkpt lat="42.39259" lon="2.85136">
        <ele>147.8</ele>
        <time>2022-05-21 14:36:32</time>
      </trkpt>
      <trkpt lat="42.39255" lon="2.85137">
        <ele>147.8</ele>
        <time>2022-05-21 14:36:33</time>
      </trkpt>
      <trkpt lat="42.3925" lon="2.85139">
        <ele>148</ele>
        <time>2022-05-21 14:36:34</time>
      </trkpt>
      <trkpt lat="42.39246" lon="2.8514">
        <ele>148.2</ele>
        <time>2022-05-21 14:36:35</time>
      </trkpt>
      <trkpt lat="42.39243" lon="2.85142">
        <ele>148.2</ele>
        <time>2022-05-21 14:36:36</time>
      </trkpt>
      <trkpt lat="42.39239" lon="2.85144">
        <ele>148.4</ele>
        <time>2022-05-21 14:36:37</time>
      </trkpt>
      <trkpt lat="42.39235" lon="2.85146">
        <ele>148.6</ele>
        <time>2022-05-21 14:36:38</time>
      </trkpt>
      <trkpt lat="42.39232" lon="2.85148">
        <ele>148.8</ele>
        <time>2022-05-21 14:36:39</time>
      </trkpt>
      <trkpt lat="42.39228" lon="2.85149">
        <ele>149</ele>
        <time>2022-05-21 14:36:40</time>
      </trkpt>
      <trkpt lat="42.39223" lon="2.8515">
        <ele>149</ele>
        <time>2022-05-21 14:36:41</time>
      </trkpt>
      <trkpt lat="42.39219" lon="2.85152">
        <ele>149.2</ele>
        <time>2022-05-21 14:36:42</time>
      </trkpt>
      <trkpt lat="42.39215" lon="2.85153">
        <ele>149.4</ele>
        <time>2022-05-21 14:36:43</time>
      </trkpt>
      <trkpt lat="42.39211" lon="2.85155">
        <ele>149.4</ele>
        <time>2022-05-21 14:36:44</time>
      </trkpt>
      <trkpt lat="42.39208" lon="2.85156">
        <ele>149.6</ele>
        <time>2022-05-21 14:36:45</time>
      </trkpt>
      <trkpt lat="42.39204" lon="2.85157">
        <ele>149.6</ele>
        <time>2022-05-21 14:36:46</time>
      </trkpt>
      <trkpt lat="42.39199" lon="2.85158">
        <ele>149.8</ele>
        <time>2022-05-21 14:36:47</time>
      </trkpt>
      <trkpt lat="42.39195" lon="2.85159">
        <ele>149.8</ele>
        <time>2022-05-21 14:36:48</time>
      </trkpt>
      <trkpt lat="42.39191" lon="2.8516">
        <ele>150</ele>
        <time>2022-05-21 14:36:49</time>
      </trkpt>
      <trkpt lat="42.39186" lon="2.85162">
        <ele>150.2</ele>
        <time>2022-05-21 14:36:50</time>
      </trkpt>
      <trkpt lat="42.39182" lon="2.85163">
        <ele>150.2</ele>
        <time>2022-05-21 14:36:51</time>
      </trkpt>
      <trkpt lat="42.39178" lon="2.85164">
        <ele>150.4</ele>
        <time>2022-05-21 14:36:52</time>
      </trkpt>
      <trkpt lat="42.39173" lon="2.85165">
        <ele>150.4</ele>
        <time>2022-05-21 14:36:53</time>
      </trkpt>
      <trkpt lat="42.39169" lon="2.85165">
        <ele>150.6</ele>
        <time>2022-05-21 14:36:54</time>
      </trkpt>
      <trkpt lat="42.39166" lon="2.85166">
        <ele>150.6</ele>
        <time>2022-05-21 14:36:55</time>
      </trkpt>
      <trkpt lat="42.39161" lon="2.85167">
        <ele>150.8</ele>
        <time>2022-05-21 14:36:56</time>
      </trkpt>
      <trkpt lat="42.39157" lon="2.85169">
        <ele>151</ele>
        <time>2022-05-21 14:36:57</time>
      </trkpt>
      <trkpt lat="42.39153" lon="2.8517">
        <ele>151</ele>
        <time>2022-05-21 14:36:58</time>
      </trkpt>
      <trkpt lat="42.39149" lon="2.8517">
        <ele>151</ele>
        <time>2022-05-21 14:36:59</time>
      </trkpt>
      <trkpt lat="42.39145" lon="2.85171">
        <ele>151.2</ele>
        <time>2022-05-21 14:37:00</time>
      </trkpt>
      <trkpt lat="42.39141" lon="2.85172">
        <ele>151.2</ele>
        <time>2022-05-21 14:37:01</time>
      </trkpt>
      <trkpt lat="42.39137" lon="2.85173">
        <ele>151.4</ele>
        <time>2022-05-21 14:37:02</time>
      </trkpt>
      <trkpt lat="42.39133" lon="2.85175">
        <ele>151.4</ele>
        <time>2022-05-21 14:37:03</time>
      </trkpt>
      <trkpt lat="42.39129" lon="2.85176">
        <ele>151.6</ele>
        <time>2022-05-21 14:37:04</time>
      </trkpt>
      <trkpt lat="42.39125" lon="2.85177">
        <ele>151.6</ele>
        <time>2022-05-21 14:37:05</time>
      </trkpt>
      <trkpt lat="42.39121" lon="2.85178">
        <ele>151.8</ele>
        <time>2022-05-21 14:37:06</time>
      </trkpt>
      <trkpt lat="42.39118" lon="2.85179">
        <ele>151.8</ele>
        <time>2022-05-21 14:37:07</time>
      </trkpt>
      <trkpt lat="42.39114" lon="2.8518">
        <ele>151.8</ele>
        <time>2022-05-21 14:37:08</time>
      </trkpt>
      <trkpt lat="42.3911" lon="2.85181">
        <ele>152</ele>
        <time>2022-05-21 14:37:09</time>
      </trkpt>
      <trkpt lat="42.39106" lon="2.85182">
        <ele>152</ele>
        <time>2022-05-21 14:37:10</time>
      </trkpt>
      <trkpt lat="42.39102" lon="2.85183">
        <ele>152.2</ele>
        <time>2022-05-21 14:37:11</time>
      </trkpt>
      <trkpt lat="42.39099" lon="2.85185">
        <ele>152.4</ele>
        <time>2022-05-21 14:37:12</time>
      </trkpt>
      <trkpt lat="42.39095" lon="2.85186">
        <ele>152.4</ele>
        <time>2022-05-21 14:37:13</time>
      </trkpt>
      <trkpt lat="42.39091" lon="2.85188">
        <ele>152.4</ele>
        <time>2022-05-21 14:37:14</time>
      </trkpt>
      <trkpt lat="42.39087" lon="2.85189">
        <ele>152.4</ele>
        <time>2022-05-21 14:37:15</time>
      </trkpt>
      <trkpt lat="42.39084" lon="2.85192">
        <ele>152.6</ele>
        <time>2022-05-21 14:37:16</time>
      </trkpt>
      <trkpt lat="42.3908" lon="2.85194">
        <ele>152.6</ele>
        <time>2022-05-21 14:37:17</time>
      </trkpt>
      <trkpt lat="42.39077" lon="2.85197">
        <ele>152.8</ele>
        <time>2022-05-21 14:37:18</time>
      </trkpt>
      <trkpt lat="42.39073" lon="2.85199">
        <ele>152.8</ele>
        <time>2022-05-21 14:37:19</time>
      </trkpt>
      <trkpt lat="42.3907" lon="2.85202">
        <ele>153</ele>
        <time>2022-05-21 14:37:20</time>
      </trkpt>
      <trkpt lat="42.39067" lon="2.85205">
        <ele>153.2</ele>
        <time>2022-05-21 14:37:21</time>
      </trkpt>
      <trkpt lat="42.39064" lon="2.85208">
        <ele>153.4</ele>
        <time>2022-05-21 14:37:22</time>
      </trkpt>
      <trkpt lat="42.3906" lon="2.85211">
        <ele>153.4</ele>
        <time>2022-05-21 14:37:23</time>
      </trkpt>
      <trkpt lat="42.39058" lon="2.85214">
        <ele>153.6</ele>
        <time>2022-05-21 14:37:24</time>
      </trkpt>
      <trkpt lat="42.39055" lon="2.85217">
        <ele>153.8</ele>
        <time>2022-05-21 14:37:25</time>
      </trkpt>
      <trkpt lat="42.39052" lon="2.8522">
        <ele>153.8</ele>
        <time>2022-05-21 14:37:26</time>
      </trkpt>
      <trkpt lat="42.39049" lon="2.85224">
        <ele>153.8</ele>
        <time>2022-05-21 14:37:27</time>
      </trkpt>
      <trkpt lat="42.39046" lon="2.85227">
        <ele>154</ele>
        <time>2022-05-21 14:37:28</time>
      </trkpt>
      <trkpt lat="42.39044" lon="2.8523">
        <ele>154.2</ele>
        <time>2022-05-21 14:37:29</time>
      </trkpt>
      <trkpt lat="42.39041" lon="2.85233">
        <ele>154.4</ele>
        <time>2022-05-21 14:37:30</time>
      </trkpt>
      <trkpt lat="42.39038" lon="2.85236">
        <ele>154.4</ele>
        <time>2022-05-21 14:37:31</time>
      </trkpt>
      <trkpt lat="42.39036" lon="2.85239">
        <ele>154.6</ele>
        <time>2022-05-21 14:37:32</time>
      </trkpt>
      <trkpt lat="42.39033" lon="2.85242">
        <ele>154.8</ele>
        <time>2022-05-21 14:37:33</time>
      </trkpt>
      <trkpt lat="42.3903" lon="2.85244">
        <ele>155</ele>
        <time>2022-05-21 14:37:34</time>
      </trkpt>
      <trkpt lat="42.39027" lon="2.85247">
        <ele>155.2</ele>
        <time>2022-05-21 14:37:35</time>
      </trkpt>
      <trkpt lat="42.39024" lon="2.85249">
        <ele>155.4</ele>
        <time>2022-05-21 14:37:36</time>
      </trkpt>
      <trkpt lat="42.39021" lon="2.85252">
        <ele>155.4</ele>
        <time>2022-05-21 14:37:37</time>
      </trkpt>
      <trkpt lat="42.39019" lon="2.85254">
        <ele>155.6</ele>
        <time>2022-05-21 14:37:38</time>
      </trkpt>
      <trkpt lat="42.39016" lon="2.85257">
        <ele>155.8</ele>
        <time>2022-05-21 14:37:39</time>
      </trkpt>
      <trkpt lat="42.39013" lon="2.8526">
        <ele>156</ele>
        <time>2022-05-21 14:37:40</time>
      </trkpt>
      <trkpt lat="42.39011" lon="2.85263">
        <ele>156.2</ele>
        <time>2022-05-21 14:37:41</time>
      </trkpt>
      <trkpt lat="42.39008" lon="2.85265">
        <ele>156.4</ele>
        <time>2022-05-21 14:37:42</time>
      </trkpt>
      <trkpt lat="42.39006" lon="2.85267">
        <ele>156.6</ele>
        <time>2022-05-21 14:37:43</time>
      </trkpt>
      <trkpt lat="42.39003" lon="2.8527">
        <ele>156.8</ele>
        <time>2022-05-21 14:37:44</time>
      </trkpt>
      <trkpt lat="42.39" lon="2.85273">
        <ele>157</ele>
        <time>2022-05-21 14:37:45</time>
      </trkpt>
      <trkpt lat="42.38997" lon="2.85275">
        <ele>157</ele>
        <time>2022-05-21 14:37:46</time>
      </trkpt>
      <trkpt lat="42.38994" lon="2.85277">
        <ele>157.2</ele>
        <time>2022-05-21 14:37:47</time>
      </trkpt>
      <trkpt lat="42.38991" lon="2.85278">
        <ele>157.4</ele>
        <time>2022-05-21 14:37:48</time>
      </trkpt>
      <trkpt lat="42.38988" lon="2.8528">
        <ele>157.4</ele>
        <time>2022-05-21 14:37:49</time>
      </trkpt>
      <trkpt lat="42.38986" lon="2.85282">
        <ele>157.6</ele>
        <time>2022-05-21 14:37:50</time>
      </trkpt>
      <trkpt lat="42.38983" lon="2.85283">
        <ele>157.6</ele>
        <time>2022-05-21 14:37:51</time>
      </trkpt>
      <trkpt lat="42.38979" lon="2.85285">
        <ele>157.8</ele>
        <time>2022-05-21 14:37:52</time>
      </trkpt>
      <trkpt lat="42.38977" lon="2.85286">
        <ele>158</ele>
        <time>2022-05-21 14:37:53</time>
      </trkpt>
      <trkpt lat="42.38974" lon="2.85287">
        <ele>158.2</ele>
        <time>2022-05-21 14:37:54</time>
      </trkpt>
      <trkpt lat="42.38971" lon="2.85288">
        <ele>158.2</ele>
        <time>2022-05-21 14:37:55</time>
      </trkpt>
      <trkpt lat="42.38968" lon="2.8529">
        <ele>158.4</ele>
        <time>2022-05-21 14:37:56</time>
      </trkpt>
      <trkpt lat="42.38965" lon="2.85291">
        <ele>158.6</ele>
        <time>2022-05-21 14:37:57</time>
      </trkpt>
      <trkpt lat="42.38962" lon="2.85292">
        <ele>158.8</ele>
        <time>2022-05-21 14:37:58</time>
      </trkpt>
      <trkpt lat="42.38959" lon="2.85293">
        <ele>159</ele>
        <time>2022-05-21 14:37:59</time>
      </trkpt>
      <trkpt lat="42.38956" lon="2.85294">
        <ele>159.2</ele>
        <time>2022-05-21 14:38:00</time>
      </trkpt>
      <trkpt lat="42.38953" lon="2.85295">
        <ele>159.2</ele>
        <time>2022-05-21 14:38:01</time>
      </trkpt>
      <trkpt lat="42.3895" lon="2.85296">
        <ele>159.4</ele>
        <time>2022-05-21 14:38:02</time>
      </trkpt>
      <trkpt lat="42.38947" lon="2.85298">
        <ele>159.6</ele>
        <time>2022-05-21 14:38:03</time>
      </trkpt>
      <trkpt lat="42.38944" lon="2.85299">
        <ele>159.8</ele>
        <time>2022-05-21 14:38:04</time>
      </trkpt>
      <trkpt lat="42.38941" lon="2.853">
        <ele>159.8</ele>
        <time>2022-05-21 14:38:05</time>
      </trkpt>
      <trkpt lat="42.38938" lon="2.85301">
        <ele>160</ele>
        <time>2022-05-21 14:38:06</time>
      </trkpt>
      <trkpt lat="42.38935" lon="2.85302">
        <ele>160.2</ele>
        <time>2022-05-21 14:38:07</time>
      </trkpt>
      <trkpt lat="42.38932" lon="2.85303">
        <ele>160.2</ele>
        <time>2022-05-21 14:38:08</time>
      </trkpt>
      <trkpt lat="42.38929" lon="2.85305">
        <ele>160.4</ele>
        <time>2022-05-21 14:38:09</time>
      </trkpt>
      <trkpt lat="42.38926" lon="2.85306">
        <ele>160.6</ele>
        <time>2022-05-21 14:38:10</time>
      </trkpt>
      <trkpt lat="42.38923" lon="2.85307">
        <ele>160.8</ele>
        <time>2022-05-21 14:38:11</time>
      </trkpt>
      <trkpt lat="42.3892" lon="2.85309">
        <ele>161</ele>
        <time>2022-05-21 14:38:12</time>
      </trkpt>
      <trkpt lat="42.38918" lon="2.8531">
        <ele>161</ele>
        <time>2022-05-21 14:38:13</time>
      </trkpt>
      <trkpt lat="42.38915" lon="2.85312">
        <ele>161.2</ele>
        <time>2022-05-21 14:38:14</time>
      </trkpt>
      <trkpt lat="42.38912" lon="2.85314">
        <ele>161.4</ele>
        <time>2022-05-21 14:38:15</time>
      </trkpt>
      <trkpt lat="42.38909" lon="2.85316">
        <ele>161.6</ele>
        <time>2022-05-21 14:38:16</time>
      </trkpt>
      <trkpt lat="42.38906" lon="2.85318">
        <ele>161.8</ele>
        <time>2022-05-21 14:38:17</time>
      </trkpt>
      <trkpt lat="42.38903" lon="2.85319">
        <ele>162</ele>
        <time>2022-05-21 14:38:18</time>
      </trkpt>
      <trkpt lat="42.38901" lon="2.85321">
        <ele>162.2</ele>
        <time>2022-05-21 14:38:19</time>
      </trkpt>
      <trkpt lat="42.38898" lon="2.85323">
        <ele>162.2</ele>
        <time>2022-05-21 14:38:20</time>
      </trkpt>
      <trkpt lat="42.38895" lon="2.85325">
        <ele>162.4</ele>
        <time>2022-05-21 14:38:21</time>
      </trkpt>
      <trkpt lat="42.38893" lon="2.85327">
        <ele>162.6</ele>
        <time>2022-05-21 14:38:22</time>
      </trkpt>
      <trkpt lat="42.3889" lon="2.8533">
        <ele>162.8</ele>
        <time>2022-05-21 14:38:23</time>
      </trkpt>
      <trkpt lat="42.38888" lon="2.85332">
        <ele>162.8</ele>
        <time>2022-05-21 14:38:24</time>
      </trkpt>
      <trkpt lat="42.38885" lon="2.85335">
        <ele>163</ele>
        <time>2022-05-21 14:38:25</time>
      </trkpt>
      <trkpt lat="42.38883" lon="2.85337">
        <ele>163.2</ele>
        <time>2022-05-21 14:38:26</time>
      </trkpt>
      <trkpt lat="42.38881" lon="2.8534">
        <ele>163.2</ele>
        <time>2022-05-21 14:38:27</time>
      </trkpt>
      <trkpt lat="42.3888" lon="2.85343">
        <ele>163.4</ele>
        <time>2022-05-21 14:38:28</time>
      </trkpt>
      <trkpt lat="42.38878" lon="2.85347">
        <ele>163.4</ele>
        <time>2022-05-21 14:38:29</time>
      </trkpt>
      <trkpt lat="42.38877" lon="2.85351">
        <ele>163.6</ele>
        <time>2022-05-21 14:38:30</time>
      </trkpt>
      <trkpt lat="42.38877" lon="2.85355">
        <ele>163.8</ele>
        <time>2022-05-21 14:38:31</time>
      </trkpt>
      <trkpt lat="42.38876" lon="2.85359">
        <ele>163.8</ele>
        <time>2022-05-21 14:38:32</time>
      </trkpt>
      <trkpt lat="42.38876" lon="2.85363">
        <ele>164</ele>
        <time>2022-05-21 14:38:33</time>
      </trkpt>
      <trkpt lat="42.38876" lon="2.85367">
        <ele>164.2</ele>
        <time>2022-05-21 14:38:34</time>
      </trkpt>
      <trkpt lat="42.38876" lon="2.85372">
        <ele>164.2</ele>
        <time>2022-05-21 14:38:35</time>
      </trkpt>
      <trkpt lat="42.38876" lon="2.85376">
        <ele>164.4</ele>
        <time>2022-05-21 14:38:36</time>
      </trkpt>
      <trkpt lat="42.38877" lon="2.8538">
        <ele>164.6</ele>
        <time>2022-05-21 14:38:37</time>
      </trkpt>
      <trkpt lat="42.38877" lon="2.85384">
        <ele>164.8</ele>
        <time>2022-05-21 14:38:38</time>
      </trkpt>
      <trkpt lat="42.38878" lon="2.85388">
        <ele>164.8</ele>
        <time>2022-05-21 14:38:39</time>
      </trkpt>
      <trkpt lat="42.38878" lon="2.85392">
        <ele>165.2</ele>
        <time>2022-05-21 14:38:40</time>
      </trkpt>
      <trkpt lat="42.38879" lon="2.85396">
        <ele>165.4</ele>
        <time>2022-05-21 14:38:41</time>
      </trkpt>
      <trkpt lat="42.38879" lon="2.854">
        <ele>165.6</ele>
        <time>2022-05-21 14:38:42</time>
      </trkpt>
      <trkpt lat="42.38879" lon="2.85404">
        <ele>165.8</ele>
        <time>2022-05-21 14:38:43</time>
      </trkpt>
      <trkpt lat="42.38879" lon="2.85409">
        <ele>165.8</ele>
        <time>2022-05-21 14:38:44</time>
      </trkpt>
      <trkpt lat="42.38879" lon="2.85413">
        <ele>166</ele>
        <time>2022-05-21 14:38:45</time>
      </trkpt>
      <trkpt lat="42.38879" lon="2.85418">
        <ele>166.2</ele>
        <time>2022-05-21 14:38:46</time>
      </trkpt>
      <trkpt lat="42.38879" lon="2.85422">
        <ele>166.2</ele>
        <time>2022-05-21 14:38:47</time>
      </trkpt>
      <trkpt lat="42.38878" lon="2.85426">
        <ele>166.2</ele>
        <time>2022-05-21 14:38:48</time>
      </trkpt>
      <trkpt lat="42.38877" lon="2.85431">
        <ele>166.4</ele>
        <time>2022-05-21 14:38:49</time>
      </trkpt>
      <trkpt lat="42.38876" lon="2.85435">
        <ele>166.4</ele>
        <time>2022-05-21 14:38:50</time>
      </trkpt>
      <trkpt lat="42.38874" lon="2.85439">
        <ele>166.6</ele>
        <time>2022-05-21 14:38:51</time>
      </trkpt>
      <trkpt lat="42.38873" lon="2.85443">
        <ele>166.6</ele>
        <time>2022-05-21 14:38:52</time>
      </trkpt>
      <trkpt lat="42.38871" lon="2.85447">
        <ele>166.6</ele>
        <time>2022-05-21 14:38:53</time>
      </trkpt>
      <trkpt lat="42.3887" lon="2.8545">
        <ele>166.8</ele>
        <time>2022-05-21 14:38:54</time>
      </trkpt>
      <trkpt lat="42.38868" lon="2.85454">
        <ele>166.8</ele>
        <time>2022-05-21 14:38:55</time>
      </trkpt>
      <trkpt lat="42.38866" lon="2.85457">
        <ele>167</ele>
        <time>2022-05-21 14:38:56</time>
      </trkpt>
      <trkpt lat="42.38864" lon="2.85461">
        <ele>167</ele>
        <time>2022-05-21 14:38:57</time>
      </trkpt>
      <trkpt lat="42.38862" lon="2.85465">
        <ele>167</ele>
        <time>2022-05-21 14:38:58</time>
      </trkpt>
      <trkpt lat="42.3886" lon="2.8547">
        <ele>167</ele>
        <time>2022-05-21 14:38:59</time>
      </trkpt>
      <trkpt lat="42.38858" lon="2.85474">
        <ele>167</ele>
        <time>2022-05-21 14:39:00</time>
      </trkpt>
      <trkpt lat="42.38856" lon="2.85478">
        <ele>167</ele>
        <time>2022-05-21 14:39:01</time>
      </trkpt>
      <trkpt lat="42.38854" lon="2.85482">
        <ele>167</ele>
        <time>2022-05-21 14:39:02</time>
      </trkpt>
      <trkpt lat="42.38851" lon="2.85486">
        <ele>167</ele>
        <time>2022-05-21 14:39:03</time>
      </trkpt>
      <trkpt lat="42.38848" lon="2.8549">
        <ele>167.2</ele>
        <time>2022-05-21 14:39:04</time>
      </trkpt>
      <trkpt lat="42.38845" lon="2.85494">
        <ele>167.2</ele>
        <time>2022-05-21 14:39:05</time>
      </trkpt>
      <trkpt lat="42.38842" lon="2.85498">
        <ele>167.2</ele>
        <time>2022-05-21 14:39:06</time>
      </trkpt>
      <trkpt lat="42.38839" lon="2.85501">
        <ele>167.2</ele>
        <time>2022-05-21 14:39:07</time>
      </trkpt>
      <trkpt lat="42.38835" lon="2.85505">
        <ele>167.2</ele>
        <time>2022-05-21 14:39:08</time>
      </trkpt>
      <trkpt lat="42.38831" lon="2.85508">
        <ele>167.2</ele>
        <time>2022-05-21 14:39:09</time>
      </trkpt>
      <trkpt lat="42.38828" lon="2.85511">
        <ele>167.2</ele>
        <time>2022-05-21 14:39:10</time>
      </trkpt>
      <trkpt lat="42.38824" lon="2.85514">
        <ele>167.4</ele>
        <time>2022-05-21 14:39:11</time>
      </trkpt>
      <trkpt lat="42.38819" lon="2.85517">
        <ele>167.4</ele>
        <time>2022-05-21 14:39:12</time>
      </trkpt>
      <trkpt lat="42.38815" lon="2.85519">
        <ele>167.4</ele>
        <time>2022-05-21 14:39:13</time>
      </trkpt>
      <trkpt lat="42.38812" lon="2.85522">
        <ele>167.4</ele>
        <time>2022-05-21 14:39:14</time>
      </trkpt>
      <trkpt lat="42.38808" lon="2.85524">
        <ele>167.4</ele>
        <time>2022-05-21 14:39:15</time>
      </trkpt>
      <trkpt lat="42.38803" lon="2.85526">
        <ele>167.6</ele>
        <time>2022-05-21 14:39:16</time>
      </trkpt>
      <trkpt lat="42.38799" lon="2.85527">
        <ele>167.6</ele>
        <time>2022-05-21 14:39:17</time>
      </trkpt>
      <trkpt lat="42.38795" lon="2.85529">
        <ele>167.6</ele>
        <time>2022-05-21 14:39:18</time>
      </trkpt>
      <trkpt lat="42.3879" lon="2.8553">
        <ele>167.6</ele>
        <time>2022-05-21 14:39:19</time>
      </trkpt>
      <trkpt lat="42.38786" lon="2.85532">
        <ele>167.6</ele>
        <time>2022-05-21 14:39:20</time>
      </trkpt>
      <trkpt lat="42.38782" lon="2.85534">
        <ele>167.6</ele>
        <time>2022-05-21 14:39:21</time>
      </trkpt>
      <trkpt lat="42.38777" lon="2.85536">
        <ele>167.6</ele>
        <time>2022-05-21 14:39:22</time>
      </trkpt>
      <trkpt lat="42.38773" lon="2.85537">
        <ele>167.6</ele>
        <time>2022-05-21 14:39:23</time>
      </trkpt>
      <trkpt lat="42.38768" lon="2.85539">
        <ele>167.6</ele>
        <time>2022-05-21 14:39:24</time>
      </trkpt>
      <trkpt lat="42.38764" lon="2.85541">
        <ele>167.6</ele>
        <time>2022-05-21 14:39:25</time>
      </trkpt>
      <trkpt lat="42.38759" lon="2.85542">
        <ele>167.6</ele>
        <time>2022-05-21 14:39:26</time>
      </trkpt>
      <trkpt lat="42.38754" lon="2.85544">
        <ele>167.8</ele>
        <time>2022-05-21 14:39:27</time>
      </trkpt>
      <trkpt lat="42.3875" lon="2.85546">
        <ele>167.8</ele>
        <time>2022-05-21 14:39:28</time>
      </trkpt>
      <trkpt lat="42.38745" lon="2.85548">
        <ele>167.8</ele>
        <time>2022-05-21 14:39:29</time>
      </trkpt>
      <trkpt lat="42.38741" lon="2.8555">
        <ele>167.8</ele>
        <time>2022-05-21 14:39:30</time>
      </trkpt>
      <trkpt lat="42.38736" lon="2.85552">
        <ele>168</ele>
        <time>2022-05-21 14:39:31</time>
      </trkpt>
      <trkpt lat="42.38732" lon="2.85554">
        <ele>168</ele>
        <time>2022-05-21 14:39:32</time>
      </trkpt>
      <trkpt lat="42.38727" lon="2.85556">
        <ele>168</ele>
        <time>2022-05-21 14:39:33</time>
      </trkpt>
      <trkpt lat="42.38723" lon="2.85558">
        <ele>168.2</ele>
        <time>2022-05-21 14:39:34</time>
      </trkpt>
      <trkpt lat="42.38718" lon="2.85561">
        <ele>168.2</ele>
        <time>2022-05-21 14:39:35</time>
      </trkpt>
      <trkpt lat="42.38714" lon="2.85564">
        <ele>168.2</ele>
        <time>2022-05-21 14:39:36</time>
      </trkpt>
      <trkpt lat="42.3871" lon="2.85567">
        <ele>168.2</ele>
        <time>2022-05-21 14:39:37</time>
      </trkpt>
      <trkpt lat="42.38705" lon="2.85571">
        <ele>168.2</ele>
        <time>2022-05-21 14:39:38</time>
      </trkpt>
      <trkpt lat="42.38701" lon="2.85574">
        <ele>168.2</ele>
        <time>2022-05-21 14:39:39</time>
      </trkpt>
      <trkpt lat="42.38697" lon="2.85578">
        <ele>168.2</ele>
        <time>2022-05-21 14:39:40</time>
      </trkpt>
      <trkpt lat="42.38693" lon="2.85581">
        <ele>168.2</ele>
        <time>2022-05-21 14:39:41</time>
      </trkpt>
      <trkpt lat="42.38689" lon="2.85585">
        <ele>168.2</ele>
        <time>2022-05-21 14:39:42</time>
      </trkpt>
      <trkpt lat="42.38685" lon="2.8559">
        <ele>168.2</ele>
        <time>2022-05-21 14:39:43</time>
      </trkpt>
      <trkpt lat="42.38681" lon="2.85594">
        <ele>168.2</ele>
        <time>2022-05-21 14:39:44</time>
      </trkpt>
      <trkpt lat="42.38677" lon="2.85599">
        <ele>168.2</ele>
        <time>2022-05-21 14:39:45</time>
      </trkpt>
      <trkpt lat="42.38673" lon="2.85604">
        <ele>168.2</ele>
        <time>2022-05-21 14:39:46</time>
      </trkpt>
      <trkpt lat="42.3867" lon="2.8561">
        <ele>168.2</ele>
        <time>2022-05-21 14:39:47</time>
      </trkpt>
      <trkpt lat="42.38667" lon="2.85616">
        <ele>168.2</ele>
        <time>2022-05-21 14:39:48</time>
      </trkpt>
      <trkpt lat="42.38665" lon="2.85622">
        <ele>168.2</ele>
        <time>2022-05-21 14:39:49</time>
      </trkpt>
      <trkpt lat="42.38663" lon="2.85628">
        <ele>168.4</ele>
        <time>2022-05-21 14:39:50</time>
      </trkpt>
      <trkpt lat="42.38661" lon="2.85635">
        <ele>168.4</ele>
        <time>2022-05-21 14:39:51</time>
      </trkpt>
      <trkpt lat="42.38659" lon="2.85641">
        <ele>168.4</ele>
        <time>2022-05-21 14:39:52</time>
      </trkpt>
      <trkpt lat="42.38657" lon="2.85648">
        <ele>168.4</ele>
        <time>2022-05-21 14:39:53</time>
      </trkpt>
      <trkpt lat="42.38656" lon="2.85654">
        <ele>168.4</ele>
        <time>2022-05-21 14:39:54</time>
      </trkpt>
      <trkpt lat="42.38654" lon="2.8566">
        <ele>168.4</ele>
        <time>2022-05-21 14:39:55</time>
      </trkpt>
      <trkpt lat="42.38651" lon="2.85666">
        <ele>168.6</ele>
        <time>2022-05-21 14:39:56</time>
      </trkpt>
      <trkpt lat="42.38649" lon="2.85671">
        <ele>168.6</ele>
        <time>2022-05-21 14:39:57</time>
      </trkpt>
      <trkpt lat="42.38645" lon="2.85675">
        <ele>168.8</ele>
        <time>2022-05-21 14:39:58</time>
      </trkpt>
      <trkpt lat="42.38642" lon="2.8568">
        <ele>168.8</ele>
        <time>2022-05-21 14:39:59</time>
      </trkpt>
      <trkpt lat="42.38639" lon="2.85683">
        <ele>169</ele>
        <time>2022-05-21 14:40:00</time>
      </trkpt>
      <trkpt lat="42.38636" lon="2.85687">
        <ele>169.2</ele>
        <time>2022-05-21 14:40:01</time>
      </trkpt>
      <trkpt lat="42.38632" lon="2.85691">
        <ele>169.4</ele>
        <time>2022-05-21 14:40:02</time>
      </trkpt>
      <trkpt lat="42.38629" lon="2.85694">
        <ele>169.6</ele>
        <time>2022-05-21 14:40:03</time>
      </trkpt>
      <trkpt lat="42.38625" lon="2.85698">
        <ele>169.8</ele>
        <time>2022-05-21 14:40:04</time>
      </trkpt>
      <trkpt lat="42.38622" lon="2.85701">
        <ele>170</ele>
        <time>2022-05-21 14:40:05</time>
      </trkpt>
      <trkpt lat="42.38619" lon="2.85705">
        <ele>170.2</ele>
        <time>2022-05-21 14:40:06</time>
      </trkpt>
      <trkpt lat="42.38616" lon="2.85709">
        <ele>170.4</ele>
        <time>2022-05-21 14:40:07</time>
      </trkpt>
      <trkpt lat="42.38613" lon="2.85714">
        <ele>170.4</ele>
        <time>2022-05-21 14:40:08</time>
      </trkpt>
      <trkpt lat="42.3861" lon="2.85719">
        <ele>170.6</ele>
        <time>2022-05-21 14:40:09</time>
      </trkpt>
      <trkpt lat="42.38608" lon="2.85724">
        <ele>170.8</ele>
        <time>2022-05-21 14:40:10</time>
      </trkpt>
      <trkpt lat="42.38606" lon="2.85729">
        <ele>171</ele>
        <time>2022-05-21 14:40:11</time>
      </trkpt>
      <trkpt lat="42.38605" lon="2.85735">
        <ele>171.2</ele>
        <time>2022-05-21 14:40:12</time>
      </trkpt>
      <trkpt lat="42.38604" lon="2.8574">
        <ele>171.4</ele>
        <time>2022-05-21 14:40:13</time>
      </trkpt>
      <trkpt lat="42.38603" lon="2.85746">
        <ele>171.6</ele>
        <time>2022-05-21 14:40:14</time>
      </trkpt>
      <trkpt lat="42.38603" lon="2.85751">
        <ele>171.8</ele>
        <time>2022-05-21 14:40:15</time>
      </trkpt>
      <trkpt lat="42.38602" lon="2.85756">
        <ele>172</ele>
        <time>2022-05-21 14:40:16</time>
      </trkpt>
      <trkpt lat="42.38602" lon="2.85761">
        <ele>172.4</ele>
        <time>2022-05-21 14:40:17</time>
      </trkpt>
      <trkpt lat="42.38601" lon="2.85765">
        <ele>172.6</ele>
        <time>2022-05-21 14:40:18</time>
      </trkpt>
      <trkpt lat="42.38601" lon="2.85769">
        <ele>172.6</ele>
        <time>2022-05-21 14:40:19</time>
      </trkpt>
      <trkpt lat="42.38601" lon="2.85771">
        <ele>172.8</ele>
        <time>2022-05-21 14:40:20</time>
      </trkpt>
      <trkpt lat="42.386" lon="2.85773">
        <ele>172.8</ele>
        <time>2022-05-21 14:40:21</time>
      </trkpt>
      <trkpt lat="42.38599" lon="2.85783">
        <ele>173.2</ele>
        <time>2022-05-21 14:40:22</time>
      </trkpt>
      <trkpt lat="42.38598" lon="2.85788">
        <ele>173.4</ele>
        <time>2022-05-21 14:40:23</time>
      </trkpt>
      <trkpt lat="42.38598" lon="2.85792">
        <ele>173.6</ele>
        <time>2022-05-21 14:40:24</time>
      </trkpt>
      <trkpt lat="42.38597" lon="2.85796">
        <ele>173.8</ele>
        <time>2022-05-21 14:40:25</time>
      </trkpt>
      <trkpt lat="42.38596" lon="2.858">
        <ele>174</ele>
        <time>2022-05-21 14:40:26</time>
      </trkpt>
      <trkpt lat="42.38595" lon="2.85804">
        <ele>174.2</ele>
        <time>2022-05-21 14:40:27</time>
      </trkpt>
      <trkpt lat="42.38593" lon="2.85809">
        <ele>174.4</ele>
        <time>2022-05-21 14:40:28</time>
      </trkpt>
      <trkpt lat="42.38592" lon="2.85813">
        <ele>174.6</ele>
        <time>2022-05-21 14:40:29</time>
      </trkpt>
      <trkpt lat="42.3859" lon="2.85817">
        <ele>174.6</ele>
        <time>2022-05-21 14:40:30</time>
      </trkpt>
      <trkpt lat="42.38589" lon="2.85821">
        <ele>174.8</ele>
        <time>2022-05-21 14:40:31</time>
      </trkpt>
      <trkpt lat="42.38588" lon="2.85825">
        <ele>174.8</ele>
        <time>2022-05-21 14:40:32</time>
      </trkpt>
      <trkpt lat="42.38586" lon="2.8583">
        <ele>175</ele>
        <time>2022-05-21 14:40:33</time>
      </trkpt>
      <trkpt lat="42.38585" lon="2.85834">
        <ele>175.2</ele>
        <time>2022-05-21 14:40:34</time>
      </trkpt>
      <trkpt lat="42.38583" lon="2.85838">
        <ele>175.2</ele>
        <time>2022-05-21 14:40:35</time>
      </trkpt>
      <trkpt lat="42.38581" lon="2.85843">
        <ele>175.4</ele>
        <time>2022-05-21 14:40:36</time>
      </trkpt>
      <trkpt lat="42.3858" lon="2.85847">
        <ele>175.4</ele>
        <time>2022-05-21 14:40:37</time>
      </trkpt>
      <trkpt lat="42.38578" lon="2.85851">
        <ele>175.6</ele>
        <time>2022-05-21 14:40:38</time>
      </trkpt>
      <trkpt lat="42.38577" lon="2.85855">
        <ele>175.6</ele>
        <time>2022-05-21 14:40:39</time>
      </trkpt>
      <trkpt lat="42.38575" lon="2.85859">
        <ele>175.8</ele>
        <time>2022-05-21 14:40:40</time>
      </trkpt>
      <trkpt lat="42.38573" lon="2.85864">
        <ele>175.8</ele>
        <time>2022-05-21 14:40:41</time>
      </trkpt>
      <trkpt lat="42.38572" lon="2.85868">
        <ele>176</ele>
        <time>2022-05-21 14:40:42</time>
      </trkpt>
      <trkpt lat="42.3857" lon="2.85872">
        <ele>176</ele>
        <time>2022-05-21 14:40:43</time>
      </trkpt>
      <trkpt lat="42.38568" lon="2.85877">
        <ele>176</ele>
        <time>2022-05-21 14:40:44</time>
      </trkpt>
      <trkpt lat="42.38567" lon="2.85881">
        <ele>176.2</ele>
        <time>2022-05-21 14:40:45</time>
      </trkpt>
      <trkpt lat="42.38565" lon="2.85886">
        <ele>176.2</ele>
        <time>2022-05-21 14:40:46</time>
      </trkpt>
      <trkpt lat="42.38564" lon="2.8589">
        <ele>176.4</ele>
        <time>2022-05-21 14:40:47</time>
      </trkpt>
      <trkpt lat="42.38562" lon="2.85894">
        <ele>176.6</ele>
        <time>2022-05-21 14:40:48</time>
      </trkpt>
      <trkpt lat="42.38561" lon="2.85898">
        <ele>176.6</ele>
        <time>2022-05-21 14:40:49</time>
      </trkpt>
      <trkpt lat="42.38559" lon="2.85902">
        <ele>176.8</ele>
        <time>2022-05-21 14:40:50</time>
      </trkpt>
      <trkpt lat="42.38557" lon="2.85906">
        <ele>176.8</ele>
        <time>2022-05-21 14:40:51</time>
      </trkpt>
      <trkpt lat="42.38556" lon="2.85911">
        <ele>176.8</ele>
        <time>2022-05-21 14:40:52</time>
      </trkpt>
      <trkpt lat="42.38555" lon="2.85915">
        <ele>176.8</ele>
        <time>2022-05-21 14:40:53</time>
      </trkpt>
      <trkpt lat="42.38553" lon="2.85919">
        <ele>176.8</ele>
        <time>2022-05-21 14:40:54</time>
      </trkpt>
      <trkpt lat="42.38552" lon="2.85923">
        <ele>177</ele>
        <time>2022-05-21 14:40:55</time>
      </trkpt>
      <trkpt lat="42.3855" lon="2.85927">
        <ele>177</ele>
        <time>2022-05-21 14:40:56</time>
      </trkpt>
      <trkpt lat="42.38549" lon="2.85931">
        <ele>177.2</ele>
        <time>2022-05-21 14:40:57</time>
      </trkpt>
      <trkpt lat="42.38548" lon="2.85935">
        <ele>177.4</ele>
        <time>2022-05-21 14:40:58</time>
      </trkpt>
      <trkpt lat="42.38546" lon="2.85939">
        <ele>177.4</ele>
        <time>2022-05-21 14:40:59</time>
      </trkpt>
      <trkpt lat="42.38545" lon="2.85943">
        <ele>177.6</ele>
        <time>2022-05-21 14:41:00</time>
      </trkpt>
      <trkpt lat="42.38543" lon="2.85947">
        <ele>177.8</ele>
        <time>2022-05-21 14:41:01</time>
      </trkpt>
      <trkpt lat="42.38541" lon="2.85951">
        <ele>177.8</ele>
        <time>2022-05-21 14:41:02</time>
      </trkpt>
      <trkpt lat="42.3854" lon="2.85955">
        <ele>177.8</ele>
        <time>2022-05-21 14:41:03</time>
      </trkpt>
      <trkpt lat="42.38538" lon="2.85959">
        <ele>178</ele>
        <time>2022-05-21 14:41:04</time>
      </trkpt>
      <trkpt lat="42.38537" lon="2.85963">
        <ele>178</ele>
        <time>2022-05-21 14:41:05</time>
      </trkpt>
      <trkpt lat="42.38535" lon="2.85967">
        <ele>178.2</ele>
        <time>2022-05-21 14:41:06</time>
      </trkpt>
      <trkpt lat="42.38534" lon="2.85971">
        <ele>178.2</ele>
        <time>2022-05-21 14:41:07</time>
      </trkpt>
      <trkpt lat="42.38532" lon="2.85974">
        <ele>178.2</ele>
        <time>2022-05-21 14:41:08</time>
      </trkpt>
      <trkpt lat="42.38531" lon="2.85978">
        <ele>178.4</ele>
        <time>2022-05-21 14:41:09</time>
      </trkpt>
      <trkpt lat="42.3853" lon="2.85982">
        <ele>178.4</ele>
        <time>2022-05-21 14:41:10</time>
      </trkpt>
      <trkpt lat="42.38528" lon="2.85987">
        <ele>178.4</ele>
        <time>2022-05-21 14:41:11</time>
      </trkpt>
      <trkpt lat="42.38527" lon="2.85991">
        <ele>178.6</ele>
        <time>2022-05-21 14:41:12</time>
      </trkpt>
      <trkpt lat="42.38525" lon="2.85995">
        <ele>178.6</ele>
        <time>2022-05-21 14:41:13</time>
      </trkpt>
      <trkpt lat="42.38524" lon="2.85998">
        <ele>178.8</ele>
        <time>2022-05-21 14:41:14</time>
      </trkpt>
      <trkpt lat="42.38523" lon="2.86002">
        <ele>179</ele>
        <time>2022-05-21 14:41:15</time>
      </trkpt>
      <trkpt lat="42.38521" lon="2.86006">
        <ele>179.2</ele>
        <time>2022-05-21 14:41:16</time>
      </trkpt>
      <trkpt lat="42.3852" lon="2.8601">
        <ele>179.4</ele>
        <time>2022-05-21 14:41:17</time>
      </trkpt>
      <trkpt lat="42.38518" lon="2.86015">
        <ele>179.6</ele>
        <time>2022-05-21 14:41:18</time>
      </trkpt>
      <trkpt lat="42.38517" lon="2.86018">
        <ele>179.6</ele>
        <time>2022-05-21 14:41:19</time>
      </trkpt>
      <trkpt lat="42.38516" lon="2.86022">
        <ele>179.8</ele>
        <time>2022-05-21 14:41:20</time>
      </trkpt>
      <trkpt lat="42.38514" lon="2.86026">
        <ele>180</ele>
        <time>2022-05-21 14:41:21</time>
      </trkpt>
      <trkpt lat="42.38512" lon="2.86029">
        <ele>180</ele>
        <time>2022-05-21 14:41:22</time>
      </trkpt>
      <trkpt lat="42.3851" lon="2.86033">
        <ele>180</ele>
        <time>2022-05-21 14:41:23</time>
      </trkpt>
      <trkpt lat="42.38507" lon="2.86036">
        <ele>180.2</ele>
        <time>2022-05-21 14:41:24</time>
      </trkpt>
      <trkpt lat="42.38505" lon="2.8604">
        <ele>180.2</ele>
        <time>2022-05-21 14:41:25</time>
      </trkpt>
      <trkpt lat="42.38502" lon="2.86042">
        <ele>180.4</ele>
        <time>2022-05-21 14:41:26</time>
      </trkpt>
      <trkpt lat="42.38499" lon="2.86045">
        <ele>180.6</ele>
        <time>2022-05-21 14:41:27</time>
      </trkpt>
      <trkpt lat="42.38496" lon="2.86047">
        <ele>180.6</ele>
        <time>2022-05-21 14:41:28</time>
      </trkpt>
      <trkpt lat="42.38493" lon="2.86049">
        <ele>180.8</ele>
        <time>2022-05-21 14:41:29</time>
      </trkpt>
      <trkpt lat="42.38489" lon="2.8605">
        <ele>180.8</ele>
        <time>2022-05-21 14:41:30</time>
      </trkpt>
      <trkpt lat="42.38486" lon="2.86052">
        <ele>181</ele>
        <time>2022-05-21 14:41:31</time>
      </trkpt>
      <trkpt lat="42.38482" lon="2.86054">
        <ele>181</ele>
        <time>2022-05-21 14:41:32</time>
      </trkpt>
      <trkpt lat="42.38479" lon="2.86055">
        <ele>181</ele>
        <time>2022-05-21 14:41:33</time>
      </trkpt>
      <trkpt lat="42.38475" lon="2.86057">
        <ele>181.2</ele>
        <time>2022-05-21 14:41:34</time>
      </trkpt>
      <trkpt lat="42.38471" lon="2.86059">
        <ele>181.2</ele>
        <time>2022-05-21 14:41:35</time>
      </trkpt>
      <trkpt lat="42.38467" lon="2.86061">
        <ele>181.2</ele>
        <time>2022-05-21 14:41:36</time>
      </trkpt>
      <trkpt lat="42.38463" lon="2.86062">
        <ele>181.2</ele>
        <time>2022-05-21 14:41:37</time>
      </trkpt>
      <trkpt lat="42.38458" lon="2.86064">
        <ele>181.2</ele>
        <time>2022-05-21 14:41:38</time>
      </trkpt>
      <trkpt lat="42.38454" lon="2.86065">
        <ele>181.4</ele>
        <time>2022-05-21 14:41:39</time>
      </trkpt>
      <trkpt lat="42.3845" lon="2.86066">
        <ele>181.4</ele>
        <time>2022-05-21 14:41:40</time>
      </trkpt>
      <trkpt lat="42.38446" lon="2.86068">
        <ele>181.4</ele>
        <time>2022-05-21 14:41:41</time>
      </trkpt>
      <trkpt lat="42.38442" lon="2.8607">
        <ele>181.4</ele>
        <time>2022-05-21 14:41:42</time>
      </trkpt>
      <trkpt lat="42.38438" lon="2.86072">
        <ele>181.6</ele>
        <time>2022-05-21 14:41:43</time>
      </trkpt>
      <trkpt lat="42.38434" lon="2.86073">
        <ele>181.6</ele>
        <time>2022-05-21 14:41:44</time>
      </trkpt>
      <trkpt lat="42.3843" lon="2.86075">
        <ele>181.6</ele>
        <time>2022-05-21 14:41:45</time>
      </trkpt>
      <trkpt lat="42.38426" lon="2.86078">
        <ele>181.6</ele>
        <time>2022-05-21 14:41:46</time>
      </trkpt>
      <trkpt lat="42.38423" lon="2.8608">
        <ele>181.6</ele>
        <time>2022-05-21 14:41:47</time>
      </trkpt>
      <trkpt lat="42.38419" lon="2.86082">
        <ele>181.6</ele>
        <time>2022-05-21 14:41:48</time>
      </trkpt>
      <trkpt lat="42.38415" lon="2.86085">
        <ele>181.8</ele>
        <time>2022-05-21 14:41:49</time>
      </trkpt>
      <trkpt lat="42.38412" lon="2.86087">
        <ele>181.8</ele>
        <time>2022-05-21 14:41:50</time>
      </trkpt>
      <trkpt lat="42.38408" lon="2.86091">
        <ele>181.8</ele>
        <time>2022-05-21 14:41:51</time>
      </trkpt>
      <trkpt lat="42.38404" lon="2.86094">
        <ele>181.8</ele>
        <time>2022-05-21 14:41:52</time>
      </trkpt>
      <trkpt lat="42.38401" lon="2.86096">
        <ele>181.8</ele>
        <time>2022-05-21 14:41:53</time>
      </trkpt>
      <trkpt lat="42.38398" lon="2.86099">
        <ele>181.8</ele>
        <time>2022-05-21 14:41:54</time>
      </trkpt>
      <trkpt lat="42.38394" lon="2.86102">
        <ele>181.8</ele>
        <time>2022-05-21 14:41:55</time>
      </trkpt>
      <trkpt lat="42.3839" lon="2.86105">
        <ele>181.8</ele>
        <time>2022-05-21 14:41:56</time>
      </trkpt>
      <trkpt lat="42.38387" lon="2.86107">
        <ele>181.8</ele>
        <time>2022-05-21 14:41:57</time>
      </trkpt>
      <trkpt lat="42.38383" lon="2.8611">
        <ele>181.8</ele>
        <time>2022-05-21 14:41:58</time>
      </trkpt>
      <trkpt lat="42.38379" lon="2.86113">
        <ele>181.8</ele>
        <time>2022-05-21 14:41:59</time>
      </trkpt>
      <trkpt lat="42.38375" lon="2.86116">
        <ele>181.8</ele>
        <time>2022-05-21 14:42:00</time>
      </trkpt>
      <trkpt lat="42.38372" lon="2.8612">
        <ele>181.8</ele>
        <time>2022-05-21 14:42:01</time>
      </trkpt>
      <trkpt lat="42.38368" lon="2.86124">
        <ele>181.8</ele>
        <time>2022-05-21 14:42:02</time>
      </trkpt>
      <trkpt lat="42.38365" lon="2.86129">
        <ele>181.8</ele>
        <time>2022-05-21 14:42:03</time>
      </trkpt>
      <trkpt lat="42.38361" lon="2.86133">
        <ele>181.8</ele>
        <time>2022-05-21 14:42:04</time>
      </trkpt>
      <trkpt lat="42.38358" lon="2.86138">
        <ele>181.8</ele>
        <time>2022-05-21 14:42:05</time>
      </trkpt>
      <trkpt lat="42.38355" lon="2.86143">
        <ele>181.6</ele>
        <time>2022-05-21 14:42:06</time>
      </trkpt>
      <trkpt lat="42.38351" lon="2.86149">
        <ele>181.6</ele>
        <time>2022-05-21 14:42:07</time>
      </trkpt>
      <trkpt lat="42.38348" lon="2.86154">
        <ele>181.6</ele>
        <time>2022-05-21 14:42:08</time>
      </trkpt>
      <trkpt lat="42.38345" lon="2.8616">
        <ele>181.6</ele>
        <time>2022-05-21 14:42:09</time>
      </trkpt>
      <trkpt lat="42.38342" lon="2.86165">
        <ele>181.6</ele>
        <time>2022-05-21 14:42:10</time>
      </trkpt>
      <trkpt lat="42.38338" lon="2.8617">
        <ele>181.6</ele>
        <time>2022-05-21 14:42:11</time>
      </trkpt>
      <trkpt lat="42.38335" lon="2.86174">
        <ele>181.6</ele>
        <time>2022-05-21 14:42:12</time>
      </trkpt>
      <trkpt lat="42.38331" lon="2.86178">
        <ele>181.6</ele>
        <time>2022-05-21 14:42:13</time>
      </trkpt>
      <trkpt lat="42.38327" lon="2.86181">
        <ele>181.8</ele>
        <time>2022-05-21 14:42:14</time>
      </trkpt>
      <trkpt lat="42.38322" lon="2.86185">
        <ele>181.8</ele>
        <time>2022-05-21 14:42:15</time>
      </trkpt>
      <trkpt lat="42.38318" lon="2.86188">
        <ele>181.8</ele>
        <time>2022-05-21 14:42:16</time>
      </trkpt>
      <trkpt lat="42.38314" lon="2.86191">
        <ele>181.8</ele>
        <time>2022-05-21 14:42:17</time>
      </trkpt>
      <trkpt lat="42.38309" lon="2.86193">
        <ele>181.8</ele>
        <time>2022-05-21 14:42:18</time>
      </trkpt>
      <trkpt lat="42.38305" lon="2.86196">
        <ele>181.8</ele>
        <time>2022-05-21 14:42:19</time>
      </trkpt>
      <trkpt lat="42.383" lon="2.86199">
        <ele>181.8</ele>
        <time>2022-05-21 14:42:20</time>
      </trkpt>
      <trkpt lat="42.38295" lon="2.86202">
        <ele>181.6</ele>
        <time>2022-05-21 14:42:21</time>
      </trkpt>
      <trkpt lat="42.38289" lon="2.86205">
        <ele>181.4</ele>
        <time>2022-05-21 14:42:22</time>
      </trkpt>
      <trkpt lat="42.38284" lon="2.86207">
        <ele>181.2</ele>
        <time>2022-05-21 14:42:23</time>
      </trkpt>
      <trkpt lat="42.38277" lon="2.86208">
        <ele>181</ele>
        <time>2022-05-21 14:42:24</time>
      </trkpt>
      <trkpt lat="42.38271" lon="2.8621">
        <ele>180.8</ele>
        <time>2022-05-21 14:42:25</time>
      </trkpt>
      <trkpt lat="42.38264" lon="2.86211">
        <ele>180.4</ele>
        <time>2022-05-21 14:42:26</time>
      </trkpt>
      <trkpt lat="42.38257" lon="2.86211">
        <ele>180.2</ele>
        <time>2022-05-21 14:42:27</time>
      </trkpt>
      <trkpt lat="42.38251" lon="2.86212">
        <ele>180</ele>
        <time>2022-05-21 14:42:28</time>
      </trkpt>
      <trkpt lat="42.38243" lon="2.86212">
        <ele>179.6</ele>
        <time>2022-05-21 14:42:29</time>
      </trkpt>
      <trkpt lat="42.38236" lon="2.86212">
        <ele>179.4</ele>
        <time>2022-05-21 14:42:30</time>
      </trkpt>
      <trkpt lat="42.38229" lon="2.86212">
        <ele>179</ele>
        <time>2022-05-21 14:42:31</time>
      </trkpt>
      <trkpt lat="42.38222" lon="2.86212">
        <ele>178.8</ele>
        <time>2022-05-21 14:42:32</time>
      </trkpt>
      <trkpt lat="42.38214" lon="2.86212">
        <ele>178.4</ele>
        <time>2022-05-21 14:42:33</time>
      </trkpt>
      <trkpt lat="42.38207" lon="2.86213">
        <ele>178.2</ele>
        <time>2022-05-21 14:42:34</time>
      </trkpt>
      <trkpt lat="42.382" lon="2.86213">
        <ele>178</ele>
        <time>2022-05-21 14:42:35</time>
      </trkpt>
      <trkpt lat="42.38192" lon="2.86213">
        <ele>177.8</ele>
        <time>2022-05-21 14:42:36</time>
      </trkpt>
      <trkpt lat="42.38185" lon="2.86213">
        <ele>177.4</ele>
        <time>2022-05-21 14:42:37</time>
      </trkpt>
      <trkpt lat="42.38177" lon="2.86213">
        <ele>177.2</ele>
        <time>2022-05-21 14:42:38</time>
      </trkpt>
      <trkpt lat="42.3817" lon="2.86213">
        <ele>177</ele>
        <time>2022-05-21 14:42:39</time>
      </trkpt>
      <trkpt lat="42.38162" lon="2.86213">
        <ele>176.6</ele>
        <time>2022-05-21 14:42:40</time>
      </trkpt>
      <trkpt lat="42.38154" lon="2.86213">
        <ele>176.4</ele>
        <time>2022-05-21 14:42:41</time>
      </trkpt>
      <trkpt lat="42.38146" lon="2.86213">
        <ele>176</ele>
        <time>2022-05-21 14:42:42</time>
      </trkpt>
      <trkpt lat="42.38138" lon="2.86213">
        <ele>175.8</ele>
        <time>2022-05-21 14:42:43</time>
      </trkpt>
      <trkpt lat="42.3813" lon="2.86213">
        <ele>175.6</ele>
        <time>2022-05-21 14:42:44</time>
      </trkpt>
      <trkpt lat="42.38122" lon="2.86212">
        <ele>175.2</ele>
        <time>2022-05-21 14:42:45</time>
      </trkpt>
      <trkpt lat="42.38114" lon="2.86209">
        <ele>175</ele>
        <time>2022-05-21 14:42:46</time>
      </trkpt>
      <trkpt lat="42.38107" lon="2.86204">
        <ele>175</ele>
        <time>2022-05-21 14:42:47</time>
      </trkpt>
      <trkpt lat="42.38101" lon="2.86199">
        <ele>175</ele>
        <time>2022-05-21 14:42:48</time>
      </trkpt>
      <trkpt lat="42.38096" lon="2.86192">
        <ele>175</ele>
        <time>2022-05-21 14:42:49</time>
      </trkpt>
      <trkpt lat="42.38091" lon="2.86185">
        <ele>175.2</ele>
        <time>2022-05-21 14:42:50</time>
      </trkpt>
      <trkpt lat="42.38088" lon="2.86177">
        <ele>175.2</ele>
        <time>2022-05-21 14:42:51</time>
      </trkpt>
      <trkpt lat="42.38086" lon="2.86168">
        <ele>175.4</ele>
        <time>2022-05-21 14:42:52</time>
      </trkpt>
      <trkpt lat="42.38086" lon="2.8616">
        <ele>175.6</ele>
        <time>2022-05-21 14:42:53</time>
      </trkpt>
      <trkpt lat="42.38087" lon="2.86152">
        <ele>175.8</ele>
        <time>2022-05-21 14:42:54</time>
      </trkpt>
      <trkpt lat="42.3809" lon="2.86145">
        <ele>176</ele>
        <time>2022-05-21 14:42:55</time>
      </trkpt>
      <trkpt lat="42.38093" lon="2.86138">
        <ele>176.2</ele>
        <time>2022-05-21 14:42:56</time>
      </trkpt>
      <trkpt lat="42.38097" lon="2.86134">
        <ele>176.4</ele>
        <time>2022-05-21 14:42:57</time>
      </trkpt>
      <trkpt lat="42.38101" lon="2.86129">
        <ele>176.4</ele>
        <time>2022-05-21 14:42:58</time>
      </trkpt>
      <trkpt lat="42.38106" lon="2.86125">
        <ele>176.4</ele>
        <time>2022-05-21 14:42:59</time>
      </trkpt>
      <trkpt lat="42.3811" lon="2.86119">
        <ele>176.4</ele>
        <time>2022-05-21 14:43:00</time>
      </trkpt>
      <trkpt lat="42.38114" lon="2.86113">
        <ele>176.4</ele>
        <time>2022-05-21 14:43:01</time>
      </trkpt>
      <trkpt lat="42.38116" lon="2.86105">
        <ele>176.2</ele>
        <time>2022-05-21 14:43:02</time>
      </trkpt>
      <trkpt lat="42.38117" lon="2.86097">
        <ele>176</ele>
        <time>2022-05-21 14:43:03</time>
      </trkpt>
      <trkpt lat="42.38115" lon="2.86089">
        <ele>175.6</ele>
        <time>2022-05-21 14:43:04</time>
      </trkpt>
      <trkpt lat="42.38112" lon="2.86081">
        <ele>175.4</ele>
        <time>2022-05-21 14:43:05</time>
      </trkpt>
      <trkpt lat="42.38108" lon="2.86075">
        <ele>175.2</ele>
        <time>2022-05-21 14:43:06</time>
      </trkpt>
      <trkpt lat="42.38101" lon="2.86069">
        <ele>175</ele>
        <time>2022-05-21 14:43:07</time>
      </trkpt>
      <trkpt lat="42.38094" lon="2.86065">
        <ele>174.8</ele>
        <time>2022-05-21 14:43:08</time>
      </trkpt>
      <trkpt lat="42.38087" lon="2.8606">
        <ele>174.8</ele>
        <time>2022-05-21 14:43:09</time>
      </trkpt>
      <trkpt lat="42.3808" lon="2.86056">
        <ele>174.8</ele>
        <time>2022-05-21 14:43:10</time>
      </trkpt>
      <trkpt lat="42.38073" lon="2.86051">
        <ele>174.8</ele>
        <time>2022-05-21 14:43:11</time>
      </trkpt>
      <trkpt lat="42.38067" lon="2.86047">
        <ele>174.8</ele>
        <time>2022-05-21 14:43:12</time>
      </trkpt>
      <trkpt lat="42.38061" lon="2.86042">
        <ele>175</ele>
        <time>2022-05-21 14:43:13</time>
      </trkpt>
      <trkpt lat="42.38056" lon="2.86038">
        <ele>175</ele>
        <time>2022-05-21 14:43:14</time>
      </trkpt>
      <trkpt lat="42.3805" lon="2.86033">
        <ele>175.2</ele>
        <time>2022-05-21 14:43:15</time>
      </trkpt>
      <trkpt lat="42.38046" lon="2.86029">
        <ele>175.2</ele>
        <time>2022-05-21 14:43:16</time>
      </trkpt>
      <trkpt lat="42.38041" lon="2.86025">
        <ele>175.4</ele>
        <time>2022-05-21 14:43:17</time>
      </trkpt>
      <trkpt lat="42.38037" lon="2.8602">
        <ele>175.6</ele>
        <time>2022-05-21 14:43:18</time>
      </trkpt>
      <trkpt lat="42.38033" lon="2.86016">
        <ele>175.8</ele>
        <time>2022-05-21 14:43:19</time>
      </trkpt>
      <trkpt lat="42.38029" lon="2.86011">
        <ele>176</ele>
        <time>2022-05-21 14:43:20</time>
      </trkpt>
      <trkpt lat="42.38025" lon="2.86007">
        <ele>176.2</ele>
        <time>2022-05-21 14:43:21</time>
      </trkpt>
      <trkpt lat="42.38021" lon="2.86003">
        <ele>176.4</ele>
        <time>2022-05-21 14:43:22</time>
      </trkpt>
      <trkpt lat="42.38017" lon="2.85999">
        <ele>176.4</ele>
        <time>2022-05-21 14:43:23</time>
      </trkpt>
      <trkpt lat="42.38014" lon="2.85995">
        <ele>176.4</ele>
        <time>2022-05-21 14:43:24</time>
      </trkpt>
      <trkpt lat="42.3801" lon="2.8599">
        <ele>176.6</ele>
        <time>2022-05-21 14:43:25</time>
      </trkpt>
      <trkpt lat="42.38006" lon="2.85986">
        <ele>176.8</ele>
        <time>2022-05-21 14:43:26</time>
      </trkpt>
      <trkpt lat="42.38002" lon="2.85982">
        <ele>177</ele>
        <time>2022-05-21 14:43:27</time>
      </trkpt>
      <trkpt lat="42.37998" lon="2.85978">
        <ele>177.2</ele>
        <time>2022-05-21 14:43:28</time>
      </trkpt>
      <trkpt lat="42.37995" lon="2.85974">
        <ele>177.4</ele>
        <time>2022-05-21 14:43:29</time>
      </trkpt>
      <trkpt lat="42.37991" lon="2.85971">
        <ele>177.4</ele>
        <time>2022-05-21 14:43:30</time>
      </trkpt>
      <trkpt lat="42.37986" lon="2.85968">
        <ele>177.6</ele>
        <time>2022-05-21 14:43:31</time>
      </trkpt>
      <trkpt lat="42.37982" lon="2.85965">
        <ele>177.8</ele>
        <time>2022-05-21 14:43:32</time>
      </trkpt>
      <trkpt lat="42.37978" lon="2.85962">
        <ele>177.8</ele>
        <time>2022-05-21 14:43:33</time>
      </trkpt>
      <trkpt lat="42.37973" lon="2.8596">
        <ele>178</ele>
        <time>2022-05-21 14:43:34</time>
      </trkpt>
      <trkpt lat="42.37969" lon="2.85958">
        <ele>178.2</ele>
        <time>2022-05-21 14:43:35</time>
      </trkpt>
      <trkpt lat="42.37965" lon="2.85956">
        <ele>178.4</ele>
        <time>2022-05-21 14:43:36</time>
      </trkpt>
      <trkpt lat="42.3796" lon="2.85954">
        <ele>178.6</ele>
        <time>2022-05-21 14:43:37</time>
      </trkpt>
      <trkpt lat="42.37956" lon="2.85952">
        <ele>178.6</ele>
        <time>2022-05-21 14:43:38</time>
      </trkpt>
      <trkpt lat="42.37952" lon="2.85951">
        <ele>178.8</ele>
        <time>2022-05-21 14:43:39</time>
      </trkpt>
      <trkpt lat="42.37947" lon="2.85949">
        <ele>178.8</ele>
        <time>2022-05-21 14:43:40</time>
      </trkpt>
      <trkpt lat="42.37943" lon="2.85947">
        <ele>178.8</ele>
        <time>2022-05-21 14:43:41</time>
      </trkpt>
      <trkpt lat="42.37939" lon="2.85946">
        <ele>179</ele>
        <time>2022-05-21 14:43:42</time>
      </trkpt>
      <trkpt lat="42.37934" lon="2.85944">
        <ele>179</ele>
        <time>2022-05-21 14:43:43</time>
      </trkpt>
      <trkpt lat="42.37928" lon="2.85944">
        <ele>179</ele>
        <time>2022-05-21 14:43:44</time>
      </trkpt>
      <trkpt lat="42.37923" lon="2.85943">
        <ele>179</ele>
        <time>2022-05-21 14:43:45</time>
      </trkpt>
      <trkpt lat="42.37918" lon="2.85943">
        <ele>179.2</ele>
        <time>2022-05-21 14:43:46</time>
      </trkpt>
      <trkpt lat="42.37914" lon="2.85944">
        <ele>179.4</ele>
        <time>2022-05-21 14:43:47</time>
      </trkpt>
      <trkpt lat="42.37909" lon="2.85945">
        <ele>179.4</ele>
        <time>2022-05-21 14:43:48</time>
      </trkpt>
      <trkpt lat="42.37904" lon="2.85945">
        <ele>179.6</ele>
        <time>2022-05-21 14:43:49</time>
      </trkpt>
      <trkpt lat="42.379" lon="2.85946">
        <ele>179.8</ele>
        <time>2022-05-21 14:43:50</time>
      </trkpt>
      <trkpt lat="42.37896" lon="2.85947">
        <ele>180</ele>
        <time>2022-05-21 14:43:51</time>
      </trkpt>
      <trkpt lat="42.37891" lon="2.85948">
        <ele>180.2</ele>
        <time>2022-05-21 14:43:52</time>
      </trkpt>
      <trkpt lat="42.37887" lon="2.8595">
        <ele>180.2</ele>
        <time>2022-05-21 14:43:53</time>
      </trkpt>
      <trkpt lat="42.37883" lon="2.85952">
        <ele>180.2</ele>
        <time>2022-05-21 14:43:54</time>
      </trkpt>
      <trkpt lat="42.37878" lon="2.85954">
        <ele>180.2</ele>
        <time>2022-05-21 14:43:55</time>
      </trkpt>
      <trkpt lat="42.37874" lon="2.85957">
        <ele>180.2</ele>
        <time>2022-05-21 14:43:56</time>
      </trkpt>
      <trkpt lat="42.3787" lon="2.85961">
        <ele>180.4</ele>
        <time>2022-05-21 14:43:57</time>
      </trkpt>
      <trkpt lat="42.37867" lon="2.85966">
        <ele>180.4</ele>
        <time>2022-05-21 14:43:58</time>
      </trkpt>
      <trkpt lat="42.37864" lon="2.85971">
        <ele>180.4</ele>
        <time>2022-05-21 14:43:59</time>
      </trkpt>
      <trkpt lat="42.37861" lon="2.85976">
        <ele>180.6</ele>
        <time>2022-05-21 14:44:00</time>
      </trkpt>
      <trkpt lat="42.37859" lon="2.85981">
        <ele>180.6</ele>
        <time>2022-05-21 14:44:01</time>
      </trkpt>
      <trkpt lat="42.37856" lon="2.85986">
        <ele>180.6</ele>
        <time>2022-05-21 14:44:02</time>
      </trkpt>
      <trkpt lat="42.37854" lon="2.85992">
        <ele>180.6</ele>
        <time>2022-05-21 14:44:03</time>
      </trkpt>
      <trkpt lat="42.3785" lon="2.85997">
        <ele>180.6</ele>
        <time>2022-05-21 14:44:04</time>
      </trkpt>
      <trkpt lat="42.37847" lon="2.86002">
        <ele>180.6</ele>
        <time>2022-05-21 14:44:05</time>
      </trkpt>
      <trkpt lat="42.37843" lon="2.86006">
        <ele>180.4</ele>
        <time>2022-05-21 14:44:06</time>
      </trkpt>
      <trkpt lat="42.37839" lon="2.8601">
        <ele>180.4</ele>
        <time>2022-05-21 14:44:07</time>
      </trkpt>
      <trkpt lat="42.37834" lon="2.86013">
        <ele>180.4</ele>
        <time>2022-05-21 14:44:08</time>
      </trkpt>
      <trkpt lat="42.37829" lon="2.86015">
        <ele>180.2</ele>
        <time>2022-05-21 14:44:09</time>
      </trkpt>
      <trkpt lat="42.37824" lon="2.86017">
        <ele>180.2</ele>
        <time>2022-05-21 14:44:10</time>
      </trkpt>
      <trkpt lat="42.37819" lon="2.86019">
        <ele>180.2</ele>
        <time>2022-05-21 14:44:11</time>
      </trkpt>
      <trkpt lat="42.37814" lon="2.86021">
        <ele>180.2</ele>
        <time>2022-05-21 14:44:12</time>
      </trkpt>
      <trkpt lat="42.37809" lon="2.86023">
        <ele>180.2</ele>
        <time>2022-05-21 14:44:13</time>
      </trkpt>
      <trkpt lat="42.37805" lon="2.86024">
        <ele>180.4</ele>
        <time>2022-05-21 14:44:14</time>
      </trkpt>
      <trkpt lat="42.378" lon="2.86026">
        <ele>180.4</ele>
        <time>2022-05-21 14:44:15</time>
      </trkpt>
      <trkpt lat="42.37796" lon="2.86028">
        <ele>180.4</ele>
        <time>2022-05-21 14:44:16</time>
      </trkpt>
      <trkpt lat="42.37791" lon="2.86029">
        <ele>180.4</ele>
        <time>2022-05-21 14:44:17</time>
      </trkpt>
      <trkpt lat="42.37786" lon="2.86031">
        <ele>180.6</ele>
        <time>2022-05-21 14:44:18</time>
      </trkpt>
      <trkpt lat="42.37782" lon="2.86033">
        <ele>180.8</ele>
        <time>2022-05-21 14:44:19</time>
      </trkpt>
      <trkpt lat="42.37777" lon="2.86035">
        <ele>181</ele>
        <time>2022-05-21 14:44:20</time>
      </trkpt>
      <trkpt lat="42.37772" lon="2.86036">
        <ele>181.2</ele>
        <time>2022-05-21 14:44:21</time>
      </trkpt>
      <trkpt lat="42.37767" lon="2.86037">
        <ele>181.2</ele>
        <time>2022-05-21 14:44:22</time>
      </trkpt>
      <trkpt lat="42.37762" lon="2.86039">
        <ele>181.2</ele>
        <time>2022-05-21 14:44:23</time>
      </trkpt>
      <trkpt lat="42.37757" lon="2.86041">
        <ele>181.4</ele>
        <time>2022-05-21 14:44:24</time>
      </trkpt>
      <trkpt lat="42.37752" lon="2.86042">
        <ele>181.4</ele>
        <time>2022-05-21 14:44:25</time>
      </trkpt>
      <trkpt lat="42.37748" lon="2.86044">
        <ele>181.6</ele>
        <time>2022-05-21 14:44:26</time>
      </trkpt>
      <trkpt lat="42.37743" lon="2.86045">
        <ele>181.6</ele>
        <time>2022-05-21 14:44:27</time>
      </trkpt>
      <trkpt lat="42.3774" lon="2.86047">
        <ele>181.8</ele>
        <time>2022-05-21 14:44:28</time>
      </trkpt>
      <trkpt lat="42.37737" lon="2.86048">
        <ele>181.8</ele>
        <time>2022-05-21 14:44:29</time>
      </trkpt>
      <trkpt lat="42.37731" lon="2.8605">
        <ele>182</ele>
        <time>2022-05-21 14:44:30</time>
      </trkpt>
      <trkpt lat="42.37727" lon="2.86051">
        <ele>182.2</ele>
        <time>2022-05-21 14:44:31</time>
      </trkpt>
      <trkpt lat="42.37724" lon="2.86052">
        <ele>182.4</ele>
        <time>2022-05-21 14:44:32</time>
      </trkpt>
      <trkpt lat="42.37717" lon="2.86054">
        <ele>182.4</ele>
        <time>2022-05-21 14:44:33</time>
      </trkpt>
      <trkpt lat="42.37713" lon="2.86054">
        <ele>182.4</ele>
        <time>2022-05-21 14:44:34</time>
      </trkpt>
      <trkpt lat="42.37708" lon="2.86054">
        <ele>182.4</ele>
        <time>2022-05-21 14:44:35</time>
      </trkpt>
      <trkpt lat="42.37703" lon="2.86052">
        <ele>182.6</ele>
        <time>2022-05-21 14:44:36</time>
      </trkpt>
      <trkpt lat="42.37698" lon="2.8605">
        <ele>182.6</ele>
        <time>2022-05-21 14:44:37</time>
      </trkpt>
      <trkpt lat="42.37694" lon="2.86047">
        <ele>182.6</ele>
        <time>2022-05-21 14:44:38</time>
      </trkpt>
      <trkpt lat="42.37689" lon="2.86044">
        <ele>182.6</ele>
        <time>2022-05-21 14:44:39</time>
      </trkpt>
      <trkpt lat="42.37684" lon="2.86041">
        <ele>182.6</ele>
        <time>2022-05-21 14:44:40</time>
      </trkpt>
      <trkpt lat="42.37678" lon="2.86038">
        <ele>182.4</ele>
        <time>2022-05-21 14:44:41</time>
      </trkpt>
      <trkpt lat="42.37674" lon="2.86035">
        <ele>182.4</ele>
        <time>2022-05-21 14:44:42</time>
      </trkpt>
      <trkpt lat="42.37669" lon="2.86032">
        <ele>182.4</ele>
        <time>2022-05-21 14:44:43</time>
      </trkpt>
      <trkpt lat="42.37664" lon="2.86029">
        <ele>182.4</ele>
        <time>2022-05-21 14:44:44</time>
      </trkpt>
      <trkpt lat="42.37659" lon="2.86027">
        <ele>182.4</ele>
        <time>2022-05-21 14:44:45</time>
      </trkpt>
      <trkpt lat="42.37654" lon="2.86023">
        <ele>182.4</ele>
        <time>2022-05-21 14:44:46</time>
      </trkpt>
      <trkpt lat="42.37649" lon="2.8602">
        <ele>182.4</ele>
        <time>2022-05-21 14:44:47</time>
      </trkpt>
      <trkpt lat="42.37644" lon="2.86017">
        <ele>182.6</ele>
        <time>2022-05-21 14:44:48</time>
      </trkpt>
      <trkpt lat="42.3764" lon="2.86015">
        <ele>182.6</ele>
        <time>2022-05-21 14:44:49</time>
      </trkpt>
      <trkpt lat="42.37635" lon="2.86012">
        <ele>182.4</ele>
        <time>2022-05-21 14:44:50</time>
      </trkpt>
      <trkpt lat="42.3763" lon="2.86009">
        <ele>182.6</ele>
        <time>2022-05-21 14:44:51</time>
      </trkpt>
      <trkpt lat="42.37625" lon="2.86006">
        <ele>182.6</ele>
        <time>2022-05-21 14:44:52</time>
      </trkpt>
      <trkpt lat="42.37621" lon="2.86003">
        <ele>182.6</ele>
        <time>2022-05-21 14:44:53</time>
      </trkpt>
      <trkpt lat="42.37617" lon="2.86001">
        <ele>182.8</ele>
        <time>2022-05-21 14:44:54</time>
      </trkpt>
      <trkpt lat="42.37612" lon="2.85998">
        <ele>182.8</ele>
        <time>2022-05-21 14:44:55</time>
      </trkpt>
      <trkpt lat="42.37608" lon="2.85995">
        <ele>183</ele>
        <time>2022-05-21 14:44:56</time>
      </trkpt>
      <trkpt lat="42.37603" lon="2.85992">
        <ele>183</ele>
        <time>2022-05-21 14:44:57</time>
      </trkpt>
      <trkpt lat="42.376" lon="2.8599">
        <ele>183.2</ele>
        <time>2022-05-21 14:44:58</time>
      </trkpt>
      <trkpt lat="42.37595" lon="2.85988">
        <ele>183.2</ele>
        <time>2022-05-21 14:44:59</time>
      </trkpt>
      <trkpt lat="42.37591" lon="2.85985">
        <ele>183.2</ele>
        <time>2022-05-21 14:45:00</time>
      </trkpt>
      <trkpt lat="42.37587" lon="2.85983">
        <ele>183.4</ele>
        <time>2022-05-21 14:45:01</time>
      </trkpt>
      <trkpt lat="42.37582" lon="2.85981">
        <ele>183.4</ele>
        <time>2022-05-21 14:45:02</time>
      </trkpt>
      <trkpt lat="42.37578" lon="2.85979">
        <ele>183.4</ele>
        <time>2022-05-21 14:45:03</time>
      </trkpt>
      <trkpt lat="42.37573" lon="2.85977">
        <ele>183.4</ele>
        <time>2022-05-21 14:45:04</time>
      </trkpt>
      <trkpt lat="42.37569" lon="2.85975">
        <ele>183.4</ele>
        <time>2022-05-21 14:45:05</time>
      </trkpt>
      <trkpt lat="42.37564" lon="2.85973">
        <ele>183.6</ele>
        <time>2022-05-21 14:45:06</time>
      </trkpt>
      <trkpt lat="42.37559" lon="2.8597">
        <ele>183.6</ele>
        <time>2022-05-21 14:45:07</time>
      </trkpt>
      <trkpt lat="42.37555" lon="2.85968">
        <ele>183.8</ele>
        <time>2022-05-21 14:45:08</time>
      </trkpt>
      <trkpt lat="42.3755" lon="2.85967">
        <ele>184</ele>
        <time>2022-05-21 14:45:09</time>
      </trkpt>
      <trkpt lat="42.37546" lon="2.85965">
        <ele>184</ele>
        <time>2022-05-21 14:45:10</time>
      </trkpt>
      <trkpt lat="42.37542" lon="2.85963">
        <ele>184.2</ele>
        <time>2022-05-21 14:45:11</time>
      </trkpt>
      <trkpt lat="42.37537" lon="2.85961">
        <ele>184.2</ele>
        <time>2022-05-21 14:45:12</time>
      </trkpt>
      <trkpt lat="42.37532" lon="2.85959">
        <ele>184.2</ele>
        <time>2022-05-21 14:45:13</time>
      </trkpt>
      <trkpt lat="42.37528" lon="2.85957">
        <ele>184.2</ele>
        <time>2022-05-21 14:45:14</time>
      </trkpt>
      <trkpt lat="42.37523" lon="2.85955">
        <ele>184.2</ele>
        <time>2022-05-21 14:45:15</time>
      </trkpt>
      <trkpt lat="42.37519" lon="2.85953">
        <ele>184.4</ele>
        <time>2022-05-21 14:45:16</time>
      </trkpt>
      <trkpt lat="42.37515" lon="2.85951">
        <ele>184.4</ele>
        <time>2022-05-21 14:45:17</time>
      </trkpt>
      <trkpt lat="42.37511" lon="2.85949">
        <ele>184.6</ele>
        <time>2022-05-21 14:45:18</time>
      </trkpt>
      <trkpt lat="42.37507" lon="2.85947">
        <ele>184.6</ele>
        <time>2022-05-21 14:45:19</time>
      </trkpt>
      <trkpt lat="42.37502" lon="2.85945">
        <ele>184.6</ele>
        <time>2022-05-21 14:45:20</time>
      </trkpt>
      <trkpt lat="42.37498" lon="2.85943">
        <ele>184.6</ele>
        <time>2022-05-21 14:45:21</time>
      </trkpt>
      <trkpt lat="42.37494" lon="2.85941">
        <ele>184.6</ele>
        <time>2022-05-21 14:45:22</time>
      </trkpt>
      <trkpt lat="42.3749" lon="2.8594">
        <ele>184.6</ele>
        <time>2022-05-21 14:45:23</time>
      </trkpt>
      <trkpt lat="42.37486" lon="2.85938">
        <ele>184.6</ele>
        <time>2022-05-21 14:45:24</time>
      </trkpt>
      <trkpt lat="42.37482" lon="2.85936">
        <ele>184.8</ele>
        <time>2022-05-21 14:45:25</time>
      </trkpt>
      <trkpt lat="42.37477" lon="2.85934">
        <ele>184.8</ele>
        <time>2022-05-21 14:45:26</time>
      </trkpt>
      <trkpt lat="42.37473" lon="2.85932">
        <ele>184.8</ele>
        <time>2022-05-21 14:45:27</time>
      </trkpt>
      <trkpt lat="42.37469" lon="2.8593">
        <ele>185</ele>
        <time>2022-05-21 14:45:28</time>
      </trkpt>
      <trkpt lat="42.37465" lon="2.85929">
        <ele>185</ele>
        <time>2022-05-21 14:45:29</time>
      </trkpt>
      <trkpt lat="42.37461" lon="2.85927">
        <ele>185</ele>
        <time>2022-05-21 14:45:30</time>
      </trkpt>
      <trkpt lat="42.37457" lon="2.85925">
        <ele>185.2</ele>
        <time>2022-05-21 14:45:31</time>
      </trkpt>
      <trkpt lat="42.37453" lon="2.85923">
        <ele>185.2</ele>
        <time>2022-05-21 14:45:32</time>
      </trkpt>
      <trkpt lat="42.37449" lon="2.85922">
        <ele>185.2</ele>
        <time>2022-05-21 14:45:33</time>
      </trkpt>
      <trkpt lat="42.37445" lon="2.8592">
        <ele>185.2</ele>
        <time>2022-05-21 14:45:34</time>
      </trkpt>
      <trkpt lat="42.3744" lon="2.85918">
        <ele>185.2</ele>
        <time>2022-05-21 14:45:35</time>
      </trkpt>
      <trkpt lat="42.37436" lon="2.85916">
        <ele>185.4</ele>
        <time>2022-05-21 14:45:36</time>
      </trkpt>
      <trkpt lat="42.37431" lon="2.85914">
        <ele>185.4</ele>
        <time>2022-05-21 14:45:37</time>
      </trkpt>
      <trkpt lat="42.37427" lon="2.85912">
        <ele>185.4</ele>
        <time>2022-05-21 14:45:38</time>
      </trkpt>
      <trkpt lat="42.37423" lon="2.8591">
        <ele>185.4</ele>
        <time>2022-05-21 14:45:39</time>
      </trkpt>
      <trkpt lat="42.37418" lon="2.85908">
        <ele>185.6</ele>
        <time>2022-05-21 14:45:40</time>
      </trkpt>
      <trkpt lat="42.37414" lon="2.85906">
        <ele>185.6</ele>
        <time>2022-05-21 14:45:41</time>
      </trkpt>
      <trkpt lat="42.37409" lon="2.85904">
        <ele>185.6</ele>
        <time>2022-05-21 14:45:42</time>
      </trkpt>
      <trkpt lat="42.37404" lon="2.85902">
        <ele>185.8</ele>
        <time>2022-05-21 14:45:43</time>
      </trkpt>
      <trkpt lat="42.37399" lon="2.85899">
        <ele>185.8</ele>
        <time>2022-05-21 14:45:44</time>
      </trkpt>
      <trkpt lat="42.37395" lon="2.85897">
        <ele>185.8</ele>
        <time>2022-05-21 14:45:45</time>
      </trkpt>
      <trkpt lat="42.3739" lon="2.85895">
        <ele>185.8</ele>
        <time>2022-05-21 14:45:46</time>
      </trkpt>
      <trkpt lat="42.37385" lon="2.85893">
        <ele>185.8</ele>
        <time>2022-05-21 14:45:47</time>
      </trkpt>
      <trkpt lat="42.37379" lon="2.85891">
        <ele>185.6</ele>
        <time>2022-05-21 14:45:48</time>
      </trkpt>
      <trkpt lat="42.37374" lon="2.85888">
        <ele>185.4</ele>
        <time>2022-05-21 14:45:49</time>
      </trkpt>
      <trkpt lat="42.37368" lon="2.85885">
        <ele>185.2</ele>
        <time>2022-05-21 14:45:50</time>
      </trkpt>
      <trkpt lat="42.37361" lon="2.85882">
        <ele>184.8</ele>
        <time>2022-05-21 14:45:51</time>
      </trkpt>
      <trkpt lat="42.37354" lon="2.85877">
        <ele>184.6</ele>
        <time>2022-05-21 14:45:52</time>
      </trkpt>
      <trkpt lat="42.37348" lon="2.85872">
        <ele>184</ele>
        <time>2022-05-21 14:45:53</time>
      </trkpt>
      <trkpt lat="42.37341" lon="2.85866">
        <ele>183.6</ele>
        <time>2022-05-21 14:45:54</time>
      </trkpt>
      <trkpt lat="42.37333" lon="2.8586">
        <ele>183</ele>
        <time>2022-05-21 14:45:55</time>
      </trkpt>
      <trkpt lat="42.37326" lon="2.85854">
        <ele>182.6</ele>
        <time>2022-05-21 14:45:56</time>
      </trkpt>
      <trkpt lat="42.37318" lon="2.8585">
        <ele>182</ele>
        <time>2022-05-21 14:45:57</time>
      </trkpt>
      <trkpt lat="42.37309" lon="2.85848">
        <ele>181.4</ele>
        <time>2022-05-21 14:45:58</time>
      </trkpt>
      <trkpt lat="42.373" lon="2.85847">
        <ele>180.8</ele>
        <time>2022-05-21 14:45:59</time>
      </trkpt>
      <trkpt lat="42.3729" lon="2.85846">
        <ele>180.2</ele>
        <time>2022-05-21 14:46:00</time>
      </trkpt>
      <trkpt lat="42.3728" lon="2.85845">
        <ele>179.4</ele>
        <time>2022-05-21 14:46:01</time>
      </trkpt>
      <trkpt lat="42.37269" lon="2.85844">
        <ele>178.6</ele>
        <time>2022-05-21 14:46:02</time>
      </trkpt>
      <trkpt lat="42.37259" lon="2.85842">
        <ele>177.8</ele>
        <time>2022-05-21 14:46:03</time>
      </trkpt>
      <trkpt lat="42.37248" lon="2.85839">
        <ele>176.8</ele>
        <time>2022-05-21 14:46:04</time>
      </trkpt>
      <trkpt lat="42.37239" lon="2.85832">
        <ele>176</ele>
        <time>2022-05-21 14:46:05</time>
      </trkpt>
      <trkpt lat="42.37231" lon="2.85823">
        <ele>175.2</ele>
        <time>2022-05-21 14:46:06</time>
      </trkpt>
      <trkpt lat="42.37223" lon="2.85814">
        <ele>174.6</ele>
        <time>2022-05-21 14:46:07</time>
      </trkpt>
      <trkpt lat="42.37215" lon="2.85807">
        <ele>174</ele>
        <time>2022-05-21 14:46:08</time>
      </trkpt>
      <trkpt lat="42.37205" lon="2.85805">
        <ele>173.4</ele>
        <time>2022-05-21 14:46:09</time>
      </trkpt>
      <trkpt lat="42.37194" lon="2.85806">
        <ele>172.8</ele>
        <time>2022-05-21 14:46:10</time>
      </trkpt>
      <trkpt lat="42.37183" lon="2.85806">
        <ele>172</ele>
        <time>2022-05-21 14:46:11</time>
      </trkpt>
      <trkpt lat="42.37173" lon="2.85805">
        <ele>171.2</ele>
        <time>2022-05-21 14:46:12</time>
      </trkpt>
      <trkpt lat="42.37162" lon="2.85802">
        <ele>170.4</ele>
        <time>2022-05-21 14:46:13</time>
      </trkpt>
      <trkpt lat="42.37151" lon="2.85798">
        <ele>169.6</ele>
        <time>2022-05-21 14:46:14</time>
      </trkpt>
      <trkpt lat="42.3714" lon="2.85794">
        <ele>169</ele>
        <time>2022-05-21 14:46:15</time>
      </trkpt>
      <trkpt lat="42.3713" lon="2.85787">
        <ele>168.2</ele>
        <time>2022-05-21 14:46:16</time>
      </trkpt>
      <trkpt lat="42.3712" lon="2.85779">
        <ele>167.4</ele>
        <time>2022-05-21 14:46:17</time>
      </trkpt>
      <trkpt lat="42.37112" lon="2.85769">
        <ele>166.8</ele>
        <time>2022-05-21 14:46:18</time>
      </trkpt>
      <trkpt lat="42.37104" lon="2.85758">
        <ele>166.2</ele>
        <time>2022-05-21 14:46:19</time>
      </trkpt>
      <trkpt lat="42.37096" lon="2.85746">
        <ele>165.6</ele>
        <time>2022-05-21 14:46:20</time>
      </trkpt>
      <trkpt lat="42.37089" lon="2.85734">
        <ele>165</ele>
        <time>2022-05-21 14:46:21</time>
      </trkpt>
      <trkpt lat="42.37081" lon="2.85723">
        <ele>164.4</ele>
        <time>2022-05-21 14:46:22</time>
      </trkpt>
      <trkpt lat="42.37072" lon="2.85715">
        <ele>163.8</ele>
        <time>2022-05-21 14:46:23</time>
      </trkpt>
      <trkpt lat="42.37062" lon="2.85714">
        <ele>163.2</ele>
        <time>2022-05-21 14:46:24</time>
      </trkpt>
      <trkpt lat="42.37053" lon="2.85717">
        <ele>162.6</ele>
        <time>2022-05-21 14:46:25</time>
      </trkpt>
      <trkpt lat="42.37043" lon="2.85721">
        <ele>162</ele>
        <time>2022-05-21 14:46:26</time>
      </trkpt>
      <trkpt lat="42.37035" lon="2.85728">
        <ele>161</ele>
        <time>2022-05-21 14:46:27</time>
      </trkpt>
      <trkpt lat="42.37027" lon="2.85737">
        <ele>160</ele>
        <time>2022-05-21 14:46:28</time>
      </trkpt>
      <trkpt lat="42.37019" lon="2.85748">
        <ele>159</ele>
        <time>2022-05-21 14:46:29</time>
      </trkpt>
      <trkpt lat="42.37012" lon="2.85759">
        <ele>158</ele>
        <time>2022-05-21 14:46:30</time>
      </trkpt>
      <trkpt lat="42.37007" lon="2.85772">
        <ele>157.4</ele>
        <time>2022-05-21 14:46:31</time>
      </trkpt>
      <trkpt lat="42.37003" lon="2.85786">
        <ele>156.4</ele>
        <time>2022-05-21 14:46:32</time>
      </trkpt>
      <trkpt lat="42.36999" lon="2.85802">
        <ele>155.4</ele>
        <time>2022-05-21 14:46:33</time>
      </trkpt>
      <trkpt lat="42.36993" lon="2.85817">
        <ele>154.4</ele>
        <time>2022-05-21 14:46:34</time>
      </trkpt>
      <trkpt lat="42.36987" lon="2.85831">
        <ele>153.2</ele>
        <time>2022-05-21 14:46:35</time>
      </trkpt>
      <trkpt lat="42.36979" lon="2.85844">
        <ele>152.4</ele>
        <time>2022-05-21 14:46:36</time>
      </trkpt>
      <trkpt lat="42.3697" lon="2.85856">
        <ele>151.6</ele>
        <time>2022-05-21 14:46:37</time>
      </trkpt>
      <trkpt lat="42.36961" lon="2.85864">
        <ele>150.6</ele>
        <time>2022-05-21 14:46:38</time>
      </trkpt>
      <trkpt lat="42.36949" lon="2.85867">
        <ele>150</ele>
        <time>2022-05-21 14:46:39</time>
      </trkpt>
      <trkpt lat="42.36936" lon="2.85865">
        <ele>149.2</ele>
        <time>2022-05-21 14:46:40</time>
      </trkpt>
      <trkpt lat="42.36923" lon="2.85862">
        <ele>148.4</ele>
        <time>2022-05-21 14:46:41</time>
      </trkpt>
      <trkpt lat="42.3691" lon="2.85858">
        <ele>147.6</ele>
        <time>2022-05-21 14:46:42</time>
      </trkpt>
      <trkpt lat="42.36897" lon="2.85856">
        <ele>146.8</ele>
        <time>2022-05-21 14:46:43</time>
      </trkpt>
      <trkpt lat="42.36884" lon="2.85856">
        <ele>146</ele>
        <time>2022-05-21 14:46:44</time>
      </trkpt>
      <trkpt lat="42.36871" lon="2.85857">
        <ele>145.2</ele>
        <time>2022-05-21 14:46:45</time>
      </trkpt>
      <trkpt lat="42.36859" lon="2.8586">
        <ele>144.4</ele>
        <time>2022-05-21 14:46:46</time>
      </trkpt>
      <trkpt lat="42.36846" lon="2.85863">
        <ele>143.6</ele>
        <time>2022-05-21 14:46:47</time>
      </trkpt>
      <trkpt lat="42.36834" lon="2.85866">
        <ele>143</ele>
        <time>2022-05-21 14:46:48</time>
      </trkpt>
      <trkpt lat="42.36822" lon="2.8587">
        <ele>142.6</ele>
        <time>2022-05-21 14:46:49</time>
      </trkpt>
      <trkpt lat="42.36811" lon="2.85876">
        <ele>142</ele>
        <time>2022-05-21 14:46:50</time>
      </trkpt>
      <trkpt lat="42.36802" lon="2.85886">
        <ele>141.4</ele>
        <time>2022-05-21 14:46:51</time>
      </trkpt>
      <trkpt lat="42.36797" lon="2.85899">
        <ele>140.8</ele>
        <time>2022-05-21 14:46:52</time>
      </trkpt>
      <trkpt lat="42.36795" lon="2.85914">
        <ele>140.2</ele>
        <time>2022-05-21 14:46:53</time>
      </trkpt>
      <trkpt lat="42.36793" lon="2.85928">
        <ele>139.6</ele>
        <time>2022-05-21 14:46:54</time>
      </trkpt>
      <trkpt lat="42.36788" lon="2.85938">
        <ele>139</ele>
        <time>2022-05-21 14:46:55</time>
      </trkpt>
      <trkpt lat="42.36781" lon="2.85942">
        <ele>138.4</ele>
        <time>2022-05-21 14:46:56</time>
      </trkpt>
      <trkpt lat="42.36772" lon="2.8594">
        <ele>138</ele>
        <time>2022-05-21 14:46:57</time>
      </trkpt>
      <trkpt lat="42.36763" lon="2.85935">
        <ele>137.6</ele>
        <time>2022-05-21 14:46:58</time>
      </trkpt>
      <trkpt lat="42.36754" lon="2.8593">
        <ele>137.2</ele>
        <time>2022-05-21 14:46:59</time>
      </trkpt>
      <trkpt lat="42.36745" lon="2.85929">
        <ele>137</ele>
        <time>2022-05-21 14:47:00</time>
      </trkpt>
      <trkpt lat="42.36736" lon="2.8593">
        <ele>136.4</ele>
        <time>2022-05-21 14:47:01</time>
      </trkpt>
      <trkpt lat="42.36726" lon="2.85931">
        <ele>136</ele>
        <time>2022-05-21 14:47:02</time>
      </trkpt>
      <trkpt lat="42.36716" lon="2.85933">
        <ele>135.4</ele>
        <time>2022-05-21 14:47:03</time>
      </trkpt>
      <trkpt lat="42.36705" lon="2.85936">
        <ele>135</ele>
        <time>2022-05-21 14:47:04</time>
      </trkpt>
      <trkpt lat="42.36695" lon="2.85939">
        <ele>134.4</ele>
        <time>2022-05-21 14:47:05</time>
      </trkpt>
      <trkpt lat="42.36685" lon="2.85942">
        <ele>133.8</ele>
        <time>2022-05-21 14:47:06</time>
      </trkpt>
      <trkpt lat="42.36675" lon="2.85944">
        <ele>133</ele>
        <time>2022-05-21 14:47:07</time>
      </trkpt>
      <trkpt lat="42.36664" lon="2.85944">
        <ele>132.4</ele>
        <time>2022-05-21 14:47:08</time>
      </trkpt>
      <trkpt lat="42.36653" lon="2.85942">
        <ele>131.8</ele>
        <time>2022-05-21 14:47:09</time>
      </trkpt>
      <trkpt lat="42.36642" lon="2.85939">
        <ele>131.2</ele>
        <time>2022-05-21 14:47:10</time>
      </trkpt>
      <trkpt lat="42.36631" lon="2.85937">
        <ele>130.6</ele>
        <time>2022-05-21 14:47:11</time>
      </trkpt>
      <trkpt lat="42.3662" lon="2.85936">
        <ele>129.8</ele>
        <time>2022-05-21 14:47:12</time>
      </trkpt>
      <trkpt lat="42.36609" lon="2.85936">
        <ele>129.2</ele>
        <time>2022-05-21 14:47:13</time>
      </trkpt>
      <trkpt lat="42.36598" lon="2.85936">
        <ele>128.8</ele>
        <time>2022-05-21 14:47:14</time>
      </trkpt>
      <trkpt lat="42.36587" lon="2.85936">
        <ele>128</ele>
        <time>2022-05-21 14:47:15</time>
      </trkpt>
      <trkpt lat="42.36575" lon="2.85935">
        <ele>127.4</ele>
        <time>2022-05-21 14:47:16</time>
      </trkpt>
      <trkpt lat="42.36564" lon="2.85933">
        <ele>126.8</ele>
        <time>2022-05-21 14:47:17</time>
      </trkpt>
      <trkpt lat="42.36553" lon="2.85931">
        <ele>126.2</ele>
        <time>2022-05-21 14:47:18</time>
      </trkpt>
      <trkpt lat="42.36543" lon="2.85927">
        <ele>125.6</ele>
        <time>2022-05-21 14:47:19</time>
      </trkpt>
      <trkpt lat="42.36532" lon="2.85923">
        <ele>125.2</ele>
        <time>2022-05-21 14:47:20</time>
      </trkpt>
      <trkpt lat="42.36522" lon="2.85918">
        <ele>125</ele>
        <time>2022-05-21 14:47:21</time>
      </trkpt>
      <trkpt lat="42.36512" lon="2.85914">
        <ele>124.6</ele>
        <time>2022-05-21 14:47:22</time>
      </trkpt>
      <trkpt lat="42.36502" lon="2.85911">
        <ele>124.2</ele>
        <time>2022-05-21 14:47:23</time>
      </trkpt>
      <trkpt lat="42.36492" lon="2.85908">
        <ele>124</ele>
        <time>2022-05-21 14:47:24</time>
      </trkpt>
      <trkpt lat="42.36483" lon="2.85906">
        <ele>123.8</ele>
        <time>2022-05-21 14:47:25</time>
      </trkpt>
      <trkpt lat="42.36473" lon="2.85903">
        <ele>123.6</ele>
        <time>2022-05-21 14:47:26</time>
      </trkpt>
      <trkpt lat="42.36463" lon="2.85902">
        <ele>123.6</ele>
        <time>2022-05-21 14:47:27</time>
      </trkpt>
      <trkpt lat="42.36454" lon="2.859">
        <ele>123.4</ele>
        <time>2022-05-21 14:47:28</time>
      </trkpt>
      <trkpt lat="42.36445" lon="2.85898">
        <ele>123.4</ele>
        <time>2022-05-21 14:47:29</time>
      </trkpt>
      <trkpt lat="42.36436" lon="2.85896">
        <ele>123.2</ele>
        <time>2022-05-21 14:47:30</time>
      </trkpt>
      <trkpt lat="42.36427" lon="2.85895">
        <ele>123</ele>
        <time>2022-05-21 14:47:31</time>
      </trkpt>
      <trkpt lat="42.36419" lon="2.85893">
        <ele>123</ele>
        <time>2022-05-21 14:47:32</time>
      </trkpt>
      <trkpt lat="42.36409" lon="2.8589">
        <ele>122.8</ele>
        <time>2022-05-21 14:47:33</time>
      </trkpt>
      <trkpt lat="42.36401" lon="2.85887">
        <ele>122.8</ele>
        <time>2022-05-21 14:47:34</time>
      </trkpt>
      <trkpt lat="42.36393" lon="2.85881">
        <ele>122.6</ele>
        <time>2022-05-21 14:47:35</time>
      </trkpt>
      <trkpt lat="42.36387" lon="2.85874">
        <ele>122.6</ele>
        <time>2022-05-21 14:47:36</time>
      </trkpt>
      <trkpt lat="42.36381" lon="2.85864">
        <ele>122.2</ele>
        <time>2022-05-21 14:47:37</time>
      </trkpt>
      <trkpt lat="42.36378" lon="2.85852">
        <ele>121.8</ele>
        <time>2022-05-21 14:47:38</time>
      </trkpt>
      <trkpt lat="42.36376" lon="2.8584">
        <ele>121.6</ele>
        <time>2022-05-21 14:47:39</time>
      </trkpt>
      <trkpt lat="42.36375" lon="2.85828">
        <ele>121.4</ele>
        <time>2022-05-21 14:47:40</time>
      </trkpt>
      <trkpt lat="42.36373" lon="2.85816">
        <ele>121.2</ele>
        <time>2022-05-21 14:47:41</time>
      </trkpt>
      <trkpt lat="42.36372" lon="2.85803">
        <ele>121</ele>
        <time>2022-05-21 14:47:42</time>
      </trkpt>
      <trkpt lat="42.3637" lon="2.85791">
        <ele>120.8</ele>
        <time>2022-05-21 14:47:43</time>
      </trkpt>
      <trkpt lat="42.36369" lon="2.85779">
        <ele>120.8</ele>
        <time>2022-05-21 14:47:44</time>
      </trkpt>
      <trkpt lat="42.36368" lon="2.85768">
        <ele>120.8</ele>
        <time>2022-05-21 14:47:45</time>
      </trkpt>
      <trkpt lat="42.36367" lon="2.85756">
        <ele>120.8</ele>
        <time>2022-05-21 14:47:46</time>
      </trkpt>
      <trkpt lat="42.36366" lon="2.85745">
        <ele>120.8</ele>
        <time>2022-05-21 14:47:47</time>
      </trkpt>
      <trkpt lat="42.36365" lon="2.85734">
        <ele>120.8</ele>
        <time>2022-05-21 14:47:48</time>
      </trkpt>
      <trkpt lat="42.36365" lon="2.85722">
        <ele>121</ele>
        <time>2022-05-21 14:47:49</time>
      </trkpt>
      <trkpt lat="42.36365" lon="2.85711">
        <ele>120.8</ele>
        <time>2022-05-21 14:47:50</time>
      </trkpt>
      <trkpt lat="42.36366" lon="2.85701">
        <ele>120.8</ele>
        <time>2022-05-21 14:47:51</time>
      </trkpt>
      <trkpt lat="42.36368" lon="2.8569">
        <ele>120.8</ele>
        <time>2022-05-21 14:47:52</time>
      </trkpt>
      <trkpt lat="42.36371" lon="2.8568">
        <ele>121</ele>
        <time>2022-05-21 14:47:53</time>
      </trkpt>
      <trkpt lat="42.36374" lon="2.85671">
        <ele>121</ele>
        <time>2022-05-21 14:47:54</time>
      </trkpt>
      <trkpt lat="42.36377" lon="2.85662">
        <ele>121.2</ele>
        <time>2022-05-21 14:47:55</time>
      </trkpt>
      <trkpt lat="42.36382" lon="2.85654">
        <ele>121.2</ele>
        <time>2022-05-21 14:47:56</time>
      </trkpt>
      <trkpt lat="42.36386" lon="2.85646">
        <ele>121.4</ele>
        <time>2022-05-21 14:47:57</time>
      </trkpt>
      <trkpt lat="42.36391" lon="2.85638">
        <ele>121.6</ele>
        <time>2022-05-21 14:47:58</time>
      </trkpt>
      <trkpt lat="42.36395" lon="2.8563">
        <ele>121.8</ele>
        <time>2022-05-21 14:47:59</time>
      </trkpt>
      <trkpt lat="42.36399" lon="2.85623">
        <ele>122</ele>
        <time>2022-05-21 14:48:00</time>
      </trkpt>
      <trkpt lat="42.36403" lon="2.85616">
        <ele>122.2</ele>
        <time>2022-05-21 14:48:01</time>
      </trkpt>
      <trkpt lat="42.36407" lon="2.85608">
        <ele>122.4</ele>
        <time>2022-05-21 14:48:02</time>
      </trkpt>
      <trkpt lat="42.36411" lon="2.856">
        <ele>122.4</ele>
        <time>2022-05-21 14:48:03</time>
      </trkpt>
      <trkpt lat="42.36414" lon="2.85592">
        <ele>122.6</ele>
        <time>2022-05-21 14:48:04</time>
      </trkpt>
      <trkpt lat="42.36417" lon="2.85584">
        <ele>122.8</ele>
        <time>2022-05-21 14:48:05</time>
      </trkpt>
      <trkpt lat="42.36419" lon="2.85576">
        <ele>123</ele>
        <time>2022-05-21 14:48:06</time>
      </trkpt>
      <trkpt lat="42.36421" lon="2.85568">
        <ele>123</ele>
        <time>2022-05-21 14:48:07</time>
      </trkpt>
      <trkpt lat="42.36423" lon="2.85559">
        <ele>123.2</ele>
        <time>2022-05-21 14:48:08</time>
      </trkpt>
      <trkpt lat="42.36424" lon="2.85551">
        <ele>123.2</ele>
        <time>2022-05-21 14:48:09</time>
      </trkpt>
      <trkpt lat="42.36424" lon="2.85542">
        <ele>123.2</ele>
        <time>2022-05-21 14:48:10</time>
      </trkpt>
      <trkpt lat="42.36425" lon="2.85533">
        <ele>123.2</ele>
        <time>2022-05-21 14:48:11</time>
      </trkpt>
      <trkpt lat="42.36424" lon="2.85524">
        <ele>123.2</ele>
        <time>2022-05-21 14:48:12</time>
      </trkpt>
      <trkpt lat="42.36424" lon="2.85515">
        <ele>123.4</ele>
        <time>2022-05-21 14:48:13</time>
      </trkpt>
      <trkpt lat="42.36423" lon="2.85507">
        <ele>123.4</ele>
        <time>2022-05-21 14:48:14</time>
      </trkpt>
      <trkpt lat="42.36421" lon="2.85498">
        <ele>123.4</ele>
        <time>2022-05-21 14:48:15</time>
      </trkpt>
      <trkpt lat="42.3642" lon="2.8549">
        <ele>123.6</ele>
        <time>2022-05-21 14:48:16</time>
      </trkpt>
      <trkpt lat="42.36418" lon="2.85482">
        <ele>123.6</ele>
        <time>2022-05-21 14:48:17</time>
      </trkpt>
      <trkpt lat="42.36416" lon="2.85474">
        <ele>123.8</ele>
        <time>2022-05-21 14:48:18</time>
      </trkpt>
      <trkpt lat="42.36414" lon="2.85466">
        <ele>123.8</ele>
        <time>2022-05-21 14:48:19</time>
      </trkpt>
      <trkpt lat="42.36411" lon="2.85459">
        <ele>123.8</ele>
        <time>2022-05-21 14:48:20</time>
      </trkpt>
      <trkpt lat="42.36408" lon="2.85452">
        <ele>123.8</ele>
        <time>2022-05-21 14:48:21</time>
      </trkpt>
      <trkpt lat="42.36405" lon="2.85446">
        <ele>124</ele>
        <time>2022-05-21 14:48:22</time>
      </trkpt>
      <trkpt lat="42.36401" lon="2.8544">
        <ele>124</ele>
        <time>2022-05-21 14:48:23</time>
      </trkpt>
      <trkpt lat="42.36396" lon="2.85434">
        <ele>124</ele>
        <time>2022-05-21 14:48:24</time>
      </trkpt>
      <trkpt lat="42.36391" lon="2.85429">
        <ele>124</ele>
        <time>2022-05-21 14:48:25</time>
      </trkpt>
      <trkpt lat="42.36386" lon="2.85424">
        <ele>124.2</ele>
        <time>2022-05-21 14:48:26</time>
      </trkpt>
      <trkpt lat="42.36381" lon="2.85419">
        <ele>124.2</ele>
        <time>2022-05-21 14:48:27</time>
      </trkpt>
      <trkpt lat="42.36375" lon="2.85414">
        <ele>124.4</ele>
        <time>2022-05-21 14:48:28</time>
      </trkpt>
      <trkpt lat="42.3637" lon="2.85409">
        <ele>124.4</ele>
        <time>2022-05-21 14:48:29</time>
      </trkpt>
      <trkpt lat="42.36365" lon="2.85404">
        <ele>124.6</ele>
        <time>2022-05-21 14:48:30</time>
      </trkpt>
      <trkpt lat="42.36359" lon="2.85399">
        <ele>124.6</ele>
        <time>2022-05-21 14:48:31</time>
      </trkpt>
      <trkpt lat="42.36354" lon="2.85394">
        <ele>124.6</ele>
        <time>2022-05-21 14:48:32</time>
      </trkpt>
      <trkpt lat="42.36349" lon="2.85389">
        <ele>124.6</ele>
        <time>2022-05-21 14:48:33</time>
      </trkpt>
      <trkpt lat="42.36344" lon="2.85384">
        <ele>124.6</ele>
        <time>2022-05-21 14:48:34</time>
      </trkpt>
      <trkpt lat="42.36338" lon="2.85379">
        <ele>124.6</ele>
        <time>2022-05-21 14:48:35</time>
      </trkpt>
      <trkpt lat="42.36333" lon="2.85375">
        <ele>124.8</ele>
        <time>2022-05-21 14:48:36</time>
      </trkpt>
      <trkpt lat="42.36328" lon="2.8537">
        <ele>124.8</ele>
        <time>2022-05-21 14:48:37</time>
      </trkpt>
      <trkpt lat="42.36323" lon="2.85365">
        <ele>124.8</ele>
        <time>2022-05-21 14:48:38</time>
      </trkpt>
      <trkpt lat="42.36319" lon="2.8536">
        <ele>124.8</ele>
        <time>2022-05-21 14:48:39</time>
      </trkpt>
      <trkpt lat="42.36315" lon="2.85354">
        <ele>124.8</ele>
        <time>2022-05-21 14:48:40</time>
      </trkpt>
      <trkpt lat="42.36311" lon="2.85348">
        <ele>124.8</ele>
        <time>2022-05-21 14:48:41</time>
      </trkpt>
      <trkpt lat="42.36308" lon="2.85342">
        <ele>124.8</ele>
        <time>2022-05-21 14:48:42</time>
      </trkpt>
      <trkpt lat="42.36305" lon="2.85336">
        <ele>124.8</ele>
        <time>2022-05-21 14:48:43</time>
      </trkpt>
      <trkpt lat="42.36302" lon="2.85329">
        <ele>124.8</ele>
        <time>2022-05-21 14:48:44</time>
      </trkpt>
      <trkpt lat="42.363" lon="2.85322">
        <ele>125</ele>
        <time>2022-05-21 14:48:45</time>
      </trkpt>
      <trkpt lat="42.36297" lon="2.85315">
        <ele>125</ele>
        <time>2022-05-21 14:48:46</time>
      </trkpt>
      <trkpt lat="42.36296" lon="2.85308">
        <ele>125.2</ele>
        <time>2022-05-21 14:48:47</time>
      </trkpt>
      <trkpt lat="42.36294" lon="2.853">
        <ele>125.4</ele>
        <time>2022-05-21 14:48:48</time>
      </trkpt>
      <trkpt lat="42.36293" lon="2.85293">
        <ele>125.6</ele>
        <time>2022-05-21 14:48:49</time>
      </trkpt>
      <trkpt lat="42.36292" lon="2.85286">
        <ele>125.6</ele>
        <time>2022-05-21 14:48:50</time>
      </trkpt>
      <trkpt lat="42.36291" lon="2.85278">
        <ele>125.8</ele>
        <time>2022-05-21 14:48:51</time>
      </trkpt>
      <trkpt lat="42.3629" lon="2.85271">
        <ele>125.8</ele>
        <time>2022-05-21 14:48:52</time>
      </trkpt>
      <trkpt lat="42.36289" lon="2.85264">
        <ele>126</ele>
        <time>2022-05-21 14:48:53</time>
      </trkpt>
      <trkpt lat="42.36288" lon="2.85257">
        <ele>126</ele>
        <time>2022-05-21 14:48:54</time>
      </trkpt>
      <trkpt lat="42.36287" lon="2.8525">
        <ele>126</ele>
        <time>2022-05-21 14:48:55</time>
      </trkpt>
      <trkpt lat="42.36286" lon="2.85242">
        <ele>126.2</ele>
        <time>2022-05-21 14:48:56</time>
      </trkpt>
      <trkpt lat="42.36284" lon="2.85235">
        <ele>126.4</ele>
        <time>2022-05-21 14:48:57</time>
      </trkpt>
      <trkpt lat="42.36284" lon="2.85228">
        <ele>126.4</ele>
        <time>2022-05-21 14:48:58</time>
      </trkpt>
      <trkpt lat="42.36283" lon="2.85221">
        <ele>126.6</ele>
        <time>2022-05-21 14:48:59</time>
      </trkpt>
      <trkpt lat="42.36281" lon="2.85214">
        <ele>126.6</ele>
        <time>2022-05-21 14:49:00</time>
      </trkpt>
      <trkpt lat="42.3628" lon="2.85207">
        <ele>126.8</ele>
        <time>2022-05-21 14:49:01</time>
      </trkpt>
      <trkpt lat="42.3628" lon="2.852">
        <ele>126.8</ele>
        <time>2022-05-21 14:49:02</time>
      </trkpt>
      <trkpt lat="42.36279" lon="2.85193">
        <ele>127</ele>
        <time>2022-05-21 14:49:03</time>
      </trkpt>
      <trkpt lat="42.36278" lon="2.85187">
        <ele>127.2</ele>
        <time>2022-05-21 14:49:04</time>
      </trkpt>
      <trkpt lat="42.36277" lon="2.8518">
        <ele>127.2</ele>
        <time>2022-05-21 14:49:05</time>
      </trkpt>
      <trkpt lat="42.36276" lon="2.85173">
        <ele>127.4</ele>
        <time>2022-05-21 14:49:06</time>
      </trkpt>
      <trkpt lat="42.36275" lon="2.85167">
        <ele>127.4</ele>
        <time>2022-05-21 14:49:07</time>
      </trkpt>
      <trkpt lat="42.36274" lon="2.8516">
        <ele>127.6</ele>
        <time>2022-05-21 14:49:08</time>
      </trkpt>
      <trkpt lat="42.36273" lon="2.85153">
        <ele>127.6</ele>
        <time>2022-05-21 14:49:09</time>
      </trkpt>
      <trkpt lat="42.36272" lon="2.85146">
        <ele>127.8</ele>
        <time>2022-05-21 14:49:10</time>
      </trkpt>
      <trkpt lat="42.36271" lon="2.8514">
        <ele>128</ele>
        <time>2022-05-21 14:49:11</time>
      </trkpt>
      <trkpt lat="42.3627" lon="2.85133">
        <ele>128</ele>
        <time>2022-05-21 14:49:12</time>
      </trkpt>
      <trkpt lat="42.36269" lon="2.85126">
        <ele>128.2</ele>
        <time>2022-05-21 14:49:13</time>
      </trkpt>
      <trkpt lat="42.36267" lon="2.85119">
        <ele>128.2</ele>
        <time>2022-05-21 14:49:14</time>
      </trkpt>
      <trkpt lat="42.36266" lon="2.85112">
        <ele>128.4</ele>
        <time>2022-05-21 14:49:15</time>
      </trkpt>
      <trkpt lat="42.36265" lon="2.85105">
        <ele>128.4</ele>
        <time>2022-05-21 14:49:16</time>
      </trkpt>
      <trkpt lat="42.36264" lon="2.85099">
        <ele>128.4</ele>
        <time>2022-05-21 14:49:17</time>
      </trkpt>
      <trkpt lat="42.36263" lon="2.85092">
        <ele>128.6</ele>
        <time>2022-05-21 14:49:18</time>
      </trkpt>
      <trkpt lat="42.36262" lon="2.85085">
        <ele>128.6</ele>
        <time>2022-05-21 14:49:19</time>
      </trkpt>
      <trkpt lat="42.36262" lon="2.85078">
        <ele>128.8</ele>
        <time>2022-05-21 14:49:20</time>
      </trkpt>
      <trkpt lat="42.36261" lon="2.85071">
        <ele>128.8</ele>
        <time>2022-05-21 14:49:21</time>
      </trkpt>
      <trkpt lat="42.36261" lon="2.85064">
        <ele>129</ele>
        <time>2022-05-21 14:49:22</time>
      </trkpt>
      <trkpt lat="42.36261" lon="2.85056">
        <ele>129</ele>
        <time>2022-05-21 14:49:23</time>
      </trkpt>
      <trkpt lat="42.36262" lon="2.85049">
        <ele>129.2</ele>
        <time>2022-05-21 14:49:24</time>
      </trkpt>
      <trkpt lat="42.36262" lon="2.85042">
        <ele>129.4</ele>
        <time>2022-05-21 14:49:25</time>
      </trkpt>
      <trkpt lat="42.36263" lon="2.85034">
        <ele>129.4</ele>
        <time>2022-05-21 14:49:26</time>
      </trkpt>
      <trkpt lat="42.36264" lon="2.85028">
        <ele>129.6</ele>
        <time>2022-05-21 14:49:27</time>
      </trkpt>
      <trkpt lat="42.36265" lon="2.85021">
        <ele>129.6</ele>
        <time>2022-05-21 14:49:28</time>
      </trkpt>
      <trkpt lat="42.36266" lon="2.85014">
        <ele>129.8</ele>
        <time>2022-05-21 14:49:29</time>
      </trkpt>
      <trkpt lat="42.36267" lon="2.85008">
        <ele>130</ele>
        <time>2022-05-21 14:49:30</time>
      </trkpt>
      <trkpt lat="42.36268" lon="2.85001">
        <ele>130.2</ele>
        <time>2022-05-21 14:49:31</time>
      </trkpt>
      <trkpt lat="42.36268" lon="2.84994">
        <ele>130.4</ele>
        <time>2022-05-21 14:49:32</time>
      </trkpt>
      <trkpt lat="42.36268" lon="2.84988">
        <ele>130.6</ele>
        <time>2022-05-21 14:49:33</time>
      </trkpt>
      <trkpt lat="42.36268" lon="2.84982">
        <ele>130.8</ele>
        <time>2022-05-21 14:49:34</time>
      </trkpt>
      <trkpt lat="42.36267" lon="2.84976">
        <ele>130.8</ele>
        <time>2022-05-21 14:49:35</time>
      </trkpt>
      <trkpt lat="42.36267" lon="2.8497">
        <ele>131</ele>
        <time>2022-05-21 14:49:36</time>
      </trkpt>
      <trkpt lat="42.36267" lon="2.84965">
        <ele>131.2</ele>
        <time>2022-05-21 14:49:37</time>
      </trkpt>
      <trkpt lat="42.36266" lon="2.84959">
        <ele>131.4</ele>
        <time>2022-05-21 14:49:38</time>
      </trkpt>
      <trkpt lat="42.36266" lon="2.84954">
        <ele>131.4</ele>
        <time>2022-05-21 14:49:39</time>
      </trkpt>
      <trkpt lat="42.36265" lon="2.84949">
        <ele>131.6</ele>
        <time>2022-05-21 14:49:40</time>
      </trkpt>
      <trkpt lat="42.36264" lon="2.84944">
        <ele>131.8</ele>
        <time>2022-05-21 14:49:41</time>
      </trkpt>
      <trkpt lat="42.36264" lon="2.84939">
        <ele>132</ele>
        <time>2022-05-21 14:49:42</time>
      </trkpt>
      <trkpt lat="42.36263" lon="2.84934">
        <ele>132</ele>
        <time>2022-05-21 14:49:43</time>
      </trkpt>
      <trkpt lat="42.36262" lon="2.84929">
        <ele>132.2</ele>
        <time>2022-05-21 14:49:44</time>
      </trkpt>
      <trkpt lat="42.36261" lon="2.84924">
        <ele>132.4</ele>
        <time>2022-05-21 14:49:45</time>
      </trkpt>
      <trkpt lat="42.36261" lon="2.84919">
        <ele>132.4</ele>
        <time>2022-05-21 14:49:46</time>
      </trkpt>
      <trkpt lat="42.3626" lon="2.84914">
        <ele>132.6</ele>
        <time>2022-05-21 14:49:47</time>
      </trkpt>
      <trkpt lat="42.36259" lon="2.8491">
        <ele>132.8</ele>
        <time>2022-05-21 14:49:48</time>
      </trkpt>
      <trkpt lat="42.36259" lon="2.84905">
        <ele>132.8</ele>
        <time>2022-05-21 14:49:49</time>
      </trkpt>
      <trkpt lat="42.36258" lon="2.84901">
        <ele>133</ele>
        <time>2022-05-21 14:49:50</time>
      </trkpt>
      <trkpt lat="42.36257" lon="2.84896">
        <ele>133.2</ele>
        <time>2022-05-21 14:49:51</time>
      </trkpt>
      <trkpt lat="42.36256" lon="2.84891">
        <ele>133.2</ele>
        <time>2022-05-21 14:49:52</time>
      </trkpt>
      <trkpt lat="42.36255" lon="2.84887">
        <ele>133.4</ele>
        <time>2022-05-21 14:49:53</time>
      </trkpt>
      <trkpt lat="42.36255" lon="2.84882">
        <ele>133.6</ele>
        <time>2022-05-21 14:49:54</time>
      </trkpt>
      <trkpt lat="42.36254" lon="2.84877">
        <ele>133.6</ele>
        <time>2022-05-21 14:49:55</time>
      </trkpt>
      <trkpt lat="42.36254" lon="2.84873">
        <ele>133.8</ele>
        <time>2022-05-21 14:49:56</time>
      </trkpt>
      <trkpt lat="42.36253" lon="2.84868">
        <ele>134</ele>
        <time>2022-05-21 14:49:57</time>
      </trkpt>
      <trkpt lat="42.36253" lon="2.84863">
        <ele>134</ele>
        <time>2022-05-21 14:49:58</time>
      </trkpt>
      <trkpt lat="42.36252" lon="2.84859">
        <ele>134.2</ele>
        <time>2022-05-21 14:49:59</time>
      </trkpt>
      <trkpt lat="42.36251" lon="2.84854">
        <ele>134.2</ele>
        <time>2022-05-21 14:50:00</time>
      </trkpt>
      <trkpt lat="42.3625" lon="2.8485">
        <ele>134.4</ele>
        <time>2022-05-21 14:50:01</time>
      </trkpt>
      <trkpt lat="42.3625" lon="2.84845">
        <ele>134.6</ele>
        <time>2022-05-21 14:50:02</time>
      </trkpt>
      <trkpt lat="42.36249" lon="2.84841">
        <ele>134.8</ele>
        <time>2022-05-21 14:50:03</time>
      </trkpt>
      <trkpt lat="42.36248" lon="2.84836">
        <ele>134.8</ele>
        <time>2022-05-21 14:50:04</time>
      </trkpt>
      <trkpt lat="42.36248" lon="2.84832">
        <ele>135</ele>
        <time>2022-05-21 14:50:05</time>
      </trkpt>
      <trkpt lat="42.36247" lon="2.84827">
        <ele>135.2</ele>
        <time>2022-05-21 14:50:06</time>
      </trkpt>
      <trkpt lat="42.36247" lon="2.84823">
        <ele>135.2</ele>
        <time>2022-05-21 14:50:07</time>
      </trkpt>
      <trkpt lat="42.36246" lon="2.84818">
        <ele>135.4</ele>
        <time>2022-05-21 14:50:08</time>
      </trkpt>
      <trkpt lat="42.36246" lon="2.84814">
        <ele>135.6</ele>
        <time>2022-05-21 14:50:09</time>
      </trkpt>
      <trkpt lat="42.36245" lon="2.84809">
        <ele>135.6</ele>
        <time>2022-05-21 14:50:10</time>
      </trkpt>
      <trkpt lat="42.36245" lon="2.84804">
        <ele>135.8</ele>
        <time>2022-05-21 14:50:11</time>
      </trkpt>
      <trkpt lat="42.36244" lon="2.848">
        <ele>136</ele>
        <time>2022-05-21 14:50:12</time>
      </trkpt>
      <trkpt lat="42.36243" lon="2.84795">
        <ele>136</ele>
        <time>2022-05-21 14:50:13</time>
      </trkpt>
      <trkpt lat="42.36242" lon="2.8479">
        <ele>136.2</ele>
        <time>2022-05-21 14:50:14</time>
      </trkpt>
      <trkpt lat="42.36242" lon="2.84786">
        <ele>136.4</ele>
        <time>2022-05-21 14:50:15</time>
      </trkpt>
      <trkpt lat="42.36241" lon="2.84781">
        <ele>136.4</ele>
        <time>2022-05-21 14:50:16</time>
      </trkpt>
      <trkpt lat="42.3624" lon="2.84777">
        <ele>136.6</ele>
        <time>2022-05-21 14:50:17</time>
      </trkpt>
      <trkpt lat="42.3624" lon="2.84772">
        <ele>136.6</ele>
        <time>2022-05-21 14:50:18</time>
      </trkpt>
      <trkpt lat="42.36239" lon="2.84768">
        <ele>136.8</ele>
        <time>2022-05-21 14:50:19</time>
      </trkpt>
      <trkpt lat="42.36238" lon="2.84763">
        <ele>136.8</ele>
        <time>2022-05-21 14:50:20</time>
      </trkpt>
      <trkpt lat="42.36237" lon="2.84758">
        <ele>137</ele>
        <time>2022-05-21 14:50:21</time>
      </trkpt>
      <trkpt lat="42.36236" lon="2.84754">
        <ele>137.2</ele>
        <time>2022-05-21 14:50:22</time>
      </trkpt>
      <trkpt lat="42.36235" lon="2.84749">
        <ele>137.2</ele>
        <time>2022-05-21 14:50:23</time>
      </trkpt>
      <trkpt lat="42.36234" lon="2.84744">
        <ele>137.4</ele>
        <time>2022-05-21 14:50:24</time>
      </trkpt>
      <trkpt lat="42.36234" lon="2.84739">
        <ele>137.4</ele>
        <time>2022-05-21 14:50:25</time>
      </trkpt>
      <trkpt lat="42.36233" lon="2.84734">
        <ele>137.6</ele>
        <time>2022-05-21 14:50:26</time>
      </trkpt>
      <trkpt lat="42.36232" lon="2.84729">
        <ele>137.6</ele>
        <time>2022-05-21 14:50:27</time>
      </trkpt>
      <trkpt lat="42.36232" lon="2.84724">
        <ele>137.8</ele>
        <time>2022-05-21 14:50:28</time>
      </trkpt>
      <trkpt lat="42.36231" lon="2.8472">
        <ele>137.8</ele>
        <time>2022-05-21 14:50:29</time>
      </trkpt>
      <trkpt lat="42.36231" lon="2.84716">
        <ele>138</ele>
        <time>2022-05-21 14:50:30</time>
      </trkpt>
      <trkpt lat="42.3623" lon="2.84711">
        <ele>138.2</ele>
        <time>2022-05-21 14:50:31</time>
      </trkpt>
      <trkpt lat="42.36229" lon="2.84707">
        <ele>138.2</ele>
        <time>2022-05-21 14:50:32</time>
      </trkpt>
      <trkpt lat="42.36229" lon="2.84702">
        <ele>138.4</ele>
        <time>2022-05-21 14:50:33</time>
      </trkpt>
      <trkpt lat="42.36228" lon="2.84698">
        <ele>138.6</ele>
        <time>2022-05-21 14:50:34</time>
      </trkpt>
      <trkpt lat="42.36227" lon="2.84693">
        <ele>138.6</ele>
        <time>2022-05-21 14:50:35</time>
      </trkpt>
      <trkpt lat="42.36226" lon="2.84688">
        <ele>138.8</ele>
        <time>2022-05-21 14:50:36</time>
      </trkpt>
      <trkpt lat="42.36226" lon="2.84684">
        <ele>138.8</ele>
        <time>2022-05-21 14:50:37</time>
      </trkpt>
      <trkpt lat="42.36225" lon="2.84679">
        <ele>139</ele>
        <time>2022-05-21 14:50:38</time>
      </trkpt>
      <trkpt lat="42.36225" lon="2.84673">
        <ele>139</ele>
        <time>2022-05-21 14:50:39</time>
      </trkpt>
      <trkpt lat="42.36224" lon="2.84668">
        <ele>139.2</ele>
        <time>2022-05-21 14:50:40</time>
      </trkpt>
      <trkpt lat="42.36224" lon="2.84663">
        <ele>139.2</ele>
        <time>2022-05-21 14:50:41</time>
      </trkpt>
      <trkpt lat="42.36225" lon="2.84658">
        <ele>139.4</ele>
        <time>2022-05-21 14:50:42</time>
      </trkpt>
      <trkpt lat="42.36225" lon="2.84653">
        <ele>139.4</ele>
        <time>2022-05-21 14:50:43</time>
      </trkpt>
      <trkpt lat="42.36225" lon="2.84648">
        <ele>139.6</ele>
        <time>2022-05-21 14:50:44</time>
      </trkpt>
      <trkpt lat="42.36226" lon="2.84643">
        <ele>139.6</ele>
        <time>2022-05-21 14:50:45</time>
      </trkpt>
      <trkpt lat="42.36227" lon="2.84638">
        <ele>139.8</ele>
        <time>2022-05-21 14:50:46</time>
      </trkpt>
      <trkpt lat="42.36229" lon="2.84633">
        <ele>139.8</ele>
        <time>2022-05-21 14:50:47</time>
      </trkpt>
      <trkpt lat="42.3623" lon="2.84628">
        <ele>140</ele>
        <time>2022-05-21 14:50:48</time>
      </trkpt>
      <trkpt lat="42.36231" lon="2.84623">
        <ele>140</ele>
        <time>2022-05-21 14:50:49</time>
      </trkpt>
      <trkpt lat="42.36233" lon="2.84618">
        <ele>140.2</ele>
        <time>2022-05-21 14:50:50</time>
      </trkpt>
      <trkpt lat="42.36234" lon="2.84613">
        <ele>140.2</ele>
        <time>2022-05-21 14:50:51</time>
      </trkpt>
      <trkpt lat="42.36236" lon="2.84609">
        <ele>140.4</ele>
        <time>2022-05-21 14:50:52</time>
      </trkpt>
      <trkpt lat="42.36238" lon="2.84604">
        <ele>140.6</ele>
        <time>2022-05-21 14:50:53</time>
      </trkpt>
      <trkpt lat="42.36239" lon="2.846">
        <ele>140.8</ele>
        <time>2022-05-21 14:50:54</time>
      </trkpt>
      <trkpt lat="42.36241" lon="2.84596">
        <ele>141</ele>
        <time>2022-05-21 14:50:55</time>
      </trkpt>
      <trkpt lat="42.36243" lon="2.84591">
        <ele>141</ele>
        <time>2022-05-21 14:50:56</time>
      </trkpt>
      <trkpt lat="42.36245" lon="2.84587">
        <ele>141.2</ele>
        <time>2022-05-21 14:50:57</time>
      </trkpt>
      <trkpt lat="42.36248" lon="2.84583">
        <ele>141.4</ele>
        <time>2022-05-21 14:50:58</time>
      </trkpt>
      <trkpt lat="42.3625" lon="2.84579">
        <ele>141.6</ele>
        <time>2022-05-21 14:50:59</time>
      </trkpt>
      <trkpt lat="42.36252" lon="2.84575">
        <ele>141.8</ele>
        <time>2022-05-21 14:51:00</time>
      </trkpt>
      <trkpt lat="42.36253" lon="2.8457">
        <ele>142</ele>
        <time>2022-05-21 14:51:01</time>
      </trkpt>
      <trkpt lat="42.36256" lon="2.84566">
        <ele>142.2</ele>
        <time>2022-05-21 14:51:02</time>
      </trkpt>
      <trkpt lat="42.36258" lon="2.84562">
        <ele>142.2</ele>
        <time>2022-05-21 14:51:03</time>
      </trkpt>
      <trkpt lat="42.3626" lon="2.84558">
        <ele>142.4</ele>
        <time>2022-05-21 14:51:04</time>
      </trkpt>
      <trkpt lat="42.36262" lon="2.84554">
        <ele>142.6</ele>
        <time>2022-05-21 14:51:05</time>
      </trkpt>
      <trkpt lat="42.36264" lon="2.84551">
        <ele>142.8</ele>
        <time>2022-05-21 14:51:06</time>
      </trkpt>
      <trkpt lat="42.36266" lon="2.84547">
        <ele>143</ele>
        <time>2022-05-21 14:51:07</time>
      </trkpt>
      <trkpt lat="42.36268" lon="2.84543">
        <ele>143</ele>
        <time>2022-05-21 14:51:08</time>
      </trkpt>
      <trkpt lat="42.3627" lon="2.84539">
        <ele>143.2</ele>
        <time>2022-05-21 14:51:09</time>
      </trkpt>
      <trkpt lat="42.36273" lon="2.84536">
        <ele>143.4</ele>
        <time>2022-05-21 14:51:10</time>
      </trkpt>
      <trkpt lat="42.36274" lon="2.84532">
        <ele>143.6</ele>
        <time>2022-05-21 14:51:11</time>
      </trkpt>
      <trkpt lat="42.36276" lon="2.84528">
        <ele>143.8</ele>
        <time>2022-05-21 14:51:12</time>
      </trkpt>
      <trkpt lat="42.36278" lon="2.84524">
        <ele>144</ele>
        <time>2022-05-21 14:51:13</time>
      </trkpt>
      <trkpt lat="42.3628" lon="2.84521">
        <ele>144.2</ele>
        <time>2022-05-21 14:51:14</time>
      </trkpt>
      <trkpt lat="42.36282" lon="2.84517">
        <ele>144.4</ele>
        <time>2022-05-21 14:51:15</time>
      </trkpt>
      <trkpt lat="42.36284" lon="2.84513">
        <ele>144.6</ele>
        <time>2022-05-21 14:51:16</time>
      </trkpt>
      <trkpt lat="42.36286" lon="2.8451">
        <ele>144.6</ele>
        <time>2022-05-21 14:51:17</time>
      </trkpt>
      <trkpt lat="42.36288" lon="2.84506">
        <ele>144.8</ele>
        <time>2022-05-21 14:51:18</time>
      </trkpt>
      <trkpt lat="42.3629" lon="2.84503">
        <ele>145</ele>
        <time>2022-05-21 14:51:19</time>
      </trkpt>
      <trkpt lat="42.36292" lon="2.845">
        <ele>145.2</ele>
        <time>2022-05-21 14:51:20</time>
      </trkpt>
      <trkpt lat="42.36294" lon="2.84496">
        <ele>145.4</ele>
        <time>2022-05-21 14:51:21</time>
      </trkpt>
      <trkpt lat="42.36295" lon="2.84493">
        <ele>145.6</ele>
        <time>2022-05-21 14:51:22</time>
      </trkpt>
      <trkpt lat="42.36297" lon="2.84489">
        <ele>145.8</ele>
        <time>2022-05-21 14:51:23</time>
      </trkpt>
      <trkpt lat="42.36299" lon="2.84486">
        <ele>145.8</ele>
        <time>2022-05-21 14:51:24</time>
      </trkpt>
      <trkpt lat="42.36301" lon="2.84482">
        <ele>146</ele>
        <time>2022-05-21 14:51:25</time>
      </trkpt>
      <trkpt lat="42.36303" lon="2.84479">
        <ele>146.2</ele>
        <time>2022-05-21 14:51:26</time>
      </trkpt>
      <trkpt lat="42.36305" lon="2.84475">
        <ele>146.4</ele>
        <time>2022-05-21 14:51:27</time>
      </trkpt>
      <trkpt lat="42.36306" lon="2.84471">
        <ele>146.6</ele>
        <time>2022-05-21 14:51:28</time>
      </trkpt>
      <trkpt lat="42.36308" lon="2.84468">
        <ele>146.6</ele>
        <time>2022-05-21 14:51:29</time>
      </trkpt>
      <trkpt lat="42.3631" lon="2.84464">
        <ele>146.8</ele>
        <time>2022-05-21 14:51:30</time>
      </trkpt>
      <trkpt lat="42.36312" lon="2.84461">
        <ele>147</ele>
        <time>2022-05-21 14:51:31</time>
      </trkpt>
      <trkpt lat="42.36314" lon="2.84457">
        <ele>147.2</ele>
        <time>2022-05-21 14:51:32</time>
      </trkpt>
      <trkpt lat="42.36316" lon="2.84454">
        <ele>147.2</ele>
        <time>2022-05-21 14:51:33</time>
      </trkpt>
      <trkpt lat="42.36318" lon="2.8445">
        <ele>147.4</ele>
        <time>2022-05-21 14:51:34</time>
      </trkpt>
      <trkpt lat="42.36319" lon="2.84447">
        <ele>147.6</ele>
        <time>2022-05-21 14:51:35</time>
      </trkpt>
      <trkpt lat="42.36321" lon="2.84443">
        <ele>147.8</ele>
        <time>2022-05-21 14:51:36</time>
      </trkpt>
      <trkpt lat="42.36323" lon="2.8444">
        <ele>148</ele>
        <time>2022-05-21 14:51:37</time>
      </trkpt>
      <trkpt lat="42.36324" lon="2.84437">
        <ele>148.2</ele>
        <time>2022-05-21 14:51:38</time>
      </trkpt>
      <trkpt lat="42.36325" lon="2.84433">
        <ele>148.4</ele>
        <time>2022-05-21 14:51:39</time>
      </trkpt>
      <trkpt lat="42.36327" lon="2.8443">
        <ele>148.6</ele>
        <time>2022-05-21 14:51:40</time>
      </trkpt>
      <trkpt lat="42.36328" lon="2.84426">
        <ele>148.6</ele>
        <time>2022-05-21 14:51:41</time>
      </trkpt>
      <trkpt lat="42.36329" lon="2.84422">
        <ele>148.8</ele>
        <time>2022-05-21 14:51:42</time>
      </trkpt>
      <trkpt lat="42.3633" lon="2.84418">
        <ele>149</ele>
        <time>2022-05-21 14:51:43</time>
      </trkpt>
      <trkpt lat="42.36331" lon="2.84415">
        <ele>149.2</ele>
        <time>2022-05-21 14:51:44</time>
      </trkpt>
      <trkpt lat="42.36332" lon="2.84411">
        <ele>149.2</ele>
        <time>2022-05-21 14:51:45</time>
      </trkpt>
      <trkpt lat="42.36332" lon="2.84407">
        <ele>149.4</ele>
        <time>2022-05-21 14:51:46</time>
      </trkpt>
      <trkpt lat="42.36333" lon="2.84403">
        <ele>149.6</ele>
        <time>2022-05-21 14:51:47</time>
      </trkpt>
      <trkpt lat="42.36333" lon="2.844">
        <ele>149.6</ele>
        <time>2022-05-21 14:51:48</time>
      </trkpt>
      <trkpt lat="42.36333" lon="2.84396">
        <ele>149.8</ele>
        <time>2022-05-21 14:51:49</time>
      </trkpt>
      <trkpt lat="42.36334" lon="2.84392">
        <ele>150</ele>
        <time>2022-05-21 14:51:50</time>
      </trkpt>
      <trkpt lat="42.36334" lon="2.84388">
        <ele>150.2</ele>
        <time>2022-05-21 14:51:51</time>
      </trkpt>
      <trkpt lat="42.36334" lon="2.84384">
        <ele>150.4</ele>
        <time>2022-05-21 14:51:52</time>
      </trkpt>
      <trkpt lat="42.36334" lon="2.8438">
        <ele>150.4</ele>
        <time>2022-05-21 14:51:53</time>
      </trkpt>
      <trkpt lat="42.36333" lon="2.84377">
        <ele>150.6</ele>
        <time>2022-05-21 14:51:54</time>
      </trkpt>
      <trkpt lat="42.36333" lon="2.84373">
        <ele>150.8</ele>
        <time>2022-05-21 14:51:55</time>
      </trkpt>
      <trkpt lat="42.36332" lon="2.84369">
        <ele>151</ele>
        <time>2022-05-21 14:51:56</time>
      </trkpt>
      <trkpt lat="42.36332" lon="2.84365">
        <ele>151.2</ele>
        <time>2022-05-21 14:51:57</time>
      </trkpt>
      <trkpt lat="42.36333" lon="2.84361">
        <ele>151.4</ele>
        <time>2022-05-21 14:51:58</time>
      </trkpt>
      <trkpt lat="42.36333" lon="2.84357">
        <ele>151.4</ele>
        <time>2022-05-21 14:51:59</time>
      </trkpt>
      <trkpt lat="42.36334" lon="2.84353">
        <ele>151.6</ele>
        <time>2022-05-21 14:52:00</time>
      </trkpt>
      <trkpt lat="42.36334" lon="2.8435">
        <ele>151.8</ele>
        <time>2022-05-21 14:52:01</time>
      </trkpt>
      <trkpt lat="42.36334" lon="2.84346">
        <ele>152</ele>
        <time>2022-05-21 14:52:02</time>
      </trkpt>
      <trkpt lat="42.36334" lon="2.84342">
        <ele>152.2</ele>
        <time>2022-05-21 14:52:03</time>
      </trkpt>
      <trkpt lat="42.36334" lon="2.84338">
        <ele>152.2</ele>
        <time>2022-05-21 14:52:04</time>
      </trkpt>
      <trkpt lat="42.36334" lon="2.84334">
        <ele>152.4</ele>
        <time>2022-05-21 14:52:05</time>
      </trkpt>
      <trkpt lat="42.36334" lon="2.84331">
        <ele>152.6</ele>
        <time>2022-05-21 14:52:06</time>
      </trkpt>
      <trkpt lat="42.36334" lon="2.84327">
        <ele>152.8</ele>
        <time>2022-05-21 14:52:07</time>
      </trkpt>
      <trkpt lat="42.36334" lon="2.84323">
        <ele>153</ele>
        <time>2022-05-21 14:52:08</time>
      </trkpt>
      <trkpt lat="42.36335" lon="2.8432">
        <ele>153</ele>
        <time>2022-05-21 14:52:09</time>
      </trkpt>
      <trkpt lat="42.36335" lon="2.84316">
        <ele>153.2</ele>
        <time>2022-05-21 14:52:10</time>
      </trkpt>
      <trkpt lat="42.36335" lon="2.84313">
        <ele>153.4</ele>
        <time>2022-05-21 14:52:11</time>
      </trkpt>
      <trkpt lat="42.36335" lon="2.8431">
        <ele>153.6</ele>
        <time>2022-05-21 14:52:12</time>
      </trkpt>
      <trkpt lat="42.36335" lon="2.84306">
        <ele>153.6</ele>
        <time>2022-05-21 14:52:13</time>
      </trkpt>
      <trkpt lat="42.36335" lon="2.84302">
        <ele>153.8</ele>
        <time>2022-05-21 14:52:14</time>
      </trkpt>
      <trkpt lat="42.36335" lon="2.84299">
        <ele>154</ele>
        <time>2022-05-21 14:52:15</time>
      </trkpt>
      <trkpt lat="42.36335" lon="2.84295">
        <ele>154.2</ele>
        <time>2022-05-21 14:52:16</time>
      </trkpt>
      <trkpt lat="42.36335" lon="2.84292">
        <ele>154.4</ele>
        <time>2022-05-21 14:52:17</time>
      </trkpt>
      <trkpt lat="42.36335" lon="2.84289">
        <ele>154.6</ele>
        <time>2022-05-21 14:52:18</time>
      </trkpt>
      <trkpt lat="42.36334" lon="2.84285">
        <ele>154.6</ele>
        <time>2022-05-21 14:52:19</time>
      </trkpt>
      <trkpt lat="42.36334" lon="2.84282">
        <ele>154.8</ele>
        <time>2022-05-21 14:52:20</time>
      </trkpt>
      <trkpt lat="42.36334" lon="2.84278">
        <ele>155</ele>
        <time>2022-05-21 14:52:21</time>
      </trkpt>
      <trkpt lat="42.36333" lon="2.84275">
        <ele>155.2</ele>
        <time>2022-05-21 14:52:22</time>
      </trkpt>
      <trkpt lat="42.36333" lon="2.84272">
        <ele>155.4</ele>
        <time>2022-05-21 14:52:23</time>
      </trkpt>
      <trkpt lat="42.36332" lon="2.8427">
        <ele>155.4</ele>
        <time>2022-05-21 14:52:24</time>
      </trkpt>
      <trkpt lat="42.36331" lon="2.84265">
        <ele>155.8</ele>
        <time>2022-05-21 14:52:25</time>
      </trkpt>
      <trkpt lat="42.3633" lon="2.84262">
        <ele>156</ele>
        <time>2022-05-21 14:52:26</time>
      </trkpt>
      <trkpt lat="42.36329" lon="2.84258">
        <ele>156.2</ele>
        <time>2022-05-21 14:52:27</time>
      </trkpt>
      <trkpt lat="42.36329" lon="2.84255">
        <ele>156.4</ele>
        <time>2022-05-21 14:52:28</time>
      </trkpt>
      <trkpt lat="42.36328" lon="2.84252">
        <ele>156.6</ele>
        <time>2022-05-21 14:52:29</time>
      </trkpt>
      <trkpt lat="42.36326" lon="2.84249">
        <ele>156.8</ele>
        <time>2022-05-21 14:52:30</time>
      </trkpt>
      <trkpt lat="42.36324" lon="2.84246">
        <ele>156.8</ele>
        <time>2022-05-21 14:52:31</time>
      </trkpt>
      <trkpt lat="42.36322" lon="2.84243">
        <ele>157</ele>
        <time>2022-05-21 14:52:32</time>
      </trkpt>
      <trkpt lat="42.3632" lon="2.84241">
        <ele>157.2</ele>
        <time>2022-05-21 14:52:33</time>
      </trkpt>
      <trkpt lat="42.36319" lon="2.84238">
        <ele>157.4</ele>
        <time>2022-05-21 14:52:34</time>
      </trkpt>
      <trkpt lat="42.36317" lon="2.84235">
        <ele>157.4</ele>
        <time>2022-05-21 14:52:35</time>
      </trkpt>
      <trkpt lat="42.36315" lon="2.84232">
        <ele>157.6</ele>
        <time>2022-05-21 14:52:36</time>
      </trkpt>
      <trkpt lat="42.36313" lon="2.84229">
        <ele>157.6</ele>
        <time>2022-05-21 14:52:37</time>
      </trkpt>
      <trkpt lat="42.36311" lon="2.84226">
        <ele>157.8</ele>
        <time>2022-05-21 14:52:38</time>
      </trkpt>
      <trkpt lat="42.36309" lon="2.84222">
        <ele>158</ele>
        <time>2022-05-21 14:52:39</time>
      </trkpt>
      <trkpt lat="42.36307" lon="2.84219">
        <ele>158</ele>
        <time>2022-05-21 14:52:40</time>
      </trkpt>
      <trkpt lat="42.36306" lon="2.84216">
        <ele>158.2</ele>
        <time>2022-05-21 14:52:41</time>
      </trkpt>
      <trkpt lat="42.36304" lon="2.84212">
        <ele>158.4</ele>
        <time>2022-05-21 14:52:42</time>
      </trkpt>
      <trkpt lat="42.36303" lon="2.84209">
        <ele>158.6</ele>
        <time>2022-05-21 14:52:43</time>
      </trkpt>
      <trkpt lat="42.36303" lon="2.84205">
        <ele>158.6</ele>
        <time>2022-05-21 14:52:44</time>
      </trkpt>
      <trkpt lat="42.36302" lon="2.84201">
        <ele>158.8</ele>
        <time>2022-05-21 14:52:45</time>
      </trkpt>
      <trkpt lat="42.36301" lon="2.84197">
        <ele>158.8</ele>
        <time>2022-05-21 14:52:46</time>
      </trkpt>
      <trkpt lat="42.36301" lon="2.84193">
        <ele>159</ele>
        <time>2022-05-21 14:52:47</time>
      </trkpt>
      <trkpt lat="42.36301" lon="2.8419">
        <ele>159</ele>
        <time>2022-05-21 14:52:48</time>
      </trkpt>
      <trkpt lat="42.36301" lon="2.84186">
        <ele>159.2</ele>
        <time>2022-05-21 14:52:49</time>
      </trkpt>
      <trkpt lat="42.36301" lon="2.84182">
        <ele>159.4</ele>
        <time>2022-05-21 14:52:50</time>
      </trkpt>
      <trkpt lat="42.36302" lon="2.84178">
        <ele>159.6</ele>
        <time>2022-05-21 14:52:51</time>
      </trkpt>
      <trkpt lat="42.36303" lon="2.84175">
        <ele>159.6</ele>
        <time>2022-05-21 14:52:52</time>
      </trkpt>
      <trkpt lat="42.36303" lon="2.84171">
        <ele>159.8</ele>
        <time>2022-05-21 14:52:53</time>
      </trkpt>
      <trkpt lat="42.36304" lon="2.84168">
        <ele>160</ele>
        <time>2022-05-21 14:52:54</time>
      </trkpt>
      <trkpt lat="42.36305" lon="2.84164">
        <ele>160.2</ele>
        <time>2022-05-21 14:52:55</time>
      </trkpt>
      <trkpt lat="42.36306" lon="2.84161">
        <ele>160.2</ele>
        <time>2022-05-21 14:52:56</time>
      </trkpt>
      <trkpt lat="42.36307" lon="2.84157">
        <ele>160.4</ele>
        <time>2022-05-21 14:52:57</time>
      </trkpt>
      <trkpt lat="42.36309" lon="2.84154">
        <ele>160.6</ele>
        <time>2022-05-21 14:52:58</time>
      </trkpt>
      <trkpt lat="42.3631" lon="2.84151">
        <ele>160.6</ele>
        <time>2022-05-21 14:52:59</time>
      </trkpt>
      <trkpt lat="42.36312" lon="2.84148">
        <ele>160.8</ele>
        <time>2022-05-21 14:53:00</time>
      </trkpt>
      <trkpt lat="42.36314" lon="2.84145">
        <ele>161</ele>
        <time>2022-05-21 14:53:01</time>
      </trkpt>
      <trkpt lat="42.36315" lon="2.84142">
        <ele>161</ele>
        <time>2022-05-21 14:53:02</time>
      </trkpt>
      <trkpt lat="42.36317" lon="2.84139">
        <ele>161.2</ele>
        <time>2022-05-21 14:53:03</time>
      </trkpt>
      <trkpt lat="42.36319" lon="2.84136">
        <ele>161.2</ele>
        <time>2022-05-21 14:53:04</time>
      </trkpt>
      <trkpt lat="42.36321" lon="2.84133">
        <ele>161.4</ele>
        <time>2022-05-21 14:53:05</time>
      </trkpt>
      <trkpt lat="42.36323" lon="2.8413">
        <ele>161.6</ele>
        <time>2022-05-21 14:53:06</time>
      </trkpt>
      <trkpt lat="42.36325" lon="2.84127">
        <ele>161.6</ele>
        <time>2022-05-21 14:53:07</time>
      </trkpt>
      <trkpt lat="42.36327" lon="2.84125">
        <ele>161.8</ele>
        <time>2022-05-21 14:53:08</time>
      </trkpt>
      <trkpt lat="42.3633" lon="2.84123">
        <ele>162</ele>
        <time>2022-05-21 14:53:09</time>
      </trkpt>
      <trkpt lat="42.36332" lon="2.84121">
        <ele>162</ele>
        <time>2022-05-21 14:53:10</time>
      </trkpt>
      <trkpt lat="42.36334" lon="2.84119">
        <ele>162.2</ele>
        <time>2022-05-21 14:53:11</time>
      </trkpt>
      <trkpt lat="42.36336" lon="2.84118">
        <ele>162.4</ele>
        <time>2022-05-21 14:53:12</time>
      </trkpt>
      <trkpt lat="42.36339" lon="2.84116">
        <ele>162.6</ele>
        <time>2022-05-21 14:53:13</time>
      </trkpt>
      <trkpt lat="42.36341" lon="2.84115">
        <ele>162.6</ele>
        <time>2022-05-21 14:53:14</time>
      </trkpt>
      <trkpt lat="42.36344" lon="2.84114">
        <ele>162.8</ele>
        <time>2022-05-21 14:53:15</time>
      </trkpt>
      <trkpt lat="42.36346" lon="2.84113">
        <ele>163</ele>
        <time>2022-05-21 14:53:16</time>
      </trkpt>
      <trkpt lat="42.36349" lon="2.84112">
        <ele>163.2</ele>
        <time>2022-05-21 14:53:17</time>
      </trkpt>
      <trkpt lat="42.36351" lon="2.84112">
        <ele>163.4</ele>
        <time>2022-05-21 14:53:18</time>
      </trkpt>
      <trkpt lat="42.36354" lon="2.84112">
        <ele>163.6</ele>
        <time>2022-05-21 14:53:19</time>
      </trkpt>
      <trkpt lat="42.36357" lon="2.84111">
        <ele>163.8</ele>
        <time>2022-05-21 14:53:20</time>
      </trkpt>
      <trkpt lat="42.36359" lon="2.84111">
        <ele>163.8</ele>
        <time>2022-05-21 14:53:21</time>
      </trkpt>
      <trkpt lat="42.36361" lon="2.84111">
        <ele>164</ele>
        <time>2022-05-21 14:53:22</time>
      </trkpt>
      <trkpt lat="42.36364" lon="2.8411">
        <ele>164.2</ele>
        <time>2022-05-21 14:53:23</time>
      </trkpt>
      <trkpt lat="42.36366" lon="2.8411">
        <ele>164.4</ele>
        <time>2022-05-21 14:53:24</time>
      </trkpt>
      <trkpt lat="42.36368" lon="2.8411">
        <ele>164.6</ele>
        <time>2022-05-21 14:53:25</time>
      </trkpt>
      <trkpt lat="42.36371" lon="2.8411">
        <ele>164.8</ele>
        <time>2022-05-21 14:53:26</time>
      </trkpt>
      <trkpt lat="42.36373" lon="2.8411">
        <ele>164.8</ele>
        <time>2022-05-21 14:53:27</time>
      </trkpt>
      <trkpt lat="42.36375" lon="2.8411">
        <ele>165</ele>
        <time>2022-05-21 14:53:28</time>
      </trkpt>
      <trkpt lat="42.36377" lon="2.8411">
        <ele>165.2</ele>
        <time>2022-05-21 14:53:29</time>
      </trkpt>
      <trkpt lat="42.3638" lon="2.8411">
        <ele>165.4</ele>
        <time>2022-05-21 14:53:30</time>
      </trkpt>
      <trkpt lat="42.36382" lon="2.8411">
        <ele>165.6</ele>
        <time>2022-05-21 14:53:31</time>
      </trkpt>
      <trkpt lat="42.36385" lon="2.8411">
        <ele>165.6</ele>
        <time>2022-05-21 14:53:32</time>
      </trkpt>
      <trkpt lat="42.36387" lon="2.84109">
        <ele>165.8</ele>
        <time>2022-05-21 14:53:33</time>
      </trkpt>
      <trkpt lat="42.36389" lon="2.84109">
        <ele>166</ele>
        <time>2022-05-21 14:53:34</time>
      </trkpt>
      <trkpt lat="42.36391" lon="2.84108">
        <ele>166.2</ele>
        <time>2022-05-21 14:53:35</time>
      </trkpt>
      <trkpt lat="42.36393" lon="2.84108">
        <ele>166.2</ele>
        <time>2022-05-21 14:53:36</time>
      </trkpt>
      <trkpt lat="42.36395" lon="2.84108">
        <ele>166.4</ele>
        <time>2022-05-21 14:53:37</time>
      </trkpt>
      <trkpt lat="42.36397" lon="2.84108">
        <ele>166.6</ele>
        <time>2022-05-21 14:53:38</time>
      </trkpt>
      <trkpt lat="42.364" lon="2.84108">
        <ele>166.6</ele>
        <time>2022-05-21 14:53:39</time>
      </trkpt>
      <trkpt lat="42.36402" lon="2.84108">
        <ele>166.8</ele>
        <time>2022-05-21 14:53:40</time>
      </trkpt>
      <trkpt lat="42.36403" lon="2.84107">
        <ele>167</ele>
        <time>2022-05-21 14:53:41</time>
      </trkpt>
      <trkpt lat="42.36406" lon="2.84107">
        <ele>167</ele>
        <time>2022-05-21 14:53:42</time>
      </trkpt>
      <trkpt lat="42.36409" lon="2.84106">
        <ele>167.2</ele>
        <time>2022-05-21 14:53:43</time>
      </trkpt>
      <trkpt lat="42.36411" lon="2.84106">
        <ele>167.4</ele>
        <time>2022-05-21 14:53:44</time>
      </trkpt>
      <trkpt lat="42.36413" lon="2.84106">
        <ele>167.4</ele>
        <time>2022-05-21 14:53:45</time>
      </trkpt>
      <trkpt lat="42.36415" lon="2.84106">
        <ele>167.6</ele>
        <time>2022-05-21 14:53:46</time>
      </trkpt>
      <trkpt lat="42.36418" lon="2.84106">
        <ele>167.8</ele>
        <time>2022-05-21 14:53:47</time>
      </trkpt>
      <trkpt lat="42.3642" lon="2.84105">
        <ele>167.8</ele>
        <time>2022-05-21 14:53:48</time>
      </trkpt>
      <trkpt lat="42.36423" lon="2.84105">
        <ele>168</ele>
        <time>2022-05-21 14:53:49</time>
      </trkpt>
      <trkpt lat="42.36425" lon="2.84105">
        <ele>168.2</ele>
        <time>2022-05-21 14:53:50</time>
      </trkpt>
      <trkpt lat="42.36428" lon="2.84105">
        <ele>168.4</ele>
        <time>2022-05-21 14:53:51</time>
      </trkpt>
      <trkpt lat="42.3643" lon="2.84104">
        <ele>168.4</ele>
        <time>2022-05-21 14:53:52</time>
      </trkpt>
      <trkpt lat="42.36433" lon="2.84105">
        <ele>168.6</ele>
        <time>2022-05-21 14:53:53</time>
      </trkpt>
      <trkpt lat="42.36436" lon="2.84105">
        <ele>168.8</ele>
        <time>2022-05-21 14:53:54</time>
      </trkpt>
      <trkpt lat="42.36438" lon="2.84105">
        <ele>168.8</ele>
        <time>2022-05-21 14:53:55</time>
      </trkpt>
      <trkpt lat="42.36441" lon="2.84105">
        <ele>169</ele>
        <time>2022-05-21 14:53:56</time>
      </trkpt>
      <trkpt lat="42.36444" lon="2.84106">
        <ele>169.2</ele>
        <time>2022-05-21 14:53:57</time>
      </trkpt>
      <trkpt lat="42.36447" lon="2.84106">
        <ele>169.4</ele>
        <time>2022-05-21 14:53:58</time>
      </trkpt>
      <trkpt lat="42.36449" lon="2.84106">
        <ele>169.6</ele>
        <time>2022-05-21 14:53:59</time>
      </trkpt>
      <trkpt lat="42.36452" lon="2.84106">
        <ele>169.6</ele>
        <time>2022-05-21 14:54:00</time>
      </trkpt>
      <trkpt lat="42.36455" lon="2.84106">
        <ele>169.8</ele>
        <time>2022-05-21 14:54:01</time>
      </trkpt>
      <trkpt lat="42.36457" lon="2.84105">
        <ele>170</ele>
        <time>2022-05-21 14:54:02</time>
      </trkpt>
      <trkpt lat="42.3646" lon="2.84105">
        <ele>170.2</ele>
        <time>2022-05-21 14:54:03</time>
      </trkpt>
      <trkpt lat="42.36462" lon="2.84105">
        <ele>170.4</ele>
        <time>2022-05-21 14:54:04</time>
      </trkpt>
      <trkpt lat="42.36465" lon="2.84105">
        <ele>170.4</ele>
        <time>2022-05-21 14:54:05</time>
      </trkpt>
      <trkpt lat="42.36467" lon="2.84104">
        <ele>170.6</ele>
        <time>2022-05-21 14:54:06</time>
      </trkpt>
      <trkpt lat="42.3647" lon="2.84102">
        <ele>170.8</ele>
        <time>2022-05-21 14:54:07</time>
      </trkpt>
      <trkpt lat="42.36472" lon="2.84101">
        <ele>170.8</ele>
        <time>2022-05-21 14:54:08</time>
      </trkpt>
      <trkpt lat="42.36475" lon="2.84099">
        <ele>171</ele>
        <time>2022-05-21 14:54:09</time>
      </trkpt>
      <trkpt lat="42.36477" lon="2.84097">
        <ele>171</ele>
        <time>2022-05-21 14:54:10</time>
      </trkpt>
      <trkpt lat="42.36479" lon="2.84094">
        <ele>171.2</ele>
        <time>2022-05-21 14:54:11</time>
      </trkpt>
      <trkpt lat="42.36481" lon="2.84092">
        <ele>171.4</ele>
        <time>2022-05-21 14:54:12</time>
      </trkpt>
      <trkpt lat="42.36484" lon="2.84089">
        <ele>171.4</ele>
        <time>2022-05-21 14:54:13</time>
      </trkpt>
      <trkpt lat="42.36485" lon="2.84086">
        <ele>171.6</ele>
        <time>2022-05-21 14:54:14</time>
      </trkpt>
      <trkpt lat="42.36487" lon="2.84083">
        <ele>171.8</ele>
        <time>2022-05-21 14:54:15</time>
      </trkpt>
      <trkpt lat="42.36488" lon="2.8408">
        <ele>171.8</ele>
        <time>2022-05-21 14:54:16</time>
      </trkpt>
      <trkpt lat="42.36488" lon="2.84076">
        <ele>172</ele>
        <time>2022-05-21 14:54:17</time>
      </trkpt>
      <trkpt lat="42.36488" lon="2.84073">
        <ele>172</ele>
        <time>2022-05-21 14:54:18</time>
      </trkpt>
      <trkpt lat="42.36488" lon="2.8407">
        <ele>172.2</ele>
        <time>2022-05-21 14:54:19</time>
      </trkpt>
      <trkpt lat="42.36488" lon="2.84067">
        <ele>172.4</ele>
        <time>2022-05-21 14:54:20</time>
      </trkpt>
      <trkpt lat="42.36489" lon="2.84063">
        <ele>172.4</ele>
        <time>2022-05-21 14:54:21</time>
      </trkpt>
      <trkpt lat="42.36489" lon="2.8406">
        <ele>172.6</ele>
        <time>2022-05-21 14:54:22</time>
      </trkpt>
      <trkpt lat="42.36489" lon="2.84056">
        <ele>172.8</ele>
        <time>2022-05-21 14:54:23</time>
      </trkpt>
      <trkpt lat="42.36489" lon="2.84053">
        <ele>172.8</ele>
        <time>2022-05-21 14:54:24</time>
      </trkpt>
      <trkpt lat="42.36489" lon="2.84049">
        <ele>173</ele>
        <time>2022-05-21 14:54:25</time>
      </trkpt>
      <trkpt lat="42.36489" lon="2.84045">
        <ele>173.2</ele>
        <time>2022-05-21 14:54:26</time>
      </trkpt>
      <trkpt lat="42.36488" lon="2.84042">
        <ele>173.2</ele>
        <time>2022-05-21 14:54:27</time>
      </trkpt>
      <trkpt lat="42.36488" lon="2.84038">
        <ele>173.4</ele>
        <time>2022-05-21 14:54:28</time>
      </trkpt>
      <trkpt lat="42.36488" lon="2.84033">
        <ele>173.4</ele>
        <time>2022-05-21 14:54:29</time>
      </trkpt>
      <trkpt lat="42.36489" lon="2.84029">
        <ele>173.6</ele>
        <time>2022-05-21 14:54:30</time>
      </trkpt>
      <trkpt lat="42.36489" lon="2.84024">
        <ele>173.6</ele>
        <time>2022-05-21 14:54:31</time>
      </trkpt>
      <trkpt lat="42.3649" lon="2.8402">
        <ele>173.8</ele>
        <time>2022-05-21 14:54:32</time>
      </trkpt>
      <trkpt lat="42.36491" lon="2.84016">
        <ele>174</ele>
        <time>2022-05-21 14:54:33</time>
      </trkpt>
      <trkpt lat="42.36492" lon="2.84012">
        <ele>174.2</ele>
        <time>2022-05-21 14:54:34</time>
      </trkpt>
      <trkpt lat="42.36494" lon="2.84008">
        <ele>174.2</ele>
        <time>2022-05-21 14:54:35</time>
      </trkpt>
      <trkpt lat="42.36496" lon="2.84005">
        <ele>174.4</ele>
        <time>2022-05-21 14:54:36</time>
      </trkpt>
      <trkpt lat="42.36497" lon="2.84002">
        <ele>174.6</ele>
        <time>2022-05-21 14:54:37</time>
      </trkpt>
      <trkpt lat="42.36499" lon="2.83998">
        <ele>174.8</ele>
        <time>2022-05-21 14:54:38</time>
      </trkpt>
      <trkpt lat="42.365" lon="2.83995">
        <ele>175</ele>
        <time>2022-05-21 14:54:39</time>
      </trkpt>
      <trkpt lat="42.36502" lon="2.83992">
        <ele>175.2</ele>
        <time>2022-05-21 14:54:40</time>
      </trkpt>
      <trkpt lat="42.36504" lon="2.83988">
        <ele>175.4</ele>
        <time>2022-05-21 14:54:41</time>
      </trkpt>
      <trkpt lat="42.36505" lon="2.83985">
        <ele>175.4</ele>
        <time>2022-05-21 14:54:42</time>
      </trkpt>
      <trkpt lat="42.36506" lon="2.83981">
        <ele>175.6</ele>
        <time>2022-05-21 14:54:43</time>
      </trkpt>
      <trkpt lat="42.36507" lon="2.83978">
        <ele>175.8</ele>
        <time>2022-05-21 14:54:44</time>
      </trkpt>
      <trkpt lat="42.36508" lon="2.83974">
        <ele>176</ele>
        <time>2022-05-21 14:54:45</time>
      </trkpt>
      <trkpt lat="42.36508" lon="2.8397">
        <ele>176.2</ele>
        <time>2022-05-21 14:54:46</time>
      </trkpt>
      <trkpt lat="42.36508" lon="2.83966">
        <ele>176.4</ele>
        <time>2022-05-21 14:54:47</time>
      </trkpt>
      <trkpt lat="42.36509" lon="2.83962">
        <ele>176.4</ele>
        <time>2022-05-21 14:54:48</time>
      </trkpt>
      <trkpt lat="42.36509" lon="2.83958">
        <ele>176.6</ele>
        <time>2022-05-21 14:54:49</time>
      </trkpt>
      <trkpt lat="42.36509" lon="2.83954">
        <ele>176.8</ele>
        <time>2022-05-21 14:54:50</time>
      </trkpt>
      <trkpt lat="42.36509" lon="2.8395">
        <ele>176.8</ele>
        <time>2022-05-21 14:54:51</time>
      </trkpt>
      <trkpt lat="42.36509" lon="2.83946">
        <ele>177</ele>
        <time>2022-05-21 14:54:52</time>
      </trkpt>
      <trkpt lat="42.36509" lon="2.83943">
        <ele>177.2</ele>
        <time>2022-05-21 14:54:53</time>
      </trkpt>
      <trkpt lat="42.36509" lon="2.83939">
        <ele>177.2</ele>
        <time>2022-05-21 14:54:54</time>
      </trkpt>
      <trkpt lat="42.36509" lon="2.83935">
        <ele>177.4</ele>
        <time>2022-05-21 14:54:55</time>
      </trkpt>
      <trkpt lat="42.36509" lon="2.83931">
        <ele>177.4</ele>
        <time>2022-05-21 14:54:56</time>
      </trkpt>
      <trkpt lat="42.36509" lon="2.83927">
        <ele>177.6</ele>
        <time>2022-05-21 14:54:57</time>
      </trkpt>
      <trkpt lat="42.36509" lon="2.83923">
        <ele>177.8</ele>
        <time>2022-05-21 14:54:58</time>
      </trkpt>
      <trkpt lat="42.3651" lon="2.83919">
        <ele>178</ele>
        <time>2022-05-21 14:54:59</time>
      </trkpt>
      <trkpt lat="42.3651" lon="2.83915">
        <ele>178.2</ele>
        <time>2022-05-21 14:55:00</time>
      </trkpt>
      <trkpt lat="42.36511" lon="2.83911">
        <ele>178.2</ele>
        <time>2022-05-21 14:55:01</time>
      </trkpt>
      <trkpt lat="42.36511" lon="2.83908">
        <ele>178.4</ele>
        <time>2022-05-21 14:55:02</time>
      </trkpt>
      <trkpt lat="42.36512" lon="2.83904">
        <ele>178.6</ele>
        <time>2022-05-21 14:55:03</time>
      </trkpt>
      <trkpt lat="42.36512" lon="2.839">
        <ele>178.6</ele>
        <time>2022-05-21 14:55:04</time>
      </trkpt>
      <trkpt lat="42.36513" lon="2.83896">
        <ele>178.8</ele>
        <time>2022-05-21 14:55:05</time>
      </trkpt>
      <trkpt lat="42.36514" lon="2.83892">
        <ele>179</ele>
        <time>2022-05-21 14:55:06</time>
      </trkpt>
      <trkpt lat="42.36515" lon="2.83889">
        <ele>179.2</ele>
        <time>2022-05-21 14:55:07</time>
      </trkpt>
      <trkpt lat="42.36517" lon="2.83885">
        <ele>179.2</ele>
        <time>2022-05-21 14:55:08</time>
      </trkpt>
      <trkpt lat="42.36518" lon="2.83881">
        <ele>179.4</ele>
        <time>2022-05-21 14:55:09</time>
      </trkpt>
      <trkpt lat="42.3652" lon="2.83878">
        <ele>179.6</ele>
        <time>2022-05-21 14:55:10</time>
      </trkpt>
      <trkpt lat="42.36521" lon="2.83874">
        <ele>179.8</ele>
        <time>2022-05-21 14:55:11</time>
      </trkpt>
      <trkpt lat="42.36523" lon="2.8387">
        <ele>179.8</ele>
        <time>2022-05-21 14:55:12</time>
      </trkpt>
      <trkpt lat="42.36524" lon="2.83866">
        <ele>180</ele>
        <time>2022-05-21 14:55:13</time>
      </trkpt>
      <trkpt lat="42.36526" lon="2.83862">
        <ele>180.2</ele>
        <time>2022-05-21 14:55:14</time>
      </trkpt>
      <trkpt lat="42.36527" lon="2.83858">
        <ele>180.4</ele>
        <time>2022-05-21 14:55:15</time>
      </trkpt>
      <trkpt lat="42.36529" lon="2.83855">
        <ele>180.6</ele>
        <time>2022-05-21 14:55:16</time>
      </trkpt>
      <trkpt lat="42.3653" lon="2.83851">
        <ele>180.8</ele>
        <time>2022-05-21 14:55:17</time>
      </trkpt>
      <trkpt lat="42.36531" lon="2.83847">
        <ele>181</ele>
        <time>2022-05-21 14:55:18</time>
      </trkpt>
      <trkpt lat="42.36533" lon="2.83844">
        <ele>181.2</ele>
        <time>2022-05-21 14:55:19</time>
      </trkpt>
      <trkpt lat="42.36534" lon="2.8384">
        <ele>181.4</ele>
        <time>2022-05-21 14:55:20</time>
      </trkpt>
      <trkpt lat="42.36535" lon="2.83837">
        <ele>181.6</ele>
        <time>2022-05-21 14:55:21</time>
      </trkpt>
      <trkpt lat="42.36536" lon="2.83834">
        <ele>181.8</ele>
        <time>2022-05-21 14:55:22</time>
      </trkpt>
      <trkpt lat="42.36538" lon="2.8383">
        <ele>182</ele>
        <time>2022-05-21 14:55:23</time>
      </trkpt>
      <trkpt lat="42.36539" lon="2.83827">
        <ele>182.2</ele>
        <time>2022-05-21 14:55:24</time>
      </trkpt>
      <trkpt lat="42.36541" lon="2.83825">
        <ele>182.4</ele>
        <time>2022-05-21 14:55:25</time>
      </trkpt>
      <trkpt lat="42.36542" lon="2.83822">
        <ele>182.6</ele>
        <time>2022-05-21 14:55:26</time>
      </trkpt>
      <trkpt lat="42.36544" lon="2.83819">
        <ele>182.8</ele>
        <time>2022-05-21 14:55:27</time>
      </trkpt>
      <trkpt lat="42.36545" lon="2.83815">
        <ele>182.8</ele>
        <time>2022-05-21 14:55:28</time>
      </trkpt>
      <trkpt lat="42.36546" lon="2.83812">
        <ele>183</ele>
        <time>2022-05-21 14:55:29</time>
      </trkpt>
      <trkpt lat="42.36548" lon="2.83809">
        <ele>183.2</ele>
        <time>2022-05-21 14:55:30</time>
      </trkpt>
      <trkpt lat="42.36549" lon="2.83806">
        <ele>183.4</ele>
        <time>2022-05-21 14:55:31</time>
      </trkpt>
      <trkpt lat="42.3655" lon="2.83803">
        <ele>183.6</ele>
        <time>2022-05-21 14:55:32</time>
      </trkpt>
      <trkpt lat="42.36552" lon="2.838">
        <ele>183.6</ele>
        <time>2022-05-21 14:55:33</time>
      </trkpt>
      <trkpt lat="42.36554" lon="2.83797">
        <ele>183.8</ele>
        <time>2022-05-21 14:55:34</time>
      </trkpt>
      <trkpt lat="42.36555" lon="2.83794">
        <ele>184</ele>
        <time>2022-05-21 14:55:35</time>
      </trkpt>
      <trkpt lat="42.36556" lon="2.83791">
        <ele>184</ele>
        <time>2022-05-21 14:55:36</time>
      </trkpt>
      <trkpt lat="42.36557" lon="2.83788">
        <ele>184.2</ele>
        <time>2022-05-21 14:55:37</time>
      </trkpt>
      <trkpt lat="42.36559" lon="2.83785">
        <ele>184.4</ele>
        <time>2022-05-21 14:55:38</time>
      </trkpt>
      <trkpt lat="42.3656" lon="2.83782">
        <ele>184.4</ele>
        <time>2022-05-21 14:55:39</time>
      </trkpt>
      <trkpt lat="42.3656" lon="2.83779">
        <ele>184.6</ele>
        <time>2022-05-21 14:55:40</time>
      </trkpt>
      <trkpt lat="42.36562" lon="2.83776">
        <ele>184.8</ele>
        <time>2022-05-21 14:55:41</time>
      </trkpt>
      <trkpt lat="42.36563" lon="2.83773">
        <ele>185</ele>
        <time>2022-05-21 14:55:42</time>
      </trkpt>
      <trkpt lat="42.36564" lon="2.8377">
        <ele>185</ele>
        <time>2022-05-21 14:55:43</time>
      </trkpt>
      <trkpt lat="42.36565" lon="2.83767">
        <ele>185.2</ele>
        <time>2022-05-21 14:55:44</time>
      </trkpt>
      <trkpt lat="42.36566" lon="2.83764">
        <ele>185.4</ele>
        <time>2022-05-21 14:55:45</time>
      </trkpt>
      <trkpt lat="42.36568" lon="2.8376">
        <ele>185.6</ele>
        <time>2022-05-21 14:55:46</time>
      </trkpt>
      <trkpt lat="42.36569" lon="2.83757">
        <ele>185.8</ele>
        <time>2022-05-21 14:55:47</time>
      </trkpt>
      <trkpt lat="42.36571" lon="2.83754">
        <ele>186</ele>
        <time>2022-05-21 14:55:48</time>
      </trkpt>
      <trkpt lat="42.36572" lon="2.83751">
        <ele>186.2</ele>
        <time>2022-05-21 14:55:49</time>
      </trkpt>
      <trkpt lat="42.36574" lon="2.83748">
        <ele>186.2</ele>
        <time>2022-05-21 14:55:50</time>
      </trkpt>
      <trkpt lat="42.36575" lon="2.83745">
        <ele>186.4</ele>
        <time>2022-05-21 14:55:51</time>
      </trkpt>
      <trkpt lat="42.36576" lon="2.83741">
        <ele>186.6</ele>
        <time>2022-05-21 14:55:52</time>
      </trkpt>
      <trkpt lat="42.36577" lon="2.83737">
        <ele>186.8</ele>
        <time>2022-05-21 14:55:53</time>
      </trkpt>
      <trkpt lat="42.36579" lon="2.83734">
        <ele>187</ele>
        <time>2022-05-21 14:55:54</time>
      </trkpt>
      <trkpt lat="42.3658" lon="2.8373">
        <ele>187.2</ele>
        <time>2022-05-21 14:55:55</time>
      </trkpt>
      <trkpt lat="42.36581" lon="2.83727">
        <ele>187.2</ele>
        <time>2022-05-21 14:55:56</time>
      </trkpt>
      <trkpt lat="42.36582" lon="2.83723">
        <ele>187.4</ele>
        <time>2022-05-21 14:55:57</time>
      </trkpt>
      <trkpt lat="42.36584" lon="2.8372">
        <ele>187.6</ele>
        <time>2022-05-21 14:55:58</time>
      </trkpt>
      <trkpt lat="42.36585" lon="2.83717">
        <ele>187.8</ele>
        <time>2022-05-21 14:55:59</time>
      </trkpt>
      <trkpt lat="42.36586" lon="2.83713">
        <ele>188</ele>
        <time>2022-05-21 14:56:00</time>
      </trkpt>
      <trkpt lat="42.36587" lon="2.8371">
        <ele>188</ele>
        <time>2022-05-21 14:56:01</time>
      </trkpt>
      <trkpt lat="42.36588" lon="2.83706">
        <ele>188.2</ele>
        <time>2022-05-21 14:56:02</time>
      </trkpt>
      <trkpt lat="42.3659" lon="2.83703">
        <ele>188.4</ele>
        <time>2022-05-21 14:56:03</time>
      </trkpt>
      <trkpt lat="42.36591" lon="2.83699">
        <ele>188.6</ele>
        <time>2022-05-21 14:56:04</time>
      </trkpt>
      <trkpt lat="42.36593" lon="2.83696">
        <ele>188.6</ele>
        <time>2022-05-21 14:56:05</time>
      </trkpt>
      <trkpt lat="42.36594" lon="2.83693">
        <ele>188.8</ele>
        <time>2022-05-21 14:56:06</time>
      </trkpt>
      <trkpt lat="42.36596" lon="2.83689">
        <ele>189</ele>
        <time>2022-05-21 14:56:07</time>
      </trkpt>
      <trkpt lat="42.36597" lon="2.83686">
        <ele>189.2</ele>
        <time>2022-05-21 14:56:08</time>
      </trkpt>
      <trkpt lat="42.36599" lon="2.83683">
        <ele>189.4</ele>
        <time>2022-05-21 14:56:09</time>
      </trkpt>
      <trkpt lat="42.366" lon="2.83679">
        <ele>189.4</ele>
        <time>2022-05-21 14:56:10</time>
      </trkpt>
      <trkpt lat="42.36602" lon="2.83675">
        <ele>189.6</ele>
        <time>2022-05-21 14:56:11</time>
      </trkpt>
      <trkpt lat="42.36603" lon="2.83672">
        <ele>189.6</ele>
        <time>2022-05-21 14:56:12</time>
      </trkpt>
      <trkpt lat="42.36605" lon="2.83668">
        <ele>189.8</ele>
        <time>2022-05-21 14:56:13</time>
      </trkpt>
      <trkpt lat="42.36606" lon="2.83665">
        <ele>189.8</ele>
        <time>2022-05-21 14:56:14</time>
      </trkpt>
      <trkpt lat="42.36608" lon="2.83661">
        <ele>190</ele>
        <time>2022-05-21 14:56:15</time>
      </trkpt>
      <trkpt lat="42.36609" lon="2.83657">
        <ele>190</ele>
        <time>2022-05-21 14:56:16</time>
      </trkpt>
      <trkpt lat="42.36611" lon="2.83653">
        <ele>190.2</ele>
        <time>2022-05-21 14:56:17</time>
      </trkpt>
      <trkpt lat="42.36612" lon="2.83649">
        <ele>190.2</ele>
        <time>2022-05-21 14:56:18</time>
      </trkpt>
      <trkpt lat="42.36613" lon="2.83646">
        <ele>190.4</ele>
        <time>2022-05-21 14:56:19</time>
      </trkpt>
      <trkpt lat="42.36615" lon="2.83642">
        <ele>190.4</ele>
        <time>2022-05-21 14:56:20</time>
      </trkpt>
      <trkpt lat="42.36616" lon="2.83639">
        <ele>190.6</ele>
        <time>2022-05-21 14:56:21</time>
      </trkpt>
      <trkpt lat="42.36617" lon="2.83635">
        <ele>190.8</ele>
        <time>2022-05-21 14:56:22</time>
      </trkpt>
      <trkpt lat="42.36618" lon="2.83632">
        <ele>190.8</ele>
        <time>2022-05-21 14:56:23</time>
      </trkpt>
      <trkpt lat="42.3662" lon="2.83628">
        <ele>191</ele>
        <time>2022-05-21 14:56:24</time>
      </trkpt>
      <trkpt lat="42.36621" lon="2.83624">
        <ele>191</ele>
        <time>2022-05-21 14:56:25</time>
      </trkpt>
      <trkpt lat="42.36622" lon="2.83621">
        <ele>191.2</ele>
        <time>2022-05-21 14:56:26</time>
      </trkpt>
      <trkpt lat="42.36623" lon="2.83617">
        <ele>191.4</ele>
        <time>2022-05-21 14:56:27</time>
      </trkpt>
      <trkpt lat="42.36625" lon="2.83614">
        <ele>191.6</ele>
        <time>2022-05-21 14:56:28</time>
      </trkpt>
      <trkpt lat="42.36626" lon="2.8361">
        <ele>191.6</ele>
        <time>2022-05-21 14:56:29</time>
      </trkpt>
      <trkpt lat="42.36628" lon="2.83607">
        <ele>191.8</ele>
        <time>2022-05-21 14:56:30</time>
      </trkpt>
      <trkpt lat="42.36628" lon="2.83604">
        <ele>191.8</ele>
        <time>2022-05-21 14:56:31</time>
      </trkpt>
      <trkpt lat="42.36629" lon="2.83601">
        <ele>192</ele>
        <time>2022-05-21 14:56:32</time>
      </trkpt>
      <trkpt lat="42.36629" lon="2.83597">
        <ele>192</ele>
        <time>2022-05-21 14:56:33</time>
      </trkpt>
      <trkpt lat="42.36628" lon="2.83592">
        <ele>192.2</ele>
        <time>2022-05-21 14:56:34</time>
      </trkpt>
      <trkpt lat="42.36628" lon="2.83588">
        <ele>192.2</ele>
        <time>2022-05-21 14:56:35</time>
      </trkpt>
      <trkpt lat="42.36628" lon="2.83584">
        <ele>192.4</ele>
        <time>2022-05-21 14:56:36</time>
      </trkpt>
      <trkpt lat="42.36628" lon="2.8358">
        <ele>192.4</ele>
        <time>2022-05-21 14:56:37</time>
      </trkpt>
      <trkpt lat="42.36628" lon="2.83576">
        <ele>192.6</ele>
        <time>2022-05-21 14:56:38</time>
      </trkpt>
      <trkpt lat="42.36627" lon="2.83573">
        <ele>192.6</ele>
        <time>2022-05-21 14:56:39</time>
      </trkpt>
      <trkpt lat="42.36626" lon="2.83569">
        <ele>192.8</ele>
        <time>2022-05-21 14:56:40</time>
      </trkpt>
      <trkpt lat="42.36626" lon="2.83566">
        <ele>192.8</ele>
        <time>2022-05-21 14:56:41</time>
      </trkpt>
      <trkpt lat="42.36625" lon="2.83563">
        <ele>193</ele>
        <time>2022-05-21 14:56:42</time>
      </trkpt>
      <trkpt lat="42.36625" lon="2.83559">
        <ele>193</ele>
        <time>2022-05-21 14:56:43</time>
      </trkpt>
      <trkpt lat="42.36624" lon="2.83555">
        <ele>193.2</ele>
        <time>2022-05-21 14:56:44</time>
      </trkpt>
      <trkpt lat="42.36623" lon="2.83551">
        <ele>193.4</ele>
        <time>2022-05-21 14:56:45</time>
      </trkpt>
      <trkpt lat="42.36623" lon="2.83547">
        <ele>193.4</ele>
        <time>2022-05-21 14:56:46</time>
      </trkpt>
      <trkpt lat="42.36622" lon="2.83543">
        <ele>193.6</ele>
        <time>2022-05-21 14:56:47</time>
      </trkpt>
      <trkpt lat="42.36622" lon="2.83539">
        <ele>193.6</ele>
        <time>2022-05-21 14:56:48</time>
      </trkpt>
      <trkpt lat="42.36621" lon="2.83535">
        <ele>193.8</ele>
        <time>2022-05-21 14:56:49</time>
      </trkpt>
      <trkpt lat="42.3662" lon="2.83531">
        <ele>193.8</ele>
        <time>2022-05-21 14:56:50</time>
      </trkpt>
      <trkpt lat="42.36619" lon="2.83527">
        <ele>194</ele>
        <time>2022-05-21 14:56:51</time>
      </trkpt>
      <trkpt lat="42.36618" lon="2.83523">
        <ele>194</ele>
        <time>2022-05-21 14:56:52</time>
      </trkpt>
      <trkpt lat="42.36617" lon="2.83519">
        <ele>194.2</ele>
        <time>2022-05-21 14:56:53</time>
      </trkpt>
      <trkpt lat="42.36616" lon="2.83515">
        <ele>194.2</ele>
        <time>2022-05-21 14:56:54</time>
      </trkpt>
      <trkpt lat="42.36615" lon="2.83511">
        <ele>194.4</ele>
        <time>2022-05-21 14:56:55</time>
      </trkpt>
      <trkpt lat="42.36615" lon="2.83506">
        <ele>194.4</ele>
        <time>2022-05-21 14:56:56</time>
      </trkpt>
      <trkpt lat="42.36614" lon="2.83502">
        <ele>194.4</ele>
        <time>2022-05-21 14:56:57</time>
      </trkpt>
      <trkpt lat="42.36613" lon="2.83499">
        <ele>194.6</ele>
        <time>2022-05-21 14:56:58</time>
      </trkpt>
      <trkpt lat="42.36613" lon="2.83495">
        <ele>194.6</ele>
        <time>2022-05-21 14:56:59</time>
      </trkpt>
      <trkpt lat="42.36612" lon="2.83491">
        <ele>194.6</ele>
        <time>2022-05-21 14:57:00</time>
      </trkpt>
      <trkpt lat="42.36612" lon="2.83487">
        <ele>194.8</ele>
        <time>2022-05-21 14:57:01</time>
      </trkpt>
      <trkpt lat="42.36611" lon="2.83483">
        <ele>194.8</ele>
        <time>2022-05-21 14:57:02</time>
      </trkpt>
      <trkpt lat="42.3661" lon="2.83479">
        <ele>195</ele>
        <time>2022-05-21 14:57:03</time>
      </trkpt>
      <trkpt lat="42.36609" lon="2.83475">
        <ele>195</ele>
        <time>2022-05-21 14:57:04</time>
      </trkpt>
      <trkpt lat="42.36609" lon="2.83471">
        <ele>195.2</ele>
        <time>2022-05-21 14:57:05</time>
      </trkpt>
      <trkpt lat="42.36607" lon="2.83468">
        <ele>195.4</ele>
        <time>2022-05-21 14:57:06</time>
      </trkpt>
      <trkpt lat="42.36606" lon="2.83464">
        <ele>195.4</ele>
        <time>2022-05-21 14:57:07</time>
      </trkpt>
      <trkpt lat="42.36605" lon="2.83459">
        <ele>195.6</ele>
        <time>2022-05-21 14:57:08</time>
      </trkpt>
      <trkpt lat="42.36604" lon="2.83455">
        <ele>195.6</ele>
        <time>2022-05-21 14:57:09</time>
      </trkpt>
      <trkpt lat="42.36603" lon="2.83451">
        <ele>195.8</ele>
        <time>2022-05-21 14:57:10</time>
      </trkpt>
      <trkpt lat="42.36602" lon="2.83446">
        <ele>195.8</ele>
        <time>2022-05-21 14:57:11</time>
      </trkpt>
      <trkpt lat="42.36602" lon="2.83442">
        <ele>196</ele>
        <time>2022-05-21 14:57:12</time>
      </trkpt>
      <trkpt lat="42.36601" lon="2.83438">
        <ele>196</ele>
        <time>2022-05-21 14:57:13</time>
      </trkpt>
      <trkpt lat="42.36601" lon="2.83434">
        <ele>196</ele>
        <time>2022-05-21 14:57:14</time>
      </trkpt>
      <trkpt lat="42.366" lon="2.8343">
        <ele>196.2</ele>
        <time>2022-05-21 14:57:15</time>
      </trkpt>
      <trkpt lat="42.366" lon="2.83426">
        <ele>196.2</ele>
        <time>2022-05-21 14:57:16</time>
      </trkpt>
      <trkpt lat="42.366" lon="2.83421">
        <ele>196.4</ele>
        <time>2022-05-21 14:57:17</time>
      </trkpt>
      <trkpt lat="42.36599" lon="2.83417">
        <ele>196.4</ele>
        <time>2022-05-21 14:57:18</time>
      </trkpt>
      <trkpt lat="42.36599" lon="2.83414">
        <ele>196.4</ele>
        <time>2022-05-21 14:57:19</time>
      </trkpt>
      <trkpt lat="42.36598" lon="2.8341">
        <ele>196.6</ele>
        <time>2022-05-21 14:57:20</time>
      </trkpt>
      <trkpt lat="42.36598" lon="2.83407">
        <ele>196.6</ele>
        <time>2022-05-21 14:57:21</time>
      </trkpt>
      <trkpt lat="42.36597" lon="2.83404">
        <ele>196.8</ele>
        <time>2022-05-21 14:57:22</time>
      </trkpt>
      <trkpt lat="42.36596" lon="2.83402">
        <ele>196.8</ele>
        <time>2022-05-21 14:57:23</time>
      </trkpt>
      <trkpt lat="42.36596" lon="2.834">
        <ele>196.8</ele>
        <time>2022-05-21 14:57:24</time>
      </trkpt>
      <trkpt lat="42.36595" lon="2.83398">
        <ele>196.8</ele>
        <time>2022-05-21 14:57:25</time>
      </trkpt>
      <trkpt lat="42.36594" lon="2.83396">
        <ele>197</ele>
        <time>2022-05-21 14:57:26</time>
      </trkpt>
      <trkpt lat="42.36594" lon="2.83394">
        <ele>197</ele>
        <time>2022-05-21 14:57:27</time>
      </trkpt>
      <trkpt lat="42.36593" lon="2.83392">
        <ele>197</ele>
        <time>2022-05-21 14:57:28</time>
      </trkpt>
      <trkpt lat="42.36593" lon="2.8339">
        <ele>197</ele>
        <time>2022-05-21 14:57:29</time>
      </trkpt>
      <trkpt lat="42.36593" lon="2.83388">
        <ele>197.2</ele>
        <time>2022-05-21 14:57:30</time>
      </trkpt>
      <trkpt lat="42.36593" lon="2.83386">
        <ele>197.2</ele>
        <time>2022-05-21 14:57:31</time>
      </trkpt>
      <trkpt lat="42.36592" lon="2.83383">
        <ele>197.4</ele>
        <time>2022-05-21 14:57:32</time>
      </trkpt>
      <trkpt lat="42.36593" lon="2.83381">
        <ele>197.4</ele>
        <time>2022-05-21 14:57:33</time>
      </trkpt>
      <trkpt lat="42.36593" lon="2.8338">
        <ele>197.4</ele>
        <time>2022-05-21 14:57:34</time>
      </trkpt>
      <trkpt lat="42.36592" lon="2.83381">
        <ele>197.6</ele>
        <time>2022-05-21 15:11:18</time>
      </trkpt>
      <trkpt lat="42.36593" lon="2.83381">
        <ele>197.6</ele>
        <time>2022-05-21 15:11:19</time>
      </trkpt>
      <trkpt lat="42.36594" lon="2.83381">
        <ele>197.6</ele>
        <time>2022-05-21 15:11:20</time>
      </trkpt>
      <trkpt lat="42.36594" lon="2.83381">
        <ele>197.6</ele>
        <time>2022-05-21 15:11:21</time>
      </trkpt>
      <trkpt lat="42.36595" lon="2.83382">
        <ele>197.6</ele>
        <time>2022-05-21 15:11:22</time>
      </trkpt>
      <trkpt lat="42.36595" lon="2.83382">
        <ele>197.6</ele>
        <time>2022-05-21 15:11:23</time>
      </trkpt>
      <trkpt lat="42.36595" lon="2.83382">
        <ele>197.6</ele>
        <time>2022-05-21 15:11:24</time>
      </trkpt>
      <trkpt lat="42.36601" lon="2.83367">
        <ele>197.8</ele>
        <time>2022-05-21 16:00:42</time>
      </trkpt>
      <trkpt lat="42.36602" lon="2.83365">
        <ele>197.8</ele>
        <time>2022-05-21 16:00:43</time>
      </trkpt>
      <trkpt lat="42.36602" lon="2.83362">
        <ele>197.8</ele>
        <time>2022-05-21 16:00:44</time>
      </trkpt>
      <trkpt lat="42.36603" lon="2.83359">
        <ele>197.8</ele>
        <time>2022-05-21 16:00:45</time>
      </trkpt>
      <trkpt lat="42.36604" lon="2.83356">
        <ele>197.8</ele>
        <time>2022-05-21 16:00:46</time>
      </trkpt>
      <trkpt lat="42.36604" lon="2.83352">
        <ele>198</ele>
        <time>2022-05-21 16:00:47</time>
      </trkpt>
      <trkpt lat="42.36604" lon="2.83349">
        <ele>198</ele>
        <time>2022-05-21 16:00:48</time>
      </trkpt>
      <trkpt lat="42.36605" lon="2.83344">
        <ele>198</ele>
        <time>2022-05-21 16:00:49</time>
      </trkpt>
      <trkpt lat="42.36605" lon="2.8334">
        <ele>198.2</ele>
        <time>2022-05-21 16:00:50</time>
      </trkpt>
      <trkpt lat="42.36606" lon="2.83336">
        <ele>198.2</ele>
        <time>2022-05-21 16:00:51</time>
      </trkpt>
      <trkpt lat="42.36608" lon="2.83332">
        <ele>198.2</ele>
        <time>2022-05-21 16:00:52</time>
      </trkpt>
      <trkpt lat="42.36608" lon="2.83328">
        <ele>198.2</ele>
        <time>2022-05-21 16:00:53</time>
      </trkpt>
      <trkpt lat="42.36609" lon="2.83323">
        <ele>198.4</ele>
        <time>2022-05-21 16:00:54</time>
      </trkpt>
      <trkpt lat="42.3661" lon="2.83318">
        <ele>198.4</ele>
        <time>2022-05-21 16:00:55</time>
      </trkpt>
      <trkpt lat="42.3661" lon="2.83314">
        <ele>198.4</ele>
        <time>2022-05-21 16:00:56</time>
      </trkpt>
      <trkpt lat="42.36611" lon="2.83309">
        <ele>198.6</ele>
        <time>2022-05-21 16:00:57</time>
      </trkpt>
      <trkpt lat="42.36612" lon="2.83304">
        <ele>198.6</ele>
        <time>2022-05-21 16:00:58</time>
      </trkpt>
      <trkpt lat="42.36612" lon="2.83299">
        <ele>198.6</ele>
        <time>2022-05-21 16:00:59</time>
      </trkpt>
      <trkpt lat="42.36613" lon="2.83294">
        <ele>198.8</ele>
        <time>2022-05-21 16:01:00</time>
      </trkpt>
      <trkpt lat="42.36614" lon="2.83289">
        <ele>198.8</ele>
        <time>2022-05-21 16:01:01</time>
      </trkpt>
      <trkpt lat="42.36616" lon="2.83284">
        <ele>198.8</ele>
        <time>2022-05-21 16:01:02</time>
      </trkpt>
      <trkpt lat="42.36617" lon="2.83279">
        <ele>198.8</ele>
        <time>2022-05-21 16:01:03</time>
      </trkpt>
      <trkpt lat="42.36618" lon="2.83274">
        <ele>198.8</ele>
        <time>2022-05-21 16:01:04</time>
      </trkpt>
      <trkpt lat="42.36619" lon="2.83269">
        <ele>198.8</ele>
        <time>2022-05-21 16:01:05</time>
      </trkpt>
      <trkpt lat="42.3662" lon="2.83264">
        <ele>199</ele>
        <time>2022-05-21 16:01:06</time>
      </trkpt>
      <trkpt lat="42.36621" lon="2.83259">
        <ele>199</ele>
        <time>2022-05-21 16:01:07</time>
      </trkpt>
      <trkpt lat="42.36622" lon="2.83254">
        <ele>199</ele>
        <time>2022-05-21 16:01:08</time>
      </trkpt>
      <trkpt lat="42.36623" lon="2.83249">
        <ele>199</ele>
        <time>2022-05-21 16:01:09</time>
      </trkpt>
      <trkpt lat="42.36624" lon="2.83244">
        <ele>199.2</ele>
        <time>2022-05-21 16:01:10</time>
      </trkpt>
      <trkpt lat="42.36625" lon="2.83239">
        <ele>199.2</ele>
        <time>2022-05-21 16:01:11</time>
      </trkpt>
      <trkpt lat="42.36625" lon="2.83235">
        <ele>199.2</ele>
        <time>2022-05-21 16:01:12</time>
      </trkpt>
      <trkpt lat="42.36626" lon="2.83231">
        <ele>199.2</ele>
        <time>2022-05-21 16:01:13</time>
      </trkpt>
      <trkpt lat="42.36628" lon="2.83226">
        <ele>199.4</ele>
        <time>2022-05-21 16:01:14</time>
      </trkpt>
      <trkpt lat="42.36629" lon="2.83221">
        <ele>199.4</ele>
        <time>2022-05-21 16:01:15</time>
      </trkpt>
      <trkpt lat="42.36631" lon="2.83216">
        <ele>199.4</ele>
        <time>2022-05-21 16:01:16</time>
      </trkpt>
      <trkpt lat="42.36632" lon="2.83211">
        <ele>199.4</ele>
        <time>2022-05-21 16:01:17</time>
      </trkpt>
      <trkpt lat="42.36633" lon="2.83206">
        <ele>199.4</ele>
        <time>2022-05-21 16:01:18</time>
      </trkpt>
      <trkpt lat="42.36634" lon="2.83201">
        <ele>199.6</ele>
        <time>2022-05-21 16:01:19</time>
      </trkpt>
      <trkpt lat="42.36634" lon="2.83196">
        <ele>199.6</ele>
        <time>2022-05-21 16:01:20</time>
      </trkpt>
      <trkpt lat="42.36635" lon="2.83192">
        <ele>199.6</ele>
        <time>2022-05-21 16:01:21</time>
      </trkpt>
      <trkpt lat="42.36636" lon="2.83187">
        <ele>199.6</ele>
        <time>2022-05-21 16:01:22</time>
      </trkpt>
      <trkpt lat="42.36636" lon="2.83182">
        <ele>199.8</ele>
        <time>2022-05-21 16:01:23</time>
      </trkpt>
      <trkpt lat="42.36636" lon="2.83177">
        <ele>199.8</ele>
        <time>2022-05-21 16:01:24</time>
      </trkpt>
      <trkpt lat="42.36636" lon="2.83171">
        <ele>199.8</ele>
        <time>2022-05-21 16:01:25</time>
      </trkpt>
      <trkpt lat="42.36636" lon="2.83166">
        <ele>199.8</ele>
        <time>2022-05-21 16:01:26</time>
      </trkpt>
      <trkpt lat="42.36635" lon="2.83161">
        <ele>199.8</ele>
        <time>2022-05-21 16:01:27</time>
      </trkpt>
      <trkpt lat="42.36635" lon="2.83156">
        <ele>199.8</ele>
        <time>2022-05-21 16:01:28</time>
      </trkpt>
      <trkpt lat="42.36635" lon="2.8315">
        <ele>200</ele>
        <time>2022-05-21 16:01:29</time>
      </trkpt>
      <trkpt lat="42.36634" lon="2.83145">
        <ele>200</ele>
        <time>2022-05-21 16:01:30</time>
      </trkpt>
      <trkpt lat="42.36634" lon="2.8314">
        <ele>200</ele>
        <time>2022-05-21 16:01:31</time>
      </trkpt>
      <trkpt lat="42.36632" lon="2.83134">
        <ele>200</ele>
        <time>2022-05-21 16:01:32</time>
      </trkpt>
      <trkpt lat="42.36631" lon="2.83128">
        <ele>200</ele>
        <time>2022-05-21 16:01:33</time>
      </trkpt>
      <trkpt lat="42.3663" lon="2.83122">
        <ele>200</ele>
        <time>2022-05-21 16:01:34</time>
      </trkpt>
      <trkpt lat="42.36629" lon="2.83116">
        <ele>200</ele>
        <time>2022-05-21 16:01:35</time>
      </trkpt>
      <trkpt lat="42.36628" lon="2.8311">
        <ele>200.2</ele>
        <time>2022-05-21 16:01:36</time>
      </trkpt>
      <trkpt lat="42.36627" lon="2.83105">
        <ele>200.2</ele>
        <time>2022-05-21 16:01:37</time>
      </trkpt>
      <trkpt lat="42.36626" lon="2.831">
        <ele>200.2</ele>
        <time>2022-05-21 16:01:38</time>
      </trkpt>
      <trkpt lat="42.36626" lon="2.83095">
        <ele>200.2</ele>
        <time>2022-05-21 16:01:39</time>
      </trkpt>
      <trkpt lat="42.36624" lon="2.83087">
        <ele>200.2</ele>
        <time>2022-05-21 16:01:40</time>
      </trkpt>
      <trkpt lat="42.36623" lon="2.83081">
        <ele>200.2</ele>
        <time>2022-05-21 16:01:41</time>
      </trkpt>
      <trkpt lat="42.36623" lon="2.83075">
        <ele>200.4</ele>
        <time>2022-05-21 16:01:42</time>
      </trkpt>
      <trkpt lat="42.36622" lon="2.83069">
        <ele>200.4</ele>
        <time>2022-05-21 16:01:43</time>
      </trkpt>
      <trkpt lat="42.36621" lon="2.83063">
        <ele>200.4</ele>
        <time>2022-05-21 16:01:44</time>
      </trkpt>
      <trkpt lat="42.3662" lon="2.83057">
        <ele>200.4</ele>
        <time>2022-05-21 16:01:45</time>
      </trkpt>
      <trkpt lat="42.3662" lon="2.8305">
        <ele>200.4</ele>
        <time>2022-05-21 16:01:46</time>
      </trkpt>
      <trkpt lat="42.36619" lon="2.83044">
        <ele>200.4</ele>
        <time>2022-05-21 16:01:47</time>
      </trkpt>
      <trkpt lat="42.36618" lon="2.83038">
        <ele>200.4</ele>
        <time>2022-05-21 16:01:48</time>
      </trkpt>
      <trkpt lat="42.36618" lon="2.83032">
        <ele>200.6</ele>
        <time>2022-05-21 16:01:49</time>
      </trkpt>
      <trkpt lat="42.36617" lon="2.83026">
        <ele>200.6</ele>
        <time>2022-05-21 16:01:50</time>
      </trkpt>
      <trkpt lat="42.36617" lon="2.83019">
        <ele>200.6</ele>
        <time>2022-05-21 16:01:51</time>
      </trkpt>
      <trkpt lat="42.36617" lon="2.83013">
        <ele>200.6</ele>
        <time>2022-05-21 16:01:52</time>
      </trkpt>
      <trkpt lat="42.36617" lon="2.83007">
        <ele>200.8</ele>
        <time>2022-05-21 16:01:53</time>
      </trkpt>
      <trkpt lat="42.36617" lon="2.83">
        <ele>200.8</ele>
        <time>2022-05-21 16:01:54</time>
      </trkpt>
      <trkpt lat="42.36618" lon="2.82994">
        <ele>200.8</ele>
        <time>2022-05-21 16:01:55</time>
      </trkpt>
      <trkpt lat="42.36618" lon="2.82988">
        <ele>200.8</ele>
        <time>2022-05-21 16:01:56</time>
      </trkpt>
      <trkpt lat="42.3662" lon="2.82981">
        <ele>200.8</ele>
        <time>2022-05-21 16:01:57</time>
      </trkpt>
      <trkpt lat="42.36621" lon="2.82975">
        <ele>200.8</ele>
        <time>2022-05-21 16:01:58</time>
      </trkpt>
      <trkpt lat="42.36623" lon="2.82969">
        <ele>200.8</ele>
        <time>2022-05-21 16:01:59</time>
      </trkpt>
      <trkpt lat="42.36625" lon="2.82963">
        <ele>201</ele>
        <time>2022-05-21 16:02:00</time>
      </trkpt>
      <trkpt lat="42.36628" lon="2.82957">
        <ele>201</ele>
        <time>2022-05-21 16:02:01</time>
      </trkpt>
      <trkpt lat="42.3663" lon="2.82951">
        <ele>201</ele>
        <time>2022-05-21 16:02:02</time>
      </trkpt>
      <trkpt lat="42.36633" lon="2.82945">
        <ele>201</ele>
        <time>2022-05-21 16:02:03</time>
      </trkpt>
      <trkpt lat="42.36636" lon="2.82939">
        <ele>200.8</ele>
        <time>2022-05-21 16:02:04</time>
      </trkpt>
      <trkpt lat="42.36639" lon="2.82932">
        <ele>200.8</ele>
        <time>2022-05-21 16:02:05</time>
      </trkpt>
      <trkpt lat="42.36641" lon="2.82925">
        <ele>200.8</ele>
        <time>2022-05-21 16:02:06</time>
      </trkpt>
      <trkpt lat="42.36644" lon="2.82919">
        <ele>200.8</ele>
        <time>2022-05-21 16:02:07</time>
      </trkpt>
      <trkpt lat="42.36645" lon="2.82912">
        <ele>200.8</ele>
        <time>2022-05-21 16:02:08</time>
      </trkpt>
      <trkpt lat="42.36646" lon="2.82905">
        <ele>200.8</ele>
        <time>2022-05-21 16:02:09</time>
      </trkpt>
      <trkpt lat="42.36646" lon="2.82898">
        <ele>201</ele>
        <time>2022-05-21 16:02:10</time>
      </trkpt>
      <trkpt lat="42.36645" lon="2.82891">
        <ele>201</ele>
        <time>2022-05-21 16:02:11</time>
      </trkpt>
      <trkpt lat="42.36644" lon="2.82884">
        <ele>201</ele>
        <time>2022-05-21 16:02:12</time>
      </trkpt>
      <trkpt lat="42.36641" lon="2.82878">
        <ele>201.2</ele>
        <time>2022-05-21 16:02:13</time>
      </trkpt>
      <trkpt lat="42.36637" lon="2.82872">
        <ele>201.2</ele>
        <time>2022-05-21 16:02:14</time>
      </trkpt>
      <trkpt lat="42.36633" lon="2.82866">
        <ele>201.2</ele>
        <time>2022-05-21 16:02:15</time>
      </trkpt>
      <trkpt lat="42.3663" lon="2.82861">
        <ele>201.2</ele>
        <time>2022-05-21 16:02:16</time>
      </trkpt>
      <trkpt lat="42.36626" lon="2.82855">
        <ele>201.4</ele>
        <time>2022-05-21 16:02:17</time>
      </trkpt>
      <trkpt lat="42.36621" lon="2.8285">
        <ele>201.4</ele>
        <time>2022-05-21 16:02:18</time>
      </trkpt>
      <trkpt lat="42.36617" lon="2.82844">
        <ele>201.4</ele>
        <time>2022-05-21 16:02:19</time>
      </trkpt>
      <trkpt lat="42.36613" lon="2.82839">
        <ele>201.4</ele>
        <time>2022-05-21 16:02:20</time>
      </trkpt>
      <trkpt lat="42.36609" lon="2.82833">
        <ele>201.4</ele>
        <time>2022-05-21 16:02:21</time>
      </trkpt>
      <trkpt lat="42.36605" lon="2.82827">
        <ele>201.4</ele>
        <time>2022-05-21 16:02:22</time>
      </trkpt>
      <trkpt lat="42.36602" lon="2.82821">
        <ele>201.2</ele>
        <time>2022-05-21 16:02:23</time>
      </trkpt>
      <trkpt lat="42.36598" lon="2.82815">
        <ele>201.2</ele>
        <time>2022-05-21 16:02:24</time>
      </trkpt>
      <trkpt lat="42.36595" lon="2.82808">
        <ele>201.2</ele>
        <time>2022-05-21 16:02:25</time>
      </trkpt>
      <trkpt lat="42.36593" lon="2.828">
        <ele>201.2</ele>
        <time>2022-05-21 16:02:26</time>
      </trkpt>
      <trkpt lat="42.36592" lon="2.82792">
        <ele>201.2</ele>
        <time>2022-05-21 16:02:27</time>
      </trkpt>
      <trkpt lat="42.3659" lon="2.82785">
        <ele>201.2</ele>
        <time>2022-05-21 16:02:28</time>
      </trkpt>
      <trkpt lat="42.36589" lon="2.82777">
        <ele>201.2</ele>
        <time>2022-05-21 16:02:29</time>
      </trkpt>
      <trkpt lat="42.36589" lon="2.82769">
        <ele>201.2</ele>
        <time>2022-05-21 16:02:30</time>
      </trkpt>
      <trkpt lat="42.36589" lon="2.82761">
        <ele>201.4</ele>
        <time>2022-05-21 16:02:31</time>
      </trkpt>
      <trkpt lat="42.36589" lon="2.82753">
        <ele>201.4</ele>
        <time>2022-05-21 16:02:32</time>
      </trkpt>
      <trkpt lat="42.3659" lon="2.82745">
        <ele>201.4</ele>
        <time>2022-05-21 16:02:33</time>
      </trkpt>
      <trkpt lat="42.36592" lon="2.82738">
        <ele>201.4</ele>
        <time>2022-05-21 16:02:34</time>
      </trkpt>
      <trkpt lat="42.36594" lon="2.8273">
        <ele>201.6</ele>
        <time>2022-05-21 16:02:35</time>
      </trkpt>
      <trkpt lat="42.36596" lon="2.82723">
        <ele>201.6</ele>
        <time>2022-05-21 16:02:36</time>
      </trkpt>
      <trkpt lat="42.36599" lon="2.82716">
        <ele>201.8</ele>
        <time>2022-05-21 16:02:37</time>
      </trkpt>
      <trkpt lat="42.36601" lon="2.82709">
        <ele>201.8</ele>
        <time>2022-05-21 16:02:38</time>
      </trkpt>
      <trkpt lat="42.36604" lon="2.82703">
        <ele>201.8</ele>
        <time>2022-05-21 16:02:39</time>
      </trkpt>
      <trkpt lat="42.36608" lon="2.82697">
        <ele>201.8</ele>
        <time>2022-05-21 16:02:40</time>
      </trkpt>
      <trkpt lat="42.36611" lon="2.8269">
        <ele>202</ele>
        <time>2022-05-21 16:02:41</time>
      </trkpt>
      <trkpt lat="42.36615" lon="2.82684">
        <ele>202</ele>
        <time>2022-05-21 16:02:42</time>
      </trkpt>
      <trkpt lat="42.36618" lon="2.82678">
        <ele>202.2</ele>
        <time>2022-05-21 16:02:43</time>
      </trkpt>
      <trkpt lat="42.36622" lon="2.82672">
        <ele>202.2</ele>
        <time>2022-05-21 16:02:44</time>
      </trkpt>
      <trkpt lat="42.36625" lon="2.82666">
        <ele>202.2</ele>
        <time>2022-05-21 16:02:45</time>
      </trkpt>
      <trkpt lat="42.36628" lon="2.8266">
        <ele>202.4</ele>
        <time>2022-05-21 16:02:46</time>
      </trkpt>
      <trkpt lat="42.36632" lon="2.82654">
        <ele>202.4</ele>
        <time>2022-05-21 16:02:47</time>
      </trkpt>
      <trkpt lat="42.36635" lon="2.82648">
        <ele>202.4</ele>
        <time>2022-05-21 16:02:48</time>
      </trkpt>
      <trkpt lat="42.36639" lon="2.82643">
        <ele>202.4</ele>
        <time>2022-05-21 16:02:49</time>
      </trkpt>
      <trkpt lat="42.36643" lon="2.82638">
        <ele>202.4</ele>
        <time>2022-05-21 16:02:50</time>
      </trkpt>
      <trkpt lat="42.36647" lon="2.82634">
        <ele>202.4</ele>
        <time>2022-05-21 16:02:51</time>
      </trkpt>
      <trkpt lat="42.36651" lon="2.82629">
        <ele>202.4</ele>
        <time>2022-05-21 16:02:52</time>
      </trkpt>
      <trkpt lat="42.36655" lon="2.82625">
        <ele>202.4</ele>
        <time>2022-05-21 16:02:53</time>
      </trkpt>
      <trkpt lat="42.36659" lon="2.82621">
        <ele>202.6</ele>
        <time>2022-05-21 16:02:54</time>
      </trkpt>
      <trkpt lat="42.36663" lon="2.82618">
        <ele>202.6</ele>
        <time>2022-05-21 16:02:55</time>
      </trkpt>
      <trkpt lat="42.36667" lon="2.82615">
        <ele>202.6</ele>
        <time>2022-05-21 16:02:56</time>
      </trkpt>
      <trkpt lat="42.36671" lon="2.82611">
        <ele>202.6</ele>
        <time>2022-05-21 16:02:57</time>
      </trkpt>
      <trkpt lat="42.36675" lon="2.82608">
        <ele>202.8</ele>
        <time>2022-05-21 16:02:58</time>
      </trkpt>
      <trkpt lat="42.36679" lon="2.82604">
        <ele>202.8</ele>
        <time>2022-05-21 16:02:59</time>
      </trkpt>
      <trkpt lat="42.36684" lon="2.82601">
        <ele>202.8</ele>
        <time>2022-05-21 16:03:00</time>
      </trkpt>
      <trkpt lat="42.36688" lon="2.82597">
        <ele>202.8</ele>
        <time>2022-05-21 16:03:01</time>
      </trkpt>
      <trkpt lat="42.36693" lon="2.82594">
        <ele>203</ele>
        <time>2022-05-21 16:03:02</time>
      </trkpt>
      <trkpt lat="42.36697" lon="2.82591">
        <ele>203</ele>
        <time>2022-05-21 16:03:03</time>
      </trkpt>
      <trkpt lat="42.36702" lon="2.82587">
        <ele>203</ele>
        <time>2022-05-21 16:03:04</time>
      </trkpt>
      <trkpt lat="42.36707" lon="2.82584">
        <ele>203</ele>
        <time>2022-05-21 16:03:05</time>
      </trkpt>
      <trkpt lat="42.36711" lon="2.82581">
        <ele>203</ele>
        <time>2022-05-21 16:03:06</time>
      </trkpt>
      <trkpt lat="42.36716" lon="2.82578">
        <ele>203</ele>
        <time>2022-05-21 16:03:07</time>
      </trkpt>
      <trkpt lat="42.36721" lon="2.82574">
        <ele>203</ele>
        <time>2022-05-21 16:03:08</time>
      </trkpt>
      <trkpt lat="42.36726" lon="2.82571">
        <ele>203</ele>
        <time>2022-05-21 16:03:09</time>
      </trkpt>
      <trkpt lat="42.3673" lon="2.82567">
        <ele>203</ele>
        <time>2022-05-21 16:03:10</time>
      </trkpt>
      <trkpt lat="42.36735" lon="2.82563">
        <ele>203.2</ele>
        <time>2022-05-21 16:03:11</time>
      </trkpt>
      <trkpt lat="42.36739" lon="2.82559">
        <ele>203.2</ele>
        <time>2022-05-21 16:03:12</time>
      </trkpt>
      <trkpt lat="42.36744" lon="2.82555">
        <ele>203.2</ele>
        <time>2022-05-21 16:03:13</time>
      </trkpt>
      <trkpt lat="42.36748" lon="2.8255">
        <ele>203.4</ele>
        <time>2022-05-21 16:03:14</time>
      </trkpt>
      <trkpt lat="42.36752" lon="2.82546">
        <ele>203.4</ele>
        <time>2022-05-21 16:03:15</time>
      </trkpt>
      <trkpt lat="42.36756" lon="2.82541">
        <ele>203.4</ele>
        <time>2022-05-21 16:03:16</time>
      </trkpt>
      <trkpt lat="42.3676" lon="2.82535">
        <ele>203.4</ele>
        <time>2022-05-21 16:03:17</time>
      </trkpt>
      <trkpt lat="42.36764" lon="2.8253">
        <ele>203.4</ele>
        <time>2022-05-21 16:03:18</time>
      </trkpt>
      <trkpt lat="42.36767" lon="2.82525">
        <ele>203.4</ele>
        <time>2022-05-21 16:03:19</time>
      </trkpt>
      <trkpt lat="42.36771" lon="2.82519">
        <ele>203.6</ele>
        <time>2022-05-21 16:03:20</time>
      </trkpt>
      <trkpt lat="42.36774" lon="2.82514">
        <ele>203.6</ele>
        <time>2022-05-21 16:03:21</time>
      </trkpt>
      <trkpt lat="42.36777" lon="2.82508">
        <ele>203.8</ele>
        <time>2022-05-21 16:03:22</time>
      </trkpt>
      <trkpt lat="42.36779" lon="2.82503">
        <ele>204</ele>
        <time>2022-05-21 16:03:23</time>
      </trkpt>
      <trkpt lat="42.36781" lon="2.82497">
        <ele>204</ele>
        <time>2022-05-21 16:03:24</time>
      </trkpt>
      <trkpt lat="42.36783" lon="2.82491">
        <ele>204.2</ele>
        <time>2022-05-21 16:03:25</time>
      </trkpt>
      <trkpt lat="42.36785" lon="2.82485">
        <ele>204.4</ele>
        <time>2022-05-21 16:03:26</time>
      </trkpt>
      <trkpt lat="42.36787" lon="2.8248">
        <ele>204.6</ele>
        <time>2022-05-21 16:03:27</time>
      </trkpt>
      <trkpt lat="42.36789" lon="2.82474">
        <ele>204.8</ele>
        <time>2022-05-21 16:03:28</time>
      </trkpt>
      <trkpt lat="42.3679" lon="2.82468">
        <ele>205</ele>
        <time>2022-05-21 16:03:29</time>
      </trkpt>
      <trkpt lat="42.36791" lon="2.82463">
        <ele>205.2</ele>
        <time>2022-05-21 16:03:30</time>
      </trkpt>
      <trkpt lat="42.36793" lon="2.82457">
        <ele>205.4</ele>
        <time>2022-05-21 16:03:31</time>
      </trkpt>
      <trkpt lat="42.36794" lon="2.82452">
        <ele>205.6</ele>
        <time>2022-05-21 16:03:32</time>
      </trkpt>
      <trkpt lat="42.36795" lon="2.82446">
        <ele>205.8</ele>
        <time>2022-05-21 16:03:33</time>
      </trkpt>
      <trkpt lat="42.36796" lon="2.82441">
        <ele>206</ele>
        <time>2022-05-21 16:03:34</time>
      </trkpt>
      <trkpt lat="42.36797" lon="2.82436">
        <ele>206.2</ele>
        <time>2022-05-21 16:03:35</time>
      </trkpt>
      <trkpt lat="42.36797" lon="2.8243">
        <ele>206.4</ele>
        <time>2022-05-21 16:03:36</time>
      </trkpt>
      <trkpt lat="42.36798" lon="2.82425">
        <ele>206.6</ele>
        <time>2022-05-21 16:03:37</time>
      </trkpt>
      <trkpt lat="42.36799" lon="2.8242">
        <ele>206.8</ele>
        <time>2022-05-21 16:03:38</time>
      </trkpt>
      <trkpt lat="42.36799" lon="2.82415">
        <ele>207</ele>
        <time>2022-05-21 16:03:39</time>
      </trkpt>
      <trkpt lat="42.368" lon="2.82409">
        <ele>207.2</ele>
        <time>2022-05-21 16:03:40</time>
      </trkpt>
      <trkpt lat="42.36801" lon="2.82404">
        <ele>207.4</ele>
        <time>2022-05-21 16:03:41</time>
      </trkpt>
      <trkpt lat="42.36802" lon="2.82399">
        <ele>207.6</ele>
        <time>2022-05-21 16:03:42</time>
      </trkpt>
      <trkpt lat="42.36802" lon="2.82394">
        <ele>207.8</ele>
        <time>2022-05-21 16:03:43</time>
      </trkpt>
      <trkpt lat="42.36803" lon="2.82389">
        <ele>207.8</ele>
        <time>2022-05-21 16:03:44</time>
      </trkpt>
      <trkpt lat="42.36804" lon="2.82384">
        <ele>208</ele>
        <time>2022-05-21 16:03:45</time>
      </trkpt>
      <trkpt lat="42.36805" lon="2.82378">
        <ele>208.2</ele>
        <time>2022-05-21 16:03:46</time>
      </trkpt>
      <trkpt lat="42.36806" lon="2.82373">
        <ele>208.4</ele>
        <time>2022-05-21 16:03:47</time>
      </trkpt>
      <trkpt lat="42.36808" lon="2.82368">
        <ele>208.4</ele>
        <time>2022-05-21 16:03:48</time>
      </trkpt>
      <trkpt lat="42.3681" lon="2.82362">
        <ele>208.6</ele>
        <time>2022-05-21 16:03:49</time>
      </trkpt>
      <trkpt lat="42.36812" lon="2.82357">
        <ele>208.6</ele>
        <time>2022-05-21 16:03:50</time>
      </trkpt>
      <trkpt lat="42.36814" lon="2.82352">
        <ele>208.8</ele>
        <time>2022-05-21 16:03:51</time>
      </trkpt>
      <trkpt lat="42.36817" lon="2.82347">
        <ele>208.8</ele>
        <time>2022-05-21 16:03:52</time>
      </trkpt>
      <trkpt lat="42.36821" lon="2.82343">
        <ele>209</ele>
        <time>2022-05-21 16:03:53</time>
      </trkpt>
      <trkpt lat="42.36824" lon="2.82339">
        <ele>209</ele>
        <time>2022-05-21 16:03:54</time>
      </trkpt>
      <trkpt lat="42.36829" lon="2.82335">
        <ele>209</ele>
        <time>2022-05-21 16:03:55</time>
      </trkpt>
      <trkpt lat="42.36833" lon="2.82332">
        <ele>209</ele>
        <time>2022-05-21 16:03:56</time>
      </trkpt>
      <trkpt lat="42.36838" lon="2.82329">
        <ele>209</ele>
        <time>2022-05-21 16:03:57</time>
      </trkpt>
      <trkpt lat="42.36843" lon="2.82327">
        <ele>209</ele>
        <time>2022-05-21 16:03:58</time>
      </trkpt>
      <trkpt lat="42.36848" lon="2.82325">
        <ele>209.2</ele>
        <time>2022-05-21 16:03:59</time>
      </trkpt>
      <trkpt lat="42.36853" lon="2.82324">
        <ele>209.2</ele>
        <time>2022-05-21 16:04:00</time>
      </trkpt>
      <trkpt lat="42.36857" lon="2.82323">
        <ele>209.2</ele>
        <time>2022-05-21 16:04:01</time>
      </trkpt>
      <trkpt lat="42.36863" lon="2.82322">
        <ele>209.2</ele>
        <time>2022-05-21 16:04:02</time>
      </trkpt>
      <trkpt lat="42.36867" lon="2.8232">
        <ele>209.2</ele>
        <time>2022-05-21 16:04:03</time>
      </trkpt>
      <trkpt lat="42.36872" lon="2.82318">
        <ele>209.4</ele>
        <time>2022-05-21 16:04:04</time>
      </trkpt>
      <trkpt lat="42.36876" lon="2.82315">
        <ele>209.4</ele>
        <time>2022-05-21 16:04:05</time>
      </trkpt>
      <trkpt lat="42.3688" lon="2.8231">
        <ele>209.6</ele>
        <time>2022-05-21 16:04:06</time>
      </trkpt>
      <trkpt lat="42.36884" lon="2.82306">
        <ele>209.6</ele>
        <time>2022-05-21 16:04:07</time>
      </trkpt>
      <trkpt lat="42.36887" lon="2.823">
        <ele>209.6</ele>
        <time>2022-05-21 16:04:08</time>
      </trkpt>
      <trkpt lat="42.3689" lon="2.82295">
        <ele>209.8</ele>
        <time>2022-05-21 16:04:09</time>
      </trkpt>
      <trkpt lat="42.36892" lon="2.8229">
        <ele>210</ele>
        <time>2022-05-21 16:04:10</time>
      </trkpt>
      <trkpt lat="42.36893" lon="2.82284">
        <ele>210.2</ele>
        <time>2022-05-21 16:04:11</time>
      </trkpt>
      <trkpt lat="42.36895" lon="2.82278">
        <ele>210.4</ele>
        <time>2022-05-21 16:04:12</time>
      </trkpt>
      <trkpt lat="42.36896" lon="2.82273">
        <ele>210.6</ele>
        <time>2022-05-21 16:04:13</time>
      </trkpt>
      <trkpt lat="42.36896" lon="2.82267">
        <ele>210.8</ele>
        <time>2022-05-21 16:04:14</time>
      </trkpt>
      <trkpt lat="42.36897" lon="2.82261">
        <ele>211</ele>
        <time>2022-05-21 16:04:15</time>
      </trkpt>
      <trkpt lat="42.36897" lon="2.82256">
        <ele>211.2</ele>
        <time>2022-05-21 16:04:16</time>
      </trkpt>
      <trkpt lat="42.36897" lon="2.8225">
        <ele>211.4</ele>
        <time>2022-05-21 16:04:17</time>
      </trkpt>
      <trkpt lat="42.36897" lon="2.82245">
        <ele>211.4</ele>
        <time>2022-05-21 16:04:18</time>
      </trkpt>
      <trkpt lat="42.36896" lon="2.82239">
        <ele>211.6</ele>
        <time>2022-05-21 16:04:19</time>
      </trkpt>
      <trkpt lat="42.36896" lon="2.82234">
        <ele>211.8</ele>
        <time>2022-05-21 16:04:20</time>
      </trkpt>
      <trkpt lat="42.36894" lon="2.82229">
        <ele>212</ele>
        <time>2022-05-21 16:04:21</time>
      </trkpt>
      <trkpt lat="42.36893" lon="2.82223">
        <ele>212.2</ele>
        <time>2022-05-21 16:04:22</time>
      </trkpt>
      <trkpt lat="42.36891" lon="2.82219">
        <ele>212.4</ele>
        <time>2022-05-21 16:04:23</time>
      </trkpt>
      <trkpt lat="42.3689" lon="2.82214">
        <ele>212.6</ele>
        <time>2022-05-21 16:04:24</time>
      </trkpt>
      <trkpt lat="42.36888" lon="2.82209">
        <ele>212.8</ele>
        <time>2022-05-21 16:04:25</time>
      </trkpt>
      <trkpt lat="42.36887" lon="2.82204">
        <ele>213</ele>
        <time>2022-05-21 16:04:26</time>
      </trkpt>
      <trkpt lat="42.36886" lon="2.82199">
        <ele>213.2</ele>
        <time>2022-05-21 16:04:27</time>
      </trkpt>
      <trkpt lat="42.36885" lon="2.82194">
        <ele>213.2</ele>
        <time>2022-05-21 16:04:28</time>
      </trkpt>
      <trkpt lat="42.36884" lon="2.82189">
        <ele>213.4</ele>
        <time>2022-05-21 16:04:29</time>
      </trkpt>
      <trkpt lat="42.36883" lon="2.82184">
        <ele>213.6</ele>
        <time>2022-05-21 16:04:30</time>
      </trkpt>
      <trkpt lat="42.36883" lon="2.82179">
        <ele>213.8</ele>
        <time>2022-05-21 16:04:31</time>
      </trkpt>
      <trkpt lat="42.36883" lon="2.82174">
        <ele>214</ele>
        <time>2022-05-21 16:04:32</time>
      </trkpt>
      <trkpt lat="42.36883" lon="2.82169">
        <ele>214.4</ele>
        <time>2022-05-21 16:04:33</time>
      </trkpt>
      <trkpt lat="42.36883" lon="2.82164">
        <ele>214.6</ele>
        <time>2022-05-21 16:04:34</time>
      </trkpt>
      <trkpt lat="42.36884" lon="2.82159">
        <ele>214.8</ele>
        <time>2022-05-21 16:04:35</time>
      </trkpt>
      <trkpt lat="42.36884" lon="2.82155">
        <ele>215</ele>
        <time>2022-05-21 16:04:36</time>
      </trkpt>
      <trkpt lat="42.36886" lon="2.82151">
        <ele>215.2</ele>
        <time>2022-05-21 16:04:37</time>
      </trkpt>
      <trkpt lat="42.36887" lon="2.82147">
        <ele>215.4</ele>
        <time>2022-05-21 16:04:38</time>
      </trkpt>
      <trkpt lat="42.36888" lon="2.82143">
        <ele>215.6</ele>
        <time>2022-05-21 16:04:39</time>
      </trkpt>
      <trkpt lat="42.3689" lon="2.8214">
        <ele>215.8</ele>
        <time>2022-05-21 16:04:40</time>
      </trkpt>
      <trkpt lat="42.36892" lon="2.82136">
        <ele>216</ele>
        <time>2022-05-21 16:04:41</time>
      </trkpt>
      <trkpt lat="42.36893" lon="2.82133">
        <ele>216.2</ele>
        <time>2022-05-21 16:04:42</time>
      </trkpt>
      <trkpt lat="42.36895" lon="2.82129">
        <ele>216.2</ele>
        <time>2022-05-21 16:04:43</time>
      </trkpt>
      <trkpt lat="42.36896" lon="2.82126">
        <ele>216.4</ele>
        <time>2022-05-21 16:04:44</time>
      </trkpt>
      <trkpt lat="42.36898" lon="2.82123">
        <ele>216.6</ele>
        <time>2022-05-21 16:04:45</time>
      </trkpt>
      <trkpt lat="42.36899" lon="2.82119">
        <ele>216.8</ele>
        <time>2022-05-21 16:04:46</time>
      </trkpt>
      <trkpt lat="42.36901" lon="2.82116">
        <ele>217</ele>
        <time>2022-05-21 16:04:47</time>
      </trkpt>
      <trkpt lat="42.36902" lon="2.82113">
        <ele>217</ele>
        <time>2022-05-21 16:04:48</time>
      </trkpt>
      <trkpt lat="42.36904" lon="2.82109">
        <ele>217.2</ele>
        <time>2022-05-21 16:04:49</time>
      </trkpt>
      <trkpt lat="42.36906" lon="2.82106">
        <ele>217.4</ele>
        <time>2022-05-21 16:04:50</time>
      </trkpt>
      <trkpt lat="42.36907" lon="2.82102">
        <ele>217.6</ele>
        <time>2022-05-21 16:04:51</time>
      </trkpt>
      <trkpt lat="42.36909" lon="2.82099">
        <ele>217.8</ele>
        <time>2022-05-21 16:04:52</time>
      </trkpt>
      <trkpt lat="42.3691" lon="2.82096">
        <ele>217.8</ele>
        <time>2022-05-21 16:04:53</time>
      </trkpt>
      <trkpt lat="42.36912" lon="2.82093">
        <ele>218</ele>
        <time>2022-05-21 16:04:54</time>
      </trkpt>
      <trkpt lat="42.36914" lon="2.82089">
        <ele>218.2</ele>
        <time>2022-05-21 16:04:55</time>
      </trkpt>
      <trkpt lat="42.36915" lon="2.82086">
        <ele>218.4</ele>
        <time>2022-05-21 16:04:56</time>
      </trkpt>
      <trkpt lat="42.36917" lon="2.82082">
        <ele>218.4</ele>
        <time>2022-05-21 16:04:57</time>
      </trkpt>
      <trkpt lat="42.36918" lon="2.82079">
        <ele>218.6</ele>
        <time>2022-05-21 16:04:58</time>
      </trkpt>
      <trkpt lat="42.3692" lon="2.82076">
        <ele>218.8</ele>
        <time>2022-05-21 16:04:59</time>
      </trkpt>
      <trkpt lat="42.36922" lon="2.82073">
        <ele>218.8</ele>
        <time>2022-05-21 16:05:00</time>
      </trkpt>
      <trkpt lat="42.36923" lon="2.82069">
        <ele>219</ele>
        <time>2022-05-21 16:05:01</time>
      </trkpt>
      <trkpt lat="42.36925" lon="2.82066">
        <ele>219</ele>
        <time>2022-05-21 16:05:02</time>
      </trkpt>
      <trkpt lat="42.36927" lon="2.82063">
        <ele>219.2</ele>
        <time>2022-05-21 16:05:03</time>
      </trkpt>
      <trkpt lat="42.36929" lon="2.8206">
        <ele>219.4</ele>
        <time>2022-05-21 16:05:04</time>
      </trkpt>
      <trkpt lat="42.36931" lon="2.82057">
        <ele>219.6</ele>
        <time>2022-05-21 16:05:05</time>
      </trkpt>
      <trkpt lat="42.36933" lon="2.82054">
        <ele>219.8</ele>
        <time>2022-05-21 16:05:06</time>
      </trkpt>
      <trkpt lat="42.36934" lon="2.82052">
        <ele>219.8</ele>
        <time>2022-05-21 16:05:07</time>
      </trkpt>
      <trkpt lat="42.36936" lon="2.82049">
        <ele>220</ele>
        <time>2022-05-21 16:05:08</time>
      </trkpt>
      <trkpt lat="42.36939" lon="2.82047">
        <ele>220.2</ele>
        <time>2022-05-21 16:05:09</time>
      </trkpt>
      <trkpt lat="42.36941" lon="2.82044">
        <ele>220.4</ele>
        <time>2022-05-21 16:05:10</time>
      </trkpt>
      <trkpt lat="42.36944" lon="2.82042">
        <ele>220.6</ele>
        <time>2022-05-21 16:05:11</time>
      </trkpt>
      <trkpt lat="42.36946" lon="2.8204">
        <ele>220.6</ele>
        <time>2022-05-21 16:05:12</time>
      </trkpt>
      <trkpt lat="42.36948" lon="2.82038">
        <ele>220.8</ele>
        <time>2022-05-21 16:05:13</time>
      </trkpt>
      <trkpt lat="42.36951" lon="2.82036">
        <ele>221</ele>
        <time>2022-05-21 16:05:14</time>
      </trkpt>
      <trkpt lat="42.36953" lon="2.82034">
        <ele>221.2</ele>
        <time>2022-05-21 16:05:15</time>
      </trkpt>
      <trkpt lat="42.36956" lon="2.82032">
        <ele>221.2</ele>
        <time>2022-05-21 16:05:16</time>
      </trkpt>
      <trkpt lat="42.36958" lon="2.8203">
        <ele>221.4</ele>
        <time>2022-05-21 16:05:17</time>
      </trkpt>
      <trkpt lat="42.36961" lon="2.82028">
        <ele>221.6</ele>
        <time>2022-05-21 16:05:18</time>
      </trkpt>
      <trkpt lat="42.36963" lon="2.82026">
        <ele>221.8</ele>
        <time>2022-05-21 16:05:19</time>
      </trkpt>
      <trkpt lat="42.36965" lon="2.82024">
        <ele>221.8</ele>
        <time>2022-05-21 16:05:20</time>
      </trkpt>
      <trkpt lat="42.36967" lon="2.82021">
        <ele>222</ele>
        <time>2022-05-21 16:05:21</time>
      </trkpt>
      <trkpt lat="42.36969" lon="2.82019">
        <ele>222</ele>
        <time>2022-05-21 16:05:22</time>
      </trkpt>
      <trkpt lat="42.36972" lon="2.82016">
        <ele>222.2</ele>
        <time>2022-05-21 16:05:23</time>
      </trkpt>
      <trkpt lat="42.36974" lon="2.82013">
        <ele>222.2</ele>
        <time>2022-05-21 16:05:24</time>
      </trkpt>
      <trkpt lat="42.36976" lon="2.8201">
        <ele>222.4</ele>
        <time>2022-05-21 16:05:25</time>
      </trkpt>
      <trkpt lat="42.36978" lon="2.82007">
        <ele>222.4</ele>
        <time>2022-05-21 16:05:26</time>
      </trkpt>
      <trkpt lat="42.36979" lon="2.82004">
        <ele>222.6</ele>
        <time>2022-05-21 16:05:27</time>
      </trkpt>
      <trkpt lat="42.36981" lon="2.82001">
        <ele>222.6</ele>
        <time>2022-05-21 16:05:28</time>
      </trkpt>
      <trkpt lat="42.36983" lon="2.81998">
        <ele>222.8</ele>
        <time>2022-05-21 16:05:29</time>
      </trkpt>
      <trkpt lat="42.36985" lon="2.81995">
        <ele>222.8</ele>
        <time>2022-05-21 16:05:30</time>
      </trkpt>
      <trkpt lat="42.36987" lon="2.81992">
        <ele>223</ele>
        <time>2022-05-21 16:05:31</time>
      </trkpt>
      <trkpt lat="42.36989" lon="2.81989">
        <ele>223</ele>
        <time>2022-05-21 16:05:32</time>
      </trkpt>
      <trkpt lat="42.36991" lon="2.81986">
        <ele>223</ele>
        <time>2022-05-21 16:05:33</time>
      </trkpt>
      <trkpt lat="42.36992" lon="2.81983">
        <ele>223.2</ele>
        <time>2022-05-21 16:05:34</time>
      </trkpt>
      <trkpt lat="42.36994" lon="2.8198">
        <ele>223.2</ele>
        <time>2022-05-21 16:05:35</time>
      </trkpt>
      <trkpt lat="42.36996" lon="2.81977">
        <ele>223.4</ele>
        <time>2022-05-21 16:05:36</time>
      </trkpt>
      <trkpt lat="42.36998" lon="2.81975">
        <ele>223.4</ele>
        <time>2022-05-21 16:05:37</time>
      </trkpt>
      <trkpt lat="42.37001" lon="2.81972">
        <ele>223.4</ele>
        <time>2022-05-21 16:05:38</time>
      </trkpt>
      <trkpt lat="42.37003" lon="2.8197">
        <ele>223.6</ele>
        <time>2022-05-21 16:05:39</time>
      </trkpt>
      <trkpt lat="42.37006" lon="2.81968">
        <ele>223.6</ele>
        <time>2022-05-21 16:05:40</time>
      </trkpt>
      <trkpt lat="42.37009" lon="2.81966">
        <ele>223.8</ele>
        <time>2022-05-21 16:05:41</time>
      </trkpt>
      <trkpt lat="42.37011" lon="2.81965">
        <ele>224</ele>
        <time>2022-05-21 16:05:42</time>
      </trkpt>
      <trkpt lat="42.37014" lon="2.81964">
        <ele>224</ele>
        <time>2022-05-21 16:05:43</time>
      </trkpt>
      <trkpt lat="42.37017" lon="2.81963">
        <ele>224.2</ele>
        <time>2022-05-21 16:05:44</time>
      </trkpt>
      <trkpt lat="42.37019" lon="2.81963">
        <ele>224.4</ele>
        <time>2022-05-21 16:05:45</time>
      </trkpt>
      <trkpt lat="42.37022" lon="2.81962">
        <ele>224.4</ele>
        <time>2022-05-21 16:05:46</time>
      </trkpt>
      <trkpt lat="42.37025" lon="2.81962">
        <ele>224.6</ele>
        <time>2022-05-21 16:05:47</time>
      </trkpt>
      <trkpt lat="42.37028" lon="2.81961">
        <ele>224.8</ele>
        <time>2022-05-21 16:05:48</time>
      </trkpt>
      <trkpt lat="42.37031" lon="2.8196">
        <ele>224.8</ele>
        <time>2022-05-21 16:05:49</time>
      </trkpt>
      <trkpt lat="42.37034" lon="2.8196">
        <ele>225</ele>
        <time>2022-05-21 16:05:50</time>
      </trkpt>
      <trkpt lat="42.37038" lon="2.81959">
        <ele>225.2</ele>
        <time>2022-05-21 16:05:51</time>
      </trkpt>
      <trkpt lat="42.37041" lon="2.81959">
        <ele>225.2</ele>
        <time>2022-05-21 16:05:52</time>
      </trkpt>
      <trkpt lat="42.37044" lon="2.81958">
        <ele>225.4</ele>
        <time>2022-05-21 16:05:53</time>
      </trkpt>
      <trkpt lat="42.37047" lon="2.81957">
        <ele>225.4</ele>
        <time>2022-05-21 16:05:54</time>
      </trkpt>
      <trkpt lat="42.37051" lon="2.81957">
        <ele>225.6</ele>
        <time>2022-05-21 16:05:55</time>
      </trkpt>
      <trkpt lat="42.37054" lon="2.81956">
        <ele>225.6</ele>
        <time>2022-05-21 16:05:56</time>
      </trkpt>
      <trkpt lat="42.37057" lon="2.81955">
        <ele>225.8</ele>
        <time>2022-05-21 16:05:57</time>
      </trkpt>
      <trkpt lat="42.3706" lon="2.81954">
        <ele>225.8</ele>
        <time>2022-05-21 16:05:58</time>
      </trkpt>
      <trkpt lat="42.37063" lon="2.81953">
        <ele>226</ele>
        <time>2022-05-21 16:05:59</time>
      </trkpt>
      <trkpt lat="42.37066" lon="2.81952">
        <ele>226</ele>
        <time>2022-05-21 16:06:00</time>
      </trkpt>
      <trkpt lat="42.3707" lon="2.8195">
        <ele>226.2</ele>
        <time>2022-05-21 16:06:01</time>
      </trkpt>
      <trkpt lat="42.37073" lon="2.81948">
        <ele>226.4</ele>
        <time>2022-05-21 16:06:02</time>
      </trkpt>
      <trkpt lat="42.37076" lon="2.81945">
        <ele>226.4</ele>
        <time>2022-05-21 16:06:03</time>
      </trkpt>
      <trkpt lat="42.37079" lon="2.81942">
        <ele>226.6</ele>
        <time>2022-05-21 16:06:04</time>
      </trkpt>
      <trkpt lat="42.37082" lon="2.81939">
        <ele>226.6</ele>
        <time>2022-05-21 16:06:05</time>
      </trkpt>
      <trkpt lat="42.37084" lon="2.81935">
        <ele>226.8</ele>
        <time>2022-05-21 16:06:06</time>
      </trkpt>
      <trkpt lat="42.37087" lon="2.81931">
        <ele>227</ele>
        <time>2022-05-21 16:06:07</time>
      </trkpt>
      <trkpt lat="42.37088" lon="2.81927">
        <ele>227</ele>
        <time>2022-05-21 16:06:08</time>
      </trkpt>
      <trkpt lat="42.3709" lon="2.81923">
        <ele>227.2</ele>
        <time>2022-05-21 16:06:09</time>
      </trkpt>
      <trkpt lat="42.37092" lon="2.81919">
        <ele>227.4</ele>
        <time>2022-05-21 16:06:10</time>
      </trkpt>
      <trkpt lat="42.37093" lon="2.81914">
        <ele>227.4</ele>
        <time>2022-05-21 16:06:11</time>
      </trkpt>
      <trkpt lat="42.37094" lon="2.8191">
        <ele>227.6</ele>
        <time>2022-05-21 16:06:12</time>
      </trkpt>
      <trkpt lat="42.37096" lon="2.81905">
        <ele>227.6</ele>
        <time>2022-05-21 16:06:13</time>
      </trkpt>
      <trkpt lat="42.37097" lon="2.81901">
        <ele>227.8</ele>
        <time>2022-05-21 16:06:14</time>
      </trkpt>
      <trkpt lat="42.37098" lon="2.81897">
        <ele>227.8</ele>
        <time>2022-05-21 16:06:15</time>
      </trkpt>
      <trkpt lat="42.37099" lon="2.81893">
        <ele>228</ele>
        <time>2022-05-21 16:06:16</time>
      </trkpt>
      <trkpt lat="42.37101" lon="2.81889">
        <ele>228</ele>
        <time>2022-05-21 16:06:17</time>
      </trkpt>
      <trkpt lat="42.37103" lon="2.81884">
        <ele>228.2</ele>
        <time>2022-05-21 16:06:18</time>
      </trkpt>
      <trkpt lat="42.37105" lon="2.81881">
        <ele>228.2</ele>
        <time>2022-05-21 16:06:19</time>
      </trkpt>
      <trkpt lat="42.37107" lon="2.81877">
        <ele>228.4</ele>
        <time>2022-05-21 16:06:20</time>
      </trkpt>
      <trkpt lat="42.37109" lon="2.81874">
        <ele>228.4</ele>
        <time>2022-05-21 16:06:21</time>
      </trkpt>
      <trkpt lat="42.37112" lon="2.8187">
        <ele>228.6</ele>
        <time>2022-05-21 16:06:22</time>
      </trkpt>
      <trkpt lat="42.37115" lon="2.81866">
        <ele>228.8</ele>
        <time>2022-05-21 16:06:23</time>
      </trkpt>
      <trkpt lat="42.37119" lon="2.8186">
        <ele>228.8</ele>
        <time>2022-05-21 16:06:24</time>
      </trkpt>
      <trkpt lat="42.37122" lon="2.81856">
        <ele>229</ele>
        <time>2022-05-21 16:06:25</time>
      </trkpt>
      <trkpt lat="42.37125" lon="2.81853">
        <ele>229.2</ele>
        <time>2022-05-21 16:06:26</time>
      </trkpt>
      <trkpt lat="42.37127" lon="2.8185">
        <ele>229.2</ele>
        <time>2022-05-21 16:06:27</time>
      </trkpt>
      <trkpt lat="42.37129" lon="2.81848">
        <ele>229.4</ele>
        <time>2022-05-21 16:06:28</time>
      </trkpt>
      <trkpt lat="42.37131" lon="2.81845">
        <ele>229.4</ele>
        <time>2022-05-21 16:06:29</time>
      </trkpt>
      <trkpt lat="42.37133" lon="2.81842">
        <ele>229.6</ele>
        <time>2022-05-21 16:06:30</time>
      </trkpt>
      <trkpt lat="42.37136" lon="2.8184">
        <ele>229.8</ele>
        <time>2022-05-21 16:06:31</time>
      </trkpt>
      <trkpt lat="42.37138" lon="2.81837">
        <ele>229.8</ele>
        <time>2022-05-21 16:06:32</time>
      </trkpt>
      <trkpt lat="42.3714" lon="2.81834">
        <ele>230</ele>
        <time>2022-05-21 16:06:33</time>
      </trkpt>
      <trkpt lat="42.37142" lon="2.81831">
        <ele>230.2</ele>
        <time>2022-05-21 16:06:34</time>
      </trkpt>
      <trkpt lat="42.37145" lon="2.81827">
        <ele>230.2</ele>
        <time>2022-05-21 16:06:35</time>
      </trkpt>
      <trkpt lat="42.37146" lon="2.81824">
        <ele>230.4</ele>
        <time>2022-05-21 16:06:36</time>
      </trkpt>
      <trkpt lat="42.37147" lon="2.81821">
        <ele>230.6</ele>
        <time>2022-05-21 16:06:37</time>
      </trkpt>
      <trkpt lat="42.37148" lon="2.81817">
        <ele>230.8</ele>
        <time>2022-05-21 16:06:38</time>
      </trkpt>
      <trkpt lat="42.37149" lon="2.81813">
        <ele>230.8</ele>
        <time>2022-05-21 16:06:39</time>
      </trkpt>
      <trkpt lat="42.3715" lon="2.81809">
        <ele>231</ele>
        <time>2022-05-21 16:06:40</time>
      </trkpt>
      <trkpt lat="42.3715" lon="2.81805">
        <ele>231.2</ele>
        <time>2022-05-21 16:06:41</time>
      </trkpt>
      <trkpt lat="42.3715" lon="2.818">
        <ele>231.2</ele>
        <time>2022-05-21 16:06:42</time>
      </trkpt>
      <trkpt lat="42.37149" lon="2.81796">
        <ele>231.4</ele>
        <time>2022-05-21 16:06:43</time>
      </trkpt>
      <trkpt lat="42.37148" lon="2.81792">
        <ele>231.4</ele>
        <time>2022-05-21 16:06:44</time>
      </trkpt>
      <trkpt lat="42.37147" lon="2.81788">
        <ele>231.6</ele>
        <time>2022-05-21 16:06:45</time>
      </trkpt>
      <trkpt lat="42.37145" lon="2.81784">
        <ele>231.6</ele>
        <time>2022-05-21 16:06:46</time>
      </trkpt>
      <trkpt lat="42.37144" lon="2.81781">
        <ele>231.8</ele>
        <time>2022-05-21 16:06:47</time>
      </trkpt>
      <trkpt lat="42.37143" lon="2.81778">
        <ele>231.8</ele>
        <time>2022-05-21 16:06:48</time>
      </trkpt>
      <trkpt lat="42.37141" lon="2.81773">
        <ele>232</ele>
        <time>2022-05-21 16:06:49</time>
      </trkpt>
      <trkpt lat="42.37139" lon="2.81769">
        <ele>232</ele>
        <time>2022-05-21 16:06:50</time>
      </trkpt>
      <trkpt lat="42.37137" lon="2.81766">
        <ele>232.2</ele>
        <time>2022-05-21 16:06:51</time>
      </trkpt>
      <trkpt lat="42.37136" lon="2.81763">
        <ele>232.2</ele>
        <time>2022-05-21 16:06:52</time>
      </trkpt>
      <trkpt lat="42.37134" lon="2.81759">
        <ele>232.4</ele>
        <time>2022-05-21 16:06:53</time>
      </trkpt>
      <trkpt lat="42.37132" lon="2.81755">
        <ele>232.4</ele>
        <time>2022-05-21 16:06:54</time>
      </trkpt>
      <trkpt lat="42.37129" lon="2.81752">
        <ele>232.6</ele>
        <time>2022-05-21 16:06:55</time>
      </trkpt>
      <trkpt lat="42.37127" lon="2.81749">
        <ele>232.6</ele>
        <time>2022-05-21 16:06:56</time>
      </trkpt>
      <trkpt lat="42.37125" lon="2.81746">
        <ele>232.8</ele>
        <time>2022-05-21 16:06:57</time>
      </trkpt>
      <trkpt lat="42.37123" lon="2.81742">
        <ele>232.8</ele>
        <time>2022-05-21 16:06:58</time>
      </trkpt>
      <trkpt lat="42.37121" lon="2.81739">
        <ele>233</ele>
        <time>2022-05-21 16:06:59</time>
      </trkpt>
      <trkpt lat="42.37119" lon="2.81736">
        <ele>233</ele>
        <time>2022-05-21 16:07:00</time>
      </trkpt>
      <trkpt lat="42.37117" lon="2.81733">
        <ele>233.2</ele>
        <time>2022-05-21 16:07:01</time>
      </trkpt>
      <trkpt lat="42.37115" lon="2.8173">
        <ele>233.2</ele>
        <time>2022-05-21 16:07:02</time>
      </trkpt>
      <trkpt lat="42.37113" lon="2.81727">
        <ele>233.4</ele>
        <time>2022-05-21 16:07:03</time>
      </trkpt>
      <trkpt lat="42.37111" lon="2.81724">
        <ele>233.4</ele>
        <time>2022-05-21 16:07:04</time>
      </trkpt>
      <trkpt lat="42.37109" lon="2.81721">
        <ele>233.6</ele>
        <time>2022-05-21 16:07:05</time>
      </trkpt>
      <trkpt lat="42.37107" lon="2.81718">
        <ele>233.6</ele>
        <time>2022-05-21 16:07:06</time>
      </trkpt>
      <trkpt lat="42.37105" lon="2.81715">
        <ele>233.8</ele>
        <time>2022-05-21 16:07:07</time>
      </trkpt>
      <trkpt lat="42.37103" lon="2.81712">
        <ele>234</ele>
        <time>2022-05-21 16:07:08</time>
      </trkpt>
      <trkpt lat="42.37101" lon="2.81708">
        <ele>234</ele>
        <time>2022-05-21 16:07:09</time>
      </trkpt>
      <trkpt lat="42.37099" lon="2.81705">
        <ele>234.2</ele>
        <time>2022-05-21 16:07:10</time>
      </trkpt>
      <trkpt lat="42.37097" lon="2.81701">
        <ele>234.4</ele>
        <time>2022-05-21 16:07:11</time>
      </trkpt>
      <trkpt lat="42.37095" lon="2.81698">
        <ele>234.4</ele>
        <time>2022-05-21 16:07:12</time>
      </trkpt>
      <trkpt lat="42.37093" lon="2.81694">
        <ele>234.6</ele>
        <time>2022-05-21 16:07:13</time>
      </trkpt>
      <trkpt lat="42.37091" lon="2.81691">
        <ele>234.8</ele>
        <time>2022-05-21 16:07:14</time>
      </trkpt>
      <trkpt lat="42.3709" lon="2.81687">
        <ele>234.8</ele>
        <time>2022-05-21 16:07:15</time>
      </trkpt>
      <trkpt lat="42.37088" lon="2.81683">
        <ele>234.8</ele>
        <time>2022-05-21 16:07:16</time>
      </trkpt>
      <trkpt lat="42.37086" lon="2.8168">
        <ele>235</ele>
        <time>2022-05-21 16:07:17</time>
      </trkpt>
      <trkpt lat="42.37085" lon="2.81676">
        <ele>235</ele>
        <time>2022-05-21 16:07:18</time>
      </trkpt>
      <trkpt lat="42.37084" lon="2.81672">
        <ele>235.2</ele>
        <time>2022-05-21 16:07:19</time>
      </trkpt>
      <trkpt lat="42.37083" lon="2.81668">
        <ele>235.4</ele>
        <time>2022-05-21 16:07:20</time>
      </trkpt>
      <trkpt lat="42.37081" lon="2.81663">
        <ele>235.4</ele>
        <time>2022-05-21 16:07:21</time>
      </trkpt>
      <trkpt lat="42.3708" lon="2.81659">
        <ele>235.6</ele>
        <time>2022-05-21 16:07:22</time>
      </trkpt>
      <trkpt lat="42.37079" lon="2.81655">
        <ele>235.6</ele>
        <time>2022-05-21 16:07:23</time>
      </trkpt>
      <trkpt lat="42.37078" lon="2.81651">
        <ele>235.8</ele>
        <time>2022-05-21 16:07:24</time>
      </trkpt>
      <trkpt lat="42.37078" lon="2.81646">
        <ele>236</ele>
        <time>2022-05-21 16:07:25</time>
      </trkpt>
      <trkpt lat="42.37077" lon="2.81642">
        <ele>236.2</ele>
        <time>2022-05-21 16:07:26</time>
      </trkpt>
      <trkpt lat="42.37077" lon="2.81638">
        <ele>236.4</ele>
        <time>2022-05-21 16:07:27</time>
      </trkpt>
      <trkpt lat="42.37076" lon="2.81633">
        <ele>236.4</ele>
        <time>2022-05-21 16:07:28</time>
      </trkpt>
      <trkpt lat="42.37076" lon="2.81629">
        <ele>236.6</ele>
        <time>2022-05-21 16:07:29</time>
      </trkpt>
      <trkpt lat="42.37076" lon="2.81625">
        <ele>236.8</ele>
        <time>2022-05-21 16:07:30</time>
      </trkpt>
      <trkpt lat="42.37076" lon="2.8162">
        <ele>237</ele>
        <time>2022-05-21 16:07:31</time>
      </trkpt>
      <trkpt lat="42.37076" lon="2.81616">
        <ele>237.2</ele>
        <time>2022-05-21 16:07:32</time>
      </trkpt>
      <trkpt lat="42.37076" lon="2.81611">
        <ele>237.2</ele>
        <time>2022-05-21 16:07:33</time>
      </trkpt>
      <trkpt lat="42.37076" lon="2.81607">
        <ele>237.4</ele>
        <time>2022-05-21 16:07:34</time>
      </trkpt>
      <trkpt lat="42.37076" lon="2.81603">
        <ele>237.6</ele>
        <time>2022-05-21 16:07:35</time>
      </trkpt>
      <trkpt lat="42.37076" lon="2.81599">
        <ele>237.8</ele>
        <time>2022-05-21 16:07:36</time>
      </trkpt>
      <trkpt lat="42.37076" lon="2.81595">
        <ele>238</ele>
        <time>2022-05-21 16:07:37</time>
      </trkpt>
      <trkpt lat="42.37076" lon="2.81591">
        <ele>238.2</ele>
        <time>2022-05-21 16:07:38</time>
      </trkpt>
      <trkpt lat="42.37077" lon="2.81587">
        <ele>238.4</ele>
        <time>2022-05-21 16:07:39</time>
      </trkpt>
      <trkpt lat="42.37077" lon="2.81583">
        <ele>238.6</ele>
        <time>2022-05-21 16:07:40</time>
      </trkpt>
      <trkpt lat="42.37078" lon="2.81579">
        <ele>238.6</ele>
        <time>2022-05-21 16:07:41</time>
      </trkpt>
      <trkpt lat="42.37078" lon="2.81575">
        <ele>238.8</ele>
        <time>2022-05-21 16:07:42</time>
      </trkpt>
      <trkpt lat="42.37079" lon="2.8157">
        <ele>239</ele>
        <time>2022-05-21 16:07:43</time>
      </trkpt>
      <trkpt lat="42.3708" lon="2.81566">
        <ele>239.2</ele>
        <time>2022-05-21 16:07:44</time>
      </trkpt>
      <trkpt lat="42.37081" lon="2.81562">
        <ele>239.4</ele>
        <time>2022-05-21 16:07:45</time>
      </trkpt>
      <trkpt lat="42.37082" lon="2.81558">
        <ele>239.6</ele>
        <time>2022-05-21 16:07:46</time>
      </trkpt>
      <trkpt lat="42.37083" lon="2.81554">
        <ele>239.6</ele>
        <time>2022-05-21 16:07:47</time>
      </trkpt>
      <trkpt lat="42.37084" lon="2.8155">
        <ele>239.8</ele>
        <time>2022-05-21 16:07:48</time>
      </trkpt>
      <trkpt lat="42.37085" lon="2.81546">
        <ele>240</ele>
        <time>2022-05-21 16:07:49</time>
      </trkpt>
      <trkpt lat="42.37086" lon="2.81542">
        <ele>240.2</ele>
        <time>2022-05-21 16:07:50</time>
      </trkpt>
      <trkpt lat="42.37087" lon="2.81538">
        <ele>240.4</ele>
        <time>2022-05-21 16:07:51</time>
      </trkpt>
      <trkpt lat="42.37088" lon="2.81534">
        <ele>240.6</ele>
        <time>2022-05-21 16:07:52</time>
      </trkpt>
      <trkpt lat="42.37089" lon="2.8153">
        <ele>240.8</ele>
        <time>2022-05-21 16:07:53</time>
      </trkpt>
      <trkpt lat="42.3709" lon="2.81526">
        <ele>241</ele>
        <time>2022-05-21 16:07:54</time>
      </trkpt>
      <trkpt lat="42.3709" lon="2.81522">
        <ele>241.2</ele>
        <time>2022-05-21 16:07:55</time>
      </trkpt>
      <trkpt lat="42.37091" lon="2.81518">
        <ele>241.4</ele>
        <time>2022-05-21 16:07:56</time>
      </trkpt>
      <trkpt lat="42.37092" lon="2.81514">
        <ele>241.6</ele>
        <time>2022-05-21 16:07:57</time>
      </trkpt>
      <trkpt lat="42.37092" lon="2.8151">
        <ele>241.8</ele>
        <time>2022-05-21 16:07:58</time>
      </trkpt>
      <trkpt lat="42.37093" lon="2.81506">
        <ele>242</ele>
        <time>2022-05-21 16:07:59</time>
      </trkpt>
      <trkpt lat="42.37094" lon="2.81502">
        <ele>242</ele>
        <time>2022-05-21 16:08:00</time>
      </trkpt>
      <trkpt lat="42.37094" lon="2.81498">
        <ele>242.2</ele>
        <time>2022-05-21 16:08:01</time>
      </trkpt>
      <trkpt lat="42.37095" lon="2.81494">
        <ele>242.4</ele>
        <time>2022-05-21 16:08:02</time>
      </trkpt>
      <trkpt lat="42.37095" lon="2.8149">
        <ele>242.6</ele>
        <time>2022-05-21 16:08:03</time>
      </trkpt>
      <trkpt lat="42.37096" lon="2.81486">
        <ele>242.8</ele>
        <time>2022-05-21 16:08:04</time>
      </trkpt>
      <trkpt lat="42.37096" lon="2.81482">
        <ele>242.8</ele>
        <time>2022-05-21 16:08:05</time>
      </trkpt>
      <trkpt lat="42.37097" lon="2.81478">
        <ele>243</ele>
        <time>2022-05-21 16:08:06</time>
      </trkpt>
      <trkpt lat="42.37097" lon="2.81474">
        <ele>243.2</ele>
        <time>2022-05-21 16:08:07</time>
      </trkpt>
      <trkpt lat="42.37097" lon="2.81471">
        <ele>243.4</ele>
        <time>2022-05-21 16:08:08</time>
      </trkpt>
      <trkpt lat="42.37098" lon="2.81467">
        <ele>243.6</ele>
        <time>2022-05-21 16:08:09</time>
      </trkpt>
      <trkpt lat="42.37098" lon="2.81463">
        <ele>243.8</ele>
        <time>2022-05-21 16:08:10</time>
      </trkpt>
      <trkpt lat="42.37098" lon="2.81459">
        <ele>244</ele>
        <time>2022-05-21 16:08:11</time>
      </trkpt>
      <trkpt lat="42.37098" lon="2.81455">
        <ele>244.2</ele>
        <time>2022-05-21 16:08:12</time>
      </trkpt>
      <trkpt lat="42.37099" lon="2.81451">
        <ele>244.4</ele>
        <time>2022-05-21 16:08:13</time>
      </trkpt>
      <trkpt lat="42.37099" lon="2.81448">
        <ele>244.6</ele>
        <time>2022-05-21 16:08:14</time>
      </trkpt>
      <trkpt lat="42.371" lon="2.81444">
        <ele>244.6</ele>
        <time>2022-05-21 16:08:15</time>
      </trkpt>
      <trkpt lat="42.371" lon="2.8144">
        <ele>244.8</ele>
        <time>2022-05-21 16:08:16</time>
      </trkpt>
      <trkpt lat="42.371" lon="2.81436">
        <ele>245</ele>
        <time>2022-05-21 16:08:17</time>
      </trkpt>
      <trkpt lat="42.371" lon="2.81433">
        <ele>245</ele>
        <time>2022-05-21 16:08:18</time>
      </trkpt>
      <trkpt lat="42.371" lon="2.81429">
        <ele>245.2</ele>
        <time>2022-05-21 16:08:19</time>
      </trkpt>
      <trkpt lat="42.371" lon="2.81425">
        <ele>245.4</ele>
        <time>2022-05-21 16:08:20</time>
      </trkpt>
      <trkpt lat="42.371" lon="2.81421">
        <ele>245.4</ele>
        <time>2022-05-21 16:08:21</time>
      </trkpt>
      <trkpt lat="42.37101" lon="2.81417">
        <ele>245.6</ele>
        <time>2022-05-21 16:08:22</time>
      </trkpt>
      <trkpt lat="42.37101" lon="2.81413">
        <ele>245.8</ele>
        <time>2022-05-21 16:08:23</time>
      </trkpt>
      <trkpt lat="42.37101" lon="2.81409">
        <ele>245.8</ele>
        <time>2022-05-21 16:08:24</time>
      </trkpt>
      <trkpt lat="42.37101" lon="2.81405">
        <ele>246</ele>
        <time>2022-05-21 16:08:25</time>
      </trkpt>
      <trkpt lat="42.37101" lon="2.81401">
        <ele>246.2</ele>
        <time>2022-05-21 16:08:26</time>
      </trkpt>
      <trkpt lat="42.37101" lon="2.81397">
        <ele>246.4</ele>
        <time>2022-05-21 16:08:27</time>
      </trkpt>
      <trkpt lat="42.37102" lon="2.81393">
        <ele>246.6</ele>
        <time>2022-05-21 16:08:28</time>
      </trkpt>
      <trkpt lat="42.37102" lon="2.81389">
        <ele>246.6</ele>
        <time>2022-05-21 16:08:29</time>
      </trkpt>
      <trkpt lat="42.37101" lon="2.81385">
        <ele>246.8</ele>
        <time>2022-05-21 16:08:30</time>
      </trkpt>
      <trkpt lat="42.37102" lon="2.81381">
        <ele>247</ele>
        <time>2022-05-21 16:08:31</time>
      </trkpt>
      <trkpt lat="42.37102" lon="2.81376">
        <ele>247.2</ele>
        <time>2022-05-21 16:08:32</time>
      </trkpt>
      <trkpt lat="42.37102" lon="2.81372">
        <ele>247.4</ele>
        <time>2022-05-21 16:08:33</time>
      </trkpt>
      <trkpt lat="42.37103" lon="2.81368">
        <ele>247.6</ele>
        <time>2022-05-21 16:08:34</time>
      </trkpt>
      <trkpt lat="42.37103" lon="2.81364">
        <ele>247.8</ele>
        <time>2022-05-21 16:08:35</time>
      </trkpt>
      <trkpt lat="42.37103" lon="2.81359">
        <ele>247.8</ele>
        <time>2022-05-21 16:08:36</time>
      </trkpt>
      <trkpt lat="42.37103" lon="2.81355">
        <ele>248</ele>
        <time>2022-05-21 16:08:37</time>
      </trkpt>
      <trkpt lat="42.37104" lon="2.8135">
        <ele>248.2</ele>
        <time>2022-05-21 16:08:38</time>
      </trkpt>
      <trkpt lat="42.37105" lon="2.81346">
        <ele>248.4</ele>
        <time>2022-05-21 16:08:39</time>
      </trkpt>
      <trkpt lat="42.37105" lon="2.81342">
        <ele>248.6</ele>
        <time>2022-05-21 16:08:40</time>
      </trkpt>
      <trkpt lat="42.37105" lon="2.81338">
        <ele>248.8</ele>
        <time>2022-05-21 16:08:41</time>
      </trkpt>
      <trkpt lat="42.37105" lon="2.81334">
        <ele>249</ele>
        <time>2022-05-21 16:08:42</time>
      </trkpt>
      <trkpt lat="42.37106" lon="2.8133">
        <ele>249</ele>
        <time>2022-05-21 16:08:43</time>
      </trkpt>
      <trkpt lat="42.37106" lon="2.81325">
        <ele>249.2</ele>
        <time>2022-05-21 16:08:44</time>
      </trkpt>
      <trkpt lat="42.37107" lon="2.81321">
        <ele>249.4</ele>
        <time>2022-05-21 16:08:45</time>
      </trkpt>
      <trkpt lat="42.37107" lon="2.81317">
        <ele>249.6</ele>
        <time>2022-05-21 16:08:46</time>
      </trkpt>
      <trkpt lat="42.37107" lon="2.81313">
        <ele>249.8</ele>
        <time>2022-05-21 16:08:47</time>
      </trkpt>
      <trkpt lat="42.37107" lon="2.81309">
        <ele>250</ele>
        <time>2022-05-21 16:08:48</time>
      </trkpt>
      <trkpt lat="42.37107" lon="2.81305">
        <ele>250.2</ele>
        <time>2022-05-21 16:08:49</time>
      </trkpt>
      <trkpt lat="42.37107" lon="2.81301">
        <ele>250.4</ele>
        <time>2022-05-21 16:08:50</time>
      </trkpt>
      <trkpt lat="42.37108" lon="2.81296">
        <ele>250.4</ele>
        <time>2022-05-21 16:08:51</time>
      </trkpt>
      <trkpt lat="42.37108" lon="2.81292">
        <ele>250.8</ele>
        <time>2022-05-21 16:08:52</time>
      </trkpt>
      <trkpt lat="42.37108" lon="2.81288">
        <ele>251</ele>
        <time>2022-05-21 16:08:53</time>
      </trkpt>
      <trkpt lat="42.37108" lon="2.81284">
        <ele>251</ele>
        <time>2022-05-21 16:08:54</time>
      </trkpt>
      <trkpt lat="42.37108" lon="2.8128">
        <ele>251.2</ele>
        <time>2022-05-21 16:08:55</time>
      </trkpt>
      <trkpt lat="42.37108" lon="2.81276">
        <ele>251.4</ele>
        <time>2022-05-21 16:08:56</time>
      </trkpt>
      <trkpt lat="42.37108" lon="2.81272">
        <ele>251.6</ele>
        <time>2022-05-21 16:08:57</time>
      </trkpt>
      <trkpt lat="42.37108" lon="2.81268">
        <ele>251.8</ele>
        <time>2022-05-21 16:08:58</time>
      </trkpt>
      <trkpt lat="42.37108" lon="2.81264">
        <ele>252</ele>
        <time>2022-05-21 16:08:59</time>
      </trkpt>
      <trkpt lat="42.37109" lon="2.81261">
        <ele>252.2</ele>
        <time>2022-05-21 16:09:00</time>
      </trkpt>
      <trkpt lat="42.37109" lon="2.81257">
        <ele>252.2</ele>
        <time>2022-05-21 16:09:01</time>
      </trkpt>
      <trkpt lat="42.37109" lon="2.81253">
        <ele>252.4</ele>
        <time>2022-05-21 16:09:02</time>
      </trkpt>
      <trkpt lat="42.37109" lon="2.81249">
        <ele>252.6</ele>
        <time>2022-05-21 16:09:03</time>
      </trkpt>
      <trkpt lat="42.37109" lon="2.81245">
        <ele>252.8</ele>
        <time>2022-05-21 16:09:04</time>
      </trkpt>
      <trkpt lat="42.37109" lon="2.81241">
        <ele>253</ele>
        <time>2022-05-21 16:09:05</time>
      </trkpt>
      <trkpt lat="42.37109" lon="2.81238">
        <ele>253.2</ele>
        <time>2022-05-21 16:09:06</time>
      </trkpt>
      <trkpt lat="42.37109" lon="2.81234">
        <ele>253.4</ele>
        <time>2022-05-21 16:09:07</time>
      </trkpt>
      <trkpt lat="42.37109" lon="2.8123">
        <ele>253.4</ele>
        <time>2022-05-21 16:09:08</time>
      </trkpt>
      <trkpt lat="42.37109" lon="2.81226">
        <ele>253.6</ele>
        <time>2022-05-21 16:09:09</time>
      </trkpt>
      <trkpt lat="42.37109" lon="2.81223">
        <ele>253.8</ele>
        <time>2022-05-21 16:09:10</time>
      </trkpt>
      <trkpt lat="42.37109" lon="2.81219">
        <ele>254</ele>
        <time>2022-05-21 16:09:11</time>
      </trkpt>
      <trkpt lat="42.37109" lon="2.81215">
        <ele>254.2</ele>
        <time>2022-05-21 16:09:12</time>
      </trkpt>
      <trkpt lat="42.37109" lon="2.81211">
        <ele>254.2</ele>
        <time>2022-05-21 16:09:13</time>
      </trkpt>
      <trkpt lat="42.37109" lon="2.81208">
        <ele>254.4</ele>
        <time>2022-05-21 16:09:14</time>
      </trkpt>
      <trkpt lat="42.37109" lon="2.81204">
        <ele>254.6</ele>
        <time>2022-05-21 16:09:15</time>
      </trkpt>
      <trkpt lat="42.37109" lon="2.812">
        <ele>254.8</ele>
        <time>2022-05-21 16:09:16</time>
      </trkpt>
      <trkpt lat="42.37109" lon="2.81197">
        <ele>255</ele>
        <time>2022-05-21 16:09:17</time>
      </trkpt>
      <trkpt lat="42.37109" lon="2.81193">
        <ele>255.2</ele>
        <time>2022-05-21 16:09:18</time>
      </trkpt>
      <trkpt lat="42.37109" lon="2.81189">
        <ele>255.4</ele>
        <time>2022-05-21 16:09:19</time>
      </trkpt>
      <trkpt lat="42.37109" lon="2.81186">
        <ele>255.6</ele>
        <time>2022-05-21 16:09:20</time>
      </trkpt>
      <trkpt lat="42.37109" lon="2.81182">
        <ele>255.8</ele>
        <time>2022-05-21 16:09:21</time>
      </trkpt>
      <trkpt lat="42.37109" lon="2.81178">
        <ele>255.8</ele>
        <time>2022-05-21 16:09:22</time>
      </trkpt>
      <trkpt lat="42.37109" lon="2.81174">
        <ele>256</ele>
        <time>2022-05-21 16:09:23</time>
      </trkpt>
      <trkpt lat="42.37109" lon="2.81171">
        <ele>256.2</ele>
        <time>2022-05-21 16:09:24</time>
      </trkpt>
      <trkpt lat="42.3711" lon="2.81167">
        <ele>256.4</ele>
        <time>2022-05-21 16:09:25</time>
      </trkpt>
      <trkpt lat="42.3711" lon="2.81163">
        <ele>256.6</ele>
        <time>2022-05-21 16:09:26</time>
      </trkpt>
      <trkpt lat="42.37111" lon="2.81159">
        <ele>256.6</ele>
        <time>2022-05-21 16:09:27</time>
      </trkpt>
      <trkpt lat="42.37111" lon="2.81155">
        <ele>256.8</ele>
        <time>2022-05-21 16:09:28</time>
      </trkpt>
      <trkpt lat="42.37112" lon="2.81151">
        <ele>256.8</ele>
        <time>2022-05-21 16:09:29</time>
      </trkpt>
      <trkpt lat="42.37113" lon="2.81147">
        <ele>257</ele>
        <time>2022-05-21 16:09:30</time>
      </trkpt>
      <trkpt lat="42.37115" lon="2.81143">
        <ele>257.2</ele>
        <time>2022-05-21 16:09:31</time>
      </trkpt>
      <trkpt lat="42.37116" lon="2.8114">
        <ele>257.4</ele>
        <time>2022-05-21 16:09:32</time>
      </trkpt>
      <trkpt lat="42.37117" lon="2.81136">
        <ele>257.4</ele>
        <time>2022-05-21 16:09:33</time>
      </trkpt>
      <trkpt lat="42.37118" lon="2.81132">
        <ele>257.6</ele>
        <time>2022-05-21 16:09:34</time>
      </trkpt>
      <trkpt lat="42.37119" lon="2.81128">
        <ele>257.8</ele>
        <time>2022-05-21 16:09:35</time>
      </trkpt>
      <trkpt lat="42.3712" lon="2.81124">
        <ele>257.8</ele>
        <time>2022-05-21 16:09:36</time>
      </trkpt>
      <trkpt lat="42.37121" lon="2.8112">
        <ele>258</ele>
        <time>2022-05-21 16:09:37</time>
      </trkpt>
      <trkpt lat="42.37122" lon="2.81117">
        <ele>258.2</ele>
        <time>2022-05-21 16:09:38</time>
      </trkpt>
      <trkpt lat="42.37123" lon="2.81113">
        <ele>258.2</ele>
        <time>2022-05-21 16:09:39</time>
      </trkpt>
      <trkpt lat="42.37124" lon="2.81109">
        <ele>258.4</ele>
        <time>2022-05-21 16:09:40</time>
      </trkpt>
      <trkpt lat="42.37125" lon="2.81104">
        <ele>258.6</ele>
        <time>2022-05-21 16:09:41</time>
      </trkpt>
      <trkpt lat="42.37126" lon="2.811">
        <ele>258.6</ele>
        <time>2022-05-21 16:09:42</time>
      </trkpt>
      <trkpt lat="42.37127" lon="2.81096">
        <ele>258.8</ele>
        <time>2022-05-21 16:09:43</time>
      </trkpt>
      <trkpt lat="42.37128" lon="2.81091">
        <ele>258.8</ele>
        <time>2022-05-21 16:09:44</time>
      </trkpt>
      <trkpt lat="42.37129" lon="2.81086">
        <ele>259</ele>
        <time>2022-05-21 16:09:45</time>
      </trkpt>
      <trkpt lat="42.37131" lon="2.81082">
        <ele>259</ele>
        <time>2022-05-21 16:09:46</time>
      </trkpt>
      <trkpt lat="42.37132" lon="2.81078">
        <ele>259.2</ele>
        <time>2022-05-21 16:09:47</time>
      </trkpt>
      <trkpt lat="42.37134" lon="2.81074">
        <ele>259.4</ele>
        <time>2022-05-21 16:09:48</time>
      </trkpt>
      <trkpt lat="42.37136" lon="2.8107">
        <ele>259.4</ele>
        <time>2022-05-21 16:09:49</time>
      </trkpt>
      <trkpt lat="42.37137" lon="2.81066">
        <ele>259.6</ele>
        <time>2022-05-21 16:09:50</time>
      </trkpt>
      <trkpt lat="42.37139" lon="2.81062">
        <ele>259.8</ele>
        <time>2022-05-21 16:09:51</time>
      </trkpt>
      <trkpt lat="42.37141" lon="2.81059">
        <ele>260</ele>
        <time>2022-05-21 16:09:52</time>
      </trkpt>
      <trkpt lat="42.37143" lon="2.81055">
        <ele>260</ele>
        <time>2022-05-21 16:09:53</time>
      </trkpt>
      <trkpt lat="42.37145" lon="2.81052">
        <ele>260.2</ele>
        <time>2022-05-21 16:09:54</time>
      </trkpt>
      <trkpt lat="42.37146" lon="2.81048">
        <ele>260.4</ele>
        <time>2022-05-21 16:09:55</time>
      </trkpt>
      <trkpt lat="42.37148" lon="2.81045">
        <ele>260.6</ele>
        <time>2022-05-21 16:09:56</time>
      </trkpt>
      <trkpt lat="42.3715" lon="2.81041">
        <ele>260.8</ele>
        <time>2022-05-21 16:09:57</time>
      </trkpt>
      <trkpt lat="42.37151" lon="2.81037">
        <ele>260.8</ele>
        <time>2022-05-21 16:09:58</time>
      </trkpt>
      <trkpt lat="42.37153" lon="2.81033">
        <ele>261</ele>
        <time>2022-05-21 16:09:59</time>
      </trkpt>
      <trkpt lat="42.37154" lon="2.81029">
        <ele>261.2</ele>
        <time>2022-05-21 16:10:00</time>
      </trkpt>
      <trkpt lat="42.37155" lon="2.81025">
        <ele>261.2</ele>
        <time>2022-05-21 16:10:01</time>
      </trkpt>
      <trkpt lat="42.37156" lon="2.81021">
        <ele>261.4</ele>
        <time>2022-05-21 16:10:02</time>
      </trkpt>
      <trkpt lat="42.37157" lon="2.81016">
        <ele>261.6</ele>
        <time>2022-05-21 16:10:03</time>
      </trkpt>
      <trkpt lat="42.37158" lon="2.81012">
        <ele>261.8</ele>
        <time>2022-05-21 16:10:04</time>
      </trkpt>
      <trkpt lat="42.37159" lon="2.81007">
        <ele>261.8</ele>
        <time>2022-05-21 16:10:05</time>
      </trkpt>
      <trkpt lat="42.3716" lon="2.81003">
        <ele>262</ele>
        <time>2022-05-21 16:10:06</time>
      </trkpt>
      <trkpt lat="42.37161" lon="2.80999">
        <ele>262</ele>
        <time>2022-05-21 16:10:07</time>
      </trkpt>
      <trkpt lat="42.37162" lon="2.80995">
        <ele>262.2</ele>
        <time>2022-05-21 16:10:08</time>
      </trkpt>
      <trkpt lat="42.37163" lon="2.80991">
        <ele>262.4</ele>
        <time>2022-05-21 16:10:09</time>
      </trkpt>
      <trkpt lat="42.37163" lon="2.80986">
        <ele>262.4</ele>
        <time>2022-05-21 16:10:10</time>
      </trkpt>
      <trkpt lat="42.37164" lon="2.80983">
        <ele>262.6</ele>
        <time>2022-05-21 16:10:11</time>
      </trkpt>
      <trkpt lat="42.37165" lon="2.80979">
        <ele>262.6</ele>
        <time>2022-05-21 16:10:12</time>
      </trkpt>
      <trkpt lat="42.37166" lon="2.80975">
        <ele>262.8</ele>
        <time>2022-05-21 16:10:13</time>
      </trkpt>
      <trkpt lat="42.37167" lon="2.80971">
        <ele>263</ele>
        <time>2022-05-21 16:10:14</time>
      </trkpt>
      <trkpt lat="42.37169" lon="2.80967">
        <ele>263</ele>
        <time>2022-05-21 16:10:15</time>
      </trkpt>
      <trkpt lat="42.3717" lon="2.80963">
        <ele>263.2</ele>
        <time>2022-05-21 16:10:16</time>
      </trkpt>
      <trkpt lat="42.37172" lon="2.80959">
        <ele>263.4</ele>
        <time>2022-05-21 16:10:17</time>
      </trkpt>
      <trkpt lat="42.37173" lon="2.80955">
        <ele>263.4</ele>
        <time>2022-05-21 16:10:18</time>
      </trkpt>
      <trkpt lat="42.37175" lon="2.80951">
        <ele>263.6</ele>
        <time>2022-05-21 16:10:19</time>
      </trkpt>
      <trkpt lat="42.37176" lon="2.80948">
        <ele>263.8</ele>
        <time>2022-05-21 16:10:20</time>
      </trkpt>
      <trkpt lat="42.37178" lon="2.80944">
        <ele>264</ele>
        <time>2022-05-21 16:10:21</time>
      </trkpt>
      <trkpt lat="42.3718" lon="2.8094">
        <ele>264</ele>
        <time>2022-05-21 16:10:22</time>
      </trkpt>
      <trkpt lat="42.37181" lon="2.80937">
        <ele>264.2</ele>
        <time>2022-05-21 16:10:23</time>
      </trkpt>
      <trkpt lat="42.37183" lon="2.80933">
        <ele>264.2</ele>
        <time>2022-05-21 16:10:24</time>
      </trkpt>
      <trkpt lat="42.37185" lon="2.80929">
        <ele>264.4</ele>
        <time>2022-05-21 16:10:25</time>
      </trkpt>
      <trkpt lat="42.37186" lon="2.80926">
        <ele>264.6</ele>
        <time>2022-05-21 16:10:26</time>
      </trkpt>
      <trkpt lat="42.37188" lon="2.80922">
        <ele>264.8</ele>
        <time>2022-05-21 16:10:27</time>
      </trkpt>
      <trkpt lat="42.3719" lon="2.80918">
        <ele>264.8</ele>
        <time>2022-05-21 16:10:28</time>
      </trkpt>
      <trkpt lat="42.37192" lon="2.80915">
        <ele>265</ele>
        <time>2022-05-21 16:10:29</time>
      </trkpt>
      <trkpt lat="42.37193" lon="2.80911">
        <ele>265.2</ele>
        <time>2022-05-21 16:10:30</time>
      </trkpt>
      <trkpt lat="42.37195" lon="2.80907">
        <ele>265.2</ele>
        <time>2022-05-21 16:10:31</time>
      </trkpt>
      <trkpt lat="42.37197" lon="2.80903">
        <ele>265.4</ele>
        <time>2022-05-21 16:10:32</time>
      </trkpt>
      <trkpt lat="42.37199" lon="2.809">
        <ele>265.6</ele>
        <time>2022-05-21 16:10:33</time>
      </trkpt>
      <trkpt lat="42.372" lon="2.80896">
        <ele>265.6</ele>
        <time>2022-05-21 16:10:34</time>
      </trkpt>
      <trkpt lat="42.37202" lon="2.80892">
        <ele>265.8</ele>
        <time>2022-05-21 16:10:35</time>
      </trkpt>
      <trkpt lat="42.37204" lon="2.80888">
        <ele>266</ele>
        <time>2022-05-21 16:10:36</time>
      </trkpt>
      <trkpt lat="42.37206" lon="2.80885">
        <ele>266</ele>
        <time>2022-05-21 16:10:37</time>
      </trkpt>
      <trkpt lat="42.37207" lon="2.80881">
        <ele>266.2</ele>
        <time>2022-05-21 16:10:38</time>
      </trkpt>
      <trkpt lat="42.37209" lon="2.80877">
        <ele>266.4</ele>
        <time>2022-05-21 16:10:39</time>
      </trkpt>
      <trkpt lat="42.37211" lon="2.80873">
        <ele>266.4</ele>
        <time>2022-05-21 16:10:40</time>
      </trkpt>
      <trkpt lat="42.37213" lon="2.80869">
        <ele>266.6</ele>
        <time>2022-05-21 16:10:41</time>
      </trkpt>
      <trkpt lat="42.37214" lon="2.80866">
        <ele>266.8</ele>
        <time>2022-05-21 16:10:42</time>
      </trkpt>
      <trkpt lat="42.37216" lon="2.80862">
        <ele>267</ele>
        <time>2022-05-21 16:10:43</time>
      </trkpt>
      <trkpt lat="42.37218" lon="2.80858">
        <ele>267</ele>
        <time>2022-05-21 16:10:44</time>
      </trkpt>
      <trkpt lat="42.3722" lon="2.80854">
        <ele>267.2</ele>
        <time>2022-05-21 16:10:45</time>
      </trkpt>
      <trkpt lat="42.37221" lon="2.80851">
        <ele>267.2</ele>
        <time>2022-05-21 16:10:46</time>
      </trkpt>
      <trkpt lat="42.37223" lon="2.80847">
        <ele>267.4</ele>
        <time>2022-05-21 16:10:47</time>
      </trkpt>
      <trkpt lat="42.37225" lon="2.80844">
        <ele>267.6</ele>
        <time>2022-05-21 16:10:48</time>
      </trkpt>
      <trkpt lat="42.37226" lon="2.8084">
        <ele>267.6</ele>
        <time>2022-05-21 16:10:49</time>
      </trkpt>
      <trkpt lat="42.37228" lon="2.80837">
        <ele>267.8</ele>
        <time>2022-05-21 16:10:50</time>
      </trkpt>
      <trkpt lat="42.3723" lon="2.80833">
        <ele>268</ele>
        <time>2022-05-21 16:10:51</time>
      </trkpt>
      <trkpt lat="42.37231" lon="2.80829">
        <ele>268</ele>
        <time>2022-05-21 16:10:52</time>
      </trkpt>
      <trkpt lat="42.37233" lon="2.80825">
        <ele>268.2</ele>
        <time>2022-05-21 16:10:53</time>
      </trkpt>
      <trkpt lat="42.37235" lon="2.80822">
        <ele>268.4</ele>
        <time>2022-05-21 16:10:54</time>
      </trkpt>
      <trkpt lat="42.37236" lon="2.80818">
        <ele>268.4</ele>
        <time>2022-05-21 16:10:55</time>
      </trkpt>
      <trkpt lat="42.37238" lon="2.80815">
        <ele>268.6</ele>
        <time>2022-05-21 16:10:56</time>
      </trkpt>
      <trkpt lat="42.37239" lon="2.80811">
        <ele>268.8</ele>
        <time>2022-05-21 16:10:57</time>
      </trkpt>
      <trkpt lat="42.37241" lon="2.80807">
        <ele>268.8</ele>
        <time>2022-05-21 16:10:58</time>
      </trkpt>
      <trkpt lat="42.37243" lon="2.80803">
        <ele>269</ele>
        <time>2022-05-21 16:10:59</time>
      </trkpt>
      <trkpt lat="42.37245" lon="2.80799">
        <ele>269.2</ele>
        <time>2022-05-21 16:11:00</time>
      </trkpt>
      <trkpt lat="42.37247" lon="2.80795">
        <ele>269.2</ele>
        <time>2022-05-21 16:11:01</time>
      </trkpt>
      <trkpt lat="42.37249" lon="2.80791">
        <ele>269.4</ele>
        <time>2022-05-21 16:11:02</time>
      </trkpt>
      <trkpt lat="42.37251" lon="2.80787">
        <ele>269.4</ele>
        <time>2022-05-21 16:11:03</time>
      </trkpt>
      <trkpt lat="42.37252" lon="2.80783">
        <ele>269.6</ele>
        <time>2022-05-21 16:11:04</time>
      </trkpt>
      <trkpt lat="42.37254" lon="2.80779">
        <ele>269.6</ele>
        <time>2022-05-21 16:11:05</time>
      </trkpt>
      <trkpt lat="42.37255" lon="2.80774">
        <ele>269.6</ele>
        <time>2022-05-21 16:11:06</time>
      </trkpt>
      <trkpt lat="42.37257" lon="2.8077">
        <ele>269.6</ele>
        <time>2022-05-21 16:11:07</time>
      </trkpt>
      <trkpt lat="42.37259" lon="2.80765">
        <ele>269.6</ele>
        <time>2022-05-21 16:11:08</time>
      </trkpt>
      <trkpt lat="42.37262" lon="2.80759">
        <ele>269.4</ele>
        <time>2022-05-21 16:11:09</time>
      </trkpt>
      <trkpt lat="42.37264" lon="2.80754">
        <ele>269.2</ele>
        <time>2022-05-21 16:11:10</time>
      </trkpt>
      <trkpt lat="42.37266" lon="2.80748">
        <ele>269.2</ele>
        <time>2022-05-21 16:11:11</time>
      </trkpt>
      <trkpt lat="42.37269" lon="2.80741">
        <ele>269</ele>
        <time>2022-05-21 16:11:12</time>
      </trkpt>
      <trkpt lat="42.37272" lon="2.80735">
        <ele>268.8</ele>
        <time>2022-05-21 16:11:13</time>
      </trkpt>
      <trkpt lat="42.37275" lon="2.80727">
        <ele>268.4</ele>
        <time>2022-05-21 16:11:14</time>
      </trkpt>
      <trkpt lat="42.37279" lon="2.8072">
        <ele>268.2</ele>
        <time>2022-05-21 16:11:15</time>
      </trkpt>
      <trkpt lat="42.37282" lon="2.80713">
        <ele>268</ele>
        <time>2022-05-21 16:11:16</time>
      </trkpt>
      <trkpt lat="42.37285" lon="2.80705">
        <ele>267.6</ele>
        <time>2022-05-21 16:11:17</time>
      </trkpt>
      <trkpt lat="42.3729" lon="2.80696">
        <ele>267.4</ele>
        <time>2022-05-21 16:11:18</time>
      </trkpt>
      <trkpt lat="42.37294" lon="2.80688">
        <ele>267.2</ele>
        <time>2022-05-21 16:11:19</time>
      </trkpt>
      <trkpt lat="42.37298" lon="2.80679">
        <ele>266.8</ele>
        <time>2022-05-21 16:11:20</time>
      </trkpt>
      <trkpt lat="42.37302" lon="2.80671">
        <ele>266.6</ele>
        <time>2022-05-21 16:11:21</time>
      </trkpt>
      <trkpt lat="42.37306" lon="2.80662">
        <ele>266.2</ele>
        <time>2022-05-21 16:11:22</time>
      </trkpt>
      <trkpt lat="42.3731" lon="2.80653">
        <ele>266</ele>
        <time>2022-05-21 16:11:23</time>
      </trkpt>
      <trkpt lat="42.37314" lon="2.80644">
        <ele>265.6</ele>
        <time>2022-05-21 16:11:24</time>
      </trkpt>
      <trkpt lat="42.37318" lon="2.80635">
        <ele>265.2</ele>
        <time>2022-05-21 16:11:25</time>
      </trkpt>
      <trkpt lat="42.37322" lon="2.80625">
        <ele>265</ele>
        <time>2022-05-21 16:11:26</time>
      </trkpt>
      <trkpt lat="42.37325" lon="2.80615">
        <ele>264.6</ele>
        <time>2022-05-21 16:11:27</time>
      </trkpt>
      <trkpt lat="42.37327" lon="2.80604">
        <ele>264.2</ele>
        <time>2022-05-21 16:11:28</time>
      </trkpt>
      <trkpt lat="42.37328" lon="2.80593">
        <ele>263.8</ele>
        <time>2022-05-21 16:11:29</time>
      </trkpt>
      <trkpt lat="42.37328" lon="2.80581">
        <ele>263.4</ele>
        <time>2022-05-21 16:11:30</time>
      </trkpt>
      <trkpt lat="42.37327" lon="2.8057">
        <ele>263</ele>
        <time>2022-05-21 16:11:31</time>
      </trkpt>
      <trkpt lat="42.37326" lon="2.80558">
        <ele>262.6</ele>
        <time>2022-05-21 16:11:32</time>
      </trkpt>
      <trkpt lat="42.37324" lon="2.80546">
        <ele>262.2</ele>
        <time>2022-05-21 16:11:33</time>
      </trkpt>
      <trkpt lat="42.37323" lon="2.80534">
        <ele>261.8</ele>
        <time>2022-05-21 16:11:34</time>
      </trkpt>
      <trkpt lat="42.37322" lon="2.80521">
        <ele>261.4</ele>
        <time>2022-05-21 16:11:35</time>
      </trkpt>
      <trkpt lat="42.37322" lon="2.80508">
        <ele>261</ele>
        <time>2022-05-21 16:11:36</time>
      </trkpt>
      <trkpt lat="42.37322" lon="2.80496">
        <ele>260.8</ele>
        <time>2022-05-21 16:11:37</time>
      </trkpt>
      <trkpt lat="42.37325" lon="2.80483">
        <ele>260.2</ele>
        <time>2022-05-21 16:11:38</time>
      </trkpt>
      <trkpt lat="42.37329" lon="2.80471">
        <ele>259.8</ele>
        <time>2022-05-21 16:11:39</time>
      </trkpt>
      <trkpt lat="42.37333" lon="2.8046">
        <ele>259.4</ele>
        <time>2022-05-21 16:11:40</time>
      </trkpt>
      <trkpt lat="42.37339" lon="2.8045">
        <ele>259</ele>
        <time>2022-05-21 16:11:41</time>
      </trkpt>
      <trkpt lat="42.37345" lon="2.80438">
        <ele>258.4</ele>
        <time>2022-05-21 16:11:42</time>
      </trkpt>
      <trkpt lat="42.3735" lon="2.80425">
        <ele>258</ele>
        <time>2022-05-21 16:11:43</time>
      </trkpt>
      <trkpt lat="42.37355" lon="2.80411">
        <ele>257.6</ele>
        <time>2022-05-21 16:11:44</time>
      </trkpt>
      <trkpt lat="42.3736" lon="2.80398">
        <ele>257.2</ele>
        <time>2022-05-21 16:11:45</time>
      </trkpt>
      <trkpt lat="42.37361" lon="2.80384">
        <ele>256.6</ele>
        <time>2022-05-21 16:11:46</time>
      </trkpt>
      <trkpt lat="42.37358" lon="2.80369">
        <ele>256.2</ele>
        <time>2022-05-21 16:11:47</time>
      </trkpt>
      <trkpt lat="42.37354" lon="2.80357">
        <ele>255.6</ele>
        <time>2022-05-21 16:11:48</time>
      </trkpt>
      <trkpt lat="42.37347" lon="2.80346">
        <ele>255</ele>
        <time>2022-05-21 16:11:49</time>
      </trkpt>
      <trkpt lat="42.37338" lon="2.80336">
        <ele>254.6</ele>
        <time>2022-05-21 16:11:50</time>
      </trkpt>
      <trkpt lat="42.37328" lon="2.80329">
        <ele>254</ele>
        <time>2022-05-21 16:11:51</time>
      </trkpt>
      <trkpt lat="42.37318" lon="2.80322">
        <ele>253.6</ele>
        <time>2022-05-21 16:11:52</time>
      </trkpt>
      <trkpt lat="42.37309" lon="2.80314">
        <ele>253</ele>
        <time>2022-05-21 16:11:53</time>
      </trkpt>
      <trkpt lat="42.37301" lon="2.80306">
        <ele>252.8</ele>
        <time>2022-05-21 16:11:54</time>
      </trkpt>
      <trkpt lat="42.37294" lon="2.80297">
        <ele>252.4</ele>
        <time>2022-05-21 16:11:55</time>
      </trkpt>
      <trkpt lat="42.37287" lon="2.80287">
        <ele>252.2</ele>
        <time>2022-05-21 16:11:56</time>
      </trkpt>
      <trkpt lat="42.37282" lon="2.80277">
        <ele>251.8</ele>
        <time>2022-05-21 16:11:57</time>
      </trkpt>
      <trkpt lat="42.37278" lon="2.80264">
        <ele>251.6</ele>
        <time>2022-05-21 16:11:58</time>
      </trkpt>
      <trkpt lat="42.37275" lon="2.80251">
        <ele>251.6</ele>
        <time>2022-05-21 16:11:59</time>
      </trkpt>
      <trkpt lat="42.37274" lon="2.80239">
        <ele>251.4</ele>
        <time>2022-05-21 16:12:00</time>
      </trkpt>
      <trkpt lat="42.37274" lon="2.80226">
        <ele>251.4</ele>
        <time>2022-05-21 16:12:01</time>
      </trkpt>
      <trkpt lat="42.37276" lon="2.80212">
        <ele>251.4</ele>
        <time>2022-05-21 16:12:02</time>
      </trkpt>
      <trkpt lat="42.37278" lon="2.802">
        <ele>251.2</ele>
        <time>2022-05-21 16:12:03</time>
      </trkpt>
      <trkpt lat="42.37281" lon="2.80189">
        <ele>251.2</ele>
        <time>2022-05-21 16:12:04</time>
      </trkpt>
      <trkpt lat="42.37284" lon="2.80178">
        <ele>251.2</ele>
        <time>2022-05-21 16:12:05</time>
      </trkpt>
      <trkpt lat="42.37288" lon="2.80165">
        <ele>251.2</ele>
        <time>2022-05-21 16:12:06</time>
      </trkpt>
      <trkpt lat="42.37291" lon="2.80155">
        <ele>251</ele>
        <time>2022-05-21 16:12:07</time>
      </trkpt>
      <trkpt lat="42.37294" lon="2.80144">
        <ele>251</ele>
        <time>2022-05-21 16:12:08</time>
      </trkpt>
      <trkpt lat="42.37298" lon="2.80133">
        <ele>251</ele>
        <time>2022-05-21 16:12:09</time>
      </trkpt>
      <trkpt lat="42.37301" lon="2.80122">
        <ele>250.8</ele>
        <time>2022-05-21 16:12:10</time>
      </trkpt>
      <trkpt lat="42.37305" lon="2.80112">
        <ele>250.8</ele>
        <time>2022-05-21 16:12:11</time>
      </trkpt>
      <trkpt lat="42.3731" lon="2.80102">
        <ele>250.6</ele>
        <time>2022-05-21 16:12:12</time>
      </trkpt>
      <trkpt lat="42.37316" lon="2.80093">
        <ele>250.6</ele>
        <time>2022-05-21 16:12:13</time>
      </trkpt>
      <trkpt lat="42.37322" lon="2.80086">
        <ele>250.6</ele>
        <time>2022-05-21 16:12:14</time>
      </trkpt>
      <trkpt lat="42.37329" lon="2.80079">
        <ele>250.4</ele>
        <time>2022-05-21 16:12:15</time>
      </trkpt>
      <trkpt lat="42.37336" lon="2.80074">
        <ele>250.4</ele>
        <time>2022-05-21 16:12:16</time>
      </trkpt>
      <trkpt lat="42.37344" lon="2.80071">
        <ele>250.4</ele>
        <time>2022-05-21 16:12:17</time>
      </trkpt>
      <trkpt lat="42.37352" lon="2.8007">
        <ele>250.4</ele>
        <time>2022-05-21 16:12:18</time>
      </trkpt>
      <trkpt lat="42.3736" lon="2.80072">
        <ele>250.4</ele>
        <time>2022-05-21 16:12:19</time>
      </trkpt>
      <trkpt lat="42.37368" lon="2.80075">
        <ele>250.2</ele>
        <time>2022-05-21 16:12:20</time>
      </trkpt>
      <trkpt lat="42.37375" lon="2.80076">
        <ele>250.2</ele>
        <time>2022-05-21 16:12:21</time>
      </trkpt>
      <trkpt lat="42.37383" lon="2.80073">
        <ele>250.2</ele>
        <time>2022-05-21 16:12:22</time>
      </trkpt>
      <trkpt lat="42.3739" lon="2.80068">
        <ele>250</ele>
        <time>2022-05-21 16:12:23</time>
      </trkpt>
      <trkpt lat="42.37396" lon="2.80061">
        <ele>250</ele>
        <time>2022-05-21 16:12:24</time>
      </trkpt>
      <trkpt lat="42.37403" lon="2.80054">
        <ele>249.8</ele>
        <time>2022-05-21 16:12:25</time>
      </trkpt>
      <trkpt lat="42.3741" lon="2.80049">
        <ele>249.8</ele>
        <time>2022-05-21 16:12:26</time>
      </trkpt>
      <trkpt lat="42.37417" lon="2.80045">
        <ele>249.8</ele>
        <time>2022-05-21 16:12:27</time>
      </trkpt>
      <trkpt lat="42.37425" lon="2.80043">
        <ele>249.8</ele>
        <time>2022-05-21 16:12:28</time>
      </trkpt>
      <trkpt lat="42.37433" lon="2.80041">
        <ele>249.8</ele>
        <time>2022-05-21 16:12:29</time>
      </trkpt>
      <trkpt lat="42.3744" lon="2.80038">
        <ele>249.8</ele>
        <time>2022-05-21 16:12:30</time>
      </trkpt>
      <trkpt lat="42.37447" lon="2.80033">
        <ele>249.6</ele>
        <time>2022-05-21 16:12:31</time>
      </trkpt>
      <trkpt lat="42.37452" lon="2.80027">
        <ele>249.6</ele>
        <time>2022-05-21 16:12:32</time>
      </trkpt>
      <trkpt lat="42.37457" lon="2.80019">
        <ele>249.6</ele>
        <time>2022-05-21 16:12:33</time>
      </trkpt>
      <trkpt lat="42.37461" lon="2.80011">
        <ele>249.6</ele>
        <time>2022-05-21 16:12:34</time>
      </trkpt>
      <trkpt lat="42.37464" lon="2.80001">
        <ele>249.6</ele>
        <time>2022-05-21 16:12:35</time>
      </trkpt>
      <trkpt lat="42.37466" lon="2.79992">
        <ele>249.4</ele>
        <time>2022-05-21 16:12:36</time>
      </trkpt>
      <trkpt lat="42.37468" lon="2.79982">
        <ele>249.4</ele>
        <time>2022-05-21 16:12:37</time>
      </trkpt>
      <trkpt lat="42.3747" lon="2.79972">
        <ele>249.2</ele>
        <time>2022-05-21 16:12:38</time>
      </trkpt>
      <trkpt lat="42.37473" lon="2.79962">
        <ele>249</ele>
        <time>2022-05-21 16:12:39</time>
      </trkpt>
      <trkpt lat="42.37477" lon="2.79954">
        <ele>249</ele>
        <time>2022-05-21 16:12:40</time>
      </trkpt>
      <trkpt lat="42.37481" lon="2.79946">
        <ele>248.8</ele>
        <time>2022-05-21 16:12:41</time>
      </trkpt>
      <trkpt lat="42.37486" lon="2.79939">
        <ele>248.8</ele>
        <time>2022-05-21 16:12:42</time>
      </trkpt>
      <trkpt lat="42.37491" lon="2.79931">
        <ele>248.8</ele>
        <time>2022-05-21 16:12:43</time>
      </trkpt>
      <trkpt lat="42.37495" lon="2.79923">
        <ele>248.8</ele>
        <time>2022-05-21 16:12:44</time>
      </trkpt>
      <trkpt lat="42.37499" lon="2.79915">
        <ele>248.8</ele>
        <time>2022-05-21 16:12:45</time>
      </trkpt>
      <trkpt lat="42.37502" lon="2.79907">
        <ele>248.8</ele>
        <time>2022-05-21 16:12:46</time>
      </trkpt>
      <trkpt lat="42.37506" lon="2.79899">
        <ele>248.8</ele>
        <time>2022-05-21 16:12:47</time>
      </trkpt>
      <trkpt lat="42.3751" lon="2.79891">
        <ele>248.8</ele>
        <time>2022-05-21 16:12:48</time>
      </trkpt>
      <trkpt lat="42.37515" lon="2.79884">
        <ele>248.6</ele>
        <time>2022-05-21 16:12:49</time>
      </trkpt>
      <trkpt lat="42.37521" lon="2.79878">
        <ele>248.8</ele>
        <time>2022-05-21 16:12:50</time>
      </trkpt>
      <trkpt lat="42.37527" lon="2.79873">
        <ele>248.8</ele>
        <time>2022-05-21 16:12:51</time>
      </trkpt>
      <trkpt lat="42.37533" lon="2.79869">
        <ele>248.8</ele>
        <time>2022-05-21 16:12:52</time>
      </trkpt>
      <trkpt lat="42.37539" lon="2.79866">
        <ele>248.8</ele>
        <time>2022-05-21 16:12:53</time>
      </trkpt>
      <trkpt lat="42.37546" lon="2.79864">
        <ele>248.8</ele>
        <time>2022-05-21 16:12:54</time>
      </trkpt>
      <trkpt lat="42.37554" lon="2.79861">
        <ele>248.8</ele>
        <time>2022-05-21 16:12:55</time>
      </trkpt>
      <trkpt lat="42.37561" lon="2.79858">
        <ele>248.8</ele>
        <time>2022-05-21 16:12:56</time>
      </trkpt>
      <trkpt lat="42.37567" lon="2.79853">
        <ele>248.8</ele>
        <time>2022-05-21 16:12:57</time>
      </trkpt>
      <trkpt lat="42.37573" lon="2.79847">
        <ele>248.6</ele>
        <time>2022-05-21 16:12:58</time>
      </trkpt>
      <trkpt lat="42.37579" lon="2.7984">
        <ele>248.6</ele>
        <time>2022-05-21 16:12:59</time>
      </trkpt>
      <trkpt lat="42.37585" lon="2.79834">
        <ele>248.6</ele>
        <time>2022-05-21 16:13:00</time>
      </trkpt>
      <trkpt lat="42.37591" lon="2.79827">
        <ele>248.4</ele>
        <time>2022-05-21 16:13:01</time>
      </trkpt>
      <trkpt lat="42.37596" lon="2.7982">
        <ele>248.4</ele>
        <time>2022-05-21 16:13:02</time>
      </trkpt>
      <trkpt lat="42.37601" lon="2.79813">
        <ele>248.2</ele>
        <time>2022-05-21 16:13:03</time>
      </trkpt>
      <trkpt lat="42.37604" lon="2.79804">
        <ele>248.2</ele>
        <time>2022-05-21 16:13:04</time>
      </trkpt>
      <trkpt lat="42.37607" lon="2.79795">
        <ele>248</ele>
        <time>2022-05-21 16:13:05</time>
      </trkpt>
      <trkpt lat="42.37608" lon="2.79786">
        <ele>248</ele>
        <time>2022-05-21 16:13:06</time>
      </trkpt>
      <trkpt lat="42.3761" lon="2.79776">
        <ele>247.8</ele>
        <time>2022-05-21 16:13:07</time>
      </trkpt>
      <trkpt lat="42.37613" lon="2.79767">
        <ele>247.8</ele>
        <time>2022-05-21 16:13:08</time>
      </trkpt>
      <trkpt lat="42.37617" lon="2.79759">
        <ele>247.6</ele>
        <time>2022-05-21 16:13:09</time>
      </trkpt>
      <trkpt lat="42.37622" lon="2.79751">
        <ele>247.4</ele>
        <time>2022-05-21 16:13:10</time>
      </trkpt>
      <trkpt lat="42.37627" lon="2.79743">
        <ele>247.4</ele>
        <time>2022-05-21 16:13:11</time>
      </trkpt>
      <trkpt lat="42.37632" lon="2.79736">
        <ele>247.4</ele>
        <time>2022-05-21 16:13:12</time>
      </trkpt>
      <trkpt lat="42.37637" lon="2.79728">
        <ele>247.2</ele>
        <time>2022-05-21 16:13:13</time>
      </trkpt>
      <trkpt lat="42.37642" lon="2.7972">
        <ele>247.2</ele>
        <time>2022-05-21 16:13:14</time>
      </trkpt>
      <trkpt lat="42.37646" lon="2.7971">
        <ele>247</ele>
        <time>2022-05-21 16:13:15</time>
      </trkpt>
      <trkpt lat="42.3765" lon="2.79701">
        <ele>246.8</ele>
        <time>2022-05-21 16:13:16</time>
      </trkpt>
      <trkpt lat="42.37654" lon="2.79692">
        <ele>246.8</ele>
        <time>2022-05-21 16:13:17</time>
      </trkpt>
      <trkpt lat="42.37657" lon="2.79682">
        <ele>246.6</ele>
        <time>2022-05-21 16:13:18</time>
      </trkpt>
      <trkpt lat="42.3766" lon="2.79672">
        <ele>246.4</ele>
        <time>2022-05-21 16:13:19</time>
      </trkpt>
      <trkpt lat="42.37663" lon="2.79662">
        <ele>246.2</ele>
        <time>2022-05-21 16:13:20</time>
      </trkpt>
      <trkpt lat="42.37667" lon="2.79654">
        <ele>246.2</ele>
        <time>2022-05-21 16:13:21</time>
      </trkpt>
      <trkpt lat="42.37671" lon="2.79645">
        <ele>246</ele>
        <time>2022-05-21 16:13:22</time>
      </trkpt>
      <trkpt lat="42.37676" lon="2.79637">
        <ele>245.8</ele>
        <time>2022-05-21 16:13:23</time>
      </trkpt>
      <trkpt lat="42.37681" lon="2.79629">
        <ele>245.8</ele>
        <time>2022-05-21 16:13:24</time>
      </trkpt>
      <trkpt lat="42.37686" lon="2.79621">
        <ele>245.8</ele>
        <time>2022-05-21 16:13:25</time>
      </trkpt>
      <trkpt lat="42.3769" lon="2.79613">
        <ele>245.8</ele>
        <time>2022-05-21 16:13:26</time>
      </trkpt>
      <trkpt lat="42.37694" lon="2.79604">
        <ele>245.6</ele>
        <time>2022-05-21 16:13:27</time>
      </trkpt>
      <trkpt lat="42.37697" lon="2.79595">
        <ele>245.6</ele>
        <time>2022-05-21 16:13:28</time>
      </trkpt>
      <trkpt lat="42.37699" lon="2.79586">
        <ele>245.4</ele>
        <time>2022-05-21 16:13:29</time>
      </trkpt>
      <trkpt lat="42.37701" lon="2.79576">
        <ele>245.2</ele>
        <time>2022-05-21 16:13:30</time>
      </trkpt>
      <trkpt lat="42.37702" lon="2.79566">
        <ele>245</ele>
        <time>2022-05-21 16:13:31</time>
      </trkpt>
      <trkpt lat="42.37704" lon="2.79557">
        <ele>244.8</ele>
        <time>2022-05-21 16:13:32</time>
      </trkpt>
      <trkpt lat="42.37707" lon="2.79547">
        <ele>244.6</ele>
        <time>2022-05-21 16:13:33</time>
      </trkpt>
      <trkpt lat="42.37712" lon="2.79539">
        <ele>244.4</ele>
        <time>2022-05-21 16:13:34</time>
      </trkpt>
      <trkpt lat="42.37718" lon="2.79533">
        <ele>244.4</ele>
        <time>2022-05-21 16:13:35</time>
      </trkpt>
      <trkpt lat="42.37725" lon="2.79529">
        <ele>244.4</ele>
        <time>2022-05-21 16:13:36</time>
      </trkpt>
      <trkpt lat="42.37732" lon="2.79525">
        <ele>244.4</ele>
        <time>2022-05-21 16:13:37</time>
      </trkpt>
      <trkpt lat="42.37739" lon="2.79521">
        <ele>244.4</ele>
        <time>2022-05-21 16:13:38</time>
      </trkpt>
      <trkpt lat="42.37746" lon="2.79516">
        <ele>244.2</ele>
        <time>2022-05-21 16:13:39</time>
      </trkpt>
      <trkpt lat="42.37752" lon="2.79511">
        <ele>244.2</ele>
        <time>2022-05-21 16:13:40</time>
      </trkpt>
      <trkpt lat="42.37759" lon="2.79505">
        <ele>244</ele>
        <time>2022-05-21 16:13:41</time>
      </trkpt>
      <trkpt lat="42.37765" lon="2.795">
        <ele>243.8</ele>
        <time>2022-05-21 16:13:42</time>
      </trkpt>
      <trkpt lat="42.37772" lon="2.79494">
        <ele>243.6</ele>
        <time>2022-05-21 16:13:43</time>
      </trkpt>
      <trkpt lat="42.37779" lon="2.79489">
        <ele>243.4</ele>
        <time>2022-05-21 16:13:44</time>
      </trkpt>
      <trkpt lat="42.37786" lon="2.79483">
        <ele>243.4</ele>
        <time>2022-05-21 16:13:45</time>
      </trkpt>
      <trkpt lat="42.37793" lon="2.79478">
        <ele>243.2</ele>
        <time>2022-05-21 16:13:46</time>
      </trkpt>
      <trkpt lat="42.378" lon="2.79471">
        <ele>243</ele>
        <time>2022-05-21 16:13:47</time>
      </trkpt>
      <trkpt lat="42.37807" lon="2.79465">
        <ele>243</ele>
        <time>2022-05-21 16:13:48</time>
      </trkpt>
      <trkpt lat="42.37813" lon="2.79459">
        <ele>242.8</ele>
        <time>2022-05-21 16:13:49</time>
      </trkpt>
      <trkpt lat="42.37821" lon="2.79452">
        <ele>242.6</ele>
        <time>2022-05-21 16:13:50</time>
      </trkpt>
      <trkpt lat="42.37827" lon="2.79445">
        <ele>242.4</ele>
        <time>2022-05-21 16:13:51</time>
      </trkpt>
      <trkpt lat="42.37833" lon="2.79438">
        <ele>242.2</ele>
        <time>2022-05-21 16:13:52</time>
      </trkpt>
      <trkpt lat="42.37839" lon="2.79431">
        <ele>242</ele>
        <time>2022-05-21 16:13:53</time>
      </trkpt>
      <trkpt lat="42.37845" lon="2.79423">
        <ele>241.8</ele>
        <time>2022-05-21 16:13:54</time>
      </trkpt>
      <trkpt lat="42.37851" lon="2.79416">
        <ele>241.6</ele>
        <time>2022-05-21 16:13:55</time>
      </trkpt>
      <trkpt lat="42.37856" lon="2.79408">
        <ele>241.4</ele>
        <time>2022-05-21 16:13:56</time>
      </trkpt>
      <trkpt lat="42.37861" lon="2.794">
        <ele>241.4</ele>
        <time>2022-05-21 16:13:57</time>
      </trkpt>
      <trkpt lat="42.37866" lon="2.79391">
        <ele>241.2</ele>
        <time>2022-05-21 16:13:58</time>
      </trkpt>
      <trkpt lat="42.37871" lon="2.79382">
        <ele>241.2</ele>
        <time>2022-05-21 16:13:59</time>
      </trkpt>
      <trkpt lat="42.37875" lon="2.79373">
        <ele>241.2</ele>
        <time>2022-05-21 16:14:00</time>
      </trkpt>
      <trkpt lat="42.3788" lon="2.79364">
        <ele>241</ele>
        <time>2022-05-21 16:14:01</time>
      </trkpt>
      <trkpt lat="42.37884" lon="2.79354">
        <ele>241</ele>
        <time>2022-05-21 16:14:02</time>
      </trkpt>
      <trkpt lat="42.37887" lon="2.79344">
        <ele>241</ele>
        <time>2022-05-21 16:14:03</time>
      </trkpt>
      <trkpt lat="42.37891" lon="2.79334">
        <ele>240.8</ele>
        <time>2022-05-21 16:14:04</time>
      </trkpt>
      <trkpt lat="42.37894" lon="2.79324">
        <ele>240.8</ele>
        <time>2022-05-21 16:14:05</time>
      </trkpt>
      <trkpt lat="42.37897" lon="2.79314">
        <ele>240.6</ele>
        <time>2022-05-21 16:14:06</time>
      </trkpt>
      <trkpt lat="42.379" lon="2.79303">
        <ele>240.6</ele>
        <time>2022-05-21 16:14:07</time>
      </trkpt>
      <trkpt lat="42.37902" lon="2.79293">
        <ele>240.4</ele>
        <time>2022-05-21 16:14:08</time>
      </trkpt>
      <trkpt lat="42.37904" lon="2.79283">
        <ele>240.4</ele>
        <time>2022-05-21 16:14:09</time>
      </trkpt>
      <trkpt lat="42.37906" lon="2.79272">
        <ele>240.4</ele>
        <time>2022-05-21 16:14:10</time>
      </trkpt>
      <trkpt lat="42.37907" lon="2.79262">
        <ele>240.2</ele>
        <time>2022-05-21 16:14:11</time>
      </trkpt>
      <trkpt lat="42.37908" lon="2.79252">
        <ele>240.2</ele>
        <time>2022-05-21 16:14:12</time>
      </trkpt>
      <trkpt lat="42.37909" lon="2.79242">
        <ele>240.2</ele>
        <time>2022-05-21 16:14:13</time>
      </trkpt>
      <trkpt lat="42.37909" lon="2.79233">
        <ele>240.2</ele>
        <time>2022-05-21 16:14:14</time>
      </trkpt>
      <trkpt lat="42.3791" lon="2.79223">
        <ele>240.2</ele>
        <time>2022-05-21 16:14:15</time>
      </trkpt>
      <trkpt lat="42.3791" lon="2.79213">
        <ele>240.2</ele>
        <time>2022-05-21 16:14:16</time>
      </trkpt>
      <trkpt lat="42.3791" lon="2.79204">
        <ele>240.2</ele>
        <time>2022-05-21 16:14:17</time>
      </trkpt>
      <trkpt lat="42.3791" lon="2.79195">
        <ele>240.4</ele>
        <time>2022-05-21 16:14:18</time>
      </trkpt>
      <trkpt lat="42.3791" lon="2.79185">
        <ele>240.4</ele>
        <time>2022-05-21 16:14:19</time>
      </trkpt>
      <trkpt lat="42.3791" lon="2.79177">
        <ele>240.4</ele>
        <time>2022-05-21 16:14:20</time>
      </trkpt>
      <trkpt lat="42.3791" lon="2.79168">
        <ele>240.6</ele>
        <time>2022-05-21 16:14:21</time>
      </trkpt>
      <trkpt lat="42.3791" lon="2.79159">
        <ele>240.8</ele>
        <time>2022-05-21 16:14:22</time>
      </trkpt>
      <trkpt lat="42.3791" lon="2.79151">
        <ele>240.8</ele>
        <time>2022-05-21 16:14:23</time>
      </trkpt>
      <trkpt lat="42.3791" lon="2.79142">
        <ele>241</ele>
        <time>2022-05-21 16:14:24</time>
      </trkpt>
      <trkpt lat="42.3791" lon="2.79134">
        <ele>241</ele>
        <time>2022-05-21 16:14:25</time>
      </trkpt>
      <trkpt lat="42.3791" lon="2.79126">
        <ele>241.2</ele>
        <time>2022-05-21 16:14:26</time>
      </trkpt>
      <trkpt lat="42.37909" lon="2.79118">
        <ele>241.2</ele>
        <time>2022-05-21 16:14:27</time>
      </trkpt>
      <trkpt lat="42.37909" lon="2.7911">
        <ele>241.2</ele>
        <time>2022-05-21 16:14:28</time>
      </trkpt>
      <trkpt lat="42.37909" lon="2.79103">
        <ele>241.4</ele>
        <time>2022-05-21 16:14:29</time>
      </trkpt>
      <trkpt lat="42.3791" lon="2.79095">
        <ele>241.6</ele>
        <time>2022-05-21 16:14:30</time>
      </trkpt>
      <trkpt lat="42.3791" lon="2.79088">
        <ele>241.6</ele>
        <time>2022-05-21 16:14:31</time>
      </trkpt>
      <trkpt lat="42.3791" lon="2.79081">
        <ele>241.8</ele>
        <time>2022-05-21 16:14:32</time>
      </trkpt>
      <trkpt lat="42.3791" lon="2.79074">
        <ele>241.8</ele>
        <time>2022-05-21 16:14:33</time>
      </trkpt>
      <trkpt lat="42.3791" lon="2.79068">
        <ele>242</ele>
        <time>2022-05-21 16:14:34</time>
      </trkpt>
      <trkpt lat="42.3791" lon="2.79061">
        <ele>242</ele>
        <time>2022-05-21 16:14:35</time>
      </trkpt>
      <trkpt lat="42.3791" lon="2.79055">
        <ele>242.2</ele>
        <time>2022-05-21 16:14:36</time>
      </trkpt>
      <trkpt lat="42.37911" lon="2.79049">
        <ele>242.2</ele>
        <time>2022-05-21 16:14:37</time>
      </trkpt>
      <trkpt lat="42.37911" lon="2.79043">
        <ele>242.4</ele>
        <time>2022-05-21 16:14:38</time>
      </trkpt>
      <trkpt lat="42.37913" lon="2.79036">
        <ele>242.4</ele>
        <time>2022-05-21 16:14:39</time>
      </trkpt>
      <trkpt lat="42.37914" lon="2.7903">
        <ele>242.6</ele>
        <time>2022-05-21 16:14:40</time>
      </trkpt>
      <trkpt lat="42.37916" lon="2.79025">
        <ele>242.6</ele>
        <time>2022-05-21 16:14:41</time>
      </trkpt>
      <trkpt lat="42.37919" lon="2.79019">
        <ele>242.8</ele>
        <time>2022-05-21 16:14:42</time>
      </trkpt>
      <trkpt lat="42.37922" lon="2.79014">
        <ele>243</ele>
        <time>2022-05-21 16:14:43</time>
      </trkpt>
      <trkpt lat="42.37925" lon="2.7901">
        <ele>243.2</ele>
        <time>2022-05-21 16:14:44</time>
      </trkpt>
      <trkpt lat="42.37928" lon="2.79006">
        <ele>243.2</ele>
        <time>2022-05-21 16:14:45</time>
      </trkpt>
      <trkpt lat="42.37931" lon="2.79002">
        <ele>243.4</ele>
        <time>2022-05-21 16:14:46</time>
      </trkpt>
      <trkpt lat="42.37934" lon="2.78998">
        <ele>243.6</ele>
        <time>2022-05-21 16:14:47</time>
      </trkpt>
      <trkpt lat="42.37938" lon="2.78993">
        <ele>243.6</ele>
        <time>2022-05-21 16:14:48</time>
      </trkpt>
      <trkpt lat="42.3794" lon="2.78989">
        <ele>243.8</ele>
        <time>2022-05-21 16:14:49</time>
      </trkpt>
      <trkpt lat="42.37944" lon="2.78985">
        <ele>244</ele>
        <time>2022-05-21 16:14:50</time>
      </trkpt>
      <trkpt lat="42.37947" lon="2.78981">
        <ele>244.2</ele>
        <time>2022-05-21 16:14:51</time>
      </trkpt>
      <trkpt lat="42.3795" lon="2.78977">
        <ele>244.2</ele>
        <time>2022-05-21 16:14:52</time>
      </trkpt>
      <trkpt lat="42.37953" lon="2.78973">
        <ele>244.4</ele>
        <time>2022-05-21 16:14:53</time>
      </trkpt>
      <trkpt lat="42.37956" lon="2.78969">
        <ele>244.4</ele>
        <time>2022-05-21 16:14:54</time>
      </trkpt>
      <trkpt lat="42.37958" lon="2.78964">
        <ele>244.6</ele>
        <time>2022-05-21 16:14:55</time>
      </trkpt>
      <trkpt lat="42.37961" lon="2.7896">
        <ele>244.8</ele>
        <time>2022-05-21 16:14:56</time>
      </trkpt>
      <trkpt lat="42.37965" lon="2.78956">
        <ele>244.8</ele>
        <time>2022-05-21 16:14:57</time>
      </trkpt>
      <trkpt lat="42.37968" lon="2.78952">
        <ele>245</ele>
        <time>2022-05-21 16:14:58</time>
      </trkpt>
      <trkpt lat="42.37971" lon="2.78948">
        <ele>245</ele>
        <time>2022-05-21 16:14:59</time>
      </trkpt>
      <trkpt lat="42.37974" lon="2.78943">
        <ele>245.2</ele>
        <time>2022-05-21 16:15:00</time>
      </trkpt>
      <trkpt lat="42.37977" lon="2.78939">
        <ele>245.4</ele>
        <time>2022-05-21 16:15:01</time>
      </trkpt>
      <trkpt lat="42.3798" lon="2.78935">
        <ele>245.4</ele>
        <time>2022-05-21 16:15:02</time>
      </trkpt>
      <trkpt lat="42.37983" lon="2.78931">
        <ele>245.4</ele>
        <time>2022-05-21 16:15:03</time>
      </trkpt>
      <trkpt lat="42.37987" lon="2.78928">
        <ele>245.6</ele>
        <time>2022-05-21 16:15:04</time>
      </trkpt>
      <trkpt lat="42.3799" lon="2.78925">
        <ele>245.8</ele>
        <time>2022-05-21 16:15:05</time>
      </trkpt>
      <trkpt lat="42.37994" lon="2.78923">
        <ele>245.8</ele>
        <time>2022-05-21 16:15:06</time>
      </trkpt>
      <trkpt lat="42.37999" lon="2.7892">
        <ele>246</ele>
        <time>2022-05-21 16:15:07</time>
      </trkpt>
      <trkpt lat="42.38003" lon="2.78918">
        <ele>246.2</ele>
        <time>2022-05-21 16:15:08</time>
      </trkpt>
      <trkpt lat="42.38007" lon="2.78917">
        <ele>246.4</ele>
        <time>2022-05-21 16:15:09</time>
      </trkpt>
      <trkpt lat="42.38012" lon="2.78915">
        <ele>246.6</ele>
        <time>2022-05-21 16:15:10</time>
      </trkpt>
      <trkpt lat="42.38016" lon="2.78913">
        <ele>246.8</ele>
        <time>2022-05-21 16:15:11</time>
      </trkpt>
      <trkpt lat="42.3802" lon="2.78912">
        <ele>247</ele>
        <time>2022-05-21 16:15:12</time>
      </trkpt>
      <trkpt lat="42.38024" lon="2.7891">
        <ele>247.2</ele>
        <time>2022-05-21 16:15:13</time>
      </trkpt>
      <trkpt lat="42.38028" lon="2.78908">
        <ele>247.2</ele>
        <time>2022-05-21 16:15:14</time>
      </trkpt>
      <trkpt lat="42.38032" lon="2.78906">
        <ele>247.4</ele>
        <time>2022-05-21 16:15:15</time>
      </trkpt>
      <trkpt lat="42.38035" lon="2.78905">
        <ele>247.6</ele>
        <time>2022-05-21 16:15:16</time>
      </trkpt>
      <trkpt lat="42.38039" lon="2.78902">
        <ele>247.8</ele>
        <time>2022-05-21 16:15:17</time>
      </trkpt>
      <trkpt lat="42.38042" lon="2.789">
        <ele>247.8</ele>
        <time>2022-05-21 16:15:18</time>
      </trkpt>
      <trkpt lat="42.38046" lon="2.78897">
        <ele>248</ele>
        <time>2022-05-21 16:15:19</time>
      </trkpt>
      <trkpt lat="42.38049" lon="2.78895">
        <ele>248</ele>
        <time>2022-05-21 16:15:20</time>
      </trkpt>
      <trkpt lat="42.38053" lon="2.78892">
        <ele>248.2</ele>
        <time>2022-05-21 16:15:21</time>
      </trkpt>
      <trkpt lat="42.38056" lon="2.78889">
        <ele>248.2</ele>
        <time>2022-05-21 16:15:22</time>
      </trkpt>
      <trkpt lat="42.38059" lon="2.78887">
        <ele>248.4</ele>
        <time>2022-05-21 16:15:23</time>
      </trkpt>
      <trkpt lat="42.38063" lon="2.78884">
        <ele>248.4</ele>
        <time>2022-05-21 16:15:24</time>
      </trkpt>
      <trkpt lat="42.38066" lon="2.78882">
        <ele>248.6</ele>
        <time>2022-05-21 16:15:25</time>
      </trkpt>
      <trkpt lat="42.38069" lon="2.78879">
        <ele>248.6</ele>
        <time>2022-05-21 16:15:26</time>
      </trkpt>
      <trkpt lat="42.38073" lon="2.78876">
        <ele>248.8</ele>
        <time>2022-05-21 16:15:27</time>
      </trkpt>
      <trkpt lat="42.38076" lon="2.78874">
        <ele>248.8</ele>
        <time>2022-05-21 16:15:28</time>
      </trkpt>
      <trkpt lat="42.38079" lon="2.78871">
        <ele>248.8</ele>
        <time>2022-05-21 16:15:29</time>
      </trkpt>
      <trkpt lat="42.38082" lon="2.78868">
        <ele>249</ele>
        <time>2022-05-21 16:15:30</time>
      </trkpt>
      <trkpt lat="42.38086" lon="2.78865">
        <ele>249</ele>
        <time>2022-05-21 16:15:31</time>
      </trkpt>
      <trkpt lat="42.3809" lon="2.78862">
        <ele>249</ele>
        <time>2022-05-21 16:15:32</time>
      </trkpt>
      <trkpt lat="42.38094" lon="2.78859">
        <ele>249.2</ele>
        <time>2022-05-21 16:15:33</time>
      </trkpt>
      <trkpt lat="42.38097" lon="2.78855">
        <ele>249.2</ele>
        <time>2022-05-21 16:15:34</time>
      </trkpt>
      <trkpt lat="42.38101" lon="2.78852">
        <ele>249.4</ele>
        <time>2022-05-21 16:15:35</time>
      </trkpt>
      <trkpt lat="42.38104" lon="2.78849">
        <ele>249.4</ele>
        <time>2022-05-21 16:15:36</time>
      </trkpt>
      <trkpt lat="42.38108" lon="2.78845">
        <ele>249.4</ele>
        <time>2022-05-21 16:15:37</time>
      </trkpt>
      <trkpt lat="42.38112" lon="2.78842">
        <ele>249.4</ele>
        <time>2022-05-21 16:15:38</time>
      </trkpt>
      <trkpt lat="42.38116" lon="2.78838">
        <ele>249.4</ele>
        <time>2022-05-21 16:15:39</time>
      </trkpt>
      <trkpt lat="42.3812" lon="2.78835">
        <ele>249.6</ele>
        <time>2022-05-21 16:15:40</time>
      </trkpt>
      <trkpt lat="42.38123" lon="2.78832">
        <ele>249.6</ele>
        <time>2022-05-21 16:15:41</time>
      </trkpt>
      <trkpt lat="42.38128" lon="2.78829">
        <ele>249.6</ele>
        <time>2022-05-21 16:15:42</time>
      </trkpt>
      <trkpt lat="42.38132" lon="2.78826">
        <ele>249.6</ele>
        <time>2022-05-21 16:15:43</time>
      </trkpt>
      <trkpt lat="42.38136" lon="2.78823">
        <ele>249.6</ele>
        <time>2022-05-21 16:15:44</time>
      </trkpt>
      <trkpt lat="42.3814" lon="2.7882">
        <ele>249.8</ele>
        <time>2022-05-21 16:15:45</time>
      </trkpt>
      <trkpt lat="42.38144" lon="2.78817">
        <ele>249.8</ele>
        <time>2022-05-21 16:15:46</time>
      </trkpt>
      <trkpt lat="42.38148" lon="2.78815">
        <ele>249.8</ele>
        <time>2022-05-21 16:15:47</time>
      </trkpt>
      <trkpt lat="42.38153" lon="2.78812">
        <ele>249.8</ele>
        <time>2022-05-21 16:15:48</time>
      </trkpt>
      <trkpt lat="42.38158" lon="2.78809">
        <ele>250</ele>
        <time>2022-05-21 16:15:49</time>
      </trkpt>
      <trkpt lat="42.38162" lon="2.78806">
        <ele>250</ele>
        <time>2022-05-21 16:15:50</time>
      </trkpt>
      <trkpt lat="42.38166" lon="2.78803">
        <ele>250</ele>
        <time>2022-05-21 16:15:51</time>
      </trkpt>
      <trkpt lat="42.3817" lon="2.788">
        <ele>250</ele>
        <time>2022-05-21 16:15:52</time>
      </trkpt>
      <trkpt lat="42.38175" lon="2.78797">
        <ele>250</ele>
        <time>2022-05-21 16:15:53</time>
      </trkpt>
      <trkpt lat="42.38179" lon="2.78794">
        <ele>250.2</ele>
        <time>2022-05-21 16:15:54</time>
      </trkpt>
      <trkpt lat="42.38183" lon="2.78791">
        <ele>250.2</ele>
        <time>2022-05-21 16:15:55</time>
      </trkpt>
      <trkpt lat="42.38188" lon="2.78789">
        <ele>250.2</ele>
        <time>2022-05-21 16:15:56</time>
      </trkpt>
      <trkpt lat="42.38193" lon="2.78786">
        <ele>250.2</ele>
        <time>2022-05-21 16:15:57</time>
      </trkpt>
      <trkpt lat="42.38198" lon="2.78783">
        <ele>250.2</ele>
        <time>2022-05-21 16:15:58</time>
      </trkpt>
      <trkpt lat="42.38204" lon="2.7878">
        <ele>250.2</ele>
        <time>2022-05-21 16:15:59</time>
      </trkpt>
      <trkpt lat="42.3821" lon="2.78777">
        <ele>250.2</ele>
        <time>2022-05-21 16:16:00</time>
      </trkpt>
      <trkpt lat="42.38215" lon="2.78773">
        <ele>250</ele>
        <time>2022-05-21 16:16:01</time>
      </trkpt>
      <trkpt lat="42.3822" lon="2.78771">
        <ele>250</ele>
        <time>2022-05-21 16:16:02</time>
      </trkpt>
      <trkpt lat="42.38225" lon="2.78768">
        <ele>250</ele>
        <time>2022-05-21 16:16:03</time>
      </trkpt>
      <trkpt lat="42.3823" lon="2.78766">
        <ele>250</ele>
        <time>2022-05-21 16:16:04</time>
      </trkpt>
      <trkpt lat="42.38235" lon="2.78764">
        <ele>250</ele>
        <time>2022-05-21 16:16:05</time>
      </trkpt>
      <trkpt lat="42.38241" lon="2.78762">
        <ele>250.2</ele>
        <time>2022-05-21 16:16:06</time>
      </trkpt>
      <trkpt lat="42.38247" lon="2.78761">
        <ele>250.2</ele>
        <time>2022-05-21 16:16:07</time>
      </trkpt>
      <trkpt lat="42.38252" lon="2.7876">
        <ele>250.2</ele>
        <time>2022-05-21 16:16:08</time>
      </trkpt>
      <trkpt lat="42.38258" lon="2.78758">
        <ele>250.4</ele>
        <time>2022-05-21 16:16:09</time>
      </trkpt>
      <trkpt lat="42.38264" lon="2.78758">
        <ele>250.4</ele>
        <time>2022-05-21 16:16:10</time>
      </trkpt>
      <trkpt lat="42.3827" lon="2.78757">
        <ele>250.6</ele>
        <time>2022-05-21 16:16:11</time>
      </trkpt>
      <trkpt lat="42.38276" lon="2.78757">
        <ele>250.6</ele>
        <time>2022-05-21 16:16:12</time>
      </trkpt>
      <trkpt lat="42.38282" lon="2.78756">
        <ele>250.8</ele>
        <time>2022-05-21 16:16:13</time>
      </trkpt>
      <trkpt lat="42.38287" lon="2.78756">
        <ele>251</ele>
        <time>2022-05-21 16:16:14</time>
      </trkpt>
      <trkpt lat="42.38293" lon="2.78756">
        <ele>251</ele>
        <time>2022-05-21 16:16:15</time>
      </trkpt>
      <trkpt lat="42.38299" lon="2.78756">
        <ele>251</ele>
        <time>2022-05-21 16:16:16</time>
      </trkpt>
      <trkpt lat="42.38304" lon="2.78755">
        <ele>251.2</ele>
        <time>2022-05-21 16:16:17</time>
      </trkpt>
      <trkpt lat="42.38309" lon="2.78754">
        <ele>251.2</ele>
        <time>2022-05-21 16:16:18</time>
      </trkpt>
      <trkpt lat="42.38314" lon="2.78753">
        <ele>251.2</ele>
        <time>2022-05-21 16:16:19</time>
      </trkpt>
      <trkpt lat="42.38319" lon="2.78752">
        <ele>251.4</ele>
        <time>2022-05-21 16:16:20</time>
      </trkpt>
      <trkpt lat="42.38325" lon="2.78751">
        <ele>251.4</ele>
        <time>2022-05-21 16:16:21</time>
      </trkpt>
      <trkpt lat="42.3833" lon="2.78749">
        <ele>251.6</ele>
        <time>2022-05-21 16:16:22</time>
      </trkpt>
      <trkpt lat="42.38334" lon="2.78748">
        <ele>251.6</ele>
        <time>2022-05-21 16:16:23</time>
      </trkpt>
      <trkpt lat="42.3834" lon="2.78745">
        <ele>251.8</ele>
        <time>2022-05-21 16:16:24</time>
      </trkpt>
      <trkpt lat="42.38345" lon="2.78743">
        <ele>251.8</ele>
        <time>2022-05-21 16:16:25</time>
      </trkpt>
      <trkpt lat="42.3835" lon="2.7874">
        <ele>251.8</ele>
        <time>2022-05-21 16:16:26</time>
      </trkpt>
      <trkpt lat="42.38355" lon="2.78738">
        <ele>252</ele>
        <time>2022-05-21 16:16:27</time>
      </trkpt>
      <trkpt lat="42.3836" lon="2.78734">
        <ele>252</ele>
        <time>2022-05-21 16:16:28</time>
      </trkpt>
      <trkpt lat="42.38364" lon="2.78731">
        <ele>252.2</ele>
        <time>2022-05-21 16:16:29</time>
      </trkpt>
      <trkpt lat="42.38368" lon="2.78727">
        <ele>252.2</ele>
        <time>2022-05-21 16:16:30</time>
      </trkpt>
      <trkpt lat="42.38372" lon="2.78722">
        <ele>252.4</ele>
        <time>2022-05-21 16:16:31</time>
      </trkpt>
      <trkpt lat="42.38377" lon="2.78718">
        <ele>252.4</ele>
        <time>2022-05-21 16:16:32</time>
      </trkpt>
      <trkpt lat="42.38381" lon="2.78714">
        <ele>252.6</ele>
        <time>2022-05-21 16:16:33</time>
      </trkpt>
      <trkpt lat="42.38385" lon="2.78709">
        <ele>252.6</ele>
        <time>2022-05-21 16:16:34</time>
      </trkpt>
      <trkpt lat="42.38389" lon="2.78705">
        <ele>252.8</ele>
        <time>2022-05-21 16:16:35</time>
      </trkpt>
      <trkpt lat="42.38393" lon="2.78701">
        <ele>252.8</ele>
        <time>2022-05-21 16:16:36</time>
      </trkpt>
      <trkpt lat="42.38397" lon="2.78697">
        <ele>253</ele>
        <time>2022-05-21 16:16:37</time>
      </trkpt>
      <trkpt lat="42.38401" lon="2.78692">
        <ele>253</ele>
        <time>2022-05-21 16:16:38</time>
      </trkpt>
      <trkpt lat="42.38404" lon="2.78688">
        <ele>253.2</ele>
        <time>2022-05-21 16:16:39</time>
      </trkpt>
      <trkpt lat="42.38408" lon="2.78685">
        <ele>253.4</ele>
        <time>2022-05-21 16:16:40</time>
      </trkpt>
      <trkpt lat="42.38412" lon="2.78681">
        <ele>253.4</ele>
        <time>2022-05-21 16:16:41</time>
      </trkpt>
      <trkpt lat="42.38416" lon="2.78677">
        <ele>253.6</ele>
        <time>2022-05-21 16:16:42</time>
      </trkpt>
      <trkpt lat="42.3842" lon="2.78674">
        <ele>253.8</ele>
        <time>2022-05-21 16:16:43</time>
      </trkpt>
      <trkpt lat="42.38424" lon="2.78671">
        <ele>253.8</ele>
        <time>2022-05-21 16:16:44</time>
      </trkpt>
      <trkpt lat="42.38427" lon="2.78668">
        <ele>254</ele>
        <time>2022-05-21 16:16:45</time>
      </trkpt>
      <trkpt lat="42.38431" lon="2.78665">
        <ele>254.2</ele>
        <time>2022-05-21 16:16:46</time>
      </trkpt>
      <trkpt lat="42.38435" lon="2.78663">
        <ele>254.2</ele>
        <time>2022-05-21 16:16:47</time>
      </trkpt>
      <trkpt lat="42.38437" lon="2.78662">
        <ele>254.4</ele>
        <time>2022-05-21 16:16:48</time>
      </trkpt>
      <trkpt lat="42.38443" lon="2.78659">
        <ele>254.6</ele>
        <time>2022-05-21 16:16:49</time>
      </trkpt>
      <trkpt lat="42.38446" lon="2.78657">
        <ele>254.6</ele>
        <time>2022-05-21 16:16:50</time>
      </trkpt>
      <trkpt lat="42.3845" lon="2.78655">
        <ele>254.8</ele>
        <time>2022-05-21 16:16:51</time>
      </trkpt>
      <trkpt lat="42.38454" lon="2.78654">
        <ele>255</ele>
        <time>2022-05-21 16:16:52</time>
      </trkpt>
      <trkpt lat="42.38458" lon="2.78652">
        <ele>255.2</ele>
        <time>2022-05-21 16:16:53</time>
      </trkpt>
      <trkpt lat="42.38461" lon="2.78651">
        <ele>255.2</ele>
        <time>2022-05-21 16:16:54</time>
      </trkpt>
      <trkpt lat="42.38465" lon="2.78649">
        <ele>255.4</ele>
        <time>2022-05-21 16:16:55</time>
      </trkpt>
      <trkpt lat="42.38469" lon="2.78648">
        <ele>255.4</ele>
        <time>2022-05-21 16:16:56</time>
      </trkpt>
      <trkpt lat="42.38473" lon="2.78646">
        <ele>255.6</ele>
        <time>2022-05-21 16:16:57</time>
      </trkpt>
      <trkpt lat="42.38477" lon="2.78645">
        <ele>255.6</ele>
        <time>2022-05-21 16:16:58</time>
      </trkpt>
      <trkpt lat="42.38482" lon="2.78644">
        <ele>255.8</ele>
        <time>2022-05-21 16:16:59</time>
      </trkpt>
      <trkpt lat="42.38486" lon="2.78642">
        <ele>256</ele>
        <time>2022-05-21 16:17:00</time>
      </trkpt>
      <trkpt lat="42.3849" lon="2.78641">
        <ele>256</ele>
        <time>2022-05-21 16:17:01</time>
      </trkpt>
      <trkpt lat="42.38494" lon="2.7864">
        <ele>256.2</ele>
        <time>2022-05-21 16:17:02</time>
      </trkpt>
      <trkpt lat="42.38497" lon="2.78638">
        <ele>256.2</ele>
        <time>2022-05-21 16:17:03</time>
      </trkpt>
      <trkpt lat="42.38501" lon="2.78637">
        <ele>256.4</ele>
        <time>2022-05-21 16:17:04</time>
      </trkpt>
      <trkpt lat="42.38505" lon="2.78636">
        <ele>256.4</ele>
        <time>2022-05-21 16:17:05</time>
      </trkpt>
      <trkpt lat="42.38509" lon="2.78635">
        <ele>256.6</ele>
        <time>2022-05-21 16:17:06</time>
      </trkpt>
      <trkpt lat="42.38513" lon="2.78634">
        <ele>256.6</ele>
        <time>2022-05-21 16:17:07</time>
      </trkpt>
      <trkpt lat="42.38518" lon="2.78633">
        <ele>256.8</ele>
        <time>2022-05-21 16:17:08</time>
      </trkpt>
      <trkpt lat="42.38522" lon="2.78631">
        <ele>256.8</ele>
        <time>2022-05-21 16:17:09</time>
      </trkpt>
      <trkpt lat="42.38526" lon="2.7863">
        <ele>257</ele>
        <time>2022-05-21 16:17:10</time>
      </trkpt>
      <trkpt lat="42.38531" lon="2.78628">
        <ele>257</ele>
        <time>2022-05-21 16:17:11</time>
      </trkpt>
      <trkpt lat="42.38535" lon="2.78626">
        <ele>257</ele>
        <time>2022-05-21 16:17:12</time>
      </trkpt>
      <trkpt lat="42.38539" lon="2.78625">
        <ele>257.2</ele>
        <time>2022-05-21 16:17:13</time>
      </trkpt>
      <trkpt lat="42.38544" lon="2.78623">
        <ele>257.2</ele>
        <time>2022-05-21 16:17:14</time>
      </trkpt>
      <trkpt lat="42.38549" lon="2.78621">
        <ele>257.4</ele>
        <time>2022-05-21 16:17:15</time>
      </trkpt>
      <trkpt lat="42.38553" lon="2.78619">
        <ele>257.4</ele>
        <time>2022-05-21 16:17:16</time>
      </trkpt>
      <trkpt lat="42.38558" lon="2.78617">
        <ele>257.4</ele>
        <time>2022-05-21 16:17:17</time>
      </trkpt>
      <trkpt lat="42.38562" lon="2.78614">
        <ele>257.4</ele>
        <time>2022-05-21 16:17:18</time>
      </trkpt>
      <trkpt lat="42.38566" lon="2.78611">
        <ele>257.6</ele>
        <time>2022-05-21 16:17:19</time>
      </trkpt>
      <trkpt lat="42.38571" lon="2.78608">
        <ele>257.6</ele>
        <time>2022-05-21 16:17:20</time>
      </trkpt>
      <trkpt lat="42.38575" lon="2.78605">
        <ele>257.6</ele>
        <time>2022-05-21 16:17:21</time>
      </trkpt>
      <trkpt lat="42.38579" lon="2.78602">
        <ele>257.6</ele>
        <time>2022-05-21 16:17:22</time>
      </trkpt>
      <trkpt lat="42.38583" lon="2.78598">
        <ele>257.8</ele>
        <time>2022-05-21 16:17:23</time>
      </trkpt>
      <trkpt lat="42.38587" lon="2.78594">
        <ele>257.8</ele>
        <time>2022-05-21 16:17:24</time>
      </trkpt>
      <trkpt lat="42.3859" lon="2.7859">
        <ele>257.8</ele>
        <time>2022-05-21 16:17:25</time>
      </trkpt>
      <trkpt lat="42.38594" lon="2.78585">
        <ele>257.8</ele>
        <time>2022-05-21 16:17:26</time>
      </trkpt>
      <trkpt lat="42.38598" lon="2.7858">
        <ele>257.8</ele>
        <time>2022-05-21 16:17:27</time>
      </trkpt>
      <trkpt lat="42.38601" lon="2.78575">
        <ele>257.8</ele>
        <time>2022-05-21 16:17:28</time>
      </trkpt>
      <trkpt lat="42.38603" lon="2.7857">
        <ele>257.8</ele>
        <time>2022-05-21 16:17:29</time>
      </trkpt>
      <trkpt lat="42.38606" lon="2.78564">
        <ele>258</ele>
        <time>2022-05-21 16:17:30</time>
      </trkpt>
      <trkpt lat="42.3861" lon="2.78559">
        <ele>258</ele>
        <time>2022-05-21 16:17:31</time>
      </trkpt>
      <trkpt lat="42.38613" lon="2.78553">
        <ele>258</ele>
        <time>2022-05-21 16:17:32</time>
      </trkpt>
      <trkpt lat="42.38616" lon="2.78548">
        <ele>258</ele>
        <time>2022-05-21 16:17:33</time>
      </trkpt>
      <trkpt lat="42.38619" lon="2.78542">
        <ele>258</ele>
        <time>2022-05-21 16:17:34</time>
      </trkpt>
      <trkpt lat="42.38622" lon="2.78536">
        <ele>258</ele>
        <time>2022-05-21 16:17:35</time>
      </trkpt>
      <trkpt lat="42.38625" lon="2.7853">
        <ele>258</ele>
        <time>2022-05-21 16:17:36</time>
      </trkpt>
      <trkpt lat="42.38629" lon="2.78525">
        <ele>258</ele>
        <time>2022-05-21 16:17:37</time>
      </trkpt>
      <trkpt lat="42.38632" lon="2.7852">
        <ele>258</ele>
        <time>2022-05-21 16:17:38</time>
      </trkpt>
      <trkpt lat="42.38636" lon="2.78515">
        <ele>258</ele>
        <time>2022-05-21 16:17:39</time>
      </trkpt>
      <trkpt lat="42.3864" lon="2.7851">
        <ele>258</ele>
        <time>2022-05-21 16:17:40</time>
      </trkpt>
      <trkpt lat="42.38644" lon="2.78506">
        <ele>258</ele>
        <time>2022-05-21 16:17:41</time>
      </trkpt>
      <trkpt lat="42.38649" lon="2.78502">
        <ele>258</ele>
        <time>2022-05-21 16:17:42</time>
      </trkpt>
      <trkpt lat="42.38653" lon="2.78498">
        <ele>258</ele>
        <time>2022-05-21 16:17:43</time>
      </trkpt>
      <trkpt lat="42.38657" lon="2.78494">
        <ele>258</ele>
        <time>2022-05-21 16:17:44</time>
      </trkpt>
      <trkpt lat="42.38661" lon="2.78489">
        <ele>258</ele>
        <time>2022-05-21 16:17:45</time>
      </trkpt>
      <trkpt lat="42.38665" lon="2.78484">
        <ele>258</ele>
        <time>2022-05-21 16:17:46</time>
      </trkpt>
      <trkpt lat="42.38669" lon="2.78479">
        <ele>258</ele>
        <time>2022-05-21 16:17:47</time>
      </trkpt>
      <trkpt lat="42.38672" lon="2.78474">
        <ele>258</ele>
        <time>2022-05-21 16:17:48</time>
      </trkpt>
      <trkpt lat="42.38676" lon="2.78468">
        <ele>258</ele>
        <time>2022-05-21 16:17:49</time>
      </trkpt>
      <trkpt lat="42.3868" lon="2.78462">
        <ele>258</ele>
        <time>2022-05-21 16:17:50</time>
      </trkpt>
      <trkpt lat="42.38683" lon="2.78456">
        <ele>258</ele>
        <time>2022-05-21 16:17:51</time>
      </trkpt>
      <trkpt lat="42.38687" lon="2.7845">
        <ele>258</ele>
        <time>2022-05-21 16:17:52</time>
      </trkpt>
      <trkpt lat="42.3869" lon="2.78444">
        <ele>258</ele>
        <time>2022-05-21 16:17:53</time>
      </trkpt>
      <trkpt lat="42.38693" lon="2.78439">
        <ele>258</ele>
        <time>2022-05-21 16:17:54</time>
      </trkpt>
      <trkpt lat="42.38696" lon="2.78433">
        <ele>258</ele>
        <time>2022-05-21 16:17:55</time>
      </trkpt>
      <trkpt lat="42.38699" lon="2.78427">
        <ele>258</ele>
        <time>2022-05-21 16:17:56</time>
      </trkpt>
      <trkpt lat="42.38702" lon="2.78422">
        <ele>258</ele>
        <time>2022-05-21 16:17:57</time>
      </trkpt>
      <trkpt lat="42.38706" lon="2.78416">
        <ele>258</ele>
        <time>2022-05-21 16:17:58</time>
      </trkpt>
      <trkpt lat="42.38709" lon="2.7841">
        <ele>258</ele>
        <time>2022-05-21 16:17:59</time>
      </trkpt>
      <trkpt lat="42.38713" lon="2.78404">
        <ele>258</ele>
        <time>2022-05-21 16:18:00</time>
      </trkpt>
      <trkpt lat="42.38716" lon="2.78398">
        <ele>258</ele>
        <time>2022-05-21 16:18:01</time>
      </trkpt>
      <trkpt lat="42.3872" lon="2.78392">
        <ele>258</ele>
        <time>2022-05-21 16:18:02</time>
      </trkpt>
      <trkpt lat="42.38723" lon="2.78386">
        <ele>258</ele>
        <time>2022-05-21 16:18:03</time>
      </trkpt>
      <trkpt lat="42.38727" lon="2.7838">
        <ele>258</ele>
        <time>2022-05-21 16:18:04</time>
      </trkpt>
      <trkpt lat="42.3873" lon="2.78373">
        <ele>258</ele>
        <time>2022-05-21 16:18:05</time>
      </trkpt>
      <trkpt lat="42.38734" lon="2.78367">
        <ele>258</ele>
        <time>2022-05-21 16:18:06</time>
      </trkpt>
      <trkpt lat="42.38737" lon="2.78362">
        <ele>258</ele>
        <time>2022-05-21 16:18:07</time>
      </trkpt>
      <trkpt lat="42.38741" lon="2.78356">
        <ele>258</ele>
        <time>2022-05-21 16:18:08</time>
      </trkpt>
      <trkpt lat="42.38745" lon="2.7835">
        <ele>258</ele>
        <time>2022-05-21 16:18:09</time>
      </trkpt>
      <trkpt lat="42.38749" lon="2.78345">
        <ele>258</ele>
        <time>2022-05-21 16:18:10</time>
      </trkpt>
      <trkpt lat="42.38753" lon="2.7834">
        <ele>258</ele>
        <time>2022-05-21 16:18:11</time>
      </trkpt>
      <trkpt lat="42.38757" lon="2.78335">
        <ele>258</ele>
        <time>2022-05-21 16:18:12</time>
      </trkpt>
      <trkpt lat="42.38762" lon="2.7833">
        <ele>258</ele>
        <time>2022-05-21 16:18:13</time>
      </trkpt>
      <trkpt lat="42.38766" lon="2.78325">
        <ele>258</ele>
        <time>2022-05-21 16:18:14</time>
      </trkpt>
      <trkpt lat="42.3877" lon="2.78321">
        <ele>258</ele>
        <time>2022-05-21 16:18:15</time>
      </trkpt>
      <trkpt lat="42.38774" lon="2.78316">
        <ele>258</ele>
        <time>2022-05-21 16:18:16</time>
      </trkpt>
      <trkpt lat="42.38778" lon="2.78311">
        <ele>258</ele>
        <time>2022-05-21 16:18:17</time>
      </trkpt>
      <trkpt lat="42.38782" lon="2.78305">
        <ele>258</ele>
        <time>2022-05-21 16:18:18</time>
      </trkpt>
      <trkpt lat="42.38785" lon="2.783">
        <ele>258</ele>
        <time>2022-05-21 16:18:19</time>
      </trkpt>
      <trkpt lat="42.38789" lon="2.78294">
        <ele>258</ele>
        <time>2022-05-21 16:18:20</time>
      </trkpt>
      <trkpt lat="42.38793" lon="2.78288">
        <ele>258</ele>
        <time>2022-05-21 16:18:21</time>
      </trkpt>
      <trkpt lat="42.38797" lon="2.78282">
        <ele>257.8</ele>
        <time>2022-05-21 16:18:22</time>
      </trkpt>
      <trkpt lat="42.38801" lon="2.78276">
        <ele>257.8</ele>
        <time>2022-05-21 16:18:23</time>
      </trkpt>
      <trkpt lat="42.38804" lon="2.7827">
        <ele>257.8</ele>
        <time>2022-05-21 16:18:24</time>
      </trkpt>
      <trkpt lat="42.38808" lon="2.78264">
        <ele>257.8</ele>
        <time>2022-05-21 16:18:25</time>
      </trkpt>
      <trkpt lat="42.38811" lon="2.78259">
        <ele>257.8</ele>
        <time>2022-05-21 16:18:26</time>
      </trkpt>
      <trkpt lat="42.38815" lon="2.78252">
        <ele>257.8</ele>
        <time>2022-05-21 16:18:27</time>
      </trkpt>
      <trkpt lat="42.38818" lon="2.78246">
        <ele>257.8</ele>
        <time>2022-05-21 16:18:28</time>
      </trkpt>
      <trkpt lat="42.38821" lon="2.7824">
        <ele>257.8</ele>
        <time>2022-05-21 16:18:29</time>
      </trkpt>
      <trkpt lat="42.38825" lon="2.78234">
        <ele>257.8</ele>
        <time>2022-05-21 16:18:30</time>
      </trkpt>
      <trkpt lat="42.38829" lon="2.78228">
        <ele>257.8</ele>
        <time>2022-05-21 16:18:31</time>
      </trkpt>
      <trkpt lat="42.38832" lon="2.78222">
        <ele>257.8</ele>
        <time>2022-05-21 16:18:32</time>
      </trkpt>
      <trkpt lat="42.38836" lon="2.78217">
        <ele>257.8</ele>
        <time>2022-05-21 16:18:33</time>
      </trkpt>
      <trkpt lat="42.38839" lon="2.78211">
        <ele>257.8</ele>
        <time>2022-05-21 16:18:34</time>
      </trkpt>
      <trkpt lat="42.38842" lon="2.78205">
        <ele>257.8</ele>
        <time>2022-05-21 16:18:35</time>
      </trkpt>
      <trkpt lat="42.38846" lon="2.78199">
        <ele>257.8</ele>
        <time>2022-05-21 16:18:36</time>
      </trkpt>
      <trkpt lat="42.3885" lon="2.78193">
        <ele>257.8</ele>
        <time>2022-05-21 16:18:37</time>
      </trkpt>
      <trkpt lat="42.38853" lon="2.78188">
        <ele>257.8</ele>
        <time>2022-05-21 16:18:38</time>
      </trkpt>
      <trkpt lat="42.38857" lon="2.78183">
        <ele>257.8</ele>
        <time>2022-05-21 16:18:39</time>
      </trkpt>
      <trkpt lat="42.38862" lon="2.78178">
        <ele>258</ele>
        <time>2022-05-21 16:18:40</time>
      </trkpt>
      <trkpt lat="42.38866" lon="2.78174">
        <ele>258</ele>
        <time>2022-05-21 16:18:41</time>
      </trkpt>
      <trkpt lat="42.38871" lon="2.78171">
        <ele>258</ele>
        <time>2022-05-21 16:18:42</time>
      </trkpt>
      <trkpt lat="42.38876" lon="2.78169">
        <ele>258</ele>
        <time>2022-05-21 16:18:43</time>
      </trkpt>
      <trkpt lat="42.38881" lon="2.78167">
        <ele>258</ele>
        <time>2022-05-21 16:18:44</time>
      </trkpt>
      <trkpt lat="42.38887" lon="2.78164">
        <ele>258.2</ele>
        <time>2022-05-21 16:18:45</time>
      </trkpt>
      <trkpt lat="42.38892" lon="2.78162">
        <ele>258.2</ele>
        <time>2022-05-21 16:18:46</time>
      </trkpt>
      <trkpt lat="42.38896" lon="2.78159">
        <ele>258.4</ele>
        <time>2022-05-21 16:18:47</time>
      </trkpt>
      <trkpt lat="42.38901" lon="2.78156">
        <ele>258.4</ele>
        <time>2022-05-21 16:18:48</time>
      </trkpt>
      <trkpt lat="42.38905" lon="2.78152">
        <ele>258.6</ele>
        <time>2022-05-21 16:18:49</time>
      </trkpt>
      <trkpt lat="42.38909" lon="2.78146">
        <ele>258.6</ele>
        <time>2022-05-21 16:18:50</time>
      </trkpt>
      <trkpt lat="42.38911" lon="2.78139">
        <ele>258.6</ele>
        <time>2022-05-21 16:18:51</time>
      </trkpt>
      <trkpt lat="42.38912" lon="2.78132">
        <ele>258.6</ele>
        <time>2022-05-21 16:18:52</time>
      </trkpt>
      <trkpt lat="42.38913" lon="2.78125">
        <ele>258.6</ele>
        <time>2022-05-21 16:18:53</time>
      </trkpt>
      <trkpt lat="42.38913" lon="2.78118">
        <ele>258.6</ele>
        <time>2022-05-21 16:18:54</time>
      </trkpt>
      <trkpt lat="42.38912" lon="2.78111">
        <ele>258.6</ele>
        <time>2022-05-21 16:18:55</time>
      </trkpt>
      <trkpt lat="42.38912" lon="2.78103">
        <ele>258.6</ele>
        <time>2022-05-21 16:18:56</time>
      </trkpt>
      <trkpt lat="42.38912" lon="2.78095">
        <ele>258.6</ele>
        <time>2022-05-21 16:18:57</time>
      </trkpt>
      <trkpt lat="42.38912" lon="2.78088">
        <ele>258.4</ele>
        <time>2022-05-21 16:18:58</time>
      </trkpt>
      <trkpt lat="42.38912" lon="2.78081">
        <ele>258.6</ele>
        <time>2022-05-21 16:18:59</time>
      </trkpt>
      <trkpt lat="42.38911" lon="2.78074">
        <ele>258.6</ele>
        <time>2022-05-21 16:19:00</time>
      </trkpt>
      <trkpt lat="42.38908" lon="2.78068">
        <ele>258.6</ele>
        <time>2022-05-21 16:19:01</time>
      </trkpt>
      <trkpt lat="42.38905" lon="2.78063">
        <ele>258.6</ele>
        <time>2022-05-21 16:19:02</time>
      </trkpt>
      <trkpt lat="42.38901" lon="2.78059">
        <ele>258.6</ele>
        <time>2022-05-21 16:19:03</time>
      </trkpt>
      <trkpt lat="42.38895" lon="2.78058">
        <ele>258.4</ele>
        <time>2022-05-21 16:19:04</time>
      </trkpt>
      <trkpt lat="42.3889" lon="2.78057">
        <ele>258.4</ele>
        <time>2022-05-21 16:19:05</time>
      </trkpt>
      <trkpt lat="42.38884" lon="2.78056">
        <ele>258.2</ele>
        <time>2022-05-21 16:19:06</time>
      </trkpt>
      <trkpt lat="42.38878" lon="2.78056">
        <ele>258.2</ele>
        <time>2022-05-21 16:19:07</time>
      </trkpt>
      <trkpt lat="42.38872" lon="2.78055">
        <ele>258.2</ele>
        <time>2022-05-21 16:19:08</time>
      </trkpt>
      <trkpt lat="42.38867" lon="2.78053">
        <ele>258.2</ele>
        <time>2022-05-21 16:19:09</time>
      </trkpt>
      <trkpt lat="42.38863" lon="2.7805">
        <ele>258.2</ele>
        <time>2022-05-21 16:19:10</time>
      </trkpt>
      <trkpt lat="42.38859" lon="2.78046">
        <ele>258.2</ele>
        <time>2022-05-21 16:19:11</time>
      </trkpt>
      <trkpt lat="42.38856" lon="2.78042">
        <ele>258.2</ele>
        <time>2022-05-21 16:19:12</time>
      </trkpt>
      <trkpt lat="42.38852" lon="2.78037">
        <ele>258.2</ele>
        <time>2022-05-21 16:19:13</time>
      </trkpt>
      <trkpt lat="42.38849" lon="2.78032">
        <ele>258.4</ele>
        <time>2022-05-21 16:19:14</time>
      </trkpt>
      <trkpt lat="42.38845" lon="2.78027">
        <ele>258.4</ele>
        <time>2022-05-21 16:19:15</time>
      </trkpt>
      <trkpt lat="42.38842" lon="2.78022">
        <ele>258.6</ele>
        <time>2022-05-21 16:19:16</time>
      </trkpt>
      <trkpt lat="42.38838" lon="2.78017">
        <ele>258.8</ele>
        <time>2022-05-21 16:19:17</time>
      </trkpt>
      <trkpt lat="42.38833" lon="2.78013">
        <ele>259</ele>
        <time>2022-05-21 16:19:18</time>
      </trkpt>
      <trkpt lat="42.3883" lon="2.78009">
        <ele>259.2</ele>
        <time>2022-05-21 16:19:19</time>
      </trkpt>
      <trkpt lat="42.38826" lon="2.78006">
        <ele>259.4</ele>
        <time>2022-05-21 16:19:20</time>
      </trkpt>
      <trkpt lat="42.38822" lon="2.78004">
        <ele>259.6</ele>
        <time>2022-05-21 16:19:21</time>
      </trkpt>
      <trkpt lat="42.38818" lon="2.78003">
        <ele>259.8</ele>
        <time>2022-05-21 16:19:22</time>
      </trkpt>
      <trkpt lat="42.38814" lon="2.78002">
        <ele>260</ele>
        <time>2022-05-21 16:19:23</time>
      </trkpt>
      <trkpt lat="42.38811" lon="2.78">
        <ele>260.4</ele>
        <time>2022-05-21 16:19:24</time>
      </trkpt>
      <trkpt lat="42.38807" lon="2.77998">
        <ele>260.4</ele>
        <time>2022-05-21 16:19:25</time>
      </trkpt>
      <trkpt lat="42.38803" lon="2.77995">
        <ele>260.6</ele>
        <time>2022-05-21 16:19:26</time>
      </trkpt>
      <trkpt lat="42.388" lon="2.77992">
        <ele>260.8</ele>
        <time>2022-05-21 16:19:27</time>
      </trkpt>
      <trkpt lat="42.38798" lon="2.77989">
        <ele>261.2</ele>
        <time>2022-05-21 16:19:28</time>
      </trkpt>
      <trkpt lat="42.38795" lon="2.77985">
        <ele>261.4</ele>
        <time>2022-05-21 16:19:29</time>
      </trkpt>
      <trkpt lat="42.38793" lon="2.77982">
        <ele>261.6</ele>
        <time>2022-05-21 16:19:30</time>
      </trkpt>
      <trkpt lat="42.38791" lon="2.77979">
        <ele>261.8</ele>
        <time>2022-05-21 16:19:31</time>
      </trkpt>
      <trkpt lat="42.3879" lon="2.77975">
        <ele>262</ele>
        <time>2022-05-21 16:19:32</time>
      </trkpt>
      <trkpt lat="42.38788" lon="2.77972">
        <ele>262.4</ele>
        <time>2022-05-21 16:19:33</time>
      </trkpt>
      <trkpt lat="42.38787" lon="2.77969">
        <ele>262.6</ele>
        <time>2022-05-21 16:19:34</time>
      </trkpt>
      <trkpt lat="42.38785" lon="2.77966">
        <ele>262.8</ele>
        <time>2022-05-21 16:19:35</time>
      </trkpt>
      <trkpt lat="42.38784" lon="2.77963">
        <ele>263</ele>
        <time>2022-05-21 16:19:36</time>
      </trkpt>
      <trkpt lat="42.38783" lon="2.7796">
        <ele>263.2</ele>
        <time>2022-05-21 16:19:37</time>
      </trkpt>
      <trkpt lat="42.38782" lon="2.77958">
        <ele>263.4</ele>
        <time>2022-05-21 16:19:38</time>
      </trkpt>
      <trkpt lat="42.38781" lon="2.77955">
        <ele>263.6</ele>
        <time>2022-05-21 16:19:39</time>
      </trkpt>
      <trkpt lat="42.38779" lon="2.77952">
        <ele>263.6</ele>
        <time>2022-05-21 16:19:40</time>
      </trkpt>
      <trkpt lat="42.38778" lon="2.77949">
        <ele>263.8</ele>
        <time>2022-05-21 16:19:41</time>
      </trkpt>
      <trkpt lat="42.38776" lon="2.77946">
        <ele>264</ele>
        <time>2022-05-21 16:19:42</time>
      </trkpt>
      <trkpt lat="42.38774" lon="2.77944">
        <ele>264.2</ele>
        <time>2022-05-21 16:19:43</time>
      </trkpt>
      <trkpt lat="42.38773" lon="2.77941">
        <ele>264.4</ele>
        <time>2022-05-21 16:19:44</time>
      </trkpt>
      <trkpt lat="42.38771" lon="2.77939">
        <ele>264.6</ele>
        <time>2022-05-21 16:19:45</time>
      </trkpt>
      <trkpt lat="42.38769" lon="2.77936">
        <ele>264.6</ele>
        <time>2022-05-21 16:19:46</time>
      </trkpt>
      <trkpt lat="42.38768" lon="2.77934">
        <ele>264.8</ele>
        <time>2022-05-21 16:19:47</time>
      </trkpt>
      <trkpt lat="42.38766" lon="2.77931">
        <ele>265</ele>
        <time>2022-05-21 16:19:48</time>
      </trkpt>
      <trkpt lat="42.38764" lon="2.77929">
        <ele>265.2</ele>
        <time>2022-05-21 16:19:49</time>
      </trkpt>
      <trkpt lat="42.38762" lon="2.77926">
        <ele>265.2</ele>
        <time>2022-05-21 16:19:50</time>
      </trkpt>
      <trkpt lat="42.3876" lon="2.77923">
        <ele>265.4</ele>
        <time>2022-05-21 16:19:51</time>
      </trkpt>
      <trkpt lat="42.38758" lon="2.77921">
        <ele>265.6</ele>
        <time>2022-05-21 16:19:52</time>
      </trkpt>
      <trkpt lat="42.38756" lon="2.77918">
        <ele>265.8</ele>
        <time>2022-05-21 16:19:53</time>
      </trkpt>
      <trkpt lat="42.38753" lon="2.77916">
        <ele>266</ele>
        <time>2022-05-21 16:19:54</time>
      </trkpt>
      <trkpt lat="42.38751" lon="2.77914">
        <ele>266</ele>
        <time>2022-05-21 16:19:55</time>
      </trkpt>
      <trkpt lat="42.38749" lon="2.77911">
        <ele>266.2</ele>
        <time>2022-05-21 16:19:56</time>
      </trkpt>
      <trkpt lat="42.38747" lon="2.77909">
        <ele>266.4</ele>
        <time>2022-05-21 16:19:57</time>
      </trkpt>
      <trkpt lat="42.38745" lon="2.77907">
        <ele>266.6</ele>
        <time>2022-05-21 16:19:58</time>
      </trkpt>
      <trkpt lat="42.38742" lon="2.77905">
        <ele>266.8</ele>
        <time>2022-05-21 16:19:59</time>
      </trkpt>
      <trkpt lat="42.3874" lon="2.77903">
        <ele>267</ele>
        <time>2022-05-21 16:20:00</time>
      </trkpt>
      <trkpt lat="42.38738" lon="2.77901">
        <ele>267.2</ele>
        <time>2022-05-21 16:20:01</time>
      </trkpt>
      <trkpt lat="42.38736" lon="2.77899">
        <ele>267.2</ele>
        <time>2022-05-21 16:20:02</time>
      </trkpt>
      <trkpt lat="42.38733" lon="2.77898">
        <ele>267.4</ele>
        <time>2022-05-21 16:20:03</time>
      </trkpt>
      <trkpt lat="42.38731" lon="2.77896">
        <ele>267.6</ele>
        <time>2022-05-21 16:20:04</time>
      </trkpt>
      <trkpt lat="42.38729" lon="2.77895">
        <ele>267.8</ele>
        <time>2022-05-21 16:20:05</time>
      </trkpt>
      <trkpt lat="42.38727" lon="2.77893">
        <ele>268</ele>
        <time>2022-05-21 16:20:06</time>
      </trkpt>
      <trkpt lat="42.38724" lon="2.77892">
        <ele>268.2</ele>
        <time>2022-05-21 16:20:07</time>
      </trkpt>
      <trkpt lat="42.38722" lon="2.77891">
        <ele>268.4</ele>
        <time>2022-05-21 16:20:08</time>
      </trkpt>
      <trkpt lat="42.3872" lon="2.7789">
        <ele>268.6</ele>
        <time>2022-05-21 16:20:09</time>
      </trkpt>
      <trkpt lat="42.38718" lon="2.77889">
        <ele>268.8</ele>
        <time>2022-05-21 16:20:10</time>
      </trkpt>
      <trkpt lat="42.38715" lon="2.77889">
        <ele>269</ele>
        <time>2022-05-21 16:20:11</time>
      </trkpt>
      <trkpt lat="42.38713" lon="2.77888">
        <ele>269</ele>
        <time>2022-05-21 16:20:12</time>
      </trkpt>
      <trkpt lat="42.38711" lon="2.77888">
        <ele>269.2</ele>
        <time>2022-05-21 16:20:13</time>
      </trkpt>
      <trkpt lat="42.3871" lon="2.77887">
        <ele>269.4</ele>
        <time>2022-05-21 16:20:14</time>
      </trkpt>
      <trkpt lat="42.38708" lon="2.77887">
        <ele>269.6</ele>
        <time>2022-05-21 16:20:15</time>
      </trkpt>
      <trkpt lat="42.38705" lon="2.77886">
        <ele>269.8</ele>
        <time>2022-05-21 16:20:16</time>
      </trkpt>
      <trkpt lat="42.38703" lon="2.77886">
        <ele>270</ele>
        <time>2022-05-21 16:20:17</time>
      </trkpt>
      <trkpt lat="42.38701" lon="2.77886">
        <ele>270.2</ele>
        <time>2022-05-21 16:20:18</time>
      </trkpt>
      <trkpt lat="42.38699" lon="2.77886">
        <ele>270.4</ele>
        <time>2022-05-21 16:20:19</time>
      </trkpt>
      <trkpt lat="42.38697" lon="2.77886">
        <ele>270.6</ele>
        <time>2022-05-21 16:20:20</time>
      </trkpt>
      <trkpt lat="42.38694" lon="2.77886">
        <ele>270.8</ele>
        <time>2022-05-21 16:20:21</time>
      </trkpt>
      <trkpt lat="42.38692" lon="2.77885">
        <ele>271</ele>
        <time>2022-05-21 16:20:22</time>
      </trkpt>
      <trkpt lat="42.3869" lon="2.77885">
        <ele>271.2</ele>
        <time>2022-05-21 16:20:23</time>
      </trkpt>
      <trkpt lat="42.38688" lon="2.77885">
        <ele>271.4</ele>
        <time>2022-05-21 16:20:24</time>
      </trkpt>
      <trkpt lat="42.38686" lon="2.77885">
        <ele>271.6</ele>
        <time>2022-05-21 16:20:25</time>
      </trkpt>
      <trkpt lat="42.38684" lon="2.77885">
        <ele>271.8</ele>
        <time>2022-05-21 16:20:26</time>
      </trkpt>
      <trkpt lat="42.38682" lon="2.77885">
        <ele>271.8</ele>
        <time>2022-05-21 16:20:27</time>
      </trkpt>
      <trkpt lat="42.3868" lon="2.77885">
        <ele>272</ele>
        <time>2022-05-21 16:20:28</time>
      </trkpt>
      <trkpt lat="42.38677" lon="2.77885">
        <ele>272.2</ele>
        <time>2022-05-21 16:20:29</time>
      </trkpt>
      <trkpt lat="42.38675" lon="2.77884">
        <ele>272.4</ele>
        <time>2022-05-21 16:20:30</time>
      </trkpt>
      <trkpt lat="42.38673" lon="2.77884">
        <ele>272.6</ele>
        <time>2022-05-21 16:20:31</time>
      </trkpt>
      <trkpt lat="42.38671" lon="2.77884">
        <ele>272.8</ele>
        <time>2022-05-21 16:20:32</time>
      </trkpt>
      <trkpt lat="42.38669" lon="2.77884">
        <ele>273</ele>
        <time>2022-05-21 16:20:33</time>
      </trkpt>
      <trkpt lat="42.38667" lon="2.77884">
        <ele>273.2</ele>
        <time>2022-05-21 16:20:34</time>
      </trkpt>
      <trkpt lat="42.38665" lon="2.77884">
        <ele>273.4</ele>
        <time>2022-05-21 16:20:35</time>
      </trkpt>
      <trkpt lat="42.38663" lon="2.77884">
        <ele>273.6</ele>
        <time>2022-05-21 16:20:36</time>
      </trkpt>
      <trkpt lat="42.38661" lon="2.77884">
        <ele>273.6</ele>
        <time>2022-05-21 16:20:37</time>
      </trkpt>
      <trkpt lat="42.38659" lon="2.77884">
        <ele>273.8</ele>
        <time>2022-05-21 16:20:38</time>
      </trkpt>
      <trkpt lat="42.38657" lon="2.77884">
        <ele>274</ele>
        <time>2022-05-21 16:20:39</time>
      </trkpt>
      <trkpt lat="42.38655" lon="2.77884">
        <ele>274.2</ele>
        <time>2022-05-21 16:20:40</time>
      </trkpt>
      <trkpt lat="42.38653" lon="2.77884">
        <ele>274.4</ele>
        <time>2022-05-21 16:20:41</time>
      </trkpt>
      <trkpt lat="42.38651" lon="2.77884">
        <ele>274.6</ele>
        <time>2022-05-21 16:20:42</time>
      </trkpt>
      <trkpt lat="42.38648" lon="2.77884">
        <ele>274.8</ele>
        <time>2022-05-21 16:20:43</time>
      </trkpt>
      <trkpt lat="42.38647" lon="2.77884">
        <ele>275</ele>
        <time>2022-05-21 16:20:44</time>
      </trkpt>
      <trkpt lat="42.38645" lon="2.77883">
        <ele>275.2</ele>
        <time>2022-05-21 16:20:45</time>
      </trkpt>
      <trkpt lat="42.38643" lon="2.77882">
        <ele>275.4</ele>
        <time>2022-05-21 16:20:46</time>
      </trkpt>
      <trkpt lat="42.38641" lon="2.77882">
        <ele>275.6</ele>
        <time>2022-05-21 16:20:47</time>
      </trkpt>
      <trkpt lat="42.38639" lon="2.77881">
        <ele>275.8</ele>
        <time>2022-05-21 16:20:48</time>
      </trkpt>
      <trkpt lat="42.38637" lon="2.7788">
        <ele>276</ele>
        <time>2022-05-21 16:20:49</time>
      </trkpt>
      <trkpt lat="42.38635" lon="2.77879">
        <ele>276</ele>
        <time>2022-05-21 16:20:50</time>
      </trkpt>
      <trkpt lat="42.38633" lon="2.77878">
        <ele>276.2</ele>
        <time>2022-05-21 16:20:51</time>
      </trkpt>
      <trkpt lat="42.38631" lon="2.77877">
        <ele>276.4</ele>
        <time>2022-05-21 16:20:52</time>
      </trkpt>
      <trkpt lat="42.38629" lon="2.77876">
        <ele>276.6</ele>
        <time>2022-05-21 16:20:53</time>
      </trkpt>
      <trkpt lat="42.38627" lon="2.77875">
        <ele>276.8</ele>
        <time>2022-05-21 16:20:54</time>
      </trkpt>
      <trkpt lat="42.38626" lon="2.77874">
        <ele>277</ele>
        <time>2022-05-21 16:20:55</time>
      </trkpt>
      <trkpt lat="42.38624" lon="2.77873">
        <ele>277.2</ele>
        <time>2022-05-21 16:20:56</time>
      </trkpt>
      <trkpt lat="42.38622" lon="2.77872">
        <ele>277.4</ele>
        <time>2022-05-21 16:20:57</time>
      </trkpt>
      <trkpt lat="42.3862" lon="2.77871">
        <ele>277.6</ele>
        <time>2022-05-21 16:20:58</time>
      </trkpt>
      <trkpt lat="42.38618" lon="2.77869">
        <ele>277.8</ele>
        <time>2022-05-21 16:20:59</time>
      </trkpt>
      <trkpt lat="42.38616" lon="2.77868">
        <ele>278</ele>
        <time>2022-05-21 16:21:00</time>
      </trkpt>
      <trkpt lat="42.38615" lon="2.77866">
        <ele>278.2</ele>
        <time>2022-05-21 16:21:01</time>
      </trkpt>
      <trkpt lat="42.38613" lon="2.77864">
        <ele>278.2</ele>
        <time>2022-05-21 16:21:02</time>
      </trkpt>
      <trkpt lat="42.38611" lon="2.77862">
        <ele>278.6</ele>
        <time>2022-05-21 16:21:03</time>
      </trkpt>
      <trkpt lat="42.38609" lon="2.7786">
        <ele>278.8</ele>
        <time>2022-05-21 16:21:04</time>
      </trkpt>
      <trkpt lat="42.38607" lon="2.77858">
        <ele>279</ele>
        <time>2022-05-21 16:21:05</time>
      </trkpt>
      <trkpt lat="42.38606" lon="2.77857">
        <ele>279.2</ele>
        <time>2022-05-21 16:21:06</time>
      </trkpt>
      <trkpt lat="42.38604" lon="2.77855">
        <ele>279.4</ele>
        <time>2022-05-21 16:21:07</time>
      </trkpt>
      <trkpt lat="42.38602" lon="2.77854">
        <ele>279.6</ele>
        <time>2022-05-21 16:21:08</time>
      </trkpt>
      <trkpt lat="42.38601" lon="2.77852">
        <ele>279.8</ele>
        <time>2022-05-21 16:21:09</time>
      </trkpt>
      <trkpt lat="42.38599" lon="2.7785">
        <ele>280</ele>
        <time>2022-05-21 16:21:10</time>
      </trkpt>
      <trkpt lat="42.38598" lon="2.77848">
        <ele>280.2</ele>
        <time>2022-05-21 16:21:11</time>
      </trkpt>
      <trkpt lat="42.38596" lon="2.77846">
        <ele>280.4</ele>
        <time>2022-05-21 16:21:12</time>
      </trkpt>
      <trkpt lat="42.38595" lon="2.77844">
        <ele>280.6</ele>
        <time>2022-05-21 16:21:13</time>
      </trkpt>
      <trkpt lat="42.38594" lon="2.77842">
        <ele>280.8</ele>
        <time>2022-05-21 16:21:14</time>
      </trkpt>
      <trkpt lat="42.38592" lon="2.7784">
        <ele>281</ele>
        <time>2022-05-21 16:21:15</time>
      </trkpt>
      <trkpt lat="42.38591" lon="2.77838">
        <ele>281.2</ele>
        <time>2022-05-21 16:21:16</time>
      </trkpt>
      <trkpt lat="42.3859" lon="2.77836">
        <ele>281.4</ele>
        <time>2022-05-21 16:21:17</time>
      </trkpt>
      <trkpt lat="42.38588" lon="2.77834">
        <ele>281.6</ele>
        <time>2022-05-21 16:21:18</time>
      </trkpt>
      <trkpt lat="42.38586" lon="2.77832">
        <ele>281.8</ele>
        <time>2022-05-21 16:21:19</time>
      </trkpt>
      <trkpt lat="42.38585" lon="2.7783">
        <ele>282</ele>
        <time>2022-05-21 16:21:20</time>
      </trkpt>
      <trkpt lat="42.38584" lon="2.77828">
        <ele>282</ele>
        <time>2022-05-21 16:21:21</time>
      </trkpt>
      <trkpt lat="42.38582" lon="2.77827">
        <ele>282.2</ele>
        <time>2022-05-21 16:21:22</time>
      </trkpt>
      <trkpt lat="42.38581" lon="2.77825">
        <ele>282.4</ele>
        <time>2022-05-21 16:21:23</time>
      </trkpt>
      <trkpt lat="42.38579" lon="2.77823">
        <ele>282.6</ele>
        <time>2022-05-21 16:21:24</time>
      </trkpt>
      <trkpt lat="42.38578" lon="2.77822">
        <ele>282.8</ele>
        <time>2022-05-21 16:21:25</time>
      </trkpt>
      <trkpt lat="42.38576" lon="2.7782">
        <ele>283</ele>
        <time>2022-05-21 16:21:26</time>
      </trkpt>
      <trkpt lat="42.38575" lon="2.77818">
        <ele>283.2</ele>
        <time>2022-05-21 16:21:27</time>
      </trkpt>
      <trkpt lat="42.38573" lon="2.77816">
        <ele>283.4</ele>
        <time>2022-05-21 16:21:28</time>
      </trkpt>
      <trkpt lat="42.38572" lon="2.77815">
        <ele>283.6</ele>
        <time>2022-05-21 16:21:29</time>
      </trkpt>
      <trkpt lat="42.3857" lon="2.77813">
        <ele>283.8</ele>
        <time>2022-05-21 16:21:30</time>
      </trkpt>
      <trkpt lat="42.38568" lon="2.77812">
        <ele>284</ele>
        <time>2022-05-21 16:21:31</time>
      </trkpt>
      <trkpt lat="42.38567" lon="2.7781">
        <ele>284.2</ele>
        <time>2022-05-21 16:21:32</time>
      </trkpt>
      <trkpt lat="42.38565" lon="2.77809">
        <ele>284.4</ele>
        <time>2022-05-21 16:21:33</time>
      </trkpt>
      <trkpt lat="42.38563" lon="2.77808">
        <ele>284.6</ele>
        <time>2022-05-21 16:21:34</time>
      </trkpt>
      <trkpt lat="42.38561" lon="2.77806">
        <ele>284.8</ele>
        <time>2022-05-21 16:21:35</time>
      </trkpt>
      <trkpt lat="42.38559" lon="2.77805">
        <ele>285</ele>
        <time>2022-05-21 16:21:36</time>
      </trkpt>
      <trkpt lat="42.38557" lon="2.77804">
        <ele>285.2</ele>
        <time>2022-05-21 16:21:37</time>
      </trkpt>
      <trkpt lat="42.38555" lon="2.77803">
        <ele>285.4</ele>
        <time>2022-05-21 16:21:38</time>
      </trkpt>
      <trkpt lat="42.38553" lon="2.77802">
        <ele>285.6</ele>
        <time>2022-05-21 16:21:39</time>
      </trkpt>
      <trkpt lat="42.38551" lon="2.77801">
        <ele>285.6</ele>
        <time>2022-05-21 16:21:40</time>
      </trkpt>
      <trkpt lat="42.38549" lon="2.778">
        <ele>285.8</ele>
        <time>2022-05-21 16:21:41</time>
      </trkpt>
      <trkpt lat="42.38547" lon="2.77799">
        <ele>286</ele>
        <time>2022-05-21 16:21:42</time>
      </trkpt>
      <trkpt lat="42.38545" lon="2.77798">
        <ele>286.2</ele>
        <time>2022-05-21 16:21:43</time>
      </trkpt>
      <trkpt lat="42.38543" lon="2.77797">
        <ele>286.2</ele>
        <time>2022-05-21 16:21:44</time>
      </trkpt>
      <trkpt lat="42.38541" lon="2.77796">
        <ele>286.4</ele>
        <time>2022-05-21 16:21:45</time>
      </trkpt>
      <trkpt lat="42.38539" lon="2.77795">
        <ele>286.6</ele>
        <time>2022-05-21 16:21:46</time>
      </trkpt>
      <trkpt lat="42.38537" lon="2.77795">
        <ele>286.8</ele>
        <time>2022-05-21 16:21:47</time>
      </trkpt>
      <trkpt lat="42.38535" lon="2.77794">
        <ele>286.8</ele>
        <time>2022-05-21 16:21:48</time>
      </trkpt>
      <trkpt lat="42.38532" lon="2.77793">
        <ele>287</ele>
        <time>2022-05-21 16:21:49</time>
      </trkpt>
      <trkpt lat="42.3853" lon="2.77792">
        <ele>287.2</ele>
        <time>2022-05-21 16:21:50</time>
      </trkpt>
      <trkpt lat="42.38528" lon="2.77792">
        <ele>287.2</ele>
        <time>2022-05-21 16:21:51</time>
      </trkpt>
      <trkpt lat="42.38526" lon="2.77792">
        <ele>287.4</ele>
        <time>2022-05-21 16:21:52</time>
      </trkpt>
      <trkpt lat="42.38524" lon="2.77791">
        <ele>287.6</ele>
        <time>2022-05-21 16:21:53</time>
      </trkpt>
      <trkpt lat="42.38522" lon="2.77791">
        <ele>287.8</ele>
        <time>2022-05-21 16:21:54</time>
      </trkpt>
      <trkpt lat="42.38519" lon="2.77791">
        <ele>287.8</ele>
        <time>2022-05-21 16:21:55</time>
      </trkpt>
      <trkpt lat="42.38517" lon="2.77791">
        <ele>288</ele>
        <time>2022-05-21 16:21:56</time>
      </trkpt>
      <trkpt lat="42.38515" lon="2.7779">
        <ele>288.2</ele>
        <time>2022-05-21 16:21:57</time>
      </trkpt>
      <trkpt lat="42.38513" lon="2.77791">
        <ele>288.4</ele>
        <time>2022-05-21 16:21:58</time>
      </trkpt>
      <trkpt lat="42.38511" lon="2.77791">
        <ele>288.6</ele>
        <time>2022-05-21 16:21:59</time>
      </trkpt>
      <trkpt lat="42.38509" lon="2.77791">
        <ele>288.6</ele>
        <time>2022-05-21 16:22:00</time>
      </trkpt>
      <trkpt lat="42.38506" lon="2.77791">
        <ele>288.8</ele>
        <time>2022-05-21 16:22:01</time>
      </trkpt>
      <trkpt lat="42.38504" lon="2.77791">
        <ele>289</ele>
        <time>2022-05-21 16:22:02</time>
      </trkpt>
      <trkpt lat="42.38502" lon="2.77791">
        <ele>289.2</ele>
        <time>2022-05-21 16:22:03</time>
      </trkpt>
      <trkpt lat="42.385" lon="2.77791">
        <ele>289.2</ele>
        <time>2022-05-21 16:22:04</time>
      </trkpt>
      <trkpt lat="42.38497" lon="2.77791">
        <ele>289.4</ele>
        <time>2022-05-21 16:22:05</time>
      </trkpt>
      <trkpt lat="42.38495" lon="2.77791">
        <ele>289.6</ele>
        <time>2022-05-21 16:22:06</time>
      </trkpt>
      <trkpt lat="42.38493" lon="2.77791">
        <ele>289.6</ele>
        <time>2022-05-21 16:22:07</time>
      </trkpt>
      <trkpt lat="42.38491" lon="2.77791">
        <ele>289.8</ele>
        <time>2022-05-21 16:22:08</time>
      </trkpt>
      <trkpt lat="42.38489" lon="2.77791">
        <ele>290</ele>
        <time>2022-05-21 16:22:09</time>
      </trkpt>
      <trkpt lat="42.38487" lon="2.77791">
        <ele>290</ele>
        <time>2022-05-21 16:22:10</time>
      </trkpt>
      <trkpt lat="42.38484" lon="2.77792">
        <ele>290.2</ele>
        <time>2022-05-21 16:22:11</time>
      </trkpt>
      <trkpt lat="42.38483" lon="2.77792">
        <ele>290.2</ele>
        <time>2022-05-21 16:22:12</time>
      </trkpt>
      <trkpt lat="42.3848" lon="2.77792">
        <ele>290.4</ele>
        <time>2022-05-21 16:22:13</time>
      </trkpt>
      <trkpt lat="42.38478" lon="2.77792">
        <ele>290.6</ele>
        <time>2022-05-21 16:22:14</time>
      </trkpt>
      <trkpt lat="42.38476" lon="2.77792">
        <ele>290.6</ele>
        <time>2022-05-21 16:22:15</time>
      </trkpt>
      <trkpt lat="42.38474" lon="2.77792">
        <ele>290.8</ele>
        <time>2022-05-21 16:22:16</time>
      </trkpt>
      <trkpt lat="42.38472" lon="2.77792">
        <ele>291</ele>
        <time>2022-05-21 16:22:17</time>
      </trkpt>
      <trkpt lat="42.3847" lon="2.77791">
        <ele>291</ele>
        <time>2022-05-21 16:22:18</time>
      </trkpt>
      <trkpt lat="42.38467" lon="2.77791">
        <ele>291.2</ele>
        <time>2022-05-21 16:22:19</time>
      </trkpt>
      <trkpt lat="42.38465" lon="2.77791">
        <ele>291.2</ele>
        <time>2022-05-21 16:22:20</time>
      </trkpt>
      <trkpt lat="42.38463" lon="2.77791">
        <ele>291.4</ele>
        <time>2022-05-21 16:22:21</time>
      </trkpt>
      <trkpt lat="42.38461" lon="2.7779">
        <ele>291.6</ele>
        <time>2022-05-21 16:22:22</time>
      </trkpt>
      <trkpt lat="42.3846" lon="2.7779">
        <ele>291.6</ele>
        <time>2022-05-21 16:22:23</time>
      </trkpt>
      <trkpt lat="42.38456" lon="2.77789">
        <ele>291.8</ele>
        <time>2022-05-21 16:22:24</time>
      </trkpt>
      <trkpt lat="42.38454" lon="2.77789">
        <ele>292</ele>
        <time>2022-05-21 16:22:25</time>
      </trkpt>
      <trkpt lat="42.38452" lon="2.77788">
        <ele>292</ele>
        <time>2022-05-21 16:22:26</time>
      </trkpt>
      <trkpt lat="42.3845" lon="2.77787">
        <ele>292.2</ele>
        <time>2022-05-21 16:22:27</time>
      </trkpt>
      <trkpt lat="42.38448" lon="2.77786">
        <ele>292.4</ele>
        <time>2022-05-21 16:22:28</time>
      </trkpt>
      <trkpt lat="42.38446" lon="2.77785">
        <ele>292.4</ele>
        <time>2022-05-21 16:22:29</time>
      </trkpt>
      <trkpt lat="42.38444" lon="2.77784">
        <ele>292.6</ele>
        <time>2022-05-21 16:22:30</time>
      </trkpt>
      <trkpt lat="42.38442" lon="2.77783">
        <ele>292.8</ele>
        <time>2022-05-21 16:22:31</time>
      </trkpt>
      <trkpt lat="42.38439" lon="2.77782">
        <ele>292.8</ele>
        <time>2022-05-21 16:22:32</time>
      </trkpt>
      <trkpt lat="42.38438" lon="2.77781">
        <ele>293</ele>
        <time>2022-05-21 16:22:33</time>
      </trkpt>
      <trkpt lat="42.38435" lon="2.77779">
        <ele>293.2</ele>
        <time>2022-05-21 16:22:34</time>
      </trkpt>
      <trkpt lat="42.38433" lon="2.77778">
        <ele>293.4</ele>
        <time>2022-05-21 16:22:35</time>
      </trkpt>
      <trkpt lat="42.38431" lon="2.77776">
        <ele>293.4</ele>
        <time>2022-05-21 16:22:36</time>
      </trkpt>
      <trkpt lat="42.3843" lon="2.77775">
        <ele>293.6</ele>
        <time>2022-05-21 16:22:37</time>
      </trkpt>
      <trkpt lat="42.38428" lon="2.77773">
        <ele>293.8</ele>
        <time>2022-05-21 16:22:38</time>
      </trkpt>
      <trkpt lat="42.38426" lon="2.77771">
        <ele>294</ele>
        <time>2022-05-21 16:22:39</time>
      </trkpt>
      <trkpt lat="42.38424" lon="2.77769">
        <ele>294</ele>
        <time>2022-05-21 16:22:40</time>
      </trkpt>
      <trkpt lat="42.38423" lon="2.77768">
        <ele>294.2</ele>
        <time>2022-05-21 16:22:41</time>
      </trkpt>
      <trkpt lat="42.38421" lon="2.77766">
        <ele>294.2</ele>
        <time>2022-05-21 16:22:42</time>
      </trkpt>
      <trkpt lat="42.38419" lon="2.77764">
        <ele>294.4</ele>
        <time>2022-05-21 16:22:43</time>
      </trkpt>
      <trkpt lat="42.38418" lon="2.77762">
        <ele>294.6</ele>
        <time>2022-05-21 16:22:44</time>
      </trkpt>
      <trkpt lat="42.38416" lon="2.7776">
        <ele>294.6</ele>
        <time>2022-05-21 16:22:45</time>
      </trkpt>
      <trkpt lat="42.38414" lon="2.77758">
        <ele>294.8</ele>
        <time>2022-05-21 16:22:46</time>
      </trkpt>
      <trkpt lat="42.38413" lon="2.77756">
        <ele>295</ele>
        <time>2022-05-21 16:22:47</time>
      </trkpt>
      <trkpt lat="42.38411" lon="2.77754">
        <ele>295.2</ele>
        <time>2022-05-21 16:22:48</time>
      </trkpt>
      <trkpt lat="42.38409" lon="2.77751">
        <ele>295.2</ele>
        <time>2022-05-21 16:22:49</time>
      </trkpt>
      <trkpt lat="42.38408" lon="2.77749">
        <ele>295.4</ele>
        <time>2022-05-21 16:22:50</time>
      </trkpt>
      <trkpt lat="42.38407" lon="2.77747">
        <ele>295.4</ele>
        <time>2022-05-21 16:22:51</time>
      </trkpt>
      <trkpt lat="42.38406" lon="2.77744">
        <ele>295.6</ele>
        <time>2022-05-21 16:22:52</time>
      </trkpt>
      <trkpt lat="42.38404" lon="2.77742">
        <ele>295.6</ele>
        <time>2022-05-21 16:22:53</time>
      </trkpt>
      <trkpt lat="42.38403" lon="2.77739">
        <ele>295.8</ele>
        <time>2022-05-21 16:22:54</time>
      </trkpt>
      <trkpt lat="42.38402" lon="2.77736">
        <ele>296</ele>
        <time>2022-05-21 16:22:55</time>
      </trkpt>
      <trkpt lat="42.384" lon="2.77733">
        <ele>296</ele>
        <time>2022-05-21 16:22:56</time>
      </trkpt>
      <trkpt lat="42.38399" lon="2.7773">
        <ele>296</ele>
        <time>2022-05-21 16:22:57</time>
      </trkpt>
      <trkpt lat="42.38398" lon="2.77727">
        <ele>296.2</ele>
        <time>2022-05-21 16:22:58</time>
      </trkpt>
      <trkpt lat="42.38397" lon="2.77724">
        <ele>296.2</ele>
        <time>2022-05-21 16:22:59</time>
      </trkpt>
      <trkpt lat="42.38396" lon="2.77721">
        <ele>296.4</ele>
        <time>2022-05-21 16:23:00</time>
      </trkpt>
      <trkpt lat="42.38395" lon="2.77718">
        <ele>296.6</ele>
        <time>2022-05-21 16:23:01</time>
      </trkpt>
      <trkpt lat="42.38395" lon="2.77716">
        <ele>296.6</ele>
        <time>2022-05-21 16:23:02</time>
      </trkpt>
      <trkpt lat="42.38394" lon="2.77713">
        <ele>296.8</ele>
        <time>2022-05-21 16:23:03</time>
      </trkpt>
      <trkpt lat="42.38394" lon="2.7771">
        <ele>297</ele>
        <time>2022-05-21 16:23:04</time>
      </trkpt>
      <trkpt lat="42.38393" lon="2.77707">
        <ele>297</ele>
        <time>2022-05-21 16:23:05</time>
      </trkpt>
      <trkpt lat="42.38393" lon="2.77704">
        <ele>297.2</ele>
        <time>2022-05-21 16:23:06</time>
      </trkpt>
      <trkpt lat="42.38392" lon="2.77701">
        <ele>297.4</ele>
        <time>2022-05-21 16:23:07</time>
      </trkpt>
      <trkpt lat="42.38392" lon="2.77698">
        <ele>297.6</ele>
        <time>2022-05-21 16:23:08</time>
      </trkpt>
      <trkpt lat="42.38391" lon="2.77695">
        <ele>297.8</ele>
        <time>2022-05-21 16:23:09</time>
      </trkpt>
      <trkpt lat="42.38391" lon="2.77692">
        <ele>297.8</ele>
        <time>2022-05-21 16:23:10</time>
      </trkpt>
      <trkpt lat="42.38391" lon="2.77689">
        <ele>298</ele>
        <time>2022-05-21 16:23:11</time>
      </trkpt>
      <trkpt lat="42.3839" lon="2.77686">
        <ele>298.2</ele>
        <time>2022-05-21 16:23:12</time>
      </trkpt>
      <trkpt lat="42.3839" lon="2.77683">
        <ele>298.4</ele>
        <time>2022-05-21 16:23:13</time>
      </trkpt>
      <trkpt lat="42.3839" lon="2.7768">
        <ele>298.6</ele>
        <time>2022-05-21 16:23:14</time>
      </trkpt>
      <trkpt lat="42.3839" lon="2.77677">
        <ele>298.8</ele>
        <time>2022-05-21 16:23:15</time>
      </trkpt>
      <trkpt lat="42.3839" lon="2.77674">
        <ele>299</ele>
        <time>2022-05-21 16:23:16</time>
      </trkpt>
      <trkpt lat="42.3839" lon="2.77671">
        <ele>299.2</ele>
        <time>2022-05-21 16:23:17</time>
      </trkpt>
      <trkpt lat="42.3839" lon="2.77668">
        <ele>299.2</ele>
        <time>2022-05-21 16:23:18</time>
      </trkpt>
      <trkpt lat="42.3839" lon="2.77665">
        <ele>299.4</ele>
        <time>2022-05-21 16:23:19</time>
      </trkpt>
      <trkpt lat="42.38391" lon="2.77662">
        <ele>299.6</ele>
        <time>2022-05-21 16:23:20</time>
      </trkpt>
      <trkpt lat="42.38391" lon="2.77659">
        <ele>299.8</ele>
        <time>2022-05-21 16:23:21</time>
      </trkpt>
      <trkpt lat="42.38391" lon="2.77656">
        <ele>300</ele>
        <time>2022-05-21 16:23:22</time>
      </trkpt>
      <trkpt lat="42.38391" lon="2.77653">
        <ele>300.2</ele>
        <time>2022-05-21 16:23:23</time>
      </trkpt>
      <trkpt lat="42.38391" lon="2.7765">
        <ele>300.2</ele>
        <time>2022-05-21 16:23:24</time>
      </trkpt>
      <trkpt lat="42.38392" lon="2.77647">
        <ele>300.4</ele>
        <time>2022-05-21 16:23:25</time>
      </trkpt>
      <trkpt lat="42.38392" lon="2.77644">
        <ele>300.6</ele>
        <time>2022-05-21 16:23:26</time>
      </trkpt>
      <trkpt lat="42.38393" lon="2.77641">
        <ele>300.8</ele>
        <time>2022-05-21 16:23:27</time>
      </trkpt>
      <trkpt lat="42.38394" lon="2.77639">
        <ele>300.8</ele>
        <time>2022-05-21 16:23:28</time>
      </trkpt>
      <trkpt lat="42.38394" lon="2.77636">
        <ele>301</ele>
        <time>2022-05-21 16:23:29</time>
      </trkpt>
      <trkpt lat="42.38395" lon="2.77634">
        <ele>301.2</ele>
        <time>2022-05-21 16:23:30</time>
      </trkpt>
      <trkpt lat="42.38396" lon="2.77631">
        <ele>301.2</ele>
        <time>2022-05-21 16:23:31</time>
      </trkpt>
      <trkpt lat="42.38396" lon="2.77628">
        <ele>301.4</ele>
        <time>2022-05-21 16:23:32</time>
      </trkpt>
      <trkpt lat="42.38397" lon="2.77626">
        <ele>301.6</ele>
        <time>2022-05-21 16:23:33</time>
      </trkpt>
      <trkpt lat="42.38398" lon="2.77623">
        <ele>301.8</ele>
        <time>2022-05-21 16:23:34</time>
      </trkpt>
      <trkpt lat="42.38399" lon="2.77621">
        <ele>301.8</ele>
        <time>2022-05-21 16:23:35</time>
      </trkpt>
      <trkpt lat="42.384" lon="2.77618">
        <ele>302</ele>
        <time>2022-05-21 16:23:36</time>
      </trkpt>
      <trkpt lat="42.38401" lon="2.77616">
        <ele>302.2</ele>
        <time>2022-05-21 16:23:37</time>
      </trkpt>
      <trkpt lat="42.38403" lon="2.77613">
        <ele>302.2</ele>
        <time>2022-05-21 16:23:38</time>
      </trkpt>
      <trkpt lat="42.38403" lon="2.77611">
        <ele>302.4</ele>
        <time>2022-05-21 16:23:39</time>
      </trkpt>
      <trkpt lat="42.38405" lon="2.77609">
        <ele>302.6</ele>
        <time>2022-05-21 16:23:40</time>
      </trkpt>
      <trkpt lat="42.38406" lon="2.77606">
        <ele>302.6</ele>
        <time>2022-05-21 16:23:41</time>
      </trkpt>
      <trkpt lat="42.38407" lon="2.77604">
        <ele>302.8</ele>
        <time>2022-05-21 16:23:42</time>
      </trkpt>
      <trkpt lat="42.38408" lon="2.77602">
        <ele>303</ele>
        <time>2022-05-21 16:23:43</time>
      </trkpt>
      <trkpt lat="42.3841" lon="2.77599">
        <ele>303</ele>
        <time>2022-05-21 16:23:44</time>
      </trkpt>
      <trkpt lat="42.38411" lon="2.77597">
        <ele>303.2</ele>
        <time>2022-05-21 16:23:45</time>
      </trkpt>
      <trkpt lat="42.38412" lon="2.77595">
        <ele>303.4</ele>
        <time>2022-05-21 16:23:46</time>
      </trkpt>
      <trkpt lat="42.38413" lon="2.77592">
        <ele>303.4</ele>
        <time>2022-05-21 16:23:47</time>
      </trkpt>
      <trkpt lat="42.38414" lon="2.7759">
        <ele>303.6</ele>
        <time>2022-05-21 16:23:48</time>
      </trkpt>
      <trkpt lat="42.38416" lon="2.77587">
        <ele>303.8</ele>
        <time>2022-05-21 16:23:49</time>
      </trkpt>
      <trkpt lat="42.38417" lon="2.77585">
        <ele>304</ele>
        <time>2022-05-21 16:23:50</time>
      </trkpt>
      <trkpt lat="42.38419" lon="2.77583">
        <ele>304</ele>
        <time>2022-05-21 16:23:51</time>
      </trkpt>
      <trkpt lat="42.3842" lon="2.7758">
        <ele>304.2</ele>
        <time>2022-05-21 16:23:52</time>
      </trkpt>
      <trkpt lat="42.38421" lon="2.77578">
        <ele>304.4</ele>
        <time>2022-05-21 16:23:53</time>
      </trkpt>
      <trkpt lat="42.38423" lon="2.77576">
        <ele>304.4</ele>
        <time>2022-05-21 16:23:54</time>
      </trkpt>
      <trkpt lat="42.38424" lon="2.77574">
        <ele>304.6</ele>
        <time>2022-05-21 16:23:55</time>
      </trkpt>
      <trkpt lat="42.38426" lon="2.77571">
        <ele>304.8</ele>
        <time>2022-05-21 16:23:56</time>
      </trkpt>
      <trkpt lat="42.38427" lon="2.77569">
        <ele>304.8</ele>
        <time>2022-05-21 16:23:57</time>
      </trkpt>
      <trkpt lat="42.38428" lon="2.77567">
        <ele>305</ele>
        <time>2022-05-21 16:23:58</time>
      </trkpt>
      <trkpt lat="42.38429" lon="2.77565">
        <ele>305.2</ele>
        <time>2022-05-21 16:23:59</time>
      </trkpt>
      <trkpt lat="42.38431" lon="2.77563">
        <ele>305.2</ele>
        <time>2022-05-21 16:24:00</time>
      </trkpt>
      <trkpt lat="42.38432" lon="2.7756">
        <ele>305.4</ele>
        <time>2022-05-21 16:24:01</time>
      </trkpt>
      <trkpt lat="42.38433" lon="2.77558">
        <ele>305.6</ele>
        <time>2022-05-21 16:24:02</time>
      </trkpt>
      <trkpt lat="42.38435" lon="2.77556">
        <ele>305.6</ele>
        <time>2022-05-21 16:24:03</time>
      </trkpt>
      <trkpt lat="42.38436" lon="2.77554">
        <ele>305.8</ele>
        <time>2022-05-21 16:24:04</time>
      </trkpt>
      <trkpt lat="42.38437" lon="2.77552">
        <ele>306</ele>
        <time>2022-05-21 16:24:05</time>
      </trkpt>
      <trkpt lat="42.38438" lon="2.7755">
        <ele>306</ele>
        <time>2022-05-21 16:24:06</time>
      </trkpt>
      <trkpt lat="42.3844" lon="2.77548">
        <ele>306.2</ele>
        <time>2022-05-21 16:24:07</time>
      </trkpt>
      <trkpt lat="42.38441" lon="2.77545">
        <ele>306.4</ele>
        <time>2022-05-21 16:24:08</time>
      </trkpt>
      <trkpt lat="42.38443" lon="2.77543">
        <ele>306.4</ele>
        <time>2022-05-21 16:24:09</time>
      </trkpt>
      <trkpt lat="42.38444" lon="2.77541">
        <ele>306.6</ele>
        <time>2022-05-21 16:24:10</time>
      </trkpt>
      <trkpt lat="42.38446" lon="2.77539">
        <ele>306.8</ele>
        <time>2022-05-21 16:24:11</time>
      </trkpt>
      <trkpt lat="42.38448" lon="2.77537">
        <ele>306.8</ele>
        <time>2022-05-21 16:24:12</time>
      </trkpt>
      <trkpt lat="42.38449" lon="2.77535">
        <ele>307</ele>
        <time>2022-05-21 16:24:13</time>
      </trkpt>
      <trkpt lat="42.3845" lon="2.77533">
        <ele>307.2</ele>
        <time>2022-05-21 16:24:14</time>
      </trkpt>
      <trkpt lat="42.38452" lon="2.7753">
        <ele>307.2</ele>
        <time>2022-05-21 16:24:15</time>
      </trkpt>
      <trkpt lat="42.38453" lon="2.77528">
        <ele>307.4</ele>
        <time>2022-05-21 16:24:16</time>
      </trkpt>
      <trkpt lat="42.38454" lon="2.77526">
        <ele>307.6</ele>
        <time>2022-05-21 16:24:17</time>
      </trkpt>
      <trkpt lat="42.38455" lon="2.77524">
        <ele>307.6</ele>
        <time>2022-05-21 16:24:18</time>
      </trkpt>
      <trkpt lat="42.38457" lon="2.77522">
        <ele>307.8</ele>
        <time>2022-05-21 16:24:19</time>
      </trkpt>
      <trkpt lat="42.38458" lon="2.7752">
        <ele>308</ele>
        <time>2022-05-21 16:24:20</time>
      </trkpt>
      <trkpt lat="42.3846" lon="2.77518">
        <ele>308</ele>
        <time>2022-05-21 16:24:21</time>
      </trkpt>
      <trkpt lat="42.38461" lon="2.77515">
        <ele>308.2</ele>
        <time>2022-05-21 16:24:22</time>
      </trkpt>
      <trkpt lat="42.38462" lon="2.77513">
        <ele>308.4</ele>
        <time>2022-05-21 16:24:23</time>
      </trkpt>
      <trkpt lat="42.38464" lon="2.77511">
        <ele>308.4</ele>
        <time>2022-05-21 16:24:24</time>
      </trkpt>
      <trkpt lat="42.38465" lon="2.77509">
        <ele>308.6</ele>
        <time>2022-05-21 16:24:25</time>
      </trkpt>
      <trkpt lat="42.38467" lon="2.77507">
        <ele>308.8</ele>
        <time>2022-05-21 16:24:26</time>
      </trkpt>
      <trkpt lat="42.38468" lon="2.77505">
        <ele>308.8</ele>
        <time>2022-05-21 16:24:27</time>
      </trkpt>
      <trkpt lat="42.38469" lon="2.77503">
        <ele>309</ele>
        <time>2022-05-21 16:24:28</time>
      </trkpt>
      <trkpt lat="42.38471" lon="2.775">
        <ele>309</ele>
        <time>2022-05-21 16:24:29</time>
      </trkpt>
      <trkpt lat="42.38472" lon="2.77498">
        <ele>309.2</ele>
        <time>2022-05-21 16:24:30</time>
      </trkpt>
      <trkpt lat="42.38474" lon="2.77495">
        <ele>309.4</ele>
        <time>2022-05-21 16:24:31</time>
      </trkpt>
      <trkpt lat="42.38475" lon="2.77493">
        <ele>309.4</ele>
        <time>2022-05-21 16:24:32</time>
      </trkpt>
      <trkpt lat="42.38477" lon="2.7749">
        <ele>309.6</ele>
        <time>2022-05-21 16:24:33</time>
      </trkpt>
      <trkpt lat="42.38478" lon="2.77487">
        <ele>309.8</ele>
        <time>2022-05-21 16:24:34</time>
      </trkpt>
      <trkpt lat="42.3848" lon="2.77485">
        <ele>309.8</ele>
        <time>2022-05-21 16:24:35</time>
      </trkpt>
      <trkpt lat="42.38481" lon="2.77482">
        <ele>310</ele>
        <time>2022-05-21 16:24:36</time>
      </trkpt>
      <trkpt lat="42.38483" lon="2.77479">
        <ele>310</ele>
        <time>2022-05-21 16:24:37</time>
      </trkpt>
      <trkpt lat="42.38485" lon="2.77476">
        <ele>310.2</ele>
        <time>2022-05-21 16:24:38</time>
      </trkpt>
      <trkpt lat="42.38486" lon="2.77474">
        <ele>310.4</ele>
        <time>2022-05-21 16:24:39</time>
      </trkpt>
      <trkpt lat="42.38488" lon="2.77471">
        <ele>310.4</ele>
        <time>2022-05-21 16:24:40</time>
      </trkpt>
      <trkpt lat="42.38489" lon="2.77468">
        <ele>310.6</ele>
        <time>2022-05-21 16:24:41</time>
      </trkpt>
      <trkpt lat="42.38491" lon="2.77465">
        <ele>310.6</ele>
        <time>2022-05-21 16:24:42</time>
      </trkpt>
      <trkpt lat="42.38492" lon="2.77463">
        <ele>310.8</ele>
        <time>2022-05-21 16:24:43</time>
      </trkpt>
      <trkpt lat="42.38494" lon="2.7746">
        <ele>310.8</ele>
        <time>2022-05-21 16:24:44</time>
      </trkpt>
      <trkpt lat="42.38495" lon="2.77457">
        <ele>311</ele>
        <time>2022-05-21 16:24:45</time>
      </trkpt>
      <trkpt lat="42.38497" lon="2.77454">
        <ele>311</ele>
        <time>2022-05-21 16:24:46</time>
      </trkpt>
      <trkpt lat="42.38498" lon="2.77451">
        <ele>311.2</ele>
        <time>2022-05-21 16:24:47</time>
      </trkpt>
      <trkpt lat="42.385" lon="2.77448">
        <ele>311.2</ele>
        <time>2022-05-21 16:24:48</time>
      </trkpt>
      <trkpt lat="42.38501" lon="2.77445">
        <ele>311.4</ele>
        <time>2022-05-21 16:24:49</time>
      </trkpt>
      <trkpt lat="42.38503" lon="2.77443">
        <ele>311.4</ele>
        <time>2022-05-21 16:24:50</time>
      </trkpt>
      <trkpt lat="42.38505" lon="2.7744">
        <ele>311.6</ele>
        <time>2022-05-21 16:24:51</time>
      </trkpt>
      <trkpt lat="42.38506" lon="2.77437">
        <ele>311.6</ele>
        <time>2022-05-21 16:24:52</time>
      </trkpt>
      <trkpt lat="42.38508" lon="2.77434">
        <ele>311.8</ele>
        <time>2022-05-21 16:24:53</time>
      </trkpt>
      <trkpt lat="42.3851" lon="2.77431">
        <ele>311.8</ele>
        <time>2022-05-21 16:24:54</time>
      </trkpt>
      <trkpt lat="42.38511" lon="2.77428">
        <ele>312</ele>
        <time>2022-05-21 16:24:55</time>
      </trkpt>
      <trkpt lat="42.38512" lon="2.77425">
        <ele>312</ele>
        <time>2022-05-21 16:24:56</time>
      </trkpt>
      <trkpt lat="42.38514" lon="2.77422">
        <ele>312</ele>
        <time>2022-05-21 16:24:57</time>
      </trkpt>
      <trkpt lat="42.38516" lon="2.77418">
        <ele>312.2</ele>
        <time>2022-05-21 16:24:58</time>
      </trkpt>
      <trkpt lat="42.38518" lon="2.77415">
        <ele>312.2</ele>
        <time>2022-05-21 16:24:59</time>
      </trkpt>
      <trkpt lat="42.38519" lon="2.77412">
        <ele>312.2</ele>
        <time>2022-05-21 16:25:00</time>
      </trkpt>
      <trkpt lat="42.38521" lon="2.77408">
        <ele>312.2</ele>
        <time>2022-05-21 16:25:01</time>
      </trkpt>
      <trkpt lat="42.38523" lon="2.77405">
        <ele>312.4</ele>
        <time>2022-05-21 16:25:02</time>
      </trkpt>
      <trkpt lat="42.38524" lon="2.77401">
        <ele>312.4</ele>
        <time>2022-05-21 16:25:03</time>
      </trkpt>
      <trkpt lat="42.38526" lon="2.77397">
        <ele>312.4</ele>
        <time>2022-05-21 16:25:04</time>
      </trkpt>
      <trkpt lat="42.38528" lon="2.77393">
        <ele>312.4</ele>
        <time>2022-05-21 16:25:05</time>
      </trkpt>
      <trkpt lat="42.3853" lon="2.77389">
        <ele>312.4</ele>
        <time>2022-05-21 16:25:06</time>
      </trkpt>
      <trkpt lat="42.38531" lon="2.77385">
        <ele>312.4</ele>
        <time>2022-05-21 16:25:07</time>
      </trkpt>
      <trkpt lat="42.38533" lon="2.7738">
        <ele>312.6</ele>
        <time>2022-05-21 16:25:08</time>
      </trkpt>
      <trkpt lat="42.38534" lon="2.77376">
        <ele>312.6</ele>
        <time>2022-05-21 16:25:09</time>
      </trkpt>
      <trkpt lat="42.38536" lon="2.77372">
        <ele>312.6</ele>
        <time>2022-05-21 16:25:10</time>
      </trkpt>
      <trkpt lat="42.38537" lon="2.77367">
        <ele>312.6</ele>
        <time>2022-05-21 16:25:11</time>
      </trkpt>
      <trkpt lat="42.38539" lon="2.77363">
        <ele>312.6</ele>
        <time>2022-05-21 16:25:12</time>
      </trkpt>
      <trkpt lat="42.38541" lon="2.77358">
        <ele>312.6</ele>
        <time>2022-05-21 16:25:13</time>
      </trkpt>
      <trkpt lat="42.38542" lon="2.77353">
        <ele>312.6</ele>
        <time>2022-05-21 16:25:14</time>
      </trkpt>
      <trkpt lat="42.38544" lon="2.77349">
        <ele>312.8</ele>
        <time>2022-05-21 16:25:15</time>
      </trkpt>
      <trkpt lat="42.38546" lon="2.77344">
        <ele>312.8</ele>
        <time>2022-05-21 16:25:16</time>
      </trkpt>
      <trkpt lat="42.38548" lon="2.77339">
        <ele>312.8</ele>
        <time>2022-05-21 16:25:17</time>
      </trkpt>
      <trkpt lat="42.38549" lon="2.77334">
        <ele>312.8</ele>
        <time>2022-05-21 16:25:18</time>
      </trkpt>
      <trkpt lat="42.38551" lon="2.77329">
        <ele>312.8</ele>
        <time>2022-05-21 16:25:19</time>
      </trkpt>
      <trkpt lat="42.38553" lon="2.77324">
        <ele>312.8</ele>
        <time>2022-05-21 16:25:20</time>
      </trkpt>
      <trkpt lat="42.38554" lon="2.77318">
        <ele>312.8</ele>
        <time>2022-05-21 16:25:21</time>
      </trkpt>
      <trkpt lat="42.38556" lon="2.77313">
        <ele>312.8</ele>
        <time>2022-05-21 16:25:22</time>
      </trkpt>
      <trkpt lat="42.38557" lon="2.77307">
        <ele>312.8</ele>
        <time>2022-05-21 16:25:23</time>
      </trkpt>
      <trkpt lat="42.38559" lon="2.77302">
        <ele>313</ele>
        <time>2022-05-21 16:25:24</time>
      </trkpt>
      <trkpt lat="42.3856" lon="2.77297">
        <ele>313</ele>
        <time>2022-05-21 16:25:25</time>
      </trkpt>
      <trkpt lat="42.38561" lon="2.77291">
        <ele>313</ele>
        <time>2022-05-21 16:25:26</time>
      </trkpt>
      <trkpt lat="42.38563" lon="2.77286">
        <ele>313</ele>
        <time>2022-05-21 16:25:27</time>
      </trkpt>
      <trkpt lat="42.38564" lon="2.7728">
        <ele>313</ele>
        <time>2022-05-21 16:25:28</time>
      </trkpt>
      <trkpt lat="42.38565" lon="2.77275">
        <ele>313.2</ele>
        <time>2022-05-21 16:25:29</time>
      </trkpt>
      <trkpt lat="42.38567" lon="2.7727">
        <ele>313.2</ele>
        <time>2022-05-21 16:25:30</time>
      </trkpt>
      <trkpt lat="42.38568" lon="2.77264">
        <ele>313.4</ele>
        <time>2022-05-21 16:25:31</time>
      </trkpt>
      <trkpt lat="42.38569" lon="2.77259">
        <ele>313.4</ele>
        <time>2022-05-21 16:25:32</time>
      </trkpt>
      <trkpt lat="42.3857" lon="2.77253">
        <ele>313.4</ele>
        <time>2022-05-21 16:25:33</time>
      </trkpt>
      <trkpt lat="42.38571" lon="2.77248">
        <ele>313.6</ele>
        <time>2022-05-21 16:25:34</time>
      </trkpt>
      <trkpt lat="42.38572" lon="2.77242">
        <ele>313.6</ele>
        <time>2022-05-21 16:25:35</time>
      </trkpt>
      <trkpt lat="42.38573" lon="2.77236">
        <ele>313.8</ele>
        <time>2022-05-21 16:25:36</time>
      </trkpt>
      <trkpt lat="42.38574" lon="2.77231">
        <ele>313.8</ele>
        <time>2022-05-21 16:25:37</time>
      </trkpt>
      <trkpt lat="42.38575" lon="2.77225">
        <ele>313.8</ele>
        <time>2022-05-21 16:25:38</time>
      </trkpt>
      <trkpt lat="42.38576" lon="2.7722">
        <ele>314</ele>
        <time>2022-05-21 16:25:39</time>
      </trkpt>
      <trkpt lat="42.38577" lon="2.77215">
        <ele>314</ele>
        <time>2022-05-21 16:25:40</time>
      </trkpt>
      <trkpt lat="42.38578" lon="2.77209">
        <ele>314.2</ele>
        <time>2022-05-21 16:25:41</time>
      </trkpt>
      <trkpt lat="42.38579" lon="2.77204">
        <ele>314.2</ele>
        <time>2022-05-21 16:25:42</time>
      </trkpt>
      <trkpt lat="42.3858" lon="2.77198">
        <ele>314.4</ele>
        <time>2022-05-21 16:25:43</time>
      </trkpt>
      <trkpt lat="42.38581" lon="2.77193">
        <ele>314.4</ele>
        <time>2022-05-21 16:25:44</time>
      </trkpt>
      <trkpt lat="42.38581" lon="2.77188">
        <ele>314.6</ele>
        <time>2022-05-21 16:25:45</time>
      </trkpt>
      <trkpt lat="42.38582" lon="2.77183">
        <ele>314.6</ele>
        <time>2022-05-21 16:25:46</time>
      </trkpt>
      <trkpt lat="42.38583" lon="2.77178">
        <ele>314.6</ele>
        <time>2022-05-21 16:25:47</time>
      </trkpt>
      <trkpt lat="42.38584" lon="2.77173">
        <ele>314.8</ele>
        <time>2022-05-21 16:25:48</time>
      </trkpt>
      <trkpt lat="42.38584" lon="2.77167">
        <ele>314.8</ele>
        <time>2022-05-21 16:25:49</time>
      </trkpt>
      <trkpt lat="42.38585" lon="2.77162">
        <ele>315</ele>
        <time>2022-05-21 16:25:50</time>
      </trkpt>
      <trkpt lat="42.38586" lon="2.77156">
        <ele>315</ele>
        <time>2022-05-21 16:25:51</time>
      </trkpt>
      <trkpt lat="42.38587" lon="2.77151">
        <ele>315.2</ele>
        <time>2022-05-21 16:25:52</time>
      </trkpt>
      <trkpt lat="42.38587" lon="2.77146">
        <ele>315.2</ele>
        <time>2022-05-21 16:25:53</time>
      </trkpt>
      <trkpt lat="42.38588" lon="2.77141">
        <ele>315.4</ele>
        <time>2022-05-21 16:25:54</time>
      </trkpt>
      <trkpt lat="42.38588" lon="2.77136">
        <ele>315.4</ele>
        <time>2022-05-21 16:25:55</time>
      </trkpt>
      <trkpt lat="42.38589" lon="2.77131">
        <ele>315.6</ele>
        <time>2022-05-21 16:25:56</time>
      </trkpt>
      <trkpt lat="42.38589" lon="2.77127">
        <ele>315.6</ele>
        <time>2022-05-21 16:25:57</time>
      </trkpt>
      <trkpt lat="42.38589" lon="2.77122">
        <ele>315.8</ele>
        <time>2022-05-21 16:25:58</time>
      </trkpt>
      <trkpt lat="42.3859" lon="2.77117">
        <ele>315.8</ele>
        <time>2022-05-21 16:25:59</time>
      </trkpt>
      <trkpt lat="42.38591" lon="2.77112">
        <ele>316</ele>
        <time>2022-05-21 16:26:00</time>
      </trkpt>
      <trkpt lat="42.38592" lon="2.77108">
        <ele>316</ele>
        <time>2022-05-21 16:26:01</time>
      </trkpt>
      <trkpt lat="42.38593" lon="2.77103">
        <ele>316.2</ele>
        <time>2022-05-21 16:26:02</time>
      </trkpt>
      <trkpt lat="42.38594" lon="2.77098">
        <ele>316.2</ele>
        <time>2022-05-21 16:26:03</time>
      </trkpt>
      <trkpt lat="42.38595" lon="2.77093">
        <ele>316.4</ele>
        <time>2022-05-21 16:26:04</time>
      </trkpt>
      <trkpt lat="42.38597" lon="2.77088">
        <ele>316.4</ele>
        <time>2022-05-21 16:26:05</time>
      </trkpt>
      <trkpt lat="42.38598" lon="2.77083">
        <ele>316.6</ele>
        <time>2022-05-21 16:26:06</time>
      </trkpt>
      <trkpt lat="42.38599" lon="2.77078">
        <ele>316.6</ele>
        <time>2022-05-21 16:26:07</time>
      </trkpt>
      <trkpt lat="42.38601" lon="2.77073">
        <ele>316.8</ele>
        <time>2022-05-21 16:26:08</time>
      </trkpt>
      <trkpt lat="42.38603" lon="2.77068">
        <ele>317</ele>
        <time>2022-05-21 16:26:09</time>
      </trkpt>
      <trkpt lat="42.38604" lon="2.77063">
        <ele>317</ele>
        <time>2022-05-21 16:26:10</time>
      </trkpt>
      <trkpt lat="42.38606" lon="2.77059">
        <ele>317.2</ele>
        <time>2022-05-21 16:26:11</time>
      </trkpt>
      <trkpt lat="42.38608" lon="2.77054">
        <ele>317.2</ele>
        <time>2022-05-21 16:26:12</time>
      </trkpt>
      <trkpt lat="42.3861" lon="2.7705">
        <ele>317.4</ele>
        <time>2022-05-21 16:26:13</time>
      </trkpt>
      <trkpt lat="42.38611" lon="2.77045">
        <ele>317.4</ele>
        <time>2022-05-21 16:26:14</time>
      </trkpt>
      <trkpt lat="42.38613" lon="2.7704">
        <ele>317.6</ele>
        <time>2022-05-21 16:26:15</time>
      </trkpt>
      <trkpt lat="42.38614" lon="2.77036">
        <ele>317.6</ele>
        <time>2022-05-21 16:26:16</time>
      </trkpt>
      <trkpt lat="42.38616" lon="2.77031">
        <ele>317.8</ele>
        <time>2022-05-21 16:26:17</time>
      </trkpt>
      <trkpt lat="42.38618" lon="2.77027">
        <ele>318</ele>
        <time>2022-05-21 16:26:18</time>
      </trkpt>
      <trkpt lat="42.3862" lon="2.77022">
        <ele>318</ele>
        <time>2022-05-21 16:26:19</time>
      </trkpt>
      <trkpt lat="42.38622" lon="2.77018">
        <ele>318.2</ele>
        <time>2022-05-21 16:26:20</time>
      </trkpt>
      <trkpt lat="42.38625" lon="2.77013">
        <ele>318.2</ele>
        <time>2022-05-21 16:26:21</time>
      </trkpt>
      <trkpt lat="42.38627" lon="2.77009">
        <ele>318.4</ele>
        <time>2022-05-21 16:26:22</time>
      </trkpt>
      <trkpt lat="42.3863" lon="2.77005">
        <ele>318.4</ele>
        <time>2022-05-21 16:26:23</time>
      </trkpt>
      <trkpt lat="42.38632" lon="2.77002">
        <ele>318.6</ele>
        <time>2022-05-21 16:26:24</time>
      </trkpt>
      <trkpt lat="42.38636" lon="2.76998">
        <ele>318.6</ele>
        <time>2022-05-21 16:26:25</time>
      </trkpt>
      <trkpt lat="42.38638" lon="2.76995">
        <ele>318.8</ele>
        <time>2022-05-21 16:26:26</time>
      </trkpt>
      <trkpt lat="42.38641" lon="2.76991">
        <ele>318.8</ele>
        <time>2022-05-21 16:26:27</time>
      </trkpt>
      <trkpt lat="42.38644" lon="2.76988">
        <ele>319</ele>
        <time>2022-05-21 16:26:28</time>
      </trkpt>
      <trkpt lat="42.38647" lon="2.76985">
        <ele>319</ele>
        <time>2022-05-21 16:26:29</time>
      </trkpt>
      <trkpt lat="42.3865" lon="2.76981">
        <ele>319.2</ele>
        <time>2022-05-21 16:26:30</time>
      </trkpt>
      <trkpt lat="42.38653" lon="2.76978">
        <ele>319.2</ele>
        <time>2022-05-21 16:26:31</time>
      </trkpt>
      <trkpt lat="42.38656" lon="2.76974">
        <ele>319.4</ele>
        <time>2022-05-21 16:26:32</time>
      </trkpt>
      <trkpt lat="42.38659" lon="2.76971">
        <ele>319.4</ele>
        <time>2022-05-21 16:26:33</time>
      </trkpt>
      <trkpt lat="42.38661" lon="2.76966">
        <ele>319.6</ele>
        <time>2022-05-21 16:26:34</time>
      </trkpt>
      <trkpt lat="42.38663" lon="2.76962">
        <ele>319.6</ele>
        <time>2022-05-21 16:26:35</time>
      </trkpt>
      <trkpt lat="42.38665" lon="2.76958">
        <ele>319.8</ele>
        <time>2022-05-21 16:26:36</time>
      </trkpt>
      <trkpt lat="42.38667" lon="2.76953">
        <ele>319.8</ele>
        <time>2022-05-21 16:26:37</time>
      </trkpt>
      <trkpt lat="42.38669" lon="2.76948">
        <ele>319.8</ele>
        <time>2022-05-21 16:26:38</time>
      </trkpt>
      <trkpt lat="42.3867" lon="2.76942">
        <ele>319.8</ele>
        <time>2022-05-21 16:26:39</time>
      </trkpt>
      <trkpt lat="42.38671" lon="2.76937">
        <ele>320</ele>
        <time>2022-05-21 16:26:40</time>
      </trkpt>
      <trkpt lat="42.38672" lon="2.76932">
        <ele>320</ele>
        <time>2022-05-21 16:26:41</time>
      </trkpt>
      <trkpt lat="42.38673" lon="2.76926">
        <ele>320</ele>
        <time>2022-05-21 16:26:42</time>
      </trkpt>
      <trkpt lat="42.38673" lon="2.76921">
        <ele>320</ele>
        <time>2022-05-21 16:26:43</time>
      </trkpt>
      <trkpt lat="42.38674" lon="2.76915">
        <ele>320</ele>
        <time>2022-05-21 16:26:44</time>
      </trkpt>
      <trkpt lat="42.38675" lon="2.76909">
        <ele>320</ele>
        <time>2022-05-21 16:26:45</time>
      </trkpt>
      <trkpt lat="42.38675" lon="2.76903">
        <ele>320</ele>
        <time>2022-05-21 16:26:46</time>
      </trkpt>
      <trkpt lat="42.38676" lon="2.76897">
        <ele>320.2</ele>
        <time>2022-05-21 16:26:47</time>
      </trkpt>
      <trkpt lat="42.38676" lon="2.76892">
        <ele>320.2</ele>
        <time>2022-05-21 16:26:48</time>
      </trkpt>
      <trkpt lat="42.38677" lon="2.76886">
        <ele>320.4</ele>
        <time>2022-05-21 16:26:49</time>
      </trkpt>
      <trkpt lat="42.38678" lon="2.76881">
        <ele>320.6</ele>
        <time>2022-05-21 16:26:50</time>
      </trkpt>
      <trkpt lat="42.38679" lon="2.76876">
        <ele>320.8</ele>
        <time>2022-05-21 16:26:51</time>
      </trkpt>
      <trkpt lat="42.3868" lon="2.76871">
        <ele>321</ele>
        <time>2022-05-21 16:26:52</time>
      </trkpt>
      <trkpt lat="42.38682" lon="2.76866">
        <ele>321.2</ele>
        <time>2022-05-21 16:26:53</time>
      </trkpt>
      <trkpt lat="42.38683" lon="2.76861">
        <ele>321.4</ele>
        <time>2022-05-21 16:26:54</time>
      </trkpt>
      <trkpt lat="42.38684" lon="2.76857">
        <ele>321.4</ele>
        <time>2022-05-21 16:26:55</time>
      </trkpt>
      <trkpt lat="42.38686" lon="2.76853">
        <ele>321.6</ele>
        <time>2022-05-21 16:26:56</time>
      </trkpt>
      <trkpt lat="42.38688" lon="2.76848">
        <ele>321.8</ele>
        <time>2022-05-21 16:26:57</time>
      </trkpt>
      <trkpt lat="42.3869" lon="2.76845">
        <ele>322</ele>
        <time>2022-05-21 16:26:58</time>
      </trkpt>
      <trkpt lat="42.38692" lon="2.76841">
        <ele>322.2</ele>
        <time>2022-05-21 16:26:59</time>
      </trkpt>
      <trkpt lat="42.38694" lon="2.76837">
        <ele>322.2</ele>
        <time>2022-05-21 16:27:00</time>
      </trkpt>
      <trkpt lat="42.38696" lon="2.76834">
        <ele>322.4</ele>
        <time>2022-05-21 16:27:01</time>
      </trkpt>
      <trkpt lat="42.38699" lon="2.76831">
        <ele>322.6</ele>
        <time>2022-05-21 16:27:02</time>
      </trkpt>
      <trkpt lat="42.38702" lon="2.76828">
        <ele>322.8</ele>
        <time>2022-05-21 16:27:03</time>
      </trkpt>
      <trkpt lat="42.38704" lon="2.76826">
        <ele>323</ele>
        <time>2022-05-21 16:27:04</time>
      </trkpt>
      <trkpt lat="42.38707" lon="2.76823">
        <ele>323.2</ele>
        <time>2022-05-21 16:27:05</time>
      </trkpt>
      <trkpt lat="42.3871" lon="2.7682">
        <ele>323.4</ele>
        <time>2022-05-21 16:27:06</time>
      </trkpt>
      <trkpt lat="42.38714" lon="2.76818">
        <ele>323.6</ele>
        <time>2022-05-21 16:27:07</time>
      </trkpt>
      <trkpt lat="42.38717" lon="2.76815">
        <ele>323.6</ele>
        <time>2022-05-21 16:27:08</time>
      </trkpt>
      <trkpt lat="42.3872" lon="2.76813">
        <ele>323.8</ele>
        <time>2022-05-21 16:27:09</time>
      </trkpt>
      <trkpt lat="42.38724" lon="2.76811">
        <ele>323.8</ele>
        <time>2022-05-21 16:27:10</time>
      </trkpt>
      <trkpt lat="42.38727" lon="2.76809">
        <ele>324</ele>
        <time>2022-05-21 16:27:11</time>
      </trkpt>
      <trkpt lat="42.38731" lon="2.76807">
        <ele>324.2</ele>
        <time>2022-05-21 16:27:12</time>
      </trkpt>
      <trkpt lat="42.38734" lon="2.76804">
        <ele>324.4</ele>
        <time>2022-05-21 16:27:13</time>
      </trkpt>
      <trkpt lat="42.38737" lon="2.76802">
        <ele>324.4</ele>
        <time>2022-05-21 16:27:14</time>
      </trkpt>
      <trkpt lat="42.38741" lon="2.768">
        <ele>324.6</ele>
        <time>2022-05-21 16:27:15</time>
      </trkpt>
      <trkpt lat="42.38744" lon="2.76798">
        <ele>324.8</ele>
        <time>2022-05-21 16:27:16</time>
      </trkpt>
      <trkpt lat="42.38747" lon="2.76796">
        <ele>325</ele>
        <time>2022-05-21 16:27:17</time>
      </trkpt>
      <trkpt lat="42.3875" lon="2.76794">
        <ele>325.2</ele>
        <time>2022-05-21 16:27:18</time>
      </trkpt>
      <trkpt lat="42.38753" lon="2.76792">
        <ele>325.2</ele>
        <time>2022-05-21 16:27:19</time>
      </trkpt>
      <trkpt lat="42.38757" lon="2.76789">
        <ele>325.4</ele>
        <time>2022-05-21 16:27:20</time>
      </trkpt>
      <trkpt lat="42.3876" lon="2.76788">
        <ele>325.6</ele>
        <time>2022-05-21 16:27:21</time>
      </trkpt>
      <trkpt lat="42.38763" lon="2.76786">
        <ele>325.6</ele>
        <time>2022-05-21 16:27:22</time>
      </trkpt>
      <trkpt lat="42.38767" lon="2.76784">
        <ele>325.8</ele>
        <time>2022-05-21 16:27:23</time>
      </trkpt>
      <trkpt lat="42.3877" lon="2.76782">
        <ele>326</ele>
        <time>2022-05-21 16:27:24</time>
      </trkpt>
      <trkpt lat="42.38774" lon="2.7678">
        <ele>326.2</ele>
        <time>2022-05-21 16:27:25</time>
      </trkpt>
      <trkpt lat="42.38777" lon="2.76778">
        <ele>326.4</ele>
        <time>2022-05-21 16:27:26</time>
      </trkpt>
      <trkpt lat="42.3878" lon="2.76776">
        <ele>326.6</ele>
        <time>2022-05-21 16:27:27</time>
      </trkpt>
      <trkpt lat="42.38784" lon="2.76774">
        <ele>326.8</ele>
        <time>2022-05-21 16:27:28</time>
      </trkpt>
      <trkpt lat="42.38787" lon="2.76773">
        <ele>326.8</ele>
        <time>2022-05-21 16:27:29</time>
      </trkpt>
      <trkpt lat="42.38791" lon="2.76771">
        <ele>327</ele>
        <time>2022-05-21 16:27:30</time>
      </trkpt>
      <trkpt lat="42.38794" lon="2.7677">
        <ele>327</ele>
        <time>2022-05-21 16:27:31</time>
      </trkpt>
      <trkpt lat="42.38798" lon="2.76768">
        <ele>327.2</ele>
        <time>2022-05-21 16:27:32</time>
      </trkpt>
      <trkpt lat="42.38802" lon="2.76767">
        <ele>327.4</ele>
        <time>2022-05-21 16:27:33</time>
      </trkpt>
      <trkpt lat="42.38805" lon="2.76765">
        <ele>327.4</ele>
        <time>2022-05-21 16:27:34</time>
      </trkpt>
      <trkpt lat="42.38809" lon="2.76763">
        <ele>327.6</ele>
        <time>2022-05-21 16:27:35</time>
      </trkpt>
      <trkpt lat="42.38812" lon="2.76762">
        <ele>327.6</ele>
        <time>2022-05-21 16:27:36</time>
      </trkpt>
      <trkpt lat="42.38816" lon="2.7676">
        <ele>327.8</ele>
        <time>2022-05-21 16:27:37</time>
      </trkpt>
      <trkpt lat="42.38819" lon="2.76758">
        <ele>327.8</ele>
        <time>2022-05-21 16:27:38</time>
      </trkpt>
      <trkpt lat="42.38823" lon="2.76757">
        <ele>328</ele>
        <time>2022-05-21 16:27:39</time>
      </trkpt>
      <trkpt lat="42.38826" lon="2.76755">
        <ele>328.2</ele>
        <time>2022-05-21 16:27:40</time>
      </trkpt>
      <trkpt lat="42.3883" lon="2.76753">
        <ele>328.2</ele>
        <time>2022-05-21 16:27:41</time>
      </trkpt>
      <trkpt lat="42.38834" lon="2.76752">
        <ele>328.4</ele>
        <time>2022-05-21 16:27:42</time>
      </trkpt>
      <trkpt lat="42.38837" lon="2.7675">
        <ele>328.4</ele>
        <time>2022-05-21 16:27:43</time>
      </trkpt>
      <trkpt lat="42.38841" lon="2.76749">
        <ele>328.6</ele>
        <time>2022-05-21 16:27:44</time>
      </trkpt>
      <trkpt lat="42.38845" lon="2.76747">
        <ele>328.6</ele>
        <time>2022-05-21 16:27:45</time>
      </trkpt>
      <trkpt lat="42.38849" lon="2.76745">
        <ele>328.6</ele>
        <time>2022-05-21 16:27:46</time>
      </trkpt>
      <trkpt lat="42.38853" lon="2.76743">
        <ele>328.6</ele>
        <time>2022-05-21 16:27:47</time>
      </trkpt>
      <trkpt lat="42.38857" lon="2.76741">
        <ele>328.8</ele>
        <time>2022-05-21 16:27:48</time>
      </trkpt>
      <trkpt lat="42.38861" lon="2.76739">
        <ele>328.8</ele>
        <time>2022-05-21 16:27:49</time>
      </trkpt>
      <trkpt lat="42.38865" lon="2.76737">
        <ele>328.8</ele>
        <time>2022-05-21 16:27:50</time>
      </trkpt>
      <trkpt lat="42.38869" lon="2.76735">
        <ele>329</ele>
        <time>2022-05-21 16:27:51</time>
      </trkpt>
      <trkpt lat="42.38873" lon="2.76733">
        <ele>329</ele>
        <time>2022-05-21 16:27:52</time>
      </trkpt>
      <trkpt lat="42.38876" lon="2.76731">
        <ele>329</ele>
        <time>2022-05-21 16:27:53</time>
      </trkpt>
      <trkpt lat="42.3888" lon="2.76729">
        <ele>329</ele>
        <time>2022-05-21 16:27:54</time>
      </trkpt>
      <trkpt lat="42.38884" lon="2.76727">
        <ele>329.2</ele>
        <time>2022-05-21 16:27:55</time>
      </trkpt>
      <trkpt lat="42.38888" lon="2.76725">
        <ele>329.2</ele>
        <time>2022-05-21 16:27:56</time>
      </trkpt>
      <trkpt lat="42.38892" lon="2.76723">
        <ele>329.2</ele>
        <time>2022-05-21 16:27:57</time>
      </trkpt>
      <trkpt lat="42.38895" lon="2.76721">
        <ele>329.4</ele>
        <time>2022-05-21 16:27:58</time>
      </trkpt>
      <trkpt lat="42.38899" lon="2.76719">
        <ele>329.4</ele>
        <time>2022-05-21 16:27:59</time>
      </trkpt>
      <trkpt lat="42.38902" lon="2.76717">
        <ele>329.4</ele>
        <time>2022-05-21 16:28:00</time>
      </trkpt>
      <trkpt lat="42.38906" lon="2.76714">
        <ele>329.4</ele>
        <time>2022-05-21 16:28:01</time>
      </trkpt>
      <trkpt lat="42.3891" lon="2.76712">
        <ele>329.6</ele>
        <time>2022-05-21 16:28:02</time>
      </trkpt>
      <trkpt lat="42.38914" lon="2.7671">
        <ele>329.6</ele>
        <time>2022-05-21 16:28:03</time>
      </trkpt>
      <trkpt lat="42.38917" lon="2.76708">
        <ele>329.6</ele>
        <time>2022-05-21 16:28:04</time>
      </trkpt>
      <trkpt lat="42.38921" lon="2.76706">
        <ele>329.8</ele>
        <time>2022-05-21 16:28:05</time>
      </trkpt>
      <trkpt lat="42.38924" lon="2.76703">
        <ele>329.8</ele>
        <time>2022-05-21 16:28:06</time>
      </trkpt>
      <trkpt lat="42.38928" lon="2.76701">
        <ele>329.8</ele>
        <time>2022-05-21 16:28:07</time>
      </trkpt>
      <trkpt lat="42.38932" lon="2.76699">
        <ele>330</ele>
        <time>2022-05-21 16:28:08</time>
      </trkpt>
      <trkpt lat="42.38935" lon="2.76697">
        <ele>330</ele>
        <time>2022-05-21 16:28:09</time>
      </trkpt>
      <trkpt lat="42.38938" lon="2.76695">
        <ele>330</ele>
        <time>2022-05-21 16:28:10</time>
      </trkpt>
      <trkpt lat="42.38942" lon="2.76693">
        <ele>330.2</ele>
        <time>2022-05-21 16:28:11</time>
      </trkpt>
      <trkpt lat="42.38945" lon="2.76691">
        <ele>330.2</ele>
        <time>2022-05-21 16:28:12</time>
      </trkpt>
      <trkpt lat="42.38949" lon="2.7669">
        <ele>330.4</ele>
        <time>2022-05-21 16:28:13</time>
      </trkpt>
      <trkpt lat="42.38952" lon="2.76688">
        <ele>330.4</ele>
        <time>2022-05-21 16:28:14</time>
      </trkpt>
      <trkpt lat="42.38956" lon="2.76687">
        <ele>330.4</ele>
        <time>2022-05-21 16:28:15</time>
      </trkpt>
      <trkpt lat="42.3896" lon="2.76686">
        <ele>330.6</ele>
        <time>2022-05-21 16:28:16</time>
      </trkpt>
      <trkpt lat="42.38963" lon="2.76684">
        <ele>330.6</ele>
        <time>2022-05-21 16:28:17</time>
      </trkpt>
      <trkpt lat="42.38967" lon="2.76683">
        <ele>330.8</ele>
        <time>2022-05-21 16:28:18</time>
      </trkpt>
      <trkpt lat="42.38971" lon="2.76682">
        <ele>330.8</ele>
        <time>2022-05-21 16:28:19</time>
      </trkpt>
      <trkpt lat="42.38975" lon="2.76681">
        <ele>331</ele>
        <time>2022-05-21 16:28:20</time>
      </trkpt>
      <trkpt lat="42.38978" lon="2.7668">
        <ele>331</ele>
        <time>2022-05-21 16:28:21</time>
      </trkpt>
      <trkpt lat="42.38982" lon="2.76679">
        <ele>331.2</ele>
        <time>2022-05-21 16:28:22</time>
      </trkpt>
      <trkpt lat="42.38986" lon="2.76678">
        <ele>331.2</ele>
        <time>2022-05-21 16:28:23</time>
      </trkpt>
      <trkpt lat="42.3899" lon="2.76677">
        <ele>331.2</ele>
        <time>2022-05-21 16:28:24</time>
      </trkpt>
      <trkpt lat="42.38993" lon="2.76676">
        <ele>331.4</ele>
        <time>2022-05-21 16:28:25</time>
      </trkpt>
      <trkpt lat="42.38997" lon="2.76675">
        <ele>331.4</ele>
        <time>2022-05-21 16:28:26</time>
      </trkpt>
      <trkpt lat="42.39001" lon="2.76673">
        <ele>331.6</ele>
        <time>2022-05-21 16:28:27</time>
      </trkpt>
      <trkpt lat="42.39005" lon="2.76672">
        <ele>331.6</ele>
        <time>2022-05-21 16:28:28</time>
      </trkpt>
      <trkpt lat="42.39008" lon="2.76671">
        <ele>331.8</ele>
        <time>2022-05-21 16:28:29</time>
      </trkpt>
      <trkpt lat="42.39012" lon="2.7667">
        <ele>331.8</ele>
        <time>2022-05-21 16:28:30</time>
      </trkpt>
      <trkpt lat="42.39016" lon="2.76669">
        <ele>331.8</ele>
        <time>2022-05-21 16:28:31</time>
      </trkpt>
      <trkpt lat="42.3902" lon="2.76667">
        <ele>332</ele>
        <time>2022-05-21 16:28:32</time>
      </trkpt>
      <trkpt lat="42.39023" lon="2.76666">
        <ele>332</ele>
        <time>2022-05-21 16:28:33</time>
      </trkpt>
      <trkpt lat="42.39027" lon="2.76664">
        <ele>332.2</ele>
        <time>2022-05-21 16:28:34</time>
      </trkpt>
      <trkpt lat="42.39031" lon="2.76663">
        <ele>332.2</ele>
        <time>2022-05-21 16:28:35</time>
      </trkpt>
      <trkpt lat="42.39035" lon="2.76661">
        <ele>332.2</ele>
        <time>2022-05-21 16:28:36</time>
      </trkpt>
      <trkpt lat="42.39039" lon="2.76659">
        <ele>332.4</ele>
        <time>2022-05-21 16:28:37</time>
      </trkpt>
      <trkpt lat="42.39042" lon="2.76657">
        <ele>332.4</ele>
        <time>2022-05-21 16:28:38</time>
      </trkpt>
      <trkpt lat="42.39046" lon="2.76654">
        <ele>332.4</ele>
        <time>2022-05-21 16:28:39</time>
      </trkpt>
      <trkpt lat="42.39049" lon="2.76651">
        <ele>332.4</ele>
        <time>2022-05-21 16:28:40</time>
      </trkpt>
      <trkpt lat="42.39053" lon="2.76649">
        <ele>332.6</ele>
        <time>2022-05-21 16:28:41</time>
      </trkpt>
      <trkpt lat="42.39056" lon="2.76646">
        <ele>332.6</ele>
        <time>2022-05-21 16:28:42</time>
      </trkpt>
      <trkpt lat="42.39059" lon="2.76643">
        <ele>332.6</ele>
        <time>2022-05-21 16:28:43</time>
      </trkpt>
      <trkpt lat="42.39063" lon="2.7664">
        <ele>332.6</ele>
        <time>2022-05-21 16:28:44</time>
      </trkpt>
      <trkpt lat="42.39066" lon="2.76636">
        <ele>332.6</ele>
        <time>2022-05-21 16:28:45</time>
      </trkpt>
      <trkpt lat="42.3907" lon="2.76632">
        <ele>332.6</ele>
        <time>2022-05-21 16:28:46</time>
      </trkpt>
      <trkpt lat="42.39073" lon="2.76628">
        <ele>332.6</ele>
        <time>2022-05-21 16:28:47</time>
      </trkpt>
      <trkpt lat="42.39077" lon="2.76623">
        <ele>332.6</ele>
        <time>2022-05-21 16:28:48</time>
      </trkpt>
      <trkpt lat="42.3908" lon="2.76618">
        <ele>332.6</ele>
        <time>2022-05-21 16:28:49</time>
      </trkpt>
      <trkpt lat="42.39082" lon="2.76612">
        <ele>332.6</ele>
        <time>2022-05-21 16:28:50</time>
      </trkpt>
      <trkpt lat="42.39084" lon="2.76607">
        <ele>332.6</ele>
        <time>2022-05-21 16:28:51</time>
      </trkpt>
      <trkpt lat="42.39087" lon="2.76601">
        <ele>332.6</ele>
        <time>2022-05-21 16:28:52</time>
      </trkpt>
      <trkpt lat="42.39089" lon="2.76595">
        <ele>332.6</ele>
        <time>2022-05-21 16:28:53</time>
      </trkpt>
      <trkpt lat="42.39091" lon="2.76589">
        <ele>332.6</ele>
        <time>2022-05-21 16:28:54</time>
      </trkpt>
      <trkpt lat="42.39092" lon="2.76583">
        <ele>332.6</ele>
        <time>2022-05-21 16:28:55</time>
      </trkpt>
      <trkpt lat="42.39094" lon="2.76577">
        <ele>332.6</ele>
        <time>2022-05-21 16:28:56</time>
      </trkpt>
      <trkpt lat="42.39095" lon="2.7657">
        <ele>332.6</ele>
        <time>2022-05-21 16:28:57</time>
      </trkpt>
      <trkpt lat="42.39096" lon="2.76563">
        <ele>332.6</ele>
        <time>2022-05-21 16:28:58</time>
      </trkpt>
      <trkpt lat="42.39096" lon="2.76557">
        <ele>332.6</ele>
        <time>2022-05-21 16:28:59</time>
      </trkpt>
      <trkpt lat="42.39095" lon="2.7655">
        <ele>332.6</ele>
        <time>2022-05-21 16:29:00</time>
      </trkpt>
      <trkpt lat="42.39095" lon="2.76543">
        <ele>332.6</ele>
        <time>2022-05-21 16:29:01</time>
      </trkpt>
      <trkpt lat="42.39094" lon="2.76537">
        <ele>332.6</ele>
        <time>2022-05-21 16:29:02</time>
      </trkpt>
      <trkpt lat="42.39092" lon="2.7653">
        <ele>332.4</ele>
        <time>2022-05-21 16:29:03</time>
      </trkpt>
      <trkpt lat="42.39091" lon="2.76524">
        <ele>332.4</ele>
        <time>2022-05-21 16:29:04</time>
      </trkpt>
      <trkpt lat="42.3909" lon="2.76518">
        <ele>332.4</ele>
        <time>2022-05-21 16:29:05</time>
      </trkpt>
      <trkpt lat="42.39088" lon="2.76511">
        <ele>332.4</ele>
        <time>2022-05-21 16:29:06</time>
      </trkpt>
      <trkpt lat="42.39086" lon="2.76504">
        <ele>332.4</ele>
        <time>2022-05-21 16:29:07</time>
      </trkpt>
      <trkpt lat="42.39083" lon="2.76498">
        <ele>332.4</ele>
        <time>2022-05-21 16:29:08</time>
      </trkpt>
      <trkpt lat="42.3908" lon="2.76491">
        <ele>332.4</ele>
        <time>2022-05-21 16:29:09</time>
      </trkpt>
      <trkpt lat="42.39078" lon="2.76485">
        <ele>332.4</ele>
        <time>2022-05-21 16:29:10</time>
      </trkpt>
      <trkpt lat="42.39075" lon="2.76479">
        <ele>332.4</ele>
        <time>2022-05-21 16:29:11</time>
      </trkpt>
      <trkpt lat="42.39072" lon="2.76473">
        <ele>332.4</ele>
        <time>2022-05-21 16:29:12</time>
      </trkpt>
      <trkpt lat="42.3907" lon="2.76467">
        <ele>332.4</ele>
        <time>2022-05-21 16:29:13</time>
      </trkpt>
      <trkpt lat="42.39067" lon="2.76461">
        <ele>332.2</ele>
        <time>2022-05-21 16:29:14</time>
      </trkpt>
      <trkpt lat="42.39064" lon="2.76455">
        <ele>332.2</ele>
        <time>2022-05-21 16:29:15</time>
      </trkpt>
      <trkpt lat="42.39061" lon="2.76449">
        <ele>332.2</ele>
        <time>2022-05-21 16:29:16</time>
      </trkpt>
      <trkpt lat="42.39058" lon="2.76442">
        <ele>332.4</ele>
        <time>2022-05-21 16:29:17</time>
      </trkpt>
      <trkpt lat="42.39055" lon="2.76436">
        <ele>332.4</ele>
        <time>2022-05-21 16:29:18</time>
      </trkpt>
      <trkpt lat="42.39051" lon="2.7643">
        <ele>332.4</ele>
        <time>2022-05-21 16:29:19</time>
      </trkpt>
      <trkpt lat="42.39047" lon="2.76425">
        <ele>332.6</ele>
        <time>2022-05-21 16:29:20</time>
      </trkpt>
      <trkpt lat="42.39042" lon="2.7642">
        <ele>332.6</ele>
        <time>2022-05-21 16:29:21</time>
      </trkpt>
      <trkpt lat="42.39037" lon="2.76415">
        <ele>332.8</ele>
        <time>2022-05-21 16:29:22</time>
      </trkpt>
      <trkpt lat="42.39033" lon="2.76412">
        <ele>332.8</ele>
        <time>2022-05-21 16:29:23</time>
      </trkpt>
      <trkpt lat="42.39028" lon="2.76409">
        <ele>333</ele>
        <time>2022-05-21 16:29:24</time>
      </trkpt>
      <trkpt lat="42.39024" lon="2.76407">
        <ele>333</ele>
        <time>2022-05-21 16:29:25</time>
      </trkpt>
      <trkpt lat="42.39019" lon="2.76406">
        <ele>333.2</ele>
        <time>2022-05-21 16:29:26</time>
      </trkpt>
      <trkpt lat="42.39014" lon="2.76406">
        <ele>333.4</ele>
        <time>2022-05-21 16:29:27</time>
      </trkpt>
      <trkpt lat="42.39009" lon="2.76405">
        <ele>333.4</ele>
        <time>2022-05-21 16:29:28</time>
      </trkpt>
      <trkpt lat="42.39004" lon="2.76405">
        <ele>333.6</ele>
        <time>2022-05-21 16:29:29</time>
      </trkpt>
      <trkpt lat="42.39" lon="2.76406">
        <ele>333.8</ele>
        <time>2022-05-21 16:29:30</time>
      </trkpt>
      <trkpt lat="42.38995" lon="2.76407">
        <ele>334</ele>
        <time>2022-05-21 16:29:31</time>
      </trkpt>
      <trkpt lat="42.38991" lon="2.76408">
        <ele>334</ele>
        <time>2022-05-21 16:29:32</time>
      </trkpt>
      <trkpt lat="42.38987" lon="2.76409">
        <ele>334.2</ele>
        <time>2022-05-21 16:29:33</time>
      </trkpt>
      <trkpt lat="42.38982" lon="2.7641">
        <ele>334.2</ele>
        <time>2022-05-21 16:29:34</time>
      </trkpt>
      <trkpt lat="42.38978" lon="2.76412">
        <ele>334.4</ele>
        <time>2022-05-21 16:29:35</time>
      </trkpt>
      <trkpt lat="42.38974" lon="2.76413">
        <ele>334.6</ele>
        <time>2022-05-21 16:29:36</time>
      </trkpt>
      <trkpt lat="42.3897" lon="2.76415">
        <ele>334.8</ele>
        <time>2022-05-21 16:29:37</time>
      </trkpt>
      <trkpt lat="42.38967" lon="2.76417">
        <ele>334.8</ele>
        <time>2022-05-21 16:29:38</time>
      </trkpt>
      <trkpt lat="42.38963" lon="2.76418">
        <ele>335</ele>
        <time>2022-05-21 16:29:39</time>
      </trkpt>
      <trkpt lat="42.38959" lon="2.76419">
        <ele>335.2</ele>
        <time>2022-05-21 16:29:40</time>
      </trkpt>
      <trkpt lat="42.38956" lon="2.76421">
        <ele>335.4</ele>
        <time>2022-05-21 16:29:41</time>
      </trkpt>
      <trkpt lat="42.38952" lon="2.76422">
        <ele>335.4</ele>
        <time>2022-05-21 16:29:42</time>
      </trkpt>
      <trkpt lat="42.38949" lon="2.76423">
        <ele>335.6</ele>
        <time>2022-05-21 16:29:43</time>
      </trkpt>
      <trkpt lat="42.38945" lon="2.76424">
        <ele>335.8</ele>
        <time>2022-05-21 16:29:44</time>
      </trkpt>
      <trkpt lat="42.38941" lon="2.76426">
        <ele>336</ele>
        <time>2022-05-21 16:29:45</time>
      </trkpt>
      <trkpt lat="42.38937" lon="2.76427">
        <ele>336</ele>
        <time>2022-05-21 16:29:46</time>
      </trkpt>
      <trkpt lat="42.38933" lon="2.76428">
        <ele>336.2</ele>
        <time>2022-05-21 16:29:47</time>
      </trkpt>
      <trkpt lat="42.3893" lon="2.76429">
        <ele>336.4</ele>
        <time>2022-05-21 16:29:48</time>
      </trkpt>
      <trkpt lat="42.38926" lon="2.76429">
        <ele>336.6</ele>
        <time>2022-05-21 16:29:49</time>
      </trkpt>
      <trkpt lat="42.38922" lon="2.76429">
        <ele>336.6</ele>
        <time>2022-05-21 16:29:50</time>
      </trkpt>
      <trkpt lat="42.38918" lon="2.76429">
        <ele>336.8</ele>
        <time>2022-05-21 16:29:51</time>
      </trkpt>
      <trkpt lat="42.38914" lon="2.76428">
        <ele>337</ele>
        <time>2022-05-21 16:29:52</time>
      </trkpt>
      <trkpt lat="42.38911" lon="2.76427">
        <ele>337.2</ele>
        <time>2022-05-21 16:29:53</time>
      </trkpt>
      <trkpt lat="42.38907" lon="2.76425">
        <ele>337.4</ele>
        <time>2022-05-21 16:29:54</time>
      </trkpt>
      <trkpt lat="42.38904" lon="2.76423">
        <ele>337.6</ele>
        <time>2022-05-21 16:29:55</time>
      </trkpt>
      <trkpt lat="42.38901" lon="2.76421">
        <ele>337.6</ele>
        <time>2022-05-21 16:29:56</time>
      </trkpt>
      <trkpt lat="42.38898" lon="2.76419">
        <ele>337.8</ele>
        <time>2022-05-21 16:29:57</time>
      </trkpt>
      <trkpt lat="42.38895" lon="2.76416">
        <ele>338</ele>
        <time>2022-05-21 16:29:58</time>
      </trkpt>
      <trkpt lat="42.38892" lon="2.76414">
        <ele>338.2</ele>
        <time>2022-05-21 16:29:59</time>
      </trkpt>
      <trkpt lat="42.38889" lon="2.76412">
        <ele>338.4</ele>
        <time>2022-05-21 16:30:00</time>
      </trkpt>
      <trkpt lat="42.38886" lon="2.76409">
        <ele>338.6</ele>
        <time>2022-05-21 16:30:01</time>
      </trkpt>
      <trkpt lat="42.38883" lon="2.76407">
        <ele>338.8</ele>
        <time>2022-05-21 16:30:02</time>
      </trkpt>
      <trkpt lat="42.3888" lon="2.76404">
        <ele>338.8</ele>
        <time>2022-05-21 16:30:03</time>
      </trkpt>
      <trkpt lat="42.38878" lon="2.76402">
        <ele>339</ele>
        <time>2022-05-21 16:30:04</time>
      </trkpt>
      <trkpt lat="42.38875" lon="2.76399">
        <ele>339</ele>
        <time>2022-05-21 16:30:05</time>
      </trkpt>
      <trkpt lat="42.38872" lon="2.76396">
        <ele>339.2</ele>
        <time>2022-05-21 16:30:06</time>
      </trkpt>
      <trkpt lat="42.3887" lon="2.76393">
        <ele>339.4</ele>
        <time>2022-05-21 16:30:07</time>
      </trkpt>
      <trkpt lat="42.38867" lon="2.7639">
        <ele>339.4</ele>
        <time>2022-05-21 16:30:08</time>
      </trkpt>
      <trkpt lat="42.38865" lon="2.76387">
        <ele>339.6</ele>
        <time>2022-05-21 16:30:09</time>
      </trkpt>
      <trkpt lat="42.38862" lon="2.76384">
        <ele>339.8</ele>
        <time>2022-05-21 16:30:10</time>
      </trkpt>
      <trkpt lat="42.3886" lon="2.76381">
        <ele>339.8</ele>
        <time>2022-05-21 16:30:11</time>
      </trkpt>
      <trkpt lat="42.38857" lon="2.76378">
        <ele>340</ele>
        <time>2022-05-21 16:30:12</time>
      </trkpt>
      <trkpt lat="42.38855" lon="2.76375">
        <ele>340</ele>
        <time>2022-05-21 16:30:13</time>
      </trkpt>
      <trkpt lat="42.38853" lon="2.76372">
        <ele>340.2</ele>
        <time>2022-05-21 16:30:14</time>
      </trkpt>
      <trkpt lat="42.3885" lon="2.76369">
        <ele>340.2</ele>
        <time>2022-05-21 16:30:15</time>
      </trkpt>
      <trkpt lat="42.38847" lon="2.76366">
        <ele>340.4</ele>
        <time>2022-05-21 16:30:16</time>
      </trkpt>
      <trkpt lat="42.38845" lon="2.76363">
        <ele>340.6</ele>
        <time>2022-05-21 16:30:17</time>
      </trkpt>
      <trkpt lat="42.38842" lon="2.7636">
        <ele>340.6</ele>
        <time>2022-05-21 16:30:18</time>
      </trkpt>
      <trkpt lat="42.38839" lon="2.76357">
        <ele>340.8</ele>
        <time>2022-05-21 16:30:19</time>
      </trkpt>
      <trkpt lat="42.38837" lon="2.76354">
        <ele>341</ele>
        <time>2022-05-21 16:30:20</time>
      </trkpt>
      <trkpt lat="42.38834" lon="2.76351">
        <ele>341</ele>
        <time>2022-05-21 16:30:21</time>
      </trkpt>
      <trkpt lat="42.38832" lon="2.76348">
        <ele>341.2</ele>
        <time>2022-05-21 16:30:22</time>
      </trkpt>
      <trkpt lat="42.38829" lon="2.76345">
        <ele>341.2</ele>
        <time>2022-05-21 16:30:23</time>
      </trkpt>
      <trkpt lat="42.38827" lon="2.76343">
        <ele>341.4</ele>
        <time>2022-05-21 16:30:24</time>
      </trkpt>
      <trkpt lat="42.38824" lon="2.76339">
        <ele>341.6</ele>
        <time>2022-05-21 16:30:25</time>
      </trkpt>
      <trkpt lat="42.38821" lon="2.76336">
        <ele>341.6</ele>
        <time>2022-05-21 16:30:26</time>
      </trkpt>
      <trkpt lat="42.38819" lon="2.76333">
        <ele>341.8</ele>
        <time>2022-05-21 16:30:27</time>
      </trkpt>
      <trkpt lat="42.38817" lon="2.7633">
        <ele>342</ele>
        <time>2022-05-21 16:30:28</time>
      </trkpt>
      <trkpt lat="42.38814" lon="2.76327">
        <ele>342</ele>
        <time>2022-05-21 16:30:29</time>
      </trkpt>
      <trkpt lat="42.38812" lon="2.76324">
        <ele>342.2</ele>
        <time>2022-05-21 16:30:30</time>
      </trkpt>
      <trkpt lat="42.3881" lon="2.76321">
        <ele>342.4</ele>
        <time>2022-05-21 16:30:31</time>
      </trkpt>
      <trkpt lat="42.38808" lon="2.76318">
        <ele>342.4</ele>
        <time>2022-05-21 16:30:32</time>
      </trkpt>
      <trkpt lat="42.38805" lon="2.76315">
        <ele>342.6</ele>
        <time>2022-05-21 16:30:33</time>
      </trkpt>
      <trkpt lat="42.38803" lon="2.76312">
        <ele>342.8</ele>
        <time>2022-05-21 16:30:34</time>
      </trkpt>
      <trkpt lat="42.38801" lon="2.76309">
        <ele>342.8</ele>
        <time>2022-05-21 16:30:35</time>
      </trkpt>
      <trkpt lat="42.388" lon="2.76305">
        <ele>343</ele>
        <time>2022-05-21 16:30:36</time>
      </trkpt>
      <trkpt lat="42.38798" lon="2.76302">
        <ele>343.2</ele>
        <time>2022-05-21 16:30:37</time>
      </trkpt>
      <trkpt lat="42.38796" lon="2.76299">
        <ele>343.2</ele>
        <time>2022-05-21 16:30:38</time>
      </trkpt>
      <trkpt lat="42.38794" lon="2.76295">
        <ele>343.4</ele>
        <time>2022-05-21 16:30:39</time>
      </trkpt>
      <trkpt lat="42.38793" lon="2.76292">
        <ele>343.6</ele>
        <time>2022-05-21 16:30:40</time>
      </trkpt>
      <trkpt lat="42.38791" lon="2.76289">
        <ele>343.6</ele>
        <time>2022-05-21 16:30:41</time>
      </trkpt>
      <trkpt lat="42.38789" lon="2.76285">
        <ele>343.8</ele>
        <time>2022-05-21 16:30:42</time>
      </trkpt>
      <trkpt lat="42.38787" lon="2.76281">
        <ele>343.8</ele>
        <time>2022-05-21 16:30:43</time>
      </trkpt>
      <trkpt lat="42.38785" lon="2.76278">
        <ele>344</ele>
        <time>2022-05-21 16:30:44</time>
      </trkpt>
      <trkpt lat="42.38783" lon="2.76274">
        <ele>344.2</ele>
        <time>2022-05-21 16:30:45</time>
      </trkpt>
      <trkpt lat="42.38782" lon="2.76271">
        <ele>344.2</ele>
        <time>2022-05-21 16:30:46</time>
      </trkpt>
      <trkpt lat="42.3878" lon="2.76268">
        <ele>344.4</ele>
        <time>2022-05-21 16:30:47</time>
      </trkpt>
      <trkpt lat="42.38778" lon="2.76264">
        <ele>344.6</ele>
        <time>2022-05-21 16:30:48</time>
      </trkpt>
      <trkpt lat="42.38776" lon="2.76261">
        <ele>344.6</ele>
        <time>2022-05-21 16:30:49</time>
      </trkpt>
      <trkpt lat="42.38774" lon="2.76257">
        <ele>344.8</ele>
        <time>2022-05-21 16:30:50</time>
      </trkpt>
      <trkpt lat="42.38772" lon="2.76254">
        <ele>345</ele>
        <time>2022-05-21 16:30:51</time>
      </trkpt>
      <trkpt lat="42.38771" lon="2.76251">
        <ele>345</ele>
        <time>2022-05-21 16:30:52</time>
      </trkpt>
      <trkpt lat="42.3877" lon="2.76248">
        <ele>345.2</ele>
        <time>2022-05-21 16:30:53</time>
      </trkpt>
      <trkpt lat="42.38769" lon="2.76246">
        <ele>345.4</ele>
        <time>2022-05-21 16:30:54</time>
      </trkpt>
      <trkpt lat="42.38767" lon="2.76243">
        <ele>345.6</ele>
        <time>2022-05-21 16:30:55</time>
      </trkpt>
      <trkpt lat="42.38765" lon="2.7624">
        <ele>345.6</ele>
        <time>2022-05-21 16:30:56</time>
      </trkpt>
      <trkpt lat="42.38763" lon="2.76236">
        <ele>345.8</ele>
        <time>2022-05-21 16:30:57</time>
      </trkpt>
      <trkpt lat="42.38761" lon="2.76232">
        <ele>345.8</ele>
        <time>2022-05-21 16:30:58</time>
      </trkpt>
      <trkpt lat="42.3876" lon="2.76228">
        <ele>346</ele>
        <time>2022-05-21 16:30:59</time>
      </trkpt>
      <trkpt lat="42.38758" lon="2.76224">
        <ele>346</ele>
        <time>2022-05-21 16:31:00</time>
      </trkpt>
      <trkpt lat="42.38756" lon="2.7622">
        <ele>346.2</ele>
        <time>2022-05-21 16:31:01</time>
      </trkpt>
      <trkpt lat="42.38755" lon="2.76216">
        <ele>346.2</ele>
        <time>2022-05-21 16:31:02</time>
      </trkpt>
      <trkpt lat="42.38753" lon="2.76211">
        <ele>346.4</ele>
        <time>2022-05-21 16:31:03</time>
      </trkpt>
      <trkpt lat="42.38752" lon="2.76206">
        <ele>346.4</ele>
        <time>2022-05-21 16:31:04</time>
      </trkpt>
      <trkpt lat="42.38751" lon="2.76201">
        <ele>346.6</ele>
        <time>2022-05-21 16:31:05</time>
      </trkpt>
      <trkpt lat="42.3875" lon="2.76195">
        <ele>346.6</ele>
        <time>2022-05-21 16:31:06</time>
      </trkpt>
      <trkpt lat="42.3875" lon="2.7619">
        <ele>346.8</ele>
        <time>2022-05-21 16:31:07</time>
      </trkpt>
      <trkpt lat="42.38749" lon="2.76184">
        <ele>346.8</ele>
        <time>2022-05-21 16:31:08</time>
      </trkpt>
      <trkpt lat="42.38749" lon="2.76179">
        <ele>346.8</ele>
        <time>2022-05-21 16:31:09</time>
      </trkpt>
      <trkpt lat="42.3875" lon="2.76174">
        <ele>347</ele>
        <time>2022-05-21 16:31:10</time>
      </trkpt>
      <trkpt lat="42.3875" lon="2.76169">
        <ele>347</ele>
        <time>2022-05-21 16:31:11</time>
      </trkpt>
      <trkpt lat="42.38751" lon="2.76164">
        <ele>347</ele>
        <time>2022-05-21 16:31:12</time>
      </trkpt>
      <trkpt lat="42.38752" lon="2.76159">
        <ele>347</ele>
        <time>2022-05-21 16:31:13</time>
      </trkpt>
      <trkpt lat="42.38753" lon="2.76153">
        <ele>347</ele>
        <time>2022-05-21 16:31:14</time>
      </trkpt>
      <trkpt lat="42.38755" lon="2.76148">
        <ele>347</ele>
        <time>2022-05-21 16:31:15</time>
      </trkpt>
      <trkpt lat="42.38756" lon="2.76142">
        <ele>347</ele>
        <time>2022-05-21 16:31:16</time>
      </trkpt>
      <trkpt lat="42.38758" lon="2.76136">
        <ele>347</ele>
        <time>2022-05-21 16:31:17</time>
      </trkpt>
      <trkpt lat="42.38759" lon="2.7613">
        <ele>347</ele>
        <time>2022-05-21 16:31:18</time>
      </trkpt>
      <trkpt lat="42.38761" lon="2.76124">
        <ele>347</ele>
        <time>2022-05-21 16:31:19</time>
      </trkpt>
      <trkpt lat="42.38762" lon="2.76118">
        <ele>347</ele>
        <time>2022-05-21 16:31:20</time>
      </trkpt>
      <trkpt lat="42.38764" lon="2.76113">
        <ele>347</ele>
        <time>2022-05-21 16:31:21</time>
      </trkpt>
      <trkpt lat="42.38765" lon="2.76109">
        <ele>347</ele>
        <time>2022-05-21 16:31:22</time>
      </trkpt>
      <trkpt lat="42.38767" lon="2.76101">
        <ele>347</ele>
        <time>2022-05-21 16:31:23</time>
      </trkpt>
      <trkpt lat="42.38769" lon="2.76095">
        <ele>347</ele>
        <time>2022-05-21 16:31:24</time>
      </trkpt>
      <trkpt lat="42.38771" lon="2.7609">
        <ele>347</ele>
        <time>2022-05-21 16:31:25</time>
      </trkpt>
      <trkpt lat="42.38772" lon="2.76084">
        <ele>347</ele>
        <time>2022-05-21 16:31:26</time>
      </trkpt>
      <trkpt lat="42.38774" lon="2.76079">
        <ele>347</ele>
        <time>2022-05-21 16:31:27</time>
      </trkpt>
      <trkpt lat="42.38775" lon="2.76073">
        <ele>347</ele>
        <time>2022-05-21 16:31:28</time>
      </trkpt>
      <trkpt lat="42.38777" lon="2.76067">
        <ele>347</ele>
        <time>2022-05-21 16:31:29</time>
      </trkpt>
      <trkpt lat="42.38778" lon="2.76061">
        <ele>347</ele>
        <time>2022-05-21 16:31:30</time>
      </trkpt>
      <trkpt lat="42.3878" lon="2.76055">
        <ele>347</ele>
        <time>2022-05-21 16:31:31</time>
      </trkpt>
      <trkpt lat="42.38782" lon="2.76049">
        <ele>347</ele>
        <time>2022-05-21 16:31:32</time>
      </trkpt>
      <trkpt lat="42.38783" lon="2.76043">
        <ele>347</ele>
        <time>2022-05-21 16:31:33</time>
      </trkpt>
      <trkpt lat="42.38785" lon="2.76037">
        <ele>347</ele>
        <time>2022-05-21 16:31:34</time>
      </trkpt>
      <trkpt lat="42.38787" lon="2.76031">
        <ele>347</ele>
        <time>2022-05-21 16:31:35</time>
      </trkpt>
      <trkpt lat="42.38788" lon="2.76025">
        <ele>347</ele>
        <time>2022-05-21 16:31:36</time>
      </trkpt>
      <trkpt lat="42.38789" lon="2.76019">
        <ele>347</ele>
        <time>2022-05-21 16:31:37</time>
      </trkpt>
      <trkpt lat="42.38789" lon="2.76013">
        <ele>347</ele>
        <time>2022-05-21 16:31:38</time>
      </trkpt>
      <trkpt lat="42.3879" lon="2.76007">
        <ele>347</ele>
        <time>2022-05-21 16:31:39</time>
      </trkpt>
      <trkpt lat="42.3879" lon="2.76002">
        <ele>347</ele>
        <time>2022-05-21 16:31:40</time>
      </trkpt>
      <trkpt lat="42.3879" lon="2.75995">
        <ele>347</ele>
        <time>2022-05-21 16:31:41</time>
      </trkpt>
      <trkpt lat="42.3879" lon="2.75988">
        <ele>346.8</ele>
        <time>2022-05-21 16:31:42</time>
      </trkpt>
      <trkpt lat="42.3879" lon="2.75981">
        <ele>346.8</ele>
        <time>2022-05-21 16:31:43</time>
      </trkpt>
      <trkpt lat="42.38789" lon="2.75975">
        <ele>346.8</ele>
        <time>2022-05-21 16:31:44</time>
      </trkpt>
      <trkpt lat="42.38788" lon="2.75969">
        <ele>346.8</ele>
        <time>2022-05-21 16:31:45</time>
      </trkpt>
      <trkpt lat="42.38786" lon="2.75963">
        <ele>346.8</ele>
        <time>2022-05-21 16:31:46</time>
      </trkpt>
      <trkpt lat="42.38784" lon="2.75957">
        <ele>346.8</ele>
        <time>2022-05-21 16:31:47</time>
      </trkpt>
      <trkpt lat="42.38782" lon="2.75952">
        <ele>346.8</ele>
        <time>2022-05-21 16:31:48</time>
      </trkpt>
      <trkpt lat="42.3878" lon="2.75947">
        <ele>346.8</ele>
        <time>2022-05-21 16:31:49</time>
      </trkpt>
      <trkpt lat="42.38776" lon="2.75942">
        <ele>346.8</ele>
        <time>2022-05-21 16:31:50</time>
      </trkpt>
      <trkpt lat="42.38772" lon="2.75937">
        <ele>346.8</ele>
        <time>2022-05-21 16:31:51</time>
      </trkpt>
      <trkpt lat="42.38769" lon="2.75933">
        <ele>346.8</ele>
        <time>2022-05-21 16:31:52</time>
      </trkpt>
      <trkpt lat="42.38764" lon="2.75929">
        <ele>346.8</ele>
        <time>2022-05-21 16:31:53</time>
      </trkpt>
      <trkpt lat="42.3876" lon="2.75926">
        <ele>346.8</ele>
        <time>2022-05-21 16:31:54</time>
      </trkpt>
      <trkpt lat="42.38755" lon="2.75923">
        <ele>346.8</ele>
        <time>2022-05-21 16:31:55</time>
      </trkpt>
      <trkpt lat="42.3875" lon="2.7592">
        <ele>346.8</ele>
        <time>2022-05-21 16:31:56</time>
      </trkpt>
      <trkpt lat="42.38745" lon="2.75917">
        <ele>346.8</ele>
        <time>2022-05-21 16:31:57</time>
      </trkpt>
      <trkpt lat="42.38741" lon="2.75913">
        <ele>346.8</ele>
        <time>2022-05-21 16:31:58</time>
      </trkpt>
      <trkpt lat="42.38736" lon="2.75909">
        <ele>346.8</ele>
        <time>2022-05-21 16:31:59</time>
      </trkpt>
      <trkpt lat="42.38732" lon="2.75905">
        <ele>346.6</ele>
        <time>2022-05-21 16:32:00</time>
      </trkpt>
      <trkpt lat="42.38728" lon="2.759">
        <ele>346.6</ele>
        <time>2022-05-21 16:32:01</time>
      </trkpt>
      <trkpt lat="42.38724" lon="2.75894">
        <ele>346.6</ele>
        <time>2022-05-21 16:32:02</time>
      </trkpt>
      <trkpt lat="42.38721" lon="2.75887">
        <ele>346.6</ele>
        <time>2022-05-21 16:32:03</time>
      </trkpt>
      <trkpt lat="42.38718" lon="2.7588">
        <ele>346.8</ele>
        <time>2022-05-21 16:32:04</time>
      </trkpt>
      <trkpt lat="42.38717" lon="2.75873">
        <ele>346.8</ele>
        <time>2022-05-21 16:32:05</time>
      </trkpt>
      <trkpt lat="42.38715" lon="2.75867">
        <ele>346.8</ele>
        <time>2022-05-21 16:32:06</time>
      </trkpt>
      <trkpt lat="42.38714" lon="2.7586">
        <ele>346.8</ele>
        <time>2022-05-21 16:32:07</time>
      </trkpt>
      <trkpt lat="42.38712" lon="2.75854">
        <ele>346.8</ele>
        <time>2022-05-21 16:32:08</time>
      </trkpt>
      <trkpt lat="42.38711" lon="2.75847">
        <ele>346.8</ele>
        <time>2022-05-21 16:32:09</time>
      </trkpt>
      <trkpt lat="42.38709" lon="2.75841">
        <ele>346.8</ele>
        <time>2022-05-21 16:32:10</time>
      </trkpt>
      <trkpt lat="42.38708" lon="2.75834">
        <ele>346.8</ele>
        <time>2022-05-21 16:32:11</time>
      </trkpt>
      <trkpt lat="42.38706" lon="2.75828">
        <ele>346.8</ele>
        <time>2022-05-21 16:32:12</time>
      </trkpt>
      <trkpt lat="42.38705" lon="2.75821">
        <ele>346.8</ele>
        <time>2022-05-21 16:32:13</time>
      </trkpt>
      <trkpt lat="42.38703" lon="2.75815">
        <ele>346.8</ele>
        <time>2022-05-21 16:32:14</time>
      </trkpt>
      <trkpt lat="42.38701" lon="2.75809">
        <ele>346.8</ele>
        <time>2022-05-21 16:32:15</time>
      </trkpt>
      <trkpt lat="42.38699" lon="2.75803">
        <ele>347</ele>
        <time>2022-05-21 16:32:16</time>
      </trkpt>
      <trkpt lat="42.38698" lon="2.75798">
        <ele>347</ele>
        <time>2022-05-21 16:32:17</time>
      </trkpt>
      <trkpt lat="42.38696" lon="2.75792">
        <ele>346.8</ele>
        <time>2022-05-21 16:32:18</time>
      </trkpt>
      <trkpt lat="42.38695" lon="2.75787">
        <ele>346.8</ele>
        <time>2022-05-21 16:32:19</time>
      </trkpt>
      <trkpt lat="42.38693" lon="2.7578">
        <ele>346.8</ele>
        <time>2022-05-21 16:32:20</time>
      </trkpt>
      <trkpt lat="42.38691" lon="2.75773">
        <ele>346.8</ele>
        <time>2022-05-21 16:32:21</time>
      </trkpt>
      <trkpt lat="42.38689" lon="2.75766">
        <ele>346.8</ele>
        <time>2022-05-21 16:32:22</time>
      </trkpt>
      <trkpt lat="42.38688" lon="2.75759">
        <ele>346.8</ele>
        <time>2022-05-21 16:32:23</time>
      </trkpt>
      <trkpt lat="42.38686" lon="2.75751">
        <ele>346.8</ele>
        <time>2022-05-21 16:32:24</time>
      </trkpt>
      <trkpt lat="42.38684" lon="2.75744">
        <ele>346.8</ele>
        <time>2022-05-21 16:32:25</time>
      </trkpt>
      <trkpt lat="42.38682" lon="2.75737">
        <ele>346.8</ele>
        <time>2022-05-21 16:32:26</time>
      </trkpt>
      <trkpt lat="42.3868" lon="2.7573">
        <ele>346.8</ele>
        <time>2022-05-21 16:32:27</time>
      </trkpt>
      <trkpt lat="42.38679" lon="2.75724">
        <ele>346.8</ele>
        <time>2022-05-21 16:32:28</time>
      </trkpt>
      <trkpt lat="42.38677" lon="2.75718">
        <ele>346.8</ele>
        <time>2022-05-21 16:32:29</time>
      </trkpt>
      <trkpt lat="42.38675" lon="2.75711">
        <ele>346.8</ele>
        <time>2022-05-21 16:32:30</time>
      </trkpt>
      <trkpt lat="42.38673" lon="2.75704">
        <ele>346.8</ele>
        <time>2022-05-21 16:32:31</time>
      </trkpt>
      <trkpt lat="42.38671" lon="2.75697">
        <ele>346.8</ele>
        <time>2022-05-21 16:32:32</time>
      </trkpt>
      <trkpt lat="42.38669" lon="2.7569">
        <ele>346.8</ele>
        <time>2022-05-21 16:32:33</time>
      </trkpt>
      <trkpt lat="42.38667" lon="2.75683">
        <ele>346.8</ele>
        <time>2022-05-21 16:32:34</time>
      </trkpt>
      <trkpt lat="42.38665" lon="2.75676">
        <ele>346.8</ele>
        <time>2022-05-21 16:32:35</time>
      </trkpt>
      <trkpt lat="42.38663" lon="2.75669">
        <ele>346.8</ele>
        <time>2022-05-21 16:32:36</time>
      </trkpt>
      <trkpt lat="42.38661" lon="2.75662">
        <ele>346.8</ele>
        <time>2022-05-21 16:32:37</time>
      </trkpt>
      <trkpt lat="42.3866" lon="2.75655">
        <ele>346.6</ele>
        <time>2022-05-21 16:32:38</time>
      </trkpt>
      <trkpt lat="42.38658" lon="2.75648">
        <ele>346.6</ele>
        <time>2022-05-21 16:32:39</time>
      </trkpt>
      <trkpt lat="42.38657" lon="2.75641">
        <ele>346.6</ele>
        <time>2022-05-21 16:32:40</time>
      </trkpt>
      <trkpt lat="42.38655" lon="2.75634">
        <ele>346.6</ele>
        <time>2022-05-21 16:32:41</time>
      </trkpt>
      <trkpt lat="42.38654" lon="2.75627">
        <ele>346.6</ele>
        <time>2022-05-21 16:32:42</time>
      </trkpt>
      <trkpt lat="42.38652" lon="2.7562">
        <ele>346.6</ele>
        <time>2022-05-21 16:32:43</time>
      </trkpt>
      <trkpt lat="42.3865" lon="2.75613">
        <ele>346.6</ele>
        <time>2022-05-21 16:32:44</time>
      </trkpt>
      <trkpt lat="42.38649" lon="2.75606">
        <ele>346.6</ele>
        <time>2022-05-21 16:32:45</time>
      </trkpt>
      <trkpt lat="42.38647" lon="2.75598">
        <ele>346.6</ele>
        <time>2022-05-21 16:32:46</time>
      </trkpt>
      <trkpt lat="42.38645" lon="2.75591">
        <ele>346.6</ele>
        <time>2022-05-21 16:32:47</time>
      </trkpt>
      <trkpt lat="42.38644" lon="2.75584">
        <ele>346.4</ele>
        <time>2022-05-21 16:32:48</time>
      </trkpt>
      <trkpt lat="42.38642" lon="2.75577">
        <ele>346.4</ele>
        <time>2022-05-21 16:32:49</time>
      </trkpt>
      <trkpt lat="42.3864" lon="2.7557">
        <ele>346.4</ele>
        <time>2022-05-21 16:32:50</time>
      </trkpt>
      <trkpt lat="42.38638" lon="2.75562">
        <ele>346.4</ele>
        <time>2022-05-21 16:32:51</time>
      </trkpt>
      <trkpt lat="42.38636" lon="2.75555">
        <ele>346.2</ele>
        <time>2022-05-21 16:32:52</time>
      </trkpt>
      <trkpt lat="42.38635" lon="2.75548">
        <ele>346.2</ele>
        <time>2022-05-21 16:32:53</time>
      </trkpt>
      <trkpt lat="42.38633" lon="2.75541">
        <ele>346.2</ele>
        <time>2022-05-21 16:32:54</time>
      </trkpt>
      <trkpt lat="42.38631" lon="2.75534">
        <ele>346.2</ele>
        <time>2022-05-21 16:32:55</time>
      </trkpt>
      <trkpt lat="42.38629" lon="2.75527">
        <ele>346.2</ele>
        <time>2022-05-21 16:32:56</time>
      </trkpt>
      <trkpt lat="42.38627" lon="2.7552">
        <ele>346.2</ele>
        <time>2022-05-21 16:32:57</time>
      </trkpt>
      <trkpt lat="42.38625" lon="2.75513">
        <ele>346.2</ele>
        <time>2022-05-21 16:32:58</time>
      </trkpt>
      <trkpt lat="42.38623" lon="2.75505">
        <ele>346.2</ele>
        <time>2022-05-21 16:32:59</time>
      </trkpt>
      <trkpt lat="42.38621" lon="2.75498">
        <ele>346.2</ele>
        <time>2022-05-21 16:33:00</time>
      </trkpt>
      <trkpt lat="42.38619" lon="2.75491">
        <ele>346.2</ele>
        <time>2022-05-21 16:33:01</time>
      </trkpt>
      <trkpt lat="42.38617" lon="2.75485">
        <ele>346</ele>
        <time>2022-05-21 16:33:02</time>
      </trkpt>
      <trkpt lat="42.38616" lon="2.75478">
        <ele>346</ele>
        <time>2022-05-21 16:33:03</time>
      </trkpt>
      <trkpt lat="42.38614" lon="2.7547">
        <ele>346</ele>
        <time>2022-05-21 16:33:04</time>
      </trkpt>
      <trkpt lat="42.38612" lon="2.75463">
        <ele>346</ele>
        <time>2022-05-21 16:33:05</time>
      </trkpt>
      <trkpt lat="42.38611" lon="2.75456">
        <ele>346</ele>
        <time>2022-05-21 16:33:06</time>
      </trkpt>
      <trkpt lat="42.3861" lon="2.75449">
        <ele>346</ele>
        <time>2022-05-21 16:33:07</time>
      </trkpt>
      <trkpt lat="42.38608" lon="2.75442">
        <ele>345.8</ele>
        <time>2022-05-21 16:33:08</time>
      </trkpt>
      <trkpt lat="42.38607" lon="2.75434">
        <ele>345.8</ele>
        <time>2022-05-21 16:33:09</time>
      </trkpt>
      <trkpt lat="42.38605" lon="2.75426">
        <ele>345.8</ele>
        <time>2022-05-21 16:33:10</time>
      </trkpt>
      <trkpt lat="42.38603" lon="2.75418">
        <ele>345.8</ele>
        <time>2022-05-21 16:33:11</time>
      </trkpt>
      <trkpt lat="42.38601" lon="2.75411">
        <ele>345.8</ele>
        <time>2022-05-21 16:33:12</time>
      </trkpt>
      <trkpt lat="42.38598" lon="2.75403">
        <ele>345.8</ele>
        <time>2022-05-21 16:33:13</time>
      </trkpt>
      <trkpt lat="42.38594" lon="2.75395">
        <ele>345.8</ele>
        <time>2022-05-21 16:33:14</time>
      </trkpt>
      <trkpt lat="42.3859" lon="2.75388">
        <ele>345.8</ele>
        <time>2022-05-21 16:33:15</time>
      </trkpt>
      <trkpt lat="42.38585" lon="2.75382">
        <ele>345.8</ele>
        <time>2022-05-21 16:33:16</time>
      </trkpt>
      <trkpt lat="42.3858" lon="2.75377">
        <ele>345.8</ele>
        <time>2022-05-21 16:33:17</time>
      </trkpt>
      <trkpt lat="42.38573" lon="2.75372">
        <ele>345.6</ele>
        <time>2022-05-21 16:33:18</time>
      </trkpt>
      <trkpt lat="42.38566" lon="2.75368">
        <ele>345.4</ele>
        <time>2022-05-21 16:33:19</time>
      </trkpt>
      <trkpt lat="42.38559" lon="2.75364">
        <ele>345.4</ele>
        <time>2022-05-21 16:33:20</time>
      </trkpt>
      <trkpt lat="42.38552" lon="2.75362">
        <ele>345.4</ele>
        <time>2022-05-21 16:33:21</time>
      </trkpt>
      <trkpt lat="42.38546" lon="2.7536">
        <ele>345.2</ele>
        <time>2022-05-21 16:33:22</time>
      </trkpt>
      <trkpt lat="42.38539" lon="2.75358">
        <ele>345.2</ele>
        <time>2022-05-21 16:33:23</time>
      </trkpt>
      <trkpt lat="42.38532" lon="2.75356">
        <ele>345</ele>
        <time>2022-05-21 16:33:24</time>
      </trkpt>
      <trkpt lat="42.38525" lon="2.75353">
        <ele>344.8</ele>
        <time>2022-05-21 16:33:25</time>
      </trkpt>
      <trkpt lat="42.38519" lon="2.7535">
        <ele>344.6</ele>
        <time>2022-05-21 16:33:26</time>
      </trkpt>
      <trkpt lat="42.38512" lon="2.75345">
        <ele>344.4</ele>
        <time>2022-05-21 16:33:27</time>
      </trkpt>
      <trkpt lat="42.38506" lon="2.75339">
        <ele>344.4</ele>
        <time>2022-05-21 16:33:28</time>
      </trkpt>
      <trkpt lat="42.38502" lon="2.75332">
        <ele>344.2</ele>
        <time>2022-05-21 16:33:29</time>
      </trkpt>
      <trkpt lat="42.38498" lon="2.75324">
        <ele>344</ele>
        <time>2022-05-21 16:33:30</time>
      </trkpt>
      <trkpt lat="42.38495" lon="2.75314">
        <ele>343.8</ele>
        <time>2022-05-21 16:33:31</time>
      </trkpt>
      <trkpt lat="42.38493" lon="2.75305">
        <ele>343.6</ele>
        <time>2022-05-21 16:33:32</time>
      </trkpt>
      <trkpt lat="42.38491" lon="2.75296">
        <ele>343.4</ele>
        <time>2022-05-21 16:33:33</time>
      </trkpt>
      <trkpt lat="42.38489" lon="2.75286">
        <ele>343.4</ele>
        <time>2022-05-21 16:33:34</time>
      </trkpt>
      <trkpt lat="42.38487" lon="2.75277">
        <ele>343.2</ele>
        <time>2022-05-21 16:33:35</time>
      </trkpt>
      <trkpt lat="42.38486" lon="2.75268">
        <ele>343.2</ele>
        <time>2022-05-21 16:33:36</time>
      </trkpt>
      <trkpt lat="42.38485" lon="2.75258">
        <ele>343</ele>
        <time>2022-05-21 16:33:37</time>
      </trkpt>
      <trkpt lat="42.38482" lon="2.75248">
        <ele>343</ele>
        <time>2022-05-21 16:33:38</time>
      </trkpt>
      <trkpt lat="42.3848" lon="2.75239">
        <ele>342.8</ele>
        <time>2022-05-21 16:33:39</time>
      </trkpt>
      <trkpt lat="42.38478" lon="2.75229">
        <ele>342.6</ele>
        <time>2022-05-21 16:33:40</time>
      </trkpt>
      <trkpt lat="42.38475" lon="2.75219">
        <ele>342.6</ele>
        <time>2022-05-21 16:33:41</time>
      </trkpt>
      <trkpt lat="42.38472" lon="2.75211">
        <ele>342.4</ele>
        <time>2022-05-21 16:33:42</time>
      </trkpt>
      <trkpt lat="42.38469" lon="2.75202">
        <ele>342.4</ele>
        <time>2022-05-21 16:33:43</time>
      </trkpt>
      <trkpt lat="42.38465" lon="2.75193">
        <ele>342.2</ele>
        <time>2022-05-21 16:33:44</time>
      </trkpt>
      <trkpt lat="42.38461" lon="2.75185">
        <ele>342.2</ele>
        <time>2022-05-21 16:33:45</time>
      </trkpt>
      <trkpt lat="42.38457" lon="2.75178">
        <ele>342</ele>
        <time>2022-05-21 16:33:46</time>
      </trkpt>
      <trkpt lat="42.38453" lon="2.75171">
        <ele>342</ele>
        <time>2022-05-21 16:33:47</time>
      </trkpt>
      <trkpt lat="42.38448" lon="2.75164">
        <ele>342</ele>
        <time>2022-05-21 16:33:48</time>
      </trkpt>
      <trkpt lat="42.38444" lon="2.75157">
        <ele>342</ele>
        <time>2022-05-21 16:33:49</time>
      </trkpt>
      <trkpt lat="42.38439" lon="2.75151">
        <ele>342.2</ele>
        <time>2022-05-21 16:33:50</time>
      </trkpt>
      <trkpt lat="42.38434" lon="2.75146">
        <ele>342.2</ele>
        <time>2022-05-21 16:33:51</time>
      </trkpt>
      <trkpt lat="42.38429" lon="2.7514">
        <ele>342.2</ele>
        <time>2022-05-21 16:33:52</time>
      </trkpt>
      <trkpt lat="42.38425" lon="2.75135">
        <ele>342.4</ele>
        <time>2022-05-21 16:33:53</time>
      </trkpt>
      <trkpt lat="42.3842" lon="2.7513">
        <ele>342.4</ele>
        <time>2022-05-21 16:33:54</time>
      </trkpt>
      <trkpt lat="42.38415" lon="2.75125">
        <ele>342.6</ele>
        <time>2022-05-21 16:33:55</time>
      </trkpt>
      <trkpt lat="42.38411" lon="2.75121">
        <ele>342.8</ele>
        <time>2022-05-21 16:33:56</time>
      </trkpt>
      <trkpt lat="42.38406" lon="2.75116">
        <ele>342.8</ele>
        <time>2022-05-21 16:33:57</time>
      </trkpt>
      <trkpt lat="42.38402" lon="2.75112">
        <ele>343</ele>
        <time>2022-05-21 16:33:58</time>
      </trkpt>
      <trkpt lat="42.38399" lon="2.75108">
        <ele>343.2</ele>
        <time>2022-05-21 16:33:59</time>
      </trkpt>
      <trkpt lat="42.38395" lon="2.75104">
        <ele>343.4</ele>
        <time>2022-05-21 16:34:00</time>
      </trkpt>
      <trkpt lat="42.38391" lon="2.75101">
        <ele>343.8</ele>
        <time>2022-05-21 16:34:01</time>
      </trkpt>
      <trkpt lat="42.38388" lon="2.75098">
        <ele>343.8</ele>
        <time>2022-05-21 16:34:02</time>
      </trkpt>
      <trkpt lat="42.38385" lon="2.75095">
        <ele>344.2</ele>
        <time>2022-05-21 16:34:03</time>
      </trkpt>
      <trkpt lat="42.38382" lon="2.75092">
        <ele>344.4</ele>
        <time>2022-05-21 16:34:04</time>
      </trkpt>
      <trkpt lat="42.38379" lon="2.75089">
        <ele>344.6</ele>
        <time>2022-05-21 16:34:05</time>
      </trkpt>
      <trkpt lat="42.38376" lon="2.75086">
        <ele>345</ele>
        <time>2022-05-21 16:34:06</time>
      </trkpt>
      <trkpt lat="42.38373" lon="2.75084">
        <ele>345.2</ele>
        <time>2022-05-21 16:34:07</time>
      </trkpt>
      <trkpt lat="42.38371" lon="2.75081">
        <ele>345.4</ele>
        <time>2022-05-21 16:34:08</time>
      </trkpt>
      <trkpt lat="42.38368" lon="2.75079">
        <ele>345.8</ele>
        <time>2022-05-21 16:34:09</time>
      </trkpt>
      <trkpt lat="42.38366" lon="2.75076">
        <ele>346</ele>
        <time>2022-05-21 16:34:10</time>
      </trkpt>
      <trkpt lat="42.38363" lon="2.75074">
        <ele>346.2</ele>
        <time>2022-05-21 16:34:11</time>
      </trkpt>
      <trkpt lat="42.38361" lon="2.75072">
        <ele>346.6</ele>
        <time>2022-05-21 16:34:12</time>
      </trkpt>
      <trkpt lat="42.38359" lon="2.75069">
        <ele>346.6</ele>
        <time>2022-05-21 16:34:13</time>
      </trkpt>
      <trkpt lat="42.38356" lon="2.75067">
        <ele>346.8</ele>
        <time>2022-05-21 16:34:14</time>
      </trkpt>
      <trkpt lat="42.38354" lon="2.75065">
        <ele>347</ele>
        <time>2022-05-21 16:34:15</time>
      </trkpt>
      <trkpt lat="42.38352" lon="2.75063">
        <ele>347.2</ele>
        <time>2022-05-21 16:34:16</time>
      </trkpt>
      <trkpt lat="42.3835" lon="2.7506">
        <ele>347.4</ele>
        <time>2022-05-21 16:34:17</time>
      </trkpt>
      <trkpt lat="42.38348" lon="2.75058">
        <ele>347.6</ele>
        <time>2022-05-21 16:34:18</time>
      </trkpt>
      <trkpt lat="42.38346" lon="2.75056">
        <ele>347.8</ele>
        <time>2022-05-21 16:34:19</time>
      </trkpt>
      <trkpt lat="42.38345" lon="2.75054">
        <ele>348.2</ele>
        <time>2022-05-21 16:34:20</time>
      </trkpt>
      <trkpt lat="42.38343" lon="2.75052">
        <ele>348.4</ele>
        <time>2022-05-21 16:34:21</time>
      </trkpt>
      <trkpt lat="42.38341" lon="2.75049">
        <ele>348.6</ele>
        <time>2022-05-21 16:34:22</time>
      </trkpt>
      <trkpt lat="42.38339" lon="2.75047">
        <ele>348.8</ele>
        <time>2022-05-21 16:34:23</time>
      </trkpt>
      <trkpt lat="42.38336" lon="2.75045">
        <ele>349.2</ele>
        <time>2022-05-21 16:34:24</time>
      </trkpt>
      <trkpt lat="42.38334" lon="2.75043">
        <ele>349.4</ele>
        <time>2022-05-21 16:34:25</time>
      </trkpt>
      <trkpt lat="42.38332" lon="2.7504">
        <ele>349.6</ele>
        <time>2022-05-21 16:34:26</time>
      </trkpt>
      <trkpt lat="42.3833" lon="2.75038">
        <ele>349.8</ele>
        <time>2022-05-21 16:34:27</time>
      </trkpt>
      <trkpt lat="42.38328" lon="2.75037">
        <ele>350</ele>
        <time>2022-05-21 16:34:28</time>
      </trkpt>
      <trkpt lat="42.38326" lon="2.75035">
        <ele>350.2</ele>
        <time>2022-05-21 16:34:29</time>
      </trkpt>
      <trkpt lat="42.38325" lon="2.75033">
        <ele>350.4</ele>
        <time>2022-05-21 16:34:30</time>
      </trkpt>
      <trkpt lat="42.38323" lon="2.75032">
        <ele>350.6</ele>
        <time>2022-05-21 16:34:31</time>
      </trkpt>
      <trkpt lat="42.38321" lon="2.7503">
        <ele>350.8</ele>
        <time>2022-05-21 16:34:32</time>
      </trkpt>
      <trkpt lat="42.38319" lon="2.75028">
        <ele>351</ele>
        <time>2022-05-21 16:34:33</time>
      </trkpt>
      <trkpt lat="42.38317" lon="2.75026">
        <ele>351.2</ele>
        <time>2022-05-21 16:34:34</time>
      </trkpt>
      <trkpt lat="42.38316" lon="2.75024">
        <ele>351.4</ele>
        <time>2022-05-21 16:34:35</time>
      </trkpt>
      <trkpt lat="42.38314" lon="2.75023">
        <ele>351.4</ele>
        <time>2022-05-21 16:34:36</time>
      </trkpt>
      <trkpt lat="42.38312" lon="2.75021">
        <ele>351.6</ele>
        <time>2022-05-21 16:34:37</time>
      </trkpt>
      <trkpt lat="42.38311" lon="2.75019">
        <ele>351.8</ele>
        <time>2022-05-21 16:34:38</time>
      </trkpt>
      <trkpt lat="42.38309" lon="2.75017">
        <ele>352</ele>
        <time>2022-05-21 16:34:39</time>
      </trkpt>
      <trkpt lat="42.38307" lon="2.75015">
        <ele>352.2</ele>
        <time>2022-05-21 16:34:40</time>
      </trkpt>
      <trkpt lat="42.38305" lon="2.75013">
        <ele>352.4</ele>
        <time>2022-05-21 16:34:41</time>
      </trkpt>
      <trkpt lat="42.38303" lon="2.75012">
        <ele>352.6</ele>
        <time>2022-05-21 16:34:42</time>
      </trkpt>
      <trkpt lat="42.38302" lon="2.7501">
        <ele>352.6</ele>
        <time>2022-05-21 16:34:43</time>
      </trkpt>
      <trkpt lat="42.383" lon="2.75008">
        <ele>352.8</ele>
        <time>2022-05-21 16:34:44</time>
      </trkpt>
      <trkpt lat="42.38298" lon="2.75006">
        <ele>353</ele>
        <time>2022-05-21 16:34:45</time>
      </trkpt>
      <trkpt lat="42.38296" lon="2.75004">
        <ele>353.2</ele>
        <time>2022-05-21 16:34:46</time>
      </trkpt>
      <trkpt lat="42.38295" lon="2.75002">
        <ele>353.4</ele>
        <time>2022-05-21 16:34:47</time>
      </trkpt>
      <trkpt lat="42.38293" lon="2.75001">
        <ele>353.6</ele>
        <time>2022-05-21 16:34:48</time>
      </trkpt>
      <trkpt lat="42.38292" lon="2.74999">
        <ele>353.8</ele>
        <time>2022-05-21 16:34:49</time>
      </trkpt>
      <trkpt lat="42.3829" lon="2.74997">
        <ele>354</ele>
        <time>2022-05-21 16:34:50</time>
      </trkpt>
      <trkpt lat="42.38288" lon="2.74995">
        <ele>354</ele>
        <time>2022-05-21 16:34:51</time>
      </trkpt>
      <trkpt lat="42.38287" lon="2.74993">
        <ele>354.2</ele>
        <time>2022-05-21 16:34:52</time>
      </trkpt>
      <trkpt lat="42.38285" lon="2.74991">
        <ele>354.4</ele>
        <time>2022-05-21 16:34:53</time>
      </trkpt>
      <trkpt lat="42.38284" lon="2.74989">
        <ele>354.6</ele>
        <time>2022-05-21 16:34:54</time>
      </trkpt>
      <trkpt lat="42.38282" lon="2.74987">
        <ele>354.8</ele>
        <time>2022-05-21 16:34:55</time>
      </trkpt>
      <trkpt lat="42.38281" lon="2.74985">
        <ele>355</ele>
        <time>2022-05-21 16:34:56</time>
      </trkpt>
      <trkpt lat="42.3828" lon="2.74983">
        <ele>355</ele>
        <time>2022-05-21 16:34:57</time>
      </trkpt>
      <trkpt lat="42.38278" lon="2.74981">
        <ele>355.2</ele>
        <time>2022-05-21 16:34:58</time>
      </trkpt>
      <trkpt lat="42.38277" lon="2.7498">
        <ele>355.4</ele>
        <time>2022-05-21 16:34:59</time>
      </trkpt>
      <trkpt lat="42.38276" lon="2.74978">
        <ele>355.6</ele>
        <time>2022-05-21 16:35:00</time>
      </trkpt>
      <trkpt lat="42.38274" lon="2.74976">
        <ele>355.6</ele>
        <time>2022-05-21 16:35:01</time>
      </trkpt>
      <trkpt lat="42.38273" lon="2.74974">
        <ele>355.8</ele>
        <time>2022-05-21 16:35:02</time>
      </trkpt>
      <trkpt lat="42.38271" lon="2.74972">
        <ele>356</ele>
        <time>2022-05-21 16:35:03</time>
      </trkpt>
      <trkpt lat="42.3827" lon="2.7497">
        <ele>356.2</ele>
        <time>2022-05-21 16:35:04</time>
      </trkpt>
      <trkpt lat="42.38269" lon="2.74968">
        <ele>356.2</ele>
        <time>2022-05-21 16:35:05</time>
      </trkpt>
      <trkpt lat="42.38267" lon="2.74966">
        <ele>356.4</ele>
        <time>2022-05-21 16:35:06</time>
      </trkpt>
      <trkpt lat="42.38266" lon="2.74963">
        <ele>356.6</ele>
        <time>2022-05-21 16:35:07</time>
      </trkpt>
      <trkpt lat="42.38265" lon="2.74961">
        <ele>356.8</ele>
        <time>2022-05-21 16:35:08</time>
      </trkpt>
      <trkpt lat="42.38264" lon="2.74959">
        <ele>357</ele>
        <time>2022-05-21 16:35:09</time>
      </trkpt>
      <trkpt lat="42.38262" lon="2.74957">
        <ele>357</ele>
        <time>2022-05-21 16:35:10</time>
      </trkpt>
      <trkpt lat="42.38261" lon="2.74955">
        <ele>357.2</ele>
        <time>2022-05-21 16:35:11</time>
      </trkpt>
      <trkpt lat="42.3826" lon="2.74953">
        <ele>357.4</ele>
        <time>2022-05-21 16:35:12</time>
      </trkpt>
      <trkpt lat="42.38259" lon="2.74951">
        <ele>357.6</ele>
        <time>2022-05-21 16:35:13</time>
      </trkpt>
      <trkpt lat="42.38258" lon="2.74948">
        <ele>357.8</ele>
        <time>2022-05-21 16:35:14</time>
      </trkpt>
      <trkpt lat="42.38257" lon="2.74946">
        <ele>358</ele>
        <time>2022-05-21 16:35:15</time>
      </trkpt>
      <trkpt lat="42.38256" lon="2.74944">
        <ele>358.2</ele>
        <time>2022-05-21 16:35:16</time>
      </trkpt>
      <trkpt lat="42.38255" lon="2.74941">
        <ele>358.4</ele>
        <time>2022-05-21 16:35:17</time>
      </trkpt>
      <trkpt lat="42.38255" lon="2.74939">
        <ele>358.6</ele>
        <time>2022-05-21 16:35:18</time>
      </trkpt>
      <trkpt lat="42.38254" lon="2.74936">
        <ele>358.8</ele>
        <time>2022-05-21 16:35:19</time>
      </trkpt>
      <trkpt lat="42.38253" lon="2.74934">
        <ele>359</ele>
        <time>2022-05-21 16:35:20</time>
      </trkpt>
      <trkpt lat="42.38252" lon="2.74931">
        <ele>359.2</ele>
        <time>2022-05-21 16:35:21</time>
      </trkpt>
      <trkpt lat="42.38251" lon="2.74928">
        <ele>359.2</ele>
        <time>2022-05-21 16:35:22</time>
      </trkpt>
      <trkpt lat="42.3825" lon="2.74926">
        <ele>359.4</ele>
        <time>2022-05-21 16:35:23</time>
      </trkpt>
      <trkpt lat="42.38249" lon="2.74923">
        <ele>359.6</ele>
        <time>2022-05-21 16:35:24</time>
      </trkpt>
      <trkpt lat="42.38248" lon="2.7492">
        <ele>359.8</ele>
        <time>2022-05-21 16:35:25</time>
      </trkpt>
      <trkpt lat="42.38247" lon="2.74918">
        <ele>360</ele>
        <time>2022-05-21 16:35:26</time>
      </trkpt>
      <trkpt lat="42.38247" lon="2.74916">
        <ele>360.2</ele>
        <time>2022-05-21 16:35:27</time>
      </trkpt>
      <trkpt lat="42.38245" lon="2.74913">
        <ele>360.4</ele>
        <time>2022-05-21 16:35:28</time>
      </trkpt>
      <trkpt lat="42.38244" lon="2.7491">
        <ele>360.6</ele>
        <time>2022-05-21 16:35:29</time>
      </trkpt>
      <trkpt lat="42.38244" lon="2.74908">
        <ele>360.8</ele>
        <time>2022-05-21 16:35:30</time>
      </trkpt>
      <trkpt lat="42.38243" lon="2.74905">
        <ele>361</ele>
        <time>2022-05-21 16:35:31</time>
      </trkpt>
      <trkpt lat="42.38242" lon="2.74903">
        <ele>361</ele>
        <time>2022-05-21 16:35:32</time>
      </trkpt>
      <trkpt lat="42.38242" lon="2.749">
        <ele>361.2</ele>
        <time>2022-05-21 16:35:33</time>
      </trkpt>
      <trkpt lat="42.38241" lon="2.74898">
        <ele>361.4</ele>
        <time>2022-05-21 16:35:34</time>
      </trkpt>
      <trkpt lat="42.3824" lon="2.74896">
        <ele>361.6</ele>
        <time>2022-05-21 16:35:35</time>
      </trkpt>
      <trkpt lat="42.3824" lon="2.74893">
        <ele>361.8</ele>
        <time>2022-05-21 16:35:36</time>
      </trkpt>
      <trkpt lat="42.38239" lon="2.74891">
        <ele>362</ele>
        <time>2022-05-21 16:35:37</time>
      </trkpt>
      <trkpt lat="42.38239" lon="2.74888">
        <ele>362.2</ele>
        <time>2022-05-21 16:35:38</time>
      </trkpt>
      <trkpt lat="42.38238" lon="2.74885">
        <ele>362.4</ele>
        <time>2022-05-21 16:35:39</time>
      </trkpt>
      <trkpt lat="42.38237" lon="2.74883">
        <ele>362.4</ele>
        <time>2022-05-21 16:35:40</time>
      </trkpt>
      <trkpt lat="42.38237" lon="2.74881">
        <ele>362.6</ele>
        <time>2022-05-21 16:35:41</time>
      </trkpt>
      <trkpt lat="42.38237" lon="2.74878">
        <ele>362.8</ele>
        <time>2022-05-21 16:35:42</time>
      </trkpt>
      <trkpt lat="42.38236" lon="2.74875">
        <ele>363</ele>
        <time>2022-05-21 16:35:43</time>
      </trkpt>
      <trkpt lat="42.38236" lon="2.74873">
        <ele>363.2</ele>
        <time>2022-05-21 16:35:44</time>
      </trkpt>
      <trkpt lat="42.38235" lon="2.74871">
        <ele>363.4</ele>
        <time>2022-05-21 16:35:45</time>
      </trkpt>
      <trkpt lat="42.38235" lon="2.74868">
        <ele>363.6</ele>
        <time>2022-05-21 16:35:46</time>
      </trkpt>
      <trkpt lat="42.38235" lon="2.74865">
        <ele>363.6</ele>
        <time>2022-05-21 16:35:47</time>
      </trkpt>
      <trkpt lat="42.38234" lon="2.74863">
        <ele>363.8</ele>
        <time>2022-05-21 16:35:48</time>
      </trkpt>
      <trkpt lat="42.38234" lon="2.7486">
        <ele>364</ele>
        <time>2022-05-21 16:35:49</time>
      </trkpt>
      <trkpt lat="42.38234" lon="2.74857">
        <ele>364.2</ele>
        <time>2022-05-21 16:35:50</time>
      </trkpt>
      <trkpt lat="42.38234" lon="2.74855">
        <ele>364.4</ele>
        <time>2022-05-21 16:35:51</time>
      </trkpt>
      <trkpt lat="42.38234" lon="2.74852">
        <ele>364.6</ele>
        <time>2022-05-21 16:35:52</time>
      </trkpt>
      <trkpt lat="42.38234" lon="2.74849">
        <ele>364.8</ele>
        <time>2022-05-21 16:35:53</time>
      </trkpt>
      <trkpt lat="42.38233" lon="2.74846">
        <ele>364.8</ele>
        <time>2022-05-21 16:35:54</time>
      </trkpt>
      <trkpt lat="42.38233" lon="2.74844">
        <ele>365</ele>
        <time>2022-05-21 16:35:55</time>
      </trkpt>
      <trkpt lat="42.38233" lon="2.74841">
        <ele>365.2</ele>
        <time>2022-05-21 16:35:56</time>
      </trkpt>
      <trkpt lat="42.38233" lon="2.74839">
        <ele>365.4</ele>
        <time>2022-05-21 16:35:57</time>
      </trkpt>
      <trkpt lat="42.38233" lon="2.74836">
        <ele>365.6</ele>
        <time>2022-05-21 16:35:58</time>
      </trkpt>
      <trkpt lat="42.38233" lon="2.74834">
        <ele>365.8</ele>
        <time>2022-05-21 16:35:59</time>
      </trkpt>
      <trkpt lat="42.38233" lon="2.74832">
        <ele>366</ele>
        <time>2022-05-21 16:36:00</time>
      </trkpt>
      <trkpt lat="42.38233" lon="2.74829">
        <ele>366.2</ele>
        <time>2022-05-21 16:36:01</time>
      </trkpt>
      <trkpt lat="42.38233" lon="2.74826">
        <ele>366.4</ele>
        <time>2022-05-21 16:36:02</time>
      </trkpt>
      <trkpt lat="42.38233" lon="2.74824">
        <ele>366.6</ele>
        <time>2022-05-21 16:36:03</time>
      </trkpt>
      <trkpt lat="42.38233" lon="2.74821">
        <ele>366.8</ele>
        <time>2022-05-21 16:36:04</time>
      </trkpt>
      <trkpt lat="42.38233" lon="2.74818">
        <ele>366.8</ele>
        <time>2022-05-21 16:36:05</time>
      </trkpt>
      <trkpt lat="42.38233" lon="2.74816">
        <ele>367</ele>
        <time>2022-05-21 16:36:06</time>
      </trkpt>
      <trkpt lat="42.38233" lon="2.74813">
        <ele>367.2</ele>
        <time>2022-05-21 16:36:07</time>
      </trkpt>
      <trkpt lat="42.38233" lon="2.7481">
        <ele>367.4</ele>
        <time>2022-05-21 16:36:08</time>
      </trkpt>
      <trkpt lat="42.38233" lon="2.74807">
        <ele>367.6</ele>
        <time>2022-05-21 16:36:09</time>
      </trkpt>
      <trkpt lat="42.38233" lon="2.74804">
        <ele>367.8</ele>
        <time>2022-05-21 16:36:10</time>
      </trkpt>
      <trkpt lat="42.38233" lon="2.74801">
        <ele>368</ele>
        <time>2022-05-21 16:36:11</time>
      </trkpt>
      <trkpt lat="42.38233" lon="2.74798">
        <ele>368.2</ele>
        <time>2022-05-21 16:36:12</time>
      </trkpt>
      <trkpt lat="42.38234" lon="2.74795">
        <ele>368.4</ele>
        <time>2022-05-21 16:36:13</time>
      </trkpt>
      <trkpt lat="42.38234" lon="2.74792">
        <ele>368.4</ele>
        <time>2022-05-21 16:36:14</time>
      </trkpt>
      <trkpt lat="42.38234" lon="2.7479">
        <ele>368.6</ele>
        <time>2022-05-21 16:36:15</time>
      </trkpt>
      <trkpt lat="42.38234" lon="2.74786">
        <ele>368.8</ele>
        <time>2022-05-21 16:36:16</time>
      </trkpt>
      <trkpt lat="42.38234" lon="2.74783">
        <ele>369</ele>
        <time>2022-05-21 16:36:17</time>
      </trkpt>
      <trkpt lat="42.38235" lon="2.7478">
        <ele>369.2</ele>
        <time>2022-05-21 16:36:18</time>
      </trkpt>
      <trkpt lat="42.38235" lon="2.74778">
        <ele>369.2</ele>
        <time>2022-05-21 16:36:19</time>
      </trkpt>
      <trkpt lat="42.38236" lon="2.74775">
        <ele>369.4</ele>
        <time>2022-05-21 16:36:20</time>
      </trkpt>
      <trkpt lat="42.38236" lon="2.74772">
        <ele>369.6</ele>
        <time>2022-05-21 16:36:21</time>
      </trkpt>
      <trkpt lat="42.38237" lon="2.74769">
        <ele>369.8</ele>
        <time>2022-05-21 16:36:22</time>
      </trkpt>
      <trkpt lat="42.38237" lon="2.74766">
        <ele>370</ele>
        <time>2022-05-21 16:36:23</time>
      </trkpt>
      <trkpt lat="42.38238" lon="2.74764">
        <ele>370</ele>
        <time>2022-05-21 16:36:24</time>
      </trkpt>
      <trkpt lat="42.38238" lon="2.74761">
        <ele>370.2</ele>
        <time>2022-05-21 16:36:25</time>
      </trkpt>
      <trkpt lat="42.38238" lon="2.74758">
        <ele>370.4</ele>
        <time>2022-05-21 16:36:26</time>
      </trkpt>
      <trkpt lat="42.38238" lon="2.74756">
        <ele>370.6</ele>
        <time>2022-05-21 16:36:27</time>
      </trkpt>
      <trkpt lat="42.38239" lon="2.74753">
        <ele>370.6</ele>
        <time>2022-05-21 16:36:28</time>
      </trkpt>
      <trkpt lat="42.38239" lon="2.74751">
        <ele>370.8</ele>
        <time>2022-05-21 16:36:29</time>
      </trkpt>
      <trkpt lat="42.3824" lon="2.74748">
        <ele>371</ele>
        <time>2022-05-21 16:36:30</time>
      </trkpt>
      <trkpt lat="42.38241" lon="2.74745">
        <ele>371.2</ele>
        <time>2022-05-21 16:36:31</time>
      </trkpt>
      <trkpt lat="42.38241" lon="2.74743">
        <ele>371.2</ele>
        <time>2022-05-21 16:36:32</time>
      </trkpt>
      <trkpt lat="42.38242" lon="2.74741">
        <ele>371.4</ele>
        <time>2022-05-21 16:36:33</time>
      </trkpt>
      <trkpt lat="42.38243" lon="2.74738">
        <ele>371.6</ele>
        <time>2022-05-21 16:36:34</time>
      </trkpt>
      <trkpt lat="42.38244" lon="2.74735">
        <ele>371.8</ele>
        <time>2022-05-21 16:36:35</time>
      </trkpt>
      <trkpt lat="42.38245" lon="2.74733">
        <ele>371.8</ele>
        <time>2022-05-21 16:36:36</time>
      </trkpt>
      <trkpt lat="42.38245" lon="2.7473">
        <ele>372</ele>
        <time>2022-05-21 16:36:37</time>
      </trkpt>
      <trkpt lat="42.38246" lon="2.74728">
        <ele>372.2</ele>
        <time>2022-05-21 16:36:38</time>
      </trkpt>
      <trkpt lat="42.38247" lon="2.74725">
        <ele>372.2</ele>
        <time>2022-05-21 16:36:39</time>
      </trkpt>
      <trkpt lat="42.38247" lon="2.74723">
        <ele>372.4</ele>
        <time>2022-05-21 16:36:40</time>
      </trkpt>
      <trkpt lat="42.38248" lon="2.7472">
        <ele>372.4</ele>
        <time>2022-05-21 16:36:41</time>
      </trkpt>
      <trkpt lat="42.38249" lon="2.74718">
        <ele>372.6</ele>
        <time>2022-05-21 16:36:42</time>
      </trkpt>
      <trkpt lat="42.3825" lon="2.74715">
        <ele>372.8</ele>
        <time>2022-05-21 16:36:43</time>
      </trkpt>
      <trkpt lat="42.38251" lon="2.74713">
        <ele>372.8</ele>
        <time>2022-05-21 16:36:44</time>
      </trkpt>
      <trkpt lat="42.38252" lon="2.7471">
        <ele>373</ele>
        <time>2022-05-21 16:36:45</time>
      </trkpt>
      <trkpt lat="42.38253" lon="2.74707">
        <ele>373</ele>
        <time>2022-05-21 16:36:46</time>
      </trkpt>
      <trkpt lat="42.38253" lon="2.74705">
        <ele>373.2</ele>
        <time>2022-05-21 16:36:47</time>
      </trkpt>
      <trkpt lat="42.38254" lon="2.74703">
        <ele>373.2</ele>
        <time>2022-05-21 16:36:48</time>
      </trkpt>
      <trkpt lat="42.38255" lon="2.747">
        <ele>373.2</ele>
        <time>2022-05-21 16:36:49</time>
      </trkpt>
      <trkpt lat="42.38256" lon="2.74697">
        <ele>373.4</ele>
        <time>2022-05-21 16:36:50</time>
      </trkpt>
      <trkpt lat="42.38257" lon="2.74695">
        <ele>373.4</ele>
        <time>2022-05-21 16:36:51</time>
      </trkpt>
      <trkpt lat="42.38258" lon="2.74692">
        <ele>373.6</ele>
        <time>2022-05-21 16:36:52</time>
      </trkpt>
      <trkpt lat="42.38259" lon="2.74689">
        <ele>373.6</ele>
        <time>2022-05-21 16:36:53</time>
      </trkpt>
      <trkpt lat="42.3826" lon="2.74686">
        <ele>373.8</ele>
        <time>2022-05-21 16:36:54</time>
      </trkpt>
      <trkpt lat="42.38261" lon="2.74684">
        <ele>373.8</ele>
        <time>2022-05-21 16:36:55</time>
      </trkpt>
      <trkpt lat="42.38262" lon="2.74682">
        <ele>374</ele>
        <time>2022-05-21 16:36:56</time>
      </trkpt>
      <trkpt lat="42.38263" lon="2.74679">
        <ele>374</ele>
        <time>2022-05-21 16:36:57</time>
      </trkpt>
      <trkpt lat="42.38264" lon="2.74676">
        <ele>374.2</ele>
        <time>2022-05-21 16:36:58</time>
      </trkpt>
      <trkpt lat="42.38265" lon="2.74675">
        <ele>374.2</ele>
        <time>2022-05-21 16:36:59</time>
      </trkpt>
      <trkpt lat="42.38266" lon="2.74673">
        <ele>374.4</ele>
        <time>2022-05-21 16:37:00</time>
      </trkpt>
      <trkpt lat="42.38268" lon="2.7467">
        <ele>374.4</ele>
        <time>2022-05-21 16:37:01</time>
      </trkpt>
      <trkpt lat="42.38269" lon="2.74668">
        <ele>374.6</ele>
        <time>2022-05-21 16:37:02</time>
      </trkpt>
      <trkpt lat="42.38271" lon="2.74665">
        <ele>374.6</ele>
        <time>2022-05-21 16:37:03</time>
      </trkpt>
      <trkpt lat="42.38272" lon="2.74663">
        <ele>374.8</ele>
        <time>2022-05-21 16:37:04</time>
      </trkpt>
      <trkpt lat="42.38274" lon="2.74661">
        <ele>374.8</ele>
        <time>2022-05-21 16:37:05</time>
      </trkpt>
      <trkpt lat="42.38276" lon="2.74659">
        <ele>375</ele>
        <time>2022-05-21 16:37:06</time>
      </trkpt>
      <trkpt lat="42.38277" lon="2.74657">
        <ele>375</ele>
        <time>2022-05-21 16:37:07</time>
      </trkpt>
      <trkpt lat="42.38279" lon="2.74655">
        <ele>375.2</ele>
        <time>2022-05-21 16:37:08</time>
      </trkpt>
      <trkpt lat="42.3828" lon="2.74653">
        <ele>375.2</ele>
        <time>2022-05-21 16:37:09</time>
      </trkpt>
      <trkpt lat="42.38282" lon="2.74651">
        <ele>375.4</ele>
        <time>2022-05-21 16:37:10</time>
      </trkpt>
      <trkpt lat="42.38283" lon="2.74649">
        <ele>375.4</ele>
        <time>2022-05-21 16:37:11</time>
      </trkpt>
      <trkpt lat="42.38285" lon="2.74647">
        <ele>375.6</ele>
        <time>2022-05-21 16:37:12</time>
      </trkpt>
      <trkpt lat="42.38287" lon="2.74645">
        <ele>375.6</ele>
        <time>2022-05-21 16:37:13</time>
      </trkpt>
      <trkpt lat="42.38288" lon="2.74643">
        <ele>375.8</ele>
        <time>2022-05-21 16:37:14</time>
      </trkpt>
      <trkpt lat="42.3829" lon="2.74641">
        <ele>375.8</ele>
        <time>2022-05-21 16:37:15</time>
      </trkpt>
      <trkpt lat="42.38291" lon="2.74639">
        <ele>376</ele>
        <time>2022-05-21 16:37:16</time>
      </trkpt>
      <trkpt lat="42.38293" lon="2.74637">
        <ele>376</ele>
        <time>2022-05-21 16:37:17</time>
      </trkpt>
      <trkpt lat="42.38295" lon="2.74636">
        <ele>376.2</ele>
        <time>2022-05-21 16:37:18</time>
      </trkpt>
      <trkpt lat="42.38297" lon="2.74634">
        <ele>376.2</ele>
        <time>2022-05-21 16:37:19</time>
      </trkpt>
      <trkpt lat="42.38298" lon="2.74632">
        <ele>376.4</ele>
        <time>2022-05-21 16:37:20</time>
      </trkpt>
      <trkpt lat="42.383" lon="2.7463">
        <ele>376.6</ele>
        <time>2022-05-21 16:37:21</time>
      </trkpt>
      <trkpt lat="42.38302" lon="2.74629">
        <ele>376.6</ele>
        <time>2022-05-21 16:37:22</time>
      </trkpt>
      <trkpt lat="42.38304" lon="2.74627">
        <ele>376.8</ele>
        <time>2022-05-21 16:37:23</time>
      </trkpt>
      <trkpt lat="42.38307" lon="2.74625">
        <ele>376.8</ele>
        <time>2022-05-21 16:37:24</time>
      </trkpt>
      <trkpt lat="42.38309" lon="2.74623">
        <ele>377</ele>
        <time>2022-05-21 16:37:25</time>
      </trkpt>
      <trkpt lat="42.38311" lon="2.74621">
        <ele>377.2</ele>
        <time>2022-05-21 16:37:26</time>
      </trkpt>
      <trkpt lat="42.38313" lon="2.74618">
        <ele>377.2</ele>
        <time>2022-05-21 16:37:27</time>
      </trkpt>
      <trkpt lat="42.38315" lon="2.74616">
        <ele>377.4</ele>
        <time>2022-05-21 16:37:28</time>
      </trkpt>
      <trkpt lat="42.38316" lon="2.74615">
        <ele>377.4</ele>
        <time>2022-05-21 16:37:29</time>
      </trkpt>
      <trkpt lat="42.38318" lon="2.74613">
        <ele>377.6</ele>
        <time>2022-05-21 16:37:30</time>
      </trkpt>
      <trkpt lat="42.3832" lon="2.74611">
        <ele>377.8</ele>
        <time>2022-05-21 16:37:31</time>
      </trkpt>
      <trkpt lat="42.38321" lon="2.7461">
        <ele>377.8</ele>
        <time>2022-05-21 16:37:32</time>
      </trkpt>
      <trkpt lat="42.38323" lon="2.74608">
        <ele>378</ele>
        <time>2022-05-21 16:37:33</time>
      </trkpt>
      <trkpt lat="42.38325" lon="2.74606">
        <ele>378.2</ele>
        <time>2022-05-21 16:37:34</time>
      </trkpt>
      <trkpt lat="42.38326" lon="2.74604">
        <ele>378.2</ele>
        <time>2022-05-21 16:37:35</time>
      </trkpt>
      <trkpt lat="42.38328" lon="2.74603">
        <ele>378.4</ele>
        <time>2022-05-21 16:37:36</time>
      </trkpt>
      <trkpt lat="42.3833" lon="2.74601">
        <ele>378.6</ele>
        <time>2022-05-21 16:37:37</time>
      </trkpt>
      <trkpt lat="42.38332" lon="2.746">
        <ele>378.6</ele>
        <time>2022-05-21 16:37:38</time>
      </trkpt>
      <trkpt lat="42.38334" lon="2.74598">
        <ele>378.8</ele>
        <time>2022-05-21 16:37:39</time>
      </trkpt>
      <trkpt lat="42.38336" lon="2.74597">
        <ele>379</ele>
        <time>2022-05-21 16:37:40</time>
      </trkpt>
      <trkpt lat="42.38339" lon="2.74595">
        <ele>379</ele>
        <time>2022-05-21 16:37:41</time>
      </trkpt>
      <trkpt lat="42.38341" lon="2.74594">
        <ele>379.2</ele>
        <time>2022-05-21 16:37:42</time>
      </trkpt>
      <trkpt lat="42.38342" lon="2.74592">
        <ele>379.4</ele>
        <time>2022-05-21 16:37:43</time>
      </trkpt>
      <trkpt lat="42.38344" lon="2.74591">
        <ele>379.4</ele>
        <time>2022-05-21 16:37:44</time>
      </trkpt>
      <trkpt lat="42.38346" lon="2.74589">
        <ele>379.6</ele>
        <time>2022-05-21 16:37:45</time>
      </trkpt>
      <trkpt lat="42.38348" lon="2.74587">
        <ele>379.8</ele>
        <time>2022-05-21 16:37:46</time>
      </trkpt>
      <trkpt lat="42.3835" lon="2.74586">
        <ele>380</ele>
        <time>2022-05-21 16:37:47</time>
      </trkpt>
      <trkpt lat="42.38352" lon="2.74584">
        <ele>380</ele>
        <time>2022-05-21 16:37:48</time>
      </trkpt>
      <trkpt lat="42.38353" lon="2.74583">
        <ele>380.2</ele>
        <time>2022-05-21 16:37:49</time>
      </trkpt>
      <trkpt lat="42.38355" lon="2.74581">
        <ele>380.4</ele>
        <time>2022-05-21 16:37:50</time>
      </trkpt>
      <trkpt lat="42.38356" lon="2.7458">
        <ele>380.6</ele>
        <time>2022-05-21 16:37:51</time>
      </trkpt>
      <trkpt lat="42.38359" lon="2.74578">
        <ele>380.8</ele>
        <time>2022-05-21 16:37:52</time>
      </trkpt>
      <trkpt lat="42.38361" lon="2.74577">
        <ele>381</ele>
        <time>2022-05-21 16:37:53</time>
      </trkpt>
      <trkpt lat="42.38362" lon="2.74575">
        <ele>381</ele>
        <time>2022-05-21 16:37:54</time>
      </trkpt>
      <trkpt lat="42.38364" lon="2.74574">
        <ele>381.2</ele>
        <time>2022-05-21 16:37:55</time>
      </trkpt>
      <trkpt lat="42.38365" lon="2.74573">
        <ele>381.4</ele>
        <time>2022-05-21 16:37:56</time>
      </trkpt>
      <trkpt lat="42.38367" lon="2.74571">
        <ele>381.6</ele>
        <time>2022-05-21 16:37:57</time>
      </trkpt>
      <trkpt lat="42.38369" lon="2.74569">
        <ele>381.6</ele>
        <time>2022-05-21 16:37:58</time>
      </trkpt>
      <trkpt lat="42.3837" lon="2.74568">
        <ele>381.8</ele>
        <time>2022-05-21 16:37:59</time>
      </trkpt>
      <trkpt lat="42.38372" lon="2.74566">
        <ele>382</ele>
        <time>2022-05-21 16:38:00</time>
      </trkpt>
      <trkpt lat="42.38373" lon="2.74564">
        <ele>382.2</ele>
        <time>2022-05-21 16:38:01</time>
      </trkpt>
      <trkpt lat="42.38375" lon="2.74563">
        <ele>382.4</ele>
        <time>2022-05-21 16:38:02</time>
      </trkpt>
      <trkpt lat="42.38377" lon="2.74562">
        <ele>382.6</ele>
        <time>2022-05-21 16:38:03</time>
      </trkpt>
      <trkpt lat="42.38378" lon="2.7456">
        <ele>382.6</ele>
        <time>2022-05-21 16:38:04</time>
      </trkpt>
      <trkpt lat="42.3838" lon="2.74559">
        <ele>382.8</ele>
        <time>2022-05-21 16:38:05</time>
      </trkpt>
      <trkpt lat="42.38382" lon="2.74558">
        <ele>383</ele>
        <time>2022-05-21 16:38:06</time>
      </trkpt>
      <trkpt lat="42.38384" lon="2.74557">
        <ele>383.2</ele>
        <time>2022-05-21 16:38:07</time>
      </trkpt>
      <trkpt lat="42.38386" lon="2.74556">
        <ele>383.4</ele>
        <time>2022-05-21 16:38:08</time>
      </trkpt>
      <trkpt lat="42.38387" lon="2.74554">
        <ele>383.6</ele>
        <time>2022-05-21 16:38:09</time>
      </trkpt>
      <trkpt lat="42.38389" lon="2.74553">
        <ele>383.8</ele>
        <time>2022-05-21 16:38:10</time>
      </trkpt>
      <trkpt lat="42.38391" lon="2.74552">
        <ele>384</ele>
        <time>2022-05-21 16:38:11</time>
      </trkpt>
      <trkpt lat="42.38393" lon="2.74551">
        <ele>384.2</ele>
        <time>2022-05-21 16:38:12</time>
      </trkpt>
      <trkpt lat="42.38395" lon="2.7455">
        <ele>384.4</ele>
        <time>2022-05-21 16:38:13</time>
      </trkpt>
      <trkpt lat="42.38396" lon="2.74549">
        <ele>384.6</ele>
        <time>2022-05-21 16:38:14</time>
      </trkpt>
      <trkpt lat="42.38398" lon="2.74547">
        <ele>384.6</ele>
        <time>2022-05-21 16:38:15</time>
      </trkpt>
      <trkpt lat="42.384" lon="2.74546">
        <ele>384.8</ele>
        <time>2022-05-21 16:38:16</time>
      </trkpt>
      <trkpt lat="42.38402" lon="2.74544">
        <ele>385</ele>
        <time>2022-05-21 16:38:17</time>
      </trkpt>
      <trkpt lat="42.38404" lon="2.74543">
        <ele>385.2</ele>
        <time>2022-05-21 16:38:18</time>
      </trkpt>
      <trkpt lat="42.38406" lon="2.74542">
        <ele>385.4</ele>
        <time>2022-05-21 16:38:19</time>
      </trkpt>
      <trkpt lat="42.38408" lon="2.74541">
        <ele>385.4</ele>
        <time>2022-05-21 16:38:20</time>
      </trkpt>
      <trkpt lat="42.3841" lon="2.7454">
        <ele>385.6</ele>
        <time>2022-05-21 16:38:21</time>
      </trkpt>
      <trkpt lat="42.38411" lon="2.74539">
        <ele>385.8</ele>
        <time>2022-05-21 16:38:22</time>
      </trkpt>
      <trkpt lat="42.38413" lon="2.74538">
        <ele>386</ele>
        <time>2022-05-21 16:38:23</time>
      </trkpt>
      <trkpt lat="42.38415" lon="2.74536">
        <ele>386.2</ele>
        <time>2022-05-21 16:38:24</time>
      </trkpt>
      <trkpt lat="42.38417" lon="2.74535">
        <ele>386.4</ele>
        <time>2022-05-21 16:38:25</time>
      </trkpt>
      <trkpt lat="42.38419" lon="2.74534">
        <ele>386.6</ele>
        <time>2022-05-21 16:38:26</time>
      </trkpt>
      <trkpt lat="42.38421" lon="2.74533">
        <ele>386.6</ele>
        <time>2022-05-21 16:38:27</time>
      </trkpt>
      <trkpt lat="42.38423" lon="2.74532">
        <ele>386.8</ele>
        <time>2022-05-21 16:38:28</time>
      </trkpt>
      <trkpt lat="42.38425" lon="2.74531">
        <ele>387</ele>
        <time>2022-05-21 16:38:29</time>
      </trkpt>
      <trkpt lat="42.38426" lon="2.74529">
        <ele>387.2</ele>
        <time>2022-05-21 16:38:30</time>
      </trkpt>
      <trkpt lat="42.38428" lon="2.74528">
        <ele>387.4</ele>
        <time>2022-05-21 16:38:31</time>
      </trkpt>
      <trkpt lat="42.3843" lon="2.74527">
        <ele>387.6</ele>
        <time>2022-05-21 16:38:32</time>
      </trkpt>
      <trkpt lat="42.38431" lon="2.74526">
        <ele>387.8</ele>
        <time>2022-05-21 16:38:33</time>
      </trkpt>
      <trkpt lat="42.38433" lon="2.74525">
        <ele>387.8</ele>
        <time>2022-05-21 16:38:34</time>
      </trkpt>
      <trkpt lat="42.38434" lon="2.74523">
        <ele>388</ele>
        <time>2022-05-21 16:38:35</time>
      </trkpt>
      <trkpt lat="42.38436" lon="2.74522">
        <ele>388.2</ele>
        <time>2022-05-21 16:38:36</time>
      </trkpt>
      <trkpt lat="42.38438" lon="2.74521">
        <ele>388.4</ele>
        <time>2022-05-21 16:38:37</time>
      </trkpt>
      <trkpt lat="42.38439" lon="2.7452">
        <ele>388.6</ele>
        <time>2022-05-21 16:38:38</time>
      </trkpt>
      <trkpt lat="42.38441" lon="2.74519">
        <ele>388.8</ele>
        <time>2022-05-21 16:38:39</time>
      </trkpt>
      <trkpt lat="42.38443" lon="2.74518">
        <ele>388.8</ele>
        <time>2022-05-21 16:38:40</time>
      </trkpt>
      <trkpt lat="42.38445" lon="2.74517">
        <ele>389</ele>
        <time>2022-05-21 16:38:41</time>
      </trkpt>
      <trkpt lat="42.38446" lon="2.74515">
        <ele>389.2</ele>
        <time>2022-05-21 16:38:42</time>
      </trkpt>
      <trkpt lat="42.38448" lon="2.74514">
        <ele>389.4</ele>
        <time>2022-05-21 16:38:43</time>
      </trkpt>
      <trkpt lat="42.3845" lon="2.74513">
        <ele>389.6</ele>
        <time>2022-05-21 16:38:44</time>
      </trkpt>
      <trkpt lat="42.38451" lon="2.74512">
        <ele>389.8</ele>
        <time>2022-05-21 16:38:45</time>
      </trkpt>
      <trkpt lat="42.38453" lon="2.7451">
        <ele>389.8</ele>
        <time>2022-05-21 16:38:46</time>
      </trkpt>
      <trkpt lat="42.38455" lon="2.74509">
        <ele>390</ele>
        <time>2022-05-21 16:38:47</time>
      </trkpt>
      <trkpt lat="42.38456" lon="2.74509">
        <ele>390.2</ele>
        <time>2022-05-21 16:38:48</time>
      </trkpt>
      <trkpt lat="42.38458" lon="2.74508">
        <ele>390.4</ele>
        <time>2022-05-21 16:38:49</time>
      </trkpt>
      <trkpt lat="42.38461" lon="2.74507">
        <ele>390.6</ele>
        <time>2022-05-21 16:38:50</time>
      </trkpt>
      <trkpt lat="42.38462" lon="2.74506">
        <ele>390.8</ele>
        <time>2022-05-21 16:38:51</time>
      </trkpt>
      <trkpt lat="42.38464" lon="2.74504">
        <ele>391</ele>
        <time>2022-05-21 16:38:52</time>
      </trkpt>
      <trkpt lat="42.38466" lon="2.74503">
        <ele>391.2</ele>
        <time>2022-05-21 16:38:53</time>
      </trkpt>
      <trkpt lat="42.38468" lon="2.74501">
        <ele>391.2</ele>
        <time>2022-05-21 16:38:54</time>
      </trkpt>
      <trkpt lat="42.3847" lon="2.745">
        <ele>391.4</ele>
        <time>2022-05-21 16:38:55</time>
      </trkpt>
      <trkpt lat="42.38472" lon="2.74498">
        <ele>391.6</ele>
        <time>2022-05-21 16:38:56</time>
      </trkpt>
      <trkpt lat="42.38474" lon="2.74497">
        <ele>391.8</ele>
        <time>2022-05-21 16:38:57</time>
      </trkpt>
      <trkpt lat="42.38475" lon="2.74496">
        <ele>392</ele>
        <time>2022-05-21 16:38:58</time>
      </trkpt>
      <trkpt lat="42.38477" lon="2.74494">
        <ele>392.2</ele>
        <time>2022-05-21 16:38:59</time>
      </trkpt>
      <trkpt lat="42.38478" lon="2.74493">
        <ele>392.4</ele>
        <time>2022-05-21 16:39:00</time>
      </trkpt>
      <trkpt lat="42.3848" lon="2.74492">
        <ele>392.6</ele>
        <time>2022-05-21 16:39:01</time>
      </trkpt>
      <trkpt lat="42.38482" lon="2.7449">
        <ele>392.8</ele>
        <time>2022-05-21 16:39:02</time>
      </trkpt>
      <trkpt lat="42.38483" lon="2.74489">
        <ele>393</ele>
        <time>2022-05-21 16:39:03</time>
      </trkpt>
      <trkpt lat="42.38485" lon="2.74488">
        <ele>393</ele>
        <time>2022-05-21 16:39:04</time>
      </trkpt>
      <trkpt lat="42.38486" lon="2.74487">
        <ele>393.2</ele>
        <time>2022-05-21 16:39:05</time>
      </trkpt>
      <trkpt lat="42.38488" lon="2.74485">
        <ele>393.4</ele>
        <time>2022-05-21 16:39:06</time>
      </trkpt>
      <trkpt lat="42.3849" lon="2.74484">
        <ele>393.6</ele>
        <time>2022-05-21 16:39:07</time>
      </trkpt>
      <trkpt lat="42.38491" lon="2.74482">
        <ele>393.6</ele>
        <time>2022-05-21 16:39:08</time>
      </trkpt>
      <trkpt lat="42.38493" lon="2.74481">
        <ele>393.8</ele>
        <time>2022-05-21 16:39:09</time>
      </trkpt>
      <trkpt lat="42.38494" lon="2.74479">
        <ele>394</ele>
        <time>2022-05-21 16:39:10</time>
      </trkpt>
      <trkpt lat="42.38495" lon="2.74478">
        <ele>394.2</ele>
        <time>2022-05-21 16:39:11</time>
      </trkpt>
      <trkpt lat="42.38496" lon="2.74477">
        <ele>394.4</ele>
        <time>2022-05-21 16:39:12</time>
      </trkpt>
      <trkpt lat="42.38498" lon="2.74474">
        <ele>394.6</ele>
        <time>2022-05-21 16:39:13</time>
      </trkpt>
      <trkpt lat="42.385" lon="2.74473">
        <ele>394.8</ele>
        <time>2022-05-21 16:39:14</time>
      </trkpt>
      <trkpt lat="42.38501" lon="2.74471">
        <ele>394.8</ele>
        <time>2022-05-21 16:39:15</time>
      </trkpt>
      <trkpt lat="42.38502" lon="2.74469">
        <ele>395</ele>
        <time>2022-05-21 16:39:16</time>
      </trkpt>
      <trkpt lat="42.38504" lon="2.74468">
        <ele>395.2</ele>
        <time>2022-05-21 16:39:17</time>
      </trkpt>
      <trkpt lat="42.38505" lon="2.74466">
        <ele>395.4</ele>
        <time>2022-05-21 16:39:18</time>
      </trkpt>
      <trkpt lat="42.38507" lon="2.74464">
        <ele>395.6</ele>
        <time>2022-05-21 16:39:19</time>
      </trkpt>
      <trkpt lat="42.38508" lon="2.74462">
        <ele>395.6</ele>
        <time>2022-05-21 16:39:20</time>
      </trkpt>
      <trkpt lat="42.38509" lon="2.7446">
        <ele>395.8</ele>
        <time>2022-05-21 16:39:21</time>
      </trkpt>
      <trkpt lat="42.38511" lon="2.74459">
        <ele>396</ele>
        <time>2022-05-21 16:39:22</time>
      </trkpt>
      <trkpt lat="42.38512" lon="2.74457">
        <ele>396.2</ele>
        <time>2022-05-21 16:39:23</time>
      </trkpt>
      <trkpt lat="42.38513" lon="2.74455">
        <ele>396.4</ele>
        <time>2022-05-21 16:39:24</time>
      </trkpt>
      <trkpt lat="42.38515" lon="2.74453">
        <ele>396.6</ele>
        <time>2022-05-21 16:39:25</time>
      </trkpt>
      <trkpt lat="42.38516" lon="2.74451">
        <ele>396.6</ele>
        <time>2022-05-21 16:39:26</time>
      </trkpt>
      <trkpt lat="42.38517" lon="2.74449">
        <ele>396.8</ele>
        <time>2022-05-21 16:39:27</time>
      </trkpt>
      <trkpt lat="42.38518" lon="2.74447">
        <ele>397</ele>
        <time>2022-05-21 16:39:28</time>
      </trkpt>
      <trkpt lat="42.38519" lon="2.74445">
        <ele>397.2</ele>
        <time>2022-05-21 16:39:29</time>
      </trkpt>
      <trkpt lat="42.38521" lon="2.74443">
        <ele>397.4</ele>
        <time>2022-05-21 16:39:30</time>
      </trkpt>
      <trkpt lat="42.38522" lon="2.74442">
        <ele>397.4</ele>
        <time>2022-05-21 16:39:31</time>
      </trkpt>
      <trkpt lat="42.38523" lon="2.7444">
        <ele>397.6</ele>
        <time>2022-05-21 16:39:32</time>
      </trkpt>
      <trkpt lat="42.38524" lon="2.74438">
        <ele>397.8</ele>
        <time>2022-05-21 16:39:33</time>
      </trkpt>
      <trkpt lat="42.38525" lon="2.74436">
        <ele>398</ele>
        <time>2022-05-21 16:39:34</time>
      </trkpt>
      <trkpt lat="42.38526" lon="2.74435">
        <ele>398.2</ele>
        <time>2022-05-21 16:39:35</time>
      </trkpt>
      <trkpt lat="42.38527" lon="2.74433">
        <ele>398.4</ele>
        <time>2022-05-21 16:39:36</time>
      </trkpt>
      <trkpt lat="42.38528" lon="2.7443">
        <ele>398.6</ele>
        <time>2022-05-21 16:39:37</time>
      </trkpt>
      <trkpt lat="42.38529" lon="2.74428">
        <ele>398.8</ele>
        <time>2022-05-21 16:39:38</time>
      </trkpt>
      <trkpt lat="42.3853" lon="2.74426">
        <ele>399</ele>
        <time>2022-05-21 16:39:39</time>
      </trkpt>
      <trkpt lat="42.38532" lon="2.74424">
        <ele>399</ele>
        <time>2022-05-21 16:39:40</time>
      </trkpt>
      <trkpt lat="42.38533" lon="2.74422">
        <ele>399.2</ele>
        <time>2022-05-21 16:39:41</time>
      </trkpt>
      <trkpt lat="42.38534" lon="2.7442">
        <ele>399.4</ele>
        <time>2022-05-21 16:39:42</time>
      </trkpt>
      <trkpt lat="42.38535" lon="2.74418">
        <ele>399.6</ele>
        <time>2022-05-21 16:39:43</time>
      </trkpt>
      <trkpt lat="42.38536" lon="2.74416">
        <ele>399.8</ele>
        <time>2022-05-21 16:39:44</time>
      </trkpt>
      <trkpt lat="42.38537" lon="2.74413">
        <ele>400</ele>
        <time>2022-05-21 16:39:45</time>
      </trkpt>
      <trkpt lat="42.38538" lon="2.74411">
        <ele>400</ele>
        <time>2022-05-21 16:39:46</time>
      </trkpt>
      <trkpt lat="42.38539" lon="2.74409">
        <ele>400.2</ele>
        <time>2022-05-21 16:39:47</time>
      </trkpt>
      <trkpt lat="42.3854" lon="2.74406">
        <ele>400.4</ele>
        <time>2022-05-21 16:39:48</time>
      </trkpt>
      <trkpt lat="42.38542" lon="2.74404">
        <ele>400.6</ele>
        <time>2022-05-21 16:39:49</time>
      </trkpt>
      <trkpt lat="42.38542" lon="2.74401">
        <ele>400.8</ele>
        <time>2022-05-21 16:39:50</time>
      </trkpt>
      <trkpt lat="42.38543" lon="2.74399">
        <ele>401</ele>
        <time>2022-05-21 16:39:51</time>
      </trkpt>
      <trkpt lat="42.38544" lon="2.74396">
        <ele>401</ele>
        <time>2022-05-21 16:39:52</time>
      </trkpt>
      <trkpt lat="42.38545" lon="2.74394">
        <ele>401.2</ele>
        <time>2022-05-21 16:39:53</time>
      </trkpt>
      <trkpt lat="42.38546" lon="2.74391">
        <ele>401.4</ele>
        <time>2022-05-21 16:39:54</time>
      </trkpt>
      <trkpt lat="42.38547" lon="2.74389">
        <ele>401.6</ele>
        <time>2022-05-21 16:39:55</time>
      </trkpt>
      <trkpt lat="42.38547" lon="2.74387">
        <ele>401.8</ele>
        <time>2022-05-21 16:39:56</time>
      </trkpt>
      <trkpt lat="42.38548" lon="2.74384">
        <ele>402</ele>
        <time>2022-05-21 16:39:57</time>
      </trkpt>
      <trkpt lat="42.38549" lon="2.74382">
        <ele>402</ele>
        <time>2022-05-21 16:39:58</time>
      </trkpt>
      <trkpt lat="42.3855" lon="2.7438">
        <ele>402.2</ele>
        <time>2022-05-21 16:39:59</time>
      </trkpt>
      <trkpt lat="42.3855" lon="2.74378">
        <ele>402.4</ele>
        <time>2022-05-21 16:40:00</time>
      </trkpt>
      <trkpt lat="42.38551" lon="2.74374">
        <ele>402.6</ele>
        <time>2022-05-21 16:40:01</time>
      </trkpt>
      <trkpt lat="42.38552" lon="2.74372">
        <ele>402.6</ele>
        <time>2022-05-21 16:40:02</time>
      </trkpt>
      <trkpt lat="42.38553" lon="2.7437">
        <ele>402.8</ele>
        <time>2022-05-21 16:40:03</time>
      </trkpt>
      <trkpt lat="42.38554" lon="2.74366">
        <ele>403</ele>
        <time>2022-05-21 16:40:04</time>
      </trkpt>
      <trkpt lat="42.38554" lon="2.74364">
        <ele>403.2</ele>
        <time>2022-05-21 16:40:05</time>
      </trkpt>
      <trkpt lat="42.38555" lon="2.74361">
        <ele>403.4</ele>
        <time>2022-05-21 16:40:06</time>
      </trkpt>
      <trkpt lat="42.38556" lon="2.74359">
        <ele>403.6</ele>
        <time>2022-05-21 16:40:07</time>
      </trkpt>
      <trkpt lat="42.38556" lon="2.74357">
        <ele>403.6</ele>
        <time>2022-05-21 16:40:08</time>
      </trkpt>
      <trkpt lat="42.38557" lon="2.74354">
        <ele>403.8</ele>
        <time>2022-05-21 16:40:09</time>
      </trkpt>
      <trkpt lat="42.38558" lon="2.74351">
        <ele>404</ele>
        <time>2022-05-21 16:40:10</time>
      </trkpt>
      <trkpt lat="42.38559" lon="2.74349">
        <ele>404.2</ele>
        <time>2022-05-21 16:40:11</time>
      </trkpt>
      <trkpt lat="42.3856" lon="2.74346">
        <ele>404.4</ele>
        <time>2022-05-21 16:40:12</time>
      </trkpt>
      <trkpt lat="42.3856" lon="2.74344">
        <ele>404.6</ele>
        <time>2022-05-21 16:40:13</time>
      </trkpt>
      <trkpt lat="42.38561" lon="2.74342">
        <ele>404.6</ele>
        <time>2022-05-21 16:40:14</time>
      </trkpt>
      <trkpt lat="42.38561" lon="2.74339">
        <ele>404.8</ele>
        <time>2022-05-21 16:40:15</time>
      </trkpt>
      <trkpt lat="42.38562" lon="2.74337">
        <ele>405</ele>
        <time>2022-05-21 16:40:16</time>
      </trkpt>
      <trkpt lat="42.38562" lon="2.74335">
        <ele>405.2</ele>
        <time>2022-05-21 16:40:17</time>
      </trkpt>
      <trkpt lat="42.38563" lon="2.74332">
        <ele>405.4</ele>
        <time>2022-05-21 16:40:18</time>
      </trkpt>
      <trkpt lat="42.38564" lon="2.7433">
        <ele>405.4</ele>
        <time>2022-05-21 16:40:19</time>
      </trkpt>
      <trkpt lat="42.38564" lon="2.74327">
        <ele>405.6</ele>
        <time>2022-05-21 16:40:20</time>
      </trkpt>
      <trkpt lat="42.38565" lon="2.74325">
        <ele>405.8</ele>
        <time>2022-05-21 16:40:21</time>
      </trkpt>
      <trkpt lat="42.38566" lon="2.74322">
        <ele>406</ele>
        <time>2022-05-21 16:40:22</time>
      </trkpt>
      <trkpt lat="42.38566" lon="2.7432">
        <ele>406.2</ele>
        <time>2022-05-21 16:40:23</time>
      </trkpt>
      <trkpt lat="42.38567" lon="2.74318">
        <ele>406.2</ele>
        <time>2022-05-21 16:40:24</time>
      </trkpt>
      <trkpt lat="42.38567" lon="2.74315">
        <ele>406.4</ele>
        <time>2022-05-21 16:40:25</time>
      </trkpt>
      <trkpt lat="42.38568" lon="2.74313">
        <ele>406.6</ele>
        <time>2022-05-21 16:40:26</time>
      </trkpt>
      <trkpt lat="42.38568" lon="2.7431">
        <ele>406.8</ele>
        <time>2022-05-21 16:40:27</time>
      </trkpt>
      <trkpt lat="42.38569" lon="2.74308">
        <ele>407</ele>
        <time>2022-05-21 16:40:28</time>
      </trkpt>
      <trkpt lat="42.3857" lon="2.74306">
        <ele>407.2</ele>
        <time>2022-05-21 16:40:29</time>
      </trkpt>
      <trkpt lat="42.3857" lon="2.74304">
        <ele>407.2</ele>
        <time>2022-05-21 16:40:30</time>
      </trkpt>
      <trkpt lat="42.38571" lon="2.743">
        <ele>407.4</ele>
        <time>2022-05-21 16:40:31</time>
      </trkpt>
      <trkpt lat="42.38572" lon="2.74298">
        <ele>407.6</ele>
        <time>2022-05-21 16:40:32</time>
      </trkpt>
      <trkpt lat="42.38573" lon="2.74295">
        <ele>407.8</ele>
        <time>2022-05-21 16:40:33</time>
      </trkpt>
      <trkpt lat="42.38573" lon="2.74293">
        <ele>408</ele>
        <time>2022-05-21 16:40:34</time>
      </trkpt>
      <trkpt lat="42.38574" lon="2.74291">
        <ele>408.2</ele>
        <time>2022-05-21 16:40:35</time>
      </trkpt>
      <trkpt lat="42.38575" lon="2.74288">
        <ele>408.4</ele>
        <time>2022-05-21 16:40:36</time>
      </trkpt>
      <trkpt lat="42.38575" lon="2.74286">
        <ele>408.4</ele>
        <time>2022-05-21 16:40:37</time>
      </trkpt>
      <trkpt lat="42.38576" lon="2.74283">
        <ele>408.6</ele>
        <time>2022-05-21 16:40:38</time>
      </trkpt>
      <trkpt lat="42.38576" lon="2.74281">
        <ele>408.8</ele>
        <time>2022-05-21 16:40:39</time>
      </trkpt>
      <trkpt lat="42.38577" lon="2.74278">
        <ele>409</ele>
        <time>2022-05-21 16:40:40</time>
      </trkpt>
      <trkpt lat="42.38577" lon="2.74276">
        <ele>409.2</ele>
        <time>2022-05-21 16:40:41</time>
      </trkpt>
      <trkpt lat="42.38578" lon="2.74273">
        <ele>409.4</ele>
        <time>2022-05-21 16:40:42</time>
      </trkpt>
      <trkpt lat="42.38579" lon="2.74271">
        <ele>409.4</ele>
        <time>2022-05-21 16:40:43</time>
      </trkpt>
      <trkpt lat="42.38579" lon="2.74268">
        <ele>409.6</ele>
        <time>2022-05-21 16:40:44</time>
      </trkpt>
      <trkpt lat="42.3858" lon="2.74266">
        <ele>409.8</ele>
        <time>2022-05-21 16:40:45</time>
      </trkpt>
      <trkpt lat="42.3858" lon="2.74264">
        <ele>410</ele>
        <time>2022-05-21 16:40:46</time>
      </trkpt>
      <trkpt lat="42.38581" lon="2.74262">
        <ele>410.2</ele>
        <time>2022-05-21 16:40:47</time>
      </trkpt>
      <trkpt lat="42.38581" lon="2.7426">
        <ele>410.4</ele>
        <time>2022-05-21 16:40:48</time>
      </trkpt>
      <trkpt lat="42.38582" lon="2.74257">
        <ele>410.4</ele>
        <time>2022-05-21 16:40:49</time>
      </trkpt>
      <trkpt lat="42.38583" lon="2.74254">
        <ele>410.6</ele>
        <time>2022-05-21 16:40:50</time>
      </trkpt>
      <trkpt lat="42.38582" lon="2.74251">
        <ele>410.8</ele>
        <time>2022-05-21 16:40:51</time>
      </trkpt>
      <trkpt lat="42.38582" lon="2.74248">
        <ele>411</ele>
        <time>2022-05-21 16:40:52</time>
      </trkpt>
      <trkpt lat="42.38582" lon="2.74246">
        <ele>411.2</ele>
        <time>2022-05-21 16:40:53</time>
      </trkpt>
      <trkpt lat="42.38583" lon="2.74243">
        <ele>411.2</ele>
        <time>2022-05-21 16:40:54</time>
      </trkpt>
      <trkpt lat="42.38583" lon="2.74241">
        <ele>411.4</ele>
        <time>2022-05-21 16:40:55</time>
      </trkpt>
      <trkpt lat="42.38584" lon="2.74239">
        <ele>411.6</ele>
        <time>2022-05-21 16:40:56</time>
      </trkpt>
      <trkpt lat="42.38585" lon="2.74237">
        <ele>411.8</ele>
        <time>2022-05-21 16:40:57</time>
      </trkpt>
      <trkpt lat="42.38586" lon="2.74234">
        <ele>412</ele>
        <time>2022-05-21 16:40:58</time>
      </trkpt>
      <trkpt lat="42.38587" lon="2.74232">
        <ele>412.2</ele>
        <time>2022-05-21 16:40:59</time>
      </trkpt>
      <trkpt lat="42.38589" lon="2.74229">
        <ele>412.4</ele>
        <time>2022-05-21 16:41:00</time>
      </trkpt>
      <trkpt lat="42.3859" lon="2.74226">
        <ele>412.4</ele>
        <time>2022-05-21 16:41:01</time>
      </trkpt>
      <trkpt lat="42.38591" lon="2.74224">
        <ele>412.6</ele>
        <time>2022-05-21 16:41:02</time>
      </trkpt>
      <trkpt lat="42.38591" lon="2.74221">
        <ele>412.8</ele>
        <time>2022-05-21 16:41:03</time>
      </trkpt>
      <trkpt lat="42.38592" lon="2.74219">
        <ele>413</ele>
        <time>2022-05-21 16:41:04</time>
      </trkpt>
      <trkpt lat="42.38592" lon="2.74216">
        <ele>413.2</ele>
        <time>2022-05-21 16:41:05</time>
      </trkpt>
      <trkpt lat="42.38593" lon="2.74214">
        <ele>413.4</ele>
        <time>2022-05-21 16:41:06</time>
      </trkpt>
      <trkpt lat="42.38594" lon="2.74211">
        <ele>413.6</ele>
        <time>2022-05-21 16:41:07</time>
      </trkpt>
      <trkpt lat="42.38594" lon="2.74209">
        <ele>413.6</ele>
        <time>2022-05-21 16:41:08</time>
      </trkpt>
      <trkpt lat="42.38595" lon="2.74206">
        <ele>413.8</ele>
        <time>2022-05-21 16:41:09</time>
      </trkpt>
      <trkpt lat="42.38596" lon="2.74204">
        <ele>414</ele>
        <time>2022-05-21 16:41:10</time>
      </trkpt>
      <trkpt lat="42.38597" lon="2.74202">
        <ele>414.2</ele>
        <time>2022-05-21 16:41:11</time>
      </trkpt>
      <trkpt lat="42.38597" lon="2.74199">
        <ele>414.4</ele>
        <time>2022-05-21 16:41:12</time>
      </trkpt>
      <trkpt lat="42.38598" lon="2.74197">
        <ele>414.6</ele>
        <time>2022-05-21 16:41:13</time>
      </trkpt>
      <trkpt lat="42.38599" lon="2.74194">
        <ele>414.8</ele>
        <time>2022-05-21 16:41:14</time>
      </trkpt>
      <trkpt lat="42.38599" lon="2.74192">
        <ele>414.8</ele>
        <time>2022-05-21 16:41:15</time>
      </trkpt>
      <trkpt lat="42.386" lon="2.74189">
        <ele>415</ele>
        <time>2022-05-21 16:41:16</time>
      </trkpt>
      <trkpt lat="42.386" lon="2.74187">
        <ele>415.2</ele>
        <time>2022-05-21 16:41:17</time>
      </trkpt>
      <trkpt lat="42.38601" lon="2.74184">
        <ele>415.4</ele>
        <time>2022-05-21 16:41:18</time>
      </trkpt>
      <trkpt lat="42.38601" lon="2.74182">
        <ele>415.6</ele>
        <time>2022-05-21 16:41:19</time>
      </trkpt>
      <trkpt lat="42.38602" lon="2.74179">
        <ele>415.6</ele>
        <time>2022-05-21 16:41:20</time>
      </trkpt>
      <trkpt lat="42.38603" lon="2.74177">
        <ele>415.8</ele>
        <time>2022-05-21 16:41:21</time>
      </trkpt>
      <trkpt lat="42.38603" lon="2.74175">
        <ele>416</ele>
        <time>2022-05-21 16:41:22</time>
      </trkpt>
      <trkpt lat="42.38604" lon="2.74173">
        <ele>416.2</ele>
        <time>2022-05-21 16:41:23</time>
      </trkpt>
      <trkpt lat="42.38604" lon="2.7417">
        <ele>416.4</ele>
        <time>2022-05-21 16:41:24</time>
      </trkpt>
      <trkpt lat="42.38605" lon="2.74167">
        <ele>416.4</ele>
        <time>2022-05-21 16:41:25</time>
      </trkpt>
      <trkpt lat="42.38605" lon="2.74165">
        <ele>416.6</ele>
        <time>2022-05-21 16:41:26</time>
      </trkpt>
      <trkpt lat="42.38605" lon="2.74163">
        <ele>416.8</ele>
        <time>2022-05-21 16:41:27</time>
      </trkpt>
      <trkpt lat="42.38606" lon="2.7416">
        <ele>417</ele>
        <time>2022-05-21 16:41:28</time>
      </trkpt>
      <trkpt lat="42.38606" lon="2.74158">
        <ele>417.2</ele>
        <time>2022-05-21 16:41:29</time>
      </trkpt>
      <trkpt lat="42.38606" lon="2.74156">
        <ele>417.2</ele>
        <time>2022-05-21 16:41:30</time>
      </trkpt>
      <trkpt lat="42.38607" lon="2.74153">
        <ele>417.4</ele>
        <time>2022-05-21 16:41:31</time>
      </trkpt>
      <trkpt lat="42.38607" lon="2.74151">
        <ele>417.6</ele>
        <time>2022-05-21 16:41:32</time>
      </trkpt>
      <trkpt lat="42.38608" lon="2.74148">
        <ele>417.8</ele>
        <time>2022-05-21 16:41:33</time>
      </trkpt>
      <trkpt lat="42.38609" lon="2.74146">
        <ele>417.8</ele>
        <time>2022-05-21 16:41:34</time>
      </trkpt>
      <trkpt lat="42.3861" lon="2.74144">
        <ele>418</ele>
        <time>2022-05-21 16:41:35</time>
      </trkpt>
      <trkpt lat="42.3861" lon="2.74142">
        <ele>418.2</ele>
        <time>2022-05-21 16:41:36</time>
      </trkpt>
      <trkpt lat="42.38611" lon="2.7414">
        <ele>418.4</ele>
        <time>2022-05-21 16:41:37</time>
      </trkpt>
      <trkpt lat="42.38611" lon="2.74137">
        <ele>418.6</ele>
        <time>2022-05-21 16:41:38</time>
      </trkpt>
      <trkpt lat="42.38612" lon="2.74135">
        <ele>418.6</ele>
        <time>2022-05-21 16:41:39</time>
      </trkpt>
      <trkpt lat="42.38612" lon="2.74133">
        <ele>418.8</ele>
        <time>2022-05-21 16:41:40</time>
      </trkpt>
      <trkpt lat="42.38613" lon="2.74131">
        <ele>419</ele>
        <time>2022-05-21 16:41:41</time>
      </trkpt>
      <trkpt lat="42.38613" lon="2.74128">
        <ele>419.2</ele>
        <time>2022-05-21 16:41:42</time>
      </trkpt>
      <trkpt lat="42.38614" lon="2.74126">
        <ele>419.4</ele>
        <time>2022-05-21 16:41:43</time>
      </trkpt>
      <trkpt lat="42.38614" lon="2.74123">
        <ele>419.6</ele>
        <time>2022-05-21 16:41:44</time>
      </trkpt>
      <trkpt lat="42.38615" lon="2.74121">
        <ele>419.6</ele>
        <time>2022-05-21 16:41:45</time>
      </trkpt>
      <trkpt lat="42.38616" lon="2.74118">
        <ele>419.8</ele>
        <time>2022-05-21 16:41:46</time>
      </trkpt>
      <trkpt lat="42.38616" lon="2.74116">
        <ele>420</ele>
        <time>2022-05-21 16:41:47</time>
      </trkpt>
      <trkpt lat="42.38617" lon="2.74114">
        <ele>420.2</ele>
        <time>2022-05-21 16:41:48</time>
      </trkpt>
      <trkpt lat="42.38617" lon="2.74112">
        <ele>420.4</ele>
        <time>2022-05-21 16:41:49</time>
      </trkpt>
      <trkpt lat="42.38618" lon="2.7411">
        <ele>420.4</ele>
        <time>2022-05-21 16:41:50</time>
      </trkpt>
      <trkpt lat="42.38618" lon="2.74107">
        <ele>420.6</ele>
        <time>2022-05-21 16:41:51</time>
      </trkpt>
      <trkpt lat="42.38619" lon="2.74105">
        <ele>420.8</ele>
        <time>2022-05-21 16:41:52</time>
      </trkpt>
      <trkpt lat="42.3862" lon="2.74103">
        <ele>421</ele>
        <time>2022-05-21 16:41:53</time>
      </trkpt>
      <trkpt lat="42.3862" lon="2.74101">
        <ele>421.2</ele>
        <time>2022-05-21 16:41:54</time>
      </trkpt>
      <trkpt lat="42.38621" lon="2.74098">
        <ele>421.2</ele>
        <time>2022-05-21 16:41:55</time>
      </trkpt>
      <trkpt lat="42.38621" lon="2.74096">
        <ele>421.4</ele>
        <time>2022-05-21 16:41:56</time>
      </trkpt>
      <trkpt lat="42.38622" lon="2.74093">
        <ele>421.6</ele>
        <time>2022-05-21 16:41:57</time>
      </trkpt>
      <trkpt lat="42.38622" lon="2.74091">
        <ele>421.8</ele>
        <time>2022-05-21 16:41:58</time>
      </trkpt>
      <trkpt lat="42.38623" lon="2.74088">
        <ele>422</ele>
        <time>2022-05-21 16:41:59</time>
      </trkpt>
      <trkpt lat="42.38623" lon="2.74086">
        <ele>422.2</ele>
        <time>2022-05-21 16:42:00</time>
      </trkpt>
      <trkpt lat="42.38624" lon="2.74083">
        <ele>422.4</ele>
        <time>2022-05-21 16:42:01</time>
      </trkpt>
      <trkpt lat="42.38624" lon="2.74081">
        <ele>422.4</ele>
        <time>2022-05-21 16:42:02</time>
      </trkpt>
      <trkpt lat="42.38624" lon="2.74079">
        <ele>422.6</ele>
        <time>2022-05-21 16:42:03</time>
      </trkpt>
      <trkpt lat="42.38624" lon="2.74076">
        <ele>422.8</ele>
        <time>2022-05-21 16:42:04</time>
      </trkpt>
      <trkpt lat="42.38624" lon="2.74074">
        <ele>423</ele>
        <time>2022-05-21 16:42:05</time>
      </trkpt>
      <trkpt lat="42.38624" lon="2.74071">
        <ele>423</ele>
        <time>2022-05-21 16:42:06</time>
      </trkpt>
      <trkpt lat="42.38624" lon="2.74069">
        <ele>423.2</ele>
        <time>2022-05-21 16:42:07</time>
      </trkpt>
      <trkpt lat="42.38625" lon="2.74066">
        <ele>423.4</ele>
        <time>2022-05-21 16:42:08</time>
      </trkpt>
      <trkpt lat="42.38625" lon="2.74064">
        <ele>423.6</ele>
        <time>2022-05-21 16:42:09</time>
      </trkpt>
      <trkpt lat="42.38625" lon="2.74061">
        <ele>423.8</ele>
        <time>2022-05-21 16:42:10</time>
      </trkpt>
      <trkpt lat="42.38625" lon="2.74058">
        <ele>424</ele>
        <time>2022-05-21 16:42:11</time>
      </trkpt>
      <trkpt lat="42.38625" lon="2.74056">
        <ele>424.2</ele>
        <time>2022-05-21 16:42:12</time>
      </trkpt>
      <trkpt lat="42.38625" lon="2.74053">
        <ele>424.2</ele>
        <time>2022-05-21 16:42:13</time>
      </trkpt>
      <trkpt lat="42.38625" lon="2.74051">
        <ele>424.4</ele>
        <time>2022-05-21 16:42:14</time>
      </trkpt>
      <trkpt lat="42.38625" lon="2.74049">
        <ele>424.6</ele>
        <time>2022-05-21 16:42:15</time>
      </trkpt>
      <trkpt lat="42.38625" lon="2.74046">
        <ele>424.8</ele>
        <time>2022-05-21 16:42:16</time>
      </trkpt>
      <trkpt lat="42.38625" lon="2.74043">
        <ele>425</ele>
        <time>2022-05-21 16:42:17</time>
      </trkpt>
      <trkpt lat="42.38626" lon="2.7404">
        <ele>425.2</ele>
        <time>2022-05-21 16:42:18</time>
      </trkpt>
      <trkpt lat="42.38626" lon="2.74038">
        <ele>425.2</ele>
        <time>2022-05-21 16:42:19</time>
      </trkpt>
      <trkpt lat="42.38626" lon="2.74036">
        <ele>425.4</ele>
        <time>2022-05-21 16:42:20</time>
      </trkpt>
      <trkpt lat="42.38626" lon="2.74033">
        <ele>425.6</ele>
        <time>2022-05-21 16:42:21</time>
      </trkpt>
      <trkpt lat="42.38626" lon="2.74031">
        <ele>425.8</ele>
        <time>2022-05-21 16:42:22</time>
      </trkpt>
      <trkpt lat="42.38626" lon="2.74028">
        <ele>426</ele>
        <time>2022-05-21 16:42:23</time>
      </trkpt>
      <trkpt lat="42.38626" lon="2.74025">
        <ele>426.2</ele>
        <time>2022-05-21 16:42:24</time>
      </trkpt>
      <trkpt lat="42.38626" lon="2.74023">
        <ele>426.2</ele>
        <time>2022-05-21 16:42:25</time>
      </trkpt>
      <trkpt lat="42.38625" lon="2.7402">
        <ele>426.4</ele>
        <time>2022-05-21 16:42:26</time>
      </trkpt>
      <trkpt lat="42.38625" lon="2.74017">
        <ele>426.6</ele>
        <time>2022-05-21 16:42:27</time>
      </trkpt>
      <trkpt lat="42.38625" lon="2.74015">
        <ele>426.6</ele>
        <time>2022-05-21 16:42:28</time>
      </trkpt>
      <trkpt lat="42.38625" lon="2.74012">
        <ele>426.8</ele>
        <time>2022-05-21 16:42:29</time>
      </trkpt>
      <trkpt lat="42.38624" lon="2.7401">
        <ele>427</ele>
        <time>2022-05-21 16:42:30</time>
      </trkpt>
      <trkpt lat="42.38624" lon="2.74007">
        <ele>427</ele>
        <time>2022-05-21 16:42:31</time>
      </trkpt>
      <trkpt lat="42.38624" lon="2.74005">
        <ele>427.2</ele>
        <time>2022-05-21 16:42:32</time>
      </trkpt>
      <trkpt lat="42.38624" lon="2.74003">
        <ele>427.4</ele>
        <time>2022-05-21 16:42:33</time>
      </trkpt>
      <trkpt lat="42.38623" lon="2.74">
        <ele>427.6</ele>
        <time>2022-05-21 16:42:34</time>
      </trkpt>
      <trkpt lat="42.38623" lon="2.73997">
        <ele>427.6</ele>
        <time>2022-05-21 16:42:35</time>
      </trkpt>
      <trkpt lat="42.38622" lon="2.73995">
        <ele>427.8</ele>
        <time>2022-05-21 16:42:36</time>
      </trkpt>
      <trkpt lat="42.38622" lon="2.73992">
        <ele>428</ele>
        <time>2022-05-21 16:42:37</time>
      </trkpt>
      <trkpt lat="42.38622" lon="2.7399">
        <ele>428.2</ele>
        <time>2022-05-21 16:42:38</time>
      </trkpt>
      <trkpt lat="42.38621" lon="2.73986">
        <ele>428.2</ele>
        <time>2022-05-21 16:42:39</time>
      </trkpt>
      <trkpt lat="42.38621" lon="2.73984">
        <ele>428.4</ele>
        <time>2022-05-21 16:42:40</time>
      </trkpt>
      <trkpt lat="42.3862" lon="2.73981">
        <ele>428.4</ele>
        <time>2022-05-21 16:42:41</time>
      </trkpt>
      <trkpt lat="42.38619" lon="2.73979">
        <ele>428.6</ele>
        <time>2022-05-21 16:42:42</time>
      </trkpt>
      <trkpt lat="42.38618" lon="2.73977">
        <ele>428.8</ele>
        <time>2022-05-21 16:42:43</time>
      </trkpt>
      <trkpt lat="42.38617" lon="2.73974">
        <ele>429</ele>
        <time>2022-05-21 16:42:44</time>
      </trkpt>
      <trkpt lat="42.38617" lon="2.73971">
        <ele>429</ele>
        <time>2022-05-21 16:42:45</time>
      </trkpt>
      <trkpt lat="42.38616" lon="2.73969">
        <ele>429.2</ele>
        <time>2022-05-21 16:42:46</time>
      </trkpt>
      <trkpt lat="42.38615" lon="2.73966">
        <ele>429.4</ele>
        <time>2022-05-21 16:42:47</time>
      </trkpt>
      <trkpt lat="42.38614" lon="2.73964">
        <ele>429.4</ele>
        <time>2022-05-21 16:42:48</time>
      </trkpt>
      <trkpt lat="42.38613" lon="2.73961">
        <ele>429.6</ele>
        <time>2022-05-21 16:42:49</time>
      </trkpt>
      <trkpt lat="42.38612" lon="2.73958">
        <ele>429.6</ele>
        <time>2022-05-21 16:42:50</time>
      </trkpt>
      <trkpt lat="42.38611" lon="2.73956">
        <ele>429.8</ele>
        <time>2022-05-21 16:42:51</time>
      </trkpt>
      <trkpt lat="42.38609" lon="2.73953">
        <ele>430</ele>
        <time>2022-05-21 16:42:52</time>
      </trkpt>
      <trkpt lat="42.38608" lon="2.73951">
        <ele>430</ele>
        <time>2022-05-21 16:42:53</time>
      </trkpt>
      <trkpt lat="42.38607" lon="2.73948">
        <ele>430.2</ele>
        <time>2022-05-21 16:42:54</time>
      </trkpt>
      <trkpt lat="42.38606" lon="2.73945">
        <ele>430.2</ele>
        <time>2022-05-21 16:42:55</time>
      </trkpt>
      <trkpt lat="42.38605" lon="2.73943">
        <ele>430.4</ele>
        <time>2022-05-21 16:42:56</time>
      </trkpt>
      <trkpt lat="42.38604" lon="2.73939">
        <ele>430.6</ele>
        <time>2022-05-21 16:42:57</time>
      </trkpt>
      <trkpt lat="42.38602" lon="2.73936">
        <ele>430.6</ele>
        <time>2022-05-21 16:42:58</time>
      </trkpt>
      <trkpt lat="42.386" lon="2.73933">
        <ele>430.8</ele>
        <time>2022-05-21 16:42:59</time>
      </trkpt>
      <trkpt lat="42.38599" lon="2.7393">
        <ele>430.8</ele>
        <time>2022-05-21 16:43:00</time>
      </trkpt>
      <trkpt lat="42.38598" lon="2.73927">
        <ele>431</ele>
        <time>2022-05-21 16:43:01</time>
      </trkpt>
      <trkpt lat="42.38596" lon="2.73924">
        <ele>431.2</ele>
        <time>2022-05-21 16:43:02</time>
      </trkpt>
      <trkpt lat="42.38594" lon="2.73922">
        <ele>431.2</ele>
        <time>2022-05-21 16:43:03</time>
      </trkpt>
      <trkpt lat="42.38593" lon="2.73919">
        <ele>431.4</ele>
        <time>2022-05-21 16:43:04</time>
      </trkpt>
      <trkpt lat="42.38591" lon="2.73916">
        <ele>431.4</ele>
        <time>2022-05-21 16:43:05</time>
      </trkpt>
      <trkpt lat="42.3859" lon="2.73913">
        <ele>431.6</ele>
        <time>2022-05-21 16:43:06</time>
      </trkpt>
      <trkpt lat="42.38588" lon="2.7391">
        <ele>431.6</ele>
        <time>2022-05-21 16:43:07</time>
      </trkpt>
      <trkpt lat="42.38587" lon="2.73907">
        <ele>431.8</ele>
        <time>2022-05-21 16:43:08</time>
      </trkpt>
      <trkpt lat="42.38585" lon="2.73904">
        <ele>432</ele>
        <time>2022-05-21 16:43:09</time>
      </trkpt>
      <trkpt lat="42.38583" lon="2.73901">
        <ele>432</ele>
        <time>2022-05-21 16:43:10</time>
      </trkpt>
      <trkpt lat="42.38582" lon="2.73898">
        <ele>432.2</ele>
        <time>2022-05-21 16:43:11</time>
      </trkpt>
      <trkpt lat="42.3858" lon="2.73896">
        <ele>432.2</ele>
        <time>2022-05-21 16:43:12</time>
      </trkpt>
      <trkpt lat="42.38578" lon="2.73893">
        <ele>432.4</ele>
        <time>2022-05-21 16:43:13</time>
      </trkpt>
      <trkpt lat="42.38577" lon="2.73891">
        <ele>432.4</ele>
        <time>2022-05-21 16:43:14</time>
      </trkpt>
      <trkpt lat="42.38575" lon="2.73888">
        <ele>432.6</ele>
        <time>2022-05-21 16:43:15</time>
      </trkpt>
      <trkpt lat="42.38573" lon="2.73885">
        <ele>432.6</ele>
        <time>2022-05-21 16:43:16</time>
      </trkpt>
      <trkpt lat="42.38571" lon="2.73883">
        <ele>432.8</ele>
        <time>2022-05-21 16:43:17</time>
      </trkpt>
      <trkpt lat="42.38569" lon="2.73879">
        <ele>432.8</ele>
        <time>2022-05-21 16:43:18</time>
      </trkpt>
      <trkpt lat="42.38567" lon="2.73876">
        <ele>432.8</ele>
        <time>2022-05-21 16:43:19</time>
      </trkpt>
      <trkpt lat="42.38566" lon="2.73873">
        <ele>433</ele>
        <time>2022-05-21 16:43:20</time>
      </trkpt>
      <trkpt lat="42.38564" lon="2.7387">
        <ele>433</ele>
        <time>2022-05-21 16:43:21</time>
      </trkpt>
      <trkpt lat="42.38562" lon="2.73867">
        <ele>433</ele>
        <time>2022-05-21 16:43:22</time>
      </trkpt>
      <trkpt lat="42.3856" lon="2.73863">
        <ele>433.2</ele>
        <time>2022-05-21 16:43:23</time>
      </trkpt>
      <trkpt lat="42.38559" lon="2.7386">
        <ele>433.2</ele>
        <time>2022-05-21 16:43:24</time>
      </trkpt>
      <trkpt lat="42.38557" lon="2.73857">
        <ele>433.2</ele>
        <time>2022-05-21 16:43:25</time>
      </trkpt>
      <trkpt lat="42.38556" lon="2.73853">
        <ele>433.2</ele>
        <time>2022-05-21 16:43:26</time>
      </trkpt>
      <trkpt lat="42.38554" lon="2.7385">
        <ele>433.2</ele>
        <time>2022-05-21 16:43:27</time>
      </trkpt>
      <trkpt lat="42.38553" lon="2.73847">
        <ele>433.4</ele>
        <time>2022-05-21 16:43:28</time>
      </trkpt>
      <trkpt lat="42.38551" lon="2.73843">
        <ele>433.4</ele>
        <time>2022-05-21 16:43:29</time>
      </trkpt>
      <trkpt lat="42.38549" lon="2.7384">
        <ele>433.4</ele>
        <time>2022-05-21 16:43:30</time>
      </trkpt>
      <trkpt lat="42.38547" lon="2.73836">
        <ele>433.4</ele>
        <time>2022-05-21 16:43:31</time>
      </trkpt>
      <trkpt lat="42.38545" lon="2.73832">
        <ele>433.6</ele>
        <time>2022-05-21 16:43:32</time>
      </trkpt>
      <trkpt lat="42.38544" lon="2.73829">
        <ele>433.6</ele>
        <time>2022-05-21 16:43:33</time>
      </trkpt>
      <trkpt lat="42.38542" lon="2.73825">
        <ele>433.6</ele>
        <time>2022-05-21 16:43:34</time>
      </trkpt>
      <trkpt lat="42.3854" lon="2.73821">
        <ele>433.6</ele>
        <time>2022-05-21 16:43:35</time>
      </trkpt>
      <trkpt lat="42.38538" lon="2.73817">
        <ele>433.6</ele>
        <time>2022-05-21 16:43:36</time>
      </trkpt>
      <trkpt lat="42.38536" lon="2.73813">
        <ele>433.6</ele>
        <time>2022-05-21 16:43:37</time>
      </trkpt>
      <trkpt lat="42.38535" lon="2.73809">
        <ele>433.6</ele>
        <time>2022-05-21 16:43:38</time>
      </trkpt>
      <trkpt lat="42.38533" lon="2.73805">
        <ele>433.6</ele>
        <time>2022-05-21 16:43:39</time>
      </trkpt>
      <trkpt lat="42.38531" lon="2.73801">
        <ele>433.6</ele>
        <time>2022-05-21 16:43:40</time>
      </trkpt>
      <trkpt lat="42.3853" lon="2.73797">
        <ele>433.6</ele>
        <time>2022-05-21 16:43:41</time>
      </trkpt>
      <trkpt lat="42.38528" lon="2.73792">
        <ele>433.8</ele>
        <time>2022-05-21 16:43:42</time>
      </trkpt>
      <trkpt lat="42.38526" lon="2.73787">
        <ele>433.8</ele>
        <time>2022-05-21 16:43:43</time>
      </trkpt>
      <trkpt lat="42.38525" lon="2.73783">
        <ele>433.6</ele>
        <time>2022-05-21 16:43:44</time>
      </trkpt>
      <trkpt lat="42.38523" lon="2.73778">
        <ele>433.6</ele>
        <time>2022-05-21 16:43:45</time>
      </trkpt>
      <trkpt lat="42.38522" lon="2.73772">
        <ele>433.6</ele>
        <time>2022-05-21 16:43:46</time>
      </trkpt>
      <trkpt lat="42.38521" lon="2.73766">
        <ele>433.6</ele>
        <time>2022-05-21 16:43:47</time>
      </trkpt>
      <trkpt lat="42.3852" lon="2.73761">
        <ele>433.6</ele>
        <time>2022-05-21 16:43:48</time>
      </trkpt>
      <trkpt lat="42.38518" lon="2.73755">
        <ele>433.4</ele>
        <time>2022-05-21 16:43:49</time>
      </trkpt>
      <trkpt lat="42.38517" lon="2.73749">
        <ele>433.4</ele>
        <time>2022-05-21 16:43:50</time>
      </trkpt>
      <trkpt lat="42.38516" lon="2.73743">
        <ele>433.4</ele>
        <time>2022-05-21 16:43:51</time>
      </trkpt>
      <trkpt lat="42.38515" lon="2.73736">
        <ele>433.2</ele>
        <time>2022-05-21 16:43:52</time>
      </trkpt>
      <trkpt lat="42.38513" lon="2.7373">
        <ele>433.2</ele>
        <time>2022-05-21 16:43:53</time>
      </trkpt>
      <trkpt lat="42.38512" lon="2.73723">
        <ele>433</ele>
        <time>2022-05-21 16:43:54</time>
      </trkpt>
      <trkpt lat="42.38511" lon="2.73715">
        <ele>433</ele>
        <time>2022-05-21 16:43:55</time>
      </trkpt>
      <trkpt lat="42.3851" lon="2.73709">
        <ele>432.8</ele>
        <time>2022-05-21 16:43:56</time>
      </trkpt>
      <trkpt lat="42.38509" lon="2.73702">
        <ele>432.6</ele>
        <time>2022-05-21 16:43:57</time>
      </trkpt>
      <trkpt lat="42.38508" lon="2.73693">
        <ele>432.4</ele>
        <time>2022-05-21 16:43:58</time>
      </trkpt>
      <trkpt lat="42.38506" lon="2.73684">
        <ele>432.2</ele>
        <time>2022-05-21 16:43:59</time>
      </trkpt>
      <trkpt lat="42.38505" lon="2.73676">
        <ele>432</ele>
        <time>2022-05-21 16:44:00</time>
      </trkpt>
      <trkpt lat="42.38504" lon="2.73668">
        <ele>431.8</ele>
        <time>2022-05-21 16:44:01</time>
      </trkpt>
      <trkpt lat="42.38502" lon="2.73659">
        <ele>431.6</ele>
        <time>2022-05-21 16:44:02</time>
      </trkpt>
      <trkpt lat="42.38501" lon="2.73649">
        <ele>431.4</ele>
        <time>2022-05-21 16:44:03</time>
      </trkpt>
      <trkpt lat="42.385" lon="2.7364">
        <ele>431</ele>
        <time>2022-05-21 16:44:04</time>
      </trkpt>
      <trkpt lat="42.38499" lon="2.7363">
        <ele>430.6</ele>
        <time>2022-05-21 16:44:05</time>
      </trkpt>
      <trkpt lat="42.38498" lon="2.7362">
        <ele>430.2</ele>
        <time>2022-05-21 16:44:06</time>
      </trkpt>
      <trkpt lat="42.38497" lon="2.73609">
        <ele>429.8</ele>
        <time>2022-05-21 16:44:07</time>
      </trkpt>
      <trkpt lat="42.38496" lon="2.73598">
        <ele>429.4</ele>
        <time>2022-05-21 16:44:08</time>
      </trkpt>
      <trkpt lat="42.38494" lon="2.73587">
        <ele>429</ele>
        <time>2022-05-21 16:44:09</time>
      </trkpt>
      <trkpt lat="42.38493" lon="2.73575">
        <ele>428.6</ele>
        <time>2022-05-21 16:44:10</time>
      </trkpt>
      <trkpt lat="42.38491" lon="2.73563">
        <ele>428.2</ele>
        <time>2022-05-21 16:44:11</time>
      </trkpt>
      <trkpt lat="42.3849" lon="2.73551">
        <ele>427.8</ele>
        <time>2022-05-21 16:44:12</time>
      </trkpt>
      <trkpt lat="42.38489" lon="2.73539">
        <ele>427.4</ele>
        <time>2022-05-21 16:44:13</time>
      </trkpt>
      <trkpt lat="42.38487" lon="2.73526">
        <ele>426.8</ele>
        <time>2022-05-21 16:44:14</time>
      </trkpt>
      <trkpt lat="42.38485" lon="2.73514">
        <ele>426.4</ele>
        <time>2022-05-21 16:44:15</time>
      </trkpt>
      <trkpt lat="42.38484" lon="2.73501">
        <ele>426</ele>
        <time>2022-05-21 16:44:16</time>
      </trkpt>
      <trkpt lat="42.38483" lon="2.73488">
        <ele>425.4</ele>
        <time>2022-05-21 16:44:17</time>
      </trkpt>
      <trkpt lat="42.38483" lon="2.73475">
        <ele>425</ele>
        <time>2022-05-21 16:44:18</time>
      </trkpt>
      <trkpt lat="42.38484" lon="2.73461">
        <ele>424.4</ele>
        <time>2022-05-21 16:44:19</time>
      </trkpt>
      <trkpt lat="42.38485" lon="2.73447">
        <ele>424</ele>
        <time>2022-05-21 16:44:20</time>
      </trkpt>
      <trkpt lat="42.38487" lon="2.73433">
        <ele>423.4</ele>
        <time>2022-05-21 16:44:21</time>
      </trkpt>
      <trkpt lat="42.3849" lon="2.7342">
        <ele>423</ele>
        <time>2022-05-21 16:44:22</time>
      </trkpt>
      <trkpt lat="42.38494" lon="2.73407">
        <ele>422.6</ele>
        <time>2022-05-21 16:44:23</time>
      </trkpt>
      <trkpt lat="42.38498" lon="2.73394">
        <ele>422.2</ele>
        <time>2022-05-21 16:44:24</time>
      </trkpt>
      <trkpt lat="42.38503" lon="2.73382">
        <ele>422</ele>
        <time>2022-05-21 16:44:25</time>
      </trkpt>
      <trkpt lat="42.38508" lon="2.73369">
        <ele>421.6</ele>
        <time>2022-05-21 16:44:26</time>
      </trkpt>
      <trkpt lat="42.38514" lon="2.73357">
        <ele>421.6</ele>
        <time>2022-05-21 16:44:27</time>
      </trkpt>
      <trkpt lat="42.38518" lon="2.73346">
        <ele>421.4</ele>
        <time>2022-05-21 16:44:28</time>
      </trkpt>
      <trkpt lat="42.38523" lon="2.73335">
        <ele>421.4</ele>
        <time>2022-05-21 16:44:29</time>
      </trkpt>
      <trkpt lat="42.38528" lon="2.73324">
        <ele>421.4</ele>
        <time>2022-05-21 16:44:30</time>
      </trkpt>
      <trkpt lat="42.38532" lon="2.73314">
        <ele>421.6</ele>
        <time>2022-05-21 16:44:31</time>
      </trkpt>
      <trkpt lat="42.38535" lon="2.73303">
        <ele>421.8</ele>
        <time>2022-05-21 16:44:32</time>
      </trkpt>
      <trkpt lat="42.38537" lon="2.73293">
        <ele>421.8</ele>
        <time>2022-05-21 16:44:33</time>
      </trkpt>
      <trkpt lat="42.38539" lon="2.73283">
        <ele>422</ele>
        <time>2022-05-21 16:44:34</time>
      </trkpt>
      <trkpt lat="42.3854" lon="2.73273">
        <ele>422.2</ele>
        <time>2022-05-21 16:44:35</time>
      </trkpt>
      <trkpt lat="42.38541" lon="2.73264">
        <ele>422.6</ele>
        <time>2022-05-21 16:44:36</time>
      </trkpt>
      <trkpt lat="42.3854" lon="2.73256">
        <ele>422.8</ele>
        <time>2022-05-21 16:44:37</time>
      </trkpt>
      <trkpt lat="42.3854" lon="2.73248">
        <ele>423.2</ele>
        <time>2022-05-21 16:44:38</time>
      </trkpt>
      <trkpt lat="42.38539" lon="2.73241">
        <ele>423.4</ele>
        <time>2022-05-21 16:44:39</time>
      </trkpt>
      <trkpt lat="42.38537" lon="2.73234">
        <ele>423.8</ele>
        <time>2022-05-21 16:44:40</time>
      </trkpt>
      <trkpt lat="42.38536" lon="2.73229">
        <ele>424</ele>
        <time>2022-05-21 16:44:41</time>
      </trkpt>
      <trkpt lat="42.38535" lon="2.73223">
        <ele>424.4</ele>
        <time>2022-05-21 16:44:42</time>
      </trkpt>
      <trkpt lat="42.38533" lon="2.73217">
        <ele>424.8</ele>
        <time>2022-05-21 16:44:43</time>
      </trkpt>
      <trkpt lat="42.38531" lon="2.73213">
        <ele>425</ele>
        <time>2022-05-21 16:44:44</time>
      </trkpt>
      <trkpt lat="42.3853" lon="2.73208">
        <ele>425.4</ele>
        <time>2022-05-21 16:44:45</time>
      </trkpt>
      <trkpt lat="42.38528" lon="2.73204">
        <ele>425.6</ele>
        <time>2022-05-21 16:44:46</time>
      </trkpt>
      <trkpt lat="42.38526" lon="2.73201">
        <ele>425.8</ele>
        <time>2022-05-21 16:44:47</time>
      </trkpt>
      <trkpt lat="42.38524" lon="2.73198">
        <ele>426.2</ele>
        <time>2022-05-21 16:44:48</time>
      </trkpt>
      <trkpt lat="42.38522" lon="2.73194">
        <ele>426.4</ele>
        <time>2022-05-21 16:44:49</time>
      </trkpt>
      <trkpt lat="42.3852" lon="2.73191">
        <ele>426.6</ele>
        <time>2022-05-21 16:44:50</time>
      </trkpt>
      <trkpt lat="42.38519" lon="2.73189">
        <ele>426.8</ele>
        <time>2022-05-21 16:44:51</time>
      </trkpt>
      <trkpt lat="42.38517" lon="2.73186">
        <ele>427</ele>
        <time>2022-05-21 16:44:52</time>
      </trkpt>
      <trkpt lat="42.38515" lon="2.73183">
        <ele>427.2</ele>
        <time>2022-05-21 16:44:53</time>
      </trkpt>
      <trkpt lat="42.38513" lon="2.7318">
        <ele>427.4</ele>
        <time>2022-05-21 16:44:54</time>
      </trkpt>
      <trkpt lat="42.38511" lon="2.73178">
        <ele>427.6</ele>
        <time>2022-05-21 16:44:55</time>
      </trkpt>
      <trkpt lat="42.3851" lon="2.73176">
        <ele>427.8</ele>
        <time>2022-05-21 16:44:56</time>
      </trkpt>
      <trkpt lat="42.38508" lon="2.73174">
        <ele>428</ele>
        <time>2022-05-21 16:44:57</time>
      </trkpt>
      <trkpt lat="42.38505" lon="2.73172">
        <ele>428.2</ele>
        <time>2022-05-21 16:44:58</time>
      </trkpt>
      <trkpt lat="42.38503" lon="2.7317">
        <ele>428.4</ele>
        <time>2022-05-21 16:44:59</time>
      </trkpt>
      <trkpt lat="42.38501" lon="2.73168">
        <ele>428.6</ele>
        <time>2022-05-21 16:45:00</time>
      </trkpt>
      <trkpt lat="42.38499" lon="2.73166">
        <ele>428.8</ele>
        <time>2022-05-21 16:45:01</time>
      </trkpt>
      <trkpt lat="42.38497" lon="2.73164">
        <ele>428.8</ele>
        <time>2022-05-21 16:45:02</time>
      </trkpt>
      <trkpt lat="42.38495" lon="2.73163">
        <ele>429</ele>
        <time>2022-05-21 16:45:03</time>
      </trkpt>
      <trkpt lat="42.38492" lon="2.73161">
        <ele>429.2</ele>
        <time>2022-05-21 16:45:04</time>
      </trkpt>
      <trkpt lat="42.3849" lon="2.7316">
        <ele>429.4</ele>
        <time>2022-05-21 16:45:05</time>
      </trkpt>
      <trkpt lat="42.38487" lon="2.73159">
        <ele>429.6</ele>
        <time>2022-05-21 16:45:06</time>
      </trkpt>
      <trkpt lat="42.38485" lon="2.73158">
        <ele>429.8</ele>
        <time>2022-05-21 16:45:07</time>
      </trkpt>
      <trkpt lat="42.38483" lon="2.73156">
        <ele>430</ele>
        <time>2022-05-21 16:45:08</time>
      </trkpt>
      <trkpt lat="42.3848" lon="2.73155">
        <ele>430.2</ele>
        <time>2022-05-21 16:45:09</time>
      </trkpt>
      <trkpt lat="42.38478" lon="2.73155">
        <ele>430.2</ele>
        <time>2022-05-21 16:45:10</time>
      </trkpt>
      <trkpt lat="42.38475" lon="2.73154">
        <ele>430.4</ele>
        <time>2022-05-21 16:45:11</time>
      </trkpt>
      <trkpt lat="42.38473" lon="2.73153">
        <ele>430.6</ele>
        <time>2022-05-21 16:45:12</time>
      </trkpt>
      <trkpt lat="42.3847" lon="2.73152">
        <ele>430.8</ele>
        <time>2022-05-21 16:45:13</time>
      </trkpt>
      <trkpt lat="42.38468" lon="2.73152">
        <ele>430.8</ele>
        <time>2022-05-21 16:45:14</time>
      </trkpt>
      <trkpt lat="42.38465" lon="2.73151">
        <ele>431</ele>
        <time>2022-05-21 16:45:15</time>
      </trkpt>
      <trkpt lat="42.38463" lon="2.73151">
        <ele>431.2</ele>
        <time>2022-05-21 16:45:16</time>
      </trkpt>
      <trkpt lat="42.38461" lon="2.73151">
        <ele>431.2</ele>
        <time>2022-05-21 16:45:17</time>
      </trkpt>
      <trkpt lat="42.38458" lon="2.73151">
        <ele>431.4</ele>
        <time>2022-05-21 16:45:18</time>
      </trkpt>
      <trkpt lat="42.38456" lon="2.73151">
        <ele>431.6</ele>
        <time>2022-05-21 16:45:19</time>
      </trkpt>
      <trkpt lat="42.38453" lon="2.73151">
        <ele>431.6</ele>
        <time>2022-05-21 16:45:20</time>
      </trkpt>
      <trkpt lat="42.38451" lon="2.73151">
        <ele>431.8</ele>
        <time>2022-05-21 16:45:21</time>
      </trkpt>
      <trkpt lat="42.38449" lon="2.73151">
        <ele>432</ele>
        <time>2022-05-21 16:45:22</time>
      </trkpt>
      <trkpt lat="42.38447" lon="2.73152">
        <ele>432.2</ele>
        <time>2022-05-21 16:45:23</time>
      </trkpt>
      <trkpt lat="42.38444" lon="2.73152">
        <ele>432.2</ele>
        <time>2022-05-21 16:45:24</time>
      </trkpt>
      <trkpt lat="42.38442" lon="2.73153">
        <ele>432.4</ele>
        <time>2022-05-21 16:45:25</time>
      </trkpt>
      <trkpt lat="42.38439" lon="2.73154">
        <ele>432.4</ele>
        <time>2022-05-21 16:45:26</time>
      </trkpt>
      <trkpt lat="42.38437" lon="2.73154">
        <ele>432.6</ele>
        <time>2022-05-21 16:45:27</time>
      </trkpt>
      <trkpt lat="42.38435" lon="2.73155">
        <ele>432.8</ele>
        <time>2022-05-21 16:45:28</time>
      </trkpt>
      <trkpt lat="42.38432" lon="2.73156">
        <ele>433</ele>
        <time>2022-05-21 16:45:29</time>
      </trkpt>
      <trkpt lat="42.38429" lon="2.73157">
        <ele>433</ele>
        <time>2022-05-21 16:45:30</time>
      </trkpt>
      <trkpt lat="42.38427" lon="2.73159">
        <ele>433.2</ele>
        <time>2022-05-21 16:45:31</time>
      </trkpt>
      <trkpt lat="42.38425" lon="2.7316">
        <ele>433.4</ele>
        <time>2022-05-21 16:45:32</time>
      </trkpt>
      <trkpt lat="42.38422" lon="2.73162">
        <ele>433.6</ele>
        <time>2022-05-21 16:45:33</time>
      </trkpt>
      <trkpt lat="42.3842" lon="2.73163">
        <ele>433.8</ele>
        <time>2022-05-21 16:45:34</time>
      </trkpt>
      <trkpt lat="42.38418" lon="2.73164">
        <ele>434</ele>
        <time>2022-05-21 16:45:35</time>
      </trkpt>
      <trkpt lat="42.38416" lon="2.73166">
        <ele>434.2</ele>
        <time>2022-05-21 16:45:36</time>
      </trkpt>
      <trkpt lat="42.38414" lon="2.73167">
        <ele>434.2</ele>
        <time>2022-05-21 16:45:37</time>
      </trkpt>
      <trkpt lat="42.38412" lon="2.73169">
        <ele>434.4</ele>
        <time>2022-05-21 16:45:38</time>
      </trkpt>
      <trkpt lat="42.3841" lon="2.73171">
        <ele>434.6</ele>
        <time>2022-05-21 16:45:39</time>
      </trkpt>
      <trkpt lat="42.38408" lon="2.73172">
        <ele>434.8</ele>
        <time>2022-05-21 16:45:40</time>
      </trkpt>
      <trkpt lat="42.38406" lon="2.73174">
        <ele>434.8</ele>
        <time>2022-05-21 16:45:41</time>
      </trkpt>
      <trkpt lat="42.38404" lon="2.73176">
        <ele>435</ele>
        <time>2022-05-21 16:45:42</time>
      </trkpt>
      <trkpt lat="42.38403" lon="2.73179">
        <ele>435.2</ele>
        <time>2022-05-21 16:45:43</time>
      </trkpt>
      <trkpt lat="42.38401" lon="2.7318">
        <ele>435.4</ele>
        <time>2022-05-21 16:45:44</time>
      </trkpt>
      <trkpt lat="42.38399" lon="2.73182">
        <ele>435.4</ele>
        <time>2022-05-21 16:45:45</time>
      </trkpt>
      <trkpt lat="42.38398" lon="2.73184">
        <ele>435.6</ele>
        <time>2022-05-21 16:45:46</time>
      </trkpt>
      <trkpt lat="42.38396" lon="2.73186">
        <ele>435.8</ele>
        <time>2022-05-21 16:45:47</time>
      </trkpt>
      <trkpt lat="42.38394" lon="2.73188">
        <ele>435.8</ele>
        <time>2022-05-21 16:45:48</time>
      </trkpt>
      <trkpt lat="42.38392" lon="2.7319">
        <ele>436</ele>
        <time>2022-05-21 16:45:49</time>
      </trkpt>
      <trkpt lat="42.3839" lon="2.73192">
        <ele>436.2</ele>
        <time>2022-05-21 16:45:50</time>
      </trkpt>
      <trkpt lat="42.38389" lon="2.73194">
        <ele>436.2</ele>
        <time>2022-05-21 16:45:51</time>
      </trkpt>
      <trkpt lat="42.38387" lon="2.73196">
        <ele>436.4</ele>
        <time>2022-05-21 16:45:52</time>
      </trkpt>
      <trkpt lat="42.38385" lon="2.73198">
        <ele>436.6</ele>
        <time>2022-05-21 16:45:53</time>
      </trkpt>
      <trkpt lat="42.38384" lon="2.732">
        <ele>436.6</ele>
        <time>2022-05-21 16:45:54</time>
      </trkpt>
      <trkpt lat="42.38383" lon="2.73203">
        <ele>436.8</ele>
        <time>2022-05-21 16:45:55</time>
      </trkpt>
      <trkpt lat="42.38381" lon="2.73205">
        <ele>437</ele>
        <time>2022-05-21 16:45:56</time>
      </trkpt>
      <trkpt lat="42.3838" lon="2.73207">
        <ele>437</ele>
        <time>2022-05-21 16:45:57</time>
      </trkpt>
      <trkpt lat="42.38378" lon="2.7321">
        <ele>437.2</ele>
        <time>2022-05-21 16:45:58</time>
      </trkpt>
      <trkpt lat="42.38376" lon="2.73212">
        <ele>437.2</ele>
        <time>2022-05-21 16:45:59</time>
      </trkpt>
      <trkpt lat="42.38375" lon="2.73214">
        <ele>437.4</ele>
        <time>2022-05-21 16:46:00</time>
      </trkpt>
      <trkpt lat="42.38374" lon="2.73217">
        <ele>437.4</ele>
        <time>2022-05-21 16:46:01</time>
      </trkpt>
      <trkpt lat="42.38372" lon="2.73219">
        <ele>437.6</ele>
        <time>2022-05-21 16:46:02</time>
      </trkpt>
      <trkpt lat="42.38371" lon="2.73222">
        <ele>437.6</ele>
        <time>2022-05-21 16:46:03</time>
      </trkpt>
      <trkpt lat="42.38369" lon="2.73224">
        <ele>437.8</ele>
        <time>2022-05-21 16:46:04</time>
      </trkpt>
      <trkpt lat="42.38368" lon="2.73226">
        <ele>438</ele>
        <time>2022-05-21 16:46:05</time>
      </trkpt>
      <trkpt lat="42.38366" lon="2.73228">
        <ele>438</ele>
        <time>2022-05-21 16:46:06</time>
      </trkpt>
      <trkpt lat="42.38365" lon="2.7323">
        <ele>438.2</ele>
        <time>2022-05-21 16:46:07</time>
      </trkpt>
      <trkpt lat="42.38364" lon="2.73233">
        <ele>438.2</ele>
        <time>2022-05-21 16:46:08</time>
      </trkpt>
      <trkpt lat="42.38362" lon="2.73235">
        <ele>438.4</ele>
        <time>2022-05-21 16:46:09</time>
      </trkpt>
      <trkpt lat="42.38361" lon="2.73237">
        <ele>438.6</ele>
        <time>2022-05-21 16:46:10</time>
      </trkpt>
      <trkpt lat="42.3836" lon="2.73239">
        <ele>438.6</ele>
        <time>2022-05-21 16:46:11</time>
      </trkpt>
      <trkpt lat="42.38359" lon="2.73241">
        <ele>438.8</ele>
        <time>2022-05-21 16:46:12</time>
      </trkpt>
      <trkpt lat="42.38357" lon="2.73243">
        <ele>439</ele>
        <time>2022-05-21 16:46:13</time>
      </trkpt>
      <trkpt lat="42.38355" lon="2.73245">
        <ele>439</ele>
        <time>2022-05-21 16:46:14</time>
      </trkpt>
      <trkpt lat="42.38354" lon="2.73248">
        <ele>439.2</ele>
        <time>2022-05-21 16:46:15</time>
      </trkpt>
      <trkpt lat="42.38352" lon="2.7325">
        <ele>439.4</ele>
        <time>2022-05-21 16:46:16</time>
      </trkpt>
      <trkpt lat="42.38351" lon="2.73252">
        <ele>439.4</ele>
        <time>2022-05-21 16:46:17</time>
      </trkpt>
      <trkpt lat="42.3835" lon="2.73254">
        <ele>439.6</ele>
        <time>2022-05-21 16:46:18</time>
      </trkpt>
      <trkpt lat="42.38348" lon="2.73256">
        <ele>439.6</ele>
        <time>2022-05-21 16:46:19</time>
      </trkpt>
      <trkpt lat="42.38347" lon="2.73258">
        <ele>439.8</ele>
        <time>2022-05-21 16:46:20</time>
      </trkpt>
      <trkpt lat="42.38345" lon="2.7326">
        <ele>440</ele>
        <time>2022-05-21 16:46:21</time>
      </trkpt>
      <trkpt lat="42.38344" lon="2.73262">
        <ele>440</ele>
        <time>2022-05-21 16:46:22</time>
      </trkpt>
      <trkpt lat="42.38342" lon="2.73264">
        <ele>440.2</ele>
        <time>2022-05-21 16:46:23</time>
      </trkpt>
      <trkpt lat="42.38341" lon="2.73266">
        <ele>440.4</ele>
        <time>2022-05-21 16:46:24</time>
      </trkpt>
      <trkpt lat="42.38339" lon="2.73268">
        <ele>440.4</ele>
        <time>2022-05-21 16:46:25</time>
      </trkpt>
      <trkpt lat="42.38337" lon="2.73271">
        <ele>440.6</ele>
        <time>2022-05-21 16:46:26</time>
      </trkpt>
      <trkpt lat="42.38335" lon="2.73272">
        <ele>440.8</ele>
        <time>2022-05-21 16:46:27</time>
      </trkpt>
      <trkpt lat="42.38333" lon="2.73274">
        <ele>440.8</ele>
        <time>2022-05-21 16:46:28</time>
      </trkpt>
      <trkpt lat="42.38332" lon="2.73276">
        <ele>441</ele>
        <time>2022-05-21 16:46:29</time>
      </trkpt>
      <trkpt lat="42.3833" lon="2.73278">
        <ele>441.2</ele>
        <time>2022-05-21 16:46:30</time>
      </trkpt>
      <trkpt lat="42.38329" lon="2.73279">
        <ele>441.2</ele>
        <time>2022-05-21 16:46:31</time>
      </trkpt>
      <trkpt lat="42.38327" lon="2.73281">
        <ele>441.4</ele>
        <time>2022-05-21 16:46:32</time>
      </trkpt>
      <trkpt lat="42.38325" lon="2.73283">
        <ele>441.4</ele>
        <time>2022-05-21 16:46:33</time>
      </trkpt>
      <trkpt lat="42.38324" lon="2.73284">
        <ele>441.6</ele>
        <time>2022-05-21 16:46:34</time>
      </trkpt>
      <trkpt lat="42.38322" lon="2.73286">
        <ele>441.6</ele>
        <time>2022-05-21 16:46:35</time>
      </trkpt>
      <trkpt lat="42.3832" lon="2.73287">
        <ele>441.8</ele>
        <time>2022-05-21 16:46:36</time>
      </trkpt>
      <trkpt lat="42.38319" lon="2.73288">
        <ele>442</ele>
        <time>2022-05-21 16:46:37</time>
      </trkpt>
      <trkpt lat="42.38317" lon="2.7329">
        <ele>442</ele>
        <time>2022-05-21 16:46:38</time>
      </trkpt>
      <trkpt lat="42.38315" lon="2.73291">
        <ele>442.2</ele>
        <time>2022-05-21 16:46:39</time>
      </trkpt>
      <trkpt lat="42.38313" lon="2.73292">
        <ele>442.4</ele>
        <time>2022-05-21 16:46:40</time>
      </trkpt>
      <trkpt lat="42.38312" lon="2.73293">
        <ele>442.4</ele>
        <time>2022-05-21 16:46:41</time>
      </trkpt>
      <trkpt lat="42.3831" lon="2.73294">
        <ele>442.6</ele>
        <time>2022-05-21 16:46:42</time>
      </trkpt>
      <trkpt lat="42.38308" lon="2.73295">
        <ele>442.6</ele>
        <time>2022-05-21 16:46:43</time>
      </trkpt>
      <trkpt lat="42.38306" lon="2.73296">
        <ele>442.8</ele>
        <time>2022-05-21 16:46:44</time>
      </trkpt>
      <trkpt lat="42.38304" lon="2.73297">
        <ele>443</ele>
        <time>2022-05-21 16:46:45</time>
      </trkpt>
      <trkpt lat="42.38302" lon="2.73298">
        <ele>443</ele>
        <time>2022-05-21 16:46:46</time>
      </trkpt>
      <trkpt lat="42.383" lon="2.73299">
        <ele>443.2</ele>
        <time>2022-05-21 16:46:47</time>
      </trkpt>
      <trkpt lat="42.38298" lon="2.733">
        <ele>443.4</ele>
        <time>2022-05-21 16:46:48</time>
      </trkpt>
      <trkpt lat="42.38296" lon="2.73301">
        <ele>443.4</ele>
        <time>2022-05-21 16:46:49</time>
      </trkpt>
      <trkpt lat="42.38294" lon="2.73302">
        <ele>443.6</ele>
        <time>2022-05-21 16:46:50</time>
      </trkpt>
      <trkpt lat="42.38291" lon="2.73303">
        <ele>443.8</ele>
        <time>2022-05-21 16:46:51</time>
      </trkpt>
      <trkpt lat="42.3829" lon="2.73304">
        <ele>444</ele>
        <time>2022-05-21 16:46:52</time>
      </trkpt>
      <trkpt lat="42.38288" lon="2.73305">
        <ele>444</ele>
        <time>2022-05-21 16:46:53</time>
      </trkpt>
      <trkpt lat="42.38286" lon="2.73306">
        <ele>444.2</ele>
        <time>2022-05-21 16:46:54</time>
      </trkpt>
      <trkpt lat="42.38284" lon="2.73306">
        <ele>444.4</ele>
        <time>2022-05-21 16:46:55</time>
      </trkpt>
      <trkpt lat="42.38282" lon="2.73307">
        <ele>444.6</ele>
        <time>2022-05-21 16:46:56</time>
      </trkpt>
      <trkpt lat="42.3828" lon="2.73307">
        <ele>444.6</ele>
        <time>2022-05-21 16:46:57</time>
      </trkpt>
      <trkpt lat="42.38278" lon="2.73308">
        <ele>444.8</ele>
        <time>2022-05-21 16:46:58</time>
      </trkpt>
      <trkpt lat="42.38276" lon="2.73308">
        <ele>445</ele>
        <time>2022-05-21 16:46:59</time>
      </trkpt>
      <trkpt lat="42.38273" lon="2.73308">
        <ele>445.2</ele>
        <time>2022-05-21 16:47:00</time>
      </trkpt>
      <trkpt lat="42.38271" lon="2.73308">
        <ele>445.2</ele>
        <time>2022-05-21 16:47:01</time>
      </trkpt>
      <trkpt lat="42.38269" lon="2.73309">
        <ele>445.4</ele>
        <time>2022-05-21 16:47:02</time>
      </trkpt>
      <trkpt lat="42.38267" lon="2.73309">
        <ele>445.6</ele>
        <time>2022-05-21 16:47:03</time>
      </trkpt>
      <trkpt lat="42.38265" lon="2.7331">
        <ele>445.6</ele>
        <time>2022-05-21 16:47:04</time>
      </trkpt>
      <trkpt lat="42.38262" lon="2.7331">
        <ele>445.8</ele>
        <time>2022-05-21 16:47:05</time>
      </trkpt>
      <trkpt lat="42.3826" lon="2.7331">
        <ele>446</ele>
        <time>2022-05-21 16:47:06</time>
      </trkpt>
      <trkpt lat="42.38258" lon="2.7331">
        <ele>446.2</ele>
        <time>2022-05-21 16:47:07</time>
      </trkpt>
      <trkpt lat="42.38256" lon="2.7331">
        <ele>446.4</ele>
        <time>2022-05-21 16:47:08</time>
      </trkpt>
      <trkpt lat="42.38254" lon="2.7331">
        <ele>446.4</ele>
        <time>2022-05-21 16:47:09</time>
      </trkpt>
      <trkpt lat="42.38252" lon="2.7331">
        <ele>446.6</ele>
        <time>2022-05-21 16:47:10</time>
      </trkpt>
      <trkpt lat="42.38249" lon="2.73309">
        <ele>446.8</ele>
        <time>2022-05-21 16:47:11</time>
      </trkpt>
      <trkpt lat="42.38247" lon="2.73309">
        <ele>446.8</ele>
        <time>2022-05-21 16:47:12</time>
      </trkpt>
      <trkpt lat="42.38245" lon="2.73309">
        <ele>447</ele>
        <time>2022-05-21 16:47:13</time>
      </trkpt>
      <trkpt lat="42.38243" lon="2.73308">
        <ele>447.2</ele>
        <time>2022-05-21 16:47:14</time>
      </trkpt>
      <trkpt lat="42.38241" lon="2.73308">
        <ele>447.2</ele>
        <time>2022-05-21 16:47:15</time>
      </trkpt>
      <trkpt lat="42.38239" lon="2.73308">
        <ele>447.4</ele>
        <time>2022-05-21 16:47:16</time>
      </trkpt>
      <trkpt lat="42.38237" lon="2.73308">
        <ele>447.6</ele>
        <time>2022-05-21 16:47:17</time>
      </trkpt>
      <trkpt lat="42.38235" lon="2.73307">
        <ele>447.6</ele>
        <time>2022-05-21 16:47:18</time>
      </trkpt>
      <trkpt lat="42.38233" lon="2.73307">
        <ele>447.8</ele>
        <time>2022-05-21 16:47:19</time>
      </trkpt>
      <trkpt lat="42.3823" lon="2.73307">
        <ele>448</ele>
        <time>2022-05-21 16:47:20</time>
      </trkpt>
      <trkpt lat="42.38229" lon="2.73306">
        <ele>448</ele>
        <time>2022-05-21 16:47:21</time>
      </trkpt>
      <trkpt lat="42.38227" lon="2.73305">
        <ele>448.2</ele>
        <time>2022-05-21 16:47:22</time>
      </trkpt>
      <trkpt lat="42.38225" lon="2.73304">
        <ele>448.4</ele>
        <time>2022-05-21 16:47:23</time>
      </trkpt>
      <trkpt lat="42.38223" lon="2.73303">
        <ele>448.6</ele>
        <time>2022-05-21 16:47:24</time>
      </trkpt>
      <trkpt lat="42.38221" lon="2.73303">
        <ele>448.6</ele>
        <time>2022-05-21 16:47:25</time>
      </trkpt>
      <trkpt lat="42.38219" lon="2.73302">
        <ele>448.8</ele>
        <time>2022-05-21 16:47:26</time>
      </trkpt>
      <trkpt lat="42.38217" lon="2.73301">
        <ele>449</ele>
        <time>2022-05-21 16:47:27</time>
      </trkpt>
      <trkpt lat="42.38215" lon="2.733">
        <ele>449</ele>
        <time>2022-05-21 16:47:28</time>
      </trkpt>
      <trkpt lat="42.38213" lon="2.73299">
        <ele>449.2</ele>
        <time>2022-05-21 16:47:29</time>
      </trkpt>
      <trkpt lat="42.3821" lon="2.73297">
        <ele>449.4</ele>
        <time>2022-05-21 16:47:30</time>
      </trkpt>
      <trkpt lat="42.38208" lon="2.73296">
        <ele>449.6</ele>
        <time>2022-05-21 16:47:31</time>
      </trkpt>
      <trkpt lat="42.38206" lon="2.73295">
        <ele>449.6</ele>
        <time>2022-05-21 16:47:32</time>
      </trkpt>
      <trkpt lat="42.38204" lon="2.73294">
        <ele>449.8</ele>
        <time>2022-05-21 16:47:33</time>
      </trkpt>
      <trkpt lat="42.38202" lon="2.73292">
        <ele>450</ele>
        <time>2022-05-21 16:47:34</time>
      </trkpt>
      <trkpt lat="42.38201" lon="2.73291">
        <ele>450.2</ele>
        <time>2022-05-21 16:47:35</time>
      </trkpt>
      <trkpt lat="42.38198" lon="2.73289">
        <ele>450.2</ele>
        <time>2022-05-21 16:47:36</time>
      </trkpt>
      <trkpt lat="42.38197" lon="2.73288">
        <ele>450.4</ele>
        <time>2022-05-21 16:47:37</time>
      </trkpt>
      <trkpt lat="42.38195" lon="2.73286">
        <ele>450.4</ele>
        <time>2022-05-21 16:47:38</time>
      </trkpt>
      <trkpt lat="42.38193" lon="2.73284">
        <ele>450.6</ele>
        <time>2022-05-21 16:47:39</time>
      </trkpt>
      <trkpt lat="42.38191" lon="2.73283">
        <ele>450.8</ele>
        <time>2022-05-21 16:47:40</time>
      </trkpt>
      <trkpt lat="42.38189" lon="2.73281">
        <ele>450.8</ele>
        <time>2022-05-21 16:47:41</time>
      </trkpt>
      <trkpt lat="42.38187" lon="2.7328">
        <ele>451</ele>
        <time>2022-05-21 16:47:42</time>
      </trkpt>
      <trkpt lat="42.38185" lon="2.73278">
        <ele>451</ele>
        <time>2022-05-21 16:47:43</time>
      </trkpt>
      <trkpt lat="42.38183" lon="2.73276">
        <ele>451.2</ele>
        <time>2022-05-21 16:47:44</time>
      </trkpt>
      <trkpt lat="42.38181" lon="2.73275">
        <ele>451.2</ele>
        <time>2022-05-21 16:47:45</time>
      </trkpt>
      <trkpt lat="42.38179" lon="2.73273">
        <ele>451.4</ele>
        <time>2022-05-21 16:47:46</time>
      </trkpt>
      <trkpt lat="42.38176" lon="2.73272">
        <ele>451.4</ele>
        <time>2022-05-21 16:47:47</time>
      </trkpt>
      <trkpt lat="42.38174" lon="2.7327">
        <ele>451.6</ele>
        <time>2022-05-21 16:47:48</time>
      </trkpt>
      <trkpt lat="42.38172" lon="2.73268">
        <ele>451.6</ele>
        <time>2022-05-21 16:47:49</time>
      </trkpt>
      <trkpt lat="42.3817" lon="2.73266">
        <ele>451.8</ele>
        <time>2022-05-21 16:47:50</time>
      </trkpt>
      <trkpt lat="42.38168" lon="2.73265">
        <ele>451.8</ele>
        <time>2022-05-21 16:47:51</time>
      </trkpt>
      <trkpt lat="42.38166" lon="2.73263">
        <ele>451.8</ele>
        <time>2022-05-21 16:47:52</time>
      </trkpt>
      <trkpt lat="42.38164" lon="2.73261">
        <ele>452</ele>
        <time>2022-05-21 16:47:53</time>
      </trkpt>
      <trkpt lat="42.38161" lon="2.7326">
        <ele>452</ele>
        <time>2022-05-21 16:47:54</time>
      </trkpt>
      <trkpt lat="42.38159" lon="2.73257">
        <ele>452.2</ele>
        <time>2022-05-21 16:47:55</time>
      </trkpt>
      <trkpt lat="42.38157" lon="2.73255">
        <ele>452.2</ele>
        <time>2022-05-21 16:47:56</time>
      </trkpt>
      <trkpt lat="42.38154" lon="2.73253">
        <ele>452.2</ele>
        <time>2022-05-21 16:47:57</time>
      </trkpt>
      <trkpt lat="42.38151" lon="2.73251">
        <ele>452.4</ele>
        <time>2022-05-21 16:47:58</time>
      </trkpt>
      <trkpt lat="42.38149" lon="2.73249">
        <ele>452.4</ele>
        <time>2022-05-21 16:47:59</time>
      </trkpt>
      <trkpt lat="42.38146" lon="2.73247">
        <ele>452.4</ele>
        <time>2022-05-21 16:48:00</time>
      </trkpt>
      <trkpt lat="42.38143" lon="2.73244">
        <ele>452.4</ele>
        <time>2022-05-21 16:48:01</time>
      </trkpt>
      <trkpt lat="42.38141" lon="2.73242">
        <ele>452.4</ele>
        <time>2022-05-21 16:48:02</time>
      </trkpt>
      <trkpt lat="42.38138" lon="2.73239">
        <ele>452.6</ele>
        <time>2022-05-21 16:48:03</time>
      </trkpt>
      <trkpt lat="42.38135" lon="2.73236">
        <ele>452.6</ele>
        <time>2022-05-21 16:48:04</time>
      </trkpt>
      <trkpt lat="42.38132" lon="2.73234">
        <ele>452.6</ele>
        <time>2022-05-21 16:48:05</time>
      </trkpt>
      <trkpt lat="42.38129" lon="2.73231">
        <ele>452.6</ele>
        <time>2022-05-21 16:48:06</time>
      </trkpt>
      <trkpt lat="42.38126" lon="2.73229">
        <ele>452.6</ele>
        <time>2022-05-21 16:48:07</time>
      </trkpt>
      <trkpt lat="42.38123" lon="2.73226">
        <ele>452.6</ele>
        <time>2022-05-21 16:48:08</time>
      </trkpt>
      <trkpt lat="42.3812" lon="2.73223">
        <ele>452.6</ele>
        <time>2022-05-21 16:48:09</time>
      </trkpt>
      <trkpt lat="42.38117" lon="2.7322">
        <ele>452.6</ele>
        <time>2022-05-21 16:48:10</time>
      </trkpt>
      <trkpt lat="42.38113" lon="2.73217">
        <ele>452.6</ele>
        <time>2022-05-21 16:48:11</time>
      </trkpt>
      <trkpt lat="42.3811" lon="2.73214">
        <ele>452.6</ele>
        <time>2022-05-21 16:48:12</time>
      </trkpt>
      <trkpt lat="42.38106" lon="2.7321">
        <ele>452.6</ele>
        <time>2022-05-21 16:48:13</time>
      </trkpt>
      <trkpt lat="42.38103" lon="2.73206">
        <ele>452.4</ele>
        <time>2022-05-21 16:48:14</time>
      </trkpt>
      <trkpt lat="42.38099" lon="2.73201">
        <ele>452.4</ele>
        <time>2022-05-21 16:48:15</time>
      </trkpt>
      <trkpt lat="42.38095" lon="2.73196">
        <ele>452.2</ele>
        <time>2022-05-21 16:48:16</time>
      </trkpt>
      <trkpt lat="42.38092" lon="2.7319">
        <ele>452</ele>
        <time>2022-05-21 16:48:17</time>
      </trkpt>
      <trkpt lat="42.38088" lon="2.73184">
        <ele>452</ele>
        <time>2022-05-21 16:48:18</time>
      </trkpt>
      <trkpt lat="42.38085" lon="2.73178">
        <ele>451.8</ele>
        <time>2022-05-21 16:48:19</time>
      </trkpt>
      <trkpt lat="42.38083" lon="2.73171">
        <ele>451.6</ele>
        <time>2022-05-21 16:48:20</time>
      </trkpt>
      <trkpt lat="42.3808" lon="2.73164">
        <ele>451.6</ele>
        <time>2022-05-21 16:48:21</time>
      </trkpt>
      <trkpt lat="42.38079" lon="2.73156">
        <ele>451.4</ele>
        <time>2022-05-21 16:48:22</time>
      </trkpt>
      <trkpt lat="42.38077" lon="2.73148">
        <ele>451.2</ele>
        <time>2022-05-21 16:48:23</time>
      </trkpt>
      <trkpt lat="42.38076" lon="2.73139">
        <ele>451</ele>
        <time>2022-05-21 16:48:24</time>
      </trkpt>
      <trkpt lat="42.38076" lon="2.73131">
        <ele>451</ele>
        <time>2022-05-21 16:48:25</time>
      </trkpt>
      <trkpt lat="42.38076" lon="2.73122">
        <ele>450.8</ele>
        <time>2022-05-21 16:48:26</time>
      </trkpt>
      <trkpt lat="42.38077" lon="2.73113">
        <ele>450.6</ele>
        <time>2022-05-21 16:48:27</time>
      </trkpt>
      <trkpt lat="42.38078" lon="2.73104">
        <ele>450.4</ele>
        <time>2022-05-21 16:48:28</time>
      </trkpt>
      <trkpt lat="42.38081" lon="2.73096">
        <ele>450.4</ele>
        <time>2022-05-21 16:48:29</time>
      </trkpt>
      <trkpt lat="42.38084" lon="2.73088">
        <ele>450.2</ele>
        <time>2022-05-21 16:48:30</time>
      </trkpt>
      <trkpt lat="42.38088" lon="2.7308">
        <ele>450</ele>
        <time>2022-05-21 16:48:31</time>
      </trkpt>
      <trkpt lat="42.38092" lon="2.73073">
        <ele>450</ele>
        <time>2022-05-21 16:48:32</time>
      </trkpt>
      <trkpt lat="42.38096" lon="2.73066">
        <ele>449.8</ele>
        <time>2022-05-21 16:48:33</time>
      </trkpt>
      <trkpt lat="42.38101" lon="2.7306">
        <ele>449.6</ele>
        <time>2022-05-21 16:48:34</time>
      </trkpt>
      <trkpt lat="42.38106" lon="2.73055">
        <ele>449.6</ele>
        <time>2022-05-21 16:48:35</time>
      </trkpt>
      <trkpt lat="42.38112" lon="2.73049">
        <ele>449.4</ele>
        <time>2022-05-21 16:48:36</time>
      </trkpt>
      <trkpt lat="42.38118" lon="2.73045">
        <ele>449.2</ele>
        <time>2022-05-21 16:48:37</time>
      </trkpt>
      <trkpt lat="42.38125" lon="2.73039">
        <ele>449</ele>
        <time>2022-05-21 16:48:38</time>
      </trkpt>
      <trkpt lat="42.38132" lon="2.73035">
        <ele>448.8</ele>
        <time>2022-05-21 16:48:39</time>
      </trkpt>
      <trkpt lat="42.38138" lon="2.73031">
        <ele>448.8</ele>
        <time>2022-05-21 16:48:40</time>
      </trkpt>
      <trkpt lat="42.38145" lon="2.73026">
        <ele>448.6</ele>
        <time>2022-05-21 16:48:41</time>
      </trkpt>
      <trkpt lat="42.38152" lon="2.73022">
        <ele>448.4</ele>
        <time>2022-05-21 16:48:42</time>
      </trkpt>
      <trkpt lat="42.38158" lon="2.73018">
        <ele>448.2</ele>
        <time>2022-05-21 16:48:43</time>
      </trkpt>
      <trkpt lat="42.38164" lon="2.73013">
        <ele>448</ele>
        <time>2022-05-21 16:48:44</time>
      </trkpt>
      <trkpt lat="42.38171" lon="2.73009">
        <ele>448</ele>
        <time>2022-05-21 16:48:45</time>
      </trkpt>
      <trkpt lat="42.38179" lon="2.73004">
        <ele>447.8</ele>
        <time>2022-05-21 16:48:46</time>
      </trkpt>
      <trkpt lat="42.38185" lon="2.72999">
        <ele>447.6</ele>
        <time>2022-05-21 16:48:47</time>
      </trkpt>
      <trkpt lat="42.38192" lon="2.72995">
        <ele>447.4</ele>
        <time>2022-05-21 16:48:48</time>
      </trkpt>
      <trkpt lat="42.38199" lon="2.72991">
        <ele>447.2</ele>
        <time>2022-05-21 16:48:49</time>
      </trkpt>
      <trkpt lat="42.38206" lon="2.72986">
        <ele>447</ele>
        <time>2022-05-21 16:48:50</time>
      </trkpt>
      <trkpt lat="42.38213" lon="2.72982">
        <ele>446.8</ele>
        <time>2022-05-21 16:48:51</time>
      </trkpt>
      <trkpt lat="42.38219" lon="2.72978">
        <ele>446.8</ele>
        <time>2022-05-21 16:48:52</time>
      </trkpt>
      <trkpt lat="42.38226" lon="2.72973">
        <ele>446.6</ele>
        <time>2022-05-21 16:48:53</time>
      </trkpt>
      <trkpt lat="42.38233" lon="2.72969">
        <ele>446.4</ele>
        <time>2022-05-21 16:48:54</time>
      </trkpt>
      <trkpt lat="42.3824" lon="2.72964">
        <ele>446.4</ele>
        <time>2022-05-21 16:48:55</time>
      </trkpt>
      <trkpt lat="42.38246" lon="2.72959">
        <ele>446.2</ele>
        <time>2022-05-21 16:48:56</time>
      </trkpt>
      <trkpt lat="42.38252" lon="2.72954">
        <ele>446</ele>
        <time>2022-05-21 16:48:57</time>
      </trkpt>
      <trkpt lat="42.38258" lon="2.72948">
        <ele>445.8</ele>
        <time>2022-05-21 16:48:58</time>
      </trkpt>
      <trkpt lat="42.38264" lon="2.72941">
        <ele>445.8</ele>
        <time>2022-05-21 16:48:59</time>
      </trkpt>
      <trkpt lat="42.3827" lon="2.72935">
        <ele>445.6</ele>
        <time>2022-05-21 16:49:00</time>
      </trkpt>
      <trkpt lat="42.38275" lon="2.72927">
        <ele>445.6</ele>
        <time>2022-05-21 16:49:01</time>
      </trkpt>
      <trkpt lat="42.38279" lon="2.72919">
        <ele>445.4</ele>
        <time>2022-05-21 16:49:02</time>
      </trkpt>
      <trkpt lat="42.38282" lon="2.7291">
        <ele>445.2</ele>
        <time>2022-05-21 16:49:03</time>
      </trkpt>
      <trkpt lat="42.38285" lon="2.72901">
        <ele>445.2</ele>
        <time>2022-05-21 16:49:04</time>
      </trkpt>
      <trkpt lat="42.38287" lon="2.72892">
        <ele>445</ele>
        <time>2022-05-21 16:49:05</time>
      </trkpt>
      <trkpt lat="42.38289" lon="2.72882">
        <ele>444.8</ele>
        <time>2022-05-21 16:49:06</time>
      </trkpt>
      <trkpt lat="42.38289" lon="2.72871">
        <ele>444.8</ele>
        <time>2022-05-21 16:49:07</time>
      </trkpt>
      <trkpt lat="42.38288" lon="2.72861">
        <ele>444.6</ele>
        <time>2022-05-21 16:49:08</time>
      </trkpt>
      <trkpt lat="42.38286" lon="2.72851">
        <ele>444.4</ele>
        <time>2022-05-21 16:49:09</time>
      </trkpt>
      <trkpt lat="42.38284" lon="2.72841">
        <ele>444.4</ele>
        <time>2022-05-21 16:49:10</time>
      </trkpt>
      <trkpt lat="42.38282" lon="2.72831">
        <ele>444.4</ele>
        <time>2022-05-21 16:49:11</time>
      </trkpt>
      <trkpt lat="42.38279" lon="2.72822">
        <ele>444.6</ele>
        <time>2022-05-21 16:49:12</time>
      </trkpt>
      <trkpt lat="42.38276" lon="2.72814">
        <ele>444.6</ele>
        <time>2022-05-21 16:49:13</time>
      </trkpt>
      <trkpt lat="42.38272" lon="2.72807">
        <ele>444.8</ele>
        <time>2022-05-21 16:49:14</time>
      </trkpt>
      <trkpt lat="42.38268" lon="2.728">
        <ele>445</ele>
        <time>2022-05-21 16:49:15</time>
      </trkpt>
      <trkpt lat="42.38264" lon="2.72794">
        <ele>445.2</ele>
        <time>2022-05-21 16:49:16</time>
      </trkpt>
      <trkpt lat="42.3826" lon="2.72788">
        <ele>445.4</ele>
        <time>2022-05-21 16:49:17</time>
      </trkpt>
      <trkpt lat="42.38256" lon="2.72783">
        <ele>445.6</ele>
        <time>2022-05-21 16:49:18</time>
      </trkpt>
      <trkpt lat="42.38252" lon="2.72778">
        <ele>446</ele>
        <time>2022-05-21 16:49:19</time>
      </trkpt>
      <trkpt lat="42.38247" lon="2.72774">
        <ele>446.2</ele>
        <time>2022-05-21 16:49:20</time>
      </trkpt>
      <trkpt lat="42.38243" lon="2.7277">
        <ele>446.4</ele>
        <time>2022-05-21 16:49:21</time>
      </trkpt>
      <trkpt lat="42.38239" lon="2.72766">
        <ele>446.6</ele>
        <time>2022-05-21 16:49:22</time>
      </trkpt>
      <trkpt lat="42.38235" lon="2.72762">
        <ele>446.8</ele>
        <time>2022-05-21 16:49:23</time>
      </trkpt>
      <trkpt lat="42.38232" lon="2.72759">
        <ele>447</ele>
        <time>2022-05-21 16:49:24</time>
      </trkpt>
      <trkpt lat="42.38228" lon="2.72755">
        <ele>447.2</ele>
        <time>2022-05-21 16:49:25</time>
      </trkpt>
      <trkpt lat="42.38225" lon="2.72752">
        <ele>447.6</ele>
        <time>2022-05-21 16:49:26</time>
      </trkpt>
      <trkpt lat="42.38221" lon="2.72749">
        <ele>447.8</ele>
        <time>2022-05-21 16:49:27</time>
      </trkpt>
      <trkpt lat="42.38218" lon="2.72746">
        <ele>448</ele>
        <time>2022-05-21 16:49:28</time>
      </trkpt>
      <trkpt lat="42.38215" lon="2.72744">
        <ele>448.2</ele>
        <time>2022-05-21 16:49:29</time>
      </trkpt>
      <trkpt lat="42.38212" lon="2.72741">
        <ele>448.4</ele>
        <time>2022-05-21 16:49:30</time>
      </trkpt>
      <trkpt lat="42.38208" lon="2.72738">
        <ele>448.6</ele>
        <time>2022-05-21 16:49:31</time>
      </trkpt>
      <trkpt lat="42.38205" lon="2.72735">
        <ele>448.8</ele>
        <time>2022-05-21 16:49:32</time>
      </trkpt>
      <trkpt lat="42.38202" lon="2.72733">
        <ele>449</ele>
        <time>2022-05-21 16:49:33</time>
      </trkpt>
      <trkpt lat="42.38198" lon="2.7273">
        <ele>449</ele>
        <time>2022-05-21 16:49:34</time>
      </trkpt>
      <trkpt lat="42.38195" lon="2.72727">
        <ele>449.2</ele>
        <time>2022-05-21 16:49:35</time>
      </trkpt>
      <trkpt lat="42.38192" lon="2.72725">
        <ele>449.4</ele>
        <time>2022-05-21 16:49:36</time>
      </trkpt>
      <trkpt lat="42.38189" lon="2.72722">
        <ele>449.6</ele>
        <time>2022-05-21 16:49:37</time>
      </trkpt>
      <trkpt lat="42.38186" lon="2.72719">
        <ele>449.8</ele>
        <time>2022-05-21 16:49:38</time>
      </trkpt>
      <trkpt lat="42.38183" lon="2.72717">
        <ele>450</ele>
        <time>2022-05-21 16:49:39</time>
      </trkpt>
      <trkpt lat="42.38181" lon="2.72714">
        <ele>450</ele>
        <time>2022-05-21 16:49:40</time>
      </trkpt>
      <trkpt lat="42.38179" lon="2.72712">
        <ele>450.2</ele>
        <time>2022-05-21 16:49:41</time>
      </trkpt>
      <trkpt lat="42.38176" lon="2.7271">
        <ele>450.4</ele>
        <time>2022-05-21 16:49:42</time>
      </trkpt>
      <trkpt lat="42.38174" lon="2.72707">
        <ele>450.6</ele>
        <time>2022-05-21 16:49:43</time>
      </trkpt>
      <trkpt lat="42.38172" lon="2.72705">
        <ele>450.8</ele>
        <time>2022-05-21 16:49:44</time>
      </trkpt>
      <trkpt lat="42.3817" lon="2.72702">
        <ele>450.8</ele>
        <time>2022-05-21 16:49:45</time>
      </trkpt>
      <trkpt lat="42.38168" lon="2.72699">
        <ele>451</ele>
        <time>2022-05-21 16:49:46</time>
      </trkpt>
      <trkpt lat="42.38166" lon="2.72697">
        <ele>451.2</ele>
        <time>2022-05-21 16:49:47</time>
      </trkpt>
      <trkpt lat="42.38164" lon="2.72694">
        <ele>451.2</ele>
        <time>2022-05-21 16:49:48</time>
      </trkpt>
      <trkpt lat="42.38162" lon="2.7269">
        <ele>451.4</ele>
        <time>2022-05-21 16:49:49</time>
      </trkpt>
      <trkpt lat="42.3816" lon="2.72687">
        <ele>451.6</ele>
        <time>2022-05-21 16:49:50</time>
      </trkpt>
      <trkpt lat="42.38159" lon="2.72684">
        <ele>451.6</ele>
        <time>2022-05-21 16:49:51</time>
      </trkpt>
      <trkpt lat="42.38157" lon="2.72681">
        <ele>451.8</ele>
        <time>2022-05-21 16:49:52</time>
      </trkpt>
      <trkpt lat="42.38156" lon="2.72678">
        <ele>452</ele>
        <time>2022-05-21 16:49:53</time>
      </trkpt>
      <trkpt lat="42.38154" lon="2.72674">
        <ele>452.2</ele>
        <time>2022-05-21 16:49:54</time>
      </trkpt>
      <trkpt lat="42.38153" lon="2.72671">
        <ele>452.2</ele>
        <time>2022-05-21 16:49:55</time>
      </trkpt>
      <trkpt lat="42.38152" lon="2.72668">
        <ele>452.4</ele>
        <time>2022-05-21 16:49:56</time>
      </trkpt>
      <trkpt lat="42.38151" lon="2.72664">
        <ele>452.6</ele>
        <time>2022-05-21 16:49:57</time>
      </trkpt>
      <trkpt lat="42.3815" lon="2.7266">
        <ele>452.6</ele>
        <time>2022-05-21 16:49:58</time>
      </trkpt>
      <trkpt lat="42.38149" lon="2.72656">
        <ele>452.8</ele>
        <time>2022-05-21 16:49:59</time>
      </trkpt>
      <trkpt lat="42.38149" lon="2.72653">
        <ele>453</ele>
        <time>2022-05-21 16:50:00</time>
      </trkpt>
      <trkpt lat="42.38148" lon="2.72649">
        <ele>453.2</ele>
        <time>2022-05-21 16:50:01</time>
      </trkpt>
      <trkpt lat="42.38147" lon="2.72645">
        <ele>453.2</ele>
        <time>2022-05-21 16:50:02</time>
      </trkpt>
      <trkpt lat="42.38147" lon="2.72641">
        <ele>453.4</ele>
        <time>2022-05-21 16:50:03</time>
      </trkpt>
      <trkpt lat="42.38147" lon="2.72638">
        <ele>453.6</ele>
        <time>2022-05-21 16:50:04</time>
      </trkpt>
      <trkpt lat="42.38147" lon="2.72634">
        <ele>453.8</ele>
        <time>2022-05-21 16:50:05</time>
      </trkpt>
      <trkpt lat="42.38147" lon="2.7263">
        <ele>453.8</ele>
        <time>2022-05-21 16:50:06</time>
      </trkpt>
      <trkpt lat="42.38147" lon="2.72626">
        <ele>454</ele>
        <time>2022-05-21 16:50:07</time>
      </trkpt>
      <trkpt lat="42.38147" lon="2.72622">
        <ele>454.2</ele>
        <time>2022-05-21 16:50:08</time>
      </trkpt>
      <trkpt lat="42.38147" lon="2.72619">
        <ele>454.2</ele>
        <time>2022-05-21 16:50:09</time>
      </trkpt>
      <trkpt lat="42.38147" lon="2.72615">
        <ele>454.4</ele>
        <time>2022-05-21 16:50:10</time>
      </trkpt>
      <trkpt lat="42.38148" lon="2.72611">
        <ele>454.6</ele>
        <time>2022-05-21 16:50:11</time>
      </trkpt>
      <trkpt lat="42.38148" lon="2.72608">
        <ele>454.6</ele>
        <time>2022-05-21 16:50:12</time>
      </trkpt>
      <trkpt lat="42.38148" lon="2.72604">
        <ele>454.8</ele>
        <time>2022-05-21 16:50:13</time>
      </trkpt>
      <trkpt lat="42.38149" lon="2.726">
        <ele>455</ele>
        <time>2022-05-21 16:50:14</time>
      </trkpt>
      <trkpt lat="42.38149" lon="2.72597">
        <ele>455</ele>
        <time>2022-05-21 16:50:15</time>
      </trkpt>
      <trkpt lat="42.3815" lon="2.72593">
        <ele>455.2</ele>
        <time>2022-05-21 16:50:16</time>
      </trkpt>
      <trkpt lat="42.3815" lon="2.72589">
        <ele>455.4</ele>
        <time>2022-05-21 16:50:17</time>
      </trkpt>
      <trkpt lat="42.38151" lon="2.72585">
        <ele>455.4</ele>
        <time>2022-05-21 16:50:18</time>
      </trkpt>
      <trkpt lat="42.38151" lon="2.72582">
        <ele>455.6</ele>
        <time>2022-05-21 16:50:19</time>
      </trkpt>
      <trkpt lat="42.38151" lon="2.72578">
        <ele>455.6</ele>
        <time>2022-05-21 16:50:20</time>
      </trkpt>
      <trkpt lat="42.38152" lon="2.72574">
        <ele>455.8</ele>
        <time>2022-05-21 16:50:21</time>
      </trkpt>
      <trkpt lat="42.38153" lon="2.7257">
        <ele>456</ele>
        <time>2022-05-21 16:50:22</time>
      </trkpt>
      <trkpt lat="42.38153" lon="2.72566">
        <ele>456</ele>
        <time>2022-05-21 16:50:23</time>
      </trkpt>
      <trkpt lat="42.38154" lon="2.72562">
        <ele>456.2</ele>
        <time>2022-05-21 16:50:24</time>
      </trkpt>
      <trkpt lat="42.38154" lon="2.72559">
        <ele>456.4</ele>
        <time>2022-05-21 16:50:25</time>
      </trkpt>
      <trkpt lat="42.38154" lon="2.72555">
        <ele>456.6</ele>
        <time>2022-05-21 16:50:26</time>
      </trkpt>
      <trkpt lat="42.38155" lon="2.72551">
        <ele>456.6</ele>
        <time>2022-05-21 16:50:27</time>
      </trkpt>
      <trkpt lat="42.38155" lon="2.72547">
        <ele>456.8</ele>
        <time>2022-05-21 16:50:28</time>
      </trkpt>
      <trkpt lat="42.38156" lon="2.72543">
        <ele>456.8</ele>
        <time>2022-05-21 16:50:29</time>
      </trkpt>
      <trkpt lat="42.38157" lon="2.72539">
        <ele>457</ele>
        <time>2022-05-21 16:50:30</time>
      </trkpt>
      <trkpt lat="42.38158" lon="2.72536">
        <ele>457.2</ele>
        <time>2022-05-21 16:50:31</time>
      </trkpt>
      <trkpt lat="42.38158" lon="2.72532">
        <ele>457.2</ele>
        <time>2022-05-21 16:50:32</time>
      </trkpt>
      <trkpt lat="42.38159" lon="2.72528">
        <ele>457.4</ele>
        <time>2022-05-21 16:50:33</time>
      </trkpt>
      <trkpt lat="42.3816" lon="2.72524">
        <ele>457.4</ele>
        <time>2022-05-21 16:50:34</time>
      </trkpt>
      <trkpt lat="42.3816" lon="2.7252">
        <ele>457.6</ele>
        <time>2022-05-21 16:50:35</time>
      </trkpt>
      <trkpt lat="42.38161" lon="2.72516">
        <ele>457.6</ele>
        <time>2022-05-21 16:50:36</time>
      </trkpt>
      <trkpt lat="42.38162" lon="2.72512">
        <ele>457.8</ele>
        <time>2022-05-21 16:50:37</time>
      </trkpt>
      <trkpt lat="42.38163" lon="2.72508">
        <ele>457.8</ele>
        <time>2022-05-21 16:50:38</time>
      </trkpt>
      <trkpt lat="42.38163" lon="2.72504">
        <ele>458</ele>
        <time>2022-05-21 16:50:39</time>
      </trkpt>
      <trkpt lat="42.38164" lon="2.725">
        <ele>458</ele>
        <time>2022-05-21 16:50:40</time>
      </trkpt>
      <trkpt lat="42.38165" lon="2.72496">
        <ele>458.2</ele>
        <time>2022-05-21 16:50:41</time>
      </trkpt>
      <trkpt lat="42.38166" lon="2.72492">
        <ele>458.2</ele>
        <time>2022-05-21 16:50:42</time>
      </trkpt>
      <trkpt lat="42.38166" lon="2.72488">
        <ele>458.4</ele>
        <time>2022-05-21 16:50:43</time>
      </trkpt>
      <trkpt lat="42.38167" lon="2.72484">
        <ele>458.4</ele>
        <time>2022-05-21 16:50:44</time>
      </trkpt>
      <trkpt lat="42.38168" lon="2.7248">
        <ele>458.6</ele>
        <time>2022-05-21 16:50:45</time>
      </trkpt>
      <trkpt lat="42.3817" lon="2.72476">
        <ele>458.6</ele>
        <time>2022-05-21 16:50:46</time>
      </trkpt>
      <trkpt lat="42.38171" lon="2.72472">
        <ele>458.6</ele>
        <time>2022-05-21 16:50:47</time>
      </trkpt>
      <trkpt lat="42.38172" lon="2.72468">
        <ele>458.8</ele>
        <time>2022-05-21 16:50:48</time>
      </trkpt>
      <trkpt lat="42.38173" lon="2.72463">
        <ele>458.8</ele>
        <time>2022-05-21 16:50:49</time>
      </trkpt>
      <trkpt lat="42.38175" lon="2.72459">
        <ele>458.8</ele>
        <time>2022-05-21 16:50:50</time>
      </trkpt>
      <trkpt lat="42.38176" lon="2.72456">
        <ele>458.8</ele>
        <time>2022-05-21 16:50:51</time>
      </trkpt>
      <trkpt lat="42.38177" lon="2.72452">
        <ele>459</ele>
        <time>2022-05-21 16:50:52</time>
      </trkpt>
      <trkpt lat="42.38179" lon="2.72447">
        <ele>459</ele>
        <time>2022-05-21 16:50:53</time>
      </trkpt>
      <trkpt lat="42.38181" lon="2.72442">
        <ele>459</ele>
        <time>2022-05-21 16:50:54</time>
      </trkpt>
      <trkpt lat="42.38183" lon="2.72437">
        <ele>459.2</ele>
        <time>2022-05-21 16:50:55</time>
      </trkpt>
      <trkpt lat="42.38185" lon="2.72433">
        <ele>459.2</ele>
        <time>2022-05-21 16:50:56</time>
      </trkpt>
      <trkpt lat="42.38188" lon="2.72429">
        <ele>459.2</ele>
        <time>2022-05-21 16:50:57</time>
      </trkpt>
      <trkpt lat="42.3819" lon="2.72425">
        <ele>459.2</ele>
        <time>2022-05-21 16:50:58</time>
      </trkpt>
      <trkpt lat="42.38192" lon="2.72422">
        <ele>459.2</ele>
        <time>2022-05-21 16:50:59</time>
      </trkpt>
      <trkpt lat="42.38195" lon="2.72417">
        <ele>459.2</ele>
        <time>2022-05-21 16:51:00</time>
      </trkpt>
      <trkpt lat="42.38197" lon="2.72413">
        <ele>459.2</ele>
        <time>2022-05-21 16:51:01</time>
      </trkpt>
      <trkpt lat="42.382" lon="2.72409">
        <ele>459.2</ele>
        <time>2022-05-21 16:51:02</time>
      </trkpt>
      <trkpt lat="42.38203" lon="2.72405">
        <ele>459.2</ele>
        <time>2022-05-21 16:51:03</time>
      </trkpt>
      <trkpt lat="42.38206" lon="2.724">
        <ele>459.2</ele>
        <time>2022-05-21 16:51:04</time>
      </trkpt>
      <trkpt lat="42.38209" lon="2.72396">
        <ele>459.2</ele>
        <time>2022-05-21 16:51:05</time>
      </trkpt>
      <trkpt lat="42.38212" lon="2.7239">
        <ele>459.2</ele>
        <time>2022-05-21 16:51:06</time>
      </trkpt>
      <trkpt lat="42.38215" lon="2.72385">
        <ele>459.2</ele>
        <time>2022-05-21 16:51:07</time>
      </trkpt>
      <trkpt lat="42.38218" lon="2.7238">
        <ele>459</ele>
        <time>2022-05-21 16:51:08</time>
      </trkpt>
      <trkpt lat="42.38221" lon="2.72375">
        <ele>459</ele>
        <time>2022-05-21 16:51:09</time>
      </trkpt>
      <trkpt lat="42.38224" lon="2.7237">
        <ele>459</ele>
        <time>2022-05-21 16:51:10</time>
      </trkpt>
      <trkpt lat="42.38227" lon="2.72366">
        <ele>458.8</ele>
        <time>2022-05-21 16:51:11</time>
      </trkpt>
      <trkpt lat="42.38231" lon="2.72361">
        <ele>458.8</ele>
        <time>2022-05-21 16:51:12</time>
      </trkpt>
      <trkpt lat="42.38235" lon="2.72355">
        <ele>458.6</ele>
        <time>2022-05-21 16:51:13</time>
      </trkpt>
      <trkpt lat="42.38238" lon="2.7235">
        <ele>458.4</ele>
        <time>2022-05-21 16:51:14</time>
      </trkpt>
      <trkpt lat="42.38242" lon="2.72345">
        <ele>458.4</ele>
        <time>2022-05-21 16:51:15</time>
      </trkpt>
      <trkpt lat="42.38247" lon="2.72339">
        <ele>458.2</ele>
        <time>2022-05-21 16:51:16</time>
      </trkpt>
      <trkpt lat="42.38251" lon="2.72332">
        <ele>458</ele>
        <time>2022-05-21 16:51:17</time>
      </trkpt>
      <trkpt lat="42.38256" lon="2.72326">
        <ele>457.8</ele>
        <time>2022-05-21 16:51:18</time>
      </trkpt>
      <trkpt lat="42.3826" lon="2.7232">
        <ele>457.6</ele>
        <time>2022-05-21 16:51:19</time>
      </trkpt>
      <trkpt lat="42.38264" lon="2.72313">
        <ele>457.2</ele>
        <time>2022-05-21 16:51:20</time>
      </trkpt>
      <trkpt lat="42.38269" lon="2.72307">
        <ele>457</ele>
        <time>2022-05-21 16:51:21</time>
      </trkpt>
      <trkpt lat="42.38275" lon="2.72301">
        <ele>456.8</ele>
        <time>2022-05-21 16:51:22</time>
      </trkpt>
      <trkpt lat="42.3828" lon="2.72295">
        <ele>456.6</ele>
        <time>2022-05-21 16:51:23</time>
      </trkpt>
      <trkpt lat="42.38286" lon="2.7229">
        <ele>456.4</ele>
        <time>2022-05-21 16:51:24</time>
      </trkpt>
      <trkpt lat="42.38292" lon="2.72285">
        <ele>456</ele>
        <time>2022-05-21 16:51:25</time>
      </trkpt>
      <trkpt lat="42.38298" lon="2.72279">
        <ele>455.8</ele>
        <time>2022-05-21 16:51:26</time>
      </trkpt>
      <trkpt lat="42.38304" lon="2.72274">
        <ele>455.6</ele>
        <time>2022-05-21 16:51:27</time>
      </trkpt>
      <trkpt lat="42.3831" lon="2.72269">
        <ele>455.4</ele>
        <time>2022-05-21 16:51:28</time>
      </trkpt>
      <trkpt lat="42.38317" lon="2.72264">
        <ele>455</ele>
        <time>2022-05-21 16:51:29</time>
      </trkpt>
      <trkpt lat="42.38324" lon="2.72261">
        <ele>454.8</ele>
        <time>2022-05-21 16:51:30</time>
      </trkpt>
      <trkpt lat="42.38332" lon="2.72257">
        <ele>454.6</ele>
        <time>2022-05-21 16:51:31</time>
      </trkpt>
      <trkpt lat="42.38339" lon="2.72254">
        <ele>454.2</ele>
        <time>2022-05-21 16:51:32</time>
      </trkpt>
      <trkpt lat="42.38346" lon="2.7225">
        <ele>454</ele>
        <time>2022-05-21 16:51:33</time>
      </trkpt>
      <trkpt lat="42.38353" lon="2.72246">
        <ele>453.8</ele>
        <time>2022-05-21 16:51:34</time>
      </trkpt>
      <trkpt lat="42.38361" lon="2.72243">
        <ele>453.6</ele>
        <time>2022-05-21 16:51:35</time>
      </trkpt>
      <trkpt lat="42.38368" lon="2.7224">
        <ele>453.4</ele>
        <time>2022-05-21 16:51:36</time>
      </trkpt>
      <trkpt lat="42.38375" lon="2.72236">
        <ele>453.2</ele>
        <time>2022-05-21 16:51:37</time>
      </trkpt>
      <trkpt lat="42.38383" lon="2.72233">
        <ele>453</ele>
        <time>2022-05-21 16:51:38</time>
      </trkpt>
      <trkpt lat="42.3839" lon="2.7223">
        <ele>452.6</ele>
        <time>2022-05-21 16:51:39</time>
      </trkpt>
      <trkpt lat="42.38398" lon="2.72226">
        <ele>452.4</ele>
        <time>2022-05-21 16:51:40</time>
      </trkpt>
      <trkpt lat="42.38405" lon="2.72223">
        <ele>452.2</ele>
        <time>2022-05-21 16:51:41</time>
      </trkpt>
      <trkpt lat="42.38413" lon="2.72219">
        <ele>452</ele>
        <time>2022-05-21 16:51:42</time>
      </trkpt>
      <trkpt lat="42.3842" lon="2.72215">
        <ele>451.8</ele>
        <time>2022-05-21 16:51:43</time>
      </trkpt>
      <trkpt lat="42.38427" lon="2.72211">
        <ele>451.6</ele>
        <time>2022-05-21 16:51:44</time>
      </trkpt>
      <trkpt lat="42.38435" lon="2.72207">
        <ele>451.4</ele>
        <time>2022-05-21 16:51:45</time>
      </trkpt>
      <trkpt lat="42.38441" lon="2.72203">
        <ele>451.4</ele>
        <time>2022-05-21 16:51:46</time>
      </trkpt>
      <trkpt lat="42.38448" lon="2.72199">
        <ele>451.2</ele>
        <time>2022-05-21 16:51:47</time>
      </trkpt>
      <trkpt lat="42.38455" lon="2.72194">
        <ele>451</ele>
        <time>2022-05-21 16:51:48</time>
      </trkpt>
      <trkpt lat="42.38462" lon="2.7219">
        <ele>450.8</ele>
        <time>2022-05-21 16:51:49</time>
      </trkpt>
      <trkpt lat="42.3847" lon="2.72186">
        <ele>450.8</ele>
        <time>2022-05-21 16:51:50</time>
      </trkpt>
      <trkpt lat="42.38476" lon="2.72181">
        <ele>450.6</ele>
        <time>2022-05-21 16:51:51</time>
      </trkpt>
      <trkpt lat="42.38483" lon="2.72176">
        <ele>450.6</ele>
        <time>2022-05-21 16:51:52</time>
      </trkpt>
      <trkpt lat="42.38489" lon="2.72171">
        <ele>450.4</ele>
        <time>2022-05-21 16:51:53</time>
      </trkpt>
      <trkpt lat="42.38496" lon="2.72166">
        <ele>450.4</ele>
        <time>2022-05-21 16:51:54</time>
      </trkpt>
      <trkpt lat="42.38502" lon="2.72161">
        <ele>450.4</ele>
        <time>2022-05-21 16:51:55</time>
      </trkpt>
      <trkpt lat="42.38508" lon="2.72156">
        <ele>450.4</ele>
        <time>2022-05-21 16:51:56</time>
      </trkpt>
      <trkpt lat="42.38514" lon="2.72151">
        <ele>450.2</ele>
        <time>2022-05-21 16:51:57</time>
      </trkpt>
      <trkpt lat="42.3852" lon="2.72147">
        <ele>450.2</ele>
        <time>2022-05-21 16:51:58</time>
      </trkpt>
      <trkpt lat="42.38526" lon="2.72142">
        <ele>450.2</ele>
        <time>2022-05-21 16:51:59</time>
      </trkpt>
      <trkpt lat="42.38533" lon="2.72137">
        <ele>450.2</ele>
        <time>2022-05-21 16:52:00</time>
      </trkpt>
      <trkpt lat="42.38539" lon="2.72131">
        <ele>450.2</ele>
        <time>2022-05-21 16:52:01</time>
      </trkpt>
      <trkpt lat="42.38545" lon="2.72126">
        <ele>450</ele>
        <time>2022-05-21 16:52:02</time>
      </trkpt>
      <trkpt lat="42.38551" lon="2.72121">
        <ele>450</ele>
        <time>2022-05-21 16:52:03</time>
      </trkpt>
      <trkpt lat="42.38557" lon="2.72116">
        <ele>450</ele>
        <time>2022-05-21 16:52:04</time>
      </trkpt>
      <trkpt lat="42.38562" lon="2.72112">
        <ele>450</ele>
        <time>2022-05-21 16:52:05</time>
      </trkpt>
      <trkpt lat="42.38568" lon="2.72107">
        <ele>450</ele>
        <time>2022-05-21 16:52:06</time>
      </trkpt>
      <trkpt lat="42.38574" lon="2.72102">
        <ele>449.8</ele>
        <time>2022-05-21 16:52:07</time>
      </trkpt>
      <trkpt lat="42.3858" lon="2.72097">
        <ele>449.8</ele>
        <time>2022-05-21 16:52:08</time>
      </trkpt>
      <trkpt lat="42.38585" lon="2.72092">
        <ele>449.8</ele>
        <time>2022-05-21 16:52:09</time>
      </trkpt>
      <trkpt lat="42.38591" lon="2.72087">
        <ele>449.8</ele>
        <time>2022-05-21 16:52:10</time>
      </trkpt>
      <trkpt lat="42.38597" lon="2.72083">
        <ele>449.8</ele>
        <time>2022-05-21 16:52:11</time>
      </trkpt>
      <trkpt lat="42.38603" lon="2.72078">
        <ele>449.8</ele>
        <time>2022-05-21 16:52:12</time>
      </trkpt>
      <trkpt lat="42.38609" lon="2.72073">
        <ele>449.8</ele>
        <time>2022-05-21 16:52:13</time>
      </trkpt>
      <trkpt lat="42.38614" lon="2.72069">
        <ele>449.8</ele>
        <time>2022-05-21 16:52:14</time>
      </trkpt>
      <trkpt lat="42.38619" lon="2.72064">
        <ele>449.8</ele>
        <time>2022-05-21 16:52:15</time>
      </trkpt>
      <trkpt lat="42.38625" lon="2.72058">
        <ele>449.8</ele>
        <time>2022-05-21 16:52:16</time>
      </trkpt>
      <trkpt lat="42.3863" lon="2.72053">
        <ele>449.8</ele>
        <time>2022-05-21 16:52:17</time>
      </trkpt>
      <trkpt lat="42.38634" lon="2.72047">
        <ele>449.8</ele>
        <time>2022-05-21 16:52:18</time>
      </trkpt>
      <trkpt lat="42.38638" lon="2.72041">
        <ele>449.6</ele>
        <time>2022-05-21 16:52:19</time>
      </trkpt>
      <trkpt lat="42.38642" lon="2.72033">
        <ele>449.6</ele>
        <time>2022-05-21 16:52:20</time>
      </trkpt>
      <trkpt lat="42.38645" lon="2.72025">
        <ele>449.6</ele>
        <time>2022-05-21 16:52:21</time>
      </trkpt>
      <trkpt lat="42.38647" lon="2.72017">
        <ele>449.6</ele>
        <time>2022-05-21 16:52:22</time>
      </trkpt>
      <trkpt lat="42.38648" lon="2.72009">
        <ele>449.6</ele>
        <time>2022-05-21 16:52:23</time>
      </trkpt>
      <trkpt lat="42.38649" lon="2.72">
        <ele>449.6</ele>
        <time>2022-05-21 16:52:24</time>
      </trkpt>
      <trkpt lat="42.38649" lon="2.71991">
        <ele>449.4</ele>
        <time>2022-05-21 16:52:25</time>
      </trkpt>
      <trkpt lat="42.38648" lon="2.71982">
        <ele>449.4</ele>
        <time>2022-05-21 16:52:26</time>
      </trkpt>
      <trkpt lat="42.38646" lon="2.71974">
        <ele>449.4</ele>
        <time>2022-05-21 16:52:27</time>
      </trkpt>
      <trkpt lat="42.38643" lon="2.71966">
        <ele>449.4</ele>
        <time>2022-05-21 16:52:28</time>
      </trkpt>
      <trkpt lat="42.3864" lon="2.71958">
        <ele>449.4</ele>
        <time>2022-05-21 16:52:29</time>
      </trkpt>
      <trkpt lat="42.38638" lon="2.7195">
        <ele>449.4</ele>
        <time>2022-05-21 16:52:30</time>
      </trkpt>
      <trkpt lat="42.38635" lon="2.71942">
        <ele>449.4</ele>
        <time>2022-05-21 16:52:31</time>
      </trkpt>
      <trkpt lat="42.38633" lon="2.71934">
        <ele>449.4</ele>
        <time>2022-05-21 16:52:32</time>
      </trkpt>
      <trkpt lat="42.38632" lon="2.71925">
        <ele>449.4</ele>
        <time>2022-05-21 16:52:33</time>
      </trkpt>
      <trkpt lat="42.38631" lon="2.71916">
        <ele>449.4</ele>
        <time>2022-05-21 16:52:34</time>
      </trkpt>
      <trkpt lat="42.38631" lon="2.71907">
        <ele>449.4</ele>
        <time>2022-05-21 16:52:35</time>
      </trkpt>
      <trkpt lat="42.38631" lon="2.71898">
        <ele>449.4</ele>
        <time>2022-05-21 16:52:36</time>
      </trkpt>
      <trkpt lat="42.38632" lon="2.71889">
        <ele>449.4</ele>
        <time>2022-05-21 16:52:37</time>
      </trkpt>
      <trkpt lat="42.38633" lon="2.71881">
        <ele>449.4</ele>
        <time>2022-05-21 16:52:38</time>
      </trkpt>
      <trkpt lat="42.38634" lon="2.71872">
        <ele>449.4</ele>
        <time>2022-05-21 16:52:39</time>
      </trkpt>
      <trkpt lat="42.38634" lon="2.71864">
        <ele>449.4</ele>
        <time>2022-05-21 16:52:40</time>
      </trkpt>
      <trkpt lat="42.38635" lon="2.71855">
        <ele>449.4</ele>
        <time>2022-05-21 16:52:41</time>
      </trkpt>
      <trkpt lat="42.38636" lon="2.71847">
        <ele>449.4</ele>
        <time>2022-05-21 16:52:42</time>
      </trkpt>
      <trkpt lat="42.38636" lon="2.71839">
        <ele>449.4</ele>
        <time>2022-05-21 16:52:43</time>
      </trkpt>
      <trkpt lat="42.38637" lon="2.7183">
        <ele>449.6</ele>
        <time>2022-05-21 16:52:44</time>
      </trkpt>
      <trkpt lat="42.38637" lon="2.71822">
        <ele>449.8</ele>
        <time>2022-05-21 16:52:45</time>
      </trkpt>
      <trkpt lat="42.38637" lon="2.71815">
        <ele>449.8</ele>
        <time>2022-05-21 16:52:46</time>
      </trkpt>
      <trkpt lat="42.38637" lon="2.71808">
        <ele>450</ele>
        <time>2022-05-21 16:52:47</time>
      </trkpt>
      <trkpt lat="42.38637" lon="2.718">
        <ele>450.2</ele>
        <time>2022-05-21 16:52:48</time>
      </trkpt>
      <trkpt lat="42.38636" lon="2.71793">
        <ele>450.4</ele>
        <time>2022-05-21 16:52:49</time>
      </trkpt>
      <trkpt lat="42.38636" lon="2.71787">
        <ele>450.6</ele>
        <time>2022-05-21 16:52:50</time>
      </trkpt>
      <trkpt lat="42.38635" lon="2.71781">
        <ele>450.8</ele>
        <time>2022-05-21 16:52:51</time>
      </trkpt>
      <trkpt lat="42.38634" lon="2.71774">
        <ele>451</ele>
        <time>2022-05-21 16:52:52</time>
      </trkpt>
      <trkpt lat="42.38632" lon="2.71769">
        <ele>451.2</ele>
        <time>2022-05-21 16:52:53</time>
      </trkpt>
      <trkpt lat="42.38631" lon="2.71763">
        <ele>451.4</ele>
        <time>2022-05-21 16:52:54</time>
      </trkpt>
      <trkpt lat="42.38629" lon="2.71759">
        <ele>451.6</ele>
        <time>2022-05-21 16:52:55</time>
      </trkpt>
      <trkpt lat="42.38627" lon="2.71754">
        <ele>451.8</ele>
        <time>2022-05-21 16:52:56</time>
      </trkpt>
      <trkpt lat="42.38626" lon="2.71749">
        <ele>452</ele>
        <time>2022-05-21 16:52:57</time>
      </trkpt>
      <trkpt lat="42.38624" lon="2.71745">
        <ele>452.2</ele>
        <time>2022-05-21 16:52:58</time>
      </trkpt>
      <trkpt lat="42.38623" lon="2.71741">
        <ele>452.6</ele>
        <time>2022-05-21 16:52:59</time>
      </trkpt>
      <trkpt lat="42.38621" lon="2.71737">
        <ele>452.8</ele>
        <time>2022-05-21 16:53:00</time>
      </trkpt>
      <trkpt lat="42.38619" lon="2.71734">
        <ele>453</ele>
        <time>2022-05-21 16:53:01</time>
      </trkpt>
      <trkpt lat="42.38618" lon="2.71731">
        <ele>453.2</ele>
        <time>2022-05-21 16:53:02</time>
      </trkpt>
      <trkpt lat="42.38616" lon="2.71727">
        <ele>453.4</ele>
        <time>2022-05-21 16:53:03</time>
      </trkpt>
      <trkpt lat="42.38614" lon="2.71724">
        <ele>453.6</ele>
        <time>2022-05-21 16:53:04</time>
      </trkpt>
      <trkpt lat="42.38612" lon="2.71721">
        <ele>453.8</ele>
        <time>2022-05-21 16:53:05</time>
      </trkpt>
      <trkpt lat="42.3861" lon="2.71718">
        <ele>454</ele>
        <time>2022-05-21 16:53:06</time>
      </trkpt>
      <trkpt lat="42.38608" lon="2.71715">
        <ele>454.2</ele>
        <time>2022-05-21 16:53:07</time>
      </trkpt>
      <trkpt lat="42.38606" lon="2.71713">
        <ele>454.4</ele>
        <time>2022-05-21 16:53:08</time>
      </trkpt>
      <trkpt lat="42.38604" lon="2.7171">
        <ele>454.6</ele>
        <time>2022-05-21 16:53:09</time>
      </trkpt>
      <trkpt lat="42.38601" lon="2.71708">
        <ele>454.8</ele>
        <time>2022-05-21 16:53:10</time>
      </trkpt>
      <trkpt lat="42.38599" lon="2.71705">
        <ele>455</ele>
        <time>2022-05-21 16:53:11</time>
      </trkpt>
      <trkpt lat="42.38597" lon="2.71703">
        <ele>455.2</ele>
        <time>2022-05-21 16:53:12</time>
      </trkpt>
      <trkpt lat="42.38596" lon="2.71701">
        <ele>455.4</ele>
        <time>2022-05-21 16:53:13</time>
      </trkpt>
      <trkpt lat="42.38594" lon="2.71699">
        <ele>455.6</ele>
        <time>2022-05-21 16:53:14</time>
      </trkpt>
      <trkpt lat="42.38592" lon="2.71697">
        <ele>455.8</ele>
        <time>2022-05-21 16:53:15</time>
      </trkpt>
      <trkpt lat="42.3859" lon="2.71695">
        <ele>456</ele>
        <time>2022-05-21 16:53:16</time>
      </trkpt>
      <trkpt lat="42.38589" lon="2.71693">
        <ele>456.2</ele>
        <time>2022-05-21 16:53:17</time>
      </trkpt>
      <trkpt lat="42.38587" lon="2.71691">
        <ele>456.2</ele>
        <time>2022-05-21 16:53:18</time>
      </trkpt>
      <trkpt lat="42.38585" lon="2.71689">
        <ele>456.4</ele>
        <time>2022-05-21 16:53:19</time>
      </trkpt>
      <trkpt lat="42.38584" lon="2.71687">
        <ele>456.6</ele>
        <time>2022-05-21 16:53:20</time>
      </trkpt>
      <trkpt lat="42.38582" lon="2.71685">
        <ele>456.8</ele>
        <time>2022-05-21 16:53:21</time>
      </trkpt>
      <trkpt lat="42.38581" lon="2.71684">
        <ele>457</ele>
        <time>2022-05-21 16:53:22</time>
      </trkpt>
      <trkpt lat="42.38579" lon="2.71682">
        <ele>457.2</ele>
        <time>2022-05-21 16:53:23</time>
      </trkpt>
      <trkpt lat="42.38577" lon="2.7168">
        <ele>457.4</ele>
        <time>2022-05-21 16:53:24</time>
      </trkpt>
      <trkpt lat="42.38576" lon="2.71679">
        <ele>457.6</ele>
        <time>2022-05-21 16:53:25</time>
      </trkpt>
      <trkpt lat="42.38574" lon="2.71677">
        <ele>457.8</ele>
        <time>2022-05-21 16:53:26</time>
      </trkpt>
      <trkpt lat="42.38572" lon="2.71675">
        <ele>457.8</ele>
        <time>2022-05-21 16:53:27</time>
      </trkpt>
      <trkpt lat="42.3857" lon="2.71673">
        <ele>458</ele>
        <time>2022-05-21 16:53:28</time>
      </trkpt>
      <trkpt lat="42.38569" lon="2.71671">
        <ele>458.2</ele>
        <time>2022-05-21 16:53:29</time>
      </trkpt>
      <trkpt lat="42.38567" lon="2.7167">
        <ele>458.4</ele>
        <time>2022-05-21 16:53:30</time>
      </trkpt>
      <trkpt lat="42.38565" lon="2.71668">
        <ele>458.6</ele>
        <time>2022-05-21 16:53:31</time>
      </trkpt>
      <trkpt lat="42.38564" lon="2.71667">
        <ele>458.8</ele>
        <time>2022-05-21 16:53:32</time>
      </trkpt>
      <trkpt lat="42.38562" lon="2.71665">
        <ele>458.8</ele>
        <time>2022-05-21 16:53:33</time>
      </trkpt>
      <trkpt lat="42.3856" lon="2.71663">
        <ele>459</ele>
        <time>2022-05-21 16:53:34</time>
      </trkpt>
      <trkpt lat="42.38559" lon="2.71662">
        <ele>459.2</ele>
        <time>2022-05-21 16:53:35</time>
      </trkpt>
      <trkpt lat="42.38557" lon="2.7166">
        <ele>459.4</ele>
        <time>2022-05-21 16:53:36</time>
      </trkpt>
      <trkpt lat="42.38555" lon="2.71659">
        <ele>459.4</ele>
        <time>2022-05-21 16:53:37</time>
      </trkpt>
      <trkpt lat="42.38554" lon="2.71657">
        <ele>459.6</ele>
        <time>2022-05-21 16:53:38</time>
      </trkpt>
      <trkpt lat="42.38552" lon="2.71655">
        <ele>459.8</ele>
        <time>2022-05-21 16:53:39</time>
      </trkpt>
      <trkpt lat="42.3855" lon="2.71654">
        <ele>460</ele>
        <time>2022-05-21 16:53:40</time>
      </trkpt>
      <trkpt lat="42.38549" lon="2.71652">
        <ele>460.2</ele>
        <time>2022-05-21 16:53:41</time>
      </trkpt>
      <trkpt lat="42.38547" lon="2.7165">
        <ele>460.2</ele>
        <time>2022-05-21 16:53:42</time>
      </trkpt>
      <trkpt lat="42.38545" lon="2.71649">
        <ele>460.4</ele>
        <time>2022-05-21 16:53:43</time>
      </trkpt>
      <trkpt lat="42.38544" lon="2.71647">
        <ele>460.6</ele>
        <time>2022-05-21 16:53:44</time>
      </trkpt>
      <trkpt lat="42.38542" lon="2.71645">
        <ele>460.6</ele>
        <time>2022-05-21 16:53:45</time>
      </trkpt>
      <trkpt lat="42.38541" lon="2.71643">
        <ele>460.8</ele>
        <time>2022-05-21 16:53:46</time>
      </trkpt>
      <trkpt lat="42.38539" lon="2.71641">
        <ele>461</ele>
        <time>2022-05-21 16:53:47</time>
      </trkpt>
      <trkpt lat="42.38538" lon="2.71639">
        <ele>461.2</ele>
        <time>2022-05-21 16:53:48</time>
      </trkpt>
      <trkpt lat="42.38536" lon="2.71637">
        <ele>461.2</ele>
        <time>2022-05-21 16:53:49</time>
      </trkpt>
      <trkpt lat="42.38535" lon="2.71635">
        <ele>461.4</ele>
        <time>2022-05-21 16:53:50</time>
      </trkpt>
      <trkpt lat="42.38533" lon="2.71633">
        <ele>461.6</ele>
        <time>2022-05-21 16:53:51</time>
      </trkpt>
      <trkpt lat="42.38531" lon="2.71631">
        <ele>461.8</ele>
        <time>2022-05-21 16:53:52</time>
      </trkpt>
      <trkpt lat="42.3853" lon="2.71629">
        <ele>462</ele>
        <time>2022-05-21 16:53:53</time>
      </trkpt>
      <trkpt lat="42.38528" lon="2.71627">
        <ele>462.2</ele>
        <time>2022-05-21 16:53:54</time>
      </trkpt>
      <trkpt lat="42.38527" lon="2.71625">
        <ele>462.4</ele>
        <time>2022-05-21 16:53:55</time>
      </trkpt>
      <trkpt lat="42.38525" lon="2.71623">
        <ele>462.4</ele>
        <time>2022-05-21 16:53:56</time>
      </trkpt>
      <trkpt lat="42.38524" lon="2.71621">
        <ele>462.6</ele>
        <time>2022-05-21 16:53:57</time>
      </trkpt>
      <trkpt lat="42.38523" lon="2.71619">
        <ele>462.8</ele>
        <time>2022-05-21 16:53:58</time>
      </trkpt>
      <trkpt lat="42.38521" lon="2.71617">
        <ele>463</ele>
        <time>2022-05-21 16:53:59</time>
      </trkpt>
      <trkpt lat="42.3852" lon="2.71614">
        <ele>463.2</ele>
        <time>2022-05-21 16:54:00</time>
      </trkpt>
      <trkpt lat="42.38518" lon="2.71612">
        <ele>463.4</ele>
        <time>2022-05-21 16:54:01</time>
      </trkpt>
      <trkpt lat="42.38517" lon="2.7161">
        <ele>463.4</ele>
        <time>2022-05-21 16:54:02</time>
      </trkpt>
      <trkpt lat="42.38516" lon="2.71608">
        <ele>463.6</ele>
        <time>2022-05-21 16:54:03</time>
      </trkpt>
      <trkpt lat="42.38515" lon="2.71606">
        <ele>463.8</ele>
        <time>2022-05-21 16:54:04</time>
      </trkpt>
      <trkpt lat="42.38514" lon="2.71603">
        <ele>464</ele>
        <time>2022-05-21 16:54:05</time>
      </trkpt>
      <trkpt lat="42.38513" lon="2.71601">
        <ele>464.2</ele>
        <time>2022-05-21 16:54:06</time>
      </trkpt>
      <trkpt lat="42.38512" lon="2.71599">
        <ele>464.4</ele>
        <time>2022-05-21 16:54:07</time>
      </trkpt>
      <trkpt lat="42.38511" lon="2.71596">
        <ele>464.4</ele>
        <time>2022-05-21 16:54:08</time>
      </trkpt>
      <trkpt lat="42.3851" lon="2.71594">
        <ele>464.6</ele>
        <time>2022-05-21 16:54:09</time>
      </trkpt>
      <trkpt lat="42.38509" lon="2.71592">
        <ele>464.8</ele>
        <time>2022-05-21 16:54:10</time>
      </trkpt>
      <trkpt lat="42.38508" lon="2.7159">
        <ele>465</ele>
        <time>2022-05-21 16:54:11</time>
      </trkpt>
      <trkpt lat="42.38508" lon="2.71588">
        <ele>465.2</ele>
        <time>2022-05-21 16:54:12</time>
      </trkpt>
      <trkpt lat="42.38507" lon="2.71586">
        <ele>465.2</ele>
        <time>2022-05-21 16:54:13</time>
      </trkpt>
      <trkpt lat="42.38506" lon="2.71584">
        <ele>465.4</ele>
        <time>2022-05-21 16:54:14</time>
      </trkpt>
      <trkpt lat="42.38505" lon="2.71582">
        <ele>465.6</ele>
        <time>2022-05-21 16:54:15</time>
      </trkpt>
      <trkpt lat="42.38504" lon="2.7158">
        <ele>465.8</ele>
        <time>2022-05-21 16:54:16</time>
      </trkpt>
      <trkpt lat="42.38504" lon="2.71578">
        <ele>465.8</ele>
        <time>2022-05-21 16:54:17</time>
      </trkpt>
      <trkpt lat="42.38503" lon="2.71575">
        <ele>466</ele>
        <time>2022-05-21 16:54:18</time>
      </trkpt>
      <trkpt lat="42.38502" lon="2.71573">
        <ele>466.2</ele>
        <time>2022-05-21 16:54:19</time>
      </trkpt>
      <trkpt lat="42.38501" lon="2.71571">
        <ele>466.4</ele>
        <time>2022-05-21 16:54:20</time>
      </trkpt>
      <trkpt lat="42.38501" lon="2.71569">
        <ele>466.4</ele>
        <time>2022-05-21 16:54:21</time>
      </trkpt>
      <trkpt lat="42.385" lon="2.71567">
        <ele>466.6</ele>
        <time>2022-05-21 16:54:22</time>
      </trkpt>
      <trkpt lat="42.38499" lon="2.71565">
        <ele>466.8</ele>
        <time>2022-05-21 16:54:23</time>
      </trkpt>
      <trkpt lat="42.38498" lon="2.71563">
        <ele>467</ele>
        <time>2022-05-21 16:54:24</time>
      </trkpt>
      <trkpt lat="42.38498" lon="2.71561">
        <ele>467</ele>
        <time>2022-05-21 16:54:25</time>
      </trkpt>
      <trkpt lat="42.38497" lon="2.71559">
        <ele>467.2</ele>
        <time>2022-05-21 16:54:26</time>
      </trkpt>
      <trkpt lat="42.38497" lon="2.71556">
        <ele>467.4</ele>
        <time>2022-05-21 16:54:27</time>
      </trkpt>
      <trkpt lat="42.38496" lon="2.71554">
        <ele>467.6</ele>
        <time>2022-05-21 16:54:28</time>
      </trkpt>
      <trkpt lat="42.38496" lon="2.71551">
        <ele>467.6</ele>
        <time>2022-05-21 16:54:29</time>
      </trkpt>
      <trkpt lat="42.38495" lon="2.71549">
        <ele>467.8</ele>
        <time>2022-05-21 16:54:30</time>
      </trkpt>
      <trkpt lat="42.38495" lon="2.71547">
        <ele>468</ele>
        <time>2022-05-21 16:54:31</time>
      </trkpt>
      <trkpt lat="42.38494" lon="2.71544">
        <ele>468.2</ele>
        <time>2022-05-21 16:54:32</time>
      </trkpt>
      <trkpt lat="42.38494" lon="2.71542">
        <ele>468.2</ele>
        <time>2022-05-21 16:54:33</time>
      </trkpt>
      <trkpt lat="42.38493" lon="2.7154">
        <ele>468.4</ele>
        <time>2022-05-21 16:54:34</time>
      </trkpt>
      <trkpt lat="42.38493" lon="2.71537">
        <ele>468.6</ele>
        <time>2022-05-21 16:54:35</time>
      </trkpt>
      <trkpt lat="42.38493" lon="2.71535">
        <ele>468.8</ele>
        <time>2022-05-21 16:54:36</time>
      </trkpt>
      <trkpt lat="42.38492" lon="2.71532">
        <ele>468.8</ele>
        <time>2022-05-21 16:54:37</time>
      </trkpt>
      <trkpt lat="42.38492" lon="2.7153">
        <ele>469</ele>
        <time>2022-05-21 16:54:38</time>
      </trkpt>
      <trkpt lat="42.38491" lon="2.71527">
        <ele>469.2</ele>
        <time>2022-05-21 16:54:39</time>
      </trkpt>
      <trkpt lat="42.38491" lon="2.71525">
        <ele>469.4</ele>
        <time>2022-05-21 16:54:40</time>
      </trkpt>
      <trkpt lat="42.38491" lon="2.71522">
        <ele>469.4</ele>
        <time>2022-05-21 16:54:41</time>
      </trkpt>
      <trkpt lat="42.38491" lon="2.71519">
        <ele>469.6</ele>
        <time>2022-05-21 16:54:42</time>
      </trkpt>
      <trkpt lat="42.38491" lon="2.71517">
        <ele>469.8</ele>
        <time>2022-05-21 16:54:43</time>
      </trkpt>
      <trkpt lat="42.3849" lon="2.71514">
        <ele>469.8</ele>
        <time>2022-05-21 16:54:44</time>
      </trkpt>
      <trkpt lat="42.3849" lon="2.71511">
        <ele>470</ele>
        <time>2022-05-21 16:54:45</time>
      </trkpt>
      <trkpt lat="42.3849" lon="2.71509">
        <ele>470.2</ele>
        <time>2022-05-21 16:54:46</time>
      </trkpt>
      <trkpt lat="42.3849" lon="2.71507">
        <ele>470.4</ele>
        <time>2022-05-21 16:54:47</time>
      </trkpt>
      <trkpt lat="42.3849" lon="2.71504">
        <ele>470.4</ele>
        <time>2022-05-21 16:54:48</time>
      </trkpt>
      <trkpt lat="42.38489" lon="2.71502">
        <ele>470.6</ele>
        <time>2022-05-21 16:54:49</time>
      </trkpt>
      <trkpt lat="42.38489" lon="2.71499">
        <ele>470.8</ele>
        <time>2022-05-21 16:54:50</time>
      </trkpt>
      <trkpt lat="42.38489" lon="2.71497">
        <ele>471</ele>
        <time>2022-05-21 16:54:51</time>
      </trkpt>
      <trkpt lat="42.38489" lon="2.71494">
        <ele>471</ele>
        <time>2022-05-21 16:54:52</time>
      </trkpt>
      <trkpt lat="42.38489" lon="2.71492">
        <ele>471.2</ele>
        <time>2022-05-21 16:54:53</time>
      </trkpt>
      <trkpt lat="42.38488" lon="2.71489">
        <ele>471.4</ele>
        <time>2022-05-21 16:54:54</time>
      </trkpt>
      <trkpt lat="42.38488" lon="2.71487">
        <ele>471.6</ele>
        <time>2022-05-21 16:54:55</time>
      </trkpt>
      <trkpt lat="42.38488" lon="2.71484">
        <ele>471.8</ele>
        <time>2022-05-21 16:54:56</time>
      </trkpt>
      <trkpt lat="42.38488" lon="2.71482">
        <ele>471.8</ele>
        <time>2022-05-21 16:54:57</time>
      </trkpt>
      <trkpt lat="42.38488" lon="2.71479">
        <ele>472</ele>
        <time>2022-05-21 16:54:58</time>
      </trkpt>
      <trkpt lat="42.38488" lon="2.71477">
        <ele>472.2</ele>
        <time>2022-05-21 16:54:59</time>
      </trkpt>
      <trkpt lat="42.38488" lon="2.71474">
        <ele>472.4</ele>
        <time>2022-05-21 16:55:00</time>
      </trkpt>
      <trkpt lat="42.38487" lon="2.71472">
        <ele>472.4</ele>
        <time>2022-05-21 16:55:01</time>
      </trkpt>
      <trkpt lat="42.38487" lon="2.71469">
        <ele>472.6</ele>
        <time>2022-05-21 16:55:02</time>
      </trkpt>
      <trkpt lat="42.38487" lon="2.71467">
        <ele>472.8</ele>
        <time>2022-05-21 16:55:03</time>
      </trkpt>
      <trkpt lat="42.38487" lon="2.71464">
        <ele>473</ele>
        <time>2022-05-21 16:55:04</time>
      </trkpt>
      <trkpt lat="42.38487" lon="2.71461">
        <ele>473</ele>
        <time>2022-05-21 16:55:05</time>
      </trkpt>
      <trkpt lat="42.38486" lon="2.71458">
        <ele>473.2</ele>
        <time>2022-05-21 16:55:06</time>
      </trkpt>
      <trkpt lat="42.38486" lon="2.71456">
        <ele>473.4</ele>
        <time>2022-05-21 16:55:07</time>
      </trkpt>
      <trkpt lat="42.38486" lon="2.71453">
        <ele>473.6</ele>
        <time>2022-05-21 16:55:08</time>
      </trkpt>
      <trkpt lat="42.38486" lon="2.71451">
        <ele>473.6</ele>
        <time>2022-05-21 16:55:09</time>
      </trkpt>
      <trkpt lat="42.38485" lon="2.71448">
        <ele>473.8</ele>
        <time>2022-05-21 16:55:10</time>
      </trkpt>
      <trkpt lat="42.38485" lon="2.71446">
        <ele>474</ele>
        <time>2022-05-21 16:55:11</time>
      </trkpt>
      <trkpt lat="42.38485" lon="2.71443">
        <ele>474</ele>
        <time>2022-05-21 16:55:12</time>
      </trkpt>
      <trkpt lat="42.38485" lon="2.71441">
        <ele>474.2</ele>
        <time>2022-05-21 16:55:13</time>
      </trkpt>
      <trkpt lat="42.38484" lon="2.71438">
        <ele>474.4</ele>
        <time>2022-05-21 16:55:14</time>
      </trkpt>
      <trkpt lat="42.38484" lon="2.71436">
        <ele>474.6</ele>
        <time>2022-05-21 16:55:15</time>
      </trkpt>
      <trkpt lat="42.38484" lon="2.71433">
        <ele>474.6</ele>
        <time>2022-05-21 16:55:16</time>
      </trkpt>
      <trkpt lat="42.38484" lon="2.71431">
        <ele>474.8</ele>
        <time>2022-05-21 16:55:17</time>
      </trkpt>
      <trkpt lat="42.38484" lon="2.71428">
        <ele>475</ele>
        <time>2022-05-21 16:55:18</time>
      </trkpt>
      <trkpt lat="42.38483" lon="2.71425">
        <ele>475.2</ele>
        <time>2022-05-21 16:55:19</time>
      </trkpt>
      <trkpt lat="42.38483" lon="2.71422">
        <ele>475.2</ele>
        <time>2022-05-21 16:55:20</time>
      </trkpt>
      <trkpt lat="42.38483" lon="2.7142">
        <ele>475.4</ele>
        <time>2022-05-21 16:55:21</time>
      </trkpt>
      <trkpt lat="42.38483" lon="2.71417">
        <ele>475.6</ele>
        <time>2022-05-21 16:55:22</time>
      </trkpt>
      <trkpt lat="42.38482" lon="2.71415">
        <ele>475.6</ele>
        <time>2022-05-21 16:55:23</time>
      </trkpt>
      <trkpt lat="42.38482" lon="2.71412">
        <ele>475.8</ele>
        <time>2022-05-21 16:55:24</time>
      </trkpt>
      <trkpt lat="42.38482" lon="2.7141">
        <ele>475.8</ele>
        <time>2022-05-21 16:55:25</time>
      </trkpt>
      <trkpt lat="42.38481" lon="2.71407">
        <ele>476</ele>
        <time>2022-05-21 16:55:26</time>
      </trkpt>
      <trkpt lat="42.38481" lon="2.71405">
        <ele>476.2</ele>
        <time>2022-05-21 16:55:27</time>
      </trkpt>
      <trkpt lat="42.3848" lon="2.71402">
        <ele>476.2</ele>
        <time>2022-05-21 16:55:28</time>
      </trkpt>
      <trkpt lat="42.3848" lon="2.71399">
        <ele>476.4</ele>
        <time>2022-05-21 16:55:29</time>
      </trkpt>
      <trkpt lat="42.3848" lon="2.71396">
        <ele>476.4</ele>
        <time>2022-05-21 16:55:30</time>
      </trkpt>
      <trkpt lat="42.38479" lon="2.71393">
        <ele>476.6</ele>
        <time>2022-05-21 16:55:31</time>
      </trkpt>
      <trkpt lat="42.38479" lon="2.71389">
        <ele>476.6</ele>
        <time>2022-05-21 16:55:32</time>
      </trkpt>
      <trkpt lat="42.38479" lon="2.71385">
        <ele>476.8</ele>
        <time>2022-05-21 16:55:33</time>
      </trkpt>
      <trkpt lat="42.38478" lon="2.71381">
        <ele>476.8</ele>
        <time>2022-05-21 16:55:34</time>
      </trkpt>
      <trkpt lat="42.38478" lon="2.71378">
        <ele>477</ele>
        <time>2022-05-21 16:55:35</time>
      </trkpt>
      <trkpt lat="42.38478" lon="2.71374">
        <ele>477</ele>
        <time>2022-05-21 16:55:36</time>
      </trkpt>
      <trkpt lat="42.38477" lon="2.71371">
        <ele>477.2</ele>
        <time>2022-05-21 16:55:37</time>
      </trkpt>
      <trkpt lat="42.38477" lon="2.71367">
        <ele>477.2</ele>
        <time>2022-05-21 16:55:38</time>
      </trkpt>
      <trkpt lat="42.38477" lon="2.71364">
        <ele>477.4</ele>
        <time>2022-05-21 16:55:39</time>
      </trkpt>
      <trkpt lat="42.38477" lon="2.71361">
        <ele>477.4</ele>
        <time>2022-05-21 16:55:40</time>
      </trkpt>
      <trkpt lat="42.38476" lon="2.71357">
        <ele>477.6</ele>
        <time>2022-05-21 16:55:41</time>
      </trkpt>
      <trkpt lat="42.38476" lon="2.71353">
        <ele>477.6</ele>
        <time>2022-05-21 16:55:42</time>
      </trkpt>
      <trkpt lat="42.38476" lon="2.7135">
        <ele>477.8</ele>
        <time>2022-05-21 16:55:43</time>
      </trkpt>
      <trkpt lat="42.38476" lon="2.71346">
        <ele>477.8</ele>
        <time>2022-05-21 16:55:44</time>
      </trkpt>
      <trkpt lat="42.38476" lon="2.71342">
        <ele>477.8</ele>
        <time>2022-05-21 16:55:45</time>
      </trkpt>
      <trkpt lat="42.38476" lon="2.71338">
        <ele>478</ele>
        <time>2022-05-21 16:55:46</time>
      </trkpt>
      <trkpt lat="42.38476" lon="2.71334">
        <ele>478</ele>
        <time>2022-05-21 16:55:47</time>
      </trkpt>
      <trkpt lat="42.38476" lon="2.7133">
        <ele>478</ele>
        <time>2022-05-21 16:55:48</time>
      </trkpt>
      <trkpt lat="42.38477" lon="2.71326">
        <ele>478</ele>
        <time>2022-05-21 16:55:49</time>
      </trkpt>
      <trkpt lat="42.38477" lon="2.71322">
        <ele>478.2</ele>
        <time>2022-05-21 16:55:50</time>
      </trkpt>
      <trkpt lat="42.38477" lon="2.71317">
        <ele>478.2</ele>
        <time>2022-05-21 16:55:51</time>
      </trkpt>
      <trkpt lat="42.38478" lon="2.71313">
        <ele>478.2</ele>
        <time>2022-05-21 16:55:52</time>
      </trkpt>
      <trkpt lat="42.3848" lon="2.71308">
        <ele>478.2</ele>
        <time>2022-05-21 16:55:53</time>
      </trkpt>
      <trkpt lat="42.38481" lon="2.71303">
        <ele>478.2</ele>
        <time>2022-05-21 16:55:54</time>
      </trkpt>
      <trkpt lat="42.38483" lon="2.71298">
        <ele>478.2</ele>
        <time>2022-05-21 16:55:55</time>
      </trkpt>
      <trkpt lat="42.38484" lon="2.71293">
        <ele>478.2</ele>
        <time>2022-05-21 16:55:56</time>
      </trkpt>
      <trkpt lat="42.38486" lon="2.71287">
        <ele>478.2</ele>
        <time>2022-05-21 16:55:57</time>
      </trkpt>
      <trkpt lat="42.38489" lon="2.71282">
        <ele>478.2</ele>
        <time>2022-05-21 16:55:58</time>
      </trkpt>
      <trkpt lat="42.38492" lon="2.71276">
        <ele>478</ele>
        <time>2022-05-21 16:55:59</time>
      </trkpt>
      <trkpt lat="42.38494" lon="2.71271">
        <ele>478</ele>
        <time>2022-05-21 16:56:00</time>
      </trkpt>
      <trkpt lat="42.38497" lon="2.71265">
        <ele>477.8</ele>
        <time>2022-05-21 16:56:01</time>
      </trkpt>
      <trkpt lat="42.38501" lon="2.7126">
        <ele>477.8</ele>
        <time>2022-05-21 16:56:02</time>
      </trkpt>
      <trkpt lat="42.38504" lon="2.71255">
        <ele>477.6</ele>
        <time>2022-05-21 16:56:03</time>
      </trkpt>
      <trkpt lat="42.38509" lon="2.71249">
        <ele>477.4</ele>
        <time>2022-05-21 16:56:04</time>
      </trkpt>
      <trkpt lat="42.38513" lon="2.71244">
        <ele>477.4</ele>
        <time>2022-05-21 16:56:05</time>
      </trkpt>
      <trkpt lat="42.38518" lon="2.71239">
        <ele>477.2</ele>
        <time>2022-05-21 16:56:06</time>
      </trkpt>
      <trkpt lat="42.38523" lon="2.71234">
        <ele>477</ele>
        <time>2022-05-21 16:56:07</time>
      </trkpt>
      <trkpt lat="42.38528" lon="2.71229">
        <ele>476.8</ele>
        <time>2022-05-21 16:56:08</time>
      </trkpt>
      <trkpt lat="42.38533" lon="2.71223">
        <ele>476.6</ele>
        <time>2022-05-21 16:56:09</time>
      </trkpt>
      <trkpt lat="42.38538" lon="2.71218">
        <ele>476.4</ele>
        <time>2022-05-21 16:56:10</time>
      </trkpt>
      <trkpt lat="42.38543" lon="2.71212">
        <ele>476.2</ele>
        <time>2022-05-21 16:56:11</time>
      </trkpt>
      <trkpt lat="42.38548" lon="2.71207">
        <ele>476</ele>
        <time>2022-05-21 16:56:12</time>
      </trkpt>
      <trkpt lat="42.38554" lon="2.71201">
        <ele>475.6</ele>
        <time>2022-05-21 16:56:13</time>
      </trkpt>
      <trkpt lat="42.38559" lon="2.71195">
        <ele>475.4</ele>
        <time>2022-05-21 16:56:14</time>
      </trkpt>
      <trkpt lat="42.38565" lon="2.71189">
        <ele>475</ele>
        <time>2022-05-21 16:56:15</time>
      </trkpt>
      <trkpt lat="42.38571" lon="2.71182">
        <ele>474.8</ele>
        <time>2022-05-21 16:56:16</time>
      </trkpt>
      <trkpt lat="42.38577" lon="2.71175">
        <ele>474.4</ele>
        <time>2022-05-21 16:56:17</time>
      </trkpt>
      <trkpt lat="42.38583" lon="2.71167">
        <ele>474</ele>
        <time>2022-05-21 16:56:18</time>
      </trkpt>
      <trkpt lat="42.38588" lon="2.71159">
        <ele>473.6</ele>
        <time>2022-05-21 16:56:19</time>
      </trkpt>
      <trkpt lat="42.38593" lon="2.71151">
        <ele>473.2</ele>
        <time>2022-05-21 16:56:20</time>
      </trkpt>
      <trkpt lat="42.38599" lon="2.71141">
        <ele>472.6</ele>
        <time>2022-05-21 16:56:21</time>
      </trkpt>
      <trkpt lat="42.38603" lon="2.71131">
        <ele>472</ele>
        <time>2022-05-21 16:56:22</time>
      </trkpt>
      <trkpt lat="42.38608" lon="2.7112">
        <ele>471.6</ele>
        <time>2022-05-21 16:56:23</time>
      </trkpt>
      <trkpt lat="42.38612" lon="2.71108">
        <ele>471</ele>
        <time>2022-05-21 16:56:24</time>
      </trkpt>
      <trkpt lat="42.38616" lon="2.71095">
        <ele>470.4</ele>
        <time>2022-05-21 16:56:25</time>
      </trkpt>
      <trkpt lat="42.38619" lon="2.71081">
        <ele>469.8</ele>
        <time>2022-05-21 16:56:26</time>
      </trkpt>
      <trkpt lat="42.38622" lon="2.71068">
        <ele>469.2</ele>
        <time>2022-05-21 16:56:27</time>
      </trkpt>
      <trkpt lat="42.38624" lon="2.71055">
        <ele>468.6</ele>
        <time>2022-05-21 16:56:28</time>
      </trkpt>
      <trkpt lat="42.38625" lon="2.71041">
        <ele>468.2</ele>
        <time>2022-05-21 16:56:29</time>
      </trkpt>
      <trkpt lat="42.38627" lon="2.71028">
        <ele>467.6</ele>
        <time>2022-05-21 16:56:30</time>
      </trkpt>
      <trkpt lat="42.38628" lon="2.71014">
        <ele>467</ele>
        <time>2022-05-21 16:56:31</time>
      </trkpt>
      <trkpt lat="42.38629" lon="2.70999">
        <ele>466.6</ele>
        <time>2022-05-21 16:56:32</time>
      </trkpt>
      <trkpt lat="42.3863" lon="2.70986">
        <ele>466</ele>
        <time>2022-05-21 16:56:33</time>
      </trkpt>
      <trkpt lat="42.3863" lon="2.70973">
        <ele>465.6</ele>
        <time>2022-05-21 16:56:34</time>
      </trkpt>
      <trkpt lat="42.3863" lon="2.70956">
        <ele>465.2</ele>
        <time>2022-05-21 16:56:35</time>
      </trkpt>
      <trkpt lat="42.3863" lon="2.70941">
        <ele>464.8</ele>
        <time>2022-05-21 16:56:36</time>
      </trkpt>
      <trkpt lat="42.38629" lon="2.70928">
        <ele>464.6</ele>
        <time>2022-05-21 16:56:37</time>
      </trkpt>
      <trkpt lat="42.38629" lon="2.70914">
        <ele>464.4</ele>
        <time>2022-05-21 16:56:38</time>
      </trkpt>
      <trkpt lat="42.38629" lon="2.70902">
        <ele>464.2</ele>
        <time>2022-05-21 16:56:39</time>
      </trkpt>
      <trkpt lat="42.38629" lon="2.70888">
        <ele>464.2</ele>
        <time>2022-05-21 16:56:40</time>
      </trkpt>
      <trkpt lat="42.38629" lon="2.70876">
        <ele>464.2</ele>
        <time>2022-05-21 16:56:41</time>
      </trkpt>
      <trkpt lat="42.3863" lon="2.70864">
        <ele>464.2</ele>
        <time>2022-05-21 16:56:42</time>
      </trkpt>
      <trkpt lat="42.3863" lon="2.70853">
        <ele>464.4</ele>
        <time>2022-05-21 16:56:43</time>
      </trkpt>
      <trkpt lat="42.38629" lon="2.70843">
        <ele>464.6</ele>
        <time>2022-05-21 16:56:44</time>
      </trkpt>
      <trkpt lat="42.38629" lon="2.70833">
        <ele>464.8</ele>
        <time>2022-05-21 16:56:45</time>
      </trkpt>
      <trkpt lat="42.38629" lon="2.70824">
        <ele>465.2</ele>
        <time>2022-05-21 16:56:46</time>
      </trkpt>
      <trkpt lat="42.38629" lon="2.70815">
        <ele>465.6</ele>
        <time>2022-05-21 16:56:47</time>
      </trkpt>
      <trkpt lat="42.38629" lon="2.70807">
        <ele>466</ele>
        <time>2022-05-21 16:56:48</time>
      </trkpt>
      <trkpt lat="42.38629" lon="2.708">
        <ele>466.4</ele>
        <time>2022-05-21 16:56:49</time>
      </trkpt>
      <trkpt lat="42.38629" lon="2.70793">
        <ele>466.8</ele>
        <time>2022-05-21 16:56:50</time>
      </trkpt>
      <trkpt lat="42.38628" lon="2.70786">
        <ele>467.2</ele>
        <time>2022-05-21 16:56:51</time>
      </trkpt>
      <trkpt lat="42.38628" lon="2.7078">
        <ele>467.6</ele>
        <time>2022-05-21 16:56:52</time>
      </trkpt>
      <trkpt lat="42.38628" lon="2.70775">
        <ele>468</ele>
        <time>2022-05-21 16:56:53</time>
      </trkpt>
      <trkpt lat="42.38628" lon="2.70771">
        <ele>468.4</ele>
        <time>2022-05-21 16:56:54</time>
      </trkpt>
      <trkpt lat="42.38628" lon="2.70766">
        <ele>468.8</ele>
        <time>2022-05-21 16:56:55</time>
      </trkpt>
      <trkpt lat="42.38628" lon="2.70762">
        <ele>469</ele>
        <time>2022-05-21 16:56:56</time>
      </trkpt>
      <trkpt lat="42.38628" lon="2.70759">
        <ele>469.4</ele>
        <time>2022-05-21 16:56:57</time>
      </trkpt>
      <trkpt lat="42.38628" lon="2.70755">
        <ele>469.6</ele>
        <time>2022-05-21 16:56:58</time>
      </trkpt>
      <trkpt lat="42.38628" lon="2.70752">
        <ele>470</ele>
        <time>2022-05-21 16:56:59</time>
      </trkpt>
      <trkpt lat="42.38628" lon="2.70748">
        <ele>470.2</ele>
        <time>2022-05-21 16:57:00</time>
      </trkpt>
      <trkpt lat="42.38628" lon="2.70744">
        <ele>470.4</ele>
        <time>2022-05-21 16:57:01</time>
      </trkpt>
      <trkpt lat="42.38628" lon="2.70741">
        <ele>470.6</ele>
        <time>2022-05-21 16:57:02</time>
      </trkpt>
      <trkpt lat="42.38628" lon="2.70737">
        <ele>470.8</ele>
        <time>2022-05-21 16:57:03</time>
      </trkpt>
      <trkpt lat="42.38628" lon="2.70734">
        <ele>471</ele>
        <time>2022-05-21 16:57:04</time>
      </trkpt>
      <trkpt lat="42.38628" lon="2.70731">
        <ele>471.4</ele>
        <time>2022-05-21 16:57:05</time>
      </trkpt>
      <trkpt lat="42.38628" lon="2.70727">
        <ele>471.6</ele>
        <time>2022-05-21 16:57:06</time>
      </trkpt>
      <trkpt lat="42.38628" lon="2.70724">
        <ele>471.8</ele>
        <time>2022-05-21 16:57:07</time>
      </trkpt>
      <trkpt lat="42.38628" lon="2.70721">
        <ele>472</ele>
        <time>2022-05-21 16:57:08</time>
      </trkpt>
      <trkpt lat="42.38628" lon="2.70718">
        <ele>472.2</ele>
        <time>2022-05-21 16:57:09</time>
      </trkpt>
      <trkpt lat="42.38628" lon="2.70715">
        <ele>472.4</ele>
        <time>2022-05-21 16:57:10</time>
      </trkpt>
      <trkpt lat="42.38628" lon="2.70712">
        <ele>472.6</ele>
        <time>2022-05-21 16:57:11</time>
      </trkpt>
      <trkpt lat="42.38628" lon="2.70709">
        <ele>472.8</ele>
        <time>2022-05-21 16:57:12</time>
      </trkpt>
      <trkpt lat="42.38628" lon="2.70706">
        <ele>473</ele>
        <time>2022-05-21 16:57:13</time>
      </trkpt>
      <trkpt lat="42.38628" lon="2.70703">
        <ele>473.2</ele>
        <time>2022-05-21 16:57:14</time>
      </trkpt>
      <trkpt lat="42.38628" lon="2.707">
        <ele>473.4</ele>
        <time>2022-05-21 16:57:15</time>
      </trkpt>
      <trkpt lat="42.38628" lon="2.70697">
        <ele>473.4</ele>
        <time>2022-05-21 16:57:16</time>
      </trkpt>
      <trkpt lat="42.38628" lon="2.70694">
        <ele>473.6</ele>
        <time>2022-05-21 16:57:17</time>
      </trkpt>
      <trkpt lat="42.38628" lon="2.70691">
        <ele>473.8</ele>
        <time>2022-05-21 16:57:18</time>
      </trkpt>
      <trkpt lat="42.38628" lon="2.70688">
        <ele>474</ele>
        <time>2022-05-21 16:57:19</time>
      </trkpt>
      <trkpt lat="42.38628" lon="2.70685">
        <ele>474.2</ele>
        <time>2022-05-21 16:57:20</time>
      </trkpt>
      <trkpt lat="42.38627" lon="2.70682">
        <ele>474.4</ele>
        <time>2022-05-21 16:57:21</time>
      </trkpt>
      <trkpt lat="42.38627" lon="2.70679">
        <ele>474.6</ele>
        <time>2022-05-21 16:57:22</time>
      </trkpt>
      <trkpt lat="42.38627" lon="2.70676">
        <ele>474.8</ele>
        <time>2022-05-21 16:57:23</time>
      </trkpt>
      <trkpt lat="42.38626" lon="2.70673">
        <ele>475</ele>
        <time>2022-05-21 16:57:24</time>
      </trkpt>
      <trkpt lat="42.38626" lon="2.7067">
        <ele>475.2</ele>
        <time>2022-05-21 16:57:25</time>
      </trkpt>
      <trkpt lat="42.38626" lon="2.70667">
        <ele>475.4</ele>
        <time>2022-05-21 16:57:26</time>
      </trkpt>
      <trkpt lat="42.38625" lon="2.70664">
        <ele>475.6</ele>
        <time>2022-05-21 16:57:27</time>
      </trkpt>
      <trkpt lat="42.38625" lon="2.70661">
        <ele>475.8</ele>
        <time>2022-05-21 16:57:28</time>
      </trkpt>
      <trkpt lat="42.38624" lon="2.70658">
        <ele>476</ele>
        <time>2022-05-21 16:57:29</time>
      </trkpt>
      <trkpt lat="42.38624" lon="2.70655">
        <ele>476.2</ele>
        <time>2022-05-21 16:57:30</time>
      </trkpt>
      <trkpt lat="42.38623" lon="2.70652">
        <ele>476.4</ele>
        <time>2022-05-21 16:57:31</time>
      </trkpt>
      <trkpt lat="42.38623" lon="2.70649">
        <ele>476.6</ele>
        <time>2022-05-21 16:57:32</time>
      </trkpt>
      <trkpt lat="42.38622" lon="2.70646">
        <ele>476.8</ele>
        <time>2022-05-21 16:57:33</time>
      </trkpt>
      <trkpt lat="42.38621" lon="2.70643">
        <ele>477</ele>
        <time>2022-05-21 16:57:34</time>
      </trkpt>
      <trkpt lat="42.38621" lon="2.7064">
        <ele>477.2</ele>
        <time>2022-05-21 16:57:35</time>
      </trkpt>
      <trkpt lat="42.38619" lon="2.70637">
        <ele>477.4</ele>
        <time>2022-05-21 16:57:36</time>
      </trkpt>
      <trkpt lat="42.38618" lon="2.70635">
        <ele>477.4</ele>
        <time>2022-05-21 16:57:37</time>
      </trkpt>
      <trkpt lat="42.38617" lon="2.70632">
        <ele>477.6</ele>
        <time>2022-05-21 16:57:38</time>
      </trkpt>
      <trkpt lat="42.38615" lon="2.70629">
        <ele>477.8</ele>
        <time>2022-05-21 16:57:39</time>
      </trkpt>
      <trkpt lat="42.38614" lon="2.70626">
        <ele>478</ele>
        <time>2022-05-21 16:57:40</time>
      </trkpt>
      <trkpt lat="42.38613" lon="2.70624">
        <ele>478.2</ele>
        <time>2022-05-21 16:57:41</time>
      </trkpt>
      <trkpt lat="42.38612" lon="2.70621">
        <ele>478.4</ele>
        <time>2022-05-21 16:57:42</time>
      </trkpt>
      <trkpt lat="42.38611" lon="2.70619">
        <ele>478.6</ele>
        <time>2022-05-21 16:57:43</time>
      </trkpt>
      <trkpt lat="42.3861" lon="2.70616">
        <ele>478.8</ele>
        <time>2022-05-21 16:57:44</time>
      </trkpt>
      <trkpt lat="42.38609" lon="2.70614">
        <ele>479</ele>
        <time>2022-05-21 16:57:45</time>
      </trkpt>
      <trkpt lat="42.38607" lon="2.70612">
        <ele>479</ele>
        <time>2022-05-21 16:57:46</time>
      </trkpt>
      <trkpt lat="42.38605" lon="2.7061">
        <ele>479.2</ele>
        <time>2022-05-21 16:57:47</time>
      </trkpt>
      <trkpt lat="42.38604" lon="2.70608">
        <ele>479.4</ele>
        <time>2022-05-21 16:57:48</time>
      </trkpt>
      <trkpt lat="42.38602" lon="2.70606">
        <ele>479.6</ele>
        <time>2022-05-21 16:57:49</time>
      </trkpt>
      <trkpt lat="42.386" lon="2.70604">
        <ele>479.8</ele>
        <time>2022-05-21 16:57:50</time>
      </trkpt>
      <trkpt lat="42.38598" lon="2.70602">
        <ele>479.8</ele>
        <time>2022-05-21 16:57:51</time>
      </trkpt>
      <trkpt lat="42.38597" lon="2.706">
        <ele>480</ele>
        <time>2022-05-21 16:57:52</time>
      </trkpt>
      <trkpt lat="42.38595" lon="2.70599">
        <ele>480.2</ele>
        <time>2022-05-21 16:57:53</time>
      </trkpt>
      <trkpt lat="42.38593" lon="2.70597">
        <ele>480.4</ele>
        <time>2022-05-21 16:57:54</time>
      </trkpt>
      <trkpt lat="42.38591" lon="2.70595">
        <ele>480.6</ele>
        <time>2022-05-21 16:57:55</time>
      </trkpt>
      <trkpt lat="42.38589" lon="2.70594">
        <ele>480.6</ele>
        <time>2022-05-21 16:57:56</time>
      </trkpt>
      <trkpt lat="42.38587" lon="2.70592">
        <ele>480.8</ele>
        <time>2022-05-21 16:57:57</time>
      </trkpt>
      <trkpt lat="42.38585" lon="2.70591">
        <ele>481</ele>
        <time>2022-05-21 16:57:58</time>
      </trkpt>
      <trkpt lat="42.38583" lon="2.7059">
        <ele>481.2</ele>
        <time>2022-05-21 16:57:59</time>
      </trkpt>
      <trkpt lat="42.3858" lon="2.70588">
        <ele>481.4</ele>
        <time>2022-05-21 16:58:00</time>
      </trkpt>
      <trkpt lat="42.38575" lon="2.70587">
        <ele>481.4</ele>
        <time>2022-05-21 16:58:01</time>
      </trkpt>
      <trkpt lat="42.3857" lon="2.70586">
        <ele>481.6</ele>
        <time>2022-05-21 16:58:02</time>
      </trkpt>
      <trkpt lat="42.38569" lon="2.70585">
        <ele>481.8</ele>
        <time>2022-05-21 16:58:03</time>
      </trkpt>
      <trkpt lat="42.38568" lon="2.70584">
        <ele>482</ele>
        <time>2022-05-21 16:58:04</time>
      </trkpt>
      <trkpt lat="42.38567" lon="2.70583">
        <ele>482</ele>
        <time>2022-05-21 16:58:05</time>
      </trkpt>
      <trkpt lat="42.38566" lon="2.70583">
        <ele>482.2</ele>
        <time>2022-05-21 16:58:06</time>
      </trkpt>
      <trkpt lat="42.38564" lon="2.70582">
        <ele>482.4</ele>
        <time>2022-05-21 16:58:07</time>
      </trkpt>
      <trkpt lat="42.38562" lon="2.70582">
        <ele>482.6</ele>
        <time>2022-05-21 16:58:08</time>
      </trkpt>
      <trkpt lat="42.38561" lon="2.70582">
        <ele>482.8</ele>
        <time>2022-05-21 16:58:09</time>
      </trkpt>
      <trkpt lat="42.38559" lon="2.70581">
        <ele>482.8</ele>
        <time>2022-05-21 16:58:10</time>
      </trkpt>
      <trkpt lat="42.38557" lon="2.70581">
        <ele>483</ele>
        <time>2022-05-21 16:58:11</time>
      </trkpt>
      <trkpt lat="42.38555" lon="2.70581">
        <ele>483.2</ele>
        <time>2022-05-21 16:58:12</time>
      </trkpt>
      <trkpt lat="42.38554" lon="2.70581">
        <ele>483.4</ele>
        <time>2022-05-21 16:58:13</time>
      </trkpt>
      <trkpt lat="42.38552" lon="2.70581">
        <ele>483.6</ele>
        <time>2022-05-21 16:58:14</time>
      </trkpt>
      <trkpt lat="42.3855" lon="2.70581">
        <ele>483.6</ele>
        <time>2022-05-21 16:58:15</time>
      </trkpt>
      <trkpt lat="42.38548" lon="2.70581">
        <ele>483.8</ele>
        <time>2022-05-21 16:58:16</time>
      </trkpt>
      <trkpt lat="42.38546" lon="2.70581">
        <ele>484</ele>
        <time>2022-05-21 16:58:17</time>
      </trkpt>
      <trkpt lat="42.38544" lon="2.70582">
        <ele>484.2</ele>
        <time>2022-05-21 16:58:18</time>
      </trkpt>
      <trkpt lat="42.38542" lon="2.70582">
        <ele>484.4</ele>
        <time>2022-05-21 16:58:19</time>
      </trkpt>
      <trkpt lat="42.3854" lon="2.70582">
        <ele>484.4</ele>
        <time>2022-05-21 16:58:20</time>
      </trkpt>
      <trkpt lat="42.38537" lon="2.70583">
        <ele>484.6</ele>
        <time>2022-05-21 16:58:21</time>
      </trkpt>
      <trkpt lat="42.38535" lon="2.70583">
        <ele>484.8</ele>
        <time>2022-05-21 16:58:22</time>
      </trkpt>
      <trkpt lat="42.38533" lon="2.70584">
        <ele>485</ele>
        <time>2022-05-21 16:58:23</time>
      </trkpt>
      <trkpt lat="42.38531" lon="2.70585">
        <ele>485.2</ele>
        <time>2022-05-21 16:58:24</time>
      </trkpt>
      <trkpt lat="42.38529" lon="2.70586">
        <ele>485.4</ele>
        <time>2022-05-21 16:58:25</time>
      </trkpt>
      <trkpt lat="42.38527" lon="2.70587">
        <ele>485.4</ele>
        <time>2022-05-21 16:58:26</time>
      </trkpt>
      <trkpt lat="42.38525" lon="2.70588">
        <ele>485.6</ele>
        <time>2022-05-21 16:58:27</time>
      </trkpt>
      <trkpt lat="42.38523" lon="2.70589">
        <ele>485.8</ele>
        <time>2022-05-21 16:58:28</time>
      </trkpt>
      <trkpt lat="42.38522" lon="2.7059">
        <ele>486</ele>
        <time>2022-05-21 16:58:29</time>
      </trkpt>
      <trkpt lat="42.3852" lon="2.70591">
        <ele>486</ele>
        <time>2022-05-21 16:58:30</time>
      </trkpt>
      <trkpt lat="42.38518" lon="2.70592">
        <ele>486.2</ele>
        <time>2022-05-21 16:58:31</time>
      </trkpt>
      <trkpt lat="42.38516" lon="2.70594">
        <ele>486.4</ele>
        <time>2022-05-21 16:58:32</time>
      </trkpt>
      <trkpt lat="42.38514" lon="2.70595">
        <ele>486.6</ele>
        <time>2022-05-21 16:58:33</time>
      </trkpt>
      <trkpt lat="42.38512" lon="2.70596">
        <ele>486.6</ele>
        <time>2022-05-21 16:58:34</time>
      </trkpt>
      <trkpt lat="42.3851" lon="2.70598">
        <ele>486.8</ele>
        <time>2022-05-21 16:58:35</time>
      </trkpt>
      <trkpt lat="42.38509" lon="2.70599">
        <ele>487</ele>
        <time>2022-05-21 16:58:36</time>
      </trkpt>
      <trkpt lat="42.38507" lon="2.70601">
        <ele>487.2</ele>
        <time>2022-05-21 16:58:37</time>
      </trkpt>
      <trkpt lat="42.38505" lon="2.70603">
        <ele>487.2</ele>
        <time>2022-05-21 16:58:38</time>
      </trkpt>
      <trkpt lat="42.38503" lon="2.70604">
        <ele>487.4</ele>
        <time>2022-05-21 16:58:39</time>
      </trkpt>
      <trkpt lat="42.38502" lon="2.70606">
        <ele>487.6</ele>
        <time>2022-05-21 16:58:40</time>
      </trkpt>
      <trkpt lat="42.385" lon="2.70608">
        <ele>487.6</ele>
        <time>2022-05-21 16:58:41</time>
      </trkpt>
      <trkpt lat="42.38499" lon="2.7061">
        <ele>487.8</ele>
        <time>2022-05-21 16:58:42</time>
      </trkpt>
      <trkpt lat="42.38497" lon="2.70612">
        <ele>488</ele>
        <time>2022-05-21 16:58:43</time>
      </trkpt>
      <trkpt lat="42.38496" lon="2.70614">
        <ele>488.2</ele>
        <time>2022-05-21 16:58:44</time>
      </trkpt>
      <trkpt lat="42.38494" lon="2.70616">
        <ele>488.4</ele>
        <time>2022-05-21 16:58:45</time>
      </trkpt>
      <trkpt lat="42.38493" lon="2.70618">
        <ele>488.4</ele>
        <time>2022-05-21 16:58:46</time>
      </trkpt>
      <trkpt lat="42.38492" lon="2.7062">
        <ele>488.6</ele>
        <time>2022-05-21 16:58:47</time>
      </trkpt>
      <trkpt lat="42.38491" lon="2.70622">
        <ele>488.8</ele>
        <time>2022-05-21 16:58:48</time>
      </trkpt>
      <trkpt lat="42.3849" lon="2.70625">
        <ele>489</ele>
        <time>2022-05-21 16:58:49</time>
      </trkpt>
      <trkpt lat="42.38489" lon="2.70627">
        <ele>489.2</ele>
        <time>2022-05-21 16:58:50</time>
      </trkpt>
      <trkpt lat="42.38488" lon="2.70629">
        <ele>489.2</ele>
        <time>2022-05-21 16:58:51</time>
      </trkpt>
      <trkpt lat="42.38487" lon="2.70632">
        <ele>489.4</ele>
        <time>2022-05-21 16:58:52</time>
      </trkpt>
      <trkpt lat="42.38486" lon="2.70634">
        <ele>489.6</ele>
        <time>2022-05-21 16:58:53</time>
      </trkpt>
      <trkpt lat="42.38485" lon="2.70636">
        <ele>489.8</ele>
        <time>2022-05-21 16:58:54</time>
      </trkpt>
      <trkpt lat="42.38484" lon="2.70639">
        <ele>489.8</ele>
        <time>2022-05-21 16:58:55</time>
      </trkpt>
      <trkpt lat="42.38483" lon="2.70641">
        <ele>490</ele>
        <time>2022-05-21 16:58:56</time>
      </trkpt>
      <trkpt lat="42.38483" lon="2.70644">
        <ele>490.2</ele>
        <time>2022-05-21 16:58:57</time>
      </trkpt>
      <trkpt lat="42.38482" lon="2.70646">
        <ele>490.4</ele>
        <time>2022-05-21 16:58:58</time>
      </trkpt>
      <trkpt lat="42.38481" lon="2.70649">
        <ele>490.4</ele>
        <time>2022-05-21 16:58:59</time>
      </trkpt>
      <trkpt lat="42.3848" lon="2.70652">
        <ele>490.6</ele>
        <time>2022-05-21 16:59:00</time>
      </trkpt>
      <trkpt lat="42.3848" lon="2.70654">
        <ele>490.8</ele>
        <time>2022-05-21 16:59:01</time>
      </trkpt>
      <trkpt lat="42.38479" lon="2.70657">
        <ele>491</ele>
        <time>2022-05-21 16:59:02</time>
      </trkpt>
      <trkpt lat="42.38479" lon="2.7066">
        <ele>491</ele>
        <time>2022-05-21 16:59:03</time>
      </trkpt>
      <trkpt lat="42.38479" lon="2.70662">
        <ele>491.2</ele>
        <time>2022-05-21 16:59:04</time>
      </trkpt>
      <trkpt lat="42.38478" lon="2.70665">
        <ele>491.4</ele>
        <time>2022-05-21 16:59:05</time>
      </trkpt>
      <trkpt lat="42.38477" lon="2.70668">
        <ele>491.6</ele>
        <time>2022-05-21 16:59:06</time>
      </trkpt>
      <trkpt lat="42.38477" lon="2.7067">
        <ele>491.6</ele>
        <time>2022-05-21 16:59:07</time>
      </trkpt>
      <trkpt lat="42.38476" lon="2.70673">
        <ele>491.8</ele>
        <time>2022-05-21 16:59:08</time>
      </trkpt>
      <trkpt lat="42.38475" lon="2.70676">
        <ele>492</ele>
        <time>2022-05-21 16:59:09</time>
      </trkpt>
      <trkpt lat="42.38474" lon="2.70678">
        <ele>492.2</ele>
        <time>2022-05-21 16:59:10</time>
      </trkpt>
      <trkpt lat="42.38474" lon="2.70681">
        <ele>492.4</ele>
        <time>2022-05-21 16:59:11</time>
      </trkpt>
      <trkpt lat="42.38473" lon="2.70684">
        <ele>492.4</ele>
        <time>2022-05-21 16:59:12</time>
      </trkpt>
      <trkpt lat="42.38473" lon="2.70686">
        <ele>492.6</ele>
        <time>2022-05-21 16:59:13</time>
      </trkpt>
      <trkpt lat="42.38472" lon="2.70689">
        <ele>492.8</ele>
        <time>2022-05-21 16:59:14</time>
      </trkpt>
      <trkpt lat="42.38472" lon="2.70692">
        <ele>493</ele>
        <time>2022-05-21 16:59:15</time>
      </trkpt>
      <trkpt lat="42.38471" lon="2.70696">
        <ele>493</ele>
        <time>2022-05-21 16:59:16</time>
      </trkpt>
      <trkpt lat="42.38471" lon="2.70699">
        <ele>493.2</ele>
        <time>2022-05-21 16:59:17</time>
      </trkpt>
      <trkpt lat="42.3847" lon="2.70702">
        <ele>493.4</ele>
        <time>2022-05-21 16:59:18</time>
      </trkpt>
      <trkpt lat="42.38469" lon="2.70705">
        <ele>493.6</ele>
        <time>2022-05-21 16:59:19</time>
      </trkpt>
      <trkpt lat="42.38469" lon="2.70707">
        <ele>493.8</ele>
        <time>2022-05-21 16:59:20</time>
      </trkpt>
      <trkpt lat="42.38468" lon="2.7071">
        <ele>494</ele>
        <time>2022-05-21 16:59:21</time>
      </trkpt>
      <trkpt lat="42.38467" lon="2.70712">
        <ele>494.2</ele>
        <time>2022-05-21 16:59:22</time>
      </trkpt>
      <trkpt lat="42.38466" lon="2.70715">
        <ele>494.2</ele>
        <time>2022-05-21 16:59:23</time>
      </trkpt>
      <trkpt lat="42.38466" lon="2.70717">
        <ele>494.4</ele>
        <time>2022-05-21 16:59:24</time>
      </trkpt>
      <trkpt lat="42.38465" lon="2.7072">
        <ele>494.6</ele>
        <time>2022-05-21 16:59:25</time>
      </trkpt>
      <trkpt lat="42.38464" lon="2.70722">
        <ele>494.8</ele>
        <time>2022-05-21 16:59:26</time>
      </trkpt>
      <trkpt lat="42.38463" lon="2.70725">
        <ele>494.8</ele>
        <time>2022-05-21 16:59:27</time>
      </trkpt>
      <trkpt lat="42.38462" lon="2.70727">
        <ele>495</ele>
        <time>2022-05-21 16:59:28</time>
      </trkpt>
      <trkpt lat="42.38462" lon="2.70729">
        <ele>495.2</ele>
        <time>2022-05-21 16:59:29</time>
      </trkpt>
      <trkpt lat="42.38461" lon="2.70732">
        <ele>495.2</ele>
        <time>2022-05-21 16:59:30</time>
      </trkpt>
      <trkpt lat="42.3846" lon="2.70734">
        <ele>495.4</ele>
        <time>2022-05-21 16:59:31</time>
      </trkpt>
      <trkpt lat="42.38459" lon="2.70736">
        <ele>495.6</ele>
        <time>2022-05-21 16:59:32</time>
      </trkpt>
      <trkpt lat="42.38458" lon="2.70738">
        <ele>495.8</ele>
        <time>2022-05-21 16:59:33</time>
      </trkpt>
      <trkpt lat="42.38457" lon="2.70741">
        <ele>495.8</ele>
        <time>2022-05-21 16:59:34</time>
      </trkpt>
      <trkpt lat="42.38456" lon="2.70743">
        <ele>496</ele>
        <time>2022-05-21 16:59:35</time>
      </trkpt>
      <trkpt lat="42.38455" lon="2.70745">
        <ele>496.2</ele>
        <time>2022-05-21 16:59:36</time>
      </trkpt>
      <trkpt lat="42.38454" lon="2.70747">
        <ele>496.4</ele>
        <time>2022-05-21 16:59:37</time>
      </trkpt>
      <trkpt lat="42.38452" lon="2.70749">
        <ele>496.4</ele>
        <time>2022-05-21 16:59:38</time>
      </trkpt>
      <trkpt lat="42.38451" lon="2.70751">
        <ele>496.6</ele>
        <time>2022-05-21 16:59:39</time>
      </trkpt>
      <trkpt lat="42.3845" lon="2.70752">
        <ele>496.8</ele>
        <time>2022-05-21 16:59:40</time>
      </trkpt>
      <trkpt lat="42.38448" lon="2.70754">
        <ele>497</ele>
        <time>2022-05-21 16:59:41</time>
      </trkpt>
      <trkpt lat="42.38446" lon="2.70756">
        <ele>497</ele>
        <time>2022-05-21 16:59:42</time>
      </trkpt>
      <trkpt lat="42.38445" lon="2.70757">
        <ele>497.2</ele>
        <time>2022-05-21 16:59:43</time>
      </trkpt>
      <trkpt lat="42.38443" lon="2.70759">
        <ele>497.4</ele>
        <time>2022-05-21 16:59:44</time>
      </trkpt>
      <trkpt lat="42.38442" lon="2.70761">
        <ele>497.6</ele>
        <time>2022-05-21 16:59:45</time>
      </trkpt>
      <trkpt lat="42.3844" lon="2.70762">
        <ele>497.6</ele>
        <time>2022-05-21 16:59:46</time>
      </trkpt>
      <trkpt lat="42.38439" lon="2.70764">
        <ele>497.8</ele>
        <time>2022-05-21 16:59:47</time>
      </trkpt>
      <trkpt lat="42.38437" lon="2.70765">
        <ele>498</ele>
        <time>2022-05-21 16:59:48</time>
      </trkpt>
      <trkpt lat="42.38436" lon="2.70766">
        <ele>498.2</ele>
        <time>2022-05-21 16:59:49</time>
      </trkpt>
      <trkpt lat="42.38434" lon="2.70768">
        <ele>498.2</ele>
        <time>2022-05-21 16:59:50</time>
      </trkpt>
      <trkpt lat="42.38433" lon="2.70769">
        <ele>498.4</ele>
        <time>2022-05-21 16:59:51</time>
      </trkpt>
      <trkpt lat="42.38431" lon="2.70771">
        <ele>498.6</ele>
        <time>2022-05-21 16:59:52</time>
      </trkpt>
      <trkpt lat="42.3843" lon="2.70772">
        <ele>498.8</ele>
        <time>2022-05-21 16:59:53</time>
      </trkpt>
      <trkpt lat="42.38428" lon="2.70773">
        <ele>499</ele>
        <time>2022-05-21 16:59:54</time>
      </trkpt>
      <trkpt lat="42.38426" lon="2.70774">
        <ele>499</ele>
        <time>2022-05-21 16:59:55</time>
      </trkpt>
      <trkpt lat="42.38425" lon="2.70775">
        <ele>499.2</ele>
        <time>2022-05-21 16:59:56</time>
      </trkpt>
      <trkpt lat="42.38423" lon="2.70777">
        <ele>499.4</ele>
        <time>2022-05-21 16:59:57</time>
      </trkpt>
      <trkpt lat="42.38421" lon="2.70778">
        <ele>499.6</ele>
        <time>2022-05-21 16:59:58</time>
      </trkpt>
      <trkpt lat="42.3842" lon="2.70779">
        <ele>499.8</ele>
        <time>2022-05-21 16:59:59</time>
      </trkpt>
      <trkpt lat="42.38418" lon="2.7078">
        <ele>499.8</ele>
        <time>2022-05-21 17:00:00</time>
      </trkpt>
      <trkpt lat="42.38416" lon="2.70782">
        <ele>500</ele>
        <time>2022-05-21 17:00:01</time>
      </trkpt>
      <trkpt lat="42.38415" lon="2.70783">
        <ele>500.2</ele>
        <time>2022-05-21 17:00:02</time>
      </trkpt>
      <trkpt lat="42.38413" lon="2.70784">
        <ele>500.4</ele>
        <time>2022-05-21 17:00:03</time>
      </trkpt>
      <trkpt lat="42.38411" lon="2.70785">
        <ele>500.4</ele>
        <time>2022-05-21 17:00:04</time>
      </trkpt>
      <trkpt lat="42.38409" lon="2.70786">
        <ele>500.6</ele>
        <time>2022-05-21 17:00:05</time>
      </trkpt>
      <trkpt lat="42.38408" lon="2.70787">
        <ele>500.8</ele>
        <time>2022-05-21 17:00:06</time>
      </trkpt>
      <trkpt lat="42.38406" lon="2.70788">
        <ele>501</ele>
        <time>2022-05-21 17:00:07</time>
      </trkpt>
      <trkpt lat="42.38404" lon="2.70789">
        <ele>501.2</ele>
        <time>2022-05-21 17:00:08</time>
      </trkpt>
      <trkpt lat="42.38402" lon="2.7079">
        <ele>501.2</ele>
        <time>2022-05-21 17:00:09</time>
      </trkpt>
      <trkpt lat="42.384" lon="2.70791">
        <ele>501.4</ele>
        <time>2022-05-21 17:00:10</time>
      </trkpt>
      <trkpt lat="42.38399" lon="2.70792">
        <ele>501.6</ele>
        <time>2022-05-21 17:00:11</time>
      </trkpt>
      <trkpt lat="42.38397" lon="2.70793">
        <ele>501.8</ele>
        <time>2022-05-21 17:00:12</time>
      </trkpt>
      <trkpt lat="42.38396" lon="2.70795">
        <ele>501.8</ele>
        <time>2022-05-21 17:00:13</time>
      </trkpt>
      <trkpt lat="42.38394" lon="2.70796">
        <ele>502</ele>
        <time>2022-05-21 17:00:14</time>
      </trkpt>
      <trkpt lat="42.38392" lon="2.70797">
        <ele>502.2</ele>
        <time>2022-05-21 17:00:15</time>
      </trkpt>
      <trkpt lat="42.3839" lon="2.70798">
        <ele>502.4</ele>
        <time>2022-05-21 17:00:16</time>
      </trkpt>
      <trkpt lat="42.38389" lon="2.708">
        <ele>502.4</ele>
        <time>2022-05-21 17:00:17</time>
      </trkpt>
      <trkpt lat="42.38387" lon="2.70801">
        <ele>502.6</ele>
        <time>2022-05-21 17:00:18</time>
      </trkpt>
      <trkpt lat="42.38385" lon="2.70803">
        <ele>502.8</ele>
        <time>2022-05-21 17:00:19</time>
      </trkpt>
      <trkpt lat="42.38384" lon="2.70804">
        <ele>502.8</ele>
        <time>2022-05-21 17:00:20</time>
      </trkpt>
      <trkpt lat="42.38383" lon="2.70805">
        <ele>503</ele>
        <time>2022-05-21 17:00:21</time>
      </trkpt>
      <trkpt lat="42.38381" lon="2.70807">
        <ele>503.2</ele>
        <time>2022-05-21 17:00:22</time>
      </trkpt>
      <trkpt lat="42.3838" lon="2.70808">
        <ele>503.2</ele>
        <time>2022-05-21 17:00:23</time>
      </trkpt>
      <trkpt lat="42.38378" lon="2.7081">
        <ele>503.4</ele>
        <time>2022-05-21 17:00:24</time>
      </trkpt>
      <trkpt lat="42.38376" lon="2.70811">
        <ele>503.6</ele>
        <time>2022-05-21 17:00:25</time>
      </trkpt>
      <trkpt lat="42.38375" lon="2.70812">
        <ele>503.8</ele>
        <time>2022-05-21 17:00:26</time>
      </trkpt>
      <trkpt lat="42.38373" lon="2.70814">
        <ele>503.8</ele>
        <time>2022-05-21 17:00:27</time>
      </trkpt>
      <trkpt lat="42.38371" lon="2.70816">
        <ele>504</ele>
        <time>2022-05-21 17:00:28</time>
      </trkpt>
      <trkpt lat="42.38369" lon="2.70817">
        <ele>504.2</ele>
        <time>2022-05-21 17:00:29</time>
      </trkpt>
      <trkpt lat="42.38367" lon="2.70819">
        <ele>504.4</ele>
        <time>2022-05-21 17:00:30</time>
      </trkpt>
      <trkpt lat="42.38366" lon="2.7082">
        <ele>504.6</ele>
        <time>2022-05-21 17:00:31</time>
      </trkpt>
      <trkpt lat="42.38364" lon="2.70822">
        <ele>504.6</ele>
        <time>2022-05-21 17:00:32</time>
      </trkpt>
      <trkpt lat="42.38363" lon="2.70824">
        <ele>504.8</ele>
        <time>2022-05-21 17:00:33</time>
      </trkpt>
      <trkpt lat="42.38361" lon="2.70826">
        <ele>505</ele>
        <time>2022-05-21 17:00:34</time>
      </trkpt>
      <trkpt lat="42.38359" lon="2.70828">
        <ele>505.2</ele>
        <time>2022-05-21 17:00:35</time>
      </trkpt>
      <trkpt lat="42.38358" lon="2.70829">
        <ele>505.4</ele>
        <time>2022-05-21 17:00:36</time>
      </trkpt>
      <trkpt lat="42.38356" lon="2.70831">
        <ele>505.4</ele>
        <time>2022-05-21 17:00:37</time>
      </trkpt>
      <trkpt lat="42.38355" lon="2.70833">
        <ele>505.6</ele>
        <time>2022-05-21 17:00:38</time>
      </trkpt>
      <trkpt lat="42.38353" lon="2.70835">
        <ele>505.8</ele>
        <time>2022-05-21 17:00:39</time>
      </trkpt>
      <trkpt lat="42.38352" lon="2.70836">
        <ele>506</ele>
        <time>2022-05-21 17:00:40</time>
      </trkpt>
      <trkpt lat="42.3835" lon="2.70838">
        <ele>506.2</ele>
        <time>2022-05-21 17:00:41</time>
      </trkpt>
      <trkpt lat="42.38349" lon="2.7084">
        <ele>506.2</ele>
        <time>2022-05-21 17:00:42</time>
      </trkpt>
      <trkpt lat="42.38347" lon="2.70842">
        <ele>506.4</ele>
        <time>2022-05-21 17:00:43</time>
      </trkpt>
      <trkpt lat="42.38346" lon="2.70844">
        <ele>506.6</ele>
        <time>2022-05-21 17:00:44</time>
      </trkpt>
      <trkpt lat="42.38345" lon="2.70846">
        <ele>506.6</ele>
        <time>2022-05-21 17:00:45</time>
      </trkpt>
      <trkpt lat="42.38343" lon="2.70847">
        <ele>506.8</ele>
        <time>2022-05-21 17:00:46</time>
      </trkpt>
      <trkpt lat="42.38342" lon="2.70849">
        <ele>507</ele>
        <time>2022-05-21 17:00:47</time>
      </trkpt>
      <trkpt lat="42.3834" lon="2.70851">
        <ele>507.2</ele>
        <time>2022-05-21 17:00:48</time>
      </trkpt>
      <trkpt lat="42.38339" lon="2.70852">
        <ele>507.2</ele>
        <time>2022-05-21 17:00:49</time>
      </trkpt>
      <trkpt lat="42.38338" lon="2.70854">
        <ele>507.4</ele>
        <time>2022-05-21 17:00:50</time>
      </trkpt>
      <trkpt lat="42.38336" lon="2.70856">
        <ele>507.4</ele>
        <time>2022-05-21 17:00:51</time>
      </trkpt>
      <trkpt lat="42.38335" lon="2.70858">
        <ele>507.6</ele>
        <time>2022-05-21 17:00:52</time>
      </trkpt>
      <trkpt lat="42.38333" lon="2.7086">
        <ele>507.8</ele>
        <time>2022-05-21 17:00:53</time>
      </trkpt>
      <trkpt lat="42.38332" lon="2.70862">
        <ele>508</ele>
        <time>2022-05-21 17:00:54</time>
      </trkpt>
      <trkpt lat="42.3833" lon="2.70864">
        <ele>508</ele>
        <time>2022-05-21 17:00:55</time>
      </trkpt>
      <trkpt lat="42.38329" lon="2.70865">
        <ele>508.2</ele>
        <time>2022-05-21 17:00:56</time>
      </trkpt>
      <trkpt lat="42.38328" lon="2.70867">
        <ele>508.4</ele>
        <time>2022-05-21 17:00:57</time>
      </trkpt>
      <trkpt lat="42.38326" lon="2.70869">
        <ele>508.4</ele>
        <time>2022-05-21 17:00:58</time>
      </trkpt>
      <trkpt lat="42.38325" lon="2.70871">
        <ele>508.6</ele>
        <time>2022-05-21 17:00:59</time>
      </trkpt>
      <trkpt lat="42.38323" lon="2.70873">
        <ele>508.8</ele>
        <time>2022-05-21 17:01:00</time>
      </trkpt>
      <trkpt lat="42.38322" lon="2.70876">
        <ele>509</ele>
        <time>2022-05-21 17:01:01</time>
      </trkpt>
      <trkpt lat="42.38321" lon="2.70879">
        <ele>509.2</ele>
        <time>2022-05-21 17:01:02</time>
      </trkpt>
      <trkpt lat="42.3832" lon="2.70881">
        <ele>509.2</ele>
        <time>2022-05-21 17:01:03</time>
      </trkpt>
      <trkpt lat="42.38318" lon="2.70884">
        <ele>509.4</ele>
        <time>2022-05-21 17:01:04</time>
      </trkpt>
      <trkpt lat="42.38317" lon="2.70886">
        <ele>509.6</ele>
        <time>2022-05-21 17:01:05</time>
      </trkpt>
      <trkpt lat="42.38315" lon="2.70888">
        <ele>509.8</ele>
        <time>2022-05-21 17:01:06</time>
      </trkpt>
      <trkpt lat="42.38314" lon="2.7089">
        <ele>509.8</ele>
        <time>2022-05-21 17:01:07</time>
      </trkpt>
      <trkpt lat="42.38312" lon="2.70892">
        <ele>510</ele>
        <time>2022-05-21 17:01:08</time>
      </trkpt>
      <trkpt lat="42.3831" lon="2.70894">
        <ele>510.2</ele>
        <time>2022-05-21 17:01:09</time>
      </trkpt>
      <trkpt lat="42.38309" lon="2.70896">
        <ele>510.4</ele>
        <time>2022-05-21 17:01:10</time>
      </trkpt>
      <trkpt lat="42.38307" lon="2.70898">
        <ele>510.4</ele>
        <time>2022-05-21 17:01:11</time>
      </trkpt>
      <trkpt lat="42.38306" lon="2.709">
        <ele>510.6</ele>
        <time>2022-05-21 17:01:12</time>
      </trkpt>
      <trkpt lat="42.38305" lon="2.70903">
        <ele>510.8</ele>
        <time>2022-05-21 17:01:13</time>
      </trkpt>
      <trkpt lat="42.38304" lon="2.70905">
        <ele>511</ele>
        <time>2022-05-21 17:01:14</time>
      </trkpt>
      <trkpt lat="42.38302" lon="2.70907">
        <ele>511</ele>
        <time>2022-05-21 17:01:15</time>
      </trkpt>
      <trkpt lat="42.38301" lon="2.70909">
        <ele>511.2</ele>
        <time>2022-05-21 17:01:16</time>
      </trkpt>
      <trkpt lat="42.383" lon="2.70911">
        <ele>511.4</ele>
        <time>2022-05-21 17:01:17</time>
      </trkpt>
      <trkpt lat="42.38298" lon="2.70913">
        <ele>511.6</ele>
        <time>2022-05-21 17:01:18</time>
      </trkpt>
      <trkpt lat="42.38297" lon="2.70915">
        <ele>511.6</ele>
        <time>2022-05-21 17:01:19</time>
      </trkpt>
      <trkpt lat="42.38295" lon="2.70917">
        <ele>511.8</ele>
        <time>2022-05-21 17:01:20</time>
      </trkpt>
      <trkpt lat="42.38294" lon="2.70919">
        <ele>512</ele>
        <time>2022-05-21 17:01:21</time>
      </trkpt>
      <trkpt lat="42.38292" lon="2.70921">
        <ele>512.2</ele>
        <time>2022-05-21 17:01:22</time>
      </trkpt>
      <trkpt lat="42.38291" lon="2.70923">
        <ele>512.4</ele>
        <time>2022-05-21 17:01:23</time>
      </trkpt>
      <trkpt lat="42.38289" lon="2.70925">
        <ele>512.4</ele>
        <time>2022-05-21 17:01:24</time>
      </trkpt>
      <trkpt lat="42.38288" lon="2.70927">
        <ele>512.6</ele>
        <time>2022-05-21 17:01:25</time>
      </trkpt>
      <trkpt lat="42.38287" lon="2.70929">
        <ele>512.8</ele>
        <time>2022-05-21 17:01:26</time>
      </trkpt>
      <trkpt lat="42.38285" lon="2.70931">
        <ele>513</ele>
        <time>2022-05-21 17:01:27</time>
      </trkpt>
      <trkpt lat="42.38284" lon="2.70933">
        <ele>513</ele>
        <time>2022-05-21 17:01:28</time>
      </trkpt>
      <trkpt lat="42.38282" lon="2.70935">
        <ele>513.2</ele>
        <time>2022-05-21 17:01:29</time>
      </trkpt>
      <trkpt lat="42.38281" lon="2.70937">
        <ele>513.4</ele>
        <time>2022-05-21 17:01:30</time>
      </trkpt>
      <trkpt lat="42.38279" lon="2.70939">
        <ele>513.6</ele>
        <time>2022-05-21 17:01:31</time>
      </trkpt>
      <trkpt lat="42.38278" lon="2.70941">
        <ele>513.8</ele>
        <time>2022-05-21 17:01:32</time>
      </trkpt>
      <trkpt lat="42.38276" lon="2.70943">
        <ele>513.8</ele>
        <time>2022-05-21 17:01:33</time>
      </trkpt>
      <trkpt lat="42.38274" lon="2.70944">
        <ele>514</ele>
        <time>2022-05-21 17:01:34</time>
      </trkpt>
      <trkpt lat="42.38273" lon="2.70946">
        <ele>514.2</ele>
        <time>2022-05-21 17:01:35</time>
      </trkpt>
      <trkpt lat="42.38271" lon="2.70948">
        <ele>514.4</ele>
        <time>2022-05-21 17:01:36</time>
      </trkpt>
      <trkpt lat="42.38269" lon="2.70949">
        <ele>514.4</ele>
        <time>2022-05-21 17:01:37</time>
      </trkpt>
      <trkpt lat="42.38268" lon="2.70951">
        <ele>514.6</ele>
        <time>2022-05-21 17:01:38</time>
      </trkpt>
      <trkpt lat="42.38266" lon="2.70952">
        <ele>514.8</ele>
        <time>2022-05-21 17:01:39</time>
      </trkpt>
      <trkpt lat="42.38265" lon="2.70954">
        <ele>515</ele>
        <time>2022-05-21 17:01:40</time>
      </trkpt>
      <trkpt lat="42.38263" lon="2.70955">
        <ele>515</ele>
        <time>2022-05-21 17:01:41</time>
      </trkpt>
      <trkpt lat="42.38261" lon="2.70957">
        <ele>515.2</ele>
        <time>2022-05-21 17:01:42</time>
      </trkpt>
      <trkpt lat="42.3826" lon="2.70958">
        <ele>515.4</ele>
        <time>2022-05-21 17:01:43</time>
      </trkpt>
      <trkpt lat="42.38258" lon="2.7096">
        <ele>515.6</ele>
        <time>2022-05-21 17:01:44</time>
      </trkpt>
      <trkpt lat="42.38256" lon="2.70962">
        <ele>515.8</ele>
        <time>2022-05-21 17:01:45</time>
      </trkpt>
      <trkpt lat="42.38254" lon="2.70963">
        <ele>515.8</ele>
        <time>2022-05-21 17:01:46</time>
      </trkpt>
      <trkpt lat="42.38253" lon="2.70965">
        <ele>516</ele>
        <time>2022-05-21 17:01:47</time>
      </trkpt>
      <trkpt lat="42.38251" lon="2.70967">
        <ele>516.2</ele>
        <time>2022-05-21 17:01:48</time>
      </trkpt>
      <trkpt lat="42.38249" lon="2.70968">
        <ele>516.4</ele>
        <time>2022-05-21 17:01:49</time>
      </trkpt>
      <trkpt lat="42.38247" lon="2.7097">
        <ele>516.6</ele>
        <time>2022-05-21 17:01:50</time>
      </trkpt>
      <trkpt lat="42.38245" lon="2.70971">
        <ele>516.8</ele>
        <time>2022-05-21 17:01:51</time>
      </trkpt>
      <trkpt lat="42.38243" lon="2.70972">
        <ele>516.8</ele>
        <time>2022-05-21 17:01:52</time>
      </trkpt>
      <trkpt lat="42.38241" lon="2.70973">
        <ele>517</ele>
        <time>2022-05-21 17:01:53</time>
      </trkpt>
      <trkpt lat="42.38239" lon="2.70974">
        <ele>517.2</ele>
        <time>2022-05-21 17:01:54</time>
      </trkpt>
      <trkpt lat="42.38237" lon="2.70975">
        <ele>517.4</ele>
        <time>2022-05-21 17:01:55</time>
      </trkpt>
      <trkpt lat="42.38235" lon="2.70976">
        <ele>517.6</ele>
        <time>2022-05-21 17:01:56</time>
      </trkpt>
      <trkpt lat="42.38233" lon="2.70977">
        <ele>517.8</ele>
        <time>2022-05-21 17:01:57</time>
      </trkpt>
      <trkpt lat="42.38232" lon="2.70978">
        <ele>517.8</ele>
        <time>2022-05-21 17:01:58</time>
      </trkpt>
      <trkpt lat="42.3823" lon="2.70979">
        <ele>518</ele>
        <time>2022-05-21 17:01:59</time>
      </trkpt>
      <trkpt lat="42.38228" lon="2.7098">
        <ele>518.2</ele>
        <time>2022-05-21 17:02:00</time>
      </trkpt>
      <trkpt lat="42.38226" lon="2.70981">
        <ele>518.4</ele>
        <time>2022-05-21 17:02:01</time>
      </trkpt>
      <trkpt lat="42.38224" lon="2.70982">
        <ele>518.6</ele>
        <time>2022-05-21 17:02:02</time>
      </trkpt>
      <trkpt lat="42.38223" lon="2.70983">
        <ele>518.8</ele>
        <time>2022-05-21 17:02:03</time>
      </trkpt>
      <trkpt lat="42.38221" lon="2.70984">
        <ele>519</ele>
        <time>2022-05-21 17:02:04</time>
      </trkpt>
      <trkpt lat="42.38219" lon="2.70985">
        <ele>519.2</ele>
        <time>2022-05-21 17:02:05</time>
      </trkpt>
      <trkpt lat="42.38217" lon="2.70986">
        <ele>519.2</ele>
        <time>2022-05-21 17:02:06</time>
      </trkpt>
      <trkpt lat="42.38215" lon="2.70986">
        <ele>519.4</ele>
        <time>2022-05-21 17:02:07</time>
      </trkpt>
      <trkpt lat="42.38213" lon="2.70987">
        <ele>519.6</ele>
        <time>2022-05-21 17:02:08</time>
      </trkpt>
      <trkpt lat="42.38211" lon="2.70988">
        <ele>519.8</ele>
        <time>2022-05-21 17:02:09</time>
      </trkpt>
      <trkpt lat="42.38209" lon="2.70989">
        <ele>520</ele>
        <time>2022-05-21 17:02:10</time>
      </trkpt>
      <trkpt lat="42.38207" lon="2.70989">
        <ele>520.2</ele>
        <time>2022-05-21 17:02:11</time>
      </trkpt>
      <trkpt lat="42.38204" lon="2.7099">
        <ele>520.4</ele>
        <time>2022-05-21 17:02:12</time>
      </trkpt>
      <trkpt lat="42.38203" lon="2.7099">
        <ele>520.4</ele>
        <time>2022-05-21 17:02:13</time>
      </trkpt>
      <trkpt lat="42.382" lon="2.7099">
        <ele>520.6</ele>
        <time>2022-05-21 17:02:14</time>
      </trkpt>
      <trkpt lat="42.38198" lon="2.70991">
        <ele>520.8</ele>
        <time>2022-05-21 17:02:15</time>
      </trkpt>
      <trkpt lat="42.38196" lon="2.70991">
        <ele>521</ele>
        <time>2022-05-21 17:02:16</time>
      </trkpt>
      <trkpt lat="42.38194" lon="2.70992">
        <ele>521.2</ele>
        <time>2022-05-21 17:02:17</time>
      </trkpt>
      <trkpt lat="42.38192" lon="2.70992">
        <ele>521.2</ele>
        <time>2022-05-21 17:02:18</time>
      </trkpt>
      <trkpt lat="42.3819" lon="2.70992">
        <ele>521.4</ele>
        <time>2022-05-21 17:02:19</time>
      </trkpt>
      <trkpt lat="42.38188" lon="2.70993">
        <ele>521.6</ele>
        <time>2022-05-21 17:02:20</time>
      </trkpt>
      <trkpt lat="42.38186" lon="2.70993">
        <ele>521.8</ele>
        <time>2022-05-21 17:02:21</time>
      </trkpt>
      <trkpt lat="42.38184" lon="2.70994">
        <ele>522</ele>
        <time>2022-05-21 17:02:22</time>
      </trkpt>
      <trkpt lat="42.38182" lon="2.70994">
        <ele>522.2</ele>
        <time>2022-05-21 17:02:23</time>
      </trkpt>
      <trkpt lat="42.3818" lon="2.70994">
        <ele>522.2</ele>
        <time>2022-05-21 17:02:24</time>
      </trkpt>
      <trkpt lat="42.38178" lon="2.70994">
        <ele>522.4</ele>
        <time>2022-05-21 17:02:25</time>
      </trkpt>
      <trkpt lat="42.38175" lon="2.70994">
        <ele>522.6</ele>
        <time>2022-05-21 17:02:26</time>
      </trkpt>
      <trkpt lat="42.38173" lon="2.70994">
        <ele>522.8</ele>
        <time>2022-05-21 17:02:27</time>
      </trkpt>
      <trkpt lat="42.38171" lon="2.70994">
        <ele>523</ele>
        <time>2022-05-21 17:02:28</time>
      </trkpt>
      <trkpt lat="42.38169" lon="2.70994">
        <ele>523.2</ele>
        <time>2022-05-21 17:02:29</time>
      </trkpt>
      <trkpt lat="42.38167" lon="2.70994">
        <ele>523.4</ele>
        <time>2022-05-21 17:02:30</time>
      </trkpt>
      <trkpt lat="42.38165" lon="2.70994">
        <ele>523.6</ele>
        <time>2022-05-21 17:02:31</time>
      </trkpt>
      <trkpt lat="42.38164" lon="2.70994">
        <ele>523.6</ele>
        <time>2022-05-21 17:02:32</time>
      </trkpt>
      <trkpt lat="42.38162" lon="2.70994">
        <ele>523.8</ele>
        <time>2022-05-21 17:02:33</time>
      </trkpt>
      <trkpt lat="42.38159" lon="2.70994">
        <ele>524</ele>
        <time>2022-05-21 17:02:34</time>
      </trkpt>
      <trkpt lat="42.38157" lon="2.70994">
        <ele>524.2</ele>
        <time>2022-05-21 17:02:35</time>
      </trkpt>
      <trkpt lat="42.38155" lon="2.70993">
        <ele>524.4</ele>
        <time>2022-05-21 17:02:36</time>
      </trkpt>
      <trkpt lat="42.38154" lon="2.70993">
        <ele>524.6</ele>
        <time>2022-05-21 17:02:37</time>
      </trkpt>
      <trkpt lat="42.38152" lon="2.70993">
        <ele>524.8</ele>
        <time>2022-05-21 17:02:38</time>
      </trkpt>
      <trkpt lat="42.3815" lon="2.70993">
        <ele>525</ele>
        <time>2022-05-21 17:02:39</time>
      </trkpt>
      <trkpt lat="42.38148" lon="2.70992">
        <ele>525.2</ele>
        <time>2022-05-21 17:02:40</time>
      </trkpt>
      <trkpt lat="42.38146" lon="2.70992">
        <ele>525.2</ele>
        <time>2022-05-21 17:02:41</time>
      </trkpt>
      <trkpt lat="42.38144" lon="2.70992">
        <ele>525.4</ele>
        <time>2022-05-21 17:02:42</time>
      </trkpt>
      <trkpt lat="42.38142" lon="2.70991">
        <ele>525.6</ele>
        <time>2022-05-21 17:02:43</time>
      </trkpt>
      <trkpt lat="42.3814" lon="2.70991">
        <ele>525.8</ele>
        <time>2022-05-21 17:02:44</time>
      </trkpt>
      <trkpt lat="42.38138" lon="2.70991">
        <ele>526</ele>
        <time>2022-05-21 17:02:45</time>
      </trkpt>
      <trkpt lat="42.38137" lon="2.7099">
        <ele>526.2</ele>
        <time>2022-05-21 17:02:46</time>
      </trkpt>
      <trkpt lat="42.38135" lon="2.7099">
        <ele>526.2</ele>
        <time>2022-05-21 17:02:47</time>
      </trkpt>
      <trkpt lat="42.38133" lon="2.7099">
        <ele>526.4</ele>
        <time>2022-05-21 17:02:48</time>
      </trkpt>
      <trkpt lat="42.38132" lon="2.70989">
        <ele>526.6</ele>
        <time>2022-05-21 17:02:49</time>
      </trkpt>
      <trkpt lat="42.3813" lon="2.70988">
        <ele>526.8</ele>
        <time>2022-05-21 17:02:50</time>
      </trkpt>
      <trkpt lat="42.38128" lon="2.70987">
        <ele>527</ele>
        <time>2022-05-21 17:02:51</time>
      </trkpt>
      <trkpt lat="42.38126" lon="2.70987">
        <ele>527</ele>
        <time>2022-05-21 17:02:52</time>
      </trkpt>
      <trkpt lat="42.38124" lon="2.70986">
        <ele>527.2</ele>
        <time>2022-05-21 17:02:53</time>
      </trkpt>
      <trkpt lat="42.38122" lon="2.70985">
        <ele>527.4</ele>
        <time>2022-05-21 17:02:54</time>
      </trkpt>
      <trkpt lat="42.3812" lon="2.70985">
        <ele>527.6</ele>
        <time>2022-05-21 17:02:55</time>
      </trkpt>
      <trkpt lat="42.38119" lon="2.70984">
        <ele>527.6</ele>
        <time>2022-05-21 17:02:56</time>
      </trkpt>
      <trkpt lat="42.38117" lon="2.70984">
        <ele>527.8</ele>
        <time>2022-05-21 17:02:57</time>
      </trkpt>
      <trkpt lat="42.38116" lon="2.70983">
        <ele>528</ele>
        <time>2022-05-21 17:02:58</time>
      </trkpt>
      <trkpt lat="42.38114" lon="2.70983">
        <ele>528.2</ele>
        <time>2022-05-21 17:02:59</time>
      </trkpt>
      <trkpt lat="42.38112" lon="2.70982">
        <ele>528.2</ele>
        <time>2022-05-21 17:03:00</time>
      </trkpt>
      <trkpt lat="42.38111" lon="2.70981">
        <ele>528.4</ele>
        <time>2022-05-21 17:03:01</time>
      </trkpt>
      <trkpt lat="42.3811" lon="2.70981">
        <ele>528.6</ele>
        <time>2022-05-21 17:03:02</time>
      </trkpt>
      <trkpt lat="42.38109" lon="2.7098">
        <ele>528.8</ele>
        <time>2022-05-21 17:03:03</time>
      </trkpt>
      <trkpt lat="42.38107" lon="2.70979">
        <ele>528.8</ele>
        <time>2022-05-21 17:03:04</time>
      </trkpt>
      <trkpt lat="42.38105" lon="2.70978">
        <ele>529</ele>
        <time>2022-05-21 17:03:05</time>
      </trkpt>
      <trkpt lat="42.38103" lon="2.70976">
        <ele>529.2</ele>
        <time>2022-05-21 17:03:06</time>
      </trkpt>
      <trkpt lat="42.38101" lon="2.70975">
        <ele>529.4</ele>
        <time>2022-05-21 17:03:07</time>
      </trkpt>
      <trkpt lat="42.38099" lon="2.70973">
        <ele>529.6</ele>
        <time>2022-05-21 17:03:08</time>
      </trkpt>
      <trkpt lat="42.38097" lon="2.70972">
        <ele>529.6</ele>
        <time>2022-05-21 17:03:09</time>
      </trkpt>
      <trkpt lat="42.38096" lon="2.70971">
        <ele>529.8</ele>
        <time>2022-05-21 17:03:10</time>
      </trkpt>
      <trkpt lat="42.38094" lon="2.7097">
        <ele>530</ele>
        <time>2022-05-21 17:03:11</time>
      </trkpt>
      <trkpt lat="42.38093" lon="2.70969">
        <ele>530</ele>
        <time>2022-05-21 17:03:12</time>
      </trkpt>
      <trkpt lat="42.38091" lon="2.70967">
        <ele>530.2</ele>
        <time>2022-05-21 17:03:13</time>
      </trkpt>
      <trkpt lat="42.38089" lon="2.70966">
        <ele>530.4</ele>
        <time>2022-05-21 17:03:14</time>
      </trkpt>
      <trkpt lat="42.38088" lon="2.70965">
        <ele>530.6</ele>
        <time>2022-05-21 17:03:15</time>
      </trkpt>
      <trkpt lat="42.38086" lon="2.70964">
        <ele>530.8</ele>
        <time>2022-05-21 17:03:16</time>
      </trkpt>
      <trkpt lat="42.38084" lon="2.70962">
        <ele>531</ele>
        <time>2022-05-21 17:03:17</time>
      </trkpt>
      <trkpt lat="42.38082" lon="2.70961">
        <ele>531</ele>
        <time>2022-05-21 17:03:18</time>
      </trkpt>
      <trkpt lat="42.3808" lon="2.7096">
        <ele>531.2</ele>
        <time>2022-05-21 17:03:19</time>
      </trkpt>
      <trkpt lat="42.38078" lon="2.70958">
        <ele>531.4</ele>
        <time>2022-05-21 17:03:20</time>
      </trkpt>
      <trkpt lat="42.38077" lon="2.70956">
        <ele>531.6</ele>
        <time>2022-05-21 17:03:21</time>
      </trkpt>
      <trkpt lat="42.38075" lon="2.70954">
        <ele>531.6</ele>
        <time>2022-05-21 17:03:22</time>
      </trkpt>
      <trkpt lat="42.38073" lon="2.70952">
        <ele>531.8</ele>
        <time>2022-05-21 17:03:23</time>
      </trkpt>
      <trkpt lat="42.38071" lon="2.70951">
        <ele>532</ele>
        <time>2022-05-21 17:03:24</time>
      </trkpt>
      <trkpt lat="42.38069" lon="2.70948">
        <ele>532.2</ele>
        <time>2022-05-21 17:03:25</time>
      </trkpt>
      <trkpt lat="42.38067" lon="2.70946">
        <ele>532.4</ele>
        <time>2022-05-21 17:03:26</time>
      </trkpt>
      <trkpt lat="42.38065" lon="2.70944">
        <ele>532.4</ele>
        <time>2022-05-21 17:03:27</time>
      </trkpt>
      <trkpt lat="42.38063" lon="2.70942">
        <ele>532.6</ele>
        <time>2022-05-21 17:03:28</time>
      </trkpt>
      <trkpt lat="42.38061" lon="2.7094">
        <ele>532.8</ele>
        <time>2022-05-21 17:03:29</time>
      </trkpt>
      <trkpt lat="42.38059" lon="2.70938">
        <ele>533</ele>
        <time>2022-05-21 17:03:30</time>
      </trkpt>
      <trkpt lat="42.38058" lon="2.70936">
        <ele>533.2</ele>
        <time>2022-05-21 17:03:31</time>
      </trkpt>
      <trkpt lat="42.38056" lon="2.70934">
        <ele>533.4</ele>
        <time>2022-05-21 17:03:32</time>
      </trkpt>
      <trkpt lat="42.38054" lon="2.70932">
        <ele>533.6</ele>
        <time>2022-05-21 17:03:33</time>
      </trkpt>
      <trkpt lat="42.38052" lon="2.7093">
        <ele>533.8</ele>
        <time>2022-05-21 17:03:34</time>
      </trkpt>
      <trkpt lat="42.3805" lon="2.70928">
        <ele>534</ele>
        <time>2022-05-21 17:03:35</time>
      </trkpt>
      <trkpt lat="42.38049" lon="2.70927">
        <ele>534</ele>
        <time>2022-05-21 17:03:36</time>
      </trkpt>
      <trkpt lat="42.38047" lon="2.70925">
        <ele>534.2</ele>
        <time>2022-05-21 17:03:37</time>
      </trkpt>
      <trkpt lat="42.38046" lon="2.70923">
        <ele>534.4</ele>
        <time>2022-05-21 17:03:38</time>
      </trkpt>
      <trkpt lat="42.38044" lon="2.70921">
        <ele>534.6</ele>
        <time>2022-05-21 17:03:39</time>
      </trkpt>
      <trkpt lat="42.38043" lon="2.70919">
        <ele>534.8</ele>
        <time>2022-05-21 17:03:40</time>
      </trkpt>
      <trkpt lat="42.38041" lon="2.70917">
        <ele>534.8</ele>
        <time>2022-05-21 17:03:41</time>
      </trkpt>
      <trkpt lat="42.3804" lon="2.70915">
        <ele>535</ele>
        <time>2022-05-21 17:03:42</time>
      </trkpt>
      <trkpt lat="42.38039" lon="2.70913">
        <ele>535.2</ele>
        <time>2022-05-21 17:03:43</time>
      </trkpt>
      <trkpt lat="42.38037" lon="2.70911">
        <ele>535.4</ele>
        <time>2022-05-21 17:03:44</time>
      </trkpt>
      <trkpt lat="42.38036" lon="2.70909">
        <ele>535.4</ele>
        <time>2022-05-21 17:03:45</time>
      </trkpt>
      <trkpt lat="42.38034" lon="2.70907">
        <ele>535.6</ele>
        <time>2022-05-21 17:03:46</time>
      </trkpt>
      <trkpt lat="42.38033" lon="2.70904">
        <ele>535.8</ele>
        <time>2022-05-21 17:03:47</time>
      </trkpt>
      <trkpt lat="42.38031" lon="2.70902">
        <ele>535.8</ele>
        <time>2022-05-21 17:03:48</time>
      </trkpt>
      <trkpt lat="42.3803" lon="2.709">
        <ele>536</ele>
        <time>2022-05-21 17:03:49</time>
      </trkpt>
      <trkpt lat="42.38029" lon="2.70897">
        <ele>536.2</ele>
        <time>2022-05-21 17:03:50</time>
      </trkpt>
      <trkpt lat="42.38027" lon="2.70895">
        <ele>536.4</ele>
        <time>2022-05-21 17:03:51</time>
      </trkpt>
      <trkpt lat="42.38026" lon="2.70892">
        <ele>536.4</ele>
        <time>2022-05-21 17:03:52</time>
      </trkpt>
      <trkpt lat="42.38025" lon="2.7089">
        <ele>536.6</ele>
        <time>2022-05-21 17:03:53</time>
      </trkpt>
      <trkpt lat="42.38024" lon="2.70887">
        <ele>536.8</ele>
        <time>2022-05-21 17:03:54</time>
      </trkpt>
      <trkpt lat="42.38022" lon="2.70885">
        <ele>537</ele>
        <time>2022-05-21 17:03:55</time>
      </trkpt>
      <trkpt lat="42.38021" lon="2.70883">
        <ele>537</ele>
        <time>2022-05-21 17:03:56</time>
      </trkpt>
      <trkpt lat="42.3802" lon="2.7088">
        <ele>537.2</ele>
        <time>2022-05-21 17:03:57</time>
      </trkpt>
      <trkpt lat="42.38019" lon="2.70878">
        <ele>537.4</ele>
        <time>2022-05-21 17:03:58</time>
      </trkpt>
      <trkpt lat="42.38018" lon="2.70875">
        <ele>537.6</ele>
        <time>2022-05-21 17:03:59</time>
      </trkpt>
      <trkpt lat="42.38017" lon="2.70873">
        <ele>537.6</ele>
        <time>2022-05-21 17:04:00</time>
      </trkpt>
      <trkpt lat="42.38016" lon="2.70871">
        <ele>537.8</ele>
        <time>2022-05-21 17:04:01</time>
      </trkpt>
      <trkpt lat="42.38014" lon="2.70869">
        <ele>538</ele>
        <time>2022-05-21 17:04:02</time>
      </trkpt>
      <trkpt lat="42.38013" lon="2.70866">
        <ele>538.2</ele>
        <time>2022-05-21 17:04:03</time>
      </trkpt>
      <trkpt lat="42.38012" lon="2.70864">
        <ele>538.4</ele>
        <time>2022-05-21 17:04:04</time>
      </trkpt>
      <trkpt lat="42.38012" lon="2.70861">
        <ele>538.4</ele>
        <time>2022-05-21 17:04:05</time>
      </trkpt>
      <trkpt lat="42.38011" lon="2.70859">
        <ele>538.6</ele>
        <time>2022-05-21 17:04:06</time>
      </trkpt>
      <trkpt lat="42.3801" lon="2.70856">
        <ele>538.8</ele>
        <time>2022-05-21 17:04:07</time>
      </trkpt>
      <trkpt lat="42.38009" lon="2.70854">
        <ele>539</ele>
        <time>2022-05-21 17:04:08</time>
      </trkpt>
      <trkpt lat="42.38008" lon="2.70851">
        <ele>539</ele>
        <time>2022-05-21 17:04:09</time>
      </trkpt>
      <trkpt lat="42.38007" lon="2.70849">
        <ele>539.2</ele>
        <time>2022-05-21 17:04:10</time>
      </trkpt>
      <trkpt lat="42.38006" lon="2.70847">
        <ele>539.4</ele>
        <time>2022-05-21 17:04:11</time>
      </trkpt>
      <trkpt lat="42.38005" lon="2.70844">
        <ele>539.4</ele>
        <time>2022-05-21 17:04:12</time>
      </trkpt>
      <trkpt lat="42.38004" lon="2.70842">
        <ele>539.6</ele>
        <time>2022-05-21 17:04:13</time>
      </trkpt>
      <trkpt lat="42.38004" lon="2.7084">
        <ele>539.8</ele>
        <time>2022-05-21 17:04:14</time>
      </trkpt>
      <trkpt lat="42.38003" lon="2.70837">
        <ele>540</ele>
        <time>2022-05-21 17:04:15</time>
      </trkpt>
      <trkpt lat="42.38002" lon="2.70835">
        <ele>540</ele>
        <time>2022-05-21 17:04:16</time>
      </trkpt>
      <trkpt lat="42.38001" lon="2.70833">
        <ele>540.2</ele>
        <time>2022-05-21 17:04:17</time>
      </trkpt>
      <trkpt lat="42.38" lon="2.7083">
        <ele>540.4</ele>
        <time>2022-05-21 17:04:18</time>
      </trkpt>
      <trkpt lat="42.38" lon="2.70828">
        <ele>540.4</ele>
        <time>2022-05-21 17:04:19</time>
      </trkpt>
      <trkpt lat="42.38" lon="2.70826">
        <ele>540.6</ele>
        <time>2022-05-21 17:04:20</time>
      </trkpt>
      <trkpt lat="42.37999" lon="2.70823">
        <ele>540.8</ele>
        <time>2022-05-21 17:04:21</time>
      </trkpt>
      <trkpt lat="42.37998" lon="2.70821">
        <ele>541</ele>
        <time>2022-05-21 17:04:22</time>
      </trkpt>
      <trkpt lat="42.37998" lon="2.70819">
        <ele>541</ele>
        <time>2022-05-21 17:04:23</time>
      </trkpt>
      <trkpt lat="42.37998" lon="2.70816">
        <ele>541.2</ele>
        <time>2022-05-21 17:04:24</time>
      </trkpt>
      <trkpt lat="42.37997" lon="2.70813">
        <ele>541.4</ele>
        <time>2022-05-21 17:04:25</time>
      </trkpt>
      <trkpt lat="42.37997" lon="2.70811">
        <ele>541.6</ele>
        <time>2022-05-21 17:04:26</time>
      </trkpt>
      <trkpt lat="42.37997" lon="2.70808">
        <ele>541.8</ele>
        <time>2022-05-21 17:04:27</time>
      </trkpt>
      <trkpt lat="42.37996" lon="2.70806">
        <ele>541.8</ele>
        <time>2022-05-21 17:04:28</time>
      </trkpt>
      <trkpt lat="42.37996" lon="2.70803">
        <ele>542</ele>
        <time>2022-05-21 17:04:29</time>
      </trkpt>
      <trkpt lat="42.37996" lon="2.70801">
        <ele>542.2</ele>
        <time>2022-05-21 17:04:30</time>
      </trkpt>
      <trkpt lat="42.37996" lon="2.70798">
        <ele>542.4</ele>
        <time>2022-05-21 17:04:31</time>
      </trkpt>
      <trkpt lat="42.37996" lon="2.70796">
        <ele>542.6</ele>
        <time>2022-05-21 17:04:32</time>
      </trkpt>
      <trkpt lat="42.37995" lon="2.70794">
        <ele>542.6</ele>
        <time>2022-05-21 17:04:33</time>
      </trkpt>
      <trkpt lat="42.37995" lon="2.70791">
        <ele>542.8</ele>
        <time>2022-05-21 17:04:34</time>
      </trkpt>
      <trkpt lat="42.37995" lon="2.70789">
        <ele>543</ele>
        <time>2022-05-21 17:04:35</time>
      </trkpt>
      <trkpt lat="42.37995" lon="2.70786">
        <ele>543</ele>
        <time>2022-05-21 17:04:36</time>
      </trkpt>
      <trkpt lat="42.37995" lon="2.70784">
        <ele>543.2</ele>
        <time>2022-05-21 17:04:37</time>
      </trkpt>
      <trkpt lat="42.37995" lon="2.70781">
        <ele>543.4</ele>
        <time>2022-05-21 17:04:38</time>
      </trkpt>
      <trkpt lat="42.37995" lon="2.70778">
        <ele>543.6</ele>
        <time>2022-05-21 17:04:39</time>
      </trkpt>
      <trkpt lat="42.37995" lon="2.70776">
        <ele>543.8</ele>
        <time>2022-05-21 17:04:40</time>
      </trkpt>
      <trkpt lat="42.37995" lon="2.70773">
        <ele>543.8</ele>
        <time>2022-05-21 17:04:41</time>
      </trkpt>
      <trkpt lat="42.37995" lon="2.70771">
        <ele>544</ele>
        <time>2022-05-21 17:04:42</time>
      </trkpt>
      <trkpt lat="42.37996" lon="2.70769">
        <ele>544.2</ele>
        <time>2022-05-21 17:04:43</time>
      </trkpt>
      <trkpt lat="42.37996" lon="2.70766">
        <ele>544.4</ele>
        <time>2022-05-21 17:04:44</time>
      </trkpt>
      <trkpt lat="42.37996" lon="2.70764">
        <ele>544.4</ele>
        <time>2022-05-21 17:04:45</time>
      </trkpt>
      <trkpt lat="42.37997" lon="2.70761">
        <ele>544.6</ele>
        <time>2022-05-21 17:04:46</time>
      </trkpt>
      <trkpt lat="42.37997" lon="2.70759">
        <ele>544.8</ele>
        <time>2022-05-21 17:04:47</time>
      </trkpt>
      <trkpt lat="42.37998" lon="2.70757">
        <ele>545</ele>
        <time>2022-05-21 17:04:48</time>
      </trkpt>
      <trkpt lat="42.37998" lon="2.70754">
        <ele>545</ele>
        <time>2022-05-21 17:04:49</time>
      </trkpt>
      <trkpt lat="42.37999" lon="2.70752">
        <ele>545.2</ele>
        <time>2022-05-21 17:04:50</time>
      </trkpt>
      <trkpt lat="42.38" lon="2.7075">
        <ele>545.2</ele>
        <time>2022-05-21 17:04:51</time>
      </trkpt>
      <trkpt lat="42.38" lon="2.70748">
        <ele>545.4</ele>
        <time>2022-05-21 17:04:52</time>
      </trkpt>
      <trkpt lat="42.38001" lon="2.70746">
        <ele>545.6</ele>
        <time>2022-05-21 17:04:53</time>
      </trkpt>
      <trkpt lat="42.38002" lon="2.70744">
        <ele>545.6</ele>
        <time>2022-05-21 17:04:54</time>
      </trkpt>
      <trkpt lat="42.38003" lon="2.70741">
        <ele>545.8</ele>
        <time>2022-05-21 17:04:55</time>
      </trkpt>
      <trkpt lat="42.38003" lon="2.70739">
        <ele>545.8</ele>
        <time>2022-05-21 17:04:56</time>
      </trkpt>
      <trkpt lat="42.38004" lon="2.70737">
        <ele>546</ele>
        <time>2022-05-21 17:04:57</time>
      </trkpt>
      <trkpt lat="42.38005" lon="2.70735">
        <ele>546.2</ele>
        <time>2022-05-21 17:04:58</time>
      </trkpt>
      <trkpt lat="42.38005" lon="2.70733">
        <ele>546.4</ele>
        <time>2022-05-21 17:04:59</time>
      </trkpt>
      <trkpt lat="42.38006" lon="2.7073">
        <ele>546.4</ele>
        <time>2022-05-21 17:05:00</time>
      </trkpt>
      <trkpt lat="42.38007" lon="2.70728">
        <ele>546.6</ele>
        <time>2022-05-21 17:05:01</time>
      </trkpt>
      <trkpt lat="42.38008" lon="2.70726">
        <ele>546.8</ele>
        <time>2022-05-21 17:05:02</time>
      </trkpt>
      <trkpt lat="42.38009" lon="2.70724">
        <ele>546.8</ele>
        <time>2022-05-21 17:05:03</time>
      </trkpt>
      <trkpt lat="42.38011" lon="2.70722">
        <ele>547</ele>
        <time>2022-05-21 17:05:04</time>
      </trkpt>
      <trkpt lat="42.38012" lon="2.7072">
        <ele>547.2</ele>
        <time>2022-05-21 17:05:05</time>
      </trkpt>
      <trkpt lat="42.38013" lon="2.70718">
        <ele>547.4</ele>
        <time>2022-05-21 17:05:06</time>
      </trkpt>
      <trkpt lat="42.38014" lon="2.70716">
        <ele>547.4</ele>
        <time>2022-05-21 17:05:07</time>
      </trkpt>
      <trkpt lat="42.38016" lon="2.70714">
        <ele>547.6</ele>
        <time>2022-05-21 17:05:08</time>
      </trkpt>
      <trkpt lat="42.38017" lon="2.70712">
        <ele>547.8</ele>
        <time>2022-05-21 17:05:09</time>
      </trkpt>
      <trkpt lat="42.38019" lon="2.7071">
        <ele>547.8</ele>
        <time>2022-05-21 17:05:10</time>
      </trkpt>
      <trkpt lat="42.3802" lon="2.70708">
        <ele>548</ele>
        <time>2022-05-21 17:05:11</time>
      </trkpt>
      <trkpt lat="42.38021" lon="2.70706">
        <ele>548.2</ele>
        <time>2022-05-21 17:05:12</time>
      </trkpt>
      <trkpt lat="42.38022" lon="2.70704">
        <ele>548.4</ele>
        <time>2022-05-21 17:05:13</time>
      </trkpt>
      <trkpt lat="42.38023" lon="2.70702">
        <ele>548.4</ele>
        <time>2022-05-21 17:05:14</time>
      </trkpt>
      <trkpt lat="42.38025" lon="2.707">
        <ele>548.6</ele>
        <time>2022-05-21 17:05:15</time>
      </trkpt>
      <trkpt lat="42.38026" lon="2.70698">
        <ele>548.8</ele>
        <time>2022-05-21 17:05:16</time>
      </trkpt>
      <trkpt lat="42.38026" lon="2.70696">
        <ele>549</ele>
        <time>2022-05-21 17:05:17</time>
      </trkpt>
      <trkpt lat="42.38028" lon="2.70693">
        <ele>549</ele>
        <time>2022-05-21 17:05:18</time>
      </trkpt>
      <trkpt lat="42.38028" lon="2.70691">
        <ele>549.2</ele>
        <time>2022-05-21 17:05:19</time>
      </trkpt>
      <trkpt lat="42.3803" lon="2.70689">
        <ele>549.4</ele>
        <time>2022-05-21 17:05:20</time>
      </trkpt>
      <trkpt lat="42.38031" lon="2.70687">
        <ele>549.6</ele>
        <time>2022-05-21 17:05:21</time>
      </trkpt>
      <trkpt lat="42.38033" lon="2.70685">
        <ele>549.6</ele>
        <time>2022-05-21 17:05:22</time>
      </trkpt>
      <trkpt lat="42.38034" lon="2.70683">
        <ele>549.8</ele>
        <time>2022-05-21 17:05:23</time>
      </trkpt>
      <trkpt lat="42.38035" lon="2.70681">
        <ele>550</ele>
        <time>2022-05-21 17:05:24</time>
      </trkpt>
      <trkpt lat="42.38036" lon="2.70679">
        <ele>550.2</ele>
        <time>2022-05-21 17:05:25</time>
      </trkpt>
      <trkpt lat="42.38037" lon="2.70677">
        <ele>550.2</ele>
        <time>2022-05-21 17:05:26</time>
      </trkpt>
      <trkpt lat="42.38038" lon="2.70675">
        <ele>550.4</ele>
        <time>2022-05-21 17:05:27</time>
      </trkpt>
      <trkpt lat="42.3804" lon="2.70674">
        <ele>550.6</ele>
        <time>2022-05-21 17:05:28</time>
      </trkpt>
      <trkpt lat="42.38041" lon="2.70672">
        <ele>550.6</ele>
        <time>2022-05-21 17:05:29</time>
      </trkpt>
      <trkpt lat="42.38042" lon="2.7067">
        <ele>550.8</ele>
        <time>2022-05-21 17:05:30</time>
      </trkpt>
      <trkpt lat="42.38043" lon="2.70668">
        <ele>551</ele>
        <time>2022-05-21 17:05:31</time>
      </trkpt>
      <trkpt lat="42.38045" lon="2.70667">
        <ele>551.2</ele>
        <time>2022-05-21 17:05:32</time>
      </trkpt>
      <trkpt lat="42.38046" lon="2.70665">
        <ele>551.2</ele>
        <time>2022-05-21 17:05:33</time>
      </trkpt>
      <trkpt lat="42.38047" lon="2.70663">
        <ele>551.4</ele>
        <time>2022-05-21 17:05:34</time>
      </trkpt>
      <trkpt lat="42.38048" lon="2.70661">
        <ele>551.6</ele>
        <time>2022-05-21 17:05:35</time>
      </trkpt>
      <trkpt lat="42.3805" lon="2.70659">
        <ele>551.6</ele>
        <time>2022-05-21 17:05:36</time>
      </trkpt>
      <trkpt lat="42.38051" lon="2.70658">
        <ele>551.8</ele>
        <time>2022-05-21 17:05:37</time>
      </trkpt>
      <trkpt lat="42.38052" lon="2.70656">
        <ele>552</ele>
        <time>2022-05-21 17:05:38</time>
      </trkpt>
      <trkpt lat="42.38054" lon="2.70654">
        <ele>552.2</ele>
        <time>2022-05-21 17:05:39</time>
      </trkpt>
      <trkpt lat="42.38055" lon="2.70652">
        <ele>552.4</ele>
        <time>2022-05-21 17:05:40</time>
      </trkpt>
      <trkpt lat="42.38056" lon="2.70651">
        <ele>552.4</ele>
        <time>2022-05-21 17:05:41</time>
      </trkpt>
      <trkpt lat="42.38057" lon="2.70649">
        <ele>552.6</ele>
        <time>2022-05-21 17:05:42</time>
      </trkpt>
      <trkpt lat="42.38058" lon="2.70647">
        <ele>552.8</ele>
        <time>2022-05-21 17:05:43</time>
      </trkpt>
      <trkpt lat="42.38059" lon="2.70645">
        <ele>553</ele>
        <time>2022-05-21 17:05:44</time>
      </trkpt>
      <trkpt lat="42.38061" lon="2.70643">
        <ele>553</ele>
        <time>2022-05-21 17:05:45</time>
      </trkpt>
      <trkpt lat="42.38062" lon="2.70641">
        <ele>553.2</ele>
        <time>2022-05-21 17:05:46</time>
      </trkpt>
      <trkpt lat="42.38063" lon="2.70638">
        <ele>553.4</ele>
        <time>2022-05-21 17:05:47</time>
      </trkpt>
      <trkpt lat="42.38064" lon="2.70637">
        <ele>553.4</ele>
        <time>2022-05-21 17:05:48</time>
      </trkpt>
      <trkpt lat="42.38065" lon="2.70635">
        <ele>553.6</ele>
        <time>2022-05-21 17:05:49</time>
      </trkpt>
      <trkpt lat="42.38066" lon="2.70632">
        <ele>553.8</ele>
        <time>2022-05-21 17:05:50</time>
      </trkpt>
      <trkpt lat="42.38068" lon="2.70631">
        <ele>553.8</ele>
        <time>2022-05-21 17:05:51</time>
      </trkpt>
      <trkpt lat="42.38069" lon="2.70629">
        <ele>554</ele>
        <time>2022-05-21 17:05:52</time>
      </trkpt>
      <trkpt lat="42.3807" lon="2.70627">
        <ele>554.2</ele>
        <time>2022-05-21 17:05:53</time>
      </trkpt>
      <trkpt lat="42.38071" lon="2.70625">
        <ele>554.4</ele>
        <time>2022-05-21 17:05:54</time>
      </trkpt>
      <trkpt lat="42.38073" lon="2.70624">
        <ele>554.4</ele>
        <time>2022-05-21 17:05:55</time>
      </trkpt>
      <trkpt lat="42.38074" lon="2.70622">
        <ele>554.6</ele>
        <time>2022-05-21 17:05:56</time>
      </trkpt>
      <trkpt lat="42.38075" lon="2.7062">
        <ele>554.8</ele>
        <time>2022-05-21 17:05:57</time>
      </trkpt>
      <trkpt lat="42.38077" lon="2.70619">
        <ele>554.8</ele>
        <time>2022-05-21 17:05:58</time>
      </trkpt>
      <trkpt lat="42.38078" lon="2.70617">
        <ele>555</ele>
        <time>2022-05-21 17:05:59</time>
      </trkpt>
      <trkpt lat="42.38079" lon="2.70615">
        <ele>555.2</ele>
        <time>2022-05-21 17:06:00</time>
      </trkpt>
      <trkpt lat="42.38081" lon="2.70613">
        <ele>555.4</ele>
        <time>2022-05-21 17:06:01</time>
      </trkpt>
      <trkpt lat="42.38082" lon="2.70611">
        <ele>555.6</ele>
        <time>2022-05-21 17:06:02</time>
      </trkpt>
      <trkpt lat="42.38083" lon="2.70609">
        <ele>555.6</ele>
        <time>2022-05-21 17:06:03</time>
      </trkpt>
      <trkpt lat="42.38084" lon="2.70607">
        <ele>555.8</ele>
        <time>2022-05-21 17:06:04</time>
      </trkpt>
      <trkpt lat="42.38085" lon="2.70605">
        <ele>556</ele>
        <time>2022-05-21 17:06:05</time>
      </trkpt>
      <trkpt lat="42.38087" lon="2.70603">
        <ele>556.2</ele>
        <time>2022-05-21 17:06:06</time>
      </trkpt>
      <trkpt lat="42.38089" lon="2.70601">
        <ele>556.2</ele>
        <time>2022-05-21 17:06:07</time>
      </trkpt>
      <trkpt lat="42.3809" lon="2.70599">
        <ele>556.4</ele>
        <time>2022-05-21 17:06:08</time>
      </trkpt>
      <trkpt lat="42.38091" lon="2.70597">
        <ele>556.6</ele>
        <time>2022-05-21 17:06:09</time>
      </trkpt>
      <trkpt lat="42.38092" lon="2.70595">
        <ele>556.6</ele>
        <time>2022-05-21 17:06:10</time>
      </trkpt>
      <trkpt lat="42.38093" lon="2.70593">
        <ele>556.8</ele>
        <time>2022-05-21 17:06:11</time>
      </trkpt>
      <trkpt lat="42.38094" lon="2.70591">
        <ele>557</ele>
        <time>2022-05-21 17:06:12</time>
      </trkpt>
      <trkpt lat="42.38095" lon="2.70588">
        <ele>557.2</ele>
        <time>2022-05-21 17:06:13</time>
      </trkpt>
      <trkpt lat="42.38096" lon="2.70585">
        <ele>557.2</ele>
        <time>2022-05-21 17:06:14</time>
      </trkpt>
      <trkpt lat="42.38097" lon="2.70583">
        <ele>557.4</ele>
        <time>2022-05-21 17:06:15</time>
      </trkpt>
      <trkpt lat="42.38098" lon="2.7058">
        <ele>557.6</ele>
        <time>2022-05-21 17:06:16</time>
      </trkpt>
      <trkpt lat="42.381" lon="2.70578">
        <ele>557.6</ele>
        <time>2022-05-21 17:06:17</time>
      </trkpt>
      <trkpt lat="42.38102" lon="2.70577">
        <ele>557.8</ele>
        <time>2022-05-21 17:06:18</time>
      </trkpt>
      <trkpt lat="42.38103" lon="2.70575">
        <ele>558</ele>
        <time>2022-05-21 17:06:19</time>
      </trkpt>
      <trkpt lat="42.38104" lon="2.70573">
        <ele>558.2</ele>
        <time>2022-05-21 17:06:20</time>
      </trkpt>
      <trkpt lat="42.38105" lon="2.7057">
        <ele>558.2</ele>
        <time>2022-05-21 17:06:21</time>
      </trkpt>
      <trkpt lat="42.38106" lon="2.70568">
        <ele>558.4</ele>
        <time>2022-05-21 17:06:22</time>
      </trkpt>
      <trkpt lat="42.38107" lon="2.70566">
        <ele>558.6</ele>
        <time>2022-05-21 17:06:23</time>
      </trkpt>
      <trkpt lat="42.38109" lon="2.70564">
        <ele>558.8</ele>
        <time>2022-05-21 17:06:24</time>
      </trkpt>
      <trkpt lat="42.3811" lon="2.70562">
        <ele>558.8</ele>
        <time>2022-05-21 17:06:25</time>
      </trkpt>
      <trkpt lat="42.38111" lon="2.7056">
        <ele>559</ele>
        <time>2022-05-21 17:06:26</time>
      </trkpt>
      <trkpt lat="42.38112" lon="2.70558">
        <ele>559.2</ele>
        <time>2022-05-21 17:06:27</time>
      </trkpt>
      <trkpt lat="42.38113" lon="2.70557">
        <ele>559.2</ele>
        <time>2022-05-21 17:06:28</time>
      </trkpt>
      <trkpt lat="42.38114" lon="2.70555">
        <ele>559.4</ele>
        <time>2022-05-21 17:06:29</time>
      </trkpt>
      <trkpt lat="42.38116" lon="2.70553">
        <ele>559.6</ele>
        <time>2022-05-21 17:06:30</time>
      </trkpt>
      <trkpt lat="42.38117" lon="2.70551">
        <ele>559.6</ele>
        <time>2022-05-21 17:06:31</time>
      </trkpt>
      <trkpt lat="42.38117" lon="2.7055">
        <ele>559.8</ele>
        <time>2022-05-21 17:06:32</time>
      </trkpt>
      <trkpt lat="42.38119" lon="2.70548">
        <ele>560</ele>
        <time>2022-05-21 17:06:33</time>
      </trkpt>
      <trkpt lat="42.3812" lon="2.70546">
        <ele>560</ele>
        <time>2022-05-21 17:06:34</time>
      </trkpt>
      <trkpt lat="42.3812" lon="2.70545">
        <ele>560.2</ele>
        <time>2022-05-21 17:06:35</time>
      </trkpt>
      <trkpt lat="42.38121" lon="2.70543">
        <ele>560.4</ele>
        <time>2022-05-21 17:06:36</time>
      </trkpt>
      <trkpt lat="42.38122" lon="2.70541">
        <ele>560.4</ele>
        <time>2022-05-21 17:06:37</time>
      </trkpt>
      <trkpt lat="42.38123" lon="2.70539">
        <ele>560.6</ele>
        <time>2022-05-21 17:06:38</time>
      </trkpt>
      <trkpt lat="42.38124" lon="2.70537">
        <ele>560.8</ele>
        <time>2022-05-21 17:06:39</time>
      </trkpt>
      <trkpt lat="42.38125" lon="2.70535">
        <ele>561</ele>
        <time>2022-05-21 17:06:40</time>
      </trkpt>
      <trkpt lat="42.38125" lon="2.70533">
        <ele>561</ele>
        <time>2022-05-21 17:06:41</time>
      </trkpt>
      <trkpt lat="42.38126" lon="2.7053">
        <ele>561.2</ele>
        <time>2022-05-21 17:06:42</time>
      </trkpt>
      <trkpt lat="42.38126" lon="2.70528">
        <ele>561.4</ele>
        <time>2022-05-21 17:06:43</time>
      </trkpt>
      <trkpt lat="42.38127" lon="2.70526">
        <ele>561.4</ele>
        <time>2022-05-21 17:06:44</time>
      </trkpt>
      <trkpt lat="42.38129" lon="2.70525">
        <ele>561.6</ele>
        <time>2022-05-21 17:06:45</time>
      </trkpt>
      <trkpt lat="42.3813" lon="2.70523">
        <ele>561.8</ele>
        <time>2022-05-21 17:06:46</time>
      </trkpt>
      <trkpt lat="42.38131" lon="2.70521">
        <ele>561.8</ele>
        <time>2022-05-21 17:06:47</time>
      </trkpt>
      <trkpt lat="42.38133" lon="2.70519">
        <ele>562</ele>
        <time>2022-05-21 17:06:48</time>
      </trkpt>
      <trkpt lat="42.38134" lon="2.70517">
        <ele>562</ele>
        <time>2022-05-21 17:06:49</time>
      </trkpt>
      <trkpt lat="42.38135" lon="2.70515">
        <ele>562.2</ele>
        <time>2022-05-21 17:06:50</time>
      </trkpt>
      <trkpt lat="42.38136" lon="2.70513">
        <ele>562.4</ele>
        <time>2022-05-21 17:06:51</time>
      </trkpt>
      <trkpt lat="42.38138" lon="2.70511">
        <ele>562.4</ele>
        <time>2022-05-21 17:06:52</time>
      </trkpt>
      <trkpt lat="42.38139" lon="2.70509">
        <ele>562.6</ele>
        <time>2022-05-21 17:06:53</time>
      </trkpt>
      <trkpt lat="42.3814" lon="2.70507">
        <ele>562.8</ele>
        <time>2022-05-21 17:06:54</time>
      </trkpt>
      <trkpt lat="42.38142" lon="2.70505">
        <ele>562.8</ele>
        <time>2022-05-21 17:06:55</time>
      </trkpt>
      <trkpt lat="42.38142" lon="2.70503">
        <ele>563</ele>
        <time>2022-05-21 17:06:56</time>
      </trkpt>
      <trkpt lat="42.38143" lon="2.70501">
        <ele>563</ele>
        <time>2022-05-21 17:06:57</time>
      </trkpt>
      <trkpt lat="42.38144" lon="2.70498">
        <ele>563.2</ele>
        <time>2022-05-21 17:06:58</time>
      </trkpt>
      <trkpt lat="42.38145" lon="2.70496">
        <ele>563.2</ele>
        <time>2022-05-21 17:06:59</time>
      </trkpt>
      <trkpt lat="42.38146" lon="2.70494">
        <ele>563.4</ele>
        <time>2022-05-21 17:07:00</time>
      </trkpt>
      <trkpt lat="42.38147" lon="2.70492">
        <ele>563.4</ele>
        <time>2022-05-21 17:07:01</time>
      </trkpt>
      <trkpt lat="42.38148" lon="2.70489">
        <ele>563.6</ele>
        <time>2022-05-21 17:07:02</time>
      </trkpt>
      <trkpt lat="42.38149" lon="2.70487">
        <ele>563.6</ele>
        <time>2022-05-21 17:07:03</time>
      </trkpt>
      <trkpt lat="42.38149" lon="2.70485">
        <ele>563.8</ele>
        <time>2022-05-21 17:07:04</time>
      </trkpt>
      <trkpt lat="42.3815" lon="2.70482">
        <ele>564</ele>
        <time>2022-05-21 17:07:05</time>
      </trkpt>
      <trkpt lat="42.38151" lon="2.70479">
        <ele>564</ele>
        <time>2022-05-21 17:07:06</time>
      </trkpt>
      <trkpt lat="42.38152" lon="2.70477">
        <ele>564</ele>
        <time>2022-05-21 17:07:07</time>
      </trkpt>
      <trkpt lat="42.38152" lon="2.70474">
        <ele>564.2</ele>
        <time>2022-05-21 17:07:08</time>
      </trkpt>
      <trkpt lat="42.38153" lon="2.70471">
        <ele>564.2</ele>
        <time>2022-05-21 17:07:09</time>
      </trkpt>
      <trkpt lat="42.38154" lon="2.70468">
        <ele>564.4</ele>
        <time>2022-05-21 17:07:10</time>
      </trkpt>
      <trkpt lat="42.38154" lon="2.70464">
        <ele>564.4</ele>
        <time>2022-05-21 17:07:11</time>
      </trkpt>
      <trkpt lat="42.38154" lon="2.70461">
        <ele>564.6</ele>
        <time>2022-05-21 17:07:12</time>
      </trkpt>
      <trkpt lat="42.38155" lon="2.70458">
        <ele>564.6</ele>
        <time>2022-05-21 17:07:13</time>
      </trkpt>
      <trkpt lat="42.38155" lon="2.70454">
        <ele>564.8</ele>
        <time>2022-05-21 17:07:14</time>
      </trkpt>
      <trkpt lat="42.38155" lon="2.7045">
        <ele>564.8</ele>
        <time>2022-05-21 17:07:15</time>
      </trkpt>
      <trkpt lat="42.38155" lon="2.70446">
        <ele>565</ele>
        <time>2022-05-21 17:07:16</time>
      </trkpt>
      <trkpt lat="42.38155" lon="2.70442">
        <ele>565.2</ele>
        <time>2022-05-21 17:07:17</time>
      </trkpt>
      <trkpt lat="42.38155" lon="2.70438">
        <ele>565.2</ele>
        <time>2022-05-21 17:07:18</time>
      </trkpt>
      <trkpt lat="42.38154" lon="2.70435">
        <ele>565.4</ele>
        <time>2022-05-21 17:07:19</time>
      </trkpt>
      <trkpt lat="42.38154" lon="2.70431">
        <ele>565.6</ele>
        <time>2022-05-21 17:07:20</time>
      </trkpt>
      <trkpt lat="42.38153" lon="2.70428">
        <ele>565.6</ele>
        <time>2022-05-21 17:07:21</time>
      </trkpt>
      <trkpt lat="42.38152" lon="2.70424">
        <ele>565.8</ele>
        <time>2022-05-21 17:07:22</time>
      </trkpt>
      <trkpt lat="42.38151" lon="2.70421">
        <ele>565.8</ele>
        <time>2022-05-21 17:07:23</time>
      </trkpt>
      <trkpt lat="42.3815" lon="2.70417">
        <ele>566</ele>
        <time>2022-05-21 17:07:24</time>
      </trkpt>
      <trkpt lat="42.38149" lon="2.70413">
        <ele>566</ele>
        <time>2022-05-21 17:07:25</time>
      </trkpt>
      <trkpt lat="42.38149" lon="2.7041">
        <ele>566.2</ele>
        <time>2022-05-21 17:07:26</time>
      </trkpt>
      <trkpt lat="42.38148" lon="2.70407">
        <ele>566.4</ele>
        <time>2022-05-21 17:07:27</time>
      </trkpt>
      <trkpt lat="42.38146" lon="2.70403">
        <ele>566.4</ele>
        <time>2022-05-21 17:07:28</time>
      </trkpt>
      <trkpt lat="42.38145" lon="2.704">
        <ele>566.4</ele>
        <time>2022-05-21 17:07:29</time>
      </trkpt>
      <trkpt lat="42.38144" lon="2.70397">
        <ele>566.6</ele>
        <time>2022-05-21 17:07:30</time>
      </trkpt>
      <trkpt lat="42.38144" lon="2.70393">
        <ele>566.6</ele>
        <time>2022-05-21 17:07:31</time>
      </trkpt>
      <trkpt lat="42.38143" lon="2.7039">
        <ele>566.8</ele>
        <time>2022-05-21 17:07:32</time>
      </trkpt>
      <trkpt lat="42.38142" lon="2.70387">
        <ele>566.8</ele>
        <time>2022-05-21 17:07:33</time>
      </trkpt>
      <trkpt lat="42.3814" lon="2.70384">
        <ele>567</ele>
        <time>2022-05-21 17:07:34</time>
      </trkpt>
      <trkpt lat="42.38138" lon="2.70382">
        <ele>567</ele>
        <time>2022-05-21 17:07:35</time>
      </trkpt>
      <trkpt lat="42.38136" lon="2.70379">
        <ele>567.2</ele>
        <time>2022-05-21 17:07:36</time>
      </trkpt>
      <trkpt lat="42.38133" lon="2.70377">
        <ele>567.2</ele>
        <time>2022-05-21 17:07:37</time>
      </trkpt>
      <trkpt lat="42.38132" lon="2.70374">
        <ele>567.2</ele>
        <time>2022-05-21 17:07:38</time>
      </trkpt>
      <trkpt lat="42.3813" lon="2.70371">
        <ele>567.4</ele>
        <time>2022-05-21 17:07:39</time>
      </trkpt>
      <trkpt lat="42.38128" lon="2.70368">
        <ele>567.4</ele>
        <time>2022-05-21 17:07:40</time>
      </trkpt>
      <trkpt lat="42.38127" lon="2.70365">
        <ele>567.6</ele>
        <time>2022-05-21 17:07:41</time>
      </trkpt>
      <trkpt lat="42.38126" lon="2.70362">
        <ele>567.8</ele>
        <time>2022-05-21 17:07:42</time>
      </trkpt>
      <trkpt lat="42.38124" lon="2.70359">
        <ele>567.8</ele>
        <time>2022-05-21 17:07:43</time>
      </trkpt>
      <trkpt lat="42.38122" lon="2.70356">
        <ele>568</ele>
        <time>2022-05-21 17:07:44</time>
      </trkpt>
      <trkpt lat="42.38121" lon="2.70353">
        <ele>568</ele>
        <time>2022-05-21 17:07:45</time>
      </trkpt>
      <trkpt lat="42.38119" lon="2.7035">
        <ele>568.2</ele>
        <time>2022-05-21 17:07:46</time>
      </trkpt>
      <trkpt lat="42.38117" lon="2.70347">
        <ele>568.2</ele>
        <time>2022-05-21 17:07:47</time>
      </trkpt>
      <trkpt lat="42.38115" lon="2.70344">
        <ele>568.4</ele>
        <time>2022-05-21 17:07:48</time>
      </trkpt>
      <trkpt lat="42.38113" lon="2.70342">
        <ele>568.6</ele>
        <time>2022-05-21 17:07:49</time>
      </trkpt>
      <trkpt lat="42.38111" lon="2.70339">
        <ele>568.6</ele>
        <time>2022-05-21 17:07:50</time>
      </trkpt>
      <trkpt lat="42.38109" lon="2.70336">
        <ele>568.8</ele>
        <time>2022-05-21 17:07:51</time>
      </trkpt>
      <trkpt lat="42.38108" lon="2.70334">
        <ele>568.8</ele>
        <time>2022-05-21 17:07:52</time>
      </trkpt>
      <trkpt lat="42.38106" lon="2.70331">
        <ele>569</ele>
        <time>2022-05-21 17:07:53</time>
      </trkpt>
      <trkpt lat="42.38104" lon="2.70328">
        <ele>569.2</ele>
        <time>2022-05-21 17:07:54</time>
      </trkpt>
      <trkpt lat="42.38103" lon="2.70325">
        <ele>569.2</ele>
        <time>2022-05-21 17:07:55</time>
      </trkpt>
      <trkpt lat="42.38101" lon="2.70322">
        <ele>569.4</ele>
        <time>2022-05-21 17:07:56</time>
      </trkpt>
      <trkpt lat="42.38099" lon="2.70319">
        <ele>569.4</ele>
        <time>2022-05-21 17:07:57</time>
      </trkpt>
      <trkpt lat="42.38098" lon="2.70316">
        <ele>569.6</ele>
        <time>2022-05-21 17:07:58</time>
      </trkpt>
      <trkpt lat="42.38096" lon="2.70313">
        <ele>569.8</ele>
        <time>2022-05-21 17:07:59</time>
      </trkpt>
      <trkpt lat="42.38094" lon="2.7031">
        <ele>569.8</ele>
        <time>2022-05-21 17:08:00</time>
      </trkpt>
      <trkpt lat="42.38092" lon="2.70307">
        <ele>570</ele>
        <time>2022-05-21 17:08:01</time>
      </trkpt>
      <trkpt lat="42.38091" lon="2.70304">
        <ele>570</ele>
        <time>2022-05-21 17:08:02</time>
      </trkpt>
      <trkpt lat="42.38089" lon="2.70301">
        <ele>570.2</ele>
        <time>2022-05-21 17:08:03</time>
      </trkpt>
      <trkpt lat="42.38087" lon="2.70298">
        <ele>570.2</ele>
        <time>2022-05-21 17:08:04</time>
      </trkpt>
      <trkpt lat="42.38085" lon="2.70295">
        <ele>570.4</ele>
        <time>2022-05-21 17:08:05</time>
      </trkpt>
      <trkpt lat="42.38084" lon="2.70292">
        <ele>570.6</ele>
        <time>2022-05-21 17:08:06</time>
      </trkpt>
      <trkpt lat="42.38082" lon="2.7029">
        <ele>570.6</ele>
        <time>2022-05-21 17:08:07</time>
      </trkpt>
      <trkpt lat="42.3808" lon="2.70287">
        <ele>570.8</ele>
        <time>2022-05-21 17:08:08</time>
      </trkpt>
      <trkpt lat="42.38078" lon="2.70284">
        <ele>570.8</ele>
        <time>2022-05-21 17:08:09</time>
      </trkpt>
      <trkpt lat="42.38076" lon="2.70281">
        <ele>571</ele>
        <time>2022-05-21 17:08:10</time>
      </trkpt>
      <trkpt lat="42.38075" lon="2.70279">
        <ele>571</ele>
        <time>2022-05-21 17:08:11</time>
      </trkpt>
      <trkpt lat="42.38073" lon="2.70276">
        <ele>571.2</ele>
        <time>2022-05-21 17:08:12</time>
      </trkpt>
      <trkpt lat="42.38071" lon="2.70273">
        <ele>571.2</ele>
        <time>2022-05-21 17:08:13</time>
      </trkpt>
      <trkpt lat="42.38069" lon="2.7027">
        <ele>571.4</ele>
        <time>2022-05-21 17:08:14</time>
      </trkpt>
      <trkpt lat="42.38068" lon="2.70267">
        <ele>571.4</ele>
        <time>2022-05-21 17:08:15</time>
      </trkpt>
      <trkpt lat="42.38066" lon="2.70264">
        <ele>571.6</ele>
        <time>2022-05-21 17:08:16</time>
      </trkpt>
      <trkpt lat="42.38064" lon="2.70261">
        <ele>571.6</ele>
        <time>2022-05-21 17:08:17</time>
      </trkpt>
      <trkpt lat="42.38062" lon="2.70258">
        <ele>571.8</ele>
        <time>2022-05-21 17:08:18</time>
      </trkpt>
      <trkpt lat="42.38061" lon="2.70255">
        <ele>572</ele>
        <time>2022-05-21 17:08:19</time>
      </trkpt>
      <trkpt lat="42.38059" lon="2.70252">
        <ele>572</ele>
        <time>2022-05-21 17:08:20</time>
      </trkpt>
      <trkpt lat="42.38057" lon="2.7025">
        <ele>572.2</ele>
        <time>2022-05-21 17:08:21</time>
      </trkpt>
      <trkpt lat="42.38055" lon="2.70247">
        <ele>572.2</ele>
        <time>2022-05-21 17:08:22</time>
      </trkpt>
      <trkpt lat="42.38054" lon="2.70244">
        <ele>572.4</ele>
        <time>2022-05-21 17:08:23</time>
      </trkpt>
      <trkpt lat="42.38052" lon="2.70241">
        <ele>572.4</ele>
        <time>2022-05-21 17:08:24</time>
      </trkpt>
      <trkpt lat="42.3805" lon="2.70238">
        <ele>572.6</ele>
        <time>2022-05-21 17:08:25</time>
      </trkpt>
      <trkpt lat="42.38048" lon="2.70235">
        <ele>572.6</ele>
        <time>2022-05-21 17:08:26</time>
      </trkpt>
      <trkpt lat="42.38047" lon="2.70233">
        <ele>572.8</ele>
        <time>2022-05-21 17:08:27</time>
      </trkpt>
      <trkpt lat="42.38045" lon="2.7023">
        <ele>572.8</ele>
        <time>2022-05-21 17:08:28</time>
      </trkpt>
      <trkpt lat="42.38044" lon="2.70227">
        <ele>573</ele>
        <time>2022-05-21 17:08:29</time>
      </trkpt>
      <trkpt lat="42.38042" lon="2.70224">
        <ele>573</ele>
        <time>2022-05-21 17:08:30</time>
      </trkpt>
      <trkpt lat="42.38041" lon="2.70221">
        <ele>573.2</ele>
        <time>2022-05-21 17:08:31</time>
      </trkpt>
      <trkpt lat="42.38039" lon="2.70218">
        <ele>573.2</ele>
        <time>2022-05-21 17:08:32</time>
      </trkpt>
      <trkpt lat="42.38037" lon="2.70215">
        <ele>573.4</ele>
        <time>2022-05-21 17:08:33</time>
      </trkpt>
      <trkpt lat="42.38035" lon="2.70212">
        <ele>573.6</ele>
        <time>2022-05-21 17:08:34</time>
      </trkpt>
      <trkpt lat="42.38034" lon="2.7021">
        <ele>573.6</ele>
        <time>2022-05-21 17:08:35</time>
      </trkpt>
      <trkpt lat="42.38032" lon="2.70207">
        <ele>573.8</ele>
        <time>2022-05-21 17:08:36</time>
      </trkpt>
      <trkpt lat="42.3803" lon="2.70203">
        <ele>573.8</ele>
        <time>2022-05-21 17:08:37</time>
      </trkpt>
      <trkpt lat="42.38029" lon="2.702">
        <ele>574</ele>
        <time>2022-05-21 17:08:38</time>
      </trkpt>
      <trkpt lat="42.38027" lon="2.70197">
        <ele>574</ele>
        <time>2022-05-21 17:08:39</time>
      </trkpt>
      <trkpt lat="42.38025" lon="2.70194">
        <ele>574.2</ele>
        <time>2022-05-21 17:08:40</time>
      </trkpt>
      <trkpt lat="42.38023" lon="2.70191">
        <ele>574.2</ele>
        <time>2022-05-21 17:08:41</time>
      </trkpt>
      <trkpt lat="42.38021" lon="2.70187">
        <ele>574.4</ele>
        <time>2022-05-21 17:08:42</time>
      </trkpt>
      <trkpt lat="42.38019" lon="2.70184">
        <ele>574.4</ele>
        <time>2022-05-21 17:08:43</time>
      </trkpt>
      <trkpt lat="42.38017" lon="2.70181">
        <ele>574.6</ele>
        <time>2022-05-21 17:08:44</time>
      </trkpt>
      <trkpt lat="42.38014" lon="2.70177">
        <ele>574.6</ele>
        <time>2022-05-21 17:08:45</time>
      </trkpt>
      <trkpt lat="42.38012" lon="2.70174">
        <ele>574.8</ele>
        <time>2022-05-21 17:08:46</time>
      </trkpt>
      <trkpt lat="42.3801" lon="2.70171">
        <ele>575</ele>
        <time>2022-05-21 17:08:47</time>
      </trkpt>
      <trkpt lat="42.38008" lon="2.70168">
        <ele>575</ele>
        <time>2022-05-21 17:08:48</time>
      </trkpt>
      <trkpt lat="42.38007" lon="2.70165">
        <ele>575.2</ele>
        <time>2022-05-21 17:08:49</time>
      </trkpt>
      <trkpt lat="42.38005" lon="2.70162">
        <ele>575.2</ele>
        <time>2022-05-21 17:08:50</time>
      </trkpt>
      <trkpt lat="42.38004" lon="2.70158">
        <ele>575.4</ele>
        <time>2022-05-21 17:08:51</time>
      </trkpt>
      <trkpt lat="42.38003" lon="2.70155">
        <ele>575.6</ele>
        <time>2022-05-21 17:08:52</time>
      </trkpt>
      <trkpt lat="42.38001" lon="2.70151">
        <ele>575.6</ele>
        <time>2022-05-21 17:08:53</time>
      </trkpt>
      <trkpt lat="42.38" lon="2.70147">
        <ele>575.8</ele>
        <time>2022-05-21 17:08:54</time>
      </trkpt>
      <trkpt lat="42.37999" lon="2.70143">
        <ele>575.8</ele>
        <time>2022-05-21 17:08:55</time>
      </trkpt>
      <trkpt lat="42.37998" lon="2.70139">
        <ele>576</ele>
        <time>2022-05-21 17:08:56</time>
      </trkpt>
      <trkpt lat="42.37998" lon="2.70135">
        <ele>576.2</ele>
        <time>2022-05-21 17:08:57</time>
      </trkpt>
      <trkpt lat="42.37997" lon="2.70131">
        <ele>576.2</ele>
        <time>2022-05-21 17:08:58</time>
      </trkpt>
      <trkpt lat="42.37996" lon="2.70127">
        <ele>576.4</ele>
        <time>2022-05-21 17:08:59</time>
      </trkpt>
      <trkpt lat="42.37996" lon="2.70123">
        <ele>576.6</ele>
        <time>2022-05-21 17:09:00</time>
      </trkpt>
      <trkpt lat="42.37996" lon="2.70119">
        <ele>576.6</ele>
        <time>2022-05-21 17:09:01</time>
      </trkpt>
      <trkpt lat="42.37996" lon="2.70115">
        <ele>576.8</ele>
        <time>2022-05-21 17:09:02</time>
      </trkpt>
      <trkpt lat="42.37996" lon="2.70112">
        <ele>577</ele>
        <time>2022-05-21 17:09:03</time>
      </trkpt>
      <trkpt lat="42.37997" lon="2.70108">
        <ele>577.2</ele>
        <time>2022-05-21 17:09:04</time>
      </trkpt>
      <trkpt lat="42.37997" lon="2.70104">
        <ele>577.2</ele>
        <time>2022-05-21 17:09:05</time>
      </trkpt>
      <trkpt lat="42.37997" lon="2.701">
        <ele>577.4</ele>
        <time>2022-05-21 17:09:06</time>
      </trkpt>
      <trkpt lat="42.37998" lon="2.70096">
        <ele>577.4</ele>
        <time>2022-05-21 17:09:07</time>
      </trkpt>
      <trkpt lat="42.37999" lon="2.70092">
        <ele>577.6</ele>
        <time>2022-05-21 17:09:08</time>
      </trkpt>
      <trkpt lat="42.38" lon="2.70088">
        <ele>577.8</ele>
        <time>2022-05-21 17:09:09</time>
      </trkpt>
      <trkpt lat="42.38001" lon="2.70084">
        <ele>577.8</ele>
        <time>2022-05-21 17:09:10</time>
      </trkpt>
      <trkpt lat="42.38002" lon="2.7008">
        <ele>578</ele>
        <time>2022-05-21 17:09:11</time>
      </trkpt>
      <trkpt lat="42.38003" lon="2.70076">
        <ele>578</ele>
        <time>2022-05-21 17:09:12</time>
      </trkpt>
      <trkpt lat="42.38005" lon="2.70072">
        <ele>578.2</ele>
        <time>2022-05-21 17:09:13</time>
      </trkpt>
      <trkpt lat="42.38007" lon="2.70069">
        <ele>578.2</ele>
        <time>2022-05-21 17:09:14</time>
      </trkpt>
      <trkpt lat="42.38009" lon="2.70065">
        <ele>578.4</ele>
        <time>2022-05-21 17:09:15</time>
      </trkpt>
      <trkpt lat="42.38011" lon="2.70062">
        <ele>578.4</ele>
        <time>2022-05-21 17:09:16</time>
      </trkpt>
      <trkpt lat="42.38012" lon="2.70058">
        <ele>578.6</ele>
        <time>2022-05-21 17:09:17</time>
      </trkpt>
      <trkpt lat="42.38014" lon="2.70055">
        <ele>578.8</ele>
        <time>2022-05-21 17:09:18</time>
      </trkpt>
      <trkpt lat="42.38015" lon="2.70051">
        <ele>578.8</ele>
        <time>2022-05-21 17:09:19</time>
      </trkpt>
      <trkpt lat="42.38017" lon="2.70048">
        <ele>579</ele>
        <time>2022-05-21 17:09:20</time>
      </trkpt>
      <trkpt lat="42.38018" lon="2.70044">
        <ele>579.2</ele>
        <time>2022-05-21 17:09:21</time>
      </trkpt>
      <trkpt lat="42.3802" lon="2.7004">
        <ele>579.2</ele>
        <time>2022-05-21 17:09:22</time>
      </trkpt>
      <trkpt lat="42.38021" lon="2.70037">
        <ele>579.4</ele>
        <time>2022-05-21 17:09:23</time>
      </trkpt>
      <trkpt lat="42.38022" lon="2.70033">
        <ele>579.4</ele>
        <time>2022-05-21 17:09:24</time>
      </trkpt>
      <trkpt lat="42.38024" lon="2.7003">
        <ele>579.6</ele>
        <time>2022-05-21 17:09:25</time>
      </trkpt>
      <trkpt lat="42.38025" lon="2.70026">
        <ele>579.6</ele>
        <time>2022-05-21 17:09:26</time>
      </trkpt>
      <trkpt lat="42.38026" lon="2.70022">
        <ele>579.8</ele>
        <time>2022-05-21 17:09:27</time>
      </trkpt>
      <trkpt lat="42.38027" lon="2.70019">
        <ele>580</ele>
        <time>2022-05-21 17:09:28</time>
      </trkpt>
      <trkpt lat="42.38028" lon="2.70015">
        <ele>580</ele>
        <time>2022-05-21 17:09:29</time>
      </trkpt>
      <trkpt lat="42.38029" lon="2.70011">
        <ele>580.2</ele>
        <time>2022-05-21 17:09:30</time>
      </trkpt>
      <trkpt lat="42.3803" lon="2.70007">
        <ele>580.2</ele>
        <time>2022-05-21 17:09:31</time>
      </trkpt>
      <trkpt lat="42.38031" lon="2.70004">
        <ele>580.4</ele>
        <time>2022-05-21 17:09:32</time>
      </trkpt>
      <trkpt lat="42.38031" lon="2.7">
        <ele>580.6</ele>
        <time>2022-05-21 17:09:33</time>
      </trkpt>
      <trkpt lat="42.38032" lon="2.69996">
        <ele>580.6</ele>
        <time>2022-05-21 17:09:34</time>
      </trkpt>
      <trkpt lat="42.38032" lon="2.69992">
        <ele>580.8</ele>
        <time>2022-05-21 17:09:35</time>
      </trkpt>
      <trkpt lat="42.38033" lon="2.69988">
        <ele>581</ele>
        <time>2022-05-21 17:09:36</time>
      </trkpt>
      <trkpt lat="42.38033" lon="2.69984">
        <ele>581</ele>
        <time>2022-05-21 17:09:37</time>
      </trkpt>
      <trkpt lat="42.38033" lon="2.6998">
        <ele>581.2</ele>
        <time>2022-05-21 17:09:38</time>
      </trkpt>
      <trkpt lat="42.38034" lon="2.69976">
        <ele>581.4</ele>
        <time>2022-05-21 17:09:39</time>
      </trkpt>
      <trkpt lat="42.38034" lon="2.69972">
        <ele>581.6</ele>
        <time>2022-05-21 17:09:40</time>
      </trkpt>
      <trkpt lat="42.38034" lon="2.69968">
        <ele>581.6</ele>
        <time>2022-05-21 17:09:41</time>
      </trkpt>
      <trkpt lat="42.38034" lon="2.69965">
        <ele>581.8</ele>
        <time>2022-05-21 17:09:42</time>
      </trkpt>
      <trkpt lat="42.38034" lon="2.69961">
        <ele>582</ele>
        <time>2022-05-21 17:09:43</time>
      </trkpt>
      <trkpt lat="42.38034" lon="2.69957">
        <ele>582</ele>
        <time>2022-05-21 17:09:44</time>
      </trkpt>
      <trkpt lat="42.38033" lon="2.69953">
        <ele>582.2</ele>
        <time>2022-05-21 17:09:45</time>
      </trkpt>
      <trkpt lat="42.38033" lon="2.69949">
        <ele>582.4</ele>
        <time>2022-05-21 17:09:46</time>
      </trkpt>
      <trkpt lat="42.38032" lon="2.69945">
        <ele>582.6</ele>
        <time>2022-05-21 17:09:47</time>
      </trkpt>
      <trkpt lat="42.38032" lon="2.69942">
        <ele>582.8</ele>
        <time>2022-05-21 17:09:48</time>
      </trkpt>
      <trkpt lat="42.38031" lon="2.69938">
        <ele>583</ele>
        <time>2022-05-21 17:09:49</time>
      </trkpt>
      <trkpt lat="42.3803" lon="2.69935">
        <ele>583</ele>
        <time>2022-05-21 17:09:50</time>
      </trkpt>
      <trkpt lat="42.3803" lon="2.69931">
        <ele>583.2</ele>
        <time>2022-05-21 17:09:51</time>
      </trkpt>
      <trkpt lat="42.38029" lon="2.69928">
        <ele>583.4</ele>
        <time>2022-05-21 17:09:52</time>
      </trkpt>
      <trkpt lat="42.38028" lon="2.69924">
        <ele>583.6</ele>
        <time>2022-05-21 17:09:53</time>
      </trkpt>
      <trkpt lat="42.38027" lon="2.69921">
        <ele>583.8</ele>
        <time>2022-05-21 17:09:54</time>
      </trkpt>
      <trkpt lat="42.38026" lon="2.69917">
        <ele>583.8</ele>
        <time>2022-05-21 17:09:55</time>
      </trkpt>
      <trkpt lat="42.38025" lon="2.69914">
        <ele>584</ele>
        <time>2022-05-21 17:09:56</time>
      </trkpt>
      <trkpt lat="42.38025" lon="2.69911">
        <ele>584.2</ele>
        <time>2022-05-21 17:09:57</time>
      </trkpt>
      <trkpt lat="42.38024" lon="2.69907">
        <ele>584.4</ele>
        <time>2022-05-21 17:09:58</time>
      </trkpt>
      <trkpt lat="42.38023" lon="2.69904">
        <ele>584.6</ele>
        <time>2022-05-21 17:09:59</time>
      </trkpt>
      <trkpt lat="42.38022" lon="2.69901">
        <ele>584.8</ele>
        <time>2022-05-21 17:10:00</time>
      </trkpt>
      <trkpt lat="42.38021" lon="2.69898">
        <ele>585</ele>
        <time>2022-05-21 17:10:01</time>
      </trkpt>
      <trkpt lat="42.3802" lon="2.69894">
        <ele>585.2</ele>
        <time>2022-05-21 17:10:02</time>
      </trkpt>
      <trkpt lat="42.38019" lon="2.69891">
        <ele>585.4</ele>
        <time>2022-05-21 17:10:03</time>
      </trkpt>
      <trkpt lat="42.38018" lon="2.69888">
        <ele>585.6</ele>
        <time>2022-05-21 17:10:04</time>
      </trkpt>
      <trkpt lat="42.38017" lon="2.69885">
        <ele>585.8</ele>
        <time>2022-05-21 17:10:05</time>
      </trkpt>
      <trkpt lat="42.38016" lon="2.69882">
        <ele>586</ele>
        <time>2022-05-21 17:10:06</time>
      </trkpt>
      <trkpt lat="42.38015" lon="2.69879">
        <ele>586.2</ele>
        <time>2022-05-21 17:10:07</time>
      </trkpt>
      <trkpt lat="42.38014" lon="2.69876">
        <ele>586.4</ele>
        <time>2022-05-21 17:10:08</time>
      </trkpt>
      <trkpt lat="42.38013" lon="2.69874">
        <ele>586.6</ele>
        <time>2022-05-21 17:10:09</time>
      </trkpt>
      <trkpt lat="42.38013" lon="2.69871">
        <ele>586.8</ele>
        <time>2022-05-21 17:10:10</time>
      </trkpt>
      <trkpt lat="42.38012" lon="2.69868">
        <ele>586.8</ele>
        <time>2022-05-21 17:10:11</time>
      </trkpt>
      <trkpt lat="42.38011" lon="2.69865">
        <ele>587</ele>
        <time>2022-05-21 17:10:12</time>
      </trkpt>
      <trkpt lat="42.3801" lon="2.69862">
        <ele>587.2</ele>
        <time>2022-05-21 17:10:13</time>
      </trkpt>
      <trkpt lat="42.3801" lon="2.69859">
        <ele>587.4</ele>
        <time>2022-05-21 17:10:14</time>
      </trkpt>
      <trkpt lat="42.38009" lon="2.69856">
        <ele>587.6</ele>
        <time>2022-05-21 17:10:15</time>
      </trkpt>
      <trkpt lat="42.38008" lon="2.69853">
        <ele>587.8</ele>
        <time>2022-05-21 17:10:16</time>
      </trkpt>
      <trkpt lat="42.38008" lon="2.6985">
        <ele>588</ele>
        <time>2022-05-21 17:10:17</time>
      </trkpt>
      <trkpt lat="42.38007" lon="2.69848">
        <ele>588.2</ele>
        <time>2022-05-21 17:10:18</time>
      </trkpt>
      <trkpt lat="42.38007" lon="2.69845">
        <ele>588.4</ele>
        <time>2022-05-21 17:10:19</time>
      </trkpt>
      <trkpt lat="42.38006" lon="2.69841">
        <ele>588.6</ele>
        <time>2022-05-21 17:10:20</time>
      </trkpt>
      <trkpt lat="42.38006" lon="2.69838">
        <ele>588.8</ele>
        <time>2022-05-21 17:10:21</time>
      </trkpt>
      <trkpt lat="42.38005" lon="2.69836">
        <ele>589</ele>
        <time>2022-05-21 17:10:22</time>
      </trkpt>
      <trkpt lat="42.38005" lon="2.69833">
        <ele>589.2</ele>
        <time>2022-05-21 17:10:23</time>
      </trkpt>
      <trkpt lat="42.38005" lon="2.6983">
        <ele>589.4</ele>
        <time>2022-05-21 17:10:24</time>
      </trkpt>
      <trkpt lat="42.38005" lon="2.69826">
        <ele>589.6</ele>
        <time>2022-05-21 17:10:25</time>
      </trkpt>
      <trkpt lat="42.38005" lon="2.69823">
        <ele>589.6</ele>
        <time>2022-05-21 17:10:26</time>
      </trkpt>
      <trkpt lat="42.38005" lon="2.69819">
        <ele>589.8</ele>
        <time>2022-05-21 17:10:27</time>
      </trkpt>
      <trkpt lat="42.38005" lon="2.69815">
        <ele>590</ele>
        <time>2022-05-21 17:10:28</time>
      </trkpt>
      <trkpt lat="42.38004" lon="2.69812">
        <ele>590.2</ele>
        <time>2022-05-21 17:10:29</time>
      </trkpt>
      <trkpt lat="42.38005" lon="2.69808">
        <ele>590.4</ele>
        <time>2022-05-21 17:10:30</time>
      </trkpt>
      <trkpt lat="42.38005" lon="2.69804">
        <ele>590.8</ele>
        <time>2022-05-21 17:10:31</time>
      </trkpt>
      <trkpt lat="42.38005" lon="2.69801">
        <ele>591</ele>
        <time>2022-05-21 17:10:32</time>
      </trkpt>
      <trkpt lat="42.38005" lon="2.69798">
        <ele>591.2</ele>
        <time>2022-05-21 17:10:33</time>
      </trkpt>
      <trkpt lat="42.38005" lon="2.69794">
        <ele>591.4</ele>
        <time>2022-05-21 17:10:34</time>
      </trkpt>
      <trkpt lat="42.38005" lon="2.69791">
        <ele>591.6</ele>
        <time>2022-05-21 17:10:35</time>
      </trkpt>
      <trkpt lat="42.38005" lon="2.69788">
        <ele>591.8</ele>
        <time>2022-05-21 17:10:36</time>
      </trkpt>
      <trkpt lat="42.38006" lon="2.69785">
        <ele>592</ele>
        <time>2022-05-21 17:10:37</time>
      </trkpt>
      <trkpt lat="42.38006" lon="2.69782">
        <ele>592</ele>
        <time>2022-05-21 17:10:38</time>
      </trkpt>
      <trkpt lat="42.38006" lon="2.69779">
        <ele>592.2</ele>
        <time>2022-05-21 17:10:39</time>
      </trkpt>
      <trkpt lat="42.38006" lon="2.69776">
        <ele>592.4</ele>
        <time>2022-05-21 17:10:40</time>
      </trkpt>
      <trkpt lat="42.38006" lon="2.69773">
        <ele>592.6</ele>
        <time>2022-05-21 17:10:41</time>
      </trkpt>
      <trkpt lat="42.38007" lon="2.6977">
        <ele>592.8</ele>
        <time>2022-05-21 17:10:42</time>
      </trkpt>
      <trkpt lat="42.38007" lon="2.69767">
        <ele>593</ele>
        <time>2022-05-21 17:10:43</time>
      </trkpt>
      <trkpt lat="42.38007" lon="2.69764">
        <ele>593.2</ele>
        <time>2022-05-21 17:10:44</time>
      </trkpt>
      <trkpt lat="42.38007" lon="2.69761">
        <ele>593.4</ele>
        <time>2022-05-21 17:10:45</time>
      </trkpt>
      <trkpt lat="42.38007" lon="2.69758">
        <ele>593.6</ele>
        <time>2022-05-21 17:10:46</time>
      </trkpt>
      <trkpt lat="42.38007" lon="2.69755">
        <ele>593.8</ele>
        <time>2022-05-21 17:10:47</time>
      </trkpt>
      <trkpt lat="42.38007" lon="2.69752">
        <ele>594</ele>
        <time>2022-05-21 17:10:48</time>
      </trkpt>
      <trkpt lat="42.38007" lon="2.69749">
        <ele>594.2</ele>
        <time>2022-05-21 17:10:49</time>
      </trkpt>
      <trkpt lat="42.38007" lon="2.69746">
        <ele>594.4</ele>
        <time>2022-05-21 17:10:50</time>
      </trkpt>
      <trkpt lat="42.38006" lon="2.69743">
        <ele>594.6</ele>
        <time>2022-05-21 17:10:51</time>
      </trkpt>
      <trkpt lat="42.38005" lon="2.6974">
        <ele>594.8</ele>
        <time>2022-05-21 17:10:52</time>
      </trkpt>
      <trkpt lat="42.38005" lon="2.69737">
        <ele>594.8</ele>
        <time>2022-05-21 17:10:53</time>
      </trkpt>
      <trkpt lat="42.38004" lon="2.69734">
        <ele>595</ele>
        <time>2022-05-21 17:10:54</time>
      </trkpt>
      <trkpt lat="42.38004" lon="2.69731">
        <ele>595.2</ele>
        <time>2022-05-21 17:10:55</time>
      </trkpt>
      <trkpt lat="42.38003" lon="2.69728">
        <ele>595.4</ele>
        <time>2022-05-21 17:10:56</time>
      </trkpt>
      <trkpt lat="42.38002" lon="2.69725">
        <ele>595.6</ele>
        <time>2022-05-21 17:10:57</time>
      </trkpt>
      <trkpt lat="42.38001" lon="2.69723">
        <ele>595.8</ele>
        <time>2022-05-21 17:10:58</time>
      </trkpt>
      <trkpt lat="42.38001" lon="2.6972">
        <ele>595.8</ele>
        <time>2022-05-21 17:10:59</time>
      </trkpt>
      <trkpt lat="42.38" lon="2.69717">
        <ele>596</ele>
        <time>2022-05-21 17:11:00</time>
      </trkpt>
      <trkpt lat="42.37999" lon="2.69714">
        <ele>596.2</ele>
        <time>2022-05-21 17:11:01</time>
      </trkpt>
      <trkpt lat="42.37998" lon="2.69712">
        <ele>596.4</ele>
        <time>2022-05-21 17:11:02</time>
      </trkpt>
      <trkpt lat="42.37997" lon="2.69709">
        <ele>596.6</ele>
        <time>2022-05-21 17:11:03</time>
      </trkpt>
      <trkpt lat="42.37996" lon="2.69706">
        <ele>596.6</ele>
        <time>2022-05-21 17:11:04</time>
      </trkpt>
      <trkpt lat="42.37995" lon="2.69704">
        <ele>596.8</ele>
        <time>2022-05-21 17:11:05</time>
      </trkpt>
      <trkpt lat="42.37994" lon="2.69701">
        <ele>597</ele>
        <time>2022-05-21 17:11:06</time>
      </trkpt>
      <trkpt lat="42.37993" lon="2.69698">
        <ele>597.2</ele>
        <time>2022-05-21 17:11:07</time>
      </trkpt>
      <trkpt lat="42.37992" lon="2.69696">
        <ele>597.4</ele>
        <time>2022-05-21 17:11:08</time>
      </trkpt>
      <trkpt lat="42.37991" lon="2.69693">
        <ele>597.4</ele>
        <time>2022-05-21 17:11:09</time>
      </trkpt>
      <trkpt lat="42.3799" lon="2.69691">
        <ele>597.6</ele>
        <time>2022-05-21 17:11:10</time>
      </trkpt>
      <trkpt lat="42.37989" lon="2.69688">
        <ele>597.8</ele>
        <time>2022-05-21 17:11:11</time>
      </trkpt>
      <trkpt lat="42.37987" lon="2.69686">
        <ele>598</ele>
        <time>2022-05-21 17:11:12</time>
      </trkpt>
      <trkpt lat="42.37986" lon="2.69683">
        <ele>598</ele>
        <time>2022-05-21 17:11:13</time>
      </trkpt>
      <trkpt lat="42.37985" lon="2.69681">
        <ele>598.2</ele>
        <time>2022-05-21 17:11:14</time>
      </trkpt>
      <trkpt lat="42.37984" lon="2.69678">
        <ele>598.4</ele>
        <time>2022-05-21 17:11:15</time>
      </trkpt>
      <trkpt lat="42.37983" lon="2.69676">
        <ele>598.6</ele>
        <time>2022-05-21 17:11:16</time>
      </trkpt>
      <trkpt lat="42.37982" lon="2.69673">
        <ele>598.8</ele>
        <time>2022-05-21 17:11:17</time>
      </trkpt>
      <trkpt lat="42.37981" lon="2.69671">
        <ele>599</ele>
        <time>2022-05-21 17:11:18</time>
      </trkpt>
      <trkpt lat="42.3798" lon="2.69668">
        <ele>599.2</ele>
        <time>2022-05-21 17:11:19</time>
      </trkpt>
      <trkpt lat="42.37979" lon="2.69666">
        <ele>599.2</ele>
        <time>2022-05-21 17:11:20</time>
      </trkpt>
      <trkpt lat="42.37978" lon="2.69663">
        <ele>599.4</ele>
        <time>2022-05-21 17:11:21</time>
      </trkpt>
      <trkpt lat="42.37977" lon="2.69661">
        <ele>599.6</ele>
        <time>2022-05-21 17:11:22</time>
      </trkpt>
      <trkpt lat="42.37976" lon="2.69658">
        <ele>599.8</ele>
        <time>2022-05-21 17:11:23</time>
      </trkpt>
      <trkpt lat="42.37975" lon="2.69655">
        <ele>600</ele>
        <time>2022-05-21 17:11:24</time>
      </trkpt>
      <trkpt lat="42.37974" lon="2.69653">
        <ele>600</ele>
        <time>2022-05-21 17:11:25</time>
      </trkpt>
      <trkpt lat="42.37974" lon="2.6965">
        <ele>600.2</ele>
        <time>2022-05-21 17:11:26</time>
      </trkpt>
      <trkpt lat="42.37973" lon="2.69647">
        <ele>600.4</ele>
        <time>2022-05-21 17:11:27</time>
      </trkpt>
      <trkpt lat="42.37972" lon="2.69645">
        <ele>600.6</ele>
        <time>2022-05-21 17:11:28</time>
      </trkpt>
      <trkpt lat="42.37972" lon="2.69642">
        <ele>600.8</ele>
        <time>2022-05-21 17:11:29</time>
      </trkpt>
      <trkpt lat="42.37971" lon="2.69639">
        <ele>600.8</ele>
        <time>2022-05-21 17:11:30</time>
      </trkpt>
      <trkpt lat="42.37971" lon="2.69637">
        <ele>601</ele>
        <time>2022-05-21 17:11:31</time>
      </trkpt>
      <trkpt lat="42.37971" lon="2.69634">
        <ele>601.2</ele>
        <time>2022-05-21 17:11:32</time>
      </trkpt>
      <trkpt lat="42.3797" lon="2.69631">
        <ele>601.4</ele>
        <time>2022-05-21 17:11:33</time>
      </trkpt>
      <trkpt lat="42.3797" lon="2.69628">
        <ele>601.6</ele>
        <time>2022-05-21 17:11:34</time>
      </trkpt>
      <trkpt lat="42.37969" lon="2.69626">
        <ele>601.8</ele>
        <time>2022-05-21 17:11:35</time>
      </trkpt>
      <trkpt lat="42.37969" lon="2.69623">
        <ele>602</ele>
        <time>2022-05-21 17:11:36</time>
      </trkpt>
      <trkpt lat="42.37969" lon="2.6962">
        <ele>602</ele>
        <time>2022-05-21 17:11:37</time>
      </trkpt>
      <trkpt lat="42.37969" lon="2.69616">
        <ele>602.2</ele>
        <time>2022-05-21 17:11:38</time>
      </trkpt>
      <trkpt lat="42.37969" lon="2.69613">
        <ele>602.4</ele>
        <time>2022-05-21 17:11:39</time>
      </trkpt>
      <trkpt lat="42.37969" lon="2.69611">
        <ele>602.6</ele>
        <time>2022-05-21 17:11:40</time>
      </trkpt>
      <trkpt lat="42.3797" lon="2.69608">
        <ele>602.8</ele>
        <time>2022-05-21 17:11:41</time>
      </trkpt>
      <trkpt lat="42.3797" lon="2.69605">
        <ele>603</ele>
        <time>2022-05-21 17:11:42</time>
      </trkpt>
      <trkpt lat="42.37971" lon="2.69602">
        <ele>603.2</ele>
        <time>2022-05-21 17:11:43</time>
      </trkpt>
      <trkpt lat="42.37971" lon="2.69599">
        <ele>603.4</ele>
        <time>2022-05-21 17:11:44</time>
      </trkpt>
      <trkpt lat="42.37972" lon="2.69597">
        <ele>603.6</ele>
        <time>2022-05-21 17:11:45</time>
      </trkpt>
      <trkpt lat="42.37972" lon="2.69594">
        <ele>603.8</ele>
        <time>2022-05-21 17:11:46</time>
      </trkpt>
      <trkpt lat="42.37973" lon="2.69592">
        <ele>603.8</ele>
        <time>2022-05-21 17:11:47</time>
      </trkpt>
      <trkpt lat="42.37973" lon="2.69589">
        <ele>604</ele>
        <time>2022-05-21 17:11:48</time>
      </trkpt>
      <trkpt lat="42.37974" lon="2.69586">
        <ele>604.2</ele>
        <time>2022-05-21 17:11:49</time>
      </trkpt>
      <trkpt lat="42.37975" lon="2.69584">
        <ele>604.4</ele>
        <time>2022-05-21 17:11:50</time>
      </trkpt>
      <trkpt lat="42.37976" lon="2.69582">
        <ele>604.6</ele>
        <time>2022-05-21 17:11:51</time>
      </trkpt>
      <trkpt lat="42.37977" lon="2.69579">
        <ele>604.8</ele>
        <time>2022-05-21 17:11:52</time>
      </trkpt>
      <trkpt lat="42.37978" lon="2.69577">
        <ele>605</ele>
        <time>2022-05-21 17:11:53</time>
      </trkpt>
      <trkpt lat="42.37979" lon="2.69574">
        <ele>605</ele>
        <time>2022-05-21 17:11:54</time>
      </trkpt>
      <trkpt lat="42.3798" lon="2.69572">
        <ele>605.2</ele>
        <time>2022-05-21 17:11:55</time>
      </trkpt>
      <trkpt lat="42.37981" lon="2.6957">
        <ele>605.4</ele>
        <time>2022-05-21 17:11:56</time>
      </trkpt>
      <trkpt lat="42.37983" lon="2.69568">
        <ele>605.6</ele>
        <time>2022-05-21 17:11:57</time>
      </trkpt>
      <trkpt lat="42.37984" lon="2.69566">
        <ele>605.8</ele>
        <time>2022-05-21 17:11:58</time>
      </trkpt>
      <trkpt lat="42.37985" lon="2.69563">
        <ele>606</ele>
        <time>2022-05-21 17:11:59</time>
      </trkpt>
      <trkpt lat="42.37987" lon="2.69561">
        <ele>606.2</ele>
        <time>2022-05-21 17:12:00</time>
      </trkpt>
      <trkpt lat="42.37988" lon="2.69559">
        <ele>606.4</ele>
        <time>2022-05-21 17:12:01</time>
      </trkpt>
      <trkpt lat="42.3799" lon="2.69557">
        <ele>606.4</ele>
        <time>2022-05-21 17:12:02</time>
      </trkpt>
      <trkpt lat="42.37991" lon="2.69556">
        <ele>606.6</ele>
        <time>2022-05-21 17:12:03</time>
      </trkpt>
      <trkpt lat="42.37993" lon="2.69554">
        <ele>606.8</ele>
        <time>2022-05-21 17:12:04</time>
      </trkpt>
      <trkpt lat="42.37994" lon="2.69552">
        <ele>607</ele>
        <time>2022-05-21 17:12:05</time>
      </trkpt>
      <trkpt lat="42.37995" lon="2.69551">
        <ele>607.2</ele>
        <time>2022-05-21 17:12:06</time>
      </trkpt>
      <trkpt lat="42.37997" lon="2.69549">
        <ele>607.4</ele>
        <time>2022-05-21 17:12:07</time>
      </trkpt>
      <trkpt lat="42.37999" lon="2.69548">
        <ele>607.6</ele>
        <time>2022-05-21 17:12:08</time>
      </trkpt>
      <trkpt lat="42.38" lon="2.69547">
        <ele>607.8</ele>
        <time>2022-05-21 17:12:09</time>
      </trkpt>
      <trkpt lat="42.38001" lon="2.69545">
        <ele>608</ele>
        <time>2022-05-21 17:12:10</time>
      </trkpt>
      <trkpt lat="42.38003" lon="2.69544">
        <ele>608</ele>
        <time>2022-05-21 17:12:11</time>
      </trkpt>
      <trkpt lat="42.38005" lon="2.69543">
        <ele>608.2</ele>
        <time>2022-05-21 17:12:12</time>
      </trkpt>
      <trkpt lat="42.38007" lon="2.69541">
        <ele>608.4</ele>
        <time>2022-05-21 17:12:13</time>
      </trkpt>
      <trkpt lat="42.38008" lon="2.6954">
        <ele>608.6</ele>
        <time>2022-05-21 17:12:14</time>
      </trkpt>
      <trkpt lat="42.3801" lon="2.69539">
        <ele>608.8</ele>
        <time>2022-05-21 17:12:15</time>
      </trkpt>
      <trkpt lat="42.38012" lon="2.69538">
        <ele>609</ele>
        <time>2022-05-21 17:12:16</time>
      </trkpt>
      <trkpt lat="42.38013" lon="2.69536">
        <ele>609</ele>
        <time>2022-05-21 17:12:17</time>
      </trkpt>
      <trkpt lat="42.38015" lon="2.69535">
        <ele>609.2</ele>
        <time>2022-05-21 17:12:18</time>
      </trkpt>
      <trkpt lat="42.38017" lon="2.69534">
        <ele>609.4</ele>
        <time>2022-05-21 17:12:19</time>
      </trkpt>
      <trkpt lat="42.38019" lon="2.69533">
        <ele>609.6</ele>
        <time>2022-05-21 17:12:20</time>
      </trkpt>
      <trkpt lat="42.3802" lon="2.69532">
        <ele>609.8</ele>
        <time>2022-05-21 17:12:21</time>
      </trkpt>
      <trkpt lat="42.38022" lon="2.6953">
        <ele>609.8</ele>
        <time>2022-05-21 17:12:22</time>
      </trkpt>
      <trkpt lat="42.38024" lon="2.69529">
        <ele>610</ele>
        <time>2022-05-21 17:12:23</time>
      </trkpt>
      <trkpt lat="42.38026" lon="2.69528">
        <ele>610.2</ele>
        <time>2022-05-21 17:12:24</time>
      </trkpt>
      <trkpt lat="42.38028" lon="2.69527">
        <ele>610.4</ele>
        <time>2022-05-21 17:12:25</time>
      </trkpt>
      <trkpt lat="42.38029" lon="2.69526">
        <ele>610.4</ele>
        <time>2022-05-21 17:12:26</time>
      </trkpt>
      <trkpt lat="42.38031" lon="2.69525">
        <ele>610.6</ele>
        <time>2022-05-21 17:12:27</time>
      </trkpt>
      <trkpt lat="42.38033" lon="2.69524">
        <ele>610.8</ele>
        <time>2022-05-21 17:12:28</time>
      </trkpt>
      <trkpt lat="42.38035" lon="2.69523">
        <ele>611</ele>
        <time>2022-05-21 17:12:29</time>
      </trkpt>
      <trkpt lat="42.38036" lon="2.69521">
        <ele>611</ele>
        <time>2022-05-21 17:12:30</time>
      </trkpt>
      <trkpt lat="42.38038" lon="2.6952">
        <ele>611.2</ele>
        <time>2022-05-21 17:12:31</time>
      </trkpt>
      <trkpt lat="42.3804" lon="2.69519">
        <ele>611.4</ele>
        <time>2022-05-21 17:12:32</time>
      </trkpt>
      <trkpt lat="42.38041" lon="2.69518">
        <ele>611.4</ele>
        <time>2022-05-21 17:12:33</time>
      </trkpt>
      <trkpt lat="42.38043" lon="2.69517">
        <ele>611.6</ele>
        <time>2022-05-21 17:12:34</time>
      </trkpt>
      <trkpt lat="42.38045" lon="2.69516">
        <ele>611.8</ele>
        <time>2022-05-21 17:12:35</time>
      </trkpt>
      <trkpt lat="42.38047" lon="2.69515">
        <ele>612</ele>
        <time>2022-05-21 17:12:36</time>
      </trkpt>
      <trkpt lat="42.38049" lon="2.69514">
        <ele>612.2</ele>
        <time>2022-05-21 17:12:37</time>
      </trkpt>
      <trkpt lat="42.3805" lon="2.69513">
        <ele>612.2</ele>
        <time>2022-05-21 17:12:38</time>
      </trkpt>
      <trkpt lat="42.38052" lon="2.69512">
        <ele>612.4</ele>
        <time>2022-05-21 17:12:39</time>
      </trkpt>
      <trkpt lat="42.38054" lon="2.69511">
        <ele>612.6</ele>
        <time>2022-05-21 17:12:40</time>
      </trkpt>
      <trkpt lat="42.38056" lon="2.6951">
        <ele>612.8</ele>
        <time>2022-05-21 17:12:41</time>
      </trkpt>
      <trkpt lat="42.38058" lon="2.69509">
        <ele>612.8</ele>
        <time>2022-05-21 17:12:42</time>
      </trkpt>
      <trkpt lat="42.3806" lon="2.69508">
        <ele>613</ele>
        <time>2022-05-21 17:12:43</time>
      </trkpt>
      <trkpt lat="42.38061" lon="2.69507">
        <ele>613.2</ele>
        <time>2022-05-21 17:12:44</time>
      </trkpt>
      <trkpt lat="42.38063" lon="2.69506">
        <ele>613.4</ele>
        <time>2022-05-21 17:12:45</time>
      </trkpt>
      <trkpt lat="42.38065" lon="2.69506">
        <ele>613.6</ele>
        <time>2022-05-21 17:12:46</time>
      </trkpt>
      <trkpt lat="42.38067" lon="2.69505">
        <ele>613.6</ele>
        <time>2022-05-21 17:12:47</time>
      </trkpt>
      <trkpt lat="42.38068" lon="2.69504">
        <ele>613.8</ele>
        <time>2022-05-21 17:12:48</time>
      </trkpt>
      <trkpt lat="42.3807" lon="2.69503">
        <ele>614</ele>
        <time>2022-05-21 17:12:49</time>
      </trkpt>
      <trkpt lat="42.38072" lon="2.69502">
        <ele>614.2</ele>
        <time>2022-05-21 17:12:50</time>
      </trkpt>
      <trkpt lat="42.38074" lon="2.69501">
        <ele>614.4</ele>
        <time>2022-05-21 17:12:51</time>
      </trkpt>
      <trkpt lat="42.38076" lon="2.695">
        <ele>614.6</ele>
        <time>2022-05-21 17:12:52</time>
      </trkpt>
      <trkpt lat="42.38078" lon="2.69499">
        <ele>614.6</ele>
        <time>2022-05-21 17:12:53</time>
      </trkpt>
      <trkpt lat="42.38079" lon="2.69498">
        <ele>614.8</ele>
        <time>2022-05-21 17:12:54</time>
      </trkpt>
      <trkpt lat="42.38081" lon="2.69497">
        <ele>615</ele>
        <time>2022-05-21 17:12:55</time>
      </trkpt>
      <trkpt lat="42.38083" lon="2.69496">
        <ele>615.2</ele>
        <time>2022-05-21 17:12:56</time>
      </trkpt>
      <trkpt lat="42.38085" lon="2.69495">
        <ele>615.2</ele>
        <time>2022-05-21 17:12:57</time>
      </trkpt>
      <trkpt lat="42.38086" lon="2.69494">
        <ele>615.4</ele>
        <time>2022-05-21 17:12:58</time>
      </trkpt>
      <trkpt lat="42.38088" lon="2.69492">
        <ele>615.6</ele>
        <time>2022-05-21 17:12:59</time>
      </trkpt>
      <trkpt lat="42.3809" lon="2.69491">
        <ele>615.8</ele>
        <time>2022-05-21 17:13:00</time>
      </trkpt>
      <trkpt lat="42.38091" lon="2.69489">
        <ele>615.8</ele>
        <time>2022-05-21 17:13:01</time>
      </trkpt>
      <trkpt lat="42.38093" lon="2.69487">
        <ele>616</ele>
        <time>2022-05-21 17:13:02</time>
      </trkpt>
      <trkpt lat="42.38094" lon="2.69486">
        <ele>616.2</ele>
        <time>2022-05-21 17:13:03</time>
      </trkpt>
      <trkpt lat="42.38096" lon="2.69484">
        <ele>616.4</ele>
        <time>2022-05-21 17:13:04</time>
      </trkpt>
      <trkpt lat="42.38097" lon="2.69482">
        <ele>616.4</ele>
        <time>2022-05-21 17:13:05</time>
      </trkpt>
      <trkpt lat="42.38098" lon="2.6948">
        <ele>616.6</ele>
        <time>2022-05-21 17:13:06</time>
      </trkpt>
      <trkpt lat="42.38099" lon="2.69477">
        <ele>616.8</ele>
        <time>2022-05-21 17:13:07</time>
      </trkpt>
      <trkpt lat="42.381" lon="2.69475">
        <ele>616.8</ele>
        <time>2022-05-21 17:13:08</time>
      </trkpt>
      <trkpt lat="42.38101" lon="2.69473">
        <ele>617</ele>
        <time>2022-05-21 17:13:09</time>
      </trkpt>
      <trkpt lat="42.38102" lon="2.69471">
        <ele>617.2</ele>
        <time>2022-05-21 17:13:10</time>
      </trkpt>
      <trkpt lat="42.38103" lon="2.69468">
        <ele>617.4</ele>
        <time>2022-05-21 17:13:11</time>
      </trkpt>
      <trkpt lat="42.38103" lon="2.69466">
        <ele>617.4</ele>
        <time>2022-05-21 17:13:12</time>
      </trkpt>
      <trkpt lat="42.38104" lon="2.69463">
        <ele>617.6</ele>
        <time>2022-05-21 17:13:13</time>
      </trkpt>
      <trkpt lat="42.38105" lon="2.69461">
        <ele>617.8</ele>
        <time>2022-05-21 17:13:14</time>
      </trkpt>
      <trkpt lat="42.38105" lon="2.69458">
        <ele>617.8</ele>
        <time>2022-05-21 17:13:15</time>
      </trkpt>
      <trkpt lat="42.38106" lon="2.69455">
        <ele>618</ele>
        <time>2022-05-21 17:13:16</time>
      </trkpt>
      <trkpt lat="42.38106" lon="2.69452">
        <ele>618.2</ele>
        <time>2022-05-21 17:13:17</time>
      </trkpt>
      <trkpt lat="42.38106" lon="2.69449">
        <ele>618.2</ele>
        <time>2022-05-21 17:13:18</time>
      </trkpt>
      <trkpt lat="42.38106" lon="2.69447">
        <ele>618.4</ele>
        <time>2022-05-21 17:13:19</time>
      </trkpt>
      <trkpt lat="42.38106" lon="2.69444">
        <ele>618.6</ele>
        <time>2022-05-21 17:13:20</time>
      </trkpt>
      <trkpt lat="42.38106" lon="2.69442">
        <ele>618.6</ele>
        <time>2022-05-21 17:13:21</time>
      </trkpt>
      <trkpt lat="42.38106" lon="2.69439">
        <ele>618.8</ele>
        <time>2022-05-21 17:13:22</time>
      </trkpt>
      <trkpt lat="42.38106" lon="2.69437">
        <ele>619</ele>
        <time>2022-05-21 17:13:23</time>
      </trkpt>
      <trkpt lat="42.38105" lon="2.69434">
        <ele>619</ele>
        <time>2022-05-21 17:13:24</time>
      </trkpt>
      <trkpt lat="42.38105" lon="2.69432">
        <ele>619.2</ele>
        <time>2022-05-21 17:13:25</time>
      </trkpt>
      <trkpt lat="42.38104" lon="2.69429">
        <ele>619.4</ele>
        <time>2022-05-21 17:13:26</time>
      </trkpt>
      <trkpt lat="42.38103" lon="2.69427">
        <ele>619.6</ele>
        <time>2022-05-21 17:13:27</time>
      </trkpt>
      <trkpt lat="42.38103" lon="2.69425">
        <ele>619.6</ele>
        <time>2022-05-21 17:13:28</time>
      </trkpt>
      <trkpt lat="42.38102" lon="2.69422">
        <ele>619.8</ele>
        <time>2022-05-21 17:13:29</time>
      </trkpt>
      <trkpt lat="42.38102" lon="2.6942">
        <ele>620</ele>
        <time>2022-05-21 17:13:30</time>
      </trkpt>
      <trkpt lat="42.38101" lon="2.69418">
        <ele>620</ele>
        <time>2022-05-21 17:13:31</time>
      </trkpt>
      <trkpt lat="42.381" lon="2.69416">
        <ele>620.2</ele>
        <time>2022-05-21 17:13:32</time>
      </trkpt>
      <trkpt lat="42.38099" lon="2.69414">
        <ele>620.4</ele>
        <time>2022-05-21 17:13:33</time>
      </trkpt>
      <trkpt lat="42.38098" lon="2.69412">
        <ele>620.4</ele>
        <time>2022-05-21 17:13:34</time>
      </trkpt>
      <trkpt lat="42.38096" lon="2.6941">
        <ele>620.6</ele>
        <time>2022-05-21 17:13:35</time>
      </trkpt>
      <trkpt lat="42.38095" lon="2.69408">
        <ele>620.8</ele>
        <time>2022-05-21 17:13:36</time>
      </trkpt>
      <trkpt lat="42.38093" lon="2.69406">
        <ele>621</ele>
        <time>2022-05-21 17:13:37</time>
      </trkpt>
      <trkpt lat="42.38092" lon="2.69405">
        <ele>621</ele>
        <time>2022-05-21 17:13:38</time>
      </trkpt>
      <trkpt lat="42.38091" lon="2.69403">
        <ele>621.2</ele>
        <time>2022-05-21 17:13:39</time>
      </trkpt>
      <trkpt lat="42.38089" lon="2.69401">
        <ele>621.2</ele>
        <time>2022-05-21 17:13:40</time>
      </trkpt>
      <trkpt lat="42.38088" lon="2.69398">
        <ele>621.4</ele>
        <time>2022-05-21 17:13:41</time>
      </trkpt>
      <trkpt lat="42.38087" lon="2.69396">
        <ele>621.6</ele>
        <time>2022-05-21 17:13:42</time>
      </trkpt>
      <trkpt lat="42.38085" lon="2.69394">
        <ele>621.6</ele>
        <time>2022-05-21 17:13:43</time>
      </trkpt>
      <trkpt lat="42.38083" lon="2.69393">
        <ele>621.8</ele>
        <time>2022-05-21 17:13:44</time>
      </trkpt>
      <trkpt lat="42.38082" lon="2.69391">
        <ele>622</ele>
        <time>2022-05-21 17:13:45</time>
      </trkpt>
      <trkpt lat="42.3808" lon="2.69389">
        <ele>622.2</ele>
        <time>2022-05-21 17:13:46</time>
      </trkpt>
      <trkpt lat="42.38079" lon="2.69387">
        <ele>622.4</ele>
        <time>2022-05-21 17:13:47</time>
      </trkpt>
      <trkpt lat="42.38077" lon="2.69385">
        <ele>622.6</ele>
        <time>2022-05-21 17:13:48</time>
      </trkpt>
      <trkpt lat="42.38076" lon="2.69384">
        <ele>622.6</ele>
        <time>2022-05-21 17:13:49</time>
      </trkpt>
      <trkpt lat="42.38075" lon="2.69382">
        <ele>622.8</ele>
        <time>2022-05-21 17:13:50</time>
      </trkpt>
      <trkpt lat="42.38073" lon="2.6938">
        <ele>623</ele>
        <time>2022-05-21 17:13:51</time>
      </trkpt>
      <trkpt lat="42.38072" lon="2.69377">
        <ele>623</ele>
        <time>2022-05-21 17:13:52</time>
      </trkpt>
      <trkpt lat="42.38071" lon="2.69375">
        <ele>623.2</ele>
        <time>2022-05-21 17:13:53</time>
      </trkpt>
      <trkpt lat="42.38069" lon="2.69373">
        <ele>623.4</ele>
        <time>2022-05-21 17:13:54</time>
      </trkpt>
      <trkpt lat="42.38068" lon="2.6937">
        <ele>623.4</ele>
        <time>2022-05-21 17:13:55</time>
      </trkpt>
      <trkpt lat="42.38067" lon="2.69368">
        <ele>623.4</ele>
        <time>2022-05-21 17:13:56</time>
      </trkpt>
      <trkpt lat="42.38066" lon="2.69365">
        <ele>623.6</ele>
        <time>2022-05-21 17:13:57</time>
      </trkpt>
      <trkpt lat="42.38066" lon="2.69362">
        <ele>623.8</ele>
        <time>2022-05-21 17:13:58</time>
      </trkpt>
      <trkpt lat="42.38065" lon="2.69359">
        <ele>624</ele>
        <time>2022-05-21 17:13:59</time>
      </trkpt>
      <trkpt lat="42.38065" lon="2.69357">
        <ele>624</ele>
        <time>2022-05-21 17:14:00</time>
      </trkpt>
      <trkpt lat="42.38064" lon="2.69354">
        <ele>624.2</ele>
        <time>2022-05-21 17:14:01</time>
      </trkpt>
      <trkpt lat="42.38064" lon="2.69351">
        <ele>624.4</ele>
        <time>2022-05-21 17:14:02</time>
      </trkpt>
      <trkpt lat="42.38064" lon="2.69349">
        <ele>624.4</ele>
        <time>2022-05-21 17:14:03</time>
      </trkpt>
      <trkpt lat="42.38064" lon="2.69347">
        <ele>624.6</ele>
        <time>2022-05-21 17:14:04</time>
      </trkpt>
      <trkpt lat="42.38064" lon="2.69342">
        <ele>624.8</ele>
        <time>2022-05-21 17:14:05</time>
      </trkpt>
      <trkpt lat="42.38064" lon="2.69339">
        <ele>624.8</ele>
        <time>2022-05-21 17:14:06</time>
      </trkpt>
      <trkpt lat="42.38064" lon="2.69336">
        <ele>625</ele>
        <time>2022-05-21 17:14:07</time>
      </trkpt>
      <trkpt lat="42.38064" lon="2.69333">
        <ele>625</ele>
        <time>2022-05-21 17:14:08</time>
      </trkpt>
      <trkpt lat="42.38064" lon="2.6933">
        <ele>625.2</ele>
        <time>2022-05-21 17:14:09</time>
      </trkpt>
      <trkpt lat="42.38065" lon="2.69326">
        <ele>625.4</ele>
        <time>2022-05-21 17:14:10</time>
      </trkpt>
      <trkpt lat="42.38066" lon="2.69324">
        <ele>625.6</ele>
        <time>2022-05-21 17:14:11</time>
      </trkpt>
      <trkpt lat="42.38066" lon="2.69321">
        <ele>625.6</ele>
        <time>2022-05-21 17:14:12</time>
      </trkpt>
      <trkpt lat="42.38067" lon="2.69318">
        <ele>625.8</ele>
        <time>2022-05-21 17:14:13</time>
      </trkpt>
      <trkpt lat="42.38068" lon="2.69315">
        <ele>625.8</ele>
        <time>2022-05-21 17:14:14</time>
      </trkpt>
      <trkpt lat="42.38069" lon="2.69312">
        <ele>626</ele>
        <time>2022-05-21 17:14:15</time>
      </trkpt>
      <trkpt lat="42.38071" lon="2.69309">
        <ele>626</ele>
        <time>2022-05-21 17:14:16</time>
      </trkpt>
      <trkpt lat="42.38072" lon="2.69306">
        <ele>626.2</ele>
        <time>2022-05-21 17:14:17</time>
      </trkpt>
      <trkpt lat="42.38074" lon="2.69303">
        <ele>626.2</ele>
        <time>2022-05-21 17:14:18</time>
      </trkpt>
      <trkpt lat="42.38076" lon="2.693">
        <ele>626.4</ele>
        <time>2022-05-21 17:14:19</time>
      </trkpt>
      <trkpt lat="42.38077" lon="2.69297">
        <ele>626.4</ele>
        <time>2022-05-21 17:14:20</time>
      </trkpt>
      <trkpt lat="42.38079" lon="2.69294">
        <ele>626.6</ele>
        <time>2022-05-21 17:14:21</time>
      </trkpt>
      <trkpt lat="42.38081" lon="2.69291">
        <ele>626.6</ele>
        <time>2022-05-21 17:14:22</time>
      </trkpt>
      <trkpt lat="42.38083" lon="2.69287">
        <ele>626.8</ele>
        <time>2022-05-21 17:14:23</time>
      </trkpt>
      <trkpt lat="42.38084" lon="2.69283">
        <ele>626.8</ele>
        <time>2022-05-21 17:14:24</time>
      </trkpt>
      <trkpt lat="42.38086" lon="2.6928">
        <ele>626.8</ele>
        <time>2022-05-21 17:14:25</time>
      </trkpt>
      <trkpt lat="42.38088" lon="2.69276">
        <ele>627</ele>
        <time>2022-05-21 17:14:26</time>
      </trkpt>
      <trkpt lat="42.38089" lon="2.69273">
        <ele>627</ele>
        <time>2022-05-21 17:14:27</time>
      </trkpt>
      <trkpt lat="42.38091" lon="2.6927">
        <ele>627</ele>
        <time>2022-05-21 17:14:28</time>
      </trkpt>
      <trkpt lat="42.38092" lon="2.69266">
        <ele>627.2</ele>
        <time>2022-05-21 17:14:29</time>
      </trkpt>
      <trkpt lat="42.38094" lon="2.69262">
        <ele>627.2</ele>
        <time>2022-05-21 17:14:30</time>
      </trkpt>
      <trkpt lat="42.38095" lon="2.69259">
        <ele>627.2</ele>
        <time>2022-05-21 17:14:31</time>
      </trkpt>
      <trkpt lat="42.38097" lon="2.69255">
        <ele>627.2</ele>
        <time>2022-05-21 17:14:32</time>
      </trkpt>
      <trkpt lat="42.38098" lon="2.69251">
        <ele>627.2</ele>
        <time>2022-05-21 17:14:33</time>
      </trkpt>
      <trkpt lat="42.38099" lon="2.69247">
        <ele>627.4</ele>
        <time>2022-05-21 17:14:34</time>
      </trkpt>
      <trkpt lat="42.38101" lon="2.69243">
        <ele>627.4</ele>
        <time>2022-05-21 17:14:35</time>
      </trkpt>
      <trkpt lat="42.38102" lon="2.69238">
        <ele>627.4</ele>
        <time>2022-05-21 17:14:36</time>
      </trkpt>
      <trkpt lat="42.38103" lon="2.69234">
        <ele>627.4</ele>
        <time>2022-05-21 17:14:37</time>
      </trkpt>
      <trkpt lat="42.38103" lon="2.69229">
        <ele>627.4</ele>
        <time>2022-05-21 17:14:38</time>
      </trkpt>
      <trkpt lat="42.38104" lon="2.69224">
        <ele>627.4</ele>
        <time>2022-05-21 17:14:39</time>
      </trkpt>
      <trkpt lat="42.38105" lon="2.6922">
        <ele>627.4</ele>
        <time>2022-05-21 17:14:40</time>
      </trkpt>
      <trkpt lat="42.38105" lon="2.69216">
        <ele>627.4</ele>
        <time>2022-05-21 17:14:41</time>
      </trkpt>
      <trkpt lat="42.38106" lon="2.69211">
        <ele>627.6</ele>
        <time>2022-05-21 17:14:42</time>
      </trkpt>
      <trkpt lat="42.38106" lon="2.69206">
        <ele>627.6</ele>
        <time>2022-05-21 17:14:43</time>
      </trkpt>
      <trkpt lat="42.38107" lon="2.69202">
        <ele>627.6</ele>
        <time>2022-05-21 17:14:44</time>
      </trkpt>
      <trkpt lat="42.38107" lon="2.69197">
        <ele>627.6</ele>
        <time>2022-05-21 17:14:45</time>
      </trkpt>
      <trkpt lat="42.38107" lon="2.69192">
        <ele>627.6</ele>
        <time>2022-05-21 17:14:46</time>
      </trkpt>
      <trkpt lat="42.38107" lon="2.69187">
        <ele>627.6</ele>
        <time>2022-05-21 17:14:47</time>
      </trkpt>
      <trkpt lat="42.38108" lon="2.69182">
        <ele>627.6</ele>
        <time>2022-05-21 17:14:48</time>
      </trkpt>
      <trkpt lat="42.38108" lon="2.69177">
        <ele>627.6</ele>
        <time>2022-05-21 17:14:49</time>
      </trkpt>
      <trkpt lat="42.38108" lon="2.69172">
        <ele>627.6</ele>
        <time>2022-05-21 17:14:50</time>
      </trkpt>
      <trkpt lat="42.38108" lon="2.69167">
        <ele>627.8</ele>
        <time>2022-05-21 17:14:51</time>
      </trkpt>
      <trkpt lat="42.38109" lon="2.69163">
        <ele>627.8</ele>
        <time>2022-05-21 17:14:52</time>
      </trkpt>
      <trkpt lat="42.38109" lon="2.69158">
        <ele>627.8</ele>
        <time>2022-05-21 17:14:53</time>
      </trkpt>
      <trkpt lat="42.38109" lon="2.69154">
        <ele>627.8</ele>
        <time>2022-05-21 17:14:54</time>
      </trkpt>
      <trkpt lat="42.3811" lon="2.69149">
        <ele>628</ele>
        <time>2022-05-21 17:14:55</time>
      </trkpt>
      <trkpt lat="42.3811" lon="2.69145">
        <ele>628</ele>
        <time>2022-05-21 17:14:56</time>
      </trkpt>
      <trkpt lat="42.3811" lon="2.6914">
        <ele>628</ele>
        <time>2022-05-21 17:14:57</time>
      </trkpt>
      <trkpt lat="42.38111" lon="2.69136">
        <ele>628</ele>
        <time>2022-05-21 17:14:58</time>
      </trkpt>
      <trkpt lat="42.38111" lon="2.69131">
        <ele>628.2</ele>
        <time>2022-05-21 17:14:59</time>
      </trkpt>
      <trkpt lat="42.38111" lon="2.69127">
        <ele>628.2</ele>
        <time>2022-05-21 17:15:00</time>
      </trkpt>
      <trkpt lat="42.38111" lon="2.69123">
        <ele>628.2</ele>
        <time>2022-05-21 17:15:01</time>
      </trkpt>
      <trkpt lat="42.38111" lon="2.69118">
        <ele>628.2</ele>
        <time>2022-05-21 17:15:02</time>
      </trkpt>
      <trkpt lat="42.38111" lon="2.69114">
        <ele>628.4</ele>
        <time>2022-05-21 17:15:03</time>
      </trkpt>
      <trkpt lat="42.38111" lon="2.69109">
        <ele>628.4</ele>
        <time>2022-05-21 17:15:04</time>
      </trkpt>
      <trkpt lat="42.3811" lon="2.69105">
        <ele>628.4</ele>
        <time>2022-05-21 17:15:05</time>
      </trkpt>
      <trkpt lat="42.38109" lon="2.691">
        <ele>628.4</ele>
        <time>2022-05-21 17:15:06</time>
      </trkpt>
      <trkpt lat="42.38108" lon="2.69096">
        <ele>628.6</ele>
        <time>2022-05-21 17:15:07</time>
      </trkpt>
      <trkpt lat="42.38107" lon="2.69092">
        <ele>628.6</ele>
        <time>2022-05-21 17:15:08</time>
      </trkpt>
      <trkpt lat="42.38105" lon="2.69088">
        <ele>628.6</ele>
        <time>2022-05-21 17:15:09</time>
      </trkpt>
      <trkpt lat="42.38104" lon="2.69083">
        <ele>628.6</ele>
        <time>2022-05-21 17:15:10</time>
      </trkpt>
      <trkpt lat="42.38102" lon="2.69079">
        <ele>628.8</ele>
        <time>2022-05-21 17:15:11</time>
      </trkpt>
      <trkpt lat="42.38101" lon="2.69075">
        <ele>628.8</ele>
        <time>2022-05-21 17:15:12</time>
      </trkpt>
      <trkpt lat="42.38099" lon="2.69071">
        <ele>628.8</ele>
        <time>2022-05-21 17:15:13</time>
      </trkpt>
      <trkpt lat="42.38097" lon="2.69067">
        <ele>628.8</ele>
        <time>2022-05-21 17:15:14</time>
      </trkpt>
      <trkpt lat="42.38095" lon="2.69062">
        <ele>628.8</ele>
        <time>2022-05-21 17:15:15</time>
      </trkpt>
      <trkpt lat="42.38092" lon="2.69058">
        <ele>629</ele>
        <time>2022-05-21 17:15:16</time>
      </trkpt>
      <trkpt lat="42.3809" lon="2.69054">
        <ele>629</ele>
        <time>2022-05-21 17:15:17</time>
      </trkpt>
      <trkpt lat="42.38088" lon="2.6905">
        <ele>629</ele>
        <time>2022-05-21 17:15:18</time>
      </trkpt>
      <trkpt lat="42.38085" lon="2.69046">
        <ele>629</ele>
        <time>2022-05-21 17:15:19</time>
      </trkpt>
      <trkpt lat="42.38083" lon="2.69041">
        <ele>629</ele>
        <time>2022-05-21 17:15:20</time>
      </trkpt>
      <trkpt lat="42.38081" lon="2.69037">
        <ele>629.2</ele>
        <time>2022-05-21 17:15:21</time>
      </trkpt>
      <trkpt lat="42.38079" lon="2.69034">
        <ele>629.2</ele>
        <time>2022-05-21 17:15:22</time>
      </trkpt>
      <trkpt lat="42.38077" lon="2.6903">
        <ele>629.2</ele>
        <time>2022-05-21 17:15:23</time>
      </trkpt>
      <trkpt lat="42.38075" lon="2.69025">
        <ele>629.2</ele>
        <time>2022-05-21 17:15:24</time>
      </trkpt>
      <trkpt lat="42.38073" lon="2.69021">
        <ele>629.4</ele>
        <time>2022-05-21 17:15:25</time>
      </trkpt>
      <trkpt lat="42.38071" lon="2.69017">
        <ele>629.4</ele>
        <time>2022-05-21 17:15:26</time>
      </trkpt>
      <trkpt lat="42.38069" lon="2.69012">
        <ele>629.4</ele>
        <time>2022-05-21 17:15:27</time>
      </trkpt>
      <trkpt lat="42.38068" lon="2.69008">
        <ele>629.6</ele>
        <time>2022-05-21 17:15:28</time>
      </trkpt>
      <trkpt lat="42.38067" lon="2.69003">
        <ele>629.6</ele>
        <time>2022-05-21 17:15:29</time>
      </trkpt>
      <trkpt lat="42.38066" lon="2.68998">
        <ele>629.6</ele>
        <time>2022-05-21 17:15:30</time>
      </trkpt>
      <trkpt lat="42.38065" lon="2.68993">
        <ele>629.8</ele>
        <time>2022-05-21 17:15:31</time>
      </trkpt>
      <trkpt lat="42.38065" lon="2.68988">
        <ele>629.8</ele>
        <time>2022-05-21 17:15:32</time>
      </trkpt>
      <trkpt lat="42.38064" lon="2.68983">
        <ele>629.8</ele>
        <time>2022-05-21 17:15:33</time>
      </trkpt>
      <trkpt lat="42.38064" lon="2.68978">
        <ele>630</ele>
        <time>2022-05-21 17:15:34</time>
      </trkpt>
      <trkpt lat="42.38064" lon="2.68973">
        <ele>630</ele>
        <time>2022-05-21 17:15:35</time>
      </trkpt>
      <trkpt lat="42.38064" lon="2.68968">
        <ele>630</ele>
        <time>2022-05-21 17:15:36</time>
      </trkpt>
      <trkpt lat="42.38065" lon="2.68964">
        <ele>630.2</ele>
        <time>2022-05-21 17:15:37</time>
      </trkpt>
      <trkpt lat="42.38065" lon="2.68959">
        <ele>630.2</ele>
        <time>2022-05-21 17:15:38</time>
      </trkpt>
      <trkpt lat="42.38065" lon="2.68954">
        <ele>630.2</ele>
        <time>2022-05-21 17:15:39</time>
      </trkpt>
      <trkpt lat="42.38065" lon="2.68949">
        <ele>630.4</ele>
        <time>2022-05-21 17:15:40</time>
      </trkpt>
      <trkpt lat="42.38065" lon="2.68944">
        <ele>630.4</ele>
        <time>2022-05-21 17:15:41</time>
      </trkpt>
      <trkpt lat="42.38066" lon="2.6894">
        <ele>630.6</ele>
        <time>2022-05-21 17:15:42</time>
      </trkpt>
      <trkpt lat="42.38066" lon="2.68935">
        <ele>630.6</ele>
        <time>2022-05-21 17:15:43</time>
      </trkpt>
      <trkpt lat="42.38066" lon="2.68931">
        <ele>630.6</ele>
        <time>2022-05-21 17:15:44</time>
      </trkpt>
      <trkpt lat="42.38067" lon="2.68927">
        <ele>630.8</ele>
        <time>2022-05-21 17:15:45</time>
      </trkpt>
      <trkpt lat="42.38067" lon="2.68923">
        <ele>630.8</ele>
        <time>2022-05-21 17:15:46</time>
      </trkpt>
      <trkpt lat="42.38067" lon="2.68919">
        <ele>631</ele>
        <time>2022-05-21 17:15:47</time>
      </trkpt>
      <trkpt lat="42.38067" lon="2.68914">
        <ele>631.2</ele>
        <time>2022-05-21 17:15:48</time>
      </trkpt>
      <trkpt lat="42.38067" lon="2.6891">
        <ele>631.2</ele>
        <time>2022-05-21 17:15:49</time>
      </trkpt>
      <trkpt lat="42.38068" lon="2.68906">
        <ele>631.4</ele>
        <time>2022-05-21 17:15:50</time>
      </trkpt>
      <trkpt lat="42.38068" lon="2.68902">
        <ele>631.4</ele>
        <time>2022-05-21 17:15:51</time>
      </trkpt>
      <trkpt lat="42.38068" lon="2.68898">
        <ele>631.6</ele>
        <time>2022-05-21 17:15:52</time>
      </trkpt>
      <trkpt lat="42.38069" lon="2.68894">
        <ele>631.6</ele>
        <time>2022-05-21 17:15:53</time>
      </trkpt>
      <trkpt lat="42.38069" lon="2.6889">
        <ele>631.8</ele>
        <time>2022-05-21 17:15:54</time>
      </trkpt>
      <trkpt lat="42.3807" lon="2.68885">
        <ele>632</ele>
        <time>2022-05-21 17:15:55</time>
      </trkpt>
      <trkpt lat="42.3807" lon="2.68881">
        <ele>632.2</ele>
        <time>2022-05-21 17:15:56</time>
      </trkpt>
      <trkpt lat="42.3807" lon="2.68877">
        <ele>632.2</ele>
        <time>2022-05-21 17:15:57</time>
      </trkpt>
      <trkpt lat="42.38071" lon="2.68873">
        <ele>632.4</ele>
        <time>2022-05-21 17:15:58</time>
      </trkpt>
      <trkpt lat="42.38071" lon="2.68869">
        <ele>632.6</ele>
        <time>2022-05-21 17:15:59</time>
      </trkpt>
      <trkpt lat="42.38072" lon="2.68865">
        <ele>632.8</ele>
        <time>2022-05-21 17:16:00</time>
      </trkpt>
      <trkpt lat="42.38072" lon="2.68861">
        <ele>632.8</ele>
        <time>2022-05-21 17:16:01</time>
      </trkpt>
      <trkpt lat="42.38072" lon="2.68857">
        <ele>633</ele>
        <time>2022-05-21 17:16:02</time>
      </trkpt>
      <trkpt lat="42.38073" lon="2.68853">
        <ele>633.2</ele>
        <time>2022-05-21 17:16:03</time>
      </trkpt>
      <trkpt lat="42.38073" lon="2.68849">
        <ele>633.4</ele>
        <time>2022-05-21 17:16:04</time>
      </trkpt>
      <trkpt lat="42.38073" lon="2.68845">
        <ele>633.6</ele>
        <time>2022-05-21 17:16:05</time>
      </trkpt>
      <trkpt lat="42.38074" lon="2.68841">
        <ele>633.8</ele>
        <time>2022-05-21 17:16:06</time>
      </trkpt>
      <trkpt lat="42.38074" lon="2.68838">
        <ele>634</ele>
        <time>2022-05-21 17:16:07</time>
      </trkpt>
      <trkpt lat="42.38074" lon="2.68834">
        <ele>634.2</ele>
        <time>2022-05-21 17:16:08</time>
      </trkpt>
      <trkpt lat="42.38075" lon="2.68831">
        <ele>634.4</ele>
        <time>2022-05-21 17:16:09</time>
      </trkpt>
      <trkpt lat="42.38075" lon="2.68828">
        <ele>634.6</ele>
        <time>2022-05-21 17:16:10</time>
      </trkpt>
      <trkpt lat="42.38075" lon="2.68825">
        <ele>634.8</ele>
        <time>2022-05-21 17:16:11</time>
      </trkpt>
      <trkpt lat="42.38076" lon="2.68822">
        <ele>634.8</ele>
        <time>2022-05-21 17:16:12</time>
      </trkpt>
      <trkpt lat="42.38076" lon="2.68819">
        <ele>635</ele>
        <time>2022-05-21 17:16:13</time>
      </trkpt>
      <trkpt lat="42.38077" lon="2.68816">
        <ele>635.2</ele>
        <time>2022-05-21 17:16:14</time>
      </trkpt>
      <trkpt lat="42.38077" lon="2.68813">
        <ele>635.4</ele>
        <time>2022-05-21 17:16:15</time>
      </trkpt>
      <trkpt lat="42.38078" lon="2.68809">
        <ele>635.6</ele>
        <time>2022-05-21 17:16:16</time>
      </trkpt>
      <trkpt lat="42.38078" lon="2.68806">
        <ele>635.8</ele>
        <time>2022-05-21 17:16:17</time>
      </trkpt>
      <trkpt lat="42.38078" lon="2.68803">
        <ele>636</ele>
        <time>2022-05-21 17:16:18</time>
      </trkpt>
      <trkpt lat="42.38079" lon="2.688">
        <ele>636.2</ele>
        <time>2022-05-21 17:16:19</time>
      </trkpt>
      <trkpt lat="42.38079" lon="2.68797">
        <ele>636.2</ele>
        <time>2022-05-21 17:16:20</time>
      </trkpt>
      <trkpt lat="42.3808" lon="2.68795">
        <ele>636.4</ele>
        <time>2022-05-21 17:16:21</time>
      </trkpt>
      <trkpt lat="42.3808" lon="2.68792">
        <ele>636.6</ele>
        <time>2022-05-21 17:16:22</time>
      </trkpt>
      <trkpt lat="42.3808" lon="2.68789">
        <ele>636.8</ele>
        <time>2022-05-21 17:16:23</time>
      </trkpt>
      <trkpt lat="42.3808" lon="2.68786">
        <ele>637</ele>
        <time>2022-05-21 17:16:24</time>
      </trkpt>
      <trkpt lat="42.3808" lon="2.68783">
        <ele>637</ele>
        <time>2022-05-21 17:16:25</time>
      </trkpt>
      <trkpt lat="42.38081" lon="2.6878">
        <ele>637.2</ele>
        <time>2022-05-21 17:16:26</time>
      </trkpt>
      <trkpt lat="42.38081" lon="2.68777">
        <ele>637.4</ele>
        <time>2022-05-21 17:16:27</time>
      </trkpt>
      <trkpt lat="42.38081" lon="2.68774">
        <ele>637.6</ele>
        <time>2022-05-21 17:16:28</time>
      </trkpt>
      <trkpt lat="42.38081" lon="2.68772">
        <ele>637.6</ele>
        <time>2022-05-21 17:16:29</time>
      </trkpt>
      <trkpt lat="42.38081" lon="2.68768">
        <ele>637.8</ele>
        <time>2022-05-21 17:16:30</time>
      </trkpt>
      <trkpt lat="42.38081" lon="2.68765">
        <ele>638</ele>
        <time>2022-05-21 17:16:31</time>
      </trkpt>
      <trkpt lat="42.38081" lon="2.68762">
        <ele>638.2</ele>
        <time>2022-05-21 17:16:32</time>
      </trkpt>
      <trkpt lat="42.38081" lon="2.68759">
        <ele>638.4</ele>
        <time>2022-05-21 17:16:33</time>
      </trkpt>
      <trkpt lat="42.38081" lon="2.68756">
        <ele>638.4</ele>
        <time>2022-05-21 17:16:34</time>
      </trkpt>
      <trkpt lat="42.38082" lon="2.68754">
        <ele>638.6</ele>
        <time>2022-05-21 17:16:35</time>
      </trkpt>
      <trkpt lat="42.38082" lon="2.6875">
        <ele>638.8</ele>
        <time>2022-05-21 17:16:36</time>
      </trkpt>
      <trkpt lat="42.38082" lon="2.68747">
        <ele>639</ele>
        <time>2022-05-21 17:16:37</time>
      </trkpt>
      <trkpt lat="42.38082" lon="2.68745">
        <ele>639</ele>
        <time>2022-05-21 17:16:38</time>
      </trkpt>
      <trkpt lat="42.38082" lon="2.68742">
        <ele>639.2</ele>
        <time>2022-05-21 17:16:39</time>
      </trkpt>
      <trkpt lat="42.38082" lon="2.68739">
        <ele>639.4</ele>
        <time>2022-05-21 17:16:40</time>
      </trkpt>
      <trkpt lat="42.38082" lon="2.68736">
        <ele>639.6</ele>
        <time>2022-05-21 17:16:41</time>
      </trkpt>
      <trkpt lat="42.38081" lon="2.68733">
        <ele>639.6</ele>
        <time>2022-05-21 17:16:42</time>
      </trkpt>
      <trkpt lat="42.38081" lon="2.68731">
        <ele>639.8</ele>
        <time>2022-05-21 17:16:43</time>
      </trkpt>
      <trkpt lat="42.3808" lon="2.68728">
        <ele>640</ele>
        <time>2022-05-21 17:16:44</time>
      </trkpt>
      <trkpt lat="42.3808" lon="2.68725">
        <ele>640</ele>
        <time>2022-05-21 17:16:45</time>
      </trkpt>
      <trkpt lat="42.3808" lon="2.68722">
        <ele>640.2</ele>
        <time>2022-05-21 17:16:46</time>
      </trkpt>
      <trkpt lat="42.38079" lon="2.68719">
        <ele>640.4</ele>
        <time>2022-05-21 17:16:47</time>
      </trkpt>
      <trkpt lat="42.38079" lon="2.68716">
        <ele>640.4</ele>
        <time>2022-05-21 17:16:48</time>
      </trkpt>
      <trkpt lat="42.38078" lon="2.68713">
        <ele>640.6</ele>
        <time>2022-05-21 17:16:49</time>
      </trkpt>
      <trkpt lat="42.38077" lon="2.6871">
        <ele>640.8</ele>
        <time>2022-05-21 17:16:50</time>
      </trkpt>
      <trkpt lat="42.38076" lon="2.68708">
        <ele>641</ele>
        <time>2022-05-21 17:16:51</time>
      </trkpt>
      <trkpt lat="42.38076" lon="2.68705">
        <ele>641.2</ele>
        <time>2022-05-21 17:16:52</time>
      </trkpt>
      <trkpt lat="42.38075" lon="2.68702">
        <ele>641.2</ele>
        <time>2022-05-21 17:16:53</time>
      </trkpt>
      <trkpt lat="42.38075" lon="2.68699">
        <ele>641.4</ele>
        <time>2022-05-21 17:16:54</time>
      </trkpt>
      <trkpt lat="42.38074" lon="2.68697">
        <ele>641.6</ele>
        <time>2022-05-21 17:16:55</time>
      </trkpt>
      <trkpt lat="42.38073" lon="2.68694">
        <ele>641.8</ele>
        <time>2022-05-21 17:16:56</time>
      </trkpt>
      <trkpt lat="42.38072" lon="2.68691">
        <ele>641.8</ele>
        <time>2022-05-21 17:16:57</time>
      </trkpt>
      <trkpt lat="42.38071" lon="2.68689">
        <ele>642</ele>
        <time>2022-05-21 17:16:58</time>
      </trkpt>
      <trkpt lat="42.38071" lon="2.68686">
        <ele>642.2</ele>
        <time>2022-05-21 17:16:59</time>
      </trkpt>
      <trkpt lat="42.3807" lon="2.68683">
        <ele>642.4</ele>
        <time>2022-05-21 17:17:00</time>
      </trkpt>
      <trkpt lat="42.38069" lon="2.68681">
        <ele>642.4</ele>
        <time>2022-05-21 17:17:01</time>
      </trkpt>
      <trkpt lat="42.38068" lon="2.68678">
        <ele>642.6</ele>
        <time>2022-05-21 17:17:02</time>
      </trkpt>
      <trkpt lat="42.38067" lon="2.68676">
        <ele>642.8</ele>
        <time>2022-05-21 17:17:03</time>
      </trkpt>
      <trkpt lat="42.38066" lon="2.68673">
        <ele>643</ele>
        <time>2022-05-21 17:17:04</time>
      </trkpt>
      <trkpt lat="42.38065" lon="2.68671">
        <ele>643</ele>
        <time>2022-05-21 17:17:05</time>
      </trkpt>
      <trkpt lat="42.38064" lon="2.68668">
        <ele>643.2</ele>
        <time>2022-05-21 17:17:06</time>
      </trkpt>
      <trkpt lat="42.38063" lon="2.68665">
        <ele>643.4</ele>
        <time>2022-05-21 17:17:07</time>
      </trkpt>
      <trkpt lat="42.38061" lon="2.68663">
        <ele>643.4</ele>
        <time>2022-05-21 17:17:08</time>
      </trkpt>
      <trkpt lat="42.3806" lon="2.6866">
        <ele>643.6</ele>
        <time>2022-05-21 17:17:09</time>
      </trkpt>
      <trkpt lat="42.38059" lon="2.68658">
        <ele>643.8</ele>
        <time>2022-05-21 17:17:10</time>
      </trkpt>
      <trkpt lat="42.38058" lon="2.68656">
        <ele>643.8</ele>
        <time>2022-05-21 17:17:11</time>
      </trkpt>
      <trkpt lat="42.38057" lon="2.68653">
        <ele>644</ele>
        <time>2022-05-21 17:17:12</time>
      </trkpt>
      <trkpt lat="42.38055" lon="2.68651">
        <ele>644.2</ele>
        <time>2022-05-21 17:17:13</time>
      </trkpt>
      <trkpt lat="42.38054" lon="2.68648">
        <ele>644.4</ele>
        <time>2022-05-21 17:17:14</time>
      </trkpt>
      <trkpt lat="42.38053" lon="2.68646">
        <ele>644.4</ele>
        <time>2022-05-21 17:17:15</time>
      </trkpt>
      <trkpt lat="42.38052" lon="2.68644">
        <ele>644.6</ele>
        <time>2022-05-21 17:17:16</time>
      </trkpt>
      <trkpt lat="42.38051" lon="2.68641">
        <ele>644.8</ele>
        <time>2022-05-21 17:17:17</time>
      </trkpt>
      <trkpt lat="42.3805" lon="2.68639">
        <ele>645</ele>
        <time>2022-05-21 17:17:18</time>
      </trkpt>
      <trkpt lat="42.38048" lon="2.68636">
        <ele>645</ele>
        <time>2022-05-21 17:17:19</time>
      </trkpt>
      <trkpt lat="42.38047" lon="2.68634">
        <ele>645.2</ele>
        <time>2022-05-21 17:17:20</time>
      </trkpt>
      <trkpt lat="42.38046" lon="2.68632">
        <ele>645.4</ele>
        <time>2022-05-21 17:17:21</time>
      </trkpt>
      <trkpt lat="42.38044" lon="2.6863">
        <ele>645.6</ele>
        <time>2022-05-21 17:17:22</time>
      </trkpt>
      <trkpt lat="42.38042" lon="2.68628">
        <ele>645.8</ele>
        <time>2022-05-21 17:17:23</time>
      </trkpt>
      <trkpt lat="42.38041" lon="2.68626">
        <ele>645.8</ele>
        <time>2022-05-21 17:17:24</time>
      </trkpt>
      <trkpt lat="42.38039" lon="2.68624">
        <ele>646</ele>
        <time>2022-05-21 17:17:25</time>
      </trkpt>
      <trkpt lat="42.38037" lon="2.68622">
        <ele>646.2</ele>
        <time>2022-05-21 17:17:26</time>
      </trkpt>
      <trkpt lat="42.38035" lon="2.6862">
        <ele>646.4</ele>
        <time>2022-05-21 17:17:27</time>
      </trkpt>
      <trkpt lat="42.38033" lon="2.68618">
        <ele>646.4</ele>
        <time>2022-05-21 17:17:28</time>
      </trkpt>
      <trkpt lat="42.38031" lon="2.68617">
        <ele>646.6</ele>
        <time>2022-05-21 17:17:29</time>
      </trkpt>
      <trkpt lat="42.38029" lon="2.68616">
        <ele>646.8</ele>
        <time>2022-05-21 17:17:30</time>
      </trkpt>
      <trkpt lat="42.38027" lon="2.68614">
        <ele>646.8</ele>
        <time>2022-05-21 17:17:31</time>
      </trkpt>
      <trkpt lat="42.38024" lon="2.68612">
        <ele>647</ele>
        <time>2022-05-21 17:17:32</time>
      </trkpt>
      <trkpt lat="42.38022" lon="2.68611">
        <ele>647.2</ele>
        <time>2022-05-21 17:17:33</time>
      </trkpt>
      <trkpt lat="42.3802" lon="2.68609">
        <ele>647.4</ele>
        <time>2022-05-21 17:17:34</time>
      </trkpt>
      <trkpt lat="42.38018" lon="2.68608">
        <ele>647.6</ele>
        <time>2022-05-21 17:17:35</time>
      </trkpt>
      <trkpt lat="42.38016" lon="2.68607">
        <ele>647.8</ele>
        <time>2022-05-21 17:17:36</time>
      </trkpt>
      <trkpt lat="42.38014" lon="2.68606">
        <ele>647.8</ele>
        <time>2022-05-21 17:17:37</time>
      </trkpt>
      <trkpt lat="42.38011" lon="2.68605">
        <ele>648</ele>
        <time>2022-05-21 17:17:38</time>
      </trkpt>
      <trkpt lat="42.38009" lon="2.68604">
        <ele>648.2</ele>
        <time>2022-05-21 17:17:39</time>
      </trkpt>
      <trkpt lat="42.38007" lon="2.68603">
        <ele>648.4</ele>
        <time>2022-05-21 17:17:40</time>
      </trkpt>
      <trkpt lat="42.38005" lon="2.68602">
        <ele>648.4</ele>
        <time>2022-05-21 17:17:41</time>
      </trkpt>
      <trkpt lat="42.38003" lon="2.68602">
        <ele>648.6</ele>
        <time>2022-05-21 17:17:42</time>
      </trkpt>
      <trkpt lat="42.38" lon="2.68601">
        <ele>648.8</ele>
        <time>2022-05-21 17:17:43</time>
      </trkpt>
      <trkpt lat="42.37998" lon="2.68601">
        <ele>648.8</ele>
        <time>2022-05-21 17:17:44</time>
      </trkpt>
      <trkpt lat="42.37996" lon="2.68601">
        <ele>649</ele>
        <time>2022-05-21 17:17:45</time>
      </trkpt>
      <trkpt lat="42.37994" lon="2.686">
        <ele>649.2</ele>
        <time>2022-05-21 17:17:46</time>
      </trkpt>
      <trkpt lat="42.37992" lon="2.686">
        <ele>649.4</ele>
        <time>2022-05-21 17:17:47</time>
      </trkpt>
      <trkpt lat="42.3799" lon="2.68599">
        <ele>649.4</ele>
        <time>2022-05-21 17:17:48</time>
      </trkpt>
      <trkpt lat="42.37988" lon="2.68598">
        <ele>649.6</ele>
        <time>2022-05-21 17:17:49</time>
      </trkpt>
      <trkpt lat="42.37985" lon="2.68598">
        <ele>649.8</ele>
        <time>2022-05-21 17:17:50</time>
      </trkpt>
      <trkpt lat="42.37983" lon="2.68598">
        <ele>649.8</ele>
        <time>2022-05-21 17:17:51</time>
      </trkpt>
      <trkpt lat="42.37981" lon="2.68597">
        <ele>650</ele>
        <time>2022-05-21 17:17:52</time>
      </trkpt>
      <trkpt lat="42.37978" lon="2.68597">
        <ele>650.2</ele>
        <time>2022-05-21 17:17:53</time>
      </trkpt>
      <trkpt lat="42.37976" lon="2.68596">
        <ele>650.2</ele>
        <time>2022-05-21 17:17:54</time>
      </trkpt>
      <trkpt lat="42.37974" lon="2.68596">
        <ele>650.4</ele>
        <time>2022-05-21 17:17:55</time>
      </trkpt>
      <trkpt lat="42.37972" lon="2.68596">
        <ele>650.6</ele>
        <time>2022-05-21 17:17:56</time>
      </trkpt>
      <trkpt lat="42.3797" lon="2.68596">
        <ele>650.8</ele>
        <time>2022-05-21 17:17:57</time>
      </trkpt>
      <trkpt lat="42.37968" lon="2.68595">
        <ele>650.8</ele>
        <time>2022-05-21 17:17:58</time>
      </trkpt>
      <trkpt lat="42.37966" lon="2.68594">
        <ele>651</ele>
        <time>2022-05-21 17:17:59</time>
      </trkpt>
      <trkpt lat="42.37964" lon="2.68593">
        <ele>651.2</ele>
        <time>2022-05-21 17:18:00</time>
      </trkpt>
      <trkpt lat="42.37961" lon="2.68592">
        <ele>651.4</ele>
        <time>2022-05-21 17:18:01</time>
      </trkpt>
      <trkpt lat="42.37959" lon="2.68591">
        <ele>651.4</ele>
        <time>2022-05-21 17:18:02</time>
      </trkpt>
      <trkpt lat="42.37957" lon="2.6859">
        <ele>651.6</ele>
        <time>2022-05-21 17:18:03</time>
      </trkpt>
      <trkpt lat="42.37955" lon="2.68589">
        <ele>651.8</ele>
        <time>2022-05-21 17:18:04</time>
      </trkpt>
      <trkpt lat="42.37953" lon="2.68588">
        <ele>652</ele>
        <time>2022-05-21 17:18:05</time>
      </trkpt>
      <trkpt lat="42.37951" lon="2.68587">
        <ele>652.2</ele>
        <time>2022-05-21 17:18:06</time>
      </trkpt>
      <trkpt lat="42.37949" lon="2.68585">
        <ele>652.2</ele>
        <time>2022-05-21 17:18:07</time>
      </trkpt>
      <trkpt lat="42.37947" lon="2.68584">
        <ele>652.4</ele>
        <time>2022-05-21 17:18:08</time>
      </trkpt>
      <trkpt lat="42.37946" lon="2.68582">
        <ele>652.6</ele>
        <time>2022-05-21 17:18:09</time>
      </trkpt>
      <trkpt lat="42.37944" lon="2.6858">
        <ele>652.8</ele>
        <time>2022-05-21 17:18:10</time>
      </trkpt>
      <trkpt lat="42.37942" lon="2.68579">
        <ele>653</ele>
        <time>2022-05-21 17:18:11</time>
      </trkpt>
      <trkpt lat="42.3794" lon="2.68577">
        <ele>653</ele>
        <time>2022-05-21 17:18:12</time>
      </trkpt>
      <trkpt lat="42.37938" lon="2.68575">
        <ele>653.2</ele>
        <time>2022-05-21 17:18:13</time>
      </trkpt>
      <trkpt lat="42.37936" lon="2.68573">
        <ele>653.4</ele>
        <time>2022-05-21 17:18:14</time>
      </trkpt>
      <trkpt lat="42.37935" lon="2.68571">
        <ele>653.6</ele>
        <time>2022-05-21 17:18:15</time>
      </trkpt>
      <trkpt lat="42.37933" lon="2.6857">
        <ele>653.8</ele>
        <time>2022-05-21 17:18:16</time>
      </trkpt>
      <trkpt lat="42.37931" lon="2.68568">
        <ele>654</ele>
        <time>2022-05-21 17:18:17</time>
      </trkpt>
      <trkpt lat="42.37929" lon="2.68566">
        <ele>654.2</ele>
        <time>2022-05-21 17:18:18</time>
      </trkpt>
      <trkpt lat="42.37928" lon="2.68564">
        <ele>654.2</ele>
        <time>2022-05-21 17:18:19</time>
      </trkpt>
      <trkpt lat="42.37926" lon="2.68562">
        <ele>654.4</ele>
        <time>2022-05-21 17:18:20</time>
      </trkpt>
      <trkpt lat="42.37924" lon="2.6856">
        <ele>654.6</ele>
        <time>2022-05-21 17:18:21</time>
      </trkpt>
      <trkpt lat="42.37922" lon="2.68558">
        <ele>654.8</ele>
        <time>2022-05-21 17:18:22</time>
      </trkpt>
      <trkpt lat="42.3792" lon="2.68556">
        <ele>655</ele>
        <time>2022-05-21 17:18:23</time>
      </trkpt>
      <trkpt lat="42.37918" lon="2.68554">
        <ele>655.2</ele>
        <time>2022-05-21 17:18:24</time>
      </trkpt>
      <trkpt lat="42.37916" lon="2.68553">
        <ele>655.2</ele>
        <time>2022-05-21 17:18:25</time>
      </trkpt>
      <trkpt lat="42.37915" lon="2.68551">
        <ele>655.4</ele>
        <time>2022-05-21 17:18:26</time>
      </trkpt>
      <trkpt lat="42.37913" lon="2.68549">
        <ele>655.6</ele>
        <time>2022-05-21 17:18:27</time>
      </trkpt>
      <trkpt lat="42.37911" lon="2.68548">
        <ele>655.8</ele>
        <time>2022-05-21 17:18:28</time>
      </trkpt>
      <trkpt lat="42.37909" lon="2.68546">
        <ele>656</ele>
        <time>2022-05-21 17:18:29</time>
      </trkpt>
      <trkpt lat="42.37907" lon="2.68545">
        <ele>656</ele>
        <time>2022-05-21 17:18:30</time>
      </trkpt>
      <trkpt lat="42.37905" lon="2.68543">
        <ele>656.2</ele>
        <time>2022-05-21 17:18:31</time>
      </trkpt>
      <trkpt lat="42.37903" lon="2.68542">
        <ele>656.4</ele>
        <time>2022-05-21 17:18:32</time>
      </trkpt>
      <trkpt lat="42.37901" lon="2.6854">
        <ele>656.6</ele>
        <time>2022-05-21 17:18:33</time>
      </trkpt>
      <trkpt lat="42.37899" lon="2.68539">
        <ele>656.8</ele>
        <time>2022-05-21 17:18:34</time>
      </trkpt>
      <trkpt lat="42.37897" lon="2.68538">
        <ele>657</ele>
        <time>2022-05-21 17:18:35</time>
      </trkpt>
      <trkpt lat="42.37895" lon="2.68537">
        <ele>657</ele>
        <time>2022-05-21 17:18:36</time>
      </trkpt>
      <trkpt lat="42.37893" lon="2.68536">
        <ele>657.2</ele>
        <time>2022-05-21 17:18:37</time>
      </trkpt>
      <trkpt lat="42.37891" lon="2.68536">
        <ele>657.4</ele>
        <time>2022-05-21 17:18:38</time>
      </trkpt>
      <trkpt lat="42.37889" lon="2.68535">
        <ele>657.6</ele>
        <time>2022-05-21 17:18:39</time>
      </trkpt>
      <trkpt lat="42.37887" lon="2.68534">
        <ele>657.6</ele>
        <time>2022-05-21 17:18:40</time>
      </trkpt>
      <trkpt lat="42.37884" lon="2.68533">
        <ele>657.8</ele>
        <time>2022-05-21 17:18:41</time>
      </trkpt>
      <trkpt lat="42.37882" lon="2.68533">
        <ele>658</ele>
        <time>2022-05-21 17:18:42</time>
      </trkpt>
      <trkpt lat="42.3788" lon="2.68532">
        <ele>658</ele>
        <time>2022-05-21 17:18:43</time>
      </trkpt>
      <trkpt lat="42.37877" lon="2.68532">
        <ele>658.2</ele>
        <time>2022-05-21 17:18:44</time>
      </trkpt>
      <trkpt lat="42.37875" lon="2.68532">
        <ele>658.4</ele>
        <time>2022-05-21 17:18:45</time>
      </trkpt>
      <trkpt lat="42.37873" lon="2.68531">
        <ele>658.6</ele>
        <time>2022-05-21 17:18:46</time>
      </trkpt>
      <trkpt lat="42.37871" lon="2.68531">
        <ele>658.6</ele>
        <time>2022-05-21 17:18:47</time>
      </trkpt>
      <trkpt lat="42.37869" lon="2.68531">
        <ele>658.8</ele>
        <time>2022-05-21 17:18:48</time>
      </trkpt>
      <trkpt lat="42.37866" lon="2.68531">
        <ele>659</ele>
        <time>2022-05-21 17:18:49</time>
      </trkpt>
      <trkpt lat="42.37864" lon="2.68532">
        <ele>659.2</ele>
        <time>2022-05-21 17:18:50</time>
      </trkpt>
      <trkpt lat="42.37862" lon="2.68532">
        <ele>659.2</ele>
        <time>2022-05-21 17:18:51</time>
      </trkpt>
      <trkpt lat="42.3786" lon="2.68532">
        <ele>659.4</ele>
        <time>2022-05-21 17:18:52</time>
      </trkpt>
      <trkpt lat="42.37858" lon="2.68532">
        <ele>659.6</ele>
        <time>2022-05-21 17:18:53</time>
      </trkpt>
      <trkpt lat="42.37856" lon="2.68533">
        <ele>659.8</ele>
        <time>2022-05-21 17:18:54</time>
      </trkpt>
      <trkpt lat="42.37853" lon="2.68533">
        <ele>659.8</ele>
        <time>2022-05-21 17:18:55</time>
      </trkpt>
      <trkpt lat="42.37851" lon="2.68533">
        <ele>660</ele>
        <time>2022-05-21 17:18:56</time>
      </trkpt>
      <trkpt lat="42.37849" lon="2.68534">
        <ele>660.2</ele>
        <time>2022-05-21 17:18:57</time>
      </trkpt>
      <trkpt lat="42.37847" lon="2.68534">
        <ele>660.2</ele>
        <time>2022-05-21 17:18:58</time>
      </trkpt>
      <trkpt lat="42.37845" lon="2.68534">
        <ele>660.4</ele>
        <time>2022-05-21 17:18:59</time>
      </trkpt>
      <trkpt lat="42.37843" lon="2.68534">
        <ele>660.6</ele>
        <time>2022-05-21 17:19:00</time>
      </trkpt>
      <trkpt lat="42.37841" lon="2.68535">
        <ele>660.6</ele>
        <time>2022-05-21 17:19:01</time>
      </trkpt>
      <trkpt lat="42.37839" lon="2.68535">
        <ele>660.8</ele>
        <time>2022-05-21 17:19:02</time>
      </trkpt>
      <trkpt lat="42.37837" lon="2.68535">
        <ele>661</ele>
        <time>2022-05-21 17:19:03</time>
      </trkpt>
      <trkpt lat="42.37835" lon="2.68535">
        <ele>661.2</ele>
        <time>2022-05-21 17:19:04</time>
      </trkpt>
      <trkpt lat="42.37832" lon="2.68535">
        <ele>661.2</ele>
        <time>2022-05-21 17:19:05</time>
      </trkpt>
      <trkpt lat="42.37831" lon="2.68535">
        <ele>661.4</ele>
        <time>2022-05-21 17:19:06</time>
      </trkpt>
      <trkpt lat="42.37829" lon="2.68535">
        <ele>661.6</ele>
        <time>2022-05-21 17:19:07</time>
      </trkpt>
      <trkpt lat="42.37827" lon="2.68535">
        <ele>661.8</ele>
        <time>2022-05-21 17:19:08</time>
      </trkpt>
      <trkpt lat="42.37825" lon="2.68535">
        <ele>662</ele>
        <time>2022-05-21 17:19:09</time>
      </trkpt>
      <trkpt lat="42.37822" lon="2.68536">
        <ele>662.2</ele>
        <time>2022-05-21 17:19:10</time>
      </trkpt>
      <trkpt lat="42.3782" lon="2.68536">
        <ele>662.2</ele>
        <time>2022-05-21 17:19:11</time>
      </trkpt>
      <trkpt lat="42.37818" lon="2.68537">
        <ele>662.4</ele>
        <time>2022-05-21 17:19:12</time>
      </trkpt>
      <trkpt lat="42.37816" lon="2.68537">
        <ele>662.6</ele>
        <time>2022-05-21 17:19:13</time>
      </trkpt>
      <trkpt lat="42.37814" lon="2.68538">
        <ele>662.8</ele>
        <time>2022-05-21 17:19:14</time>
      </trkpt>
      <trkpt lat="42.37812" lon="2.68538">
        <ele>663</ele>
        <time>2022-05-21 17:19:15</time>
      </trkpt>
      <trkpt lat="42.3781" lon="2.68539">
        <ele>663</ele>
        <time>2022-05-21 17:19:16</time>
      </trkpt>
      <trkpt lat="42.37808" lon="2.6854">
        <ele>663.2</ele>
        <time>2022-05-21 17:19:17</time>
      </trkpt>
      <trkpt lat="42.37806" lon="2.6854">
        <ele>663.4</ele>
        <time>2022-05-21 17:19:18</time>
      </trkpt>
      <trkpt lat="42.37804" lon="2.68541">
        <ele>663.6</ele>
        <time>2022-05-21 17:19:19</time>
      </trkpt>
      <trkpt lat="42.37801" lon="2.68542">
        <ele>663.6</ele>
        <time>2022-05-21 17:19:20</time>
      </trkpt>
      <trkpt lat="42.37799" lon="2.68543">
        <ele>663.8</ele>
        <time>2022-05-21 17:19:21</time>
      </trkpt>
      <trkpt lat="42.37797" lon="2.68544">
        <ele>664</ele>
        <time>2022-05-21 17:19:22</time>
      </trkpt>
      <trkpt lat="42.37795" lon="2.68546">
        <ele>664.2</ele>
        <time>2022-05-21 17:19:23</time>
      </trkpt>
      <trkpt lat="42.37794" lon="2.68547">
        <ele>664.2</ele>
        <time>2022-05-21 17:19:24</time>
      </trkpt>
      <trkpt lat="42.37792" lon="2.68549">
        <ele>664.4</ele>
        <time>2022-05-21 17:19:25</time>
      </trkpt>
      <trkpt lat="42.3779" lon="2.68551">
        <ele>664.6</ele>
        <time>2022-05-21 17:19:26</time>
      </trkpt>
      <trkpt lat="42.37788" lon="2.68553">
        <ele>664.6</ele>
        <time>2022-05-21 17:19:27</time>
      </trkpt>
      <trkpt lat="42.37787" lon="2.68555">
        <ele>664.8</ele>
        <time>2022-05-21 17:19:28</time>
      </trkpt>
      <trkpt lat="42.37786" lon="2.68558">
        <ele>665</ele>
        <time>2022-05-21 17:19:29</time>
      </trkpt>
      <trkpt lat="42.37784" lon="2.6856">
        <ele>665</ele>
        <time>2022-05-21 17:19:30</time>
      </trkpt>
      <trkpt lat="42.37783" lon="2.68563">
        <ele>665.2</ele>
        <time>2022-05-21 17:19:31</time>
      </trkpt>
      <trkpt lat="42.37782" lon="2.68566">
        <ele>665.4</ele>
        <time>2022-05-21 17:19:32</time>
      </trkpt>
      <trkpt lat="42.37782" lon="2.68569">
        <ele>665.4</ele>
        <time>2022-05-21 17:19:33</time>
      </trkpt>
      <trkpt lat="42.37781" lon="2.68572">
        <ele>665.6</ele>
        <time>2022-05-21 17:19:34</time>
      </trkpt>
      <trkpt lat="42.37781" lon="2.68575">
        <ele>665.6</ele>
        <time>2022-05-21 17:19:35</time>
      </trkpt>
      <trkpt lat="42.37781" lon="2.68579">
        <ele>665.8</ele>
        <time>2022-05-21 17:19:36</time>
      </trkpt>
      <trkpt lat="42.37781" lon="2.68582">
        <ele>666</ele>
        <time>2022-05-21 17:19:37</time>
      </trkpt>
      <trkpt lat="42.3778" lon="2.68585">
        <ele>666</ele>
        <time>2022-05-21 17:19:38</time>
      </trkpt>
      <trkpt lat="42.3778" lon="2.68589">
        <ele>666.2</ele>
        <time>2022-05-21 17:19:39</time>
      </trkpt>
      <trkpt lat="42.37781" lon="2.68592">
        <ele>666.2</ele>
        <time>2022-05-21 17:19:40</time>
      </trkpt>
      <trkpt lat="42.37781" lon="2.68595">
        <ele>666.4</ele>
        <time>2022-05-21 17:19:41</time>
      </trkpt>
      <trkpt lat="42.37781" lon="2.68599">
        <ele>666.6</ele>
        <time>2022-05-21 17:19:42</time>
      </trkpt>
      <trkpt lat="42.37781" lon="2.68602">
        <ele>666.6</ele>
        <time>2022-05-21 17:19:43</time>
      </trkpt>
      <trkpt lat="42.37782" lon="2.68605">
        <ele>666.8</ele>
        <time>2022-05-21 17:19:44</time>
      </trkpt>
      <trkpt lat="42.37783" lon="2.68608">
        <ele>666.8</ele>
        <time>2022-05-21 17:19:45</time>
      </trkpt>
      <trkpt lat="42.37784" lon="2.68611">
        <ele>667</ele>
        <time>2022-05-21 17:19:46</time>
      </trkpt>
      <trkpt lat="42.37785" lon="2.68615">
        <ele>667.2</ele>
        <time>2022-05-21 17:19:47</time>
      </trkpt>
      <trkpt lat="42.37786" lon="2.68618">
        <ele>667.4</ele>
        <time>2022-05-21 17:19:48</time>
      </trkpt>
      <trkpt lat="42.37788" lon="2.68621">
        <ele>667.4</ele>
        <time>2022-05-21 17:19:49</time>
      </trkpt>
      <trkpt lat="42.37789" lon="2.68624">
        <ele>667.6</ele>
        <time>2022-05-21 17:19:50</time>
      </trkpt>
      <trkpt lat="42.37791" lon="2.68626">
        <ele>667.6</ele>
        <time>2022-05-21 17:19:51</time>
      </trkpt>
      <trkpt lat="42.37793" lon="2.68629">
        <ele>667.8</ele>
        <time>2022-05-21 17:19:52</time>
      </trkpt>
      <trkpt lat="42.37795" lon="2.68631">
        <ele>668</ele>
        <time>2022-05-21 17:19:53</time>
      </trkpt>
      <trkpt lat="42.37796" lon="2.68634">
        <ele>668</ele>
        <time>2022-05-21 17:19:54</time>
      </trkpt>
      <trkpt lat="42.37798" lon="2.68636">
        <ele>668.2</ele>
        <time>2022-05-21 17:19:55</time>
      </trkpt>
      <trkpt lat="42.378" lon="2.68638">
        <ele>668.2</ele>
        <time>2022-05-21 17:19:56</time>
      </trkpt>
      <trkpt lat="42.37802" lon="2.6864">
        <ele>668.4</ele>
        <time>2022-05-21 17:19:57</time>
      </trkpt>
      <trkpt lat="42.37804" lon="2.68642">
        <ele>668.4</ele>
        <time>2022-05-21 17:19:58</time>
      </trkpt>
      <trkpt lat="42.37806" lon="2.68644">
        <ele>668.6</ele>
        <time>2022-05-21 17:19:59</time>
      </trkpt>
      <trkpt lat="42.37807" lon="2.68646">
        <ele>668.6</ele>
        <time>2022-05-21 17:20:00</time>
      </trkpt>
      <trkpt lat="42.37809" lon="2.68647">
        <ele>668.8</ele>
        <time>2022-05-21 17:20:01</time>
      </trkpt>
      <trkpt lat="42.37811" lon="2.68649">
        <ele>668.8</ele>
        <time>2022-05-21 17:20:02</time>
      </trkpt>
      <trkpt lat="42.37813" lon="2.68652">
        <ele>668.8</ele>
        <time>2022-05-21 17:20:03</time>
      </trkpt>
      <trkpt lat="42.37814" lon="2.68654">
        <ele>669</ele>
        <time>2022-05-21 17:20:04</time>
      </trkpt>
      <trkpt lat="42.37816" lon="2.68656">
        <ele>669</ele>
        <time>2022-05-21 17:20:05</time>
      </trkpt>
      <trkpt lat="42.37818" lon="2.68659">
        <ele>669.2</ele>
        <time>2022-05-21 17:20:06</time>
      </trkpt>
      <trkpt lat="42.3782" lon="2.68661">
        <ele>669.2</ele>
        <time>2022-05-21 17:20:07</time>
      </trkpt>
      <trkpt lat="42.37821" lon="2.68664">
        <ele>669.4</ele>
        <time>2022-05-21 17:20:08</time>
      </trkpt>
      <trkpt lat="42.37822" lon="2.68667">
        <ele>669.4</ele>
        <time>2022-05-21 17:20:09</time>
      </trkpt>
      <trkpt lat="42.37823" lon="2.6867">
        <ele>669.6</ele>
        <time>2022-05-21 17:20:10</time>
      </trkpt>
      <trkpt lat="42.37824" lon="2.68674">
        <ele>669.6</ele>
        <time>2022-05-21 17:20:11</time>
      </trkpt>
      <trkpt lat="42.37824" lon="2.68677">
        <ele>669.8</ele>
        <time>2022-05-21 17:20:12</time>
      </trkpt>
      <trkpt lat="42.37824" lon="2.68681">
        <ele>669.8</ele>
        <time>2022-05-21 17:20:13</time>
      </trkpt>
      <trkpt lat="42.37824" lon="2.68684">
        <ele>670</ele>
        <time>2022-05-21 17:20:14</time>
      </trkpt>
      <trkpt lat="42.37824" lon="2.68688">
        <ele>670.2</ele>
        <time>2022-05-21 17:20:15</time>
      </trkpt>
      <trkpt lat="42.37824" lon="2.68691">
        <ele>670.4</ele>
        <time>2022-05-21 17:20:16</time>
      </trkpt>
      <trkpt lat="42.37823" lon="2.68694">
        <ele>670.4</ele>
        <time>2022-05-21 17:20:17</time>
      </trkpt>
      <trkpt lat="42.37823" lon="2.68697">
        <ele>670.6</ele>
        <time>2022-05-21 17:20:18</time>
      </trkpt>
      <trkpt lat="42.37822" lon="2.687">
        <ele>670.8</ele>
        <time>2022-05-21 17:20:19</time>
      </trkpt>
      <trkpt lat="42.37821" lon="2.68703">
        <ele>671</ele>
        <time>2022-05-21 17:20:20</time>
      </trkpt>
      <trkpt lat="42.3782" lon="2.68706">
        <ele>671</ele>
        <time>2022-05-21 17:20:21</time>
      </trkpt>
      <trkpt lat="42.37819" lon="2.68709">
        <ele>671.2</ele>
        <time>2022-05-21 17:20:22</time>
      </trkpt>
      <trkpt lat="42.37818" lon="2.68713">
        <ele>671.2</ele>
        <time>2022-05-21 17:20:23</time>
      </trkpt>
      <trkpt lat="42.37816" lon="2.68715">
        <ele>671.4</ele>
        <time>2022-05-21 17:20:24</time>
      </trkpt>
      <trkpt lat="42.37814" lon="2.68718">
        <ele>671.6</ele>
        <time>2022-05-21 17:20:25</time>
      </trkpt>
      <trkpt lat="42.37812" lon="2.6872">
        <ele>671.6</ele>
        <time>2022-05-21 17:20:26</time>
      </trkpt>
      <trkpt lat="42.3781" lon="2.68722">
        <ele>671.8</ele>
        <time>2022-05-21 17:20:27</time>
      </trkpt>
      <trkpt lat="42.37808" lon="2.68724">
        <ele>672</ele>
        <time>2022-05-21 17:20:28</time>
      </trkpt>
      <trkpt lat="42.37805" lon="2.68726">
        <ele>672.2</ele>
        <time>2022-05-21 17:20:29</time>
      </trkpt>
      <trkpt lat="42.37803" lon="2.68727">
        <ele>672.2</ele>
        <time>2022-05-21 17:20:30</time>
      </trkpt>
      <trkpt lat="42.37801" lon="2.68729">
        <ele>672.4</ele>
        <time>2022-05-21 17:20:31</time>
      </trkpt>
      <trkpt lat="42.37798" lon="2.6873">
        <ele>672.6</ele>
        <time>2022-05-21 17:20:32</time>
      </trkpt>
      <trkpt lat="42.37796" lon="2.6873">
        <ele>672.8</ele>
        <time>2022-05-21 17:20:33</time>
      </trkpt>
      <trkpt lat="42.37793" lon="2.6873">
        <ele>672.8</ele>
        <time>2022-05-21 17:20:34</time>
      </trkpt>
      <trkpt lat="42.37791" lon="2.68731">
        <ele>673</ele>
        <time>2022-05-21 17:20:35</time>
      </trkpt>
      <trkpt lat="42.37788" lon="2.68731">
        <ele>673.2</ele>
        <time>2022-05-21 17:20:36</time>
      </trkpt>
      <trkpt lat="42.37786" lon="2.68731">
        <ele>673.4</ele>
        <time>2022-05-21 17:20:37</time>
      </trkpt>
      <trkpt lat="42.37783" lon="2.68732">
        <ele>673.4</ele>
        <time>2022-05-21 17:20:38</time>
      </trkpt>
      <trkpt lat="42.3778" lon="2.68732">
        <ele>673.6</ele>
        <time>2022-05-21 17:20:39</time>
      </trkpt>
      <trkpt lat="42.37778" lon="2.68732">
        <ele>673.8</ele>
        <time>2022-05-21 17:20:40</time>
      </trkpt>
      <trkpt lat="42.37776" lon="2.68733">
        <ele>674</ele>
        <time>2022-05-21 17:20:41</time>
      </trkpt>
      <trkpt lat="42.37774" lon="2.68733">
        <ele>674</ele>
        <time>2022-05-21 17:20:42</time>
      </trkpt>
      <trkpt lat="42.37771" lon="2.68732">
        <ele>674.2</ele>
        <time>2022-05-21 17:20:43</time>
      </trkpt>
      <trkpt lat="42.37768" lon="2.68732">
        <ele>674.4</ele>
        <time>2022-05-21 17:20:44</time>
      </trkpt>
      <trkpt lat="42.37766" lon="2.68733">
        <ele>674.4</ele>
        <time>2022-05-21 17:20:45</time>
      </trkpt>
      <trkpt lat="42.37763" lon="2.68733">
        <ele>674.6</ele>
        <time>2022-05-21 17:20:46</time>
      </trkpt>
      <trkpt lat="42.37761" lon="2.68733">
        <ele>674.8</ele>
        <time>2022-05-21 17:20:47</time>
      </trkpt>
      <trkpt lat="42.37758" lon="2.68733">
        <ele>674.8</ele>
        <time>2022-05-21 17:20:48</time>
      </trkpt>
      <trkpt lat="42.37755" lon="2.68732">
        <ele>675</ele>
        <time>2022-05-21 17:20:49</time>
      </trkpt>
      <trkpt lat="42.37753" lon="2.68732">
        <ele>675.2</ele>
        <time>2022-05-21 17:20:50</time>
      </trkpt>
      <trkpt lat="42.3775" lon="2.68733">
        <ele>675.2</ele>
        <time>2022-05-21 17:20:51</time>
      </trkpt>
      <trkpt lat="42.37748" lon="2.68734">
        <ele>675.4</ele>
        <time>2022-05-21 17:20:52</time>
      </trkpt>
      <trkpt lat="42.37745" lon="2.68735">
        <ele>675.6</ele>
        <time>2022-05-21 17:20:53</time>
      </trkpt>
      <trkpt lat="42.37743" lon="2.68736">
        <ele>675.6</ele>
        <time>2022-05-21 17:20:54</time>
      </trkpt>
      <trkpt lat="42.3774" lon="2.68736">
        <ele>675.8</ele>
        <time>2022-05-21 17:20:55</time>
      </trkpt>
      <trkpt lat="42.37738" lon="2.68737">
        <ele>675.8</ele>
        <time>2022-05-21 17:20:56</time>
      </trkpt>
      <trkpt lat="42.37735" lon="2.68739">
        <ele>676</ele>
        <time>2022-05-21 17:20:57</time>
      </trkpt>
      <trkpt lat="42.37733" lon="2.6874">
        <ele>676.2</ele>
        <time>2022-05-21 17:20:58</time>
      </trkpt>
      <trkpt lat="42.3773" lon="2.68741">
        <ele>676.2</ele>
        <time>2022-05-21 17:20:59</time>
      </trkpt>
      <trkpt lat="42.37728" lon="2.68742">
        <ele>676.4</ele>
        <time>2022-05-21 17:21:00</time>
      </trkpt>
      <trkpt lat="42.37726" lon="2.68743">
        <ele>676.4</ele>
        <time>2022-05-21 17:21:01</time>
      </trkpt>
      <trkpt lat="42.37723" lon="2.68745">
        <ele>676.6</ele>
        <time>2022-05-21 17:21:02</time>
      </trkpt>
      <trkpt lat="42.37721" lon="2.68746">
        <ele>676.8</ele>
        <time>2022-05-21 17:21:03</time>
      </trkpt>
      <trkpt lat="42.37719" lon="2.68747">
        <ele>676.8</ele>
        <time>2022-05-21 17:21:04</time>
      </trkpt>
      <trkpt lat="42.37716" lon="2.68749">
        <ele>677</ele>
        <time>2022-05-21 17:21:05</time>
      </trkpt>
      <trkpt lat="42.37714" lon="2.68751">
        <ele>677</ele>
        <time>2022-05-21 17:21:06</time>
      </trkpt>
      <trkpt lat="42.37711" lon="2.68752">
        <ele>677.2</ele>
        <time>2022-05-21 17:21:07</time>
      </trkpt>
      <trkpt lat="42.37709" lon="2.68754">
        <ele>677.4</ele>
        <time>2022-05-21 17:21:08</time>
      </trkpt>
      <trkpt lat="42.37707" lon="2.68756">
        <ele>677.4</ele>
        <time>2022-05-21 17:21:09</time>
      </trkpt>
      <trkpt lat="42.37705" lon="2.68758">
        <ele>677.6</ele>
        <time>2022-05-21 17:21:10</time>
      </trkpt>
      <trkpt lat="42.37703" lon="2.6876">
        <ele>677.6</ele>
        <time>2022-05-21 17:21:11</time>
      </trkpt>
      <trkpt lat="42.37701" lon="2.68762">
        <ele>677.8</ele>
        <time>2022-05-21 17:21:12</time>
      </trkpt>
      <trkpt lat="42.37699" lon="2.68764">
        <ele>678</ele>
        <time>2022-05-21 17:21:13</time>
      </trkpt>
      <trkpt lat="42.37697" lon="2.68766">
        <ele>678</ele>
        <time>2022-05-21 17:21:14</time>
      </trkpt>
      <trkpt lat="42.37695" lon="2.68768">
        <ele>678.2</ele>
        <time>2022-05-21 17:21:15</time>
      </trkpt>
      <trkpt lat="42.37693" lon="2.6877">
        <ele>678.2</ele>
        <time>2022-05-21 17:21:16</time>
      </trkpt>
      <trkpt lat="42.3769" lon="2.68772">
        <ele>678.4</ele>
        <time>2022-05-21 17:21:17</time>
      </trkpt>
      <trkpt lat="42.37688" lon="2.68774">
        <ele>678.6</ele>
        <time>2022-05-21 17:21:18</time>
      </trkpt>
      <trkpt lat="42.37686" lon="2.68776">
        <ele>678.6</ele>
        <time>2022-05-21 17:21:19</time>
      </trkpt>
      <trkpt lat="42.37684" lon="2.68778">
        <ele>678.8</ele>
        <time>2022-05-21 17:21:20</time>
      </trkpt>
      <trkpt lat="42.37681" lon="2.68779">
        <ele>678.8</ele>
        <time>2022-05-21 17:21:21</time>
      </trkpt>
      <trkpt lat="42.37679" lon="2.68781">
        <ele>679</ele>
        <time>2022-05-21 17:21:22</time>
      </trkpt>
      <trkpt lat="42.37676" lon="2.68783">
        <ele>679</ele>
        <time>2022-05-21 17:21:23</time>
      </trkpt>
      <trkpt lat="42.37674" lon="2.68785">
        <ele>679.2</ele>
        <time>2022-05-21 17:21:24</time>
      </trkpt>
      <trkpt lat="42.37672" lon="2.68788">
        <ele>679.2</ele>
        <time>2022-05-21 17:21:25</time>
      </trkpt>
      <trkpt lat="42.37669" lon="2.6879">
        <ele>679.4</ele>
        <time>2022-05-21 17:21:26</time>
      </trkpt>
      <trkpt lat="42.37666" lon="2.68792">
        <ele>679.4</ele>
        <time>2022-05-21 17:21:27</time>
      </trkpt>
      <trkpt lat="42.37664" lon="2.68795">
        <ele>679.6</ele>
        <time>2022-05-21 17:21:28</time>
      </trkpt>
      <trkpt lat="42.37661" lon="2.68797">
        <ele>679.8</ele>
        <time>2022-05-21 17:21:29</time>
      </trkpt>
      <trkpt lat="42.37658" lon="2.68798">
        <ele>679.8</ele>
        <time>2022-05-21 17:21:30</time>
      </trkpt>
      <trkpt lat="42.37656" lon="2.688">
        <ele>680</ele>
        <time>2022-05-21 17:21:31</time>
      </trkpt>
      <trkpt lat="42.37653" lon="2.68802">
        <ele>680.2</ele>
        <time>2022-05-21 17:21:32</time>
      </trkpt>
      <trkpt lat="42.37651" lon="2.68804">
        <ele>680.2</ele>
        <time>2022-05-21 17:21:33</time>
      </trkpt>
      <trkpt lat="42.37648" lon="2.68805">
        <ele>680.4</ele>
        <time>2022-05-21 17:21:34</time>
      </trkpt>
      <trkpt lat="42.37645" lon="2.68807">
        <ele>680.6</ele>
        <time>2022-05-21 17:21:35</time>
      </trkpt>
      <trkpt lat="42.37643" lon="2.68809">
        <ele>680.6</ele>
        <time>2022-05-21 17:21:36</time>
      </trkpt>
      <trkpt lat="42.37641" lon="2.68811">
        <ele>680.8</ele>
        <time>2022-05-21 17:21:37</time>
      </trkpt>
      <trkpt lat="42.37638" lon="2.68812">
        <ele>681</ele>
        <time>2022-05-21 17:21:38</time>
      </trkpt>
      <trkpt lat="42.37636" lon="2.68814">
        <ele>681</ele>
        <time>2022-05-21 17:21:39</time>
      </trkpt>
      <trkpt lat="42.37633" lon="2.68815">
        <ele>681.2</ele>
        <time>2022-05-21 17:21:40</time>
      </trkpt>
      <trkpt lat="42.3763" lon="2.68817">
        <ele>681.4</ele>
        <time>2022-05-21 17:21:41</time>
      </trkpt>
      <trkpt lat="42.37628" lon="2.68819">
        <ele>681.4</ele>
        <time>2022-05-21 17:21:42</time>
      </trkpt>
      <trkpt lat="42.37625" lon="2.6882">
        <ele>681.6</ele>
        <time>2022-05-21 17:21:43</time>
      </trkpt>
      <trkpt lat="42.37623" lon="2.68822">
        <ele>681.8</ele>
        <time>2022-05-21 17:21:44</time>
      </trkpt>
      <trkpt lat="42.3762" lon="2.68823">
        <ele>681.8</ele>
        <time>2022-05-21 17:21:45</time>
      </trkpt>
      <trkpt lat="42.37617" lon="2.68824">
        <ele>682</ele>
        <time>2022-05-21 17:21:46</time>
      </trkpt>
      <trkpt lat="42.37615" lon="2.68825">
        <ele>682</ele>
        <time>2022-05-21 17:21:47</time>
      </trkpt>
      <trkpt lat="42.37612" lon="2.68826">
        <ele>682.2</ele>
        <time>2022-05-21 17:21:48</time>
      </trkpt>
      <trkpt lat="42.37609" lon="2.68827">
        <ele>682.4</ele>
        <time>2022-05-21 17:21:49</time>
      </trkpt>
      <trkpt lat="42.37607" lon="2.68828">
        <ele>682.4</ele>
        <time>2022-05-21 17:21:50</time>
      </trkpt>
      <trkpt lat="42.37604" lon="2.68828">
        <ele>682.6</ele>
        <time>2022-05-21 17:21:51</time>
      </trkpt>
      <trkpt lat="42.37601" lon="2.68829">
        <ele>682.8</ele>
        <time>2022-05-21 17:21:52</time>
      </trkpt>
      <trkpt lat="42.37599" lon="2.68829">
        <ele>683</ele>
        <time>2022-05-21 17:21:53</time>
      </trkpt>
      <trkpt lat="42.37596" lon="2.68829">
        <ele>683</ele>
        <time>2022-05-21 17:21:54</time>
      </trkpt>
      <trkpt lat="42.37593" lon="2.68828">
        <ele>683.2</ele>
        <time>2022-05-21 17:21:55</time>
      </trkpt>
      <trkpt lat="42.37591" lon="2.68828">
        <ele>683.4</ele>
        <time>2022-05-21 17:21:56</time>
      </trkpt>
      <trkpt lat="42.37589" lon="2.68827">
        <ele>683.6</ele>
        <time>2022-05-21 17:21:57</time>
      </trkpt>
      <trkpt lat="42.37586" lon="2.68826">
        <ele>683.6</ele>
        <time>2022-05-21 17:21:58</time>
      </trkpt>
      <trkpt lat="42.37584" lon="2.68825">
        <ele>683.8</ele>
        <time>2022-05-21 17:21:59</time>
      </trkpt>
      <trkpt lat="42.37582" lon="2.68823">
        <ele>684</ele>
        <time>2022-05-21 17:22:00</time>
      </trkpt>
      <trkpt lat="42.3758" lon="2.68822">
        <ele>684.2</ele>
        <time>2022-05-21 17:22:01</time>
      </trkpt>
      <trkpt lat="42.37578" lon="2.6882">
        <ele>684.2</ele>
        <time>2022-05-21 17:22:02</time>
      </trkpt>
      <trkpt lat="42.37576" lon="2.68817">
        <ele>684.4</ele>
        <time>2022-05-21 17:22:03</time>
      </trkpt>
      <trkpt lat="42.37575" lon="2.68815">
        <ele>684.6</ele>
        <time>2022-05-21 17:22:04</time>
      </trkpt>
      <trkpt lat="42.37574" lon="2.68813">
        <ele>684.8</ele>
        <time>2022-05-21 17:22:05</time>
      </trkpt>
      <trkpt lat="42.37572" lon="2.68811">
        <ele>685</ele>
        <time>2022-05-21 17:22:06</time>
      </trkpt>
      <trkpt lat="42.37571" lon="2.68807">
        <ele>685.2</ele>
        <time>2022-05-21 17:22:07</time>
      </trkpt>
      <trkpt lat="42.3757" lon="2.68805">
        <ele>685.4</ele>
        <time>2022-05-21 17:22:08</time>
      </trkpt>
      <trkpt lat="42.37569" lon="2.68802">
        <ele>685.6</ele>
        <time>2022-05-21 17:22:09</time>
      </trkpt>
      <trkpt lat="42.37568" lon="2.68799">
        <ele>685.8</ele>
        <time>2022-05-21 17:22:10</time>
      </trkpt>
      <trkpt lat="42.37567" lon="2.68795">
        <ele>685.8</ele>
        <time>2022-05-21 17:22:11</time>
      </trkpt>
      <trkpt lat="42.37566" lon="2.68792">
        <ele>686</ele>
        <time>2022-05-21 17:22:12</time>
      </trkpt>
      <trkpt lat="42.37566" lon="2.68789">
        <ele>686.2</ele>
        <time>2022-05-21 17:22:13</time>
      </trkpt>
      <trkpt lat="42.37565" lon="2.68786">
        <ele>686.4</ele>
        <time>2022-05-21 17:22:14</time>
      </trkpt>
      <trkpt lat="42.37565" lon="2.68782">
        <ele>686.6</ele>
        <time>2022-05-21 17:22:15</time>
      </trkpt>
      <trkpt lat="42.37564" lon="2.68779">
        <ele>686.8</ele>
        <time>2022-05-21 17:22:16</time>
      </trkpt>
      <trkpt lat="42.37564" lon="2.68776">
        <ele>687</ele>
        <time>2022-05-21 17:22:17</time>
      </trkpt>
      <trkpt lat="42.37564" lon="2.68773">
        <ele>687.2</ele>
        <time>2022-05-21 17:22:18</time>
      </trkpt>
      <trkpt lat="42.37563" lon="2.6877">
        <ele>687.4</ele>
        <time>2022-05-21 17:22:19</time>
      </trkpt>
      <trkpt lat="42.37563" lon="2.68767">
        <ele>687.6</ele>
        <time>2022-05-21 17:22:20</time>
      </trkpt>
      <trkpt lat="42.37563" lon="2.68764">
        <ele>687.8</ele>
        <time>2022-05-21 17:22:21</time>
      </trkpt>
      <trkpt lat="42.37563" lon="2.68761">
        <ele>688</ele>
        <time>2022-05-21 17:22:22</time>
      </trkpt>
      <trkpt lat="42.37563" lon="2.68758">
        <ele>688.2</ele>
        <time>2022-05-21 17:22:23</time>
      </trkpt>
      <trkpt lat="42.37563" lon="2.68755">
        <ele>688.4</ele>
        <time>2022-05-21 17:22:24</time>
      </trkpt>
      <trkpt lat="42.37563" lon="2.68752">
        <ele>688.6</ele>
        <time>2022-05-21 17:22:25</time>
      </trkpt>
      <trkpt lat="42.37563" lon="2.68749">
        <ele>688.6</ele>
        <time>2022-05-21 17:22:26</time>
      </trkpt>
      <trkpt lat="42.37563" lon="2.68746">
        <ele>688.8</ele>
        <time>2022-05-21 17:22:27</time>
      </trkpt>
      <trkpt lat="42.37563" lon="2.68743">
        <ele>689</ele>
        <time>2022-05-21 17:22:28</time>
      </trkpt>
      <trkpt lat="42.37562" lon="2.6874">
        <ele>689.2</ele>
        <time>2022-05-21 17:22:29</time>
      </trkpt>
      <trkpt lat="42.37562" lon="2.68738">
        <ele>689.4</ele>
        <time>2022-05-21 17:22:30</time>
      </trkpt>
      <trkpt lat="42.37562" lon="2.68735">
        <ele>689.6</ele>
        <time>2022-05-21 17:22:31</time>
      </trkpt>
      <trkpt lat="42.37562" lon="2.68732">
        <ele>689.8</ele>
        <time>2022-05-21 17:22:32</time>
      </trkpt>
      <trkpt lat="42.37562" lon="2.68729">
        <ele>689.8</ele>
        <time>2022-05-21 17:22:33</time>
      </trkpt>
      <trkpt lat="42.37562" lon="2.68726">
        <ele>690</ele>
        <time>2022-05-21 17:22:34</time>
      </trkpt>
      <trkpt lat="42.37562" lon="2.68723">
        <ele>690.2</ele>
        <time>2022-05-21 17:22:35</time>
      </trkpt>
      <trkpt lat="42.37562" lon="2.68721">
        <ele>690.4</ele>
        <time>2022-05-21 17:22:36</time>
      </trkpt>
      <trkpt lat="42.37562" lon="2.68718">
        <ele>690.6</ele>
        <time>2022-05-21 17:22:37</time>
      </trkpt>
      <trkpt lat="42.37562" lon="2.68715">
        <ele>690.8</ele>
        <time>2022-05-21 17:22:38</time>
      </trkpt>
      <trkpt lat="42.37562" lon="2.68712">
        <ele>690.8</ele>
        <time>2022-05-21 17:22:39</time>
      </trkpt>
      <trkpt lat="42.37562" lon="2.68709">
        <ele>691</ele>
        <time>2022-05-21 17:22:40</time>
      </trkpt>
      <trkpt lat="42.37562" lon="2.68706">
        <ele>691.2</ele>
        <time>2022-05-21 17:22:41</time>
      </trkpt>
      <trkpt lat="42.37562" lon="2.68704">
        <ele>691.4</ele>
        <time>2022-05-21 17:22:42</time>
      </trkpt>
      <trkpt lat="42.37563" lon="2.68701">
        <ele>691.6</ele>
        <time>2022-05-21 17:22:43</time>
      </trkpt>
      <trkpt lat="42.37563" lon="2.68698">
        <ele>691.6</ele>
        <time>2022-05-21 17:22:44</time>
      </trkpt>
      <trkpt lat="42.37563" lon="2.68695">
        <ele>691.8</ele>
        <time>2022-05-21 17:22:45</time>
      </trkpt>
      <trkpt lat="42.37563" lon="2.68692">
        <ele>692</ele>
        <time>2022-05-21 17:22:46</time>
      </trkpt>
      <trkpt lat="42.37563" lon="2.6869">
        <ele>692.2</ele>
        <time>2022-05-21 17:22:47</time>
      </trkpt>
      <trkpt lat="42.37563" lon="2.68687">
        <ele>692.4</ele>
        <time>2022-05-21 17:22:48</time>
      </trkpt>
      <trkpt lat="42.37564" lon="2.68685">
        <ele>692.4</ele>
        <time>2022-05-21 17:22:49</time>
      </trkpt>
      <trkpt lat="42.37563" lon="2.68681">
        <ele>692.6</ele>
        <time>2022-05-21 17:22:50</time>
      </trkpt>
      <trkpt lat="42.37563" lon="2.68679">
        <ele>692.8</ele>
        <time>2022-05-21 17:22:51</time>
      </trkpt>
      <trkpt lat="42.37563" lon="2.68676">
        <ele>693</ele>
        <time>2022-05-21 17:22:52</time>
      </trkpt>
      <trkpt lat="42.37563" lon="2.68673">
        <ele>693.2</ele>
        <time>2022-05-21 17:22:53</time>
      </trkpt>
      <trkpt lat="42.37563" lon="2.6867">
        <ele>693.2</ele>
        <time>2022-05-21 17:22:54</time>
      </trkpt>
      <trkpt lat="42.37563" lon="2.68668">
        <ele>693.4</ele>
        <time>2022-05-21 17:22:55</time>
      </trkpt>
      <trkpt lat="42.37563" lon="2.68665">
        <ele>693.6</ele>
        <time>2022-05-21 17:22:56</time>
      </trkpt>
      <trkpt lat="42.37563" lon="2.68662">
        <ele>693.8</ele>
        <time>2022-05-21 17:22:57</time>
      </trkpt>
      <trkpt lat="42.37563" lon="2.6866">
        <ele>694</ele>
        <time>2022-05-21 17:22:58</time>
      </trkpt>
      <trkpt lat="42.37563" lon="2.68656">
        <ele>694</ele>
        <time>2022-05-21 17:22:59</time>
      </trkpt>
      <trkpt lat="42.37563" lon="2.68654">
        <ele>694.2</ele>
        <time>2022-05-21 17:23:00</time>
      </trkpt>
      <trkpt lat="42.37563" lon="2.68651">
        <ele>694.4</ele>
        <time>2022-05-21 17:23:01</time>
      </trkpt>
      <trkpt lat="42.37563" lon="2.68649">
        <ele>694.6</ele>
        <time>2022-05-21 17:23:02</time>
      </trkpt>
      <trkpt lat="42.37563" lon="2.68646">
        <ele>694.8</ele>
        <time>2022-05-21 17:23:03</time>
      </trkpt>
      <trkpt lat="42.37563" lon="2.68643">
        <ele>694.8</ele>
        <time>2022-05-21 17:23:04</time>
      </trkpt>
      <trkpt lat="42.37564" lon="2.6864">
        <ele>695</ele>
        <time>2022-05-21 17:23:05</time>
      </trkpt>
      <trkpt lat="42.37564" lon="2.68638">
        <ele>695.2</ele>
        <time>2022-05-21 17:23:06</time>
      </trkpt>
      <trkpt lat="42.37564" lon="2.68636">
        <ele>695.2</ele>
        <time>2022-05-21 17:23:07</time>
      </trkpt>
      <trkpt lat="42.37564" lon="2.68633">
        <ele>695.4</ele>
        <time>2022-05-21 17:23:08</time>
      </trkpt>
      <trkpt lat="42.37563" lon="2.6863">
        <ele>695.6</ele>
        <time>2022-05-21 17:23:09</time>
      </trkpt>
      <trkpt lat="42.37563" lon="2.68627">
        <ele>695.8</ele>
        <time>2022-05-21 17:23:10</time>
      </trkpt>
      <trkpt lat="42.37563" lon="2.68624">
        <ele>695.8</ele>
        <time>2022-05-21 17:23:11</time>
      </trkpt>
      <trkpt lat="42.37563" lon="2.68622">
        <ele>696</ele>
        <time>2022-05-21 17:23:12</time>
      </trkpt>
      <trkpt lat="42.37563" lon="2.68619">
        <ele>696.2</ele>
        <time>2022-05-21 17:23:13</time>
      </trkpt>
      <trkpt lat="42.37563" lon="2.68616">
        <ele>696.4</ele>
        <time>2022-05-21 17:23:14</time>
      </trkpt>
      <trkpt lat="42.37563" lon="2.68613">
        <ele>696.6</ele>
        <time>2022-05-21 17:23:15</time>
      </trkpt>
      <trkpt lat="42.37563" lon="2.68611">
        <ele>696.6</ele>
        <time>2022-05-21 17:23:16</time>
      </trkpt>
      <trkpt lat="42.37563" lon="2.68608">
        <ele>696.8</ele>
        <time>2022-05-21 17:23:17</time>
      </trkpt>
      <trkpt lat="42.37563" lon="2.68605">
        <ele>697</ele>
        <time>2022-05-21 17:23:18</time>
      </trkpt>
      <trkpt lat="42.37563" lon="2.68602">
        <ele>697.2</ele>
        <time>2022-05-21 17:23:19</time>
      </trkpt>
      <trkpt lat="42.37564" lon="2.68599">
        <ele>697.4</ele>
        <time>2022-05-21 17:23:20</time>
      </trkpt>
      <trkpt lat="42.37564" lon="2.68597">
        <ele>697.6</ele>
        <time>2022-05-21 17:23:21</time>
      </trkpt>
      <trkpt lat="42.37564" lon="2.68595">
        <ele>697.6</ele>
        <time>2022-05-21 17:23:22</time>
      </trkpt>
      <trkpt lat="42.37564" lon="2.68591">
        <ele>697.8</ele>
        <time>2022-05-21 17:23:23</time>
      </trkpt>
      <trkpt lat="42.37564" lon="2.68589">
        <ele>698</ele>
        <time>2022-05-21 17:23:24</time>
      </trkpt>
      <trkpt lat="42.37564" lon="2.68586">
        <ele>698.2</ele>
        <time>2022-05-21 17:23:25</time>
      </trkpt>
      <trkpt lat="42.37565" lon="2.68582">
        <ele>698.4</ele>
        <time>2022-05-21 17:23:26</time>
      </trkpt>
      <trkpt lat="42.37565" lon="2.68579">
        <ele>698.6</ele>
        <time>2022-05-21 17:23:27</time>
      </trkpt>
      <trkpt lat="42.37565" lon="2.68575">
        <ele>698.6</ele>
        <time>2022-05-21 17:23:28</time>
      </trkpt>
      <trkpt lat="42.37565" lon="2.68572">
        <ele>698.8</ele>
        <time>2022-05-21 17:23:29</time>
      </trkpt>
      <trkpt lat="42.37565" lon="2.68569">
        <ele>699</ele>
        <time>2022-05-21 17:23:30</time>
      </trkpt>
      <trkpt lat="42.37566" lon="2.68566">
        <ele>699.2</ele>
        <time>2022-05-21 17:23:31</time>
      </trkpt>
      <trkpt lat="42.37566" lon="2.68563">
        <ele>699.4</ele>
        <time>2022-05-21 17:23:32</time>
      </trkpt>
      <trkpt lat="42.37567" lon="2.6856">
        <ele>699.6</ele>
        <time>2022-05-21 17:23:33</time>
      </trkpt>
      <trkpt lat="42.37567" lon="2.68557">
        <ele>699.8</ele>
        <time>2022-05-21 17:23:34</time>
      </trkpt>
      <trkpt lat="42.37567" lon="2.68554">
        <ele>700</ele>
        <time>2022-05-21 17:23:35</time>
      </trkpt>
      <trkpt lat="42.37568" lon="2.68552">
        <ele>700</ele>
        <time>2022-05-21 17:23:36</time>
      </trkpt>
      <trkpt lat="42.37568" lon="2.68549">
        <ele>700.2</ele>
        <time>2022-05-21 17:23:37</time>
      </trkpt>
      <trkpt lat="42.37569" lon="2.68546">
        <ele>700.4</ele>
        <time>2022-05-21 17:23:38</time>
      </trkpt>
      <trkpt lat="42.3757" lon="2.68544">
        <ele>700.6</ele>
        <time>2022-05-21 17:23:39</time>
      </trkpt>
      <trkpt lat="42.3757" lon="2.68541">
        <ele>700.8</ele>
        <time>2022-05-21 17:23:40</time>
      </trkpt>
      <trkpt lat="42.3757" lon="2.68538">
        <ele>701</ele>
        <time>2022-05-21 17:23:41</time>
      </trkpt>
      <trkpt lat="42.37571" lon="2.68535">
        <ele>701.2</ele>
        <time>2022-05-21 17:23:42</time>
      </trkpt>
      <trkpt lat="42.37571" lon="2.68532">
        <ele>701.4</ele>
        <time>2022-05-21 17:23:43</time>
      </trkpt>
      <trkpt lat="42.37571" lon="2.6853">
        <ele>701.6</ele>
        <time>2022-05-21 17:23:44</time>
      </trkpt>
      <trkpt lat="42.37572" lon="2.68527">
        <ele>701.8</ele>
        <time>2022-05-21 17:23:45</time>
      </trkpt>
      <trkpt lat="42.37572" lon="2.68524">
        <ele>702</ele>
        <time>2022-05-21 17:23:46</time>
      </trkpt>
      <trkpt lat="42.37573" lon="2.68522">
        <ele>702.2</ele>
        <time>2022-05-21 17:23:47</time>
      </trkpt>
      <trkpt lat="42.37574" lon="2.68519">
        <ele>702.2</ele>
        <time>2022-05-21 17:23:48</time>
      </trkpt>
      <trkpt lat="42.37574" lon="2.68516">
        <ele>702.4</ele>
        <time>2022-05-21 17:23:49</time>
      </trkpt>
      <trkpt lat="42.37575" lon="2.68514">
        <ele>702.6</ele>
        <time>2022-05-21 17:23:50</time>
      </trkpt>
      <trkpt lat="42.37575" lon="2.68511">
        <ele>702.8</ele>
        <time>2022-05-21 17:23:51</time>
      </trkpt>
      <trkpt lat="42.37576" lon="2.68508">
        <ele>703</ele>
        <time>2022-05-21 17:23:52</time>
      </trkpt>
      <trkpt lat="42.37576" lon="2.68505">
        <ele>703.2</ele>
        <time>2022-05-21 17:23:53</time>
      </trkpt>
      <trkpt lat="42.37577" lon="2.68503">
        <ele>703.4</ele>
        <time>2022-05-21 17:23:54</time>
      </trkpt>
      <trkpt lat="42.37578" lon="2.685">
        <ele>703.6</ele>
        <time>2022-05-21 17:23:55</time>
      </trkpt>
      <trkpt lat="42.37579" lon="2.68497">
        <ele>703.6</ele>
        <time>2022-05-21 17:23:56</time>
      </trkpt>
      <trkpt lat="42.37579" lon="2.68495">
        <ele>703.8</ele>
        <time>2022-05-21 17:23:57</time>
      </trkpt>
      <trkpt lat="42.3758" lon="2.68492">
        <ele>704</ele>
        <time>2022-05-21 17:23:58</time>
      </trkpt>
      <trkpt lat="42.37581" lon="2.6849">
        <ele>704.2</ele>
        <time>2022-05-21 17:23:59</time>
      </trkpt>
      <trkpt lat="42.37582" lon="2.68487">
        <ele>704.4</ele>
        <time>2022-05-21 17:24:00</time>
      </trkpt>
      <trkpt lat="42.37582" lon="2.68485">
        <ele>704.4</ele>
        <time>2022-05-21 17:24:01</time>
      </trkpt>
      <trkpt lat="42.37583" lon="2.68482">
        <ele>704.6</ele>
        <time>2022-05-21 17:24:02</time>
      </trkpt>
      <trkpt lat="42.37583" lon="2.6848">
        <ele>704.8</ele>
        <time>2022-05-21 17:24:03</time>
      </trkpt>
      <trkpt lat="42.37583" lon="2.68477">
        <ele>705</ele>
        <time>2022-05-21 17:24:04</time>
      </trkpt>
      <trkpt lat="42.37584" lon="2.68474">
        <ele>705.2</ele>
        <time>2022-05-21 17:24:05</time>
      </trkpt>
      <trkpt lat="42.37584" lon="2.68472">
        <ele>705.4</ele>
        <time>2022-05-21 17:24:06</time>
      </trkpt>
      <trkpt lat="42.37584" lon="2.68469">
        <ele>705.4</ele>
        <time>2022-05-21 17:24:07</time>
      </trkpt>
      <trkpt lat="42.37584" lon="2.68466">
        <ele>705.6</ele>
        <time>2022-05-21 17:24:08</time>
      </trkpt>
      <trkpt lat="42.37584" lon="2.68463">
        <ele>705.8</ele>
        <time>2022-05-21 17:24:09</time>
      </trkpt>
      <trkpt lat="42.37584" lon="2.68461">
        <ele>706</ele>
        <time>2022-05-21 17:24:10</time>
      </trkpt>
      <trkpt lat="42.37584" lon="2.68458">
        <ele>706.2</ele>
        <time>2022-05-21 17:24:11</time>
      </trkpt>
      <trkpt lat="42.37584" lon="2.68455">
        <ele>706.2</ele>
        <time>2022-05-21 17:24:12</time>
      </trkpt>
      <trkpt lat="42.37584" lon="2.68452">
        <ele>706.4</ele>
        <time>2022-05-21 17:24:13</time>
      </trkpt>
      <trkpt lat="42.37583" lon="2.68449">
        <ele>706.6</ele>
        <time>2022-05-21 17:24:14</time>
      </trkpt>
      <trkpt lat="42.37582" lon="2.68446">
        <ele>706.8</ele>
        <time>2022-05-21 17:24:15</time>
      </trkpt>
      <trkpt lat="42.37582" lon="2.68443">
        <ele>706.8</ele>
        <time>2022-05-21 17:24:16</time>
      </trkpt>
      <trkpt lat="42.37581" lon="2.68441">
        <ele>707</ele>
        <time>2022-05-21 17:24:17</time>
      </trkpt>
      <trkpt lat="42.3758" lon="2.68438">
        <ele>707.2</ele>
        <time>2022-05-21 17:24:18</time>
      </trkpt>
      <trkpt lat="42.37579" lon="2.68435">
        <ele>707.4</ele>
        <time>2022-05-21 17:24:19</time>
      </trkpt>
      <trkpt lat="42.37578" lon="2.68432">
        <ele>707.4</ele>
        <time>2022-05-21 17:24:20</time>
      </trkpt>
      <trkpt lat="42.37577" lon="2.6843">
        <ele>707.6</ele>
        <time>2022-05-21 17:24:21</time>
      </trkpt>
      <trkpt lat="42.37576" lon="2.68427">
        <ele>707.8</ele>
        <time>2022-05-21 17:24:22</time>
      </trkpt>
      <trkpt lat="42.37575" lon="2.68425">
        <ele>708</ele>
        <time>2022-05-21 17:24:23</time>
      </trkpt>
      <trkpt lat="42.37574" lon="2.68423">
        <ele>708.2</ele>
        <time>2022-05-21 17:24:24</time>
      </trkpt>
      <trkpt lat="42.37573" lon="2.68421">
        <ele>708.2</ele>
        <time>2022-05-21 17:24:25</time>
      </trkpt>
      <trkpt lat="42.37571" lon="2.68419">
        <ele>708.4</ele>
        <time>2022-05-21 17:24:26</time>
      </trkpt>
      <trkpt lat="42.3757" lon="2.68417">
        <ele>708.6</ele>
        <time>2022-05-21 17:24:27</time>
      </trkpt>
      <trkpt lat="42.37569" lon="2.68416">
        <ele>708.8</ele>
        <time>2022-05-21 17:24:28</time>
      </trkpt>
      <trkpt lat="42.37568" lon="2.68415">
        <ele>709</ele>
        <time>2022-05-21 17:24:29</time>
      </trkpt>
      <trkpt lat="42.37566" lon="2.68413">
        <ele>709.2</ele>
        <time>2022-05-21 17:24:30</time>
      </trkpt>
      <trkpt lat="42.37565" lon="2.68412">
        <ele>709.2</ele>
        <time>2022-05-21 17:24:31</time>
      </trkpt>
      <trkpt lat="42.37563" lon="2.68411">
        <ele>709.4</ele>
        <time>2022-05-21 17:24:32</time>
      </trkpt>
      <trkpt lat="42.37561" lon="2.68409">
        <ele>709.6</ele>
        <time>2022-05-21 17:24:33</time>
      </trkpt>
      <trkpt lat="42.37559" lon="2.68408">
        <ele>709.8</ele>
        <time>2022-05-21 17:24:34</time>
      </trkpt>
      <trkpt lat="42.37557" lon="2.68406">
        <ele>709.8</ele>
        <time>2022-05-21 17:24:35</time>
      </trkpt>
      <trkpt lat="42.37555" lon="2.68405">
        <ele>710</ele>
        <time>2022-05-21 17:24:36</time>
      </trkpt>
      <trkpt lat="42.37552" lon="2.68404">
        <ele>710.2</ele>
        <time>2022-05-21 17:24:37</time>
      </trkpt>
      <trkpt lat="42.37549" lon="2.68404">
        <ele>710.4</ele>
        <time>2022-05-21 17:24:38</time>
      </trkpt>
      <trkpt lat="42.37547" lon="2.68403">
        <ele>710.6</ele>
        <time>2022-05-21 17:24:39</time>
      </trkpt>
      <trkpt lat="42.37545" lon="2.68403">
        <ele>710.8</ele>
        <time>2022-05-21 17:24:40</time>
      </trkpt>
      <trkpt lat="42.37542" lon="2.68403">
        <ele>710.8</ele>
        <time>2022-05-21 17:24:41</time>
      </trkpt>
      <trkpt lat="42.3754" lon="2.68403">
        <ele>711</ele>
        <time>2022-05-21 17:24:42</time>
      </trkpt>
      <trkpt lat="42.37538" lon="2.68404">
        <ele>711.2</ele>
        <time>2022-05-21 17:24:43</time>
      </trkpt>
      <trkpt lat="42.37535" lon="2.68404">
        <ele>711.4</ele>
        <time>2022-05-21 17:24:44</time>
      </trkpt>
      <trkpt lat="42.37533" lon="2.68404">
        <ele>711.4</ele>
        <time>2022-05-21 17:24:45</time>
      </trkpt>
      <trkpt lat="42.3753" lon="2.68404">
        <ele>711.6</ele>
        <time>2022-05-21 17:24:46</time>
      </trkpt>
      <trkpt lat="42.37528" lon="2.68405">
        <ele>711.8</ele>
        <time>2022-05-21 17:24:47</time>
      </trkpt>
      <trkpt lat="42.37525" lon="2.68405">
        <ele>712</ele>
        <time>2022-05-21 17:24:48</time>
      </trkpt>
      <trkpt lat="42.37523" lon="2.68405">
        <ele>712.2</ele>
        <time>2022-05-21 17:24:49</time>
      </trkpt>
      <trkpt lat="42.37521" lon="2.68406">
        <ele>712.2</ele>
        <time>2022-05-21 17:24:50</time>
      </trkpt>
      <trkpt lat="42.37519" lon="2.68406">
        <ele>712.4</ele>
        <time>2022-05-21 17:24:51</time>
      </trkpt>
      <trkpt lat="42.37516" lon="2.68406">
        <ele>712.6</ele>
        <time>2022-05-21 17:24:52</time>
      </trkpt>
      <trkpt lat="42.37514" lon="2.68407">
        <ele>712.8</ele>
        <time>2022-05-21 17:24:53</time>
      </trkpt>
      <trkpt lat="42.37512" lon="2.68408">
        <ele>712.8</ele>
        <time>2022-05-21 17:24:54</time>
      </trkpt>
      <trkpt lat="42.37509" lon="2.68409">
        <ele>713</ele>
        <time>2022-05-21 17:24:55</time>
      </trkpt>
      <trkpt lat="42.37507" lon="2.6841">
        <ele>713.2</ele>
        <time>2022-05-21 17:24:56</time>
      </trkpt>
      <trkpt lat="42.37504" lon="2.68411">
        <ele>713.4</ele>
        <time>2022-05-21 17:24:57</time>
      </trkpt>
      <trkpt lat="42.37502" lon="2.68411">
        <ele>713.6</ele>
        <time>2022-05-21 17:24:58</time>
      </trkpt>
      <trkpt lat="42.375" lon="2.68412">
        <ele>713.8</ele>
        <time>2022-05-21 17:24:59</time>
      </trkpt>
      <trkpt lat="42.37498" lon="2.68413">
        <ele>714</ele>
        <time>2022-05-21 17:25:00</time>
      </trkpt>
      <trkpt lat="42.37496" lon="2.68413">
        <ele>714.2</ele>
        <time>2022-05-21 17:25:01</time>
      </trkpt>
      <trkpt lat="42.37494" lon="2.68414">
        <ele>714.2</ele>
        <time>2022-05-21 17:25:02</time>
      </trkpt>
      <trkpt lat="42.37492" lon="2.68414">
        <ele>714.4</ele>
        <time>2022-05-21 17:25:03</time>
      </trkpt>
      <trkpt lat="42.37489" lon="2.68415">
        <ele>714.6</ele>
        <time>2022-05-21 17:25:04</time>
      </trkpt>
      <trkpt lat="42.37487" lon="2.68415">
        <ele>714.8</ele>
        <time>2022-05-21 17:25:05</time>
      </trkpt>
      <trkpt lat="42.37485" lon="2.68416">
        <ele>715</ele>
        <time>2022-05-21 17:25:06</time>
      </trkpt>
      <trkpt lat="42.37483" lon="2.68417">
        <ele>715.2</ele>
        <time>2022-05-21 17:25:07</time>
      </trkpt>
      <trkpt lat="42.37481" lon="2.68418">
        <ele>715.2</ele>
        <time>2022-05-21 17:25:08</time>
      </trkpt>
      <trkpt lat="42.37479" lon="2.68419">
        <ele>715.4</ele>
        <time>2022-05-21 17:25:09</time>
      </trkpt>
      <trkpt lat="42.37477" lon="2.68419">
        <ele>715.6</ele>
        <time>2022-05-21 17:25:10</time>
      </trkpt>
      <trkpt lat="42.37475" lon="2.6842">
        <ele>715.8</ele>
        <time>2022-05-21 17:25:11</time>
      </trkpt>
      <trkpt lat="42.37472" lon="2.6842">
        <ele>716</ele>
        <time>2022-05-21 17:25:12</time>
      </trkpt>
      <trkpt lat="42.3747" lon="2.6842">
        <ele>716.2</ele>
        <time>2022-05-21 17:25:13</time>
      </trkpt>
      <trkpt lat="42.37468" lon="2.6842">
        <ele>716.2</ele>
        <time>2022-05-21 17:25:14</time>
      </trkpt>
      <trkpt lat="42.37466" lon="2.6842">
        <ele>716.4</ele>
        <time>2022-05-21 17:25:15</time>
      </trkpt>
      <trkpt lat="42.37463" lon="2.68419">
        <ele>716.6</ele>
        <time>2022-05-21 17:25:16</time>
      </trkpt>
      <trkpt lat="42.37461" lon="2.68419">
        <ele>716.8</ele>
        <time>2022-05-21 17:25:17</time>
      </trkpt>
      <trkpt lat="42.37459" lon="2.68419">
        <ele>716.8</ele>
        <time>2022-05-21 17:25:18</time>
      </trkpt>
      <trkpt lat="42.37457" lon="2.68418">
        <ele>717</ele>
        <time>2022-05-21 17:25:19</time>
      </trkpt>
      <trkpt lat="42.37455" lon="2.68417">
        <ele>717.2</ele>
        <time>2022-05-21 17:25:20</time>
      </trkpt>
      <trkpt lat="42.37453" lon="2.68416">
        <ele>717.2</ele>
        <time>2022-05-21 17:25:21</time>
      </trkpt>
      <trkpt lat="42.3745" lon="2.68415">
        <ele>717.4</ele>
        <time>2022-05-21 17:25:22</time>
      </trkpt>
      <trkpt lat="42.37448" lon="2.68414">
        <ele>717.6</ele>
        <time>2022-05-21 17:25:23</time>
      </trkpt>
      <trkpt lat="42.37446" lon="2.68413">
        <ele>717.8</ele>
        <time>2022-05-21 17:25:24</time>
      </trkpt>
      <trkpt lat="42.37444" lon="2.68412">
        <ele>717.8</ele>
        <time>2022-05-21 17:25:25</time>
      </trkpt>
      <trkpt lat="42.37442" lon="2.68411">
        <ele>718</ele>
        <time>2022-05-21 17:25:26</time>
      </trkpt>
      <trkpt lat="42.3744" lon="2.6841">
        <ele>718.2</ele>
        <time>2022-05-21 17:25:27</time>
      </trkpt>
      <trkpt lat="42.37437" lon="2.68408">
        <ele>718.2</ele>
        <time>2022-05-21 17:25:28</time>
      </trkpt>
      <trkpt lat="42.37435" lon="2.68406">
        <ele>718.4</ele>
        <time>2022-05-21 17:25:29</time>
      </trkpt>
      <trkpt lat="42.37433" lon="2.68404">
        <ele>718.6</ele>
        <time>2022-05-21 17:25:30</time>
      </trkpt>
      <trkpt lat="42.37431" lon="2.68402">
        <ele>718.6</ele>
        <time>2022-05-21 17:25:31</time>
      </trkpt>
      <trkpt lat="42.37428" lon="2.68401">
        <ele>718.8</ele>
        <time>2022-05-21 17:25:32</time>
      </trkpt>
      <trkpt lat="42.37426" lon="2.68399">
        <ele>718.8</ele>
        <time>2022-05-21 17:25:33</time>
      </trkpt>
      <trkpt lat="42.37423" lon="2.68398">
        <ele>719</ele>
        <time>2022-05-21 17:25:34</time>
      </trkpt>
      <trkpt lat="42.37421" lon="2.68396">
        <ele>719.2</ele>
        <time>2022-05-21 17:25:35</time>
      </trkpt>
      <trkpt lat="42.3742" lon="2.68395">
        <ele>719.2</ele>
        <time>2022-05-21 17:25:36</time>
      </trkpt>
      <trkpt lat="42.37418" lon="2.68393">
        <ele>719.4</ele>
        <time>2022-05-21 17:25:37</time>
      </trkpt>
      <trkpt lat="42.37416" lon="2.6839">
        <ele>719.6</ele>
        <time>2022-05-21 17:25:38</time>
      </trkpt>
      <trkpt lat="42.37414" lon="2.68388">
        <ele>719.6</ele>
        <time>2022-05-21 17:25:39</time>
      </trkpt>
      <trkpt lat="42.37412" lon="2.68387">
        <ele>719.8</ele>
        <time>2022-05-21 17:25:40</time>
      </trkpt>
      <trkpt lat="42.37411" lon="2.68385">
        <ele>719.8</ele>
        <time>2022-05-21 17:25:41</time>
      </trkpt>
      <trkpt lat="42.37409" lon="2.68383">
        <ele>720</ele>
        <time>2022-05-21 17:25:42</time>
      </trkpt>
      <trkpt lat="42.37407" lon="2.68381">
        <ele>720</ele>
        <time>2022-05-21 17:25:43</time>
      </trkpt>
      <trkpt lat="42.37405" lon="2.68379">
        <ele>720.2</ele>
        <time>2022-05-21 17:25:44</time>
      </trkpt>
      <trkpt lat="42.37403" lon="2.68377">
        <ele>720.2</ele>
        <time>2022-05-21 17:25:45</time>
      </trkpt>
      <trkpt lat="42.37401" lon="2.68376">
        <ele>720.4</ele>
        <time>2022-05-21 17:25:46</time>
      </trkpt>
      <trkpt lat="42.37399" lon="2.68374">
        <ele>720.4</ele>
        <time>2022-05-21 17:25:47</time>
      </trkpt>
      <trkpt lat="42.37397" lon="2.68372">
        <ele>720.6</ele>
        <time>2022-05-21 17:25:48</time>
      </trkpt>
      <trkpt lat="42.37395" lon="2.6837">
        <ele>720.6</ele>
        <time>2022-05-21 17:25:49</time>
      </trkpt>
      <trkpt lat="42.37393" lon="2.68369">
        <ele>720.8</ele>
        <time>2022-05-21 17:25:50</time>
      </trkpt>
      <trkpt lat="42.37391" lon="2.68368">
        <ele>720.8</ele>
        <time>2022-05-21 17:25:51</time>
      </trkpt>
      <trkpt lat="42.37388" lon="2.68366">
        <ele>720.8</ele>
        <time>2022-05-21 17:25:52</time>
      </trkpt>
      <trkpt lat="42.37385" lon="2.68364">
        <ele>721</ele>
        <time>2022-05-21 17:25:53</time>
      </trkpt>
      <trkpt lat="42.37382" lon="2.68363">
        <ele>721</ele>
        <time>2022-05-21 17:25:54</time>
      </trkpt>
      <trkpt lat="42.37379" lon="2.68361">
        <ele>721.2</ele>
        <time>2022-05-21 17:25:55</time>
      </trkpt>
      <trkpt lat="42.37376" lon="2.6836">
        <ele>721.2</ele>
        <time>2022-05-21 17:25:56</time>
      </trkpt>
      <trkpt lat="42.37373" lon="2.6836">
        <ele>721.4</ele>
        <time>2022-05-21 17:25:57</time>
      </trkpt>
      <trkpt lat="42.37369" lon="2.6836">
        <ele>721.4</ele>
        <time>2022-05-21 17:25:58</time>
      </trkpt>
      <trkpt lat="42.37366" lon="2.68359">
        <ele>721.6</ele>
        <time>2022-05-21 17:25:59</time>
      </trkpt>
      <trkpt lat="42.37364" lon="2.6836">
        <ele>721.6</ele>
        <time>2022-05-21 17:26:00</time>
      </trkpt>
      <trkpt lat="42.37361" lon="2.6836">
        <ele>721.8</ele>
        <time>2022-05-21 17:26:01</time>
      </trkpt>
      <trkpt lat="42.37358" lon="2.68361">
        <ele>721.8</ele>
        <time>2022-05-21 17:26:02</time>
      </trkpt>
      <trkpt lat="42.37356" lon="2.68362">
        <ele>722</ele>
        <time>2022-05-21 17:26:03</time>
      </trkpt>
      <trkpt lat="42.37353" lon="2.68363">
        <ele>722</ele>
        <time>2022-05-21 17:26:04</time>
      </trkpt>
      <trkpt lat="42.3735" lon="2.68364">
        <ele>722.2</ele>
        <time>2022-05-21 17:26:05</time>
      </trkpt>
      <trkpt lat="42.37347" lon="2.68365">
        <ele>722.2</ele>
        <time>2022-05-21 17:26:06</time>
      </trkpt>
      <trkpt lat="42.37345" lon="2.68367">
        <ele>722.4</ele>
        <time>2022-05-21 17:26:07</time>
      </trkpt>
      <trkpt lat="42.37342" lon="2.68368">
        <ele>722.4</ele>
        <time>2022-05-21 17:26:08</time>
      </trkpt>
      <trkpt lat="42.37339" lon="2.6837">
        <ele>722.6</ele>
        <time>2022-05-21 17:26:09</time>
      </trkpt>
      <trkpt lat="42.37336" lon="2.68373">
        <ele>722.6</ele>
        <time>2022-05-21 17:26:10</time>
      </trkpt>
      <trkpt lat="42.37333" lon="2.68375">
        <ele>722.8</ele>
        <time>2022-05-21 17:26:11</time>
      </trkpt>
      <trkpt lat="42.3733" lon="2.68378">
        <ele>722.8</ele>
        <time>2022-05-21 17:26:12</time>
      </trkpt>
      <trkpt lat="42.37327" lon="2.68381">
        <ele>723</ele>
        <time>2022-05-21 17:26:13</time>
      </trkpt>
      <trkpt lat="42.37324" lon="2.68383">
        <ele>723</ele>
        <time>2022-05-21 17:26:14</time>
      </trkpt>
      <trkpt lat="42.37321" lon="2.68385">
        <ele>723.2</ele>
        <time>2022-05-21 17:26:15</time>
      </trkpt>
      <trkpt lat="42.37319" lon="2.68387">
        <ele>723.4</ele>
        <time>2022-05-21 17:26:16</time>
      </trkpt>
      <trkpt lat="42.37315" lon="2.68389">
        <ele>723.4</ele>
        <time>2022-05-21 17:26:17</time>
      </trkpt>
      <trkpt lat="42.37313" lon="2.68391">
        <ele>723.6</ele>
        <time>2022-05-21 17:26:18</time>
      </trkpt>
      <trkpt lat="42.3731" lon="2.68392">
        <ele>723.8</ele>
        <time>2022-05-21 17:26:19</time>
      </trkpt>
      <trkpt lat="42.37308" lon="2.68394">
        <ele>723.8</ele>
        <time>2022-05-21 17:26:20</time>
      </trkpt>
      <trkpt lat="42.37304" lon="2.68395">
        <ele>724</ele>
        <time>2022-05-21 17:26:21</time>
      </trkpt>
      <trkpt lat="42.37301" lon="2.68396">
        <ele>724.2</ele>
        <time>2022-05-21 17:26:22</time>
      </trkpt>
      <trkpt lat="42.37298" lon="2.68397">
        <ele>724.2</ele>
        <time>2022-05-21 17:26:23</time>
      </trkpt>
      <trkpt lat="42.37295" lon="2.68399">
        <ele>724.4</ele>
        <time>2022-05-21 17:26:24</time>
      </trkpt>
      <trkpt lat="42.37292" lon="2.684">
        <ele>724.4</ele>
        <time>2022-05-21 17:26:25</time>
      </trkpt>
      <trkpt lat="42.3729" lon="2.68401">
        <ele>724.6</ele>
        <time>2022-05-21 17:26:26</time>
      </trkpt>
      <trkpt lat="42.37287" lon="2.68403">
        <ele>724.8</ele>
        <time>2022-05-21 17:26:27</time>
      </trkpt>
      <trkpt lat="42.37284" lon="2.68404">
        <ele>724.8</ele>
        <time>2022-05-21 17:26:28</time>
      </trkpt>
      <trkpt lat="42.37281" lon="2.68404">
        <ele>725</ele>
        <time>2022-05-21 17:26:29</time>
      </trkpt>
      <trkpt lat="42.37278" lon="2.68405">
        <ele>725</ele>
        <time>2022-05-21 17:26:30</time>
      </trkpt>
      <trkpt lat="42.37275" lon="2.68405">
        <ele>725.2</ele>
        <time>2022-05-21 17:26:31</time>
      </trkpt>
      <trkpt lat="42.37272" lon="2.68405">
        <ele>725.4</ele>
        <time>2022-05-21 17:26:32</time>
      </trkpt>
      <trkpt lat="42.37269" lon="2.68405">
        <ele>725.4</ele>
        <time>2022-05-21 17:26:33</time>
      </trkpt>
      <trkpt lat="42.37266" lon="2.68405">
        <ele>725.6</ele>
        <time>2022-05-21 17:26:34</time>
      </trkpt>
      <trkpt lat="42.37262" lon="2.68404">
        <ele>725.6</ele>
        <time>2022-05-21 17:26:35</time>
      </trkpt>
      <trkpt lat="42.37259" lon="2.68403">
        <ele>725.8</ele>
        <time>2022-05-21 17:26:36</time>
      </trkpt>
      <trkpt lat="42.37257" lon="2.68403">
        <ele>725.8</ele>
        <time>2022-05-21 17:26:37</time>
      </trkpt>
      <trkpt lat="42.37254" lon="2.68402">
        <ele>726</ele>
        <time>2022-05-21 17:26:38</time>
      </trkpt>
      <trkpt lat="42.37251" lon="2.68401">
        <ele>726.2</ele>
        <time>2022-05-21 17:26:39</time>
      </trkpt>
      <trkpt lat="42.37248" lon="2.684">
        <ele>726.2</ele>
        <time>2022-05-21 17:26:40</time>
      </trkpt>
      <trkpt lat="42.37245" lon="2.68399">
        <ele>726.4</ele>
        <time>2022-05-21 17:26:41</time>
      </trkpt>
      <trkpt lat="42.37242" lon="2.68397">
        <ele>726.6</ele>
        <time>2022-05-21 17:26:42</time>
      </trkpt>
      <trkpt lat="42.37239" lon="2.68396">
        <ele>726.8</ele>
        <time>2022-05-21 17:26:43</time>
      </trkpt>
      <trkpt lat="42.37237" lon="2.68395">
        <ele>726.8</ele>
        <time>2022-05-21 17:26:44</time>
      </trkpt>
      <trkpt lat="42.37234" lon="2.68394">
        <ele>727</ele>
        <time>2022-05-21 17:26:45</time>
      </trkpt>
      <trkpt lat="42.37231" lon="2.68393">
        <ele>727.2</ele>
        <time>2022-05-21 17:26:46</time>
      </trkpt>
      <trkpt lat="42.37229" lon="2.68391">
        <ele>727.2</ele>
        <time>2022-05-21 17:26:47</time>
      </trkpt>
      <trkpt lat="42.37226" lon="2.68389">
        <ele>727.4</ele>
        <time>2022-05-21 17:26:48</time>
      </trkpt>
      <trkpt lat="42.37224" lon="2.68388">
        <ele>727.6</ele>
        <time>2022-05-21 17:26:49</time>
      </trkpt>
      <trkpt lat="42.37221" lon="2.68386">
        <ele>727.6</ele>
        <time>2022-05-21 17:26:50</time>
      </trkpt>
      <trkpt lat="42.37219" lon="2.68384">
        <ele>727.8</ele>
        <time>2022-05-21 17:26:51</time>
      </trkpt>
      <trkpt lat="42.37216" lon="2.68383">
        <ele>727.8</ele>
        <time>2022-05-21 17:26:52</time>
      </trkpt>
      <trkpt lat="42.37213" lon="2.6838">
        <ele>728</ele>
        <time>2022-05-21 17:26:53</time>
      </trkpt>
      <trkpt lat="42.37211" lon="2.68379">
        <ele>728.2</ele>
        <time>2022-05-21 17:26:54</time>
      </trkpt>
      <trkpt lat="42.37208" lon="2.68377">
        <ele>728.2</ele>
        <time>2022-05-21 17:26:55</time>
      </trkpt>
      <trkpt lat="42.37205" lon="2.68375">
        <ele>728.4</ele>
        <time>2022-05-21 17:26:56</time>
      </trkpt>
      <trkpt lat="42.37203" lon="2.68373">
        <ele>728.6</ele>
        <time>2022-05-21 17:26:57</time>
      </trkpt>
      <trkpt lat="42.372" lon="2.68372">
        <ele>728.6</ele>
        <time>2022-05-21 17:26:58</time>
      </trkpt>
      <trkpt lat="42.37198" lon="2.6837">
        <ele>728.8</ele>
        <time>2022-05-21 17:26:59</time>
      </trkpt>
      <trkpt lat="42.37195" lon="2.68368">
        <ele>728.8</ele>
        <time>2022-05-21 17:27:00</time>
      </trkpt>
      <trkpt lat="42.37192" lon="2.68367">
        <ele>729</ele>
        <time>2022-05-21 17:27:01</time>
      </trkpt>
      <trkpt lat="42.3719" lon="2.68365">
        <ele>729</ele>
        <time>2022-05-21 17:27:02</time>
      </trkpt>
      <trkpt lat="42.37187" lon="2.68363">
        <ele>729.2</ele>
        <time>2022-05-21 17:27:03</time>
      </trkpt>
      <trkpt lat="42.37184" lon="2.68361">
        <ele>729.4</ele>
        <time>2022-05-21 17:27:04</time>
      </trkpt>
      <trkpt lat="42.37182" lon="2.68359">
        <ele>729.4</ele>
        <time>2022-05-21 17:27:05</time>
      </trkpt>
      <trkpt lat="42.37179" lon="2.68356">
        <ele>729.6</ele>
        <time>2022-05-21 17:27:06</time>
      </trkpt>
      <trkpt lat="42.37176" lon="2.68354">
        <ele>729.6</ele>
        <time>2022-05-21 17:27:07</time>
      </trkpt>
      <trkpt lat="42.37173" lon="2.68352">
        <ele>729.8</ele>
        <time>2022-05-21 17:27:08</time>
      </trkpt>
      <trkpt lat="42.37171" lon="2.6835">
        <ele>729.8</ele>
        <time>2022-05-21 17:27:09</time>
      </trkpt>
      <trkpt lat="42.37168" lon="2.68348">
        <ele>730</ele>
        <time>2022-05-21 17:27:10</time>
      </trkpt>
      <trkpt lat="42.37165" lon="2.68345">
        <ele>730.2</ele>
        <time>2022-05-21 17:27:11</time>
      </trkpt>
      <trkpt lat="42.37163" lon="2.68343">
        <ele>730.2</ele>
        <time>2022-05-21 17:27:12</time>
      </trkpt>
      <trkpt lat="42.37161" lon="2.6834">
        <ele>730.4</ele>
        <time>2022-05-21 17:27:13</time>
      </trkpt>
      <trkpt lat="42.37159" lon="2.68337">
        <ele>730.4</ele>
        <time>2022-05-21 17:27:14</time>
      </trkpt>
      <trkpt lat="42.37157" lon="2.68334">
        <ele>730.6</ele>
        <time>2022-05-21 17:27:15</time>
      </trkpt>
      <trkpt lat="42.37156" lon="2.6833">
        <ele>730.8</ele>
        <time>2022-05-21 17:27:16</time>
      </trkpt>
      <trkpt lat="42.37154" lon="2.68327">
        <ele>730.8</ele>
        <time>2022-05-21 17:27:17</time>
      </trkpt>
      <trkpt lat="42.37153" lon="2.68323">
        <ele>731</ele>
        <time>2022-05-21 17:27:18</time>
      </trkpt>
      <trkpt lat="42.37152" lon="2.68319">
        <ele>731.2</ele>
        <time>2022-05-21 17:27:19</time>
      </trkpt>
      <trkpt lat="42.37151" lon="2.68315">
        <ele>731.4</ele>
        <time>2022-05-21 17:27:20</time>
      </trkpt>
      <trkpt lat="42.37151" lon="2.68311">
        <ele>731.4</ele>
        <time>2022-05-21 17:27:21</time>
      </trkpt>
      <trkpt lat="42.3715" lon="2.68306">
        <ele>731.6</ele>
        <time>2022-05-21 17:27:22</time>
      </trkpt>
      <trkpt lat="42.3715" lon="2.68302">
        <ele>731.8</ele>
        <time>2022-05-21 17:27:23</time>
      </trkpt>
      <trkpt lat="42.3715" lon="2.68298">
        <ele>732</ele>
        <time>2022-05-21 17:27:24</time>
      </trkpt>
      <trkpt lat="42.3715" lon="2.68294">
        <ele>732.2</ele>
        <time>2022-05-21 17:27:25</time>
      </trkpt>
      <trkpt lat="42.3715" lon="2.68289">
        <ele>732.2</ele>
        <time>2022-05-21 17:27:26</time>
      </trkpt>
      <trkpt lat="42.3715" lon="2.68285">
        <ele>732.4</ele>
        <time>2022-05-21 17:27:27</time>
      </trkpt>
      <trkpt lat="42.3715" lon="2.68281">
        <ele>732.6</ele>
        <time>2022-05-21 17:27:28</time>
      </trkpt>
      <trkpt lat="42.3715" lon="2.68278">
        <ele>732.6</ele>
        <time>2022-05-21 17:27:29</time>
      </trkpt>
      <trkpt lat="42.37151" lon="2.68274">
        <ele>732.8</ele>
        <time>2022-05-21 17:27:30</time>
      </trkpt>
      <trkpt lat="42.37151" lon="2.68271">
        <ele>733</ele>
        <time>2022-05-21 17:27:31</time>
      </trkpt>
      <trkpt lat="42.37151" lon="2.68267">
        <ele>733</ele>
        <time>2022-05-21 17:27:32</time>
      </trkpt>
      <trkpt lat="42.37151" lon="2.68263">
        <ele>733.2</ele>
        <time>2022-05-21 17:27:33</time>
      </trkpt>
      <trkpt lat="42.37151" lon="2.68259">
        <ele>733.4</ele>
        <time>2022-05-21 17:27:34</time>
      </trkpt>
      <trkpt lat="42.3715" lon="2.68255">
        <ele>733.4</ele>
        <time>2022-05-21 17:27:35</time>
      </trkpt>
      <trkpt lat="42.3715" lon="2.68251">
        <ele>733.6</ele>
        <time>2022-05-21 17:27:36</time>
      </trkpt>
      <trkpt lat="42.37149" lon="2.68247">
        <ele>733.8</ele>
        <time>2022-05-21 17:27:37</time>
      </trkpt>
      <trkpt lat="42.37149" lon="2.68243">
        <ele>733.8</ele>
        <time>2022-05-21 17:27:38</time>
      </trkpt>
      <trkpt lat="42.37148" lon="2.68239">
        <ele>734</ele>
        <time>2022-05-21 17:27:39</time>
      </trkpt>
      <trkpt lat="42.37147" lon="2.68235">
        <ele>734</ele>
        <time>2022-05-21 17:27:40</time>
      </trkpt>
      <trkpt lat="42.37146" lon="2.68232">
        <ele>734.2</ele>
        <time>2022-05-21 17:27:41</time>
      </trkpt>
      <trkpt lat="42.37145" lon="2.68228">
        <ele>734.2</ele>
        <time>2022-05-21 17:27:42</time>
      </trkpt>
      <trkpt lat="42.37144" lon="2.68224">
        <ele>734.4</ele>
        <time>2022-05-21 17:27:43</time>
      </trkpt>
      <trkpt lat="42.37142" lon="2.68221">
        <ele>734.6</ele>
        <time>2022-05-21 17:27:44</time>
      </trkpt>
      <trkpt lat="42.37141" lon="2.68217">
        <ele>734.6</ele>
        <time>2022-05-21 17:27:45</time>
      </trkpt>
      <trkpt lat="42.3714" lon="2.68213">
        <ele>734.6</ele>
        <time>2022-05-21 17:27:46</time>
      </trkpt>
      <trkpt lat="42.37138" lon="2.6821">
        <ele>734.8</ele>
        <time>2022-05-21 17:27:47</time>
      </trkpt>
      <trkpt lat="42.37137" lon="2.68206">
        <ele>735</ele>
        <time>2022-05-21 17:27:48</time>
      </trkpt>
      <trkpt lat="42.37135" lon="2.68202">
        <ele>735</ele>
        <time>2022-05-21 17:27:49</time>
      </trkpt>
      <trkpt lat="42.37134" lon="2.68199">
        <ele>735.2</ele>
        <time>2022-05-21 17:27:50</time>
      </trkpt>
      <trkpt lat="42.37132" lon="2.68195">
        <ele>735.2</ele>
        <time>2022-05-21 17:27:51</time>
      </trkpt>
      <trkpt lat="42.37131" lon="2.68191">
        <ele>735.4</ele>
        <time>2022-05-21 17:27:52</time>
      </trkpt>
      <trkpt lat="42.37129" lon="2.68188">
        <ele>735.4</ele>
        <time>2022-05-21 17:27:53</time>
      </trkpt>
      <trkpt lat="42.37128" lon="2.68184">
        <ele>735.6</ele>
        <time>2022-05-21 17:27:54</time>
      </trkpt>
      <trkpt lat="42.37127" lon="2.68181">
        <ele>735.6</ele>
        <time>2022-05-21 17:27:55</time>
      </trkpt>
      <trkpt lat="42.37126" lon="2.68177">
        <ele>735.8</ele>
        <time>2022-05-21 17:27:56</time>
      </trkpt>
      <trkpt lat="42.37125" lon="2.68173">
        <ele>736</ele>
        <time>2022-05-21 17:27:57</time>
      </trkpt>
      <trkpt lat="42.37124" lon="2.68169">
        <ele>736</ele>
        <time>2022-05-21 17:27:58</time>
      </trkpt>
      <trkpt lat="42.37124" lon="2.68165">
        <ele>736.2</ele>
        <time>2022-05-21 17:27:59</time>
      </trkpt>
      <trkpt lat="42.37123" lon="2.68161">
        <ele>736.2</ele>
        <time>2022-05-21 17:28:00</time>
      </trkpt>
      <trkpt lat="42.37123" lon="2.68158">
        <ele>736.4</ele>
        <time>2022-05-21 17:28:01</time>
      </trkpt>
      <trkpt lat="42.37123" lon="2.68153">
        <ele>736.6</ele>
        <time>2022-05-21 17:28:02</time>
      </trkpt>
      <trkpt lat="42.37122" lon="2.68149">
        <ele>736.6</ele>
        <time>2022-05-21 17:28:03</time>
      </trkpt>
      <trkpt lat="42.37122" lon="2.68145">
        <ele>736.8</ele>
        <time>2022-05-21 17:28:04</time>
      </trkpt>
      <trkpt lat="42.37123" lon="2.68142">
        <ele>736.8</ele>
        <time>2022-05-21 17:28:05</time>
      </trkpt>
      <trkpt lat="42.37123" lon="2.68138">
        <ele>737</ele>
        <time>2022-05-21 17:28:06</time>
      </trkpt>
      <trkpt lat="42.37123" lon="2.68134">
        <ele>737.2</ele>
        <time>2022-05-21 17:28:07</time>
      </trkpt>
      <trkpt lat="42.37123" lon="2.6813">
        <ele>737.2</ele>
        <time>2022-05-21 17:28:08</time>
      </trkpt>
      <trkpt lat="42.37124" lon="2.68126">
        <ele>737.4</ele>
        <time>2022-05-21 17:28:09</time>
      </trkpt>
      <trkpt lat="42.37124" lon="2.68123">
        <ele>737.6</ele>
        <time>2022-05-21 17:28:10</time>
      </trkpt>
      <trkpt lat="42.37125" lon="2.68119">
        <ele>737.6</ele>
        <time>2022-05-21 17:28:11</time>
      </trkpt>
      <trkpt lat="42.37126" lon="2.68115">
        <ele>737.8</ele>
        <time>2022-05-21 17:28:12</time>
      </trkpt>
      <trkpt lat="42.37126" lon="2.68111">
        <ele>737.8</ele>
        <time>2022-05-21 17:28:13</time>
      </trkpt>
      <trkpt lat="42.37127" lon="2.68107">
        <ele>738</ele>
        <time>2022-05-21 17:28:14</time>
      </trkpt>
      <trkpt lat="42.37127" lon="2.68103">
        <ele>738.2</ele>
        <time>2022-05-21 17:28:15</time>
      </trkpt>
      <trkpt lat="42.37128" lon="2.68099">
        <ele>738.2</ele>
        <time>2022-05-21 17:28:16</time>
      </trkpt>
      <trkpt lat="42.37128" lon="2.68095">
        <ele>738.4</ele>
        <time>2022-05-21 17:28:17</time>
      </trkpt>
      <trkpt lat="42.37129" lon="2.68091">
        <ele>738.4</ele>
        <time>2022-05-21 17:28:18</time>
      </trkpt>
      <trkpt lat="42.3713" lon="2.68087">
        <ele>738.6</ele>
        <time>2022-05-21 17:28:19</time>
      </trkpt>
      <trkpt lat="42.3713" lon="2.68084">
        <ele>738.6</ele>
        <time>2022-05-21 17:28:20</time>
      </trkpt>
      <trkpt lat="42.37131" lon="2.6808">
        <ele>738.8</ele>
        <time>2022-05-21 17:28:21</time>
      </trkpt>
      <trkpt lat="42.37132" lon="2.68076">
        <ele>738.8</ele>
        <time>2022-05-21 17:28:22</time>
      </trkpt>
      <trkpt lat="42.37132" lon="2.68072">
        <ele>739</ele>
        <time>2022-05-21 17:28:23</time>
      </trkpt>
      <trkpt lat="42.37133" lon="2.68068">
        <ele>739</ele>
        <time>2022-05-21 17:28:24</time>
      </trkpt>
      <trkpt lat="42.37134" lon="2.68063">
        <ele>739.2</ele>
        <time>2022-05-21 17:28:25</time>
      </trkpt>
      <trkpt lat="42.37135" lon="2.68059">
        <ele>739.2</ele>
        <time>2022-05-21 17:28:26</time>
      </trkpt>
      <trkpt lat="42.37136" lon="2.68055">
        <ele>739.4</ele>
        <time>2022-05-21 17:28:27</time>
      </trkpt>
      <trkpt lat="42.37137" lon="2.6805">
        <ele>739.4</ele>
        <time>2022-05-21 17:28:28</time>
      </trkpt>
      <trkpt lat="42.37138" lon="2.68046">
        <ele>739.4</ele>
        <time>2022-05-21 17:28:29</time>
      </trkpt>
      <trkpt lat="42.37139" lon="2.68041">
        <ele>739.6</ele>
        <time>2022-05-21 17:28:30</time>
      </trkpt>
      <trkpt lat="42.37139" lon="2.68036">
        <ele>739.6</ele>
        <time>2022-05-21 17:28:31</time>
      </trkpt>
      <trkpt lat="42.3714" lon="2.68031">
        <ele>739.6</ele>
        <time>2022-05-21 17:28:32</time>
      </trkpt>
      <trkpt lat="42.37141" lon="2.68026">
        <ele>739.6</ele>
        <time>2022-05-21 17:28:33</time>
      </trkpt>
      <trkpt lat="42.37142" lon="2.68021">
        <ele>739.6</ele>
        <time>2022-05-21 17:28:34</time>
      </trkpt>
      <trkpt lat="42.37142" lon="2.68017">
        <ele>739.6</ele>
        <time>2022-05-21 17:28:35</time>
      </trkpt>
      <trkpt lat="42.37143" lon="2.68011">
        <ele>739.6</ele>
        <time>2022-05-21 17:28:36</time>
      </trkpt>
      <trkpt lat="42.37144" lon="2.68005">
        <ele>739.6</ele>
        <time>2022-05-21 17:28:37</time>
      </trkpt>
      <trkpt lat="42.37145" lon="2.67999">
        <ele>739.6</ele>
        <time>2022-05-21 17:28:38</time>
      </trkpt>
      <trkpt lat="42.37146" lon="2.67992">
        <ele>739.4</ele>
        <time>2022-05-21 17:28:39</time>
      </trkpt>
      <trkpt lat="42.37147" lon="2.67985">
        <ele>739.4</ele>
        <time>2022-05-21 17:28:40</time>
      </trkpt>
      <trkpt lat="42.37148" lon="2.67978">
        <ele>739.4</ele>
        <time>2022-05-21 17:28:41</time>
      </trkpt>
      <trkpt lat="42.37149" lon="2.67971">
        <ele>739.4</ele>
        <time>2022-05-21 17:28:42</time>
      </trkpt>
      <trkpt lat="42.37149" lon="2.67964">
        <ele>739.2</ele>
        <time>2022-05-21 17:28:43</time>
      </trkpt>
      <trkpt lat="42.37149" lon="2.67956">
        <ele>739.2</ele>
        <time>2022-05-21 17:28:44</time>
      </trkpt>
      <trkpt lat="42.37149" lon="2.67949">
        <ele>739</ele>
        <time>2022-05-21 17:28:45</time>
      </trkpt>
      <trkpt lat="42.37149" lon="2.67941">
        <ele>739</ele>
        <time>2022-05-21 17:28:46</time>
      </trkpt>
      <trkpt lat="42.37149" lon="2.67933">
        <ele>738.8</ele>
        <time>2022-05-21 17:28:47</time>
      </trkpt>
      <trkpt lat="42.37148" lon="2.67925">
        <ele>738.6</ele>
        <time>2022-05-21 17:28:48</time>
      </trkpt>
      <trkpt lat="42.37146" lon="2.67917">
        <ele>738.4</ele>
        <time>2022-05-21 17:28:49</time>
      </trkpt>
      <trkpt lat="42.37145" lon="2.67909">
        <ele>738.4</ele>
        <time>2022-05-21 17:28:50</time>
      </trkpt>
      <trkpt lat="42.37143" lon="2.67901">
        <ele>738.2</ele>
        <time>2022-05-21 17:28:51</time>
      </trkpt>
      <trkpt lat="42.37141" lon="2.67893">
        <ele>738</ele>
        <time>2022-05-21 17:28:52</time>
      </trkpt>
      <trkpt lat="42.3714" lon="2.67884">
        <ele>737.8</ele>
        <time>2022-05-21 17:28:53</time>
      </trkpt>
      <trkpt lat="42.37138" lon="2.67876">
        <ele>737.6</ele>
        <time>2022-05-21 17:28:54</time>
      </trkpt>
      <trkpt lat="42.37137" lon="2.67866">
        <ele>737.4</ele>
        <time>2022-05-21 17:28:55</time>
      </trkpt>
      <trkpt lat="42.37136" lon="2.67857">
        <ele>737.2</ele>
        <time>2022-05-21 17:28:56</time>
      </trkpt>
      <trkpt lat="42.37136" lon="2.67847">
        <ele>736.8</ele>
        <time>2022-05-21 17:28:57</time>
      </trkpt>
      <trkpt lat="42.37137" lon="2.67838">
        <ele>736.6</ele>
        <time>2022-05-21 17:28:58</time>
      </trkpt>
      <trkpt lat="42.37138" lon="2.67829">
        <ele>736.4</ele>
        <time>2022-05-21 17:28:59</time>
      </trkpt>
      <trkpt lat="42.37141" lon="2.6782">
        <ele>736.2</ele>
        <time>2022-05-21 17:29:00</time>
      </trkpt>
      <trkpt lat="42.37145" lon="2.67811">
        <ele>736</ele>
        <time>2022-05-21 17:29:01</time>
      </trkpt>
      <trkpt lat="42.37148" lon="2.67803">
        <ele>735.8</ele>
        <time>2022-05-21 17:29:02</time>
      </trkpt>
      <trkpt lat="42.37152" lon="2.67794">
        <ele>735.6</ele>
        <time>2022-05-21 17:29:03</time>
      </trkpt>
      <trkpt lat="42.37155" lon="2.67786">
        <ele>735.4</ele>
        <time>2022-05-21 17:29:04</time>
      </trkpt>
      <trkpt lat="42.37159" lon="2.67777">
        <ele>735.2</ele>
        <time>2022-05-21 17:29:05</time>
      </trkpt>
      <trkpt lat="42.37162" lon="2.67768">
        <ele>735</ele>
        <time>2022-05-21 17:29:06</time>
      </trkpt>
      <trkpt lat="42.37166" lon="2.6776">
        <ele>735</ele>
        <time>2022-05-21 17:29:07</time>
      </trkpt>
      <trkpt lat="42.3717" lon="2.67752">
        <ele>734.8</ele>
        <time>2022-05-21 17:29:08</time>
      </trkpt>
      <trkpt lat="42.37174" lon="2.67743">
        <ele>734.6</ele>
        <time>2022-05-21 17:29:09</time>
      </trkpt>
      <trkpt lat="42.37178" lon="2.67735">
        <ele>734.4</ele>
        <time>2022-05-21 17:29:10</time>
      </trkpt>
      <trkpt lat="42.37181" lon="2.67726">
        <ele>734.2</ele>
        <time>2022-05-21 17:29:11</time>
      </trkpt>
      <trkpt lat="42.37183" lon="2.67716">
        <ele>734.2</ele>
        <time>2022-05-21 17:29:12</time>
      </trkpt>
      <trkpt lat="42.37184" lon="2.67707">
        <ele>734</ele>
        <time>2022-05-21 17:29:13</time>
      </trkpt>
      <trkpt lat="42.37184" lon="2.67696">
        <ele>733.8</ele>
        <time>2022-05-21 17:29:14</time>
      </trkpt>
      <trkpt lat="42.37183" lon="2.67686">
        <ele>733.6</ele>
        <time>2022-05-21 17:29:15</time>
      </trkpt>
      <trkpt lat="42.3718" lon="2.67677">
        <ele>733.4</ele>
        <time>2022-05-21 17:29:16</time>
      </trkpt>
      <trkpt lat="42.37176" lon="2.67668">
        <ele>733.4</ele>
        <time>2022-05-21 17:29:17</time>
      </trkpt>
      <trkpt lat="42.37172" lon="2.67661">
        <ele>733.2</ele>
        <time>2022-05-21 17:29:18</time>
      </trkpt>
      <trkpt lat="42.37166" lon="2.67655">
        <ele>733.2</ele>
        <time>2022-05-21 17:29:19</time>
      </trkpt>
      <trkpt lat="42.3716" lon="2.6765">
        <ele>733.2</ele>
        <time>2022-05-21 17:29:20</time>
      </trkpt>
      <trkpt lat="42.37154" lon="2.67646">
        <ele>733.2</ele>
        <time>2022-05-21 17:29:21</time>
      </trkpt>
      <trkpt lat="42.37148" lon="2.67643">
        <ele>733.2</ele>
        <time>2022-05-21 17:29:22</time>
      </trkpt>
      <trkpt lat="42.37142" lon="2.67641">
        <ele>733.2</ele>
        <time>2022-05-21 17:29:23</time>
      </trkpt>
      <trkpt lat="42.37136" lon="2.67639">
        <ele>733.4</ele>
        <time>2022-05-21 17:29:24</time>
      </trkpt>
      <trkpt lat="42.3713" lon="2.67637">
        <ele>733.4</ele>
        <time>2022-05-21 17:29:25</time>
      </trkpt>
      <trkpt lat="42.37124" lon="2.67635">
        <ele>733.6</ele>
        <time>2022-05-21 17:29:26</time>
      </trkpt>
      <trkpt lat="42.37118" lon="2.67634">
        <ele>733.6</ele>
        <time>2022-05-21 17:29:27</time>
      </trkpt>
      <trkpt lat="42.37113" lon="2.67633">
        <ele>733.8</ele>
        <time>2022-05-21 17:29:28</time>
      </trkpt>
      <trkpt lat="42.37107" lon="2.67632">
        <ele>733.8</ele>
        <time>2022-05-21 17:29:29</time>
      </trkpt>
      <trkpt lat="42.37101" lon="2.67632">
        <ele>734</ele>
        <time>2022-05-21 17:29:30</time>
      </trkpt>
      <trkpt lat="42.37095" lon="2.67633">
        <ele>734.2</ele>
        <time>2022-05-21 17:29:31</time>
      </trkpt>
      <trkpt lat="42.3709" lon="2.67634">
        <ele>734.2</ele>
        <time>2022-05-21 17:29:32</time>
      </trkpt>
      <trkpt lat="42.37085" lon="2.67636">
        <ele>734.4</ele>
        <time>2022-05-21 17:29:33</time>
      </trkpt>
      <trkpt lat="42.37079" lon="2.67638">
        <ele>734.4</ele>
        <time>2022-05-21 17:29:34</time>
      </trkpt>
      <trkpt lat="42.37075" lon="2.67641">
        <ele>734.6</ele>
        <time>2022-05-21 17:29:35</time>
      </trkpt>
      <trkpt lat="42.3707" lon="2.67644">
        <ele>734.8</ele>
        <time>2022-05-21 17:29:36</time>
      </trkpt>
      <trkpt lat="42.37065" lon="2.67646">
        <ele>734.8</ele>
        <time>2022-05-21 17:29:37</time>
      </trkpt>
      <trkpt lat="42.3706" lon="2.67649">
        <ele>735</ele>
        <time>2022-05-21 17:29:38</time>
      </trkpt>
      <trkpt lat="42.37056" lon="2.67652">
        <ele>735.2</ele>
        <time>2022-05-21 17:29:39</time>
      </trkpt>
      <trkpt lat="42.37051" lon="2.67655">
        <ele>735.2</ele>
        <time>2022-05-21 17:29:40</time>
      </trkpt>
      <trkpt lat="42.37046" lon="2.67657">
        <ele>735.4</ele>
        <time>2022-05-21 17:29:41</time>
      </trkpt>
      <trkpt lat="42.37042" lon="2.67661">
        <ele>735.6</ele>
        <time>2022-05-21 17:29:42</time>
      </trkpt>
      <trkpt lat="42.37038" lon="2.67663">
        <ele>735.6</ele>
        <time>2022-05-21 17:29:43</time>
      </trkpt>
      <trkpt lat="42.37034" lon="2.67666">
        <ele>735.8</ele>
        <time>2022-05-21 17:29:44</time>
      </trkpt>
      <trkpt lat="42.3703" lon="2.67669">
        <ele>735.8</ele>
        <time>2022-05-21 17:29:45</time>
      </trkpt>
      <trkpt lat="42.37026" lon="2.67672">
        <ele>736</ele>
        <time>2022-05-21 17:29:46</time>
      </trkpt>
      <trkpt lat="42.37021" lon="2.67674">
        <ele>736.2</ele>
        <time>2022-05-21 17:29:47</time>
      </trkpt>
      <trkpt lat="42.37018" lon="2.67677">
        <ele>736.4</ele>
        <time>2022-05-21 17:29:48</time>
      </trkpt>
      <trkpt lat="42.37014" lon="2.67679">
        <ele>736.6</ele>
        <time>2022-05-21 17:29:49</time>
      </trkpt>
      <trkpt lat="42.37011" lon="2.67682">
        <ele>736.8</ele>
        <time>2022-05-21 17:29:50</time>
      </trkpt>
      <trkpt lat="42.37007" lon="2.67684">
        <ele>737</ele>
        <time>2022-05-21 17:29:51</time>
      </trkpt>
      <trkpt lat="42.37003" lon="2.67686">
        <ele>737.2</ele>
        <time>2022-05-21 17:29:52</time>
      </trkpt>
      <trkpt lat="42.37" lon="2.67687">
        <ele>737.4</ele>
        <time>2022-05-21 17:29:53</time>
      </trkpt>
      <trkpt lat="42.36997" lon="2.67689">
        <ele>737.6</ele>
        <time>2022-05-21 17:29:54</time>
      </trkpt>
      <trkpt lat="42.36995" lon="2.67691">
        <ele>737.8</ele>
        <time>2022-05-21 17:29:55</time>
      </trkpt>
      <trkpt lat="42.36992" lon="2.67693">
        <ele>738</ele>
        <time>2022-05-21 17:29:56</time>
      </trkpt>
      <trkpt lat="42.36989" lon="2.67695">
        <ele>738.2</ele>
        <time>2022-05-21 17:29:57</time>
      </trkpt>
      <trkpt lat="42.36987" lon="2.67697">
        <ele>738.6</ele>
        <time>2022-05-21 17:29:58</time>
      </trkpt>
      <trkpt lat="42.36984" lon="2.67699">
        <ele>738.8</ele>
        <time>2022-05-21 17:29:59</time>
      </trkpt>
      <trkpt lat="42.36982" lon="2.677">
        <ele>739</ele>
        <time>2022-05-21 17:30:00</time>
      </trkpt>
      <trkpt lat="42.36979" lon="2.67702">
        <ele>739.2</ele>
        <time>2022-05-21 17:30:01</time>
      </trkpt>
      <trkpt lat="42.36977" lon="2.67704">
        <ele>739.4</ele>
        <time>2022-05-21 17:30:02</time>
      </trkpt>
      <trkpt lat="42.36974" lon="2.67706">
        <ele>739.6</ele>
        <time>2022-05-21 17:30:03</time>
      </trkpt>
      <trkpt lat="42.36972" lon="2.67708">
        <ele>739.8</ele>
        <time>2022-05-21 17:30:04</time>
      </trkpt>
      <trkpt lat="42.3697" lon="2.6771">
        <ele>740</ele>
        <time>2022-05-21 17:30:05</time>
      </trkpt>
      <trkpt lat="42.36967" lon="2.67712">
        <ele>740.2</ele>
        <time>2022-05-21 17:30:06</time>
      </trkpt>
      <trkpt lat="42.36965" lon="2.67714">
        <ele>740.4</ele>
        <time>2022-05-21 17:30:07</time>
      </trkpt>
      <trkpt lat="42.36963" lon="2.67716">
        <ele>740.6</ele>
        <time>2022-05-21 17:30:08</time>
      </trkpt>
      <trkpt lat="42.3696" lon="2.67718">
        <ele>740.8</ele>
        <time>2022-05-21 17:30:09</time>
      </trkpt>
      <trkpt lat="42.36958" lon="2.67721">
        <ele>740.8</ele>
        <time>2022-05-21 17:30:10</time>
      </trkpt>
      <trkpt lat="42.36956" lon="2.67723">
        <ele>741</ele>
        <time>2022-05-21 17:30:11</time>
      </trkpt>
      <trkpt lat="42.36954" lon="2.67726">
        <ele>741.2</ele>
        <time>2022-05-21 17:30:12</time>
      </trkpt>
      <trkpt lat="42.36952" lon="2.67728">
        <ele>741.4</ele>
        <time>2022-05-21 17:30:13</time>
      </trkpt>
      <trkpt lat="42.3695" lon="2.6773">
        <ele>741.6</ele>
        <time>2022-05-21 17:30:14</time>
      </trkpt>
      <trkpt lat="42.36949" lon="2.67733">
        <ele>741.8</ele>
        <time>2022-05-21 17:30:15</time>
      </trkpt>
      <trkpt lat="42.36947" lon="2.67736">
        <ele>742</ele>
        <time>2022-05-21 17:30:16</time>
      </trkpt>
      <trkpt lat="42.36945" lon="2.67738">
        <ele>742.2</ele>
        <time>2022-05-21 17:30:17</time>
      </trkpt>
      <trkpt lat="42.36944" lon="2.67741">
        <ele>742.4</ele>
        <time>2022-05-21 17:30:18</time>
      </trkpt>
      <trkpt lat="42.36942" lon="2.67743">
        <ele>742.6</ele>
        <time>2022-05-21 17:30:19</time>
      </trkpt>
      <trkpt lat="42.36941" lon="2.67745">
        <ele>742.6</ele>
        <time>2022-05-21 17:30:20</time>
      </trkpt>
      <trkpt lat="42.3694" lon="2.67748">
        <ele>742.8</ele>
        <time>2022-05-21 17:30:21</time>
      </trkpt>
      <trkpt lat="42.36938" lon="2.6775">
        <ele>743</ele>
        <time>2022-05-21 17:30:22</time>
      </trkpt>
      <trkpt lat="42.36937" lon="2.67752">
        <ele>743.2</ele>
        <time>2022-05-21 17:30:23</time>
      </trkpt>
      <trkpt lat="42.36936" lon="2.67755">
        <ele>743.2</ele>
        <time>2022-05-21 17:30:24</time>
      </trkpt>
      <trkpt lat="42.36935" lon="2.67757">
        <ele>743.4</ele>
        <time>2022-05-21 17:30:25</time>
      </trkpt>
      <trkpt lat="42.36933" lon="2.67759">
        <ele>743.6</ele>
        <time>2022-05-21 17:30:26</time>
      </trkpt>
      <trkpt lat="42.36932" lon="2.67762">
        <ele>743.8</ele>
        <time>2022-05-21 17:30:27</time>
      </trkpt>
      <trkpt lat="42.36931" lon="2.67764">
        <ele>743.8</ele>
        <time>2022-05-21 17:30:28</time>
      </trkpt>
      <trkpt lat="42.36929" lon="2.67766">
        <ele>744</ele>
        <time>2022-05-21 17:30:29</time>
      </trkpt>
      <trkpt lat="42.36928" lon="2.67769">
        <ele>744.2</ele>
        <time>2022-05-21 17:30:30</time>
      </trkpt>
      <trkpt lat="42.36927" lon="2.67771">
        <ele>744.4</ele>
        <time>2022-05-21 17:30:31</time>
      </trkpt>
      <trkpt lat="42.36925" lon="2.67774">
        <ele>744.4</ele>
        <time>2022-05-21 17:30:32</time>
      </trkpt>
      <trkpt lat="42.36924" lon="2.67776">
        <ele>744.6</ele>
        <time>2022-05-21 17:30:33</time>
      </trkpt>
      <trkpt lat="42.36922" lon="2.67779">
        <ele>744.8</ele>
        <time>2022-05-21 17:30:34</time>
      </trkpt>
      <trkpt lat="42.36921" lon="2.67781">
        <ele>745</ele>
        <time>2022-05-21 17:30:35</time>
      </trkpt>
      <trkpt lat="42.36919" lon="2.67784">
        <ele>745</ele>
        <time>2022-05-21 17:30:36</time>
      </trkpt>
      <trkpt lat="42.36918" lon="2.67787">
        <ele>745.2</ele>
        <time>2022-05-21 17:30:37</time>
      </trkpt>
      <trkpt lat="42.36917" lon="2.6779">
        <ele>745.4</ele>
        <time>2022-05-21 17:30:38</time>
      </trkpt>
      <trkpt lat="42.36915" lon="2.67792">
        <ele>745.6</ele>
        <time>2022-05-21 17:30:39</time>
      </trkpt>
      <trkpt lat="42.36913" lon="2.67794">
        <ele>745.8</ele>
        <time>2022-05-21 17:30:40</time>
      </trkpt>
      <trkpt lat="42.36912" lon="2.67797">
        <ele>746</ele>
        <time>2022-05-21 17:30:41</time>
      </trkpt>
      <trkpt lat="42.3691" lon="2.67799">
        <ele>746</ele>
        <time>2022-05-21 17:30:42</time>
      </trkpt>
      <trkpt lat="42.36908" lon="2.67801">
        <ele>746.2</ele>
        <time>2022-05-21 17:30:43</time>
      </trkpt>
      <trkpt lat="42.36906" lon="2.67804">
        <ele>746.4</ele>
        <time>2022-05-21 17:30:44</time>
      </trkpt>
      <trkpt lat="42.36904" lon="2.67806">
        <ele>746.6</ele>
        <time>2022-05-21 17:30:45</time>
      </trkpt>
      <trkpt lat="42.36903" lon="2.67808">
        <ele>746.8</ele>
        <time>2022-05-21 17:30:46</time>
      </trkpt>
      <trkpt lat="42.36901" lon="2.6781">
        <ele>746.8</ele>
        <time>2022-05-21 17:30:47</time>
      </trkpt>
      <trkpt lat="42.36899" lon="2.67812">
        <ele>747</ele>
        <time>2022-05-21 17:30:48</time>
      </trkpt>
      <trkpt lat="42.36898" lon="2.67814">
        <ele>747.2</ele>
        <time>2022-05-21 17:30:49</time>
      </trkpt>
      <trkpt lat="42.36896" lon="2.67816">
        <ele>747.4</ele>
        <time>2022-05-21 17:30:50</time>
      </trkpt>
      <trkpt lat="42.36894" lon="2.67818">
        <ele>747.6</ele>
        <time>2022-05-21 17:30:51</time>
      </trkpt>
      <trkpt lat="42.36892" lon="2.6782">
        <ele>747.6</ele>
        <time>2022-05-21 17:30:52</time>
      </trkpt>
      <trkpt lat="42.3689" lon="2.67822">
        <ele>747.8</ele>
        <time>2022-05-21 17:30:53</time>
      </trkpt>
      <trkpt lat="42.36888" lon="2.67824">
        <ele>748</ele>
        <time>2022-05-21 17:30:54</time>
      </trkpt>
      <trkpt lat="42.36887" lon="2.67826">
        <ele>748.2</ele>
        <time>2022-05-21 17:30:55</time>
      </trkpt>
      <trkpt lat="42.36885" lon="2.67829">
        <ele>748.4</ele>
        <time>2022-05-21 17:30:56</time>
      </trkpt>
      <trkpt lat="42.36883" lon="2.67831">
        <ele>748.6</ele>
        <time>2022-05-21 17:30:57</time>
      </trkpt>
      <trkpt lat="42.36881" lon="2.67833">
        <ele>748.6</ele>
        <time>2022-05-21 17:30:58</time>
      </trkpt>
      <trkpt lat="42.36879" lon="2.67835">
        <ele>748.8</ele>
        <time>2022-05-21 17:30:59</time>
      </trkpt>
      <trkpt lat="42.36877" lon="2.67837">
        <ele>749</ele>
        <time>2022-05-21 17:31:00</time>
      </trkpt>
      <trkpt lat="42.36875" lon="2.67838">
        <ele>749.2</ele>
        <time>2022-05-21 17:31:01</time>
      </trkpt>
      <trkpt lat="42.36873" lon="2.67841">
        <ele>749.4</ele>
        <time>2022-05-21 17:31:02</time>
      </trkpt>
      <trkpt lat="42.36872" lon="2.67843">
        <ele>749.6</ele>
        <time>2022-05-21 17:31:03</time>
      </trkpt>
      <trkpt lat="42.3687" lon="2.67845">
        <ele>749.6</ele>
        <time>2022-05-21 17:31:04</time>
      </trkpt>
      <trkpt lat="42.36868" lon="2.67847">
        <ele>749.8</ele>
        <time>2022-05-21 17:31:05</time>
      </trkpt>
      <trkpt lat="42.36866" lon="2.67849">
        <ele>750</ele>
        <time>2022-05-21 17:31:06</time>
      </trkpt>
      <trkpt lat="42.36865" lon="2.67851">
        <ele>750.2</ele>
        <time>2022-05-21 17:31:07</time>
      </trkpt>
      <trkpt lat="42.36863" lon="2.67853">
        <ele>750.4</ele>
        <time>2022-05-21 17:31:08</time>
      </trkpt>
      <trkpt lat="42.36861" lon="2.67855">
        <ele>750.4</ele>
        <time>2022-05-21 17:31:09</time>
      </trkpt>
      <trkpt lat="42.36859" lon="2.67857">
        <ele>750.6</ele>
        <time>2022-05-21 17:31:10</time>
      </trkpt>
      <trkpt lat="42.36858" lon="2.67858">
        <ele>750.8</ele>
        <time>2022-05-21 17:31:11</time>
      </trkpt>
      <trkpt lat="42.36856" lon="2.67861">
        <ele>751</ele>
        <time>2022-05-21 17:31:12</time>
      </trkpt>
      <trkpt lat="42.36854" lon="2.67863">
        <ele>751.2</ele>
        <time>2022-05-21 17:31:13</time>
      </trkpt>
      <trkpt lat="42.36853" lon="2.67865">
        <ele>751.4</ele>
        <time>2022-05-21 17:31:14</time>
      </trkpt>
      <trkpt lat="42.36851" lon="2.67867">
        <ele>751.6</ele>
        <time>2022-05-21 17:31:15</time>
      </trkpt>
      <trkpt lat="42.36849" lon="2.6787">
        <ele>751.6</ele>
        <time>2022-05-21 17:31:16</time>
      </trkpt>
      <trkpt lat="42.36848" lon="2.67872">
        <ele>751.8</ele>
        <time>2022-05-21 17:31:17</time>
      </trkpt>
      <trkpt lat="42.36846" lon="2.67874">
        <ele>752</ele>
        <time>2022-05-21 17:31:18</time>
      </trkpt>
      <trkpt lat="42.36844" lon="2.67876">
        <ele>752.2</ele>
        <time>2022-05-21 17:31:19</time>
      </trkpt>
      <trkpt lat="42.36842" lon="2.67878">
        <ele>752.4</ele>
        <time>2022-05-21 17:31:20</time>
      </trkpt>
      <trkpt lat="42.36841" lon="2.6788">
        <ele>752.6</ele>
        <time>2022-05-21 17:31:21</time>
      </trkpt>
      <trkpt lat="42.3684" lon="2.67883">
        <ele>752.6</ele>
        <time>2022-05-21 17:31:22</time>
      </trkpt>
      <trkpt lat="42.36838" lon="2.67885">
        <ele>752.8</ele>
        <time>2022-05-21 17:31:23</time>
      </trkpt>
      <trkpt lat="42.36837" lon="2.67888">
        <ele>753</ele>
        <time>2022-05-21 17:31:24</time>
      </trkpt>
      <trkpt lat="42.36836" lon="2.6789">
        <ele>753.2</ele>
        <time>2022-05-21 17:31:25</time>
      </trkpt>
      <trkpt lat="42.36834" lon="2.67892">
        <ele>753.4</ele>
        <time>2022-05-21 17:31:26</time>
      </trkpt>
      <trkpt lat="42.36833" lon="2.67895">
        <ele>753.6</ele>
        <time>2022-05-21 17:31:27</time>
      </trkpt>
      <trkpt lat="42.36831" lon="2.67897">
        <ele>753.6</ele>
        <time>2022-05-21 17:31:28</time>
      </trkpt>
      <trkpt lat="42.3683" lon="2.679">
        <ele>753.8</ele>
        <time>2022-05-21 17:31:29</time>
      </trkpt>
      <trkpt lat="42.36829" lon="2.67902">
        <ele>754</ele>
        <time>2022-05-21 17:31:30</time>
      </trkpt>
      <trkpt lat="42.36827" lon="2.67904">
        <ele>754.2</ele>
        <time>2022-05-21 17:31:31</time>
      </trkpt>
      <trkpt lat="42.36826" lon="2.67907">
        <ele>754.2</ele>
        <time>2022-05-21 17:31:32</time>
      </trkpt>
      <trkpt lat="42.36824" lon="2.67909">
        <ele>754.4</ele>
        <time>2022-05-21 17:31:33</time>
      </trkpt>
      <trkpt lat="42.36823" lon="2.67912">
        <ele>754.6</ele>
        <time>2022-05-21 17:31:34</time>
      </trkpt>
      <trkpt lat="42.36821" lon="2.67914">
        <ele>754.8</ele>
        <time>2022-05-21 17:31:35</time>
      </trkpt>
      <trkpt lat="42.3682" lon="2.67916">
        <ele>754.8</ele>
        <time>2022-05-21 17:31:36</time>
      </trkpt>
      <trkpt lat="42.36818" lon="2.67919">
        <ele>755</ele>
        <time>2022-05-21 17:31:37</time>
      </trkpt>
      <trkpt lat="42.36817" lon="2.67922">
        <ele>755.2</ele>
        <time>2022-05-21 17:31:38</time>
      </trkpt>
      <trkpt lat="42.36815" lon="2.67925">
        <ele>755.2</ele>
        <time>2022-05-21 17:31:39</time>
      </trkpt>
      <trkpt lat="42.36813" lon="2.67927">
        <ele>755.4</ele>
        <time>2022-05-21 17:31:40</time>
      </trkpt>
      <trkpt lat="42.36812" lon="2.6793">
        <ele>755.6</ele>
        <time>2022-05-21 17:31:41</time>
      </trkpt>
      <trkpt lat="42.3681" lon="2.67933">
        <ele>755.8</ele>
        <time>2022-05-21 17:31:42</time>
      </trkpt>
      <trkpt lat="42.36808" lon="2.67936">
        <ele>755.8</ele>
        <time>2022-05-21 17:31:43</time>
      </trkpt>
      <trkpt lat="42.36806" lon="2.67938">
        <ele>756</ele>
        <time>2022-05-21 17:31:44</time>
      </trkpt>
      <trkpt lat="42.36805" lon="2.67941">
        <ele>756</ele>
        <time>2022-05-21 17:31:45</time>
      </trkpt>
      <trkpt lat="42.36803" lon="2.67943">
        <ele>756.2</ele>
        <time>2022-05-21 17:31:46</time>
      </trkpt>
      <trkpt lat="42.36801" lon="2.67945">
        <ele>756.4</ele>
        <time>2022-05-21 17:31:47</time>
      </trkpt>
      <trkpt lat="42.36798" lon="2.67946">
        <ele>756.4</ele>
        <time>2022-05-21 17:31:48</time>
      </trkpt>
      <trkpt lat="42.36796" lon="2.67948">
        <ele>756.6</ele>
        <time>2022-05-21 17:31:49</time>
      </trkpt>
      <trkpt lat="42.36793" lon="2.67949">
        <ele>756.8</ele>
        <time>2022-05-21 17:31:50</time>
      </trkpt>
      <trkpt lat="42.36791" lon="2.6795">
        <ele>756.8</ele>
        <time>2022-05-21 17:31:51</time>
      </trkpt>
      <trkpt lat="42.36789" lon="2.67951">
        <ele>757</ele>
        <time>2022-05-21 17:31:52</time>
      </trkpt>
      <trkpt lat="42.36786" lon="2.67952">
        <ele>757</ele>
        <time>2022-05-21 17:31:53</time>
      </trkpt>
      <trkpt lat="42.36784" lon="2.67953">
        <ele>757.2</ele>
        <time>2022-05-21 17:31:54</time>
      </trkpt>
      <trkpt lat="42.36781" lon="2.67953">
        <ele>757.2</ele>
        <time>2022-05-21 17:31:55</time>
      </trkpt>
      <trkpt lat="42.36778" lon="2.67953">
        <ele>757.4</ele>
        <time>2022-05-21 17:31:56</time>
      </trkpt>
      <trkpt lat="42.36776" lon="2.67952">
        <ele>757.4</ele>
        <time>2022-05-21 17:31:57</time>
      </trkpt>
      <trkpt lat="42.36773" lon="2.67952">
        <ele>757.6</ele>
        <time>2022-05-21 17:31:58</time>
      </trkpt>
      <trkpt lat="42.3677" lon="2.67951">
        <ele>757.6</ele>
        <time>2022-05-21 17:31:59</time>
      </trkpt>
      <trkpt lat="42.36767" lon="2.6795">
        <ele>757.6</ele>
        <time>2022-05-21 17:32:00</time>
      </trkpt>
      <trkpt lat="42.36765" lon="2.67948">
        <ele>757.8</ele>
        <time>2022-05-21 17:32:01</time>
      </trkpt>
      <trkpt lat="42.36762" lon="2.67946">
        <ele>757.8</ele>
        <time>2022-05-21 17:32:02</time>
      </trkpt>
      <trkpt lat="42.36759" lon="2.67944">
        <ele>758</ele>
        <time>2022-05-21 17:32:03</time>
      </trkpt>
      <trkpt lat="42.36757" lon="2.6794">
        <ele>758</ele>
        <time>2022-05-21 17:32:04</time>
      </trkpt>
      <trkpt lat="42.36755" lon="2.67937">
        <ele>758</ele>
        <time>2022-05-21 17:32:05</time>
      </trkpt>
      <trkpt lat="42.36753" lon="2.67932">
        <ele>758.2</ele>
        <time>2022-05-21 17:32:06</time>
      </trkpt>
      <trkpt lat="42.36751" lon="2.67928">
        <ele>758.2</ele>
        <time>2022-05-21 17:32:07</time>
      </trkpt>
      <trkpt lat="42.3675" lon="2.67923">
        <ele>758.2</ele>
        <time>2022-05-21 17:32:08</time>
      </trkpt>
      <trkpt lat="42.3675" lon="2.67918">
        <ele>758.4</ele>
        <time>2022-05-21 17:32:09</time>
      </trkpt>
      <trkpt lat="42.3675" lon="2.67913">
        <ele>758.4</ele>
        <time>2022-05-21 17:32:10</time>
      </trkpt>
      <trkpt lat="42.3675" lon="2.67907">
        <ele>758.4</ele>
        <time>2022-05-21 17:32:11</time>
      </trkpt>
      <trkpt lat="42.3675" lon="2.67902">
        <ele>758.4</ele>
        <time>2022-05-21 17:32:12</time>
      </trkpt>
      <trkpt lat="42.3675" lon="2.67896">
        <ele>758.4</ele>
        <time>2022-05-21 17:32:13</time>
      </trkpt>
      <trkpt lat="42.36752" lon="2.67891">
        <ele>758.4</ele>
        <time>2022-05-21 17:32:14</time>
      </trkpt>
      <trkpt lat="42.36753" lon="2.67885">
        <ele>758.4</ele>
        <time>2022-05-21 17:32:15</time>
      </trkpt>
      <trkpt lat="42.36754" lon="2.67879">
        <ele>758.4</ele>
        <time>2022-05-21 17:32:16</time>
      </trkpt>
      <trkpt lat="42.36756" lon="2.67873">
        <ele>758.4</ele>
        <time>2022-05-21 17:32:17</time>
      </trkpt>
      <trkpt lat="42.36757" lon="2.67867">
        <ele>758.4</ele>
        <time>2022-05-21 17:32:18</time>
      </trkpt>
      <trkpt lat="42.36758" lon="2.67861">
        <ele>758.4</ele>
        <time>2022-05-21 17:32:19</time>
      </trkpt>
      <trkpt lat="42.36759" lon="2.67855">
        <ele>758.4</ele>
        <time>2022-05-21 17:32:20</time>
      </trkpt>
      <trkpt lat="42.3676" lon="2.67848">
        <ele>758.2</ele>
        <time>2022-05-21 17:32:21</time>
      </trkpt>
      <trkpt lat="42.36761" lon="2.67841">
        <ele>758.2</ele>
        <time>2022-05-21 17:32:22</time>
      </trkpt>
      <trkpt lat="42.36762" lon="2.67834">
        <ele>758.2</ele>
        <time>2022-05-21 17:32:23</time>
      </trkpt>
      <trkpt lat="42.36762" lon="2.67827">
        <ele>758.2</ele>
        <time>2022-05-21 17:32:24</time>
      </trkpt>
      <trkpt lat="42.36762" lon="2.6782">
        <ele>758.2</ele>
        <time>2022-05-21 17:32:25</time>
      </trkpt>
      <trkpt lat="42.36762" lon="2.67812">
        <ele>758.2</ele>
        <time>2022-05-21 17:32:26</time>
      </trkpt>
      <trkpt lat="42.36761" lon="2.67805">
        <ele>758</ele>
        <time>2022-05-21 17:32:27</time>
      </trkpt>
      <trkpt lat="42.3676" lon="2.67798">
        <ele>758</ele>
        <time>2022-05-21 17:32:28</time>
      </trkpt>
      <trkpt lat="42.36758" lon="2.6779">
        <ele>758</ele>
        <time>2022-05-21 17:32:29</time>
      </trkpt>
      <trkpt lat="42.36756" lon="2.67783">
        <ele>757.8</ele>
        <time>2022-05-21 17:32:30</time>
      </trkpt>
      <trkpt lat="42.36754" lon="2.67777">
        <ele>757.8</ele>
        <time>2022-05-21 17:32:31</time>
      </trkpt>
      <trkpt lat="42.36751" lon="2.6777">
        <ele>757.8</ele>
        <time>2022-05-21 17:32:32</time>
      </trkpt>
      <trkpt lat="42.36747" lon="2.67764">
        <ele>757.6</ele>
        <time>2022-05-21 17:32:33</time>
      </trkpt>
      <trkpt lat="42.36744" lon="2.67757">
        <ele>757.6</ele>
        <time>2022-05-21 17:32:34</time>
      </trkpt>
      <trkpt lat="42.3674" lon="2.67752">
        <ele>757.6</ele>
        <time>2022-05-21 17:32:35</time>
      </trkpt>
      <trkpt lat="42.36736" lon="2.67747">
        <ele>757.4</ele>
        <time>2022-05-21 17:32:36</time>
      </trkpt>
      <trkpt lat="42.36731" lon="2.67742">
        <ele>757.4</ele>
        <time>2022-05-21 17:32:37</time>
      </trkpt>
      <trkpt lat="42.36726" lon="2.67738">
        <ele>757.4</ele>
        <time>2022-05-21 17:32:38</time>
      </trkpt>
      <trkpt lat="42.36721" lon="2.67734">
        <ele>757.2</ele>
        <time>2022-05-21 17:32:39</time>
      </trkpt>
      <trkpt lat="42.36716" lon="2.6773">
        <ele>757.2</ele>
        <time>2022-05-21 17:32:40</time>
      </trkpt>
      <trkpt lat="42.36711" lon="2.67726">
        <ele>757.2</ele>
        <time>2022-05-21 17:32:41</time>
      </trkpt>
      <trkpt lat="42.36705" lon="2.67722">
        <ele>757</ele>
        <time>2022-05-21 17:32:42</time>
      </trkpt>
      <trkpt lat="42.367" lon="2.67718">
        <ele>757</ele>
        <time>2022-05-21 17:32:43</time>
      </trkpt>
      <trkpt lat="42.36695" lon="2.67714">
        <ele>757</ele>
        <time>2022-05-21 17:32:44</time>
      </trkpt>
      <trkpt lat="42.36689" lon="2.6771">
        <ele>756.8</ele>
        <time>2022-05-21 17:32:45</time>
      </trkpt>
      <trkpt lat="42.36684" lon="2.67705">
        <ele>756.8</ele>
        <time>2022-05-21 17:32:46</time>
      </trkpt>
      <trkpt lat="42.36679" lon="2.677">
        <ele>756.6</ele>
        <time>2022-05-21 17:32:47</time>
      </trkpt>
      <trkpt lat="42.36675" lon="2.67694">
        <ele>756.6</ele>
        <time>2022-05-21 17:32:48</time>
      </trkpt>
      <trkpt lat="42.36671" lon="2.67686">
        <ele>756.4</ele>
        <time>2022-05-21 17:32:49</time>
      </trkpt>
      <trkpt lat="42.36669" lon="2.67679">
        <ele>756.4</ele>
        <time>2022-05-21 17:32:50</time>
      </trkpt>
      <trkpt lat="42.36667" lon="2.6767">
        <ele>756.4</ele>
        <time>2022-05-21 17:32:51</time>
      </trkpt>
      <trkpt lat="42.36666" lon="2.67662">
        <ele>756.4</ele>
        <time>2022-05-21 17:32:52</time>
      </trkpt>
      <trkpt lat="42.36664" lon="2.67654">
        <ele>756.4</ele>
        <time>2022-05-21 17:32:53</time>
      </trkpt>
      <trkpt lat="42.36663" lon="2.67646">
        <ele>756.4</ele>
        <time>2022-05-21 17:32:54</time>
      </trkpt>
      <trkpt lat="42.36663" lon="2.67638">
        <ele>756.2</ele>
        <time>2022-05-21 17:32:55</time>
      </trkpt>
      <trkpt lat="42.36662" lon="2.67631">
        <ele>756.2</ele>
        <time>2022-05-21 17:32:56</time>
      </trkpt>
      <trkpt lat="42.36661" lon="2.67623">
        <ele>756.4</ele>
        <time>2022-05-21 17:32:57</time>
      </trkpt>
      <trkpt lat="42.3666" lon="2.67615">
        <ele>756.4</ele>
        <time>2022-05-21 17:32:58</time>
      </trkpt>
      <trkpt lat="42.36658" lon="2.67608">
        <ele>756.2</ele>
        <time>2022-05-21 17:32:59</time>
      </trkpt>
      <trkpt lat="42.36656" lon="2.676">
        <ele>756.2</ele>
        <time>2022-05-21 17:33:00</time>
      </trkpt>
      <trkpt lat="42.36652" lon="2.67593">
        <ele>756.2</ele>
        <time>2022-05-21 17:33:01</time>
      </trkpt>
      <trkpt lat="42.36648" lon="2.67586">
        <ele>756</ele>
        <time>2022-05-21 17:33:02</time>
      </trkpt>
      <trkpt lat="42.36644" lon="2.6758">
        <ele>756</ele>
        <time>2022-05-21 17:33:03</time>
      </trkpt>
      <trkpt lat="42.3664" lon="2.67574">
        <ele>756</ele>
        <time>2022-05-21 17:33:04</time>
      </trkpt>
      <trkpt lat="42.36635" lon="2.67568">
        <ele>755.8</ele>
        <time>2022-05-21 17:33:05</time>
      </trkpt>
      <trkpt lat="42.3663" lon="2.67563">
        <ele>755.8</ele>
        <time>2022-05-21 17:33:06</time>
      </trkpt>
      <trkpt lat="42.36625" lon="2.67559">
        <ele>755.8</ele>
        <time>2022-05-21 17:33:07</time>
      </trkpt>
      <trkpt lat="42.3662" lon="2.67555">
        <ele>755.6</ele>
        <time>2022-05-21 17:33:08</time>
      </trkpt>
      <trkpt lat="42.36614" lon="2.67551">
        <ele>755.6</ele>
        <time>2022-05-21 17:33:09</time>
      </trkpt>
      <trkpt lat="42.36608" lon="2.67549">
        <ele>755.6</ele>
        <time>2022-05-21 17:33:10</time>
      </trkpt>
      <trkpt lat="42.36601" lon="2.67547">
        <ele>755.4</ele>
        <time>2022-05-21 17:33:11</time>
      </trkpt>
      <trkpt lat="42.36595" lon="2.67545">
        <ele>755.4</ele>
        <time>2022-05-21 17:33:12</time>
      </trkpt>
      <trkpt lat="42.36588" lon="2.67543">
        <ele>755.4</ele>
        <time>2022-05-21 17:33:13</time>
      </trkpt>
      <trkpt lat="42.36582" lon="2.67541">
        <ele>755.2</ele>
        <time>2022-05-21 17:33:14</time>
      </trkpt>
      <trkpt lat="42.36575" lon="2.6754">
        <ele>755.2</ele>
        <time>2022-05-21 17:33:15</time>
      </trkpt>
      <trkpt lat="42.36568" lon="2.67538">
        <ele>755</ele>
        <time>2022-05-21 17:33:16</time>
      </trkpt>
      <trkpt lat="42.36562" lon="2.67537">
        <ele>755</ele>
        <time>2022-05-21 17:33:17</time>
      </trkpt>
      <trkpt lat="42.36555" lon="2.67536">
        <ele>755</ele>
        <time>2022-05-21 17:33:18</time>
      </trkpt>
      <trkpt lat="42.36548" lon="2.67534">
        <ele>754.8</ele>
        <time>2022-05-21 17:33:19</time>
      </trkpt>
      <trkpt lat="42.36541" lon="2.67533">
        <ele>754.8</ele>
        <time>2022-05-21 17:33:20</time>
      </trkpt>
      <trkpt lat="42.36535" lon="2.67532">
        <ele>754.6</ele>
        <time>2022-05-21 17:33:21</time>
      </trkpt>
      <trkpt lat="42.36527" lon="2.6753">
        <ele>754.6</ele>
        <time>2022-05-21 17:33:22</time>
      </trkpt>
      <trkpt lat="42.36521" lon="2.67528">
        <ele>754.6</ele>
        <time>2022-05-21 17:33:23</time>
      </trkpt>
      <trkpt lat="42.36514" lon="2.67527">
        <ele>754.4</ele>
        <time>2022-05-21 17:33:24</time>
      </trkpt>
      <trkpt lat="42.36507" lon="2.67526">
        <ele>754.4</ele>
        <time>2022-05-21 17:33:25</time>
      </trkpt>
      <trkpt lat="42.365" lon="2.67524">
        <ele>754.4</ele>
        <time>2022-05-21 17:33:26</time>
      </trkpt>
      <trkpt lat="42.36493" lon="2.67523">
        <ele>754.4</ele>
        <time>2022-05-21 17:33:27</time>
      </trkpt>
      <trkpt lat="42.36487" lon="2.67521">
        <ele>754.2</ele>
        <time>2022-05-21 17:33:28</time>
      </trkpt>
      <trkpt lat="42.3648" lon="2.6752">
        <ele>754.2</ele>
        <time>2022-05-21 17:33:29</time>
      </trkpt>
      <trkpt lat="42.36473" lon="2.67518">
        <ele>754</ele>
        <time>2022-05-21 17:33:30</time>
      </trkpt>
      <trkpt lat="42.36466" lon="2.67517">
        <ele>754</ele>
        <time>2022-05-21 17:33:31</time>
      </trkpt>
      <trkpt lat="42.36459" lon="2.67516">
        <ele>753.8</ele>
        <time>2022-05-21 17:33:32</time>
      </trkpt>
      <trkpt lat="42.36452" lon="2.67514">
        <ele>753.8</ele>
        <time>2022-05-21 17:33:33</time>
      </trkpt>
      <trkpt lat="42.36445" lon="2.67512">
        <ele>753.6</ele>
        <time>2022-05-21 17:33:34</time>
      </trkpt>
      <trkpt lat="42.36438" lon="2.6751">
        <ele>753.6</ele>
        <time>2022-05-21 17:33:35</time>
      </trkpt>
      <trkpt lat="42.36431" lon="2.67508">
        <ele>753.6</ele>
        <time>2022-05-21 17:33:36</time>
      </trkpt>
      <trkpt lat="42.36424" lon="2.67505">
        <ele>753.4</ele>
        <time>2022-05-21 17:33:37</time>
      </trkpt>
      <trkpt lat="42.36417" lon="2.67503">
        <ele>753.4</ele>
        <time>2022-05-21 17:33:38</time>
      </trkpt>
      <trkpt lat="42.3641" lon="2.675">
        <ele>753.4</ele>
        <time>2022-05-21 17:33:39</time>
      </trkpt>
      <trkpt lat="42.36404" lon="2.67497">
        <ele>753.2</ele>
        <time>2022-05-21 17:33:40</time>
      </trkpt>
      <trkpt lat="42.36397" lon="2.67494">
        <ele>753.2</ele>
        <time>2022-05-21 17:33:41</time>
      </trkpt>
      <trkpt lat="42.36391" lon="2.6749">
        <ele>753.2</ele>
        <time>2022-05-21 17:33:42</time>
      </trkpt>
      <trkpt lat="42.36384" lon="2.67486">
        <ele>753</ele>
        <time>2022-05-21 17:33:43</time>
      </trkpt>
      <trkpt lat="42.36378" lon="2.67482">
        <ele>753</ele>
        <time>2022-05-21 17:33:44</time>
      </trkpt>
      <trkpt lat="42.36372" lon="2.67477">
        <ele>753</ele>
        <time>2022-05-21 17:33:45</time>
      </trkpt>
      <trkpt lat="42.36366" lon="2.67472">
        <ele>752.8</ele>
        <time>2022-05-21 17:33:46</time>
      </trkpt>
      <trkpt lat="42.3636" lon="2.67467">
        <ele>752.8</ele>
        <time>2022-05-21 17:33:47</time>
      </trkpt>
      <trkpt lat="42.36354" lon="2.67461">
        <ele>752.8</ele>
        <time>2022-05-21 17:33:48</time>
      </trkpt>
      <trkpt lat="42.36349" lon="2.67455">
        <ele>752.6</ele>
        <time>2022-05-21 17:33:49</time>
      </trkpt>
      <trkpt lat="42.36344" lon="2.67448">
        <ele>752.6</ele>
        <time>2022-05-21 17:33:50</time>
      </trkpt>
      <trkpt lat="42.3634" lon="2.6744">
        <ele>752.6</ele>
        <time>2022-05-21 17:33:51</time>
      </trkpt>
      <trkpt lat="42.36336" lon="2.67431">
        <ele>752.4</ele>
        <time>2022-05-21 17:33:52</time>
      </trkpt>
      <trkpt lat="42.36334" lon="2.67422">
        <ele>752.4</ele>
        <time>2022-05-21 17:33:53</time>
      </trkpt>
      <trkpt lat="42.36333" lon="2.67412">
        <ele>752.2</ele>
        <time>2022-05-21 17:33:54</time>
      </trkpt>
      <trkpt lat="42.36332" lon="2.67402">
        <ele>752.2</ele>
        <time>2022-05-21 17:33:55</time>
      </trkpt>
      <trkpt lat="42.36332" lon="2.67392">
        <ele>752</ele>
        <time>2022-05-21 17:33:56</time>
      </trkpt>
      <trkpt lat="42.36333" lon="2.67383">
        <ele>752</ele>
        <time>2022-05-21 17:33:57</time>
      </trkpt>
      <trkpt lat="42.36335" lon="2.67374">
        <ele>751.8</ele>
        <time>2022-05-21 17:33:58</time>
      </trkpt>
      <trkpt lat="42.36337" lon="2.67365">
        <ele>751.6</ele>
        <time>2022-05-21 17:33:59</time>
      </trkpt>
      <trkpt lat="42.36341" lon="2.67357">
        <ele>751.4</ele>
        <time>2022-05-21 17:34:00</time>
      </trkpt>
      <trkpt lat="42.36345" lon="2.67349">
        <ele>751.4</ele>
        <time>2022-05-21 17:34:01</time>
      </trkpt>
      <trkpt lat="42.36351" lon="2.67342">
        <ele>751.2</ele>
        <time>2022-05-21 17:34:02</time>
      </trkpt>
      <trkpt lat="42.36357" lon="2.67337">
        <ele>751.2</ele>
        <time>2022-05-21 17:34:03</time>
      </trkpt>
      <trkpt lat="42.36363" lon="2.67332">
        <ele>751</ele>
        <time>2022-05-21 17:34:04</time>
      </trkpt>
      <trkpt lat="42.3637" lon="2.67329">
        <ele>751</ele>
        <time>2022-05-21 17:34:05</time>
      </trkpt>
      <trkpt lat="42.36378" lon="2.67327">
        <ele>751</ele>
        <time>2022-05-21 17:34:06</time>
      </trkpt>
      <trkpt lat="42.36385" lon="2.67325">
        <ele>750.8</ele>
        <time>2022-05-21 17:34:07</time>
      </trkpt>
      <trkpt lat="42.36392" lon="2.67323">
        <ele>750.8</ele>
        <time>2022-05-21 17:34:08</time>
      </trkpt>
      <trkpt lat="42.364" lon="2.67321">
        <ele>750.8</ele>
        <time>2022-05-21 17:34:09</time>
      </trkpt>
      <trkpt lat="42.36407" lon="2.67319">
        <ele>750.8</ele>
        <time>2022-05-21 17:34:10</time>
      </trkpt>
      <trkpt lat="42.36414" lon="2.67317">
        <ele>750.6</ele>
        <time>2022-05-21 17:34:11</time>
      </trkpt>
      <trkpt lat="42.36422" lon="2.67315">
        <ele>750.6</ele>
        <time>2022-05-21 17:34:12</time>
      </trkpt>
      <trkpt lat="42.3643" lon="2.67313">
        <ele>750.4</ele>
        <time>2022-05-21 17:34:13</time>
      </trkpt>
      <trkpt lat="42.36438" lon="2.67312">
        <ele>750.2</ele>
        <time>2022-05-21 17:34:14</time>
      </trkpt>
      <trkpt lat="42.36445" lon="2.6731">
        <ele>749.8</ele>
        <time>2022-05-21 17:34:15</time>
      </trkpt>
      <trkpt lat="42.36453" lon="2.67308">
        <ele>749.6</ele>
        <time>2022-05-21 17:34:16</time>
      </trkpt>
      <trkpt lat="42.36461" lon="2.67306">
        <ele>749.4</ele>
        <time>2022-05-21 17:34:17</time>
      </trkpt>
      <trkpt lat="42.36469" lon="2.67304">
        <ele>749</ele>
        <time>2022-05-21 17:34:18</time>
      </trkpt>
      <trkpt lat="42.36478" lon="2.67302">
        <ele>748.6</ele>
        <time>2022-05-21 17:34:19</time>
      </trkpt>
      <trkpt lat="42.36486" lon="2.673">
        <ele>748</ele>
        <time>2022-05-21 17:34:20</time>
      </trkpt>
      <trkpt lat="42.36495" lon="2.67297">
        <ele>747.4</ele>
        <time>2022-05-21 17:34:21</time>
      </trkpt>
      <trkpt lat="42.36505" lon="2.67295">
        <ele>746.8</ele>
        <time>2022-05-21 17:34:22</time>
      </trkpt>
      <trkpt lat="42.36514" lon="2.67293">
        <ele>746.4</ele>
        <time>2022-05-21 17:34:23</time>
      </trkpt>
      <trkpt lat="42.36524" lon="2.6729">
        <ele>746</ele>
        <time>2022-05-21 17:34:24</time>
      </trkpt>
      <trkpt lat="42.36534" lon="2.67288">
        <ele>745.4</ele>
        <time>2022-05-21 17:34:25</time>
      </trkpt>
      <trkpt lat="42.36544" lon="2.67286">
        <ele>744.4</ele>
        <time>2022-05-21 17:34:26</time>
      </trkpt>
      <trkpt lat="42.36555" lon="2.67284">
        <ele>743.6</ele>
        <time>2022-05-21 17:34:27</time>
      </trkpt>
      <trkpt lat="42.36566" lon="2.67282">
        <ele>742.6</ele>
        <time>2022-05-21 17:34:28</time>
      </trkpt>
      <trkpt lat="42.36577" lon="2.67281">
        <ele>741.8</ele>
        <time>2022-05-21 17:34:29</time>
      </trkpt>
      <trkpt lat="42.36588" lon="2.67281">
        <ele>740.8</ele>
        <time>2022-05-21 17:34:30</time>
      </trkpt>
      <trkpt lat="42.366" lon="2.6728">
        <ele>740</ele>
        <time>2022-05-21 17:34:31</time>
      </trkpt>
      <trkpt lat="42.36611" lon="2.6728">
        <ele>739</ele>
        <time>2022-05-21 17:34:32</time>
      </trkpt>
      <trkpt lat="42.36623" lon="2.67278">
        <ele>738.2</ele>
        <time>2022-05-21 17:34:33</time>
      </trkpt>
      <trkpt lat="42.36634" lon="2.67274">
        <ele>737.4</ele>
        <time>2022-05-21 17:34:34</time>
      </trkpt>
      <trkpt lat="42.36645" lon="2.67268">
        <ele>736.4</ele>
        <time>2022-05-21 17:34:35</time>
      </trkpt>
      <trkpt lat="42.36655" lon="2.67259">
        <ele>735.4</ele>
        <time>2022-05-21 17:34:36</time>
      </trkpt>
      <trkpt lat="42.36663" lon="2.67248">
        <ele>734.6</ele>
        <time>2022-05-21 17:34:37</time>
      </trkpt>
      <trkpt lat="42.3667" lon="2.67234">
        <ele>733.6</ele>
        <time>2022-05-21 17:34:38</time>
      </trkpt>
      <trkpt lat="42.36675" lon="2.67217">
        <ele>732.8</ele>
        <time>2022-05-21 17:34:39</time>
      </trkpt>
      <trkpt lat="42.36678" lon="2.67198">
        <ele>732</ele>
        <time>2022-05-21 17:34:40</time>
      </trkpt>
      <trkpt lat="42.36678" lon="2.6718">
        <ele>731</ele>
        <time>2022-05-21 17:34:41</time>
      </trkpt>
      <trkpt lat="42.36677" lon="2.67162">
        <ele>730</ele>
        <time>2022-05-21 17:34:42</time>
      </trkpt>
      <trkpt lat="42.36675" lon="2.67142">
        <ele>729</ele>
        <time>2022-05-21 17:34:43</time>
      </trkpt>
      <trkpt lat="42.36672" lon="2.67124">
        <ele>727.8</ele>
        <time>2022-05-21 17:34:44</time>
      </trkpt>
      <trkpt lat="42.3667" lon="2.67105">
        <ele>726.8</ele>
        <time>2022-05-21 17:34:45</time>
      </trkpt>
      <trkpt lat="42.36667" lon="2.67086">
        <ele>725.8</ele>
        <time>2022-05-21 17:34:46</time>
      </trkpt>
      <trkpt lat="42.36665" lon="2.67067">
        <ele>724.6</ele>
        <time>2022-05-21 17:34:47</time>
      </trkpt>
      <trkpt lat="42.36663" lon="2.67048">
        <ele>723.4</ele>
        <time>2022-05-21 17:34:48</time>
      </trkpt>
      <trkpt lat="42.36661" lon="2.67029">
        <ele>722.4</ele>
        <time>2022-05-21 17:34:49</time>
      </trkpt>
      <trkpt lat="42.36659" lon="2.67009">
        <ele>721.2</ele>
        <time>2022-05-21 17:34:50</time>
      </trkpt>
      <trkpt lat="42.36657" lon="2.66989">
        <ele>720.2</ele>
        <time>2022-05-21 17:34:51</time>
      </trkpt>
      <trkpt lat="42.36656" lon="2.66969">
        <ele>719</ele>
        <time>2022-05-21 17:34:52</time>
      </trkpt>
      <trkpt lat="42.36654" lon="2.6695">
        <ele>718</ele>
        <time>2022-05-21 17:34:53</time>
      </trkpt>
      <trkpt lat="42.36653" lon="2.6693">
        <ele>716.8</ele>
        <time>2022-05-21 17:34:54</time>
      </trkpt>
      <trkpt lat="42.36652" lon="2.6691">
        <ele>715.8</ele>
        <time>2022-05-21 17:34:55</time>
      </trkpt>
      <trkpt lat="42.36651" lon="2.66891">
        <ele>714.6</ele>
        <time>2022-05-21 17:34:56</time>
      </trkpt>
      <trkpt lat="42.3665" lon="2.6687">
        <ele>713.6</ele>
        <time>2022-05-21 17:34:57</time>
      </trkpt>
      <trkpt lat="42.36649" lon="2.6685">
        <ele>712.4</ele>
        <time>2022-05-21 17:34:58</time>
      </trkpt>
      <trkpt lat="42.36649" lon="2.66831">
        <ele>711.4</ele>
        <time>2022-05-21 17:34:59</time>
      </trkpt>
      <trkpt lat="42.36648" lon="2.66811">
        <ele>710.4</ele>
        <time>2022-05-21 17:35:00</time>
      </trkpt>
      <trkpt lat="42.36647" lon="2.66791">
        <ele>709.6</ele>
        <time>2022-05-21 17:35:01</time>
      </trkpt>
      <trkpt lat="42.36645" lon="2.66771">
        <ele>708.8</ele>
        <time>2022-05-21 17:35:02</time>
      </trkpt>
      <trkpt lat="42.36644" lon="2.66752">
        <ele>708.2</ele>
        <time>2022-05-21 17:35:03</time>
      </trkpt>
      <trkpt lat="42.36643" lon="2.66733">
        <ele>707.6</ele>
        <time>2022-05-21 17:35:04</time>
      </trkpt>
      <trkpt lat="42.36643" lon="2.66715">
        <ele>707.2</ele>
        <time>2022-05-21 17:35:05</time>
      </trkpt>
      <trkpt lat="42.36642" lon="2.66697">
        <ele>707</ele>
        <time>2022-05-21 17:35:06</time>
      </trkpt>
      <trkpt lat="42.36641" lon="2.66681">
        <ele>706.8</ele>
        <time>2022-05-21 17:35:07</time>
      </trkpt>
      <trkpt lat="42.36642" lon="2.66665">
        <ele>706.4</ele>
        <time>2022-05-21 17:35:08</time>
      </trkpt>
      <trkpt lat="42.36644" lon="2.66649">
        <ele>706.4</ele>
        <time>2022-05-21 17:35:09</time>
      </trkpt>
      <trkpt lat="42.36646" lon="2.66633">
        <ele>706.2</ele>
        <time>2022-05-21 17:35:10</time>
      </trkpt>
      <trkpt lat="42.36648" lon="2.66618">
        <ele>706</ele>
        <time>2022-05-21 17:35:11</time>
      </trkpt>
      <trkpt lat="42.36651" lon="2.66603">
        <ele>705.8</ele>
        <time>2022-05-21 17:35:12</time>
      </trkpt>
      <trkpt lat="42.36655" lon="2.66587">
        <ele>705.8</ele>
        <time>2022-05-21 17:35:13</time>
      </trkpt>
      <trkpt lat="42.36657" lon="2.66572">
        <ele>705.6</ele>
        <time>2022-05-21 17:35:14</time>
      </trkpt>
      <trkpt lat="42.3666" lon="2.66556">
        <ele>705.4</ele>
        <time>2022-05-21 17:35:15</time>
      </trkpt>
      <trkpt lat="42.36661" lon="2.66541">
        <ele>705.2</ele>
        <time>2022-05-21 17:35:16</time>
      </trkpt>
      <trkpt lat="42.36663" lon="2.66526">
        <ele>705.2</ele>
        <time>2022-05-21 17:35:17</time>
      </trkpt>
      <trkpt lat="42.36665" lon="2.66512">
        <ele>705</ele>
        <time>2022-05-21 17:35:18</time>
      </trkpt>
      <trkpt lat="42.36668" lon="2.66497">
        <ele>704.8</ele>
        <time>2022-05-21 17:35:19</time>
      </trkpt>
      <trkpt lat="42.36671" lon="2.66483">
        <ele>704.8</ele>
        <time>2022-05-21 17:35:20</time>
      </trkpt>
      <trkpt lat="42.36673" lon="2.66469">
        <ele>704.6</ele>
        <time>2022-05-21 17:35:21</time>
      </trkpt>
      <trkpt lat="42.36676" lon="2.66456">
        <ele>704.4</ele>
        <time>2022-05-21 17:35:22</time>
      </trkpt>
      <trkpt lat="42.36679" lon="2.66443">
        <ele>704</ele>
        <time>2022-05-21 17:35:23</time>
      </trkpt>
      <trkpt lat="42.36683" lon="2.6643">
        <ele>703.8</ele>
        <time>2022-05-21 17:35:24</time>
      </trkpt>
      <trkpt lat="42.3669" lon="2.66418">
        <ele>703.6</ele>
        <time>2022-05-21 17:35:25</time>
      </trkpt>
      <trkpt lat="42.36697" lon="2.66408">
        <ele>703.4</ele>
        <time>2022-05-21 17:35:26</time>
      </trkpt>
      <trkpt lat="42.36704" lon="2.66398">
        <ele>703.4</ele>
        <time>2022-05-21 17:35:27</time>
      </trkpt>
      <trkpt lat="42.3671" lon="2.66388">
        <ele>703.2</ele>
        <time>2022-05-21 17:35:28</time>
      </trkpt>
      <trkpt lat="42.36716" lon="2.66377">
        <ele>703.2</ele>
        <time>2022-05-21 17:35:29</time>
      </trkpt>
      <trkpt lat="42.3672" lon="2.66366">
        <ele>703</ele>
        <time>2022-05-21 17:35:30</time>
      </trkpt>
      <trkpt lat="42.36723" lon="2.66354">
        <ele>703</ele>
        <time>2022-05-21 17:35:31</time>
      </trkpt>
      <trkpt lat="42.36725" lon="2.66341">
        <ele>702.8</ele>
        <time>2022-05-21 17:35:32</time>
      </trkpt>
      <trkpt lat="42.36726" lon="2.66329">
        <ele>702.8</ele>
        <time>2022-05-21 17:35:33</time>
      </trkpt>
      <trkpt lat="42.36726" lon="2.66316">
        <ele>702.6</ele>
        <time>2022-05-21 17:35:34</time>
      </trkpt>
      <trkpt lat="42.36725" lon="2.66303">
        <ele>702.4</ele>
        <time>2022-05-21 17:35:35</time>
      </trkpt>
      <trkpt lat="42.36725" lon="2.66289">
        <ele>702.4</ele>
        <time>2022-05-21 17:35:36</time>
      </trkpt>
      <trkpt lat="42.36725" lon="2.66276">
        <ele>702.2</ele>
        <time>2022-05-21 17:35:37</time>
      </trkpt>
      <trkpt lat="42.36725" lon="2.66263">
        <ele>702</ele>
        <time>2022-05-21 17:35:38</time>
      </trkpt>
      <trkpt lat="42.36726" lon="2.66251">
        <ele>701.8</ele>
        <time>2022-05-21 17:35:39</time>
      </trkpt>
      <trkpt lat="42.36728" lon="2.66239">
        <ele>701.6</ele>
        <time>2022-05-21 17:35:40</time>
      </trkpt>
      <trkpt lat="42.36731" lon="2.66227">
        <ele>701.4</ele>
        <time>2022-05-21 17:35:41</time>
      </trkpt>
      <trkpt lat="42.36735" lon="2.66216">
        <ele>701.2</ele>
        <time>2022-05-21 17:35:42</time>
      </trkpt>
      <trkpt lat="42.36739" lon="2.66205">
        <ele>701.2</ele>
        <time>2022-05-21 17:35:43</time>
      </trkpt>
      <trkpt lat="42.36745" lon="2.66196">
        <ele>701.2</ele>
        <time>2022-05-21 17:35:44</time>
      </trkpt>
      <trkpt lat="42.36751" lon="2.66187">
        <ele>701.2</ele>
        <time>2022-05-21 17:35:45</time>
      </trkpt>
      <trkpt lat="42.36758" lon="2.66179">
        <ele>701.4</ele>
        <time>2022-05-21 17:35:46</time>
      </trkpt>
      <trkpt lat="42.36765" lon="2.66171">
        <ele>701.4</ele>
        <time>2022-05-21 17:35:47</time>
      </trkpt>
      <trkpt lat="42.36771" lon="2.66163">
        <ele>701.6</ele>
        <time>2022-05-21 17:35:48</time>
      </trkpt>
      <trkpt lat="42.36776" lon="2.66155">
        <ele>702</ele>
        <time>2022-05-21 17:35:49</time>
      </trkpt>
      <trkpt lat="42.36782" lon="2.66147">
        <ele>702.2</ele>
        <time>2022-05-21 17:35:50</time>
      </trkpt>
      <trkpt lat="42.36787" lon="2.66139">
        <ele>702.4</ele>
        <time>2022-05-21 17:35:51</time>
      </trkpt>
      <trkpt lat="42.36791" lon="2.66132">
        <ele>702.8</ele>
        <time>2022-05-21 17:35:52</time>
      </trkpt>
      <trkpt lat="42.36795" lon="2.66124">
        <ele>703</ele>
        <time>2022-05-21 17:35:53</time>
      </trkpt>
      <trkpt lat="42.36798" lon="2.66117">
        <ele>703.4</ele>
        <time>2022-05-21 17:35:54</time>
      </trkpt>
      <trkpt lat="42.368" lon="2.6611">
        <ele>703.6</ele>
        <time>2022-05-21 17:35:55</time>
      </trkpt>
      <trkpt lat="42.36802" lon="2.66103">
        <ele>704</ele>
        <time>2022-05-21 17:35:56</time>
      </trkpt>
      <trkpt lat="42.36802" lon="2.66097">
        <ele>704.4</ele>
        <time>2022-05-21 17:35:57</time>
      </trkpt>
      <trkpt lat="42.36803" lon="2.66091">
        <ele>704.6</ele>
        <time>2022-05-21 17:35:58</time>
      </trkpt>
      <trkpt lat="42.36803" lon="2.66086">
        <ele>705</ele>
        <time>2022-05-21 17:35:59</time>
      </trkpt>
      <trkpt lat="42.36803" lon="2.6608">
        <ele>705.4</ele>
        <time>2022-05-21 17:36:00</time>
      </trkpt>
      <trkpt lat="42.36803" lon="2.66075">
        <ele>705.6</ele>
        <time>2022-05-21 17:36:01</time>
      </trkpt>
      <trkpt lat="42.36802" lon="2.66071">
        <ele>706</ele>
        <time>2022-05-21 17:36:02</time>
      </trkpt>
      <trkpt lat="42.36802" lon="2.66066">
        <ele>706.2</ele>
        <time>2022-05-21 17:36:03</time>
      </trkpt>
      <trkpt lat="42.36802" lon="2.66062">
        <ele>706.6</ele>
        <time>2022-05-21 17:36:04</time>
      </trkpt>
      <trkpt lat="42.36801" lon="2.66059">
        <ele>706.8</ele>
        <time>2022-05-21 17:36:05</time>
      </trkpt>
      <trkpt lat="42.368" lon="2.66055">
        <ele>707</ele>
        <time>2022-05-21 17:36:06</time>
      </trkpt>
      <trkpt lat="42.36799" lon="2.66051">
        <ele>707.4</ele>
        <time>2022-05-21 17:36:07</time>
      </trkpt>
      <trkpt lat="42.36798" lon="2.66047">
        <ele>707.6</ele>
        <time>2022-05-21 17:36:08</time>
      </trkpt>
      <trkpt lat="42.36798" lon="2.66043">
        <ele>707.8</ele>
        <time>2022-05-21 17:36:09</time>
      </trkpt>
      <trkpt lat="42.36797" lon="2.6604">
        <ele>708</ele>
        <time>2022-05-21 17:36:10</time>
      </trkpt>
      <trkpt lat="42.36796" lon="2.66037">
        <ele>708.2</ele>
        <time>2022-05-21 17:36:11</time>
      </trkpt>
      <trkpt lat="42.36795" lon="2.66034">
        <ele>708.6</ele>
        <time>2022-05-21 17:36:12</time>
      </trkpt>
      <trkpt lat="42.36794" lon="2.66031">
        <ele>708.8</ele>
        <time>2022-05-21 17:36:13</time>
      </trkpt>
      <trkpt lat="42.36794" lon="2.66028">
        <ele>709</ele>
        <time>2022-05-21 17:36:14</time>
      </trkpt>
      <trkpt lat="42.36793" lon="2.66026">
        <ele>709.2</ele>
        <time>2022-05-21 17:36:15</time>
      </trkpt>
      <trkpt lat="42.36793" lon="2.66023">
        <ele>709.4</ele>
        <time>2022-05-21 17:36:16</time>
      </trkpt>
      <trkpt lat="42.36792" lon="2.6602">
        <ele>709.6</ele>
        <time>2022-05-21 17:36:17</time>
      </trkpt>
      <trkpt lat="42.36791" lon="2.66018">
        <ele>709.8</ele>
        <time>2022-05-21 17:36:18</time>
      </trkpt>
      <trkpt lat="42.36791" lon="2.66015">
        <ele>710</ele>
        <time>2022-05-21 17:36:19</time>
      </trkpt>
      <trkpt lat="42.3679" lon="2.66012">
        <ele>710.2</ele>
        <time>2022-05-21 17:36:20</time>
      </trkpt>
      <trkpt lat="42.36789" lon="2.6601">
        <ele>710.4</ele>
        <time>2022-05-21 17:36:21</time>
      </trkpt>
      <trkpt lat="42.36789" lon="2.66007">
        <ele>710.6</ele>
        <time>2022-05-21 17:36:22</time>
      </trkpt>
      <trkpt lat="42.36788" lon="2.66004">
        <ele>710.8</ele>
        <time>2022-05-21 17:36:23</time>
      </trkpt>
      <trkpt lat="42.36787" lon="2.66001">
        <ele>711</ele>
        <time>2022-05-21 17:36:24</time>
      </trkpt>
      <trkpt lat="42.36787" lon="2.65998">
        <ele>711.2</ele>
        <time>2022-05-21 17:36:25</time>
      </trkpt>
      <trkpt lat="42.36787" lon="2.65996">
        <ele>711.4</ele>
        <time>2022-05-21 17:36:26</time>
      </trkpt>
      <trkpt lat="42.36787" lon="2.65993">
        <ele>711.6</ele>
        <time>2022-05-21 17:36:27</time>
      </trkpt>
      <trkpt lat="42.36787" lon="2.65991">
        <ele>711.8</ele>
        <time>2022-05-21 17:36:28</time>
      </trkpt>
      <trkpt lat="42.36787" lon="2.65988">
        <ele>712</ele>
        <time>2022-05-21 17:36:29</time>
      </trkpt>
      <trkpt lat="42.36786" lon="2.65985">
        <ele>712.2</ele>
        <time>2022-05-21 17:36:30</time>
      </trkpt>
      <trkpt lat="42.36786" lon="2.65983">
        <ele>712.4</ele>
        <time>2022-05-21 17:36:31</time>
      </trkpt>
      <trkpt lat="42.36786" lon="2.6598">
        <ele>712.6</ele>
        <time>2022-05-21 17:36:32</time>
      </trkpt>
      <trkpt lat="42.36786" lon="2.65977">
        <ele>712.8</ele>
        <time>2022-05-21 17:36:33</time>
      </trkpt>
      <trkpt lat="42.36786" lon="2.65975">
        <ele>713</ele>
        <time>2022-05-21 17:36:34</time>
      </trkpt>
      <trkpt lat="42.36786" lon="2.65972">
        <ele>713.2</ele>
        <time>2022-05-21 17:36:35</time>
      </trkpt>
      <trkpt lat="42.36786" lon="2.6597">
        <ele>713.4</ele>
        <time>2022-05-21 17:36:36</time>
      </trkpt>
      <trkpt lat="42.36787" lon="2.65968">
        <ele>713.6</ele>
        <time>2022-05-21 17:36:37</time>
      </trkpt>
      <trkpt lat="42.36787" lon="2.65966">
        <ele>713.6</ele>
        <time>2022-05-21 17:36:38</time>
      </trkpt>
      <trkpt lat="42.36788" lon="2.65964">
        <ele>713.8</ele>
        <time>2022-05-21 17:36:39</time>
      </trkpt>
      <trkpt lat="42.36788" lon="2.65962">
        <ele>714</ele>
        <time>2022-05-21 17:36:40</time>
      </trkpt>
      <trkpt lat="42.36788" lon="2.6596">
        <ele>714.2</ele>
        <time>2022-05-21 17:36:41</time>
      </trkpt>
      <trkpt lat="42.36789" lon="2.65958">
        <ele>714.4</ele>
        <time>2022-05-21 17:36:42</time>
      </trkpt>
      <trkpt lat="42.36789" lon="2.65956">
        <ele>714.6</ele>
        <time>2022-05-21 17:36:43</time>
      </trkpt>
      <trkpt lat="42.36789" lon="2.65953">
        <ele>714.8</ele>
        <time>2022-05-21 17:36:44</time>
      </trkpt>
      <trkpt lat="42.3679" lon="2.65951">
        <ele>715</ele>
        <time>2022-05-21 17:36:45</time>
      </trkpt>
      <trkpt lat="42.3679" lon="2.6595">
        <ele>715</ele>
        <time>2022-05-21 17:36:46</time>
      </trkpt>
      <trkpt lat="42.3679" lon="2.65946">
        <ele>715.4</ele>
        <time>2022-05-21 17:36:47</time>
      </trkpt>
      <trkpt lat="42.3679" lon="2.65943">
        <ele>715.6</ele>
        <time>2022-05-21 17:36:48</time>
      </trkpt>
      <trkpt lat="42.3679" lon="2.65941">
        <ele>715.6</ele>
        <time>2022-05-21 17:36:49</time>
      </trkpt>
      <trkpt lat="42.36791" lon="2.65939">
        <ele>715.8</ele>
        <time>2022-05-21 17:36:50</time>
      </trkpt>
      <trkpt lat="42.36791" lon="2.65936">
        <ele>716</ele>
        <time>2022-05-21 17:36:51</time>
      </trkpt>
      <trkpt lat="42.36791" lon="2.65934">
        <ele>716.2</ele>
        <time>2022-05-21 17:36:52</time>
      </trkpt>
      <trkpt lat="42.36791" lon="2.65931">
        <ele>716.4</ele>
        <time>2022-05-21 17:36:53</time>
      </trkpt>
      <trkpt lat="42.36791" lon="2.65929">
        <ele>716.6</ele>
        <time>2022-05-21 17:36:54</time>
      </trkpt>
      <trkpt lat="42.36792" lon="2.65927">
        <ele>716.6</ele>
        <time>2022-05-21 17:36:55</time>
      </trkpt>
      <trkpt lat="42.36792" lon="2.65924">
        <ele>716.8</ele>
        <time>2022-05-21 17:36:56</time>
      </trkpt>
      <trkpt lat="42.36792" lon="2.65922">
        <ele>717</ele>
        <time>2022-05-21 17:36:57</time>
      </trkpt>
      <trkpt lat="42.36793" lon="2.65919">
        <ele>717.2</ele>
        <time>2022-05-21 17:36:58</time>
      </trkpt>
      <trkpt lat="42.36793" lon="2.65917">
        <ele>717.4</ele>
        <time>2022-05-21 17:36:59</time>
      </trkpt>
      <trkpt lat="42.36794" lon="2.65915">
        <ele>717.6</ele>
        <time>2022-05-21 17:37:00</time>
      </trkpt>
      <trkpt lat="42.36794" lon="2.65912">
        <ele>717.8</ele>
        <time>2022-05-21 17:37:01</time>
      </trkpt>
      <trkpt lat="42.36794" lon="2.6591">
        <ele>717.8</ele>
        <time>2022-05-21 17:37:02</time>
      </trkpt>
      <trkpt lat="42.36794" lon="2.65908">
        <ele>718</ele>
        <time>2022-05-21 17:37:03</time>
      </trkpt>
      <trkpt lat="42.36794" lon="2.65906">
        <ele>718.2</ele>
        <time>2022-05-21 17:37:04</time>
      </trkpt>
      <trkpt lat="42.36794" lon="2.65904">
        <ele>718.4</ele>
        <time>2022-05-21 17:37:05</time>
      </trkpt>
      <trkpt lat="42.36794" lon="2.65901">
        <ele>718.4</ele>
        <time>2022-05-21 17:37:06</time>
      </trkpt>
      <trkpt lat="42.36794" lon="2.65899">
        <ele>718.6</ele>
        <time>2022-05-21 17:37:07</time>
      </trkpt>
      <trkpt lat="42.36794" lon="2.65896">
        <ele>718.8</ele>
        <time>2022-05-21 17:37:08</time>
      </trkpt>
      <trkpt lat="42.36794" lon="2.65894">
        <ele>719</ele>
        <time>2022-05-21 17:37:09</time>
      </trkpt>
      <trkpt lat="42.36794" lon="2.65892">
        <ele>719.2</ele>
        <time>2022-05-21 17:37:10</time>
      </trkpt>
      <trkpt lat="42.36795" lon="2.65889">
        <ele>719.4</ele>
        <time>2022-05-21 17:37:11</time>
      </trkpt>
      <trkpt lat="42.36795" lon="2.65887">
        <ele>719.6</ele>
        <time>2022-05-21 17:37:12</time>
      </trkpt>
      <trkpt lat="42.36794" lon="2.65884">
        <ele>719.8</ele>
        <time>2022-05-21 17:37:13</time>
      </trkpt>
      <trkpt lat="42.36794" lon="2.65882">
        <ele>720</ele>
        <time>2022-05-21 17:37:14</time>
      </trkpt>
      <trkpt lat="42.36794" lon="2.65879">
        <ele>720.2</ele>
        <time>2022-05-21 17:37:15</time>
      </trkpt>
      <trkpt lat="42.36794" lon="2.65877">
        <ele>720.2</ele>
        <time>2022-05-21 17:37:16</time>
      </trkpt>
      <trkpt lat="42.36794" lon="2.65874">
        <ele>720.4</ele>
        <time>2022-05-21 17:37:17</time>
      </trkpt>
      <trkpt lat="42.36794" lon="2.65872">
        <ele>720.6</ele>
        <time>2022-05-21 17:37:18</time>
      </trkpt>
      <trkpt lat="42.36794" lon="2.65869">
        <ele>720.8</ele>
        <time>2022-05-21 17:37:19</time>
      </trkpt>
      <trkpt lat="42.36795" lon="2.65867">
        <ele>721</ele>
        <time>2022-05-21 17:37:20</time>
      </trkpt>
      <trkpt lat="42.36795" lon="2.65865">
        <ele>721.2</ele>
        <time>2022-05-21 17:37:21</time>
      </trkpt>
      <trkpt lat="42.36795" lon="2.65863">
        <ele>721.2</ele>
        <time>2022-05-21 17:37:22</time>
      </trkpt>
      <trkpt lat="42.36794" lon="2.6586">
        <ele>721.4</ele>
        <time>2022-05-21 17:37:23</time>
      </trkpt>
      <trkpt lat="42.36794" lon="2.65858">
        <ele>721.6</ele>
        <time>2022-05-21 17:37:24</time>
      </trkpt>
      <trkpt lat="42.36794" lon="2.65856">
        <ele>721.8</ele>
        <time>2022-05-21 17:37:25</time>
      </trkpt>
      <trkpt lat="42.36794" lon="2.65854">
        <ele>722</ele>
        <time>2022-05-21 17:37:26</time>
      </trkpt>
      <trkpt lat="42.36794" lon="2.65851">
        <ele>722.2</ele>
        <time>2022-05-21 17:37:27</time>
      </trkpt>
      <trkpt lat="42.36794" lon="2.65849">
        <ele>722.4</ele>
        <time>2022-05-21 17:37:28</time>
      </trkpt>
      <trkpt lat="42.36794" lon="2.65847">
        <ele>722.6</ele>
        <time>2022-05-21 17:37:29</time>
      </trkpt>
      <trkpt lat="42.36794" lon="2.65845">
        <ele>722.8</ele>
        <time>2022-05-21 17:37:30</time>
      </trkpt>
      <trkpt lat="42.36794" lon="2.65843">
        <ele>723</ele>
        <time>2022-05-21 17:37:31</time>
      </trkpt>
      <trkpt lat="42.36794" lon="2.65841">
        <ele>723</ele>
        <time>2022-05-21 17:37:32</time>
      </trkpt>
      <trkpt lat="42.36794" lon="2.65839">
        <ele>723.2</ele>
        <time>2022-05-21 17:37:33</time>
      </trkpt>
      <trkpt lat="42.36794" lon="2.65837">
        <ele>723.4</ele>
        <time>2022-05-21 17:37:34</time>
      </trkpt>
      <trkpt lat="42.36794" lon="2.65834">
        <ele>723.6</ele>
        <time>2022-05-21 17:37:35</time>
      </trkpt>
      <trkpt lat="42.36794" lon="2.65832">
        <ele>723.8</ele>
        <time>2022-05-21 17:37:36</time>
      </trkpt>
      <trkpt lat="42.36794" lon="2.6583">
        <ele>724</ele>
        <time>2022-05-21 17:37:37</time>
      </trkpt>
      <trkpt lat="42.36794" lon="2.65828">
        <ele>724</ele>
        <time>2022-05-21 17:37:38</time>
      </trkpt>
      <trkpt lat="42.36794" lon="2.65825">
        <ele>724.2</ele>
        <time>2022-05-21 17:37:39</time>
      </trkpt>
      <trkpt lat="42.36794" lon="2.65823">
        <ele>724.4</ele>
        <time>2022-05-21 17:37:40</time>
      </trkpt>
      <trkpt lat="42.36794" lon="2.65821">
        <ele>724.6</ele>
        <time>2022-05-21 17:37:41</time>
      </trkpt>
      <trkpt lat="42.36793" lon="2.65818">
        <ele>724.8</ele>
        <time>2022-05-21 17:37:42</time>
      </trkpt>
      <trkpt lat="42.36793" lon="2.65816">
        <ele>725</ele>
        <time>2022-05-21 17:37:43</time>
      </trkpt>
      <trkpt lat="42.36794" lon="2.65813">
        <ele>725</ele>
        <time>2022-05-21 17:37:44</time>
      </trkpt>
      <trkpt lat="42.36794" lon="2.65811">
        <ele>725.2</ele>
        <time>2022-05-21 17:37:45</time>
      </trkpt>
      <trkpt lat="42.36794" lon="2.65808">
        <ele>725.4</ele>
        <time>2022-05-21 17:37:46</time>
      </trkpt>
      <trkpt lat="42.36794" lon="2.65806">
        <ele>725.6</ele>
        <time>2022-05-21 17:37:47</time>
      </trkpt>
      <trkpt lat="42.36794" lon="2.65804">
        <ele>725.8</ele>
        <time>2022-05-21 17:37:48</time>
      </trkpt>
      <trkpt lat="42.36794" lon="2.65801">
        <ele>726</ele>
        <time>2022-05-21 17:37:49</time>
      </trkpt>
      <trkpt lat="42.36794" lon="2.65799">
        <ele>726</ele>
        <time>2022-05-21 17:37:50</time>
      </trkpt>
      <trkpt lat="42.36794" lon="2.65797">
        <ele>726.2</ele>
        <time>2022-05-21 17:37:51</time>
      </trkpt>
      <trkpt lat="42.36795" lon="2.65795">
        <ele>726.4</ele>
        <time>2022-05-21 17:37:52</time>
      </trkpt>
      <trkpt lat="42.36794" lon="2.65793">
        <ele>726.6</ele>
        <time>2022-05-21 17:37:53</time>
      </trkpt>
      <trkpt lat="42.36794" lon="2.6579">
        <ele>726.8</ele>
        <time>2022-05-21 17:37:54</time>
      </trkpt>
      <trkpt lat="42.36793" lon="2.65788">
        <ele>726.8</ele>
        <time>2022-05-21 17:37:55</time>
      </trkpt>
      <trkpt lat="42.36793" lon="2.65785">
        <ele>727</ele>
        <time>2022-05-21 17:37:56</time>
      </trkpt>
      <trkpt lat="42.36792" lon="2.65783">
        <ele>727.2</ele>
        <time>2022-05-21 17:37:57</time>
      </trkpt>
      <trkpt lat="42.36792" lon="2.65781">
        <ele>727.4</ele>
        <time>2022-05-21 17:37:58</time>
      </trkpt>
      <trkpt lat="42.36792" lon="2.65779">
        <ele>727.6</ele>
        <time>2022-05-21 17:37:59</time>
      </trkpt>
      <trkpt lat="42.36792" lon="2.65776">
        <ele>727.8</ele>
        <time>2022-05-21 17:38:00</time>
      </trkpt>
      <trkpt lat="42.36792" lon="2.65774">
        <ele>727.8</ele>
        <time>2022-05-21 17:38:01</time>
      </trkpt>
      <trkpt lat="42.36792" lon="2.65771">
        <ele>728</ele>
        <time>2022-05-21 17:38:02</time>
      </trkpt>
      <trkpt lat="42.36792" lon="2.65768">
        <ele>728.2</ele>
        <time>2022-05-21 17:38:03</time>
      </trkpt>
      <trkpt lat="42.36792" lon="2.65766">
        <ele>728.4</ele>
        <time>2022-05-21 17:38:04</time>
      </trkpt>
      <trkpt lat="42.36792" lon="2.65763">
        <ele>728.6</ele>
        <time>2022-05-21 17:38:05</time>
      </trkpt>
      <trkpt lat="42.36793" lon="2.6576">
        <ele>728.8</ele>
        <time>2022-05-21 17:38:06</time>
      </trkpt>
      <trkpt lat="42.36793" lon="2.65758">
        <ele>728.8</ele>
        <time>2022-05-21 17:38:07</time>
      </trkpt>
      <trkpt lat="42.36793" lon="2.65756">
        <ele>729</ele>
        <time>2022-05-21 17:38:08</time>
      </trkpt>
      <trkpt lat="42.36794" lon="2.65753">
        <ele>729.2</ele>
        <time>2022-05-21 17:38:09</time>
      </trkpt>
      <trkpt lat="42.36794" lon="2.6575">
        <ele>729.4</ele>
        <time>2022-05-21 17:38:10</time>
      </trkpt>
      <trkpt lat="42.36794" lon="2.65748">
        <ele>729.6</ele>
        <time>2022-05-21 17:38:11</time>
      </trkpt>
      <trkpt lat="42.36794" lon="2.65745">
        <ele>729.6</ele>
        <time>2022-05-21 17:38:12</time>
      </trkpt>
      <trkpt lat="42.36794" lon="2.65742">
        <ele>729.8</ele>
        <time>2022-05-21 17:38:13</time>
      </trkpt>
      <trkpt lat="42.36794" lon="2.65739">
        <ele>730</ele>
        <time>2022-05-21 17:38:14</time>
      </trkpt>
      <trkpt lat="42.36794" lon="2.65737">
        <ele>730.2</ele>
        <time>2022-05-21 17:38:15</time>
      </trkpt>
      <trkpt lat="42.36794" lon="2.65735">
        <ele>730.2</ele>
        <time>2022-05-21 17:38:16</time>
      </trkpt>
      <trkpt lat="42.36794" lon="2.65732">
        <ele>730.4</ele>
        <time>2022-05-21 17:38:17</time>
      </trkpt>
      <trkpt lat="42.36794" lon="2.65729">
        <ele>730.6</ele>
        <time>2022-05-21 17:38:18</time>
      </trkpt>
      <trkpt lat="42.36794" lon="2.65726">
        <ele>730.8</ele>
        <time>2022-05-21 17:38:19</time>
      </trkpt>
      <trkpt lat="42.36795" lon="2.65724">
        <ele>731</ele>
        <time>2022-05-21 17:38:20</time>
      </trkpt>
      <trkpt lat="42.36795" lon="2.65722">
        <ele>731.2</ele>
        <time>2022-05-21 17:38:21</time>
      </trkpt>
      <trkpt lat="42.36795" lon="2.65719">
        <ele>731.4</ele>
        <time>2022-05-21 17:38:22</time>
      </trkpt>
      <trkpt lat="42.36795" lon="2.65717">
        <ele>731.4</ele>
        <time>2022-05-21 17:38:23</time>
      </trkpt>
      <trkpt lat="42.36795" lon="2.65714">
        <ele>731.6</ele>
        <time>2022-05-21 17:38:24</time>
      </trkpt>
      <trkpt lat="42.36795" lon="2.65712">
        <ele>731.8</ele>
        <time>2022-05-21 17:38:25</time>
      </trkpt>
      <trkpt lat="42.36795" lon="2.6571">
        <ele>732</ele>
        <time>2022-05-21 17:38:26</time>
      </trkpt>
      <trkpt lat="42.36795" lon="2.65707">
        <ele>732.2</ele>
        <time>2022-05-21 17:38:27</time>
      </trkpt>
      <trkpt lat="42.36795" lon="2.65704">
        <ele>732.4</ele>
        <time>2022-05-21 17:38:28</time>
      </trkpt>
      <trkpt lat="42.36795" lon="2.65702">
        <ele>732.4</ele>
        <time>2022-05-21 17:38:29</time>
      </trkpt>
      <trkpt lat="42.36795" lon="2.657">
        <ele>732.6</ele>
        <time>2022-05-21 17:38:30</time>
      </trkpt>
      <trkpt lat="42.36795" lon="2.65697">
        <ele>732.8</ele>
        <time>2022-05-21 17:38:31</time>
      </trkpt>
      <trkpt lat="42.36795" lon="2.65695">
        <ele>733</ele>
        <time>2022-05-21 17:38:32</time>
      </trkpt>
      <trkpt lat="42.36795" lon="2.65692">
        <ele>733.2</ele>
        <time>2022-05-21 17:38:33</time>
      </trkpt>
      <trkpt lat="42.36795" lon="2.6569">
        <ele>733.4</ele>
        <time>2022-05-21 17:38:34</time>
      </trkpt>
      <trkpt lat="42.36795" lon="2.65688">
        <ele>733.4</ele>
        <time>2022-05-21 17:38:35</time>
      </trkpt>
      <trkpt lat="42.36795" lon="2.65685">
        <ele>733.6</ele>
        <time>2022-05-21 17:38:36</time>
      </trkpt>
      <trkpt lat="42.36795" lon="2.65683">
        <ele>733.8</ele>
        <time>2022-05-21 17:38:37</time>
      </trkpt>
      <trkpt lat="42.36795" lon="2.6568">
        <ele>734</ele>
        <time>2022-05-21 17:38:38</time>
      </trkpt>
      <trkpt lat="42.36794" lon="2.65678">
        <ele>734.2</ele>
        <time>2022-05-21 17:38:39</time>
      </trkpt>
      <trkpt lat="42.36794" lon="2.65676">
        <ele>734.2</ele>
        <time>2022-05-21 17:38:40</time>
      </trkpt>
      <trkpt lat="42.36794" lon="2.65674">
        <ele>734.4</ele>
        <time>2022-05-21 17:38:41</time>
      </trkpt>
      <trkpt lat="42.36795" lon="2.65672">
        <ele>734.6</ele>
        <time>2022-05-21 17:38:42</time>
      </trkpt>
      <trkpt lat="42.36795" lon="2.65669">
        <ele>734.8</ele>
        <time>2022-05-21 17:38:43</time>
      </trkpt>
      <trkpt lat="42.36796" lon="2.65667">
        <ele>735</ele>
        <time>2022-05-21 17:38:44</time>
      </trkpt>
      <trkpt lat="42.36796" lon="2.65665">
        <ele>735</ele>
        <time>2022-05-21 17:38:45</time>
      </trkpt>
      <trkpt lat="42.36796" lon="2.65662">
        <ele>735.2</ele>
        <time>2022-05-21 17:38:46</time>
      </trkpt>
      <trkpt lat="42.36796" lon="2.6566">
        <ele>735.4</ele>
        <time>2022-05-21 17:38:47</time>
      </trkpt>
      <trkpt lat="42.36796" lon="2.65657">
        <ele>735.4</ele>
        <time>2022-05-21 17:38:48</time>
      </trkpt>
      <trkpt lat="42.36797" lon="2.65655">
        <ele>735.6</ele>
        <time>2022-05-21 17:38:49</time>
      </trkpt>
      <trkpt lat="42.36797" lon="2.65652">
        <ele>735.8</ele>
        <time>2022-05-21 17:38:50</time>
      </trkpt>
      <trkpt lat="42.36797" lon="2.6565">
        <ele>736</ele>
        <time>2022-05-21 17:38:51</time>
      </trkpt>
      <trkpt lat="42.36798" lon="2.65648">
        <ele>736.2</ele>
        <time>2022-05-21 17:38:52</time>
      </trkpt>
      <trkpt lat="42.36798" lon="2.65645">
        <ele>736.2</ele>
        <time>2022-05-21 17:38:53</time>
      </trkpt>
      <trkpt lat="42.36798" lon="2.65643">
        <ele>736.4</ele>
        <time>2022-05-21 17:38:54</time>
      </trkpt>
      <trkpt lat="42.36798" lon="2.65641">
        <ele>736.6</ele>
        <time>2022-05-21 17:38:55</time>
      </trkpt>
      <trkpt lat="42.36798" lon="2.65638">
        <ele>736.8</ele>
        <time>2022-05-21 17:38:56</time>
      </trkpt>
      <trkpt lat="42.36798" lon="2.65636">
        <ele>737</ele>
        <time>2022-05-21 17:38:57</time>
      </trkpt>
      <trkpt lat="42.36797" lon="2.65633">
        <ele>737.2</ele>
        <time>2022-05-21 17:38:58</time>
      </trkpt>
      <trkpt lat="42.36797" lon="2.65631">
        <ele>737.4</ele>
        <time>2022-05-21 17:38:59</time>
      </trkpt>
      <trkpt lat="42.36797" lon="2.65628">
        <ele>737.4</ele>
        <time>2022-05-21 17:39:00</time>
      </trkpt>
      <trkpt lat="42.36797" lon="2.65625">
        <ele>737.6</ele>
        <time>2022-05-21 17:39:01</time>
      </trkpt>
      <trkpt lat="42.36797" lon="2.65623">
        <ele>737.8</ele>
        <time>2022-05-21 17:39:02</time>
      </trkpt>
      <trkpt lat="42.36797" lon="2.6562">
        <ele>738</ele>
        <time>2022-05-21 17:39:03</time>
      </trkpt>
      <trkpt lat="42.36798" lon="2.65617">
        <ele>738.2</ele>
        <time>2022-05-21 17:39:04</time>
      </trkpt>
      <trkpt lat="42.36798" lon="2.65615">
        <ele>738.2</ele>
        <time>2022-05-21 17:39:05</time>
      </trkpt>
      <trkpt lat="42.36798" lon="2.65612">
        <ele>738.4</ele>
        <time>2022-05-21 17:39:06</time>
      </trkpt>
      <trkpt lat="42.36798" lon="2.6561">
        <ele>738.6</ele>
        <time>2022-05-21 17:39:07</time>
      </trkpt>
      <trkpt lat="42.36799" lon="2.65607">
        <ele>738.8</ele>
        <time>2022-05-21 17:39:08</time>
      </trkpt>
      <trkpt lat="42.36799" lon="2.65605">
        <ele>739</ele>
        <time>2022-05-21 17:39:09</time>
      </trkpt>
      <trkpt lat="42.36799" lon="2.65602">
        <ele>739.2</ele>
        <time>2022-05-21 17:39:10</time>
      </trkpt>
      <trkpt lat="42.368" lon="2.656">
        <ele>739.2</ele>
        <time>2022-05-21 17:39:11</time>
      </trkpt>
      <trkpt lat="42.368" lon="2.65597">
        <ele>739.4</ele>
        <time>2022-05-21 17:39:12</time>
      </trkpt>
      <trkpt lat="42.368" lon="2.65595">
        <ele>739.6</ele>
        <time>2022-05-21 17:39:13</time>
      </trkpt>
      <trkpt lat="42.368" lon="2.65592">
        <ele>739.8</ele>
        <time>2022-05-21 17:39:14</time>
      </trkpt>
      <trkpt lat="42.368" lon="2.6559">
        <ele>739.8</ele>
        <time>2022-05-21 17:39:15</time>
      </trkpt>
      <trkpt lat="42.368" lon="2.65588">
        <ele>740</ele>
        <time>2022-05-21 17:39:16</time>
      </trkpt>
      <trkpt lat="42.368" lon="2.65585">
        <ele>740.2</ele>
        <time>2022-05-21 17:39:17</time>
      </trkpt>
      <trkpt lat="42.36801" lon="2.65583">
        <ele>740.4</ele>
        <time>2022-05-21 17:39:18</time>
      </trkpt>
      <trkpt lat="42.36801" lon="2.65581">
        <ele>740.4</ele>
        <time>2022-05-21 17:39:19</time>
      </trkpt>
      <trkpt lat="42.36801" lon="2.65579">
        <ele>740.6</ele>
        <time>2022-05-21 17:39:20</time>
      </trkpt>
      <trkpt lat="42.36801" lon="2.65577">
        <ele>740.8</ele>
        <time>2022-05-21 17:39:21</time>
      </trkpt>
      <trkpt lat="42.36801" lon="2.65575">
        <ele>741</ele>
        <time>2022-05-21 17:39:22</time>
      </trkpt>
      <trkpt lat="42.36801" lon="2.65573">
        <ele>741</ele>
        <time>2022-05-21 17:39:23</time>
      </trkpt>
      <trkpt lat="42.36801" lon="2.6557">
        <ele>741.2</ele>
        <time>2022-05-21 17:39:24</time>
      </trkpt>
      <trkpt lat="42.36801" lon="2.65568">
        <ele>741.4</ele>
        <time>2022-05-21 17:39:25</time>
      </trkpt>
      <trkpt lat="42.36801" lon="2.65566">
        <ele>741.6</ele>
        <time>2022-05-21 17:39:26</time>
      </trkpt>
      <trkpt lat="42.36802" lon="2.65563">
        <ele>741.8</ele>
        <time>2022-05-21 17:39:27</time>
      </trkpt>
      <trkpt lat="42.36802" lon="2.65561">
        <ele>741.8</ele>
        <time>2022-05-21 17:39:28</time>
      </trkpt>
      <trkpt lat="42.36802" lon="2.65558">
        <ele>742</ele>
        <time>2022-05-21 17:39:29</time>
      </trkpt>
      <trkpt lat="42.36802" lon="2.65555">
        <ele>742.2</ele>
        <time>2022-05-21 17:39:30</time>
      </trkpt>
      <trkpt lat="42.36802" lon="2.65553">
        <ele>742.4</ele>
        <time>2022-05-21 17:39:31</time>
      </trkpt>
      <trkpt lat="42.36802" lon="2.6555">
        <ele>742.4</ele>
        <time>2022-05-21 17:39:32</time>
      </trkpt>
      <trkpt lat="42.36803" lon="2.65548">
        <ele>742.6</ele>
        <time>2022-05-21 17:39:33</time>
      </trkpt>
      <trkpt lat="42.36803" lon="2.65546">
        <ele>742.6</ele>
        <time>2022-05-21 17:39:34</time>
      </trkpt>
      <trkpt lat="42.36803" lon="2.65543">
        <ele>742.8</ele>
        <time>2022-05-21 17:39:35</time>
      </trkpt>
      <trkpt lat="42.36803" lon="2.65541">
        <ele>743</ele>
        <time>2022-05-21 17:39:36</time>
      </trkpt>
      <trkpt lat="42.36803" lon="2.65538">
        <ele>743.2</ele>
        <time>2022-05-21 17:39:37</time>
      </trkpt>
      <trkpt lat="42.36803" lon="2.65536">
        <ele>743.4</ele>
        <time>2022-05-21 17:39:38</time>
      </trkpt>
      <trkpt lat="42.36803" lon="2.65533">
        <ele>743.6</ele>
        <time>2022-05-21 17:39:39</time>
      </trkpt>
      <trkpt lat="42.36803" lon="2.6553">
        <ele>743.6</ele>
        <time>2022-05-21 17:39:40</time>
      </trkpt>
      <trkpt lat="42.36803" lon="2.65527">
        <ele>743.8</ele>
        <time>2022-05-21 17:39:41</time>
      </trkpt>
      <trkpt lat="42.36803" lon="2.65524">
        <ele>744</ele>
        <time>2022-05-21 17:39:42</time>
      </trkpt>
      <trkpt lat="42.36803" lon="2.65522">
        <ele>744</ele>
        <time>2022-05-21 17:39:43</time>
      </trkpt>
      <trkpt lat="42.36803" lon="2.65519">
        <ele>744.2</ele>
        <time>2022-05-21 17:39:44</time>
      </trkpt>
      <trkpt lat="42.36803" lon="2.65517">
        <ele>744.4</ele>
        <time>2022-05-21 17:39:45</time>
      </trkpt>
      <trkpt lat="42.36803" lon="2.65515">
        <ele>744.4</ele>
        <time>2022-05-21 17:39:46</time>
      </trkpt>
      <trkpt lat="42.36804" lon="2.65512">
        <ele>744.6</ele>
        <time>2022-05-21 17:39:47</time>
      </trkpt>
      <trkpt lat="42.36804" lon="2.6551">
        <ele>744.8</ele>
        <time>2022-05-21 17:39:48</time>
      </trkpt>
      <trkpt lat="42.36804" lon="2.65507">
        <ele>744.8</ele>
        <time>2022-05-21 17:39:49</time>
      </trkpt>
      <trkpt lat="42.36803" lon="2.65505">
        <ele>745</ele>
        <time>2022-05-21 17:39:50</time>
      </trkpt>
      <trkpt lat="42.36803" lon="2.65503">
        <ele>745.2</ele>
        <time>2022-05-21 17:39:51</time>
      </trkpt>
      <trkpt lat="42.36802" lon="2.655">
        <ele>745.4</ele>
        <time>2022-05-21 17:39:52</time>
      </trkpt>
      <trkpt lat="42.36802" lon="2.65498">
        <ele>745.6</ele>
        <time>2022-05-21 17:39:53</time>
      </trkpt>
      <trkpt lat="42.36801" lon="2.65495">
        <ele>745.6</ele>
        <time>2022-05-21 17:39:54</time>
      </trkpt>
      <trkpt lat="42.36801" lon="2.65493">
        <ele>745.8</ele>
        <time>2022-05-21 17:39:55</time>
      </trkpt>
      <trkpt lat="42.368" lon="2.6549">
        <ele>745.8</ele>
        <time>2022-05-21 17:39:56</time>
      </trkpt>
      <trkpt lat="42.368" lon="2.65487">
        <ele>746</ele>
        <time>2022-05-21 17:39:57</time>
      </trkpt>
      <trkpt lat="42.368" lon="2.65485">
        <ele>746.2</ele>
        <time>2022-05-21 17:39:58</time>
      </trkpt>
      <trkpt lat="42.368" lon="2.65482">
        <ele>746.2</ele>
        <time>2022-05-21 17:39:59</time>
      </trkpt>
      <trkpt lat="42.368" lon="2.65479">
        <ele>746.4</ele>
        <time>2022-05-21 17:40:00</time>
      </trkpt>
      <trkpt lat="42.36801" lon="2.65476">
        <ele>746.6</ele>
        <time>2022-05-21 17:40:01</time>
      </trkpt>
      <trkpt lat="42.36801" lon="2.65474">
        <ele>746.8</ele>
        <time>2022-05-21 17:40:02</time>
      </trkpt>
      <trkpt lat="42.368" lon="2.65471">
        <ele>747</ele>
        <time>2022-05-21 17:40:03</time>
      </trkpt>
      <trkpt lat="42.368" lon="2.65468">
        <ele>747</ele>
        <time>2022-05-21 17:40:04</time>
      </trkpt>
      <trkpt lat="42.36799" lon="2.65465">
        <ele>747.2</ele>
        <time>2022-05-21 17:40:05</time>
      </trkpt>
      <trkpt lat="42.36799" lon="2.65462">
        <ele>747.4</ele>
        <time>2022-05-21 17:40:06</time>
      </trkpt>
      <trkpt lat="42.36799" lon="2.6546">
        <ele>747.6</ele>
        <time>2022-05-21 17:40:07</time>
      </trkpt>
      <trkpt lat="42.36799" lon="2.65458">
        <ele>747.8</ele>
        <time>2022-05-21 17:40:08</time>
      </trkpt>
      <trkpt lat="42.36798" lon="2.65455">
        <ele>747.8</ele>
        <time>2022-05-21 17:40:09</time>
      </trkpt>
      <trkpt lat="42.36798" lon="2.65453">
        <ele>748</ele>
        <time>2022-05-21 17:40:10</time>
      </trkpt>
      <trkpt lat="42.36798" lon="2.65451">
        <ele>748.2</ele>
        <time>2022-05-21 17:40:11</time>
      </trkpt>
      <trkpt lat="42.36798" lon="2.65448">
        <ele>748.4</ele>
        <time>2022-05-21 17:40:12</time>
      </trkpt>
      <trkpt lat="42.36798" lon="2.65446">
        <ele>748.6</ele>
        <time>2022-05-21 17:40:13</time>
      </trkpt>
      <trkpt lat="42.36798" lon="2.65443">
        <ele>748.8</ele>
        <time>2022-05-21 17:40:14</time>
      </trkpt>
      <trkpt lat="42.36797" lon="2.65441">
        <ele>749</ele>
        <time>2022-05-21 17:40:15</time>
      </trkpt>
      <trkpt lat="42.36797" lon="2.65439">
        <ele>749</ele>
        <time>2022-05-21 17:40:16</time>
      </trkpt>
      <trkpt lat="42.36796" lon="2.65437">
        <ele>749.2</ele>
        <time>2022-05-21 17:40:17</time>
      </trkpt>
      <trkpt lat="42.36796" lon="2.65434">
        <ele>749.4</ele>
        <time>2022-05-21 17:40:18</time>
      </trkpt>
      <trkpt lat="42.36796" lon="2.65432">
        <ele>749.6</ele>
        <time>2022-05-21 17:40:19</time>
      </trkpt>
      <trkpt lat="42.36795" lon="2.65428">
        <ele>749.8</ele>
        <time>2022-05-21 17:40:20</time>
      </trkpt>
      <trkpt lat="42.36795" lon="2.65426">
        <ele>749.8</ele>
        <time>2022-05-21 17:40:21</time>
      </trkpt>
      <trkpt lat="42.36795" lon="2.65423">
        <ele>750</ele>
        <time>2022-05-21 17:40:22</time>
      </trkpt>
      <trkpt lat="42.36795" lon="2.65421">
        <ele>750.2</ele>
        <time>2022-05-21 17:40:23</time>
      </trkpt>
      <trkpt lat="42.36794" lon="2.65419">
        <ele>750.4</ele>
        <time>2022-05-21 17:40:24</time>
      </trkpt>
      <trkpt lat="42.36794" lon="2.65416">
        <ele>750.6</ele>
        <time>2022-05-21 17:40:25</time>
      </trkpt>
      <trkpt lat="42.36793" lon="2.65414">
        <ele>750.6</ele>
        <time>2022-05-21 17:40:26</time>
      </trkpt>
      <trkpt lat="42.36793" lon="2.65412">
        <ele>750.8</ele>
        <time>2022-05-21 17:40:27</time>
      </trkpt>
      <trkpt lat="42.36793" lon="2.6541">
        <ele>751</ele>
        <time>2022-05-21 17:40:28</time>
      </trkpt>
      <trkpt lat="42.36792" lon="2.65407">
        <ele>751.2</ele>
        <time>2022-05-21 17:40:29</time>
      </trkpt>
      <trkpt lat="42.36792" lon="2.65405">
        <ele>751.4</ele>
        <time>2022-05-21 17:40:30</time>
      </trkpt>
      <trkpt lat="42.3679" lon="2.65403">
        <ele>751.4</ele>
        <time>2022-05-21 17:40:31</time>
      </trkpt>
      <trkpt lat="42.36789" lon="2.65401">
        <ele>751.6</ele>
        <time>2022-05-21 17:40:32</time>
      </trkpt>
      <trkpt lat="42.36787" lon="2.65398">
        <ele>751.8</ele>
        <time>2022-05-21 17:40:33</time>
      </trkpt>
      <trkpt lat="42.36785" lon="2.65397">
        <ele>752</ele>
        <time>2022-05-21 17:40:34</time>
      </trkpt>
      <trkpt lat="42.36783" lon="2.65395">
        <ele>752.2</ele>
        <time>2022-05-21 17:40:35</time>
      </trkpt>
      <trkpt lat="42.36781" lon="2.65394">
        <ele>752.4</ele>
        <time>2022-05-21 17:40:36</time>
      </trkpt>
      <trkpt lat="42.36779" lon="2.65393">
        <ele>752.4</ele>
        <time>2022-05-21 17:40:37</time>
      </trkpt>
      <trkpt lat="42.36776" lon="2.65392">
        <ele>752.6</ele>
        <time>2022-05-21 17:40:38</time>
      </trkpt>
      <trkpt lat="42.36774" lon="2.65391">
        <ele>752.8</ele>
        <time>2022-05-21 17:40:39</time>
      </trkpt>
      <trkpt lat="42.36772" lon="2.65391">
        <ele>753</ele>
        <time>2022-05-21 17:40:40</time>
      </trkpt>
      <trkpt lat="42.36769" lon="2.65391">
        <ele>753</ele>
        <time>2022-05-21 17:40:41</time>
      </trkpt>
      <trkpt lat="42.36767" lon="2.65391">
        <ele>753.2</ele>
        <time>2022-05-21 17:40:42</time>
      </trkpt>
      <trkpt lat="42.36764" lon="2.65392">
        <ele>753.4</ele>
        <time>2022-05-21 17:40:43</time>
      </trkpt>
      <trkpt lat="42.36762" lon="2.65392">
        <ele>753.6</ele>
        <time>2022-05-21 17:40:44</time>
      </trkpt>
      <trkpt lat="42.3676" lon="2.65393">
        <ele>753.6</ele>
        <time>2022-05-21 17:40:45</time>
      </trkpt>
      <trkpt lat="42.36759" lon="2.65394">
        <ele>753.8</ele>
        <time>2022-05-21 17:40:46</time>
      </trkpt>
      <trkpt lat="42.36757" lon="2.65395">
        <ele>754</ele>
        <time>2022-05-21 17:40:47</time>
      </trkpt>
      <trkpt lat="42.36755" lon="2.65396">
        <ele>754.2</ele>
        <time>2022-05-21 17:40:48</time>
      </trkpt>
      <trkpt lat="42.36754" lon="2.65398">
        <ele>754.2</ele>
        <time>2022-05-21 17:40:49</time>
      </trkpt>
      <trkpt lat="42.36752" lon="2.65399">
        <ele>754.4</ele>
        <time>2022-05-21 17:40:50</time>
      </trkpt>
      <trkpt lat="42.3675" lon="2.65401">
        <ele>754.6</ele>
        <time>2022-05-21 17:40:51</time>
      </trkpt>
      <trkpt lat="42.36749" lon="2.65403">
        <ele>754.6</ele>
        <time>2022-05-21 17:40:52</time>
      </trkpt>
      <trkpt lat="42.36747" lon="2.65405">
        <ele>754.8</ele>
        <time>2022-05-21 17:40:53</time>
      </trkpt>
      <trkpt lat="42.36746" lon="2.65407">
        <ele>755</ele>
        <time>2022-05-21 17:40:54</time>
      </trkpt>
      <trkpt lat="42.36744" lon="2.65409">
        <ele>755</ele>
        <time>2022-05-21 17:40:55</time>
      </trkpt>
      <trkpt lat="42.36743" lon="2.65411">
        <ele>755.2</ele>
        <time>2022-05-21 17:40:56</time>
      </trkpt>
      <trkpt lat="42.36742" lon="2.65413">
        <ele>755.4</ele>
        <time>2022-05-21 17:40:57</time>
      </trkpt>
      <trkpt lat="42.36741" lon="2.65415">
        <ele>755.4</ele>
        <time>2022-05-21 17:40:58</time>
      </trkpt>
      <trkpt lat="42.3674" lon="2.65417">
        <ele>755.6</ele>
        <time>2022-05-21 17:40:59</time>
      </trkpt>
      <trkpt lat="42.36739" lon="2.65419">
        <ele>755.8</ele>
        <time>2022-05-21 17:41:00</time>
      </trkpt>
      <trkpt lat="42.36738" lon="2.65421">
        <ele>756</ele>
        <time>2022-05-21 17:41:01</time>
      </trkpt>
      <trkpt lat="42.36737" lon="2.65424">
        <ele>756</ele>
        <time>2022-05-21 17:41:02</time>
      </trkpt>
      <trkpt lat="42.36737" lon="2.65426">
        <ele>756.2</ele>
        <time>2022-05-21 17:41:03</time>
      </trkpt>
      <trkpt lat="42.36736" lon="2.65429">
        <ele>756.4</ele>
        <time>2022-05-21 17:41:04</time>
      </trkpt>
      <trkpt lat="42.36734" lon="2.65431">
        <ele>756.4</ele>
        <time>2022-05-21 17:41:05</time>
      </trkpt>
      <trkpt lat="42.36733" lon="2.65433">
        <ele>756.6</ele>
        <time>2022-05-21 17:41:06</time>
      </trkpt>
      <trkpt lat="42.36732" lon="2.65435">
        <ele>756.6</ele>
        <time>2022-05-21 17:41:07</time>
      </trkpt>
      <trkpt lat="42.36731" lon="2.65437">
        <ele>756.8</ele>
        <time>2022-05-21 17:41:08</time>
      </trkpt>
      <trkpt lat="42.3673" lon="2.6544">
        <ele>757</ele>
        <time>2022-05-21 17:41:09</time>
      </trkpt>
      <trkpt lat="42.36729" lon="2.65442">
        <ele>757.2</ele>
        <time>2022-05-21 17:41:10</time>
      </trkpt>
      <trkpt lat="42.36728" lon="2.65444">
        <ele>757.2</ele>
        <time>2022-05-21 17:41:11</time>
      </trkpt>
      <trkpt lat="42.36726" lon="2.65447">
        <ele>757.4</ele>
        <time>2022-05-21 17:41:12</time>
      </trkpt>
      <trkpt lat="42.36725" lon="2.65449">
        <ele>757.6</ele>
        <time>2022-05-21 17:41:13</time>
      </trkpt>
      <trkpt lat="42.36724" lon="2.65451">
        <ele>757.6</ele>
        <time>2022-05-21 17:41:14</time>
      </trkpt>
      <trkpt lat="42.36723" lon="2.65454">
        <ele>757.8</ele>
        <time>2022-05-21 17:41:15</time>
      </trkpt>
      <trkpt lat="42.36722" lon="2.65456">
        <ele>757.8</ele>
        <time>2022-05-21 17:41:16</time>
      </trkpt>
      <trkpt lat="42.3672" lon="2.65458">
        <ele>758</ele>
        <time>2022-05-21 17:41:17</time>
      </trkpt>
      <trkpt lat="42.36719" lon="2.6546">
        <ele>758</ele>
        <time>2022-05-21 17:41:18</time>
      </trkpt>
      <trkpt lat="42.36717" lon="2.65462">
        <ele>758.2</ele>
        <time>2022-05-21 17:41:19</time>
      </trkpt>
      <trkpt lat="42.36716" lon="2.65464">
        <ele>758.4</ele>
        <time>2022-05-21 17:41:20</time>
      </trkpt>
      <trkpt lat="42.36714" lon="2.65466">
        <ele>758.6</ele>
        <time>2022-05-21 17:41:21</time>
      </trkpt>
      <trkpt lat="42.36713" lon="2.65468">
        <ele>758.6</ele>
        <time>2022-05-21 17:41:22</time>
      </trkpt>
      <trkpt lat="42.36711" lon="2.6547">
        <ele>758.8</ele>
        <time>2022-05-21 17:41:23</time>
      </trkpt>
      <trkpt lat="42.36709" lon="2.65472">
        <ele>758.8</ele>
        <time>2022-05-21 17:41:24</time>
      </trkpt>
      <trkpt lat="42.36708" lon="2.65473">
        <ele>759</ele>
        <time>2022-05-21 17:41:25</time>
      </trkpt>
      <trkpt lat="42.36706" lon="2.65475">
        <ele>759.2</ele>
        <time>2022-05-21 17:41:26</time>
      </trkpt>
      <trkpt lat="42.36705" lon="2.65477">
        <ele>759.2</ele>
        <time>2022-05-21 17:41:27</time>
      </trkpt>
      <trkpt lat="42.36703" lon="2.65479">
        <ele>759.4</ele>
        <time>2022-05-21 17:41:28</time>
      </trkpt>
      <trkpt lat="42.36702" lon="2.65481">
        <ele>759.4</ele>
        <time>2022-05-21 17:41:29</time>
      </trkpt>
      <trkpt lat="42.367" lon="2.65484">
        <ele>759.6</ele>
        <time>2022-05-21 17:41:30</time>
      </trkpt>
      <trkpt lat="42.36699" lon="2.65486">
        <ele>759.8</ele>
        <time>2022-05-21 17:41:31</time>
      </trkpt>
      <trkpt lat="42.36697" lon="2.65489">
        <ele>759.8</ele>
        <time>2022-05-21 17:41:32</time>
      </trkpt>
      <trkpt lat="42.36695" lon="2.65491">
        <ele>760</ele>
        <time>2022-05-21 17:41:33</time>
      </trkpt>
      <trkpt lat="42.36693" lon="2.65494">
        <ele>760.2</ele>
        <time>2022-05-21 17:41:34</time>
      </trkpt>
      <trkpt lat="42.36691" lon="2.65496">
        <ele>760.4</ele>
        <time>2022-05-21 17:41:35</time>
      </trkpt>
      <trkpt lat="42.36689" lon="2.65498">
        <ele>760.4</ele>
        <time>2022-05-21 17:41:36</time>
      </trkpt>
      <trkpt lat="42.36688" lon="2.655">
        <ele>760.6</ele>
        <time>2022-05-21 17:41:37</time>
      </trkpt>
      <trkpt lat="42.36686" lon="2.65502">
        <ele>760.8</ele>
        <time>2022-05-21 17:41:38</time>
      </trkpt>
      <trkpt lat="42.36685" lon="2.65505">
        <ele>761</ele>
        <time>2022-05-21 17:41:39</time>
      </trkpt>
      <trkpt lat="42.36683" lon="2.65507">
        <ele>761</ele>
        <time>2022-05-21 17:41:40</time>
      </trkpt>
      <trkpt lat="42.36681" lon="2.65509">
        <ele>761.2</ele>
        <time>2022-05-21 17:41:41</time>
      </trkpt>
      <trkpt lat="42.3668" lon="2.65511">
        <ele>761.4</ele>
        <time>2022-05-21 17:41:42</time>
      </trkpt>
      <trkpt lat="42.36678" lon="2.65513">
        <ele>761.6</ele>
        <time>2022-05-21 17:41:43</time>
      </trkpt>
      <trkpt lat="42.36676" lon="2.65515">
        <ele>761.6</ele>
        <time>2022-05-21 17:41:44</time>
      </trkpt>
      <trkpt lat="42.36675" lon="2.65517">
        <ele>761.8</ele>
        <time>2022-05-21 17:41:45</time>
      </trkpt>
      <trkpt lat="42.36674" lon="2.65519">
        <ele>762</ele>
        <time>2022-05-21 17:41:46</time>
      </trkpt>
      <trkpt lat="42.36672" lon="2.65521">
        <ele>762.2</ele>
        <time>2022-05-21 17:41:47</time>
      </trkpt>
      <trkpt lat="42.3667" lon="2.65524">
        <ele>762.2</ele>
        <time>2022-05-21 17:41:48</time>
      </trkpt>
      <trkpt lat="42.36669" lon="2.65526">
        <ele>762.4</ele>
        <time>2022-05-21 17:41:49</time>
      </trkpt>
      <trkpt lat="42.36667" lon="2.65529">
        <ele>762.4</ele>
        <time>2022-05-21 17:41:50</time>
      </trkpt>
      <trkpt lat="42.36666" lon="2.65531">
        <ele>762.6</ele>
        <time>2022-05-21 17:41:51</time>
      </trkpt>
      <trkpt lat="42.36664" lon="2.65534">
        <ele>762.6</ele>
        <time>2022-05-21 17:41:52</time>
      </trkpt>
      <trkpt lat="42.36663" lon="2.65536">
        <ele>762.8</ele>
        <time>2022-05-21 17:41:53</time>
      </trkpt>
      <trkpt lat="42.36661" lon="2.65539">
        <ele>763</ele>
        <time>2022-05-21 17:41:54</time>
      </trkpt>
      <trkpt lat="42.3666" lon="2.65541">
        <ele>763</ele>
        <time>2022-05-21 17:41:55</time>
      </trkpt>
      <trkpt lat="42.36659" lon="2.65543">
        <ele>763.2</ele>
        <time>2022-05-21 17:41:56</time>
      </trkpt>
      <trkpt lat="42.36657" lon="2.65546">
        <ele>763.4</ele>
        <time>2022-05-21 17:41:57</time>
      </trkpt>
      <trkpt lat="42.36656" lon="2.65549">
        <ele>763.4</ele>
        <time>2022-05-21 17:41:58</time>
      </trkpt>
      <trkpt lat="42.36655" lon="2.65552">
        <ele>763.6</ele>
        <time>2022-05-21 17:41:59</time>
      </trkpt>
      <trkpt lat="42.36653" lon="2.65554">
        <ele>763.6</ele>
        <time>2022-05-21 17:42:00</time>
      </trkpt>
      <trkpt lat="42.36652" lon="2.65557">
        <ele>763.8</ele>
        <time>2022-05-21 17:42:01</time>
      </trkpt>
      <trkpt lat="42.36651" lon="2.6556">
        <ele>763.8</ele>
        <time>2022-05-21 17:42:02</time>
      </trkpt>
      <trkpt lat="42.3665" lon="2.65563">
        <ele>764</ele>
        <time>2022-05-21 17:42:03</time>
      </trkpt>
      <trkpt lat="42.36649" lon="2.65566">
        <ele>764</ele>
        <time>2022-05-21 17:42:04</time>
      </trkpt>
      <trkpt lat="42.36648" lon="2.65569">
        <ele>764.2</ele>
        <time>2022-05-21 17:42:05</time>
      </trkpt>
      <trkpt lat="42.36646" lon="2.65572">
        <ele>764.2</ele>
        <time>2022-05-21 17:42:06</time>
      </trkpt>
      <trkpt lat="42.36645" lon="2.65575">
        <ele>764.4</ele>
        <time>2022-05-21 17:42:07</time>
      </trkpt>
      <trkpt lat="42.36643" lon="2.65579">
        <ele>764.4</ele>
        <time>2022-05-21 17:42:08</time>
      </trkpt>
      <trkpt lat="42.36642" lon="2.65582">
        <ele>764.6</ele>
        <time>2022-05-21 17:42:09</time>
      </trkpt>
      <trkpt lat="42.36641" lon="2.65585">
        <ele>764.6</ele>
        <time>2022-05-21 17:42:10</time>
      </trkpt>
      <trkpt lat="42.3664" lon="2.65588">
        <ele>764.8</ele>
        <time>2022-05-21 17:42:11</time>
      </trkpt>
      <trkpt lat="42.36638" lon="2.65591">
        <ele>764.8</ele>
        <time>2022-05-21 17:42:12</time>
      </trkpt>
      <trkpt lat="42.36637" lon="2.65595">
        <ele>765</ele>
        <time>2022-05-21 17:42:13</time>
      </trkpt>
      <trkpt lat="42.36636" lon="2.65598">
        <ele>765</ele>
        <time>2022-05-21 17:42:14</time>
      </trkpt>
      <trkpt lat="42.36635" lon="2.65601">
        <ele>765</ele>
        <time>2022-05-21 17:42:15</time>
      </trkpt>
      <trkpt lat="42.36634" lon="2.65605">
        <ele>765.2</ele>
        <time>2022-05-21 17:42:16</time>
      </trkpt>
      <trkpt lat="42.36632" lon="2.65608">
        <ele>765.2</ele>
        <time>2022-05-21 17:42:17</time>
      </trkpt>
      <trkpt lat="42.36631" lon="2.65612">
        <ele>765.4</ele>
        <time>2022-05-21 17:42:18</time>
      </trkpt>
      <trkpt lat="42.3663" lon="2.65615">
        <ele>765.4</ele>
        <time>2022-05-21 17:42:19</time>
      </trkpt>
      <trkpt lat="42.36628" lon="2.65619">
        <ele>765.6</ele>
        <time>2022-05-21 17:42:20</time>
      </trkpt>
      <trkpt lat="42.36627" lon="2.65622">
        <ele>765.6</ele>
        <time>2022-05-21 17:42:21</time>
      </trkpt>
      <trkpt lat="42.36625" lon="2.65626">
        <ele>765.6</ele>
        <time>2022-05-21 17:42:22</time>
      </trkpt>
      <trkpt lat="42.36623" lon="2.65629">
        <ele>765.8</ele>
        <time>2022-05-21 17:42:23</time>
      </trkpt>
      <trkpt lat="42.36622" lon="2.65633">
        <ele>765.8</ele>
        <time>2022-05-21 17:42:24</time>
      </trkpt>
      <trkpt lat="42.3662" lon="2.65637">
        <ele>766</ele>
        <time>2022-05-21 17:42:25</time>
      </trkpt>
      <trkpt lat="42.36618" lon="2.6564">
        <ele>766</ele>
        <time>2022-05-21 17:42:26</time>
      </trkpt>
      <trkpt lat="42.36616" lon="2.65644">
        <ele>766</ele>
        <time>2022-05-21 17:42:27</time>
      </trkpt>
      <trkpt lat="42.36614" lon="2.65648">
        <ele>766.2</ele>
        <time>2022-05-21 17:42:28</time>
      </trkpt>
      <trkpt lat="42.36613" lon="2.65651">
        <ele>766.4</ele>
        <time>2022-05-21 17:42:29</time>
      </trkpt>
      <trkpt lat="42.36611" lon="2.65655">
        <ele>766.4</ele>
        <time>2022-05-21 17:42:30</time>
      </trkpt>
      <trkpt lat="42.36609" lon="2.65659">
        <ele>766.6</ele>
        <time>2022-05-21 17:42:31</time>
      </trkpt>
      <trkpt lat="42.36607" lon="2.65663">
        <ele>766.6</ele>
        <time>2022-05-21 17:42:32</time>
      </trkpt>
      <trkpt lat="42.36606" lon="2.65668">
        <ele>766.8</ele>
        <time>2022-05-21 17:42:33</time>
      </trkpt>
      <trkpt lat="42.36605" lon="2.65672">
        <ele>767</ele>
        <time>2022-05-21 17:42:34</time>
      </trkpt>
      <trkpt lat="42.36603" lon="2.65675">
        <ele>767.2</ele>
        <time>2022-05-21 17:42:35</time>
      </trkpt>
      <trkpt lat="42.36602" lon="2.65679">
        <ele>767.4</ele>
        <time>2022-05-21 17:42:36</time>
      </trkpt>
      <trkpt lat="42.36601" lon="2.65683">
        <ele>767.6</ele>
        <time>2022-05-21 17:42:37</time>
      </trkpt>
      <trkpt lat="42.36599" lon="2.65687">
        <ele>767.8</ele>
        <time>2022-05-21 17:42:38</time>
      </trkpt>
      <trkpt lat="42.36598" lon="2.6569">
        <ele>768</ele>
        <time>2022-05-21 17:42:39</time>
      </trkpt>
      <trkpt lat="42.36596" lon="2.65694">
        <ele>768.2</ele>
        <time>2022-05-21 17:42:40</time>
      </trkpt>
      <trkpt lat="42.36595" lon="2.65698">
        <ele>768.6</ele>
        <time>2022-05-21 17:42:41</time>
      </trkpt>
      <trkpt lat="42.36594" lon="2.65702">
        <ele>768.8</ele>
        <time>2022-05-21 17:42:42</time>
      </trkpt>
      <trkpt lat="42.36592" lon="2.65705">
        <ele>769</ele>
        <time>2022-05-21 17:42:43</time>
      </trkpt>
      <trkpt lat="42.36591" lon="2.65708">
        <ele>769.2</ele>
        <time>2022-05-21 17:42:44</time>
      </trkpt>
      <trkpt lat="42.36589" lon="2.65711">
        <ele>769.4</ele>
        <time>2022-05-21 17:42:45</time>
      </trkpt>
      <trkpt lat="42.36587" lon="2.65713">
        <ele>769.8</ele>
        <time>2022-05-21 17:42:46</time>
      </trkpt>
      <trkpt lat="42.36585" lon="2.65716">
        <ele>770</ele>
        <time>2022-05-21 17:42:47</time>
      </trkpt>
      <trkpt lat="42.36583" lon="2.65719">
        <ele>770.2</ele>
        <time>2022-05-21 17:42:48</time>
      </trkpt>
      <trkpt lat="42.3658" lon="2.65721">
        <ele>770.4</ele>
        <time>2022-05-21 17:42:49</time>
      </trkpt>
      <trkpt lat="42.36578" lon="2.65723">
        <ele>770.6</ele>
        <time>2022-05-21 17:42:50</time>
      </trkpt>
      <trkpt lat="42.36576" lon="2.65725">
        <ele>770.8</ele>
        <time>2022-05-21 17:42:51</time>
      </trkpt>
      <trkpt lat="42.36574" lon="2.65727">
        <ele>771</ele>
        <time>2022-05-21 17:42:52</time>
      </trkpt>
      <trkpt lat="42.36572" lon="2.65729">
        <ele>771.4</ele>
        <time>2022-05-21 17:42:53</time>
      </trkpt>
      <trkpt lat="42.3657" lon="2.65731">
        <ele>771.6</ele>
        <time>2022-05-21 17:42:54</time>
      </trkpt>
      <trkpt lat="42.36568" lon="2.65732">
        <ele>771.6</ele>
        <time>2022-05-21 17:42:55</time>
      </trkpt>
      <trkpt lat="42.36566" lon="2.65732">
        <ele>771.8</ele>
        <time>2022-05-21 17:42:56</time>
      </trkpt>
      <trkpt lat="42.36564" lon="2.65733">
        <ele>772</ele>
        <time>2022-05-21 17:42:57</time>
      </trkpt>
      <trkpt lat="42.36562" lon="2.65734">
        <ele>772.2</ele>
        <time>2022-05-21 17:42:58</time>
      </trkpt>
      <trkpt lat="42.3656" lon="2.65735">
        <ele>772.4</ele>
        <time>2022-05-21 17:42:59</time>
      </trkpt>
      <trkpt lat="42.36558" lon="2.65736">
        <ele>772.6</ele>
        <time>2022-05-21 17:43:00</time>
      </trkpt>
      <trkpt lat="42.36556" lon="2.65736">
        <ele>772.8</ele>
        <time>2022-05-21 17:43:01</time>
      </trkpt>
      <trkpt lat="42.36554" lon="2.65737">
        <ele>773</ele>
        <time>2022-05-21 17:43:02</time>
      </trkpt>
      <trkpt lat="42.36552" lon="2.65737">
        <ele>773.2</ele>
        <time>2022-05-21 17:43:03</time>
      </trkpt>
      <trkpt lat="42.3655" lon="2.65737">
        <ele>773.2</ele>
        <time>2022-05-21 17:43:04</time>
      </trkpt>
      <trkpt lat="42.36548" lon="2.65737">
        <ele>773.4</ele>
        <time>2022-05-21 17:43:05</time>
      </trkpt>
      <trkpt lat="42.36546" lon="2.65737">
        <ele>773.6</ele>
        <time>2022-05-21 17:43:06</time>
      </trkpt>
      <trkpt lat="42.36544" lon="2.65736">
        <ele>773.8</ele>
        <time>2022-05-21 17:43:07</time>
      </trkpt>
      <trkpt lat="42.36543" lon="2.65736">
        <ele>773.8</ele>
        <time>2022-05-21 17:43:08</time>
      </trkpt>
      <trkpt lat="42.36541" lon="2.65736">
        <ele>774</ele>
        <time>2022-05-21 17:43:09</time>
      </trkpt>
      <trkpt lat="42.36539" lon="2.65736">
        <ele>774.2</ele>
        <time>2022-05-21 17:43:10</time>
      </trkpt>
      <trkpt lat="42.36537" lon="2.65737">
        <ele>774.2</ele>
        <time>2022-05-21 17:43:11</time>
      </trkpt>
      <trkpt lat="42.36535" lon="2.65736">
        <ele>774.4</ele>
        <time>2022-05-21 17:43:12</time>
      </trkpt>
      <trkpt lat="42.36533" lon="2.65735">
        <ele>774.6</ele>
        <time>2022-05-21 17:43:13</time>
      </trkpt>
      <trkpt lat="42.36531" lon="2.65735">
        <ele>774.8</ele>
        <time>2022-05-21 17:43:14</time>
      </trkpt>
      <trkpt lat="42.36529" lon="2.65735">
        <ele>774.8</ele>
        <time>2022-05-21 17:43:15</time>
      </trkpt>
      <trkpt lat="42.36527" lon="2.65735">
        <ele>775</ele>
        <time>2022-05-21 17:43:16</time>
      </trkpt>
      <trkpt lat="42.36525" lon="2.65736">
        <ele>775.2</ele>
        <time>2022-05-21 17:43:17</time>
      </trkpt>
      <trkpt lat="42.36523" lon="2.65736">
        <ele>775.4</ele>
        <time>2022-05-21 17:43:18</time>
      </trkpt>
      <trkpt lat="42.3652" lon="2.65737">
        <ele>775.6</ele>
        <time>2022-05-21 17:43:19</time>
      </trkpt>
      <trkpt lat="42.36518" lon="2.65738">
        <ele>775.6</ele>
        <time>2022-05-21 17:43:20</time>
      </trkpt>
      <trkpt lat="42.36516" lon="2.65738">
        <ele>775.8</ele>
        <time>2022-05-21 17:43:21</time>
      </trkpt>
      <trkpt lat="42.36514" lon="2.65739">
        <ele>776</ele>
        <time>2022-05-21 17:43:22</time>
      </trkpt>
      <trkpt lat="42.36512" lon="2.65739">
        <ele>776</ele>
        <time>2022-05-21 17:43:23</time>
      </trkpt>
      <trkpt lat="42.3651" lon="2.6574">
        <ele>776.2</ele>
        <time>2022-05-21 17:43:24</time>
      </trkpt>
      <trkpt lat="42.36508" lon="2.65741">
        <ele>776.4</ele>
        <time>2022-05-21 17:43:25</time>
      </trkpt>
      <trkpt lat="42.36506" lon="2.65743">
        <ele>776.6</ele>
        <time>2022-05-21 17:43:26</time>
      </trkpt>
      <trkpt lat="42.36504" lon="2.65744">
        <ele>776.8</ele>
        <time>2022-05-21 17:43:27</time>
      </trkpt>
      <trkpt lat="42.36502" lon="2.65745">
        <ele>776.8</ele>
        <time>2022-05-21 17:43:28</time>
      </trkpt>
      <trkpt lat="42.365" lon="2.65747">
        <ele>777</ele>
        <time>2022-05-21 17:43:29</time>
      </trkpt>
      <trkpt lat="42.36499" lon="2.65748">
        <ele>777.2</ele>
        <time>2022-05-21 17:43:30</time>
      </trkpt>
      <trkpt lat="42.36497" lon="2.6575">
        <ele>777.4</ele>
        <time>2022-05-21 17:43:31</time>
      </trkpt>
      <trkpt lat="42.36495" lon="2.65752">
        <ele>777.6</ele>
        <time>2022-05-21 17:43:32</time>
      </trkpt>
      <trkpt lat="42.36493" lon="2.65754">
        <ele>777.6</ele>
        <time>2022-05-21 17:43:33</time>
      </trkpt>
      <trkpt lat="42.36492" lon="2.65756">
        <ele>777.8</ele>
        <time>2022-05-21 17:43:34</time>
      </trkpt>
      <trkpt lat="42.3649" lon="2.65757">
        <ele>778</ele>
        <time>2022-05-21 17:43:35</time>
      </trkpt>
      <trkpt lat="42.36489" lon="2.65759">
        <ele>778.2</ele>
        <time>2022-05-21 17:43:36</time>
      </trkpt>
      <trkpt lat="42.36488" lon="2.65761">
        <ele>778.4</ele>
        <time>2022-05-21 17:43:37</time>
      </trkpt>
      <trkpt lat="42.36486" lon="2.65763">
        <ele>778.6</ele>
        <time>2022-05-21 17:43:38</time>
      </trkpt>
      <trkpt lat="42.36485" lon="2.65764">
        <ele>778.8</ele>
        <time>2022-05-21 17:43:39</time>
      </trkpt>
      <trkpt lat="42.36483" lon="2.65766">
        <ele>778.8</ele>
        <time>2022-05-21 17:43:40</time>
      </trkpt>
      <trkpt lat="42.36482" lon="2.65768">
        <ele>779</ele>
        <time>2022-05-21 17:43:41</time>
      </trkpt>
      <trkpt lat="42.36481" lon="2.65769">
        <ele>779.2</ele>
        <time>2022-05-21 17:43:42</time>
      </trkpt>
      <trkpt lat="42.36479" lon="2.65771">
        <ele>779.4</ele>
        <time>2022-05-21 17:43:43</time>
      </trkpt>
      <trkpt lat="42.36478" lon="2.65772">
        <ele>779.6</ele>
        <time>2022-05-21 17:43:44</time>
      </trkpt>
      <trkpt lat="42.36476" lon="2.65774">
        <ele>779.8</ele>
        <time>2022-05-21 17:43:45</time>
      </trkpt>
      <trkpt lat="42.36475" lon="2.65775">
        <ele>780</ele>
        <time>2022-05-21 17:43:46</time>
      </trkpt>
      <trkpt lat="42.36473" lon="2.65776">
        <ele>780</ele>
        <time>2022-05-21 17:43:47</time>
      </trkpt>
      <trkpt lat="42.36472" lon="2.65778">
        <ele>780.2</ele>
        <time>2022-05-21 17:43:48</time>
      </trkpt>
      <trkpt lat="42.3647" lon="2.65779">
        <ele>780.4</ele>
        <time>2022-05-21 17:43:49</time>
      </trkpt>
      <trkpt lat="42.36469" lon="2.6578">
        <ele>780.6</ele>
        <time>2022-05-21 17:43:50</time>
      </trkpt>
      <trkpt lat="42.36467" lon="2.65782">
        <ele>780.8</ele>
        <time>2022-05-21 17:43:51</time>
      </trkpt>
      <trkpt lat="42.36465" lon="2.65783">
        <ele>781</ele>
        <time>2022-05-21 17:43:52</time>
      </trkpt>
      <trkpt lat="42.36463" lon="2.65784">
        <ele>781</ele>
        <time>2022-05-21 17:43:53</time>
      </trkpt>
      <trkpt lat="42.36462" lon="2.65786">
        <ele>781.2</ele>
        <time>2022-05-21 17:43:54</time>
      </trkpt>
      <trkpt lat="42.3646" lon="2.65787">
        <ele>781.4</ele>
        <time>2022-05-21 17:43:55</time>
      </trkpt>
      <trkpt lat="42.36459" lon="2.65789">
        <ele>781.6</ele>
        <time>2022-05-21 17:43:56</time>
      </trkpt>
      <trkpt lat="42.36458" lon="2.6579">
        <ele>781.8</ele>
        <time>2022-05-21 17:43:57</time>
      </trkpt>
      <trkpt lat="42.36456" lon="2.65792">
        <ele>782</ele>
        <time>2022-05-21 17:43:58</time>
      </trkpt>
      <trkpt lat="42.36454" lon="2.65793">
        <ele>782.2</ele>
        <time>2022-05-21 17:43:59</time>
      </trkpt>
      <trkpt lat="42.36452" lon="2.65795">
        <ele>782.4</ele>
        <time>2022-05-21 17:44:00</time>
      </trkpt>
      <trkpt lat="42.3645" lon="2.65797">
        <ele>782.4</ele>
        <time>2022-05-21 17:44:01</time>
      </trkpt>
      <trkpt lat="42.36449" lon="2.65798">
        <ele>782.6</ele>
        <time>2022-05-21 17:44:02</time>
      </trkpt>
      <trkpt lat="42.36447" lon="2.658">
        <ele>782.8</ele>
        <time>2022-05-21 17:44:03</time>
      </trkpt>
      <trkpt lat="42.36445" lon="2.65801">
        <ele>783</ele>
        <time>2022-05-21 17:44:04</time>
      </trkpt>
      <trkpt lat="42.36443" lon="2.65802">
        <ele>783</ele>
        <time>2022-05-21 17:44:05</time>
      </trkpt>
      <trkpt lat="42.36441" lon="2.65803">
        <ele>783.2</ele>
        <time>2022-05-21 17:44:06</time>
      </trkpt>
      <trkpt lat="42.3644" lon="2.65804">
        <ele>783.4</ele>
        <time>2022-05-21 17:44:07</time>
      </trkpt>
      <trkpt lat="42.36438" lon="2.65806">
        <ele>783.6</ele>
        <time>2022-05-21 17:44:08</time>
      </trkpt>
      <trkpt lat="42.36437" lon="2.65807">
        <ele>783.6</ele>
        <time>2022-05-21 17:44:09</time>
      </trkpt>
      <trkpt lat="42.36435" lon="2.65809">
        <ele>783.8</ele>
        <time>2022-05-21 17:44:10</time>
      </trkpt>
      <trkpt lat="42.36433" lon="2.6581">
        <ele>784</ele>
        <time>2022-05-21 17:44:11</time>
      </trkpt>
      <trkpt lat="42.36431" lon="2.65812">
        <ele>784.2</ele>
        <time>2022-05-21 17:44:12</time>
      </trkpt>
      <trkpt lat="42.36429" lon="2.65813">
        <ele>784.4</ele>
        <time>2022-05-21 17:44:13</time>
      </trkpt>
      <trkpt lat="42.36427" lon="2.65815">
        <ele>784.4</ele>
        <time>2022-05-21 17:44:14</time>
      </trkpt>
      <trkpt lat="42.36425" lon="2.65816">
        <ele>784.6</ele>
        <time>2022-05-21 17:44:15</time>
      </trkpt>
      <trkpt lat="42.36424" lon="2.65817">
        <ele>784.8</ele>
        <time>2022-05-21 17:44:16</time>
      </trkpt>
      <trkpt lat="42.36422" lon="2.65819">
        <ele>785</ele>
        <time>2022-05-21 17:44:17</time>
      </trkpt>
      <trkpt lat="42.3642" lon="2.6582">
        <ele>785.2</ele>
        <time>2022-05-21 17:44:18</time>
      </trkpt>
      <trkpt lat="42.36418" lon="2.65821">
        <ele>785.4</ele>
        <time>2022-05-21 17:44:19</time>
      </trkpt>
      <trkpt lat="42.36416" lon="2.65822">
        <ele>785.4</ele>
        <time>2022-05-21 17:44:20</time>
      </trkpt>
      <trkpt lat="42.36414" lon="2.65824">
        <ele>785.6</ele>
        <time>2022-05-21 17:44:21</time>
      </trkpt>
      <trkpt lat="42.36412" lon="2.65825">
        <ele>785.8</ele>
        <time>2022-05-21 17:44:22</time>
      </trkpt>
      <trkpt lat="42.3641" lon="2.65826">
        <ele>786</ele>
        <time>2022-05-21 17:44:23</time>
      </trkpt>
      <trkpt lat="42.36409" lon="2.65827">
        <ele>786.2</ele>
        <time>2022-05-21 17:44:24</time>
      </trkpt>
      <trkpt lat="42.36406" lon="2.65827">
        <ele>786.4</ele>
        <time>2022-05-21 17:44:25</time>
      </trkpt>
      <trkpt lat="42.36404" lon="2.65827">
        <ele>786.6</ele>
        <time>2022-05-21 17:44:26</time>
      </trkpt>
      <trkpt lat="42.36403" lon="2.65825">
        <ele>786.8</ele>
        <time>2022-05-21 17:44:27</time>
      </trkpt>
      <trkpt lat="42.36401" lon="2.65824">
        <ele>787</ele>
        <time>2022-05-21 17:44:28</time>
      </trkpt>
      <trkpt lat="42.364" lon="2.65822">
        <ele>787.2</ele>
        <time>2022-05-21 17:44:29</time>
      </trkpt>
      <trkpt lat="42.364" lon="2.65819">
        <ele>787.6</ele>
        <time>2022-05-21 17:44:30</time>
      </trkpt>
      <trkpt lat="42.36399" lon="2.65817">
        <ele>787.8</ele>
        <time>2022-05-21 17:44:31</time>
      </trkpt>
      <trkpt lat="42.364" lon="2.65814">
        <ele>787.8</ele>
        <time>2022-05-21 17:44:32</time>
      </trkpt>
      <trkpt lat="42.364" lon="2.65812">
        <ele>788</ele>
        <time>2022-05-21 17:44:33</time>
      </trkpt>
      <trkpt lat="42.36402" lon="2.6581">
        <ele>788.2</ele>
        <time>2022-05-21 17:44:34</time>
      </trkpt>
      <trkpt lat="42.36404" lon="2.65808">
        <ele>788.4</ele>
        <time>2022-05-21 17:44:35</time>
      </trkpt>
      <trkpt lat="42.36406" lon="2.65807">
        <ele>788.6</ele>
        <time>2022-05-21 17:44:36</time>
      </trkpt>
      <trkpt lat="42.36407" lon="2.65806">
        <ele>788.8</ele>
        <time>2022-05-21 17:44:37</time>
      </trkpt>
      <trkpt lat="42.36409" lon="2.65805">
        <ele>789</ele>
        <time>2022-05-21 17:44:38</time>
      </trkpt>
      <trkpt lat="42.36411" lon="2.65804">
        <ele>789</ele>
        <time>2022-05-21 17:44:39</time>
      </trkpt>
      <trkpt lat="42.36413" lon="2.65803">
        <ele>789.2</ele>
        <time>2022-05-21 17:44:40</time>
      </trkpt>
      <trkpt lat="42.36415" lon="2.65802">
        <ele>789.4</ele>
        <time>2022-05-21 17:44:41</time>
      </trkpt>
      <trkpt lat="42.36417" lon="2.65801">
        <ele>789.6</ele>
        <time>2022-05-21 17:44:42</time>
      </trkpt>
      <trkpt lat="42.36419" lon="2.658">
        <ele>789.6</ele>
        <time>2022-05-21 17:44:43</time>
      </trkpt>
      <trkpt lat="42.36421" lon="2.65799">
        <ele>789.8</ele>
        <time>2022-05-21 17:44:44</time>
      </trkpt>
      <trkpt lat="42.36423" lon="2.65798">
        <ele>790</ele>
        <time>2022-05-21 17:44:45</time>
      </trkpt>
      <trkpt lat="42.36425" lon="2.65796">
        <ele>790.2</ele>
        <time>2022-05-21 17:44:46</time>
      </trkpt>
      <trkpt lat="42.36427" lon="2.65795">
        <ele>790.2</ele>
        <time>2022-05-21 17:44:47</time>
      </trkpt>
      <trkpt lat="42.36429" lon="2.65794">
        <ele>790.4</ele>
        <time>2022-05-21 17:44:48</time>
      </trkpt>
      <trkpt lat="42.36432" lon="2.65792">
        <ele>790.6</ele>
        <time>2022-05-21 17:44:49</time>
      </trkpt>
      <trkpt lat="42.36434" lon="2.65791">
        <ele>790.6</ele>
        <time>2022-05-21 17:44:50</time>
      </trkpt>
      <trkpt lat="42.36435" lon="2.65789">
        <ele>790.8</ele>
        <time>2022-05-21 17:44:51</time>
      </trkpt>
      <trkpt lat="42.36437" lon="2.65788">
        <ele>791</ele>
        <time>2022-05-21 17:44:52</time>
      </trkpt>
      <trkpt lat="42.36439" lon="2.65786">
        <ele>791</ele>
        <time>2022-05-21 17:44:53</time>
      </trkpt>
      <trkpt lat="42.36441" lon="2.65784">
        <ele>791.2</ele>
        <time>2022-05-21 17:44:54</time>
      </trkpt>
      <trkpt lat="42.36443" lon="2.65782">
        <ele>791.4</ele>
        <time>2022-05-21 17:44:55</time>
      </trkpt>
      <trkpt lat="42.36445" lon="2.6578">
        <ele>791.4</ele>
        <time>2022-05-21 17:44:56</time>
      </trkpt>
      <trkpt lat="42.36446" lon="2.65778">
        <ele>791.6</ele>
        <time>2022-05-21 17:44:57</time>
      </trkpt>
      <trkpt lat="42.36448" lon="2.65776">
        <ele>791.8</ele>
        <time>2022-05-21 17:44:58</time>
      </trkpt>
      <trkpt lat="42.36449" lon="2.65774">
        <ele>791.8</ele>
        <time>2022-05-21 17:44:59</time>
      </trkpt>
      <trkpt lat="42.36451" lon="2.65772">
        <ele>792</ele>
        <time>2022-05-21 17:45:00</time>
      </trkpt>
      <trkpt lat="42.36453" lon="2.6577">
        <ele>792.2</ele>
        <time>2022-05-21 17:45:01</time>
      </trkpt>
      <trkpt lat="42.36455" lon="2.65768">
        <ele>792.2</ele>
        <time>2022-05-21 17:45:02</time>
      </trkpt>
      <trkpt lat="42.36456" lon="2.65765">
        <ele>792.4</ele>
        <time>2022-05-21 17:45:03</time>
      </trkpt>
      <trkpt lat="42.36457" lon="2.65763">
        <ele>792.6</ele>
        <time>2022-05-21 17:45:04</time>
      </trkpt>
      <trkpt lat="42.36459" lon="2.65761">
        <ele>792.6</ele>
        <time>2022-05-21 17:45:05</time>
      </trkpt>
      <trkpt lat="42.3646" lon="2.65758">
        <ele>792.8</ele>
        <time>2022-05-21 17:45:06</time>
      </trkpt>
      <trkpt lat="42.36461" lon="2.65756">
        <ele>793</ele>
        <time>2022-05-21 17:45:07</time>
      </trkpt>
      <trkpt lat="42.36463" lon="2.65753">
        <ele>793.2</ele>
        <time>2022-05-21 17:45:08</time>
      </trkpt>
      <trkpt lat="42.36464" lon="2.65751">
        <ele>793.2</ele>
        <time>2022-05-21 17:45:09</time>
      </trkpt>
      <trkpt lat="42.36465" lon="2.65748">
        <ele>793.4</ele>
        <time>2022-05-21 17:45:10</time>
      </trkpt>
      <trkpt lat="42.36466" lon="2.65745">
        <ele>793.6</ele>
        <time>2022-05-21 17:45:11</time>
      </trkpt>
      <trkpt lat="42.36467" lon="2.65743">
        <ele>793.6</ele>
        <time>2022-05-21 17:45:12</time>
      </trkpt>
      <trkpt lat="42.36468" lon="2.6574">
        <ele>793.8</ele>
        <time>2022-05-21 17:45:13</time>
      </trkpt>
      <trkpt lat="42.3647" lon="2.65738">
        <ele>794</ele>
        <time>2022-05-21 17:45:14</time>
      </trkpt>
      <trkpt lat="42.36471" lon="2.65735">
        <ele>794.2</ele>
        <time>2022-05-21 17:45:15</time>
      </trkpt>
      <trkpt lat="42.36473" lon="2.65733">
        <ele>794.2</ele>
        <time>2022-05-21 17:45:16</time>
      </trkpt>
      <trkpt lat="42.36474" lon="2.65731">
        <ele>794.4</ele>
        <time>2022-05-21 17:45:17</time>
      </trkpt>
      <trkpt lat="42.36476" lon="2.65729">
        <ele>794.6</ele>
        <time>2022-05-21 17:45:18</time>
      </trkpt>
      <trkpt lat="42.36477" lon="2.65726">
        <ele>794.6</ele>
        <time>2022-05-21 17:45:19</time>
      </trkpt>
      <trkpt lat="42.36478" lon="2.65724">
        <ele>794.8</ele>
        <time>2022-05-21 17:45:20</time>
      </trkpt>
      <trkpt lat="42.3648" lon="2.65722">
        <ele>795</ele>
        <time>2022-05-21 17:45:21</time>
      </trkpt>
      <trkpt lat="42.36482" lon="2.65719">
        <ele>795.2</ele>
        <time>2022-05-21 17:45:22</time>
      </trkpt>
      <trkpt lat="42.36483" lon="2.65717">
        <ele>795.2</ele>
        <time>2022-05-21 17:45:23</time>
      </trkpt>
      <trkpt lat="42.36485" lon="2.65715">
        <ele>795.4</ele>
        <time>2022-05-21 17:45:24</time>
      </trkpt>
      <trkpt lat="42.36486" lon="2.65714">
        <ele>795.6</ele>
        <time>2022-05-21 17:45:25</time>
      </trkpt>
      <trkpt lat="42.36488" lon="2.65713">
        <ele>795.6</ele>
        <time>2022-05-21 17:45:26</time>
      </trkpt>
      <trkpt lat="42.3649" lon="2.65711">
        <ele>795.8</ele>
        <time>2022-05-21 17:45:27</time>
      </trkpt>
      <trkpt lat="42.36492" lon="2.6571">
        <ele>796</ele>
        <time>2022-05-21 17:45:28</time>
      </trkpt>
      <trkpt lat="42.36494" lon="2.65709">
        <ele>796</ele>
        <time>2022-05-21 17:45:29</time>
      </trkpt>
      <trkpt lat="42.36496" lon="2.65707">
        <ele>796.2</ele>
        <time>2022-05-21 17:45:30</time>
      </trkpt>
      <trkpt lat="42.36498" lon="2.65706">
        <ele>796.4</ele>
        <time>2022-05-21 17:45:31</time>
      </trkpt>
      <trkpt lat="42.365" lon="2.65705">
        <ele>796.4</ele>
        <time>2022-05-21 17:45:32</time>
      </trkpt>
      <trkpt lat="42.36501" lon="2.65704">
        <ele>796.6</ele>
        <time>2022-05-21 17:45:33</time>
      </trkpt>
      <trkpt lat="42.36503" lon="2.65703">
        <ele>796.6</ele>
        <time>2022-05-21 17:45:34</time>
      </trkpt>
      <trkpt lat="42.36506" lon="2.65701">
        <ele>796.8</ele>
        <time>2022-05-21 17:45:35</time>
      </trkpt>
      <trkpt lat="42.36508" lon="2.657">
        <ele>797</ele>
        <time>2022-05-21 17:45:36</time>
      </trkpt>
      <trkpt lat="42.36509" lon="2.65698">
        <ele>797.2</ele>
        <time>2022-05-21 17:45:37</time>
      </trkpt>
      <trkpt lat="42.36511" lon="2.65697">
        <ele>797.2</ele>
        <time>2022-05-21 17:45:38</time>
      </trkpt>
      <trkpt lat="42.36513" lon="2.65695">
        <ele>797.4</ele>
        <time>2022-05-21 17:45:39</time>
      </trkpt>
      <trkpt lat="42.36515" lon="2.65693">
        <ele>797.6</ele>
        <time>2022-05-21 17:45:40</time>
      </trkpt>
      <trkpt lat="42.36516" lon="2.65692">
        <ele>797.6</ele>
        <time>2022-05-21 17:45:41</time>
      </trkpt>
      <trkpt lat="42.36518" lon="2.6569">
        <ele>797.8</ele>
        <time>2022-05-21 17:45:42</time>
      </trkpt>
      <trkpt lat="42.3652" lon="2.65688">
        <ele>798</ele>
        <time>2022-05-21 17:45:43</time>
      </trkpt>
      <trkpt lat="42.36523" lon="2.65686">
        <ele>798</ele>
        <time>2022-05-21 17:45:44</time>
      </trkpt>
      <trkpt lat="42.36525" lon="2.65684">
        <ele>798.2</ele>
        <time>2022-05-21 17:45:45</time>
      </trkpt>
      <trkpt lat="42.36527" lon="2.65681">
        <ele>798.4</ele>
        <time>2022-05-21 17:45:46</time>
      </trkpt>
      <trkpt lat="42.36529" lon="2.65679">
        <ele>798.6</ele>
        <time>2022-05-21 17:45:47</time>
      </trkpt>
      <trkpt lat="42.3653" lon="2.65677">
        <ele>798.6</ele>
        <time>2022-05-21 17:45:48</time>
      </trkpt>
      <trkpt lat="42.36532" lon="2.65674">
        <ele>798.8</ele>
        <time>2022-05-21 17:45:49</time>
      </trkpt>
      <trkpt lat="42.36534" lon="2.65672">
        <ele>799</ele>
        <time>2022-05-21 17:45:50</time>
      </trkpt>
      <trkpt lat="42.36535" lon="2.65669">
        <ele>799.2</ele>
        <time>2022-05-21 17:45:51</time>
      </trkpt>
      <trkpt lat="42.36537" lon="2.65666">
        <ele>799.4</ele>
        <time>2022-05-21 17:45:52</time>
      </trkpt>
      <trkpt lat="42.36539" lon="2.65664">
        <ele>799.6</ele>
        <time>2022-05-21 17:45:53</time>
      </trkpt>
      <trkpt lat="42.36541" lon="2.65661">
        <ele>799.8</ele>
        <time>2022-05-21 17:45:54</time>
      </trkpt>
      <trkpt lat="42.36542" lon="2.65658">
        <ele>800</ele>
        <time>2022-05-21 17:45:55</time>
      </trkpt>
      <trkpt lat="42.36544" lon="2.65655">
        <ele>800.2</ele>
        <time>2022-05-21 17:45:56</time>
      </trkpt>
      <trkpt lat="42.36545" lon="2.65652">
        <ele>800.2</ele>
        <time>2022-05-21 17:45:57</time>
      </trkpt>
      <trkpt lat="42.36546" lon="2.65649">
        <ele>800.4</ele>
        <time>2022-05-21 17:45:58</time>
      </trkpt>
      <trkpt lat="42.36547" lon="2.65646">
        <ele>800.6</ele>
        <time>2022-05-21 17:45:59</time>
      </trkpt>
      <trkpt lat="42.36547" lon="2.65643">
        <ele>800.8</ele>
        <time>2022-05-21 17:46:00</time>
      </trkpt>
      <trkpt lat="42.36547" lon="2.6564">
        <ele>801</ele>
        <time>2022-05-21 17:46:01</time>
      </trkpt>
      <trkpt lat="42.36548" lon="2.65637">
        <ele>801.2</ele>
        <time>2022-05-21 17:46:02</time>
      </trkpt>
      <trkpt lat="42.36548" lon="2.65634">
        <ele>801.2</ele>
        <time>2022-05-21 17:46:03</time>
      </trkpt>
      <trkpt lat="42.36548" lon="2.65631">
        <ele>801.4</ele>
        <time>2022-05-21 17:46:04</time>
      </trkpt>
      <trkpt lat="42.36549" lon="2.65628">
        <ele>801.6</ele>
        <time>2022-05-21 17:46:05</time>
      </trkpt>
      <trkpt lat="42.3655" lon="2.65625">
        <ele>801.6</ele>
        <time>2022-05-21 17:46:06</time>
      </trkpt>
      <trkpt lat="42.3655" lon="2.65622">
        <ele>801.8</ele>
        <time>2022-05-21 17:46:07</time>
      </trkpt>
      <trkpt lat="42.3655" lon="2.65619">
        <ele>802</ele>
        <time>2022-05-21 17:46:08</time>
      </trkpt>
      <trkpt lat="42.3655" lon="2.65616">
        <ele>802</ele>
        <time>2022-05-21 17:46:09</time>
      </trkpt>
      <trkpt lat="42.36551" lon="2.65613">
        <ele>802.2</ele>
        <time>2022-05-21 17:46:10</time>
      </trkpt>
      <trkpt lat="42.36551" lon="2.6561">
        <ele>802.4</ele>
        <time>2022-05-21 17:46:11</time>
      </trkpt>
      <trkpt lat="42.36551" lon="2.65607">
        <ele>802.4</ele>
        <time>2022-05-21 17:46:12</time>
      </trkpt>
      <trkpt lat="42.36551" lon="2.65604">
        <ele>802.6</ele>
        <time>2022-05-21 17:46:13</time>
      </trkpt>
      <trkpt lat="42.36551" lon="2.65601">
        <ele>802.8</ele>
        <time>2022-05-21 17:46:14</time>
      </trkpt>
      <trkpt lat="42.36552" lon="2.65598">
        <ele>802.8</ele>
        <time>2022-05-21 17:46:15</time>
      </trkpt>
      <trkpt lat="42.36553" lon="2.65595">
        <ele>803</ele>
        <time>2022-05-21 17:46:16</time>
      </trkpt>
      <trkpt lat="42.36554" lon="2.65592">
        <ele>803.2</ele>
        <time>2022-05-21 17:46:17</time>
      </trkpt>
      <trkpt lat="42.36555" lon="2.65589">
        <ele>803.2</ele>
        <time>2022-05-21 17:46:18</time>
      </trkpt>
      <trkpt lat="42.36556" lon="2.65586">
        <ele>803.4</ele>
        <time>2022-05-21 17:46:19</time>
      </trkpt>
      <trkpt lat="42.36558" lon="2.65583">
        <ele>803.6</ele>
        <time>2022-05-21 17:46:20</time>
      </trkpt>
      <trkpt lat="42.36559" lon="2.6558">
        <ele>803.8</ele>
        <time>2022-05-21 17:46:21</time>
      </trkpt>
      <trkpt lat="42.36561" lon="2.65577">
        <ele>803.8</ele>
        <time>2022-05-21 17:46:22</time>
      </trkpt>
      <trkpt lat="42.36563" lon="2.65575">
        <ele>804</ele>
        <time>2022-05-21 17:46:23</time>
      </trkpt>
      <trkpt lat="42.36566" lon="2.65572">
        <ele>804.2</ele>
        <time>2022-05-21 17:46:24</time>
      </trkpt>
      <trkpt lat="42.36568" lon="2.6557">
        <ele>804.4</ele>
        <time>2022-05-21 17:46:25</time>
      </trkpt>
      <trkpt lat="42.3657" lon="2.65567">
        <ele>804.4</ele>
        <time>2022-05-21 17:46:26</time>
      </trkpt>
      <trkpt lat="42.36572" lon="2.65565">
        <ele>804.6</ele>
        <time>2022-05-21 17:46:27</time>
      </trkpt>
      <trkpt lat="42.36574" lon="2.65562">
        <ele>804.8</ele>
        <time>2022-05-21 17:46:28</time>
      </trkpt>
      <trkpt lat="42.36575" lon="2.6556">
        <ele>805</ele>
        <time>2022-05-21 17:46:29</time>
      </trkpt>
      <trkpt lat="42.36577" lon="2.65558">
        <ele>805.2</ele>
        <time>2022-05-21 17:46:30</time>
      </trkpt>
      <trkpt lat="42.36578" lon="2.65555">
        <ele>805.4</ele>
        <time>2022-05-21 17:46:31</time>
      </trkpt>
      <trkpt lat="42.3658" lon="2.65553">
        <ele>805.6</ele>
        <time>2022-05-21 17:46:32</time>
      </trkpt>
      <trkpt lat="42.36581" lon="2.65551">
        <ele>805.6</ele>
        <time>2022-05-21 17:46:33</time>
      </trkpt>
      <trkpt lat="42.36582" lon="2.65548">
        <ele>805.8</ele>
        <time>2022-05-21 17:46:34</time>
      </trkpt>
      <trkpt lat="42.36583" lon="2.65545">
        <ele>806</ele>
        <time>2022-05-21 17:46:35</time>
      </trkpt>
      <trkpt lat="42.36584" lon="2.65543">
        <ele>806.2</ele>
        <time>2022-05-21 17:46:36</time>
      </trkpt>
      <trkpt lat="42.36585" lon="2.6554">
        <ele>806.4</ele>
        <time>2022-05-21 17:46:37</time>
      </trkpt>
      <trkpt lat="42.36585" lon="2.65537">
        <ele>806.6</ele>
        <time>2022-05-21 17:46:38</time>
      </trkpt>
      <trkpt lat="42.36586" lon="2.65534">
        <ele>806.6</ele>
        <time>2022-05-21 17:46:39</time>
      </trkpt>
      <trkpt lat="42.36586" lon="2.65531">
        <ele>806.8</ele>
        <time>2022-05-21 17:46:40</time>
      </trkpt>
      <trkpt lat="42.36587" lon="2.65528">
        <ele>807</ele>
        <time>2022-05-21 17:46:41</time>
      </trkpt>
      <trkpt lat="42.36589" lon="2.65525">
        <ele>807</ele>
        <time>2022-05-21 17:46:42</time>
      </trkpt>
      <trkpt lat="42.36589" lon="2.65522">
        <ele>807.2</ele>
        <time>2022-05-21 17:46:43</time>
      </trkpt>
      <trkpt lat="42.3659" lon="2.6552">
        <ele>807.4</ele>
        <time>2022-05-21 17:46:44</time>
      </trkpt>
      <trkpt lat="42.36591" lon="2.65518">
        <ele>807.4</ele>
        <time>2022-05-21 17:46:45</time>
      </trkpt>
      <trkpt lat="42.36592" lon="2.65513">
        <ele>807.6</ele>
        <time>2022-05-21 17:46:46</time>
      </trkpt>
      <trkpt lat="42.36593" lon="2.6551">
        <ele>807.8</ele>
        <time>2022-05-21 17:46:47</time>
      </trkpt>
      <trkpt lat="42.36594" lon="2.65507">
        <ele>808</ele>
        <time>2022-05-21 17:46:48</time>
      </trkpt>
      <trkpt lat="42.36595" lon="2.65504">
        <ele>808</ele>
        <time>2022-05-21 17:46:49</time>
      </trkpt>
      <trkpt lat="42.36595" lon="2.65501">
        <ele>808.2</ele>
        <time>2022-05-21 17:46:50</time>
      </trkpt>
      <trkpt lat="42.36596" lon="2.65498">
        <ele>808.4</ele>
        <time>2022-05-21 17:46:51</time>
      </trkpt>
      <trkpt lat="42.36596" lon="2.65496">
        <ele>808.4</ele>
        <time>2022-05-21 17:46:52</time>
      </trkpt>
      <trkpt lat="42.36598" lon="2.65491">
        <ele>808.6</ele>
        <time>2022-05-21 17:46:53</time>
      </trkpt>
      <trkpt lat="42.36599" lon="2.65488">
        <ele>808.8</ele>
        <time>2022-05-21 17:46:54</time>
      </trkpt>
      <trkpt lat="42.36601" lon="2.65485">
        <ele>809</ele>
        <time>2022-05-21 17:46:55</time>
      </trkpt>
      <trkpt lat="42.36602" lon="2.65483">
        <ele>809.2</ele>
        <time>2022-05-21 17:46:56</time>
      </trkpt>
      <trkpt lat="42.36603" lon="2.6548">
        <ele>809.2</ele>
        <time>2022-05-21 17:46:57</time>
      </trkpt>
      <trkpt lat="42.36604" lon="2.65477">
        <ele>809.4</ele>
        <time>2022-05-21 17:46:58</time>
      </trkpt>
      <trkpt lat="42.36605" lon="2.65474">
        <ele>809.6</ele>
        <time>2022-05-21 17:46:59</time>
      </trkpt>
      <trkpt lat="42.36605" lon="2.65471">
        <ele>809.8</ele>
        <time>2022-05-21 17:47:00</time>
      </trkpt>
      <trkpt lat="42.36606" lon="2.65468">
        <ele>809.8</ele>
        <time>2022-05-21 17:47:01</time>
      </trkpt>
      <trkpt lat="42.36607" lon="2.65465">
        <ele>810</ele>
        <time>2022-05-21 17:47:02</time>
      </trkpt>
      <trkpt lat="42.36608" lon="2.65463">
        <ele>810.2</ele>
        <time>2022-05-21 17:47:03</time>
      </trkpt>
      <trkpt lat="42.36608" lon="2.6546">
        <ele>810.2</ele>
        <time>2022-05-21 17:47:04</time>
      </trkpt>
      <trkpt lat="42.36609" lon="2.65457">
        <ele>810.4</ele>
        <time>2022-05-21 17:47:05</time>
      </trkpt>
      <trkpt lat="42.36611" lon="2.65454">
        <ele>810.4</ele>
        <time>2022-05-21 17:47:06</time>
      </trkpt>
      <trkpt lat="42.36612" lon="2.65451">
        <ele>810.6</ele>
        <time>2022-05-21 17:47:07</time>
      </trkpt>
      <trkpt lat="42.36612" lon="2.65448">
        <ele>810.6</ele>
        <time>2022-05-21 17:47:08</time>
      </trkpt>
      <trkpt lat="42.36614" lon="2.65445">
        <ele>810.8</ele>
        <time>2022-05-21 17:47:09</time>
      </trkpt>
      <trkpt lat="42.36615" lon="2.65442">
        <ele>811</ele>
        <time>2022-05-21 17:47:10</time>
      </trkpt>
      <trkpt lat="42.36615" lon="2.65439">
        <ele>811</ele>
        <time>2022-05-21 17:47:11</time>
      </trkpt>
      <trkpt lat="42.36616" lon="2.65436">
        <ele>811.2</ele>
        <time>2022-05-21 17:47:12</time>
      </trkpt>
      <trkpt lat="42.36617" lon="2.65432">
        <ele>811.4</ele>
        <time>2022-05-21 17:47:13</time>
      </trkpt>
      <trkpt lat="42.36618" lon="2.65429">
        <ele>811.4</ele>
        <time>2022-05-21 17:47:14</time>
      </trkpt>
      <trkpt lat="42.36619" lon="2.65426">
        <ele>811.6</ele>
        <time>2022-05-21 17:47:15</time>
      </trkpt>
      <trkpt lat="42.3662" lon="2.65423">
        <ele>811.8</ele>
        <time>2022-05-21 17:47:16</time>
      </trkpt>
      <trkpt lat="42.3662" lon="2.6542">
        <ele>811.8</ele>
        <time>2022-05-21 17:47:17</time>
      </trkpt>
      <trkpt lat="42.36621" lon="2.65417">
        <ele>812</ele>
        <time>2022-05-21 17:47:18</time>
      </trkpt>
      <trkpt lat="42.36622" lon="2.65413">
        <ele>812.2</ele>
        <time>2022-05-21 17:47:19</time>
      </trkpt>
      <trkpt lat="42.36623" lon="2.6541">
        <ele>812.2</ele>
        <time>2022-05-21 17:47:20</time>
      </trkpt>
      <trkpt lat="42.36624" lon="2.65406">
        <ele>812.4</ele>
        <time>2022-05-21 17:47:21</time>
      </trkpt>
      <trkpt lat="42.36625" lon="2.65403">
        <ele>812.6</ele>
        <time>2022-05-21 17:47:22</time>
      </trkpt>
      <trkpt lat="42.36627" lon="2.654">
        <ele>812.6</ele>
        <time>2022-05-21 17:47:23</time>
      </trkpt>
      <trkpt lat="42.36628" lon="2.65396">
        <ele>812.8</ele>
        <time>2022-05-21 17:47:24</time>
      </trkpt>
      <trkpt lat="42.36629" lon="2.65393">
        <ele>812.8</ele>
        <time>2022-05-21 17:47:25</time>
      </trkpt>
      <trkpt lat="42.36629" lon="2.6539">
        <ele>813</ele>
        <time>2022-05-21 17:47:26</time>
      </trkpt>
      <trkpt lat="42.3663" lon="2.65387">
        <ele>813.2</ele>
        <time>2022-05-21 17:47:27</time>
      </trkpt>
      <trkpt lat="42.36631" lon="2.65384">
        <ele>813.4</ele>
        <time>2022-05-21 17:47:28</time>
      </trkpt>
      <trkpt lat="42.36631" lon="2.65381">
        <ele>813.6</ele>
        <time>2022-05-21 17:47:29</time>
      </trkpt>
      <trkpt lat="42.36632" lon="2.65378">
        <ele>813.6</ele>
        <time>2022-05-21 17:47:30</time>
      </trkpt>
      <trkpt lat="42.36632" lon="2.65375">
        <ele>813.8</ele>
        <time>2022-05-21 17:47:31</time>
      </trkpt>
      <trkpt lat="42.36633" lon="2.65372">
        <ele>814</ele>
        <time>2022-05-21 17:47:32</time>
      </trkpt>
      <trkpt lat="42.36634" lon="2.65369">
        <ele>814.2</ele>
        <time>2022-05-21 17:47:33</time>
      </trkpt>
      <trkpt lat="42.36634" lon="2.65366">
        <ele>814.4</ele>
        <time>2022-05-21 17:47:34</time>
      </trkpt>
      <trkpt lat="42.36635" lon="2.65363">
        <ele>814.4</ele>
        <time>2022-05-21 17:47:35</time>
      </trkpt>
      <trkpt lat="42.36636" lon="2.6536">
        <ele>814.6</ele>
        <time>2022-05-21 17:47:36</time>
      </trkpt>
      <trkpt lat="42.36637" lon="2.65357">
        <ele>814.8</ele>
        <time>2022-05-21 17:47:37</time>
      </trkpt>
      <trkpt lat="42.36637" lon="2.65355">
        <ele>815</ele>
        <time>2022-05-21 17:47:38</time>
      </trkpt>
      <trkpt lat="42.36638" lon="2.65352">
        <ele>815.2</ele>
        <time>2022-05-21 17:47:39</time>
      </trkpt>
      <trkpt lat="42.36638" lon="2.65349">
        <ele>815.4</ele>
        <time>2022-05-21 17:47:40</time>
      </trkpt>
      <trkpt lat="42.36638" lon="2.65346">
        <ele>815.4</ele>
        <time>2022-05-21 17:47:41</time>
      </trkpt>
      <trkpt lat="42.36638" lon="2.65342">
        <ele>815.6</ele>
        <time>2022-05-21 17:47:42</time>
      </trkpt>
      <trkpt lat="42.36638" lon="2.6534">
        <ele>815.8</ele>
        <time>2022-05-21 17:47:43</time>
      </trkpt>
      <trkpt lat="42.36638" lon="2.65338">
        <ele>816</ele>
        <time>2022-05-21 17:47:44</time>
      </trkpt>
      <trkpt lat="42.36638" lon="2.65332">
        <ele>816.2</ele>
        <time>2022-05-21 17:47:45</time>
      </trkpt>
      <trkpt lat="42.36638" lon="2.65329">
        <ele>816.2</ele>
        <time>2022-05-21 17:47:46</time>
      </trkpt>
      <trkpt lat="42.36639" lon="2.65325">
        <ele>816.4</ele>
        <time>2022-05-21 17:47:47</time>
      </trkpt>
      <trkpt lat="42.36639" lon="2.65322">
        <ele>816.6</ele>
        <time>2022-05-21 17:47:48</time>
      </trkpt>
      <trkpt lat="42.36639" lon="2.65318">
        <ele>816.6</ele>
        <time>2022-05-21 17:47:49</time>
      </trkpt>
      <trkpt lat="42.36638" lon="2.65315">
        <ele>816.8</ele>
        <time>2022-05-21 17:47:50</time>
      </trkpt>
      <trkpt lat="42.36638" lon="2.65311">
        <ele>817</ele>
        <time>2022-05-21 17:47:51</time>
      </trkpt>
      <trkpt lat="42.36638" lon="2.65307">
        <ele>817</ele>
        <time>2022-05-21 17:47:52</time>
      </trkpt>
      <trkpt lat="42.36638" lon="2.65304">
        <ele>817.2</ele>
        <time>2022-05-21 17:47:53</time>
      </trkpt>
      <trkpt lat="42.36638" lon="2.653">
        <ele>817.4</ele>
        <time>2022-05-21 17:47:54</time>
      </trkpt>
      <trkpt lat="42.36638" lon="2.65297">
        <ele>817.4</ele>
        <time>2022-05-21 17:47:55</time>
      </trkpt>
      <trkpt lat="42.36638" lon="2.65294">
        <ele>817.6</ele>
        <time>2022-05-21 17:47:56</time>
      </trkpt>
      <trkpt lat="42.36638" lon="2.65291">
        <ele>817.6</ele>
        <time>2022-05-21 17:47:57</time>
      </trkpt>
      <trkpt lat="42.36638" lon="2.65287">
        <ele>817.8</ele>
        <time>2022-05-21 17:47:58</time>
      </trkpt>
      <trkpt lat="42.36637" lon="2.65284">
        <ele>818</ele>
        <time>2022-05-21 17:47:59</time>
      </trkpt>
      <trkpt lat="42.36637" lon="2.6528">
        <ele>818</ele>
        <time>2022-05-21 17:48:00</time>
      </trkpt>
      <trkpt lat="42.36637" lon="2.65278">
        <ele>818.2</ele>
        <time>2022-05-21 17:48:01</time>
      </trkpt>
      <trkpt lat="42.36636" lon="2.65275">
        <ele>818.4</ele>
        <time>2022-05-21 17:48:02</time>
      </trkpt>
      <trkpt lat="42.36636" lon="2.65271">
        <ele>818.4</ele>
        <time>2022-05-21 17:48:03</time>
      </trkpt>
      <trkpt lat="42.36636" lon="2.65268">
        <ele>818.6</ele>
        <time>2022-05-21 17:48:04</time>
      </trkpt>
      <trkpt lat="42.36636" lon="2.65265">
        <ele>818.6</ele>
        <time>2022-05-21 17:48:05</time>
      </trkpt>
      <trkpt lat="42.36636" lon="2.65261">
        <ele>818.8</ele>
        <time>2022-05-21 17:48:06</time>
      </trkpt>
      <trkpt lat="42.36636" lon="2.65258">
        <ele>818.8</ele>
        <time>2022-05-21 17:48:07</time>
      </trkpt>
      <trkpt lat="42.36636" lon="2.65254">
        <ele>819</ele>
        <time>2022-05-21 17:48:08</time>
      </trkpt>
      <trkpt lat="42.36636" lon="2.6525">
        <ele>819</ele>
        <time>2022-05-21 17:48:09</time>
      </trkpt>
      <trkpt lat="42.36636" lon="2.65246">
        <ele>819.2</ele>
        <time>2022-05-21 17:48:10</time>
      </trkpt>
      <trkpt lat="42.36636" lon="2.65243">
        <ele>819.4</ele>
        <time>2022-05-21 17:48:11</time>
      </trkpt>
      <trkpt lat="42.36636" lon="2.65239">
        <ele>819.4</ele>
        <time>2022-05-21 17:48:12</time>
      </trkpt>
      <trkpt lat="42.36636" lon="2.65234">
        <ele>819.6</ele>
        <time>2022-05-21 17:48:13</time>
      </trkpt>
      <trkpt lat="42.36636" lon="2.6523">
        <ele>819.6</ele>
        <time>2022-05-21 17:48:14</time>
      </trkpt>
      <trkpt lat="42.36636" lon="2.65226">
        <ele>819.8</ele>
        <time>2022-05-21 17:48:15</time>
      </trkpt>
      <trkpt lat="42.36636" lon="2.65222">
        <ele>819.8</ele>
        <time>2022-05-21 17:48:16</time>
      </trkpt>
      <trkpt lat="42.36636" lon="2.65218">
        <ele>820</ele>
        <time>2022-05-21 17:48:17</time>
      </trkpt>
      <trkpt lat="42.36637" lon="2.65214">
        <ele>820</ele>
        <time>2022-05-21 17:48:18</time>
      </trkpt>
      <trkpt lat="42.36637" lon="2.65211">
        <ele>820.2</ele>
        <time>2022-05-21 17:48:19</time>
      </trkpt>
      <trkpt lat="42.36638" lon="2.65208">
        <ele>820.2</ele>
        <time>2022-05-21 17:48:20</time>
      </trkpt>
      <trkpt lat="42.36638" lon="2.65206">
        <ele>820.2</ele>
        <time>2022-05-21 17:48:21</time>
      </trkpt>
      <trkpt lat="42.36638" lon="2.65203">
        <ele>820.4</ele>
        <time>2022-05-21 17:48:22</time>
      </trkpt>
      <trkpt lat="42.36639" lon="2.652">
        <ele>820.4</ele>
        <time>2022-05-21 17:48:23</time>
      </trkpt>
      <trkpt lat="42.3664" lon="2.65198">
        <ele>820.4</ele>
        <time>2022-05-21 17:48:24</time>
      </trkpt>
      <trkpt lat="42.36641" lon="2.65194">
        <ele>820.4</ele>
        <time>2022-05-21 17:48:25</time>
      </trkpt>
      <trkpt lat="42.36642" lon="2.65191">
        <ele>820.4</ele>
        <time>2022-05-21 17:48:26</time>
      </trkpt>
      <trkpt lat="42.36643" lon="2.65187">
        <ele>820.4</ele>
        <time>2022-05-21 17:48:27</time>
      </trkpt>
      <trkpt lat="42.36644" lon="2.65182">
        <ele>820.4</ele>
        <time>2022-05-21 17:48:28</time>
      </trkpt>
      <trkpt lat="42.36646" lon="2.65178">
        <ele>820.4</ele>
        <time>2022-05-21 17:48:29</time>
      </trkpt>
      <trkpt lat="42.36647" lon="2.65173">
        <ele>820.4</ele>
        <time>2022-05-21 17:48:30</time>
      </trkpt>
      <trkpt lat="42.36648" lon="2.65169">
        <ele>820.4</ele>
        <time>2022-05-21 17:48:31</time>
      </trkpt>
      <trkpt lat="42.36649" lon="2.65164">
        <ele>820.4</ele>
        <time>2022-05-21 17:48:32</time>
      </trkpt>
      <trkpt lat="42.3665" lon="2.65161">
        <ele>820.4</ele>
        <time>2022-05-21 17:48:33</time>
      </trkpt>
      <trkpt lat="42.36651" lon="2.65157">
        <ele>820.4</ele>
        <time>2022-05-21 17:48:34</time>
      </trkpt>
      <trkpt lat="42.36653" lon="2.6515">
        <ele>820.4</ele>
        <time>2022-05-21 17:48:35</time>
      </trkpt>
      <trkpt lat="42.36654" lon="2.65146">
        <ele>820.2</ele>
        <time>2022-05-21 17:48:36</time>
      </trkpt>
      <trkpt lat="42.36655" lon="2.6514">
        <ele>820.2</ele>
        <time>2022-05-21 17:48:37</time>
      </trkpt>
      <trkpt lat="42.36657" lon="2.65135">
        <ele>820.2</ele>
        <time>2022-05-21 17:48:38</time>
      </trkpt>
      <trkpt lat="42.36659" lon="2.6513">
        <ele>820.2</ele>
        <time>2022-05-21 17:48:39</time>
      </trkpt>
      <trkpt lat="42.3666" lon="2.65124">
        <ele>820.2</ele>
        <time>2022-05-21 17:48:40</time>
      </trkpt>
      <trkpt lat="42.36662" lon="2.65119">
        <ele>820.2</ele>
        <time>2022-05-21 17:48:41</time>
      </trkpt>
      <trkpt lat="42.36664" lon="2.65113">
        <ele>820</ele>
        <time>2022-05-21 17:48:42</time>
      </trkpt>
      <trkpt lat="42.36665" lon="2.65107">
        <ele>820</ele>
        <time>2022-05-21 17:48:43</time>
      </trkpt>
      <trkpt lat="42.36666" lon="2.65101">
        <ele>820</ele>
        <time>2022-05-21 17:48:44</time>
      </trkpt>
      <trkpt lat="42.36668" lon="2.65096">
        <ele>819.8</ele>
        <time>2022-05-21 17:48:45</time>
      </trkpt>
      <trkpt lat="42.3667" lon="2.6509">
        <ele>819.8</ele>
        <time>2022-05-21 17:48:46</time>
      </trkpt>
      <trkpt lat="42.36671" lon="2.65084">
        <ele>819.8</ele>
        <time>2022-05-21 17:48:47</time>
      </trkpt>
      <trkpt lat="42.36673" lon="2.65079">
        <ele>819.8</ele>
        <time>2022-05-21 17:48:48</time>
      </trkpt>
      <trkpt lat="42.36674" lon="2.65074">
        <ele>819.8</ele>
        <time>2022-05-21 17:48:49</time>
      </trkpt>
      <trkpt lat="42.36675" lon="2.65068">
        <ele>819.8</ele>
        <time>2022-05-21 17:48:50</time>
      </trkpt>
      <trkpt lat="42.36677" lon="2.65063">
        <ele>819.8</ele>
        <time>2022-05-21 17:48:51</time>
      </trkpt>
      <trkpt lat="42.36679" lon="2.65058">
        <ele>819.8</ele>
        <time>2022-05-21 17:48:52</time>
      </trkpt>
      <trkpt lat="42.3668" lon="2.65053">
        <ele>819.8</ele>
        <time>2022-05-21 17:48:53</time>
      </trkpt>
      <trkpt lat="42.36681" lon="2.65048">
        <ele>819.8</ele>
        <time>2022-05-21 17:48:54</time>
      </trkpt>
      <trkpt lat="42.36682" lon="2.65043">
        <ele>819.8</ele>
        <time>2022-05-21 17:48:55</time>
      </trkpt>
      <trkpt lat="42.36684" lon="2.65037">
        <ele>819.6</ele>
        <time>2022-05-21 17:48:56</time>
      </trkpt>
      <trkpt lat="42.36686" lon="2.65031">
        <ele>819.6</ele>
        <time>2022-05-21 17:48:57</time>
      </trkpt>
      <trkpt lat="42.36687" lon="2.65026">
        <ele>819.6</ele>
        <time>2022-05-21 17:48:58</time>
      </trkpt>
      <trkpt lat="42.36689" lon="2.6502">
        <ele>819.6</ele>
        <time>2022-05-21 17:48:59</time>
      </trkpt>
      <trkpt lat="42.36691" lon="2.65014">
        <ele>819.4</ele>
        <time>2022-05-21 17:49:00</time>
      </trkpt>
      <trkpt lat="42.36693" lon="2.65008">
        <ele>819.4</ele>
        <time>2022-05-21 17:49:01</time>
      </trkpt>
      <trkpt lat="42.36696" lon="2.65002">
        <ele>819.2</ele>
        <time>2022-05-21 17:49:02</time>
      </trkpt>
      <trkpt lat="42.36698" lon="2.64996">
        <ele>819</ele>
        <time>2022-05-21 17:49:03</time>
      </trkpt>
      <trkpt lat="42.36701" lon="2.64989">
        <ele>818.8</ele>
        <time>2022-05-21 17:49:04</time>
      </trkpt>
      <trkpt lat="42.36703" lon="2.64983">
        <ele>818.4</ele>
        <time>2022-05-21 17:49:05</time>
      </trkpt>
      <trkpt lat="42.36706" lon="2.64976">
        <ele>818.2</ele>
        <time>2022-05-21 17:49:06</time>
      </trkpt>
      <trkpt lat="42.36709" lon="2.64969">
        <ele>817.8</ele>
        <time>2022-05-21 17:49:07</time>
      </trkpt>
      <trkpt lat="42.36712" lon="2.64962">
        <ele>817.6</ele>
        <time>2022-05-21 17:49:08</time>
      </trkpt>
      <trkpt lat="42.36715" lon="2.64955">
        <ele>817.4</ele>
        <time>2022-05-21 17:49:09</time>
      </trkpt>
      <trkpt lat="42.36718" lon="2.64948">
        <ele>817</ele>
        <time>2022-05-21 17:49:10</time>
      </trkpt>
      <trkpt lat="42.36722" lon="2.6494">
        <ele>816.6</ele>
        <time>2022-05-21 17:49:11</time>
      </trkpt>
      <trkpt lat="42.36725" lon="2.64932">
        <ele>816.2</ele>
        <time>2022-05-21 17:49:12</time>
      </trkpt>
      <trkpt lat="42.36729" lon="2.64923">
        <ele>815.8</ele>
        <time>2022-05-21 17:49:13</time>
      </trkpt>
      <trkpt lat="42.36733" lon="2.64914">
        <ele>815.4</ele>
        <time>2022-05-21 17:49:14</time>
      </trkpt>
      <trkpt lat="42.36736" lon="2.64906">
        <ele>815</ele>
        <time>2022-05-21 17:49:15</time>
      </trkpt>
      <trkpt lat="42.3674" lon="2.64898">
        <ele>814.8</ele>
        <time>2022-05-21 17:49:16</time>
      </trkpt>
      <trkpt lat="42.36744" lon="2.64889">
        <ele>814.6</ele>
        <time>2022-05-21 17:49:17</time>
      </trkpt>
      <trkpt lat="42.36748" lon="2.64881">
        <ele>814.4</ele>
        <time>2022-05-21 17:49:18</time>
      </trkpt>
      <trkpt lat="42.36753" lon="2.64874">
        <ele>814.2</ele>
        <time>2022-05-21 17:49:19</time>
      </trkpt>
      <trkpt lat="42.36757" lon="2.64867">
        <ele>814.2</ele>
        <time>2022-05-21 17:49:20</time>
      </trkpt>
      <trkpt lat="42.36762" lon="2.64859">
        <ele>814</ele>
        <time>2022-05-21 17:49:21</time>
      </trkpt>
      <trkpt lat="42.36767" lon="2.64851">
        <ele>813.8</ele>
        <time>2022-05-21 17:49:22</time>
      </trkpt>
      <trkpt lat="42.36771" lon="2.64843">
        <ele>813.4</ele>
        <time>2022-05-21 17:49:23</time>
      </trkpt>
      <trkpt lat="42.36775" lon="2.64834">
        <ele>813</ele>
        <time>2022-05-21 17:49:24</time>
      </trkpt>
      <trkpt lat="42.36779" lon="2.64824">
        <ele>812.4</ele>
        <time>2022-05-21 17:49:25</time>
      </trkpt>
      <trkpt lat="42.36783" lon="2.64814">
        <ele>812</ele>
        <time>2022-05-21 17:49:26</time>
      </trkpt>
      <trkpt lat="42.36788" lon="2.64803">
        <ele>811.4</ele>
        <time>2022-05-21 17:49:27</time>
      </trkpt>
      <trkpt lat="42.36792" lon="2.64792">
        <ele>810.8</ele>
        <time>2022-05-21 17:49:28</time>
      </trkpt>
      <trkpt lat="42.36796" lon="2.6478">
        <ele>810</ele>
        <time>2022-05-21 17:49:29</time>
      </trkpt>
      <trkpt lat="42.36798" lon="2.64767">
        <ele>809.4</ele>
        <time>2022-05-21 17:49:30</time>
      </trkpt>
      <trkpt lat="42.368" lon="2.64753">
        <ele>808.6</ele>
        <time>2022-05-21 17:49:31</time>
      </trkpt>
      <trkpt lat="42.36801" lon="2.64739">
        <ele>808</ele>
        <time>2022-05-21 17:49:32</time>
      </trkpt>
      <trkpt lat="42.36803" lon="2.64724">
        <ele>807.2</ele>
        <time>2022-05-21 17:49:33</time>
      </trkpt>
      <trkpt lat="42.36805" lon="2.6471">
        <ele>806.2</ele>
        <time>2022-05-21 17:49:34</time>
      </trkpt>
      <trkpt lat="42.36807" lon="2.64696">
        <ele>805.4</ele>
        <time>2022-05-21 17:49:35</time>
      </trkpt>
      <trkpt lat="42.36811" lon="2.64682">
        <ele>804.6</ele>
        <time>2022-05-21 17:49:36</time>
      </trkpt>
      <trkpt lat="42.36816" lon="2.64668">
        <ele>803.8</ele>
        <time>2022-05-21 17:49:37</time>
      </trkpt>
      <trkpt lat="42.36822" lon="2.64655">
        <ele>802.8</ele>
        <time>2022-05-21 17:49:38</time>
      </trkpt>
      <trkpt lat="42.3683" lon="2.64642">
        <ele>801.8</ele>
        <time>2022-05-21 17:49:39</time>
      </trkpt>
      <trkpt lat="42.36837" lon="2.64629">
        <ele>800.8</ele>
        <time>2022-05-21 17:49:40</time>
      </trkpt>
      <trkpt lat="42.36844" lon="2.64615">
        <ele>800</ele>
        <time>2022-05-21 17:49:41</time>
      </trkpt>
      <trkpt lat="42.36849" lon="2.64599">
        <ele>799</ele>
        <time>2022-05-21 17:49:42</time>
      </trkpt>
      <trkpt lat="42.36853" lon="2.64583">
        <ele>797.8</ele>
        <time>2022-05-21 17:49:43</time>
      </trkpt>
      <trkpt lat="42.36856" lon="2.64566">
        <ele>796.8</ele>
        <time>2022-05-21 17:49:44</time>
      </trkpt>
      <trkpt lat="42.36858" lon="2.64549">
        <ele>795.8</ele>
        <time>2022-05-21 17:49:45</time>
      </trkpt>
      <trkpt lat="42.36861" lon="2.64532">
        <ele>794.8</ele>
        <time>2022-05-21 17:49:46</time>
      </trkpt>
      <trkpt lat="42.36865" lon="2.64515">
        <ele>793.8</ele>
        <time>2022-05-21 17:49:47</time>
      </trkpt>
      <trkpt lat="42.36869" lon="2.64498">
        <ele>793</ele>
        <time>2022-05-21 17:49:48</time>
      </trkpt>
      <trkpt lat="42.36873" lon="2.64482">
        <ele>792</ele>
        <time>2022-05-21 17:49:49</time>
      </trkpt>
      <trkpt lat="42.36876" lon="2.64465">
        <ele>791</ele>
        <time>2022-05-21 17:49:50</time>
      </trkpt>
      <trkpt lat="42.36878" lon="2.64447">
        <ele>790</ele>
        <time>2022-05-21 17:49:51</time>
      </trkpt>
      <trkpt lat="42.36877" lon="2.64429">
        <ele>789</ele>
        <time>2022-05-21 17:49:52</time>
      </trkpt>
      <trkpt lat="42.36876" lon="2.6441">
        <ele>788</ele>
        <time>2022-05-21 17:49:53</time>
      </trkpt>
      <trkpt lat="42.36873" lon="2.64393">
        <ele>787</ele>
        <time>2022-05-21 17:49:54</time>
      </trkpt>
      <trkpt lat="42.36872" lon="2.64375">
        <ele>786</ele>
        <time>2022-05-21 17:49:55</time>
      </trkpt>
      <trkpt lat="42.36872" lon="2.64359">
        <ele>785</ele>
        <time>2022-05-21 17:49:56</time>
      </trkpt>
      <trkpt lat="42.36874" lon="2.64343">
        <ele>784.2</ele>
        <time>2022-05-21 17:49:57</time>
      </trkpt>
      <trkpt lat="42.36878" lon="2.64327">
        <ele>783</ele>
        <time>2022-05-21 17:49:58</time>
      </trkpt>
      <trkpt lat="42.36883" lon="2.64312">
        <ele>782.2</ele>
        <time>2022-05-21 17:49:59</time>
      </trkpt>
      <trkpt lat="42.36889" lon="2.64297">
        <ele>781.4</ele>
        <time>2022-05-21 17:50:00</time>
      </trkpt>
      <trkpt lat="42.36895" lon="2.64283">
        <ele>780.8</ele>
        <time>2022-05-21 17:50:01</time>
      </trkpt>
      <trkpt lat="42.36901" lon="2.6427">
        <ele>780</ele>
        <time>2022-05-21 17:50:02</time>
      </trkpt>
      <trkpt lat="42.36909" lon="2.6426">
        <ele>779.2</ele>
        <time>2022-05-21 17:50:03</time>
      </trkpt>
      <trkpt lat="42.36918" lon="2.64251">
        <ele>778.4</ele>
        <time>2022-05-21 17:50:04</time>
      </trkpt>
      <trkpt lat="42.36928" lon="2.64244">
        <ele>777.8</ele>
        <time>2022-05-21 17:50:05</time>
      </trkpt>
      <trkpt lat="42.36937" lon="2.64239">
        <ele>777.4</ele>
        <time>2022-05-21 17:50:06</time>
      </trkpt>
      <trkpt lat="42.36946" lon="2.64233">
        <ele>776.8</ele>
        <time>2022-05-21 17:50:07</time>
      </trkpt>
      <trkpt lat="42.36952" lon="2.64226">
        <ele>776.4</ele>
        <time>2022-05-21 17:50:08</time>
      </trkpt>
      <trkpt lat="42.36957" lon="2.64219">
        <ele>776</ele>
        <time>2022-05-21 17:50:09</time>
      </trkpt>
      <trkpt lat="42.3696" lon="2.64212">
        <ele>775.6</ele>
        <time>2022-05-21 17:50:10</time>
      </trkpt>
      <trkpt lat="42.3696" lon="2.64204">
        <ele>775.4</ele>
        <time>2022-05-21 17:50:11</time>
      </trkpt>
      <trkpt lat="42.36958" lon="2.64197">
        <ele>775</ele>
        <time>2022-05-21 17:50:12</time>
      </trkpt>
      <trkpt lat="42.36952" lon="2.64191">
        <ele>774.6</ele>
        <time>2022-05-21 17:50:13</time>
      </trkpt>
      <trkpt lat="42.36944" lon="2.64186">
        <ele>774.2</ele>
        <time>2022-05-21 17:50:14</time>
      </trkpt>
      <trkpt lat="42.36935" lon="2.64179">
        <ele>773.8</ele>
        <time>2022-05-21 17:50:15</time>
      </trkpt>
      <trkpt lat="42.36928" lon="2.64172">
        <ele>773.2</ele>
        <time>2022-05-21 17:50:16</time>
      </trkpt>
      <trkpt lat="42.3692" lon="2.64165">
        <ele>772.8</ele>
        <time>2022-05-21 17:50:17</time>
      </trkpt>
      <trkpt lat="42.36914" lon="2.64156">
        <ele>772.2</ele>
        <time>2022-05-21 17:50:18</time>
      </trkpt>
      <trkpt lat="42.36908" lon="2.64147">
        <ele>771.8</ele>
        <time>2022-05-21 17:50:19</time>
      </trkpt>
      <trkpt lat="42.36903" lon="2.64137">
        <ele>771.2</ele>
        <time>2022-05-21 17:50:20</time>
      </trkpt>
      <trkpt lat="42.36898" lon="2.64126">
        <ele>770.6</ele>
        <time>2022-05-21 17:50:21</time>
      </trkpt>
      <trkpt lat="42.36893" lon="2.64114">
        <ele>770</ele>
        <time>2022-05-21 17:50:22</time>
      </trkpt>
      <trkpt lat="42.36889" lon="2.64101">
        <ele>769.4</ele>
        <time>2022-05-21 17:50:23</time>
      </trkpt>
      <trkpt lat="42.36884" lon="2.64087">
        <ele>768.6</ele>
        <time>2022-05-21 17:50:24</time>
      </trkpt>
      <trkpt lat="42.36879" lon="2.64074">
        <ele>768</ele>
        <time>2022-05-21 17:50:25</time>
      </trkpt>
      <trkpt lat="42.36874" lon="2.64061">
        <ele>767.4</ele>
        <time>2022-05-21 17:50:26</time>
      </trkpt>
      <trkpt lat="42.3687" lon="2.64046">
        <ele>766.6</ele>
        <time>2022-05-21 17:50:27</time>
      </trkpt>
      <trkpt lat="42.36867" lon="2.64032">
        <ele>766</ele>
        <time>2022-05-21 17:50:28</time>
      </trkpt>
      <trkpt lat="42.36867" lon="2.64017">
        <ele>765.2</ele>
        <time>2022-05-21 17:50:29</time>
      </trkpt>
      <trkpt lat="42.36869" lon="2.64001">
        <ele>764.6</ele>
        <time>2022-05-21 17:50:30</time>
      </trkpt>
      <trkpt lat="42.3687" lon="2.63985">
        <ele>763.8</ele>
        <time>2022-05-21 17:50:31</time>
      </trkpt>
      <trkpt lat="42.36871" lon="2.63969">
        <ele>763.2</ele>
        <time>2022-05-21 17:50:32</time>
      </trkpt>
      <trkpt lat="42.36872" lon="2.63953">
        <ele>762.6</ele>
        <time>2022-05-21 17:50:33</time>
      </trkpt>
      <trkpt lat="42.36872" lon="2.63938">
        <ele>762</ele>
        <time>2022-05-21 17:50:34</time>
      </trkpt>
      <trkpt lat="42.36872" lon="2.63922">
        <ele>761.2</ele>
        <time>2022-05-21 17:50:35</time>
      </trkpt>
      <trkpt lat="42.3687" lon="2.63906">
        <ele>760.6</ele>
        <time>2022-05-21 17:50:36</time>
      </trkpt>
      <trkpt lat="42.36867" lon="2.63891">
        <ele>759.8</ele>
        <time>2022-05-21 17:50:37</time>
      </trkpt>
      <trkpt lat="42.36864" lon="2.63876">
        <ele>759.2</ele>
        <time>2022-05-21 17:50:38</time>
      </trkpt>
      <trkpt lat="42.36861" lon="2.63862">
        <ele>758.4</ele>
        <time>2022-05-21 17:50:39</time>
      </trkpt>
      <trkpt lat="42.36857" lon="2.63847">
        <ele>757.6</ele>
        <time>2022-05-21 17:50:40</time>
      </trkpt>
      <trkpt lat="42.36854" lon="2.6383">
        <ele>756.8</ele>
        <time>2022-05-21 17:50:41</time>
      </trkpt>
      <trkpt lat="42.36853" lon="2.63814">
        <ele>756.2</ele>
        <time>2022-05-21 17:50:42</time>
      </trkpt>
      <trkpt lat="42.36851" lon="2.63796">
        <ele>755.4</ele>
        <time>2022-05-21 17:50:43</time>
      </trkpt>
      <trkpt lat="42.36849" lon="2.63777">
        <ele>754.6</ele>
        <time>2022-05-21 17:50:44</time>
      </trkpt>
      <trkpt lat="42.36848" lon="2.63761">
        <ele>753.6</ele>
        <time>2022-05-21 17:50:45</time>
      </trkpt>
      <trkpt lat="42.36846" lon="2.63745">
        <ele>753</ele>
        <time>2022-05-21 17:50:46</time>
      </trkpt>
      <trkpt lat="42.36844" lon="2.63728">
        <ele>752.2</ele>
        <time>2022-05-21 17:50:47</time>
      </trkpt>
      <trkpt lat="42.36843" lon="2.63713">
        <ele>751.4</ele>
        <time>2022-05-21 17:50:48</time>
      </trkpt>
      <trkpt lat="42.36846" lon="2.63698">
        <ele>751</ele>
        <time>2022-05-21 17:50:49</time>
      </trkpt>
      <trkpt lat="42.36849" lon="2.63681">
        <ele>750.4</ele>
        <time>2022-05-21 17:50:50</time>
      </trkpt>
      <trkpt lat="42.36854" lon="2.63667">
        <ele>750</ele>
        <time>2022-05-21 17:50:51</time>
      </trkpt>
      <trkpt lat="42.36858" lon="2.63655">
        <ele>749.4</ele>
        <time>2022-05-21 17:50:52</time>
      </trkpt>
      <trkpt lat="42.36862" lon="2.63642">
        <ele>749</ele>
        <time>2022-05-21 17:50:53</time>
      </trkpt>
      <trkpt lat="42.36865" lon="2.63628">
        <ele>748.4</ele>
        <time>2022-05-21 17:50:54</time>
      </trkpt>
      <trkpt lat="42.36867" lon="2.63615">
        <ele>747.8</ele>
        <time>2022-05-21 17:50:55</time>
      </trkpt>
      <trkpt lat="42.36868" lon="2.636">
        <ele>747</ele>
        <time>2022-05-21 17:50:56</time>
      </trkpt>
      <trkpt lat="42.36867" lon="2.63585">
        <ele>746.4</ele>
        <time>2022-05-21 17:50:57</time>
      </trkpt>
      <trkpt lat="42.36866" lon="2.6357">
        <ele>745.8</ele>
        <time>2022-05-21 17:50:58</time>
      </trkpt>
      <trkpt lat="42.36865" lon="2.63555">
        <ele>745.2</ele>
        <time>2022-05-21 17:50:59</time>
      </trkpt>
      <trkpt lat="42.36864" lon="2.63539">
        <ele>744.6</ele>
        <time>2022-05-21 17:51:00</time>
      </trkpt>
      <trkpt lat="42.36863" lon="2.63524">
        <ele>744</ele>
        <time>2022-05-21 17:51:01</time>
      </trkpt>
      <trkpt lat="42.36864" lon="2.63508">
        <ele>743.4</ele>
        <time>2022-05-21 17:51:02</time>
      </trkpt>
      <trkpt lat="42.36864" lon="2.63491">
        <ele>742.8</ele>
        <time>2022-05-21 17:51:03</time>
      </trkpt>
      <trkpt lat="42.36866" lon="2.63475">
        <ele>742.2</ele>
        <time>2022-05-21 17:51:04</time>
      </trkpt>
      <trkpt lat="42.36869" lon="2.63461">
        <ele>741.6</ele>
        <time>2022-05-21 17:51:05</time>
      </trkpt>
      <trkpt lat="42.36873" lon="2.63446">
        <ele>741</ele>
        <time>2022-05-21 17:51:06</time>
      </trkpt>
      <trkpt lat="42.36876" lon="2.63431">
        <ele>740.2</ele>
        <time>2022-05-21 17:51:07</time>
      </trkpt>
      <trkpt lat="42.36878" lon="2.63416">
        <ele>739.6</ele>
        <time>2022-05-21 17:51:08</time>
      </trkpt>
      <trkpt lat="42.36881" lon="2.63401">
        <ele>739</ele>
        <time>2022-05-21 17:51:09</time>
      </trkpt>
      <trkpt lat="42.36883" lon="2.63386">
        <ele>738.4</ele>
        <time>2022-05-21 17:51:10</time>
      </trkpt>
      <trkpt lat="42.36886" lon="2.6337">
        <ele>737.8</ele>
        <time>2022-05-21 17:51:11</time>
      </trkpt>
      <trkpt lat="42.36887" lon="2.63355">
        <ele>737</ele>
        <time>2022-05-21 17:51:12</time>
      </trkpt>
      <trkpt lat="42.36888" lon="2.63339">
        <ele>736.4</ele>
        <time>2022-05-21 17:51:13</time>
      </trkpt>
      <trkpt lat="42.36889" lon="2.63323">
        <ele>735.8</ele>
        <time>2022-05-21 17:51:14</time>
      </trkpt>
      <trkpt lat="42.3689" lon="2.63307">
        <ele>735</ele>
        <time>2022-05-21 17:51:15</time>
      </trkpt>
      <trkpt lat="42.36891" lon="2.63292">
        <ele>734.2</ele>
        <time>2022-05-21 17:51:16</time>
      </trkpt>
      <trkpt lat="42.36893" lon="2.63276">
        <ele>733.6</ele>
        <time>2022-05-21 17:51:17</time>
      </trkpt>
      <trkpt lat="42.36896" lon="2.63261">
        <ele>733</ele>
        <time>2022-05-21 17:51:18</time>
      </trkpt>
      <trkpt lat="42.36898" lon="2.63245">
        <ele>732.4</ele>
        <time>2022-05-21 17:51:19</time>
      </trkpt>
      <trkpt lat="42.369" lon="2.63229">
        <ele>731.8</ele>
        <time>2022-05-21 17:51:20</time>
      </trkpt>
      <trkpt lat="42.36902" lon="2.63214">
        <ele>731.2</ele>
        <time>2022-05-21 17:51:21</time>
      </trkpt>
      <trkpt lat="42.36904" lon="2.63198">
        <ele>730.6</ele>
        <time>2022-05-21 17:51:22</time>
      </trkpt>
      <trkpt lat="42.36905" lon="2.63181">
        <ele>730</ele>
        <time>2022-05-21 17:51:23</time>
      </trkpt>
      <trkpt lat="42.36907" lon="2.63165">
        <ele>729.6</ele>
        <time>2022-05-21 17:51:24</time>
      </trkpt>
      <trkpt lat="42.36908" lon="2.6315">
        <ele>729</ele>
        <time>2022-05-21 17:51:25</time>
      </trkpt>
      <trkpt lat="42.36909" lon="2.63133">
        <ele>728.4</ele>
        <time>2022-05-21 17:51:26</time>
      </trkpt>
      <trkpt lat="42.36909" lon="2.63117">
        <ele>727.6</ele>
        <time>2022-05-21 17:51:27</time>
      </trkpt>
      <trkpt lat="42.36908" lon="2.63102">
        <ele>727</ele>
        <time>2022-05-21 17:51:28</time>
      </trkpt>
      <trkpt lat="42.36907" lon="2.63085">
        <ele>726.4</ele>
        <time>2022-05-21 17:51:29</time>
      </trkpt>
      <trkpt lat="42.36905" lon="2.63069">
        <ele>725.8</ele>
        <time>2022-05-21 17:51:30</time>
      </trkpt>
      <trkpt lat="42.36904" lon="2.63052">
        <ele>725.2</ele>
        <time>2022-05-21 17:51:31</time>
      </trkpt>
      <trkpt lat="42.36903" lon="2.63037">
        <ele>724.6</ele>
        <time>2022-05-21 17:51:32</time>
      </trkpt>
      <trkpt lat="42.36902" lon="2.63021">
        <ele>724</ele>
        <time>2022-05-21 17:51:33</time>
      </trkpt>
      <trkpt lat="42.36902" lon="2.63004">
        <ele>723.2</ele>
        <time>2022-05-21 17:51:34</time>
      </trkpt>
      <trkpt lat="42.36904" lon="2.62988">
        <ele>722.6</ele>
        <time>2022-05-21 17:51:35</time>
      </trkpt>
      <trkpt lat="42.36906" lon="2.62972">
        <ele>721.8</ele>
        <time>2022-05-21 17:51:36</time>
      </trkpt>
      <trkpt lat="42.36908" lon="2.62955">
        <ele>721.2</ele>
        <time>2022-05-21 17:51:37</time>
      </trkpt>
      <trkpt lat="42.3691" lon="2.62938">
        <ele>720.4</ele>
        <time>2022-05-21 17:51:38</time>
      </trkpt>
      <trkpt lat="42.36912" lon="2.62922">
        <ele>719.8</ele>
        <time>2022-05-21 17:51:39</time>
      </trkpt>
      <trkpt lat="42.36913" lon="2.62905">
        <ele>719.2</ele>
        <time>2022-05-21 17:51:40</time>
      </trkpt>
      <trkpt lat="42.36914" lon="2.62889">
        <ele>718.6</ele>
        <time>2022-05-21 17:51:41</time>
      </trkpt>
      <trkpt lat="42.36916" lon="2.62873">
        <ele>718.4</ele>
        <time>2022-05-21 17:51:42</time>
      </trkpt>
      <trkpt lat="42.36917" lon="2.62857">
        <ele>717.8</ele>
        <time>2022-05-21 17:51:43</time>
      </trkpt>
      <trkpt lat="42.36918" lon="2.62841">
        <ele>717.4</ele>
        <time>2022-05-21 17:51:44</time>
      </trkpt>
      <trkpt lat="42.36919" lon="2.62826">
        <ele>717</ele>
        <time>2022-05-21 17:51:45</time>
      </trkpt>
      <trkpt lat="42.36918" lon="2.6281">
        <ele>716.4</ele>
        <time>2022-05-21 17:51:46</time>
      </trkpt>
      <trkpt lat="42.36916" lon="2.62795">
        <ele>715.8</ele>
        <time>2022-05-21 17:51:47</time>
      </trkpt>
      <trkpt lat="42.36914" lon="2.6278">
        <ele>715.2</ele>
        <time>2022-05-21 17:51:48</time>
      </trkpt>
      <trkpt lat="42.36912" lon="2.62765">
        <ele>714.4</ele>
        <time>2022-05-21 17:51:49</time>
      </trkpt>
      <trkpt lat="42.36909" lon="2.62748">
        <ele>713.8</ele>
        <time>2022-05-21 17:51:50</time>
      </trkpt>
      <trkpt lat="42.36907" lon="2.62732">
        <ele>713</ele>
        <time>2022-05-21 17:51:51</time>
      </trkpt>
      <trkpt lat="42.36904" lon="2.62716">
        <ele>712.2</ele>
        <time>2022-05-21 17:51:52</time>
      </trkpt>
      <trkpt lat="42.36902" lon="2.62698">
        <ele>711.2</ele>
        <time>2022-05-21 17:51:53</time>
      </trkpt>
      <trkpt lat="42.369" lon="2.62682">
        <ele>710.4</ele>
        <time>2022-05-21 17:51:54</time>
      </trkpt>
      <trkpt lat="42.36898" lon="2.62666">
        <ele>709.6</ele>
        <time>2022-05-21 17:51:55</time>
      </trkpt>
      <trkpt lat="42.36899" lon="2.62648">
        <ele>709</ele>
        <time>2022-05-21 17:51:56</time>
      </trkpt>
      <trkpt lat="42.369" lon="2.62631">
        <ele>708.2</ele>
        <time>2022-05-21 17:51:57</time>
      </trkpt>
      <trkpt lat="42.36903" lon="2.62613">
        <ele>707.6</ele>
        <time>2022-05-21 17:51:58</time>
      </trkpt>
      <trkpt lat="42.36905" lon="2.62597">
        <ele>707</ele>
        <time>2022-05-21 17:51:59</time>
      </trkpt>
      <trkpt lat="42.36909" lon="2.6258">
        <ele>706.4</ele>
        <time>2022-05-21 17:52:00</time>
      </trkpt>
      <trkpt lat="42.36914" lon="2.62564">
        <ele>705.8</ele>
        <time>2022-05-21 17:52:01</time>
      </trkpt>
      <trkpt lat="42.3692" lon="2.62548">
        <ele>705.2</ele>
        <time>2022-05-21 17:52:02</time>
      </trkpt>
      <trkpt lat="42.36927" lon="2.62534">
        <ele>704.6</ele>
        <time>2022-05-21 17:52:03</time>
      </trkpt>
      <trkpt lat="42.36934" lon="2.62519">
        <ele>704</ele>
        <time>2022-05-21 17:52:04</time>
      </trkpt>
      <trkpt lat="42.36941" lon="2.62505">
        <ele>703.6</ele>
        <time>2022-05-21 17:52:05</time>
      </trkpt>
      <trkpt lat="42.36948" lon="2.62491">
        <ele>703</ele>
        <time>2022-05-21 17:52:06</time>
      </trkpt>
      <trkpt lat="42.36955" lon="2.62478">
        <ele>702.4</ele>
        <time>2022-05-21 17:52:07</time>
      </trkpt>
      <trkpt lat="42.36961" lon="2.62464">
        <ele>702</ele>
        <time>2022-05-21 17:52:08</time>
      </trkpt>
      <trkpt lat="42.36968" lon="2.62451">
        <ele>701.6</ele>
        <time>2022-05-21 17:52:09</time>
      </trkpt>
      <trkpt lat="42.36975" lon="2.62438">
        <ele>701.2</ele>
        <time>2022-05-21 17:52:10</time>
      </trkpt>
      <trkpt lat="42.36981" lon="2.62424">
        <ele>700.8</ele>
        <time>2022-05-21 17:52:11</time>
      </trkpt>
      <trkpt lat="42.36988" lon="2.62411">
        <ele>700.4</ele>
        <time>2022-05-21 17:52:12</time>
      </trkpt>
      <trkpt lat="42.36995" lon="2.62398">
        <ele>700</ele>
        <time>2022-05-21 17:52:13</time>
      </trkpt>
      <trkpt lat="42.37002" lon="2.62385">
        <ele>699.6</ele>
        <time>2022-05-21 17:52:14</time>
      </trkpt>
      <trkpt lat="42.37008" lon="2.62373">
        <ele>699.2</ele>
        <time>2022-05-21 17:52:15</time>
      </trkpt>
      <trkpt lat="42.37014" lon="2.6236">
        <ele>699</ele>
        <time>2022-05-21 17:52:16</time>
      </trkpt>
      <trkpt lat="42.37021" lon="2.62348">
        <ele>698.6</ele>
        <time>2022-05-21 17:52:17</time>
      </trkpt>
      <trkpt lat="42.37028" lon="2.62338">
        <ele>698.2</ele>
        <time>2022-05-21 17:52:18</time>
      </trkpt>
      <trkpt lat="42.37035" lon="2.6233">
        <ele>697.6</ele>
        <time>2022-05-21 17:52:19</time>
      </trkpt>
      <trkpt lat="42.37043" lon="2.62323">
        <ele>697.2</ele>
        <time>2022-05-21 17:52:20</time>
      </trkpt>
      <trkpt lat="42.37053" lon="2.62319">
        <ele>696.8</ele>
        <time>2022-05-21 17:52:21</time>
      </trkpt>
      <trkpt lat="42.37062" lon="2.62317">
        <ele>696.4</ele>
        <time>2022-05-21 17:52:22</time>
      </trkpt>
      <trkpt lat="42.37071" lon="2.62317">
        <ele>696.2</ele>
        <time>2022-05-21 17:52:23</time>
      </trkpt>
      <trkpt lat="42.3708" lon="2.6232">
        <ele>695.8</ele>
        <time>2022-05-21 17:52:24</time>
      </trkpt>
      <trkpt lat="42.3709" lon="2.62325">
        <ele>695.6</ele>
        <time>2022-05-21 17:52:25</time>
      </trkpt>
      <trkpt lat="42.37099" lon="2.6233">
        <ele>695.2</ele>
        <time>2022-05-21 17:52:26</time>
      </trkpt>
      <trkpt lat="42.37108" lon="2.62335">
        <ele>695</ele>
        <time>2022-05-21 17:52:27</time>
      </trkpt>
      <trkpt lat="42.37117" lon="2.62339">
        <ele>694.8</ele>
        <time>2022-05-21 17:52:28</time>
      </trkpt>
      <trkpt lat="42.37128" lon="2.62342">
        <ele>694.4</ele>
        <time>2022-05-21 17:52:29</time>
      </trkpt>
      <trkpt lat="42.37139" lon="2.62344">
        <ele>694.2</ele>
        <time>2022-05-21 17:52:30</time>
      </trkpt>
      <trkpt lat="42.3715" lon="2.62344">
        <ele>693.8</ele>
        <time>2022-05-21 17:52:31</time>
      </trkpt>
      <trkpt lat="42.37162" lon="2.62343">
        <ele>693.4</ele>
        <time>2022-05-21 17:52:32</time>
      </trkpt>
      <trkpt lat="42.37172" lon="2.62339">
        <ele>693</ele>
        <time>2022-05-21 17:52:33</time>
      </trkpt>
      <trkpt lat="42.37181" lon="2.62333">
        <ele>692.8</ele>
        <time>2022-05-21 17:52:34</time>
      </trkpt>
      <trkpt lat="42.37189" lon="2.62328">
        <ele>692.4</ele>
        <time>2022-05-21 17:52:35</time>
      </trkpt>
      <trkpt lat="42.37198" lon="2.62321">
        <ele>692</ele>
        <time>2022-05-21 17:52:36</time>
      </trkpt>
      <trkpt lat="42.37206" lon="2.62316">
        <ele>691.8</ele>
        <time>2022-05-21 17:52:37</time>
      </trkpt>
      <trkpt lat="42.37213" lon="2.6231">
        <ele>691.4</ele>
        <time>2022-05-21 17:52:38</time>
      </trkpt>
      <trkpt lat="42.37221" lon="2.62304">
        <ele>691.2</ele>
        <time>2022-05-21 17:52:39</time>
      </trkpt>
      <trkpt lat="42.37229" lon="2.62297">
        <ele>690.8</ele>
        <time>2022-05-21 17:52:40</time>
      </trkpt>
      <trkpt lat="42.37237" lon="2.62291">
        <ele>690.6</ele>
        <time>2022-05-21 17:52:41</time>
      </trkpt>
      <trkpt lat="42.37246" lon="2.62284">
        <ele>690.2</ele>
        <time>2022-05-21 17:52:42</time>
      </trkpt>
      <trkpt lat="42.37254" lon="2.62278">
        <ele>690</ele>
        <time>2022-05-21 17:52:43</time>
      </trkpt>
      <trkpt lat="42.37263" lon="2.62274">
        <ele>689.6</ele>
        <time>2022-05-21 17:52:44</time>
      </trkpt>
      <trkpt lat="42.37272" lon="2.62273">
        <ele>689.2</ele>
        <time>2022-05-21 17:52:45</time>
      </trkpt>
      <trkpt lat="42.37281" lon="2.62273">
        <ele>689</ele>
        <time>2022-05-21 17:52:46</time>
      </trkpt>
      <trkpt lat="42.37289" lon="2.62274">
        <ele>688.8</ele>
        <time>2022-05-21 17:52:47</time>
      </trkpt>
      <trkpt lat="42.37297" lon="2.62276">
        <ele>688.4</ele>
        <time>2022-05-21 17:52:48</time>
      </trkpt>
      <trkpt lat="42.37305" lon="2.62279">
        <ele>688.2</ele>
        <time>2022-05-21 17:52:49</time>
      </trkpt>
      <trkpt lat="42.37312" lon="2.62282">
        <ele>688</ele>
        <time>2022-05-21 17:52:50</time>
      </trkpt>
      <trkpt lat="42.3732" lon="2.62283">
        <ele>687.6</ele>
        <time>2022-05-21 17:52:51</time>
      </trkpt>
      <trkpt lat="42.37329" lon="2.62285">
        <ele>687.4</ele>
        <time>2022-05-21 17:52:52</time>
      </trkpt>
      <trkpt lat="42.3734" lon="2.62287">
        <ele>687.2</ele>
        <time>2022-05-21 17:52:53</time>
      </trkpt>
      <trkpt lat="42.37351" lon="2.62289">
        <ele>687</ele>
        <time>2022-05-21 17:52:54</time>
      </trkpt>
      <trkpt lat="42.37362" lon="2.62291">
        <ele>686.8</ele>
        <time>2022-05-21 17:52:55</time>
      </trkpt>
      <trkpt lat="42.37372" lon="2.6229">
        <ele>686.4</ele>
        <time>2022-05-21 17:52:56</time>
      </trkpt>
      <trkpt lat="42.37381" lon="2.62288">
        <ele>686.2</ele>
        <time>2022-05-21 17:52:57</time>
      </trkpt>
      <trkpt lat="42.3739" lon="2.62284">
        <ele>685.8</ele>
        <time>2022-05-21 17:52:58</time>
      </trkpt>
      <trkpt lat="42.37398" lon="2.62278">
        <ele>685.6</ele>
        <time>2022-05-21 17:52:59</time>
      </trkpt>
      <trkpt lat="42.37406" lon="2.62272">
        <ele>685.4</ele>
        <time>2022-05-21 17:53:00</time>
      </trkpt>
      <trkpt lat="42.37414" lon="2.62264">
        <ele>685</ele>
        <time>2022-05-21 17:53:01</time>
      </trkpt>
      <trkpt lat="42.37422" lon="2.62255">
        <ele>684.8</ele>
        <time>2022-05-21 17:53:02</time>
      </trkpt>
      <trkpt lat="42.37429" lon="2.62246">
        <ele>684.4</ele>
        <time>2022-05-21 17:53:03</time>
      </trkpt>
      <trkpt lat="42.37436" lon="2.62237">
        <ele>684</ele>
        <time>2022-05-21 17:53:04</time>
      </trkpt>
      <trkpt lat="42.37444" lon="2.62228">
        <ele>683.8</ele>
        <time>2022-05-21 17:53:05</time>
      </trkpt>
      <trkpt lat="42.37451" lon="2.62218">
        <ele>683.4</ele>
        <time>2022-05-21 17:53:06</time>
      </trkpt>
      <trkpt lat="42.37458" lon="2.62208">
        <ele>683</ele>
        <time>2022-05-21 17:53:07</time>
      </trkpt>
      <trkpt lat="42.37464" lon="2.62197">
        <ele>682.6</ele>
        <time>2022-05-21 17:53:08</time>
      </trkpt>
      <trkpt lat="42.3747" lon="2.62186">
        <ele>682.2</ele>
        <time>2022-05-21 17:53:09</time>
      </trkpt>
      <trkpt lat="42.37476" lon="2.62176">
        <ele>682</ele>
        <time>2022-05-21 17:53:10</time>
      </trkpt>
      <trkpt lat="42.37481" lon="2.62165">
        <ele>681.6</ele>
        <time>2022-05-21 17:53:11</time>
      </trkpt>
      <trkpt lat="42.37487" lon="2.62154">
        <ele>681.2</ele>
        <time>2022-05-21 17:53:12</time>
      </trkpt>
      <trkpt lat="42.37492" lon="2.62142">
        <ele>680.8</ele>
        <time>2022-05-21 17:53:13</time>
      </trkpt>
      <trkpt lat="42.37497" lon="2.62129">
        <ele>680.4</ele>
        <time>2022-05-21 17:53:14</time>
      </trkpt>
      <trkpt lat="42.37502" lon="2.62117">
        <ele>680.2</ele>
        <time>2022-05-21 17:53:15</time>
      </trkpt>
      <trkpt lat="42.37506" lon="2.62105">
        <ele>680</ele>
        <time>2022-05-21 17:53:16</time>
      </trkpt>
      <trkpt lat="42.37511" lon="2.62092">
        <ele>679.6</ele>
        <time>2022-05-21 17:53:17</time>
      </trkpt>
      <trkpt lat="42.37514" lon="2.62078">
        <ele>679.4</ele>
        <time>2022-05-21 17:53:18</time>
      </trkpt>
      <trkpt lat="42.37519" lon="2.62066">
        <ele>679</ele>
        <time>2022-05-21 17:53:19</time>
      </trkpt>
      <trkpt lat="42.37524" lon="2.62057">
        <ele>678.6</ele>
        <time>2022-05-21 17:53:20</time>
      </trkpt>
      <trkpt lat="42.37532" lon="2.62049">
        <ele>678.2</ele>
        <time>2022-05-21 17:53:21</time>
      </trkpt>
      <trkpt lat="42.37539" lon="2.62044">
        <ele>677.8</ele>
        <time>2022-05-21 17:53:22</time>
      </trkpt>
      <trkpt lat="42.37546" lon="2.6204">
        <ele>677.6</ele>
        <time>2022-05-21 17:53:23</time>
      </trkpt>
      <trkpt lat="42.37556" lon="2.62034">
        <ele>677.2</ele>
        <time>2022-05-21 17:53:24</time>
      </trkpt>
      <trkpt lat="42.37564" lon="2.6203">
        <ele>676.8</ele>
        <time>2022-05-21 17:53:25</time>
      </trkpt>
      <trkpt lat="42.37572" lon="2.62024">
        <ele>676.4</ele>
        <time>2022-05-21 17:53:26</time>
      </trkpt>
      <trkpt lat="42.37581" lon="2.62018">
        <ele>675.8</ele>
        <time>2022-05-21 17:53:27</time>
      </trkpt>
      <trkpt lat="42.3759" lon="2.62012">
        <ele>675.2</ele>
        <time>2022-05-21 17:53:28</time>
      </trkpt>
      <trkpt lat="42.37599" lon="2.62006">
        <ele>674.6</ele>
        <time>2022-05-21 17:53:29</time>
      </trkpt>
      <trkpt lat="42.37608" lon="2.62">
        <ele>674.2</ele>
        <time>2022-05-21 17:53:30</time>
      </trkpt>
      <trkpt lat="42.37619" lon="2.61997">
        <ele>673.6</ele>
        <time>2022-05-21 17:53:31</time>
      </trkpt>
      <trkpt lat="42.3763" lon="2.61996">
        <ele>673</ele>
        <time>2022-05-21 17:53:32</time>
      </trkpt>
      <trkpt lat="42.37641" lon="2.61994">
        <ele>672.6</ele>
        <time>2022-05-21 17:53:33</time>
      </trkpt>
      <trkpt lat="42.37651" lon="2.61991">
        <ele>672</ele>
        <time>2022-05-21 17:53:34</time>
      </trkpt>
      <trkpt lat="42.37661" lon="2.61986">
        <ele>671.4</ele>
        <time>2022-05-21 17:53:35</time>
      </trkpt>
      <trkpt lat="42.37671" lon="2.61981">
        <ele>671</ele>
        <time>2022-05-21 17:53:36</time>
      </trkpt>
      <trkpt lat="42.37681" lon="2.61976">
        <ele>670.6</ele>
        <time>2022-05-21 17:53:37</time>
      </trkpt>
      <trkpt lat="42.37691" lon="2.61971">
        <ele>670</ele>
        <time>2022-05-21 17:53:38</time>
      </trkpt>
      <trkpt lat="42.377" lon="2.61967">
        <ele>669.6</ele>
        <time>2022-05-21 17:53:39</time>
      </trkpt>
      <trkpt lat="42.3771" lon="2.61963">
        <ele>669.2</ele>
        <time>2022-05-21 17:53:40</time>
      </trkpt>
      <trkpt lat="42.3772" lon="2.61959">
        <ele>669</ele>
        <time>2022-05-21 17:53:41</time>
      </trkpt>
      <trkpt lat="42.3773" lon="2.61956">
        <ele>668.8</ele>
        <time>2022-05-21 17:53:42</time>
      </trkpt>
      <trkpt lat="42.37741" lon="2.61953">
        <ele>668.4</ele>
        <time>2022-05-21 17:53:43</time>
      </trkpt>
      <trkpt lat="42.37752" lon="2.61952">
        <ele>668.2</ele>
        <time>2022-05-21 17:53:44</time>
      </trkpt>
      <trkpt lat="42.37762" lon="2.61953">
        <ele>668</ele>
        <time>2022-05-21 17:53:45</time>
      </trkpt>
      <trkpt lat="42.37772" lon="2.61956">
        <ele>667.8</ele>
        <time>2022-05-21 17:53:46</time>
      </trkpt>
      <trkpt lat="42.37782" lon="2.61958">
        <ele>667.6</ele>
        <time>2022-05-21 17:53:47</time>
      </trkpt>
      <trkpt lat="42.37791" lon="2.61959">
        <ele>667.4</ele>
        <time>2022-05-21 17:53:48</time>
      </trkpt>
      <trkpt lat="42.37797" lon="2.6196">
        <ele>667.2</ele>
        <time>2022-05-21 17:53:49</time>
      </trkpt>
      <trkpt lat="42.3781" lon="2.61956">
        <ele>667.2</ele>
        <time>2022-05-21 17:53:50</time>
      </trkpt>
      <trkpt lat="42.37819" lon="2.61954">
        <ele>667</ele>
        <time>2022-05-21 17:53:51</time>
      </trkpt>
      <trkpt lat="42.37827" lon="2.6195">
        <ele>666.6</ele>
        <time>2022-05-21 17:53:52</time>
      </trkpt>
      <trkpt lat="42.37835" lon="2.61947">
        <ele>666.4</ele>
        <time>2022-05-21 17:53:53</time>
      </trkpt>
      <trkpt lat="42.37843" lon="2.61943">
        <ele>666.2</ele>
        <time>2022-05-21 17:53:54</time>
      </trkpt>
      <trkpt lat="42.37852" lon="2.61939">
        <ele>666</ele>
        <time>2022-05-21 17:53:55</time>
      </trkpt>
      <trkpt lat="42.3786" lon="2.61936">
        <ele>665.8</ele>
        <time>2022-05-21 17:53:56</time>
      </trkpt>
      <trkpt lat="42.37868" lon="2.61933">
        <ele>665.6</ele>
        <time>2022-05-21 17:53:57</time>
      </trkpt>
      <trkpt lat="42.37877" lon="2.61929">
        <ele>665.4</ele>
        <time>2022-05-21 17:53:58</time>
      </trkpt>
      <trkpt lat="42.37885" lon="2.61925">
        <ele>665.2</ele>
        <time>2022-05-21 17:53:59</time>
      </trkpt>
      <trkpt lat="42.37893" lon="2.61921">
        <ele>665</ele>
        <time>2022-05-21 17:54:00</time>
      </trkpt>
      <trkpt lat="42.37901" lon="2.61917">
        <ele>664.8</ele>
        <time>2022-05-21 17:54:01</time>
      </trkpt>
      <trkpt lat="42.37908" lon="2.61913">
        <ele>664.6</ele>
        <time>2022-05-21 17:54:02</time>
      </trkpt>
      <trkpt lat="42.37914" lon="2.61909">
        <ele>664.4</ele>
        <time>2022-05-21 17:54:03</time>
      </trkpt>
      <trkpt lat="42.3792" lon="2.61903">
        <ele>664.2</ele>
        <time>2022-05-21 17:54:04</time>
      </trkpt>
      <trkpt lat="42.37925" lon="2.61896">
        <ele>664</ele>
        <time>2022-05-21 17:54:05</time>
      </trkpt>
      <trkpt lat="42.3793" lon="2.61888">
        <ele>663.8</ele>
        <time>2022-05-21 17:54:06</time>
      </trkpt>
      <trkpt lat="42.37934" lon="2.61879">
        <ele>663.6</ele>
        <time>2022-05-21 17:54:07</time>
      </trkpt>
      <trkpt lat="42.37939" lon="2.61871">
        <ele>663.2</ele>
        <time>2022-05-21 17:54:08</time>
      </trkpt>
      <trkpt lat="42.37943" lon="2.61862">
        <ele>663</ele>
        <time>2022-05-21 17:54:09</time>
      </trkpt>
      <trkpt lat="42.37947" lon="2.61854">
        <ele>662.8</ele>
        <time>2022-05-21 17:54:10</time>
      </trkpt>
      <trkpt lat="42.37952" lon="2.61846">
        <ele>662.6</ele>
        <time>2022-05-21 17:54:11</time>
      </trkpt>
      <trkpt lat="42.37957" lon="2.61839">
        <ele>662.4</ele>
        <time>2022-05-21 17:54:12</time>
      </trkpt>
      <trkpt lat="42.37963" lon="2.61832">
        <ele>662.4</ele>
        <time>2022-05-21 17:54:13</time>
      </trkpt>
      <trkpt lat="42.3797" lon="2.61828">
        <ele>662.2</ele>
        <time>2022-05-21 17:54:14</time>
      </trkpt>
      <trkpt lat="42.37976" lon="2.61826">
        <ele>662.2</ele>
        <time>2022-05-21 17:54:15</time>
      </trkpt>
      <trkpt lat="42.37985" lon="2.61826">
        <ele>662.2</ele>
        <time>2022-05-21 17:54:16</time>
      </trkpt>
      <trkpt lat="42.37994" lon="2.61827">
        <ele>662.2</ele>
        <time>2022-05-21 17:54:17</time>
      </trkpt>
      <trkpt lat="42.38002" lon="2.61827">
        <ele>662.2</ele>
        <time>2022-05-21 17:54:18</time>
      </trkpt>
      <trkpt lat="42.38011" lon="2.61826">
        <ele>662.2</ele>
        <time>2022-05-21 17:54:19</time>
      </trkpt>
      <trkpt lat="42.38018" lon="2.61823">
        <ele>662.2</ele>
        <time>2022-05-21 17:54:20</time>
      </trkpt>
      <trkpt lat="42.38025" lon="2.61819">
        <ele>662.2</ele>
        <time>2022-05-21 17:54:21</time>
      </trkpt>
      <trkpt lat="42.38032" lon="2.61816">
        <ele>662.2</ele>
        <time>2022-05-21 17:54:22</time>
      </trkpt>
      <trkpt lat="42.38038" lon="2.61812">
        <ele>662.2</ele>
        <time>2022-05-21 17:54:23</time>
      </trkpt>
      <trkpt lat="42.38044" lon="2.61808">
        <ele>662.4</ele>
        <time>2022-05-21 17:54:24</time>
      </trkpt>
      <trkpt lat="42.38049" lon="2.61803">
        <ele>662.4</ele>
        <time>2022-05-21 17:54:25</time>
      </trkpt>
      <trkpt lat="42.38054" lon="2.61799">
        <ele>662.4</ele>
        <time>2022-05-21 17:54:26</time>
      </trkpt>
      <trkpt lat="42.38059" lon="2.61794">
        <ele>662.6</ele>
        <time>2022-05-21 17:54:27</time>
      </trkpt>
      <trkpt lat="42.38063" lon="2.6179">
        <ele>662.8</ele>
        <time>2022-05-21 17:54:28</time>
      </trkpt>
      <trkpt lat="42.38068" lon="2.61785">
        <ele>662.8</ele>
        <time>2022-05-21 17:54:29</time>
      </trkpt>
      <trkpt lat="42.38072" lon="2.6178">
        <ele>663</ele>
        <time>2022-05-21 17:54:30</time>
      </trkpt>
      <trkpt lat="42.38076" lon="2.61775">
        <ele>663.2</ele>
        <time>2022-05-21 17:54:31</time>
      </trkpt>
      <trkpt lat="42.38079" lon="2.61769">
        <ele>663.4</ele>
        <time>2022-05-21 17:54:32</time>
      </trkpt>
      <trkpt lat="42.38083" lon="2.61764">
        <ele>663.4</ele>
        <time>2022-05-21 17:54:33</time>
      </trkpt>
      <trkpt lat="42.38086" lon="2.61758">
        <ele>663.6</ele>
        <time>2022-05-21 17:54:34</time>
      </trkpt>
      <trkpt lat="42.38089" lon="2.61753">
        <ele>663.6</ele>
        <time>2022-05-21 17:54:35</time>
      </trkpt>
      <trkpt lat="42.38092" lon="2.61748">
        <ele>663.8</ele>
        <time>2022-05-21 17:54:36</time>
      </trkpt>
      <trkpt lat="42.38096" lon="2.61743">
        <ele>663.8</ele>
        <time>2022-05-21 17:54:37</time>
      </trkpt>
      <trkpt lat="42.381" lon="2.61738">
        <ele>663.8</ele>
        <time>2022-05-21 17:54:38</time>
      </trkpt>
      <trkpt lat="42.38103" lon="2.61733">
        <ele>664</ele>
        <time>2022-05-21 17:54:39</time>
      </trkpt>
      <trkpt lat="42.38107" lon="2.61728">
        <ele>664</ele>
        <time>2022-05-21 17:54:40</time>
      </trkpt>
      <trkpt lat="42.38111" lon="2.61724">
        <ele>664</ele>
        <time>2022-05-21 17:54:41</time>
      </trkpt>
      <trkpt lat="42.38114" lon="2.61719">
        <ele>664.2</ele>
        <time>2022-05-21 17:54:42</time>
      </trkpt>
      <trkpt lat="42.38118" lon="2.61715">
        <ele>664.2</ele>
        <time>2022-05-21 17:54:43</time>
      </trkpt>
      <trkpt lat="42.38122" lon="2.61711">
        <ele>664.4</ele>
        <time>2022-05-21 17:54:44</time>
      </trkpt>
      <trkpt lat="42.38125" lon="2.61707">
        <ele>664.4</ele>
        <time>2022-05-21 17:54:45</time>
      </trkpt>
      <trkpt lat="42.38129" lon="2.61702">
        <ele>664.6</ele>
        <time>2022-05-21 17:54:46</time>
      </trkpt>
      <trkpt lat="42.38132" lon="2.61698">
        <ele>664.6</ele>
        <time>2022-05-21 17:54:47</time>
      </trkpt>
      <trkpt lat="42.38136" lon="2.61693">
        <ele>664.6</ele>
        <time>2022-05-21 17:54:48</time>
      </trkpt>
      <trkpt lat="42.3814" lon="2.61689">
        <ele>664.8</ele>
        <time>2022-05-21 17:54:49</time>
      </trkpt>
      <trkpt lat="42.38143" lon="2.61684">
        <ele>664.8</ele>
        <time>2022-05-21 17:54:50</time>
      </trkpt>
      <trkpt lat="42.38147" lon="2.6168">
        <ele>664.8</ele>
        <time>2022-05-21 17:54:51</time>
      </trkpt>
      <trkpt lat="42.38151" lon="2.61675">
        <ele>664.8</ele>
        <time>2022-05-21 17:54:52</time>
      </trkpt>
      <trkpt lat="42.38154" lon="2.61671">
        <ele>664.8</ele>
        <time>2022-05-21 17:54:53</time>
      </trkpt>
      <trkpt lat="42.38158" lon="2.61666">
        <ele>664.8</ele>
        <time>2022-05-21 17:54:54</time>
      </trkpt>
      <trkpt lat="42.38161" lon="2.61662">
        <ele>665</ele>
        <time>2022-05-21 17:54:55</time>
      </trkpt>
      <trkpt lat="42.38164" lon="2.61658">
        <ele>665</ele>
        <time>2022-05-21 17:54:56</time>
      </trkpt>
      <trkpt lat="42.38168" lon="2.61653">
        <ele>665</ele>
        <time>2022-05-21 17:54:57</time>
      </trkpt>
      <trkpt lat="42.38171" lon="2.61649">
        <ele>665</ele>
        <time>2022-05-21 17:54:58</time>
      </trkpt>
      <trkpt lat="42.38174" lon="2.61644">
        <ele>665</ele>
        <time>2022-05-21 17:54:59</time>
      </trkpt>
      <trkpt lat="42.38177" lon="2.61639">
        <ele>665</ele>
        <time>2022-05-21 17:55:00</time>
      </trkpt>
      <trkpt lat="42.38181" lon="2.61635">
        <ele>665</ele>
        <time>2022-05-21 17:55:01</time>
      </trkpt>
      <trkpt lat="42.38184" lon="2.61631">
        <ele>665</ele>
        <time>2022-05-21 17:55:02</time>
      </trkpt>
      <trkpt lat="42.38188" lon="2.61626">
        <ele>665</ele>
        <time>2022-05-21 17:55:03</time>
      </trkpt>
      <trkpt lat="42.38191" lon="2.61622">
        <ele>665</ele>
        <time>2022-05-21 17:55:04</time>
      </trkpt>
      <trkpt lat="42.38194" lon="2.61618">
        <ele>665</ele>
        <time>2022-05-21 17:55:05</time>
      </trkpt>
      <trkpt lat="42.38198" lon="2.61613">
        <ele>665</ele>
        <time>2022-05-21 17:55:06</time>
      </trkpt>
      <trkpt lat="42.38202" lon="2.61609">
        <ele>665</ele>
        <time>2022-05-21 17:55:07</time>
      </trkpt>
      <trkpt lat="42.38205" lon="2.61604">
        <ele>665</ele>
        <time>2022-05-21 17:55:08</time>
      </trkpt>
      <trkpt lat="42.38209" lon="2.61599">
        <ele>665</ele>
        <time>2022-05-21 17:55:09</time>
      </trkpt>
      <trkpt lat="42.38212" lon="2.61594">
        <ele>665</ele>
        <time>2022-05-21 17:55:10</time>
      </trkpt>
      <trkpt lat="42.38215" lon="2.61588">
        <ele>665</ele>
        <time>2022-05-21 17:55:11</time>
      </trkpt>
      <trkpt lat="42.38218" lon="2.61583">
        <ele>665</ele>
        <time>2022-05-21 17:55:12</time>
      </trkpt>
      <trkpt lat="42.3822" lon="2.61576">
        <ele>664.8</ele>
        <time>2022-05-21 17:55:13</time>
      </trkpt>
      <trkpt lat="42.38222" lon="2.6157">
        <ele>664.8</ele>
        <time>2022-05-21 17:55:14</time>
      </trkpt>
      <trkpt lat="42.38224" lon="2.61563">
        <ele>664.8</ele>
        <time>2022-05-21 17:55:15</time>
      </trkpt>
      <trkpt lat="42.38225" lon="2.61556">
        <ele>664.8</ele>
        <time>2022-05-21 17:55:16</time>
      </trkpt>
      <trkpt lat="42.38226" lon="2.6155">
        <ele>664.6</ele>
        <time>2022-05-21 17:55:17</time>
      </trkpt>
      <trkpt lat="42.38227" lon="2.61544">
        <ele>664.6</ele>
        <time>2022-05-21 17:55:18</time>
      </trkpt>
      <trkpt lat="42.38228" lon="2.61538">
        <ele>664.4</ele>
        <time>2022-05-21 17:55:19</time>
      </trkpt>
      <trkpt lat="42.38228" lon="2.61533">
        <ele>664.4</ele>
        <time>2022-05-21 17:55:20</time>
      </trkpt>
      <trkpt lat="42.38229" lon="2.61527">
        <ele>664.4</ele>
        <time>2022-05-21 17:55:21</time>
      </trkpt>
      <trkpt lat="42.3823" lon="2.61521">
        <ele>664.2</ele>
        <time>2022-05-21 17:55:22</time>
      </trkpt>
      <trkpt lat="42.38231" lon="2.61515">
        <ele>664.2</ele>
        <time>2022-05-21 17:55:23</time>
      </trkpt>
      <trkpt lat="42.38233" lon="2.6151">
        <ele>664.2</ele>
        <time>2022-05-21 17:55:24</time>
      </trkpt>
      <trkpt lat="42.38235" lon="2.61504">
        <ele>664</ele>
        <time>2022-05-21 17:55:25</time>
      </trkpt>
      <trkpt lat="42.38238" lon="2.615">
        <ele>664</ele>
        <time>2022-05-21 17:55:26</time>
      </trkpt>
      <trkpt lat="42.38239" lon="2.61496">
        <ele>664</ele>
        <time>2022-05-21 17:55:27</time>
      </trkpt>
      <trkpt lat="42.38241" lon="2.61492">
        <ele>664</ele>
        <time>2022-05-21 17:55:28</time>
      </trkpt>
      <trkpt lat="42.38243" lon="2.61487">
        <ele>664</ele>
        <time>2022-05-21 17:55:29</time>
      </trkpt>
      <trkpt lat="42.38246" lon="2.61484">
        <ele>664</ele>
        <time>2022-05-21 17:55:30</time>
      </trkpt>
      <trkpt lat="42.38248" lon="2.6148">
        <ele>664</ele>
        <time>2022-05-21 17:55:31</time>
      </trkpt>
      <trkpt lat="42.38251" lon="2.61476">
        <ele>664</ele>
        <time>2022-05-21 17:55:32</time>
      </trkpt>
      <trkpt lat="42.38254" lon="2.61472">
        <ele>664</ele>
        <time>2022-05-21 17:55:33</time>
      </trkpt>
      <trkpt lat="42.38257" lon="2.61468">
        <ele>664</ele>
        <time>2022-05-21 17:55:34</time>
      </trkpt>
      <trkpt lat="42.38261" lon="2.61465">
        <ele>663.8</ele>
        <time>2022-05-21 17:55:35</time>
      </trkpt>
      <trkpt lat="42.38265" lon="2.61461">
        <ele>663.8</ele>
        <time>2022-05-21 17:55:36</time>
      </trkpt>
      <trkpt lat="42.38269" lon="2.61458">
        <ele>663.8</ele>
        <time>2022-05-21 17:55:37</time>
      </trkpt>
      <trkpt lat="42.38272" lon="2.61455">
        <ele>663.8</ele>
        <time>2022-05-21 17:55:38</time>
      </trkpt>
      <trkpt lat="42.38276" lon="2.61454">
        <ele>663.6</ele>
        <time>2022-05-21 17:55:39</time>
      </trkpt>
      <trkpt lat="42.3828" lon="2.61454">
        <ele>663.6</ele>
        <time>2022-05-21 17:55:40</time>
      </trkpt>
      <trkpt lat="42.38284" lon="2.61455">
        <ele>663.6</ele>
        <time>2022-05-21 17:55:41</time>
      </trkpt>
      <trkpt lat="42.38287" lon="2.61458">
        <ele>663.6</ele>
        <time>2022-05-21 17:55:42</time>
      </trkpt>
      <trkpt lat="42.38291" lon="2.61461">
        <ele>663.4</ele>
        <time>2022-05-21 17:55:43</time>
      </trkpt>
      <trkpt lat="42.38294" lon="2.61466">
        <ele>663.2</ele>
        <time>2022-05-21 17:55:44</time>
      </trkpt>
      <trkpt lat="42.38296" lon="2.61474">
        <ele>662.8</ele>
        <time>2022-05-21 17:55:45</time>
      </trkpt>
      <trkpt lat="42.38298" lon="2.61482">
        <ele>662.6</ele>
        <time>2022-05-21 17:55:46</time>
      </trkpt>
      <trkpt lat="42.38301" lon="2.61489">
        <ele>662.2</ele>
        <time>2022-05-21 17:55:47</time>
      </trkpt>
      <trkpt lat="42.38305" lon="2.61495">
        <ele>661.8</ele>
        <time>2022-05-21 17:55:48</time>
      </trkpt>
      <trkpt lat="42.3831" lon="2.61499">
        <ele>661.4</ele>
        <time>2022-05-21 17:55:49</time>
      </trkpt>
      <trkpt lat="42.38315" lon="2.61502">
        <ele>660.8</ele>
        <time>2022-05-21 17:55:50</time>
      </trkpt>
      <trkpt lat="42.38321" lon="2.61503">
        <ele>660.4</ele>
        <time>2022-05-21 17:55:51</time>
      </trkpt>
      <trkpt lat="42.38328" lon="2.61504">
        <ele>659.8</ele>
        <time>2022-05-21 17:55:52</time>
      </trkpt>
      <trkpt lat="42.38335" lon="2.61504">
        <ele>659.4</ele>
        <time>2022-05-21 17:55:53</time>
      </trkpt>
      <trkpt lat="42.38343" lon="2.61504">
        <ele>659</ele>
        <time>2022-05-21 17:55:54</time>
      </trkpt>
      <trkpt lat="42.38351" lon="2.61504">
        <ele>658.8</ele>
        <time>2022-05-21 17:55:55</time>
      </trkpt>
      <trkpt lat="42.38359" lon="2.61503">
        <ele>658.8</ele>
        <time>2022-05-21 17:55:56</time>
      </trkpt>
      <trkpt lat="42.38367" lon="2.61501">
        <ele>658.8</ele>
        <time>2022-05-21 17:55:57</time>
      </trkpt>
      <trkpt lat="42.38374" lon="2.61498">
        <ele>658.8</ele>
        <time>2022-05-21 17:55:58</time>
      </trkpt>
      <trkpt lat="42.38381" lon="2.61494">
        <ele>659</ele>
        <time>2022-05-21 17:55:59</time>
      </trkpt>
      <trkpt lat="42.38386" lon="2.61489">
        <ele>659.2</ele>
        <time>2022-05-21 17:56:00</time>
      </trkpt>
      <trkpt lat="42.3839" lon="2.61483">
        <ele>659.2</ele>
        <time>2022-05-21 17:56:01</time>
      </trkpt>
      <trkpt lat="42.38393" lon="2.61477">
        <ele>659.4</ele>
        <time>2022-05-21 17:56:02</time>
      </trkpt>
      <trkpt lat="42.38395" lon="2.61471">
        <ele>659.6</ele>
        <time>2022-05-21 17:56:03</time>
      </trkpt>
      <trkpt lat="42.38397" lon="2.61466">
        <ele>659.8</ele>
        <time>2022-05-21 17:56:04</time>
      </trkpt>
      <trkpt lat="42.38399" lon="2.6146">
        <ele>660</ele>
        <time>2022-05-21 17:56:05</time>
      </trkpt>
      <trkpt lat="42.384" lon="2.61455">
        <ele>660.2</ele>
        <time>2022-05-21 17:56:06</time>
      </trkpt>
      <trkpt lat="42.384" lon="2.61449">
        <ele>660.4</ele>
        <time>2022-05-21 17:56:07</time>
      </trkpt>
      <trkpt lat="42.38399" lon="2.61444">
        <ele>660.6</ele>
        <time>2022-05-21 17:56:08</time>
      </trkpt>
      <trkpt lat="42.38398" lon="2.61439">
        <ele>660.6</ele>
        <time>2022-05-21 17:56:09</time>
      </trkpt>
      <trkpt lat="42.38397" lon="2.61434">
        <ele>660.8</ele>
        <time>2022-05-21 17:56:10</time>
      </trkpt>
      <trkpt lat="42.38396" lon="2.6143">
        <ele>661.2</ele>
        <time>2022-05-21 17:56:11</time>
      </trkpt>
      <trkpt lat="42.38396" lon="2.61426">
        <ele>661.4</ele>
        <time>2022-05-21 17:56:12</time>
      </trkpt>
      <trkpt lat="42.38395" lon="2.61421">
        <ele>661.6</ele>
        <time>2022-05-21 17:56:13</time>
      </trkpt>
      <trkpt lat="42.38394" lon="2.61417">
        <ele>661.8</ele>
        <time>2022-05-21 17:56:14</time>
      </trkpt>
      <trkpt lat="42.38394" lon="2.61413">
        <ele>662</ele>
        <time>2022-05-21 17:56:15</time>
      </trkpt>
      <trkpt lat="42.38393" lon="2.6141">
        <ele>662.2</ele>
        <time>2022-05-21 17:56:16</time>
      </trkpt>
      <trkpt lat="42.38393" lon="2.61406">
        <ele>662.4</ele>
        <time>2022-05-21 17:56:17</time>
      </trkpt>
      <trkpt lat="42.38392" lon="2.61403">
        <ele>662.6</ele>
        <time>2022-05-21 17:56:18</time>
      </trkpt>
      <trkpt lat="42.38391" lon="2.614">
        <ele>662.8</ele>
        <time>2022-05-21 17:56:19</time>
      </trkpt>
      <trkpt lat="42.3839" lon="2.61396">
        <ele>663</ele>
        <time>2022-05-21 17:56:20</time>
      </trkpt>
      <trkpt lat="42.3839" lon="2.61394">
        <ele>663.2</ele>
        <time>2022-05-21 17:56:21</time>
      </trkpt>
      <trkpt lat="42.38389" lon="2.61391">
        <ele>663.4</ele>
        <time>2022-05-21 17:56:22</time>
      </trkpt>
      <trkpt lat="42.38388" lon="2.61388">
        <ele>663.6</ele>
        <time>2022-05-21 17:56:23</time>
      </trkpt>
      <trkpt lat="42.38388" lon="2.61386">
        <ele>663.8</ele>
        <time>2022-05-21 17:56:24</time>
      </trkpt>
      <trkpt lat="42.38387" lon="2.61384">
        <ele>663.8</ele>
        <time>2022-05-21 17:56:25</time>
      </trkpt>
      <trkpt lat="42.38386" lon="2.61382">
        <ele>664</ele>
        <time>2022-05-21 17:56:26</time>
      </trkpt>
      <trkpt lat="42.38385" lon="2.61379">
        <ele>664.2</ele>
        <time>2022-05-21 17:56:27</time>
      </trkpt>
      <trkpt lat="42.38384" lon="2.61375">
        <ele>664.4</ele>
        <time>2022-05-21 17:56:28</time>
      </trkpt>
      <trkpt lat="42.38384" lon="2.61372">
        <ele>664.6</ele>
        <time>2022-05-21 17:56:29</time>
      </trkpt>
      <trkpt lat="42.38384" lon="2.61368">
        <ele>664.6</ele>
        <time>2022-05-21 17:56:30</time>
      </trkpt>
      <trkpt lat="42.38384" lon="2.61364">
        <ele>664.8</ele>
        <time>2022-05-21 17:56:31</time>
      </trkpt>
      <trkpt lat="42.38384" lon="2.61361">
        <ele>665</ele>
        <time>2022-05-21 17:56:32</time>
      </trkpt>
      <trkpt lat="42.38385" lon="2.61357">
        <ele>665.2</ele>
        <time>2022-05-21 17:56:33</time>
      </trkpt>
      <trkpt lat="42.38385" lon="2.61354">
        <ele>665.2</ele>
        <time>2022-05-21 17:56:34</time>
      </trkpt>
      <trkpt lat="42.38385" lon="2.6135">
        <ele>665.4</ele>
        <time>2022-05-21 17:56:35</time>
      </trkpt>
      <trkpt lat="42.38385" lon="2.61347">
        <ele>665.6</ele>
        <time>2022-05-21 17:56:36</time>
      </trkpt>
      <trkpt lat="42.38385" lon="2.61344">
        <ele>665.8</ele>
        <time>2022-05-21 17:56:37</time>
      </trkpt>
      <trkpt lat="42.38385" lon="2.61341">
        <ele>665.8</ele>
        <time>2022-05-21 17:56:38</time>
      </trkpt>
      <trkpt lat="42.38385" lon="2.61338">
        <ele>666</ele>
        <time>2022-05-21 17:56:39</time>
      </trkpt>
      <trkpt lat="42.38386" lon="2.61335">
        <ele>666.2</ele>
        <time>2022-05-21 17:56:40</time>
      </trkpt>
      <trkpt lat="42.38386" lon="2.61332">
        <ele>666.2</ele>
        <time>2022-05-21 17:56:41</time>
      </trkpt>
      <trkpt lat="42.38387" lon="2.61329">
        <ele>666.4</ele>
        <time>2022-05-21 17:56:42</time>
      </trkpt>
      <trkpt lat="42.38388" lon="2.61326">
        <ele>666.4</ele>
        <time>2022-05-21 17:56:43</time>
      </trkpt>
      <trkpt lat="42.3839" lon="2.61322">
        <ele>666.6</ele>
        <time>2022-05-21 17:56:44</time>
      </trkpt>
      <trkpt lat="42.38391" lon="2.61318">
        <ele>666.6</ele>
        <time>2022-05-21 17:56:45</time>
      </trkpt>
      <trkpt lat="42.38392" lon="2.61315">
        <ele>666.8</ele>
        <time>2022-05-21 17:56:46</time>
      </trkpt>
      <trkpt lat="42.38392" lon="2.61311">
        <ele>666.8</ele>
        <time>2022-05-21 17:56:47</time>
      </trkpt>
      <trkpt lat="42.38393" lon="2.61308">
        <ele>667</ele>
        <time>2022-05-21 17:56:48</time>
      </trkpt>
      <trkpt lat="42.38393" lon="2.61304">
        <ele>667</ele>
        <time>2022-05-21 17:56:49</time>
      </trkpt>
      <trkpt lat="42.38394" lon="2.613">
        <ele>667</ele>
        <time>2022-05-21 17:56:50</time>
      </trkpt>
      <trkpt lat="42.38394" lon="2.61295">
        <ele>667.2</ele>
        <time>2022-05-21 17:56:51</time>
      </trkpt>
      <trkpt lat="42.38394" lon="2.61291">
        <ele>667.2</ele>
        <time>2022-05-21 17:56:52</time>
      </trkpt>
      <trkpt lat="42.38395" lon="2.61287">
        <ele>667.4</ele>
        <time>2022-05-21 17:56:53</time>
      </trkpt>
      <trkpt lat="42.38395" lon="2.61283">
        <ele>667.4</ele>
        <time>2022-05-21 17:56:54</time>
      </trkpt>
      <trkpt lat="42.38396" lon="2.61279">
        <ele>667.6</ele>
        <time>2022-05-21 17:56:55</time>
      </trkpt>
      <trkpt lat="42.38397" lon="2.61275">
        <ele>667.8</ele>
        <time>2022-05-21 17:56:56</time>
      </trkpt>
      <trkpt lat="42.38398" lon="2.61271">
        <ele>667.8</ele>
        <time>2022-05-21 17:56:57</time>
      </trkpt>
      <trkpt lat="42.38399" lon="2.61267">
        <ele>667.8</ele>
        <time>2022-05-21 17:56:58</time>
      </trkpt>
      <trkpt lat="42.384" lon="2.61263">
        <ele>668</ele>
        <time>2022-05-21 17:56:59</time>
      </trkpt>
      <trkpt lat="42.38401" lon="2.61259">
        <ele>668</ele>
        <time>2022-05-21 17:57:00</time>
      </trkpt>
      <trkpt lat="42.38402" lon="2.61255">
        <ele>668</ele>
        <time>2022-05-21 17:57:01</time>
      </trkpt>
      <trkpt lat="42.38403" lon="2.61251">
        <ele>668.2</ele>
        <time>2022-05-21 17:57:02</time>
      </trkpt>
      <trkpt lat="42.38403" lon="2.61247">
        <ele>668.2</ele>
        <time>2022-05-21 17:57:03</time>
      </trkpt>
      <trkpt lat="42.38405" lon="2.61243">
        <ele>668.2</ele>
        <time>2022-05-21 17:57:04</time>
      </trkpt>
      <trkpt lat="42.38406" lon="2.61239">
        <ele>668.4</ele>
        <time>2022-05-21 17:57:05</time>
      </trkpt>
      <trkpt lat="42.38407" lon="2.61235">
        <ele>668.6</ele>
        <time>2022-05-21 17:57:06</time>
      </trkpt>
      <trkpt lat="42.38408" lon="2.61231">
        <ele>668.6</ele>
        <time>2022-05-21 17:57:07</time>
      </trkpt>
      <trkpt lat="42.3841" lon="2.61227">
        <ele>668.8</ele>
        <time>2022-05-21 17:57:08</time>
      </trkpt>
      <trkpt lat="42.38411" lon="2.61222">
        <ele>668.8</ele>
        <time>2022-05-21 17:57:09</time>
      </trkpt>
      <trkpt lat="42.38412" lon="2.61218">
        <ele>669</ele>
        <time>2022-05-21 17:57:10</time>
      </trkpt>
      <trkpt lat="42.38414" lon="2.61213">
        <ele>669</ele>
        <time>2022-05-21 17:57:11</time>
      </trkpt>
      <trkpt lat="42.38415" lon="2.61209">
        <ele>669.2</ele>
        <time>2022-05-21 17:57:12</time>
      </trkpt>
      <trkpt lat="42.38418" lon="2.61205">
        <ele>669.2</ele>
        <time>2022-05-21 17:57:13</time>
      </trkpt>
      <trkpt lat="42.3842" lon="2.61202">
        <ele>669.2</ele>
        <time>2022-05-21 17:57:14</time>
      </trkpt>
      <trkpt lat="42.38423" lon="2.61199">
        <ele>669.4</ele>
        <time>2022-05-21 17:57:15</time>
      </trkpt>
      <trkpt lat="42.38426" lon="2.61197">
        <ele>669.4</ele>
        <time>2022-05-21 17:57:16</time>
      </trkpt>
      <trkpt lat="42.38429" lon="2.61195">
        <ele>669.6</ele>
        <time>2022-05-21 17:57:17</time>
      </trkpt>
      <trkpt lat="42.38431" lon="2.61192">
        <ele>669.6</ele>
        <time>2022-05-21 17:57:18</time>
      </trkpt>
      <trkpt lat="42.38434" lon="2.6119">
        <ele>669.8</ele>
        <time>2022-05-21 17:57:19</time>
      </trkpt>
      <trkpt lat="42.38436" lon="2.61187">
        <ele>669.8</ele>
        <time>2022-05-21 17:57:20</time>
      </trkpt>
      <trkpt lat="42.38439" lon="2.61184">
        <ele>669.8</ele>
        <time>2022-05-21 17:57:21</time>
      </trkpt>
      <trkpt lat="42.38441" lon="2.61182">
        <ele>670</ele>
        <time>2022-05-21 17:57:22</time>
      </trkpt>
      <trkpt lat="42.38443" lon="2.6118">
        <ele>670</ele>
        <time>2022-05-21 17:57:23</time>
      </trkpt>
      <trkpt lat="42.38445" lon="2.61178">
        <ele>670.2</ele>
        <time>2022-05-21 17:57:24</time>
      </trkpt>
      <trkpt lat="42.38447" lon="2.61175">
        <ele>670.2</ele>
        <time>2022-05-21 17:57:25</time>
      </trkpt>
      <trkpt lat="42.3845" lon="2.61172">
        <ele>670.4</ele>
        <time>2022-05-21 17:57:26</time>
      </trkpt>
      <trkpt lat="42.38453" lon="2.61169">
        <ele>670.4</ele>
        <time>2022-05-21 17:57:27</time>
      </trkpt>
      <trkpt lat="42.38455" lon="2.61166">
        <ele>670.4</ele>
        <time>2022-05-21 17:57:28</time>
      </trkpt>
      <trkpt lat="42.38458" lon="2.61163">
        <ele>670.6</ele>
        <time>2022-05-21 17:57:29</time>
      </trkpt>
      <trkpt lat="42.38461" lon="2.6116">
        <ele>670.6</ele>
        <time>2022-05-21 17:57:30</time>
      </trkpt>
      <trkpt lat="42.38464" lon="2.61157">
        <ele>670.6</ele>
        <time>2022-05-21 17:57:31</time>
      </trkpt>
      <trkpt lat="42.38467" lon="2.61155">
        <ele>670.6</ele>
        <time>2022-05-21 17:57:32</time>
      </trkpt>
      <trkpt lat="42.3847" lon="2.61154">
        <ele>670.6</ele>
        <time>2022-05-21 17:57:33</time>
      </trkpt>
      <trkpt lat="42.38473" lon="2.61153">
        <ele>670.6</ele>
        <time>2022-05-21 17:57:34</time>
      </trkpt>
      <trkpt lat="42.38475" lon="2.61153">
        <ele>670.6</ele>
        <time>2022-05-21 17:57:35</time>
      </trkpt>
      <trkpt lat="42.38478" lon="2.61153">
        <ele>670.8</ele>
        <time>2022-05-21 17:57:36</time>
      </trkpt>
      <trkpt lat="42.3848" lon="2.61153">
        <ele>670.8</ele>
        <time>2022-05-21 17:57:37</time>
      </trkpt>
      <trkpt lat="42.38482" lon="2.61154">
        <ele>671</ele>
        <time>2022-05-21 17:57:38</time>
      </trkpt>
      <trkpt lat="42.38485" lon="2.61155">
        <ele>671</ele>
        <time>2022-05-21 17:57:39</time>
      </trkpt>
      <trkpt lat="42.38488" lon="2.61157">
        <ele>671</ele>
        <time>2022-05-21 17:57:40</time>
      </trkpt>
      <trkpt lat="42.38491" lon="2.61159">
        <ele>671.2</ele>
        <time>2022-05-21 17:57:41</time>
      </trkpt>
      <trkpt lat="42.38495" lon="2.61162">
        <ele>671.2</ele>
        <time>2022-05-21 17:57:42</time>
      </trkpt>
      <trkpt lat="42.38498" lon="2.61165">
        <ele>671.4</ele>
        <time>2022-05-21 17:57:43</time>
      </trkpt>
      <trkpt lat="42.38501" lon="2.61169">
        <ele>671.4</ele>
        <time>2022-05-21 17:57:44</time>
      </trkpt>
      <trkpt lat="42.38504" lon="2.61172">
        <ele>671.4</ele>
        <time>2022-05-21 17:57:45</time>
      </trkpt>
      <trkpt lat="42.38506" lon="2.61176">
        <ele>671.6</ele>
        <time>2022-05-21 17:57:46</time>
      </trkpt>
      <trkpt lat="42.38509" lon="2.61181">
        <ele>671.6</ele>
        <time>2022-05-21 17:57:47</time>
      </trkpt>
      <trkpt lat="42.38512" lon="2.61185">
        <ele>671.6</ele>
        <time>2022-05-21 17:57:48</time>
      </trkpt>
      <trkpt lat="42.38515" lon="2.61189">
        <ele>671.6</ele>
        <time>2022-05-21 17:57:49</time>
      </trkpt>
      <trkpt lat="42.38517" lon="2.61193">
        <ele>671.8</ele>
        <time>2022-05-21 17:57:50</time>
      </trkpt>
      <trkpt lat="42.3852" lon="2.61197">
        <ele>671.8</ele>
        <time>2022-05-21 17:57:51</time>
      </trkpt>
      <trkpt lat="42.38524" lon="2.61201">
        <ele>671.8</ele>
        <time>2022-05-21 17:57:52</time>
      </trkpt>
      <trkpt lat="42.38528" lon="2.61205">
        <ele>671.8</ele>
        <time>2022-05-21 17:57:53</time>
      </trkpt>
      <trkpt lat="42.38532" lon="2.61208">
        <ele>671.8</ele>
        <time>2022-05-21 17:57:54</time>
      </trkpt>
      <trkpt lat="42.38536" lon="2.61211">
        <ele>671.8</ele>
        <time>2022-05-21 17:57:55</time>
      </trkpt>
      <trkpt lat="42.38541" lon="2.61213">
        <ele>671.8</ele>
        <time>2022-05-21 17:57:56</time>
      </trkpt>
      <trkpt lat="42.38546" lon="2.61214">
        <ele>671.8</ele>
        <time>2022-05-21 17:57:57</time>
      </trkpt>
      <trkpt lat="42.38551" lon="2.61214">
        <ele>671.8</ele>
        <time>2022-05-21 17:57:58</time>
      </trkpt>
      <trkpt lat="42.38555" lon="2.61213">
        <ele>671.8</ele>
        <time>2022-05-21 17:57:59</time>
      </trkpt>
      <trkpt lat="42.3856" lon="2.61212">
        <ele>671.8</ele>
        <time>2022-05-21 17:58:00</time>
      </trkpt>
      <trkpt lat="42.38565" lon="2.61211">
        <ele>671.6</ele>
        <time>2022-05-21 17:58:01</time>
      </trkpt>
      <trkpt lat="42.38569" lon="2.61211">
        <ele>671.6</ele>
        <time>2022-05-21 17:58:02</time>
      </trkpt>
      <trkpt lat="42.38573" lon="2.6121">
        <ele>671.6</ele>
        <time>2022-05-21 17:58:03</time>
      </trkpt>
      <trkpt lat="42.38578" lon="2.6121">
        <ele>671.6</ele>
        <time>2022-05-21 17:58:04</time>
      </trkpt>
      <trkpt lat="42.38583" lon="2.61209">
        <ele>671.6</ele>
        <time>2022-05-21 17:58:05</time>
      </trkpt>
      <trkpt lat="42.38587" lon="2.61209">
        <ele>671.4</ele>
        <time>2022-05-21 17:58:06</time>
      </trkpt>
      <trkpt lat="42.38592" lon="2.61208">
        <ele>671.4</ele>
        <time>2022-05-21 17:58:07</time>
      </trkpt>
      <trkpt lat="42.38596" lon="2.61206">
        <ele>671.6</ele>
        <time>2022-05-21 17:58:08</time>
      </trkpt>
      <trkpt lat="42.38599" lon="2.61203">
        <ele>671.6</ele>
        <time>2022-05-21 17:58:09</time>
      </trkpt>
      <trkpt lat="42.38602" lon="2.612">
        <ele>671.6</ele>
        <time>2022-05-21 17:58:10</time>
      </trkpt>
      <trkpt lat="42.38606" lon="2.61201">
        <ele>671.8</ele>
        <time>2022-05-21 17:58:11</time>
      </trkpt>
      <trkpt lat="42.38612" lon="2.61205">
        <ele>671.8</ele>
        <time>2022-05-21 17:58:12</time>
      </trkpt>
      <trkpt lat="42.38618" lon="2.61202">
        <ele>672</ele>
        <time>2022-05-21 17:58:13</time>
      </trkpt>
      <trkpt lat="42.38624" lon="2.612">
        <ele>672</ele>
        <time>2022-05-21 17:58:14</time>
      </trkpt>
      <trkpt lat="42.38628" lon="2.61198">
        <ele>672.2</ele>
        <time>2022-05-21 17:58:15</time>
      </trkpt>
      <trkpt lat="42.38633" lon="2.61196">
        <ele>672.2</ele>
        <time>2022-05-21 17:58:16</time>
      </trkpt>
      <trkpt lat="42.38638" lon="2.61195">
        <ele>672.4</ele>
        <time>2022-05-21 17:58:17</time>
      </trkpt>
      <trkpt lat="42.38642" lon="2.61192">
        <ele>672.6</ele>
        <time>2022-05-21 17:58:18</time>
      </trkpt>
      <trkpt lat="42.38646" lon="2.61188">
        <ele>672.8</ele>
        <time>2022-05-21 17:58:19</time>
      </trkpt>
      <trkpt lat="42.38649" lon="2.61185">
        <ele>673</ele>
        <time>2022-05-21 17:58:20</time>
      </trkpt>
      <trkpt lat="42.38653" lon="2.61183">
        <ele>673.2</ele>
        <time>2022-05-21 17:58:21</time>
      </trkpt>
      <trkpt lat="42.38657" lon="2.61182">
        <ele>673.4</ele>
        <time>2022-05-21 17:58:22</time>
      </trkpt>
      <trkpt lat="42.3866" lon="2.61181">
        <ele>673.6</ele>
        <time>2022-05-21 17:58:23</time>
      </trkpt>
      <trkpt lat="42.38663" lon="2.61181">
        <ele>673.8</ele>
        <time>2022-05-21 17:58:24</time>
      </trkpt>
      <trkpt lat="42.38666" lon="2.6118">
        <ele>674</ele>
        <time>2022-05-21 17:58:25</time>
      </trkpt>
      <trkpt lat="42.38669" lon="2.61178">
        <ele>674.2</ele>
        <time>2022-05-21 17:58:26</time>
      </trkpt>
      <trkpt lat="42.38672" lon="2.61177">
        <ele>674.4</ele>
        <time>2022-05-21 17:58:27</time>
      </trkpt>
      <trkpt lat="42.38676" lon="2.61176">
        <ele>674.6</ele>
        <time>2022-05-21 17:58:28</time>
      </trkpt>
      <trkpt lat="42.38679" lon="2.61175">
        <ele>674.8</ele>
        <time>2022-05-21 17:58:29</time>
      </trkpt>
      <trkpt lat="42.38682" lon="2.61173">
        <ele>675</ele>
        <time>2022-05-21 17:58:30</time>
      </trkpt>
      <trkpt lat="42.38686" lon="2.61172">
        <ele>675.2</ele>
        <time>2022-05-21 17:58:31</time>
      </trkpt>
      <trkpt lat="42.38689" lon="2.61171">
        <ele>675.4</ele>
        <time>2022-05-21 17:58:32</time>
      </trkpt>
      <trkpt lat="42.38692" lon="2.61168">
        <ele>675.6</ele>
        <time>2022-05-21 17:58:33</time>
      </trkpt>
      <trkpt lat="42.38694" lon="2.61166">
        <ele>675.8</ele>
        <time>2022-05-21 17:58:34</time>
      </trkpt>
      <trkpt lat="42.38697" lon="2.61163">
        <ele>675.8</ele>
        <time>2022-05-21 17:58:35</time>
      </trkpt>
      <trkpt lat="42.38699" lon="2.61159">
        <ele>676</ele>
        <time>2022-05-21 17:58:36</time>
      </trkpt>
      <trkpt lat="42.387" lon="2.61155">
        <ele>676.2</ele>
        <time>2022-05-21 17:58:37</time>
      </trkpt>
      <trkpt lat="42.387" lon="2.61152">
        <ele>676.4</ele>
        <time>2022-05-21 17:58:38</time>
      </trkpt>
      <trkpt lat="42.38702" lon="2.61148">
        <ele>676.4</ele>
        <time>2022-05-21 17:58:39</time>
      </trkpt>
      <trkpt lat="42.38703" lon="2.61144">
        <ele>676.4</ele>
        <time>2022-05-21 17:58:40</time>
      </trkpt>
      <trkpt lat="42.38705" lon="2.61141">
        <ele>676.6</ele>
        <time>2022-05-21 17:58:41</time>
      </trkpt>
      <trkpt lat="42.38707" lon="2.61138">
        <ele>676.6</ele>
        <time>2022-05-21 17:58:42</time>
      </trkpt>
      <trkpt lat="42.3871" lon="2.61135">
        <ele>676.4</ele>
        <time>2022-05-21 17:58:43</time>
      </trkpt>
      <trkpt lat="42.38712" lon="2.61131">
        <ele>676.4</ele>
        <time>2022-05-21 17:58:44</time>
      </trkpt>
      <trkpt lat="42.38715" lon="2.61128">
        <ele>676.2</ele>
        <time>2022-05-21 17:58:45</time>
      </trkpt>
      <trkpt lat="42.38718" lon="2.61124">
        <ele>676</ele>
        <time>2022-05-21 17:58:46</time>
      </trkpt>
      <trkpt lat="42.38722" lon="2.6112">
        <ele>676</ele>
        <time>2022-05-21 17:58:47</time>
      </trkpt>
      <trkpt lat="42.38726" lon="2.61116">
        <ele>675.8</ele>
        <time>2022-05-21 17:58:48</time>
      </trkpt>
      <trkpt lat="42.3873" lon="2.61112">
        <ele>675.4</ele>
        <time>2022-05-21 17:58:49</time>
      </trkpt>
      <trkpt lat="42.38734" lon="2.61109">
        <ele>675.2</ele>
        <time>2022-05-21 17:58:50</time>
      </trkpt>
      <trkpt lat="42.38739" lon="2.61105">
        <ele>675</ele>
        <time>2022-05-21 17:58:51</time>
      </trkpt>
      <trkpt lat="42.38744" lon="2.611">
        <ele>674.6</ele>
        <time>2022-05-21 17:58:52</time>
      </trkpt>
      <trkpt lat="42.38749" lon="2.61096">
        <ele>674.4</ele>
        <time>2022-05-21 17:58:53</time>
      </trkpt>
      <trkpt lat="42.38755" lon="2.61091">
        <ele>673.8</ele>
        <time>2022-05-21 17:58:54</time>
      </trkpt>
      <trkpt lat="42.3876" lon="2.61086">
        <ele>673.4</ele>
        <time>2022-05-21 17:58:55</time>
      </trkpt>
      <trkpt lat="42.38766" lon="2.61082">
        <ele>673</ele>
        <time>2022-05-21 17:58:56</time>
      </trkpt>
      <trkpt lat="42.38773" lon="2.61078">
        <ele>672.4</ele>
        <time>2022-05-21 17:58:57</time>
      </trkpt>
      <trkpt lat="42.38781" lon="2.61074">
        <ele>671.8</ele>
        <time>2022-05-21 17:58:58</time>
      </trkpt>
      <trkpt lat="42.38788" lon="2.61072">
        <ele>671.2</ele>
        <time>2022-05-21 17:58:59</time>
      </trkpt>
      <trkpt lat="42.38796" lon="2.61069">
        <ele>670.6</ele>
        <time>2022-05-21 17:59:00</time>
      </trkpt>
      <trkpt lat="42.38804" lon="2.61064">
        <ele>670.2</ele>
        <time>2022-05-21 17:59:01</time>
      </trkpt>
      <trkpt lat="42.38811" lon="2.61057">
        <ele>669.4</ele>
        <time>2022-05-21 17:59:02</time>
      </trkpt>
      <trkpt lat="42.38818" lon="2.6105">
        <ele>668.6</ele>
        <time>2022-05-21 17:59:03</time>
      </trkpt>
      <trkpt lat="42.38824" lon="2.61041">
        <ele>668.2</ele>
        <time>2022-05-21 17:59:04</time>
      </trkpt>
      <trkpt lat="42.3883" lon="2.61031">
        <ele>667.4</ele>
        <time>2022-05-21 17:59:05</time>
      </trkpt>
      <trkpt lat="42.38835" lon="2.61022">
        <ele>666.8</ele>
        <time>2022-05-21 17:59:06</time>
      </trkpt>
      <trkpt lat="42.38841" lon="2.61012">
        <ele>666.4</ele>
        <time>2022-05-21 17:59:07</time>
      </trkpt>
      <trkpt lat="42.38847" lon="2.61003">
        <ele>665.8</ele>
        <time>2022-05-21 17:59:08</time>
      </trkpt>
      <trkpt lat="42.38855" lon="2.60996">
        <ele>665.2</ele>
        <time>2022-05-21 17:59:09</time>
      </trkpt>
      <trkpt lat="42.38863" lon="2.6099">
        <ele>664.6</ele>
        <time>2022-05-21 17:59:10</time>
      </trkpt>
      <trkpt lat="42.38872" lon="2.60985">
        <ele>664.2</ele>
        <time>2022-05-21 17:59:11</time>
      </trkpt>
      <trkpt lat="42.3888" lon="2.6098">
        <ele>663.8</ele>
        <time>2022-05-21 17:59:12</time>
      </trkpt>
      <trkpt lat="42.38887" lon="2.60973">
        <ele>663.2</ele>
        <time>2022-05-21 17:59:13</time>
      </trkpt>
      <trkpt lat="42.38893" lon="2.60965">
        <ele>662.6</ele>
        <time>2022-05-21 17:59:14</time>
      </trkpt>
      <trkpt lat="42.38898" lon="2.60956">
        <ele>662</ele>
        <time>2022-05-21 17:59:15</time>
      </trkpt>
      <trkpt lat="42.389" lon="2.60946">
        <ele>661.4</ele>
        <time>2022-05-21 17:59:16</time>
      </trkpt>
      <trkpt lat="42.38901" lon="2.60933">
        <ele>660.8</ele>
        <time>2022-05-21 17:59:17</time>
      </trkpt>
      <trkpt lat="42.389" lon="2.6092">
        <ele>660.2</ele>
        <time>2022-05-21 17:59:18</time>
      </trkpt>
      <trkpt lat="42.38898" lon="2.60905">
        <ele>659.8</ele>
        <time>2022-05-21 17:59:19</time>
      </trkpt>
      <trkpt lat="42.38897" lon="2.6089">
        <ele>659.2</ele>
        <time>2022-05-21 17:59:20</time>
      </trkpt>
      <trkpt lat="42.38896" lon="2.60875">
        <ele>658.6</ele>
        <time>2022-05-21 17:59:21</time>
      </trkpt>
      <trkpt lat="42.38896" lon="2.60861">
        <ele>658.2</ele>
        <time>2022-05-21 17:59:22</time>
      </trkpt>
      <trkpt lat="42.38899" lon="2.60848">
        <ele>657.8</ele>
        <time>2022-05-21 17:59:23</time>
      </trkpt>
      <trkpt lat="42.38903" lon="2.60836">
        <ele>657.4</ele>
        <time>2022-05-21 17:59:24</time>
      </trkpt>
      <trkpt lat="42.38908" lon="2.60825">
        <ele>657.2</ele>
        <time>2022-05-21 17:59:25</time>
      </trkpt>
      <trkpt lat="42.38913" lon="2.60814">
        <ele>656.8</ele>
        <time>2022-05-21 17:59:26</time>
      </trkpt>
      <trkpt lat="42.38918" lon="2.60803">
        <ele>656.4</ele>
        <time>2022-05-21 17:59:27</time>
      </trkpt>
      <trkpt lat="42.3892" lon="2.6079">
        <ele>656</ele>
        <time>2022-05-21 17:59:28</time>
      </trkpt>
      <trkpt lat="42.3892" lon="2.60778">
        <ele>655.6</ele>
        <time>2022-05-21 17:59:29</time>
      </trkpt>
      <trkpt lat="42.38919" lon="2.60764">
        <ele>655.2</ele>
        <time>2022-05-21 17:59:30</time>
      </trkpt>
      <trkpt lat="42.38917" lon="2.6075">
        <ele>654.8</ele>
        <time>2022-05-21 17:59:31</time>
      </trkpt>
      <trkpt lat="42.38915" lon="2.60737">
        <ele>654.2</ele>
        <time>2022-05-21 17:59:32</time>
      </trkpt>
      <trkpt lat="42.38914" lon="2.60723">
        <ele>653.8</ele>
        <time>2022-05-21 17:59:33</time>
      </trkpt>
      <trkpt lat="42.38914" lon="2.60709">
        <ele>653.2</ele>
        <time>2022-05-21 17:59:34</time>
      </trkpt>
      <trkpt lat="42.38916" lon="2.60695">
        <ele>652.6</ele>
        <time>2022-05-21 17:59:35</time>
      </trkpt>
      <trkpt lat="42.38919" lon="2.60682">
        <ele>652</ele>
        <time>2022-05-21 17:59:36</time>
      </trkpt>
      <trkpt lat="42.38922" lon="2.60669">
        <ele>651.6</ele>
        <time>2022-05-21 17:59:37</time>
      </trkpt>
      <trkpt lat="42.38927" lon="2.60656">
        <ele>651</ele>
        <time>2022-05-21 17:59:38</time>
      </trkpt>
      <trkpt lat="42.38932" lon="2.60644">
        <ele>650.4</ele>
        <time>2022-05-21 17:59:39</time>
      </trkpt>
      <trkpt lat="42.38939" lon="2.60632">
        <ele>650</ele>
        <time>2022-05-21 17:59:40</time>
      </trkpt>
      <trkpt lat="42.38946" lon="2.60621">
        <ele>649.4</ele>
        <time>2022-05-21 17:59:41</time>
      </trkpt>
      <trkpt lat="42.38952" lon="2.6061">
        <ele>649</ele>
        <time>2022-05-21 17:59:42</time>
      </trkpt>
      <trkpt lat="42.38957" lon="2.60597">
        <ele>648.6</ele>
        <time>2022-05-21 17:59:43</time>
      </trkpt>
      <trkpt lat="42.38961" lon="2.60583">
        <ele>648.2</ele>
        <time>2022-05-21 17:59:44</time>
      </trkpt>
      <trkpt lat="42.38963" lon="2.60569">
        <ele>647.8</ele>
        <time>2022-05-21 17:59:45</time>
      </trkpt>
      <trkpt lat="42.38964" lon="2.60555">
        <ele>647.4</ele>
        <time>2022-05-21 17:59:46</time>
      </trkpt>
      <trkpt lat="42.38965" lon="2.60541">
        <ele>646.8</ele>
        <time>2022-05-21 17:59:47</time>
      </trkpt>
      <trkpt lat="42.38964" lon="2.60526">
        <ele>646</ele>
        <time>2022-05-21 17:59:48</time>
      </trkpt>
      <trkpt lat="42.38962" lon="2.60512">
        <ele>645.4</ele>
        <time>2022-05-21 17:59:49</time>
      </trkpt>
      <trkpt lat="42.38959" lon="2.60498">
        <ele>644.8</ele>
        <time>2022-05-21 17:59:50</time>
      </trkpt>
      <trkpt lat="42.38955" lon="2.60485">
        <ele>644</ele>
        <time>2022-05-21 17:59:51</time>
      </trkpt>
      <trkpt lat="42.38951" lon="2.60473">
        <ele>643.4</ele>
        <time>2022-05-21 17:59:52</time>
      </trkpt>
      <trkpt lat="42.38945" lon="2.6046">
        <ele>642.8</ele>
        <time>2022-05-21 17:59:53</time>
      </trkpt>
      <trkpt lat="42.38941" lon="2.60446">
        <ele>642.2</ele>
        <time>2022-05-21 17:59:54</time>
      </trkpt>
      <trkpt lat="42.38937" lon="2.60433">
        <ele>641.6</ele>
        <time>2022-05-21 17:59:55</time>
      </trkpt>
      <trkpt lat="42.38934" lon="2.60418">
        <ele>641</ele>
        <time>2022-05-21 17:59:56</time>
      </trkpt>
      <trkpt lat="42.38933" lon="2.60403">
        <ele>640.4</ele>
        <time>2022-05-21 17:59:57</time>
      </trkpt>
      <trkpt lat="42.38934" lon="2.60388">
        <ele>639.8</ele>
        <time>2022-05-21 17:59:58</time>
      </trkpt>
      <trkpt lat="42.38936" lon="2.60374">
        <ele>639.2</ele>
        <time>2022-05-21 17:59:59</time>
      </trkpt>
      <trkpt lat="42.3894" lon="2.60361">
        <ele>638.6</ele>
        <time>2022-05-21 18:00:00</time>
      </trkpt>
      <trkpt lat="42.38945" lon="2.60349">
        <ele>638</ele>
        <time>2022-05-21 18:00:01</time>
      </trkpt>
      <trkpt lat="42.38952" lon="2.6034">
        <ele>637.4</ele>
        <time>2022-05-21 18:00:02</time>
      </trkpt>
      <trkpt lat="42.38961" lon="2.60334">
        <ele>636.8</ele>
        <time>2022-05-21 18:00:03</time>
      </trkpt>
      <trkpt lat="42.38972" lon="2.60332">
        <ele>636.2</ele>
        <time>2022-05-21 18:00:04</time>
      </trkpt>
      <trkpt lat="42.38983" lon="2.60332">
        <ele>635.8</ele>
        <time>2022-05-21 18:00:05</time>
      </trkpt>
      <trkpt lat="42.38993" lon="2.60332">
        <ele>635.2</ele>
        <time>2022-05-21 18:00:06</time>
      </trkpt>
      <trkpt lat="42.39004" lon="2.6033">
        <ele>634.8</ele>
        <time>2022-05-21 18:00:07</time>
      </trkpt>
      <trkpt lat="42.39016" lon="2.60324">
        <ele>634.2</ele>
        <time>2022-05-21 18:00:08</time>
      </trkpt>
      <trkpt lat="42.39026" lon="2.60317">
        <ele>633.6</ele>
        <time>2022-05-21 18:00:09</time>
      </trkpt>
      <trkpt lat="42.39036" lon="2.60309">
        <ele>633</ele>
        <time>2022-05-21 18:00:10</time>
      </trkpt>
      <trkpt lat="42.39046" lon="2.60301">
        <ele>632.2</ele>
        <time>2022-05-21 18:00:11</time>
      </trkpt>
      <trkpt lat="42.39056" lon="2.60293">
        <ele>631.6</ele>
        <time>2022-05-21 18:00:12</time>
      </trkpt>
      <trkpt lat="42.39066" lon="2.60285">
        <ele>630.8</ele>
        <time>2022-05-21 18:00:13</time>
      </trkpt>
      <trkpt lat="42.39076" lon="2.60278">
        <ele>630.2</ele>
        <time>2022-05-21 18:00:14</time>
      </trkpt>
      <trkpt lat="42.39087" lon="2.60272">
        <ele>629.6</ele>
        <time>2022-05-21 18:00:15</time>
      </trkpt>
      <trkpt lat="42.39097" lon="2.60267">
        <ele>629</ele>
        <time>2022-05-21 18:00:16</time>
      </trkpt>
      <trkpt lat="42.39108" lon="2.60262">
        <ele>628.6</ele>
        <time>2022-05-21 18:00:17</time>
      </trkpt>
      <trkpt lat="42.39118" lon="2.60257">
        <ele>628</ele>
        <time>2022-05-21 18:00:18</time>
      </trkpt>
      <trkpt lat="42.39127" lon="2.6025">
        <ele>627.6</ele>
        <time>2022-05-21 18:00:19</time>
      </trkpt>
      <trkpt lat="42.39135" lon="2.60242">
        <ele>627.2</ele>
        <time>2022-05-21 18:00:20</time>
      </trkpt>
      <trkpt lat="42.39143" lon="2.60232">
        <ele>627</ele>
        <time>2022-05-21 18:00:21</time>
      </trkpt>
      <trkpt lat="42.39149" lon="2.60221">
        <ele>626.8</ele>
        <time>2022-05-21 18:00:22</time>
      </trkpt>
      <trkpt lat="42.39155" lon="2.6021">
        <ele>626.6</ele>
        <time>2022-05-21 18:00:23</time>
      </trkpt>
      <trkpt lat="42.3916" lon="2.602">
        <ele>626.6</ele>
        <time>2022-05-21 18:00:24</time>
      </trkpt>
      <trkpt lat="42.39166" lon="2.6019">
        <ele>626.4</ele>
        <time>2022-05-21 18:00:25</time>
      </trkpt>
      <trkpt lat="42.39173" lon="2.6018">
        <ele>626.4</ele>
        <time>2022-05-21 18:00:26</time>
      </trkpt>
      <trkpt lat="42.39178" lon="2.6017">
        <ele>626.4</ele>
        <time>2022-05-21 18:00:27</time>
      </trkpt>
      <trkpt lat="42.39184" lon="2.60161">
        <ele>626.2</ele>
        <time>2022-05-21 18:00:28</time>
      </trkpt>
      <trkpt lat="42.39188" lon="2.60151">
        <ele>626.2</ele>
        <time>2022-05-21 18:00:29</time>
      </trkpt>
      <trkpt lat="42.39193" lon="2.60141">
        <ele>626</ele>
        <time>2022-05-21 18:00:30</time>
      </trkpt>
      <trkpt lat="42.39197" lon="2.60131">
        <ele>626</ele>
        <time>2022-05-21 18:00:31</time>
      </trkpt>
      <trkpt lat="42.39202" lon="2.60122">
        <ele>625.8</ele>
        <time>2022-05-21 18:00:32</time>
      </trkpt>
      <trkpt lat="42.39207" lon="2.60113">
        <ele>625.6</ele>
        <time>2022-05-21 18:00:33</time>
      </trkpt>
      <trkpt lat="42.39213" lon="2.60106">
        <ele>625.4</ele>
        <time>2022-05-21 18:00:34</time>
      </trkpt>
      <trkpt lat="42.3922" lon="2.60102">
        <ele>625.4</ele>
        <time>2022-05-21 18:00:35</time>
      </trkpt>
      <trkpt lat="42.39228" lon="2.601">
        <ele>625.2</ele>
        <time>2022-05-21 18:00:36</time>
      </trkpt>
      <trkpt lat="42.39236" lon="2.60098">
        <ele>625.2</ele>
        <time>2022-05-21 18:00:37</time>
      </trkpt>
      <trkpt lat="42.39243" lon="2.60098">
        <ele>625</ele>
        <time>2022-05-21 18:00:38</time>
      </trkpt>
      <trkpt lat="42.39248" lon="2.60099">
        <ele>625</ele>
        <time>2022-05-21 18:00:39</time>
      </trkpt>
      <trkpt lat="42.39253" lon="2.60102">
        <ele>625</ele>
        <time>2022-05-21 18:00:40</time>
      </trkpt>
      <trkpt lat="42.39257" lon="2.60106">
        <ele>625</ele>
        <time>2022-05-21 18:00:41</time>
      </trkpt>
      <trkpt lat="42.39262" lon="2.6011">
        <ele>625</ele>
        <time>2022-05-21 18:00:42</time>
      </trkpt>
      <trkpt lat="42.39267" lon="2.60114">
        <ele>625</ele>
        <time>2022-05-21 18:00:43</time>
      </trkpt>
      <trkpt lat="42.39272" lon="2.60116">
        <ele>625</ele>
        <time>2022-05-21 18:00:44</time>
      </trkpt>
      <trkpt lat="42.39277" lon="2.60117">
        <ele>625</ele>
        <time>2022-05-21 18:00:45</time>
      </trkpt>
      <trkpt lat="42.39284" lon="2.60118">
        <ele>625</ele>
        <time>2022-05-21 18:00:46</time>
      </trkpt>
      <trkpt lat="42.3929" lon="2.60118">
        <ele>625</ele>
        <time>2022-05-21 18:00:47</time>
      </trkpt>
      <trkpt lat="42.39297" lon="2.60118">
        <ele>625</ele>
        <time>2022-05-21 18:00:48</time>
      </trkpt>
      <trkpt lat="42.39304" lon="2.60117">
        <ele>625</ele>
        <time>2022-05-21 18:00:49</time>
      </trkpt>
      <trkpt lat="42.39311" lon="2.60116">
        <ele>625</ele>
        <time>2022-05-21 18:00:50</time>
      </trkpt>
      <trkpt lat="42.39318" lon="2.60114">
        <ele>625.2</ele>
        <time>2022-05-21 18:00:51</time>
      </trkpt>
      <trkpt lat="42.39325" lon="2.60111">
        <ele>625.2</ele>
        <time>2022-05-21 18:00:52</time>
      </trkpt>
      <trkpt lat="42.39332" lon="2.60107">
        <ele>625.2</ele>
        <time>2022-05-21 18:00:53</time>
      </trkpt>
      <trkpt lat="42.39338" lon="2.60103">
        <ele>625.2</ele>
        <time>2022-05-21 18:00:54</time>
      </trkpt>
      <trkpt lat="42.39343" lon="2.60098">
        <ele>625.2</ele>
        <time>2022-05-21 18:00:55</time>
      </trkpt>
      <trkpt lat="42.39347" lon="2.60092">
        <ele>625.4</ele>
        <time>2022-05-21 18:00:56</time>
      </trkpt>
      <trkpt lat="42.39352" lon="2.60085">
        <ele>625.2</ele>
        <time>2022-05-21 18:00:57</time>
      </trkpt>
      <trkpt lat="42.39356" lon="2.60078">
        <ele>625.2</ele>
        <time>2022-05-21 18:00:58</time>
      </trkpt>
      <trkpt lat="42.3936" lon="2.60071">
        <ele>625.2</ele>
        <time>2022-05-21 18:00:59</time>
      </trkpt>
      <trkpt lat="42.39364" lon="2.60064">
        <ele>625.2</ele>
        <time>2022-05-21 18:01:00</time>
      </trkpt>
      <trkpt lat="42.39368" lon="2.60057">
        <ele>625</ele>
        <time>2022-05-21 18:01:01</time>
      </trkpt>
      <trkpt lat="42.3937" lon="2.6005">
        <ele>625</ele>
        <time>2022-05-21 18:01:02</time>
      </trkpt>
      <trkpt lat="42.39373" lon="2.60043">
        <ele>625</ele>
        <time>2022-05-21 18:01:03</time>
      </trkpt>
      <trkpt lat="42.39375" lon="2.60035">
        <ele>625</ele>
        <time>2022-05-21 18:01:04</time>
      </trkpt>
      <trkpt lat="42.39378" lon="2.60028">
        <ele>624.8</ele>
        <time>2022-05-21 18:01:05</time>
      </trkpt>
      <trkpt lat="42.39381" lon="2.60021">
        <ele>624.8</ele>
        <time>2022-05-21 18:01:06</time>
      </trkpt>
      <trkpt lat="42.39384" lon="2.60012">
        <ele>624.8</ele>
        <time>2022-05-21 18:01:07</time>
      </trkpt>
      <trkpt lat="42.39387" lon="2.60003">
        <ele>624.8</ele>
        <time>2022-05-21 18:01:08</time>
      </trkpt>
      <trkpt lat="42.39389" lon="2.59995">
        <ele>624.6</ele>
        <time>2022-05-21 18:01:09</time>
      </trkpt>
      <trkpt lat="42.39393" lon="2.59988">
        <ele>624.4</ele>
        <time>2022-05-21 18:01:10</time>
      </trkpt>
      <trkpt lat="42.39396" lon="2.5998">
        <ele>624.4</ele>
        <time>2022-05-21 18:01:11</time>
      </trkpt>
      <trkpt lat="42.394" lon="2.59973">
        <ele>624.2</ele>
        <time>2022-05-21 18:01:12</time>
      </trkpt>
      <trkpt lat="42.39405" lon="2.59966">
        <ele>623.8</ele>
        <time>2022-05-21 18:01:13</time>
      </trkpt>
      <trkpt lat="42.3941" lon="2.5996">
        <ele>623.6</ele>
        <time>2022-05-21 18:01:14</time>
      </trkpt>
      <trkpt lat="42.39416" lon="2.59955">
        <ele>623.4</ele>
        <time>2022-05-21 18:01:15</time>
      </trkpt>
      <trkpt lat="42.39422" lon="2.5995">
        <ele>623.2</ele>
        <time>2022-05-21 18:01:16</time>
      </trkpt>
      <trkpt lat="42.39429" lon="2.59946">
        <ele>623</ele>
        <time>2022-05-21 18:01:17</time>
      </trkpt>
      <trkpt lat="42.39435" lon="2.59944">
        <ele>622.6</ele>
        <time>2022-05-21 18:01:18</time>
      </trkpt>
      <trkpt lat="42.39442" lon="2.59943">
        <ele>622.4</ele>
        <time>2022-05-21 18:01:19</time>
      </trkpt>
      <trkpt lat="42.3945" lon="2.59943">
        <ele>622.2</ele>
        <time>2022-05-21 18:01:20</time>
      </trkpt>
      <trkpt lat="42.39456" lon="2.59945">
        <ele>621.8</ele>
        <time>2022-05-21 18:01:21</time>
      </trkpt>
      <trkpt lat="42.39463" lon="2.59948">
        <ele>621.6</ele>
        <time>2022-05-21 18:01:22</time>
      </trkpt>
      <trkpt lat="42.3947" lon="2.59952">
        <ele>621.4</ele>
        <time>2022-05-21 18:01:23</time>
      </trkpt>
      <trkpt lat="42.39477" lon="2.59955">
        <ele>621.2</ele>
        <time>2022-05-21 18:01:24</time>
      </trkpt>
      <trkpt lat="42.39485" lon="2.59957">
        <ele>621</ele>
        <time>2022-05-21 18:01:25</time>
      </trkpt>
      <trkpt lat="42.39493" lon="2.59959">
        <ele>620.8</ele>
        <time>2022-05-21 18:01:26</time>
      </trkpt>
      <trkpt lat="42.395" lon="2.5996">
        <ele>620.6</ele>
        <time>2022-05-21 18:01:27</time>
      </trkpt>
      <trkpt lat="42.39507" lon="2.59959">
        <ele>620.6</ele>
        <time>2022-05-21 18:01:28</time>
      </trkpt>
      <trkpt lat="42.39514" lon="2.59958">
        <ele>620.4</ele>
        <time>2022-05-21 18:01:29</time>
      </trkpt>
      <trkpt lat="42.39521" lon="2.59957">
        <ele>620.2</ele>
        <time>2022-05-21 18:01:30</time>
      </trkpt>
      <trkpt lat="42.39529" lon="2.59957">
        <ele>620.2</ele>
        <time>2022-05-21 18:01:31</time>
      </trkpt>
      <trkpt lat="42.39536" lon="2.59958">
        <ele>620</ele>
        <time>2022-05-21 18:01:32</time>
      </trkpt>
      <trkpt lat="42.39541" lon="2.59959">
        <ele>620</ele>
        <time>2022-05-21 18:01:33</time>
      </trkpt>
      <trkpt lat="42.39551" lon="2.59961">
        <ele>619.8</ele>
        <time>2022-05-21 18:01:34</time>
      </trkpt>
      <trkpt lat="42.39557" lon="2.59962">
        <ele>619.8</ele>
        <time>2022-05-21 18:01:35</time>
      </trkpt>
      <trkpt lat="42.39565" lon="2.59964">
        <ele>619.8</ele>
        <time>2022-05-21 18:01:36</time>
      </trkpt>
      <trkpt lat="42.39571" lon="2.59966">
        <ele>619.8</ele>
        <time>2022-05-21 18:01:37</time>
      </trkpt>
      <trkpt lat="42.39581" lon="2.59969">
        <ele>619.6</ele>
        <time>2022-05-21 18:01:38</time>
      </trkpt>
      <trkpt lat="42.39587" lon="2.59971">
        <ele>619.6</ele>
        <time>2022-05-21 18:01:39</time>
      </trkpt>
      <trkpt lat="42.39593" lon="2.59973">
        <ele>619.6</ele>
        <time>2022-05-21 18:01:40</time>
      </trkpt>
      <trkpt lat="42.39599" lon="2.59976">
        <ele>619.6</ele>
        <time>2022-05-21 18:01:41</time>
      </trkpt>
      <trkpt lat="42.39606" lon="2.59979">
        <ele>619.6</ele>
        <time>2022-05-21 18:01:42</time>
      </trkpt>
      <trkpt lat="42.39611" lon="2.59981">
        <ele>619.4</ele>
        <time>2022-05-21 18:01:43</time>
      </trkpt>
      <trkpt lat="42.39617" lon="2.59982">
        <ele>619.2</ele>
        <time>2022-05-21 18:01:44</time>
      </trkpt>
      <trkpt lat="42.3962" lon="2.59983">
        <ele>619.2</ele>
        <time>2022-05-21 18:01:45</time>
      </trkpt>
      <trkpt lat="42.39629" lon="2.59984">
        <ele>619</ele>
        <time>2022-05-21 18:01:46</time>
      </trkpt>
      <trkpt lat="42.39633" lon="2.59984">
        <ele>618.8</ele>
        <time>2022-05-21 18:01:47</time>
      </trkpt>
      <trkpt lat="42.39643" lon="2.59985">
        <ele>618.6</ele>
        <time>2022-05-21 18:01:48</time>
      </trkpt>
      <trkpt lat="42.39648" lon="2.59985">
        <ele>618.4</ele>
        <time>2022-05-21 18:01:49</time>
      </trkpt>
      <trkpt lat="42.39657" lon="2.59985">
        <ele>618.2</ele>
        <time>2022-05-21 18:01:50</time>
      </trkpt>
      <trkpt lat="42.3966" lon="2.59986">
        <ele>618</ele>
        <time>2022-05-21 18:01:51</time>
      </trkpt>
      <trkpt lat="42.39668" lon="2.5999">
        <ele>617.6</ele>
        <time>2022-05-21 18:01:52</time>
      </trkpt>
      <trkpt lat="42.39676" lon="2.59996">
        <ele>617.4</ele>
        <time>2022-05-21 18:01:53</time>
      </trkpt>
      <trkpt lat="42.39681" lon="2.60001">
        <ele>617.2</ele>
        <time>2022-05-21 18:01:54</time>
      </trkpt>
      <trkpt lat="42.39687" lon="2.60006">
        <ele>616.8</ele>
        <time>2022-05-21 18:01:55</time>
      </trkpt>
      <trkpt lat="42.39693" lon="2.6001">
        <ele>616.6</ele>
        <time>2022-05-21 18:01:56</time>
      </trkpt>
      <trkpt lat="42.39699" lon="2.60009">
        <ele>616.4</ele>
        <time>2022-05-21 18:01:57</time>
      </trkpt>
      <trkpt lat="42.39705" lon="2.60006">
        <ele>616.4</ele>
        <time>2022-05-21 18:01:58</time>
      </trkpt>
      <trkpt lat="42.39712" lon="2.60001">
        <ele>616.4</ele>
        <time>2022-05-21 18:01:59</time>
      </trkpt>
      <trkpt lat="42.39718" lon="2.59996">
        <ele>616.4</ele>
        <time>2022-05-21 18:02:00</time>
      </trkpt>
      <trkpt lat="42.39724" lon="2.59989">
        <ele>616.4</ele>
        <time>2022-05-21 18:02:01</time>
      </trkpt>
      <trkpt lat="42.3973" lon="2.59982">
        <ele>616.4</ele>
        <time>2022-05-21 18:02:02</time>
      </trkpt>
      <trkpt lat="42.39735" lon="2.59975">
        <ele>616.4</ele>
        <time>2022-05-21 18:02:03</time>
      </trkpt>
      <trkpt lat="42.39741" lon="2.5997">
        <ele>616.4</ele>
        <time>2022-05-21 18:02:04</time>
      </trkpt>
      <trkpt lat="42.39747" lon="2.59965">
        <ele>616.2</ele>
        <time>2022-05-21 18:02:05</time>
      </trkpt>
      <trkpt lat="42.39753" lon="2.59962">
        <ele>616.2</ele>
        <time>2022-05-21 18:02:06</time>
      </trkpt>
      <trkpt lat="42.3976" lon="2.59959">
        <ele>616.2</ele>
        <time>2022-05-21 18:02:07</time>
      </trkpt>
      <trkpt lat="42.39767" lon="2.59956">
        <ele>616.2</ele>
        <time>2022-05-21 18:02:08</time>
      </trkpt>
      <trkpt lat="42.39773" lon="2.59953">
        <ele>616.2</ele>
        <time>2022-05-21 18:02:09</time>
      </trkpt>
      <trkpt lat="42.39779" lon="2.5995">
        <ele>616.2</ele>
        <time>2022-05-21 18:02:10</time>
      </trkpt>
      <trkpt lat="42.39785" lon="2.59948">
        <ele>616</ele>
        <time>2022-05-21 18:02:11</time>
      </trkpt>
      <trkpt lat="42.3979" lon="2.59945">
        <ele>616</ele>
        <time>2022-05-21 18:02:12</time>
      </trkpt>
      <trkpt lat="42.39795" lon="2.59943">
        <ele>616</ele>
        <time>2022-05-21 18:02:13</time>
      </trkpt>
      <trkpt lat="42.39801" lon="2.5994">
        <ele>616</ele>
        <time>2022-05-21 18:02:14</time>
      </trkpt>
      <trkpt lat="42.39807" lon="2.59937">
        <ele>616</ele>
        <time>2022-05-21 18:02:15</time>
      </trkpt>
      <trkpt lat="42.39814" lon="2.59935">
        <ele>616</ele>
        <time>2022-05-21 18:02:16</time>
      </trkpt>
      <trkpt lat="42.3982" lon="2.59932">
        <ele>616</ele>
        <time>2022-05-21 18:02:17</time>
      </trkpt>
      <trkpt lat="42.39827" lon="2.59928">
        <ele>616</ele>
        <time>2022-05-21 18:02:18</time>
      </trkpt>
      <trkpt lat="42.39833" lon="2.59925">
        <ele>616</ele>
        <time>2022-05-21 18:02:19</time>
      </trkpt>
      <trkpt lat="42.39839" lon="2.59922">
        <ele>615.8</ele>
        <time>2022-05-21 18:02:20</time>
      </trkpt>
      <trkpt lat="42.39845" lon="2.59919">
        <ele>615.8</ele>
        <time>2022-05-21 18:02:21</time>
      </trkpt>
      <trkpt lat="42.39851" lon="2.59915">
        <ele>616</ele>
        <time>2022-05-21 18:02:22</time>
      </trkpt>
      <trkpt lat="42.39857" lon="2.59911">
        <ele>616</ele>
        <time>2022-05-21 18:02:23</time>
      </trkpt>
      <trkpt lat="42.39862" lon="2.59907">
        <ele>616</ele>
        <time>2022-05-21 18:02:24</time>
      </trkpt>
      <trkpt lat="42.39867" lon="2.59901">
        <ele>616</ele>
        <time>2022-05-21 18:02:25</time>
      </trkpt>
      <trkpt lat="42.39871" lon="2.59895">
        <ele>616</ele>
        <time>2022-05-21 18:02:26</time>
      </trkpt>
      <trkpt lat="42.39875" lon="2.59889">
        <ele>616</ele>
        <time>2022-05-21 18:02:27</time>
      </trkpt>
      <trkpt lat="42.39879" lon="2.59883">
        <ele>616</ele>
        <time>2022-05-21 18:02:28</time>
      </trkpt>
      <trkpt lat="42.39883" lon="2.59876">
        <ele>616</ele>
        <time>2022-05-21 18:02:29</time>
      </trkpt>
      <trkpt lat="42.39887" lon="2.5987">
        <ele>616</ele>
        <time>2022-05-21 18:02:30</time>
      </trkpt>
      <trkpt lat="42.39891" lon="2.59863">
        <ele>615.8</ele>
        <time>2022-05-21 18:02:31</time>
      </trkpt>
      <trkpt lat="42.39895" lon="2.59856">
        <ele>615.8</ele>
        <time>2022-05-21 18:02:32</time>
      </trkpt>
      <trkpt lat="42.39899" lon="2.59849">
        <ele>615.6</ele>
        <time>2022-05-21 18:02:33</time>
      </trkpt>
      <trkpt lat="42.39903" lon="2.59842">
        <ele>615.6</ele>
        <time>2022-05-21 18:02:34</time>
      </trkpt>
      <trkpt lat="42.39907" lon="2.59836">
        <ele>615.4</ele>
        <time>2022-05-21 18:02:35</time>
      </trkpt>
      <trkpt lat="42.39911" lon="2.59829">
        <ele>615.4</ele>
        <time>2022-05-21 18:02:36</time>
      </trkpt>
      <trkpt lat="42.39915" lon="2.59823">
        <ele>615.4</ele>
        <time>2022-05-21 18:02:37</time>
      </trkpt>
      <trkpt lat="42.39919" lon="2.59816">
        <ele>615.2</ele>
        <time>2022-05-21 18:02:38</time>
      </trkpt>
      <trkpt lat="42.39924" lon="2.5981">
        <ele>615.2</ele>
        <time>2022-05-21 18:02:39</time>
      </trkpt>
      <trkpt lat="42.3993" lon="2.59804">
        <ele>615</ele>
        <time>2022-05-21 18:02:40</time>
      </trkpt>
      <trkpt lat="42.39936" lon="2.598">
        <ele>615</ele>
        <time>2022-05-21 18:02:41</time>
      </trkpt>
      <trkpt lat="42.39942" lon="2.59795">
        <ele>614.8</ele>
        <time>2022-05-21 18:02:42</time>
      </trkpt>
      <trkpt lat="42.39947" lon="2.59791">
        <ele>614.8</ele>
        <time>2022-05-21 18:02:43</time>
      </trkpt>
      <trkpt lat="42.39953" lon="2.59788">
        <ele>614.6</ele>
        <time>2022-05-21 18:02:44</time>
      </trkpt>
      <trkpt lat="42.39959" lon="2.59786">
        <ele>614.6</ele>
        <time>2022-05-21 18:02:45</time>
      </trkpt>
      <trkpt lat="42.39965" lon="2.59784">
        <ele>614.4</ele>
        <time>2022-05-21 18:02:46</time>
      </trkpt>
      <trkpt lat="42.39972" lon="2.59781">
        <ele>614.4</ele>
        <time>2022-05-21 18:02:47</time>
      </trkpt>
      <trkpt lat="42.39979" lon="2.59779">
        <ele>614.4</ele>
        <time>2022-05-21 18:02:48</time>
      </trkpt>
      <trkpt lat="42.39986" lon="2.59777">
        <ele>614.4</ele>
        <time>2022-05-21 18:02:49</time>
      </trkpt>
      <trkpt lat="42.39992" lon="2.59774">
        <ele>614.2</ele>
        <time>2022-05-21 18:02:50</time>
      </trkpt>
      <trkpt lat="42.39998" lon="2.59771">
        <ele>614.2</ele>
        <time>2022-05-21 18:02:51</time>
      </trkpt>
      <trkpt lat="42.40004" lon="2.59767">
        <ele>614.2</ele>
        <time>2022-05-21 18:02:52</time>
      </trkpt>
      <trkpt lat="42.4001" lon="2.59764">
        <ele>614</ele>
        <time>2022-05-21 18:02:53</time>
      </trkpt>
      <trkpt lat="42.40016" lon="2.5976">
        <ele>614</ele>
        <time>2022-05-21 18:02:54</time>
      </trkpt>
      <trkpt lat="42.40023" lon="2.59755">
        <ele>613.8</ele>
        <time>2022-05-21 18:02:55</time>
      </trkpt>
      <trkpt lat="42.40029" lon="2.59751">
        <ele>613.6</ele>
        <time>2022-05-21 18:02:56</time>
      </trkpt>
      <trkpt lat="42.40035" lon="2.59747">
        <ele>613.6</ele>
        <time>2022-05-21 18:02:57</time>
      </trkpt>
      <trkpt lat="42.40041" lon="2.59744">
        <ele>613.4</ele>
        <time>2022-05-21 18:02:58</time>
      </trkpt>
      <trkpt lat="42.40047" lon="2.59742">
        <ele>613</ele>
        <time>2022-05-21 18:02:59</time>
      </trkpt>
      <trkpt lat="42.40053" lon="2.5974">
        <ele>612.8</ele>
        <time>2022-05-21 18:03:00</time>
      </trkpt>
      <trkpt lat="42.4006" lon="2.59741">
        <ele>612.6</ele>
        <time>2022-05-21 18:03:01</time>
      </trkpt>
      <trkpt lat="42.40065" lon="2.59742">
        <ele>612.2</ele>
        <time>2022-05-21 18:03:02</time>
      </trkpt>
      <trkpt lat="42.40071" lon="2.59746">
        <ele>611.8</ele>
        <time>2022-05-21 18:03:03</time>
      </trkpt>
      <trkpt lat="42.40077" lon="2.59751">
        <ele>611.4</ele>
        <time>2022-05-21 18:03:04</time>
      </trkpt>
      <trkpt lat="42.40083" lon="2.59758">
        <ele>611</ele>
        <time>2022-05-21 18:03:05</time>
      </trkpt>
      <trkpt lat="42.40089" lon="2.59765">
        <ele>610.4</ele>
        <time>2022-05-21 18:03:06</time>
      </trkpt>
      <trkpt lat="42.40095" lon="2.59772">
        <ele>610</ele>
        <time>2022-05-21 18:03:07</time>
      </trkpt>
      <trkpt lat="42.40101" lon="2.59778">
        <ele>609.4</ele>
        <time>2022-05-21 18:03:08</time>
      </trkpt>
      <trkpt lat="42.40109" lon="2.59788">
        <ele>609</ele>
        <time>2022-05-21 18:03:09</time>
      </trkpt>
      <trkpt lat="42.40116" lon="2.59797">
        <ele>608.8</ele>
        <time>2022-05-21 18:03:10</time>
      </trkpt>
      <trkpt lat="42.40123" lon="2.59806">
        <ele>608.6</ele>
        <time>2022-05-21 18:03:11</time>
      </trkpt>
      <trkpt lat="42.40131" lon="2.59816">
        <ele>608.2</ele>
        <time>2022-05-21 18:03:12</time>
      </trkpt>
      <trkpt lat="42.40138" lon="2.59826">
        <ele>607.8</ele>
        <time>2022-05-21 18:03:13</time>
      </trkpt>
      <trkpt lat="42.40145" lon="2.59837">
        <ele>607.4</ele>
        <time>2022-05-21 18:03:14</time>
      </trkpt>
      <trkpt lat="42.40151" lon="2.59848">
        <ele>607.2</ele>
        <time>2022-05-21 18:03:15</time>
      </trkpt>
      <trkpt lat="42.40156" lon="2.59859">
        <ele>607</ele>
        <time>2022-05-21 18:03:16</time>
      </trkpt>
      <trkpt lat="42.40159" lon="2.5987">
        <ele>606.8</ele>
        <time>2022-05-21 18:03:17</time>
      </trkpt>
      <trkpt lat="42.40162" lon="2.59881">
        <ele>606.8</ele>
        <time>2022-05-21 18:03:18</time>
      </trkpt>
      <trkpt lat="42.40164" lon="2.59892">
        <ele>606.6</ele>
        <time>2022-05-21 18:03:19</time>
      </trkpt>
      <trkpt lat="42.40167" lon="2.59902">
        <ele>606.6</ele>
        <time>2022-05-21 18:03:20</time>
      </trkpt>
      <trkpt lat="42.40171" lon="2.59912">
        <ele>606.4</ele>
        <time>2022-05-21 18:03:21</time>
      </trkpt>
      <trkpt lat="42.40174" lon="2.59922">
        <ele>606.4</ele>
        <time>2022-05-21 18:03:22</time>
      </trkpt>
      <trkpt lat="42.40178" lon="2.59931">
        <ele>606.4</ele>
        <time>2022-05-21 18:03:23</time>
      </trkpt>
      <trkpt lat="42.40182" lon="2.59939">
        <ele>606.2</ele>
        <time>2022-05-21 18:03:24</time>
      </trkpt>
      <trkpt lat="42.40186" lon="2.59948">
        <ele>606</ele>
        <time>2022-05-21 18:03:25</time>
      </trkpt>
      <trkpt lat="42.40191" lon="2.59956">
        <ele>606</ele>
        <time>2022-05-21 18:03:26</time>
      </trkpt>
      <trkpt lat="42.40195" lon="2.59964">
        <ele>605.8</ele>
        <time>2022-05-21 18:03:27</time>
      </trkpt>
      <trkpt lat="42.40201" lon="2.59971">
        <ele>605.8</ele>
        <time>2022-05-21 18:03:28</time>
      </trkpt>
      <trkpt lat="42.40206" lon="2.59977">
        <ele>605.8</ele>
        <time>2022-05-21 18:03:29</time>
      </trkpt>
      <trkpt lat="42.40212" lon="2.59982">
        <ele>605.6</ele>
        <time>2022-05-21 18:03:30</time>
      </trkpt>
      <trkpt lat="42.40219" lon="2.59987">
        <ele>605.6</ele>
        <time>2022-05-21 18:03:31</time>
      </trkpt>
      <trkpt lat="42.40225" lon="2.5999">
        <ele>605.6</ele>
        <time>2022-05-21 18:03:32</time>
      </trkpt>
      <trkpt lat="42.40232" lon="2.59991">
        <ele>605.6</ele>
        <time>2022-05-21 18:03:33</time>
      </trkpt>
      <trkpt lat="42.40238" lon="2.59992">
        <ele>605.6</ele>
        <time>2022-05-21 18:03:34</time>
      </trkpt>
      <trkpt lat="42.40245" lon="2.59993">
        <ele>605.8</ele>
        <time>2022-05-21 18:03:35</time>
      </trkpt>
      <trkpt lat="42.40251" lon="2.59993">
        <ele>605.8</ele>
        <time>2022-05-21 18:03:36</time>
      </trkpt>
      <trkpt lat="42.40258" lon="2.59992">
        <ele>605.8</ele>
        <time>2022-05-21 18:03:37</time>
      </trkpt>
      <trkpt lat="42.40264" lon="2.59991">
        <ele>606</ele>
        <time>2022-05-21 18:03:38</time>
      </trkpt>
      <trkpt lat="42.4027" lon="2.59991">
        <ele>606</ele>
        <time>2022-05-21 18:03:39</time>
      </trkpt>
      <trkpt lat="42.40277" lon="2.5999">
        <ele>606</ele>
        <time>2022-05-21 18:03:40</time>
      </trkpt>
      <trkpt lat="42.40283" lon="2.59989">
        <ele>606</ele>
        <time>2022-05-21 18:03:41</time>
      </trkpt>
      <trkpt lat="42.40288" lon="2.59989">
        <ele>606</ele>
        <time>2022-05-21 18:03:42</time>
      </trkpt>
      <trkpt lat="42.40294" lon="2.59988">
        <ele>606</ele>
        <time>2022-05-21 18:03:43</time>
      </trkpt>
      <trkpt lat="42.403" lon="2.59987">
        <ele>606</ele>
        <time>2022-05-21 18:03:44</time>
      </trkpt>
      <trkpt lat="42.40305" lon="2.59987">
        <ele>606</ele>
        <time>2022-05-21 18:03:45</time>
      </trkpt>
      <trkpt lat="42.40311" lon="2.59986">
        <ele>606</ele>
        <time>2022-05-21 18:03:46</time>
      </trkpt>
      <trkpt lat="42.40317" lon="2.59985">
        <ele>606</ele>
        <time>2022-05-21 18:03:47</time>
      </trkpt>
      <trkpt lat="42.40323" lon="2.59984">
        <ele>606</ele>
        <time>2022-05-21 18:03:48</time>
      </trkpt>
      <trkpt lat="42.40329" lon="2.59982">
        <ele>605.8</ele>
        <time>2022-05-21 18:03:49</time>
      </trkpt>
      <trkpt lat="42.40335" lon="2.5998">
        <ele>605.8</ele>
        <time>2022-05-21 18:03:50</time>
      </trkpt>
      <trkpt lat="42.40341" lon="2.59979">
        <ele>605.8</ele>
        <time>2022-05-21 18:03:51</time>
      </trkpt>
      <trkpt lat="42.40347" lon="2.59978">
        <ele>605.6</ele>
        <time>2022-05-21 18:03:52</time>
      </trkpt>
      <trkpt lat="42.40353" lon="2.59978">
        <ele>605.6</ele>
        <time>2022-05-21 18:03:53</time>
      </trkpt>
      <trkpt lat="42.40359" lon="2.59977">
        <ele>605.6</ele>
        <time>2022-05-21 18:03:54</time>
      </trkpt>
      <trkpt lat="42.40364" lon="2.59976">
        <ele>605.4</ele>
        <time>2022-05-21 18:03:55</time>
      </trkpt>
      <trkpt lat="42.4037" lon="2.59976">
        <ele>605.4</ele>
        <time>2022-05-21 18:03:56</time>
      </trkpt>
      <trkpt lat="42.40375" lon="2.59975">
        <ele>605.4</ele>
        <time>2022-05-21 18:03:57</time>
      </trkpt>
      <trkpt lat="42.40381" lon="2.59975">
        <ele>605.2</ele>
        <time>2022-05-21 18:03:58</time>
      </trkpt>
      <trkpt lat="42.40385" lon="2.59975">
        <ele>605.2</ele>
        <time>2022-05-21 18:03:59</time>
      </trkpt>
      <trkpt lat="42.4039" lon="2.59975">
        <ele>605.2</ele>
        <time>2022-05-21 18:04:00</time>
      </trkpt>
      <trkpt lat="42.40395" lon="2.59975">
        <ele>605.2</ele>
        <time>2022-05-21 18:04:01</time>
      </trkpt>
      <trkpt lat="42.40399" lon="2.59976">
        <ele>605.2</ele>
        <time>2022-05-21 18:04:02</time>
      </trkpt>
      <trkpt lat="42.40404" lon="2.59976">
        <ele>605.2</ele>
        <time>2022-05-21 18:04:03</time>
      </trkpt>
      <trkpt lat="42.40409" lon="2.59978">
        <ele>605.2</ele>
        <time>2022-05-21 18:04:04</time>
      </trkpt>
      <trkpt lat="42.40414" lon="2.59979">
        <ele>605</ele>
        <time>2022-05-21 18:04:05</time>
      </trkpt>
      <trkpt lat="42.4042" lon="2.5998">
        <ele>605</ele>
        <time>2022-05-21 18:04:06</time>
      </trkpt>
      <trkpt lat="42.40426" lon="2.59982">
        <ele>605</ele>
        <time>2022-05-21 18:04:07</time>
      </trkpt>
      <trkpt lat="42.40431" lon="2.59984">
        <ele>605</ele>
        <time>2022-05-21 18:04:08</time>
      </trkpt>
      <trkpt lat="42.40437" lon="2.59986">
        <ele>604.8</ele>
        <time>2022-05-21 18:04:09</time>
      </trkpt>
      <trkpt lat="42.40442" lon="2.59988">
        <ele>604.8</ele>
        <time>2022-05-21 18:04:10</time>
      </trkpt>
      <trkpt lat="42.40448" lon="2.59991">
        <ele>604.6</ele>
        <time>2022-05-21 18:04:11</time>
      </trkpt>
      <trkpt lat="42.40453" lon="2.59994">
        <ele>604.6</ele>
        <time>2022-05-21 18:04:12</time>
      </trkpt>
      <trkpt lat="42.40459" lon="2.59996">
        <ele>604.6</ele>
        <time>2022-05-21 18:04:13</time>
      </trkpt>
      <trkpt lat="42.40464" lon="2.59997">
        <ele>604.4</ele>
        <time>2022-05-21 18:04:14</time>
      </trkpt>
      <trkpt lat="42.40467" lon="2.59995">
        <ele>604.4</ele>
        <time>2022-05-21 18:04:15</time>
      </trkpt>
      <trkpt lat="42.40469" lon="2.5999">
        <ele>604.2</ele>
        <time>2022-05-21 18:04:16</time>
      </trkpt>
      <trkpt lat="42.40469" lon="2.59985">
        <ele>604</ele>
        <time>2022-05-21 18:04:17</time>
      </trkpt>
      <trkpt lat="42.40468" lon="2.5998">
        <ele>603.6</ele>
        <time>2022-05-21 18:04:18</time>
      </trkpt>
      <trkpt lat="42.40465" lon="2.59974">
        <ele>603.4</ele>
        <time>2022-05-21 18:04:19</time>
      </trkpt>
      <trkpt lat="42.4046" lon="2.59969">
        <ele>603</ele>
        <time>2022-05-21 18:04:20</time>
      </trkpt>
      <trkpt lat="42.40455" lon="2.59965">
        <ele>602.6</ele>
        <time>2022-05-21 18:04:21</time>
      </trkpt>
      <trkpt lat="42.40449" lon="2.59962">
        <ele>602.4</ele>
        <time>2022-05-21 18:04:22</time>
      </trkpt>
      <trkpt lat="42.40443" lon="2.59959">
        <ele>602</ele>
        <time>2022-05-21 18:04:23</time>
      </trkpt>
      <trkpt lat="42.40436" lon="2.59957">
        <ele>601.6</ele>
        <time>2022-05-21 18:04:24</time>
      </trkpt>
      <trkpt lat="42.40429" lon="2.59955">
        <ele>601.2</ele>
        <time>2022-05-21 18:04:25</time>
      </trkpt>
      <trkpt lat="42.40422" lon="2.59952">
        <ele>600.8</ele>
        <time>2022-05-21 18:04:26</time>
      </trkpt>
      <trkpt lat="42.40415" lon="2.5995">
        <ele>600.6</ele>
        <time>2022-05-21 18:04:27</time>
      </trkpt>
      <trkpt lat="42.40408" lon="2.59947">
        <ele>600.2</ele>
        <time>2022-05-21 18:04:28</time>
      </trkpt>
      <trkpt lat="42.40401" lon="2.59944">
        <ele>599.8</ele>
        <time>2022-05-21 18:04:29</time>
      </trkpt>
      <trkpt lat="42.40394" lon="2.5994">
        <ele>599.4</ele>
        <time>2022-05-21 18:04:30</time>
      </trkpt>
      <trkpt lat="42.40387" lon="2.59937">
        <ele>599</ele>
        <time>2022-05-21 18:04:31</time>
      </trkpt>
      <trkpt lat="42.40381" lon="2.59933">
        <ele>598.6</ele>
        <time>2022-05-21 18:04:32</time>
      </trkpt>
      <trkpt lat="42.40375" lon="2.59928">
        <ele>598.2</ele>
        <time>2022-05-21 18:04:33</time>
      </trkpt>
      <trkpt lat="42.40371" lon="2.59921">
        <ele>598</ele>
        <time>2022-05-21 18:04:34</time>
      </trkpt>
      <trkpt lat="42.40369" lon="2.59914">
        <ele>597.8</ele>
        <time>2022-05-21 18:04:35</time>
      </trkpt>
      <trkpt lat="42.40369" lon="2.59905">
        <ele>597.6</ele>
        <time>2022-05-21 18:04:36</time>
      </trkpt>
      <trkpt lat="42.4037" lon="2.59895">
        <ele>597.2</ele>
        <time>2022-05-21 18:04:37</time>
      </trkpt>
      <trkpt lat="42.40371" lon="2.59884">
        <ele>597</ele>
        <time>2022-05-21 18:04:38</time>
      </trkpt>
      <trkpt lat="42.40372" lon="2.59874">
        <ele>596.8</ele>
        <time>2022-05-21 18:04:39</time>
      </trkpt>
      <trkpt lat="42.40374" lon="2.59865">
        <ele>596.6</ele>
        <time>2022-05-21 18:04:40</time>
      </trkpt>
      <trkpt lat="42.40375" lon="2.59855">
        <ele>596.4</ele>
        <time>2022-05-21 18:04:41</time>
      </trkpt>
      <trkpt lat="42.40377" lon="2.59846">
        <ele>596.2</ele>
        <time>2022-05-21 18:04:42</time>
      </trkpt>
      <trkpt lat="42.40378" lon="2.59838">
        <ele>596.2</ele>
        <time>2022-05-21 18:04:43</time>
      </trkpt>
      <trkpt lat="42.4038" lon="2.59829">
        <ele>596</ele>
        <time>2022-05-21 18:04:44</time>
      </trkpt>
      <trkpt lat="42.40382" lon="2.5982">
        <ele>596</ele>
        <time>2022-05-21 18:04:45</time>
      </trkpt>
      <trkpt lat="42.40383" lon="2.59812">
        <ele>596</ele>
        <time>2022-05-21 18:04:46</time>
      </trkpt>
      <trkpt lat="42.40384" lon="2.59805">
        <ele>596</ele>
        <time>2022-05-21 18:04:47</time>
      </trkpt>
      <trkpt lat="42.40386" lon="2.59799">
        <ele>596.2</ele>
        <time>2022-05-21 18:04:48</time>
      </trkpt>
      <trkpt lat="42.40388" lon="2.59793">
        <ele>596.2</ele>
        <time>2022-05-21 18:04:49</time>
      </trkpt>
      <trkpt lat="42.4039" lon="2.59787">
        <ele>596.2</ele>
        <time>2022-05-21 18:04:50</time>
      </trkpt>
      <trkpt lat="42.40393" lon="2.5978">
        <ele>596.4</ele>
        <time>2022-05-21 18:04:51</time>
      </trkpt>
      <trkpt lat="42.40396" lon="2.59775">
        <ele>596.6</ele>
        <time>2022-05-21 18:04:52</time>
      </trkpt>
      <trkpt lat="42.40399" lon="2.59769">
        <ele>596.6</ele>
        <time>2022-05-21 18:04:53</time>
      </trkpt>
      <trkpt lat="42.40402" lon="2.59764">
        <ele>596.8</ele>
        <time>2022-05-21 18:04:54</time>
      </trkpt>
      <trkpt lat="42.40404" lon="2.59758">
        <ele>597</ele>
        <time>2022-05-21 18:04:55</time>
      </trkpt>
      <trkpt lat="42.40406" lon="2.59752">
        <ele>597</ele>
        <time>2022-05-21 18:04:56</time>
      </trkpt>
      <trkpt lat="42.40407" lon="2.59746">
        <ele>597.2</ele>
        <time>2022-05-21 18:04:57</time>
      </trkpt>
      <trkpt lat="42.40407" lon="2.5974">
        <ele>597.4</ele>
        <time>2022-05-21 18:04:58</time>
      </trkpt>
      <trkpt lat="42.40407" lon="2.59734">
        <ele>597.4</ele>
        <time>2022-05-21 18:04:59</time>
      </trkpt>
      <trkpt lat="42.40407" lon="2.59729">
        <ele>597.6</ele>
        <time>2022-05-21 18:05:00</time>
      </trkpt>
      <trkpt lat="42.40407" lon="2.59723">
        <ele>597.8</ele>
        <time>2022-05-21 18:05:01</time>
      </trkpt>
      <trkpt lat="42.40406" lon="2.59718">
        <ele>597.8</ele>
        <time>2022-05-21 18:05:02</time>
      </trkpt>
      <trkpt lat="42.40406" lon="2.59713">
        <ele>598</ele>
        <time>2022-05-21 18:05:03</time>
      </trkpt>
      <trkpt lat="42.40405" lon="2.59709">
        <ele>598.2</ele>
        <time>2022-05-21 18:05:04</time>
      </trkpt>
      <trkpt lat="42.40405" lon="2.59705">
        <ele>598.4</ele>
        <time>2022-05-21 18:05:05</time>
      </trkpt>
      <trkpt lat="42.40405" lon="2.59701">
        <ele>598.4</ele>
        <time>2022-05-21 18:05:06</time>
      </trkpt>
      <trkpt lat="42.40404" lon="2.59697">
        <ele>598.6</ele>
        <time>2022-05-21 18:05:07</time>
      </trkpt>
      <trkpt lat="42.40404" lon="2.59693">
        <ele>598.8</ele>
        <time>2022-05-21 18:05:08</time>
      </trkpt>
      <trkpt lat="42.40404" lon="2.59689">
        <ele>598.8</ele>
        <time>2022-05-21 18:05:09</time>
      </trkpt>
      <trkpt lat="42.40404" lon="2.59685">
        <ele>599</ele>
        <time>2022-05-21 18:05:10</time>
      </trkpt>
      <trkpt lat="42.40403" lon="2.5968">
        <ele>599.2</ele>
        <time>2022-05-21 18:05:11</time>
      </trkpt>
      <trkpt lat="42.40404" lon="2.59676">
        <ele>599.4</ele>
        <time>2022-05-21 18:05:12</time>
      </trkpt>
      <trkpt lat="42.40404" lon="2.59672">
        <ele>599.4</ele>
        <time>2022-05-21 18:05:13</time>
      </trkpt>
      <trkpt lat="42.40404" lon="2.59668">
        <ele>599.6</ele>
        <time>2022-05-21 18:05:14</time>
      </trkpt>
      <trkpt lat="42.40405" lon="2.59664">
        <ele>599.8</ele>
        <time>2022-05-21 18:05:15</time>
      </trkpt>
      <trkpt lat="42.40405" lon="2.5966">
        <ele>599.8</ele>
        <time>2022-05-21 18:05:16</time>
      </trkpt>
      <trkpt lat="42.40406" lon="2.59656">
        <ele>600</ele>
        <time>2022-05-21 18:05:17</time>
      </trkpt>
      <trkpt lat="42.40407" lon="2.59652">
        <ele>600.2</ele>
        <time>2022-05-21 18:05:18</time>
      </trkpt>
      <trkpt lat="42.40408" lon="2.59648">
        <ele>600.4</ele>
        <time>2022-05-21 18:05:19</time>
      </trkpt>
      <trkpt lat="42.40409" lon="2.59644">
        <ele>600.6</ele>
        <time>2022-05-21 18:05:20</time>
      </trkpt>
      <trkpt lat="42.40411" lon="2.59641">
        <ele>600.6</ele>
        <time>2022-05-21 18:05:21</time>
      </trkpt>
      <trkpt lat="42.40412" lon="2.59637">
        <ele>600.8</ele>
        <time>2022-05-21 18:05:22</time>
      </trkpt>
      <trkpt lat="42.40414" lon="2.59634">
        <ele>601</ele>
        <time>2022-05-21 18:05:23</time>
      </trkpt>
      <trkpt lat="42.40416" lon="2.59631">
        <ele>601.2</ele>
        <time>2022-05-21 18:05:24</time>
      </trkpt>
      <trkpt lat="42.40418" lon="2.59628">
        <ele>601.2</ele>
        <time>2022-05-21 18:05:25</time>
      </trkpt>
      <trkpt lat="42.4042" lon="2.59625">
        <ele>601.4</ele>
        <time>2022-05-21 18:05:26</time>
      </trkpt>
      <trkpt lat="42.40422" lon="2.59622">
        <ele>601.6</ele>
        <time>2022-05-21 18:05:27</time>
      </trkpt>
      <trkpt lat="42.40424" lon="2.5962">
        <ele>601.6</ele>
        <time>2022-05-21 18:05:28</time>
      </trkpt>
      <trkpt lat="42.40427" lon="2.59617">
        <ele>601.8</ele>
        <time>2022-05-21 18:05:29</time>
      </trkpt>
      <trkpt lat="42.40429" lon="2.59614">
        <ele>602</ele>
        <time>2022-05-21 18:05:30</time>
      </trkpt>
      <trkpt lat="42.40431" lon="2.59611">
        <ele>602.2</ele>
        <time>2022-05-21 18:05:31</time>
      </trkpt>
      <trkpt lat="42.40432" lon="2.59608">
        <ele>602.2</ele>
        <time>2022-05-21 18:05:32</time>
      </trkpt>
      <trkpt lat="42.40434" lon="2.59605">
        <ele>602.4</ele>
        <time>2022-05-21 18:05:33</time>
      </trkpt>
      <trkpt lat="42.40436" lon="2.59603">
        <ele>602.4</ele>
        <time>2022-05-21 18:05:34</time>
      </trkpt>
      <trkpt lat="42.40439" lon="2.596">
        <ele>602.6</ele>
        <time>2022-05-21 18:05:35</time>
      </trkpt>
      <trkpt lat="42.4044" lon="2.59597">
        <ele>602.8</ele>
        <time>2022-05-21 18:05:36</time>
      </trkpt>
      <trkpt lat="42.40442" lon="2.59595">
        <ele>602.8</ele>
        <time>2022-05-21 18:05:37</time>
      </trkpt>
      <trkpt lat="42.40444" lon="2.59592">
        <ele>603</ele>
        <time>2022-05-21 18:05:38</time>
      </trkpt>
      <trkpt lat="42.40446" lon="2.59589">
        <ele>603.2</ele>
        <time>2022-05-21 18:05:39</time>
      </trkpt>
      <trkpt lat="42.40448" lon="2.59587">
        <ele>603.4</ele>
        <time>2022-05-21 18:05:40</time>
      </trkpt>
      <trkpt lat="42.40449" lon="2.59584">
        <ele>603.4</ele>
        <time>2022-05-21 18:05:41</time>
      </trkpt>
      <trkpt lat="42.40451" lon="2.59581">
        <ele>603.6</ele>
        <time>2022-05-21 18:05:42</time>
      </trkpt>
      <trkpt lat="42.40453" lon="2.59579">
        <ele>603.8</ele>
        <time>2022-05-21 18:05:43</time>
      </trkpt>
      <trkpt lat="42.40455" lon="2.59576">
        <ele>603.8</ele>
        <time>2022-05-21 18:05:44</time>
      </trkpt>
      <trkpt lat="42.40457" lon="2.59574">
        <ele>604</ele>
        <time>2022-05-21 18:05:45</time>
      </trkpt>
      <trkpt lat="42.40458" lon="2.59571">
        <ele>604.2</ele>
        <time>2022-05-21 18:05:46</time>
      </trkpt>
      <trkpt lat="42.4046" lon="2.59569">
        <ele>604.2</ele>
        <time>2022-05-21 18:05:47</time>
      </trkpt>
      <trkpt lat="42.40462" lon="2.59566">
        <ele>604.4</ele>
        <time>2022-05-21 18:05:48</time>
      </trkpt>
      <trkpt lat="42.40463" lon="2.59564">
        <ele>604.6</ele>
        <time>2022-05-21 18:05:49</time>
      </trkpt>
      <trkpt lat="42.40464" lon="2.59561">
        <ele>604.6</ele>
        <time>2022-05-21 18:05:50</time>
      </trkpt>
      <trkpt lat="42.40465" lon="2.59559">
        <ele>604.8</ele>
        <time>2022-05-21 18:05:51</time>
      </trkpt>
      <trkpt lat="42.40466" lon="2.59556">
        <ele>605</ele>
        <time>2022-05-21 18:05:52</time>
      </trkpt>
      <trkpt lat="42.40467" lon="2.59553">
        <ele>605.2</ele>
        <time>2022-05-21 18:05:53</time>
      </trkpt>
      <trkpt lat="42.40468" lon="2.5955">
        <ele>605.4</ele>
        <time>2022-05-21 18:05:54</time>
      </trkpt>
      <trkpt lat="42.40469" lon="2.59547">
        <ele>605.4</ele>
        <time>2022-05-21 18:05:55</time>
      </trkpt>
      <trkpt lat="42.4047" lon="2.59544">
        <ele>605.6</ele>
        <time>2022-05-21 18:05:56</time>
      </trkpt>
      <trkpt lat="42.4047" lon="2.5954">
        <ele>605.8</ele>
        <time>2022-05-21 18:05:57</time>
      </trkpt>
      <trkpt lat="42.40471" lon="2.59536">
        <ele>605.8</ele>
        <time>2022-05-21 18:05:58</time>
      </trkpt>
      <trkpt lat="42.40471" lon="2.59533">
        <ele>606</ele>
        <time>2022-05-21 18:05:59</time>
      </trkpt>
      <trkpt lat="42.40472" lon="2.5953">
        <ele>606.2</ele>
        <time>2022-05-21 18:06:00</time>
      </trkpt>
      <trkpt lat="42.40473" lon="2.59526">
        <ele>606.2</ele>
        <time>2022-05-21 18:06:01</time>
      </trkpt>
      <trkpt lat="42.40473" lon="2.59523">
        <ele>606.4</ele>
        <time>2022-05-21 18:06:02</time>
      </trkpt>
      <trkpt lat="42.40474" lon="2.5952">
        <ele>606.4</ele>
        <time>2022-05-21 18:06:03</time>
      </trkpt>
      <trkpt lat="42.40474" lon="2.59516">
        <ele>606.6</ele>
        <time>2022-05-21 18:06:04</time>
      </trkpt>
      <trkpt lat="42.40475" lon="2.59513">
        <ele>606.8</ele>
        <time>2022-05-21 18:06:05</time>
      </trkpt>
      <trkpt lat="42.40477" lon="2.59511">
        <ele>606.8</ele>
        <time>2022-05-21 18:06:06</time>
      </trkpt>
      <trkpt lat="42.40477" lon="2.59508">
        <ele>607</ele>
        <time>2022-05-21 18:06:07</time>
      </trkpt>
      <trkpt lat="42.40478" lon="2.59504">
        <ele>607</ele>
        <time>2022-05-21 18:06:08</time>
      </trkpt>
      <trkpt lat="42.4048" lon="2.59501">
        <ele>607.2</ele>
        <time>2022-05-21 18:06:09</time>
      </trkpt>
      <trkpt lat="42.40481" lon="2.59498">
        <ele>607.4</ele>
        <time>2022-05-21 18:06:10</time>
      </trkpt>
      <trkpt lat="42.40482" lon="2.59495">
        <ele>607.4</ele>
        <time>2022-05-21 18:06:11</time>
      </trkpt>
      <trkpt lat="42.40484" lon="2.59492">
        <ele>607.6</ele>
        <time>2022-05-21 18:06:12</time>
      </trkpt>
      <trkpt lat="42.40485" lon="2.59489">
        <ele>607.6</ele>
        <time>2022-05-21 18:06:13</time>
      </trkpt>
      <trkpt lat="42.40487" lon="2.59486">
        <ele>607.8</ele>
        <time>2022-05-21 18:06:14</time>
      </trkpt>
      <trkpt lat="42.40488" lon="2.59483">
        <ele>608</ele>
        <time>2022-05-21 18:06:15</time>
      </trkpt>
      <trkpt lat="42.4049" lon="2.5948">
        <ele>608</ele>
        <time>2022-05-21 18:06:16</time>
      </trkpt>
      <trkpt lat="42.40491" lon="2.59477">
        <ele>608.2</ele>
        <time>2022-05-21 18:06:17</time>
      </trkpt>
      <trkpt lat="42.40493" lon="2.59474">
        <ele>608.4</ele>
        <time>2022-05-21 18:06:18</time>
      </trkpt>
      <trkpt lat="42.40494" lon="2.59471">
        <ele>608.4</ele>
        <time>2022-05-21 18:06:19</time>
      </trkpt>
      <trkpt lat="42.40496" lon="2.59467">
        <ele>608.6</ele>
        <time>2022-05-21 18:06:20</time>
      </trkpt>
      <trkpt lat="42.40497" lon="2.59464">
        <ele>608.8</ele>
        <time>2022-05-21 18:06:21</time>
      </trkpt>
      <trkpt lat="42.40499" lon="2.59461">
        <ele>608.8</ele>
        <time>2022-05-21 18:06:22</time>
      </trkpt>
      <trkpt lat="42.405" lon="2.59458">
        <ele>609</ele>
        <time>2022-05-21 18:06:23</time>
      </trkpt>
      <trkpt lat="42.40501" lon="2.59455">
        <ele>609.2</ele>
        <time>2022-05-21 18:06:24</time>
      </trkpt>
      <trkpt lat="42.40502" lon="2.59451">
        <ele>609.2</ele>
        <time>2022-05-21 18:06:25</time>
      </trkpt>
      <trkpt lat="42.40503" lon="2.59449">
        <ele>609.4</ele>
        <time>2022-05-21 18:06:26</time>
      </trkpt>
      <trkpt lat="42.40504" lon="2.59445">
        <ele>609.6</ele>
        <time>2022-05-21 18:06:27</time>
      </trkpt>
      <trkpt lat="42.40505" lon="2.59442">
        <ele>609.8</ele>
        <time>2022-05-21 18:06:28</time>
      </trkpt>
      <trkpt lat="42.40505" lon="2.59438">
        <ele>609.8</ele>
        <time>2022-05-21 18:06:29</time>
      </trkpt>
      <trkpt lat="42.40506" lon="2.59435">
        <ele>610</ele>
        <time>2022-05-21 18:06:30</time>
      </trkpt>
      <trkpt lat="42.40507" lon="2.59431">
        <ele>610.2</ele>
        <time>2022-05-21 18:06:31</time>
      </trkpt>
      <trkpt lat="42.40507" lon="2.59427">
        <ele>610.2</ele>
        <time>2022-05-21 18:06:32</time>
      </trkpt>
      <trkpt lat="42.40507" lon="2.59424">
        <ele>610.4</ele>
        <time>2022-05-21 18:06:33</time>
      </trkpt>
      <trkpt lat="42.40508" lon="2.5942">
        <ele>610.4</ele>
        <time>2022-05-21 18:06:34</time>
      </trkpt>
      <trkpt lat="42.40507" lon="2.59416">
        <ele>610.6</ele>
        <time>2022-05-21 18:06:35</time>
      </trkpt>
      <trkpt lat="42.40507" lon="2.59413">
        <ele>610.6</ele>
        <time>2022-05-21 18:06:36</time>
      </trkpt>
      <trkpt lat="42.40507" lon="2.59409">
        <ele>610.8</ele>
        <time>2022-05-21 18:06:37</time>
      </trkpt>
      <trkpt lat="42.40507" lon="2.59406">
        <ele>611</ele>
        <time>2022-05-21 18:06:38</time>
      </trkpt>
      <trkpt lat="42.40507" lon="2.59403">
        <ele>611.2</ele>
        <time>2022-05-21 18:06:39</time>
      </trkpt>
      <trkpt lat="42.40507" lon="2.59399">
        <ele>611.4</ele>
        <time>2022-05-21 18:06:40</time>
      </trkpt>
      <trkpt lat="42.40507" lon="2.59396">
        <ele>611.6</ele>
        <time>2022-05-21 18:06:41</time>
      </trkpt>
      <trkpt lat="42.40507" lon="2.59393">
        <ele>611.6</ele>
        <time>2022-05-21 18:06:42</time>
      </trkpt>
      <trkpt lat="42.40507" lon="2.5939">
        <ele>611.8</ele>
        <time>2022-05-21 18:06:43</time>
      </trkpt>
      <trkpt lat="42.40507" lon="2.59386">
        <ele>612</ele>
        <time>2022-05-21 18:06:44</time>
      </trkpt>
      <trkpt lat="42.40507" lon="2.59383">
        <ele>612.2</ele>
        <time>2022-05-21 18:06:45</time>
      </trkpt>
      <trkpt lat="42.40507" lon="2.5938">
        <ele>612.4</ele>
        <time>2022-05-21 18:06:46</time>
      </trkpt>
      <trkpt lat="42.40507" lon="2.59377">
        <ele>612.6</ele>
        <time>2022-05-21 18:06:47</time>
      </trkpt>
      <trkpt lat="42.40507" lon="2.59374">
        <ele>612.6</ele>
        <time>2022-05-21 18:06:48</time>
      </trkpt>
      <trkpt lat="42.40507" lon="2.59371">
        <ele>612.8</ele>
        <time>2022-05-21 18:06:49</time>
      </trkpt>
      <trkpt lat="42.40507" lon="2.59367">
        <ele>613</ele>
        <time>2022-05-21 18:06:50</time>
      </trkpt>
      <trkpt lat="42.40507" lon="2.59364">
        <ele>613.2</ele>
        <time>2022-05-21 18:06:51</time>
      </trkpt>
      <trkpt lat="42.40508" lon="2.59361">
        <ele>613.4</ele>
        <time>2022-05-21 18:06:52</time>
      </trkpt>
      <trkpt lat="42.40508" lon="2.59358">
        <ele>613.6</ele>
        <time>2022-05-21 18:06:53</time>
      </trkpt>
      <trkpt lat="42.40508" lon="2.59355">
        <ele>613.8</ele>
        <time>2022-05-21 18:06:54</time>
      </trkpt>
      <trkpt lat="42.40509" lon="2.59352">
        <ele>614</ele>
        <time>2022-05-21 18:06:55</time>
      </trkpt>
      <trkpt lat="42.4051" lon="2.5935">
        <ele>614</ele>
        <time>2022-05-21 18:06:56</time>
      </trkpt>
      <trkpt lat="42.4051" lon="2.59347">
        <ele>614.2</ele>
        <time>2022-05-21 18:06:57</time>
      </trkpt>
      <trkpt lat="42.40511" lon="2.59345">
        <ele>614.4</ele>
        <time>2022-05-21 18:06:58</time>
      </trkpt>
      <trkpt lat="42.40511" lon="2.59342">
        <ele>614.6</ele>
        <time>2022-05-21 18:06:59</time>
      </trkpt>
      <trkpt lat="42.40512" lon="2.5934">
        <ele>614.8</ele>
        <time>2022-05-21 18:07:00</time>
      </trkpt>
      <trkpt lat="42.40512" lon="2.59337">
        <ele>615</ele>
        <time>2022-05-21 18:07:01</time>
      </trkpt>
      <trkpt lat="42.40513" lon="2.59335">
        <ele>615.2</ele>
        <time>2022-05-21 18:07:02</time>
      </trkpt>
      <trkpt lat="42.40513" lon="2.59332">
        <ele>615.2</ele>
        <time>2022-05-21 18:07:03</time>
      </trkpt>
      <trkpt lat="42.40513" lon="2.5933">
        <ele>615.4</ele>
        <time>2022-05-21 18:07:04</time>
      </trkpt>
      <trkpt lat="42.40514" lon="2.59327">
        <ele>615.6</ele>
        <time>2022-05-21 18:07:05</time>
      </trkpt>
      <trkpt lat="42.40514" lon="2.59325">
        <ele>615.8</ele>
        <time>2022-05-21 18:07:06</time>
      </trkpt>
      <trkpt lat="42.40515" lon="2.59322">
        <ele>616</ele>
        <time>2022-05-21 18:07:07</time>
      </trkpt>
      <trkpt lat="42.40515" lon="2.5932">
        <ele>616</ele>
        <time>2022-05-21 18:07:08</time>
      </trkpt>
      <trkpt lat="42.40516" lon="2.59317">
        <ele>616.2</ele>
        <time>2022-05-21 18:07:09</time>
      </trkpt>
      <trkpt lat="42.40516" lon="2.59315">
        <ele>616.4</ele>
        <time>2022-05-21 18:07:10</time>
      </trkpt>
      <trkpt lat="42.40515" lon="2.59312">
        <ele>616.6</ele>
        <time>2022-05-21 18:07:11</time>
      </trkpt>
      <trkpt lat="42.40515" lon="2.5931">
        <ele>616.6</ele>
        <time>2022-05-21 18:07:12</time>
      </trkpt>
      <trkpt lat="42.40515" lon="2.59307">
        <ele>616.8</ele>
        <time>2022-05-21 18:07:13</time>
      </trkpt>
      <trkpt lat="42.40516" lon="2.59305">
        <ele>617</ele>
        <time>2022-05-21 18:07:14</time>
      </trkpt>
      <trkpt lat="42.40517" lon="2.59302">
        <ele>617.2</ele>
        <time>2022-05-21 18:07:15</time>
      </trkpt>
      <trkpt lat="42.40518" lon="2.593">
        <ele>617.4</ele>
        <time>2022-05-21 18:07:16</time>
      </trkpt>
      <trkpt lat="42.40519" lon="2.59297">
        <ele>617.4</ele>
        <time>2022-05-21 18:07:17</time>
      </trkpt>
      <trkpt lat="42.4052" lon="2.59294">
        <ele>617.6</ele>
        <time>2022-05-21 18:07:18</time>
      </trkpt>
      <trkpt lat="42.40521" lon="2.59291">
        <ele>617.8</ele>
        <time>2022-05-21 18:07:19</time>
      </trkpt>
      <trkpt lat="42.40522" lon="2.59288">
        <ele>618</ele>
        <time>2022-05-21 18:07:20</time>
      </trkpt>
      <trkpt lat="42.40523" lon="2.59285">
        <ele>618</ele>
        <time>2022-05-21 18:07:21</time>
      </trkpt>
      <trkpt lat="42.40524" lon="2.59281">
        <ele>618.2</ele>
        <time>2022-05-21 18:07:22</time>
      </trkpt>
      <trkpt lat="42.40526" lon="2.59279">
        <ele>618.4</ele>
        <time>2022-05-21 18:07:23</time>
      </trkpt>
      <trkpt lat="42.40527" lon="2.59276">
        <ele>618.6</ele>
        <time>2022-05-21 18:07:24</time>
      </trkpt>
      <trkpt lat="42.40528" lon="2.59273">
        <ele>618.6</ele>
        <time>2022-05-21 18:07:25</time>
      </trkpt>
      <trkpt lat="42.4053" lon="2.5927">
        <ele>618.8</ele>
        <time>2022-05-21 18:07:26</time>
      </trkpt>
      <trkpt lat="42.40531" lon="2.59268">
        <ele>619</ele>
        <time>2022-05-21 18:07:27</time>
      </trkpt>
      <trkpt lat="42.40533" lon="2.59265">
        <ele>619.2</ele>
        <time>2022-05-21 18:07:28</time>
      </trkpt>
      <trkpt lat="42.40534" lon="2.59263">
        <ele>619.2</ele>
        <time>2022-05-21 18:07:29</time>
      </trkpt>
      <trkpt lat="42.40535" lon="2.5926">
        <ele>619.4</ele>
        <time>2022-05-21 18:07:30</time>
      </trkpt>
      <trkpt lat="42.40537" lon="2.59258">
        <ele>619.6</ele>
        <time>2022-05-21 18:07:31</time>
      </trkpt>
      <trkpt lat="42.40538" lon="2.59255">
        <ele>619.8</ele>
        <time>2022-05-21 18:07:32</time>
      </trkpt>
      <trkpt lat="42.40539" lon="2.59252">
        <ele>619.8</ele>
        <time>2022-05-21 18:07:33</time>
      </trkpt>
      <trkpt lat="42.40541" lon="2.5925">
        <ele>620</ele>
        <time>2022-05-21 18:07:34</time>
      </trkpt>
      <trkpt lat="42.40542" lon="2.59247">
        <ele>620.2</ele>
        <time>2022-05-21 18:07:35</time>
      </trkpt>
      <trkpt lat="42.40543" lon="2.59244">
        <ele>620.2</ele>
        <time>2022-05-21 18:07:36</time>
      </trkpt>
      <trkpt lat="42.40544" lon="2.59241">
        <ele>620.4</ele>
        <time>2022-05-21 18:07:37</time>
      </trkpt>
      <trkpt lat="42.40545" lon="2.59238">
        <ele>620.6</ele>
        <time>2022-05-21 18:07:38</time>
      </trkpt>
      <trkpt lat="42.40546" lon="2.59235">
        <ele>620.8</ele>
        <time>2022-05-21 18:07:39</time>
      </trkpt>
      <trkpt lat="42.40547" lon="2.59232">
        <ele>620.8</ele>
        <time>2022-05-21 18:07:40</time>
      </trkpt>
      <trkpt lat="42.40549" lon="2.59229">
        <ele>621</ele>
        <time>2022-05-21 18:07:41</time>
      </trkpt>
      <trkpt lat="42.4055" lon="2.59227">
        <ele>621.2</ele>
        <time>2022-05-21 18:07:42</time>
      </trkpt>
      <trkpt lat="42.40552" lon="2.59224">
        <ele>621.4</ele>
        <time>2022-05-21 18:07:43</time>
      </trkpt>
      <trkpt lat="42.40553" lon="2.59221">
        <ele>621.4</ele>
        <time>2022-05-21 18:07:44</time>
      </trkpt>
      <trkpt lat="42.40554" lon="2.59219">
        <ele>621.6</ele>
        <time>2022-05-21 18:07:45</time>
      </trkpt>
      <trkpt lat="42.40556" lon="2.59216">
        <ele>621.8</ele>
        <time>2022-05-21 18:07:46</time>
      </trkpt>
      <trkpt lat="42.40557" lon="2.59214">
        <ele>622</ele>
        <time>2022-05-21 18:07:47</time>
      </trkpt>
      <trkpt lat="42.40558" lon="2.59211">
        <ele>622</ele>
        <time>2022-05-21 18:07:48</time>
      </trkpt>
      <trkpt lat="42.40559" lon="2.59208">
        <ele>622.2</ele>
        <time>2022-05-21 18:07:49</time>
      </trkpt>
      <trkpt lat="42.4056" lon="2.59206">
        <ele>622.4</ele>
        <time>2022-05-21 18:07:50</time>
      </trkpt>
      <trkpt lat="42.40561" lon="2.59203">
        <ele>622.4</ele>
        <time>2022-05-21 18:07:51</time>
      </trkpt>
      <trkpt lat="42.40562" lon="2.59201">
        <ele>622.6</ele>
        <time>2022-05-21 18:07:52</time>
      </trkpt>
      <trkpt lat="42.40563" lon="2.59198">
        <ele>622.8</ele>
        <time>2022-05-21 18:07:53</time>
      </trkpt>
      <trkpt lat="42.40564" lon="2.59196">
        <ele>622.8</ele>
        <time>2022-05-21 18:07:54</time>
      </trkpt>
      <trkpt lat="42.40566" lon="2.59193">
        <ele>623</ele>
        <time>2022-05-21 18:07:55</time>
      </trkpt>
      <trkpt lat="42.40568" lon="2.5919">
        <ele>623.2</ele>
        <time>2022-05-21 18:07:56</time>
      </trkpt>
      <trkpt lat="42.40569" lon="2.59187">
        <ele>623.2</ele>
        <time>2022-05-21 18:07:57</time>
      </trkpt>
      <trkpt lat="42.4057" lon="2.59185">
        <ele>623.2</ele>
        <time>2022-05-21 18:07:58</time>
      </trkpt>
      <trkpt lat="42.40572" lon="2.59182">
        <ele>623.4</ele>
        <time>2022-05-21 18:07:59</time>
      </trkpt>
      <trkpt lat="42.40574" lon="2.59179">
        <ele>623.6</ele>
        <time>2022-05-21 18:08:00</time>
      </trkpt>
      <trkpt lat="42.40575" lon="2.59176">
        <ele>623.6</ele>
        <time>2022-05-21 18:08:01</time>
      </trkpt>
      <trkpt lat="42.40577" lon="2.59174">
        <ele>623.8</ele>
        <time>2022-05-21 18:08:02</time>
      </trkpt>
      <trkpt lat="42.40578" lon="2.59171">
        <ele>623.8</ele>
        <time>2022-05-21 18:08:03</time>
      </trkpt>
      <trkpt lat="42.40579" lon="2.59168">
        <ele>623.8</ele>
        <time>2022-05-21 18:08:04</time>
      </trkpt>
      <trkpt lat="42.4058" lon="2.59165">
        <ele>624</ele>
        <time>2022-05-21 18:08:05</time>
      </trkpt>
      <trkpt lat="42.40581" lon="2.59162">
        <ele>624</ele>
        <time>2022-05-21 18:08:06</time>
      </trkpt>
      <trkpt lat="42.40582" lon="2.5916">
        <ele>624.2</ele>
        <time>2022-05-21 18:08:07</time>
      </trkpt>
      <trkpt lat="42.40583" lon="2.59157">
        <ele>624.2</ele>
        <time>2022-05-21 18:08:08</time>
      </trkpt>
      <trkpt lat="42.40584" lon="2.59155">
        <ele>624.4</ele>
        <time>2022-05-21 18:08:09</time>
      </trkpt>
      <trkpt lat="42.40585" lon="2.59152">
        <ele>624.6</ele>
        <time>2022-05-21 18:08:10</time>
      </trkpt>
      <trkpt lat="42.40586" lon="2.5915">
        <ele>624.6</ele>
        <time>2022-05-21 18:08:11</time>
      </trkpt>
      <trkpt lat="42.40587" lon="2.59147">
        <ele>624.8</ele>
        <time>2022-05-21 18:08:12</time>
      </trkpt>
      <trkpt lat="42.40588" lon="2.59145">
        <ele>624.8</ele>
        <time>2022-05-21 18:08:13</time>
      </trkpt>
      <trkpt lat="42.40588" lon="2.59143">
        <ele>625</ele>
        <time>2022-05-21 18:08:14</time>
      </trkpt>
      <trkpt lat="42.40589" lon="2.59141">
        <ele>625.2</ele>
        <time>2022-05-21 18:08:15</time>
      </trkpt>
      <trkpt lat="42.4059" lon="2.59139">
        <ele>625.2</ele>
        <time>2022-05-21 18:08:16</time>
      </trkpt>
      <trkpt lat="42.40591" lon="2.59137">
        <ele>625.4</ele>
        <time>2022-05-21 18:08:17</time>
      </trkpt>
      <trkpt lat="42.40592" lon="2.59135">
        <ele>625.4</ele>
        <time>2022-05-21 18:08:18</time>
      </trkpt>
      <trkpt lat="42.40593" lon="2.59132">
        <ele>625.6</ele>
        <time>2022-05-21 18:08:19</time>
      </trkpt>
      <trkpt lat="42.40594" lon="2.5913">
        <ele>625.6</ele>
        <time>2022-05-21 18:08:20</time>
      </trkpt>
      <trkpt lat="42.40595" lon="2.59128">
        <ele>625.8</ele>
        <time>2022-05-21 18:08:21</time>
      </trkpt>
      <trkpt lat="42.40596" lon="2.59126">
        <ele>626</ele>
        <time>2022-05-21 18:08:22</time>
      </trkpt>
      <trkpt lat="42.40597" lon="2.59123">
        <ele>626</ele>
        <time>2022-05-21 18:08:23</time>
      </trkpt>
      <trkpt lat="42.40599" lon="2.59121">
        <ele>626.2</ele>
        <time>2022-05-21 18:08:24</time>
      </trkpt>
      <trkpt lat="42.406" lon="2.59118">
        <ele>626.2</ele>
        <time>2022-05-21 18:08:25</time>
      </trkpt>
      <trkpt lat="42.40601" lon="2.59116">
        <ele>626.4</ele>
        <time>2022-05-21 18:08:26</time>
      </trkpt>
      <trkpt lat="42.40603" lon="2.59114">
        <ele>626.6</ele>
        <time>2022-05-21 18:08:27</time>
      </trkpt>
      <trkpt lat="42.40604" lon="2.59111">
        <ele>626.6</ele>
        <time>2022-05-21 18:08:28</time>
      </trkpt>
      <trkpt lat="42.40605" lon="2.59109">
        <ele>626.8</ele>
        <time>2022-05-21 18:08:29</time>
      </trkpt>
      <trkpt lat="42.40607" lon="2.59106">
        <ele>626.8</ele>
        <time>2022-05-21 18:08:30</time>
      </trkpt>
      <trkpt lat="42.40608" lon="2.59104">
        <ele>627</ele>
        <time>2022-05-21 18:08:31</time>
      </trkpt>
      <trkpt lat="42.40609" lon="2.59101">
        <ele>627</ele>
        <time>2022-05-21 18:08:32</time>
      </trkpt>
      <trkpt lat="42.4061" lon="2.59099">
        <ele>627.2</ele>
        <time>2022-05-21 18:08:33</time>
      </trkpt>
      <trkpt lat="42.4061" lon="2.59097">
        <ele>627.2</ele>
        <time>2022-05-21 18:08:34</time>
      </trkpt>
      <trkpt lat="42.40611" lon="2.59095">
        <ele>627.4</ele>
        <time>2022-05-21 18:08:35</time>
      </trkpt>
      <trkpt lat="42.40612" lon="2.59092">
        <ele>627.6</ele>
        <time>2022-05-21 18:08:36</time>
      </trkpt>
      <trkpt lat="42.40614" lon="2.5909">
        <ele>627.6</ele>
        <time>2022-05-21 18:08:37</time>
      </trkpt>
      <trkpt lat="42.40615" lon="2.59087">
        <ele>627.8</ele>
        <time>2022-05-21 18:08:38</time>
      </trkpt>
      <trkpt lat="42.40616" lon="2.59085">
        <ele>627.8</ele>
        <time>2022-05-21 18:08:39</time>
      </trkpt>
      <trkpt lat="42.40617" lon="2.59082">
        <ele>628</ele>
        <time>2022-05-21 18:08:40</time>
      </trkpt>
      <trkpt lat="42.40618" lon="2.59079">
        <ele>628.2</ele>
        <time>2022-05-21 18:08:41</time>
      </trkpt>
      <trkpt lat="42.40619" lon="2.59077">
        <ele>628.2</ele>
        <time>2022-05-21 18:08:42</time>
      </trkpt>
      <trkpt lat="42.4062" lon="2.59074">
        <ele>628.4</ele>
        <time>2022-05-21 18:08:43</time>
      </trkpt>
      <trkpt lat="42.40621" lon="2.59071">
        <ele>628.4</ele>
        <time>2022-05-21 18:08:44</time>
      </trkpt>
      <trkpt lat="42.40623" lon="2.59069">
        <ele>628.6</ele>
        <time>2022-05-21 18:08:45</time>
      </trkpt>
      <trkpt lat="42.40624" lon="2.59066">
        <ele>628.6</ele>
        <time>2022-05-21 18:08:46</time>
      </trkpt>
      <trkpt lat="42.40625" lon="2.59064">
        <ele>628.8</ele>
        <time>2022-05-21 18:08:47</time>
      </trkpt>
      <trkpt lat="42.40626" lon="2.59061">
        <ele>628.8</ele>
        <time>2022-05-21 18:08:48</time>
      </trkpt>
      <trkpt lat="42.40627" lon="2.59059">
        <ele>629</ele>
        <time>2022-05-21 18:08:49</time>
      </trkpt>
      <trkpt lat="42.40628" lon="2.59057">
        <ele>629.2</ele>
        <time>2022-05-21 18:08:50</time>
      </trkpt>
      <trkpt lat="42.40629" lon="2.59055">
        <ele>629.2</ele>
        <time>2022-05-21 18:08:51</time>
      </trkpt>
      <trkpt lat="42.4063" lon="2.59052">
        <ele>629.4</ele>
        <time>2022-05-21 18:08:52</time>
      </trkpt>
      <trkpt lat="42.40631" lon="2.59049">
        <ele>629.4</ele>
        <time>2022-05-21 18:08:53</time>
      </trkpt>
      <trkpt lat="42.40632" lon="2.59047">
        <ele>629.6</ele>
        <time>2022-05-21 18:08:54</time>
      </trkpt>
      <trkpt lat="42.40633" lon="2.59045">
        <ele>629.6</ele>
        <time>2022-05-21 18:08:55</time>
      </trkpt>
      <trkpt lat="42.40633" lon="2.59043">
        <ele>629.8</ele>
        <time>2022-05-21 18:08:56</time>
      </trkpt>
      <trkpt lat="42.40634" lon="2.5904">
        <ele>630</ele>
        <time>2022-05-21 18:08:57</time>
      </trkpt>
      <trkpt lat="42.40635" lon="2.59038">
        <ele>630</ele>
        <time>2022-05-21 18:08:58</time>
      </trkpt>
      <trkpt lat="42.40636" lon="2.59035">
        <ele>630.2</ele>
        <time>2022-05-21 18:08:59</time>
      </trkpt>
      <trkpt lat="42.40637" lon="2.59033">
        <ele>630.2</ele>
        <time>2022-05-21 18:09:00</time>
      </trkpt>
      <trkpt lat="42.40638" lon="2.59031">
        <ele>630.4</ele>
        <time>2022-05-21 18:09:01</time>
      </trkpt>
      <trkpt lat="42.40639" lon="2.59029">
        <ele>630.6</ele>
        <time>2022-05-21 18:09:02</time>
      </trkpt>
      <trkpt lat="42.4064" lon="2.59026">
        <ele>630.6</ele>
        <time>2022-05-21 18:09:03</time>
      </trkpt>
      <trkpt lat="42.40641" lon="2.59024">
        <ele>630.8</ele>
        <time>2022-05-21 18:09:04</time>
      </trkpt>
      <trkpt lat="42.40642" lon="2.59021">
        <ele>630.8</ele>
        <time>2022-05-21 18:09:05</time>
      </trkpt>
      <trkpt lat="42.40643" lon="2.59019">
        <ele>631</ele>
        <time>2022-05-21 18:09:06</time>
      </trkpt>
      <trkpt lat="42.40644" lon="2.59017">
        <ele>631</ele>
        <time>2022-05-21 18:09:07</time>
      </trkpt>
      <trkpt lat="42.40645" lon="2.59014">
        <ele>631.2</ele>
        <time>2022-05-21 18:09:08</time>
      </trkpt>
      <trkpt lat="42.40646" lon="2.59012">
        <ele>631.2</ele>
        <time>2022-05-21 18:09:09</time>
      </trkpt>
      <trkpt lat="42.40647" lon="2.59009">
        <ele>631.4</ele>
        <time>2022-05-21 18:09:10</time>
      </trkpt>
      <trkpt lat="42.40648" lon="2.59006">
        <ele>631.6</ele>
        <time>2022-05-21 18:09:11</time>
      </trkpt>
      <trkpt lat="42.4065" lon="2.59004">
        <ele>631.6</ele>
        <time>2022-05-21 18:09:12</time>
      </trkpt>
      <trkpt lat="42.40651" lon="2.59001">
        <ele>631.8</ele>
        <time>2022-05-21 18:09:13</time>
      </trkpt>
      <trkpt lat="42.40652" lon="2.58999">
        <ele>631.8</ele>
        <time>2022-05-21 18:09:14</time>
      </trkpt>
      <trkpt lat="42.40653" lon="2.58996">
        <ele>632</ele>
        <time>2022-05-21 18:09:15</time>
      </trkpt>
      <trkpt lat="42.40655" lon="2.58993">
        <ele>632.2</ele>
        <time>2022-05-21 18:09:16</time>
      </trkpt>
      <trkpt lat="42.40656" lon="2.5899">
        <ele>632.2</ele>
        <time>2022-05-21 18:09:17</time>
      </trkpt>
      <trkpt lat="42.40657" lon="2.58988">
        <ele>632.4</ele>
        <time>2022-05-21 18:09:18</time>
      </trkpt>
      <trkpt lat="42.40658" lon="2.58986">
        <ele>632.6</ele>
        <time>2022-05-21 18:09:19</time>
      </trkpt>
      <trkpt lat="42.40659" lon="2.58983">
        <ele>632.6</ele>
        <time>2022-05-21 18:09:20</time>
      </trkpt>
      <trkpt lat="42.4066" lon="2.58981">
        <ele>632.8</ele>
        <time>2022-05-21 18:09:21</time>
      </trkpt>
      <trkpt lat="42.40661" lon="2.58978">
        <ele>632.8</ele>
        <time>2022-05-21 18:09:22</time>
      </trkpt>
      <trkpt lat="42.40662" lon="2.58976">
        <ele>633</ele>
        <time>2022-05-21 18:09:23</time>
      </trkpt>
      <trkpt lat="42.40663" lon="2.58973">
        <ele>633.2</ele>
        <time>2022-05-21 18:09:24</time>
      </trkpt>
      <trkpt lat="42.40664" lon="2.5897">
        <ele>633.2</ele>
        <time>2022-05-21 18:09:25</time>
      </trkpt>
      <trkpt lat="42.40665" lon="2.58967">
        <ele>633.4</ele>
        <time>2022-05-21 18:09:26</time>
      </trkpt>
      <trkpt lat="42.40666" lon="2.58965">
        <ele>633.4</ele>
        <time>2022-05-21 18:09:27</time>
      </trkpt>
      <trkpt lat="42.40667" lon="2.58963">
        <ele>633.6</ele>
        <time>2022-05-21 18:09:28</time>
      </trkpt>
      <trkpt lat="42.40668" lon="2.5896">
        <ele>633.8</ele>
        <time>2022-05-21 18:09:29</time>
      </trkpt>
      <trkpt lat="42.40669" lon="2.58958">
        <ele>633.8</ele>
        <time>2022-05-21 18:09:30</time>
      </trkpt>
      <trkpt lat="42.40669" lon="2.58956">
        <ele>634</ele>
        <time>2022-05-21 18:09:31</time>
      </trkpt>
      <trkpt lat="42.4067" lon="2.58954">
        <ele>634.2</ele>
        <time>2022-05-21 18:09:32</time>
      </trkpt>
      <trkpt lat="42.40671" lon="2.58951">
        <ele>634.2</ele>
        <time>2022-05-21 18:09:33</time>
      </trkpt>
      <trkpt lat="42.40671" lon="2.58949">
        <ele>634.4</ele>
        <time>2022-05-21 18:09:34</time>
      </trkpt>
      <trkpt lat="42.40673" lon="2.58947">
        <ele>634.4</ele>
        <time>2022-05-21 18:09:35</time>
      </trkpt>
      <trkpt lat="42.40674" lon="2.58944">
        <ele>634.6</ele>
        <time>2022-05-21 18:09:36</time>
      </trkpt>
      <trkpt lat="42.40675" lon="2.58942">
        <ele>634.8</ele>
        <time>2022-05-21 18:09:37</time>
      </trkpt>
      <trkpt lat="42.40676" lon="2.5894">
        <ele>634.8</ele>
        <time>2022-05-21 18:09:38</time>
      </trkpt>
      <trkpt lat="42.40677" lon="2.58937">
        <ele>635</ele>
        <time>2022-05-21 18:09:39</time>
      </trkpt>
      <trkpt lat="42.40678" lon="2.58934">
        <ele>635.2</ele>
        <time>2022-05-21 18:09:40</time>
      </trkpt>
      <trkpt lat="42.4068" lon="2.58932">
        <ele>635.4</ele>
        <time>2022-05-21 18:09:41</time>
      </trkpt>
      <trkpt lat="42.4068" lon="2.58929">
        <ele>635.4</ele>
        <time>2022-05-21 18:09:42</time>
      </trkpt>
      <trkpt lat="42.40682" lon="2.58927">
        <ele>635.6</ele>
        <time>2022-05-21 18:09:43</time>
      </trkpt>
      <trkpt lat="42.40683" lon="2.58925">
        <ele>635.8</ele>
        <time>2022-05-21 18:09:44</time>
      </trkpt>
      <trkpt lat="42.40684" lon="2.58922">
        <ele>635.8</ele>
        <time>2022-05-21 18:09:45</time>
      </trkpt>
      <trkpt lat="42.40685" lon="2.58919">
        <ele>636</ele>
        <time>2022-05-21 18:09:46</time>
      </trkpt>
      <trkpt lat="42.40686" lon="2.58917">
        <ele>636</ele>
        <time>2022-05-21 18:09:47</time>
      </trkpt>
      <trkpt lat="42.40687" lon="2.58914">
        <ele>636.2</ele>
        <time>2022-05-21 18:09:48</time>
      </trkpt>
      <trkpt lat="42.40689" lon="2.58912">
        <ele>636.2</ele>
        <time>2022-05-21 18:09:49</time>
      </trkpt>
      <trkpt lat="42.40691" lon="2.58909">
        <ele>636.4</ele>
        <time>2022-05-21 18:09:50</time>
      </trkpt>
      <trkpt lat="42.40693" lon="2.58907">
        <ele>636.6</ele>
        <time>2022-05-21 18:09:51</time>
      </trkpt>
      <trkpt lat="42.40695" lon="2.58905">
        <ele>636.6</ele>
        <time>2022-05-21 18:09:52</time>
      </trkpt>
      <trkpt lat="42.40697" lon="2.58903">
        <ele>636.8</ele>
        <time>2022-05-21 18:09:53</time>
      </trkpt>
      <trkpt lat="42.40698" lon="2.589">
        <ele>636.8</ele>
        <time>2022-05-21 18:09:54</time>
      </trkpt>
      <trkpt lat="42.407" lon="2.58898">
        <ele>637</ele>
        <time>2022-05-21 18:09:55</time>
      </trkpt>
      <trkpt lat="42.40701" lon="2.58895">
        <ele>637</ele>
        <time>2022-05-21 18:09:56</time>
      </trkpt>
      <trkpt lat="42.40703" lon="2.58892">
        <ele>637.2</ele>
        <time>2022-05-21 18:09:57</time>
      </trkpt>
      <trkpt lat="42.40705" lon="2.5889">
        <ele>637.4</ele>
        <time>2022-05-21 18:09:58</time>
      </trkpt>
      <trkpt lat="42.40706" lon="2.58888">
        <ele>637.4</ele>
        <time>2022-05-21 18:09:59</time>
      </trkpt>
      <trkpt lat="42.40708" lon="2.58886">
        <ele>637.6</ele>
        <time>2022-05-21 18:10:00</time>
      </trkpt>
      <trkpt lat="42.40709" lon="2.58884">
        <ele>637.6</ele>
        <time>2022-05-21 18:10:01</time>
      </trkpt>
      <trkpt lat="42.40711" lon="2.58883">
        <ele>637.8</ele>
        <time>2022-05-21 18:10:02</time>
      </trkpt>
      <trkpt lat="42.40713" lon="2.58881">
        <ele>638</ele>
        <time>2022-05-21 18:10:03</time>
      </trkpt>
      <trkpt lat="42.40715" lon="2.58879">
        <ele>638</ele>
        <time>2022-05-21 18:10:04</time>
      </trkpt>
      <trkpt lat="42.40716" lon="2.58877">
        <ele>638.2</ele>
        <time>2022-05-21 18:10:05</time>
      </trkpt>
      <trkpt lat="42.40718" lon="2.58875">
        <ele>638.4</ele>
        <time>2022-05-21 18:10:06</time>
      </trkpt>
      <trkpt lat="42.40719" lon="2.58873">
        <ele>638.4</ele>
        <time>2022-05-21 18:10:07</time>
      </trkpt>
      <trkpt lat="42.4072" lon="2.58871">
        <ele>638.6</ele>
        <time>2022-05-21 18:10:08</time>
      </trkpt>
      <trkpt lat="42.40721" lon="2.58868">
        <ele>638.6</ele>
        <time>2022-05-21 18:10:09</time>
      </trkpt>
      <trkpt lat="42.40723" lon="2.58866">
        <ele>638.8</ele>
        <time>2022-05-21 18:10:10</time>
      </trkpt>
      <trkpt lat="42.40724" lon="2.58863">
        <ele>639</ele>
        <time>2022-05-21 18:10:11</time>
      </trkpt>
      <trkpt lat="42.40726" lon="2.58861">
        <ele>639</ele>
        <time>2022-05-21 18:10:12</time>
      </trkpt>
      <trkpt lat="42.40727" lon="2.58859">
        <ele>639.2</ele>
        <time>2022-05-21 18:10:13</time>
      </trkpt>
      <trkpt lat="42.40728" lon="2.58856">
        <ele>639.2</ele>
        <time>2022-05-21 18:10:14</time>
      </trkpt>
      <trkpt lat="42.4073" lon="2.58853">
        <ele>639.4</ele>
        <time>2022-05-21 18:10:15</time>
      </trkpt>
      <trkpt lat="42.40731" lon="2.58851">
        <ele>639.6</ele>
        <time>2022-05-21 18:10:16</time>
      </trkpt>
      <trkpt lat="42.40732" lon="2.58849">
        <ele>639.6</ele>
        <time>2022-05-21 18:10:17</time>
      </trkpt>
      <trkpt lat="42.40733" lon="2.58847">
        <ele>639.8</ele>
        <time>2022-05-21 18:10:18</time>
      </trkpt>
      <trkpt lat="42.40735" lon="2.58846">
        <ele>640</ele>
        <time>2022-05-21 18:10:19</time>
      </trkpt>
      <trkpt lat="42.40736" lon="2.58844">
        <ele>640</ele>
        <time>2022-05-21 18:10:20</time>
      </trkpt>
      <trkpt lat="42.40737" lon="2.58843">
        <ele>640.2</ele>
        <time>2022-05-21 18:10:21</time>
      </trkpt>
      <trkpt lat="42.40738" lon="2.58841">
        <ele>640.4</ele>
        <time>2022-05-21 18:10:22</time>
      </trkpt>
      <trkpt lat="42.40739" lon="2.58839">
        <ele>640.4</ele>
        <time>2022-05-21 18:10:23</time>
      </trkpt>
      <trkpt lat="42.40739" lon="2.58836">
        <ele>640.6</ele>
        <time>2022-05-21 18:10:24</time>
      </trkpt>
      <trkpt lat="42.4074" lon="2.58834">
        <ele>640.6</ele>
        <time>2022-05-21 18:10:25</time>
      </trkpt>
      <trkpt lat="42.40741" lon="2.58831">
        <ele>640.8</ele>
        <time>2022-05-21 18:10:26</time>
      </trkpt>
      <trkpt lat="42.40742" lon="2.58829">
        <ele>641</ele>
        <time>2022-05-21 18:10:27</time>
      </trkpt>
      <trkpt lat="42.40743" lon="2.58826">
        <ele>641</ele>
        <time>2022-05-21 18:10:28</time>
      </trkpt>
      <trkpt lat="42.40745" lon="2.58823">
        <ele>641.2</ele>
        <time>2022-05-21 18:10:29</time>
      </trkpt>
      <trkpt lat="42.40746" lon="2.58821">
        <ele>641.4</ele>
        <time>2022-05-21 18:10:30</time>
      </trkpt>
      <trkpt lat="42.40747" lon="2.58818">
        <ele>641.4</ele>
        <time>2022-05-21 18:10:31</time>
      </trkpt>
      <trkpt lat="42.40748" lon="2.58816">
        <ele>641.6</ele>
        <time>2022-05-21 18:10:32</time>
      </trkpt>
      <trkpt lat="42.4075" lon="2.58813">
        <ele>641.6</ele>
        <time>2022-05-21 18:10:33</time>
      </trkpt>
      <trkpt lat="42.40751" lon="2.5881">
        <ele>641.8</ele>
        <time>2022-05-21 18:10:34</time>
      </trkpt>
      <trkpt lat="42.40752" lon="2.58806">
        <ele>641.8</ele>
        <time>2022-05-21 18:10:35</time>
      </trkpt>
      <trkpt lat="42.40753" lon="2.58803">
        <ele>642</ele>
        <time>2022-05-21 18:10:36</time>
      </trkpt>
      <trkpt lat="42.40754" lon="2.588">
        <ele>642.2</ele>
        <time>2022-05-21 18:10:37</time>
      </trkpt>
      <trkpt lat="42.40756" lon="2.58797">
        <ele>642.2</ele>
        <time>2022-05-21 18:10:38</time>
      </trkpt>
      <trkpt lat="42.40757" lon="2.58794">
        <ele>642.4</ele>
        <time>2022-05-21 18:10:39</time>
      </trkpt>
      <trkpt lat="42.40758" lon="2.58791">
        <ele>642.6</ele>
        <time>2022-05-21 18:10:40</time>
      </trkpt>
      <trkpt lat="42.40759" lon="2.58788">
        <ele>642.8</ele>
        <time>2022-05-21 18:10:41</time>
      </trkpt>
      <trkpt lat="42.40761" lon="2.58785">
        <ele>642.8</ele>
        <time>2022-05-21 18:10:42</time>
      </trkpt>
      <trkpt lat="42.40762" lon="2.58783">
        <ele>643</ele>
        <time>2022-05-21 18:10:43</time>
      </trkpt>
      <trkpt lat="42.40762" lon="2.5878">
        <ele>643.2</ele>
        <time>2022-05-21 18:10:44</time>
      </trkpt>
      <trkpt lat="42.40763" lon="2.58777">
        <ele>643.4</ele>
        <time>2022-05-21 18:10:45</time>
      </trkpt>
      <trkpt lat="42.40764" lon="2.58774">
        <ele>643.4</ele>
        <time>2022-05-21 18:10:46</time>
      </trkpt>
      <trkpt lat="42.40764" lon="2.5877">
        <ele>643.6</ele>
        <time>2022-05-21 18:10:47</time>
      </trkpt>
      <trkpt lat="42.40765" lon="2.58767">
        <ele>643.8</ele>
        <time>2022-05-21 18:10:48</time>
      </trkpt>
      <trkpt lat="42.40766" lon="2.58764">
        <ele>644</ele>
        <time>2022-05-21 18:10:49</time>
      </trkpt>
      <trkpt lat="42.40766" lon="2.58762">
        <ele>644</ele>
        <time>2022-05-21 18:10:50</time>
      </trkpt>
      <trkpt lat="42.40767" lon="2.58758">
        <ele>644.2</ele>
        <time>2022-05-21 18:10:51</time>
      </trkpt>
      <trkpt lat="42.40768" lon="2.58756">
        <ele>644.4</ele>
        <time>2022-05-21 18:10:52</time>
      </trkpt>
      <trkpt lat="42.40768" lon="2.58753">
        <ele>644.6</ele>
        <time>2022-05-21 18:10:53</time>
      </trkpt>
      <trkpt lat="42.40769" lon="2.5875">
        <ele>644.6</ele>
        <time>2022-05-21 18:10:54</time>
      </trkpt>
      <trkpt lat="42.4077" lon="2.58748">
        <ele>644.8</ele>
        <time>2022-05-21 18:10:55</time>
      </trkpt>
      <trkpt lat="42.40771" lon="2.58745">
        <ele>644.8</ele>
        <time>2022-05-21 18:10:56</time>
      </trkpt>
      <trkpt lat="42.40772" lon="2.58743">
        <ele>645</ele>
        <time>2022-05-21 18:10:57</time>
      </trkpt>
      <trkpt lat="42.40773" lon="2.5874">
        <ele>645.2</ele>
        <time>2022-05-21 18:10:58</time>
      </trkpt>
      <trkpt lat="42.40774" lon="2.58738">
        <ele>645.2</ele>
        <time>2022-05-21 18:10:59</time>
      </trkpt>
      <trkpt lat="42.40776" lon="2.58735">
        <ele>645.2</ele>
        <time>2022-05-21 18:11:00</time>
      </trkpt>
      <trkpt lat="42.40777" lon="2.58731">
        <ele>645.4</ele>
        <time>2022-05-21 18:11:01</time>
      </trkpt>
      <trkpt lat="42.40778" lon="2.58728">
        <ele>645.4</ele>
        <time>2022-05-21 18:11:02</time>
      </trkpt>
      <trkpt lat="42.40779" lon="2.58725">
        <ele>645.6</ele>
        <time>2022-05-21 18:11:03</time>
      </trkpt>
      <trkpt lat="42.40781" lon="2.58722">
        <ele>645.6</ele>
        <time>2022-05-21 18:11:04</time>
      </trkpt>
      <trkpt lat="42.40782" lon="2.58718">
        <ele>645.8</ele>
        <time>2022-05-21 18:11:05</time>
      </trkpt>
      <trkpt lat="42.40784" lon="2.58715">
        <ele>645.8</ele>
        <time>2022-05-21 18:11:06</time>
      </trkpt>
      <trkpt lat="42.40785" lon="2.58712">
        <ele>645.8</ele>
        <time>2022-05-21 18:11:07</time>
      </trkpt>
      <trkpt lat="42.40787" lon="2.58709">
        <ele>646</ele>
        <time>2022-05-21 18:11:08</time>
      </trkpt>
      <trkpt lat="42.40789" lon="2.58706">
        <ele>646</ele>
        <time>2022-05-21 18:11:09</time>
      </trkpt>
      <trkpt lat="42.40791" lon="2.58702">
        <ele>646</ele>
        <time>2022-05-21 18:11:10</time>
      </trkpt>
      <trkpt lat="42.40794" lon="2.58698">
        <ele>646</ele>
        <time>2022-05-21 18:11:11</time>
      </trkpt>
      <trkpt lat="42.40796" lon="2.58694">
        <ele>646.2</ele>
        <time>2022-05-21 18:11:12</time>
      </trkpt>
      <trkpt lat="42.40798" lon="2.58691">
        <ele>646.2</ele>
        <time>2022-05-21 18:11:13</time>
      </trkpt>
      <trkpt lat="42.40799" lon="2.58687">
        <ele>646.2</ele>
        <time>2022-05-21 18:11:14</time>
      </trkpt>
      <trkpt lat="42.40801" lon="2.58683">
        <ele>646.4</ele>
        <time>2022-05-21 18:11:15</time>
      </trkpt>
      <trkpt lat="42.40802" lon="2.58678">
        <ele>646.4</ele>
        <time>2022-05-21 18:11:16</time>
      </trkpt>
      <trkpt lat="42.40803" lon="2.58674">
        <ele>646.4</ele>
        <time>2022-05-21 18:11:17</time>
      </trkpt>
      <trkpt lat="42.40803" lon="2.58669">
        <ele>646.6</ele>
        <time>2022-05-21 18:11:18</time>
      </trkpt>
      <trkpt lat="42.40804" lon="2.58664">
        <ele>646.6</ele>
        <time>2022-05-21 18:11:19</time>
      </trkpt>
      <trkpt lat="42.40804" lon="2.5866">
        <ele>646.8</ele>
        <time>2022-05-21 18:11:20</time>
      </trkpt>
      <trkpt lat="42.40803" lon="2.58654">
        <ele>646.8</ele>
        <time>2022-05-21 18:11:21</time>
      </trkpt>
      <trkpt lat="42.40803" lon="2.58649">
        <ele>647</ele>
        <time>2022-05-21 18:11:22</time>
      </trkpt>
      <trkpt lat="42.40803" lon="2.58645">
        <ele>647</ele>
        <time>2022-05-21 18:11:23</time>
      </trkpt>
      <trkpt lat="42.40802" lon="2.58641">
        <ele>647.2</ele>
        <time>2022-05-21 18:11:24</time>
      </trkpt>
      <trkpt lat="42.40802" lon="2.58636">
        <ele>647.4</ele>
        <time>2022-05-21 18:11:25</time>
      </trkpt>
      <trkpt lat="42.40801" lon="2.58632">
        <ele>647.4</ele>
        <time>2022-05-21 18:11:26</time>
      </trkpt>
      <trkpt lat="42.40801" lon="2.58628">
        <ele>647.6</ele>
        <time>2022-05-21 18:11:27</time>
      </trkpt>
      <trkpt lat="42.408" lon="2.58624">
        <ele>647.6</ele>
        <time>2022-05-21 18:11:28</time>
      </trkpt>
      <trkpt lat="42.408" lon="2.5862">
        <ele>647.8</ele>
        <time>2022-05-21 18:11:29</time>
      </trkpt>
      <trkpt lat="42.40799" lon="2.58617">
        <ele>648</ele>
        <time>2022-05-21 18:11:30</time>
      </trkpt>
      <trkpt lat="42.40799" lon="2.58613">
        <ele>648.2</ele>
        <time>2022-05-21 18:11:31</time>
      </trkpt>
      <trkpt lat="42.40799" lon="2.5861">
        <ele>648.2</ele>
        <time>2022-05-21 18:11:32</time>
      </trkpt>
      <trkpt lat="42.40799" lon="2.58606">
        <ele>648.4</ele>
        <time>2022-05-21 18:11:33</time>
      </trkpt>
      <trkpt lat="42.40798" lon="2.58603">
        <ele>648.6</ele>
        <time>2022-05-21 18:11:34</time>
      </trkpt>
      <trkpt lat="42.40798" lon="2.58599">
        <ele>648.6</ele>
        <time>2022-05-21 18:11:35</time>
      </trkpt>
      <trkpt lat="42.40798" lon="2.58596">
        <ele>648.8</ele>
        <time>2022-05-21 18:11:36</time>
      </trkpt>
      <trkpt lat="42.40797" lon="2.58592">
        <ele>649</ele>
        <time>2022-05-21 18:11:37</time>
      </trkpt>
      <trkpt lat="42.40797" lon="2.58589">
        <ele>649</ele>
        <time>2022-05-21 18:11:38</time>
      </trkpt>
      <trkpt lat="42.40796" lon="2.58585">
        <ele>649.2</ele>
        <time>2022-05-21 18:11:39</time>
      </trkpt>
      <trkpt lat="42.40795" lon="2.58582">
        <ele>649.4</ele>
        <time>2022-05-21 18:11:40</time>
      </trkpt>
      <trkpt lat="42.40793" lon="2.58579">
        <ele>649.6</ele>
        <time>2022-05-21 18:11:41</time>
      </trkpt>
      <trkpt lat="42.40792" lon="2.58576">
        <ele>649.8</ele>
        <time>2022-05-21 18:11:42</time>
      </trkpt>
      <trkpt lat="42.40791" lon="2.58573">
        <ele>650</ele>
        <time>2022-05-21 18:11:43</time>
      </trkpt>
      <trkpt lat="42.40789" lon="2.5857">
        <ele>650</ele>
        <time>2022-05-21 18:11:44</time>
      </trkpt>
      <trkpt lat="42.40787" lon="2.58566">
        <ele>650.2</ele>
        <time>2022-05-21 18:11:45</time>
      </trkpt>
      <trkpt lat="42.40786" lon="2.58563">
        <ele>650.4</ele>
        <time>2022-05-21 18:11:46</time>
      </trkpt>
      <trkpt lat="42.40785" lon="2.5856">
        <ele>650.6</ele>
        <time>2022-05-21 18:11:47</time>
      </trkpt>
      <trkpt lat="42.40785" lon="2.58557">
        <ele>650.8</ele>
        <time>2022-05-21 18:11:48</time>
      </trkpt>
      <trkpt lat="42.40784" lon="2.58554">
        <ele>650.8</ele>
        <time>2022-05-21 18:11:49</time>
      </trkpt>
      <trkpt lat="42.40783" lon="2.58552">
        <ele>651</ele>
        <time>2022-05-21 18:11:50</time>
      </trkpt>
      <trkpt lat="42.40783" lon="2.58549">
        <ele>651.2</ele>
        <time>2022-05-21 18:11:51</time>
      </trkpt>
      <trkpt lat="42.40782" lon="2.58546">
        <ele>651.4</ele>
        <time>2022-05-21 18:11:52</time>
      </trkpt>
      <trkpt lat="42.40782" lon="2.58543">
        <ele>651.4</ele>
        <time>2022-05-21 18:11:53</time>
      </trkpt>
      <trkpt lat="42.40781" lon="2.5854">
        <ele>651.6</ele>
        <time>2022-05-21 18:11:54</time>
      </trkpt>
      <trkpt lat="42.40781" lon="2.58537">
        <ele>651.8</ele>
        <time>2022-05-21 18:11:55</time>
      </trkpt>
      <trkpt lat="42.40781" lon="2.58534">
        <ele>652</ele>
        <time>2022-05-21 18:11:56</time>
      </trkpt>
      <trkpt lat="42.40781" lon="2.58531">
        <ele>652</ele>
        <time>2022-05-21 18:11:57</time>
      </trkpt>
      <trkpt lat="42.4078" lon="2.58528">
        <ele>652.2</ele>
        <time>2022-05-21 18:11:58</time>
      </trkpt>
      <trkpt lat="42.4078" lon="2.58525">
        <ele>652.4</ele>
        <time>2022-05-21 18:11:59</time>
      </trkpt>
      <trkpt lat="42.40779" lon="2.58522">
        <ele>652.6</ele>
        <time>2022-05-21 18:12:00</time>
      </trkpt>
      <trkpt lat="42.40779" lon="2.58518">
        <ele>652.6</ele>
        <time>2022-05-21 18:12:01</time>
      </trkpt>
      <trkpt lat="42.40779" lon="2.58514">
        <ele>652.8</ele>
        <time>2022-05-21 18:12:02</time>
      </trkpt>
      <trkpt lat="42.40779" lon="2.58511">
        <ele>653</ele>
        <time>2022-05-21 18:12:03</time>
      </trkpt>
      <trkpt lat="42.40778" lon="2.58508">
        <ele>653.2</ele>
        <time>2022-05-21 18:12:04</time>
      </trkpt>
      <trkpt lat="42.40778" lon="2.58505">
        <ele>653.2</ele>
        <time>2022-05-21 18:12:05</time>
      </trkpt>
      <trkpt lat="42.40778" lon="2.58502">
        <ele>653.4</ele>
        <time>2022-05-21 18:12:06</time>
      </trkpt>
      <trkpt lat="42.40778" lon="2.58499">
        <ele>653.6</ele>
        <time>2022-05-21 18:12:07</time>
      </trkpt>
      <trkpt lat="42.40777" lon="2.58496">
        <ele>653.8</ele>
        <time>2022-05-21 18:12:08</time>
      </trkpt>
      <trkpt lat="42.40777" lon="2.58493">
        <ele>653.8</ele>
        <time>2022-05-21 18:12:09</time>
      </trkpt>
      <trkpt lat="42.40777" lon="2.5849">
        <ele>654</ele>
        <time>2022-05-21 18:12:10</time>
      </trkpt>
      <trkpt lat="42.40777" lon="2.58487">
        <ele>654.2</ele>
        <time>2022-05-21 18:12:11</time>
      </trkpt>
      <trkpt lat="42.40777" lon="2.58484">
        <ele>654.4</ele>
        <time>2022-05-21 18:12:12</time>
      </trkpt>
      <trkpt lat="42.40777" lon="2.58481">
        <ele>654.6</ele>
        <time>2022-05-21 18:12:13</time>
      </trkpt>
      <trkpt lat="42.40776" lon="2.58478">
        <ele>654.6</ele>
        <time>2022-05-21 18:12:14</time>
      </trkpt>
      <trkpt lat="42.40776" lon="2.58475">
        <ele>654.8</ele>
        <time>2022-05-21 18:12:15</time>
      </trkpt>
      <trkpt lat="42.40775" lon="2.58472">
        <ele>655</ele>
        <time>2022-05-21 18:12:16</time>
      </trkpt>
      <trkpt lat="42.40774" lon="2.58469">
        <ele>655</ele>
        <time>2022-05-21 18:12:17</time>
      </trkpt>
      <trkpt lat="42.40773" lon="2.58466">
        <ele>655.2</ele>
        <time>2022-05-21 18:12:18</time>
      </trkpt>
      <trkpt lat="42.40771" lon="2.58463">
        <ele>655.4</ele>
        <time>2022-05-21 18:12:19</time>
      </trkpt>
      <trkpt lat="42.4077" lon="2.58461">
        <ele>655.4</ele>
        <time>2022-05-21 18:12:20</time>
      </trkpt>
      <trkpt lat="42.40768" lon="2.58459">
        <ele>655.6</ele>
        <time>2022-05-21 18:12:21</time>
      </trkpt>
      <trkpt lat="42.40766" lon="2.58457">
        <ele>655.8</ele>
        <time>2022-05-21 18:12:22</time>
      </trkpt>
      <trkpt lat="42.40765" lon="2.58455">
        <ele>656</ele>
        <time>2022-05-21 18:12:23</time>
      </trkpt>
      <trkpt lat="42.40763" lon="2.58453">
        <ele>656</ele>
        <time>2022-05-21 18:12:24</time>
      </trkpt>
      <trkpt lat="42.40762" lon="2.58451">
        <ele>656.2</ele>
        <time>2022-05-21 18:12:25</time>
      </trkpt>
      <trkpt lat="42.40761" lon="2.5845">
        <ele>656.4</ele>
        <time>2022-05-21 18:12:26</time>
      </trkpt>
      <trkpt lat="42.4076" lon="2.58448">
        <ele>656.4</ele>
        <time>2022-05-21 18:12:27</time>
      </trkpt>
      <trkpt lat="42.40758" lon="2.58446">
        <ele>656.6</ele>
        <time>2022-05-21 18:12:28</time>
      </trkpt>
      <trkpt lat="42.40756" lon="2.58444">
        <ele>656.8</ele>
        <time>2022-05-21 18:12:29</time>
      </trkpt>
      <trkpt lat="42.40755" lon="2.58442">
        <ele>657</ele>
        <time>2022-05-21 18:12:30</time>
      </trkpt>
      <trkpt lat="42.40753" lon="2.58439">
        <ele>657</ele>
        <time>2022-05-21 18:12:31</time>
      </trkpt>
      <trkpt lat="42.40751" lon="2.58437">
        <ele>657.2</ele>
        <time>2022-05-21 18:12:32</time>
      </trkpt>
      <trkpt lat="42.4075" lon="2.58434">
        <ele>657.4</ele>
        <time>2022-05-21 18:12:33</time>
      </trkpt>
      <trkpt lat="42.40749" lon="2.58431">
        <ele>657.6</ele>
        <time>2022-05-21 18:12:34</time>
      </trkpt>
      <trkpt lat="42.40747" lon="2.58428">
        <ele>657.6</ele>
        <time>2022-05-21 18:12:35</time>
      </trkpt>
      <trkpt lat="42.40746" lon="2.58425">
        <ele>657.8</ele>
        <time>2022-05-21 18:12:36</time>
      </trkpt>
      <trkpt lat="42.40745" lon="2.58422">
        <ele>658</ele>
        <time>2022-05-21 18:12:37</time>
      </trkpt>
      <trkpt lat="42.40744" lon="2.5842">
        <ele>658.2</ele>
        <time>2022-05-21 18:12:38</time>
      </trkpt>
      <trkpt lat="42.40743" lon="2.58417">
        <ele>658.4</ele>
        <time>2022-05-21 18:12:39</time>
      </trkpt>
      <trkpt lat="42.40742" lon="2.58415">
        <ele>658.4</ele>
        <time>2022-05-21 18:12:40</time>
      </trkpt>
      <trkpt lat="42.4074" lon="2.58412">
        <ele>658.6</ele>
        <time>2022-05-21 18:12:41</time>
      </trkpt>
      <trkpt lat="42.40739" lon="2.5841">
        <ele>658.8</ele>
        <time>2022-05-21 18:12:42</time>
      </trkpt>
      <trkpt lat="42.40737" lon="2.58407">
        <ele>659</ele>
        <time>2022-05-21 18:12:43</time>
      </trkpt>
      <trkpt lat="42.40736" lon="2.58404">
        <ele>659.2</ele>
        <time>2022-05-21 18:12:44</time>
      </trkpt>
      <trkpt lat="42.40734" lon="2.58401">
        <ele>659.2</ele>
        <time>2022-05-21 18:12:45</time>
      </trkpt>
      <trkpt lat="42.40732" lon="2.58399">
        <ele>659.4</ele>
        <time>2022-05-21 18:12:46</time>
      </trkpt>
      <trkpt lat="42.40731" lon="2.58397">
        <ele>659.6</ele>
        <time>2022-05-21 18:12:47</time>
      </trkpt>
      <trkpt lat="42.4073" lon="2.58395">
        <ele>659.6</ele>
        <time>2022-05-21 18:12:48</time>
      </trkpt>
      <trkpt lat="42.40728" lon="2.58393">
        <ele>659.8</ele>
        <time>2022-05-21 18:12:49</time>
      </trkpt>
      <trkpt lat="42.40727" lon="2.58391">
        <ele>660</ele>
        <time>2022-05-21 18:12:50</time>
      </trkpt>
      <trkpt lat="42.40725" lon="2.58389">
        <ele>660</ele>
        <time>2022-05-21 18:12:51</time>
      </trkpt>
      <trkpt lat="42.40723" lon="2.58386">
        <ele>660.2</ele>
        <time>2022-05-21 18:12:52</time>
      </trkpt>
      <trkpt lat="42.40722" lon="2.58384">
        <ele>660.4</ele>
        <time>2022-05-21 18:12:53</time>
      </trkpt>
      <trkpt lat="42.40721" lon="2.58382">
        <ele>660.4</ele>
        <time>2022-05-21 18:12:54</time>
      </trkpt>
      <trkpt lat="42.40719" lon="2.5838">
        <ele>660.6</ele>
        <time>2022-05-21 18:12:55</time>
      </trkpt>
      <trkpt lat="42.40717" lon="2.58378">
        <ele>660.8</ele>
        <time>2022-05-21 18:12:56</time>
      </trkpt>
      <trkpt lat="42.40716" lon="2.58377">
        <ele>661</ele>
        <time>2022-05-21 18:12:57</time>
      </trkpt>
      <trkpt lat="42.40714" lon="2.58375">
        <ele>661</ele>
        <time>2022-05-21 18:12:58</time>
      </trkpt>
      <trkpt lat="42.40713" lon="2.58373">
        <ele>661.2</ele>
        <time>2022-05-21 18:12:59</time>
      </trkpt>
      <trkpt lat="42.40711" lon="2.58371">
        <ele>661.4</ele>
        <time>2022-05-21 18:13:00</time>
      </trkpt>
      <trkpt lat="42.40709" lon="2.58369">
        <ele>661.4</ele>
        <time>2022-05-21 18:13:01</time>
      </trkpt>
      <trkpt lat="42.40707" lon="2.58367">
        <ele>661.6</ele>
        <time>2022-05-21 18:13:02</time>
      </trkpt>
      <trkpt lat="42.40705" lon="2.58365">
        <ele>661.8</ele>
        <time>2022-05-21 18:13:03</time>
      </trkpt>
      <trkpt lat="42.40703" lon="2.58363">
        <ele>661.8</ele>
        <time>2022-05-21 18:13:04</time>
      </trkpt>
      <trkpt lat="42.40701" lon="2.58361">
        <ele>662</ele>
        <time>2022-05-21 18:13:05</time>
      </trkpt>
      <trkpt lat="42.40699" lon="2.58359">
        <ele>662.2</ele>
        <time>2022-05-21 18:13:06</time>
      </trkpt>
      <trkpt lat="42.40696" lon="2.58358">
        <ele>662.4</ele>
        <time>2022-05-21 18:13:07</time>
      </trkpt>
      <trkpt lat="42.40693" lon="2.58356">
        <ele>662.4</ele>
        <time>2022-05-21 18:13:08</time>
      </trkpt>
      <trkpt lat="42.4069" lon="2.58355">
        <ele>662.6</ele>
        <time>2022-05-21 18:13:09</time>
      </trkpt>
      <trkpt lat="42.40688" lon="2.58353">
        <ele>662.8</ele>
        <time>2022-05-21 18:13:10</time>
      </trkpt>
      <trkpt lat="42.40685" lon="2.58352">
        <ele>663</ele>
        <time>2022-05-21 18:13:11</time>
      </trkpt>
      <trkpt lat="42.40684" lon="2.58351">
        <ele>663.2</ele>
        <time>2022-05-21 18:13:12</time>
      </trkpt>
      <trkpt lat="42.40681" lon="2.5835">
        <ele>663.4</ele>
        <time>2022-05-21 18:13:13</time>
      </trkpt>
      <trkpt lat="42.40679" lon="2.58348">
        <ele>663.4</ele>
        <time>2022-05-21 18:13:14</time>
      </trkpt>
      <trkpt lat="42.40677" lon="2.58347">
        <ele>663.6</ele>
        <time>2022-05-21 18:13:15</time>
      </trkpt>
      <trkpt lat="42.40676" lon="2.58346">
        <ele>663.8</ele>
        <time>2022-05-21 18:13:16</time>
      </trkpt>
      <trkpt lat="42.40676" lon="2.58346">
        <ele>663.8</ele>
        <time>2022-05-21 18:13:17</time>
      </trkpt>
      <trkpt lat="42.40674" lon="2.58344">
        <ele>664</ele>
        <time>2022-05-21 18:13:18</time>
      </trkpt>
      <trkpt lat="42.40673" lon="2.58341">
        <ele>664.2</ele>
        <time>2022-05-21 18:13:19</time>
      </trkpt>
      <trkpt lat="42.40672" lon="2.58338">
        <ele>664.4</ele>
        <time>2022-05-21 18:13:20</time>
      </trkpt>
      <trkpt lat="42.40672" lon="2.58335">
        <ele>664.6</ele>
        <time>2022-05-21 18:13:21</time>
      </trkpt>
      <trkpt lat="42.40671" lon="2.58333">
        <ele>664.8</ele>
        <time>2022-05-21 18:13:22</time>
      </trkpt>
      <trkpt lat="42.4067" lon="2.5833">
        <ele>665</ele>
        <time>2022-05-21 18:13:23</time>
      </trkpt>
      <trkpt lat="42.40669" lon="2.58328">
        <ele>665.2</ele>
        <time>2022-05-21 18:13:24</time>
      </trkpt>
      <trkpt lat="42.40669" lon="2.58325">
        <ele>665.4</ele>
        <time>2022-05-21 18:13:25</time>
      </trkpt>
      <trkpt lat="42.40669" lon="2.58322">
        <ele>665.6</ele>
        <time>2022-05-21 18:13:26</time>
      </trkpt>
      <trkpt lat="42.40669" lon="2.58319">
        <ele>665.8</ele>
        <time>2022-05-21 18:13:27</time>
      </trkpt>
      <trkpt lat="42.40669" lon="2.58316">
        <ele>666</ele>
        <time>2022-05-21 18:13:28</time>
      </trkpt>
      <trkpt lat="42.4067" lon="2.58313">
        <ele>666.2</ele>
        <time>2022-05-21 18:13:29</time>
      </trkpt>
      <trkpt lat="42.40671" lon="2.5831">
        <ele>666.4</ele>
        <time>2022-05-21 18:13:30</time>
      </trkpt>
      <trkpt lat="42.40672" lon="2.58307">
        <ele>666.6</ele>
        <time>2022-05-21 18:13:31</time>
      </trkpt>
      <trkpt lat="42.40674" lon="2.58306">
        <ele>666.8</ele>
        <time>2022-05-21 18:13:32</time>
      </trkpt>
      <trkpt lat="42.40675" lon="2.58304">
        <ele>666.8</ele>
        <time>2022-05-21 18:13:33</time>
      </trkpt>
      <trkpt lat="42.40677" lon="2.58303">
        <ele>667</ele>
        <time>2022-05-21 18:13:34</time>
      </trkpt>
      <trkpt lat="42.40679" lon="2.58301">
        <ele>667.2</ele>
        <time>2022-05-21 18:13:35</time>
      </trkpt>
      <trkpt lat="42.40681" lon="2.58301">
        <ele>667.4</ele>
        <time>2022-05-21 18:13:36</time>
      </trkpt>
      <trkpt lat="42.40683" lon="2.583">
        <ele>667.6</ele>
        <time>2022-05-21 18:13:37</time>
      </trkpt>
      <trkpt lat="42.40685" lon="2.583">
        <ele>667.8</ele>
        <time>2022-05-21 18:13:38</time>
      </trkpt>
      <trkpt lat="42.40687" lon="2.58299">
        <ele>668</ele>
        <time>2022-05-21 18:13:39</time>
      </trkpt>
      <trkpt lat="42.40689" lon="2.58299">
        <ele>668</ele>
        <time>2022-05-21 18:13:40</time>
      </trkpt>
      <trkpt lat="42.40691" lon="2.58299">
        <ele>668.2</ele>
        <time>2022-05-21 18:13:41</time>
      </trkpt>
      <trkpt lat="42.40693" lon="2.58299">
        <ele>668.4</ele>
        <time>2022-05-21 18:13:42</time>
      </trkpt>
      <trkpt lat="42.40695" lon="2.58299">
        <ele>668.4</ele>
        <time>2022-05-21 18:13:43</time>
      </trkpt>
      <trkpt lat="42.40697" lon="2.583">
        <ele>668.6</ele>
        <time>2022-05-21 18:13:44</time>
      </trkpt>
      <trkpt lat="42.40699" lon="2.583">
        <ele>668.8</ele>
        <time>2022-05-21 18:13:45</time>
      </trkpt>
      <trkpt lat="42.40701" lon="2.583">
        <ele>668.8</ele>
        <time>2022-05-21 18:13:46</time>
      </trkpt>
      <trkpt lat="42.40703" lon="2.583">
        <ele>669</ele>
        <time>2022-05-21 18:13:47</time>
      </trkpt>
      <trkpt lat="42.40705" lon="2.58299">
        <ele>669</ele>
        <time>2022-05-21 18:13:48</time>
      </trkpt>
      <trkpt lat="42.40708" lon="2.58299">
        <ele>669.2</ele>
        <time>2022-05-21 18:13:49</time>
      </trkpt>
      <trkpt lat="42.4071" lon="2.58298">
        <ele>669.2</ele>
        <time>2022-05-21 18:13:50</time>
      </trkpt>
      <trkpt lat="42.40712" lon="2.58298">
        <ele>669.4</ele>
        <time>2022-05-21 18:13:51</time>
      </trkpt>
      <trkpt lat="42.40714" lon="2.58297">
        <ele>669.4</ele>
        <time>2022-05-21 18:13:52</time>
      </trkpt>
      <trkpt lat="42.40716" lon="2.58295">
        <ele>669.6</ele>
        <time>2022-05-21 18:13:53</time>
      </trkpt>
      <trkpt lat="42.40719" lon="2.58294">
        <ele>669.6</ele>
        <time>2022-05-21 18:13:54</time>
      </trkpt>
      <trkpt lat="42.40721" lon="2.58292">
        <ele>669.8</ele>
        <time>2022-05-21 18:13:55</time>
      </trkpt>
      <trkpt lat="42.40723" lon="2.58291">
        <ele>669.8</ele>
        <time>2022-05-21 18:13:56</time>
      </trkpt>
      <trkpt lat="42.40725" lon="2.58289">
        <ele>670</ele>
        <time>2022-05-21 18:13:57</time>
      </trkpt>
      <trkpt lat="42.40727" lon="2.58287">
        <ele>670</ele>
        <time>2022-05-21 18:13:58</time>
      </trkpt>
      <trkpt lat="42.40729" lon="2.58285">
        <ele>670.2</ele>
        <time>2022-05-21 18:13:59</time>
      </trkpt>
      <trkpt lat="42.40731" lon="2.58284">
        <ele>670.2</ele>
        <time>2022-05-21 18:14:00</time>
      </trkpt>
      <trkpt lat="42.40733" lon="2.58282">
        <ele>670.4</ele>
        <time>2022-05-21 18:14:01</time>
      </trkpt>
      <trkpt lat="42.40734" lon="2.5828">
        <ele>670.4</ele>
        <time>2022-05-21 18:14:02</time>
      </trkpt>
      <trkpt lat="42.40736" lon="2.58278">
        <ele>670.6</ele>
        <time>2022-05-21 18:14:03</time>
      </trkpt>
      <trkpt lat="42.40738" lon="2.58276">
        <ele>670.6</ele>
        <time>2022-05-21 18:14:04</time>
      </trkpt>
      <trkpt lat="42.40739" lon="2.58273">
        <ele>670.6</ele>
        <time>2022-05-21 18:14:05</time>
      </trkpt>
      <trkpt lat="42.40741" lon="2.58271">
        <ele>670.8</ele>
        <time>2022-05-21 18:14:06</time>
      </trkpt>
      <trkpt lat="42.40742" lon="2.58269">
        <ele>670.8</ele>
        <time>2022-05-21 18:14:07</time>
      </trkpt>
      <trkpt lat="42.40744" lon="2.58267">
        <ele>671</ele>
        <time>2022-05-21 18:14:08</time>
      </trkpt>
      <trkpt lat="42.40746" lon="2.58265">
        <ele>671</ele>
        <time>2022-05-21 18:14:09</time>
      </trkpt>
      <trkpt lat="42.40748" lon="2.58263">
        <ele>671.2</ele>
        <time>2022-05-21 18:14:10</time>
      </trkpt>
      <trkpt lat="42.40749" lon="2.58261">
        <ele>671.2</ele>
        <time>2022-05-21 18:14:11</time>
      </trkpt>
      <trkpt lat="42.40751" lon="2.58259">
        <ele>671.4</ele>
        <time>2022-05-21 18:14:12</time>
      </trkpt>
      <trkpt lat="42.40752" lon="2.58257">
        <ele>671.6</ele>
        <time>2022-05-21 18:14:13</time>
      </trkpt>
      <trkpt lat="42.40754" lon="2.58254">
        <ele>671.6</ele>
        <time>2022-05-21 18:14:14</time>
      </trkpt>
      <trkpt lat="42.40755" lon="2.58252">
        <ele>671.8</ele>
        <time>2022-05-21 18:14:15</time>
      </trkpt>
      <trkpt lat="42.40757" lon="2.5825">
        <ele>671.8</ele>
        <time>2022-05-21 18:14:16</time>
      </trkpt>
      <trkpt lat="42.40758" lon="2.58248">
        <ele>672</ele>
        <time>2022-05-21 18:14:17</time>
      </trkpt>
      <trkpt lat="42.40759" lon="2.58245">
        <ele>672</ele>
        <time>2022-05-21 18:14:18</time>
      </trkpt>
      <trkpt lat="42.40761" lon="2.58243">
        <ele>672.2</ele>
        <time>2022-05-21 18:14:19</time>
      </trkpt>
      <trkpt lat="42.40762" lon="2.58241">
        <ele>672.2</ele>
        <time>2022-05-21 18:14:20</time>
      </trkpt>
      <trkpt lat="42.40764" lon="2.58238">
        <ele>672.4</ele>
        <time>2022-05-21 18:14:21</time>
      </trkpt>
      <trkpt lat="42.40765" lon="2.58236">
        <ele>672.4</ele>
        <time>2022-05-21 18:14:22</time>
      </trkpt>
      <trkpt lat="42.40767" lon="2.58234">
        <ele>672.6</ele>
        <time>2022-05-21 18:14:23</time>
      </trkpt>
      <trkpt lat="42.40768" lon="2.58231">
        <ele>672.6</ele>
        <time>2022-05-21 18:14:24</time>
      </trkpt>
      <trkpt lat="42.4077" lon="2.58229">
        <ele>672.8</ele>
        <time>2022-05-21 18:14:25</time>
      </trkpt>
      <trkpt lat="42.40771" lon="2.58227">
        <ele>673</ele>
        <time>2022-05-21 18:14:26</time>
      </trkpt>
      <trkpt lat="42.40772" lon="2.58225">
        <ele>673</ele>
        <time>2022-05-21 18:14:27</time>
      </trkpt>
      <trkpt lat="42.40774" lon="2.58223">
        <ele>673.2</ele>
        <time>2022-05-21 18:14:28</time>
      </trkpt>
      <trkpt lat="42.40775" lon="2.58221">
        <ele>673.2</ele>
        <time>2022-05-21 18:14:29</time>
      </trkpt>
      <trkpt lat="42.40776" lon="2.58218">
        <ele>673.4</ele>
        <time>2022-05-21 18:14:30</time>
      </trkpt>
      <trkpt lat="42.40778" lon="2.58216">
        <ele>673.4</ele>
        <time>2022-05-21 18:14:31</time>
      </trkpt>
      <trkpt lat="42.40779" lon="2.58213">
        <ele>673.6</ele>
        <time>2022-05-21 18:14:32</time>
      </trkpt>
      <trkpt lat="42.4078" lon="2.58211">
        <ele>673.6</ele>
        <time>2022-05-21 18:14:33</time>
      </trkpt>
      <trkpt lat="42.40781" lon="2.58209">
        <ele>673.8</ele>
        <time>2022-05-21 18:14:34</time>
      </trkpt>
      <trkpt lat="42.40782" lon="2.58206">
        <ele>673.8</ele>
        <time>2022-05-21 18:14:35</time>
      </trkpt>
      <trkpt lat="42.40783" lon="2.58204">
        <ele>674</ele>
        <time>2022-05-21 18:14:36</time>
      </trkpt>
      <trkpt lat="42.40784" lon="2.58201">
        <ele>674</ele>
        <time>2022-05-21 18:14:37</time>
      </trkpt>
      <trkpt lat="42.40785" lon="2.58199">
        <ele>674.2</ele>
        <time>2022-05-21 18:14:38</time>
      </trkpt>
      <trkpt lat="42.40786" lon="2.58196">
        <ele>674.2</ele>
        <time>2022-05-21 18:14:39</time>
      </trkpt>
      <trkpt lat="42.40787" lon="2.58193">
        <ele>674.4</ele>
        <time>2022-05-21 18:14:40</time>
      </trkpt>
      <trkpt lat="42.40788" lon="2.58191">
        <ele>674.4</ele>
        <time>2022-05-21 18:14:41</time>
      </trkpt>
      <trkpt lat="42.40789" lon="2.58188">
        <ele>674.6</ele>
        <time>2022-05-21 18:14:42</time>
      </trkpt>
      <trkpt lat="42.4079" lon="2.58186">
        <ele>674.6</ele>
        <time>2022-05-21 18:14:43</time>
      </trkpt>
      <trkpt lat="42.40791" lon="2.58183">
        <ele>674.8</ele>
        <time>2022-05-21 18:14:44</time>
      </trkpt>
      <trkpt lat="42.40792" lon="2.5818">
        <ele>675</ele>
        <time>2022-05-21 18:14:45</time>
      </trkpt>
      <trkpt lat="42.40793" lon="2.58178">
        <ele>675</ele>
        <time>2022-05-21 18:14:46</time>
      </trkpt>
      <trkpt lat="42.40794" lon="2.58175">
        <ele>675.2</ele>
        <time>2022-05-21 18:14:47</time>
      </trkpt>
      <trkpt lat="42.40794" lon="2.58173">
        <ele>675.4</ele>
        <time>2022-05-21 18:14:48</time>
      </trkpt>
      <trkpt lat="42.40794" lon="2.5817">
        <ele>675.4</ele>
        <time>2022-05-21 18:14:49</time>
      </trkpt>
      <trkpt lat="42.40795" lon="2.58168">
        <ele>675.6</ele>
        <time>2022-05-21 18:14:50</time>
      </trkpt>
      <trkpt lat="42.40795" lon="2.58165">
        <ele>675.8</ele>
        <time>2022-05-21 18:14:51</time>
      </trkpt>
      <trkpt lat="42.40796" lon="2.58163">
        <ele>675.8</ele>
        <time>2022-05-21 18:14:52</time>
      </trkpt>
      <trkpt lat="42.40796" lon="2.5816">
        <ele>676</ele>
        <time>2022-05-21 18:14:53</time>
      </trkpt>
      <trkpt lat="42.40796" lon="2.58158">
        <ele>676.2</ele>
        <time>2022-05-21 18:14:54</time>
      </trkpt>
      <trkpt lat="42.40796" lon="2.58155">
        <ele>676.2</ele>
        <time>2022-05-21 18:14:55</time>
      </trkpt>
      <trkpt lat="42.40796" lon="2.58152">
        <ele>676.4</ele>
        <time>2022-05-21 18:14:56</time>
      </trkpt>
      <trkpt lat="42.40796" lon="2.58149">
        <ele>676.4</ele>
        <time>2022-05-21 18:14:57</time>
      </trkpt>
      <trkpt lat="42.40796" lon="2.58147">
        <ele>676.6</ele>
        <time>2022-05-21 18:14:58</time>
      </trkpt>
      <trkpt lat="42.40797" lon="2.58144">
        <ele>676.8</ele>
        <time>2022-05-21 18:14:59</time>
      </trkpt>
      <trkpt lat="42.40796" lon="2.58141">
        <ele>676.8</ele>
        <time>2022-05-21 18:15:00</time>
      </trkpt>
      <trkpt lat="42.40796" lon="2.58138">
        <ele>677</ele>
        <time>2022-05-21 18:15:01</time>
      </trkpt>
      <trkpt lat="42.40796" lon="2.58135">
        <ele>677</ele>
        <time>2022-05-21 18:15:02</time>
      </trkpt>
      <trkpt lat="42.40796" lon="2.58133">
        <ele>677.2</ele>
        <time>2022-05-21 18:15:03</time>
      </trkpt>
      <trkpt lat="42.40795" lon="2.5813">
        <ele>677.4</ele>
        <time>2022-05-21 18:15:04</time>
      </trkpt>
      <trkpt lat="42.40795" lon="2.58127">
        <ele>677.4</ele>
        <time>2022-05-21 18:15:05</time>
      </trkpt>
      <trkpt lat="42.40794" lon="2.58124">
        <ele>677.6</ele>
        <time>2022-05-21 18:15:06</time>
      </trkpt>
      <trkpt lat="42.40794" lon="2.58121">
        <ele>677.6</ele>
        <time>2022-05-21 18:15:07</time>
      </trkpt>
      <trkpt lat="42.40794" lon="2.58119">
        <ele>677.8</ele>
        <time>2022-05-21 18:15:08</time>
      </trkpt>
      <trkpt lat="42.40793" lon="2.58116">
        <ele>677.8</ele>
        <time>2022-05-21 18:15:09</time>
      </trkpt>
      <trkpt lat="42.40793" lon="2.58113">
        <ele>678</ele>
        <time>2022-05-21 18:15:10</time>
      </trkpt>
      <trkpt lat="42.40793" lon="2.5811">
        <ele>678.2</ele>
        <time>2022-05-21 18:15:11</time>
      </trkpt>
      <trkpt lat="42.40792" lon="2.58108">
        <ele>678.2</ele>
        <time>2022-05-21 18:15:12</time>
      </trkpt>
      <trkpt lat="42.40792" lon="2.58105">
        <ele>678.4</ele>
        <time>2022-05-21 18:15:13</time>
      </trkpt>
      <trkpt lat="42.40793" lon="2.58102">
        <ele>678.6</ele>
        <time>2022-05-21 18:15:14</time>
      </trkpt>
      <trkpt lat="42.40793" lon="2.581">
        <ele>678.6</ele>
        <time>2022-05-21 18:15:15</time>
      </trkpt>
      <trkpt lat="42.40793" lon="2.58097">
        <ele>678.8</ele>
        <time>2022-05-21 18:15:16</time>
      </trkpt>
      <trkpt lat="42.40794" lon="2.58095">
        <ele>679</ele>
        <time>2022-05-21 18:15:17</time>
      </trkpt>
      <trkpt lat="42.40794" lon="2.58092">
        <ele>679.2</ele>
        <time>2022-05-21 18:15:18</time>
      </trkpt>
      <trkpt lat="42.40794" lon="2.5809">
        <ele>679.2</ele>
        <time>2022-05-21 18:15:19</time>
      </trkpt>
      <trkpt lat="42.40795" lon="2.58087">
        <ele>679.4</ele>
        <time>2022-05-21 18:15:20</time>
      </trkpt>
      <trkpt lat="42.40795" lon="2.58084">
        <ele>679.6</ele>
        <time>2022-05-21 18:15:21</time>
      </trkpt>
      <trkpt lat="42.40795" lon="2.58081">
        <ele>679.8</ele>
        <time>2022-05-21 18:15:22</time>
      </trkpt>
      <trkpt lat="42.40795" lon="2.58079">
        <ele>679.8</ele>
        <time>2022-05-21 18:15:23</time>
      </trkpt>
      <trkpt lat="42.40795" lon="2.58076">
        <ele>680</ele>
        <time>2022-05-21 18:15:24</time>
      </trkpt>
      <trkpt lat="42.40795" lon="2.58073">
        <ele>680.2</ele>
        <time>2022-05-21 18:15:25</time>
      </trkpt>
      <trkpt lat="42.40796" lon="2.58071">
        <ele>680.4</ele>
        <time>2022-05-21 18:15:26</time>
      </trkpt>
      <trkpt lat="42.40797" lon="2.58068">
        <ele>680.4</ele>
        <time>2022-05-21 18:15:27</time>
      </trkpt>
      <trkpt lat="42.40798" lon="2.58066">
        <ele>680.6</ele>
        <time>2022-05-21 18:15:28</time>
      </trkpt>
      <trkpt lat="42.40799" lon="2.58063">
        <ele>680.8</ele>
        <time>2022-05-21 18:15:29</time>
      </trkpt>
      <trkpt lat="42.40799" lon="2.58061">
        <ele>681</ele>
        <time>2022-05-21 18:15:30</time>
      </trkpt>
      <trkpt lat="42.408" lon="2.58059">
        <ele>681</ele>
        <time>2022-05-21 18:15:31</time>
      </trkpt>
      <trkpt lat="42.408" lon="2.58057">
        <ele>681.2</ele>
        <time>2022-05-21 18:15:32</time>
      </trkpt>
      <trkpt lat="42.40801" lon="2.58055">
        <ele>681.4</ele>
        <time>2022-05-21 18:15:33</time>
      </trkpt>
      <trkpt lat="42.40802" lon="2.58052">
        <ele>681.6</ele>
        <time>2022-05-21 18:15:34</time>
      </trkpt>
      <trkpt lat="42.40803" lon="2.5805">
        <ele>681.6</ele>
        <time>2022-05-21 18:15:35</time>
      </trkpt>
      <trkpt lat="42.40804" lon="2.58048">
        <ele>681.8</ele>
        <time>2022-05-21 18:15:36</time>
      </trkpt>
      <trkpt lat="42.40805" lon="2.58045">
        <ele>682</ele>
        <time>2022-05-21 18:15:37</time>
      </trkpt>
      <trkpt lat="42.40806" lon="2.58043">
        <ele>682</ele>
        <time>2022-05-21 18:15:38</time>
      </trkpt>
      <trkpt lat="42.40807" lon="2.5804">
        <ele>682.2</ele>
        <time>2022-05-21 18:15:39</time>
      </trkpt>
      <trkpt lat="42.40808" lon="2.58037">
        <ele>682.4</ele>
        <time>2022-05-21 18:15:40</time>
      </trkpt>
      <trkpt lat="42.40809" lon="2.58035">
        <ele>682.6</ele>
        <time>2022-05-21 18:15:41</time>
      </trkpt>
      <trkpt lat="42.4081" lon="2.58032">
        <ele>682.6</ele>
        <time>2022-05-21 18:15:42</time>
      </trkpt>
      <trkpt lat="42.40811" lon="2.5803">
        <ele>682.8</ele>
        <time>2022-05-21 18:15:43</time>
      </trkpt>
      <trkpt lat="42.40812" lon="2.58027">
        <ele>683</ele>
        <time>2022-05-21 18:15:44</time>
      </trkpt>
      <trkpt lat="42.40813" lon="2.58024">
        <ele>683</ele>
        <time>2022-05-21 18:15:45</time>
      </trkpt>
      <trkpt lat="42.40814" lon="2.58022">
        <ele>683.2</ele>
        <time>2022-05-21 18:15:46</time>
      </trkpt>
      <trkpt lat="42.40816" lon="2.5802">
        <ele>683.4</ele>
        <time>2022-05-21 18:15:47</time>
      </trkpt>
      <trkpt lat="42.40817" lon="2.58018">
        <ele>683.6</ele>
        <time>2022-05-21 18:15:48</time>
      </trkpt>
      <trkpt lat="42.40818" lon="2.58016">
        <ele>683.6</ele>
        <time>2022-05-21 18:15:49</time>
      </trkpt>
      <trkpt lat="42.40819" lon="2.58014">
        <ele>683.8</ele>
        <time>2022-05-21 18:15:50</time>
      </trkpt>
      <trkpt lat="42.4082" lon="2.58011">
        <ele>684</ele>
        <time>2022-05-21 18:15:51</time>
      </trkpt>
      <trkpt lat="42.40821" lon="2.58009">
        <ele>684.2</ele>
        <time>2022-05-21 18:15:52</time>
      </trkpt>
      <trkpt lat="42.40822" lon="2.58007">
        <ele>684.2</ele>
        <time>2022-05-21 18:15:53</time>
      </trkpt>
      <trkpt lat="42.40823" lon="2.58004">
        <ele>684.4</ele>
        <time>2022-05-21 18:15:54</time>
      </trkpt>
      <trkpt lat="42.40824" lon="2.58002">
        <ele>684.6</ele>
        <time>2022-05-21 18:15:55</time>
      </trkpt>
      <trkpt lat="42.40825" lon="2.57999">
        <ele>684.6</ele>
        <time>2022-05-21 18:15:56</time>
      </trkpt>
      <trkpt lat="42.40826" lon="2.57997">
        <ele>684.8</ele>
        <time>2022-05-21 18:15:57</time>
      </trkpt>
      <trkpt lat="42.40827" lon="2.57995">
        <ele>685</ele>
        <time>2022-05-21 18:15:58</time>
      </trkpt>
      <trkpt lat="42.40829" lon="2.57992">
        <ele>685.2</ele>
        <time>2022-05-21 18:15:59</time>
      </trkpt>
      <trkpt lat="42.4083" lon="2.5799">
        <ele>685.4</ele>
        <time>2022-05-21 18:16:00</time>
      </trkpt>
      <trkpt lat="42.40831" lon="2.57987">
        <ele>685.4</ele>
        <time>2022-05-21 18:16:01</time>
      </trkpt>
      <trkpt lat="42.40832" lon="2.57984">
        <ele>685.6</ele>
        <time>2022-05-21 18:16:02</time>
      </trkpt>
      <trkpt lat="42.40833" lon="2.57982">
        <ele>685.8</ele>
        <time>2022-05-21 18:16:03</time>
      </trkpt>
      <trkpt lat="42.40834" lon="2.5798">
        <ele>686</ele>
        <time>2022-05-21 18:16:04</time>
      </trkpt>
      <trkpt lat="42.40835" lon="2.57978">
        <ele>686</ele>
        <time>2022-05-21 18:16:05</time>
      </trkpt>
      <trkpt lat="42.40836" lon="2.57974">
        <ele>686.2</ele>
        <time>2022-05-21 18:16:06</time>
      </trkpt>
      <trkpt lat="42.40837" lon="2.57972">
        <ele>686.4</ele>
        <time>2022-05-21 18:16:07</time>
      </trkpt>
      <trkpt lat="42.40838" lon="2.57969">
        <ele>686.4</ele>
        <time>2022-05-21 18:16:08</time>
      </trkpt>
      <trkpt lat="42.40839" lon="2.57967">
        <ele>686.6</ele>
        <time>2022-05-21 18:16:09</time>
      </trkpt>
      <trkpt lat="42.40839" lon="2.57964">
        <ele>686.8</ele>
        <time>2022-05-21 18:16:10</time>
      </trkpt>
      <trkpt lat="42.4084" lon="2.57962">
        <ele>687</ele>
        <time>2022-05-21 18:16:11</time>
      </trkpt>
      <trkpt lat="42.40841" lon="2.57959">
        <ele>687</ele>
        <time>2022-05-21 18:16:12</time>
      </trkpt>
      <trkpt lat="42.40842" lon="2.57957">
        <ele>687.2</ele>
        <time>2022-05-21 18:16:13</time>
      </trkpt>
      <trkpt lat="42.40843" lon="2.57954">
        <ele>687.4</ele>
        <time>2022-05-21 18:16:14</time>
      </trkpt>
      <trkpt lat="42.40843" lon="2.57951">
        <ele>687.4</ele>
        <time>2022-05-21 18:16:15</time>
      </trkpt>
      <trkpt lat="42.40844" lon="2.57949">
        <ele>687.6</ele>
        <time>2022-05-21 18:16:16</time>
      </trkpt>
      <trkpt lat="42.40845" lon="2.57946">
        <ele>687.8</ele>
        <time>2022-05-21 18:16:17</time>
      </trkpt>
      <trkpt lat="42.40846" lon="2.57943">
        <ele>688</ele>
        <time>2022-05-21 18:16:18</time>
      </trkpt>
      <trkpt lat="42.40848" lon="2.57941">
        <ele>688</ele>
        <time>2022-05-21 18:16:19</time>
      </trkpt>
      <trkpt lat="42.40849" lon="2.57938">
        <ele>688.2</ele>
        <time>2022-05-21 18:16:20</time>
      </trkpt>
      <trkpt lat="42.4085" lon="2.57936">
        <ele>688.4</ele>
        <time>2022-05-21 18:16:21</time>
      </trkpt>
      <trkpt lat="42.40851" lon="2.57933">
        <ele>688.4</ele>
        <time>2022-05-21 18:16:22</time>
      </trkpt>
      <trkpt lat="42.40852" lon="2.57931">
        <ele>688.6</ele>
        <time>2022-05-21 18:16:23</time>
      </trkpt>
      <trkpt lat="42.40853" lon="2.57929">
        <ele>688.6</ele>
        <time>2022-05-21 18:16:24</time>
      </trkpt>
      <trkpt lat="42.40854" lon="2.57926">
        <ele>688.8</ele>
        <time>2022-05-21 18:16:25</time>
      </trkpt>
      <trkpt lat="42.40855" lon="2.57924">
        <ele>689</ele>
        <time>2022-05-21 18:16:26</time>
      </trkpt>
      <trkpt lat="42.40856" lon="2.57921">
        <ele>689</ele>
        <time>2022-05-21 18:16:27</time>
      </trkpt>
      <trkpt lat="42.40857" lon="2.57918">
        <ele>689.2</ele>
        <time>2022-05-21 18:16:28</time>
      </trkpt>
      <trkpt lat="42.40857" lon="2.57916">
        <ele>689.2</ele>
        <time>2022-05-21 18:16:29</time>
      </trkpt>
      <trkpt lat="42.40858" lon="2.57913">
        <ele>689.4</ele>
        <time>2022-05-21 18:16:30</time>
      </trkpt>
      <trkpt lat="42.40859" lon="2.57911">
        <ele>689.6</ele>
        <time>2022-05-21 18:16:31</time>
      </trkpt>
      <trkpt lat="42.4086" lon="2.57909">
        <ele>689.6</ele>
        <time>2022-05-21 18:16:32</time>
      </trkpt>
      <trkpt lat="42.40861" lon="2.57906">
        <ele>689.8</ele>
        <time>2022-05-21 18:16:33</time>
      </trkpt>
      <trkpt lat="42.40862" lon="2.57904">
        <ele>690</ele>
        <time>2022-05-21 18:16:34</time>
      </trkpt>
      <trkpt lat="42.40863" lon="2.57902">
        <ele>690</ele>
        <time>2022-05-21 18:16:35</time>
      </trkpt>
      <trkpt lat="42.40864" lon="2.57899">
        <ele>690</ele>
        <time>2022-05-21 18:16:36</time>
      </trkpt>
      <trkpt lat="42.40865" lon="2.57897">
        <ele>690.2</ele>
        <time>2022-05-21 18:16:37</time>
      </trkpt>
      <trkpt lat="42.40867" lon="2.57894">
        <ele>690.2</ele>
        <time>2022-05-21 18:16:38</time>
      </trkpt>
      <trkpt lat="42.40869" lon="2.57892">
        <ele>690.4</ele>
        <time>2022-05-21 18:16:39</time>
      </trkpt>
      <trkpt lat="42.40871" lon="2.5789">
        <ele>690.4</ele>
        <time>2022-05-21 18:16:40</time>
      </trkpt>
      <trkpt lat="42.40873" lon="2.57889">
        <ele>690.6</ele>
        <time>2022-05-21 18:16:41</time>
      </trkpt>
      <trkpt lat="42.40875" lon="2.57887">
        <ele>690.6</ele>
        <time>2022-05-21 18:16:42</time>
      </trkpt>
      <trkpt lat="42.40877" lon="2.57885">
        <ele>690.8</ele>
        <time>2022-05-21 18:16:43</time>
      </trkpt>
      <trkpt lat="42.4088" lon="2.57884">
        <ele>691</ele>
        <time>2022-05-21 18:16:44</time>
      </trkpt>
      <trkpt lat="42.40882" lon="2.57883">
        <ele>691</ele>
        <time>2022-05-21 18:16:45</time>
      </trkpt>
      <trkpt lat="42.40884" lon="2.57881">
        <ele>691.2</ele>
        <time>2022-05-21 18:16:46</time>
      </trkpt>
      <trkpt lat="42.40886" lon="2.5788">
        <ele>691.2</ele>
        <time>2022-05-21 18:16:47</time>
      </trkpt>
      <trkpt lat="42.40888" lon="2.57879">
        <ele>691.4</ele>
        <time>2022-05-21 18:16:48</time>
      </trkpt>
      <trkpt lat="42.4089" lon="2.57878">
        <ele>691.6</ele>
        <time>2022-05-21 18:16:49</time>
      </trkpt>
      <trkpt lat="42.40892" lon="2.57877">
        <ele>691.6</ele>
        <time>2022-05-21 18:16:50</time>
      </trkpt>
      <trkpt lat="42.40894" lon="2.57876">
        <ele>691.8</ele>
        <time>2022-05-21 18:16:51</time>
      </trkpt>
      <trkpt lat="42.40897" lon="2.57875">
        <ele>692</ele>
        <time>2022-05-21 18:16:52</time>
      </trkpt>
      <trkpt lat="42.40899" lon="2.57874">
        <ele>692.2</ele>
        <time>2022-05-21 18:16:53</time>
      </trkpt>
      <trkpt lat="42.40901" lon="2.57873">
        <ele>692.2</ele>
        <time>2022-05-21 18:16:54</time>
      </trkpt>
      <trkpt lat="42.40902" lon="2.57871">
        <ele>692.4</ele>
        <time>2022-05-21 18:16:55</time>
      </trkpt>
      <trkpt lat="42.40904" lon="2.5787">
        <ele>692.6</ele>
        <time>2022-05-21 18:16:56</time>
      </trkpt>
      <trkpt lat="42.40906" lon="2.57869">
        <ele>692.6</ele>
        <time>2022-05-21 18:16:57</time>
      </trkpt>
      <trkpt lat="42.40908" lon="2.57867">
        <ele>692.8</ele>
        <time>2022-05-21 18:16:58</time>
      </trkpt>
      <trkpt lat="42.4091" lon="2.57865">
        <ele>692.8</ele>
        <time>2022-05-21 18:16:59</time>
      </trkpt>
      <trkpt lat="42.40912" lon="2.57863">
        <ele>693</ele>
        <time>2022-05-21 18:17:00</time>
      </trkpt>
      <trkpt lat="42.40913" lon="2.57862">
        <ele>693.2</ele>
        <time>2022-05-21 18:17:01</time>
      </trkpt>
      <trkpt lat="42.40915" lon="2.5786">
        <ele>693.2</ele>
        <time>2022-05-21 18:17:02</time>
      </trkpt>
      <trkpt lat="42.40917" lon="2.57857">
        <ele>693.4</ele>
        <time>2022-05-21 18:17:03</time>
      </trkpt>
      <trkpt lat="42.40918" lon="2.57855">
        <ele>693.4</ele>
        <time>2022-05-21 18:17:04</time>
      </trkpt>
      <trkpt lat="42.40919" lon="2.57852">
        <ele>693.6</ele>
        <time>2022-05-21 18:17:05</time>
      </trkpt>
      <trkpt lat="42.4092" lon="2.5785">
        <ele>693.8</ele>
        <time>2022-05-21 18:17:06</time>
      </trkpt>
      <trkpt lat="42.40921" lon="2.57847">
        <ele>693.8</ele>
        <time>2022-05-21 18:17:07</time>
      </trkpt>
      <trkpt lat="42.40922" lon="2.57844">
        <ele>694</ele>
        <time>2022-05-21 18:17:08</time>
      </trkpt>
      <trkpt lat="42.40923" lon="2.57842">
        <ele>694</ele>
        <time>2022-05-21 18:17:09</time>
      </trkpt>
      <trkpt lat="42.40924" lon="2.57839">
        <ele>694.2</ele>
        <time>2022-05-21 18:17:10</time>
      </trkpt>
      <trkpt lat="42.40925" lon="2.57836">
        <ele>694.2</ele>
        <time>2022-05-21 18:17:11</time>
      </trkpt>
      <trkpt lat="42.40926" lon="2.57833">
        <ele>694.4</ele>
        <time>2022-05-21 18:17:12</time>
      </trkpt>
      <trkpt lat="42.40927" lon="2.5783">
        <ele>694.4</ele>
        <time>2022-05-21 18:17:13</time>
      </trkpt>
      <trkpt lat="42.40927" lon="2.57827">
        <ele>694.6</ele>
        <time>2022-05-21 18:17:14</time>
      </trkpt>
      <trkpt lat="42.40928" lon="2.57823">
        <ele>694.6</ele>
        <time>2022-05-21 18:17:15</time>
      </trkpt>
      <trkpt lat="42.40929" lon="2.5782">
        <ele>694.8</ele>
        <time>2022-05-21 18:17:16</time>
      </trkpt>
      <trkpt lat="42.40929" lon="2.57817">
        <ele>694.8</ele>
        <time>2022-05-21 18:17:17</time>
      </trkpt>
      <trkpt lat="42.4093" lon="2.57814">
        <ele>694.8</ele>
        <time>2022-05-21 18:17:18</time>
      </trkpt>
      <trkpt lat="42.4093" lon="2.5781">
        <ele>695</ele>
        <time>2022-05-21 18:17:19</time>
      </trkpt>
      <trkpt lat="42.40931" lon="2.57807">
        <ele>695</ele>
        <time>2022-05-21 18:17:20</time>
      </trkpt>
      <trkpt lat="42.40931" lon="2.57804">
        <ele>695</ele>
        <time>2022-05-21 18:17:21</time>
      </trkpt>
      <trkpt lat="42.40932" lon="2.57801">
        <ele>695.2</ele>
        <time>2022-05-21 18:17:22</time>
      </trkpt>
      <trkpt lat="42.40933" lon="2.57798">
        <ele>695.2</ele>
        <time>2022-05-21 18:17:23</time>
      </trkpt>
      <trkpt lat="42.40933" lon="2.57794">
        <ele>695.2</ele>
        <time>2022-05-21 18:17:24</time>
      </trkpt>
      <trkpt lat="42.40934" lon="2.57791">
        <ele>695.4</ele>
        <time>2022-05-21 18:17:25</time>
      </trkpt>
      <trkpt lat="42.40934" lon="2.57788">
        <ele>695.4</ele>
        <time>2022-05-21 18:17:26</time>
      </trkpt>
      <trkpt lat="42.40935" lon="2.57784">
        <ele>695.4</ele>
        <time>2022-05-21 18:17:27</time>
      </trkpt>
      <trkpt lat="42.40935" lon="2.57781">
        <ele>695.4</ele>
        <time>2022-05-21 18:17:28</time>
      </trkpt>
      <trkpt lat="42.40936" lon="2.57778">
        <ele>695.6</ele>
        <time>2022-05-21 18:17:29</time>
      </trkpt>
      <trkpt lat="42.40937" lon="2.57775">
        <ele>695.6</ele>
        <time>2022-05-21 18:17:30</time>
      </trkpt>
      <trkpt lat="42.40937" lon="2.57771">
        <ele>695.6</ele>
        <time>2022-05-21 18:17:31</time>
      </trkpt>
      <trkpt lat="42.40938" lon="2.57768">
        <ele>695.6</ele>
        <time>2022-05-21 18:17:32</time>
      </trkpt>
      <trkpt lat="42.40939" lon="2.57765">
        <ele>695.8</ele>
        <time>2022-05-21 18:17:33</time>
      </trkpt>
      <trkpt lat="42.40939" lon="2.57761">
        <ele>695.8</ele>
        <time>2022-05-21 18:17:34</time>
      </trkpt>
      <trkpt lat="42.4094" lon="2.57758">
        <ele>695.8</ele>
        <time>2022-05-21 18:17:35</time>
      </trkpt>
      <trkpt lat="42.40941" lon="2.57754">
        <ele>695.8</ele>
        <time>2022-05-21 18:17:36</time>
      </trkpt>
      <trkpt lat="42.40942" lon="2.5775">
        <ele>696</ele>
        <time>2022-05-21 18:17:37</time>
      </trkpt>
      <trkpt lat="42.40943" lon="2.57746">
        <ele>696</ele>
        <time>2022-05-21 18:17:38</time>
      </trkpt>
      <trkpt lat="42.40944" lon="2.57743">
        <ele>696</ele>
        <time>2022-05-21 18:17:39</time>
      </trkpt>
      <trkpt lat="42.40945" lon="2.57739">
        <ele>696.2</ele>
        <time>2022-05-21 18:17:40</time>
      </trkpt>
      <trkpt lat="42.40946" lon="2.57736">
        <ele>696.2</ele>
        <time>2022-05-21 18:17:41</time>
      </trkpt>
      <trkpt lat="42.40947" lon="2.57733">
        <ele>696.2</ele>
        <time>2022-05-21 18:17:42</time>
      </trkpt>
      <trkpt lat="42.40948" lon="2.57729">
        <ele>696.2</ele>
        <time>2022-05-21 18:17:43</time>
      </trkpt>
      <trkpt lat="42.40949" lon="2.57726">
        <ele>696.2</ele>
        <time>2022-05-21 18:17:44</time>
      </trkpt>
      <trkpt lat="42.40949" lon="2.57722">
        <ele>696.4</ele>
        <time>2022-05-21 18:17:45</time>
      </trkpt>
      <trkpt lat="42.4095" lon="2.57718">
        <ele>696.4</ele>
        <time>2022-05-21 18:17:46</time>
      </trkpt>
      <trkpt lat="42.40951" lon="2.57713">
        <ele>696.4</ele>
        <time>2022-05-21 18:17:47</time>
      </trkpt>
      <trkpt lat="42.40952" lon="2.57709">
        <ele>696.4</ele>
        <time>2022-05-21 18:17:48</time>
      </trkpt>
      <trkpt lat="42.40953" lon="2.57704">
        <ele>696.4</ele>
        <time>2022-05-21 18:17:49</time>
      </trkpt>
      <trkpt lat="42.40955" lon="2.57699">
        <ele>696.6</ele>
        <time>2022-05-21 18:17:50</time>
      </trkpt>
      <trkpt lat="42.40956" lon="2.57695">
        <ele>696.6</ele>
        <time>2022-05-21 18:17:51</time>
      </trkpt>
      <trkpt lat="42.40957" lon="2.57691">
        <ele>696.6</ele>
        <time>2022-05-21 18:17:52</time>
      </trkpt>
      <trkpt lat="42.40958" lon="2.57686">
        <ele>696.6</ele>
        <time>2022-05-21 18:17:53</time>
      </trkpt>
      <trkpt lat="42.40959" lon="2.57682">
        <ele>696.8</ele>
        <time>2022-05-21 18:17:54</time>
      </trkpt>
      <trkpt lat="42.4096" lon="2.57678">
        <ele>696.8</ele>
        <time>2022-05-21 18:17:55</time>
      </trkpt>
      <trkpt lat="42.40961" lon="2.57675">
        <ele>696.8</ele>
        <time>2022-05-21 18:17:56</time>
      </trkpt>
      <trkpt lat="42.40962" lon="2.57671">
        <ele>696.8</ele>
        <time>2022-05-21 18:17:57</time>
      </trkpt>
      <trkpt lat="42.40963" lon="2.57667">
        <ele>696.8</ele>
        <time>2022-05-21 18:17:58</time>
      </trkpt>
      <trkpt lat="42.40963" lon="2.57663">
        <ele>697</ele>
        <time>2022-05-21 18:17:59</time>
      </trkpt>
      <trkpt lat="42.40963" lon="2.57659">
        <ele>697</ele>
        <time>2022-05-21 18:18:00</time>
      </trkpt>
      <trkpt lat="42.40964" lon="2.57654">
        <ele>697</ele>
        <time>2022-05-21 18:18:01</time>
      </trkpt>
      <trkpt lat="42.40965" lon="2.5765">
        <ele>697</ele>
        <time>2022-05-21 18:18:02</time>
      </trkpt>
      <trkpt lat="42.40965" lon="2.57644">
        <ele>697</ele>
        <time>2022-05-21 18:18:03</time>
      </trkpt>
      <trkpt lat="42.40965" lon="2.57639">
        <ele>697</ele>
        <time>2022-05-21 18:18:04</time>
      </trkpt>
      <trkpt lat="42.40966" lon="2.57634">
        <ele>697</ele>
        <time>2022-05-21 18:18:05</time>
      </trkpt>
      <trkpt lat="42.40968" lon="2.57629">
        <ele>697</ele>
        <time>2022-05-21 18:18:06</time>
      </trkpt>
      <trkpt lat="42.40969" lon="2.57624">
        <ele>697.2</ele>
        <time>2022-05-21 18:18:07</time>
      </trkpt>
      <trkpt lat="42.40971" lon="2.57619">
        <ele>697.2</ele>
        <time>2022-05-21 18:18:08</time>
      </trkpt>
      <trkpt lat="42.40973" lon="2.57613">
        <ele>697.2</ele>
        <time>2022-05-21 18:18:09</time>
      </trkpt>
      <trkpt lat="42.40974" lon="2.57608">
        <ele>697.2</ele>
        <time>2022-05-21 18:18:10</time>
      </trkpt>
      <trkpt lat="42.40976" lon="2.57602">
        <ele>697.2</ele>
        <time>2022-05-21 18:18:11</time>
      </trkpt>
      <trkpt lat="42.40978" lon="2.57597">
        <ele>697.2</ele>
        <time>2022-05-21 18:18:12</time>
      </trkpt>
      <trkpt lat="42.4098" lon="2.57592">
        <ele>697.2</ele>
        <time>2022-05-21 18:18:13</time>
      </trkpt>
      <trkpt lat="42.40982" lon="2.57587">
        <ele>697.4</ele>
        <time>2022-05-21 18:18:14</time>
      </trkpt>
      <trkpt lat="42.40983" lon="2.57581">
        <ele>697.4</ele>
        <time>2022-05-21 18:18:15</time>
      </trkpt>
      <trkpt lat="42.40985" lon="2.57574">
        <ele>697.4</ele>
        <time>2022-05-21 18:18:16</time>
      </trkpt>
      <trkpt lat="42.40985" lon="2.57568">
        <ele>697.4</ele>
        <time>2022-05-21 18:18:17</time>
      </trkpt>
      <trkpt lat="42.40986" lon="2.57562">
        <ele>697.6</ele>
        <time>2022-05-21 18:18:18</time>
      </trkpt>
      <trkpt lat="42.40987" lon="2.57557">
        <ele>697.6</ele>
        <time>2022-05-21 18:18:19</time>
      </trkpt>
      <trkpt lat="42.40987" lon="2.57553">
        <ele>697.6</ele>
        <time>2022-05-21 18:18:20</time>
      </trkpt>
      <trkpt lat="42.40987" lon="2.57549">
        <ele>697.8</ele>
        <time>2022-05-21 18:18:21</time>
      </trkpt>
      <trkpt lat="42.40986" lon="2.57546">
        <ele>697.8</ele>
        <time>2022-05-21 18:18:22</time>
      </trkpt>
      <trkpt lat="42.40986" lon="2.57542">
        <ele>697.8</ele>
        <time>2022-05-21 18:18:23</time>
      </trkpt>
      <trkpt lat="42.40986" lon="2.57537">
        <ele>698</ele>
        <time>2022-05-21 18:18:24</time>
      </trkpt>
      <trkpt lat="42.40986" lon="2.57532">
        <ele>698</ele>
        <time>2022-05-21 18:18:25</time>
      </trkpt>
      <trkpt lat="42.40985" lon="2.57525">
        <ele>698</ele>
        <time>2022-05-21 18:18:26</time>
      </trkpt>
      <trkpt lat="42.40984" lon="2.5752">
        <ele>698</ele>
        <time>2022-05-21 18:18:27</time>
      </trkpt>
      <trkpt lat="42.40983" lon="2.57514">
        <ele>698</ele>
        <time>2022-05-21 18:18:28</time>
      </trkpt>
      <trkpt lat="42.4098" lon="2.57509">
        <ele>698</ele>
        <time>2022-05-21 18:18:29</time>
      </trkpt>
      <trkpt lat="42.40978" lon="2.57504">
        <ele>698.2</ele>
        <time>2022-05-21 18:18:30</time>
      </trkpt>
      <trkpt lat="42.40975" lon="2.57499">
        <ele>698.2</ele>
        <time>2022-05-21 18:18:31</time>
      </trkpt>
      <trkpt lat="42.40972" lon="2.57495">
        <ele>698</ele>
        <time>2022-05-21 18:18:32</time>
      </trkpt>
      <trkpt lat="42.40969" lon="2.57492">
        <ele>698</ele>
        <time>2022-05-21 18:18:33</time>
      </trkpt>
      <trkpt lat="42.40966" lon="2.5749">
        <ele>698.2</ele>
        <time>2022-05-21 18:18:34</time>
      </trkpt>
      <trkpt lat="42.40962" lon="2.57488">
        <ele>698.2</ele>
        <time>2022-05-21 18:18:35</time>
      </trkpt>
      <trkpt lat="42.40958" lon="2.57488">
        <ele>698.2</ele>
        <time>2022-05-21 18:18:36</time>
      </trkpt>
      <trkpt lat="42.40954" lon="2.57487">
        <ele>698.2</ele>
        <time>2022-05-21 18:18:37</time>
      </trkpt>
      <trkpt lat="42.4095" lon="2.57486">
        <ele>698.4</ele>
        <time>2022-05-21 18:18:38</time>
      </trkpt>
      <trkpt lat="42.40947" lon="2.57485">
        <ele>698.4</ele>
        <time>2022-05-21 18:18:39</time>
      </trkpt>
      <trkpt lat="42.40943" lon="2.57484">
        <ele>698.4</ele>
        <time>2022-05-21 18:18:40</time>
      </trkpt>
      <trkpt lat="42.40939" lon="2.57483">
        <ele>698.4</ele>
        <time>2022-05-21 18:18:41</time>
      </trkpt>
      <trkpt lat="42.40935" lon="2.57482">
        <ele>698.6</ele>
        <time>2022-05-21 18:18:42</time>
      </trkpt>
      <trkpt lat="42.40931" lon="2.5748">
        <ele>698.6</ele>
        <time>2022-05-21 18:18:43</time>
      </trkpt>
      <trkpt lat="42.40927" lon="2.57478">
        <ele>698.6</ele>
        <time>2022-05-21 18:18:44</time>
      </trkpt>
      <trkpt lat="42.40924" lon="2.57476">
        <ele>698.8</ele>
        <time>2022-05-21 18:18:45</time>
      </trkpt>
      <trkpt lat="42.40921" lon="2.57473">
        <ele>698.8</ele>
        <time>2022-05-21 18:18:46</time>
      </trkpt>
      <trkpt lat="42.40917" lon="2.5747">
        <ele>699</ele>
        <time>2022-05-21 18:18:47</time>
      </trkpt>
      <trkpt lat="42.40914" lon="2.57467">
        <ele>699</ele>
        <time>2022-05-21 18:18:48</time>
      </trkpt>
      <trkpt lat="42.4091" lon="2.57464">
        <ele>699</ele>
        <time>2022-05-21 18:18:49</time>
      </trkpt>
      <trkpt lat="42.40907" lon="2.5746">
        <ele>699.2</ele>
        <time>2022-05-21 18:18:50</time>
      </trkpt>
      <trkpt lat="42.40903" lon="2.57456">
        <ele>699.2</ele>
        <time>2022-05-21 18:18:51</time>
      </trkpt>
      <trkpt lat="42.409" lon="2.57452">
        <ele>699.2</ele>
        <time>2022-05-21 18:18:52</time>
      </trkpt>
      <trkpt lat="42.40897" lon="2.57448">
        <ele>699.2</ele>
        <time>2022-05-21 18:18:53</time>
      </trkpt>
      <trkpt lat="42.40895" lon="2.57445">
        <ele>699.4</ele>
        <time>2022-05-21 18:18:54</time>
      </trkpt>
      <trkpt lat="42.40892" lon="2.57441">
        <ele>699.4</ele>
        <time>2022-05-21 18:18:55</time>
      </trkpt>
      <trkpt lat="42.40888" lon="2.57436">
        <ele>699.4</ele>
        <time>2022-05-21 18:18:56</time>
      </trkpt>
      <trkpt lat="42.40885" lon="2.57432">
        <ele>699.4</ele>
        <time>2022-05-21 18:18:57</time>
      </trkpt>
      <trkpt lat="42.4088" lon="2.57428">
        <ele>699.4</ele>
        <time>2022-05-21 18:18:58</time>
      </trkpt>
      <trkpt lat="42.40876" lon="2.57425">
        <ele>699.4</ele>
        <time>2022-05-21 18:18:59</time>
      </trkpt>
      <trkpt lat="42.40871" lon="2.57423">
        <ele>699.4</ele>
        <time>2022-05-21 18:19:00</time>
      </trkpt>
      <trkpt lat="42.40867" lon="2.57422">
        <ele>699.4</ele>
        <time>2022-05-21 18:19:01</time>
      </trkpt>
      <trkpt lat="42.40862" lon="2.57422">
        <ele>699.6</ele>
        <time>2022-05-21 18:19:02</time>
      </trkpt>
      <trkpt lat="42.40858" lon="2.57422">
        <ele>699.6</ele>
        <time>2022-05-21 18:19:03</time>
      </trkpt>
      <trkpt lat="42.40854" lon="2.57422">
        <ele>699.6</ele>
        <time>2022-05-21 18:19:04</time>
      </trkpt>
      <trkpt lat="42.40849" lon="2.57422">
        <ele>699.6</ele>
        <time>2022-05-21 18:19:05</time>
      </trkpt>
      <trkpt lat="42.40845" lon="2.57423">
        <ele>699.8</ele>
        <time>2022-05-21 18:19:06</time>
      </trkpt>
      <trkpt lat="42.40841" lon="2.57424">
        <ele>699.8</ele>
        <time>2022-05-21 18:19:07</time>
      </trkpt>
      <trkpt lat="42.40838" lon="2.57426">
        <ele>699.8</ele>
        <time>2022-05-21 18:19:08</time>
      </trkpt>
      <trkpt lat="42.40834" lon="2.57429">
        <ele>700</ele>
        <time>2022-05-21 18:19:09</time>
      </trkpt>
      <trkpt lat="42.40831" lon="2.57432">
        <ele>700</ele>
        <time>2022-05-21 18:19:10</time>
      </trkpt>
      <trkpt lat="42.40828" lon="2.57435">
        <ele>700.2</ele>
        <time>2022-05-21 18:19:11</time>
      </trkpt>
      <trkpt lat="42.40824" lon="2.57438">
        <ele>700.2</ele>
        <time>2022-05-21 18:19:12</time>
      </trkpt>
      <trkpt lat="42.40822" lon="2.57442">
        <ele>700.4</ele>
        <time>2022-05-21 18:19:13</time>
      </trkpt>
      <trkpt lat="42.40819" lon="2.57446">
        <ele>700.4</ele>
        <time>2022-05-21 18:19:14</time>
      </trkpt>
      <trkpt lat="42.40816" lon="2.5745">
        <ele>700.4</ele>
        <time>2022-05-21 18:19:15</time>
      </trkpt>
      <trkpt lat="42.40813" lon="2.57454">
        <ele>700.4</ele>
        <time>2022-05-21 18:19:16</time>
      </trkpt>
      <trkpt lat="42.40811" lon="2.57458">
        <ele>700.6</ele>
        <time>2022-05-21 18:19:17</time>
      </trkpt>
      <trkpt lat="42.40809" lon="2.57462">
        <ele>700.6</ele>
        <time>2022-05-21 18:19:18</time>
      </trkpt>
      <trkpt lat="42.40806" lon="2.57466">
        <ele>700.6</ele>
        <time>2022-05-21 18:19:19</time>
      </trkpt>
      <trkpt lat="42.40804" lon="2.5747">
        <ele>700.8</ele>
        <time>2022-05-21 18:19:20</time>
      </trkpt>
      <trkpt lat="42.40802" lon="2.57474">
        <ele>700.8</ele>
        <time>2022-05-21 18:19:21</time>
      </trkpt>
      <trkpt lat="42.40799" lon="2.57477">
        <ele>701</ele>
        <time>2022-05-21 18:19:22</time>
      </trkpt>
      <trkpt lat="42.40796" lon="2.57481">
        <ele>701</ele>
        <time>2022-05-21 18:19:23</time>
      </trkpt>
      <trkpt lat="42.40794" lon="2.57484">
        <ele>701</ele>
        <time>2022-05-21 18:19:24</time>
      </trkpt>
      <trkpt lat="42.40791" lon="2.57488">
        <ele>701</ele>
        <time>2022-05-21 18:19:25</time>
      </trkpt>
      <trkpt lat="42.40788" lon="2.57491">
        <ele>701.2</ele>
        <time>2022-05-21 18:19:26</time>
      </trkpt>
      <trkpt lat="42.40785" lon="2.57494">
        <ele>701.2</ele>
        <time>2022-05-21 18:19:27</time>
      </trkpt>
      <trkpt lat="42.40782" lon="2.57496">
        <ele>701</ele>
        <time>2022-05-21 18:19:28</time>
      </trkpt>
      <trkpt lat="42.40779" lon="2.57499">
        <ele>701</ele>
        <time>2022-05-21 18:19:29</time>
      </trkpt>
      <trkpt lat="42.40775" lon="2.57501">
        <ele>701</ele>
        <time>2022-05-21 18:19:30</time>
      </trkpt>
      <trkpt lat="42.40771" lon="2.57502">
        <ele>700.8</ele>
        <time>2022-05-21 18:19:31</time>
      </trkpt>
      <trkpt lat="42.40767" lon="2.57503">
        <ele>700.6</ele>
        <time>2022-05-21 18:19:32</time>
      </trkpt>
      <trkpt lat="42.40763" lon="2.57504">
        <ele>700.4</ele>
        <time>2022-05-21 18:19:33</time>
      </trkpt>
      <trkpt lat="42.40758" lon="2.57503">
        <ele>700.2</ele>
        <time>2022-05-21 18:19:34</time>
      </trkpt>
      <trkpt lat="42.40754" lon="2.57502">
        <ele>700</ele>
        <time>2022-05-21 18:19:35</time>
      </trkpt>
      <trkpt lat="42.4075" lon="2.57499">
        <ele>699.6</ele>
        <time>2022-05-21 18:19:36</time>
      </trkpt>
      <trkpt lat="42.40746" lon="2.57495">
        <ele>699.4</ele>
        <time>2022-05-21 18:19:37</time>
      </trkpt>
      <trkpt lat="42.40742" lon="2.57491">
        <ele>699</ele>
        <time>2022-05-21 18:19:38</time>
      </trkpt>
      <trkpt lat="42.40738" lon="2.57486">
        <ele>698.8</ele>
        <time>2022-05-21 18:19:39</time>
      </trkpt>
      <trkpt lat="42.40734" lon="2.57481">
        <ele>698.4</ele>
        <time>2022-05-21 18:19:40</time>
      </trkpt>
      <trkpt lat="42.4073" lon="2.57474">
        <ele>698</ele>
        <time>2022-05-21 18:19:41</time>
      </trkpt>
      <trkpt lat="42.40727" lon="2.57467">
        <ele>697.8</ele>
        <time>2022-05-21 18:19:42</time>
      </trkpt>
      <trkpt lat="42.40725" lon="2.57459">
        <ele>697.4</ele>
        <time>2022-05-21 18:19:43</time>
      </trkpt>
      <trkpt lat="42.40721" lon="2.57451">
        <ele>697</ele>
        <time>2022-05-21 18:19:44</time>
      </trkpt>
      <trkpt lat="42.40718" lon="2.57442">
        <ele>696.6</ele>
        <time>2022-05-21 18:19:45</time>
      </trkpt>
      <trkpt lat="42.40714" lon="2.57433">
        <ele>696.2</ele>
        <time>2022-05-21 18:19:46</time>
      </trkpt>
      <trkpt lat="42.40711" lon="2.57425">
        <ele>695.8</ele>
        <time>2022-05-21 18:19:47</time>
      </trkpt>
      <trkpt lat="42.40707" lon="2.57415">
        <ele>695.4</ele>
        <time>2022-05-21 18:19:48</time>
      </trkpt>
      <trkpt lat="42.40704" lon="2.57406">
        <ele>695</ele>
        <time>2022-05-21 18:19:49</time>
      </trkpt>
      <trkpt lat="42.407" lon="2.57396">
        <ele>694.4</ele>
        <time>2022-05-21 18:19:50</time>
      </trkpt>
      <trkpt lat="42.40696" lon="2.57388">
        <ele>694</ele>
        <time>2022-05-21 18:19:51</time>
      </trkpt>
      <trkpt lat="42.40693" lon="2.57383">
        <ele>693.8</ele>
        <time>2022-05-21 18:19:52</time>
      </trkpt>
      <trkpt lat="42.40685" lon="2.5737">
        <ele>693</ele>
        <time>2022-05-21 18:19:53</time>
      </trkpt>
      <trkpt lat="42.40679" lon="2.5736">
        <ele>692.4</ele>
        <time>2022-05-21 18:19:54</time>
      </trkpt>
      <trkpt lat="42.40674" lon="2.57352">
        <ele>691.8</ele>
        <time>2022-05-21 18:19:55</time>
      </trkpt>
      <trkpt lat="42.40667" lon="2.57343">
        <ele>691.4</ele>
        <time>2022-05-21 18:19:56</time>
      </trkpt>
      <trkpt lat="42.40661" lon="2.57336">
        <ele>690.8</ele>
        <time>2022-05-21 18:19:57</time>
      </trkpt>
      <trkpt lat="42.40656" lon="2.57331">
        <ele>690.4</ele>
        <time>2022-05-21 18:19:58</time>
      </trkpt>
      <trkpt lat="42.40651" lon="2.57325">
        <ele>690.2</ele>
        <time>2022-05-21 18:19:59</time>
      </trkpt>
      <trkpt lat="42.40647" lon="2.57319">
        <ele>689.6</ele>
        <time>2022-05-21 18:20:00</time>
      </trkpt>
      <trkpt lat="42.40647" lon="2.57313">
        <ele>689.2</ele>
        <time>2022-05-21 18:20:01</time>
      </trkpt>
      <trkpt lat="42.40648" lon="2.57307">
        <ele>688.8</ele>
        <time>2022-05-21 18:20:02</time>
      </trkpt>
      <trkpt lat="42.4065" lon="2.573">
        <ele>688.2</ele>
        <time>2022-05-21 18:20:03</time>
      </trkpt>
      <trkpt lat="42.40652" lon="2.57292">
        <ele>687.8</ele>
        <time>2022-05-21 18:20:04</time>
      </trkpt>
      <trkpt lat="42.40655" lon="2.57281">
        <ele>687.2</ele>
        <time>2022-05-21 18:20:05</time>
      </trkpt>
      <trkpt lat="42.40657" lon="2.57269">
        <ele>686.6</ele>
        <time>2022-05-21 18:20:06</time>
      </trkpt>
      <trkpt lat="42.40661" lon="2.57256">
        <ele>686</ele>
        <time>2022-05-21 18:20:07</time>
      </trkpt>
      <trkpt lat="42.40668" lon="2.57246">
        <ele>685.6</ele>
        <time>2022-05-21 18:20:08</time>
      </trkpt>
      <trkpt lat="42.40676" lon="2.57238">
        <ele>684.8</ele>
        <time>2022-05-21 18:20:09</time>
      </trkpt>
      <trkpt lat="42.40685" lon="2.5723">
        <ele>684.2</ele>
        <time>2022-05-21 18:20:10</time>
      </trkpt>
      <trkpt lat="42.40693" lon="2.57223">
        <ele>683.6</ele>
        <time>2022-05-21 18:20:11</time>
      </trkpt>
      <trkpt lat="42.407" lon="2.57216">
        <ele>683</ele>
        <time>2022-05-21 18:20:12</time>
      </trkpt>
      <trkpt lat="42.40706" lon="2.57209">
        <ele>682.4</ele>
        <time>2022-05-21 18:20:13</time>
      </trkpt>
      <trkpt lat="42.40711" lon="2.57201">
        <ele>681.8</ele>
        <time>2022-05-21 18:20:14</time>
      </trkpt>
      <trkpt lat="42.40714" lon="2.57193">
        <ele>681.2</ele>
        <time>2022-05-21 18:20:15</time>
      </trkpt>
      <trkpt lat="42.40716" lon="2.57184">
        <ele>680.6</ele>
        <time>2022-05-21 18:20:16</time>
      </trkpt>
      <trkpt lat="42.40716" lon="2.57175">
        <ele>680</ele>
        <time>2022-05-21 18:20:17</time>
      </trkpt>
      <trkpt lat="42.40716" lon="2.57166">
        <ele>679.4</ele>
        <time>2022-05-21 18:20:18</time>
      </trkpt>
      <trkpt lat="42.40716" lon="2.57157">
        <ele>678.6</ele>
        <time>2022-05-21 18:20:19</time>
      </trkpt>
      <trkpt lat="42.40715" lon="2.57146">
        <ele>678</ele>
        <time>2022-05-21 18:20:20</time>
      </trkpt>
      <trkpt lat="42.40712" lon="2.57135">
        <ele>677.4</ele>
        <time>2022-05-21 18:20:21</time>
      </trkpt>
      <trkpt lat="42.40708" lon="2.57122">
        <ele>676.6</ele>
        <time>2022-05-21 18:20:22</time>
      </trkpt>
      <trkpt lat="42.40704" lon="2.57108">
        <ele>675.8</ele>
        <time>2022-05-21 18:20:23</time>
      </trkpt>
      <trkpt lat="42.40699" lon="2.57095">
        <ele>675</ele>
        <time>2022-05-21 18:20:24</time>
      </trkpt>
      <trkpt lat="42.40695" lon="2.57083">
        <ele>674.2</ele>
        <time>2022-05-21 18:20:25</time>
      </trkpt>
      <trkpt lat="42.40691" lon="2.5707">
        <ele>673.2</ele>
        <time>2022-05-21 18:20:26</time>
      </trkpt>
      <trkpt lat="42.40685" lon="2.57057">
        <ele>672.4</ele>
        <time>2022-05-21 18:20:27</time>
      </trkpt>
      <trkpt lat="42.40679" lon="2.57043">
        <ele>671.4</ele>
        <time>2022-05-21 18:20:28</time>
      </trkpt>
      <trkpt lat="42.40672" lon="2.57028">
        <ele>670.6</ele>
        <time>2022-05-21 18:20:29</time>
      </trkpt>
      <trkpt lat="42.40665" lon="2.57013">
        <ele>669.8</ele>
        <time>2022-05-21 18:20:30</time>
      </trkpt>
      <trkpt lat="42.40659" lon="2.56999">
        <ele>669</ele>
        <time>2022-05-21 18:20:31</time>
      </trkpt>
      <trkpt lat="42.40654" lon="2.56985">
        <ele>668.4</ele>
        <time>2022-05-21 18:20:32</time>
      </trkpt>
      <trkpt lat="42.40648" lon="2.56972">
        <ele>667.8</ele>
        <time>2022-05-21 18:20:33</time>
      </trkpt>
      <trkpt lat="42.40643" lon="2.5696">
        <ele>667.2</ele>
        <time>2022-05-21 18:20:34</time>
      </trkpt>
      <trkpt lat="42.40636" lon="2.56951">
        <ele>666.6</ele>
        <time>2022-05-21 18:20:35</time>
      </trkpt>
      <trkpt lat="42.40629" lon="2.56944">
        <ele>665.8</ele>
        <time>2022-05-21 18:20:36</time>
      </trkpt>
      <trkpt lat="42.40619" lon="2.56939">
        <ele>665.2</ele>
        <time>2022-05-21 18:20:37</time>
      </trkpt>
      <trkpt lat="42.40608" lon="2.56936">
        <ele>664.4</ele>
        <time>2022-05-21 18:20:38</time>
      </trkpt>
      <trkpt lat="42.40597" lon="2.56935">
        <ele>663.6</ele>
        <time>2022-05-21 18:20:39</time>
      </trkpt>
      <trkpt lat="42.40586" lon="2.56935">
        <ele>662.8</ele>
        <time>2022-05-21 18:20:40</time>
      </trkpt>
      <trkpt lat="42.40575" lon="2.56938">
        <ele>662</ele>
        <time>2022-05-21 18:20:41</time>
      </trkpt>
      <trkpt lat="42.40564" lon="2.56941">
        <ele>661.2</ele>
        <time>2022-05-21 18:20:42</time>
      </trkpt>
      <trkpt lat="42.40554" lon="2.56945">
        <ele>660.4</ele>
        <time>2022-05-21 18:20:43</time>
      </trkpt>
      <trkpt lat="42.40544" lon="2.56949">
        <ele>659.6</ele>
        <time>2022-05-21 18:20:44</time>
      </trkpt>
      <trkpt lat="42.40536" lon="2.56952">
        <ele>658.8</ele>
        <time>2022-05-21 18:20:45</time>
      </trkpt>
      <trkpt lat="42.40528" lon="2.56955">
        <ele>658.2</ele>
        <time>2022-05-21 18:20:46</time>
      </trkpt>
      <trkpt lat="42.40521" lon="2.56956">
        <ele>657.4</ele>
        <time>2022-05-21 18:20:47</time>
      </trkpt>
      <trkpt lat="42.40515" lon="2.56956">
        <ele>656.8</ele>
        <time>2022-05-21 18:20:48</time>
      </trkpt>
      <trkpt lat="42.40508" lon="2.56954">
        <ele>656</ele>
        <time>2022-05-21 18:20:49</time>
      </trkpt>
      <trkpt lat="42.405" lon="2.56951">
        <ele>655.2</ele>
        <time>2022-05-21 18:20:50</time>
      </trkpt>
      <trkpt lat="42.40491" lon="2.56947">
        <ele>654.6</ele>
        <time>2022-05-21 18:20:51</time>
      </trkpt>
      <trkpt lat="42.40482" lon="2.56945">
        <ele>653.8</ele>
        <time>2022-05-21 18:20:52</time>
      </trkpt>
      <trkpt lat="42.40472" lon="2.56944">
        <ele>653</ele>
        <time>2022-05-21 18:20:53</time>
      </trkpt>
      <trkpt lat="42.40462" lon="2.56941">
        <ele>652.2</ele>
        <time>2022-05-21 18:20:54</time>
      </trkpt>
      <trkpt lat="42.40453" lon="2.56939">
        <ele>651.6</ele>
        <time>2022-05-21 18:20:55</time>
      </trkpt>
      <trkpt lat="42.40444" lon="2.56937">
        <ele>651</ele>
        <time>2022-05-21 18:20:56</time>
      </trkpt>
      <trkpt lat="42.40436" lon="2.56934">
        <ele>650.6</ele>
        <time>2022-05-21 18:20:57</time>
      </trkpt>
      <trkpt lat="42.4043" lon="2.56931">
        <ele>650</ele>
        <time>2022-05-21 18:20:58</time>
      </trkpt>
      <trkpt lat="42.40428" lon="2.56924">
        <ele>649.6</ele>
        <time>2022-05-21 18:20:59</time>
      </trkpt>
      <trkpt lat="42.40427" lon="2.56913">
        <ele>649.2</ele>
        <time>2022-05-21 18:21:00</time>
      </trkpt>
      <trkpt lat="42.40426" lon="2.569">
        <ele>648.8</ele>
        <time>2022-05-21 18:21:01</time>
      </trkpt>
      <trkpt lat="42.40423" lon="2.56887">
        <ele>648.2</ele>
        <time>2022-05-21 18:21:02</time>
      </trkpt>
      <trkpt lat="42.4042" lon="2.56875">
        <ele>647.8</ele>
        <time>2022-05-21 18:21:03</time>
      </trkpt>
      <trkpt lat="42.40416" lon="2.56864">
        <ele>647.4</ele>
        <time>2022-05-21 18:21:04</time>
      </trkpt>
      <trkpt lat="42.40413" lon="2.56852">
        <ele>647</ele>
        <time>2022-05-21 18:21:05</time>
      </trkpt>
      <trkpt lat="42.4041" lon="2.56839">
        <ele>646.6</ele>
        <time>2022-05-21 18:21:06</time>
      </trkpt>
      <trkpt lat="42.40407" lon="2.56827">
        <ele>646.2</ele>
        <time>2022-05-21 18:21:07</time>
      </trkpt>
      <trkpt lat="42.40404" lon="2.56816">
        <ele>645.8</ele>
        <time>2022-05-21 18:21:08</time>
      </trkpt>
      <trkpt lat="42.404" lon="2.56805">
        <ele>645.2</ele>
        <time>2022-05-21 18:21:09</time>
      </trkpt>
      <trkpt lat="42.40396" lon="2.56794">
        <ele>644.6</ele>
        <time>2022-05-21 18:21:10</time>
      </trkpt>
      <trkpt lat="42.40393" lon="2.56783">
        <ele>644</ele>
        <time>2022-05-21 18:21:11</time>
      </trkpt>
      <trkpt lat="42.4039" lon="2.5677">
        <ele>643</ele>
        <time>2022-05-21 18:21:12</time>
      </trkpt>
      <trkpt lat="42.40385" lon="2.56758">
        <ele>642.2</ele>
        <time>2022-05-21 18:21:13</time>
      </trkpt>
      <trkpt lat="42.40378" lon="2.56748">
        <ele>641.4</ele>
        <time>2022-05-21 18:21:14</time>
      </trkpt>
      <trkpt lat="42.4037" lon="2.5674">
        <ele>640.4</ele>
        <time>2022-05-21 18:21:15</time>
      </trkpt>
      <trkpt lat="42.40361" lon="2.56732">
        <ele>639.6</ele>
        <time>2022-05-21 18:21:16</time>
      </trkpt>
      <trkpt lat="42.40353" lon="2.56725">
        <ele>638.6</ele>
        <time>2022-05-21 18:21:17</time>
      </trkpt>
      <trkpt lat="42.40345" lon="2.56718">
        <ele>637.8</ele>
        <time>2022-05-21 18:21:18</time>
      </trkpt>
      <trkpt lat="42.40334" lon="2.56711">
        <ele>636.8</ele>
        <time>2022-05-21 18:21:19</time>
      </trkpt>
      <trkpt lat="42.40324" lon="2.56705">
        <ele>635.6</ele>
        <time>2022-05-21 18:21:20</time>
      </trkpt>
      <trkpt lat="42.40313" lon="2.56699">
        <ele>634.6</ele>
        <time>2022-05-21 18:21:21</time>
      </trkpt>
      <trkpt lat="42.40303" lon="2.56693">
        <ele>633.6</ele>
        <time>2022-05-21 18:21:22</time>
      </trkpt>
      <trkpt lat="42.40292" lon="2.56686">
        <ele>632.6</ele>
        <time>2022-05-21 18:21:23</time>
      </trkpt>
      <trkpt lat="42.40283" lon="2.56678">
        <ele>631.6</ele>
        <time>2022-05-21 18:21:24</time>
      </trkpt>
      <trkpt lat="42.40272" lon="2.56669">
        <ele>630.4</ele>
        <time>2022-05-21 18:21:25</time>
      </trkpt>
      <trkpt lat="42.40262" lon="2.56662">
        <ele>629.2</ele>
        <time>2022-05-21 18:21:26</time>
      </trkpt>
      <trkpt lat="42.40251" lon="2.56655">
        <ele>628.2</ele>
        <time>2022-05-21 18:21:27</time>
      </trkpt>
      <trkpt lat="42.40239" lon="2.56648">
        <ele>627.2</ele>
        <time>2022-05-21 18:21:28</time>
      </trkpt>
      <trkpt lat="42.40228" lon="2.56642">
        <ele>626.4</ele>
        <time>2022-05-21 18:21:29</time>
      </trkpt>
      <trkpt lat="42.40218" lon="2.56637">
        <ele>625.4</ele>
        <time>2022-05-21 18:21:30</time>
      </trkpt>
      <trkpt lat="42.40207" lon="2.56633">
        <ele>624.6</ele>
        <time>2022-05-21 18:21:31</time>
      </trkpt>
      <trkpt lat="42.40196" lon="2.56629">
        <ele>623.6</ele>
        <time>2022-05-21 18:21:32</time>
      </trkpt>
      <trkpt lat="42.40185" lon="2.56627">
        <ele>622.8</ele>
        <time>2022-05-21 18:21:33</time>
      </trkpt>
      <trkpt lat="42.40172" lon="2.56626">
        <ele>621.8</ele>
        <time>2022-05-21 18:21:34</time>
      </trkpt>
      <trkpt lat="42.40159" lon="2.56626">
        <ele>621.2</ele>
        <time>2022-05-21 18:21:35</time>
      </trkpt>
      <trkpt lat="42.40147" lon="2.56627">
        <ele>620.2</ele>
        <time>2022-05-21 18:21:36</time>
      </trkpt>
      <trkpt lat="42.40137" lon="2.56628">
        <ele>619.4</ele>
        <time>2022-05-21 18:21:37</time>
      </trkpt>
      <trkpt lat="42.40126" lon="2.5663">
        <ele>618.6</ele>
        <time>2022-05-21 18:21:38</time>
      </trkpt>
      <trkpt lat="42.40116" lon="2.56635">
        <ele>617.8</ele>
        <time>2022-05-21 18:21:39</time>
      </trkpt>
      <trkpt lat="42.40107" lon="2.56641">
        <ele>617</ele>
        <time>2022-05-21 18:21:40</time>
      </trkpt>
      <trkpt lat="42.40099" lon="2.56649">
        <ele>616.2</ele>
        <time>2022-05-21 18:21:41</time>
      </trkpt>
      <trkpt lat="42.40092" lon="2.56657">
        <ele>615.4</ele>
        <time>2022-05-21 18:21:42</time>
      </trkpt>
      <trkpt lat="42.40087" lon="2.56668">
        <ele>614.6</ele>
        <time>2022-05-21 18:21:43</time>
      </trkpt>
      <trkpt lat="42.40082" lon="2.5668">
        <ele>614</ele>
        <time>2022-05-21 18:21:44</time>
      </trkpt>
      <trkpt lat="42.40076" lon="2.5669">
        <ele>613.4</ele>
        <time>2022-05-21 18:21:45</time>
      </trkpt>
      <trkpt lat="42.40071" lon="2.56698">
        <ele>612.8</ele>
        <time>2022-05-21 18:21:46</time>
      </trkpt>
      <trkpt lat="42.40065" lon="2.56704">
        <ele>612.4</ele>
        <time>2022-05-21 18:21:47</time>
      </trkpt>
      <trkpt lat="42.40059" lon="2.56706">
        <ele>612</ele>
        <time>2022-05-21 18:21:48</time>
      </trkpt>
      <trkpt lat="42.40054" lon="2.56704">
        <ele>611.6</ele>
        <time>2022-05-21 18:21:49</time>
      </trkpt>
      <trkpt lat="42.40049" lon="2.56701">
        <ele>611.2</ele>
        <time>2022-05-21 18:21:50</time>
      </trkpt>
      <trkpt lat="42.40046" lon="2.56695">
        <ele>610.6</ele>
        <time>2022-05-21 18:21:51</time>
      </trkpt>
      <trkpt lat="42.40043" lon="2.56688">
        <ele>610</ele>
        <time>2022-05-21 18:21:52</time>
      </trkpt>
      <trkpt lat="42.4004" lon="2.5668">
        <ele>609.4</ele>
        <time>2022-05-21 18:21:53</time>
      </trkpt>
      <trkpt lat="42.40035" lon="2.56669">
        <ele>608.8</ele>
        <time>2022-05-21 18:21:54</time>
      </trkpt>
      <trkpt lat="42.40031" lon="2.56658">
        <ele>608</ele>
        <time>2022-05-21 18:21:55</time>
      </trkpt>
      <trkpt lat="42.40027" lon="2.56648">
        <ele>607.4</ele>
        <time>2022-05-21 18:21:56</time>
      </trkpt>
      <trkpt lat="42.40022" lon="2.56639">
        <ele>606.6</ele>
        <time>2022-05-21 18:21:57</time>
      </trkpt>
      <trkpt lat="42.40016" lon="2.5663">
        <ele>605.8</ele>
        <time>2022-05-21 18:21:58</time>
      </trkpt>
      <trkpt lat="42.4001" lon="2.56622">
        <ele>605</ele>
        <time>2022-05-21 18:21:59</time>
      </trkpt>
      <trkpt lat="42.40002" lon="2.56616">
        <ele>604.2</ele>
        <time>2022-05-21 18:22:00</time>
      </trkpt>
      <trkpt lat="42.39992" lon="2.56612">
        <ele>603.4</ele>
        <time>2022-05-21 18:22:01</time>
      </trkpt>
      <trkpt lat="42.39983" lon="2.5661">
        <ele>602.6</ele>
        <time>2022-05-21 18:22:02</time>
      </trkpt>
      <trkpt lat="42.39973" lon="2.5661">
        <ele>601.8</ele>
        <time>2022-05-21 18:22:03</time>
      </trkpt>
      <trkpt lat="42.39962" lon="2.56609">
        <ele>601</ele>
        <time>2022-05-21 18:22:04</time>
      </trkpt>
      <trkpt lat="42.39952" lon="2.5661">
        <ele>600.2</ele>
        <time>2022-05-21 18:22:05</time>
      </trkpt>
      <trkpt lat="42.39943" lon="2.5661">
        <ele>599.2</ele>
        <time>2022-05-21 18:22:06</time>
      </trkpt>
      <trkpt lat="42.39933" lon="2.56609">
        <ele>598.4</ele>
        <time>2022-05-21 18:22:07</time>
      </trkpt>
      <trkpt lat="42.39924" lon="2.56607">
        <ele>597.6</ele>
        <time>2022-05-21 18:22:08</time>
      </trkpt>
      <trkpt lat="42.39915" lon="2.56605">
        <ele>596.6</ele>
        <time>2022-05-21 18:22:09</time>
      </trkpt>
      <trkpt lat="42.39904" lon="2.56601">
        <ele>595.8</ele>
        <time>2022-05-21 18:22:10</time>
      </trkpt>
      <trkpt lat="42.39895" lon="2.56598">
        <ele>594.8</ele>
        <time>2022-05-21 18:22:11</time>
      </trkpt>
      <trkpt lat="42.39888" lon="2.56595">
        <ele>594</ele>
        <time>2022-05-21 18:22:12</time>
      </trkpt>
      <trkpt lat="42.39879" lon="2.5659">
        <ele>593.2</ele>
        <time>2022-05-21 18:22:13</time>
      </trkpt>
      <trkpt lat="42.3987" lon="2.56585">
        <ele>592.6</ele>
        <time>2022-05-21 18:22:14</time>
      </trkpt>
      <trkpt lat="42.39854" lon="2.56575">
        <ele>591.4</ele>
        <time>2022-05-21 18:22:15</time>
      </trkpt>
      <trkpt lat="42.39845" lon="2.5657">
        <ele>590.6</ele>
        <time>2022-05-21 18:22:16</time>
      </trkpt>
      <trkpt lat="42.39836" lon="2.56566">
        <ele>590</ele>
        <time>2022-05-21 18:22:17</time>
      </trkpt>
      <trkpt lat="42.39827" lon="2.56564">
        <ele>589.4</ele>
        <time>2022-05-21 18:22:18</time>
      </trkpt>
      <trkpt lat="42.39818" lon="2.56563">
        <ele>588.8</ele>
        <time>2022-05-21 18:22:19</time>
      </trkpt>
      <trkpt lat="42.39809" lon="2.56564">
        <ele>588.4</ele>
        <time>2022-05-21 18:22:20</time>
      </trkpt>
      <trkpt lat="42.39801" lon="2.56565">
        <ele>587.8</ele>
        <time>2022-05-21 18:22:21</time>
      </trkpt>
      <trkpt lat="42.39795" lon="2.56571">
        <ele>587.4</ele>
        <time>2022-05-21 18:22:22</time>
      </trkpt>
      <trkpt lat="42.39791" lon="2.56577">
        <ele>587</ele>
        <time>2022-05-21 18:22:23</time>
      </trkpt>
      <trkpt lat="42.39786" lon="2.56582">
        <ele>586.8</ele>
        <time>2022-05-21 18:22:24</time>
      </trkpt>
      <trkpt lat="42.39779" lon="2.56586">
        <ele>586.4</ele>
        <time>2022-05-21 18:22:25</time>
      </trkpt>
      <trkpt lat="42.39775" lon="2.56586">
        <ele>586</ele>
        <time>2022-05-21 18:22:26</time>
      </trkpt>
      <trkpt lat="42.39774" lon="2.56584">
        <ele>585.6</ele>
        <time>2022-05-21 18:22:27</time>
      </trkpt>
      <trkpt lat="42.39772" lon="2.56578">
        <ele>585.2</ele>
        <time>2022-05-21 18:22:28</time>
      </trkpt>
      <trkpt lat="42.39771" lon="2.56569">
        <ele>584.8</ele>
        <time>2022-05-21 18:22:29</time>
      </trkpt>
      <trkpt lat="42.39768" lon="2.5656">
        <ele>584.6</ele>
        <time>2022-05-21 18:22:30</time>
      </trkpt>
      <trkpt lat="42.39766" lon="2.56549">
        <ele>584.2</ele>
        <time>2022-05-21 18:22:31</time>
      </trkpt>
      <trkpt lat="42.3976" lon="2.56541">
        <ele>583.8</ele>
        <time>2022-05-21 18:22:32</time>
      </trkpt>
      <trkpt lat="42.39752" lon="2.56535">
        <ele>583.4</ele>
        <time>2022-05-21 18:22:33</time>
      </trkpt>
      <trkpt lat="42.39744" lon="2.56533">
        <ele>583.2</ele>
        <time>2022-05-21 18:22:34</time>
      </trkpt>
      <trkpt lat="42.39737" lon="2.56531">
        <ele>582.8</ele>
        <time>2022-05-21 18:22:35</time>
      </trkpt>
      <trkpt lat="42.39729" lon="2.56532">
        <ele>582.2</ele>
        <time>2022-05-21 18:22:36</time>
      </trkpt>
      <trkpt lat="42.39721" lon="2.56533">
        <ele>581.8</ele>
        <time>2022-05-21 18:22:37</time>
      </trkpt>
      <trkpt lat="42.39713" lon="2.56535">
        <ele>581.2</ele>
        <time>2022-05-21 18:22:38</time>
      </trkpt>
      <trkpt lat="42.39706" lon="2.56539">
        <ele>580.6</ele>
        <time>2022-05-21 18:22:39</time>
      </trkpt>
      <trkpt lat="42.39699" lon="2.56545">
        <ele>579.8</ele>
        <time>2022-05-21 18:22:40</time>
      </trkpt>
      <trkpt lat="42.39693" lon="2.56552">
        <ele>579.2</ele>
        <time>2022-05-21 18:22:41</time>
      </trkpt>
      <trkpt lat="42.39687" lon="2.56561">
        <ele>578.4</ele>
        <time>2022-05-21 18:22:42</time>
      </trkpt>
      <trkpt lat="42.3968" lon="2.56569">
        <ele>577.6</ele>
        <time>2022-05-21 18:22:43</time>
      </trkpt>
      <trkpt lat="42.39673" lon="2.56576">
        <ele>576.8</ele>
        <time>2022-05-21 18:22:44</time>
      </trkpt>
      <trkpt lat="42.39663" lon="2.56583">
        <ele>576</ele>
        <time>2022-05-21 18:22:45</time>
      </trkpt>
      <trkpt lat="42.39654" lon="2.56589">
        <ele>575.4</ele>
        <time>2022-05-21 18:22:46</time>
      </trkpt>
      <trkpt lat="42.39646" lon="2.56594">
        <ele>574.6</ele>
        <time>2022-05-21 18:22:47</time>
      </trkpt>
      <trkpt lat="42.39637" lon="2.56596">
        <ele>573.8</ele>
        <time>2022-05-21 18:22:48</time>
      </trkpt>
      <trkpt lat="42.39629" lon="2.56597">
        <ele>573</ele>
        <time>2022-05-21 18:22:49</time>
      </trkpt>
      <trkpt lat="42.39621" lon="2.56596">
        <ele>572.4</ele>
        <time>2022-05-21 18:22:50</time>
      </trkpt>
      <trkpt lat="42.39614" lon="2.56594">
        <ele>571.6</ele>
        <time>2022-05-21 18:22:51</time>
      </trkpt>
      <trkpt lat="42.39607" lon="2.56589">
        <ele>571</ele>
        <time>2022-05-21 18:22:52</time>
      </trkpt>
      <trkpt lat="42.39601" lon="2.56583">
        <ele>570.6</ele>
        <time>2022-05-21 18:22:53</time>
      </trkpt>
      <trkpt lat="42.39598" lon="2.56575">
        <ele>570.2</ele>
        <time>2022-05-21 18:22:54</time>
      </trkpt>
      <trkpt lat="42.39595" lon="2.56567">
        <ele>569.8</ele>
        <time>2022-05-21 18:22:55</time>
      </trkpt>
      <trkpt lat="42.39595" lon="2.56555">
        <ele>569.6</ele>
        <time>2022-05-21 18:22:56</time>
      </trkpt>
      <trkpt lat="42.39595" lon="2.56542">
        <ele>569.6</ele>
        <time>2022-05-21 18:22:57</time>
      </trkpt>
      <trkpt lat="42.39596" lon="2.56531">
        <ele>569.8</ele>
        <time>2022-05-21 18:22:58</time>
      </trkpt>
      <trkpt lat="42.39598" lon="2.56521">
        <ele>570</ele>
        <time>2022-05-21 18:22:59</time>
      </trkpt>
      <trkpt lat="42.396" lon="2.56512">
        <ele>570.2</ele>
        <time>2022-05-21 18:23:00</time>
      </trkpt>
      <trkpt lat="42.39603" lon="2.56504">
        <ele>570.4</ele>
        <time>2022-05-21 18:23:01</time>
      </trkpt>
      <trkpt lat="42.39607" lon="2.56497">
        <ele>570.8</ele>
        <time>2022-05-21 18:23:02</time>
      </trkpt>
      <trkpt lat="42.3961" lon="2.56491">
        <ele>571</ele>
        <time>2022-05-21 18:23:03</time>
      </trkpt>
      <trkpt lat="42.39614" lon="2.56485">
        <ele>571.2</ele>
        <time>2022-05-21 18:23:04</time>
      </trkpt>
      <trkpt lat="42.39617" lon="2.56479">
        <ele>571.4</ele>
        <time>2022-05-21 18:23:05</time>
      </trkpt>
      <trkpt lat="42.3962" lon="2.56474">
        <ele>571.6</ele>
        <time>2022-05-21 18:23:06</time>
      </trkpt>
      <trkpt lat="42.39624" lon="2.5647">
        <ele>571.8</ele>
        <time>2022-05-21 18:23:07</time>
      </trkpt>
      <trkpt lat="42.39627" lon="2.56465">
        <ele>572.2</ele>
        <time>2022-05-21 18:23:08</time>
      </trkpt>
      <trkpt lat="42.39631" lon="2.56462">
        <ele>572.4</ele>
        <time>2022-05-21 18:23:09</time>
      </trkpt>
      <trkpt lat="42.39635" lon="2.56458">
        <ele>572.6</ele>
        <time>2022-05-21 18:23:10</time>
      </trkpt>
      <trkpt lat="42.39638" lon="2.56454">
        <ele>572.8</ele>
        <time>2022-05-21 18:23:11</time>
      </trkpt>
      <trkpt lat="42.39641" lon="2.56451">
        <ele>573</ele>
        <time>2022-05-21 18:23:12</time>
      </trkpt>
      <trkpt lat="42.39645" lon="2.56448">
        <ele>573.2</ele>
        <time>2022-05-21 18:23:13</time>
      </trkpt>
      <trkpt lat="42.39647" lon="2.56445">
        <ele>573.4</ele>
        <time>2022-05-21 18:23:14</time>
      </trkpt>
      <trkpt lat="42.3965" lon="2.56442">
        <ele>573.8</ele>
        <time>2022-05-21 18:23:15</time>
      </trkpt>
      <trkpt lat="42.39651" lon="2.5644">
        <ele>574</ele>
        <time>2022-05-21 18:23:16</time>
      </trkpt>
      <trkpt lat="42.39653" lon="2.56438">
        <ele>574.2</ele>
        <time>2022-05-21 18:23:17</time>
      </trkpt>
      <trkpt lat="42.39655" lon="2.56436">
        <ele>574.2</ele>
        <time>2022-05-21 18:23:18</time>
      </trkpt>
      <trkpt lat="42.39657" lon="2.56434">
        <ele>574.4</ele>
        <time>2022-05-21 18:23:19</time>
      </trkpt>
      <trkpt lat="42.3966" lon="2.56432">
        <ele>574.6</ele>
        <time>2022-05-21 18:23:20</time>
      </trkpt>
      <trkpt lat="42.39662" lon="2.56431">
        <ele>574.8</ele>
        <time>2022-05-21 18:23:21</time>
      </trkpt>
      <trkpt lat="42.39665" lon="2.56429">
        <ele>575</ele>
        <time>2022-05-21 18:23:22</time>
      </trkpt>
      <trkpt lat="42.39667" lon="2.56428">
        <ele>575.2</ele>
        <time>2022-05-21 18:23:23</time>
      </trkpt>
      <trkpt lat="42.39669" lon="2.56427">
        <ele>575.4</ele>
        <time>2022-05-21 18:23:24</time>
      </trkpt>
      <trkpt lat="42.39671" lon="2.56425">
        <ele>575.4</ele>
        <time>2022-05-21 18:23:25</time>
      </trkpt>
      <trkpt lat="42.39673" lon="2.56423">
        <ele>575.6</ele>
        <time>2022-05-21 18:23:26</time>
      </trkpt>
      <trkpt lat="42.39674" lon="2.56421">
        <ele>575.8</ele>
        <time>2022-05-21 18:23:27</time>
      </trkpt>
      <trkpt lat="42.39676" lon="2.56419">
        <ele>576</ele>
        <time>2022-05-21 18:23:28</time>
      </trkpt>
      <trkpt lat="42.39678" lon="2.56418">
        <ele>576</ele>
        <time>2022-05-21 18:23:29</time>
      </trkpt>
      <trkpt lat="42.39679" lon="2.56416">
        <ele>576.2</ele>
        <time>2022-05-21 18:23:30</time>
      </trkpt>
      <trkpt lat="42.39682" lon="2.56414">
        <ele>576.4</ele>
        <time>2022-05-21 18:23:31</time>
      </trkpt>
      <trkpt lat="42.39684" lon="2.56412">
        <ele>576.6</ele>
        <time>2022-05-21 18:23:32</time>
      </trkpt>
      <trkpt lat="42.39686" lon="2.5641">
        <ele>576.8</ele>
        <time>2022-05-21 18:23:33</time>
      </trkpt>
      <trkpt lat="42.39687" lon="2.56407">
        <ele>576.8</ele>
        <time>2022-05-21 18:23:34</time>
      </trkpt>
      <trkpt lat="42.39688" lon="2.56405">
        <ele>577</ele>
        <time>2022-05-21 18:23:35</time>
      </trkpt>
      <trkpt lat="42.39689" lon="2.56403">
        <ele>577.2</ele>
        <time>2022-05-21 18:23:36</time>
      </trkpt>
      <trkpt lat="42.39691" lon="2.56401">
        <ele>577.4</ele>
        <time>2022-05-21 18:23:37</time>
      </trkpt>
      <trkpt lat="42.39692" lon="2.56399">
        <ele>577.6</ele>
        <time>2022-05-21 18:23:38</time>
      </trkpt>
      <trkpt lat="42.39693" lon="2.56397">
        <ele>577.8</ele>
        <time>2022-05-21 18:23:39</time>
      </trkpt>
      <trkpt lat="42.39695" lon="2.56395">
        <ele>577.8</ele>
        <time>2022-05-21 18:23:40</time>
      </trkpt>
      <trkpt lat="42.39696" lon="2.56393">
        <ele>578</ele>
        <time>2022-05-21 18:23:41</time>
      </trkpt>
      <trkpt lat="42.39697" lon="2.5639">
        <ele>578.2</ele>
        <time>2022-05-21 18:23:42</time>
      </trkpt>
      <trkpt lat="42.39699" lon="2.56388">
        <ele>578.4</ele>
        <time>2022-05-21 18:23:43</time>
      </trkpt>
      <trkpt lat="42.397" lon="2.56386">
        <ele>578.6</ele>
        <time>2022-05-21 18:23:44</time>
      </trkpt>
      <trkpt lat="42.39702" lon="2.56384">
        <ele>578.8</ele>
        <time>2022-05-21 18:23:45</time>
      </trkpt>
      <trkpt lat="42.39703" lon="2.56382">
        <ele>578.8</ele>
        <time>2022-05-21 18:23:46</time>
      </trkpt>
      <trkpt lat="42.39705" lon="2.5638">
        <ele>579</ele>
        <time>2022-05-21 18:23:47</time>
      </trkpt>
      <trkpt lat="42.39707" lon="2.56377">
        <ele>579.2</ele>
        <time>2022-05-21 18:23:48</time>
      </trkpt>
      <trkpt lat="42.39708" lon="2.56375">
        <ele>579.4</ele>
        <time>2022-05-21 18:23:49</time>
      </trkpt>
      <trkpt lat="42.3971" lon="2.56373">
        <ele>579.6</ele>
        <time>2022-05-21 18:23:50</time>
      </trkpt>
      <trkpt lat="42.39712" lon="2.5637">
        <ele>579.6</ele>
        <time>2022-05-21 18:23:51</time>
      </trkpt>
      <trkpt lat="42.39714" lon="2.56368">
        <ele>579.8</ele>
        <time>2022-05-21 18:23:52</time>
      </trkpt>
      <trkpt lat="42.39716" lon="2.56366">
        <ele>580</ele>
        <time>2022-05-21 18:23:53</time>
      </trkpt>
      <trkpt lat="42.39718" lon="2.56364">
        <ele>580.2</ele>
        <time>2022-05-21 18:23:54</time>
      </trkpt>
      <trkpt lat="42.39719" lon="2.56363">
        <ele>580.2</ele>
        <time>2022-05-21 18:23:55</time>
      </trkpt>
      <trkpt lat="42.39721" lon="2.56361">
        <ele>580.4</ele>
        <time>2022-05-21 18:23:56</time>
      </trkpt>
      <trkpt lat="42.39723" lon="2.56359">
        <ele>580.6</ele>
        <time>2022-05-21 18:23:57</time>
      </trkpt>
      <trkpt lat="42.39725" lon="2.56357">
        <ele>580.8</ele>
        <time>2022-05-21 18:23:58</time>
      </trkpt>
      <trkpt lat="42.39727" lon="2.56355">
        <ele>580.8</ele>
        <time>2022-05-21 18:23:59</time>
      </trkpt>
      <trkpt lat="42.39729" lon="2.56353">
        <ele>581</ele>
        <time>2022-05-21 18:24:00</time>
      </trkpt>
      <trkpt lat="42.39731" lon="2.56351">
        <ele>581.2</ele>
        <time>2022-05-21 18:24:01</time>
      </trkpt>
      <trkpt lat="42.39733" lon="2.5635">
        <ele>581.2</ele>
        <time>2022-05-21 18:24:02</time>
      </trkpt>
      <trkpt lat="42.39735" lon="2.56348">
        <ele>581.4</ele>
        <time>2022-05-21 18:24:03</time>
      </trkpt>
      <trkpt lat="42.39738" lon="2.56347">
        <ele>581.6</ele>
        <time>2022-05-21 18:24:04</time>
      </trkpt>
      <trkpt lat="42.3974" lon="2.56346">
        <ele>581.8</ele>
        <time>2022-05-21 18:24:05</time>
      </trkpt>
      <trkpt lat="42.39743" lon="2.56344">
        <ele>581.8</ele>
        <time>2022-05-21 18:24:06</time>
      </trkpt>
      <trkpt lat="42.39745" lon="2.56343">
        <ele>582</ele>
        <time>2022-05-21 18:24:07</time>
      </trkpt>
      <trkpt lat="42.39747" lon="2.56341">
        <ele>582.2</ele>
        <time>2022-05-21 18:24:08</time>
      </trkpt>
      <trkpt lat="42.39749" lon="2.5634">
        <ele>582.2</ele>
        <time>2022-05-21 18:24:09</time>
      </trkpt>
      <trkpt lat="42.3975" lon="2.5634">
        <ele>582.4</ele>
        <time>2022-05-21 18:24:10</time>
      </trkpt>
      <trkpt lat="42.39752" lon="2.56339">
        <ele>582.6</ele>
        <time>2022-05-21 18:24:11</time>
      </trkpt>
      <trkpt lat="42.39754" lon="2.56338">
        <ele>582.8</ele>
        <time>2022-05-21 18:24:12</time>
      </trkpt>
      <trkpt lat="42.39756" lon="2.56338">
        <ele>582.8</ele>
        <time>2022-05-21 18:24:13</time>
      </trkpt>
      <trkpt lat="42.39759" lon="2.56337">
        <ele>583</ele>
        <time>2022-05-21 18:24:14</time>
      </trkpt>
      <trkpt lat="42.39762" lon="2.56337">
        <ele>583.2</ele>
        <time>2022-05-21 18:24:15</time>
      </trkpt>
      <trkpt lat="42.39764" lon="2.56336">
        <ele>583.4</ele>
        <time>2022-05-21 18:24:16</time>
      </trkpt>
      <trkpt lat="42.39767" lon="2.56336">
        <ele>583.4</ele>
        <time>2022-05-21 18:24:17</time>
      </trkpt>
      <trkpt lat="42.39769" lon="2.56336">
        <ele>583.6</ele>
        <time>2022-05-21 18:24:18</time>
      </trkpt>
      <trkpt lat="42.39772" lon="2.56336">
        <ele>583.8</ele>
        <time>2022-05-21 18:24:19</time>
      </trkpt>
      <trkpt lat="42.39774" lon="2.56336">
        <ele>584</ele>
        <time>2022-05-21 18:24:20</time>
      </trkpt>
      <trkpt lat="42.39776" lon="2.56336">
        <ele>584.2</ele>
        <time>2022-05-21 18:24:21</time>
      </trkpt>
      <trkpt lat="42.39778" lon="2.56336">
        <ele>584.2</ele>
        <time>2022-05-21 18:24:22</time>
      </trkpt>
      <trkpt lat="42.3978" lon="2.56336">
        <ele>584.4</ele>
        <time>2022-05-21 18:24:23</time>
      </trkpt>
      <trkpt lat="42.39782" lon="2.56336">
        <ele>584.6</ele>
        <time>2022-05-21 18:24:24</time>
      </trkpt>
      <trkpt lat="42.39784" lon="2.56337">
        <ele>584.8</ele>
        <time>2022-05-21 18:24:25</time>
      </trkpt>
      <trkpt lat="42.39785" lon="2.56337">
        <ele>584.8</ele>
        <time>2022-05-21 18:24:26</time>
      </trkpt>
      <trkpt lat="42.39787" lon="2.56338">
        <ele>585</ele>
        <time>2022-05-21 18:24:27</time>
      </trkpt>
      <trkpt lat="42.3979" lon="2.56338">
        <ele>585.2</ele>
        <time>2022-05-21 18:24:28</time>
      </trkpt>
      <trkpt lat="42.39792" lon="2.56339">
        <ele>585.4</ele>
        <time>2022-05-21 18:24:29</time>
      </trkpt>
      <trkpt lat="42.39794" lon="2.56339">
        <ele>585.4</ele>
        <time>2022-05-21 18:24:30</time>
      </trkpt>
      <trkpt lat="42.39796" lon="2.5634">
        <ele>585.6</ele>
        <time>2022-05-21 18:24:31</time>
      </trkpt>
      <trkpt lat="42.39799" lon="2.5634">
        <ele>585.8</ele>
        <time>2022-05-21 18:24:32</time>
      </trkpt>
      <trkpt lat="42.39801" lon="2.5634">
        <ele>585.8</ele>
        <time>2022-05-21 18:24:33</time>
      </trkpt>
      <trkpt lat="42.39804" lon="2.56341">
        <ele>586</ele>
        <time>2022-05-21 18:24:34</time>
      </trkpt>
      <trkpt lat="42.39806" lon="2.56341">
        <ele>586.2</ele>
        <time>2022-05-21 18:24:35</time>
      </trkpt>
      <trkpt lat="42.39808" lon="2.56341">
        <ele>586.4</ele>
        <time>2022-05-21 18:24:36</time>
      </trkpt>
      <trkpt lat="42.39811" lon="2.56342">
        <ele>586.6</ele>
        <time>2022-05-21 18:24:37</time>
      </trkpt>
      <trkpt lat="42.39813" lon="2.56342">
        <ele>586.6</ele>
        <time>2022-05-21 18:24:38</time>
      </trkpt>
      <trkpt lat="42.39816" lon="2.56343">
        <ele>586.8</ele>
        <time>2022-05-21 18:24:39</time>
      </trkpt>
      <trkpt lat="42.39819" lon="2.56343">
        <ele>587</ele>
        <time>2022-05-21 18:24:40</time>
      </trkpt>
      <trkpt lat="42.39821" lon="2.56344">
        <ele>587.2</ele>
        <time>2022-05-21 18:24:41</time>
      </trkpt>
      <trkpt lat="42.39823" lon="2.56345">
        <ele>587.2</ele>
        <time>2022-05-21 18:24:42</time>
      </trkpt>
      <trkpt lat="42.39825" lon="2.56346">
        <ele>587.4</ele>
        <time>2022-05-21 18:24:43</time>
      </trkpt>
      <trkpt lat="42.39827" lon="2.56348">
        <ele>587.6</ele>
        <time>2022-05-21 18:24:44</time>
      </trkpt>
      <trkpt lat="42.39829" lon="2.56349">
        <ele>587.8</ele>
        <time>2022-05-21 18:24:45</time>
      </trkpt>
      <trkpt lat="42.39831" lon="2.5635">
        <ele>587.8</ele>
        <time>2022-05-21 18:24:46</time>
      </trkpt>
      <trkpt lat="42.39834" lon="2.56351">
        <ele>588</ele>
        <time>2022-05-21 18:24:47</time>
      </trkpt>
      <trkpt lat="42.39835" lon="2.56352">
        <ele>588.2</ele>
        <time>2022-05-21 18:24:48</time>
      </trkpt>
      <trkpt lat="42.39838" lon="2.56353">
        <ele>588.2</ele>
        <time>2022-05-21 18:24:49</time>
      </trkpt>
      <trkpt lat="42.3984" lon="2.56354">
        <ele>588.4</ele>
        <time>2022-05-21 18:24:50</time>
      </trkpt>
      <trkpt lat="42.39842" lon="2.56354">
        <ele>588.6</ele>
        <time>2022-05-21 18:24:51</time>
      </trkpt>
      <trkpt lat="42.39844" lon="2.56355">
        <ele>588.6</ele>
        <time>2022-05-21 18:24:52</time>
      </trkpt>
      <trkpt lat="42.39846" lon="2.56355">
        <ele>588.8</ele>
        <time>2022-05-21 18:24:53</time>
      </trkpt>
      <trkpt lat="42.39849" lon="2.56356">
        <ele>589</ele>
        <time>2022-05-21 18:24:54</time>
      </trkpt>
      <trkpt lat="42.39851" lon="2.56357">
        <ele>589</ele>
        <time>2022-05-21 18:24:55</time>
      </trkpt>
      <trkpt lat="42.39853" lon="2.56358">
        <ele>589.2</ele>
        <time>2022-05-21 18:24:56</time>
      </trkpt>
      <trkpt lat="42.39855" lon="2.56359">
        <ele>589.4</ele>
        <time>2022-05-21 18:24:57</time>
      </trkpt>
      <trkpt lat="42.39857" lon="2.5636">
        <ele>589.4</ele>
        <time>2022-05-21 18:24:58</time>
      </trkpt>
      <trkpt lat="42.39859" lon="2.56361">
        <ele>589.6</ele>
        <time>2022-05-21 18:24:59</time>
      </trkpt>
      <trkpt lat="42.39861" lon="2.56362">
        <ele>589.8</ele>
        <time>2022-05-21 18:25:00</time>
      </trkpt>
      <trkpt lat="42.39863" lon="2.56364">
        <ele>589.8</ele>
        <time>2022-05-21 18:25:01</time>
      </trkpt>
      <trkpt lat="42.39864" lon="2.56365">
        <ele>590</ele>
        <time>2022-05-21 18:25:02</time>
      </trkpt>
      <trkpt lat="42.39866" lon="2.56366">
        <ele>590.2</ele>
        <time>2022-05-21 18:25:03</time>
      </trkpt>
      <trkpt lat="42.39868" lon="2.56367">
        <ele>590.2</ele>
        <time>2022-05-21 18:25:04</time>
      </trkpt>
      <trkpt lat="42.39871" lon="2.56368">
        <ele>590.4</ele>
        <time>2022-05-21 18:25:05</time>
      </trkpt>
      <trkpt lat="42.39872" lon="2.56369">
        <ele>590.6</ele>
        <time>2022-05-21 18:25:06</time>
      </trkpt>
      <trkpt lat="42.39873" lon="2.5637">
        <ele>590.6</ele>
        <time>2022-05-21 18:25:07</time>
      </trkpt>
      <trkpt lat="42.39876" lon="2.56371">
        <ele>590.8</ele>
        <time>2022-05-21 18:25:08</time>
      </trkpt>
      <trkpt lat="42.39879" lon="2.56372">
        <ele>591</ele>
        <time>2022-05-21 18:25:09</time>
      </trkpt>
      <trkpt lat="42.39881" lon="2.56373">
        <ele>591</ele>
        <time>2022-05-21 18:25:10</time>
      </trkpt>
      <trkpt lat="42.39884" lon="2.56374">
        <ele>591.2</ele>
        <time>2022-05-21 18:25:11</time>
      </trkpt>
      <trkpt lat="42.39886" lon="2.56374">
        <ele>591.4</ele>
        <time>2022-05-21 18:25:12</time>
      </trkpt>
      <trkpt lat="42.39888" lon="2.56374">
        <ele>591.6</ele>
        <time>2022-05-21 18:25:13</time>
      </trkpt>
      <trkpt lat="42.39891" lon="2.56374">
        <ele>591.6</ele>
        <time>2022-05-21 18:25:14</time>
      </trkpt>
      <trkpt lat="42.39893" lon="2.56373">
        <ele>591.8</ele>
        <time>2022-05-21 18:25:15</time>
      </trkpt>
      <trkpt lat="42.39895" lon="2.56372">
        <ele>592</ele>
        <time>2022-05-21 18:25:16</time>
      </trkpt>
      <trkpt lat="42.39897" lon="2.5637">
        <ele>592</ele>
        <time>2022-05-21 18:25:17</time>
      </trkpt>
      <trkpt lat="42.39898" lon="2.56369">
        <ele>592.2</ele>
        <time>2022-05-21 18:25:18</time>
      </trkpt>
      <trkpt lat="42.399" lon="2.56367">
        <ele>592.2</ele>
        <time>2022-05-21 18:25:19</time>
      </trkpt>
      <trkpt lat="42.39902" lon="2.56365">
        <ele>592.4</ele>
        <time>2022-05-21 18:25:20</time>
      </trkpt>
      <trkpt lat="42.39905" lon="2.56364">
        <ele>592.6</ele>
        <time>2022-05-21 18:25:21</time>
      </trkpt>
      <trkpt lat="42.39906" lon="2.56362">
        <ele>592.6</ele>
        <time>2022-05-21 18:25:22</time>
      </trkpt>
      <trkpt lat="42.39908" lon="2.5636">
        <ele>592.8</ele>
        <time>2022-05-21 18:25:23</time>
      </trkpt>
      <trkpt lat="42.3991" lon="2.56358">
        <ele>593</ele>
        <time>2022-05-21 18:25:24</time>
      </trkpt>
      <trkpt lat="42.39912" lon="2.56357">
        <ele>593</ele>
        <time>2022-05-21 18:25:25</time>
      </trkpt>
      <trkpt lat="42.39914" lon="2.56355">
        <ele>593.2</ele>
        <time>2022-05-21 18:25:26</time>
      </trkpt>
      <trkpt lat="42.39915" lon="2.56353">
        <ele>593.2</ele>
        <time>2022-05-21 18:25:27</time>
      </trkpt>
      <trkpt lat="42.39917" lon="2.56351">
        <ele>593.4</ele>
        <time>2022-05-21 18:25:28</time>
      </trkpt>
      <trkpt lat="42.39919" lon="2.56348">
        <ele>593.6</ele>
        <time>2022-05-21 18:25:29</time>
      </trkpt>
      <trkpt lat="42.39921" lon="2.56346">
        <ele>593.6</ele>
        <time>2022-05-21 18:25:30</time>
      </trkpt>
      <trkpt lat="42.39923" lon="2.56344">
        <ele>593.6</ele>
        <time>2022-05-21 18:25:31</time>
      </trkpt>
      <trkpt lat="42.39925" lon="2.56342">
        <ele>593.8</ele>
        <time>2022-05-21 18:25:32</time>
      </trkpt>
      <trkpt lat="42.39927" lon="2.5634">
        <ele>593.6</ele>
        <time>2022-05-21 18:25:33</time>
      </trkpt>
      <trkpt lat="42.3993" lon="2.56337">
        <ele>593.6</ele>
        <time>2022-05-21 18:25:34</time>
      </trkpt>
      <trkpt lat="42.39934" lon="2.56335">
        <ele>593.4</ele>
        <time>2022-05-21 18:25:35</time>
      </trkpt>
      <trkpt lat="42.39938" lon="2.56332">
        <ele>593.2</ele>
        <time>2022-05-21 18:25:36</time>
      </trkpt>
      <trkpt lat="42.39942" lon="2.5633">
        <ele>593</ele>
        <time>2022-05-21 18:25:37</time>
      </trkpt>
      <trkpt lat="42.39947" lon="2.56329">
        <ele>592.8</ele>
        <time>2022-05-21 18:25:38</time>
      </trkpt>
      <trkpt lat="42.39951" lon="2.56328">
        <ele>592.6</ele>
        <time>2022-05-21 18:25:39</time>
      </trkpt>
      <trkpt lat="42.39956" lon="2.56327">
        <ele>592.4</ele>
        <time>2022-05-21 18:25:40</time>
      </trkpt>
      <trkpt lat="42.39962" lon="2.56327">
        <ele>592.2</ele>
        <time>2022-05-21 18:25:41</time>
      </trkpt>
      <trkpt lat="42.39967" lon="2.56327">
        <ele>591.8</ele>
        <time>2022-05-21 18:25:42</time>
      </trkpt>
      <trkpt lat="42.39973" lon="2.56325">
        <ele>591.6</ele>
        <time>2022-05-21 18:25:43</time>
      </trkpt>
      <trkpt lat="42.39978" lon="2.56324">
        <ele>591.2</ele>
        <time>2022-05-21 18:25:44</time>
      </trkpt>
      <trkpt lat="42.39983" lon="2.56322">
        <ele>590.8</ele>
        <time>2022-05-21 18:25:45</time>
      </trkpt>
      <trkpt lat="42.3999" lon="2.5632">
        <ele>590.4</ele>
        <time>2022-05-21 18:25:46</time>
      </trkpt>
      <trkpt lat="42.39997" lon="2.5632">
        <ele>590</ele>
        <time>2022-05-21 18:25:47</time>
      </trkpt>
      <trkpt lat="42.40005" lon="2.56319">
        <ele>589.4</ele>
        <time>2022-05-21 18:25:48</time>
      </trkpt>
      <trkpt lat="42.40013" lon="2.56318">
        <ele>589</ele>
        <time>2022-05-21 18:25:49</time>
      </trkpt>
      <trkpt lat="42.40023" lon="2.56315">
        <ele>588.4</ele>
        <time>2022-05-21 18:25:50</time>
      </trkpt>
      <trkpt lat="42.40031" lon="2.56312">
        <ele>587.8</ele>
        <time>2022-05-21 18:25:51</time>
      </trkpt>
      <trkpt lat="42.40039" lon="2.56307">
        <ele>587</ele>
        <time>2022-05-21 18:25:52</time>
      </trkpt>
      <trkpt lat="42.40047" lon="2.56301">
        <ele>586.4</ele>
        <time>2022-05-21 18:25:53</time>
      </trkpt>
      <trkpt lat="42.40055" lon="2.56294">
        <ele>585.6</ele>
        <time>2022-05-21 18:25:54</time>
      </trkpt>
      <trkpt lat="42.40064" lon="2.56287">
        <ele>584.8</ele>
        <time>2022-05-21 18:25:55</time>
      </trkpt>
      <trkpt lat="42.40072" lon="2.56281">
        <ele>583.8</ele>
        <time>2022-05-21 18:25:56</time>
      </trkpt>
      <trkpt lat="42.40081" lon="2.56277">
        <ele>583</ele>
        <time>2022-05-21 18:25:57</time>
      </trkpt>
      <trkpt lat="42.40091" lon="2.56273">
        <ele>582</ele>
        <time>2022-05-21 18:25:58</time>
      </trkpt>
      <trkpt lat="42.40102" lon="2.5627">
        <ele>581.2</ele>
        <time>2022-05-21 18:25:59</time>
      </trkpt>
      <trkpt lat="42.40112" lon="2.56266">
        <ele>580.4</ele>
        <time>2022-05-21 18:26:00</time>
      </trkpt>
      <trkpt lat="42.40122" lon="2.56261">
        <ele>579.4</ele>
        <time>2022-05-21 18:26:01</time>
      </trkpt>
      <trkpt lat="42.40133" lon="2.56255">
        <ele>578.6</ele>
        <time>2022-05-21 18:26:02</time>
      </trkpt>
      <trkpt lat="42.40143" lon="2.56251">
        <ele>577.8</ele>
        <time>2022-05-21 18:26:03</time>
      </trkpt>
      <trkpt lat="42.40155" lon="2.56247">
        <ele>576.8</ele>
        <time>2022-05-21 18:26:04</time>
      </trkpt>
      <trkpt lat="42.40167" lon="2.56242">
        <ele>575.8</ele>
        <time>2022-05-21 18:26:05</time>
      </trkpt>
      <trkpt lat="42.40178" lon="2.56237">
        <ele>574.8</ele>
        <time>2022-05-21 18:26:06</time>
      </trkpt>
      <trkpt lat="42.40189" lon="2.5623">
        <ele>573.8</ele>
        <time>2022-05-21 18:26:07</time>
      </trkpt>
      <trkpt lat="42.40199" lon="2.56223">
        <ele>572.8</ele>
        <time>2022-05-21 18:26:08</time>
      </trkpt>
      <trkpt lat="42.40208" lon="2.56216">
        <ele>572</ele>
        <time>2022-05-21 18:26:09</time>
      </trkpt>
      <trkpt lat="42.40217" lon="2.5621">
        <ele>571.2</ele>
        <time>2022-05-21 18:26:10</time>
      </trkpt>
      <trkpt lat="42.40226" lon="2.56204">
        <ele>570.2</ele>
        <time>2022-05-21 18:26:11</time>
      </trkpt>
      <trkpt lat="42.40234" lon="2.56201">
        <ele>569.4</ele>
        <time>2022-05-21 18:26:12</time>
      </trkpt>
      <trkpt lat="42.40245" lon="2.56199">
        <ele>568.6</ele>
        <time>2022-05-21 18:26:13</time>
      </trkpt>
      <trkpt lat="42.40255" lon="2.56199">
        <ele>567.8</ele>
        <time>2022-05-21 18:26:14</time>
      </trkpt>
      <trkpt lat="42.40266" lon="2.56199">
        <ele>567</ele>
        <time>2022-05-21 18:26:15</time>
      </trkpt>
      <trkpt lat="42.40279" lon="2.56202">
        <ele>566.2</ele>
        <time>2022-05-21 18:26:16</time>
      </trkpt>
      <trkpt lat="42.4029" lon="2.56204">
        <ele>565.4</ele>
        <time>2022-05-21 18:26:17</time>
      </trkpt>
      <trkpt lat="42.40302" lon="2.56206">
        <ele>564.6</ele>
        <time>2022-05-21 18:26:18</time>
      </trkpt>
      <trkpt lat="42.40313" lon="2.56209">
        <ele>563.8</ele>
        <time>2022-05-21 18:26:19</time>
      </trkpt>
      <trkpt lat="42.40323" lon="2.56212">
        <ele>563</ele>
        <time>2022-05-21 18:26:20</time>
      </trkpt>
      <trkpt lat="42.40332" lon="2.56217">
        <ele>562.4</ele>
        <time>2022-05-21 18:26:21</time>
      </trkpt>
      <trkpt lat="42.40341" lon="2.56225">
        <ele>561.6</ele>
        <time>2022-05-21 18:26:22</time>
      </trkpt>
      <trkpt lat="42.40346" lon="2.56236">
        <ele>560.8</ele>
        <time>2022-05-21 18:26:23</time>
      </trkpt>
      <trkpt lat="42.40349" lon="2.56248">
        <ele>560.2</ele>
        <time>2022-05-21 18:26:24</time>
      </trkpt>
      <trkpt lat="42.40352" lon="2.56262">
        <ele>559.4</ele>
        <time>2022-05-21 18:26:25</time>
      </trkpt>
      <trkpt lat="42.40355" lon="2.56277">
        <ele>558.6</ele>
        <time>2022-05-21 18:26:26</time>
      </trkpt>
      <trkpt lat="42.40358" lon="2.56291">
        <ele>558</ele>
        <time>2022-05-21 18:26:27</time>
      </trkpt>
      <trkpt lat="42.40361" lon="2.56305">
        <ele>557.2</ele>
        <time>2022-05-21 18:26:28</time>
      </trkpt>
      <trkpt lat="42.40366" lon="2.5632">
        <ele>556.6</ele>
        <time>2022-05-21 18:26:29</time>
      </trkpt>
      <trkpt lat="42.4037" lon="2.56334">
        <ele>555.8</ele>
        <time>2022-05-21 18:26:30</time>
      </trkpt>
      <trkpt lat="42.40373" lon="2.56348">
        <ele>555.2</ele>
        <time>2022-05-21 18:26:31</time>
      </trkpt>
      <trkpt lat="42.40376" lon="2.56363">
        <ele>554.4</ele>
        <time>2022-05-21 18:26:32</time>
      </trkpt>
      <trkpt lat="42.4038" lon="2.56377">
        <ele>553.6</ele>
        <time>2022-05-21 18:26:33</time>
      </trkpt>
      <trkpt lat="42.40383" lon="2.56391">
        <ele>552.8</ele>
        <time>2022-05-21 18:26:34</time>
      </trkpt>
      <trkpt lat="42.40387" lon="2.56404">
        <ele>552</ele>
        <time>2022-05-21 18:26:35</time>
      </trkpt>
      <trkpt lat="42.40391" lon="2.56417">
        <ele>551.4</ele>
        <time>2022-05-21 18:26:36</time>
      </trkpt>
      <trkpt lat="42.40396" lon="2.56428">
        <ele>550.6</ele>
        <time>2022-05-21 18:26:37</time>
      </trkpt>
      <trkpt lat="42.40402" lon="2.56437">
        <ele>550</ele>
        <time>2022-05-21 18:26:38</time>
      </trkpt>
      <trkpt lat="42.4041" lon="2.56444">
        <ele>549.4</ele>
        <time>2022-05-21 18:26:39</time>
      </trkpt>
      <trkpt lat="42.40418" lon="2.56448">
        <ele>548.8</ele>
        <time>2022-05-21 18:26:40</time>
      </trkpt>
      <trkpt lat="42.40427" lon="2.56449">
        <ele>548.2</ele>
        <time>2022-05-21 18:26:41</time>
      </trkpt>
      <trkpt lat="42.40436" lon="2.56446">
        <ele>547.4</ele>
        <time>2022-05-21 18:26:42</time>
      </trkpt>
      <trkpt lat="42.40445" lon="2.56442">
        <ele>546.6</ele>
        <time>2022-05-21 18:26:43</time>
      </trkpt>
      <trkpt lat="42.40455" lon="2.56438">
        <ele>546</ele>
        <time>2022-05-21 18:26:44</time>
      </trkpt>
      <trkpt lat="42.40464" lon="2.56435">
        <ele>545.2</ele>
        <time>2022-05-21 18:26:45</time>
      </trkpt>
      <trkpt lat="42.40471" lon="2.56435">
        <ele>544.4</ele>
        <time>2022-05-21 18:26:46</time>
      </trkpt>
      <trkpt lat="42.4048" lon="2.56436">
        <ele>543.4</ele>
        <time>2022-05-21 18:26:47</time>
      </trkpt>
      <trkpt lat="42.40491" lon="2.56439">
        <ele>542.6</ele>
        <time>2022-05-21 18:26:48</time>
      </trkpt>
      <trkpt lat="42.40499" lon="2.56445">
        <ele>541.8</ele>
        <time>2022-05-21 18:26:49</time>
      </trkpt>
      <trkpt lat="42.40506" lon="2.56455">
        <ele>541</ele>
        <time>2022-05-21 18:26:50</time>
      </trkpt>
      <trkpt lat="42.40512" lon="2.56466">
        <ele>540.2</ele>
        <time>2022-05-21 18:26:51</time>
      </trkpt>
      <trkpt lat="42.40517" lon="2.56477">
        <ele>539.6</ele>
        <time>2022-05-21 18:26:52</time>
      </trkpt>
      <trkpt lat="42.40523" lon="2.5649">
        <ele>538.8</ele>
        <time>2022-05-21 18:26:53</time>
      </trkpt>
      <trkpt lat="42.40529" lon="2.56501">
        <ele>538</ele>
        <time>2022-05-21 18:26:54</time>
      </trkpt>
      <trkpt lat="42.40536" lon="2.56511">
        <ele>537.2</ele>
        <time>2022-05-21 18:26:55</time>
      </trkpt>
      <trkpt lat="42.40543" lon="2.56522">
        <ele>536.4</ele>
        <time>2022-05-21 18:26:56</time>
      </trkpt>
      <trkpt lat="42.40549" lon="2.56534">
        <ele>535.8</ele>
        <time>2022-05-21 18:26:57</time>
      </trkpt>
      <trkpt lat="42.40555" lon="2.56546">
        <ele>535.2</ele>
        <time>2022-05-21 18:26:58</time>
      </trkpt>
      <trkpt lat="42.4056" lon="2.56556">
        <ele>534.8</ele>
        <time>2022-05-21 18:26:59</time>
      </trkpt>
      <trkpt lat="42.40565" lon="2.56561">
        <ele>534.4</ele>
        <time>2022-05-21 18:27:00</time>
      </trkpt>
      <trkpt lat="42.40571" lon="2.56562">
        <ele>534</ele>
        <time>2022-05-21 18:27:01</time>
      </trkpt>
      <trkpt lat="42.40575" lon="2.56557">
        <ele>533.6</ele>
        <time>2022-05-21 18:27:02</time>
      </trkpt>
      <trkpt lat="42.40577" lon="2.5655">
        <ele>533.2</ele>
        <time>2022-05-21 18:27:03</time>
      </trkpt>
      <trkpt lat="42.40577" lon="2.56542">
        <ele>532.8</ele>
        <time>2022-05-21 18:27:04</time>
      </trkpt>
      <trkpt lat="42.40576" lon="2.56534">
        <ele>532.4</ele>
        <time>2022-05-21 18:27:05</time>
      </trkpt>
      <trkpt lat="42.40574" lon="2.56527">
        <ele>532</ele>
        <time>2022-05-21 18:27:06</time>
      </trkpt>
      <trkpt lat="42.40573" lon="2.56515">
        <ele>531.6</ele>
        <time>2022-05-21 18:27:07</time>
      </trkpt>
      <trkpt lat="42.40571" lon="2.56505">
        <ele>531</ele>
        <time>2022-05-21 18:27:08</time>
      </trkpt>
      <trkpt lat="42.40571" lon="2.56497">
        <ele>530.6</ele>
        <time>2022-05-21 18:27:09</time>
      </trkpt>
      <trkpt lat="42.4057" lon="2.56484">
        <ele>530</ele>
        <time>2022-05-21 18:27:10</time>
      </trkpt>
      <trkpt lat="42.4057" lon="2.56473">
        <ele>529.6</ele>
        <time>2022-05-21 18:27:11</time>
      </trkpt>
      <trkpt lat="42.4057" lon="2.56462">
        <ele>529.2</ele>
        <time>2022-05-21 18:27:12</time>
      </trkpt>
      <trkpt lat="42.4057" lon="2.56451">
        <ele>528.6</ele>
        <time>2022-05-21 18:27:13</time>
      </trkpt>
      <trkpt lat="42.4057" lon="2.5644">
        <ele>528.2</ele>
        <time>2022-05-21 18:27:14</time>
      </trkpt>
      <trkpt lat="42.4057" lon="2.56429">
        <ele>527.6</ele>
        <time>2022-05-21 18:27:15</time>
      </trkpt>
      <trkpt lat="42.4057" lon="2.56418">
        <ele>527.2</ele>
        <time>2022-05-21 18:27:16</time>
      </trkpt>
      <trkpt lat="42.4057" lon="2.56407">
        <ele>526.6</ele>
        <time>2022-05-21 18:27:17</time>
      </trkpt>
      <trkpt lat="42.40571" lon="2.56394">
        <ele>526.2</ele>
        <time>2022-05-21 18:27:18</time>
      </trkpt>
      <trkpt lat="42.40573" lon="2.56382">
        <ele>525.6</ele>
        <time>2022-05-21 18:27:19</time>
      </trkpt>
      <trkpt lat="42.40577" lon="2.56371">
        <ele>525.2</ele>
        <time>2022-05-21 18:27:20</time>
      </trkpt>
      <trkpt lat="42.40583" lon="2.56362">
        <ele>524.6</ele>
        <time>2022-05-21 18:27:21</time>
      </trkpt>
      <trkpt lat="42.4059" lon="2.56353">
        <ele>524.2</ele>
        <time>2022-05-21 18:27:22</time>
      </trkpt>
      <trkpt lat="42.40598" lon="2.56345">
        <ele>523.4</ele>
        <time>2022-05-21 18:27:23</time>
      </trkpt>
      <trkpt lat="42.40605" lon="2.56338">
        <ele>522.8</ele>
        <time>2022-05-21 18:27:24</time>
      </trkpt>
      <trkpt lat="42.40614" lon="2.56334">
        <ele>522.2</ele>
        <time>2022-05-21 18:27:25</time>
      </trkpt>
      <trkpt lat="42.40624" lon="2.56332">
        <ele>521.6</ele>
        <time>2022-05-21 18:27:26</time>
      </trkpt>
      <trkpt lat="42.40634" lon="2.56332">
        <ele>521</ele>
        <time>2022-05-21 18:27:27</time>
      </trkpt>
      <trkpt lat="42.40644" lon="2.56333">
        <ele>520.4</ele>
        <time>2022-05-21 18:27:28</time>
      </trkpt>
      <trkpt lat="42.40653" lon="2.56336">
        <ele>519.6</ele>
        <time>2022-05-21 18:27:29</time>
      </trkpt>
      <trkpt lat="42.40664" lon="2.56342">
        <ele>519</ele>
        <time>2022-05-21 18:27:30</time>
      </trkpt>
      <trkpt lat="42.40676" lon="2.56352">
        <ele>518.2</ele>
        <time>2022-05-21 18:27:31</time>
      </trkpt>
      <trkpt lat="42.40684" lon="2.56362">
        <ele>517.6</ele>
        <time>2022-05-21 18:27:32</time>
      </trkpt>
      <trkpt lat="42.40692" lon="2.56371">
        <ele>516.8</ele>
        <time>2022-05-21 18:27:33</time>
      </trkpt>
      <trkpt lat="42.407" lon="2.5638">
        <ele>516.2</ele>
        <time>2022-05-21 18:27:34</time>
      </trkpt>
      <trkpt lat="42.40707" lon="2.56391">
        <ele>515.6</ele>
        <time>2022-05-21 18:27:35</time>
      </trkpt>
      <trkpt lat="42.40712" lon="2.56403">
        <ele>515</ele>
        <time>2022-05-21 18:27:36</time>
      </trkpt>
      <trkpt lat="42.40714" lon="2.56417">
        <ele>514.2</ele>
        <time>2022-05-21 18:27:37</time>
      </trkpt>
      <trkpt lat="42.40714" lon="2.5643">
        <ele>513.6</ele>
        <time>2022-05-21 18:27:38</time>
      </trkpt>
      <trkpt lat="42.40713" lon="2.5644">
        <ele>512.8</ele>
        <time>2022-05-21 18:27:39</time>
      </trkpt>
      <trkpt lat="42.4071" lon="2.56458">
        <ele>512.2</ele>
        <time>2022-05-21 18:27:40</time>
      </trkpt>
      <trkpt lat="42.40709" lon="2.56472">
        <ele>511.4</ele>
        <time>2022-05-21 18:27:41</time>
      </trkpt>
      <trkpt lat="42.40709" lon="2.56486">
        <ele>510.8</ele>
        <time>2022-05-21 18:27:42</time>
      </trkpt>
      <trkpt lat="42.40712" lon="2.56499">
        <ele>510</ele>
        <time>2022-05-21 18:27:43</time>
      </trkpt>
      <trkpt lat="42.40719" lon="2.56511">
        <ele>509.2</ele>
        <time>2022-05-21 18:27:44</time>
      </trkpt>
      <trkpt lat="42.40727" lon="2.56521">
        <ele>508.4</ele>
        <time>2022-05-21 18:27:45</time>
      </trkpt>
      <trkpt lat="42.40736" lon="2.56531">
        <ele>507.6</ele>
        <time>2022-05-21 18:27:46</time>
      </trkpt>
      <trkpt lat="42.40745" lon="2.56538">
        <ele>506.8</ele>
        <time>2022-05-21 18:27:47</time>
      </trkpt>
      <trkpt lat="42.40755" lon="2.56545">
        <ele>506</ele>
        <time>2022-05-21 18:27:48</time>
      </trkpt>
      <trkpt lat="42.40763" lon="2.5655">
        <ele>505.4</ele>
        <time>2022-05-21 18:27:49</time>
      </trkpt>
      <trkpt lat="42.40771" lon="2.56552">
        <ele>505</ele>
        <time>2022-05-21 18:27:50</time>
      </trkpt>
      <trkpt lat="42.40777" lon="2.56551">
        <ele>504.4</ele>
        <time>2022-05-21 18:27:51</time>
      </trkpt>
      <trkpt lat="42.40782" lon="2.56547">
        <ele>503.8</ele>
        <time>2022-05-21 18:27:52</time>
      </trkpt>
      <trkpt lat="42.40786" lon="2.56539">
        <ele>503.2</ele>
        <time>2022-05-21 18:27:53</time>
      </trkpt>
      <trkpt lat="42.40787" lon="2.5653">
        <ele>502.6</ele>
        <time>2022-05-21 18:27:54</time>
      </trkpt>
      <trkpt lat="42.40787" lon="2.5652">
        <ele>502</ele>
        <time>2022-05-21 18:27:55</time>
      </trkpt>
      <trkpt lat="42.40786" lon="2.5651">
        <ele>501.2</ele>
        <time>2022-05-21 18:27:56</time>
      </trkpt>
      <trkpt lat="42.40784" lon="2.56498">
        <ele>500.6</ele>
        <time>2022-05-21 18:27:57</time>
      </trkpt>
      <trkpt lat="42.40783" lon="2.56487">
        <ele>500</ele>
        <time>2022-05-21 18:27:58</time>
      </trkpt>
      <trkpt lat="42.40782" lon="2.56476">
        <ele>499.2</ele>
        <time>2022-05-21 18:27:59</time>
      </trkpt>
      <trkpt lat="42.40781" lon="2.56465">
        <ele>498.6</ele>
        <time>2022-05-21 18:28:00</time>
      </trkpt>
      <trkpt lat="42.40781" lon="2.56452">
        <ele>497.8</ele>
        <time>2022-05-21 18:28:01</time>
      </trkpt>
      <trkpt lat="42.40781" lon="2.56439">
        <ele>497</ele>
        <time>2022-05-21 18:28:02</time>
      </trkpt>
      <trkpt lat="42.40782" lon="2.56426">
        <ele>496.4</ele>
        <time>2022-05-21 18:28:03</time>
      </trkpt>
      <trkpt lat="42.40783" lon="2.56414">
        <ele>495.6</ele>
        <time>2022-05-21 18:28:04</time>
      </trkpt>
      <trkpt lat="42.40787" lon="2.56401">
        <ele>495</ele>
        <time>2022-05-21 18:28:05</time>
      </trkpt>
      <trkpt lat="42.40794" lon="2.56391">
        <ele>494.6</ele>
        <time>2022-05-21 18:28:06</time>
      </trkpt>
      <trkpt lat="42.40801" lon="2.56384">
        <ele>494.2</ele>
        <time>2022-05-21 18:28:07</time>
      </trkpt>
      <trkpt lat="42.40809" lon="2.5638">
        <ele>494</ele>
        <time>2022-05-21 18:28:08</time>
      </trkpt>
      <trkpt lat="42.40817" lon="2.56379">
        <ele>493.8</ele>
        <time>2022-05-21 18:28:09</time>
      </trkpt>
      <trkpt lat="42.40826" lon="2.5638">
        <ele>493.6</ele>
        <time>2022-05-21 18:28:10</time>
      </trkpt>
      <trkpt lat="42.40835" lon="2.56383">
        <ele>493.4</ele>
        <time>2022-05-21 18:28:11</time>
      </trkpt>
      <trkpt lat="42.40844" lon="2.56387">
        <ele>493.2</ele>
        <time>2022-05-21 18:28:12</time>
      </trkpt>
      <trkpt lat="42.40852" lon="2.56391">
        <ele>493.2</ele>
        <time>2022-05-21 18:28:13</time>
      </trkpt>
      <trkpt lat="42.40859" lon="2.56396">
        <ele>493.2</ele>
        <time>2022-05-21 18:28:14</time>
      </trkpt>
      <trkpt lat="42.40866" lon="2.56401">
        <ele>493.2</ele>
        <time>2022-05-21 18:28:15</time>
      </trkpt>
      <trkpt lat="42.40872" lon="2.56406">
        <ele>493.2</ele>
        <time>2022-05-21 18:28:16</time>
      </trkpt>
      <trkpt lat="42.40879" lon="2.56411">
        <ele>493.4</ele>
        <time>2022-05-21 18:28:17</time>
      </trkpt>
      <trkpt lat="42.40885" lon="2.56415">
        <ele>493.6</ele>
        <time>2022-05-21 18:28:18</time>
      </trkpt>
      <trkpt lat="42.4089" lon="2.56419">
        <ele>493.8</ele>
        <time>2022-05-21 18:28:19</time>
      </trkpt>
      <trkpt lat="42.40896" lon="2.56422">
        <ele>494</ele>
        <time>2022-05-21 18:28:20</time>
      </trkpt>
      <trkpt lat="42.409" lon="2.56423">
        <ele>494.2</ele>
        <time>2022-05-21 18:28:21</time>
      </trkpt>
      <trkpt lat="42.40905" lon="2.56424">
        <ele>494.4</ele>
        <time>2022-05-21 18:28:22</time>
      </trkpt>
      <trkpt lat="42.40909" lon="2.56425">
        <ele>494.6</ele>
        <time>2022-05-21 18:28:23</time>
      </trkpt>
      <trkpt lat="42.40913" lon="2.56426">
        <ele>494.8</ele>
        <time>2022-05-21 18:28:24</time>
      </trkpt>
      <trkpt lat="42.40916" lon="2.56426">
        <ele>495.2</ele>
        <time>2022-05-21 18:28:25</time>
      </trkpt>
      <trkpt lat="42.40919" lon="2.56427">
        <ele>495.4</ele>
        <time>2022-05-21 18:28:26</time>
      </trkpt>
      <trkpt lat="42.40921" lon="2.56427">
        <ele>495.6</ele>
        <time>2022-05-21 18:28:27</time>
      </trkpt>
      <trkpt lat="42.40925" lon="2.56426">
        <ele>495.8</ele>
        <time>2022-05-21 18:28:28</time>
      </trkpt>
      <trkpt lat="42.40927" lon="2.56426">
        <ele>496</ele>
        <time>2022-05-21 18:28:29</time>
      </trkpt>
      <trkpt lat="42.40929" lon="2.56425">
        <ele>496.2</ele>
        <time>2022-05-21 18:28:30</time>
      </trkpt>
      <trkpt lat="42.40932" lon="2.56425">
        <ele>496.4</ele>
        <time>2022-05-21 18:28:31</time>
      </trkpt>
      <trkpt lat="42.40935" lon="2.56425">
        <ele>496.6</ele>
        <time>2022-05-21 18:28:32</time>
      </trkpt>
      <trkpt lat="42.40937" lon="2.56425">
        <ele>496.8</ele>
        <time>2022-05-21 18:28:33</time>
      </trkpt>
      <trkpt lat="42.40939" lon="2.56425">
        <ele>497</ele>
        <time>2022-05-21 18:28:34</time>
      </trkpt>
      <trkpt lat="42.40942" lon="2.56425">
        <ele>497.2</ele>
        <time>2022-05-21 18:28:35</time>
      </trkpt>
      <trkpt lat="42.40944" lon="2.56425">
        <ele>497.4</ele>
        <time>2022-05-21 18:28:36</time>
      </trkpt>
      <trkpt lat="42.40946" lon="2.56425">
        <ele>497.4</ele>
        <time>2022-05-21 18:28:37</time>
      </trkpt>
      <trkpt lat="42.40949" lon="2.56425">
        <ele>497.6</ele>
        <time>2022-05-21 18:28:38</time>
      </trkpt>
      <trkpt lat="42.40951" lon="2.56425">
        <ele>497.8</ele>
        <time>2022-05-21 18:28:39</time>
      </trkpt>
      <trkpt lat="42.40953" lon="2.56425">
        <ele>498</ele>
        <time>2022-05-21 18:28:40</time>
      </trkpt>
      <trkpt lat="42.40955" lon="2.56425">
        <ele>498.2</ele>
        <time>2022-05-21 18:28:41</time>
      </trkpt>
      <trkpt lat="42.40958" lon="2.56425">
        <ele>498.2</ele>
        <time>2022-05-21 18:28:42</time>
      </trkpt>
      <trkpt lat="42.4096" lon="2.56425">
        <ele>498.4</ele>
        <time>2022-05-21 18:28:43</time>
      </trkpt>
      <trkpt lat="42.40963" lon="2.56425">
        <ele>498.6</ele>
        <time>2022-05-21 18:28:44</time>
      </trkpt>
      <trkpt lat="42.40965" lon="2.56426">
        <ele>498.6</ele>
        <time>2022-05-21 18:28:45</time>
      </trkpt>
      <trkpt lat="42.40968" lon="2.56426">
        <ele>498.8</ele>
        <time>2022-05-21 18:28:46</time>
      </trkpt>
      <trkpt lat="42.4097" lon="2.56427">
        <ele>499</ele>
        <time>2022-05-21 18:28:47</time>
      </trkpt>
      <trkpt lat="42.40972" lon="2.56427">
        <ele>499.2</ele>
        <time>2022-05-21 18:28:48</time>
      </trkpt>
      <trkpt lat="42.40975" lon="2.56428">
        <ele>499.4</ele>
        <time>2022-05-21 18:28:49</time>
      </trkpt>
      <trkpt lat="42.40976" lon="2.56428">
        <ele>499.6</ele>
        <time>2022-05-21 18:28:50</time>
      </trkpt>
      <trkpt lat="42.40978" lon="2.56429">
        <ele>499.6</ele>
        <time>2022-05-21 18:28:51</time>
      </trkpt>
      <trkpt lat="42.4098" lon="2.56429">
        <ele>499.8</ele>
        <time>2022-05-21 18:28:52</time>
      </trkpt>
      <trkpt lat="42.40983" lon="2.56429">
        <ele>500</ele>
        <time>2022-05-21 18:28:53</time>
      </trkpt>
      <trkpt lat="42.40985" lon="2.5643">
        <ele>500.2</ele>
        <time>2022-05-21 18:28:54</time>
      </trkpt>
      <trkpt lat="42.40987" lon="2.56431">
        <ele>500.4</ele>
        <time>2022-05-21 18:28:55</time>
      </trkpt>
      <trkpt lat="42.40989" lon="2.56432">
        <ele>500.6</ele>
        <time>2022-05-21 18:28:56</time>
      </trkpt>
      <trkpt lat="42.40991" lon="2.56434">
        <ele>500.8</ele>
        <time>2022-05-21 18:28:57</time>
      </trkpt>
      <trkpt lat="42.40993" lon="2.56435">
        <ele>501</ele>
        <time>2022-05-21 18:28:58</time>
      </trkpt>
      <trkpt lat="42.40995" lon="2.56436">
        <ele>501</ele>
        <time>2022-05-21 18:28:59</time>
      </trkpt>
      <trkpt lat="42.40997" lon="2.56437">
        <ele>501.2</ele>
        <time>2022-05-21 18:29:00</time>
      </trkpt>
      <trkpt lat="42.40999" lon="2.56438">
        <ele>501.4</ele>
        <time>2022-05-21 18:29:01</time>
      </trkpt>
      <trkpt lat="42.41001" lon="2.56439">
        <ele>501.6</ele>
        <time>2022-05-21 18:29:02</time>
      </trkpt>
      <trkpt lat="42.41003" lon="2.5644">
        <ele>501.8</ele>
        <time>2022-05-21 18:29:03</time>
      </trkpt>
      <trkpt lat="42.41005" lon="2.56441">
        <ele>501.8</ele>
        <time>2022-05-21 18:29:04</time>
      </trkpt>
      <trkpt lat="42.41007" lon="2.56442">
        <ele>502</ele>
        <time>2022-05-21 18:29:05</time>
      </trkpt>
      <trkpt lat="42.41009" lon="2.56443">
        <ele>502.2</ele>
        <time>2022-05-21 18:29:06</time>
      </trkpt>
      <trkpt lat="42.41011" lon="2.56444">
        <ele>502.4</ele>
        <time>2022-05-21 18:29:07</time>
      </trkpt>
      <trkpt lat="42.41013" lon="2.56445">
        <ele>502.6</ele>
        <time>2022-05-21 18:29:08</time>
      </trkpt>
      <trkpt lat="42.41015" lon="2.56446">
        <ele>502.8</ele>
        <time>2022-05-21 18:29:09</time>
      </trkpt>
      <trkpt lat="42.41017" lon="2.56447">
        <ele>502.8</ele>
        <time>2022-05-21 18:29:10</time>
      </trkpt>
      <trkpt lat="42.41019" lon="2.56448">
        <ele>503</ele>
        <time>2022-05-21 18:29:11</time>
      </trkpt>
      <trkpt lat="42.41021" lon="2.56448">
        <ele>503.2</ele>
        <time>2022-05-21 18:29:12</time>
      </trkpt>
      <trkpt lat="42.41023" lon="2.56449">
        <ele>503.4</ele>
        <time>2022-05-21 18:29:13</time>
      </trkpt>
      <trkpt lat="42.41025" lon="2.56449">
        <ele>503.4</ele>
        <time>2022-05-21 18:29:14</time>
      </trkpt>
      <trkpt lat="42.41026" lon="2.56449">
        <ele>503.6</ele>
        <time>2022-05-21 18:29:15</time>
      </trkpt>
      <trkpt lat="42.41029" lon="2.56449">
        <ele>503.8</ele>
        <time>2022-05-21 18:29:16</time>
      </trkpt>
      <trkpt lat="42.41031" lon="2.56449">
        <ele>503.8</ele>
        <time>2022-05-21 18:29:17</time>
      </trkpt>
      <trkpt lat="42.41033" lon="2.56449">
        <ele>504</ele>
        <time>2022-05-21 18:29:18</time>
      </trkpt>
      <trkpt lat="42.41035" lon="2.56449">
        <ele>504.2</ele>
        <time>2022-05-21 18:29:19</time>
      </trkpt>
      <trkpt lat="42.41036" lon="2.56449">
        <ele>504.2</ele>
        <time>2022-05-21 18:29:20</time>
      </trkpt>
      <trkpt lat="42.41038" lon="2.56449">
        <ele>504.4</ele>
        <time>2022-05-21 18:29:21</time>
      </trkpt>
      <trkpt lat="42.4104" lon="2.56449">
        <ele>504.6</ele>
        <time>2022-05-21 18:29:22</time>
      </trkpt>
      <trkpt lat="42.41042" lon="2.56449">
        <ele>504.8</ele>
        <time>2022-05-21 18:29:23</time>
      </trkpt>
      <trkpt lat="42.41044" lon="2.56449">
        <ele>504.8</ele>
        <time>2022-05-21 18:29:24</time>
      </trkpt>
      <trkpt lat="42.41046" lon="2.56449">
        <ele>505</ele>
        <time>2022-05-21 18:29:25</time>
      </trkpt>
      <trkpt lat="42.41048" lon="2.5645">
        <ele>505.2</ele>
        <time>2022-05-21 18:29:26</time>
      </trkpt>
      <trkpt lat="42.41051" lon="2.5645">
        <ele>505.4</ele>
        <time>2022-05-21 18:29:27</time>
      </trkpt>
      <trkpt lat="42.41053" lon="2.5645">
        <ele>505.4</ele>
        <time>2022-05-21 18:29:28</time>
      </trkpt>
      <trkpt lat="42.41056" lon="2.5645">
        <ele>505.6</ele>
        <time>2022-05-21 18:29:29</time>
      </trkpt>
      <trkpt lat="42.41058" lon="2.5645">
        <ele>505.8</ele>
        <time>2022-05-21 18:29:30</time>
      </trkpt>
      <trkpt lat="42.4106" lon="2.5645">
        <ele>506</ele>
        <time>2022-05-21 18:29:31</time>
      </trkpt>
      <trkpt lat="42.41062" lon="2.56449">
        <ele>506.2</ele>
        <time>2022-05-21 18:29:32</time>
      </trkpt>
      <trkpt lat="42.41064" lon="2.56449">
        <ele>506.2</ele>
        <time>2022-05-21 18:29:33</time>
      </trkpt>
      <trkpt lat="42.41066" lon="2.56448">
        <ele>506.4</ele>
        <time>2022-05-21 18:29:34</time>
      </trkpt>
      <trkpt lat="42.41068" lon="2.56448">
        <ele>506.6</ele>
        <time>2022-05-21 18:29:35</time>
      </trkpt>
      <trkpt lat="42.4107" lon="2.56448">
        <ele>506.8</ele>
        <time>2022-05-21 18:29:36</time>
      </trkpt>
      <trkpt lat="42.41072" lon="2.56447">
        <ele>506.8</ele>
        <time>2022-05-21 18:29:37</time>
      </trkpt>
      <trkpt lat="42.41075" lon="2.56447">
        <ele>507</ele>
        <time>2022-05-21 18:29:38</time>
      </trkpt>
      <trkpt lat="42.41077" lon="2.56447">
        <ele>507.2</ele>
        <time>2022-05-21 18:29:39</time>
      </trkpt>
      <trkpt lat="42.41079" lon="2.56447">
        <ele>507.2</ele>
        <time>2022-05-21 18:29:40</time>
      </trkpt>
      <trkpt lat="42.41081" lon="2.56446">
        <ele>507.4</ele>
        <time>2022-05-21 18:29:41</time>
      </trkpt>
      <trkpt lat="42.41083" lon="2.56446">
        <ele>507.6</ele>
        <time>2022-05-21 18:29:42</time>
      </trkpt>
      <trkpt lat="42.41085" lon="2.56446">
        <ele>507.8</ele>
        <time>2022-05-21 18:29:43</time>
      </trkpt>
      <trkpt lat="42.41087" lon="2.56446">
        <ele>508</ele>
        <time>2022-05-21 18:29:44</time>
      </trkpt>
      <trkpt lat="42.41088" lon="2.56446">
        <ele>508</ele>
        <time>2022-05-21 18:29:45</time>
      </trkpt>
      <trkpt lat="42.41091" lon="2.56447">
        <ele>508.2</ele>
        <time>2022-05-21 18:29:46</time>
      </trkpt>
      <trkpt lat="42.41093" lon="2.56447">
        <ele>508.4</ele>
        <time>2022-05-21 18:29:47</time>
      </trkpt>
      <trkpt lat="42.41096" lon="2.56447">
        <ele>508.4</ele>
        <time>2022-05-21 18:29:48</time>
      </trkpt>
      <trkpt lat="42.41098" lon="2.56448">
        <ele>508.6</ele>
        <time>2022-05-21 18:29:49</time>
      </trkpt>
      <trkpt lat="42.411" lon="2.56448">
        <ele>508.8</ele>
        <time>2022-05-21 18:29:50</time>
      </trkpt>
      <trkpt lat="42.41103" lon="2.56449">
        <ele>509</ele>
        <time>2022-05-21 18:29:51</time>
      </trkpt>
      <trkpt lat="42.41105" lon="2.56449">
        <ele>509</ele>
        <time>2022-05-21 18:29:52</time>
      </trkpt>
      <trkpt lat="42.41107" lon="2.56448">
        <ele>509.2</ele>
        <time>2022-05-21 18:29:53</time>
      </trkpt>
      <trkpt lat="42.41108" lon="2.56448">
        <ele>509.4</ele>
        <time>2022-05-21 18:29:54</time>
      </trkpt>
      <trkpt lat="42.41111" lon="2.56448">
        <ele>509.4</ele>
        <time>2022-05-21 18:29:55</time>
      </trkpt>
      <trkpt lat="42.41113" lon="2.56448">
        <ele>509.6</ele>
        <time>2022-05-21 18:29:56</time>
      </trkpt>
      <trkpt lat="42.41115" lon="2.56449">
        <ele>509.8</ele>
        <time>2022-05-21 18:29:57</time>
      </trkpt>
      <trkpt lat="42.41118" lon="2.56449">
        <ele>509.8</ele>
        <time>2022-05-21 18:29:58</time>
      </trkpt>
      <trkpt lat="42.4112" lon="2.56449">
        <ele>510</ele>
        <time>2022-05-21 18:29:59</time>
      </trkpt>
      <trkpt lat="42.41122" lon="2.56449">
        <ele>510.2</ele>
        <time>2022-05-21 18:30:00</time>
      </trkpt>
      <trkpt lat="42.41125" lon="2.56449">
        <ele>510.2</ele>
        <time>2022-05-21 18:30:01</time>
      </trkpt>
      <trkpt lat="42.41127" lon="2.5645">
        <ele>510.4</ele>
        <time>2022-05-21 18:30:02</time>
      </trkpt>
      <trkpt lat="42.41129" lon="2.56451">
        <ele>510.6</ele>
        <time>2022-05-21 18:30:03</time>
      </trkpt>
      <trkpt lat="42.41131" lon="2.56452">
        <ele>510.6</ele>
        <time>2022-05-21 18:30:04</time>
      </trkpt>
      <trkpt lat="42.41133" lon="2.56453">
        <ele>510.8</ele>
        <time>2022-05-21 18:30:05</time>
      </trkpt>
      <trkpt lat="42.41136" lon="2.56455">
        <ele>511</ele>
        <time>2022-05-21 18:30:06</time>
      </trkpt>
      <trkpt lat="42.41138" lon="2.56456">
        <ele>511</ele>
        <time>2022-05-21 18:30:07</time>
      </trkpt>
      <trkpt lat="42.4114" lon="2.56457">
        <ele>511.2</ele>
        <time>2022-05-21 18:30:08</time>
      </trkpt>
      <trkpt lat="42.41141" lon="2.56459">
        <ele>511.4</ele>
        <time>2022-05-21 18:30:09</time>
      </trkpt>
      <trkpt lat="42.41142" lon="2.56461">
        <ele>511.6</ele>
        <time>2022-05-21 18:30:10</time>
      </trkpt>
      <trkpt lat="42.41145" lon="2.56463">
        <ele>511.6</ele>
        <time>2022-05-21 18:30:11</time>
      </trkpt>
      <trkpt lat="42.41147" lon="2.56465">
        <ele>511.8</ele>
        <time>2022-05-21 18:30:12</time>
      </trkpt>
      <trkpt lat="42.41148" lon="2.56467">
        <ele>512</ele>
        <time>2022-05-21 18:30:13</time>
      </trkpt>
      <trkpt lat="42.4115" lon="2.56469">
        <ele>512.2</ele>
        <time>2022-05-21 18:30:14</time>
      </trkpt>
      <trkpt lat="42.41152" lon="2.5647">
        <ele>512.4</ele>
        <time>2022-05-21 18:30:15</time>
      </trkpt>
      <trkpt lat="42.41153" lon="2.56471">
        <ele>512.4</ele>
        <time>2022-05-21 18:30:16</time>
      </trkpt>
      <trkpt lat="42.41155" lon="2.56473">
        <ele>512.6</ele>
        <time>2022-05-21 18:30:17</time>
      </trkpt>
      <trkpt lat="42.41157" lon="2.56475">
        <ele>512.8</ele>
        <time>2022-05-21 18:30:18</time>
      </trkpt>
      <trkpt lat="42.41158" lon="2.56478">
        <ele>513</ele>
        <time>2022-05-21 18:30:19</time>
      </trkpt>
      <trkpt lat="42.41159" lon="2.5648">
        <ele>513</ele>
        <time>2022-05-21 18:30:20</time>
      </trkpt>
      <trkpt lat="42.4116" lon="2.56482">
        <ele>513.2</ele>
        <time>2022-05-21 18:30:21</time>
      </trkpt>
      <trkpt lat="42.41162" lon="2.56485">
        <ele>513.4</ele>
        <time>2022-05-21 18:30:22</time>
      </trkpt>
      <trkpt lat="42.41163" lon="2.56488">
        <ele>513.4</ele>
        <time>2022-05-21 18:30:23</time>
      </trkpt>
      <trkpt lat="42.41165" lon="2.5649">
        <ele>513.6</ele>
        <time>2022-05-21 18:30:24</time>
      </trkpt>
      <trkpt lat="42.41167" lon="2.56492">
        <ele>513.8</ele>
        <time>2022-05-21 18:30:25</time>
      </trkpt>
      <trkpt lat="42.41168" lon="2.56494">
        <ele>513.8</ele>
        <time>2022-05-21 18:30:26</time>
      </trkpt>
      <trkpt lat="42.4117" lon="2.56497">
        <ele>514</ele>
        <time>2022-05-21 18:30:27</time>
      </trkpt>
      <trkpt lat="42.41171" lon="2.56499">
        <ele>514.2</ele>
        <time>2022-05-21 18:30:28</time>
      </trkpt>
      <trkpt lat="42.41172" lon="2.56501">
        <ele>514.4</ele>
        <time>2022-05-21 18:30:29</time>
      </trkpt>
      <trkpt lat="42.41174" lon="2.56503">
        <ele>514.4</ele>
        <time>2022-05-21 18:30:30</time>
      </trkpt>
      <trkpt lat="42.41175" lon="2.56505">
        <ele>514.6</ele>
        <time>2022-05-21 18:30:31</time>
      </trkpt>
      <trkpt lat="42.41176" lon="2.56507">
        <ele>514.8</ele>
        <time>2022-05-21 18:30:32</time>
      </trkpt>
      <trkpt lat="42.41177" lon="2.56509">
        <ele>514.8</ele>
        <time>2022-05-21 18:30:33</time>
      </trkpt>
      <trkpt lat="42.41178" lon="2.56512">
        <ele>515</ele>
        <time>2022-05-21 18:30:34</time>
      </trkpt>
      <trkpt lat="42.41179" lon="2.56514">
        <ele>515.2</ele>
        <time>2022-05-21 18:30:35</time>
      </trkpt>
      <trkpt lat="42.4118" lon="2.56515">
        <ele>515.2</ele>
        <time>2022-05-21 18:30:36</time>
      </trkpt>
      <trkpt lat="42.4118" lon="2.56517">
        <ele>515.4</ele>
        <time>2022-05-21 18:30:37</time>
      </trkpt>
      <trkpt lat="42.41181" lon="2.5652">
        <ele>515.6</ele>
        <time>2022-05-21 18:30:38</time>
      </trkpt>
      <trkpt lat="42.41182" lon="2.56522">
        <ele>515.6</ele>
        <time>2022-05-21 18:30:39</time>
      </trkpt>
      <trkpt lat="42.41182" lon="2.56525">
        <ele>515.8</ele>
        <time>2022-05-21 18:30:40</time>
      </trkpt>
      <trkpt lat="42.41183" lon="2.56527">
        <ele>516</ele>
        <time>2022-05-21 18:30:41</time>
      </trkpt>
      <trkpt lat="42.41184" lon="2.5653">
        <ele>516.2</ele>
        <time>2022-05-21 18:30:42</time>
      </trkpt>
      <trkpt lat="42.41185" lon="2.56532">
        <ele>516.4</ele>
        <time>2022-05-21 18:30:43</time>
      </trkpt>
      <trkpt lat="42.41185" lon="2.56535">
        <ele>516.6</ele>
        <time>2022-05-21 18:30:44</time>
      </trkpt>
      <trkpt lat="42.41186" lon="2.56537">
        <ele>516.8</ele>
        <time>2022-05-21 18:30:45</time>
      </trkpt>
      <trkpt lat="42.41187" lon="2.5654">
        <ele>516.8</ele>
        <time>2022-05-21 18:30:46</time>
      </trkpt>
      <trkpt lat="42.41188" lon="2.56543">
        <ele>517</ele>
        <time>2022-05-21 18:30:47</time>
      </trkpt>
      <trkpt lat="42.41189" lon="2.56546">
        <ele>517.2</ele>
        <time>2022-05-21 18:30:48</time>
      </trkpt>
      <trkpt lat="42.4119" lon="2.56549">
        <ele>517.4</ele>
        <time>2022-05-21 18:30:49</time>
      </trkpt>
      <trkpt lat="42.4119" lon="2.56553">
        <ele>517.6</ele>
        <time>2022-05-21 18:30:50</time>
      </trkpt>
      <trkpt lat="42.41192" lon="2.56556">
        <ele>517.6</ele>
        <time>2022-05-21 18:30:51</time>
      </trkpt>
      <trkpt lat="42.41193" lon="2.5656">
        <ele>517.8</ele>
        <time>2022-05-21 18:30:52</time>
      </trkpt>
      <trkpt lat="42.41195" lon="2.56563">
        <ele>518</ele>
        <time>2022-05-21 18:30:53</time>
      </trkpt>
      <trkpt lat="42.41196" lon="2.56566">
        <ele>518</ele>
        <time>2022-05-21 18:30:54</time>
      </trkpt>
      <trkpt lat="42.41198" lon="2.56569">
        <ele>518.2</ele>
        <time>2022-05-21 18:30:55</time>
      </trkpt>
      <trkpt lat="42.412" lon="2.56572">
        <ele>518.2</ele>
        <time>2022-05-21 18:30:56</time>
      </trkpt>
      <trkpt lat="42.41202" lon="2.56575">
        <ele>518.4</ele>
        <time>2022-05-21 18:30:57</time>
      </trkpt>
      <trkpt lat="42.41203" lon="2.56578">
        <ele>518.4</ele>
        <time>2022-05-21 18:30:58</time>
      </trkpt>
      <trkpt lat="42.41204" lon="2.5658">
        <ele>518.6</ele>
        <time>2022-05-21 18:30:59</time>
      </trkpt>
      <trkpt lat="42.41206" lon="2.56583">
        <ele>518.8</ele>
        <time>2022-05-21 18:31:00</time>
      </trkpt>
      <trkpt lat="42.41207" lon="2.56586">
        <ele>518.8</ele>
        <time>2022-05-21 18:31:01</time>
      </trkpt>
      <trkpt lat="42.41209" lon="2.56588">
        <ele>519</ele>
        <time>2022-05-21 18:31:02</time>
      </trkpt>
      <trkpt lat="42.4121" lon="2.5659">
        <ele>519</ele>
        <time>2022-05-21 18:31:03</time>
      </trkpt>
      <trkpt lat="42.41212" lon="2.56592">
        <ele>519.2</ele>
        <time>2022-05-21 18:31:04</time>
      </trkpt>
      <trkpt lat="42.41214" lon="2.56594">
        <ele>519.2</ele>
        <time>2022-05-21 18:31:05</time>
      </trkpt>
      <trkpt lat="42.41215" lon="2.56597">
        <ele>519.4</ele>
        <time>2022-05-21 18:31:06</time>
      </trkpt>
      <trkpt lat="42.41216" lon="2.56599">
        <ele>519.6</ele>
        <time>2022-05-21 18:31:07</time>
      </trkpt>
      <trkpt lat="42.41218" lon="2.56602">
        <ele>519.6</ele>
        <time>2022-05-21 18:31:08</time>
      </trkpt>
      <trkpt lat="42.4122" lon="2.56604">
        <ele>519.8</ele>
        <time>2022-05-21 18:31:09</time>
      </trkpt>
      <trkpt lat="42.41222" lon="2.56606">
        <ele>519.8</ele>
        <time>2022-05-21 18:31:10</time>
      </trkpt>
      <trkpt lat="42.41224" lon="2.56608">
        <ele>519.8</ele>
        <time>2022-05-21 18:31:11</time>
      </trkpt>
      <trkpt lat="42.41227" lon="2.56609">
        <ele>520</ele>
        <time>2022-05-21 18:31:12</time>
      </trkpt>
      <trkpt lat="42.41229" lon="2.56611">
        <ele>520</ele>
        <time>2022-05-21 18:31:13</time>
      </trkpt>
      <trkpt lat="42.41231" lon="2.56612">
        <ele>520.2</ele>
        <time>2022-05-21 18:31:14</time>
      </trkpt>
      <trkpt lat="42.41234" lon="2.56613">
        <ele>520.2</ele>
        <time>2022-05-21 18:31:15</time>
      </trkpt>
      <trkpt lat="42.41237" lon="2.56613">
        <ele>520.2</ele>
        <time>2022-05-21 18:31:16</time>
      </trkpt>
      <trkpt lat="42.4124" lon="2.56613">
        <ele>520.2</ele>
        <time>2022-05-21 18:31:17</time>
      </trkpt>
      <trkpt lat="42.41243" lon="2.56613">
        <ele>520.2</ele>
        <time>2022-05-21 18:31:18</time>
      </trkpt>
      <trkpt lat="42.41246" lon="2.56613">
        <ele>520.2</ele>
        <time>2022-05-21 18:31:19</time>
      </trkpt>
      <trkpt lat="42.41249" lon="2.56612">
        <ele>520.2</ele>
        <time>2022-05-21 18:31:20</time>
      </trkpt>
      <trkpt lat="42.41253" lon="2.56611">
        <ele>520.2</ele>
        <time>2022-05-21 18:31:21</time>
      </trkpt>
      <trkpt lat="42.41256" lon="2.56609">
        <ele>520</ele>
        <time>2022-05-21 18:31:22</time>
      </trkpt>
      <trkpt lat="42.41259" lon="2.56606">
        <ele>520</ele>
        <time>2022-05-21 18:31:23</time>
      </trkpt>
      <trkpt lat="42.41262" lon="2.56603">
        <ele>520</ele>
        <time>2022-05-21 18:31:24</time>
      </trkpt>
      <trkpt lat="42.41265" lon="2.56599">
        <ele>520</ele>
        <time>2022-05-21 18:31:25</time>
      </trkpt>
      <trkpt lat="42.41268" lon="2.56594">
        <ele>519.8</ele>
        <time>2022-05-21 18:31:26</time>
      </trkpt>
      <trkpt lat="42.4127" lon="2.5659">
        <ele>519.8</ele>
        <time>2022-05-21 18:31:27</time>
      </trkpt>
      <trkpt lat="42.41272" lon="2.56585">
        <ele>519.8</ele>
        <time>2022-05-21 18:31:28</time>
      </trkpt>
      <trkpt lat="42.41274" lon="2.5658">
        <ele>519.8</ele>
        <time>2022-05-21 18:31:29</time>
      </trkpt>
      <trkpt lat="42.41276" lon="2.56576">
        <ele>519.6</ele>
        <time>2022-05-21 18:31:30</time>
      </trkpt>
      <trkpt lat="42.41277" lon="2.56571">
        <ele>519.6</ele>
        <time>2022-05-21 18:31:31</time>
      </trkpt>
      <trkpt lat="42.41278" lon="2.56566">
        <ele>519.6</ele>
        <time>2022-05-21 18:31:32</time>
      </trkpt>
      <trkpt lat="42.41279" lon="2.5656">
        <ele>519.6</ele>
        <time>2022-05-21 18:31:33</time>
      </trkpt>
      <trkpt lat="42.41279" lon="2.56554">
        <ele>519.4</ele>
        <time>2022-05-21 18:31:34</time>
      </trkpt>
      <trkpt lat="42.41279" lon="2.56548">
        <ele>519.4</ele>
        <time>2022-05-21 18:31:35</time>
      </trkpt>
      <trkpt lat="42.41279" lon="2.56542">
        <ele>519.2</ele>
        <time>2022-05-21 18:31:36</time>
      </trkpt>
      <trkpt lat="42.4128" lon="2.56535">
        <ele>519.2</ele>
        <time>2022-05-21 18:31:37</time>
      </trkpt>
      <trkpt lat="42.4128" lon="2.56528">
        <ele>519</ele>
        <time>2022-05-21 18:31:38</time>
      </trkpt>
      <trkpt lat="42.4128" lon="2.56522">
        <ele>519</ele>
        <time>2022-05-21 18:31:39</time>
      </trkpt>
      <trkpt lat="42.4128" lon="2.56515">
        <ele>518.8</ele>
        <time>2022-05-21 18:31:40</time>
      </trkpt>
      <trkpt lat="42.4128" lon="2.56508">
        <ele>518.8</ele>
        <time>2022-05-21 18:31:41</time>
      </trkpt>
      <trkpt lat="42.4128" lon="2.56501">
        <ele>518.8</ele>
        <time>2022-05-21 18:31:42</time>
      </trkpt>
      <trkpt lat="42.41281" lon="2.56495">
        <ele>518.8</ele>
        <time>2022-05-21 18:31:43</time>
      </trkpt>
      <trkpt lat="42.41281" lon="2.56489">
        <ele>518.8</ele>
        <time>2022-05-21 18:31:44</time>
      </trkpt>
      <trkpt lat="42.41282" lon="2.56483">
        <ele>518.6</ele>
        <time>2022-05-21 18:31:45</time>
      </trkpt>
      <trkpt lat="42.41282" lon="2.56477">
        <ele>518.6</ele>
        <time>2022-05-21 18:31:46</time>
      </trkpt>
      <trkpt lat="42.41283" lon="2.56471">
        <ele>518.6</ele>
        <time>2022-05-21 18:31:47</time>
      </trkpt>
      <trkpt lat="42.41284" lon="2.56465">
        <ele>518.6</ele>
        <time>2022-05-21 18:31:48</time>
      </trkpt>
      <trkpt lat="42.41285" lon="2.56459">
        <ele>518.6</ele>
        <time>2022-05-21 18:31:49</time>
      </trkpt>
      <trkpt lat="42.41286" lon="2.56454">
        <ele>518.4</ele>
        <time>2022-05-21 18:31:50</time>
      </trkpt>
      <trkpt lat="42.41288" lon="2.56448">
        <ele>518.4</ele>
        <time>2022-05-21 18:31:51</time>
      </trkpt>
      <trkpt lat="42.41289" lon="2.56443">
        <ele>518.2</ele>
        <time>2022-05-21 18:31:52</time>
      </trkpt>
      <trkpt lat="42.4129" lon="2.56437">
        <ele>518</ele>
        <time>2022-05-21 18:31:53</time>
      </trkpt>
      <trkpt lat="42.41291" lon="2.5643">
        <ele>517.8</ele>
        <time>2022-05-21 18:31:54</time>
      </trkpt>
      <trkpt lat="42.41292" lon="2.56423">
        <ele>517.6</ele>
        <time>2022-05-21 18:31:55</time>
      </trkpt>
      <trkpt lat="42.41293" lon="2.56415">
        <ele>517.2</ele>
        <time>2022-05-21 18:31:56</time>
      </trkpt>
      <trkpt lat="42.41293" lon="2.56407">
        <ele>516.8</ele>
        <time>2022-05-21 18:31:57</time>
      </trkpt>
      <trkpt lat="42.41293" lon="2.56399">
        <ele>516.4</ele>
        <time>2022-05-21 18:31:58</time>
      </trkpt>
      <trkpt lat="42.41294" lon="2.5639">
        <ele>516.2</ele>
        <time>2022-05-21 18:31:59</time>
      </trkpt>
      <trkpt lat="42.41295" lon="2.56381">
        <ele>515.8</ele>
        <time>2022-05-21 18:32:00</time>
      </trkpt>
      <trkpt lat="42.41297" lon="2.56372">
        <ele>515.4</ele>
        <time>2022-05-21 18:32:01</time>
      </trkpt>
      <trkpt lat="42.41297" lon="2.56362">
        <ele>515</ele>
        <time>2022-05-21 18:32:02</time>
      </trkpt>
      <trkpt lat="42.41298" lon="2.56352">
        <ele>514.6</ele>
        <time>2022-05-21 18:32:03</time>
      </trkpt>
      <trkpt lat="42.41298" lon="2.56341">
        <ele>514.2</ele>
        <time>2022-05-21 18:32:04</time>
      </trkpt>
      <trkpt lat="42.41298" lon="2.56331">
        <ele>513.6</ele>
        <time>2022-05-21 18:32:05</time>
      </trkpt>
      <trkpt lat="42.41298" lon="2.5632">
        <ele>513.2</ele>
        <time>2022-05-21 18:32:06</time>
      </trkpt>
      <trkpt lat="42.41298" lon="2.56308">
        <ele>512.8</ele>
        <time>2022-05-21 18:32:07</time>
      </trkpt>
      <trkpt lat="42.41297" lon="2.56296">
        <ele>512.4</ele>
        <time>2022-05-21 18:32:08</time>
      </trkpt>
      <trkpt lat="42.41296" lon="2.56284">
        <ele>511.8</ele>
        <time>2022-05-21 18:32:09</time>
      </trkpt>
      <trkpt lat="42.41295" lon="2.56271">
        <ele>511.4</ele>
        <time>2022-05-21 18:32:10</time>
      </trkpt>
      <trkpt lat="42.41295" lon="2.56259">
        <ele>511</ele>
        <time>2022-05-21 18:32:11</time>
      </trkpt>
      <trkpt lat="42.41295" lon="2.56247">
        <ele>510.6</ele>
        <time>2022-05-21 18:32:12</time>
      </trkpt>
      <trkpt lat="42.41293" lon="2.56234">
        <ele>510.2</ele>
        <time>2022-05-21 18:32:13</time>
      </trkpt>
      <trkpt lat="42.41292" lon="2.5622">
        <ele>509.8</ele>
        <time>2022-05-21 18:32:14</time>
      </trkpt>
      <trkpt lat="42.41291" lon="2.56207">
        <ele>509.4</ele>
        <time>2022-05-21 18:32:15</time>
      </trkpt>
      <trkpt lat="42.4129" lon="2.56192">
        <ele>509.2</ele>
        <time>2022-05-21 18:32:16</time>
      </trkpt>
      <trkpt lat="42.41291" lon="2.5618">
        <ele>508.8</ele>
        <time>2022-05-21 18:32:17</time>
      </trkpt>
      <trkpt lat="42.41292" lon="2.56167">
        <ele>508.4</ele>
        <time>2022-05-21 18:32:18</time>
      </trkpt>
      <trkpt lat="42.41295" lon="2.56155">
        <ele>508</ele>
        <time>2022-05-21 18:32:19</time>
      </trkpt>
      <trkpt lat="42.41297" lon="2.56142">
        <ele>507.8</ele>
        <time>2022-05-21 18:32:20</time>
      </trkpt>
      <trkpt lat="42.41298" lon="2.5613">
        <ele>507.4</ele>
        <time>2022-05-21 18:32:21</time>
      </trkpt>
      <trkpt lat="42.41299" lon="2.56118">
        <ele>507</ele>
        <time>2022-05-21 18:32:22</time>
      </trkpt>
      <trkpt lat="42.41299" lon="2.56105">
        <ele>506.6</ele>
        <time>2022-05-21 18:32:23</time>
      </trkpt>
      <trkpt lat="42.41299" lon="2.56093">
        <ele>506.2</ele>
        <time>2022-05-21 18:32:24</time>
      </trkpt>
      <trkpt lat="42.41299" lon="2.56081">
        <ele>505.8</ele>
        <time>2022-05-21 18:32:25</time>
      </trkpt>
      <trkpt lat="42.41297" lon="2.56069">
        <ele>505.6</ele>
        <time>2022-05-21 18:32:26</time>
      </trkpt>
      <trkpt lat="42.41296" lon="2.56057">
        <ele>505.2</ele>
        <time>2022-05-21 18:32:27</time>
      </trkpt>
      <trkpt lat="42.41294" lon="2.56045">
        <ele>504.8</ele>
        <time>2022-05-21 18:32:28</time>
      </trkpt>
      <trkpt lat="42.41291" lon="2.56033">
        <ele>504.4</ele>
        <time>2022-05-21 18:32:29</time>
      </trkpt>
      <trkpt lat="42.41288" lon="2.5602">
        <ele>503.8</ele>
        <time>2022-05-21 18:32:30</time>
      </trkpt>
      <trkpt lat="42.41285" lon="2.56006">
        <ele>503.4</ele>
        <time>2022-05-21 18:32:31</time>
      </trkpt>
      <trkpt lat="42.41282" lon="2.55994">
        <ele>502.8</ele>
        <time>2022-05-21 18:32:32</time>
      </trkpt>
      <trkpt lat="42.41278" lon="2.55981">
        <ele>502.4</ele>
        <time>2022-05-21 18:32:33</time>
      </trkpt>
      <trkpt lat="42.41274" lon="2.55968">
        <ele>501.8</ele>
        <time>2022-05-21 18:32:34</time>
      </trkpt>
      <trkpt lat="42.41271" lon="2.55955">
        <ele>501.2</ele>
        <time>2022-05-21 18:32:35</time>
      </trkpt>
      <trkpt lat="42.41268" lon="2.55941">
        <ele>500.6</ele>
        <time>2022-05-21 18:32:36</time>
      </trkpt>
      <trkpt lat="42.41265" lon="2.55926">
        <ele>500</ele>
        <time>2022-05-21 18:32:37</time>
      </trkpt>
      <trkpt lat="42.41262" lon="2.55913">
        <ele>499.4</ele>
        <time>2022-05-21 18:32:38</time>
      </trkpt>
      <trkpt lat="42.4126" lon="2.559">
        <ele>498.8</ele>
        <time>2022-05-21 18:32:39</time>
      </trkpt>
      <trkpt lat="42.41258" lon="2.55885">
        <ele>498.4</ele>
        <time>2022-05-21 18:32:40</time>
      </trkpt>
      <trkpt lat="42.41256" lon="2.5587">
        <ele>497.8</ele>
        <time>2022-05-21 18:32:41</time>
      </trkpt>
      <trkpt lat="42.41254" lon="2.55856">
        <ele>497.4</ele>
        <time>2022-05-21 18:32:42</time>
      </trkpt>
      <trkpt lat="42.41253" lon="2.55842">
        <ele>497</ele>
        <time>2022-05-21 18:32:43</time>
      </trkpt>
      <trkpt lat="42.41252" lon="2.55828">
        <ele>496.8</ele>
        <time>2022-05-21 18:32:44</time>
      </trkpt>
      <trkpt lat="42.41251" lon="2.55814">
        <ele>496.6</ele>
        <time>2022-05-21 18:32:45</time>
      </trkpt>
      <trkpt lat="42.4125" lon="2.55801">
        <ele>496.4</ele>
        <time>2022-05-21 18:32:46</time>
      </trkpt>
      <trkpt lat="42.41251" lon="2.55789">
        <ele>496.4</ele>
        <time>2022-05-21 18:32:47</time>
      </trkpt>
      <trkpt lat="42.41254" lon="2.55776">
        <ele>496.4</ele>
        <time>2022-05-21 18:32:48</time>
      </trkpt>
      <trkpt lat="42.41258" lon="2.55764">
        <ele>496.4</ele>
        <time>2022-05-21 18:32:49</time>
      </trkpt>
      <trkpt lat="42.41264" lon="2.55755">
        <ele>496.4</ele>
        <time>2022-05-21 18:32:50</time>
      </trkpt>
      <trkpt lat="42.41271" lon="2.55746">
        <ele>496.6</ele>
        <time>2022-05-21 18:32:51</time>
      </trkpt>
      <trkpt lat="42.41277" lon="2.55739">
        <ele>496.6</ele>
        <time>2022-05-21 18:32:52</time>
      </trkpt>
      <trkpt lat="42.41283" lon="2.55732">
        <ele>496.8</ele>
        <time>2022-05-21 18:32:53</time>
      </trkpt>
      <trkpt lat="42.41287" lon="2.55724">
        <ele>496.8</ele>
        <time>2022-05-21 18:32:54</time>
      </trkpt>
      <trkpt lat="42.41291" lon="2.55717">
        <ele>497</ele>
        <time>2022-05-21 18:32:55</time>
      </trkpt>
      <trkpt lat="42.41294" lon="2.55709">
        <ele>497.2</ele>
        <time>2022-05-21 18:32:56</time>
      </trkpt>
      <trkpt lat="42.41296" lon="2.55701">
        <ele>497.4</ele>
        <time>2022-05-21 18:32:57</time>
      </trkpt>
      <trkpt lat="42.41296" lon="2.55693">
        <ele>497.4</ele>
        <time>2022-05-21 18:32:58</time>
      </trkpt>
      <trkpt lat="42.41294" lon="2.55686">
        <ele>497.6</ele>
        <time>2022-05-21 18:32:59</time>
      </trkpt>
      <trkpt lat="42.41292" lon="2.5568">
        <ele>497.8</ele>
        <time>2022-05-21 18:33:00</time>
      </trkpt>
      <trkpt lat="42.4129" lon="2.55674">
        <ele>498</ele>
        <time>2022-05-21 18:33:01</time>
      </trkpt>
      <trkpt lat="42.41288" lon="2.55669">
        <ele>498</ele>
        <time>2022-05-21 18:33:02</time>
      </trkpt>
      <trkpt lat="42.41287" lon="2.55663">
        <ele>498.2</ele>
        <time>2022-05-21 18:33:03</time>
      </trkpt>
      <trkpt lat="42.41286" lon="2.55658">
        <ele>498.4</ele>
        <time>2022-05-21 18:33:04</time>
      </trkpt>
      <trkpt lat="42.41284" lon="2.55652">
        <ele>498.8</ele>
        <time>2022-05-21 18:33:05</time>
      </trkpt>
      <trkpt lat="42.41282" lon="2.55647">
        <ele>499</ele>
        <time>2022-05-21 18:33:06</time>
      </trkpt>
      <trkpt lat="42.41281" lon="2.55641">
        <ele>499.2</ele>
        <time>2022-05-21 18:33:07</time>
      </trkpt>
      <trkpt lat="42.41279" lon="2.55636">
        <ele>499.6</ele>
        <time>2022-05-21 18:33:08</time>
      </trkpt>
      <trkpt lat="42.41277" lon="2.55632">
        <ele>499.8</ele>
        <time>2022-05-21 18:33:09</time>
      </trkpt>
      <trkpt lat="42.41275" lon="2.55628">
        <ele>500</ele>
        <time>2022-05-21 18:33:10</time>
      </trkpt>
      <trkpt lat="42.41272" lon="2.55625">
        <ele>500.4</ele>
        <time>2022-05-21 18:33:11</time>
      </trkpt>
      <trkpt lat="42.4127" lon="2.55621">
        <ele>500.6</ele>
        <time>2022-05-21 18:33:12</time>
      </trkpt>
      <trkpt lat="42.41267" lon="2.55618">
        <ele>500.8</ele>
        <time>2022-05-21 18:33:13</time>
      </trkpt>
      <trkpt lat="42.41264" lon="2.55615">
        <ele>501</ele>
        <time>2022-05-21 18:33:14</time>
      </trkpt>
      <trkpt lat="42.41261" lon="2.55611">
        <ele>501.2</ele>
        <time>2022-05-21 18:33:15</time>
      </trkpt>
      <trkpt lat="42.41259" lon="2.55608">
        <ele>501.4</ele>
        <time>2022-05-21 18:33:16</time>
      </trkpt>
      <trkpt lat="42.41256" lon="2.55605">
        <ele>501.8</ele>
        <time>2022-05-21 18:33:17</time>
      </trkpt>
      <trkpt lat="42.41254" lon="2.55602">
        <ele>502</ele>
        <time>2022-05-21 18:33:18</time>
      </trkpt>
      <trkpt lat="42.41252" lon="2.556">
        <ele>502.2</ele>
        <time>2022-05-21 18:33:19</time>
      </trkpt>
      <trkpt lat="42.41249" lon="2.55599">
        <ele>502.4</ele>
        <time>2022-05-21 18:33:20</time>
      </trkpt>
      <trkpt lat="42.41246" lon="2.55596">
        <ele>502.6</ele>
        <time>2022-05-21 18:33:21</time>
      </trkpt>
      <trkpt lat="42.41244" lon="2.55592">
        <ele>502.8</ele>
        <time>2022-05-21 18:33:22</time>
      </trkpt>
      <trkpt lat="42.41242" lon="2.55589">
        <ele>503</ele>
        <time>2022-05-21 18:33:23</time>
      </trkpt>
      <trkpt lat="42.4124" lon="2.55587">
        <ele>503.2</ele>
        <time>2022-05-21 18:33:24</time>
      </trkpt>
      <trkpt lat="42.41238" lon="2.55584">
        <ele>503.4</ele>
        <time>2022-05-21 18:33:25</time>
      </trkpt>
      <trkpt lat="42.41236" lon="2.55582">
        <ele>503.6</ele>
        <time>2022-05-21 18:33:26</time>
      </trkpt>
      <trkpt lat="42.41233" lon="2.5558">
        <ele>503.8</ele>
        <time>2022-05-21 18:33:27</time>
      </trkpt>
      <trkpt lat="42.41231" lon="2.55578">
        <ele>504</ele>
        <time>2022-05-21 18:33:28</time>
      </trkpt>
      <trkpt lat="42.41228" lon="2.55575">
        <ele>504.2</ele>
        <time>2022-05-21 18:33:29</time>
      </trkpt>
      <trkpt lat="42.41226" lon="2.55573">
        <ele>504.4</ele>
        <time>2022-05-21 18:33:30</time>
      </trkpt>
      <trkpt lat="42.41224" lon="2.55572">
        <ele>504.6</ele>
        <time>2022-05-21 18:33:31</time>
      </trkpt>
      <trkpt lat="42.41222" lon="2.5557">
        <ele>504.8</ele>
        <time>2022-05-21 18:33:32</time>
      </trkpt>
      <trkpt lat="42.41221" lon="2.55568">
        <ele>505</ele>
        <time>2022-05-21 18:33:33</time>
      </trkpt>
      <trkpt lat="42.41219" lon="2.55566">
        <ele>505.2</ele>
        <time>2022-05-21 18:33:34</time>
      </trkpt>
      <trkpt lat="42.41217" lon="2.55564">
        <ele>505.2</ele>
        <time>2022-05-21 18:33:35</time>
      </trkpt>
      <trkpt lat="42.41216" lon="2.55562">
        <ele>505.4</ele>
        <time>2022-05-21 18:33:36</time>
      </trkpt>
      <trkpt lat="42.41214" lon="2.5556">
        <ele>505.6</ele>
        <time>2022-05-21 18:33:37</time>
      </trkpt>
      <trkpt lat="42.41213" lon="2.55558">
        <ele>505.8</ele>
        <time>2022-05-21 18:33:38</time>
      </trkpt>
      <trkpt lat="42.41211" lon="2.55557">
        <ele>505.8</ele>
        <time>2022-05-21 18:33:39</time>
      </trkpt>
      <trkpt lat="42.41209" lon="2.55556">
        <ele>506</ele>
        <time>2022-05-21 18:33:40</time>
      </trkpt>
      <trkpt lat="42.41207" lon="2.55555">
        <ele>506.2</ele>
        <time>2022-05-21 18:33:41</time>
      </trkpt>
      <trkpt lat="42.41205" lon="2.55554">
        <ele>506.4</ele>
        <time>2022-05-21 18:33:42</time>
      </trkpt>
      <trkpt lat="42.41203" lon="2.55553">
        <ele>506.4</ele>
        <time>2022-05-21 18:33:43</time>
      </trkpt>
      <trkpt lat="42.41201" lon="2.55551">
        <ele>506.6</ele>
        <time>2022-05-21 18:33:44</time>
      </trkpt>
      <trkpt lat="42.412" lon="2.5555">
        <ele>506.8</ele>
        <time>2022-05-21 18:33:45</time>
      </trkpt>
      <trkpt lat="42.41199" lon="2.55548">
        <ele>507</ele>
        <time>2022-05-21 18:33:46</time>
      </trkpt>
      <trkpt lat="42.41197" lon="2.55546">
        <ele>507</ele>
        <time>2022-05-21 18:33:47</time>
      </trkpt>
      <trkpt lat="42.41196" lon="2.55545">
        <ele>507.2</ele>
        <time>2022-05-21 18:33:48</time>
      </trkpt>
      <trkpt lat="42.41194" lon="2.55543">
        <ele>507.4</ele>
        <time>2022-05-21 18:33:49</time>
      </trkpt>
      <trkpt lat="42.41193" lon="2.55542">
        <ele>507.6</ele>
        <time>2022-05-21 18:33:50</time>
      </trkpt>
      <trkpt lat="42.41192" lon="2.55539">
        <ele>507.6</ele>
        <time>2022-05-21 18:33:51</time>
      </trkpt>
      <trkpt lat="42.41191" lon="2.55537">
        <ele>507.8</ele>
        <time>2022-05-21 18:33:52</time>
      </trkpt>
      <trkpt lat="42.4119" lon="2.55536">
        <ele>508</ele>
        <time>2022-05-21 18:33:53</time>
      </trkpt>
      <trkpt lat="42.41188" lon="2.55534">
        <ele>508.2</ele>
        <time>2022-05-21 18:33:54</time>
      </trkpt>
      <trkpt lat="42.41187" lon="2.55532">
        <ele>508.2</ele>
        <time>2022-05-21 18:33:55</time>
      </trkpt>
      <trkpt lat="42.41185" lon="2.55531">
        <ele>508.4</ele>
        <time>2022-05-21 18:33:56</time>
      </trkpt>
      <trkpt lat="42.41184" lon="2.55529">
        <ele>508.6</ele>
        <time>2022-05-21 18:33:57</time>
      </trkpt>
      <trkpt lat="42.41183" lon="2.55528">
        <ele>508.6</ele>
        <time>2022-05-21 18:33:58</time>
      </trkpt>
      <trkpt lat="42.41181" lon="2.55526">
        <ele>508.8</ele>
        <time>2022-05-21 18:33:59</time>
      </trkpt>
      <trkpt lat="42.4118" lon="2.55525">
        <ele>509</ele>
        <time>2022-05-21 18:34:00</time>
      </trkpt>
      <trkpt lat="42.41179" lon="2.55524">
        <ele>509</ele>
        <time>2022-05-21 18:34:01</time>
      </trkpt>
      <trkpt lat="42.41178" lon="2.55522">
        <ele>509.2</ele>
        <time>2022-05-21 18:34:02</time>
      </trkpt>
      <trkpt lat="42.41176" lon="2.5552">
        <ele>509.4</ele>
        <time>2022-05-21 18:34:03</time>
      </trkpt>
      <trkpt lat="42.41175" lon="2.55518">
        <ele>509.4</ele>
        <time>2022-05-21 18:34:04</time>
      </trkpt>
      <trkpt lat="42.41175" lon="2.55516">
        <ele>509.6</ele>
        <time>2022-05-21 18:34:05</time>
      </trkpt>
      <trkpt lat="42.41174" lon="2.55514">
        <ele>509.8</ele>
        <time>2022-05-21 18:34:06</time>
      </trkpt>
      <trkpt lat="42.41172" lon="2.55512">
        <ele>509.8</ele>
        <time>2022-05-21 18:34:07</time>
      </trkpt>
      <trkpt lat="42.41171" lon="2.55511">
        <ele>510</ele>
        <time>2022-05-21 18:34:08</time>
      </trkpt>
      <trkpt lat="42.4117" lon="2.55509">
        <ele>510.2</ele>
        <time>2022-05-21 18:34:09</time>
      </trkpt>
      <trkpt lat="42.41168" lon="2.55508">
        <ele>510.2</ele>
        <time>2022-05-21 18:34:10</time>
      </trkpt>
      <trkpt lat="42.41167" lon="2.55505">
        <ele>510.4</ele>
        <time>2022-05-21 18:34:11</time>
      </trkpt>
      <trkpt lat="42.41167" lon="2.55503">
        <ele>510.4</ele>
        <time>2022-05-21 18:34:12</time>
      </trkpt>
      <trkpt lat="42.41166" lon="2.55502">
        <ele>510.6</ele>
        <time>2022-05-21 18:34:13</time>
      </trkpt>
      <trkpt lat="42.41165" lon="2.55499">
        <ele>510.8</ele>
        <time>2022-05-21 18:34:14</time>
      </trkpt>
      <trkpt lat="42.41164" lon="2.55497">
        <ele>510.8</ele>
        <time>2022-05-21 18:34:15</time>
      </trkpt>
      <trkpt lat="42.41163" lon="2.55495">
        <ele>511</ele>
        <time>2022-05-21 18:34:16</time>
      </trkpt>
      <trkpt lat="42.41163" lon="2.55493">
        <ele>511</ele>
        <time>2022-05-21 18:34:17</time>
      </trkpt>
      <trkpt lat="42.41162" lon="2.55491">
        <ele>511.2</ele>
        <time>2022-05-21 18:34:18</time>
      </trkpt>
      <trkpt lat="42.41162" lon="2.55488">
        <ele>511.2</ele>
        <time>2022-05-21 18:34:19</time>
      </trkpt>
      <trkpt lat="42.41161" lon="2.55486">
        <ele>511.4</ele>
        <time>2022-05-21 18:34:20</time>
      </trkpt>
      <trkpt lat="42.4116" lon="2.55483">
        <ele>511.4</ele>
        <time>2022-05-21 18:34:21</time>
      </trkpt>
      <trkpt lat="42.4116" lon="2.55481">
        <ele>511.6</ele>
        <time>2022-05-21 18:34:22</time>
      </trkpt>
      <trkpt lat="42.41159" lon="2.55479">
        <ele>511.8</ele>
        <time>2022-05-21 18:34:23</time>
      </trkpt>
      <trkpt lat="42.41158" lon="2.55477">
        <ele>511.8</ele>
        <time>2022-05-21 18:34:24</time>
      </trkpt>
      <trkpt lat="42.41158" lon="2.55474">
        <ele>512</ele>
        <time>2022-05-21 18:34:25</time>
      </trkpt>
      <trkpt lat="42.41158" lon="2.55472">
        <ele>512</ele>
        <time>2022-05-21 18:34:26</time>
      </trkpt>
      <trkpt lat="42.41157" lon="2.5547">
        <ele>512.2</ele>
        <time>2022-05-21 18:34:27</time>
      </trkpt>
      <trkpt lat="42.41157" lon="2.55468">
        <ele>512.2</ele>
        <time>2022-05-21 18:34:28</time>
      </trkpt>
      <trkpt lat="42.41157" lon="2.55466">
        <ele>512.4</ele>
        <time>2022-05-21 18:34:29</time>
      </trkpt>
      <trkpt lat="42.41157" lon="2.55464">
        <ele>512.6</ele>
        <time>2022-05-21 18:34:30</time>
      </trkpt>
      <trkpt lat="42.41157" lon="2.55461">
        <ele>512.6</ele>
        <time>2022-05-21 18:34:31</time>
      </trkpt>
      <trkpt lat="42.41157" lon="2.55459">
        <ele>512.8</ele>
        <time>2022-05-21 18:34:32</time>
      </trkpt>
      <trkpt lat="42.41156" lon="2.55457">
        <ele>512.8</ele>
        <time>2022-05-21 18:34:33</time>
      </trkpt>
      <trkpt lat="42.41157" lon="2.55455">
        <ele>513</ele>
        <time>2022-05-21 18:34:34</time>
      </trkpt>
      <trkpt lat="42.41157" lon="2.55453">
        <ele>513.2</ele>
        <time>2022-05-21 18:34:35</time>
      </trkpt>
      <trkpt lat="42.41157" lon="2.5545">
        <ele>513.2</ele>
        <time>2022-05-21 18:34:36</time>
      </trkpt>
      <trkpt lat="42.41158" lon="2.55448">
        <ele>513.4</ele>
        <time>2022-05-21 18:34:37</time>
      </trkpt>
      <trkpt lat="42.41158" lon="2.55445">
        <ele>513.4</ele>
        <time>2022-05-21 18:34:38</time>
      </trkpt>
      <trkpt lat="42.41158" lon="2.55442">
        <ele>513.6</ele>
        <time>2022-05-21 18:34:39</time>
      </trkpt>
      <trkpt lat="42.41158" lon="2.5544">
        <ele>513.8</ele>
        <time>2022-05-21 18:34:40</time>
      </trkpt>
      <trkpt lat="42.41158" lon="2.55437">
        <ele>513.8</ele>
        <time>2022-05-21 18:34:41</time>
      </trkpt>
      <trkpt lat="42.41159" lon="2.55434">
        <ele>514</ele>
        <time>2022-05-21 18:34:42</time>
      </trkpt>
      <trkpt lat="42.41159" lon="2.55431">
        <ele>514.2</ele>
        <time>2022-05-21 18:34:43</time>
      </trkpt>
      <trkpt lat="42.4116" lon="2.55428">
        <ele>514.2</ele>
        <time>2022-05-21 18:34:44</time>
      </trkpt>
      <trkpt lat="42.4116" lon="2.55426">
        <ele>514.4</ele>
        <time>2022-05-21 18:34:45</time>
      </trkpt>
      <trkpt lat="42.4116" lon="2.55423">
        <ele>514.4</ele>
        <time>2022-05-21 18:34:46</time>
      </trkpt>
      <trkpt lat="42.4116" lon="2.5542">
        <ele>514.6</ele>
        <time>2022-05-21 18:34:47</time>
      </trkpt>
      <trkpt lat="42.4116" lon="2.55417">
        <ele>514.8</ele>
        <time>2022-05-21 18:34:48</time>
      </trkpt>
      <trkpt lat="42.4116" lon="2.55414">
        <ele>514.8</ele>
        <time>2022-05-21 18:34:49</time>
      </trkpt>
      <trkpt lat="42.4116" lon="2.55411">
        <ele>515</ele>
        <time>2022-05-21 18:34:50</time>
      </trkpt>
      <trkpt lat="42.41161" lon="2.55408">
        <ele>515.2</ele>
        <time>2022-05-21 18:34:51</time>
      </trkpt>
      <trkpt lat="42.41161" lon="2.55405">
        <ele>515.2</ele>
        <time>2022-05-21 18:34:52</time>
      </trkpt>
      <trkpt lat="42.41161" lon="2.55403">
        <ele>515.4</ele>
        <time>2022-05-21 18:34:53</time>
      </trkpt>
      <trkpt lat="42.41161" lon="2.554">
        <ele>515.6</ele>
        <time>2022-05-21 18:34:54</time>
      </trkpt>
      <trkpt lat="42.41162" lon="2.55397">
        <ele>515.8</ele>
        <time>2022-05-21 18:34:55</time>
      </trkpt>
      <trkpt lat="42.41163" lon="2.55395">
        <ele>515.8</ele>
        <time>2022-05-21 18:34:56</time>
      </trkpt>
      <trkpt lat="42.41163" lon="2.55392">
        <ele>516</ele>
        <time>2022-05-21 18:34:57</time>
      </trkpt>
      <trkpt lat="42.41164" lon="2.5539">
        <ele>516.2</ele>
        <time>2022-05-21 18:34:58</time>
      </trkpt>
      <trkpt lat="42.41164" lon="2.55387">
        <ele>516.4</ele>
        <time>2022-05-21 18:34:59</time>
      </trkpt>
      <trkpt lat="42.41165" lon="2.55384">
        <ele>516.4</ele>
        <time>2022-05-21 18:35:00</time>
      </trkpt>
      <trkpt lat="42.41165" lon="2.55382">
        <ele>516.6</ele>
        <time>2022-05-21 18:35:01</time>
      </trkpt>
      <trkpt lat="42.41166" lon="2.55379">
        <ele>516.8</ele>
        <time>2022-05-21 18:35:02</time>
      </trkpt>
      <trkpt lat="42.41166" lon="2.55376">
        <ele>516.8</ele>
        <time>2022-05-21 18:35:03</time>
      </trkpt>
      <trkpt lat="42.41166" lon="2.55374">
        <ele>517</ele>
        <time>2022-05-21 18:35:04</time>
      </trkpt>
      <trkpt lat="42.41166" lon="2.55371">
        <ele>517.2</ele>
        <time>2022-05-21 18:35:05</time>
      </trkpt>
      <trkpt lat="42.41166" lon="2.55369">
        <ele>517.2</ele>
        <time>2022-05-21 18:35:06</time>
      </trkpt>
      <trkpt lat="42.41167" lon="2.55366">
        <ele>517.4</ele>
        <time>2022-05-21 18:35:07</time>
      </trkpt>
      <trkpt lat="42.41167" lon="2.55364">
        <ele>517.6</ele>
        <time>2022-05-21 18:35:08</time>
      </trkpt>
      <trkpt lat="42.41167" lon="2.55362">
        <ele>517.8</ele>
        <time>2022-05-21 18:35:09</time>
      </trkpt>
      <trkpt lat="42.41167" lon="2.55359">
        <ele>517.8</ele>
        <time>2022-05-21 18:35:10</time>
      </trkpt>
      <trkpt lat="42.41168" lon="2.55357">
        <ele>518</ele>
        <time>2022-05-21 18:35:11</time>
      </trkpt>
      <trkpt lat="42.41168" lon="2.55354">
        <ele>518.2</ele>
        <time>2022-05-21 18:35:12</time>
      </trkpt>
      <trkpt lat="42.41169" lon="2.55352">
        <ele>518.2</ele>
        <time>2022-05-21 18:35:13</time>
      </trkpt>
      <trkpt lat="42.4117" lon="2.5535">
        <ele>518.4</ele>
        <time>2022-05-21 18:35:14</time>
      </trkpt>
      <trkpt lat="42.4117" lon="2.55347">
        <ele>518.6</ele>
        <time>2022-05-21 18:35:15</time>
      </trkpt>
      <trkpt lat="42.41171" lon="2.55345">
        <ele>518.8</ele>
        <time>2022-05-21 18:35:16</time>
      </trkpt>
      <trkpt lat="42.41171" lon="2.55343">
        <ele>518.8</ele>
        <time>2022-05-21 18:35:17</time>
      </trkpt>
      <trkpt lat="42.41172" lon="2.55341">
        <ele>519</ele>
        <time>2022-05-21 18:35:18</time>
      </trkpt>
      <trkpt lat="42.41172" lon="2.55339">
        <ele>519.2</ele>
        <time>2022-05-21 18:35:19</time>
      </trkpt>
      <trkpt lat="42.41173" lon="2.55337">
        <ele>519.4</ele>
        <time>2022-05-21 18:35:20</time>
      </trkpt>
      <trkpt lat="42.41174" lon="2.55335">
        <ele>519.4</ele>
        <time>2022-05-21 18:35:21</time>
      </trkpt>
      <trkpt lat="42.41174" lon="2.55334">
        <ele>519.6</ele>
        <time>2022-05-21 18:35:22</time>
      </trkpt>
      <trkpt lat="42.41176" lon="2.55332">
        <ele>519.8</ele>
        <time>2022-05-21 18:35:23</time>
      </trkpt>
      <trkpt lat="42.41177" lon="2.5533">
        <ele>519.8</ele>
        <time>2022-05-21 18:35:24</time>
      </trkpt>
      <trkpt lat="42.41179" lon="2.55328">
        <ele>520</ele>
        <time>2022-05-21 18:35:25</time>
      </trkpt>
      <trkpt lat="42.4118" lon="2.55326">
        <ele>520</ele>
        <time>2022-05-21 18:35:26</time>
      </trkpt>
      <trkpt lat="42.41182" lon="2.55323">
        <ele>520</ele>
        <time>2022-05-21 18:35:27</time>
      </trkpt>
      <trkpt lat="42.41184" lon="2.55319">
        <ele>520.2</ele>
        <time>2022-05-21 18:35:28</time>
      </trkpt>
      <trkpt lat="42.41184" lon="2.55314">
        <ele>520.2</ele>
        <time>2022-05-21 18:35:29</time>
      </trkpt>
      <trkpt lat="42.41185" lon="2.5531">
        <ele>520.2</ele>
        <time>2022-05-21 18:35:30</time>
      </trkpt>
      <trkpt lat="42.41184" lon="2.55306">
        <ele>520.2</ele>
        <time>2022-05-21 18:35:31</time>
      </trkpt>
      <trkpt lat="42.41183" lon="2.55301">
        <ele>520.2</ele>
        <time>2022-05-21 18:35:32</time>
      </trkpt>
      <trkpt lat="42.41182" lon="2.55297">
        <ele>520.4</ele>
        <time>2022-05-21 18:35:33</time>
      </trkpt>
      <trkpt lat="42.41181" lon="2.55293">
        <ele>520.4</ele>
        <time>2022-05-21 18:35:34</time>
      </trkpt>
      <trkpt lat="42.4118" lon="2.55289">
        <ele>520.4</ele>
        <time>2022-05-21 18:35:35</time>
      </trkpt>
      <trkpt lat="42.41178" lon="2.55284">
        <ele>520.4</ele>
        <time>2022-05-21 18:35:36</time>
      </trkpt>
      <trkpt lat="42.41177" lon="2.55279">
        <ele>520.6</ele>
        <time>2022-05-21 18:35:37</time>
      </trkpt>
      <trkpt lat="42.41176" lon="2.55274">
        <ele>520.6</ele>
        <time>2022-05-21 18:35:38</time>
      </trkpt>
      <trkpt lat="42.41175" lon="2.55269">
        <ele>520.6</ele>
        <time>2022-05-21 18:35:39</time>
      </trkpt>
      <trkpt lat="42.41174" lon="2.55265">
        <ele>520.6</ele>
        <time>2022-05-21 18:35:40</time>
      </trkpt>
      <trkpt lat="42.41172" lon="2.5526">
        <ele>520.8</ele>
        <time>2022-05-21 18:35:41</time>
      </trkpt>
      <trkpt lat="42.41171" lon="2.55255">
        <ele>520.8</ele>
        <time>2022-05-21 18:35:42</time>
      </trkpt>
      <trkpt lat="42.4117" lon="2.5525">
        <ele>521</ele>
        <time>2022-05-21 18:35:43</time>
      </trkpt>
      <trkpt lat="42.4117" lon="2.55245">
        <ele>521</ele>
        <time>2022-05-21 18:35:44</time>
      </trkpt>
      <trkpt lat="42.41169" lon="2.5524">
        <ele>521</ele>
        <time>2022-05-21 18:35:45</time>
      </trkpt>
      <trkpt lat="42.41168" lon="2.55235">
        <ele>521.2</ele>
        <time>2022-05-21 18:35:46</time>
      </trkpt>
      <trkpt lat="42.41168" lon="2.55231">
        <ele>521.2</ele>
        <time>2022-05-21 18:35:47</time>
      </trkpt>
      <trkpt lat="42.41167" lon="2.55226">
        <ele>521.2</ele>
        <time>2022-05-21 18:35:48</time>
      </trkpt>
      <trkpt lat="42.41167" lon="2.55221">
        <ele>521.4</ele>
        <time>2022-05-21 18:35:49</time>
      </trkpt>
      <trkpt lat="42.41166" lon="2.55216">
        <ele>521.4</ele>
        <time>2022-05-21 18:35:50</time>
      </trkpt>
      <trkpt lat="42.41166" lon="2.55212">
        <ele>521.6</ele>
        <time>2022-05-21 18:35:51</time>
      </trkpt>
      <trkpt lat="42.41165" lon="2.55207">
        <ele>521.6</ele>
        <time>2022-05-21 18:35:52</time>
      </trkpt>
      <trkpt lat="42.41164" lon="2.55202">
        <ele>521.8</ele>
        <time>2022-05-21 18:35:53</time>
      </trkpt>
      <trkpt lat="42.41162" lon="2.55197">
        <ele>521.8</ele>
        <time>2022-05-21 18:35:54</time>
      </trkpt>
      <trkpt lat="42.4116" lon="2.55192">
        <ele>521.8</ele>
        <time>2022-05-21 18:35:55</time>
      </trkpt>
      <trkpt lat="42.41158" lon="2.55188">
        <ele>522</ele>
        <time>2022-05-21 18:35:56</time>
      </trkpt>
      <trkpt lat="42.41155" lon="2.55183">
        <ele>522</ele>
        <time>2022-05-21 18:35:57</time>
      </trkpt>
      <trkpt lat="42.41152" lon="2.5518">
        <ele>522</ele>
        <time>2022-05-21 18:35:58</time>
      </trkpt>
      <trkpt lat="42.41149" lon="2.55177">
        <ele>522.2</ele>
        <time>2022-05-21 18:35:59</time>
      </trkpt>
      <trkpt lat="42.41145" lon="2.55175">
        <ele>522.2</ele>
        <time>2022-05-21 18:36:00</time>
      </trkpt>
      <trkpt lat="42.41142" lon="2.55172">
        <ele>522.2</ele>
        <time>2022-05-21 18:36:01</time>
      </trkpt>
      <trkpt lat="42.41139" lon="2.55169">
        <ele>522.4</ele>
        <time>2022-05-21 18:36:02</time>
      </trkpt>
      <trkpt lat="42.41135" lon="2.55166">
        <ele>522.4</ele>
        <time>2022-05-21 18:36:03</time>
      </trkpt>
      <trkpt lat="42.41132" lon="2.55163">
        <ele>522.6</ele>
        <time>2022-05-21 18:36:04</time>
      </trkpt>
      <trkpt lat="42.41129" lon="2.5516">
        <ele>522.6</ele>
        <time>2022-05-21 18:36:05</time>
      </trkpt>
      <trkpt lat="42.41125" lon="2.55157">
        <ele>522.6</ele>
        <time>2022-05-21 18:36:06</time>
      </trkpt>
      <trkpt lat="42.41121" lon="2.55154">
        <ele>522.8</ele>
        <time>2022-05-21 18:36:07</time>
      </trkpt>
      <trkpt lat="42.41118" lon="2.55151">
        <ele>522.8</ele>
        <time>2022-05-21 18:36:08</time>
      </trkpt>
      <trkpt lat="42.41114" lon="2.55148">
        <ele>522.8</ele>
        <time>2022-05-21 18:36:09</time>
      </trkpt>
      <trkpt lat="42.4111" lon="2.55145">
        <ele>523</ele>
        <time>2022-05-21 18:36:10</time>
      </trkpt>
      <trkpt lat="42.41106" lon="2.55142">
        <ele>523</ele>
        <time>2022-05-21 18:36:11</time>
      </trkpt>
      <trkpt lat="42.41102" lon="2.5514">
        <ele>523</ele>
        <time>2022-05-21 18:36:12</time>
      </trkpt>
      <trkpt lat="42.41099" lon="2.55139">
        <ele>523.2</ele>
        <time>2022-05-21 18:36:13</time>
      </trkpt>
      <trkpt lat="42.41095" lon="2.55138">
        <ele>523.2</ele>
        <time>2022-05-21 18:36:14</time>
      </trkpt>
      <trkpt lat="42.41091" lon="2.55136">
        <ele>523.2</ele>
        <time>2022-05-21 18:36:15</time>
      </trkpt>
      <trkpt lat="42.41087" lon="2.55135">
        <ele>523.2</ele>
        <time>2022-05-21 18:36:16</time>
      </trkpt>
      <trkpt lat="42.41083" lon="2.55134">
        <ele>523.2</ele>
        <time>2022-05-21 18:36:17</time>
      </trkpt>
      <trkpt lat="42.41079" lon="2.55132">
        <ele>523.4</ele>
        <time>2022-05-21 18:36:18</time>
      </trkpt>
      <trkpt lat="42.41075" lon="2.55131">
        <ele>523.4</ele>
        <time>2022-05-21 18:36:19</time>
      </trkpt>
      <trkpt lat="42.41071" lon="2.5513">
        <ele>523.4</ele>
        <time>2022-05-21 18:36:20</time>
      </trkpt>
      <trkpt lat="42.41068" lon="2.55129">
        <ele>523.4</ele>
        <time>2022-05-21 18:36:21</time>
      </trkpt>
      <trkpt lat="42.41065" lon="2.55129">
        <ele>523.4</ele>
        <time>2022-05-21 18:36:22</time>
      </trkpt>
      <trkpt lat="42.41059" lon="2.55128">
        <ele>523.4</ele>
        <time>2022-05-21 18:36:23</time>
      </trkpt>
      <trkpt lat="42.41055" lon="2.55127">
        <ele>523.4</ele>
        <time>2022-05-21 18:36:24</time>
      </trkpt>
      <trkpt lat="42.41051" lon="2.55127">
        <ele>523.4</ele>
        <time>2022-05-21 18:36:25</time>
      </trkpt>
      <trkpt lat="42.41048" lon="2.55126">
        <ele>523.4</ele>
        <time>2022-05-21 18:36:26</time>
      </trkpt>
      <trkpt lat="42.41044" lon="2.55125">
        <ele>523.4</ele>
        <time>2022-05-21 18:36:27</time>
      </trkpt>
      <trkpt lat="42.4104" lon="2.55123">
        <ele>523.6</ele>
        <time>2022-05-21 18:36:28</time>
      </trkpt>
      <trkpt lat="42.41036" lon="2.5512">
        <ele>523.6</ele>
        <time>2022-05-21 18:36:29</time>
      </trkpt>
      <trkpt lat="42.41033" lon="2.55118">
        <ele>523.6</ele>
        <time>2022-05-21 18:36:30</time>
      </trkpt>
      <trkpt lat="42.4103" lon="2.55115">
        <ele>523.6</ele>
        <time>2022-05-21 18:36:31</time>
      </trkpt>
      <trkpt lat="42.41028" lon="2.55111">
        <ele>523.6</ele>
        <time>2022-05-21 18:36:32</time>
      </trkpt>
      <trkpt lat="42.41026" lon="2.55107">
        <ele>523.6</ele>
        <time>2022-05-21 18:36:33</time>
      </trkpt>
      <trkpt lat="42.41024" lon="2.55103">
        <ele>523.6</ele>
        <time>2022-05-21 18:36:34</time>
      </trkpt>
      <trkpt lat="42.41022" lon="2.55099">
        <ele>523.6</ele>
        <time>2022-05-21 18:36:35</time>
      </trkpt>
      <trkpt lat="42.41021" lon="2.55095">
        <ele>523.6</ele>
        <time>2022-05-21 18:36:36</time>
      </trkpt>
      <trkpt lat="42.41019" lon="2.5509">
        <ele>523.6</ele>
        <time>2022-05-21 18:36:37</time>
      </trkpt>
      <trkpt lat="42.41019" lon="2.55085">
        <ele>523.6</ele>
        <time>2022-05-21 18:36:38</time>
      </trkpt>
      <trkpt lat="42.41018" lon="2.55079">
        <ele>523.6</ele>
        <time>2022-05-21 18:36:39</time>
      </trkpt>
      <trkpt lat="42.41017" lon="2.55073">
        <ele>523.6</ele>
        <time>2022-05-21 18:36:40</time>
      </trkpt>
      <trkpt lat="42.41017" lon="2.55067">
        <ele>523.6</ele>
        <time>2022-05-21 18:36:41</time>
      </trkpt>
      <trkpt lat="42.41017" lon="2.55061">
        <ele>523.8</ele>
        <time>2022-05-21 18:36:42</time>
      </trkpt>
      <trkpt lat="42.41017" lon="2.55055">
        <ele>523.8</ele>
        <time>2022-05-21 18:36:43</time>
      </trkpt>
      <trkpt lat="42.41018" lon="2.5505">
        <ele>523.8</ele>
        <time>2022-05-21 18:36:44</time>
      </trkpt>
      <trkpt lat="42.41018" lon="2.55044">
        <ele>524</ele>
        <time>2022-05-21 18:36:45</time>
      </trkpt>
      <trkpt lat="42.41019" lon="2.55039">
        <ele>524</ele>
        <time>2022-05-21 18:36:46</time>
      </trkpt>
      <trkpt lat="42.4102" lon="2.55034">
        <ele>524</ele>
        <time>2022-05-21 18:36:47</time>
      </trkpt>
      <trkpt lat="42.4102" lon="2.55029">
        <ele>524</ele>
        <time>2022-05-21 18:36:48</time>
      </trkpt>
      <trkpt lat="42.41021" lon="2.55024">
        <ele>524.2</ele>
        <time>2022-05-21 18:36:49</time>
      </trkpt>
      <trkpt lat="42.41022" lon="2.55019">
        <ele>524.2</ele>
        <time>2022-05-21 18:36:50</time>
      </trkpt>
      <trkpt lat="42.41022" lon="2.55014">
        <ele>524.2</ele>
        <time>2022-05-21 18:36:51</time>
      </trkpt>
      <trkpt lat="42.41023" lon="2.55009">
        <ele>524.2</ele>
        <time>2022-05-21 18:36:52</time>
      </trkpt>
      <trkpt lat="42.41024" lon="2.55003">
        <ele>524.4</ele>
        <time>2022-05-21 18:36:53</time>
      </trkpt>
      <trkpt lat="42.41024" lon="2.54998">
        <ele>524.4</ele>
        <time>2022-05-21 18:36:54</time>
      </trkpt>
      <trkpt lat="42.41024" lon="2.54993">
        <ele>524.4</ele>
        <time>2022-05-21 18:36:55</time>
      </trkpt>
      <trkpt lat="42.41024" lon="2.54987">
        <ele>524.6</ele>
        <time>2022-05-21 18:36:56</time>
      </trkpt>
      <trkpt lat="42.41024" lon="2.54981">
        <ele>524.6</ele>
        <time>2022-05-21 18:36:57</time>
      </trkpt>
      <trkpt lat="42.41024" lon="2.54975">
        <ele>524.6</ele>
        <time>2022-05-21 18:36:58</time>
      </trkpt>
      <trkpt lat="42.41023" lon="2.54969">
        <ele>524.6</ele>
        <time>2022-05-21 18:36:59</time>
      </trkpt>
      <trkpt lat="42.41023" lon="2.54964">
        <ele>524.6</ele>
        <time>2022-05-21 18:37:00</time>
      </trkpt>
      <trkpt lat="42.41022" lon="2.54958">
        <ele>524.6</ele>
        <time>2022-05-21 18:37:01</time>
      </trkpt>
      <trkpt lat="42.41022" lon="2.54953">
        <ele>524.4</ele>
        <time>2022-05-21 18:37:02</time>
      </trkpt>
      <trkpt lat="42.41021" lon="2.54946">
        <ele>524.4</ele>
        <time>2022-05-21 18:37:03</time>
      </trkpt>
      <trkpt lat="42.4102" lon="2.54939">
        <ele>524.4</ele>
        <time>2022-05-21 18:37:04</time>
      </trkpt>
      <trkpt lat="42.4102" lon="2.54933">
        <ele>524.4</ele>
        <time>2022-05-21 18:37:05</time>
      </trkpt>
      <trkpt lat="42.41019" lon="2.54927">
        <ele>524.4</ele>
        <time>2022-05-21 18:37:06</time>
      </trkpt>
      <trkpt lat="42.41017" lon="2.5492">
        <ele>524.4</ele>
        <time>2022-05-21 18:37:07</time>
      </trkpt>
      <trkpt lat="42.41016" lon="2.54914">
        <ele>524.4</ele>
        <time>2022-05-21 18:37:08</time>
      </trkpt>
      <trkpt lat="42.41015" lon="2.54908">
        <ele>524.4</ele>
        <time>2022-05-21 18:37:09</time>
      </trkpt>
      <trkpt lat="42.41014" lon="2.54902">
        <ele>524.4</ele>
        <time>2022-05-21 18:37:10</time>
      </trkpt>
      <trkpt lat="42.41014" lon="2.54896">
        <ele>524.4</ele>
        <time>2022-05-21 18:37:11</time>
      </trkpt>
      <trkpt lat="42.41014" lon="2.5489">
        <ele>524.4</ele>
        <time>2022-05-21 18:37:12</time>
      </trkpt>
      <trkpt lat="42.41014" lon="2.54884">
        <ele>524.6</ele>
        <time>2022-05-21 18:37:13</time>
      </trkpt>
      <trkpt lat="42.41014" lon="2.54878">
        <ele>524.6</ele>
        <time>2022-05-21 18:37:14</time>
      </trkpt>
      <trkpt lat="42.41014" lon="2.54872">
        <ele>524.6</ele>
        <time>2022-05-21 18:37:15</time>
      </trkpt>
      <trkpt lat="42.41014" lon="2.54867">
        <ele>524.6</ele>
        <time>2022-05-21 18:37:16</time>
      </trkpt>
      <trkpt lat="42.41014" lon="2.54861">
        <ele>524.6</ele>
        <time>2022-05-21 18:37:17</time>
      </trkpt>
      <trkpt lat="42.41014" lon="2.54855">
        <ele>524.6</ele>
        <time>2022-05-21 18:37:18</time>
      </trkpt>
      <trkpt lat="42.41014" lon="2.5485">
        <ele>524.8</ele>
        <time>2022-05-21 18:37:19</time>
      </trkpt>
      <trkpt lat="42.41013" lon="2.54844">
        <ele>524.8</ele>
        <time>2022-05-21 18:37:20</time>
      </trkpt>
      <trkpt lat="42.41013" lon="2.54838">
        <ele>524.8</ele>
        <time>2022-05-21 18:37:21</time>
      </trkpt>
      <trkpt lat="42.41013" lon="2.54833">
        <ele>525</ele>
        <time>2022-05-21 18:37:22</time>
      </trkpt>
      <trkpt lat="42.41012" lon="2.54826">
        <ele>525</ele>
        <time>2022-05-21 18:37:23</time>
      </trkpt>
      <trkpt lat="42.41012" lon="2.54821">
        <ele>525</ele>
        <time>2022-05-21 18:37:24</time>
      </trkpt>
      <trkpt lat="42.41011" lon="2.54815">
        <ele>525</ele>
        <time>2022-05-21 18:37:25</time>
      </trkpt>
      <trkpt lat="42.4101" lon="2.54809">
        <ele>525</ele>
        <time>2022-05-21 18:37:26</time>
      </trkpt>
      <trkpt lat="42.41008" lon="2.54803">
        <ele>525</ele>
        <time>2022-05-21 18:37:27</time>
      </trkpt>
      <trkpt lat="42.41007" lon="2.54798">
        <ele>525.2</ele>
        <time>2022-05-21 18:37:28</time>
      </trkpt>
      <trkpt lat="42.41005" lon="2.54792">
        <ele>525.2</ele>
        <time>2022-05-21 18:37:29</time>
      </trkpt>
      <trkpt lat="42.41004" lon="2.54786">
        <ele>525.2</ele>
        <time>2022-05-21 18:37:30</time>
      </trkpt>
      <trkpt lat="42.41003" lon="2.54781">
        <ele>525.2</ele>
        <time>2022-05-21 18:37:31</time>
      </trkpt>
      <trkpt lat="42.41001" lon="2.54776">
        <ele>525.4</ele>
        <time>2022-05-21 18:37:32</time>
      </trkpt>
      <trkpt lat="42.41" lon="2.54771">
        <ele>525.4</ele>
        <time>2022-05-21 18:37:33</time>
      </trkpt>
      <trkpt lat="42.40998" lon="2.54766">
        <ele>525.6</ele>
        <time>2022-05-21 18:37:34</time>
      </trkpt>
      <trkpt lat="42.40997" lon="2.54761">
        <ele>525.6</ele>
        <time>2022-05-21 18:37:35</time>
      </trkpt>
      <trkpt lat="42.40996" lon="2.54755">
        <ele>525.8</ele>
        <time>2022-05-21 18:37:36</time>
      </trkpt>
      <trkpt lat="42.40995" lon="2.5475">
        <ele>526</ele>
        <time>2022-05-21 18:37:37</time>
      </trkpt>
      <trkpt lat="42.40993" lon="2.54745">
        <ele>526</ele>
        <time>2022-05-21 18:37:38</time>
      </trkpt>
      <trkpt lat="42.40991" lon="2.54741">
        <ele>526</ele>
        <time>2022-05-21 18:37:39</time>
      </trkpt>
      <trkpt lat="42.40989" lon="2.54736">
        <ele>526.2</ele>
        <time>2022-05-21 18:37:40</time>
      </trkpt>
      <trkpt lat="42.40987" lon="2.54732">
        <ele>526.4</ele>
        <time>2022-05-21 18:37:41</time>
      </trkpt>
      <trkpt lat="42.40985" lon="2.54728">
        <ele>526.4</ele>
        <time>2022-05-21 18:37:42</time>
      </trkpt>
      <trkpt lat="42.40983" lon="2.54723">
        <ele>526.4</ele>
        <time>2022-05-21 18:37:43</time>
      </trkpt>
      <trkpt lat="42.4098" lon="2.54719">
        <ele>526.6</ele>
        <time>2022-05-21 18:37:44</time>
      </trkpt>
      <trkpt lat="42.40978" lon="2.54715">
        <ele>526.6</ele>
        <time>2022-05-21 18:37:45</time>
      </trkpt>
      <trkpt lat="42.40976" lon="2.54711">
        <ele>526.6</ele>
        <time>2022-05-21 18:37:46</time>
      </trkpt>
      <trkpt lat="42.40975" lon="2.54707">
        <ele>526.6</ele>
        <time>2022-05-21 18:37:47</time>
      </trkpt>
      <trkpt lat="42.40973" lon="2.54703">
        <ele>526.6</ele>
        <time>2022-05-21 18:37:48</time>
      </trkpt>
      <trkpt lat="42.40972" lon="2.54697">
        <ele>526.6</ele>
        <time>2022-05-21 18:37:49</time>
      </trkpt>
      <trkpt lat="42.40972" lon="2.54692">
        <ele>526.6</ele>
        <time>2022-05-21 18:37:50</time>
      </trkpt>
      <trkpt lat="42.40972" lon="2.54686">
        <ele>526.8</ele>
        <time>2022-05-21 18:37:51</time>
      </trkpt>
      <trkpt lat="42.40972" lon="2.5468">
        <ele>526.8</ele>
        <time>2022-05-21 18:37:52</time>
      </trkpt>
      <trkpt lat="42.40972" lon="2.54674">
        <ele>526.8</ele>
        <time>2022-05-21 18:37:53</time>
      </trkpt>
      <trkpt lat="42.40973" lon="2.54668">
        <ele>526.8</ele>
        <time>2022-05-21 18:37:54</time>
      </trkpt>
      <trkpt lat="42.40973" lon="2.54662">
        <ele>526.8</ele>
        <time>2022-05-21 18:37:55</time>
      </trkpt>
      <trkpt lat="42.40973" lon="2.54655">
        <ele>526.8</ele>
        <time>2022-05-21 18:37:56</time>
      </trkpt>
      <trkpt lat="42.40973" lon="2.54649">
        <ele>526.8</ele>
        <time>2022-05-21 18:37:57</time>
      </trkpt>
      <trkpt lat="42.40973" lon="2.54643">
        <ele>526.8</ele>
        <time>2022-05-21 18:37:58</time>
      </trkpt>
      <trkpt lat="42.40974" lon="2.54636">
        <ele>526.8</ele>
        <time>2022-05-21 18:37:59</time>
      </trkpt>
      <trkpt lat="42.40975" lon="2.54629">
        <ele>526.8</ele>
        <time>2022-05-21 18:38:00</time>
      </trkpt>
      <trkpt lat="42.40976" lon="2.54624">
        <ele>526.8</ele>
        <time>2022-05-21 18:38:01</time>
      </trkpt>
      <trkpt lat="42.40977" lon="2.54619">
        <ele>526.8</ele>
        <time>2022-05-21 18:38:02</time>
      </trkpt>
      <trkpt lat="42.4098" lon="2.54615">
        <ele>526.8</ele>
        <time>2022-05-21 18:38:03</time>
      </trkpt>
      <trkpt lat="42.40981" lon="2.54612">
        <ele>526.8</ele>
        <time>2022-05-21 18:38:04</time>
      </trkpt>
      <trkpt lat="42.40986" lon="2.54605">
        <ele>526.8</ele>
        <time>2022-05-21 18:38:05</time>
      </trkpt>
      <trkpt lat="42.40989" lon="2.54602">
        <ele>527</ele>
        <time>2022-05-21 18:38:06</time>
      </trkpt>
      <trkpt lat="42.40993" lon="2.54599">
        <ele>527</ele>
        <time>2022-05-21 18:38:07</time>
      </trkpt>
      <trkpt lat="42.40996" lon="2.54596">
        <ele>527</ele>
        <time>2022-05-21 18:38:08</time>
      </trkpt>
      <trkpt lat="42.41" lon="2.54595">
        <ele>527.2</ele>
        <time>2022-05-21 18:38:09</time>
      </trkpt>
      <trkpt lat="42.41004" lon="2.54593">
        <ele>527.2</ele>
        <time>2022-05-21 18:38:10</time>
      </trkpt>
      <trkpt lat="42.41008" lon="2.54591">
        <ele>527.2</ele>
        <time>2022-05-21 18:38:11</time>
      </trkpt>
      <trkpt lat="42.41011" lon="2.54588">
        <ele>527.4</ele>
        <time>2022-05-21 18:38:12</time>
      </trkpt>
      <trkpt lat="42.41014" lon="2.54585">
        <ele>527.6</ele>
        <time>2022-05-21 18:38:13</time>
      </trkpt>
      <trkpt lat="42.41018" lon="2.54582">
        <ele>527.6</ele>
        <time>2022-05-21 18:38:14</time>
      </trkpt>
      <trkpt lat="42.41021" lon="2.54579">
        <ele>527.8</ele>
        <time>2022-05-21 18:38:15</time>
      </trkpt>
      <trkpt lat="42.41024" lon="2.54575">
        <ele>527.8</ele>
        <time>2022-05-21 18:38:16</time>
      </trkpt>
      <trkpt lat="42.41027" lon="2.54571">
        <ele>528</ele>
        <time>2022-05-21 18:38:17</time>
      </trkpt>
      <trkpt lat="42.41029" lon="2.54567">
        <ele>528</ele>
        <time>2022-05-21 18:38:18</time>
      </trkpt>
      <trkpt lat="42.41032" lon="2.54563">
        <ele>528</ele>
        <time>2022-05-21 18:38:19</time>
      </trkpt>
      <trkpt lat="42.41034" lon="2.5456">
        <ele>528</ele>
        <time>2022-05-21 18:38:20</time>
      </trkpt>
      <trkpt lat="42.41037" lon="2.54555">
        <ele>528.2</ele>
        <time>2022-05-21 18:38:21</time>
      </trkpt>
      <trkpt lat="42.41039" lon="2.54551">
        <ele>528.2</ele>
        <time>2022-05-21 18:38:22</time>
      </trkpt>
      <trkpt lat="42.41041" lon="2.54547">
        <ele>528.2</ele>
        <time>2022-05-21 18:38:23</time>
      </trkpt>
      <trkpt lat="42.41045" lon="2.54544">
        <ele>528.2</ele>
        <time>2022-05-21 18:38:24</time>
      </trkpt>
      <trkpt lat="42.41048" lon="2.5454">
        <ele>528.4</ele>
        <time>2022-05-21 18:38:25</time>
      </trkpt>
      <trkpt lat="42.4105" lon="2.54536">
        <ele>528.4</ele>
        <time>2022-05-21 18:38:26</time>
      </trkpt>
      <trkpt lat="42.41053" lon="2.54532">
        <ele>528.4</ele>
        <time>2022-05-21 18:38:27</time>
      </trkpt>
      <trkpt lat="42.41055" lon="2.54528">
        <ele>528.4</ele>
        <time>2022-05-21 18:38:28</time>
      </trkpt>
      <trkpt lat="42.41058" lon="2.54524">
        <ele>528.6</ele>
        <time>2022-05-21 18:38:29</time>
      </trkpt>
      <trkpt lat="42.41061" lon="2.5452">
        <ele>528.6</ele>
        <time>2022-05-21 18:38:30</time>
      </trkpt>
      <trkpt lat="42.41065" lon="2.54516">
        <ele>528.6</ele>
        <time>2022-05-21 18:38:31</time>
      </trkpt>
      <trkpt lat="42.41068" lon="2.54513">
        <ele>528.6</ele>
        <time>2022-05-21 18:38:32</time>
      </trkpt>
      <trkpt lat="42.41071" lon="2.54509">
        <ele>528.8</ele>
        <time>2022-05-21 18:38:33</time>
      </trkpt>
      <trkpt lat="42.41074" lon="2.54504">
        <ele>528.8</ele>
        <time>2022-05-21 18:38:34</time>
      </trkpt>
      <trkpt lat="42.41076" lon="2.54501">
        <ele>528.8</ele>
        <time>2022-05-21 18:38:35</time>
      </trkpt>
      <trkpt lat="42.41078" lon="2.54497">
        <ele>529</ele>
        <time>2022-05-21 18:38:36</time>
      </trkpt>
      <trkpt lat="42.4108" lon="2.54492">
        <ele>529</ele>
        <time>2022-05-21 18:38:37</time>
      </trkpt>
      <trkpt lat="42.41081" lon="2.54487">
        <ele>529.2</ele>
        <time>2022-05-21 18:38:38</time>
      </trkpt>
      <trkpt lat="42.41082" lon="2.54482">
        <ele>529.2</ele>
        <time>2022-05-21 18:38:39</time>
      </trkpt>
      <trkpt lat="42.41083" lon="2.54477">
        <ele>529.2</ele>
        <time>2022-05-21 18:38:40</time>
      </trkpt>
      <trkpt lat="42.41083" lon="2.54472">
        <ele>529.4</ele>
        <time>2022-05-21 18:38:41</time>
      </trkpt>
      <trkpt lat="42.41081" lon="2.54467">
        <ele>529.4</ele>
        <time>2022-05-21 18:38:42</time>
      </trkpt>
      <trkpt lat="42.4108" lon="2.54461">
        <ele>529.4</ele>
        <time>2022-05-21 18:38:43</time>
      </trkpt>
      <trkpt lat="42.41078" lon="2.54456">
        <ele>529.6</ele>
        <time>2022-05-21 18:38:44</time>
      </trkpt>
      <trkpt lat="42.41076" lon="2.54452">
        <ele>529.6</ele>
        <time>2022-05-21 18:38:45</time>
      </trkpt>
      <trkpt lat="42.41073" lon="2.54449">
        <ele>529.6</ele>
        <time>2022-05-21 18:38:46</time>
      </trkpt>
      <trkpt lat="42.4107" lon="2.54445">
        <ele>529.6</ele>
        <time>2022-05-21 18:38:47</time>
      </trkpt>
      <trkpt lat="42.41067" lon="2.54441">
        <ele>529.6</ele>
        <time>2022-05-21 18:38:48</time>
      </trkpt>
      <trkpt lat="42.41064" lon="2.54438">
        <ele>529.6</ele>
        <time>2022-05-21 18:38:49</time>
      </trkpt>
      <trkpt lat="42.41061" lon="2.54435">
        <ele>529.6</ele>
        <time>2022-05-21 18:38:50</time>
      </trkpt>
      <trkpt lat="42.41059" lon="2.54431">
        <ele>529.8</ele>
        <time>2022-05-21 18:38:51</time>
      </trkpt>
      <trkpt lat="42.41057" lon="2.54428">
        <ele>529.8</ele>
        <time>2022-05-21 18:38:52</time>
      </trkpt>
      <trkpt lat="42.41055" lon="2.54425">
        <ele>529.8</ele>
        <time>2022-05-21 18:38:53</time>
      </trkpt>
      <trkpt lat="42.41052" lon="2.54423">
        <ele>529.8</ele>
        <time>2022-05-21 18:38:54</time>
      </trkpt>
      <trkpt lat="42.4105" lon="2.54421">
        <ele>530</ele>
        <time>2022-05-21 18:38:55</time>
      </trkpt>
      <trkpt lat="42.41047" lon="2.5442">
        <ele>530</ele>
        <time>2022-05-21 18:38:56</time>
      </trkpt>
      <trkpt lat="42.41045" lon="2.54418">
        <ele>530.2</ele>
        <time>2022-05-21 18:38:57</time>
      </trkpt>
      <trkpt lat="42.41042" lon="2.54417">
        <ele>530.2</ele>
        <time>2022-05-21 18:38:58</time>
      </trkpt>
      <trkpt lat="42.4104" lon="2.54417">
        <ele>530.4</ele>
        <time>2022-05-21 18:38:59</time>
      </trkpt>
      <trkpt lat="42.41038" lon="2.54416">
        <ele>530.4</ele>
        <time>2022-05-21 18:39:00</time>
      </trkpt>
      <trkpt lat="42.41037" lon="2.54415">
        <ele>530.6</ele>
        <time>2022-05-21 18:39:01</time>
      </trkpt>
      <trkpt lat="42.41035" lon="2.54414">
        <ele>530.6</ele>
        <time>2022-05-21 18:39:02</time>
      </trkpt>
      <trkpt lat="42.41033" lon="2.54413">
        <ele>530.8</ele>
        <time>2022-05-21 18:39:03</time>
      </trkpt>
      <trkpt lat="42.41031" lon="2.54411">
        <ele>530.8</ele>
        <time>2022-05-21 18:39:04</time>
      </trkpt>
      <trkpt lat="42.4103" lon="2.54409">
        <ele>530.8</ele>
        <time>2022-05-21 18:39:05</time>
      </trkpt>
      <trkpt lat="42.41029" lon="2.54407">
        <ele>531</ele>
        <time>2022-05-21 18:39:06</time>
      </trkpt>
      <trkpt lat="42.41028" lon="2.54404">
        <ele>531</ele>
        <time>2022-05-21 18:39:07</time>
      </trkpt>
      <trkpt lat="42.41026" lon="2.544">
        <ele>531</ele>
        <time>2022-05-21 18:39:08</time>
      </trkpt>
      <trkpt lat="42.41025" lon="2.54397">
        <ele>531.2</ele>
        <time>2022-05-21 18:39:09</time>
      </trkpt>
      <trkpt lat="42.41024" lon="2.54394">
        <ele>531.4</ele>
        <time>2022-05-21 18:39:10</time>
      </trkpt>
      <trkpt lat="42.41024" lon="2.54391">
        <ele>531.4</ele>
        <time>2022-05-21 18:39:11</time>
      </trkpt>
      <trkpt lat="42.41024" lon="2.54389">
        <ele>531.6</ele>
        <time>2022-05-21 18:39:12</time>
      </trkpt>
      <trkpt lat="42.41025" lon="2.54389">
        <ele>531.6</ele>
        <time>2022-05-21 18:39:13</time>
      </trkpt>
      <trkpt lat="42.41026" lon="2.5439">
        <ele>531.6</ele>
        <time>2022-05-21 18:39:14</time>
      </trkpt>
      <trkpt lat="42.41027" lon="2.54392">
        <ele>531.6</ele>
        <time>2022-05-21 18:39:15</time>
      </trkpt>
      <trkpt lat="42.41027" lon="2.54395">
        <ele>531.6</ele>
        <time>2022-05-21 18:39:16</time>
      </trkpt>
      <trkpt lat="42.41028" lon="2.54399">
        <ele>531.6</ele>
        <time>2022-05-21 18:39:17</time>
      </trkpt>
      <trkpt lat="42.41029" lon="2.54402">
        <ele>531.4</ele>
        <time>2022-05-21 18:39:18</time>
      </trkpt>
      <trkpt lat="42.4103" lon="2.54405">
        <ele>531.4</ele>
        <time>2022-05-21 18:39:19</time>
      </trkpt>
      <trkpt lat="42.41032" lon="2.54407">
        <ele>531.2</ele>
        <time>2022-05-21 18:39:20</time>
      </trkpt>
      <trkpt lat="42.41034" lon="2.54409">
        <ele>531</ele>
        <time>2022-05-21 18:39:21</time>
      </trkpt>
      <trkpt lat="42.41036" lon="2.54411">
        <ele>531</ele>
        <time>2022-05-21 18:39:22</time>
      </trkpt>
      <trkpt lat="42.41038" lon="2.54412">
        <ele>530.8</ele>
        <time>2022-05-21 18:39:23</time>
      </trkpt>
      <trkpt lat="42.41041" lon="2.54414">
        <ele>530.6</ele>
        <time>2022-05-21 18:39:24</time>
      </trkpt>
      <trkpt lat="42.41045" lon="2.54415">
        <ele>530.6</ele>
        <time>2022-05-21 18:39:25</time>
      </trkpt>
      <trkpt lat="42.41048" lon="2.54416">
        <ele>530.4</ele>
        <time>2022-05-21 18:39:26</time>
      </trkpt>
      <trkpt lat="42.41051" lon="2.54416">
        <ele>530.4</ele>
        <time>2022-05-21 18:39:27</time>
      </trkpt>
      <trkpt lat="42.41055" lon="2.54414">
        <ele>530.4</ele>
        <time>2022-05-21 18:39:28</time>
      </trkpt>
      <trkpt lat="42.41057" lon="2.54412">
        <ele>530.4</ele>
        <time>2022-05-21 18:39:29</time>
      </trkpt>
      <trkpt lat="42.41058" lon="2.5441">
        <ele>530.4</ele>
        <time>2022-05-21 18:39:30</time>
      </trkpt>
      <trkpt lat="42.41058" lon="2.54407">
        <ele>530.6</ele>
        <time>2022-05-21 18:39:31</time>
      </trkpt>
      <trkpt lat="42.41058" lon="2.54404">
        <ele>530.6</ele>
        <time>2022-05-21 18:39:32</time>
      </trkpt>
      <trkpt lat="42.41059" lon="2.54401">
        <ele>530.8</ele>
        <time>2022-05-21 18:39:33</time>
      </trkpt>
      <trkpt lat="42.41059" lon="2.54398">
        <ele>531</ele>
        <time>2022-05-21 18:39:34</time>
      </trkpt>
      <trkpt lat="42.4106" lon="2.54396">
        <ele>531.4</ele>
        <time>2022-05-21 18:39:35</time>
      </trkpt>
      <trkpt lat="42.4106" lon="2.54393">
        <ele>531.6</ele>
        <time>2022-05-21 18:39:36</time>
      </trkpt>
      <trkpt lat="42.4106" lon="2.54391">
        <ele>531.8</ele>
        <time>2022-05-21 18:39:37</time>
      </trkpt>
      <trkpt lat="42.41061" lon="2.54389">
        <ele>532</ele>
        <time>2022-05-21 18:39:38</time>
      </trkpt>
      <trkpt lat="42.41061" lon="2.54387">
        <ele>532.2</ele>
        <time>2022-05-21 18:39:39</time>
      </trkpt>
      <trkpt lat="42.41061" lon="2.54385">
        <ele>532.4</ele>
        <time>2022-05-21 18:39:40</time>
      </trkpt>
      <trkpt lat="42.41061" lon="2.54384">
        <ele>532.6</ele>
        <time>2022-05-21 18:39:41</time>
      </trkpt>
      <trkpt lat="42.41061" lon="2.54382">
        <ele>532.8</ele>
        <time>2022-05-21 18:39:42</time>
      </trkpt>
      <trkpt lat="42.41062" lon="2.54381">
        <ele>533</ele>
        <time>2022-05-21 18:39:43</time>
      </trkpt>
      <trkpt lat="42.41063" lon="2.5438">
        <ele>533</ele>
        <time>2022-05-21 18:39:44</time>
      </trkpt>
      <trkpt lat="42.41063" lon="2.54378">
        <ele>533.2</ele>
        <time>2022-05-21 18:39:45</time>
      </trkpt>
      <trkpt lat="42.41065" lon="2.54376">
        <ele>533.2</ele>
        <time>2022-05-21 18:39:46</time>
      </trkpt>
      <trkpt lat="42.41066" lon="2.54375">
        <ele>533.4</ele>
        <time>2022-05-21 18:39:47</time>
      </trkpt>
      <trkpt lat="42.41067" lon="2.54374">
        <ele>533.4</ele>
        <time>2022-05-21 18:39:48</time>
      </trkpt>
      <trkpt lat="42.41069" lon="2.54373">
        <ele>533.4</ele>
        <time>2022-05-21 18:39:49</time>
      </trkpt>
      <trkpt lat="42.41071" lon="2.54373">
        <ele>533.6</ele>
        <time>2022-05-21 18:39:50</time>
      </trkpt>
      <trkpt lat="42.41072" lon="2.54373">
        <ele>533.6</ele>
        <time>2022-05-21 18:39:51</time>
      </trkpt>
      <trkpt lat="42.41072" lon="2.54373">
        <ele>533.6</ele>
        <time>2022-05-21 18:39:52</time>
      </trkpt>
      <trkpt lat="42.41072" lon="2.54373">
        <ele>533.6</ele>
        <time>2022-05-21 18:39:53</time>
      </trkpt>
      <trkpt lat="42.41072" lon="2.54373">
        <ele>533.6</ele>
        <time>2022-05-21 18:39:54</time>
      </trkpt>
      <trkpt lat="42.41072" lon="2.54373">
        <ele>533.8</ele>
        <time>2022-05-21 18:39:55</time>
      </trkpt>
      <trkpt lat="42.41072" lon="2.54373">
        <ele>533.8</ele>
        <time>2022-05-21 18:39:56</time>
      </trkpt>
      <trkpt lat="42.41068" lon="2.54384">
        <ele>533.8</ele>
        <time>2022-05-21 18:40:33</time>
      </trkpt>
      <trkpt lat="42.41068" lon="2.54385">
        <ele>533.8</ele>
        <time>2022-05-21 18:40:34</time>
      </trkpt>
      <trkpt lat="42.41067" lon="2.54386">
        <ele>533.8</ele>
        <time>2022-05-21 18:40:35</time>
      </trkpt>
      <trkpt lat="42.41067" lon="2.54386">
        <ele>533.8</ele>
        <time>2022-05-21 18:40:36</time>
      </trkpt>
      <trkpt lat="42.41067" lon="2.54386">
        <ele>533.8</ele>
        <time>2022-05-21 18:40:37</time>
      </trkpt>
      <trkpt lat="42.41067" lon="2.54386">
        <ele>533.8</ele>
        <time>2022-05-21 18:40:38</time>
      </trkpt>
      <trkpt lat="42.41067" lon="2.54386">
        <ele>533.8</ele>
        <time>2022-05-21 18:40:39</time>
      </trkpt>
      <trkpt lat="42.41067" lon="2.54386">
        <ele>533.8</ele>
        <time>2022-05-21 18:40:40</time>
      </trkpt>
      <trkpt lat="42.41067" lon="2.54386">
        <ele>533.6</ele>
        <time>2022-05-21 18:40:41</time>
      </trkpt>
      <trkpt lat="42.41066" lon="2.5439">
        <ele>533.6</ele>
        <time>2022-05-21 18:40:42</time>
      </trkpt>
      <trkpt lat="42.41065" lon="2.54395">
        <ele>533.4</ele>
        <time>2022-05-21 18:40:43</time>
      </trkpt>
      <trkpt lat="42.41064" lon="2.54397">
        <ele>533.4</ele>
        <time>2022-05-21 18:40:44</time>
      </trkpt>
      <trkpt lat="42.41063" lon="2.54403">
        <ele>533</ele>
        <time>2022-05-21 18:40:45</time>
      </trkpt>
      <trkpt lat="42.41063" lon="2.54407">
        <ele>532.8</ele>
        <time>2022-05-21 18:40:46</time>
      </trkpt>
      <trkpt lat="42.41063" lon="2.54409">
        <ele>532.6</ele>
        <time>2022-05-21 18:40:47</time>
      </trkpt>
      <trkpt lat="42.41064" lon="2.54411">
        <ele>532.4</ele>
        <time>2022-05-21 18:40:48</time>
      </trkpt>
      <trkpt lat="42.41065" lon="2.54415">
        <ele>532</ele>
        <time>2022-05-21 18:40:49</time>
      </trkpt>
      <trkpt lat="42.41066" lon="2.54416">
        <ele>532</ele>
        <time>2022-05-21 18:40:50</time>
      </trkpt>
      <trkpt lat="42.41066" lon="2.54416">
        <ele>531.8</ele>
        <time>2022-05-21 18:40:51</time>
      </trkpt>
      <trkpt lat="42.41066" lon="2.54416">
        <ele>531.8</ele>
        <time>2022-05-21 18:40:52</time>
      </trkpt>
      <trkpt lat="42.41066" lon="2.54416">
        <ele>531.6</ele>
        <time>2022-05-21 18:40:53</time>
      </trkpt>
      <trkpt lat="42.41066" lon="2.54416">
        <ele>531.6</ele>
        <time>2022-05-21 18:40:54</time>
      </trkpt>
      <trkpt lat="42.41066" lon="2.54416">
        <ele>531.6</ele>
        <time>2022-05-21 18:40:55</time>
      </trkpt>
      <trkpt lat="42.41066" lon="2.54416">
        <ele>531.6</ele>
        <time>2022-05-21 18:40:56</time>
      </trkpt>
      <trkpt lat="42.41056" lon="2.54422">
        <ele>531.4</ele>
        <time>2022-05-21 18:45:14</time>
      </trkpt>
      <trkpt lat="42.41055" lon="2.54421">
        <ele>531.4</ele>
        <time>2022-05-21 18:45:15</time>
      </trkpt>
      <trkpt lat="42.41053" lon="2.54421">
        <ele>531.4</ele>
        <time>2022-05-21 18:45:16</time>
      </trkpt>
      <trkpt lat="42.4105" lon="2.54419">
        <ele>531.4</ele>
        <time>2022-05-21 18:45:17</time>
      </trkpt>
      <trkpt lat="42.41047" lon="2.54418">
        <ele>531.4</ele>
        <time>2022-05-21 18:45:18</time>
      </trkpt>
      <trkpt lat="42.41044" lon="2.54416">
        <ele>531.6</ele>
        <time>2022-05-21 18:45:19</time>
      </trkpt>
      <trkpt lat="42.41042" lon="2.54415">
        <ele>531.6</ele>
        <time>2022-05-21 18:45:20</time>
      </trkpt>
      <trkpt lat="42.41039" lon="2.54414">
        <ele>531.6</ele>
        <time>2022-05-21 18:45:21</time>
      </trkpt>
      <trkpt lat="42.41036" lon="2.54413">
        <ele>531.6</ele>
        <time>2022-05-21 18:45:22</time>
      </trkpt>
      <trkpt lat="42.41033" lon="2.5441">
        <ele>531.8</ele>
        <time>2022-05-21 18:45:23</time>
      </trkpt>
      <trkpt lat="42.41031" lon="2.54407">
        <ele>531.8</ele>
        <time>2022-05-21 18:45:24</time>
      </trkpt>
      <trkpt lat="42.41029" lon="2.54404">
        <ele>532</ele>
        <time>2022-05-21 18:45:25</time>
      </trkpt>
      <trkpt lat="42.41028" lon="2.544">
        <ele>532</ele>
        <time>2022-05-21 18:45:26</time>
      </trkpt>
      <trkpt lat="42.41028" lon="2.54396">
        <ele>532.2</ele>
        <time>2022-05-21 18:45:27</time>
      </trkpt>
      <trkpt lat="42.41028" lon="2.54392">
        <ele>532.2</ele>
        <time>2022-05-21 18:45:28</time>
      </trkpt>
      <trkpt lat="42.41027" lon="2.54388">
        <ele>532.4</ele>
        <time>2022-05-21 18:45:29</time>
      </trkpt>
      <trkpt lat="42.41027" lon="2.54385">
        <ele>532.6</ele>
        <time>2022-05-21 18:45:30</time>
      </trkpt>
      <trkpt lat="42.41026" lon="2.5438">
        <ele>532.8</ele>
        <time>2022-05-21 18:45:31</time>
      </trkpt>
      <trkpt lat="42.41025" lon="2.54376">
        <ele>532.8</ele>
        <time>2022-05-21 18:45:32</time>
      </trkpt>
      <trkpt lat="42.41025" lon="2.54372">
        <ele>533</ele>
        <time>2022-05-21 18:45:33</time>
      </trkpt>
      <trkpt lat="42.41025" lon="2.54368">
        <ele>533.2</ele>
        <time>2022-05-21 18:45:34</time>
      </trkpt>
      <trkpt lat="42.41025" lon="2.54363">
        <ele>533.4</ele>
        <time>2022-05-21 18:45:35</time>
      </trkpt>
      <trkpt lat="42.41025" lon="2.54359">
        <ele>533.4</ele>
        <time>2022-05-21 18:45:36</time>
      </trkpt>
      <trkpt lat="42.41025" lon="2.54355">
        <ele>533.6</ele>
        <time>2022-05-21 18:45:37</time>
      </trkpt>
      <trkpt lat="42.41026" lon="2.54351">
        <ele>533.8</ele>
        <time>2022-05-21 18:45:38</time>
      </trkpt>
      <trkpt lat="42.41026" lon="2.54347">
        <ele>534</ele>
        <time>2022-05-21 18:45:39</time>
      </trkpt>
      <trkpt lat="42.41026" lon="2.54342">
        <ele>534.2</ele>
        <time>2022-05-21 18:45:40</time>
      </trkpt>
      <trkpt lat="42.41027" lon="2.54338">
        <ele>534.2</ele>
        <time>2022-05-21 18:45:41</time>
      </trkpt>
      <trkpt lat="42.41027" lon="2.54334">
        <ele>534.4</ele>
        <time>2022-05-21 18:45:42</time>
      </trkpt>
      <trkpt lat="42.41028" lon="2.5433">
        <ele>534.6</ele>
        <time>2022-05-21 18:45:43</time>
      </trkpt>
      <trkpt lat="42.41028" lon="2.54326">
        <ele>534.8</ele>
        <time>2022-05-21 18:45:44</time>
      </trkpt>
      <trkpt lat="42.41028" lon="2.54321">
        <ele>535</ele>
        <time>2022-05-21 18:45:45</time>
      </trkpt>
      <trkpt lat="42.41027" lon="2.54318">
        <ele>535</ele>
        <time>2022-05-21 18:45:46</time>
      </trkpt>
      <trkpt lat="42.41027" lon="2.54314">
        <ele>535.2</ele>
        <time>2022-05-21 18:45:47</time>
      </trkpt>
      <trkpt lat="42.41027" lon="2.54311">
        <ele>535.4</ele>
        <time>2022-05-21 18:45:48</time>
      </trkpt>
      <trkpt lat="42.41026" lon="2.54308">
        <ele>535.6</ele>
        <time>2022-05-21 18:45:49</time>
      </trkpt>
      <trkpt lat="42.41026" lon="2.54305">
        <ele>535.6</ele>
        <time>2022-05-21 18:45:50</time>
      </trkpt>
      <trkpt lat="42.41025" lon="2.54301">
        <ele>535.8</ele>
        <time>2022-05-21 18:45:51</time>
      </trkpt>
      <trkpt lat="42.41025" lon="2.54298">
        <ele>536</ele>
        <time>2022-05-21 18:45:52</time>
      </trkpt>
      <trkpt lat="42.41023" lon="2.54295">
        <ele>536</ele>
        <time>2022-05-21 18:45:53</time>
      </trkpt>
      <trkpt lat="42.41023" lon="2.54292">
        <ele>536.2</ele>
        <time>2022-05-21 18:45:54</time>
      </trkpt>
      <trkpt lat="42.41022" lon="2.54289">
        <ele>536.4</ele>
        <time>2022-05-21 18:45:55</time>
      </trkpt>
      <trkpt lat="42.41021" lon="2.54285">
        <ele>536.4</ele>
        <time>2022-05-21 18:45:56</time>
      </trkpt>
      <trkpt lat="42.4102" lon="2.54282">
        <ele>536.6</ele>
        <time>2022-05-21 18:45:57</time>
      </trkpt>
      <trkpt lat="42.4102" lon="2.54279">
        <ele>536.6</ele>
        <time>2022-05-21 18:45:58</time>
      </trkpt>
      <trkpt lat="42.41019" lon="2.54276">
        <ele>536.8</ele>
        <time>2022-05-21 18:45:59</time>
      </trkpt>
      <trkpt lat="42.41018" lon="2.54273">
        <ele>537</ele>
        <time>2022-05-21 18:46:00</time>
      </trkpt>
      <trkpt lat="42.41017" lon="2.5427">
        <ele>537</ele>
        <time>2022-05-21 18:46:01</time>
      </trkpt>
      <trkpt lat="42.41016" lon="2.54267">
        <ele>537.2</ele>
        <time>2022-05-21 18:46:02</time>
      </trkpt>
      <trkpt lat="42.41015" lon="2.54264">
        <ele>537.4</ele>
        <time>2022-05-21 18:46:03</time>
      </trkpt>
      <trkpt lat="42.41015" lon="2.54261">
        <ele>537.4</ele>
        <time>2022-05-21 18:46:04</time>
      </trkpt>
      <trkpt lat="42.41014" lon="2.54257">
        <ele>537.6</ele>
        <time>2022-05-21 18:46:05</time>
      </trkpt>
      <trkpt lat="42.41013" lon="2.54254">
        <ele>537.6</ele>
        <time>2022-05-21 18:46:06</time>
      </trkpt>
      <trkpt lat="42.41012" lon="2.54251">
        <ele>537.8</ele>
        <time>2022-05-21 18:46:07</time>
      </trkpt>
      <trkpt lat="42.41012" lon="2.54248">
        <ele>538</ele>
        <time>2022-05-21 18:46:08</time>
      </trkpt>
      <trkpt lat="42.41011" lon="2.54245">
        <ele>538</ele>
        <time>2022-05-21 18:46:09</time>
      </trkpt>
      <trkpt lat="42.4101" lon="2.54242">
        <ele>538.2</ele>
        <time>2022-05-21 18:46:10</time>
      </trkpt>
      <trkpt lat="42.41008" lon="2.54239">
        <ele>538.4</ele>
        <time>2022-05-21 18:46:11</time>
      </trkpt>
      <trkpt lat="42.41007" lon="2.54236">
        <ele>538.4</ele>
        <time>2022-05-21 18:46:12</time>
      </trkpt>
      <trkpt lat="42.41007" lon="2.54233">
        <ele>538.6</ele>
        <time>2022-05-21 18:46:13</time>
      </trkpt>
      <trkpt lat="42.41006" lon="2.5423">
        <ele>538.8</ele>
        <time>2022-05-21 18:46:14</time>
      </trkpt>
      <trkpt lat="42.41005" lon="2.54228">
        <ele>539</ele>
        <time>2022-05-21 18:46:15</time>
      </trkpt>
      <trkpt lat="42.41004" lon="2.54225">
        <ele>539</ele>
        <time>2022-05-21 18:46:16</time>
      </trkpt>
      <trkpt lat="42.41003" lon="2.54222">
        <ele>539.2</ele>
        <time>2022-05-21 18:46:17</time>
      </trkpt>
      <trkpt lat="42.41001" lon="2.5422">
        <ele>539.2</ele>
        <time>2022-05-21 18:46:18</time>
      </trkpt>
      <trkpt lat="42.40999" lon="2.54217">
        <ele>539.2</ele>
        <time>2022-05-21 18:46:19</time>
      </trkpt>
      <trkpt lat="42.40998" lon="2.54215">
        <ele>539.4</ele>
        <time>2022-05-21 18:46:20</time>
      </trkpt>
      <trkpt lat="42.40996" lon="2.54213">
        <ele>539.6</ele>
        <time>2022-05-21 18:46:21</time>
      </trkpt>
      <trkpt lat="42.40994" lon="2.54211">
        <ele>539.8</ele>
        <time>2022-05-21 18:46:22</time>
      </trkpt>
      <trkpt lat="42.40993" lon="2.54208">
        <ele>539.8</ele>
        <time>2022-05-21 18:46:23</time>
      </trkpt>
      <trkpt lat="42.40991" lon="2.54204">
        <ele>540</ele>
        <time>2022-05-21 18:46:24</time>
      </trkpt>
      <trkpt lat="42.4099" lon="2.54201">
        <ele>540</ele>
        <time>2022-05-21 18:46:25</time>
      </trkpt>
      <trkpt lat="42.40989" lon="2.54198">
        <ele>540.2</ele>
        <time>2022-05-21 18:46:26</time>
      </trkpt>
      <trkpt lat="42.40988" lon="2.54196">
        <ele>540.4</ele>
        <time>2022-05-21 18:46:27</time>
      </trkpt>
      <trkpt lat="42.40986" lon="2.54192">
        <ele>540.4</ele>
        <time>2022-05-21 18:46:28</time>
      </trkpt>
      <trkpt lat="42.40985" lon="2.54189">
        <ele>540.6</ele>
        <time>2022-05-21 18:46:29</time>
      </trkpt>
      <trkpt lat="42.40984" lon="2.54185">
        <ele>540.6</ele>
        <time>2022-05-21 18:46:30</time>
      </trkpt>
      <trkpt lat="42.40983" lon="2.54182">
        <ele>540.8</ele>
        <time>2022-05-21 18:46:31</time>
      </trkpt>
      <trkpt lat="42.40982" lon="2.54179">
        <ele>541</ele>
        <time>2022-05-21 18:46:32</time>
      </trkpt>
      <trkpt lat="42.4098" lon="2.54176">
        <ele>541</ele>
        <time>2022-05-21 18:46:33</time>
      </trkpt>
      <trkpt lat="42.40979" lon="2.54173">
        <ele>541.2</ele>
        <time>2022-05-21 18:46:34</time>
      </trkpt>
      <trkpt lat="42.40978" lon="2.5417">
        <ele>541.2</ele>
        <time>2022-05-21 18:46:35</time>
      </trkpt>
      <trkpt lat="42.40977" lon="2.54167">
        <ele>541.4</ele>
        <time>2022-05-21 18:46:36</time>
      </trkpt>
      <trkpt lat="42.40977" lon="2.54164">
        <ele>541.4</ele>
        <time>2022-05-21 18:46:37</time>
      </trkpt>
      <trkpt lat="42.40976" lon="2.54161">
        <ele>541.6</ele>
        <time>2022-05-21 18:46:38</time>
      </trkpt>
      <trkpt lat="42.40974" lon="2.54158">
        <ele>541.8</ele>
        <time>2022-05-21 18:46:39</time>
      </trkpt>
      <trkpt lat="42.40973" lon="2.54155">
        <ele>541.8</ele>
        <time>2022-05-21 18:46:40</time>
      </trkpt>
      <trkpt lat="42.40973" lon="2.54152">
        <ele>542</ele>
        <time>2022-05-21 18:46:41</time>
      </trkpt>
      <trkpt lat="42.40972" lon="2.5415">
        <ele>542</ele>
        <time>2022-05-21 18:46:42</time>
      </trkpt>
      <trkpt lat="42.40971" lon="2.54147">
        <ele>542.2</ele>
        <time>2022-05-21 18:46:43</time>
      </trkpt>
      <trkpt lat="42.4097" lon="2.54144">
        <ele>542.4</ele>
        <time>2022-05-21 18:46:44</time>
      </trkpt>
      <trkpt lat="42.40969" lon="2.54141">
        <ele>542.4</ele>
        <time>2022-05-21 18:46:45</time>
      </trkpt>
      <trkpt lat="42.40967" lon="2.54139">
        <ele>542.6</ele>
        <time>2022-05-21 18:46:46</time>
      </trkpt>
      <trkpt lat="42.40966" lon="2.54136">
        <ele>542.6</ele>
        <time>2022-05-21 18:46:47</time>
      </trkpt>
      <trkpt lat="42.40965" lon="2.54134">
        <ele>542.8</ele>
        <time>2022-05-21 18:46:48</time>
      </trkpt>
      <trkpt lat="42.40964" lon="2.54131">
        <ele>543</ele>
        <time>2022-05-21 18:46:49</time>
      </trkpt>
      <trkpt lat="42.40963" lon="2.54129">
        <ele>543</ele>
        <time>2022-05-21 18:46:50</time>
      </trkpt>
      <trkpt lat="42.40962" lon="2.54126">
        <ele>543.2</ele>
        <time>2022-05-21 18:46:51</time>
      </trkpt>
      <trkpt lat="42.40961" lon="2.54123">
        <ele>543.4</ele>
        <time>2022-05-21 18:46:52</time>
      </trkpt>
      <trkpt lat="42.40959" lon="2.54121">
        <ele>543.4</ele>
        <time>2022-05-21 18:46:53</time>
      </trkpt>
      <trkpt lat="42.40957" lon="2.54119">
        <ele>543.6</ele>
        <time>2022-05-21 18:46:54</time>
      </trkpt>
      <trkpt lat="42.40956" lon="2.54116">
        <ele>543.6</ele>
        <time>2022-05-21 18:46:55</time>
      </trkpt>
      <trkpt lat="42.40955" lon="2.54113">
        <ele>543.8</ele>
        <time>2022-05-21 18:46:56</time>
      </trkpt>
      <trkpt lat="42.40953" lon="2.54111">
        <ele>543.8</ele>
        <time>2022-05-21 18:46:57</time>
      </trkpt>
      <trkpt lat="42.40951" lon="2.54108">
        <ele>544</ele>
        <time>2022-05-21 18:46:58</time>
      </trkpt>
      <trkpt lat="42.40949" lon="2.54105">
        <ele>544</ele>
        <time>2022-05-21 18:46:59</time>
      </trkpt>
      <trkpt lat="42.40948" lon="2.54102">
        <ele>544.2</ele>
        <time>2022-05-21 18:47:00</time>
      </trkpt>
      <trkpt lat="42.40946" lon="2.54099">
        <ele>544.2</ele>
        <time>2022-05-21 18:47:01</time>
      </trkpt>
      <trkpt lat="42.40944" lon="2.54096">
        <ele>544.4</ele>
        <time>2022-05-21 18:47:02</time>
      </trkpt>
      <trkpt lat="42.40943" lon="2.54094">
        <ele>544.6</ele>
        <time>2022-05-21 18:47:03</time>
      </trkpt>
      <trkpt lat="42.40941" lon="2.54091">
        <ele>544.6</ele>
        <time>2022-05-21 18:47:04</time>
      </trkpt>
      <trkpt lat="42.40939" lon="2.54089">
        <ele>544.8</ele>
        <time>2022-05-21 18:47:05</time>
      </trkpt>
      <trkpt lat="42.40937" lon="2.54086">
        <ele>544.8</ele>
        <time>2022-05-21 18:47:06</time>
      </trkpt>
      <trkpt lat="42.40935" lon="2.54084">
        <ele>545</ele>
        <time>2022-05-21 18:47:07</time>
      </trkpt>
      <trkpt lat="42.40933" lon="2.54082">
        <ele>545</ele>
        <time>2022-05-21 18:47:08</time>
      </trkpt>
      <trkpt lat="42.40931" lon="2.54079">
        <ele>545.2</ele>
        <time>2022-05-21 18:47:09</time>
      </trkpt>
      <trkpt lat="42.40929" lon="2.54077">
        <ele>545.2</ele>
        <time>2022-05-21 18:47:10</time>
      </trkpt>
      <trkpt lat="42.40927" lon="2.54075">
        <ele>545.4</ele>
        <time>2022-05-21 18:47:11</time>
      </trkpt>
      <trkpt lat="42.40925" lon="2.54073">
        <ele>545.4</ele>
        <time>2022-05-21 18:47:12</time>
      </trkpt>
      <trkpt lat="42.40923" lon="2.54071">
        <ele>545.6</ele>
        <time>2022-05-21 18:47:13</time>
      </trkpt>
      <trkpt lat="42.40921" lon="2.54068">
        <ele>545.6</ele>
        <time>2022-05-21 18:47:14</time>
      </trkpt>
      <trkpt lat="42.40919" lon="2.54066">
        <ele>545.8</ele>
        <time>2022-05-21 18:47:15</time>
      </trkpt>
      <trkpt lat="42.40917" lon="2.54064">
        <ele>545.8</ele>
        <time>2022-05-21 18:47:16</time>
      </trkpt>
      <trkpt lat="42.40915" lon="2.54061">
        <ele>546</ele>
        <time>2022-05-21 18:47:17</time>
      </trkpt>
      <trkpt lat="42.40912" lon="2.54059">
        <ele>546</ele>
        <time>2022-05-21 18:47:18</time>
      </trkpt>
      <trkpt lat="42.4091" lon="2.54057">
        <ele>546.2</ele>
        <time>2022-05-21 18:47:19</time>
      </trkpt>
      <trkpt lat="42.40908" lon="2.54054">
        <ele>546.2</ele>
        <time>2022-05-21 18:47:20</time>
      </trkpt>
      <trkpt lat="42.40906" lon="2.54052">
        <ele>546.4</ele>
        <time>2022-05-21 18:47:21</time>
      </trkpt>
      <trkpt lat="42.40904" lon="2.5405">
        <ele>546.4</ele>
        <time>2022-05-21 18:47:22</time>
      </trkpt>
      <trkpt lat="42.40902" lon="2.54048">
        <ele>546.6</ele>
        <time>2022-05-21 18:47:23</time>
      </trkpt>
      <trkpt lat="42.409" lon="2.54046">
        <ele>546.6</ele>
        <time>2022-05-21 18:47:24</time>
      </trkpt>
      <trkpt lat="42.40898" lon="2.54044">
        <ele>546.6</ele>
        <time>2022-05-21 18:47:25</time>
      </trkpt>
      <trkpt lat="42.40896" lon="2.54042">
        <ele>546.8</ele>
        <time>2022-05-21 18:47:26</time>
      </trkpt>
      <trkpt lat="42.40893" lon="2.5404">
        <ele>546.8</ele>
        <time>2022-05-21 18:47:27</time>
      </trkpt>
      <trkpt lat="42.40891" lon="2.54038">
        <ele>547</ele>
        <time>2022-05-21 18:47:28</time>
      </trkpt>
      <trkpt lat="42.40889" lon="2.54036">
        <ele>547</ele>
        <time>2022-05-21 18:47:29</time>
      </trkpt>
      <trkpt lat="42.40887" lon="2.54033">
        <ele>547.2</ele>
        <time>2022-05-21 18:47:30</time>
      </trkpt>
      <trkpt lat="42.40885" lon="2.54032">
        <ele>547.2</ele>
        <time>2022-05-21 18:47:31</time>
      </trkpt>
      <trkpt lat="42.40883" lon="2.5403">
        <ele>547.4</ele>
        <time>2022-05-21 18:47:32</time>
      </trkpt>
      <trkpt lat="42.4088" lon="2.54029">
        <ele>547.6</ele>
        <time>2022-05-21 18:47:33</time>
      </trkpt>
      <trkpt lat="42.40878" lon="2.54027">
        <ele>547.6</ele>
        <time>2022-05-21 18:47:34</time>
      </trkpt>
      <trkpt lat="42.40875" lon="2.54024">
        <ele>547.8</ele>
        <time>2022-05-21 18:47:35</time>
      </trkpt>
      <trkpt lat="42.40873" lon="2.54022">
        <ele>547.8</ele>
        <time>2022-05-21 18:47:36</time>
      </trkpt>
      <trkpt lat="42.40871" lon="2.5402">
        <ele>548</ele>
        <time>2022-05-21 18:47:37</time>
      </trkpt>
      <trkpt lat="42.40869" lon="2.54018">
        <ele>548.2</ele>
        <time>2022-05-21 18:47:38</time>
      </trkpt>
      <trkpt lat="42.40867" lon="2.54017">
        <ele>548.2</ele>
        <time>2022-05-21 18:47:39</time>
      </trkpt>
      <trkpt lat="42.40865" lon="2.54015">
        <ele>548.4</ele>
        <time>2022-05-21 18:47:40</time>
      </trkpt>
      <trkpt lat="42.40863" lon="2.54013">
        <ele>548.4</ele>
        <time>2022-05-21 18:47:41</time>
      </trkpt>
      <trkpt lat="42.40861" lon="2.54011">
        <ele>548.6</ele>
        <time>2022-05-21 18:47:42</time>
      </trkpt>
      <trkpt lat="42.40859" lon="2.54009">
        <ele>548.6</ele>
        <time>2022-05-21 18:47:43</time>
      </trkpt>
      <trkpt lat="42.40857" lon="2.54009">
        <ele>548.8</ele>
        <time>2022-05-21 18:47:44</time>
      </trkpt>
      <trkpt lat="42.40854" lon="2.54008">
        <ele>549</ele>
        <time>2022-05-21 18:47:45</time>
      </trkpt>
      <trkpt lat="42.40852" lon="2.54007">
        <ele>549</ele>
        <time>2022-05-21 18:47:46</time>
      </trkpt>
      <trkpt lat="42.40849" lon="2.54005">
        <ele>549.2</ele>
        <time>2022-05-21 18:47:47</time>
      </trkpt>
      <trkpt lat="42.40847" lon="2.54004">
        <ele>549.2</ele>
        <time>2022-05-21 18:47:48</time>
      </trkpt>
      <trkpt lat="42.40845" lon="2.54002">
        <ele>549.4</ele>
        <time>2022-05-21 18:47:49</time>
      </trkpt>
      <trkpt lat="42.40843" lon="2.54">
        <ele>549.6</ele>
        <time>2022-05-21 18:47:50</time>
      </trkpt>
      <trkpt lat="42.4084" lon="2.53998">
        <ele>549.6</ele>
        <time>2022-05-21 18:47:51</time>
      </trkpt>
      <trkpt lat="42.40838" lon="2.53997">
        <ele>549.8</ele>
        <time>2022-05-21 18:47:52</time>
      </trkpt>
      <trkpt lat="42.40835" lon="2.53996">
        <ele>550</ele>
        <time>2022-05-21 18:47:53</time>
      </trkpt>
      <trkpt lat="42.40833" lon="2.53994">
        <ele>550</ele>
        <time>2022-05-21 18:47:54</time>
      </trkpt>
      <trkpt lat="42.40831" lon="2.53993">
        <ele>550.2</ele>
        <time>2022-05-21 18:47:55</time>
      </trkpt>
      <trkpt lat="42.40829" lon="2.53991">
        <ele>550.2</ele>
        <time>2022-05-21 18:47:56</time>
      </trkpt>
      <trkpt lat="42.40827" lon="2.5399">
        <ele>550.2</ele>
        <time>2022-05-21 18:47:57</time>
      </trkpt>
      <trkpt lat="42.40825" lon="2.53988">
        <ele>550.2</ele>
        <time>2022-05-21 18:47:58</time>
      </trkpt>
      <trkpt lat="42.40822" lon="2.53986">
        <ele>550.2</ele>
        <time>2022-05-21 18:47:59</time>
      </trkpt>
      <trkpt lat="42.4082" lon="2.53985">
        <ele>550.2</ele>
        <time>2022-05-21 18:48:00</time>
      </trkpt>
      <trkpt lat="42.40818" lon="2.53983">
        <ele>550.2</ele>
        <time>2022-05-21 18:48:01</time>
      </trkpt>
      <trkpt lat="42.40816" lon="2.53981">
        <ele>550.4</ele>
        <time>2022-05-21 18:48:02</time>
      </trkpt>
      <trkpt lat="42.40815" lon="2.53979">
        <ele>550.4</ele>
        <time>2022-05-21 18:48:03</time>
      </trkpt>
      <trkpt lat="42.40813" lon="2.53977">
        <ele>550.4</ele>
        <time>2022-05-21 18:48:04</time>
      </trkpt>
      <trkpt lat="42.40811" lon="2.53975">
        <ele>550.4</ele>
        <time>2022-05-21 18:48:05</time>
      </trkpt>
      <trkpt lat="42.40809" lon="2.53972">
        <ele>550.6</ele>
        <time>2022-05-21 18:48:06</time>
      </trkpt>
      <trkpt lat="42.40807" lon="2.5397">
        <ele>550.6</ele>
        <time>2022-05-21 18:48:07</time>
      </trkpt>
      <trkpt lat="42.40805" lon="2.53968">
        <ele>550.8</ele>
        <time>2022-05-21 18:48:08</time>
      </trkpt>
      <trkpt lat="42.40803" lon="2.53966">
        <ele>550.8</ele>
        <time>2022-05-21 18:48:09</time>
      </trkpt>
      <trkpt lat="42.40801" lon="2.53964">
        <ele>550.8</ele>
        <time>2022-05-21 18:48:10</time>
      </trkpt>
      <trkpt lat="42.40799" lon="2.53962">
        <ele>550.8</ele>
        <time>2022-05-21 18:48:11</time>
      </trkpt>
      <trkpt lat="42.40797" lon="2.53959">
        <ele>551</ele>
        <time>2022-05-21 18:48:12</time>
      </trkpt>
      <trkpt lat="42.40795" lon="2.53957">
        <ele>551.2</ele>
        <time>2022-05-21 18:48:13</time>
      </trkpt>
      <trkpt lat="42.40793" lon="2.53954">
        <ele>551.4</ele>
        <time>2022-05-21 18:48:14</time>
      </trkpt>
      <trkpt lat="42.40791" lon="2.53951">
        <ele>551.6</ele>
        <time>2022-05-21 18:48:15</time>
      </trkpt>
      <trkpt lat="42.40789" lon="2.53949">
        <ele>551.8</ele>
        <time>2022-05-21 18:48:16</time>
      </trkpt>
      <trkpt lat="42.40787" lon="2.53946">
        <ele>551.8</ele>
        <time>2022-05-21 18:48:17</time>
      </trkpt>
      <trkpt lat="42.40786" lon="2.53942">
        <ele>552</ele>
        <time>2022-05-21 18:48:18</time>
      </trkpt>
      <trkpt lat="42.40784" lon="2.53939">
        <ele>552</ele>
        <time>2022-05-21 18:48:19</time>
      </trkpt>
      <trkpt lat="42.40783" lon="2.53936">
        <ele>552.2</ele>
        <time>2022-05-21 18:48:20</time>
      </trkpt>
      <trkpt lat="42.40782" lon="2.53933">
        <ele>552.4</ele>
        <time>2022-05-21 18:48:21</time>
      </trkpt>
      <trkpt lat="42.40781" lon="2.53929">
        <ele>552.4</ele>
        <time>2022-05-21 18:48:22</time>
      </trkpt>
      <trkpt lat="42.4078" lon="2.53926">
        <ele>552.6</ele>
        <time>2022-05-21 18:48:23</time>
      </trkpt>
      <trkpt lat="42.4078" lon="2.53923">
        <ele>552.8</ele>
        <time>2022-05-21 18:48:24</time>
      </trkpt>
      <trkpt lat="42.40779" lon="2.53919">
        <ele>553</ele>
        <time>2022-05-21 18:48:25</time>
      </trkpt>
      <trkpt lat="42.40779" lon="2.53916">
        <ele>553.2</ele>
        <time>2022-05-21 18:48:26</time>
      </trkpt>
      <trkpt lat="42.40778" lon="2.53913">
        <ele>553.2</ele>
        <time>2022-05-21 18:48:27</time>
      </trkpt>
      <trkpt lat="42.40778" lon="2.53909">
        <ele>553.4</ele>
        <time>2022-05-21 18:48:28</time>
      </trkpt>
      <trkpt lat="42.40778" lon="2.53906">
        <ele>553.6</ele>
        <time>2022-05-21 18:48:29</time>
      </trkpt>
      <trkpt lat="42.40778" lon="2.53903">
        <ele>553.8</ele>
        <time>2022-05-21 18:48:30</time>
      </trkpt>
      <trkpt lat="42.40778" lon="2.53899">
        <ele>554</ele>
        <time>2022-05-21 18:48:31</time>
      </trkpt>
      <trkpt lat="42.40778" lon="2.53896">
        <ele>554.2</ele>
        <time>2022-05-21 18:48:32</time>
      </trkpt>
      <trkpt lat="42.40779" lon="2.53893">
        <ele>554.4</ele>
        <time>2022-05-21 18:48:33</time>
      </trkpt>
      <trkpt lat="42.40779" lon="2.53889">
        <ele>554.4</ele>
        <time>2022-05-21 18:48:34</time>
      </trkpt>
      <trkpt lat="42.40779" lon="2.53886">
        <ele>554.6</ele>
        <time>2022-05-21 18:48:35</time>
      </trkpt>
      <trkpt lat="42.40779" lon="2.53883">
        <ele>554.8</ele>
        <time>2022-05-21 18:48:36</time>
      </trkpt>
      <trkpt lat="42.40779" lon="2.53879">
        <ele>554.8</ele>
        <time>2022-05-21 18:48:37</time>
      </trkpt>
      <trkpt lat="42.40779" lon="2.53876">
        <ele>555</ele>
        <time>2022-05-21 18:48:38</time>
      </trkpt>
      <trkpt lat="42.40778" lon="2.53872">
        <ele>555</ele>
        <time>2022-05-21 18:48:39</time>
      </trkpt>
      <trkpt lat="42.40777" lon="2.53868">
        <ele>555.2</ele>
        <time>2022-05-21 18:48:40</time>
      </trkpt>
      <trkpt lat="42.40776" lon="2.53865">
        <ele>555.2</ele>
        <time>2022-05-21 18:48:41</time>
      </trkpt>
      <trkpt lat="42.40774" lon="2.53861">
        <ele>555.4</ele>
        <time>2022-05-21 18:48:42</time>
      </trkpt>
      <trkpt lat="42.40773" lon="2.53858">
        <ele>555.4</ele>
        <time>2022-05-21 18:48:43</time>
      </trkpt>
      <trkpt lat="42.40772" lon="2.53855">
        <ele>555.4</ele>
        <time>2022-05-21 18:48:44</time>
      </trkpt>
      <trkpt lat="42.4077" lon="2.53852">
        <ele>555.4</ele>
        <time>2022-05-21 18:48:45</time>
      </trkpt>
      <trkpt lat="42.40768" lon="2.53849">
        <ele>555.6</ele>
        <time>2022-05-21 18:48:46</time>
      </trkpt>
      <trkpt lat="42.40767" lon="2.53846">
        <ele>555.6</ele>
        <time>2022-05-21 18:48:47</time>
      </trkpt>
      <trkpt lat="42.40765" lon="2.53843">
        <ele>555.6</ele>
        <time>2022-05-21 18:48:48</time>
      </trkpt>
      <trkpt lat="42.40764" lon="2.53841">
        <ele>555.6</ele>
        <time>2022-05-21 18:48:49</time>
      </trkpt>
      <trkpt lat="42.40763" lon="2.53838">
        <ele>555.8</ele>
        <time>2022-05-21 18:48:50</time>
      </trkpt>
      <trkpt lat="42.40761" lon="2.53835">
        <ele>555.8</ele>
        <time>2022-05-21 18:48:51</time>
      </trkpt>
      <trkpt lat="42.4076" lon="2.53832">
        <ele>555.8</ele>
        <time>2022-05-21 18:48:52</time>
      </trkpt>
      <trkpt lat="42.40758" lon="2.53829">
        <ele>556</ele>
        <time>2022-05-21 18:48:53</time>
      </trkpt>
      <trkpt lat="42.40756" lon="2.53826">
        <ele>556</ele>
        <time>2022-05-21 18:48:54</time>
      </trkpt>
      <trkpt lat="42.40755" lon="2.53824">
        <ele>556</ele>
        <time>2022-05-21 18:48:55</time>
      </trkpt>
      <trkpt lat="42.40753" lon="2.53821">
        <ele>556.2</ele>
        <time>2022-05-21 18:48:56</time>
      </trkpt>
      <trkpt lat="42.40751" lon="2.53818">
        <ele>556.2</ele>
        <time>2022-05-21 18:48:57</time>
      </trkpt>
      <trkpt lat="42.40749" lon="2.53816">
        <ele>556.4</ele>
        <time>2022-05-21 18:48:58</time>
      </trkpt>
      <trkpt lat="42.40748" lon="2.53813">
        <ele>556.4</ele>
        <time>2022-05-21 18:48:59</time>
      </trkpt>
      <trkpt lat="42.40746" lon="2.53811">
        <ele>556.6</ele>
        <time>2022-05-21 18:49:00</time>
      </trkpt>
      <trkpt lat="42.40744" lon="2.53809">
        <ele>556.8</ele>
        <time>2022-05-21 18:49:01</time>
      </trkpt>
      <trkpt lat="42.40742" lon="2.53806">
        <ele>556.8</ele>
        <time>2022-05-21 18:49:02</time>
      </trkpt>
      <trkpt lat="42.4074" lon="2.53804">
        <ele>557</ele>
        <time>2022-05-21 18:49:03</time>
      </trkpt>
      <trkpt lat="42.40738" lon="2.53801">
        <ele>557.2</ele>
        <time>2022-05-21 18:49:04</time>
      </trkpt>
      <trkpt lat="42.40735" lon="2.53798">
        <ele>557.2</ele>
        <time>2022-05-21 18:49:05</time>
      </trkpt>
      <trkpt lat="42.40733" lon="2.53795">
        <ele>557.4</ele>
        <time>2022-05-21 18:49:06</time>
      </trkpt>
      <trkpt lat="42.40731" lon="2.53794">
        <ele>557.4</ele>
        <time>2022-05-21 18:49:07</time>
      </trkpt>
      <trkpt lat="42.40729" lon="2.53792">
        <ele>557.6</ele>
        <time>2022-05-21 18:49:08</time>
      </trkpt>
      <trkpt lat="42.40726" lon="2.53791">
        <ele>557.6</ele>
        <time>2022-05-21 18:49:09</time>
      </trkpt>
      <trkpt lat="42.40724" lon="2.53789">
        <ele>557.6</ele>
        <time>2022-05-21 18:49:10</time>
      </trkpt>
      <trkpt lat="42.40722" lon="2.53787">
        <ele>557.8</ele>
        <time>2022-05-21 18:49:11</time>
      </trkpt>
      <trkpt lat="42.40719" lon="2.53785">
        <ele>557.8</ele>
        <time>2022-05-21 18:49:12</time>
      </trkpt>
      <trkpt lat="42.40717" lon="2.53782">
        <ele>557.8</ele>
        <time>2022-05-21 18:49:13</time>
      </trkpt>
      <trkpt lat="42.40715" lon="2.5378">
        <ele>557.8</ele>
        <time>2022-05-21 18:49:14</time>
      </trkpt>
      <trkpt lat="42.40714" lon="2.53779">
        <ele>558</ele>
        <time>2022-05-21 18:49:15</time>
      </trkpt>
      <trkpt lat="42.40712" lon="2.53776">
        <ele>558</ele>
        <time>2022-05-21 18:49:16</time>
      </trkpt>
      <trkpt lat="42.4071" lon="2.53774">
        <ele>558</ele>
        <time>2022-05-21 18:49:17</time>
      </trkpt>
      <trkpt lat="42.40708" lon="2.53772">
        <ele>558.2</ele>
        <time>2022-05-21 18:49:18</time>
      </trkpt>
      <trkpt lat="42.40706" lon="2.53769">
        <ele>558.2</ele>
        <time>2022-05-21 18:49:19</time>
      </trkpt>
      <trkpt lat="42.40704" lon="2.53767">
        <ele>558.4</ele>
        <time>2022-05-21 18:49:20</time>
      </trkpt>
      <trkpt lat="42.40703" lon="2.53764">
        <ele>558.6</ele>
        <time>2022-05-21 18:49:21</time>
      </trkpt>
      <trkpt lat="42.40701" lon="2.53762">
        <ele>558.6</ele>
        <time>2022-05-21 18:49:22</time>
      </trkpt>
      <trkpt lat="42.40699" lon="2.5376">
        <ele>558.8</ele>
        <time>2022-05-21 18:49:23</time>
      </trkpt>
      <trkpt lat="42.40697" lon="2.53759">
        <ele>558.8</ele>
        <time>2022-05-21 18:49:24</time>
      </trkpt>
      <trkpt lat="42.40696" lon="2.53756">
        <ele>559</ele>
        <time>2022-05-21 18:49:25</time>
      </trkpt>
      <trkpt lat="42.40694" lon="2.53754">
        <ele>559.2</ele>
        <time>2022-05-21 18:49:26</time>
      </trkpt>
      <trkpt lat="42.40693" lon="2.53751">
        <ele>559.2</ele>
        <time>2022-05-21 18:49:27</time>
      </trkpt>
      <trkpt lat="42.40692" lon="2.53748">
        <ele>559.4</ele>
        <time>2022-05-21 18:49:28</time>
      </trkpt>
      <trkpt lat="42.4069" lon="2.53746">
        <ele>559.6</ele>
        <time>2022-05-21 18:49:29</time>
      </trkpt>
      <trkpt lat="42.40688" lon="2.53743">
        <ele>559.6</ele>
        <time>2022-05-21 18:49:30</time>
      </trkpt>
      <trkpt lat="42.40687" lon="2.53741">
        <ele>559.8</ele>
        <time>2022-05-21 18:49:31</time>
      </trkpt>
      <trkpt lat="42.40685" lon="2.53738">
        <ele>560</ele>
        <time>2022-05-21 18:49:32</time>
      </trkpt>
      <trkpt lat="42.40684" lon="2.53735">
        <ele>560</ele>
        <time>2022-05-21 18:49:33</time>
      </trkpt>
      <trkpt lat="42.40683" lon="2.53731">
        <ele>560.2</ele>
        <time>2022-05-21 18:49:34</time>
      </trkpt>
      <trkpt lat="42.40682" lon="2.53727">
        <ele>560.2</ele>
        <time>2022-05-21 18:49:35</time>
      </trkpt>
      <trkpt lat="42.40682" lon="2.53723">
        <ele>560.4</ele>
        <time>2022-05-21 18:49:36</time>
      </trkpt>
      <trkpt lat="42.40681" lon="2.53719">
        <ele>560.6</ele>
        <time>2022-05-21 18:49:37</time>
      </trkpt>
      <trkpt lat="42.4068" lon="2.53715">
        <ele>560.6</ele>
        <time>2022-05-21 18:49:38</time>
      </trkpt>
      <trkpt lat="42.4068" lon="2.53711">
        <ele>560.8</ele>
        <time>2022-05-21 18:49:39</time>
      </trkpt>
      <trkpt lat="42.40679" lon="2.53706">
        <ele>560.8</ele>
        <time>2022-05-21 18:49:40</time>
      </trkpt>
      <trkpt lat="42.40678" lon="2.53703">
        <ele>561</ele>
        <time>2022-05-21 18:49:41</time>
      </trkpt>
      <trkpt lat="42.40678" lon="2.53699">
        <ele>561</ele>
        <time>2022-05-21 18:49:42</time>
      </trkpt>
      <trkpt lat="42.40677" lon="2.53695">
        <ele>561.2</ele>
        <time>2022-05-21 18:49:43</time>
      </trkpt>
      <trkpt lat="42.40677" lon="2.53691">
        <ele>561.2</ele>
        <time>2022-05-21 18:49:44</time>
      </trkpt>
      <trkpt lat="42.40676" lon="2.53688">
        <ele>561.4</ele>
        <time>2022-05-21 18:49:45</time>
      </trkpt>
      <trkpt lat="42.40676" lon="2.53684">
        <ele>561.4</ele>
        <time>2022-05-21 18:49:46</time>
      </trkpt>
      <trkpt lat="42.40676" lon="2.5368">
        <ele>561.6</ele>
        <time>2022-05-21 18:49:47</time>
      </trkpt>
      <trkpt lat="42.40675" lon="2.53676">
        <ele>561.6</ele>
        <time>2022-05-21 18:49:48</time>
      </trkpt>
      <trkpt lat="42.40675" lon="2.53673">
        <ele>561.8</ele>
        <time>2022-05-21 18:49:49</time>
      </trkpt>
      <trkpt lat="42.40675" lon="2.53669">
        <ele>561.8</ele>
        <time>2022-05-21 18:49:50</time>
      </trkpt>
      <trkpt lat="42.40674" lon="2.53665">
        <ele>562</ele>
        <time>2022-05-21 18:49:51</time>
      </trkpt>
      <trkpt lat="42.40673" lon="2.53662">
        <ele>562</ele>
        <time>2022-05-21 18:49:52</time>
      </trkpt>
      <trkpt lat="42.40673" lon="2.53658">
        <ele>562</ele>
        <time>2022-05-21 18:49:53</time>
      </trkpt>
      <trkpt lat="42.40673" lon="2.53654">
        <ele>562.2</ele>
        <time>2022-05-21 18:49:54</time>
      </trkpt>
      <trkpt lat="42.40672" lon="2.53649">
        <ele>562.2</ele>
        <time>2022-05-21 18:49:55</time>
      </trkpt>
      <trkpt lat="42.40671" lon="2.53645">
        <ele>562.2</ele>
        <time>2022-05-21 18:49:56</time>
      </trkpt>
      <trkpt lat="42.40671" lon="2.5364">
        <ele>562.2</ele>
        <time>2022-05-21 18:49:57</time>
      </trkpt>
      <trkpt lat="42.4067" lon="2.53636">
        <ele>562.2</ele>
        <time>2022-05-21 18:49:58</time>
      </trkpt>
      <trkpt lat="42.40669" lon="2.5363">
        <ele>562.2</ele>
        <time>2022-05-21 18:49:59</time>
      </trkpt>
      <trkpt lat="42.40668" lon="2.53626">
        <ele>562.2</ele>
        <time>2022-05-21 18:50:00</time>
      </trkpt>
      <trkpt lat="42.40666" lon="2.53621">
        <ele>562</ele>
        <time>2022-05-21 18:50:01</time>
      </trkpt>
      <trkpt lat="42.40665" lon="2.53616">
        <ele>562</ele>
        <time>2022-05-21 18:50:02</time>
      </trkpt>
      <trkpt lat="42.40663" lon="2.53611">
        <ele>562</ele>
        <time>2022-05-21 18:50:03</time>
      </trkpt>
      <trkpt lat="42.40662" lon="2.53606">
        <ele>562</ele>
        <time>2022-05-21 18:50:04</time>
      </trkpt>
      <trkpt lat="42.40662" lon="2.53601">
        <ele>562</ele>
        <time>2022-05-21 18:50:05</time>
      </trkpt>
      <trkpt lat="42.40661" lon="2.53596">
        <ele>562</ele>
        <time>2022-05-21 18:50:06</time>
      </trkpt>
      <trkpt lat="42.40661" lon="2.53591">
        <ele>562</ele>
        <time>2022-05-21 18:50:07</time>
      </trkpt>
      <trkpt lat="42.40661" lon="2.53586">
        <ele>562</ele>
        <time>2022-05-21 18:50:08</time>
      </trkpt>
      <trkpt lat="42.4066" lon="2.53582">
        <ele>562</ele>
        <time>2022-05-21 18:50:09</time>
      </trkpt>
      <trkpt lat="42.40659" lon="2.53579">
        <ele>562</ele>
        <time>2022-05-21 18:50:10</time>
      </trkpt>
      <trkpt lat="42.40657" lon="2.53575">
        <ele>562</ele>
        <time>2022-05-21 18:50:11</time>
      </trkpt>
      <trkpt lat="42.40655" lon="2.5357">
        <ele>562</ele>
        <time>2022-05-21 18:50:12</time>
      </trkpt>
      <trkpt lat="42.40653" lon="2.53565">
        <ele>562</ele>
        <time>2022-05-21 18:50:13</time>
      </trkpt>
      <trkpt lat="42.40652" lon="2.53561">
        <ele>562</ele>
        <time>2022-05-21 18:50:14</time>
      </trkpt>
      <trkpt lat="42.4065" lon="2.53558">
        <ele>562</ele>
        <time>2022-05-21 18:50:15</time>
      </trkpt>
      <trkpt lat="42.40649" lon="2.53554">
        <ele>562</ele>
        <time>2022-05-21 18:50:16</time>
      </trkpt>
      <trkpt lat="42.40647" lon="2.53549">
        <ele>562</ele>
        <time>2022-05-21 18:50:17</time>
      </trkpt>
      <trkpt lat="42.40646" lon="2.53543">
        <ele>562</ele>
        <time>2022-05-21 18:50:18</time>
      </trkpt>
      <trkpt lat="42.40645" lon="2.53536">
        <ele>562</ele>
        <time>2022-05-21 18:50:19</time>
      </trkpt>
      <trkpt lat="42.40644" lon="2.5353">
        <ele>562</ele>
        <time>2022-05-21 18:50:20</time>
      </trkpt>
      <trkpt lat="42.40643" lon="2.53525">
        <ele>562</ele>
        <time>2022-05-21 18:50:21</time>
      </trkpt>
      <trkpt lat="42.40642" lon="2.53519">
        <ele>561.8</ele>
        <time>2022-05-21 18:50:22</time>
      </trkpt>
      <trkpt lat="42.4064" lon="2.53512">
        <ele>561.8</ele>
        <time>2022-05-21 18:50:23</time>
      </trkpt>
      <trkpt lat="42.40639" lon="2.53506">
        <ele>561.8</ele>
        <time>2022-05-21 18:50:24</time>
      </trkpt>
      <trkpt lat="42.40638" lon="2.53501">
        <ele>561.8</ele>
        <time>2022-05-21 18:50:25</time>
      </trkpt>
      <trkpt lat="42.40637" lon="2.53495">
        <ele>561.8</ele>
        <time>2022-05-21 18:50:26</time>
      </trkpt>
      <trkpt lat="42.40637" lon="2.5349">
        <ele>561.8</ele>
        <time>2022-05-21 18:50:27</time>
      </trkpt>
      <trkpt lat="42.40636" lon="2.53485">
        <ele>561.8</ele>
        <time>2022-05-21 18:50:28</time>
      </trkpt>
      <trkpt lat="42.40636" lon="2.5348">
        <ele>561.6</ele>
        <time>2022-05-21 18:50:29</time>
      </trkpt>
      <trkpt lat="42.40637" lon="2.53476">
        <ele>561.6</ele>
        <time>2022-05-21 18:50:30</time>
      </trkpt>
      <trkpt lat="42.40638" lon="2.53471">
        <ele>561.6</ele>
        <time>2022-05-21 18:50:31</time>
      </trkpt>
      <trkpt lat="42.40639" lon="2.53466">
        <ele>561.6</ele>
        <time>2022-05-21 18:50:32</time>
      </trkpt>
      <trkpt lat="42.4064" lon="2.53461">
        <ele>561.6</ele>
        <time>2022-05-21 18:50:33</time>
      </trkpt>
      <trkpt lat="42.40642" lon="2.53456">
        <ele>561.6</ele>
        <time>2022-05-21 18:50:34</time>
      </trkpt>
      <trkpt lat="42.40643" lon="2.53451">
        <ele>561.8</ele>
        <time>2022-05-21 18:50:35</time>
      </trkpt>
      <trkpt lat="42.40645" lon="2.53447">
        <ele>561.8</ele>
        <time>2022-05-21 18:50:36</time>
      </trkpt>
      <trkpt lat="42.40646" lon="2.53442">
        <ele>561.8</ele>
        <time>2022-05-21 18:50:37</time>
      </trkpt>
      <trkpt lat="42.40648" lon="2.53438">
        <ele>561.8</ele>
        <time>2022-05-21 18:50:38</time>
      </trkpt>
      <trkpt lat="42.40651" lon="2.53434">
        <ele>561.8</ele>
        <time>2022-05-21 18:50:39</time>
      </trkpt>
      <trkpt lat="42.40653" lon="2.5343">
        <ele>561.8</ele>
        <time>2022-05-21 18:50:40</time>
      </trkpt>
      <trkpt lat="42.40656" lon="2.53426">
        <ele>561.8</ele>
        <time>2022-05-21 18:50:41</time>
      </trkpt>
      <trkpt lat="42.40659" lon="2.53423">
        <ele>561.8</ele>
        <time>2022-05-21 18:50:42</time>
      </trkpt>
      <trkpt lat="42.40662" lon="2.5342">
        <ele>561.8</ele>
        <time>2022-05-21 18:50:43</time>
      </trkpt>
      <trkpt lat="42.40665" lon="2.53417">
        <ele>561.8</ele>
        <time>2022-05-21 18:50:44</time>
      </trkpt>
      <trkpt lat="42.40668" lon="2.53414">
        <ele>562</ele>
        <time>2022-05-21 18:50:45</time>
      </trkpt>
      <trkpt lat="42.4067" lon="2.53413">
        <ele>562</ele>
        <time>2022-05-21 18:50:46</time>
      </trkpt>
      <trkpt lat="42.40674" lon="2.53409">
        <ele>562</ele>
        <time>2022-05-21 18:50:47</time>
      </trkpt>
      <trkpt lat="42.40679" lon="2.53405">
        <ele>562</ele>
        <time>2022-05-21 18:50:48</time>
      </trkpt>
      <trkpt lat="42.40683" lon="2.53402">
        <ele>562</ele>
        <time>2022-05-21 18:50:49</time>
      </trkpt>
      <trkpt lat="42.40686" lon="2.534">
        <ele>562</ele>
        <time>2022-05-21 18:50:50</time>
      </trkpt>
      <trkpt lat="42.4069" lon="2.53397">
        <ele>562.2</ele>
        <time>2022-05-21 18:50:51</time>
      </trkpt>
      <trkpt lat="42.40693" lon="2.53395">
        <ele>562.2</ele>
        <time>2022-05-21 18:50:52</time>
      </trkpt>
      <trkpt lat="42.40696" lon="2.53392">
        <ele>562.2</ele>
        <time>2022-05-21 18:50:53</time>
      </trkpt>
      <trkpt lat="42.40699" lon="2.53388">
        <ele>562.2</ele>
        <time>2022-05-21 18:50:54</time>
      </trkpt>
      <trkpt lat="42.40701" lon="2.53384">
        <ele>562.2</ele>
        <time>2022-05-21 18:50:55</time>
      </trkpt>
      <trkpt lat="42.40703" lon="2.53378">
        <ele>562</ele>
        <time>2022-05-21 18:50:56</time>
      </trkpt>
      <trkpt lat="42.40705" lon="2.53373">
        <ele>562</ele>
        <time>2022-05-21 18:50:57</time>
      </trkpt>
      <trkpt lat="42.40706" lon="2.53367">
        <ele>562</ele>
        <time>2022-05-21 18:50:58</time>
      </trkpt>
      <trkpt lat="42.40707" lon="2.53362">
        <ele>562</ele>
        <time>2022-05-21 18:50:59</time>
      </trkpt>
      <trkpt lat="42.40708" lon="2.53356">
        <ele>562</ele>
        <time>2022-05-21 18:51:00</time>
      </trkpt>
      <trkpt lat="42.40708" lon="2.5335">
        <ele>562</ele>
        <time>2022-05-21 18:51:01</time>
      </trkpt>
      <trkpt lat="42.40709" lon="2.53344">
        <ele>562</ele>
        <time>2022-05-21 18:51:02</time>
      </trkpt>
      <trkpt lat="42.40709" lon="2.53339">
        <ele>562</ele>
        <time>2022-05-21 18:51:03</time>
      </trkpt>
      <trkpt lat="42.4071" lon="2.53333">
        <ele>562</ele>
        <time>2022-05-21 18:51:04</time>
      </trkpt>
      <trkpt lat="42.4071" lon="2.53327">
        <ele>562</ele>
        <time>2022-05-21 18:51:05</time>
      </trkpt>
      <trkpt lat="42.40711" lon="2.53321">
        <ele>561.8</ele>
        <time>2022-05-21 18:51:06</time>
      </trkpt>
      <trkpt lat="42.40711" lon="2.53314">
        <ele>561.8</ele>
        <time>2022-05-21 18:51:07</time>
      </trkpt>
      <trkpt lat="42.4071" lon="2.53308">
        <ele>561.8</ele>
        <time>2022-05-21 18:51:08</time>
      </trkpt>
      <trkpt lat="42.4071" lon="2.53302">
        <ele>561.8</ele>
        <time>2022-05-21 18:51:09</time>
      </trkpt>
      <trkpt lat="42.40709" lon="2.53296">
        <ele>561.8</ele>
        <time>2022-05-21 18:51:10</time>
      </trkpt>
      <trkpt lat="42.4071" lon="2.5329">
        <ele>561.8</ele>
        <time>2022-05-21 18:51:11</time>
      </trkpt>
      <trkpt lat="42.4071" lon="2.53284">
        <ele>561.8</ele>
        <time>2022-05-21 18:51:12</time>
      </trkpt>
      <trkpt lat="42.4071" lon="2.53278">
        <ele>561.8</ele>
        <time>2022-05-21 18:51:13</time>
      </trkpt>
      <trkpt lat="42.4071" lon="2.53273">
        <ele>561.8</ele>
        <time>2022-05-21 18:51:14</time>
      </trkpt>
      <trkpt lat="42.4071" lon="2.53268">
        <ele>561.6</ele>
        <time>2022-05-21 18:51:15</time>
      </trkpt>
      <trkpt lat="42.4071" lon="2.53263">
        <ele>561.6</ele>
        <time>2022-05-21 18:51:16</time>
      </trkpt>
      <trkpt lat="42.4071" lon="2.53257">
        <ele>561.6</ele>
        <time>2022-05-21 18:51:17</time>
      </trkpt>
      <trkpt lat="42.4071" lon="2.53249">
        <ele>561.6</ele>
        <time>2022-05-21 18:51:18</time>
      </trkpt>
      <trkpt lat="42.4071" lon="2.53242">
        <ele>561.6</ele>
        <time>2022-05-21 18:51:19</time>
      </trkpt>
      <trkpt lat="42.4071" lon="2.53235">
        <ele>561.6</ele>
        <time>2022-05-21 18:51:20</time>
      </trkpt>
      <trkpt lat="42.4071" lon="2.53229">
        <ele>561.6</ele>
        <time>2022-05-21 18:51:21</time>
      </trkpt>
      <trkpt lat="42.40711" lon="2.53222">
        <ele>561.4</ele>
        <time>2022-05-21 18:51:22</time>
      </trkpt>
      <trkpt lat="42.40711" lon="2.53216">
        <ele>561.4</ele>
        <time>2022-05-21 18:51:23</time>
      </trkpt>
      <trkpt lat="42.40711" lon="2.53209">
        <ele>561.6</ele>
        <time>2022-05-21 18:51:24</time>
      </trkpt>
      <trkpt lat="42.40712" lon="2.53203">
        <ele>561.6</ele>
        <time>2022-05-21 18:51:25</time>
      </trkpt>
      <trkpt lat="42.40712" lon="2.53196">
        <ele>561.6</ele>
        <time>2022-05-21 18:51:26</time>
      </trkpt>
      <trkpt lat="42.40713" lon="2.53189">
        <ele>561.6</ele>
        <time>2022-05-21 18:51:27</time>
      </trkpt>
      <trkpt lat="42.40713" lon="2.53183">
        <ele>561.6</ele>
        <time>2022-05-21 18:51:28</time>
      </trkpt>
      <trkpt lat="42.40714" lon="2.53177">
        <ele>561.6</ele>
        <time>2022-05-21 18:51:29</time>
      </trkpt>
      <trkpt lat="42.40715" lon="2.53171">
        <ele>561.6</ele>
        <time>2022-05-21 18:51:30</time>
      </trkpt>
      <trkpt lat="42.40716" lon="2.53165">
        <ele>561.4</ele>
        <time>2022-05-21 18:51:31</time>
      </trkpt>
      <trkpt lat="42.40717" lon="2.5316">
        <ele>561.4</ele>
        <time>2022-05-21 18:51:32</time>
      </trkpt>
      <trkpt lat="42.40718" lon="2.53154">
        <ele>561.4</ele>
        <time>2022-05-21 18:51:33</time>
      </trkpt>
      <trkpt lat="42.40719" lon="2.53149">
        <ele>561.4</ele>
        <time>2022-05-21 18:51:34</time>
      </trkpt>
      <trkpt lat="42.40721" lon="2.53143">
        <ele>561.4</ele>
        <time>2022-05-21 18:51:35</time>
      </trkpt>
      <trkpt lat="42.40722" lon="2.53137">
        <ele>561.4</ele>
        <time>2022-05-21 18:51:36</time>
      </trkpt>
      <trkpt lat="42.40725" lon="2.53132">
        <ele>561.6</ele>
        <time>2022-05-21 18:51:37</time>
      </trkpt>
      <trkpt lat="42.40727" lon="2.53127">
        <ele>561.6</ele>
        <time>2022-05-21 18:51:38</time>
      </trkpt>
      <trkpt lat="42.4073" lon="2.53122">
        <ele>561.8</ele>
        <time>2022-05-21 18:51:39</time>
      </trkpt>
      <trkpt lat="42.40732" lon="2.53117">
        <ele>561.8</ele>
        <time>2022-05-21 18:51:40</time>
      </trkpt>
      <trkpt lat="42.40734" lon="2.53111">
        <ele>562</ele>
        <time>2022-05-21 18:51:41</time>
      </trkpt>
      <trkpt lat="42.40735" lon="2.53106">
        <ele>562</ele>
        <time>2022-05-21 18:51:42</time>
      </trkpt>
      <trkpt lat="42.40737" lon="2.531">
        <ele>562.2</ele>
        <time>2022-05-21 18:51:43</time>
      </trkpt>
      <trkpt lat="42.40738" lon="2.53095">
        <ele>562.2</ele>
        <time>2022-05-21 18:51:44</time>
      </trkpt>
      <trkpt lat="42.40738" lon="2.5309">
        <ele>562.4</ele>
        <time>2022-05-21 18:51:45</time>
      </trkpt>
      <trkpt lat="42.40739" lon="2.53084">
        <ele>562.4</ele>
        <time>2022-05-21 18:51:46</time>
      </trkpt>
      <trkpt lat="42.40739" lon="2.53079">
        <ele>562.6</ele>
        <time>2022-05-21 18:51:47</time>
      </trkpt>
      <trkpt lat="42.4074" lon="2.53074">
        <ele>562.8</ele>
        <time>2022-05-21 18:51:48</time>
      </trkpt>
      <trkpt lat="42.4074" lon="2.53069">
        <ele>562.8</ele>
        <time>2022-05-21 18:51:49</time>
      </trkpt>
      <trkpt lat="42.4074" lon="2.53063">
        <ele>563</ele>
        <time>2022-05-21 18:51:50</time>
      </trkpt>
      <trkpt lat="42.40739" lon="2.53058">
        <ele>563.2</ele>
        <time>2022-05-21 18:51:51</time>
      </trkpt>
      <trkpt lat="42.40738" lon="2.53052">
        <ele>563.4</ele>
        <time>2022-05-21 18:51:52</time>
      </trkpt>
      <trkpt lat="42.40738" lon="2.53047">
        <ele>563.4</ele>
        <time>2022-05-21 18:51:53</time>
      </trkpt>
      <trkpt lat="42.40737" lon="2.53042">
        <ele>563.6</ele>
        <time>2022-05-21 18:51:54</time>
      </trkpt>
      <trkpt lat="42.40735" lon="2.53037">
        <ele>563.6</ele>
        <time>2022-05-21 18:51:55</time>
      </trkpt>
      <trkpt lat="42.40734" lon="2.53033">
        <ele>563.8</ele>
        <time>2022-05-21 18:51:56</time>
      </trkpt>
      <trkpt lat="42.40733" lon="2.53028">
        <ele>564</ele>
        <time>2022-05-21 18:51:57</time>
      </trkpt>
      <trkpt lat="42.40731" lon="2.53024">
        <ele>564.2</ele>
        <time>2022-05-21 18:51:58</time>
      </trkpt>
      <trkpt lat="42.40729" lon="2.5302">
        <ele>564.2</ele>
        <time>2022-05-21 18:51:59</time>
      </trkpt>
      <trkpt lat="42.40727" lon="2.53016">
        <ele>564.4</ele>
        <time>2022-05-21 18:52:00</time>
      </trkpt>
      <trkpt lat="42.40725" lon="2.53012">
        <ele>564.6</ele>
        <time>2022-05-21 18:52:01</time>
      </trkpt>
      <trkpt lat="42.40723" lon="2.53008">
        <ele>564.8</ele>
        <time>2022-05-21 18:52:02</time>
      </trkpt>
      <trkpt lat="42.40721" lon="2.53005">
        <ele>565</ele>
        <time>2022-05-21 18:52:03</time>
      </trkpt>
      <trkpt lat="42.40719" lon="2.53002">
        <ele>565.2</ele>
        <time>2022-05-21 18:52:04</time>
      </trkpt>
      <trkpt lat="42.40717" lon="2.52999">
        <ele>565.4</ele>
        <time>2022-05-21 18:52:05</time>
      </trkpt>
      <trkpt lat="42.40715" lon="2.52995">
        <ele>565.4</ele>
        <time>2022-05-21 18:52:06</time>
      </trkpt>
      <trkpt lat="42.40713" lon="2.52992">
        <ele>565.6</ele>
        <time>2022-05-21 18:52:07</time>
      </trkpt>
      <trkpt lat="42.40711" lon="2.52988">
        <ele>565.8</ele>
        <time>2022-05-21 18:52:08</time>
      </trkpt>
      <trkpt lat="42.40709" lon="2.52984">
        <ele>566</ele>
        <time>2022-05-21 18:52:09</time>
      </trkpt>
      <trkpt lat="42.40707" lon="2.52981">
        <ele>566.2</ele>
        <time>2022-05-21 18:52:10</time>
      </trkpt>
      <trkpt lat="42.40706" lon="2.52977">
        <ele>566.4</ele>
        <time>2022-05-21 18:52:11</time>
      </trkpt>
      <trkpt lat="42.40703" lon="2.52974">
        <ele>566.6</ele>
        <time>2022-05-21 18:52:12</time>
      </trkpt>
      <trkpt lat="42.40702" lon="2.5297">
        <ele>567</ele>
        <time>2022-05-21 18:52:13</time>
      </trkpt>
      <trkpt lat="42.407" lon="2.52966">
        <ele>567.2</ele>
        <time>2022-05-21 18:52:14</time>
      </trkpt>
      <trkpt lat="42.40698" lon="2.52963">
        <ele>567.4</ele>
        <time>2022-05-21 18:52:15</time>
      </trkpt>
      <trkpt lat="42.40696" lon="2.5296">
        <ele>567.6</ele>
        <time>2022-05-21 18:52:16</time>
      </trkpt>
      <trkpt lat="42.40694" lon="2.52957">
        <ele>567.8</ele>
        <time>2022-05-21 18:52:17</time>
      </trkpt>
      <trkpt lat="42.40692" lon="2.52954">
        <ele>568</ele>
        <time>2022-05-21 18:52:18</time>
      </trkpt>
      <trkpt lat="42.4069" lon="2.52951">
        <ele>568</ele>
        <time>2022-05-21 18:52:19</time>
      </trkpt>
      <trkpt lat="42.40688" lon="2.52948">
        <ele>568.2</ele>
        <time>2022-05-21 18:52:20</time>
      </trkpt>
      <trkpt lat="42.40686" lon="2.52945">
        <ele>568.4</ele>
        <time>2022-05-21 18:52:21</time>
      </trkpt>
      <trkpt lat="42.40683" lon="2.52942">
        <ele>568.6</ele>
        <time>2022-05-21 18:52:22</time>
      </trkpt>
      <trkpt lat="42.40681" lon="2.5294">
        <ele>568.8</ele>
        <time>2022-05-21 18:52:23</time>
      </trkpt>
      <trkpt lat="42.40678" lon="2.52937">
        <ele>568.8</ele>
        <time>2022-05-21 18:52:24</time>
      </trkpt>
      <trkpt lat="42.40675" lon="2.52935">
        <ele>569</ele>
        <time>2022-05-21 18:52:25</time>
      </trkpt>
      <trkpt lat="42.40671" lon="2.52933">
        <ele>569.2</ele>
        <time>2022-05-21 18:52:26</time>
      </trkpt>
      <trkpt lat="42.40668" lon="2.52931">
        <ele>569.2</ele>
        <time>2022-05-21 18:52:27</time>
      </trkpt>
      <trkpt lat="42.40665" lon="2.52928">
        <ele>569.4</ele>
        <time>2022-05-21 18:52:28</time>
      </trkpt>
      <trkpt lat="42.40662" lon="2.52926">
        <ele>569.4</ele>
        <time>2022-05-21 18:52:29</time>
      </trkpt>
      <trkpt lat="42.40659" lon="2.52924">
        <ele>569.4</ele>
        <time>2022-05-21 18:52:30</time>
      </trkpt>
      <trkpt lat="42.40655" lon="2.52922">
        <ele>569.6</ele>
        <time>2022-05-21 18:52:31</time>
      </trkpt>
      <trkpt lat="42.40652" lon="2.52921">
        <ele>569.6</ele>
        <time>2022-05-21 18:52:32</time>
      </trkpt>
      <trkpt lat="42.40649" lon="2.52919">
        <ele>569.6</ele>
        <time>2022-05-21 18:52:33</time>
      </trkpt>
      <trkpt lat="42.40645" lon="2.52917">
        <ele>569.6</ele>
        <time>2022-05-21 18:52:34</time>
      </trkpt>
      <trkpt lat="42.40642" lon="2.52915">
        <ele>569.6</ele>
        <time>2022-05-21 18:52:35</time>
      </trkpt>
      <trkpt lat="42.40638" lon="2.52913">
        <ele>569.8</ele>
        <time>2022-05-21 18:52:36</time>
      </trkpt>
      <trkpt lat="42.40635" lon="2.52911">
        <ele>569.8</ele>
        <time>2022-05-21 18:52:37</time>
      </trkpt>
      <trkpt lat="42.40632" lon="2.5291">
        <ele>569.8</ele>
        <time>2022-05-21 18:52:38</time>
      </trkpt>
      <trkpt lat="42.40629" lon="2.52908">
        <ele>570</ele>
        <time>2022-05-21 18:52:39</time>
      </trkpt>
      <trkpt lat="42.40625" lon="2.52907">
        <ele>570</ele>
        <time>2022-05-21 18:52:40</time>
      </trkpt>
      <trkpt lat="42.40622" lon="2.52905">
        <ele>570.2</ele>
        <time>2022-05-21 18:52:41</time>
      </trkpt>
      <trkpt lat="42.40619" lon="2.52904">
        <ele>570.2</ele>
        <time>2022-05-21 18:52:42</time>
      </trkpt>
      <trkpt lat="42.40616" lon="2.52902">
        <ele>570.4</ele>
        <time>2022-05-21 18:52:43</time>
      </trkpt>
      <trkpt lat="42.40613" lon="2.529">
        <ele>570.4</ele>
        <time>2022-05-21 18:52:44</time>
      </trkpt>
      <trkpt lat="42.4061" lon="2.52899">
        <ele>570.6</ele>
        <time>2022-05-21 18:52:45</time>
      </trkpt>
      <trkpt lat="42.40608" lon="2.52899">
        <ele>570.8</ele>
        <time>2022-05-21 18:52:46</time>
      </trkpt>
      <trkpt lat="42.40605" lon="2.52898">
        <ele>571</ele>
        <time>2022-05-21 18:52:47</time>
      </trkpt>
      <trkpt lat="42.40602" lon="2.52896">
        <ele>571</ele>
        <time>2022-05-21 18:52:48</time>
      </trkpt>
      <trkpt lat="42.406" lon="2.52894">
        <ele>571.2</ele>
        <time>2022-05-21 18:52:49</time>
      </trkpt>
      <trkpt lat="42.40597" lon="2.52892">
        <ele>571.4</ele>
        <time>2022-05-21 18:52:50</time>
      </trkpt>
      <trkpt lat="42.40594" lon="2.5289">
        <ele>571.4</ele>
        <time>2022-05-21 18:52:51</time>
      </trkpt>
      <trkpt lat="42.40591" lon="2.52889">
        <ele>571.6</ele>
        <time>2022-05-21 18:52:52</time>
      </trkpt>
      <trkpt lat="42.40588" lon="2.52888">
        <ele>571.6</ele>
        <time>2022-05-21 18:52:53</time>
      </trkpt>
      <trkpt lat="42.40585" lon="2.52886">
        <ele>571.8</ele>
        <time>2022-05-21 18:52:54</time>
      </trkpt>
      <trkpt lat="42.40582" lon="2.52885">
        <ele>571.8</ele>
        <time>2022-05-21 18:52:55</time>
      </trkpt>
      <trkpt lat="42.40579" lon="2.52883">
        <ele>572</ele>
        <time>2022-05-21 18:52:56</time>
      </trkpt>
      <trkpt lat="42.40577" lon="2.52881">
        <ele>572</ele>
        <time>2022-05-21 18:52:57</time>
      </trkpt>
      <trkpt lat="42.40574" lon="2.52879">
        <ele>572</ele>
        <time>2022-05-21 18:52:58</time>
      </trkpt>
      <trkpt lat="42.40571" lon="2.52876">
        <ele>572.2</ele>
        <time>2022-05-21 18:52:59</time>
      </trkpt>
      <trkpt lat="42.40569" lon="2.52874">
        <ele>572.2</ele>
        <time>2022-05-21 18:53:00</time>
      </trkpt>
      <trkpt lat="42.40566" lon="2.52872">
        <ele>572.2</ele>
        <time>2022-05-21 18:53:01</time>
      </trkpt>
      <trkpt lat="42.40563" lon="2.52869">
        <ele>572.2</ele>
        <time>2022-05-21 18:53:02</time>
      </trkpt>
      <trkpt lat="42.40561" lon="2.52867">
        <ele>572.2</ele>
        <time>2022-05-21 18:53:03</time>
      </trkpt>
      <trkpt lat="42.40558" lon="2.52864">
        <ele>572.2</ele>
        <time>2022-05-21 18:53:04</time>
      </trkpt>
      <trkpt lat="42.40556" lon="2.52861">
        <ele>572.2</ele>
        <time>2022-05-21 18:53:05</time>
      </trkpt>
      <trkpt lat="42.40553" lon="2.52858">
        <ele>572.2</ele>
        <time>2022-05-21 18:53:06</time>
      </trkpt>
      <trkpt lat="42.4055" lon="2.52855">
        <ele>572.2</ele>
        <time>2022-05-21 18:53:07</time>
      </trkpt>
      <trkpt lat="42.40548" lon="2.52852">
        <ele>572.2</ele>
        <time>2022-05-21 18:53:08</time>
      </trkpt>
      <trkpt lat="42.40546" lon="2.52849">
        <ele>572.2</ele>
        <time>2022-05-21 18:53:09</time>
      </trkpt>
      <trkpt lat="42.40543" lon="2.52846">
        <ele>572.2</ele>
        <time>2022-05-21 18:53:10</time>
      </trkpt>
      <trkpt lat="42.40541" lon="2.52844">
        <ele>572.4</ele>
        <time>2022-05-21 18:53:11</time>
      </trkpt>
      <trkpt lat="42.40538" lon="2.52841">
        <ele>572.4</ele>
        <time>2022-05-21 18:53:12</time>
      </trkpt>
      <trkpt lat="42.40536" lon="2.52838">
        <ele>572.4</ele>
        <time>2022-05-21 18:53:13</time>
      </trkpt>
      <trkpt lat="42.40533" lon="2.52836">
        <ele>572.6</ele>
        <time>2022-05-21 18:53:14</time>
      </trkpt>
      <trkpt lat="42.40531" lon="2.52833">
        <ele>572.6</ele>
        <time>2022-05-21 18:53:15</time>
      </trkpt>
      <trkpt lat="42.40528" lon="2.52831">
        <ele>572.8</ele>
        <time>2022-05-21 18:53:16</time>
      </trkpt>
      <trkpt lat="42.40525" lon="2.52829">
        <ele>572.8</ele>
        <time>2022-05-21 18:53:17</time>
      </trkpt>
      <trkpt lat="42.40523" lon="2.52827">
        <ele>573</ele>
        <time>2022-05-21 18:53:18</time>
      </trkpt>
      <trkpt lat="42.4052" lon="2.52825">
        <ele>573.2</ele>
        <time>2022-05-21 18:53:19</time>
      </trkpt>
      <trkpt lat="42.40518" lon="2.52823">
        <ele>573.4</ele>
        <time>2022-05-21 18:53:20</time>
      </trkpt>
      <trkpt lat="42.40516" lon="2.5282">
        <ele>573.6</ele>
        <time>2022-05-21 18:53:21</time>
      </trkpt>
      <trkpt lat="42.40513" lon="2.52818">
        <ele>573.6</ele>
        <time>2022-05-21 18:53:22</time>
      </trkpt>
      <trkpt lat="42.40511" lon="2.52816">
        <ele>573.8</ele>
        <time>2022-05-21 18:53:23</time>
      </trkpt>
      <trkpt lat="42.40509" lon="2.52815">
        <ele>574</ele>
        <time>2022-05-21 18:53:24</time>
      </trkpt>
      <trkpt lat="42.40507" lon="2.52813">
        <ele>574.2</ele>
        <time>2022-05-21 18:53:25</time>
      </trkpt>
      <trkpt lat="42.40505" lon="2.52811">
        <ele>574.4</ele>
        <time>2022-05-21 18:53:26</time>
      </trkpt>
      <trkpt lat="42.40504" lon="2.5281">
        <ele>574.6</ele>
        <time>2022-05-21 18:53:27</time>
      </trkpt>
      <trkpt lat="42.40502" lon="2.52808">
        <ele>574.6</ele>
        <time>2022-05-21 18:53:28</time>
      </trkpt>
      <trkpt lat="42.405" lon="2.52807">
        <ele>574.8</ele>
        <time>2022-05-21 18:53:29</time>
      </trkpt>
      <trkpt lat="42.40498" lon="2.52806">
        <ele>574.8</ele>
        <time>2022-05-21 18:53:30</time>
      </trkpt>
      <trkpt lat="42.40496" lon="2.52804">
        <ele>575</ele>
        <time>2022-05-21 18:53:31</time>
      </trkpt>
      <trkpt lat="42.40494" lon="2.52803">
        <ele>575.2</ele>
        <time>2022-05-21 18:53:32</time>
      </trkpt>
      <trkpt lat="42.40492" lon="2.52801">
        <ele>575.4</ele>
        <time>2022-05-21 18:53:33</time>
      </trkpt>
      <trkpt lat="42.4049" lon="2.528">
        <ele>575.6</ele>
        <time>2022-05-21 18:53:34</time>
      </trkpt>
      <trkpt lat="42.40488" lon="2.52798">
        <ele>575.8</ele>
        <time>2022-05-21 18:53:35</time>
      </trkpt>
      <trkpt lat="42.40486" lon="2.52797">
        <ele>576</ele>
        <time>2022-05-21 18:53:36</time>
      </trkpt>
      <trkpt lat="42.40484" lon="2.52796">
        <ele>576.2</ele>
        <time>2022-05-21 18:53:37</time>
      </trkpt>
      <trkpt lat="42.40481" lon="2.52796">
        <ele>576.4</ele>
        <time>2022-05-21 18:53:38</time>
      </trkpt>
      <trkpt lat="42.4048" lon="2.52795">
        <ele>576.6</ele>
        <time>2022-05-21 18:53:39</time>
      </trkpt>
      <trkpt lat="42.40478" lon="2.52794">
        <ele>576.8</ele>
        <time>2022-05-21 18:53:40</time>
      </trkpt>
      <trkpt lat="42.40476" lon="2.52793">
        <ele>577</ele>
        <time>2022-05-21 18:53:41</time>
      </trkpt>
      <trkpt lat="42.40474" lon="2.52792">
        <ele>577.2</ele>
        <time>2022-05-21 18:53:42</time>
      </trkpt>
      <trkpt lat="42.40472" lon="2.52791">
        <ele>577.2</ele>
        <time>2022-05-21 18:53:43</time>
      </trkpt>
      <trkpt lat="42.4047" lon="2.52789">
        <ele>577.4</ele>
        <time>2022-05-21 18:53:44</time>
      </trkpt>
      <trkpt lat="42.40468" lon="2.52788">
        <ele>577.6</ele>
        <time>2022-05-21 18:53:45</time>
      </trkpt>
      <trkpt lat="42.40467" lon="2.52787">
        <ele>577.8</ele>
        <time>2022-05-21 18:53:46</time>
      </trkpt>
      <trkpt lat="42.40465" lon="2.52786">
        <ele>578</ele>
        <time>2022-05-21 18:53:47</time>
      </trkpt>
      <trkpt lat="42.40463" lon="2.52785">
        <ele>578.2</ele>
        <time>2022-05-21 18:53:48</time>
      </trkpt>
      <trkpt lat="42.40461" lon="2.52785">
        <ele>578.4</ele>
        <time>2022-05-21 18:53:49</time>
      </trkpt>
      <trkpt lat="42.40459" lon="2.52784">
        <ele>578.6</ele>
        <time>2022-05-21 18:53:50</time>
      </trkpt>
      <trkpt lat="42.40457" lon="2.52783">
        <ele>578.6</ele>
        <time>2022-05-21 18:53:51</time>
      </trkpt>
      <trkpt lat="42.40455" lon="2.52782">
        <ele>578.8</ele>
        <time>2022-05-21 18:53:52</time>
      </trkpt>
      <trkpt lat="42.40453" lon="2.52781">
        <ele>579</ele>
        <time>2022-05-21 18:53:53</time>
      </trkpt>
      <trkpt lat="42.40451" lon="2.5278">
        <ele>579</ele>
        <time>2022-05-21 18:53:54</time>
      </trkpt>
      <trkpt lat="42.40449" lon="2.52779">
        <ele>579.2</ele>
        <time>2022-05-21 18:53:55</time>
      </trkpt>
      <trkpt lat="42.40447" lon="2.52778">
        <ele>579.2</ele>
        <time>2022-05-21 18:53:56</time>
      </trkpt>
      <trkpt lat="42.40446" lon="2.52776">
        <ele>579.4</ele>
        <time>2022-05-21 18:53:57</time>
      </trkpt>
      <trkpt lat="42.40444" lon="2.52774">
        <ele>579.6</ele>
        <time>2022-05-21 18:53:58</time>
      </trkpt>
      <trkpt lat="42.40442" lon="2.52772">
        <ele>579.6</ele>
        <time>2022-05-21 18:53:59</time>
      </trkpt>
      <trkpt lat="42.40441" lon="2.5277">
        <ele>579.8</ele>
        <time>2022-05-21 18:54:00</time>
      </trkpt>
      <trkpt lat="42.40439" lon="2.52768">
        <ele>579.8</ele>
        <time>2022-05-21 18:54:01</time>
      </trkpt>
      <trkpt lat="42.40438" lon="2.52765">
        <ele>580</ele>
        <time>2022-05-21 18:54:02</time>
      </trkpt>
      <trkpt lat="42.40437" lon="2.52763">
        <ele>580</ele>
        <time>2022-05-21 18:54:03</time>
      </trkpt>
      <trkpt lat="42.40436" lon="2.5276">
        <ele>580.2</ele>
        <time>2022-05-21 18:54:04</time>
      </trkpt>
      <trkpt lat="42.40435" lon="2.52756">
        <ele>580.2</ele>
        <time>2022-05-21 18:54:05</time>
      </trkpt>
      <trkpt lat="42.40435" lon="2.52753">
        <ele>580.2</ele>
        <time>2022-05-21 18:54:06</time>
      </trkpt>
      <trkpt lat="42.40434" lon="2.5275">
        <ele>580.4</ele>
        <time>2022-05-21 18:54:07</time>
      </trkpt>
      <trkpt lat="42.40433" lon="2.52747">
        <ele>580.6</ele>
        <time>2022-05-21 18:54:08</time>
      </trkpt>
      <trkpt lat="42.40433" lon="2.52744">
        <ele>580.6</ele>
        <time>2022-05-21 18:54:09</time>
      </trkpt>
      <trkpt lat="42.40433" lon="2.52741">
        <ele>580.8</ele>
        <time>2022-05-21 18:54:10</time>
      </trkpt>
      <trkpt lat="42.40433" lon="2.52739">
        <ele>580.8</ele>
        <time>2022-05-21 18:54:11</time>
      </trkpt>
      <trkpt lat="42.40433" lon="2.52736">
        <ele>581</ele>
        <time>2022-05-21 18:54:12</time>
      </trkpt>
      <trkpt lat="42.40434" lon="2.52733">
        <ele>581</ele>
        <time>2022-05-21 18:54:13</time>
      </trkpt>
      <trkpt lat="42.40434" lon="2.5273">
        <ele>581.2</ele>
        <time>2022-05-21 18:54:14</time>
      </trkpt>
      <trkpt lat="42.40435" lon="2.52727">
        <ele>581.2</ele>
        <time>2022-05-21 18:54:15</time>
      </trkpt>
      <trkpt lat="42.40436" lon="2.52724">
        <ele>581.4</ele>
        <time>2022-05-21 18:54:16</time>
      </trkpt>
      <trkpt lat="42.40437" lon="2.52722">
        <ele>581.4</ele>
        <time>2022-05-21 18:54:17</time>
      </trkpt>
      <trkpt lat="42.40439" lon="2.5272">
        <ele>581.6</ele>
        <time>2022-05-21 18:54:18</time>
      </trkpt>
      <trkpt lat="42.4044" lon="2.52718">
        <ele>581.6</ele>
        <time>2022-05-21 18:54:19</time>
      </trkpt>
      <trkpt lat="42.40442" lon="2.52716">
        <ele>581.8</ele>
        <time>2022-05-21 18:54:20</time>
      </trkpt>
      <trkpt lat="42.40443" lon="2.52714">
        <ele>581.8</ele>
        <time>2022-05-21 18:54:21</time>
      </trkpt>
      <trkpt lat="42.40445" lon="2.52712">
        <ele>582</ele>
        <time>2022-05-21 18:54:22</time>
      </trkpt>
      <trkpt lat="42.40447" lon="2.52711">
        <ele>582.2</ele>
        <time>2022-05-21 18:54:23</time>
      </trkpt>
      <trkpt lat="42.40449" lon="2.52709">
        <ele>582.4</ele>
        <time>2022-05-21 18:54:24</time>
      </trkpt>
      <trkpt lat="42.4045" lon="2.52707">
        <ele>582.6</ele>
        <time>2022-05-21 18:54:25</time>
      </trkpt>
      <trkpt lat="42.40452" lon="2.52706">
        <ele>582.6</ele>
        <time>2022-05-21 18:54:26</time>
      </trkpt>
      <trkpt lat="42.40454" lon="2.52705">
        <ele>582.8</ele>
        <time>2022-05-21 18:54:27</time>
      </trkpt>
      <trkpt lat="42.40456" lon="2.52704">
        <ele>583</ele>
        <time>2022-05-21 18:54:28</time>
      </trkpt>
      <trkpt lat="42.40458" lon="2.52704">
        <ele>583.2</ele>
        <time>2022-05-21 18:54:29</time>
      </trkpt>
      <trkpt lat="42.40459" lon="2.52703">
        <ele>583.2</ele>
        <time>2022-05-21 18:54:30</time>
      </trkpt>
      <trkpt lat="42.40461" lon="2.52702">
        <ele>583.4</ele>
        <time>2022-05-21 18:54:31</time>
      </trkpt>
      <trkpt lat="42.40463" lon="2.52702">
        <ele>583.6</ele>
        <time>2022-05-21 18:54:32</time>
      </trkpt>
      <trkpt lat="42.40465" lon="2.52701">
        <ele>583.6</ele>
        <time>2022-05-21 18:54:33</time>
      </trkpt>
      <trkpt lat="42.40466" lon="2.52701">
        <ele>583.8</ele>
        <time>2022-05-21 18:54:34</time>
      </trkpt>
      <trkpt lat="42.40468" lon="2.52701">
        <ele>584</ele>
        <time>2022-05-21 18:54:35</time>
      </trkpt>
      <trkpt lat="42.4047" lon="2.52701">
        <ele>584.2</ele>
        <time>2022-05-21 18:54:36</time>
      </trkpt>
      <trkpt lat="42.40472" lon="2.52701">
        <ele>584.4</ele>
        <time>2022-05-21 18:54:37</time>
      </trkpt>
      <trkpt lat="42.40474" lon="2.52701">
        <ele>584.4</ele>
        <time>2022-05-21 18:54:38</time>
      </trkpt>
      <trkpt lat="42.40476" lon="2.52702">
        <ele>584.6</ele>
        <time>2022-05-21 18:54:39</time>
      </trkpt>
      <trkpt lat="42.40478" lon="2.52702">
        <ele>584.8</ele>
        <time>2022-05-21 18:54:40</time>
      </trkpt>
      <trkpt lat="42.4048" lon="2.52702">
        <ele>585</ele>
        <time>2022-05-21 18:54:41</time>
      </trkpt>
      <trkpt lat="42.40483" lon="2.52702">
        <ele>585.2</ele>
        <time>2022-05-21 18:54:42</time>
      </trkpt>
      <trkpt lat="42.40485" lon="2.52703">
        <ele>585.4</ele>
        <time>2022-05-21 18:54:43</time>
      </trkpt>
      <trkpt lat="42.40487" lon="2.52703">
        <ele>585.6</ele>
        <time>2022-05-21 18:54:44</time>
      </trkpt>
      <trkpt lat="42.40489" lon="2.52703">
        <ele>585.8</ele>
        <time>2022-05-21 18:54:45</time>
      </trkpt>
      <trkpt lat="42.40491" lon="2.52703">
        <ele>586</ele>
        <time>2022-05-21 18:54:46</time>
      </trkpt>
      <trkpt lat="42.40493" lon="2.52703">
        <ele>586.2</ele>
        <time>2022-05-21 18:54:47</time>
      </trkpt>
      <trkpt lat="42.40495" lon="2.52703">
        <ele>586.4</ele>
        <time>2022-05-21 18:54:48</time>
      </trkpt>
      <trkpt lat="42.40497" lon="2.52702">
        <ele>586.6</ele>
        <time>2022-05-21 18:54:49</time>
      </trkpt>
      <trkpt lat="42.40499" lon="2.52702">
        <ele>586.6</ele>
        <time>2022-05-21 18:54:50</time>
      </trkpt>
      <trkpt lat="42.40501" lon="2.52701">
        <ele>586.8</ele>
        <time>2022-05-21 18:54:51</time>
      </trkpt>
      <trkpt lat="42.40502" lon="2.52701">
        <ele>587</ele>
        <time>2022-05-21 18:54:52</time>
      </trkpt>
      <trkpt lat="42.40504" lon="2.52701">
        <ele>587.2</ele>
        <time>2022-05-21 18:54:53</time>
      </trkpt>
      <trkpt lat="42.40506" lon="2.527">
        <ele>587.4</ele>
        <time>2022-05-21 18:54:54</time>
      </trkpt>
      <trkpt lat="42.40508" lon="2.52699">
        <ele>587.6</ele>
        <time>2022-05-21 18:54:55</time>
      </trkpt>
      <trkpt lat="42.40509" lon="2.52698">
        <ele>587.8</ele>
        <time>2022-05-21 18:54:56</time>
      </trkpt>
      <trkpt lat="42.40511" lon="2.52697">
        <ele>588</ele>
        <time>2022-05-21 18:54:57</time>
      </trkpt>
      <trkpt lat="42.40513" lon="2.52697">
        <ele>588.2</ele>
        <time>2022-05-21 18:54:58</time>
      </trkpt>
      <trkpt lat="42.40515" lon="2.52696">
        <ele>588.2</ele>
        <time>2022-05-21 18:54:59</time>
      </trkpt>
      <trkpt lat="42.40517" lon="2.52695">
        <ele>588.4</ele>
        <time>2022-05-21 18:55:00</time>
      </trkpt>
      <trkpt lat="42.40519" lon="2.52695">
        <ele>588.6</ele>
        <time>2022-05-21 18:55:01</time>
      </trkpt>
      <trkpt lat="42.4052" lon="2.52695">
        <ele>588.8</ele>
        <time>2022-05-21 18:55:02</time>
      </trkpt>
      <trkpt lat="42.40522" lon="2.52694">
        <ele>589</ele>
        <time>2022-05-21 18:55:03</time>
      </trkpt>
      <trkpt lat="42.40524" lon="2.52694">
        <ele>589</ele>
        <time>2022-05-21 18:55:04</time>
      </trkpt>
      <trkpt lat="42.40525" lon="2.52693">
        <ele>589.2</ele>
        <time>2022-05-21 18:55:05</time>
      </trkpt>
      <trkpt lat="42.40527" lon="2.52693">
        <ele>589.4</ele>
        <time>2022-05-21 18:55:06</time>
      </trkpt>
      <trkpt lat="42.40529" lon="2.52692">
        <ele>589.6</ele>
        <time>2022-05-21 18:55:07</time>
      </trkpt>
      <trkpt lat="42.40531" lon="2.52692">
        <ele>589.8</ele>
        <time>2022-05-21 18:55:08</time>
      </trkpt>
      <trkpt lat="42.40532" lon="2.52692">
        <ele>590</ele>
        <time>2022-05-21 18:55:09</time>
      </trkpt>
      <trkpt lat="42.40534" lon="2.52692">
        <ele>590.2</ele>
        <time>2022-05-21 18:55:10</time>
      </trkpt>
      <trkpt lat="42.40536" lon="2.52691">
        <ele>590.2</ele>
        <time>2022-05-21 18:55:11</time>
      </trkpt>
      <trkpt lat="42.40538" lon="2.5269">
        <ele>590.4</ele>
        <time>2022-05-21 18:55:12</time>
      </trkpt>
      <trkpt lat="42.4054" lon="2.5269">
        <ele>590.4</ele>
        <time>2022-05-21 18:55:13</time>
      </trkpt>
      <trkpt lat="42.40542" lon="2.52689">
        <ele>590.6</ele>
        <time>2022-05-21 18:55:14</time>
      </trkpt>
      <trkpt lat="42.40544" lon="2.52688">
        <ele>590.6</ele>
        <time>2022-05-21 18:55:15</time>
      </trkpt>
      <trkpt lat="42.40545" lon="2.52687">
        <ele>590.8</ele>
        <time>2022-05-21 18:55:16</time>
      </trkpt>
      <trkpt lat="42.40547" lon="2.52686">
        <ele>591</ele>
        <time>2022-05-21 18:55:17</time>
      </trkpt>
      <trkpt lat="42.40549" lon="2.52685">
        <ele>591</ele>
        <time>2022-05-21 18:55:18</time>
      </trkpt>
      <trkpt lat="42.4055" lon="2.52684">
        <ele>591.2</ele>
        <time>2022-05-21 18:55:19</time>
      </trkpt>
      <trkpt lat="42.40552" lon="2.52684">
        <ele>591.2</ele>
        <time>2022-05-21 18:55:20</time>
      </trkpt>
      <trkpt lat="42.40554" lon="2.52683">
        <ele>591.4</ele>
        <time>2022-05-21 18:55:21</time>
      </trkpt>
      <trkpt lat="42.40556" lon="2.52682">
        <ele>591.4</ele>
        <time>2022-05-21 18:55:22</time>
      </trkpt>
      <trkpt lat="42.40557" lon="2.52681">
        <ele>591.6</ele>
        <time>2022-05-21 18:55:23</time>
      </trkpt>
      <trkpt lat="42.40559" lon="2.5268">
        <ele>591.6</ele>
        <time>2022-05-21 18:55:24</time>
      </trkpt>
      <trkpt lat="42.4056" lon="2.5268">
        <ele>591.6</ele>
        <time>2022-05-21 18:55:25</time>
      </trkpt>
      <trkpt lat="42.40562" lon="2.52679">
        <ele>591.6</ele>
        <time>2022-05-21 18:55:26</time>
      </trkpt>
      <trkpt lat="42.40563" lon="2.52677">
        <ele>591.8</ele>
        <time>2022-05-21 18:55:27</time>
      </trkpt>
      <trkpt lat="42.40564" lon="2.52676">
        <ele>591.8</ele>
        <time>2022-05-21 18:55:28</time>
      </trkpt>
      <trkpt lat="42.40566" lon="2.52676">
        <ele>592</ele>
        <time>2022-05-21 18:55:29</time>
      </trkpt>
      <trkpt lat="42.40568" lon="2.52675">
        <ele>592</ele>
        <time>2022-05-21 18:55:30</time>
      </trkpt>
      <trkpt lat="42.4057" lon="2.52675">
        <ele>592.2</ele>
        <time>2022-05-21 18:55:31</time>
      </trkpt>
      <trkpt lat="42.40571" lon="2.52674">
        <ele>592.4</ele>
        <time>2022-05-21 18:55:32</time>
      </trkpt>
      <trkpt lat="42.40573" lon="2.52673">
        <ele>592.6</ele>
        <time>2022-05-21 18:55:33</time>
      </trkpt>
      <trkpt lat="42.40574" lon="2.52672">
        <ele>592.8</ele>
        <time>2022-05-21 18:55:34</time>
      </trkpt>
      <trkpt lat="42.40576" lon="2.52671">
        <ele>592.8</ele>
        <time>2022-05-21 18:55:35</time>
      </trkpt>
      <trkpt lat="42.40577" lon="2.5267">
        <ele>593</ele>
        <time>2022-05-21 18:55:36</time>
      </trkpt>
      <trkpt lat="42.40579" lon="2.52669">
        <ele>593.2</ele>
        <time>2022-05-21 18:55:37</time>
      </trkpt>
      <trkpt lat="42.40581" lon="2.52668">
        <ele>593.4</ele>
        <time>2022-05-21 18:55:38</time>
      </trkpt>
      <trkpt lat="42.40582" lon="2.52666">
        <ele>593.4</ele>
        <time>2022-05-21 18:55:39</time>
      </trkpt>
      <trkpt lat="42.40583" lon="2.52665">
        <ele>593.6</ele>
        <time>2022-05-21 18:55:40</time>
      </trkpt>
      <trkpt lat="42.40585" lon="2.52663">
        <ele>593.6</ele>
        <time>2022-05-21 18:55:41</time>
      </trkpt>
      <trkpt lat="42.40586" lon="2.52662">
        <ele>593.8</ele>
        <time>2022-05-21 18:55:42</time>
      </trkpt>
      <trkpt lat="42.40588" lon="2.5266">
        <ele>594</ele>
        <time>2022-05-21 18:55:43</time>
      </trkpt>
      <trkpt lat="42.40589" lon="2.52659">
        <ele>594.2</ele>
        <time>2022-05-21 18:55:44</time>
      </trkpt>
      <trkpt lat="42.40591" lon="2.52658">
        <ele>594.4</ele>
        <time>2022-05-21 18:55:45</time>
      </trkpt>
      <trkpt lat="42.40593" lon="2.52656">
        <ele>594.6</ele>
        <time>2022-05-21 18:55:46</time>
      </trkpt>
      <trkpt lat="42.40594" lon="2.52655">
        <ele>594.8</ele>
        <time>2022-05-21 18:55:47</time>
      </trkpt>
      <trkpt lat="42.40595" lon="2.52653">
        <ele>595</ele>
        <time>2022-05-21 18:55:48</time>
      </trkpt>
      <trkpt lat="42.40597" lon="2.52651">
        <ele>595.2</ele>
        <time>2022-05-21 18:55:49</time>
      </trkpt>
      <trkpt lat="42.40598" lon="2.5265">
        <ele>595.4</ele>
        <time>2022-05-21 18:55:50</time>
      </trkpt>
      <trkpt lat="42.40599" lon="2.52648">
        <ele>595.6</ele>
        <time>2022-05-21 18:55:51</time>
      </trkpt>
      <trkpt lat="42.406" lon="2.52647">
        <ele>595.8</ele>
        <time>2022-05-21 18:55:52</time>
      </trkpt>
      <trkpt lat="42.40602" lon="2.52645">
        <ele>595.8</ele>
        <time>2022-05-21 18:55:53</time>
      </trkpt>
      <trkpt lat="42.40603" lon="2.52643">
        <ele>596</ele>
        <time>2022-05-21 18:55:54</time>
      </trkpt>
      <trkpt lat="42.40605" lon="2.52642">
        <ele>596.2</ele>
        <time>2022-05-21 18:55:55</time>
      </trkpt>
      <trkpt lat="42.40606" lon="2.5264">
        <ele>596.4</ele>
        <time>2022-05-21 18:55:56</time>
      </trkpt>
      <trkpt lat="42.40608" lon="2.52639">
        <ele>596.4</ele>
        <time>2022-05-21 18:55:57</time>
      </trkpt>
      <trkpt lat="42.40609" lon="2.52637">
        <ele>596.6</ele>
        <time>2022-05-21 18:55:58</time>
      </trkpt>
      <trkpt lat="42.4061" lon="2.52635">
        <ele>596.8</ele>
        <time>2022-05-21 18:55:59</time>
      </trkpt>
      <trkpt lat="42.40612" lon="2.52634">
        <ele>597</ele>
        <time>2022-05-21 18:56:00</time>
      </trkpt>
      <trkpt lat="42.40613" lon="2.52632">
        <ele>597.2</ele>
        <time>2022-05-21 18:56:01</time>
      </trkpt>
      <trkpt lat="42.40614" lon="2.5263">
        <ele>597.4</ele>
        <time>2022-05-21 18:56:02</time>
      </trkpt>
      <trkpt lat="42.40615" lon="2.52628">
        <ele>597.6</ele>
        <time>2022-05-21 18:56:03</time>
      </trkpt>
      <trkpt lat="42.40616" lon="2.52627">
        <ele>597.8</ele>
        <time>2022-05-21 18:56:04</time>
      </trkpt>
      <trkpt lat="42.40618" lon="2.52625">
        <ele>598</ele>
        <time>2022-05-21 18:56:05</time>
      </trkpt>
      <trkpt lat="42.40619" lon="2.52623">
        <ele>598.2</ele>
        <time>2022-05-21 18:56:06</time>
      </trkpt>
      <trkpt lat="42.4062" lon="2.52622">
        <ele>598.4</ele>
        <time>2022-05-21 18:56:07</time>
      </trkpt>
      <trkpt lat="42.40621" lon="2.5262">
        <ele>598.6</ele>
        <time>2022-05-21 18:56:08</time>
      </trkpt>
      <trkpt lat="42.40622" lon="2.52618">
        <ele>598.8</ele>
        <time>2022-05-21 18:56:09</time>
      </trkpt>
      <trkpt lat="42.40624" lon="2.52617">
        <ele>598.8</ele>
        <time>2022-05-21 18:56:10</time>
      </trkpt>
      <trkpt lat="42.40625" lon="2.52615">
        <ele>599</ele>
        <time>2022-05-21 18:56:11</time>
      </trkpt>
      <trkpt lat="42.40626" lon="2.52614">
        <ele>599.2</ele>
        <time>2022-05-21 18:56:12</time>
      </trkpt>
      <trkpt lat="42.40627" lon="2.52612">
        <ele>599.4</ele>
        <time>2022-05-21 18:56:13</time>
      </trkpt>
      <trkpt lat="42.40628" lon="2.5261">
        <ele>599.4</ele>
        <time>2022-05-21 18:56:14</time>
      </trkpt>
      <trkpt lat="42.40629" lon="2.52608">
        <ele>599.6</ele>
        <time>2022-05-21 18:56:15</time>
      </trkpt>
      <trkpt lat="42.4063" lon="2.52606">
        <ele>599.8</ele>
        <time>2022-05-21 18:56:16</time>
      </trkpt>
      <trkpt lat="42.40632" lon="2.52604">
        <ele>600</ele>
        <time>2022-05-21 18:56:17</time>
      </trkpt>
      <trkpt lat="42.40633" lon="2.52601">
        <ele>600</ele>
        <time>2022-05-21 18:56:18</time>
      </trkpt>
      <trkpt lat="42.40634" lon="2.526">
        <ele>600.2</ele>
        <time>2022-05-21 18:56:19</time>
      </trkpt>
      <trkpt lat="42.40635" lon="2.52597">
        <ele>600.4</ele>
        <time>2022-05-21 18:56:20</time>
      </trkpt>
      <trkpt lat="42.40636" lon="2.52595">
        <ele>600.6</ele>
        <time>2022-05-21 18:56:21</time>
      </trkpt>
      <trkpt lat="42.40637" lon="2.52593">
        <ele>600.6</ele>
        <time>2022-05-21 18:56:22</time>
      </trkpt>
      <trkpt lat="42.40638" lon="2.52591">
        <ele>600.8</ele>
        <time>2022-05-21 18:56:23</time>
      </trkpt>
      <trkpt lat="42.40639" lon="2.52589">
        <ele>601</ele>
        <time>2022-05-21 18:56:24</time>
      </trkpt>
      <trkpt lat="42.40639" lon="2.52587">
        <ele>601.2</ele>
        <time>2022-05-21 18:56:25</time>
      </trkpt>
      <trkpt lat="42.4064" lon="2.52585">
        <ele>601.2</ele>
        <time>2022-05-21 18:56:26</time>
      </trkpt>
      <trkpt lat="42.40641" lon="2.52583">
        <ele>601.4</ele>
        <time>2022-05-21 18:56:27</time>
      </trkpt>
      <trkpt lat="42.40642" lon="2.5258">
        <ele>601.6</ele>
        <time>2022-05-21 18:56:28</time>
      </trkpt>
      <trkpt lat="42.40642" lon="2.52578">
        <ele>601.6</ele>
        <time>2022-05-21 18:56:29</time>
      </trkpt>
      <trkpt lat="42.40643" lon="2.52576">
        <ele>601.8</ele>
        <time>2022-05-21 18:56:30</time>
      </trkpt>
      <trkpt lat="42.40644" lon="2.52573">
        <ele>602</ele>
        <time>2022-05-21 18:56:31</time>
      </trkpt>
      <trkpt lat="42.40644" lon="2.52571">
        <ele>602.2</ele>
        <time>2022-05-21 18:56:32</time>
      </trkpt>
      <trkpt lat="42.40645" lon="2.52569">
        <ele>602.2</ele>
        <time>2022-05-21 18:56:33</time>
      </trkpt>
      <trkpt lat="42.40645" lon="2.52566">
        <ele>602.4</ele>
        <time>2022-05-21 18:56:34</time>
      </trkpt>
      <trkpt lat="42.40645" lon="2.52564">
        <ele>602.4</ele>
        <time>2022-05-21 18:56:35</time>
      </trkpt>
      <trkpt lat="42.40646" lon="2.52562">
        <ele>602.6</ele>
        <time>2022-05-21 18:56:36</time>
      </trkpt>
      <trkpt lat="42.40646" lon="2.5256">
        <ele>602.6</ele>
        <time>2022-05-21 18:56:37</time>
      </trkpt>
      <trkpt lat="42.40647" lon="2.52558">
        <ele>602.8</ele>
        <time>2022-05-21 18:56:38</time>
      </trkpt>
      <trkpt lat="42.40647" lon="2.52555">
        <ele>602.8</ele>
        <time>2022-05-21 18:56:39</time>
      </trkpt>
      <trkpt lat="42.40647" lon="2.52553">
        <ele>602.8</ele>
        <time>2022-05-21 18:56:40</time>
      </trkpt>
      <trkpt lat="42.40648" lon="2.5255">
        <ele>603</ele>
        <time>2022-05-21 18:56:41</time>
      </trkpt>
      <trkpt lat="42.40648" lon="2.52548">
        <ele>603</ele>
        <time>2022-05-21 18:56:42</time>
      </trkpt>
      <trkpt lat="42.40647" lon="2.52546">
        <ele>603</ele>
        <time>2022-05-21 18:56:43</time>
      </trkpt>
      <trkpt lat="42.40647" lon="2.52544">
        <ele>603</ele>
        <time>2022-05-21 18:56:44</time>
      </trkpt>
      <trkpt lat="42.40648" lon="2.52542">
        <ele>603</ele>
        <time>2022-05-21 18:56:45</time>
      </trkpt>
      <trkpt lat="42.40648" lon="2.5254">
        <ele>603.2</ele>
        <time>2022-05-21 18:56:46</time>
      </trkpt>
      <trkpt lat="42.40648" lon="2.52538">
        <ele>603.2</ele>
        <time>2022-05-21 18:56:47</time>
      </trkpt>
      <trkpt lat="42.40648" lon="2.52536">
        <ele>603.4</ele>
        <time>2022-05-21 18:56:48</time>
      </trkpt>
      <trkpt lat="42.40649" lon="2.52534">
        <ele>603.4</ele>
        <time>2022-05-21 18:56:49</time>
      </trkpt>
      <trkpt lat="42.40649" lon="2.52531">
        <ele>603.4</ele>
        <time>2022-05-21 18:56:50</time>
      </trkpt>
      <trkpt lat="42.4065" lon="2.52529">
        <ele>603.6</ele>
        <time>2022-05-21 18:56:51</time>
      </trkpt>
      <trkpt lat="42.4065" lon="2.52527">
        <ele>603.6</ele>
        <time>2022-05-21 18:56:52</time>
      </trkpt>
      <trkpt lat="42.4065" lon="2.52525">
        <ele>603.8</ele>
        <time>2022-05-21 18:56:53</time>
      </trkpt>
      <trkpt lat="42.40651" lon="2.52523">
        <ele>603.8</ele>
        <time>2022-05-21 18:56:54</time>
      </trkpt>
      <trkpt lat="42.40651" lon="2.52521">
        <ele>604</ele>
        <time>2022-05-21 18:56:55</time>
      </trkpt>
      <trkpt lat="42.40652" lon="2.52519">
        <ele>604.2</ele>
        <time>2022-05-21 18:56:56</time>
      </trkpt>
      <trkpt lat="42.40652" lon="2.52517">
        <ele>604.2</ele>
        <time>2022-05-21 18:56:57</time>
      </trkpt>
      <trkpt lat="42.40653" lon="2.52515">
        <ele>604.6</ele>
        <time>2022-05-21 18:56:58</time>
      </trkpt>
      <trkpt lat="42.40653" lon="2.52513">
        <ele>605</ele>
        <time>2022-05-21 18:56:59</time>
      </trkpt>
      <trkpt lat="42.40654" lon="2.52512">
        <ele>605.4</ele>
        <time>2022-05-21 18:57:00</time>
      </trkpt>
      <trkpt lat="42.40654" lon="2.5251">
        <ele>605.8</ele>
        <time>2022-05-21 18:57:01</time>
      </trkpt>
      <trkpt lat="42.40655" lon="2.52508">
        <ele>606</ele>
        <time>2022-05-21 18:57:02</time>
      </trkpt>
      <trkpt lat="42.40655" lon="2.52506">
        <ele>606</ele>
        <time>2022-05-21 18:57:03</time>
      </trkpt>
      <trkpt lat="42.40656" lon="2.52504">
        <ele>606</ele>
        <time>2022-05-21 18:57:04</time>
      </trkpt>
      <trkpt lat="42.40657" lon="2.52502">
        <ele>606</ele>
        <time>2022-05-21 18:57:05</time>
      </trkpt>
      <trkpt lat="42.40657" lon="2.525">
        <ele>606</ele>
        <time>2022-05-21 18:57:06</time>
      </trkpt>
      <trkpt lat="42.40658" lon="2.52498">
        <ele>606</ele>
        <time>2022-05-21 18:57:07</time>
      </trkpt>
      <trkpt lat="42.40659" lon="2.52496">
        <ele>606.2</ele>
        <time>2022-05-21 18:57:08</time>
      </trkpt>
      <trkpt lat="42.40659" lon="2.52494">
        <ele>606.4</ele>
        <time>2022-05-21 18:57:09</time>
      </trkpt>
      <trkpt lat="42.4066" lon="2.52492">
        <ele>606.4</ele>
        <time>2022-05-21 18:57:10</time>
      </trkpt>
      <trkpt lat="42.40661" lon="2.5249">
        <ele>606.4</ele>
        <time>2022-05-21 18:57:11</time>
      </trkpt>
      <trkpt lat="42.40661" lon="2.52488">
        <ele>606.6</ele>
        <time>2022-05-21 18:57:12</time>
      </trkpt>
      <trkpt lat="42.40662" lon="2.52485">
        <ele>606.8</ele>
        <time>2022-05-21 18:57:13</time>
      </trkpt>
      <trkpt lat="42.40663" lon="2.52483">
        <ele>607</ele>
        <time>2022-05-21 18:57:14</time>
      </trkpt>
      <trkpt lat="42.40663" lon="2.52481">
        <ele>607.4</ele>
        <time>2022-05-21 18:57:15</time>
      </trkpt>
      <trkpt lat="42.40664" lon="2.52479">
        <ele>607.8</ele>
        <time>2022-05-21 18:57:16</time>
      </trkpt>
      <trkpt lat="42.40665" lon="2.52477">
        <ele>608</ele>
        <time>2022-05-21 18:57:17</time>
      </trkpt>
      <trkpt lat="42.40665" lon="2.52474">
        <ele>608.2</ele>
        <time>2022-05-21 18:57:18</time>
      </trkpt>
      <trkpt lat="42.40666" lon="2.52472">
        <ele>608.4</ele>
        <time>2022-05-21 18:57:19</time>
      </trkpt>
      <trkpt lat="42.40666" lon="2.5247">
        <ele>608.6</ele>
        <time>2022-05-21 18:57:20</time>
      </trkpt>
      <trkpt lat="42.40667" lon="2.52467">
        <ele>608.6</ele>
        <time>2022-05-21 18:57:21</time>
      </trkpt>
      <trkpt lat="42.40668" lon="2.52465">
        <ele>608.8</ele>
        <time>2022-05-21 18:57:22</time>
      </trkpt>
      <trkpt lat="42.40668" lon="2.52463">
        <ele>608.8</ele>
        <time>2022-05-21 18:57:23</time>
      </trkpt>
      <trkpt lat="42.40668" lon="2.5246">
        <ele>609.2</ele>
        <time>2022-05-21 18:57:24</time>
      </trkpt>
      <trkpt lat="42.40669" lon="2.52458">
        <ele>609.2</ele>
        <time>2022-05-21 18:57:25</time>
      </trkpt>
      <trkpt lat="42.40669" lon="2.52455">
        <ele>609.4</ele>
        <time>2022-05-21 18:57:26</time>
      </trkpt>
      <trkpt lat="42.4067" lon="2.52453">
        <ele>609.6</ele>
        <time>2022-05-21 18:57:27</time>
      </trkpt>
      <trkpt lat="42.4067" lon="2.52451">
        <ele>609.6</ele>
        <time>2022-05-21 18:57:28</time>
      </trkpt>
      <trkpt lat="42.4067" lon="2.52449">
        <ele>609.8</ele>
        <time>2022-05-21 18:57:29</time>
      </trkpt>
      <trkpt lat="42.40671" lon="2.52447">
        <ele>609.8</ele>
        <time>2022-05-21 18:57:30</time>
      </trkpt>
      <trkpt lat="42.40671" lon="2.52445">
        <ele>610</ele>
        <time>2022-05-21 18:57:31</time>
      </trkpt>
      <trkpt lat="42.40672" lon="2.52443">
        <ele>610.2</ele>
        <time>2022-05-21 18:57:32</time>
      </trkpt>
      <trkpt lat="42.40672" lon="2.5244">
        <ele>610.4</ele>
        <time>2022-05-21 18:57:33</time>
      </trkpt>
      <trkpt lat="42.40672" lon="2.52438">
        <ele>610.8</ele>
        <time>2022-05-21 18:57:34</time>
      </trkpt>
      <trkpt lat="42.40673" lon="2.52436">
        <ele>611</ele>
        <time>2022-05-21 18:57:35</time>
      </trkpt>
      <trkpt lat="42.40674" lon="2.52434">
        <ele>611.4</ele>
        <time>2022-05-21 18:57:36</time>
      </trkpt>
      <trkpt lat="42.40675" lon="2.52433">
        <ele>611.6</ele>
        <time>2022-05-21 18:57:37</time>
      </trkpt>
      <trkpt lat="42.40675" lon="2.52431">
        <ele>611.8</ele>
        <time>2022-05-21 18:57:38</time>
      </trkpt>
      <trkpt lat="42.40675" lon="2.52429">
        <ele>611.8</ele>
        <time>2022-05-21 18:57:39</time>
      </trkpt>
      <trkpt lat="42.40675" lon="2.52426">
        <ele>612</ele>
        <time>2022-05-21 18:57:40</time>
      </trkpt>
      <trkpt lat="42.40675" lon="2.52424">
        <ele>612</ele>
        <time>2022-05-21 18:57:41</time>
      </trkpt>
      <trkpt lat="42.40675" lon="2.52421">
        <ele>612</ele>
        <time>2022-05-21 18:57:42</time>
      </trkpt>
      <trkpt lat="42.40676" lon="2.52418">
        <ele>612</ele>
        <time>2022-05-21 18:57:43</time>
      </trkpt>
      <trkpt lat="42.40676" lon="2.52416">
        <ele>612.2</ele>
        <time>2022-05-21 18:57:44</time>
      </trkpt>
      <trkpt lat="42.40676" lon="2.52413">
        <ele>612.2</ele>
        <time>2022-05-21 18:57:45</time>
      </trkpt>
      <trkpt lat="42.40677" lon="2.52411">
        <ele>612.4</ele>
        <time>2022-05-21 18:57:46</time>
      </trkpt>
      <trkpt lat="42.40677" lon="2.52408">
        <ele>612.6</ele>
        <time>2022-05-21 18:57:47</time>
      </trkpt>
      <trkpt lat="42.40677" lon="2.52406">
        <ele>612.6</ele>
        <time>2022-05-21 18:57:48</time>
      </trkpt>
      <trkpt lat="42.40678" lon="2.52403">
        <ele>612.8</ele>
        <time>2022-05-21 18:57:49</time>
      </trkpt>
      <trkpt lat="42.40678" lon="2.52401">
        <ele>613</ele>
        <time>2022-05-21 18:57:50</time>
      </trkpt>
      <trkpt lat="42.40679" lon="2.52398">
        <ele>613.2</ele>
        <time>2022-05-21 18:57:51</time>
      </trkpt>
      <trkpt lat="42.40679" lon="2.52396">
        <ele>613.4</ele>
        <time>2022-05-21 18:57:52</time>
      </trkpt>
      <trkpt lat="42.40679" lon="2.52393">
        <ele>613.4</ele>
        <time>2022-05-21 18:57:53</time>
      </trkpt>
      <trkpt lat="42.40679" lon="2.52391">
        <ele>613.8</ele>
        <time>2022-05-21 18:57:54</time>
      </trkpt>
      <trkpt lat="42.4068" lon="2.52389">
        <ele>614.2</ele>
        <time>2022-05-21 18:57:55</time>
      </trkpt>
      <trkpt lat="42.40681" lon="2.52387">
        <ele>614.4</ele>
        <time>2022-05-21 18:57:56</time>
      </trkpt>
      <trkpt lat="42.40681" lon="2.52384">
        <ele>614.6</ele>
        <time>2022-05-21 18:57:57</time>
      </trkpt>
      <trkpt lat="42.40682" lon="2.52382">
        <ele>615</ele>
        <time>2022-05-21 18:57:58</time>
      </trkpt>
      <trkpt lat="42.40682" lon="2.5238">
        <ele>615.2</ele>
        <time>2022-05-21 18:57:59</time>
      </trkpt>
      <trkpt lat="42.40683" lon="2.52377">
        <ele>615.6</ele>
        <time>2022-05-21 18:58:00</time>
      </trkpt>
      <trkpt lat="42.40683" lon="2.52375">
        <ele>615.8</ele>
        <time>2022-05-21 18:58:01</time>
      </trkpt>
      <trkpt lat="42.40683" lon="2.52373">
        <ele>616</ele>
        <time>2022-05-21 18:58:02</time>
      </trkpt>
      <trkpt lat="42.40684" lon="2.5237">
        <ele>616.2</ele>
        <time>2022-05-21 18:58:03</time>
      </trkpt>
      <trkpt lat="42.40684" lon="2.52368">
        <ele>616.2</ele>
        <time>2022-05-21 18:58:04</time>
      </trkpt>
      <trkpt lat="42.40685" lon="2.52365">
        <ele>616.4</ele>
        <time>2022-05-21 18:58:05</time>
      </trkpt>
      <trkpt lat="42.40685" lon="2.52363">
        <ele>616.4</ele>
        <time>2022-05-21 18:58:06</time>
      </trkpt>
      <trkpt lat="42.40685" lon="2.52361">
        <ele>616.4</ele>
        <time>2022-05-21 18:58:07</time>
      </trkpt>
      <trkpt lat="42.40686" lon="2.52359">
        <ele>616.4</ele>
        <time>2022-05-21 18:58:08</time>
      </trkpt>
      <trkpt lat="42.40686" lon="2.52356">
        <ele>616.6</ele>
        <time>2022-05-21 18:58:09</time>
      </trkpt>
      <trkpt lat="42.40687" lon="2.52354">
        <ele>616.6</ele>
        <time>2022-05-21 18:58:10</time>
      </trkpt>
      <trkpt lat="42.40688" lon="2.52351">
        <ele>616.8</ele>
        <time>2022-05-21 18:58:11</time>
      </trkpt>
      <trkpt lat="42.40688" lon="2.52349">
        <ele>617</ele>
        <time>2022-05-21 18:58:12</time>
      </trkpt>
      <trkpt lat="42.40689" lon="2.52347">
        <ele>617.2</ele>
        <time>2022-05-21 18:58:13</time>
      </trkpt>
      <trkpt lat="42.4069" lon="2.52344">
        <ele>617.4</ele>
        <time>2022-05-21 18:58:14</time>
      </trkpt>
      <trkpt lat="42.40691" lon="2.52342">
        <ele>617.8</ele>
        <time>2022-05-21 18:58:15</time>
      </trkpt>
      <trkpt lat="42.40691" lon="2.5234">
        <ele>618</ele>
        <time>2022-05-21 18:58:16</time>
      </trkpt>
      <trkpt lat="42.40692" lon="2.52339">
        <ele>618</ele>
        <time>2022-05-21 18:58:17</time>
      </trkpt>
      <trkpt lat="42.40693" lon="2.52337">
        <ele>618.2</ele>
        <time>2022-05-21 18:58:18</time>
      </trkpt>
      <trkpt lat="42.40693" lon="2.52335">
        <ele>618.4</ele>
        <time>2022-05-21 18:58:19</time>
      </trkpt>
      <trkpt lat="42.40693" lon="2.52333">
        <ele>618.6</ele>
        <time>2022-05-21 18:58:20</time>
      </trkpt>
      <trkpt lat="42.40694" lon="2.52331">
        <ele>618.8</ele>
        <time>2022-05-21 18:58:21</time>
      </trkpt>
      <trkpt lat="42.40694" lon="2.52328">
        <ele>618.8</ele>
        <time>2022-05-21 18:58:22</time>
      </trkpt>
      <trkpt lat="42.40695" lon="2.52326">
        <ele>619</ele>
        <time>2022-05-21 18:58:23</time>
      </trkpt>
      <trkpt lat="42.40696" lon="2.52323">
        <ele>619</ele>
        <time>2022-05-21 18:58:24</time>
      </trkpt>
      <trkpt lat="42.40696" lon="2.52321">
        <ele>619.2</ele>
        <time>2022-05-21 18:58:25</time>
      </trkpt>
      <trkpt lat="42.40697" lon="2.52319">
        <ele>619.2</ele>
        <time>2022-05-21 18:58:26</time>
      </trkpt>
      <trkpt lat="42.40697" lon="2.52318">
        <ele>619.4</ele>
        <time>2022-05-21 18:58:27</time>
      </trkpt>
      <trkpt lat="42.40698" lon="2.52316">
        <ele>619.6</ele>
        <time>2022-05-21 18:58:28</time>
      </trkpt>
      <trkpt lat="42.40698" lon="2.52314">
        <ele>619.6</ele>
        <time>2022-05-21 18:58:29</time>
      </trkpt>
      <trkpt lat="42.40699" lon="2.52312">
        <ele>619.8</ele>
        <time>2022-05-21 18:58:30</time>
      </trkpt>
      <trkpt lat="42.407" lon="2.5231">
        <ele>620</ele>
        <time>2022-05-21 18:58:31</time>
      </trkpt>
      <trkpt lat="42.40701" lon="2.52309">
        <ele>620.2</ele>
        <time>2022-05-21 18:58:32</time>
      </trkpt>
      <trkpt lat="42.40701" lon="2.52307">
        <ele>620.4</ele>
        <time>2022-05-21 18:58:33</time>
      </trkpt>
      <trkpt lat="42.40702" lon="2.52305">
        <ele>620.6</ele>
        <time>2022-05-21 18:58:34</time>
      </trkpt>
      <trkpt lat="42.40703" lon="2.52303">
        <ele>620.8</ele>
        <time>2022-05-21 18:58:35</time>
      </trkpt>
      <trkpt lat="42.40703" lon="2.52301">
        <ele>621</ele>
        <time>2022-05-21 18:58:36</time>
      </trkpt>
      <trkpt lat="42.40704" lon="2.52299">
        <ele>621.2</ele>
        <time>2022-05-21 18:58:37</time>
      </trkpt>
      <trkpt lat="42.40704" lon="2.52297">
        <ele>621.4</ele>
        <time>2022-05-21 18:58:38</time>
      </trkpt>
      <trkpt lat="42.40704" lon="2.52295">
        <ele>621.6</ele>
        <time>2022-05-21 18:58:39</time>
      </trkpt>
      <trkpt lat="42.40705" lon="2.52292">
        <ele>621.8</ele>
        <time>2022-05-21 18:58:40</time>
      </trkpt>
      <trkpt lat="42.40705" lon="2.5229">
        <ele>621.8</ele>
        <time>2022-05-21 18:58:41</time>
      </trkpt>
      <trkpt lat="42.40705" lon="2.52287">
        <ele>622</ele>
        <time>2022-05-21 18:58:42</time>
      </trkpt>
      <trkpt lat="42.40706" lon="2.52285">
        <ele>622.2</ele>
        <time>2022-05-21 18:58:43</time>
      </trkpt>
      <trkpt lat="42.40706" lon="2.52282">
        <ele>622.2</ele>
        <time>2022-05-21 18:58:44</time>
      </trkpt>
      <trkpt lat="42.40706" lon="2.5228">
        <ele>622.4</ele>
        <time>2022-05-21 18:58:45</time>
      </trkpt>
      <trkpt lat="42.40707" lon="2.52277">
        <ele>622.6</ele>
        <time>2022-05-21 18:58:46</time>
      </trkpt>
      <trkpt lat="42.40707" lon="2.52275">
        <ele>622.8</ele>
        <time>2022-05-21 18:58:47</time>
      </trkpt>
      <trkpt lat="42.40708" lon="2.52273">
        <ele>623.2</ele>
        <time>2022-05-21 18:58:48</time>
      </trkpt>
      <trkpt lat="42.40708" lon="2.5227">
        <ele>623.4</ele>
        <time>2022-05-21 18:58:49</time>
      </trkpt>
      <trkpt lat="42.40708" lon="2.52268">
        <ele>623.6</ele>
        <time>2022-05-21 18:58:50</time>
      </trkpt>
      <trkpt lat="42.40708" lon="2.52266">
        <ele>623.8</ele>
        <time>2022-05-21 18:58:51</time>
      </trkpt>
      <trkpt lat="42.40708" lon="2.52263">
        <ele>624</ele>
        <time>2022-05-21 18:58:52</time>
      </trkpt>
      <trkpt lat="42.40708" lon="2.52261">
        <ele>624.2</ele>
        <time>2022-05-21 18:58:53</time>
      </trkpt>
      <trkpt lat="42.40708" lon="2.52259">
        <ele>624.4</ele>
        <time>2022-05-21 18:58:54</time>
      </trkpt>
      <trkpt lat="42.40709" lon="2.52257">
        <ele>624.6</ele>
        <time>2022-05-21 18:58:55</time>
      </trkpt>
      <trkpt lat="42.40709" lon="2.52255">
        <ele>624.6</ele>
        <time>2022-05-21 18:58:56</time>
      </trkpt>
      <trkpt lat="42.40709" lon="2.52252">
        <ele>624.8</ele>
        <time>2022-05-21 18:58:57</time>
      </trkpt>
      <trkpt lat="42.40709" lon="2.5225">
        <ele>625</ele>
        <time>2022-05-21 18:58:58</time>
      </trkpt>
      <trkpt lat="42.40709" lon="2.52247">
        <ele>625</ele>
        <time>2022-05-21 18:58:59</time>
      </trkpt>
      <trkpt lat="42.40709" lon="2.52245">
        <ele>625.2</ele>
        <time>2022-05-21 18:59:00</time>
      </trkpt>
      <trkpt lat="42.40709" lon="2.52242">
        <ele>625.2</ele>
        <time>2022-05-21 18:59:01</time>
      </trkpt>
      <trkpt lat="42.4071" lon="2.5224">
        <ele>625.2</ele>
        <time>2022-05-21 18:59:02</time>
      </trkpt>
      <trkpt lat="42.40709" lon="2.52237">
        <ele>625.2</ele>
        <time>2022-05-21 18:59:03</time>
      </trkpt>
      <trkpt lat="42.40709" lon="2.52235">
        <ele>625.4</ele>
        <time>2022-05-21 18:59:04</time>
      </trkpt>
      <trkpt lat="42.40709" lon="2.52232">
        <ele>625.4</ele>
        <time>2022-05-21 18:59:05</time>
      </trkpt>
      <trkpt lat="42.40709" lon="2.5223">
        <ele>625.4</ele>
        <time>2022-05-21 18:59:06</time>
      </trkpt>
      <trkpt lat="42.40709" lon="2.52227">
        <ele>625.6</ele>
        <time>2022-05-21 18:59:07</time>
      </trkpt>
      <trkpt lat="42.40708" lon="2.52224">
        <ele>625.8</ele>
        <time>2022-05-21 18:59:08</time>
      </trkpt>
      <trkpt lat="42.40708" lon="2.52222">
        <ele>626</ele>
        <time>2022-05-21 18:59:09</time>
      </trkpt>
      <trkpt lat="42.40708" lon="2.52219">
        <ele>626.2</ele>
        <time>2022-05-21 18:59:10</time>
      </trkpt>
      <trkpt lat="42.40708" lon="2.52216">
        <ele>626.2</ele>
        <time>2022-05-21 18:59:11</time>
      </trkpt>
      <trkpt lat="42.40709" lon="2.52213">
        <ele>626.6</ele>
        <time>2022-05-21 18:59:12</time>
      </trkpt>
      <trkpt lat="42.40709" lon="2.5221">
        <ele>626.6</ele>
        <time>2022-05-21 18:59:13</time>
      </trkpt>
      <trkpt lat="42.40709" lon="2.52208">
        <ele>626.8</ele>
        <time>2022-05-21 18:59:14</time>
      </trkpt>
      <trkpt lat="42.40709" lon="2.52205">
        <ele>627</ele>
        <time>2022-05-21 18:59:15</time>
      </trkpt>
      <trkpt lat="42.4071" lon="2.52203">
        <ele>627.2</ele>
        <time>2022-05-21 18:59:16</time>
      </trkpt>
      <trkpt lat="42.4071" lon="2.52201">
        <ele>627.4</ele>
        <time>2022-05-21 18:59:17</time>
      </trkpt>
      <trkpt lat="42.4071" lon="2.52199">
        <ele>627.6</ele>
        <time>2022-05-21 18:59:18</time>
      </trkpt>
      <trkpt lat="42.40711" lon="2.52197">
        <ele>627.8</ele>
        <time>2022-05-21 18:59:19</time>
      </trkpt>
      <trkpt lat="42.40711" lon="2.52195">
        <ele>628</ele>
        <time>2022-05-21 18:59:20</time>
      </trkpt>
      <trkpt lat="42.40711" lon="2.52193">
        <ele>628.2</ele>
        <time>2022-05-21 18:59:21</time>
      </trkpt>
      <trkpt lat="42.40711" lon="2.5219">
        <ele>628.6</ele>
        <time>2022-05-21 18:59:22</time>
      </trkpt>
      <trkpt lat="42.40711" lon="2.52188">
        <ele>628.8</ele>
        <time>2022-05-21 18:59:23</time>
      </trkpt>
      <trkpt lat="42.40712" lon="2.52186">
        <ele>629.2</ele>
        <time>2022-05-21 18:59:24</time>
      </trkpt>
      <trkpt lat="42.40713" lon="2.52184">
        <ele>629.4</ele>
        <time>2022-05-21 18:59:25</time>
      </trkpt>
      <trkpt lat="42.40714" lon="2.52182">
        <ele>629.4</ele>
        <time>2022-05-21 18:59:26</time>
      </trkpt>
      <trkpt lat="42.40715" lon="2.5218">
        <ele>629.6</ele>
        <time>2022-05-21 18:59:27</time>
      </trkpt>
      <trkpt lat="42.40716" lon="2.52178">
        <ele>630</ele>
        <time>2022-05-21 18:59:28</time>
      </trkpt>
      <trkpt lat="42.40717" lon="2.52176">
        <ele>630.2</ele>
        <time>2022-05-21 18:59:29</time>
      </trkpt>
      <trkpt lat="42.40718" lon="2.52174">
        <ele>630.2</ele>
        <time>2022-05-21 18:59:30</time>
      </trkpt>
      <trkpt lat="42.40718" lon="2.52171">
        <ele>630.2</ele>
        <time>2022-05-21 18:59:31</time>
      </trkpt>
      <trkpt lat="42.40719" lon="2.52169">
        <ele>630</ele>
        <time>2022-05-21 18:59:32</time>
      </trkpt>
      <trkpt lat="42.4072" lon="2.52166">
        <ele>630</ele>
        <time>2022-05-21 18:59:33</time>
      </trkpt>
      <trkpt lat="42.40721" lon="2.52164">
        <ele>630</ele>
        <time>2022-05-21 18:59:34</time>
      </trkpt>
      <trkpt lat="42.40722" lon="2.52161">
        <ele>630</ele>
        <time>2022-05-21 18:59:35</time>
      </trkpt>
      <trkpt lat="42.40724" lon="2.52159">
        <ele>630</ele>
        <time>2022-05-21 18:59:36</time>
      </trkpt>
      <trkpt lat="42.40725" lon="2.52156">
        <ele>630.2</ele>
        <time>2022-05-21 18:59:37</time>
      </trkpt>
      <trkpt lat="42.40725" lon="2.52154">
        <ele>630.2</ele>
        <time>2022-05-21 18:59:38</time>
      </trkpt>
      <trkpt lat="42.40726" lon="2.52152">
        <ele>630.4</ele>
        <time>2022-05-21 18:59:39</time>
      </trkpt>
      <trkpt lat="42.40727" lon="2.52149">
        <ele>630.4</ele>
        <time>2022-05-21 18:59:40</time>
      </trkpt>
      <trkpt lat="42.40728" lon="2.52147">
        <ele>630.6</ele>
        <time>2022-05-21 18:59:41</time>
      </trkpt>
      <trkpt lat="42.40729" lon="2.52145">
        <ele>631.2</ele>
        <time>2022-05-21 18:59:42</time>
      </trkpt>
      <trkpt lat="42.4073" lon="2.52143">
        <ele>631.6</ele>
        <time>2022-05-21 18:59:43</time>
      </trkpt>
      <trkpt lat="42.40731" lon="2.5214">
        <ele>631.2</ele>
        <time>2022-05-21 18:59:44</time>
      </trkpt>
      <trkpt lat="42.40732" lon="2.52138">
        <ele>631</ele>
        <time>2022-05-21 18:59:45</time>
      </trkpt>
      <trkpt lat="42.40734" lon="2.52136">
        <ele>630.6</ele>
        <time>2022-05-21 18:59:46</time>
      </trkpt>
      <trkpt lat="42.40735" lon="2.52134">
        <ele>630</ele>
        <time>2022-05-21 18:59:47</time>
      </trkpt>
      <trkpt lat="42.40736" lon="2.52132">
        <ele>629.4</ele>
        <time>2022-05-21 18:59:48</time>
      </trkpt>
      <trkpt lat="42.40737" lon="2.5213">
        <ele>629</ele>
        <time>2022-05-21 18:59:49</time>
      </trkpt>
      <trkpt lat="42.40739" lon="2.52128">
        <ele>628.6</ele>
        <time>2022-05-21 18:59:50</time>
      </trkpt>
      <trkpt lat="42.4074" lon="2.52125">
        <ele>628.4</ele>
        <time>2022-05-21 18:59:51</time>
      </trkpt>
      <trkpt lat="42.40741" lon="2.52123">
        <ele>628.2</ele>
        <time>2022-05-21 18:59:52</time>
      </trkpt>
      <trkpt lat="42.40742" lon="2.52121">
        <ele>628.2</ele>
        <time>2022-05-21 18:59:53</time>
      </trkpt>
      <trkpt lat="42.40743" lon="2.52119">
        <ele>628.2</ele>
        <time>2022-05-21 18:59:54</time>
      </trkpt>
      <trkpt lat="42.40744" lon="2.52116">
        <ele>628.4</ele>
        <time>2022-05-21 18:59:55</time>
      </trkpt>
      <trkpt lat="42.40746" lon="2.52114">
        <ele>629</ele>
        <time>2022-05-21 18:59:56</time>
      </trkpt>
      <trkpt lat="42.40747" lon="2.52112">
        <ele>629.6</ele>
        <time>2022-05-21 18:59:57</time>
      </trkpt>
      <trkpt lat="42.40748" lon="2.5211">
        <ele>629.8</ele>
        <time>2022-05-21 18:59:58</time>
      </trkpt>
      <trkpt lat="42.40749" lon="2.52107">
        <ele>629.8</ele>
        <time>2022-05-21 18:59:59</time>
      </trkpt>
      <trkpt lat="42.40751" lon="2.52105">
        <ele>630</ele>
        <time>2022-05-21 19:00:00</time>
      </trkpt>
      <trkpt lat="42.40752" lon="2.52103">
        <ele>630.2</ele>
        <time>2022-05-21 19:00:01</time>
      </trkpt>
      <trkpt lat="42.40753" lon="2.52101">
        <ele>630.6</ele>
        <time>2022-05-21 19:00:02</time>
      </trkpt>
      <trkpt lat="42.40755" lon="2.52099">
        <ele>630.8</ele>
        <time>2022-05-21 19:00:03</time>
      </trkpt>
      <trkpt lat="42.40756" lon="2.52096">
        <ele>631.2</ele>
        <time>2022-05-21 19:00:04</time>
      </trkpt>
      <trkpt lat="42.40757" lon="2.52094">
        <ele>632</ele>
        <time>2022-05-21 19:00:05</time>
      </trkpt>
      <trkpt lat="42.40758" lon="2.52091">
        <ele>632</ele>
        <time>2022-05-21 19:00:06</time>
      </trkpt>
      <trkpt lat="42.40759" lon="2.52089">
        <ele>631.8</ele>
        <time>2022-05-21 19:00:07</time>
      </trkpt>
      <trkpt lat="42.40761" lon="2.52086">
        <ele>631.6</ele>
        <time>2022-05-21 19:00:08</time>
      </trkpt>
      <trkpt lat="42.40762" lon="2.52084">
        <ele>631.4</ele>
        <time>2022-05-21 19:00:09</time>
      </trkpt>
      <trkpt lat="42.40763" lon="2.52082">
        <ele>631</ele>
        <time>2022-05-21 19:00:10</time>
      </trkpt>
      <trkpt lat="42.40765" lon="2.5208">
        <ele>631</ele>
        <time>2022-05-21 19:00:11</time>
      </trkpt>
      <trkpt lat="42.40766" lon="2.52078">
        <ele>631.2</ele>
        <time>2022-05-21 19:00:12</time>
      </trkpt>
      <trkpt lat="42.40767" lon="2.52076">
        <ele>631.4</ele>
        <time>2022-05-21 19:00:13</time>
      </trkpt>
      <trkpt lat="42.40769" lon="2.52073">
        <ele>631.6</ele>
        <time>2022-05-21 19:00:14</time>
      </trkpt>
      <trkpt lat="42.4077" lon="2.52071">
        <ele>631.8</ele>
        <time>2022-05-21 19:00:15</time>
      </trkpt>
      <trkpt lat="42.40771" lon="2.52069">
        <ele>631.8</ele>
        <time>2022-05-21 19:00:16</time>
      </trkpt>
      <trkpt lat="42.40772" lon="2.52066">
        <ele>631.8</ele>
        <time>2022-05-21 19:00:17</time>
      </trkpt>
      <trkpt lat="42.40773" lon="2.52064">
        <ele>631.6</ele>
        <time>2022-05-21 19:00:18</time>
      </trkpt>
      <trkpt lat="42.40773" lon="2.52062">
        <ele>631.6</ele>
        <time>2022-05-21 19:00:19</time>
      </trkpt>
      <trkpt lat="42.40775" lon="2.52059">
        <ele>631.8</ele>
        <time>2022-05-21 19:00:20</time>
      </trkpt>
      <trkpt lat="42.40776" lon="2.52057">
        <ele>632</ele>
        <time>2022-05-21 19:00:21</time>
      </trkpt>
      <trkpt lat="42.40777" lon="2.52054">
        <ele>632</ele>
        <time>2022-05-21 19:00:22</time>
      </trkpt>
      <trkpt lat="42.40778" lon="2.52052">
        <ele>632</ele>
        <time>2022-05-21 19:00:23</time>
      </trkpt>
      <trkpt lat="42.40779" lon="2.5205">
        <ele>632</ele>
        <time>2022-05-21 19:00:24</time>
      </trkpt>
      <trkpt lat="42.4078" lon="2.52047">
        <ele>632</ele>
        <time>2022-05-21 19:00:25</time>
      </trkpt>
      <trkpt lat="42.40782" lon="2.52045">
        <ele>632</ele>
        <time>2022-05-21 19:00:26</time>
      </trkpt>
      <trkpt lat="42.40783" lon="2.52043">
        <ele>632</ele>
        <time>2022-05-21 19:00:27</time>
      </trkpt>
      <trkpt lat="42.40784" lon="2.5204">
        <ele>632</ele>
        <time>2022-05-21 19:00:28</time>
      </trkpt>
      <trkpt lat="42.40785" lon="2.52038">
        <ele>632</ele>
        <time>2022-05-21 19:00:29</time>
      </trkpt>
      <trkpt lat="42.40786" lon="2.52036">
        <ele>632</ele>
        <time>2022-05-21 19:00:30</time>
      </trkpt>
      <trkpt lat="42.40787" lon="2.52033">
        <ele>632</ele>
        <time>2022-05-21 19:00:31</time>
      </trkpt>
      <trkpt lat="42.40788" lon="2.52031">
        <ele>632</ele>
        <time>2022-05-21 19:00:32</time>
      </trkpt>
      <trkpt lat="42.4079" lon="2.52029">
        <ele>632</ele>
        <time>2022-05-21 19:00:33</time>
      </trkpt>
      <trkpt lat="42.40791" lon="2.52026">
        <ele>632</ele>
        <time>2022-05-21 19:00:34</time>
      </trkpt>
      <trkpt lat="42.40792" lon="2.52024">
        <ele>632</ele>
        <time>2022-05-21 19:00:35</time>
      </trkpt>
      <trkpt lat="42.40793" lon="2.52022">
        <ele>632</ele>
        <time>2022-05-21 19:00:36</time>
      </trkpt>
      <trkpt lat="42.40794" lon="2.52019">
        <ele>632.2</ele>
        <time>2022-05-21 19:00:37</time>
      </trkpt>
      <trkpt lat="42.40794" lon="2.52017">
        <ele>632.2</ele>
        <time>2022-05-21 19:00:38</time>
      </trkpt>
      <trkpt lat="42.40795" lon="2.52014">
        <ele>632.4</ele>
        <time>2022-05-21 19:00:39</time>
      </trkpt>
      <trkpt lat="42.40796" lon="2.52012">
        <ele>632.4</ele>
        <time>2022-05-21 19:00:40</time>
      </trkpt>
      <trkpt lat="42.40796" lon="2.52009">
        <ele>632.6</ele>
        <time>2022-05-21 19:00:41</time>
      </trkpt>
      <trkpt lat="42.40797" lon="2.52007">
        <ele>632.8</ele>
        <time>2022-05-21 19:00:42</time>
      </trkpt>
      <trkpt lat="42.40798" lon="2.52004">
        <ele>633</ele>
        <time>2022-05-21 19:00:43</time>
      </trkpt>
      <trkpt lat="42.40798" lon="2.52002">
        <ele>633.2</ele>
        <time>2022-05-21 19:00:44</time>
      </trkpt>
      <trkpt lat="42.40798" lon="2.51999">
        <ele>633.4</ele>
        <time>2022-05-21 19:00:45</time>
      </trkpt>
      <trkpt lat="42.40798" lon="2.51996">
        <ele>633.6</ele>
        <time>2022-05-21 19:00:46</time>
      </trkpt>
      <trkpt lat="42.40798" lon="2.51994">
        <ele>633.6</ele>
        <time>2022-05-21 19:00:47</time>
      </trkpt>
      <trkpt lat="42.40798" lon="2.51991">
        <ele>633.6</ele>
        <time>2022-05-21 19:00:48</time>
      </trkpt>
      <trkpt lat="42.40798" lon="2.51989">
        <ele>633.6</ele>
        <time>2022-05-21 19:00:49</time>
      </trkpt>
      <trkpt lat="42.40798" lon="2.51986">
        <ele>633.6</ele>
        <time>2022-05-21 19:00:50</time>
      </trkpt>
      <trkpt lat="42.40797" lon="2.51983">
        <ele>633.8</ele>
        <time>2022-05-21 19:00:51</time>
      </trkpt>
      <trkpt lat="42.40797" lon="2.51981">
        <ele>633.8</ele>
        <time>2022-05-21 19:00:52</time>
      </trkpt>
      <trkpt lat="42.40796" lon="2.51978">
        <ele>633.8</ele>
        <time>2022-05-21 19:00:53</time>
      </trkpt>
      <trkpt lat="42.40796" lon="2.51976">
        <ele>634</ele>
        <time>2022-05-21 19:00:54</time>
      </trkpt>
      <trkpt lat="42.40795" lon="2.51974">
        <ele>634</ele>
        <time>2022-05-21 19:00:55</time>
      </trkpt>
      <trkpt lat="42.40795" lon="2.51971">
        <ele>634</ele>
        <time>2022-05-21 19:00:56</time>
      </trkpt>
      <trkpt lat="42.40794" lon="2.51969">
        <ele>634</ele>
        <time>2022-05-21 19:00:57</time>
      </trkpt>
      <trkpt lat="42.40794" lon="2.51967">
        <ele>634</ele>
        <time>2022-05-21 19:00:58</time>
      </trkpt>
      <trkpt lat="42.40793" lon="2.51965">
        <ele>634</ele>
        <time>2022-05-21 19:00:59</time>
      </trkpt>
      <trkpt lat="42.40793" lon="2.51963">
        <ele>634.2</ele>
        <time>2022-05-21 19:01:00</time>
      </trkpt>
      <trkpt lat="42.40792" lon="2.51961">
        <ele>634.4</ele>
        <time>2022-05-21 19:01:01</time>
      </trkpt>
      <trkpt lat="42.40792" lon="2.51958">
        <ele>634.6</ele>
        <time>2022-05-21 19:01:02</time>
      </trkpt>
      <trkpt lat="42.40791" lon="2.51956">
        <ele>634.6</ele>
        <time>2022-05-21 19:01:03</time>
      </trkpt>
      <trkpt lat="42.4079" lon="2.51954">
        <ele>634.6</ele>
        <time>2022-05-21 19:01:04</time>
      </trkpt>
      <trkpt lat="42.4079" lon="2.51952">
        <ele>634.6</ele>
        <time>2022-05-21 19:01:05</time>
      </trkpt>
      <trkpt lat="42.40789" lon="2.5195">
        <ele>634.6</ele>
        <time>2022-05-21 19:01:06</time>
      </trkpt>
      <trkpt lat="42.40789" lon="2.51948">
        <ele>634.8</ele>
        <time>2022-05-21 19:01:07</time>
      </trkpt>
      <trkpt lat="42.40788" lon="2.51945">
        <ele>634.8</ele>
        <time>2022-05-21 19:01:08</time>
      </trkpt>
      <trkpt lat="42.40788" lon="2.51942">
        <ele>635</ele>
        <time>2022-05-21 19:01:09</time>
      </trkpt>
      <trkpt lat="42.40787" lon="2.51939">
        <ele>635</ele>
        <time>2022-05-21 19:01:10</time>
      </trkpt>
      <trkpt lat="42.40786" lon="2.51937">
        <ele>635.2</ele>
        <time>2022-05-21 19:01:11</time>
      </trkpt>
      <trkpt lat="42.40785" lon="2.51935">
        <ele>635.2</ele>
        <time>2022-05-21 19:01:12</time>
      </trkpt>
      <trkpt lat="42.40785" lon="2.51932">
        <ele>635.4</ele>
        <time>2022-05-21 19:01:13</time>
      </trkpt>
      <trkpt lat="42.40784" lon="2.5193">
        <ele>635.4</ele>
        <time>2022-05-21 19:01:14</time>
      </trkpt>
      <trkpt lat="42.40783" lon="2.51928">
        <ele>635.6</ele>
        <time>2022-05-21 19:01:15</time>
      </trkpt>
      <trkpt lat="42.40782" lon="2.51926">
        <ele>635.6</ele>
        <time>2022-05-21 19:01:16</time>
      </trkpt>
      <trkpt lat="42.40782" lon="2.51923">
        <ele>635.6</ele>
        <time>2022-05-21 19:01:17</time>
      </trkpt>
      <trkpt lat="42.40782" lon="2.51921">
        <ele>635.8</ele>
        <time>2022-05-21 19:01:18</time>
      </trkpt>
      <trkpt lat="42.40781" lon="2.51918">
        <ele>635.8</ele>
        <time>2022-05-21 19:01:19</time>
      </trkpt>
      <trkpt lat="42.40781" lon="2.51916">
        <ele>635.8</ele>
        <time>2022-05-21 19:01:20</time>
      </trkpt>
      <trkpt lat="42.40781" lon="2.51913">
        <ele>636</ele>
        <time>2022-05-21 19:01:21</time>
      </trkpt>
      <trkpt lat="42.4078" lon="2.51911">
        <ele>636.2</ele>
        <time>2022-05-21 19:01:22</time>
      </trkpt>
      <trkpt lat="42.4078" lon="2.51908">
        <ele>636.2</ele>
        <time>2022-05-21 19:01:23</time>
      </trkpt>
      <trkpt lat="42.4078" lon="2.51906">
        <ele>636.4</ele>
        <time>2022-05-21 19:01:24</time>
      </trkpt>
      <trkpt lat="42.4078" lon="2.51904">
        <ele>636.6</ele>
        <time>2022-05-21 19:01:25</time>
      </trkpt>
      <trkpt lat="42.4078" lon="2.51902">
        <ele>636.6</ele>
        <time>2022-05-21 19:01:26</time>
      </trkpt>
      <trkpt lat="42.4078" lon="2.519">
        <ele>636.8</ele>
        <time>2022-05-21 19:01:27</time>
      </trkpt>
      <trkpt lat="42.40779" lon="2.51898">
        <ele>636.8</ele>
        <time>2022-05-21 19:01:28</time>
      </trkpt>
      <trkpt lat="42.40779" lon="2.51896">
        <ele>637</ele>
        <time>2022-05-21 19:01:29</time>
      </trkpt>
      <trkpt lat="42.40779" lon="2.51894">
        <ele>637.2</ele>
        <time>2022-05-21 19:01:30</time>
      </trkpt>
      <trkpt lat="42.40778" lon="2.51892">
        <ele>637.2</ele>
        <time>2022-05-21 19:01:31</time>
      </trkpt>
      <trkpt lat="42.40777" lon="2.5189">
        <ele>637.4</ele>
        <time>2022-05-21 19:01:32</time>
      </trkpt>
      <trkpt lat="42.40777" lon="2.51888">
        <ele>637.4</ele>
        <time>2022-05-21 19:01:33</time>
      </trkpt>
      <trkpt lat="42.40777" lon="2.51886">
        <ele>637.6</ele>
        <time>2022-05-21 19:01:34</time>
      </trkpt>
      <trkpt lat="42.40776" lon="2.51884">
        <ele>637.6</ele>
        <time>2022-05-21 19:01:35</time>
      </trkpt>
      <trkpt lat="42.40776" lon="2.51881">
        <ele>637.6</ele>
        <time>2022-05-21 19:01:36</time>
      </trkpt>
      <trkpt lat="42.40776" lon="2.51879">
        <ele>637.8</ele>
        <time>2022-05-21 19:01:37</time>
      </trkpt>
      <trkpt lat="42.40776" lon="2.51877">
        <ele>637.8</ele>
        <time>2022-05-21 19:01:38</time>
      </trkpt>
      <trkpt lat="42.40776" lon="2.51875">
        <ele>637.8</ele>
        <time>2022-05-21 19:01:39</time>
      </trkpt>
      <trkpt lat="42.40775" lon="2.51873">
        <ele>638</ele>
        <time>2022-05-21 19:01:40</time>
      </trkpt>
      <trkpt lat="42.40775" lon="2.5187">
        <ele>638.2</ele>
        <time>2022-05-21 19:01:41</time>
      </trkpt>
      <trkpt lat="42.40774" lon="2.51868">
        <ele>638.2</ele>
        <time>2022-05-21 19:01:42</time>
      </trkpt>
      <trkpt lat="42.40774" lon="2.51866">
        <ele>638.4</ele>
        <time>2022-05-21 19:01:43</time>
      </trkpt>
      <trkpt lat="42.40773" lon="2.51864">
        <ele>638.8</ele>
        <time>2022-05-21 19:01:44</time>
      </trkpt>
      <trkpt lat="42.40773" lon="2.51861">
        <ele>639</ele>
        <time>2022-05-21 19:01:45</time>
      </trkpt>
      <trkpt lat="42.40773" lon="2.51859">
        <ele>639.2</ele>
        <time>2022-05-21 19:01:46</time>
      </trkpt>
      <trkpt lat="42.40773" lon="2.51857">
        <ele>639.4</ele>
        <time>2022-05-21 19:01:47</time>
      </trkpt>
      <trkpt lat="42.40772" lon="2.51855">
        <ele>639.6</ele>
        <time>2022-05-21 19:01:48</time>
      </trkpt>
      <trkpt lat="42.40771" lon="2.51853">
        <ele>639.6</ele>
        <time>2022-05-21 19:01:49</time>
      </trkpt>
      <trkpt lat="42.4077" lon="2.5185">
        <ele>639.8</ele>
        <time>2022-05-21 19:01:50</time>
      </trkpt>
      <trkpt lat="42.40769" lon="2.51848">
        <ele>640</ele>
        <time>2022-05-21 19:01:51</time>
      </trkpt>
      <trkpt lat="42.40769" lon="2.51845">
        <ele>640.2</ele>
        <time>2022-05-21 19:01:52</time>
      </trkpt>
      <trkpt lat="42.40768" lon="2.51843">
        <ele>640.4</ele>
        <time>2022-05-21 19:01:53</time>
      </trkpt>
      <trkpt lat="42.40768" lon="2.5184">
        <ele>640.6</ele>
        <time>2022-05-21 19:01:54</time>
      </trkpt>
      <trkpt lat="42.40767" lon="2.51838">
        <ele>640.6</ele>
        <time>2022-05-21 19:01:55</time>
      </trkpt>
      <trkpt lat="42.40767" lon="2.51836">
        <ele>640.8</ele>
        <time>2022-05-21 19:01:56</time>
      </trkpt>
      <trkpt lat="42.40766" lon="2.51834">
        <ele>640.8</ele>
        <time>2022-05-21 19:01:57</time>
      </trkpt>
      <trkpt lat="42.40766" lon="2.51832">
        <ele>640.8</ele>
        <time>2022-05-21 19:01:58</time>
      </trkpt>
      <trkpt lat="42.40766" lon="2.5183">
        <ele>641</ele>
        <time>2022-05-21 19:01:59</time>
      </trkpt>
      <trkpt lat="42.40765" lon="2.51828">
        <ele>641.2</ele>
        <time>2022-05-21 19:02:00</time>
      </trkpt>
      <trkpt lat="42.40765" lon="2.51825">
        <ele>641.2</ele>
        <time>2022-05-21 19:02:01</time>
      </trkpt>
      <trkpt lat="42.40764" lon="2.51823">
        <ele>641.2</ele>
        <time>2022-05-21 19:02:02</time>
      </trkpt>
      <trkpt lat="42.40763" lon="2.51821">
        <ele>641.4</ele>
        <time>2022-05-21 19:02:03</time>
      </trkpt>
      <trkpt lat="42.40762" lon="2.51819">
        <ele>641.4</ele>
        <time>2022-05-21 19:02:04</time>
      </trkpt>
      <trkpt lat="42.40762" lon="2.51817">
        <ele>641.6</ele>
        <time>2022-05-21 19:02:05</time>
      </trkpt>
      <trkpt lat="42.40761" lon="2.51815">
        <ele>641.8</ele>
        <time>2022-05-21 19:02:06</time>
      </trkpt>
      <trkpt lat="42.4076" lon="2.51813">
        <ele>641.8</ele>
        <time>2022-05-21 19:02:07</time>
      </trkpt>
      <trkpt lat="42.4076" lon="2.51811">
        <ele>642</ele>
        <time>2022-05-21 19:02:08</time>
      </trkpt>
      <trkpt lat="42.40759" lon="2.51809">
        <ele>642.2</ele>
        <time>2022-05-21 19:02:09</time>
      </trkpt>
      <trkpt lat="42.40758" lon="2.51806">
        <ele>642.4</ele>
        <time>2022-05-21 19:02:10</time>
      </trkpt>
      <trkpt lat="42.40757" lon="2.51804">
        <ele>642.6</ele>
        <time>2022-05-21 19:02:11</time>
      </trkpt>
      <trkpt lat="42.40756" lon="2.51802">
        <ele>642.6</ele>
        <time>2022-05-21 19:02:12</time>
      </trkpt>
      <trkpt lat="42.40755" lon="2.518">
        <ele>642.8</ele>
        <time>2022-05-21 19:02:13</time>
      </trkpt>
      <trkpt lat="42.40755" lon="2.51799">
        <ele>643</ele>
        <time>2022-05-21 19:02:14</time>
      </trkpt>
      <trkpt lat="42.40754" lon="2.51797">
        <ele>643.2</ele>
        <time>2022-05-21 19:02:15</time>
      </trkpt>
      <trkpt lat="42.40753" lon="2.51795">
        <ele>643.2</ele>
        <time>2022-05-21 19:02:16</time>
      </trkpt>
      <trkpt lat="42.40752" lon="2.51793">
        <ele>643.2</ele>
        <time>2022-05-21 19:02:17</time>
      </trkpt>
      <trkpt lat="42.40751" lon="2.51791">
        <ele>643.2</ele>
        <time>2022-05-21 19:02:18</time>
      </trkpt>
      <trkpt lat="42.40751" lon="2.51789">
        <ele>643.2</ele>
        <time>2022-05-21 19:02:19</time>
      </trkpt>
      <trkpt lat="42.4075" lon="2.51787">
        <ele>643.4</ele>
        <time>2022-05-21 19:02:20</time>
      </trkpt>
      <trkpt lat="42.40749" lon="2.51785">
        <ele>643.4</ele>
        <time>2022-05-21 19:02:21</time>
      </trkpt>
      <trkpt lat="42.40749" lon="2.51783">
        <ele>643.6</ele>
        <time>2022-05-21 19:02:22</time>
      </trkpt>
      <trkpt lat="42.40748" lon="2.51781">
        <ele>643.8</ele>
        <time>2022-05-21 19:02:23</time>
      </trkpt>
      <trkpt lat="42.40748" lon="2.51778">
        <ele>643.8</ele>
        <time>2022-05-21 19:02:24</time>
      </trkpt>
      <trkpt lat="42.40748" lon="2.51776">
        <ele>644</ele>
        <time>2022-05-21 19:02:25</time>
      </trkpt>
      <trkpt lat="42.40748" lon="2.51773">
        <ele>644.2</ele>
        <time>2022-05-21 19:02:26</time>
      </trkpt>
      <trkpt lat="42.40747" lon="2.51771">
        <ele>644.4</ele>
        <time>2022-05-21 19:02:27</time>
      </trkpt>
      <trkpt lat="42.40747" lon="2.51768">
        <ele>644.6</ele>
        <time>2022-05-21 19:02:28</time>
      </trkpt>
      <trkpt lat="42.40747" lon="2.51765">
        <ele>644.8</ele>
        <time>2022-05-21 19:02:29</time>
      </trkpt>
      <trkpt lat="42.40746" lon="2.51762">
        <ele>645</ele>
        <time>2022-05-21 19:02:30</time>
      </trkpt>
      <trkpt lat="42.40746" lon="2.51758">
        <ele>645.2</ele>
        <time>2022-05-21 19:02:31</time>
      </trkpt>
      <trkpt lat="42.40746" lon="2.51756">
        <ele>645.2</ele>
        <time>2022-05-21 19:02:32</time>
      </trkpt>
      <trkpt lat="42.40746" lon="2.51753">
        <ele>645.4</ele>
        <time>2022-05-21 19:02:33</time>
      </trkpt>
      <trkpt lat="42.40746" lon="2.5175">
        <ele>645.6</ele>
        <time>2022-05-21 19:02:34</time>
      </trkpt>
      <trkpt lat="42.40746" lon="2.51747">
        <ele>645.8</ele>
        <time>2022-05-21 19:02:35</time>
      </trkpt>
      <trkpt lat="42.40747" lon="2.51745">
        <ele>645.8</ele>
        <time>2022-05-21 19:02:36</time>
      </trkpt>
      <trkpt lat="42.40747" lon="2.51742">
        <ele>646</ele>
        <time>2022-05-21 19:02:37</time>
      </trkpt>
      <trkpt lat="42.40748" lon="2.5174">
        <ele>646.2</ele>
        <time>2022-05-21 19:02:38</time>
      </trkpt>
      <trkpt lat="42.40749" lon="2.51737">
        <ele>646.4</ele>
        <time>2022-05-21 19:02:39</time>
      </trkpt>
      <trkpt lat="42.4075" lon="2.51735">
        <ele>646.6</ele>
        <time>2022-05-21 19:02:40</time>
      </trkpt>
      <trkpt lat="42.40751" lon="2.51732">
        <ele>646.8</ele>
        <time>2022-05-21 19:02:41</time>
      </trkpt>
      <trkpt lat="42.40752" lon="2.5173">
        <ele>647</ele>
        <time>2022-05-21 19:02:42</time>
      </trkpt>
      <trkpt lat="42.40753" lon="2.51727">
        <ele>647</ele>
        <time>2022-05-21 19:02:43</time>
      </trkpt>
      <trkpt lat="42.40754" lon="2.51725">
        <ele>647.2</ele>
        <time>2022-05-21 19:02:44</time>
      </trkpt>
      <trkpt lat="42.40754" lon="2.51722">
        <ele>647.4</ele>
        <time>2022-05-21 19:02:45</time>
      </trkpt>
      <trkpt lat="42.40755" lon="2.5172">
        <ele>647.6</ele>
        <time>2022-05-21 19:02:46</time>
      </trkpt>
      <trkpt lat="42.40756" lon="2.51717">
        <ele>647.8</ele>
        <time>2022-05-21 19:02:47</time>
      </trkpt>
      <trkpt lat="42.40757" lon="2.51714">
        <ele>648</ele>
        <time>2022-05-21 19:02:48</time>
      </trkpt>
      <trkpt lat="42.40758" lon="2.51712">
        <ele>648.2</ele>
        <time>2022-05-21 19:02:49</time>
      </trkpt>
      <trkpt lat="42.40759" lon="2.51709">
        <ele>648.2</ele>
        <time>2022-05-21 19:02:50</time>
      </trkpt>
      <trkpt lat="42.4076" lon="2.51707">
        <ele>648.4</ele>
        <time>2022-05-21 19:02:51</time>
      </trkpt>
      <trkpt lat="42.4076" lon="2.51704">
        <ele>648.6</ele>
        <time>2022-05-21 19:02:52</time>
      </trkpt>
      <trkpt lat="42.40761" lon="2.51702">
        <ele>648.6</ele>
        <time>2022-05-21 19:02:53</time>
      </trkpt>
      <trkpt lat="42.40762" lon="2.51699">
        <ele>648.8</ele>
        <time>2022-05-21 19:02:54</time>
      </trkpt>
      <trkpt lat="42.40763" lon="2.51697">
        <ele>649</ele>
        <time>2022-05-21 19:02:55</time>
      </trkpt>
      <trkpt lat="42.40763" lon="2.51695">
        <ele>649</ele>
        <time>2022-05-21 19:02:56</time>
      </trkpt>
      <trkpt lat="42.40764" lon="2.51693">
        <ele>649.2</ele>
        <time>2022-05-21 19:02:57</time>
      </trkpt>
      <trkpt lat="42.40765" lon="2.5169">
        <ele>649.2</ele>
        <time>2022-05-21 19:02:58</time>
      </trkpt>
      <trkpt lat="42.40766" lon="2.51688">
        <ele>649.4</ele>
        <time>2022-05-21 19:02:59</time>
      </trkpt>
      <trkpt lat="42.40766" lon="2.51686">
        <ele>649.4</ele>
        <time>2022-05-21 19:03:00</time>
      </trkpt>
      <trkpt lat="42.40767" lon="2.51684">
        <ele>649.6</ele>
        <time>2022-05-21 19:03:01</time>
      </trkpt>
      <trkpt lat="42.40767" lon="2.51682">
        <ele>649.8</ele>
        <time>2022-05-21 19:03:02</time>
      </trkpt>
      <trkpt lat="42.40768" lon="2.51679">
        <ele>649.8</ele>
        <time>2022-05-21 19:03:03</time>
      </trkpt>
      <trkpt lat="42.40769" lon="2.51677">
        <ele>650</ele>
        <time>2022-05-21 19:03:04</time>
      </trkpt>
      <trkpt lat="42.4077" lon="2.51675">
        <ele>650</ele>
        <time>2022-05-21 19:03:05</time>
      </trkpt>
      <trkpt lat="42.4077" lon="2.51673">
        <ele>650</ele>
        <time>2022-05-21 19:03:06</time>
      </trkpt>
      <trkpt lat="42.40771" lon="2.51671">
        <ele>650.2</ele>
        <time>2022-05-21 19:03:07</time>
      </trkpt>
      <trkpt lat="42.40771" lon="2.51669">
        <ele>650.2</ele>
        <time>2022-05-21 19:03:08</time>
      </trkpt>
      <trkpt lat="42.40771" lon="2.51667">
        <ele>650.4</ele>
        <time>2022-05-21 19:03:09</time>
      </trkpt>
      <trkpt lat="42.40771" lon="2.51665">
        <ele>650.4</ele>
        <time>2022-05-21 19:03:10</time>
      </trkpt>
      <trkpt lat="42.40771" lon="2.51664">
        <ele>650.4</ele>
        <time>2022-05-21 19:03:11</time>
      </trkpt>
      <trkpt lat="42.40771" lon="2.51662">
        <ele>650.6</ele>
        <time>2022-05-21 19:03:12</time>
      </trkpt>
      <trkpt lat="42.40772" lon="2.51659">
        <ele>650.6</ele>
        <time>2022-05-21 19:03:13</time>
      </trkpt>
      <trkpt lat="42.40773" lon="2.51657">
        <ele>650.6</ele>
        <time>2022-05-21 19:03:14</time>
      </trkpt>
      <trkpt lat="42.40774" lon="2.51655">
        <ele>650.8</ele>
        <time>2022-05-21 19:03:15</time>
      </trkpt>
      <trkpt lat="42.40775" lon="2.51652">
        <ele>650.8</ele>
        <time>2022-05-21 19:03:16</time>
      </trkpt>
      <trkpt lat="42.40775" lon="2.5165">
        <ele>651</ele>
        <time>2022-05-21 19:03:17</time>
      </trkpt>
      <trkpt lat="42.40776" lon="2.51647">
        <ele>651</ele>
        <time>2022-05-21 19:03:18</time>
      </trkpt>
      <trkpt lat="42.40777" lon="2.51644">
        <ele>651.2</ele>
        <time>2022-05-21 19:03:19</time>
      </trkpt>
      <trkpt lat="42.40778" lon="2.51642">
        <ele>651.2</ele>
        <time>2022-05-21 19:03:20</time>
      </trkpt>
      <trkpt lat="42.40779" lon="2.51639">
        <ele>651.4</ele>
        <time>2022-05-21 19:03:21</time>
      </trkpt>
      <trkpt lat="42.40779" lon="2.51636">
        <ele>651.4</ele>
        <time>2022-05-21 19:03:22</time>
      </trkpt>
      <trkpt lat="42.40779" lon="2.51634">
        <ele>651.4</ele>
        <time>2022-05-21 19:03:23</time>
      </trkpt>
      <trkpt lat="42.40779" lon="2.51632">
        <ele>651.6</ele>
        <time>2022-05-21 19:03:24</time>
      </trkpt>
      <trkpt lat="42.40779" lon="2.5163">
        <ele>651.8</ele>
        <time>2022-05-21 19:03:25</time>
      </trkpt>
      <trkpt lat="42.40779" lon="2.51628">
        <ele>651.8</ele>
        <time>2022-05-21 19:03:26</time>
      </trkpt>
      <trkpt lat="42.4078" lon="2.51627">
        <ele>652</ele>
        <time>2022-05-21 19:03:27</time>
      </trkpt>
      <trkpt lat="42.40781" lon="2.51626">
        <ele>652.2</ele>
        <time>2022-05-21 19:03:28</time>
      </trkpt>
      <trkpt lat="42.40781" lon="2.51625">
        <ele>652.2</ele>
        <time>2022-05-21 19:03:29</time>
      </trkpt>
      <trkpt lat="42.40782" lon="2.51625">
        <ele>652.4</ele>
        <time>2022-05-21 19:03:30</time>
      </trkpt>
      <trkpt lat="42.40784" lon="2.51625">
        <ele>652.6</ele>
        <time>2022-05-21 19:03:31</time>
      </trkpt>
      <trkpt lat="42.40786" lon="2.51625">
        <ele>652.6</ele>
        <time>2022-05-21 19:03:32</time>
      </trkpt>
      <trkpt lat="42.40789" lon="2.51624">
        <ele>652.8</ele>
        <time>2022-05-21 19:03:33</time>
      </trkpt>
      <trkpt lat="42.4079" lon="2.51625">
        <ele>653</ele>
        <time>2022-05-21 19:03:34</time>
      </trkpt>
      <trkpt lat="42.40791" lon="2.51622">
        <ele>653</ele>
        <time>2022-05-21 19:03:35</time>
      </trkpt>
      <trkpt lat="42.40793" lon="2.51614">
        <ele>653.2</ele>
        <time>2022-05-21 19:03:36</time>
      </trkpt>
      <trkpt lat="42.40793" lon="2.51609">
        <ele>653.2</ele>
        <time>2022-05-21 19:03:37</time>
      </trkpt>
      <trkpt lat="42.40794" lon="2.51606">
        <ele>653.4</ele>
        <time>2022-05-21 19:03:38</time>
      </trkpt>
      <trkpt lat="42.40796" lon="2.51604">
        <ele>653.6</ele>
        <time>2022-05-21 19:03:39</time>
      </trkpt>
      <trkpt lat="42.40798" lon="2.51602">
        <ele>653.6</ele>
        <time>2022-05-21 19:03:40</time>
      </trkpt>
      <trkpt lat="42.40801" lon="2.51599">
        <ele>653.8</ele>
        <time>2022-05-21 19:03:41</time>
      </trkpt>
      <trkpt lat="42.40804" lon="2.51597">
        <ele>654</ele>
        <time>2022-05-21 19:03:42</time>
      </trkpt>
      <trkpt lat="42.40807" lon="2.51595">
        <ele>654</ele>
        <time>2022-05-21 19:03:43</time>
      </trkpt>
      <trkpt lat="42.4081" lon="2.51593">
        <ele>654.2</ele>
        <time>2022-05-21 19:03:44</time>
      </trkpt>
      <trkpt lat="42.40813" lon="2.51591">
        <ele>654.4</ele>
        <time>2022-05-21 19:03:45</time>
      </trkpt>
      <trkpt lat="42.40815" lon="2.5159">
        <ele>654.6</ele>
        <time>2022-05-21 19:03:46</time>
      </trkpt>
      <trkpt lat="42.4082" lon="2.51589">
        <ele>654.6</ele>
        <time>2022-05-21 19:03:47</time>
      </trkpt>
      <trkpt lat="42.40825" lon="2.51588">
        <ele>654.8</ele>
        <time>2022-05-21 19:03:48</time>
      </trkpt>
      <trkpt lat="42.40828" lon="2.51588">
        <ele>655</ele>
        <time>2022-05-21 19:03:49</time>
      </trkpt>
      <trkpt lat="42.40831" lon="2.51588">
        <ele>655.2</ele>
        <time>2022-05-21 19:03:50</time>
      </trkpt>
      <trkpt lat="42.40834" lon="2.51588">
        <ele>655.4</ele>
        <time>2022-05-21 19:03:51</time>
      </trkpt>
      <trkpt lat="42.40836" lon="2.51587">
        <ele>655.6</ele>
        <time>2022-05-21 19:03:52</time>
      </trkpt>
      <trkpt lat="42.40838" lon="2.51586">
        <ele>655.6</ele>
        <time>2022-05-21 19:03:53</time>
      </trkpt>
      <trkpt lat="42.4084" lon="2.51586">
        <ele>655.8</ele>
        <time>2022-05-21 19:03:54</time>
      </trkpt>
      <trkpt lat="42.40842" lon="2.51585">
        <ele>656</ele>
        <time>2022-05-21 19:03:55</time>
      </trkpt>
      <trkpt lat="42.40843" lon="2.51585">
        <ele>656.2</ele>
        <time>2022-05-21 19:03:56</time>
      </trkpt>
      <trkpt lat="42.40845" lon="2.51585">
        <ele>656.4</ele>
        <time>2022-05-21 19:03:57</time>
      </trkpt>
      <trkpt lat="42.40848" lon="2.51584">
        <ele>656.4</ele>
        <time>2022-05-21 19:03:58</time>
      </trkpt>
      <trkpt lat="42.40849" lon="2.51583">
        <ele>656.6</ele>
        <time>2022-05-21 19:03:59</time>
      </trkpt>
      <trkpt lat="42.40851" lon="2.51582">
        <ele>656.8</ele>
        <time>2022-05-21 19:04:00</time>
      </trkpt>
      <trkpt lat="42.40853" lon="2.51581">
        <ele>657</ele>
        <time>2022-05-21 19:04:01</time>
      </trkpt>
      <trkpt lat="42.40855" lon="2.5158">
        <ele>657</ele>
        <time>2022-05-21 19:04:02</time>
      </trkpt>
      <trkpt lat="42.40857" lon="2.51579">
        <ele>657.2</ele>
        <time>2022-05-21 19:04:03</time>
      </trkpt>
      <trkpt lat="42.40859" lon="2.51578">
        <ele>657.4</ele>
        <time>2022-05-21 19:04:04</time>
      </trkpt>
      <trkpt lat="42.4086" lon="2.51577">
        <ele>657.6</ele>
        <time>2022-05-21 19:04:05</time>
      </trkpt>
      <trkpt lat="42.40862" lon="2.51576">
        <ele>657.8</ele>
        <time>2022-05-21 19:04:06</time>
      </trkpt>
      <trkpt lat="42.40864" lon="2.51575">
        <ele>657.8</ele>
        <time>2022-05-21 19:04:07</time>
      </trkpt>
      <trkpt lat="42.40866" lon="2.51573">
        <ele>658</ele>
        <time>2022-05-21 19:04:08</time>
      </trkpt>
      <trkpt lat="42.40868" lon="2.51572">
        <ele>658.2</ele>
        <time>2022-05-21 19:04:09</time>
      </trkpt>
      <trkpt lat="42.40869" lon="2.51571">
        <ele>658.2</ele>
        <time>2022-05-21 19:04:10</time>
      </trkpt>
      <trkpt lat="42.40871" lon="2.51569">
        <ele>658.4</ele>
        <time>2022-05-21 19:04:11</time>
      </trkpt>
      <trkpt lat="42.40873" lon="2.51568">
        <ele>658.6</ele>
        <time>2022-05-21 19:04:12</time>
      </trkpt>
      <trkpt lat="42.40875" lon="2.51567">
        <ele>658.8</ele>
        <time>2022-05-21 19:04:13</time>
      </trkpt>
      <trkpt lat="42.40876" lon="2.51566">
        <ele>659</ele>
        <time>2022-05-21 19:04:14</time>
      </trkpt>
      <trkpt lat="42.40878" lon="2.51565">
        <ele>659</ele>
        <time>2022-05-21 19:04:15</time>
      </trkpt>
      <trkpt lat="42.4088" lon="2.51563">
        <ele>659.2</ele>
        <time>2022-05-21 19:04:16</time>
      </trkpt>
      <trkpt lat="42.40881" lon="2.51562">
        <ele>659.4</ele>
        <time>2022-05-21 19:04:17</time>
      </trkpt>
      <trkpt lat="42.40883" lon="2.51561">
        <ele>659.6</ele>
        <time>2022-05-21 19:04:18</time>
      </trkpt>
      <trkpt lat="42.40885" lon="2.5156">
        <ele>659.8</ele>
        <time>2022-05-21 19:04:19</time>
      </trkpt>
      <trkpt lat="42.40887" lon="2.51558">
        <ele>660</ele>
        <time>2022-05-21 19:04:20</time>
      </trkpt>
      <trkpt lat="42.40889" lon="2.51557">
        <ele>660.2</ele>
        <time>2022-05-21 19:04:21</time>
      </trkpt>
      <trkpt lat="42.40891" lon="2.51555">
        <ele>660.4</ele>
        <time>2022-05-21 19:04:22</time>
      </trkpt>
      <trkpt lat="42.40892" lon="2.51553">
        <ele>660.6</ele>
        <time>2022-05-21 19:04:23</time>
      </trkpt>
      <trkpt lat="42.40894" lon="2.51551">
        <ele>660.6</ele>
        <time>2022-05-21 19:04:24</time>
      </trkpt>
      <trkpt lat="42.40895" lon="2.5155">
        <ele>660.8</ele>
        <time>2022-05-21 19:04:25</time>
      </trkpt>
      <trkpt lat="42.40897" lon="2.51548">
        <ele>661</ele>
        <time>2022-05-21 19:04:26</time>
      </trkpt>
      <trkpt lat="42.40899" lon="2.51546">
        <ele>661.2</ele>
        <time>2022-05-21 19:04:27</time>
      </trkpt>
      <trkpt lat="42.40901" lon="2.51545">
        <ele>661.2</ele>
        <time>2022-05-21 19:04:28</time>
      </trkpt>
      <trkpt lat="42.40902" lon="2.51544">
        <ele>661.4</ele>
        <time>2022-05-21 19:04:29</time>
      </trkpt>
      <trkpt lat="42.40904" lon="2.51542">
        <ele>661.6</ele>
        <time>2022-05-21 19:04:30</time>
      </trkpt>
      <trkpt lat="42.40906" lon="2.51541">
        <ele>661.8</ele>
        <time>2022-05-21 19:04:31</time>
      </trkpt>
      <trkpt lat="42.40908" lon="2.51539">
        <ele>662</ele>
        <time>2022-05-21 19:04:32</time>
      </trkpt>
      <trkpt lat="42.40909" lon="2.51537">
        <ele>662.2</ele>
        <time>2022-05-21 19:04:33</time>
      </trkpt>
      <trkpt lat="42.40911" lon="2.51536">
        <ele>662.4</ele>
        <time>2022-05-21 19:04:34</time>
      </trkpt>
      <trkpt lat="42.40913" lon="2.51534">
        <ele>662.4</ele>
        <time>2022-05-21 19:04:35</time>
      </trkpt>
      <trkpt lat="42.40914" lon="2.51533">
        <ele>662.6</ele>
        <time>2022-05-21 19:04:36</time>
      </trkpt>
      <trkpt lat="42.40916" lon="2.51531">
        <ele>662.8</ele>
        <time>2022-05-21 19:04:37</time>
      </trkpt>
      <trkpt lat="42.40917" lon="2.51529">
        <ele>663</ele>
        <time>2022-05-21 19:04:38</time>
      </trkpt>
      <trkpt lat="42.40919" lon="2.51527">
        <ele>663</ele>
        <time>2022-05-21 19:04:39</time>
      </trkpt>
      <trkpt lat="42.4092" lon="2.51525">
        <ele>663.2</ele>
        <time>2022-05-21 19:04:40</time>
      </trkpt>
      <trkpt lat="42.40921" lon="2.51523">
        <ele>663.4</ele>
        <time>2022-05-21 19:04:41</time>
      </trkpt>
      <trkpt lat="42.40922" lon="2.51521">
        <ele>663.4</ele>
        <time>2022-05-21 19:04:42</time>
      </trkpt>
      <trkpt lat="42.40923" lon="2.51519">
        <ele>663.6</ele>
        <time>2022-05-21 19:04:43</time>
      </trkpt>
      <trkpt lat="42.40924" lon="2.51517">
        <ele>663.6</ele>
        <time>2022-05-21 19:04:44</time>
      </trkpt>
      <trkpt lat="42.40925" lon="2.51515">
        <ele>663.8</ele>
        <time>2022-05-21 19:04:45</time>
      </trkpt>
      <trkpt lat="42.40927" lon="2.51512">
        <ele>663.8</ele>
        <time>2022-05-21 19:04:46</time>
      </trkpt>
      <trkpt lat="42.40927" lon="2.5151">
        <ele>663.8</ele>
        <time>2022-05-21 19:04:47</time>
      </trkpt>
      <trkpt lat="42.40928" lon="2.51507">
        <ele>664</ele>
        <time>2022-05-21 19:04:48</time>
      </trkpt>
      <trkpt lat="42.40929" lon="2.51505">
        <ele>664</ele>
        <time>2022-05-21 19:04:49</time>
      </trkpt>
      <trkpt lat="42.4093" lon="2.51503">
        <ele>664.2</ele>
        <time>2022-05-21 19:04:50</time>
      </trkpt>
      <trkpt lat="42.40931" lon="2.515">
        <ele>664.4</ele>
        <time>2022-05-21 19:04:51</time>
      </trkpt>
      <trkpt lat="42.40931" lon="2.51498">
        <ele>664.4</ele>
        <time>2022-05-21 19:04:52</time>
      </trkpt>
      <trkpt lat="42.40932" lon="2.51495">
        <ele>664.6</ele>
        <time>2022-05-21 19:04:53</time>
      </trkpt>
      <trkpt lat="42.40932" lon="2.51493">
        <ele>664.6</ele>
        <time>2022-05-21 19:04:54</time>
      </trkpt>
      <trkpt lat="42.40933" lon="2.5149">
        <ele>664.8</ele>
        <time>2022-05-21 19:04:55</time>
      </trkpt>
      <trkpt lat="42.40934" lon="2.51487">
        <ele>664.8</ele>
        <time>2022-05-21 19:04:56</time>
      </trkpt>
      <trkpt lat="42.40934" lon="2.51485">
        <ele>665</ele>
        <time>2022-05-21 19:04:57</time>
      </trkpt>
      <trkpt lat="42.40935" lon="2.51482">
        <ele>665</ele>
        <time>2022-05-21 19:04:58</time>
      </trkpt>
      <trkpt lat="42.40935" lon="2.51479">
        <ele>665.2</ele>
        <time>2022-05-21 19:04:59</time>
      </trkpt>
      <trkpt lat="42.40936" lon="2.51476">
        <ele>665.2</ele>
        <time>2022-05-21 19:05:00</time>
      </trkpt>
      <trkpt lat="42.40936" lon="2.51474">
        <ele>665.4</ele>
        <time>2022-05-21 19:05:01</time>
      </trkpt>
      <trkpt lat="42.40937" lon="2.51471">
        <ele>665.4</ele>
        <time>2022-05-21 19:05:02</time>
      </trkpt>
      <trkpt lat="42.40937" lon="2.51468">
        <ele>665.6</ele>
        <time>2022-05-21 19:05:03</time>
      </trkpt>
      <trkpt lat="42.40938" lon="2.51465">
        <ele>665.8</ele>
        <time>2022-05-21 19:05:04</time>
      </trkpt>
      <trkpt lat="42.40938" lon="2.51463">
        <ele>665.8</ele>
        <time>2022-05-21 19:05:05</time>
      </trkpt>
      <trkpt lat="42.40939" lon="2.5146">
        <ele>666</ele>
        <time>2022-05-21 19:05:06</time>
      </trkpt>
      <trkpt lat="42.4094" lon="2.51458">
        <ele>666.2</ele>
        <time>2022-05-21 19:05:07</time>
      </trkpt>
      <trkpt lat="42.4094" lon="2.51455">
        <ele>666.4</ele>
        <time>2022-05-21 19:05:08</time>
      </trkpt>
      <trkpt lat="42.40941" lon="2.51453">
        <ele>666.4</ele>
        <time>2022-05-21 19:05:09</time>
      </trkpt>
      <trkpt lat="42.40942" lon="2.5145">
        <ele>666.6</ele>
        <time>2022-05-21 19:05:10</time>
      </trkpt>
      <trkpt lat="42.40943" lon="2.51448">
        <ele>666.8</ele>
        <time>2022-05-21 19:05:11</time>
      </trkpt>
      <trkpt lat="42.40944" lon="2.51446">
        <ele>666.8</ele>
        <time>2022-05-21 19:05:12</time>
      </trkpt>
      <trkpt lat="42.40944" lon="2.51443">
        <ele>667</ele>
        <time>2022-05-21 19:05:13</time>
      </trkpt>
      <trkpt lat="42.40945" lon="2.51441">
        <ele>667</ele>
        <time>2022-05-21 19:05:14</time>
      </trkpt>
      <trkpt lat="42.40946" lon="2.51439">
        <ele>667.2</ele>
        <time>2022-05-21 19:05:15</time>
      </trkpt>
      <trkpt lat="42.40947" lon="2.51436">
        <ele>667.4</ele>
        <time>2022-05-21 19:05:16</time>
      </trkpt>
      <trkpt lat="42.40948" lon="2.51434">
        <ele>667.4</ele>
        <time>2022-05-21 19:05:17</time>
      </trkpt>
      <trkpt lat="42.40948" lon="2.51432">
        <ele>667.6</ele>
        <time>2022-05-21 19:05:18</time>
      </trkpt>
      <trkpt lat="42.40949" lon="2.51429">
        <ele>667.6</ele>
        <time>2022-05-21 19:05:19</time>
      </trkpt>
      <trkpt lat="42.40951" lon="2.51427">
        <ele>667.6</ele>
        <time>2022-05-21 19:05:20</time>
      </trkpt>
      <trkpt lat="42.40952" lon="2.51424">
        <ele>667.8</ele>
        <time>2022-05-21 19:05:21</time>
      </trkpt>
      <trkpt lat="42.40952" lon="2.51422">
        <ele>667.8</ele>
        <time>2022-05-21 19:05:22</time>
      </trkpt>
      <trkpt lat="42.40954" lon="2.5142">
        <ele>668</ele>
        <time>2022-05-21 19:05:23</time>
      </trkpt>
      <trkpt lat="42.40955" lon="2.51418">
        <ele>668</ele>
        <time>2022-05-21 19:05:24</time>
      </trkpt>
      <trkpt lat="42.40955" lon="2.51415">
        <ele>668.2</ele>
        <time>2022-05-21 19:05:25</time>
      </trkpt>
      <trkpt lat="42.40956" lon="2.51413">
        <ele>668.2</ele>
        <time>2022-05-21 19:05:26</time>
      </trkpt>
      <trkpt lat="42.40957" lon="2.51411">
        <ele>668.4</ele>
        <time>2022-05-21 19:05:27</time>
      </trkpt>
      <trkpt lat="42.40959" lon="2.51408">
        <ele>668.4</ele>
        <time>2022-05-21 19:05:28</time>
      </trkpt>
      <trkpt lat="42.4096" lon="2.51406">
        <ele>668.6</ele>
        <time>2022-05-21 19:05:29</time>
      </trkpt>
      <trkpt lat="42.40961" lon="2.51404">
        <ele>668.6</ele>
        <time>2022-05-21 19:05:30</time>
      </trkpt>
      <trkpt lat="42.40962" lon="2.51402">
        <ele>668.8</ele>
        <time>2022-05-21 19:05:31</time>
      </trkpt>
      <trkpt lat="42.40964" lon="2.51399">
        <ele>668.8</ele>
        <time>2022-05-21 19:05:32</time>
      </trkpt>
      <trkpt lat="42.40965" lon="2.51397">
        <ele>669</ele>
        <time>2022-05-21 19:05:33</time>
      </trkpt>
      <trkpt lat="42.40966" lon="2.51395">
        <ele>669</ele>
        <time>2022-05-21 19:05:34</time>
      </trkpt>
      <trkpt lat="42.40968" lon="2.51393">
        <ele>669.2</ele>
        <time>2022-05-21 19:05:35</time>
      </trkpt>
      <trkpt lat="42.40969" lon="2.51391">
        <ele>669.4</ele>
        <time>2022-05-21 19:05:36</time>
      </trkpt>
      <trkpt lat="42.4097" lon="2.51389">
        <ele>669.6</ele>
        <time>2022-05-21 19:05:37</time>
      </trkpt>
      <trkpt lat="42.40971" lon="2.51386">
        <ele>669.6</ele>
        <time>2022-05-21 19:05:38</time>
      </trkpt>
      <trkpt lat="42.40972" lon="2.51384">
        <ele>669.8</ele>
        <time>2022-05-21 19:05:39</time>
      </trkpt>
      <trkpt lat="42.40973" lon="2.51382">
        <ele>669.8</ele>
        <time>2022-05-21 19:05:40</time>
      </trkpt>
      <trkpt lat="42.40975" lon="2.51379">
        <ele>670</ele>
        <time>2022-05-21 19:05:41</time>
      </trkpt>
      <trkpt lat="42.40976" lon="2.51376">
        <ele>670.2</ele>
        <time>2022-05-21 19:05:42</time>
      </trkpt>
      <trkpt lat="42.40977" lon="2.51374">
        <ele>670.4</ele>
        <time>2022-05-21 19:05:43</time>
      </trkpt>
      <trkpt lat="42.40978" lon="2.51372">
        <ele>670.6</ele>
        <time>2022-05-21 19:05:44</time>
      </trkpt>
      <trkpt lat="42.40979" lon="2.51369">
        <ele>670.6</ele>
        <time>2022-05-21 19:05:45</time>
      </trkpt>
      <trkpt lat="42.4098" lon="2.51367">
        <ele>670.8</ele>
        <time>2022-05-21 19:05:46</time>
      </trkpt>
      <trkpt lat="42.40982" lon="2.51365">
        <ele>671</ele>
        <time>2022-05-21 19:05:47</time>
      </trkpt>
      <trkpt lat="42.40984" lon="2.51363">
        <ele>671</ele>
        <time>2022-05-21 19:05:48</time>
      </trkpt>
      <trkpt lat="42.40985" lon="2.51361">
        <ele>671.2</ele>
        <time>2022-05-21 19:05:49</time>
      </trkpt>
      <trkpt lat="42.40986" lon="2.51359">
        <ele>671.2</ele>
        <time>2022-05-21 19:05:50</time>
      </trkpt>
      <trkpt lat="42.40988" lon="2.51357">
        <ele>671.2</ele>
        <time>2022-05-21 19:05:51</time>
      </trkpt>
      <trkpt lat="42.40989" lon="2.51355">
        <ele>671.2</ele>
        <time>2022-05-21 19:05:52</time>
      </trkpt>
      <trkpt lat="42.4099" lon="2.51352">
        <ele>671.4</ele>
        <time>2022-05-21 19:05:53</time>
      </trkpt>
      <trkpt lat="42.40991" lon="2.5135">
        <ele>671.4</ele>
        <time>2022-05-21 19:05:54</time>
      </trkpt>
      <trkpt lat="42.40992" lon="2.51348">
        <ele>671.6</ele>
        <time>2022-05-21 19:05:55</time>
      </trkpt>
      <trkpt lat="42.40993" lon="2.51345">
        <ele>671.8</ele>
        <time>2022-05-21 19:05:56</time>
      </trkpt>
      <trkpt lat="42.40994" lon="2.51343">
        <ele>672</ele>
        <time>2022-05-21 19:05:57</time>
      </trkpt>
      <trkpt lat="42.40995" lon="2.51341">
        <ele>672</ele>
        <time>2022-05-21 19:05:58</time>
      </trkpt>
      <trkpt lat="42.40996" lon="2.51338">
        <ele>672.2</ele>
        <time>2022-05-21 19:05:59</time>
      </trkpt>
      <trkpt lat="42.40997" lon="2.51335">
        <ele>672.4</ele>
        <time>2022-05-21 19:06:00</time>
      </trkpt>
      <trkpt lat="42.40998" lon="2.51333">
        <ele>672.6</ele>
        <time>2022-05-21 19:06:01</time>
      </trkpt>
      <trkpt lat="42.40998" lon="2.51331">
        <ele>672.6</ele>
        <time>2022-05-21 19:06:02</time>
      </trkpt>
      <trkpt lat="42.40999" lon="2.51328">
        <ele>672.8</ele>
        <time>2022-05-21 19:06:03</time>
      </trkpt>
      <trkpt lat="42.41" lon="2.51325">
        <ele>673</ele>
        <time>2022-05-21 19:06:04</time>
      </trkpt>
      <trkpt lat="42.41001" lon="2.51322">
        <ele>673</ele>
        <time>2022-05-21 19:06:05</time>
      </trkpt>
      <trkpt lat="42.41002" lon="2.51319">
        <ele>673.2</ele>
        <time>2022-05-21 19:06:06</time>
      </trkpt>
      <trkpt lat="42.41003" lon="2.51316">
        <ele>673.4</ele>
        <time>2022-05-21 19:06:07</time>
      </trkpt>
      <trkpt lat="42.41004" lon="2.51313">
        <ele>673.4</ele>
        <time>2022-05-21 19:06:08</time>
      </trkpt>
      <trkpt lat="42.41004" lon="2.51309">
        <ele>673.6</ele>
        <time>2022-05-21 19:06:09</time>
      </trkpt>
      <trkpt lat="42.41004" lon="2.51306">
        <ele>673.6</ele>
        <time>2022-05-21 19:06:10</time>
      </trkpt>
      <trkpt lat="42.41005" lon="2.51302">
        <ele>673.8</ele>
        <time>2022-05-21 19:06:11</time>
      </trkpt>
      <trkpt lat="42.41005" lon="2.51299">
        <ele>673.8</ele>
        <time>2022-05-21 19:06:12</time>
      </trkpt>
      <trkpt lat="42.41004" lon="2.51296">
        <ele>673.8</ele>
        <time>2022-05-21 19:06:13</time>
      </trkpt>
      <trkpt lat="42.41004" lon="2.51293">
        <ele>673.8</ele>
        <time>2022-05-21 19:06:14</time>
      </trkpt>
      <trkpt lat="42.41003" lon="2.51289">
        <ele>673.8</ele>
        <time>2022-05-21 19:06:15</time>
      </trkpt>
      <trkpt lat="42.41003" lon="2.51286">
        <ele>673.8</ele>
        <time>2022-05-21 19:06:16</time>
      </trkpt>
      <trkpt lat="42.41002" lon="2.51282">
        <ele>673.8</ele>
        <time>2022-05-21 19:06:17</time>
      </trkpt>
      <trkpt lat="42.41001" lon="2.51279">
        <ele>674</ele>
        <time>2022-05-21 19:06:18</time>
      </trkpt>
      <trkpt lat="42.41001" lon="2.51276">
        <ele>674</ele>
        <time>2022-05-21 19:06:19</time>
      </trkpt>
      <trkpt lat="42.41" lon="2.51273">
        <ele>674</ele>
        <time>2022-05-21 19:06:20</time>
      </trkpt>
      <trkpt lat="42.40999" lon="2.51271">
        <ele>674</ele>
        <time>2022-05-21 19:06:21</time>
      </trkpt>
      <trkpt lat="42.40998" lon="2.51268">
        <ele>674</ele>
        <time>2022-05-21 19:06:22</time>
      </trkpt>
      <trkpt lat="42.40996" lon="2.51266">
        <ele>674.2</ele>
        <time>2022-05-21 19:06:23</time>
      </trkpt>
      <trkpt lat="42.40994" lon="2.51263">
        <ele>674.2</ele>
        <time>2022-05-21 19:06:24</time>
      </trkpt>
      <trkpt lat="42.40991" lon="2.5126">
        <ele>674.2</ele>
        <time>2022-05-21 19:06:25</time>
      </trkpt>
      <trkpt lat="42.40988" lon="2.51257">
        <ele>674.2</ele>
        <time>2022-05-21 19:06:26</time>
      </trkpt>
      <trkpt lat="42.40985" lon="2.51256">
        <ele>674.2</ele>
        <time>2022-05-21 19:06:27</time>
      </trkpt>
      <trkpt lat="42.40981" lon="2.51254">
        <ele>674.2</ele>
        <time>2022-05-21 19:06:28</time>
      </trkpt>
      <trkpt lat="42.40978" lon="2.51253">
        <ele>674.2</ele>
        <time>2022-05-21 19:06:29</time>
      </trkpt>
      <trkpt lat="42.40975" lon="2.51252">
        <ele>674.4</ele>
        <time>2022-05-21 19:06:30</time>
      </trkpt>
      <trkpt lat="42.40972" lon="2.51251">
        <ele>674.4</ele>
        <time>2022-05-21 19:06:31</time>
      </trkpt>
      <trkpt lat="42.40968" lon="2.5125">
        <ele>674.4</ele>
        <time>2022-05-21 19:06:32</time>
      </trkpt>
      <trkpt lat="42.40965" lon="2.51249">
        <ele>674.4</ele>
        <time>2022-05-21 19:06:33</time>
      </trkpt>
      <trkpt lat="42.40961" lon="2.51249">
        <ele>674.6</ele>
        <time>2022-05-21 19:06:34</time>
      </trkpt>
      <trkpt lat="42.40958" lon="2.51248">
        <ele>674.6</ele>
        <time>2022-05-21 19:06:35</time>
      </trkpt>
      <trkpt lat="42.40955" lon="2.51247">
        <ele>674.6</ele>
        <time>2022-05-21 19:06:36</time>
      </trkpt>
      <trkpt lat="42.40952" lon="2.51246">
        <ele>674.6</ele>
        <time>2022-05-21 19:06:37</time>
      </trkpt>
      <trkpt lat="42.40949" lon="2.51246">
        <ele>674.8</ele>
        <time>2022-05-21 19:06:38</time>
      </trkpt>
      <trkpt lat="42.40946" lon="2.51245">
        <ele>674.8</ele>
        <time>2022-05-21 19:06:39</time>
      </trkpt>
      <trkpt lat="42.40943" lon="2.51244">
        <ele>674.8</ele>
        <time>2022-05-21 19:06:40</time>
      </trkpt>
      <trkpt lat="42.40939" lon="2.51244">
        <ele>674.8</ele>
        <time>2022-05-21 19:06:41</time>
      </trkpt>
      <trkpt lat="42.40936" lon="2.51243">
        <ele>674.8</ele>
        <time>2022-05-21 19:06:42</time>
      </trkpt>
      <trkpt lat="42.40933" lon="2.51243">
        <ele>675</ele>
        <time>2022-05-21 19:06:43</time>
      </trkpt>
      <trkpt lat="42.40929" lon="2.51242">
        <ele>675</ele>
        <time>2022-05-21 19:06:44</time>
      </trkpt>
      <trkpt lat="42.40926" lon="2.51241">
        <ele>675.2</ele>
        <time>2022-05-21 19:06:45</time>
      </trkpt>
      <trkpt lat="42.40923" lon="2.5124">
        <ele>675.2</ele>
        <time>2022-05-21 19:06:46</time>
      </trkpt>
      <trkpt lat="42.4092" lon="2.51239">
        <ele>675.2</ele>
        <time>2022-05-21 19:06:47</time>
      </trkpt>
      <trkpt lat="42.40917" lon="2.51238">
        <ele>675.2</ele>
        <time>2022-05-21 19:06:48</time>
      </trkpt>
      <trkpt lat="42.40914" lon="2.51236">
        <ele>675.4</ele>
        <time>2022-05-21 19:06:49</time>
      </trkpt>
      <trkpt lat="42.40912" lon="2.51234">
        <ele>675.4</ele>
        <time>2022-05-21 19:06:50</time>
      </trkpt>
      <trkpt lat="42.40909" lon="2.51233">
        <ele>675.4</ele>
        <time>2022-05-21 19:06:51</time>
      </trkpt>
      <trkpt lat="42.40906" lon="2.5123">
        <ele>675.4</ele>
        <time>2022-05-21 19:06:52</time>
      </trkpt>
      <trkpt lat="42.40904" lon="2.51228">
        <ele>675.6</ele>
        <time>2022-05-21 19:06:53</time>
      </trkpt>
      <trkpt lat="42.40901" lon="2.51225">
        <ele>675.6</ele>
        <time>2022-05-21 19:06:54</time>
      </trkpt>
      <trkpt lat="42.40899" lon="2.51222">
        <ele>675.6</ele>
        <time>2022-05-21 19:06:55</time>
      </trkpt>
      <trkpt lat="42.40896" lon="2.51219">
        <ele>675.6</ele>
        <time>2022-05-21 19:06:56</time>
      </trkpt>
      <trkpt lat="42.40894" lon="2.51215">
        <ele>675.8</ele>
        <time>2022-05-21 19:06:57</time>
      </trkpt>
      <trkpt lat="42.40892" lon="2.5121">
        <ele>675.8</ele>
        <time>2022-05-21 19:06:58</time>
      </trkpt>
      <trkpt lat="42.40891" lon="2.51206">
        <ele>675.8</ele>
        <time>2022-05-21 19:06:59</time>
      </trkpt>
      <trkpt lat="42.4089" lon="2.51202">
        <ele>675.8</ele>
        <time>2022-05-21 19:07:00</time>
      </trkpt>
      <trkpt lat="42.40889" lon="2.51197">
        <ele>676</ele>
        <time>2022-05-21 19:07:01</time>
      </trkpt>
      <trkpt lat="42.40888" lon="2.51193">
        <ele>676</ele>
        <time>2022-05-21 19:07:02</time>
      </trkpt>
      <trkpt lat="42.40887" lon="2.51188">
        <ele>676</ele>
        <time>2022-05-21 19:07:03</time>
      </trkpt>
      <trkpt lat="42.40886" lon="2.51184">
        <ele>676</ele>
        <time>2022-05-21 19:07:04</time>
      </trkpt>
      <trkpt lat="42.40885" lon="2.51179">
        <ele>676.2</ele>
        <time>2022-05-21 19:07:05</time>
      </trkpt>
      <trkpt lat="42.40884" lon="2.51174">
        <ele>676.2</ele>
        <time>2022-05-21 19:07:06</time>
      </trkpt>
      <trkpt lat="42.40883" lon="2.51168">
        <ele>676.2</ele>
        <time>2022-05-21 19:07:07</time>
      </trkpt>
      <trkpt lat="42.40882" lon="2.51163">
        <ele>676.4</ele>
        <time>2022-05-21 19:07:08</time>
      </trkpt>
      <trkpt lat="42.40881" lon="2.51158">
        <ele>676.4</ele>
        <time>2022-05-21 19:07:09</time>
      </trkpt>
      <trkpt lat="42.40879" lon="2.51152">
        <ele>676.4</ele>
        <time>2022-05-21 19:07:10</time>
      </trkpt>
      <trkpt lat="42.40878" lon="2.51147">
        <ele>676.4</ele>
        <time>2022-05-21 19:07:11</time>
      </trkpt>
      <trkpt lat="42.40877" lon="2.51142">
        <ele>676.4</ele>
        <time>2022-05-21 19:07:12</time>
      </trkpt>
      <trkpt lat="42.40876" lon="2.51137">
        <ele>676.6</ele>
        <time>2022-05-21 19:07:13</time>
      </trkpt>
      <trkpt lat="42.40875" lon="2.51132">
        <ele>676.6</ele>
        <time>2022-05-21 19:07:14</time>
      </trkpt>
      <trkpt lat="42.40874" lon="2.51128">
        <ele>676.6</ele>
        <time>2022-05-21 19:07:15</time>
      </trkpt>
      <trkpt lat="42.40873" lon="2.51122">
        <ele>676.4</ele>
        <time>2022-05-21 19:07:16</time>
      </trkpt>
      <trkpt lat="42.40872" lon="2.51117">
        <ele>676.4</ele>
        <time>2022-05-21 19:07:17</time>
      </trkpt>
      <trkpt lat="42.40871" lon="2.51112">
        <ele>676.4</ele>
        <time>2022-05-21 19:07:18</time>
      </trkpt>
      <trkpt lat="42.4087" lon="2.51106">
        <ele>676.4</ele>
        <time>2022-05-21 19:07:19</time>
      </trkpt>
      <trkpt lat="42.40869" lon="2.511">
        <ele>676.2</ele>
        <time>2022-05-21 19:07:20</time>
      </trkpt>
      <trkpt lat="42.40867" lon="2.51094">
        <ele>676.4</ele>
        <time>2022-05-21 19:07:21</time>
      </trkpt>
      <trkpt lat="42.40866" lon="2.51088">
        <ele>676.4</ele>
        <time>2022-05-21 19:07:22</time>
      </trkpt>
      <trkpt lat="42.40864" lon="2.51082">
        <ele>676.4</ele>
        <time>2022-05-21 19:07:23</time>
      </trkpt>
      <trkpt lat="42.40863" lon="2.51076">
        <ele>676.4</ele>
        <time>2022-05-21 19:07:24</time>
      </trkpt>
      <trkpt lat="42.40862" lon="2.51071">
        <ele>676.4</ele>
        <time>2022-05-21 19:07:25</time>
      </trkpt>
      <trkpt lat="42.40861" lon="2.51065">
        <ele>676.4</ele>
        <time>2022-05-21 19:07:26</time>
      </trkpt>
      <trkpt lat="42.40859" lon="2.51059">
        <ele>676.4</ele>
        <time>2022-05-21 19:07:27</time>
      </trkpt>
      <trkpt lat="42.40858" lon="2.51053">
        <ele>676.4</ele>
        <time>2022-05-21 19:07:28</time>
      </trkpt>
      <trkpt lat="42.40857" lon="2.51047">
        <ele>676.4</ele>
        <time>2022-05-21 19:07:29</time>
      </trkpt>
      <trkpt lat="42.40856" lon="2.51041">
        <ele>676.4</ele>
        <time>2022-05-21 19:07:30</time>
      </trkpt>
      <trkpt lat="42.40854" lon="2.51034">
        <ele>676.4</ele>
        <time>2022-05-21 19:07:31</time>
      </trkpt>
      <trkpt lat="42.40853" lon="2.51028">
        <ele>676.4</ele>
        <time>2022-05-21 19:07:32</time>
      </trkpt>
      <trkpt lat="42.40852" lon="2.51022">
        <ele>676.4</ele>
        <time>2022-05-21 19:07:33</time>
      </trkpt>
      <trkpt lat="42.40851" lon="2.51016">
        <ele>676.4</ele>
        <time>2022-05-21 19:07:34</time>
      </trkpt>
      <trkpt lat="42.40849" lon="2.5101">
        <ele>676.6</ele>
        <time>2022-05-21 19:07:35</time>
      </trkpt>
      <trkpt lat="42.40848" lon="2.51004">
        <ele>676.4</ele>
        <time>2022-05-21 19:07:36</time>
      </trkpt>
      <trkpt lat="42.40847" lon="2.50998">
        <ele>676.4</ele>
        <time>2022-05-21 19:07:37</time>
      </trkpt>
      <trkpt lat="42.40846" lon="2.50992">
        <ele>676.4</ele>
        <time>2022-05-21 19:07:38</time>
      </trkpt>
      <trkpt lat="42.40844" lon="2.50986">
        <ele>676.4</ele>
        <time>2022-05-21 19:07:39</time>
      </trkpt>
      <trkpt lat="42.40843" lon="2.5098">
        <ele>676.4</ele>
        <time>2022-05-21 19:07:40</time>
      </trkpt>
      <trkpt lat="42.40841" lon="2.50974">
        <ele>676.4</ele>
        <time>2022-05-21 19:07:41</time>
      </trkpt>
      <trkpt lat="42.4084" lon="2.50968">
        <ele>676.4</ele>
        <time>2022-05-21 19:07:42</time>
      </trkpt>
      <trkpt lat="42.40839" lon="2.50962">
        <ele>676.4</ele>
        <time>2022-05-21 19:07:43</time>
      </trkpt>
      <trkpt lat="42.40838" lon="2.50956">
        <ele>676.4</ele>
        <time>2022-05-21 19:07:44</time>
      </trkpt>
      <trkpt lat="42.40837" lon="2.5095">
        <ele>676.4</ele>
        <time>2022-05-21 19:07:45</time>
      </trkpt>
      <trkpt lat="42.40836" lon="2.50945">
        <ele>676.6</ele>
        <time>2022-05-21 19:07:46</time>
      </trkpt>
      <trkpt lat="42.40835" lon="2.50939">
        <ele>676.6</ele>
        <time>2022-05-21 19:07:47</time>
      </trkpt>
      <trkpt lat="42.40834" lon="2.50933">
        <ele>676.6</ele>
        <time>2022-05-21 19:07:48</time>
      </trkpt>
      <trkpt lat="42.40834" lon="2.50928">
        <ele>676.6</ele>
        <time>2022-05-21 19:07:49</time>
      </trkpt>
      <trkpt lat="42.40834" lon="2.50922">
        <ele>676.6</ele>
        <time>2022-05-21 19:07:50</time>
      </trkpt>
      <trkpt lat="42.40834" lon="2.50916">
        <ele>676.6</ele>
        <time>2022-05-21 19:07:51</time>
      </trkpt>
      <trkpt lat="42.40834" lon="2.50911">
        <ele>676.6</ele>
        <time>2022-05-21 19:07:52</time>
      </trkpt>
      <trkpt lat="42.40834" lon="2.50905">
        <ele>676.6</ele>
        <time>2022-05-21 19:07:53</time>
      </trkpt>
      <trkpt lat="42.40834" lon="2.509">
        <ele>676.6</ele>
        <time>2022-05-21 19:07:54</time>
      </trkpt>
      <trkpt lat="42.40835" lon="2.50894">
        <ele>676.6</ele>
        <time>2022-05-21 19:07:55</time>
      </trkpt>
      <trkpt lat="42.40835" lon="2.50888">
        <ele>676.6</ele>
        <time>2022-05-21 19:07:56</time>
      </trkpt>
      <trkpt lat="42.40835" lon="2.50883">
        <ele>676.4</ele>
        <time>2022-05-21 19:07:57</time>
      </trkpt>
      <trkpt lat="42.40835" lon="2.50877">
        <ele>676.4</ele>
        <time>2022-05-21 19:07:58</time>
      </trkpt>
      <trkpt lat="42.40836" lon="2.50871">
        <ele>676.2</ele>
        <time>2022-05-21 19:07:59</time>
      </trkpt>
      <trkpt lat="42.40836" lon="2.50864">
        <ele>676.2</ele>
        <time>2022-05-21 19:08:00</time>
      </trkpt>
      <trkpt lat="42.40836" lon="2.50858">
        <ele>676</ele>
        <time>2022-05-21 19:08:01</time>
      </trkpt>
      <trkpt lat="42.40836" lon="2.50851">
        <ele>676</ele>
        <time>2022-05-21 19:08:02</time>
      </trkpt>
      <trkpt lat="42.40836" lon="2.50845">
        <ele>675.8</ele>
        <time>2022-05-21 19:08:03</time>
      </trkpt>
      <trkpt lat="42.40836" lon="2.50838">
        <ele>675.8</ele>
        <time>2022-05-21 19:08:04</time>
      </trkpt>
      <trkpt lat="42.40836" lon="2.5083">
        <ele>675.6</ele>
        <time>2022-05-21 19:08:05</time>
      </trkpt>
      <trkpt lat="42.40835" lon="2.50823">
        <ele>675.4</ele>
        <time>2022-05-21 19:08:06</time>
      </trkpt>
      <trkpt lat="42.40835" lon="2.50815">
        <ele>675.4</ele>
        <time>2022-05-21 19:08:07</time>
      </trkpt>
      <trkpt lat="42.40834" lon="2.50807">
        <ele>675</ele>
        <time>2022-05-21 19:08:08</time>
      </trkpt>
      <trkpt lat="42.40833" lon="2.50799">
        <ele>674.8</ele>
        <time>2022-05-21 19:08:09</time>
      </trkpt>
      <trkpt lat="42.40833" lon="2.50791">
        <ele>674.6</ele>
        <time>2022-05-21 19:08:10</time>
      </trkpt>
      <trkpt lat="42.40832" lon="2.50783">
        <ele>674.4</ele>
        <time>2022-05-21 19:08:11</time>
      </trkpt>
      <trkpt lat="42.4083" lon="2.50774">
        <ele>674</ele>
        <time>2022-05-21 19:08:12</time>
      </trkpt>
      <trkpt lat="42.40829" lon="2.50765">
        <ele>673.8</ele>
        <time>2022-05-21 19:08:13</time>
      </trkpt>
      <trkpt lat="42.40827" lon="2.50756">
        <ele>673.4</ele>
        <time>2022-05-21 19:08:14</time>
      </trkpt>
      <trkpt lat="42.40825" lon="2.50747">
        <ele>673.2</ele>
        <time>2022-05-21 19:08:15</time>
      </trkpt>
      <trkpt lat="42.40823" lon="2.50738">
        <ele>672.8</ele>
        <time>2022-05-21 19:08:16</time>
      </trkpt>
      <trkpt lat="42.40821" lon="2.50728">
        <ele>672.4</ele>
        <time>2022-05-21 19:08:17</time>
      </trkpt>
      <trkpt lat="42.4082" lon="2.50719">
        <ele>672.2</ele>
        <time>2022-05-21 19:08:18</time>
      </trkpt>
      <trkpt lat="42.40818" lon="2.50709">
        <ele>671.8</ele>
        <time>2022-05-21 19:08:19</time>
      </trkpt>
      <trkpt lat="42.40817" lon="2.507">
        <ele>671.4</ele>
        <time>2022-05-21 19:08:20</time>
      </trkpt>
      <trkpt lat="42.40815" lon="2.5069">
        <ele>671</ele>
        <time>2022-05-21 19:08:21</time>
      </trkpt>
      <trkpt lat="42.40814" lon="2.5068">
        <ele>670.8</ele>
        <time>2022-05-21 19:08:22</time>
      </trkpt>
      <trkpt lat="42.40812" lon="2.5067">
        <ele>670.4</ele>
        <time>2022-05-21 19:08:23</time>
      </trkpt>
      <trkpt lat="42.40811" lon="2.5066">
        <ele>670</ele>
        <time>2022-05-21 19:08:24</time>
      </trkpt>
      <trkpt lat="42.40809" lon="2.5065">
        <ele>669.8</ele>
        <time>2022-05-21 19:08:25</time>
      </trkpt>
      <trkpt lat="42.40807" lon="2.5064">
        <ele>669.6</ele>
        <time>2022-05-21 19:08:26</time>
      </trkpt>
      <trkpt lat="42.40805" lon="2.50631">
        <ele>669.6</ele>
        <time>2022-05-21 19:08:27</time>
      </trkpt>
      <trkpt lat="42.40803" lon="2.50622">
        <ele>669.4</ele>
        <time>2022-05-21 19:08:28</time>
      </trkpt>
      <trkpt lat="42.408" lon="2.50614">
        <ele>669.4</ele>
        <time>2022-05-21 19:08:29</time>
      </trkpt>
      <trkpt lat="42.40797" lon="2.50605">
        <ele>669.4</ele>
        <time>2022-05-21 19:08:30</time>
      </trkpt>
      <trkpt lat="42.40793" lon="2.50597">
        <ele>669.6</ele>
        <time>2022-05-21 19:08:31</time>
      </trkpt>
      <trkpt lat="42.4079" lon="2.50588">
        <ele>669.6</ele>
        <time>2022-05-21 19:08:32</time>
      </trkpt>
      <trkpt lat="42.40786" lon="2.50579">
        <ele>669.8</ele>
        <time>2022-05-21 19:08:33</time>
      </trkpt>
      <trkpt lat="42.40783" lon="2.50572">
        <ele>669.8</ele>
        <time>2022-05-21 19:08:34</time>
      </trkpt>
      <trkpt lat="42.4078" lon="2.50565">
        <ele>670</ele>
        <time>2022-05-21 19:08:35</time>
      </trkpt>
      <trkpt lat="42.40776" lon="2.50557">
        <ele>670.2</ele>
        <time>2022-05-21 19:08:36</time>
      </trkpt>
      <trkpt lat="42.40773" lon="2.5055">
        <ele>670.4</ele>
        <time>2022-05-21 19:08:37</time>
      </trkpt>
      <trkpt lat="42.40771" lon="2.50543">
        <ele>670.6</ele>
        <time>2022-05-21 19:08:38</time>
      </trkpt>
      <trkpt lat="42.40768" lon="2.50537">
        <ele>671</ele>
        <time>2022-05-21 19:08:39</time>
      </trkpt>
      <trkpt lat="42.40765" lon="2.50532">
        <ele>671.2</ele>
        <time>2022-05-21 19:08:40</time>
      </trkpt>
      <trkpt lat="42.40762" lon="2.50526">
        <ele>671.4</ele>
        <time>2022-05-21 19:08:41</time>
      </trkpt>
      <trkpt lat="42.4076" lon="2.50521">
        <ele>671.8</ele>
        <time>2022-05-21 19:08:42</time>
      </trkpt>
      <trkpt lat="42.40757" lon="2.50516">
        <ele>672</ele>
        <time>2022-05-21 19:08:43</time>
      </trkpt>
      <trkpt lat="42.40755" lon="2.5051">
        <ele>672.2</ele>
        <time>2022-05-21 19:08:44</time>
      </trkpt>
      <trkpt lat="42.40752" lon="2.50505">
        <ele>672.4</ele>
        <time>2022-05-21 19:08:45</time>
      </trkpt>
      <trkpt lat="42.4075" lon="2.505">
        <ele>672.8</ele>
        <time>2022-05-21 19:08:46</time>
      </trkpt>
      <trkpt lat="42.40748" lon="2.50495">
        <ele>673</ele>
        <time>2022-05-21 19:08:47</time>
      </trkpt>
      <trkpt lat="42.40746" lon="2.5049">
        <ele>673.2</ele>
        <time>2022-05-21 19:08:48</time>
      </trkpt>
      <trkpt lat="42.40743" lon="2.50485">
        <ele>673.4</ele>
        <time>2022-05-21 19:08:49</time>
      </trkpt>
      <trkpt lat="42.40741" lon="2.50481">
        <ele>673.6</ele>
        <time>2022-05-21 19:08:50</time>
      </trkpt>
      <trkpt lat="42.40738" lon="2.50476">
        <ele>673.8</ele>
        <time>2022-05-21 19:08:51</time>
      </trkpt>
      <trkpt lat="42.40736" lon="2.50471">
        <ele>674.2</ele>
        <time>2022-05-21 19:08:52</time>
      </trkpt>
      <trkpt lat="42.40733" lon="2.50467">
        <ele>674.2</ele>
        <time>2022-05-21 19:08:53</time>
      </trkpt>
      <trkpt lat="42.40731" lon="2.50461">
        <ele>674.4</ele>
        <time>2022-05-21 19:08:54</time>
      </trkpt>
      <trkpt lat="42.40728" lon="2.50456">
        <ele>674.6</ele>
        <time>2022-05-21 19:08:55</time>
      </trkpt>
      <trkpt lat="42.40726" lon="2.50451">
        <ele>674.8</ele>
        <time>2022-05-21 19:08:56</time>
      </trkpt>
      <trkpt lat="42.40723" lon="2.50446">
        <ele>675</ele>
        <time>2022-05-21 19:08:57</time>
      </trkpt>
      <trkpt lat="42.4072" lon="2.50441">
        <ele>675</ele>
        <time>2022-05-21 19:08:58</time>
      </trkpt>
      <trkpt lat="42.40718" lon="2.50432">
        <ele>675.2</ele>
        <time>2022-05-21 19:08:59</time>
      </trkpt>
      <trkpt lat="42.40716" lon="2.50423">
        <ele>675.4</ele>
        <time>2022-05-21 19:09:00</time>
      </trkpt>
      <trkpt lat="42.40714" lon="2.50419">
        <ele>675.4</ele>
        <time>2022-05-21 19:09:01</time>
      </trkpt>
      <trkpt lat="42.40712" lon="2.50413">
        <ele>675.6</ele>
        <time>2022-05-21 19:09:02</time>
      </trkpt>
      <trkpt lat="42.4071" lon="2.50408">
        <ele>675.8</ele>
        <time>2022-05-21 19:09:03</time>
      </trkpt>
      <trkpt lat="42.40707" lon="2.50404">
        <ele>676</ele>
        <time>2022-05-21 19:09:04</time>
      </trkpt>
      <trkpt lat="42.40705" lon="2.50399">
        <ele>676</ele>
        <time>2022-05-21 19:09:05</time>
      </trkpt>
      <trkpt lat="42.40703" lon="2.50394">
        <ele>676.2</ele>
        <time>2022-05-21 19:09:06</time>
      </trkpt>
      <trkpt lat="42.40702" lon="2.50388">
        <ele>676.2</ele>
        <time>2022-05-21 19:09:07</time>
      </trkpt>
      <trkpt lat="42.407" lon="2.50383">
        <ele>676.4</ele>
        <time>2022-05-21 19:09:08</time>
      </trkpt>
      <trkpt lat="42.40698" lon="2.50378">
        <ele>676.6</ele>
        <time>2022-05-21 19:09:09</time>
      </trkpt>
      <trkpt lat="42.40697" lon="2.50373">
        <ele>676.6</ele>
        <time>2022-05-21 19:09:10</time>
      </trkpt>
      <trkpt lat="42.40695" lon="2.50367">
        <ele>676.8</ele>
        <time>2022-05-21 19:09:11</time>
      </trkpt>
      <trkpt lat="42.40693" lon="2.50362">
        <ele>676.8</ele>
        <time>2022-05-21 19:09:12</time>
      </trkpt>
      <trkpt lat="42.40692" lon="2.50356">
        <ele>676.8</ele>
        <time>2022-05-21 19:09:13</time>
      </trkpt>
      <trkpt lat="42.4069" lon="2.50351">
        <ele>677</ele>
        <time>2022-05-21 19:09:14</time>
      </trkpt>
      <trkpt lat="42.40689" lon="2.50345">
        <ele>677</ele>
        <time>2022-05-21 19:09:15</time>
      </trkpt>
      <trkpt lat="42.40688" lon="2.50339">
        <ele>677</ele>
        <time>2022-05-21 19:09:16</time>
      </trkpt>
      <trkpt lat="42.40686" lon="2.50333">
        <ele>677</ele>
        <time>2022-05-21 19:09:17</time>
      </trkpt>
      <trkpt lat="42.40685" lon="2.50328">
        <ele>677</ele>
        <time>2022-05-21 19:09:18</time>
      </trkpt>
      <trkpt lat="42.40684" lon="2.50322">
        <ele>677</ele>
        <time>2022-05-21 19:09:19</time>
      </trkpt>
      <trkpt lat="42.40683" lon="2.50316">
        <ele>677</ele>
        <time>2022-05-21 19:09:20</time>
      </trkpt>
      <trkpt lat="42.40682" lon="2.50311">
        <ele>677.2</ele>
        <time>2022-05-21 19:09:21</time>
      </trkpt>
      <trkpt lat="42.40681" lon="2.50306">
        <ele>677.2</ele>
        <time>2022-05-21 19:09:22</time>
      </trkpt>
      <trkpt lat="42.4068" lon="2.50299">
        <ele>677.2</ele>
        <time>2022-05-21 19:09:23</time>
      </trkpt>
      <trkpt lat="42.40679" lon="2.50293">
        <ele>677.2</ele>
        <time>2022-05-21 19:09:24</time>
      </trkpt>
      <trkpt lat="42.40678" lon="2.50287">
        <ele>677.4</ele>
        <time>2022-05-21 19:09:25</time>
      </trkpt>
      <trkpt lat="42.40677" lon="2.50282">
        <ele>677.6</ele>
        <time>2022-05-21 19:09:26</time>
      </trkpt>
      <trkpt lat="42.40677" lon="2.50277">
        <ele>677.6</ele>
        <time>2022-05-21 19:09:27</time>
      </trkpt>
      <trkpt lat="42.40676" lon="2.50272">
        <ele>677.8</ele>
        <time>2022-05-21 19:09:28</time>
      </trkpt>
      <trkpt lat="42.40675" lon="2.50267">
        <ele>678</ele>
        <time>2022-05-21 19:09:29</time>
      </trkpt>
      <trkpt lat="42.40674" lon="2.50262">
        <ele>678</ele>
        <time>2022-05-21 19:09:30</time>
      </trkpt>
      <trkpt lat="42.40673" lon="2.50258">
        <ele>678.2</ele>
        <time>2022-05-21 19:09:31</time>
      </trkpt>
      <trkpt lat="42.40672" lon="2.50253">
        <ele>678.4</ele>
        <time>2022-05-21 19:09:32</time>
      </trkpt>
      <trkpt lat="42.40671" lon="2.50248">
        <ele>678.6</ele>
        <time>2022-05-21 19:09:33</time>
      </trkpt>
      <trkpt lat="42.4067" lon="2.50244">
        <ele>678.8</ele>
        <time>2022-05-21 19:09:34</time>
      </trkpt>
      <trkpt lat="42.4067" lon="2.50239">
        <ele>679</ele>
        <time>2022-05-21 19:09:35</time>
      </trkpt>
      <trkpt lat="42.40669" lon="2.50235">
        <ele>679.2</ele>
        <time>2022-05-21 19:09:36</time>
      </trkpt>
      <trkpt lat="42.40668" lon="2.50231">
        <ele>679.4</ele>
        <time>2022-05-21 19:09:37</time>
      </trkpt>
      <trkpt lat="42.40667" lon="2.50227">
        <ele>679.6</ele>
        <time>2022-05-21 19:09:38</time>
      </trkpt>
      <trkpt lat="42.40666" lon="2.50223">
        <ele>679.6</ele>
        <time>2022-05-21 19:09:39</time>
      </trkpt>
      <trkpt lat="42.40665" lon="2.50219">
        <ele>679.8</ele>
        <time>2022-05-21 19:09:40</time>
      </trkpt>
      <trkpt lat="42.40664" lon="2.50215">
        <ele>680</ele>
        <time>2022-05-21 19:09:41</time>
      </trkpt>
      <trkpt lat="42.40663" lon="2.50211">
        <ele>680.2</ele>
        <time>2022-05-21 19:09:42</time>
      </trkpt>
      <trkpt lat="42.40662" lon="2.50207">
        <ele>680.4</ele>
        <time>2022-05-21 19:09:43</time>
      </trkpt>
      <trkpt lat="42.40661" lon="2.50202">
        <ele>680.6</ele>
        <time>2022-05-21 19:09:44</time>
      </trkpt>
      <trkpt lat="42.4066" lon="2.50198">
        <ele>680.8</ele>
        <time>2022-05-21 19:09:45</time>
      </trkpt>
      <trkpt lat="42.40659" lon="2.50195">
        <ele>681</ele>
        <time>2022-05-21 19:09:46</time>
      </trkpt>
      <trkpt lat="42.40657" lon="2.50192">
        <ele>681</ele>
        <time>2022-05-21 19:09:47</time>
      </trkpt>
      <trkpt lat="42.40656" lon="2.50189">
        <ele>681.2</ele>
        <time>2022-05-21 19:09:48</time>
      </trkpt>
      <trkpt lat="42.40655" lon="2.50186">
        <ele>681.4</ele>
        <time>2022-05-21 19:09:49</time>
      </trkpt>
      <trkpt lat="42.40653" lon="2.50183">
        <ele>681.6</ele>
        <time>2022-05-21 19:09:50</time>
      </trkpt>
      <trkpt lat="42.40652" lon="2.50179">
        <ele>681.6</ele>
        <time>2022-05-21 19:09:51</time>
      </trkpt>
      <trkpt lat="42.4065" lon="2.50176">
        <ele>681.8</ele>
        <time>2022-05-21 19:09:52</time>
      </trkpt>
      <trkpt lat="42.40648" lon="2.50174">
        <ele>682</ele>
        <time>2022-05-21 19:09:53</time>
      </trkpt>
      <trkpt lat="42.40646" lon="2.50172">
        <ele>682</ele>
        <time>2022-05-21 19:09:54</time>
      </trkpt>
      <trkpt lat="42.40645" lon="2.50169">
        <ele>682.2</ele>
        <time>2022-05-21 19:09:55</time>
      </trkpt>
      <trkpt lat="42.40643" lon="2.50166">
        <ele>682.2</ele>
        <time>2022-05-21 19:09:56</time>
      </trkpt>
      <trkpt lat="42.40642" lon="2.50163">
        <ele>682.4</ele>
        <time>2022-05-21 19:09:57</time>
      </trkpt>
      <trkpt lat="42.40641" lon="2.50161">
        <ele>682.6</ele>
        <time>2022-05-21 19:09:58</time>
      </trkpt>
      <trkpt lat="42.4064" lon="2.50159">
        <ele>682.6</ele>
        <time>2022-05-21 19:09:59</time>
      </trkpt>
      <trkpt lat="42.40639" lon="2.50156">
        <ele>682.8</ele>
        <time>2022-05-21 19:10:00</time>
      </trkpt>
      <trkpt lat="42.40637" lon="2.50152">
        <ele>682.8</ele>
        <time>2022-05-21 19:10:01</time>
      </trkpt>
      <trkpt lat="42.40635" lon="2.50149">
        <ele>683</ele>
        <time>2022-05-21 19:10:02</time>
      </trkpt>
      <trkpt lat="42.40634" lon="2.50146">
        <ele>683</ele>
        <time>2022-05-21 19:10:03</time>
      </trkpt>
      <trkpt lat="42.40632" lon="2.50145">
        <ele>683.2</ele>
        <time>2022-05-21 19:10:04</time>
      </trkpt>
      <trkpt lat="42.4063" lon="2.50142">
        <ele>683.4</ele>
        <time>2022-05-21 19:10:05</time>
      </trkpt>
      <trkpt lat="42.40628" lon="2.50139">
        <ele>683.6</ele>
        <time>2022-05-21 19:10:06</time>
      </trkpt>
      <trkpt lat="42.40625" lon="2.50135">
        <ele>683.6</ele>
        <time>2022-05-21 19:10:07</time>
      </trkpt>
      <trkpt lat="42.40622" lon="2.50131">
        <ele>683.8</ele>
        <time>2022-05-21 19:10:08</time>
      </trkpt>
      <trkpt lat="42.4062" lon="2.50127">
        <ele>684</ele>
        <time>2022-05-21 19:10:09</time>
      </trkpt>
      <trkpt lat="42.40617" lon="2.50123">
        <ele>684.2</ele>
        <time>2022-05-21 19:10:10</time>
      </trkpt>
      <trkpt lat="42.40615" lon="2.50119">
        <ele>684.2</ele>
        <time>2022-05-21 19:10:11</time>
      </trkpt>
      <trkpt lat="42.40612" lon="2.50115">
        <ele>684.4</ele>
        <time>2022-05-21 19:10:12</time>
      </trkpt>
      <trkpt lat="42.4061" lon="2.50112">
        <ele>684.6</ele>
        <time>2022-05-21 19:10:13</time>
      </trkpt>
      <trkpt lat="42.40608" lon="2.50109">
        <ele>684.6</ele>
        <time>2022-05-21 19:10:14</time>
      </trkpt>
      <trkpt lat="42.40605" lon="2.50106">
        <ele>684.8</ele>
        <time>2022-05-21 19:10:15</time>
      </trkpt>
      <trkpt lat="42.40603" lon="2.50103">
        <ele>685</ele>
        <time>2022-05-21 19:10:16</time>
      </trkpt>
      <trkpt lat="42.406" lon="2.501">
        <ele>685.2</ele>
        <time>2022-05-21 19:10:17</time>
      </trkpt>
      <trkpt lat="42.40597" lon="2.50098">
        <ele>685.2</ele>
        <time>2022-05-21 19:10:18</time>
      </trkpt>
      <trkpt lat="42.40595" lon="2.50096">
        <ele>685.4</ele>
        <time>2022-05-21 19:10:19</time>
      </trkpt>
      <trkpt lat="42.40593" lon="2.50093">
        <ele>685.4</ele>
        <time>2022-05-21 19:10:20</time>
      </trkpt>
      <trkpt lat="42.40591" lon="2.5009">
        <ele>685.6</ele>
        <time>2022-05-21 19:10:21</time>
      </trkpt>
      <trkpt lat="42.40588" lon="2.50088">
        <ele>685.8</ele>
        <time>2022-05-21 19:10:22</time>
      </trkpt>
      <trkpt lat="42.40586" lon="2.50086">
        <ele>685.8</ele>
        <time>2022-05-21 19:10:23</time>
      </trkpt>
      <trkpt lat="42.40584" lon="2.50084">
        <ele>686</ele>
        <time>2022-05-21 19:10:24</time>
      </trkpt>
      <trkpt lat="42.40581" lon="2.50081">
        <ele>686</ele>
        <time>2022-05-21 19:10:25</time>
      </trkpt>
      <trkpt lat="42.40579" lon="2.50079">
        <ele>686.2</ele>
        <time>2022-05-21 19:10:26</time>
      </trkpt>
      <trkpt lat="42.40576" lon="2.50076">
        <ele>686.2</ele>
        <time>2022-05-21 19:10:27</time>
      </trkpt>
      <trkpt lat="42.40574" lon="2.50073">
        <ele>686.4</ele>
        <time>2022-05-21 19:10:28</time>
      </trkpt>
      <trkpt lat="42.40573" lon="2.5007">
        <ele>686.4</ele>
        <time>2022-05-21 19:10:29</time>
      </trkpt>
      <trkpt lat="42.40571" lon="2.50067">
        <ele>686.6</ele>
        <time>2022-05-21 19:10:30</time>
      </trkpt>
      <trkpt lat="42.40569" lon="2.50064">
        <ele>686.8</ele>
        <time>2022-05-21 19:10:31</time>
      </trkpt>
      <trkpt lat="42.40567" lon="2.50061">
        <ele>686.8</ele>
        <time>2022-05-21 19:10:32</time>
      </trkpt>
      <trkpt lat="42.40566" lon="2.50058">
        <ele>687</ele>
        <time>2022-05-21 19:10:33</time>
      </trkpt>
      <trkpt lat="42.40565" lon="2.50055">
        <ele>687</ele>
        <time>2022-05-21 19:10:34</time>
      </trkpt>
      <trkpt lat="42.40564" lon="2.50052">
        <ele>687.2</ele>
        <time>2022-05-21 19:10:35</time>
      </trkpt>
      <trkpt lat="42.40562" lon="2.50049">
        <ele>687.4</ele>
        <time>2022-05-21 19:10:36</time>
      </trkpt>
      <trkpt lat="42.40562" lon="2.50046">
        <ele>687.4</ele>
        <time>2022-05-21 19:10:37</time>
      </trkpt>
      <trkpt lat="42.40561" lon="2.50044">
        <ele>687.6</ele>
        <time>2022-05-21 19:10:38</time>
      </trkpt>
      <trkpt lat="42.4056" lon="2.50041">
        <ele>687.6</ele>
        <time>2022-05-21 19:10:39</time>
      </trkpt>
      <trkpt lat="42.40559" lon="2.50038">
        <ele>687.8</ele>
        <time>2022-05-21 19:10:40</time>
      </trkpt>
      <trkpt lat="42.40558" lon="2.50035">
        <ele>687.8</ele>
        <time>2022-05-21 19:10:41</time>
      </trkpt>
      <trkpt lat="42.40558" lon="2.50031">
        <ele>688</ele>
        <time>2022-05-21 19:10:42</time>
      </trkpt>
      <trkpt lat="42.40557" lon="2.50028">
        <ele>688.2</ele>
        <time>2022-05-21 19:10:43</time>
      </trkpt>
      <trkpt lat="42.40557" lon="2.50026">
        <ele>688.2</ele>
        <time>2022-05-21 19:10:44</time>
      </trkpt>
      <trkpt lat="42.40556" lon="2.50023">
        <ele>688.4</ele>
        <time>2022-05-21 19:10:45</time>
      </trkpt>
      <trkpt lat="42.40556" lon="2.5002">
        <ele>688.6</ele>
        <time>2022-05-21 19:10:46</time>
      </trkpt>
      <trkpt lat="42.40556" lon="2.50017">
        <ele>688.6</ele>
        <time>2022-05-21 19:10:47</time>
      </trkpt>
      <trkpt lat="42.40556" lon="2.50014">
        <ele>688.8</ele>
        <time>2022-05-21 19:10:48</time>
      </trkpt>
      <trkpt lat="42.40556" lon="2.5001">
        <ele>688.8</ele>
        <time>2022-05-21 19:10:49</time>
      </trkpt>
      <trkpt lat="42.40556" lon="2.50007">
        <ele>689</ele>
        <time>2022-05-21 19:10:50</time>
      </trkpt>
      <trkpt lat="42.40556" lon="2.50003">
        <ele>689</ele>
        <time>2022-05-21 19:10:51</time>
      </trkpt>
      <trkpt lat="42.40556" lon="2.5">
        <ele>689.2</ele>
        <time>2022-05-21 19:10:52</time>
      </trkpt>
      <trkpt lat="42.40557" lon="2.49996">
        <ele>689.4</ele>
        <time>2022-05-21 19:10:53</time>
      </trkpt>
      <trkpt lat="42.40557" lon="2.49993">
        <ele>689.4</ele>
        <time>2022-05-21 19:10:54</time>
      </trkpt>
      <trkpt lat="42.40557" lon="2.49991">
        <ele>689.6</ele>
        <time>2022-05-21 19:10:55</time>
      </trkpt>
      <trkpt lat="42.40558" lon="2.49988">
        <ele>689.8</ele>
        <time>2022-05-21 19:10:56</time>
      </trkpt>
      <trkpt lat="42.40558" lon="2.49986">
        <ele>689.8</ele>
        <time>2022-05-21 19:10:57</time>
      </trkpt>
      <trkpt lat="42.40559" lon="2.49983">
        <ele>690</ele>
        <time>2022-05-21 19:10:58</time>
      </trkpt>
      <trkpt lat="42.40559" lon="2.4998">
        <ele>690.2</ele>
        <time>2022-05-21 19:10:59</time>
      </trkpt>
      <trkpt lat="42.40559" lon="2.49977">
        <ele>690.2</ele>
        <time>2022-05-21 19:11:00</time>
      </trkpt>
      <trkpt lat="42.40559" lon="2.49974">
        <ele>690.4</ele>
        <time>2022-05-21 19:11:01</time>
      </trkpt>
      <trkpt lat="42.40559" lon="2.49972">
        <ele>690.6</ele>
        <time>2022-05-21 19:11:02</time>
      </trkpt>
      <trkpt lat="42.4056" lon="2.49969">
        <ele>690.6</ele>
        <time>2022-05-21 19:11:03</time>
      </trkpt>
      <trkpt lat="42.40561" lon="2.49967">
        <ele>690.8</ele>
        <time>2022-05-21 19:11:04</time>
      </trkpt>
      <trkpt lat="42.40561" lon="2.49964">
        <ele>691</ele>
        <time>2022-05-21 19:11:05</time>
      </trkpt>
      <trkpt lat="42.40562" lon="2.49961">
        <ele>691</ele>
        <time>2022-05-21 19:11:06</time>
      </trkpt>
      <trkpt lat="42.40562" lon="2.49957">
        <ele>691.2</ele>
        <time>2022-05-21 19:11:07</time>
      </trkpt>
      <trkpt lat="42.40563" lon="2.49955">
        <ele>691.2</ele>
        <time>2022-05-21 19:11:08</time>
      </trkpt>
      <trkpt lat="42.40564" lon="2.49952">
        <ele>691.4</ele>
        <time>2022-05-21 19:11:09</time>
      </trkpt>
      <trkpt lat="42.40564" lon="2.49949">
        <ele>691.6</ele>
        <time>2022-05-21 19:11:10</time>
      </trkpt>
      <trkpt lat="42.40565" lon="2.49945">
        <ele>691.6</ele>
        <time>2022-05-21 19:11:11</time>
      </trkpt>
      <trkpt lat="42.40565" lon="2.49941">
        <ele>691.8</ele>
        <time>2022-05-21 19:11:12</time>
      </trkpt>
      <trkpt lat="42.40566" lon="2.49938">
        <ele>691.8</ele>
        <time>2022-05-21 19:11:13</time>
      </trkpt>
      <trkpt lat="42.40566" lon="2.49935">
        <ele>692</ele>
        <time>2022-05-21 19:11:14</time>
      </trkpt>
      <trkpt lat="42.40566" lon="2.49931">
        <ele>692.2</ele>
        <time>2022-05-21 19:11:15</time>
      </trkpt>
      <trkpt lat="42.40567" lon="2.49928">
        <ele>692.2</ele>
        <time>2022-05-21 19:11:16</time>
      </trkpt>
      <trkpt lat="42.40567" lon="2.49923">
        <ele>692.4</ele>
        <time>2022-05-21 19:11:17</time>
      </trkpt>
      <trkpt lat="42.40567" lon="2.49919">
        <ele>692.4</ele>
        <time>2022-05-21 19:11:18</time>
      </trkpt>
      <trkpt lat="42.40567" lon="2.49915">
        <ele>692.6</ele>
        <time>2022-05-21 19:11:19</time>
      </trkpt>
      <trkpt lat="42.40566" lon="2.49911">
        <ele>692.6</ele>
        <time>2022-05-21 19:11:20</time>
      </trkpt>
      <trkpt lat="42.40566" lon="2.49907">
        <ele>692.8</ele>
        <time>2022-05-21 19:11:21</time>
      </trkpt>
      <trkpt lat="42.40566" lon="2.49905">
        <ele>692.8</ele>
        <time>2022-05-21 19:11:22</time>
      </trkpt>
      <trkpt lat="42.40566" lon="2.49901">
        <ele>693</ele>
        <time>2022-05-21 19:11:23</time>
      </trkpt>
      <trkpt lat="42.40565" lon="2.49897">
        <ele>693</ele>
        <time>2022-05-21 19:11:24</time>
      </trkpt>
      <trkpt lat="42.40565" lon="2.49894">
        <ele>693.2</ele>
        <time>2022-05-21 19:11:25</time>
      </trkpt>
      <trkpt lat="42.40565" lon="2.4989">
        <ele>693.2</ele>
        <time>2022-05-21 19:11:26</time>
      </trkpt>
      <trkpt lat="42.40565" lon="2.49885">
        <ele>693.4</ele>
        <time>2022-05-21 19:11:27</time>
      </trkpt>
      <trkpt lat="42.40564" lon="2.4988">
        <ele>693.6</ele>
        <time>2022-05-21 19:11:28</time>
      </trkpt>
      <trkpt lat="42.40563" lon="2.49876">
        <ele>693.6</ele>
        <time>2022-05-21 19:11:29</time>
      </trkpt>
      <trkpt lat="42.40563" lon="2.49872">
        <ele>693.8</ele>
        <time>2022-05-21 19:11:30</time>
      </trkpt>
      <trkpt lat="42.40563" lon="2.49868">
        <ele>694</ele>
        <time>2022-05-21 19:11:31</time>
      </trkpt>
      <trkpt lat="42.40562" lon="2.49865">
        <ele>694.2</ele>
        <time>2022-05-21 19:11:32</time>
      </trkpt>
      <trkpt lat="42.40562" lon="2.49861">
        <ele>694.2</ele>
        <time>2022-05-21 19:11:33</time>
      </trkpt>
      <trkpt lat="42.40562" lon="2.49856">
        <ele>694.4</ele>
        <time>2022-05-21 19:11:34</time>
      </trkpt>
      <trkpt lat="42.40562" lon="2.49852">
        <ele>694.6</ele>
        <time>2022-05-21 19:11:35</time>
      </trkpt>
      <trkpt lat="42.40562" lon="2.49848">
        <ele>694.6</ele>
        <time>2022-05-21 19:11:36</time>
      </trkpt>
      <trkpt lat="42.40562" lon="2.49844">
        <ele>694.8</ele>
        <time>2022-05-21 19:11:37</time>
      </trkpt>
      <trkpt lat="42.40563" lon="2.49841">
        <ele>694.8</ele>
        <time>2022-05-21 19:11:38</time>
      </trkpt>
      <trkpt lat="42.40563" lon="2.49837">
        <ele>695</ele>
        <time>2022-05-21 19:11:39</time>
      </trkpt>
      <trkpt lat="42.40562" lon="2.49833">
        <ele>695</ele>
        <time>2022-05-21 19:11:40</time>
      </trkpt>
      <trkpt lat="42.40561" lon="2.4983">
        <ele>695.2</ele>
        <time>2022-05-21 19:11:41</time>
      </trkpt>
      <trkpt lat="42.40561" lon="2.49827">
        <ele>695.4</ele>
        <time>2022-05-21 19:11:42</time>
      </trkpt>
      <trkpt lat="42.4056" lon="2.49823">
        <ele>695.4</ele>
        <time>2022-05-21 19:11:43</time>
      </trkpt>
      <trkpt lat="42.4056" lon="2.4982">
        <ele>695.6</ele>
        <time>2022-05-21 19:11:44</time>
      </trkpt>
      <trkpt lat="42.40559" lon="2.49816">
        <ele>695.8</ele>
        <time>2022-05-21 19:11:45</time>
      </trkpt>
      <trkpt lat="42.40559" lon="2.49812">
        <ele>695.8</ele>
        <time>2022-05-21 19:11:46</time>
      </trkpt>
      <trkpt lat="42.40558" lon="2.49808">
        <ele>696</ele>
        <time>2022-05-21 19:11:47</time>
      </trkpt>
      <trkpt lat="42.40558" lon="2.49805">
        <ele>696</ele>
        <time>2022-05-21 19:11:48</time>
      </trkpt>
      <trkpt lat="42.40558" lon="2.49801">
        <ele>696.2</ele>
        <time>2022-05-21 19:11:49</time>
      </trkpt>
      <trkpt lat="42.40557" lon="2.49797">
        <ele>696.4</ele>
        <time>2022-05-21 19:11:50</time>
      </trkpt>
      <trkpt lat="42.40557" lon="2.49794">
        <ele>696.4</ele>
        <time>2022-05-21 19:11:51</time>
      </trkpt>
      <trkpt lat="42.40557" lon="2.4979">
        <ele>696.6</ele>
        <time>2022-05-21 19:11:52</time>
      </trkpt>
      <trkpt lat="42.40557" lon="2.49787">
        <ele>696.8</ele>
        <time>2022-05-21 19:11:53</time>
      </trkpt>
      <trkpt lat="42.40556" lon="2.49784">
        <ele>696.8</ele>
        <time>2022-05-21 19:11:54</time>
      </trkpt>
      <trkpt lat="42.40555" lon="2.49781">
        <ele>697</ele>
        <time>2022-05-21 19:11:55</time>
      </trkpt>
      <trkpt lat="42.40555" lon="2.49778">
        <ele>697</ele>
        <time>2022-05-21 19:11:56</time>
      </trkpt>
      <trkpt lat="42.40554" lon="2.49774">
        <ele>697.2</ele>
        <time>2022-05-21 19:11:57</time>
      </trkpt>
      <trkpt lat="42.40553" lon="2.49771">
        <ele>697.2</ele>
        <time>2022-05-21 19:11:58</time>
      </trkpt>
      <trkpt lat="42.40552" lon="2.49767">
        <ele>697.4</ele>
        <time>2022-05-21 19:11:59</time>
      </trkpt>
      <trkpt lat="42.40552" lon="2.49764">
        <ele>697.6</ele>
        <time>2022-05-21 19:12:00</time>
      </trkpt>
      <trkpt lat="42.40551" lon="2.49761">
        <ele>697.6</ele>
        <time>2022-05-21 19:12:01</time>
      </trkpt>
      <trkpt lat="42.40551" lon="2.49758">
        <ele>697.8</ele>
        <time>2022-05-21 19:12:02</time>
      </trkpt>
      <trkpt lat="42.4055" lon="2.49754">
        <ele>698</ele>
        <time>2022-05-21 19:12:03</time>
      </trkpt>
      <trkpt lat="42.40549" lon="2.49751">
        <ele>698</ele>
        <time>2022-05-21 19:12:04</time>
      </trkpt>
      <trkpt lat="42.40548" lon="2.49747">
        <ele>698.2</ele>
        <time>2022-05-21 19:12:05</time>
      </trkpt>
      <trkpt lat="42.40547" lon="2.49743">
        <ele>698.4</ele>
        <time>2022-05-21 19:12:06</time>
      </trkpt>
      <trkpt lat="42.40546" lon="2.4974">
        <ele>698.4</ele>
        <time>2022-05-21 19:12:07</time>
      </trkpt>
      <trkpt lat="42.40545" lon="2.49737">
        <ele>698.6</ele>
        <time>2022-05-21 19:12:08</time>
      </trkpt>
      <trkpt lat="42.40544" lon="2.49733">
        <ele>698.6</ele>
        <time>2022-05-21 19:12:09</time>
      </trkpt>
      <trkpt lat="42.40543" lon="2.49729">
        <ele>698.8</ele>
        <time>2022-05-21 19:12:10</time>
      </trkpt>
      <trkpt lat="42.40542" lon="2.49725">
        <ele>699</ele>
        <time>2022-05-21 19:12:11</time>
      </trkpt>
      <trkpt lat="42.4054" lon="2.49722">
        <ele>699</ele>
        <time>2022-05-21 19:12:12</time>
      </trkpt>
      <trkpt lat="42.40539" lon="2.49719">
        <ele>699.2</ele>
        <time>2022-05-21 19:12:13</time>
      </trkpt>
      <trkpt lat="42.40538" lon="2.49715">
        <ele>699.2</ele>
        <time>2022-05-21 19:12:14</time>
      </trkpt>
      <trkpt lat="42.40537" lon="2.49712">
        <ele>699.4</ele>
        <time>2022-05-21 19:12:15</time>
      </trkpt>
      <trkpt lat="42.40535" lon="2.49709">
        <ele>699.6</ele>
        <time>2022-05-21 19:12:16</time>
      </trkpt>
      <trkpt lat="42.40534" lon="2.49706">
        <ele>699.6</ele>
        <time>2022-05-21 19:12:17</time>
      </trkpt>
      <trkpt lat="42.40532" lon="2.49703">
        <ele>699.8</ele>
        <time>2022-05-21 19:12:18</time>
      </trkpt>
      <trkpt lat="42.40531" lon="2.49699">
        <ele>699.8</ele>
        <time>2022-05-21 19:12:19</time>
      </trkpt>
      <trkpt lat="42.40529" lon="2.49696">
        <ele>700</ele>
        <time>2022-05-21 19:12:20</time>
      </trkpt>
      <trkpt lat="42.40528" lon="2.49693">
        <ele>700</ele>
        <time>2022-05-21 19:12:21</time>
      </trkpt>
      <trkpt lat="42.40527" lon="2.49689">
        <ele>700.2</ele>
        <time>2022-05-21 19:12:22</time>
      </trkpt>
      <trkpt lat="42.40526" lon="2.49685">
        <ele>700.4</ele>
        <time>2022-05-21 19:12:23</time>
      </trkpt>
      <trkpt lat="42.40525" lon="2.49681">
        <ele>700.4</ele>
        <time>2022-05-21 19:12:24</time>
      </trkpt>
      <trkpt lat="42.40524" lon="2.49677">
        <ele>700.6</ele>
        <time>2022-05-21 19:12:25</time>
      </trkpt>
      <trkpt lat="42.40523" lon="2.49673">
        <ele>700.8</ele>
        <time>2022-05-21 19:12:26</time>
      </trkpt>
      <trkpt lat="42.40521" lon="2.49669">
        <ele>700.8</ele>
        <time>2022-05-21 19:12:27</time>
      </trkpt>
      <trkpt lat="42.4052" lon="2.49665">
        <ele>701</ele>
        <time>2022-05-21 19:12:28</time>
      </trkpt>
      <trkpt lat="42.40519" lon="2.49662">
        <ele>701.2</ele>
        <time>2022-05-21 19:12:29</time>
      </trkpt>
      <trkpt lat="42.40518" lon="2.49659">
        <ele>701.2</ele>
        <time>2022-05-21 19:12:30</time>
      </trkpt>
      <trkpt lat="42.40517" lon="2.49656">
        <ele>701.4</ele>
        <time>2022-05-21 19:12:31</time>
      </trkpt>
      <trkpt lat="42.40516" lon="2.49654">
        <ele>701.6</ele>
        <time>2022-05-21 19:12:32</time>
      </trkpt>
      <trkpt lat="42.40515" lon="2.49651">
        <ele>701.6</ele>
        <time>2022-05-21 19:12:33</time>
      </trkpt>
      <trkpt lat="42.40515" lon="2.49648">
        <ele>701.8</ele>
        <time>2022-05-21 19:12:34</time>
      </trkpt>
      <trkpt lat="42.40514" lon="2.49645">
        <ele>702</ele>
        <time>2022-05-21 19:12:35</time>
      </trkpt>
      <trkpt lat="42.40514" lon="2.49642">
        <ele>702</ele>
        <time>2022-05-21 19:12:36</time>
      </trkpt>
      <trkpt lat="42.40513" lon="2.49639">
        <ele>702.2</ele>
        <time>2022-05-21 19:12:37</time>
      </trkpt>
      <trkpt lat="42.40513" lon="2.49636">
        <ele>702.2</ele>
        <time>2022-05-21 19:12:38</time>
      </trkpt>
      <trkpt lat="42.40512" lon="2.49633">
        <ele>702.4</ele>
        <time>2022-05-21 19:12:39</time>
      </trkpt>
      <trkpt lat="42.40511" lon="2.4963">
        <ele>702.6</ele>
        <time>2022-05-21 19:12:40</time>
      </trkpt>
      <trkpt lat="42.4051" lon="2.49626">
        <ele>702.6</ele>
        <time>2022-05-21 19:12:41</time>
      </trkpt>
      <trkpt lat="42.40509" lon="2.49623">
        <ele>702.8</ele>
        <time>2022-05-21 19:12:42</time>
      </trkpt>
      <trkpt lat="42.40508" lon="2.4962">
        <ele>703</ele>
        <time>2022-05-21 19:12:43</time>
      </trkpt>
      <trkpt lat="42.40507" lon="2.49617">
        <ele>703</ele>
        <time>2022-05-21 19:12:44</time>
      </trkpt>
      <trkpt lat="42.40506" lon="2.49614">
        <ele>703.2</ele>
        <time>2022-05-21 19:12:45</time>
      </trkpt>
      <trkpt lat="42.40505" lon="2.4961">
        <ele>703.2</ele>
        <time>2022-05-21 19:12:46</time>
      </trkpt>
      <trkpt lat="42.40504" lon="2.49607">
        <ele>703.4</ele>
        <time>2022-05-21 19:12:47</time>
      </trkpt>
      <trkpt lat="42.40503" lon="2.49603">
        <ele>703.6</ele>
        <time>2022-05-21 19:12:48</time>
      </trkpt>
      <trkpt lat="42.40501" lon="2.49598">
        <ele>703.6</ele>
        <time>2022-05-21 19:12:49</time>
      </trkpt>
      <trkpt lat="42.405" lon="2.49594">
        <ele>703.6</ele>
        <time>2022-05-21 19:12:50</time>
      </trkpt>
      <trkpt lat="42.40498" lon="2.4959">
        <ele>703.8</ele>
        <time>2022-05-21 19:12:51</time>
      </trkpt>
      <trkpt lat="42.40496" lon="2.49587">
        <ele>703.8</ele>
        <time>2022-05-21 19:12:52</time>
      </trkpt>
      <trkpt lat="42.40494" lon="2.49583">
        <ele>704</ele>
        <time>2022-05-21 19:12:53</time>
      </trkpt>
      <trkpt lat="42.40492" lon="2.4958">
        <ele>704</ele>
        <time>2022-05-21 19:12:54</time>
      </trkpt>
      <trkpt lat="42.4049" lon="2.49577">
        <ele>704.2</ele>
        <time>2022-05-21 19:12:55</time>
      </trkpt>
      <trkpt lat="42.40488" lon="2.49574">
        <ele>704.4</ele>
        <time>2022-05-21 19:12:56</time>
      </trkpt>
      <trkpt lat="42.40486" lon="2.49572">
        <ele>704.4</ele>
        <time>2022-05-21 19:12:57</time>
      </trkpt>
      <trkpt lat="42.40484" lon="2.4957">
        <ele>704.6</ele>
        <time>2022-05-21 19:12:58</time>
      </trkpt>
      <trkpt lat="42.40481" lon="2.49567">
        <ele>704.6</ele>
        <time>2022-05-21 19:12:59</time>
      </trkpt>
      <trkpt lat="42.40479" lon="2.49564">
        <ele>704.8</ele>
        <time>2022-05-21 19:13:00</time>
      </trkpt>
      <trkpt lat="42.40477" lon="2.49561">
        <ele>704.8</ele>
        <time>2022-05-21 19:13:01</time>
      </trkpt>
      <trkpt lat="42.40475" lon="2.49559">
        <ele>705</ele>
        <time>2022-05-21 19:13:02</time>
      </trkpt>
      <trkpt lat="42.40473" lon="2.49556">
        <ele>705</ele>
        <time>2022-05-21 19:13:03</time>
      </trkpt>
      <trkpt lat="42.40471" lon="2.49553">
        <ele>705.2</ele>
        <time>2022-05-21 19:13:04</time>
      </trkpt>
      <trkpt lat="42.40469" lon="2.49549">
        <ele>705.4</ele>
        <time>2022-05-21 19:13:05</time>
      </trkpt>
      <trkpt lat="42.40467" lon="2.49545">
        <ele>705.4</ele>
        <time>2022-05-21 19:13:06</time>
      </trkpt>
      <trkpt lat="42.40465" lon="2.49541">
        <ele>705.6</ele>
        <time>2022-05-21 19:13:07</time>
      </trkpt>
      <trkpt lat="42.40463" lon="2.49538">
        <ele>705.8</ele>
        <time>2022-05-21 19:13:08</time>
      </trkpt>
      <trkpt lat="42.40461" lon="2.49534">
        <ele>705.8</ele>
        <time>2022-05-21 19:13:09</time>
      </trkpt>
      <trkpt lat="42.4046" lon="2.4953">
        <ele>706</ele>
        <time>2022-05-21 19:13:10</time>
      </trkpt>
      <trkpt lat="42.40458" lon="2.49526">
        <ele>706.2</ele>
        <time>2022-05-21 19:13:11</time>
      </trkpt>
      <trkpt lat="42.40457" lon="2.49522">
        <ele>706.4</ele>
        <time>2022-05-21 19:13:12</time>
      </trkpt>
      <trkpt lat="42.40456" lon="2.49519">
        <ele>706.6</ele>
        <time>2022-05-21 19:13:13</time>
      </trkpt>
      <trkpt lat="42.40455" lon="2.49515">
        <ele>706.6</ele>
        <time>2022-05-21 19:13:14</time>
      </trkpt>
      <trkpt lat="42.40454" lon="2.49511">
        <ele>706.8</ele>
        <time>2022-05-21 19:13:15</time>
      </trkpt>
      <trkpt lat="42.40452" lon="2.49507">
        <ele>707</ele>
        <time>2022-05-21 19:13:16</time>
      </trkpt>
      <trkpt lat="42.40451" lon="2.49503">
        <ele>707</ele>
        <time>2022-05-21 19:13:17</time>
      </trkpt>
      <trkpt lat="42.4045" lon="2.49499">
        <ele>707.2</ele>
        <time>2022-05-21 19:13:18</time>
      </trkpt>
      <trkpt lat="42.40449" lon="2.49496">
        <ele>707.2</ele>
        <time>2022-05-21 19:13:19</time>
      </trkpt>
      <trkpt lat="42.40448" lon="2.49492">
        <ele>707.4</ele>
        <time>2022-05-21 19:13:20</time>
      </trkpt>
      <trkpt lat="42.40447" lon="2.49489">
        <ele>707.6</ele>
        <time>2022-05-21 19:13:21</time>
      </trkpt>
      <trkpt lat="42.40446" lon="2.49485">
        <ele>707.8</ele>
        <time>2022-05-21 19:13:22</time>
      </trkpt>
      <trkpt lat="42.40445" lon="2.49482">
        <ele>707.8</ele>
        <time>2022-05-21 19:13:23</time>
      </trkpt>
      <trkpt lat="42.40444" lon="2.49479">
        <ele>708</ele>
        <time>2022-05-21 19:13:24</time>
      </trkpt>
      <trkpt lat="42.40443" lon="2.49476">
        <ele>708</ele>
        <time>2022-05-21 19:13:25</time>
      </trkpt>
      <trkpt lat="42.40442" lon="2.49472">
        <ele>708.2</ele>
        <time>2022-05-21 19:13:26</time>
      </trkpt>
      <trkpt lat="42.40441" lon="2.49469">
        <ele>708.4</ele>
        <time>2022-05-21 19:13:27</time>
      </trkpt>
      <trkpt lat="42.4044" lon="2.49466">
        <ele>708.4</ele>
        <time>2022-05-21 19:13:28</time>
      </trkpt>
      <trkpt lat="42.40439" lon="2.49462">
        <ele>708.6</ele>
        <time>2022-05-21 19:13:29</time>
      </trkpt>
      <trkpt lat="42.40438" lon="2.49459">
        <ele>708.6</ele>
        <time>2022-05-21 19:13:30</time>
      </trkpt>
      <trkpt lat="42.40437" lon="2.49456">
        <ele>708.8</ele>
        <time>2022-05-21 19:13:31</time>
      </trkpt>
      <trkpt lat="42.40436" lon="2.49453">
        <ele>708.8</ele>
        <time>2022-05-21 19:13:32</time>
      </trkpt>
      <trkpt lat="42.40435" lon="2.49449">
        <ele>709</ele>
        <time>2022-05-21 19:13:33</time>
      </trkpt>
      <trkpt lat="42.40434" lon="2.49446">
        <ele>709</ele>
        <time>2022-05-21 19:13:34</time>
      </trkpt>
      <trkpt lat="42.40433" lon="2.49443">
        <ele>709.2</ele>
        <time>2022-05-21 19:13:35</time>
      </trkpt>
      <trkpt lat="42.40432" lon="2.4944">
        <ele>709.4</ele>
        <time>2022-05-21 19:13:36</time>
      </trkpt>
      <trkpt lat="42.40431" lon="2.49437">
        <ele>709.4</ele>
        <time>2022-05-21 19:13:37</time>
      </trkpt>
      <trkpt lat="42.4043" lon="2.49434">
        <ele>709.6</ele>
        <time>2022-05-21 19:13:38</time>
      </trkpt>
      <trkpt lat="42.40429" lon="2.49431">
        <ele>709.6</ele>
        <time>2022-05-21 19:13:39</time>
      </trkpt>
      <trkpt lat="42.40428" lon="2.49428">
        <ele>709.8</ele>
        <time>2022-05-21 19:13:40</time>
      </trkpt>
      <trkpt lat="42.40427" lon="2.49425">
        <ele>710</ele>
        <time>2022-05-21 19:13:41</time>
      </trkpt>
      <trkpt lat="42.40427" lon="2.49422">
        <ele>710</ele>
        <time>2022-05-21 19:13:42</time>
      </trkpt>
      <trkpt lat="42.40427" lon="2.49419">
        <ele>710.2</ele>
        <time>2022-05-21 19:13:43</time>
      </trkpt>
      <trkpt lat="42.40426" lon="2.49415">
        <ele>710.4</ele>
        <time>2022-05-21 19:13:44</time>
      </trkpt>
      <trkpt lat="42.40426" lon="2.49412">
        <ele>710.6</ele>
        <time>2022-05-21 19:13:45</time>
      </trkpt>
      <trkpt lat="42.40425" lon="2.49408">
        <ele>710.6</ele>
        <time>2022-05-21 19:13:46</time>
      </trkpt>
      <trkpt lat="42.40425" lon="2.49404">
        <ele>710.8</ele>
        <time>2022-05-21 19:13:47</time>
      </trkpt>
      <trkpt lat="42.40425" lon="2.494">
        <ele>711</ele>
        <time>2022-05-21 19:13:48</time>
      </trkpt>
      <trkpt lat="42.40425" lon="2.49397">
        <ele>711</ele>
        <time>2022-05-21 19:13:49</time>
      </trkpt>
      <trkpt lat="42.40425" lon="2.49393">
        <ele>711.2</ele>
        <time>2022-05-21 19:13:50</time>
      </trkpt>
      <trkpt lat="42.40425" lon="2.4939">
        <ele>711.4</ele>
        <time>2022-05-21 19:13:51</time>
      </trkpt>
      <trkpt lat="42.40425" lon="2.49386">
        <ele>711.4</ele>
        <time>2022-05-21 19:13:52</time>
      </trkpt>
      <trkpt lat="42.40424" lon="2.49382">
        <ele>711.6</ele>
        <time>2022-05-21 19:13:53</time>
      </trkpt>
      <trkpt lat="42.40424" lon="2.49378">
        <ele>711.6</ele>
        <time>2022-05-21 19:13:54</time>
      </trkpt>
      <trkpt lat="42.40424" lon="2.49375">
        <ele>711.8</ele>
        <time>2022-05-21 19:13:55</time>
      </trkpt>
      <trkpt lat="42.40424" lon="2.49371">
        <ele>712</ele>
        <time>2022-05-21 19:13:56</time>
      </trkpt>
      <trkpt lat="42.40424" lon="2.49368">
        <ele>712</ele>
        <time>2022-05-21 19:13:57</time>
      </trkpt>
      <trkpt lat="42.40424" lon="2.49364">
        <ele>712.2</ele>
        <time>2022-05-21 19:13:58</time>
      </trkpt>
      <trkpt lat="42.40424" lon="2.4936">
        <ele>712.4</ele>
        <time>2022-05-21 19:13:59</time>
      </trkpt>
      <trkpt lat="42.40424" lon="2.49356">
        <ele>712.6</ele>
        <time>2022-05-21 19:14:00</time>
      </trkpt>
      <trkpt lat="42.40424" lon="2.49352">
        <ele>712.6</ele>
        <time>2022-05-21 19:14:01</time>
      </trkpt>
      <trkpt lat="42.40424" lon="2.49348">
        <ele>712.8</ele>
        <time>2022-05-21 19:14:02</time>
      </trkpt>
      <trkpt lat="42.40423" lon="2.49344">
        <ele>713</ele>
        <time>2022-05-21 19:14:03</time>
      </trkpt>
      <trkpt lat="42.40423" lon="2.4934">
        <ele>713</ele>
        <time>2022-05-21 19:14:04</time>
      </trkpt>
      <trkpt lat="42.40423" lon="2.49336">
        <ele>713.2</ele>
        <time>2022-05-21 19:14:05</time>
      </trkpt>
      <trkpt lat="42.40423" lon="2.49333">
        <ele>713.2</ele>
        <time>2022-05-21 19:14:06</time>
      </trkpt>
      <trkpt lat="42.40423" lon="2.49329">
        <ele>713.4</ele>
        <time>2022-05-21 19:14:07</time>
      </trkpt>
      <trkpt lat="42.40423" lon="2.49326">
        <ele>713.4</ele>
        <time>2022-05-21 19:14:08</time>
      </trkpt>
      <trkpt lat="42.40423" lon="2.49322">
        <ele>713.6</ele>
        <time>2022-05-21 19:14:09</time>
      </trkpt>
      <trkpt lat="42.40423" lon="2.49318">
        <ele>713.8</ele>
        <time>2022-05-21 19:14:10</time>
      </trkpt>
      <trkpt lat="42.40423" lon="2.49314">
        <ele>713.8</ele>
        <time>2022-05-21 19:14:11</time>
      </trkpt>
      <trkpt lat="42.40423" lon="2.49311">
        <ele>713.8</ele>
        <time>2022-05-21 19:14:12</time>
      </trkpt>
      <trkpt lat="42.40423" lon="2.49307">
        <ele>714</ele>
        <time>2022-05-21 19:14:13</time>
      </trkpt>
      <trkpt lat="42.40423" lon="2.49303">
        <ele>714.2</ele>
        <time>2022-05-21 19:14:14</time>
      </trkpt>
      <trkpt lat="42.40423" lon="2.49299">
        <ele>714.2</ele>
        <time>2022-05-21 19:14:15</time>
      </trkpt>
      <trkpt lat="42.40423" lon="2.49296">
        <ele>714.4</ele>
        <time>2022-05-21 19:14:16</time>
      </trkpt>
      <trkpt lat="42.40423" lon="2.49292">
        <ele>714.4</ele>
        <time>2022-05-21 19:14:17</time>
      </trkpt>
      <trkpt lat="42.40423" lon="2.49289">
        <ele>714.4</ele>
        <time>2022-05-21 19:14:18</time>
      </trkpt>
      <trkpt lat="42.40423" lon="2.49285">
        <ele>714.6</ele>
        <time>2022-05-21 19:14:19</time>
      </trkpt>
      <trkpt lat="42.40423" lon="2.49281">
        <ele>714.6</ele>
        <time>2022-05-21 19:14:20</time>
      </trkpt>
      <trkpt lat="42.40422" lon="2.49277">
        <ele>714.8</ele>
        <time>2022-05-21 19:14:21</time>
      </trkpt>
      <trkpt lat="42.40422" lon="2.49274">
        <ele>714.8</ele>
        <time>2022-05-21 19:14:22</time>
      </trkpt>
      <trkpt lat="42.40422" lon="2.49271">
        <ele>714.8</ele>
        <time>2022-05-21 19:14:23</time>
      </trkpt>
      <trkpt lat="42.40422" lon="2.49267">
        <ele>715</ele>
        <time>2022-05-21 19:14:24</time>
      </trkpt>
      <trkpt lat="42.40422" lon="2.49264">
        <ele>715</ele>
        <time>2022-05-21 19:14:25</time>
      </trkpt>
      <trkpt lat="42.40422" lon="2.4926">
        <ele>715.2</ele>
        <time>2022-05-21 19:14:26</time>
      </trkpt>
      <trkpt lat="42.40422" lon="2.49257">
        <ele>715.4</ele>
        <time>2022-05-21 19:14:27</time>
      </trkpt>
      <trkpt lat="42.40422" lon="2.49253">
        <ele>715.4</ele>
        <time>2022-05-21 19:14:28</time>
      </trkpt>
      <trkpt lat="42.40422" lon="2.4925">
        <ele>715.6</ele>
        <time>2022-05-21 19:14:29</time>
      </trkpt>
      <trkpt lat="42.40422" lon="2.49247">
        <ele>715.6</ele>
        <time>2022-05-21 19:14:30</time>
      </trkpt>
      <trkpt lat="42.40422" lon="2.49244">
        <ele>715.8</ele>
        <time>2022-05-21 19:14:31</time>
      </trkpt>
      <trkpt lat="42.40422" lon="2.49242">
        <ele>715.8</ele>
        <time>2022-05-21 19:14:32</time>
      </trkpt>
      <trkpt lat="42.40422" lon="2.49239">
        <ele>716</ele>
        <time>2022-05-21 19:14:33</time>
      </trkpt>
      <trkpt lat="42.40422" lon="2.49236">
        <ele>716</ele>
        <time>2022-05-21 19:14:34</time>
      </trkpt>
      <trkpt lat="42.40422" lon="2.49233">
        <ele>716.2</ele>
        <time>2022-05-21 19:14:35</time>
      </trkpt>
      <trkpt lat="42.40422" lon="2.4923">
        <ele>716.4</ele>
        <time>2022-05-21 19:14:36</time>
      </trkpt>
      <trkpt lat="42.40422" lon="2.49227">
        <ele>716.4</ele>
        <time>2022-05-21 19:14:37</time>
      </trkpt>
      <trkpt lat="42.40422" lon="2.49224">
        <ele>716.6</ele>
        <time>2022-05-21 19:14:38</time>
      </trkpt>
      <trkpt lat="42.40422" lon="2.4922">
        <ele>716.6</ele>
        <time>2022-05-21 19:14:39</time>
      </trkpt>
      <trkpt lat="42.40422" lon="2.49217">
        <ele>716.8</ele>
        <time>2022-05-21 19:14:40</time>
      </trkpt>
      <trkpt lat="42.40422" lon="2.49213">
        <ele>716.8</ele>
        <time>2022-05-21 19:14:41</time>
      </trkpt>
      <trkpt lat="42.40422" lon="2.4921">
        <ele>717</ele>
        <time>2022-05-21 19:14:42</time>
      </trkpt>
      <trkpt lat="42.40421" lon="2.49207">
        <ele>717</ele>
        <time>2022-05-21 19:14:43</time>
      </trkpt>
      <trkpt lat="42.4042" lon="2.49204">
        <ele>717.2</ele>
        <time>2022-05-21 19:14:44</time>
      </trkpt>
      <trkpt lat="42.4042" lon="2.49201">
        <ele>717.2</ele>
        <time>2022-05-21 19:14:45</time>
      </trkpt>
      <trkpt lat="42.4042" lon="2.49198">
        <ele>717.4</ele>
        <time>2022-05-21 19:14:46</time>
      </trkpt>
      <trkpt lat="42.40419" lon="2.49195">
        <ele>717.4</ele>
        <time>2022-05-21 19:14:47</time>
      </trkpt>
      <trkpt lat="42.40419" lon="2.49191">
        <ele>717.4</ele>
        <time>2022-05-21 19:14:48</time>
      </trkpt>
      <trkpt lat="42.40418" lon="2.49189">
        <ele>717.6</ele>
        <time>2022-05-21 19:14:49</time>
      </trkpt>
      <trkpt lat="42.40417" lon="2.49184">
        <ele>717.6</ele>
        <time>2022-05-21 19:14:50</time>
      </trkpt>
      <trkpt lat="42.40416" lon="2.4918">
        <ele>717.6</ele>
        <time>2022-05-21 19:14:51</time>
      </trkpt>
      <trkpt lat="42.40415" lon="2.49176">
        <ele>717.6</ele>
        <time>2022-05-21 19:14:52</time>
      </trkpt>
      <trkpt lat="42.40414" lon="2.49173">
        <ele>717.8</ele>
        <time>2022-05-21 19:14:53</time>
      </trkpt>
      <trkpt lat="42.40412" lon="2.49169">
        <ele>717.8</ele>
        <time>2022-05-21 19:14:54</time>
      </trkpt>
      <trkpt lat="42.40411" lon="2.49166">
        <ele>717.8</ele>
        <time>2022-05-21 19:14:55</time>
      </trkpt>
      <trkpt lat="42.4041" lon="2.49164">
        <ele>718</ele>
        <time>2022-05-21 19:14:56</time>
      </trkpt>
      <trkpt lat="42.40409" lon="2.49161">
        <ele>718</ele>
        <time>2022-05-21 19:14:57</time>
      </trkpt>
      <trkpt lat="42.40407" lon="2.49158">
        <ele>718</ele>
        <time>2022-05-21 19:14:58</time>
      </trkpt>
      <trkpt lat="42.40405" lon="2.49154">
        <ele>718.2</ele>
        <time>2022-05-21 19:14:59</time>
      </trkpt>
      <trkpt lat="42.40404" lon="2.49151">
        <ele>718.2</ele>
        <time>2022-05-21 19:15:00</time>
      </trkpt>
      <trkpt lat="42.40402" lon="2.49148">
        <ele>718.4</ele>
        <time>2022-05-21 19:15:01</time>
      </trkpt>
      <trkpt lat="42.40401" lon="2.49146">
        <ele>718.4</ele>
        <time>2022-05-21 19:15:02</time>
      </trkpt>
      <trkpt lat="42.404" lon="2.49143">
        <ele>718.4</ele>
        <time>2022-05-21 19:15:03</time>
      </trkpt>
      <trkpt lat="42.40399" lon="2.4914">
        <ele>718.6</ele>
        <time>2022-05-21 19:15:04</time>
      </trkpt>
      <trkpt lat="42.40397" lon="2.49135">
        <ele>718.6</ele>
        <time>2022-05-21 19:15:05</time>
      </trkpt>
      <trkpt lat="42.40396" lon="2.49131">
        <ele>718.6</ele>
        <time>2022-05-21 19:15:06</time>
      </trkpt>
      <trkpt lat="42.40395" lon="2.49127">
        <ele>718.8</ele>
        <time>2022-05-21 19:15:07</time>
      </trkpt>
      <trkpt lat="42.40394" lon="2.49123">
        <ele>718.8</ele>
        <time>2022-05-21 19:15:08</time>
      </trkpt>
      <trkpt lat="42.40392" lon="2.49119">
        <ele>718.8</ele>
        <time>2022-05-21 19:15:09</time>
      </trkpt>
      <trkpt lat="42.40391" lon="2.49114">
        <ele>718.8</ele>
        <time>2022-05-21 19:15:10</time>
      </trkpt>
      <trkpt lat="42.4039" lon="2.49111">
        <ele>719</ele>
        <time>2022-05-21 19:15:11</time>
      </trkpt>
      <trkpt lat="42.40389" lon="2.49107">
        <ele>719</ele>
        <time>2022-05-21 19:15:12</time>
      </trkpt>
      <trkpt lat="42.40388" lon="2.49103">
        <ele>719</ele>
        <time>2022-05-21 19:15:13</time>
      </trkpt>
      <trkpt lat="42.40388" lon="2.49099">
        <ele>719.2</ele>
        <time>2022-05-21 19:15:14</time>
      </trkpt>
      <trkpt lat="42.40387" lon="2.49095">
        <ele>719.2</ele>
        <time>2022-05-21 19:15:15</time>
      </trkpt>
      <trkpt lat="42.40387" lon="2.49091">
        <ele>719.4</ele>
        <time>2022-05-21 19:15:16</time>
      </trkpt>
      <trkpt lat="42.40387" lon="2.49088">
        <ele>719.4</ele>
        <time>2022-05-21 19:15:17</time>
      </trkpt>
      <trkpt lat="42.40387" lon="2.49084">
        <ele>719.6</ele>
        <time>2022-05-21 19:15:18</time>
      </trkpt>
      <trkpt lat="42.40386" lon="2.4908">
        <ele>719.6</ele>
        <time>2022-05-21 19:15:19</time>
      </trkpt>
      <trkpt lat="42.40386" lon="2.49076">
        <ele>719.8</ele>
        <time>2022-05-21 19:15:20</time>
      </trkpt>
      <trkpt lat="42.40386" lon="2.49072">
        <ele>719.8</ele>
        <time>2022-05-21 19:15:21</time>
      </trkpt>
      <trkpt lat="42.40386" lon="2.49068">
        <ele>719.8</ele>
        <time>2022-05-21 19:15:22</time>
      </trkpt>
      <trkpt lat="42.40386" lon="2.49064">
        <ele>719.8</ele>
        <time>2022-05-21 19:15:23</time>
      </trkpt>
      <trkpt lat="42.40385" lon="2.4906">
        <ele>720</ele>
        <time>2022-05-21 19:15:24</time>
      </trkpt>
      <trkpt lat="42.40385" lon="2.49056">
        <ele>720</ele>
        <time>2022-05-21 19:15:25</time>
      </trkpt>
      <trkpt lat="42.40384" lon="2.49052">
        <ele>720</ele>
        <time>2022-05-21 19:15:26</time>
      </trkpt>
      <trkpt lat="42.40384" lon="2.49049">
        <ele>720</ele>
        <time>2022-05-21 19:15:27</time>
      </trkpt>
      <trkpt lat="42.40383" lon="2.49045">
        <ele>720.2</ele>
        <time>2022-05-21 19:15:28</time>
      </trkpt>
      <trkpt lat="42.40383" lon="2.49041">
        <ele>720.2</ele>
        <time>2022-05-21 19:15:29</time>
      </trkpt>
      <trkpt lat="42.40383" lon="2.49037">
        <ele>720.2</ele>
        <time>2022-05-21 19:15:30</time>
      </trkpt>
      <trkpt lat="42.40383" lon="2.49033">
        <ele>720.4</ele>
        <time>2022-05-21 19:15:31</time>
      </trkpt>
      <trkpt lat="42.40383" lon="2.49029">
        <ele>720.4</ele>
        <time>2022-05-21 19:15:32</time>
      </trkpt>
      <trkpt lat="42.40383" lon="2.49026">
        <ele>720.4</ele>
        <time>2022-05-21 19:15:33</time>
      </trkpt>
      <trkpt lat="42.40384" lon="2.49023">
        <ele>720.6</ele>
        <time>2022-05-21 19:15:34</time>
      </trkpt>
      <trkpt lat="42.40384" lon="2.49019">
        <ele>720.6</ele>
        <time>2022-05-21 19:15:35</time>
      </trkpt>
      <trkpt lat="42.40384" lon="2.49015">
        <ele>720.6</ele>
        <time>2022-05-21 19:15:36</time>
      </trkpt>
      <trkpt lat="42.40384" lon="2.49011">
        <ele>720.8</ele>
        <time>2022-05-21 19:15:37</time>
      </trkpt>
      <trkpt lat="42.40383" lon="2.49006">
        <ele>720.8</ele>
        <time>2022-05-21 19:15:38</time>
      </trkpt>
      <trkpt lat="42.40383" lon="2.49002">
        <ele>720.8</ele>
        <time>2022-05-21 19:15:39</time>
      </trkpt>
      <trkpt lat="42.40383" lon="2.48998">
        <ele>720.8</ele>
        <time>2022-05-21 19:15:40</time>
      </trkpt>
      <trkpt lat="42.40383" lon="2.48993">
        <ele>721</ele>
        <time>2022-05-21 19:15:41</time>
      </trkpt>
      <trkpt lat="42.40383" lon="2.48989">
        <ele>721</ele>
        <time>2022-05-21 19:15:42</time>
      </trkpt>
      <trkpt lat="42.40382" lon="2.48986">
        <ele>721</ele>
        <time>2022-05-21 19:15:43</time>
      </trkpt>
      <trkpt lat="42.40382" lon="2.48982">
        <ele>721</ele>
        <time>2022-05-21 19:15:44</time>
      </trkpt>
      <trkpt lat="42.40382" lon="2.48977">
        <ele>721</ele>
        <time>2022-05-21 19:15:45</time>
      </trkpt>
      <trkpt lat="42.40381" lon="2.48974">
        <ele>721.2</ele>
        <time>2022-05-21 19:15:46</time>
      </trkpt>
      <trkpt lat="42.40381" lon="2.4897">
        <ele>721.2</ele>
        <time>2022-05-21 19:15:47</time>
      </trkpt>
      <trkpt lat="42.40381" lon="2.48967">
        <ele>721.2</ele>
        <time>2022-05-21 19:15:48</time>
      </trkpt>
      <trkpt lat="42.40381" lon="2.48963">
        <ele>721.4</ele>
        <time>2022-05-21 19:15:49</time>
      </trkpt>
      <trkpt lat="42.4038" lon="2.4896">
        <ele>721.4</ele>
        <time>2022-05-21 19:15:50</time>
      </trkpt>
      <trkpt lat="42.4038" lon="2.48956">
        <ele>721.4</ele>
        <time>2022-05-21 19:15:51</time>
      </trkpt>
      <trkpt lat="42.4038" lon="2.48953">
        <ele>721.6</ele>
        <time>2022-05-21 19:15:52</time>
      </trkpt>
      <trkpt lat="42.40379" lon="2.48949">
        <ele>721.6</ele>
        <time>2022-05-21 19:15:53</time>
      </trkpt>
      <trkpt lat="42.40378" lon="2.48946">
        <ele>721.6</ele>
        <time>2022-05-21 19:15:54</time>
      </trkpt>
      <trkpt lat="42.40378" lon="2.48942">
        <ele>721.8</ele>
        <time>2022-05-21 19:15:55</time>
      </trkpt>
      <trkpt lat="42.40378" lon="2.48938">
        <ele>721.8</ele>
        <time>2022-05-21 19:15:56</time>
      </trkpt>
      <trkpt lat="42.40377" lon="2.48935">
        <ele>721.8</ele>
        <time>2022-05-21 19:15:57</time>
      </trkpt>
      <trkpt lat="42.40377" lon="2.48931">
        <ele>722</ele>
        <time>2022-05-21 19:15:58</time>
      </trkpt>
      <trkpt lat="42.40376" lon="2.48927">
        <ele>722</ele>
        <time>2022-05-21 19:15:59</time>
      </trkpt>
      <trkpt lat="42.40375" lon="2.48924">
        <ele>722</ele>
        <time>2022-05-21 19:16:00</time>
      </trkpt>
      <trkpt lat="42.40374" lon="2.4892">
        <ele>722.2</ele>
        <time>2022-05-21 19:16:01</time>
      </trkpt>
      <trkpt lat="42.40374" lon="2.48917">
        <ele>722.2</ele>
        <time>2022-05-21 19:16:02</time>
      </trkpt>
      <trkpt lat="42.40373" lon="2.48913">
        <ele>722.2</ele>
        <time>2022-05-21 19:16:03</time>
      </trkpt>
      <trkpt lat="42.40372" lon="2.4891">
        <ele>722.4</ele>
        <time>2022-05-21 19:16:04</time>
      </trkpt>
      <trkpt lat="42.40371" lon="2.48906">
        <ele>722.4</ele>
        <time>2022-05-21 19:16:05</time>
      </trkpt>
      <trkpt lat="42.40371" lon="2.48902">
        <ele>722.6</ele>
        <time>2022-05-21 19:16:06</time>
      </trkpt>
      <trkpt lat="42.4037" lon="2.48899">
        <ele>722.8</ele>
        <time>2022-05-21 19:16:07</time>
      </trkpt>
      <trkpt lat="42.4037" lon="2.48895">
        <ele>722.8</ele>
        <time>2022-05-21 19:16:08</time>
      </trkpt>
      <trkpt lat="42.40369" lon="2.48891">
        <ele>723</ele>
        <time>2022-05-21 19:16:09</time>
      </trkpt>
      <trkpt lat="42.40369" lon="2.48888">
        <ele>723</ele>
        <time>2022-05-21 19:16:10</time>
      </trkpt>
      <trkpt lat="42.40369" lon="2.48884">
        <ele>723</ele>
        <time>2022-05-21 19:16:11</time>
      </trkpt>
      <trkpt lat="42.40368" lon="2.48881">
        <ele>723.2</ele>
        <time>2022-05-21 19:16:12</time>
      </trkpt>
      <trkpt lat="42.40368" lon="2.48877">
        <ele>723.2</ele>
        <time>2022-05-21 19:16:13</time>
      </trkpt>
      <trkpt lat="42.40367" lon="2.48873">
        <ele>723.2</ele>
        <time>2022-05-21 19:16:14</time>
      </trkpt>
      <trkpt lat="42.40366" lon="2.48869">
        <ele>723.2</ele>
        <time>2022-05-21 19:16:15</time>
      </trkpt>
      <trkpt lat="42.40365" lon="2.48865">
        <ele>723.4</ele>
        <time>2022-05-21 19:16:16</time>
      </trkpt>
      <trkpt lat="42.40364" lon="2.48861">
        <ele>723.4</ele>
        <time>2022-05-21 19:16:17</time>
      </trkpt>
      <trkpt lat="42.40364" lon="2.48857">
        <ele>723.4</ele>
        <time>2022-05-21 19:16:18</time>
      </trkpt>
      <trkpt lat="42.40363" lon="2.48853">
        <ele>723.4</ele>
        <time>2022-05-21 19:16:19</time>
      </trkpt>
      <trkpt lat="42.40362" lon="2.4885">
        <ele>723.6</ele>
        <time>2022-05-21 19:16:20</time>
      </trkpt>
      <trkpt lat="42.40362" lon="2.48846">
        <ele>723.6</ele>
        <time>2022-05-21 19:16:21</time>
      </trkpt>
      <trkpt lat="42.40361" lon="2.48843">
        <ele>723.6</ele>
        <time>2022-05-21 19:16:22</time>
      </trkpt>
      <trkpt lat="42.40361" lon="2.48839">
        <ele>723.8</ele>
        <time>2022-05-21 19:16:23</time>
      </trkpt>
      <trkpt lat="42.4036" lon="2.48836">
        <ele>723.8</ele>
        <time>2022-05-21 19:16:24</time>
      </trkpt>
      <trkpt lat="42.4036" lon="2.48833">
        <ele>724</ele>
        <time>2022-05-21 19:16:25</time>
      </trkpt>
      <trkpt lat="42.4036" lon="2.4883">
        <ele>724</ele>
        <time>2022-05-21 19:16:26</time>
      </trkpt>
      <trkpt lat="42.40359" lon="2.48826">
        <ele>724.2</ele>
        <time>2022-05-21 19:16:27</time>
      </trkpt>
      <trkpt lat="42.40358" lon="2.48823">
        <ele>724.2</ele>
        <time>2022-05-21 19:16:28</time>
      </trkpt>
      <trkpt lat="42.40358" lon="2.48819">
        <ele>724.2</ele>
        <time>2022-05-21 19:16:29</time>
      </trkpt>
      <trkpt lat="42.40357" lon="2.48816">
        <ele>724.4</ele>
        <time>2022-05-21 19:16:30</time>
      </trkpt>
      <trkpt lat="42.40357" lon="2.48812">
        <ele>724.4</ele>
        <time>2022-05-21 19:16:31</time>
      </trkpt>
      <trkpt lat="42.40357" lon="2.48809">
        <ele>724.4</ele>
        <time>2022-05-21 19:16:32</time>
      </trkpt>
      <trkpt lat="42.40357" lon="2.48805">
        <ele>724.6</ele>
        <time>2022-05-21 19:16:33</time>
      </trkpt>
      <trkpt lat="42.40357" lon="2.48802">
        <ele>724.6</ele>
        <time>2022-05-21 19:16:34</time>
      </trkpt>
      <trkpt lat="42.40356" lon="2.48798">
        <ele>724.6</ele>
        <time>2022-05-21 19:16:35</time>
      </trkpt>
      <trkpt lat="42.40356" lon="2.48794">
        <ele>724.6</ele>
        <time>2022-05-21 19:16:36</time>
      </trkpt>
      <trkpt lat="42.40356" lon="2.48791">
        <ele>724.6</ele>
        <time>2022-05-21 19:16:37</time>
      </trkpt>
      <trkpt lat="42.40355" lon="2.48788">
        <ele>724.8</ele>
        <time>2022-05-21 19:16:38</time>
      </trkpt>
      <trkpt lat="42.40355" lon="2.48784">
        <ele>724.8</ele>
        <time>2022-05-21 19:16:39</time>
      </trkpt>
      <trkpt lat="42.40356" lon="2.48781">
        <ele>725</ele>
        <time>2022-05-21 19:16:40</time>
      </trkpt>
      <trkpt lat="42.40357" lon="2.48777">
        <ele>725.2</ele>
        <time>2022-05-21 19:16:41</time>
      </trkpt>
      <trkpt lat="42.40357" lon="2.48774">
        <ele>725.2</ele>
        <time>2022-05-21 19:16:42</time>
      </trkpt>
      <trkpt lat="42.40358" lon="2.4877">
        <ele>725.4</ele>
        <time>2022-05-21 19:16:43</time>
      </trkpt>
      <trkpt lat="42.40359" lon="2.48767">
        <ele>725.4</ele>
        <time>2022-05-21 19:16:44</time>
      </trkpt>
      <trkpt lat="42.4036" lon="2.48763">
        <ele>725.6</ele>
        <time>2022-05-21 19:16:45</time>
      </trkpt>
      <trkpt lat="42.40361" lon="2.4876">
        <ele>725.6</ele>
        <time>2022-05-21 19:16:46</time>
      </trkpt>
      <trkpt lat="42.40362" lon="2.48757">
        <ele>725.8</ele>
        <time>2022-05-21 19:16:47</time>
      </trkpt>
      <trkpt lat="42.40363" lon="2.48753">
        <ele>725.8</ele>
        <time>2022-05-21 19:16:48</time>
      </trkpt>
      <trkpt lat="42.40364" lon="2.4875">
        <ele>726</ele>
        <time>2022-05-21 19:16:49</time>
      </trkpt>
      <trkpt lat="42.40364" lon="2.48747">
        <ele>726</ele>
        <time>2022-05-21 19:16:50</time>
      </trkpt>
      <trkpt lat="42.40365" lon="2.48743">
        <ele>726</ele>
        <time>2022-05-21 19:16:51</time>
      </trkpt>
      <trkpt lat="42.40365" lon="2.4874">
        <ele>726.2</ele>
        <time>2022-05-21 19:16:52</time>
      </trkpt>
      <trkpt lat="42.40365" lon="2.48737">
        <ele>726.2</ele>
        <time>2022-05-21 19:16:53</time>
      </trkpt>
      <trkpt lat="42.40366" lon="2.48734">
        <ele>726.2</ele>
        <time>2022-05-21 19:16:54</time>
      </trkpt>
      <trkpt lat="42.40366" lon="2.4873">
        <ele>726.4</ele>
        <time>2022-05-21 19:16:55</time>
      </trkpt>
      <trkpt lat="42.40366" lon="2.48727">
        <ele>726.4</ele>
        <time>2022-05-21 19:16:56</time>
      </trkpt>
      <trkpt lat="42.40366" lon="2.48723">
        <ele>726.4</ele>
        <time>2022-05-21 19:16:57</time>
      </trkpt>
      <trkpt lat="42.40367" lon="2.4872">
        <ele>726.6</ele>
        <time>2022-05-21 19:16:58</time>
      </trkpt>
      <trkpt lat="42.40367" lon="2.48716">
        <ele>726.6</ele>
        <time>2022-05-21 19:16:59</time>
      </trkpt>
      <trkpt lat="42.40366" lon="2.48712">
        <ele>726.6</ele>
        <time>2022-05-21 19:17:00</time>
      </trkpt>
      <trkpt lat="42.40366" lon="2.48709">
        <ele>726.6</ele>
        <time>2022-05-21 19:17:01</time>
      </trkpt>
      <trkpt lat="42.40366" lon="2.48705">
        <ele>726.8</ele>
        <time>2022-05-21 19:17:02</time>
      </trkpt>
      <trkpt lat="42.40366" lon="2.48702">
        <ele>726.8</ele>
        <time>2022-05-21 19:17:03</time>
      </trkpt>
      <trkpt lat="42.40365" lon="2.48698">
        <ele>726.8</ele>
        <time>2022-05-21 19:17:04</time>
      </trkpt>
      <trkpt lat="42.40365" lon="2.48694">
        <ele>727</ele>
        <time>2022-05-21 19:17:05</time>
      </trkpt>
      <trkpt lat="42.40364" lon="2.4869">
        <ele>727</ele>
        <time>2022-05-21 19:17:06</time>
      </trkpt>
      <trkpt lat="42.40363" lon="2.48686">
        <ele>727</ele>
        <time>2022-05-21 19:17:07</time>
      </trkpt>
      <trkpt lat="42.40363" lon="2.48683">
        <ele>727.2</ele>
        <time>2022-05-21 19:17:08</time>
      </trkpt>
      <trkpt lat="42.40362" lon="2.48679">
        <ele>727.2</ele>
        <time>2022-05-21 19:17:09</time>
      </trkpt>
      <trkpt lat="42.40361" lon="2.48675">
        <ele>727.2</ele>
        <time>2022-05-21 19:17:10</time>
      </trkpt>
      <trkpt lat="42.4036" lon="2.48671">
        <ele>727.4</ele>
        <time>2022-05-21 19:17:11</time>
      </trkpt>
      <trkpt lat="42.40359" lon="2.48668">
        <ele>727.4</ele>
        <time>2022-05-21 19:17:12</time>
      </trkpt>
      <trkpt lat="42.40358" lon="2.48664">
        <ele>727.4</ele>
        <time>2022-05-21 19:17:13</time>
      </trkpt>
      <trkpt lat="42.40357" lon="2.4866">
        <ele>727.6</ele>
        <time>2022-05-21 19:17:14</time>
      </trkpt>
      <trkpt lat="42.40356" lon="2.48656">
        <ele>727.6</ele>
        <time>2022-05-21 19:17:15</time>
      </trkpt>
      <trkpt lat="42.40356" lon="2.48652">
        <ele>727.6</ele>
        <time>2022-05-21 19:17:16</time>
      </trkpt>
      <trkpt lat="42.40355" lon="2.48649">
        <ele>727.8</ele>
        <time>2022-05-21 19:17:17</time>
      </trkpt>
      <trkpt lat="42.40354" lon="2.48645">
        <ele>727.8</ele>
        <time>2022-05-21 19:17:18</time>
      </trkpt>
      <trkpt lat="42.40354" lon="2.48641">
        <ele>728</ele>
        <time>2022-05-21 19:17:19</time>
      </trkpt>
      <trkpt lat="42.40353" lon="2.48637">
        <ele>728</ele>
        <time>2022-05-21 19:17:20</time>
      </trkpt>
      <trkpt lat="42.40353" lon="2.48633">
        <ele>728</ele>
        <time>2022-05-21 19:17:21</time>
      </trkpt>
      <trkpt lat="42.40352" lon="2.4863">
        <ele>728</ele>
        <time>2022-05-21 19:17:22</time>
      </trkpt>
      <trkpt lat="42.40351" lon="2.48626">
        <ele>728.2</ele>
        <time>2022-05-21 19:17:23</time>
      </trkpt>
      <trkpt lat="42.4035" lon="2.48622">
        <ele>728.2</ele>
        <time>2022-05-21 19:17:24</time>
      </trkpt>
      <trkpt lat="42.40349" lon="2.48619">
        <ele>728.2</ele>
        <time>2022-05-21 19:17:25</time>
      </trkpt>
      <trkpt lat="42.40348" lon="2.48615">
        <ele>728.4</ele>
        <time>2022-05-21 19:17:26</time>
      </trkpt>
      <trkpt lat="42.40347" lon="2.48611">
        <ele>728.4</ele>
        <time>2022-05-21 19:17:27</time>
      </trkpt>
      <trkpt lat="42.40346" lon="2.48608">
        <ele>728.4</ele>
        <time>2022-05-21 19:17:28</time>
      </trkpt>
      <trkpt lat="42.40345" lon="2.48604">
        <ele>728.4</ele>
        <time>2022-05-21 19:17:29</time>
      </trkpt>
      <trkpt lat="42.40345" lon="2.486">
        <ele>728.6</ele>
        <time>2022-05-21 19:17:30</time>
      </trkpt>
      <trkpt lat="42.40344" lon="2.48596">
        <ele>728.6</ele>
        <time>2022-05-21 19:17:31</time>
      </trkpt>
      <trkpt lat="42.40344" lon="2.48593">
        <ele>728.6</ele>
        <time>2022-05-21 19:17:32</time>
      </trkpt>
      <trkpt lat="42.40343" lon="2.48589">
        <ele>728.6</ele>
        <time>2022-05-21 19:17:33</time>
      </trkpt>
      <trkpt lat="42.40343" lon="2.48586">
        <ele>728.6</ele>
        <time>2022-05-21 19:17:34</time>
      </trkpt>
      <trkpt lat="42.40343" lon="2.48583">
        <ele>728.8</ele>
        <time>2022-05-21 19:17:35</time>
      </trkpt>
      <trkpt lat="42.40343" lon="2.4858">
        <ele>728.8</ele>
        <time>2022-05-21 19:17:36</time>
      </trkpt>
      <trkpt lat="42.40343" lon="2.48576">
        <ele>729</ele>
        <time>2022-05-21 19:17:37</time>
      </trkpt>
      <trkpt lat="42.40343" lon="2.48573">
        <ele>729</ele>
        <time>2022-05-21 19:17:38</time>
      </trkpt>
      <trkpt lat="42.40342" lon="2.4857">
        <ele>729</ele>
        <time>2022-05-21 19:17:39</time>
      </trkpt>
      <trkpt lat="42.40342" lon="2.48567">
        <ele>729.2</ele>
        <time>2022-05-21 19:17:40</time>
      </trkpt>
      <trkpt lat="42.40342" lon="2.48563">
        <ele>729.2</ele>
        <time>2022-05-21 19:17:41</time>
      </trkpt>
      <trkpt lat="42.40342" lon="2.4856">
        <ele>729.2</ele>
        <time>2022-05-21 19:17:42</time>
      </trkpt>
      <trkpt lat="42.40342" lon="2.48556">
        <ele>729.2</ele>
        <time>2022-05-21 19:17:43</time>
      </trkpt>
      <trkpt lat="42.40342" lon="2.48553">
        <ele>729.4</ele>
        <time>2022-05-21 19:17:44</time>
      </trkpt>
      <trkpt lat="42.40342" lon="2.48549">
        <ele>729.4</ele>
        <time>2022-05-21 19:17:45</time>
      </trkpt>
      <trkpt lat="42.40342" lon="2.48546">
        <ele>729.4</ele>
        <time>2022-05-21 19:17:46</time>
      </trkpt>
      <trkpt lat="42.40342" lon="2.48543">
        <ele>729.6</ele>
        <time>2022-05-21 19:17:47</time>
      </trkpt>
      <trkpt lat="42.40342" lon="2.48539">
        <ele>729.6</ele>
        <time>2022-05-21 19:17:48</time>
      </trkpt>
      <trkpt lat="42.40342" lon="2.48535">
        <ele>729.6</ele>
        <time>2022-05-21 19:17:49</time>
      </trkpt>
      <trkpt lat="42.40342" lon="2.48531">
        <ele>729.8</ele>
        <time>2022-05-21 19:17:50</time>
      </trkpt>
      <trkpt lat="42.40342" lon="2.48527">
        <ele>729.8</ele>
        <time>2022-05-21 19:17:51</time>
      </trkpt>
      <trkpt lat="42.40342" lon="2.48524">
        <ele>729.8</ele>
        <time>2022-05-21 19:17:52</time>
      </trkpt>
      <trkpt lat="42.40342" lon="2.4852">
        <ele>730</ele>
        <time>2022-05-21 19:17:53</time>
      </trkpt>
      <trkpt lat="42.40342" lon="2.48517">
        <ele>730</ele>
        <time>2022-05-21 19:17:54</time>
      </trkpt>
      <trkpt lat="42.40343" lon="2.48513">
        <ele>730.2</ele>
        <time>2022-05-21 19:17:55</time>
      </trkpt>
      <trkpt lat="42.40343" lon="2.4851">
        <ele>730.2</ele>
        <time>2022-05-21 19:17:56</time>
      </trkpt>
      <trkpt lat="42.40344" lon="2.48506">
        <ele>730.2</ele>
        <time>2022-05-21 19:17:57</time>
      </trkpt>
      <trkpt lat="42.40345" lon="2.48503">
        <ele>730.4</ele>
        <time>2022-05-21 19:17:58</time>
      </trkpt>
      <trkpt lat="42.40345" lon="2.48499">
        <ele>730.4</ele>
        <time>2022-05-21 19:17:59</time>
      </trkpt>
      <trkpt lat="42.40346" lon="2.48496">
        <ele>730.4</ele>
        <time>2022-05-21 19:18:00</time>
      </trkpt>
      <trkpt lat="42.40346" lon="2.48492">
        <ele>730.4</ele>
        <time>2022-05-21 19:18:01</time>
      </trkpt>
      <trkpt lat="42.40346" lon="2.48489">
        <ele>730.4</ele>
        <time>2022-05-21 19:18:02</time>
      </trkpt>
      <trkpt lat="42.40346" lon="2.48485">
        <ele>730.6</ele>
        <time>2022-05-21 19:18:03</time>
      </trkpt>
      <trkpt lat="42.40347" lon="2.48482">
        <ele>730.6</ele>
        <time>2022-05-21 19:18:04</time>
      </trkpt>
      <trkpt lat="42.40347" lon="2.48479">
        <ele>730.6</ele>
        <time>2022-05-21 19:18:05</time>
      </trkpt>
      <trkpt lat="42.40348" lon="2.48476">
        <ele>730.8</ele>
        <time>2022-05-21 19:18:06</time>
      </trkpt>
      <trkpt lat="42.40349" lon="2.48473">
        <ele>730.8</ele>
        <time>2022-05-21 19:18:07</time>
      </trkpt>
      <trkpt lat="42.4035" lon="2.4847">
        <ele>730.8</ele>
        <time>2022-05-21 19:18:08</time>
      </trkpt>
      <trkpt lat="42.4035" lon="2.48466">
        <ele>731</ele>
        <time>2022-05-21 19:18:09</time>
      </trkpt>
      <trkpt lat="42.40351" lon="2.48463">
        <ele>731</ele>
        <time>2022-05-21 19:18:10</time>
      </trkpt>
      <trkpt lat="42.40351" lon="2.48459">
        <ele>731</ele>
        <time>2022-05-21 19:18:11</time>
      </trkpt>
      <trkpt lat="42.4035" lon="2.48455">
        <ele>731.2</ele>
        <time>2022-05-21 19:18:12</time>
      </trkpt>
      <trkpt lat="42.4035" lon="2.48451">
        <ele>731.2</ele>
        <time>2022-05-21 19:18:13</time>
      </trkpt>
      <trkpt lat="42.4035" lon="2.48447">
        <ele>731.2</ele>
        <time>2022-05-21 19:18:14</time>
      </trkpt>
      <trkpt lat="42.4035" lon="2.48443">
        <ele>731.4</ele>
        <time>2022-05-21 19:18:15</time>
      </trkpt>
      <trkpt lat="42.40351" lon="2.4844">
        <ele>731.4</ele>
        <time>2022-05-21 19:18:16</time>
      </trkpt>
      <trkpt lat="42.40352" lon="2.48436">
        <ele>731.4</ele>
        <time>2022-05-21 19:18:17</time>
      </trkpt>
      <trkpt lat="42.40352" lon="2.48433">
        <ele>731.4</ele>
        <time>2022-05-21 19:18:18</time>
      </trkpt>
      <trkpt lat="42.40353" lon="2.48429">
        <ele>731.4</ele>
        <time>2022-05-21 19:18:19</time>
      </trkpt>
      <trkpt lat="42.40353" lon="2.48426">
        <ele>731.4</ele>
        <time>2022-05-21 19:18:20</time>
      </trkpt>
      <trkpt lat="42.40354" lon="2.48422">
        <ele>731.6</ele>
        <time>2022-05-21 19:18:21</time>
      </trkpt>
      <trkpt lat="42.40354" lon="2.48418">
        <ele>731.6</ele>
        <time>2022-05-21 19:18:22</time>
      </trkpt>
      <trkpt lat="42.40354" lon="2.48413">
        <ele>731.8</ele>
        <time>2022-05-21 19:18:23</time>
      </trkpt>
      <trkpt lat="42.40354" lon="2.48409">
        <ele>731.8</ele>
        <time>2022-05-21 19:18:24</time>
      </trkpt>
      <trkpt lat="42.40354" lon="2.48405">
        <ele>731.8</ele>
        <time>2022-05-21 19:18:25</time>
      </trkpt>
      <trkpt lat="42.40355" lon="2.48401">
        <ele>732</ele>
        <time>2022-05-21 19:18:26</time>
      </trkpt>
      <trkpt lat="42.40355" lon="2.48398">
        <ele>732</ele>
        <time>2022-05-21 19:18:27</time>
      </trkpt>
      <trkpt lat="42.40355" lon="2.48394">
        <ele>732</ele>
        <time>2022-05-21 19:18:28</time>
      </trkpt>
      <trkpt lat="42.40355" lon="2.4839">
        <ele>732.2</ele>
        <time>2022-05-21 19:18:29</time>
      </trkpt>
      <trkpt lat="42.40355" lon="2.48386">
        <ele>732.2</ele>
        <time>2022-05-21 19:18:30</time>
      </trkpt>
      <trkpt lat="42.40355" lon="2.48382">
        <ele>732.2</ele>
        <time>2022-05-21 19:18:31</time>
      </trkpt>
      <trkpt lat="42.40356" lon="2.48379">
        <ele>732.4</ele>
        <time>2022-05-21 19:18:32</time>
      </trkpt>
      <trkpt lat="42.40357" lon="2.48375">
        <ele>732.4</ele>
        <time>2022-05-21 19:18:33</time>
      </trkpt>
      <trkpt lat="42.40358" lon="2.48372">
        <ele>732.4</ele>
        <time>2022-05-21 19:18:34</time>
      </trkpt>
      <trkpt lat="42.40359" lon="2.48368">
        <ele>732.4</ele>
        <time>2022-05-21 19:18:35</time>
      </trkpt>
      <trkpt lat="42.40361" lon="2.48365">
        <ele>732.6</ele>
        <time>2022-05-21 19:18:36</time>
      </trkpt>
      <trkpt lat="42.40361" lon="2.48361">
        <ele>732.8</ele>
        <time>2022-05-21 19:18:37</time>
      </trkpt>
      <trkpt lat="42.40362" lon="2.48357">
        <ele>732.8</ele>
        <time>2022-05-21 19:18:38</time>
      </trkpt>
      <trkpt lat="42.40362" lon="2.48353">
        <ele>733</ele>
        <time>2022-05-21 19:18:39</time>
      </trkpt>
      <trkpt lat="42.40362" lon="2.4835">
        <ele>733</ele>
        <time>2022-05-21 19:18:40</time>
      </trkpt>
      <trkpt lat="42.40363" lon="2.48345">
        <ele>733</ele>
        <time>2022-05-21 19:18:41</time>
      </trkpt>
      <trkpt lat="42.40363" lon="2.48341">
        <ele>733.2</ele>
        <time>2022-05-21 19:18:42</time>
      </trkpt>
      <trkpt lat="42.40364" lon="2.48337">
        <ele>733.2</ele>
        <time>2022-05-21 19:18:43</time>
      </trkpt>
      <trkpt lat="42.40365" lon="2.48333">
        <ele>733.2</ele>
        <time>2022-05-21 19:18:44</time>
      </trkpt>
      <trkpt lat="42.40367" lon="2.48329">
        <ele>733.4</ele>
        <time>2022-05-21 19:18:45</time>
      </trkpt>
      <trkpt lat="42.40367" lon="2.48325">
        <ele>733.4</ele>
        <time>2022-05-21 19:18:46</time>
      </trkpt>
      <trkpt lat="42.40368" lon="2.4832">
        <ele>733.6</ele>
        <time>2022-05-21 19:18:47</time>
      </trkpt>
      <trkpt lat="42.40369" lon="2.48316">
        <ele>733.6</ele>
        <time>2022-05-21 19:18:48</time>
      </trkpt>
      <trkpt lat="42.4037" lon="2.48312">
        <ele>733.6</ele>
        <time>2022-05-21 19:18:49</time>
      </trkpt>
      <trkpt lat="42.40371" lon="2.48308">
        <ele>733.6</ele>
        <time>2022-05-21 19:18:50</time>
      </trkpt>
      <trkpt lat="42.40371" lon="2.48305">
        <ele>733.8</ele>
        <time>2022-05-21 19:18:51</time>
      </trkpt>
      <trkpt lat="42.40372" lon="2.48301">
        <ele>733.8</ele>
        <time>2022-05-21 19:18:52</time>
      </trkpt>
      <trkpt lat="42.40372" lon="2.48298">
        <ele>734</ele>
        <time>2022-05-21 19:18:53</time>
      </trkpt>
      <trkpt lat="42.40373" lon="2.48294">
        <ele>734</ele>
        <time>2022-05-21 19:18:54</time>
      </trkpt>
      <trkpt lat="42.40373" lon="2.4829">
        <ele>734.2</ele>
        <time>2022-05-21 19:18:55</time>
      </trkpt>
      <trkpt lat="42.40373" lon="2.48286">
        <ele>734.2</ele>
        <time>2022-05-21 19:18:56</time>
      </trkpt>
      <trkpt lat="42.40373" lon="2.48283">
        <ele>734.2</ele>
        <time>2022-05-21 19:18:57</time>
      </trkpt>
      <trkpt lat="42.40373" lon="2.48279">
        <ele>734.4</ele>
        <time>2022-05-21 19:18:58</time>
      </trkpt>
      <trkpt lat="42.40373" lon="2.48276">
        <ele>734.4</ele>
        <time>2022-05-21 19:18:59</time>
      </trkpt>
      <trkpt lat="42.40373" lon="2.48272">
        <ele>734.4</ele>
        <time>2022-05-21 19:19:00</time>
      </trkpt>
      <trkpt lat="42.40373" lon="2.48269">
        <ele>734.4</ele>
        <time>2022-05-21 19:19:01</time>
      </trkpt>
      <trkpt lat="42.40373" lon="2.48266">
        <ele>734.6</ele>
        <time>2022-05-21 19:19:02</time>
      </trkpt>
      <trkpt lat="42.40372" lon="2.48263">
        <ele>734.6</ele>
        <time>2022-05-21 19:19:03</time>
      </trkpt>
      <trkpt lat="42.40372" lon="2.48261">
        <ele>734.8</ele>
        <time>2022-05-21 19:19:04</time>
      </trkpt>
      <trkpt lat="42.40372" lon="2.48258">
        <ele>735</ele>
        <time>2022-05-21 19:19:05</time>
      </trkpt>
      <trkpt lat="42.40372" lon="2.48255">
        <ele>735</ele>
        <time>2022-05-21 19:19:06</time>
      </trkpt>
      <trkpt lat="42.40372" lon="2.48252">
        <ele>735</ele>
        <time>2022-05-21 19:19:07</time>
      </trkpt>
      <trkpt lat="42.40373" lon="2.48249">
        <ele>735.2</ele>
        <time>2022-05-21 19:19:08</time>
      </trkpt>
      <trkpt lat="42.40373" lon="2.48246">
        <ele>735.2</ele>
        <time>2022-05-21 19:19:09</time>
      </trkpt>
      <trkpt lat="42.40373" lon="2.48242">
        <ele>735.2</ele>
        <time>2022-05-21 19:19:10</time>
      </trkpt>
      <trkpt lat="42.40373" lon="2.48239">
        <ele>735.4</ele>
        <time>2022-05-21 19:19:11</time>
      </trkpt>
      <trkpt lat="42.40374" lon="2.48236">
        <ele>735.4</ele>
        <time>2022-05-21 19:19:12</time>
      </trkpt>
      <trkpt lat="42.40374" lon="2.48233">
        <ele>735.4</ele>
        <time>2022-05-21 19:19:13</time>
      </trkpt>
      <trkpt lat="42.40374" lon="2.48229">
        <ele>735.4</ele>
        <time>2022-05-21 19:19:14</time>
      </trkpt>
      <trkpt lat="42.40375" lon="2.48225">
        <ele>735.4</ele>
        <time>2022-05-21 19:19:15</time>
      </trkpt>
      <trkpt lat="42.40375" lon="2.48222">
        <ele>735.4</ele>
        <time>2022-05-21 19:19:16</time>
      </trkpt>
      <trkpt lat="42.40375" lon="2.48218">
        <ele>735.2</ele>
        <time>2022-05-21 19:19:17</time>
      </trkpt>
      <trkpt lat="42.40376" lon="2.48214">
        <ele>735.2</ele>
        <time>2022-05-21 19:19:18</time>
      </trkpt>
      <trkpt lat="42.40376" lon="2.48211">
        <ele>735.2</ele>
        <time>2022-05-21 19:19:19</time>
      </trkpt>
      <trkpt lat="42.40377" lon="2.48207">
        <ele>735.2</ele>
        <time>2022-05-21 19:19:20</time>
      </trkpt>
      <trkpt lat="42.40378" lon="2.48203">
        <ele>735.2</ele>
        <time>2022-05-21 19:19:21</time>
      </trkpt>
      <trkpt lat="42.4038" lon="2.48199">
        <ele>735</ele>
        <time>2022-05-21 19:19:22</time>
      </trkpt>
      <trkpt lat="42.40381" lon="2.48195">
        <ele>735</ele>
        <time>2022-05-21 19:19:23</time>
      </trkpt>
      <trkpt lat="42.40382" lon="2.48191">
        <ele>734.8</ele>
        <time>2022-05-21 19:19:24</time>
      </trkpt>
      <trkpt lat="42.40383" lon="2.48187">
        <ele>734.8</ele>
        <time>2022-05-21 19:19:25</time>
      </trkpt>
      <trkpt lat="42.40383" lon="2.48181">
        <ele>734.8</ele>
        <time>2022-05-21 19:19:26</time>
      </trkpt>
      <trkpt lat="42.40384" lon="2.48177">
        <ele>734.6</ele>
        <time>2022-05-21 19:19:27</time>
      </trkpt>
      <trkpt lat="42.40385" lon="2.48172">
        <ele>734.6</ele>
        <time>2022-05-21 19:19:28</time>
      </trkpt>
      <trkpt lat="42.40385" lon="2.48168">
        <ele>734.6</ele>
        <time>2022-05-21 19:19:29</time>
      </trkpt>
      <trkpt lat="42.40386" lon="2.48164">
        <ele>734.4</ele>
        <time>2022-05-21 19:19:30</time>
      </trkpt>
      <trkpt lat="42.40387" lon="2.48159">
        <ele>734.4</ele>
        <time>2022-05-21 19:19:31</time>
      </trkpt>
      <trkpt lat="42.40388" lon="2.48155">
        <ele>734.4</ele>
        <time>2022-05-21 19:19:32</time>
      </trkpt>
      <trkpt lat="42.40388" lon="2.48151">
        <ele>734.2</ele>
        <time>2022-05-21 19:19:33</time>
      </trkpt>
      <trkpt lat="42.40389" lon="2.48146">
        <ele>734.2</ele>
        <time>2022-05-21 19:19:34</time>
      </trkpt>
      <trkpt lat="42.4039" lon="2.48141">
        <ele>734</ele>
        <time>2022-05-21 19:19:35</time>
      </trkpt>
      <trkpt lat="42.4039" lon="2.48136">
        <ele>734</ele>
        <time>2022-05-21 19:19:36</time>
      </trkpt>
      <trkpt lat="42.40391" lon="2.48131">
        <ele>733.8</ele>
        <time>2022-05-21 19:19:37</time>
      </trkpt>
      <trkpt lat="42.40391" lon="2.48126">
        <ele>733.8</ele>
        <time>2022-05-21 19:19:38</time>
      </trkpt>
      <trkpt lat="42.40391" lon="2.48121">
        <ele>733.8</ele>
        <time>2022-05-21 19:19:39</time>
      </trkpt>
      <trkpt lat="42.40392" lon="2.48117">
        <ele>733.8</ele>
        <time>2022-05-21 19:19:40</time>
      </trkpt>
      <trkpt lat="42.40393" lon="2.48113">
        <ele>733.6</ele>
        <time>2022-05-21 19:19:41</time>
      </trkpt>
      <trkpt lat="42.40394" lon="2.48108">
        <ele>733.6</ele>
        <time>2022-05-21 19:19:42</time>
      </trkpt>
      <trkpt lat="42.40395" lon="2.48104">
        <ele>733.6</ele>
        <time>2022-05-21 19:19:43</time>
      </trkpt>
      <trkpt lat="42.40396" lon="2.48099">
        <ele>733.6</ele>
        <time>2022-05-21 19:19:44</time>
      </trkpt>
      <trkpt lat="42.40396" lon="2.48094">
        <ele>733.4</ele>
        <time>2022-05-21 19:19:45</time>
      </trkpt>
      <trkpt lat="42.40395" lon="2.48089">
        <ele>733.4</ele>
        <time>2022-05-21 19:19:46</time>
      </trkpt>
      <trkpt lat="42.40395" lon="2.48085">
        <ele>733.4</ele>
        <time>2022-05-21 19:19:47</time>
      </trkpt>
      <trkpt lat="42.40395" lon="2.4808">
        <ele>733.4</ele>
        <time>2022-05-21 19:19:48</time>
      </trkpt>
      <trkpt lat="42.40395" lon="2.48075">
        <ele>733.4</ele>
        <time>2022-05-21 19:19:49</time>
      </trkpt>
      <trkpt lat="42.40394" lon="2.4807">
        <ele>733.4</ele>
        <time>2022-05-21 19:19:50</time>
      </trkpt>
      <trkpt lat="42.40394" lon="2.48065">
        <ele>733.4</ele>
        <time>2022-05-21 19:19:51</time>
      </trkpt>
      <trkpt lat="42.40394" lon="2.4806">
        <ele>733.4</ele>
        <time>2022-05-21 19:19:52</time>
      </trkpt>
      <trkpt lat="42.40393" lon="2.48056">
        <ele>733.4</ele>
        <time>2022-05-21 19:19:53</time>
      </trkpt>
      <trkpt lat="42.40393" lon="2.48052">
        <ele>733.4</ele>
        <time>2022-05-21 19:19:54</time>
      </trkpt>
      <trkpt lat="42.40393" lon="2.48048">
        <ele>733.4</ele>
        <time>2022-05-21 19:19:55</time>
      </trkpt>
      <trkpt lat="42.40394" lon="2.48044">
        <ele>733.4</ele>
        <time>2022-05-21 19:19:56</time>
      </trkpt>
      <trkpt lat="42.40394" lon="2.48039">
        <ele>733.4</ele>
        <time>2022-05-21 19:19:57</time>
      </trkpt>
      <trkpt lat="42.40394" lon="2.48034">
        <ele>733.4</ele>
        <time>2022-05-21 19:19:58</time>
      </trkpt>
      <trkpt lat="42.40393" lon="2.48029">
        <ele>733.4</ele>
        <time>2022-05-21 19:19:59</time>
      </trkpt>
      <trkpt lat="42.40393" lon="2.48025">
        <ele>733.4</ele>
        <time>2022-05-21 19:20:00</time>
      </trkpt>
      <trkpt lat="42.40392" lon="2.48021">
        <ele>733.6</ele>
        <time>2022-05-21 19:20:01</time>
      </trkpt>
      <trkpt lat="42.40392" lon="2.48018">
        <ele>733.6</ele>
        <time>2022-05-21 19:20:02</time>
      </trkpt>
      <trkpt lat="42.40391" lon="2.48014">
        <ele>733.8</ele>
        <time>2022-05-21 19:20:03</time>
      </trkpt>
      <trkpt lat="42.40389" lon="2.48009">
        <ele>733.8</ele>
        <time>2022-05-21 19:20:04</time>
      </trkpt>
      <trkpt lat="42.40388" lon="2.48006">
        <ele>733.8</ele>
        <time>2022-05-21 19:20:05</time>
      </trkpt>
      <trkpt lat="42.40387" lon="2.48003">
        <ele>733.8</ele>
        <time>2022-05-21 19:20:06</time>
      </trkpt>
      <trkpt lat="42.40385" lon="2.48">
        <ele>733.8</ele>
        <time>2022-05-21 19:20:07</time>
      </trkpt>
      <trkpt lat="42.40383" lon="2.47998">
        <ele>733.8</ele>
        <time>2022-05-21 19:20:08</time>
      </trkpt>
      <trkpt lat="42.40376" lon="2.47992">
        <ele>733.8</ele>
        <time>2022-05-21 19:21:33</time>
      </trkpt>
      <trkpt lat="42.40371" lon="2.47989">
        <ele>733.8</ele>
        <time>2022-05-21 19:21:34</time>
      </trkpt>
      <trkpt lat="42.40368" lon="2.47989">
        <ele>733.8</ele>
        <time>2022-05-21 19:21:35</time>
      </trkpt>
      <trkpt lat="42.40366" lon="2.47988">
        <ele>733.8</ele>
        <time>2022-05-21 19:21:36</time>
      </trkpt>
      <trkpt lat="42.40364" lon="2.47987">
        <ele>733.8</ele>
        <time>2022-05-21 19:21:37</time>
      </trkpt>
      <trkpt lat="42.40361" lon="2.47986">
        <ele>733.8</ele>
        <time>2022-05-21 19:21:38</time>
      </trkpt>
      <trkpt lat="42.40358" lon="2.47985">
        <ele>733.6</ele>
        <time>2022-05-21 19:21:39</time>
      </trkpt>
      <trkpt lat="42.40355" lon="2.47984">
        <ele>733.4</ele>
        <time>2022-05-21 19:21:40</time>
      </trkpt>
      <trkpt lat="42.40351" lon="2.47983">
        <ele>733.4</ele>
        <time>2022-05-21 19:21:41</time>
      </trkpt>
      <trkpt lat="42.40348" lon="2.47982">
        <ele>733.2</ele>
        <time>2022-05-21 19:21:42</time>
      </trkpt>
      <trkpt lat="42.40344" lon="2.4798">
        <ele>733</ele>
        <time>2022-05-21 19:21:43</time>
      </trkpt>
      <trkpt lat="42.4034" lon="2.4798">
        <ele>732.8</ele>
        <time>2022-05-21 19:21:44</time>
      </trkpt>
      <trkpt lat="42.40336" lon="2.47979">
        <ele>732.8</ele>
        <time>2022-05-21 19:21:45</time>
      </trkpt>
      <trkpt lat="42.40332" lon="2.47977">
        <ele>732.6</ele>
        <time>2022-05-21 19:21:46</time>
      </trkpt>
      <trkpt lat="42.40328" lon="2.47976">
        <ele>732.4</ele>
        <time>2022-05-21 19:21:47</time>
      </trkpt>
      <trkpt lat="42.40324" lon="2.47975">
        <ele>732.4</ele>
        <time>2022-05-21 19:21:48</time>
      </trkpt>
      <trkpt lat="42.40319" lon="2.47973">
        <ele>732.2</ele>
        <time>2022-05-21 19:21:49</time>
      </trkpt>
      <trkpt lat="42.40315" lon="2.47972">
        <ele>732</ele>
        <time>2022-05-21 19:21:50</time>
      </trkpt>
      <trkpt lat="42.4031" lon="2.4797">
        <ele>731.8</ele>
        <time>2022-05-21 19:21:51</time>
      </trkpt>
      <trkpt lat="42.40305" lon="2.47969">
        <ele>731.6</ele>
        <time>2022-05-21 19:21:52</time>
      </trkpt>
      <trkpt lat="42.403" lon="2.47967">
        <ele>731.4</ele>
        <time>2022-05-21 19:21:53</time>
      </trkpt>
      <trkpt lat="42.40295" lon="2.47965">
        <ele>731.4</ele>
        <time>2022-05-21 19:21:54</time>
      </trkpt>
      <trkpt lat="42.4029" lon="2.47964">
        <ele>731.2</ele>
        <time>2022-05-21 19:21:55</time>
      </trkpt>
      <trkpt lat="42.40284" lon="2.47962">
        <ele>731</ele>
        <time>2022-05-21 19:21:56</time>
      </trkpt>
      <trkpt lat="42.40278" lon="2.4796">
        <ele>730.6</ele>
        <time>2022-05-21 19:21:57</time>
      </trkpt>
      <trkpt lat="42.40273" lon="2.47958">
        <ele>730.6</ele>
        <time>2022-05-21 19:21:58</time>
      </trkpt>
      <trkpt lat="42.40267" lon="2.47957">
        <ele>730.4</ele>
        <time>2022-05-21 19:21:59</time>
      </trkpt>
      <trkpt lat="42.40261" lon="2.47955">
        <ele>730.2</ele>
        <time>2022-05-21 19:22:00</time>
      </trkpt>
      <trkpt lat="42.40256" lon="2.47953">
        <ele>730.2</ele>
        <time>2022-05-21 19:22:01</time>
      </trkpt>
      <trkpt lat="42.40251" lon="2.47951">
        <ele>730</ele>
        <time>2022-05-21 19:22:02</time>
      </trkpt>
      <trkpt lat="42.40246" lon="2.47949">
        <ele>730</ele>
        <time>2022-05-21 19:22:03</time>
      </trkpt>
      <trkpt lat="42.40241" lon="2.47947">
        <ele>730</ele>
        <time>2022-05-21 19:22:04</time>
      </trkpt>
      <trkpt lat="42.40238" lon="2.47944">
        <ele>730.2</ele>
        <time>2022-05-21 19:22:05</time>
      </trkpt>
      <trkpt lat="42.40234" lon="2.47941">
        <ele>730.2</ele>
        <time>2022-05-21 19:22:06</time>
      </trkpt>
      <trkpt lat="42.40231" lon="2.47938">
        <ele>730.4</ele>
        <time>2022-05-21 19:22:07</time>
      </trkpt>
      <trkpt lat="42.40228" lon="2.47935">
        <ele>730.6</ele>
        <time>2022-05-21 19:22:08</time>
      </trkpt>
      <trkpt lat="42.40225" lon="2.47933">
        <ele>730.6</ele>
        <time>2022-05-21 19:22:09</time>
      </trkpt>
      <trkpt lat="42.40223" lon="2.4793">
        <ele>730.8</ele>
        <time>2022-05-21 19:22:10</time>
      </trkpt>
      <trkpt lat="42.4022" lon="2.47929">
        <ele>731</ele>
        <time>2022-05-21 19:22:11</time>
      </trkpt>
      <trkpt lat="42.40217" lon="2.47928">
        <ele>731</ele>
        <time>2022-05-21 19:22:12</time>
      </trkpt>
      <trkpt lat="42.40215" lon="2.47928">
        <ele>731.2</ele>
        <time>2022-05-21 19:22:13</time>
      </trkpt>
      <trkpt lat="42.40213" lon="2.4793">
        <ele>731.2</ele>
        <time>2022-05-21 19:22:14</time>
      </trkpt>
      <trkpt lat="42.40211" lon="2.47932">
        <ele>731.2</ele>
        <time>2022-05-21 19:22:15</time>
      </trkpt>
      <trkpt lat="42.40209" lon="2.47935">
        <ele>731.4</ele>
        <time>2022-05-21 19:22:16</time>
      </trkpt>
      <trkpt lat="42.40207" lon="2.47937">
        <ele>731.6</ele>
        <time>2022-05-21 19:22:17</time>
      </trkpt>
      <trkpt lat="42.40205" lon="2.47939">
        <ele>731.8</ele>
        <time>2022-05-21 19:22:18</time>
      </trkpt>
      <trkpt lat="42.40203" lon="2.47941">
        <ele>731.8</ele>
        <time>2022-05-21 19:22:19</time>
      </trkpt>
      <trkpt lat="42.40201" lon="2.47942">
        <ele>732</ele>
        <time>2022-05-21 19:22:20</time>
      </trkpt>
      <trkpt lat="42.40199" lon="2.47943">
        <ele>732.2</ele>
        <time>2022-05-21 19:22:21</time>
      </trkpt>
      <trkpt lat="42.40197" lon="2.47944">
        <ele>732.4</ele>
        <time>2022-05-21 19:22:22</time>
      </trkpt>
      <trkpt lat="42.40195" lon="2.47945">
        <ele>732.6</ele>
        <time>2022-05-21 19:22:23</time>
      </trkpt>
      <trkpt lat="42.40193" lon="2.47945">
        <ele>732.8</ele>
        <time>2022-05-21 19:22:24</time>
      </trkpt>
      <trkpt lat="42.40191" lon="2.47946">
        <ele>732.8</ele>
        <time>2022-05-21 19:22:25</time>
      </trkpt>
      <trkpt lat="42.40189" lon="2.47947">
        <ele>733</ele>
        <time>2022-05-21 19:22:26</time>
      </trkpt>
      <trkpt lat="42.40188" lon="2.47947">
        <ele>733.2</ele>
        <time>2022-05-21 19:22:27</time>
      </trkpt>
      <trkpt lat="42.40186" lon="2.47948">
        <ele>733.4</ele>
        <time>2022-05-21 19:22:28</time>
      </trkpt>
      <trkpt lat="42.40184" lon="2.47949">
        <ele>733.6</ele>
        <time>2022-05-21 19:22:29</time>
      </trkpt>
      <trkpt lat="42.40183" lon="2.4795">
        <ele>733.8</ele>
        <time>2022-05-21 19:22:30</time>
      </trkpt>
      <trkpt lat="42.40181" lon="2.4795">
        <ele>733.8</ele>
        <time>2022-05-21 19:22:31</time>
      </trkpt>
      <trkpt lat="42.40179" lon="2.47951">
        <ele>734</ele>
        <time>2022-05-21 19:22:32</time>
      </trkpt>
      <trkpt lat="42.40177" lon="2.47952">
        <ele>734.2</ele>
        <time>2022-05-21 19:22:33</time>
      </trkpt>
      <trkpt lat="42.40175" lon="2.47953">
        <ele>734.4</ele>
        <time>2022-05-21 19:22:34</time>
      </trkpt>
      <trkpt lat="42.40174" lon="2.47954">
        <ele>734.6</ele>
        <time>2022-05-21 19:22:35</time>
      </trkpt>
      <trkpt lat="42.40172" lon="2.47955">
        <ele>734.8</ele>
        <time>2022-05-21 19:22:36</time>
      </trkpt>
      <trkpt lat="42.40171" lon="2.47956">
        <ele>734.8</ele>
        <time>2022-05-21 19:22:37</time>
      </trkpt>
      <trkpt lat="42.40169" lon="2.47957">
        <ele>735</ele>
        <time>2022-05-21 19:22:38</time>
      </trkpt>
      <trkpt lat="42.40169" lon="2.47958">
        <ele>735.2</ele>
        <time>2022-05-21 19:22:39</time>
      </trkpt>
      <trkpt lat="42.40166" lon="2.4796">
        <ele>735.4</ele>
        <time>2022-05-21 19:22:40</time>
      </trkpt>
      <trkpt lat="42.40165" lon="2.47961">
        <ele>735.6</ele>
        <time>2022-05-21 19:22:41</time>
      </trkpt>
      <trkpt lat="42.40164" lon="2.47962">
        <ele>735.8</ele>
        <time>2022-05-21 19:22:42</time>
      </trkpt>
      <trkpt lat="42.40161" lon="2.47963">
        <ele>736</ele>
        <time>2022-05-21 19:22:43</time>
      </trkpt>
      <trkpt lat="42.4016" lon="2.47965">
        <ele>736.2</ele>
        <time>2022-05-21 19:22:44</time>
      </trkpt>
      <trkpt lat="42.40158" lon="2.47966">
        <ele>736.2</ele>
        <time>2022-05-21 19:22:45</time>
      </trkpt>
      <trkpt lat="42.40156" lon="2.47967">
        <ele>736.4</ele>
        <time>2022-05-21 19:22:46</time>
      </trkpt>
      <trkpt lat="42.40155" lon="2.47968">
        <ele>736.6</ele>
        <time>2022-05-21 19:22:47</time>
      </trkpt>
      <trkpt lat="42.40153" lon="2.47969">
        <ele>736.8</ele>
        <time>2022-05-21 19:22:48</time>
      </trkpt>
      <trkpt lat="42.40151" lon="2.4797">
        <ele>737</ele>
        <time>2022-05-21 19:22:49</time>
      </trkpt>
      <trkpt lat="42.4015" lon="2.47972">
        <ele>737</ele>
        <time>2022-05-21 19:22:50</time>
      </trkpt>
      <trkpt lat="42.40148" lon="2.47973">
        <ele>737.2</ele>
        <time>2022-05-21 19:22:51</time>
      </trkpt>
      <trkpt lat="42.40146" lon="2.47974">
        <ele>737.4</ele>
        <time>2022-05-21 19:22:52</time>
      </trkpt>
      <trkpt lat="42.40144" lon="2.47975">
        <ele>737.6</ele>
        <time>2022-05-21 19:22:53</time>
      </trkpt>
      <trkpt lat="42.40143" lon="2.47976">
        <ele>737.8</ele>
        <time>2022-05-21 19:22:54</time>
      </trkpt>
      <trkpt lat="42.40141" lon="2.47977">
        <ele>738</ele>
        <time>2022-05-21 19:22:55</time>
      </trkpt>
      <trkpt lat="42.40139" lon="2.47978">
        <ele>738</ele>
        <time>2022-05-21 19:22:56</time>
      </trkpt>
      <trkpt lat="42.40137" lon="2.47978">
        <ele>738.2</ele>
        <time>2022-05-21 19:22:57</time>
      </trkpt>
      <trkpt lat="42.40135" lon="2.47979">
        <ele>738.4</ele>
        <time>2022-05-21 19:22:58</time>
      </trkpt>
      <trkpt lat="42.40133" lon="2.47979">
        <ele>738.6</ele>
        <time>2022-05-21 19:22:59</time>
      </trkpt>
      <trkpt lat="42.40131" lon="2.47979">
        <ele>738.8</ele>
        <time>2022-05-21 19:23:00</time>
      </trkpt>
      <trkpt lat="42.40129" lon="2.47979">
        <ele>739</ele>
        <time>2022-05-21 19:23:01</time>
      </trkpt>
      <trkpt lat="42.40127" lon="2.47979">
        <ele>739</ele>
        <time>2022-05-21 19:23:02</time>
      </trkpt>
      <trkpt lat="42.40126" lon="2.47979">
        <ele>739.2</ele>
        <time>2022-05-21 19:23:03</time>
      </trkpt>
      <trkpt lat="42.40124" lon="2.47979">
        <ele>739.4</ele>
        <time>2022-05-21 19:23:04</time>
      </trkpt>
      <trkpt lat="42.40122" lon="2.47978">
        <ele>739.6</ele>
        <time>2022-05-21 19:23:05</time>
      </trkpt>
      <trkpt lat="42.4012" lon="2.47978">
        <ele>739.8</ele>
        <time>2022-05-21 19:23:06</time>
      </trkpt>
      <trkpt lat="42.40118" lon="2.47978">
        <ele>740</ele>
        <time>2022-05-21 19:23:07</time>
      </trkpt>
      <trkpt lat="42.40117" lon="2.47978">
        <ele>740.2</ele>
        <time>2022-05-21 19:23:08</time>
      </trkpt>
      <trkpt lat="42.40115" lon="2.47977">
        <ele>740.4</ele>
        <time>2022-05-21 19:23:09</time>
      </trkpt>
      <trkpt lat="42.40113" lon="2.47977">
        <ele>740.6</ele>
        <time>2022-05-21 19:23:10</time>
      </trkpt>
      <trkpt lat="42.40112" lon="2.47976">
        <ele>740.8</ele>
        <time>2022-05-21 19:23:11</time>
      </trkpt>
      <trkpt lat="42.4011" lon="2.47976">
        <ele>741</ele>
        <time>2022-05-21 19:23:12</time>
      </trkpt>
      <trkpt lat="42.40108" lon="2.47975">
        <ele>741.2</ele>
        <time>2022-05-21 19:23:13</time>
      </trkpt>
      <trkpt lat="42.40107" lon="2.47974">
        <ele>741.2</ele>
        <time>2022-05-21 19:23:14</time>
      </trkpt>
      <trkpt lat="42.40105" lon="2.47973">
        <ele>741.4</ele>
        <time>2022-05-21 19:23:15</time>
      </trkpt>
      <trkpt lat="42.40103" lon="2.47972">
        <ele>741.6</ele>
        <time>2022-05-21 19:23:16</time>
      </trkpt>
      <trkpt lat="42.40102" lon="2.47971">
        <ele>741.8</ele>
        <time>2022-05-21 19:23:17</time>
      </trkpt>
      <trkpt lat="42.401" lon="2.47971">
        <ele>742</ele>
        <time>2022-05-21 19:23:18</time>
      </trkpt>
      <trkpt lat="42.40098" lon="2.4797">
        <ele>742.2</ele>
        <time>2022-05-21 19:23:19</time>
      </trkpt>
      <trkpt lat="42.40097" lon="2.47969">
        <ele>742.4</ele>
        <time>2022-05-21 19:23:20</time>
      </trkpt>
      <trkpt lat="42.40095" lon="2.47967">
        <ele>742.6</ele>
        <time>2022-05-21 19:23:21</time>
      </trkpt>
      <trkpt lat="42.40094" lon="2.47965">
        <ele>742.8</ele>
        <time>2022-05-21 19:23:22</time>
      </trkpt>
      <trkpt lat="42.40092" lon="2.47964">
        <ele>743</ele>
        <time>2022-05-21 19:23:23</time>
      </trkpt>
      <trkpt lat="42.40091" lon="2.47962">
        <ele>743.2</ele>
        <time>2022-05-21 19:23:24</time>
      </trkpt>
      <trkpt lat="42.40089" lon="2.4796">
        <ele>743.2</ele>
        <time>2022-05-21 19:23:25</time>
      </trkpt>
      <trkpt lat="42.40088" lon="2.47959">
        <ele>743.4</ele>
        <time>2022-05-21 19:23:26</time>
      </trkpt>
      <trkpt lat="42.40087" lon="2.47957">
        <ele>743.6</ele>
        <time>2022-05-21 19:23:27</time>
      </trkpt>
      <trkpt lat="42.40085" lon="2.47955">
        <ele>743.8</ele>
        <time>2022-05-21 19:23:28</time>
      </trkpt>
      <trkpt lat="42.40084" lon="2.47953">
        <ele>744</ele>
        <time>2022-05-21 19:23:29</time>
      </trkpt>
      <trkpt lat="42.40083" lon="2.47951">
        <ele>744.2</ele>
        <time>2022-05-21 19:23:30</time>
      </trkpt>
      <trkpt lat="42.40081" lon="2.47949">
        <ele>744.4</ele>
        <time>2022-05-21 19:23:31</time>
      </trkpt>
      <trkpt lat="42.4008" lon="2.47947">
        <ele>744.6</ele>
        <time>2022-05-21 19:23:32</time>
      </trkpt>
      <trkpt lat="42.40079" lon="2.47945">
        <ele>744.8</ele>
        <time>2022-05-21 19:23:33</time>
      </trkpt>
      <trkpt lat="42.40078" lon="2.47943">
        <ele>744.8</ele>
        <time>2022-05-21 19:23:34</time>
      </trkpt>
      <trkpt lat="42.40077" lon="2.47941">
        <ele>745</ele>
        <time>2022-05-21 19:23:35</time>
      </trkpt>
      <trkpt lat="42.40076" lon="2.47939">
        <ele>745.2</ele>
        <time>2022-05-21 19:23:36</time>
      </trkpt>
      <trkpt lat="42.40075" lon="2.47937">
        <ele>745.4</ele>
        <time>2022-05-21 19:23:37</time>
      </trkpt>
      <trkpt lat="42.40074" lon="2.47935">
        <ele>745.6</ele>
        <time>2022-05-21 19:23:38</time>
      </trkpt>
      <trkpt lat="42.40073" lon="2.47933">
        <ele>745.8</ele>
        <time>2022-05-21 19:23:39</time>
      </trkpt>
      <trkpt lat="42.40072" lon="2.4793">
        <ele>746</ele>
        <time>2022-05-21 19:23:40</time>
      </trkpt>
      <trkpt lat="42.40071" lon="2.47928">
        <ele>746</ele>
        <time>2022-05-21 19:23:41</time>
      </trkpt>
      <trkpt lat="42.40069" lon="2.47926">
        <ele>746.2</ele>
        <time>2022-05-21 19:23:42</time>
      </trkpt>
      <trkpt lat="42.40068" lon="2.47923">
        <ele>746.4</ele>
        <time>2022-05-21 19:23:43</time>
      </trkpt>
      <trkpt lat="42.40067" lon="2.4792">
        <ele>746.6</ele>
        <time>2022-05-21 19:23:44</time>
      </trkpt>
      <trkpt lat="42.40066" lon="2.47918">
        <ele>746.6</ele>
        <time>2022-05-21 19:23:45</time>
      </trkpt>
      <trkpt lat="42.40065" lon="2.47916">
        <ele>746.8</ele>
        <time>2022-05-21 19:23:46</time>
      </trkpt>
      <trkpt lat="42.40064" lon="2.47913">
        <ele>747</ele>
        <time>2022-05-21 19:23:47</time>
      </trkpt>
      <trkpt lat="42.40063" lon="2.47911">
        <ele>747.2</ele>
        <time>2022-05-21 19:23:48</time>
      </trkpt>
      <trkpt lat="42.40062" lon="2.47909">
        <ele>747.4</ele>
        <time>2022-05-21 19:23:49</time>
      </trkpt>
      <trkpt lat="42.40061" lon="2.47906">
        <ele>747.4</ele>
        <time>2022-05-21 19:23:50</time>
      </trkpt>
      <trkpt lat="42.4006" lon="2.47904">
        <ele>747.6</ele>
        <time>2022-05-21 19:23:51</time>
      </trkpt>
      <trkpt lat="42.40059" lon="2.47902">
        <ele>747.8</ele>
        <time>2022-05-21 19:23:52</time>
      </trkpt>
      <trkpt lat="42.40058" lon="2.479">
        <ele>748</ele>
        <time>2022-05-21 19:23:53</time>
      </trkpt>
      <trkpt lat="42.40057" lon="2.47898">
        <ele>748.2</ele>
        <time>2022-05-21 19:23:54</time>
      </trkpt>
      <trkpt lat="42.40055" lon="2.47896">
        <ele>748.4</ele>
        <time>2022-05-21 19:23:55</time>
      </trkpt>
      <trkpt lat="42.40054" lon="2.47893">
        <ele>748.4</ele>
        <time>2022-05-21 19:23:56</time>
      </trkpt>
      <trkpt lat="42.40053" lon="2.47891">
        <ele>748.6</ele>
        <time>2022-05-21 19:23:57</time>
      </trkpt>
      <trkpt lat="42.40052" lon="2.47889">
        <ele>748.8</ele>
        <time>2022-05-21 19:23:58</time>
      </trkpt>
      <trkpt lat="42.40051" lon="2.47887">
        <ele>749</ele>
        <time>2022-05-21 19:23:59</time>
      </trkpt>
      <trkpt lat="42.4005" lon="2.47884">
        <ele>749</ele>
        <time>2022-05-21 19:24:00</time>
      </trkpt>
      <trkpt lat="42.40048" lon="2.47882">
        <ele>749.2</ele>
        <time>2022-05-21 19:24:01</time>
      </trkpt>
      <trkpt lat="42.40047" lon="2.4788">
        <ele>749.4</ele>
        <time>2022-05-21 19:24:02</time>
      </trkpt>
      <trkpt lat="42.40046" lon="2.47878">
        <ele>749.6</ele>
        <time>2022-05-21 19:24:03</time>
      </trkpt>
      <trkpt lat="42.40045" lon="2.47876">
        <ele>749.8</ele>
        <time>2022-05-21 19:24:04</time>
      </trkpt>
      <trkpt lat="42.40044" lon="2.47874">
        <ele>750</ele>
        <time>2022-05-21 19:24:05</time>
      </trkpt>
      <trkpt lat="42.40044" lon="2.47872">
        <ele>750</ele>
        <time>2022-05-21 19:24:06</time>
      </trkpt>
      <trkpt lat="42.40042" lon="2.4787">
        <ele>750.2</ele>
        <time>2022-05-21 19:24:07</time>
      </trkpt>
      <trkpt lat="42.40041" lon="2.47869">
        <ele>750.4</ele>
        <time>2022-05-21 19:24:08</time>
      </trkpt>
      <trkpt lat="42.4004" lon="2.47867">
        <ele>750.6</ele>
        <time>2022-05-21 19:24:09</time>
      </trkpt>
      <trkpt lat="42.40039" lon="2.47865">
        <ele>750.8</ele>
        <time>2022-05-21 19:24:10</time>
      </trkpt>
      <trkpt lat="42.40038" lon="2.47863">
        <ele>750.8</ele>
        <time>2022-05-21 19:24:11</time>
      </trkpt>
      <trkpt lat="42.40037" lon="2.47861">
        <ele>751</ele>
        <time>2022-05-21 19:24:12</time>
      </trkpt>
      <trkpt lat="42.40036" lon="2.47858">
        <ele>751.2</ele>
        <time>2022-05-21 19:24:13</time>
      </trkpt>
      <trkpt lat="42.40035" lon="2.47856">
        <ele>751.4</ele>
        <time>2022-05-21 19:24:14</time>
      </trkpt>
      <trkpt lat="42.40034" lon="2.47854">
        <ele>751.6</ele>
        <time>2022-05-21 19:24:15</time>
      </trkpt>
      <trkpt lat="42.40032" lon="2.47852">
        <ele>751.8</ele>
        <time>2022-05-21 19:24:16</time>
      </trkpt>
      <trkpt lat="42.40031" lon="2.4785">
        <ele>752</ele>
        <time>2022-05-21 19:24:17</time>
      </trkpt>
      <trkpt lat="42.4003" lon="2.47849">
        <ele>752</ele>
        <time>2022-05-21 19:24:18</time>
      </trkpt>
      <trkpt lat="42.40029" lon="2.47846">
        <ele>752.2</ele>
        <time>2022-05-21 19:24:19</time>
      </trkpt>
      <trkpt lat="42.40028" lon="2.47844">
        <ele>752.4</ele>
        <time>2022-05-21 19:24:20</time>
      </trkpt>
      <trkpt lat="42.40027" lon="2.47842">
        <ele>752.6</ele>
        <time>2022-05-21 19:24:21</time>
      </trkpt>
      <trkpt lat="42.40026" lon="2.4784">
        <ele>752.8</ele>
        <time>2022-05-21 19:24:22</time>
      </trkpt>
      <trkpt lat="42.40025" lon="2.47838">
        <ele>752.8</ele>
        <time>2022-05-21 19:24:23</time>
      </trkpt>
      <trkpt lat="42.40024" lon="2.47836">
        <ele>753</ele>
        <time>2022-05-21 19:24:24</time>
      </trkpt>
      <trkpt lat="42.40023" lon="2.47833">
        <ele>753.2</ele>
        <time>2022-05-21 19:24:25</time>
      </trkpt>
      <trkpt lat="42.40022" lon="2.47831">
        <ele>753.4</ele>
        <time>2022-05-21 19:24:26</time>
      </trkpt>
      <trkpt lat="42.40022" lon="2.47828">
        <ele>753.6</ele>
        <time>2022-05-21 19:24:27</time>
      </trkpt>
      <trkpt lat="42.40021" lon="2.47825">
        <ele>753.8</ele>
        <time>2022-05-21 19:24:28</time>
      </trkpt>
      <trkpt lat="42.40021" lon="2.47823">
        <ele>753.8</ele>
        <time>2022-05-21 19:24:29</time>
      </trkpt>
      <trkpt lat="42.40021" lon="2.47821">
        <ele>754</ele>
        <time>2022-05-21 19:24:30</time>
      </trkpt>
      <trkpt lat="42.4002" lon="2.47819">
        <ele>754.2</ele>
        <time>2022-05-21 19:24:31</time>
      </trkpt>
      <trkpt lat="42.4002" lon="2.47816">
        <ele>754.2</ele>
        <time>2022-05-21 19:24:32</time>
      </trkpt>
      <trkpt lat="42.40019" lon="2.47814">
        <ele>754.4</ele>
        <time>2022-05-21 19:24:33</time>
      </trkpt>
      <trkpt lat="42.40019" lon="2.47812">
        <ele>754.6</ele>
        <time>2022-05-21 19:24:34</time>
      </trkpt>
      <trkpt lat="42.40019" lon="2.4781">
        <ele>754.8</ele>
        <time>2022-05-21 19:24:35</time>
      </trkpt>
      <trkpt lat="42.40018" lon="2.47808">
        <ele>754.8</ele>
        <time>2022-05-21 19:24:36</time>
      </trkpt>
      <trkpt lat="42.40018" lon="2.47805">
        <ele>755</ele>
        <time>2022-05-21 19:24:37</time>
      </trkpt>
      <trkpt lat="42.40018" lon="2.47803">
        <ele>755.2</ele>
        <time>2022-05-21 19:24:38</time>
      </trkpt>
      <trkpt lat="42.40018" lon="2.478">
        <ele>755.4</ele>
        <time>2022-05-21 19:24:39</time>
      </trkpt>
      <trkpt lat="42.40017" lon="2.47798">
        <ele>755.6</ele>
        <time>2022-05-21 19:24:40</time>
      </trkpt>
      <trkpt lat="42.40017" lon="2.47795">
        <ele>755.6</ele>
        <time>2022-05-21 19:24:41</time>
      </trkpt>
      <trkpt lat="42.40016" lon="2.47793">
        <ele>755.8</ele>
        <time>2022-05-21 19:24:42</time>
      </trkpt>
      <trkpt lat="42.40016" lon="2.4779">
        <ele>756</ele>
        <time>2022-05-21 19:24:43</time>
      </trkpt>
      <trkpt lat="42.40016" lon="2.47788">
        <ele>756</ele>
        <time>2022-05-21 19:24:44</time>
      </trkpt>
      <trkpt lat="42.40015" lon="2.47786">
        <ele>756.2</ele>
        <time>2022-05-21 19:24:45</time>
      </trkpt>
      <trkpt lat="42.40014" lon="2.47784">
        <ele>756.4</ele>
        <time>2022-05-21 19:24:46</time>
      </trkpt>
      <trkpt lat="42.40014" lon="2.47782">
        <ele>756.6</ele>
        <time>2022-05-21 19:24:47</time>
      </trkpt>
      <trkpt lat="42.40013" lon="2.4778">
        <ele>756.8</ele>
        <time>2022-05-21 19:24:48</time>
      </trkpt>
      <trkpt lat="42.40013" lon="2.47779">
        <ele>756.8</ele>
        <time>2022-05-21 19:24:49</time>
      </trkpt>
      <trkpt lat="42.40012" lon="2.47775">
        <ele>757</ele>
        <time>2022-05-21 19:24:50</time>
      </trkpt>
      <trkpt lat="42.40011" lon="2.47773">
        <ele>757.2</ele>
        <time>2022-05-21 19:24:51</time>
      </trkpt>
      <trkpt lat="42.4001" lon="2.47771">
        <ele>757.4</ele>
        <time>2022-05-21 19:24:52</time>
      </trkpt>
      <trkpt lat="42.4001" lon="2.47769">
        <ele>757.6</ele>
        <time>2022-05-21 19:24:53</time>
      </trkpt>
      <trkpt lat="42.4001" lon="2.47766">
        <ele>757.8</ele>
        <time>2022-05-21 19:24:54</time>
      </trkpt>
      <trkpt lat="42.40009" lon="2.47764">
        <ele>758</ele>
        <time>2022-05-21 19:24:55</time>
      </trkpt>
      <trkpt lat="42.40008" lon="2.47761">
        <ele>758</ele>
        <time>2022-05-21 19:24:56</time>
      </trkpt>
      <trkpt lat="42.40008" lon="2.47759">
        <ele>758.2</ele>
        <time>2022-05-21 19:24:57</time>
      </trkpt>
      <trkpt lat="42.40007" lon="2.47756">
        <ele>758.4</ele>
        <time>2022-05-21 19:24:58</time>
      </trkpt>
      <trkpt lat="42.40006" lon="2.47754">
        <ele>758.6</ele>
        <time>2022-05-21 19:24:59</time>
      </trkpt>
      <trkpt lat="42.40006" lon="2.47751">
        <ele>758.8</ele>
        <time>2022-05-21 19:25:00</time>
      </trkpt>
      <trkpt lat="42.40005" lon="2.47748">
        <ele>758.8</ele>
        <time>2022-05-21 19:25:01</time>
      </trkpt>
      <trkpt lat="42.40005" lon="2.47745">
        <ele>759</ele>
        <time>2022-05-21 19:25:02</time>
      </trkpt>
      <trkpt lat="42.40004" lon="2.47742">
        <ele>759.2</ele>
        <time>2022-05-21 19:25:03</time>
      </trkpt>
      <trkpt lat="42.40004" lon="2.4774">
        <ele>759.4</ele>
        <time>2022-05-21 19:25:04</time>
      </trkpt>
      <trkpt lat="42.40004" lon="2.47738">
        <ele>759.6</ele>
        <time>2022-05-21 19:25:05</time>
      </trkpt>
      <trkpt lat="42.40004" lon="2.47736">
        <ele>759.6</ele>
        <time>2022-05-21 19:25:06</time>
      </trkpt>
      <trkpt lat="42.40003" lon="2.47733">
        <ele>759.8</ele>
        <time>2022-05-21 19:25:07</time>
      </trkpt>
      <trkpt lat="42.40003" lon="2.47731">
        <ele>760</ele>
        <time>2022-05-21 19:25:08</time>
      </trkpt>
      <trkpt lat="42.40003" lon="2.47728">
        <ele>760.2</ele>
        <time>2022-05-21 19:25:09</time>
      </trkpt>
      <trkpt lat="42.40003" lon="2.47726">
        <ele>760.4</ele>
        <time>2022-05-21 19:25:10</time>
      </trkpt>
      <trkpt lat="42.40002" lon="2.47723">
        <ele>760.6</ele>
        <time>2022-05-21 19:25:11</time>
      </trkpt>
      <trkpt lat="42.40002" lon="2.47721">
        <ele>760.8</ele>
        <time>2022-05-21 19:25:12</time>
      </trkpt>
      <trkpt lat="42.40002" lon="2.47718">
        <ele>760.8</ele>
        <time>2022-05-21 19:25:13</time>
      </trkpt>
      <trkpt lat="42.40002" lon="2.47715">
        <ele>761</ele>
        <time>2022-05-21 19:25:14</time>
      </trkpt>
      <trkpt lat="42.40002" lon="2.47713">
        <ele>761.2</ele>
        <time>2022-05-21 19:25:15</time>
      </trkpt>
      <trkpt lat="42.40001" lon="2.47711">
        <ele>761.4</ele>
        <time>2022-05-21 19:25:16</time>
      </trkpt>
      <trkpt lat="42.40001" lon="2.47708">
        <ele>761.4</ele>
        <time>2022-05-21 19:25:17</time>
      </trkpt>
      <trkpt lat="42.4" lon="2.47705">
        <ele>761.6</ele>
        <time>2022-05-21 19:25:18</time>
      </trkpt>
      <trkpt lat="42.4" lon="2.47703">
        <ele>761.8</ele>
        <time>2022-05-21 19:25:19</time>
      </trkpt>
      <trkpt lat="42.39999" lon="2.47701">
        <ele>762</ele>
        <time>2022-05-21 19:25:20</time>
      </trkpt>
      <trkpt lat="42.39999" lon="2.47698">
        <ele>762.2</ele>
        <time>2022-05-21 19:25:21</time>
      </trkpt>
      <trkpt lat="42.4" lon="2.47696">
        <ele>762.2</ele>
        <time>2022-05-21 19:25:22</time>
      </trkpt>
      <trkpt lat="42.4" lon="2.47693">
        <ele>762.4</ele>
        <time>2022-05-21 19:25:23</time>
      </trkpt>
      <trkpt lat="42.4" lon="2.47691">
        <ele>762.6</ele>
        <time>2022-05-21 19:25:24</time>
      </trkpt>
      <trkpt lat="42.4" lon="2.47688">
        <ele>762.8</ele>
        <time>2022-05-21 19:25:25</time>
      </trkpt>
      <trkpt lat="42.4" lon="2.47685">
        <ele>763</ele>
        <time>2022-05-21 19:25:26</time>
      </trkpt>
      <trkpt lat="42.4" lon="2.47682">
        <ele>763.2</ele>
        <time>2022-05-21 19:25:27</time>
      </trkpt>
      <trkpt lat="42.4" lon="2.4768">
        <ele>763.2</ele>
        <time>2022-05-21 19:25:28</time>
      </trkpt>
      <trkpt lat="42.4" lon="2.47677">
        <ele>763.4</ele>
        <time>2022-05-21 19:25:29</time>
      </trkpt>
      <trkpt lat="42.4" lon="2.47675">
        <ele>763.6</ele>
        <time>2022-05-21 19:25:30</time>
      </trkpt>
      <trkpt lat="42.4" lon="2.47672">
        <ele>763.8</ele>
        <time>2022-05-21 19:25:31</time>
      </trkpt>
      <trkpt lat="42.39999" lon="2.4767">
        <ele>763.8</ele>
        <time>2022-05-21 19:25:32</time>
      </trkpt>
      <trkpt lat="42.39999" lon="2.47667">
        <ele>764</ele>
        <time>2022-05-21 19:25:33</time>
      </trkpt>
      <trkpt lat="42.39999" lon="2.47664">
        <ele>764.2</ele>
        <time>2022-05-21 19:25:34</time>
      </trkpt>
      <trkpt lat="42.39999" lon="2.47661">
        <ele>764.4</ele>
        <time>2022-05-21 19:25:35</time>
      </trkpt>
      <trkpt lat="42.39999" lon="2.47659">
        <ele>764.4</ele>
        <time>2022-05-21 19:25:36</time>
      </trkpt>
      <trkpt lat="42.39999" lon="2.47656">
        <ele>764.6</ele>
        <time>2022-05-21 19:25:37</time>
      </trkpt>
      <trkpt lat="42.39999" lon="2.47654">
        <ele>764.8</ele>
        <time>2022-05-21 19:25:38</time>
      </trkpt>
      <trkpt lat="42.39999" lon="2.47651">
        <ele>764.8</ele>
        <time>2022-05-21 19:25:39</time>
      </trkpt>
      <trkpt lat="42.39998" lon="2.47648">
        <ele>765</ele>
        <time>2022-05-21 19:25:40</time>
      </trkpt>
      <trkpt lat="42.39998" lon="2.47645">
        <ele>765</ele>
        <time>2022-05-21 19:25:41</time>
      </trkpt>
      <trkpt lat="42.39998" lon="2.47643">
        <ele>765.2</ele>
        <time>2022-05-21 19:25:42</time>
      </trkpt>
      <trkpt lat="42.39998" lon="2.4764">
        <ele>765.4</ele>
        <time>2022-05-21 19:25:43</time>
      </trkpt>
      <trkpt lat="42.39997" lon="2.47638">
        <ele>765.4</ele>
        <time>2022-05-21 19:25:44</time>
      </trkpt>
      <trkpt lat="42.39997" lon="2.47635">
        <ele>765.6</ele>
        <time>2022-05-21 19:25:45</time>
      </trkpt>
      <trkpt lat="42.39996" lon="2.47633">
        <ele>765.6</ele>
        <time>2022-05-21 19:25:46</time>
      </trkpt>
      <trkpt lat="42.39995" lon="2.4763">
        <ele>765.8</ele>
        <time>2022-05-21 19:25:47</time>
      </trkpt>
      <trkpt lat="42.39995" lon="2.47628">
        <ele>765.8</ele>
        <time>2022-05-21 19:25:48</time>
      </trkpt>
      <trkpt lat="42.39994" lon="2.47625">
        <ele>766</ele>
        <time>2022-05-21 19:25:49</time>
      </trkpt>
      <trkpt lat="42.39993" lon="2.47623">
        <ele>766.2</ele>
        <time>2022-05-21 19:25:50</time>
      </trkpt>
      <trkpt lat="42.39993" lon="2.4762">
        <ele>766.2</ele>
        <time>2022-05-21 19:25:51</time>
      </trkpt>
      <trkpt lat="42.39993" lon="2.47617">
        <ele>766.2</ele>
        <time>2022-05-21 19:25:52</time>
      </trkpt>
      <trkpt lat="42.39992" lon="2.47614">
        <ele>766.4</ele>
        <time>2022-05-21 19:25:53</time>
      </trkpt>
      <trkpt lat="42.39991" lon="2.47612">
        <ele>766.4</ele>
        <time>2022-05-21 19:25:54</time>
      </trkpt>
      <trkpt lat="42.3999" lon="2.4761">
        <ele>766.6</ele>
        <time>2022-05-21 19:25:55</time>
      </trkpt>
      <trkpt lat="42.3999" lon="2.47607">
        <ele>766.8</ele>
        <time>2022-05-21 19:25:56</time>
      </trkpt>
      <trkpt lat="42.39989" lon="2.47605">
        <ele>766.8</ele>
        <time>2022-05-21 19:25:57</time>
      </trkpt>
      <trkpt lat="42.39988" lon="2.47602">
        <ele>767</ele>
        <time>2022-05-21 19:25:58</time>
      </trkpt>
      <trkpt lat="42.39987" lon="2.476">
        <ele>767</ele>
        <time>2022-05-21 19:25:59</time>
      </trkpt>
      <trkpt lat="42.39985" lon="2.47597">
        <ele>767.2</ele>
        <time>2022-05-21 19:26:00</time>
      </trkpt>
      <trkpt lat="42.39984" lon="2.47594">
        <ele>767.2</ele>
        <time>2022-05-21 19:26:01</time>
      </trkpt>
      <trkpt lat="42.39983" lon="2.47591">
        <ele>767.4</ele>
        <time>2022-05-21 19:26:02</time>
      </trkpt>
      <trkpt lat="42.39982" lon="2.47588">
        <ele>767.4</ele>
        <time>2022-05-21 19:26:03</time>
      </trkpt>
      <trkpt lat="42.39981" lon="2.47585">
        <ele>767.6</ele>
        <time>2022-05-21 19:26:04</time>
      </trkpt>
      <trkpt lat="42.3998" lon="2.47582">
        <ele>767.8</ele>
        <time>2022-05-21 19:26:05</time>
      </trkpt>
      <trkpt lat="42.3998" lon="2.47579">
        <ele>767.8</ele>
        <time>2022-05-21 19:26:06</time>
      </trkpt>
      <trkpt lat="42.39979" lon="2.47576">
        <ele>768</ele>
        <time>2022-05-21 19:26:07</time>
      </trkpt>
      <trkpt lat="42.39977" lon="2.47573">
        <ele>768.2</ele>
        <time>2022-05-21 19:26:08</time>
      </trkpt>
      <trkpt lat="42.39976" lon="2.4757">
        <ele>768.2</ele>
        <time>2022-05-21 19:26:09</time>
      </trkpt>
      <trkpt lat="42.39975" lon="2.47567">
        <ele>768.4</ele>
        <time>2022-05-21 19:26:10</time>
      </trkpt>
      <trkpt lat="42.39974" lon="2.47564">
        <ele>768.4</ele>
        <time>2022-05-21 19:26:11</time>
      </trkpt>
      <trkpt lat="42.39973" lon="2.47561">
        <ele>768.6</ele>
        <time>2022-05-21 19:26:12</time>
      </trkpt>
      <trkpt lat="42.39973" lon="2.47558">
        <ele>768.8</ele>
        <time>2022-05-21 19:26:13</time>
      </trkpt>
      <trkpt lat="42.39972" lon="2.47555">
        <ele>768.8</ele>
        <time>2022-05-21 19:26:14</time>
      </trkpt>
      <trkpt lat="42.39971" lon="2.47552">
        <ele>769</ele>
        <time>2022-05-21 19:26:15</time>
      </trkpt>
      <trkpt lat="42.39969" lon="2.4755">
        <ele>769</ele>
        <time>2022-05-21 19:26:16</time>
      </trkpt>
      <trkpt lat="42.39968" lon="2.47547">
        <ele>769.2</ele>
        <time>2022-05-21 19:26:17</time>
      </trkpt>
      <trkpt lat="42.39966" lon="2.47545">
        <ele>769.2</ele>
        <time>2022-05-21 19:26:18</time>
      </trkpt>
      <trkpt lat="42.39964" lon="2.47542">
        <ele>769.4</ele>
        <time>2022-05-21 19:26:19</time>
      </trkpt>
      <trkpt lat="42.39962" lon="2.47539">
        <ele>769.4</ele>
        <time>2022-05-21 19:26:20</time>
      </trkpt>
      <trkpt lat="42.39961" lon="2.47537">
        <ele>769.4</ele>
        <time>2022-05-21 19:26:21</time>
      </trkpt>
      <trkpt lat="42.39959" lon="2.47534">
        <ele>769.6</ele>
        <time>2022-05-21 19:26:22</time>
      </trkpt>
      <trkpt lat="42.39957" lon="2.47531">
        <ele>769.6</ele>
        <time>2022-05-21 19:26:23</time>
      </trkpt>
      <trkpt lat="42.39955" lon="2.47529">
        <ele>769.6</ele>
        <time>2022-05-21 19:26:24</time>
      </trkpt>
      <trkpt lat="42.39953" lon="2.47526">
        <ele>769.8</ele>
        <time>2022-05-21 19:26:25</time>
      </trkpt>
      <trkpt lat="42.39952" lon="2.47522">
        <ele>769.8</ele>
        <time>2022-05-21 19:26:26</time>
      </trkpt>
      <trkpt lat="42.3995" lon="2.47519">
        <ele>769.8</ele>
        <time>2022-05-21 19:26:27</time>
      </trkpt>
      <trkpt lat="42.39949" lon="2.47516">
        <ele>770</ele>
        <time>2022-05-21 19:26:28</time>
      </trkpt>
      <trkpt lat="42.39947" lon="2.47513">
        <ele>770</ele>
        <time>2022-05-21 19:26:29</time>
      </trkpt>
      <trkpt lat="42.39945" lon="2.47511">
        <ele>770</ele>
        <time>2022-05-21 19:26:30</time>
      </trkpt>
      <trkpt lat="42.39944" lon="2.47508">
        <ele>770.2</ele>
        <time>2022-05-21 19:26:31</time>
      </trkpt>
      <trkpt lat="42.39942" lon="2.47506">
        <ele>770.2</ele>
        <time>2022-05-21 19:26:32</time>
      </trkpt>
      <trkpt lat="42.39941" lon="2.47504">
        <ele>770.4</ele>
        <time>2022-05-21 19:26:33</time>
      </trkpt>
      <trkpt lat="42.39939" lon="2.47502">
        <ele>770.4</ele>
        <time>2022-05-21 19:26:34</time>
      </trkpt>
      <trkpt lat="42.39938" lon="2.47499">
        <ele>770.6</ele>
        <time>2022-05-21 19:26:35</time>
      </trkpt>
      <trkpt lat="42.39937" lon="2.47497">
        <ele>770.6</ele>
        <time>2022-05-21 19:26:36</time>
      </trkpt>
      <trkpt lat="42.39935" lon="2.47495">
        <ele>770.6</ele>
        <time>2022-05-21 19:26:37</time>
      </trkpt>
      <trkpt lat="42.39933" lon="2.47494">
        <ele>770.8</ele>
        <time>2022-05-21 19:26:38</time>
      </trkpt>
      <trkpt lat="42.39931" lon="2.47491">
        <ele>770.8</ele>
        <time>2022-05-21 19:26:39</time>
      </trkpt>
      <trkpt lat="42.39929" lon="2.47489">
        <ele>771</ele>
        <time>2022-05-21 19:26:40</time>
      </trkpt>
      <trkpt lat="42.39927" lon="2.47487">
        <ele>771</ele>
        <time>2022-05-21 19:26:41</time>
      </trkpt>
      <trkpt lat="42.39926" lon="2.47484">
        <ele>771.2</ele>
        <time>2022-05-21 19:26:42</time>
      </trkpt>
      <trkpt lat="42.39924" lon="2.47482">
        <ele>771.2</ele>
        <time>2022-05-21 19:26:43</time>
      </trkpt>
      <trkpt lat="42.39923" lon="2.47479">
        <ele>771.4</ele>
        <time>2022-05-21 19:26:44</time>
      </trkpt>
      <trkpt lat="42.39921" lon="2.47476">
        <ele>771.6</ele>
        <time>2022-05-21 19:26:45</time>
      </trkpt>
      <trkpt lat="42.39919" lon="2.47473">
        <ele>771.6</ele>
        <time>2022-05-21 19:26:46</time>
      </trkpt>
      <trkpt lat="42.39917" lon="2.4747">
        <ele>771.8</ele>
        <time>2022-05-21 19:26:47</time>
      </trkpt>
      <trkpt lat="42.39916" lon="2.47467">
        <ele>771.8</ele>
        <time>2022-05-21 19:26:48</time>
      </trkpt>
      <trkpt lat="42.39914" lon="2.47465">
        <ele>772</ele>
        <time>2022-05-21 19:26:49</time>
      </trkpt>
      <trkpt lat="42.39913" lon="2.47462">
        <ele>772</ele>
        <time>2022-05-21 19:26:50</time>
      </trkpt>
      <trkpt lat="42.39911" lon="2.47459">
        <ele>772.2</ele>
        <time>2022-05-21 19:26:51</time>
      </trkpt>
      <trkpt lat="42.3991" lon="2.47457">
        <ele>772.2</ele>
        <time>2022-05-21 19:26:52</time>
      </trkpt>
      <trkpt lat="42.39908" lon="2.47454">
        <ele>772.4</ele>
        <time>2022-05-21 19:26:53</time>
      </trkpt>
      <trkpt lat="42.39906" lon="2.47451">
        <ele>772.4</ele>
        <time>2022-05-21 19:26:54</time>
      </trkpt>
      <trkpt lat="42.39905" lon="2.47448">
        <ele>772.6</ele>
        <time>2022-05-21 19:26:55</time>
      </trkpt>
      <trkpt lat="42.39903" lon="2.47445">
        <ele>772.8</ele>
        <time>2022-05-21 19:26:56</time>
      </trkpt>
      <trkpt lat="42.39902" lon="2.47443">
        <ele>772.8</ele>
        <time>2022-05-21 19:26:57</time>
      </trkpt>
      <trkpt lat="42.39901" lon="2.47441">
        <ele>773</ele>
        <time>2022-05-21 19:26:58</time>
      </trkpt>
      <trkpt lat="42.39899" lon="2.47438">
        <ele>773</ele>
        <time>2022-05-21 19:26:59</time>
      </trkpt>
      <trkpt lat="42.39897" lon="2.47436">
        <ele>773.2</ele>
        <time>2022-05-21 19:27:00</time>
      </trkpt>
      <trkpt lat="42.39896" lon="2.47435">
        <ele>773.2</ele>
        <time>2022-05-21 19:27:01</time>
      </trkpt>
      <trkpt lat="42.39894" lon="2.47432">
        <ele>773.4</ele>
        <time>2022-05-21 19:27:02</time>
      </trkpt>
      <trkpt lat="42.39893" lon="2.4743">
        <ele>773.4</ele>
        <time>2022-05-21 19:27:03</time>
      </trkpt>
      <trkpt lat="42.39891" lon="2.47428">
        <ele>773.6</ele>
        <time>2022-05-21 19:27:04</time>
      </trkpt>
      <trkpt lat="42.3989" lon="2.47424">
        <ele>773.8</ele>
        <time>2022-05-21 19:27:05</time>
      </trkpt>
      <trkpt lat="42.39888" lon="2.47421">
        <ele>773.8</ele>
        <time>2022-05-21 19:27:06</time>
      </trkpt>
      <trkpt lat="42.39886" lon="2.47419">
        <ele>774</ele>
        <time>2022-05-21 19:27:07</time>
      </trkpt>
      <trkpt lat="42.39884" lon="2.47416">
        <ele>774.2</ele>
        <time>2022-05-21 19:27:08</time>
      </trkpt>
      <trkpt lat="42.39883" lon="2.47414">
        <ele>774.2</ele>
        <time>2022-05-21 19:27:09</time>
      </trkpt>
      <trkpt lat="42.39881" lon="2.47411">
        <ele>774.4</ele>
        <time>2022-05-21 19:27:10</time>
      </trkpt>
      <trkpt lat="42.3988" lon="2.47408">
        <ele>774.4</ele>
        <time>2022-05-21 19:27:11</time>
      </trkpt>
      <trkpt lat="42.39878" lon="2.47405">
        <ele>774.6</ele>
        <time>2022-05-21 19:27:12</time>
      </trkpt>
      <trkpt lat="42.39876" lon="2.47402">
        <ele>774.6</ele>
        <time>2022-05-21 19:27:13</time>
      </trkpt>
      <trkpt lat="42.39875" lon="2.474">
        <ele>774.8</ele>
        <time>2022-05-21 19:27:14</time>
      </trkpt>
      <trkpt lat="42.39873" lon="2.47397">
        <ele>774.8</ele>
        <time>2022-05-21 19:27:15</time>
      </trkpt>
      <trkpt lat="42.3987" lon="2.47394">
        <ele>775</ele>
        <time>2022-05-21 19:27:16</time>
      </trkpt>
      <trkpt lat="42.39868" lon="2.47391">
        <ele>775</ele>
        <time>2022-05-21 19:27:17</time>
      </trkpt>
      <trkpt lat="42.39866" lon="2.47387">
        <ele>775.2</ele>
        <time>2022-05-21 19:27:18</time>
      </trkpt>
      <trkpt lat="42.39864" lon="2.47384">
        <ele>775.2</ele>
        <time>2022-05-21 19:27:19</time>
      </trkpt>
      <trkpt lat="42.39862" lon="2.47381">
        <ele>775.4</ele>
        <time>2022-05-21 19:27:20</time>
      </trkpt>
      <trkpt lat="42.39861" lon="2.47378">
        <ele>775.6</ele>
        <time>2022-05-21 19:27:21</time>
      </trkpt>
      <trkpt lat="42.39859" lon="2.47375">
        <ele>775.6</ele>
        <time>2022-05-21 19:27:22</time>
      </trkpt>
      <trkpt lat="42.39857" lon="2.47373">
        <ele>775.8</ele>
        <time>2022-05-21 19:27:23</time>
      </trkpt>
      <trkpt lat="42.39856" lon="2.4737">
        <ele>775.8</ele>
        <time>2022-05-21 19:27:24</time>
      </trkpt>
      <trkpt lat="42.39854" lon="2.47367">
        <ele>776</ele>
        <time>2022-05-21 19:27:25</time>
      </trkpt>
      <trkpt lat="42.39852" lon="2.47364">
        <ele>776</ele>
        <time>2022-05-21 19:27:26</time>
      </trkpt>
      <trkpt lat="42.3985" lon="2.47362">
        <ele>776.2</ele>
        <time>2022-05-21 19:27:27</time>
      </trkpt>
      <trkpt lat="42.39848" lon="2.47359">
        <ele>776.2</ele>
        <time>2022-05-21 19:27:28</time>
      </trkpt>
      <trkpt lat="42.39846" lon="2.47357">
        <ele>776.4</ele>
        <time>2022-05-21 19:27:29</time>
      </trkpt>
      <trkpt lat="42.39844" lon="2.47355">
        <ele>776.6</ele>
        <time>2022-05-21 19:27:30</time>
      </trkpt>
      <trkpt lat="42.39842" lon="2.47352">
        <ele>776.6</ele>
        <time>2022-05-21 19:27:31</time>
      </trkpt>
      <trkpt lat="42.3984" lon="2.4735">
        <ele>776.8</ele>
        <time>2022-05-21 19:27:32</time>
      </trkpt>
      <trkpt lat="42.39839" lon="2.47347">
        <ele>776.8</ele>
        <time>2022-05-21 19:27:33</time>
      </trkpt>
      <trkpt lat="42.39837" lon="2.47345">
        <ele>777</ele>
        <time>2022-05-21 19:27:34</time>
      </trkpt>
      <trkpt lat="42.39835" lon="2.47342">
        <ele>777</ele>
        <time>2022-05-21 19:27:35</time>
      </trkpt>
      <trkpt lat="42.39834" lon="2.4734">
        <ele>777.2</ele>
        <time>2022-05-21 19:27:36</time>
      </trkpt>
      <trkpt lat="42.39832" lon="2.47337">
        <ele>777.4</ele>
        <time>2022-05-21 19:27:37</time>
      </trkpt>
      <trkpt lat="42.39831" lon="2.47334">
        <ele>777.4</ele>
        <time>2022-05-21 19:27:38</time>
      </trkpt>
      <trkpt lat="42.39829" lon="2.47332">
        <ele>777.6</ele>
        <time>2022-05-21 19:27:39</time>
      </trkpt>
      <trkpt lat="42.39828" lon="2.47329">
        <ele>777.6</ele>
        <time>2022-05-21 19:27:40</time>
      </trkpt>
      <trkpt lat="42.39826" lon="2.47327">
        <ele>777.8</ele>
        <time>2022-05-21 19:27:41</time>
      </trkpt>
      <trkpt lat="42.39825" lon="2.47324">
        <ele>778</ele>
        <time>2022-05-21 19:27:42</time>
      </trkpt>
      <trkpt lat="42.39823" lon="2.47322">
        <ele>778</ele>
        <time>2022-05-21 19:27:43</time>
      </trkpt>
      <trkpt lat="42.39821" lon="2.47319">
        <ele>778.2</ele>
        <time>2022-05-21 19:27:44</time>
      </trkpt>
      <trkpt lat="42.39819" lon="2.47317">
        <ele>778.2</ele>
        <time>2022-05-21 19:27:45</time>
      </trkpt>
      <trkpt lat="42.39818" lon="2.47315">
        <ele>778.4</ele>
        <time>2022-05-21 19:27:46</time>
      </trkpt>
      <trkpt lat="42.39816" lon="2.47312">
        <ele>778.6</ele>
        <time>2022-05-21 19:27:47</time>
      </trkpt>
      <trkpt lat="42.39815" lon="2.4731">
        <ele>778.6</ele>
        <time>2022-05-21 19:27:48</time>
      </trkpt>
      <trkpt lat="42.39813" lon="2.47308">
        <ele>778.8</ele>
        <time>2022-05-21 19:27:49</time>
      </trkpt>
      <trkpt lat="42.39811" lon="2.47306">
        <ele>778.8</ele>
        <time>2022-05-21 19:27:50</time>
      </trkpt>
      <trkpt lat="42.39809" lon="2.47305">
        <ele>779</ele>
        <time>2022-05-21 19:27:51</time>
      </trkpt>
      <trkpt lat="42.39807" lon="2.47304">
        <ele>779.2</ele>
        <time>2022-05-21 19:27:52</time>
      </trkpt>
      <trkpt lat="42.39804" lon="2.47303">
        <ele>779.2</ele>
        <time>2022-05-21 19:27:53</time>
      </trkpt>
      <trkpt lat="42.39801" lon="2.47303">
        <ele>779.4</ele>
        <time>2022-05-21 19:27:54</time>
      </trkpt>
      <trkpt lat="42.39798" lon="2.47303">
        <ele>779.6</ele>
        <time>2022-05-21 19:27:55</time>
      </trkpt>
      <trkpt lat="42.39795" lon="2.47303">
        <ele>779.6</ele>
        <time>2022-05-21 19:27:56</time>
      </trkpt>
      <trkpt lat="42.39792" lon="2.47303">
        <ele>779.8</ele>
        <time>2022-05-21 19:27:57</time>
      </trkpt>
      <trkpt lat="42.39789" lon="2.47303">
        <ele>780</ele>
        <time>2022-05-21 19:27:58</time>
      </trkpt>
      <trkpt lat="42.39786" lon="2.47303">
        <ele>780</ele>
        <time>2022-05-21 19:27:59</time>
      </trkpt>
      <trkpt lat="42.39784" lon="2.47304">
        <ele>780.2</ele>
        <time>2022-05-21 19:28:00</time>
      </trkpt>
      <trkpt lat="42.39782" lon="2.47305">
        <ele>780.4</ele>
        <time>2022-05-21 19:28:01</time>
      </trkpt>
      <trkpt lat="42.39779" lon="2.47306">
        <ele>780.4</ele>
        <time>2022-05-21 19:28:02</time>
      </trkpt>
      <trkpt lat="42.39777" lon="2.47306">
        <ele>780.6</ele>
        <time>2022-05-21 19:28:03</time>
      </trkpt>
      <trkpt lat="42.39775" lon="2.47306">
        <ele>780.8</ele>
        <time>2022-05-21 19:28:04</time>
      </trkpt>
      <trkpt lat="42.39773" lon="2.47306">
        <ele>780.8</ele>
        <time>2022-05-21 19:28:05</time>
      </trkpt>
      <trkpt lat="42.39771" lon="2.47307">
        <ele>781</ele>
        <time>2022-05-21 19:28:06</time>
      </trkpt>
      <trkpt lat="42.39769" lon="2.47307">
        <ele>781.2</ele>
        <time>2022-05-21 19:28:07</time>
      </trkpt>
      <trkpt lat="42.39767" lon="2.47308">
        <ele>781.2</ele>
        <time>2022-05-21 19:28:08</time>
      </trkpt>
      <trkpt lat="42.39765" lon="2.47309">
        <ele>781.4</ele>
        <time>2022-05-21 19:28:09</time>
      </trkpt>
      <trkpt lat="42.39763" lon="2.4731">
        <ele>781.6</ele>
        <time>2022-05-21 19:28:10</time>
      </trkpt>
      <trkpt lat="42.39761" lon="2.47311">
        <ele>781.6</ele>
        <time>2022-05-21 19:28:11</time>
      </trkpt>
      <trkpt lat="42.3976" lon="2.47312">
        <ele>781.8</ele>
        <time>2022-05-21 19:28:12</time>
      </trkpt>
      <trkpt lat="42.39758" lon="2.47313">
        <ele>782</ele>
        <time>2022-05-21 19:28:13</time>
      </trkpt>
      <trkpt lat="42.39756" lon="2.47315">
        <ele>782</ele>
        <time>2022-05-21 19:28:14</time>
      </trkpt>
      <trkpt lat="42.39754" lon="2.47316">
        <ele>782.2</ele>
        <time>2022-05-21 19:28:15</time>
      </trkpt>
      <trkpt lat="42.39752" lon="2.47318">
        <ele>782.4</ele>
        <time>2022-05-21 19:28:16</time>
      </trkpt>
      <trkpt lat="42.39751" lon="2.47319">
        <ele>782.6</ele>
        <time>2022-05-21 19:28:17</time>
      </trkpt>
      <trkpt lat="42.39749" lon="2.4732">
        <ele>782.6</ele>
        <time>2022-05-21 19:28:18</time>
      </trkpt>
      <trkpt lat="42.39747" lon="2.47321">
        <ele>782.8</ele>
        <time>2022-05-21 19:28:19</time>
      </trkpt>
      <trkpt lat="42.39745" lon="2.47321">
        <ele>783</ele>
        <time>2022-05-21 19:28:20</time>
      </trkpt>
      <trkpt lat="42.39742" lon="2.47321">
        <ele>783</ele>
        <time>2022-05-21 19:28:21</time>
      </trkpt>
      <trkpt lat="42.3974" lon="2.47321">
        <ele>783.2</ele>
        <time>2022-05-21 19:28:22</time>
      </trkpt>
      <trkpt lat="42.39738" lon="2.47321">
        <ele>783.4</ele>
        <time>2022-05-21 19:28:23</time>
      </trkpt>
      <trkpt lat="42.39735" lon="2.47322">
        <ele>783.6</ele>
        <time>2022-05-21 19:28:24</time>
      </trkpt>
      <trkpt lat="42.39732" lon="2.47324">
        <ele>783.8</ele>
        <time>2022-05-21 19:28:25</time>
      </trkpt>
      <trkpt lat="42.3973" lon="2.47325">
        <ele>783.8</ele>
        <time>2022-05-21 19:28:26</time>
      </trkpt>
      <trkpt lat="42.39728" lon="2.47327">
        <ele>784</ele>
        <time>2022-05-21 19:28:27</time>
      </trkpt>
      <trkpt lat="42.39726" lon="2.47328">
        <ele>784.2</ele>
        <time>2022-05-21 19:28:28</time>
      </trkpt>
      <trkpt lat="42.39724" lon="2.47329">
        <ele>784.4</ele>
        <time>2022-05-21 19:28:29</time>
      </trkpt>
      <trkpt lat="42.39722" lon="2.47331">
        <ele>784.6</ele>
        <time>2022-05-21 19:28:30</time>
      </trkpt>
      <trkpt lat="42.39719" lon="2.47332">
        <ele>784.8</ele>
        <time>2022-05-21 19:28:31</time>
      </trkpt>
      <trkpt lat="42.39717" lon="2.47333">
        <ele>784.8</ele>
        <time>2022-05-21 19:28:32</time>
      </trkpt>
      <trkpt lat="42.39715" lon="2.47333">
        <ele>785</ele>
        <time>2022-05-21 19:28:33</time>
      </trkpt>
      <trkpt lat="42.39712" lon="2.47334">
        <ele>785.2</ele>
        <time>2022-05-21 19:28:34</time>
      </trkpt>
      <trkpt lat="42.3971" lon="2.47335">
        <ele>785.4</ele>
        <time>2022-05-21 19:28:35</time>
      </trkpt>
      <trkpt lat="42.39708" lon="2.47336">
        <ele>785.6</ele>
        <time>2022-05-21 19:28:36</time>
      </trkpt>
      <trkpt lat="42.39706" lon="2.47338">
        <ele>785.8</ele>
        <time>2022-05-21 19:28:37</time>
      </trkpt>
      <trkpt lat="42.39704" lon="2.4734">
        <ele>786</ele>
        <time>2022-05-21 19:28:38</time>
      </trkpt>
      <trkpt lat="42.39702" lon="2.47342">
        <ele>786.2</ele>
        <time>2022-05-21 19:28:39</time>
      </trkpt>
      <trkpt lat="42.397" lon="2.47343">
        <ele>786.4</ele>
        <time>2022-05-21 19:28:40</time>
      </trkpt>
      <trkpt lat="42.39698" lon="2.47344">
        <ele>786.4</ele>
        <time>2022-05-21 19:28:41</time>
      </trkpt>
      <trkpt lat="42.39696" lon="2.47345">
        <ele>786.6</ele>
        <time>2022-05-21 19:28:42</time>
      </trkpt>
      <trkpt lat="42.39694" lon="2.47346">
        <ele>786.8</ele>
        <time>2022-05-21 19:28:43</time>
      </trkpt>
      <trkpt lat="42.39693" lon="2.47347">
        <ele>787</ele>
        <time>2022-05-21 19:28:44</time>
      </trkpt>
      <trkpt lat="42.39691" lon="2.47348">
        <ele>787.2</ele>
        <time>2022-05-21 19:28:45</time>
      </trkpt>
      <trkpt lat="42.39689" lon="2.47349">
        <ele>787.4</ele>
        <time>2022-05-21 19:28:46</time>
      </trkpt>
      <trkpt lat="42.39687" lon="2.47349">
        <ele>787.4</ele>
        <time>2022-05-21 19:28:47</time>
      </trkpt>
      <trkpt lat="42.39685" lon="2.47349">
        <ele>787.6</ele>
        <time>2022-05-21 19:28:48</time>
      </trkpt>
      <trkpt lat="42.39683" lon="2.47349">
        <ele>787.8</ele>
        <time>2022-05-21 19:28:49</time>
      </trkpt>
      <trkpt lat="42.39681" lon="2.47349">
        <ele>788</ele>
        <time>2022-05-21 19:28:50</time>
      </trkpt>
      <trkpt lat="42.39679" lon="2.4735">
        <ele>788.2</ele>
        <time>2022-05-21 19:28:51</time>
      </trkpt>
      <trkpt lat="42.39677" lon="2.47351">
        <ele>788.2</ele>
        <time>2022-05-21 19:28:52</time>
      </trkpt>
      <trkpt lat="42.39676" lon="2.47352">
        <ele>788.4</ele>
        <time>2022-05-21 19:28:53</time>
      </trkpt>
      <trkpt lat="42.39674" lon="2.47353">
        <ele>788.6</ele>
        <time>2022-05-21 19:28:54</time>
      </trkpt>
      <trkpt lat="42.39673" lon="2.47354">
        <ele>788.8</ele>
        <time>2022-05-21 19:28:55</time>
      </trkpt>
      <trkpt lat="42.3967" lon="2.47355">
        <ele>789</ele>
        <time>2022-05-21 19:28:56</time>
      </trkpt>
      <trkpt lat="42.39669" lon="2.47356">
        <ele>789</ele>
        <time>2022-05-21 19:28:57</time>
      </trkpt>
      <trkpt lat="42.39667" lon="2.47358">
        <ele>789.2</ele>
        <time>2022-05-21 19:28:58</time>
      </trkpt>
      <trkpt lat="42.39665" lon="2.47358">
        <ele>789.4</ele>
        <time>2022-05-21 19:28:59</time>
      </trkpt>
      <trkpt lat="42.39663" lon="2.47359">
        <ele>789.6</ele>
        <time>2022-05-21 19:29:00</time>
      </trkpt>
      <trkpt lat="42.39662" lon="2.4736">
        <ele>789.8</ele>
        <time>2022-05-21 19:29:01</time>
      </trkpt>
      <trkpt lat="42.3966" lon="2.47361">
        <ele>790</ele>
        <time>2022-05-21 19:29:02</time>
      </trkpt>
      <trkpt lat="42.39658" lon="2.47362">
        <ele>790</ele>
        <time>2022-05-21 19:29:03</time>
      </trkpt>
      <trkpt lat="42.39657" lon="2.47363">
        <ele>790.2</ele>
        <time>2022-05-21 19:29:04</time>
      </trkpt>
      <trkpt lat="42.39655" lon="2.47363">
        <ele>790.4</ele>
        <time>2022-05-21 19:29:05</time>
      </trkpt>
      <trkpt lat="42.39653" lon="2.47364">
        <ele>790.6</ele>
        <time>2022-05-21 19:29:06</time>
      </trkpt>
      <trkpt lat="42.39652" lon="2.47365">
        <ele>790.8</ele>
        <time>2022-05-21 19:29:07</time>
      </trkpt>
      <trkpt lat="42.3965" lon="2.47366">
        <ele>791</ele>
        <time>2022-05-21 19:29:08</time>
      </trkpt>
      <trkpt lat="42.39649" lon="2.47367">
        <ele>791.2</ele>
        <time>2022-05-21 19:29:09</time>
      </trkpt>
      <trkpt lat="42.39647" lon="2.47368">
        <ele>791.2</ele>
        <time>2022-05-21 19:29:10</time>
      </trkpt>
      <trkpt lat="42.39646" lon="2.47369">
        <ele>791.4</ele>
        <time>2022-05-21 19:29:11</time>
      </trkpt>
      <trkpt lat="42.39645" lon="2.4737">
        <ele>791.6</ele>
        <time>2022-05-21 19:29:12</time>
      </trkpt>
      <trkpt lat="42.39643" lon="2.47371">
        <ele>791.8</ele>
        <time>2022-05-21 19:29:13</time>
      </trkpt>
      <trkpt lat="42.39642" lon="2.47371">
        <ele>792</ele>
        <time>2022-05-21 19:29:14</time>
      </trkpt>
      <trkpt lat="42.3964" lon="2.47372">
        <ele>792.2</ele>
        <time>2022-05-21 19:29:15</time>
      </trkpt>
      <trkpt lat="42.39638" lon="2.47372">
        <ele>792.4</ele>
        <time>2022-05-21 19:29:16</time>
      </trkpt>
      <trkpt lat="42.39636" lon="2.47373">
        <ele>792.6</ele>
        <time>2022-05-21 19:29:17</time>
      </trkpt>
      <trkpt lat="42.39635" lon="2.47373">
        <ele>792.8</ele>
        <time>2022-05-21 19:29:18</time>
      </trkpt>
      <trkpt lat="42.39633" lon="2.47374">
        <ele>793</ele>
        <time>2022-05-21 19:29:19</time>
      </trkpt>
      <trkpt lat="42.39631" lon="2.47375">
        <ele>793.2</ele>
        <time>2022-05-21 19:29:20</time>
      </trkpt>
      <trkpt lat="42.39629" lon="2.47375">
        <ele>793.4</ele>
        <time>2022-05-21 19:29:21</time>
      </trkpt>
      <trkpt lat="42.39627" lon="2.47376">
        <ele>793.4</ele>
        <time>2022-05-21 19:29:22</time>
      </trkpt>
      <trkpt lat="42.39626" lon="2.47376">
        <ele>793.6</ele>
        <time>2022-05-21 19:29:23</time>
      </trkpt>
      <trkpt lat="42.39624" lon="2.47377">
        <ele>793.8</ele>
        <time>2022-05-21 19:29:24</time>
      </trkpt>
      <trkpt lat="42.39622" lon="2.47378">
        <ele>794</ele>
        <time>2022-05-21 19:29:25</time>
      </trkpt>
      <trkpt lat="42.3962" lon="2.47379">
        <ele>794.2</ele>
        <time>2022-05-21 19:29:26</time>
      </trkpt>
      <trkpt lat="42.39618" lon="2.4738">
        <ele>794.4</ele>
        <time>2022-05-21 19:29:27</time>
      </trkpt>
      <trkpt lat="42.39616" lon="2.47382">
        <ele>794.6</ele>
        <time>2022-05-21 19:29:28</time>
      </trkpt>
      <trkpt lat="42.39614" lon="2.47383">
        <ele>794.8</ele>
        <time>2022-05-21 19:29:29</time>
      </trkpt>
      <trkpt lat="42.39612" lon="2.47383">
        <ele>795</ele>
        <time>2022-05-21 19:29:30</time>
      </trkpt>
      <trkpt lat="42.39611" lon="2.47384">
        <ele>795.2</ele>
        <time>2022-05-21 19:29:31</time>
      </trkpt>
      <trkpt lat="42.39609" lon="2.47384">
        <ele>795.2</ele>
        <time>2022-05-21 19:29:32</time>
      </trkpt>
      <trkpt lat="42.39607" lon="2.47384">
        <ele>795.4</ele>
        <time>2022-05-21 19:29:33</time>
      </trkpt>
      <trkpt lat="42.39605" lon="2.47384">
        <ele>795.6</ele>
        <time>2022-05-21 19:29:34</time>
      </trkpt>
      <trkpt lat="42.39603" lon="2.47384">
        <ele>795.8</ele>
        <time>2022-05-21 19:29:35</time>
      </trkpt>
      <trkpt lat="42.39601" lon="2.47384">
        <ele>796</ele>
        <time>2022-05-21 19:29:36</time>
      </trkpt>
      <trkpt lat="42.39599" lon="2.47384">
        <ele>796.2</ele>
        <time>2022-05-21 19:29:37</time>
      </trkpt>
      <trkpt lat="42.39597" lon="2.47383">
        <ele>796.2</ele>
        <time>2022-05-21 19:29:38</time>
      </trkpt>
      <trkpt lat="42.39595" lon="2.47383">
        <ele>796.4</ele>
        <time>2022-05-21 19:29:39</time>
      </trkpt>
      <trkpt lat="42.39593" lon="2.47384">
        <ele>796.6</ele>
        <time>2022-05-21 19:29:40</time>
      </trkpt>
      <trkpt lat="42.39591" lon="2.47384">
        <ele>796.8</ele>
        <time>2022-05-21 19:29:41</time>
      </trkpt>
      <trkpt lat="42.39589" lon="2.47384">
        <ele>797</ele>
        <time>2022-05-21 19:29:42</time>
      </trkpt>
      <trkpt lat="42.39587" lon="2.47384">
        <ele>797.2</ele>
        <time>2022-05-21 19:29:43</time>
      </trkpt>
      <trkpt lat="42.39585" lon="2.47384">
        <ele>797.4</ele>
        <time>2022-05-21 19:29:44</time>
      </trkpt>
      <trkpt lat="42.39583" lon="2.47384">
        <ele>797.6</ele>
        <time>2022-05-21 19:29:45</time>
      </trkpt>
      <trkpt lat="42.39581" lon="2.47384">
        <ele>797.6</ele>
        <time>2022-05-21 19:29:46</time>
      </trkpt>
      <trkpt lat="42.39579" lon="2.47384">
        <ele>797.8</ele>
        <time>2022-05-21 19:29:47</time>
      </trkpt>
      <trkpt lat="42.39577" lon="2.47383">
        <ele>798</ele>
        <time>2022-05-21 19:29:48</time>
      </trkpt>
      <trkpt lat="42.39575" lon="2.47383">
        <ele>798.2</ele>
        <time>2022-05-21 19:29:49</time>
      </trkpt>
      <trkpt lat="42.39573" lon="2.47382">
        <ele>798.4</ele>
        <time>2022-05-21 19:29:50</time>
      </trkpt>
      <trkpt lat="42.39571" lon="2.47382">
        <ele>798.4</ele>
        <time>2022-05-21 19:29:51</time>
      </trkpt>
      <trkpt lat="42.3957" lon="2.47382">
        <ele>798.6</ele>
        <time>2022-05-21 19:29:52</time>
      </trkpt>
      <trkpt lat="42.39567" lon="2.47383">
        <ele>798.8</ele>
        <time>2022-05-21 19:29:53</time>
      </trkpt>
      <trkpt lat="42.39564" lon="2.47383">
        <ele>799</ele>
        <time>2022-05-21 19:29:54</time>
      </trkpt>
      <trkpt lat="42.39562" lon="2.47382">
        <ele>799</ele>
        <time>2022-05-21 19:29:55</time>
      </trkpt>
      <trkpt lat="42.39561" lon="2.47382">
        <ele>799.2</ele>
        <time>2022-05-21 19:29:56</time>
      </trkpt>
      <trkpt lat="42.39559" lon="2.47382">
        <ele>799.4</ele>
        <time>2022-05-21 19:29:57</time>
      </trkpt>
      <trkpt lat="42.39556" lon="2.47383">
        <ele>799.6</ele>
        <time>2022-05-21 19:29:58</time>
      </trkpt>
      <trkpt lat="42.39554" lon="2.47383">
        <ele>799.6</ele>
        <time>2022-05-21 19:29:59</time>
      </trkpt>
      <trkpt lat="42.39551" lon="2.47384">
        <ele>799.8</ele>
        <time>2022-05-21 19:30:00</time>
      </trkpt>
      <trkpt lat="42.39549" lon="2.47385">
        <ele>800</ele>
        <time>2022-05-21 19:30:01</time>
      </trkpt>
      <trkpt lat="42.39547" lon="2.47385">
        <ele>800.2</ele>
        <time>2022-05-21 19:30:02</time>
      </trkpt>
      <trkpt lat="42.39545" lon="2.47384">
        <ele>800.2</ele>
        <time>2022-05-21 19:30:03</time>
      </trkpt>
      <trkpt lat="42.39543" lon="2.47384">
        <ele>800.4</ele>
        <time>2022-05-21 19:30:04</time>
      </trkpt>
      <trkpt lat="42.39541" lon="2.47384">
        <ele>800.6</ele>
        <time>2022-05-21 19:30:05</time>
      </trkpt>
      <trkpt lat="42.39539" lon="2.47384">
        <ele>800.6</ele>
        <time>2022-05-21 19:30:06</time>
      </trkpt>
      <trkpt lat="42.39537" lon="2.47384">
        <ele>800.8</ele>
        <time>2022-05-21 19:30:07</time>
      </trkpt>
      <trkpt lat="42.39535" lon="2.47384">
        <ele>801</ele>
        <time>2022-05-21 19:30:08</time>
      </trkpt>
      <trkpt lat="42.39533" lon="2.47384">
        <ele>801</ele>
        <time>2022-05-21 19:30:09</time>
      </trkpt>
      <trkpt lat="42.39531" lon="2.47384">
        <ele>801.2</ele>
        <time>2022-05-21 19:30:10</time>
      </trkpt>
      <trkpt lat="42.39529" lon="2.47384">
        <ele>801.4</ele>
        <time>2022-05-21 19:30:11</time>
      </trkpt>
      <trkpt lat="42.39526" lon="2.47385">
        <ele>801.6</ele>
        <time>2022-05-21 19:30:12</time>
      </trkpt>
      <trkpt lat="42.39524" lon="2.47385">
        <ele>801.8</ele>
        <time>2022-05-21 19:30:13</time>
      </trkpt>
      <trkpt lat="42.39522" lon="2.47384">
        <ele>801.8</ele>
        <time>2022-05-21 19:30:14</time>
      </trkpt>
      <trkpt lat="42.3952" lon="2.47384">
        <ele>802</ele>
        <time>2022-05-21 19:30:15</time>
      </trkpt>
      <trkpt lat="42.39518" lon="2.47383">
        <ele>802.2</ele>
        <time>2022-05-21 19:30:16</time>
      </trkpt>
      <trkpt lat="42.39516" lon="2.47383">
        <ele>802.4</ele>
        <time>2022-05-21 19:30:17</time>
      </trkpt>
      <trkpt lat="42.39514" lon="2.47382">
        <ele>802.6</ele>
        <time>2022-05-21 19:30:18</time>
      </trkpt>
      <trkpt lat="42.39512" lon="2.47382">
        <ele>802.6</ele>
        <time>2022-05-21 19:30:19</time>
      </trkpt>
      <trkpt lat="42.3951" lon="2.47381">
        <ele>802.8</ele>
        <time>2022-05-21 19:30:20</time>
      </trkpt>
      <trkpt lat="42.39507" lon="2.47381">
        <ele>803</ele>
        <time>2022-05-21 19:30:21</time>
      </trkpt>
      <trkpt lat="42.39505" lon="2.47381">
        <ele>803.2</ele>
        <time>2022-05-21 19:30:22</time>
      </trkpt>
      <trkpt lat="42.39503" lon="2.4738">
        <ele>803.2</ele>
        <time>2022-05-21 19:30:23</time>
      </trkpt>
      <trkpt lat="42.39501" lon="2.47379">
        <ele>803.4</ele>
        <time>2022-05-21 19:30:24</time>
      </trkpt>
      <trkpt lat="42.39498" lon="2.47379">
        <ele>803.4</ele>
        <time>2022-05-21 19:30:25</time>
      </trkpt>
      <trkpt lat="42.39496" lon="2.47378">
        <ele>803.6</ele>
        <time>2022-05-21 19:30:26</time>
      </trkpt>
      <trkpt lat="42.39493" lon="2.47377">
        <ele>803.6</ele>
        <time>2022-05-21 19:30:27</time>
      </trkpt>
      <trkpt lat="42.3949" lon="2.47375">
        <ele>803.6</ele>
        <time>2022-05-21 19:30:28</time>
      </trkpt>
      <trkpt lat="42.39488" lon="2.47374">
        <ele>803.6</ele>
        <time>2022-05-21 19:30:29</time>
      </trkpt>
      <trkpt lat="42.39485" lon="2.47373">
        <ele>803.8</ele>
        <time>2022-05-21 19:30:30</time>
      </trkpt>
      <trkpt lat="42.39482" lon="2.47371">
        <ele>803.8</ele>
        <time>2022-05-21 19:30:31</time>
      </trkpt>
      <trkpt lat="42.39479" lon="2.4737">
        <ele>803.8</ele>
        <time>2022-05-21 19:30:32</time>
      </trkpt>
      <trkpt lat="42.39476" lon="2.47369">
        <ele>804</ele>
        <time>2022-05-21 19:30:33</time>
      </trkpt>
      <trkpt lat="42.39474" lon="2.47368">
        <ele>804</ele>
        <time>2022-05-21 19:30:34</time>
      </trkpt>
      <trkpt lat="42.39472" lon="2.47367">
        <ele>804</ele>
        <time>2022-05-21 19:30:35</time>
      </trkpt>
      <trkpt lat="42.39469" lon="2.47366">
        <ele>804</ele>
        <time>2022-05-21 19:30:36</time>
      </trkpt>
      <trkpt lat="42.39467" lon="2.47365">
        <ele>804</ele>
        <time>2022-05-21 19:30:37</time>
      </trkpt>
      <trkpt lat="42.39465" lon="2.47363">
        <ele>804.2</ele>
        <time>2022-05-21 19:30:38</time>
      </trkpt>
      <trkpt lat="42.39464" lon="2.47361">
        <ele>804.2</ele>
        <time>2022-05-21 19:30:39</time>
      </trkpt>
      <trkpt lat="42.39462" lon="2.47359">
        <ele>804.2</ele>
        <time>2022-05-21 19:30:40</time>
      </trkpt>
      <trkpt lat="42.3946" lon="2.47357">
        <ele>804.2</ele>
        <time>2022-05-21 19:30:41</time>
      </trkpt>
      <trkpt lat="42.39458" lon="2.47355">
        <ele>804.2</ele>
        <time>2022-05-21 19:30:42</time>
      </trkpt>
      <trkpt lat="42.39456" lon="2.47354">
        <ele>804.4</ele>
        <time>2022-05-21 19:30:43</time>
      </trkpt>
      <trkpt lat="42.39454" lon="2.47352">
        <ele>804.4</ele>
        <time>2022-05-21 19:30:44</time>
      </trkpt>
      <trkpt lat="42.39452" lon="2.47351">
        <ele>804.4</ele>
        <time>2022-05-21 19:30:45</time>
      </trkpt>
      <trkpt lat="42.3945" lon="2.4735">
        <ele>804.6</ele>
        <time>2022-05-21 19:30:46</time>
      </trkpt>
      <trkpt lat="42.39447" lon="2.47348">
        <ele>804.6</ele>
        <time>2022-05-21 19:30:47</time>
      </trkpt>
      <trkpt lat="42.39445" lon="2.47347">
        <ele>804.6</ele>
        <time>2022-05-21 19:30:48</time>
      </trkpt>
      <trkpt lat="42.39443" lon="2.47346">
        <ele>804.6</ele>
        <time>2022-05-21 19:30:49</time>
      </trkpt>
      <trkpt lat="42.39441" lon="2.47345">
        <ele>804.8</ele>
        <time>2022-05-21 19:30:50</time>
      </trkpt>
      <trkpt lat="42.39439" lon="2.47343">
        <ele>804.8</ele>
        <time>2022-05-21 19:30:51</time>
      </trkpt>
      <trkpt lat="42.39437" lon="2.47341">
        <ele>804.8</ele>
        <time>2022-05-21 19:30:52</time>
      </trkpt>
      <trkpt lat="42.39434" lon="2.47339">
        <ele>805</ele>
        <time>2022-05-21 19:30:53</time>
      </trkpt>
      <trkpt lat="42.39433" lon="2.47337">
        <ele>805</ele>
        <time>2022-05-21 19:30:54</time>
      </trkpt>
      <trkpt lat="42.39432" lon="2.47335">
        <ele>805</ele>
        <time>2022-05-21 19:30:55</time>
      </trkpt>
      <trkpt lat="42.39431" lon="2.47333">
        <ele>805.2</ele>
        <time>2022-05-21 19:30:56</time>
      </trkpt>
      <trkpt lat="42.39429" lon="2.47332">
        <ele>805.2</ele>
        <time>2022-05-21 19:30:57</time>
      </trkpt>
      <trkpt lat="42.39428" lon="2.47331">
        <ele>805.2</ele>
        <time>2022-05-21 19:30:58</time>
      </trkpt>
      <trkpt lat="42.39427" lon="2.4733">
        <ele>805.4</ele>
        <time>2022-05-21 19:30:59</time>
      </trkpt>
      <trkpt lat="42.39426" lon="2.47329">
        <ele>805.4</ele>
        <time>2022-05-21 19:31:00</time>
      </trkpt>
      <trkpt lat="42.39425" lon="2.47327">
        <ele>805.4</ele>
        <time>2022-05-21 19:31:01</time>
      </trkpt>
      <trkpt lat="42.39422" lon="2.47325">
        <ele>805.6</ele>
        <time>2022-05-21 19:31:02</time>
      </trkpt>
      <trkpt lat="42.3942" lon="2.47323">
        <ele>805.6</ele>
        <time>2022-05-21 19:31:03</time>
      </trkpt>
      <trkpt lat="42.39416" lon="2.47322">
        <ele>805.8</ele>
        <time>2022-05-21 19:31:04</time>
      </trkpt>
      <trkpt lat="42.39412" lon="2.4732">
        <ele>805.8</ele>
        <time>2022-05-21 19:31:05</time>
      </trkpt>
      <trkpt lat="42.39409" lon="2.47319">
        <ele>805.8</ele>
        <time>2022-05-21 19:31:06</time>
      </trkpt>
      <trkpt lat="42.39406" lon="2.47318">
        <ele>806</ele>
        <time>2022-05-21 19:31:07</time>
      </trkpt>
      <trkpt lat="42.39402" lon="2.47317">
        <ele>806</ele>
        <time>2022-05-21 19:31:08</time>
      </trkpt>
      <trkpt lat="42.39399" lon="2.47315">
        <ele>806.2</ele>
        <time>2022-05-21 19:31:09</time>
      </trkpt>
      <trkpt lat="42.39397" lon="2.47315">
        <ele>806.2</ele>
        <time>2022-05-21 19:31:10</time>
      </trkpt>
      <trkpt lat="42.39395" lon="2.47314">
        <ele>806.4</ele>
        <time>2022-05-21 19:31:11</time>
      </trkpt>
      <trkpt lat="42.39392" lon="2.47312">
        <ele>806.4</ele>
        <time>2022-05-21 19:31:12</time>
      </trkpt>
      <trkpt lat="42.3939" lon="2.4731">
        <ele>806.4</ele>
        <time>2022-05-21 19:31:13</time>
      </trkpt>
      <trkpt lat="42.39388" lon="2.47308">
        <ele>806.4</ele>
        <time>2022-05-21 19:31:14</time>
      </trkpt>
      <trkpt lat="42.39384" lon="2.47306">
        <ele>806.6</ele>
        <time>2022-05-21 19:31:15</time>
      </trkpt>
      <trkpt lat="42.39381" lon="2.47305">
        <ele>806.6</ele>
        <time>2022-05-21 19:31:16</time>
      </trkpt>
      <trkpt lat="42.39378" lon="2.47304">
        <ele>806.6</ele>
        <time>2022-05-21 19:31:17</time>
      </trkpt>
      <trkpt lat="42.39376" lon="2.47302">
        <ele>806.8</ele>
        <time>2022-05-21 19:31:18</time>
      </trkpt>
      <trkpt lat="42.39373" lon="2.47301">
        <ele>806.8</ele>
        <time>2022-05-21 19:31:19</time>
      </trkpt>
      <trkpt lat="42.3937" lon="2.473">
        <ele>806.8</ele>
        <time>2022-05-21 19:31:20</time>
      </trkpt>
      <trkpt lat="42.39367" lon="2.47299">
        <ele>807</ele>
        <time>2022-05-21 19:31:21</time>
      </trkpt>
      <trkpt lat="42.39364" lon="2.47298">
        <ele>807</ele>
        <time>2022-05-21 19:31:22</time>
      </trkpt>
      <trkpt lat="42.39362" lon="2.47297">
        <ele>807</ele>
        <time>2022-05-21 19:31:23</time>
      </trkpt>
      <trkpt lat="42.39358" lon="2.47296">
        <ele>807.2</ele>
        <time>2022-05-21 19:31:24</time>
      </trkpt>
      <trkpt lat="42.39354" lon="2.47295">
        <ele>807.2</ele>
        <time>2022-05-21 19:31:25</time>
      </trkpt>
      <trkpt lat="42.39351" lon="2.47295">
        <ele>807.2</ele>
        <time>2022-05-21 19:31:26</time>
      </trkpt>
      <trkpt lat="42.39349" lon="2.47296">
        <ele>807.4</ele>
        <time>2022-05-21 19:31:27</time>
      </trkpt>
      <trkpt lat="42.39346" lon="2.47296">
        <ele>807.4</ele>
        <time>2022-05-21 19:31:28</time>
      </trkpt>
      <trkpt lat="42.39344" lon="2.47297">
        <ele>807.4</ele>
        <time>2022-05-21 19:31:29</time>
      </trkpt>
      <trkpt lat="42.39341" lon="2.47299">
        <ele>807.4</ele>
        <time>2022-05-21 19:31:30</time>
      </trkpt>
      <trkpt lat="42.39338" lon="2.473">
        <ele>807.4</ele>
        <time>2022-05-21 19:31:31</time>
      </trkpt>
      <trkpt lat="42.39336" lon="2.47302">
        <ele>807.6</ele>
        <time>2022-05-21 19:31:32</time>
      </trkpt>
      <trkpt lat="42.39333" lon="2.47303">
        <ele>807.6</ele>
        <time>2022-05-21 19:31:33</time>
      </trkpt>
      <trkpt lat="42.39331" lon="2.47305">
        <ele>807.6</ele>
        <time>2022-05-21 19:31:34</time>
      </trkpt>
      <trkpt lat="42.39328" lon="2.47307">
        <ele>807.6</ele>
        <time>2022-05-21 19:31:35</time>
      </trkpt>
      <trkpt lat="42.39326" lon="2.4731">
        <ele>807.6</ele>
        <time>2022-05-21 19:31:36</time>
      </trkpt>
      <trkpt lat="42.39323" lon="2.47312">
        <ele>807.6</ele>
        <time>2022-05-21 19:31:37</time>
      </trkpt>
      <trkpt lat="42.39321" lon="2.47315">
        <ele>807.8</ele>
        <time>2022-05-21 19:31:38</time>
      </trkpt>
      <trkpt lat="42.3932" lon="2.47317">
        <ele>807.8</ele>
        <time>2022-05-21 19:31:39</time>
      </trkpt>
      <trkpt lat="42.39318" lon="2.4732">
        <ele>807.8</ele>
        <time>2022-05-21 19:31:40</time>
      </trkpt>
      <trkpt lat="42.39317" lon="2.47323">
        <ele>807.8</ele>
        <time>2022-05-21 19:31:41</time>
      </trkpt>
      <trkpt lat="42.39315" lon="2.47327">
        <ele>808</ele>
        <time>2022-05-21 19:31:42</time>
      </trkpt>
      <trkpt lat="42.39314" lon="2.4733">
        <ele>808</ele>
        <time>2022-05-21 19:31:43</time>
      </trkpt>
      <trkpt lat="42.39313" lon="2.47333">
        <ele>808</ele>
        <time>2022-05-21 19:31:44</time>
      </trkpt>
      <trkpt lat="42.39312" lon="2.47336">
        <ele>808</ele>
        <time>2022-05-21 19:31:45</time>
      </trkpt>
      <trkpt lat="42.39312" lon="2.4734">
        <ele>808.2</ele>
        <time>2022-05-21 19:31:46</time>
      </trkpt>
      <trkpt lat="42.39311" lon="2.47343">
        <ele>808.2</ele>
        <time>2022-05-21 19:31:47</time>
      </trkpt>
      <trkpt lat="42.39311" lon="2.47348">
        <ele>808.2</ele>
        <time>2022-05-21 19:31:48</time>
      </trkpt>
      <trkpt lat="42.39311" lon="2.47352">
        <ele>808.4</ele>
        <time>2022-05-21 19:31:49</time>
      </trkpt>
      <trkpt lat="42.39312" lon="2.47356">
        <ele>808.4</ele>
        <time>2022-05-21 19:31:50</time>
      </trkpt>
      <trkpt lat="42.39312" lon="2.4736">
        <ele>808.4</ele>
        <time>2022-05-21 19:31:51</time>
      </trkpt>
      <trkpt lat="42.39313" lon="2.47363">
        <ele>808.4</ele>
        <time>2022-05-21 19:31:52</time>
      </trkpt>
      <trkpt lat="42.39314" lon="2.47367">
        <ele>808.6</ele>
        <time>2022-05-21 19:31:53</time>
      </trkpt>
      <trkpt lat="42.39316" lon="2.47371">
        <ele>808.6</ele>
        <time>2022-05-21 19:31:54</time>
      </trkpt>
      <trkpt lat="42.39317" lon="2.47374">
        <ele>808.6</ele>
        <time>2022-05-21 19:31:55</time>
      </trkpt>
      <trkpt lat="42.39318" lon="2.47378">
        <ele>808.6</ele>
        <time>2022-05-21 19:31:56</time>
      </trkpt>
      <trkpt lat="42.3932" lon="2.47381">
        <ele>808.8</ele>
        <time>2022-05-21 19:31:57</time>
      </trkpt>
      <trkpt lat="42.39321" lon="2.47383">
        <ele>808.8</ele>
        <time>2022-05-21 19:31:58</time>
      </trkpt>
      <trkpt lat="42.39323" lon="2.47386">
        <ele>808.8</ele>
        <time>2022-05-21 19:31:59</time>
      </trkpt>
      <trkpt lat="42.39325" lon="2.47389">
        <ele>809</ele>
        <time>2022-05-21 19:32:00</time>
      </trkpt>
      <trkpt lat="42.39326" lon="2.47392">
        <ele>809</ele>
        <time>2022-05-21 19:32:01</time>
      </trkpt>
      <trkpt lat="42.39328" lon="2.47394">
        <ele>809.2</ele>
        <time>2022-05-21 19:32:02</time>
      </trkpt>
      <trkpt lat="42.3933" lon="2.47396">
        <ele>809.2</ele>
        <time>2022-05-21 19:32:03</time>
      </trkpt>
      <trkpt lat="42.39332" lon="2.47399">
        <ele>809.2</ele>
        <time>2022-05-21 19:32:04</time>
      </trkpt>
      <trkpt lat="42.39333" lon="2.47401">
        <ele>809.4</ele>
        <time>2022-05-21 19:32:05</time>
      </trkpt>
      <trkpt lat="42.39336" lon="2.47404">
        <ele>809.6</ele>
        <time>2022-05-21 19:32:06</time>
      </trkpt>
      <trkpt lat="42.39337" lon="2.47406">
        <ele>809.6</ele>
        <time>2022-05-21 19:32:07</time>
      </trkpt>
      <trkpt lat="42.39339" lon="2.47408">
        <ele>809.6</ele>
        <time>2022-05-21 19:32:08</time>
      </trkpt>
      <trkpt lat="42.39341" lon="2.47411">
        <ele>809.8</ele>
        <time>2022-05-21 19:32:09</time>
      </trkpt>
      <trkpt lat="42.39343" lon="2.47413">
        <ele>810</ele>
        <time>2022-05-21 19:32:10</time>
      </trkpt>
      <trkpt lat="42.39344" lon="2.47415">
        <ele>810</ele>
        <time>2022-05-21 19:32:11</time>
      </trkpt>
      <trkpt lat="42.39346" lon="2.47417">
        <ele>810.2</ele>
        <time>2022-05-21 19:32:12</time>
      </trkpt>
      <trkpt lat="42.39348" lon="2.47419">
        <ele>810.2</ele>
        <time>2022-05-21 19:32:13</time>
      </trkpt>
      <trkpt lat="42.39349" lon="2.47422">
        <ele>810.4</ele>
        <time>2022-05-21 19:32:14</time>
      </trkpt>
      <trkpt lat="42.39351" lon="2.47424">
        <ele>810.6</ele>
        <time>2022-05-21 19:32:15</time>
      </trkpt>
      <trkpt lat="42.39352" lon="2.47426">
        <ele>810.6</ele>
        <time>2022-05-21 19:32:16</time>
      </trkpt>
      <trkpt lat="42.39354" lon="2.47428">
        <ele>810.8</ele>
        <time>2022-05-21 19:32:17</time>
      </trkpt>
      <trkpt lat="42.39356" lon="2.4743">
        <ele>810.8</ele>
        <time>2022-05-21 19:32:18</time>
      </trkpt>
      <trkpt lat="42.39357" lon="2.47432">
        <ele>811</ele>
        <time>2022-05-21 19:32:19</time>
      </trkpt>
      <trkpt lat="42.39359" lon="2.47434">
        <ele>811.2</ele>
        <time>2022-05-21 19:32:20</time>
      </trkpt>
      <trkpt lat="42.39361" lon="2.47435">
        <ele>811.4</ele>
        <time>2022-05-21 19:32:21</time>
      </trkpt>
      <trkpt lat="42.39363" lon="2.47437">
        <ele>811.4</ele>
        <time>2022-05-21 19:32:22</time>
      </trkpt>
      <trkpt lat="42.39364" lon="2.47439">
        <ele>811.6</ele>
        <time>2022-05-21 19:32:23</time>
      </trkpt>
      <trkpt lat="42.39365" lon="2.47441">
        <ele>811.8</ele>
        <time>2022-05-21 19:32:24</time>
      </trkpt>
      <trkpt lat="42.39367" lon="2.47443">
        <ele>811.8</ele>
        <time>2022-05-21 19:32:25</time>
      </trkpt>
      <trkpt lat="42.39369" lon="2.47445">
        <ele>812</ele>
        <time>2022-05-21 19:32:26</time>
      </trkpt>
      <trkpt lat="42.39371" lon="2.47447">
        <ele>812.2</ele>
        <time>2022-05-21 19:32:27</time>
      </trkpt>
      <trkpt lat="42.39372" lon="2.47449">
        <ele>812.2</ele>
        <time>2022-05-21 19:32:28</time>
      </trkpt>
      <trkpt lat="42.39374" lon="2.47451">
        <ele>812.4</ele>
        <time>2022-05-21 19:32:29</time>
      </trkpt>
      <trkpt lat="42.39376" lon="2.47452">
        <ele>812.6</ele>
        <time>2022-05-21 19:32:30</time>
      </trkpt>
      <trkpt lat="42.39378" lon="2.47453">
        <ele>812.6</ele>
        <time>2022-05-21 19:32:31</time>
      </trkpt>
      <trkpt lat="42.39379" lon="2.47454">
        <ele>812.8</ele>
        <time>2022-05-21 19:32:32</time>
      </trkpt>
      <trkpt lat="42.39382" lon="2.47456">
        <ele>813</ele>
        <time>2022-05-21 19:32:33</time>
      </trkpt>
      <trkpt lat="42.39384" lon="2.47458">
        <ele>813</ele>
        <time>2022-05-21 19:32:34</time>
      </trkpt>
      <trkpt lat="42.39386" lon="2.4746">
        <ele>813.2</ele>
        <time>2022-05-21 19:32:35</time>
      </trkpt>
      <trkpt lat="42.39387" lon="2.47461">
        <ele>813.4</ele>
        <time>2022-05-21 19:32:36</time>
      </trkpt>
      <trkpt lat="42.39389" lon="2.47463">
        <ele>813.4</ele>
        <time>2022-05-21 19:32:37</time>
      </trkpt>
      <trkpt lat="42.39391" lon="2.47465">
        <ele>813.6</ele>
        <time>2022-05-21 19:32:38</time>
      </trkpt>
      <trkpt lat="42.39393" lon="2.47467">
        <ele>813.6</ele>
        <time>2022-05-21 19:32:39</time>
      </trkpt>
      <trkpt lat="42.39395" lon="2.4747">
        <ele>813.8</ele>
        <time>2022-05-21 19:32:40</time>
      </trkpt>
      <trkpt lat="42.39396" lon="2.47472">
        <ele>814</ele>
        <time>2022-05-21 19:32:41</time>
      </trkpt>
      <trkpt lat="42.39397" lon="2.47474">
        <ele>814</ele>
        <time>2022-05-21 19:32:42</time>
      </trkpt>
      <trkpt lat="42.39399" lon="2.47476">
        <ele>814.2</ele>
        <time>2022-05-21 19:32:43</time>
      </trkpt>
      <trkpt lat="42.39401" lon="2.47478">
        <ele>814.4</ele>
        <time>2022-05-21 19:32:44</time>
      </trkpt>
      <trkpt lat="42.39402" lon="2.47479">
        <ele>814.4</ele>
        <time>2022-05-21 19:32:45</time>
      </trkpt>
      <trkpt lat="42.39405" lon="2.47481">
        <ele>814.6</ele>
        <time>2022-05-21 19:32:46</time>
      </trkpt>
      <trkpt lat="42.39407" lon="2.47483">
        <ele>814.8</ele>
        <time>2022-05-21 19:32:47</time>
      </trkpt>
      <trkpt lat="42.39409" lon="2.47485">
        <ele>814.8</ele>
        <time>2022-05-21 19:32:48</time>
      </trkpt>
      <trkpt lat="42.39411" lon="2.47487">
        <ele>815</ele>
        <time>2022-05-21 19:32:49</time>
      </trkpt>
      <trkpt lat="42.39413" lon="2.47489">
        <ele>815</ele>
        <time>2022-05-21 19:32:50</time>
      </trkpt>
      <trkpt lat="42.39414" lon="2.4749">
        <ele>815.2</ele>
        <time>2022-05-21 19:32:51</time>
      </trkpt>
      <trkpt lat="42.39416" lon="2.47492">
        <ele>815.4</ele>
        <time>2022-05-21 19:32:52</time>
      </trkpt>
      <trkpt lat="42.39418" lon="2.47493">
        <ele>815.4</ele>
        <time>2022-05-21 19:32:53</time>
      </trkpt>
      <trkpt lat="42.39419" lon="2.47495">
        <ele>815.6</ele>
        <time>2022-05-21 19:32:54</time>
      </trkpt>
      <trkpt lat="42.39421" lon="2.47496">
        <ele>815.8</ele>
        <time>2022-05-21 19:32:55</time>
      </trkpt>
      <trkpt lat="42.39423" lon="2.47497">
        <ele>815.8</ele>
        <time>2022-05-21 19:32:56</time>
      </trkpt>
      <trkpt lat="42.39425" lon="2.47499">
        <ele>816</ele>
        <time>2022-05-21 19:32:57</time>
      </trkpt>
      <trkpt lat="42.39427" lon="2.475">
        <ele>816.2</ele>
        <time>2022-05-21 19:32:58</time>
      </trkpt>
      <trkpt lat="42.39428" lon="2.47501">
        <ele>816.2</ele>
        <time>2022-05-21 19:32:59</time>
      </trkpt>
      <trkpt lat="42.3943" lon="2.47502">
        <ele>816.4</ele>
        <time>2022-05-21 19:33:00</time>
      </trkpt>
      <trkpt lat="42.39431" lon="2.47502">
        <ele>816.6</ele>
        <time>2022-05-21 19:33:01</time>
      </trkpt>
      <trkpt lat="42.39433" lon="2.47503">
        <ele>816.8</ele>
        <time>2022-05-21 19:33:02</time>
      </trkpt>
      <trkpt lat="42.39434" lon="2.47504">
        <ele>816.8</ele>
        <time>2022-05-21 19:33:03</time>
      </trkpt>
      <trkpt lat="42.39435" lon="2.47506">
        <ele>817</ele>
        <time>2022-05-21 19:33:04</time>
      </trkpt>
      <trkpt lat="42.39437" lon="2.47508">
        <ele>817.2</ele>
        <time>2022-05-21 19:33:05</time>
      </trkpt>
      <trkpt lat="42.39439" lon="2.4751">
        <ele>817.4</ele>
        <time>2022-05-21 19:33:06</time>
      </trkpt>
      <trkpt lat="42.3944" lon="2.47511">
        <ele>817.6</ele>
        <time>2022-05-21 19:33:07</time>
      </trkpt>
      <trkpt lat="42.39442" lon="2.47513">
        <ele>817.6</ele>
        <time>2022-05-21 19:33:08</time>
      </trkpt>
      <trkpt lat="42.39444" lon="2.47514">
        <ele>817.8</ele>
        <time>2022-05-21 19:33:09</time>
      </trkpt>
      <trkpt lat="42.39446" lon="2.47515">
        <ele>818</ele>
        <time>2022-05-21 19:33:10</time>
      </trkpt>
      <trkpt lat="42.39448" lon="2.47517">
        <ele>818.2</ele>
        <time>2022-05-21 19:33:11</time>
      </trkpt>
      <trkpt lat="42.39449" lon="2.47518">
        <ele>818.2</ele>
        <time>2022-05-21 19:33:12</time>
      </trkpt>
      <trkpt lat="42.39451" lon="2.47518">
        <ele>818.4</ele>
        <time>2022-05-21 19:33:13</time>
      </trkpt>
      <trkpt lat="42.39452" lon="2.47519">
        <ele>818.6</ele>
        <time>2022-05-21 19:33:14</time>
      </trkpt>
      <trkpt lat="42.39454" lon="2.47519">
        <ele>818.8</ele>
        <time>2022-05-21 19:33:15</time>
      </trkpt>
      <trkpt lat="42.39456" lon="2.4752">
        <ele>819</ele>
        <time>2022-05-21 19:33:16</time>
      </trkpt>
      <trkpt lat="42.39457" lon="2.47521">
        <ele>819.2</ele>
        <time>2022-05-21 19:33:17</time>
      </trkpt>
      <trkpt lat="42.39458" lon="2.47523">
        <ele>819.4</ele>
        <time>2022-05-21 19:33:18</time>
      </trkpt>
      <trkpt lat="42.3946" lon="2.47524">
        <ele>819.4</ele>
        <time>2022-05-21 19:33:19</time>
      </trkpt>
      <trkpt lat="42.39462" lon="2.47526">
        <ele>819.6</ele>
        <time>2022-05-21 19:33:20</time>
      </trkpt>
      <trkpt lat="42.39463" lon="2.47527">
        <ele>819.8</ele>
        <time>2022-05-21 19:33:21</time>
      </trkpt>
      <trkpt lat="42.39465" lon="2.47529">
        <ele>820</ele>
        <time>2022-05-21 19:33:22</time>
      </trkpt>
      <trkpt lat="42.39466" lon="2.4753">
        <ele>820.2</ele>
        <time>2022-05-21 19:33:23</time>
      </trkpt>
      <trkpt lat="42.39467" lon="2.47532">
        <ele>820.4</ele>
        <time>2022-05-21 19:33:24</time>
      </trkpt>
      <trkpt lat="42.39469" lon="2.47533">
        <ele>820.6</ele>
        <time>2022-05-21 19:33:25</time>
      </trkpt>
      <trkpt lat="42.3947" lon="2.47534">
        <ele>820.8</ele>
        <time>2022-05-21 19:33:26</time>
      </trkpt>
      <trkpt lat="42.39472" lon="2.47536">
        <ele>821</ele>
        <time>2022-05-21 19:33:27</time>
      </trkpt>
      <trkpt lat="42.39473" lon="2.47537">
        <ele>821.2</ele>
        <time>2022-05-21 19:33:28</time>
      </trkpt>
      <trkpt lat="42.39474" lon="2.47537">
        <ele>821.4</ele>
        <time>2022-05-21 19:33:29</time>
      </trkpt>
      <trkpt lat="42.39476" lon="2.47538">
        <ele>821.6</ele>
        <time>2022-05-21 19:33:30</time>
      </trkpt>
      <trkpt lat="42.39478" lon="2.47538">
        <ele>821.8</ele>
        <time>2022-05-21 19:33:31</time>
      </trkpt>
      <trkpt lat="42.3948" lon="2.47539">
        <ele>822</ele>
        <time>2022-05-21 19:33:32</time>
      </trkpt>
      <trkpt lat="42.39481" lon="2.47541">
        <ele>822.2</ele>
        <time>2022-05-21 19:33:33</time>
      </trkpt>
      <trkpt lat="42.39483" lon="2.47543">
        <ele>822.4</ele>
        <time>2022-05-21 19:33:34</time>
      </trkpt>
      <trkpt lat="42.39485" lon="2.47545">
        <ele>822.8</ele>
        <time>2022-05-21 19:33:35</time>
      </trkpt>
      <trkpt lat="42.39486" lon="2.47546">
        <ele>823</ele>
        <time>2022-05-21 19:33:36</time>
      </trkpt>
      <trkpt lat="42.39487" lon="2.47547">
        <ele>823.2</ele>
        <time>2022-05-21 19:33:37</time>
      </trkpt>
      <trkpt lat="42.39489" lon="2.47548">
        <ele>823.4</ele>
        <time>2022-05-21 19:33:38</time>
      </trkpt>
      <trkpt lat="42.3949" lon="2.47549">
        <ele>823.6</ele>
        <time>2022-05-21 19:33:39</time>
      </trkpt>
      <trkpt lat="42.39492" lon="2.4755">
        <ele>823.8</ele>
        <time>2022-05-21 19:33:40</time>
      </trkpt>
      <trkpt lat="42.39493" lon="2.47552">
        <ele>824</ele>
        <time>2022-05-21 19:33:41</time>
      </trkpt>
      <trkpt lat="42.39495" lon="2.47553">
        <ele>824.2</ele>
        <time>2022-05-21 19:33:42</time>
      </trkpt>
      <trkpt lat="42.39496" lon="2.47554">
        <ele>824.4</ele>
        <time>2022-05-21 19:33:43</time>
      </trkpt>
      <trkpt lat="42.39498" lon="2.47556">
        <ele>824.6</ele>
        <time>2022-05-21 19:33:44</time>
      </trkpt>
      <trkpt lat="42.395" lon="2.47557">
        <ele>824.8</ele>
        <time>2022-05-21 19:33:45</time>
      </trkpt>
      <trkpt lat="42.39501" lon="2.47559">
        <ele>825</ele>
        <time>2022-05-21 19:33:46</time>
      </trkpt>
      <trkpt lat="42.39503" lon="2.4756">
        <ele>825.2</ele>
        <time>2022-05-21 19:33:47</time>
      </trkpt>
      <trkpt lat="42.39504" lon="2.47561">
        <ele>825.4</ele>
        <time>2022-05-21 19:33:48</time>
      </trkpt>
      <trkpt lat="42.39506" lon="2.47562">
        <ele>825.6</ele>
        <time>2022-05-21 19:33:49</time>
      </trkpt>
      <trkpt lat="42.39507" lon="2.47562">
        <ele>825.6</ele>
        <time>2022-05-21 19:33:50</time>
      </trkpt>
      <trkpt lat="42.39508" lon="2.47563">
        <ele>825.8</ele>
        <time>2022-05-21 19:33:51</time>
      </trkpt>
      <trkpt lat="42.3951" lon="2.47564">
        <ele>826</ele>
        <time>2022-05-21 19:33:52</time>
      </trkpt>
      <trkpt lat="42.39511" lon="2.47565">
        <ele>826.2</ele>
        <time>2022-05-21 19:33:53</time>
      </trkpt>
      <trkpt lat="42.39513" lon="2.47566">
        <ele>826.4</ele>
        <time>2022-05-21 19:33:54</time>
      </trkpt>
      <trkpt lat="42.39514" lon="2.47567">
        <ele>826.6</ele>
        <time>2022-05-21 19:33:55</time>
      </trkpt>
      <trkpt lat="42.39516" lon="2.47568">
        <ele>826.8</ele>
        <time>2022-05-21 19:33:56</time>
      </trkpt>
      <trkpt lat="42.39517" lon="2.47569">
        <ele>827</ele>
        <time>2022-05-21 19:33:57</time>
      </trkpt>
      <trkpt lat="42.39519" lon="2.47569">
        <ele>827.2</ele>
        <time>2022-05-21 19:33:58</time>
      </trkpt>
      <trkpt lat="42.3952" lon="2.47571">
        <ele>827.4</ele>
        <time>2022-05-21 19:33:59</time>
      </trkpt>
      <trkpt lat="42.39521" lon="2.47572">
        <ele>827.4</ele>
        <time>2022-05-21 19:34:00</time>
      </trkpt>
      <trkpt lat="42.39523" lon="2.47573">
        <ele>827.6</ele>
        <time>2022-05-21 19:34:01</time>
      </trkpt>
      <trkpt lat="42.39524" lon="2.47574">
        <ele>827.8</ele>
        <time>2022-05-21 19:34:02</time>
      </trkpt>
      <trkpt lat="42.39526" lon="2.47574">
        <ele>828</ele>
        <time>2022-05-21 19:34:03</time>
      </trkpt>
      <trkpt lat="42.39527" lon="2.47575">
        <ele>828.2</ele>
        <time>2022-05-21 19:34:04</time>
      </trkpt>
      <trkpt lat="42.39528" lon="2.47576">
        <ele>828.4</ele>
        <time>2022-05-21 19:34:05</time>
      </trkpt>
      <trkpt lat="42.3953" lon="2.47578">
        <ele>828.6</ele>
        <time>2022-05-21 19:34:06</time>
      </trkpt>
      <trkpt lat="42.39531" lon="2.47579">
        <ele>828.8</ele>
        <time>2022-05-21 19:34:07</time>
      </trkpt>
      <trkpt lat="42.39533" lon="2.4758">
        <ele>829</ele>
        <time>2022-05-21 19:34:08</time>
      </trkpt>
      <trkpt lat="42.39534" lon="2.47582">
        <ele>829.2</ele>
        <time>2022-05-21 19:34:09</time>
      </trkpt>
      <trkpt lat="42.39535" lon="2.47583">
        <ele>829.4</ele>
        <time>2022-05-21 19:34:10</time>
      </trkpt>
      <trkpt lat="42.39536" lon="2.47584">
        <ele>829.6</ele>
        <time>2022-05-21 19:34:11</time>
      </trkpt>
      <trkpt lat="42.39537" lon="2.47586">
        <ele>829.8</ele>
        <time>2022-05-21 19:34:12</time>
      </trkpt>
      <trkpt lat="42.39538" lon="2.47587">
        <ele>830</ele>
        <time>2022-05-21 19:34:13</time>
      </trkpt>
      <trkpt lat="42.39539" lon="2.47588">
        <ele>830.2</ele>
        <time>2022-05-21 19:34:14</time>
      </trkpt>
      <trkpt lat="42.3954" lon="2.4759">
        <ele>830.4</ele>
        <time>2022-05-21 19:34:15</time>
      </trkpt>
      <trkpt lat="42.39541" lon="2.47591">
        <ele>830.6</ele>
        <time>2022-05-21 19:34:16</time>
      </trkpt>
      <trkpt lat="42.39542" lon="2.47592">
        <ele>830.8</ele>
        <time>2022-05-21 19:34:17</time>
      </trkpt>
      <trkpt lat="42.39544" lon="2.47592">
        <ele>831</ele>
        <time>2022-05-21 19:34:18</time>
      </trkpt>
      <trkpt lat="42.39545" lon="2.47593">
        <ele>831.2</ele>
        <time>2022-05-21 19:34:19</time>
      </trkpt>
      <trkpt lat="42.39547" lon="2.47593">
        <ele>831.4</ele>
        <time>2022-05-21 19:34:20</time>
      </trkpt>
      <trkpt lat="42.39549" lon="2.47594">
        <ele>831.6</ele>
        <time>2022-05-21 19:34:21</time>
      </trkpt>
      <trkpt lat="42.39551" lon="2.47594">
        <ele>831.6</ele>
        <time>2022-05-21 19:34:22</time>
      </trkpt>
      <trkpt lat="42.39552" lon="2.47595">
        <ele>831.8</ele>
        <time>2022-05-21 19:34:23</time>
      </trkpt>
      <trkpt lat="42.39554" lon="2.47595">
        <ele>832</ele>
        <time>2022-05-21 19:34:24</time>
      </trkpt>
      <trkpt lat="42.39556" lon="2.47595">
        <ele>832.2</ele>
        <time>2022-05-21 19:34:25</time>
      </trkpt>
      <trkpt lat="42.39557" lon="2.47595">
        <ele>832.4</ele>
        <time>2022-05-21 19:34:26</time>
      </trkpt>
      <trkpt lat="42.39559" lon="2.47595">
        <ele>832.6</ele>
        <time>2022-05-21 19:34:27</time>
      </trkpt>
      <trkpt lat="42.39561" lon="2.47596">
        <ele>832.8</ele>
        <time>2022-05-21 19:34:28</time>
      </trkpt>
      <trkpt lat="42.39562" lon="2.47596">
        <ele>833</ele>
        <time>2022-05-21 19:34:29</time>
      </trkpt>
      <trkpt lat="42.39564" lon="2.47596">
        <ele>833</ele>
        <time>2022-05-21 19:34:30</time>
      </trkpt>
      <trkpt lat="42.39566" lon="2.47597">
        <ele>833.2</ele>
        <time>2022-05-21 19:34:31</time>
      </trkpt>
      <trkpt lat="42.39568" lon="2.47597">
        <ele>833.4</ele>
        <time>2022-05-21 19:34:32</time>
      </trkpt>
      <trkpt lat="42.3957" lon="2.47597">
        <ele>833.4</ele>
        <time>2022-05-21 19:34:33</time>
      </trkpt>
      <trkpt lat="42.39571" lon="2.47598">
        <ele>833.6</ele>
        <time>2022-05-21 19:34:34</time>
      </trkpt>
      <trkpt lat="42.39573" lon="2.47599">
        <ele>833.8</ele>
        <time>2022-05-21 19:34:35</time>
      </trkpt>
      <trkpt lat="42.39575" lon="2.47599">
        <ele>834</ele>
        <time>2022-05-21 19:34:36</time>
      </trkpt>
      <trkpt lat="42.39576" lon="2.476">
        <ele>834.2</ele>
        <time>2022-05-21 19:34:37</time>
      </trkpt>
      <trkpt lat="42.39578" lon="2.47599">
        <ele>834.2</ele>
        <time>2022-05-21 19:34:38</time>
      </trkpt>
      <trkpt lat="42.3958" lon="2.47599">
        <ele>834.4</ele>
        <time>2022-05-21 19:34:39</time>
      </trkpt>
      <trkpt lat="42.39581" lon="2.476">
        <ele>834.6</ele>
        <time>2022-05-21 19:34:40</time>
      </trkpt>
      <trkpt lat="42.39583" lon="2.476">
        <ele>834.6</ele>
        <time>2022-05-21 19:34:41</time>
      </trkpt>
      <trkpt lat="42.39585" lon="2.476">
        <ele>834.8</ele>
        <time>2022-05-21 19:34:42</time>
      </trkpt>
      <trkpt lat="42.39588" lon="2.47601">
        <ele>835</ele>
        <time>2022-05-21 19:34:43</time>
      </trkpt>
      <trkpt lat="42.3959" lon="2.47601">
        <ele>835</ele>
        <time>2022-05-21 19:34:44</time>
      </trkpt>
      <trkpt lat="42.39592" lon="2.47601">
        <ele>835.2</ele>
        <time>2022-05-21 19:34:45</time>
      </trkpt>
      <trkpt lat="42.39593" lon="2.47601">
        <ele>835.4</ele>
        <time>2022-05-21 19:34:46</time>
      </trkpt>
      <trkpt lat="42.39595" lon="2.47601">
        <ele>835.4</ele>
        <time>2022-05-21 19:34:47</time>
      </trkpt>
      <trkpt lat="42.39597" lon="2.47601">
        <ele>835.6</ele>
        <time>2022-05-21 19:34:48</time>
      </trkpt>
      <trkpt lat="42.39598" lon="2.47601">
        <ele>835.8</ele>
        <time>2022-05-21 19:34:49</time>
      </trkpt>
      <trkpt lat="42.396" lon="2.47601">
        <ele>836</ele>
        <time>2022-05-21 19:34:50</time>
      </trkpt>
      <trkpt lat="42.39602" lon="2.47602">
        <ele>836</ele>
        <time>2022-05-21 19:34:51</time>
      </trkpt>
      <trkpt lat="42.39604" lon="2.47602">
        <ele>836.2</ele>
        <time>2022-05-21 19:34:52</time>
      </trkpt>
      <trkpt lat="42.39606" lon="2.47602">
        <ele>836.2</ele>
        <time>2022-05-21 19:34:53</time>
      </trkpt>
      <trkpt lat="42.39607" lon="2.47603">
        <ele>836.4</ele>
        <time>2022-05-21 19:34:54</time>
      </trkpt>
      <trkpt lat="42.39609" lon="2.47603">
        <ele>836.6</ele>
        <time>2022-05-21 19:34:55</time>
      </trkpt>
      <trkpt lat="42.39611" lon="2.47603">
        <ele>836.6</ele>
        <time>2022-05-21 19:34:56</time>
      </trkpt>
      <trkpt lat="42.39613" lon="2.47603">
        <ele>836.8</ele>
        <time>2022-05-21 19:34:57</time>
      </trkpt>
      <trkpt lat="42.39615" lon="2.47603">
        <ele>837</ele>
        <time>2022-05-21 19:34:58</time>
      </trkpt>
      <trkpt lat="42.39617" lon="2.47603">
        <ele>837.2</ele>
        <time>2022-05-21 19:34:59</time>
      </trkpt>
      <trkpt lat="42.39619" lon="2.47602">
        <ele>837.2</ele>
        <time>2022-05-21 19:35:00</time>
      </trkpt>
      <trkpt lat="42.39621" lon="2.47601">
        <ele>837.4</ele>
        <time>2022-05-21 19:35:01</time>
      </trkpt>
      <trkpt lat="42.39623" lon="2.47601">
        <ele>837.6</ele>
        <time>2022-05-21 19:35:02</time>
      </trkpt>
      <trkpt lat="42.39625" lon="2.47602">
        <ele>837.8</ele>
        <time>2022-05-21 19:35:03</time>
      </trkpt>
      <trkpt lat="42.39627" lon="2.47603">
        <ele>837.8</ele>
        <time>2022-05-21 19:35:04</time>
      </trkpt>
      <trkpt lat="42.39629" lon="2.47603">
        <ele>838</ele>
        <time>2022-05-21 19:35:05</time>
      </trkpt>
      <trkpt lat="42.39631" lon="2.47604">
        <ele>838.2</ele>
        <time>2022-05-21 19:35:06</time>
      </trkpt>
      <trkpt lat="42.39633" lon="2.47605">
        <ele>838.2</ele>
        <time>2022-05-21 19:35:07</time>
      </trkpt>
      <trkpt lat="42.39635" lon="2.47605">
        <ele>838.4</ele>
        <time>2022-05-21 19:35:08</time>
      </trkpt>
      <trkpt lat="42.39637" lon="2.47606">
        <ele>838.6</ele>
        <time>2022-05-21 19:35:09</time>
      </trkpt>
      <trkpt lat="42.39639" lon="2.47607">
        <ele>838.8</ele>
        <time>2022-05-21 19:35:10</time>
      </trkpt>
      <trkpt lat="42.3964" lon="2.47607">
        <ele>838.8</ele>
        <time>2022-05-21 19:35:11</time>
      </trkpt>
      <trkpt lat="42.39642" lon="2.47608">
        <ele>839</ele>
        <time>2022-05-21 19:35:12</time>
      </trkpt>
      <trkpt lat="42.39643" lon="2.47608">
        <ele>839.2</ele>
        <time>2022-05-21 19:35:13</time>
      </trkpt>
      <trkpt lat="42.39644" lon="2.47609">
        <ele>839.2</ele>
        <time>2022-05-21 19:35:14</time>
      </trkpt>
      <trkpt lat="42.39645" lon="2.4761">
        <ele>839.4</ele>
        <time>2022-05-21 19:35:15</time>
      </trkpt>
      <trkpt lat="42.39646" lon="2.47611">
        <ele>839.6</ele>
        <time>2022-05-21 19:35:16</time>
      </trkpt>
      <trkpt lat="42.39647" lon="2.47612">
        <ele>839.6</ele>
        <time>2022-05-21 19:35:17</time>
      </trkpt>
      <trkpt lat="42.39649" lon="2.47613">
        <ele>839.8</ele>
        <time>2022-05-21 19:35:18</time>
      </trkpt>
      <trkpt lat="42.3965" lon="2.47614">
        <ele>840</ele>
        <time>2022-05-21 19:35:19</time>
      </trkpt>
      <trkpt lat="42.39651" lon="2.47615">
        <ele>840.2</ele>
        <time>2022-05-21 19:35:20</time>
      </trkpt>
      <trkpt lat="42.39653" lon="2.47616">
        <ele>840.2</ele>
        <time>2022-05-21 19:35:21</time>
      </trkpt>
      <trkpt lat="42.39654" lon="2.47617">
        <ele>840.4</ele>
        <time>2022-05-21 19:35:22</time>
      </trkpt>
      <trkpt lat="42.39656" lon="2.47619">
        <ele>840.6</ele>
        <time>2022-05-21 19:35:23</time>
      </trkpt>
      <trkpt lat="42.39657" lon="2.47621">
        <ele>840.8</ele>
        <time>2022-05-21 19:35:24</time>
      </trkpt>
      <trkpt lat="42.39659" lon="2.47622">
        <ele>840.8</ele>
        <time>2022-05-21 19:35:25</time>
      </trkpt>
      <trkpt lat="42.39661" lon="2.47624">
        <ele>841</ele>
        <time>2022-05-21 19:35:26</time>
      </trkpt>
      <trkpt lat="42.39662" lon="2.47625">
        <ele>841.2</ele>
        <time>2022-05-21 19:35:27</time>
      </trkpt>
      <trkpt lat="42.39664" lon="2.47626">
        <ele>841.2</ele>
        <time>2022-05-21 19:35:28</time>
      </trkpt>
      <trkpt lat="42.39665" lon="2.47627">
        <ele>841.4</ele>
        <time>2022-05-21 19:35:29</time>
      </trkpt>
      <trkpt lat="42.39666" lon="2.47629">
        <ele>841.6</ele>
        <time>2022-05-21 19:35:30</time>
      </trkpt>
      <trkpt lat="42.39667" lon="2.4763">
        <ele>841.6</ele>
        <time>2022-05-21 19:35:31</time>
      </trkpt>
      <trkpt lat="42.39667" lon="2.47631">
        <ele>841.8</ele>
        <time>2022-05-21 19:35:32</time>
      </trkpt>
      <trkpt lat="42.39669" lon="2.47633">
        <ele>842</ele>
        <time>2022-05-21 19:35:33</time>
      </trkpt>
      <trkpt lat="42.3967" lon="2.47634">
        <ele>842.2</ele>
        <time>2022-05-21 19:35:34</time>
      </trkpt>
      <trkpt lat="42.39671" lon="2.47637">
        <ele>842.2</ele>
        <time>2022-05-21 19:35:35</time>
      </trkpt>
      <trkpt lat="42.39672" lon="2.4764">
        <ele>842.4</ele>
        <time>2022-05-21 19:35:36</time>
      </trkpt>
      <trkpt lat="42.39673" lon="2.47643">
        <ele>842.6</ele>
        <time>2022-05-21 19:35:37</time>
      </trkpt>
      <trkpt lat="42.39674" lon="2.47646">
        <ele>842.6</ele>
        <time>2022-05-21 19:35:38</time>
      </trkpt>
      <trkpt lat="42.39675" lon="2.47648">
        <ele>842.8</ele>
        <time>2022-05-21 19:35:39</time>
      </trkpt>
      <trkpt lat="42.39677" lon="2.47651">
        <ele>843</ele>
        <time>2022-05-21 19:35:40</time>
      </trkpt>
      <trkpt lat="42.39678" lon="2.47653">
        <ele>843</ele>
        <time>2022-05-21 19:35:41</time>
      </trkpt>
      <trkpt lat="42.3968" lon="2.47656">
        <ele>843.2</ele>
        <time>2022-05-21 19:35:42</time>
      </trkpt>
      <trkpt lat="42.39681" lon="2.47659">
        <ele>843.4</ele>
        <time>2022-05-21 19:35:43</time>
      </trkpt>
      <trkpt lat="42.39683" lon="2.47661">
        <ele>843.4</ele>
        <time>2022-05-21 19:35:44</time>
      </trkpt>
      <trkpt lat="42.39684" lon="2.47664">
        <ele>843.6</ele>
        <time>2022-05-21 19:35:45</time>
      </trkpt>
      <trkpt lat="42.39684" lon="2.47667">
        <ele>843.8</ele>
        <time>2022-05-21 19:35:46</time>
      </trkpt>
      <trkpt lat="42.39685" lon="2.4767">
        <ele>843.8</ele>
        <time>2022-05-21 19:35:47</time>
      </trkpt>
      <trkpt lat="42.39686" lon="2.47672">
        <ele>844</ele>
        <time>2022-05-21 19:35:48</time>
      </trkpt>
      <trkpt lat="42.39687" lon="2.47675">
        <ele>844.2</ele>
        <time>2022-05-21 19:35:49</time>
      </trkpt>
      <trkpt lat="42.39687" lon="2.47677">
        <ele>844.2</ele>
        <time>2022-05-21 19:35:50</time>
      </trkpt>
      <trkpt lat="42.39688" lon="2.4768">
        <ele>844.4</ele>
        <time>2022-05-21 19:35:51</time>
      </trkpt>
      <trkpt lat="42.39689" lon="2.47683">
        <ele>844.4</ele>
        <time>2022-05-21 19:35:52</time>
      </trkpt>
      <trkpt lat="42.3969" lon="2.47686">
        <ele>844.6</ele>
        <time>2022-05-21 19:35:53</time>
      </trkpt>
      <trkpt lat="42.39691" lon="2.47688">
        <ele>844.6</ele>
        <time>2022-05-21 19:35:54</time>
      </trkpt>
      <trkpt lat="42.39691" lon="2.47691">
        <ele>844.8</ele>
        <time>2022-05-21 19:35:55</time>
      </trkpt>
      <trkpt lat="42.39691" lon="2.47693">
        <ele>844.8</ele>
        <time>2022-05-21 19:35:56</time>
      </trkpt>
      <trkpt lat="42.39692" lon="2.47696">
        <ele>845</ele>
        <time>2022-05-21 19:35:57</time>
      </trkpt>
      <trkpt lat="42.39692" lon="2.477">
        <ele>845</ele>
        <time>2022-05-21 19:35:58</time>
      </trkpt>
      <trkpt lat="42.39692" lon="2.47703">
        <ele>845.2</ele>
        <time>2022-05-21 19:35:59</time>
      </trkpt>
      <trkpt lat="42.39693" lon="2.47707">
        <ele>845.2</ele>
        <time>2022-05-21 19:36:00</time>
      </trkpt>
      <trkpt lat="42.39693" lon="2.47711">
        <ele>845.4</ele>
        <time>2022-05-21 19:36:01</time>
      </trkpt>
      <trkpt lat="42.39694" lon="2.47714">
        <ele>845.4</ele>
        <time>2022-05-21 19:36:02</time>
      </trkpt>
      <trkpt lat="42.39694" lon="2.47717">
        <ele>845.6</ele>
        <time>2022-05-21 19:36:03</time>
      </trkpt>
      <trkpt lat="42.39694" lon="2.47721">
        <ele>845.6</ele>
        <time>2022-05-21 19:36:04</time>
      </trkpt>
      <trkpt lat="42.39693" lon="2.47724">
        <ele>845.8</ele>
        <time>2022-05-21 19:36:05</time>
      </trkpt>
      <trkpt lat="42.39693" lon="2.47727">
        <ele>845.8</ele>
        <time>2022-05-21 19:36:06</time>
      </trkpt>
      <trkpt lat="42.39692" lon="2.4773">
        <ele>846</ele>
        <time>2022-05-21 19:36:07</time>
      </trkpt>
      <trkpt lat="42.39691" lon="2.47732">
        <ele>846</ele>
        <time>2022-05-21 19:36:08</time>
      </trkpt>
      <trkpt lat="42.3969" lon="2.47735">
        <ele>846.2</ele>
        <time>2022-05-21 19:36:09</time>
      </trkpt>
      <trkpt lat="42.39689" lon="2.47738">
        <ele>846.2</ele>
        <time>2022-05-21 19:36:10</time>
      </trkpt>
      <trkpt lat="42.39688" lon="2.47742">
        <ele>846.4</ele>
        <time>2022-05-21 19:36:11</time>
      </trkpt>
      <trkpt lat="42.39686" lon="2.47744">
        <ele>846.6</ele>
        <time>2022-05-21 19:36:12</time>
      </trkpt>
      <trkpt lat="42.39685" lon="2.47747">
        <ele>846.6</ele>
        <time>2022-05-21 19:36:13</time>
      </trkpt>
      <trkpt lat="42.39684" lon="2.47749">
        <ele>846.8</ele>
        <time>2022-05-21 19:36:14</time>
      </trkpt>
      <trkpt lat="42.39682" lon="2.47752">
        <ele>846.8</ele>
        <time>2022-05-21 19:36:15</time>
      </trkpt>
      <trkpt lat="42.39681" lon="2.47754">
        <ele>847</ele>
        <time>2022-05-21 19:36:16</time>
      </trkpt>
      <trkpt lat="42.39679" lon="2.47756">
        <ele>847</ele>
        <time>2022-05-21 19:36:17</time>
      </trkpt>
      <trkpt lat="42.39678" lon="2.47759">
        <ele>847.2</ele>
        <time>2022-05-21 19:36:18</time>
      </trkpt>
      <trkpt lat="42.39677" lon="2.47761">
        <ele>847.2</ele>
        <time>2022-05-21 19:36:19</time>
      </trkpt>
      <trkpt lat="42.39675" lon="2.47762">
        <ele>847.4</ele>
        <time>2022-05-21 19:36:20</time>
      </trkpt>
      <trkpt lat="42.39673" lon="2.47764">
        <ele>847.6</ele>
        <time>2022-05-21 19:36:21</time>
      </trkpt>
      <trkpt lat="42.3967" lon="2.47765">
        <ele>847.6</ele>
        <time>2022-05-21 19:36:22</time>
      </trkpt>
      <trkpt lat="42.39669" lon="2.47765">
        <ele>847.8</ele>
        <time>2022-05-21 19:36:23</time>
      </trkpt>
      <trkpt lat="42.39666" lon="2.47766">
        <ele>847.8</ele>
        <time>2022-05-21 19:36:24</time>
      </trkpt>
      <trkpt lat="42.39665" lon="2.47766">
        <ele>848</ele>
        <time>2022-05-21 19:36:25</time>
      </trkpt>
      <trkpt lat="42.39663" lon="2.47767">
        <ele>848.2</ele>
        <time>2022-05-21 19:36:26</time>
      </trkpt>
      <trkpt lat="42.39661" lon="2.47768">
        <ele>848.2</ele>
        <time>2022-05-21 19:36:27</time>
      </trkpt>
      <trkpt lat="42.39659" lon="2.47768">
        <ele>848.4</ele>
        <time>2022-05-21 19:36:28</time>
      </trkpt>
      <trkpt lat="42.39657" lon="2.47769">
        <ele>848.4</ele>
        <time>2022-05-21 19:36:29</time>
      </trkpt>
      <trkpt lat="42.39654" lon="2.4777">
        <ele>848.6</ele>
        <time>2022-05-21 19:36:30</time>
      </trkpt>
      <trkpt lat="42.39652" lon="2.4777">
        <ele>848.8</ele>
        <time>2022-05-21 19:36:31</time>
      </trkpt>
      <trkpt lat="42.3965" lon="2.47771">
        <ele>848.8</ele>
        <time>2022-05-21 19:36:32</time>
      </trkpt>
      <trkpt lat="42.39647" lon="2.47771">
        <ele>849</ele>
        <time>2022-05-21 19:36:33</time>
      </trkpt>
      <trkpt lat="42.39645" lon="2.47772">
        <ele>849.2</ele>
        <time>2022-05-21 19:36:34</time>
      </trkpt>
      <trkpt lat="42.39643" lon="2.47773">
        <ele>849.2</ele>
        <time>2022-05-21 19:36:35</time>
      </trkpt>
      <trkpt lat="42.39641" lon="2.47773">
        <ele>849.4</ele>
        <time>2022-05-21 19:36:36</time>
      </trkpt>
      <trkpt lat="42.39639" lon="2.47774">
        <ele>849.4</ele>
        <time>2022-05-21 19:36:37</time>
      </trkpt>
      <trkpt lat="42.39637" lon="2.47774">
        <ele>849.6</ele>
        <time>2022-05-21 19:36:38</time>
      </trkpt>
      <trkpt lat="42.39635" lon="2.47775">
        <ele>849.6</ele>
        <time>2022-05-21 19:36:39</time>
      </trkpt>
      <trkpt lat="42.39633" lon="2.47775">
        <ele>849.8</ele>
        <time>2022-05-21 19:36:40</time>
      </trkpt>
      <trkpt lat="42.39631" lon="2.47776">
        <ele>850</ele>
        <time>2022-05-21 19:36:41</time>
      </trkpt>
      <trkpt lat="42.39629" lon="2.47776">
        <ele>850</ele>
        <time>2022-05-21 19:36:42</time>
      </trkpt>
      <trkpt lat="42.39627" lon="2.47777">
        <ele>850.2</ele>
        <time>2022-05-21 19:36:43</time>
      </trkpt>
      <trkpt lat="42.39625" lon="2.47777">
        <ele>850.4</ele>
        <time>2022-05-21 19:36:44</time>
      </trkpt>
      <trkpt lat="42.39623" lon="2.47778">
        <ele>850.4</ele>
        <time>2022-05-21 19:36:45</time>
      </trkpt>
      <trkpt lat="42.39621" lon="2.47778">
        <ele>850.6</ele>
        <time>2022-05-21 19:36:46</time>
      </trkpt>
      <trkpt lat="42.39619" lon="2.47779">
        <ele>850.8</ele>
        <time>2022-05-21 19:36:47</time>
      </trkpt>
      <trkpt lat="42.39617" lon="2.4778">
        <ele>850.8</ele>
        <time>2022-05-21 19:36:48</time>
      </trkpt>
      <trkpt lat="42.39615" lon="2.4778">
        <ele>851</ele>
        <time>2022-05-21 19:36:49</time>
      </trkpt>
      <trkpt lat="42.39613" lon="2.47781">
        <ele>851.2</ele>
        <time>2022-05-21 19:36:50</time>
      </trkpt>
      <trkpt lat="42.39611" lon="2.47781">
        <ele>851.2</ele>
        <time>2022-05-21 19:36:51</time>
      </trkpt>
      <trkpt lat="42.39609" lon="2.47782">
        <ele>851.4</ele>
        <time>2022-05-21 19:36:52</time>
      </trkpt>
      <trkpt lat="42.39607" lon="2.47783">
        <ele>851.6</ele>
        <time>2022-05-21 19:36:53</time>
      </trkpt>
      <trkpt lat="42.39605" lon="2.47784">
        <ele>851.8</ele>
        <time>2022-05-21 19:36:54</time>
      </trkpt>
      <trkpt lat="42.39603" lon="2.47785">
        <ele>852</ele>
        <time>2022-05-21 19:36:55</time>
      </trkpt>
      <trkpt lat="42.39602" lon="2.47786">
        <ele>852</ele>
        <time>2022-05-21 19:36:56</time>
      </trkpt>
      <trkpt lat="42.39599" lon="2.47787">
        <ele>852.2</ele>
        <time>2022-05-21 19:36:57</time>
      </trkpt>
      <trkpt lat="42.39598" lon="2.47787">
        <ele>852.4</ele>
        <time>2022-05-21 19:36:58</time>
      </trkpt>
      <trkpt lat="42.39596" lon="2.47788">
        <ele>852.6</ele>
        <time>2022-05-21 19:36:59</time>
      </trkpt>
      <trkpt lat="42.39594" lon="2.47789">
        <ele>852.8</ele>
        <time>2022-05-21 19:37:00</time>
      </trkpt>
      <trkpt lat="42.39592" lon="2.47789">
        <ele>852.8</ele>
        <time>2022-05-21 19:37:01</time>
      </trkpt>
      <trkpt lat="42.3959" lon="2.4779">
        <ele>853</ele>
        <time>2022-05-21 19:37:02</time>
      </trkpt>
      <trkpt lat="42.39588" lon="2.47791">
        <ele>853.2</ele>
        <time>2022-05-21 19:37:03</time>
      </trkpt>
      <trkpt lat="42.39587" lon="2.47791">
        <ele>853.4</ele>
        <time>2022-05-21 19:37:04</time>
      </trkpt>
      <trkpt lat="42.39585" lon="2.47792">
        <ele>853.6</ele>
        <time>2022-05-21 19:37:05</time>
      </trkpt>
      <trkpt lat="42.39583" lon="2.47792">
        <ele>853.6</ele>
        <time>2022-05-21 19:37:06</time>
      </trkpt>
      <trkpt lat="42.39581" lon="2.47792">
        <ele>853.8</ele>
        <time>2022-05-21 19:37:07</time>
      </trkpt>
      <trkpt lat="42.39579" lon="2.47793">
        <ele>854</ele>
        <time>2022-05-21 19:37:08</time>
      </trkpt>
      <trkpt lat="42.39578" lon="2.47793">
        <ele>854.2</ele>
        <time>2022-05-21 19:37:09</time>
      </trkpt>
      <trkpt lat="42.39576" lon="2.47794">
        <ele>854.4</ele>
        <time>2022-05-21 19:37:10</time>
      </trkpt>
      <trkpt lat="42.39574" lon="2.47795">
        <ele>854.6</ele>
        <time>2022-05-21 19:37:11</time>
      </trkpt>
      <trkpt lat="42.39573" lon="2.47795">
        <ele>854.8</ele>
        <time>2022-05-21 19:37:12</time>
      </trkpt>
      <trkpt lat="42.39572" lon="2.47796">
        <ele>855</ele>
        <time>2022-05-21 19:37:13</time>
      </trkpt>
      <trkpt lat="42.3957" lon="2.47797">
        <ele>855</ele>
        <time>2022-05-21 19:37:14</time>
      </trkpt>
      <trkpt lat="42.39568" lon="2.47798">
        <ele>855.2</ele>
        <time>2022-05-21 19:37:15</time>
      </trkpt>
      <trkpt lat="42.39566" lon="2.47799">
        <ele>855.4</ele>
        <time>2022-05-21 19:37:16</time>
      </trkpt>
      <trkpt lat="42.39564" lon="2.47799">
        <ele>855.6</ele>
        <time>2022-05-21 19:37:17</time>
      </trkpt>
      <trkpt lat="42.39563" lon="2.47799">
        <ele>855.8</ele>
        <time>2022-05-21 19:37:18</time>
      </trkpt>
      <trkpt lat="42.3956" lon="2.478">
        <ele>856</ele>
        <time>2022-05-21 19:37:19</time>
      </trkpt>
      <trkpt lat="42.39558" lon="2.478">
        <ele>856</ele>
        <time>2022-05-21 19:37:20</time>
      </trkpt>
      <trkpt lat="42.39557" lon="2.478">
        <ele>856.2</ele>
        <time>2022-05-21 19:37:21</time>
      </trkpt>
      <trkpt lat="42.39555" lon="2.47801">
        <ele>856.4</ele>
        <time>2022-05-21 19:37:22</time>
      </trkpt>
      <trkpt lat="42.39553" lon="2.47802">
        <ele>856.6</ele>
        <time>2022-05-21 19:37:23</time>
      </trkpt>
      <trkpt lat="42.39551" lon="2.47803">
        <ele>856.8</ele>
        <time>2022-05-21 19:37:24</time>
      </trkpt>
      <trkpt lat="42.3955" lon="2.47803">
        <ele>856.8</ele>
        <time>2022-05-21 19:37:25</time>
      </trkpt>
      <trkpt lat="42.39548" lon="2.47804">
        <ele>857</ele>
        <time>2022-05-21 19:37:26</time>
      </trkpt>
      <trkpt lat="42.39547" lon="2.47805">
        <ele>857.2</ele>
        <time>2022-05-21 19:37:27</time>
      </trkpt>
      <trkpt lat="42.39545" lon="2.47805">
        <ele>857.4</ele>
        <time>2022-05-21 19:37:28</time>
      </trkpt>
      <trkpt lat="42.39543" lon="2.47806">
        <ele>857.6</ele>
        <time>2022-05-21 19:37:29</time>
      </trkpt>
      <trkpt lat="42.39542" lon="2.47807">
        <ele>857.6</ele>
        <time>2022-05-21 19:37:30</time>
      </trkpt>
      <trkpt lat="42.3954" lon="2.47809">
        <ele>857.8</ele>
        <time>2022-05-21 19:37:31</time>
      </trkpt>
      <trkpt lat="42.39539" lon="2.4781">
        <ele>858</ele>
        <time>2022-05-21 19:37:32</time>
      </trkpt>
      <trkpt lat="42.39538" lon="2.47812">
        <ele>858</ele>
        <time>2022-05-21 19:37:33</time>
      </trkpt>
      <trkpt lat="42.39536" lon="2.47813">
        <ele>858.2</ele>
        <time>2022-05-21 19:37:34</time>
      </trkpt>
      <trkpt lat="42.39534" lon="2.47814">
        <ele>858.4</ele>
        <time>2022-05-21 19:37:35</time>
      </trkpt>
      <trkpt lat="42.39532" lon="2.47815">
        <ele>858.4</ele>
        <time>2022-05-21 19:37:36</time>
      </trkpt>
      <trkpt lat="42.3953" lon="2.47816">
        <ele>858.6</ele>
        <time>2022-05-21 19:37:37</time>
      </trkpt>
      <trkpt lat="42.39528" lon="2.47817">
        <ele>858.8</ele>
        <time>2022-05-21 19:37:38</time>
      </trkpt>
      <trkpt lat="42.39527" lon="2.47819">
        <ele>859</ele>
        <time>2022-05-21 19:37:39</time>
      </trkpt>
      <trkpt lat="42.39525" lon="2.4782">
        <ele>859</ele>
        <time>2022-05-21 19:37:40</time>
      </trkpt>
      <trkpt lat="42.39524" lon="2.47821">
        <ele>859.2</ele>
        <time>2022-05-21 19:37:41</time>
      </trkpt>
      <trkpt lat="42.39523" lon="2.47823">
        <ele>859.4</ele>
        <time>2022-05-21 19:37:42</time>
      </trkpt>
      <trkpt lat="42.39521" lon="2.47824">
        <ele>859.4</ele>
        <time>2022-05-21 19:37:43</time>
      </trkpt>
      <trkpt lat="42.39519" lon="2.47825">
        <ele>859.6</ele>
        <time>2022-05-21 19:37:44</time>
      </trkpt>
      <trkpt lat="42.39518" lon="2.47827">
        <ele>859.8</ele>
        <time>2022-05-21 19:37:45</time>
      </trkpt>
      <trkpt lat="42.39516" lon="2.47828">
        <ele>859.8</ele>
        <time>2022-05-21 19:37:46</time>
      </trkpt>
      <trkpt lat="42.39516" lon="2.4783">
        <ele>860</ele>
        <time>2022-05-21 19:37:47</time>
      </trkpt>
      <trkpt lat="42.39514" lon="2.47832">
        <ele>860.2</ele>
        <time>2022-05-21 19:37:48</time>
      </trkpt>
      <trkpt lat="42.39513" lon="2.47833">
        <ele>860.4</ele>
        <time>2022-05-21 19:37:49</time>
      </trkpt>
      <trkpt lat="42.39512" lon="2.47834">
        <ele>860.4</ele>
        <time>2022-05-21 19:37:50</time>
      </trkpt>
      <trkpt lat="42.3951" lon="2.47835">
        <ele>860.6</ele>
        <time>2022-05-21 19:37:51</time>
      </trkpt>
      <trkpt lat="42.39509" lon="2.47836">
        <ele>860.8</ele>
        <time>2022-05-21 19:37:52</time>
      </trkpt>
      <trkpt lat="42.39507" lon="2.47838">
        <ele>860.8</ele>
        <time>2022-05-21 19:37:53</time>
      </trkpt>
      <trkpt lat="42.39506" lon="2.4784">
        <ele>861</ele>
        <time>2022-05-21 19:37:54</time>
      </trkpt>
      <trkpt lat="42.39504" lon="2.47841">
        <ele>861.2</ele>
        <time>2022-05-21 19:37:55</time>
      </trkpt>
      <trkpt lat="42.39503" lon="2.47842">
        <ele>861.2</ele>
        <time>2022-05-21 19:37:56</time>
      </trkpt>
      <trkpt lat="42.39501" lon="2.47844">
        <ele>861.4</ele>
        <time>2022-05-21 19:37:57</time>
      </trkpt>
      <trkpt lat="42.395" lon="2.47845">
        <ele>861.6</ele>
        <time>2022-05-21 19:37:58</time>
      </trkpt>
      <trkpt lat="42.39498" lon="2.47846">
        <ele>861.6</ele>
        <time>2022-05-21 19:37:59</time>
      </trkpt>
      <trkpt lat="42.39497" lon="2.47847">
        <ele>861.8</ele>
        <time>2022-05-21 19:38:00</time>
      </trkpt>
      <trkpt lat="42.39495" lon="2.47849">
        <ele>862</ele>
        <time>2022-05-21 19:38:01</time>
      </trkpt>
      <trkpt lat="42.39494" lon="2.47851">
        <ele>862.2</ele>
        <time>2022-05-21 19:38:02</time>
      </trkpt>
      <trkpt lat="42.39493" lon="2.47853">
        <ele>862.2</ele>
        <time>2022-05-21 19:38:03</time>
      </trkpt>
      <trkpt lat="42.39492" lon="2.47854">
        <ele>862.4</ele>
        <time>2022-05-21 19:38:04</time>
      </trkpt>
      <trkpt lat="42.3949" lon="2.47856">
        <ele>862.6</ele>
        <time>2022-05-21 19:38:05</time>
      </trkpt>
      <trkpt lat="42.39489" lon="2.47858">
        <ele>862.8</ele>
        <time>2022-05-21 19:38:06</time>
      </trkpt>
      <trkpt lat="42.39488" lon="2.4786">
        <ele>863</ele>
        <time>2022-05-21 19:38:07</time>
      </trkpt>
      <trkpt lat="42.39487" lon="2.47862">
        <ele>863</ele>
        <time>2022-05-21 19:38:08</time>
      </trkpt>
      <trkpt lat="42.39486" lon="2.47864">
        <ele>863.2</ele>
        <time>2022-05-21 19:38:09</time>
      </trkpt>
      <trkpt lat="42.39485" lon="2.47866">
        <ele>863.4</ele>
        <time>2022-05-21 19:38:10</time>
      </trkpt>
      <trkpt lat="42.39483" lon="2.47868">
        <ele>863.6</ele>
        <time>2022-05-21 19:38:11</time>
      </trkpt>
      <trkpt lat="42.39482" lon="2.4787">
        <ele>863.8</ele>
        <time>2022-05-21 19:38:12</time>
      </trkpt>
      <trkpt lat="42.39481" lon="2.47871">
        <ele>864</ele>
        <time>2022-05-21 19:38:13</time>
      </trkpt>
      <trkpt lat="42.3948" lon="2.47873">
        <ele>864</ele>
        <time>2022-05-21 19:38:14</time>
      </trkpt>
      <trkpt lat="42.39479" lon="2.47874">
        <ele>864.2</ele>
        <time>2022-05-21 19:38:15</time>
      </trkpt>
      <trkpt lat="42.39477" lon="2.47876">
        <ele>864.4</ele>
        <time>2022-05-21 19:38:16</time>
      </trkpt>
      <trkpt lat="42.39476" lon="2.47877">
        <ele>864.6</ele>
        <time>2022-05-21 19:38:17</time>
      </trkpt>
      <trkpt lat="42.39475" lon="2.47878">
        <ele>864.8</ele>
        <time>2022-05-21 19:38:18</time>
      </trkpt>
      <trkpt lat="42.39473" lon="2.47879">
        <ele>865</ele>
        <time>2022-05-21 19:38:19</time>
      </trkpt>
      <trkpt lat="42.39472" lon="2.47881">
        <ele>865</ele>
        <time>2022-05-21 19:38:20</time>
      </trkpt>
      <trkpt lat="42.39471" lon="2.47882">
        <ele>865.2</ele>
        <time>2022-05-21 19:38:21</time>
      </trkpt>
      <trkpt lat="42.39469" lon="2.47883">
        <ele>865.4</ele>
        <time>2022-05-21 19:38:22</time>
      </trkpt>
      <trkpt lat="42.39468" lon="2.47885">
        <ele>865.6</ele>
        <time>2022-05-21 19:38:23</time>
      </trkpt>
      <trkpt lat="42.39467" lon="2.47887">
        <ele>865.8</ele>
        <time>2022-05-21 19:38:24</time>
      </trkpt>
      <trkpt lat="42.39466" lon="2.47888">
        <ele>865.8</ele>
        <time>2022-05-21 19:38:25</time>
      </trkpt>
      <trkpt lat="42.39465" lon="2.4789">
        <ele>866</ele>
        <time>2022-05-21 19:38:26</time>
      </trkpt>
      <trkpt lat="42.39464" lon="2.47891">
        <ele>866.2</ele>
        <time>2022-05-21 19:38:27</time>
      </trkpt>
      <trkpt lat="42.39463" lon="2.47893">
        <ele>866.4</ele>
        <time>2022-05-21 19:38:28</time>
      </trkpt>
      <trkpt lat="42.39463" lon="2.47894">
        <ele>866.6</ele>
        <time>2022-05-21 19:38:29</time>
      </trkpt>
      <trkpt lat="42.39462" lon="2.47895">
        <ele>866.8</ele>
        <time>2022-05-21 19:38:30</time>
      </trkpt>
      <trkpt lat="42.39461" lon="2.47896">
        <ele>867</ele>
        <time>2022-05-21 19:38:31</time>
      </trkpt>
      <trkpt lat="42.39459" lon="2.47898">
        <ele>867.2</ele>
        <time>2022-05-21 19:38:32</time>
      </trkpt>
      <trkpt lat="42.39458" lon="2.47899">
        <ele>867.2</ele>
        <time>2022-05-21 19:38:33</time>
      </trkpt>
      <trkpt lat="42.39457" lon="2.47901">
        <ele>867.4</ele>
        <time>2022-05-21 19:38:34</time>
      </trkpt>
      <trkpt lat="42.39457" lon="2.47903">
        <ele>867.6</ele>
        <time>2022-05-21 19:38:35</time>
      </trkpt>
      <trkpt lat="42.39456" lon="2.47905">
        <ele>867.8</ele>
        <time>2022-05-21 19:38:36</time>
      </trkpt>
      <trkpt lat="42.39454" lon="2.47907">
        <ele>868</ele>
        <time>2022-05-21 19:38:37</time>
      </trkpt>
      <trkpt lat="42.39453" lon="2.47908">
        <ele>868</ele>
        <time>2022-05-21 19:38:38</time>
      </trkpt>
      <trkpt lat="42.39452" lon="2.47909">
        <ele>868.2</ele>
        <time>2022-05-21 19:38:39</time>
      </trkpt>
      <trkpt lat="42.39451" lon="2.4791">
        <ele>868.4</ele>
        <time>2022-05-21 19:38:40</time>
      </trkpt>
      <trkpt lat="42.39449" lon="2.47911">
        <ele>868.6</ele>
        <time>2022-05-21 19:38:41</time>
      </trkpt>
      <trkpt lat="42.39448" lon="2.47912">
        <ele>868.8</ele>
        <time>2022-05-21 19:38:42</time>
      </trkpt>
      <trkpt lat="42.39447" lon="2.47913">
        <ele>868.8</ele>
        <time>2022-05-21 19:38:43</time>
      </trkpt>
      <trkpt lat="42.39446" lon="2.47913">
        <ele>869</ele>
        <time>2022-05-21 19:38:44</time>
      </trkpt>
      <trkpt lat="42.39445" lon="2.47913">
        <ele>869.2</ele>
        <time>2022-05-21 19:38:45</time>
      </trkpt>
      <trkpt lat="42.39444" lon="2.47914">
        <ele>869.4</ele>
        <time>2022-05-21 19:38:46</time>
      </trkpt>
      <trkpt lat="42.39444" lon="2.47914">
        <ele>869.6</ele>
        <time>2022-05-21 19:38:47</time>
      </trkpt>
      <trkpt lat="42.39441" lon="2.47916">
        <ele>870</ele>
        <time>2022-05-21 19:38:51</time>
      </trkpt>
      <trkpt lat="42.39437" lon="2.47919">
        <ele>870.2</ele>
        <time>2022-05-21 19:38:52</time>
      </trkpt>
      <trkpt lat="42.39435" lon="2.47919">
        <ele>870.2</ele>
        <time>2022-05-21 19:38:53</time>
      </trkpt>
      <trkpt lat="42.39433" lon="2.47919">
        <ele>870.2</ele>
        <time>2022-05-21 19:38:54</time>
      </trkpt>
      <trkpt lat="42.39431" lon="2.4792">
        <ele>870.4</ele>
        <time>2022-05-21 19:38:55</time>
      </trkpt>
      <trkpt lat="42.39429" lon="2.47921">
        <ele>870.4</ele>
        <time>2022-05-21 19:38:56</time>
      </trkpt>
      <trkpt lat="42.39428" lon="2.47921">
        <ele>870.6</ele>
        <time>2022-05-21 19:38:57</time>
      </trkpt>
      <trkpt lat="42.39426" lon="2.47922">
        <ele>870.8</ele>
        <time>2022-05-21 19:38:58</time>
      </trkpt>
      <trkpt lat="42.39424" lon="2.47922">
        <ele>870.8</ele>
        <time>2022-05-21 19:38:59</time>
      </trkpt>
      <trkpt lat="42.39421" lon="2.47922">
        <ele>871</ele>
        <time>2022-05-21 19:39:00</time>
      </trkpt>
      <trkpt lat="42.3942" lon="2.47922">
        <ele>871.2</ele>
        <time>2022-05-21 19:39:01</time>
      </trkpt>
      <trkpt lat="42.39417" lon="2.47923">
        <ele>871.2</ele>
        <time>2022-05-21 19:39:02</time>
      </trkpt>
      <trkpt lat="42.39415" lon="2.47924">
        <ele>871.4</ele>
        <time>2022-05-21 19:39:03</time>
      </trkpt>
      <trkpt lat="42.39413" lon="2.47924">
        <ele>871.6</ele>
        <time>2022-05-21 19:39:04</time>
      </trkpt>
      <trkpt lat="42.39411" lon="2.47924">
        <ele>871.8</ele>
        <time>2022-05-21 19:39:05</time>
      </trkpt>
      <trkpt lat="42.39409" lon="2.47925">
        <ele>871.8</ele>
        <time>2022-05-21 19:39:06</time>
      </trkpt>
      <trkpt lat="42.39407" lon="2.47926">
        <ele>872</ele>
        <time>2022-05-21 19:39:07</time>
      </trkpt>
      <trkpt lat="42.39405" lon="2.47927">
        <ele>872</ele>
        <time>2022-05-21 19:39:08</time>
      </trkpt>
      <trkpt lat="42.39403" lon="2.47928">
        <ele>872.2</ele>
        <time>2022-05-21 19:39:09</time>
      </trkpt>
      <trkpt lat="42.39401" lon="2.4793">
        <ele>872.4</ele>
        <time>2022-05-21 19:39:10</time>
      </trkpt>
      <trkpt lat="42.39399" lon="2.47931">
        <ele>872.4</ele>
        <time>2022-05-21 19:39:11</time>
      </trkpt>
      <trkpt lat="42.39397" lon="2.47932">
        <ele>872.6</ele>
        <time>2022-05-21 19:39:12</time>
      </trkpt>
      <trkpt lat="42.39395" lon="2.47934">
        <ele>872.8</ele>
        <time>2022-05-21 19:39:13</time>
      </trkpt>
      <trkpt lat="42.39393" lon="2.47935">
        <ele>872.8</ele>
        <time>2022-05-21 19:39:14</time>
      </trkpt>
      <trkpt lat="42.39392" lon="2.47937">
        <ele>873</ele>
        <time>2022-05-21 19:39:15</time>
      </trkpt>
      <trkpt lat="42.3939" lon="2.47938">
        <ele>873</ele>
        <time>2022-05-21 19:39:16</time>
      </trkpt>
      <trkpt lat="42.39389" lon="2.47939">
        <ele>873.2</ele>
        <time>2022-05-21 19:39:17</time>
      </trkpt>
      <trkpt lat="42.39387" lon="2.47941">
        <ele>873.2</ele>
        <time>2022-05-21 19:39:18</time>
      </trkpt>
      <trkpt lat="42.39386" lon="2.47943">
        <ele>873.4</ele>
        <time>2022-05-21 19:39:19</time>
      </trkpt>
      <trkpt lat="42.39384" lon="2.47945">
        <ele>873.4</ele>
        <time>2022-05-21 19:39:20</time>
      </trkpt>
      <trkpt lat="42.39383" lon="2.47947">
        <ele>873.6</ele>
        <time>2022-05-21 19:39:21</time>
      </trkpt>
      <trkpt lat="42.39381" lon="2.47949">
        <ele>873.8</ele>
        <time>2022-05-21 19:39:22</time>
      </trkpt>
      <trkpt lat="42.3938" lon="2.47951">
        <ele>873.8</ele>
        <time>2022-05-21 19:39:23</time>
      </trkpt>
      <trkpt lat="42.39379" lon="2.47953">
        <ele>874</ele>
        <time>2022-05-21 19:39:24</time>
      </trkpt>
      <trkpt lat="42.39377" lon="2.47955">
        <ele>874</ele>
        <time>2022-05-21 19:39:25</time>
      </trkpt>
      <trkpt lat="42.39377" lon="2.47957">
        <ele>874.2</ele>
        <time>2022-05-21 19:39:26</time>
      </trkpt>
      <trkpt lat="42.39376" lon="2.4796">
        <ele>874.2</ele>
        <time>2022-05-21 19:39:27</time>
      </trkpt>
      <trkpt lat="42.39376" lon="2.47963">
        <ele>874.4</ele>
        <time>2022-05-21 19:39:28</time>
      </trkpt>
      <trkpt lat="42.39376" lon="2.47966">
        <ele>874.4</ele>
        <time>2022-05-21 19:39:29</time>
      </trkpt>
      <trkpt lat="42.39377" lon="2.47969">
        <ele>874.6</ele>
        <time>2022-05-21 19:39:30</time>
      </trkpt>
      <trkpt lat="42.39377" lon="2.47972">
        <ele>874.6</ele>
        <time>2022-05-21 19:39:31</time>
      </trkpt>
      <trkpt lat="42.39378" lon="2.47974">
        <ele>874.8</ele>
        <time>2022-05-21 19:39:32</time>
      </trkpt>
      <trkpt lat="42.39379" lon="2.47977">
        <ele>875</ele>
        <time>2022-05-21 19:39:33</time>
      </trkpt>
      <trkpt lat="42.39379" lon="2.47978">
        <ele>875</ele>
        <time>2022-05-21 19:39:34</time>
      </trkpt>
      <trkpt lat="42.3938" lon="2.4798">
        <ele>875.2</ele>
        <time>2022-05-21 19:39:35</time>
      </trkpt>
      <trkpt lat="42.39381" lon="2.47982">
        <ele>875.4</ele>
        <time>2022-05-21 19:39:36</time>
      </trkpt>
      <trkpt lat="42.39382" lon="2.47984">
        <ele>875.6</ele>
        <time>2022-05-21 19:39:37</time>
      </trkpt>
      <trkpt lat="42.39382" lon="2.47986">
        <ele>875.8</ele>
        <time>2022-05-21 19:39:38</time>
      </trkpt>
      <trkpt lat="42.39383" lon="2.47988">
        <ele>875.8</ele>
        <time>2022-05-21 19:39:39</time>
      </trkpt>
      <trkpt lat="42.39384" lon="2.47989">
        <ele>876</ele>
        <time>2022-05-21 19:39:40</time>
      </trkpt>
      <trkpt lat="42.39385" lon="2.47991">
        <ele>876.2</ele>
        <time>2022-05-21 19:39:41</time>
      </trkpt>
      <trkpt lat="42.39386" lon="2.47993">
        <ele>876.4</ele>
        <time>2022-05-21 19:39:42</time>
      </trkpt>
      <trkpt lat="42.39386" lon="2.47996">
        <ele>876.6</ele>
        <time>2022-05-21 19:39:43</time>
      </trkpt>
      <trkpt lat="42.39388" lon="2.47998">
        <ele>876.6</ele>
        <time>2022-05-21 19:39:44</time>
      </trkpt>
      <trkpt lat="42.39389" lon="2.48">
        <ele>876.8</ele>
        <time>2022-05-21 19:39:45</time>
      </trkpt>
      <trkpt lat="42.39391" lon="2.48003">
        <ele>877</ele>
        <time>2022-05-21 19:39:46</time>
      </trkpt>
      <trkpt lat="42.39392" lon="2.48005">
        <ele>877.2</ele>
        <time>2022-05-21 19:39:47</time>
      </trkpt>
      <trkpt lat="42.39394" lon="2.48008">
        <ele>877.2</ele>
        <time>2022-05-21 19:39:48</time>
      </trkpt>
      <trkpt lat="42.39395" lon="2.4801">
        <ele>877.4</ele>
        <time>2022-05-21 19:39:49</time>
      </trkpt>
      <trkpt lat="42.39397" lon="2.48013">
        <ele>877.6</ele>
        <time>2022-05-21 19:39:50</time>
      </trkpt>
      <trkpt lat="42.39398" lon="2.48015">
        <ele>877.8</ele>
        <time>2022-05-21 19:39:51</time>
      </trkpt>
      <trkpt lat="42.394" lon="2.48018">
        <ele>877.8</ele>
        <time>2022-05-21 19:39:52</time>
      </trkpt>
      <trkpt lat="42.39401" lon="2.4802">
        <ele>878</ele>
        <time>2022-05-21 19:39:53</time>
      </trkpt>
      <trkpt lat="42.39402" lon="2.48022">
        <ele>878.2</ele>
        <time>2022-05-21 19:39:54</time>
      </trkpt>
      <trkpt lat="42.39403" lon="2.48025">
        <ele>878.4</ele>
        <time>2022-05-21 19:39:55</time>
      </trkpt>
      <trkpt lat="42.39403" lon="2.48028">
        <ele>878.6</ele>
        <time>2022-05-21 19:39:56</time>
      </trkpt>
      <trkpt lat="42.39404" lon="2.48032">
        <ele>878.6</ele>
        <time>2022-05-21 19:39:57</time>
      </trkpt>
      <trkpt lat="42.39405" lon="2.48035">
        <ele>878.8</ele>
        <time>2022-05-21 19:39:58</time>
      </trkpt>
      <trkpt lat="42.39407" lon="2.48037">
        <ele>879</ele>
        <time>2022-05-21 19:39:59</time>
      </trkpt>
      <trkpt lat="42.39408" lon="2.48039">
        <ele>879.2</ele>
        <time>2022-05-21 19:40:00</time>
      </trkpt>
      <trkpt lat="42.39408" lon="2.48042">
        <ele>879.4</ele>
        <time>2022-05-21 19:40:01</time>
      </trkpt>
      <trkpt lat="42.39408" lon="2.48044">
        <ele>879.6</ele>
        <time>2022-05-21 19:40:02</time>
      </trkpt>
      <trkpt lat="42.39409" lon="2.48046">
        <ele>879.8</ele>
        <time>2022-05-21 19:40:03</time>
      </trkpt>
      <trkpt lat="42.3941" lon="2.48048">
        <ele>880</ele>
        <time>2022-05-21 19:40:04</time>
      </trkpt>
      <trkpt lat="42.3941" lon="2.48051">
        <ele>880.2</ele>
        <time>2022-05-21 19:40:05</time>
      </trkpt>
      <trkpt lat="42.39411" lon="2.48053">
        <ele>880.4</ele>
        <time>2022-05-21 19:40:06</time>
      </trkpt>
      <trkpt lat="42.39411" lon="2.48056">
        <ele>880.4</ele>
        <time>2022-05-21 19:40:07</time>
      </trkpt>
      <trkpt lat="42.39412" lon="2.48059">
        <ele>880.6</ele>
        <time>2022-05-21 19:40:08</time>
      </trkpt>
      <trkpt lat="42.39413" lon="2.48061">
        <ele>880.8</ele>
        <time>2022-05-21 19:40:09</time>
      </trkpt>
      <trkpt lat="42.39415" lon="2.48064">
        <ele>881</ele>
        <time>2022-05-21 19:40:10</time>
      </trkpt>
      <trkpt lat="42.39416" lon="2.48067">
        <ele>881.2</ele>
        <time>2022-05-21 19:40:11</time>
      </trkpt>
      <trkpt lat="42.39416" lon="2.48069">
        <ele>881.4</ele>
        <time>2022-05-21 19:40:12</time>
      </trkpt>
      <trkpt lat="42.39418" lon="2.48072">
        <ele>881.4</ele>
        <time>2022-05-21 19:40:13</time>
      </trkpt>
      <trkpt lat="42.39419" lon="2.48074">
        <ele>881.6</ele>
        <time>2022-05-21 19:40:14</time>
      </trkpt>
      <trkpt lat="42.3942" lon="2.48076">
        <ele>881.8</ele>
        <time>2022-05-21 19:40:15</time>
      </trkpt>
      <trkpt lat="42.39421" lon="2.48078">
        <ele>882</ele>
        <time>2022-05-21 19:40:16</time>
      </trkpt>
      <trkpt lat="42.39422" lon="2.48081">
        <ele>882.2</ele>
        <time>2022-05-21 19:40:17</time>
      </trkpt>
      <trkpt lat="42.39423" lon="2.48083">
        <ele>882.4</ele>
        <time>2022-05-21 19:40:18</time>
      </trkpt>
      <trkpt lat="42.39424" lon="2.48085">
        <ele>882.6</ele>
        <time>2022-05-21 19:40:19</time>
      </trkpt>
      <trkpt lat="42.39426" lon="2.48086">
        <ele>882.8</ele>
        <time>2022-05-21 19:40:20</time>
      </trkpt>
      <trkpt lat="42.39427" lon="2.48088">
        <ele>883</ele>
        <time>2022-05-21 19:40:21</time>
      </trkpt>
      <trkpt lat="42.39428" lon="2.48091">
        <ele>883.2</ele>
        <time>2022-05-21 19:40:22</time>
      </trkpt>
      <trkpt lat="42.39429" lon="2.48093">
        <ele>883.4</ele>
        <time>2022-05-21 19:40:23</time>
      </trkpt>
      <trkpt lat="42.39429" lon="2.48095">
        <ele>883.4</ele>
        <time>2022-05-21 19:40:24</time>
      </trkpt>
      <trkpt lat="42.39429" lon="2.48096">
        <ele>883.6</ele>
        <time>2022-05-21 19:40:25</time>
      </trkpt>
      <trkpt lat="42.39429" lon="2.48098">
        <ele>883.8</ele>
        <time>2022-05-21 19:40:26</time>
      </trkpt>
      <trkpt lat="42.3943" lon="2.48099">
        <ele>884</ele>
        <time>2022-05-21 19:40:27</time>
      </trkpt>
      <trkpt lat="42.3943" lon="2.48101">
        <ele>884.2</ele>
        <time>2022-05-21 19:40:28</time>
      </trkpt>
      <trkpt lat="42.39432" lon="2.48103">
        <ele>884.4</ele>
        <time>2022-05-21 19:40:29</time>
      </trkpt>
      <trkpt lat="42.39433" lon="2.48104">
        <ele>884.4</ele>
        <time>2022-05-21 19:40:30</time>
      </trkpt>
      <trkpt lat="42.39434" lon="2.48106">
        <ele>884.6</ele>
        <time>2022-05-21 19:40:31</time>
      </trkpt>
      <trkpt lat="42.39435" lon="2.48107">
        <ele>884.8</ele>
        <time>2022-05-21 19:40:32</time>
      </trkpt>
      <trkpt lat="42.39435" lon="2.48108">
        <ele>885</ele>
        <time>2022-05-21 19:40:33</time>
      </trkpt>
      <trkpt lat="42.39436" lon="2.48109">
        <ele>885.2</ele>
        <time>2022-05-21 19:40:34</time>
      </trkpt>
      <trkpt lat="42.39437" lon="2.48111">
        <ele>885.2</ele>
        <time>2022-05-21 19:40:35</time>
      </trkpt>
      <trkpt lat="42.39437" lon="2.48112">
        <ele>885.4</ele>
        <time>2022-05-21 19:40:36</time>
      </trkpt>
      <trkpt lat="42.39438" lon="2.48114">
        <ele>885.6</ele>
        <time>2022-05-21 19:40:37</time>
      </trkpt>
      <trkpt lat="42.3944" lon="2.48116">
        <ele>885.8</ele>
        <time>2022-05-21 19:40:38</time>
      </trkpt>
      <trkpt lat="42.39441" lon="2.48118">
        <ele>886</ele>
        <time>2022-05-21 19:40:39</time>
      </trkpt>
      <trkpt lat="42.39442" lon="2.48119">
        <ele>886</ele>
        <time>2022-05-21 19:40:40</time>
      </trkpt>
      <trkpt lat="42.39444" lon="2.48121">
        <ele>886.2</ele>
        <time>2022-05-21 19:40:41</time>
      </trkpt>
      <trkpt lat="42.39445" lon="2.48122">
        <ele>886.4</ele>
        <time>2022-05-21 19:40:42</time>
      </trkpt>
      <trkpt lat="42.39446" lon="2.48124">
        <ele>886.6</ele>
        <time>2022-05-21 19:40:43</time>
      </trkpt>
      <trkpt lat="42.39448" lon="2.48125">
        <ele>886.8</ele>
        <time>2022-05-21 19:40:44</time>
      </trkpt>
      <trkpt lat="42.39449" lon="2.48126">
        <ele>886.8</ele>
        <time>2022-05-21 19:40:45</time>
      </trkpt>
      <trkpt lat="42.3945" lon="2.48127">
        <ele>887</ele>
        <time>2022-05-21 19:40:46</time>
      </trkpt>
      <trkpt lat="42.39451" lon="2.48128">
        <ele>887.2</ele>
        <time>2022-05-21 19:40:47</time>
      </trkpt>
      <trkpt lat="42.39452" lon="2.48129">
        <ele>887.4</ele>
        <time>2022-05-21 19:40:48</time>
      </trkpt>
      <trkpt lat="42.39453" lon="2.4813">
        <ele>887.4</ele>
        <time>2022-05-21 19:40:49</time>
      </trkpt>
      <trkpt lat="42.39455" lon="2.48131">
        <ele>887.6</ele>
        <time>2022-05-21 19:40:50</time>
      </trkpt>
      <trkpt lat="42.39458" lon="2.48131">
        <ele>887.8</ele>
        <time>2022-05-21 19:40:51</time>
      </trkpt>
      <trkpt lat="42.3946" lon="2.48132">
        <ele>887.8</ele>
        <time>2022-05-21 19:40:52</time>
      </trkpt>
      <trkpt lat="42.39462" lon="2.48132">
        <ele>888</ele>
        <time>2022-05-21 19:40:53</time>
      </trkpt>
      <trkpt lat="42.39464" lon="2.48133">
        <ele>888.2</ele>
        <time>2022-05-21 19:40:54</time>
      </trkpt>
      <trkpt lat="42.39466" lon="2.48133">
        <ele>888.4</ele>
        <time>2022-05-21 19:40:55</time>
      </trkpt>
      <trkpt lat="42.39468" lon="2.48133">
        <ele>888.6</ele>
        <time>2022-05-21 19:40:56</time>
      </trkpt>
      <trkpt lat="42.39469" lon="2.48134">
        <ele>888.8</ele>
        <time>2022-05-21 19:40:57</time>
      </trkpt>
      <trkpt lat="42.39471" lon="2.48134">
        <ele>888.8</ele>
        <time>2022-05-21 19:40:58</time>
      </trkpt>
      <trkpt lat="42.39473" lon="2.48135">
        <ele>889</ele>
        <time>2022-05-21 19:40:59</time>
      </trkpt>
      <trkpt lat="42.39475" lon="2.48135">
        <ele>889.2</ele>
        <time>2022-05-21 19:41:00</time>
      </trkpt>
      <trkpt lat="42.39476" lon="2.48135">
        <ele>889.4</ele>
        <time>2022-05-21 19:41:01</time>
      </trkpt>
      <trkpt lat="42.39478" lon="2.48135">
        <ele>889.6</ele>
        <time>2022-05-21 19:41:02</time>
      </trkpt>
      <trkpt lat="42.3948" lon="2.48134">
        <ele>889.8</ele>
        <time>2022-05-21 19:41:03</time>
      </trkpt>
      <trkpt lat="42.39482" lon="2.48134">
        <ele>889.8</ele>
        <time>2022-05-21 19:41:04</time>
      </trkpt>
      <trkpt lat="42.39484" lon="2.48134">
        <ele>890</ele>
        <time>2022-05-21 19:41:05</time>
      </trkpt>
      <trkpt lat="42.39487" lon="2.48134">
        <ele>890.2</ele>
        <time>2022-05-21 19:41:06</time>
      </trkpt>
      <trkpt lat="42.39489" lon="2.48133">
        <ele>890.4</ele>
        <time>2022-05-21 19:41:07</time>
      </trkpt>
      <trkpt lat="42.39491" lon="2.48133">
        <ele>890.4</ele>
        <time>2022-05-21 19:41:08</time>
      </trkpt>
      <trkpt lat="42.39493" lon="2.48133">
        <ele>890.6</ele>
        <time>2022-05-21 19:41:09</time>
      </trkpt>
      <trkpt lat="42.39495" lon="2.48133">
        <ele>890.8</ele>
        <time>2022-05-21 19:41:10</time>
      </trkpt>
      <trkpt lat="42.39497" lon="2.48133">
        <ele>891</ele>
        <time>2022-05-21 19:41:11</time>
      </trkpt>
      <trkpt lat="42.39499" lon="2.48132">
        <ele>891.2</ele>
        <time>2022-05-21 19:41:12</time>
      </trkpt>
      <trkpt lat="42.39501" lon="2.48131">
        <ele>891.2</ele>
        <time>2022-05-21 19:41:13</time>
      </trkpt>
      <trkpt lat="42.39502" lon="2.4813">
        <ele>891.4</ele>
        <time>2022-05-21 19:41:14</time>
      </trkpt>
      <trkpt lat="42.39505" lon="2.4813">
        <ele>891.6</ele>
        <time>2022-05-21 19:41:15</time>
      </trkpt>
      <trkpt lat="42.39507" lon="2.4813">
        <ele>891.8</ele>
        <time>2022-05-21 19:41:16</time>
      </trkpt>
      <trkpt lat="42.39509" lon="2.4813">
        <ele>892</ele>
        <time>2022-05-21 19:41:17</time>
      </trkpt>
      <trkpt lat="42.39511" lon="2.4813">
        <ele>892.2</ele>
        <time>2022-05-21 19:41:18</time>
      </trkpt>
      <trkpt lat="42.39513" lon="2.48129">
        <ele>892.4</ele>
        <time>2022-05-21 19:41:19</time>
      </trkpt>
      <trkpt lat="42.39515" lon="2.48129">
        <ele>892.4</ele>
        <time>2022-05-21 19:41:20</time>
      </trkpt>
      <trkpt lat="42.39516" lon="2.48129">
        <ele>892.6</ele>
        <time>2022-05-21 19:41:21</time>
      </trkpt>
      <trkpt lat="42.39518" lon="2.48128">
        <ele>892.8</ele>
        <time>2022-05-21 19:41:22</time>
      </trkpt>
      <trkpt lat="42.3952" lon="2.48128">
        <ele>893</ele>
        <time>2022-05-21 19:41:23</time>
      </trkpt>
      <trkpt lat="42.39522" lon="2.48128">
        <ele>893.2</ele>
        <time>2022-05-21 19:41:24</time>
      </trkpt>
      <trkpt lat="42.39525" lon="2.48128">
        <ele>893.4</ele>
        <time>2022-05-21 19:41:25</time>
      </trkpt>
      <trkpt lat="42.39527" lon="2.48128">
        <ele>893.4</ele>
        <time>2022-05-21 19:41:26</time>
      </trkpt>
      <trkpt lat="42.39529" lon="2.48128">
        <ele>893.6</ele>
        <time>2022-05-21 19:41:27</time>
      </trkpt>
      <trkpt lat="42.39531" lon="2.48129">
        <ele>893.8</ele>
        <time>2022-05-21 19:41:28</time>
      </trkpt>
      <trkpt lat="42.39534" lon="2.4813">
        <ele>894</ele>
        <time>2022-05-21 19:41:29</time>
      </trkpt>
      <trkpt lat="42.39535" lon="2.4813">
        <ele>894.2</ele>
        <time>2022-05-21 19:41:30</time>
      </trkpt>
      <trkpt lat="42.39537" lon="2.48131">
        <ele>894.4</ele>
        <time>2022-05-21 19:41:31</time>
      </trkpt>
      <trkpt lat="42.39539" lon="2.48132">
        <ele>894.4</ele>
        <time>2022-05-21 19:41:32</time>
      </trkpt>
      <trkpt lat="42.3954" lon="2.48134">
        <ele>894.6</ele>
        <time>2022-05-21 19:41:33</time>
      </trkpt>
      <trkpt lat="42.39542" lon="2.48136">
        <ele>894.8</ele>
        <time>2022-05-21 19:41:34</time>
      </trkpt>
      <trkpt lat="42.39543" lon="2.48137">
        <ele>895</ele>
        <time>2022-05-21 19:41:35</time>
      </trkpt>
      <trkpt lat="42.39545" lon="2.48139">
        <ele>895</ele>
        <time>2022-05-21 19:41:36</time>
      </trkpt>
      <trkpt lat="42.39547" lon="2.48141">
        <ele>895.2</ele>
        <time>2022-05-21 19:41:37</time>
      </trkpt>
      <trkpt lat="42.39548" lon="2.48142">
        <ele>895.4</ele>
        <time>2022-05-21 19:41:38</time>
      </trkpt>
      <trkpt lat="42.39549" lon="2.48144">
        <ele>895.6</ele>
        <time>2022-05-21 19:41:39</time>
      </trkpt>
      <trkpt lat="42.3955" lon="2.48146">
        <ele>895.6</ele>
        <time>2022-05-21 19:41:40</time>
      </trkpt>
      <trkpt lat="42.39551" lon="2.48147">
        <ele>895.8</ele>
        <time>2022-05-21 19:41:41</time>
      </trkpt>
      <trkpt lat="42.39553" lon="2.48149">
        <ele>896</ele>
        <time>2022-05-21 19:41:42</time>
      </trkpt>
      <trkpt lat="42.39554" lon="2.4815">
        <ele>896.2</ele>
        <time>2022-05-21 19:41:43</time>
      </trkpt>
      <trkpt lat="42.39556" lon="2.48151">
        <ele>896.2</ele>
        <time>2022-05-21 19:41:44</time>
      </trkpt>
      <trkpt lat="42.39558" lon="2.48152">
        <ele>896.4</ele>
        <time>2022-05-21 19:41:45</time>
      </trkpt>
      <trkpt lat="42.3956" lon="2.48153">
        <ele>896.6</ele>
        <time>2022-05-21 19:41:46</time>
      </trkpt>
      <trkpt lat="42.39562" lon="2.48153">
        <ele>896.6</ele>
        <time>2022-05-21 19:41:47</time>
      </trkpt>
      <trkpt lat="42.39563" lon="2.48153">
        <ele>896.8</ele>
        <time>2022-05-21 19:41:48</time>
      </trkpt>
      <trkpt lat="42.39565" lon="2.48153">
        <ele>897</ele>
        <time>2022-05-21 19:41:49</time>
      </trkpt>
      <trkpt lat="42.39566" lon="2.48152">
        <ele>897.2</ele>
        <time>2022-05-21 19:41:50</time>
      </trkpt>
      <trkpt lat="42.39567" lon="2.48151">
        <ele>897.2</ele>
        <time>2022-05-21 19:41:51</time>
      </trkpt>
      <trkpt lat="42.39567" lon="2.4815">
        <ele>897.2</ele>
        <time>2022-05-21 19:41:52</time>
      </trkpt>
      <trkpt lat="42.39567" lon="2.4815">
        <ele>897.4</ele>
        <time>2022-05-21 19:41:53</time>
      </trkpt>
      <trkpt lat="42.39567" lon="2.4815">
        <ele>897.4</ele>
        <time>2022-05-21 19:41:54</time>
      </trkpt>
      <trkpt lat="42.39567" lon="2.4815">
        <ele>897.4</ele>
        <time>2022-05-21 19:41:55</time>
      </trkpt>
      <trkpt lat="42.39567" lon="2.4815">
        <ele>897.4</ele>
        <time>2022-05-21 19:41:56</time>
      </trkpt>
      <trkpt lat="42.39572" lon="2.48161">
        <ele>897.6</ele>
        <time>2022-05-21 19:45:15</time>
      </trkpt>
      <trkpt lat="42.39572" lon="2.48162">
        <ele>897.6</ele>
        <time>2022-05-21 19:45:16</time>
      </trkpt>
      <trkpt lat="42.39573" lon="2.48164">
        <ele>897.6</ele>
        <time>2022-05-21 19:45:17</time>
      </trkpt>
      <trkpt lat="42.39575" lon="2.48166">
        <ele>897.8</ele>
        <time>2022-05-21 19:45:18</time>
      </trkpt>
      <trkpt lat="42.39576" lon="2.48168">
        <ele>897.8</ele>
        <time>2022-05-21 19:45:19</time>
      </trkpt>
      <trkpt lat="42.39577" lon="2.4817">
        <ele>898</ele>
        <time>2022-05-21 19:45:20</time>
      </trkpt>
      <trkpt lat="42.39578" lon="2.48172">
        <ele>898.2</ele>
        <time>2022-05-21 19:45:21</time>
      </trkpt>
      <trkpt lat="42.3958" lon="2.48174">
        <ele>898.2</ele>
        <time>2022-05-21 19:45:22</time>
      </trkpt>
      <trkpt lat="42.39582" lon="2.48175">
        <ele>898.4</ele>
        <time>2022-05-21 19:45:23</time>
      </trkpt>
      <trkpt lat="42.39584" lon="2.48177">
        <ele>898.6</ele>
        <time>2022-05-21 19:45:24</time>
      </trkpt>
      <trkpt lat="42.39585" lon="2.48179">
        <ele>898.8</ele>
        <time>2022-05-21 19:45:25</time>
      </trkpt>
      <trkpt lat="42.39587" lon="2.48181">
        <ele>899</ele>
        <time>2022-05-21 19:45:26</time>
      </trkpt>
      <trkpt lat="42.39589" lon="2.48183">
        <ele>899.2</ele>
        <time>2022-05-21 19:45:27</time>
      </trkpt>
      <trkpt lat="42.3959" lon="2.48185">
        <ele>899.4</ele>
        <time>2022-05-21 19:45:28</time>
      </trkpt>
      <trkpt lat="42.39592" lon="2.48187">
        <ele>899.6</ele>
        <time>2022-05-21 19:45:29</time>
      </trkpt>
      <trkpt lat="42.39593" lon="2.48189">
        <ele>899.8</ele>
        <time>2022-05-21 19:45:30</time>
      </trkpt>
      <trkpt lat="42.39595" lon="2.4819">
        <ele>899.8</ele>
        <time>2022-05-21 19:45:31</time>
      </trkpt>
      <trkpt lat="42.39597" lon="2.48191">
        <ele>900</ele>
        <time>2022-05-21 19:45:32</time>
      </trkpt>
      <trkpt lat="42.39598" lon="2.48193">
        <ele>900.2</ele>
        <time>2022-05-21 19:45:33</time>
      </trkpt>
      <trkpt lat="42.396" lon="2.48194">
        <ele>900.4</ele>
        <time>2022-05-21 19:45:34</time>
      </trkpt>
      <trkpt lat="42.39602" lon="2.48196">
        <ele>900.6</ele>
        <time>2022-05-21 19:45:35</time>
      </trkpt>
      <trkpt lat="42.39604" lon="2.48198">
        <ele>900.8</ele>
        <time>2022-05-21 19:45:36</time>
      </trkpt>
      <trkpt lat="42.39605" lon="2.48199">
        <ele>901</ele>
        <time>2022-05-21 19:45:37</time>
      </trkpt>
      <trkpt lat="42.39607" lon="2.48201">
        <ele>901.2</ele>
        <time>2022-05-21 19:45:38</time>
      </trkpt>
      <trkpt lat="42.39609" lon="2.48202">
        <ele>901.4</ele>
        <time>2022-05-21 19:45:39</time>
      </trkpt>
      <trkpt lat="42.3961" lon="2.48204">
        <ele>901.6</ele>
        <time>2022-05-21 19:45:40</time>
      </trkpt>
      <trkpt lat="42.39612" lon="2.48206">
        <ele>901.8</ele>
        <time>2022-05-21 19:45:41</time>
      </trkpt>
      <trkpt lat="42.39613" lon="2.48208">
        <ele>902</ele>
        <time>2022-05-21 19:45:42</time>
      </trkpt>
      <trkpt lat="42.39615" lon="2.48209">
        <ele>902</ele>
        <time>2022-05-21 19:45:43</time>
      </trkpt>
      <trkpt lat="42.39617" lon="2.48211">
        <ele>902.2</ele>
        <time>2022-05-21 19:45:44</time>
      </trkpt>
      <trkpt lat="42.39619" lon="2.48212">
        <ele>902.4</ele>
        <time>2022-05-21 19:45:45</time>
      </trkpt>
      <trkpt lat="42.39621" lon="2.48214">
        <ele>902.6</ele>
        <time>2022-05-21 19:45:46</time>
      </trkpt>
      <trkpt lat="42.39623" lon="2.48216">
        <ele>902.8</ele>
        <time>2022-05-21 19:45:47</time>
      </trkpt>
      <trkpt lat="42.39625" lon="2.48219">
        <ele>903</ele>
        <time>2022-05-21 19:45:48</time>
      </trkpt>
      <trkpt lat="42.39627" lon="2.4822">
        <ele>903.2</ele>
        <time>2022-05-21 19:45:49</time>
      </trkpt>
      <trkpt lat="42.39629" lon="2.48222">
        <ele>903.6</ele>
        <time>2022-05-21 19:45:50</time>
      </trkpt>
      <trkpt lat="42.39631" lon="2.48224">
        <ele>903.8</ele>
        <time>2022-05-21 19:45:51</time>
      </trkpt>
      <trkpt lat="42.39633" lon="2.48225">
        <ele>904</ele>
        <time>2022-05-21 19:45:52</time>
      </trkpt>
      <trkpt lat="42.39635" lon="2.48227">
        <ele>904.2</ele>
        <time>2022-05-21 19:45:53</time>
      </trkpt>
      <trkpt lat="42.39636" lon="2.48228">
        <ele>904.4</ele>
        <time>2022-05-21 19:45:54</time>
      </trkpt>
      <trkpt lat="42.39638" lon="2.48229">
        <ele>904.4</ele>
        <time>2022-05-21 19:45:55</time>
      </trkpt>
      <trkpt lat="42.39639" lon="2.4823">
        <ele>904.6</ele>
        <time>2022-05-21 19:45:56</time>
      </trkpt>
      <trkpt lat="42.39641" lon="2.48232">
        <ele>904.8</ele>
        <time>2022-05-21 19:45:57</time>
      </trkpt>
      <trkpt lat="42.39643" lon="2.48234">
        <ele>905</ele>
        <time>2022-05-21 19:45:58</time>
      </trkpt>
      <trkpt lat="42.39645" lon="2.48235">
        <ele>905.2</ele>
        <time>2022-05-21 19:45:59</time>
      </trkpt>
      <trkpt lat="42.39647" lon="2.48237">
        <ele>905.4</ele>
        <time>2022-05-21 19:46:00</time>
      </trkpt>
      <trkpt lat="42.39649" lon="2.48239">
        <ele>905.6</ele>
        <time>2022-05-21 19:46:01</time>
      </trkpt>
      <trkpt lat="42.3965" lon="2.48241">
        <ele>905.8</ele>
        <time>2022-05-21 19:46:02</time>
      </trkpt>
      <trkpt lat="42.39652" lon="2.48244">
        <ele>906</ele>
        <time>2022-05-21 19:46:03</time>
      </trkpt>
      <trkpt lat="42.39654" lon="2.48246">
        <ele>906.2</ele>
        <time>2022-05-21 19:46:04</time>
      </trkpt>
      <trkpt lat="42.39655" lon="2.48249">
        <ele>906.4</ele>
        <time>2022-05-21 19:46:05</time>
      </trkpt>
      <trkpt lat="42.39657" lon="2.48251">
        <ele>906.6</ele>
        <time>2022-05-21 19:46:06</time>
      </trkpt>
      <trkpt lat="42.39659" lon="2.48253">
        <ele>906.8</ele>
        <time>2022-05-21 19:46:07</time>
      </trkpt>
      <trkpt lat="42.39661" lon="2.48256">
        <ele>907</ele>
        <time>2022-05-21 19:46:08</time>
      </trkpt>
      <trkpt lat="42.39663" lon="2.48258">
        <ele>907.2</ele>
        <time>2022-05-21 19:46:09</time>
      </trkpt>
      <trkpt lat="42.39664" lon="2.48261">
        <ele>907.4</ele>
        <time>2022-05-21 19:46:10</time>
      </trkpt>
      <trkpt lat="42.39666" lon="2.48263">
        <ele>907.6</ele>
        <time>2022-05-21 19:46:11</time>
      </trkpt>
      <trkpt lat="42.39667" lon="2.48266">
        <ele>907.8</ele>
        <time>2022-05-21 19:46:12</time>
      </trkpt>
      <trkpt lat="42.39669" lon="2.48269">
        <ele>908</ele>
        <time>2022-05-21 19:46:13</time>
      </trkpt>
      <trkpt lat="42.3967" lon="2.48272">
        <ele>908.2</ele>
        <time>2022-05-21 19:46:14</time>
      </trkpt>
      <trkpt lat="42.39671" lon="2.48275">
        <ele>908.4</ele>
        <time>2022-05-21 19:46:15</time>
      </trkpt>
      <trkpt lat="42.39672" lon="2.48278">
        <ele>908.6</ele>
        <time>2022-05-21 19:46:16</time>
      </trkpt>
      <trkpt lat="42.39673" lon="2.4828">
        <ele>908.8</ele>
        <time>2022-05-21 19:46:17</time>
      </trkpt>
      <trkpt lat="42.39674" lon="2.48283">
        <ele>909</ele>
        <time>2022-05-21 19:46:18</time>
      </trkpt>
      <trkpt lat="42.39675" lon="2.48285">
        <ele>909.2</ele>
        <time>2022-05-21 19:46:19</time>
      </trkpt>
      <trkpt lat="42.39675" lon="2.48288">
        <ele>909.4</ele>
        <time>2022-05-21 19:46:20</time>
      </trkpt>
      <trkpt lat="42.39676" lon="2.48291">
        <ele>909.4</ele>
        <time>2022-05-21 19:46:21</time>
      </trkpt>
      <trkpt lat="42.39677" lon="2.48294">
        <ele>909.6</ele>
        <time>2022-05-21 19:46:22</time>
      </trkpt>
      <trkpt lat="42.39677" lon="2.48296">
        <ele>909.8</ele>
        <time>2022-05-21 19:46:23</time>
      </trkpt>
      <trkpt lat="42.39678" lon="2.48299">
        <ele>910</ele>
        <time>2022-05-21 19:46:24</time>
      </trkpt>
      <trkpt lat="42.39678" lon="2.48302">
        <ele>910.2</ele>
        <time>2022-05-21 19:46:25</time>
      </trkpt>
      <trkpt lat="42.39679" lon="2.48305">
        <ele>910.4</ele>
        <time>2022-05-21 19:46:26</time>
      </trkpt>
      <trkpt lat="42.39679" lon="2.48308">
        <ele>910.6</ele>
        <time>2022-05-21 19:46:27</time>
      </trkpt>
      <trkpt lat="42.3968" lon="2.48311">
        <ele>910.8</ele>
        <time>2022-05-21 19:46:28</time>
      </trkpt>
      <trkpt lat="42.3968" lon="2.48313">
        <ele>911</ele>
        <time>2022-05-21 19:46:29</time>
      </trkpt>
      <trkpt lat="42.39681" lon="2.48316">
        <ele>911.2</ele>
        <time>2022-05-21 19:46:30</time>
      </trkpt>
      <trkpt lat="42.39682" lon="2.48319">
        <ele>911.4</ele>
        <time>2022-05-21 19:46:31</time>
      </trkpt>
      <trkpt lat="42.39682" lon="2.48322">
        <ele>911.6</ele>
        <time>2022-05-21 19:46:32</time>
      </trkpt>
      <trkpt lat="42.39683" lon="2.48324">
        <ele>911.8</ele>
        <time>2022-05-21 19:46:33</time>
      </trkpt>
      <trkpt lat="42.39683" lon="2.48327">
        <ele>912</ele>
        <time>2022-05-21 19:46:34</time>
      </trkpt>
      <trkpt lat="42.39684" lon="2.4833">
        <ele>912.2</ele>
        <time>2022-05-21 19:46:35</time>
      </trkpt>
      <trkpt lat="42.39685" lon="2.48332">
        <ele>912.4</ele>
        <time>2022-05-21 19:46:36</time>
      </trkpt>
      <trkpt lat="42.39685" lon="2.48334">
        <ele>912.6</ele>
        <time>2022-05-21 19:46:37</time>
      </trkpt>
      <trkpt lat="42.39685" lon="2.48337">
        <ele>912.8</ele>
        <time>2022-05-21 19:46:38</time>
      </trkpt>
      <trkpt lat="42.39686" lon="2.4834">
        <ele>912.8</ele>
        <time>2022-05-21 19:46:39</time>
      </trkpt>
      <trkpt lat="42.39686" lon="2.48343">
        <ele>913</ele>
        <time>2022-05-21 19:46:40</time>
      </trkpt>
      <trkpt lat="42.39687" lon="2.48345">
        <ele>913.2</ele>
        <time>2022-05-21 19:46:41</time>
      </trkpt>
      <trkpt lat="42.39688" lon="2.48348">
        <ele>913.4</ele>
        <time>2022-05-21 19:46:42</time>
      </trkpt>
      <trkpt lat="42.39688" lon="2.48351">
        <ele>913.6</ele>
        <time>2022-05-21 19:46:43</time>
      </trkpt>
      <trkpt lat="42.39689" lon="2.48353">
        <ele>913.8</ele>
        <time>2022-05-21 19:46:44</time>
      </trkpt>
      <trkpt lat="42.3969" lon="2.48356">
        <ele>914</ele>
        <time>2022-05-21 19:46:45</time>
      </trkpt>
      <trkpt lat="42.3969" lon="2.48359">
        <ele>914.2</ele>
        <time>2022-05-21 19:46:46</time>
      </trkpt>
      <trkpt lat="42.39691" lon="2.48361">
        <ele>914.4</ele>
        <time>2022-05-21 19:46:47</time>
      </trkpt>
      <trkpt lat="42.39692" lon="2.48364">
        <ele>914.6</ele>
        <time>2022-05-21 19:46:48</time>
      </trkpt>
      <trkpt lat="42.39693" lon="2.48366">
        <ele>914.8</ele>
        <time>2022-05-21 19:46:49</time>
      </trkpt>
      <trkpt lat="42.39694" lon="2.48369">
        <ele>915</ele>
        <time>2022-05-21 19:46:50</time>
      </trkpt>
      <trkpt lat="42.39695" lon="2.48372">
        <ele>915.2</ele>
        <time>2022-05-21 19:46:51</time>
      </trkpt>
      <trkpt lat="42.39695" lon="2.48374">
        <ele>915.4</ele>
        <time>2022-05-21 19:46:52</time>
      </trkpt>
      <trkpt lat="42.39696" lon="2.48377">
        <ele>915.6</ele>
        <time>2022-05-21 19:46:53</time>
      </trkpt>
      <trkpt lat="42.39696" lon="2.48381">
        <ele>915.8</ele>
        <time>2022-05-21 19:46:54</time>
      </trkpt>
      <trkpt lat="42.39697" lon="2.48384">
        <ele>916</ele>
        <time>2022-05-21 19:46:55</time>
      </trkpt>
      <trkpt lat="42.39697" lon="2.48387">
        <ele>916</ele>
        <time>2022-05-21 19:46:56</time>
      </trkpt>
      <trkpt lat="42.39697" lon="2.4839">
        <ele>916.2</ele>
        <time>2022-05-21 19:46:57</time>
      </trkpt>
      <trkpt lat="42.39697" lon="2.48393">
        <ele>916.4</ele>
        <time>2022-05-21 19:46:58</time>
      </trkpt>
      <trkpt lat="42.39698" lon="2.48396">
        <ele>916.6</ele>
        <time>2022-05-21 19:46:59</time>
      </trkpt>
      <trkpt lat="42.39698" lon="2.484">
        <ele>916.8</ele>
        <time>2022-05-21 19:47:00</time>
      </trkpt>
      <trkpt lat="42.39699" lon="2.48403">
        <ele>917</ele>
        <time>2022-05-21 19:47:01</time>
      </trkpt>
      <trkpt lat="42.397" lon="2.48406">
        <ele>917.2</ele>
        <time>2022-05-21 19:47:02</time>
      </trkpt>
      <trkpt lat="42.397" lon="2.48409">
        <ele>917.4</ele>
        <time>2022-05-21 19:47:03</time>
      </trkpt>
      <trkpt lat="42.39701" lon="2.48412">
        <ele>917.6</ele>
        <time>2022-05-21 19:47:04</time>
      </trkpt>
      <trkpt lat="42.39702" lon="2.48414">
        <ele>917.8</ele>
        <time>2022-05-21 19:47:05</time>
      </trkpt>
      <trkpt lat="42.39702" lon="2.48417">
        <ele>918</ele>
        <time>2022-05-21 19:47:06</time>
      </trkpt>
      <trkpt lat="42.39703" lon="2.4842">
        <ele>918.2</ele>
        <time>2022-05-21 19:47:07</time>
      </trkpt>
      <trkpt lat="42.39703" lon="2.48423">
        <ele>918.2</ele>
        <time>2022-05-21 19:47:08</time>
      </trkpt>
      <trkpt lat="42.39703" lon="2.48426">
        <ele>918.4</ele>
        <time>2022-05-21 19:47:09</time>
      </trkpt>
      <trkpt lat="42.39704" lon="2.48429">
        <ele>918.6</ele>
        <time>2022-05-21 19:47:10</time>
      </trkpt>
      <trkpt lat="42.39704" lon="2.48431">
        <ele>918.8</ele>
        <time>2022-05-21 19:47:11</time>
      </trkpt>
      <trkpt lat="42.39705" lon="2.48434">
        <ele>919</ele>
        <time>2022-05-21 19:47:12</time>
      </trkpt>
      <trkpt lat="42.39705" lon="2.48436">
        <ele>919.2</ele>
        <time>2022-05-21 19:47:13</time>
      </trkpt>
      <trkpt lat="42.39705" lon="2.48439">
        <ele>919.4</ele>
        <time>2022-05-21 19:47:14</time>
      </trkpt>
      <trkpt lat="42.39705" lon="2.48441">
        <ele>919.6</ele>
        <time>2022-05-21 19:47:15</time>
      </trkpt>
      <trkpt lat="42.39706" lon="2.48444">
        <ele>919.8</ele>
        <time>2022-05-21 19:47:16</time>
      </trkpt>
      <trkpt lat="42.39706" lon="2.48447">
        <ele>920</ele>
        <time>2022-05-21 19:47:17</time>
      </trkpt>
      <trkpt lat="42.39706" lon="2.4845">
        <ele>920.2</ele>
        <time>2022-05-21 19:47:18</time>
      </trkpt>
      <trkpt lat="42.39707" lon="2.48453">
        <ele>920.2</ele>
        <time>2022-05-21 19:47:19</time>
      </trkpt>
      <trkpt lat="42.39707" lon="2.48456">
        <ele>920.4</ele>
        <time>2022-05-21 19:47:20</time>
      </trkpt>
      <trkpt lat="42.39708" lon="2.48459">
        <ele>920.6</ele>
        <time>2022-05-21 19:47:21</time>
      </trkpt>
      <trkpt lat="42.39708" lon="2.48462">
        <ele>920.8</ele>
        <time>2022-05-21 19:47:22</time>
      </trkpt>
      <trkpt lat="42.39708" lon="2.48466">
        <ele>921</ele>
        <time>2022-05-21 19:47:23</time>
      </trkpt>
      <trkpt lat="42.39708" lon="2.48469">
        <ele>921.2</ele>
        <time>2022-05-21 19:47:24</time>
      </trkpt>
      <trkpt lat="42.39708" lon="2.48472">
        <ele>921.4</ele>
        <time>2022-05-21 19:47:25</time>
      </trkpt>
      <trkpt lat="42.39708" lon="2.48475">
        <ele>921.4</ele>
        <time>2022-05-21 19:47:26</time>
      </trkpt>
      <trkpt lat="42.39708" lon="2.48478">
        <ele>921.6</ele>
        <time>2022-05-21 19:47:27</time>
      </trkpt>
      <trkpt lat="42.39707" lon="2.48481">
        <ele>921.8</ele>
        <time>2022-05-21 19:47:28</time>
      </trkpt>
      <trkpt lat="42.39706" lon="2.48484">
        <ele>922</ele>
        <time>2022-05-21 19:47:29</time>
      </trkpt>
      <trkpt lat="42.39705" lon="2.48487">
        <ele>922</ele>
        <time>2022-05-21 19:47:30</time>
      </trkpt>
      <trkpt lat="42.39705" lon="2.4849">
        <ele>922.2</ele>
        <time>2022-05-21 19:47:31</time>
      </trkpt>
      <trkpt lat="42.39704" lon="2.48493">
        <ele>922.4</ele>
        <time>2022-05-21 19:47:32</time>
      </trkpt>
      <trkpt lat="42.39703" lon="2.48496">
        <ele>922.6</ele>
        <time>2022-05-21 19:47:33</time>
      </trkpt>
      <trkpt lat="42.39702" lon="2.48499">
        <ele>922.6</ele>
        <time>2022-05-21 19:47:34</time>
      </trkpt>
      <trkpt lat="42.39701" lon="2.48502">
        <ele>922.8</ele>
        <time>2022-05-21 19:47:35</time>
      </trkpt>
      <trkpt lat="42.39699" lon="2.48505">
        <ele>923</ele>
        <time>2022-05-21 19:47:36</time>
      </trkpt>
      <trkpt lat="42.39698" lon="2.48508">
        <ele>923</ele>
        <time>2022-05-21 19:47:37</time>
      </trkpt>
      <trkpt lat="42.39697" lon="2.4851">
        <ele>923.2</ele>
        <time>2022-05-21 19:47:38</time>
      </trkpt>
      <trkpt lat="42.39695" lon="2.48513">
        <ele>923.4</ele>
        <time>2022-05-21 19:47:39</time>
      </trkpt>
      <trkpt lat="42.39693" lon="2.48516">
        <ele>923.4</ele>
        <time>2022-05-21 19:47:40</time>
      </trkpt>
      <trkpt lat="42.39691" lon="2.48518">
        <ele>923.6</ele>
        <time>2022-05-21 19:47:41</time>
      </trkpt>
      <trkpt lat="42.39689" lon="2.48521">
        <ele>923.8</ele>
        <time>2022-05-21 19:47:42</time>
      </trkpt>
      <trkpt lat="42.39687" lon="2.48524">
        <ele>923.8</ele>
        <time>2022-05-21 19:47:43</time>
      </trkpt>
      <trkpt lat="42.39685" lon="2.48527">
        <ele>924</ele>
        <time>2022-05-21 19:47:44</time>
      </trkpt>
      <trkpt lat="42.39683" lon="2.48529">
        <ele>924.2</ele>
        <time>2022-05-21 19:47:45</time>
      </trkpt>
      <trkpt lat="42.39682" lon="2.48532">
        <ele>924.2</ele>
        <time>2022-05-21 19:47:46</time>
      </trkpt>
      <trkpt lat="42.3968" lon="2.48534">
        <ele>924.4</ele>
        <time>2022-05-21 19:47:47</time>
      </trkpt>
      <trkpt lat="42.39678" lon="2.48536">
        <ele>924.6</ele>
        <time>2022-05-21 19:47:48</time>
      </trkpt>
      <trkpt lat="42.39676" lon="2.48538">
        <ele>924.8</ele>
        <time>2022-05-21 19:47:49</time>
      </trkpt>
      <trkpt lat="42.39674" lon="2.48541">
        <ele>924.8</ele>
        <time>2022-05-21 19:47:50</time>
      </trkpt>
      <trkpt lat="42.39672" lon="2.48543">
        <ele>925</ele>
        <time>2022-05-21 19:47:51</time>
      </trkpt>
      <trkpt lat="42.39671" lon="2.48546">
        <ele>925.2</ele>
        <time>2022-05-21 19:47:52</time>
      </trkpt>
      <trkpt lat="42.39669" lon="2.48549">
        <ele>925.4</ele>
        <time>2022-05-21 19:47:53</time>
      </trkpt>
      <trkpt lat="42.39668" lon="2.48552">
        <ele>925.4</ele>
        <time>2022-05-21 19:47:54</time>
      </trkpt>
      <trkpt lat="42.39666" lon="2.48556">
        <ele>925.6</ele>
        <time>2022-05-21 19:47:55</time>
      </trkpt>
      <trkpt lat="42.39665" lon="2.4856">
        <ele>925.8</ele>
        <time>2022-05-21 19:47:56</time>
      </trkpt>
      <trkpt lat="42.39665" lon="2.48564">
        <ele>925.8</ele>
        <time>2022-05-21 19:47:57</time>
      </trkpt>
      <trkpt lat="42.39664" lon="2.48569">
        <ele>926</ele>
        <time>2022-05-21 19:47:58</time>
      </trkpt>
      <trkpt lat="42.39664" lon="2.48573">
        <ele>926</ele>
        <time>2022-05-21 19:47:59</time>
      </trkpt>
      <trkpt lat="42.39664" lon="2.48577">
        <ele>926.2</ele>
        <time>2022-05-21 19:48:00</time>
      </trkpt>
      <trkpt lat="42.39664" lon="2.48582">
        <ele>926.4</ele>
        <time>2022-05-21 19:48:01</time>
      </trkpt>
      <trkpt lat="42.39664" lon="2.48586">
        <ele>926.4</ele>
        <time>2022-05-21 19:48:02</time>
      </trkpt>
      <trkpt lat="42.39665" lon="2.48589">
        <ele>926.6</ele>
        <time>2022-05-21 19:48:03</time>
      </trkpt>
      <trkpt lat="42.39665" lon="2.48593">
        <ele>926.8</ele>
        <time>2022-05-21 19:48:04</time>
      </trkpt>
      <trkpt lat="42.39667" lon="2.48596">
        <ele>926.8</ele>
        <time>2022-05-21 19:48:05</time>
      </trkpt>
      <trkpt lat="42.39668" lon="2.48599">
        <ele>927</ele>
        <time>2022-05-21 19:48:06</time>
      </trkpt>
      <trkpt lat="42.3967" lon="2.48603">
        <ele>927.2</ele>
        <time>2022-05-21 19:48:07</time>
      </trkpt>
      <trkpt lat="42.39672" lon="2.48606">
        <ele>927.2</ele>
        <time>2022-05-21 19:48:08</time>
      </trkpt>
      <trkpt lat="42.39674" lon="2.48609">
        <ele>927.4</ele>
        <time>2022-05-21 19:48:09</time>
      </trkpt>
      <trkpt lat="42.39675" lon="2.48613">
        <ele>927.6</ele>
        <time>2022-05-21 19:48:10</time>
      </trkpt>
      <trkpt lat="42.39677" lon="2.48616">
        <ele>927.6</ele>
        <time>2022-05-21 19:48:11</time>
      </trkpt>
      <trkpt lat="42.39678" lon="2.4862">
        <ele>927.8</ele>
        <time>2022-05-21 19:48:12</time>
      </trkpt>
      <trkpt lat="42.3968" lon="2.48624">
        <ele>927.8</ele>
        <time>2022-05-21 19:48:13</time>
      </trkpt>
      <trkpt lat="42.39681" lon="2.48628">
        <ele>928</ele>
        <time>2022-05-21 19:48:14</time>
      </trkpt>
      <trkpt lat="42.39682" lon="2.48632">
        <ele>928.2</ele>
        <time>2022-05-21 19:48:15</time>
      </trkpt>
      <trkpt lat="42.39683" lon="2.48636">
        <ele>928.2</ele>
        <time>2022-05-21 19:48:16</time>
      </trkpt>
      <trkpt lat="42.39683" lon="2.4864">
        <ele>928.4</ele>
        <time>2022-05-21 19:48:17</time>
      </trkpt>
      <trkpt lat="42.39683" lon="2.48643">
        <ele>928.6</ele>
        <time>2022-05-21 19:48:18</time>
      </trkpt>
      <trkpt lat="42.39683" lon="2.48648">
        <ele>928.6</ele>
        <time>2022-05-21 19:48:19</time>
      </trkpt>
      <trkpt lat="42.39683" lon="2.48652">
        <ele>928.8</ele>
        <time>2022-05-21 19:48:20</time>
      </trkpt>
      <trkpt lat="42.39683" lon="2.48656">
        <ele>929</ele>
        <time>2022-05-21 19:48:21</time>
      </trkpt>
      <trkpt lat="42.39682" lon="2.4866">
        <ele>929</ele>
        <time>2022-05-21 19:48:22</time>
      </trkpt>
      <trkpt lat="42.39682" lon="2.48663">
        <ele>929.2</ele>
        <time>2022-05-21 19:48:23</time>
      </trkpt>
      <trkpt lat="42.39682" lon="2.48667">
        <ele>929.4</ele>
        <time>2022-05-21 19:48:24</time>
      </trkpt>
      <trkpt lat="42.39681" lon="2.48671">
        <ele>929.4</ele>
        <time>2022-05-21 19:48:25</time>
      </trkpt>
      <trkpt lat="42.39681" lon="2.48675">
        <ele>929.6</ele>
        <time>2022-05-21 19:48:26</time>
      </trkpt>
      <trkpt lat="42.39681" lon="2.48679">
        <ele>929.8</ele>
        <time>2022-05-21 19:48:27</time>
      </trkpt>
      <trkpt lat="42.39681" lon="2.48684">
        <ele>930</ele>
        <time>2022-05-21 19:48:28</time>
      </trkpt>
      <trkpt lat="42.3968" lon="2.48688">
        <ele>930</ele>
        <time>2022-05-21 19:48:29</time>
      </trkpt>
      <trkpt lat="42.3968" lon="2.48691">
        <ele>930.2</ele>
        <time>2022-05-21 19:48:30</time>
      </trkpt>
      <trkpt lat="42.39679" lon="2.48695">
        <ele>930.4</ele>
        <time>2022-05-21 19:48:31</time>
      </trkpt>
      <trkpt lat="42.39678" lon="2.48698">
        <ele>930.6</ele>
        <time>2022-05-21 19:48:32</time>
      </trkpt>
      <trkpt lat="42.39677" lon="2.487">
        <ele>930.6</ele>
        <time>2022-05-21 19:48:33</time>
      </trkpt>
      <trkpt lat="42.39676" lon="2.48703">
        <ele>930.8</ele>
        <time>2022-05-21 19:48:34</time>
      </trkpt>
      <trkpt lat="42.39675" lon="2.48707">
        <ele>931</ele>
        <time>2022-05-21 19:48:35</time>
      </trkpt>
      <trkpt lat="42.39674" lon="2.4871">
        <ele>931</ele>
        <time>2022-05-21 19:48:36</time>
      </trkpt>
      <trkpt lat="42.39673" lon="2.48714">
        <ele>931.2</ele>
        <time>2022-05-21 19:48:37</time>
      </trkpt>
      <trkpt lat="42.39672" lon="2.48717">
        <ele>931.4</ele>
        <time>2022-05-21 19:48:38</time>
      </trkpt>
      <trkpt lat="42.39671" lon="2.48721">
        <ele>931.6</ele>
        <time>2022-05-21 19:48:39</time>
      </trkpt>
      <trkpt lat="42.3967" lon="2.48724">
        <ele>931.6</ele>
        <time>2022-05-21 19:48:40</time>
      </trkpt>
      <trkpt lat="42.39669" lon="2.48727">
        <ele>931.8</ele>
        <time>2022-05-21 19:48:41</time>
      </trkpt>
      <trkpt lat="42.39667" lon="2.48731">
        <ele>932</ele>
        <time>2022-05-21 19:48:42</time>
      </trkpt>
      <trkpt lat="42.39666" lon="2.48734">
        <ele>932</ele>
        <time>2022-05-21 19:48:43</time>
      </trkpt>
      <trkpt lat="42.39665" lon="2.48737">
        <ele>932.2</ele>
        <time>2022-05-21 19:48:44</time>
      </trkpt>
      <trkpt lat="42.39663" lon="2.48741">
        <ele>932.4</ele>
        <time>2022-05-21 19:48:45</time>
      </trkpt>
      <trkpt lat="42.39661" lon="2.48744">
        <ele>932.4</ele>
        <time>2022-05-21 19:48:46</time>
      </trkpt>
      <trkpt lat="42.39658" lon="2.48748">
        <ele>932.6</ele>
        <time>2022-05-21 19:48:47</time>
      </trkpt>
      <trkpt lat="42.39655" lon="2.48752">
        <ele>932.6</ele>
        <time>2022-05-21 19:48:48</time>
      </trkpt>
      <trkpt lat="42.39653" lon="2.48755">
        <ele>932.8</ele>
        <time>2022-05-21 19:48:49</time>
      </trkpt>
      <trkpt lat="42.3965" lon="2.48757">
        <ele>933</ele>
        <time>2022-05-21 19:48:50</time>
      </trkpt>
      <trkpt lat="42.39648" lon="2.4876">
        <ele>933.2</ele>
        <time>2022-05-21 19:48:51</time>
      </trkpt>
      <trkpt lat="42.39646" lon="2.48762">
        <ele>933.4</ele>
        <time>2022-05-21 19:48:52</time>
      </trkpt>
      <trkpt lat="42.39644" lon="2.48764">
        <ele>933.4</ele>
        <time>2022-05-21 19:48:53</time>
      </trkpt>
      <trkpt lat="42.39641" lon="2.48767">
        <ele>933.6</ele>
        <time>2022-05-21 19:48:54</time>
      </trkpt>
      <trkpt lat="42.39639" lon="2.4877">
        <ele>933.8</ele>
        <time>2022-05-21 19:48:55</time>
      </trkpt>
      <trkpt lat="42.39637" lon="2.48772">
        <ele>933.8</ele>
        <time>2022-05-21 19:48:56</time>
      </trkpt>
      <trkpt lat="42.39635" lon="2.48775">
        <ele>934</ele>
        <time>2022-05-21 19:48:57</time>
      </trkpt>
      <trkpt lat="42.39632" lon="2.48777">
        <ele>934.2</ele>
        <time>2022-05-21 19:48:58</time>
      </trkpt>
      <trkpt lat="42.3963" lon="2.4878">
        <ele>934.4</ele>
        <time>2022-05-21 19:48:59</time>
      </trkpt>
      <trkpt lat="42.39629" lon="2.48784">
        <ele>934.4</ele>
        <time>2022-05-21 19:49:00</time>
      </trkpt>
      <trkpt lat="42.39628" lon="2.48788">
        <ele>934.6</ele>
        <time>2022-05-21 19:49:01</time>
      </trkpt>
      <trkpt lat="42.39627" lon="2.48793">
        <ele>934.8</ele>
        <time>2022-05-21 19:49:02</time>
      </trkpt>
      <trkpt lat="42.39626" lon="2.48797">
        <ele>935</ele>
        <time>2022-05-21 19:49:03</time>
      </trkpt>
      <trkpt lat="42.39625" lon="2.48801">
        <ele>935</ele>
        <time>2022-05-21 19:49:04</time>
      </trkpt>
      <trkpt lat="42.39625" lon="2.48805">
        <ele>935.2</ele>
        <time>2022-05-21 19:49:05</time>
      </trkpt>
      <trkpt lat="42.39624" lon="2.48808">
        <ele>935.4</ele>
        <time>2022-05-21 19:49:06</time>
      </trkpt>
      <trkpt lat="42.39625" lon="2.48812">
        <ele>935.6</ele>
        <time>2022-05-21 19:49:07</time>
      </trkpt>
      <trkpt lat="42.39625" lon="2.48816">
        <ele>935.8</ele>
        <time>2022-05-21 19:49:08</time>
      </trkpt>
      <trkpt lat="42.39626" lon="2.48821">
        <ele>935.8</ele>
        <time>2022-05-21 19:49:09</time>
      </trkpt>
      <trkpt lat="42.39627" lon="2.48825">
        <ele>936</ele>
        <time>2022-05-21 19:49:10</time>
      </trkpt>
      <trkpt lat="42.39628" lon="2.48829">
        <ele>936.2</ele>
        <time>2022-05-21 19:49:11</time>
      </trkpt>
      <trkpt lat="42.3963" lon="2.48833">
        <ele>936.4</ele>
        <time>2022-05-21 19:49:12</time>
      </trkpt>
      <trkpt lat="42.39631" lon="2.48838">
        <ele>936.6</ele>
        <time>2022-05-21 19:49:13</time>
      </trkpt>
      <trkpt lat="42.39632" lon="2.48843">
        <ele>936.8</ele>
        <time>2022-05-21 19:49:14</time>
      </trkpt>
      <trkpt lat="42.39632" lon="2.48847">
        <ele>937</ele>
        <time>2022-05-21 19:49:15</time>
      </trkpt>
      <trkpt lat="42.39633" lon="2.4885">
        <ele>937</ele>
        <time>2022-05-21 19:49:16</time>
      </trkpt>
      <trkpt lat="42.39634" lon="2.48854">
        <ele>937.2</ele>
        <time>2022-05-21 19:49:17</time>
      </trkpt>
      <trkpt lat="42.39636" lon="2.48858">
        <ele>937.4</ele>
        <time>2022-05-21 19:49:18</time>
      </trkpt>
      <trkpt lat="42.39637" lon="2.48862">
        <ele>937.6</ele>
        <time>2022-05-21 19:49:19</time>
      </trkpt>
      <trkpt lat="42.39639" lon="2.48866">
        <ele>937.8</ele>
        <time>2022-05-21 19:49:20</time>
      </trkpt>
      <trkpt lat="42.3964" lon="2.48869">
        <ele>938</ele>
        <time>2022-05-21 19:49:21</time>
      </trkpt>
      <trkpt lat="42.39641" lon="2.48873">
        <ele>938</ele>
        <time>2022-05-21 19:49:22</time>
      </trkpt>
      <trkpt lat="42.39642" lon="2.48876">
        <ele>938.2</ele>
        <time>2022-05-21 19:49:23</time>
      </trkpt>
      <trkpt lat="42.39642" lon="2.48879">
        <ele>938.4</ele>
        <time>2022-05-21 19:49:24</time>
      </trkpt>
      <trkpt lat="42.39642" lon="2.48882">
        <ele>938.6</ele>
        <time>2022-05-21 19:49:25</time>
      </trkpt>
      <trkpt lat="42.39643" lon="2.48886">
        <ele>938.8</ele>
        <time>2022-05-21 19:49:26</time>
      </trkpt>
      <trkpt lat="42.39644" lon="2.4889">
        <ele>939</ele>
        <time>2022-05-21 19:49:27</time>
      </trkpt>
      <trkpt lat="42.39646" lon="2.48894">
        <ele>939.2</ele>
        <time>2022-05-21 19:49:28</time>
      </trkpt>
      <trkpt lat="42.39646" lon="2.48898">
        <ele>939.4</ele>
        <time>2022-05-21 19:49:29</time>
      </trkpt>
      <trkpt lat="42.39647" lon="2.48901">
        <ele>939.6</ele>
        <time>2022-05-21 19:49:30</time>
      </trkpt>
      <trkpt lat="42.39646" lon="2.48904">
        <ele>939.8</ele>
        <time>2022-05-21 19:49:31</time>
      </trkpt>
      <trkpt lat="42.39646" lon="2.48908">
        <ele>940</ele>
        <time>2022-05-21 19:49:32</time>
      </trkpt>
      <trkpt lat="42.39646" lon="2.48912">
        <ele>940.2</ele>
        <time>2022-05-21 19:49:33</time>
      </trkpt>
      <trkpt lat="42.39645" lon="2.48915">
        <ele>940.6</ele>
        <time>2022-05-21 19:49:34</time>
      </trkpt>
      <trkpt lat="42.39644" lon="2.48919">
        <ele>940.8</ele>
        <time>2022-05-21 19:49:35</time>
      </trkpt>
      <trkpt lat="42.39644" lon="2.48923">
        <ele>941</ele>
        <time>2022-05-21 19:49:36</time>
      </trkpt>
      <trkpt lat="42.39644" lon="2.48926">
        <ele>941.2</ele>
        <time>2022-05-21 19:49:37</time>
      </trkpt>
      <trkpt lat="42.39644" lon="2.48928">
        <ele>941.6</ele>
        <time>2022-05-21 19:49:38</time>
      </trkpt>
      <trkpt lat="42.39643" lon="2.48931">
        <ele>941.8</ele>
        <time>2022-05-21 19:49:39</time>
      </trkpt>
      <trkpt lat="42.39642" lon="2.48934">
        <ele>942</ele>
        <time>2022-05-21 19:49:40</time>
      </trkpt>
      <trkpt lat="42.39641" lon="2.48937">
        <ele>942.2</ele>
        <time>2022-05-21 19:49:41</time>
      </trkpt>
      <trkpt lat="42.3964" lon="2.4894">
        <ele>942.4</ele>
        <time>2022-05-21 19:49:42</time>
      </trkpt>
      <trkpt lat="42.39639" lon="2.48943">
        <ele>942.8</ele>
        <time>2022-05-21 19:49:43</time>
      </trkpt>
      <trkpt lat="42.39639" lon="2.48945">
        <ele>943</ele>
        <time>2022-05-21 19:49:44</time>
      </trkpt>
      <trkpt lat="42.39638" lon="2.48947">
        <ele>943.2</ele>
        <time>2022-05-21 19:49:45</time>
      </trkpt>
      <trkpt lat="42.39638" lon="2.48951">
        <ele>943.4</ele>
        <time>2022-05-21 19:49:46</time>
      </trkpt>
      <trkpt lat="42.39637" lon="2.48955">
        <ele>943.8</ele>
        <time>2022-05-21 19:49:47</time>
      </trkpt>
      <trkpt lat="42.39636" lon="2.48958">
        <ele>944</ele>
        <time>2022-05-21 19:49:48</time>
      </trkpt>
      <trkpt lat="42.39635" lon="2.48962">
        <ele>944.2</ele>
        <time>2022-05-21 19:49:49</time>
      </trkpt>
      <trkpt lat="42.39634" lon="2.48963">
        <ele>944.4</ele>
        <time>2022-05-21 19:49:50</time>
      </trkpt>
      <trkpt lat="42.39634" lon="2.48966">
        <ele>944.8</ele>
        <time>2022-05-21 19:49:51</time>
      </trkpt>
      <trkpt lat="42.39632" lon="2.48969">
        <ele>945</ele>
        <time>2022-05-21 19:49:52</time>
      </trkpt>
      <trkpt lat="42.39631" lon="2.48973">
        <ele>945.2</ele>
        <time>2022-05-21 19:49:53</time>
      </trkpt>
      <trkpt lat="42.3963" lon="2.48978">
        <ele>945.6</ele>
        <time>2022-05-21 19:49:54</time>
      </trkpt>
      <trkpt lat="42.39628" lon="2.48983">
        <ele>945.8</ele>
        <time>2022-05-21 19:49:55</time>
      </trkpt>
      <trkpt lat="42.39627" lon="2.48987">
        <ele>946</ele>
        <time>2022-05-21 19:49:56</time>
      </trkpt>
      <trkpt lat="42.39626" lon="2.4899">
        <ele>946.2</ele>
        <time>2022-05-21 19:49:57</time>
      </trkpt>
      <trkpt lat="42.39625" lon="2.48993">
        <ele>946.4</ele>
        <time>2022-05-21 19:49:58</time>
      </trkpt>
      <trkpt lat="42.39625" lon="2.48996">
        <ele>946.6</ele>
        <time>2022-05-21 19:49:59</time>
      </trkpt>
      <trkpt lat="42.39624" lon="2.48999">
        <ele>947</ele>
        <time>2022-05-21 19:50:00</time>
      </trkpt>
      <trkpt lat="42.39624" lon="2.49002">
        <ele>947.2</ele>
        <time>2022-05-21 19:50:01</time>
      </trkpt>
      <trkpt lat="42.39623" lon="2.49005">
        <ele>947.4</ele>
        <time>2022-05-21 19:50:02</time>
      </trkpt>
      <trkpt lat="42.39623" lon="2.49007">
        <ele>947.6</ele>
        <time>2022-05-21 19:50:03</time>
      </trkpt>
      <trkpt lat="42.39622" lon="2.4901">
        <ele>947.8</ele>
        <time>2022-05-21 19:50:04</time>
      </trkpt>
      <trkpt lat="42.39621" lon="2.49013">
        <ele>948</ele>
        <time>2022-05-21 19:50:05</time>
      </trkpt>
      <trkpt lat="42.3962" lon="2.49016">
        <ele>948.2</ele>
        <time>2022-05-21 19:50:06</time>
      </trkpt>
      <trkpt lat="42.3962" lon="2.49019">
        <ele>948.4</ele>
        <time>2022-05-21 19:50:07</time>
      </trkpt>
      <trkpt lat="42.39619" lon="2.49022">
        <ele>948.6</ele>
        <time>2022-05-21 19:50:08</time>
      </trkpt>
      <trkpt lat="42.39619" lon="2.49024">
        <ele>948.8</ele>
        <time>2022-05-21 19:50:09</time>
      </trkpt>
      <trkpt lat="42.39618" lon="2.49027">
        <ele>949</ele>
        <time>2022-05-21 19:50:10</time>
      </trkpt>
      <trkpt lat="42.39617" lon="2.49031">
        <ele>949.2</ele>
        <time>2022-05-21 19:50:11</time>
      </trkpt>
      <trkpt lat="42.39617" lon="2.49034">
        <ele>949.4</ele>
        <time>2022-05-21 19:50:12</time>
      </trkpt>
      <trkpt lat="42.39617" lon="2.49037">
        <ele>949.6</ele>
        <time>2022-05-21 19:50:13</time>
      </trkpt>
      <trkpt lat="42.39616" lon="2.49039">
        <ele>949.8</ele>
        <time>2022-05-21 19:50:14</time>
      </trkpt>
      <trkpt lat="42.39616" lon="2.49042">
        <ele>950</ele>
        <time>2022-05-21 19:50:15</time>
      </trkpt>
      <trkpt lat="42.39616" lon="2.49044">
        <ele>950.2</ele>
        <time>2022-05-21 19:50:16</time>
      </trkpt>
      <trkpt lat="42.39616" lon="2.49047">
        <ele>950.4</ele>
        <time>2022-05-21 19:50:17</time>
      </trkpt>
      <trkpt lat="42.39616" lon="2.49049">
        <ele>950.6</ele>
        <time>2022-05-21 19:50:18</time>
      </trkpt>
      <trkpt lat="42.39616" lon="2.49051">
        <ele>950.8</ele>
        <time>2022-05-21 19:50:19</time>
      </trkpt>
      <trkpt lat="42.39615" lon="2.49054">
        <ele>951</ele>
        <time>2022-05-21 19:50:20</time>
      </trkpt>
      <trkpt lat="42.39615" lon="2.49057">
        <ele>951.2</ele>
        <time>2022-05-21 19:50:21</time>
      </trkpt>
      <trkpt lat="42.39615" lon="2.49059">
        <ele>951.4</ele>
        <time>2022-05-21 19:50:22</time>
      </trkpt>
      <trkpt lat="42.39614" lon="2.49062">
        <ele>951.6</ele>
        <time>2022-05-21 19:50:23</time>
      </trkpt>
      <trkpt lat="42.39614" lon="2.49064">
        <ele>951.8</ele>
        <time>2022-05-21 19:50:24</time>
      </trkpt>
      <trkpt lat="42.39613" lon="2.49066">
        <ele>952</ele>
        <time>2022-05-21 19:50:25</time>
      </trkpt>
      <trkpt lat="42.39612" lon="2.49069">
        <ele>952.2</ele>
        <time>2022-05-21 19:50:26</time>
      </trkpt>
      <trkpt lat="42.39612" lon="2.49071">
        <ele>952.4</ele>
        <time>2022-05-21 19:50:27</time>
      </trkpt>
      <trkpt lat="42.39611" lon="2.49074">
        <ele>952.6</ele>
        <time>2022-05-21 19:50:28</time>
      </trkpt>
      <trkpt lat="42.3961" lon="2.49077">
        <ele>952.8</ele>
        <time>2022-05-21 19:50:29</time>
      </trkpt>
      <trkpt lat="42.39609" lon="2.49079">
        <ele>953</ele>
        <time>2022-05-21 19:50:30</time>
      </trkpt>
      <trkpt lat="42.39608" lon="2.49081">
        <ele>953.2</ele>
        <time>2022-05-21 19:50:31</time>
      </trkpt>
      <trkpt lat="42.39607" lon="2.49084">
        <ele>953.4</ele>
        <time>2022-05-21 19:50:32</time>
      </trkpt>
      <trkpt lat="42.39607" lon="2.49086">
        <ele>953.6</ele>
        <time>2022-05-21 19:50:33</time>
      </trkpt>
      <trkpt lat="42.39606" lon="2.49089">
        <ele>953.8</ele>
        <time>2022-05-21 19:50:34</time>
      </trkpt>
      <trkpt lat="42.39606" lon="2.49092">
        <ele>954</ele>
        <time>2022-05-21 19:50:35</time>
      </trkpt>
      <trkpt lat="42.39605" lon="2.49094">
        <ele>954.2</ele>
        <time>2022-05-21 19:50:36</time>
      </trkpt>
      <trkpt lat="42.39604" lon="2.49097">
        <ele>954.4</ele>
        <time>2022-05-21 19:50:37</time>
      </trkpt>
      <trkpt lat="42.39603" lon="2.491">
        <ele>954.6</ele>
        <time>2022-05-21 19:50:38</time>
      </trkpt>
      <trkpt lat="42.39602" lon="2.49102">
        <ele>954.6</ele>
        <time>2022-05-21 19:50:39</time>
      </trkpt>
      <trkpt lat="42.39602" lon="2.49106">
        <ele>954.8</ele>
        <time>2022-05-21 19:50:40</time>
      </trkpt>
      <trkpt lat="42.39601" lon="2.49109">
        <ele>955</ele>
        <time>2022-05-21 19:50:41</time>
      </trkpt>
      <trkpt lat="42.39601" lon="2.49111">
        <ele>955.2</ele>
        <time>2022-05-21 19:50:42</time>
      </trkpt>
      <trkpt lat="42.396" lon="2.49115">
        <ele>955.4</ele>
        <time>2022-05-21 19:50:43</time>
      </trkpt>
      <trkpt lat="42.39599" lon="2.49119">
        <ele>955.6</ele>
        <time>2022-05-21 19:50:44</time>
      </trkpt>
      <trkpt lat="42.39598" lon="2.49122">
        <ele>955.8</ele>
        <time>2022-05-21 19:50:45</time>
      </trkpt>
      <trkpt lat="42.39597" lon="2.49124">
        <ele>956</ele>
        <time>2022-05-21 19:50:46</time>
      </trkpt>
      <trkpt lat="42.39596" lon="2.49127">
        <ele>956.2</ele>
        <time>2022-05-21 19:50:47</time>
      </trkpt>
      <trkpt lat="42.39595" lon="2.4913">
        <ele>956.4</ele>
        <time>2022-05-21 19:50:48</time>
      </trkpt>
      <trkpt lat="42.39594" lon="2.49132">
        <ele>956.6</ele>
        <time>2022-05-21 19:50:49</time>
      </trkpt>
      <trkpt lat="42.39593" lon="2.49136">
        <ele>956.8</ele>
        <time>2022-05-21 19:50:50</time>
      </trkpt>
      <trkpt lat="42.39592" lon="2.4914">
        <ele>957</ele>
        <time>2022-05-21 19:50:51</time>
      </trkpt>
      <trkpt lat="42.39591" lon="2.49143">
        <ele>957.2</ele>
        <time>2022-05-21 19:50:52</time>
      </trkpt>
      <trkpt lat="42.39589" lon="2.49146">
        <ele>957.4</ele>
        <time>2022-05-21 19:50:53</time>
      </trkpt>
      <trkpt lat="42.39588" lon="2.49149">
        <ele>957.6</ele>
        <time>2022-05-21 19:50:54</time>
      </trkpt>
      <trkpt lat="42.39588" lon="2.49152">
        <ele>957.8</ele>
        <time>2022-05-21 19:50:55</time>
      </trkpt>
      <trkpt lat="42.39587" lon="2.49155">
        <ele>957.8</ele>
        <time>2022-05-21 19:50:56</time>
      </trkpt>
      <trkpt lat="42.39586" lon="2.49158">
        <ele>958</ele>
        <time>2022-05-21 19:50:57</time>
      </trkpt>
      <trkpt lat="42.39585" lon="2.49161">
        <ele>958.2</ele>
        <time>2022-05-21 19:50:58</time>
      </trkpt>
      <trkpt lat="42.39584" lon="2.49164">
        <ele>958.4</ele>
        <time>2022-05-21 19:50:59</time>
      </trkpt>
      <trkpt lat="42.39583" lon="2.49167">
        <ele>958.6</ele>
        <time>2022-05-21 19:51:00</time>
      </trkpt>
      <trkpt lat="42.39582" lon="2.4917">
        <ele>958.8</ele>
        <time>2022-05-21 19:51:01</time>
      </trkpt>
      <trkpt lat="42.39581" lon="2.49174">
        <ele>958.8</ele>
        <time>2022-05-21 19:51:02</time>
      </trkpt>
      <trkpt lat="42.3958" lon="2.49177">
        <ele>959</ele>
        <time>2022-05-21 19:51:03</time>
      </trkpt>
      <trkpt lat="42.39579" lon="2.49181">
        <ele>959.2</ele>
        <time>2022-05-21 19:51:04</time>
      </trkpt>
      <trkpt lat="42.39579" lon="2.49184">
        <ele>959.4</ele>
        <time>2022-05-21 19:51:05</time>
      </trkpt>
      <trkpt lat="42.39578" lon="2.49188">
        <ele>959.6</ele>
        <time>2022-05-21 19:51:06</time>
      </trkpt>
      <trkpt lat="42.39576" lon="2.49192">
        <ele>959.6</ele>
        <time>2022-05-21 19:51:07</time>
      </trkpt>
      <trkpt lat="42.39575" lon="2.49195">
        <ele>959.8</ele>
        <time>2022-05-21 19:51:08</time>
      </trkpt>
      <trkpt lat="42.39574" lon="2.49198">
        <ele>960</ele>
        <time>2022-05-21 19:51:09</time>
      </trkpt>
      <trkpt lat="42.39573" lon="2.49202">
        <ele>960.2</ele>
        <time>2022-05-21 19:51:10</time>
      </trkpt>
      <trkpt lat="42.39572" lon="2.49205">
        <ele>960.4</ele>
        <time>2022-05-21 19:51:11</time>
      </trkpt>
      <trkpt lat="42.3957" lon="2.49208">
        <ele>960.6</ele>
        <time>2022-05-21 19:51:12</time>
      </trkpt>
      <trkpt lat="42.39569" lon="2.49211">
        <ele>960.8</ele>
        <time>2022-05-21 19:51:13</time>
      </trkpt>
      <trkpt lat="42.39567" lon="2.49213">
        <ele>960.8</ele>
        <time>2022-05-21 19:51:14</time>
      </trkpt>
      <trkpt lat="42.39565" lon="2.49216">
        <ele>961</ele>
        <time>2022-05-21 19:51:15</time>
      </trkpt>
      <trkpt lat="42.39564" lon="2.49219">
        <ele>961.2</ele>
        <time>2022-05-21 19:51:16</time>
      </trkpt>
      <trkpt lat="42.39561" lon="2.49221">
        <ele>961.4</ele>
        <time>2022-05-21 19:51:17</time>
      </trkpt>
      <trkpt lat="42.39559" lon="2.49224">
        <ele>961.4</ele>
        <time>2022-05-21 19:51:18</time>
      </trkpt>
      <trkpt lat="42.39556" lon="2.49226">
        <ele>961.6</ele>
        <time>2022-05-21 19:51:19</time>
      </trkpt>
      <trkpt lat="42.39554" lon="2.49227">
        <ele>961.8</ele>
        <time>2022-05-21 19:51:20</time>
      </trkpt>
      <trkpt lat="42.39552" lon="2.49229">
        <ele>962</ele>
        <time>2022-05-21 19:51:21</time>
      </trkpt>
      <trkpt lat="42.3955" lon="2.4923">
        <ele>962.2</ele>
        <time>2022-05-21 19:51:22</time>
      </trkpt>
      <trkpt lat="42.39548" lon="2.4923">
        <ele>962.4</ele>
        <time>2022-05-21 19:51:23</time>
      </trkpt>
      <trkpt lat="42.39546" lon="2.49231">
        <ele>962.6</ele>
        <time>2022-05-21 19:51:24</time>
      </trkpt>
      <trkpt lat="42.39544" lon="2.4923">
        <ele>962.6</ele>
        <time>2022-05-21 19:51:25</time>
      </trkpt>
      <trkpt lat="42.39542" lon="2.49229">
        <ele>962.8</ele>
        <time>2022-05-21 19:51:26</time>
      </trkpt>
      <trkpt lat="42.3954" lon="2.49228">
        <ele>963</ele>
        <time>2022-05-21 19:51:27</time>
      </trkpt>
      <trkpt lat="42.39538" lon="2.49227">
        <ele>963</ele>
        <time>2022-05-21 19:51:28</time>
      </trkpt>
      <trkpt lat="42.39537" lon="2.49226">
        <ele>963.2</ele>
        <time>2022-05-21 19:51:29</time>
      </trkpt>
      <trkpt lat="42.39535" lon="2.49224">
        <ele>963.4</ele>
        <time>2022-05-21 19:51:30</time>
      </trkpt>
      <trkpt lat="42.39534" lon="2.49222">
        <ele>963.6</ele>
        <time>2022-05-21 19:51:31</time>
      </trkpt>
      <trkpt lat="42.39533" lon="2.4922">
        <ele>963.8</ele>
        <time>2022-05-21 19:51:32</time>
      </trkpt>
      <trkpt lat="42.39532" lon="2.49217">
        <ele>963.8</ele>
        <time>2022-05-21 19:51:33</time>
      </trkpt>
      <trkpt lat="42.39531" lon="2.49213">
        <ele>964</ele>
        <time>2022-05-21 19:51:34</time>
      </trkpt>
      <trkpt lat="42.39531" lon="2.4921">
        <ele>964.2</ele>
        <time>2022-05-21 19:51:35</time>
      </trkpt>
      <trkpt lat="42.39531" lon="2.49206">
        <ele>964.4</ele>
        <time>2022-05-21 19:51:36</time>
      </trkpt>
      <trkpt lat="42.39531" lon="2.49203">
        <ele>964.6</ele>
        <time>2022-05-21 19:51:37</time>
      </trkpt>
      <trkpt lat="42.3953" lon="2.492">
        <ele>964.8</ele>
        <time>2022-05-21 19:51:38</time>
      </trkpt>
      <trkpt lat="42.3953" lon="2.49197">
        <ele>965</ele>
        <time>2022-05-21 19:51:39</time>
      </trkpt>
      <trkpt lat="42.3953" lon="2.49194">
        <ele>965.2</ele>
        <time>2022-05-21 19:51:40</time>
      </trkpt>
      <trkpt lat="42.39531" lon="2.49191">
        <ele>965.4</ele>
        <time>2022-05-21 19:51:41</time>
      </trkpt>
      <trkpt lat="42.39531" lon="2.49188">
        <ele>965.6</ele>
        <time>2022-05-21 19:51:42</time>
      </trkpt>
      <trkpt lat="42.39532" lon="2.49185">
        <ele>965.8</ele>
        <time>2022-05-21 19:51:43</time>
      </trkpt>
      <trkpt lat="42.39533" lon="2.49182">
        <ele>966</ele>
        <time>2022-05-21 19:51:44</time>
      </trkpt>
      <trkpt lat="42.39533" lon="2.49179">
        <ele>966.2</ele>
        <time>2022-05-21 19:51:45</time>
      </trkpt>
      <trkpt lat="42.39534" lon="2.49176">
        <ele>966.4</ele>
        <time>2022-05-21 19:51:46</time>
      </trkpt>
      <trkpt lat="42.39534" lon="2.49174">
        <ele>966.6</ele>
        <time>2022-05-21 19:51:47</time>
      </trkpt>
      <trkpt lat="42.39535" lon="2.49171">
        <ele>966.8</ele>
        <time>2022-05-21 19:51:48</time>
      </trkpt>
      <trkpt lat="42.39536" lon="2.49169">
        <ele>967</ele>
        <time>2022-05-21 19:51:49</time>
      </trkpt>
      <trkpt lat="42.39536" lon="2.49167">
        <ele>967.2</ele>
        <time>2022-05-21 19:51:50</time>
      </trkpt>
      <trkpt lat="42.39537" lon="2.49164">
        <ele>967.4</ele>
        <time>2022-05-21 19:51:51</time>
      </trkpt>
      <trkpt lat="42.39538" lon="2.49162">
        <ele>967.6</ele>
        <time>2022-05-21 19:51:52</time>
      </trkpt>
      <trkpt lat="42.39539" lon="2.49159">
        <ele>967.8</ele>
        <time>2022-05-21 19:51:53</time>
      </trkpt>
      <trkpt lat="42.3954" lon="2.49156">
        <ele>968</ele>
        <time>2022-05-21 19:51:54</time>
      </trkpt>
      <trkpt lat="42.3954" lon="2.49154">
        <ele>968.2</ele>
        <time>2022-05-21 19:51:55</time>
      </trkpt>
      <trkpt lat="42.39541" lon="2.49151">
        <ele>968.4</ele>
        <time>2022-05-21 19:51:56</time>
      </trkpt>
      <trkpt lat="42.39541" lon="2.49148">
        <ele>968.8</ele>
        <time>2022-05-21 19:51:57</time>
      </trkpt>
      <trkpt lat="42.39541" lon="2.49146">
        <ele>969</ele>
        <time>2022-05-21 19:51:58</time>
      </trkpt>
      <trkpt lat="42.39542" lon="2.49143">
        <ele>969.2</ele>
        <time>2022-05-21 19:51:59</time>
      </trkpt>
      <trkpt lat="42.39542" lon="2.4914">
        <ele>969.4</ele>
        <time>2022-05-21 19:52:00</time>
      </trkpt>
      <trkpt lat="42.39543" lon="2.49137">
        <ele>969.6</ele>
        <time>2022-05-21 19:52:01</time>
      </trkpt>
      <trkpt lat="42.39543" lon="2.49134">
        <ele>969.8</ele>
        <time>2022-05-21 19:52:02</time>
      </trkpt>
      <trkpt lat="42.39543" lon="2.49132">
        <ele>970</ele>
        <time>2022-05-21 19:52:03</time>
      </trkpt>
      <trkpt lat="42.39544" lon="2.49129">
        <ele>970.2</ele>
        <time>2022-05-21 19:52:04</time>
      </trkpt>
      <trkpt lat="42.39544" lon="2.49126">
        <ele>970.4</ele>
        <time>2022-05-21 19:52:05</time>
      </trkpt>
      <trkpt lat="42.39545" lon="2.49123">
        <ele>970.6</ele>
        <time>2022-05-21 19:52:06</time>
      </trkpt>
      <trkpt lat="42.39545" lon="2.4912">
        <ele>970.8</ele>
        <time>2022-05-21 19:52:07</time>
      </trkpt>
      <trkpt lat="42.39546" lon="2.49117">
        <ele>971</ele>
        <time>2022-05-21 19:52:08</time>
      </trkpt>
      <trkpt lat="42.39546" lon="2.49114">
        <ele>971.2</ele>
        <time>2022-05-21 19:52:09</time>
      </trkpt>
      <trkpt lat="42.39547" lon="2.49111">
        <ele>971.4</ele>
        <time>2022-05-21 19:52:10</time>
      </trkpt>
      <trkpt lat="42.39548" lon="2.49108">
        <ele>971.6</ele>
        <time>2022-05-21 19:52:11</time>
      </trkpt>
      <trkpt lat="42.39548" lon="2.49105">
        <ele>971.8</ele>
        <time>2022-05-21 19:52:12</time>
      </trkpt>
      <trkpt lat="42.39549" lon="2.49102">
        <ele>972</ele>
        <time>2022-05-21 19:52:13</time>
      </trkpt>
      <trkpt lat="42.39549" lon="2.49098">
        <ele>972</ele>
        <time>2022-05-21 19:52:14</time>
      </trkpt>
      <trkpt lat="42.39549" lon="2.49095">
        <ele>972.2</ele>
        <time>2022-05-21 19:52:15</time>
      </trkpt>
      <trkpt lat="42.39549" lon="2.49092">
        <ele>972.4</ele>
        <time>2022-05-21 19:52:16</time>
      </trkpt>
      <trkpt lat="42.3955" lon="2.49089">
        <ele>972.6</ele>
        <time>2022-05-21 19:52:17</time>
      </trkpt>
      <trkpt lat="42.3955" lon="2.49085">
        <ele>972.8</ele>
        <time>2022-05-21 19:52:18</time>
      </trkpt>
      <trkpt lat="42.3955" lon="2.49082">
        <ele>973</ele>
        <time>2022-05-21 19:52:19</time>
      </trkpt>
      <trkpt lat="42.3955" lon="2.49079">
        <ele>973.2</ele>
        <time>2022-05-21 19:52:20</time>
      </trkpt>
      <trkpt lat="42.3955" lon="2.49075">
        <ele>973.4</ele>
        <time>2022-05-21 19:52:21</time>
      </trkpt>
      <trkpt lat="42.3955" lon="2.49072">
        <ele>973.6</ele>
        <time>2022-05-21 19:52:22</time>
      </trkpt>
      <trkpt lat="42.3955" lon="2.49069">
        <ele>973.8</ele>
        <time>2022-05-21 19:52:23</time>
      </trkpt>
      <trkpt lat="42.39549" lon="2.49065">
        <ele>974</ele>
        <time>2022-05-21 19:52:24</time>
      </trkpt>
      <trkpt lat="42.39549" lon="2.49062">
        <ele>974</ele>
        <time>2022-05-21 19:52:25</time>
      </trkpt>
      <trkpt lat="42.3955" lon="2.4906">
        <ele>974.2</ele>
        <time>2022-05-21 19:52:26</time>
      </trkpt>
      <trkpt lat="42.3955" lon="2.49057">
        <ele>974.4</ele>
        <time>2022-05-21 19:52:27</time>
      </trkpt>
      <trkpt lat="42.3955" lon="2.49054">
        <ele>974.6</ele>
        <time>2022-05-21 19:52:28</time>
      </trkpt>
      <trkpt lat="42.3955" lon="2.49051">
        <ele>975</ele>
        <time>2022-05-21 19:52:29</time>
      </trkpt>
      <trkpt lat="42.3955" lon="2.49048">
        <ele>975.2</ele>
        <time>2022-05-21 19:52:30</time>
      </trkpt>
      <trkpt lat="42.3955" lon="2.49045">
        <ele>975.2</ele>
        <time>2022-05-21 19:52:31</time>
      </trkpt>
      <trkpt lat="42.3955" lon="2.49043">
        <ele>975.4</ele>
        <time>2022-05-21 19:52:32</time>
      </trkpt>
      <trkpt lat="42.39549" lon="2.49038">
        <ele>975.6</ele>
        <time>2022-05-21 19:52:33</time>
      </trkpt>
      <trkpt lat="42.39548" lon="2.49035">
        <ele>975.8</ele>
        <time>2022-05-21 19:52:34</time>
      </trkpt>
      <trkpt lat="42.39548" lon="2.49031">
        <ele>976</ele>
        <time>2022-05-21 19:52:35</time>
      </trkpt>
      <trkpt lat="42.39547" lon="2.49028">
        <ele>976.2</ele>
        <time>2022-05-21 19:52:36</time>
      </trkpt>
      <trkpt lat="42.39547" lon="2.49025">
        <ele>976.4</ele>
        <time>2022-05-21 19:52:37</time>
      </trkpt>
      <trkpt lat="42.39547" lon="2.49022">
        <ele>976.6</ele>
        <time>2022-05-21 19:52:38</time>
      </trkpt>
      <trkpt lat="42.39547" lon="2.49019">
        <ele>976.8</ele>
        <time>2022-05-21 19:52:39</time>
      </trkpt>
      <trkpt lat="42.39547" lon="2.49016">
        <ele>977</ele>
        <time>2022-05-21 19:52:40</time>
      </trkpt>
      <trkpt lat="42.39547" lon="2.49013">
        <ele>977.2</ele>
        <time>2022-05-21 19:52:41</time>
      </trkpt>
      <trkpt lat="42.39547" lon="2.4901">
        <ele>977.4</ele>
        <time>2022-05-21 19:52:42</time>
      </trkpt>
      <trkpt lat="42.39547" lon="2.49007">
        <ele>977.6</ele>
        <time>2022-05-21 19:52:43</time>
      </trkpt>
      <trkpt lat="42.39547" lon="2.49004">
        <ele>977.6</ele>
        <time>2022-05-21 19:52:44</time>
      </trkpt>
      <trkpt lat="42.39547" lon="2.49001">
        <ele>977.8</ele>
        <time>2022-05-21 19:52:45</time>
      </trkpt>
      <trkpt lat="42.39547" lon="2.48998">
        <ele>978</ele>
        <time>2022-05-21 19:52:46</time>
      </trkpt>
      <trkpt lat="42.39547" lon="2.48995">
        <ele>978.2</ele>
        <time>2022-05-21 19:52:47</time>
      </trkpt>
      <trkpt lat="42.39547" lon="2.48992">
        <ele>978.2</ele>
        <time>2022-05-21 19:52:48</time>
      </trkpt>
      <trkpt lat="42.39548" lon="2.48989">
        <ele>978.4</ele>
        <time>2022-05-21 19:52:49</time>
      </trkpt>
      <trkpt lat="42.39548" lon="2.48986">
        <ele>978.6</ele>
        <time>2022-05-21 19:52:50</time>
      </trkpt>
      <trkpt lat="42.39547" lon="2.48983">
        <ele>978.8</ele>
        <time>2022-05-21 19:52:51</time>
      </trkpt>
      <trkpt lat="42.39548" lon="2.4898">
        <ele>978.8</ele>
        <time>2022-05-21 19:52:52</time>
      </trkpt>
      <trkpt lat="42.39548" lon="2.48977">
        <ele>979</ele>
        <time>2022-05-21 19:52:53</time>
      </trkpt>
      <trkpt lat="42.39549" lon="2.48975">
        <ele>979.2</ele>
        <time>2022-05-21 19:52:54</time>
      </trkpt>
      <trkpt lat="42.3955" lon="2.48972">
        <ele>979.2</ele>
        <time>2022-05-21 19:52:55</time>
      </trkpt>
      <trkpt lat="42.39551" lon="2.48969">
        <ele>979.4</ele>
        <time>2022-05-21 19:52:56</time>
      </trkpt>
      <trkpt lat="42.39551" lon="2.48967">
        <ele>979.6</ele>
        <time>2022-05-21 19:52:57</time>
      </trkpt>
      <trkpt lat="42.39552" lon="2.48963">
        <ele>979.6</ele>
        <time>2022-05-21 19:52:58</time>
      </trkpt>
      <trkpt lat="42.39552" lon="2.48959">
        <ele>979.8</ele>
        <time>2022-05-21 19:52:59</time>
      </trkpt>
      <trkpt lat="42.39552" lon="2.48956">
        <ele>980</ele>
        <time>2022-05-21 19:53:00</time>
      </trkpt>
      <trkpt lat="42.39553" lon="2.48953">
        <ele>980.2</ele>
        <time>2022-05-21 19:53:01</time>
      </trkpt>
      <trkpt lat="42.39552" lon="2.48949">
        <ele>980.2</ele>
        <time>2022-05-21 19:53:02</time>
      </trkpt>
      <trkpt lat="42.39552" lon="2.48945">
        <ele>980.4</ele>
        <time>2022-05-21 19:53:03</time>
      </trkpt>
      <trkpt lat="42.39552" lon="2.48942">
        <ele>980.6</ele>
        <time>2022-05-21 19:53:04</time>
      </trkpt>
      <trkpt lat="42.39553" lon="2.48938">
        <ele>980.8</ele>
        <time>2022-05-21 19:53:05</time>
      </trkpt>
      <trkpt lat="42.39553" lon="2.48935">
        <ele>980.8</ele>
        <time>2022-05-21 19:53:06</time>
      </trkpt>
      <trkpt lat="42.39553" lon="2.48932">
        <ele>981</ele>
        <time>2022-05-21 19:53:07</time>
      </trkpt>
      <trkpt lat="42.39554" lon="2.48928">
        <ele>981.2</ele>
        <time>2022-05-21 19:53:08</time>
      </trkpt>
      <trkpt lat="42.39554" lon="2.48925">
        <ele>981.4</ele>
        <time>2022-05-21 19:53:09</time>
      </trkpt>
      <trkpt lat="42.39554" lon="2.48922">
        <ele>981.4</ele>
        <time>2022-05-21 19:53:10</time>
      </trkpt>
      <trkpt lat="42.39554" lon="2.48919">
        <ele>981.6</ele>
        <time>2022-05-21 19:53:11</time>
      </trkpt>
      <trkpt lat="42.39554" lon="2.48917">
        <ele>981.8</ele>
        <time>2022-05-21 19:53:12</time>
      </trkpt>
      <trkpt lat="42.39554" lon="2.48915">
        <ele>981.8</ele>
        <time>2022-05-21 19:53:13</time>
      </trkpt>
      <trkpt lat="42.39555" lon="2.4891">
        <ele>982</ele>
        <time>2022-05-21 19:53:14</time>
      </trkpt>
      <trkpt lat="42.39556" lon="2.48906">
        <ele>982.2</ele>
        <time>2022-05-21 19:53:15</time>
      </trkpt>
      <trkpt lat="42.39557" lon="2.48903">
        <ele>982.4</ele>
        <time>2022-05-21 19:53:16</time>
      </trkpt>
      <trkpt lat="42.39557" lon="2.48899">
        <ele>982.6</ele>
        <time>2022-05-21 19:53:17</time>
      </trkpt>
      <trkpt lat="42.39557" lon="2.48895">
        <ele>982.8</ele>
        <time>2022-05-21 19:53:18</time>
      </trkpt>
      <trkpt lat="42.39557" lon="2.48891">
        <ele>982.8</ele>
        <time>2022-05-21 19:53:19</time>
      </trkpt>
      <trkpt lat="42.39557" lon="2.48888">
        <ele>983</ele>
        <time>2022-05-21 19:53:20</time>
      </trkpt>
      <trkpt lat="42.39557" lon="2.48885">
        <ele>983.2</ele>
        <time>2022-05-21 19:53:21</time>
      </trkpt>
      <trkpt lat="42.39556" lon="2.48882">
        <ele>983.4</ele>
        <time>2022-05-21 19:53:22</time>
      </trkpt>
      <trkpt lat="42.39555" lon="2.48878">
        <ele>983.4</ele>
        <time>2022-05-21 19:53:23</time>
      </trkpt>
      <trkpt lat="42.39554" lon="2.48876">
        <ele>983.6</ele>
        <time>2022-05-21 19:53:24</time>
      </trkpt>
      <trkpt lat="42.39553" lon="2.48873">
        <ele>983.8</ele>
        <time>2022-05-21 19:53:25</time>
      </trkpt>
      <trkpt lat="42.39551" lon="2.48871">
        <ele>983.8</ele>
        <time>2022-05-21 19:53:26</time>
      </trkpt>
      <trkpt lat="42.39549" lon="2.48869">
        <ele>984</ele>
        <time>2022-05-21 19:53:27</time>
      </trkpt>
      <trkpt lat="42.39548" lon="2.48868">
        <ele>984.2</ele>
        <time>2022-05-21 19:53:28</time>
      </trkpt>
      <trkpt lat="42.39546" lon="2.48866">
        <ele>984.4</ele>
        <time>2022-05-21 19:53:29</time>
      </trkpt>
      <trkpt lat="42.39543" lon="2.48865">
        <ele>984.4</ele>
        <time>2022-05-21 19:53:30</time>
      </trkpt>
      <trkpt lat="42.39541" lon="2.48864">
        <ele>984.6</ele>
        <time>2022-05-21 19:53:31</time>
      </trkpt>
      <trkpt lat="42.39538" lon="2.48864">
        <ele>984.8</ele>
        <time>2022-05-21 19:53:32</time>
      </trkpt>
      <trkpt lat="42.39535" lon="2.48864">
        <ele>985</ele>
        <time>2022-05-21 19:53:33</time>
      </trkpt>
      <trkpt lat="42.39532" lon="2.48865">
        <ele>985</ele>
        <time>2022-05-21 19:53:34</time>
      </trkpt>
      <trkpt lat="42.3953" lon="2.48865">
        <ele>985.2</ele>
        <time>2022-05-21 19:53:35</time>
      </trkpt>
      <trkpt lat="42.39528" lon="2.48866">
        <ele>985.4</ele>
        <time>2022-05-21 19:53:36</time>
      </trkpt>
      <trkpt lat="42.39526" lon="2.48867">
        <ele>985.6</ele>
        <time>2022-05-21 19:53:37</time>
      </trkpt>
      <trkpt lat="42.39525" lon="2.48869">
        <ele>985.8</ele>
        <time>2022-05-21 19:53:38</time>
      </trkpt>
      <trkpt lat="42.39523" lon="2.4887">
        <ele>986</ele>
        <time>2022-05-21 19:53:39</time>
      </trkpt>
      <trkpt lat="42.39521" lon="2.48873">
        <ele>986.2</ele>
        <time>2022-05-21 19:53:40</time>
      </trkpt>
      <trkpt lat="42.3952" lon="2.48875">
        <ele>986.2</ele>
        <time>2022-05-21 19:53:41</time>
      </trkpt>
      <trkpt lat="42.39519" lon="2.48878">
        <ele>986.4</ele>
        <time>2022-05-21 19:53:42</time>
      </trkpt>
      <trkpt lat="42.39519" lon="2.4888">
        <ele>986.6</ele>
        <time>2022-05-21 19:53:43</time>
      </trkpt>
      <trkpt lat="42.39519" lon="2.48883">
        <ele>986.8</ele>
        <time>2022-05-21 19:53:44</time>
      </trkpt>
      <trkpt lat="42.39518" lon="2.48885">
        <ele>987</ele>
        <time>2022-05-21 19:53:45</time>
      </trkpt>
      <trkpt lat="42.39518" lon="2.48888">
        <ele>987.2</ele>
        <time>2022-05-21 19:53:46</time>
      </trkpt>
      <trkpt lat="42.39518" lon="2.4889">
        <ele>987.4</ele>
        <time>2022-05-21 19:53:47</time>
      </trkpt>
      <trkpt lat="42.39518" lon="2.48893">
        <ele>987.6</ele>
        <time>2022-05-21 19:53:48</time>
      </trkpt>
      <trkpt lat="42.39517" lon="2.48896">
        <ele>987.6</ele>
        <time>2022-05-21 19:53:49</time>
      </trkpt>
      <trkpt lat="42.39517" lon="2.48899">
        <ele>987.8</ele>
        <time>2022-05-21 19:53:50</time>
      </trkpt>
      <trkpt lat="42.39517" lon="2.48902">
        <ele>988</ele>
        <time>2022-05-21 19:53:51</time>
      </trkpt>
      <trkpt lat="42.39516" lon="2.48905">
        <ele>988</ele>
        <time>2022-05-21 19:53:52</time>
      </trkpt>
      <trkpt lat="42.39516" lon="2.48908">
        <ele>988.2</ele>
        <time>2022-05-21 19:53:53</time>
      </trkpt>
      <trkpt lat="42.39516" lon="2.4891">
        <ele>988.4</ele>
        <time>2022-05-21 19:53:54</time>
      </trkpt>
      <trkpt lat="42.39515" lon="2.48913">
        <ele>988.4</ele>
        <time>2022-05-21 19:53:55</time>
      </trkpt>
      <trkpt lat="42.39515" lon="2.48917">
        <ele>988.6</ele>
        <time>2022-05-21 19:53:56</time>
      </trkpt>
      <trkpt lat="42.39515" lon="2.4892">
        <ele>988.8</ele>
        <time>2022-05-21 19:53:57</time>
      </trkpt>
      <trkpt lat="42.39515" lon="2.48923">
        <ele>989</ele>
        <time>2022-05-21 19:53:58</time>
      </trkpt>
      <trkpt lat="42.39514" lon="2.48926">
        <ele>989</ele>
        <time>2022-05-21 19:53:59</time>
      </trkpt>
      <trkpt lat="42.39514" lon="2.4893">
        <ele>989.2</ele>
        <time>2022-05-21 19:54:00</time>
      </trkpt>
      <trkpt lat="42.39514" lon="2.48933">
        <ele>989.2</ele>
        <time>2022-05-21 19:54:01</time>
      </trkpt>
      <trkpt lat="42.39514" lon="2.48937">
        <ele>989.4</ele>
        <time>2022-05-21 19:54:02</time>
      </trkpt>
      <trkpt lat="42.39514" lon="2.48941">
        <ele>989.6</ele>
        <time>2022-05-21 19:54:03</time>
      </trkpt>
      <trkpt lat="42.39514" lon="2.48944">
        <ele>989.8</ele>
        <time>2022-05-21 19:54:04</time>
      </trkpt>
      <trkpt lat="42.39513" lon="2.48947">
        <ele>989.8</ele>
        <time>2022-05-21 19:54:05</time>
      </trkpt>
      <trkpt lat="42.39513" lon="2.48951">
        <ele>990</ele>
        <time>2022-05-21 19:54:06</time>
      </trkpt>
      <trkpt lat="42.39513" lon="2.48954">
        <ele>990.2</ele>
        <time>2022-05-21 19:54:07</time>
      </trkpt>
      <trkpt lat="42.39513" lon="2.48957">
        <ele>990.4</ele>
        <time>2022-05-21 19:54:08</time>
      </trkpt>
      <trkpt lat="42.39512" lon="2.48961">
        <ele>990.6</ele>
        <time>2022-05-21 19:54:09</time>
      </trkpt>
      <trkpt lat="42.39512" lon="2.48964">
        <ele>990.8</ele>
        <time>2022-05-21 19:54:10</time>
      </trkpt>
      <trkpt lat="42.39512" lon="2.48967">
        <ele>991</ele>
        <time>2022-05-21 19:54:11</time>
      </trkpt>
      <trkpt lat="42.39511" lon="2.4897">
        <ele>991.2</ele>
        <time>2022-05-21 19:54:12</time>
      </trkpt>
      <trkpt lat="42.39511" lon="2.48973">
        <ele>991.4</ele>
        <time>2022-05-21 19:54:13</time>
      </trkpt>
      <trkpt lat="42.39511" lon="2.48976">
        <ele>991.6</ele>
        <time>2022-05-21 19:54:14</time>
      </trkpt>
      <trkpt lat="42.3951" lon="2.48979">
        <ele>991.8</ele>
        <time>2022-05-21 19:54:15</time>
      </trkpt>
      <trkpt lat="42.3951" lon="2.48982">
        <ele>992</ele>
        <time>2022-05-21 19:54:16</time>
      </trkpt>
      <trkpt lat="42.3951" lon="2.48985">
        <ele>992.2</ele>
        <time>2022-05-21 19:54:17</time>
      </trkpt>
      <trkpt lat="42.39509" lon="2.48989">
        <ele>992.4</ele>
        <time>2022-05-21 19:54:18</time>
      </trkpt>
      <trkpt lat="42.39508" lon="2.48993">
        <ele>992.6</ele>
        <time>2022-05-21 19:54:19</time>
      </trkpt>
      <trkpt lat="42.39508" lon="2.48996">
        <ele>992.8</ele>
        <time>2022-05-21 19:54:20</time>
      </trkpt>
      <trkpt lat="42.39508" lon="2.48999">
        <ele>993</ele>
        <time>2022-05-21 19:54:21</time>
      </trkpt>
      <trkpt lat="42.39508" lon="2.49002">
        <ele>993.2</ele>
        <time>2022-05-21 19:54:22</time>
      </trkpt>
      <trkpt lat="42.39507" lon="2.49004">
        <ele>993.2</ele>
        <time>2022-05-21 19:54:23</time>
      </trkpt>
      <trkpt lat="42.39507" lon="2.49007">
        <ele>993.4</ele>
        <time>2022-05-21 19:54:24</time>
      </trkpt>
      <trkpt lat="42.39507" lon="2.4901">
        <ele>993.6</ele>
        <time>2022-05-21 19:54:25</time>
      </trkpt>
      <trkpt lat="42.39507" lon="2.49013">
        <ele>993.8</ele>
        <time>2022-05-21 19:54:26</time>
      </trkpt>
      <trkpt lat="42.39506" lon="2.49016">
        <ele>994</ele>
        <time>2022-05-21 19:54:27</time>
      </trkpt>
      <trkpt lat="42.39505" lon="2.49019">
        <ele>994.2</ele>
        <time>2022-05-21 19:54:28</time>
      </trkpt>
      <trkpt lat="42.39504" lon="2.49022">
        <ele>994.4</ele>
        <time>2022-05-21 19:54:29</time>
      </trkpt>
      <trkpt lat="42.39504" lon="2.49024">
        <ele>994.6</ele>
        <time>2022-05-21 19:54:30</time>
      </trkpt>
      <trkpt lat="42.39503" lon="2.49027">
        <ele>994.8</ele>
        <time>2022-05-21 19:54:31</time>
      </trkpt>
      <trkpt lat="42.39502" lon="2.49029">
        <ele>995</ele>
        <time>2022-05-21 19:54:32</time>
      </trkpt>
      <trkpt lat="42.39501" lon="2.49032">
        <ele>995.2</ele>
        <time>2022-05-21 19:54:33</time>
      </trkpt>
      <trkpt lat="42.395" lon="2.49034">
        <ele>995.4</ele>
        <time>2022-05-21 19:54:34</time>
      </trkpt>
      <trkpt lat="42.39499" lon="2.49037">
        <ele>995.6</ele>
        <time>2022-05-21 19:54:35</time>
      </trkpt>
      <trkpt lat="42.39498" lon="2.49039">
        <ele>995.8</ele>
        <time>2022-05-21 19:54:36</time>
      </trkpt>
      <trkpt lat="42.39497" lon="2.49042">
        <ele>996</ele>
        <time>2022-05-21 19:54:37</time>
      </trkpt>
      <trkpt lat="42.39496" lon="2.49044">
        <ele>996.2</ele>
        <time>2022-05-21 19:54:38</time>
      </trkpt>
      <trkpt lat="42.39494" lon="2.49046">
        <ele>996.4</ele>
        <time>2022-05-21 19:54:39</time>
      </trkpt>
      <trkpt lat="42.39494" lon="2.49048">
        <ele>996.6</ele>
        <time>2022-05-21 19:54:40</time>
      </trkpt>
      <trkpt lat="42.39493" lon="2.4905">
        <ele>996.8</ele>
        <time>2022-05-21 19:54:41</time>
      </trkpt>
      <trkpt lat="42.39492" lon="2.49052">
        <ele>997</ele>
        <time>2022-05-21 19:54:42</time>
      </trkpt>
      <trkpt lat="42.39491" lon="2.49054">
        <ele>997.2</ele>
        <time>2022-05-21 19:54:43</time>
      </trkpt>
      <trkpt lat="42.3949" lon="2.49056">
        <ele>997.4</ele>
        <time>2022-05-21 19:54:44</time>
      </trkpt>
      <trkpt lat="42.39489" lon="2.49058">
        <ele>997.4</ele>
        <time>2022-05-21 19:54:45</time>
      </trkpt>
      <trkpt lat="42.39488" lon="2.4906">
        <ele>997.6</ele>
        <time>2022-05-21 19:54:46</time>
      </trkpt>
      <trkpt lat="42.39486" lon="2.49062">
        <ele>997.8</ele>
        <time>2022-05-21 19:54:47</time>
      </trkpt>
      <trkpt lat="42.39485" lon="2.49065">
        <ele>998</ele>
        <time>2022-05-21 19:54:48</time>
      </trkpt>
      <trkpt lat="42.39485" lon="2.49066">
        <ele>998.2</ele>
        <time>2022-05-21 19:54:49</time>
      </trkpt>
      <trkpt lat="42.39484" lon="2.49068">
        <ele>998.4</ele>
        <time>2022-05-21 19:54:50</time>
      </trkpt>
      <trkpt lat="42.39483" lon="2.4907">
        <ele>998.6</ele>
        <time>2022-05-21 19:54:51</time>
      </trkpt>
      <trkpt lat="42.39482" lon="2.49072">
        <ele>998.8</ele>
        <time>2022-05-21 19:54:52</time>
      </trkpt>
      <trkpt lat="42.39481" lon="2.49075">
        <ele>999</ele>
        <time>2022-05-21 19:54:53</time>
      </trkpt>
      <trkpt lat="42.3948" lon="2.49077">
        <ele>999.2</ele>
        <time>2022-05-21 19:54:54</time>
      </trkpt>
      <trkpt lat="42.3948" lon="2.49079">
        <ele>999.4</ele>
        <time>2022-05-21 19:54:55</time>
      </trkpt>
      <trkpt lat="42.39479" lon="2.49081">
        <ele>999.4</ele>
        <time>2022-05-21 19:54:56</time>
      </trkpt>
      <trkpt lat="42.39479" lon="2.49083">
        <ele>999.6</ele>
        <time>2022-05-21 19:54:57</time>
      </trkpt>
      <trkpt lat="42.39478" lon="2.49085">
        <ele>999.8</ele>
        <time>2022-05-21 19:54:58</time>
      </trkpt>
      <trkpt lat="42.39477" lon="2.49087">
        <ele>1000</ele>
        <time>2022-05-21 19:54:59</time>
      </trkpt>
      <trkpt lat="42.39476" lon="2.49089">
        <ele>1000.2</ele>
        <time>2022-05-21 19:55:00</time>
      </trkpt>
      <trkpt lat="42.39475" lon="2.49091">
        <ele>1000.4</ele>
        <time>2022-05-21 19:55:01</time>
      </trkpt>
      <trkpt lat="42.39473" lon="2.49094">
        <ele>1000.6</ele>
        <time>2022-05-21 19:55:02</time>
      </trkpt>
      <trkpt lat="42.39471" lon="2.49096">
        <ele>1000.8</ele>
        <time>2022-05-21 19:55:03</time>
      </trkpt>
      <trkpt lat="42.3947" lon="2.49099">
        <ele>1001</ele>
        <time>2022-05-21 19:55:04</time>
      </trkpt>
      <trkpt lat="42.39469" lon="2.49103">
        <ele>1001.2</ele>
        <time>2022-05-21 19:55:05</time>
      </trkpt>
      <trkpt lat="42.39468" lon="2.49105">
        <ele>1001.4</ele>
        <time>2022-05-21 19:55:06</time>
      </trkpt>
      <trkpt lat="42.39466" lon="2.49107">
        <ele>1001.6</ele>
        <time>2022-05-21 19:55:07</time>
      </trkpt>
      <trkpt lat="42.39464" lon="2.4911">
        <ele>1001.8</ele>
        <time>2022-05-21 19:55:08</time>
      </trkpt>
      <trkpt lat="42.39463" lon="2.49112">
        <ele>1002</ele>
        <time>2022-05-21 19:55:09</time>
      </trkpt>
      <trkpt lat="42.39461" lon="2.49115">
        <ele>1002.2</ele>
        <time>2022-05-21 19:55:10</time>
      </trkpt>
      <trkpt lat="42.39459" lon="2.49117">
        <ele>1002.4</ele>
        <time>2022-05-21 19:55:11</time>
      </trkpt>
      <trkpt lat="42.39457" lon="2.4912">
        <ele>1002.6</ele>
        <time>2022-05-21 19:55:12</time>
      </trkpt>
      <trkpt lat="42.39456" lon="2.49122">
        <ele>1002.8</ele>
        <time>2022-05-21 19:55:13</time>
      </trkpt>
      <trkpt lat="42.39454" lon="2.49124">
        <ele>1003</ele>
        <time>2022-05-21 19:55:14</time>
      </trkpt>
      <trkpt lat="42.39451" lon="2.49126">
        <ele>1003.2</ele>
        <time>2022-05-21 19:55:15</time>
      </trkpt>
      <trkpt lat="42.39449" lon="2.49128">
        <ele>1003.4</ele>
        <time>2022-05-21 19:55:16</time>
      </trkpt>
      <trkpt lat="42.39447" lon="2.49131">
        <ele>1003.6</ele>
        <time>2022-05-21 19:55:17</time>
      </trkpt>
      <trkpt lat="42.39445" lon="2.49133">
        <ele>1003.8</ele>
        <time>2022-05-21 19:55:18</time>
      </trkpt>
      <trkpt lat="42.39444" lon="2.49135">
        <ele>1004</ele>
        <time>2022-05-21 19:55:19</time>
      </trkpt>
      <trkpt lat="42.39442" lon="2.49137">
        <ele>1004.2</ele>
        <time>2022-05-21 19:55:20</time>
      </trkpt>
      <trkpt lat="42.3944" lon="2.49138">
        <ele>1004.4</ele>
        <time>2022-05-21 19:55:21</time>
      </trkpt>
      <trkpt lat="42.39438" lon="2.49139">
        <ele>1004.6</ele>
        <time>2022-05-21 19:55:22</time>
      </trkpt>
      <trkpt lat="42.39436" lon="2.49141">
        <ele>1004.8</ele>
        <time>2022-05-21 19:55:23</time>
      </trkpt>
      <trkpt lat="42.39434" lon="2.49142">
        <ele>1005</ele>
        <time>2022-05-21 19:55:24</time>
      </trkpt>
      <trkpt lat="42.39431" lon="2.49144">
        <ele>1005.2</ele>
        <time>2022-05-21 19:55:25</time>
      </trkpt>
      <trkpt lat="42.39429" lon="2.49146">
        <ele>1005.4</ele>
        <time>2022-05-21 19:55:26</time>
      </trkpt>
      <trkpt lat="42.39427" lon="2.49147">
        <ele>1005.6</ele>
        <time>2022-05-21 19:55:27</time>
      </trkpt>
      <trkpt lat="42.39425" lon="2.49148">
        <ele>1005.8</ele>
        <time>2022-05-21 19:55:28</time>
      </trkpt>
      <trkpt lat="42.39423" lon="2.49149">
        <ele>1005.8</ele>
        <time>2022-05-21 19:55:29</time>
      </trkpt>
      <trkpt lat="42.39421" lon="2.49151">
        <ele>1006</ele>
        <time>2022-05-21 19:55:30</time>
      </trkpt>
      <trkpt lat="42.39419" lon="2.49152">
        <ele>1006.2</ele>
        <time>2022-05-21 19:55:31</time>
      </trkpt>
      <trkpt lat="42.39418" lon="2.49153">
        <ele>1006.4</ele>
        <time>2022-05-21 19:55:32</time>
      </trkpt>
      <trkpt lat="42.39416" lon="2.49155">
        <ele>1006.6</ele>
        <time>2022-05-21 19:55:33</time>
      </trkpt>
      <trkpt lat="42.39414" lon="2.49157">
        <ele>1006.8</ele>
        <time>2022-05-21 19:55:34</time>
      </trkpt>
      <trkpt lat="42.39412" lon="2.49158">
        <ele>1007.2</ele>
        <time>2022-05-21 19:55:35</time>
      </trkpt>
      <trkpt lat="42.3941" lon="2.4916">
        <ele>1007.4</ele>
        <time>2022-05-21 19:55:36</time>
      </trkpt>
      <trkpt lat="42.39407" lon="2.49161">
        <ele>1007.6</ele>
        <time>2022-05-21 19:55:37</time>
      </trkpt>
      <trkpt lat="42.39405" lon="2.49162">
        <ele>1007.8</ele>
        <time>2022-05-21 19:55:38</time>
      </trkpt>
      <trkpt lat="42.39403" lon="2.49163">
        <ele>1008</ele>
        <time>2022-05-21 19:55:39</time>
      </trkpt>
      <trkpt lat="42.39401" lon="2.49164">
        <ele>1008.2</ele>
        <time>2022-05-21 19:55:40</time>
      </trkpt>
      <trkpt lat="42.39399" lon="2.49165">
        <ele>1008.2</ele>
        <time>2022-05-21 19:55:41</time>
      </trkpt>
      <trkpt lat="42.39397" lon="2.49166">
        <ele>1008.4</ele>
        <time>2022-05-21 19:55:42</time>
      </trkpt>
      <trkpt lat="42.39395" lon="2.49166">
        <ele>1008.6</ele>
        <time>2022-05-21 19:55:43</time>
      </trkpt>
      <trkpt lat="42.39393" lon="2.49167">
        <ele>1008.8</ele>
        <time>2022-05-21 19:55:44</time>
      </trkpt>
      <trkpt lat="42.39391" lon="2.49168">
        <ele>1009</ele>
        <time>2022-05-21 19:55:45</time>
      </trkpt>
      <trkpt lat="42.39389" lon="2.4917">
        <ele>1009.2</ele>
        <time>2022-05-21 19:55:46</time>
      </trkpt>
      <trkpt lat="42.39387" lon="2.49171">
        <ele>1009.6</ele>
        <time>2022-05-21 19:55:47</time>
      </trkpt>
      <trkpt lat="42.39385" lon="2.49173">
        <ele>1009.8</ele>
        <time>2022-05-21 19:55:48</time>
      </trkpt>
      <trkpt lat="42.39384" lon="2.49174">
        <ele>1010</ele>
        <time>2022-05-21 19:55:49</time>
      </trkpt>
      <trkpt lat="42.39382" lon="2.49176">
        <ele>1010.2</ele>
        <time>2022-05-21 19:55:50</time>
      </trkpt>
      <trkpt lat="42.3938" lon="2.49177">
        <ele>1010.4</ele>
        <time>2022-05-21 19:55:51</time>
      </trkpt>
      <trkpt lat="42.39378" lon="2.49179">
        <ele>1010.6</ele>
        <time>2022-05-21 19:55:52</time>
      </trkpt>
      <trkpt lat="42.39377" lon="2.4918">
        <ele>1010.8</ele>
        <time>2022-05-21 19:55:53</time>
      </trkpt>
      <trkpt lat="42.39375" lon="2.49181">
        <ele>1011</ele>
        <time>2022-05-21 19:55:54</time>
      </trkpt>
      <trkpt lat="42.39374" lon="2.49182">
        <ele>1011.2</ele>
        <time>2022-05-21 19:55:55</time>
      </trkpt>
      <trkpt lat="42.39372" lon="2.49184">
        <ele>1011.4</ele>
        <time>2022-05-21 19:55:56</time>
      </trkpt>
      <trkpt lat="42.3937" lon="2.49185">
        <ele>1011.6</ele>
        <time>2022-05-21 19:55:57</time>
      </trkpt>
      <trkpt lat="42.39368" lon="2.49186">
        <ele>1011.8</ele>
        <time>2022-05-21 19:55:58</time>
      </trkpt>
      <trkpt lat="42.39366" lon="2.49187">
        <ele>1012</ele>
        <time>2022-05-21 19:55:59</time>
      </trkpt>
      <trkpt lat="42.39364" lon="2.49188">
        <ele>1012.2</ele>
        <time>2022-05-21 19:56:00</time>
      </trkpt>
      <trkpt lat="42.39362" lon="2.4919">
        <ele>1012.4</ele>
        <time>2022-05-21 19:56:01</time>
      </trkpt>
      <trkpt lat="42.3936" lon="2.49191">
        <ele>1012.6</ele>
        <time>2022-05-21 19:56:02</time>
      </trkpt>
      <trkpt lat="42.39358" lon="2.49192">
        <ele>1012.8</ele>
        <time>2022-05-21 19:56:03</time>
      </trkpt>
      <trkpt lat="42.39357" lon="2.49193">
        <ele>1013.2</ele>
        <time>2022-05-21 19:56:04</time>
      </trkpt>
      <trkpt lat="42.39356" lon="2.49194">
        <ele>1013.4</ele>
        <time>2022-05-21 19:56:05</time>
      </trkpt>
      <trkpt lat="42.39354" lon="2.49196">
        <ele>1013.6</ele>
        <time>2022-05-21 19:56:06</time>
      </trkpt>
      <trkpt lat="42.39352" lon="2.49197">
        <ele>1013.8</ele>
        <time>2022-05-21 19:56:07</time>
      </trkpt>
      <trkpt lat="42.3935" lon="2.49199">
        <ele>1014</ele>
        <time>2022-05-21 19:56:08</time>
      </trkpt>
      <trkpt lat="42.39348" lon="2.492">
        <ele>1014.2</ele>
        <time>2022-05-21 19:56:09</time>
      </trkpt>
      <trkpt lat="42.39346" lon="2.49201">
        <ele>1014.4</ele>
        <time>2022-05-21 19:56:10</time>
      </trkpt>
      <trkpt lat="42.39344" lon="2.49203">
        <ele>1014.6</ele>
        <time>2022-05-21 19:56:11</time>
      </trkpt>
      <trkpt lat="42.39342" lon="2.49204">
        <ele>1014.8</ele>
        <time>2022-05-21 19:56:12</time>
      </trkpt>
      <trkpt lat="42.3934" lon="2.49206">
        <ele>1015</ele>
        <time>2022-05-21 19:56:13</time>
      </trkpt>
      <trkpt lat="42.39339" lon="2.49207">
        <ele>1015.4</ele>
        <time>2022-05-21 19:56:14</time>
      </trkpt>
      <trkpt lat="42.39337" lon="2.49209">
        <ele>1015.6</ele>
        <time>2022-05-21 19:56:15</time>
      </trkpt>
      <trkpt lat="42.39336" lon="2.4921">
        <ele>1015.8</ele>
        <time>2022-05-21 19:56:16</time>
      </trkpt>
      <trkpt lat="42.39334" lon="2.49211">
        <ele>1016</ele>
        <time>2022-05-21 19:56:17</time>
      </trkpt>
      <trkpt lat="42.39332" lon="2.49212">
        <ele>1016.2</ele>
        <time>2022-05-21 19:56:18</time>
      </trkpt>
      <trkpt lat="42.3933" lon="2.49214">
        <ele>1016.4</ele>
        <time>2022-05-21 19:56:19</time>
      </trkpt>
      <trkpt lat="42.39328" lon="2.49215">
        <ele>1016.6</ele>
        <time>2022-05-21 19:56:20</time>
      </trkpt>
      <trkpt lat="42.39326" lon="2.49215">
        <ele>1016.8</ele>
        <time>2022-05-21 19:56:21</time>
      </trkpt>
      <trkpt lat="42.39324" lon="2.49216">
        <ele>1017</ele>
        <time>2022-05-21 19:56:22</time>
      </trkpt>
      <trkpt lat="42.39323" lon="2.49217">
        <ele>1017.2</ele>
        <time>2022-05-21 19:56:23</time>
      </trkpt>
      <trkpt lat="42.39321" lon="2.49219">
        <ele>1017.4</ele>
        <time>2022-05-21 19:56:24</time>
      </trkpt>
      <trkpt lat="42.39319" lon="2.4922">
        <ele>1017.6</ele>
        <time>2022-05-21 19:56:25</time>
      </trkpt>
      <trkpt lat="42.39317" lon="2.49221">
        <ele>1017.8</ele>
        <time>2022-05-21 19:56:26</time>
      </trkpt>
      <trkpt lat="42.39315" lon="2.49222">
        <ele>1018</ele>
        <time>2022-05-21 19:56:27</time>
      </trkpt>
      <trkpt lat="42.39314" lon="2.49223">
        <ele>1018.2</ele>
        <time>2022-05-21 19:56:28</time>
      </trkpt>
      <trkpt lat="42.39312" lon="2.49224">
        <ele>1018.4</ele>
        <time>2022-05-21 19:56:29</time>
      </trkpt>
      <trkpt lat="42.3931" lon="2.49225">
        <ele>1018.6</ele>
        <time>2022-05-21 19:56:30</time>
      </trkpt>
      <trkpt lat="42.39309" lon="2.49227">
        <ele>1018.8</ele>
        <time>2022-05-21 19:56:31</time>
      </trkpt>
      <trkpt lat="42.39307" lon="2.49228">
        <ele>1019</ele>
        <time>2022-05-21 19:56:32</time>
      </trkpt>
      <trkpt lat="42.39306" lon="2.49229">
        <ele>1019.2</ele>
        <time>2022-05-21 19:56:33</time>
      </trkpt>
      <trkpt lat="42.39304" lon="2.4923">
        <ele>1019.4</ele>
        <time>2022-05-21 19:56:34</time>
      </trkpt>
      <trkpt lat="42.39303" lon="2.49231">
        <ele>1019.6</ele>
        <time>2022-05-21 19:56:35</time>
      </trkpt>
      <trkpt lat="42.39301" lon="2.49232">
        <ele>1019.8</ele>
        <time>2022-05-21 19:56:36</time>
      </trkpt>
      <trkpt lat="42.39299" lon="2.49233">
        <ele>1020</ele>
        <time>2022-05-21 19:56:37</time>
      </trkpt>
      <trkpt lat="42.39297" lon="2.49234">
        <ele>1020.2</ele>
        <time>2022-05-21 19:56:38</time>
      </trkpt>
      <trkpt lat="42.39295" lon="2.49235">
        <ele>1020.4</ele>
        <time>2022-05-21 19:56:39</time>
      </trkpt>
      <trkpt lat="42.39293" lon="2.49236">
        <ele>1020.6</ele>
        <time>2022-05-21 19:56:40</time>
      </trkpt>
      <trkpt lat="42.39292" lon="2.49237">
        <ele>1020.8</ele>
        <time>2022-05-21 19:56:41</time>
      </trkpt>
      <trkpt lat="42.3929" lon="2.49238">
        <ele>1021</ele>
        <time>2022-05-21 19:56:42</time>
      </trkpt>
      <trkpt lat="42.39289" lon="2.49239">
        <ele>1021.2</ele>
        <time>2022-05-21 19:56:43</time>
      </trkpt>
      <trkpt lat="42.39287" lon="2.4924">
        <ele>1021.4</ele>
        <time>2022-05-21 19:56:44</time>
      </trkpt>
      <trkpt lat="42.39286" lon="2.49242">
        <ele>1021.6</ele>
        <time>2022-05-21 19:56:45</time>
      </trkpt>
      <trkpt lat="42.39284" lon="2.49243">
        <ele>1021.6</ele>
        <time>2022-05-21 19:56:46</time>
      </trkpt>
      <trkpt lat="42.39282" lon="2.49243">
        <ele>1021.8</ele>
        <time>2022-05-21 19:56:47</time>
      </trkpt>
      <trkpt lat="42.39279" lon="2.49244">
        <ele>1022</ele>
        <time>2022-05-21 19:56:48</time>
      </trkpt>
      <trkpt lat="42.39278" lon="2.49245">
        <ele>1022.2</ele>
        <time>2022-05-21 19:56:49</time>
      </trkpt>
      <trkpt lat="42.39276" lon="2.49247">
        <ele>1022.4</ele>
        <time>2022-05-21 19:56:50</time>
      </trkpt>
      <trkpt lat="42.39274" lon="2.49248">
        <ele>1022.6</ele>
        <time>2022-05-21 19:56:51</time>
      </trkpt>
      <trkpt lat="42.39273" lon="2.49249">
        <ele>1022.8</ele>
        <time>2022-05-21 19:56:52</time>
      </trkpt>
      <trkpt lat="42.39271" lon="2.49249">
        <ele>1023</ele>
        <time>2022-05-21 19:56:53</time>
      </trkpt>
      <trkpt lat="42.39269" lon="2.4925">
        <ele>1023</ele>
        <time>2022-05-21 19:56:54</time>
      </trkpt>
      <trkpt lat="42.39267" lon="2.4925">
        <ele>1023.2</ele>
        <time>2022-05-21 19:56:55</time>
      </trkpt>
      <trkpt lat="42.39266" lon="2.49251">
        <ele>1023.4</ele>
        <time>2022-05-21 19:56:56</time>
      </trkpt>
      <trkpt lat="42.39264" lon="2.49251">
        <ele>1023.6</ele>
        <time>2022-05-21 19:56:57</time>
      </trkpt>
      <trkpt lat="42.39262" lon="2.49251">
        <ele>1023.8</ele>
        <time>2022-05-21 19:56:58</time>
      </trkpt>
      <trkpt lat="42.39261" lon="2.49251">
        <ele>1023.8</ele>
        <time>2022-05-21 19:56:59</time>
      </trkpt>
      <trkpt lat="42.39259" lon="2.49252">
        <ele>1024</ele>
        <time>2022-05-21 19:57:00</time>
      </trkpt>
      <trkpt lat="42.39257" lon="2.49252">
        <ele>1024.2</ele>
        <time>2022-05-21 19:57:01</time>
      </trkpt>
      <trkpt lat="42.39255" lon="2.49252">
        <ele>1024.4</ele>
        <time>2022-05-21 19:57:02</time>
      </trkpt>
      <trkpt lat="42.39253" lon="2.49252">
        <ele>1024.6</ele>
        <time>2022-05-21 19:57:03</time>
      </trkpt>
      <trkpt lat="42.39251" lon="2.49252">
        <ele>1024.8</ele>
        <time>2022-05-21 19:57:04</time>
      </trkpt>
      <trkpt lat="42.39248" lon="2.49253">
        <ele>1025</ele>
        <time>2022-05-21 19:57:05</time>
      </trkpt>
      <trkpt lat="42.39246" lon="2.49253">
        <ele>1025.2</ele>
        <time>2022-05-21 19:57:06</time>
      </trkpt>
      <trkpt lat="42.39244" lon="2.49253">
        <ele>1025.4</ele>
        <time>2022-05-21 19:57:07</time>
      </trkpt>
      <trkpt lat="42.39241" lon="2.49253">
        <ele>1025.6</ele>
        <time>2022-05-21 19:57:08</time>
      </trkpt>
      <trkpt lat="42.39239" lon="2.49253">
        <ele>1025.8</ele>
        <time>2022-05-21 19:57:09</time>
      </trkpt>
      <trkpt lat="42.39237" lon="2.49253">
        <ele>1026</ele>
        <time>2022-05-21 19:57:10</time>
      </trkpt>
      <trkpt lat="42.39235" lon="2.49252">
        <ele>1026.2</ele>
        <time>2022-05-21 19:57:11</time>
      </trkpt>
      <trkpt lat="42.39233" lon="2.49252">
        <ele>1026.4</ele>
        <time>2022-05-21 19:57:12</time>
      </trkpt>
      <trkpt lat="42.39231" lon="2.49252">
        <ele>1026.6</ele>
        <time>2022-05-21 19:57:13</time>
      </trkpt>
      <trkpt lat="42.39229" lon="2.49252">
        <ele>1026.8</ele>
        <time>2022-05-21 19:57:14</time>
      </trkpt>
      <trkpt lat="42.39227" lon="2.49252">
        <ele>1027</ele>
        <time>2022-05-21 19:57:15</time>
      </trkpt>
      <trkpt lat="42.39225" lon="2.49252">
        <ele>1027.2</ele>
        <time>2022-05-21 19:57:16</time>
      </trkpt>
      <trkpt lat="42.39223" lon="2.49251">
        <ele>1027.4</ele>
        <time>2022-05-21 19:57:17</time>
      </trkpt>
      <trkpt lat="42.39221" lon="2.4925">
        <ele>1027.6</ele>
        <time>2022-05-21 19:57:18</time>
      </trkpt>
      <trkpt lat="42.39219" lon="2.4925">
        <ele>1027.8</ele>
        <time>2022-05-21 19:57:19</time>
      </trkpt>
      <trkpt lat="42.39217" lon="2.49249">
        <ele>1028</ele>
        <time>2022-05-21 19:57:20</time>
      </trkpt>
      <trkpt lat="42.39215" lon="2.49249">
        <ele>1028.2</ele>
        <time>2022-05-21 19:57:21</time>
      </trkpt>
      <trkpt lat="42.39213" lon="2.49248">
        <ele>1028.4</ele>
        <time>2022-05-21 19:57:22</time>
      </trkpt>
      <trkpt lat="42.39211" lon="2.49248">
        <ele>1028.8</ele>
        <time>2022-05-21 19:57:23</time>
      </trkpt>
      <trkpt lat="42.39209" lon="2.49248">
        <ele>1029</ele>
        <time>2022-05-21 19:57:24</time>
      </trkpt>
      <trkpt lat="42.39206" lon="2.49248">
        <ele>1029.2</ele>
        <time>2022-05-21 19:57:25</time>
      </trkpt>
      <trkpt lat="42.39204" lon="2.49247">
        <ele>1029.4</ele>
        <time>2022-05-21 19:57:26</time>
      </trkpt>
      <trkpt lat="42.39203" lon="2.49247">
        <ele>1029.6</ele>
        <time>2022-05-21 19:57:27</time>
      </trkpt>
      <trkpt lat="42.39201" lon="2.49247">
        <ele>1029.8</ele>
        <time>2022-05-21 19:57:28</time>
      </trkpt>
      <trkpt lat="42.39199" lon="2.49247">
        <ele>1030</ele>
        <time>2022-05-21 19:57:29</time>
      </trkpt>
      <trkpt lat="42.39197" lon="2.49246">
        <ele>1030.2</ele>
        <time>2022-05-21 19:57:30</time>
      </trkpt>
      <trkpt lat="42.39195" lon="2.49246">
        <ele>1030.6</ele>
        <time>2022-05-21 19:57:31</time>
      </trkpt>
      <trkpt lat="42.39193" lon="2.49245">
        <ele>1030.8</ele>
        <time>2022-05-21 19:57:32</time>
      </trkpt>
      <trkpt lat="42.39191" lon="2.49244">
        <ele>1031</ele>
        <time>2022-05-21 19:57:33</time>
      </trkpt>
      <trkpt lat="42.39189" lon="2.49244">
        <ele>1031.2</ele>
        <time>2022-05-21 19:57:34</time>
      </trkpt>
      <trkpt lat="42.39187" lon="2.49243">
        <ele>1031.4</ele>
        <time>2022-05-21 19:57:35</time>
      </trkpt>
      <trkpt lat="42.39186" lon="2.49243">
        <ele>1031.6</ele>
        <time>2022-05-21 19:57:36</time>
      </trkpt>
      <trkpt lat="42.39184" lon="2.49242">
        <ele>1031.8</ele>
        <time>2022-05-21 19:57:37</time>
      </trkpt>
      <trkpt lat="42.39182" lon="2.49242">
        <ele>1032</ele>
        <time>2022-05-21 19:57:38</time>
      </trkpt>
      <trkpt lat="42.3918" lon="2.49241">
        <ele>1032.2</ele>
        <time>2022-05-21 19:57:39</time>
      </trkpt>
      <trkpt lat="42.39178" lon="2.4924">
        <ele>1032.4</ele>
        <time>2022-05-21 19:57:40</time>
      </trkpt>
      <trkpt lat="42.39176" lon="2.4924">
        <ele>1032.6</ele>
        <time>2022-05-21 19:57:41</time>
      </trkpt>
      <trkpt lat="42.39174" lon="2.49239">
        <ele>1032.8</ele>
        <time>2022-05-21 19:57:42</time>
      </trkpt>
      <trkpt lat="42.39172" lon="2.49239">
        <ele>1033</ele>
        <time>2022-05-21 19:57:43</time>
      </trkpt>
      <trkpt lat="42.39171" lon="2.49238">
        <ele>1033.2</ele>
        <time>2022-05-21 19:57:44</time>
      </trkpt>
      <trkpt lat="42.39169" lon="2.49238">
        <ele>1033.4</ele>
        <time>2022-05-21 19:57:45</time>
      </trkpt>
      <trkpt lat="42.39167" lon="2.49237">
        <ele>1033.6</ele>
        <time>2022-05-21 19:57:46</time>
      </trkpt>
      <trkpt lat="42.39165" lon="2.49237">
        <ele>1033.8</ele>
        <time>2022-05-21 19:57:47</time>
      </trkpt>
      <trkpt lat="42.39163" lon="2.49237">
        <ele>1034</ele>
        <time>2022-05-21 19:57:48</time>
      </trkpt>
      <trkpt lat="42.39161" lon="2.49236">
        <ele>1034.2</ele>
        <time>2022-05-21 19:57:49</time>
      </trkpt>
      <trkpt lat="42.39159" lon="2.49235">
        <ele>1034.4</ele>
        <time>2022-05-21 19:57:50</time>
      </trkpt>
      <trkpt lat="42.39157" lon="2.49235">
        <ele>1034.6</ele>
        <time>2022-05-21 19:57:51</time>
      </trkpt>
      <trkpt lat="42.39155" lon="2.49235">
        <ele>1034.8</ele>
        <time>2022-05-21 19:57:52</time>
      </trkpt>
      <trkpt lat="42.39154" lon="2.49235">
        <ele>1035</ele>
        <time>2022-05-21 19:57:53</time>
      </trkpt>
      <trkpt lat="42.39152" lon="2.49235">
        <ele>1035.2</ele>
        <time>2022-05-21 19:57:54</time>
      </trkpt>
      <trkpt lat="42.3915" lon="2.49234">
        <ele>1035.4</ele>
        <time>2022-05-21 19:57:55</time>
      </trkpt>
      <trkpt lat="42.39147" lon="2.49234">
        <ele>1035.6</ele>
        <time>2022-05-21 19:57:56</time>
      </trkpt>
      <trkpt lat="42.39145" lon="2.49233">
        <ele>1035.8</ele>
        <time>2022-05-21 19:57:57</time>
      </trkpt>
      <trkpt lat="42.39143" lon="2.49233">
        <ele>1036</ele>
        <time>2022-05-21 19:57:58</time>
      </trkpt>
      <trkpt lat="42.39141" lon="2.49233">
        <ele>1036.2</ele>
        <time>2022-05-21 19:57:59</time>
      </trkpt>
      <trkpt lat="42.39139" lon="2.49232">
        <ele>1036.4</ele>
        <time>2022-05-21 19:58:00</time>
      </trkpt>
      <trkpt lat="42.39136" lon="2.49231">
        <ele>1036.6</ele>
        <time>2022-05-21 19:58:01</time>
      </trkpt>
      <trkpt lat="42.39134" lon="2.49231">
        <ele>1036.8</ele>
        <time>2022-05-21 19:58:02</time>
      </trkpt>
      <trkpt lat="42.39132" lon="2.4923">
        <ele>1037</ele>
        <time>2022-05-21 19:58:03</time>
      </trkpt>
      <trkpt lat="42.39129" lon="2.4923">
        <ele>1037.2</ele>
        <time>2022-05-21 19:58:04</time>
      </trkpt>
      <trkpt lat="42.39127" lon="2.49229">
        <ele>1037.4</ele>
        <time>2022-05-21 19:58:05</time>
      </trkpt>
      <trkpt lat="42.39125" lon="2.49229">
        <ele>1037.6</ele>
        <time>2022-05-21 19:58:06</time>
      </trkpt>
      <trkpt lat="42.39122" lon="2.4923">
        <ele>1037.8</ele>
        <time>2022-05-21 19:58:07</time>
      </trkpt>
      <trkpt lat="42.3912" lon="2.4923">
        <ele>1038</ele>
        <time>2022-05-21 19:58:08</time>
      </trkpt>
      <trkpt lat="42.39118" lon="2.4923">
        <ele>1038.2</ele>
        <time>2022-05-21 19:58:09</time>
      </trkpt>
      <trkpt lat="42.39116" lon="2.4923">
        <ele>1038.4</ele>
        <time>2022-05-21 19:58:10</time>
      </trkpt>
      <trkpt lat="42.39114" lon="2.49231">
        <ele>1038.6</ele>
        <time>2022-05-21 19:58:11</time>
      </trkpt>
      <trkpt lat="42.39111" lon="2.49231">
        <ele>1038.6</ele>
        <time>2022-05-21 19:58:12</time>
      </trkpt>
      <trkpt lat="42.39109" lon="2.49231">
        <ele>1038.8</ele>
        <time>2022-05-21 19:58:13</time>
      </trkpt>
      <trkpt lat="42.39107" lon="2.49232">
        <ele>1039</ele>
        <time>2022-05-21 19:58:14</time>
      </trkpt>
      <trkpt lat="42.39105" lon="2.49232">
        <ele>1039.2</ele>
        <time>2022-05-21 19:58:15</time>
      </trkpt>
      <trkpt lat="42.39103" lon="2.49232">
        <ele>1039.4</ele>
        <time>2022-05-21 19:58:16</time>
      </trkpt>
      <trkpt lat="42.39101" lon="2.49233">
        <ele>1039.8</ele>
        <time>2022-05-21 19:58:17</time>
      </trkpt>
      <trkpt lat="42.39099" lon="2.49233">
        <ele>1040</ele>
        <time>2022-05-21 19:58:18</time>
      </trkpt>
      <trkpt lat="42.39097" lon="2.49234">
        <ele>1040.2</ele>
        <time>2022-05-21 19:58:19</time>
      </trkpt>
      <trkpt lat="42.39095" lon="2.49235">
        <ele>1040.4</ele>
        <time>2022-05-21 19:58:20</time>
      </trkpt>
      <trkpt lat="42.39094" lon="2.49236">
        <ele>1040.6</ele>
        <time>2022-05-21 19:58:21</time>
      </trkpt>
      <trkpt lat="42.39092" lon="2.49238">
        <ele>1040.8</ele>
        <time>2022-05-21 19:58:22</time>
      </trkpt>
      <trkpt lat="42.3909" lon="2.49238">
        <ele>1041</ele>
        <time>2022-05-21 19:58:23</time>
      </trkpt>
      <trkpt lat="42.39089" lon="2.49239">
        <ele>1041.2</ele>
        <time>2022-05-21 19:58:24</time>
      </trkpt>
      <trkpt lat="42.39087" lon="2.4924">
        <ele>1041.4</ele>
        <time>2022-05-21 19:58:25</time>
      </trkpt>
      <trkpt lat="42.39085" lon="2.4924">
        <ele>1041.6</ele>
        <time>2022-05-21 19:58:26</time>
      </trkpt>
      <trkpt lat="42.39084" lon="2.49241">
        <ele>1041.8</ele>
        <time>2022-05-21 19:58:27</time>
      </trkpt>
      <trkpt lat="42.39082" lon="2.49241">
        <ele>1042</ele>
        <time>2022-05-21 19:58:28</time>
      </trkpt>
      <trkpt lat="42.3908" lon="2.49242">
        <ele>1042.2</ele>
        <time>2022-05-21 19:58:29</time>
      </trkpt>
      <trkpt lat="42.39078" lon="2.49244">
        <ele>1042.4</ele>
        <time>2022-05-21 19:58:30</time>
      </trkpt>
      <trkpt lat="42.39074" lon="2.49248">
        <ele>1042.6</ele>
        <time>2022-05-21 19:58:31</time>
      </trkpt>
      <trkpt lat="42.3907" lon="2.49252">
        <ele>1042.8</ele>
        <time>2022-05-21 19:58:32</time>
      </trkpt>
      <trkpt lat="42.39066" lon="2.49254">
        <ele>1043</ele>
        <time>2022-05-21 19:58:33</time>
      </trkpt>
      <trkpt lat="42.39064" lon="2.49253">
        <ele>1043.2</ele>
        <time>2022-05-21 19:58:34</time>
      </trkpt>
      <trkpt lat="42.39063" lon="2.49253">
        <ele>1043.4</ele>
        <time>2022-05-21 19:58:35</time>
      </trkpt>
      <trkpt lat="42.39062" lon="2.49253">
        <ele>1043.6</ele>
        <time>2022-05-21 19:58:36</time>
      </trkpt>
      <trkpt lat="42.39061" lon="2.49253">
        <ele>1043.8</ele>
        <time>2022-05-21 19:58:37</time>
      </trkpt>
      <trkpt lat="42.39059" lon="2.49253">
        <ele>1044</ele>
        <time>2022-05-21 19:58:38</time>
      </trkpt>
      <trkpt lat="42.39057" lon="2.49253">
        <ele>1044.2</ele>
        <time>2022-05-21 19:58:39</time>
      </trkpt>
      <trkpt lat="42.39055" lon="2.49253">
        <ele>1044.4</ele>
        <time>2022-05-21 19:58:40</time>
      </trkpt>
      <trkpt lat="42.39053" lon="2.49253">
        <ele>1044.8</ele>
        <time>2022-05-21 19:58:41</time>
      </trkpt>
      <trkpt lat="42.39051" lon="2.49253">
        <ele>1045</ele>
        <time>2022-05-21 19:58:42</time>
      </trkpt>
      <trkpt lat="42.39049" lon="2.49253">
        <ele>1045.2</ele>
        <time>2022-05-21 19:58:43</time>
      </trkpt>
      <trkpt lat="42.39047" lon="2.49253">
        <ele>1045.4</ele>
        <time>2022-05-21 19:58:44</time>
      </trkpt>
      <trkpt lat="42.39045" lon="2.49254">
        <ele>1045.6</ele>
        <time>2022-05-21 19:58:45</time>
      </trkpt>
      <trkpt lat="42.39044" lon="2.49255">
        <ele>1045.8</ele>
        <time>2022-05-21 19:58:46</time>
      </trkpt>
      <trkpt lat="42.39042" lon="2.49256">
        <ele>1046</ele>
        <time>2022-05-21 19:58:47</time>
      </trkpt>
      <trkpt lat="42.3904" lon="2.49257">
        <ele>1046.2</ele>
        <time>2022-05-21 19:58:48</time>
      </trkpt>
      <trkpt lat="42.39038" lon="2.49258">
        <ele>1046.4</ele>
        <time>2022-05-21 19:58:49</time>
      </trkpt>
      <trkpt lat="42.39036" lon="2.49258">
        <ele>1046.6</ele>
        <time>2022-05-21 19:58:50</time>
      </trkpt>
      <trkpt lat="42.39034" lon="2.49258">
        <ele>1046.8</ele>
        <time>2022-05-21 19:58:51</time>
      </trkpt>
      <trkpt lat="42.39032" lon="2.49259">
        <ele>1047</ele>
        <time>2022-05-21 19:58:52</time>
      </trkpt>
      <trkpt lat="42.3903" lon="2.4926">
        <ele>1047.2</ele>
        <time>2022-05-21 19:58:53</time>
      </trkpt>
      <trkpt lat="42.39028" lon="2.4926">
        <ele>1047.4</ele>
        <time>2022-05-21 19:58:54</time>
      </trkpt>
      <trkpt lat="42.39026" lon="2.49261">
        <ele>1047.6</ele>
        <time>2022-05-21 19:58:55</time>
      </trkpt>
      <trkpt lat="42.39025" lon="2.49262">
        <ele>1047.8</ele>
        <time>2022-05-21 19:58:56</time>
      </trkpt>
      <trkpt lat="42.39023" lon="2.49263">
        <ele>1048</ele>
        <time>2022-05-21 19:58:57</time>
      </trkpt>
      <trkpt lat="42.39022" lon="2.49264">
        <ele>1048.2</ele>
        <time>2022-05-21 19:58:58</time>
      </trkpt>
      <trkpt lat="42.3902" lon="2.49264">
        <ele>1048.2</ele>
        <time>2022-05-21 19:58:59</time>
      </trkpt>
      <trkpt lat="42.39018" lon="2.49265">
        <ele>1048.4</ele>
        <time>2022-05-21 19:59:00</time>
      </trkpt>
      <trkpt lat="42.39017" lon="2.49266">
        <ele>1048.6</ele>
        <time>2022-05-21 19:59:01</time>
      </trkpt>
      <trkpt lat="42.39015" lon="2.49266">
        <ele>1048.8</ele>
        <time>2022-05-21 19:59:02</time>
      </trkpt>
      <trkpt lat="42.39013" lon="2.49267">
        <ele>1049</ele>
        <time>2022-05-21 19:59:03</time>
      </trkpt>
      <trkpt lat="42.39011" lon="2.49267">
        <ele>1049.2</ele>
        <time>2022-05-21 19:59:04</time>
      </trkpt>
      <trkpt lat="42.39009" lon="2.49267">
        <ele>1049.4</ele>
        <time>2022-05-21 19:59:05</time>
      </trkpt>
      <trkpt lat="42.39007" lon="2.49268">
        <ele>1049.4</ele>
        <time>2022-05-21 19:59:06</time>
      </trkpt>
      <trkpt lat="42.39005" lon="2.49269">
        <ele>1049.6</ele>
        <time>2022-05-21 19:59:07</time>
      </trkpt>
      <trkpt lat="42.39003" lon="2.49269">
        <ele>1049.8</ele>
        <time>2022-05-21 19:59:08</time>
      </trkpt>
      <trkpt lat="42.39001" lon="2.4927">
        <ele>1050</ele>
        <time>2022-05-21 19:59:09</time>
      </trkpt>
      <trkpt lat="42.38999" lon="2.49271">
        <ele>1050.2</ele>
        <time>2022-05-21 19:59:10</time>
      </trkpt>
      <trkpt lat="42.38997" lon="2.49271">
        <ele>1050.4</ele>
        <time>2022-05-21 19:59:11</time>
      </trkpt>
      <trkpt lat="42.38995" lon="2.49272">
        <ele>1050.6</ele>
        <time>2022-05-21 19:59:12</time>
      </trkpt>
      <trkpt lat="42.38993" lon="2.49273">
        <ele>1050.8</ele>
        <time>2022-05-21 19:59:13</time>
      </trkpt>
      <trkpt lat="42.38991" lon="2.49274">
        <ele>1051</ele>
        <time>2022-05-21 19:59:14</time>
      </trkpt>
      <trkpt lat="42.3899" lon="2.49275">
        <ele>1051.2</ele>
        <time>2022-05-21 19:59:15</time>
      </trkpt>
      <trkpt lat="42.38988" lon="2.49276">
        <ele>1051.4</ele>
        <time>2022-05-21 19:59:16</time>
      </trkpt>
      <trkpt lat="42.38986" lon="2.49278">
        <ele>1051.4</ele>
        <time>2022-05-21 19:59:17</time>
      </trkpt>
      <trkpt lat="42.38984" lon="2.49278">
        <ele>1051.6</ele>
        <time>2022-05-21 19:59:18</time>
      </trkpt>
      <trkpt lat="42.38982" lon="2.49279">
        <ele>1051.8</ele>
        <time>2022-05-21 19:59:19</time>
      </trkpt>
      <trkpt lat="42.3898" lon="2.4928">
        <ele>1052</ele>
        <time>2022-05-21 19:59:20</time>
      </trkpt>
      <trkpt lat="42.38978" lon="2.49281">
        <ele>1052.2</ele>
        <time>2022-05-21 19:59:21</time>
      </trkpt>
      <trkpt lat="42.38976" lon="2.49282">
        <ele>1052.2</ele>
        <time>2022-05-21 19:59:22</time>
      </trkpt>
      <trkpt lat="42.38974" lon="2.49283">
        <ele>1052.4</ele>
        <time>2022-05-21 19:59:23</time>
      </trkpt>
      <trkpt lat="42.38972" lon="2.49284">
        <ele>1052.6</ele>
        <time>2022-05-21 19:59:24</time>
      </trkpt>
      <trkpt lat="42.38969" lon="2.49285">
        <ele>1052.8</ele>
        <time>2022-05-21 19:59:25</time>
      </trkpt>
      <trkpt lat="42.38967" lon="2.49286">
        <ele>1053</ele>
        <time>2022-05-21 19:59:26</time>
      </trkpt>
      <trkpt lat="42.38966" lon="2.49287">
        <ele>1053.2</ele>
        <time>2022-05-21 19:59:27</time>
      </trkpt>
      <trkpt lat="42.38964" lon="2.49288">
        <ele>1053.4</ele>
        <time>2022-05-21 19:59:28</time>
      </trkpt>
      <trkpt lat="42.38962" lon="2.49289">
        <ele>1053.6</ele>
        <time>2022-05-21 19:59:29</time>
      </trkpt>
      <trkpt lat="42.3896" lon="2.4929">
        <ele>1053.8</ele>
        <time>2022-05-21 19:59:30</time>
      </trkpt>
      <trkpt lat="42.38957" lon="2.49291">
        <ele>1053.8</ele>
        <time>2022-05-21 19:59:31</time>
      </trkpt>
      <trkpt lat="42.38955" lon="2.49292">
        <ele>1054</ele>
        <time>2022-05-21 19:59:32</time>
      </trkpt>
      <trkpt lat="42.38953" lon="2.49293">
        <ele>1054.2</ele>
        <time>2022-05-21 19:59:33</time>
      </trkpt>
      <trkpt lat="42.38951" lon="2.49294">
        <ele>1054.4</ele>
        <time>2022-05-21 19:59:34</time>
      </trkpt>
      <trkpt lat="42.38949" lon="2.49295">
        <ele>1054.6</ele>
        <time>2022-05-21 19:59:35</time>
      </trkpt>
      <trkpt lat="42.38947" lon="2.49296">
        <ele>1054.8</ele>
        <time>2022-05-21 19:59:36</time>
      </trkpt>
      <trkpt lat="42.38945" lon="2.49298">
        <ele>1055</ele>
        <time>2022-05-21 19:59:37</time>
      </trkpt>
      <trkpt lat="42.38944" lon="2.49299">
        <ele>1055.2</ele>
        <time>2022-05-21 19:59:38</time>
      </trkpt>
      <trkpt lat="42.38942" lon="2.493">
        <ele>1055.4</ele>
        <time>2022-05-21 19:59:39</time>
      </trkpt>
      <trkpt lat="42.3894" lon="2.49301">
        <ele>1055.6</ele>
        <time>2022-05-21 19:59:40</time>
      </trkpt>
      <trkpt lat="42.38938" lon="2.49302">
        <ele>1055.6</ele>
        <time>2022-05-21 19:59:41</time>
      </trkpt>
      <trkpt lat="42.38936" lon="2.49303">
        <ele>1055.8</ele>
        <time>2022-05-21 19:59:42</time>
      </trkpt>
      <trkpt lat="42.38934" lon="2.49304">
        <ele>1056</ele>
        <time>2022-05-21 19:59:43</time>
      </trkpt>
      <trkpt lat="42.38932" lon="2.49305">
        <ele>1056.2</ele>
        <time>2022-05-21 19:59:44</time>
      </trkpt>
      <trkpt lat="42.38931" lon="2.49306">
        <ele>1056.4</ele>
        <time>2022-05-21 19:59:45</time>
      </trkpt>
      <trkpt lat="42.38929" lon="2.49307">
        <ele>1056.6</ele>
        <time>2022-05-21 19:59:46</time>
      </trkpt>
      <trkpt lat="42.38927" lon="2.49308">
        <ele>1056.8</ele>
        <time>2022-05-21 19:59:47</time>
      </trkpt>
      <trkpt lat="42.38926" lon="2.49309">
        <ele>1057</ele>
        <time>2022-05-21 19:59:48</time>
      </trkpt>
      <trkpt lat="42.38923" lon="2.49311">
        <ele>1057</ele>
        <time>2022-05-21 19:59:49</time>
      </trkpt>
      <trkpt lat="42.38921" lon="2.49313">
        <ele>1057.2</ele>
        <time>2022-05-21 19:59:50</time>
      </trkpt>
      <trkpt lat="42.3892" lon="2.49314">
        <ele>1057.4</ele>
        <time>2022-05-21 19:59:51</time>
      </trkpt>
      <trkpt lat="42.38918" lon="2.49315">
        <ele>1057.6</ele>
        <time>2022-05-21 19:59:52</time>
      </trkpt>
      <trkpt lat="42.38917" lon="2.49318">
        <ele>1057.6</ele>
        <time>2022-05-21 19:59:53</time>
      </trkpt>
      <trkpt lat="42.38915" lon="2.4932">
        <ele>1057.8</ele>
        <time>2022-05-21 19:59:54</time>
      </trkpt>
      <trkpt lat="42.38912" lon="2.49322">
        <ele>1058</ele>
        <time>2022-05-21 19:59:55</time>
      </trkpt>
      <trkpt lat="42.38911" lon="2.49323">
        <ele>1058</ele>
        <time>2022-05-21 19:59:56</time>
      </trkpt>
      <trkpt lat="42.38909" lon="2.49325">
        <ele>1058.2</ele>
        <time>2022-05-21 19:59:57</time>
      </trkpt>
      <trkpt lat="42.38907" lon="2.49326">
        <ele>1058.4</ele>
        <time>2022-05-21 19:59:58</time>
      </trkpt>
      <trkpt lat="42.38904" lon="2.49327">
        <ele>1058.6</ele>
        <time>2022-05-21 19:59:59</time>
      </trkpt>
      <trkpt lat="42.38902" lon="2.49327">
        <ele>1058.6</ele>
        <time>2022-05-21 20:00:00</time>
      </trkpt>
      <trkpt lat="42.389" lon="2.49328">
        <ele>1058.8</ele>
        <time>2022-05-21 20:00:01</time>
      </trkpt>
      <trkpt lat="42.38897" lon="2.49329">
        <ele>1059</ele>
        <time>2022-05-21 20:00:02</time>
      </trkpt>
      <trkpt lat="42.38895" lon="2.49331">
        <ele>1059</ele>
        <time>2022-05-21 20:00:03</time>
      </trkpt>
      <trkpt lat="42.38893" lon="2.49332">
        <ele>1059.2</ele>
        <time>2022-05-21 20:00:04</time>
      </trkpt>
      <trkpt lat="42.38892" lon="2.49334">
        <ele>1059.4</ele>
        <time>2022-05-21 20:00:05</time>
      </trkpt>
      <trkpt lat="42.38891" lon="2.49336">
        <ele>1059.4</ele>
        <time>2022-05-21 20:00:06</time>
      </trkpt>
      <trkpt lat="42.38889" lon="2.49338">
        <ele>1059.6</ele>
        <time>2022-05-21 20:00:07</time>
      </trkpt>
      <trkpt lat="42.38887" lon="2.4934">
        <ele>1059.8</ele>
        <time>2022-05-21 20:00:08</time>
      </trkpt>
      <trkpt lat="42.38886" lon="2.49342">
        <ele>1059.8</ele>
        <time>2022-05-21 20:00:09</time>
      </trkpt>
      <trkpt lat="42.38885" lon="2.49344">
        <ele>1060</ele>
        <time>2022-05-21 20:00:10</time>
      </trkpt>
      <trkpt lat="42.38884" lon="2.49347">
        <ele>1060.2</ele>
        <time>2022-05-21 20:00:11</time>
      </trkpt>
      <trkpt lat="42.38882" lon="2.49349">
        <ele>1060.4</ele>
        <time>2022-05-21 20:00:12</time>
      </trkpt>
      <trkpt lat="42.38881" lon="2.4935">
        <ele>1060.6</ele>
        <time>2022-05-21 20:00:13</time>
      </trkpt>
      <trkpt lat="42.3888" lon="2.49352">
        <ele>1060.6</ele>
        <time>2022-05-21 20:00:14</time>
      </trkpt>
      <trkpt lat="42.38878" lon="2.49354">
        <ele>1060.8</ele>
        <time>2022-05-21 20:00:15</time>
      </trkpt>
      <trkpt lat="42.38876" lon="2.49357">
        <ele>1061</ele>
        <time>2022-05-21 20:00:16</time>
      </trkpt>
      <trkpt lat="42.38875" lon="2.49359">
        <ele>1061.2</ele>
        <time>2022-05-21 20:00:17</time>
      </trkpt>
      <trkpt lat="42.38874" lon="2.49361">
        <ele>1061.2</ele>
        <time>2022-05-21 20:00:18</time>
      </trkpt>
      <trkpt lat="42.38873" lon="2.49363">
        <ele>1061.4</ele>
        <time>2022-05-21 20:00:19</time>
      </trkpt>
      <trkpt lat="42.38872" lon="2.49365">
        <ele>1061.6</ele>
        <time>2022-05-21 20:00:20</time>
      </trkpt>
      <trkpt lat="42.38871" lon="2.49367">
        <ele>1061.8</ele>
        <time>2022-05-21 20:00:21</time>
      </trkpt>
      <trkpt lat="42.38869" lon="2.4937">
        <ele>1062</ele>
        <time>2022-05-21 20:00:22</time>
      </trkpt>
      <trkpt lat="42.38868" lon="2.49372">
        <ele>1062.2</ele>
        <time>2022-05-21 20:00:23</time>
      </trkpt>
      <trkpt lat="42.38866" lon="2.49375">
        <ele>1062.4</ele>
        <time>2022-05-21 20:00:24</time>
      </trkpt>
      <trkpt lat="42.38865" lon="2.49377">
        <ele>1062.4</ele>
        <time>2022-05-21 20:00:25</time>
      </trkpt>
      <trkpt lat="42.38863" lon="2.4938">
        <ele>1062.6</ele>
        <time>2022-05-21 20:00:26</time>
      </trkpt>
      <trkpt lat="42.38862" lon="2.49381">
        <ele>1062.8</ele>
        <time>2022-05-21 20:00:27</time>
      </trkpt>
      <trkpt lat="42.3886" lon="2.49384">
        <ele>1063</ele>
        <time>2022-05-21 20:00:28</time>
      </trkpt>
      <trkpt lat="42.38858" lon="2.49386">
        <ele>1063.2</ele>
        <time>2022-05-21 20:00:29</time>
      </trkpt>
      <trkpt lat="42.38856" lon="2.49388">
        <ele>1063.4</ele>
        <time>2022-05-21 20:00:30</time>
      </trkpt>
      <trkpt lat="42.38854" lon="2.4939">
        <ele>1063.6</ele>
        <time>2022-05-21 20:00:31</time>
      </trkpt>
      <trkpt lat="42.38852" lon="2.49392">
        <ele>1063.8</ele>
        <time>2022-05-21 20:00:32</time>
      </trkpt>
      <trkpt lat="42.3885" lon="2.49395">
        <ele>1064.2</ele>
        <time>2022-05-21 20:00:33</time>
      </trkpt>
      <trkpt lat="42.38849" lon="2.49397">
        <ele>1064.4</ele>
        <time>2022-05-21 20:00:34</time>
      </trkpt>
      <trkpt lat="42.38847" lon="2.494">
        <ele>1064.6</ele>
        <time>2022-05-21 20:00:35</time>
      </trkpt>
      <trkpt lat="42.38846" lon="2.49403">
        <ele>1064.8</ele>
        <time>2022-05-21 20:00:36</time>
      </trkpt>
      <trkpt lat="42.38845" lon="2.49405">
        <ele>1065</ele>
        <time>2022-05-21 20:00:37</time>
      </trkpt>
      <trkpt lat="42.3884" lon="2.49408">
        <ele>1065.2</ele>
        <time>2022-05-21 20:00:38</time>
      </trkpt>
      <trkpt lat="42.38836" lon="2.49411">
        <ele>1065.4</ele>
        <time>2022-05-21 20:00:39</time>
      </trkpt>
      <trkpt lat="42.38835" lon="2.49412">
        <ele>1065.6</ele>
        <time>2022-05-21 20:00:40</time>
      </trkpt>
      <trkpt lat="42.38834" lon="2.49414">
        <ele>1065.8</ele>
        <time>2022-05-21 20:00:41</time>
      </trkpt>
      <trkpt lat="42.38834" lon="2.49417">
        <ele>1066</ele>
        <time>2022-05-21 20:00:42</time>
      </trkpt>
      <trkpt lat="42.38833" lon="2.49419">
        <ele>1066.2</ele>
        <time>2022-05-21 20:00:43</time>
      </trkpt>
      <trkpt lat="42.38834" lon="2.49423">
        <ele>1066.4</ele>
        <time>2022-05-21 20:00:44</time>
      </trkpt>
      <trkpt lat="42.38834" lon="2.49426">
        <ele>1066.6</ele>
        <time>2022-05-21 20:00:45</time>
      </trkpt>
      <trkpt lat="42.38834" lon="2.49428">
        <ele>1066.8</ele>
        <time>2022-05-21 20:00:46</time>
      </trkpt>
      <trkpt lat="42.38833" lon="2.4943">
        <ele>1067</ele>
        <time>2022-05-21 20:00:47</time>
      </trkpt>
      <trkpt lat="42.38832" lon="2.49432">
        <ele>1067.2</ele>
        <time>2022-05-21 20:00:48</time>
      </trkpt>
      <trkpt lat="42.38831" lon="2.49434">
        <ele>1067.4</ele>
        <time>2022-05-21 20:00:49</time>
      </trkpt>
      <trkpt lat="42.3883" lon="2.49436">
        <ele>1067.6</ele>
        <time>2022-05-21 20:00:50</time>
      </trkpt>
      <trkpt lat="42.38829" lon="2.49438">
        <ele>1067.8</ele>
        <time>2022-05-21 20:00:51</time>
      </trkpt>
      <trkpt lat="42.38828" lon="2.4944">
        <ele>1067.8</ele>
        <time>2022-05-21 20:00:52</time>
      </trkpt>
      <trkpt lat="42.38828" lon="2.49442">
        <ele>1068</ele>
        <time>2022-05-21 20:00:53</time>
      </trkpt>
      <trkpt lat="42.38827" lon="2.49444">
        <ele>1068.2</ele>
        <time>2022-05-21 20:00:54</time>
      </trkpt>
      <trkpt lat="42.38826" lon="2.49446">
        <ele>1068.4</ele>
        <time>2022-05-21 20:00:55</time>
      </trkpt>
      <trkpt lat="42.38825" lon="2.49447">
        <ele>1068.6</ele>
        <time>2022-05-21 20:00:56</time>
      </trkpt>
      <trkpt lat="42.38823" lon="2.49449">
        <ele>1068.8</ele>
        <time>2022-05-21 20:00:57</time>
      </trkpt>
      <trkpt lat="42.38822" lon="2.49451">
        <ele>1069</ele>
        <time>2022-05-21 20:00:58</time>
      </trkpt>
      <trkpt lat="42.3882" lon="2.49453">
        <ele>1069.2</ele>
        <time>2022-05-21 20:00:59</time>
      </trkpt>
      <trkpt lat="42.38819" lon="2.49454">
        <ele>1069.4</ele>
        <time>2022-05-21 20:01:00</time>
      </trkpt>
      <trkpt lat="42.38817" lon="2.49455">
        <ele>1069.6</ele>
        <time>2022-05-21 20:01:01</time>
      </trkpt>
      <trkpt lat="42.38816" lon="2.49457">
        <ele>1069.8</ele>
        <time>2022-05-21 20:01:02</time>
      </trkpt>
      <trkpt lat="42.38816" lon="2.49458">
        <ele>1070</ele>
        <time>2022-05-21 20:01:03</time>
      </trkpt>
      <trkpt lat="42.38814" lon="2.49459">
        <ele>1070.2</ele>
        <time>2022-05-21 20:01:04</time>
      </trkpt>
      <trkpt lat="42.38813" lon="2.49462">
        <ele>1070.4</ele>
        <time>2022-05-21 20:01:05</time>
      </trkpt>
      <trkpt lat="42.38812" lon="2.49464">
        <ele>1070.6</ele>
        <time>2022-05-21 20:01:06</time>
      </trkpt>
      <trkpt lat="42.38811" lon="2.49466">
        <ele>1070.8</ele>
        <time>2022-05-21 20:01:07</time>
      </trkpt>
      <trkpt lat="42.38809" lon="2.49468">
        <ele>1071.2</ele>
        <time>2022-05-21 20:01:08</time>
      </trkpt>
      <trkpt lat="42.38808" lon="2.49469">
        <ele>1071.4</ele>
        <time>2022-05-21 20:01:09</time>
      </trkpt>
      <trkpt lat="42.38807" lon="2.49471">
        <ele>1071.6</ele>
        <time>2022-05-21 20:01:10</time>
      </trkpt>
      <trkpt lat="42.38806" lon="2.49473">
        <ele>1071.8</ele>
        <time>2022-05-21 20:01:11</time>
      </trkpt>
      <trkpt lat="42.38804" lon="2.49475">
        <ele>1072</ele>
        <time>2022-05-21 20:01:12</time>
      </trkpt>
      <trkpt lat="42.38803" lon="2.49476">
        <ele>1072.2</ele>
        <time>2022-05-21 20:01:13</time>
      </trkpt>
      <trkpt lat="42.38802" lon="2.49478">
        <ele>1072.4</ele>
        <time>2022-05-21 20:01:14</time>
      </trkpt>
      <trkpt lat="42.38801" lon="2.49481">
        <ele>1072.6</ele>
        <time>2022-05-21 20:01:15</time>
      </trkpt>
      <trkpt lat="42.388" lon="2.49483">
        <ele>1072.8</ele>
        <time>2022-05-21 20:01:16</time>
      </trkpt>
      <trkpt lat="42.38799" lon="2.49485">
        <ele>1073</ele>
        <time>2022-05-21 20:01:17</time>
      </trkpt>
      <trkpt lat="42.38798" lon="2.49487">
        <ele>1073.2</ele>
        <time>2022-05-21 20:01:18</time>
      </trkpt>
      <trkpt lat="42.38797" lon="2.49489">
        <ele>1073.4</ele>
        <time>2022-05-21 20:01:19</time>
      </trkpt>
      <trkpt lat="42.38796" lon="2.49491">
        <ele>1073.6</ele>
        <time>2022-05-21 20:01:20</time>
      </trkpt>
      <trkpt lat="42.38795" lon="2.49493">
        <ele>1073.8</ele>
        <time>2022-05-21 20:01:21</time>
      </trkpt>
      <trkpt lat="42.38794" lon="2.49494">
        <ele>1074</ele>
        <time>2022-05-21 20:01:22</time>
      </trkpt>
      <trkpt lat="42.38793" lon="2.49496">
        <ele>1074.2</ele>
        <time>2022-05-21 20:01:23</time>
      </trkpt>
      <trkpt lat="42.38792" lon="2.49497">
        <ele>1074.4</ele>
        <time>2022-05-21 20:01:24</time>
      </trkpt>
      <trkpt lat="42.38791" lon="2.49499">
        <ele>1074.6</ele>
        <time>2022-05-21 20:01:25</time>
      </trkpt>
      <trkpt lat="42.3879" lon="2.49501">
        <ele>1074.8</ele>
        <time>2022-05-21 20:01:26</time>
      </trkpt>
      <trkpt lat="42.38789" lon="2.49503">
        <ele>1075</ele>
        <time>2022-05-21 20:01:27</time>
      </trkpt>
      <trkpt lat="42.38788" lon="2.49505">
        <ele>1075.2</ele>
        <time>2022-05-21 20:01:28</time>
      </trkpt>
      <trkpt lat="42.38787" lon="2.49507">
        <ele>1075.4</ele>
        <time>2022-05-21 20:01:29</time>
      </trkpt>
      <trkpt lat="42.38787" lon="2.49509">
        <ele>1075.6</ele>
        <time>2022-05-21 20:01:30</time>
      </trkpt>
      <trkpt lat="42.38785" lon="2.49511">
        <ele>1075.8</ele>
        <time>2022-05-21 20:01:31</time>
      </trkpt>
      <trkpt lat="42.38784" lon="2.49512">
        <ele>1076</ele>
        <time>2022-05-21 20:01:32</time>
      </trkpt>
      <trkpt lat="42.38783" lon="2.49514">
        <ele>1076.2</ele>
        <time>2022-05-21 20:01:33</time>
      </trkpt>
      <trkpt lat="42.38782" lon="2.49516">
        <ele>1076.4</ele>
        <time>2022-05-21 20:01:34</time>
      </trkpt>
      <trkpt lat="42.38782" lon="2.49518">
        <ele>1076.6</ele>
        <time>2022-05-21 20:01:35</time>
      </trkpt>
      <trkpt lat="42.38781" lon="2.4952">
        <ele>1076.8</ele>
        <time>2022-05-21 20:01:36</time>
      </trkpt>
      <trkpt lat="42.3878" lon="2.49522">
        <ele>1077</ele>
        <time>2022-05-21 20:01:37</time>
      </trkpt>
      <trkpt lat="42.38779" lon="2.49524">
        <ele>1077.2</ele>
        <time>2022-05-21 20:01:38</time>
      </trkpt>
      <trkpt lat="42.38777" lon="2.49526">
        <ele>1077.4</ele>
        <time>2022-05-21 20:01:39</time>
      </trkpt>
      <trkpt lat="42.38775" lon="2.49527">
        <ele>1077.6</ele>
        <time>2022-05-21 20:01:40</time>
      </trkpt>
      <trkpt lat="42.38774" lon="2.49529">
        <ele>1077.8</ele>
        <time>2022-05-21 20:01:41</time>
      </trkpt>
      <trkpt lat="42.38772" lon="2.49531">
        <ele>1078</ele>
        <time>2022-05-21 20:01:42</time>
      </trkpt>
      <trkpt lat="42.38771" lon="2.49533">
        <ele>1078.2</ele>
        <time>2022-05-21 20:01:43</time>
      </trkpt>
      <trkpt lat="42.38769" lon="2.49534">
        <ele>1078.4</ele>
        <time>2022-05-21 20:01:44</time>
      </trkpt>
      <trkpt lat="42.38768" lon="2.49536">
        <ele>1078.6</ele>
        <time>2022-05-21 20:01:45</time>
      </trkpt>
      <trkpt lat="42.38766" lon="2.49538">
        <ele>1078.8</ele>
        <time>2022-05-21 20:01:46</time>
      </trkpt>
      <trkpt lat="42.38765" lon="2.49541">
        <ele>1079</ele>
        <time>2022-05-21 20:01:47</time>
      </trkpt>
      <trkpt lat="42.38764" lon="2.49543">
        <ele>1079.2</ele>
        <time>2022-05-21 20:01:48</time>
      </trkpt>
      <trkpt lat="42.38762" lon="2.49545">
        <ele>1079.4</ele>
        <time>2022-05-21 20:01:49</time>
      </trkpt>
      <trkpt lat="42.38761" lon="2.49547">
        <ele>1079.6</ele>
        <time>2022-05-21 20:01:50</time>
      </trkpt>
      <trkpt lat="42.3876" lon="2.49549">
        <ele>1079.8</ele>
        <time>2022-05-21 20:01:51</time>
      </trkpt>
      <trkpt lat="42.38759" lon="2.49551">
        <ele>1080</ele>
        <time>2022-05-21 20:01:52</time>
      </trkpt>
      <trkpt lat="42.38757" lon="2.49553">
        <ele>1080.2</ele>
        <time>2022-05-21 20:01:53</time>
      </trkpt>
      <trkpt lat="42.38756" lon="2.49555">
        <ele>1080.4</ele>
        <time>2022-05-21 20:01:54</time>
      </trkpt>
      <trkpt lat="42.38755" lon="2.49557">
        <ele>1080.6</ele>
        <time>2022-05-21 20:01:55</time>
      </trkpt>
      <trkpt lat="42.38754" lon="2.49559">
        <ele>1080.8</ele>
        <time>2022-05-21 20:01:56</time>
      </trkpt>
      <trkpt lat="42.38753" lon="2.49561">
        <ele>1081</ele>
        <time>2022-05-21 20:01:57</time>
      </trkpt>
      <trkpt lat="42.38751" lon="2.49563">
        <ele>1081.4</ele>
        <time>2022-05-21 20:01:58</time>
      </trkpt>
      <trkpt lat="42.3875" lon="2.49565">
        <ele>1081.6</ele>
        <time>2022-05-21 20:01:59</time>
      </trkpt>
      <trkpt lat="42.38749" lon="2.49566">
        <ele>1081.8</ele>
        <time>2022-05-21 20:02:00</time>
      </trkpt>
      <trkpt lat="42.38748" lon="2.49568">
        <ele>1081.8</ele>
        <time>2022-05-21 20:02:01</time>
      </trkpt>
      <trkpt lat="42.38747" lon="2.4957">
        <ele>1082</ele>
        <time>2022-05-21 20:02:02</time>
      </trkpt>
      <trkpt lat="42.38745" lon="2.49571">
        <ele>1082.2</ele>
        <time>2022-05-21 20:02:03</time>
      </trkpt>
      <trkpt lat="42.38744" lon="2.49573">
        <ele>1082.4</ele>
        <time>2022-05-21 20:02:04</time>
      </trkpt>
      <trkpt lat="42.38743" lon="2.49575">
        <ele>1082.6</ele>
        <time>2022-05-21 20:02:05</time>
      </trkpt>
      <trkpt lat="42.38742" lon="2.49577">
        <ele>1082.8</ele>
        <time>2022-05-21 20:02:06</time>
      </trkpt>
      <trkpt lat="42.38741" lon="2.49579">
        <ele>1083</ele>
        <time>2022-05-21 20:02:07</time>
      </trkpt>
      <trkpt lat="42.3874" lon="2.49581">
        <ele>1083.2</ele>
        <time>2022-05-21 20:02:08</time>
      </trkpt>
      <trkpt lat="42.38739" lon="2.49583">
        <ele>1083.4</ele>
        <time>2022-05-21 20:02:09</time>
      </trkpt>
      <trkpt lat="42.38737" lon="2.49585">
        <ele>1083.6</ele>
        <time>2022-05-21 20:02:10</time>
      </trkpt>
      <trkpt lat="42.38736" lon="2.49587">
        <ele>1083.8</ele>
        <time>2022-05-21 20:02:11</time>
      </trkpt>
      <trkpt lat="42.38735" lon="2.49589">
        <ele>1084</ele>
        <time>2022-05-21 20:02:12</time>
      </trkpt>
      <trkpt lat="42.38734" lon="2.49591">
        <ele>1084.2</ele>
        <time>2022-05-21 20:02:13</time>
      </trkpt>
      <trkpt lat="42.38733" lon="2.49593">
        <ele>1084.4</ele>
        <time>2022-05-21 20:02:14</time>
      </trkpt>
      <trkpt lat="42.38732" lon="2.49595">
        <ele>1084.6</ele>
        <time>2022-05-21 20:02:15</time>
      </trkpt>
      <trkpt lat="42.38731" lon="2.49597">
        <ele>1084.6</ele>
        <time>2022-05-21 20:02:16</time>
      </trkpt>
      <trkpt lat="42.3873" lon="2.49599">
        <ele>1084.8</ele>
        <time>2022-05-21 20:02:17</time>
      </trkpt>
      <trkpt lat="42.38728" lon="2.496">
        <ele>1085</ele>
        <time>2022-05-21 20:02:18</time>
      </trkpt>
      <trkpt lat="42.38727" lon="2.49602">
        <ele>1085.2</ele>
        <time>2022-05-21 20:02:19</time>
      </trkpt>
      <trkpt lat="42.38725" lon="2.49604">
        <ele>1085.4</ele>
        <time>2022-05-21 20:02:20</time>
      </trkpt>
      <trkpt lat="42.38723" lon="2.49605">
        <ele>1085.6</ele>
        <time>2022-05-21 20:02:21</time>
      </trkpt>
      <trkpt lat="42.38722" lon="2.49607">
        <ele>1085.8</ele>
        <time>2022-05-21 20:02:22</time>
      </trkpt>
      <trkpt lat="42.3872" lon="2.49608">
        <ele>1085.8</ele>
        <time>2022-05-21 20:02:23</time>
      </trkpt>
      <trkpt lat="42.38719" lon="2.4961">
        <ele>1086</ele>
        <time>2022-05-21 20:02:24</time>
      </trkpt>
      <trkpt lat="42.38718" lon="2.49611">
        <ele>1086.2</ele>
        <time>2022-05-21 20:02:25</time>
      </trkpt>
      <trkpt lat="42.38716" lon="2.49613">
        <ele>1086.4</ele>
        <time>2022-05-21 20:02:26</time>
      </trkpt>
      <trkpt lat="42.38715" lon="2.49614">
        <ele>1086.6</ele>
        <time>2022-05-21 20:02:27</time>
      </trkpt>
      <trkpt lat="42.38713" lon="2.49615">
        <ele>1086.6</ele>
        <time>2022-05-21 20:02:28</time>
      </trkpt>
      <trkpt lat="42.38712" lon="2.49616">
        <ele>1086.8</ele>
        <time>2022-05-21 20:02:29</time>
      </trkpt>
      <trkpt lat="42.38711" lon="2.49618">
        <ele>1087</ele>
        <time>2022-05-21 20:02:30</time>
      </trkpt>
      <trkpt lat="42.3871" lon="2.49619">
        <ele>1087.2</ele>
        <time>2022-05-21 20:02:31</time>
      </trkpt>
      <trkpt lat="42.38708" lon="2.4962">
        <ele>1087.4</ele>
        <time>2022-05-21 20:02:32</time>
      </trkpt>
      <trkpt lat="42.38707" lon="2.4962">
        <ele>1087.6</ele>
        <time>2022-05-21 20:02:33</time>
      </trkpt>
      <trkpt lat="42.38705" lon="2.4962">
        <ele>1087.6</ele>
        <time>2022-05-21 20:02:34</time>
      </trkpt>
      <trkpt lat="42.38703" lon="2.4962">
        <ele>1087.8</ele>
        <time>2022-05-21 20:02:35</time>
      </trkpt>
      <trkpt lat="42.38702" lon="2.4962">
        <ele>1088</ele>
        <time>2022-05-21 20:02:36</time>
      </trkpt>
      <trkpt lat="42.387" lon="2.4962">
        <ele>1088.2</ele>
        <time>2022-05-21 20:02:37</time>
      </trkpt>
      <trkpt lat="42.38699" lon="2.4962">
        <ele>1088.2</ele>
        <time>2022-05-21 20:02:38</time>
      </trkpt>
      <trkpt lat="42.38697" lon="2.4962">
        <ele>1088.4</ele>
        <time>2022-05-21 20:02:39</time>
      </trkpt>
      <trkpt lat="42.38695" lon="2.4962">
        <ele>1088.6</ele>
        <time>2022-05-21 20:02:40</time>
      </trkpt>
      <trkpt lat="42.38694" lon="2.4962">
        <ele>1088.8</ele>
        <time>2022-05-21 20:02:41</time>
      </trkpt>
      <trkpt lat="42.38692" lon="2.4962">
        <ele>1089</ele>
        <time>2022-05-21 20:02:42</time>
      </trkpt>
      <trkpt lat="42.3869" lon="2.49619">
        <ele>1089</ele>
        <time>2022-05-21 20:02:43</time>
      </trkpt>
      <trkpt lat="42.38689" lon="2.49619">
        <ele>1089.2</ele>
        <time>2022-05-21 20:02:44</time>
      </trkpt>
      <trkpt lat="42.38687" lon="2.49618">
        <ele>1089.4</ele>
        <time>2022-05-21 20:02:45</time>
      </trkpt>
      <trkpt lat="42.38685" lon="2.49618">
        <ele>1089.6</ele>
        <time>2022-05-21 20:02:46</time>
      </trkpt>
      <trkpt lat="42.38683" lon="2.49617">
        <ele>1089.8</ele>
        <time>2022-05-21 20:02:47</time>
      </trkpt>
      <trkpt lat="42.38682" lon="2.49616">
        <ele>1090</ele>
        <time>2022-05-21 20:02:48</time>
      </trkpt>
      <trkpt lat="42.3868" lon="2.49616">
        <ele>1090.2</ele>
        <time>2022-05-21 20:02:49</time>
      </trkpt>
      <trkpt lat="42.38678" lon="2.49615">
        <ele>1090.2</ele>
        <time>2022-05-21 20:02:50</time>
      </trkpt>
      <trkpt lat="42.38677" lon="2.49614">
        <ele>1090.4</ele>
        <time>2022-05-21 20:02:51</time>
      </trkpt>
      <trkpt lat="42.38675" lon="2.49613">
        <ele>1090.6</ele>
        <time>2022-05-21 20:02:52</time>
      </trkpt>
      <trkpt lat="42.38674" lon="2.49612">
        <ele>1090.8</ele>
        <time>2022-05-21 20:02:53</time>
      </trkpt>
      <trkpt lat="42.38672" lon="2.49611">
        <ele>1091</ele>
        <time>2022-05-21 20:02:54</time>
      </trkpt>
      <trkpt lat="42.38671" lon="2.4961">
        <ele>1091.2</ele>
        <time>2022-05-21 20:02:55</time>
      </trkpt>
      <trkpt lat="42.38669" lon="2.49608">
        <ele>1091.4</ele>
        <time>2022-05-21 20:02:56</time>
      </trkpt>
      <trkpt lat="42.38668" lon="2.49607">
        <ele>1091.6</ele>
        <time>2022-05-21 20:02:57</time>
      </trkpt>
      <trkpt lat="42.38666" lon="2.49605">
        <ele>1091.8</ele>
        <time>2022-05-21 20:02:58</time>
      </trkpt>
      <trkpt lat="42.38665" lon="2.49604">
        <ele>1092</ele>
        <time>2022-05-21 20:02:59</time>
      </trkpt>
      <trkpt lat="42.38663" lon="2.49602">
        <ele>1092</ele>
        <time>2022-05-21 20:03:00</time>
      </trkpt>
      <trkpt lat="42.38662" lon="2.496">
        <ele>1092.2</ele>
        <time>2022-05-21 20:03:01</time>
      </trkpt>
      <trkpt lat="42.3866" lon="2.49599">
        <ele>1092.4</ele>
        <time>2022-05-21 20:03:02</time>
      </trkpt>
      <trkpt lat="42.38658" lon="2.49598">
        <ele>1092.6</ele>
        <time>2022-05-21 20:03:03</time>
      </trkpt>
      <trkpt lat="42.38656" lon="2.49596">
        <ele>1092.8</ele>
        <time>2022-05-21 20:03:04</time>
      </trkpt>
      <trkpt lat="42.38655" lon="2.49595">
        <ele>1093</ele>
        <time>2022-05-21 20:03:05</time>
      </trkpt>
      <trkpt lat="42.38653" lon="2.49594">
        <ele>1093.2</ele>
        <time>2022-05-21 20:03:06</time>
      </trkpt>
      <trkpt lat="42.38652" lon="2.49592">
        <ele>1093.4</ele>
        <time>2022-05-21 20:03:07</time>
      </trkpt>
      <trkpt lat="42.38651" lon="2.49591">
        <ele>1093.6</ele>
        <time>2022-05-21 20:03:08</time>
      </trkpt>
      <trkpt lat="42.38649" lon="2.4959">
        <ele>1093.8</ele>
        <time>2022-05-21 20:03:09</time>
      </trkpt>
      <trkpt lat="42.38648" lon="2.49588">
        <ele>1094</ele>
        <time>2022-05-21 20:03:10</time>
      </trkpt>
      <trkpt lat="42.38647" lon="2.49587">
        <ele>1094.2</ele>
        <time>2022-05-21 20:03:11</time>
      </trkpt>
      <trkpt lat="42.38646" lon="2.49585">
        <ele>1094.4</ele>
        <time>2022-05-21 20:03:12</time>
      </trkpt>
      <trkpt lat="42.38644" lon="2.49584">
        <ele>1094.6</ele>
        <time>2022-05-21 20:03:13</time>
      </trkpt>
      <trkpt lat="42.38643" lon="2.49583">
        <ele>1094.8</ele>
        <time>2022-05-21 20:03:14</time>
      </trkpt>
      <trkpt lat="42.38641" lon="2.49581">
        <ele>1095</ele>
        <time>2022-05-21 20:03:15</time>
      </trkpt>
      <trkpt lat="42.3864" lon="2.4958">
        <ele>1095.2</ele>
        <time>2022-05-21 20:03:16</time>
      </trkpt>
      <trkpt lat="42.38638" lon="2.49578">
        <ele>1095.4</ele>
        <time>2022-05-21 20:03:17</time>
      </trkpt>
      <trkpt lat="42.38637" lon="2.49577">
        <ele>1095.6</ele>
        <time>2022-05-21 20:03:18</time>
      </trkpt>
      <trkpt lat="42.38635" lon="2.49575">
        <ele>1095.8</ele>
        <time>2022-05-21 20:03:19</time>
      </trkpt>
      <trkpt lat="42.38634" lon="2.49574">
        <ele>1096</ele>
        <time>2022-05-21 20:03:20</time>
      </trkpt>
      <trkpt lat="42.38632" lon="2.49573">
        <ele>1096.2</ele>
        <time>2022-05-21 20:03:21</time>
      </trkpt>
      <trkpt lat="42.3863" lon="2.49573">
        <ele>1096.2</ele>
        <time>2022-05-21 20:03:22</time>
      </trkpt>
      <trkpt lat="42.38628" lon="2.49572">
        <ele>1096.4</ele>
        <time>2022-05-21 20:03:23</time>
      </trkpt>
      <trkpt lat="42.38626" lon="2.49571">
        <ele>1096.6</ele>
        <time>2022-05-21 20:03:24</time>
      </trkpt>
      <trkpt lat="42.38624" lon="2.49571">
        <ele>1096.6</ele>
        <time>2022-05-21 20:03:25</time>
      </trkpt>
      <trkpt lat="42.38622" lon="2.4957">
        <ele>1096.8</ele>
        <time>2022-05-21 20:03:26</time>
      </trkpt>
      <trkpt lat="42.38621" lon="2.4957">
        <ele>1097</ele>
        <time>2022-05-21 20:03:27</time>
      </trkpt>
      <trkpt lat="42.3862" lon="2.49569">
        <ele>1097.2</ele>
        <time>2022-05-21 20:03:28</time>
      </trkpt>
      <trkpt lat="42.38618" lon="2.49569">
        <ele>1097.4</ele>
        <time>2022-05-21 20:03:29</time>
      </trkpt>
      <trkpt lat="42.38616" lon="2.49569">
        <ele>1097.6</ele>
        <time>2022-05-21 20:03:30</time>
      </trkpt>
      <trkpt lat="42.38615" lon="2.49569">
        <ele>1097.8</ele>
        <time>2022-05-21 20:03:31</time>
      </trkpt>
      <trkpt lat="42.38613" lon="2.4957">
        <ele>1097.8</ele>
        <time>2022-05-21 20:03:32</time>
      </trkpt>
      <trkpt lat="42.38611" lon="2.4957">
        <ele>1098</ele>
        <time>2022-05-21 20:03:33</time>
      </trkpt>
      <trkpt lat="42.38609" lon="2.4957">
        <ele>1098.2</ele>
        <time>2022-05-21 20:03:34</time>
      </trkpt>
      <trkpt lat="42.38607" lon="2.4957">
        <ele>1098.4</ele>
        <time>2022-05-21 20:03:35</time>
      </trkpt>
      <trkpt lat="42.38604" lon="2.4957">
        <ele>1098.6</ele>
        <time>2022-05-21 20:03:36</time>
      </trkpt>
      <trkpt lat="42.38602" lon="2.4957">
        <ele>1098.6</ele>
        <time>2022-05-21 20:03:37</time>
      </trkpt>
      <trkpt lat="42.38601" lon="2.49571">
        <ele>1098.8</ele>
        <time>2022-05-21 20:03:38</time>
      </trkpt>
      <trkpt lat="42.38599" lon="2.49571">
        <ele>1099</ele>
        <time>2022-05-21 20:03:39</time>
      </trkpt>
      <trkpt lat="42.38597" lon="2.49571">
        <ele>1099.2</ele>
        <time>2022-05-21 20:03:40</time>
      </trkpt>
      <trkpt lat="42.38595" lon="2.49571">
        <ele>1099.4</ele>
        <time>2022-05-21 20:03:41</time>
      </trkpt>
      <trkpt lat="42.38594" lon="2.49572">
        <ele>1099.6</ele>
        <time>2022-05-21 20:03:42</time>
      </trkpt>
      <trkpt lat="42.38593" lon="2.49573">
        <ele>1099.8</ele>
        <time>2022-05-21 20:03:43</time>
      </trkpt>
      <trkpt lat="42.38592" lon="2.49574">
        <ele>1099.8</ele>
        <time>2022-05-21 20:03:44</time>
      </trkpt>
      <trkpt lat="42.38591" lon="2.49575">
        <ele>1100</ele>
        <time>2022-05-21 20:03:45</time>
      </trkpt>
      <trkpt lat="42.38589" lon="2.49577">
        <ele>1100.2</ele>
        <time>2022-05-21 20:03:46</time>
      </trkpt>
      <trkpt lat="42.38588" lon="2.49579">
        <ele>1100.4</ele>
        <time>2022-05-21 20:03:47</time>
      </trkpt>
      <trkpt lat="42.38586" lon="2.4958">
        <ele>1100.6</ele>
        <time>2022-05-21 20:03:48</time>
      </trkpt>
      <trkpt lat="42.38585" lon="2.49582">
        <ele>1100.8</ele>
        <time>2022-05-21 20:03:49</time>
      </trkpt>
      <trkpt lat="42.38583" lon="2.49584">
        <ele>1100.8</ele>
        <time>2022-05-21 20:03:50</time>
      </trkpt>
      <trkpt lat="42.38582" lon="2.49585">
        <ele>1101</ele>
        <time>2022-05-21 20:03:51</time>
      </trkpt>
      <trkpt lat="42.3858" lon="2.49586">
        <ele>1101.2</ele>
        <time>2022-05-21 20:03:52</time>
      </trkpt>
      <trkpt lat="42.38579" lon="2.49588">
        <ele>1101.4</ele>
        <time>2022-05-21 20:03:53</time>
      </trkpt>
      <trkpt lat="42.38578" lon="2.4959">
        <ele>1101.4</ele>
        <time>2022-05-21 20:03:54</time>
      </trkpt>
      <trkpt lat="42.38577" lon="2.49591">
        <ele>1101.6</ele>
        <time>2022-05-21 20:03:55</time>
      </trkpt>
      <trkpt lat="42.38575" lon="2.49592">
        <ele>1101.8</ele>
        <time>2022-05-21 20:03:56</time>
      </trkpt>
      <trkpt lat="42.38574" lon="2.49593">
        <ele>1101.8</ele>
        <time>2022-05-21 20:03:57</time>
      </trkpt>
      <trkpt lat="42.38572" lon="2.49594">
        <ele>1102</ele>
        <time>2022-05-21 20:03:58</time>
      </trkpt>
      <trkpt lat="42.38571" lon="2.49596">
        <ele>1102.2</ele>
        <time>2022-05-21 20:03:59</time>
      </trkpt>
      <trkpt lat="42.38569" lon="2.49597">
        <ele>1102.2</ele>
        <time>2022-05-21 20:04:00</time>
      </trkpt>
      <trkpt lat="42.38568" lon="2.49598">
        <ele>1102.4</ele>
        <time>2022-05-21 20:04:01</time>
      </trkpt>
      <trkpt lat="42.38566" lon="2.49599">
        <ele>1102.6</ele>
        <time>2022-05-21 20:04:02</time>
      </trkpt>
      <trkpt lat="42.38565" lon="2.49601">
        <ele>1102.8</ele>
        <time>2022-05-21 20:04:03</time>
      </trkpt>
      <trkpt lat="42.38563" lon="2.49602">
        <ele>1103</ele>
        <time>2022-05-21 20:04:04</time>
      </trkpt>
      <trkpt lat="42.38562" lon="2.49603">
        <ele>1103</ele>
        <time>2022-05-21 20:04:05</time>
      </trkpt>
      <trkpt lat="42.3856" lon="2.49605">
        <ele>1103.2</ele>
        <time>2022-05-21 20:04:06</time>
      </trkpt>
      <trkpt lat="42.38559" lon="2.49606">
        <ele>1103.4</ele>
        <time>2022-05-21 20:04:07</time>
      </trkpt>
      <trkpt lat="42.38557" lon="2.49607">
        <ele>1103.6</ele>
        <time>2022-05-21 20:04:08</time>
      </trkpt>
      <trkpt lat="42.38555" lon="2.49608">
        <ele>1103.8</ele>
        <time>2022-05-21 20:04:09</time>
      </trkpt>
      <trkpt lat="42.38554" lon="2.49609">
        <ele>1103.8</ele>
        <time>2022-05-21 20:04:10</time>
      </trkpt>
      <trkpt lat="42.38552" lon="2.4961">
        <ele>1104</ele>
        <time>2022-05-21 20:04:11</time>
      </trkpt>
      <trkpt lat="42.38551" lon="2.49611">
        <ele>1104.2</ele>
        <time>2022-05-21 20:04:12</time>
      </trkpt>
      <trkpt lat="42.38549" lon="2.49612">
        <ele>1104.4</ele>
        <time>2022-05-21 20:04:13</time>
      </trkpt>
      <trkpt lat="42.38547" lon="2.49613">
        <ele>1104.6</ele>
        <time>2022-05-21 20:04:14</time>
      </trkpt>
      <trkpt lat="42.38545" lon="2.49614">
        <ele>1104.6</ele>
        <time>2022-05-21 20:04:15</time>
      </trkpt>
      <trkpt lat="42.38544" lon="2.49615">
        <ele>1104.8</ele>
        <time>2022-05-21 20:04:16</time>
      </trkpt>
      <trkpt lat="42.38542" lon="2.49617">
        <ele>1105</ele>
        <time>2022-05-21 20:04:17</time>
      </trkpt>
      <trkpt lat="42.3854" lon="2.49618">
        <ele>1105.2</ele>
        <time>2022-05-21 20:04:18</time>
      </trkpt>
      <trkpt lat="42.38539" lon="2.49619">
        <ele>1105.4</ele>
        <time>2022-05-21 20:04:19</time>
      </trkpt>
      <trkpt lat="42.38537" lon="2.49621">
        <ele>1105.6</ele>
        <time>2022-05-21 20:04:20</time>
      </trkpt>
      <trkpt lat="42.38535" lon="2.49622">
        <ele>1105.8</ele>
        <time>2022-05-21 20:04:21</time>
      </trkpt>
      <trkpt lat="42.38533" lon="2.49623">
        <ele>1106</ele>
        <time>2022-05-21 20:04:22</time>
      </trkpt>
      <trkpt lat="42.38531" lon="2.49624">
        <ele>1106.2</ele>
        <time>2022-05-21 20:04:23</time>
      </trkpt>
      <trkpt lat="42.3853" lon="2.49624">
        <ele>1106.2</ele>
        <time>2022-05-21 20:04:24</time>
      </trkpt>
      <trkpt lat="42.38528" lon="2.49625">
        <ele>1106.4</ele>
        <time>2022-05-21 20:04:25</time>
      </trkpt>
      <trkpt lat="42.38526" lon="2.49625">
        <ele>1106.6</ele>
        <time>2022-05-21 20:04:26</time>
      </trkpt>
      <trkpt lat="42.38524" lon="2.49625">
        <ele>1106.8</ele>
        <time>2022-05-21 20:04:27</time>
      </trkpt>
      <trkpt lat="42.38522" lon="2.49624">
        <ele>1107</ele>
        <time>2022-05-21 20:04:28</time>
      </trkpt>
      <trkpt lat="42.3852" lon="2.49624">
        <ele>1107.2</ele>
        <time>2022-05-21 20:04:29</time>
      </trkpt>
      <trkpt lat="42.38518" lon="2.49624">
        <ele>1107.4</ele>
        <time>2022-05-21 20:04:30</time>
      </trkpt>
      <trkpt lat="42.38516" lon="2.49624">
        <ele>1107.6</ele>
        <time>2022-05-21 20:04:31</time>
      </trkpt>
      <trkpt lat="42.38514" lon="2.49624">
        <ele>1107.8</ele>
        <time>2022-05-21 20:04:32</time>
      </trkpt>
      <trkpt lat="42.38512" lon="2.49623">
        <ele>1108</ele>
        <time>2022-05-21 20:04:33</time>
      </trkpt>
      <trkpt lat="42.3851" lon="2.49622">
        <ele>1108.2</ele>
        <time>2022-05-21 20:04:34</time>
      </trkpt>
      <trkpt lat="42.38507" lon="2.49622">
        <ele>1108.4</ele>
        <time>2022-05-21 20:04:35</time>
      </trkpt>
      <trkpt lat="42.38505" lon="2.49621">
        <ele>1108.6</ele>
        <time>2022-05-21 20:04:36</time>
      </trkpt>
      <trkpt lat="42.38503" lon="2.4962">
        <ele>1108.8</ele>
        <time>2022-05-21 20:04:37</time>
      </trkpt>
      <trkpt lat="42.38501" lon="2.4962">
        <ele>1109</ele>
        <time>2022-05-21 20:04:38</time>
      </trkpt>
      <trkpt lat="42.385" lon="2.49619">
        <ele>1109.2</ele>
        <time>2022-05-21 20:04:39</time>
      </trkpt>
      <trkpt lat="42.38498" lon="2.49618">
        <ele>1109.4</ele>
        <time>2022-05-21 20:04:40</time>
      </trkpt>
      <trkpt lat="42.38496" lon="2.49617">
        <ele>1109.6</ele>
        <time>2022-05-21 20:04:41</time>
      </trkpt>
      <trkpt lat="42.38495" lon="2.49616">
        <ele>1109.8</ele>
        <time>2022-05-21 20:04:42</time>
      </trkpt>
      <trkpt lat="42.38493" lon="2.49615">
        <ele>1110</ele>
        <time>2022-05-21 20:04:43</time>
      </trkpt>
      <trkpt lat="42.38492" lon="2.49615">
        <ele>1110.2</ele>
        <time>2022-05-21 20:04:44</time>
      </trkpt>
      <trkpt lat="42.3849" lon="2.49613">
        <ele>1110.4</ele>
        <time>2022-05-21 20:04:45</time>
      </trkpt>
      <trkpt lat="42.38489" lon="2.49612">
        <ele>1110.6</ele>
        <time>2022-05-21 20:04:46</time>
      </trkpt>
      <trkpt lat="42.38487" lon="2.4961">
        <ele>1110.8</ele>
        <time>2022-05-21 20:04:47</time>
      </trkpt>
      <trkpt lat="42.38486" lon="2.49608">
        <ele>1111</ele>
        <time>2022-05-21 20:04:48</time>
      </trkpt>
      <trkpt lat="42.38484" lon="2.49607">
        <ele>1111.2</ele>
        <time>2022-05-21 20:04:49</time>
      </trkpt>
      <trkpt lat="42.38483" lon="2.49605">
        <ele>1111.4</ele>
        <time>2022-05-21 20:04:50</time>
      </trkpt>
      <trkpt lat="42.38482" lon="2.49604">
        <ele>1111.4</ele>
        <time>2022-05-21 20:04:51</time>
      </trkpt>
      <trkpt lat="42.3848" lon="2.49602">
        <ele>1111.6</ele>
        <time>2022-05-21 20:04:52</time>
      </trkpt>
      <trkpt lat="42.38479" lon="2.49601">
        <ele>1111.8</ele>
        <time>2022-05-21 20:04:53</time>
      </trkpt>
      <trkpt lat="42.38478" lon="2.49599">
        <ele>1112</ele>
        <time>2022-05-21 20:04:54</time>
      </trkpt>
      <trkpt lat="42.38477" lon="2.49597">
        <ele>1112.2</ele>
        <time>2022-05-21 20:04:55</time>
      </trkpt>
      <trkpt lat="42.38476" lon="2.49596">
        <ele>1112.4</ele>
        <time>2022-05-21 20:04:56</time>
      </trkpt>
      <trkpt lat="42.38475" lon="2.49594">
        <ele>1112.4</ele>
        <time>2022-05-21 20:04:57</time>
      </trkpt>
      <trkpt lat="42.38474" lon="2.49593">
        <ele>1112.6</ele>
        <time>2022-05-21 20:04:58</time>
      </trkpt>
      <trkpt lat="42.38473" lon="2.4959">
        <ele>1112.8</ele>
        <time>2022-05-21 20:04:59</time>
      </trkpt>
      <trkpt lat="42.38472" lon="2.49588">
        <ele>1113</ele>
        <time>2022-05-21 20:05:00</time>
      </trkpt>
      <trkpt lat="42.3847" lon="2.49586">
        <ele>1113.2</ele>
        <time>2022-05-21 20:05:01</time>
      </trkpt>
      <trkpt lat="42.38469" lon="2.49585">
        <ele>1113.4</ele>
        <time>2022-05-21 20:05:02</time>
      </trkpt>
      <trkpt lat="42.38468" lon="2.49583">
        <ele>1113.6</ele>
        <time>2022-05-21 20:05:03</time>
      </trkpt>
      <trkpt lat="42.38467" lon="2.49582">
        <ele>1113.8</ele>
        <time>2022-05-21 20:05:04</time>
      </trkpt>
      <trkpt lat="42.38466" lon="2.4958">
        <ele>1114</ele>
        <time>2022-05-21 20:05:05</time>
      </trkpt>
      <trkpt lat="42.38465" lon="2.49579">
        <ele>1114.2</ele>
        <time>2022-05-21 20:05:06</time>
      </trkpt>
      <trkpt lat="42.38464" lon="2.49578">
        <ele>1114.4</ele>
        <time>2022-05-21 20:05:07</time>
      </trkpt>
      <trkpt lat="42.38462" lon="2.49576">
        <ele>1114.4</ele>
        <time>2022-05-21 20:05:08</time>
      </trkpt>
      <trkpt lat="42.38461" lon="2.49575">
        <ele>1114.6</ele>
        <time>2022-05-21 20:05:09</time>
      </trkpt>
      <trkpt lat="42.38461" lon="2.49574">
        <ele>1114.8</ele>
        <time>2022-05-21 20:05:10</time>
      </trkpt>
      <trkpt lat="42.3846" lon="2.49573">
        <ele>1115</ele>
        <time>2022-05-21 20:05:11</time>
      </trkpt>
      <trkpt lat="42.38459" lon="2.49571">
        <ele>1115.2</ele>
        <time>2022-05-21 20:05:12</time>
      </trkpt>
      <trkpt lat="42.38458" lon="2.4957">
        <ele>1115.4</ele>
        <time>2022-05-21 20:05:13</time>
      </trkpt>
      <trkpt lat="42.38457" lon="2.49568">
        <ele>1115.4</ele>
        <time>2022-05-21 20:05:14</time>
      </trkpt>
      <trkpt lat="42.38455" lon="2.49567">
        <ele>1115.6</ele>
        <time>2022-05-21 20:05:15</time>
      </trkpt>
      <trkpt lat="42.38454" lon="2.49565">
        <ele>1115.8</ele>
        <time>2022-05-21 20:05:16</time>
      </trkpt>
      <trkpt lat="42.38453" lon="2.49564">
        <ele>1116</ele>
        <time>2022-05-21 20:05:17</time>
      </trkpt>
      <trkpt lat="42.38451" lon="2.49563">
        <ele>1116.2</ele>
        <time>2022-05-21 20:05:18</time>
      </trkpt>
      <trkpt lat="42.3845" lon="2.49561">
        <ele>1116.4</ele>
        <time>2022-05-21 20:05:19</time>
      </trkpt>
      <trkpt lat="42.38448" lon="2.49561">
        <ele>1116.6</ele>
        <time>2022-05-21 20:05:20</time>
      </trkpt>
      <trkpt lat="42.38447" lon="2.4956">
        <ele>1116.8</ele>
        <time>2022-05-21 20:05:21</time>
      </trkpt>
      <trkpt lat="42.38446" lon="2.4956">
        <ele>1117</ele>
        <time>2022-05-21 20:05:22</time>
      </trkpt>
      <trkpt lat="42.38445" lon="2.49559">
        <ele>1117.2</ele>
        <time>2022-05-21 20:05:23</time>
      </trkpt>
      <trkpt lat="42.38443" lon="2.49558">
        <ele>1117.2</ele>
        <time>2022-05-21 20:05:24</time>
      </trkpt>
      <trkpt lat="42.38442" lon="2.49558">
        <ele>1117.4</ele>
        <time>2022-05-21 20:05:25</time>
      </trkpt>
      <trkpt lat="42.38441" lon="2.49557">
        <ele>1117.6</ele>
        <time>2022-05-21 20:05:26</time>
      </trkpt>
      <trkpt lat="42.38439" lon="2.49556">
        <ele>1117.8</ele>
        <time>2022-05-21 20:05:27</time>
      </trkpt>
      <trkpt lat="42.38438" lon="2.49555">
        <ele>1118</ele>
        <time>2022-05-21 20:05:28</time>
      </trkpt>
      <trkpt lat="42.38436" lon="2.49554">
        <ele>1118.2</ele>
        <time>2022-05-21 20:05:29</time>
      </trkpt>
      <trkpt lat="42.38434" lon="2.49553">
        <ele>1118.4</ele>
        <time>2022-05-21 20:05:30</time>
      </trkpt>
      <trkpt lat="42.38432" lon="2.49553">
        <ele>1118.4</ele>
        <time>2022-05-21 20:05:31</time>
      </trkpt>
      <trkpt lat="42.38431" lon="2.49552">
        <ele>1118.6</ele>
        <time>2022-05-21 20:05:32</time>
      </trkpt>
      <trkpt lat="42.38429" lon="2.49552">
        <ele>1118.8</ele>
        <time>2022-05-21 20:05:33</time>
      </trkpt>
      <trkpt lat="42.38428" lon="2.49552">
        <ele>1119</ele>
        <time>2022-05-21 20:05:34</time>
      </trkpt>
      <trkpt lat="42.38426" lon="2.49552">
        <ele>1119.2</ele>
        <time>2022-05-21 20:05:35</time>
      </trkpt>
      <trkpt lat="42.38425" lon="2.49553">
        <ele>1119.4</ele>
        <time>2022-05-21 20:05:36</time>
      </trkpt>
      <trkpt lat="42.38423" lon="2.49555">
        <ele>1119.4</ele>
        <time>2022-05-21 20:05:37</time>
      </trkpt>
      <trkpt lat="42.38422" lon="2.49556">
        <ele>1119.6</ele>
        <time>2022-05-21 20:05:38</time>
      </trkpt>
      <trkpt lat="42.3842" lon="2.49558">
        <ele>1119.8</ele>
        <time>2022-05-21 20:05:39</time>
      </trkpt>
      <trkpt lat="42.38419" lon="2.49559">
        <ele>1120</ele>
        <time>2022-05-21 20:05:40</time>
      </trkpt>
      <trkpt lat="42.38418" lon="2.49561">
        <ele>1120</ele>
        <time>2022-05-21 20:05:41</time>
      </trkpt>
      <trkpt lat="42.38417" lon="2.49561">
        <ele>1120.2</ele>
        <time>2022-05-21 20:05:42</time>
      </trkpt>
      <trkpt lat="42.38416" lon="2.49562">
        <ele>1120.4</ele>
        <time>2022-05-21 20:05:43</time>
      </trkpt>
      <trkpt lat="42.38415" lon="2.49563">
        <ele>1120.6</ele>
        <time>2022-05-21 20:05:44</time>
      </trkpt>
      <trkpt lat="42.38414" lon="2.49564">
        <ele>1120.8</ele>
        <time>2022-05-21 20:05:45</time>
      </trkpt>
      <trkpt lat="42.38413" lon="2.49565">
        <ele>1121</ele>
        <time>2022-05-21 20:05:46</time>
      </trkpt>
      <trkpt lat="42.38412" lon="2.49566">
        <ele>1121</ele>
        <time>2022-05-21 20:05:47</time>
      </trkpt>
      <trkpt lat="42.38411" lon="2.49567">
        <ele>1121.2</ele>
        <time>2022-05-21 20:05:48</time>
      </trkpt>
      <trkpt lat="42.3841" lon="2.49568">
        <ele>1121.4</ele>
        <time>2022-05-21 20:05:49</time>
      </trkpt>
      <trkpt lat="42.38408" lon="2.4957">
        <ele>1121.6</ele>
        <time>2022-05-21 20:05:50</time>
      </trkpt>
      <trkpt lat="42.38407" lon="2.49572">
        <ele>1121.8</ele>
        <time>2022-05-21 20:05:51</time>
      </trkpt>
      <trkpt lat="42.38404" lon="2.49574">
        <ele>1122</ele>
        <time>2022-05-21 20:05:52</time>
      </trkpt>
      <trkpt lat="42.38402" lon="2.49576">
        <ele>1122.2</ele>
        <time>2022-05-21 20:05:53</time>
      </trkpt>
      <trkpt lat="42.38401" lon="2.49578">
        <ele>1122.2</ele>
        <time>2022-05-21 20:05:54</time>
      </trkpt>
      <trkpt lat="42.38399" lon="2.4958">
        <ele>1122.4</ele>
        <time>2022-05-21 20:05:55</time>
      </trkpt>
      <trkpt lat="42.38397" lon="2.49581">
        <ele>1122.6</ele>
        <time>2022-05-21 20:05:56</time>
      </trkpt>
      <trkpt lat="42.38395" lon="2.49583">
        <ele>1122.8</ele>
        <time>2022-05-21 20:05:57</time>
      </trkpt>
      <trkpt lat="42.38394" lon="2.49585">
        <ele>1123</ele>
        <time>2022-05-21 20:05:58</time>
      </trkpt>
      <trkpt lat="42.38392" lon="2.49586">
        <ele>1123.2</ele>
        <time>2022-05-21 20:05:59</time>
      </trkpt>
      <trkpt lat="42.3839" lon="2.49588">
        <ele>1123.2</ele>
        <time>2022-05-21 20:06:00</time>
      </trkpt>
      <trkpt lat="42.38388" lon="2.4959">
        <ele>1123.4</ele>
        <time>2022-05-21 20:06:01</time>
      </trkpt>
      <trkpt lat="42.38387" lon="2.49592">
        <ele>1123.4</ele>
        <time>2022-05-21 20:06:02</time>
      </trkpt>
      <trkpt lat="42.38387" lon="2.49594">
        <ele>1123.6</ele>
        <time>2022-05-21 20:06:03</time>
      </trkpt>
      <trkpt lat="42.38386" lon="2.49596">
        <ele>1123.8</ele>
        <time>2022-05-21 20:06:04</time>
      </trkpt>
      <trkpt lat="42.38384" lon="2.49598">
        <ele>1124</ele>
        <time>2022-05-21 20:06:05</time>
      </trkpt>
      <trkpt lat="42.38384" lon="2.49599">
        <ele>1124.2</ele>
        <time>2022-05-21 20:06:06</time>
      </trkpt>
      <trkpt lat="42.38383" lon="2.496">
        <ele>1124.2</ele>
        <time>2022-05-21 20:06:07</time>
      </trkpt>
      <trkpt lat="42.38381" lon="2.49603">
        <ele>1124.4</ele>
        <time>2022-05-21 20:06:08</time>
      </trkpt>
      <trkpt lat="42.3838" lon="2.49605">
        <ele>1124.6</ele>
        <time>2022-05-21 20:06:09</time>
      </trkpt>
      <trkpt lat="42.38378" lon="2.49606">
        <ele>1124.8</ele>
        <time>2022-05-21 20:06:10</time>
      </trkpt>
      <trkpt lat="42.38377" lon="2.49607">
        <ele>1125</ele>
        <time>2022-05-21 20:06:11</time>
      </trkpt>
      <trkpt lat="42.38376" lon="2.49609">
        <ele>1125.2</ele>
        <time>2022-05-21 20:06:12</time>
      </trkpt>
      <trkpt lat="42.38374" lon="2.4961">
        <ele>1125.4</ele>
        <time>2022-05-21 20:06:13</time>
      </trkpt>
      <trkpt lat="42.38373" lon="2.49612">
        <ele>1125.4</ele>
        <time>2022-05-21 20:06:14</time>
      </trkpt>
      <trkpt lat="42.38372" lon="2.49613">
        <ele>1125.6</ele>
        <time>2022-05-21 20:06:15</time>
      </trkpt>
      <trkpt lat="42.3837" lon="2.49614">
        <ele>1125.8</ele>
        <time>2022-05-21 20:06:16</time>
      </trkpt>
      <trkpt lat="42.38368" lon="2.49616">
        <ele>1126</ele>
        <time>2022-05-21 20:06:17</time>
      </trkpt>
      <trkpt lat="42.38367" lon="2.49617">
        <ele>1126.2</ele>
        <time>2022-05-21 20:06:18</time>
      </trkpt>
      <trkpt lat="42.38365" lon="2.49618">
        <ele>1126.2</ele>
        <time>2022-05-21 20:06:19</time>
      </trkpt>
      <trkpt lat="42.38364" lon="2.49619">
        <ele>1126.4</ele>
        <time>2022-05-21 20:06:20</time>
      </trkpt>
      <trkpt lat="42.38362" lon="2.49621">
        <ele>1126.6</ele>
        <time>2022-05-21 20:06:21</time>
      </trkpt>
      <trkpt lat="42.3836" lon="2.49622">
        <ele>1126.8</ele>
        <time>2022-05-21 20:06:22</time>
      </trkpt>
      <trkpt lat="42.38359" lon="2.49622">
        <ele>1126.8</ele>
        <time>2022-05-21 20:06:23</time>
      </trkpt>
      <trkpt lat="42.38357" lon="2.49623">
        <ele>1127</ele>
        <time>2022-05-21 20:06:24</time>
      </trkpt>
      <trkpt lat="42.38355" lon="2.49624">
        <ele>1127.2</ele>
        <time>2022-05-21 20:06:25</time>
      </trkpt>
      <trkpt lat="42.38353" lon="2.49625">
        <ele>1127.2</ele>
        <time>2022-05-21 20:06:26</time>
      </trkpt>
      <trkpt lat="42.38351" lon="2.49626">
        <ele>1127.4</ele>
        <time>2022-05-21 20:06:27</time>
      </trkpt>
      <trkpt lat="42.38349" lon="2.49626">
        <ele>1127.6</ele>
        <time>2022-05-21 20:06:28</time>
      </trkpt>
      <trkpt lat="42.38347" lon="2.49626">
        <ele>1127.6</ele>
        <time>2022-05-21 20:06:29</time>
      </trkpt>
      <trkpt lat="42.38345" lon="2.49627">
        <ele>1127.8</ele>
        <time>2022-05-21 20:06:30</time>
      </trkpt>
      <trkpt lat="42.38343" lon="2.49627">
        <ele>1128</ele>
        <time>2022-05-21 20:06:31</time>
      </trkpt>
      <trkpt lat="42.38341" lon="2.49627">
        <ele>1128.2</ele>
        <time>2022-05-21 20:06:32</time>
      </trkpt>
      <trkpt lat="42.38339" lon="2.49627">
        <ele>1128.4</ele>
        <time>2022-05-21 20:06:33</time>
      </trkpt>
      <trkpt lat="42.38337" lon="2.49627">
        <ele>1128.4</ele>
        <time>2022-05-21 20:06:34</time>
      </trkpt>
      <trkpt lat="42.38335" lon="2.49627">
        <ele>1128.6</ele>
        <time>2022-05-21 20:06:35</time>
      </trkpt>
      <trkpt lat="42.38333" lon="2.49627">
        <ele>1128.8</ele>
        <time>2022-05-21 20:06:36</time>
      </trkpt>
      <trkpt lat="42.3833" lon="2.49627">
        <ele>1128.8</ele>
        <time>2022-05-21 20:06:37</time>
      </trkpt>
      <trkpt lat="42.38328" lon="2.49627">
        <ele>1129</ele>
        <time>2022-05-21 20:06:38</time>
      </trkpt>
      <trkpt lat="42.38325" lon="2.49626">
        <ele>1129.2</ele>
        <time>2022-05-21 20:06:39</time>
      </trkpt>
      <trkpt lat="42.38324" lon="2.49627">
        <ele>1129.2</ele>
        <time>2022-05-21 20:06:40</time>
      </trkpt>
      <trkpt lat="42.38322" lon="2.49627">
        <ele>1129.4</ele>
        <time>2022-05-21 20:06:41</time>
      </trkpt>
      <trkpt lat="42.3832" lon="2.49627">
        <ele>1129.6</ele>
        <time>2022-05-21 20:06:42</time>
      </trkpt>
      <trkpt lat="42.38318" lon="2.49626">
        <ele>1129.8</ele>
        <time>2022-05-21 20:06:43</time>
      </trkpt>
      <trkpt lat="42.38316" lon="2.49626">
        <ele>1129.8</ele>
        <time>2022-05-21 20:06:44</time>
      </trkpt>
      <trkpt lat="42.38314" lon="2.49626">
        <ele>1130</ele>
        <time>2022-05-21 20:06:45</time>
      </trkpt>
      <trkpt lat="42.38312" lon="2.49626">
        <ele>1130.2</ele>
        <time>2022-05-21 20:06:46</time>
      </trkpt>
      <trkpt lat="42.3831" lon="2.49626">
        <ele>1130.2</ele>
        <time>2022-05-21 20:06:47</time>
      </trkpt>
      <trkpt lat="42.38308" lon="2.49626">
        <ele>1130.4</ele>
        <time>2022-05-21 20:06:48</time>
      </trkpt>
      <trkpt lat="42.38306" lon="2.49625">
        <ele>1130.4</ele>
        <time>2022-05-21 20:06:49</time>
      </trkpt>
      <trkpt lat="42.38304" lon="2.49625">
        <ele>1130.6</ele>
        <time>2022-05-21 20:06:50</time>
      </trkpt>
      <trkpt lat="42.38302" lon="2.49625">
        <ele>1130.6</ele>
        <time>2022-05-21 20:06:51</time>
      </trkpt>
      <trkpt lat="42.383" lon="2.49625">
        <ele>1130.8</ele>
        <time>2022-05-21 20:06:52</time>
      </trkpt>
      <trkpt lat="42.38298" lon="2.49625">
        <ele>1130.8</ele>
        <time>2022-05-21 20:06:53</time>
      </trkpt>
      <trkpt lat="42.38296" lon="2.49624">
        <ele>1131</ele>
        <time>2022-05-21 20:06:54</time>
      </trkpt>
      <trkpt lat="42.38294" lon="2.49624">
        <ele>1131</ele>
        <time>2022-05-21 20:06:55</time>
      </trkpt>
      <trkpt lat="42.38292" lon="2.49624">
        <ele>1131.2</ele>
        <time>2022-05-21 20:06:56</time>
      </trkpt>
      <trkpt lat="42.3829" lon="2.49624">
        <ele>1131.2</ele>
        <time>2022-05-21 20:06:57</time>
      </trkpt>
      <trkpt lat="42.38288" lon="2.49624">
        <ele>1131.4</ele>
        <time>2022-05-21 20:06:58</time>
      </trkpt>
      <trkpt lat="42.38286" lon="2.49624">
        <ele>1131.4</ele>
        <time>2022-05-21 20:06:59</time>
      </trkpt>
      <trkpt lat="42.38284" lon="2.49624">
        <ele>1131.6</ele>
        <time>2022-05-21 20:07:00</time>
      </trkpt>
      <trkpt lat="42.38282" lon="2.49623">
        <ele>1131.6</ele>
        <time>2022-05-21 20:07:01</time>
      </trkpt>
      <trkpt lat="42.3828" lon="2.49623">
        <ele>1131.8</ele>
        <time>2022-05-21 20:07:02</time>
      </trkpt>
      <trkpt lat="42.38278" lon="2.49622">
        <ele>1131.8</ele>
        <time>2022-05-21 20:07:03</time>
      </trkpt>
      <trkpt lat="42.38276" lon="2.49621">
        <ele>1132</ele>
        <time>2022-05-21 20:07:04</time>
      </trkpt>
      <trkpt lat="42.38274" lon="2.49621">
        <ele>1132</ele>
        <time>2022-05-21 20:07:05</time>
      </trkpt>
      <trkpt lat="42.38272" lon="2.4962">
        <ele>1132.2</ele>
        <time>2022-05-21 20:07:06</time>
      </trkpt>
      <trkpt lat="42.3827" lon="2.49619">
        <ele>1132.2</ele>
        <time>2022-05-21 20:07:07</time>
      </trkpt>
      <trkpt lat="42.38268" lon="2.49618">
        <ele>1132.4</ele>
        <time>2022-05-21 20:07:08</time>
      </trkpt>
      <trkpt lat="42.38266" lon="2.49618">
        <ele>1132.6</ele>
        <time>2022-05-21 20:07:09</time>
      </trkpt>
      <trkpt lat="42.38264" lon="2.49617">
        <ele>1132.6</ele>
        <time>2022-05-21 20:07:10</time>
      </trkpt>
      <trkpt lat="42.38262" lon="2.49617">
        <ele>1132.8</ele>
        <time>2022-05-21 20:07:11</time>
      </trkpt>
      <trkpt lat="42.3826" lon="2.49616">
        <ele>1132.8</ele>
        <time>2022-05-21 20:07:12</time>
      </trkpt>
      <trkpt lat="42.38258" lon="2.49616">
        <ele>1132.8</ele>
        <time>2022-05-21 20:07:13</time>
      </trkpt>
      <trkpt lat="42.38257" lon="2.49615">
        <ele>1133</ele>
        <time>2022-05-21 20:07:14</time>
      </trkpt>
      <trkpt lat="42.38255" lon="2.49614">
        <ele>1133</ele>
        <time>2022-05-21 20:07:15</time>
      </trkpt>
      <trkpt lat="42.38253" lon="2.49613">
        <ele>1133.2</ele>
        <time>2022-05-21 20:07:16</time>
      </trkpt>
      <trkpt lat="42.38251" lon="2.49612">
        <ele>1133.2</ele>
        <time>2022-05-21 20:07:17</time>
      </trkpt>
      <trkpt lat="42.38249" lon="2.49611">
        <ele>1133.4</ele>
        <time>2022-05-21 20:07:18</time>
      </trkpt>
      <trkpt lat="42.38247" lon="2.4961">
        <ele>1133.4</ele>
        <time>2022-05-21 20:07:19</time>
      </trkpt>
      <trkpt lat="42.38245" lon="2.49609">
        <ele>1133.6</ele>
        <time>2022-05-21 20:07:20</time>
      </trkpt>
      <trkpt lat="42.38243" lon="2.49609">
        <ele>1133.6</ele>
        <time>2022-05-21 20:07:21</time>
      </trkpt>
      <trkpt lat="42.38241" lon="2.49607">
        <ele>1133.6</ele>
        <time>2022-05-21 20:07:22</time>
      </trkpt>
      <trkpt lat="42.38239" lon="2.49606">
        <ele>1133.8</ele>
        <time>2022-05-21 20:07:23</time>
      </trkpt>
      <trkpt lat="42.38237" lon="2.49605">
        <ele>1133.8</ele>
        <time>2022-05-21 20:07:24</time>
      </trkpt>
      <trkpt lat="42.38235" lon="2.49605">
        <ele>1133.8</ele>
        <time>2022-05-21 20:07:25</time>
      </trkpt>
      <trkpt lat="42.38233" lon="2.49604">
        <ele>1134</ele>
        <time>2022-05-21 20:07:26</time>
      </trkpt>
      <trkpt lat="42.38231" lon="2.49603">
        <ele>1134</ele>
        <time>2022-05-21 20:07:27</time>
      </trkpt>
      <trkpt lat="42.38229" lon="2.49602">
        <ele>1134.2</ele>
        <time>2022-05-21 20:07:28</time>
      </trkpt>
      <trkpt lat="42.38227" lon="2.496">
        <ele>1134.2</ele>
        <time>2022-05-21 20:07:29</time>
      </trkpt>
      <trkpt lat="42.38226" lon="2.49599">
        <ele>1134.4</ele>
        <time>2022-05-21 20:07:30</time>
      </trkpt>
      <trkpt lat="42.38224" lon="2.49598">
        <ele>1134.4</ele>
        <time>2022-05-21 20:07:31</time>
      </trkpt>
      <trkpt lat="42.38222" lon="2.49597">
        <ele>1134.6</ele>
        <time>2022-05-21 20:07:32</time>
      </trkpt>
      <trkpt lat="42.3822" lon="2.49596">
        <ele>1134.6</ele>
        <time>2022-05-21 20:07:33</time>
      </trkpt>
      <trkpt lat="42.38218" lon="2.49594">
        <ele>1134.8</ele>
        <time>2022-05-21 20:07:34</time>
      </trkpt>
      <trkpt lat="42.38217" lon="2.49593">
        <ele>1134.8</ele>
        <time>2022-05-21 20:07:35</time>
      </trkpt>
      <trkpt lat="42.38215" lon="2.49593">
        <ele>1135</ele>
        <time>2022-05-21 20:07:36</time>
      </trkpt>
      <trkpt lat="42.38213" lon="2.49592">
        <ele>1135</ele>
        <time>2022-05-21 20:07:37</time>
      </trkpt>
      <trkpt lat="42.38211" lon="2.49591">
        <ele>1135.2</ele>
        <time>2022-05-21 20:07:38</time>
      </trkpt>
      <trkpt lat="42.38209" lon="2.49589">
        <ele>1135.2</ele>
        <time>2022-05-21 20:07:39</time>
      </trkpt>
      <trkpt lat="42.38207" lon="2.49588">
        <ele>1135.4</ele>
        <time>2022-05-21 20:07:40</time>
      </trkpt>
      <trkpt lat="42.38205" lon="2.49587">
        <ele>1135.6</ele>
        <time>2022-05-21 20:07:41</time>
      </trkpt>
      <trkpt lat="42.38203" lon="2.49585">
        <ele>1135.6</ele>
        <time>2022-05-21 20:07:42</time>
      </trkpt>
      <trkpt lat="42.38201" lon="2.49585">
        <ele>1135.8</ele>
        <time>2022-05-21 20:07:43</time>
      </trkpt>
      <trkpt lat="42.382" lon="2.49584">
        <ele>1136</ele>
        <time>2022-05-21 20:07:44</time>
      </trkpt>
      <trkpt lat="42.38198" lon="2.49584">
        <ele>1136</ele>
        <time>2022-05-21 20:07:45</time>
      </trkpt>
      <trkpt lat="42.38196" lon="2.49583">
        <ele>1136.2</ele>
        <time>2022-05-21 20:07:46</time>
      </trkpt>
      <trkpt lat="42.38194" lon="2.49582">
        <ele>1136.2</ele>
        <time>2022-05-21 20:07:47</time>
      </trkpt>
      <trkpt lat="42.38192" lon="2.49582">
        <ele>1136.4</ele>
        <time>2022-05-21 20:07:48</time>
      </trkpt>
      <trkpt lat="42.3819" lon="2.49581">
        <ele>1136.6</ele>
        <time>2022-05-21 20:07:49</time>
      </trkpt>
      <trkpt lat="42.38188" lon="2.49581">
        <ele>1136.6</ele>
        <time>2022-05-21 20:07:50</time>
      </trkpt>
      <trkpt lat="42.38186" lon="2.4958">
        <ele>1136.8</ele>
        <time>2022-05-21 20:07:51</time>
      </trkpt>
      <trkpt lat="42.38184" lon="2.4958">
        <ele>1137</ele>
        <time>2022-05-21 20:07:52</time>
      </trkpt>
      <trkpt lat="42.38182" lon="2.4958">
        <ele>1137</ele>
        <time>2022-05-21 20:07:53</time>
      </trkpt>
      <trkpt lat="42.38179" lon="2.49581">
        <ele>1137.2</ele>
        <time>2022-05-21 20:07:54</time>
      </trkpt>
      <trkpt lat="42.38177" lon="2.49582">
        <ele>1137.4</ele>
        <time>2022-05-21 20:07:55</time>
      </trkpt>
      <trkpt lat="42.38174" lon="2.49583">
        <ele>1137.6</ele>
        <time>2022-05-21 20:07:56</time>
      </trkpt>
      <trkpt lat="42.38172" lon="2.49585">
        <ele>1137.6</ele>
        <time>2022-05-21 20:07:57</time>
      </trkpt>
      <trkpt lat="42.38171" lon="2.49586">
        <ele>1137.8</ele>
        <time>2022-05-21 20:07:58</time>
      </trkpt>
      <trkpt lat="42.38169" lon="2.49587">
        <ele>1138</ele>
        <time>2022-05-21 20:07:59</time>
      </trkpt>
      <trkpt lat="42.38167" lon="2.49589">
        <ele>1138</ele>
        <time>2022-05-21 20:08:00</time>
      </trkpt>
      <trkpt lat="42.38165" lon="2.4959">
        <ele>1138.2</ele>
        <time>2022-05-21 20:08:01</time>
      </trkpt>
      <trkpt lat="42.38163" lon="2.49591">
        <ele>1138.4</ele>
        <time>2022-05-21 20:08:02</time>
      </trkpt>
      <trkpt lat="42.38161" lon="2.49592">
        <ele>1138.6</ele>
        <time>2022-05-21 20:08:03</time>
      </trkpt>
      <trkpt lat="42.38159" lon="2.49594">
        <ele>1138.6</ele>
        <time>2022-05-21 20:08:04</time>
      </trkpt>
      <trkpt lat="42.38158" lon="2.49596">
        <ele>1138.8</ele>
        <time>2022-05-21 20:08:05</time>
      </trkpt>
      <trkpt lat="42.38157" lon="2.49598">
        <ele>1139</ele>
        <time>2022-05-21 20:08:06</time>
      </trkpt>
      <trkpt lat="42.38156" lon="2.49599">
        <ele>1139.2</ele>
        <time>2022-05-21 20:08:07</time>
      </trkpt>
      <trkpt lat="42.38154" lon="2.49601">
        <ele>1139.2</ele>
        <time>2022-05-21 20:08:08</time>
      </trkpt>
      <trkpt lat="42.38153" lon="2.49603">
        <ele>1139.4</ele>
        <time>2022-05-21 20:08:09</time>
      </trkpt>
      <trkpt lat="42.38153" lon="2.49605">
        <ele>1139.6</ele>
        <time>2022-05-21 20:08:10</time>
      </trkpt>
      <trkpt lat="42.38152" lon="2.49608">
        <ele>1139.6</ele>
        <time>2022-05-21 20:08:11</time>
      </trkpt>
      <trkpt lat="42.38152" lon="2.4961">
        <ele>1139.8</ele>
        <time>2022-05-21 20:08:12</time>
      </trkpt>
      <trkpt lat="42.38152" lon="2.49613">
        <ele>1139.8</ele>
        <time>2022-05-21 20:08:13</time>
      </trkpt>
      <trkpt lat="42.38152" lon="2.49616">
        <ele>1140</ele>
        <time>2022-05-21 20:08:14</time>
      </trkpt>
      <trkpt lat="42.38152" lon="2.49619">
        <ele>1140.2</ele>
        <time>2022-05-21 20:08:15</time>
      </trkpt>
      <trkpt lat="42.38152" lon="2.49622">
        <ele>1140.2</ele>
        <time>2022-05-21 20:08:16</time>
      </trkpt>
      <trkpt lat="42.38152" lon="2.49625">
        <ele>1140.4</ele>
        <time>2022-05-21 20:08:17</time>
      </trkpt>
      <trkpt lat="42.38153" lon="2.49627">
        <ele>1140.4</ele>
        <time>2022-05-21 20:08:18</time>
      </trkpt>
      <trkpt lat="42.38154" lon="2.4963">
        <ele>1140.6</ele>
        <time>2022-05-21 20:08:19</time>
      </trkpt>
      <trkpt lat="42.38155" lon="2.49632">
        <ele>1140.8</ele>
        <time>2022-05-21 20:08:20</time>
      </trkpt>
      <trkpt lat="42.38156" lon="2.49635">
        <ele>1140.8</ele>
        <time>2022-05-21 20:08:21</time>
      </trkpt>
      <trkpt lat="42.38156" lon="2.49637">
        <ele>1141</ele>
        <time>2022-05-21 20:08:22</time>
      </trkpt>
      <trkpt lat="42.38157" lon="2.4964">
        <ele>1141.2</ele>
        <time>2022-05-21 20:08:23</time>
      </trkpt>
      <trkpt lat="42.38158" lon="2.49642">
        <ele>1141.4</ele>
        <time>2022-05-21 20:08:24</time>
      </trkpt>
      <trkpt lat="42.38159" lon="2.49645">
        <ele>1141.4</ele>
        <time>2022-05-21 20:08:25</time>
      </trkpt>
      <trkpt lat="42.3816" lon="2.49647">
        <ele>1141.6</ele>
        <time>2022-05-21 20:08:26</time>
      </trkpt>
      <trkpt lat="42.38161" lon="2.4965">
        <ele>1141.8</ele>
        <time>2022-05-21 20:08:27</time>
      </trkpt>
      <trkpt lat="42.38161" lon="2.49652">
        <ele>1142</ele>
        <time>2022-05-21 20:08:28</time>
      </trkpt>
      <trkpt lat="42.38162" lon="2.49654">
        <ele>1142.2</ele>
        <time>2022-05-21 20:08:29</time>
      </trkpt>
      <trkpt lat="42.38162" lon="2.49657">
        <ele>1142.4</ele>
        <time>2022-05-21 20:08:30</time>
      </trkpt>
      <trkpt lat="42.38163" lon="2.49659">
        <ele>1142.6</ele>
        <time>2022-05-21 20:08:31</time>
      </trkpt>
      <trkpt lat="42.38164" lon="2.49662">
        <ele>1142.8</ele>
        <time>2022-05-21 20:08:32</time>
      </trkpt>
      <trkpt lat="42.38165" lon="2.49664">
        <ele>1143</ele>
        <time>2022-05-21 20:08:33</time>
      </trkpt>
      <trkpt lat="42.38166" lon="2.49667">
        <ele>1143.2</ele>
        <time>2022-05-21 20:08:34</time>
      </trkpt>
      <trkpt lat="42.38167" lon="2.49669">
        <ele>1143.4</ele>
        <time>2022-05-21 20:08:35</time>
      </trkpt>
      <trkpt lat="42.38168" lon="2.49672">
        <ele>1143.6</ele>
        <time>2022-05-21 20:08:36</time>
      </trkpt>
      <trkpt lat="42.38169" lon="2.49674">
        <ele>1143.8</ele>
        <time>2022-05-21 20:08:37</time>
      </trkpt>
      <trkpt lat="42.3817" lon="2.49677">
        <ele>1144</ele>
        <time>2022-05-21 20:08:38</time>
      </trkpt>
      <trkpt lat="42.38171" lon="2.49679">
        <ele>1144.2</ele>
        <time>2022-05-21 20:08:39</time>
      </trkpt>
      <trkpt lat="42.38172" lon="2.49682">
        <ele>1144.4</ele>
        <time>2022-05-21 20:08:40</time>
      </trkpt>
      <trkpt lat="42.38173" lon="2.49684">
        <ele>1144.6</ele>
        <time>2022-05-21 20:08:41</time>
      </trkpt>
      <trkpt lat="42.38174" lon="2.49687">
        <ele>1144.8</ele>
        <time>2022-05-21 20:08:42</time>
      </trkpt>
      <trkpt lat="42.38176" lon="2.49689">
        <ele>1144.8</ele>
        <time>2022-05-21 20:08:43</time>
      </trkpt>
      <trkpt lat="42.38177" lon="2.49691">
        <ele>1145</ele>
        <time>2022-05-21 20:08:44</time>
      </trkpt>
      <trkpt lat="42.38178" lon="2.49693">
        <ele>1145.2</ele>
        <time>2022-05-21 20:08:45</time>
      </trkpt>
      <trkpt lat="42.38179" lon="2.49695">
        <ele>1145.4</ele>
        <time>2022-05-21 20:08:46</time>
      </trkpt>
      <trkpt lat="42.3818" lon="2.49697">
        <ele>1145.4</ele>
        <time>2022-05-21 20:08:47</time>
      </trkpt>
      <trkpt lat="42.38181" lon="2.49699">
        <ele>1145.6</ele>
        <time>2022-05-21 20:08:48</time>
      </trkpt>
      <trkpt lat="42.38183" lon="2.49701">
        <ele>1145.8</ele>
        <time>2022-05-21 20:08:49</time>
      </trkpt>
      <trkpt lat="42.38184" lon="2.49703">
        <ele>1146</ele>
        <time>2022-05-21 20:08:50</time>
      </trkpt>
      <trkpt lat="42.38186" lon="2.49705">
        <ele>1146</ele>
        <time>2022-05-21 20:08:51</time>
      </trkpt>
      <trkpt lat="42.38187" lon="2.49708">
        <ele>1146.2</ele>
        <time>2022-05-21 20:08:52</time>
      </trkpt>
      <trkpt lat="42.38189" lon="2.49711">
        <ele>1146.4</ele>
        <time>2022-05-21 20:08:53</time>
      </trkpt>
      <trkpt lat="42.3819" lon="2.49713">
        <ele>1146.4</ele>
        <time>2022-05-21 20:08:54</time>
      </trkpt>
      <trkpt lat="42.38191" lon="2.49716">
        <ele>1146.6</ele>
        <time>2022-05-21 20:08:55</time>
      </trkpt>
      <trkpt lat="42.38193" lon="2.49719">
        <ele>1146.8</ele>
        <time>2022-05-21 20:08:56</time>
      </trkpt>
      <trkpt lat="42.38194" lon="2.49721">
        <ele>1146.8</ele>
        <time>2022-05-21 20:08:57</time>
      </trkpt>
      <trkpt lat="42.38195" lon="2.49723">
        <ele>1147</ele>
        <time>2022-05-21 20:08:58</time>
      </trkpt>
      <trkpt lat="42.38197" lon="2.49726">
        <ele>1147.2</ele>
        <time>2022-05-21 20:08:59</time>
      </trkpt>
      <trkpt lat="42.38199" lon="2.49728">
        <ele>1147.2</ele>
        <time>2022-05-21 20:09:00</time>
      </trkpt>
      <trkpt lat="42.382" lon="2.49731">
        <ele>1147.4</ele>
        <time>2022-05-21 20:09:01</time>
      </trkpt>
      <trkpt lat="42.38202" lon="2.49733">
        <ele>1147.6</ele>
        <time>2022-05-21 20:09:02</time>
      </trkpt>
      <trkpt lat="42.38203" lon="2.49736">
        <ele>1147.6</ele>
        <time>2022-05-21 20:09:03</time>
      </trkpt>
      <trkpt lat="42.38205" lon="2.49737">
        <ele>1147.8</ele>
        <time>2022-05-21 20:09:04</time>
      </trkpt>
      <trkpt lat="42.38207" lon="2.4974">
        <ele>1147.8</ele>
        <time>2022-05-21 20:09:05</time>
      </trkpt>
      <trkpt lat="42.38208" lon="2.49742">
        <ele>1148</ele>
        <time>2022-05-21 20:09:06</time>
      </trkpt>
      <trkpt lat="42.38209" lon="2.49744">
        <ele>1148.2</ele>
        <time>2022-05-21 20:09:07</time>
      </trkpt>
      <trkpt lat="42.38211" lon="2.49746">
        <ele>1148.2</ele>
        <time>2022-05-21 20:09:08</time>
      </trkpt>
      <trkpt lat="42.38212" lon="2.49748">
        <ele>1148.4</ele>
        <time>2022-05-21 20:09:09</time>
      </trkpt>
      <trkpt lat="42.38213" lon="2.49749">
        <ele>1148.4</ele>
        <time>2022-05-21 20:09:10</time>
      </trkpt>
      <trkpt lat="42.38215" lon="2.49751">
        <ele>1148.6</ele>
        <time>2022-05-21 20:09:11</time>
      </trkpt>
      <trkpt lat="42.38217" lon="2.49753">
        <ele>1148.8</ele>
        <time>2022-05-21 20:09:12</time>
      </trkpt>
      <trkpt lat="42.38218" lon="2.49754">
        <ele>1148.8</ele>
        <time>2022-05-21 20:09:13</time>
      </trkpt>
      <trkpt lat="42.3822" lon="2.49756">
        <ele>1149</ele>
        <time>2022-05-21 20:09:14</time>
      </trkpt>
      <trkpt lat="42.38222" lon="2.49758">
        <ele>1149.2</ele>
        <time>2022-05-21 20:09:15</time>
      </trkpt>
      <trkpt lat="42.38223" lon="2.4976">
        <ele>1149.2</ele>
        <time>2022-05-21 20:09:16</time>
      </trkpt>
      <trkpt lat="42.38224" lon="2.49761">
        <ele>1149.4</ele>
        <time>2022-05-21 20:09:17</time>
      </trkpt>
      <trkpt lat="42.38226" lon="2.49763">
        <ele>1149.6</ele>
        <time>2022-05-21 20:09:18</time>
      </trkpt>
      <trkpt lat="42.38227" lon="2.49766">
        <ele>1149.6</ele>
        <time>2022-05-21 20:09:19</time>
      </trkpt>
      <trkpt lat="42.38228" lon="2.49768">
        <ele>1149.8</ele>
        <time>2022-05-21 20:09:20</time>
      </trkpt>
      <trkpt lat="42.3823" lon="2.4977">
        <ele>1150</ele>
        <time>2022-05-21 20:09:21</time>
      </trkpt>
      <trkpt lat="42.38231" lon="2.49772">
        <ele>1150.2</ele>
        <time>2022-05-21 20:09:22</time>
      </trkpt>
      <trkpt lat="42.38233" lon="2.49774">
        <ele>1150.2</ele>
        <time>2022-05-21 20:09:23</time>
      </trkpt>
      <trkpt lat="42.38234" lon="2.49775">
        <ele>1150.4</ele>
        <time>2022-05-21 20:09:24</time>
      </trkpt>
      <trkpt lat="42.38236" lon="2.49777">
        <ele>1150.6</ele>
        <time>2022-05-21 20:09:25</time>
      </trkpt>
      <trkpt lat="42.38237" lon="2.49778">
        <ele>1150.8</ele>
        <time>2022-05-21 20:09:26</time>
      </trkpt>
      <trkpt lat="42.38238" lon="2.4978">
        <ele>1151</ele>
        <time>2022-05-21 20:09:27</time>
      </trkpt>
      <trkpt lat="42.3824" lon="2.49782">
        <ele>1151</ele>
        <time>2022-05-21 20:09:28</time>
      </trkpt>
      <trkpt lat="42.38241" lon="2.49784">
        <ele>1151.2</ele>
        <time>2022-05-21 20:09:29</time>
      </trkpt>
      <trkpt lat="42.38242" lon="2.49786">
        <ele>1151.4</ele>
        <time>2022-05-21 20:09:30</time>
      </trkpt>
      <trkpt lat="42.38244" lon="2.49788">
        <ele>1151.6</ele>
        <time>2022-05-21 20:09:31</time>
      </trkpt>
      <trkpt lat="42.38245" lon="2.4979">
        <ele>1151.8</ele>
        <time>2022-05-21 20:09:32</time>
      </trkpt>
      <trkpt lat="42.38247" lon="2.49792">
        <ele>1152</ele>
        <time>2022-05-21 20:09:33</time>
      </trkpt>
      <trkpt lat="42.38248" lon="2.49793">
        <ele>1152.2</ele>
        <time>2022-05-21 20:09:34</time>
      </trkpt>
      <trkpt lat="42.38249" lon="2.49795">
        <ele>1152.4</ele>
        <time>2022-05-21 20:09:35</time>
      </trkpt>
      <trkpt lat="42.38251" lon="2.49796">
        <ele>1152.6</ele>
        <time>2022-05-21 20:09:36</time>
      </trkpt>
      <trkpt lat="42.38252" lon="2.49798">
        <ele>1152.8</ele>
        <time>2022-05-21 20:09:37</time>
      </trkpt>
      <trkpt lat="42.38254" lon="2.498">
        <ele>1153</ele>
        <time>2022-05-21 20:09:38</time>
      </trkpt>
      <trkpt lat="42.38256" lon="2.49802">
        <ele>1153.2</ele>
        <time>2022-05-21 20:09:39</time>
      </trkpt>
      <trkpt lat="42.38257" lon="2.49804">
        <ele>1153.4</ele>
        <time>2022-05-21 20:09:40</time>
      </trkpt>
      <trkpt lat="42.38259" lon="2.49805">
        <ele>1153.6</ele>
        <time>2022-05-21 20:09:41</time>
      </trkpt>
      <trkpt lat="42.3826" lon="2.49807">
        <ele>1153.8</ele>
        <time>2022-05-21 20:09:42</time>
      </trkpt>
      <trkpt lat="42.38261" lon="2.49808">
        <ele>1154</ele>
        <time>2022-05-21 20:09:43</time>
      </trkpt>
      <trkpt lat="42.38263" lon="2.4981">
        <ele>1154.2</ele>
        <time>2022-05-21 20:09:44</time>
      </trkpt>
      <trkpt lat="42.38264" lon="2.49813">
        <ele>1154.4</ele>
        <time>2022-05-21 20:09:45</time>
      </trkpt>
      <trkpt lat="42.38266" lon="2.49815">
        <ele>1154.6</ele>
        <time>2022-05-21 20:09:46</time>
      </trkpt>
      <trkpt lat="42.38267" lon="2.49817">
        <ele>1154.8</ele>
        <time>2022-05-21 20:09:47</time>
      </trkpt>
      <trkpt lat="42.38268" lon="2.49818">
        <ele>1155</ele>
        <time>2022-05-21 20:09:48</time>
      </trkpt>
      <trkpt lat="42.38269" lon="2.49819">
        <ele>1155.2</ele>
        <time>2022-05-21 20:09:49</time>
      </trkpt>
      <trkpt lat="42.3827" lon="2.4982">
        <ele>1155.4</ele>
        <time>2022-05-21 20:09:50</time>
      </trkpt>
      <trkpt lat="42.38271" lon="2.49821">
        <ele>1155.6</ele>
        <time>2022-05-21 20:09:51</time>
      </trkpt>
      <trkpt lat="42.38272" lon="2.49822">
        <ele>1155.6</ele>
        <time>2022-05-21 20:09:52</time>
      </trkpt>
      <trkpt lat="42.38274" lon="2.49823">
        <ele>1155.8</ele>
        <time>2022-05-21 20:09:53</time>
      </trkpt>
      <trkpt lat="42.38275" lon="2.49825">
        <ele>1156</ele>
        <time>2022-05-21 20:09:54</time>
      </trkpt>
      <trkpt lat="42.38276" lon="2.49826">
        <ele>1156.2</ele>
        <time>2022-05-21 20:09:55</time>
      </trkpt>
      <trkpt lat="42.38277" lon="2.49828">
        <ele>1156.4</ele>
        <time>2022-05-21 20:09:56</time>
      </trkpt>
      <trkpt lat="42.38278" lon="2.4983">
        <ele>1156.6</ele>
        <time>2022-05-21 20:09:57</time>
      </trkpt>
      <trkpt lat="42.3828" lon="2.49832">
        <ele>1156.8</ele>
        <time>2022-05-21 20:09:58</time>
      </trkpt>
      <trkpt lat="42.38281" lon="2.49834">
        <ele>1156.8</ele>
        <time>2022-05-21 20:09:59</time>
      </trkpt>
      <trkpt lat="42.38283" lon="2.49836">
        <ele>1157</ele>
        <time>2022-05-21 20:10:00</time>
      </trkpt>
      <trkpt lat="42.38285" lon="2.49838">
        <ele>1157.2</ele>
        <time>2022-05-21 20:10:01</time>
      </trkpt>
      <trkpt lat="42.38287" lon="2.4984">
        <ele>1157.4</ele>
        <time>2022-05-21 20:10:02</time>
      </trkpt>
      <trkpt lat="42.38288" lon="2.49842">
        <ele>1157.6</ele>
        <time>2022-05-21 20:10:03</time>
      </trkpt>
      <trkpt lat="42.38289" lon="2.49845">
        <ele>1157.8</ele>
        <time>2022-05-21 20:10:04</time>
      </trkpt>
      <trkpt lat="42.38291" lon="2.49847">
        <ele>1157.8</ele>
        <time>2022-05-21 20:10:05</time>
      </trkpt>
      <trkpt lat="42.38292" lon="2.49848">
        <ele>1158</ele>
        <time>2022-05-21 20:10:06</time>
      </trkpt>
      <trkpt lat="42.38294" lon="2.49849">
        <ele>1158.2</ele>
        <time>2022-05-21 20:10:07</time>
      </trkpt>
      <trkpt lat="42.38296" lon="2.49851">
        <ele>1158.4</ele>
        <time>2022-05-21 20:10:08</time>
      </trkpt>
      <trkpt lat="42.38298" lon="2.49853">
        <ele>1158.6</ele>
        <time>2022-05-21 20:10:09</time>
      </trkpt>
      <trkpt lat="42.38299" lon="2.49855">
        <ele>1158.6</ele>
        <time>2022-05-21 20:10:10</time>
      </trkpt>
      <trkpt lat="42.38301" lon="2.49857">
        <ele>1158.8</ele>
        <time>2022-05-21 20:10:11</time>
      </trkpt>
      <trkpt lat="42.38302" lon="2.49858">
        <ele>1159</ele>
        <time>2022-05-21 20:10:12</time>
      </trkpt>
      <trkpt lat="42.38304" lon="2.49859">
        <ele>1159</ele>
        <time>2022-05-21 20:10:13</time>
      </trkpt>
      <trkpt lat="42.38306" lon="2.49861">
        <ele>1159.2</ele>
        <time>2022-05-21 20:10:14</time>
      </trkpt>
      <trkpt lat="42.38307" lon="2.49862">
        <ele>1159.4</ele>
        <time>2022-05-21 20:10:15</time>
      </trkpt>
      <trkpt lat="42.38309" lon="2.49864">
        <ele>1159.6</ele>
        <time>2022-05-21 20:10:16</time>
      </trkpt>
      <trkpt lat="42.3831" lon="2.49865">
        <ele>1159.6</ele>
        <time>2022-05-21 20:10:17</time>
      </trkpt>
      <trkpt lat="42.38312" lon="2.49867">
        <ele>1159.8</ele>
        <time>2022-05-21 20:10:18</time>
      </trkpt>
      <trkpt lat="42.38314" lon="2.49868">
        <ele>1160</ele>
        <time>2022-05-21 20:10:19</time>
      </trkpt>
      <trkpt lat="42.38315" lon="2.49869">
        <ele>1160.2</ele>
        <time>2022-05-21 20:10:20</time>
      </trkpt>
      <trkpt lat="42.38317" lon="2.4987">
        <ele>1160.2</ele>
        <time>2022-05-21 20:10:21</time>
      </trkpt>
      <trkpt lat="42.38318" lon="2.49871">
        <ele>1160.4</ele>
        <time>2022-05-21 20:10:22</time>
      </trkpt>
      <trkpt lat="42.3832" lon="2.49872">
        <ele>1160.6</ele>
        <time>2022-05-21 20:10:23</time>
      </trkpt>
      <trkpt lat="42.38321" lon="2.49873">
        <ele>1160.8</ele>
        <time>2022-05-21 20:10:24</time>
      </trkpt>
      <trkpt lat="42.38323" lon="2.49874">
        <ele>1160.8</ele>
        <time>2022-05-21 20:10:25</time>
      </trkpt>
      <trkpt lat="42.38325" lon="2.49875">
        <ele>1161</ele>
        <time>2022-05-21 20:10:26</time>
      </trkpt>
      <trkpt lat="42.38327" lon="2.49875">
        <ele>1161.2</ele>
        <time>2022-05-21 20:10:27</time>
      </trkpt>
      <trkpt lat="42.38329" lon="2.49876">
        <ele>1161.2</ele>
        <time>2022-05-21 20:10:28</time>
      </trkpt>
      <trkpt lat="42.38331" lon="2.49876">
        <ele>1161.4</ele>
        <time>2022-05-21 20:10:29</time>
      </trkpt>
      <trkpt lat="42.38333" lon="2.49876">
        <ele>1161.6</ele>
        <time>2022-05-21 20:10:30</time>
      </trkpt>
      <trkpt lat="42.38335" lon="2.49877">
        <ele>1161.6</ele>
        <time>2022-05-21 20:10:31</time>
      </trkpt>
      <trkpt lat="42.38337" lon="2.49877">
        <ele>1161.8</ele>
        <time>2022-05-21 20:10:32</time>
      </trkpt>
      <trkpt lat="42.38339" lon="2.49878">
        <ele>1162</ele>
        <time>2022-05-21 20:10:33</time>
      </trkpt>
      <trkpt lat="42.38341" lon="2.49878">
        <ele>1162.2</ele>
        <time>2022-05-21 20:10:34</time>
      </trkpt>
      <trkpt lat="42.38343" lon="2.49879">
        <ele>1162.2</ele>
        <time>2022-05-21 20:10:35</time>
      </trkpt>
      <trkpt lat="42.38345" lon="2.4988">
        <ele>1162.4</ele>
        <time>2022-05-21 20:10:36</time>
      </trkpt>
      <trkpt lat="42.38346" lon="2.49881">
        <ele>1162.6</ele>
        <time>2022-05-21 20:10:37</time>
      </trkpt>
      <trkpt lat="42.38348" lon="2.49882">
        <ele>1162.8</ele>
        <time>2022-05-21 20:10:38</time>
      </trkpt>
      <trkpt lat="42.38349" lon="2.49882">
        <ele>1162.8</ele>
        <time>2022-05-21 20:10:39</time>
      </trkpt>
      <trkpt lat="42.38351" lon="2.49883">
        <ele>1163</ele>
        <time>2022-05-21 20:10:40</time>
      </trkpt>
      <trkpt lat="42.38353" lon="2.49884">
        <ele>1163.2</ele>
        <time>2022-05-21 20:10:41</time>
      </trkpt>
      <trkpt lat="42.38355" lon="2.49885">
        <ele>1163.2</ele>
        <time>2022-05-21 20:10:42</time>
      </trkpt>
      <trkpt lat="42.38357" lon="2.49885">
        <ele>1163.4</ele>
        <time>2022-05-21 20:10:43</time>
      </trkpt>
      <trkpt lat="42.38359" lon="2.49886">
        <ele>1163.6</ele>
        <time>2022-05-21 20:10:44</time>
      </trkpt>
      <trkpt lat="42.38362" lon="2.49887">
        <ele>1163.8</ele>
        <time>2022-05-21 20:10:45</time>
      </trkpt>
      <trkpt lat="42.38364" lon="2.49888">
        <ele>1163.8</ele>
        <time>2022-05-21 20:10:46</time>
      </trkpt>
      <trkpt lat="42.38366" lon="2.49889">
        <ele>1164</ele>
        <time>2022-05-21 20:10:47</time>
      </trkpt>
      <trkpt lat="42.38368" lon="2.49889">
        <ele>1164.2</ele>
        <time>2022-05-21 20:10:48</time>
      </trkpt>
      <trkpt lat="42.3837" lon="2.4989">
        <ele>1164.2</ele>
        <time>2022-05-21 20:10:49</time>
      </trkpt>
      <trkpt lat="42.38372" lon="2.4989">
        <ele>1164.4</ele>
        <time>2022-05-21 20:10:50</time>
      </trkpt>
      <trkpt lat="42.38373" lon="2.49891">
        <ele>1164.6</ele>
        <time>2022-05-21 20:10:51</time>
      </trkpt>
      <trkpt lat="42.38375" lon="2.49892">
        <ele>1164.8</ele>
        <time>2022-05-21 20:10:52</time>
      </trkpt>
      <trkpt lat="42.38377" lon="2.49893">
        <ele>1164.8</ele>
        <time>2022-05-21 20:10:53</time>
      </trkpt>
      <trkpt lat="42.38379" lon="2.49894">
        <ele>1165</ele>
        <time>2022-05-21 20:10:54</time>
      </trkpt>
      <trkpt lat="42.38381" lon="2.49895">
        <ele>1165.2</ele>
        <time>2022-05-21 20:10:55</time>
      </trkpt>
      <trkpt lat="42.38384" lon="2.49896">
        <ele>1165.4</ele>
        <time>2022-05-21 20:10:56</time>
      </trkpt>
      <trkpt lat="42.38386" lon="2.49898">
        <ele>1165.6</ele>
        <time>2022-05-21 20:10:57</time>
      </trkpt>
      <trkpt lat="42.38389" lon="2.49901">
        <ele>1165.8</ele>
        <time>2022-05-21 20:10:58</time>
      </trkpt>
      <trkpt lat="42.38392" lon="2.49903">
        <ele>1165.8</ele>
        <time>2022-05-21 20:10:59</time>
      </trkpt>
      <trkpt lat="42.38394" lon="2.49906">
        <ele>1166</ele>
        <time>2022-05-21 20:11:00</time>
      </trkpt>
      <trkpt lat="42.38396" lon="2.4991">
        <ele>1166</ele>
        <time>2022-05-21 20:11:01</time>
      </trkpt>
      <trkpt lat="42.38398" lon="2.49913">
        <ele>1166.2</ele>
        <time>2022-05-21 20:11:02</time>
      </trkpt>
      <trkpt lat="42.384" lon="2.49917">
        <ele>1166.2</ele>
        <time>2022-05-21 20:11:03</time>
      </trkpt>
      <trkpt lat="42.38401" lon="2.49922">
        <ele>1166.4</ele>
        <time>2022-05-21 20:11:04</time>
      </trkpt>
      <trkpt lat="42.38402" lon="2.49926">
        <ele>1166.4</ele>
        <time>2022-05-21 20:11:05</time>
      </trkpt>
      <trkpt lat="42.38402" lon="2.4993">
        <ele>1166.6</ele>
        <time>2022-05-21 20:11:06</time>
      </trkpt>
      <trkpt lat="42.38403" lon="2.49934">
        <ele>1166.6</ele>
        <time>2022-05-21 20:11:07</time>
      </trkpt>
      <trkpt lat="42.38402" lon="2.49938">
        <ele>1166.8</ele>
        <time>2022-05-21 20:11:08</time>
      </trkpt>
      <trkpt lat="42.38402" lon="2.49942">
        <ele>1166.8</ele>
        <time>2022-05-21 20:11:09</time>
      </trkpt>
      <trkpt lat="42.38401" lon="2.49946">
        <ele>1166.8</ele>
        <time>2022-05-21 20:11:10</time>
      </trkpt>
      <trkpt lat="42.384" lon="2.4995">
        <ele>1167</ele>
        <time>2022-05-21 20:11:11</time>
      </trkpt>
      <trkpt lat="42.38399" lon="2.49954">
        <ele>1167</ele>
        <time>2022-05-21 20:11:12</time>
      </trkpt>
      <trkpt lat="42.38398" lon="2.49957">
        <ele>1167.2</ele>
        <time>2022-05-21 20:11:13</time>
      </trkpt>
      <trkpt lat="42.38397" lon="2.4996">
        <ele>1167.2</ele>
        <time>2022-05-21 20:11:14</time>
      </trkpt>
      <trkpt lat="42.38396" lon="2.49963">
        <ele>1167.4</ele>
        <time>2022-05-21 20:11:15</time>
      </trkpt>
      <trkpt lat="42.38395" lon="2.49966">
        <ele>1167.6</ele>
        <time>2022-05-21 20:11:16</time>
      </trkpt>
      <trkpt lat="42.38394" lon="2.4997">
        <ele>1167.6</ele>
        <time>2022-05-21 20:11:17</time>
      </trkpt>
      <trkpt lat="42.38394" lon="2.49973">
        <ele>1167.8</ele>
        <time>2022-05-21 20:11:18</time>
      </trkpt>
      <trkpt lat="42.38393" lon="2.49977">
        <ele>1168</ele>
        <time>2022-05-21 20:11:19</time>
      </trkpt>
      <trkpt lat="42.38393" lon="2.49981">
        <ele>1168.2</ele>
        <time>2022-05-21 20:11:20</time>
      </trkpt>
      <trkpt lat="42.38392" lon="2.49985">
        <ele>1168.4</ele>
        <time>2022-05-21 20:11:21</time>
      </trkpt>
      <trkpt lat="42.38392" lon="2.49989">
        <ele>1168.4</ele>
        <time>2022-05-21 20:11:22</time>
      </trkpt>
      <trkpt lat="42.38392" lon="2.49993">
        <ele>1168.6</ele>
        <time>2022-05-21 20:11:23</time>
      </trkpt>
      <trkpt lat="42.38392" lon="2.49997">
        <ele>1168.8</ele>
        <time>2022-05-21 20:11:24</time>
      </trkpt>
      <trkpt lat="42.38392" lon="2.50001">
        <ele>1169</ele>
        <time>2022-05-21 20:11:25</time>
      </trkpt>
      <trkpt lat="42.38392" lon="2.50005">
        <ele>1169</ele>
        <time>2022-05-21 20:11:26</time>
      </trkpt>
      <trkpt lat="42.38392" lon="2.50009">
        <ele>1169.2</ele>
        <time>2022-05-21 20:11:27</time>
      </trkpt>
      <trkpt lat="42.38393" lon="2.50013">
        <ele>1169.4</ele>
        <time>2022-05-21 20:11:28</time>
      </trkpt>
      <trkpt lat="42.38393" lon="2.50017">
        <ele>1169.6</ele>
        <time>2022-05-21 20:11:29</time>
      </trkpt>
      <trkpt lat="42.38393" lon="2.5002">
        <ele>1169.8</ele>
        <time>2022-05-21 20:11:30</time>
      </trkpt>
      <trkpt lat="42.38393" lon="2.50023">
        <ele>1170</ele>
        <time>2022-05-21 20:11:31</time>
      </trkpt>
      <trkpt lat="42.38394" lon="2.50027">
        <ele>1170.2</ele>
        <time>2022-05-21 20:11:32</time>
      </trkpt>
      <trkpt lat="42.38395" lon="2.5003">
        <ele>1170.4</ele>
        <time>2022-05-21 20:11:33</time>
      </trkpt>
      <trkpt lat="42.38395" lon="2.50034">
        <ele>1170.6</ele>
        <time>2022-05-21 20:11:34</time>
      </trkpt>
      <trkpt lat="42.38396" lon="2.50037">
        <ele>1170.6</ele>
        <time>2022-05-21 20:11:35</time>
      </trkpt>
      <trkpt lat="42.38396" lon="2.5004">
        <ele>1170.8</ele>
        <time>2022-05-21 20:11:36</time>
      </trkpt>
      <trkpt lat="42.38397" lon="2.50042">
        <ele>1171</ele>
        <time>2022-05-21 20:11:37</time>
      </trkpt>
      <trkpt lat="42.38397" lon="2.50045">
        <ele>1171.2</ele>
        <time>2022-05-21 20:11:38</time>
      </trkpt>
      <trkpt lat="42.38398" lon="2.50047">
        <ele>1171.4</ele>
        <time>2022-05-21 20:11:39</time>
      </trkpt>
      <trkpt lat="42.38398" lon="2.5005">
        <ele>1171.6</ele>
        <time>2022-05-21 20:11:40</time>
      </trkpt>
      <trkpt lat="42.38399" lon="2.50052">
        <ele>1171.8</ele>
        <time>2022-05-21 20:11:41</time>
      </trkpt>
      <trkpt lat="42.384" lon="2.50055">
        <ele>1172</ele>
        <time>2022-05-21 20:11:42</time>
      </trkpt>
      <trkpt lat="42.384" lon="2.50057">
        <ele>1172.2</ele>
        <time>2022-05-21 20:11:43</time>
      </trkpt>
      <trkpt lat="42.38401" lon="2.5006">
        <ele>1172.4</ele>
        <time>2022-05-21 20:11:44</time>
      </trkpt>
      <trkpt lat="42.38402" lon="2.50062">
        <ele>1172.6</ele>
        <time>2022-05-21 20:11:45</time>
      </trkpt>
      <trkpt lat="42.38402" lon="2.50065">
        <ele>1172.6</ele>
        <time>2022-05-21 20:11:46</time>
      </trkpt>
      <trkpt lat="42.38402" lon="2.50067">
        <ele>1172.8</ele>
        <time>2022-05-21 20:11:47</time>
      </trkpt>
      <trkpt lat="42.38402" lon="2.5007">
        <ele>1173</ele>
        <time>2022-05-21 20:11:48</time>
      </trkpt>
      <trkpt lat="42.38402" lon="2.50072">
        <ele>1173.2</ele>
        <time>2022-05-21 20:11:49</time>
      </trkpt>
      <trkpt lat="42.38402" lon="2.50075">
        <ele>1173.4</ele>
        <time>2022-05-21 20:11:50</time>
      </trkpt>
      <trkpt lat="42.38403" lon="2.50078">
        <ele>1173.6</ele>
        <time>2022-05-21 20:11:51</time>
      </trkpt>
      <trkpt lat="42.38404" lon="2.50081">
        <ele>1173.8</ele>
        <time>2022-05-21 20:11:52</time>
      </trkpt>
      <trkpt lat="42.38404" lon="2.50083">
        <ele>1173.8</ele>
        <time>2022-05-21 20:11:53</time>
      </trkpt>
      <trkpt lat="42.38405" lon="2.50086">
        <ele>1174</ele>
        <time>2022-05-21 20:11:54</time>
      </trkpt>
      <trkpt lat="42.38405" lon="2.50088">
        <ele>1174.2</ele>
        <time>2022-05-21 20:11:55</time>
      </trkpt>
      <trkpt lat="42.38406" lon="2.50091">
        <ele>1174.4</ele>
        <time>2022-05-21 20:11:56</time>
      </trkpt>
      <trkpt lat="42.38407" lon="2.50094">
        <ele>1174.6</ele>
        <time>2022-05-21 20:11:57</time>
      </trkpt>
      <trkpt lat="42.38407" lon="2.50096">
        <ele>1174.8</ele>
        <time>2022-05-21 20:11:58</time>
      </trkpt>
      <trkpt lat="42.38408" lon="2.50099">
        <ele>1174.8</ele>
        <time>2022-05-21 20:11:59</time>
      </trkpt>
      <trkpt lat="42.38408" lon="2.50102">
        <ele>1175</ele>
        <time>2022-05-21 20:12:00</time>
      </trkpt>
      <trkpt lat="42.38409" lon="2.50105">
        <ele>1175.2</ele>
        <time>2022-05-21 20:12:01</time>
      </trkpt>
      <trkpt lat="42.38409" lon="2.50108">
        <ele>1175.4</ele>
        <time>2022-05-21 20:12:02</time>
      </trkpt>
      <trkpt lat="42.38409" lon="2.50112">
        <ele>1175.6</ele>
        <time>2022-05-21 20:12:03</time>
      </trkpt>
      <trkpt lat="42.3841" lon="2.50115">
        <ele>1175.8</ele>
        <time>2022-05-21 20:12:04</time>
      </trkpt>
      <trkpt lat="42.38411" lon="2.50118">
        <ele>1176</ele>
        <time>2022-05-21 20:12:05</time>
      </trkpt>
      <trkpt lat="42.38411" lon="2.50121">
        <ele>1176.2</ele>
        <time>2022-05-21 20:12:06</time>
      </trkpt>
      <trkpt lat="42.38412" lon="2.50124">
        <ele>1176.2</ele>
        <time>2022-05-21 20:12:07</time>
      </trkpt>
      <trkpt lat="42.38413" lon="2.50128">
        <ele>1176.4</ele>
        <time>2022-05-21 20:12:08</time>
      </trkpt>
      <trkpt lat="42.38413" lon="2.50131">
        <ele>1176.4</ele>
        <time>2022-05-21 20:12:09</time>
      </trkpt>
      <trkpt lat="42.38414" lon="2.50135">
        <ele>1176.6</ele>
        <time>2022-05-21 20:12:10</time>
      </trkpt>
      <trkpt lat="42.38415" lon="2.50138">
        <ele>1176.8</ele>
        <time>2022-05-21 20:12:11</time>
      </trkpt>
      <trkpt lat="42.38415" lon="2.50141">
        <ele>1176.8</ele>
        <time>2022-05-21 20:12:12</time>
      </trkpt>
      <trkpt lat="42.38416" lon="2.50145">
        <ele>1177</ele>
        <time>2022-05-21 20:12:13</time>
      </trkpt>
      <trkpt lat="42.38417" lon="2.50149">
        <ele>1177</ele>
        <time>2022-05-21 20:12:14</time>
      </trkpt>
      <trkpt lat="42.38418" lon="2.50152">
        <ele>1177</ele>
        <time>2022-05-21 20:12:15</time>
      </trkpt>
      <trkpt lat="42.3842" lon="2.50155">
        <ele>1177.2</ele>
        <time>2022-05-21 20:12:16</time>
      </trkpt>
      <trkpt lat="42.38421" lon="2.50159">
        <ele>1177.2</ele>
        <time>2022-05-21 20:12:17</time>
      </trkpt>
      <trkpt lat="42.38423" lon="2.50162">
        <ele>1177.2</ele>
        <time>2022-05-21 20:12:18</time>
      </trkpt>
      <trkpt lat="42.38424" lon="2.50165">
        <ele>1177.2</ele>
        <time>2022-05-21 20:12:19</time>
      </trkpt>
      <trkpt lat="42.38426" lon="2.50168">
        <ele>1177.2</ele>
        <time>2022-05-21 20:12:20</time>
      </trkpt>
      <trkpt lat="42.38427" lon="2.50171">
        <ele>1177.4</ele>
        <time>2022-05-21 20:12:21</time>
      </trkpt>
      <trkpt lat="42.38429" lon="2.50173">
        <ele>1177.4</ele>
        <time>2022-05-21 20:12:22</time>
      </trkpt>
      <trkpt lat="42.38431" lon="2.50175">
        <ele>1177.4</ele>
        <time>2022-05-21 20:12:23</time>
      </trkpt>
      <trkpt lat="42.38432" lon="2.50177">
        <ele>1177.6</ele>
        <time>2022-05-21 20:12:24</time>
      </trkpt>
      <trkpt lat="42.38434" lon="2.5018">
        <ele>1177.6</ele>
        <time>2022-05-21 20:12:25</time>
      </trkpt>
      <trkpt lat="42.38436" lon="2.50182">
        <ele>1177.6</ele>
        <time>2022-05-21 20:12:26</time>
      </trkpt>
      <trkpt lat="42.38438" lon="2.50185">
        <ele>1177.8</ele>
        <time>2022-05-21 20:12:27</time>
      </trkpt>
      <trkpt lat="42.38439" lon="2.50188">
        <ele>1177.8</ele>
        <time>2022-05-21 20:12:28</time>
      </trkpt>
      <trkpt lat="42.38441" lon="2.50192">
        <ele>1178</ele>
        <time>2022-05-21 20:12:29</time>
      </trkpt>
      <trkpt lat="42.38442" lon="2.50195">
        <ele>1178</ele>
        <time>2022-05-21 20:12:30</time>
      </trkpt>
      <trkpt lat="42.38444" lon="2.50198">
        <ele>1178.2</ele>
        <time>2022-05-21 20:12:31</time>
      </trkpt>
      <trkpt lat="42.38445" lon="2.50201">
        <ele>1178.2</ele>
        <time>2022-05-21 20:12:32</time>
      </trkpt>
      <trkpt lat="42.38446" lon="2.50205">
        <ele>1178.4</ele>
        <time>2022-05-21 20:12:33</time>
      </trkpt>
      <trkpt lat="42.38447" lon="2.50208">
        <ele>1178.6</ele>
        <time>2022-05-21 20:12:34</time>
      </trkpt>
      <trkpt lat="42.38448" lon="2.50211">
        <ele>1178.6</ele>
        <time>2022-05-21 20:12:35</time>
      </trkpt>
      <trkpt lat="42.38448" lon="2.50215">
        <ele>1178.8</ele>
        <time>2022-05-21 20:12:36</time>
      </trkpt>
      <trkpt lat="42.38449" lon="2.50219">
        <ele>1178.8</ele>
        <time>2022-05-21 20:12:37</time>
      </trkpt>
      <trkpt lat="42.38449" lon="2.50224">
        <ele>1179</ele>
        <time>2022-05-21 20:12:38</time>
      </trkpt>
      <trkpt lat="42.38449" lon="2.50228">
        <ele>1179</ele>
        <time>2022-05-21 20:12:39</time>
      </trkpt>
      <trkpt lat="42.38449" lon="2.50232">
        <ele>1179.2</ele>
        <time>2022-05-21 20:12:40</time>
      </trkpt>
      <trkpt lat="42.38449" lon="2.50237">
        <ele>1179.2</ele>
        <time>2022-05-21 20:12:41</time>
      </trkpt>
      <trkpt lat="42.38448" lon="2.50241">
        <ele>1179.2</ele>
        <time>2022-05-21 20:12:42</time>
      </trkpt>
      <trkpt lat="42.38447" lon="2.50244">
        <ele>1179.4</ele>
        <time>2022-05-21 20:12:43</time>
      </trkpt>
      <trkpt lat="42.38445" lon="2.50248">
        <ele>1179.4</ele>
        <time>2022-05-21 20:12:44</time>
      </trkpt>
      <trkpt lat="42.38444" lon="2.50252">
        <ele>1179.6</ele>
        <time>2022-05-21 20:12:45</time>
      </trkpt>
      <trkpt lat="42.38442" lon="2.50255">
        <ele>1179.8</ele>
        <time>2022-05-21 20:12:46</time>
      </trkpt>
      <trkpt lat="42.38439" lon="2.50257">
        <ele>1179.8</ele>
        <time>2022-05-21 20:12:47</time>
      </trkpt>
      <trkpt lat="42.38437" lon="2.5026">
        <ele>1180</ele>
        <time>2022-05-21 20:12:48</time>
      </trkpt>
      <trkpt lat="42.38435" lon="2.50262">
        <ele>1180</ele>
        <time>2022-05-21 20:12:49</time>
      </trkpt>
      <trkpt lat="42.38432" lon="2.50264">
        <ele>1180.2</ele>
        <time>2022-05-21 20:12:50</time>
      </trkpt>
      <trkpt lat="42.38429" lon="2.50266">
        <ele>1180.2</ele>
        <time>2022-05-21 20:12:51</time>
      </trkpt>
      <trkpt lat="42.38427" lon="2.50268">
        <ele>1180.4</ele>
        <time>2022-05-21 20:12:52</time>
      </trkpt>
      <trkpt lat="42.38424" lon="2.50269">
        <ele>1180.6</ele>
        <time>2022-05-21 20:12:53</time>
      </trkpt>
      <trkpt lat="42.38421" lon="2.5027">
        <ele>1180.6</ele>
        <time>2022-05-21 20:12:54</time>
      </trkpt>
      <trkpt lat="42.38418" lon="2.5027">
        <ele>1180.8</ele>
        <time>2022-05-21 20:12:55</time>
      </trkpt>
      <trkpt lat="42.38415" lon="2.5027">
        <ele>1181</ele>
        <time>2022-05-21 20:12:56</time>
      </trkpt>
      <trkpt lat="42.38412" lon="2.5027">
        <ele>1181</ele>
        <time>2022-05-21 20:12:57</time>
      </trkpt>
      <trkpt lat="42.38409" lon="2.50269">
        <ele>1181</ele>
        <time>2022-05-21 20:12:58</time>
      </trkpt>
      <trkpt lat="42.38406" lon="2.50268">
        <ele>1181</ele>
        <time>2022-05-21 20:12:59</time>
      </trkpt>
      <trkpt lat="42.38402" lon="2.50267">
        <ele>1181</ele>
        <time>2022-05-21 20:13:00</time>
      </trkpt>
      <trkpt lat="42.38399" lon="2.50265">
        <ele>1181</ele>
        <time>2022-05-21 20:13:01</time>
      </trkpt>
      <trkpt lat="42.38396" lon="2.50262">
        <ele>1181.2</ele>
        <time>2022-05-21 20:13:02</time>
      </trkpt>
      <trkpt lat="42.38393" lon="2.50259">
        <ele>1181.2</ele>
        <time>2022-05-21 20:13:03</time>
      </trkpt>
      <trkpt lat="42.38391" lon="2.50255">
        <ele>1181.2</ele>
        <time>2022-05-21 20:13:04</time>
      </trkpt>
      <trkpt lat="42.38389" lon="2.5025">
        <ele>1181.2</ele>
        <time>2022-05-21 20:13:05</time>
      </trkpt>
      <trkpt lat="42.38387" lon="2.50246">
        <ele>1181.2</ele>
        <time>2022-05-21 20:13:06</time>
      </trkpt>
      <trkpt lat="42.38386" lon="2.50241">
        <ele>1181.2</ele>
        <time>2022-05-21 20:13:07</time>
      </trkpt>
      <trkpt lat="42.38384" lon="2.50236">
        <ele>1181.2</ele>
        <time>2022-05-21 20:13:08</time>
      </trkpt>
      <trkpt lat="42.38384" lon="2.5023">
        <ele>1181.4</ele>
        <time>2022-05-21 20:13:09</time>
      </trkpt>
      <trkpt lat="42.38383" lon="2.50225">
        <ele>1181.4</ele>
        <time>2022-05-21 20:13:10</time>
      </trkpt>
      <trkpt lat="42.38383" lon="2.5022">
        <ele>1181.4</ele>
        <time>2022-05-21 20:13:11</time>
      </trkpt>
      <trkpt lat="42.38384" lon="2.50215">
        <ele>1181.6</ele>
        <time>2022-05-21 20:13:12</time>
      </trkpt>
      <trkpt lat="42.38384" lon="2.5021">
        <ele>1181.8</ele>
        <time>2022-05-21 20:13:13</time>
      </trkpt>
      <trkpt lat="42.38386" lon="2.50205">
        <ele>1181.8</ele>
        <time>2022-05-21 20:13:14</time>
      </trkpt>
      <trkpt lat="42.38387" lon="2.502">
        <ele>1182</ele>
        <time>2022-05-21 20:13:15</time>
      </trkpt>
      <trkpt lat="42.38388" lon="2.50195">
        <ele>1182.2</ele>
        <time>2022-05-21 20:13:16</time>
      </trkpt>
      <trkpt lat="42.3839" lon="2.5019">
        <ele>1182.4</ele>
        <time>2022-05-21 20:13:17</time>
      </trkpt>
      <trkpt lat="42.38391" lon="2.50186">
        <ele>1182.6</ele>
        <time>2022-05-21 20:13:18</time>
      </trkpt>
      <trkpt lat="42.38392" lon="2.50182">
        <ele>1182.8</ele>
        <time>2022-05-21 20:13:19</time>
      </trkpt>
      <trkpt lat="42.38393" lon="2.50178">
        <ele>1183</ele>
        <time>2022-05-21 20:13:20</time>
      </trkpt>
      <trkpt lat="42.38394" lon="2.50174">
        <ele>1183.2</ele>
        <time>2022-05-21 20:13:21</time>
      </trkpt>
      <trkpt lat="42.38394" lon="2.5017">
        <ele>1183.4</ele>
        <time>2022-05-21 20:13:22</time>
      </trkpt>
      <trkpt lat="42.38395" lon="2.50167">
        <ele>1183.6</ele>
        <time>2022-05-21 20:13:23</time>
      </trkpt>
      <trkpt lat="42.38395" lon="2.50163">
        <ele>1183.8</ele>
        <time>2022-05-21 20:13:24</time>
      </trkpt>
      <trkpt lat="42.38395" lon="2.50159">
        <ele>1184</ele>
        <time>2022-05-21 20:13:25</time>
      </trkpt>
      <trkpt lat="42.38395" lon="2.50155">
        <ele>1184</ele>
        <time>2022-05-21 20:13:26</time>
      </trkpt>
      <trkpt lat="42.38396" lon="2.50151">
        <ele>1184.2</ele>
        <time>2022-05-21 20:13:27</time>
      </trkpt>
      <trkpt lat="42.38396" lon="2.50147">
        <ele>1184.4</ele>
        <time>2022-05-21 20:13:28</time>
      </trkpt>
      <trkpt lat="42.38396" lon="2.50143">
        <ele>1184.4</ele>
        <time>2022-05-21 20:13:29</time>
      </trkpt>
      <trkpt lat="42.38395" lon="2.50139">
        <ele>1184.6</ele>
        <time>2022-05-21 20:13:30</time>
      </trkpt>
      <trkpt lat="42.38395" lon="2.50135">
        <ele>1184.6</ele>
        <time>2022-05-21 20:13:31</time>
      </trkpt>
      <trkpt lat="42.38394" lon="2.5013">
        <ele>1184.8</ele>
        <time>2022-05-21 20:13:32</time>
      </trkpt>
      <trkpt lat="42.38393" lon="2.50126">
        <ele>1184.8</ele>
        <time>2022-05-21 20:13:33</time>
      </trkpt>
      <trkpt lat="42.38392" lon="2.50122">
        <ele>1184.8</ele>
        <time>2022-05-21 20:13:34</time>
      </trkpt>
      <trkpt lat="42.38391" lon="2.50118">
        <ele>1185</ele>
        <time>2022-05-21 20:13:35</time>
      </trkpt>
      <trkpt lat="42.3839" lon="2.50113">
        <ele>1185</ele>
        <time>2022-05-21 20:13:36</time>
      </trkpt>
      <trkpt lat="42.38388" lon="2.50109">
        <ele>1185.2</ele>
        <time>2022-05-21 20:13:37</time>
      </trkpt>
      <trkpt lat="42.38387" lon="2.50104">
        <ele>1185.2</ele>
        <time>2022-05-21 20:13:38</time>
      </trkpt>
      <trkpt lat="42.38385" lon="2.501">
        <ele>1185.2</ele>
        <time>2022-05-21 20:13:39</time>
      </trkpt>
      <trkpt lat="42.38384" lon="2.50096">
        <ele>1185.2</ele>
        <time>2022-05-21 20:13:40</time>
      </trkpt>
      <trkpt lat="42.38382" lon="2.50092">
        <ele>1185.2</ele>
        <time>2022-05-21 20:13:41</time>
      </trkpt>
      <trkpt lat="42.3838" lon="2.50087">
        <ele>1185.2</ele>
        <time>2022-05-21 20:13:42</time>
      </trkpt>
      <trkpt lat="42.38378" lon="2.50082">
        <ele>1185.2</ele>
        <time>2022-05-21 20:13:43</time>
      </trkpt>
      <trkpt lat="42.38376" lon="2.50077">
        <ele>1185.4</ele>
        <time>2022-05-21 20:13:44</time>
      </trkpt>
      <trkpt lat="42.38374" lon="2.50072">
        <ele>1185.4</ele>
        <time>2022-05-21 20:13:45</time>
      </trkpt>
      <trkpt lat="42.38373" lon="2.50066">
        <ele>1185.4</ele>
        <time>2022-05-21 20:13:46</time>
      </trkpt>
      <trkpt lat="42.38371" lon="2.50061">
        <ele>1185.4</ele>
        <time>2022-05-21 20:13:47</time>
      </trkpt>
      <trkpt lat="42.38369" lon="2.50056">
        <ele>1185.6</ele>
        <time>2022-05-21 20:13:48</time>
      </trkpt>
      <trkpt lat="42.38367" lon="2.50051">
        <ele>1185.6</ele>
        <time>2022-05-21 20:13:49</time>
      </trkpt>
      <trkpt lat="42.38365" lon="2.50045">
        <ele>1185.6</ele>
        <time>2022-05-21 20:13:50</time>
      </trkpt>
      <trkpt lat="42.38362" lon="2.50039">
        <ele>1185.6</ele>
        <time>2022-05-21 20:13:51</time>
      </trkpt>
      <trkpt lat="42.3836" lon="2.50034">
        <ele>1185.6</ele>
        <time>2022-05-21 20:13:52</time>
      </trkpt>
      <trkpt lat="42.38358" lon="2.50029">
        <ele>1185.6</ele>
        <time>2022-05-21 20:13:53</time>
      </trkpt>
      <trkpt lat="42.38356" lon="2.50024">
        <ele>1185.6</ele>
        <time>2022-05-21 20:13:54</time>
      </trkpt>
      <trkpt lat="42.38354" lon="2.5002">
        <ele>1185.6</ele>
        <time>2022-05-21 20:13:55</time>
      </trkpt>
      <trkpt lat="42.38352" lon="2.50016">
        <ele>1185.6</ele>
        <time>2022-05-21 20:13:56</time>
      </trkpt>
      <trkpt lat="42.38351" lon="2.50012">
        <ele>1185.8</ele>
        <time>2022-05-21 20:13:57</time>
      </trkpt>
      <trkpt lat="42.38349" lon="2.50007">
        <ele>1185.8</ele>
        <time>2022-05-21 20:13:58</time>
      </trkpt>
      <trkpt lat="42.38348" lon="2.50003">
        <ele>1186</ele>
        <time>2022-05-21 20:13:59</time>
      </trkpt>
      <trkpt lat="42.38346" lon="2.49998">
        <ele>1186</ele>
        <time>2022-05-21 20:14:00</time>
      </trkpt>
      <trkpt lat="42.38344" lon="2.49994">
        <ele>1186</ele>
        <time>2022-05-21 20:14:01</time>
      </trkpt>
      <trkpt lat="42.38342" lon="2.4999">
        <ele>1186</ele>
        <time>2022-05-21 20:14:02</time>
      </trkpt>
      <trkpt lat="42.38339" lon="2.49986">
        <ele>1186.2</ele>
        <time>2022-05-21 20:14:03</time>
      </trkpt>
      <trkpt lat="42.38337" lon="2.49982">
        <ele>1186.2</ele>
        <time>2022-05-21 20:14:04</time>
      </trkpt>
      <trkpt lat="42.38334" lon="2.49978">
        <ele>1186.2</ele>
        <time>2022-05-21 20:14:05</time>
      </trkpt>
      <trkpt lat="42.38332" lon="2.49974">
        <ele>1186.2</ele>
        <time>2022-05-21 20:14:06</time>
      </trkpt>
      <trkpt lat="42.38329" lon="2.4997">
        <ele>1186.2</ele>
        <time>2022-05-21 20:14:07</time>
      </trkpt>
      <trkpt lat="42.38326" lon="2.49967">
        <ele>1186.2</ele>
        <time>2022-05-21 20:14:08</time>
      </trkpt>
      <trkpt lat="42.38323" lon="2.49964">
        <ele>1186.2</ele>
        <time>2022-05-21 20:14:09</time>
      </trkpt>
      <trkpt lat="42.3832" lon="2.4996">
        <ele>1186.2</ele>
        <time>2022-05-21 20:14:10</time>
      </trkpt>
      <trkpt lat="42.38317" lon="2.49957">
        <ele>1186.2</ele>
        <time>2022-05-21 20:14:11</time>
      </trkpt>
      <trkpt lat="42.38314" lon="2.49954">
        <ele>1186</ele>
        <time>2022-05-21 20:14:12</time>
      </trkpt>
      <trkpt lat="42.3831" lon="2.49951">
        <ele>1186</ele>
        <time>2022-05-21 20:14:13</time>
      </trkpt>
      <trkpt lat="42.38306" lon="2.49948">
        <ele>1186</ele>
        <time>2022-05-21 20:14:14</time>
      </trkpt>
      <trkpt lat="42.38302" lon="2.49945">
        <ele>1186</ele>
        <time>2022-05-21 20:14:15</time>
      </trkpt>
      <trkpt lat="42.38298" lon="2.49942">
        <ele>1186</ele>
        <time>2022-05-21 20:14:16</time>
      </trkpt>
      <trkpt lat="42.38294" lon="2.49939">
        <ele>1186</ele>
        <time>2022-05-21 20:14:17</time>
      </trkpt>
      <trkpt lat="42.3829" lon="2.49936">
        <ele>1185.8</ele>
        <time>2022-05-21 20:14:18</time>
      </trkpt>
      <trkpt lat="42.38287" lon="2.49933">
        <ele>1185.8</ele>
        <time>2022-05-21 20:14:19</time>
      </trkpt>
      <trkpt lat="42.38283" lon="2.4993">
        <ele>1185.8</ele>
        <time>2022-05-21 20:14:20</time>
      </trkpt>
      <trkpt lat="42.38279" lon="2.49927">
        <ele>1186</ele>
        <time>2022-05-21 20:14:21</time>
      </trkpt>
      <trkpt lat="42.38276" lon="2.49924">
        <ele>1186</ele>
        <time>2022-05-21 20:14:22</time>
      </trkpt>
      <trkpt lat="42.38272" lon="2.49922">
        <ele>1186</ele>
        <time>2022-05-21 20:14:23</time>
      </trkpt>
      <trkpt lat="42.38269" lon="2.49919">
        <ele>1186</ele>
        <time>2022-05-21 20:14:24</time>
      </trkpt>
      <trkpt lat="42.38266" lon="2.49917">
        <ele>1186</ele>
        <time>2022-05-21 20:14:25</time>
      </trkpt>
      <trkpt lat="42.38263" lon="2.49914">
        <ele>1186</ele>
        <time>2022-05-21 20:14:26</time>
      </trkpt>
      <trkpt lat="42.3826" lon="2.49911">
        <ele>1186</ele>
        <time>2022-05-21 20:14:27</time>
      </trkpt>
      <trkpt lat="42.38256" lon="2.49909">
        <ele>1186</ele>
        <time>2022-05-21 20:14:28</time>
      </trkpt>
      <trkpt lat="42.38253" lon="2.49906">
        <ele>1186</ele>
        <time>2022-05-21 20:14:29</time>
      </trkpt>
      <trkpt lat="42.3825" lon="2.49904">
        <ele>1186</ele>
        <time>2022-05-21 20:14:30</time>
      </trkpt>
      <trkpt lat="42.38246" lon="2.49902">
        <ele>1186.2</ele>
        <time>2022-05-21 20:14:31</time>
      </trkpt>
      <trkpt lat="42.38243" lon="2.49899">
        <ele>1186.2</ele>
        <time>2022-05-21 20:14:32</time>
      </trkpt>
      <trkpt lat="42.3824" lon="2.49896">
        <ele>1186.2</ele>
        <time>2022-05-21 20:14:33</time>
      </trkpt>
      <trkpt lat="42.38236" lon="2.49894">
        <ele>1186.2</ele>
        <time>2022-05-21 20:14:34</time>
      </trkpt>
      <trkpt lat="42.38233" lon="2.49891">
        <ele>1186.2</ele>
        <time>2022-05-21 20:14:35</time>
      </trkpt>
      <trkpt lat="42.3823" lon="2.49888">
        <ele>1186.2</ele>
        <time>2022-05-21 20:14:36</time>
      </trkpt>
      <trkpt lat="42.38226" lon="2.49886">
        <ele>1186.2</ele>
        <time>2022-05-21 20:14:37</time>
      </trkpt>
      <trkpt lat="42.38223" lon="2.49883">
        <ele>1186.2</ele>
        <time>2022-05-21 20:14:38</time>
      </trkpt>
      <trkpt lat="42.3822" lon="2.49881">
        <ele>1186.2</ele>
        <time>2022-05-21 20:14:39</time>
      </trkpt>
      <trkpt lat="42.38217" lon="2.49879">
        <ele>1186.2</ele>
        <time>2022-05-21 20:14:40</time>
      </trkpt>
      <trkpt lat="42.38215" lon="2.49877">
        <ele>1186.2</ele>
        <time>2022-05-21 20:14:41</time>
      </trkpt>
      <trkpt lat="42.38211" lon="2.49874">
        <ele>1186.2</ele>
        <time>2022-05-21 20:14:42</time>
      </trkpt>
      <trkpt lat="42.38208" lon="2.49871">
        <ele>1186.2</ele>
        <time>2022-05-21 20:14:43</time>
      </trkpt>
      <trkpt lat="42.38204" lon="2.49868">
        <ele>1186.4</ele>
        <time>2022-05-21 20:14:44</time>
      </trkpt>
      <trkpt lat="42.38201" lon="2.49866">
        <ele>1186.4</ele>
        <time>2022-05-21 20:14:45</time>
      </trkpt>
      <trkpt lat="42.38198" lon="2.49863">
        <ele>1186.4</ele>
        <time>2022-05-21 20:14:46</time>
      </trkpt>
      <trkpt lat="42.38195" lon="2.49861">
        <ele>1186.4</ele>
        <time>2022-05-21 20:14:47</time>
      </trkpt>
      <trkpt lat="42.38191" lon="2.49858">
        <ele>1186.4</ele>
        <time>2022-05-21 20:14:48</time>
      </trkpt>
      <trkpt lat="42.38187" lon="2.49855">
        <ele>1186.6</ele>
        <time>2022-05-21 20:14:49</time>
      </trkpt>
      <trkpt lat="42.38184" lon="2.49852">
        <ele>1186.6</ele>
        <time>2022-05-21 20:14:50</time>
      </trkpt>
      <trkpt lat="42.3818" lon="2.49849">
        <ele>1186.6</ele>
        <time>2022-05-21 20:14:51</time>
      </trkpt>
      <trkpt lat="42.38176" lon="2.49845">
        <ele>1186.8</ele>
        <time>2022-05-21 20:14:52</time>
      </trkpt>
      <trkpt lat="42.38172" lon="2.49841">
        <ele>1186.8</ele>
        <time>2022-05-21 20:14:53</time>
      </trkpt>
      <trkpt lat="42.38168" lon="2.49837">
        <ele>1186.8</ele>
        <time>2022-05-21 20:14:54</time>
      </trkpt>
      <trkpt lat="42.38164" lon="2.49833">
        <ele>1186.8</ele>
        <time>2022-05-21 20:14:55</time>
      </trkpt>
      <trkpt lat="42.38161" lon="2.49829">
        <ele>1186.8</ele>
        <time>2022-05-21 20:14:56</time>
      </trkpt>
      <trkpt lat="42.38158" lon="2.49825">
        <ele>1186.8</ele>
        <time>2022-05-21 20:14:57</time>
      </trkpt>
      <trkpt lat="42.38155" lon="2.49821">
        <ele>1187</ele>
        <time>2022-05-21 20:14:58</time>
      </trkpt>
      <trkpt lat="42.38151" lon="2.49817">
        <ele>1187</ele>
        <time>2022-05-21 20:14:59</time>
      </trkpt>
      <trkpt lat="42.38148" lon="2.49813">
        <ele>1187</ele>
        <time>2022-05-21 20:15:00</time>
      </trkpt>
      <trkpt lat="42.38144" lon="2.49809">
        <ele>1187</ele>
        <time>2022-05-21 20:15:01</time>
      </trkpt>
      <trkpt lat="42.3814" lon="2.49805">
        <ele>1187</ele>
        <time>2022-05-21 20:15:02</time>
      </trkpt>
      <trkpt lat="42.38137" lon="2.49801">
        <ele>1187</ele>
        <time>2022-05-21 20:15:03</time>
      </trkpt>
      <trkpt lat="42.38133" lon="2.49797">
        <ele>1187.2</ele>
        <time>2022-05-21 20:15:04</time>
      </trkpt>
      <trkpt lat="42.38129" lon="2.49793">
        <ele>1187.2</ele>
        <time>2022-05-21 20:15:05</time>
      </trkpt>
      <trkpt lat="42.38126" lon="2.49789">
        <ele>1187.2</ele>
        <time>2022-05-21 20:15:06</time>
      </trkpt>
      <trkpt lat="42.38122" lon="2.49785">
        <ele>1187.4</ele>
        <time>2022-05-21 20:15:07</time>
      </trkpt>
      <trkpt lat="42.38119" lon="2.49782">
        <ele>1187.4</ele>
        <time>2022-05-21 20:15:08</time>
      </trkpt>
      <trkpt lat="42.38116" lon="2.49778">
        <ele>1187.4</ele>
        <time>2022-05-21 20:15:09</time>
      </trkpt>
      <trkpt lat="42.38113" lon="2.49775">
        <ele>1187.6</ele>
        <time>2022-05-21 20:15:10</time>
      </trkpt>
      <trkpt lat="42.38109" lon="2.49771">
        <ele>1187.6</ele>
        <time>2022-05-21 20:15:11</time>
      </trkpt>
      <trkpt lat="42.38106" lon="2.49767">
        <ele>1187.6</ele>
        <time>2022-05-21 20:15:12</time>
      </trkpt>
      <trkpt lat="42.38102" lon="2.49763">
        <ele>1187.8</ele>
        <time>2022-05-21 20:15:13</time>
      </trkpt>
      <trkpt lat="42.38099" lon="2.49759">
        <ele>1187.8</ele>
        <time>2022-05-21 20:15:14</time>
      </trkpt>
      <trkpt lat="42.38096" lon="2.49755">
        <ele>1187.8</ele>
        <time>2022-05-21 20:15:15</time>
      </trkpt>
      <trkpt lat="42.38092" lon="2.49751">
        <ele>1188</ele>
        <time>2022-05-21 20:15:16</time>
      </trkpt>
      <trkpt lat="42.38089" lon="2.49747">
        <ele>1188</ele>
        <time>2022-05-21 20:15:17</time>
      </trkpt>
      <trkpt lat="42.38085" lon="2.49743">
        <ele>1188</ele>
        <time>2022-05-21 20:15:18</time>
      </trkpt>
      <trkpt lat="42.38082" lon="2.49738">
        <ele>1188.2</ele>
        <time>2022-05-21 20:15:19</time>
      </trkpt>
      <trkpt lat="42.38078" lon="2.49734">
        <ele>1188.2</ele>
        <time>2022-05-21 20:15:20</time>
      </trkpt>
      <trkpt lat="42.38075" lon="2.4973">
        <ele>1188.2</ele>
        <time>2022-05-21 20:15:21</time>
      </trkpt>
      <trkpt lat="42.38071" lon="2.49726">
        <ele>1188.4</ele>
        <time>2022-05-21 20:15:22</time>
      </trkpt>
      <trkpt lat="42.38068" lon="2.49722">
        <ele>1188.4</ele>
        <time>2022-05-21 20:15:23</time>
      </trkpt>
      <trkpt lat="42.38065" lon="2.49718">
        <ele>1188.4</ele>
        <time>2022-05-21 20:15:24</time>
      </trkpt>
      <trkpt lat="42.38061" lon="2.49715">
        <ele>1188.6</ele>
        <time>2022-05-21 20:15:25</time>
      </trkpt>
      <trkpt lat="42.38058" lon="2.49711">
        <ele>1188.6</ele>
        <time>2022-05-21 20:15:26</time>
      </trkpt>
      <trkpt lat="42.38054" lon="2.49708">
        <ele>1188.6</ele>
        <time>2022-05-21 20:15:27</time>
      </trkpt>
      <trkpt lat="42.38051" lon="2.49704">
        <ele>1188.6</ele>
        <time>2022-05-21 20:15:28</time>
      </trkpt>
      <trkpt lat="42.38048" lon="2.49701">
        <ele>1188.6</ele>
        <time>2022-05-21 20:15:29</time>
      </trkpt>
      <trkpt lat="42.38044" lon="2.49698">
        <ele>1188.8</ele>
        <time>2022-05-21 20:15:30</time>
      </trkpt>
      <trkpt lat="42.38041" lon="2.49694">
        <ele>1188.8</ele>
        <time>2022-05-21 20:15:31</time>
      </trkpt>
      <trkpt lat="42.38038" lon="2.49691">
        <ele>1188.8</ele>
        <time>2022-05-21 20:15:32</time>
      </trkpt>
      <trkpt lat="42.38035" lon="2.49687">
        <ele>1188.8</ele>
        <time>2022-05-21 20:15:33</time>
      </trkpt>
      <trkpt lat="42.38031" lon="2.49683">
        <ele>1188.8</ele>
        <time>2022-05-21 20:15:34</time>
      </trkpt>
      <trkpt lat="42.38028" lon="2.49679">
        <ele>1188.8</ele>
        <time>2022-05-21 20:15:35</time>
      </trkpt>
      <trkpt lat="42.38025" lon="2.49675">
        <ele>1188.8</ele>
        <time>2022-05-21 20:15:36</time>
      </trkpt>
      <trkpt lat="42.38022" lon="2.4967">
        <ele>1189</ele>
        <time>2022-05-21 20:15:37</time>
      </trkpt>
      <trkpt lat="42.38019" lon="2.49666">
        <ele>1189</ele>
        <time>2022-05-21 20:15:38</time>
      </trkpt>
      <trkpt lat="42.38016" lon="2.49662">
        <ele>1189</ele>
        <time>2022-05-21 20:15:39</time>
      </trkpt>
      <trkpt lat="42.38014" lon="2.49658">
        <ele>1189.2</ele>
        <time>2022-05-21 20:15:40</time>
      </trkpt>
      <trkpt lat="42.38012" lon="2.49654">
        <ele>1189.4</ele>
        <time>2022-05-21 20:15:41</time>
      </trkpt>
      <trkpt lat="42.3801" lon="2.49649">
        <ele>1189.6</ele>
        <time>2022-05-21 20:15:42</time>
      </trkpt>
      <trkpt lat="42.38008" lon="2.49645">
        <ele>1189.6</ele>
        <time>2022-05-21 20:15:43</time>
      </trkpt>
      <trkpt lat="42.38007" lon="2.4964">
        <ele>1189.8</ele>
        <time>2022-05-21 20:15:44</time>
      </trkpt>
      <trkpt lat="42.38006" lon="2.49636">
        <ele>1190</ele>
        <time>2022-05-21 20:15:45</time>
      </trkpt>
      <trkpt lat="42.38004" lon="2.49631">
        <ele>1190.2</ele>
        <time>2022-05-21 20:15:46</time>
      </trkpt>
      <trkpt lat="42.38003" lon="2.49627">
        <ele>1190.2</ele>
        <time>2022-05-21 20:15:47</time>
      </trkpt>
      <trkpt lat="42.38001" lon="2.49623">
        <ele>1190.4</ele>
        <time>2022-05-21 20:15:48</time>
      </trkpt>
      <trkpt lat="42.37999" lon="2.49619">
        <ele>1190.6</ele>
        <time>2022-05-21 20:15:49</time>
      </trkpt>
      <trkpt lat="42.37998" lon="2.49615">
        <ele>1190.8</ele>
        <time>2022-05-21 20:15:50</time>
      </trkpt>
      <trkpt lat="42.37997" lon="2.49611">
        <ele>1191</ele>
        <time>2022-05-21 20:15:51</time>
      </trkpt>
      <trkpt lat="42.37996" lon="2.49608">
        <ele>1191.2</ele>
        <time>2022-05-21 20:15:52</time>
      </trkpt>
      <trkpt lat="42.37995" lon="2.49607">
        <ele>1191.2</ele>
        <time>2022-05-21 20:15:53</time>
      </trkpt>
      <trkpt lat="42.37993" lon="2.49601">
        <ele>1191.4</ele>
        <time>2022-05-21 20:15:54</time>
      </trkpt>
      <trkpt lat="42.37992" lon="2.49598">
        <ele>1191.6</ele>
        <time>2022-05-21 20:15:55</time>
      </trkpt>
      <trkpt lat="42.37991" lon="2.49594">
        <ele>1191.8</ele>
        <time>2022-05-21 20:15:56</time>
      </trkpt>
      <trkpt lat="42.3799" lon="2.49591">
        <ele>1192</ele>
        <time>2022-05-21 20:15:57</time>
      </trkpt>
      <trkpt lat="42.37989" lon="2.49587">
        <ele>1192.4</ele>
        <time>2022-05-21 20:15:58</time>
      </trkpt>
      <trkpt lat="42.37988" lon="2.49584">
        <ele>1192.6</ele>
        <time>2022-05-21 20:15:59</time>
      </trkpt>
      <trkpt lat="42.37987" lon="2.49581">
        <ele>1192.8</ele>
        <time>2022-05-21 20:16:00</time>
      </trkpt>
      <trkpt lat="42.37985" lon="2.49577">
        <ele>1193</ele>
        <time>2022-05-21 20:16:01</time>
      </trkpt>
      <trkpt lat="42.37984" lon="2.49574">
        <ele>1193.2</ele>
        <time>2022-05-21 20:16:02</time>
      </trkpt>
      <trkpt lat="42.37984" lon="2.49571">
        <ele>1193.4</ele>
        <time>2022-05-21 20:16:03</time>
      </trkpt>
      <trkpt lat="42.37983" lon="2.49568">
        <ele>1193.6</ele>
        <time>2022-05-21 20:16:04</time>
      </trkpt>
      <trkpt lat="42.37982" lon="2.49565">
        <ele>1193.8</ele>
        <time>2022-05-21 20:16:05</time>
      </trkpt>
      <trkpt lat="42.37981" lon="2.49561">
        <ele>1194</ele>
        <time>2022-05-21 20:16:06</time>
      </trkpt>
      <trkpt lat="42.3798" lon="2.49558">
        <ele>1194.2</ele>
        <time>2022-05-21 20:16:07</time>
      </trkpt>
      <trkpt lat="42.37979" lon="2.49555">
        <ele>1194.4</ele>
        <time>2022-05-21 20:16:08</time>
      </trkpt>
      <trkpt lat="42.37979" lon="2.49552">
        <ele>1194.6</ele>
        <time>2022-05-21 20:16:09</time>
      </trkpt>
      <trkpt lat="42.37978" lon="2.49549">
        <ele>1194.8</ele>
        <time>2022-05-21 20:16:10</time>
      </trkpt>
      <trkpt lat="42.37977" lon="2.49546">
        <ele>1195</ele>
        <time>2022-05-21 20:16:11</time>
      </trkpt>
      <trkpt lat="42.37976" lon="2.49543">
        <ele>1195.2</ele>
        <time>2022-05-21 20:16:12</time>
      </trkpt>
      <trkpt lat="42.37975" lon="2.4954">
        <ele>1195.6</ele>
        <time>2022-05-21 20:16:13</time>
      </trkpt>
      <trkpt lat="42.37974" lon="2.49537">
        <ele>1195.8</ele>
        <time>2022-05-21 20:16:14</time>
      </trkpt>
      <trkpt lat="42.37973" lon="2.49534">
        <ele>1196</ele>
        <time>2022-05-21 20:16:15</time>
      </trkpt>
      <trkpt lat="42.37972" lon="2.49531">
        <ele>1196.4</ele>
        <time>2022-05-21 20:16:16</time>
      </trkpt>
      <trkpt lat="42.37972" lon="2.49529">
        <ele>1196.6</ele>
        <time>2022-05-21 20:16:17</time>
      </trkpt>
      <trkpt lat="42.37971" lon="2.49527">
        <ele>1196.8</ele>
        <time>2022-05-21 20:16:18</time>
      </trkpt>
      <trkpt lat="42.3797" lon="2.49524">
        <ele>1197</ele>
        <time>2022-05-21 20:16:19</time>
      </trkpt>
      <trkpt lat="42.37969" lon="2.49522">
        <ele>1197.2</ele>
        <time>2022-05-21 20:16:20</time>
      </trkpt>
      <trkpt lat="42.37968" lon="2.49519">
        <ele>1197.4</ele>
        <time>2022-05-21 20:16:21</time>
      </trkpt>
      <trkpt lat="42.37967" lon="2.49516">
        <ele>1197.4</ele>
        <time>2022-05-21 20:16:22</time>
      </trkpt>
      <trkpt lat="42.37967" lon="2.49514">
        <ele>1197.6</ele>
        <time>2022-05-21 20:16:23</time>
      </trkpt>
      <trkpt lat="42.37966" lon="2.49511">
        <ele>1197.8</ele>
        <time>2022-05-21 20:16:24</time>
      </trkpt>
      <trkpt lat="42.37965" lon="2.49509">
        <ele>1198</ele>
        <time>2022-05-21 20:16:25</time>
      </trkpt>
      <trkpt lat="42.37964" lon="2.49506">
        <ele>1198.2</ele>
        <time>2022-05-21 20:16:26</time>
      </trkpt>
      <trkpt lat="42.37964" lon="2.49504">
        <ele>1198.2</ele>
        <time>2022-05-21 20:16:27</time>
      </trkpt>
      <trkpt lat="42.37963" lon="2.49502">
        <ele>1198.4</ele>
        <time>2022-05-21 20:16:28</time>
      </trkpt>
      <trkpt lat="42.37962" lon="2.495">
        <ele>1198.6</ele>
        <time>2022-05-21 20:16:29</time>
      </trkpt>
      <trkpt lat="42.37962" lon="2.49498">
        <ele>1198.8</ele>
        <time>2022-05-21 20:16:30</time>
      </trkpt>
      <trkpt lat="42.37961" lon="2.49495">
        <ele>1199</ele>
        <time>2022-05-21 20:16:31</time>
      </trkpt>
      <trkpt lat="42.3796" lon="2.49493">
        <ele>1199.2</ele>
        <time>2022-05-21 20:16:32</time>
      </trkpt>
      <trkpt lat="42.3796" lon="2.49491">
        <ele>1199.4</ele>
        <time>2022-05-21 20:16:33</time>
      </trkpt>
      <trkpt lat="42.37959" lon="2.49489">
        <ele>1199.4</ele>
        <time>2022-05-21 20:16:34</time>
      </trkpt>
      <trkpt lat="42.37959" lon="2.49487">
        <ele>1199.6</ele>
        <time>2022-05-21 20:16:35</time>
      </trkpt>
      <trkpt lat="42.37958" lon="2.49485">
        <ele>1199.8</ele>
        <time>2022-05-21 20:16:36</time>
      </trkpt>
      <trkpt lat="42.37957" lon="2.49482">
        <ele>1200</ele>
        <time>2022-05-21 20:16:37</time>
      </trkpt>
      <trkpt lat="42.37956" lon="2.4948">
        <ele>1200.2</ele>
        <time>2022-05-21 20:16:38</time>
      </trkpt>
      <trkpt lat="42.37956" lon="2.49478">
        <ele>1200.4</ele>
        <time>2022-05-21 20:16:39</time>
      </trkpt>
      <trkpt lat="42.37955" lon="2.49476">
        <ele>1200.4</ele>
        <time>2022-05-21 20:16:40</time>
      </trkpt>
      <trkpt lat="42.37955" lon="2.49474">
        <ele>1200.8</ele>
        <time>2022-05-21 20:16:41</time>
      </trkpt>
      <trkpt lat="42.37954" lon="2.49471">
        <ele>1200.8</ele>
        <time>2022-05-21 20:16:42</time>
      </trkpt>
      <trkpt lat="42.37953" lon="2.49469">
        <ele>1201</ele>
        <time>2022-05-21 20:16:43</time>
      </trkpt>
      <trkpt lat="42.37952" lon="2.49467">
        <ele>1201.2</ele>
        <time>2022-05-21 20:16:44</time>
      </trkpt>
      <trkpt lat="42.37951" lon="2.49465">
        <ele>1201.4</ele>
        <time>2022-05-21 20:16:45</time>
      </trkpt>
      <trkpt lat="42.37951" lon="2.49463">
        <ele>1201.6</ele>
        <time>2022-05-21 20:16:46</time>
      </trkpt>
      <trkpt lat="42.3795" lon="2.49461">
        <ele>1201.8</ele>
        <time>2022-05-21 20:16:47</time>
      </trkpt>
      <trkpt lat="42.37949" lon="2.49459">
        <ele>1202</ele>
        <time>2022-05-21 20:16:48</time>
      </trkpt>
      <trkpt lat="42.37949" lon="2.49458">
        <ele>1202.2</ele>
        <time>2022-05-21 20:16:49</time>
      </trkpt>
      <trkpt lat="42.37948" lon="2.49455">
        <ele>1202.4</ele>
        <time>2022-05-21 20:16:50</time>
      </trkpt>
      <trkpt lat="42.37947" lon="2.49453">
        <ele>1202.6</ele>
        <time>2022-05-21 20:16:51</time>
      </trkpt>
      <trkpt lat="42.37947" lon="2.49451">
        <ele>1202.6</ele>
        <time>2022-05-21 20:16:52</time>
      </trkpt>
      <trkpt lat="42.37946" lon="2.49449">
        <ele>1202.8</ele>
        <time>2022-05-21 20:16:53</time>
      </trkpt>
      <trkpt lat="42.37945" lon="2.49447">
        <ele>1203</ele>
        <time>2022-05-21 20:16:54</time>
      </trkpt>
      <trkpt lat="42.37945" lon="2.49445">
        <ele>1203.2</ele>
        <time>2022-05-21 20:16:55</time>
      </trkpt>
      <trkpt lat="42.37944" lon="2.49442">
        <ele>1203.4</ele>
        <time>2022-05-21 20:16:56</time>
      </trkpt>
      <trkpt lat="42.37943" lon="2.4944">
        <ele>1203.4</ele>
        <time>2022-05-21 20:16:57</time>
      </trkpt>
      <trkpt lat="42.37943" lon="2.49439">
        <ele>1203.6</ele>
        <time>2022-05-21 20:16:58</time>
      </trkpt>
      <trkpt lat="42.37942" lon="2.49437">
        <ele>1203.8</ele>
        <time>2022-05-21 20:16:59</time>
      </trkpt>
      <trkpt lat="42.37942" lon="2.49434">
        <ele>1204</ele>
        <time>2022-05-21 20:17:00</time>
      </trkpt>
      <trkpt lat="42.37942" lon="2.49432">
        <ele>1204</ele>
        <time>2022-05-21 20:17:01</time>
      </trkpt>
      <trkpt lat="42.37941" lon="2.4943">
        <ele>1204.2</ele>
        <time>2022-05-21 20:17:02</time>
      </trkpt>
      <trkpt lat="42.37941" lon="2.49427">
        <ele>1204.4</ele>
        <time>2022-05-21 20:17:03</time>
      </trkpt>
      <trkpt lat="42.37941" lon="2.49425">
        <ele>1204.4</ele>
        <time>2022-05-21 20:17:04</time>
      </trkpt>
      <trkpt lat="42.3794" lon="2.49422">
        <ele>1204.6</ele>
        <time>2022-05-21 20:17:05</time>
      </trkpt>
      <trkpt lat="42.3794" lon="2.49419">
        <ele>1204.8</ele>
        <time>2022-05-21 20:17:06</time>
      </trkpt>
      <trkpt lat="42.3794" lon="2.49417">
        <ele>1205</ele>
        <time>2022-05-21 20:17:07</time>
      </trkpt>
      <trkpt lat="42.3794" lon="2.49415">
        <ele>1205.2</ele>
        <time>2022-05-21 20:17:08</time>
      </trkpt>
      <trkpt lat="42.37939" lon="2.49412">
        <ele>1205.4</ele>
        <time>2022-05-21 20:17:09</time>
      </trkpt>
      <trkpt lat="42.37939" lon="2.4941">
        <ele>1205.4</ele>
        <time>2022-05-21 20:17:10</time>
      </trkpt>
      <trkpt lat="42.37939" lon="2.49408">
        <ele>1205.6</ele>
        <time>2022-05-21 20:17:11</time>
      </trkpt>
      <trkpt lat="42.37939" lon="2.49406">
        <ele>1205.8</ele>
        <time>2022-05-21 20:17:12</time>
      </trkpt>
      <trkpt lat="42.3794" lon="2.49404">
        <ele>1205.8</ele>
        <time>2022-05-21 20:17:13</time>
      </trkpt>
      <trkpt lat="42.3794" lon="2.49402">
        <ele>1206</ele>
        <time>2022-05-21 20:17:14</time>
      </trkpt>
      <trkpt lat="42.37941" lon="2.49399">
        <ele>1206.2</ele>
        <time>2022-05-21 20:17:15</time>
      </trkpt>
      <trkpt lat="42.37941" lon="2.49397">
        <ele>1206.2</ele>
        <time>2022-05-21 20:17:16</time>
      </trkpt>
      <trkpt lat="42.37942" lon="2.49395">
        <ele>1206.4</ele>
        <time>2022-05-21 20:17:17</time>
      </trkpt>
      <trkpt lat="42.37942" lon="2.49393">
        <ele>1206.6</ele>
        <time>2022-05-21 20:17:18</time>
      </trkpt>
      <trkpt lat="42.37943" lon="2.49391">
        <ele>1206.6</ele>
        <time>2022-05-21 20:17:19</time>
      </trkpt>
      <trkpt lat="42.37944" lon="2.49389">
        <ele>1206.8</ele>
        <time>2022-05-21 20:17:20</time>
      </trkpt>
      <trkpt lat="42.37945" lon="2.49386">
        <ele>1207</ele>
        <time>2022-05-21 20:17:21</time>
      </trkpt>
      <trkpt lat="42.37946" lon="2.49383">
        <ele>1207</ele>
        <time>2022-05-21 20:17:22</time>
      </trkpt>
      <trkpt lat="42.37947" lon="2.4938">
        <ele>1207.2</ele>
        <time>2022-05-21 20:17:23</time>
      </trkpt>
      <trkpt lat="42.37948" lon="2.49378">
        <ele>1207.4</ele>
        <time>2022-05-21 20:17:24</time>
      </trkpt>
      <trkpt lat="42.37949" lon="2.49376">
        <ele>1207.6</ele>
        <time>2022-05-21 20:17:25</time>
      </trkpt>
      <trkpt lat="42.3795" lon="2.49373">
        <ele>1207.6</ele>
        <time>2022-05-21 20:17:26</time>
      </trkpt>
      <trkpt lat="42.37951" lon="2.49371">
        <ele>1207.8</ele>
        <time>2022-05-21 20:17:27</time>
      </trkpt>
      <trkpt lat="42.37953" lon="2.49369">
        <ele>1208</ele>
        <time>2022-05-21 20:17:28</time>
      </trkpt>
      <trkpt lat="42.37955" lon="2.49367">
        <ele>1208.2</ele>
        <time>2022-05-21 20:17:29</time>
      </trkpt>
      <trkpt lat="42.37956" lon="2.49365">
        <ele>1208.2</ele>
        <time>2022-05-21 20:17:30</time>
      </trkpt>
      <trkpt lat="42.37958" lon="2.49363">
        <ele>1208.4</ele>
        <time>2022-05-21 20:17:31</time>
      </trkpt>
      <trkpt lat="42.37959" lon="2.49362">
        <ele>1208.6</ele>
        <time>2022-05-21 20:17:32</time>
      </trkpt>
      <trkpt lat="42.37961" lon="2.4936">
        <ele>1208.6</ele>
        <time>2022-05-21 20:17:33</time>
      </trkpt>
      <trkpt lat="42.37962" lon="2.49358">
        <ele>1208.8</ele>
        <time>2022-05-21 20:17:34</time>
      </trkpt>
      <trkpt lat="42.37963" lon="2.49356">
        <ele>1209</ele>
        <time>2022-05-21 20:17:35</time>
      </trkpt>
      <trkpt lat="42.37964" lon="2.49354">
        <ele>1209</ele>
        <time>2022-05-21 20:17:36</time>
      </trkpt>
      <trkpt lat="42.37966" lon="2.49352">
        <ele>1209.2</ele>
        <time>2022-05-21 20:17:37</time>
      </trkpt>
      <trkpt lat="42.37967" lon="2.4935">
        <ele>1209.4</ele>
        <time>2022-05-21 20:17:38</time>
      </trkpt>
      <trkpt lat="42.37969" lon="2.49349">
        <ele>1209.6</ele>
        <time>2022-05-21 20:17:39</time>
      </trkpt>
      <trkpt lat="42.3797" lon="2.49348">
        <ele>1209.8</ele>
        <time>2022-05-21 20:17:40</time>
      </trkpt>
      <trkpt lat="42.37971" lon="2.49346">
        <ele>1210</ele>
        <time>2022-05-21 20:17:41</time>
      </trkpt>
      <trkpt lat="42.37972" lon="2.49345">
        <ele>1210.2</ele>
        <time>2022-05-21 20:17:42</time>
      </trkpt>
      <trkpt lat="42.37974" lon="2.49344">
        <ele>1210.2</ele>
        <time>2022-05-21 20:17:43</time>
      </trkpt>
      <trkpt lat="42.37975" lon="2.49343">
        <ele>1210.4</ele>
        <time>2022-05-21 20:17:44</time>
      </trkpt>
      <trkpt lat="42.37976" lon="2.49341">
        <ele>1210.4</ele>
        <time>2022-05-21 20:17:45</time>
      </trkpt>
      <trkpt lat="42.37978" lon="2.49339">
        <ele>1210.6</ele>
        <time>2022-05-21 20:17:46</time>
      </trkpt>
      <trkpt lat="42.37979" lon="2.49338">
        <ele>1210.8</ele>
        <time>2022-05-21 20:17:47</time>
      </trkpt>
      <trkpt lat="42.37981" lon="2.49336">
        <ele>1210.8</ele>
        <time>2022-05-21 20:17:48</time>
      </trkpt>
      <trkpt lat="42.37983" lon="2.49334">
        <ele>1211</ele>
        <time>2022-05-21 20:17:49</time>
      </trkpt>
      <trkpt lat="42.37984" lon="2.49332">
        <ele>1211.2</ele>
        <time>2022-05-21 20:17:50</time>
      </trkpt>
      <trkpt lat="42.37985" lon="2.49331">
        <ele>1211.4</ele>
        <time>2022-05-21 20:17:51</time>
      </trkpt>
      <trkpt lat="42.37987" lon="2.49329">
        <ele>1211.6</ele>
        <time>2022-05-21 20:17:52</time>
      </trkpt>
      <trkpt lat="42.37988" lon="2.49327">
        <ele>1211.8</ele>
        <time>2022-05-21 20:17:53</time>
      </trkpt>
      <trkpt lat="42.3799" lon="2.49325">
        <ele>1212</ele>
        <time>2022-05-21 20:17:54</time>
      </trkpt>
      <trkpt lat="42.37992" lon="2.49324">
        <ele>1212.2</ele>
        <time>2022-05-21 20:17:55</time>
      </trkpt>
      <trkpt lat="42.37993" lon="2.49322">
        <ele>1212.4</ele>
        <time>2022-05-21 20:17:56</time>
      </trkpt>
      <trkpt lat="42.37994" lon="2.4932">
        <ele>1212.6</ele>
        <time>2022-05-21 20:17:57</time>
      </trkpt>
      <trkpt lat="42.37996" lon="2.49318">
        <ele>1212.8</ele>
        <time>2022-05-21 20:17:58</time>
      </trkpt>
      <trkpt lat="42.37997" lon="2.49316">
        <ele>1212.8</ele>
        <time>2022-05-21 20:17:59</time>
      </trkpt>
      <trkpt lat="42.37998" lon="2.49314">
        <ele>1213</ele>
        <time>2022-05-21 20:18:00</time>
      </trkpt>
      <trkpt lat="42.37999" lon="2.49312">
        <ele>1213.2</ele>
        <time>2022-05-21 20:18:01</time>
      </trkpt>
      <trkpt lat="42.38001" lon="2.4931">
        <ele>1213.4</ele>
        <time>2022-05-21 20:18:02</time>
      </trkpt>
      <trkpt lat="42.38002" lon="2.49308">
        <ele>1213.6</ele>
        <time>2022-05-21 20:18:03</time>
      </trkpt>
      <trkpt lat="42.38003" lon="2.49306">
        <ele>1213.8</ele>
        <time>2022-05-21 20:18:04</time>
      </trkpt>
      <trkpt lat="42.38004" lon="2.49304">
        <ele>1214</ele>
        <time>2022-05-21 20:18:05</time>
      </trkpt>
      <trkpt lat="42.38005" lon="2.49302">
        <ele>1214</ele>
        <time>2022-05-21 20:18:06</time>
      </trkpt>
      <trkpt lat="42.38005" lon="2.493">
        <ele>1214.2</ele>
        <time>2022-05-21 20:18:07</time>
      </trkpt>
      <trkpt lat="42.38006" lon="2.49297">
        <ele>1214.4</ele>
        <time>2022-05-21 20:18:08</time>
      </trkpt>
      <trkpt lat="42.38007" lon="2.49295">
        <ele>1214.6</ele>
        <time>2022-05-21 20:18:09</time>
      </trkpt>
      <trkpt lat="42.38008" lon="2.49293">
        <ele>1214.6</ele>
        <time>2022-05-21 20:18:10</time>
      </trkpt>
      <trkpt lat="42.38009" lon="2.49291">
        <ele>1214.8</ele>
        <time>2022-05-21 20:18:11</time>
      </trkpt>
      <trkpt lat="42.3801" lon="2.49289">
        <ele>1215</ele>
        <time>2022-05-21 20:18:12</time>
      </trkpt>
      <trkpt lat="42.38011" lon="2.49287">
        <ele>1215</ele>
        <time>2022-05-21 20:18:13</time>
      </trkpt>
      <trkpt lat="42.38011" lon="2.49284">
        <ele>1215.2</ele>
        <time>2022-05-21 20:18:14</time>
      </trkpt>
      <trkpt lat="42.38012" lon="2.49282">
        <ele>1215.4</ele>
        <time>2022-05-21 20:18:15</time>
      </trkpt>
      <trkpt lat="42.38013" lon="2.4928">
        <ele>1215.6</ele>
        <time>2022-05-21 20:18:16</time>
      </trkpt>
      <trkpt lat="42.38013" lon="2.49278">
        <ele>1215.8</ele>
        <time>2022-05-21 20:18:17</time>
      </trkpt>
      <trkpt lat="42.38014" lon="2.49276">
        <ele>1215.8</ele>
        <time>2022-05-21 20:18:18</time>
      </trkpt>
      <trkpt lat="42.38014" lon="2.49273">
        <ele>1216</ele>
        <time>2022-05-21 20:18:19</time>
      </trkpt>
      <trkpt lat="42.38015" lon="2.49271">
        <ele>1216.2</ele>
        <time>2022-05-21 20:18:20</time>
      </trkpt>
      <trkpt lat="42.38015" lon="2.49269">
        <ele>1216.2</ele>
        <time>2022-05-21 20:18:21</time>
      </trkpt>
      <trkpt lat="42.38016" lon="2.49267">
        <ele>1216.4</ele>
        <time>2022-05-21 20:18:22</time>
      </trkpt>
      <trkpt lat="42.38017" lon="2.49264">
        <ele>1216.6</ele>
        <time>2022-05-21 20:18:23</time>
      </trkpt>
      <trkpt lat="42.38017" lon="2.49262">
        <ele>1216.6</ele>
        <time>2022-05-21 20:18:24</time>
      </trkpt>
      <trkpt lat="42.38017" lon="2.4926">
        <ele>1216.8</ele>
        <time>2022-05-21 20:18:25</time>
      </trkpt>
      <trkpt lat="42.38018" lon="2.49257">
        <ele>1217</ele>
        <time>2022-05-21 20:18:26</time>
      </trkpt>
      <trkpt lat="42.38018" lon="2.49255">
        <ele>1217.2</ele>
        <time>2022-05-21 20:18:27</time>
      </trkpt>
      <trkpt lat="42.38019" lon="2.49253">
        <ele>1217.2</ele>
        <time>2022-05-21 20:18:28</time>
      </trkpt>
      <trkpt lat="42.38019" lon="2.4925">
        <ele>1217.4</ele>
        <time>2022-05-21 20:18:29</time>
      </trkpt>
      <trkpt lat="42.38019" lon="2.49247">
        <ele>1217.6</ele>
        <time>2022-05-21 20:18:30</time>
      </trkpt>
      <trkpt lat="42.38019" lon="2.49245">
        <ele>1217.6</ele>
        <time>2022-05-21 20:18:31</time>
      </trkpt>
      <trkpt lat="42.38019" lon="2.49242">
        <ele>1217.8</ele>
        <time>2022-05-21 20:18:32</time>
      </trkpt>
      <trkpt lat="42.38019" lon="2.49239">
        <ele>1217.8</ele>
        <time>2022-05-21 20:18:33</time>
      </trkpt>
      <trkpt lat="42.3802" lon="2.49237">
        <ele>1218</ele>
        <time>2022-05-21 20:18:34</time>
      </trkpt>
      <trkpt lat="42.3802" lon="2.49234">
        <ele>1218.2</ele>
        <time>2022-05-21 20:18:35</time>
      </trkpt>
      <trkpt lat="42.3802" lon="2.49231">
        <ele>1218.2</ele>
        <time>2022-05-21 20:18:36</time>
      </trkpt>
      <trkpt lat="42.3802" lon="2.49228">
        <ele>1218.4</ele>
        <time>2022-05-21 20:18:37</time>
      </trkpt>
      <trkpt lat="42.3802" lon="2.49225">
        <ele>1218.6</ele>
        <time>2022-05-21 20:18:38</time>
      </trkpt>
      <trkpt lat="42.38019" lon="2.49223">
        <ele>1218.6</ele>
        <time>2022-05-21 20:18:39</time>
      </trkpt>
      <trkpt lat="42.38019" lon="2.4922">
        <ele>1218.8</ele>
        <time>2022-05-21 20:18:40</time>
      </trkpt>
      <trkpt lat="42.38019" lon="2.49217">
        <ele>1218.8</ele>
        <time>2022-05-21 20:18:41</time>
      </trkpt>
      <trkpt lat="42.38019" lon="2.49214">
        <ele>1219</ele>
        <time>2022-05-21 20:18:42</time>
      </trkpt>
      <trkpt lat="42.38019" lon="2.49211">
        <ele>1219</ele>
        <time>2022-05-21 20:18:43</time>
      </trkpt>
      <trkpt lat="42.38019" lon="2.49208">
        <ele>1219.2</ele>
        <time>2022-05-21 20:18:44</time>
      </trkpt>
      <trkpt lat="42.38019" lon="2.49206">
        <ele>1219.4</ele>
        <time>2022-05-21 20:18:45</time>
      </trkpt>
      <trkpt lat="42.38018" lon="2.49203">
        <ele>1219.4</ele>
        <time>2022-05-21 20:18:46</time>
      </trkpt>
      <trkpt lat="42.38018" lon="2.492">
        <ele>1219.4</ele>
        <time>2022-05-21 20:18:47</time>
      </trkpt>
      <trkpt lat="42.38018" lon="2.49197">
        <ele>1219.6</ele>
        <time>2022-05-21 20:18:48</time>
      </trkpt>
      <trkpt lat="42.38017" lon="2.49194">
        <ele>1219.6</ele>
        <time>2022-05-21 20:18:49</time>
      </trkpt>
      <trkpt lat="42.38017" lon="2.49191">
        <ele>1219.8</ele>
        <time>2022-05-21 20:18:50</time>
      </trkpt>
      <trkpt lat="42.38016" lon="2.49188">
        <ele>1219.8</ele>
        <time>2022-05-21 20:18:51</time>
      </trkpt>
      <trkpt lat="42.38016" lon="2.49184">
        <ele>1220</ele>
        <time>2022-05-21 20:18:52</time>
      </trkpt>
      <trkpt lat="42.38016" lon="2.49181">
        <ele>1220</ele>
        <time>2022-05-21 20:18:53</time>
      </trkpt>
      <trkpt lat="42.38015" lon="2.49178">
        <ele>1220</ele>
        <time>2022-05-21 20:18:54</time>
      </trkpt>
      <trkpt lat="42.38015" lon="2.49174">
        <ele>1220.2</ele>
        <time>2022-05-21 20:18:55</time>
      </trkpt>
      <trkpt lat="42.38015" lon="2.49171">
        <ele>1220.2</ele>
        <time>2022-05-21 20:18:56</time>
      </trkpt>
      <trkpt lat="42.38015" lon="2.49167">
        <ele>1220.2</ele>
        <time>2022-05-21 20:18:57</time>
      </trkpt>
      <trkpt lat="42.38014" lon="2.49164">
        <ele>1220.4</ele>
        <time>2022-05-21 20:18:58</time>
      </trkpt>
      <trkpt lat="42.38014" lon="2.4916">
        <ele>1220.4</ele>
        <time>2022-05-21 20:18:59</time>
      </trkpt>
      <trkpt lat="42.38014" lon="2.49157">
        <ele>1220.6</ele>
        <time>2022-05-21 20:19:00</time>
      </trkpt>
      <trkpt lat="42.38013" lon="2.49154">
        <ele>1220.6</ele>
        <time>2022-05-21 20:19:01</time>
      </trkpt>
      <trkpt lat="42.38013" lon="2.4915">
        <ele>1220.8</ele>
        <time>2022-05-21 20:19:02</time>
      </trkpt>
      <trkpt lat="42.38013" lon="2.49147">
        <ele>1221</ele>
        <time>2022-05-21 20:19:03</time>
      </trkpt>
      <trkpt lat="42.38013" lon="2.49144">
        <ele>1221</ele>
        <time>2022-05-21 20:19:04</time>
      </trkpt>
      <trkpt lat="42.38013" lon="2.49141">
        <ele>1221.2</ele>
        <time>2022-05-21 20:19:05</time>
      </trkpt>
      <trkpt lat="42.38014" lon="2.49138">
        <ele>1221.2</ele>
        <time>2022-05-21 20:19:06</time>
      </trkpt>
      <trkpt lat="42.38014" lon="2.49134">
        <ele>1221.4</ele>
        <time>2022-05-21 20:19:07</time>
      </trkpt>
      <trkpt lat="42.38015" lon="2.49131">
        <ele>1221.4</ele>
        <time>2022-05-21 20:19:08</time>
      </trkpt>
      <trkpt lat="42.38015" lon="2.49128">
        <ele>1221.6</ele>
        <time>2022-05-21 20:19:09</time>
      </trkpt>
      <trkpt lat="42.38015" lon="2.49125">
        <ele>1221.6</ele>
        <time>2022-05-21 20:19:10</time>
      </trkpt>
      <trkpt lat="42.38016" lon="2.49122">
        <ele>1221.8</ele>
        <time>2022-05-21 20:19:11</time>
      </trkpt>
      <trkpt lat="42.38016" lon="2.49119">
        <ele>1222</ele>
        <time>2022-05-21 20:19:12</time>
      </trkpt>
      <trkpt lat="42.38016" lon="2.49116">
        <ele>1222</ele>
        <time>2022-05-21 20:19:13</time>
      </trkpt>
      <trkpt lat="42.38016" lon="2.49113">
        <ele>1222.2</ele>
        <time>2022-05-21 20:19:14</time>
      </trkpt>
      <trkpt lat="42.38015" lon="2.4911">
        <ele>1222.2</ele>
        <time>2022-05-21 20:19:15</time>
      </trkpt>
      <trkpt lat="42.38015" lon="2.49108">
        <ele>1222.4</ele>
        <time>2022-05-21 20:19:16</time>
      </trkpt>
      <trkpt lat="42.38016" lon="2.49105">
        <ele>1222.4</ele>
        <time>2022-05-21 20:19:17</time>
      </trkpt>
      <trkpt lat="42.38016" lon="2.49102">
        <ele>1222.6</ele>
        <time>2022-05-21 20:19:18</time>
      </trkpt>
      <trkpt lat="42.38016" lon="2.49098">
        <ele>1222.6</ele>
        <time>2022-05-21 20:19:19</time>
      </trkpt>
      <trkpt lat="42.38017" lon="2.49095">
        <ele>1222.8</ele>
        <time>2022-05-21 20:19:20</time>
      </trkpt>
      <trkpt lat="42.38017" lon="2.49091">
        <ele>1222.8</ele>
        <time>2022-05-21 20:19:21</time>
      </trkpt>
      <trkpt lat="42.38017" lon="2.49087">
        <ele>1222.8</ele>
        <time>2022-05-21 20:19:22</time>
      </trkpt>
      <trkpt lat="42.38018" lon="2.49083">
        <ele>1223</ele>
        <time>2022-05-21 20:19:23</time>
      </trkpt>
      <trkpt lat="42.38018" lon="2.49079">
        <ele>1223</ele>
        <time>2022-05-21 20:19:24</time>
      </trkpt>
      <trkpt lat="42.38018" lon="2.49076">
        <ele>1223.2</ele>
        <time>2022-05-21 20:19:25</time>
      </trkpt>
      <trkpt lat="42.38018" lon="2.49072">
        <ele>1223.2</ele>
        <time>2022-05-21 20:19:26</time>
      </trkpt>
      <trkpt lat="42.38019" lon="2.49069">
        <ele>1223.4</ele>
        <time>2022-05-21 20:19:27</time>
      </trkpt>
      <trkpt lat="42.38019" lon="2.49066">
        <ele>1223.4</ele>
        <time>2022-05-21 20:19:28</time>
      </trkpt>
      <trkpt lat="42.38018" lon="2.49062">
        <ele>1223.6</ele>
        <time>2022-05-21 20:19:29</time>
      </trkpt>
      <trkpt lat="42.38018" lon="2.49059">
        <ele>1223.6</ele>
        <time>2022-05-21 20:19:30</time>
      </trkpt>
      <trkpt lat="42.38018" lon="2.49056">
        <ele>1223.6</ele>
        <time>2022-05-21 20:19:31</time>
      </trkpt>
      <trkpt lat="42.38019" lon="2.49052">
        <ele>1223.8</ele>
        <time>2022-05-21 20:19:32</time>
      </trkpt>
      <trkpt lat="42.38019" lon="2.49049">
        <ele>1223.8</ele>
        <time>2022-05-21 20:19:33</time>
      </trkpt>
      <trkpt lat="42.38019" lon="2.49045">
        <ele>1224</ele>
        <time>2022-05-21 20:19:34</time>
      </trkpt>
      <trkpt lat="42.38019" lon="2.49041">
        <ele>1224</ele>
        <time>2022-05-21 20:19:35</time>
      </trkpt>
      <trkpt lat="42.3802" lon="2.49037">
        <ele>1224.2</ele>
        <time>2022-05-21 20:19:36</time>
      </trkpt>
      <trkpt lat="42.3802" lon="2.49034">
        <ele>1224.2</ele>
        <time>2022-05-21 20:19:37</time>
      </trkpt>
      <trkpt lat="42.3802" lon="2.4903">
        <ele>1224.4</ele>
        <time>2022-05-21 20:19:38</time>
      </trkpt>
      <trkpt lat="42.3802" lon="2.49026">
        <ele>1224.4</ele>
        <time>2022-05-21 20:19:39</time>
      </trkpt>
      <trkpt lat="42.3802" lon="2.49022">
        <ele>1224.6</ele>
        <time>2022-05-21 20:19:40</time>
      </trkpt>
      <trkpt lat="42.3802" lon="2.49019">
        <ele>1224.6</ele>
        <time>2022-05-21 20:19:41</time>
      </trkpt>
      <trkpt lat="42.3802" lon="2.49016">
        <ele>1224.8</ele>
        <time>2022-05-21 20:19:42</time>
      </trkpt>
      <trkpt lat="42.3802" lon="2.49013">
        <ele>1225</ele>
        <time>2022-05-21 20:19:43</time>
      </trkpt>
      <trkpt lat="42.3802" lon="2.49009">
        <ele>1225</ele>
        <time>2022-05-21 20:19:44</time>
      </trkpt>
      <trkpt lat="42.3802" lon="2.49005">
        <ele>1225.2</ele>
        <time>2022-05-21 20:19:45</time>
      </trkpt>
      <trkpt lat="42.3802" lon="2.49001">
        <ele>1225.4</ele>
        <time>2022-05-21 20:19:46</time>
      </trkpt>
      <trkpt lat="42.3802" lon="2.48997">
        <ele>1225.4</ele>
        <time>2022-05-21 20:19:47</time>
      </trkpt>
      <trkpt lat="42.38021" lon="2.48994">
        <ele>1225.6</ele>
        <time>2022-05-21 20:19:48</time>
      </trkpt>
      <trkpt lat="42.38021" lon="2.48991">
        <ele>1225.8</ele>
        <time>2022-05-21 20:19:49</time>
      </trkpt>
      <trkpt lat="42.38021" lon="2.48987">
        <ele>1226</ele>
        <time>2022-05-21 20:19:50</time>
      </trkpt>
      <trkpt lat="42.38021" lon="2.48983">
        <ele>1226</ele>
        <time>2022-05-21 20:19:51</time>
      </trkpt>
      <trkpt lat="42.38021" lon="2.48979">
        <ele>1226.2</ele>
        <time>2022-05-21 20:19:52</time>
      </trkpt>
      <trkpt lat="42.38021" lon="2.48976">
        <ele>1226.4</ele>
        <time>2022-05-21 20:19:53</time>
      </trkpt>
      <trkpt lat="42.38021" lon="2.48973">
        <ele>1226.6</ele>
        <time>2022-05-21 20:19:54</time>
      </trkpt>
      <trkpt lat="42.38021" lon="2.4897">
        <ele>1226.6</ele>
        <time>2022-05-21 20:19:55</time>
      </trkpt>
      <trkpt lat="42.38021" lon="2.48967">
        <ele>1226.8</ele>
        <time>2022-05-21 20:19:56</time>
      </trkpt>
      <trkpt lat="42.38021" lon="2.48964">
        <ele>1227</ele>
        <time>2022-05-21 20:19:57</time>
      </trkpt>
      <trkpt lat="42.38021" lon="2.4896">
        <ele>1227</ele>
        <time>2022-05-21 20:19:58</time>
      </trkpt>
      <trkpt lat="42.38021" lon="2.48955">
        <ele>1227.2</ele>
        <time>2022-05-21 20:19:59</time>
      </trkpt>
      <trkpt lat="42.38021" lon="2.48952">
        <ele>1227.2</ele>
        <time>2022-05-21 20:20:00</time>
      </trkpt>
      <trkpt lat="42.38021" lon="2.48948">
        <ele>1227.4</ele>
        <time>2022-05-21 20:20:01</time>
      </trkpt>
      <trkpt lat="42.38021" lon="2.48945">
        <ele>1227.4</ele>
        <time>2022-05-21 20:20:02</time>
      </trkpt>
      <trkpt lat="42.38021" lon="2.48941">
        <ele>1227.6</ele>
        <time>2022-05-21 20:20:03</time>
      </trkpt>
      <trkpt lat="42.38021" lon="2.48937">
        <ele>1227.8</ele>
        <time>2022-05-21 20:20:04</time>
      </trkpt>
      <trkpt lat="42.38022" lon="2.48932">
        <ele>1227.8</ele>
        <time>2022-05-21 20:20:05</time>
      </trkpt>
      <trkpt lat="42.38022" lon="2.48927">
        <ele>1228</ele>
        <time>2022-05-21 20:20:06</time>
      </trkpt>
      <trkpt lat="42.38022" lon="2.48922">
        <ele>1228.2</ele>
        <time>2022-05-21 20:20:07</time>
      </trkpt>
      <trkpt lat="42.38022" lon="2.48917">
        <ele>1228.2</ele>
        <time>2022-05-21 20:20:08</time>
      </trkpt>
      <trkpt lat="42.38021" lon="2.48912">
        <ele>1228.2</ele>
        <time>2022-05-21 20:20:09</time>
      </trkpt>
      <trkpt lat="42.38021" lon="2.48907">
        <ele>1228.4</ele>
        <time>2022-05-21 20:20:10</time>
      </trkpt>
      <trkpt lat="42.3802" lon="2.48903">
        <ele>1228.4</ele>
        <time>2022-05-21 20:20:11</time>
      </trkpt>
      <trkpt lat="42.38019" lon="2.48898">
        <ele>1228.4</ele>
        <time>2022-05-21 20:20:12</time>
      </trkpt>
      <trkpt lat="42.38018" lon="2.48894">
        <ele>1228.6</ele>
        <time>2022-05-21 20:20:13</time>
      </trkpt>
      <trkpt lat="42.38016" lon="2.48891">
        <ele>1228.6</ele>
        <time>2022-05-21 20:20:14</time>
      </trkpt>
      <trkpt lat="42.38014" lon="2.48887">
        <ele>1228.6</ele>
        <time>2022-05-21 20:20:15</time>
      </trkpt>
      <trkpt lat="42.38012" lon="2.48884">
        <ele>1228.8</ele>
        <time>2022-05-21 20:20:16</time>
      </trkpt>
      <trkpt lat="42.3801" lon="2.48881">
        <ele>1228.8</ele>
        <time>2022-05-21 20:20:17</time>
      </trkpt>
      <trkpt lat="42.38008" lon="2.48879">
        <ele>1228.8</ele>
        <time>2022-05-21 20:20:18</time>
      </trkpt>
      <trkpt lat="42.38006" lon="2.48876">
        <ele>1229</ele>
        <time>2022-05-21 20:20:19</time>
      </trkpt>
      <trkpt lat="42.38004" lon="2.48874">
        <ele>1229</ele>
        <time>2022-05-21 20:20:20</time>
      </trkpt>
      <trkpt lat="42.38001" lon="2.48872">
        <ele>1229.2</ele>
        <time>2022-05-21 20:20:21</time>
      </trkpt>
      <trkpt lat="42.37999" lon="2.4887">
        <ele>1229.2</ele>
        <time>2022-05-21 20:20:22</time>
      </trkpt>
      <trkpt lat="42.37996" lon="2.48868">
        <ele>1229.4</ele>
        <time>2022-05-21 20:20:23</time>
      </trkpt>
      <trkpt lat="42.37994" lon="2.48866">
        <ele>1229.4</ele>
        <time>2022-05-21 20:20:24</time>
      </trkpt>
      <trkpt lat="42.37991" lon="2.48864">
        <ele>1229.4</ele>
        <time>2022-05-21 20:20:25</time>
      </trkpt>
      <trkpt lat="42.37989" lon="2.48862">
        <ele>1229.6</ele>
        <time>2022-05-21 20:20:26</time>
      </trkpt>
      <trkpt lat="42.37986" lon="2.48859">
        <ele>1229.6</ele>
        <time>2022-05-21 20:20:27</time>
      </trkpt>
      <trkpt lat="42.37983" lon="2.48857">
        <ele>1229.6</ele>
        <time>2022-05-21 20:20:28</time>
      </trkpt>
      <trkpt lat="42.37981" lon="2.48856">
        <ele>1229.8</ele>
        <time>2022-05-21 20:20:29</time>
      </trkpt>
      <trkpt lat="42.37978" lon="2.48854">
        <ele>1229.8</ele>
        <time>2022-05-21 20:20:30</time>
      </trkpt>
      <trkpt lat="42.37976" lon="2.48852">
        <ele>1229.8</ele>
        <time>2022-05-21 20:20:31</time>
      </trkpt>
      <trkpt lat="42.37973" lon="2.4885">
        <ele>1229.8</ele>
        <time>2022-05-21 20:20:32</time>
      </trkpt>
      <trkpt lat="42.3797" lon="2.48848">
        <ele>1230</ele>
        <time>2022-05-21 20:20:33</time>
      </trkpt>
      <trkpt lat="42.37968" lon="2.48846">
        <ele>1230</ele>
        <time>2022-05-21 20:20:34</time>
      </trkpt>
      <trkpt lat="42.37965" lon="2.48844">
        <ele>1230</ele>
        <time>2022-05-21 20:20:35</time>
      </trkpt>
      <trkpt lat="42.37963" lon="2.48842">
        <ele>1230.2</ele>
        <time>2022-05-21 20:20:36</time>
      </trkpt>
      <trkpt lat="42.37961" lon="2.48839">
        <ele>1230.2</ele>
        <time>2022-05-21 20:20:37</time>
      </trkpt>
      <trkpt lat="42.37958" lon="2.48837">
        <ele>1230.2</ele>
        <time>2022-05-21 20:20:38</time>
      </trkpt>
      <trkpt lat="42.37956" lon="2.48834">
        <ele>1230.4</ele>
        <time>2022-05-21 20:20:39</time>
      </trkpt>
      <trkpt lat="42.37953" lon="2.48831">
        <ele>1230.4</ele>
        <time>2022-05-21 20:20:40</time>
      </trkpt>
      <trkpt lat="42.37952" lon="2.48828">
        <ele>1230.6</ele>
        <time>2022-05-21 20:20:41</time>
      </trkpt>
      <trkpt lat="42.3795" lon="2.48825">
        <ele>1230.6</ele>
        <time>2022-05-21 20:20:42</time>
      </trkpt>
      <trkpt lat="42.37948" lon="2.48821">
        <ele>1230.6</ele>
        <time>2022-05-21 20:20:43</time>
      </trkpt>
      <trkpt lat="42.37947" lon="2.48817">
        <ele>1230.8</ele>
        <time>2022-05-21 20:20:44</time>
      </trkpt>
      <trkpt lat="42.37947" lon="2.48813">
        <ele>1230.8</ele>
        <time>2022-05-21 20:20:45</time>
      </trkpt>
      <trkpt lat="42.37946" lon="2.48809">
        <ele>1230.8</ele>
        <time>2022-05-21 20:20:46</time>
      </trkpt>
      <trkpt lat="42.37945" lon="2.48806">
        <ele>1231</ele>
        <time>2022-05-21 20:20:47</time>
      </trkpt>
      <trkpt lat="42.37944" lon="2.48802">
        <ele>1231</ele>
        <time>2022-05-21 20:20:48</time>
      </trkpt>
      <trkpt lat="42.37943" lon="2.48798">
        <ele>1231</ele>
        <time>2022-05-21 20:20:49</time>
      </trkpt>
      <trkpt lat="42.37942" lon="2.48794">
        <ele>1231.2</ele>
        <time>2022-05-21 20:20:50</time>
      </trkpt>
      <trkpt lat="42.37942" lon="2.4879">
        <ele>1231.2</ele>
        <time>2022-05-21 20:20:51</time>
      </trkpt>
      <trkpt lat="42.37941" lon="2.48786">
        <ele>1231.4</ele>
        <time>2022-05-21 20:20:52</time>
      </trkpt>
      <trkpt lat="42.37941" lon="2.48782">
        <ele>1231.4</ele>
        <time>2022-05-21 20:20:53</time>
      </trkpt>
      <trkpt lat="42.3794" lon="2.48777">
        <ele>1231.6</ele>
        <time>2022-05-21 20:20:54</time>
      </trkpt>
      <trkpt lat="42.3794" lon="2.48773">
        <ele>1231.6</ele>
        <time>2022-05-21 20:20:55</time>
      </trkpt>
      <trkpt lat="42.3794" lon="2.48769">
        <ele>1231.8</ele>
        <time>2022-05-21 20:20:56</time>
      </trkpt>
      <trkpt lat="42.3794" lon="2.48764">
        <ele>1231.8</ele>
        <time>2022-05-21 20:20:57</time>
      </trkpt>
      <trkpt lat="42.3794" lon="2.4876">
        <ele>1232</ele>
        <time>2022-05-21 20:20:58</time>
      </trkpt>
      <trkpt lat="42.3794" lon="2.48756">
        <ele>1232.2</ele>
        <time>2022-05-21 20:20:59</time>
      </trkpt>
      <trkpt lat="42.3794" lon="2.48752">
        <ele>1232.2</ele>
        <time>2022-05-21 20:21:00</time>
      </trkpt>
      <trkpt lat="42.3794" lon="2.48748">
        <ele>1232.4</ele>
        <time>2022-05-21 20:21:01</time>
      </trkpt>
      <trkpt lat="42.3794" lon="2.48744">
        <ele>1232.4</ele>
        <time>2022-05-21 20:21:02</time>
      </trkpt>
      <trkpt lat="42.37941" lon="2.4874">
        <ele>1232.6</ele>
        <time>2022-05-21 20:21:03</time>
      </trkpt>
      <trkpt lat="42.37941" lon="2.48736">
        <ele>1232.6</ele>
        <time>2022-05-21 20:21:04</time>
      </trkpt>
      <trkpt lat="42.37941" lon="2.48732">
        <ele>1232.8</ele>
        <time>2022-05-21 20:21:05</time>
      </trkpt>
      <trkpt lat="42.37941" lon="2.48728">
        <ele>1233</ele>
        <time>2022-05-21 20:21:06</time>
      </trkpt>
      <trkpt lat="42.37941" lon="2.48724">
        <ele>1233</ele>
        <time>2022-05-21 20:21:07</time>
      </trkpt>
      <trkpt lat="42.37941" lon="2.4872">
        <ele>1233.2</ele>
        <time>2022-05-21 20:21:08</time>
      </trkpt>
      <trkpt lat="42.3794" lon="2.48716">
        <ele>1233.2</ele>
        <time>2022-05-21 20:21:09</time>
      </trkpt>
      <trkpt lat="42.3794" lon="2.48713">
        <ele>1233.4</ele>
        <time>2022-05-21 20:21:10</time>
      </trkpt>
      <trkpt lat="42.3794" lon="2.48709">
        <ele>1233.4</ele>
        <time>2022-05-21 20:21:11</time>
      </trkpt>
      <trkpt lat="42.3794" lon="2.48705">
        <ele>1233.6</ele>
        <time>2022-05-21 20:21:12</time>
      </trkpt>
      <trkpt lat="42.3794" lon="2.48702">
        <ele>1233.6</ele>
        <time>2022-05-21 20:21:13</time>
      </trkpt>
      <trkpt lat="42.3794" lon="2.48698">
        <ele>1233.6</ele>
        <time>2022-05-21 20:21:14</time>
      </trkpt>
      <trkpt lat="42.3794" lon="2.48694">
        <ele>1233.6</ele>
        <time>2022-05-21 20:21:15</time>
      </trkpt>
      <trkpt lat="42.3794" lon="2.4869">
        <ele>1233.8</ele>
        <time>2022-05-21 20:21:16</time>
      </trkpt>
      <trkpt lat="42.3794" lon="2.48686">
        <ele>1233.8</ele>
        <time>2022-05-21 20:21:17</time>
      </trkpt>
      <trkpt lat="42.3794" lon="2.48682">
        <ele>1234</ele>
        <time>2022-05-21 20:21:18</time>
      </trkpt>
      <trkpt lat="42.3794" lon="2.48677">
        <ele>1234</ele>
        <time>2022-05-21 20:21:19</time>
      </trkpt>
      <trkpt lat="42.3794" lon="2.48673">
        <ele>1234.2</ele>
        <time>2022-05-21 20:21:20</time>
      </trkpt>
      <trkpt lat="42.3794" lon="2.48669">
        <ele>1234.2</ele>
        <time>2022-05-21 20:21:21</time>
      </trkpt>
      <trkpt lat="42.3794" lon="2.48665">
        <ele>1234.2</ele>
        <time>2022-05-21 20:21:22</time>
      </trkpt>
      <trkpt lat="42.3794" lon="2.48662">
        <ele>1234.4</ele>
        <time>2022-05-21 20:21:23</time>
      </trkpt>
      <trkpt lat="42.3794" lon="2.48659">
        <ele>1234.4</ele>
        <time>2022-05-21 20:21:24</time>
      </trkpt>
      <trkpt lat="42.37939" lon="2.48655">
        <ele>1234.4</ele>
        <time>2022-05-21 20:21:25</time>
      </trkpt>
      <trkpt lat="42.37939" lon="2.48651">
        <ele>1234.6</ele>
        <time>2022-05-21 20:21:26</time>
      </trkpt>
      <trkpt lat="42.3794" lon="2.48647">
        <ele>1234.6</ele>
        <time>2022-05-21 20:21:27</time>
      </trkpt>
      <trkpt lat="42.3794" lon="2.48642">
        <ele>1234.8</ele>
        <time>2022-05-21 20:21:28</time>
      </trkpt>
      <trkpt lat="42.37941" lon="2.48638">
        <ele>1235</ele>
        <time>2022-05-21 20:21:29</time>
      </trkpt>
      <trkpt lat="42.37941" lon="2.48635">
        <ele>1235</ele>
        <time>2022-05-21 20:21:30</time>
      </trkpt>
      <trkpt lat="42.37942" lon="2.48631">
        <ele>1235.2</ele>
        <time>2022-05-21 20:21:31</time>
      </trkpt>
      <trkpt lat="42.37943" lon="2.48627">
        <ele>1235.2</ele>
        <time>2022-05-21 20:21:32</time>
      </trkpt>
      <trkpt lat="42.37944" lon="2.48623">
        <ele>1235.4</ele>
        <time>2022-05-21 20:21:33</time>
      </trkpt>
      <trkpt lat="42.37944" lon="2.48619">
        <ele>1235.4</ele>
        <time>2022-05-21 20:21:34</time>
      </trkpt>
      <trkpt lat="42.37945" lon="2.48614">
        <ele>1235.6</ele>
        <time>2022-05-21 20:21:35</time>
      </trkpt>
      <trkpt lat="42.37946" lon="2.4861">
        <ele>1235.6</ele>
        <time>2022-05-21 20:21:36</time>
      </trkpt>
      <trkpt lat="42.37946" lon="2.48606">
        <ele>1235.8</ele>
        <time>2022-05-21 20:21:37</time>
      </trkpt>
      <trkpt lat="42.37946" lon="2.48602">
        <ele>1236</ele>
        <time>2022-05-21 20:21:38</time>
      </trkpt>
      <trkpt lat="42.37947" lon="2.48598">
        <ele>1236.2</ele>
        <time>2022-05-21 20:21:39</time>
      </trkpt>
      <trkpt lat="42.37947" lon="2.48594">
        <ele>1236.2</ele>
        <time>2022-05-21 20:21:40</time>
      </trkpt>
      <trkpt lat="42.37948" lon="2.4859">
        <ele>1236.4</ele>
        <time>2022-05-21 20:21:41</time>
      </trkpt>
      <trkpt lat="42.37948" lon="2.48586">
        <ele>1236.4</ele>
        <time>2022-05-21 20:21:42</time>
      </trkpt>
      <trkpt lat="42.37948" lon="2.48582">
        <ele>1236.6</ele>
        <time>2022-05-21 20:21:43</time>
      </trkpt>
      <trkpt lat="42.37948" lon="2.48578">
        <ele>1236.8</ele>
        <time>2022-05-21 20:21:44</time>
      </trkpt>
      <trkpt lat="42.37948" lon="2.48574">
        <ele>1236.8</ele>
        <time>2022-05-21 20:21:45</time>
      </trkpt>
      <trkpt lat="42.37948" lon="2.4857">
        <ele>1237</ele>
        <time>2022-05-21 20:21:46</time>
      </trkpt>
      <trkpt lat="42.37947" lon="2.48567">
        <ele>1237.2</ele>
        <time>2022-05-21 20:21:47</time>
      </trkpt>
      <trkpt lat="42.37947" lon="2.48563">
        <ele>1237.4</ele>
        <time>2022-05-21 20:21:48</time>
      </trkpt>
      <trkpt lat="42.37947" lon="2.4856">
        <ele>1237.4</ele>
        <time>2022-05-21 20:21:49</time>
      </trkpt>
      <trkpt lat="42.37946" lon="2.48556">
        <ele>1237.6</ele>
        <time>2022-05-21 20:21:50</time>
      </trkpt>
      <trkpt lat="42.37945" lon="2.48552">
        <ele>1237.8</ele>
        <time>2022-05-21 20:21:51</time>
      </trkpt>
      <trkpt lat="42.37945" lon="2.48548">
        <ele>1238</ele>
        <time>2022-05-21 20:21:52</time>
      </trkpt>
      <trkpt lat="42.37944" lon="2.48544">
        <ele>1238.2</ele>
        <time>2022-05-21 20:21:53</time>
      </trkpt>
      <trkpt lat="42.37944" lon="2.48541">
        <ele>1238.4</ele>
        <time>2022-05-21 20:21:54</time>
      </trkpt>
      <trkpt lat="42.37943" lon="2.48537">
        <ele>1238.6</ele>
        <time>2022-05-21 20:21:55</time>
      </trkpt>
      <trkpt lat="42.37943" lon="2.48533">
        <ele>1238.6</ele>
        <time>2022-05-21 20:21:56</time>
      </trkpt>
      <trkpt lat="42.37943" lon="2.48529">
        <ele>1238.8</ele>
        <time>2022-05-21 20:21:57</time>
      </trkpt>
      <trkpt lat="42.37942" lon="2.48526">
        <ele>1239</ele>
        <time>2022-05-21 20:21:58</time>
      </trkpt>
      <trkpt lat="42.37942" lon="2.48522">
        <ele>1239.2</ele>
        <time>2022-05-21 20:21:59</time>
      </trkpt>
      <trkpt lat="42.37941" lon="2.48518">
        <ele>1239.4</ele>
        <time>2022-05-21 20:22:00</time>
      </trkpt>
      <trkpt lat="42.37941" lon="2.48514">
        <ele>1239.6</ele>
        <time>2022-05-21 20:22:01</time>
      </trkpt>
      <trkpt lat="42.3794" lon="2.48511">
        <ele>1239.6</ele>
        <time>2022-05-21 20:22:02</time>
      </trkpt>
      <trkpt lat="42.37939" lon="2.48507">
        <ele>1239.8</ele>
        <time>2022-05-21 20:22:03</time>
      </trkpt>
      <trkpt lat="42.37938" lon="2.48504">
        <ele>1240</ele>
        <time>2022-05-21 20:22:04</time>
      </trkpt>
      <trkpt lat="42.37937" lon="2.485">
        <ele>1240.2</ele>
        <time>2022-05-21 20:22:05</time>
      </trkpt>
      <trkpt lat="42.37935" lon="2.48496">
        <ele>1240.4</ele>
        <time>2022-05-21 20:22:06</time>
      </trkpt>
      <trkpt lat="42.37934" lon="2.48492">
        <ele>1240.4</ele>
        <time>2022-05-21 20:22:07</time>
      </trkpt>
      <trkpt lat="42.37933" lon="2.48488">
        <ele>1240.6</ele>
        <time>2022-05-21 20:22:08</time>
      </trkpt>
      <trkpt lat="42.37931" lon="2.48484">
        <ele>1240.6</ele>
        <time>2022-05-21 20:22:09</time>
      </trkpt>
      <trkpt lat="42.3793" lon="2.4848">
        <ele>1240.8</ele>
        <time>2022-05-21 20:22:10</time>
      </trkpt>
      <trkpt lat="42.37929" lon="2.48477">
        <ele>1240.8</ele>
        <time>2022-05-21 20:22:11</time>
      </trkpt>
      <trkpt lat="42.37927" lon="2.48473">
        <ele>1241</ele>
        <time>2022-05-21 20:22:12</time>
      </trkpt>
      <trkpt lat="42.37926" lon="2.4847">
        <ele>1241</ele>
        <time>2022-05-21 20:22:13</time>
      </trkpt>
      <trkpt lat="42.37925" lon="2.48467">
        <ele>1241.2</ele>
        <time>2022-05-21 20:22:14</time>
      </trkpt>
      <trkpt lat="42.37924" lon="2.48464">
        <ele>1241.4</ele>
        <time>2022-05-21 20:22:15</time>
      </trkpt>
      <trkpt lat="42.37922" lon="2.48461">
        <ele>1241.4</ele>
        <time>2022-05-21 20:22:16</time>
      </trkpt>
      <trkpt lat="42.3792" lon="2.48459">
        <ele>1241.6</ele>
        <time>2022-05-21 20:22:17</time>
      </trkpt>
      <trkpt lat="42.37918" lon="2.48456">
        <ele>1241.8</ele>
        <time>2022-05-21 20:22:18</time>
      </trkpt>
      <trkpt lat="42.37916" lon="2.48453">
        <ele>1241.8</ele>
        <time>2022-05-21 20:22:19</time>
      </trkpt>
      <trkpt lat="42.37913" lon="2.4845">
        <ele>1242</ele>
        <time>2022-05-21 20:22:20</time>
      </trkpt>
      <trkpt lat="42.37911" lon="2.48446">
        <ele>1242</ele>
        <time>2022-05-21 20:22:21</time>
      </trkpt>
      <trkpt lat="42.37909" lon="2.48443">
        <ele>1242.2</ele>
        <time>2022-05-21 20:22:22</time>
      </trkpt>
      <trkpt lat="42.37906" lon="2.48439">
        <ele>1242.2</ele>
        <time>2022-05-21 20:22:23</time>
      </trkpt>
      <trkpt lat="42.37904" lon="2.48436">
        <ele>1242.4</ele>
        <time>2022-05-21 20:22:24</time>
      </trkpt>
      <trkpt lat="42.37901" lon="2.48432">
        <ele>1242.6</ele>
        <time>2022-05-21 20:22:25</time>
      </trkpt>
      <trkpt lat="42.37897" lon="2.48429">
        <ele>1242.6</ele>
        <time>2022-05-21 20:22:26</time>
      </trkpt>
      <trkpt lat="42.37894" lon="2.48426">
        <ele>1242.8</ele>
        <time>2022-05-21 20:22:27</time>
      </trkpt>
      <trkpt lat="42.37891" lon="2.48423">
        <ele>1242.8</ele>
        <time>2022-05-21 20:22:28</time>
      </trkpt>
      <trkpt lat="42.37888" lon="2.48421">
        <ele>1243</ele>
        <time>2022-05-21 20:22:29</time>
      </trkpt>
      <trkpt lat="42.37885" lon="2.48418">
        <ele>1243</ele>
        <time>2022-05-21 20:22:30</time>
      </trkpt>
      <trkpt lat="42.37882" lon="2.48415">
        <ele>1243</ele>
        <time>2022-05-21 20:22:31</time>
      </trkpt>
      <trkpt lat="42.37879" lon="2.48413">
        <ele>1243.2</ele>
        <time>2022-05-21 20:22:32</time>
      </trkpt>
      <trkpt lat="42.37876" lon="2.4841">
        <ele>1243.2</ele>
        <time>2022-05-21 20:22:33</time>
      </trkpt>
      <trkpt lat="42.37873" lon="2.48407">
        <ele>1243.2</ele>
        <time>2022-05-21 20:22:34</time>
      </trkpt>
      <trkpt lat="42.3787" lon="2.48404">
        <ele>1243.2</ele>
        <time>2022-05-21 20:22:35</time>
      </trkpt>
      <trkpt lat="42.37867" lon="2.48401">
        <ele>1243.4</ele>
        <time>2022-05-21 20:22:36</time>
      </trkpt>
      <trkpt lat="42.37863" lon="2.48398">
        <ele>1243.4</ele>
        <time>2022-05-21 20:22:37</time>
      </trkpt>
      <trkpt lat="42.3786" lon="2.48394">
        <ele>1243.4</ele>
        <time>2022-05-21 20:22:38</time>
      </trkpt>
      <trkpt lat="42.37857" lon="2.48391">
        <ele>1243.4</ele>
        <time>2022-05-21 20:22:39</time>
      </trkpt>
      <trkpt lat="42.37853" lon="2.48387">
        <ele>1243.6</ele>
        <time>2022-05-21 20:22:40</time>
      </trkpt>
      <trkpt lat="42.3785" lon="2.48383">
        <ele>1243.6</ele>
        <time>2022-05-21 20:22:41</time>
      </trkpt>
      <trkpt lat="42.37847" lon="2.48379">
        <ele>1243.6</ele>
        <time>2022-05-21 20:22:42</time>
      </trkpt>
      <trkpt lat="42.37844" lon="2.48376">
        <ele>1243.6</ele>
        <time>2022-05-21 20:22:43</time>
      </trkpt>
      <trkpt lat="42.37841" lon="2.48372">
        <ele>1243.6</ele>
        <time>2022-05-21 20:22:44</time>
      </trkpt>
      <trkpt lat="42.37839" lon="2.48368">
        <ele>1243.4</ele>
        <time>2022-05-21 20:22:45</time>
      </trkpt>
      <trkpt lat="42.37837" lon="2.48363">
        <ele>1243.4</ele>
        <time>2022-05-21 20:22:46</time>
      </trkpt>
      <trkpt lat="42.37836" lon="2.48358">
        <ele>1243.4</ele>
        <time>2022-05-21 20:22:47</time>
      </trkpt>
      <trkpt lat="42.37834" lon="2.48353">
        <ele>1243.4</ele>
        <time>2022-05-21 20:22:48</time>
      </trkpt>
      <trkpt lat="42.37832" lon="2.48348">
        <ele>1243.4</ele>
        <time>2022-05-21 20:22:49</time>
      </trkpt>
      <trkpt lat="42.37831" lon="2.48344">
        <ele>1243.4</ele>
        <time>2022-05-21 20:22:50</time>
      </trkpt>
      <trkpt lat="42.3783" lon="2.48339">
        <ele>1243.4</ele>
        <time>2022-05-21 20:22:51</time>
      </trkpt>
      <trkpt lat="42.37828" lon="2.48334">
        <ele>1243.4</ele>
        <time>2022-05-21 20:22:52</time>
      </trkpt>
      <trkpt lat="42.37827" lon="2.48329">
        <ele>1243.4</ele>
        <time>2022-05-21 20:22:53</time>
      </trkpt>
      <trkpt lat="42.37826" lon="2.48325">
        <ele>1243.4</ele>
        <time>2022-05-21 20:22:54</time>
      </trkpt>
      <trkpt lat="42.37824" lon="2.48321">
        <ele>1243.4</ele>
        <time>2022-05-21 20:22:55</time>
      </trkpt>
      <trkpt lat="42.37823" lon="2.48316">
        <ele>1243.4</ele>
        <time>2022-05-21 20:22:56</time>
      </trkpt>
      <trkpt lat="42.37822" lon="2.48312">
        <ele>1243.4</ele>
        <time>2022-05-21 20:22:57</time>
      </trkpt>
      <trkpt lat="42.37822" lon="2.48307">
        <ele>1243.4</ele>
        <time>2022-05-21 20:22:58</time>
      </trkpt>
      <trkpt lat="42.37821" lon="2.48301">
        <ele>1243.4</ele>
        <time>2022-05-21 20:22:59</time>
      </trkpt>
      <trkpt lat="42.3782" lon="2.48296">
        <ele>1243.6</ele>
        <time>2022-05-21 20:23:00</time>
      </trkpt>
      <trkpt lat="42.37819" lon="2.4829">
        <ele>1243.4</ele>
        <time>2022-05-21 20:23:01</time>
      </trkpt>
      <trkpt lat="42.37818" lon="2.48283">
        <ele>1243.4</ele>
        <time>2022-05-21 20:23:02</time>
      </trkpt>
      <trkpt lat="42.37817" lon="2.48278">
        <ele>1243.4</ele>
        <time>2022-05-21 20:23:03</time>
      </trkpt>
      <trkpt lat="42.37817" lon="2.48272">
        <ele>1243.4</ele>
        <time>2022-05-21 20:23:04</time>
      </trkpt>
      <trkpt lat="42.37816" lon="2.48266">
        <ele>1243.4</ele>
        <time>2022-05-21 20:23:05</time>
      </trkpt>
      <trkpt lat="42.37815" lon="2.48261">
        <ele>1243.4</ele>
        <time>2022-05-21 20:23:06</time>
      </trkpt>
      <trkpt lat="42.37814" lon="2.48255">
        <ele>1243.4</ele>
        <time>2022-05-21 20:23:07</time>
      </trkpt>
      <trkpt lat="42.37813" lon="2.48248">
        <ele>1243.4</ele>
        <time>2022-05-21 20:23:08</time>
      </trkpt>
      <trkpt lat="42.37812" lon="2.48242">
        <ele>1243.4</ele>
        <time>2022-05-21 20:23:09</time>
      </trkpt>
      <trkpt lat="42.37812" lon="2.48236">
        <ele>1243.4</ele>
        <time>2022-05-21 20:23:10</time>
      </trkpt>
      <trkpt lat="42.37811" lon="2.48231">
        <ele>1243.4</ele>
        <time>2022-05-21 20:23:11</time>
      </trkpt>
      <trkpt lat="42.3781" lon="2.48225">
        <ele>1243.4</ele>
        <time>2022-05-21 20:23:12</time>
      </trkpt>
      <trkpt lat="42.37809" lon="2.48219">
        <ele>1243.4</ele>
        <time>2022-05-21 20:23:13</time>
      </trkpt>
      <trkpt lat="42.37808" lon="2.48213">
        <ele>1243.4</ele>
        <time>2022-05-21 20:23:14</time>
      </trkpt>
      <trkpt lat="42.37808" lon="2.48207">
        <ele>1243.4</ele>
        <time>2022-05-21 20:23:15</time>
      </trkpt>
      <trkpt lat="42.37807" lon="2.48201">
        <ele>1243.4</ele>
        <time>2022-05-21 20:23:16</time>
      </trkpt>
      <trkpt lat="42.37806" lon="2.48194">
        <ele>1243.4</ele>
        <time>2022-05-21 20:23:17</time>
      </trkpt>
      <trkpt lat="42.37805" lon="2.48188">
        <ele>1243.4</ele>
        <time>2022-05-21 20:23:18</time>
      </trkpt>
      <trkpt lat="42.37804" lon="2.48183">
        <ele>1243.4</ele>
        <time>2022-05-21 20:23:19</time>
      </trkpt>
      <trkpt lat="42.37804" lon="2.48178">
        <ele>1243.4</ele>
        <time>2022-05-21 20:23:20</time>
      </trkpt>
      <trkpt lat="42.37803" lon="2.48172">
        <ele>1243.4</ele>
        <time>2022-05-21 20:23:21</time>
      </trkpt>
      <trkpt lat="42.37802" lon="2.48167">
        <ele>1243.6</ele>
        <time>2022-05-21 20:23:22</time>
      </trkpt>
      <trkpt lat="42.37802" lon="2.48161">
        <ele>1243.6</ele>
        <time>2022-05-21 20:23:23</time>
      </trkpt>
      <trkpt lat="42.37801" lon="2.48156">
        <ele>1243.8</ele>
        <time>2022-05-21 20:23:24</time>
      </trkpt>
      <trkpt lat="42.37801" lon="2.48151">
        <ele>1243.8</ele>
        <time>2022-05-21 20:23:25</time>
      </trkpt>
      <trkpt lat="42.378" lon="2.48145">
        <ele>1243.8</ele>
        <time>2022-05-21 20:23:26</time>
      </trkpt>
      <trkpt lat="42.378" lon="2.48139">
        <ele>1244</ele>
        <time>2022-05-21 20:23:27</time>
      </trkpt>
      <trkpt lat="42.37799" lon="2.48133">
        <ele>1244</ele>
        <time>2022-05-21 20:23:28</time>
      </trkpt>
      <trkpt lat="42.37798" lon="2.48128">
        <ele>1244</ele>
        <time>2022-05-21 20:23:29</time>
      </trkpt>
      <trkpt lat="42.37797" lon="2.48121">
        <ele>1244</ele>
        <time>2022-05-21 20:23:30</time>
      </trkpt>
      <trkpt lat="42.37796" lon="2.48116">
        <ele>1243.8</ele>
        <time>2022-05-21 20:23:31</time>
      </trkpt>
      <trkpt lat="42.37795" lon="2.4811">
        <ele>1243.8</ele>
        <time>2022-05-21 20:23:32</time>
      </trkpt>
      <trkpt lat="42.37794" lon="2.48104">
        <ele>1243.8</ele>
        <time>2022-05-21 20:23:33</time>
      </trkpt>
      <trkpt lat="42.37792" lon="2.48098">
        <ele>1243.8</ele>
        <time>2022-05-21 20:23:34</time>
      </trkpt>
      <trkpt lat="42.37791" lon="2.48093">
        <ele>1243.8</ele>
        <time>2022-05-21 20:23:35</time>
      </trkpt>
      <trkpt lat="42.37789" lon="2.48088">
        <ele>1243.8</ele>
        <time>2022-05-21 20:23:36</time>
      </trkpt>
      <trkpt lat="42.37787" lon="2.48083">
        <ele>1243.8</ele>
        <time>2022-05-21 20:23:37</time>
      </trkpt>
      <trkpt lat="42.37786" lon="2.48078">
        <ele>1243.8</ele>
        <time>2022-05-21 20:23:38</time>
      </trkpt>
      <trkpt lat="42.37785" lon="2.48073">
        <ele>1243.8</ele>
        <time>2022-05-21 20:23:39</time>
      </trkpt>
      <trkpt lat="42.37783" lon="2.48067">
        <ele>1244</ele>
        <time>2022-05-21 20:23:40</time>
      </trkpt>
      <trkpt lat="42.37781" lon="2.48062">
        <ele>1244</ele>
        <time>2022-05-21 20:23:41</time>
      </trkpt>
      <trkpt lat="42.37779" lon="2.48056">
        <ele>1244</ele>
        <time>2022-05-21 20:23:42</time>
      </trkpt>
      <trkpt lat="42.37777" lon="2.48051">
        <ele>1244</ele>
        <time>2022-05-21 20:23:43</time>
      </trkpt>
      <trkpt lat="42.37775" lon="2.48045">
        <ele>1244</ele>
        <time>2022-05-21 20:23:44</time>
      </trkpt>
      <trkpt lat="42.37773" lon="2.48039">
        <ele>1244.2</ele>
        <time>2022-05-21 20:23:45</time>
      </trkpt>
      <trkpt lat="42.37771" lon="2.48034">
        <ele>1244.2</ele>
        <time>2022-05-21 20:23:46</time>
      </trkpt>
      <trkpt lat="42.37769" lon="2.48028">
        <ele>1244.4</ele>
        <time>2022-05-21 20:23:47</time>
      </trkpt>
      <trkpt lat="42.37766" lon="2.48022">
        <ele>1244.4</ele>
        <time>2022-05-21 20:23:48</time>
      </trkpt>
      <trkpt lat="42.37764" lon="2.48017">
        <ele>1244.4</ele>
        <time>2022-05-21 20:23:49</time>
      </trkpt>
      <trkpt lat="42.37762" lon="2.48012">
        <ele>1244.4</ele>
        <time>2022-05-21 20:23:50</time>
      </trkpt>
      <trkpt lat="42.3776" lon="2.48008">
        <ele>1244.4</ele>
        <time>2022-05-21 20:23:51</time>
      </trkpt>
      <trkpt lat="42.37759" lon="2.48003">
        <ele>1244.4</ele>
        <time>2022-05-21 20:23:52</time>
      </trkpt>
      <trkpt lat="42.37757" lon="2.47998">
        <ele>1244.4</ele>
        <time>2022-05-21 20:23:53</time>
      </trkpt>
      <trkpt lat="42.37755" lon="2.47993">
        <ele>1244.6</ele>
        <time>2022-05-21 20:23:54</time>
      </trkpt>
      <trkpt lat="42.37753" lon="2.47988">
        <ele>1244.6</ele>
        <time>2022-05-21 20:23:55</time>
      </trkpt>
      <trkpt lat="42.3775" lon="2.47982">
        <ele>1244.6</ele>
        <time>2022-05-21 20:23:56</time>
      </trkpt>
      <trkpt lat="42.37747" lon="2.47976">
        <ele>1244.6</ele>
        <time>2022-05-21 20:23:57</time>
      </trkpt>
      <trkpt lat="42.37745" lon="2.4797">
        <ele>1244.6</ele>
        <time>2022-05-21 20:23:58</time>
      </trkpt>
      <trkpt lat="42.37741" lon="2.47964">
        <ele>1244.4</ele>
        <time>2022-05-21 20:23:59</time>
      </trkpt>
      <trkpt lat="42.37738" lon="2.47959">
        <ele>1244.4</ele>
        <time>2022-05-21 20:24:00</time>
      </trkpt>
      <trkpt lat="42.37733" lon="2.47955">
        <ele>1244.4</ele>
        <time>2022-05-21 20:24:01</time>
      </trkpt>
      <trkpt lat="42.37729" lon="2.47952">
        <ele>1244.2</ele>
        <time>2022-05-21 20:24:02</time>
      </trkpt>
      <trkpt lat="42.37725" lon="2.47948">
        <ele>1244.2</ele>
        <time>2022-05-21 20:24:03</time>
      </trkpt>
      <trkpt lat="42.3772" lon="2.47945">
        <ele>1244.2</ele>
        <time>2022-05-21 20:24:04</time>
      </trkpt>
      <trkpt lat="42.37714" lon="2.47943">
        <ele>1244</ele>
        <time>2022-05-21 20:24:05</time>
      </trkpt>
      <trkpt lat="42.37709" lon="2.4794">
        <ele>1244</ele>
        <time>2022-05-21 20:24:06</time>
      </trkpt>
      <trkpt lat="42.37703" lon="2.47938">
        <ele>1243.8</ele>
        <time>2022-05-21 20:24:07</time>
      </trkpt>
      <trkpt lat="42.37698" lon="2.47935">
        <ele>1243.8</ele>
        <time>2022-05-21 20:24:08</time>
      </trkpt>
      <trkpt lat="42.37693" lon="2.47933">
        <ele>1243.8</ele>
        <time>2022-05-21 20:24:09</time>
      </trkpt>
      <trkpt lat="42.37687" lon="2.47931">
        <ele>1243.8</ele>
        <time>2022-05-21 20:24:10</time>
      </trkpt>
      <trkpt lat="42.37682" lon="2.47929">
        <ele>1243.6</ele>
        <time>2022-05-21 20:24:11</time>
      </trkpt>
      <trkpt lat="42.37677" lon="2.47927">
        <ele>1243.6</ele>
        <time>2022-05-21 20:24:12</time>
      </trkpt>
      <trkpt lat="42.37673" lon="2.47925">
        <ele>1243.6</ele>
        <time>2022-05-21 20:24:13</time>
      </trkpt>
      <trkpt lat="42.37668" lon="2.47924">
        <ele>1243.6</ele>
        <time>2022-05-21 20:24:14</time>
      </trkpt>
      <trkpt lat="42.37664" lon="2.47922">
        <ele>1243.6</ele>
        <time>2022-05-21 20:24:15</time>
      </trkpt>
      <trkpt lat="42.37658" lon="2.4792">
        <ele>1243.6</ele>
        <time>2022-05-21 20:24:16</time>
      </trkpt>
      <trkpt lat="42.37654" lon="2.47917">
        <ele>1243.6</ele>
        <time>2022-05-21 20:24:17</time>
      </trkpt>
      <trkpt lat="42.3765" lon="2.47913">
        <ele>1243.6</ele>
        <time>2022-05-21 20:24:18</time>
      </trkpt>
      <trkpt lat="42.37646" lon="2.47909">
        <ele>1243.6</ele>
        <time>2022-05-21 20:24:19</time>
      </trkpt>
      <trkpt lat="42.37643" lon="2.47905">
        <ele>1243.8</ele>
        <time>2022-05-21 20:24:20</time>
      </trkpt>
      <trkpt lat="42.3764" lon="2.479">
        <ele>1243.8</ele>
        <time>2022-05-21 20:24:21</time>
      </trkpt>
      <trkpt lat="42.37638" lon="2.47894">
        <ele>1243.8</ele>
        <time>2022-05-21 20:24:22</time>
      </trkpt>
      <trkpt lat="42.37636" lon="2.47889">
        <ele>1244</ele>
        <time>2022-05-21 20:24:23</time>
      </trkpt>
      <trkpt lat="42.37635" lon="2.47882">
        <ele>1244</ele>
        <time>2022-05-21 20:24:24</time>
      </trkpt>
      <trkpt lat="42.37634" lon="2.47876">
        <ele>1244.2</ele>
        <time>2022-05-21 20:24:25</time>
      </trkpt>
      <trkpt lat="42.37634" lon="2.47869">
        <ele>1244.4</ele>
        <time>2022-05-21 20:24:26</time>
      </trkpt>
      <trkpt lat="42.37634" lon="2.47863">
        <ele>1244.6</ele>
        <time>2022-05-21 20:24:27</time>
      </trkpt>
      <trkpt lat="42.37634" lon="2.47858">
        <ele>1244.8</ele>
        <time>2022-05-21 20:24:28</time>
      </trkpt>
      <trkpt lat="42.37635" lon="2.47852">
        <ele>1245</ele>
        <time>2022-05-21 20:24:29</time>
      </trkpt>
      <trkpt lat="42.37636" lon="2.47848">
        <ele>1245.2</ele>
        <time>2022-05-21 20:24:30</time>
      </trkpt>
      <trkpt lat="42.37638" lon="2.47844">
        <ele>1245.4</ele>
        <time>2022-05-21 20:24:31</time>
      </trkpt>
      <trkpt lat="42.37639" lon="2.4784">
        <ele>1245.6</ele>
        <time>2022-05-21 20:24:32</time>
      </trkpt>
      <trkpt lat="42.3764" lon="2.47837">
        <ele>1245.8</ele>
        <time>2022-05-21 20:24:33</time>
      </trkpt>
      <trkpt lat="42.37641" lon="2.47834">
        <ele>1246</ele>
        <time>2022-05-21 20:24:34</time>
      </trkpt>
      <trkpt lat="42.37642" lon="2.4783">
        <ele>1246.2</ele>
        <time>2022-05-21 20:24:35</time>
      </trkpt>
      <trkpt lat="42.37642" lon="2.47826">
        <ele>1246.4</ele>
        <time>2022-05-21 20:24:36</time>
      </trkpt>
      <trkpt lat="42.37643" lon="2.47823">
        <ele>1246.6</ele>
        <time>2022-05-21 20:24:37</time>
      </trkpt>
      <trkpt lat="42.37644" lon="2.4782">
        <ele>1246.8</ele>
        <time>2022-05-21 20:24:38</time>
      </trkpt>
      <trkpt lat="42.37645" lon="2.47816">
        <ele>1246.8</ele>
        <time>2022-05-21 20:24:39</time>
      </trkpt>
      <trkpt lat="42.37646" lon="2.47813">
        <ele>1247</ele>
        <time>2022-05-21 20:24:40</time>
      </trkpt>
      <trkpt lat="42.37647" lon="2.4781">
        <ele>1247.2</ele>
        <time>2022-05-21 20:24:41</time>
      </trkpt>
      <trkpt lat="42.37648" lon="2.47806">
        <ele>1247.4</ele>
        <time>2022-05-21 20:24:42</time>
      </trkpt>
      <trkpt lat="42.37648" lon="2.47804">
        <ele>1247.6</ele>
        <time>2022-05-21 20:24:43</time>
      </trkpt>
      <trkpt lat="42.37649" lon="2.47801">
        <ele>1247.8</ele>
        <time>2022-05-21 20:24:44</time>
      </trkpt>
      <trkpt lat="42.3765" lon="2.47799">
        <ele>1247.8</ele>
        <time>2022-05-21 20:24:45</time>
      </trkpt>
      <trkpt lat="42.37652" lon="2.47797">
        <ele>1248</ele>
        <time>2022-05-21 20:24:46</time>
      </trkpt>
      <trkpt lat="42.37653" lon="2.47794">
        <ele>1248.2</ele>
        <time>2022-05-21 20:24:47</time>
      </trkpt>
      <trkpt lat="42.37654" lon="2.47792">
        <ele>1248.2</ele>
        <time>2022-05-21 20:24:48</time>
      </trkpt>
      <trkpt lat="42.37655" lon="2.47789">
        <ele>1248.4</ele>
        <time>2022-05-21 20:24:49</time>
      </trkpt>
      <trkpt lat="42.37657" lon="2.47787">
        <ele>1248.4</ele>
        <time>2022-05-21 20:24:50</time>
      </trkpt>
      <trkpt lat="42.37658" lon="2.47784">
        <ele>1248.6</ele>
        <time>2022-05-21 20:24:51</time>
      </trkpt>
      <trkpt lat="42.37659" lon="2.47781">
        <ele>1248.8</ele>
        <time>2022-05-21 20:24:52</time>
      </trkpt>
      <trkpt lat="42.3766" lon="2.47778">
        <ele>1248.8</ele>
        <time>2022-05-21 20:24:53</time>
      </trkpt>
      <trkpt lat="42.37661" lon="2.47776">
        <ele>1249</ele>
        <time>2022-05-21 20:24:54</time>
      </trkpt>
      <trkpt lat="42.37662" lon="2.47773">
        <ele>1249</ele>
        <time>2022-05-21 20:24:55</time>
      </trkpt>
      <trkpt lat="42.37663" lon="2.47771">
        <ele>1249.2</ele>
        <time>2022-05-21 20:24:56</time>
      </trkpt>
      <trkpt lat="42.37664" lon="2.47768">
        <ele>1249.4</ele>
        <time>2022-05-21 20:24:57</time>
      </trkpt>
      <trkpt lat="42.37665" lon="2.47765">
        <ele>1249.6</ele>
        <time>2022-05-21 20:24:58</time>
      </trkpt>
      <trkpt lat="42.37666" lon="2.47762">
        <ele>1249.6</ele>
        <time>2022-05-21 20:24:59</time>
      </trkpt>
      <trkpt lat="42.37666" lon="2.47759">
        <ele>1249.8</ele>
        <time>2022-05-21 20:25:00</time>
      </trkpt>
      <trkpt lat="42.37668" lon="2.47756">
        <ele>1249.8</ele>
        <time>2022-05-21 20:25:01</time>
      </trkpt>
      <trkpt lat="42.37669" lon="2.47754">
        <ele>1250</ele>
        <time>2022-05-21 20:25:02</time>
      </trkpt>
      <trkpt lat="42.3767" lon="2.47751">
        <ele>1250</ele>
        <time>2022-05-21 20:25:03</time>
      </trkpt>
      <trkpt lat="42.37672" lon="2.47748">
        <ele>1250</ele>
        <time>2022-05-21 20:25:04</time>
      </trkpt>
      <trkpt lat="42.37673" lon="2.47745">
        <ele>1250.2</ele>
        <time>2022-05-21 20:25:05</time>
      </trkpt>
      <trkpt lat="42.37674" lon="2.47743">
        <ele>1250.4</ele>
        <time>2022-05-21 20:25:06</time>
      </trkpt>
      <trkpt lat="42.37675" lon="2.4774">
        <ele>1250.6</ele>
        <time>2022-05-21 20:25:07</time>
      </trkpt>
      <trkpt lat="42.37676" lon="2.47737">
        <ele>1250.8</ele>
        <time>2022-05-21 20:25:08</time>
      </trkpt>
      <trkpt lat="42.37677" lon="2.47734">
        <ele>1250.8</ele>
        <time>2022-05-21 20:25:09</time>
      </trkpt>
      <trkpt lat="42.37678" lon="2.47731">
        <ele>1251</ele>
        <time>2022-05-21 20:25:10</time>
      </trkpt>
      <trkpt lat="42.37679" lon="2.47729">
        <ele>1251</ele>
        <time>2022-05-21 20:25:11</time>
      </trkpt>
      <trkpt lat="42.3768" lon="2.47725">
        <ele>1251.2</ele>
        <time>2022-05-21 20:25:12</time>
      </trkpt>
      <trkpt lat="42.37681" lon="2.47722">
        <ele>1251.2</ele>
        <time>2022-05-21 20:25:13</time>
      </trkpt>
      <trkpt lat="42.37682" lon="2.47719">
        <ele>1251.2</ele>
        <time>2022-05-21 20:25:14</time>
      </trkpt>
      <trkpt lat="42.37683" lon="2.47716">
        <ele>1251.4</ele>
        <time>2022-05-21 20:25:15</time>
      </trkpt>
      <trkpt lat="42.37684" lon="2.47714">
        <ele>1251.4</ele>
        <time>2022-05-21 20:25:16</time>
      </trkpt>
      <trkpt lat="42.37685" lon="2.47711">
        <ele>1251.6</ele>
        <time>2022-05-21 20:25:17</time>
      </trkpt>
      <trkpt lat="42.37686" lon="2.47708">
        <ele>1251.8</ele>
        <time>2022-05-21 20:25:18</time>
      </trkpt>
      <trkpt lat="42.37687" lon="2.47705">
        <ele>1251.8</ele>
        <time>2022-05-21 20:25:19</time>
      </trkpt>
      <trkpt lat="42.37687" lon="2.47702">
        <ele>1252</ele>
        <time>2022-05-21 20:25:20</time>
      </trkpt>
      <trkpt lat="42.37688" lon="2.47699">
        <ele>1252</ele>
        <time>2022-05-21 20:25:21</time>
      </trkpt>
      <trkpt lat="42.37689" lon="2.47696">
        <ele>1252.2</ele>
        <time>2022-05-21 20:25:22</time>
      </trkpt>
      <trkpt lat="42.3769" lon="2.47693">
        <ele>1252.2</ele>
        <time>2022-05-21 20:25:23</time>
      </trkpt>
      <trkpt lat="42.37691" lon="2.4769">
        <ele>1252.4</ele>
        <time>2022-05-21 20:25:24</time>
      </trkpt>
      <trkpt lat="42.37691" lon="2.47687">
        <ele>1252.6</ele>
        <time>2022-05-21 20:25:25</time>
      </trkpt>
      <trkpt lat="42.37692" lon="2.47684">
        <ele>1252.6</ele>
        <time>2022-05-21 20:25:26</time>
      </trkpt>
      <trkpt lat="42.37693" lon="2.47681">
        <ele>1252.8</ele>
        <time>2022-05-21 20:25:27</time>
      </trkpt>
      <trkpt lat="42.37694" lon="2.47678">
        <ele>1253</ele>
        <time>2022-05-21 20:25:28</time>
      </trkpt>
      <trkpt lat="42.37695" lon="2.47675">
        <ele>1253</ele>
        <time>2022-05-21 20:25:29</time>
      </trkpt>
      <trkpt lat="42.37695" lon="2.47672">
        <ele>1253.2</ele>
        <time>2022-05-21 20:25:30</time>
      </trkpt>
      <trkpt lat="42.37696" lon="2.47669">
        <ele>1253.2</ele>
        <time>2022-05-21 20:25:31</time>
      </trkpt>
      <trkpt lat="42.37696" lon="2.47666">
        <ele>1253.4</ele>
        <time>2022-05-21 20:25:32</time>
      </trkpt>
      <trkpt lat="42.37697" lon="2.47663">
        <ele>1253.4</ele>
        <time>2022-05-21 20:25:33</time>
      </trkpt>
      <trkpt lat="42.37698" lon="2.4766">
        <ele>1253.6</ele>
        <time>2022-05-21 20:25:34</time>
      </trkpt>
      <trkpt lat="42.37698" lon="2.47656">
        <ele>1253.6</ele>
        <time>2022-05-21 20:25:35</time>
      </trkpt>
      <trkpt lat="42.37699" lon="2.47653">
        <ele>1253.8</ele>
        <time>2022-05-21 20:25:36</time>
      </trkpt>
      <trkpt lat="42.37699" lon="2.4765">
        <ele>1253.8</ele>
        <time>2022-05-21 20:25:37</time>
      </trkpt>
      <trkpt lat="42.377" lon="2.47647">
        <ele>1254</ele>
        <time>2022-05-21 20:25:38</time>
      </trkpt>
      <trkpt lat="42.377" lon="2.47643">
        <ele>1254.2</ele>
        <time>2022-05-21 20:25:39</time>
      </trkpt>
      <trkpt lat="42.37701" lon="2.4764">
        <ele>1254.2</ele>
        <time>2022-05-21 20:25:40</time>
      </trkpt>
      <trkpt lat="42.37701" lon="2.47637">
        <ele>1254.4</ele>
        <time>2022-05-21 20:25:41</time>
      </trkpt>
      <trkpt lat="42.37702" lon="2.47634">
        <ele>1254.4</ele>
        <time>2022-05-21 20:25:42</time>
      </trkpt>
      <trkpt lat="42.37702" lon="2.47631">
        <ele>1254.6</ele>
        <time>2022-05-21 20:25:43</time>
      </trkpt>
      <trkpt lat="42.37702" lon="2.47628">
        <ele>1254.6</ele>
        <time>2022-05-21 20:25:44</time>
      </trkpt>
      <trkpt lat="42.37702" lon="2.47624">
        <ele>1254.8</ele>
        <time>2022-05-21 20:25:45</time>
      </trkpt>
      <trkpt lat="42.37703" lon="2.47621">
        <ele>1254.8</ele>
        <time>2022-05-21 20:25:46</time>
      </trkpt>
      <trkpt lat="42.37703" lon="2.47618">
        <ele>1255</ele>
        <time>2022-05-21 20:25:47</time>
      </trkpt>
      <trkpt lat="42.37703" lon="2.47615">
        <ele>1255</ele>
        <time>2022-05-21 20:25:48</time>
      </trkpt>
      <trkpt lat="42.37703" lon="2.47611">
        <ele>1255.2</ele>
        <time>2022-05-21 20:25:49</time>
      </trkpt>
      <trkpt lat="42.37703" lon="2.47608">
        <ele>1255.2</ele>
        <time>2022-05-21 20:25:50</time>
      </trkpt>
      <trkpt lat="42.37703" lon="2.47605">
        <ele>1255.2</ele>
        <time>2022-05-21 20:25:51</time>
      </trkpt>
      <trkpt lat="42.37703" lon="2.47602">
        <ele>1255.4</ele>
        <time>2022-05-21 20:25:52</time>
      </trkpt>
      <trkpt lat="42.37703" lon="2.47599">
        <ele>1255.6</ele>
        <time>2022-05-21 20:25:53</time>
      </trkpt>
      <trkpt lat="42.37704" lon="2.47596">
        <ele>1255.8</ele>
        <time>2022-05-21 20:25:54</time>
      </trkpt>
      <trkpt lat="42.37704" lon="2.47593">
        <ele>1255.8</ele>
        <time>2022-05-21 20:25:55</time>
      </trkpt>
      <trkpt lat="42.37705" lon="2.4759">
        <ele>1256</ele>
        <time>2022-05-21 20:25:56</time>
      </trkpt>
      <trkpt lat="42.37705" lon="2.47586">
        <ele>1256.2</ele>
        <time>2022-05-21 20:25:57</time>
      </trkpt>
      <trkpt lat="42.37705" lon="2.47583">
        <ele>1256.4</ele>
        <time>2022-05-21 20:25:58</time>
      </trkpt>
      <trkpt lat="42.37705" lon="2.4758">
        <ele>1256.4</ele>
        <time>2022-05-21 20:25:59</time>
      </trkpt>
      <trkpt lat="42.37704" lon="2.47577">
        <ele>1256.4</ele>
        <time>2022-05-21 20:26:00</time>
      </trkpt>
      <trkpt lat="42.37704" lon="2.47573">
        <ele>1256.6</ele>
        <time>2022-05-21 20:26:01</time>
      </trkpt>
      <trkpt lat="42.37704" lon="2.4757">
        <ele>1256.8</ele>
        <time>2022-05-21 20:26:02</time>
      </trkpt>
      <trkpt lat="42.37704" lon="2.47567">
        <ele>1257</ele>
        <time>2022-05-21 20:26:03</time>
      </trkpt>
      <trkpt lat="42.37704" lon="2.47564">
        <ele>1257.2</ele>
        <time>2022-05-21 20:26:04</time>
      </trkpt>
      <trkpt lat="42.37704" lon="2.47561">
        <ele>1257.4</ele>
        <time>2022-05-21 20:26:05</time>
      </trkpt>
      <trkpt lat="42.37704" lon="2.47558">
        <ele>1257.6</ele>
        <time>2022-05-21 20:26:06</time>
      </trkpt>
      <trkpt lat="42.37704" lon="2.47555">
        <ele>1257.6</ele>
        <time>2022-05-21 20:26:07</time>
      </trkpt>
      <trkpt lat="42.37705" lon="2.47552">
        <ele>1257.8</ele>
        <time>2022-05-21 20:26:08</time>
      </trkpt>
      <trkpt lat="42.37705" lon="2.47549">
        <ele>1257.8</ele>
        <time>2022-05-21 20:26:09</time>
      </trkpt>
      <trkpt lat="42.37705" lon="2.47546">
        <ele>1258</ele>
        <time>2022-05-21 20:26:10</time>
      </trkpt>
      <trkpt lat="42.37704" lon="2.47543">
        <ele>1258.2</ele>
        <time>2022-05-21 20:26:11</time>
      </trkpt>
      <trkpt lat="42.37704" lon="2.4754">
        <ele>1258.4</ele>
        <time>2022-05-21 20:26:12</time>
      </trkpt>
      <trkpt lat="42.37704" lon="2.47537">
        <ele>1258.4</ele>
        <time>2022-05-21 20:26:13</time>
      </trkpt>
      <trkpt lat="42.37704" lon="2.47533">
        <ele>1258.6</ele>
        <time>2022-05-21 20:26:14</time>
      </trkpt>
      <trkpt lat="42.37704" lon="2.47531">
        <ele>1258.8</ele>
        <time>2022-05-21 20:26:15</time>
      </trkpt>
      <trkpt lat="42.37704" lon="2.47528">
        <ele>1258.8</ele>
        <time>2022-05-21 20:26:16</time>
      </trkpt>
      <trkpt lat="42.37704" lon="2.47525">
        <ele>1259</ele>
        <time>2022-05-21 20:26:17</time>
      </trkpt>
      <trkpt lat="42.37704" lon="2.47522">
        <ele>1259.2</ele>
        <time>2022-05-21 20:26:18</time>
      </trkpt>
      <trkpt lat="42.37703" lon="2.47519">
        <ele>1259.2</ele>
        <time>2022-05-21 20:26:19</time>
      </trkpt>
      <trkpt lat="42.37703" lon="2.47516">
        <ele>1259.2</ele>
        <time>2022-05-21 20:26:20</time>
      </trkpt>
      <trkpt lat="42.37703" lon="2.47513">
        <ele>1259.4</ele>
        <time>2022-05-21 20:26:21</time>
      </trkpt>
      <trkpt lat="42.37702" lon="2.4751">
        <ele>1259.6</ele>
        <time>2022-05-21 20:26:22</time>
      </trkpt>
      <trkpt lat="42.37702" lon="2.47506">
        <ele>1259.8</ele>
        <time>2022-05-21 20:26:23</time>
      </trkpt>
      <trkpt lat="42.37702" lon="2.47503">
        <ele>1260</ele>
        <time>2022-05-21 20:26:24</time>
      </trkpt>
      <trkpt lat="42.37702" lon="2.475">
        <ele>1260.2</ele>
        <time>2022-05-21 20:26:25</time>
      </trkpt>
      <trkpt lat="42.37701" lon="2.47498">
        <ele>1260.4</ele>
        <time>2022-05-21 20:26:26</time>
      </trkpt>
      <trkpt lat="42.37701" lon="2.47495">
        <ele>1260.6</ele>
        <time>2022-05-21 20:26:27</time>
      </trkpt>
      <trkpt lat="42.37701" lon="2.47492">
        <ele>1261</ele>
        <time>2022-05-21 20:26:28</time>
      </trkpt>
      <trkpt lat="42.37701" lon="2.4749">
        <ele>1261.2</ele>
        <time>2022-05-21 20:26:29</time>
      </trkpt>
      <trkpt lat="42.37701" lon="2.47487">
        <ele>1261.4</ele>
        <time>2022-05-21 20:26:30</time>
      </trkpt>
      <trkpt lat="42.37701" lon="2.47485">
        <ele>1261.6</ele>
        <time>2022-05-21 20:26:31</time>
      </trkpt>
      <trkpt lat="42.37701" lon="2.47482">
        <ele>1261.6</ele>
        <time>2022-05-21 20:26:32</time>
      </trkpt>
      <trkpt lat="42.37701" lon="2.47481">
        <ele>1261.8</ele>
        <time>2022-05-21 20:26:33</time>
      </trkpt>
      <trkpt lat="42.37701" lon="2.47477">
        <ele>1262</ele>
        <time>2022-05-21 20:26:34</time>
      </trkpt>
      <trkpt lat="42.37701" lon="2.47475">
        <ele>1262</ele>
        <time>2022-05-21 20:26:35</time>
      </trkpt>
      <trkpt lat="42.37701" lon="2.47473">
        <ele>1262.2</ele>
        <time>2022-05-21 20:26:36</time>
      </trkpt>
      <trkpt lat="42.37701" lon="2.47471">
        <ele>1262.4</ele>
        <time>2022-05-21 20:26:37</time>
      </trkpt>
      <trkpt lat="42.37701" lon="2.47468">
        <ele>1262.6</ele>
        <time>2022-05-21 20:26:38</time>
      </trkpt>
      <trkpt lat="42.37701" lon="2.47466">
        <ele>1262.8</ele>
        <time>2022-05-21 20:26:39</time>
      </trkpt>
      <trkpt lat="42.37701" lon="2.47463">
        <ele>1263</ele>
        <time>2022-05-21 20:26:40</time>
      </trkpt>
      <trkpt lat="42.37701" lon="2.47461">
        <ele>1263.2</ele>
        <time>2022-05-21 20:26:41</time>
      </trkpt>
      <trkpt lat="42.37701" lon="2.47459">
        <ele>1263.2</ele>
        <time>2022-05-21 20:26:42</time>
      </trkpt>
      <trkpt lat="42.37701" lon="2.47457">
        <ele>1263.4</ele>
        <time>2022-05-21 20:26:43</time>
      </trkpt>
      <trkpt lat="42.37701" lon="2.47454">
        <ele>1263.6</ele>
        <time>2022-05-21 20:26:44</time>
      </trkpt>
      <trkpt lat="42.37701" lon="2.47452">
        <ele>1263.6</ele>
        <time>2022-05-21 20:26:45</time>
      </trkpt>
      <trkpt lat="42.37701" lon="2.4745">
        <ele>1263.8</ele>
        <time>2022-05-21 20:26:46</time>
      </trkpt>
      <trkpt lat="42.37701" lon="2.47448">
        <ele>1263.8</ele>
        <time>2022-05-21 20:26:47</time>
      </trkpt>
      <trkpt lat="42.37701" lon="2.47446">
        <ele>1264</ele>
        <time>2022-05-21 20:26:48</time>
      </trkpt>
      <trkpt lat="42.37701" lon="2.47443">
        <ele>1264</ele>
        <time>2022-05-21 20:26:49</time>
      </trkpt>
      <trkpt lat="42.377" lon="2.47441">
        <ele>1264.2</ele>
        <time>2022-05-21 20:26:50</time>
      </trkpt>
      <trkpt lat="42.377" lon="2.47438">
        <ele>1264.4</ele>
        <time>2022-05-21 20:26:51</time>
      </trkpt>
      <trkpt lat="42.377" lon="2.47436">
        <ele>1264.6</ele>
        <time>2022-05-21 20:26:52</time>
      </trkpt>
      <trkpt lat="42.37701" lon="2.47433">
        <ele>1264.8</ele>
        <time>2022-05-21 20:26:53</time>
      </trkpt>
      <trkpt lat="42.37701" lon="2.47431">
        <ele>1265</ele>
        <time>2022-05-21 20:26:54</time>
      </trkpt>
      <trkpt lat="42.377" lon="2.47428">
        <ele>1265.2</ele>
        <time>2022-05-21 20:26:55</time>
      </trkpt>
      <trkpt lat="42.377" lon="2.47426">
        <ele>1265.2</ele>
        <time>2022-05-21 20:26:56</time>
      </trkpt>
      <trkpt lat="42.377" lon="2.47424">
        <ele>1265.4</ele>
        <time>2022-05-21 20:26:57</time>
      </trkpt>
      <trkpt lat="42.377" lon="2.47422">
        <ele>1265.6</ele>
        <time>2022-05-21 20:26:58</time>
      </trkpt>
      <trkpt lat="42.377" lon="2.4742">
        <ele>1265.8</ele>
        <time>2022-05-21 20:26:59</time>
      </trkpt>
      <trkpt lat="42.377" lon="2.47417">
        <ele>1266</ele>
        <time>2022-05-21 20:27:00</time>
      </trkpt>
      <trkpt lat="42.377" lon="2.47415">
        <ele>1266</ele>
        <time>2022-05-21 20:27:01</time>
      </trkpt>
      <trkpt lat="42.377" lon="2.47413">
        <ele>1266.2</ele>
        <time>2022-05-21 20:27:02</time>
      </trkpt>
      <trkpt lat="42.377" lon="2.47412">
        <ele>1266.4</ele>
        <time>2022-05-21 20:27:03</time>
      </trkpt>
      <trkpt lat="42.377" lon="2.4741">
        <ele>1266.6</ele>
        <time>2022-05-21 20:27:04</time>
      </trkpt>
      <trkpt lat="42.377" lon="2.47408">
        <ele>1266.8</ele>
        <time>2022-05-21 20:27:05</time>
      </trkpt>
      <trkpt lat="42.377" lon="2.47406">
        <ele>1267</ele>
        <time>2022-05-21 20:27:06</time>
      </trkpt>
      <trkpt lat="42.377" lon="2.47404">
        <ele>1267.2</ele>
        <time>2022-05-21 20:27:07</time>
      </trkpt>
      <trkpt lat="42.377" lon="2.47401">
        <ele>1267.2</ele>
        <time>2022-05-21 20:27:08</time>
      </trkpt>
      <trkpt lat="42.377" lon="2.47399">
        <ele>1267.4</ele>
        <time>2022-05-21 20:27:09</time>
      </trkpt>
      <trkpt lat="42.377" lon="2.47397">
        <ele>1267.4</ele>
        <time>2022-05-21 20:27:10</time>
      </trkpt>
      <trkpt lat="42.377" lon="2.47395">
        <ele>1267.6</ele>
        <time>2022-05-21 20:27:11</time>
      </trkpt>
      <trkpt lat="42.377" lon="2.47392">
        <ele>1267.8</ele>
        <time>2022-05-21 20:27:12</time>
      </trkpt>
      <trkpt lat="42.37701" lon="2.4739">
        <ele>1267.8</ele>
        <time>2022-05-21 20:27:13</time>
      </trkpt>
      <trkpt lat="42.37701" lon="2.47388">
        <ele>1268</ele>
        <time>2022-05-21 20:27:14</time>
      </trkpt>
      <trkpt lat="42.37701" lon="2.47385">
        <ele>1268.2</ele>
        <time>2022-05-21 20:27:15</time>
      </trkpt>
      <trkpt lat="42.37701" lon="2.47383">
        <ele>1268.4</ele>
        <time>2022-05-21 20:27:16</time>
      </trkpt>
      <trkpt lat="42.37701" lon="2.47381">
        <ele>1268.6</ele>
        <time>2022-05-21 20:27:17</time>
      </trkpt>
      <trkpt lat="42.377" lon="2.47379">
        <ele>1268.8</ele>
        <time>2022-05-21 20:27:18</time>
      </trkpt>
      <trkpt lat="42.377" lon="2.47377">
        <ele>1269</ele>
        <time>2022-05-21 20:27:19</time>
      </trkpt>
      <trkpt lat="42.377" lon="2.47375">
        <ele>1269.2</ele>
        <time>2022-05-21 20:27:20</time>
      </trkpt>
      <trkpt lat="42.377" lon="2.47373">
        <ele>1269.2</ele>
        <time>2022-05-21 20:27:21</time>
      </trkpt>
      <trkpt lat="42.377" lon="2.4737">
        <ele>1269.4</ele>
        <time>2022-05-21 20:27:22</time>
      </trkpt>
      <trkpt lat="42.37701" lon="2.47368">
        <ele>1269.6</ele>
        <time>2022-05-21 20:27:23</time>
      </trkpt>
      <trkpt lat="42.37702" lon="2.47365">
        <ele>1269.6</ele>
        <time>2022-05-21 20:27:24</time>
      </trkpt>
      <trkpt lat="42.37703" lon="2.47363">
        <ele>1269.8</ele>
        <time>2022-05-21 20:27:25</time>
      </trkpt>
      <trkpt lat="42.37703" lon="2.47361">
        <ele>1269.8</ele>
        <time>2022-05-21 20:27:26</time>
      </trkpt>
      <trkpt lat="42.37703" lon="2.47358">
        <ele>1270</ele>
        <time>2022-05-21 20:27:27</time>
      </trkpt>
      <trkpt lat="42.37703" lon="2.47356">
        <ele>1270.2</ele>
        <time>2022-05-21 20:27:28</time>
      </trkpt>
      <trkpt lat="42.37704" lon="2.47354">
        <ele>1270.4</ele>
        <time>2022-05-21 20:27:29</time>
      </trkpt>
      <trkpt lat="42.37705" lon="2.47352">
        <ele>1270.6</ele>
        <time>2022-05-21 20:27:30</time>
      </trkpt>
      <trkpt lat="42.37705" lon="2.4735">
        <ele>1270.8</ele>
        <time>2022-05-21 20:27:31</time>
      </trkpt>
      <trkpt lat="42.37705" lon="2.47348">
        <ele>1271</ele>
        <time>2022-05-21 20:27:32</time>
      </trkpt>
      <trkpt lat="42.37706" lon="2.47345">
        <ele>1271.2</ele>
        <time>2022-05-21 20:27:33</time>
      </trkpt>
      <trkpt lat="42.37706" lon="2.47342">
        <ele>1271.4</ele>
        <time>2022-05-21 20:27:34</time>
      </trkpt>
      <trkpt lat="42.37707" lon="2.4734">
        <ele>1271.6</ele>
        <time>2022-05-21 20:27:35</time>
      </trkpt>
      <trkpt lat="42.37707" lon="2.47338">
        <ele>1271.8</ele>
        <time>2022-05-21 20:27:36</time>
      </trkpt>
      <trkpt lat="42.37707" lon="2.47336">
        <ele>1272</ele>
        <time>2022-05-21 20:27:37</time>
      </trkpt>
      <trkpt lat="42.37707" lon="2.47334">
        <ele>1272.2</ele>
        <time>2022-05-21 20:27:38</time>
      </trkpt>
      <trkpt lat="42.37708" lon="2.47332">
        <ele>1272.4</ele>
        <time>2022-05-21 20:27:39</time>
      </trkpt>
      <trkpt lat="42.37708" lon="2.4733">
        <ele>1272.6</ele>
        <time>2022-05-21 20:27:40</time>
      </trkpt>
      <trkpt lat="42.37708" lon="2.47327">
        <ele>1272.8</ele>
        <time>2022-05-21 20:27:41</time>
      </trkpt>
      <trkpt lat="42.37708" lon="2.47325">
        <ele>1273</ele>
        <time>2022-05-21 20:27:42</time>
      </trkpt>
      <trkpt lat="42.37708" lon="2.47323">
        <ele>1273.2</ele>
        <time>2022-05-21 20:27:43</time>
      </trkpt>
      <trkpt lat="42.37709" lon="2.4732">
        <ele>1273.4</ele>
        <time>2022-05-21 20:27:44</time>
      </trkpt>
      <trkpt lat="42.37709" lon="2.47317">
        <ele>1273.6</ele>
        <time>2022-05-21 20:27:45</time>
      </trkpt>
      <trkpt lat="42.37709" lon="2.47314">
        <ele>1273.8</ele>
        <time>2022-05-21 20:27:46</time>
      </trkpt>
      <trkpt lat="42.3771" lon="2.47312">
        <ele>1273.8</ele>
        <time>2022-05-21 20:27:47</time>
      </trkpt>
      <trkpt lat="42.3771" lon="2.47309">
        <ele>1274</ele>
        <time>2022-05-21 20:27:48</time>
      </trkpt>
      <trkpt lat="42.3771" lon="2.47307">
        <ele>1274.2</ele>
        <time>2022-05-21 20:27:49</time>
      </trkpt>
      <trkpt lat="42.3771" lon="2.47304">
        <ele>1274.4</ele>
        <time>2022-05-21 20:27:50</time>
      </trkpt>
      <trkpt lat="42.37709" lon="2.47301">
        <ele>1274.6</ele>
        <time>2022-05-21 20:27:51</time>
      </trkpt>
      <trkpt lat="42.37709" lon="2.47299">
        <ele>1274.6</ele>
        <time>2022-05-21 20:27:52</time>
      </trkpt>
      <trkpt lat="42.37709" lon="2.47296">
        <ele>1274.8</ele>
        <time>2022-05-21 20:27:53</time>
      </trkpt>
      <trkpt lat="42.37708" lon="2.47294">
        <ele>1275</ele>
        <time>2022-05-21 20:27:54</time>
      </trkpt>
      <trkpt lat="42.37708" lon="2.47291">
        <ele>1275.2</ele>
        <time>2022-05-21 20:27:55</time>
      </trkpt>
      <trkpt lat="42.37708" lon="2.47289">
        <ele>1275.4</ele>
        <time>2022-05-21 20:27:56</time>
      </trkpt>
      <trkpt lat="42.37707" lon="2.47287">
        <ele>1275.6</ele>
        <time>2022-05-21 20:27:57</time>
      </trkpt>
      <trkpt lat="42.37707" lon="2.47284">
        <ele>1275.8</ele>
        <time>2022-05-21 20:27:58</time>
      </trkpt>
      <trkpt lat="42.37706" lon="2.47282">
        <ele>1276</ele>
        <time>2022-05-21 20:27:59</time>
      </trkpt>
      <trkpt lat="42.37705" lon="2.4728">
        <ele>1276.2</ele>
        <time>2022-05-21 20:28:00</time>
      </trkpt>
      <trkpt lat="42.37704" lon="2.47278">
        <ele>1276.2</ele>
        <time>2022-05-21 20:28:01</time>
      </trkpt>
      <trkpt lat="42.37703" lon="2.47276">
        <ele>1276.4</ele>
        <time>2022-05-21 20:28:02</time>
      </trkpt>
      <trkpt lat="42.37702" lon="2.47274">
        <ele>1276.6</ele>
        <time>2022-05-21 20:28:03</time>
      </trkpt>
      <trkpt lat="42.37701" lon="2.47272">
        <ele>1276.8</ele>
        <time>2022-05-21 20:28:04</time>
      </trkpt>
      <trkpt lat="42.377" lon="2.4727">
        <ele>1277</ele>
        <time>2022-05-21 20:28:05</time>
      </trkpt>
      <trkpt lat="42.37699" lon="2.47268">
        <ele>1277.2</ele>
        <time>2022-05-21 20:28:06</time>
      </trkpt>
      <trkpt lat="42.37698" lon="2.47266">
        <ele>1277.2</ele>
        <time>2022-05-21 20:28:07</time>
      </trkpt>
      <trkpt lat="42.37697" lon="2.47265">
        <ele>1277.4</ele>
        <time>2022-05-21 20:28:08</time>
      </trkpt>
      <trkpt lat="42.37696" lon="2.47263">
        <ele>1277.6</ele>
        <time>2022-05-21 20:28:09</time>
      </trkpt>
      <trkpt lat="42.37694" lon="2.47261">
        <ele>1277.8</ele>
        <time>2022-05-21 20:28:10</time>
      </trkpt>
      <trkpt lat="42.37693" lon="2.4726">
        <ele>1278</ele>
        <time>2022-05-21 20:28:11</time>
      </trkpt>
      <trkpt lat="42.37692" lon="2.47258">
        <ele>1278.2</ele>
        <time>2022-05-21 20:28:12</time>
      </trkpt>
      <trkpt lat="42.37691" lon="2.47256">
        <ele>1278.4</ele>
        <time>2022-05-21 20:28:13</time>
      </trkpt>
      <trkpt lat="42.3769" lon="2.47255">
        <ele>1278.4</ele>
        <time>2022-05-21 20:28:14</time>
      </trkpt>
      <trkpt lat="42.37688" lon="2.47253">
        <ele>1278.6</ele>
        <time>2022-05-21 20:28:15</time>
      </trkpt>
      <trkpt lat="42.37687" lon="2.47252">
        <ele>1278.8</ele>
        <time>2022-05-21 20:28:16</time>
      </trkpt>
      <trkpt lat="42.37686" lon="2.47251">
        <ele>1279</ele>
        <time>2022-05-21 20:28:17</time>
      </trkpt>
      <trkpt lat="42.37684" lon="2.47248">
        <ele>1279.2</ele>
        <time>2022-05-21 20:28:18</time>
      </trkpt>
      <trkpt lat="42.37683" lon="2.47247">
        <ele>1279.4</ele>
        <time>2022-05-21 20:28:19</time>
      </trkpt>
      <trkpt lat="42.37682" lon="2.47245">
        <ele>1279.6</ele>
        <time>2022-05-21 20:28:20</time>
      </trkpt>
      <trkpt lat="42.3768" lon="2.47244">
        <ele>1279.6</ele>
        <time>2022-05-21 20:28:21</time>
      </trkpt>
      <trkpt lat="42.37679" lon="2.47242">
        <ele>1279.8</ele>
        <time>2022-05-21 20:28:22</time>
      </trkpt>
      <trkpt lat="42.37678" lon="2.47241">
        <ele>1280</ele>
        <time>2022-05-21 20:28:23</time>
      </trkpt>
      <trkpt lat="42.37677" lon="2.4724">
        <ele>1280.2</ele>
        <time>2022-05-21 20:28:24</time>
      </trkpt>
      <trkpt lat="42.37675" lon="2.47238">
        <ele>1280.4</ele>
        <time>2022-05-21 20:28:25</time>
      </trkpt>
      <trkpt lat="42.37673" lon="2.47237">
        <ele>1280.6</ele>
        <time>2022-05-21 20:28:26</time>
      </trkpt>
      <trkpt lat="42.37672" lon="2.47235">
        <ele>1280.8</ele>
        <time>2022-05-21 20:28:27</time>
      </trkpt>
      <trkpt lat="42.3767" lon="2.47234">
        <ele>1280.8</ele>
        <time>2022-05-21 20:28:28</time>
      </trkpt>
      <trkpt lat="42.37669" lon="2.47232">
        <ele>1281</ele>
        <time>2022-05-21 20:28:29</time>
      </trkpt>
      <trkpt lat="42.37668" lon="2.4723">
        <ele>1281</ele>
        <time>2022-05-21 20:28:30</time>
      </trkpt>
      <trkpt lat="42.37667" lon="2.47229">
        <ele>1281.2</ele>
        <time>2022-05-21 20:28:31</time>
      </trkpt>
      <trkpt lat="42.37666" lon="2.47227">
        <ele>1281.4</ele>
        <time>2022-05-21 20:28:32</time>
      </trkpt>
      <trkpt lat="42.37664" lon="2.47226">
        <ele>1281.6</ele>
        <time>2022-05-21 20:28:33</time>
      </trkpt>
      <trkpt lat="42.37663" lon="2.47224">
        <ele>1281.8</ele>
        <time>2022-05-21 20:28:34</time>
      </trkpt>
      <trkpt lat="42.37663" lon="2.47223">
        <ele>1282</ele>
        <time>2022-05-21 20:28:35</time>
      </trkpt>
      <trkpt lat="42.37662" lon="2.47222">
        <ele>1282.2</ele>
        <time>2022-05-21 20:28:36</time>
      </trkpt>
      <trkpt lat="42.37661" lon="2.4722">
        <ele>1282.4</ele>
        <time>2022-05-21 20:28:37</time>
      </trkpt>
      <trkpt lat="42.37659" lon="2.47219">
        <ele>1282.6</ele>
        <time>2022-05-21 20:28:38</time>
      </trkpt>
      <trkpt lat="42.37658" lon="2.47218">
        <ele>1282.6</ele>
        <time>2022-05-21 20:28:39</time>
      </trkpt>
      <trkpt lat="42.37657" lon="2.47216">
        <ele>1282.8</ele>
        <time>2022-05-21 20:28:40</time>
      </trkpt>
      <trkpt lat="42.37656" lon="2.47214">
        <ele>1282.8</ele>
        <time>2022-05-21 20:28:41</time>
      </trkpt>
      <trkpt lat="42.37656" lon="2.47212">
        <ele>1283</ele>
        <time>2022-05-21 20:28:42</time>
      </trkpt>
      <trkpt lat="42.37655" lon="2.47211">
        <ele>1283</ele>
        <time>2022-05-21 20:28:43</time>
      </trkpt>
      <trkpt lat="42.37654" lon="2.47209">
        <ele>1283.2</ele>
        <time>2022-05-21 20:28:44</time>
      </trkpt>
      <trkpt lat="42.37653" lon="2.47207">
        <ele>1283.4</ele>
        <time>2022-05-21 20:28:45</time>
      </trkpt>
      <trkpt lat="42.37652" lon="2.47205">
        <ele>1283.4</ele>
        <time>2022-05-21 20:28:46</time>
      </trkpt>
      <trkpt lat="42.37652" lon="2.47203">
        <ele>1283.6</ele>
        <time>2022-05-21 20:28:47</time>
      </trkpt>
      <trkpt lat="42.37651" lon="2.47201">
        <ele>1283.8</ele>
        <time>2022-05-21 20:28:48</time>
      </trkpt>
      <trkpt lat="42.37651" lon="2.47198">
        <ele>1284</ele>
        <time>2022-05-21 20:28:49</time>
      </trkpt>
      <trkpt lat="42.3765" lon="2.47196">
        <ele>1284</ele>
        <time>2022-05-21 20:28:50</time>
      </trkpt>
      <trkpt lat="42.3765" lon="2.47194">
        <ele>1284.2</ele>
        <time>2022-05-21 20:28:51</time>
      </trkpt>
      <trkpt lat="42.37649" lon="2.47192">
        <ele>1284.4</ele>
        <time>2022-05-21 20:28:52</time>
      </trkpt>
      <trkpt lat="42.37649" lon="2.4719">
        <ele>1284.4</ele>
        <time>2022-05-21 20:28:53</time>
      </trkpt>
      <trkpt lat="42.37648" lon="2.47187">
        <ele>1284.6</ele>
        <time>2022-05-21 20:28:54</time>
      </trkpt>
      <trkpt lat="42.37647" lon="2.47185">
        <ele>1284.8</ele>
        <time>2022-05-21 20:28:55</time>
      </trkpt>
      <trkpt lat="42.37646" lon="2.47183">
        <ele>1285</ele>
        <time>2022-05-21 20:28:56</time>
      </trkpt>
      <trkpt lat="42.37646" lon="2.47181">
        <ele>1285.2</ele>
        <time>2022-05-21 20:28:57</time>
      </trkpt>
      <trkpt lat="42.37646" lon="2.47178">
        <ele>1285.4</ele>
        <time>2022-05-21 20:28:58</time>
      </trkpt>
      <trkpt lat="42.37645" lon="2.47176">
        <ele>1285.6</ele>
        <time>2022-05-21 20:28:59</time>
      </trkpt>
      <trkpt lat="42.37646" lon="2.47174">
        <ele>1285.8</ele>
        <time>2022-05-21 20:29:00</time>
      </trkpt>
      <trkpt lat="42.37646" lon="2.47171">
        <ele>1285.8</ele>
        <time>2022-05-21 20:29:01</time>
      </trkpt>
      <trkpt lat="42.37646" lon="2.47168">
        <ele>1286</ele>
        <time>2022-05-21 20:29:02</time>
      </trkpt>
      <trkpt lat="42.37646" lon="2.47166">
        <ele>1286.2</ele>
        <time>2022-05-21 20:29:03</time>
      </trkpt>
      <trkpt lat="42.37647" lon="2.47164">
        <ele>1286.4</ele>
        <time>2022-05-21 20:29:04</time>
      </trkpt>
      <trkpt lat="42.37647" lon="2.47161">
        <ele>1286.6</ele>
        <time>2022-05-21 20:29:05</time>
      </trkpt>
      <trkpt lat="42.37648" lon="2.47159">
        <ele>1286.8</ele>
        <time>2022-05-21 20:29:06</time>
      </trkpt>
      <trkpt lat="42.37648" lon="2.47157">
        <ele>1287</ele>
        <time>2022-05-21 20:29:07</time>
      </trkpt>
      <trkpt lat="42.37649" lon="2.47154">
        <ele>1287</ele>
        <time>2022-05-21 20:29:08</time>
      </trkpt>
      <trkpt lat="42.37649" lon="2.47152">
        <ele>1287.2</ele>
        <time>2022-05-21 20:29:09</time>
      </trkpt>
      <trkpt lat="42.3765" lon="2.4715">
        <ele>1287.4</ele>
        <time>2022-05-21 20:29:10</time>
      </trkpt>
      <trkpt lat="42.3765" lon="2.47147">
        <ele>1287.6</ele>
        <time>2022-05-21 20:29:11</time>
      </trkpt>
      <trkpt lat="42.37651" lon="2.47145">
        <ele>1287.8</ele>
        <time>2022-05-21 20:29:12</time>
      </trkpt>
      <trkpt lat="42.37652" lon="2.47143">
        <ele>1288</ele>
        <time>2022-05-21 20:29:13</time>
      </trkpt>
      <trkpt lat="42.37653" lon="2.47141">
        <ele>1288</ele>
        <time>2022-05-21 20:29:14</time>
      </trkpt>
      <trkpt lat="42.37654" lon="2.47138">
        <ele>1288.2</ele>
        <time>2022-05-21 20:29:15</time>
      </trkpt>
      <trkpt lat="42.37654" lon="2.47136">
        <ele>1288.4</ele>
        <time>2022-05-21 20:29:16</time>
      </trkpt>
      <trkpt lat="42.37655" lon="2.47134">
        <ele>1288.6</ele>
        <time>2022-05-21 20:29:17</time>
      </trkpt>
      <trkpt lat="42.37655" lon="2.47132">
        <ele>1288.8</ele>
        <time>2022-05-21 20:29:18</time>
      </trkpt>
      <trkpt lat="42.37656" lon="2.4713">
        <ele>1289</ele>
        <time>2022-05-21 20:29:19</time>
      </trkpt>
      <trkpt lat="42.37656" lon="2.47128">
        <ele>1289.2</ele>
        <time>2022-05-21 20:29:20</time>
      </trkpt>
      <trkpt lat="42.37657" lon="2.47126">
        <ele>1289.4</ele>
        <time>2022-05-21 20:29:21</time>
      </trkpt>
      <trkpt lat="42.37658" lon="2.47124">
        <ele>1289.6</ele>
        <time>2022-05-21 20:29:22</time>
      </trkpt>
      <trkpt lat="42.37659" lon="2.47122">
        <ele>1289.8</ele>
        <time>2022-05-21 20:29:23</time>
      </trkpt>
      <trkpt lat="42.3766" lon="2.4712">
        <ele>1290</ele>
        <time>2022-05-21 20:29:24</time>
      </trkpt>
      <trkpt lat="42.37661" lon="2.47118">
        <ele>1290.2</ele>
        <time>2022-05-21 20:29:25</time>
      </trkpt>
      <trkpt lat="42.37662" lon="2.47117">
        <ele>1290.2</ele>
        <time>2022-05-21 20:29:26</time>
      </trkpt>
      <trkpt lat="42.37663" lon="2.47115">
        <ele>1290.4</ele>
        <time>2022-05-21 20:29:27</time>
      </trkpt>
      <trkpt lat="42.37664" lon="2.47113">
        <ele>1290.4</ele>
        <time>2022-05-21 20:29:28</time>
      </trkpt>
      <trkpt lat="42.37665" lon="2.47111">
        <ele>1290.6</ele>
        <time>2022-05-21 20:29:29</time>
      </trkpt>
      <trkpt lat="42.37666" lon="2.4711">
        <ele>1290.8</ele>
        <time>2022-05-21 20:29:30</time>
      </trkpt>
      <trkpt lat="42.37667" lon="2.47108">
        <ele>1291</ele>
        <time>2022-05-21 20:29:31</time>
      </trkpt>
      <trkpt lat="42.37668" lon="2.47106">
        <ele>1291</ele>
        <time>2022-05-21 20:29:32</time>
      </trkpt>
      <trkpt lat="42.37669" lon="2.47105">
        <ele>1291</ele>
        <time>2022-05-21 20:29:33</time>
      </trkpt>
      <trkpt lat="42.37669" lon="2.47103">
        <ele>1291.2</ele>
        <time>2022-05-21 20:29:34</time>
      </trkpt>
      <trkpt lat="42.3767" lon="2.47101">
        <ele>1291.4</ele>
        <time>2022-05-21 20:29:35</time>
      </trkpt>
      <trkpt lat="42.37671" lon="2.47099">
        <ele>1291.6</ele>
        <time>2022-05-21 20:29:36</time>
      </trkpt>
      <trkpt lat="42.37672" lon="2.47098">
        <ele>1291.8</ele>
        <time>2022-05-21 20:29:37</time>
      </trkpt>
      <trkpt lat="42.37673" lon="2.47096">
        <ele>1292</ele>
        <time>2022-05-21 20:29:38</time>
      </trkpt>
      <trkpt lat="42.37673" lon="2.47094">
        <ele>1292</ele>
        <time>2022-05-21 20:29:39</time>
      </trkpt>
      <trkpt lat="42.37673" lon="2.47091">
        <ele>1292.2</ele>
        <time>2022-05-21 20:29:40</time>
      </trkpt>
      <trkpt lat="42.37673" lon="2.47089">
        <ele>1292.4</ele>
        <time>2022-05-21 20:29:41</time>
      </trkpt>
      <trkpt lat="42.37674" lon="2.47087">
        <ele>1292.6</ele>
        <time>2022-05-21 20:29:42</time>
      </trkpt>
      <trkpt lat="42.37674" lon="2.47085">
        <ele>1292.8</ele>
        <time>2022-05-21 20:29:43</time>
      </trkpt>
      <trkpt lat="42.37675" lon="2.47084">
        <ele>1293</ele>
        <time>2022-05-21 20:29:44</time>
      </trkpt>
      <trkpt lat="42.37676" lon="2.47082">
        <ele>1293.2</ele>
        <time>2022-05-21 20:29:45</time>
      </trkpt>
      <trkpt lat="42.37676" lon="2.4708">
        <ele>1293.4</ele>
        <time>2022-05-21 20:29:46</time>
      </trkpt>
      <trkpt lat="42.37677" lon="2.47077">
        <ele>1293.6</ele>
        <time>2022-05-21 20:29:47</time>
      </trkpt>
      <trkpt lat="42.37677" lon="2.47075">
        <ele>1293.8</ele>
        <time>2022-05-21 20:29:48</time>
      </trkpt>
      <trkpt lat="42.37677" lon="2.47073">
        <ele>1294</ele>
        <time>2022-05-21 20:29:49</time>
      </trkpt>
      <trkpt lat="42.37678" lon="2.47071">
        <ele>1294</ele>
        <time>2022-05-21 20:29:50</time>
      </trkpt>
      <trkpt lat="42.37678" lon="2.47069">
        <ele>1294.2</ele>
        <time>2022-05-21 20:29:51</time>
      </trkpt>
      <trkpt lat="42.37678" lon="2.47066">
        <ele>1294.4</ele>
        <time>2022-05-21 20:29:52</time>
      </trkpt>
      <trkpt lat="42.37679" lon="2.47064">
        <ele>1294.6</ele>
        <time>2022-05-21 20:29:53</time>
      </trkpt>
      <trkpt lat="42.3768" lon="2.47062">
        <ele>1294.8</ele>
        <time>2022-05-21 20:29:54</time>
      </trkpt>
      <trkpt lat="42.3768" lon="2.4706">
        <ele>1295</ele>
        <time>2022-05-21 20:29:55</time>
      </trkpt>
      <trkpt lat="42.37681" lon="2.47057">
        <ele>1295.2</ele>
        <time>2022-05-21 20:29:56</time>
      </trkpt>
      <trkpt lat="42.37681" lon="2.47055">
        <ele>1295.2</ele>
        <time>2022-05-21 20:29:57</time>
      </trkpt>
      <trkpt lat="42.37681" lon="2.47053">
        <ele>1295.4</ele>
        <time>2022-05-21 20:29:58</time>
      </trkpt>
      <trkpt lat="42.37681" lon="2.4705">
        <ele>1295.6</ele>
        <time>2022-05-21 20:29:59</time>
      </trkpt>
      <trkpt lat="42.37681" lon="2.47048">
        <ele>1295.6</ele>
        <time>2022-05-21 20:30:00</time>
      </trkpt>
      <trkpt lat="42.37681" lon="2.47046">
        <ele>1295.8</ele>
        <time>2022-05-21 20:30:01</time>
      </trkpt>
      <trkpt lat="42.37681" lon="2.47044">
        <ele>1296</ele>
        <time>2022-05-21 20:30:02</time>
      </trkpt>
      <trkpt lat="42.37681" lon="2.47042">
        <ele>1296</ele>
        <time>2022-05-21 20:30:03</time>
      </trkpt>
      <trkpt lat="42.37681" lon="2.4704">
        <ele>1296.2</ele>
        <time>2022-05-21 20:30:04</time>
      </trkpt>
      <trkpt lat="42.37681" lon="2.47038">
        <ele>1296.4</ele>
        <time>2022-05-21 20:30:05</time>
      </trkpt>
      <trkpt lat="42.37681" lon="2.47036">
        <ele>1296.6</ele>
        <time>2022-05-21 20:30:06</time>
      </trkpt>
      <trkpt lat="42.37681" lon="2.47034">
        <ele>1296.8</ele>
        <time>2022-05-21 20:30:07</time>
      </trkpt>
      <trkpt lat="42.37681" lon="2.47032">
        <ele>1297</ele>
        <time>2022-05-21 20:30:08</time>
      </trkpt>
      <trkpt lat="42.37681" lon="2.4703">
        <ele>1297.2</ele>
        <time>2022-05-21 20:30:09</time>
      </trkpt>
      <trkpt lat="42.3768" lon="2.47028">
        <ele>1297.4</ele>
        <time>2022-05-21 20:30:10</time>
      </trkpt>
      <trkpt lat="42.3768" lon="2.47026">
        <ele>1297.6</ele>
        <time>2022-05-21 20:30:11</time>
      </trkpt>
      <trkpt lat="42.3768" lon="2.47024">
        <ele>1297.6</ele>
        <time>2022-05-21 20:30:12</time>
      </trkpt>
      <trkpt lat="42.3768" lon="2.47022">
        <ele>1297.6</ele>
        <time>2022-05-21 20:30:13</time>
      </trkpt>
      <trkpt lat="42.3768" lon="2.47019">
        <ele>1297.8</ele>
        <time>2022-05-21 20:30:14</time>
      </trkpt>
      <trkpt lat="42.37679" lon="2.47017">
        <ele>1297.8</ele>
        <time>2022-05-21 20:30:15</time>
      </trkpt>
      <trkpt lat="42.37679" lon="2.47015">
        <ele>1298</ele>
        <time>2022-05-21 20:30:16</time>
      </trkpt>
      <trkpt lat="42.37679" lon="2.47013">
        <ele>1298.2</ele>
        <time>2022-05-21 20:30:17</time>
      </trkpt>
      <trkpt lat="42.37679" lon="2.47011">
        <ele>1298.4</ele>
        <time>2022-05-21 20:30:18</time>
      </trkpt>
      <trkpt lat="42.37678" lon="2.47008">
        <ele>1298.6</ele>
        <time>2022-05-21 20:30:19</time>
      </trkpt>
      <trkpt lat="42.37678" lon="2.47006">
        <ele>1298.8</ele>
        <time>2022-05-21 20:30:20</time>
      </trkpt>
      <trkpt lat="42.37678" lon="2.47004">
        <ele>1299</ele>
        <time>2022-05-21 20:30:21</time>
      </trkpt>
      <trkpt lat="42.37678" lon="2.47001">
        <ele>1299.2</ele>
        <time>2022-05-21 20:30:22</time>
      </trkpt>
      <trkpt lat="42.37677" lon="2.46999">
        <ele>1299.4</ele>
        <time>2022-05-21 20:30:23</time>
      </trkpt>
      <trkpt lat="42.37676" lon="2.46997">
        <ele>1299.6</ele>
        <time>2022-05-21 20:30:24</time>
      </trkpt>
      <trkpt lat="42.37676" lon="2.46994">
        <ele>1299.6</ele>
        <time>2022-05-21 20:30:25</time>
      </trkpt>
      <trkpt lat="42.37675" lon="2.46992">
        <ele>1299.8</ele>
        <time>2022-05-21 20:30:26</time>
      </trkpt>
      <trkpt lat="42.37675" lon="2.4699">
        <ele>1299.8</ele>
        <time>2022-05-21 20:30:27</time>
      </trkpt>
      <trkpt lat="42.37674" lon="2.46988">
        <ele>1299.8</ele>
        <time>2022-05-21 20:30:28</time>
      </trkpt>
      <trkpt lat="42.37674" lon="2.46986">
        <ele>1300.2</ele>
        <time>2022-05-21 20:30:29</time>
      </trkpt>
      <trkpt lat="42.37673" lon="2.46984">
        <ele>1300.6</ele>
        <time>2022-05-21 20:30:30</time>
      </trkpt>
      <trkpt lat="42.37672" lon="2.46982">
        <ele>1300.8</ele>
        <time>2022-05-21 20:30:31</time>
      </trkpt>
      <trkpt lat="42.37671" lon="2.4698">
        <ele>1301</ele>
        <time>2022-05-21 20:30:32</time>
      </trkpt>
      <trkpt lat="42.3767" lon="2.46978">
        <ele>1301.2</ele>
        <time>2022-05-21 20:30:33</time>
      </trkpt>
      <trkpt lat="42.37669" lon="2.46976">
        <ele>1301.4</ele>
        <time>2022-05-21 20:30:34</time>
      </trkpt>
      <trkpt lat="42.37668" lon="2.46973">
        <ele>1301.4</ele>
        <time>2022-05-21 20:30:35</time>
      </trkpt>
      <trkpt lat="42.37667" lon="2.46971">
        <ele>1301.6</ele>
        <time>2022-05-21 20:30:36</time>
      </trkpt>
      <trkpt lat="42.37666" lon="2.46969">
        <ele>1301.8</ele>
        <time>2022-05-21 20:30:37</time>
      </trkpt>
      <trkpt lat="42.37665" lon="2.46967">
        <ele>1302</ele>
        <time>2022-05-21 20:30:38</time>
      </trkpt>
      <trkpt lat="42.37664" lon="2.46965">
        <ele>1302.2</ele>
        <time>2022-05-21 20:30:39</time>
      </trkpt>
      <trkpt lat="42.37663" lon="2.46963">
        <ele>1302.4</ele>
        <time>2022-05-21 20:30:40</time>
      </trkpt>
      <trkpt lat="42.37662" lon="2.46962">
        <ele>1302.6</ele>
        <time>2022-05-21 20:30:41</time>
      </trkpt>
      <trkpt lat="42.3766" lon="2.4696">
        <ele>1302.8</ele>
        <time>2022-05-21 20:30:42</time>
      </trkpt>
      <trkpt lat="42.37659" lon="2.46958">
        <ele>1303</ele>
        <time>2022-05-21 20:30:43</time>
      </trkpt>
      <trkpt lat="42.37658" lon="2.46957">
        <ele>1303.2</ele>
        <time>2022-05-21 20:30:44</time>
      </trkpt>
      <trkpt lat="42.37657" lon="2.46955">
        <ele>1303.4</ele>
        <time>2022-05-21 20:30:45</time>
      </trkpt>
      <trkpt lat="42.37656" lon="2.46954">
        <ele>1303.4</ele>
        <time>2022-05-21 20:30:46</time>
      </trkpt>
      <trkpt lat="42.37654" lon="2.46952">
        <ele>1303.4</ele>
        <time>2022-05-21 20:30:47</time>
      </trkpt>
      <trkpt lat="42.37653" lon="2.46951">
        <ele>1303.6</ele>
        <time>2022-05-21 20:30:48</time>
      </trkpt>
      <trkpt lat="42.37652" lon="2.46949">
        <ele>1303.6</ele>
        <time>2022-05-21 20:30:49</time>
      </trkpt>
      <trkpt lat="42.37651" lon="2.46948">
        <ele>1303.8</ele>
        <time>2022-05-21 20:30:50</time>
      </trkpt>
      <trkpt lat="42.37649" lon="2.46947">
        <ele>1304</ele>
        <time>2022-05-21 20:30:51</time>
      </trkpt>
      <trkpt lat="42.37648" lon="2.46945">
        <ele>1304.2</ele>
        <time>2022-05-21 20:30:52</time>
      </trkpt>
      <trkpt lat="42.37647" lon="2.46944">
        <ele>1304.4</ele>
        <time>2022-05-21 20:30:53</time>
      </trkpt>
      <trkpt lat="42.37646" lon="2.46942">
        <ele>1304.6</ele>
        <time>2022-05-21 20:30:54</time>
      </trkpt>
      <trkpt lat="42.37644" lon="2.46941">
        <ele>1304.6</ele>
        <time>2022-05-21 20:30:55</time>
      </trkpt>
      <trkpt lat="42.37643" lon="2.46939">
        <ele>1304.8</ele>
        <time>2022-05-21 20:30:56</time>
      </trkpt>
      <trkpt lat="42.37642" lon="2.46938">
        <ele>1305</ele>
        <time>2022-05-21 20:30:57</time>
      </trkpt>
      <trkpt lat="42.37641" lon="2.46937">
        <ele>1305</ele>
        <time>2022-05-21 20:30:58</time>
      </trkpt>
      <trkpt lat="42.37639" lon="2.46936">
        <ele>1305.2</ele>
        <time>2022-05-21 20:30:59</time>
      </trkpt>
      <trkpt lat="42.37638" lon="2.46935">
        <ele>1305.2</ele>
        <time>2022-05-21 20:31:00</time>
      </trkpt>
      <trkpt lat="42.37637" lon="2.46933">
        <ele>1305.4</ele>
        <time>2022-05-21 20:31:01</time>
      </trkpt>
      <trkpt lat="42.37636" lon="2.46931">
        <ele>1305.6</ele>
        <time>2022-05-21 20:31:02</time>
      </trkpt>
      <trkpt lat="42.37635" lon="2.46929">
        <ele>1305.8</ele>
        <time>2022-05-21 20:31:03</time>
      </trkpt>
      <trkpt lat="42.37634" lon="2.46927">
        <ele>1305.8</ele>
        <time>2022-05-21 20:31:04</time>
      </trkpt>
      <trkpt lat="42.37633" lon="2.46926">
        <ele>1306</ele>
        <time>2022-05-21 20:31:05</time>
      </trkpt>
      <trkpt lat="42.37631" lon="2.46925">
        <ele>1306.2</ele>
        <time>2022-05-21 20:31:06</time>
      </trkpt>
      <trkpt lat="42.37629" lon="2.46924">
        <ele>1306.4</ele>
        <time>2022-05-21 20:31:07</time>
      </trkpt>
      <trkpt lat="42.37628" lon="2.46923">
        <ele>1306.6</ele>
        <time>2022-05-21 20:31:08</time>
      </trkpt>
      <trkpt lat="42.37627" lon="2.46922">
        <ele>1306.8</ele>
        <time>2022-05-21 20:31:09</time>
      </trkpt>
      <trkpt lat="42.37625" lon="2.4692">
        <ele>1306.8</ele>
        <time>2022-05-21 20:31:10</time>
      </trkpt>
      <trkpt lat="42.37624" lon="2.46919">
        <ele>1307</ele>
        <time>2022-05-21 20:31:11</time>
      </trkpt>
      <trkpt lat="42.37623" lon="2.46918">
        <ele>1307.2</ele>
        <time>2022-05-21 20:31:12</time>
      </trkpt>
      <trkpt lat="42.37621" lon="2.46917">
        <ele>1307.4</ele>
        <time>2022-05-21 20:31:13</time>
      </trkpt>
      <trkpt lat="42.3762" lon="2.46915">
        <ele>1307.4</ele>
        <time>2022-05-21 20:31:14</time>
      </trkpt>
      <trkpt lat="42.37618" lon="2.46914">
        <ele>1307.6</ele>
        <time>2022-05-21 20:31:15</time>
      </trkpt>
      <trkpt lat="42.37617" lon="2.46912">
        <ele>1307.8</ele>
        <time>2022-05-21 20:31:16</time>
      </trkpt>
      <trkpt lat="42.37615" lon="2.46911">
        <ele>1308</ele>
        <time>2022-05-21 20:31:17</time>
      </trkpt>
      <trkpt lat="42.37614" lon="2.4691">
        <ele>1308</ele>
        <time>2022-05-21 20:31:18</time>
      </trkpt>
      <trkpt lat="42.37612" lon="2.46909">
        <ele>1308.2</ele>
        <time>2022-05-21 20:31:19</time>
      </trkpt>
      <trkpt lat="42.37611" lon="2.46908">
        <ele>1308.4</ele>
        <time>2022-05-21 20:31:20</time>
      </trkpt>
      <trkpt lat="42.3761" lon="2.46907">
        <ele>1308.8</ele>
        <time>2022-05-21 20:31:21</time>
      </trkpt>
      <trkpt lat="42.37608" lon="2.46905">
        <ele>1309</ele>
        <time>2022-05-21 20:31:22</time>
      </trkpt>
      <trkpt lat="42.37607" lon="2.46904">
        <ele>1309.2</ele>
        <time>2022-05-21 20:31:23</time>
      </trkpt>
      <trkpt lat="42.37606" lon="2.46903">
        <ele>1309.4</ele>
        <time>2022-05-21 20:31:24</time>
      </trkpt>
      <trkpt lat="42.37606" lon="2.46901">
        <ele>1309.4</ele>
        <time>2022-05-21 20:31:25</time>
      </trkpt>
      <trkpt lat="42.37604" lon="2.469">
        <ele>1309.6</ele>
        <time>2022-05-21 20:31:26</time>
      </trkpt>
      <trkpt lat="42.37603" lon="2.46899">
        <ele>1309.8</ele>
        <time>2022-05-21 20:31:27</time>
      </trkpt>
      <trkpt lat="42.37602" lon="2.46898">
        <ele>1310.2</ele>
        <time>2022-05-21 20:31:28</time>
      </trkpt>
      <trkpt lat="42.37601" lon="2.46896">
        <ele>1310.2</ele>
        <time>2022-05-21 20:31:29</time>
      </trkpt>
      <trkpt lat="42.376" lon="2.46895">
        <ele>1310.4</ele>
        <time>2022-05-21 20:31:30</time>
      </trkpt>
      <trkpt lat="42.37598" lon="2.46893">
        <ele>1310.6</ele>
        <time>2022-05-21 20:31:31</time>
      </trkpt>
      <trkpt lat="42.37597" lon="2.46892">
        <ele>1310.6</ele>
        <time>2022-05-21 20:31:32</time>
      </trkpt>
      <trkpt lat="42.37596" lon="2.46891">
        <ele>1310.8</ele>
        <time>2022-05-21 20:31:33</time>
      </trkpt>
      <trkpt lat="42.37595" lon="2.46889">
        <ele>1311</ele>
        <time>2022-05-21 20:31:34</time>
      </trkpt>
      <trkpt lat="42.37594" lon="2.46888">
        <ele>1311.2</ele>
        <time>2022-05-21 20:31:35</time>
      </trkpt>
      <trkpt lat="42.37593" lon="2.46886">
        <ele>1311.2</ele>
        <time>2022-05-21 20:31:36</time>
      </trkpt>
      <trkpt lat="42.37592" lon="2.46885">
        <ele>1311.4</ele>
        <time>2022-05-21 20:31:37</time>
      </trkpt>
      <trkpt lat="42.37591" lon="2.46883">
        <ele>1311.6</ele>
        <time>2022-05-21 20:31:38</time>
      </trkpt>
      <trkpt lat="42.3759" lon="2.46882">
        <ele>1311.8</ele>
        <time>2022-05-21 20:31:39</time>
      </trkpt>
      <trkpt lat="42.37589" lon="2.4688">
        <ele>1312</ele>
        <time>2022-05-21 20:31:40</time>
      </trkpt>
      <trkpt lat="42.37588" lon="2.46878">
        <ele>1312.2</ele>
        <time>2022-05-21 20:31:41</time>
      </trkpt>
      <trkpt lat="42.37587" lon="2.46876">
        <ele>1312.4</ele>
        <time>2022-05-21 20:31:42</time>
      </trkpt>
      <trkpt lat="42.37586" lon="2.46874">
        <ele>1312.6</ele>
        <time>2022-05-21 20:31:43</time>
      </trkpt>
      <trkpt lat="42.37585" lon="2.46872">
        <ele>1312.6</ele>
        <time>2022-05-21 20:31:44</time>
      </trkpt>
      <trkpt lat="42.37585" lon="2.4687">
        <ele>1312.6</ele>
        <time>2022-05-21 20:31:45</time>
      </trkpt>
      <trkpt lat="42.37584" lon="2.46868">
        <ele>1312.8</ele>
        <time>2022-05-21 20:31:46</time>
      </trkpt>
      <trkpt lat="42.37583" lon="2.46866">
        <ele>1312.8</ele>
        <time>2022-05-21 20:31:47</time>
      </trkpt>
      <trkpt lat="42.37582" lon="2.46864">
        <ele>1313</ele>
        <time>2022-05-21 20:31:48</time>
      </trkpt>
      <trkpt lat="42.37581" lon="2.46862">
        <ele>1313</ele>
        <time>2022-05-21 20:31:49</time>
      </trkpt>
      <trkpt lat="42.37581" lon="2.4686">
        <ele>1313.2</ele>
        <time>2022-05-21 20:31:50</time>
      </trkpt>
      <trkpt lat="42.3758" lon="2.46858">
        <ele>1313.2</ele>
        <time>2022-05-21 20:31:51</time>
      </trkpt>
      <trkpt lat="42.37579" lon="2.46856">
        <ele>1313.4</ele>
        <time>2022-05-21 20:31:52</time>
      </trkpt>
      <trkpt lat="42.37578" lon="2.46854">
        <ele>1313.8</ele>
        <time>2022-05-21 20:31:53</time>
      </trkpt>
      <trkpt lat="42.37577" lon="2.46852">
        <ele>1314</ele>
        <time>2022-05-21 20:31:54</time>
      </trkpt>
      <trkpt lat="42.37577" lon="2.4685">
        <ele>1314</ele>
        <time>2022-05-21 20:31:55</time>
      </trkpt>
      <trkpt lat="42.37576" lon="2.46848">
        <ele>1314.2</ele>
        <time>2022-05-21 20:31:56</time>
      </trkpt>
      <trkpt lat="42.37575" lon="2.46846">
        <ele>1314.4</ele>
        <time>2022-05-21 20:31:57</time>
      </trkpt>
      <trkpt lat="42.37575" lon="2.46845">
        <ele>1314.6</ele>
        <time>2022-05-21 20:31:58</time>
      </trkpt>
      <trkpt lat="42.37574" lon="2.46844">
        <ele>1314.8</ele>
        <time>2022-05-21 20:31:59</time>
      </trkpt>
      <trkpt lat="42.37573" lon="2.4684">
        <ele>1314.8</ele>
        <time>2022-05-21 20:32:00</time>
      </trkpt>
      <trkpt lat="42.37573" lon="2.46838">
        <ele>1315</ele>
        <time>2022-05-21 20:32:01</time>
      </trkpt>
      <trkpt lat="42.37572" lon="2.46836">
        <ele>1315.2</ele>
        <time>2022-05-21 20:32:02</time>
      </trkpt>
      <trkpt lat="42.37572" lon="2.46834">
        <ele>1315.4</ele>
        <time>2022-05-21 20:32:03</time>
      </trkpt>
      <trkpt lat="42.37572" lon="2.46832">
        <ele>1315.6</ele>
        <time>2022-05-21 20:32:04</time>
      </trkpt>
      <trkpt lat="42.37572" lon="2.46829">
        <ele>1315.8</ele>
        <time>2022-05-21 20:32:05</time>
      </trkpt>
      <trkpt lat="42.37571" lon="2.46827">
        <ele>1315.8</ele>
        <time>2022-05-21 20:32:06</time>
      </trkpt>
      <trkpt lat="42.37571" lon="2.46825">
        <ele>1315.8</ele>
        <time>2022-05-21 20:32:07</time>
      </trkpt>
      <trkpt lat="42.3757" lon="2.46823">
        <ele>1316</ele>
        <time>2022-05-21 20:32:08</time>
      </trkpt>
      <trkpt lat="42.3757" lon="2.46821">
        <ele>1316</ele>
        <time>2022-05-21 20:32:09</time>
      </trkpt>
      <trkpt lat="42.37569" lon="2.46819">
        <ele>1316.2</ele>
        <time>2022-05-21 20:32:10</time>
      </trkpt>
      <trkpt lat="42.37568" lon="2.46817">
        <ele>1316.2</ele>
        <time>2022-05-21 20:32:11</time>
      </trkpt>
      <trkpt lat="42.37568" lon="2.46815">
        <ele>1316.6</ele>
        <time>2022-05-21 20:32:12</time>
      </trkpt>
      <trkpt lat="42.37567" lon="2.46813">
        <ele>1316.8</ele>
        <time>2022-05-21 20:32:13</time>
      </trkpt>
      <trkpt lat="42.37567" lon="2.46811">
        <ele>1317</ele>
        <time>2022-05-21 20:32:14</time>
      </trkpt>
      <trkpt lat="42.37567" lon="2.46809">
        <ele>1317.2</ele>
        <time>2022-05-21 20:32:15</time>
      </trkpt>
      <trkpt lat="42.37566" lon="2.46806">
        <ele>1317.4</ele>
        <time>2022-05-21 20:32:16</time>
      </trkpt>
      <trkpt lat="42.37566" lon="2.46804">
        <ele>1317.6</ele>
        <time>2022-05-21 20:32:17</time>
      </trkpt>
      <trkpt lat="42.37565" lon="2.46802">
        <ele>1317.6</ele>
        <time>2022-05-21 20:32:18</time>
      </trkpt>
      <trkpt lat="42.37565" lon="2.468">
        <ele>1317.8</ele>
        <time>2022-05-21 20:32:19</time>
      </trkpt>
      <trkpt lat="42.37565" lon="2.46797">
        <ele>1318</ele>
        <time>2022-05-21 20:32:20</time>
      </trkpt>
      <trkpt lat="42.37565" lon="2.46795">
        <ele>1318.2</ele>
        <time>2022-05-21 20:32:21</time>
      </trkpt>
      <trkpt lat="42.37564" lon="2.46793">
        <ele>1318.4</ele>
        <time>2022-05-21 20:32:22</time>
      </trkpt>
      <trkpt lat="42.37564" lon="2.46791">
        <ele>1318.6</ele>
        <time>2022-05-21 20:32:23</time>
      </trkpt>
      <trkpt lat="42.37564" lon="2.46789">
        <ele>1318.8</ele>
        <time>2022-05-21 20:32:24</time>
      </trkpt>
      <trkpt lat="42.37563" lon="2.46787">
        <ele>1319</ele>
        <time>2022-05-21 20:32:25</time>
      </trkpt>
      <trkpt lat="42.37562" lon="2.46784">
        <ele>1319.2</ele>
        <time>2022-05-21 20:32:26</time>
      </trkpt>
      <trkpt lat="42.37562" lon="2.46782">
        <ele>1319.4</ele>
        <time>2022-05-21 20:32:27</time>
      </trkpt>
      <trkpt lat="42.37561" lon="2.4678">
        <ele>1319.6</ele>
        <time>2022-05-21 20:32:28</time>
      </trkpt>
      <trkpt lat="42.37561" lon="2.46778">
        <ele>1319.8</ele>
        <time>2022-05-21 20:32:29</time>
      </trkpt>
      <trkpt lat="42.3756" lon="2.46776">
        <ele>1320.2</ele>
        <time>2022-05-21 20:32:30</time>
      </trkpt>
      <trkpt lat="42.3756" lon="2.46773">
        <ele>1320.2</ele>
        <time>2022-05-21 20:32:31</time>
      </trkpt>
      <trkpt lat="42.3756" lon="2.46771">
        <ele>1320.4</ele>
        <time>2022-05-21 20:32:32</time>
      </trkpt>
      <trkpt lat="42.37559" lon="2.46768">
        <ele>1320.6</ele>
        <time>2022-05-21 20:32:33</time>
      </trkpt>
      <trkpt lat="42.37559" lon="2.46766">
        <ele>1320.8</ele>
        <time>2022-05-21 20:32:34</time>
      </trkpt>
      <trkpt lat="42.37558" lon="2.46763">
        <ele>1321</ele>
        <time>2022-05-21 20:32:35</time>
      </trkpt>
      <trkpt lat="42.37558" lon="2.46761">
        <ele>1321.2</ele>
        <time>2022-05-21 20:32:36</time>
      </trkpt>
      <trkpt lat="42.37557" lon="2.46759">
        <ele>1321.4</ele>
        <time>2022-05-21 20:32:37</time>
      </trkpt>
      <trkpt lat="42.37557" lon="2.46757">
        <ele>1321.6</ele>
        <time>2022-05-21 20:32:38</time>
      </trkpt>
      <trkpt lat="42.37556" lon="2.46755">
        <ele>1321.8</ele>
        <time>2022-05-21 20:32:39</time>
      </trkpt>
      <trkpt lat="42.37556" lon="2.46753">
        <ele>1322</ele>
        <time>2022-05-21 20:32:40</time>
      </trkpt>
      <trkpt lat="42.37555" lon="2.46751">
        <ele>1322</ele>
        <time>2022-05-21 20:32:41</time>
      </trkpt>
      <trkpt lat="42.37555" lon="2.46749">
        <ele>1322.2</ele>
        <time>2022-05-21 20:32:42</time>
      </trkpt>
      <trkpt lat="42.37554" lon="2.46747">
        <ele>1322.4</ele>
        <time>2022-05-21 20:32:43</time>
      </trkpt>
      <trkpt lat="42.37553" lon="2.46745">
        <ele>1322.8</ele>
        <time>2022-05-21 20:32:44</time>
      </trkpt>
      <trkpt lat="42.37552" lon="2.46742">
        <ele>1323</ele>
        <time>2022-05-21 20:32:45</time>
      </trkpt>
      <trkpt lat="42.37552" lon="2.46741">
        <ele>1323.2</ele>
        <time>2022-05-21 20:32:46</time>
      </trkpt>
      <trkpt lat="42.37551" lon="2.46739">
        <ele>1323.4</ele>
        <time>2022-05-21 20:32:47</time>
      </trkpt>
      <trkpt lat="42.3755" lon="2.46737">
        <ele>1323.6</ele>
        <time>2022-05-21 20:32:48</time>
      </trkpt>
      <trkpt lat="42.37549" lon="2.46735">
        <ele>1323.8</ele>
        <time>2022-05-21 20:32:49</time>
      </trkpt>
      <trkpt lat="42.37548" lon="2.46733">
        <ele>1324.2</ele>
        <time>2022-05-21 20:32:50</time>
      </trkpt>
      <trkpt lat="42.37548" lon="2.46731">
        <ele>1324.4</ele>
        <time>2022-05-21 20:32:51</time>
      </trkpt>
      <trkpt lat="42.37547" lon="2.4673">
        <ele>1324.6</ele>
        <time>2022-05-21 20:32:52</time>
      </trkpt>
      <trkpt lat="42.37546" lon="2.46728">
        <ele>1324.6</ele>
        <time>2022-05-21 20:32:53</time>
      </trkpt>
      <trkpt lat="42.37545" lon="2.46726">
        <ele>1324.8</ele>
        <time>2022-05-21 20:32:54</time>
      </trkpt>
      <trkpt lat="42.37544" lon="2.46724">
        <ele>1325</ele>
        <time>2022-05-21 20:32:55</time>
      </trkpt>
      <trkpt lat="42.37543" lon="2.46723">
        <ele>1325.2</ele>
        <time>2022-05-21 20:32:56</time>
      </trkpt>
      <trkpt lat="42.37542" lon="2.46721">
        <ele>1325.2</ele>
        <time>2022-05-21 20:32:57</time>
      </trkpt>
      <trkpt lat="42.37541" lon="2.46719">
        <ele>1325.4</ele>
        <time>2022-05-21 20:32:58</time>
      </trkpt>
      <trkpt lat="42.37539" lon="2.46717">
        <ele>1325.8</ele>
        <time>2022-05-21 20:32:59</time>
      </trkpt>
      <trkpt lat="42.37538" lon="2.46715">
        <ele>1325.8</ele>
        <time>2022-05-21 20:33:00</time>
      </trkpt>
      <trkpt lat="42.37537" lon="2.46713">
        <ele>1326</ele>
        <time>2022-05-21 20:33:01</time>
      </trkpt>
      <trkpt lat="42.37536" lon="2.46712">
        <ele>1326.2</ele>
        <time>2022-05-21 20:33:02</time>
      </trkpt>
      <trkpt lat="42.37535" lon="2.4671">
        <ele>1326.2</ele>
        <time>2022-05-21 20:33:03</time>
      </trkpt>
      <trkpt lat="42.37534" lon="2.46709">
        <ele>1326.4</ele>
        <time>2022-05-21 20:33:04</time>
      </trkpt>
      <trkpt lat="42.37533" lon="2.46707">
        <ele>1326.6</ele>
        <time>2022-05-21 20:33:05</time>
      </trkpt>
      <trkpt lat="42.37531" lon="2.46705">
        <ele>1326.8</ele>
        <time>2022-05-21 20:33:06</time>
      </trkpt>
      <trkpt lat="42.3753" lon="2.46704">
        <ele>1327</ele>
        <time>2022-05-21 20:33:07</time>
      </trkpt>
      <trkpt lat="42.37529" lon="2.46702">
        <ele>1327.2</ele>
        <time>2022-05-21 20:33:08</time>
      </trkpt>
      <trkpt lat="42.37528" lon="2.46701">
        <ele>1327.4</ele>
        <time>2022-05-21 20:33:09</time>
      </trkpt>
      <trkpt lat="42.37526" lon="2.46699">
        <ele>1327.6</ele>
        <time>2022-05-21 20:33:10</time>
      </trkpt>
      <trkpt lat="42.37525" lon="2.46698">
        <ele>1327.6</ele>
        <time>2022-05-21 20:33:11</time>
      </trkpt>
      <trkpt lat="42.37524" lon="2.46697">
        <ele>1327.8</ele>
        <time>2022-05-21 20:33:12</time>
      </trkpt>
      <trkpt lat="42.37522" lon="2.46695">
        <ele>1328</ele>
        <time>2022-05-21 20:33:13</time>
      </trkpt>
      <trkpt lat="42.37521" lon="2.46694">
        <ele>1328</ele>
        <time>2022-05-21 20:33:14</time>
      </trkpt>
      <trkpt lat="42.37519" lon="2.46692">
        <ele>1328.2</ele>
        <time>2022-05-21 20:33:15</time>
      </trkpt>
      <trkpt lat="42.37517" lon="2.46691">
        <ele>1328.2</ele>
        <time>2022-05-21 20:33:16</time>
      </trkpt>
      <trkpt lat="42.37515" lon="2.4669">
        <ele>1328.4</ele>
        <time>2022-05-21 20:33:17</time>
      </trkpt>
      <trkpt lat="42.37514" lon="2.46689">
        <ele>1328.6</ele>
        <time>2022-05-21 20:33:18</time>
      </trkpt>
      <trkpt lat="42.37512" lon="2.46688">
        <ele>1328.8</ele>
        <time>2022-05-21 20:33:19</time>
      </trkpt>
      <trkpt lat="42.37511" lon="2.46687">
        <ele>1329</ele>
        <time>2022-05-21 20:33:20</time>
      </trkpt>
      <trkpt lat="42.3751" lon="2.46685">
        <ele>1329.2</ele>
        <time>2022-05-21 20:33:21</time>
      </trkpt>
      <trkpt lat="42.37508" lon="2.46684">
        <ele>1329.4</ele>
        <time>2022-05-21 20:33:22</time>
      </trkpt>
      <trkpt lat="42.37507" lon="2.46683">
        <ele>1329.6</ele>
        <time>2022-05-21 20:33:23</time>
      </trkpt>
      <trkpt lat="42.37505" lon="2.46682">
        <ele>1329.8</ele>
        <time>2022-05-21 20:33:24</time>
      </trkpt>
      <trkpt lat="42.37504" lon="2.4668">
        <ele>1330</ele>
        <time>2022-05-21 20:33:25</time>
      </trkpt>
      <trkpt lat="42.37503" lon="2.46679">
        <ele>1330.2</ele>
        <time>2022-05-21 20:33:26</time>
      </trkpt>
      <trkpt lat="42.37501" lon="2.46677">
        <ele>1330.4</ele>
        <time>2022-05-21 20:33:27</time>
      </trkpt>
      <trkpt lat="42.375" lon="2.46676">
        <ele>1330.4</ele>
        <time>2022-05-21 20:33:28</time>
      </trkpt>
      <trkpt lat="42.37498" lon="2.46674">
        <ele>1330.6</ele>
        <time>2022-05-21 20:33:29</time>
      </trkpt>
      <trkpt lat="42.37497" lon="2.46673">
        <ele>1330.8</ele>
        <time>2022-05-21 20:33:30</time>
      </trkpt>
      <trkpt lat="42.37496" lon="2.46672">
        <ele>1331</ele>
        <time>2022-05-21 20:33:31</time>
      </trkpt>
      <trkpt lat="42.37494" lon="2.4667">
        <ele>1331.2</ele>
        <time>2022-05-21 20:33:32</time>
      </trkpt>
      <trkpt lat="42.37493" lon="2.46669">
        <ele>1331.4</ele>
        <time>2022-05-21 20:33:33</time>
      </trkpt>
      <trkpt lat="42.37491" lon="2.46667">
        <ele>1331.6</ele>
        <time>2022-05-21 20:33:34</time>
      </trkpt>
      <trkpt lat="42.3749" lon="2.46666">
        <ele>1331.6</ele>
        <time>2022-05-21 20:33:35</time>
      </trkpt>
      <trkpt lat="42.37488" lon="2.46665">
        <ele>1331.8</ele>
        <time>2022-05-21 20:33:36</time>
      </trkpt>
      <trkpt lat="42.37486" lon="2.46664">
        <ele>1332</ele>
        <time>2022-05-21 20:33:37</time>
      </trkpt>
      <trkpt lat="42.37485" lon="2.46663">
        <ele>1332.2</ele>
        <time>2022-05-21 20:33:38</time>
      </trkpt>
      <trkpt lat="42.37483" lon="2.46662">
        <ele>1332.2</ele>
        <time>2022-05-21 20:33:39</time>
      </trkpt>
      <trkpt lat="42.37482" lon="2.46661">
        <ele>1332.4</ele>
        <time>2022-05-21 20:33:40</time>
      </trkpt>
      <trkpt lat="42.37481" lon="2.4666">
        <ele>1332.6</ele>
        <time>2022-05-21 20:33:41</time>
      </trkpt>
      <trkpt lat="42.37479" lon="2.46658">
        <ele>1332.8</ele>
        <time>2022-05-21 20:33:42</time>
      </trkpt>
      <trkpt lat="42.37478" lon="2.46657">
        <ele>1333</ele>
        <time>2022-05-21 20:33:43</time>
      </trkpt>
      <trkpt lat="42.37476" lon="2.46656">
        <ele>1333</ele>
        <time>2022-05-21 20:33:44</time>
      </trkpt>
      <trkpt lat="42.37475" lon="2.46655">
        <ele>1333.2</ele>
        <time>2022-05-21 20:33:45</time>
      </trkpt>
      <trkpt lat="42.37474" lon="2.46654">
        <ele>1333.4</ele>
        <time>2022-05-21 20:33:46</time>
      </trkpt>
      <trkpt lat="42.37472" lon="2.46653">
        <ele>1333.6</ele>
        <time>2022-05-21 20:33:47</time>
      </trkpt>
      <trkpt lat="42.37471" lon="2.46652">
        <ele>1333.8</ele>
        <time>2022-05-21 20:33:48</time>
      </trkpt>
      <trkpt lat="42.37469" lon="2.46652">
        <ele>1334</ele>
        <time>2022-05-21 20:33:49</time>
      </trkpt>
      <trkpt lat="42.37468" lon="2.46651">
        <ele>1334.2</ele>
        <time>2022-05-21 20:33:50</time>
      </trkpt>
      <trkpt lat="42.37466" lon="2.4665">
        <ele>1334.2</ele>
        <time>2022-05-21 20:33:51</time>
      </trkpt>
      <trkpt lat="42.37465" lon="2.46649">
        <ele>1334.4</ele>
        <time>2022-05-21 20:33:52</time>
      </trkpt>
      <trkpt lat="42.37464" lon="2.46648">
        <ele>1334.6</ele>
        <time>2022-05-21 20:33:53</time>
      </trkpt>
      <trkpt lat="42.37462" lon="2.46647">
        <ele>1334.8</ele>
        <time>2022-05-21 20:33:54</time>
      </trkpt>
      <trkpt lat="42.3746" lon="2.46646">
        <ele>1335</ele>
        <time>2022-05-21 20:33:55</time>
      </trkpt>
      <trkpt lat="42.37459" lon="2.46645">
        <ele>1335.2</ele>
        <time>2022-05-21 20:33:56</time>
      </trkpt>
      <trkpt lat="42.37457" lon="2.46645">
        <ele>1335.2</ele>
        <time>2022-05-21 20:33:57</time>
      </trkpt>
      <trkpt lat="42.37455" lon="2.46644">
        <ele>1335.4</ele>
        <time>2022-05-21 20:33:58</time>
      </trkpt>
      <trkpt lat="42.37453" lon="2.46644">
        <ele>1335.6</ele>
        <time>2022-05-21 20:33:59</time>
      </trkpt>
      <trkpt lat="42.37452" lon="2.46643">
        <ele>1335.8</ele>
        <time>2022-05-21 20:34:00</time>
      </trkpt>
      <trkpt lat="42.3745" lon="2.46643">
        <ele>1336</ele>
        <time>2022-05-21 20:34:01</time>
      </trkpt>
      <trkpt lat="42.37448" lon="2.46642">
        <ele>1336</ele>
        <time>2022-05-21 20:34:02</time>
      </trkpt>
      <trkpt lat="42.37447" lon="2.46641">
        <ele>1336.2</ele>
        <time>2022-05-21 20:34:03</time>
      </trkpt>
      <trkpt lat="42.37445" lon="2.46641">
        <ele>1336.4</ele>
        <time>2022-05-21 20:34:04</time>
      </trkpt>
      <trkpt lat="42.37443" lon="2.46641">
        <ele>1336.6</ele>
        <time>2022-05-21 20:34:05</time>
      </trkpt>
      <trkpt lat="42.37441" lon="2.4664">
        <ele>1336.8</ele>
        <time>2022-05-21 20:34:06</time>
      </trkpt>
      <trkpt lat="42.3744" lon="2.46639">
        <ele>1337</ele>
        <time>2022-05-21 20:34:07</time>
      </trkpt>
      <trkpt lat="42.37439" lon="2.46638">
        <ele>1337</ele>
        <time>2022-05-21 20:34:08</time>
      </trkpt>
      <trkpt lat="42.37438" lon="2.46638">
        <ele>1337.2</ele>
        <time>2022-05-21 20:34:09</time>
      </trkpt>
      <trkpt lat="42.37436" lon="2.46637">
        <ele>1337.4</ele>
        <time>2022-05-21 20:34:10</time>
      </trkpt>
      <trkpt lat="42.37435" lon="2.46636">
        <ele>1337.6</ele>
        <time>2022-05-21 20:34:11</time>
      </trkpt>
      <trkpt lat="42.37433" lon="2.46635">
        <ele>1337.8</ele>
        <time>2022-05-21 20:34:12</time>
      </trkpt>
      <trkpt lat="42.37431" lon="2.46635">
        <ele>1338</ele>
        <time>2022-05-21 20:34:13</time>
      </trkpt>
      <trkpt lat="42.3743" lon="2.46634">
        <ele>1338</ele>
        <time>2022-05-21 20:34:14</time>
      </trkpt>
      <trkpt lat="42.37428" lon="2.46634">
        <ele>1338.2</ele>
        <time>2022-05-21 20:34:15</time>
      </trkpt>
      <trkpt lat="42.37427" lon="2.46634">
        <ele>1338.4</ele>
        <time>2022-05-21 20:34:16</time>
      </trkpt>
      <trkpt lat="42.37425" lon="2.46633">
        <ele>1338.6</ele>
        <time>2022-05-21 20:34:17</time>
      </trkpt>
      <trkpt lat="42.37423" lon="2.46632">
        <ele>1338.8</ele>
        <time>2022-05-21 20:34:18</time>
      </trkpt>
      <trkpt lat="42.37422" lon="2.46631">
        <ele>1339</ele>
        <time>2022-05-21 20:34:19</time>
      </trkpt>
      <trkpt lat="42.3742" lon="2.46631">
        <ele>1339.2</ele>
        <time>2022-05-21 20:34:20</time>
      </trkpt>
      <trkpt lat="42.37417" lon="2.46631">
        <ele>1339.4</ele>
        <time>2022-05-21 20:34:21</time>
      </trkpt>
      <trkpt lat="42.37416" lon="2.4663">
        <ele>1339.6</ele>
        <time>2022-05-21 20:34:22</time>
      </trkpt>
      <trkpt lat="42.37414" lon="2.4663">
        <ele>1339.8</ele>
        <time>2022-05-21 20:34:23</time>
      </trkpt>
      <trkpt lat="42.37412" lon="2.4663">
        <ele>1340</ele>
        <time>2022-05-21 20:34:24</time>
      </trkpt>
      <trkpt lat="42.37411" lon="2.4663">
        <ele>1340</ele>
        <time>2022-05-21 20:34:25</time>
      </trkpt>
      <trkpt lat="42.37409" lon="2.4663">
        <ele>1340.2</ele>
        <time>2022-05-21 20:34:26</time>
      </trkpt>
      <trkpt lat="42.37407" lon="2.4663">
        <ele>1340.4</ele>
        <time>2022-05-21 20:34:27</time>
      </trkpt>
      <trkpt lat="42.37406" lon="2.4663">
        <ele>1340.4</ele>
        <time>2022-05-21 20:34:28</time>
      </trkpt>
      <trkpt lat="42.37404" lon="2.4663">
        <ele>1340.6</ele>
        <time>2022-05-21 20:34:29</time>
      </trkpt>
      <trkpt lat="42.37402" lon="2.46629">
        <ele>1340.8</ele>
        <time>2022-05-21 20:34:30</time>
      </trkpt>
      <trkpt lat="42.37401" lon="2.46628">
        <ele>1341</ele>
        <time>2022-05-21 20:34:31</time>
      </trkpt>
      <trkpt lat="42.37399" lon="2.46628">
        <ele>1341.2</ele>
        <time>2022-05-21 20:34:32</time>
      </trkpt>
      <trkpt lat="42.37398" lon="2.46628">
        <ele>1341.2</ele>
        <time>2022-05-21 20:34:33</time>
      </trkpt>
      <trkpt lat="42.37396" lon="2.46628">
        <ele>1341.4</ele>
        <time>2022-05-21 20:34:34</time>
      </trkpt>
      <trkpt lat="42.37395" lon="2.46628">
        <ele>1341.6</ele>
        <time>2022-05-21 20:34:35</time>
      </trkpt>
      <trkpt lat="42.37394" lon="2.46628">
        <ele>1341.6</ele>
        <time>2022-05-21 20:34:36</time>
      </trkpt>
      <trkpt lat="42.37392" lon="2.46627">
        <ele>1341.8</ele>
        <time>2022-05-21 20:34:37</time>
      </trkpt>
      <trkpt lat="42.37391" lon="2.46627">
        <ele>1342</ele>
        <time>2022-05-21 20:34:38</time>
      </trkpt>
      <trkpt lat="42.37389" lon="2.46627">
        <ele>1342.2</ele>
        <time>2022-05-21 20:34:39</time>
      </trkpt>
      <trkpt lat="42.37388" lon="2.46626">
        <ele>1342.2</ele>
        <time>2022-05-21 20:34:40</time>
      </trkpt>
      <trkpt lat="42.37386" lon="2.46626">
        <ele>1342.4</ele>
        <time>2022-05-21 20:34:41</time>
      </trkpt>
      <trkpt lat="42.37385" lon="2.46626">
        <ele>1342.6</ele>
        <time>2022-05-21 20:34:42</time>
      </trkpt>
      <trkpt lat="42.37384" lon="2.46625">
        <ele>1342.6</ele>
        <time>2022-05-21 20:34:43</time>
      </trkpt>
      <trkpt lat="42.37383" lon="2.46625">
        <ele>1342.8</ele>
        <time>2022-05-21 20:34:44</time>
      </trkpt>
      <trkpt lat="42.37381" lon="2.46624">
        <ele>1343</ele>
        <time>2022-05-21 20:34:45</time>
      </trkpt>
      <trkpt lat="42.3738" lon="2.46623">
        <ele>1343</ele>
        <time>2022-05-21 20:34:46</time>
      </trkpt>
      <trkpt lat="42.37378" lon="2.46623">
        <ele>1343.2</ele>
        <time>2022-05-21 20:34:47</time>
      </trkpt>
      <trkpt lat="42.37377" lon="2.46623">
        <ele>1343.4</ele>
        <time>2022-05-21 20:34:48</time>
      </trkpt>
      <trkpt lat="42.37377" lon="2.46623">
        <ele>1343.4</ele>
        <time>2022-05-21 20:34:49</time>
      </trkpt>
      <trkpt lat="42.37375" lon="2.46622">
        <ele>1343.6</ele>
        <time>2022-05-21 20:34:50</time>
      </trkpt>
      <trkpt lat="42.37373" lon="2.46621">
        <ele>1343.8</ele>
        <time>2022-05-21 20:34:51</time>
      </trkpt>
      <trkpt lat="42.37371" lon="2.4662">
        <ele>1344</ele>
        <time>2022-05-21 20:34:52</time>
      </trkpt>
      <trkpt lat="42.37369" lon="2.4662">
        <ele>1344</ele>
        <time>2022-05-21 20:34:53</time>
      </trkpt>
      <trkpt lat="42.37367" lon="2.4662">
        <ele>1344.2</ele>
        <time>2022-05-21 20:34:54</time>
      </trkpt>
      <trkpt lat="42.37365" lon="2.4662">
        <ele>1344.4</ele>
        <time>2022-05-21 20:34:55</time>
      </trkpt>
      <trkpt lat="42.37363" lon="2.46621">
        <ele>1344.4</ele>
        <time>2022-05-21 20:34:56</time>
      </trkpt>
      <trkpt lat="42.37361" lon="2.46621">
        <ele>1344.6</ele>
        <time>2022-05-21 20:34:57</time>
      </trkpt>
      <trkpt lat="42.3736" lon="2.4662">
        <ele>1344.8</ele>
        <time>2022-05-21 20:34:58</time>
      </trkpt>
      <trkpt lat="42.37358" lon="2.46619">
        <ele>1344.8</ele>
        <time>2022-05-21 20:34:59</time>
      </trkpt>
      <trkpt lat="42.37357" lon="2.46618">
        <ele>1345</ele>
        <time>2022-05-21 20:35:00</time>
      </trkpt>
      <trkpt lat="42.37355" lon="2.46618">
        <ele>1345.2</ele>
        <time>2022-05-21 20:35:01</time>
      </trkpt>
      <trkpt lat="42.37353" lon="2.46618">
        <ele>1345.4</ele>
        <time>2022-05-21 20:35:02</time>
      </trkpt>
      <trkpt lat="42.37351" lon="2.46619">
        <ele>1345.6</ele>
        <time>2022-05-21 20:35:03</time>
      </trkpt>
      <trkpt lat="42.3735" lon="2.46619">
        <ele>1345.8</ele>
        <time>2022-05-21 20:35:04</time>
      </trkpt>
      <trkpt lat="42.37348" lon="2.46618">
        <ele>1346</ele>
        <time>2022-05-21 20:35:05</time>
      </trkpt>
      <trkpt lat="42.37346" lon="2.46618">
        <ele>1346</ele>
        <time>2022-05-21 20:35:06</time>
      </trkpt>
      <trkpt lat="42.37345" lon="2.46618">
        <ele>1346.2</ele>
        <time>2022-05-21 20:35:07</time>
      </trkpt>
      <trkpt lat="42.37343" lon="2.46618">
        <ele>1346.4</ele>
        <time>2022-05-21 20:35:08</time>
      </trkpt>
      <trkpt lat="42.37341" lon="2.46617">
        <ele>1346.6</ele>
        <time>2022-05-21 20:35:09</time>
      </trkpt>
      <trkpt lat="42.37339" lon="2.46617">
        <ele>1346.8</ele>
        <time>2022-05-21 20:35:10</time>
      </trkpt>
      <trkpt lat="42.37338" lon="2.46617">
        <ele>1347</ele>
        <time>2022-05-21 20:35:11</time>
      </trkpt>
      <trkpt lat="42.37336" lon="2.46617">
        <ele>1347</ele>
        <time>2022-05-21 20:35:12</time>
      </trkpt>
      <trkpt lat="42.37334" lon="2.46616">
        <ele>1347.2</ele>
        <time>2022-05-21 20:35:13</time>
      </trkpt>
      <trkpt lat="42.37333" lon="2.46615">
        <ele>1347.4</ele>
        <time>2022-05-21 20:35:14</time>
      </trkpt>
      <trkpt lat="42.37331" lon="2.46615">
        <ele>1347.6</ele>
        <time>2022-05-21 20:35:15</time>
      </trkpt>
      <trkpt lat="42.3733" lon="2.46614">
        <ele>1347.8</ele>
        <time>2022-05-21 20:35:16</time>
      </trkpt>
      <trkpt lat="42.37328" lon="2.46614">
        <ele>1348</ele>
        <time>2022-05-21 20:35:17</time>
      </trkpt>
      <trkpt lat="42.37326" lon="2.46614">
        <ele>1348.2</ele>
        <time>2022-05-21 20:35:18</time>
      </trkpt>
      <trkpt lat="42.37325" lon="2.46614">
        <ele>1348.2</ele>
        <time>2022-05-21 20:35:19</time>
      </trkpt>
      <trkpt lat="42.37323" lon="2.46614">
        <ele>1348.4</ele>
        <time>2022-05-21 20:35:20</time>
      </trkpt>
      <trkpt lat="42.37321" lon="2.46613">
        <ele>1348.6</ele>
        <time>2022-05-21 20:35:21</time>
      </trkpt>
      <trkpt lat="42.37319" lon="2.46613">
        <ele>1348.8</ele>
        <time>2022-05-21 20:35:22</time>
      </trkpt>
      <trkpt lat="42.37318" lon="2.46612">
        <ele>1349</ele>
        <time>2022-05-21 20:35:23</time>
      </trkpt>
      <trkpt lat="42.37316" lon="2.46612">
        <ele>1349.2</ele>
        <time>2022-05-21 20:35:24</time>
      </trkpt>
      <trkpt lat="42.37314" lon="2.46611">
        <ele>1349.4</ele>
        <time>2022-05-21 20:35:25</time>
      </trkpt>
      <trkpt lat="42.37313" lon="2.46611">
        <ele>1349.4</ele>
        <time>2022-05-21 20:35:26</time>
      </trkpt>
      <trkpt lat="42.37311" lon="2.46611">
        <ele>1349.6</ele>
        <time>2022-05-21 20:35:27</time>
      </trkpt>
      <trkpt lat="42.37309" lon="2.4661">
        <ele>1349.8</ele>
        <time>2022-05-21 20:35:28</time>
      </trkpt>
      <trkpt lat="42.37307" lon="2.46609">
        <ele>1350</ele>
        <time>2022-05-21 20:35:29</time>
      </trkpt>
      <trkpt lat="42.37306" lon="2.46609">
        <ele>1350.2</ele>
        <time>2022-05-21 20:35:30</time>
      </trkpt>
      <trkpt lat="42.37304" lon="2.46608">
        <ele>1350.4</ele>
        <time>2022-05-21 20:35:31</time>
      </trkpt>
      <trkpt lat="42.37302" lon="2.46608">
        <ele>1350.6</ele>
        <time>2022-05-21 20:35:32</time>
      </trkpt>
      <trkpt lat="42.373" lon="2.46608">
        <ele>1350.8</ele>
        <time>2022-05-21 20:35:33</time>
      </trkpt>
      <trkpt lat="42.37299" lon="2.46608">
        <ele>1350.8</ele>
        <time>2022-05-21 20:35:34</time>
      </trkpt>
      <trkpt lat="42.37297" lon="2.46609">
        <ele>1351</ele>
        <time>2022-05-21 20:35:35</time>
      </trkpt>
      <trkpt lat="42.37295" lon="2.46608">
        <ele>1351.2</ele>
        <time>2022-05-21 20:35:36</time>
      </trkpt>
      <trkpt lat="42.37293" lon="2.46608">
        <ele>1351.4</ele>
        <time>2022-05-21 20:35:37</time>
      </trkpt>
      <trkpt lat="42.37291" lon="2.46608">
        <ele>1351.6</ele>
        <time>2022-05-21 20:35:38</time>
      </trkpt>
      <trkpt lat="42.3729" lon="2.46608">
        <ele>1351.8</ele>
        <time>2022-05-21 20:35:39</time>
      </trkpt>
      <trkpt lat="42.37288" lon="2.46607">
        <ele>1352.2</ele>
        <time>2022-05-21 20:35:40</time>
      </trkpt>
      <trkpt lat="42.37286" lon="2.46607">
        <ele>1352.4</ele>
        <time>2022-05-21 20:35:41</time>
      </trkpt>
      <trkpt lat="42.37284" lon="2.46607">
        <ele>1352.6</ele>
        <time>2022-05-21 20:35:42</time>
      </trkpt>
      <trkpt lat="42.37282" lon="2.46607">
        <ele>1352.8</ele>
        <time>2022-05-21 20:35:43</time>
      </trkpt>
      <trkpt lat="42.37281" lon="2.46607">
        <ele>1353</ele>
        <time>2022-05-21 20:35:44</time>
      </trkpt>
      <trkpt lat="42.37279" lon="2.46607">
        <ele>1353</ele>
        <time>2022-05-21 20:35:45</time>
      </trkpt>
      <trkpt lat="42.37277" lon="2.46607">
        <ele>1353.2</ele>
        <time>2022-05-21 20:35:46</time>
      </trkpt>
      <trkpt lat="42.37275" lon="2.46607">
        <ele>1353.4</ele>
        <time>2022-05-21 20:35:47</time>
      </trkpt>
      <trkpt lat="42.37273" lon="2.46608">
        <ele>1353.6</ele>
        <time>2022-05-21 20:35:48</time>
      </trkpt>
      <trkpt lat="42.37272" lon="2.46608">
        <ele>1353.8</ele>
        <time>2022-05-21 20:35:49</time>
      </trkpt>
      <trkpt lat="42.3727" lon="2.46607">
        <ele>1354</ele>
        <time>2022-05-21 20:35:50</time>
      </trkpt>
      <trkpt lat="42.37268" lon="2.46607">
        <ele>1354.2</ele>
        <time>2022-05-21 20:35:51</time>
      </trkpt>
      <trkpt lat="42.37267" lon="2.46607">
        <ele>1354.4</ele>
        <time>2022-05-21 20:35:52</time>
      </trkpt>
      <trkpt lat="42.37266" lon="2.46607">
        <ele>1354.6</ele>
        <time>2022-05-21 20:35:53</time>
      </trkpt>
      <trkpt lat="42.37264" lon="2.46607">
        <ele>1354.8</ele>
        <time>2022-05-21 20:35:54</time>
      </trkpt>
      <trkpt lat="42.37263" lon="2.46607">
        <ele>1355</ele>
        <time>2022-05-21 20:35:55</time>
      </trkpt>
      <trkpt lat="42.37261" lon="2.46607">
        <ele>1355</ele>
        <time>2022-05-21 20:35:56</time>
      </trkpt>
      <trkpt lat="42.37259" lon="2.46607">
        <ele>1355.2</ele>
        <time>2022-05-21 20:35:57</time>
      </trkpt>
      <trkpt lat="42.37258" lon="2.46607">
        <ele>1355.4</ele>
        <time>2022-05-21 20:35:58</time>
      </trkpt>
      <trkpt lat="42.37256" lon="2.46607">
        <ele>1355.6</ele>
        <time>2022-05-21 20:35:59</time>
      </trkpt>
      <trkpt lat="42.37254" lon="2.46607">
        <ele>1355.8</ele>
        <time>2022-05-21 20:36:00</time>
      </trkpt>
      <trkpt lat="42.37253" lon="2.46607">
        <ele>1356</ele>
        <time>2022-05-21 20:36:01</time>
      </trkpt>
      <trkpt lat="42.37252" lon="2.46606">
        <ele>1356</ele>
        <time>2022-05-21 20:36:02</time>
      </trkpt>
      <trkpt lat="42.3725" lon="2.46607">
        <ele>1356.2</ele>
        <time>2022-05-21 20:36:03</time>
      </trkpt>
      <trkpt lat="42.37248" lon="2.46607">
        <ele>1356.4</ele>
        <time>2022-05-21 20:36:04</time>
      </trkpt>
      <trkpt lat="42.37247" lon="2.46607">
        <ele>1356.4</ele>
        <time>2022-05-21 20:36:05</time>
      </trkpt>
      <trkpt lat="42.37245" lon="2.46607">
        <ele>1356.6</ele>
        <time>2022-05-21 20:36:06</time>
      </trkpt>
      <trkpt lat="42.37243" lon="2.46607">
        <ele>1356.8</ele>
        <time>2022-05-21 20:36:07</time>
      </trkpt>
      <trkpt lat="42.37242" lon="2.46607">
        <ele>1357</ele>
        <time>2022-05-21 20:36:08</time>
      </trkpt>
      <trkpt lat="42.3724" lon="2.46606">
        <ele>1357</ele>
        <time>2022-05-21 20:36:09</time>
      </trkpt>
      <trkpt lat="42.37239" lon="2.46606">
        <ele>1357.2</ele>
        <time>2022-05-21 20:36:10</time>
      </trkpt>
      <trkpt lat="42.37237" lon="2.46606">
        <ele>1357.4</ele>
        <time>2022-05-21 20:36:11</time>
      </trkpt>
      <trkpt lat="42.37235" lon="2.46605">
        <ele>1357.4</ele>
        <time>2022-05-21 20:36:12</time>
      </trkpt>
      <trkpt lat="42.37234" lon="2.46605">
        <ele>1357.6</ele>
        <time>2022-05-21 20:36:13</time>
      </trkpt>
      <trkpt lat="42.37232" lon="2.46605">
        <ele>1357.8</ele>
        <time>2022-05-21 20:36:14</time>
      </trkpt>
      <trkpt lat="42.3723" lon="2.46604">
        <ele>1358</ele>
        <time>2022-05-21 20:36:15</time>
      </trkpt>
      <trkpt lat="42.37229" lon="2.46603">
        <ele>1358.2</ele>
        <time>2022-05-21 20:36:16</time>
      </trkpt>
      <trkpt lat="42.37227" lon="2.46603">
        <ele>1358.4</ele>
        <time>2022-05-21 20:36:17</time>
      </trkpt>
      <trkpt lat="42.37225" lon="2.46602">
        <ele>1358.4</ele>
        <time>2022-05-21 20:36:18</time>
      </trkpt>
      <trkpt lat="42.37224" lon="2.46601">
        <ele>1358.6</ele>
        <time>2022-05-21 20:36:19</time>
      </trkpt>
      <trkpt lat="42.37222" lon="2.46601">
        <ele>1358.8</ele>
        <time>2022-05-21 20:36:20</time>
      </trkpt>
      <trkpt lat="42.37221" lon="2.46601">
        <ele>1359</ele>
        <time>2022-05-21 20:36:21</time>
      </trkpt>
      <trkpt lat="42.37219" lon="2.46601">
        <ele>1359.2</ele>
        <time>2022-05-21 20:36:22</time>
      </trkpt>
      <trkpt lat="42.37218" lon="2.466">
        <ele>1359.4</ele>
        <time>2022-05-21 20:36:23</time>
      </trkpt>
      <trkpt lat="42.37216" lon="2.466">
        <ele>1359.6</ele>
        <time>2022-05-21 20:36:24</time>
      </trkpt>
      <trkpt lat="42.37215" lon="2.466">
        <ele>1359.6</ele>
        <time>2022-05-21 20:36:25</time>
      </trkpt>
      <trkpt lat="42.37214" lon="2.46599">
        <ele>1359.8</ele>
        <time>2022-05-21 20:36:26</time>
      </trkpt>
      <trkpt lat="42.37212" lon="2.46598">
        <ele>1360</ele>
        <time>2022-05-21 20:36:27</time>
      </trkpt>
      <trkpt lat="42.3721" lon="2.46597">
        <ele>1360.2</ele>
        <time>2022-05-21 20:36:28</time>
      </trkpt>
      <trkpt lat="42.37209" lon="2.46597">
        <ele>1360.4</ele>
        <time>2022-05-21 20:36:29</time>
      </trkpt>
      <trkpt lat="42.37207" lon="2.46596">
        <ele>1360.6</ele>
        <time>2022-05-21 20:36:30</time>
      </trkpt>
      <trkpt lat="42.37206" lon="2.46595">
        <ele>1360.8</ele>
        <time>2022-05-21 20:36:31</time>
      </trkpt>
      <trkpt lat="42.37204" lon="2.46595">
        <ele>1361</ele>
        <time>2022-05-21 20:36:32</time>
      </trkpt>
      <trkpt lat="42.37203" lon="2.46594">
        <ele>1361.2</ele>
        <time>2022-05-21 20:36:33</time>
      </trkpt>
      <trkpt lat="42.37201" lon="2.46593">
        <ele>1361.2</ele>
        <time>2022-05-21 20:36:34</time>
      </trkpt>
      <trkpt lat="42.372" lon="2.46593">
        <ele>1361.4</ele>
        <time>2022-05-21 20:36:35</time>
      </trkpt>
      <trkpt lat="42.37198" lon="2.46592">
        <ele>1361.4</ele>
        <time>2022-05-21 20:36:36</time>
      </trkpt>
      <trkpt lat="42.37197" lon="2.46591">
        <ele>1361.6</ele>
        <time>2022-05-21 20:36:37</time>
      </trkpt>
      <trkpt lat="42.37196" lon="2.4659">
        <ele>1361.8</ele>
        <time>2022-05-21 20:36:38</time>
      </trkpt>
      <trkpt lat="42.37194" lon="2.46589">
        <ele>1362</ele>
        <time>2022-05-21 20:36:39</time>
      </trkpt>
      <trkpt lat="42.37193" lon="2.46589">
        <ele>1362.2</ele>
        <time>2022-05-21 20:36:40</time>
      </trkpt>
      <trkpt lat="42.37191" lon="2.46588">
        <ele>1362.4</ele>
        <time>2022-05-21 20:36:41</time>
      </trkpt>
      <trkpt lat="42.3719" lon="2.46587">
        <ele>1362.4</ele>
        <time>2022-05-21 20:36:42</time>
      </trkpt>
      <trkpt lat="42.37189" lon="2.46586">
        <ele>1362.6</ele>
        <time>2022-05-21 20:36:43</time>
      </trkpt>
      <trkpt lat="42.37187" lon="2.46584">
        <ele>1362.8</ele>
        <time>2022-05-21 20:36:44</time>
      </trkpt>
      <trkpt lat="42.37186" lon="2.46583">
        <ele>1363</ele>
        <time>2022-05-21 20:36:45</time>
      </trkpt>
      <trkpt lat="42.37184" lon="2.46582">
        <ele>1363.2</ele>
        <time>2022-05-21 20:36:46</time>
      </trkpt>
      <trkpt lat="42.37183" lon="2.46581">
        <ele>1363.2</ele>
        <time>2022-05-21 20:36:47</time>
      </trkpt>
      <trkpt lat="42.37182" lon="2.4658">
        <ele>1363.4</ele>
        <time>2022-05-21 20:36:48</time>
      </trkpt>
      <trkpt lat="42.3718" lon="2.46579">
        <ele>1363.6</ele>
        <time>2022-05-21 20:36:49</time>
      </trkpt>
      <trkpt lat="42.37179" lon="2.46577">
        <ele>1363.8</ele>
        <time>2022-05-21 20:36:50</time>
      </trkpt>
      <trkpt lat="42.37177" lon="2.46576">
        <ele>1363.8</ele>
        <time>2022-05-21 20:36:51</time>
      </trkpt>
      <trkpt lat="42.37176" lon="2.46574">
        <ele>1364</ele>
        <time>2022-05-21 20:36:52</time>
      </trkpt>
      <trkpt lat="42.37174" lon="2.46572">
        <ele>1364.2</ele>
        <time>2022-05-21 20:36:53</time>
      </trkpt>
      <trkpt lat="42.37172" lon="2.46571">
        <ele>1364.4</ele>
        <time>2022-05-21 20:36:54</time>
      </trkpt>
      <trkpt lat="42.37171" lon="2.46569">
        <ele>1364.6</ele>
        <time>2022-05-21 20:36:55</time>
      </trkpt>
      <trkpt lat="42.3717" lon="2.46567">
        <ele>1364.8</ele>
        <time>2022-05-21 20:36:56</time>
      </trkpt>
      <trkpt lat="42.37168" lon="2.46565">
        <ele>1365</ele>
        <time>2022-05-21 20:36:57</time>
      </trkpt>
      <trkpt lat="42.37167" lon="2.46564">
        <ele>1365</ele>
        <time>2022-05-21 20:36:58</time>
      </trkpt>
      <trkpt lat="42.37165" lon="2.46562">
        <ele>1365.2</ele>
        <time>2022-05-21 20:36:59</time>
      </trkpt>
      <trkpt lat="42.37164" lon="2.4656">
        <ele>1365.4</ele>
        <time>2022-05-21 20:37:00</time>
      </trkpt>
      <trkpt lat="42.37162" lon="2.46558">
        <ele>1365.6</ele>
        <time>2022-05-21 20:37:01</time>
      </trkpt>
      <trkpt lat="42.37161" lon="2.46557">
        <ele>1365.8</ele>
        <time>2022-05-21 20:37:02</time>
      </trkpt>
      <trkpt lat="42.37159" lon="2.46555">
        <ele>1366</ele>
        <time>2022-05-21 20:37:03</time>
      </trkpt>
      <trkpt lat="42.37158" lon="2.46554">
        <ele>1366.2</ele>
        <time>2022-05-21 20:37:04</time>
      </trkpt>
      <trkpt lat="42.37157" lon="2.46552">
        <ele>1366.4</ele>
        <time>2022-05-21 20:37:05</time>
      </trkpt>
      <trkpt lat="42.37155" lon="2.46551">
        <ele>1366.6</ele>
        <time>2022-05-21 20:37:06</time>
      </trkpt>
      <trkpt lat="42.37154" lon="2.4655">
        <ele>1366.8</ele>
        <time>2022-05-21 20:37:07</time>
      </trkpt>
      <trkpt lat="42.37153" lon="2.46548">
        <ele>1367</ele>
        <time>2022-05-21 20:37:08</time>
      </trkpt>
      <trkpt lat="42.37152" lon="2.46546">
        <ele>1367</ele>
        <time>2022-05-21 20:37:09</time>
      </trkpt>
      <trkpt lat="42.3715" lon="2.46545">
        <ele>1367.2</ele>
        <time>2022-05-21 20:37:10</time>
      </trkpt>
      <trkpt lat="42.37149" lon="2.46543">
        <ele>1367.4</ele>
        <time>2022-05-21 20:37:11</time>
      </trkpt>
      <trkpt lat="42.37148" lon="2.46542">
        <ele>1367.6</ele>
        <time>2022-05-21 20:37:12</time>
      </trkpt>
      <trkpt lat="42.37147" lon="2.46541">
        <ele>1367.8</ele>
        <time>2022-05-21 20:37:13</time>
      </trkpt>
      <trkpt lat="42.37145" lon="2.4654">
        <ele>1368</ele>
        <time>2022-05-21 20:37:14</time>
      </trkpt>
      <trkpt lat="42.37144" lon="2.46538">
        <ele>1368</ele>
        <time>2022-05-21 20:37:15</time>
      </trkpt>
      <trkpt lat="42.37143" lon="2.46536">
        <ele>1368.2</ele>
        <time>2022-05-21 20:37:16</time>
      </trkpt>
      <trkpt lat="42.37142" lon="2.46535">
        <ele>1368.4</ele>
        <time>2022-05-21 20:37:17</time>
      </trkpt>
      <trkpt lat="42.3714" lon="2.46534">
        <ele>1368.6</ele>
        <time>2022-05-21 20:37:18</time>
      </trkpt>
      <trkpt lat="42.37139" lon="2.46533">
        <ele>1368.6</ele>
        <time>2022-05-21 20:37:19</time>
      </trkpt>
      <trkpt lat="42.37138" lon="2.46531">
        <ele>1368.8</ele>
        <time>2022-05-21 20:37:20</time>
      </trkpt>
      <trkpt lat="42.37137" lon="2.4653">
        <ele>1368.8</ele>
        <time>2022-05-21 20:37:21</time>
      </trkpt>
      <trkpt lat="42.37136" lon="2.46529">
        <ele>1369</ele>
        <time>2022-05-21 20:37:22</time>
      </trkpt>
      <trkpt lat="42.37134" lon="2.46527">
        <ele>1369.2</ele>
        <time>2022-05-21 20:37:23</time>
      </trkpt>
      <trkpt lat="42.37133" lon="2.46526">
        <ele>1369.4</ele>
        <time>2022-05-21 20:37:24</time>
      </trkpt>
      <trkpt lat="42.37132" lon="2.46525">
        <ele>1369.6</ele>
        <time>2022-05-21 20:37:25</time>
      </trkpt>
      <trkpt lat="42.37131" lon="2.46523">
        <ele>1369.8</ele>
        <time>2022-05-21 20:37:26</time>
      </trkpt>
      <trkpt lat="42.37129" lon="2.46522">
        <ele>1370</ele>
        <time>2022-05-21 20:37:27</time>
      </trkpt>
      <trkpt lat="42.37128" lon="2.4652">
        <ele>1370</ele>
        <time>2022-05-21 20:37:28</time>
      </trkpt>
      <trkpt lat="42.37127" lon="2.46518">
        <ele>1370.2</ele>
        <time>2022-05-21 20:37:29</time>
      </trkpt>
      <trkpt lat="42.37126" lon="2.46517">
        <ele>1370.4</ele>
        <time>2022-05-21 20:37:30</time>
      </trkpt>
      <trkpt lat="42.37125" lon="2.46515">
        <ele>1370.6</ele>
        <time>2022-05-21 20:37:31</time>
      </trkpt>
      <trkpt lat="42.37123" lon="2.46514">
        <ele>1370.6</ele>
        <time>2022-05-21 20:37:32</time>
      </trkpt>
      <trkpt lat="42.37122" lon="2.46513">
        <ele>1370.8</ele>
        <time>2022-05-21 20:37:33</time>
      </trkpt>
      <trkpt lat="42.3712" lon="2.46511">
        <ele>1371</ele>
        <time>2022-05-21 20:37:34</time>
      </trkpt>
      <trkpt lat="42.37119" lon="2.4651">
        <ele>1371.2</ele>
        <time>2022-05-21 20:37:35</time>
      </trkpt>
      <trkpt lat="42.37117" lon="2.46508">
        <ele>1371.2</ele>
        <time>2022-05-21 20:37:36</time>
      </trkpt>
      <trkpt lat="42.37116" lon="2.46506">
        <ele>1371.4</ele>
        <time>2022-05-21 20:37:37</time>
      </trkpt>
      <trkpt lat="42.37114" lon="2.46505">
        <ele>1371.4</ele>
        <time>2022-05-21 20:37:38</time>
      </trkpt>
      <trkpt lat="42.37112" lon="2.46503">
        <ele>1371.6</ele>
        <time>2022-05-21 20:37:39</time>
      </trkpt>
      <trkpt lat="42.37111" lon="2.46502">
        <ele>1371.8</ele>
        <time>2022-05-21 20:37:40</time>
      </trkpt>
      <trkpt lat="42.37109" lon="2.465">
        <ele>1372</ele>
        <time>2022-05-21 20:37:41</time>
      </trkpt>
      <trkpt lat="42.37108" lon="2.46498">
        <ele>1372</ele>
        <time>2022-05-21 20:37:42</time>
      </trkpt>
      <trkpt lat="42.37107" lon="2.46496">
        <ele>1372</ele>
        <time>2022-05-21 20:37:43</time>
      </trkpt>
      <trkpt lat="42.37105" lon="2.46495">
        <ele>1372.2</ele>
        <time>2022-05-21 20:37:44</time>
      </trkpt>
      <trkpt lat="42.37104" lon="2.46493">
        <ele>1372.4</ele>
        <time>2022-05-21 20:37:45</time>
      </trkpt>
      <trkpt lat="42.37102" lon="2.46491">
        <ele>1372.6</ele>
        <time>2022-05-21 20:37:46</time>
      </trkpt>
      <trkpt lat="42.37101" lon="2.4649">
        <ele>1372.6</ele>
        <time>2022-05-21 20:37:47</time>
      </trkpt>
      <trkpt lat="42.371" lon="2.46488">
        <ele>1372.8</ele>
        <time>2022-05-21 20:37:48</time>
      </trkpt>
      <trkpt lat="42.37098" lon="2.46487">
        <ele>1373</ele>
        <time>2022-05-21 20:37:49</time>
      </trkpt>
      <trkpt lat="42.37097" lon="2.46485">
        <ele>1373</ele>
        <time>2022-05-21 20:37:50</time>
      </trkpt>
      <trkpt lat="42.37095" lon="2.46483">
        <ele>1373.2</ele>
        <time>2022-05-21 20:37:51</time>
      </trkpt>
      <trkpt lat="42.37094" lon="2.46482">
        <ele>1373.2</ele>
        <time>2022-05-21 20:37:52</time>
      </trkpt>
      <trkpt lat="42.37093" lon="2.4648">
        <ele>1373.4</ele>
        <time>2022-05-21 20:37:53</time>
      </trkpt>
      <trkpt lat="42.37091" lon="2.46478">
        <ele>1373.6</ele>
        <time>2022-05-21 20:37:54</time>
      </trkpt>
      <trkpt lat="42.3709" lon="2.46476">
        <ele>1373.8</ele>
        <time>2022-05-21 20:37:55</time>
      </trkpt>
      <trkpt lat="42.37088" lon="2.46474">
        <ele>1373.8</ele>
        <time>2022-05-21 20:37:56</time>
      </trkpt>
      <trkpt lat="42.37087" lon="2.46473">
        <ele>1374</ele>
        <time>2022-05-21 20:37:57</time>
      </trkpt>
      <trkpt lat="42.37086" lon="2.46471">
        <ele>1374.2</ele>
        <time>2022-05-21 20:37:58</time>
      </trkpt>
      <trkpt lat="42.37084" lon="2.46469">
        <ele>1374.2</ele>
        <time>2022-05-21 20:37:59</time>
      </trkpt>
      <trkpt lat="42.37083" lon="2.46467">
        <ele>1374.4</ele>
        <time>2022-05-21 20:38:00</time>
      </trkpt>
      <trkpt lat="42.37082" lon="2.46465">
        <ele>1374.6</ele>
        <time>2022-05-21 20:38:01</time>
      </trkpt>
      <trkpt lat="42.37081" lon="2.46463">
        <ele>1374.6</ele>
        <time>2022-05-21 20:38:02</time>
      </trkpt>
      <trkpt lat="42.37079" lon="2.46462">
        <ele>1374.8</ele>
        <time>2022-05-21 20:38:03</time>
      </trkpt>
      <trkpt lat="42.37078" lon="2.4646">
        <ele>1375</ele>
        <time>2022-05-21 20:38:04</time>
      </trkpt>
      <trkpt lat="42.37077" lon="2.46458">
        <ele>1375</ele>
        <time>2022-05-21 20:38:05</time>
      </trkpt>
      <trkpt lat="42.37076" lon="2.46455">
        <ele>1375.2</ele>
        <time>2022-05-21 20:38:06</time>
      </trkpt>
      <trkpt lat="42.37075" lon="2.46453">
        <ele>1375.4</ele>
        <time>2022-05-21 20:38:07</time>
      </trkpt>
      <trkpt lat="42.37075" lon="2.46451">
        <ele>1375.4</ele>
        <time>2022-05-21 20:38:08</time>
      </trkpt>
      <trkpt lat="42.37074" lon="2.46449">
        <ele>1375.6</ele>
        <time>2022-05-21 20:38:09</time>
      </trkpt>
      <trkpt lat="42.37074" lon="2.46446">
        <ele>1375.6</ele>
        <time>2022-05-21 20:38:10</time>
      </trkpt>
      <trkpt lat="42.37073" lon="2.46444">
        <ele>1375.8</ele>
        <time>2022-05-21 20:38:11</time>
      </trkpt>
      <trkpt lat="42.37073" lon="2.46442">
        <ele>1376</ele>
        <time>2022-05-21 20:38:12</time>
      </trkpt>
      <trkpt lat="42.37073" lon="2.46439">
        <ele>1376</ele>
        <time>2022-05-21 20:38:13</time>
      </trkpt>
      <trkpt lat="42.37073" lon="2.46437">
        <ele>1376.2</ele>
        <time>2022-05-21 20:38:14</time>
      </trkpt>
      <trkpt lat="42.37074" lon="2.46435">
        <ele>1376.4</ele>
        <time>2022-05-21 20:38:15</time>
      </trkpt>
      <trkpt lat="42.37074" lon="2.46432">
        <ele>1376.4</ele>
        <time>2022-05-21 20:38:16</time>
      </trkpt>
      <trkpt lat="42.37075" lon="2.4643">
        <ele>1376.6</ele>
        <time>2022-05-21 20:38:17</time>
      </trkpt>
      <trkpt lat="42.37076" lon="2.46428">
        <ele>1376.8</ele>
        <time>2022-05-21 20:38:18</time>
      </trkpt>
      <trkpt lat="42.37077" lon="2.46426">
        <ele>1377</ele>
        <time>2022-05-21 20:38:19</time>
      </trkpt>
      <trkpt lat="42.37079" lon="2.46424">
        <ele>1377.2</ele>
        <time>2022-05-21 20:38:20</time>
      </trkpt>
      <trkpt lat="42.3708" lon="2.46423">
        <ele>1377.2</ele>
        <time>2022-05-21 20:38:21</time>
      </trkpt>
      <trkpt lat="42.37081" lon="2.46421">
        <ele>1377.4</ele>
        <time>2022-05-21 20:38:22</time>
      </trkpt>
      <trkpt lat="42.37083" lon="2.4642">
        <ele>1377.6</ele>
        <time>2022-05-21 20:38:23</time>
      </trkpt>
      <trkpt lat="42.37085" lon="2.46419">
        <ele>1377.8</ele>
        <time>2022-05-21 20:38:24</time>
      </trkpt>
      <trkpt lat="42.37086" lon="2.46419">
        <ele>1377.8</ele>
        <time>2022-05-21 20:38:25</time>
      </trkpt>
      <trkpt lat="42.37088" lon="2.46418">
        <ele>1378</ele>
        <time>2022-05-21 20:38:26</time>
      </trkpt>
      <trkpt lat="42.3709" lon="2.46418">
        <ele>1378</ele>
        <time>2022-05-21 20:38:27</time>
      </trkpt>
      <trkpt lat="42.37092" lon="2.46418">
        <ele>1378.2</ele>
        <time>2022-05-21 20:38:28</time>
      </trkpt>
      <trkpt lat="42.37094" lon="2.46419">
        <ele>1378.2</ele>
        <time>2022-05-21 20:38:29</time>
      </trkpt>
      <trkpt lat="42.37096" lon="2.4642">
        <ele>1378.4</ele>
        <time>2022-05-21 20:38:30</time>
      </trkpt>
      <trkpt lat="42.37098" lon="2.46422">
        <ele>1378.4</ele>
        <time>2022-05-21 20:38:31</time>
      </trkpt>
      <trkpt lat="42.371" lon="2.46423">
        <ele>1378.6</ele>
        <time>2022-05-21 20:38:32</time>
      </trkpt>
      <trkpt lat="42.37101" lon="2.46425">
        <ele>1378.6</ele>
        <time>2022-05-21 20:38:33</time>
      </trkpt>
      <trkpt lat="42.37104" lon="2.46427">
        <ele>1378.6</ele>
        <time>2022-05-21 20:38:34</time>
      </trkpt>
      <trkpt lat="42.37106" lon="2.46429">
        <ele>1378.8</ele>
        <time>2022-05-21 20:38:35</time>
      </trkpt>
      <trkpt lat="42.37108" lon="2.4643">
        <ele>1378.8</ele>
        <time>2022-05-21 20:38:36</time>
      </trkpt>
      <trkpt lat="42.3711" lon="2.46432">
        <ele>1378.8</ele>
        <time>2022-05-21 20:38:37</time>
      </trkpt>
      <trkpt lat="42.37112" lon="2.46434">
        <ele>1379</ele>
        <time>2022-05-21 20:38:38</time>
      </trkpt>
      <trkpt lat="42.37114" lon="2.46435">
        <ele>1379</ele>
        <time>2022-05-21 20:38:39</time>
      </trkpt>
      <trkpt lat="42.37116" lon="2.46437">
        <ele>1379.2</ele>
        <time>2022-05-21 20:38:40</time>
      </trkpt>
      <trkpt lat="42.37118" lon="2.46438">
        <ele>1379.2</ele>
        <time>2022-05-21 20:38:41</time>
      </trkpt>
      <trkpt lat="42.37119" lon="2.46439">
        <ele>1379.4</ele>
        <time>2022-05-21 20:38:42</time>
      </trkpt>
      <trkpt lat="42.3712" lon="2.4644">
        <ele>1379.4</ele>
        <time>2022-05-21 20:38:43</time>
      </trkpt>
      <trkpt lat="42.37121" lon="2.46441">
        <ele>1379.4</ele>
        <time>2022-05-21 20:38:44</time>
      </trkpt>
      <trkpt lat="42.37126" lon="2.46443">
        <ele>1379.6</ele>
        <time>2022-05-21 20:40:29</time>
      </trkpt>
      <trkpt lat="42.37128" lon="2.46444">
        <ele>1379.6</ele>
        <time>2022-05-21 20:40:30</time>
      </trkpt>
      <trkpt lat="42.3713" lon="2.46445">
        <ele>1379.8</ele>
        <time>2022-05-21 20:40:31</time>
      </trkpt>
      <trkpt lat="42.37132" lon="2.46447">
        <ele>1379.8</ele>
        <time>2022-05-21 20:40:32</time>
      </trkpt>
      <trkpt lat="42.37134" lon="2.46449">
        <ele>1379.8</ele>
        <time>2022-05-21 20:40:33</time>
      </trkpt>
      <trkpt lat="42.37136" lon="2.46451">
        <ele>1379.8</ele>
        <time>2022-05-21 20:40:34</time>
      </trkpt>
      <trkpt lat="42.37138" lon="2.46453">
        <ele>1379.8</ele>
        <time>2022-05-21 20:40:35</time>
      </trkpt>
      <trkpt lat="42.37141" lon="2.46455">
        <ele>1379.8</ele>
        <time>2022-05-21 20:40:36</time>
      </trkpt>
      <trkpt lat="42.37143" lon="2.46456">
        <ele>1380</ele>
        <time>2022-05-21 20:40:37</time>
      </trkpt>
      <trkpt lat="42.37145" lon="2.46457">
        <ele>1380</ele>
        <time>2022-05-21 20:40:38</time>
      </trkpt>
      <trkpt lat="42.37147" lon="2.46459">
        <ele>1380.2</ele>
        <time>2022-05-21 20:40:39</time>
      </trkpt>
      <trkpt lat="42.37149" lon="2.4646">
        <ele>1380.2</ele>
        <time>2022-05-21 20:40:40</time>
      </trkpt>
      <trkpt lat="42.37151" lon="2.46461">
        <ele>1380.4</ele>
        <time>2022-05-21 20:40:41</time>
      </trkpt>
      <trkpt lat="42.37153" lon="2.46462">
        <ele>1380.4</ele>
        <time>2022-05-21 20:40:42</time>
      </trkpt>
      <trkpt lat="42.37155" lon="2.46464">
        <ele>1380.4</ele>
        <time>2022-05-21 20:40:43</time>
      </trkpt>
      <trkpt lat="42.37156" lon="2.46465">
        <ele>1380.6</ele>
        <time>2022-05-21 20:40:44</time>
      </trkpt>
      <trkpt lat="42.37158" lon="2.46467">
        <ele>1380.6</ele>
        <time>2022-05-21 20:40:45</time>
      </trkpt>
      <trkpt lat="42.3716" lon="2.46468">
        <ele>1380.6</ele>
        <time>2022-05-21 20:40:46</time>
      </trkpt>
      <trkpt lat="42.37163" lon="2.46469">
        <ele>1380.8</ele>
        <time>2022-05-21 20:40:47</time>
      </trkpt>
      <trkpt lat="42.37164" lon="2.4647">
        <ele>1380.8</ele>
        <time>2022-05-21 20:40:48</time>
      </trkpt>
      <trkpt lat="42.37166" lon="2.46471">
        <ele>1381</ele>
        <time>2022-05-21 20:40:49</time>
      </trkpt>
      <trkpt lat="42.37168" lon="2.46473">
        <ele>1381.2</ele>
        <time>2022-05-21 20:40:50</time>
      </trkpt>
      <trkpt lat="42.3717" lon="2.46474">
        <ele>1381.2</ele>
        <time>2022-05-21 20:40:51</time>
      </trkpt>
      <trkpt lat="42.37172" lon="2.46475">
        <ele>1381.4</ele>
        <time>2022-05-21 20:40:52</time>
      </trkpt>
      <trkpt lat="42.37175" lon="2.46477">
        <ele>1381.6</ele>
        <time>2022-05-21 20:40:53</time>
      </trkpt>
      <trkpt lat="42.37177" lon="2.46478">
        <ele>1381.6</ele>
        <time>2022-05-21 20:40:54</time>
      </trkpt>
      <trkpt lat="42.37179" lon="2.4648">
        <ele>1381.8</ele>
        <time>2022-05-21 20:40:55</time>
      </trkpt>
      <trkpt lat="42.37181" lon="2.46481">
        <ele>1381.8</ele>
        <time>2022-05-21 20:40:56</time>
      </trkpt>
      <trkpt lat="42.37183" lon="2.46483">
        <ele>1382</ele>
        <time>2022-05-21 20:40:57</time>
      </trkpt>
      <trkpt lat="42.37185" lon="2.46484">
        <ele>1382</ele>
        <time>2022-05-21 20:40:58</time>
      </trkpt>
      <trkpt lat="42.37187" lon="2.46486">
        <ele>1382.2</ele>
        <time>2022-05-21 20:40:59</time>
      </trkpt>
      <trkpt lat="42.3719" lon="2.46487">
        <ele>1382.4</ele>
        <time>2022-05-21 20:41:00</time>
      </trkpt>
      <trkpt lat="42.37192" lon="2.46489">
        <ele>1382.4</ele>
        <time>2022-05-21 20:41:01</time>
      </trkpt>
      <trkpt lat="42.37195" lon="2.46491">
        <ele>1382.6</ele>
        <time>2022-05-21 20:41:02</time>
      </trkpt>
      <trkpt lat="42.37197" lon="2.46492">
        <ele>1382.8</ele>
        <time>2022-05-21 20:41:03</time>
      </trkpt>
      <trkpt lat="42.37199" lon="2.46494">
        <ele>1382.8</ele>
        <time>2022-05-21 20:41:04</time>
      </trkpt>
      <trkpt lat="42.37201" lon="2.46496">
        <ele>1383</ele>
        <time>2022-05-21 20:41:05</time>
      </trkpt>
      <trkpt lat="42.37204" lon="2.46497">
        <ele>1383.2</ele>
        <time>2022-05-21 20:41:06</time>
      </trkpt>
      <trkpt lat="42.37206" lon="2.46498">
        <ele>1383.4</ele>
        <time>2022-05-21 20:41:07</time>
      </trkpt>
      <trkpt lat="42.37208" lon="2.46499">
        <ele>1383.6</ele>
        <time>2022-05-21 20:41:08</time>
      </trkpt>
      <trkpt lat="42.3721" lon="2.465">
        <ele>1383.6</ele>
        <time>2022-05-21 20:41:09</time>
      </trkpt>
      <trkpt lat="42.37212" lon="2.46502">
        <ele>1383.8</ele>
        <time>2022-05-21 20:41:10</time>
      </trkpt>
      <trkpt lat="42.37215" lon="2.46503">
        <ele>1384</ele>
        <time>2022-05-21 20:41:11</time>
      </trkpt>
      <trkpt lat="42.37217" lon="2.46504">
        <ele>1384</ele>
        <time>2022-05-21 20:41:12</time>
      </trkpt>
      <trkpt lat="42.37219" lon="2.46504">
        <ele>1384.2</ele>
        <time>2022-05-21 20:41:13</time>
      </trkpt>
      <trkpt lat="42.37222" lon="2.46505">
        <ele>1384.4</ele>
        <time>2022-05-21 20:41:14</time>
      </trkpt>
      <trkpt lat="42.37224" lon="2.46506">
        <ele>1384.6</ele>
        <time>2022-05-21 20:41:15</time>
      </trkpt>
      <trkpt lat="42.37225" lon="2.46507">
        <ele>1384.6</ele>
        <time>2022-05-21 20:41:16</time>
      </trkpt>
      <trkpt lat="42.37227" lon="2.46508">
        <ele>1384.8</ele>
        <time>2022-05-21 20:41:17</time>
      </trkpt>
      <trkpt lat="42.37229" lon="2.46508">
        <ele>1385</ele>
        <time>2022-05-21 20:41:18</time>
      </trkpt>
      <trkpt lat="42.37231" lon="2.46509">
        <ele>1385</ele>
        <time>2022-05-21 20:41:19</time>
      </trkpt>
      <trkpt lat="42.37233" lon="2.4651">
        <ele>1385.2</ele>
        <time>2022-05-21 20:41:20</time>
      </trkpt>
      <trkpt lat="42.37235" lon="2.4651">
        <ele>1385.2</ele>
        <time>2022-05-21 20:41:21</time>
      </trkpt>
      <trkpt lat="42.37237" lon="2.46511">
        <ele>1385.4</ele>
        <time>2022-05-21 20:41:22</time>
      </trkpt>
      <trkpt lat="42.37239" lon="2.46511">
        <ele>1385.6</ele>
        <time>2022-05-21 20:41:23</time>
      </trkpt>
      <trkpt lat="42.37241" lon="2.46512">
        <ele>1385.8</ele>
        <time>2022-05-21 20:41:24</time>
      </trkpt>
      <trkpt lat="42.37243" lon="2.46512">
        <ele>1385.8</ele>
        <time>2022-05-21 20:41:25</time>
      </trkpt>
      <trkpt lat="42.37245" lon="2.46513">
        <ele>1386</ele>
        <time>2022-05-21 20:41:26</time>
      </trkpt>
      <trkpt lat="42.37246" lon="2.46513">
        <ele>1386.2</ele>
        <time>2022-05-21 20:41:27</time>
      </trkpt>
      <trkpt lat="42.37248" lon="2.46514">
        <ele>1386.4</ele>
        <time>2022-05-21 20:41:28</time>
      </trkpt>
      <trkpt lat="42.3725" lon="2.46514">
        <ele>1386.6</ele>
        <time>2022-05-21 20:41:29</time>
      </trkpt>
      <trkpt lat="42.37252" lon="2.46514">
        <ele>1386.8</ele>
        <time>2022-05-21 20:41:30</time>
      </trkpt>
      <trkpt lat="42.37254" lon="2.46515">
        <ele>1387</ele>
        <time>2022-05-21 20:41:31</time>
      </trkpt>
      <trkpt lat="42.37255" lon="2.46515">
        <ele>1387</ele>
        <time>2022-05-21 20:41:32</time>
      </trkpt>
      <trkpt lat="42.37257" lon="2.46515">
        <ele>1387.2</ele>
        <time>2022-05-21 20:41:33</time>
      </trkpt>
      <trkpt lat="42.37259" lon="2.46515">
        <ele>1387.2</ele>
        <time>2022-05-21 20:41:34</time>
      </trkpt>
      <trkpt lat="42.37261" lon="2.46515">
        <ele>1387.4</ele>
        <time>2022-05-21 20:41:35</time>
      </trkpt>
      <trkpt lat="42.37263" lon="2.46515">
        <ele>1387.6</ele>
        <time>2022-05-21 20:41:36</time>
      </trkpt>
      <trkpt lat="42.37266" lon="2.46515">
        <ele>1387.6</ele>
        <time>2022-05-21 20:41:37</time>
      </trkpt>
      <trkpt lat="42.37268" lon="2.46516">
        <ele>1387.8</ele>
        <time>2022-05-21 20:41:38</time>
      </trkpt>
      <trkpt lat="42.3727" lon="2.46516">
        <ele>1388</ele>
        <time>2022-05-21 20:41:39</time>
      </trkpt>
      <trkpt lat="42.37272" lon="2.46516">
        <ele>1388.2</ele>
        <time>2022-05-21 20:41:40</time>
      </trkpt>
      <trkpt lat="42.37274" lon="2.46516">
        <ele>1388.2</ele>
        <time>2022-05-21 20:41:41</time>
      </trkpt>
      <trkpt lat="42.37275" lon="2.46516">
        <ele>1388.4</ele>
        <time>2022-05-21 20:41:42</time>
      </trkpt>
      <trkpt lat="42.37277" lon="2.46516">
        <ele>1388.6</ele>
        <time>2022-05-21 20:41:43</time>
      </trkpt>
      <trkpt lat="42.37279" lon="2.46516">
        <ele>1388.8</ele>
        <time>2022-05-21 20:41:44</time>
      </trkpt>
      <trkpt lat="42.37281" lon="2.46516">
        <ele>1389</ele>
        <time>2022-05-21 20:41:45</time>
      </trkpt>
      <trkpt lat="42.37283" lon="2.46516">
        <ele>1389</ele>
        <time>2022-05-21 20:41:46</time>
      </trkpt>
      <trkpt lat="42.37285" lon="2.46516">
        <ele>1389.2</ele>
        <time>2022-05-21 20:41:47</time>
      </trkpt>
      <trkpt lat="42.37287" lon="2.46516">
        <ele>1389.4</ele>
        <time>2022-05-21 20:41:48</time>
      </trkpt>
      <trkpt lat="42.37288" lon="2.46516">
        <ele>1389.6</ele>
        <time>2022-05-21 20:41:49</time>
      </trkpt>
      <trkpt lat="42.3729" lon="2.46516">
        <ele>1389.6</ele>
        <time>2022-05-21 20:41:50</time>
      </trkpt>
      <trkpt lat="42.37292" lon="2.46515">
        <ele>1389.8</ele>
        <time>2022-05-21 20:41:51</time>
      </trkpt>
      <trkpt lat="42.37294" lon="2.46515">
        <ele>1390</ele>
        <time>2022-05-21 20:41:52</time>
      </trkpt>
      <trkpt lat="42.37296" lon="2.46515">
        <ele>1390.2</ele>
        <time>2022-05-21 20:41:53</time>
      </trkpt>
      <trkpt lat="42.37298" lon="2.46515">
        <ele>1390.2</ele>
        <time>2022-05-21 20:41:54</time>
      </trkpt>
      <trkpt lat="42.37299" lon="2.46514">
        <ele>1390.4</ele>
        <time>2022-05-21 20:41:55</time>
      </trkpt>
      <trkpt lat="42.37301" lon="2.46514">
        <ele>1390.6</ele>
        <time>2022-05-21 20:41:56</time>
      </trkpt>
      <trkpt lat="42.37303" lon="2.46514">
        <ele>1390.6</ele>
        <time>2022-05-21 20:41:57</time>
      </trkpt>
      <trkpt lat="42.37305" lon="2.46513">
        <ele>1390.8</ele>
        <time>2022-05-21 20:41:58</time>
      </trkpt>
      <trkpt lat="42.37307" lon="2.46512">
        <ele>1391</ele>
        <time>2022-05-21 20:41:59</time>
      </trkpt>
      <trkpt lat="42.37309" lon="2.46512">
        <ele>1391.2</ele>
        <time>2022-05-21 20:42:00</time>
      </trkpt>
      <trkpt lat="42.37311" lon="2.46511">
        <ele>1391.2</ele>
        <time>2022-05-21 20:42:01</time>
      </trkpt>
      <trkpt lat="42.37312" lon="2.46511">
        <ele>1391.4</ele>
        <time>2022-05-21 20:42:02</time>
      </trkpt>
      <trkpt lat="42.37314" lon="2.4651">
        <ele>1391.6</ele>
        <time>2022-05-21 20:42:03</time>
      </trkpt>
      <trkpt lat="42.37316" lon="2.4651">
        <ele>1391.6</ele>
        <time>2022-05-21 20:42:04</time>
      </trkpt>
      <trkpt lat="42.37318" lon="2.46509">
        <ele>1391.8</ele>
        <time>2022-05-21 20:42:05</time>
      </trkpt>
      <trkpt lat="42.37319" lon="2.46509">
        <ele>1392</ele>
        <time>2022-05-21 20:42:06</time>
      </trkpt>
      <trkpt lat="42.37321" lon="2.46508">
        <ele>1392.2</ele>
        <time>2022-05-21 20:42:07</time>
      </trkpt>
      <trkpt lat="42.37323" lon="2.46507">
        <ele>1392.2</ele>
        <time>2022-05-21 20:42:08</time>
      </trkpt>
      <trkpt lat="42.37324" lon="2.46506">
        <ele>1392.4</ele>
        <time>2022-05-21 20:42:09</time>
      </trkpt>
      <trkpt lat="42.37326" lon="2.46505">
        <ele>1392.6</ele>
        <time>2022-05-21 20:42:10</time>
      </trkpt>
      <trkpt lat="42.37328" lon="2.46505">
        <ele>1392.8</ele>
        <time>2022-05-21 20:42:11</time>
      </trkpt>
      <trkpt lat="42.37329" lon="2.46504">
        <ele>1393</ele>
        <time>2022-05-21 20:42:12</time>
      </trkpt>
      <trkpt lat="42.37331" lon="2.46503">
        <ele>1393.2</ele>
        <time>2022-05-21 20:42:13</time>
      </trkpt>
      <trkpt lat="42.37333" lon="2.46502">
        <ele>1393.2</ele>
        <time>2022-05-21 20:42:14</time>
      </trkpt>
      <trkpt lat="42.37334" lon="2.46502">
        <ele>1393.4</ele>
        <time>2022-05-21 20:42:15</time>
      </trkpt>
      <trkpt lat="42.37336" lon="2.46501">
        <ele>1393.6</ele>
        <time>2022-05-21 20:42:16</time>
      </trkpt>
      <trkpt lat="42.37337" lon="2.465">
        <ele>1393.6</ele>
        <time>2022-05-21 20:42:17</time>
      </trkpt>
      <trkpt lat="42.37339" lon="2.46499">
        <ele>1393.8</ele>
        <time>2022-05-21 20:42:18</time>
      </trkpt>
      <trkpt lat="42.37341" lon="2.46498">
        <ele>1394</ele>
        <time>2022-05-21 20:42:19</time>
      </trkpt>
      <trkpt lat="42.37342" lon="2.46497">
        <ele>1394.2</ele>
        <time>2022-05-21 20:42:20</time>
      </trkpt>
      <trkpt lat="42.37344" lon="2.46496">
        <ele>1394.4</ele>
        <time>2022-05-21 20:42:21</time>
      </trkpt>
      <trkpt lat="42.37345" lon="2.46495">
        <ele>1394.4</ele>
        <time>2022-05-21 20:42:22</time>
      </trkpt>
      <trkpt lat="42.37347" lon="2.46493">
        <ele>1394.6</ele>
        <time>2022-05-21 20:42:23</time>
      </trkpt>
      <trkpt lat="42.37348" lon="2.46492">
        <ele>1394.8</ele>
        <time>2022-05-21 20:42:24</time>
      </trkpt>
      <trkpt lat="42.3735" lon="2.46491">
        <ele>1395</ele>
        <time>2022-05-21 20:42:25</time>
      </trkpt>
      <trkpt lat="42.37351" lon="2.4649">
        <ele>1395</ele>
        <time>2022-05-21 20:42:26</time>
      </trkpt>
      <trkpt lat="42.37353" lon="2.4649">
        <ele>1395.2</ele>
        <time>2022-05-21 20:42:27</time>
      </trkpt>
      <trkpt lat="42.37355" lon="2.46488">
        <ele>1395.4</ele>
        <time>2022-05-21 20:42:28</time>
      </trkpt>
      <trkpt lat="42.37356" lon="2.46488">
        <ele>1395.6</ele>
        <time>2022-05-21 20:42:29</time>
      </trkpt>
      <trkpt lat="42.37357" lon="2.46487">
        <ele>1395.6</ele>
        <time>2022-05-21 20:42:30</time>
      </trkpt>
      <trkpt lat="42.37359" lon="2.46486">
        <ele>1395.8</ele>
        <time>2022-05-21 20:42:31</time>
      </trkpt>
      <trkpt lat="42.37361" lon="2.46485">
        <ele>1395.8</ele>
        <time>2022-05-21 20:42:32</time>
      </trkpt>
      <trkpt lat="42.37362" lon="2.46484">
        <ele>1396</ele>
        <time>2022-05-21 20:42:33</time>
      </trkpt>
      <trkpt lat="42.37364" lon="2.46483">
        <ele>1396.2</ele>
        <time>2022-05-21 20:42:34</time>
      </trkpt>
      <trkpt lat="42.37366" lon="2.46482">
        <ele>1396.2</ele>
        <time>2022-05-21 20:42:35</time>
      </trkpt>
      <trkpt lat="42.37367" lon="2.46481">
        <ele>1396.4</ele>
        <time>2022-05-21 20:42:36</time>
      </trkpt>
      <trkpt lat="42.37369" lon="2.4648">
        <ele>1396.6</ele>
        <time>2022-05-21 20:42:37</time>
      </trkpt>
      <trkpt lat="42.3737" lon="2.46479">
        <ele>1396.8</ele>
        <time>2022-05-21 20:42:38</time>
      </trkpt>
      <trkpt lat="42.37371" lon="2.46478">
        <ele>1396.8</ele>
        <time>2022-05-21 20:42:39</time>
      </trkpt>
      <trkpt lat="42.37373" lon="2.46477">
        <ele>1397</ele>
        <time>2022-05-21 20:42:40</time>
      </trkpt>
      <trkpt lat="42.37374" lon="2.46476">
        <ele>1397.2</ele>
        <time>2022-05-21 20:42:41</time>
      </trkpt>
      <trkpt lat="42.37376" lon="2.46475">
        <ele>1397.4</ele>
        <time>2022-05-21 20:42:42</time>
      </trkpt>
      <trkpt lat="42.37377" lon="2.46474">
        <ele>1397.4</ele>
        <time>2022-05-21 20:42:43</time>
      </trkpt>
      <trkpt lat="42.37379" lon="2.46473">
        <ele>1397.6</ele>
        <time>2022-05-21 20:42:44</time>
      </trkpt>
      <trkpt lat="42.3738" lon="2.46472">
        <ele>1397.6</ele>
        <time>2022-05-21 20:42:45</time>
      </trkpt>
      <trkpt lat="42.37382" lon="2.46471">
        <ele>1397.8</ele>
        <time>2022-05-21 20:42:46</time>
      </trkpt>
      <trkpt lat="42.37383" lon="2.4647">
        <ele>1398</ele>
        <time>2022-05-21 20:42:47</time>
      </trkpt>
      <trkpt lat="42.37384" lon="2.46469">
        <ele>1398</ele>
        <time>2022-05-21 20:42:48</time>
      </trkpt>
      <trkpt lat="42.37386" lon="2.46468">
        <ele>1398.2</ele>
        <time>2022-05-21 20:42:49</time>
      </trkpt>
      <trkpt lat="42.37388" lon="2.46467">
        <ele>1398.4</ele>
        <time>2022-05-21 20:42:50</time>
      </trkpt>
      <trkpt lat="42.37389" lon="2.46466">
        <ele>1398.6</ele>
        <time>2022-05-21 20:42:51</time>
      </trkpt>
      <trkpt lat="42.37391" lon="2.46465">
        <ele>1398.6</ele>
        <time>2022-05-21 20:42:52</time>
      </trkpt>
      <trkpt lat="42.37392" lon="2.46464">
        <ele>1398.8</ele>
        <time>2022-05-21 20:42:53</time>
      </trkpt>
      <trkpt lat="42.37394" lon="2.46463">
        <ele>1399</ele>
        <time>2022-05-21 20:42:54</time>
      </trkpt>
      <trkpt lat="42.37396" lon="2.46462">
        <ele>1399.2</ele>
        <time>2022-05-21 20:42:55</time>
      </trkpt>
      <trkpt lat="42.37398" lon="2.46461">
        <ele>1399.4</ele>
        <time>2022-05-21 20:42:56</time>
      </trkpt>
      <trkpt lat="42.37399" lon="2.4646">
        <ele>1399.6</ele>
        <time>2022-05-21 20:42:57</time>
      </trkpt>
      <trkpt lat="42.37401" lon="2.46459">
        <ele>1399.8</ele>
        <time>2022-05-21 20:42:58</time>
      </trkpt>
      <trkpt lat="42.37402" lon="2.46458">
        <ele>1399.8</ele>
        <time>2022-05-21 20:42:59</time>
      </trkpt>
      <trkpt lat="42.37404" lon="2.46457">
        <ele>1400</ele>
        <time>2022-05-21 20:43:00</time>
      </trkpt>
      <trkpt lat="42.37405" lon="2.46455">
        <ele>1400.2</ele>
        <time>2022-05-21 20:43:01</time>
      </trkpt>
      <trkpt lat="42.37407" lon="2.46454">
        <ele>1400.4</ele>
        <time>2022-05-21 20:43:02</time>
      </trkpt>
      <trkpt lat="42.37408" lon="2.46452">
        <ele>1400.4</ele>
        <time>2022-05-21 20:43:03</time>
      </trkpt>
      <trkpt lat="42.3741" lon="2.46451">
        <ele>1400.6</ele>
        <time>2022-05-21 20:43:04</time>
      </trkpt>
      <trkpt lat="42.37411" lon="2.46449">
        <ele>1400.8</ele>
        <time>2022-05-21 20:43:05</time>
      </trkpt>
      <trkpt lat="42.37412" lon="2.46448">
        <ele>1400.8</ele>
        <time>2022-05-21 20:43:06</time>
      </trkpt>
      <trkpt lat="42.37414" lon="2.46447">
        <ele>1401</ele>
        <time>2022-05-21 20:43:07</time>
      </trkpt>
      <trkpt lat="42.37415" lon="2.46446">
        <ele>1401.2</ele>
        <time>2022-05-21 20:43:08</time>
      </trkpt>
      <trkpt lat="42.37416" lon="2.46444">
        <ele>1401.2</ele>
        <time>2022-05-21 20:43:09</time>
      </trkpt>
      <trkpt lat="42.37417" lon="2.46442">
        <ele>1401.4</ele>
        <time>2022-05-21 20:43:10</time>
      </trkpt>
      <trkpt lat="42.37419" lon="2.46441">
        <ele>1401.4</ele>
        <time>2022-05-21 20:43:11</time>
      </trkpt>
      <trkpt lat="42.3742" lon="2.46439">
        <ele>1401.6</ele>
        <time>2022-05-21 20:43:12</time>
      </trkpt>
      <trkpt lat="42.37421" lon="2.46438">
        <ele>1401.8</ele>
        <time>2022-05-21 20:43:13</time>
      </trkpt>
      <trkpt lat="42.37422" lon="2.46436">
        <ele>1401.8</ele>
        <time>2022-05-21 20:43:14</time>
      </trkpt>
      <trkpt lat="42.37423" lon="2.46434">
        <ele>1402</ele>
        <time>2022-05-21 20:43:15</time>
      </trkpt>
      <trkpt lat="42.37424" lon="2.46432">
        <ele>1402.2</ele>
        <time>2022-05-21 20:43:16</time>
      </trkpt>
      <trkpt lat="42.37425" lon="2.46431">
        <ele>1402.2</ele>
        <time>2022-05-21 20:43:17</time>
      </trkpt>
      <trkpt lat="42.37426" lon="2.46429">
        <ele>1402.4</ele>
        <time>2022-05-21 20:43:18</time>
      </trkpt>
      <trkpt lat="42.37426" lon="2.46428">
        <ele>1402.4</ele>
        <time>2022-05-21 20:43:19</time>
      </trkpt>
      <trkpt lat="42.37427" lon="2.46426">
        <ele>1402.6</ele>
        <time>2022-05-21 20:43:20</time>
      </trkpt>
      <trkpt lat="42.37428" lon="2.46424">
        <ele>1402.8</ele>
        <time>2022-05-21 20:43:21</time>
      </trkpt>
      <trkpt lat="42.37429" lon="2.46422">
        <ele>1403</ele>
        <time>2022-05-21 20:43:22</time>
      </trkpt>
      <trkpt lat="42.37429" lon="2.4642">
        <ele>1403</ele>
        <time>2022-05-21 20:43:23</time>
      </trkpt>
      <trkpt lat="42.3743" lon="2.46418">
        <ele>1403.2</ele>
        <time>2022-05-21 20:43:24</time>
      </trkpt>
      <trkpt lat="42.3743" lon="2.46416">
        <ele>1403.2</ele>
        <time>2022-05-21 20:43:25</time>
      </trkpt>
      <trkpt lat="42.3743" lon="2.46414">
        <ele>1403.4</ele>
        <time>2022-05-21 20:43:26</time>
      </trkpt>
      <trkpt lat="42.3743" lon="2.46412">
        <ele>1403.4</ele>
        <time>2022-05-21 20:43:27</time>
      </trkpt>
      <trkpt lat="42.37431" lon="2.4641">
        <ele>1403.6</ele>
        <time>2022-05-21 20:43:28</time>
      </trkpt>
      <trkpt lat="42.37431" lon="2.46407">
        <ele>1403.8</ele>
        <time>2022-05-21 20:43:29</time>
      </trkpt>
      <trkpt lat="42.37431" lon="2.46405">
        <ele>1404</ele>
        <time>2022-05-21 20:43:30</time>
      </trkpt>
      <trkpt lat="42.37431" lon="2.46403">
        <ele>1404</ele>
        <time>2022-05-21 20:43:31</time>
      </trkpt>
      <trkpt lat="42.37431" lon="2.464">
        <ele>1404.2</ele>
        <time>2022-05-21 20:43:32</time>
      </trkpt>
      <trkpt lat="42.37432" lon="2.46397">
        <ele>1404.4</ele>
        <time>2022-05-21 20:43:33</time>
      </trkpt>
      <trkpt lat="42.37432" lon="2.46395">
        <ele>1404.6</ele>
        <time>2022-05-21 20:43:34</time>
      </trkpt>
      <trkpt lat="42.37432" lon="2.46392">
        <ele>1404.8</ele>
        <time>2022-05-21 20:43:35</time>
      </trkpt>
      <trkpt lat="42.37432" lon="2.46389">
        <ele>1404.8</ele>
        <time>2022-05-21 20:43:36</time>
      </trkpt>
      <trkpt lat="42.37432" lon="2.46386">
        <ele>1405</ele>
        <time>2022-05-21 20:43:37</time>
      </trkpt>
      <trkpt lat="42.37432" lon="2.46384">
        <ele>1405</ele>
        <time>2022-05-21 20:43:38</time>
      </trkpt>
      <trkpt lat="42.37431" lon="2.46381">
        <ele>1405.2</ele>
        <time>2022-05-21 20:43:39</time>
      </trkpt>
      <trkpt lat="42.37431" lon="2.46379">
        <ele>1405.4</ele>
        <time>2022-05-21 20:43:40</time>
      </trkpt>
      <trkpt lat="42.3743" lon="2.46376">
        <ele>1405.6</ele>
        <time>2022-05-21 20:43:41</time>
      </trkpt>
      <trkpt lat="42.37429" lon="2.46374">
        <ele>1405.8</ele>
        <time>2022-05-21 20:43:42</time>
      </trkpt>
      <trkpt lat="42.37428" lon="2.46373">
        <ele>1406</ele>
        <time>2022-05-21 20:43:43</time>
      </trkpt>
      <trkpt lat="42.37427" lon="2.46371">
        <ele>1406.2</ele>
        <time>2022-05-21 20:43:44</time>
      </trkpt>
      <trkpt lat="42.37426" lon="2.46369">
        <ele>1406.4</ele>
        <time>2022-05-21 20:43:45</time>
      </trkpt>
      <trkpt lat="42.37425" lon="2.46368">
        <ele>1406.6</ele>
        <time>2022-05-21 20:43:46</time>
      </trkpt>
      <trkpt lat="42.37424" lon="2.46366">
        <ele>1406.6</ele>
        <time>2022-05-21 20:43:47</time>
      </trkpt>
      <trkpt lat="42.37423" lon="2.46365">
        <ele>1406.8</ele>
        <time>2022-05-21 20:43:48</time>
      </trkpt>
      <trkpt lat="42.37422" lon="2.46363">
        <ele>1407</ele>
        <time>2022-05-21 20:43:49</time>
      </trkpt>
      <trkpt lat="42.37421" lon="2.46361">
        <ele>1407.2</ele>
        <time>2022-05-21 20:43:50</time>
      </trkpt>
      <trkpt lat="42.3742" lon="2.46359">
        <ele>1407.4</ele>
        <time>2022-05-21 20:43:51</time>
      </trkpt>
      <trkpt lat="42.37419" lon="2.46358">
        <ele>1407.4</ele>
        <time>2022-05-21 20:43:52</time>
      </trkpt>
      <trkpt lat="42.37418" lon="2.46356">
        <ele>1407.6</ele>
        <time>2022-05-21 20:43:53</time>
      </trkpt>
      <trkpt lat="42.37417" lon="2.46355">
        <ele>1407.8</ele>
        <time>2022-05-21 20:43:54</time>
      </trkpt>
      <trkpt lat="42.37415" lon="2.46353">
        <ele>1408</ele>
        <time>2022-05-21 20:43:55</time>
      </trkpt>
      <trkpt lat="42.37414" lon="2.46352">
        <ele>1408.2</ele>
        <time>2022-05-21 20:43:56</time>
      </trkpt>
      <trkpt lat="42.37413" lon="2.46351">
        <ele>1408.2</ele>
        <time>2022-05-21 20:43:57</time>
      </trkpt>
      <trkpt lat="42.37412" lon="2.46349">
        <ele>1408.4</ele>
        <time>2022-05-21 20:43:58</time>
      </trkpt>
      <trkpt lat="42.3741" lon="2.46348">
        <ele>1408.6</ele>
        <time>2022-05-21 20:43:59</time>
      </trkpt>
      <trkpt lat="42.37409" lon="2.46347">
        <ele>1408.8</ele>
        <time>2022-05-21 20:44:00</time>
      </trkpt>
      <trkpt lat="42.37408" lon="2.46346">
        <ele>1409</ele>
        <time>2022-05-21 20:44:01</time>
      </trkpt>
      <trkpt lat="42.37406" lon="2.46345">
        <ele>1409.2</ele>
        <time>2022-05-21 20:44:02</time>
      </trkpt>
      <trkpt lat="42.37405" lon="2.46344">
        <ele>1409.2</ele>
        <time>2022-05-21 20:44:03</time>
      </trkpt>
      <trkpt lat="42.37403" lon="2.46343">
        <ele>1409.4</ele>
        <time>2022-05-21 20:44:04</time>
      </trkpt>
      <trkpt lat="42.37402" lon="2.46342">
        <ele>1409.6</ele>
        <time>2022-05-21 20:44:05</time>
      </trkpt>
      <trkpt lat="42.374" lon="2.46342">
        <ele>1409.8</ele>
        <time>2022-05-21 20:44:06</time>
      </trkpt>
      <trkpt lat="42.37398" lon="2.46342">
        <ele>1410</ele>
        <time>2022-05-21 20:44:07</time>
      </trkpt>
      <trkpt lat="42.37397" lon="2.46341">
        <ele>1410</ele>
        <time>2022-05-21 20:44:08</time>
      </trkpt>
      <trkpt lat="42.37395" lon="2.46341">
        <ele>1410.2</ele>
        <time>2022-05-21 20:44:09</time>
      </trkpt>
      <trkpt lat="42.37394" lon="2.4634">
        <ele>1410.4</ele>
        <time>2022-05-21 20:44:10</time>
      </trkpt>
      <trkpt lat="42.37392" lon="2.4634">
        <ele>1410.6</ele>
        <time>2022-05-21 20:44:11</time>
      </trkpt>
      <trkpt lat="42.3739" lon="2.4634">
        <ele>1410.8</ele>
        <time>2022-05-21 20:44:12</time>
      </trkpt>
      <trkpt lat="42.37389" lon="2.46339">
        <ele>1411</ele>
        <time>2022-05-21 20:44:13</time>
      </trkpt>
      <trkpt lat="42.37387" lon="2.46339">
        <ele>1411</ele>
        <time>2022-05-21 20:44:14</time>
      </trkpt>
      <trkpt lat="42.37385" lon="2.46338">
        <ele>1411.2</ele>
        <time>2022-05-21 20:44:15</time>
      </trkpt>
      <trkpt lat="42.37384" lon="2.46338">
        <ele>1411.4</ele>
        <time>2022-05-21 20:44:16</time>
      </trkpt>
      <trkpt lat="42.37382" lon="2.46337">
        <ele>1411.6</ele>
        <time>2022-05-21 20:44:17</time>
      </trkpt>
      <trkpt lat="42.37381" lon="2.46337">
        <ele>1411.6</ele>
        <time>2022-05-21 20:44:18</time>
      </trkpt>
      <trkpt lat="42.37379" lon="2.46337">
        <ele>1411.8</ele>
        <time>2022-05-21 20:44:19</time>
      </trkpt>
      <trkpt lat="42.37377" lon="2.46337">
        <ele>1412</ele>
        <time>2022-05-21 20:44:20</time>
      </trkpt>
      <trkpt lat="42.37375" lon="2.46337">
        <ele>1412.2</ele>
        <time>2022-05-21 20:44:21</time>
      </trkpt>
      <trkpt lat="42.37374" lon="2.46337">
        <ele>1412.4</ele>
        <time>2022-05-21 20:44:22</time>
      </trkpt>
      <trkpt lat="42.37372" lon="2.46337">
        <ele>1412.4</ele>
        <time>2022-05-21 20:44:23</time>
      </trkpt>
      <trkpt lat="42.3737" lon="2.46336">
        <ele>1412.6</ele>
        <time>2022-05-21 20:44:24</time>
      </trkpt>
      <trkpt lat="42.37369" lon="2.46336">
        <ele>1412.8</ele>
        <time>2022-05-21 20:44:25</time>
      </trkpt>
      <trkpt lat="42.37367" lon="2.46336">
        <ele>1413</ele>
        <time>2022-05-21 20:44:26</time>
      </trkpt>
      <trkpt lat="42.37365" lon="2.46336">
        <ele>1413.2</ele>
        <time>2022-05-21 20:44:27</time>
      </trkpt>
      <trkpt lat="42.37363" lon="2.46336">
        <ele>1413.2</ele>
        <time>2022-05-21 20:44:28</time>
      </trkpt>
      <trkpt lat="42.37362" lon="2.46336">
        <ele>1413.4</ele>
        <time>2022-05-21 20:44:29</time>
      </trkpt>
      <trkpt lat="42.3736" lon="2.46336">
        <ele>1413.6</ele>
        <time>2022-05-21 20:44:30</time>
      </trkpt>
      <trkpt lat="42.37358" lon="2.46336">
        <ele>1413.8</ele>
        <time>2022-05-21 20:44:31</time>
      </trkpt>
      <trkpt lat="42.37357" lon="2.46337">
        <ele>1413.8</ele>
        <time>2022-05-21 20:44:32</time>
      </trkpt>
      <trkpt lat="42.37355" lon="2.46337">
        <ele>1414</ele>
        <time>2022-05-21 20:44:33</time>
      </trkpt>
      <trkpt lat="42.37353" lon="2.46336">
        <ele>1414.2</ele>
        <time>2022-05-21 20:44:34</time>
      </trkpt>
      <trkpt lat="42.37351" lon="2.46336">
        <ele>1414.4</ele>
        <time>2022-05-21 20:44:35</time>
      </trkpt>
      <trkpt lat="42.37349" lon="2.46336">
        <ele>1414.4</ele>
        <time>2022-05-21 20:44:36</time>
      </trkpt>
      <trkpt lat="42.37348" lon="2.46337">
        <ele>1414.6</ele>
        <time>2022-05-21 20:44:37</time>
      </trkpt>
      <trkpt lat="42.37346" lon="2.46337">
        <ele>1414.8</ele>
        <time>2022-05-21 20:44:38</time>
      </trkpt>
      <trkpt lat="42.37344" lon="2.46337">
        <ele>1415</ele>
        <time>2022-05-21 20:44:39</time>
      </trkpt>
      <trkpt lat="42.37342" lon="2.46337">
        <ele>1415</ele>
        <time>2022-05-21 20:44:40</time>
      </trkpt>
      <trkpt lat="42.3734" lon="2.46338">
        <ele>1415.2</ele>
        <time>2022-05-21 20:44:41</time>
      </trkpt>
      <trkpt lat="42.37339" lon="2.46338">
        <ele>1415.2</ele>
        <time>2022-05-21 20:44:42</time>
      </trkpt>
      <trkpt lat="42.37337" lon="2.46338">
        <ele>1415.6</ele>
        <time>2022-05-21 20:44:43</time>
      </trkpt>
      <trkpt lat="42.37335" lon="2.46338">
        <ele>1415.8</ele>
        <time>2022-05-21 20:44:44</time>
      </trkpt>
      <trkpt lat="42.37333" lon="2.46338">
        <ele>1415.8</ele>
        <time>2022-05-21 20:44:45</time>
      </trkpt>
      <trkpt lat="42.37331" lon="2.46338">
        <ele>1416</ele>
        <time>2022-05-21 20:44:46</time>
      </trkpt>
      <trkpt lat="42.3733" lon="2.46338">
        <ele>1416.2</ele>
        <time>2022-05-21 20:44:47</time>
      </trkpt>
      <trkpt lat="42.37328" lon="2.46338">
        <ele>1416.4</ele>
        <time>2022-05-21 20:44:48</time>
      </trkpt>
      <trkpt lat="42.37326" lon="2.46339">
        <ele>1416.6</ele>
        <time>2022-05-21 20:44:49</time>
      </trkpt>
      <trkpt lat="42.37324" lon="2.46339">
        <ele>1416.8</ele>
        <time>2022-05-21 20:44:50</time>
      </trkpt>
      <trkpt lat="42.37322" lon="2.46339">
        <ele>1417</ele>
        <time>2022-05-21 20:44:51</time>
      </trkpt>
      <trkpt lat="42.37321" lon="2.46339">
        <ele>1417</ele>
        <time>2022-05-21 20:44:52</time>
      </trkpt>
      <trkpt lat="42.37319" lon="2.46339">
        <ele>1417.2</ele>
        <time>2022-05-21 20:44:53</time>
      </trkpt>
      <trkpt lat="42.37317" lon="2.46338">
        <ele>1417.4</ele>
        <time>2022-05-21 20:44:54</time>
      </trkpt>
      <trkpt lat="42.37315" lon="2.46338">
        <ele>1417.6</ele>
        <time>2022-05-21 20:44:55</time>
      </trkpt>
      <trkpt lat="42.37313" lon="2.46338">
        <ele>1417.8</ele>
        <time>2022-05-21 20:44:56</time>
      </trkpt>
      <trkpt lat="42.37312" lon="2.46337">
        <ele>1417.8</ele>
        <time>2022-05-21 20:44:57</time>
      </trkpt>
      <trkpt lat="42.3731" lon="2.46337">
        <ele>1418</ele>
        <time>2022-05-21 20:44:58</time>
      </trkpt>
      <trkpt lat="42.37309" lon="2.46337">
        <ele>1418.2</ele>
        <time>2022-05-21 20:44:59</time>
      </trkpt>
      <trkpt lat="42.37307" lon="2.46337">
        <ele>1418.4</ele>
        <time>2022-05-21 20:45:00</time>
      </trkpt>
      <trkpt lat="42.37305" lon="2.46337">
        <ele>1418.6</ele>
        <time>2022-05-21 20:45:01</time>
      </trkpt>
      <trkpt lat="42.37304" lon="2.46337">
        <ele>1418.6</ele>
        <time>2022-05-21 20:45:02</time>
      </trkpt>
      <trkpt lat="42.37302" lon="2.46336">
        <ele>1418.8</ele>
        <time>2022-05-21 20:45:03</time>
      </trkpt>
      <trkpt lat="42.373" lon="2.46336">
        <ele>1419</ele>
        <time>2022-05-21 20:45:04</time>
      </trkpt>
      <trkpt lat="42.37299" lon="2.46335">
        <ele>1419.2</ele>
        <time>2022-05-21 20:45:05</time>
      </trkpt>
      <trkpt lat="42.37297" lon="2.46334">
        <ele>1419.2</ele>
        <time>2022-05-21 20:45:06</time>
      </trkpt>
      <trkpt lat="42.37295" lon="2.46334">
        <ele>1419.4</ele>
        <time>2022-05-21 20:45:07</time>
      </trkpt>
      <trkpt lat="42.37293" lon="2.46333">
        <ele>1419.4</ele>
        <time>2022-05-21 20:45:08</time>
      </trkpt>
      <trkpt lat="42.37291" lon="2.46332">
        <ele>1419.6</ele>
        <time>2022-05-21 20:45:09</time>
      </trkpt>
      <trkpt lat="42.37289" lon="2.46332">
        <ele>1419.8</ele>
        <time>2022-05-21 20:45:10</time>
      </trkpt>
      <trkpt lat="42.37287" lon="2.46331">
        <ele>1419.8</ele>
        <time>2022-05-21 20:45:11</time>
      </trkpt>
      <trkpt lat="42.37285" lon="2.4633">
        <ele>1420</ele>
        <time>2022-05-21 20:45:12</time>
      </trkpt>
      <trkpt lat="42.37283" lon="2.4633">
        <ele>1420.2</ele>
        <time>2022-05-21 20:45:13</time>
      </trkpt>
      <trkpt lat="42.37281" lon="2.46329">
        <ele>1420.4</ele>
        <time>2022-05-21 20:45:14</time>
      </trkpt>
      <trkpt lat="42.37279" lon="2.46328">
        <ele>1420.6</ele>
        <time>2022-05-21 20:45:15</time>
      </trkpt>
      <trkpt lat="42.37277" lon="2.46327">
        <ele>1420.8</ele>
        <time>2022-05-21 20:45:16</time>
      </trkpt>
      <trkpt lat="42.37275" lon="2.46327">
        <ele>1421</ele>
        <time>2022-05-21 20:45:17</time>
      </trkpt>
      <trkpt lat="42.37273" lon="2.46326">
        <ele>1421</ele>
        <time>2022-05-21 20:45:18</time>
      </trkpt>
      <trkpt lat="42.37272" lon="2.46325">
        <ele>1421.2</ele>
        <time>2022-05-21 20:45:19</time>
      </trkpt>
      <trkpt lat="42.3727" lon="2.46324">
        <ele>1421.2</ele>
        <time>2022-05-21 20:45:20</time>
      </trkpt>
      <trkpt lat="42.37268" lon="2.46323">
        <ele>1421.4</ele>
        <time>2022-05-21 20:45:21</time>
      </trkpt>
      <trkpt lat="42.37267" lon="2.46322">
        <ele>1421.6</ele>
        <time>2022-05-21 20:45:22</time>
      </trkpt>
      <trkpt lat="42.37265" lon="2.46321">
        <ele>1421.8</ele>
        <time>2022-05-21 20:45:23</time>
      </trkpt>
      <trkpt lat="42.37263" lon="2.46321">
        <ele>1422</ele>
        <time>2022-05-21 20:45:24</time>
      </trkpt>
      <trkpt lat="42.37262" lon="2.4632">
        <ele>1422.2</ele>
        <time>2022-05-21 20:45:25</time>
      </trkpt>
      <trkpt lat="42.3726" lon="2.4632">
        <ele>1422.2</ele>
        <time>2022-05-21 20:45:26</time>
      </trkpt>
      <trkpt lat="42.37258" lon="2.46319">
        <ele>1422.4</ele>
        <time>2022-05-21 20:45:27</time>
      </trkpt>
      <trkpt lat="42.37256" lon="2.46318">
        <ele>1422.6</ele>
        <time>2022-05-21 20:45:28</time>
      </trkpt>
      <trkpt lat="42.37255" lon="2.46317">
        <ele>1422.6</ele>
        <time>2022-05-21 20:45:29</time>
      </trkpt>
      <trkpt lat="42.37253" lon="2.46316">
        <ele>1422.8</ele>
        <time>2022-05-21 20:45:30</time>
      </trkpt>
      <trkpt lat="42.37251" lon="2.46316">
        <ele>1423</ele>
        <time>2022-05-21 20:45:31</time>
      </trkpt>
      <trkpt lat="42.37249" lon="2.46315">
        <ele>1423.2</ele>
        <time>2022-05-21 20:45:32</time>
      </trkpt>
      <trkpt lat="42.37247" lon="2.46314">
        <ele>1423.4</ele>
        <time>2022-05-21 20:45:33</time>
      </trkpt>
      <trkpt lat="42.37246" lon="2.46314">
        <ele>1423.4</ele>
        <time>2022-05-21 20:45:34</time>
      </trkpt>
      <trkpt lat="42.37244" lon="2.46313">
        <ele>1423.6</ele>
        <time>2022-05-21 20:45:35</time>
      </trkpt>
      <trkpt lat="42.37242" lon="2.46312">
        <ele>1423.8</ele>
        <time>2022-05-21 20:45:36</time>
      </trkpt>
      <trkpt lat="42.37241" lon="2.46311">
        <ele>1423.8</ele>
        <time>2022-05-21 20:45:37</time>
      </trkpt>
      <trkpt lat="42.37239" lon="2.4631">
        <ele>1424.2</ele>
        <time>2022-05-21 20:45:38</time>
      </trkpt>
      <trkpt lat="42.37237" lon="2.4631">
        <ele>1424.4</ele>
        <time>2022-05-21 20:45:39</time>
      </trkpt>
      <trkpt lat="42.37235" lon="2.46309">
        <ele>1424.4</ele>
        <time>2022-05-21 20:45:40</time>
      </trkpt>
      <trkpt lat="42.37234" lon="2.46308">
        <ele>1424.6</ele>
        <time>2022-05-21 20:45:41</time>
      </trkpt>
      <trkpt lat="42.37232" lon="2.46307">
        <ele>1424.6</ele>
        <time>2022-05-21 20:45:42</time>
      </trkpt>
      <trkpt lat="42.3723" lon="2.46306">
        <ele>1424.8</ele>
        <time>2022-05-21 20:45:43</time>
      </trkpt>
      <trkpt lat="42.37229" lon="2.46305">
        <ele>1425</ele>
        <time>2022-05-21 20:45:44</time>
      </trkpt>
      <trkpt lat="42.37227" lon="2.46304">
        <ele>1425.2</ele>
        <time>2022-05-21 20:45:45</time>
      </trkpt>
      <trkpt lat="42.37225" lon="2.46303">
        <ele>1425.2</ele>
        <time>2022-05-21 20:45:46</time>
      </trkpt>
      <trkpt lat="42.37224" lon="2.46302">
        <ele>1425.6</ele>
        <time>2022-05-21 20:45:47</time>
      </trkpt>
      <trkpt lat="42.37222" lon="2.46301">
        <ele>1425.8</ele>
        <time>2022-05-21 20:45:48</time>
      </trkpt>
      <trkpt lat="42.3722" lon="2.46301">
        <ele>1426</ele>
        <time>2022-05-21 20:45:49</time>
      </trkpt>
      <trkpt lat="42.37219" lon="2.463">
        <ele>1426</ele>
        <time>2022-05-21 20:45:50</time>
      </trkpt>
      <trkpt lat="42.37217" lon="2.463">
        <ele>1426.2</ele>
        <time>2022-05-21 20:45:51</time>
      </trkpt>
      <trkpt lat="42.37216" lon="2.46299">
        <ele>1426.4</ele>
        <time>2022-05-21 20:45:52</time>
      </trkpt>
      <trkpt lat="42.37214" lon="2.46299">
        <ele>1426.6</ele>
        <time>2022-05-21 20:45:53</time>
      </trkpt>
      <trkpt lat="42.37212" lon="2.46298">
        <ele>1426.6</ele>
        <time>2022-05-21 20:45:54</time>
      </trkpt>
      <trkpt lat="42.37211" lon="2.46298">
        <ele>1426.8</ele>
        <time>2022-05-21 20:45:55</time>
      </trkpt>
      <trkpt lat="42.3721" lon="2.46297">
        <ele>1427</ele>
        <time>2022-05-21 20:45:56</time>
      </trkpt>
      <trkpt lat="42.37208" lon="2.46295">
        <ele>1427</ele>
        <time>2022-05-21 20:45:57</time>
      </trkpt>
      <trkpt lat="42.37206" lon="2.46295">
        <ele>1427.2</ele>
        <time>2022-05-21 20:45:58</time>
      </trkpt>
      <trkpt lat="42.37204" lon="2.46294">
        <ele>1427.4</ele>
        <time>2022-05-21 20:45:59</time>
      </trkpt>
      <trkpt lat="42.37203" lon="2.46293">
        <ele>1427.4</ele>
        <time>2022-05-21 20:46:00</time>
      </trkpt>
      <trkpt lat="42.37201" lon="2.46292">
        <ele>1427.6</ele>
        <time>2022-05-21 20:46:01</time>
      </trkpt>
      <trkpt lat="42.37199" lon="2.46291">
        <ele>1427.6</ele>
        <time>2022-05-21 20:46:02</time>
      </trkpt>
      <trkpt lat="42.37198" lon="2.4629">
        <ele>1427.8</ele>
        <time>2022-05-21 20:46:03</time>
      </trkpt>
      <trkpt lat="42.37196" lon="2.46289">
        <ele>1428</ele>
        <time>2022-05-21 20:46:04</time>
      </trkpt>
      <trkpt lat="42.37194" lon="2.46289">
        <ele>1428</ele>
        <time>2022-05-21 20:46:05</time>
      </trkpt>
      <trkpt lat="42.37192" lon="2.46288">
        <ele>1428.2</ele>
        <time>2022-05-21 20:46:06</time>
      </trkpt>
      <trkpt lat="42.37191" lon="2.46288">
        <ele>1428.2</ele>
        <time>2022-05-21 20:46:07</time>
      </trkpt>
      <trkpt lat="42.37189" lon="2.46287">
        <ele>1428.2</ele>
        <time>2022-05-21 20:46:08</time>
      </trkpt>
      <trkpt lat="42.37187" lon="2.46286">
        <ele>1428.4</ele>
        <time>2022-05-21 20:46:09</time>
      </trkpt>
      <trkpt lat="42.37186" lon="2.46285">
        <ele>1428.4</ele>
        <time>2022-05-21 20:46:10</time>
      </trkpt>
      <trkpt lat="42.37184" lon="2.46284">
        <ele>1428.6</ele>
        <time>2022-05-21 20:46:11</time>
      </trkpt>
      <trkpt lat="42.37182" lon="2.46284">
        <ele>1428.8</ele>
        <time>2022-05-21 20:46:12</time>
      </trkpt>
      <trkpt lat="42.37181" lon="2.46283">
        <ele>1428.8</ele>
        <time>2022-05-21 20:46:13</time>
      </trkpt>
      <trkpt lat="42.37179" lon="2.46282">
        <ele>1429</ele>
        <time>2022-05-21 20:46:14</time>
      </trkpt>
      <trkpt lat="42.37177" lon="2.4628">
        <ele>1429</ele>
        <time>2022-05-21 20:46:15</time>
      </trkpt>
      <trkpt lat="42.37175" lon="2.46279">
        <ele>1429.2</ele>
        <time>2022-05-21 20:46:16</time>
      </trkpt>
      <trkpt lat="42.37174" lon="2.46278">
        <ele>1429.4</ele>
        <time>2022-05-21 20:46:17</time>
      </trkpt>
      <trkpt lat="42.37172" lon="2.46277">
        <ele>1429.4</ele>
        <time>2022-05-21 20:46:18</time>
      </trkpt>
      <trkpt lat="42.37171" lon="2.46276">
        <ele>1429.6</ele>
        <time>2022-05-21 20:46:19</time>
      </trkpt>
      <trkpt lat="42.37169" lon="2.46275">
        <ele>1429.6</ele>
        <time>2022-05-21 20:46:20</time>
      </trkpt>
      <trkpt lat="42.37167" lon="2.46273">
        <ele>1429.8</ele>
        <time>2022-05-21 20:46:21</time>
      </trkpt>
      <trkpt lat="42.37166" lon="2.46272">
        <ele>1429.8</ele>
        <time>2022-05-21 20:46:22</time>
      </trkpt>
      <trkpt lat="42.37165" lon="2.4627">
        <ele>1429.8</ele>
        <time>2022-05-21 20:46:23</time>
      </trkpt>
      <trkpt lat="42.37164" lon="2.46268">
        <ele>1429.8</ele>
        <time>2022-05-21 20:46:24</time>
      </trkpt>
      <trkpt lat="42.37163" lon="2.46266">
        <ele>1430</ele>
        <time>2022-05-21 20:46:25</time>
      </trkpt>
      <trkpt lat="42.37162" lon="2.46264">
        <ele>1430</ele>
        <time>2022-05-21 20:46:26</time>
      </trkpt>
      <trkpt lat="42.37161" lon="2.46262">
        <ele>1430.2</ele>
        <time>2022-05-21 20:46:27</time>
      </trkpt>
      <trkpt lat="42.3716" lon="2.46259">
        <ele>1430.2</ele>
        <time>2022-05-21 20:46:28</time>
      </trkpt>
      <trkpt lat="42.37159" lon="2.46257">
        <ele>1430.4</ele>
        <time>2022-05-21 20:46:29</time>
      </trkpt>
      <trkpt lat="42.37158" lon="2.46254">
        <ele>1430.4</ele>
        <time>2022-05-21 20:46:30</time>
      </trkpt>
      <trkpt lat="42.37158" lon="2.46251">
        <ele>1430.4</ele>
        <time>2022-05-21 20:46:31</time>
      </trkpt>
      <trkpt lat="42.37158" lon="2.46248">
        <ele>1430.6</ele>
        <time>2022-05-21 20:46:32</time>
      </trkpt>
      <trkpt lat="42.37158" lon="2.46246">
        <ele>1430.8</ele>
        <time>2022-05-21 20:46:33</time>
      </trkpt>
      <trkpt lat="42.37159" lon="2.46243">
        <ele>1430.8</ele>
        <time>2022-05-21 20:46:34</time>
      </trkpt>
      <trkpt lat="42.3716" lon="2.46241">
        <ele>1431</ele>
        <time>2022-05-21 20:46:35</time>
      </trkpt>
      <trkpt lat="42.3716" lon="2.46238">
        <ele>1431.2</ele>
        <time>2022-05-21 20:46:36</time>
      </trkpt>
      <trkpt lat="42.37162" lon="2.46237">
        <ele>1431.4</ele>
        <time>2022-05-21 20:46:37</time>
      </trkpt>
      <trkpt lat="42.37163" lon="2.46235">
        <ele>1431.6</ele>
        <time>2022-05-21 20:46:38</time>
      </trkpt>
      <trkpt lat="42.37165" lon="2.46233">
        <ele>1431.6</ele>
        <time>2022-05-21 20:46:39</time>
      </trkpt>
      <trkpt lat="42.37166" lon="2.46232">
        <ele>1431.8</ele>
        <time>2022-05-21 20:46:40</time>
      </trkpt>
      <trkpt lat="42.37168" lon="2.4623">
        <ele>1432</ele>
        <time>2022-05-21 20:46:41</time>
      </trkpt>
      <trkpt lat="42.37169" lon="2.46229">
        <ele>1432</ele>
        <time>2022-05-21 20:46:42</time>
      </trkpt>
      <trkpt lat="42.37171" lon="2.46229">
        <ele>1432.2</ele>
        <time>2022-05-21 20:46:43</time>
      </trkpt>
      <trkpt lat="42.37173" lon="2.46228">
        <ele>1432.4</ele>
        <time>2022-05-21 20:46:44</time>
      </trkpt>
      <trkpt lat="42.37175" lon="2.46228">
        <ele>1432.6</ele>
        <time>2022-05-21 20:46:45</time>
      </trkpt>
      <trkpt lat="42.37177" lon="2.46227">
        <ele>1432.8</ele>
        <time>2022-05-21 20:46:46</time>
      </trkpt>
      <trkpt lat="42.37179" lon="2.46227">
        <ele>1433</ele>
        <time>2022-05-21 20:46:47</time>
      </trkpt>
      <trkpt lat="42.37181" lon="2.46227">
        <ele>1433</ele>
        <time>2022-05-21 20:46:48</time>
      </trkpt>
      <trkpt lat="42.37183" lon="2.46227">
        <ele>1433.2</ele>
        <time>2022-05-21 20:46:49</time>
      </trkpt>
      <trkpt lat="42.37185" lon="2.46226">
        <ele>1433.2</ele>
        <time>2022-05-21 20:46:50</time>
      </trkpt>
      <trkpt lat="42.37187" lon="2.46227">
        <ele>1433.4</ele>
        <time>2022-05-21 20:46:51</time>
      </trkpt>
      <trkpt lat="42.37188" lon="2.46227">
        <ele>1433.6</ele>
        <time>2022-05-21 20:46:52</time>
      </trkpt>
      <trkpt lat="42.37191" lon="2.46227">
        <ele>1433.6</ele>
        <time>2022-05-21 20:46:53</time>
      </trkpt>
      <trkpt lat="42.37193" lon="2.46227">
        <ele>1433.8</ele>
        <time>2022-05-21 20:46:54</time>
      </trkpt>
      <trkpt lat="42.37195" lon="2.46228">
        <ele>1433.8</ele>
        <time>2022-05-21 20:46:55</time>
      </trkpt>
      <trkpt lat="42.37196" lon="2.46228">
        <ele>1434</ele>
        <time>2022-05-21 20:46:56</time>
      </trkpt>
      <trkpt lat="42.37199" lon="2.46228">
        <ele>1434.2</ele>
        <time>2022-05-21 20:46:57</time>
      </trkpt>
      <trkpt lat="42.37201" lon="2.46229">
        <ele>1434.2</ele>
        <time>2022-05-21 20:46:58</time>
      </trkpt>
      <trkpt lat="42.37203" lon="2.46229">
        <ele>1434.4</ele>
        <time>2022-05-21 20:46:59</time>
      </trkpt>
      <trkpt lat="42.37205" lon="2.46229">
        <ele>1434.4</ele>
        <time>2022-05-21 20:47:00</time>
      </trkpt>
      <trkpt lat="42.37207" lon="2.46229">
        <ele>1434.6</ele>
        <time>2022-05-21 20:47:01</time>
      </trkpt>
      <trkpt lat="42.37209" lon="2.46229">
        <ele>1434.8</ele>
        <time>2022-05-21 20:47:02</time>
      </trkpt>
      <trkpt lat="42.37211" lon="2.46229">
        <ele>1434.8</ele>
        <time>2022-05-21 20:47:03</time>
      </trkpt>
      <trkpt lat="42.37213" lon="2.46229">
        <ele>1435</ele>
        <time>2022-05-21 20:47:04</time>
      </trkpt>
      <trkpt lat="42.37214" lon="2.4623">
        <ele>1435</ele>
        <time>2022-05-21 20:47:05</time>
      </trkpt>
      <trkpt lat="42.37216" lon="2.4623">
        <ele>1435.2</ele>
        <time>2022-05-21 20:47:06</time>
      </trkpt>
      <trkpt lat="42.37218" lon="2.46231">
        <ele>1435.2</ele>
        <time>2022-05-21 20:47:07</time>
      </trkpt>
      <trkpt lat="42.3722" lon="2.46232">
        <ele>1435.4</ele>
        <time>2022-05-21 20:47:08</time>
      </trkpt>
      <trkpt lat="42.37222" lon="2.46232">
        <ele>1435.6</ele>
        <time>2022-05-21 20:47:09</time>
      </trkpt>
      <trkpt lat="42.37224" lon="2.46233">
        <ele>1435.6</ele>
        <time>2022-05-21 20:47:10</time>
      </trkpt>
      <trkpt lat="42.37226" lon="2.46234">
        <ele>1435.8</ele>
        <time>2022-05-21 20:47:11</time>
      </trkpt>
      <trkpt lat="42.37229" lon="2.46234">
        <ele>1436</ele>
        <time>2022-05-21 20:47:12</time>
      </trkpt>
      <trkpt lat="42.3723" lon="2.46235">
        <ele>1436.2</ele>
        <time>2022-05-21 20:47:13</time>
      </trkpt>
      <trkpt lat="42.37232" lon="2.46235">
        <ele>1436.4</ele>
        <time>2022-05-21 20:47:14</time>
      </trkpt>
      <trkpt lat="42.37234" lon="2.46236">
        <ele>1436.6</ele>
        <time>2022-05-21 20:47:15</time>
      </trkpt>
      <trkpt lat="42.37236" lon="2.46236">
        <ele>1436.6</ele>
        <time>2022-05-21 20:47:16</time>
      </trkpt>
      <trkpt lat="42.37237" lon="2.46236">
        <ele>1436.8</ele>
        <time>2022-05-21 20:47:17</time>
      </trkpt>
      <trkpt lat="42.37239" lon="2.46236">
        <ele>1437</ele>
        <time>2022-05-21 20:47:18</time>
      </trkpt>
      <trkpt lat="42.37241" lon="2.46236">
        <ele>1437.2</ele>
        <time>2022-05-21 20:47:19</time>
      </trkpt>
      <trkpt lat="42.37243" lon="2.46237">
        <ele>1437.4</ele>
        <time>2022-05-21 20:47:20</time>
      </trkpt>
      <trkpt lat="42.37245" lon="2.46237">
        <ele>1437.6</ele>
        <time>2022-05-21 20:47:21</time>
      </trkpt>
      <trkpt lat="42.37246" lon="2.46238">
        <ele>1437.8</ele>
        <time>2022-05-21 20:47:22</time>
      </trkpt>
      <trkpt lat="42.37248" lon="2.46238">
        <ele>1437.8</ele>
        <time>2022-05-21 20:47:23</time>
      </trkpt>
      <trkpt lat="42.3725" lon="2.46238">
        <ele>1438</ele>
        <time>2022-05-21 20:47:24</time>
      </trkpt>
      <trkpt lat="42.37251" lon="2.46238">
        <ele>1438.2</ele>
        <time>2022-05-21 20:47:25</time>
      </trkpt>
      <trkpt lat="42.37253" lon="2.46238">
        <ele>1438.4</ele>
        <time>2022-05-21 20:47:26</time>
      </trkpt>
      <trkpt lat="42.37255" lon="2.46239">
        <ele>1438.6</ele>
        <time>2022-05-21 20:47:27</time>
      </trkpt>
      <trkpt lat="42.37256" lon="2.46239">
        <ele>1438.8</ele>
        <time>2022-05-21 20:47:28</time>
      </trkpt>
      <trkpt lat="42.37258" lon="2.46239">
        <ele>1439</ele>
        <time>2022-05-21 20:47:29</time>
      </trkpt>
      <trkpt lat="42.3726" lon="2.46239">
        <ele>1439.2</ele>
        <time>2022-05-21 20:47:30</time>
      </trkpt>
      <trkpt lat="42.37262" lon="2.46239">
        <ele>1439.2</ele>
        <time>2022-05-21 20:47:31</time>
      </trkpt>
      <trkpt lat="42.37263" lon="2.46239">
        <ele>1439.4</ele>
        <time>2022-05-21 20:47:32</time>
      </trkpt>
      <trkpt lat="42.37265" lon="2.46239">
        <ele>1439.6</ele>
        <time>2022-05-21 20:47:33</time>
      </trkpt>
      <trkpt lat="42.37267" lon="2.46239">
        <ele>1439.8</ele>
        <time>2022-05-21 20:47:34</time>
      </trkpt>
      <trkpt lat="42.37268" lon="2.4624">
        <ele>1440</ele>
        <time>2022-05-21 20:47:35</time>
      </trkpt>
      <trkpt lat="42.3727" lon="2.4624">
        <ele>1440.2</ele>
        <time>2022-05-21 20:47:36</time>
      </trkpt>
      <trkpt lat="42.37272" lon="2.46239">
        <ele>1440.2</ele>
        <time>2022-05-21 20:47:37</time>
      </trkpt>
      <trkpt lat="42.37273" lon="2.46239">
        <ele>1440.4</ele>
        <time>2022-05-21 20:47:38</time>
      </trkpt>
      <trkpt lat="42.37275" lon="2.46239">
        <ele>1440.6</ele>
        <time>2022-05-21 20:47:39</time>
      </trkpt>
      <trkpt lat="42.37277" lon="2.46239">
        <ele>1440.6</ele>
        <time>2022-05-21 20:47:40</time>
      </trkpt>
      <trkpt lat="42.37279" lon="2.46239">
        <ele>1440.8</ele>
        <time>2022-05-21 20:47:41</time>
      </trkpt>
      <trkpt lat="42.3728" lon="2.4624">
        <ele>1440.8</ele>
        <time>2022-05-21 20:47:42</time>
      </trkpt>
      <trkpt lat="42.37282" lon="2.4624">
        <ele>1441</ele>
        <time>2022-05-21 20:47:43</time>
      </trkpt>
      <trkpt lat="42.37284" lon="2.46239">
        <ele>1441.2</ele>
        <time>2022-05-21 20:47:44</time>
      </trkpt>
      <trkpt lat="42.37286" lon="2.46239">
        <ele>1441.2</ele>
        <time>2022-05-21 20:47:45</time>
      </trkpt>
      <trkpt lat="42.37288" lon="2.46239">
        <ele>1441.4</ele>
        <time>2022-05-21 20:47:46</time>
      </trkpt>
      <trkpt lat="42.37289" lon="2.46239">
        <ele>1441.6</ele>
        <time>2022-05-21 20:47:47</time>
      </trkpt>
      <trkpt lat="42.37291" lon="2.46239">
        <ele>1441.8</ele>
        <time>2022-05-21 20:47:48</time>
      </trkpt>
      <trkpt lat="42.37293" lon="2.46239">
        <ele>1442</ele>
        <time>2022-05-21 20:47:49</time>
      </trkpt>
      <trkpt lat="42.37295" lon="2.46239">
        <ele>1442.2</ele>
        <time>2022-05-21 20:47:50</time>
      </trkpt>
      <trkpt lat="42.37297" lon="2.46239">
        <ele>1442.4</ele>
        <time>2022-05-21 20:47:51</time>
      </trkpt>
      <trkpt lat="42.37299" lon="2.46239">
        <ele>1442.6</ele>
        <time>2022-05-21 20:47:52</time>
      </trkpt>
      <trkpt lat="42.37301" lon="2.46239">
        <ele>1442.8</ele>
        <time>2022-05-21 20:47:53</time>
      </trkpt>
      <trkpt lat="42.37303" lon="2.46239">
        <ele>1443</ele>
        <time>2022-05-21 20:47:54</time>
      </trkpt>
      <trkpt lat="42.37304" lon="2.4624">
        <ele>1443.2</ele>
        <time>2022-05-21 20:47:55</time>
      </trkpt>
      <trkpt lat="42.37306" lon="2.4624">
        <ele>1443.2</ele>
        <time>2022-05-21 20:47:56</time>
      </trkpt>
      <trkpt lat="42.37308" lon="2.4624">
        <ele>1443.4</ele>
        <time>2022-05-21 20:47:57</time>
      </trkpt>
      <trkpt lat="42.3731" lon="2.4624">
        <ele>1443.6</ele>
        <time>2022-05-21 20:47:58</time>
      </trkpt>
      <trkpt lat="42.37311" lon="2.46239">
        <ele>1443.8</ele>
        <time>2022-05-21 20:47:59</time>
      </trkpt>
      <trkpt lat="42.37313" lon="2.46239">
        <ele>1444</ele>
        <time>2022-05-21 20:48:00</time>
      </trkpt>
      <trkpt lat="42.37315" lon="2.46239">
        <ele>1444.2</ele>
        <time>2022-05-21 20:48:01</time>
      </trkpt>
      <trkpt lat="42.37317" lon="2.46238">
        <ele>1444.4</ele>
        <time>2022-05-21 20:48:02</time>
      </trkpt>
      <trkpt lat="42.37319" lon="2.46238">
        <ele>1444.4</ele>
        <time>2022-05-21 20:48:03</time>
      </trkpt>
      <trkpt lat="42.3732" lon="2.46237">
        <ele>1444.6</ele>
        <time>2022-05-21 20:48:04</time>
      </trkpt>
      <trkpt lat="42.37322" lon="2.46237">
        <ele>1444.8</ele>
        <time>2022-05-21 20:48:05</time>
      </trkpt>
      <trkpt lat="42.37324" lon="2.46237">
        <ele>1445</ele>
        <time>2022-05-21 20:48:06</time>
      </trkpt>
      <trkpt lat="42.37326" lon="2.46236">
        <ele>1445</ele>
        <time>2022-05-21 20:48:07</time>
      </trkpt>
      <trkpt lat="42.37328" lon="2.46236">
        <ele>1445.2</ele>
        <time>2022-05-21 20:48:08</time>
      </trkpt>
      <trkpt lat="42.37329" lon="2.46236">
        <ele>1445.4</ele>
        <time>2022-05-21 20:48:09</time>
      </trkpt>
      <trkpt lat="42.37331" lon="2.46235">
        <ele>1445.6</ele>
        <time>2022-05-21 20:48:10</time>
      </trkpt>
      <trkpt lat="42.37333" lon="2.46235">
        <ele>1445.8</ele>
        <time>2022-05-21 20:48:11</time>
      </trkpt>
      <trkpt lat="42.37335" lon="2.46234">
        <ele>1446</ele>
        <time>2022-05-21 20:48:12</time>
      </trkpt>
      <trkpt lat="42.37336" lon="2.46234">
        <ele>1446</ele>
        <time>2022-05-21 20:48:13</time>
      </trkpt>
      <trkpt lat="42.37338" lon="2.46234">
        <ele>1446.2</ele>
        <time>2022-05-21 20:48:14</time>
      </trkpt>
      <trkpt lat="42.37341" lon="2.46233">
        <ele>1446.4</ele>
        <time>2022-05-21 20:48:15</time>
      </trkpt>
      <trkpt lat="42.37342" lon="2.46233">
        <ele>1446.6</ele>
        <time>2022-05-21 20:48:16</time>
      </trkpt>
      <trkpt lat="42.37344" lon="2.46232">
        <ele>1446.8</ele>
        <time>2022-05-21 20:48:17</time>
      </trkpt>
      <trkpt lat="42.37346" lon="2.46232">
        <ele>1447</ele>
        <time>2022-05-21 20:48:18</time>
      </trkpt>
      <trkpt lat="42.37348" lon="2.46232">
        <ele>1447</ele>
        <time>2022-05-21 20:48:19</time>
      </trkpt>
      <trkpt lat="42.3735" lon="2.46231">
        <ele>1447.2</ele>
        <time>2022-05-21 20:48:20</time>
      </trkpt>
      <trkpt lat="42.37352" lon="2.46231">
        <ele>1447.4</ele>
        <time>2022-05-21 20:48:21</time>
      </trkpt>
      <trkpt lat="42.37354" lon="2.4623">
        <ele>1447.6</ele>
        <time>2022-05-21 20:48:22</time>
      </trkpt>
      <trkpt lat="42.37356" lon="2.4623">
        <ele>1447.8</ele>
        <time>2022-05-21 20:48:23</time>
      </trkpt>
      <trkpt lat="42.37358" lon="2.46229">
        <ele>1448</ele>
        <time>2022-05-21 20:48:24</time>
      </trkpt>
      <trkpt lat="42.3736" lon="2.46229">
        <ele>1448.2</ele>
        <time>2022-05-21 20:48:25</time>
      </trkpt>
      <trkpt lat="42.37362" lon="2.46228">
        <ele>1448.4</ele>
        <time>2022-05-21 20:48:26</time>
      </trkpt>
      <trkpt lat="42.37364" lon="2.46228">
        <ele>1448.6</ele>
        <time>2022-05-21 20:48:27</time>
      </trkpt>
      <trkpt lat="42.37365" lon="2.46228">
        <ele>1448.8</ele>
        <time>2022-05-21 20:48:28</time>
      </trkpt>
      <trkpt lat="42.37367" lon="2.46227">
        <ele>1449</ele>
        <time>2022-05-21 20:48:29</time>
      </trkpt>
      <trkpt lat="42.37369" lon="2.46227">
        <ele>1449.2</ele>
        <time>2022-05-21 20:48:30</time>
      </trkpt>
      <trkpt lat="42.37371" lon="2.46226">
        <ele>1449.4</ele>
        <time>2022-05-21 20:48:31</time>
      </trkpt>
      <trkpt lat="42.37373" lon="2.46226">
        <ele>1449.6</ele>
        <time>2022-05-21 20:48:32</time>
      </trkpt>
      <trkpt lat="42.37375" lon="2.46225">
        <ele>1449.8</ele>
        <time>2022-05-21 20:48:33</time>
      </trkpt>
      <trkpt lat="42.37377" lon="2.46225">
        <ele>1450</ele>
        <time>2022-05-21 20:48:34</time>
      </trkpt>
      <trkpt lat="42.37379" lon="2.46225">
        <ele>1450.2</ele>
        <time>2022-05-21 20:48:35</time>
      </trkpt>
      <trkpt lat="42.37382" lon="2.46224">
        <ele>1450.4</ele>
        <time>2022-05-21 20:48:36</time>
      </trkpt>
      <trkpt lat="42.37384" lon="2.46224">
        <ele>1450.6</ele>
        <time>2022-05-21 20:48:37</time>
      </trkpt>
      <trkpt lat="42.37386" lon="2.46224">
        <ele>1450.8</ele>
        <time>2022-05-21 20:48:38</time>
      </trkpt>
      <trkpt lat="42.37388" lon="2.46223">
        <ele>1450.8</ele>
        <time>2022-05-21 20:48:39</time>
      </trkpt>
      <trkpt lat="42.3739" lon="2.46222">
        <ele>1451</ele>
        <time>2022-05-21 20:48:40</time>
      </trkpt>
      <trkpt lat="42.37392" lon="2.46222">
        <ele>1451.2</ele>
        <time>2022-05-21 20:48:41</time>
      </trkpt>
      <trkpt lat="42.37394" lon="2.46221">
        <ele>1451.4</ele>
        <time>2022-05-21 20:48:42</time>
      </trkpt>
      <trkpt lat="42.37396" lon="2.46221">
        <ele>1451.6</ele>
        <time>2022-05-21 20:48:43</time>
      </trkpt>
      <trkpt lat="42.37397" lon="2.4622">
        <ele>1451.8</ele>
        <time>2022-05-21 20:48:44</time>
      </trkpt>
      <trkpt lat="42.37399" lon="2.4622">
        <ele>1452</ele>
        <time>2022-05-21 20:48:45</time>
      </trkpt>
      <trkpt lat="42.37401" lon="2.46219">
        <ele>1452</ele>
        <time>2022-05-21 20:48:46</time>
      </trkpt>
      <trkpt lat="42.37403" lon="2.46218">
        <ele>1452.2</ele>
        <time>2022-05-21 20:48:47</time>
      </trkpt>
      <trkpt lat="42.37405" lon="2.46218">
        <ele>1452.4</ele>
        <time>2022-05-21 20:48:48</time>
      </trkpt>
      <trkpt lat="42.37407" lon="2.46217">
        <ele>1452.6</ele>
        <time>2022-05-21 20:48:49</time>
      </trkpt>
      <trkpt lat="42.37409" lon="2.46216">
        <ele>1452.6</ele>
        <time>2022-05-21 20:48:50</time>
      </trkpt>
      <trkpt lat="42.37411" lon="2.46215">
        <ele>1452.8</ele>
        <time>2022-05-21 20:48:51</time>
      </trkpt>
      <trkpt lat="42.37413" lon="2.46215">
        <ele>1453</ele>
        <time>2022-05-21 20:48:52</time>
      </trkpt>
      <trkpt lat="42.37415" lon="2.46214">
        <ele>1453.2</ele>
        <time>2022-05-21 20:48:53</time>
      </trkpt>
      <trkpt lat="42.37417" lon="2.46213">
        <ele>1453.4</ele>
        <time>2022-05-21 20:48:54</time>
      </trkpt>
      <trkpt lat="42.37419" lon="2.46213">
        <ele>1453.6</ele>
        <time>2022-05-21 20:48:55</time>
      </trkpt>
      <trkpt lat="42.37421" lon="2.46212">
        <ele>1453.6</ele>
        <time>2022-05-21 20:48:56</time>
      </trkpt>
      <trkpt lat="42.37423" lon="2.46211">
        <ele>1453.8</ele>
        <time>2022-05-21 20:48:57</time>
      </trkpt>
      <trkpt lat="42.37425" lon="2.46211">
        <ele>1454</ele>
        <time>2022-05-21 20:48:58</time>
      </trkpt>
      <trkpt lat="42.37427" lon="2.4621">
        <ele>1454.2</ele>
        <time>2022-05-21 20:48:59</time>
      </trkpt>
      <trkpt lat="42.37429" lon="2.46209">
        <ele>1454.4</ele>
        <time>2022-05-21 20:49:00</time>
      </trkpt>
      <trkpt lat="42.37431" lon="2.46209">
        <ele>1454.4</ele>
        <time>2022-05-21 20:49:01</time>
      </trkpt>
      <trkpt lat="42.37433" lon="2.46208">
        <ele>1454.6</ele>
        <time>2022-05-21 20:49:02</time>
      </trkpt>
      <trkpt lat="42.37435" lon="2.46207">
        <ele>1454.6</ele>
        <time>2022-05-21 20:49:03</time>
      </trkpt>
      <trkpt lat="42.37437" lon="2.46207">
        <ele>1454.8</ele>
        <time>2022-05-21 20:49:04</time>
      </trkpt>
      <trkpt lat="42.37439" lon="2.46206">
        <ele>1455</ele>
        <time>2022-05-21 20:49:05</time>
      </trkpt>
      <trkpt lat="42.37442" lon="2.46206">
        <ele>1455.2</ele>
        <time>2022-05-21 20:49:06</time>
      </trkpt>
      <trkpt lat="42.37444" lon="2.46205">
        <ele>1455.2</ele>
        <time>2022-05-21 20:49:07</time>
      </trkpt>
      <trkpt lat="42.37446" lon="2.46205">
        <ele>1455.4</ele>
        <time>2022-05-21 20:49:08</time>
      </trkpt>
      <trkpt lat="42.37448" lon="2.46204">
        <ele>1455.4</ele>
        <time>2022-05-21 20:49:09</time>
      </trkpt>
      <trkpt lat="42.37451" lon="2.46203">
        <ele>1455.6</ele>
        <time>2022-05-21 20:49:10</time>
      </trkpt>
      <trkpt lat="42.37453" lon="2.46202">
        <ele>1455.6</ele>
        <time>2022-05-21 20:49:11</time>
      </trkpt>
      <trkpt lat="42.37455" lon="2.46201">
        <ele>1455.6</ele>
        <time>2022-05-21 20:49:12</time>
      </trkpt>
      <trkpt lat="42.37458" lon="2.462">
        <ele>1455.8</ele>
        <time>2022-05-21 20:49:13</time>
      </trkpt>
      <trkpt lat="42.3746" lon="2.46198">
        <ele>1455.8</ele>
        <time>2022-05-21 20:49:14</time>
      </trkpt>
      <trkpt lat="42.37463" lon="2.46197">
        <ele>1456</ele>
        <time>2022-05-21 20:49:15</time>
      </trkpt>
      <trkpt lat="42.37465" lon="2.46195">
        <ele>1456</ele>
        <time>2022-05-21 20:49:16</time>
      </trkpt>
      <trkpt lat="42.37467" lon="2.46193">
        <ele>1456.2</ele>
        <time>2022-05-21 20:49:17</time>
      </trkpt>
      <trkpt lat="42.37469" lon="2.46191">
        <ele>1456.4</ele>
        <time>2022-05-21 20:49:18</time>
      </trkpt>
      <trkpt lat="42.37471" lon="2.46189">
        <ele>1456.4</ele>
        <time>2022-05-21 20:49:19</time>
      </trkpt>
      <trkpt lat="42.37473" lon="2.46186">
        <ele>1456.6</ele>
        <time>2022-05-21 20:49:20</time>
      </trkpt>
      <trkpt lat="42.37475" lon="2.46183">
        <ele>1456.6</ele>
        <time>2022-05-21 20:49:21</time>
      </trkpt>
      <trkpt lat="42.37476" lon="2.4618">
        <ele>1456.8</ele>
        <time>2022-05-21 20:49:22</time>
      </trkpt>
      <trkpt lat="42.37477" lon="2.46178">
        <ele>1456.8</ele>
        <time>2022-05-21 20:49:23</time>
      </trkpt>
      <trkpt lat="42.37478" lon="2.46174">
        <ele>1457</ele>
        <time>2022-05-21 20:49:24</time>
      </trkpt>
      <trkpt lat="42.37478" lon="2.46171">
        <ele>1457</ele>
        <time>2022-05-21 20:49:25</time>
      </trkpt>
      <trkpt lat="42.37478" lon="2.46167">
        <ele>1457</ele>
        <time>2022-05-21 20:49:26</time>
      </trkpt>
      <trkpt lat="42.37478" lon="2.46164">
        <ele>1457.2</ele>
        <time>2022-05-21 20:49:27</time>
      </trkpt>
      <trkpt lat="42.37477" lon="2.4616">
        <ele>1457.2</ele>
        <time>2022-05-21 20:49:28</time>
      </trkpt>
      <trkpt lat="42.37477" lon="2.46157">
        <ele>1457.4</ele>
        <time>2022-05-21 20:49:29</time>
      </trkpt>
      <trkpt lat="42.37476" lon="2.46154">
        <ele>1457.4</ele>
        <time>2022-05-21 20:49:30</time>
      </trkpt>
      <trkpt lat="42.37475" lon="2.4615">
        <ele>1457.6</ele>
        <time>2022-05-21 20:49:31</time>
      </trkpt>
      <trkpt lat="42.37473" lon="2.46148">
        <ele>1457.8</ele>
        <time>2022-05-21 20:49:32</time>
      </trkpt>
      <trkpt lat="42.37472" lon="2.46145">
        <ele>1457.8</ele>
        <time>2022-05-21 20:49:33</time>
      </trkpt>
      <trkpt lat="42.3747" lon="2.46143">
        <ele>1458</ele>
        <time>2022-05-21 20:49:34</time>
      </trkpt>
      <trkpt lat="42.37467" lon="2.46141">
        <ele>1458</ele>
        <time>2022-05-21 20:49:35</time>
      </trkpt>
      <trkpt lat="42.37465" lon="2.46139">
        <ele>1458.2</ele>
        <time>2022-05-21 20:49:36</time>
      </trkpt>
      <trkpt lat="42.37462" lon="2.46138">
        <ele>1458.4</ele>
        <time>2022-05-21 20:49:37</time>
      </trkpt>
      <trkpt lat="42.37459" lon="2.46138">
        <ele>1458.6</ele>
        <time>2022-05-21 20:49:38</time>
      </trkpt>
      <trkpt lat="42.37456" lon="2.46138">
        <ele>1458.6</ele>
        <time>2022-05-21 20:49:39</time>
      </trkpt>
      <trkpt lat="42.37453" lon="2.46138">
        <ele>1458.8</ele>
        <time>2022-05-21 20:49:40</time>
      </trkpt>
      <trkpt lat="42.3745" lon="2.46138">
        <ele>1459</ele>
        <time>2022-05-21 20:49:41</time>
      </trkpt>
      <trkpt lat="42.37447" lon="2.46138">
        <ele>1459</ele>
        <time>2022-05-21 20:49:42</time>
      </trkpt>
      <trkpt lat="42.37443" lon="2.46139">
        <ele>1459.2</ele>
        <time>2022-05-21 20:49:43</time>
      </trkpt>
      <trkpt lat="42.37441" lon="2.46139">
        <ele>1459.4</ele>
        <time>2022-05-21 20:49:44</time>
      </trkpt>
      <trkpt lat="42.37438" lon="2.4614">
        <ele>1459.4</ele>
        <time>2022-05-21 20:49:45</time>
      </trkpt>
      <trkpt lat="42.37436" lon="2.46142">
        <ele>1459.6</ele>
        <time>2022-05-21 20:49:46</time>
      </trkpt>
      <trkpt lat="42.37433" lon="2.46143">
        <ele>1459.8</ele>
        <time>2022-05-21 20:49:47</time>
      </trkpt>
      <trkpt lat="42.3743" lon="2.46144">
        <ele>1459.8</ele>
        <time>2022-05-21 20:49:48</time>
      </trkpt>
      <trkpt lat="42.37428" lon="2.46145">
        <ele>1460</ele>
        <time>2022-05-21 20:49:49</time>
      </trkpt>
      <trkpt lat="42.37425" lon="2.46146">
        <ele>1460.2</ele>
        <time>2022-05-21 20:49:50</time>
      </trkpt>
      <trkpt lat="42.37423" lon="2.46147">
        <ele>1460.4</ele>
        <time>2022-05-21 20:49:51</time>
      </trkpt>
      <trkpt lat="42.3742" lon="2.46148">
        <ele>1460.6</ele>
        <time>2022-05-21 20:49:52</time>
      </trkpt>
      <trkpt lat="42.37418" lon="2.46149">
        <ele>1460.6</ele>
        <time>2022-05-21 20:49:53</time>
      </trkpt>
      <trkpt lat="42.37415" lon="2.4615">
        <ele>1460.8</ele>
        <time>2022-05-21 20:49:54</time>
      </trkpt>
      <trkpt lat="42.37412" lon="2.46151">
        <ele>1461</ele>
        <time>2022-05-21 20:49:55</time>
      </trkpt>
      <trkpt lat="42.37409" lon="2.46152">
        <ele>1461.2</ele>
        <time>2022-05-21 20:49:56</time>
      </trkpt>
      <trkpt lat="42.37406" lon="2.46153">
        <ele>1461.2</ele>
        <time>2022-05-21 20:49:57</time>
      </trkpt>
      <trkpt lat="42.37404" lon="2.46154">
        <ele>1461.4</ele>
        <time>2022-05-21 20:49:58</time>
      </trkpt>
      <trkpt lat="42.37401" lon="2.46154">
        <ele>1461.6</ele>
        <time>2022-05-21 20:49:59</time>
      </trkpt>
      <trkpt lat="42.37398" lon="2.46155">
        <ele>1461.8</ele>
        <time>2022-05-21 20:50:00</time>
      </trkpt>
      <trkpt lat="42.37396" lon="2.46155">
        <ele>1462</ele>
        <time>2022-05-21 20:50:01</time>
      </trkpt>
      <trkpt lat="42.37393" lon="2.46155">
        <ele>1462.2</ele>
        <time>2022-05-21 20:50:02</time>
      </trkpt>
      <trkpt lat="42.3739" lon="2.46155">
        <ele>1462.4</ele>
        <time>2022-05-21 20:50:03</time>
      </trkpt>
      <trkpt lat="42.37388" lon="2.46156">
        <ele>1462.4</ele>
        <time>2022-05-21 20:50:04</time>
      </trkpt>
      <trkpt lat="42.37386" lon="2.46156">
        <ele>1462.6</ele>
        <time>2022-05-21 20:50:05</time>
      </trkpt>
      <trkpt lat="42.37383" lon="2.46156">
        <ele>1462.8</ele>
        <time>2022-05-21 20:50:06</time>
      </trkpt>
      <trkpt lat="42.37381" lon="2.46156">
        <ele>1463</ele>
        <time>2022-05-21 20:50:07</time>
      </trkpt>
      <trkpt lat="42.37378" lon="2.46156">
        <ele>1463.2</ele>
        <time>2022-05-21 20:50:08</time>
      </trkpt>
      <trkpt lat="42.37376" lon="2.46156">
        <ele>1463.4</ele>
        <time>2022-05-21 20:50:09</time>
      </trkpt>
      <trkpt lat="42.37373" lon="2.46156">
        <ele>1463.6</ele>
        <time>2022-05-21 20:50:10</time>
      </trkpt>
      <trkpt lat="42.37371" lon="2.46156">
        <ele>1463.8</ele>
        <time>2022-05-21 20:50:11</time>
      </trkpt>
      <trkpt lat="42.37368" lon="2.46156">
        <ele>1464</ele>
        <time>2022-05-21 20:50:12</time>
      </trkpt>
      <trkpt lat="42.37366" lon="2.46156">
        <ele>1464.2</ele>
        <time>2022-05-21 20:50:13</time>
      </trkpt>
      <trkpt lat="42.37364" lon="2.46156">
        <ele>1464.4</ele>
        <time>2022-05-21 20:50:14</time>
      </trkpt>
      <trkpt lat="42.37361" lon="2.46156">
        <ele>1464.6</ele>
        <time>2022-05-21 20:50:15</time>
      </trkpt>
      <trkpt lat="42.37359" lon="2.46156">
        <ele>1464.8</ele>
        <time>2022-05-21 20:50:16</time>
      </trkpt>
      <trkpt lat="42.37357" lon="2.46155">
        <ele>1465</ele>
        <time>2022-05-21 20:50:17</time>
      </trkpt>
      <trkpt lat="42.37354" lon="2.46155">
        <ele>1465.2</ele>
        <time>2022-05-21 20:50:18</time>
      </trkpt>
      <trkpt lat="42.37352" lon="2.46155">
        <ele>1465.4</ele>
        <time>2022-05-21 20:50:19</time>
      </trkpt>
      <trkpt lat="42.3735" lon="2.46155">
        <ele>1465.8</ele>
        <time>2022-05-21 20:50:20</time>
      </trkpt>
      <trkpt lat="42.37348" lon="2.46154">
        <ele>1466</ele>
        <time>2022-05-21 20:50:21</time>
      </trkpt>
      <trkpt lat="42.37346" lon="2.46154">
        <ele>1466.2</ele>
        <time>2022-05-21 20:50:22</time>
      </trkpt>
      <trkpt lat="42.37344" lon="2.46154">
        <ele>1466.4</ele>
        <time>2022-05-21 20:50:23</time>
      </trkpt>
      <trkpt lat="42.37343" lon="2.46154">
        <ele>1466.6</ele>
        <time>2022-05-21 20:50:24</time>
      </trkpt>
      <trkpt lat="42.37341" lon="2.46153">
        <ele>1466.8</ele>
        <time>2022-05-21 20:50:25</time>
      </trkpt>
      <trkpt lat="42.37339" lon="2.46153">
        <ele>1467</ele>
        <time>2022-05-21 20:50:26</time>
      </trkpt>
      <trkpt lat="42.37338" lon="2.46153">
        <ele>1467.2</ele>
        <time>2022-05-21 20:50:27</time>
      </trkpt>
      <trkpt lat="42.37336" lon="2.46153">
        <ele>1467.2</ele>
        <time>2022-05-21 20:50:28</time>
      </trkpt>
      <trkpt lat="42.37335" lon="2.46153">
        <ele>1467.4</ele>
        <time>2022-05-21 20:50:29</time>
      </trkpt>
      <trkpt lat="42.37333" lon="2.46152">
        <ele>1467.6</ele>
        <time>2022-05-21 20:50:30</time>
      </trkpt>
      <trkpt lat="42.37331" lon="2.46151">
        <ele>1467.8</ele>
        <time>2022-05-21 20:50:31</time>
      </trkpt>
      <trkpt lat="42.37329" lon="2.4615">
        <ele>1467.8</ele>
        <time>2022-05-21 20:50:32</time>
      </trkpt>
      <trkpt lat="42.37327" lon="2.4615">
        <ele>1468</ele>
        <time>2022-05-21 20:50:33</time>
      </trkpt>
      <trkpt lat="42.37326" lon="2.46149">
        <ele>1468.2</ele>
        <time>2022-05-21 20:50:34</time>
      </trkpt>
      <trkpt lat="42.37324" lon="2.46148">
        <ele>1468.4</ele>
        <time>2022-05-21 20:50:35</time>
      </trkpt>
      <trkpt lat="42.37323" lon="2.46148">
        <ele>1468.6</ele>
        <time>2022-05-21 20:50:36</time>
      </trkpt>
      <trkpt lat="42.37321" lon="2.46147">
        <ele>1468.8</ele>
        <time>2022-05-21 20:50:37</time>
      </trkpt>
      <trkpt lat="42.37319" lon="2.46146">
        <ele>1469</ele>
        <time>2022-05-21 20:50:38</time>
      </trkpt>
      <trkpt lat="42.37317" lon="2.46146">
        <ele>1469.2</ele>
        <time>2022-05-21 20:50:39</time>
      </trkpt>
      <trkpt lat="42.37316" lon="2.46145">
        <ele>1469.4</ele>
        <time>2022-05-21 20:50:40</time>
      </trkpt>
      <trkpt lat="42.37314" lon="2.46144">
        <ele>1469.6</ele>
        <time>2022-05-21 20:50:41</time>
      </trkpt>
      <trkpt lat="42.37312" lon="2.46144">
        <ele>1469.8</ele>
        <time>2022-05-21 20:50:42</time>
      </trkpt>
      <trkpt lat="42.3731" lon="2.46143">
        <ele>1469.8</ele>
        <time>2022-05-21 20:50:43</time>
      </trkpt>
      <trkpt lat="42.37308" lon="2.46141">
        <ele>1470</ele>
        <time>2022-05-21 20:50:44</time>
      </trkpt>
      <trkpt lat="42.37307" lon="2.4614">
        <ele>1470.2</ele>
        <time>2022-05-21 20:50:45</time>
      </trkpt>
      <trkpt lat="42.37305" lon="2.46139">
        <ele>1470.4</ele>
        <time>2022-05-21 20:50:46</time>
      </trkpt>
      <trkpt lat="42.37303" lon="2.46138">
        <ele>1470.4</ele>
        <time>2022-05-21 20:50:47</time>
      </trkpt>
      <trkpt lat="42.37301" lon="2.46137">
        <ele>1470.6</ele>
        <time>2022-05-21 20:50:48</time>
      </trkpt>
      <trkpt lat="42.373" lon="2.46136">
        <ele>1470.8</ele>
        <time>2022-05-21 20:50:49</time>
      </trkpt>
      <trkpt lat="42.37298" lon="2.46136">
        <ele>1471</ele>
        <time>2022-05-21 20:50:50</time>
      </trkpt>
      <trkpt lat="42.37297" lon="2.46135">
        <ele>1471.2</ele>
        <time>2022-05-21 20:50:51</time>
      </trkpt>
      <trkpt lat="42.37295" lon="2.46135">
        <ele>1471.2</ele>
        <time>2022-05-21 20:50:52</time>
      </trkpt>
      <trkpt lat="42.37293" lon="2.46134">
        <ele>1471.4</ele>
        <time>2022-05-21 20:50:53</time>
      </trkpt>
      <trkpt lat="42.37292" lon="2.46133">
        <ele>1471.6</ele>
        <time>2022-05-21 20:50:54</time>
      </trkpt>
      <trkpt lat="42.3729" lon="2.46132">
        <ele>1471.6</ele>
        <time>2022-05-21 20:50:55</time>
      </trkpt>
      <trkpt lat="42.37289" lon="2.46131">
        <ele>1471.8</ele>
        <time>2022-05-21 20:50:56</time>
      </trkpt>
      <trkpt lat="42.37287" lon="2.4613">
        <ele>1472</ele>
        <time>2022-05-21 20:50:57</time>
      </trkpt>
      <trkpt lat="42.37286" lon="2.46129">
        <ele>1472</ele>
        <time>2022-05-21 20:50:58</time>
      </trkpt>
      <trkpt lat="42.37284" lon="2.46128">
        <ele>1472.2</ele>
        <time>2022-05-21 20:50:59</time>
      </trkpt>
      <trkpt lat="42.37282" lon="2.46128">
        <ele>1472.4</ele>
        <time>2022-05-21 20:51:00</time>
      </trkpt>
      <trkpt lat="42.37281" lon="2.46127">
        <ele>1472.4</ele>
        <time>2022-05-21 20:51:01</time>
      </trkpt>
      <trkpt lat="42.3728" lon="2.46126">
        <ele>1472.6</ele>
        <time>2022-05-21 20:51:02</time>
      </trkpt>
      <trkpt lat="42.37277" lon="2.46125">
        <ele>1472.8</ele>
        <time>2022-05-21 20:51:03</time>
      </trkpt>
      <trkpt lat="42.37276" lon="2.46125">
        <ele>1473</ele>
        <time>2022-05-21 20:51:04</time>
      </trkpt>
      <trkpt lat="42.37274" lon="2.46124">
        <ele>1473.2</ele>
        <time>2022-05-21 20:51:05</time>
      </trkpt>
      <trkpt lat="42.37272" lon="2.46123">
        <ele>1473.2</ele>
        <time>2022-05-21 20:51:06</time>
      </trkpt>
      <trkpt lat="42.37271" lon="2.46122">
        <ele>1473.4</ele>
        <time>2022-05-21 20:51:07</time>
      </trkpt>
      <trkpt lat="42.37269" lon="2.46121">
        <ele>1473.4</ele>
        <time>2022-05-21 20:51:08</time>
      </trkpt>
      <trkpt lat="42.37268" lon="2.4612">
        <ele>1473.6</ele>
        <time>2022-05-21 20:51:09</time>
      </trkpt>
      <trkpt lat="42.37266" lon="2.46119">
        <ele>1473.6</ele>
        <time>2022-05-21 20:51:10</time>
      </trkpt>
      <trkpt lat="42.37264" lon="2.46118">
        <ele>1473.8</ele>
        <time>2022-05-21 20:51:11</time>
      </trkpt>
      <trkpt lat="42.37263" lon="2.46117">
        <ele>1474</ele>
        <time>2022-05-21 20:51:12</time>
      </trkpt>
      <trkpt lat="42.37262" lon="2.46116">
        <ele>1474</ele>
        <time>2022-05-21 20:51:13</time>
      </trkpt>
      <trkpt lat="42.3726" lon="2.46116">
        <ele>1474.2</ele>
        <time>2022-05-21 20:51:14</time>
      </trkpt>
      <trkpt lat="42.37258" lon="2.46115">
        <ele>1474.4</ele>
        <time>2022-05-21 20:51:15</time>
      </trkpt>
      <trkpt lat="42.37256" lon="2.46114">
        <ele>1474.6</ele>
        <time>2022-05-21 20:51:16</time>
      </trkpt>
      <trkpt lat="42.37254" lon="2.46113">
        <ele>1474.8</ele>
        <time>2022-05-21 20:51:17</time>
      </trkpt>
      <trkpt lat="42.37253" lon="2.46112">
        <ele>1474.8</ele>
        <time>2022-05-21 20:51:18</time>
      </trkpt>
      <trkpt lat="42.37251" lon="2.46111">
        <ele>1475</ele>
        <time>2022-05-21 20:51:19</time>
      </trkpt>
      <trkpt lat="42.37249" lon="2.4611">
        <ele>1475.2</ele>
        <time>2022-05-21 20:51:20</time>
      </trkpt>
      <trkpt lat="42.37248" lon="2.46109">
        <ele>1475.2</ele>
        <time>2022-05-21 20:51:21</time>
      </trkpt>
      <trkpt lat="42.37246" lon="2.46107">
        <ele>1475.4</ele>
        <time>2022-05-21 20:51:22</time>
      </trkpt>
      <trkpt lat="42.37244" lon="2.46106">
        <ele>1475.6</ele>
        <time>2022-05-21 20:51:23</time>
      </trkpt>
      <trkpt lat="42.37242" lon="2.46105">
        <ele>1475.8</ele>
        <time>2022-05-21 20:51:24</time>
      </trkpt>
      <trkpt lat="42.37241" lon="2.46104">
        <ele>1475.8</ele>
        <time>2022-05-21 20:51:25</time>
      </trkpt>
      <trkpt lat="42.37239" lon="2.46103">
        <ele>1476</ele>
        <time>2022-05-21 20:51:26</time>
      </trkpt>
      <trkpt lat="42.37237" lon="2.46103">
        <ele>1476.2</ele>
        <time>2022-05-21 20:51:27</time>
      </trkpt>
      <trkpt lat="42.37236" lon="2.46102">
        <ele>1476.4</ele>
        <time>2022-05-21 20:51:28</time>
      </trkpt>
      <trkpt lat="42.37235" lon="2.46102">
        <ele>1476.4</ele>
        <time>2022-05-21 20:51:29</time>
      </trkpt>
      <trkpt lat="42.37233" lon="2.461">
        <ele>1476.6</ele>
        <time>2022-05-21 20:51:30</time>
      </trkpt>
      <trkpt lat="42.37232" lon="2.461">
        <ele>1476.8</ele>
        <time>2022-05-21 20:51:31</time>
      </trkpt>
      <trkpt lat="42.3723" lon="2.46098">
        <ele>1477</ele>
        <time>2022-05-21 20:51:32</time>
      </trkpt>
      <trkpt lat="42.37228" lon="2.46097">
        <ele>1477</ele>
        <time>2022-05-21 20:51:33</time>
      </trkpt>
      <trkpt lat="42.37226" lon="2.46097">
        <ele>1477.2</ele>
        <time>2022-05-21 20:51:34</time>
      </trkpt>
      <trkpt lat="42.37225" lon="2.46096">
        <ele>1477.4</ele>
        <time>2022-05-21 20:51:35</time>
      </trkpt>
      <trkpt lat="42.37223" lon="2.46095">
        <ele>1477.6</ele>
        <time>2022-05-21 20:51:36</time>
      </trkpt>
      <trkpt lat="42.37222" lon="2.46094">
        <ele>1477.8</ele>
        <time>2022-05-21 20:51:37</time>
      </trkpt>
      <trkpt lat="42.3722" lon="2.46093">
        <ele>1478</ele>
        <time>2022-05-21 20:51:38</time>
      </trkpt>
      <trkpt lat="42.37218" lon="2.46092">
        <ele>1478.2</ele>
        <time>2022-05-21 20:51:39</time>
      </trkpt>
      <trkpt lat="42.37217" lon="2.46091">
        <ele>1478.2</ele>
        <time>2022-05-21 20:51:40</time>
      </trkpt>
      <trkpt lat="42.37215" lon="2.4609">
        <ele>1478.4</ele>
        <time>2022-05-21 20:51:41</time>
      </trkpt>
      <trkpt lat="42.37214" lon="2.46089">
        <ele>1478.6</ele>
        <time>2022-05-21 20:51:42</time>
      </trkpt>
      <trkpt lat="42.37212" lon="2.46088">
        <ele>1478.8</ele>
        <time>2022-05-21 20:51:43</time>
      </trkpt>
      <trkpt lat="42.3721" lon="2.46087">
        <ele>1478.8</ele>
        <time>2022-05-21 20:51:44</time>
      </trkpt>
      <trkpt lat="42.37209" lon="2.46086">
        <ele>1479</ele>
        <time>2022-05-21 20:51:45</time>
      </trkpt>
      <trkpt lat="42.37207" lon="2.46085">
        <ele>1479.2</ele>
        <time>2022-05-21 20:51:46</time>
      </trkpt>
      <trkpt lat="42.37206" lon="2.46084">
        <ele>1479.4</ele>
        <time>2022-05-21 20:51:47</time>
      </trkpt>
      <trkpt lat="42.37204" lon="2.46083">
        <ele>1479.6</ele>
        <time>2022-05-21 20:51:48</time>
      </trkpt>
      <trkpt lat="42.37203" lon="2.46082">
        <ele>1479.8</ele>
        <time>2022-05-21 20:51:49</time>
      </trkpt>
      <trkpt lat="42.37201" lon="2.46081">
        <ele>1480</ele>
        <time>2022-05-21 20:51:50</time>
      </trkpt>
      <trkpt lat="42.37199" lon="2.46079">
        <ele>1480.2</ele>
        <time>2022-05-21 20:51:51</time>
      </trkpt>
      <trkpt lat="42.37198" lon="2.46078">
        <ele>1480.2</ele>
        <time>2022-05-21 20:51:52</time>
      </trkpt>
      <trkpt lat="42.37197" lon="2.46077">
        <ele>1480.4</ele>
        <time>2022-05-21 20:51:53</time>
      </trkpt>
      <trkpt lat="42.37195" lon="2.46075">
        <ele>1480.6</ele>
        <time>2022-05-21 20:51:54</time>
      </trkpt>
      <trkpt lat="42.37193" lon="2.46074">
        <ele>1480.6</ele>
        <time>2022-05-21 20:51:55</time>
      </trkpt>
      <trkpt lat="42.37191" lon="2.46072">
        <ele>1480.8</ele>
        <time>2022-05-21 20:51:56</time>
      </trkpt>
      <trkpt lat="42.3719" lon="2.46071">
        <ele>1481</ele>
        <time>2022-05-21 20:51:57</time>
      </trkpt>
      <trkpt lat="42.37188" lon="2.4607">
        <ele>1481.2</ele>
        <time>2022-05-21 20:51:58</time>
      </trkpt>
      <trkpt lat="42.37187" lon="2.46069">
        <ele>1481.4</ele>
        <time>2022-05-21 20:51:59</time>
      </trkpt>
      <trkpt lat="42.37185" lon="2.46067">
        <ele>1481.4</ele>
        <time>2022-05-21 20:52:00</time>
      </trkpt>
      <trkpt lat="42.37183" lon="2.46066">
        <ele>1481.6</ele>
        <time>2022-05-21 20:52:01</time>
      </trkpt>
      <trkpt lat="42.37182" lon="2.46064">
        <ele>1481.8</ele>
        <time>2022-05-21 20:52:02</time>
      </trkpt>
      <trkpt lat="42.37181" lon="2.46062">
        <ele>1481.8</ele>
        <time>2022-05-21 20:52:03</time>
      </trkpt>
      <trkpt lat="42.37179" lon="2.46061">
        <ele>1482</ele>
        <time>2022-05-21 20:52:04</time>
      </trkpt>
      <trkpt lat="42.37178" lon="2.46059">
        <ele>1482.2</ele>
        <time>2022-05-21 20:52:05</time>
      </trkpt>
      <trkpt lat="42.37177" lon="2.46057">
        <ele>1482.2</ele>
        <time>2022-05-21 20:52:06</time>
      </trkpt>
      <trkpt lat="42.37176" lon="2.46055">
        <ele>1482.4</ele>
        <time>2022-05-21 20:52:07</time>
      </trkpt>
      <trkpt lat="42.37174" lon="2.46053">
        <ele>1482.6</ele>
        <time>2022-05-21 20:52:08</time>
      </trkpt>
      <trkpt lat="42.37173" lon="2.46051">
        <ele>1482.8</ele>
        <time>2022-05-21 20:52:09</time>
      </trkpt>
      <trkpt lat="42.37172" lon="2.4605">
        <ele>1482.8</ele>
        <time>2022-05-21 20:52:10</time>
      </trkpt>
      <trkpt lat="42.37171" lon="2.46048">
        <ele>1483</ele>
        <time>2022-05-21 20:52:11</time>
      </trkpt>
      <trkpt lat="42.3717" lon="2.46046">
        <ele>1483.2</ele>
        <time>2022-05-21 20:52:12</time>
      </trkpt>
      <trkpt lat="42.37169" lon="2.46045">
        <ele>1483.4</ele>
        <time>2022-05-21 20:52:13</time>
      </trkpt>
      <trkpt lat="42.37167" lon="2.46043">
        <ele>1483.4</ele>
        <time>2022-05-21 20:52:14</time>
      </trkpt>
      <trkpt lat="42.37166" lon="2.46042">
        <ele>1483.6</ele>
        <time>2022-05-21 20:52:15</time>
      </trkpt>
      <trkpt lat="42.37165" lon="2.4604">
        <ele>1483.8</ele>
        <time>2022-05-21 20:52:16</time>
      </trkpt>
      <trkpt lat="42.37163" lon="2.46038">
        <ele>1483.8</ele>
        <time>2022-05-21 20:52:17</time>
      </trkpt>
      <trkpt lat="42.37162" lon="2.46036">
        <ele>1484</ele>
        <time>2022-05-21 20:52:18</time>
      </trkpt>
      <trkpt lat="42.3716" lon="2.46035">
        <ele>1484.2</ele>
        <time>2022-05-21 20:52:19</time>
      </trkpt>
      <trkpt lat="42.37159" lon="2.46033">
        <ele>1484.4</ele>
        <time>2022-05-21 20:52:20</time>
      </trkpt>
      <trkpt lat="42.37157" lon="2.46031">
        <ele>1484.6</ele>
        <time>2022-05-21 20:52:21</time>
      </trkpt>
      <trkpt lat="42.37156" lon="2.46029">
        <ele>1484.6</ele>
        <time>2022-05-21 20:52:22</time>
      </trkpt>
      <trkpt lat="42.37154" lon="2.46027">
        <ele>1484.8</ele>
        <time>2022-05-21 20:52:23</time>
      </trkpt>
      <trkpt lat="42.37152" lon="2.46026">
        <ele>1485</ele>
        <time>2022-05-21 20:52:24</time>
      </trkpt>
      <trkpt lat="42.37151" lon="2.46024">
        <ele>1485.2</ele>
        <time>2022-05-21 20:52:25</time>
      </trkpt>
      <trkpt lat="42.3715" lon="2.46023">
        <ele>1485.2</ele>
        <time>2022-05-21 20:52:26</time>
      </trkpt>
      <trkpt lat="42.37149" lon="2.46021">
        <ele>1485.4</ele>
        <time>2022-05-21 20:52:27</time>
      </trkpt>
      <trkpt lat="42.37148" lon="2.46019">
        <ele>1485.6</ele>
        <time>2022-05-21 20:52:28</time>
      </trkpt>
      <trkpt lat="42.37147" lon="2.46017">
        <ele>1485.6</ele>
        <time>2022-05-21 20:52:29</time>
      </trkpt>
      <trkpt lat="42.37145" lon="2.46016">
        <ele>1485.8</ele>
        <time>2022-05-21 20:52:30</time>
      </trkpt>
      <trkpt lat="42.37145" lon="2.46014">
        <ele>1486</ele>
        <time>2022-05-21 20:52:31</time>
      </trkpt>
      <trkpt lat="42.37144" lon="2.46012">
        <ele>1486.2</ele>
        <time>2022-05-21 20:52:32</time>
      </trkpt>
      <trkpt lat="42.37142" lon="2.46009">
        <ele>1486.2</ele>
        <time>2022-05-21 20:52:33</time>
      </trkpt>
      <trkpt lat="42.37141" lon="2.46007">
        <ele>1486.4</ele>
        <time>2022-05-21 20:52:34</time>
      </trkpt>
      <trkpt lat="42.3714" lon="2.46005">
        <ele>1486.6</ele>
        <time>2022-05-21 20:52:35</time>
      </trkpt>
      <trkpt lat="42.37139" lon="2.46003">
        <ele>1486.8</ele>
        <time>2022-05-21 20:52:36</time>
      </trkpt>
      <trkpt lat="42.37138" lon="2.46001">
        <ele>1486.8</ele>
        <time>2022-05-21 20:52:37</time>
      </trkpt>
      <trkpt lat="42.37137" lon="2.45999">
        <ele>1487</ele>
        <time>2022-05-21 20:52:38</time>
      </trkpt>
      <trkpt lat="42.37135" lon="2.45997">
        <ele>1487.2</ele>
        <time>2022-05-21 20:52:39</time>
      </trkpt>
      <trkpt lat="42.37134" lon="2.45995">
        <ele>1487.4</ele>
        <time>2022-05-21 20:52:40</time>
      </trkpt>
      <trkpt lat="42.37132" lon="2.45993">
        <ele>1487.4</ele>
        <time>2022-05-21 20:52:41</time>
      </trkpt>
      <trkpt lat="42.37131" lon="2.45991">
        <ele>1487.6</ele>
        <time>2022-05-21 20:52:42</time>
      </trkpt>
      <trkpt lat="42.3713" lon="2.45989">
        <ele>1487.8</ele>
        <time>2022-05-21 20:52:43</time>
      </trkpt>
      <trkpt lat="42.37128" lon="2.45987">
        <ele>1487.8</ele>
        <time>2022-05-21 20:52:44</time>
      </trkpt>
      <trkpt lat="42.37127" lon="2.45985">
        <ele>1488</ele>
        <time>2022-05-21 20:52:45</time>
      </trkpt>
      <trkpt lat="42.37125" lon="2.45985">
        <ele>1488.2</ele>
        <time>2022-05-21 20:52:46</time>
      </trkpt>
      <trkpt lat="42.37124" lon="2.45984">
        <ele>1488.4</ele>
        <time>2022-05-21 20:52:47</time>
      </trkpt>
      <trkpt lat="42.37122" lon="2.45983">
        <ele>1488.6</ele>
        <time>2022-05-21 20:52:48</time>
      </trkpt>
      <trkpt lat="42.3712" lon="2.4598">
        <ele>1488.6</ele>
        <time>2022-05-21 20:52:49</time>
      </trkpt>
      <trkpt lat="42.3712" lon="2.45978">
        <ele>1488.8</ele>
        <time>2022-05-21 20:52:50</time>
      </trkpt>
      <trkpt lat="42.37119" lon="2.45975">
        <ele>1489</ele>
        <time>2022-05-21 20:52:51</time>
      </trkpt>
      <trkpt lat="42.37118" lon="2.45972">
        <ele>1489</ele>
        <time>2022-05-21 20:52:52</time>
      </trkpt>
      <trkpt lat="42.37116" lon="2.4597">
        <ele>1489.2</ele>
        <time>2022-05-21 20:52:53</time>
      </trkpt>
      <trkpt lat="42.37115" lon="2.45968">
        <ele>1489.4</ele>
        <time>2022-05-21 20:52:54</time>
      </trkpt>
      <trkpt lat="42.37114" lon="2.45966">
        <ele>1489.4</ele>
        <time>2022-05-21 20:52:55</time>
      </trkpt>
      <trkpt lat="42.37113" lon="2.45963">
        <ele>1489.6</ele>
        <time>2022-05-21 20:52:56</time>
      </trkpt>
      <trkpt lat="42.37111" lon="2.45961">
        <ele>1489.8</ele>
        <time>2022-05-21 20:52:57</time>
      </trkpt>
      <trkpt lat="42.3711" lon="2.45959">
        <ele>1489.8</ele>
        <time>2022-05-21 20:52:58</time>
      </trkpt>
      <trkpt lat="42.37109" lon="2.45957">
        <ele>1490</ele>
        <time>2022-05-21 20:52:59</time>
      </trkpt>
      <trkpt lat="42.37108" lon="2.45955">
        <ele>1490.2</ele>
        <time>2022-05-21 20:53:00</time>
      </trkpt>
      <trkpt lat="42.37106" lon="2.45953">
        <ele>1490.4</ele>
        <time>2022-05-21 20:53:01</time>
      </trkpt>
      <trkpt lat="42.37105" lon="2.45951">
        <ele>1490.4</ele>
        <time>2022-05-21 20:53:02</time>
      </trkpt>
      <trkpt lat="42.37103" lon="2.45948">
        <ele>1490.6</ele>
        <time>2022-05-21 20:53:03</time>
      </trkpt>
      <trkpt lat="42.37101" lon="2.45946">
        <ele>1490.8</ele>
        <time>2022-05-21 20:53:04</time>
      </trkpt>
      <trkpt lat="42.371" lon="2.45944">
        <ele>1491</ele>
        <time>2022-05-21 20:53:05</time>
      </trkpt>
      <trkpt lat="42.37098" lon="2.45941">
        <ele>1491</ele>
        <time>2022-05-21 20:53:06</time>
      </trkpt>
      <trkpt lat="42.37097" lon="2.45938">
        <ele>1491.2</ele>
        <time>2022-05-21 20:53:07</time>
      </trkpt>
      <trkpt lat="42.37095" lon="2.45935">
        <ele>1491.4</ele>
        <time>2022-05-21 20:53:08</time>
      </trkpt>
      <trkpt lat="42.37093" lon="2.45932">
        <ele>1491.6</ele>
        <time>2022-05-21 20:53:09</time>
      </trkpt>
      <trkpt lat="42.37092" lon="2.45929">
        <ele>1491.8</ele>
        <time>2022-05-21 20:53:10</time>
      </trkpt>
      <trkpt lat="42.3709" lon="2.45926">
        <ele>1492</ele>
        <time>2022-05-21 20:53:11</time>
      </trkpt>
      <trkpt lat="42.37087" lon="2.45923">
        <ele>1492</ele>
        <time>2022-05-21 20:53:12</time>
      </trkpt>
      <trkpt lat="42.37085" lon="2.4592">
        <ele>1492.2</ele>
        <time>2022-05-21 20:53:13</time>
      </trkpt>
      <trkpt lat="42.37083" lon="2.45918">
        <ele>1492.4</ele>
        <time>2022-05-21 20:53:14</time>
      </trkpt>
      <trkpt lat="42.37081" lon="2.45915">
        <ele>1492.6</ele>
        <time>2022-05-21 20:53:15</time>
      </trkpt>
      <trkpt lat="42.37079" lon="2.45912">
        <ele>1492.8</ele>
        <time>2022-05-21 20:53:16</time>
      </trkpt>
      <trkpt lat="42.37077" lon="2.45909">
        <ele>1493</ele>
        <time>2022-05-21 20:53:17</time>
      </trkpt>
      <trkpt lat="42.37075" lon="2.45906">
        <ele>1493.2</ele>
        <time>2022-05-21 20:53:18</time>
      </trkpt>
      <trkpt lat="42.37074" lon="2.45903">
        <ele>1493.2</ele>
        <time>2022-05-21 20:53:19</time>
      </trkpt>
      <trkpt lat="42.37072" lon="2.459">
        <ele>1493.4</ele>
        <time>2022-05-21 20:53:20</time>
      </trkpt>
      <trkpt lat="42.37071" lon="2.45897">
        <ele>1493.6</ele>
        <time>2022-05-21 20:53:21</time>
      </trkpt>
      <trkpt lat="42.37069" lon="2.45893">
        <ele>1493.8</ele>
        <time>2022-05-21 20:53:22</time>
      </trkpt>
      <trkpt lat="42.37068" lon="2.4589">
        <ele>1494</ele>
        <time>2022-05-21 20:53:23</time>
      </trkpt>
      <trkpt lat="42.37066" lon="2.45887">
        <ele>1494.2</ele>
        <time>2022-05-21 20:53:24</time>
      </trkpt>
      <trkpt lat="42.37065" lon="2.45885">
        <ele>1494.4</ele>
        <time>2022-05-21 20:53:25</time>
      </trkpt>
      <trkpt lat="42.37063" lon="2.45882">
        <ele>1494.6</ele>
        <time>2022-05-21 20:53:26</time>
      </trkpt>
      <trkpt lat="42.37062" lon="2.45879">
        <ele>1494.8</ele>
        <time>2022-05-21 20:53:27</time>
      </trkpt>
      <trkpt lat="42.37061" lon="2.45876">
        <ele>1495</ele>
        <time>2022-05-21 20:53:28</time>
      </trkpt>
      <trkpt lat="42.37059" lon="2.45873">
        <ele>1495.2</ele>
        <time>2022-05-21 20:53:29</time>
      </trkpt>
      <trkpt lat="42.37058" lon="2.45869">
        <ele>1495.4</ele>
        <time>2022-05-21 20:53:30</time>
      </trkpt>
      <trkpt lat="42.37057" lon="2.45866">
        <ele>1495.6</ele>
        <time>2022-05-21 20:53:31</time>
      </trkpt>
      <trkpt lat="42.37055" lon="2.45863">
        <ele>1495.6</ele>
        <time>2022-05-21 20:53:32</time>
      </trkpt>
      <trkpt lat="42.37054" lon="2.4586">
        <ele>1495.8</ele>
        <time>2022-05-21 20:53:33</time>
      </trkpt>
      <trkpt lat="42.37053" lon="2.45857">
        <ele>1496</ele>
        <time>2022-05-21 20:53:34</time>
      </trkpt>
      <trkpt lat="42.37051" lon="2.45854">
        <ele>1496.2</ele>
        <time>2022-05-21 20:53:35</time>
      </trkpt>
      <trkpt lat="42.3705" lon="2.4585">
        <ele>1496.4</ele>
        <time>2022-05-21 20:53:36</time>
      </trkpt>
      <trkpt lat="42.37049" lon="2.45848">
        <ele>1496.4</ele>
        <time>2022-05-21 20:53:37</time>
      </trkpt>
      <trkpt lat="42.37048" lon="2.45845">
        <ele>1496.6</ele>
        <time>2022-05-21 20:53:38</time>
      </trkpt>
      <trkpt lat="42.37047" lon="2.45841">
        <ele>1496.6</ele>
        <time>2022-05-21 20:53:39</time>
      </trkpt>
      <trkpt lat="42.37045" lon="2.45838">
        <ele>1496.8</ele>
        <time>2022-05-21 20:53:40</time>
      </trkpt>
      <trkpt lat="42.37044" lon="2.45835">
        <ele>1497</ele>
        <time>2022-05-21 20:53:41</time>
      </trkpt>
      <trkpt lat="42.37043" lon="2.45832">
        <ele>1497.2</ele>
        <time>2022-05-21 20:53:42</time>
      </trkpt>
      <trkpt lat="42.37042" lon="2.45829">
        <ele>1497.4</ele>
        <time>2022-05-21 20:53:43</time>
      </trkpt>
      <trkpt lat="42.37041" lon="2.45825">
        <ele>1497.6</ele>
        <time>2022-05-21 20:53:44</time>
      </trkpt>
      <trkpt lat="42.3704" lon="2.45822">
        <ele>1497.8</ele>
        <time>2022-05-21 20:53:45</time>
      </trkpt>
      <trkpt lat="42.37039" lon="2.45819">
        <ele>1497.8</ele>
        <time>2022-05-21 20:53:46</time>
      </trkpt>
      <trkpt lat="42.37038" lon="2.45816">
        <ele>1498.2</ele>
        <time>2022-05-21 20:53:47</time>
      </trkpt>
      <trkpt lat="42.37037" lon="2.45813">
        <ele>1498.4</ele>
        <time>2022-05-21 20:53:48</time>
      </trkpt>
      <trkpt lat="42.37035" lon="2.45809">
        <ele>1498.6</ele>
        <time>2022-05-21 20:53:49</time>
      </trkpt>
      <trkpt lat="42.37034" lon="2.45806">
        <ele>1498.8</ele>
        <time>2022-05-21 20:53:50</time>
      </trkpt>
      <trkpt lat="42.37033" lon="2.45803">
        <ele>1499</ele>
        <time>2022-05-21 20:53:51</time>
      </trkpt>
      <trkpt lat="42.37031" lon="2.458">
        <ele>1499.2</ele>
        <time>2022-05-21 20:53:52</time>
      </trkpt>
      <trkpt lat="42.3703" lon="2.45797">
        <ele>1499.4</ele>
        <time>2022-05-21 20:53:53</time>
      </trkpt>
      <trkpt lat="42.37028" lon="2.45794">
        <ele>1499.6</ele>
        <time>2022-05-21 20:53:54</time>
      </trkpt>
      <trkpt lat="42.37026" lon="2.45791">
        <ele>1499.8</ele>
        <time>2022-05-21 20:53:55</time>
      </trkpt>
      <trkpt lat="42.37025" lon="2.45788">
        <ele>1500</ele>
        <time>2022-05-21 20:53:56</time>
      </trkpt>
      <trkpt lat="42.37023" lon="2.45785">
        <ele>1500.2</ele>
        <time>2022-05-21 20:53:57</time>
      </trkpt>
      <trkpt lat="42.37021" lon="2.45782">
        <ele>1500.4</ele>
        <time>2022-05-21 20:53:58</time>
      </trkpt>
      <trkpt lat="42.37019" lon="2.45779">
        <ele>1500.6</ele>
        <time>2022-05-21 20:53:59</time>
      </trkpt>
      <trkpt lat="42.37017" lon="2.45776">
        <ele>1500.8</ele>
        <time>2022-05-21 20:54:00</time>
      </trkpt>
      <trkpt lat="42.37015" lon="2.45774">
        <ele>1501</ele>
        <time>2022-05-21 20:54:01</time>
      </trkpt>
      <trkpt lat="42.37013" lon="2.45771">
        <ele>1501.2</ele>
        <time>2022-05-21 20:54:02</time>
      </trkpt>
      <trkpt lat="42.37011" lon="2.45769">
        <ele>1501.4</ele>
        <time>2022-05-21 20:54:03</time>
      </trkpt>
      <trkpt lat="42.37008" lon="2.45767">
        <ele>1501.6</ele>
        <time>2022-05-21 20:54:04</time>
      </trkpt>
      <trkpt lat="42.37006" lon="2.45764">
        <ele>1501.8</ele>
        <time>2022-05-21 20:54:05</time>
      </trkpt>
      <trkpt lat="42.37004" lon="2.45762">
        <ele>1502</ele>
        <time>2022-05-21 20:54:06</time>
      </trkpt>
      <trkpt lat="42.37002" lon="2.45759">
        <ele>1502.2</ele>
        <time>2022-05-21 20:54:07</time>
      </trkpt>
      <trkpt lat="42.37" lon="2.45758">
        <ele>1502.6</ele>
        <time>2022-05-21 20:54:08</time>
      </trkpt>
      <trkpt lat="42.36997" lon="2.45756">
        <ele>1502.8</ele>
        <time>2022-05-21 20:54:09</time>
      </trkpt>
      <trkpt lat="42.36995" lon="2.45754">
        <ele>1503</ele>
        <time>2022-05-21 20:54:10</time>
      </trkpt>
      <trkpt lat="42.36993" lon="2.45752">
        <ele>1503.2</ele>
        <time>2022-05-21 20:54:11</time>
      </trkpt>
      <trkpt lat="42.3699" lon="2.4575">
        <ele>1503.4</ele>
        <time>2022-05-21 20:54:12</time>
      </trkpt>
      <trkpt lat="42.36988" lon="2.45748">
        <ele>1503.6</ele>
        <time>2022-05-21 20:54:13</time>
      </trkpt>
      <trkpt lat="42.36986" lon="2.45746">
        <ele>1503.6</ele>
        <time>2022-05-21 20:54:14</time>
      </trkpt>
      <trkpt lat="42.36983" lon="2.45744">
        <ele>1503.8</ele>
        <time>2022-05-21 20:54:15</time>
      </trkpt>
      <trkpt lat="42.36981" lon="2.45743">
        <ele>1504</ele>
        <time>2022-05-21 20:54:16</time>
      </trkpt>
      <trkpt lat="42.36978" lon="2.45741">
        <ele>1504.2</ele>
        <time>2022-05-21 20:54:17</time>
      </trkpt>
      <trkpt lat="42.36976" lon="2.45739">
        <ele>1504.2</ele>
        <time>2022-05-21 20:54:18</time>
      </trkpt>
      <trkpt lat="42.36973" lon="2.45737">
        <ele>1504.4</ele>
        <time>2022-05-21 20:54:19</time>
      </trkpt>
      <trkpt lat="42.3697" lon="2.45735">
        <ele>1504.4</ele>
        <time>2022-05-21 20:54:20</time>
      </trkpt>
      <trkpt lat="42.36967" lon="2.45734">
        <ele>1504.6</ele>
        <time>2022-05-21 20:54:21</time>
      </trkpt>
      <trkpt lat="42.36964" lon="2.45732">
        <ele>1504.6</ele>
        <time>2022-05-21 20:54:22</time>
      </trkpt>
      <trkpt lat="42.36961" lon="2.4573">
        <ele>1504.8</ele>
        <time>2022-05-21 20:54:23</time>
      </trkpt>
      <trkpt lat="42.36958" lon="2.45728">
        <ele>1504.8</ele>
        <time>2022-05-21 20:54:24</time>
      </trkpt>
      <trkpt lat="42.36955" lon="2.45726">
        <ele>1504.8</ele>
        <time>2022-05-21 20:54:25</time>
      </trkpt>
      <trkpt lat="42.36951" lon="2.45723">
        <ele>1504.8</ele>
        <time>2022-05-21 20:54:26</time>
      </trkpt>
      <trkpt lat="42.36948" lon="2.45721">
        <ele>1504.8</ele>
        <time>2022-05-21 20:54:27</time>
      </trkpt>
      <trkpt lat="42.36945" lon="2.45719">
        <ele>1504.8</ele>
        <time>2022-05-21 20:54:28</time>
      </trkpt>
      <trkpt lat="42.36941" lon="2.45716">
        <ele>1504.8</ele>
        <time>2022-05-21 20:54:29</time>
      </trkpt>
      <trkpt lat="42.36937" lon="2.45713">
        <ele>1505</ele>
        <time>2022-05-21 20:54:30</time>
      </trkpt>
      <trkpt lat="42.36933" lon="2.45711">
        <ele>1505</ele>
        <time>2022-05-21 20:54:31</time>
      </trkpt>
      <trkpt lat="42.3693" lon="2.45709">
        <ele>1505</ele>
        <time>2022-05-21 20:54:32</time>
      </trkpt>
      <trkpt lat="42.36926" lon="2.45707">
        <ele>1504.8</ele>
        <time>2022-05-21 20:54:33</time>
      </trkpt>
      <trkpt lat="42.36922" lon="2.45704">
        <ele>1504.8</ele>
        <time>2022-05-21 20:54:34</time>
      </trkpt>
      <trkpt lat="42.36918" lon="2.45702">
        <ele>1504.8</ele>
        <time>2022-05-21 20:54:35</time>
      </trkpt>
      <trkpt lat="42.36914" lon="2.457">
        <ele>1504.8</ele>
        <time>2022-05-21 20:54:36</time>
      </trkpt>
      <trkpt lat="42.3691" lon="2.45698">
        <ele>1504.8</ele>
        <time>2022-05-21 20:54:37</time>
      </trkpt>
      <trkpt lat="42.36906" lon="2.45695">
        <ele>1504.8</ele>
        <time>2022-05-21 20:54:38</time>
      </trkpt>
      <trkpt lat="42.36902" lon="2.45692">
        <ele>1504.8</ele>
        <time>2022-05-21 20:54:39</time>
      </trkpt>
      <trkpt lat="42.36898" lon="2.4569">
        <ele>1504.8</ele>
        <time>2022-05-21 20:54:40</time>
      </trkpt>
      <trkpt lat="42.36893" lon="2.45688">
        <ele>1504.8</ele>
        <time>2022-05-21 20:54:41</time>
      </trkpt>
      <trkpt lat="42.36889" lon="2.45686">
        <ele>1504.8</ele>
        <time>2022-05-21 20:54:42</time>
      </trkpt>
      <trkpt lat="42.36884" lon="2.45685">
        <ele>1504.8</ele>
        <time>2022-05-21 20:54:43</time>
      </trkpt>
      <trkpt lat="42.36881" lon="2.45683">
        <ele>1504.8</ele>
        <time>2022-05-21 20:54:44</time>
      </trkpt>
      <trkpt lat="42.36877" lon="2.45681">
        <ele>1504.8</ele>
        <time>2022-05-21 20:54:45</time>
      </trkpt>
      <trkpt lat="42.36873" lon="2.4568">
        <ele>1504.8</ele>
        <time>2022-05-21 20:54:46</time>
      </trkpt>
      <trkpt lat="42.36869" lon="2.45679">
        <ele>1504.6</ele>
        <time>2022-05-21 20:54:47</time>
      </trkpt>
      <trkpt lat="42.36865" lon="2.45678">
        <ele>1504.6</ele>
        <time>2022-05-21 20:54:48</time>
      </trkpt>
      <trkpt lat="42.3686" lon="2.45677">
        <ele>1504.6</ele>
        <time>2022-05-21 20:54:49</time>
      </trkpt>
      <trkpt lat="42.36856" lon="2.45676">
        <ele>1504.6</ele>
        <time>2022-05-21 20:54:50</time>
      </trkpt>
      <trkpt lat="42.36851" lon="2.45676">
        <ele>1504.6</ele>
        <time>2022-05-21 20:54:51</time>
      </trkpt>
      <trkpt lat="42.36847" lon="2.45675">
        <ele>1504.6</ele>
        <time>2022-05-21 20:54:52</time>
      </trkpt>
      <trkpt lat="42.36842" lon="2.45675">
        <ele>1504.6</ele>
        <time>2022-05-21 20:54:53</time>
      </trkpt>
      <trkpt lat="42.36838" lon="2.45674">
        <ele>1504.8</ele>
        <time>2022-05-21 20:54:54</time>
      </trkpt>
      <trkpt lat="42.36833" lon="2.45674">
        <ele>1504.8</ele>
        <time>2022-05-21 20:54:55</time>
      </trkpt>
      <trkpt lat="42.36829" lon="2.45674">
        <ele>1504.8</ele>
        <time>2022-05-21 20:54:56</time>
      </trkpt>
      <trkpt lat="42.36824" lon="2.45674">
        <ele>1504.8</ele>
        <time>2022-05-21 20:54:57</time>
      </trkpt>
      <trkpt lat="42.3682" lon="2.45674">
        <ele>1504.8</ele>
        <time>2022-05-21 20:54:58</time>
      </trkpt>
      <trkpt lat="42.36815" lon="2.45674">
        <ele>1505</ele>
        <time>2022-05-21 20:54:59</time>
      </trkpt>
      <trkpt lat="42.3681" lon="2.45674">
        <ele>1505</ele>
        <time>2022-05-21 20:55:00</time>
      </trkpt>
      <trkpt lat="42.36805" lon="2.45673">
        <ele>1505.2</ele>
        <time>2022-05-21 20:55:01</time>
      </trkpt>
      <trkpt lat="42.36801" lon="2.45673">
        <ele>1505.2</ele>
        <time>2022-05-21 20:55:02</time>
      </trkpt>
      <trkpt lat="42.36796" lon="2.45672">
        <ele>1505.2</ele>
        <time>2022-05-21 20:55:03</time>
      </trkpt>
      <trkpt lat="42.36792" lon="2.45672">
        <ele>1505.4</ele>
        <time>2022-05-21 20:55:04</time>
      </trkpt>
      <trkpt lat="42.36787" lon="2.45672">
        <ele>1505.4</ele>
        <time>2022-05-21 20:55:05</time>
      </trkpt>
      <trkpt lat="42.36783" lon="2.45672">
        <ele>1505.4</ele>
        <time>2022-05-21 20:55:06</time>
      </trkpt>
      <trkpt lat="42.36778" lon="2.45672">
        <ele>1505.6</ele>
        <time>2022-05-21 20:55:07</time>
      </trkpt>
      <trkpt lat="42.36773" lon="2.45671">
        <ele>1505.4</ele>
        <time>2022-05-21 20:55:08</time>
      </trkpt>
      <trkpt lat="42.36769" lon="2.45671">
        <ele>1505.6</ele>
        <time>2022-05-21 20:55:09</time>
      </trkpt>
      <trkpt lat="42.36764" lon="2.4567">
        <ele>1505.6</ele>
        <time>2022-05-21 20:55:10</time>
      </trkpt>
      <trkpt lat="42.36759" lon="2.4567">
        <ele>1505.4</ele>
        <time>2022-05-21 20:55:11</time>
      </trkpt>
      <trkpt lat="42.36755" lon="2.4567">
        <ele>1505.4</ele>
        <time>2022-05-21 20:55:12</time>
      </trkpt>
      <trkpt lat="42.3675" lon="2.45669">
        <ele>1505.4</ele>
        <time>2022-05-21 20:55:13</time>
      </trkpt>
      <trkpt lat="42.36746" lon="2.45668">
        <ele>1505.4</ele>
        <time>2022-05-21 20:55:14</time>
      </trkpt>
      <trkpt lat="42.36742" lon="2.45668">
        <ele>1505.4</ele>
        <time>2022-05-21 20:55:15</time>
      </trkpt>
      <trkpt lat="42.36737" lon="2.45666">
        <ele>1505.4</ele>
        <time>2022-05-21 20:55:16</time>
      </trkpt>
      <trkpt lat="42.36733" lon="2.45664">
        <ele>1505.4</ele>
        <time>2022-05-21 20:55:17</time>
      </trkpt>
      <trkpt lat="42.36729" lon="2.45662">
        <ele>1505.4</ele>
        <time>2022-05-21 20:55:18</time>
      </trkpt>
      <trkpt lat="42.36725" lon="2.45659">
        <ele>1505.4</ele>
        <time>2022-05-21 20:55:19</time>
      </trkpt>
      <trkpt lat="42.36721" lon="2.45655">
        <ele>1505.4</ele>
        <time>2022-05-21 20:55:20</time>
      </trkpt>
      <trkpt lat="42.36718" lon="2.45651">
        <ele>1505.4</ele>
        <time>2022-05-21 20:55:21</time>
      </trkpt>
      <trkpt lat="42.36715" lon="2.45647">
        <ele>1505.4</ele>
        <time>2022-05-21 20:55:22</time>
      </trkpt>
      <trkpt lat="42.36712" lon="2.45642">
        <ele>1505.4</ele>
        <time>2022-05-21 20:55:23</time>
      </trkpt>
      <trkpt lat="42.3671" lon="2.45637">
        <ele>1505.6</ele>
        <time>2022-05-21 20:55:24</time>
      </trkpt>
      <trkpt lat="42.36708" lon="2.45632">
        <ele>1505.6</ele>
        <time>2022-05-21 20:55:25</time>
      </trkpt>
      <trkpt lat="42.36707" lon="2.45626">
        <ele>1505.8</ele>
        <time>2022-05-21 20:55:26</time>
      </trkpt>
      <trkpt lat="42.36706" lon="2.4562">
        <ele>1505.8</ele>
        <time>2022-05-21 20:55:27</time>
      </trkpt>
      <trkpt lat="42.36705" lon="2.45615">
        <ele>1505.8</ele>
        <time>2022-05-21 20:55:28</time>
      </trkpt>
      <trkpt lat="42.36705" lon="2.45609">
        <ele>1505.8</ele>
        <time>2022-05-21 20:55:29</time>
      </trkpt>
      <trkpt lat="42.36704" lon="2.45604">
        <ele>1505.8</ele>
        <time>2022-05-21 20:55:30</time>
      </trkpt>
      <trkpt lat="42.36704" lon="2.45599">
        <ele>1505.8</ele>
        <time>2022-05-21 20:55:31</time>
      </trkpt>
      <trkpt lat="42.36704" lon="2.45595">
        <ele>1505.8</ele>
        <time>2022-05-21 20:55:32</time>
      </trkpt>
      <trkpt lat="42.36704" lon="2.45593">
        <ele>1505.8</ele>
        <time>2022-05-21 20:55:33</time>
      </trkpt>
      <trkpt lat="42.36704" lon="2.45589">
        <ele>1506.2</ele>
        <time>2022-05-21 20:56:45</time>
      </trkpt>
      <trkpt lat="42.36705" lon="2.45589">
        <ele>1506.2</ele>
        <time>2022-05-21 20:56:46</time>
      </trkpt>
      <trkpt lat="42.36706" lon="2.45588">
        <ele>1506.2</ele>
        <time>2022-05-21 20:56:47</time>
      </trkpt>
      <trkpt lat="42.36707" lon="2.45586">
        <ele>1506.2</ele>
        <time>2022-05-21 20:56:48</time>
      </trkpt>
      <trkpt lat="42.36709" lon="2.45583">
        <ele>1506</ele>
        <time>2022-05-21 20:56:49</time>
      </trkpt>
      <trkpt lat="42.3671" lon="2.4558">
        <ele>1506</ele>
        <time>2022-05-21 20:56:50</time>
      </trkpt>
      <trkpt lat="42.36712" lon="2.45576">
        <ele>1506</ele>
        <time>2022-05-21 20:56:51</time>
      </trkpt>
      <trkpt lat="42.36713" lon="2.45571">
        <ele>1505.8</ele>
        <time>2022-05-21 20:56:52</time>
      </trkpt>
      <trkpt lat="42.36715" lon="2.45566">
        <ele>1505.6</ele>
        <time>2022-05-21 20:56:53</time>
      </trkpt>
      <trkpt lat="42.36716" lon="2.45561">
        <ele>1505.6</ele>
        <time>2022-05-21 20:56:54</time>
      </trkpt>
      <trkpt lat="42.36718" lon="2.45555">
        <ele>1505.4</ele>
        <time>2022-05-21 20:56:55</time>
      </trkpt>
      <trkpt lat="42.3672" lon="2.45549">
        <ele>1505.4</ele>
        <time>2022-05-21 20:56:56</time>
      </trkpt>
      <trkpt lat="42.36722" lon="2.45543">
        <ele>1505.2</ele>
        <time>2022-05-21 20:56:57</time>
      </trkpt>
      <trkpt lat="42.36724" lon="2.45537">
        <ele>1505.2</ele>
        <time>2022-05-21 20:56:58</time>
      </trkpt>
      <trkpt lat="42.36727" lon="2.45531">
        <ele>1505.2</ele>
        <time>2022-05-21 20:56:59</time>
      </trkpt>
      <trkpt lat="42.36729" lon="2.45525">
        <ele>1505.2</ele>
        <time>2022-05-21 20:57:00</time>
      </trkpt>
      <trkpt lat="42.36731" lon="2.45519">
        <ele>1505.4</ele>
        <time>2022-05-21 20:57:01</time>
      </trkpt>
      <trkpt lat="42.36733" lon="2.45513">
        <ele>1505.2</ele>
        <time>2022-05-21 20:57:02</time>
      </trkpt>
      <trkpt lat="42.36736" lon="2.45506">
        <ele>1505.2</ele>
        <time>2022-05-21 20:57:03</time>
      </trkpt>
      <trkpt lat="42.36738" lon="2.455">
        <ele>1505.2</ele>
        <time>2022-05-21 20:57:04</time>
      </trkpt>
      <trkpt lat="42.36741" lon="2.45493">
        <ele>1505.2</ele>
        <time>2022-05-21 20:57:05</time>
      </trkpt>
      <trkpt lat="42.36743" lon="2.45486">
        <ele>1505</ele>
        <time>2022-05-21 20:57:06</time>
      </trkpt>
      <trkpt lat="42.36746" lon="2.45479">
        <ele>1505</ele>
        <time>2022-05-21 20:57:07</time>
      </trkpt>
      <trkpt lat="42.36748" lon="2.45472">
        <ele>1504.8</ele>
        <time>2022-05-21 20:57:08</time>
      </trkpt>
      <trkpt lat="42.36752" lon="2.45464">
        <ele>1504.8</ele>
        <time>2022-05-21 20:57:09</time>
      </trkpt>
      <trkpt lat="42.36755" lon="2.45457">
        <ele>1504.6</ele>
        <time>2022-05-21 20:57:10</time>
      </trkpt>
      <trkpt lat="42.36759" lon="2.45449">
        <ele>1504.4</ele>
        <time>2022-05-21 20:57:11</time>
      </trkpt>
      <trkpt lat="42.36763" lon="2.45442">
        <ele>1504</ele>
        <time>2022-05-21 20:57:12</time>
      </trkpt>
      <trkpt lat="42.36767" lon="2.45434">
        <ele>1503.8</ele>
        <time>2022-05-21 20:57:13</time>
      </trkpt>
      <trkpt lat="42.36771" lon="2.45426">
        <ele>1503.4</ele>
        <time>2022-05-21 20:57:14</time>
      </trkpt>
      <trkpt lat="42.36776" lon="2.45417">
        <ele>1503</ele>
        <time>2022-05-21 20:57:15</time>
      </trkpt>
      <trkpt lat="42.3678" lon="2.45407">
        <ele>1502.6</ele>
        <time>2022-05-21 20:57:16</time>
      </trkpt>
      <trkpt lat="42.36784" lon="2.45398">
        <ele>1502.2</ele>
        <time>2022-05-21 20:57:17</time>
      </trkpt>
      <trkpt lat="42.36789" lon="2.45388">
        <ele>1501.8</ele>
        <time>2022-05-21 20:57:18</time>
      </trkpt>
      <trkpt lat="42.36794" lon="2.45379">
        <ele>1501.4</ele>
        <time>2022-05-21 20:57:19</time>
      </trkpt>
      <trkpt lat="42.36799" lon="2.45369">
        <ele>1500.8</ele>
        <time>2022-05-21 20:57:20</time>
      </trkpt>
      <trkpt lat="42.36804" lon="2.45358">
        <ele>1500.4</ele>
        <time>2022-05-21 20:57:21</time>
      </trkpt>
      <trkpt lat="42.36808" lon="2.45347">
        <ele>1499.8</ele>
        <time>2022-05-21 20:57:22</time>
      </trkpt>
      <trkpt lat="42.36813" lon="2.45336">
        <ele>1499.4</ele>
        <time>2022-05-21 20:57:23</time>
      </trkpt>
      <trkpt lat="42.36817" lon="2.45324">
        <ele>1498.8</ele>
        <time>2022-05-21 20:57:24</time>
      </trkpt>
      <trkpt lat="42.36821" lon="2.4531">
        <ele>1498.2</ele>
        <time>2022-05-21 20:57:25</time>
      </trkpt>
      <trkpt lat="42.36824" lon="2.45296">
        <ele>1497.4</ele>
        <time>2022-05-21 20:57:26</time>
      </trkpt>
      <trkpt lat="42.36826" lon="2.45281">
        <ele>1496.8</ele>
        <time>2022-05-21 20:57:27</time>
      </trkpt>
      <trkpt lat="42.36827" lon="2.45265">
        <ele>1496.2</ele>
        <time>2022-05-21 20:57:28</time>
      </trkpt>
      <trkpt lat="42.36828" lon="2.45249">
        <ele>1495.4</ele>
        <time>2022-05-21 20:57:29</time>
      </trkpt>
      <trkpt lat="42.3683" lon="2.45233">
        <ele>1494.8</ele>
        <time>2022-05-21 20:57:30</time>
      </trkpt>
      <trkpt lat="42.36831" lon="2.45218">
        <ele>1494.2</ele>
        <time>2022-05-21 20:57:31</time>
      </trkpt>
      <trkpt lat="42.36833" lon="2.45204">
        <ele>1493.6</ele>
        <time>2022-05-21 20:57:32</time>
      </trkpt>
      <trkpt lat="42.36835" lon="2.4519">
        <ele>1493</ele>
        <time>2022-05-21 20:57:33</time>
      </trkpt>
      <trkpt lat="42.36837" lon="2.45175">
        <ele>1492.2</ele>
        <time>2022-05-21 20:57:34</time>
      </trkpt>
      <trkpt lat="42.36839" lon="2.45161">
        <ele>1491.6</ele>
        <time>2022-05-21 20:57:35</time>
      </trkpt>
      <trkpt lat="42.36841" lon="2.45147">
        <ele>1491</ele>
        <time>2022-05-21 20:57:36</time>
      </trkpt>
      <trkpt lat="42.36842" lon="2.45134">
        <ele>1490.4</ele>
        <time>2022-05-21 20:57:37</time>
      </trkpt>
      <trkpt lat="42.36843" lon="2.4512">
        <ele>1489.8</ele>
        <time>2022-05-21 20:57:38</time>
      </trkpt>
      <trkpt lat="42.36844" lon="2.45106">
        <ele>1489.4</ele>
        <time>2022-05-21 20:57:39</time>
      </trkpt>
      <trkpt lat="42.36844" lon="2.45092">
        <ele>1488.8</ele>
        <time>2022-05-21 20:57:40</time>
      </trkpt>
      <trkpt lat="42.36845" lon="2.45078">
        <ele>1488.2</ele>
        <time>2022-05-21 20:57:41</time>
      </trkpt>
      <trkpt lat="42.36846" lon="2.45065">
        <ele>1487.6</ele>
        <time>2022-05-21 20:57:42</time>
      </trkpt>
      <trkpt lat="42.36845" lon="2.45052">
        <ele>1487</ele>
        <time>2022-05-21 20:57:43</time>
      </trkpt>
      <trkpt lat="42.36844" lon="2.45038">
        <ele>1486.4</ele>
        <time>2022-05-21 20:57:44</time>
      </trkpt>
      <trkpt lat="42.36844" lon="2.45025">
        <ele>1485.8</ele>
        <time>2022-05-21 20:57:45</time>
      </trkpt>
      <trkpt lat="42.36844" lon="2.45011">
        <ele>1485.2</ele>
        <time>2022-05-21 20:57:46</time>
      </trkpt>
      <trkpt lat="42.36845" lon="2.44997">
        <ele>1484.6</ele>
        <time>2022-05-21 20:57:47</time>
      </trkpt>
      <trkpt lat="42.36844" lon="2.44984">
        <ele>1483.8</ele>
        <time>2022-05-21 20:57:48</time>
      </trkpt>
      <trkpt lat="42.36841" lon="2.4497">
        <ele>1483.2</ele>
        <time>2022-05-21 20:57:49</time>
      </trkpt>
      <trkpt lat="42.36836" lon="2.44956">
        <ele>1482.4</ele>
        <time>2022-05-21 20:57:50</time>
      </trkpt>
      <trkpt lat="42.36832" lon="2.44942">
        <ele>1481.8</ele>
        <time>2022-05-21 20:57:51</time>
      </trkpt>
      <trkpt lat="42.36828" lon="2.44927">
        <ele>1481.2</ele>
        <time>2022-05-21 20:57:52</time>
      </trkpt>
      <trkpt lat="42.36825" lon="2.44912">
        <ele>1480.4</ele>
        <time>2022-05-21 20:57:53</time>
      </trkpt>
      <trkpt lat="42.36821" lon="2.44897">
        <ele>1479.8</ele>
        <time>2022-05-21 20:57:54</time>
      </trkpt>
      <trkpt lat="42.36816" lon="2.44883">
        <ele>1479.2</ele>
        <time>2022-05-21 20:57:55</time>
      </trkpt>
      <trkpt lat="42.36812" lon="2.44868">
        <ele>1478.6</ele>
        <time>2022-05-21 20:57:56</time>
      </trkpt>
      <trkpt lat="42.36807" lon="2.44854">
        <ele>1477.8</ele>
        <time>2022-05-21 20:57:57</time>
      </trkpt>
      <trkpt lat="42.36801" lon="2.4484">
        <ele>1477.2</ele>
        <time>2022-05-21 20:57:58</time>
      </trkpt>
      <trkpt lat="42.36794" lon="2.44825">
        <ele>1476.4</ele>
        <time>2022-05-21 20:57:59</time>
      </trkpt>
      <trkpt lat="42.36788" lon="2.44811">
        <ele>1475.6</ele>
        <time>2022-05-21 20:58:00</time>
      </trkpt>
      <trkpt lat="42.36782" lon="2.44798">
        <ele>1475</ele>
        <time>2022-05-21 20:58:01</time>
      </trkpt>
      <trkpt lat="42.36776" lon="2.44784">
        <ele>1474.2</ele>
        <time>2022-05-21 20:58:02</time>
      </trkpt>
      <trkpt lat="42.3677" lon="2.4477">
        <ele>1473.4</ele>
        <time>2022-05-21 20:58:03</time>
      </trkpt>
      <trkpt lat="42.36763" lon="2.44757">
        <ele>1472.6</ele>
        <time>2022-05-21 20:58:04</time>
      </trkpt>
      <trkpt lat="42.36756" lon="2.44743">
        <ele>1471.8</ele>
        <time>2022-05-21 20:58:05</time>
      </trkpt>
      <trkpt lat="42.3675" lon="2.44728">
        <ele>1471</ele>
        <time>2022-05-21 20:58:06</time>
      </trkpt>
      <trkpt lat="42.36743" lon="2.44712">
        <ele>1470.2</ele>
        <time>2022-05-21 20:58:07</time>
      </trkpt>
      <trkpt lat="42.36739" lon="2.44696">
        <ele>1469.4</ele>
        <time>2022-05-21 20:58:08</time>
      </trkpt>
      <trkpt lat="42.36736" lon="2.44678">
        <ele>1468.6</ele>
        <time>2022-05-21 20:58:09</time>
      </trkpt>
      <trkpt lat="42.36733" lon="2.4466">
        <ele>1467.8</ele>
        <time>2022-05-21 20:58:10</time>
      </trkpt>
      <trkpt lat="42.3673" lon="2.44641">
        <ele>1467.2</ele>
        <time>2022-05-21 20:58:11</time>
      </trkpt>
      <trkpt lat="42.36727" lon="2.44623">
        <ele>1466.4</ele>
        <time>2022-05-21 20:58:12</time>
      </trkpt>
      <trkpt lat="42.36724" lon="2.44605">
        <ele>1465.6</ele>
        <time>2022-05-21 20:58:13</time>
      </trkpt>
      <trkpt lat="42.36721" lon="2.44588">
        <ele>1464.8</ele>
        <time>2022-05-21 20:58:14</time>
      </trkpt>
      <trkpt lat="42.36718" lon="2.44571">
        <ele>1464</ele>
        <time>2022-05-21 20:58:15</time>
      </trkpt>
      <trkpt lat="42.36715" lon="2.44553">
        <ele>1463.2</ele>
        <time>2022-05-21 20:58:16</time>
      </trkpt>
      <trkpt lat="42.36711" lon="2.44535">
        <ele>1462.4</ele>
        <time>2022-05-21 20:58:17</time>
      </trkpt>
      <trkpt lat="42.36709" lon="2.44522">
        <ele>1461.6</ele>
        <time>2022-05-21 20:58:18</time>
      </trkpt>
      <trkpt lat="42.36707" lon="2.44513">
        <ele>1461.2</ele>
        <time>2022-05-21 20:58:19</time>
      </trkpt>
      <trkpt lat="42.36703" lon="2.44494">
        <ele>1460</ele>
        <time>2022-05-21 20:58:20</time>
      </trkpt>
      <trkpt lat="42.36697" lon="2.44466">
        <ele>1459.2</ele>
        <time>2022-05-21 20:58:21</time>
      </trkpt>
      <trkpt lat="42.36696" lon="2.44449">
        <ele>1458.2</ele>
        <time>2022-05-21 20:58:22</time>
      </trkpt>
      <trkpt lat="42.36697" lon="2.44433">
        <ele>1457.2</ele>
        <time>2022-05-21 20:58:23</time>
      </trkpt>
      <trkpt lat="42.36699" lon="2.44417">
        <ele>1456.4</ele>
        <time>2022-05-21 20:58:24</time>
      </trkpt>
      <trkpt lat="42.36703" lon="2.444">
        <ele>1455.4</ele>
        <time>2022-05-21 20:58:25</time>
      </trkpt>
      <trkpt lat="42.36707" lon="2.44384">
        <ele>1454.6</ele>
        <time>2022-05-21 20:58:26</time>
      </trkpt>
      <trkpt lat="42.36711" lon="2.44369">
        <ele>1453.8</ele>
        <time>2022-05-21 20:58:27</time>
      </trkpt>
      <trkpt lat="42.36715" lon="2.44353">
        <ele>1452.8</ele>
        <time>2022-05-21 20:58:28</time>
      </trkpt>
      <trkpt lat="42.36719" lon="2.44337">
        <ele>1452</ele>
        <time>2022-05-21 20:58:29</time>
      </trkpt>
      <trkpt lat="42.36721" lon="2.4432">
        <ele>1451.2</ele>
        <time>2022-05-21 20:58:30</time>
      </trkpt>
      <trkpt lat="42.36721" lon="2.44304">
        <ele>1450.4</ele>
        <time>2022-05-21 20:58:31</time>
      </trkpt>
      <trkpt lat="42.36719" lon="2.44288">
        <ele>1449.6</ele>
        <time>2022-05-21 20:58:32</time>
      </trkpt>
      <trkpt lat="42.36712" lon="2.44274">
        <ele>1448.8</ele>
        <time>2022-05-21 20:58:33</time>
      </trkpt>
      <trkpt lat="42.36702" lon="2.44262">
        <ele>1448.2</ele>
        <time>2022-05-21 20:58:34</time>
      </trkpt>
      <trkpt lat="42.36691" lon="2.44254">
        <ele>1447.4</ele>
        <time>2022-05-21 20:58:35</time>
      </trkpt>
      <trkpt lat="42.36679" lon="2.44249">
        <ele>1446.8</ele>
        <time>2022-05-21 20:58:36</time>
      </trkpt>
      <trkpt lat="42.36666" lon="2.44245">
        <ele>1446</ele>
        <time>2022-05-21 20:58:37</time>
      </trkpt>
      <trkpt lat="42.36653" lon="2.44242">
        <ele>1445.2</ele>
        <time>2022-05-21 20:58:38</time>
      </trkpt>
      <trkpt lat="42.36639" lon="2.44238">
        <ele>1444.4</ele>
        <time>2022-05-21 20:58:39</time>
      </trkpt>
      <trkpt lat="42.36625" lon="2.44233">
        <ele>1443.6</ele>
        <time>2022-05-21 20:58:40</time>
      </trkpt>
      <trkpt lat="42.36612" lon="2.44227">
        <ele>1442.6</ele>
        <time>2022-05-21 20:58:41</time>
      </trkpt>
      <trkpt lat="42.366" lon="2.44219">
        <ele>1441.6</ele>
        <time>2022-05-21 20:58:42</time>
      </trkpt>
      <trkpt lat="42.3659" lon="2.44207">
        <ele>1440.8</ele>
        <time>2022-05-21 20:58:43</time>
      </trkpt>
      <trkpt lat="42.3658" lon="2.44195">
        <ele>1439.8</ele>
        <time>2022-05-21 20:58:44</time>
      </trkpt>
      <trkpt lat="42.3657" lon="2.44182">
        <ele>1439</ele>
        <time>2022-05-21 20:58:45</time>
      </trkpt>
      <trkpt lat="42.36559" lon="2.44167">
        <ele>1438.2</ele>
        <time>2022-05-21 20:58:46</time>
      </trkpt>
      <trkpt lat="42.3655" lon="2.44154">
        <ele>1437.4</ele>
        <time>2022-05-21 20:58:47</time>
      </trkpt>
      <trkpt lat="42.36542" lon="2.44139">
        <ele>1436.4</ele>
        <time>2022-05-21 20:58:48</time>
      </trkpt>
      <trkpt lat="42.36532" lon="2.44122">
        <ele>1435.6</ele>
        <time>2022-05-21 20:58:49</time>
      </trkpt>
      <trkpt lat="42.36526" lon="2.44105">
        <ele>1434.8</ele>
        <time>2022-05-21 20:58:50</time>
      </trkpt>
      <trkpt lat="42.36521" lon="2.44087">
        <ele>1434</ele>
        <time>2022-05-21 20:58:51</time>
      </trkpt>
      <trkpt lat="42.36519" lon="2.44068">
        <ele>1433</ele>
        <time>2022-05-21 20:58:52</time>
      </trkpt>
      <trkpt lat="42.36518" lon="2.44049">
        <ele>1432.2</ele>
        <time>2022-05-21 20:58:53</time>
      </trkpt>
      <trkpt lat="42.36519" lon="2.44031">
        <ele>1431.4</ele>
        <time>2022-05-21 20:58:54</time>
      </trkpt>
      <trkpt lat="42.36522" lon="2.44014">
        <ele>1430.6</ele>
        <time>2022-05-21 20:58:55</time>
      </trkpt>
      <trkpt lat="42.36527" lon="2.43996">
        <ele>1429.8</ele>
        <time>2022-05-21 20:58:56</time>
      </trkpt>
      <trkpt lat="42.36534" lon="2.4398">
        <ele>1429</ele>
        <time>2022-05-21 20:58:57</time>
      </trkpt>
      <trkpt lat="42.36542" lon="2.43964">
        <ele>1428.2</ele>
        <time>2022-05-21 20:58:58</time>
      </trkpt>
      <trkpt lat="42.36551" lon="2.4395">
        <ele>1427.6</ele>
        <time>2022-05-21 20:58:59</time>
      </trkpt>
      <trkpt lat="42.3656" lon="2.43937">
        <ele>1426.8</ele>
        <time>2022-05-21 20:59:00</time>
      </trkpt>
      <trkpt lat="42.36569" lon="2.43924">
        <ele>1426</ele>
        <time>2022-05-21 20:59:01</time>
      </trkpt>
      <trkpt lat="42.36578" lon="2.43912">
        <ele>1425.4</ele>
        <time>2022-05-21 20:59:02</time>
      </trkpt>
      <trkpt lat="42.36587" lon="2.43898">
        <ele>1424.8</ele>
        <time>2022-05-21 20:59:03</time>
      </trkpt>
      <trkpt lat="42.36595" lon="2.43884">
        <ele>1424.2</ele>
        <time>2022-05-21 20:59:04</time>
      </trkpt>
      <trkpt lat="42.36601" lon="2.43869">
        <ele>1423.4</ele>
        <time>2022-05-21 20:59:05</time>
      </trkpt>
      <trkpt lat="42.36607" lon="2.43852">
        <ele>1422.6</ele>
        <time>2022-05-21 20:59:06</time>
      </trkpt>
      <trkpt lat="42.36612" lon="2.43836">
        <ele>1422</ele>
        <time>2022-05-21 20:59:07</time>
      </trkpt>
      <trkpt lat="42.36617" lon="2.4382">
        <ele>1421.2</ele>
        <time>2022-05-21 20:59:08</time>
      </trkpt>
      <trkpt lat="42.36624" lon="2.43804">
        <ele>1420.4</ele>
        <time>2022-05-21 20:59:09</time>
      </trkpt>
      <trkpt lat="42.36631" lon="2.4379">
        <ele>1419.8</ele>
        <time>2022-05-21 20:59:10</time>
      </trkpt>
      <trkpt lat="42.3664" lon="2.43776">
        <ele>1419</ele>
        <time>2022-05-21 20:59:11</time>
      </trkpt>
      <trkpt lat="42.36648" lon="2.43762">
        <ele>1418.4</ele>
        <time>2022-05-21 20:59:12</time>
      </trkpt>
      <trkpt lat="42.36655" lon="2.43747">
        <ele>1417.8</ele>
        <time>2022-05-21 20:59:13</time>
      </trkpt>
      <trkpt lat="42.36661" lon="2.43732">
        <ele>1417.2</ele>
        <time>2022-05-21 20:59:14</time>
      </trkpt>
      <trkpt lat="42.36667" lon="2.43717">
        <ele>1416.4</ele>
        <time>2022-05-21 20:59:15</time>
      </trkpt>
      <trkpt lat="42.36673" lon="2.43699">
        <ele>1415.8</ele>
        <time>2022-05-21 20:59:16</time>
      </trkpt>
      <trkpt lat="42.36679" lon="2.43683">
        <ele>1415</ele>
        <time>2022-05-21 20:59:17</time>
      </trkpt>
      <trkpt lat="42.36685" lon="2.43668">
        <ele>1414.2</ele>
        <time>2022-05-21 20:59:18</time>
      </trkpt>
      <trkpt lat="42.36693" lon="2.43654">
        <ele>1413.4</ele>
        <time>2022-05-21 20:59:19</time>
      </trkpt>
      <trkpt lat="42.36701" lon="2.4364">
        <ele>1412.6</ele>
        <time>2022-05-21 20:59:20</time>
      </trkpt>
      <trkpt lat="42.3671" lon="2.43628">
        <ele>1412</ele>
        <time>2022-05-21 20:59:21</time>
      </trkpt>
      <trkpt lat="42.3672" lon="2.43618">
        <ele>1411.2</ele>
        <time>2022-05-21 20:59:22</time>
      </trkpt>
      <trkpt lat="42.36731" lon="2.43608">
        <ele>1410.4</ele>
        <time>2022-05-21 20:59:23</time>
      </trkpt>
      <trkpt lat="42.36743" lon="2.436">
        <ele>1409.8</ele>
        <time>2022-05-21 20:59:24</time>
      </trkpt>
      <trkpt lat="42.36755" lon="2.43594">
        <ele>1409.2</ele>
        <time>2022-05-21 20:59:25</time>
      </trkpt>
      <trkpt lat="42.36767" lon="2.43589">
        <ele>1408.6</ele>
        <time>2022-05-21 20:59:26</time>
      </trkpt>
      <trkpt lat="42.36779" lon="2.43585">
        <ele>1407.8</ele>
        <time>2022-05-21 20:59:27</time>
      </trkpt>
      <trkpt lat="42.36791" lon="2.43579">
        <ele>1407.2</ele>
        <time>2022-05-21 20:59:28</time>
      </trkpt>
      <trkpt lat="42.36803" lon="2.43572">
        <ele>1406.6</ele>
        <time>2022-05-21 20:59:29</time>
      </trkpt>
      <trkpt lat="42.36814" lon="2.43563">
        <ele>1406</ele>
        <time>2022-05-21 20:59:30</time>
      </trkpt>
      <trkpt lat="42.36825" lon="2.43554">
        <ele>1405.2</ele>
        <time>2022-05-21 20:59:31</time>
      </trkpt>
      <trkpt lat="42.36835" lon="2.43544">
        <ele>1404.6</ele>
        <time>2022-05-21 20:59:32</time>
      </trkpt>
      <trkpt lat="42.36847" lon="2.43535">
        <ele>1403.8</ele>
        <time>2022-05-21 20:59:33</time>
      </trkpt>
      <trkpt lat="42.36859" lon="2.43529">
        <ele>1403.2</ele>
        <time>2022-05-21 20:59:34</time>
      </trkpt>
      <trkpt lat="42.36871" lon="2.43525">
        <ele>1402.6</ele>
        <time>2022-05-21 20:59:35</time>
      </trkpt>
      <trkpt lat="42.36882" lon="2.43523">
        <ele>1402</ele>
        <time>2022-05-21 20:59:36</time>
      </trkpt>
      <trkpt lat="42.36894" lon="2.43522">
        <ele>1401.2</ele>
        <time>2022-05-21 20:59:37</time>
      </trkpt>
      <trkpt lat="42.36905" lon="2.43521">
        <ele>1400.6</ele>
        <time>2022-05-21 20:59:38</time>
      </trkpt>
      <trkpt lat="42.36918" lon="2.4352">
        <ele>1399.8</ele>
        <time>2022-05-21 20:59:39</time>
      </trkpt>
      <trkpt lat="42.36929" lon="2.43519">
        <ele>1399</ele>
        <time>2022-05-21 20:59:40</time>
      </trkpt>
      <trkpt lat="42.3694" lon="2.43518">
        <ele>1398.2</ele>
        <time>2022-05-21 20:59:41</time>
      </trkpt>
      <trkpt lat="42.36951" lon="2.43516">
        <ele>1397.6</ele>
        <time>2022-05-21 20:59:42</time>
      </trkpt>
      <trkpt lat="42.36961" lon="2.43512">
        <ele>1396.8</ele>
        <time>2022-05-21 20:59:43</time>
      </trkpt>
      <trkpt lat="42.36971" lon="2.43505">
        <ele>1396.2</ele>
        <time>2022-05-21 20:59:44</time>
      </trkpt>
      <trkpt lat="42.3698" lon="2.43497">
        <ele>1395.6</ele>
        <time>2022-05-21 20:59:45</time>
      </trkpt>
      <trkpt lat="42.36989" lon="2.43487">
        <ele>1394.8</ele>
        <time>2022-05-21 20:59:46</time>
      </trkpt>
      <trkpt lat="42.36995" lon="2.43475">
        <ele>1394</ele>
        <time>2022-05-21 20:59:47</time>
      </trkpt>
      <trkpt lat="42.36997" lon="2.43461">
        <ele>1393.2</ele>
        <time>2022-05-21 20:59:48</time>
      </trkpt>
      <trkpt lat="42.36997" lon="2.43445">
        <ele>1392.4</ele>
        <time>2022-05-21 20:59:49</time>
      </trkpt>
      <trkpt lat="42.36996" lon="2.43427">
        <ele>1391.6</ele>
        <time>2022-05-21 20:59:50</time>
      </trkpt>
      <trkpt lat="42.36996" lon="2.43409">
        <ele>1390.8</ele>
        <time>2022-05-21 20:59:51</time>
      </trkpt>
      <trkpt lat="42.36997" lon="2.43391">
        <ele>1389.8</ele>
        <time>2022-05-21 20:59:52</time>
      </trkpt>
      <trkpt lat="42.37" lon="2.43373">
        <ele>1389</ele>
        <time>2022-05-21 20:59:53</time>
      </trkpt>
      <trkpt lat="42.37004" lon="2.43357">
        <ele>1388</ele>
        <time>2022-05-21 20:59:54</time>
      </trkpt>
      <trkpt lat="42.3701" lon="2.43341">
        <ele>1387</ele>
        <time>2022-05-21 20:59:55</time>
      </trkpt>
      <trkpt lat="42.37018" lon="2.43327">
        <ele>1386.2</ele>
        <time>2022-05-21 20:59:56</time>
      </trkpt>
      <trkpt lat="42.37026" lon="2.43313">
        <ele>1385.4</ele>
        <time>2022-05-21 20:59:57</time>
      </trkpt>
      <trkpt lat="42.37034" lon="2.433">
        <ele>1384.6</ele>
        <time>2022-05-21 20:59:58</time>
      </trkpt>
      <trkpt lat="42.3704" lon="2.43286">
        <ele>1384</ele>
        <time>2022-05-21 20:59:59</time>
      </trkpt>
      <trkpt lat="42.37045" lon="2.43272">
        <ele>1383.2</ele>
        <time>2022-05-21 21:00:00</time>
      </trkpt>
      <trkpt lat="42.37048" lon="2.43257">
        <ele>1382.6</ele>
        <time>2022-05-21 21:00:01</time>
      </trkpt>
      <trkpt lat="42.37048" lon="2.43241">
        <ele>1382</ele>
        <time>2022-05-21 21:00:02</time>
      </trkpt>
      <trkpt lat="42.37046" lon="2.43226">
        <ele>1381.4</ele>
        <time>2022-05-21 21:00:03</time>
      </trkpt>
      <trkpt lat="42.37042" lon="2.43211">
        <ele>1381</ele>
        <time>2022-05-21 21:00:04</time>
      </trkpt>
      <trkpt lat="42.37038" lon="2.432">
        <ele>1380.6</ele>
        <time>2022-05-21 21:00:05</time>
      </trkpt>
      <trkpt lat="42.37031" lon="2.43194">
        <ele>1380.2</ele>
        <time>2022-05-21 21:00:06</time>
      </trkpt>
      <trkpt lat="42.37021" lon="2.43191">
        <ele>1379.8</ele>
        <time>2022-05-21 21:00:07</time>
      </trkpt>
      <trkpt lat="42.37009" lon="2.43188">
        <ele>1379.4</ele>
        <time>2022-05-21 21:00:08</time>
      </trkpt>
      <trkpt lat="42.36996" lon="2.43186">
        <ele>1378.8</ele>
        <time>2022-05-21 21:00:09</time>
      </trkpt>
      <trkpt lat="42.36983" lon="2.43183">
        <ele>1378.4</ele>
        <time>2022-05-21 21:00:10</time>
      </trkpt>
      <trkpt lat="42.36971" lon="2.43179">
        <ele>1377.8</ele>
        <time>2022-05-21 21:00:11</time>
      </trkpt>
      <trkpt lat="42.36959" lon="2.43174">
        <ele>1377.2</ele>
        <time>2022-05-21 21:00:12</time>
      </trkpt>
      <trkpt lat="42.36949" lon="2.43166">
        <ele>1376.6</ele>
        <time>2022-05-21 21:00:13</time>
      </trkpt>
      <trkpt lat="42.3694" lon="2.43156">
        <ele>1375.8</ele>
        <time>2022-05-21 21:00:14</time>
      </trkpt>
      <trkpt lat="42.36933" lon="2.43143">
        <ele>1375.2</ele>
        <time>2022-05-21 21:00:15</time>
      </trkpt>
      <trkpt lat="42.36928" lon="2.43129">
        <ele>1374.6</ele>
        <time>2022-05-21 21:00:16</time>
      </trkpt>
      <trkpt lat="42.36926" lon="2.43114">
        <ele>1374</ele>
        <time>2022-05-21 21:00:17</time>
      </trkpt>
      <trkpt lat="42.36927" lon="2.43099">
        <ele>1373.4</ele>
        <time>2022-05-21 21:00:18</time>
      </trkpt>
      <trkpt lat="42.36929" lon="2.43085">
        <ele>1372.8</ele>
        <time>2022-05-21 21:00:19</time>
      </trkpt>
      <trkpt lat="42.36932" lon="2.4307">
        <ele>1372.4</ele>
        <time>2022-05-21 21:00:20</time>
      </trkpt>
      <trkpt lat="42.36935" lon="2.43055">
        <ele>1371.8</ele>
        <time>2022-05-21 21:00:21</time>
      </trkpt>
      <trkpt lat="42.36939" lon="2.4304">
        <ele>1371.2</ele>
        <time>2022-05-21 21:00:22</time>
      </trkpt>
      <trkpt lat="42.36943" lon="2.43026">
        <ele>1370.6</ele>
        <time>2022-05-21 21:00:23</time>
      </trkpt>
      <trkpt lat="42.36947" lon="2.43011">
        <ele>1370</ele>
        <time>2022-05-21 21:00:24</time>
      </trkpt>
      <trkpt lat="42.3695" lon="2.42996">
        <ele>1369.6</ele>
        <time>2022-05-21 21:00:25</time>
      </trkpt>
      <trkpt lat="42.36953" lon="2.42981">
        <ele>1369.2</ele>
        <time>2022-05-21 21:00:26</time>
      </trkpt>
      <trkpt lat="42.36955" lon="2.42967">
        <ele>1368.6</ele>
        <time>2022-05-21 21:00:27</time>
      </trkpt>
      <trkpt lat="42.36955" lon="2.42952">
        <ele>1368.2</ele>
        <time>2022-05-21 21:00:28</time>
      </trkpt>
      <trkpt lat="42.36955" lon="2.42938">
        <ele>1368</ele>
        <time>2022-05-21 21:00:29</time>
      </trkpt>
      <trkpt lat="42.36952" lon="2.42925">
        <ele>1367.6</ele>
        <time>2022-05-21 21:00:30</time>
      </trkpt>
      <trkpt lat="42.36948" lon="2.42914">
        <ele>1367.4</ele>
        <time>2022-05-21 21:00:31</time>
      </trkpt>
      <trkpt lat="42.36943" lon="2.42905">
        <ele>1367.2</ele>
        <time>2022-05-21 21:00:32</time>
      </trkpt>
      <trkpt lat="42.36936" lon="2.42901">
        <ele>1366.8</ele>
        <time>2022-05-21 21:00:33</time>
      </trkpt>
      <trkpt lat="42.36928" lon="2.429">
        <ele>1366.6</ele>
        <time>2022-05-21 21:00:34</time>
      </trkpt>
      <trkpt lat="42.36919" lon="2.42904">
        <ele>1366.4</ele>
        <time>2022-05-21 21:00:35</time>
      </trkpt>
      <trkpt lat="42.36909" lon="2.42912">
        <ele>1366</ele>
        <time>2022-05-21 21:00:36</time>
      </trkpt>
      <trkpt lat="42.36899" lon="2.42921">
        <ele>1365.6</ele>
        <time>2022-05-21 21:00:37</time>
      </trkpt>
      <trkpt lat="42.3689" lon="2.4293">
        <ele>1365</ele>
        <time>2022-05-21 21:00:38</time>
      </trkpt>
      <trkpt lat="42.3688" lon="2.42939">
        <ele>1364.4</ele>
        <time>2022-05-21 21:00:39</time>
      </trkpt>
      <trkpt lat="42.3687" lon="2.42948">
        <ele>1363.8</ele>
        <time>2022-05-21 21:00:40</time>
      </trkpt>
      <trkpt lat="42.3686" lon="2.42955">
        <ele>1363.2</ele>
        <time>2022-05-21 21:00:41</time>
      </trkpt>
      <trkpt lat="42.3685" lon="2.42961">
        <ele>1362.6</ele>
        <time>2022-05-21 21:00:42</time>
      </trkpt>
      <trkpt lat="42.36838" lon="2.42964">
        <ele>1362</ele>
        <time>2022-05-21 21:00:43</time>
      </trkpt>
      <trkpt lat="42.36826" lon="2.42967">
        <ele>1361.4</ele>
        <time>2022-05-21 21:00:44</time>
      </trkpt>
      <trkpt lat="42.36814" lon="2.4297">
        <ele>1360.6</ele>
        <time>2022-05-21 21:00:45</time>
      </trkpt>
      <trkpt lat="42.36803" lon="2.42973">
        <ele>1360</ele>
        <time>2022-05-21 21:00:46</time>
      </trkpt>
      <trkpt lat="42.36791" lon="2.42976">
        <ele>1359.4</ele>
        <time>2022-05-21 21:00:47</time>
      </trkpt>
      <trkpt lat="42.3678" lon="2.42979">
        <ele>1358.8</ele>
        <time>2022-05-21 21:00:48</time>
      </trkpt>
      <trkpt lat="42.36768" lon="2.42982">
        <ele>1358</ele>
        <time>2022-05-21 21:00:49</time>
      </trkpt>
      <trkpt lat="42.36755" lon="2.42986">
        <ele>1357.4</ele>
        <time>2022-05-21 21:00:50</time>
      </trkpt>
      <trkpt lat="42.36743" lon="2.42989">
        <ele>1356.6</ele>
        <time>2022-05-21 21:00:51</time>
      </trkpt>
      <trkpt lat="42.36731" lon="2.42991">
        <ele>1355.8</ele>
        <time>2022-05-21 21:00:52</time>
      </trkpt>
      <trkpt lat="42.36719" lon="2.4299">
        <ele>1355.2</ele>
        <time>2022-05-21 21:00:53</time>
      </trkpt>
      <trkpt lat="42.36707" lon="2.42987">
        <ele>1354.2</ele>
        <time>2022-05-21 21:00:54</time>
      </trkpt>
      <trkpt lat="42.36696" lon="2.42981">
        <ele>1353.4</ele>
        <time>2022-05-21 21:00:55</time>
      </trkpt>
      <trkpt lat="42.36686" lon="2.42972">
        <ele>1352.6</ele>
        <time>2022-05-21 21:00:56</time>
      </trkpt>
      <trkpt lat="42.36677" lon="2.42961">
        <ele>1351.8</ele>
        <time>2022-05-21 21:00:57</time>
      </trkpt>
      <trkpt lat="42.36668" lon="2.42949">
        <ele>1351</ele>
        <time>2022-05-21 21:00:58</time>
      </trkpt>
      <trkpt lat="42.36658" lon="2.42938">
        <ele>1350.2</ele>
        <time>2022-05-21 21:00:59</time>
      </trkpt>
      <trkpt lat="42.36649" lon="2.42927">
        <ele>1349.4</ele>
        <time>2022-05-21 21:01:00</time>
      </trkpt>
      <trkpt lat="42.3664" lon="2.42915">
        <ele>1348.6</ele>
        <time>2022-05-21 21:01:01</time>
      </trkpt>
      <trkpt lat="42.36631" lon="2.42902">
        <ele>1348</ele>
        <time>2022-05-21 21:01:02</time>
      </trkpt>
      <trkpt lat="42.36623" lon="2.4289">
        <ele>1347.4</ele>
        <time>2022-05-21 21:01:03</time>
      </trkpt>
      <trkpt lat="42.36614" lon="2.42878">
        <ele>1346.8</ele>
        <time>2022-05-21 21:01:04</time>
      </trkpt>
      <trkpt lat="42.36605" lon="2.42866">
        <ele>1346.2</ele>
        <time>2022-05-21 21:01:05</time>
      </trkpt>
      <trkpt lat="42.36596" lon="2.42856">
        <ele>1345.6</ele>
        <time>2022-05-21 21:01:06</time>
      </trkpt>
      <trkpt lat="42.36585" lon="2.42847">
        <ele>1345</ele>
        <time>2022-05-21 21:01:07</time>
      </trkpt>
      <trkpt lat="42.36575" lon="2.42842">
        <ele>1344.4</ele>
        <time>2022-05-21 21:01:08</time>
      </trkpt>
      <trkpt lat="42.36564" lon="2.42841">
        <ele>1344</ele>
        <time>2022-05-21 21:01:09</time>
      </trkpt>
      <trkpt lat="42.36552" lon="2.42843">
        <ele>1343.4</ele>
        <time>2022-05-21 21:01:10</time>
      </trkpt>
      <trkpt lat="42.3654" lon="2.42849">
        <ele>1343</ele>
        <time>2022-05-21 21:01:11</time>
      </trkpt>
      <trkpt lat="42.3653" lon="2.42858">
        <ele>1342.8</ele>
        <time>2022-05-21 21:01:12</time>
      </trkpt>
      <trkpt lat="42.36521" lon="2.42869">
        <ele>1342.4</ele>
        <time>2022-05-21 21:01:13</time>
      </trkpt>
      <trkpt lat="42.36513" lon="2.42881">
        <ele>1342</ele>
        <time>2022-05-21 21:01:14</time>
      </trkpt>
      <trkpt lat="42.36504" lon="2.42893">
        <ele>1341.6</ele>
        <time>2022-05-21 21:01:15</time>
      </trkpt>
      <trkpt lat="42.36496" lon="2.42904">
        <ele>1341.2</ele>
        <time>2022-05-21 21:01:16</time>
      </trkpt>
      <trkpt lat="42.36487" lon="2.42913">
        <ele>1340.8</ele>
        <time>2022-05-21 21:01:17</time>
      </trkpt>
      <trkpt lat="42.36478" lon="2.4292">
        <ele>1340.4</ele>
        <time>2022-05-21 21:01:18</time>
      </trkpt>
      <trkpt lat="42.36468" lon="2.42926">
        <ele>1340</ele>
        <time>2022-05-21 21:01:19</time>
      </trkpt>
      <trkpt lat="42.36457" lon="2.42929">
        <ele>1339.8</ele>
        <time>2022-05-21 21:01:20</time>
      </trkpt>
      <trkpt lat="42.36447" lon="2.42931">
        <ele>1339.4</ele>
        <time>2022-05-21 21:01:21</time>
      </trkpt>
      <trkpt lat="42.36435" lon="2.42931">
        <ele>1339.2</ele>
        <time>2022-05-21 21:01:22</time>
      </trkpt>
      <trkpt lat="42.36423" lon="2.4293">
        <ele>1338.8</ele>
        <time>2022-05-21 21:01:23</time>
      </trkpt>
      <trkpt lat="42.36411" lon="2.42929">
        <ele>1338.6</ele>
        <time>2022-05-21 21:01:24</time>
      </trkpt>
      <trkpt lat="42.364" lon="2.42928">
        <ele>1338.2</ele>
        <time>2022-05-21 21:01:25</time>
      </trkpt>
      <trkpt lat="42.36389" lon="2.42927">
        <ele>1338</ele>
        <time>2022-05-21 21:01:26</time>
      </trkpt>
      <trkpt lat="42.36379" lon="2.42925">
        <ele>1337.6</ele>
        <time>2022-05-21 21:01:27</time>
      </trkpt>
      <trkpt lat="42.36368" lon="2.42924">
        <ele>1337.4</ele>
        <time>2022-05-21 21:01:28</time>
      </trkpt>
      <trkpt lat="42.36357" lon="2.42922">
        <ele>1337</ele>
        <time>2022-05-21 21:01:29</time>
      </trkpt>
      <trkpt lat="42.36346" lon="2.4292">
        <ele>1336.6</ele>
        <time>2022-05-21 21:01:30</time>
      </trkpt>
      <trkpt lat="42.36336" lon="2.42918">
        <ele>1336.4</ele>
        <time>2022-05-21 21:01:31</time>
      </trkpt>
      <trkpt lat="42.36325" lon="2.42915">
        <ele>1336</ele>
        <time>2022-05-21 21:01:32</time>
      </trkpt>
      <trkpt lat="42.36315" lon="2.42912">
        <ele>1335.8</ele>
        <time>2022-05-21 21:01:33</time>
      </trkpt>
      <trkpt lat="42.36305" lon="2.4291">
        <ele>1335.4</ele>
        <time>2022-05-21 21:01:34</time>
      </trkpt>
      <trkpt lat="42.36295" lon="2.42907">
        <ele>1335.2</ele>
        <time>2022-05-21 21:01:35</time>
      </trkpt>
      <trkpt lat="42.36285" lon="2.42904">
        <ele>1335</ele>
        <time>2022-05-21 21:01:36</time>
      </trkpt>
      <trkpt lat="42.36275" lon="2.42902">
        <ele>1334.6</ele>
        <time>2022-05-21 21:01:37</time>
      </trkpt>
      <trkpt lat="42.36265" lon="2.42899">
        <ele>1334.4</ele>
        <time>2022-05-21 21:01:38</time>
      </trkpt>
      <trkpt lat="42.36256" lon="2.42897">
        <ele>1334</ele>
        <time>2022-05-21 21:01:39</time>
      </trkpt>
      <trkpt lat="42.36245" lon="2.42895">
        <ele>1333.8</ele>
        <time>2022-05-21 21:01:40</time>
      </trkpt>
      <trkpt lat="42.36236" lon="2.42892">
        <ele>1333.4</ele>
        <time>2022-05-21 21:01:41</time>
      </trkpt>
      <trkpt lat="42.36227" lon="2.42888">
        <ele>1333</ele>
        <time>2022-05-21 21:01:42</time>
      </trkpt>
      <trkpt lat="42.36218" lon="2.42883">
        <ele>1332.6</ele>
        <time>2022-05-21 21:01:43</time>
      </trkpt>
      <trkpt lat="42.3621" lon="2.42876">
        <ele>1332.4</ele>
        <time>2022-05-21 21:01:44</time>
      </trkpt>
      <trkpt lat="42.36202" lon="2.42869">
        <ele>1332</ele>
        <time>2022-05-21 21:01:45</time>
      </trkpt>
      <trkpt lat="42.36195" lon="2.4286">
        <ele>1331.6</ele>
        <time>2022-05-21 21:01:46</time>
      </trkpt>
      <trkpt lat="42.36188" lon="2.4285">
        <ele>1331.4</ele>
        <time>2022-05-21 21:01:47</time>
      </trkpt>
      <trkpt lat="42.36182" lon="2.42839">
        <ele>1331</ele>
        <time>2022-05-21 21:01:48</time>
      </trkpt>
      <trkpt lat="42.36178" lon="2.42827">
        <ele>1330.6</ele>
        <time>2022-05-21 21:01:49</time>
      </trkpt>
      <trkpt lat="42.36174" lon="2.42814">
        <ele>1330.4</ele>
        <time>2022-05-21 21:01:50</time>
      </trkpt>
      <trkpt lat="42.36172" lon="2.428">
        <ele>1330</ele>
        <time>2022-05-21 21:01:51</time>
      </trkpt>
      <trkpt lat="42.36171" lon="2.42786">
        <ele>1329.6</ele>
        <time>2022-05-21 21:01:52</time>
      </trkpt>
      <trkpt lat="42.36171" lon="2.42773">
        <ele>1329.2</ele>
        <time>2022-05-21 21:01:53</time>
      </trkpt>
      <trkpt lat="42.36172" lon="2.42759">
        <ele>1328.6</ele>
        <time>2022-05-21 21:01:54</time>
      </trkpt>
      <trkpt lat="42.36175" lon="2.42746">
        <ele>1328</ele>
        <time>2022-05-21 21:01:55</time>
      </trkpt>
      <trkpt lat="42.36179" lon="2.42733">
        <ele>1327.4</ele>
        <time>2022-05-21 21:01:56</time>
      </trkpt>
      <trkpt lat="42.36184" lon="2.4272">
        <ele>1326.8</ele>
        <time>2022-05-21 21:01:57</time>
      </trkpt>
      <trkpt lat="42.3619" lon="2.42708">
        <ele>1326.2</ele>
        <time>2022-05-21 21:01:58</time>
      </trkpt>
      <trkpt lat="42.36196" lon="2.42695">
        <ele>1325.6</ele>
        <time>2022-05-21 21:01:59</time>
      </trkpt>
      <trkpt lat="42.36203" lon="2.42683">
        <ele>1325</ele>
        <time>2022-05-21 21:02:00</time>
      </trkpt>
      <trkpt lat="42.3621" lon="2.4267">
        <ele>1324.4</ele>
        <time>2022-05-21 21:02:01</time>
      </trkpt>
      <trkpt lat="42.36216" lon="2.42658">
        <ele>1323.8</ele>
        <time>2022-05-21 21:02:02</time>
      </trkpt>
      <trkpt lat="42.36223" lon="2.42645">
        <ele>1323.2</ele>
        <time>2022-05-21 21:02:03</time>
      </trkpt>
      <trkpt lat="42.3623" lon="2.42633">
        <ele>1322.4</ele>
        <time>2022-05-21 21:02:04</time>
      </trkpt>
      <trkpt lat="42.36237" lon="2.4262">
        <ele>1321.8</ele>
        <time>2022-05-21 21:02:05</time>
      </trkpt>
      <trkpt lat="42.36244" lon="2.42608">
        <ele>1321</ele>
        <time>2022-05-21 21:02:06</time>
      </trkpt>
      <trkpt lat="42.36251" lon="2.42594">
        <ele>1320.4</ele>
        <time>2022-05-21 21:02:07</time>
      </trkpt>
      <trkpt lat="42.36258" lon="2.42581">
        <ele>1319.6</ele>
        <time>2022-05-21 21:02:08</time>
      </trkpt>
      <trkpt lat="42.36265" lon="2.42568">
        <ele>1319</ele>
        <time>2022-05-21 21:02:09</time>
      </trkpt>
      <trkpt lat="42.3627" lon="2.42556">
        <ele>1318.2</ele>
        <time>2022-05-21 21:02:10</time>
      </trkpt>
      <trkpt lat="42.36274" lon="2.42542">
        <ele>1317.6</ele>
        <time>2022-05-21 21:02:11</time>
      </trkpt>
      <trkpt lat="42.36276" lon="2.42525">
        <ele>1316.8</ele>
        <time>2022-05-21 21:02:12</time>
      </trkpt>
      <trkpt lat="42.36277" lon="2.42509">
        <ele>1316</ele>
        <time>2022-05-21 21:02:13</time>
      </trkpt>
      <trkpt lat="42.36276" lon="2.42492">
        <ele>1315.2</ele>
        <time>2022-05-21 21:02:14</time>
      </trkpt>
      <trkpt lat="42.36272" lon="2.42477">
        <ele>1314.6</ele>
        <time>2022-05-21 21:02:15</time>
      </trkpt>
      <trkpt lat="42.36265" lon="2.42465">
        <ele>1313.8</ele>
        <time>2022-05-21 21:02:16</time>
      </trkpt>
      <trkpt lat="42.36257" lon="2.42455">
        <ele>1313.4</ele>
        <time>2022-05-21 21:02:17</time>
      </trkpt>
      <trkpt lat="42.36247" lon="2.42445">
        <ele>1312.8</ele>
        <time>2022-05-21 21:02:18</time>
      </trkpt>
      <trkpt lat="42.36236" lon="2.42439">
        <ele>1312</ele>
        <time>2022-05-21 21:02:19</time>
      </trkpt>
      <trkpt lat="42.36225" lon="2.42436">
        <ele>1311.4</ele>
        <time>2022-05-21 21:02:20</time>
      </trkpt>
      <trkpt lat="42.36215" lon="2.42434">
        <ele>1310.8</ele>
        <time>2022-05-21 21:02:21</time>
      </trkpt>
      <trkpt lat="42.36203" lon="2.42432">
        <ele>1310.2</ele>
        <time>2022-05-21 21:02:22</time>
      </trkpt>
      <trkpt lat="42.36191" lon="2.42431">
        <ele>1309.6</ele>
        <time>2022-05-21 21:02:23</time>
      </trkpt>
      <trkpt lat="42.36178" lon="2.4243">
        <ele>1308.8</ele>
        <time>2022-05-21 21:02:24</time>
      </trkpt>
      <trkpt lat="42.36166" lon="2.42429">
        <ele>1308.2</ele>
        <time>2022-05-21 21:02:25</time>
      </trkpt>
      <trkpt lat="42.36153" lon="2.42428">
        <ele>1307.6</ele>
        <time>2022-05-21 21:02:26</time>
      </trkpt>
      <trkpt lat="42.36141" lon="2.42428">
        <ele>1307</ele>
        <time>2022-05-21 21:02:27</time>
      </trkpt>
      <trkpt lat="42.3613" lon="2.42428">
        <ele>1306.2</ele>
        <time>2022-05-21 21:02:28</time>
      </trkpt>
      <trkpt lat="42.36118" lon="2.42428">
        <ele>1305.6</ele>
        <time>2022-05-21 21:02:29</time>
      </trkpt>
      <trkpt lat="42.36106" lon="2.42429">
        <ele>1305</ele>
        <time>2022-05-21 21:02:30</time>
      </trkpt>
      <trkpt lat="42.36093" lon="2.4243">
        <ele>1304.6</ele>
        <time>2022-05-21 21:02:31</time>
      </trkpt>
      <trkpt lat="42.36081" lon="2.4243">
        <ele>1303.8</ele>
        <time>2022-05-21 21:02:32</time>
      </trkpt>
      <trkpt lat="42.36069" lon="2.42426">
        <ele>1303.2</ele>
        <time>2022-05-21 21:02:33</time>
      </trkpt>
      <trkpt lat="42.36058" lon="2.4242">
        <ele>1302.4</ele>
        <time>2022-05-21 21:02:34</time>
      </trkpt>
      <trkpt lat="42.36049" lon="2.42412">
        <ele>1301.8</ele>
        <time>2022-05-21 21:02:35</time>
      </trkpt>
      <trkpt lat="42.36042" lon="2.42402">
        <ele>1301.2</ele>
        <time>2022-05-21 21:02:36</time>
      </trkpt>
      <trkpt lat="42.36035" lon="2.42387">
        <ele>1300.6</ele>
        <time>2022-05-21 21:02:37</time>
      </trkpt>
      <trkpt lat="42.36032" lon="2.4237">
        <ele>1300</ele>
        <time>2022-05-21 21:02:38</time>
      </trkpt>
      <trkpt lat="42.36033" lon="2.42354">
        <ele>1299.2</ele>
        <time>2022-05-21 21:02:39</time>
      </trkpt>
      <trkpt lat="42.36036" lon="2.42339">
        <ele>1298.4</ele>
        <time>2022-05-21 21:02:40</time>
      </trkpt>
      <trkpt lat="42.36041" lon="2.42324">
        <ele>1297.8</ele>
        <time>2022-05-21 21:02:41</time>
      </trkpt>
      <trkpt lat="42.36046" lon="2.4231">
        <ele>1297.2</ele>
        <time>2022-05-21 21:02:42</time>
      </trkpt>
      <trkpt lat="42.36053" lon="2.42298">
        <ele>1296.6</ele>
        <time>2022-05-21 21:02:43</time>
      </trkpt>
      <trkpt lat="42.36059" lon="2.42285">
        <ele>1296</ele>
        <time>2022-05-21 21:02:44</time>
      </trkpt>
      <trkpt lat="42.36065" lon="2.42272">
        <ele>1295.4</ele>
        <time>2022-05-21 21:02:45</time>
      </trkpt>
      <trkpt lat="42.36069" lon="2.42258">
        <ele>1294.6</ele>
        <time>2022-05-21 21:02:46</time>
      </trkpt>
      <trkpt lat="42.36072" lon="2.42243">
        <ele>1294</ele>
        <time>2022-05-21 21:02:47</time>
      </trkpt>
      <trkpt lat="42.36073" lon="2.42228">
        <ele>1293.4</ele>
        <time>2022-05-21 21:02:48</time>
      </trkpt>
      <trkpt lat="42.36071" lon="2.42213">
        <ele>1292.8</ele>
        <time>2022-05-21 21:02:49</time>
      </trkpt>
      <trkpt lat="42.36067" lon="2.42199">
        <ele>1292.2</ele>
        <time>2022-05-21 21:02:50</time>
      </trkpt>
      <trkpt lat="42.36062" lon="2.42185">
        <ele>1291.4</ele>
        <time>2022-05-21 21:02:51</time>
      </trkpt>
      <trkpt lat="42.36054" lon="2.42173">
        <ele>1290.8</ele>
        <time>2022-05-21 21:02:52</time>
      </trkpt>
      <trkpt lat="42.36045" lon="2.42163">
        <ele>1290.2</ele>
        <time>2022-05-21 21:02:53</time>
      </trkpt>
      <trkpt lat="42.36035" lon="2.42156">
        <ele>1289.6</ele>
        <time>2022-05-21 21:02:54</time>
      </trkpt>
      <trkpt lat="42.36025" lon="2.42149">
        <ele>1288.8</ele>
        <time>2022-05-21 21:02:55</time>
      </trkpt>
      <trkpt lat="42.36014" lon="2.42143">
        <ele>1288</ele>
        <time>2022-05-21 21:02:56</time>
      </trkpt>
      <trkpt lat="42.36002" lon="2.42137">
        <ele>1287.2</ele>
        <time>2022-05-21 21:02:57</time>
      </trkpt>
      <trkpt lat="42.3599" lon="2.4213">
        <ele>1286.4</ele>
        <time>2022-05-21 21:02:58</time>
      </trkpt>
      <trkpt lat="42.35979" lon="2.42123">
        <ele>1285.6</ele>
        <time>2022-05-21 21:02:59</time>
      </trkpt>
      <trkpt lat="42.35969" lon="2.42115">
        <ele>1284.8</ele>
        <time>2022-05-21 21:03:00</time>
      </trkpt>
      <trkpt lat="42.35958" lon="2.42106">
        <ele>1284</ele>
        <time>2022-05-21 21:03:01</time>
      </trkpt>
      <trkpt lat="42.35948" lon="2.42097">
        <ele>1283.2</ele>
        <time>2022-05-21 21:03:02</time>
      </trkpt>
      <trkpt lat="42.35937" lon="2.42089">
        <ele>1282.4</ele>
        <time>2022-05-21 21:03:03</time>
      </trkpt>
      <trkpt lat="42.35926" lon="2.4208">
        <ele>1281.8</ele>
        <time>2022-05-21 21:03:04</time>
      </trkpt>
      <trkpt lat="42.35914" lon="2.42074">
        <ele>1281</ele>
        <time>2022-05-21 21:03:05</time>
      </trkpt>
      <trkpt lat="42.35903" lon="2.42071">
        <ele>1280.4</ele>
        <time>2022-05-21 21:03:06</time>
      </trkpt>
      <trkpt lat="42.35892" lon="2.42071">
        <ele>1279.6</ele>
        <time>2022-05-21 21:03:07</time>
      </trkpt>
      <trkpt lat="42.3588" lon="2.42074">
        <ele>1278.8</ele>
        <time>2022-05-21 21:03:08</time>
      </trkpt>
      <trkpt lat="42.35867" lon="2.42078">
        <ele>1278</ele>
        <time>2022-05-21 21:03:09</time>
      </trkpt>
      <trkpt lat="42.35854" lon="2.42079">
        <ele>1277</ele>
        <time>2022-05-21 21:03:10</time>
      </trkpt>
      <trkpt lat="42.35841" lon="2.42078">
        <ele>1276.2</ele>
        <time>2022-05-21 21:03:11</time>
      </trkpt>
      <trkpt lat="42.35828" lon="2.42073">
        <ele>1275.2</ele>
        <time>2022-05-21 21:03:12</time>
      </trkpt>
      <trkpt lat="42.35816" lon="2.42065">
        <ele>1274.4</ele>
        <time>2022-05-21 21:03:13</time>
      </trkpt>
      <trkpt lat="42.35805" lon="2.42053">
        <ele>1273.4</ele>
        <time>2022-05-21 21:03:14</time>
      </trkpt>
      <trkpt lat="42.35796" lon="2.42039">
        <ele>1272.8</ele>
        <time>2022-05-21 21:03:15</time>
      </trkpt>
      <trkpt lat="42.35786" lon="2.42026">
        <ele>1272</ele>
        <time>2022-05-21 21:03:16</time>
      </trkpt>
      <trkpt lat="42.35776" lon="2.42012">
        <ele>1271</ele>
        <time>2022-05-21 21:03:17</time>
      </trkpt>
      <trkpt lat="42.35766" lon="2.41999">
        <ele>1270.2</ele>
        <time>2022-05-21 21:03:18</time>
      </trkpt>
      <trkpt lat="42.35757" lon="2.41986">
        <ele>1269.4</ele>
        <time>2022-05-21 21:03:19</time>
      </trkpt>
      <trkpt lat="42.35748" lon="2.41973">
        <ele>1268.8</ele>
        <time>2022-05-21 21:03:20</time>
      </trkpt>
      <trkpt lat="42.3574" lon="2.4196">
        <ele>1268.2</ele>
        <time>2022-05-21 21:03:21</time>
      </trkpt>
      <trkpt lat="42.35731" lon="2.41946">
        <ele>1267.4</ele>
        <time>2022-05-21 21:03:22</time>
      </trkpt>
      <trkpt lat="42.35723" lon="2.41933">
        <ele>1266.8</ele>
        <time>2022-05-21 21:03:23</time>
      </trkpt>
      <trkpt lat="42.35715" lon="2.4192">
        <ele>1266.2</ele>
        <time>2022-05-21 21:03:24</time>
      </trkpt>
      <trkpt lat="42.35706" lon="2.41906">
        <ele>1265.4</ele>
        <time>2022-05-21 21:03:25</time>
      </trkpt>
      <trkpt lat="42.35698" lon="2.41893">
        <ele>1264.8</ele>
        <time>2022-05-21 21:03:26</time>
      </trkpt>
      <trkpt lat="42.35689" lon="2.4188">
        <ele>1264.2</ele>
        <time>2022-05-21 21:03:27</time>
      </trkpt>
      <trkpt lat="42.35681" lon="2.41866">
        <ele>1263.4</ele>
        <time>2022-05-21 21:03:28</time>
      </trkpt>
      <trkpt lat="42.35673" lon="2.41853">
        <ele>1262.6</ele>
        <time>2022-05-21 21:03:29</time>
      </trkpt>
      <trkpt lat="42.35664" lon="2.4184">
        <ele>1262</ele>
        <time>2022-05-21 21:03:30</time>
      </trkpt>
      <trkpt lat="42.35655" lon="2.41828">
        <ele>1261.4</ele>
        <time>2022-05-21 21:03:31</time>
      </trkpt>
      <trkpt lat="42.35645" lon="2.41817">
        <ele>1260.8</ele>
        <time>2022-05-21 21:03:32</time>
      </trkpt>
      <trkpt lat="42.35634" lon="2.41808">
        <ele>1260.2</ele>
        <time>2022-05-21 21:03:33</time>
      </trkpt>
      <trkpt lat="42.35624" lon="2.41799">
        <ele>1259.8</ele>
        <time>2022-05-21 21:03:34</time>
      </trkpt>
      <trkpt lat="42.35614" lon="2.4179">
        <ele>1259.2</ele>
        <time>2022-05-21 21:03:35</time>
      </trkpt>
      <trkpt lat="42.35604" lon="2.41782">
        <ele>1258.8</ele>
        <time>2022-05-21 21:03:36</time>
      </trkpt>
      <trkpt lat="42.35594" lon="2.41774">
        <ele>1258.4</ele>
        <time>2022-05-21 21:03:37</time>
      </trkpt>
      <trkpt lat="42.35582" lon="2.41765">
        <ele>1257.8</ele>
        <time>2022-05-21 21:03:38</time>
      </trkpt>
      <trkpt lat="42.35572" lon="2.41757">
        <ele>1257.4</ele>
        <time>2022-05-21 21:03:39</time>
      </trkpt>
      <trkpt lat="42.35562" lon="2.41749">
        <ele>1257</ele>
        <time>2022-05-21 21:03:40</time>
      </trkpt>
      <trkpt lat="42.35551" lon="2.41741">
        <ele>1256.6</ele>
        <time>2022-05-21 21:03:41</time>
      </trkpt>
      <trkpt lat="42.35542" lon="2.41733">
        <ele>1256.2</ele>
        <time>2022-05-21 21:03:42</time>
      </trkpt>
      <trkpt lat="42.35532" lon="2.41725">
        <ele>1255.6</ele>
        <time>2022-05-21 21:03:43</time>
      </trkpt>
      <trkpt lat="42.35522" lon="2.41717">
        <ele>1255.2</ele>
        <time>2022-05-21 21:03:44</time>
      </trkpt>
      <trkpt lat="42.35512" lon="2.41708">
        <ele>1254.8</ele>
        <time>2022-05-21 21:03:45</time>
      </trkpt>
      <trkpt lat="42.35502" lon="2.41699">
        <ele>1254.4</ele>
        <time>2022-05-21 21:03:46</time>
      </trkpt>
      <trkpt lat="42.35494" lon="2.41687">
        <ele>1254</ele>
        <time>2022-05-21 21:03:47</time>
      </trkpt>
      <trkpt lat="42.35487" lon="2.41676">
        <ele>1253.6</ele>
        <time>2022-05-21 21:03:48</time>
      </trkpt>
      <trkpt lat="42.35483" lon="2.41667">
        <ele>1253.2</ele>
        <time>2022-05-21 21:03:49</time>
      </trkpt>
      <trkpt lat="42.35478" lon="2.41643">
        <ele>1252.8</ele>
        <time>2022-05-21 21:03:50</time>
      </trkpt>
      <trkpt lat="42.35475" lon="2.41628">
        <ele>1252.4</ele>
        <time>2022-05-21 21:03:51</time>
      </trkpt>
      <trkpt lat="42.35472" lon="2.41614">
        <ele>1252.2</ele>
        <time>2022-05-21 21:03:52</time>
      </trkpt>
      <trkpt lat="42.35467" lon="2.41601">
        <ele>1251.8</ele>
        <time>2022-05-21 21:03:53</time>
      </trkpt>
      <trkpt lat="42.35461" lon="2.4159">
        <ele>1251.4</ele>
        <time>2022-05-21 21:03:54</time>
      </trkpt>
      <trkpt lat="42.35452" lon="2.41578">
        <ele>1251</ele>
        <time>2022-05-21 21:03:55</time>
      </trkpt>
      <trkpt lat="42.35443" lon="2.41569">
        <ele>1250.8</ele>
        <time>2022-05-21 21:03:56</time>
      </trkpt>
      <trkpt lat="42.35433" lon="2.41562">
        <ele>1250.4</ele>
        <time>2022-05-21 21:03:57</time>
      </trkpt>
      <trkpt lat="42.35423" lon="2.41557">
        <ele>1250</ele>
        <time>2022-05-21 21:03:58</time>
      </trkpt>
      <trkpt lat="42.35412" lon="2.41552">
        <ele>1249.6</ele>
        <time>2022-05-21 21:03:59</time>
      </trkpt>
      <trkpt lat="42.35402" lon="2.41549">
        <ele>1249.2</ele>
        <time>2022-05-21 21:04:00</time>
      </trkpt>
      <trkpt lat="42.35392" lon="2.41545">
        <ele>1248.8</ele>
        <time>2022-05-21 21:04:01</time>
      </trkpt>
      <trkpt lat="42.35382" lon="2.4154">
        <ele>1248.4</ele>
        <time>2022-05-21 21:04:02</time>
      </trkpt>
      <trkpt lat="42.35372" lon="2.41533">
        <ele>1248</ele>
        <time>2022-05-21 21:04:03</time>
      </trkpt>
      <trkpt lat="42.35363" lon="2.41525">
        <ele>1247.4</ele>
        <time>2022-05-21 21:04:04</time>
      </trkpt>
      <trkpt lat="42.35355" lon="2.41514">
        <ele>1247</ele>
        <time>2022-05-21 21:04:05</time>
      </trkpt>
      <trkpt lat="42.35349" lon="2.41501">
        <ele>1246.4</ele>
        <time>2022-05-21 21:04:06</time>
      </trkpt>
      <trkpt lat="42.35344" lon="2.41486">
        <ele>1246</ele>
        <time>2022-05-21 21:04:07</time>
      </trkpt>
      <trkpt lat="42.3534" lon="2.4147">
        <ele>1245.4</ele>
        <time>2022-05-21 21:04:08</time>
      </trkpt>
      <trkpt lat="42.35339" lon="2.41455">
        <ele>1244.8</ele>
        <time>2022-05-21 21:04:09</time>
      </trkpt>
      <trkpt lat="42.35339" lon="2.4144">
        <ele>1244.4</ele>
        <time>2022-05-21 21:04:10</time>
      </trkpt>
      <trkpt lat="42.35342" lon="2.41427">
        <ele>1243.8</ele>
        <time>2022-05-21 21:04:11</time>
      </trkpt>
      <trkpt lat="42.35346" lon="2.41413">
        <ele>1243.2</ele>
        <time>2022-05-21 21:04:12</time>
      </trkpt>
      <trkpt lat="42.3535" lon="2.41401">
        <ele>1242.8</ele>
        <time>2022-05-21 21:04:13</time>
      </trkpt>
      <trkpt lat="42.35355" lon="2.4139">
        <ele>1242.4</ele>
        <time>2022-05-21 21:04:14</time>
      </trkpt>
      <trkpt lat="42.35359" lon="2.4138">
        <ele>1242</ele>
        <time>2022-05-21 21:04:15</time>
      </trkpt>
      <trkpt lat="42.35363" lon="2.41372">
        <ele>1241.8</ele>
        <time>2022-05-21 21:04:16</time>
      </trkpt>
      <trkpt lat="42.35366" lon="2.41364">
        <ele>1241.4</ele>
        <time>2022-05-21 21:04:17</time>
      </trkpt>
      <trkpt lat="42.35369" lon="2.41357">
        <ele>1241.2</ele>
        <time>2022-05-21 21:04:18</time>
      </trkpt>
      <trkpt lat="42.35371" lon="2.41351">
        <ele>1241</ele>
        <time>2022-05-21 21:04:19</time>
      </trkpt>
      <trkpt lat="42.35373" lon="2.41344">
        <ele>1240.6</ele>
        <time>2022-05-21 21:04:20</time>
      </trkpt>
      <trkpt lat="42.35375" lon="2.41337">
        <ele>1240.2</ele>
        <time>2022-05-21 21:04:21</time>
      </trkpt>
      <trkpt lat="42.35378" lon="2.41329">
        <ele>1240</ele>
        <time>2022-05-21 21:04:22</time>
      </trkpt>
      <trkpt lat="42.35381" lon="2.41321">
        <ele>1239.6</ele>
        <time>2022-05-21 21:04:23</time>
      </trkpt>
      <trkpt lat="42.35384" lon="2.41313">
        <ele>1239.2</ele>
        <time>2022-05-21 21:04:24</time>
      </trkpt>
      <trkpt lat="42.35387" lon="2.41304">
        <ele>1238.8</ele>
        <time>2022-05-21 21:04:25</time>
      </trkpt>
      <trkpt lat="42.35389" lon="2.41295">
        <ele>1238.4</ele>
        <time>2022-05-21 21:04:26</time>
      </trkpt>
      <trkpt lat="42.35391" lon="2.41285">
        <ele>1238</ele>
        <time>2022-05-21 21:04:27</time>
      </trkpt>
      <trkpt lat="42.35391" lon="2.41275">
        <ele>1237.6</ele>
        <time>2022-05-21 21:04:28</time>
      </trkpt>
      <trkpt lat="42.35391" lon="2.41264">
        <ele>1237</ele>
        <time>2022-05-21 21:04:29</time>
      </trkpt>
      <trkpt lat="42.3539" lon="2.41253">
        <ele>1236.4</ele>
        <time>2022-05-21 21:04:30</time>
      </trkpt>
      <trkpt lat="42.35389" lon="2.41241">
        <ele>1236</ele>
        <time>2022-05-21 21:04:31</time>
      </trkpt>
      <trkpt lat="42.35387" lon="2.4123">
        <ele>1235.6</ele>
        <time>2022-05-21 21:04:32</time>
      </trkpt>
      <trkpt lat="42.35386" lon="2.41218">
        <ele>1235</ele>
        <time>2022-05-21 21:04:33</time>
      </trkpt>
      <trkpt lat="42.35385" lon="2.41206">
        <ele>1234.6</ele>
        <time>2022-05-21 21:04:34</time>
      </trkpt>
      <trkpt lat="42.35385" lon="2.41193">
        <ele>1234</ele>
        <time>2022-05-21 21:04:35</time>
      </trkpt>
      <trkpt lat="42.35385" lon="2.41181">
        <ele>1233.6</ele>
        <time>2022-05-21 21:04:36</time>
      </trkpt>
      <trkpt lat="42.35387" lon="2.41168">
        <ele>1233</ele>
        <time>2022-05-21 21:04:37</time>
      </trkpt>
      <trkpt lat="42.3539" lon="2.41156">
        <ele>1232.4</ele>
        <time>2022-05-21 21:04:38</time>
      </trkpt>
      <trkpt lat="42.35394" lon="2.41144">
        <ele>1232</ele>
        <time>2022-05-21 21:04:39</time>
      </trkpt>
      <trkpt lat="42.35399" lon="2.41132">
        <ele>1231.4</ele>
        <time>2022-05-21 21:04:40</time>
      </trkpt>
      <trkpt lat="42.35403" lon="2.4112">
        <ele>1230.8</ele>
        <time>2022-05-21 21:04:41</time>
      </trkpt>
      <trkpt lat="42.35407" lon="2.41109">
        <ele>1230.4</ele>
        <time>2022-05-21 21:04:42</time>
      </trkpt>
      <trkpt lat="42.35411" lon="2.411">
        <ele>1229.8</ele>
        <time>2022-05-21 21:04:43</time>
      </trkpt>
      <trkpt lat="42.35418" lon="2.41092">
        <ele>1229.2</ele>
        <time>2022-05-21 21:04:44</time>
      </trkpt>
      <trkpt lat="42.35429" lon="2.41084">
        <ele>1228.8</ele>
        <time>2022-05-21 21:04:45</time>
      </trkpt>
      <trkpt lat="42.35438" lon="2.4108">
        <ele>1228.2</ele>
        <time>2022-05-21 21:04:46</time>
      </trkpt>
      <trkpt lat="42.35448" lon="2.41076">
        <ele>1227.6</ele>
        <time>2022-05-21 21:04:47</time>
      </trkpt>
      <trkpt lat="42.35458" lon="2.41073">
        <ele>1227</ele>
        <time>2022-05-21 21:04:48</time>
      </trkpt>
      <trkpt lat="42.35467" lon="2.41071">
        <ele>1226.4</ele>
        <time>2022-05-21 21:04:49</time>
      </trkpt>
      <trkpt lat="42.35477" lon="2.41069">
        <ele>1225.8</ele>
        <time>2022-05-21 21:04:50</time>
      </trkpt>
      <trkpt lat="42.35486" lon="2.41068">
        <ele>1225.2</ele>
        <time>2022-05-21 21:04:51</time>
      </trkpt>
      <trkpt lat="42.35492" lon="2.41066">
        <ele>1224.6</ele>
        <time>2022-05-21 21:04:52</time>
      </trkpt>
      <trkpt lat="42.35508" lon="2.41062">
        <ele>1223.8</ele>
        <time>2022-05-21 21:04:53</time>
      </trkpt>
      <trkpt lat="42.35518" lon="2.4106">
        <ele>1223.2</ele>
        <time>2022-05-21 21:04:54</time>
      </trkpt>
      <trkpt lat="42.3553" lon="2.41058">
        <ele>1222.4</ele>
        <time>2022-05-21 21:04:55</time>
      </trkpt>
      <trkpt lat="42.35541" lon="2.41057">
        <ele>1221.8</ele>
        <time>2022-05-21 21:04:56</time>
      </trkpt>
      <trkpt lat="42.35552" lon="2.41055">
        <ele>1221</ele>
        <time>2022-05-21 21:04:57</time>
      </trkpt>
      <trkpt lat="42.35563" lon="2.41054">
        <ele>1220.4</ele>
        <time>2022-05-21 21:04:58</time>
      </trkpt>
      <trkpt lat="42.35574" lon="2.41052">
        <ele>1219.8</ele>
        <time>2022-05-21 21:04:59</time>
      </trkpt>
      <trkpt lat="42.35585" lon="2.41051">
        <ele>1219.2</ele>
        <time>2022-05-21 21:05:00</time>
      </trkpt>
      <trkpt lat="42.35597" lon="2.4105">
        <ele>1218.4</ele>
        <time>2022-05-21 21:05:01</time>
      </trkpt>
      <trkpt lat="42.35608" lon="2.41049">
        <ele>1217.8</ele>
        <time>2022-05-21 21:05:02</time>
      </trkpt>
      <trkpt lat="42.3562" lon="2.41049">
        <ele>1217.2</ele>
        <time>2022-05-21 21:05:03</time>
      </trkpt>
      <trkpt lat="42.35632" lon="2.41049">
        <ele>1216.4</ele>
        <time>2022-05-21 21:05:04</time>
      </trkpt>
      <trkpt lat="42.35644" lon="2.41048">
        <ele>1215.8</ele>
        <time>2022-05-21 21:05:05</time>
      </trkpt>
      <trkpt lat="42.35655" lon="2.41048">
        <ele>1215.2</ele>
        <time>2022-05-21 21:05:06</time>
      </trkpt>
      <trkpt lat="42.35666" lon="2.41048">
        <ele>1214.6</ele>
        <time>2022-05-21 21:05:07</time>
      </trkpt>
      <trkpt lat="42.35678" lon="2.41048">
        <ele>1213.8</ele>
        <time>2022-05-21 21:05:08</time>
      </trkpt>
      <trkpt lat="42.3569" lon="2.4105">
        <ele>1213.2</ele>
        <time>2022-05-21 21:05:09</time>
      </trkpt>
      <trkpt lat="42.35704" lon="2.4105">
        <ele>1212.6</ele>
        <time>2022-05-21 21:05:10</time>
      </trkpt>
      <trkpt lat="42.35717" lon="2.4105">
        <ele>1211.8</ele>
        <time>2022-05-21 21:05:11</time>
      </trkpt>
      <trkpt lat="42.35729" lon="2.41049">
        <ele>1211.2</ele>
        <time>2022-05-21 21:05:12</time>
      </trkpt>
      <trkpt lat="42.3574" lon="2.41046">
        <ele>1210.4</ele>
        <time>2022-05-21 21:05:13</time>
      </trkpt>
      <trkpt lat="42.35752" lon="2.41041">
        <ele>1209.8</ele>
        <time>2022-05-21 21:05:14</time>
      </trkpt>
      <trkpt lat="42.35765" lon="2.41035">
        <ele>1209</ele>
        <time>2022-05-21 21:05:15</time>
      </trkpt>
      <trkpt lat="42.35778" lon="2.41029">
        <ele>1208.4</ele>
        <time>2022-05-21 21:05:16</time>
      </trkpt>
      <trkpt lat="42.3579" lon="2.41022">
        <ele>1207.6</ele>
        <time>2022-05-21 21:05:17</time>
      </trkpt>
      <trkpt lat="42.35802" lon="2.41015">
        <ele>1207</ele>
        <time>2022-05-21 21:05:18</time>
      </trkpt>
      <trkpt lat="42.35814" lon="2.41009">
        <ele>1206.2</ele>
        <time>2022-05-21 21:05:19</time>
      </trkpt>
      <trkpt lat="42.35826" lon="2.41004">
        <ele>1205.6</ele>
        <time>2022-05-21 21:05:20</time>
      </trkpt>
      <trkpt lat="42.35837" lon="2.41001">
        <ele>1205</ele>
        <time>2022-05-21 21:05:21</time>
      </trkpt>
      <trkpt lat="42.35849" lon="2.40999">
        <ele>1204.4</ele>
        <time>2022-05-21 21:05:22</time>
      </trkpt>
      <trkpt lat="42.35861" lon="2.40997">
        <ele>1204</ele>
        <time>2022-05-21 21:05:23</time>
      </trkpt>
      <trkpt lat="42.35875" lon="2.40995">
        <ele>1203.6</ele>
        <time>2022-05-21 21:05:24</time>
      </trkpt>
      <trkpt lat="42.35887" lon="2.40993">
        <ele>1203.2</ele>
        <time>2022-05-21 21:05:25</time>
      </trkpt>
      <trkpt lat="42.35898" lon="2.40991">
        <ele>1203</ele>
        <time>2022-05-21 21:05:26</time>
      </trkpt>
      <trkpt lat="42.35908" lon="2.4099">
        <ele>1202.6</ele>
        <time>2022-05-21 21:05:27</time>
      </trkpt>
      <trkpt lat="42.35919" lon="2.4099">
        <ele>1202.2</ele>
        <time>2022-05-21 21:05:28</time>
      </trkpt>
      <trkpt lat="42.3593" lon="2.40991">
        <ele>1201.8</ele>
        <time>2022-05-21 21:05:29</time>
      </trkpt>
      <trkpt lat="42.35939" lon="2.40993">
        <ele>1201.4</ele>
        <time>2022-05-21 21:05:30</time>
      </trkpt>
      <trkpt lat="42.35949" lon="2.40995">
        <ele>1201</ele>
        <time>2022-05-21 21:05:31</time>
      </trkpt>
      <trkpt lat="42.35959" lon="2.40998">
        <ele>1200.8</ele>
        <time>2022-05-21 21:05:32</time>
      </trkpt>
      <trkpt lat="42.35969" lon="2.40998">
        <ele>1200.4</ele>
        <time>2022-05-21 21:05:33</time>
      </trkpt>
      <trkpt lat="42.35976" lon="2.40995">
        <ele>1200.2</ele>
        <time>2022-05-21 21:05:34</time>
      </trkpt>
      <trkpt lat="42.35983" lon="2.4099">
        <ele>1200</ele>
        <time>2022-05-21 21:05:35</time>
      </trkpt>
      <trkpt lat="42.3599" lon="2.40981">
        <ele>1199.6</ele>
        <time>2022-05-21 21:05:36</time>
      </trkpt>
      <trkpt lat="42.35994" lon="2.40971">
        <ele>1199.4</ele>
        <time>2022-05-21 21:05:37</time>
      </trkpt>
      <trkpt lat="42.35997" lon="2.40959">
        <ele>1199</ele>
        <time>2022-05-21 21:05:38</time>
      </trkpt>
      <trkpt lat="42.35998" lon="2.40947">
        <ele>1198.8</ele>
        <time>2022-05-21 21:05:39</time>
      </trkpt>
      <trkpt lat="42.36001" lon="2.40934">
        <ele>1198.4</ele>
        <time>2022-05-21 21:05:40</time>
      </trkpt>
      <trkpt lat="42.36003" lon="2.40921">
        <ele>1197.8</ele>
        <time>2022-05-21 21:05:41</time>
      </trkpt>
      <trkpt lat="42.36006" lon="2.40909">
        <ele>1197.4</ele>
        <time>2022-05-21 21:05:42</time>
      </trkpt>
      <trkpt lat="42.3601" lon="2.40898">
        <ele>1197</ele>
        <time>2022-05-21 21:05:43</time>
      </trkpt>
      <trkpt lat="42.36017" lon="2.40888">
        <ele>1196.4</ele>
        <time>2022-05-21 21:05:44</time>
      </trkpt>
      <trkpt lat="42.36025" lon="2.4088">
        <ele>1196</ele>
        <time>2022-05-21 21:05:45</time>
      </trkpt>
      <trkpt lat="42.36034" lon="2.40872">
        <ele>1195.6</ele>
        <time>2022-05-21 21:05:46</time>
      </trkpt>
      <trkpt lat="42.36042" lon="2.40862">
        <ele>1195.2</ele>
        <time>2022-05-21 21:05:47</time>
      </trkpt>
      <trkpt lat="42.3605" lon="2.40853">
        <ele>1194.6</ele>
        <time>2022-05-21 21:05:48</time>
      </trkpt>
      <trkpt lat="42.36056" lon="2.40842">
        <ele>1194</ele>
        <time>2022-05-21 21:05:49</time>
      </trkpt>
      <trkpt lat="42.36064" lon="2.4083">
        <ele>1193.4</ele>
        <time>2022-05-21 21:05:50</time>
      </trkpt>
      <trkpt lat="42.36071" lon="2.40819">
        <ele>1192.8</ele>
        <time>2022-05-21 21:05:51</time>
      </trkpt>
      <trkpt lat="42.36078" lon="2.4081">
        <ele>1192.2</ele>
        <time>2022-05-21 21:05:52</time>
      </trkpt>
      <trkpt lat="42.36086" lon="2.408">
        <ele>1191.6</ele>
        <time>2022-05-21 21:05:53</time>
      </trkpt>
      <trkpt lat="42.36094" lon="2.40789">
        <ele>1191</ele>
        <time>2022-05-21 21:05:54</time>
      </trkpt>
      <trkpt lat="42.36102" lon="2.40778">
        <ele>1190.4</ele>
        <time>2022-05-21 21:05:55</time>
      </trkpt>
      <trkpt lat="42.3611" lon="2.40769">
        <ele>1189.6</ele>
        <time>2022-05-21 21:05:56</time>
      </trkpt>
      <trkpt lat="42.36119" lon="2.40759">
        <ele>1188.8</ele>
        <time>2022-05-21 21:05:57</time>
      </trkpt>
      <trkpt lat="42.36128" lon="2.40752">
        <ele>1188</ele>
        <time>2022-05-21 21:05:58</time>
      </trkpt>
      <trkpt lat="42.36138" lon="2.40745">
        <ele>1187.2</ele>
        <time>2022-05-21 21:05:59</time>
      </trkpt>
      <trkpt lat="42.36149" lon="2.40739">
        <ele>1186.6</ele>
        <time>2022-05-21 21:06:00</time>
      </trkpt>
      <trkpt lat="42.3616" lon="2.40733">
        <ele>1186</ele>
        <time>2022-05-21 21:06:01</time>
      </trkpt>
      <trkpt lat="42.3617" lon="2.40727">
        <ele>1185.4</ele>
        <time>2022-05-21 21:06:02</time>
      </trkpt>
      <trkpt lat="42.36181" lon="2.40721">
        <ele>1184.6</ele>
        <time>2022-05-21 21:06:03</time>
      </trkpt>
      <trkpt lat="42.36192" lon="2.40714">
        <ele>1184</ele>
        <time>2022-05-21 21:06:04</time>
      </trkpt>
      <trkpt lat="42.36202" lon="2.40707">
        <ele>1183.4</ele>
        <time>2022-05-21 21:06:05</time>
      </trkpt>
      <trkpt lat="42.36212" lon="2.407">
        <ele>1182.8</ele>
        <time>2022-05-21 21:06:06</time>
      </trkpt>
      <trkpt lat="42.36221" lon="2.40691">
        <ele>1182.2</ele>
        <time>2022-05-21 21:06:07</time>
      </trkpt>
      <trkpt lat="42.3623" lon="2.40683">
        <ele>1181.6</ele>
        <time>2022-05-21 21:06:08</time>
      </trkpt>
      <trkpt lat="42.3624" lon="2.40673">
        <ele>1181.2</ele>
        <time>2022-05-21 21:06:09</time>
      </trkpt>
      <trkpt lat="42.36249" lon="2.40664">
        <ele>1180.6</ele>
        <time>2022-05-21 21:06:10</time>
      </trkpt>
      <trkpt lat="42.36258" lon="2.40655">
        <ele>1180</ele>
        <time>2022-05-21 21:06:11</time>
      </trkpt>
      <trkpt lat="42.36267" lon="2.40646">
        <ele>1179.4</ele>
        <time>2022-05-21 21:06:12</time>
      </trkpt>
      <trkpt lat="42.36277" lon="2.40636">
        <ele>1178.8</ele>
        <time>2022-05-21 21:06:13</time>
      </trkpt>
      <trkpt lat="42.36285" lon="2.40627">
        <ele>1178.2</ele>
        <time>2022-05-21 21:06:14</time>
      </trkpt>
      <trkpt lat="42.36295" lon="2.40617">
        <ele>1177.6</ele>
        <time>2022-05-21 21:06:15</time>
      </trkpt>
      <trkpt lat="42.36304" lon="2.40608">
        <ele>1177.2</ele>
        <time>2022-05-21 21:06:16</time>
      </trkpt>
      <trkpt lat="42.36313" lon="2.40599">
        <ele>1176.6</ele>
        <time>2022-05-21 21:06:17</time>
      </trkpt>
      <trkpt lat="42.36322" lon="2.40589">
        <ele>1176</ele>
        <time>2022-05-21 21:06:18</time>
      </trkpt>
      <trkpt lat="42.36331" lon="2.40579">
        <ele>1175.4</ele>
        <time>2022-05-21 21:06:19</time>
      </trkpt>
      <trkpt lat="42.36339" lon="2.4057">
        <ele>1174.8</ele>
        <time>2022-05-21 21:06:20</time>
      </trkpt>
      <trkpt lat="42.3635" lon="2.40559">
        <ele>1174.2</ele>
        <time>2022-05-21 21:06:21</time>
      </trkpt>
      <trkpt lat="42.36359" lon="2.4055">
        <ele>1173.4</ele>
        <time>2022-05-21 21:06:22</time>
      </trkpt>
      <trkpt lat="42.36369" lon="2.40542">
        <ele>1172.8</ele>
        <time>2022-05-21 21:06:23</time>
      </trkpt>
      <trkpt lat="42.36379" lon="2.40535">
        <ele>1172.2</ele>
        <time>2022-05-21 21:06:24</time>
      </trkpt>
      <trkpt lat="42.3639" lon="2.4053">
        <ele>1171.6</ele>
        <time>2022-05-21 21:06:25</time>
      </trkpt>
      <trkpt lat="42.364" lon="2.40525">
        <ele>1171</ele>
        <time>2022-05-21 21:06:26</time>
      </trkpt>
      <trkpt lat="42.36411" lon="2.40522">
        <ele>1170.4</ele>
        <time>2022-05-21 21:06:27</time>
      </trkpt>
      <trkpt lat="42.36422" lon="2.4052">
        <ele>1170</ele>
        <time>2022-05-21 21:06:28</time>
      </trkpt>
      <trkpt lat="42.36432" lon="2.4052">
        <ele>1169.4</ele>
        <time>2022-05-21 21:06:29</time>
      </trkpt>
      <trkpt lat="42.36442" lon="2.40521">
        <ele>1168.8</ele>
        <time>2022-05-21 21:06:30</time>
      </trkpt>
      <trkpt lat="42.36453" lon="2.40524">
        <ele>1168.4</ele>
        <time>2022-05-21 21:06:31</time>
      </trkpt>
      <trkpt lat="42.36463" lon="2.40528">
        <ele>1167.8</ele>
        <time>2022-05-21 21:06:32</time>
      </trkpt>
      <trkpt lat="42.36472" lon="2.40534">
        <ele>1167.4</ele>
        <time>2022-05-21 21:06:33</time>
      </trkpt>
      <trkpt lat="42.36482" lon="2.40542">
        <ele>1166.8</ele>
        <time>2022-05-21 21:06:34</time>
      </trkpt>
      <trkpt lat="42.36491" lon="2.40552">
        <ele>1166.4</ele>
        <time>2022-05-21 21:06:35</time>
      </trkpt>
      <trkpt lat="42.36498" lon="2.40564">
        <ele>1165.8</ele>
        <time>2022-05-21 21:06:36</time>
      </trkpt>
      <trkpt lat="42.36505" lon="2.40576">
        <ele>1165.4</ele>
        <time>2022-05-21 21:06:37</time>
      </trkpt>
      <trkpt lat="42.36511" lon="2.40589">
        <ele>1165</ele>
        <time>2022-05-21 21:06:38</time>
      </trkpt>
      <trkpt lat="42.36514" lon="2.40603">
        <ele>1164.6</ele>
        <time>2022-05-21 21:06:39</time>
      </trkpt>
      <trkpt lat="42.36517" lon="2.40618">
        <ele>1164.4</ele>
        <time>2022-05-21 21:06:40</time>
      </trkpt>
      <trkpt lat="42.36521" lon="2.40629">
        <ele>1164.2</ele>
        <time>2022-05-21 21:06:41</time>
      </trkpt>
      <trkpt lat="42.36526" lon="2.40638">
        <ele>1163.8</ele>
        <time>2022-05-21 21:06:42</time>
      </trkpt>
      <trkpt lat="42.36534" lon="2.40643">
        <ele>1163.6</ele>
        <time>2022-05-21 21:06:43</time>
      </trkpt>
      <trkpt lat="42.36543" lon="2.40644">
        <ele>1163.2</ele>
        <time>2022-05-21 21:06:44</time>
      </trkpt>
      <trkpt lat="42.36552" lon="2.40642">
        <ele>1162.8</ele>
        <time>2022-05-21 21:06:45</time>
      </trkpt>
      <trkpt lat="42.3656" lon="2.40634">
        <ele>1162.6</ele>
        <time>2022-05-21 21:06:46</time>
      </trkpt>
      <trkpt lat="42.36566" lon="2.40624">
        <ele>1162.2</ele>
        <time>2022-05-21 21:06:47</time>
      </trkpt>
      <trkpt lat="42.36569" lon="2.40611">
        <ele>1162</ele>
        <time>2022-05-21 21:06:48</time>
      </trkpt>
      <trkpt lat="42.36569" lon="2.40599">
        <ele>1161.6</ele>
        <time>2022-05-21 21:06:49</time>
      </trkpt>
      <trkpt lat="42.36567" lon="2.40586">
        <ele>1161.2</ele>
        <time>2022-05-21 21:06:50</time>
      </trkpt>
      <trkpt lat="42.36566" lon="2.40574">
        <ele>1161</ele>
        <time>2022-05-21 21:06:51</time>
      </trkpt>
      <trkpt lat="42.36564" lon="2.4056">
        <ele>1160.6</ele>
        <time>2022-05-21 21:06:52</time>
      </trkpt>
      <trkpt lat="42.36563" lon="2.40548">
        <ele>1160.2</ele>
        <time>2022-05-21 21:06:53</time>
      </trkpt>
      <trkpt lat="42.36562" lon="2.40534">
        <ele>1159.8</ele>
        <time>2022-05-21 21:06:54</time>
      </trkpt>
      <trkpt lat="42.36562" lon="2.40521">
        <ele>1159.2</ele>
        <time>2022-05-21 21:06:55</time>
      </trkpt>
      <trkpt lat="42.36561" lon="2.40507">
        <ele>1158.8</ele>
        <time>2022-05-21 21:06:56</time>
      </trkpt>
      <trkpt lat="42.36561" lon="2.40495">
        <ele>1158.4</ele>
        <time>2022-05-21 21:06:57</time>
      </trkpt>
      <trkpt lat="42.3656" lon="2.40482">
        <ele>1157.8</ele>
        <time>2022-05-21 21:06:58</time>
      </trkpt>
      <trkpt lat="42.36558" lon="2.4047">
        <ele>1157.4</ele>
        <time>2022-05-21 21:06:59</time>
      </trkpt>
      <trkpt lat="42.36555" lon="2.40457">
        <ele>1157</ele>
        <time>2022-05-21 21:07:00</time>
      </trkpt>
      <trkpt lat="42.3655" lon="2.40446">
        <ele>1156.8</ele>
        <time>2022-05-21 21:07:01</time>
      </trkpt>
      <trkpt lat="42.36544" lon="2.40436">
        <ele>1156.6</ele>
        <time>2022-05-21 21:07:02</time>
      </trkpt>
      <trkpt lat="42.36538" lon="2.40427">
        <ele>1156.4</ele>
        <time>2022-05-21 21:07:03</time>
      </trkpt>
      <trkpt lat="42.36531" lon="2.40422">
        <ele>1156.2</ele>
        <time>2022-05-21 21:07:04</time>
      </trkpt>
      <trkpt lat="42.36523" lon="2.40422">
        <ele>1156.2</ele>
        <time>2022-05-21 21:07:05</time>
      </trkpt>
      <trkpt lat="42.36515" lon="2.40424">
        <ele>1156.2</ele>
        <time>2022-05-21 21:07:06</time>
      </trkpt>
      <trkpt lat="42.36508" lon="2.40424">
        <ele>1156.2</ele>
        <time>2022-05-21 21:07:07</time>
      </trkpt>
      <trkpt lat="42.365" lon="2.40425">
        <ele>1156</ele>
        <time>2022-05-21 21:07:08</time>
      </trkpt>
      <trkpt lat="42.36491" lon="2.40424">
        <ele>1156</ele>
        <time>2022-05-21 21:07:09</time>
      </trkpt>
      <trkpt lat="42.36483" lon="2.40424">
        <ele>1156</ele>
        <time>2022-05-21 21:07:10</time>
      </trkpt>
      <trkpt lat="42.36475" lon="2.40424">
        <ele>1156</ele>
        <time>2022-05-21 21:07:11</time>
      </trkpt>
      <trkpt lat="42.36466" lon="2.40423">
        <ele>1156</ele>
        <time>2022-05-21 21:07:12</time>
      </trkpt>
      <trkpt lat="42.36458" lon="2.40421">
        <ele>1156</ele>
        <time>2022-05-21 21:07:13</time>
      </trkpt>
      <trkpt lat="42.3645" lon="2.40419">
        <ele>1156</ele>
        <time>2022-05-21 21:07:14</time>
      </trkpt>
      <trkpt lat="42.36442" lon="2.40417">
        <ele>1156</ele>
        <time>2022-05-21 21:07:15</time>
      </trkpt>
      <trkpt lat="42.36435" lon="2.40415">
        <ele>1156.2</ele>
        <time>2022-05-21 21:07:16</time>
      </trkpt>
      <trkpt lat="42.36426" lon="2.40412">
        <ele>1156.2</ele>
        <time>2022-05-21 21:07:17</time>
      </trkpt>
      <trkpt lat="42.36419" lon="2.40409">
        <ele>1156.4</ele>
        <time>2022-05-21 21:07:18</time>
      </trkpt>
      <trkpt lat="42.36412" lon="2.40406">
        <ele>1156.4</ele>
        <time>2022-05-21 21:07:19</time>
      </trkpt>
      <trkpt lat="42.36405" lon="2.40403">
        <ele>1156.4</ele>
        <time>2022-05-21 21:07:20</time>
      </trkpt>
      <trkpt lat="42.36397" lon="2.404">
        <ele>1156.6</ele>
        <time>2022-05-21 21:07:21</time>
      </trkpt>
      <trkpt lat="42.36391" lon="2.40398">
        <ele>1156.6</ele>
        <time>2022-05-21 21:07:22</time>
      </trkpt>
      <trkpt lat="42.36383" lon="2.40394">
        <ele>1156.8</ele>
        <time>2022-05-21 21:07:23</time>
      </trkpt>
      <trkpt lat="42.36376" lon="2.40391">
        <ele>1157</ele>
        <time>2022-05-21 21:07:24</time>
      </trkpt>
      <trkpt lat="42.3637" lon="2.40389">
        <ele>1157.2</ele>
        <time>2022-05-21 21:07:25</time>
      </trkpt>
      <trkpt lat="42.36363" lon="2.40387">
        <ele>1157.4</ele>
        <time>2022-05-21 21:07:26</time>
      </trkpt>
      <trkpt lat="42.36356" lon="2.40386">
        <ele>1157.6</ele>
        <time>2022-05-21 21:07:27</time>
      </trkpt>
      <trkpt lat="42.3635" lon="2.40386">
        <ele>1157.6</ele>
        <time>2022-05-21 21:07:28</time>
      </trkpt>
      <trkpt lat="42.36344" lon="2.40386">
        <ele>1157.8</ele>
        <time>2022-05-21 21:07:29</time>
      </trkpt>
      <trkpt lat="42.36338" lon="2.40387">
        <ele>1158</ele>
        <time>2022-05-21 21:07:30</time>
      </trkpt>
      <trkpt lat="42.36331" lon="2.40388">
        <ele>1158</ele>
        <time>2022-05-21 21:07:31</time>
      </trkpt>
      <trkpt lat="42.36325" lon="2.40389">
        <ele>1158.2</ele>
        <time>2022-05-21 21:07:32</time>
      </trkpt>
      <trkpt lat="42.36319" lon="2.4039">
        <ele>1158.2</ele>
        <time>2022-05-21 21:07:33</time>
      </trkpt>
      <trkpt lat="42.36313" lon="2.40391">
        <ele>1158.4</ele>
        <time>2022-05-21 21:07:34</time>
      </trkpt>
      <trkpt lat="42.36307" lon="2.40393">
        <ele>1158.6</ele>
        <time>2022-05-21 21:07:35</time>
      </trkpt>
      <trkpt lat="42.36301" lon="2.40395">
        <ele>1158.6</ele>
        <time>2022-05-21 21:07:36</time>
      </trkpt>
      <trkpt lat="42.36296" lon="2.40397">
        <ele>1158.8</ele>
        <time>2022-05-21 21:07:37</time>
      </trkpt>
      <trkpt lat="42.3629" lon="2.40398">
        <ele>1159</ele>
        <time>2022-05-21 21:07:38</time>
      </trkpt>
      <trkpt lat="42.36284" lon="2.404">
        <ele>1159.2</ele>
        <time>2022-05-21 21:07:39</time>
      </trkpt>
      <trkpt lat="42.36278" lon="2.40402">
        <ele>1159.2</ele>
        <time>2022-05-21 21:07:40</time>
      </trkpt>
      <trkpt lat="42.36272" lon="2.40404">
        <ele>1159.4</ele>
        <time>2022-05-21 21:07:41</time>
      </trkpt>
      <trkpt lat="42.36267" lon="2.40406">
        <ele>1159.6</ele>
        <time>2022-05-21 21:07:42</time>
      </trkpt>
      <trkpt lat="42.36261" lon="2.40408">
        <ele>1159.8</ele>
        <time>2022-05-21 21:07:43</time>
      </trkpt>
      <trkpt lat="42.36255" lon="2.4041">
        <ele>1159.8</ele>
        <time>2022-05-21 21:07:44</time>
      </trkpt>
      <trkpt lat="42.3625" lon="2.40412">
        <ele>1160</ele>
        <time>2022-05-21 21:07:45</time>
      </trkpt>
      <trkpt lat="42.36244" lon="2.40415">
        <ele>1160</ele>
        <time>2022-05-21 21:07:46</time>
      </trkpt>
      <trkpt lat="42.36239" lon="2.40417">
        <ele>1160.2</ele>
        <time>2022-05-21 21:07:47</time>
      </trkpt>
      <trkpt lat="42.36233" lon="2.40419">
        <ele>1160.2</ele>
        <time>2022-05-21 21:07:48</time>
      </trkpt>
      <trkpt lat="42.36228" lon="2.40421">
        <ele>1160.2</ele>
        <time>2022-05-21 21:07:49</time>
      </trkpt>
      <trkpt lat="42.36223" lon="2.40423">
        <ele>1160.4</ele>
        <time>2022-05-21 21:07:50</time>
      </trkpt>
      <trkpt lat="42.36218" lon="2.40426">
        <ele>1160.6</ele>
        <time>2022-05-21 21:07:51</time>
      </trkpt>
      <trkpt lat="42.36213" lon="2.40428">
        <ele>1160.6</ele>
        <time>2022-05-21 21:07:52</time>
      </trkpt>
      <trkpt lat="42.36208" lon="2.4043">
        <ele>1160.8</ele>
        <time>2022-05-21 21:07:53</time>
      </trkpt>
      <trkpt lat="42.36203" lon="2.40432">
        <ele>1161</ele>
        <time>2022-05-21 21:07:54</time>
      </trkpt>
      <trkpt lat="42.36198" lon="2.40434">
        <ele>1161.2</ele>
        <time>2022-05-21 21:07:55</time>
      </trkpt>
      <trkpt lat="42.36194" lon="2.40436">
        <ele>1161.4</ele>
        <time>2022-05-21 21:07:56</time>
      </trkpt>
      <trkpt lat="42.36189" lon="2.40438">
        <ele>1161.4</ele>
        <time>2022-05-21 21:07:57</time>
      </trkpt>
      <trkpt lat="42.36185" lon="2.40439">
        <ele>1161.6</ele>
        <time>2022-05-21 21:07:58</time>
      </trkpt>
      <trkpt lat="42.3618" lon="2.4044">
        <ele>1161.8</ele>
        <time>2022-05-21 21:07:59</time>
      </trkpt>
      <trkpt lat="42.36175" lon="2.40442">
        <ele>1162</ele>
        <time>2022-05-21 21:08:00</time>
      </trkpt>
      <trkpt lat="42.36171" lon="2.40443">
        <ele>1162.2</ele>
        <time>2022-05-21 21:08:01</time>
      </trkpt>
      <trkpt lat="42.36166" lon="2.40445">
        <ele>1162.4</ele>
        <time>2022-05-21 21:08:02</time>
      </trkpt>
      <trkpt lat="42.36162" lon="2.40447">
        <ele>1162.6</ele>
        <time>2022-05-21 21:08:03</time>
      </trkpt>
      <trkpt lat="42.36157" lon="2.40449">
        <ele>1162.6</ele>
        <time>2022-05-21 21:08:04</time>
      </trkpt>
      <trkpt lat="42.36153" lon="2.40449">
        <ele>1163</ele>
        <time>2022-05-21 21:08:05</time>
      </trkpt>
      <trkpt lat="42.36148" lon="2.4045">
        <ele>1163.2</ele>
        <time>2022-05-21 21:08:06</time>
      </trkpt>
      <trkpt lat="42.36144" lon="2.4045">
        <ele>1163.4</ele>
        <time>2022-05-21 21:08:07</time>
      </trkpt>
      <trkpt lat="42.3614" lon="2.40449">
        <ele>1163.6</ele>
        <time>2022-05-21 21:08:08</time>
      </trkpt>
      <trkpt lat="42.36136" lon="2.40448">
        <ele>1163.8</ele>
        <time>2022-05-21 21:08:09</time>
      </trkpt>
      <trkpt lat="42.36132" lon="2.40447">
        <ele>1164</ele>
        <time>2022-05-21 21:08:10</time>
      </trkpt>
      <trkpt lat="42.36128" lon="2.40446">
        <ele>1164.2</ele>
        <time>2022-05-21 21:08:11</time>
      </trkpt>
      <trkpt lat="42.36125" lon="2.40445">
        <ele>1164.4</ele>
        <time>2022-05-21 21:08:12</time>
      </trkpt>
      <trkpt lat="42.36121" lon="2.40445">
        <ele>1164.6</ele>
        <time>2022-05-21 21:08:13</time>
      </trkpt>
      <trkpt lat="42.36117" lon="2.40444">
        <ele>1164.8</ele>
        <time>2022-05-21 21:08:14</time>
      </trkpt>
      <trkpt lat="42.36113" lon="2.40443">
        <ele>1165</ele>
        <time>2022-05-21 21:08:15</time>
      </trkpt>
      <trkpt lat="42.36109" lon="2.40443">
        <ele>1165.2</ele>
        <time>2022-05-21 21:08:16</time>
      </trkpt>
      <trkpt lat="42.36105" lon="2.40442">
        <ele>1165.4</ele>
        <time>2022-05-21 21:08:17</time>
      </trkpt>
      <trkpt lat="42.361" lon="2.40441">
        <ele>1165.6</ele>
        <time>2022-05-21 21:08:18</time>
      </trkpt>
      <trkpt lat="42.36097" lon="2.4044">
        <ele>1165.8</ele>
        <time>2022-05-21 21:08:19</time>
      </trkpt>
      <trkpt lat="42.36093" lon="2.4044">
        <ele>1166</ele>
        <time>2022-05-21 21:08:20</time>
      </trkpt>
      <trkpt lat="42.36089" lon="2.40439">
        <ele>1166.2</ele>
        <time>2022-05-21 21:08:21</time>
      </trkpt>
      <trkpt lat="42.36085" lon="2.40439">
        <ele>1166.4</ele>
        <time>2022-05-21 21:08:22</time>
      </trkpt>
      <trkpt lat="42.36081" lon="2.40439">
        <ele>1166.6</ele>
        <time>2022-05-21 21:08:23</time>
      </trkpt>
      <trkpt lat="42.36077" lon="2.40439">
        <ele>1166.8</ele>
        <time>2022-05-21 21:08:24</time>
      </trkpt>
      <trkpt lat="42.36073" lon="2.40439">
        <ele>1166.8</ele>
        <time>2022-05-21 21:08:25</time>
      </trkpt>
      <trkpt lat="42.36069" lon="2.40439">
        <ele>1167</ele>
        <time>2022-05-21 21:08:26</time>
      </trkpt>
      <trkpt lat="42.36065" lon="2.40439">
        <ele>1167.2</ele>
        <time>2022-05-21 21:08:27</time>
      </trkpt>
      <trkpt lat="42.36061" lon="2.40439">
        <ele>1167.4</ele>
        <time>2022-05-21 21:08:28</time>
      </trkpt>
      <trkpt lat="42.36057" lon="2.40439">
        <ele>1167.4</ele>
        <time>2022-05-21 21:08:29</time>
      </trkpt>
      <trkpt lat="42.36053" lon="2.40439">
        <ele>1167.6</ele>
        <time>2022-05-21 21:08:30</time>
      </trkpt>
      <trkpt lat="42.36049" lon="2.40439">
        <ele>1167.8</ele>
        <time>2022-05-21 21:08:31</time>
      </trkpt>
      <trkpt lat="42.36045" lon="2.40439">
        <ele>1168</ele>
        <time>2022-05-21 21:08:32</time>
      </trkpt>
      <trkpt lat="42.36042" lon="2.40439">
        <ele>1168.2</ele>
        <time>2022-05-21 21:08:33</time>
      </trkpt>
      <trkpt lat="42.36038" lon="2.40439">
        <ele>1168.2</ele>
        <time>2022-05-21 21:08:34</time>
      </trkpt>
      <trkpt lat="42.36034" lon="2.40439">
        <ele>1168.4</ele>
        <time>2022-05-21 21:08:35</time>
      </trkpt>
      <trkpt lat="42.3603" lon="2.40439">
        <ele>1168.6</ele>
        <time>2022-05-21 21:08:36</time>
      </trkpt>
      <trkpt lat="42.36027" lon="2.40439">
        <ele>1168.8</ele>
        <time>2022-05-21 21:08:37</time>
      </trkpt>
      <trkpt lat="42.36023" lon="2.40439">
        <ele>1169</ele>
        <time>2022-05-21 21:08:38</time>
      </trkpt>
      <trkpt lat="42.36018" lon="2.4044">
        <ele>1169</ele>
        <time>2022-05-21 21:08:39</time>
      </trkpt>
      <trkpt lat="42.36014" lon="2.40441">
        <ele>1169.2</ele>
        <time>2022-05-21 21:08:40</time>
      </trkpt>
      <trkpt lat="42.36011" lon="2.40442">
        <ele>1169.4</ele>
        <time>2022-05-21 21:08:41</time>
      </trkpt>
      <trkpt lat="42.36007" lon="2.40442">
        <ele>1169.6</ele>
        <time>2022-05-21 21:08:42</time>
      </trkpt>
      <trkpt lat="42.36003" lon="2.40443">
        <ele>1169.8</ele>
        <time>2022-05-21 21:08:43</time>
      </trkpt>
      <trkpt lat="42.35999" lon="2.40445">
        <ele>1169.8</ele>
        <time>2022-05-21 21:08:44</time>
      </trkpt>
      <trkpt lat="42.35996" lon="2.40447">
        <ele>1170</ele>
        <time>2022-05-21 21:08:45</time>
      </trkpt>
      <trkpt lat="42.35992" lon="2.40449">
        <ele>1170</ele>
        <time>2022-05-21 21:08:46</time>
      </trkpt>
      <trkpt lat="42.35989" lon="2.40451">
        <ele>1170.2</ele>
        <time>2022-05-21 21:08:47</time>
      </trkpt>
      <trkpt lat="42.35986" lon="2.40453">
        <ele>1170.2</ele>
        <time>2022-05-21 21:08:48</time>
      </trkpt>
      <trkpt lat="42.35982" lon="2.40455">
        <ele>1170.4</ele>
        <time>2022-05-21 21:08:49</time>
      </trkpt>
      <trkpt lat="42.35978" lon="2.40458">
        <ele>1170.4</ele>
        <time>2022-05-21 21:08:50</time>
      </trkpt>
      <trkpt lat="42.35975" lon="2.40461">
        <ele>1170.6</ele>
        <time>2022-05-21 21:08:51</time>
      </trkpt>
      <trkpt lat="42.35971" lon="2.40465">
        <ele>1170.6</ele>
        <time>2022-05-21 21:08:52</time>
      </trkpt>
      <trkpt lat="42.35968" lon="2.40468">
        <ele>1170.8</ele>
        <time>2022-05-21 21:08:53</time>
      </trkpt>
      <trkpt lat="42.35965" lon="2.40471">
        <ele>1170.8</ele>
        <time>2022-05-21 21:08:54</time>
      </trkpt>
      <trkpt lat="42.35961" lon="2.40474">
        <ele>1171</ele>
        <time>2022-05-21 21:08:55</time>
      </trkpt>
      <trkpt lat="42.35958" lon="2.40478">
        <ele>1171</ele>
        <time>2022-05-21 21:08:56</time>
      </trkpt>
      <trkpt lat="42.35954" lon="2.40481">
        <ele>1171</ele>
        <time>2022-05-21 21:08:57</time>
      </trkpt>
      <trkpt lat="42.35952" lon="2.40485">
        <ele>1171.2</ele>
        <time>2022-05-21 21:08:58</time>
      </trkpt>
      <trkpt lat="42.35949" lon="2.40488">
        <ele>1171.2</ele>
        <time>2022-05-21 21:08:59</time>
      </trkpt>
      <trkpt lat="42.35946" lon="2.40492">
        <ele>1171.4</ele>
        <time>2022-05-21 21:09:00</time>
      </trkpt>
      <trkpt lat="42.35943" lon="2.40495">
        <ele>1171.4</ele>
        <time>2022-05-21 21:09:01</time>
      </trkpt>
      <trkpt lat="42.3594" lon="2.40499">
        <ele>1171.4</ele>
        <time>2022-05-21 21:09:02</time>
      </trkpt>
      <trkpt lat="42.35937" lon="2.40504">
        <ele>1171.6</ele>
        <time>2022-05-21 21:09:03</time>
      </trkpt>
      <trkpt lat="42.35935" lon="2.40509">
        <ele>1171.6</ele>
        <time>2022-05-21 21:09:04</time>
      </trkpt>
      <trkpt lat="42.35932" lon="2.40514">
        <ele>1171.8</ele>
        <time>2022-05-21 21:09:05</time>
      </trkpt>
      <trkpt lat="42.35928" lon="2.40519">
        <ele>1171.8</ele>
        <time>2022-05-21 21:09:06</time>
      </trkpt>
      <trkpt lat="42.35925" lon="2.40524">
        <ele>1172</ele>
        <time>2022-05-21 21:09:07</time>
      </trkpt>
      <trkpt lat="42.35922" lon="2.40529">
        <ele>1172</ele>
        <time>2022-05-21 21:09:08</time>
      </trkpt>
      <trkpt lat="42.35919" lon="2.40534">
        <ele>1172</ele>
        <time>2022-05-21 21:09:09</time>
      </trkpt>
      <trkpt lat="42.35916" lon="2.40539">
        <ele>1172.2</ele>
        <time>2022-05-21 21:09:10</time>
      </trkpt>
      <trkpt lat="42.35912" lon="2.40544">
        <ele>1172.2</ele>
        <time>2022-05-21 21:09:11</time>
      </trkpt>
      <trkpt lat="42.35909" lon="2.40549">
        <ele>1172.4</ele>
        <time>2022-05-21 21:09:12</time>
      </trkpt>
      <trkpt lat="42.35906" lon="2.40554">
        <ele>1172.4</ele>
        <time>2022-05-21 21:09:13</time>
      </trkpt>
      <trkpt lat="42.35902" lon="2.40559">
        <ele>1172.6</ele>
        <time>2022-05-21 21:09:14</time>
      </trkpt>
      <trkpt lat="42.35898" lon="2.40563">
        <ele>1172.6</ele>
        <time>2022-05-21 21:09:15</time>
      </trkpt>
      <trkpt lat="42.35894" lon="2.40567">
        <ele>1172.6</ele>
        <time>2022-05-21 21:09:16</time>
      </trkpt>
      <trkpt lat="42.35889" lon="2.40569">
        <ele>1172.6</ele>
        <time>2022-05-21 21:09:17</time>
      </trkpt>
      <trkpt lat="42.35885" lon="2.4057">
        <ele>1172.6</ele>
        <time>2022-05-21 21:09:18</time>
      </trkpt>
      <trkpt lat="42.3588" lon="2.40571">
        <ele>1172.6</ele>
        <time>2022-05-21 21:09:19</time>
      </trkpt>
      <trkpt lat="42.35875" lon="2.40571">
        <ele>1172.4</ele>
        <time>2022-05-21 21:09:20</time>
      </trkpt>
      <trkpt lat="42.3587" lon="2.4057">
        <ele>1172.4</ele>
        <time>2022-05-21 21:09:21</time>
      </trkpt>
      <trkpt lat="42.35865" lon="2.40568">
        <ele>1172.4</ele>
        <time>2022-05-21 21:09:22</time>
      </trkpt>
      <trkpt lat="42.35861" lon="2.40565">
        <ele>1172.4</ele>
        <time>2022-05-21 21:09:23</time>
      </trkpt>
      <trkpt lat="42.35857" lon="2.40562">
        <ele>1172.4</ele>
        <time>2022-05-21 21:09:24</time>
      </trkpt>
      <trkpt lat="42.35853" lon="2.40557">
        <ele>1172.4</ele>
        <time>2022-05-21 21:09:25</time>
      </trkpt>
      <trkpt lat="42.3585" lon="2.40552">
        <ele>1172.4</ele>
        <time>2022-05-21 21:09:26</time>
      </trkpt>
      <trkpt lat="42.35847" lon="2.40546">
        <ele>1172.4</ele>
        <time>2022-05-21 21:09:27</time>
      </trkpt>
      <trkpt lat="42.35844" lon="2.4054">
        <ele>1172.4</ele>
        <time>2022-05-21 21:09:28</time>
      </trkpt>
      <trkpt lat="42.35841" lon="2.40534">
        <ele>1172.2</ele>
        <time>2022-05-21 21:09:29</time>
      </trkpt>
      <trkpt lat="42.35839" lon="2.40527">
        <ele>1172.2</ele>
        <time>2022-05-21 21:09:30</time>
      </trkpt>
      <trkpt lat="42.35836" lon="2.40521">
        <ele>1172.2</ele>
        <time>2022-05-21 21:09:31</time>
      </trkpt>
      <trkpt lat="42.35833" lon="2.40514">
        <ele>1172</ele>
        <time>2022-05-21 21:09:32</time>
      </trkpt>
      <trkpt lat="42.3583" lon="2.40508">
        <ele>1172</ele>
        <time>2022-05-21 21:09:33</time>
      </trkpt>
      <trkpt lat="42.35828" lon="2.40501">
        <ele>1172</ele>
        <time>2022-05-21 21:09:34</time>
      </trkpt>
      <trkpt lat="42.35825" lon="2.40494">
        <ele>1172</ele>
        <time>2022-05-21 21:09:35</time>
      </trkpt>
      <trkpt lat="42.35822" lon="2.40488">
        <ele>1172</ele>
        <time>2022-05-21 21:09:36</time>
      </trkpt>
      <trkpt lat="42.35819" lon="2.40481">
        <ele>1172</ele>
        <time>2022-05-21 21:09:37</time>
      </trkpt>
      <trkpt lat="42.35817" lon="2.40475">
        <ele>1172</ele>
        <time>2022-05-21 21:09:38</time>
      </trkpt>
      <trkpt lat="42.35814" lon="2.40469">
        <ele>1172</ele>
        <time>2022-05-21 21:09:39</time>
      </trkpt>
      <trkpt lat="42.35812" lon="2.40463">
        <ele>1172</ele>
        <time>2022-05-21 21:09:40</time>
      </trkpt>
      <trkpt lat="42.35809" lon="2.40457">
        <ele>1172</ele>
        <time>2022-05-21 21:09:41</time>
      </trkpt>
      <trkpt lat="42.35807" lon="2.4045">
        <ele>1172</ele>
        <time>2022-05-21 21:09:42</time>
      </trkpt>
      <trkpt lat="42.35805" lon="2.40443">
        <ele>1172</ele>
        <time>2022-05-21 21:09:43</time>
      </trkpt>
      <trkpt lat="42.35803" lon="2.40436">
        <ele>1172</ele>
        <time>2022-05-21 21:09:44</time>
      </trkpt>
      <trkpt lat="42.35801" lon="2.4043">
        <ele>1172</ele>
        <time>2022-05-21 21:09:45</time>
      </trkpt>
      <trkpt lat="42.35798" lon="2.40423">
        <ele>1172</ele>
        <time>2022-05-21 21:09:46</time>
      </trkpt>
      <trkpt lat="42.35796" lon="2.40415">
        <ele>1172</ele>
        <time>2022-05-21 21:09:47</time>
      </trkpt>
      <trkpt lat="42.35793" lon="2.40408">
        <ele>1172</ele>
        <time>2022-05-21 21:09:48</time>
      </trkpt>
      <trkpt lat="42.35791" lon="2.40401">
        <ele>1172</ele>
        <time>2022-05-21 21:09:49</time>
      </trkpt>
      <trkpt lat="42.35788" lon="2.40394">
        <ele>1172</ele>
        <time>2022-05-21 21:09:50</time>
      </trkpt>
      <trkpt lat="42.35786" lon="2.40387">
        <ele>1172</ele>
        <time>2022-05-21 21:09:51</time>
      </trkpt>
      <trkpt lat="42.35783" lon="2.4038">
        <ele>1172</ele>
        <time>2022-05-21 21:09:52</time>
      </trkpt>
      <trkpt lat="42.35781" lon="2.40373">
        <ele>1172</ele>
        <time>2022-05-21 21:09:53</time>
      </trkpt>
      <trkpt lat="42.35779" lon="2.40367">
        <ele>1172</ele>
        <time>2022-05-21 21:09:54</time>
      </trkpt>
      <trkpt lat="42.35776" lon="2.4036">
        <ele>1172.2</ele>
        <time>2022-05-21 21:09:55</time>
      </trkpt>
      <trkpt lat="42.35773" lon="2.40354">
        <ele>1172.2</ele>
        <time>2022-05-21 21:09:56</time>
      </trkpt>
      <trkpt lat="42.3577" lon="2.40348">
        <ele>1172.2</ele>
        <time>2022-05-21 21:09:57</time>
      </trkpt>
      <trkpt lat="42.35766" lon="2.40343">
        <ele>1172.2</ele>
        <time>2022-05-21 21:09:58</time>
      </trkpt>
      <trkpt lat="42.35762" lon="2.40338">
        <ele>1172.2</ele>
        <time>2022-05-21 21:09:59</time>
      </trkpt>
      <trkpt lat="42.35757" lon="2.40335">
        <ele>1172.2</ele>
        <time>2022-05-21 21:10:00</time>
      </trkpt>
      <trkpt lat="42.35752" lon="2.40332">
        <ele>1172.4</ele>
        <time>2022-05-21 21:10:01</time>
      </trkpt>
      <trkpt lat="42.35747" lon="2.40331">
        <ele>1172.4</ele>
        <time>2022-05-21 21:10:02</time>
      </trkpt>
      <trkpt lat="42.35743" lon="2.40331">
        <ele>1172.6</ele>
        <time>2022-05-21 21:10:03</time>
      </trkpt>
      <trkpt lat="42.35739" lon="2.40333">
        <ele>1172.6</ele>
        <time>2022-05-21 21:10:04</time>
      </trkpt>
      <trkpt lat="42.35736" lon="2.40335">
        <ele>1172.6</ele>
        <time>2022-05-21 21:10:05</time>
      </trkpt>
      <trkpt lat="42.35732" lon="2.4034">
        <ele>1172.6</ele>
        <time>2022-05-21 21:10:06</time>
      </trkpt>
      <trkpt lat="42.35729" lon="2.40345">
        <ele>1172.8</ele>
        <time>2022-05-21 21:10:07</time>
      </trkpt>
      <trkpt lat="42.35726" lon="2.40352">
        <ele>1172.8</ele>
        <time>2022-05-21 21:10:08</time>
      </trkpt>
      <trkpt lat="42.35723" lon="2.40359">
        <ele>1172.8</ele>
        <time>2022-05-21 21:10:09</time>
      </trkpt>
      <trkpt lat="42.35721" lon="2.40366">
        <ele>1173</ele>
        <time>2022-05-21 21:10:10</time>
      </trkpt>
      <trkpt lat="42.3572" lon="2.40374">
        <ele>1173</ele>
        <time>2022-05-21 21:10:11</time>
      </trkpt>
      <trkpt lat="42.35718" lon="2.4038">
        <ele>1173</ele>
        <time>2022-05-21 21:10:12</time>
      </trkpt>
      <trkpt lat="42.35716" lon="2.40387">
        <ele>1173.2</ele>
        <time>2022-05-21 21:10:13</time>
      </trkpt>
      <trkpt lat="42.35715" lon="2.40394">
        <ele>1173.2</ele>
        <time>2022-05-21 21:10:14</time>
      </trkpt>
      <trkpt lat="42.35713" lon="2.404">
        <ele>1173.2</ele>
        <time>2022-05-21 21:10:15</time>
      </trkpt>
      <trkpt lat="42.35712" lon="2.40408">
        <ele>1173.2</ele>
        <time>2022-05-21 21:10:16</time>
      </trkpt>
      <trkpt lat="42.35711" lon="2.40416">
        <ele>1173.2</ele>
        <time>2022-05-21 21:10:17</time>
      </trkpt>
      <trkpt lat="42.35709" lon="2.40424">
        <ele>1173.2</ele>
        <time>2022-05-21 21:10:18</time>
      </trkpt>
      <trkpt lat="42.35707" lon="2.40432">
        <ele>1173.4</ele>
        <time>2022-05-21 21:10:19</time>
      </trkpt>
      <trkpt lat="42.35706" lon="2.4044">
        <ele>1173.4</ele>
        <time>2022-05-21 21:10:20</time>
      </trkpt>
      <trkpt lat="42.35705" lon="2.40448">
        <ele>1173.4</ele>
        <time>2022-05-21 21:10:21</time>
      </trkpt>
      <trkpt lat="42.35703" lon="2.40456">
        <ele>1173.4</ele>
        <time>2022-05-21 21:10:22</time>
      </trkpt>
      <trkpt lat="42.35702" lon="2.40463">
        <ele>1173.4</ele>
        <time>2022-05-21 21:10:23</time>
      </trkpt>
      <trkpt lat="42.357" lon="2.40471">
        <ele>1173.4</ele>
        <time>2022-05-21 21:10:24</time>
      </trkpt>
      <trkpt lat="42.35699" lon="2.40478">
        <ele>1173.4</ele>
        <time>2022-05-21 21:10:25</time>
      </trkpt>
      <trkpt lat="42.35697" lon="2.40486">
        <ele>1173.6</ele>
        <time>2022-05-21 21:10:26</time>
      </trkpt>
      <trkpt lat="42.35696" lon="2.40494">
        <ele>1173.6</ele>
        <time>2022-05-21 21:10:27</time>
      </trkpt>
      <trkpt lat="42.35694" lon="2.40503">
        <ele>1173.6</ele>
        <time>2022-05-21 21:10:28</time>
      </trkpt>
      <trkpt lat="42.35692" lon="2.40512">
        <ele>1173.6</ele>
        <time>2022-05-21 21:10:29</time>
      </trkpt>
      <trkpt lat="42.35691" lon="2.4052">
        <ele>1173.6</ele>
        <time>2022-05-21 21:10:30</time>
      </trkpt>
      <trkpt lat="42.35691" lon="2.40528">
        <ele>1173.6</ele>
        <time>2022-05-21 21:10:31</time>
      </trkpt>
      <trkpt lat="42.3569" lon="2.40536">
        <ele>1173.8</ele>
        <time>2022-05-21 21:10:32</time>
      </trkpt>
      <trkpt lat="42.35689" lon="2.40544">
        <ele>1173.8</ele>
        <time>2022-05-21 21:10:33</time>
      </trkpt>
      <trkpt lat="42.35687" lon="2.40551">
        <ele>1173.8</ele>
        <time>2022-05-21 21:10:34</time>
      </trkpt>
      <trkpt lat="42.35685" lon="2.40558">
        <ele>1173.8</ele>
        <time>2022-05-21 21:10:35</time>
      </trkpt>
      <trkpt lat="42.35683" lon="2.40565">
        <ele>1173.8</ele>
        <time>2022-05-21 21:10:36</time>
      </trkpt>
      <trkpt lat="42.3568" lon="2.40571">
        <ele>1173.8</ele>
        <time>2022-05-21 21:10:37</time>
      </trkpt>
      <trkpt lat="42.35677" lon="2.40578">
        <ele>1173.8</ele>
        <time>2022-05-21 21:10:38</time>
      </trkpt>
      <trkpt lat="42.35674" lon="2.40584">
        <ele>1173.8</ele>
        <time>2022-05-21 21:10:39</time>
      </trkpt>
      <trkpt lat="42.3567" lon="2.40589">
        <ele>1173.8</ele>
        <time>2022-05-21 21:10:40</time>
      </trkpt>
      <trkpt lat="42.35665" lon="2.40594">
        <ele>1173.8</ele>
        <time>2022-05-21 21:10:41</time>
      </trkpt>
      <trkpt lat="42.35661" lon="2.40598">
        <ele>1173.8</ele>
        <time>2022-05-21 21:10:42</time>
      </trkpt>
      <trkpt lat="42.35655" lon="2.40601">
        <ele>1173.8</ele>
        <time>2022-05-21 21:10:43</time>
      </trkpt>
      <trkpt lat="42.3565" lon="2.40604">
        <ele>1174</ele>
        <time>2022-05-21 21:10:44</time>
      </trkpt>
      <trkpt lat="42.35644" lon="2.40606">
        <ele>1174</ele>
        <time>2022-05-21 21:10:45</time>
      </trkpt>
      <trkpt lat="42.35639" lon="2.40607">
        <ele>1174</ele>
        <time>2022-05-21 21:10:46</time>
      </trkpt>
      <trkpt lat="42.35633" lon="2.40609">
        <ele>1174</ele>
        <time>2022-05-21 21:10:47</time>
      </trkpt>
      <trkpt lat="42.35627" lon="2.4061">
        <ele>1174</ele>
        <time>2022-05-21 21:10:48</time>
      </trkpt>
      <trkpt lat="42.35621" lon="2.40611">
        <ele>1174</ele>
        <time>2022-05-21 21:10:49</time>
      </trkpt>
      <trkpt lat="42.35616" lon="2.40612">
        <ele>1174</ele>
        <time>2022-05-21 21:10:50</time>
      </trkpt>
      <trkpt lat="42.3561" lon="2.40613">
        <ele>1174</ele>
        <time>2022-05-21 21:10:51</time>
      </trkpt>
      <trkpt lat="42.35604" lon="2.40614">
        <ele>1174</ele>
        <time>2022-05-21 21:10:52</time>
      </trkpt>
      <trkpt lat="42.35598" lon="2.40615">
        <ele>1174</ele>
        <time>2022-05-21 21:10:53</time>
      </trkpt>
      <trkpt lat="42.35591" lon="2.40616">
        <ele>1174</ele>
        <time>2022-05-21 21:10:54</time>
      </trkpt>
      <trkpt lat="42.35585" lon="2.40617">
        <ele>1174.2</ele>
        <time>2022-05-21 21:10:55</time>
      </trkpt>
      <trkpt lat="42.3558" lon="2.40618">
        <ele>1174.2</ele>
        <time>2022-05-21 21:10:56</time>
      </trkpt>
      <trkpt lat="42.35574" lon="2.40619">
        <ele>1174.2</ele>
        <time>2022-05-21 21:10:57</time>
      </trkpt>
      <trkpt lat="42.35568" lon="2.4062">
        <ele>1174.2</ele>
        <time>2022-05-21 21:10:58</time>
      </trkpt>
      <trkpt lat="42.35562" lon="2.40621">
        <ele>1174.2</ele>
        <time>2022-05-21 21:10:59</time>
      </trkpt>
      <trkpt lat="42.35556" lon="2.40622">
        <ele>1174.2</ele>
        <time>2022-05-21 21:11:00</time>
      </trkpt>
      <trkpt lat="42.3555" lon="2.40622">
        <ele>1174.2</ele>
        <time>2022-05-21 21:11:01</time>
      </trkpt>
      <trkpt lat="42.35543" lon="2.40623">
        <ele>1174.2</ele>
        <time>2022-05-21 21:11:02</time>
      </trkpt>
      <trkpt lat="42.35537" lon="2.40623">
        <ele>1174.2</ele>
        <time>2022-05-21 21:11:03</time>
      </trkpt>
      <trkpt lat="42.35531" lon="2.40623">
        <ele>1174.2</ele>
        <time>2022-05-21 21:11:04</time>
      </trkpt>
      <trkpt lat="42.35524" lon="2.40621">
        <ele>1174.2</ele>
        <time>2022-05-21 21:11:05</time>
      </trkpt>
      <trkpt lat="42.35518" lon="2.40619">
        <ele>1174.2</ele>
        <time>2022-05-21 21:11:06</time>
      </trkpt>
      <trkpt lat="42.35512" lon="2.40617">
        <ele>1174.2</ele>
        <time>2022-05-21 21:11:07</time>
      </trkpt>
      <trkpt lat="42.35506" lon="2.40615">
        <ele>1174.2</ele>
        <time>2022-05-21 21:11:08</time>
      </trkpt>
      <trkpt lat="42.35501" lon="2.40613">
        <ele>1174</ele>
        <time>2022-05-21 21:11:09</time>
      </trkpt>
      <trkpt lat="42.35494" lon="2.40611">
        <ele>1174</ele>
        <time>2022-05-21 21:11:10</time>
      </trkpt>
      <trkpt lat="42.35489" lon="2.40609">
        <ele>1174</ele>
        <time>2022-05-21 21:11:11</time>
      </trkpt>
      <trkpt lat="42.35483" lon="2.40607">
        <ele>1174</ele>
        <time>2022-05-21 21:11:12</time>
      </trkpt>
      <trkpt lat="42.35477" lon="2.40605">
        <ele>1174</ele>
        <time>2022-05-21 21:11:13</time>
      </trkpt>
      <trkpt lat="42.35471" lon="2.40603">
        <ele>1174.2</ele>
        <time>2022-05-21 21:11:14</time>
      </trkpt>
      <trkpt lat="42.35465" lon="2.40601">
        <ele>1174.2</ele>
        <time>2022-05-21 21:11:15</time>
      </trkpt>
      <trkpt lat="42.35459" lon="2.40599">
        <ele>1174.2</ele>
        <time>2022-05-21 21:11:16</time>
      </trkpt>
      <trkpt lat="42.35453" lon="2.40597">
        <ele>1174.2</ele>
        <time>2022-05-21 21:11:17</time>
      </trkpt>
      <trkpt lat="42.35447" lon="2.40595">
        <ele>1174.2</ele>
        <time>2022-05-21 21:11:18</time>
      </trkpt>
      <trkpt lat="42.35442" lon="2.40593">
        <ele>1174</ele>
        <time>2022-05-21 21:11:19</time>
      </trkpt>
      <trkpt lat="42.35436" lon="2.40591">
        <ele>1174</ele>
        <time>2022-05-21 21:11:20</time>
      </trkpt>
      <trkpt lat="42.3543" lon="2.40589">
        <ele>1174</ele>
        <time>2022-05-21 21:11:21</time>
      </trkpt>
      <trkpt lat="42.35425" lon="2.40587">
        <ele>1174.2</ele>
        <time>2022-05-21 21:11:22</time>
      </trkpt>
      <trkpt lat="42.35419" lon="2.40585">
        <ele>1174.2</ele>
        <time>2022-05-21 21:11:23</time>
      </trkpt>
      <trkpt lat="42.35413" lon="2.40583">
        <ele>1174.2</ele>
        <time>2022-05-21 21:11:24</time>
      </trkpt>
      <trkpt lat="42.35407" lon="2.40581">
        <ele>1174</ele>
        <time>2022-05-21 21:11:25</time>
      </trkpt>
      <trkpt lat="42.35401" lon="2.40579">
        <ele>1174</ele>
        <time>2022-05-21 21:11:26</time>
      </trkpt>
      <trkpt lat="42.35395" lon="2.40577">
        <ele>1174</ele>
        <time>2022-05-21 21:11:27</time>
      </trkpt>
      <trkpt lat="42.3539" lon="2.40575">
        <ele>1174.2</ele>
        <time>2022-05-21 21:11:28</time>
      </trkpt>
      <trkpt lat="42.35384" lon="2.40573">
        <ele>1174.2</ele>
        <time>2022-05-21 21:11:29</time>
      </trkpt>
      <trkpt lat="42.35378" lon="2.40571">
        <ele>1174.2</ele>
        <time>2022-05-21 21:11:30</time>
      </trkpt>
      <trkpt lat="42.35372" lon="2.40569">
        <ele>1174.2</ele>
        <time>2022-05-21 21:11:31</time>
      </trkpt>
      <trkpt lat="42.35365" lon="2.40567">
        <ele>1174.2</ele>
        <time>2022-05-21 21:11:32</time>
      </trkpt>
      <trkpt lat="42.35359" lon="2.40565">
        <ele>1174.2</ele>
        <time>2022-05-21 21:11:33</time>
      </trkpt>
      <trkpt lat="42.35354" lon="2.40562">
        <ele>1174.2</ele>
        <time>2022-05-21 21:11:34</time>
      </trkpt>
      <trkpt lat="42.35348" lon="2.4056">
        <ele>1174.2</ele>
        <time>2022-05-21 21:11:35</time>
      </trkpt>
      <trkpt lat="42.35342" lon="2.40558">
        <ele>1174.2</ele>
        <time>2022-05-21 21:11:36</time>
      </trkpt>
      <trkpt lat="42.35337" lon="2.40557">
        <ele>1174.2</ele>
        <time>2022-05-21 21:11:37</time>
      </trkpt>
      <trkpt lat="42.35331" lon="2.40555">
        <ele>1174.2</ele>
        <time>2022-05-21 21:11:38</time>
      </trkpt>
      <trkpt lat="42.35324" lon="2.40555">
        <ele>1174</ele>
        <time>2022-05-21 21:11:39</time>
      </trkpt>
      <trkpt lat="42.35318" lon="2.40555">
        <ele>1174</ele>
        <time>2022-05-21 21:11:40</time>
      </trkpt>
      <trkpt lat="42.35313" lon="2.40555">
        <ele>1174</ele>
        <time>2022-05-21 21:11:41</time>
      </trkpt>
      <trkpt lat="42.35307" lon="2.40555">
        <ele>1173.8</ele>
        <time>2022-05-21 21:11:42</time>
      </trkpt>
      <trkpt lat="42.35302" lon="2.40556">
        <ele>1173.8</ele>
        <time>2022-05-21 21:11:43</time>
      </trkpt>
      <trkpt lat="42.35296" lon="2.40558">
        <ele>1173.8</ele>
        <time>2022-05-21 21:11:44</time>
      </trkpt>
      <trkpt lat="42.3529" lon="2.4056">
        <ele>1173.8</ele>
        <time>2022-05-21 21:11:45</time>
      </trkpt>
      <trkpt lat="42.35283" lon="2.40562">
        <ele>1173.8</ele>
        <time>2022-05-21 21:11:46</time>
      </trkpt>
      <trkpt lat="42.35277" lon="2.40565">
        <ele>1173.8</ele>
        <time>2022-05-21 21:11:47</time>
      </trkpt>
      <trkpt lat="42.3527" lon="2.40568">
        <ele>1174</ele>
        <time>2022-05-21 21:11:48</time>
      </trkpt>
      <trkpt lat="42.35264" lon="2.4057">
        <ele>1174</ele>
        <time>2022-05-21 21:11:49</time>
      </trkpt>
      <trkpt lat="42.35258" lon="2.40572">
        <ele>1174</ele>
        <time>2022-05-21 21:11:50</time>
      </trkpt>
      <trkpt lat="42.35252" lon="2.40574">
        <ele>1174</ele>
        <time>2022-05-21 21:11:51</time>
      </trkpt>
      <trkpt lat="42.35246" lon="2.40576">
        <ele>1174.2</ele>
        <time>2022-05-21 21:11:52</time>
      </trkpt>
      <trkpt lat="42.3524" lon="2.40579">
        <ele>1174.2</ele>
        <time>2022-05-21 21:11:53</time>
      </trkpt>
      <trkpt lat="42.35233" lon="2.40581">
        <ele>1174.2</ele>
        <time>2022-05-21 21:11:54</time>
      </trkpt>
      <trkpt lat="42.35227" lon="2.40584">
        <ele>1174.2</ele>
        <time>2022-05-21 21:11:55</time>
      </trkpt>
      <trkpt lat="42.35221" lon="2.40586">
        <ele>1174.2</ele>
        <time>2022-05-21 21:11:56</time>
      </trkpt>
      <trkpt lat="42.35214" lon="2.40589">
        <ele>1174.2</ele>
        <time>2022-05-21 21:11:57</time>
      </trkpt>
      <trkpt lat="42.35208" lon="2.40591">
        <ele>1174.2</ele>
        <time>2022-05-21 21:11:58</time>
      </trkpt>
      <trkpt lat="42.35202" lon="2.40593">
        <ele>1174.2</ele>
        <time>2022-05-21 21:11:59</time>
      </trkpt>
      <trkpt lat="42.35196" lon="2.40596">
        <ele>1174.2</ele>
        <time>2022-05-21 21:12:00</time>
      </trkpt>
      <trkpt lat="42.3519" lon="2.40599">
        <ele>1174.2</ele>
        <time>2022-05-21 21:12:01</time>
      </trkpt>
      <trkpt lat="42.35184" lon="2.40602">
        <ele>1174.2</ele>
        <time>2022-05-21 21:12:02</time>
      </trkpt>
      <trkpt lat="42.35178" lon="2.40606">
        <ele>1174.4</ele>
        <time>2022-05-21 21:12:03</time>
      </trkpt>
      <trkpt lat="42.35173" lon="2.40611">
        <ele>1174.4</ele>
        <time>2022-05-21 21:12:04</time>
      </trkpt>
      <trkpt lat="42.35169" lon="2.40617">
        <ele>1174.4</ele>
        <time>2022-05-21 21:12:05</time>
      </trkpt>
      <trkpt lat="42.35164" lon="2.40623">
        <ele>1174.4</ele>
        <time>2022-05-21 21:12:06</time>
      </trkpt>
      <trkpt lat="42.3516" lon="2.40629">
        <ele>1174.4</ele>
        <time>2022-05-21 21:12:07</time>
      </trkpt>
      <trkpt lat="42.35156" lon="2.40636">
        <ele>1174.4</ele>
        <time>2022-05-21 21:12:08</time>
      </trkpt>
      <trkpt lat="42.35151" lon="2.40642">
        <ele>1174.4</ele>
        <time>2022-05-21 21:12:09</time>
      </trkpt>
      <trkpt lat="42.35147" lon="2.40649">
        <ele>1174.4</ele>
        <time>2022-05-21 21:12:10</time>
      </trkpt>
      <trkpt lat="42.35143" lon="2.40655">
        <ele>1174.4</ele>
        <time>2022-05-21 21:12:11</time>
      </trkpt>
      <trkpt lat="42.35139" lon="2.40662">
        <ele>1174.4</ele>
        <time>2022-05-21 21:12:12</time>
      </trkpt>
      <trkpt lat="42.35135" lon="2.40668">
        <ele>1174.6</ele>
        <time>2022-05-21 21:12:13</time>
      </trkpt>
      <trkpt lat="42.35131" lon="2.40675">
        <ele>1174.6</ele>
        <time>2022-05-21 21:12:14</time>
      </trkpt>
      <trkpt lat="42.35126" lon="2.40682">
        <ele>1174.6</ele>
        <time>2022-05-21 21:12:15</time>
      </trkpt>
      <trkpt lat="42.35122" lon="2.40688">
        <ele>1174.6</ele>
        <time>2022-05-21 21:12:16</time>
      </trkpt>
      <trkpt lat="42.35117" lon="2.40694">
        <ele>1174.8</ele>
        <time>2022-05-21 21:12:17</time>
      </trkpt>
      <trkpt lat="42.35113" lon="2.407">
        <ele>1174.8</ele>
        <time>2022-05-21 21:12:18</time>
      </trkpt>
      <trkpt lat="42.35108" lon="2.40704">
        <ele>1175</ele>
        <time>2022-05-21 21:12:19</time>
      </trkpt>
      <trkpt lat="42.35102" lon="2.40709">
        <ele>1175.2</ele>
        <time>2022-05-21 21:12:20</time>
      </trkpt>
      <trkpt lat="42.35097" lon="2.40712">
        <ele>1175.2</ele>
        <time>2022-05-21 21:12:21</time>
      </trkpt>
      <trkpt lat="42.35092" lon="2.40717">
        <ele>1175.4</ele>
        <time>2022-05-21 21:12:22</time>
      </trkpt>
      <trkpt lat="42.35087" lon="2.40721">
        <ele>1175.4</ele>
        <time>2022-05-21 21:12:23</time>
      </trkpt>
      <trkpt lat="42.35082" lon="2.40724">
        <ele>1175.4</ele>
        <time>2022-05-21 21:12:24</time>
      </trkpt>
      <trkpt lat="42.35077" lon="2.40728">
        <ele>1175.6</ele>
        <time>2022-05-21 21:12:25</time>
      </trkpt>
      <trkpt lat="42.35071" lon="2.40732">
        <ele>1175.6</ele>
        <time>2022-05-21 21:12:26</time>
      </trkpt>
      <trkpt lat="42.35066" lon="2.40736">
        <ele>1175.8</ele>
        <time>2022-05-21 21:12:27</time>
      </trkpt>
      <trkpt lat="42.3506" lon="2.40739">
        <ele>1175.8</ele>
        <time>2022-05-21 21:12:28</time>
      </trkpt>
      <trkpt lat="42.35055" lon="2.40742">
        <ele>1176</ele>
        <time>2022-05-21 21:12:29</time>
      </trkpt>
      <trkpt lat="42.3505" lon="2.40744">
        <ele>1176</ele>
        <time>2022-05-21 21:12:30</time>
      </trkpt>
      <trkpt lat="42.35044" lon="2.40746">
        <ele>1176.2</ele>
        <time>2022-05-21 21:12:31</time>
      </trkpt>
      <trkpt lat="42.35039" lon="2.40746">
        <ele>1176.2</ele>
        <time>2022-05-21 21:12:32</time>
      </trkpt>
      <trkpt lat="42.35033" lon="2.40745">
        <ele>1176.4</ele>
        <time>2022-05-21 21:12:33</time>
      </trkpt>
      <trkpt lat="42.35028" lon="2.40743">
        <ele>1176.4</ele>
        <time>2022-05-21 21:12:34</time>
      </trkpt>
      <trkpt lat="42.35023" lon="2.40741">
        <ele>1176.4</ele>
        <time>2022-05-21 21:12:35</time>
      </trkpt>
      <trkpt lat="42.35017" lon="2.40738">
        <ele>1176.4</ele>
        <time>2022-05-21 21:12:36</time>
      </trkpt>
      <trkpt lat="42.35012" lon="2.40734">
        <ele>1176.2</ele>
        <time>2022-05-21 21:12:37</time>
      </trkpt>
      <trkpt lat="42.35007" lon="2.4073">
        <ele>1176.2</ele>
        <time>2022-05-21 21:12:38</time>
      </trkpt>
      <trkpt lat="42.35001" lon="2.40726">
        <ele>1176.2</ele>
        <time>2022-05-21 21:12:39</time>
      </trkpt>
      <trkpt lat="42.34996" lon="2.40722">
        <ele>1176</ele>
        <time>2022-05-21 21:12:40</time>
      </trkpt>
      <trkpt lat="42.34991" lon="2.40718">
        <ele>1176</ele>
        <time>2022-05-21 21:12:41</time>
      </trkpt>
      <trkpt lat="42.34988" lon="2.40715">
        <ele>1176</ele>
        <time>2022-05-21 21:12:42</time>
      </trkpt>
      <trkpt lat="42.34979" lon="2.40708">
        <ele>1175.8</ele>
        <time>2022-05-21 21:12:43</time>
      </trkpt>
      <trkpt lat="42.34974" lon="2.40704">
        <ele>1175.8</ele>
        <time>2022-05-21 21:12:44</time>
      </trkpt>
      <trkpt lat="42.34969" lon="2.407">
        <ele>1175.6</ele>
        <time>2022-05-21 21:12:45</time>
      </trkpt>
      <trkpt lat="42.34963" lon="2.40696">
        <ele>1175.6</ele>
        <time>2022-05-21 21:12:46</time>
      </trkpt>
      <trkpt lat="42.34958" lon="2.40692">
        <ele>1175.6</ele>
        <time>2022-05-21 21:12:47</time>
      </trkpt>
      <trkpt lat="42.34953" lon="2.40688">
        <ele>1175.4</ele>
        <time>2022-05-21 21:12:48</time>
      </trkpt>
      <trkpt lat="42.3495" lon="2.40686">
        <ele>1175.6</ele>
        <time>2022-05-21 21:12:49</time>
      </trkpt>
      <trkpt lat="42.34944" lon="2.40678">
        <ele>1175.6</ele>
        <time>2022-05-21 21:12:50</time>
      </trkpt>
      <trkpt lat="42.34941" lon="2.40673">
        <ele>1175.6</ele>
        <time>2022-05-21 21:12:51</time>
      </trkpt>
      <trkpt lat="42.34938" lon="2.40668">
        <ele>1175.6</ele>
        <time>2022-05-21 21:12:52</time>
      </trkpt>
      <trkpt lat="42.34934" lon="2.40663">
        <ele>1175.6</ele>
        <time>2022-05-21 21:12:53</time>
      </trkpt>
      <trkpt lat="42.34929" lon="2.40659">
        <ele>1175.6</ele>
        <time>2022-05-21 21:12:54</time>
      </trkpt>
      <trkpt lat="42.34924" lon="2.40657">
        <ele>1175.8</ele>
        <time>2022-05-21 21:12:55</time>
      </trkpt>
      <trkpt lat="42.34919" lon="2.40656">
        <ele>1175.8</ele>
        <time>2022-05-21 21:12:56</time>
      </trkpt>
      <trkpt lat="42.34914" lon="2.40657">
        <ele>1175.8</ele>
        <time>2022-05-21 21:12:57</time>
      </trkpt>
      <trkpt lat="42.34908" lon="2.40657">
        <ele>1175.8</ele>
        <time>2022-05-21 21:12:58</time>
      </trkpt>
      <trkpt lat="42.34902" lon="2.40656">
        <ele>1175.6</ele>
        <time>2022-05-21 21:12:59</time>
      </trkpt>
      <trkpt lat="42.34897" lon="2.40654">
        <ele>1175.4</ele>
        <time>2022-05-21 21:13:00</time>
      </trkpt>
      <trkpt lat="42.34891" lon="2.40651">
        <ele>1175.2</ele>
        <time>2022-05-21 21:13:01</time>
      </trkpt>
      <trkpt lat="42.34884" lon="2.40647">
        <ele>1174.8</ele>
        <time>2022-05-21 21:13:02</time>
      </trkpt>
      <trkpt lat="42.34878" lon="2.40643">
        <ele>1174.4</ele>
        <time>2022-05-21 21:13:03</time>
      </trkpt>
      <trkpt lat="42.3487" lon="2.40639">
        <ele>1174</ele>
        <time>2022-05-21 21:13:04</time>
      </trkpt>
      <trkpt lat="42.34862" lon="2.40635">
        <ele>1173.4</ele>
        <time>2022-05-21 21:13:05</time>
      </trkpt>
      <trkpt lat="42.34854" lon="2.4063">
        <ele>1173</ele>
        <time>2022-05-21 21:13:06</time>
      </trkpt>
      <trkpt lat="42.34846" lon="2.40626">
        <ele>1172.4</ele>
        <time>2022-05-21 21:13:07</time>
      </trkpt>
      <trkpt lat="42.34838" lon="2.40621">
        <ele>1172</ele>
        <time>2022-05-21 21:13:08</time>
      </trkpt>
      <trkpt lat="42.34829" lon="2.40618">
        <ele>1171.6</ele>
        <time>2022-05-21 21:13:09</time>
      </trkpt>
      <trkpt lat="42.34819" lon="2.40615">
        <ele>1171.2</ele>
        <time>2022-05-21 21:13:10</time>
      </trkpt>
      <trkpt lat="42.34808" lon="2.40613">
        <ele>1170.6</ele>
        <time>2022-05-21 21:13:11</time>
      </trkpt>
      <trkpt lat="42.34797" lon="2.40612">
        <ele>1170.2</ele>
        <time>2022-05-21 21:13:12</time>
      </trkpt>
      <trkpt lat="42.34785" lon="2.40611">
        <ele>1169.4</ele>
        <time>2022-05-21 21:13:13</time>
      </trkpt>
      <trkpt lat="42.34774" lon="2.40612">
        <ele>1168.8</ele>
        <time>2022-05-21 21:13:14</time>
      </trkpt>
      <trkpt lat="42.34763" lon="2.40612">
        <ele>1168</ele>
        <time>2022-05-21 21:13:15</time>
      </trkpt>
      <trkpt lat="42.34752" lon="2.40613">
        <ele>1167.4</ele>
        <time>2022-05-21 21:13:16</time>
      </trkpt>
      <trkpt lat="42.34741" lon="2.40614">
        <ele>1166.8</ele>
        <time>2022-05-21 21:13:17</time>
      </trkpt>
      <trkpt lat="42.3473" lon="2.40613">
        <ele>1166.2</ele>
        <time>2022-05-21 21:13:18</time>
      </trkpt>
      <trkpt lat="42.34717" lon="2.40612">
        <ele>1165.4</ele>
        <time>2022-05-21 21:13:19</time>
      </trkpt>
      <trkpt lat="42.34706" lon="2.40612">
        <ele>1164.6</ele>
        <time>2022-05-21 21:13:20</time>
      </trkpt>
      <trkpt lat="42.34695" lon="2.40612">
        <ele>1164</ele>
        <time>2022-05-21 21:13:21</time>
      </trkpt>
      <trkpt lat="42.34684" lon="2.40611">
        <ele>1163.4</ele>
        <time>2022-05-21 21:13:22</time>
      </trkpt>
      <trkpt lat="42.34673" lon="2.40611">
        <ele>1162.6</ele>
        <time>2022-05-21 21:13:23</time>
      </trkpt>
      <trkpt lat="42.34662" lon="2.40613">
        <ele>1161.8</ele>
        <time>2022-05-21 21:13:24</time>
      </trkpt>
      <trkpt lat="42.34652" lon="2.40617">
        <ele>1161</ele>
        <time>2022-05-21 21:13:25</time>
      </trkpt>
      <trkpt lat="42.34642" lon="2.40621">
        <ele>1160.2</ele>
        <time>2022-05-21 21:13:26</time>
      </trkpt>
      <trkpt lat="42.3463" lon="2.40627">
        <ele>1159.4</ele>
        <time>2022-05-21 21:13:27</time>
      </trkpt>
      <trkpt lat="42.34618" lon="2.40634">
        <ele>1158.6</ele>
        <time>2022-05-21 21:13:28</time>
      </trkpt>
      <trkpt lat="42.34607" lon="2.40641">
        <ele>1158</ele>
        <time>2022-05-21 21:13:29</time>
      </trkpt>
      <trkpt lat="42.34596" lon="2.40646">
        <ele>1157.2</ele>
        <time>2022-05-21 21:13:30</time>
      </trkpt>
      <trkpt lat="42.34584" lon="2.40652">
        <ele>1156.4</ele>
        <time>2022-05-21 21:13:31</time>
      </trkpt>
      <trkpt lat="42.34571" lon="2.40657">
        <ele>1155.4</ele>
        <time>2022-05-21 21:13:32</time>
      </trkpt>
      <trkpt lat="42.34558" lon="2.40662">
        <ele>1154.6</ele>
        <time>2022-05-21 21:13:33</time>
      </trkpt>
      <trkpt lat="42.34545" lon="2.40665">
        <ele>1153.8</ele>
        <time>2022-05-21 21:13:34</time>
      </trkpt>
      <trkpt lat="42.34532" lon="2.40667">
        <ele>1153</ele>
        <time>2022-05-21 21:13:35</time>
      </trkpt>
      <trkpt lat="42.34519" lon="2.40667">
        <ele>1152.2</ele>
        <time>2022-05-21 21:13:36</time>
      </trkpt>
      <trkpt lat="42.34506" lon="2.40667">
        <ele>1151.4</ele>
        <time>2022-05-21 21:13:37</time>
      </trkpt>
      <trkpt lat="42.34494" lon="2.40667">
        <ele>1150.6</ele>
        <time>2022-05-21 21:13:38</time>
      </trkpt>
      <trkpt lat="42.34483" lon="2.40668">
        <ele>1150</ele>
        <time>2022-05-21 21:13:39</time>
      </trkpt>
      <trkpt lat="42.3447" lon="2.40669">
        <ele>1149.4</ele>
        <time>2022-05-21 21:13:40</time>
      </trkpt>
      <trkpt lat="42.34459" lon="2.4067">
        <ele>1148.6</ele>
        <time>2022-05-21 21:13:41</time>
      </trkpt>
      <trkpt lat="42.34446" lon="2.40672">
        <ele>1148</ele>
        <time>2022-05-21 21:13:42</time>
      </trkpt>
      <trkpt lat="42.34433" lon="2.40675">
        <ele>1147.2</ele>
        <time>2022-05-21 21:13:43</time>
      </trkpt>
      <trkpt lat="42.3442" lon="2.40678">
        <ele>1146.4</ele>
        <time>2022-05-21 21:13:44</time>
      </trkpt>
      <trkpt lat="42.34408" lon="2.40683">
        <ele>1145.8</ele>
        <time>2022-05-21 21:13:45</time>
      </trkpt>
      <trkpt lat="42.34396" lon="2.40689">
        <ele>1145</ele>
        <time>2022-05-21 21:13:46</time>
      </trkpt>
      <trkpt lat="42.34384" lon="2.40695">
        <ele>1144.4</ele>
        <time>2022-05-21 21:13:47</time>
      </trkpt>
      <trkpt lat="42.34372" lon="2.40701">
        <ele>1143.8</ele>
        <time>2022-05-21 21:13:48</time>
      </trkpt>
      <trkpt lat="42.34362" lon="2.40705">
        <ele>1143</ele>
        <time>2022-05-21 21:13:49</time>
      </trkpt>
      <trkpt lat="42.34349" lon="2.40707">
        <ele>1142.4</ele>
        <time>2022-05-21 21:13:50</time>
      </trkpt>
      <trkpt lat="42.3434" lon="2.40703">
        <ele>1141.8</ele>
        <time>2022-05-21 21:13:51</time>
      </trkpt>
      <trkpt lat="42.3433" lon="2.40693">
        <ele>1141</ele>
        <time>2022-05-21 21:13:52</time>
      </trkpt>
      <trkpt lat="42.34324" lon="2.40678">
        <ele>1140.4</ele>
        <time>2022-05-21 21:13:53</time>
      </trkpt>
      <trkpt lat="42.34319" lon="2.40662">
        <ele>1139.6</ele>
        <time>2022-05-21 21:13:54</time>
      </trkpt>
      <trkpt lat="42.34316" lon="2.40645">
        <ele>1138.8</ele>
        <time>2022-05-21 21:13:55</time>
      </trkpt>
      <trkpt lat="42.34313" lon="2.40629">
        <ele>1138.2</ele>
        <time>2022-05-21 21:13:56</time>
      </trkpt>
      <trkpt lat="42.34307" lon="2.40616">
        <ele>1137.6</ele>
        <time>2022-05-21 21:13:57</time>
      </trkpt>
      <trkpt lat="42.34299" lon="2.40603">
        <ele>1137</ele>
        <time>2022-05-21 21:13:58</time>
      </trkpt>
      <trkpt lat="42.34289" lon="2.40593">
        <ele>1136.6</ele>
        <time>2022-05-21 21:13:59</time>
      </trkpt>
      <trkpt lat="42.34277" lon="2.40588">
        <ele>1136</ele>
        <time>2022-05-21 21:14:00</time>
      </trkpt>
      <trkpt lat="42.34267" lon="2.40586">
        <ele>1135.4</ele>
        <time>2022-05-21 21:14:01</time>
      </trkpt>
      <trkpt lat="42.34255" lon="2.40585">
        <ele>1134.8</ele>
        <time>2022-05-21 21:14:02</time>
      </trkpt>
      <trkpt lat="42.34244" lon="2.40582">
        <ele>1134.4</ele>
        <time>2022-05-21 21:14:03</time>
      </trkpt>
      <trkpt lat="42.34232" lon="2.40577">
        <ele>1133.8</ele>
        <time>2022-05-21 21:14:04</time>
      </trkpt>
      <trkpt lat="42.34221" lon="2.40569">
        <ele>1133.2</ele>
        <time>2022-05-21 21:14:05</time>
      </trkpt>
      <trkpt lat="42.34212" lon="2.40559">
        <ele>1132.4</ele>
        <time>2022-05-21 21:14:06</time>
      </trkpt>
      <trkpt lat="42.34204" lon="2.40547">
        <ele>1131.6</ele>
        <time>2022-05-21 21:14:07</time>
      </trkpt>
      <trkpt lat="42.34196" lon="2.40534">
        <ele>1130.8</ele>
        <time>2022-05-21 21:14:08</time>
      </trkpt>
      <trkpt lat="42.34189" lon="2.40519">
        <ele>1130</ele>
        <time>2022-05-21 21:14:09</time>
      </trkpt>
      <trkpt lat="42.34182" lon="2.40505">
        <ele>1129.2</ele>
        <time>2022-05-21 21:14:10</time>
      </trkpt>
      <trkpt lat="42.34176" lon="2.40492">
        <ele>1128.4</ele>
        <time>2022-05-21 21:14:11</time>
      </trkpt>
      <trkpt lat="42.3417" lon="2.40479">
        <ele>1127.6</ele>
        <time>2022-05-21 21:14:12</time>
      </trkpt>
      <trkpt lat="42.34161" lon="2.40465">
        <ele>1126.8</ele>
        <time>2022-05-21 21:14:13</time>
      </trkpt>
      <trkpt lat="42.3415" lon="2.40452">
        <ele>1126</ele>
        <time>2022-05-21 21:14:14</time>
      </trkpt>
      <trkpt lat="42.34139" lon="2.4044">
        <ele>1125.2</ele>
        <time>2022-05-21 21:14:15</time>
      </trkpt>
      <trkpt lat="42.34129" lon="2.40431">
        <ele>1124.6</ele>
        <time>2022-05-21 21:14:16</time>
      </trkpt>
      <trkpt lat="42.3412" lon="2.4042">
        <ele>1123.6</ele>
        <time>2022-05-21 21:14:17</time>
      </trkpt>
      <trkpt lat="42.34112" lon="2.40408">
        <ele>1123</ele>
        <time>2022-05-21 21:14:18</time>
      </trkpt>
      <trkpt lat="42.34107" lon="2.40394">
        <ele>1122.2</ele>
        <time>2022-05-21 21:14:19</time>
      </trkpt>
      <trkpt lat="42.34108" lon="2.40378">
        <ele>1121.4</ele>
        <time>2022-05-21 21:14:20</time>
      </trkpt>
      <trkpt lat="42.34112" lon="2.40363">
        <ele>1120.6</ele>
        <time>2022-05-21 21:14:21</time>
      </trkpt>
      <trkpt lat="42.3412" lon="2.40349">
        <ele>1119.8</ele>
        <time>2022-05-21 21:14:22</time>
      </trkpt>
      <trkpt lat="42.34129" lon="2.40337">
        <ele>1119.2</ele>
        <time>2022-05-21 21:14:23</time>
      </trkpt>
      <trkpt lat="42.34138" lon="2.40326">
        <ele>1118.6</ele>
        <time>2022-05-21 21:14:24</time>
      </trkpt>
      <trkpt lat="42.34147" lon="2.40316">
        <ele>1118.2</ele>
        <time>2022-05-21 21:14:25</time>
      </trkpt>
      <trkpt lat="42.34157" lon="2.40307">
        <ele>1117.8</ele>
        <time>2022-05-21 21:14:26</time>
      </trkpt>
      <trkpt lat="42.34167" lon="2.40298">
        <ele>1117.2</ele>
        <time>2022-05-21 21:14:27</time>
      </trkpt>
      <trkpt lat="42.34177" lon="2.40289">
        <ele>1116.6</ele>
        <time>2022-05-21 21:14:28</time>
      </trkpt>
      <trkpt lat="42.34186" lon="2.4028">
        <ele>1116</ele>
        <time>2022-05-21 21:14:29</time>
      </trkpt>
      <trkpt lat="42.34195" lon="2.40269">
        <ele>1115.4</ele>
        <time>2022-05-21 21:14:30</time>
      </trkpt>
      <trkpt lat="42.34203" lon="2.40256">
        <ele>1114.6</ele>
        <time>2022-05-21 21:14:31</time>
      </trkpt>
      <trkpt lat="42.34209" lon="2.40242">
        <ele>1114</ele>
        <time>2022-05-21 21:14:32</time>
      </trkpt>
      <trkpt lat="42.34214" lon="2.40227">
        <ele>1113</ele>
        <time>2022-05-21 21:14:33</time>
      </trkpt>
      <trkpt lat="42.34219" lon="2.40212">
        <ele>1112.2</ele>
        <time>2022-05-21 21:14:34</time>
      </trkpt>
      <trkpt lat="42.34224" lon="2.40197">
        <ele>1111.2</ele>
        <time>2022-05-21 21:14:35</time>
      </trkpt>
      <trkpt lat="42.3423" lon="2.40183">
        <ele>1110.4</ele>
        <time>2022-05-21 21:14:36</time>
      </trkpt>
      <trkpt lat="42.34238" lon="2.40171">
        <ele>1109.6</ele>
        <time>2022-05-21 21:14:37</time>
      </trkpt>
      <trkpt lat="42.34249" lon="2.40162">
        <ele>1108.6</ele>
        <time>2022-05-21 21:14:38</time>
      </trkpt>
      <trkpt lat="42.3426" lon="2.40154">
        <ele>1108.2</ele>
        <time>2022-05-21 21:14:39</time>
      </trkpt>
      <trkpt lat="42.34271" lon="2.40146">
        <ele>1107.6</ele>
        <time>2022-05-21 21:14:40</time>
      </trkpt>
      <trkpt lat="42.34279" lon="2.40139">
        <ele>1107.4</ele>
        <time>2022-05-21 21:14:41</time>
      </trkpt>
      <trkpt lat="42.34285" lon="2.40131">
        <ele>1107.4</ele>
        <time>2022-05-21 21:14:42</time>
      </trkpt>
      <trkpt lat="42.34287" lon="2.40123">
        <ele>1107.2</ele>
        <time>2022-05-21 21:14:43</time>
      </trkpt>
      <trkpt lat="42.34284" lon="2.40113">
        <ele>1107</ele>
        <time>2022-05-21 21:14:44</time>
      </trkpt>
      <trkpt lat="42.34282" lon="2.40102">
        <ele>1106.6</ele>
        <time>2022-05-21 21:14:45</time>
      </trkpt>
      <trkpt lat="42.34279" lon="2.40093">
        <ele>1106.2</ele>
        <time>2022-05-21 21:14:46</time>
      </trkpt>
      <trkpt lat="42.34275" lon="2.40086">
        <ele>1105.8</ele>
        <time>2022-05-21 21:14:47</time>
      </trkpt>
      <trkpt lat="42.3427" lon="2.40081">
        <ele>1105.2</ele>
        <time>2022-05-21 21:14:48</time>
      </trkpt>
      <trkpt lat="42.34265" lon="2.4008">
        <ele>1104.8</ele>
        <time>2022-05-21 21:14:49</time>
      </trkpt>
      <trkpt lat="42.34258" lon="2.4008">
        <ele>1104.4</ele>
        <time>2022-05-21 21:14:50</time>
      </trkpt>
      <trkpt lat="42.34248" lon="2.40087">
        <ele>1103.8</ele>
        <time>2022-05-21 21:14:51</time>
      </trkpt>
      <trkpt lat="42.34236" lon="2.40099">
        <ele>1103</ele>
        <time>2022-05-21 21:14:52</time>
      </trkpt>
      <trkpt lat="42.34224" lon="2.4011">
        <ele>1102.2</ele>
        <time>2022-05-21 21:14:53</time>
      </trkpt>
      <trkpt lat="42.34213" lon="2.40122">
        <ele>1101.6</ele>
        <time>2022-05-21 21:14:54</time>
      </trkpt>
      <trkpt lat="42.34203" lon="2.40134">
        <ele>1100.8</ele>
        <time>2022-05-21 21:14:55</time>
      </trkpt>
      <trkpt lat="42.34191" lon="2.40145">
        <ele>1100.2</ele>
        <time>2022-05-21 21:14:56</time>
      </trkpt>
      <trkpt lat="42.34178" lon="2.40156">
        <ele>1099.4</ele>
        <time>2022-05-21 21:14:57</time>
      </trkpt>
      <trkpt lat="42.34165" lon="2.40164">
        <ele>1098.6</ele>
        <time>2022-05-21 21:14:58</time>
      </trkpt>
      <trkpt lat="42.34153" lon="2.40172">
        <ele>1097.8</ele>
        <time>2022-05-21 21:14:59</time>
      </trkpt>
      <trkpt lat="42.34139" lon="2.40179">
        <ele>1097</ele>
        <time>2022-05-21 21:15:00</time>
      </trkpt>
      <trkpt lat="42.34126" lon="2.40183">
        <ele>1096.2</ele>
        <time>2022-05-21 21:15:01</time>
      </trkpt>
      <trkpt lat="42.34113" lon="2.40186">
        <ele>1095.2</ele>
        <time>2022-05-21 21:15:02</time>
      </trkpt>
      <trkpt lat="42.341" lon="2.40187">
        <ele>1094.4</ele>
        <time>2022-05-21 21:15:03</time>
      </trkpt>
      <trkpt lat="42.34088" lon="2.40188">
        <ele>1093.6</ele>
        <time>2022-05-21 21:15:04</time>
      </trkpt>
      <trkpt lat="42.34075" lon="2.40188">
        <ele>1092.8</ele>
        <time>2022-05-21 21:15:05</time>
      </trkpt>
      <trkpt lat="42.34062" lon="2.40188">
        <ele>1092</ele>
        <time>2022-05-21 21:15:06</time>
      </trkpt>
      <trkpt lat="42.34048" lon="2.40189">
        <ele>1091.2</ele>
        <time>2022-05-21 21:15:07</time>
      </trkpt>
      <trkpt lat="42.34035" lon="2.40189">
        <ele>1090.2</ele>
        <time>2022-05-21 21:15:08</time>
      </trkpt>
      <trkpt lat="42.34023" lon="2.40188">
        <ele>1089.4</ele>
        <time>2022-05-21 21:15:09</time>
      </trkpt>
      <trkpt lat="42.3401" lon="2.40185">
        <ele>1088.6</ele>
        <time>2022-05-21 21:15:10</time>
      </trkpt>
      <trkpt lat="42.33998" lon="2.40178">
        <ele>1087.8</ele>
        <time>2022-05-21 21:15:11</time>
      </trkpt>
      <trkpt lat="42.33989" lon="2.40167">
        <ele>1087.2</ele>
        <time>2022-05-21 21:15:12</time>
      </trkpt>
      <trkpt lat="42.33982" lon="2.40151">
        <ele>1086.2</ele>
        <time>2022-05-21 21:15:13</time>
      </trkpt>
      <trkpt lat="42.33978" lon="2.40133">
        <ele>1085.4</ele>
        <time>2022-05-21 21:15:14</time>
      </trkpt>
      <trkpt lat="42.33974" lon="2.40114">
        <ele>1084.6</ele>
        <time>2022-05-21 21:15:15</time>
      </trkpt>
      <trkpt lat="42.33971" lon="2.40094">
        <ele>1083.6</ele>
        <time>2022-05-21 21:15:16</time>
      </trkpt>
      <trkpt lat="42.33967" lon="2.40076">
        <ele>1082.8</ele>
        <time>2022-05-21 21:15:17</time>
      </trkpt>
      <trkpt lat="42.33965" lon="2.40059">
        <ele>1082.2</ele>
        <time>2022-05-21 21:15:18</time>
      </trkpt>
      <trkpt lat="42.33963" lon="2.40043">
        <ele>1081.4</ele>
        <time>2022-05-21 21:15:19</time>
      </trkpt>
      <trkpt lat="42.33959" lon="2.40028">
        <ele>1080.8</ele>
        <time>2022-05-21 21:15:20</time>
      </trkpt>
      <trkpt lat="42.33954" lon="2.40013">
        <ele>1080</ele>
        <time>2022-05-21 21:15:21</time>
      </trkpt>
      <trkpt lat="42.33949" lon="2.39999">
        <ele>1079.4</ele>
        <time>2022-05-21 21:15:22</time>
      </trkpt>
      <trkpt lat="42.33942" lon="2.39985">
        <ele>1078.8</ele>
        <time>2022-05-21 21:15:23</time>
      </trkpt>
      <trkpt lat="42.33933" lon="2.39972">
        <ele>1078.2</ele>
        <time>2022-05-21 21:15:24</time>
      </trkpt>
      <trkpt lat="42.33923" lon="2.3996">
        <ele>1077.6</ele>
        <time>2022-05-21 21:15:25</time>
      </trkpt>
      <trkpt lat="42.33913" lon="2.39952">
        <ele>1077</ele>
        <time>2022-05-21 21:15:26</time>
      </trkpt>
      <trkpt lat="42.33903" lon="2.39947">
        <ele>1076.2</ele>
        <time>2022-05-21 21:15:27</time>
      </trkpt>
      <trkpt lat="42.33891" lon="2.39945">
        <ele>1075.6</ele>
        <time>2022-05-21 21:15:28</time>
      </trkpt>
      <trkpt lat="42.33879" lon="2.39945">
        <ele>1075</ele>
        <time>2022-05-21 21:15:29</time>
      </trkpt>
      <trkpt lat="42.33867" lon="2.39948">
        <ele>1074.4</ele>
        <time>2022-05-21 21:15:30</time>
      </trkpt>
      <trkpt lat="42.33854" lon="2.39951">
        <ele>1073.8</ele>
        <time>2022-05-21 21:15:31</time>
      </trkpt>
      <trkpt lat="42.33842" lon="2.39953">
        <ele>1073.2</ele>
        <time>2022-05-21 21:15:32</time>
      </trkpt>
      <trkpt lat="42.33829" lon="2.39952">
        <ele>1072.6</ele>
        <time>2022-05-21 21:15:33</time>
      </trkpt>
      <trkpt lat="42.33818" lon="2.39946">
        <ele>1071.8</ele>
        <time>2022-05-21 21:15:34</time>
      </trkpt>
      <trkpt lat="42.3381" lon="2.39936">
        <ele>1071</ele>
        <time>2022-05-21 21:15:35</time>
      </trkpt>
      <trkpt lat="42.33806" lon="2.39922">
        <ele>1070</ele>
        <time>2022-05-21 21:15:36</time>
      </trkpt>
      <trkpt lat="42.33804" lon="2.39906">
        <ele>1069</ele>
        <time>2022-05-21 21:15:37</time>
      </trkpt>
      <trkpt lat="42.33807" lon="2.39891">
        <ele>1068.2</ele>
        <time>2022-05-21 21:15:38</time>
      </trkpt>
      <trkpt lat="42.33814" lon="2.39876">
        <ele>1067.4</ele>
        <time>2022-05-21 21:15:39</time>
      </trkpt>
      <trkpt lat="42.33822" lon="2.39864">
        <ele>1066.8</ele>
        <time>2022-05-21 21:15:40</time>
      </trkpt>
      <trkpt lat="42.33833" lon="2.39855">
        <ele>1066</ele>
        <time>2022-05-21 21:15:41</time>
      </trkpt>
      <trkpt lat="42.33845" lon="2.39847">
        <ele>1065.4</ele>
        <time>2022-05-21 21:15:42</time>
      </trkpt>
      <trkpt lat="42.33855" lon="2.39838">
        <ele>1064.8</ele>
        <time>2022-05-21 21:15:43</time>
      </trkpt>
      <trkpt lat="42.33865" lon="2.39828">
        <ele>1064</ele>
        <time>2022-05-21 21:15:44</time>
      </trkpt>
      <trkpt lat="42.33874" lon="2.39817">
        <ele>1063.2</ele>
        <time>2022-05-21 21:15:45</time>
      </trkpt>
      <trkpt lat="42.33883" lon="2.39806">
        <ele>1062.4</ele>
        <time>2022-05-21 21:15:46</time>
      </trkpt>
      <trkpt lat="42.33891" lon="2.39795">
        <ele>1061.8</ele>
        <time>2022-05-21 21:15:47</time>
      </trkpt>
      <trkpt lat="42.33899" lon="2.39783">
        <ele>1060.8</ele>
        <time>2022-05-21 21:15:48</time>
      </trkpt>
      <trkpt lat="42.33907" lon="2.39771">
        <ele>1060</ele>
        <time>2022-05-21 21:15:49</time>
      </trkpt>
      <trkpt lat="42.33915" lon="2.39758">
        <ele>1059.4</ele>
        <time>2022-05-21 21:15:50</time>
      </trkpt>
      <trkpt lat="42.33923" lon="2.39746">
        <ele>1058.6</ele>
        <time>2022-05-21 21:15:51</time>
      </trkpt>
      <trkpt lat="42.33931" lon="2.39734">
        <ele>1058</ele>
        <time>2022-05-21 21:15:52</time>
      </trkpt>
      <trkpt lat="42.33939" lon="2.39723">
        <ele>1057.4</ele>
        <time>2022-05-21 21:15:53</time>
      </trkpt>
      <trkpt lat="42.33946" lon="2.3971">
        <ele>1056.8</ele>
        <time>2022-05-21 21:15:54</time>
      </trkpt>
      <trkpt lat="42.33953" lon="2.39698">
        <ele>1056.4</ele>
        <time>2022-05-21 21:15:55</time>
      </trkpt>
      <trkpt lat="42.33958" lon="2.39684">
        <ele>1056</ele>
        <time>2022-05-21 21:15:56</time>
      </trkpt>
      <trkpt lat="42.33961" lon="2.3967">
        <ele>1055.6</ele>
        <time>2022-05-21 21:15:57</time>
      </trkpt>
      <trkpt lat="42.33961" lon="2.39656">
        <ele>1055.4</ele>
        <time>2022-05-21 21:15:58</time>
      </trkpt>
      <trkpt lat="42.33959" lon="2.39643">
        <ele>1055.2</ele>
        <time>2022-05-21 21:15:59</time>
      </trkpt>
      <trkpt lat="42.33954" lon="2.39632">
        <ele>1055</ele>
        <time>2022-05-21 21:16:00</time>
      </trkpt>
      <trkpt lat="42.33945" lon="2.39626">
        <ele>1055</ele>
        <time>2022-05-21 21:16:01</time>
      </trkpt>
      <trkpt lat="42.33935" lon="2.39626">
        <ele>1054.8</ele>
        <time>2022-05-21 21:16:02</time>
      </trkpt>
      <trkpt lat="42.33926" lon="2.3963">
        <ele>1054.6</ele>
        <time>2022-05-21 21:16:03</time>
      </trkpt>
      <trkpt lat="42.33918" lon="2.39637">
        <ele>1054.6</ele>
        <time>2022-05-21 21:16:04</time>
      </trkpt>
      <trkpt lat="42.3391" lon="2.39646">
        <ele>1054.4</ele>
        <time>2022-05-21 21:16:05</time>
      </trkpt>
      <trkpt lat="42.33903" lon="2.39656">
        <ele>1054.2</ele>
        <time>2022-05-21 21:16:06</time>
      </trkpt>
      <trkpt lat="42.33896" lon="2.39666">
        <ele>1054</ele>
        <time>2022-05-21 21:16:07</time>
      </trkpt>
      <trkpt lat="42.33889" lon="2.39676">
        <ele>1053.8</ele>
        <time>2022-05-21 21:16:08</time>
      </trkpt>
      <trkpt lat="42.33881" lon="2.39685">
        <ele>1053.6</ele>
        <time>2022-05-21 21:16:09</time>
      </trkpt>
      <trkpt lat="42.33873" lon="2.39694">
        <ele>1053.4</ele>
        <time>2022-05-21 21:16:10</time>
      </trkpt>
      <trkpt lat="42.33866" lon="2.39702">
        <ele>1053.2</ele>
        <time>2022-05-21 21:16:11</time>
      </trkpt>
      <trkpt lat="42.33859" lon="2.3971">
        <ele>1053</ele>
        <time>2022-05-21 21:16:12</time>
      </trkpt>
      <trkpt lat="42.33853" lon="2.39719">
        <ele>1052.8</ele>
        <time>2022-05-21 21:16:13</time>
      </trkpt>
      <trkpt lat="42.33845" lon="2.39727">
        <ele>1052.8</ele>
        <time>2022-05-21 21:16:14</time>
      </trkpt>
      <trkpt lat="42.33838" lon="2.39734">
        <ele>1052.6</ele>
        <time>2022-05-21 21:16:15</time>
      </trkpt>
      <trkpt lat="42.33832" lon="2.39741">
        <ele>1052.4</ele>
        <time>2022-05-21 21:16:16</time>
      </trkpt>
      <trkpt lat="42.33824" lon="2.39748">
        <ele>1052.2</ele>
        <time>2022-05-21 21:16:17</time>
      </trkpt>
      <trkpt lat="42.33817" lon="2.39756">
        <ele>1052</ele>
        <time>2022-05-21 21:16:18</time>
      </trkpt>
      <trkpt lat="42.3381" lon="2.39762">
        <ele>1051.8</ele>
        <time>2022-05-21 21:16:19</time>
      </trkpt>
      <trkpt lat="42.33802" lon="2.39768">
        <ele>1051.8</ele>
        <time>2022-05-21 21:16:20</time>
      </trkpt>
      <trkpt lat="42.33794" lon="2.39775">
        <ele>1051.6</ele>
        <time>2022-05-21 21:16:21</time>
      </trkpt>
      <trkpt lat="42.33787" lon="2.3978">
        <ele>1051.6</ele>
        <time>2022-05-21 21:16:22</time>
      </trkpt>
      <trkpt lat="42.33779" lon="2.39785">
        <ele>1051.4</ele>
        <time>2022-05-21 21:16:23</time>
      </trkpt>
      <trkpt lat="42.33771" lon="2.3979">
        <ele>1051</ele>
        <time>2022-05-21 21:16:24</time>
      </trkpt>
      <trkpt lat="42.33764" lon="2.39795">
        <ele>1050.8</ele>
        <time>2022-05-21 21:16:25</time>
      </trkpt>
      <trkpt lat="42.33757" lon="2.39801">
        <ele>1050.6</ele>
        <time>2022-05-21 21:16:26</time>
      </trkpt>
      <trkpt lat="42.33749" lon="2.39808">
        <ele>1050.4</ele>
        <time>2022-05-21 21:16:27</time>
      </trkpt>
      <trkpt lat="42.33741" lon="2.39814">
        <ele>1050</ele>
        <time>2022-05-21 21:16:28</time>
      </trkpt>
      <trkpt lat="42.33734" lon="2.39821">
        <ele>1049.8</ele>
        <time>2022-05-21 21:16:29</time>
      </trkpt>
      <trkpt lat="42.33727" lon="2.39829">
        <ele>1049.4</ele>
        <time>2022-05-21 21:16:30</time>
      </trkpt>
      <trkpt lat="42.3372" lon="2.39838">
        <ele>1049.2</ele>
        <time>2022-05-21 21:16:31</time>
      </trkpt>
      <trkpt lat="42.33714" lon="2.39847">
        <ele>1048.8</ele>
        <time>2022-05-21 21:16:32</time>
      </trkpt>
      <trkpt lat="42.33707" lon="2.39856">
        <ele>1048.4</ele>
        <time>2022-05-21 21:16:33</time>
      </trkpt>
      <trkpt lat="42.33699" lon="2.39866">
        <ele>1048</ele>
        <time>2022-05-21 21:16:34</time>
      </trkpt>
      <trkpt lat="42.33692" lon="2.39876">
        <ele>1047.6</ele>
        <time>2022-05-21 21:16:35</time>
      </trkpt>
      <trkpt lat="42.33684" lon="2.39885">
        <ele>1047.2</ele>
        <time>2022-05-21 21:16:36</time>
      </trkpt>
      <trkpt lat="42.33677" lon="2.39894">
        <ele>1047</ele>
        <time>2022-05-21 21:16:37</time>
      </trkpt>
      <trkpt lat="42.33669" lon="2.39902">
        <ele>1046.6</ele>
        <time>2022-05-21 21:16:38</time>
      </trkpt>
      <trkpt lat="42.33661" lon="2.39909">
        <ele>1046.2</ele>
        <time>2022-05-21 21:16:39</time>
      </trkpt>
      <trkpt lat="42.33654" lon="2.39918">
        <ele>1046</ele>
        <time>2022-05-21 21:16:40</time>
      </trkpt>
      <trkpt lat="42.33646" lon="2.39928">
        <ele>1045.6</ele>
        <time>2022-05-21 21:16:41</time>
      </trkpt>
      <trkpt lat="42.33638" lon="2.39937">
        <ele>1045.2</ele>
        <time>2022-05-21 21:16:42</time>
      </trkpt>
      <trkpt lat="42.3363" lon="2.39945">
        <ele>1044.8</ele>
        <time>2022-05-21 21:16:43</time>
      </trkpt>
      <trkpt lat="42.33621" lon="2.39952">
        <ele>1044.6</ele>
        <time>2022-05-21 21:16:44</time>
      </trkpt>
      <trkpt lat="42.33612" lon="2.39958">
        <ele>1044.2</ele>
        <time>2022-05-21 21:16:45</time>
      </trkpt>
      <trkpt lat="42.33602" lon="2.39962">
        <ele>1043.8</ele>
        <time>2022-05-21 21:16:46</time>
      </trkpt>
      <trkpt lat="42.33593" lon="2.39965">
        <ele>1043.6</ele>
        <time>2022-05-21 21:16:47</time>
      </trkpt>
      <trkpt lat="42.33583" lon="2.39967">
        <ele>1043.4</ele>
        <time>2022-05-21 21:16:48</time>
      </trkpt>
      <trkpt lat="42.33573" lon="2.39968">
        <ele>1043.4</ele>
        <time>2022-05-21 21:16:49</time>
      </trkpt>
      <trkpt lat="42.33563" lon="2.3997">
        <ele>1043.2</ele>
        <time>2022-05-21 21:16:50</time>
      </trkpt>
      <trkpt lat="42.33554" lon="2.39972">
        <ele>1043</ele>
        <time>2022-05-21 21:16:51</time>
      </trkpt>
      <trkpt lat="42.33545" lon="2.39975">
        <ele>1043</ele>
        <time>2022-05-21 21:16:52</time>
      </trkpt>
      <trkpt lat="42.33537" lon="2.39979">
        <ele>1042.8</ele>
        <time>2022-05-21 21:16:53</time>
      </trkpt>
      <trkpt lat="42.33529" lon="2.39984">
        <ele>1042.8</ele>
        <time>2022-05-21 21:16:54</time>
      </trkpt>
      <trkpt lat="42.33521" lon="2.39989">
        <ele>1042.6</ele>
        <time>2022-05-21 21:16:55</time>
      </trkpt>
      <trkpt lat="42.33515" lon="2.39998">
        <ele>1042.4</ele>
        <time>2022-05-21 21:16:56</time>
      </trkpt>
      <trkpt lat="42.33509" lon="2.40009">
        <ele>1042.4</ele>
        <time>2022-05-21 21:16:57</time>
      </trkpt>
      <trkpt lat="42.33504" lon="2.4002">
        <ele>1042.2</ele>
        <time>2022-05-21 21:16:58</time>
      </trkpt>
      <trkpt lat="42.33499" lon="2.4003">
        <ele>1042.2</ele>
        <time>2022-05-21 21:16:59</time>
      </trkpt>
      <trkpt lat="42.33494" lon="2.4004">
        <ele>1042</ele>
        <time>2022-05-21 21:17:00</time>
      </trkpt>
      <trkpt lat="42.33488" lon="2.4005">
        <ele>1042</ele>
        <time>2022-05-21 21:17:01</time>
      </trkpt>
      <trkpt lat="42.33483" lon="2.40059">
        <ele>1041.8</ele>
        <time>2022-05-21 21:17:02</time>
      </trkpt>
      <trkpt lat="42.33477" lon="2.40069">
        <ele>1041.6</ele>
        <time>2022-05-21 21:17:03</time>
      </trkpt>
      <trkpt lat="42.3347" lon="2.40078">
        <ele>1041.2</ele>
        <time>2022-05-21 21:17:04</time>
      </trkpt>
      <trkpt lat="42.33463" lon="2.40085">
        <ele>1041</ele>
        <time>2022-05-21 21:17:05</time>
      </trkpt>
      <trkpt lat="42.33456" lon="2.40091">
        <ele>1040.8</ele>
        <time>2022-05-21 21:17:06</time>
      </trkpt>
      <trkpt lat="42.33447" lon="2.40096">
        <ele>1040.6</ele>
        <time>2022-05-21 21:17:07</time>
      </trkpt>
      <trkpt lat="42.33438" lon="2.401">
        <ele>1040.2</ele>
        <time>2022-05-21 21:17:08</time>
      </trkpt>
      <trkpt lat="42.3343" lon="2.40103">
        <ele>1040</ele>
        <time>2022-05-21 21:17:09</time>
      </trkpt>
      <trkpt lat="42.33421" lon="2.40106">
        <ele>1039.6</ele>
        <time>2022-05-21 21:17:10</time>
      </trkpt>
      <trkpt lat="42.33412" lon="2.40108">
        <ele>1039</ele>
        <time>2022-05-21 21:17:11</time>
      </trkpt>
      <trkpt lat="42.33402" lon="2.40109">
        <ele>1038.6</ele>
        <time>2022-05-21 21:17:12</time>
      </trkpt>
      <trkpt lat="42.33392" lon="2.40109">
        <ele>1038</ele>
        <time>2022-05-21 21:17:13</time>
      </trkpt>
      <trkpt lat="42.33382" lon="2.40105">
        <ele>1037.4</ele>
        <time>2022-05-21 21:17:14</time>
      </trkpt>
      <trkpt lat="42.33372" lon="2.40098">
        <ele>1036.6</ele>
        <time>2022-05-21 21:17:15</time>
      </trkpt>
      <trkpt lat="42.33364" lon="2.40087">
        <ele>1036</ele>
        <time>2022-05-21 21:17:16</time>
      </trkpt>
      <trkpt lat="42.3336" lon="2.40071">
        <ele>1035.2</ele>
        <time>2022-05-21 21:17:17</time>
      </trkpt>
      <trkpt lat="42.33359" lon="2.40055">
        <ele>1034.4</ele>
        <time>2022-05-21 21:17:18</time>
      </trkpt>
      <trkpt lat="42.3336" lon="2.40039">
        <ele>1033.8</ele>
        <time>2022-05-21 21:17:19</time>
      </trkpt>
      <trkpt lat="42.33364" lon="2.40023">
        <ele>1033</ele>
        <time>2022-05-21 21:17:20</time>
      </trkpt>
      <trkpt lat="42.33368" lon="2.40008">
        <ele>1032.2</ele>
        <time>2022-05-21 21:17:21</time>
      </trkpt>
      <trkpt lat="42.33372" lon="2.39993">
        <ele>1031.4</ele>
        <time>2022-05-21 21:17:22</time>
      </trkpt>
      <trkpt lat="42.33376" lon="2.39979">
        <ele>1030.8</ele>
        <time>2022-05-21 21:17:23</time>
      </trkpt>
      <trkpt lat="42.3338" lon="2.39963">
        <ele>1030</ele>
        <time>2022-05-21 21:17:24</time>
      </trkpt>
      <trkpt lat="42.33383" lon="2.39948">
        <ele>1029.4</ele>
        <time>2022-05-21 21:17:25</time>
      </trkpt>
      <trkpt lat="42.33387" lon="2.39933">
        <ele>1028.8</ele>
        <time>2022-05-21 21:17:26</time>
      </trkpt>
      <trkpt lat="42.33389" lon="2.39917">
        <ele>1028.2</ele>
        <time>2022-05-21 21:17:27</time>
      </trkpt>
      <trkpt lat="42.33389" lon="2.39901">
        <ele>1027.6</ele>
        <time>2022-05-21 21:17:28</time>
      </trkpt>
      <trkpt lat="42.33388" lon="2.39886">
        <ele>1027</ele>
        <time>2022-05-21 21:17:29</time>
      </trkpt>
      <trkpt lat="42.33386" lon="2.39871">
        <ele>1026.6</ele>
        <time>2022-05-21 21:17:30</time>
      </trkpt>
      <trkpt lat="42.3338" lon="2.39857">
        <ele>1026.2</ele>
        <time>2022-05-21 21:17:31</time>
      </trkpt>
      <trkpt lat="42.33373" lon="2.39845">
        <ele>1025.8</ele>
        <time>2022-05-21 21:17:32</time>
      </trkpt>
      <trkpt lat="42.33365" lon="2.39834">
        <ele>1025.4</ele>
        <time>2022-05-21 21:17:33</time>
      </trkpt>
      <trkpt lat="42.33356" lon="2.39825">
        <ele>1025</ele>
        <time>2022-05-21 21:17:34</time>
      </trkpt>
      <trkpt lat="42.33347" lon="2.39817">
        <ele>1024.6</ele>
        <time>2022-05-21 21:17:35</time>
      </trkpt>
      <trkpt lat="42.33338" lon="2.3981">
        <ele>1024.2</ele>
        <time>2022-05-21 21:17:36</time>
      </trkpt>
      <trkpt lat="42.33329" lon="2.39805">
        <ele>1024</ele>
        <time>2022-05-21 21:17:37</time>
      </trkpt>
      <trkpt lat="42.3332" lon="2.39803">
        <ele>1023.6</ele>
        <time>2022-05-21 21:17:38</time>
      </trkpt>
      <trkpt lat="42.33309" lon="2.39806">
        <ele>1023.2</ele>
        <time>2022-05-21 21:17:39</time>
      </trkpt>
      <trkpt lat="42.33297" lon="2.39811">
        <ele>1022.8</ele>
        <time>2022-05-21 21:17:40</time>
      </trkpt>
      <trkpt lat="42.33285" lon="2.39816">
        <ele>1022.4</ele>
        <time>2022-05-21 21:17:41</time>
      </trkpt>
      <trkpt lat="42.33273" lon="2.3982">
        <ele>1022.2</ele>
        <time>2022-05-21 21:17:42</time>
      </trkpt>
      <trkpt lat="42.33261" lon="2.39824">
        <ele>1021.8</ele>
        <time>2022-05-21 21:17:43</time>
      </trkpt>
      <trkpt lat="42.3325" lon="2.39827">
        <ele>1021.4</ele>
        <time>2022-05-21 21:17:44</time>
      </trkpt>
      <trkpt lat="42.33239" lon="2.39829">
        <ele>1020.8</ele>
        <time>2022-05-21 21:17:45</time>
      </trkpt>
      <trkpt lat="42.33228" lon="2.3983">
        <ele>1020.4</ele>
        <time>2022-05-21 21:17:46</time>
      </trkpt>
      <trkpt lat="42.33218" lon="2.3983">
        <ele>1020</ele>
        <time>2022-05-21 21:17:47</time>
      </trkpt>
      <trkpt lat="42.33207" lon="2.39831">
        <ele>1019.4</ele>
        <time>2022-05-21 21:17:48</time>
      </trkpt>
      <trkpt lat="42.33196" lon="2.39831">
        <ele>1018.8</ele>
        <time>2022-05-21 21:17:49</time>
      </trkpt>
      <trkpt lat="42.33185" lon="2.39828">
        <ele>1018.2</ele>
        <time>2022-05-21 21:17:50</time>
      </trkpt>
      <trkpt lat="42.33174" lon="2.39823">
        <ele>1017.8</ele>
        <time>2022-05-21 21:17:51</time>
      </trkpt>
      <trkpt lat="42.33164" lon="2.39819">
        <ele>1017.2</ele>
        <time>2022-05-21 21:17:52</time>
      </trkpt>
      <trkpt lat="42.33153" lon="2.39815">
        <ele>1016.6</ele>
        <time>2022-05-21 21:17:53</time>
      </trkpt>
      <trkpt lat="42.33143" lon="2.39812">
        <ele>1016.2</ele>
        <time>2022-05-21 21:17:54</time>
      </trkpt>
      <trkpt lat="42.33133" lon="2.39809">
        <ele>1015.8</ele>
        <time>2022-05-21 21:17:55</time>
      </trkpt>
      <trkpt lat="42.33122" lon="2.39807">
        <ele>1015.4</ele>
        <time>2022-05-21 21:17:56</time>
      </trkpt>
      <trkpt lat="42.33112" lon="2.39805">
        <ele>1015</ele>
        <time>2022-05-21 21:17:57</time>
      </trkpt>
      <trkpt lat="42.33102" lon="2.39802">
        <ele>1014.6</ele>
        <time>2022-05-21 21:17:58</time>
      </trkpt>
      <trkpt lat="42.33091" lon="2.398">
        <ele>1014.2</ele>
        <time>2022-05-21 21:17:59</time>
      </trkpt>
      <trkpt lat="42.33081" lon="2.39799">
        <ele>1014</ele>
        <time>2022-05-21 21:18:00</time>
      </trkpt>
      <trkpt lat="42.3307" lon="2.39798">
        <ele>1013.6</ele>
        <time>2022-05-21 21:18:01</time>
      </trkpt>
      <trkpt lat="42.33059" lon="2.39797">
        <ele>1013.4</ele>
        <time>2022-05-21 21:18:02</time>
      </trkpt>
      <trkpt lat="42.33049" lon="2.39797">
        <ele>1013</ele>
        <time>2022-05-21 21:18:03</time>
      </trkpt>
      <trkpt lat="42.33038" lon="2.39797">
        <ele>1012.6</ele>
        <time>2022-05-21 21:18:04</time>
      </trkpt>
      <trkpt lat="42.33027" lon="2.39796">
        <ele>1012.4</ele>
        <time>2022-05-21 21:18:05</time>
      </trkpt>
      <trkpt lat="42.33017" lon="2.39794">
        <ele>1012</ele>
        <time>2022-05-21 21:18:06</time>
      </trkpt>
      <trkpt lat="42.33006" lon="2.39793">
        <ele>1011.8</ele>
        <time>2022-05-21 21:18:07</time>
      </trkpt>
      <trkpt lat="42.32996" lon="2.39791">
        <ele>1011.6</ele>
        <time>2022-05-21 21:18:08</time>
      </trkpt>
      <trkpt lat="42.32986" lon="2.39788">
        <ele>1011.4</ele>
        <time>2022-05-21 21:18:09</time>
      </trkpt>
      <trkpt lat="42.32976" lon="2.39784">
        <ele>1011.4</ele>
        <time>2022-05-21 21:18:10</time>
      </trkpt>
      <trkpt lat="42.32967" lon="2.3978">
        <ele>1011.2</ele>
        <time>2022-05-21 21:18:11</time>
      </trkpt>
      <trkpt lat="42.32959" lon="2.39775">
        <ele>1011.2</ele>
        <time>2022-05-21 21:18:12</time>
      </trkpt>
      <trkpt lat="42.3295" lon="2.39771">
        <ele>1011</ele>
        <time>2022-05-21 21:18:13</time>
      </trkpt>
      <trkpt lat="42.32942" lon="2.39768">
        <ele>1011</ele>
        <time>2022-05-21 21:18:14</time>
      </trkpt>
      <trkpt lat="42.32933" lon="2.39765">
        <ele>1010.8</ele>
        <time>2022-05-21 21:18:15</time>
      </trkpt>
      <trkpt lat="42.32924" lon="2.39761">
        <ele>1010.8</ele>
        <time>2022-05-21 21:18:16</time>
      </trkpt>
      <trkpt lat="42.32916" lon="2.39758">
        <ele>1010.6</ele>
        <time>2022-05-21 21:18:17</time>
      </trkpt>
      <trkpt lat="42.32908" lon="2.39754">
        <ele>1010.6</ele>
        <time>2022-05-21 21:18:18</time>
      </trkpt>
      <trkpt lat="42.329" lon="2.39751">
        <ele>1010.4</ele>
        <time>2022-05-21 21:18:19</time>
      </trkpt>
      <trkpt lat="42.32891" lon="2.39747">
        <ele>1010.4</ele>
        <time>2022-05-21 21:18:20</time>
      </trkpt>
      <trkpt lat="42.32883" lon="2.39744">
        <ele>1010.2</ele>
        <time>2022-05-21 21:18:21</time>
      </trkpt>
      <trkpt lat="42.32875" lon="2.39741">
        <ele>1010.2</ele>
        <time>2022-05-21 21:18:22</time>
      </trkpt>
      <trkpt lat="42.32866" lon="2.39738">
        <ele>1010</ele>
        <time>2022-05-21 21:18:23</time>
      </trkpt>
      <trkpt lat="42.32858" lon="2.39735">
        <ele>1010</ele>
        <time>2022-05-21 21:18:24</time>
      </trkpt>
      <trkpt lat="42.3285" lon="2.39733">
        <ele>1009.8</ele>
        <time>2022-05-21 21:18:25</time>
      </trkpt>
      <trkpt lat="42.32842" lon="2.39731">
        <ele>1009.8</ele>
        <time>2022-05-21 21:18:26</time>
      </trkpt>
      <trkpt lat="42.32834" lon="2.39731">
        <ele>1009.8</ele>
        <time>2022-05-21 21:18:27</time>
      </trkpt>
      <trkpt lat="42.32826" lon="2.39732">
        <ele>1009.8</ele>
        <time>2022-05-21 21:18:28</time>
      </trkpt>
      <trkpt lat="42.32819" lon="2.39733">
        <ele>1009.8</ele>
        <time>2022-05-21 21:18:29</time>
      </trkpt>
      <trkpt lat="42.32811" lon="2.39736">
        <ele>1009.8</ele>
        <time>2022-05-21 21:18:30</time>
      </trkpt>
      <trkpt lat="42.32804" lon="2.39739">
        <ele>1009.8</ele>
        <time>2022-05-21 21:18:31</time>
      </trkpt>
      <trkpt lat="42.32796" lon="2.39742">
        <ele>1009.6</ele>
        <time>2022-05-21 21:18:32</time>
      </trkpt>
      <trkpt lat="42.32789" lon="2.39746">
        <ele>1009.6</ele>
        <time>2022-05-21 21:18:33</time>
      </trkpt>
      <trkpt lat="42.32782" lon="2.39749">
        <ele>1009.6</ele>
        <time>2022-05-21 21:18:34</time>
      </trkpt>
      <trkpt lat="42.32775" lon="2.39753">
        <ele>1009.6</ele>
        <time>2022-05-21 21:18:35</time>
      </trkpt>
      <trkpt lat="42.32768" lon="2.39757">
        <ele>1009.6</ele>
        <time>2022-05-21 21:18:36</time>
      </trkpt>
      <trkpt lat="42.3276" lon="2.39759">
        <ele>1009.4</ele>
        <time>2022-05-21 21:18:37</time>
      </trkpt>
      <trkpt lat="42.32753" lon="2.3976">
        <ele>1009.4</ele>
        <time>2022-05-21 21:18:38</time>
      </trkpt>
      <trkpt lat="42.32746" lon="2.3976">
        <ele>1009.4</ele>
        <time>2022-05-21 21:18:39</time>
      </trkpt>
      <trkpt lat="42.32739" lon="2.3976">
        <ele>1009.4</ele>
        <time>2022-05-21 21:18:40</time>
      </trkpt>
      <trkpt lat="42.32733" lon="2.39759">
        <ele>1009.4</ele>
        <time>2022-05-21 21:18:41</time>
      </trkpt>
      <trkpt lat="42.32726" lon="2.39757">
        <ele>1009.2</ele>
        <time>2022-05-21 21:18:42</time>
      </trkpt>
      <trkpt lat="42.32719" lon="2.39754">
        <ele>1009.2</ele>
        <time>2022-05-21 21:18:43</time>
      </trkpt>
      <trkpt lat="42.32713" lon="2.3975">
        <ele>1009</ele>
        <time>2022-05-21 21:18:44</time>
      </trkpt>
      <trkpt lat="42.32707" lon="2.39746">
        <ele>1009</ele>
        <time>2022-05-21 21:18:45</time>
      </trkpt>
      <trkpt lat="42.32701" lon="2.39742">
        <ele>1009</ele>
        <time>2022-05-21 21:18:46</time>
      </trkpt>
      <trkpt lat="42.32694" lon="2.39735">
        <ele>1009</ele>
        <time>2022-05-21 21:18:47</time>
      </trkpt>
      <trkpt lat="42.32687" lon="2.39729">
        <ele>1009</ele>
        <time>2022-05-21 21:18:48</time>
      </trkpt>
      <trkpt lat="42.32681" lon="2.39723">
        <ele>1008.8</ele>
        <time>2022-05-21 21:18:49</time>
      </trkpt>
      <trkpt lat="42.32675" lon="2.39716">
        <ele>1008.8</ele>
        <time>2022-05-21 21:18:50</time>
      </trkpt>
      <trkpt lat="42.32671" lon="2.3971">
        <ele>1008.8</ele>
        <time>2022-05-21 21:18:51</time>
      </trkpt>
      <trkpt lat="42.32666" lon="2.39702">
        <ele>1008.8</ele>
        <time>2022-05-21 21:18:52</time>
      </trkpt>
      <trkpt lat="42.32662" lon="2.39694">
        <ele>1008.6</ele>
        <time>2022-05-21 21:18:53</time>
      </trkpt>
      <trkpt lat="42.32658" lon="2.39686">
        <ele>1008.6</ele>
        <time>2022-05-21 21:18:54</time>
      </trkpt>
      <trkpt lat="42.32654" lon="2.39678">
        <ele>1008.6</ele>
        <time>2022-05-21 21:18:55</time>
      </trkpt>
      <trkpt lat="42.3265" lon="2.39669">
        <ele>1008.6</ele>
        <time>2022-05-21 21:18:56</time>
      </trkpt>
      <trkpt lat="42.32646" lon="2.39661">
        <ele>1008.6</ele>
        <time>2022-05-21 21:18:57</time>
      </trkpt>
      <trkpt lat="42.32643" lon="2.39653">
        <ele>1008.6</ele>
        <time>2022-05-21 21:18:58</time>
      </trkpt>
      <trkpt lat="42.3264" lon="2.39645">
        <ele>1008.6</ele>
        <time>2022-05-21 21:18:59</time>
      </trkpt>
      <trkpt lat="42.32637" lon="2.39636">
        <ele>1008.6</ele>
        <time>2022-05-21 21:19:00</time>
      </trkpt>
      <trkpt lat="42.32634" lon="2.39627">
        <ele>1008.6</ele>
        <time>2022-05-21 21:19:01</time>
      </trkpt>
      <trkpt lat="42.32632" lon="2.39618">
        <ele>1008.6</ele>
        <time>2022-05-21 21:19:02</time>
      </trkpt>
      <trkpt lat="42.32629" lon="2.39609">
        <ele>1008.6</ele>
        <time>2022-05-21 21:19:03</time>
      </trkpt>
      <trkpt lat="42.32628" lon="2.396">
        <ele>1008.4</ele>
        <time>2022-05-21 21:19:04</time>
      </trkpt>
      <trkpt lat="42.32626" lon="2.3959">
        <ele>1008.4</ele>
        <time>2022-05-21 21:19:05</time>
      </trkpt>
      <trkpt lat="42.32624" lon="2.3958">
        <ele>1008.2</ele>
        <time>2022-05-21 21:19:06</time>
      </trkpt>
      <trkpt lat="42.32623" lon="2.39571">
        <ele>1008</ele>
        <time>2022-05-21 21:19:07</time>
      </trkpt>
      <trkpt lat="42.32621" lon="2.39561">
        <ele>1007.8</ele>
        <time>2022-05-21 21:19:08</time>
      </trkpt>
      <trkpt lat="42.3262" lon="2.39549">
        <ele>1007.6</ele>
        <time>2022-05-21 21:19:09</time>
      </trkpt>
      <trkpt lat="42.32619" lon="2.39538">
        <ele>1007.4</ele>
        <time>2022-05-21 21:19:10</time>
      </trkpt>
      <trkpt lat="42.32618" lon="2.39528">
        <ele>1007.4</ele>
        <time>2022-05-21 21:19:11</time>
      </trkpt>
      <trkpt lat="42.32617" lon="2.39518">
        <ele>1007.2</ele>
        <time>2022-05-21 21:19:12</time>
      </trkpt>
      <trkpt lat="42.32615" lon="2.39508">
        <ele>1007.2</ele>
        <time>2022-05-21 21:19:13</time>
      </trkpt>
      <trkpt lat="42.32614" lon="2.39499">
        <ele>1007.2</ele>
        <time>2022-05-21 21:19:14</time>
      </trkpt>
      <trkpt lat="42.32613" lon="2.3949">
        <ele>1007.2</ele>
        <time>2022-05-21 21:19:15</time>
      </trkpt>
      <trkpt lat="42.32612" lon="2.39481">
        <ele>1007</ele>
        <time>2022-05-21 21:19:16</time>
      </trkpt>
      <trkpt lat="42.32611" lon="2.39472">
        <ele>1007</ele>
        <time>2022-05-21 21:19:17</time>
      </trkpt>
      <trkpt lat="42.3261" lon="2.39463">
        <ele>1007</ele>
        <time>2022-05-21 21:19:18</time>
      </trkpt>
      <trkpt lat="42.32608" lon="2.39454">
        <ele>1006.8</ele>
        <time>2022-05-21 21:19:19</time>
      </trkpt>
      <trkpt lat="42.32606" lon="2.39444">
        <ele>1006.6</ele>
        <time>2022-05-21 21:19:20</time>
      </trkpt>
      <trkpt lat="42.32605" lon="2.39435">
        <ele>1006.6</ele>
        <time>2022-05-21 21:19:21</time>
      </trkpt>
      <trkpt lat="42.32603" lon="2.39426">
        <ele>1006.4</ele>
        <time>2022-05-21 21:19:22</time>
      </trkpt>
      <trkpt lat="42.32601" lon="2.39416">
        <ele>1006.2</ele>
        <time>2022-05-21 21:19:23</time>
      </trkpt>
      <trkpt lat="42.32599" lon="2.39405">
        <ele>1006</ele>
        <time>2022-05-21 21:19:24</time>
      </trkpt>
      <trkpt lat="42.32596" lon="2.39395">
        <ele>1005.6</ele>
        <time>2022-05-21 21:19:25</time>
      </trkpt>
      <trkpt lat="42.32594" lon="2.39384">
        <ele>1005.4</ele>
        <time>2022-05-21 21:19:26</time>
      </trkpt>
      <trkpt lat="42.32592" lon="2.39373">
        <ele>1005</ele>
        <time>2022-05-21 21:19:27</time>
      </trkpt>
      <trkpt lat="42.32589" lon="2.39362">
        <ele>1004.6</ele>
        <time>2022-05-21 21:19:28</time>
      </trkpt>
      <trkpt lat="42.32587" lon="2.3935">
        <ele>1004.2</ele>
        <time>2022-05-21 21:19:29</time>
      </trkpt>
      <trkpt lat="42.32584" lon="2.39338">
        <ele>1004</ele>
        <time>2022-05-21 21:19:30</time>
      </trkpt>
      <trkpt lat="42.32582" lon="2.39327">
        <ele>1003.6</ele>
        <time>2022-05-21 21:19:31</time>
      </trkpt>
      <trkpt lat="42.3258" lon="2.39315">
        <ele>1003.4</ele>
        <time>2022-05-21 21:19:32</time>
      </trkpt>
      <trkpt lat="42.32577" lon="2.39305">
        <ele>1003.2</ele>
        <time>2022-05-21 21:19:33</time>
      </trkpt>
      <trkpt lat="42.32575" lon="2.39293">
        <ele>1003</ele>
        <time>2022-05-21 21:19:34</time>
      </trkpt>
      <trkpt lat="42.32573" lon="2.39282">
        <ele>1002.8</ele>
        <time>2022-05-21 21:19:35</time>
      </trkpt>
      <trkpt lat="42.32571" lon="2.39271">
        <ele>1002.6</ele>
        <time>2022-05-21 21:19:36</time>
      </trkpt>
      <trkpt lat="42.32568" lon="2.3926">
        <ele>1002.6</ele>
        <time>2022-05-21 21:19:37</time>
      </trkpt>
      <trkpt lat="42.32566" lon="2.3925">
        <ele>1002.4</ele>
        <time>2022-05-21 21:19:38</time>
      </trkpt>
      <trkpt lat="42.32564" lon="2.3924">
        <ele>1002.4</ele>
        <time>2022-05-21 21:19:39</time>
      </trkpt>
      <trkpt lat="42.32561" lon="2.3923">
        <ele>1002.2</ele>
        <time>2022-05-21 21:19:40</time>
      </trkpt>
      <trkpt lat="42.3256" lon="2.39221">
        <ele>1002.2</ele>
        <time>2022-05-21 21:19:41</time>
      </trkpt>
      <trkpt lat="42.32558" lon="2.39212">
        <ele>1002.2</ele>
        <time>2022-05-21 21:19:42</time>
      </trkpt>
      <trkpt lat="42.32556" lon="2.39202">
        <ele>1002</ele>
        <time>2022-05-21 21:19:43</time>
      </trkpt>
      <trkpt lat="42.32555" lon="2.39192">
        <ele>1002</ele>
        <time>2022-05-21 21:19:44</time>
      </trkpt>
      <trkpt lat="42.32553" lon="2.39182">
        <ele>1002</ele>
        <time>2022-05-21 21:19:45</time>
      </trkpt>
      <trkpt lat="42.32551" lon="2.39172">
        <ele>1001.8</ele>
        <time>2022-05-21 21:19:46</time>
      </trkpt>
      <trkpt lat="42.32549" lon="2.39163">
        <ele>1001.8</ele>
        <time>2022-05-21 21:19:47</time>
      </trkpt>
      <trkpt lat="42.32547" lon="2.39154">
        <ele>1001.6</ele>
        <time>2022-05-21 21:19:48</time>
      </trkpt>
      <trkpt lat="42.32545" lon="2.39145">
        <ele>1001.6</ele>
        <time>2022-05-21 21:19:49</time>
      </trkpt>
      <trkpt lat="42.32543" lon="2.39133">
        <ele>1001.4</ele>
        <time>2022-05-21 21:19:50</time>
      </trkpt>
      <trkpt lat="42.32541" lon="2.39123">
        <ele>1001.2</ele>
        <time>2022-05-21 21:19:51</time>
      </trkpt>
      <trkpt lat="42.32539" lon="2.39113">
        <ele>1001.2</ele>
        <time>2022-05-21 21:19:52</time>
      </trkpt>
      <trkpt lat="42.32537" lon="2.39103">
        <ele>1001</ele>
        <time>2022-05-21 21:19:53</time>
      </trkpt>
      <trkpt lat="42.32534" lon="2.39093">
        <ele>1000.8</ele>
        <time>2022-05-21 21:19:54</time>
      </trkpt>
      <trkpt lat="42.32531" lon="2.39084">
        <ele>1000.8</ele>
        <time>2022-05-21 21:19:55</time>
      </trkpt>
      <trkpt lat="42.32528" lon="2.39074">
        <ele>1000.6</ele>
        <time>2022-05-21 21:19:56</time>
      </trkpt>
      <trkpt lat="42.32525" lon="2.39065">
        <ele>1000.4</ele>
        <time>2022-05-21 21:19:57</time>
      </trkpt>
      <trkpt lat="42.32522" lon="2.39055">
        <ele>1000.2</ele>
        <time>2022-05-21 21:19:58</time>
      </trkpt>
      <trkpt lat="42.3252" lon="2.39046">
        <ele>1000</ele>
        <time>2022-05-21 21:19:59</time>
      </trkpt>
      <trkpt lat="42.32517" lon="2.39035">
        <ele>999.8</ele>
        <time>2022-05-21 21:20:00</time>
      </trkpt>
      <trkpt lat="42.32514" lon="2.39025">
        <ele>999.6</ele>
        <time>2022-05-21 21:20:01</time>
      </trkpt>
      <trkpt lat="42.32511" lon="2.39015">
        <ele>999.4</ele>
        <time>2022-05-21 21:20:02</time>
      </trkpt>
      <trkpt lat="42.32508" lon="2.39006">
        <ele>999.2</ele>
        <time>2022-05-21 21:20:03</time>
      </trkpt>
      <trkpt lat="42.32506" lon="2.38996">
        <ele>999</ele>
        <time>2022-05-21 21:20:04</time>
      </trkpt>
      <trkpt lat="42.32502" lon="2.38987">
        <ele>998.8</ele>
        <time>2022-05-21 21:20:05</time>
      </trkpt>
      <trkpt lat="42.32499" lon="2.38977">
        <ele>998.4</ele>
        <time>2022-05-21 21:20:06</time>
      </trkpt>
      <trkpt lat="42.32495" lon="2.38968">
        <ele>998.2</ele>
        <time>2022-05-21 21:20:07</time>
      </trkpt>
      <trkpt lat="42.32491" lon="2.38959">
        <ele>998</ele>
        <time>2022-05-21 21:20:08</time>
      </trkpt>
      <trkpt lat="42.32487" lon="2.3895">
        <ele>997.6</ele>
        <time>2022-05-21 21:20:09</time>
      </trkpt>
      <trkpt lat="42.32482" lon="2.38941">
        <ele>997.4</ele>
        <time>2022-05-21 21:20:10</time>
      </trkpt>
      <trkpt lat="42.32477" lon="2.38931">
        <ele>997</ele>
        <time>2022-05-21 21:20:11</time>
      </trkpt>
      <trkpt lat="42.32472" lon="2.38922">
        <ele>997</ele>
        <time>2022-05-21 21:20:12</time>
      </trkpt>
      <trkpt lat="42.32466" lon="2.38914">
        <ele>996.8</ele>
        <time>2022-05-21 21:20:13</time>
      </trkpt>
      <trkpt lat="42.32461" lon="2.38905">
        <ele>996.6</ele>
        <time>2022-05-21 21:20:14</time>
      </trkpt>
      <trkpt lat="42.32455" lon="2.38898">
        <ele>996.4</ele>
        <time>2022-05-21 21:20:15</time>
      </trkpt>
      <trkpt lat="42.32449" lon="2.38891">
        <ele>996.4</ele>
        <time>2022-05-21 21:20:16</time>
      </trkpt>
      <trkpt lat="42.32443" lon="2.38885">
        <ele>996.4</ele>
        <time>2022-05-21 21:20:17</time>
      </trkpt>
      <trkpt lat="42.32437" lon="2.38878">
        <ele>996.4</ele>
        <time>2022-05-21 21:20:18</time>
      </trkpt>
      <trkpt lat="42.32431" lon="2.38871">
        <ele>996.4</ele>
        <time>2022-05-21 21:20:19</time>
      </trkpt>
      <trkpt lat="42.32424" lon="2.38864">
        <ele>996.2</ele>
        <time>2022-05-21 21:20:20</time>
      </trkpt>
      <trkpt lat="42.32418" lon="2.38859">
        <ele>996.2</ele>
        <time>2022-05-21 21:20:21</time>
      </trkpt>
      <trkpt lat="42.32412" lon="2.38853">
        <ele>996.2</ele>
        <time>2022-05-21 21:20:22</time>
      </trkpt>
      <trkpt lat="42.32406" lon="2.38848">
        <ele>996</ele>
        <time>2022-05-21 21:20:23</time>
      </trkpt>
      <trkpt lat="42.324" lon="2.38842">
        <ele>996</ele>
        <time>2022-05-21 21:20:24</time>
      </trkpt>
      <trkpt lat="42.32393" lon="2.38837">
        <ele>995.8</ele>
        <time>2022-05-21 21:20:25</time>
      </trkpt>
      <trkpt lat="42.32387" lon="2.38832">
        <ele>995.8</ele>
        <time>2022-05-21 21:20:26</time>
      </trkpt>
      <trkpt lat="42.3238" lon="2.38827">
        <ele>995.8</ele>
        <time>2022-05-21 21:20:27</time>
      </trkpt>
      <trkpt lat="42.32373" lon="2.38822">
        <ele>995.6</ele>
        <time>2022-05-21 21:20:28</time>
      </trkpt>
      <trkpt lat="42.32367" lon="2.38816">
        <ele>995.6</ele>
        <time>2022-05-21 21:20:29</time>
      </trkpt>
      <trkpt lat="42.32361" lon="2.38809">
        <ele>995.4</ele>
        <time>2022-05-21 21:20:30</time>
      </trkpt>
      <trkpt lat="42.32356" lon="2.38802">
        <ele>995.4</ele>
        <time>2022-05-21 21:20:31</time>
      </trkpt>
      <trkpt lat="42.32352" lon="2.38794">
        <ele>995.2</ele>
        <time>2022-05-21 21:20:32</time>
      </trkpt>
      <trkpt lat="42.32347" lon="2.38786">
        <ele>995.2</ele>
        <time>2022-05-21 21:20:33</time>
      </trkpt>
      <trkpt lat="42.32343" lon="2.38777">
        <ele>995</ele>
        <time>2022-05-21 21:20:34</time>
      </trkpt>
      <trkpt lat="42.3234" lon="2.38768">
        <ele>995</ele>
        <time>2022-05-21 21:20:35</time>
      </trkpt>
      <trkpt lat="42.32337" lon="2.38758">
        <ele>994.8</ele>
        <time>2022-05-21 21:20:36</time>
      </trkpt>
      <trkpt lat="42.32335" lon="2.38748">
        <ele>994.6</ele>
        <time>2022-05-21 21:20:37</time>
      </trkpt>
      <trkpt lat="42.32335" lon="2.38738">
        <ele>994.6</ele>
        <time>2022-05-21 21:20:38</time>
      </trkpt>
      <trkpt lat="42.32335" lon="2.38727">
        <ele>994.4</ele>
        <time>2022-05-21 21:20:39</time>
      </trkpt>
      <trkpt lat="42.32335" lon="2.38717">
        <ele>994.2</ele>
        <time>2022-05-21 21:20:40</time>
      </trkpt>
      <trkpt lat="42.32336" lon="2.38706">
        <ele>994</ele>
        <time>2022-05-21 21:20:41</time>
      </trkpt>
      <trkpt lat="42.32338" lon="2.38696">
        <ele>993.8</ele>
        <time>2022-05-21 21:20:42</time>
      </trkpt>
      <trkpt lat="42.32341" lon="2.38686">
        <ele>993.6</ele>
        <time>2022-05-21 21:20:43</time>
      </trkpt>
      <trkpt lat="42.32344" lon="2.38676">
        <ele>993.6</ele>
        <time>2022-05-21 21:20:44</time>
      </trkpt>
      <trkpt lat="42.32348" lon="2.38667">
        <ele>993.4</ele>
        <time>2022-05-21 21:20:45</time>
      </trkpt>
      <trkpt lat="42.32352" lon="2.38658">
        <ele>993.2</ele>
        <time>2022-05-21 21:20:46</time>
      </trkpt>
      <trkpt lat="42.32356" lon="2.3865">
        <ele>993</ele>
        <time>2022-05-21 21:20:47</time>
      </trkpt>
      <trkpt lat="42.32361" lon="2.38641">
        <ele>992.8</ele>
        <time>2022-05-21 21:20:48</time>
      </trkpt>
      <trkpt lat="42.32365" lon="2.38632">
        <ele>992.6</ele>
        <time>2022-05-21 21:20:49</time>
      </trkpt>
      <trkpt lat="42.32369" lon="2.38623">
        <ele>992.4</ele>
        <time>2022-05-21 21:20:50</time>
      </trkpt>
      <trkpt lat="42.32372" lon="2.38614">
        <ele>992.2</ele>
        <time>2022-05-21 21:20:51</time>
      </trkpt>
      <trkpt lat="42.32375" lon="2.38604">
        <ele>992</ele>
        <time>2022-05-21 21:20:52</time>
      </trkpt>
      <trkpt lat="42.32377" lon="2.38593">
        <ele>991.6</ele>
        <time>2022-05-21 21:20:53</time>
      </trkpt>
      <trkpt lat="42.32378" lon="2.38582">
        <ele>991.4</ele>
        <time>2022-05-21 21:20:54</time>
      </trkpt>
      <trkpt lat="42.32379" lon="2.38571">
        <ele>991</ele>
        <time>2022-05-21 21:20:55</time>
      </trkpt>
      <trkpt lat="42.32379" lon="2.3856">
        <ele>990.6</ele>
        <time>2022-05-21 21:20:56</time>
      </trkpt>
      <trkpt lat="42.32379" lon="2.38548">
        <ele>990.4</ele>
        <time>2022-05-21 21:20:57</time>
      </trkpt>
      <trkpt lat="42.32378" lon="2.38536">
        <ele>990.2</ele>
        <time>2022-05-21 21:20:58</time>
      </trkpt>
      <trkpt lat="42.32376" lon="2.38524">
        <ele>990</ele>
        <time>2022-05-21 21:20:59</time>
      </trkpt>
      <trkpt lat="42.32374" lon="2.38512">
        <ele>989.8</ele>
        <time>2022-05-21 21:21:00</time>
      </trkpt>
      <trkpt lat="42.32372" lon="2.38501">
        <ele>989.6</ele>
        <time>2022-05-21 21:21:01</time>
      </trkpt>
      <trkpt lat="42.32371" lon="2.38489">
        <ele>989.2</ele>
        <time>2022-05-21 21:21:02</time>
      </trkpt>
      <trkpt lat="42.3237" lon="2.38479">
        <ele>989</ele>
        <time>2022-05-21 21:21:03</time>
      </trkpt>
      <trkpt lat="42.32369" lon="2.38467">
        <ele>988.8</ele>
        <time>2022-05-21 21:21:04</time>
      </trkpt>
      <trkpt lat="42.32367" lon="2.38454">
        <ele>988.4</ele>
        <time>2022-05-21 21:21:05</time>
      </trkpt>
      <trkpt lat="42.32366" lon="2.38443">
        <ele>988.2</ele>
        <time>2022-05-21 21:21:06</time>
      </trkpt>
      <trkpt lat="42.32364" lon="2.38432">
        <ele>987.8</ele>
        <time>2022-05-21 21:21:07</time>
      </trkpt>
      <trkpt lat="42.32363" lon="2.3842">
        <ele>987.6</ele>
        <time>2022-05-21 21:21:08</time>
      </trkpt>
      <trkpt lat="42.32361" lon="2.38409">
        <ele>987.4</ele>
        <time>2022-05-21 21:21:09</time>
      </trkpt>
      <trkpt lat="42.3236" lon="2.38398">
        <ele>987.2</ele>
        <time>2022-05-21 21:21:10</time>
      </trkpt>
      <trkpt lat="42.32358" lon="2.38386">
        <ele>987</ele>
        <time>2022-05-21 21:21:11</time>
      </trkpt>
      <trkpt lat="42.32357" lon="2.38375">
        <ele>986.8</ele>
        <time>2022-05-21 21:21:12</time>
      </trkpt>
      <trkpt lat="42.32355" lon="2.38364">
        <ele>986.6</ele>
        <time>2022-05-21 21:21:13</time>
      </trkpt>
      <trkpt lat="42.32353" lon="2.38354">
        <ele>986.4</ele>
        <time>2022-05-21 21:21:14</time>
      </trkpt>
      <trkpt lat="42.3235" lon="2.38343">
        <ele>986.2</ele>
        <time>2022-05-21 21:21:15</time>
      </trkpt>
      <trkpt lat="42.32347" lon="2.38333">
        <ele>986</ele>
        <time>2022-05-21 21:21:16</time>
      </trkpt>
      <trkpt lat="42.32342" lon="2.38325">
        <ele>985.8</ele>
        <time>2022-05-21 21:21:17</time>
      </trkpt>
      <trkpt lat="42.32336" lon="2.38317">
        <ele>985.6</ele>
        <time>2022-05-21 21:21:18</time>
      </trkpt>
      <trkpt lat="42.32329" lon="2.38311">
        <ele>985.4</ele>
        <time>2022-05-21 21:21:19</time>
      </trkpt>
      <trkpt lat="42.32322" lon="2.38306">
        <ele>985.4</ele>
        <time>2022-05-21 21:21:20</time>
      </trkpt>
      <trkpt lat="42.32315" lon="2.38302">
        <ele>985.2</ele>
        <time>2022-05-21 21:21:21</time>
      </trkpt>
      <trkpt lat="42.32307" lon="2.38298">
        <ele>985</ele>
        <time>2022-05-21 21:21:22</time>
      </trkpt>
      <trkpt lat="42.323" lon="2.38295">
        <ele>984.8</ele>
        <time>2022-05-21 21:21:23</time>
      </trkpt>
      <trkpt lat="42.32292" lon="2.38293">
        <ele>984.6</ele>
        <time>2022-05-21 21:21:24</time>
      </trkpt>
      <trkpt lat="42.32284" lon="2.38291">
        <ele>984.6</ele>
        <time>2022-05-21 21:21:25</time>
      </trkpt>
      <trkpt lat="42.32276" lon="2.3829">
        <ele>984.4</ele>
        <time>2022-05-21 21:21:26</time>
      </trkpt>
      <trkpt lat="42.32268" lon="2.38288">
        <ele>984.2</ele>
        <time>2022-05-21 21:21:27</time>
      </trkpt>
      <trkpt lat="42.32261" lon="2.38286">
        <ele>984.2</ele>
        <time>2022-05-21 21:21:28</time>
      </trkpt>
      <trkpt lat="42.32252" lon="2.38284">
        <ele>984</ele>
        <time>2022-05-21 21:21:29</time>
      </trkpt>
      <trkpt lat="42.32245" lon="2.38282">
        <ele>984</ele>
        <time>2022-05-21 21:21:30</time>
      </trkpt>
      <trkpt lat="42.32237" lon="2.3828">
        <ele>984</ele>
        <time>2022-05-21 21:21:31</time>
      </trkpt>
      <trkpt lat="42.3223" lon="2.38278">
        <ele>983.8</ele>
        <time>2022-05-21 21:21:32</time>
      </trkpt>
      <trkpt lat="42.32222" lon="2.38277">
        <ele>983.6</ele>
        <time>2022-05-21 21:21:33</time>
      </trkpt>
      <trkpt lat="42.32215" lon="2.38275">
        <ele>983.6</ele>
        <time>2022-05-21 21:21:34</time>
      </trkpt>
      <trkpt lat="42.32208" lon="2.38273">
        <ele>983.6</ele>
        <time>2022-05-21 21:21:35</time>
      </trkpt>
      <trkpt lat="42.322" lon="2.38271">
        <ele>983.6</ele>
        <time>2022-05-21 21:21:36</time>
      </trkpt>
      <trkpt lat="42.32193" lon="2.38269">
        <ele>983.6</ele>
        <time>2022-05-21 21:21:37</time>
      </trkpt>
      <trkpt lat="42.32186" lon="2.38266">
        <ele>983.4</ele>
        <time>2022-05-21 21:21:38</time>
      </trkpt>
      <trkpt lat="42.32179" lon="2.38264">
        <ele>983.4</ele>
        <time>2022-05-21 21:21:39</time>
      </trkpt>
      <trkpt lat="42.32172" lon="2.38262">
        <ele>983.4</ele>
        <time>2022-05-21 21:21:40</time>
      </trkpt>
      <trkpt lat="42.32165" lon="2.3826">
        <ele>983.2</ele>
        <time>2022-05-21 21:21:41</time>
      </trkpt>
      <trkpt lat="42.32158" lon="2.38258">
        <ele>983.2</ele>
        <time>2022-05-21 21:21:42</time>
      </trkpt>
      <trkpt lat="42.32151" lon="2.38256">
        <ele>983</ele>
        <time>2022-05-21 21:21:43</time>
      </trkpt>
      <trkpt lat="42.32144" lon="2.38254">
        <ele>983</ele>
        <time>2022-05-21 21:21:44</time>
      </trkpt>
      <trkpt lat="42.32137" lon="2.38252">
        <ele>982.8</ele>
        <time>2022-05-21 21:21:45</time>
      </trkpt>
      <trkpt lat="42.3213" lon="2.38249">
        <ele>982.6</ele>
        <time>2022-05-21 21:21:46</time>
      </trkpt>
      <trkpt lat="42.32125" lon="2.38247">
        <ele>982.6</ele>
        <time>2022-05-21 21:21:47</time>
      </trkpt>
      <trkpt lat="42.32121" lon="2.38246">
        <ele>982.4</ele>
        <time>2022-05-21 21:21:48</time>
      </trkpt>
      <trkpt lat="42.32112" lon="2.38243">
        <ele>982.2</ele>
        <time>2022-05-21 21:21:49</time>
      </trkpt>
      <trkpt lat="42.32104" lon="2.3824">
        <ele>982.2</ele>
        <time>2022-05-21 21:21:50</time>
      </trkpt>
      <trkpt lat="42.32097" lon="2.38237">
        <ele>982</ele>
        <time>2022-05-21 21:21:51</time>
      </trkpt>
      <trkpt lat="42.3209" lon="2.38234">
        <ele>982</ele>
        <time>2022-05-21 21:21:52</time>
      </trkpt>
      <trkpt lat="42.32084" lon="2.38231">
        <ele>981.8</ele>
        <time>2022-05-21 21:21:53</time>
      </trkpt>
      <trkpt lat="42.32076" lon="2.38228">
        <ele>981.6</ele>
        <time>2022-05-21 21:21:54</time>
      </trkpt>
      <trkpt lat="42.3207" lon="2.38224">
        <ele>981.4</ele>
        <time>2022-05-21 21:21:55</time>
      </trkpt>
      <trkpt lat="42.32063" lon="2.3822">
        <ele>981.2</ele>
        <time>2022-05-21 21:21:56</time>
      </trkpt>
      <trkpt lat="42.32057" lon="2.38215">
        <ele>981</ele>
        <time>2022-05-21 21:21:57</time>
      </trkpt>
      <trkpt lat="42.3205" lon="2.38211">
        <ele>980.8</ele>
        <time>2022-05-21 21:21:58</time>
      </trkpt>
      <trkpt lat="42.32043" lon="2.38206">
        <ele>980.6</ele>
        <time>2022-05-21 21:21:59</time>
      </trkpt>
      <trkpt lat="42.32036" lon="2.38201">
        <ele>980.4</ele>
        <time>2022-05-21 21:22:00</time>
      </trkpt>
      <trkpt lat="42.3203" lon="2.38197">
        <ele>980.4</ele>
        <time>2022-05-21 21:22:01</time>
      </trkpt>
      <trkpt lat="42.32024" lon="2.38191">
        <ele>980.2</ele>
        <time>2022-05-21 21:22:02</time>
      </trkpt>
      <trkpt lat="42.32018" lon="2.38186">
        <ele>980.2</ele>
        <time>2022-05-21 21:22:03</time>
      </trkpt>
      <trkpt lat="42.32012" lon="2.38181">
        <ele>980</ele>
        <time>2022-05-21 21:22:04</time>
      </trkpt>
      <trkpt lat="42.32006" lon="2.38175">
        <ele>980</ele>
        <time>2022-05-21 21:22:05</time>
      </trkpt>
      <trkpt lat="42.32001" lon="2.3817">
        <ele>979.8</ele>
        <time>2022-05-21 21:22:06</time>
      </trkpt>
      <trkpt lat="42.31996" lon="2.38165">
        <ele>979.8</ele>
        <time>2022-05-21 21:22:07</time>
      </trkpt>
      <trkpt lat="42.3199" lon="2.38159">
        <ele>979.8</ele>
        <time>2022-05-21 21:22:08</time>
      </trkpt>
      <trkpt lat="42.31986" lon="2.38153">
        <ele>979.8</ele>
        <time>2022-05-21 21:22:09</time>
      </trkpt>
      <trkpt lat="42.3198" lon="2.38148">
        <ele>979.8</ele>
        <time>2022-05-21 21:22:10</time>
      </trkpt>
      <trkpt lat="42.31976" lon="2.38142">
        <ele>979.8</ele>
        <time>2022-05-21 21:22:11</time>
      </trkpt>
      <trkpt lat="42.31971" lon="2.38136">
        <ele>979.8</ele>
        <time>2022-05-21 21:22:12</time>
      </trkpt>
      <trkpt lat="42.31967" lon="2.3813">
        <ele>979.6</ele>
        <time>2022-05-21 21:22:13</time>
      </trkpt>
      <trkpt lat="42.31962" lon="2.38124">
        <ele>979.6</ele>
        <time>2022-05-21 21:22:14</time>
      </trkpt>
      <trkpt lat="42.31957" lon="2.38118">
        <ele>979.6</ele>
        <time>2022-05-21 21:22:15</time>
      </trkpt>
      <trkpt lat="42.31953" lon="2.38112">
        <ele>979.6</ele>
        <time>2022-05-21 21:22:16</time>
      </trkpt>
      <trkpt lat="42.31948" lon="2.38106">
        <ele>979.6</ele>
        <time>2022-05-21 21:22:17</time>
      </trkpt>
      <trkpt lat="42.31943" lon="2.38099">
        <ele>979.6</ele>
        <time>2022-05-21 21:22:18</time>
      </trkpt>
      <trkpt lat="42.31938" lon="2.38093">
        <ele>979.6</ele>
        <time>2022-05-21 21:22:19</time>
      </trkpt>
      <trkpt lat="42.31934" lon="2.38086">
        <ele>979.4</ele>
        <time>2022-05-21 21:22:20</time>
      </trkpt>
      <trkpt lat="42.31928" lon="2.38079">
        <ele>979.4</ele>
        <time>2022-05-21 21:22:21</time>
      </trkpt>
      <trkpt lat="42.31923" lon="2.38073">
        <ele>979.4</ele>
        <time>2022-05-21 21:22:22</time>
      </trkpt>
      <trkpt lat="42.31917" lon="2.38066">
        <ele>979.4</ele>
        <time>2022-05-21 21:22:23</time>
      </trkpt>
      <trkpt lat="42.31912" lon="2.38059">
        <ele>979.4</ele>
        <time>2022-05-21 21:22:24</time>
      </trkpt>
      <trkpt lat="42.31907" lon="2.38052">
        <ele>979.4</ele>
        <time>2022-05-21 21:22:25</time>
      </trkpt>
      <trkpt lat="42.31902" lon="2.38046">
        <ele>979.4</ele>
        <time>2022-05-21 21:22:26</time>
      </trkpt>
      <trkpt lat="42.31897" lon="2.3804">
        <ele>979.4</ele>
        <time>2022-05-21 21:22:27</time>
      </trkpt>
      <trkpt lat="42.31893" lon="2.38034">
        <ele>979.4</ele>
        <time>2022-05-21 21:22:28</time>
      </trkpt>
      <trkpt lat="42.31888" lon="2.38028">
        <ele>979.2</ele>
        <time>2022-05-21 21:22:29</time>
      </trkpt>
      <trkpt lat="42.31882" lon="2.38021">
        <ele>979.2</ele>
        <time>2022-05-21 21:22:30</time>
      </trkpt>
      <trkpt lat="42.31878" lon="2.38015">
        <ele>979.2</ele>
        <time>2022-05-21 21:22:31</time>
      </trkpt>
      <trkpt lat="42.31873" lon="2.38008">
        <ele>979</ele>
        <time>2022-05-21 21:22:32</time>
      </trkpt>
      <trkpt lat="42.31868" lon="2.38001">
        <ele>979</ele>
        <time>2022-05-21 21:22:33</time>
      </trkpt>
      <trkpt lat="42.31863" lon="2.37994">
        <ele>979</ele>
        <time>2022-05-21 21:22:34</time>
      </trkpt>
      <trkpt lat="42.31857" lon="2.37987">
        <ele>978.8</ele>
        <time>2022-05-21 21:22:35</time>
      </trkpt>
      <trkpt lat="42.31852" lon="2.3798">
        <ele>978.8</ele>
        <time>2022-05-21 21:22:36</time>
      </trkpt>
      <trkpt lat="42.31847" lon="2.37973">
        <ele>978.6</ele>
        <time>2022-05-21 21:22:37</time>
      </trkpt>
      <trkpt lat="42.31841" lon="2.37966">
        <ele>978.6</ele>
        <time>2022-05-21 21:22:38</time>
      </trkpt>
      <trkpt lat="42.31836" lon="2.37959">
        <ele>978.4</ele>
        <time>2022-05-21 21:22:39</time>
      </trkpt>
      <trkpt lat="42.31831" lon="2.37952">
        <ele>978.4</ele>
        <time>2022-05-21 21:22:40</time>
      </trkpt>
      <trkpt lat="42.31825" lon="2.37945">
        <ele>978.4</ele>
        <time>2022-05-21 21:22:41</time>
      </trkpt>
      <trkpt lat="42.3182" lon="2.37938">
        <ele>978.2</ele>
        <time>2022-05-21 21:22:42</time>
      </trkpt>
      <trkpt lat="42.31814" lon="2.37931">
        <ele>978.2</ele>
        <time>2022-05-21 21:22:43</time>
      </trkpt>
      <trkpt lat="42.31809" lon="2.37924">
        <ele>978</ele>
        <time>2022-05-21 21:22:44</time>
      </trkpt>
      <trkpt lat="42.31804" lon="2.37917">
        <ele>978</ele>
        <time>2022-05-21 21:22:45</time>
      </trkpt>
      <trkpt lat="42.31799" lon="2.3791">
        <ele>978</ele>
        <time>2022-05-21 21:22:46</time>
      </trkpt>
      <trkpt lat="42.31794" lon="2.37903">
        <ele>977.8</ele>
        <time>2022-05-21 21:22:47</time>
      </trkpt>
      <trkpt lat="42.31789" lon="2.37896">
        <ele>977.8</ele>
        <time>2022-05-21 21:22:48</time>
      </trkpt>
      <trkpt lat="42.31784" lon="2.37889">
        <ele>977.6</ele>
        <time>2022-05-21 21:22:49</time>
      </trkpt>
      <trkpt lat="42.31779" lon="2.37881">
        <ele>977.6</ele>
        <time>2022-05-21 21:22:50</time>
      </trkpt>
      <trkpt lat="42.31774" lon="2.37874">
        <ele>977.4</ele>
        <time>2022-05-21 21:22:51</time>
      </trkpt>
      <trkpt lat="42.31768" lon="2.37867">
        <ele>977.2</ele>
        <time>2022-05-21 21:22:52</time>
      </trkpt>
      <trkpt lat="42.31763" lon="2.3786">
        <ele>977.2</ele>
        <time>2022-05-21 21:22:53</time>
      </trkpt>
      <trkpt lat="42.31758" lon="2.37854">
        <ele>977</ele>
        <time>2022-05-21 21:22:54</time>
      </trkpt>
      <trkpt lat="42.31752" lon="2.37847">
        <ele>976.8</ele>
        <time>2022-05-21 21:22:55</time>
      </trkpt>
      <trkpt lat="42.31747" lon="2.3784">
        <ele>976.8</ele>
        <time>2022-05-21 21:22:56</time>
      </trkpt>
      <trkpt lat="42.31742" lon="2.37833">
        <ele>976.6</ele>
        <time>2022-05-21 21:22:57</time>
      </trkpt>
      <trkpt lat="42.31737" lon="2.37826">
        <ele>976.4</ele>
        <time>2022-05-21 21:22:58</time>
      </trkpt>
      <trkpt lat="42.31731" lon="2.37818">
        <ele>976.4</ele>
        <time>2022-05-21 21:22:59</time>
      </trkpt>
      <trkpt lat="42.31726" lon="2.37812">
        <ele>976.2</ele>
        <time>2022-05-21 21:23:00</time>
      </trkpt>
      <trkpt lat="42.31721" lon="2.37805">
        <ele>976.2</ele>
        <time>2022-05-21 21:23:01</time>
      </trkpt>
      <trkpt lat="42.31715" lon="2.37798">
        <ele>976</ele>
        <time>2022-05-21 21:23:02</time>
      </trkpt>
      <trkpt lat="42.3171" lon="2.37792">
        <ele>976</ele>
        <time>2022-05-21 21:23:03</time>
      </trkpt>
      <trkpt lat="42.31705" lon="2.37786">
        <ele>975.8</ele>
        <time>2022-05-21 21:23:04</time>
      </trkpt>
      <trkpt lat="42.31699" lon="2.37779">
        <ele>975.6</ele>
        <time>2022-05-21 21:23:05</time>
      </trkpt>
      <trkpt lat="42.31694" lon="2.37772">
        <ele>975.6</ele>
        <time>2022-05-21 21:23:06</time>
      </trkpt>
      <trkpt lat="42.31689" lon="2.37765">
        <ele>975.4</ele>
        <time>2022-05-21 21:23:07</time>
      </trkpt>
      <trkpt lat="42.31683" lon="2.37758">
        <ele>975.4</ele>
        <time>2022-05-21 21:23:08</time>
      </trkpt>
      <trkpt lat="42.31678" lon="2.37751">
        <ele>975.2</ele>
        <time>2022-05-21 21:23:09</time>
      </trkpt>
      <trkpt lat="42.31673" lon="2.37744">
        <ele>975.2</ele>
        <time>2022-05-21 21:23:10</time>
      </trkpt>
      <trkpt lat="42.31667" lon="2.37737">
        <ele>975</ele>
        <time>2022-05-21 21:23:11</time>
      </trkpt>
      <trkpt lat="42.31661" lon="2.37729">
        <ele>975</ele>
        <time>2022-05-21 21:23:12</time>
      </trkpt>
      <trkpt lat="42.31656" lon="2.37722">
        <ele>974.8</ele>
        <time>2022-05-21 21:23:13</time>
      </trkpt>
      <trkpt lat="42.31651" lon="2.37715">
        <ele>974.8</ele>
        <time>2022-05-21 21:23:14</time>
      </trkpt>
      <trkpt lat="42.31645" lon="2.37708">
        <ele>974.6</ele>
        <time>2022-05-21 21:23:15</time>
      </trkpt>
      <trkpt lat="42.3164" lon="2.37701">
        <ele>974.4</ele>
        <time>2022-05-21 21:23:16</time>
      </trkpt>
      <trkpt lat="42.31634" lon="2.37694">
        <ele>974.2</ele>
        <time>2022-05-21 21:23:17</time>
      </trkpt>
      <trkpt lat="42.31629" lon="2.37687">
        <ele>974.2</ele>
        <time>2022-05-21 21:23:18</time>
      </trkpt>
      <trkpt lat="42.31624" lon="2.3768">
        <ele>974</ele>
        <time>2022-05-21 21:23:19</time>
      </trkpt>
      <trkpt lat="42.31619" lon="2.37673">
        <ele>974</ele>
        <time>2022-05-21 21:23:20</time>
      </trkpt>
      <trkpt lat="42.31613" lon="2.37666">
        <ele>973.8</ele>
        <time>2022-05-21 21:23:21</time>
      </trkpt>
      <trkpt lat="42.31608" lon="2.37659">
        <ele>973.8</ele>
        <time>2022-05-21 21:23:22</time>
      </trkpt>
      <trkpt lat="42.31603" lon="2.37652">
        <ele>973.6</ele>
        <time>2022-05-21 21:23:23</time>
      </trkpt>
      <trkpt lat="42.31598" lon="2.37645">
        <ele>973.6</ele>
        <time>2022-05-21 21:23:24</time>
      </trkpt>
      <trkpt lat="42.31593" lon="2.37638">
        <ele>973.4</ele>
        <time>2022-05-21 21:23:25</time>
      </trkpt>
      <trkpt lat="42.31587" lon="2.37631">
        <ele>973.4</ele>
        <time>2022-05-21 21:23:26</time>
      </trkpt>
      <trkpt lat="42.31582" lon="2.37625">
        <ele>973.2</ele>
        <time>2022-05-21 21:23:27</time>
      </trkpt>
      <trkpt lat="42.31577" lon="2.37618">
        <ele>973</ele>
        <time>2022-05-21 21:23:28</time>
      </trkpt>
      <trkpt lat="42.31573" lon="2.37611">
        <ele>973</ele>
        <time>2022-05-21 21:23:29</time>
      </trkpt>
      <trkpt lat="42.31567" lon="2.37605">
        <ele>973</ele>
        <time>2022-05-21 21:23:30</time>
      </trkpt>
      <trkpt lat="42.31562" lon="2.37597">
        <ele>972.8</ele>
        <time>2022-05-21 21:23:31</time>
      </trkpt>
      <trkpt lat="42.31557" lon="2.37591">
        <ele>972.8</ele>
        <time>2022-05-21 21:23:32</time>
      </trkpt>
      <trkpt lat="42.31552" lon="2.37585">
        <ele>972.8</ele>
        <time>2022-05-21 21:23:33</time>
      </trkpt>
      <trkpt lat="42.31547" lon="2.3758">
        <ele>972.6</ele>
        <time>2022-05-21 21:23:34</time>
      </trkpt>
      <trkpt lat="42.31542" lon="2.37574">
        <ele>972.4</ele>
        <time>2022-05-21 21:23:35</time>
      </trkpt>
      <trkpt lat="42.31537" lon="2.37568">
        <ele>972.4</ele>
        <time>2022-05-21 21:23:36</time>
      </trkpt>
      <trkpt lat="42.31532" lon="2.37562">
        <ele>972.2</ele>
        <time>2022-05-21 21:23:37</time>
      </trkpt>
      <trkpt lat="42.31528" lon="2.37556">
        <ele>972</ele>
        <time>2022-05-21 21:23:38</time>
      </trkpt>
      <trkpt lat="42.31523" lon="2.37549">
        <ele>972</ele>
        <time>2022-05-21 21:23:39</time>
      </trkpt>
      <trkpt lat="42.31518" lon="2.37542">
        <ele>971.8</ele>
        <time>2022-05-21 21:23:40</time>
      </trkpt>
      <trkpt lat="42.31513" lon="2.37536">
        <ele>971.6</ele>
        <time>2022-05-21 21:23:41</time>
      </trkpt>
      <trkpt lat="42.31509" lon="2.3753">
        <ele>971.6</ele>
        <time>2022-05-21 21:23:42</time>
      </trkpt>
      <trkpt lat="42.31504" lon="2.37523">
        <ele>971.4</ele>
        <time>2022-05-21 21:23:43</time>
      </trkpt>
      <trkpt lat="42.315" lon="2.37517">
        <ele>971.4</ele>
        <time>2022-05-21 21:23:44</time>
      </trkpt>
      <trkpt lat="42.31496" lon="2.3751">
        <ele>971.2</ele>
        <time>2022-05-21 21:23:45</time>
      </trkpt>
      <trkpt lat="42.31491" lon="2.37504">
        <ele>971.2</ele>
        <time>2022-05-21 21:23:46</time>
      </trkpt>
      <trkpt lat="42.31486" lon="2.37498">
        <ele>971</ele>
        <time>2022-05-21 21:23:47</time>
      </trkpt>
      <trkpt lat="42.31481" lon="2.37492">
        <ele>970.8</ele>
        <time>2022-05-21 21:23:48</time>
      </trkpt>
      <trkpt lat="42.31476" lon="2.37485">
        <ele>970.8</ele>
        <time>2022-05-21 21:23:49</time>
      </trkpt>
      <trkpt lat="42.31471" lon="2.37479">
        <ele>970.6</ele>
        <time>2022-05-21 21:23:50</time>
      </trkpt>
      <trkpt lat="42.31466" lon="2.37472">
        <ele>970.4</ele>
        <time>2022-05-21 21:23:51</time>
      </trkpt>
      <trkpt lat="42.31461" lon="2.37465">
        <ele>970.4</ele>
        <time>2022-05-21 21:23:52</time>
      </trkpt>
      <trkpt lat="42.31456" lon="2.37459">
        <ele>970.4</ele>
        <time>2022-05-21 21:23:53</time>
      </trkpt>
      <trkpt lat="42.31451" lon="2.37453">
        <ele>970.2</ele>
        <time>2022-05-21 21:23:54</time>
      </trkpt>
      <trkpt lat="42.31446" lon="2.37446">
        <ele>970.2</ele>
        <time>2022-05-21 21:23:55</time>
      </trkpt>
      <trkpt lat="42.3144" lon="2.3744">
        <ele>970</ele>
        <time>2022-05-21 21:23:56</time>
      </trkpt>
      <trkpt lat="42.31436" lon="2.37433">
        <ele>970</ele>
        <time>2022-05-21 21:23:57</time>
      </trkpt>
      <trkpt lat="42.31431" lon="2.37427">
        <ele>969.8</ele>
        <time>2022-05-21 21:23:58</time>
      </trkpt>
      <trkpt lat="42.31426" lon="2.3742">
        <ele>969.8</ele>
        <time>2022-05-21 21:23:59</time>
      </trkpt>
      <trkpt lat="42.31421" lon="2.37414">
        <ele>969.6</ele>
        <time>2022-05-21 21:24:00</time>
      </trkpt>
      <trkpt lat="42.31416" lon="2.37407">
        <ele>969.4</ele>
        <time>2022-05-21 21:24:01</time>
      </trkpt>
      <trkpt lat="42.31411" lon="2.374">
        <ele>969.4</ele>
        <time>2022-05-21 21:24:02</time>
      </trkpt>
      <trkpt lat="42.31406" lon="2.37393">
        <ele>969.2</ele>
        <time>2022-05-21 21:24:03</time>
      </trkpt>
      <trkpt lat="42.31401" lon="2.37386">
        <ele>969</ele>
        <time>2022-05-21 21:24:04</time>
      </trkpt>
      <trkpt lat="42.31396" lon="2.37379">
        <ele>969</ele>
        <time>2022-05-21 21:24:05</time>
      </trkpt>
      <trkpt lat="42.31391" lon="2.37373">
        <ele>968.8</ele>
        <time>2022-05-21 21:24:06</time>
      </trkpt>
      <trkpt lat="42.31386" lon="2.37366">
        <ele>968.6</ele>
        <time>2022-05-21 21:24:07</time>
      </trkpt>
      <trkpt lat="42.31382" lon="2.37359">
        <ele>968.4</ele>
        <time>2022-05-21 21:24:08</time>
      </trkpt>
      <trkpt lat="42.31377" lon="2.37352">
        <ele>968.2</ele>
        <time>2022-05-21 21:24:09</time>
      </trkpt>
      <trkpt lat="42.31373" lon="2.37347">
        <ele>968</ele>
        <time>2022-05-21 21:24:10</time>
      </trkpt>
      <trkpt lat="42.31368" lon="2.37344">
        <ele>968</ele>
        <time>2022-05-21 21:24:11</time>
      </trkpt>
      <trkpt lat="42.31363" lon="2.37342">
        <ele>967.8</ele>
        <time>2022-05-21 21:24:12</time>
      </trkpt>
      <trkpt lat="42.31358" lon="2.37342">
        <ele>967.6</ele>
        <time>2022-05-21 21:24:13</time>
      </trkpt>
      <trkpt lat="42.31354" lon="2.37343">
        <ele>967.6</ele>
        <time>2022-05-21 21:24:14</time>
      </trkpt>
      <trkpt lat="42.31352" lon="2.37344">
        <ele>967.8</ele>
        <time>2022-05-21 21:24:15</time>
      </trkpt>
      <trkpt lat="42.31351" lon="2.37345">
        <ele>967.8</ele>
        <time>2022-05-21 21:24:16</time>
      </trkpt>
      <trkpt lat="42.31349" lon="2.37345">
        <ele>967.8</ele>
        <time>2022-05-21 21:24:17</time>
      </trkpt>
      <trkpt lat="42.31347" lon="2.37344">
        <ele>968</ele>
        <time>2022-05-21 21:24:18</time>
      </trkpt>
      <trkpt lat="42.31346" lon="2.37343">
        <ele>968</ele>
        <time>2022-05-21 21:24:19</time>
      </trkpt>
      <trkpt lat="42.31344" lon="2.37343">
        <ele>968</ele>
        <time>2022-05-21 21:24:20</time>
      </trkpt>
      <trkpt lat="42.31341" lon="2.37343">
        <ele>968</ele>
        <time>2022-05-21 21:24:21</time>
      </trkpt>
      <trkpt lat="42.3134" lon="2.37344">
        <ele>968</ele>
        <time>2022-05-21 21:24:22</time>
      </trkpt>
      <trkpt lat="42.31339" lon="2.37347">
        <ele>967.8</ele>
        <time>2022-05-21 21:24:23</time>
      </trkpt>
      <trkpt lat="42.3134" lon="2.37349">
        <ele>967.8</ele>
        <time>2022-05-21 21:24:24</time>
      </trkpt>
      <trkpt lat="42.31342" lon="2.37352">
        <ele>967.8</ele>
        <time>2022-05-21 21:24:25</time>
      </trkpt>
      <trkpt lat="42.31345" lon="2.37354">
        <ele>967.8</ele>
        <time>2022-05-21 21:24:26</time>
      </trkpt>
      <trkpt lat="42.31346" lon="2.37356">
        <ele>967.8</ele>
        <time>2022-05-21 21:24:27</time>
      </trkpt>
      <trkpt lat="42.31348" lon="2.37359">
        <ele>967.8</ele>
        <time>2022-05-21 21:24:28</time>
      </trkpt>
      <trkpt lat="42.31351" lon="2.37362">
        <ele>967.8</ele>
        <time>2022-05-21 21:24:29</time>
      </trkpt>
      <trkpt lat="42.31353" lon="2.37365">
        <ele>967.8</ele>
        <time>2022-05-21 21:24:30</time>
      </trkpt>
      <trkpt lat="42.31355" lon="2.37368">
        <ele>967.8</ele>
        <time>2022-05-21 21:24:31</time>
      </trkpt>
      <trkpt lat="42.31357" lon="2.37371">
        <ele>967.8</ele>
        <time>2022-05-21 21:24:32</time>
      </trkpt>
      <trkpt lat="42.31361" lon="2.37374">
        <ele>967.8</ele>
        <time>2022-05-21 21:24:33</time>
      </trkpt>
      <trkpt lat="42.31364" lon="2.37376">
        <ele>967.8</ele>
        <time>2022-05-21 21:24:34</time>
      </trkpt>
      <trkpt lat="42.31366" lon="2.37377">
        <ele>967.8</ele>
        <time>2022-05-21 21:24:35</time>
      </trkpt>
      <trkpt lat="42.31372" lon="2.37378">
        <ele>967.8</ele>
        <time>2022-05-21 21:24:36</time>
      </trkpt>
      <trkpt lat="42.31374" lon="2.37377">
        <ele>967.8</ele>
        <time>2022-05-21 21:24:37</time>
      </trkpt>
      <trkpt lat="42.31376" lon="2.37376">
        <ele>967.8</ele>
        <time>2022-05-21 21:24:38</time>
      </trkpt>
      <trkpt lat="42.3138" lon="2.3737">
        <ele>967.8</ele>
        <time>2022-05-21 21:24:39</time>
      </trkpt>
      <trkpt lat="42.31381" lon="2.37365">
        <ele>967.8</ele>
        <time>2022-05-21 21:24:40</time>
      </trkpt>
      <trkpt lat="42.31382" lon="2.37362">
        <ele>967.8</ele>
        <time>2022-05-21 21:24:41</time>
      </trkpt>
      <trkpt lat="42.31381" lon="2.37355">
        <ele>967.8</ele>
        <time>2022-05-21 21:24:42</time>
      </trkpt>
      <trkpt lat="42.3138" lon="2.37351">
        <ele>967.8</ele>
        <time>2022-05-21 21:24:43</time>
      </trkpt>
      <trkpt lat="42.31378" lon="2.37349">
        <ele>967.8</ele>
        <time>2022-05-21 21:24:44</time>
      </trkpt>
      <trkpt lat="42.31373" lon="2.37343">
        <ele>967.6</ele>
        <time>2022-05-21 21:24:45</time>
      </trkpt>
      <trkpt lat="42.3137" lon="2.3734">
        <ele>967.4</ele>
        <time>2022-05-21 21:24:46</time>
      </trkpt>
      <trkpt lat="42.31368" lon="2.37337">
        <ele>967.4</ele>
        <time>2022-05-21 21:24:47</time>
      </trkpt>
      <trkpt lat="42.31364" lon="2.3733">
        <ele>967.2</ele>
        <time>2022-05-21 21:24:48</time>
      </trkpt>
      <trkpt lat="42.31363" lon="2.37328">
        <ele>967</ele>
        <time>2022-05-21 21:24:49</time>
      </trkpt>
      <trkpt lat="42.31359" lon="2.3732">
        <ele>966.8</ele>
        <time>2022-05-21 21:24:50</time>
      </trkpt>
      <trkpt lat="42.31358" lon="2.37316">
        <ele>966.6</ele>
        <time>2022-05-21 21:24:51</time>
      </trkpt>
      <trkpt lat="42.31355" lon="2.37307">
        <ele>966.6</ele>
        <time>2022-05-21 21:24:52</time>
      </trkpt>
      <trkpt lat="42.31353" lon="2.37301">
        <ele>966.6</ele>
        <time>2022-05-21 21:24:53</time>
      </trkpt>
      <trkpt lat="42.3135" lon="2.37295">
        <ele>966.6</ele>
        <time>2022-05-21 21:24:54</time>
      </trkpt>
      <trkpt lat="42.31347" lon="2.37289">
        <ele>966.4</ele>
        <time>2022-05-21 21:24:55</time>
      </trkpt>
      <trkpt lat="42.31345" lon="2.37283">
        <ele>966.4</ele>
        <time>2022-05-21 21:24:56</time>
      </trkpt>
      <trkpt lat="42.31344" lon="2.37277">
        <ele>966.4</ele>
        <time>2022-05-21 21:24:57</time>
      </trkpt>
      <trkpt lat="42.31342" lon="2.37271">
        <ele>966.4</ele>
        <time>2022-05-21 21:24:58</time>
      </trkpt>
      <trkpt lat="42.31341" lon="2.37265">
        <ele>966.4</ele>
        <time>2022-05-21 21:24:59</time>
      </trkpt>
      <trkpt lat="42.3134" lon="2.37258">
        <ele>966.2</ele>
        <time>2022-05-21 21:25:00</time>
      </trkpt>
      <trkpt lat="42.3134" lon="2.37252">
        <ele>966.2</ele>
        <time>2022-05-21 21:25:01</time>
      </trkpt>
      <trkpt lat="42.31339" lon="2.37247">
        <ele>966.2</ele>
        <time>2022-05-21 21:25:02</time>
      </trkpt>
      <trkpt lat="42.31339" lon="2.37241">
        <ele>966.4</ele>
        <time>2022-05-21 21:25:03</time>
      </trkpt>
      <trkpt lat="42.31338" lon="2.37236">
        <ele>966.2</ele>
        <time>2022-05-21 21:25:04</time>
      </trkpt>
      <trkpt lat="42.31337" lon="2.37232">
        <ele>966.4</ele>
        <time>2022-05-21 21:25:05</time>
      </trkpt>
      <trkpt lat="42.31336" lon="2.37227">
        <ele>966.4</ele>
        <time>2022-05-21 21:25:06</time>
      </trkpt>
      <trkpt lat="42.31336" lon="2.37223">
        <ele>966.4</ele>
        <time>2022-05-21 21:25:07</time>
      </trkpt>
      <trkpt lat="42.31335" lon="2.37218">
        <ele>966.6</ele>
        <time>2022-05-21 21:25:08</time>
      </trkpt>
      <trkpt lat="42.31335" lon="2.37212">
        <ele>966.6</ele>
        <time>2022-05-21 21:25:09</time>
      </trkpt>
      <trkpt lat="42.31334" lon="2.37208">
        <ele>966.6</ele>
        <time>2022-05-21 21:25:10</time>
      </trkpt>
      <trkpt lat="42.31333" lon="2.37203">
        <ele>966.6</ele>
        <time>2022-05-21 21:25:11</time>
      </trkpt>
      <trkpt lat="42.31332" lon="2.37198">
        <ele>966.6</ele>
        <time>2022-05-21 21:25:12</time>
      </trkpt>
      <trkpt lat="42.31332" lon="2.37194">
        <ele>966.6</ele>
        <time>2022-05-21 21:25:13</time>
      </trkpt>
      <trkpt lat="42.31332" lon="2.37189">
        <ele>966.6</ele>
        <time>2022-05-21 21:25:14</time>
      </trkpt>
      <trkpt lat="42.31333" lon="2.37186">
        <ele>966.6</ele>
        <time>2022-05-21 21:25:15</time>
      </trkpt>
      <trkpt lat="42.31334" lon="2.37184">
        <ele>966.6</ele>
        <time>2022-05-21 21:25:16</time>
      </trkpt>
      <trkpt lat="42.31333" lon="2.37186">
        <ele>966.6</ele>
        <time>2022-05-21 21:25:18</time>
      </trkpt>
      <trkpt lat="42.31333" lon="2.37188">
        <ele>966.6</ele>
        <time>2022-05-21 21:25:19</time>
      </trkpt>
      <trkpt lat="42.31333" lon="2.37191">
        <ele>966.6</ele>
        <time>2022-05-21 21:25:20</time>
      </trkpt>
      <trkpt lat="42.31333" lon="2.37194">
        <ele>966.6</ele>
        <time>2022-05-21 21:25:21</time>
      </trkpt>
      <trkpt lat="42.31333" lon="2.37198">
        <ele>966.6</ele>
        <time>2022-05-21 21:25:22</time>
      </trkpt>
      <trkpt lat="42.31334" lon="2.37201">
        <ele>966.6</ele>
        <time>2022-05-21 21:25:23</time>
      </trkpt>
      <trkpt lat="42.31334" lon="2.37207">
        <ele>966.6</ele>
        <time>2022-05-21 21:25:24</time>
      </trkpt>
      <trkpt lat="42.31335" lon="2.37212">
        <ele>966.4</ele>
        <time>2022-05-21 21:25:25</time>
      </trkpt>
      <trkpt lat="42.31335" lon="2.37215">
        <ele>966.4</ele>
        <time>2022-05-21 21:25:26</time>
      </trkpt>
      <trkpt lat="42.31335" lon="2.37223">
        <ele>966.2</ele>
        <time>2022-05-21 21:25:27</time>
      </trkpt>
      <trkpt lat="42.31336" lon="2.37229">
        <ele>966.2</ele>
        <time>2022-05-21 21:25:28</time>
      </trkpt>
      <trkpt lat="42.31336" lon="2.37234">
        <ele>966</ele>
        <time>2022-05-21 21:25:29</time>
      </trkpt>
      <trkpt lat="42.31336" lon="2.3724">
        <ele>966</ele>
        <time>2022-05-21 21:25:30</time>
      </trkpt>
      <trkpt lat="42.31336" lon="2.37246">
        <ele>965.8</ele>
        <time>2022-05-21 21:25:31</time>
      </trkpt>
      <trkpt lat="42.31337" lon="2.37251">
        <ele>965.8</ele>
        <time>2022-05-21 21:25:32</time>
      </trkpt>
      <trkpt lat="42.31338" lon="2.37258">
        <ele>965.8</ele>
        <time>2022-05-21 21:25:33</time>
      </trkpt>
      <trkpt lat="42.31339" lon="2.37264">
        <ele>965.8</ele>
        <time>2022-05-21 21:25:34</time>
      </trkpt>
      <trkpt lat="42.3134" lon="2.37271">
        <ele>965.8</ele>
        <time>2022-05-21 21:25:35</time>
      </trkpt>
      <trkpt lat="42.31342" lon="2.37277">
        <ele>965.8</ele>
        <time>2022-05-21 21:25:36</time>
      </trkpt>
      <trkpt lat="42.31343" lon="2.37283">
        <ele>965.8</ele>
        <time>2022-05-21 21:25:37</time>
      </trkpt>
      <trkpt lat="42.31344" lon="2.37289">
        <ele>965.6</ele>
        <time>2022-05-21 21:25:38</time>
      </trkpt>
      <trkpt lat="42.31346" lon="2.37295">
        <ele>965.6</ele>
        <time>2022-05-21 21:25:39</time>
      </trkpt>
      <trkpt lat="42.31348" lon="2.37299">
        <ele>965.6</ele>
        <time>2022-05-21 21:25:40</time>
      </trkpt>
      <trkpt lat="42.31349" lon="2.37306">
        <ele>965.6</ele>
        <time>2022-05-21 21:25:41</time>
      </trkpt>
      <trkpt lat="42.31351" lon="2.37311">
        <ele>965.6</ele>
        <time>2022-05-21 21:25:42</time>
      </trkpt>
      <trkpt lat="42.31353" lon="2.37317">
        <ele>965.6</ele>
        <time>2022-05-21 21:25:43</time>
      </trkpt>
      <trkpt lat="42.31355" lon="2.37323">
        <ele>965.8</ele>
        <time>2022-05-21 21:25:44</time>
      </trkpt>
      <trkpt lat="42.31357" lon="2.37329">
        <ele>965.8</ele>
        <time>2022-05-21 21:25:45</time>
      </trkpt>
      <trkpt lat="42.31357" lon="2.37333">
        <ele>966</ele>
        <time>2022-05-21 21:25:46</time>
      </trkpt>
      <trkpt lat="42.31357" lon="2.37336">
        <ele>966</ele>
        <time>2022-05-21 21:25:47</time>
      </trkpt>
      <trkpt lat="42.31354" lon="2.3734">
        <ele>966.2</ele>
        <time>2022-05-21 21:25:48</time>
      </trkpt>
      <trkpt lat="42.31351" lon="2.37342">
        <ele>966.2</ele>
        <time>2022-05-21 21:25:49</time>
      </trkpt>
      <trkpt lat="42.31348" lon="2.37343">
        <ele>966.2</ele>
        <time>2022-05-21 21:25:50</time>
      </trkpt>
      <trkpt lat="42.31344" lon="2.37342">
        <ele>966.2</ele>
        <time>2022-05-21 21:25:51</time>
      </trkpt>
      <trkpt lat="42.31341" lon="2.3734">
        <ele>966.4</ele>
        <time>2022-05-21 21:25:52</time>
      </trkpt>
      <trkpt lat="42.31337" lon="2.37339">
        <ele>966.4</ele>
        <time>2022-05-21 21:25:53</time>
      </trkpt>
      <trkpt lat="42.31333" lon="2.37337">
        <ele>966.4</ele>
        <time>2022-05-21 21:25:54</time>
      </trkpt>
      <trkpt lat="42.31329" lon="2.37334">
        <ele>966.4</ele>
        <time>2022-05-21 21:25:55</time>
      </trkpt>
      <trkpt lat="42.31324" lon="2.37332">
        <ele>966.4</ele>
        <time>2022-05-21 21:25:56</time>
      </trkpt>
      <trkpt lat="42.3132" lon="2.37329">
        <ele>966.4</ele>
        <time>2022-05-21 21:25:57</time>
      </trkpt>
      <trkpt lat="42.31315" lon="2.37326">
        <ele>966.2</ele>
        <time>2022-05-21 21:25:58</time>
      </trkpt>
      <trkpt lat="42.31311" lon="2.37324">
        <ele>966.2</ele>
        <time>2022-05-21 21:25:59</time>
      </trkpt>
      <trkpt lat="42.31306" lon="2.37322">
        <ele>966</ele>
        <time>2022-05-21 21:26:00</time>
      </trkpt>
      <trkpt lat="42.31301" lon="2.37319">
        <ele>966</ele>
        <time>2022-05-21 21:26:01</time>
      </trkpt>
      <trkpt lat="42.31297" lon="2.37316">
        <ele>966</ele>
        <time>2022-05-21 21:26:02</time>
      </trkpt>
      <trkpt lat="42.31292" lon="2.37313">
        <ele>966</ele>
        <time>2022-05-21 21:26:03</time>
      </trkpt>
      <trkpt lat="42.31287" lon="2.3731">
        <ele>966</ele>
        <time>2022-05-21 21:26:04</time>
      </trkpt>
      <trkpt lat="42.31282" lon="2.37308">
        <ele>966</ele>
        <time>2022-05-21 21:26:05</time>
      </trkpt>
      <trkpt lat="42.31277" lon="2.37305">
        <ele>966</ele>
        <time>2022-05-21 21:26:06</time>
      </trkpt>
      <trkpt lat="42.31273" lon="2.37302">
        <ele>966.2</ele>
        <time>2022-05-21 21:26:07</time>
      </trkpt>
      <trkpt lat="42.31268" lon="2.37299">
        <ele>966.2</ele>
        <time>2022-05-21 21:26:08</time>
      </trkpt>
      <trkpt lat="42.31264" lon="2.37296">
        <ele>966.2</ele>
        <time>2022-05-21 21:26:09</time>
      </trkpt>
      <trkpt lat="42.3126" lon="2.37293">
        <ele>966.2</ele>
        <time>2022-05-21 21:26:10</time>
      </trkpt>
      <trkpt lat="42.31256" lon="2.37289">
        <ele>966.4</ele>
        <time>2022-05-21 21:26:11</time>
      </trkpt>
      <trkpt lat="42.31252" lon="2.37286">
        <ele>966.4</ele>
        <time>2022-05-21 21:26:12</time>
      </trkpt>
      <trkpt lat="42.31248" lon="2.37283">
        <ele>966.6</ele>
        <time>2022-05-21 21:26:13</time>
      </trkpt>
      <trkpt lat="42.31244" lon="2.3728">
        <ele>966.6</ele>
        <time>2022-05-21 21:26:14</time>
      </trkpt>
      <trkpt lat="42.3124" lon="2.37277">
        <ele>966.8</ele>
        <time>2022-05-21 21:26:15</time>
      </trkpt>
      <trkpt lat="42.31236" lon="2.37273">
        <ele>966.8</ele>
        <time>2022-05-21 21:26:16</time>
      </trkpt>
      <trkpt lat="42.31233" lon="2.3727">
        <ele>967</ele>
        <time>2022-05-21 21:26:17</time>
      </trkpt>
      <trkpt lat="42.3123" lon="2.37266">
        <ele>967.2</ele>
        <time>2022-05-21 21:26:18</time>
      </trkpt>
      <trkpt lat="42.31226" lon="2.37262">
        <ele>967.4</ele>
        <time>2022-05-21 21:26:19</time>
      </trkpt>
      <trkpt lat="42.31224" lon="2.37258">
        <ele>967.4</ele>
        <time>2022-05-21 21:26:20</time>
      </trkpt>
      <trkpt lat="42.31222" lon="2.37254">
        <ele>967.6</ele>
        <time>2022-05-21 21:26:21</time>
      </trkpt>
      <trkpt lat="42.31221" lon="2.3725">
        <ele>967.8</ele>
        <time>2022-05-21 21:26:22</time>
      </trkpt>
      <trkpt lat="42.3122" lon="2.37248">
        <ele>967.8</ele>
        <time>2022-05-21 21:26:23</time>
      </trkpt>
      <trkpt lat="42.3122" lon="2.37246">
        <ele>968</ele>
        <time>2022-05-21 21:26:24</time>
      </trkpt>
      <trkpt lat="42.31212" lon="2.37223">
        <ele>968.2</ele>
        <time>2022-05-21 21:29:46</time>
      </trkpt>
      <trkpt lat="42.31211" lon="2.37219">
        <ele>968.2</ele>
        <time>2022-05-21 21:29:47</time>
      </trkpt>
      <trkpt lat="42.3121" lon="2.37215">
        <ele>968.4</ele>
        <time>2022-05-21 21:29:48</time>
      </trkpt>
      <trkpt lat="42.3121" lon="2.37211">
        <ele>968.4</ele>
        <time>2022-05-21 21:29:49</time>
      </trkpt>
      <trkpt lat="42.31208" lon="2.37206">
        <ele>968.4</ele>
        <time>2022-05-21 21:29:50</time>
      </trkpt>
      <trkpt lat="42.31208" lon="2.37201">
        <ele>968.4</ele>
        <time>2022-05-21 21:29:51</time>
      </trkpt>
      <trkpt lat="42.31207" lon="2.37197">
        <ele>968.6</ele>
        <time>2022-05-21 21:29:52</time>
      </trkpt>
      <trkpt lat="42.31207" lon="2.37192">
        <ele>968.6</ele>
        <time>2022-05-21 21:29:53</time>
      </trkpt>
      <trkpt lat="42.31206" lon="2.37188">
        <ele>968.8</ele>
        <time>2022-05-21 21:29:54</time>
      </trkpt>
      <trkpt lat="42.31206" lon="2.37183">
        <ele>968.8</ele>
        <time>2022-05-21 21:29:55</time>
      </trkpt>
      <trkpt lat="42.31205" lon="2.37179">
        <ele>969</ele>
        <time>2022-05-21 21:29:56</time>
      </trkpt>
      <trkpt lat="42.31204" lon="2.37174">
        <ele>969</ele>
        <time>2022-05-21 21:29:57</time>
      </trkpt>
      <trkpt lat="42.31204" lon="2.37169">
        <ele>969.2</ele>
        <time>2022-05-21 21:29:58</time>
      </trkpt>
      <trkpt lat="42.31204" lon="2.37164">
        <ele>969.2</ele>
        <time>2022-05-21 21:29:59</time>
      </trkpt>
      <trkpt lat="42.31204" lon="2.37159">
        <ele>969.4</ele>
        <time>2022-05-21 21:30:00</time>
      </trkpt>
      <trkpt lat="42.31204" lon="2.37154">
        <ele>969.4</ele>
        <time>2022-05-21 21:30:01</time>
      </trkpt>
      <trkpt lat="42.31204" lon="2.37149">
        <ele>969.6</ele>
        <time>2022-05-21 21:30:02</time>
      </trkpt>
      <trkpt lat="42.31204" lon="2.37144">
        <ele>969.6</ele>
        <time>2022-05-21 21:30:03</time>
      </trkpt>
      <trkpt lat="42.31204" lon="2.37139">
        <ele>969.8</ele>
        <time>2022-05-21 21:30:04</time>
      </trkpt>
      <trkpt lat="42.31204" lon="2.37134">
        <ele>969.8</ele>
        <time>2022-05-21 21:30:05</time>
      </trkpt>
      <trkpt lat="42.31204" lon="2.37129">
        <ele>970</ele>
        <time>2022-05-21 21:30:06</time>
      </trkpt>
      <trkpt lat="42.31203" lon="2.37124">
        <ele>970.2</ele>
        <time>2022-05-21 21:30:07</time>
      </trkpt>
      <trkpt lat="42.31203" lon="2.37118">
        <ele>970.4</ele>
        <time>2022-05-21 21:30:08</time>
      </trkpt>
      <trkpt lat="42.31203" lon="2.37113">
        <ele>970.4</ele>
        <time>2022-05-21 21:30:09</time>
      </trkpt>
      <trkpt lat="42.31204" lon="2.37107">
        <ele>970.6</ele>
        <time>2022-05-21 21:30:10</time>
      </trkpt>
      <trkpt lat="42.31204" lon="2.37102">
        <ele>970.8</ele>
        <time>2022-05-21 21:30:11</time>
      </trkpt>
      <trkpt lat="42.31204" lon="2.37097">
        <ele>970.8</ele>
        <time>2022-05-21 21:30:12</time>
      </trkpt>
      <trkpt lat="42.31203" lon="2.37091">
        <ele>971</ele>
        <time>2022-05-21 21:30:13</time>
      </trkpt>
      <trkpt lat="42.31203" lon="2.37086">
        <ele>971.2</ele>
        <time>2022-05-21 21:30:14</time>
      </trkpt>
      <trkpt lat="42.31203" lon="2.3708">
        <ele>971.4</ele>
        <time>2022-05-21 21:30:15</time>
      </trkpt>
      <trkpt lat="42.31203" lon="2.37074">
        <ele>971.4</ele>
        <time>2022-05-21 21:30:16</time>
      </trkpt>
      <trkpt lat="42.31203" lon="2.37069">
        <ele>971.6</ele>
        <time>2022-05-21 21:30:17</time>
      </trkpt>
      <trkpt lat="42.31203" lon="2.37064">
        <ele>971.8</ele>
        <time>2022-05-21 21:30:18</time>
      </trkpt>
      <trkpt lat="42.31203" lon="2.37059">
        <ele>972</ele>
        <time>2022-05-21 21:30:19</time>
      </trkpt>
      <trkpt lat="42.31203" lon="2.37054">
        <ele>972</ele>
        <time>2022-05-21 21:30:20</time>
      </trkpt>
      <trkpt lat="42.31204" lon="2.37048">
        <ele>972.2</ele>
        <time>2022-05-21 21:30:21</time>
      </trkpt>
      <trkpt lat="42.31204" lon="2.37043">
        <ele>972.4</ele>
        <time>2022-05-21 21:30:22</time>
      </trkpt>
      <trkpt lat="42.31204" lon="2.37037">
        <ele>972.4</ele>
        <time>2022-05-21 21:30:23</time>
      </trkpt>
      <trkpt lat="42.31204" lon="2.37032">
        <ele>972.6</ele>
        <time>2022-05-21 21:30:24</time>
      </trkpt>
      <trkpt lat="42.31204" lon="2.37027">
        <ele>972.8</ele>
        <time>2022-05-21 21:30:25</time>
      </trkpt>
      <trkpt lat="42.31203" lon="2.37022">
        <ele>972.8</ele>
        <time>2022-05-21 21:30:26</time>
      </trkpt>
      <trkpt lat="42.31203" lon="2.37017">
        <ele>973</ele>
        <time>2022-05-21 21:30:27</time>
      </trkpt>
      <trkpt lat="42.31203" lon="2.37012">
        <ele>973.2</ele>
        <time>2022-05-21 21:30:28</time>
      </trkpt>
      <trkpt lat="42.31202" lon="2.37007">
        <ele>973.2</ele>
        <time>2022-05-21 21:30:29</time>
      </trkpt>
      <trkpt lat="42.31202" lon="2.37003">
        <ele>973.4</ele>
        <time>2022-05-21 21:30:30</time>
      </trkpt>
      <trkpt lat="42.31201" lon="2.36998">
        <ele>973.4</ele>
        <time>2022-05-21 21:30:31</time>
      </trkpt>
      <trkpt lat="42.312" lon="2.36993">
        <ele>973.6</ele>
        <time>2022-05-21 21:30:32</time>
      </trkpt>
      <trkpt lat="42.31199" lon="2.36989">
        <ele>973.8</ele>
        <time>2022-05-21 21:30:33</time>
      </trkpt>
      <trkpt lat="42.31198" lon="2.36985">
        <ele>973.8</ele>
        <time>2022-05-21 21:30:34</time>
      </trkpt>
      <trkpt lat="42.31197" lon="2.3698">
        <ele>974</ele>
        <time>2022-05-21 21:30:35</time>
      </trkpt>
      <trkpt lat="42.31196" lon="2.36976">
        <ele>974</ele>
        <time>2022-05-21 21:30:36</time>
      </trkpt>
      <trkpt lat="42.31195" lon="2.36971">
        <ele>974.2</ele>
        <time>2022-05-21 21:30:37</time>
      </trkpt>
      <trkpt lat="42.31194" lon="2.36966">
        <ele>974.2</ele>
        <time>2022-05-21 21:30:38</time>
      </trkpt>
      <trkpt lat="42.31193" lon="2.36961">
        <ele>974.4</ele>
        <time>2022-05-21 21:30:39</time>
      </trkpt>
      <trkpt lat="42.31191" lon="2.36957">
        <ele>974.4</ele>
        <time>2022-05-21 21:30:40</time>
      </trkpt>
      <trkpt lat="42.3119" lon="2.36952">
        <ele>974.4</ele>
        <time>2022-05-21 21:30:41</time>
      </trkpt>
      <trkpt lat="42.31188" lon="2.36948">
        <ele>974.6</ele>
        <time>2022-05-21 21:30:42</time>
      </trkpt>
      <trkpt lat="42.31187" lon="2.36942">
        <ele>974.6</ele>
        <time>2022-05-21 21:30:43</time>
      </trkpt>
      <trkpt lat="42.31185" lon="2.36937">
        <ele>974.6</ele>
        <time>2022-05-21 21:30:44</time>
      </trkpt>
      <trkpt lat="42.31183" lon="2.36932">
        <ele>974.6</ele>
        <time>2022-05-21 21:30:45</time>
      </trkpt>
      <trkpt lat="42.31181" lon="2.36927">
        <ele>974.6</ele>
        <time>2022-05-21 21:30:46</time>
      </trkpt>
      <trkpt lat="42.31178" lon="2.36921">
        <ele>974.6</ele>
        <time>2022-05-21 21:30:47</time>
      </trkpt>
      <trkpt lat="42.31176" lon="2.36916">
        <ele>974.6</ele>
        <time>2022-05-21 21:30:48</time>
      </trkpt>
      <trkpt lat="42.31174" lon="2.36911">
        <ele>974.6</ele>
        <time>2022-05-21 21:30:49</time>
      </trkpt>
      <trkpt lat="42.31171" lon="2.36905">
        <ele>974.6</ele>
        <time>2022-05-21 21:30:50</time>
      </trkpt>
      <trkpt lat="42.31169" lon="2.36899">
        <ele>974.6</ele>
        <time>2022-05-21 21:30:51</time>
      </trkpt>
      <trkpt lat="42.31166" lon="2.36894">
        <ele>974.6</ele>
        <time>2022-05-21 21:30:52</time>
      </trkpt>
      <trkpt lat="42.31163" lon="2.36889">
        <ele>974.6</ele>
        <time>2022-05-21 21:30:53</time>
      </trkpt>
      <trkpt lat="42.3116" lon="2.36884">
        <ele>974.6</ele>
        <time>2022-05-21 21:30:54</time>
      </trkpt>
      <trkpt lat="42.31158" lon="2.36878">
        <ele>974.4</ele>
        <time>2022-05-21 21:30:55</time>
      </trkpt>
      <trkpt lat="42.31155" lon="2.36872">
        <ele>974.4</ele>
        <time>2022-05-21 21:30:56</time>
      </trkpt>
      <trkpt lat="42.31152" lon="2.36865">
        <ele>974.4</ele>
        <time>2022-05-21 21:30:57</time>
      </trkpt>
      <trkpt lat="42.31149" lon="2.36859">
        <ele>974.2</ele>
        <time>2022-05-21 21:30:58</time>
      </trkpt>
      <trkpt lat="42.31146" lon="2.36853">
        <ele>974.2</ele>
        <time>2022-05-21 21:30:59</time>
      </trkpt>
      <trkpt lat="42.31142" lon="2.36846">
        <ele>974</ele>
        <time>2022-05-21 21:31:00</time>
      </trkpt>
      <trkpt lat="42.31139" lon="2.3684">
        <ele>974</ele>
        <time>2022-05-21 21:31:01</time>
      </trkpt>
      <trkpt lat="42.31136" lon="2.36833">
        <ele>973.8</ele>
        <time>2022-05-21 21:31:02</time>
      </trkpt>
      <trkpt lat="42.31132" lon="2.36827">
        <ele>973.6</ele>
        <time>2022-05-21 21:31:03</time>
      </trkpt>
      <trkpt lat="42.31128" lon="2.3682">
        <ele>973.6</ele>
        <time>2022-05-21 21:31:04</time>
      </trkpt>
      <trkpt lat="42.31125" lon="2.36813">
        <ele>973.4</ele>
        <time>2022-05-21 21:31:05</time>
      </trkpt>
      <trkpt lat="42.31121" lon="2.36807">
        <ele>973.2</ele>
        <time>2022-05-21 21:31:06</time>
      </trkpt>
      <trkpt lat="42.31116" lon="2.36799">
        <ele>973</ele>
        <time>2022-05-21 21:31:07</time>
      </trkpt>
      <trkpt lat="42.31112" lon="2.36791">
        <ele>972.8</ele>
        <time>2022-05-21 21:31:08</time>
      </trkpt>
      <trkpt lat="42.31107" lon="2.36784">
        <ele>972.4</ele>
        <time>2022-05-21 21:31:09</time>
      </trkpt>
      <trkpt lat="42.31102" lon="2.36776">
        <ele>972</ele>
        <time>2022-05-21 21:31:10</time>
      </trkpt>
      <trkpt lat="42.31097" lon="2.36768">
        <ele>971.6</ele>
        <time>2022-05-21 21:31:11</time>
      </trkpt>
      <trkpt lat="42.31092" lon="2.3676">
        <ele>971.2</ele>
        <time>2022-05-21 21:31:12</time>
      </trkpt>
      <trkpt lat="42.31087" lon="2.36752">
        <ele>970.8</ele>
        <time>2022-05-21 21:31:13</time>
      </trkpt>
      <trkpt lat="42.31082" lon="2.36742">
        <ele>970.2</ele>
        <time>2022-05-21 21:31:14</time>
      </trkpt>
      <trkpt lat="42.31077" lon="2.36734">
        <ele>969.6</ele>
        <time>2022-05-21 21:31:15</time>
      </trkpt>
      <trkpt lat="42.31071" lon="2.36724">
        <ele>969</ele>
        <time>2022-05-21 21:31:16</time>
      </trkpt>
      <trkpt lat="42.31066" lon="2.36715">
        <ele>968.4</ele>
        <time>2022-05-21 21:31:17</time>
      </trkpt>
      <trkpt lat="42.3106" lon="2.36706">
        <ele>967.8</ele>
        <time>2022-05-21 21:31:18</time>
      </trkpt>
      <trkpt lat="42.31053" lon="2.36696">
        <ele>967.2</ele>
        <time>2022-05-21 21:31:19</time>
      </trkpt>
      <trkpt lat="42.31046" lon="2.36686">
        <ele>966.6</ele>
        <time>2022-05-21 21:31:20</time>
      </trkpt>
      <trkpt lat="42.31039" lon="2.36676">
        <ele>965.8</ele>
        <time>2022-05-21 21:31:21</time>
      </trkpt>
      <trkpt lat="42.31033" lon="2.36665">
        <ele>965.2</ele>
        <time>2022-05-21 21:31:22</time>
      </trkpt>
      <trkpt lat="42.31026" lon="2.36654">
        <ele>964.4</ele>
        <time>2022-05-21 21:31:23</time>
      </trkpt>
      <trkpt lat="42.31019" lon="2.36642">
        <ele>963.6</ele>
        <time>2022-05-21 21:31:24</time>
      </trkpt>
      <trkpt lat="42.31012" lon="2.3663">
        <ele>962.8</ele>
        <time>2022-05-21 21:31:25</time>
      </trkpt>
      <trkpt lat="42.31005" lon="2.36617">
        <ele>962</ele>
        <time>2022-05-21 21:31:26</time>
      </trkpt>
      <trkpt lat="42.30999" lon="2.36604">
        <ele>961.2</ele>
        <time>2022-05-21 21:31:27</time>
      </trkpt>
      <trkpt lat="42.30991" lon="2.3659">
        <ele>960.4</ele>
        <time>2022-05-21 21:31:28</time>
      </trkpt>
      <trkpt lat="42.30985" lon="2.36578">
        <ele>959.8</ele>
        <time>2022-05-21 21:31:29</time>
      </trkpt>
      <trkpt lat="42.30978" lon="2.36565">
        <ele>958.8</ele>
        <time>2022-05-21 21:31:30</time>
      </trkpt>
      <trkpt lat="42.3097" lon="2.36552">
        <ele>958</ele>
        <time>2022-05-21 21:31:31</time>
      </trkpt>
      <trkpt lat="42.30962" lon="2.36539">
        <ele>957.2</ele>
        <time>2022-05-21 21:31:32</time>
      </trkpt>
      <trkpt lat="42.30955" lon="2.36526">
        <ele>956.2</ele>
        <time>2022-05-21 21:31:33</time>
      </trkpt>
      <trkpt lat="42.30948" lon="2.36514">
        <ele>955.4</ele>
        <time>2022-05-21 21:31:34</time>
      </trkpt>
      <trkpt lat="42.3094" lon="2.36501">
        <ele>954.6</ele>
        <time>2022-05-21 21:31:35</time>
      </trkpt>
      <trkpt lat="42.30932" lon="2.36488">
        <ele>953.8</ele>
        <time>2022-05-21 21:31:36</time>
      </trkpt>
      <trkpt lat="42.30924" lon="2.36475">
        <ele>953</ele>
        <time>2022-05-21 21:31:37</time>
      </trkpt>
      <trkpt lat="42.30917" lon="2.36461">
        <ele>952.2</ele>
        <time>2022-05-21 21:31:38</time>
      </trkpt>
      <trkpt lat="42.30908" lon="2.36448">
        <ele>951.4</ele>
        <time>2022-05-21 21:31:39</time>
      </trkpt>
      <trkpt lat="42.309" lon="2.36435">
        <ele>950.6</ele>
        <time>2022-05-21 21:31:40</time>
      </trkpt>
      <trkpt lat="42.30892" lon="2.36422">
        <ele>949.8</ele>
        <time>2022-05-21 21:31:41</time>
      </trkpt>
      <trkpt lat="42.30882" lon="2.36407">
        <ele>949</ele>
        <time>2022-05-21 21:31:42</time>
      </trkpt>
      <trkpt lat="42.30874" lon="2.36393">
        <ele>948.4</ele>
        <time>2022-05-21 21:31:43</time>
      </trkpt>
      <trkpt lat="42.30866" lon="2.36378">
        <ele>947.8</ele>
        <time>2022-05-21 21:31:44</time>
      </trkpt>
      <trkpt lat="42.30858" lon="2.36363">
        <ele>947.2</ele>
        <time>2022-05-21 21:31:45</time>
      </trkpt>
      <trkpt lat="42.3085" lon="2.36349">
        <ele>946.8</ele>
        <time>2022-05-21 21:31:46</time>
      </trkpt>
      <trkpt lat="42.30841" lon="2.36334">
        <ele>946.4</ele>
        <time>2022-05-21 21:31:47</time>
      </trkpt>
      <trkpt lat="42.30832" lon="2.36319">
        <ele>946</ele>
        <time>2022-05-21 21:31:48</time>
      </trkpt>
      <trkpt lat="42.30825" lon="2.36306">
        <ele>945.8</ele>
        <time>2022-05-21 21:31:49</time>
      </trkpt>
      <trkpt lat="42.30817" lon="2.36294">
        <ele>945.4</ele>
        <time>2022-05-21 21:31:50</time>
      </trkpt>
      <trkpt lat="42.3081" lon="2.36282">
        <ele>945.2</ele>
        <time>2022-05-21 21:31:51</time>
      </trkpt>
      <trkpt lat="42.30804" lon="2.36269">
        <ele>944.8</ele>
        <time>2022-05-21 21:31:52</time>
      </trkpt>
      <trkpt lat="42.30798" lon="2.36258">
        <ele>944.8</ele>
        <time>2022-05-21 21:31:53</time>
      </trkpt>
      <trkpt lat="42.30793" lon="2.36249">
        <ele>944.6</ele>
        <time>2022-05-21 21:31:54</time>
      </trkpt>
      <trkpt lat="42.30789" lon="2.3624">
        <ele>944.6</ele>
        <time>2022-05-21 21:31:55</time>
      </trkpt>
      <trkpt lat="42.30787" lon="2.36231">
        <ele>944.4</ele>
        <time>2022-05-21 21:31:56</time>
      </trkpt>
      <trkpt lat="42.30788" lon="2.36222">
        <ele>944.2</ele>
        <time>2022-05-21 21:31:57</time>
      </trkpt>
      <trkpt lat="42.3079" lon="2.36213">
        <ele>944.2</ele>
        <time>2022-05-21 21:31:58</time>
      </trkpt>
      <trkpt lat="42.30792" lon="2.36205">
        <ele>944</ele>
        <time>2022-05-21 21:31:59</time>
      </trkpt>
      <trkpt lat="42.30794" lon="2.36196">
        <ele>943.8</ele>
        <time>2022-05-21 21:32:00</time>
      </trkpt>
      <trkpt lat="42.30795" lon="2.36187">
        <ele>943.8</ele>
        <time>2022-05-21 21:32:01</time>
      </trkpt>
      <trkpt lat="42.30793" lon="2.36178">
        <ele>943.6</ele>
        <time>2022-05-21 21:32:02</time>
      </trkpt>
      <trkpt lat="42.30789" lon="2.36171">
        <ele>943.6</ele>
        <time>2022-05-21 21:32:03</time>
      </trkpt>
      <trkpt lat="42.30783" lon="2.36166">
        <ele>943.4</ele>
        <time>2022-05-21 21:32:04</time>
      </trkpt>
      <trkpt lat="42.30777" lon="2.36162">
        <ele>943.4</ele>
        <time>2022-05-21 21:32:05</time>
      </trkpt>
      <trkpt lat="42.30771" lon="2.36158">
        <ele>943.2</ele>
        <time>2022-05-21 21:32:06</time>
      </trkpt>
      <trkpt lat="42.30765" lon="2.36153">
        <ele>943.2</ele>
        <time>2022-05-21 21:32:07</time>
      </trkpt>
      <trkpt lat="42.30759" lon="2.36148">
        <ele>943</ele>
        <time>2022-05-21 21:32:08</time>
      </trkpt>
      <trkpt lat="42.30753" lon="2.36142">
        <ele>942.8</ele>
        <time>2022-05-21 21:32:09</time>
      </trkpt>
      <trkpt lat="42.30746" lon="2.36137">
        <ele>942.6</ele>
        <time>2022-05-21 21:32:10</time>
      </trkpt>
      <trkpt lat="42.3074" lon="2.36131">
        <ele>942.6</ele>
        <time>2022-05-21 21:32:11</time>
      </trkpt>
      <trkpt lat="42.30734" lon="2.36125">
        <ele>942.4</ele>
        <time>2022-05-21 21:32:12</time>
      </trkpt>
      <trkpt lat="42.30728" lon="2.36119">
        <ele>942.2</ele>
        <time>2022-05-21 21:32:13</time>
      </trkpt>
      <trkpt lat="42.3072" lon="2.36113">
        <ele>942</ele>
        <time>2022-05-21 21:32:14</time>
      </trkpt>
      <trkpt lat="42.30713" lon="2.36108">
        <ele>941.8</ele>
        <time>2022-05-21 21:32:15</time>
      </trkpt>
      <trkpt lat="42.30704" lon="2.36104">
        <ele>941.6</ele>
        <time>2022-05-21 21:32:16</time>
      </trkpt>
      <trkpt lat="42.30696" lon="2.361">
        <ele>941.4</ele>
        <time>2022-05-21 21:32:17</time>
      </trkpt>
      <trkpt lat="42.30688" lon="2.36097">
        <ele>941.2</ele>
        <time>2022-05-21 21:32:18</time>
      </trkpt>
      <trkpt lat="42.30681" lon="2.36092">
        <ele>941</ele>
        <time>2022-05-21 21:32:19</time>
      </trkpt>
      <trkpt lat="42.30673" lon="2.36086">
        <ele>941</ele>
        <time>2022-05-21 21:32:20</time>
      </trkpt>
      <trkpt lat="42.30665" lon="2.3608">
        <ele>940.8</ele>
        <time>2022-05-21 21:32:21</time>
      </trkpt>
      <trkpt lat="42.30658" lon="2.36074">
        <ele>940.6</ele>
        <time>2022-05-21 21:32:22</time>
      </trkpt>
      <trkpt lat="42.30652" lon="2.36069">
        <ele>940.4</ele>
        <time>2022-05-21 21:32:23</time>
      </trkpt>
      <trkpt lat="42.30644" lon="2.36062">
        <ele>940.4</ele>
        <time>2022-05-21 21:32:24</time>
      </trkpt>
      <trkpt lat="42.30638" lon="2.36057">
        <ele>940.2</ele>
        <time>2022-05-21 21:32:25</time>
      </trkpt>
      <trkpt lat="42.30631" lon="2.3605">
        <ele>940</ele>
        <time>2022-05-21 21:32:26</time>
      </trkpt>
      <trkpt lat="42.30624" lon="2.36045">
        <ele>940</ele>
        <time>2022-05-21 21:32:27</time>
      </trkpt>
      <trkpt lat="42.30617" lon="2.36038">
        <ele>939.8</ele>
        <time>2022-05-21 21:32:28</time>
      </trkpt>
      <trkpt lat="42.3061" lon="2.36033">
        <ele>939.8</ele>
        <time>2022-05-21 21:32:29</time>
      </trkpt>
      <trkpt lat="42.30603" lon="2.36027">
        <ele>939.6</ele>
        <time>2022-05-21 21:32:30</time>
      </trkpt>
      <trkpt lat="42.30596" lon="2.36021">
        <ele>939.6</ele>
        <time>2022-05-21 21:32:31</time>
      </trkpt>
      <trkpt lat="42.30589" lon="2.36015">
        <ele>939.4</ele>
        <time>2022-05-21 21:32:32</time>
      </trkpt>
      <trkpt lat="42.30582" lon="2.3601">
        <ele>939.4</ele>
        <time>2022-05-21 21:32:33</time>
      </trkpt>
      <trkpt lat="42.30574" lon="2.36004">
        <ele>939.2</ele>
        <time>2022-05-21 21:32:34</time>
      </trkpt>
      <trkpt lat="42.30567" lon="2.35999">
        <ele>939.2</ele>
        <time>2022-05-21 21:32:35</time>
      </trkpt>
      <trkpt lat="42.3056" lon="2.35994">
        <ele>939.2</ele>
        <time>2022-05-21 21:32:36</time>
      </trkpt>
      <trkpt lat="42.30554" lon="2.35988">
        <ele>939.2</ele>
        <time>2022-05-21 21:32:37</time>
      </trkpt>
      <trkpt lat="42.30546" lon="2.35982">
        <ele>939</ele>
        <time>2022-05-21 21:32:38</time>
      </trkpt>
      <trkpt lat="42.3054" lon="2.35977">
        <ele>939</ele>
        <time>2022-05-21 21:32:39</time>
      </trkpt>
      <trkpt lat="42.30532" lon="2.35971">
        <ele>939</ele>
        <time>2022-05-21 21:32:40</time>
      </trkpt>
      <trkpt lat="42.30526" lon="2.35966">
        <ele>938.8</ele>
        <time>2022-05-21 21:32:41</time>
      </trkpt>
      <trkpt lat="42.30519" lon="2.3596">
        <ele>938.8</ele>
        <time>2022-05-21 21:32:42</time>
      </trkpt>
      <trkpt lat="42.30512" lon="2.35955">
        <ele>938.6</ele>
        <time>2022-05-21 21:32:43</time>
      </trkpt>
      <trkpt lat="42.30505" lon="2.35949">
        <ele>938.6</ele>
        <time>2022-05-21 21:32:44</time>
      </trkpt>
      <trkpt lat="42.30497" lon="2.35944">
        <ele>938.4</ele>
        <time>2022-05-21 21:32:45</time>
      </trkpt>
      <trkpt lat="42.3049" lon="2.3594">
        <ele>938.4</ele>
        <time>2022-05-21 21:32:46</time>
      </trkpt>
      <trkpt lat="42.30483" lon="2.35936">
        <ele>938.2</ele>
        <time>2022-05-21 21:32:47</time>
      </trkpt>
      <trkpt lat="42.30475" lon="2.35933">
        <ele>938.2</ele>
        <time>2022-05-21 21:32:48</time>
      </trkpt>
      <trkpt lat="42.30467" lon="2.3593">
        <ele>938</ele>
        <time>2022-05-21 21:32:49</time>
      </trkpt>
      <trkpt lat="42.30459" lon="2.35927">
        <ele>938</ele>
        <time>2022-05-21 21:32:50</time>
      </trkpt>
      <trkpt lat="42.30452" lon="2.35924">
        <ele>937.8</ele>
        <time>2022-05-21 21:32:51</time>
      </trkpt>
      <trkpt lat="42.30444" lon="2.35922">
        <ele>937.6</ele>
        <time>2022-05-21 21:32:52</time>
      </trkpt>
      <trkpt lat="42.30437" lon="2.3592">
        <ele>937.6</ele>
        <time>2022-05-21 21:32:53</time>
      </trkpt>
      <trkpt lat="42.30428" lon="2.35918">
        <ele>937.4</ele>
        <time>2022-05-21 21:32:54</time>
      </trkpt>
      <trkpt lat="42.3042" lon="2.35915">
        <ele>937.4</ele>
        <time>2022-05-21 21:32:55</time>
      </trkpt>
      <trkpt lat="42.30412" lon="2.35913">
        <ele>937.2</ele>
        <time>2022-05-21 21:32:56</time>
      </trkpt>
      <trkpt lat="42.30405" lon="2.35911">
        <ele>937.2</ele>
        <time>2022-05-21 21:32:57</time>
      </trkpt>
      <trkpt lat="42.30396" lon="2.35908">
        <ele>937</ele>
        <time>2022-05-21 21:32:58</time>
      </trkpt>
      <trkpt lat="42.30388" lon="2.35905">
        <ele>937</ele>
        <time>2022-05-21 21:32:59</time>
      </trkpt>
      <trkpt lat="42.3038" lon="2.35902">
        <ele>936.8</ele>
        <time>2022-05-21 21:33:00</time>
      </trkpt>
      <trkpt lat="42.30372" lon="2.359">
        <ele>936.8</ele>
        <time>2022-05-21 21:33:01</time>
      </trkpt>
      <trkpt lat="42.30364" lon="2.35897">
        <ele>936.6</ele>
        <time>2022-05-21 21:33:02</time>
      </trkpt>
      <trkpt lat="42.30355" lon="2.35895">
        <ele>936.6</ele>
        <time>2022-05-21 21:33:03</time>
      </trkpt>
      <trkpt lat="42.30347" lon="2.35893">
        <ele>936.4</ele>
        <time>2022-05-21 21:33:04</time>
      </trkpt>
      <trkpt lat="42.30339" lon="2.35891">
        <ele>936.4</ele>
        <time>2022-05-21 21:33:05</time>
      </trkpt>
      <trkpt lat="42.30331" lon="2.35888">
        <ele>936.2</ele>
        <time>2022-05-21 21:33:06</time>
      </trkpt>
      <trkpt lat="42.30323" lon="2.35886">
        <ele>936</ele>
        <time>2022-05-21 21:33:07</time>
      </trkpt>
      <trkpt lat="42.30314" lon="2.35883">
        <ele>935.8</ele>
        <time>2022-05-21 21:33:08</time>
      </trkpt>
      <trkpt lat="42.30306" lon="2.35881">
        <ele>935.6</ele>
        <time>2022-05-21 21:33:09</time>
      </trkpt>
      <trkpt lat="42.30298" lon="2.35878">
        <ele>935.6</ele>
        <time>2022-05-21 21:33:10</time>
      </trkpt>
      <trkpt lat="42.3029" lon="2.35876">
        <ele>935.4</ele>
        <time>2022-05-21 21:33:11</time>
      </trkpt>
      <trkpt lat="42.30281" lon="2.35873">
        <ele>935.4</ele>
        <time>2022-05-21 21:33:12</time>
      </trkpt>
      <trkpt lat="42.30273" lon="2.3587">
        <ele>935.2</ele>
        <time>2022-05-21 21:33:13</time>
      </trkpt>
      <trkpt lat="42.30265" lon="2.35866">
        <ele>935</ele>
        <time>2022-05-21 21:33:14</time>
      </trkpt>
      <trkpt lat="42.30258" lon="2.35863">
        <ele>935</ele>
        <time>2022-05-21 21:33:15</time>
      </trkpt>
      <trkpt lat="42.3025" lon="2.3586">
        <ele>934.8</ele>
        <time>2022-05-21 21:33:16</time>
      </trkpt>
      <trkpt lat="42.30243" lon="2.35856">
        <ele>934.8</ele>
        <time>2022-05-21 21:33:17</time>
      </trkpt>
      <trkpt lat="42.30235" lon="2.35851">
        <ele>934.8</ele>
        <time>2022-05-21 21:33:18</time>
      </trkpt>
      <trkpt lat="42.30229" lon="2.35847">
        <ele>934.6</ele>
        <time>2022-05-21 21:33:19</time>
      </trkpt>
      <trkpt lat="42.30222" lon="2.35842">
        <ele>934.6</ele>
        <time>2022-05-21 21:33:20</time>
      </trkpt>
      <trkpt lat="42.30215" lon="2.35837">
        <ele>934.4</ele>
        <time>2022-05-21 21:33:21</time>
      </trkpt>
      <trkpt lat="42.30208" lon="2.35832">
        <ele>934.4</ele>
        <time>2022-05-21 21:33:22</time>
      </trkpt>
      <trkpt lat="42.30203" lon="2.35828">
        <ele>934.4</ele>
        <time>2022-05-21 21:33:23</time>
      </trkpt>
      <trkpt lat="42.30196" lon="2.35821">
        <ele>934.2</ele>
        <time>2022-05-21 21:33:24</time>
      </trkpt>
      <trkpt lat="42.3019" lon="2.35817">
        <ele>934.2</ele>
        <time>2022-05-21 21:33:25</time>
      </trkpt>
      <trkpt lat="42.30183" lon="2.35811">
        <ele>934.2</ele>
        <time>2022-05-21 21:33:26</time>
      </trkpt>
      <trkpt lat="42.30177" lon="2.35806">
        <ele>934</ele>
        <time>2022-05-21 21:33:27</time>
      </trkpt>
      <trkpt lat="42.30171" lon="2.35801">
        <ele>934</ele>
        <time>2022-05-21 21:33:28</time>
      </trkpt>
      <trkpt lat="42.30165" lon="2.35797">
        <ele>934</ele>
        <time>2022-05-21 21:33:29</time>
      </trkpt>
      <trkpt lat="42.30159" lon="2.35791">
        <ele>934</ele>
        <time>2022-05-21 21:33:30</time>
      </trkpt>
      <trkpt lat="42.30154" lon="2.35787">
        <ele>933.8</ele>
        <time>2022-05-21 21:33:31</time>
      </trkpt>
      <trkpt lat="42.30147" lon="2.35782">
        <ele>933.8</ele>
        <time>2022-05-21 21:33:32</time>
      </trkpt>
      <trkpt lat="42.30142" lon="2.35777">
        <ele>933.8</ele>
        <time>2022-05-21 21:33:33</time>
      </trkpt>
      <trkpt lat="42.30135" lon="2.35772">
        <ele>933.8</ele>
        <time>2022-05-21 21:33:34</time>
      </trkpt>
      <trkpt lat="42.30129" lon="2.35768">
        <ele>933.8</ele>
        <time>2022-05-21 21:33:35</time>
      </trkpt>
      <trkpt lat="42.30123" lon="2.35763">
        <ele>933.8</ele>
        <time>2022-05-21 21:33:36</time>
      </trkpt>
      <trkpt lat="42.30117" lon="2.3576">
        <ele>933.8</ele>
        <time>2022-05-21 21:33:37</time>
      </trkpt>
      <trkpt lat="42.3011" lon="2.35755">
        <ele>933.8</ele>
        <time>2022-05-21 21:33:38</time>
      </trkpt>
      <trkpt lat="42.30103" lon="2.35752">
        <ele>933.6</ele>
        <time>2022-05-21 21:33:39</time>
      </trkpt>
      <trkpt lat="42.30096" lon="2.35749">
        <ele>933.6</ele>
        <time>2022-05-21 21:33:40</time>
      </trkpt>
      <trkpt lat="42.30088" lon="2.35746">
        <ele>933.6</ele>
        <time>2022-05-21 21:33:41</time>
      </trkpt>
      <trkpt lat="42.30081" lon="2.35744">
        <ele>933.4</ele>
        <time>2022-05-21 21:33:42</time>
      </trkpt>
      <trkpt lat="42.30075" lon="2.35742">
        <ele>933.2</ele>
        <time>2022-05-21 21:33:43</time>
      </trkpt>
      <trkpt lat="42.30068" lon="2.35741">
        <ele>933.2</ele>
        <time>2022-05-21 21:33:44</time>
      </trkpt>
      <trkpt lat="42.30062" lon="2.35739">
        <ele>933.2</ele>
        <time>2022-05-21 21:33:45</time>
      </trkpt>
      <trkpt lat="42.30054" lon="2.35739">
        <ele>933.2</ele>
        <time>2022-05-21 21:33:46</time>
      </trkpt>
      <trkpt lat="42.30048" lon="2.35738">
        <ele>933</ele>
        <time>2022-05-21 21:33:47</time>
      </trkpt>
      <trkpt lat="42.3004" lon="2.35738">
        <ele>933</ele>
        <time>2022-05-21 21:33:48</time>
      </trkpt>
      <trkpt lat="42.30034" lon="2.35739">
        <ele>933</ele>
        <time>2022-05-21 21:33:49</time>
      </trkpt>
      <trkpt lat="42.30025" lon="2.35739">
        <ele>933</ele>
        <time>2022-05-21 21:33:50</time>
      </trkpt>
      <trkpt lat="42.30018" lon="2.3574">
        <ele>932.8</ele>
        <time>2022-05-21 21:33:51</time>
      </trkpt>
      <trkpt lat="42.30011" lon="2.35741">
        <ele>932.8</ele>
        <time>2022-05-21 21:33:52</time>
      </trkpt>
      <trkpt lat="42.30004" lon="2.35742">
        <ele>932.4</ele>
        <time>2022-05-21 21:33:53</time>
      </trkpt>
      <trkpt lat="42.29997" lon="2.35743">
        <ele>932.2</ele>
        <time>2022-05-21 21:33:54</time>
      </trkpt>
      <trkpt lat="42.2999" lon="2.35745">
        <ele>932</ele>
        <time>2022-05-21 21:33:55</time>
      </trkpt>
      <trkpt lat="42.29982" lon="2.35746">
        <ele>931.8</ele>
        <time>2022-05-21 21:33:56</time>
      </trkpt>
      <trkpt lat="42.29975" lon="2.35748">
        <ele>931.6</ele>
        <time>2022-05-21 21:33:57</time>
      </trkpt>
      <trkpt lat="42.29967" lon="2.3575">
        <ele>931.6</ele>
        <time>2022-05-21 21:33:58</time>
      </trkpt>
      <trkpt lat="42.2996" lon="2.35752">
        <ele>931.4</ele>
        <time>2022-05-21 21:33:59</time>
      </trkpt>
      <trkpt lat="42.29952" lon="2.35754">
        <ele>931.2</ele>
        <time>2022-05-21 21:34:00</time>
      </trkpt>
      <trkpt lat="42.29945" lon="2.35757">
        <ele>931</ele>
        <time>2022-05-21 21:34:01</time>
      </trkpt>
      <trkpt lat="42.29937" lon="2.35759">
        <ele>931</ele>
        <time>2022-05-21 21:34:02</time>
      </trkpt>
      <trkpt lat="42.29929" lon="2.35761">
        <ele>930.8</ele>
        <time>2022-05-21 21:34:03</time>
      </trkpt>
      <trkpt lat="42.29921" lon="2.35764">
        <ele>930.6</ele>
        <time>2022-05-21 21:34:04</time>
      </trkpt>
      <trkpt lat="42.29913" lon="2.35766">
        <ele>930.4</ele>
        <time>2022-05-21 21:34:05</time>
      </trkpt>
      <trkpt lat="42.29905" lon="2.35769">
        <ele>930.2</ele>
        <time>2022-05-21 21:34:06</time>
      </trkpt>
      <trkpt lat="42.29897" lon="2.35771">
        <ele>930</ele>
        <time>2022-05-21 21:34:07</time>
      </trkpt>
      <trkpt lat="42.29889" lon="2.35773">
        <ele>930</ele>
        <time>2022-05-21 21:34:08</time>
      </trkpt>
      <trkpt lat="42.29881" lon="2.35776">
        <ele>929.8</ele>
        <time>2022-05-21 21:34:09</time>
      </trkpt>
      <trkpt lat="42.29873" lon="2.35778">
        <ele>929.6</ele>
        <time>2022-05-21 21:34:10</time>
      </trkpt>
      <trkpt lat="42.29865" lon="2.35781">
        <ele>929.4</ele>
        <time>2022-05-21 21:34:11</time>
      </trkpt>
      <trkpt lat="42.29857" lon="2.35783">
        <ele>929.2</ele>
        <time>2022-05-21 21:34:12</time>
      </trkpt>
      <trkpt lat="42.29848" lon="2.35786">
        <ele>929</ele>
        <time>2022-05-21 21:34:13</time>
      </trkpt>
      <trkpt lat="42.2984" lon="2.35788">
        <ele>928.8</ele>
        <time>2022-05-21 21:34:14</time>
      </trkpt>
      <trkpt lat="42.29832" lon="2.35791">
        <ele>928.6</ele>
        <time>2022-05-21 21:34:15</time>
      </trkpt>
      <trkpt lat="42.29823" lon="2.35793">
        <ele>928.4</ele>
        <time>2022-05-21 21:34:16</time>
      </trkpt>
      <trkpt lat="42.29815" lon="2.35796">
        <ele>928</ele>
        <time>2022-05-21 21:34:17</time>
      </trkpt>
      <trkpt lat="42.29806" lon="2.35798">
        <ele>927.8</ele>
        <time>2022-05-21 21:34:18</time>
      </trkpt>
      <trkpt lat="42.29797" lon="2.35801">
        <ele>927.6</ele>
        <time>2022-05-21 21:34:19</time>
      </trkpt>
      <trkpt lat="42.29789" lon="2.35803">
        <ele>927.2</ele>
        <time>2022-05-21 21:34:20</time>
      </trkpt>
      <trkpt lat="42.2978" lon="2.35806">
        <ele>927</ele>
        <time>2022-05-21 21:34:21</time>
      </trkpt>
      <trkpt lat="42.29771" lon="2.35808">
        <ele>926.8</ele>
        <time>2022-05-21 21:34:22</time>
      </trkpt>
      <trkpt lat="42.29763" lon="2.35811">
        <ele>926.4</ele>
        <time>2022-05-21 21:34:23</time>
      </trkpt>
      <trkpt lat="42.29754" lon="2.35814">
        <ele>926.2</ele>
        <time>2022-05-21 21:34:24</time>
      </trkpt>
      <trkpt lat="42.29745" lon="2.35817">
        <ele>925.8</ele>
        <time>2022-05-21 21:34:25</time>
      </trkpt>
      <trkpt lat="42.29737" lon="2.3582">
        <ele>925.4</ele>
        <time>2022-05-21 21:34:26</time>
      </trkpt>
      <trkpt lat="42.29728" lon="2.35823">
        <ele>925</ele>
        <time>2022-05-21 21:34:27</time>
      </trkpt>
      <trkpt lat="42.29719" lon="2.35827">
        <ele>924.8</ele>
        <time>2022-05-21 21:34:28</time>
      </trkpt>
      <trkpt lat="42.29711" lon="2.3583">
        <ele>924.4</ele>
        <time>2022-05-21 21:34:29</time>
      </trkpt>
      <trkpt lat="42.29703" lon="2.35833">
        <ele>924</ele>
        <time>2022-05-21 21:34:30</time>
      </trkpt>
      <trkpt lat="42.29696" lon="2.35837">
        <ele>923.8</ele>
        <time>2022-05-21 21:34:31</time>
      </trkpt>
      <trkpt lat="42.29687" lon="2.35841">
        <ele>923.4</ele>
        <time>2022-05-21 21:34:32</time>
      </trkpt>
      <trkpt lat="42.29678" lon="2.35844">
        <ele>923</ele>
        <time>2022-05-21 21:34:33</time>
      </trkpt>
      <trkpt lat="42.29668" lon="2.35847">
        <ele>922.8</ele>
        <time>2022-05-21 21:34:34</time>
      </trkpt>
      <trkpt lat="42.29658" lon="2.3585">
        <ele>922.6</ele>
        <time>2022-05-21 21:34:35</time>
      </trkpt>
      <trkpt lat="42.29649" lon="2.35853">
        <ele>922.2</ele>
        <time>2022-05-21 21:34:36</time>
      </trkpt>
      <trkpt lat="42.2964" lon="2.35856">
        <ele>922</ele>
        <time>2022-05-21 21:34:37</time>
      </trkpt>
      <trkpt lat="42.29632" lon="2.35859">
        <ele>921.6</ele>
        <time>2022-05-21 21:34:38</time>
      </trkpt>
      <trkpt lat="42.29624" lon="2.35863">
        <ele>921.4</ele>
        <time>2022-05-21 21:34:39</time>
      </trkpt>
      <trkpt lat="42.29616" lon="2.35867">
        <ele>921.4</ele>
        <time>2022-05-21 21:34:40</time>
      </trkpt>
      <trkpt lat="42.29608" lon="2.35871">
        <ele>921.2</ele>
        <time>2022-05-21 21:34:41</time>
      </trkpt>
      <trkpt lat="42.29601" lon="2.35874">
        <ele>921</ele>
        <time>2022-05-21 21:34:42</time>
      </trkpt>
      <trkpt lat="42.29593" lon="2.35878">
        <ele>921</ele>
        <time>2022-05-21 21:34:43</time>
      </trkpt>
      <trkpt lat="42.29585" lon="2.35881">
        <ele>920.8</ele>
        <time>2022-05-21 21:34:44</time>
      </trkpt>
      <trkpt lat="42.29577" lon="2.35884">
        <ele>920.8</ele>
        <time>2022-05-21 21:34:45</time>
      </trkpt>
      <trkpt lat="42.2957" lon="2.35888">
        <ele>920.6</ele>
        <time>2022-05-21 21:34:46</time>
      </trkpt>
      <trkpt lat="42.29562" lon="2.35891">
        <ele>920.6</ele>
        <time>2022-05-21 21:34:47</time>
      </trkpt>
      <trkpt lat="42.29555" lon="2.35894">
        <ele>920.6</ele>
        <time>2022-05-21 21:34:48</time>
      </trkpt>
      <trkpt lat="42.29547" lon="2.35897">
        <ele>920.4</ele>
        <time>2022-05-21 21:34:49</time>
      </trkpt>
      <trkpt lat="42.2954" lon="2.359">
        <ele>920.4</ele>
        <time>2022-05-21 21:34:50</time>
      </trkpt>
      <trkpt lat="42.29532" lon="2.35903">
        <ele>920.2</ele>
        <time>2022-05-21 21:34:51</time>
      </trkpt>
      <trkpt lat="42.29525" lon="2.35906">
        <ele>920.2</ele>
        <time>2022-05-21 21:34:52</time>
      </trkpt>
      <trkpt lat="42.29518" lon="2.35909">
        <ele>920.2</ele>
        <time>2022-05-21 21:34:53</time>
      </trkpt>
      <trkpt lat="42.2951" lon="2.35912">
        <ele>920</ele>
        <time>2022-05-21 21:34:54</time>
      </trkpt>
      <trkpt lat="42.29503" lon="2.35914">
        <ele>920</ele>
        <time>2022-05-21 21:34:55</time>
      </trkpt>
      <trkpt lat="42.29496" lon="2.35917">
        <ele>920</ele>
        <time>2022-05-21 21:34:56</time>
      </trkpt>
      <trkpt lat="42.29489" lon="2.3592">
        <ele>919.8</ele>
        <time>2022-05-21 21:34:57</time>
      </trkpt>
      <trkpt lat="42.29481" lon="2.35923">
        <ele>919.8</ele>
        <time>2022-05-21 21:34:58</time>
      </trkpt>
      <trkpt lat="42.29474" lon="2.35926">
        <ele>919.8</ele>
        <time>2022-05-21 21:34:59</time>
      </trkpt>
      <trkpt lat="42.29467" lon="2.35929">
        <ele>919.6</ele>
        <time>2022-05-21 21:35:00</time>
      </trkpt>
      <trkpt lat="42.2946" lon="2.35932">
        <ele>919.6</ele>
        <time>2022-05-21 21:35:01</time>
      </trkpt>
      <trkpt lat="42.29453" lon="2.35935">
        <ele>919.6</ele>
        <time>2022-05-21 21:35:02</time>
      </trkpt>
      <trkpt lat="42.29446" lon="2.35938">
        <ele>919.6</ele>
        <time>2022-05-21 21:35:03</time>
      </trkpt>
      <trkpt lat="42.29439" lon="2.3594">
        <ele>919.6</ele>
        <time>2022-05-21 21:35:04</time>
      </trkpt>
      <trkpt lat="42.29432" lon="2.35943">
        <ele>919.4</ele>
        <time>2022-05-21 21:35:05</time>
      </trkpt>
      <trkpt lat="42.29425" lon="2.35946">
        <ele>919.4</ele>
        <time>2022-05-21 21:35:06</time>
      </trkpt>
      <trkpt lat="42.29418" lon="2.35949">
        <ele>919.4</ele>
        <time>2022-05-21 21:35:07</time>
      </trkpt>
      <trkpt lat="42.29411" lon="2.35952">
        <ele>919.2</ele>
        <time>2022-05-21 21:35:08</time>
      </trkpt>
      <trkpt lat="42.29404" lon="2.35955">
        <ele>919.2</ele>
        <time>2022-05-21 21:35:09</time>
      </trkpt>
      <trkpt lat="42.29397" lon="2.35958">
        <ele>919</ele>
        <time>2022-05-21 21:35:10</time>
      </trkpt>
      <trkpt lat="42.29391" lon="2.3596">
        <ele>919</ele>
        <time>2022-05-21 21:35:11</time>
      </trkpt>
      <trkpt lat="42.29384" lon="2.35963">
        <ele>919</ele>
        <time>2022-05-21 21:35:12</time>
      </trkpt>
      <trkpt lat="42.29377" lon="2.35966">
        <ele>919</ele>
        <time>2022-05-21 21:35:13</time>
      </trkpt>
      <trkpt lat="42.29371" lon="2.35969">
        <ele>919</ele>
        <time>2022-05-21 21:35:14</time>
      </trkpt>
      <trkpt lat="42.29364" lon="2.35972">
        <ele>918.8</ele>
        <time>2022-05-21 21:35:15</time>
      </trkpt>
      <trkpt lat="42.29357" lon="2.35975">
        <ele>918.8</ele>
        <time>2022-05-21 21:35:16</time>
      </trkpt>
      <trkpt lat="42.2935" lon="2.35977">
        <ele>918.8</ele>
        <time>2022-05-21 21:35:17</time>
      </trkpt>
      <trkpt lat="42.29344" lon="2.3598">
        <ele>918.8</ele>
        <time>2022-05-21 21:35:18</time>
      </trkpt>
      <trkpt lat="42.29337" lon="2.35983">
        <ele>918.6</ele>
        <time>2022-05-21 21:35:19</time>
      </trkpt>
      <trkpt lat="42.29331" lon="2.35986">
        <ele>918.6</ele>
        <time>2022-05-21 21:35:20</time>
      </trkpt>
      <trkpt lat="42.29324" lon="2.35989">
        <ele>918.6</ele>
        <time>2022-05-21 21:35:21</time>
      </trkpt>
      <trkpt lat="42.29318" lon="2.35992">
        <ele>918.6</ele>
        <time>2022-05-21 21:35:22</time>
      </trkpt>
      <trkpt lat="42.29311" lon="2.35994">
        <ele>918.6</ele>
        <time>2022-05-21 21:35:23</time>
      </trkpt>
      <trkpt lat="42.29304" lon="2.35998">
        <ele>918.6</ele>
        <time>2022-05-21 21:35:24</time>
      </trkpt>
      <trkpt lat="42.29298" lon="2.36001">
        <ele>918.4</ele>
        <time>2022-05-21 21:35:25</time>
      </trkpt>
      <trkpt lat="42.29292" lon="2.36005">
        <ele>918.4</ele>
        <time>2022-05-21 21:35:26</time>
      </trkpt>
      <trkpt lat="42.29286" lon="2.36009">
        <ele>918.2</ele>
        <time>2022-05-21 21:35:27</time>
      </trkpt>
      <trkpt lat="42.2928" lon="2.36013">
        <ele>918.2</ele>
        <time>2022-05-21 21:35:28</time>
      </trkpt>
      <trkpt lat="42.29274" lon="2.36018">
        <ele>918</ele>
        <time>2022-05-21 21:35:29</time>
      </trkpt>
      <trkpt lat="42.29268" lon="2.36023">
        <ele>918</ele>
        <time>2022-05-21 21:35:30</time>
      </trkpt>
      <trkpt lat="42.29262" lon="2.36028">
        <ele>917.8</ele>
        <time>2022-05-21 21:35:31</time>
      </trkpt>
      <trkpt lat="42.29255" lon="2.36032">
        <ele>917.8</ele>
        <time>2022-05-21 21:35:32</time>
      </trkpt>
      <trkpt lat="42.29249" lon="2.36036">
        <ele>917.6</ele>
        <time>2022-05-21 21:35:33</time>
      </trkpt>
      <trkpt lat="42.29243" lon="2.36041">
        <ele>917.4</ele>
        <time>2022-05-21 21:35:34</time>
      </trkpt>
      <trkpt lat="42.29237" lon="2.36046">
        <ele>917.2</ele>
        <time>2022-05-21 21:35:35</time>
      </trkpt>
      <trkpt lat="42.29231" lon="2.3605">
        <ele>917.2</ele>
        <time>2022-05-21 21:35:36</time>
      </trkpt>
      <trkpt lat="42.29225" lon="2.36055">
        <ele>917</ele>
        <time>2022-05-21 21:35:37</time>
      </trkpt>
      <trkpt lat="42.29219" lon="2.36059">
        <ele>917</ele>
        <time>2022-05-21 21:35:38</time>
      </trkpt>
      <trkpt lat="42.29213" lon="2.36064">
        <ele>916.8</ele>
        <time>2022-05-21 21:35:39</time>
      </trkpt>
      <trkpt lat="42.29207" lon="2.36068">
        <ele>916.8</ele>
        <time>2022-05-21 21:35:40</time>
      </trkpt>
      <trkpt lat="42.292" lon="2.36073">
        <ele>916.6</ele>
        <time>2022-05-21 21:35:41</time>
      </trkpt>
      <trkpt lat="42.29194" lon="2.36078">
        <ele>916.6</ele>
        <time>2022-05-21 21:35:42</time>
      </trkpt>
      <trkpt lat="42.29187" lon="2.36082">
        <ele>916.4</ele>
        <time>2022-05-21 21:35:43</time>
      </trkpt>
      <trkpt lat="42.29181" lon="2.36087">
        <ele>916.4</ele>
        <time>2022-05-21 21:35:44</time>
      </trkpt>
      <trkpt lat="42.29174" lon="2.36092">
        <ele>916.2</ele>
        <time>2022-05-21 21:35:45</time>
      </trkpt>
      <trkpt lat="42.29168" lon="2.36096">
        <ele>916.2</ele>
        <time>2022-05-21 21:35:46</time>
      </trkpt>
      <trkpt lat="42.29161" lon="2.36101">
        <ele>916</ele>
        <time>2022-05-21 21:35:47</time>
      </trkpt>
      <trkpt lat="42.29155" lon="2.36106">
        <ele>915.8</ele>
        <time>2022-05-21 21:35:48</time>
      </trkpt>
      <trkpt lat="42.29148" lon="2.36111">
        <ele>915.8</ele>
        <time>2022-05-21 21:35:49</time>
      </trkpt>
      <trkpt lat="42.29141" lon="2.36116">
        <ele>915.6</ele>
        <time>2022-05-21 21:35:50</time>
      </trkpt>
      <trkpt lat="42.29135" lon="2.3612">
        <ele>915.4</ele>
        <time>2022-05-21 21:35:51</time>
      </trkpt>
      <trkpt lat="42.29128" lon="2.36125">
        <ele>915.2</ele>
        <time>2022-05-21 21:35:52</time>
      </trkpt>
      <trkpt lat="42.29122" lon="2.3613">
        <ele>915.2</ele>
        <time>2022-05-21 21:35:53</time>
      </trkpt>
      <trkpt lat="42.29116" lon="2.36135">
        <ele>915</ele>
        <time>2022-05-21 21:35:54</time>
      </trkpt>
      <trkpt lat="42.29109" lon="2.3614">
        <ele>914.8</ele>
        <time>2022-05-21 21:35:55</time>
      </trkpt>
      <trkpt lat="42.29103" lon="2.36145">
        <ele>914.6</ele>
        <time>2022-05-21 21:35:56</time>
      </trkpt>
      <trkpt lat="42.29096" lon="2.3615">
        <ele>914.6</ele>
        <time>2022-05-21 21:35:57</time>
      </trkpt>
      <trkpt lat="42.29089" lon="2.36155">
        <ele>914.4</ele>
        <time>2022-05-21 21:35:58</time>
      </trkpt>
      <trkpt lat="42.29082" lon="2.36159">
        <ele>914.2</ele>
        <time>2022-05-21 21:35:59</time>
      </trkpt>
      <trkpt lat="42.29076" lon="2.36164">
        <ele>914</ele>
        <time>2022-05-21 21:36:00</time>
      </trkpt>
      <trkpt lat="42.29069" lon="2.36168">
        <ele>914</ele>
        <time>2022-05-21 21:36:01</time>
      </trkpt>
      <trkpt lat="42.29062" lon="2.36173">
        <ele>913.8</ele>
        <time>2022-05-21 21:36:02</time>
      </trkpt>
      <trkpt lat="42.29055" lon="2.36178">
        <ele>913.6</ele>
        <time>2022-05-21 21:36:03</time>
      </trkpt>
      <trkpt lat="42.29048" lon="2.36183">
        <ele>913.4</ele>
        <time>2022-05-21 21:36:04</time>
      </trkpt>
      <trkpt lat="42.29042" lon="2.36187">
        <ele>913.2</ele>
        <time>2022-05-21 21:36:05</time>
      </trkpt>
      <trkpt lat="42.29035" lon="2.36192">
        <ele>913</ele>
        <time>2022-05-21 21:36:06</time>
      </trkpt>
      <trkpt lat="42.29028" lon="2.36197">
        <ele>913</ele>
        <time>2022-05-21 21:36:07</time>
      </trkpt>
      <trkpt lat="42.29022" lon="2.36201">
        <ele>912.8</ele>
        <time>2022-05-21 21:36:08</time>
      </trkpt>
      <trkpt lat="42.29015" lon="2.36206">
        <ele>912.6</ele>
        <time>2022-05-21 21:36:09</time>
      </trkpt>
      <trkpt lat="42.29008" lon="2.36211">
        <ele>912.6</ele>
        <time>2022-05-21 21:36:10</time>
      </trkpt>
      <trkpt lat="42.29001" lon="2.36216">
        <ele>912.4</ele>
        <time>2022-05-21 21:36:11</time>
      </trkpt>
      <trkpt lat="42.28995" lon="2.36221">
        <ele>912.2</ele>
        <time>2022-05-21 21:36:12</time>
      </trkpt>
      <trkpt lat="42.28988" lon="2.36226">
        <ele>912.2</ele>
        <time>2022-05-21 21:36:13</time>
      </trkpt>
      <trkpt lat="42.28981" lon="2.36231">
        <ele>912</ele>
        <time>2022-05-21 21:36:14</time>
      </trkpt>
      <trkpt lat="42.28975" lon="2.36236">
        <ele>911.8</ele>
        <time>2022-05-21 21:36:15</time>
      </trkpt>
      <trkpt lat="42.28968" lon="2.36241">
        <ele>911.8</ele>
        <time>2022-05-21 21:36:16</time>
      </trkpt>
      <trkpt lat="42.28962" lon="2.36246">
        <ele>911.6</ele>
        <time>2022-05-21 21:36:17</time>
      </trkpt>
      <trkpt lat="42.28955" lon="2.36251">
        <ele>911.4</ele>
        <time>2022-05-21 21:36:18</time>
      </trkpt>
      <trkpt lat="42.28949" lon="2.36255">
        <ele>911.2</ele>
        <time>2022-05-21 21:36:19</time>
      </trkpt>
      <trkpt lat="42.28942" lon="2.36261">
        <ele>911.2</ele>
        <time>2022-05-21 21:36:20</time>
      </trkpt>
      <trkpt lat="42.28935" lon="2.36266">
        <ele>911</ele>
        <time>2022-05-21 21:36:21</time>
      </trkpt>
      <trkpt lat="42.28929" lon="2.36271">
        <ele>910.8</ele>
        <time>2022-05-21 21:36:22</time>
      </trkpt>
      <trkpt lat="42.28922" lon="2.36276">
        <ele>910.6</ele>
        <time>2022-05-21 21:36:23</time>
      </trkpt>
      <trkpt lat="42.28915" lon="2.36282">
        <ele>910.6</ele>
        <time>2022-05-21 21:36:24</time>
      </trkpt>
      <trkpt lat="42.28908" lon="2.36287">
        <ele>910.4</ele>
        <time>2022-05-21 21:36:25</time>
      </trkpt>
      <trkpt lat="42.28901" lon="2.36292">
        <ele>910.2</ele>
        <time>2022-05-21 21:36:26</time>
      </trkpt>
      <trkpt lat="42.28895" lon="2.36297">
        <ele>910</ele>
        <time>2022-05-21 21:36:27</time>
      </trkpt>
      <trkpt lat="42.28888" lon="2.36303">
        <ele>909.8</ele>
        <time>2022-05-21 21:36:28</time>
      </trkpt>
      <trkpt lat="42.28881" lon="2.36308">
        <ele>909.6</ele>
        <time>2022-05-21 21:36:29</time>
      </trkpt>
      <trkpt lat="42.28875" lon="2.36314">
        <ele>909.4</ele>
        <time>2022-05-21 21:36:30</time>
      </trkpt>
      <trkpt lat="42.28868" lon="2.3632">
        <ele>909.2</ele>
        <time>2022-05-21 21:36:31</time>
      </trkpt>
      <trkpt lat="42.28862" lon="2.36325">
        <ele>908.8</ele>
        <time>2022-05-21 21:36:32</time>
      </trkpt>
      <trkpt lat="42.28855" lon="2.3633">
        <ele>908.6</ele>
        <time>2022-05-21 21:36:33</time>
      </trkpt>
      <trkpt lat="42.28847" lon="2.36336">
        <ele>908.4</ele>
        <time>2022-05-21 21:36:34</time>
      </trkpt>
      <trkpt lat="42.28841" lon="2.36341">
        <ele>908.2</ele>
        <time>2022-05-21 21:36:35</time>
      </trkpt>
      <trkpt lat="42.28834" lon="2.36347">
        <ele>908</ele>
        <time>2022-05-21 21:36:36</time>
      </trkpt>
      <trkpt lat="42.28827" lon="2.36354">
        <ele>908</ele>
        <time>2022-05-21 21:36:37</time>
      </trkpt>
      <trkpt lat="42.2882" lon="2.3636">
        <ele>907.8</ele>
        <time>2022-05-21 21:36:38</time>
      </trkpt>
      <trkpt lat="42.28814" lon="2.36367">
        <ele>907.6</ele>
        <time>2022-05-21 21:36:39</time>
      </trkpt>
      <trkpt lat="42.28808" lon="2.36373">
        <ele>907.6</ele>
        <time>2022-05-21 21:36:40</time>
      </trkpt>
      <trkpt lat="42.28801" lon="2.3638">
        <ele>907.4</ele>
        <time>2022-05-21 21:36:41</time>
      </trkpt>
      <trkpt lat="42.28795" lon="2.36387">
        <ele>907.4</ele>
        <time>2022-05-21 21:36:42</time>
      </trkpt>
      <trkpt lat="42.2879" lon="2.36394">
        <ele>907.4</ele>
        <time>2022-05-21 21:36:43</time>
      </trkpt>
      <trkpt lat="42.28784" lon="2.36402">
        <ele>907.4</ele>
        <time>2022-05-21 21:36:44</time>
      </trkpt>
      <trkpt lat="42.2878" lon="2.36409">
        <ele>907.2</ele>
        <time>2022-05-21 21:36:45</time>
      </trkpt>
      <trkpt lat="42.28776" lon="2.36416">
        <ele>907.2</ele>
        <time>2022-05-21 21:36:46</time>
      </trkpt>
      <trkpt lat="42.28771" lon="2.36426">
        <ele>907</ele>
        <time>2022-05-21 21:36:47</time>
      </trkpt>
      <trkpt lat="42.28766" lon="2.36434">
        <ele>906.8</ele>
        <time>2022-05-21 21:36:48</time>
      </trkpt>
      <trkpt lat="42.28762" lon="2.36444">
        <ele>906.8</ele>
        <time>2022-05-21 21:36:49</time>
      </trkpt>
      <trkpt lat="42.28757" lon="2.36453">
        <ele>906.6</ele>
        <time>2022-05-21 21:36:50</time>
      </trkpt>
      <trkpt lat="42.28753" lon="2.36463">
        <ele>906.2</ele>
        <time>2022-05-21 21:36:51</time>
      </trkpt>
      <trkpt lat="42.28749" lon="2.36472">
        <ele>906</ele>
        <time>2022-05-21 21:36:52</time>
      </trkpt>
      <trkpt lat="42.28745" lon="2.36482">
        <ele>905.8</ele>
        <time>2022-05-21 21:36:53</time>
      </trkpt>
      <trkpt lat="42.28741" lon="2.36493">
        <ele>905.6</ele>
        <time>2022-05-21 21:36:54</time>
      </trkpt>
      <trkpt lat="42.28736" lon="2.36503">
        <ele>905.2</ele>
        <time>2022-05-21 21:36:55</time>
      </trkpt>
      <trkpt lat="42.28732" lon="2.36513">
        <ele>905</ele>
        <time>2022-05-21 21:36:56</time>
      </trkpt>
      <trkpt lat="42.28727" lon="2.36523">
        <ele>904.8</ele>
        <time>2022-05-21 21:36:57</time>
      </trkpt>
      <trkpt lat="42.28723" lon="2.36532">
        <ele>904.6</ele>
        <time>2022-05-21 21:36:58</time>
      </trkpt>
      <trkpt lat="42.28718" lon="2.36541">
        <ele>904.4</ele>
        <time>2022-05-21 21:36:59</time>
      </trkpt>
      <trkpt lat="42.28713" lon="2.3655">
        <ele>904.2</ele>
        <time>2022-05-21 21:37:00</time>
      </trkpt>
      <trkpt lat="42.28707" lon="2.36559">
        <ele>904.2</ele>
        <time>2022-05-21 21:37:01</time>
      </trkpt>
      <trkpt lat="42.28702" lon="2.36568">
        <ele>904</ele>
        <time>2022-05-21 21:37:02</time>
      </trkpt>
      <trkpt lat="42.28696" lon="2.36576">
        <ele>903.8</ele>
        <time>2022-05-21 21:37:03</time>
      </trkpt>
      <trkpt lat="42.2869" lon="2.36584">
        <ele>903.8</ele>
        <time>2022-05-21 21:37:04</time>
      </trkpt>
      <trkpt lat="42.28683" lon="2.36592">
        <ele>903.6</ele>
        <time>2022-05-21 21:37:05</time>
      </trkpt>
      <trkpt lat="42.28677" lon="2.366">
        <ele>903.4</ele>
        <time>2022-05-21 21:37:06</time>
      </trkpt>
      <trkpt lat="42.28671" lon="2.36607">
        <ele>903.4</ele>
        <time>2022-05-21 21:37:07</time>
      </trkpt>
      <trkpt lat="42.28665" lon="2.36614">
        <ele>903.2</ele>
        <time>2022-05-21 21:37:08</time>
      </trkpt>
      <trkpt lat="42.28658" lon="2.36621">
        <ele>903</ele>
        <time>2022-05-21 21:37:09</time>
      </trkpt>
      <trkpt lat="42.28651" lon="2.36628">
        <ele>902.8</ele>
        <time>2022-05-21 21:37:10</time>
      </trkpt>
      <trkpt lat="42.28644" lon="2.36634">
        <ele>902.6</ele>
        <time>2022-05-21 21:37:11</time>
      </trkpt>
      <trkpt lat="42.28638" lon="2.3664">
        <ele>902.6</ele>
        <time>2022-05-21 21:37:12</time>
      </trkpt>
      <trkpt lat="42.28631" lon="2.36646">
        <ele>902.4</ele>
        <time>2022-05-21 21:37:13</time>
      </trkpt>
      <trkpt lat="42.28623" lon="2.36651">
        <ele>902.2</ele>
        <time>2022-05-21 21:37:14</time>
      </trkpt>
      <trkpt lat="42.28616" lon="2.36656">
        <ele>902.2</ele>
        <time>2022-05-21 21:37:15</time>
      </trkpt>
      <trkpt lat="42.28609" lon="2.36661">
        <ele>902</ele>
        <time>2022-05-21 21:37:16</time>
      </trkpt>
      <trkpt lat="42.28602" lon="2.36665">
        <ele>901.8</ele>
        <time>2022-05-21 21:37:17</time>
      </trkpt>
      <trkpt lat="42.28594" lon="2.36669">
        <ele>901.6</ele>
        <time>2022-05-21 21:37:18</time>
      </trkpt>
      <trkpt lat="42.28587" lon="2.36674">
        <ele>901.6</ele>
        <time>2022-05-21 21:37:19</time>
      </trkpt>
      <trkpt lat="42.2858" lon="2.36678">
        <ele>901.4</ele>
        <time>2022-05-21 21:37:20</time>
      </trkpt>
      <trkpt lat="42.28573" lon="2.36682">
        <ele>901.2</ele>
        <time>2022-05-21 21:37:21</time>
      </trkpt>
      <trkpt lat="42.28565" lon="2.36686">
        <ele>901</ele>
        <time>2022-05-21 21:37:22</time>
      </trkpt>
      <trkpt lat="42.28557" lon="2.3669">
        <ele>901</ele>
        <time>2022-05-21 21:37:23</time>
      </trkpt>
      <trkpt lat="42.2855" lon="2.36694">
        <ele>900.8</ele>
        <time>2022-05-21 21:37:24</time>
      </trkpt>
      <trkpt lat="42.28542" lon="2.36698">
        <ele>900.6</ele>
        <time>2022-05-21 21:37:25</time>
      </trkpt>
      <trkpt lat="42.28534" lon="2.36702">
        <ele>900.4</ele>
        <time>2022-05-21 21:37:26</time>
      </trkpt>
      <trkpt lat="42.28527" lon="2.36706">
        <ele>900.2</ele>
        <time>2022-05-21 21:37:27</time>
      </trkpt>
      <trkpt lat="42.28519" lon="2.3671">
        <ele>900.2</ele>
        <time>2022-05-21 21:37:28</time>
      </trkpt>
      <trkpt lat="42.28511" lon="2.36713">
        <ele>900</ele>
        <time>2022-05-21 21:37:29</time>
      </trkpt>
      <trkpt lat="42.28504" lon="2.36717">
        <ele>899.8</ele>
        <time>2022-05-21 21:37:30</time>
      </trkpt>
      <trkpt lat="42.28496" lon="2.36721">
        <ele>899.8</ele>
        <time>2022-05-21 21:37:31</time>
      </trkpt>
      <trkpt lat="42.28488" lon="2.36726">
        <ele>899.6</ele>
        <time>2022-05-21 21:37:32</time>
      </trkpt>
      <trkpt lat="42.28481" lon="2.3673">
        <ele>899.6</ele>
        <time>2022-05-21 21:37:33</time>
      </trkpt>
      <trkpt lat="42.28473" lon="2.36734">
        <ele>899.6</ele>
        <time>2022-05-21 21:37:34</time>
      </trkpt>
      <trkpt lat="42.28466" lon="2.36738">
        <ele>899.6</ele>
        <time>2022-05-21 21:37:35</time>
      </trkpt>
      <trkpt lat="42.28458" lon="2.36741">
        <ele>899.6</ele>
        <time>2022-05-21 21:37:36</time>
      </trkpt>
      <trkpt lat="42.28451" lon="2.36745">
        <ele>899.4</ele>
        <time>2022-05-21 21:37:37</time>
      </trkpt>
      <trkpt lat="42.28444" lon="2.36749">
        <ele>899.4</ele>
        <time>2022-05-21 21:37:38</time>
      </trkpt>
      <trkpt lat="42.28437" lon="2.36753">
        <ele>899.4</ele>
        <time>2022-05-21 21:37:39</time>
      </trkpt>
      <trkpt lat="42.28429" lon="2.36757">
        <ele>899.4</ele>
        <time>2022-05-21 21:37:40</time>
      </trkpt>
      <trkpt lat="42.28422" lon="2.36761">
        <ele>899.2</ele>
        <time>2022-05-21 21:37:41</time>
      </trkpt>
      <trkpt lat="42.28415" lon="2.36764">
        <ele>899.2</ele>
        <time>2022-05-21 21:37:42</time>
      </trkpt>
      <trkpt lat="42.28408" lon="2.36768">
        <ele>899</ele>
        <time>2022-05-21 21:37:43</time>
      </trkpt>
      <trkpt lat="42.28401" lon="2.36772">
        <ele>899</ele>
        <time>2022-05-21 21:37:44</time>
      </trkpt>
      <trkpt lat="42.28394" lon="2.36775">
        <ele>899</ele>
        <time>2022-05-21 21:37:45</time>
      </trkpt>
      <trkpt lat="42.28386" lon="2.36779">
        <ele>899</ele>
        <time>2022-05-21 21:37:46</time>
      </trkpt>
      <trkpt lat="42.28379" lon="2.36783">
        <ele>899</ele>
        <time>2022-05-21 21:37:47</time>
      </trkpt>
      <trkpt lat="42.28373" lon="2.36786">
        <ele>899</ele>
        <time>2022-05-21 21:37:48</time>
      </trkpt>
      <trkpt lat="42.28366" lon="2.3679">
        <ele>898.8</ele>
        <time>2022-05-21 21:37:49</time>
      </trkpt>
      <trkpt lat="42.28359" lon="2.36793">
        <ele>898.8</ele>
        <time>2022-05-21 21:37:50</time>
      </trkpt>
      <trkpt lat="42.28352" lon="2.36796">
        <ele>898.8</ele>
        <time>2022-05-21 21:37:51</time>
      </trkpt>
      <trkpt lat="42.28345" lon="2.36799">
        <ele>898.6</ele>
        <time>2022-05-21 21:37:52</time>
      </trkpt>
      <trkpt lat="42.28337" lon="2.36801">
        <ele>898.8</ele>
        <time>2022-05-21 21:37:53</time>
      </trkpt>
      <trkpt lat="42.2833" lon="2.36803">
        <ele>898.6</ele>
        <time>2022-05-21 21:37:54</time>
      </trkpt>
      <trkpt lat="42.28323" lon="2.36805">
        <ele>898.8</ele>
        <time>2022-05-21 21:37:55</time>
      </trkpt>
      <trkpt lat="42.28315" lon="2.36806">
        <ele>898.6</ele>
        <time>2022-05-21 21:37:56</time>
      </trkpt>
      <trkpt lat="42.28308" lon="2.36807">
        <ele>898.6</ele>
        <time>2022-05-21 21:37:57</time>
      </trkpt>
      <trkpt lat="42.283" lon="2.36808">
        <ele>898.6</ele>
        <time>2022-05-21 21:37:58</time>
      </trkpt>
      <trkpt lat="42.28293" lon="2.36808">
        <ele>898.6</ele>
        <time>2022-05-21 21:37:59</time>
      </trkpt>
      <trkpt lat="42.28286" lon="2.36808">
        <ele>898.6</ele>
        <time>2022-05-21 21:38:00</time>
      </trkpt>
      <trkpt lat="42.28278" lon="2.36809">
        <ele>898.6</ele>
        <time>2022-05-21 21:38:01</time>
      </trkpt>
      <trkpt lat="42.28271" lon="2.36809">
        <ele>898.4</ele>
        <time>2022-05-21 21:38:02</time>
      </trkpt>
      <trkpt lat="42.28264" lon="2.36809">
        <ele>898.4</ele>
        <time>2022-05-21 21:38:03</time>
      </trkpt>
      <trkpt lat="42.28257" lon="2.3681">
        <ele>898.4</ele>
        <time>2022-05-21 21:38:04</time>
      </trkpt>
      <trkpt lat="42.28249" lon="2.3681">
        <ele>898.4</ele>
        <time>2022-05-21 21:38:05</time>
      </trkpt>
      <trkpt lat="42.28242" lon="2.3681">
        <ele>898.2</ele>
        <time>2022-05-21 21:38:06</time>
      </trkpt>
      <trkpt lat="42.28235" lon="2.3681">
        <ele>898.2</ele>
        <time>2022-05-21 21:38:07</time>
      </trkpt>
      <trkpt lat="42.28228" lon="2.3681">
        <ele>898.2</ele>
        <time>2022-05-21 21:38:08</time>
      </trkpt>
      <trkpt lat="42.2822" lon="2.3681">
        <ele>898</ele>
        <time>2022-05-21 21:38:09</time>
      </trkpt>
      <trkpt lat="42.28213" lon="2.3681">
        <ele>898</ele>
        <time>2022-05-21 21:38:10</time>
      </trkpt>
      <trkpt lat="42.28206" lon="2.3681">
        <ele>897.8</ele>
        <time>2022-05-21 21:38:11</time>
      </trkpt>
      <trkpt lat="42.28199" lon="2.3681">
        <ele>897.8</ele>
        <time>2022-05-21 21:38:12</time>
      </trkpt>
      <trkpt lat="42.28192" lon="2.3681">
        <ele>897.8</ele>
        <time>2022-05-21 21:38:13</time>
      </trkpt>
      <trkpt lat="42.28185" lon="2.3681">
        <ele>897.6</ele>
        <time>2022-05-21 21:38:14</time>
      </trkpt>
      <trkpt lat="42.28177" lon="2.3681">
        <ele>897.6</ele>
        <time>2022-05-21 21:38:15</time>
      </trkpt>
      <trkpt lat="42.28171" lon="2.36811">
        <ele>897.6</ele>
        <time>2022-05-21 21:38:16</time>
      </trkpt>
      <trkpt lat="42.28164" lon="2.36811">
        <ele>897.6</ele>
        <time>2022-05-21 21:38:17</time>
      </trkpt>
      <trkpt lat="42.28156" lon="2.36811">
        <ele>897.6</ele>
        <time>2022-05-21 21:38:18</time>
      </trkpt>
      <trkpt lat="42.28149" lon="2.36811">
        <ele>897.4</ele>
        <time>2022-05-21 21:38:19</time>
      </trkpt>
      <trkpt lat="42.28142" lon="2.36811">
        <ele>897.4</ele>
        <time>2022-05-21 21:38:20</time>
      </trkpt>
      <trkpt lat="42.28135" lon="2.36811">
        <ele>897.4</ele>
        <time>2022-05-21 21:38:21</time>
      </trkpt>
      <trkpt lat="42.28128" lon="2.36812">
        <ele>897.2</ele>
        <time>2022-05-21 21:38:22</time>
      </trkpt>
      <trkpt lat="42.28121" lon="2.36812">
        <ele>897.2</ele>
        <time>2022-05-21 21:38:23</time>
      </trkpt>
      <trkpt lat="42.28114" lon="2.36812">
        <ele>897.2</ele>
        <time>2022-05-21 21:38:24</time>
      </trkpt>
      <trkpt lat="42.28107" lon="2.36812">
        <ele>897.2</ele>
        <time>2022-05-21 21:38:25</time>
      </trkpt>
      <trkpt lat="42.281" lon="2.36813">
        <ele>897.2</ele>
        <time>2022-05-21 21:38:26</time>
      </trkpt>
      <trkpt lat="42.28093" lon="2.36813">
        <ele>897.2</ele>
        <time>2022-05-21 21:38:27</time>
      </trkpt>
      <trkpt lat="42.28086" lon="2.36813">
        <ele>897.2</ele>
        <time>2022-05-21 21:38:28</time>
      </trkpt>
      <trkpt lat="42.28079" lon="2.36813">
        <ele>897</ele>
        <time>2022-05-21 21:38:29</time>
      </trkpt>
      <trkpt lat="42.28072" lon="2.36813">
        <ele>897</ele>
        <time>2022-05-21 21:38:30</time>
      </trkpt>
      <trkpt lat="42.28065" lon="2.36813">
        <ele>897</ele>
        <time>2022-05-21 21:38:31</time>
      </trkpt>
      <trkpt lat="42.28058" lon="2.36814">
        <ele>897</ele>
        <time>2022-05-21 21:38:32</time>
      </trkpt>
      <trkpt lat="42.28051" lon="2.36814">
        <ele>897</ele>
        <time>2022-05-21 21:38:33</time>
      </trkpt>
      <trkpt lat="42.28044" lon="2.36814">
        <ele>897</ele>
        <time>2022-05-21 21:38:34</time>
      </trkpt>
      <trkpt lat="42.28037" lon="2.36814">
        <ele>896.8</ele>
        <time>2022-05-21 21:38:35</time>
      </trkpt>
      <trkpt lat="42.2803" lon="2.36814">
        <ele>896.8</ele>
        <time>2022-05-21 21:38:36</time>
      </trkpt>
      <trkpt lat="42.28022" lon="2.36814">
        <ele>896.6</ele>
        <time>2022-05-21 21:38:37</time>
      </trkpt>
      <trkpt lat="42.28015" lon="2.36815">
        <ele>896.6</ele>
        <time>2022-05-21 21:38:38</time>
      </trkpt>
      <trkpt lat="42.28007" lon="2.36815">
        <ele>896.4</ele>
        <time>2022-05-21 21:38:39</time>
      </trkpt>
      <trkpt lat="42.28" lon="2.36815">
        <ele>896.2</ele>
        <time>2022-05-21 21:38:40</time>
      </trkpt>
      <trkpt lat="42.27992" lon="2.36815">
        <ele>896</ele>
        <time>2022-05-21 21:38:41</time>
      </trkpt>
      <trkpt lat="42.27984" lon="2.36815">
        <ele>896</ele>
        <time>2022-05-21 21:38:42</time>
      </trkpt>
      <trkpt lat="42.27976" lon="2.36815">
        <ele>895.8</ele>
        <time>2022-05-21 21:38:43</time>
      </trkpt>
      <trkpt lat="42.27968" lon="2.36815">
        <ele>895.6</ele>
        <time>2022-05-21 21:38:44</time>
      </trkpt>
      <trkpt lat="42.27961" lon="2.36815">
        <ele>895.4</ele>
        <time>2022-05-21 21:38:45</time>
      </trkpt>
      <trkpt lat="42.27953" lon="2.36816">
        <ele>895.2</ele>
        <time>2022-05-21 21:38:46</time>
      </trkpt>
      <trkpt lat="42.27945" lon="2.36816">
        <ele>895.2</ele>
        <time>2022-05-21 21:38:47</time>
      </trkpt>
      <trkpt lat="42.27937" lon="2.36816">
        <ele>895</ele>
        <time>2022-05-21 21:38:48</time>
      </trkpt>
      <trkpt lat="42.27929" lon="2.36817">
        <ele>894.8</ele>
        <time>2022-05-21 21:38:49</time>
      </trkpt>
      <trkpt lat="42.27921" lon="2.36817">
        <ele>894.6</ele>
        <time>2022-05-21 21:38:50</time>
      </trkpt>
      <trkpt lat="42.27913" lon="2.36817">
        <ele>894.4</ele>
        <time>2022-05-21 21:38:51</time>
      </trkpt>
      <trkpt lat="42.27905" lon="2.36818">
        <ele>894.2</ele>
        <time>2022-05-21 21:38:52</time>
      </trkpt>
      <trkpt lat="42.27897" lon="2.36818">
        <ele>894</ele>
        <time>2022-05-21 21:38:53</time>
      </trkpt>
      <trkpt lat="42.27889" lon="2.36818">
        <ele>893.8</ele>
        <time>2022-05-21 21:38:54</time>
      </trkpt>
      <trkpt lat="42.27881" lon="2.36818">
        <ele>893.6</ele>
        <time>2022-05-21 21:38:55</time>
      </trkpt>
      <trkpt lat="42.27873" lon="2.36818">
        <ele>893.4</ele>
        <time>2022-05-21 21:38:56</time>
      </trkpt>
      <trkpt lat="42.27864" lon="2.36818">
        <ele>893.2</ele>
        <time>2022-05-21 21:38:57</time>
      </trkpt>
      <trkpt lat="42.27856" lon="2.36819">
        <ele>893</ele>
        <time>2022-05-21 21:38:58</time>
      </trkpt>
      <trkpt lat="42.27848" lon="2.36819">
        <ele>893</ele>
        <time>2022-05-21 21:38:59</time>
      </trkpt>
      <trkpt lat="42.2784" lon="2.36819">
        <ele>892.8</ele>
        <time>2022-05-21 21:39:00</time>
      </trkpt>
      <trkpt lat="42.27832" lon="2.36819">
        <ele>892.6</ele>
        <time>2022-05-21 21:39:01</time>
      </trkpt>
      <trkpt lat="42.27823" lon="2.3682">
        <ele>892.4</ele>
        <time>2022-05-21 21:39:02</time>
      </trkpt>
      <trkpt lat="42.27815" lon="2.3682">
        <ele>892.2</ele>
        <time>2022-05-21 21:39:03</time>
      </trkpt>
      <trkpt lat="42.27807" lon="2.3682">
        <ele>892.2</ele>
        <time>2022-05-21 21:39:04</time>
      </trkpt>
      <trkpt lat="42.27799" lon="2.3682">
        <ele>892</ele>
        <time>2022-05-21 21:39:05</time>
      </trkpt>
      <trkpt lat="42.27791" lon="2.36821">
        <ele>891.8</ele>
        <time>2022-05-21 21:39:06</time>
      </trkpt>
      <trkpt lat="42.27783" lon="2.36821">
        <ele>891.6</ele>
        <time>2022-05-21 21:39:07</time>
      </trkpt>
      <trkpt lat="42.27775" lon="2.36821">
        <ele>891.6</ele>
        <time>2022-05-21 21:39:08</time>
      </trkpt>
      <trkpt lat="42.27767" lon="2.36822">
        <ele>891.4</ele>
        <time>2022-05-21 21:39:09</time>
      </trkpt>
      <trkpt lat="42.27759" lon="2.36822">
        <ele>891.2</ele>
        <time>2022-05-21 21:39:10</time>
      </trkpt>
      <trkpt lat="42.27752" lon="2.36823">
        <ele>891</ele>
        <time>2022-05-21 21:39:11</time>
      </trkpt>
      <trkpt lat="42.27744" lon="2.36823">
        <ele>891</ele>
        <time>2022-05-21 21:39:12</time>
      </trkpt>
      <trkpt lat="42.27736" lon="2.36823">
        <ele>890.8</ele>
        <time>2022-05-21 21:39:13</time>
      </trkpt>
      <trkpt lat="42.27729" lon="2.36823">
        <ele>890.6</ele>
        <time>2022-05-21 21:39:14</time>
      </trkpt>
      <trkpt lat="42.27721" lon="2.36823">
        <ele>890.4</ele>
        <time>2022-05-21 21:39:15</time>
      </trkpt>
      <trkpt lat="42.27713" lon="2.36823">
        <ele>890.2</ele>
        <time>2022-05-21 21:39:16</time>
      </trkpt>
      <trkpt lat="42.27705" lon="2.36823">
        <ele>890</ele>
        <time>2022-05-21 21:39:17</time>
      </trkpt>
      <trkpt lat="42.27698" lon="2.36823">
        <ele>890</ele>
        <time>2022-05-21 21:39:18</time>
      </trkpt>
      <trkpt lat="42.2769" lon="2.36824">
        <ele>889.8</ele>
        <time>2022-05-21 21:39:19</time>
      </trkpt>
      <trkpt lat="42.27682" lon="2.36824">
        <ele>889.6</ele>
        <time>2022-05-21 21:39:20</time>
      </trkpt>
      <trkpt lat="42.27674" lon="2.36824">
        <ele>889.4</ele>
        <time>2022-05-21 21:39:21</time>
      </trkpt>
      <trkpt lat="42.27666" lon="2.36825">
        <ele>889.2</ele>
        <time>2022-05-21 21:39:22</time>
      </trkpt>
      <trkpt lat="42.27659" lon="2.36825">
        <ele>889</ele>
        <time>2022-05-21 21:39:23</time>
      </trkpt>
      <trkpt lat="42.27651" lon="2.36825">
        <ele>888.8</ele>
        <time>2022-05-21 21:39:24</time>
      </trkpt>
      <trkpt lat="42.27643" lon="2.36825">
        <ele>888.8</ele>
        <time>2022-05-21 21:39:25</time>
      </trkpt>
      <trkpt lat="42.27635" lon="2.36825">
        <ele>888.6</ele>
        <time>2022-05-21 21:39:26</time>
      </trkpt>
      <trkpt lat="42.27628" lon="2.36824">
        <ele>888.4</ele>
        <time>2022-05-21 21:39:27</time>
      </trkpt>
      <trkpt lat="42.2762" lon="2.36824">
        <ele>888.2</ele>
        <time>2022-05-21 21:39:28</time>
      </trkpt>
      <trkpt lat="42.27612" lon="2.36824">
        <ele>888.2</ele>
        <time>2022-05-21 21:39:29</time>
      </trkpt>
      <trkpt lat="42.27604" lon="2.36824">
        <ele>888</ele>
        <time>2022-05-21 21:39:30</time>
      </trkpt>
      <trkpt lat="42.27596" lon="2.36824">
        <ele>887.8</ele>
        <time>2022-05-21 21:39:31</time>
      </trkpt>
      <trkpt lat="42.27588" lon="2.36823">
        <ele>887.6</ele>
        <time>2022-05-21 21:39:32</time>
      </trkpt>
      <trkpt lat="42.2758" lon="2.36823">
        <ele>887.4</ele>
        <time>2022-05-21 21:39:33</time>
      </trkpt>
      <trkpt lat="42.27572" lon="2.36824">
        <ele>887.4</ele>
        <time>2022-05-21 21:39:34</time>
      </trkpt>
      <trkpt lat="42.27564" lon="2.36825">
        <ele>887.2</ele>
        <time>2022-05-21 21:39:35</time>
      </trkpt>
      <trkpt lat="42.27556" lon="2.36825">
        <ele>887</ele>
        <time>2022-05-21 21:39:36</time>
      </trkpt>
      <trkpt lat="42.27547" lon="2.36825">
        <ele>887</ele>
        <time>2022-05-21 21:39:37</time>
      </trkpt>
      <trkpt lat="42.27539" lon="2.36826">
        <ele>886.8</ele>
        <time>2022-05-21 21:39:38</time>
      </trkpt>
      <trkpt lat="42.27531" lon="2.36826">
        <ele>886.6</ele>
        <time>2022-05-21 21:39:39</time>
      </trkpt>
      <trkpt lat="42.27523" lon="2.36826">
        <ele>886.4</ele>
        <time>2022-05-21 21:39:40</time>
      </trkpt>
      <trkpt lat="42.27514" lon="2.36827">
        <ele>886.2</ele>
        <time>2022-05-21 21:39:41</time>
      </trkpt>
      <trkpt lat="42.27506" lon="2.36827">
        <ele>886.2</ele>
        <time>2022-05-21 21:39:42</time>
      </trkpt>
      <trkpt lat="42.27498" lon="2.36827">
        <ele>886</ele>
        <time>2022-05-21 21:39:43</time>
      </trkpt>
      <trkpt lat="42.2749" lon="2.36827">
        <ele>885.8</ele>
        <time>2022-05-21 21:39:44</time>
      </trkpt>
      <trkpt lat="42.27482" lon="2.36828">
        <ele>885.6</ele>
        <time>2022-05-21 21:39:45</time>
      </trkpt>
      <trkpt lat="42.27474" lon="2.36828">
        <ele>885.6</ele>
        <time>2022-05-21 21:39:46</time>
      </trkpt>
      <trkpt lat="42.27466" lon="2.36828">
        <ele>885.4</ele>
        <time>2022-05-21 21:39:47</time>
      </trkpt>
      <trkpt lat="42.27458" lon="2.36828">
        <ele>885.2</ele>
        <time>2022-05-21 21:39:48</time>
      </trkpt>
      <trkpt lat="42.27449" lon="2.36829">
        <ele>885</ele>
        <time>2022-05-21 21:39:49</time>
      </trkpt>
      <trkpt lat="42.27441" lon="2.36829">
        <ele>884.8</ele>
        <time>2022-05-21 21:39:50</time>
      </trkpt>
      <trkpt lat="42.27433" lon="2.3683">
        <ele>884.6</ele>
        <time>2022-05-21 21:39:51</time>
      </trkpt>
      <trkpt lat="42.27425" lon="2.3683">
        <ele>884.4</ele>
        <time>2022-05-21 21:39:52</time>
      </trkpt>
      <trkpt lat="42.27417" lon="2.3683">
        <ele>884.2</ele>
        <time>2022-05-21 21:39:53</time>
      </trkpt>
      <trkpt lat="42.27408" lon="2.3683">
        <ele>884</ele>
        <time>2022-05-21 21:39:54</time>
      </trkpt>
      <trkpt lat="42.274" lon="2.3683">
        <ele>883.8</ele>
        <time>2022-05-21 21:39:55</time>
      </trkpt>
      <trkpt lat="42.27392" lon="2.36831">
        <ele>883.8</ele>
        <time>2022-05-21 21:39:56</time>
      </trkpt>
      <trkpt lat="42.27384" lon="2.36831">
        <ele>883.6</ele>
        <time>2022-05-21 21:39:57</time>
      </trkpt>
      <trkpt lat="42.27376" lon="2.36831">
        <ele>883.4</ele>
        <time>2022-05-21 21:39:58</time>
      </trkpt>
      <trkpt lat="42.27368" lon="2.36831">
        <ele>883.4</ele>
        <time>2022-05-21 21:39:59</time>
      </trkpt>
      <trkpt lat="42.2736" lon="2.36831">
        <ele>883.2</ele>
        <time>2022-05-21 21:40:00</time>
      </trkpt>
      <trkpt lat="42.27352" lon="2.36831">
        <ele>883.2</ele>
        <time>2022-05-21 21:40:01</time>
      </trkpt>
      <trkpt lat="42.27344" lon="2.36832">
        <ele>883</ele>
        <time>2022-05-21 21:40:02</time>
      </trkpt>
      <trkpt lat="42.27336" lon="2.36833">
        <ele>883</ele>
        <time>2022-05-21 21:40:03</time>
      </trkpt>
      <trkpt lat="42.27328" lon="2.36833">
        <ele>883</ele>
        <time>2022-05-21 21:40:04</time>
      </trkpt>
      <trkpt lat="42.27319" lon="2.36834">
        <ele>883</ele>
        <time>2022-05-21 21:40:05</time>
      </trkpt>
      <trkpt lat="42.27311" lon="2.36834">
        <ele>882.8</ele>
        <time>2022-05-21 21:40:06</time>
      </trkpt>
      <trkpt lat="42.27303" lon="2.36834">
        <ele>882.8</ele>
        <time>2022-05-21 21:40:07</time>
      </trkpt>
      <trkpt lat="42.27295" lon="2.36834">
        <ele>882.6</ele>
        <time>2022-05-21 21:40:08</time>
      </trkpt>
      <trkpt lat="42.27286" lon="2.36835">
        <ele>882.6</ele>
        <time>2022-05-21 21:40:09</time>
      </trkpt>
      <trkpt lat="42.27278" lon="2.36835">
        <ele>882.4</ele>
        <time>2022-05-21 21:40:10</time>
      </trkpt>
      <trkpt lat="42.2727" lon="2.36835">
        <ele>882.4</ele>
        <time>2022-05-21 21:40:11</time>
      </trkpt>
      <trkpt lat="42.27261" lon="2.36836">
        <ele>882.2</ele>
        <time>2022-05-21 21:40:12</time>
      </trkpt>
      <trkpt lat="42.27253" lon="2.36836">
        <ele>882</ele>
        <time>2022-05-21 21:40:13</time>
      </trkpt>
      <trkpt lat="42.27244" lon="2.36836">
        <ele>881.8</ele>
        <time>2022-05-21 21:40:14</time>
      </trkpt>
      <trkpt lat="42.27236" lon="2.36836">
        <ele>881.8</ele>
        <time>2022-05-21 21:40:15</time>
      </trkpt>
      <trkpt lat="42.27228" lon="2.36837">
        <ele>881.6</ele>
        <time>2022-05-21 21:40:16</time>
      </trkpt>
      <trkpt lat="42.2722" lon="2.36838">
        <ele>881.4</ele>
        <time>2022-05-21 21:40:17</time>
      </trkpt>
      <trkpt lat="42.27211" lon="2.36839">
        <ele>881.4</ele>
        <time>2022-05-21 21:40:18</time>
      </trkpt>
      <trkpt lat="42.27203" lon="2.36841">
        <ele>881.2</ele>
        <time>2022-05-21 21:40:19</time>
      </trkpt>
      <trkpt lat="42.27196" lon="2.36845">
        <ele>881</ele>
        <time>2022-05-21 21:40:20</time>
      </trkpt>
      <trkpt lat="42.27189" lon="2.36851">
        <ele>881</ele>
        <time>2022-05-21 21:40:21</time>
      </trkpt>
      <trkpt lat="42.27184" lon="2.36859">
        <ele>880.8</ele>
        <time>2022-05-21 21:40:22</time>
      </trkpt>
      <trkpt lat="42.27179" lon="2.36868">
        <ele>880.8</ele>
        <time>2022-05-21 21:40:23</time>
      </trkpt>
      <trkpt lat="42.27176" lon="2.36877">
        <ele>880.8</ele>
        <time>2022-05-21 21:40:24</time>
      </trkpt>
      <trkpt lat="42.27174" lon="2.36887">
        <ele>880.8</ele>
        <time>2022-05-21 21:40:25</time>
      </trkpt>
      <trkpt lat="42.27172" lon="2.36897">
        <ele>880.6</ele>
        <time>2022-05-21 21:40:26</time>
      </trkpt>
      <trkpt lat="42.2717" lon="2.36906">
        <ele>880.6</ele>
        <time>2022-05-21 21:40:27</time>
      </trkpt>
      <trkpt lat="42.27169" lon="2.36916">
        <ele>880.6</ele>
        <time>2022-05-21 21:40:28</time>
      </trkpt>
      <trkpt lat="42.27167" lon="2.36926">
        <ele>880.6</ele>
        <time>2022-05-21 21:40:29</time>
      </trkpt>
      <trkpt lat="42.27166" lon="2.36935">
        <ele>880.6</ele>
        <time>2022-05-21 21:40:30</time>
      </trkpt>
      <trkpt lat="42.27164" lon="2.36944">
        <ele>880.6</ele>
        <time>2022-05-21 21:40:31</time>
      </trkpt>
      <trkpt lat="42.27162" lon="2.36952">
        <ele>880.6</ele>
        <time>2022-05-21 21:40:32</time>
      </trkpt>
      <trkpt lat="42.27159" lon="2.36959">
        <ele>880.6</ele>
        <time>2022-05-21 21:40:33</time>
      </trkpt>
      <trkpt lat="42.27154" lon="2.36967">
        <ele>880.8</ele>
        <time>2022-05-21 21:40:34</time>
      </trkpt>
      <trkpt lat="42.27149" lon="2.36972">
        <ele>880.8</ele>
        <time>2022-05-21 21:40:35</time>
      </trkpt>
      <trkpt lat="42.27143" lon="2.36975">
        <ele>880.8</ele>
        <time>2022-05-21 21:40:36</time>
      </trkpt>
      <trkpt lat="42.27136" lon="2.36976">
        <ele>880.8</ele>
        <time>2022-05-21 21:40:37</time>
      </trkpt>
      <trkpt lat="42.2713" lon="2.36976">
        <ele>881</ele>
        <time>2022-05-21 21:40:38</time>
      </trkpt>
      <trkpt lat="42.27124" lon="2.36974">
        <ele>881</ele>
        <time>2022-05-21 21:40:39</time>
      </trkpt>
      <trkpt lat="42.27118" lon="2.36971">
        <ele>881</ele>
        <time>2022-05-21 21:40:40</time>
      </trkpt>
      <trkpt lat="42.27112" lon="2.36968">
        <ele>881</ele>
        <time>2022-05-21 21:40:41</time>
      </trkpt>
      <trkpt lat="42.27106" lon="2.36965">
        <ele>881</ele>
        <time>2022-05-21 21:40:42</time>
      </trkpt>
      <trkpt lat="42.271" lon="2.36963">
        <ele>881</ele>
        <time>2022-05-21 21:40:43</time>
      </trkpt>
      <trkpt lat="42.27093" lon="2.36961">
        <ele>881</ele>
        <time>2022-05-21 21:40:44</time>
      </trkpt>
      <trkpt lat="42.27087" lon="2.36958">
        <ele>881</ele>
        <time>2022-05-21 21:40:45</time>
      </trkpt>
      <trkpt lat="42.2708" lon="2.36956">
        <ele>881</ele>
        <time>2022-05-21 21:40:46</time>
      </trkpt>
      <trkpt lat="42.27073" lon="2.36953">
        <ele>880.8</ele>
        <time>2022-05-21 21:40:47</time>
      </trkpt>
      <trkpt lat="42.27068" lon="2.36951">
        <ele>880.8</ele>
        <time>2022-05-21 21:40:48</time>
      </trkpt>
      <trkpt lat="42.27063" lon="2.36949">
        <ele>881</ele>
        <time>2022-05-21 21:40:49</time>
      </trkpt>
      <trkpt lat="42.27054" lon="2.36945">
        <ele>880.8</ele>
        <time>2022-05-21 21:40:50</time>
      </trkpt>
      <trkpt lat="42.27047" lon="2.36943">
        <ele>880.8</ele>
        <time>2022-05-21 21:40:51</time>
      </trkpt>
      <trkpt lat="42.27041" lon="2.36941">
        <ele>880.8</ele>
        <time>2022-05-21 21:40:52</time>
      </trkpt>
      <trkpt lat="42.27034" lon="2.36938">
        <ele>880.8</ele>
        <time>2022-05-21 21:40:53</time>
      </trkpt>
      <trkpt lat="42.27028" lon="2.36935">
        <ele>880.8</ele>
        <time>2022-05-21 21:40:54</time>
      </trkpt>
      <trkpt lat="42.27022" lon="2.36932">
        <ele>880.8</ele>
        <time>2022-05-21 21:40:55</time>
      </trkpt>
      <trkpt lat="42.27015" lon="2.36929">
        <ele>880.8</ele>
        <time>2022-05-21 21:40:56</time>
      </trkpt>
      <trkpt lat="42.27008" lon="2.36926">
        <ele>880.6</ele>
        <time>2022-05-21 21:40:57</time>
      </trkpt>
      <trkpt lat="42.27002" lon="2.36923">
        <ele>880.4</ele>
        <time>2022-05-21 21:40:58</time>
      </trkpt>
      <trkpt lat="42.26995" lon="2.36921">
        <ele>880.4</ele>
        <time>2022-05-21 21:40:59</time>
      </trkpt>
      <trkpt lat="42.26987" lon="2.36918">
        <ele>880.2</ele>
        <time>2022-05-21 21:41:00</time>
      </trkpt>
      <trkpt lat="42.26981" lon="2.36915">
        <ele>880.2</ele>
        <time>2022-05-21 21:41:01</time>
      </trkpt>
      <trkpt lat="42.26974" lon="2.36912">
        <ele>880</ele>
        <time>2022-05-21 21:41:02</time>
      </trkpt>
      <trkpt lat="42.26967" lon="2.36909">
        <ele>879.8</ele>
        <time>2022-05-21 21:41:03</time>
      </trkpt>
      <trkpt lat="42.2696" lon="2.36907">
        <ele>879.8</ele>
        <time>2022-05-21 21:41:04</time>
      </trkpt>
      <trkpt lat="42.26952" lon="2.36904">
        <ele>879.8</ele>
        <time>2022-05-21 21:41:05</time>
      </trkpt>
      <trkpt lat="42.26945" lon="2.36901">
        <ele>879.6</ele>
        <time>2022-05-21 21:41:06</time>
      </trkpt>
      <trkpt lat="42.26937" lon="2.36898">
        <ele>879.6</ele>
        <time>2022-05-21 21:41:07</time>
      </trkpt>
      <trkpt lat="42.2693" lon="2.36895">
        <ele>879.4</ele>
        <time>2022-05-21 21:41:08</time>
      </trkpt>
      <trkpt lat="42.26923" lon="2.36892">
        <ele>879.4</ele>
        <time>2022-05-21 21:41:09</time>
      </trkpt>
      <trkpt lat="42.26916" lon="2.36889">
        <ele>879.2</ele>
        <time>2022-05-21 21:41:10</time>
      </trkpt>
      <trkpt lat="42.26909" lon="2.36885">
        <ele>879.2</ele>
        <time>2022-05-21 21:41:11</time>
      </trkpt>
      <trkpt lat="42.26901" lon="2.36882">
        <ele>879</ele>
        <time>2022-05-21 21:41:12</time>
      </trkpt>
      <trkpt lat="42.26893" lon="2.36879">
        <ele>879</ele>
        <time>2022-05-21 21:41:13</time>
      </trkpt>
      <trkpt lat="42.26886" lon="2.36876">
        <ele>878.8</ele>
        <time>2022-05-21 21:41:14</time>
      </trkpt>
      <trkpt lat="42.26879" lon="2.36873">
        <ele>878.6</ele>
        <time>2022-05-21 21:41:15</time>
      </trkpt>
      <trkpt lat="42.26872" lon="2.36869">
        <ele>878.6</ele>
        <time>2022-05-21 21:41:16</time>
      </trkpt>
      <trkpt lat="42.26864" lon="2.36867">
        <ele>878.4</ele>
        <time>2022-05-21 21:41:17</time>
      </trkpt>
      <trkpt lat="42.26857" lon="2.36864">
        <ele>878.2</ele>
        <time>2022-05-21 21:41:18</time>
      </trkpt>
      <trkpt lat="42.2685" lon="2.36861">
        <ele>878.2</ele>
        <time>2022-05-21 21:41:19</time>
      </trkpt>
      <trkpt lat="42.26843" lon="2.36859">
        <ele>878</ele>
        <time>2022-05-21 21:41:20</time>
      </trkpt>
      <trkpt lat="42.26836" lon="2.36856">
        <ele>878</ele>
        <time>2022-05-21 21:41:21</time>
      </trkpt>
      <trkpt lat="42.26829" lon="2.36854">
        <ele>878</ele>
        <time>2022-05-21 21:41:22</time>
      </trkpt>
      <trkpt lat="42.26823" lon="2.36851">
        <ele>877.8</ele>
        <time>2022-05-21 21:41:23</time>
      </trkpt>
      <trkpt lat="42.26816" lon="2.36848">
        <ele>877.8</ele>
        <time>2022-05-21 21:41:24</time>
      </trkpt>
      <trkpt lat="42.26809" lon="2.36845">
        <ele>877.8</ele>
        <time>2022-05-21 21:41:25</time>
      </trkpt>
      <trkpt lat="42.26802" lon="2.36842">
        <ele>877.6</ele>
        <time>2022-05-21 21:41:26</time>
      </trkpt>
      <trkpt lat="42.26795" lon="2.3684">
        <ele>877.6</ele>
        <time>2022-05-21 21:41:27</time>
      </trkpt>
      <trkpt lat="42.26788" lon="2.36837">
        <ele>877.4</ele>
        <time>2022-05-21 21:41:28</time>
      </trkpt>
      <trkpt lat="42.26782" lon="2.36835">
        <ele>877.4</ele>
        <time>2022-05-21 21:41:29</time>
      </trkpt>
      <trkpt lat="42.26776" lon="2.36833">
        <ele>877.2</ele>
        <time>2022-05-21 21:41:30</time>
      </trkpt>
      <trkpt lat="42.26769" lon="2.3683">
        <ele>877</ele>
        <time>2022-05-21 21:41:31</time>
      </trkpt>
      <trkpt lat="42.26763" lon="2.36827">
        <ele>876.8</ele>
        <time>2022-05-21 21:41:32</time>
      </trkpt>
      <trkpt lat="42.26756" lon="2.36824">
        <ele>876.8</ele>
        <time>2022-05-21 21:41:33</time>
      </trkpt>
      <trkpt lat="42.26748" lon="2.36821">
        <ele>876.6</ele>
        <time>2022-05-21 21:41:34</time>
      </trkpt>
      <trkpt lat="42.26742" lon="2.36818">
        <ele>876.4</ele>
        <time>2022-05-21 21:41:35</time>
      </trkpt>
      <trkpt lat="42.26735" lon="2.36815">
        <ele>876.2</ele>
        <time>2022-05-21 21:41:36</time>
      </trkpt>
      <trkpt lat="42.26728" lon="2.36813">
        <ele>876</ele>
        <time>2022-05-21 21:41:37</time>
      </trkpt>
      <trkpt lat="42.26721" lon="2.3681">
        <ele>876</ele>
        <time>2022-05-21 21:41:38</time>
      </trkpt>
      <trkpt lat="42.26714" lon="2.36808">
        <ele>875.8</ele>
        <time>2022-05-21 21:41:39</time>
      </trkpt>
      <trkpt lat="42.26708" lon="2.36805">
        <ele>875.8</ele>
        <time>2022-05-21 21:41:40</time>
      </trkpt>
      <trkpt lat="42.26701" lon="2.36802">
        <ele>875.8</ele>
        <time>2022-05-21 21:41:41</time>
      </trkpt>
      <trkpt lat="42.26693" lon="2.36799">
        <ele>875.8</ele>
        <time>2022-05-21 21:41:42</time>
      </trkpt>
      <trkpt lat="42.26686" lon="2.36797">
        <ele>875.8</ele>
        <time>2022-05-21 21:41:43</time>
      </trkpt>
      <trkpt lat="42.26679" lon="2.36793">
        <ele>875.6</ele>
        <time>2022-05-21 21:41:44</time>
      </trkpt>
      <trkpt lat="42.26671" lon="2.36791">
        <ele>875.4</ele>
        <time>2022-05-21 21:41:45</time>
      </trkpt>
      <trkpt lat="42.26664" lon="2.36788">
        <ele>875.2</ele>
        <time>2022-05-21 21:41:46</time>
      </trkpt>
      <trkpt lat="42.26658" lon="2.36785">
        <ele>875.2</ele>
        <time>2022-05-21 21:41:47</time>
      </trkpt>
      <trkpt lat="42.2665" lon="2.36782">
        <ele>875</ele>
        <time>2022-05-21 21:41:48</time>
      </trkpt>
      <trkpt lat="42.26644" lon="2.36779">
        <ele>875</ele>
        <time>2022-05-21 21:41:49</time>
      </trkpt>
      <trkpt lat="42.26636" lon="2.36776">
        <ele>875</ele>
        <time>2022-05-21 21:41:50</time>
      </trkpt>
      <trkpt lat="42.26629" lon="2.36773">
        <ele>874.8</ele>
        <time>2022-05-21 21:41:51</time>
      </trkpt>
      <trkpt lat="42.26622" lon="2.3677">
        <ele>874.8</ele>
        <time>2022-05-21 21:41:52</time>
      </trkpt>
      <trkpt lat="42.26615" lon="2.36767">
        <ele>874.6</ele>
        <time>2022-05-21 21:41:53</time>
      </trkpt>
      <trkpt lat="42.26608" lon="2.36764">
        <ele>874.4</ele>
        <time>2022-05-21 21:41:54</time>
      </trkpt>
      <trkpt lat="42.26601" lon="2.36762">
        <ele>874.2</ele>
        <time>2022-05-21 21:41:55</time>
      </trkpt>
      <trkpt lat="42.26594" lon="2.36759">
        <ele>874.2</ele>
        <time>2022-05-21 21:41:56</time>
      </trkpt>
      <trkpt lat="42.26586" lon="2.36756">
        <ele>874.2</ele>
        <time>2022-05-21 21:41:57</time>
      </trkpt>
      <trkpt lat="42.26579" lon="2.36753">
        <ele>874</ele>
        <time>2022-05-21 21:41:58</time>
      </trkpt>
      <trkpt lat="42.26571" lon="2.3675">
        <ele>874</ele>
        <time>2022-05-21 21:41:59</time>
      </trkpt>
      <trkpt lat="42.26564" lon="2.36748">
        <ele>873.8</ele>
        <time>2022-05-21 21:42:00</time>
      </trkpt>
      <trkpt lat="42.26557" lon="2.36745">
        <ele>873.8</ele>
        <time>2022-05-21 21:42:01</time>
      </trkpt>
      <trkpt lat="42.26549" lon="2.36743">
        <ele>873.6</ele>
        <time>2022-05-21 21:42:02</time>
      </trkpt>
      <trkpt lat="42.26542" lon="2.3674">
        <ele>873.6</ele>
        <time>2022-05-21 21:42:03</time>
      </trkpt>
      <trkpt lat="42.26535" lon="2.36737">
        <ele>873.4</ele>
        <time>2022-05-21 21:42:04</time>
      </trkpt>
      <trkpt lat="42.26528" lon="2.36734">
        <ele>873.4</ele>
        <time>2022-05-21 21:42:05</time>
      </trkpt>
      <trkpt lat="42.26521" lon="2.36731">
        <ele>873.2</ele>
        <time>2022-05-21 21:42:06</time>
      </trkpt>
      <trkpt lat="42.26514" lon="2.36729">
        <ele>873.2</ele>
        <time>2022-05-21 21:42:07</time>
      </trkpt>
      <trkpt lat="42.26507" lon="2.36726">
        <ele>873</ele>
        <time>2022-05-21 21:42:08</time>
      </trkpt>
      <trkpt lat="42.265" lon="2.36723">
        <ele>872.8</ele>
        <time>2022-05-21 21:42:09</time>
      </trkpt>
      <trkpt lat="42.26493" lon="2.36721">
        <ele>872.8</ele>
        <time>2022-05-21 21:42:10</time>
      </trkpt>
      <trkpt lat="42.26486" lon="2.36718">
        <ele>872.6</ele>
        <time>2022-05-21 21:42:11</time>
      </trkpt>
      <trkpt lat="42.26479" lon="2.36715">
        <ele>872.4</ele>
        <time>2022-05-21 21:42:12</time>
      </trkpt>
      <trkpt lat="42.26472" lon="2.36713">
        <ele>872.2</ele>
        <time>2022-05-21 21:42:13</time>
      </trkpt>
      <trkpt lat="42.26466" lon="2.3671">
        <ele>872</ele>
        <time>2022-05-21 21:42:14</time>
      </trkpt>
      <trkpt lat="42.26459" lon="2.36707">
        <ele>872</ele>
        <time>2022-05-21 21:42:15</time>
      </trkpt>
      <trkpt lat="42.26452" lon="2.36705">
        <ele>871.8</ele>
        <time>2022-05-21 21:42:16</time>
      </trkpt>
      <trkpt lat="42.26445" lon="2.36702">
        <ele>871.6</ele>
        <time>2022-05-21 21:42:17</time>
      </trkpt>
      <trkpt lat="42.26439" lon="2.367">
        <ele>871.4</ele>
        <time>2022-05-21 21:42:18</time>
      </trkpt>
      <trkpt lat="42.26432" lon="2.36697">
        <ele>871.4</ele>
        <time>2022-05-21 21:42:19</time>
      </trkpt>
      <trkpt lat="42.26426" lon="2.36694">
        <ele>871.4</ele>
        <time>2022-05-21 21:42:20</time>
      </trkpt>
      <trkpt lat="42.26419" lon="2.36692">
        <ele>871.4</ele>
        <time>2022-05-21 21:42:21</time>
      </trkpt>
      <trkpt lat="42.26412" lon="2.36689">
        <ele>871.2</ele>
        <time>2022-05-21 21:42:22</time>
      </trkpt>
      <trkpt lat="42.26405" lon="2.36686">
        <ele>871.2</ele>
        <time>2022-05-21 21:42:23</time>
      </trkpt>
      <trkpt lat="42.26398" lon="2.36683">
        <ele>871.2</ele>
        <time>2022-05-21 21:42:24</time>
      </trkpt>
      <trkpt lat="42.26391" lon="2.36681">
        <ele>871</ele>
        <time>2022-05-21 21:42:25</time>
      </trkpt>
      <trkpt lat="42.26384" lon="2.36678">
        <ele>870.8</ele>
        <time>2022-05-21 21:42:26</time>
      </trkpt>
      <trkpt lat="42.26377" lon="2.36675">
        <ele>870.8</ele>
        <time>2022-05-21 21:42:27</time>
      </trkpt>
      <trkpt lat="42.2637" lon="2.36672">
        <ele>870.6</ele>
        <time>2022-05-21 21:42:28</time>
      </trkpt>
      <trkpt lat="42.26364" lon="2.3667">
        <ele>870.6</ele>
        <time>2022-05-21 21:42:29</time>
      </trkpt>
      <trkpt lat="42.26357" lon="2.36667">
        <ele>870.4</ele>
        <time>2022-05-21 21:42:30</time>
      </trkpt>
      <trkpt lat="42.2635" lon="2.36665">
        <ele>870.2</ele>
        <time>2022-05-21 21:42:31</time>
      </trkpt>
      <trkpt lat="42.26344" lon="2.36663">
        <ele>870</ele>
        <time>2022-05-21 21:42:32</time>
      </trkpt>
      <trkpt lat="42.26337" lon="2.3666">
        <ele>869.8</ele>
        <time>2022-05-21 21:42:33</time>
      </trkpt>
      <trkpt lat="42.26331" lon="2.36657">
        <ele>869.8</ele>
        <time>2022-05-21 21:42:34</time>
      </trkpt>
      <trkpt lat="42.26324" lon="2.36655">
        <ele>869.6</ele>
        <time>2022-05-21 21:42:35</time>
      </trkpt>
      <trkpt lat="42.26317" lon="2.36652">
        <ele>869.4</ele>
        <time>2022-05-21 21:42:36</time>
      </trkpt>
      <trkpt lat="42.26311" lon="2.36649">
        <ele>869.2</ele>
        <time>2022-05-21 21:42:37</time>
      </trkpt>
      <trkpt lat="42.26304" lon="2.36646">
        <ele>869.2</ele>
        <time>2022-05-21 21:42:38</time>
      </trkpt>
      <trkpt lat="42.26297" lon="2.36644">
        <ele>869</ele>
        <time>2022-05-21 21:42:39</time>
      </trkpt>
      <trkpt lat="42.26291" lon="2.36642">
        <ele>868.8</ele>
        <time>2022-05-21 21:42:40</time>
      </trkpt>
      <trkpt lat="42.26284" lon="2.36639">
        <ele>868.8</ele>
        <time>2022-05-21 21:42:41</time>
      </trkpt>
      <trkpt lat="42.26277" lon="2.36636">
        <ele>868.6</ele>
        <time>2022-05-21 21:42:42</time>
      </trkpt>
      <trkpt lat="42.26271" lon="2.36634">
        <ele>868.6</ele>
        <time>2022-05-21 21:42:43</time>
      </trkpt>
      <trkpt lat="42.26264" lon="2.36632">
        <ele>868.4</ele>
        <time>2022-05-21 21:42:44</time>
      </trkpt>
      <trkpt lat="42.26257" lon="2.36629">
        <ele>868.4</ele>
        <time>2022-05-21 21:42:45</time>
      </trkpt>
      <trkpt lat="42.2625" lon="2.36627">
        <ele>868.4</ele>
        <time>2022-05-21 21:42:46</time>
      </trkpt>
      <trkpt lat="42.26244" lon="2.36624">
        <ele>868.2</ele>
        <time>2022-05-21 21:42:47</time>
      </trkpt>
      <trkpt lat="42.26238" lon="2.36622">
        <ele>868</ele>
        <time>2022-05-21 21:42:48</time>
      </trkpt>
      <trkpt lat="42.26234" lon="2.3662">
        <ele>868</ele>
        <time>2022-05-21 21:42:49</time>
      </trkpt>
      <trkpt lat="42.26224" lon="2.36616">
        <ele>867.8</ele>
        <time>2022-05-21 21:42:50</time>
      </trkpt>
      <trkpt lat="42.26218" lon="2.36614">
        <ele>867.8</ele>
        <time>2022-05-21 21:42:51</time>
      </trkpt>
      <trkpt lat="42.26211" lon="2.36612">
        <ele>867.6</ele>
        <time>2022-05-21 21:42:52</time>
      </trkpt>
      <trkpt lat="42.26204" lon="2.3661">
        <ele>867.6</ele>
        <time>2022-05-21 21:42:53</time>
      </trkpt>
      <trkpt lat="42.26198" lon="2.36608">
        <ele>867.4</ele>
        <time>2022-05-21 21:42:54</time>
      </trkpt>
      <trkpt lat="42.26192" lon="2.36606">
        <ele>867.4</ele>
        <time>2022-05-21 21:42:55</time>
      </trkpt>
      <trkpt lat="42.26185" lon="2.36603">
        <ele>867.2</ele>
        <time>2022-05-21 21:42:56</time>
      </trkpt>
      <trkpt lat="42.26179" lon="2.36601">
        <ele>867</ele>
        <time>2022-05-21 21:42:57</time>
      </trkpt>
      <trkpt lat="42.26172" lon="2.36599">
        <ele>867</ele>
        <time>2022-05-21 21:42:58</time>
      </trkpt>
      <trkpt lat="42.26165" lon="2.36597">
        <ele>866.8</ele>
        <time>2022-05-21 21:42:59</time>
      </trkpt>
      <trkpt lat="42.26159" lon="2.36594">
        <ele>866.8</ele>
        <time>2022-05-21 21:43:00</time>
      </trkpt>
      <trkpt lat="42.26153" lon="2.36592">
        <ele>866.6</ele>
        <time>2022-05-21 21:43:01</time>
      </trkpt>
      <trkpt lat="42.26147" lon="2.36589">
        <ele>866.6</ele>
        <time>2022-05-21 21:43:02</time>
      </trkpt>
      <trkpt lat="42.26141" lon="2.36587">
        <ele>866.4</ele>
        <time>2022-05-21 21:43:03</time>
      </trkpt>
      <trkpt lat="42.26134" lon="2.36585">
        <ele>866.2</ele>
        <time>2022-05-21 21:43:04</time>
      </trkpt>
      <trkpt lat="42.26129" lon="2.36584">
        <ele>866.2</ele>
        <time>2022-05-21 21:43:05</time>
      </trkpt>
      <trkpt lat="42.26121" lon="2.36583">
        <ele>866</ele>
        <time>2022-05-21 21:43:06</time>
      </trkpt>
      <trkpt lat="42.26115" lon="2.36584">
        <ele>865.8</ele>
        <time>2022-05-21 21:43:07</time>
      </trkpt>
      <trkpt lat="42.2611" lon="2.36585">
        <ele>865.8</ele>
        <time>2022-05-21 21:43:08</time>
      </trkpt>
      <trkpt lat="42.26104" lon="2.36585">
        <ele>865.6</ele>
        <time>2022-05-21 21:43:09</time>
      </trkpt>
      <trkpt lat="42.26098" lon="2.36586">
        <ele>865.6</ele>
        <time>2022-05-21 21:43:10</time>
      </trkpt>
      <trkpt lat="42.26093" lon="2.36586">
        <ele>865.6</ele>
        <time>2022-05-21 21:43:11</time>
      </trkpt>
      <trkpt lat="42.26088" lon="2.36586">
        <ele>865.8</ele>
        <time>2022-05-21 21:43:12</time>
      </trkpt>
      <trkpt lat="42.26082" lon="2.36586">
        <ele>865.8</ele>
        <time>2022-05-21 21:43:13</time>
      </trkpt>
      <trkpt lat="42.26076" lon="2.36586">
        <ele>865.6</ele>
        <time>2022-05-21 21:43:14</time>
      </trkpt>
      <trkpt lat="42.26071" lon="2.36586">
        <ele>865.6</ele>
        <time>2022-05-21 21:43:15</time>
      </trkpt>
      <trkpt lat="42.26065" lon="2.36586">
        <ele>865.8</ele>
        <time>2022-05-21 21:43:16</time>
      </trkpt>
      <trkpt lat="42.2606" lon="2.36586">
        <ele>865.8</ele>
        <time>2022-05-21 21:43:17</time>
      </trkpt>
      <trkpt lat="42.26055" lon="2.36586">
        <ele>865.8</ele>
        <time>2022-05-21 21:43:18</time>
      </trkpt>
      <trkpt lat="42.26049" lon="2.36586">
        <ele>865.8</ele>
        <time>2022-05-21 21:43:19</time>
      </trkpt>
      <trkpt lat="42.26044" lon="2.36586">
        <ele>865.6</ele>
        <time>2022-05-21 21:43:20</time>
      </trkpt>
      <trkpt lat="42.26039" lon="2.36586">
        <ele>865.6</ele>
        <time>2022-05-21 21:43:21</time>
      </trkpt>
      <trkpt lat="42.26034" lon="2.36587">
        <ele>865.6</ele>
        <time>2022-05-21 21:43:22</time>
      </trkpt>
      <trkpt lat="42.2603" lon="2.36586">
        <ele>865.6</ele>
        <time>2022-05-21 21:43:23</time>
      </trkpt>
      <trkpt lat="42.26026" lon="2.36584">
        <ele>865.6</ele>
        <time>2022-05-21 21:43:24</time>
      </trkpt>
      <trkpt lat="42.26022" lon="2.36581">
        <ele>865.6</ele>
        <time>2022-05-21 21:43:25</time>
      </trkpt>
      <trkpt lat="42.26018" lon="2.36578">
        <ele>865.6</ele>
        <time>2022-05-21 21:43:26</time>
      </trkpt>
      <trkpt lat="42.26015" lon="2.36575">
        <ele>865.6</ele>
        <time>2022-05-21 21:43:27</time>
      </trkpt>
      <trkpt lat="42.26011" lon="2.36573">
        <ele>865.6</ele>
        <time>2022-05-21 21:43:28</time>
      </trkpt>
      <trkpt lat="42.26005" lon="2.36571">
        <ele>865.6</ele>
        <time>2022-05-21 21:43:29</time>
      </trkpt>
      <trkpt lat="42.26" lon="2.3657">
        <ele>865.6</ele>
        <time>2022-05-21 21:43:30</time>
      </trkpt>
      <trkpt lat="42.25995" lon="2.36569">
        <ele>865.6</ele>
        <time>2022-05-21 21:43:31</time>
      </trkpt>
      <trkpt lat="42.2599" lon="2.36567">
        <ele>865.4</ele>
        <time>2022-05-21 21:43:32</time>
      </trkpt>
      <trkpt lat="42.25985" lon="2.36564">
        <ele>865.2</ele>
        <time>2022-05-21 21:43:33</time>
      </trkpt>
      <trkpt lat="42.2598" lon="2.36561">
        <ele>865</ele>
        <time>2022-05-21 21:43:34</time>
      </trkpt>
      <trkpt lat="42.25974" lon="2.36557">
        <ele>864.8</ele>
        <time>2022-05-21 21:43:35</time>
      </trkpt>
      <trkpt lat="42.2597" lon="2.36553">
        <ele>864.8</ele>
        <time>2022-05-21 21:43:36</time>
      </trkpt>
      <trkpt lat="42.25965" lon="2.36549">
        <ele>864.6</ele>
        <time>2022-05-21 21:43:37</time>
      </trkpt>
      <trkpt lat="42.2596" lon="2.36545">
        <ele>864.4</ele>
        <time>2022-05-21 21:43:38</time>
      </trkpt>
      <trkpt lat="42.25955" lon="2.36541">
        <ele>864.4</ele>
        <time>2022-05-21 21:43:39</time>
      </trkpt>
      <trkpt lat="42.2595" lon="2.36537">
        <ele>864.2</ele>
        <time>2022-05-21 21:43:40</time>
      </trkpt>
      <trkpt lat="42.25945" lon="2.36533">
        <ele>864</ele>
        <time>2022-05-21 21:43:41</time>
      </trkpt>
      <trkpt lat="42.2594" lon="2.36529">
        <ele>863.8</ele>
        <time>2022-05-21 21:43:42</time>
      </trkpt>
      <trkpt lat="42.25936" lon="2.36525">
        <ele>863.6</ele>
        <time>2022-05-21 21:43:43</time>
      </trkpt>
      <trkpt lat="42.25931" lon="2.36522">
        <ele>863.4</ele>
        <time>2022-05-21 21:43:44</time>
      </trkpt>
      <trkpt lat="42.25925" lon="2.36518">
        <ele>863.4</ele>
        <time>2022-05-21 21:43:45</time>
      </trkpt>
      <trkpt lat="42.2592" lon="2.36514">
        <ele>863.2</ele>
        <time>2022-05-21 21:43:46</time>
      </trkpt>
      <trkpt lat="42.25914" lon="2.3651">
        <ele>863</ele>
        <time>2022-05-21 21:43:47</time>
      </trkpt>
      <trkpt lat="42.25909" lon="2.36506">
        <ele>862.8</ele>
        <time>2022-05-21 21:43:48</time>
      </trkpt>
      <trkpt lat="42.25904" lon="2.36502">
        <ele>862.6</ele>
        <time>2022-05-21 21:43:49</time>
      </trkpt>
      <trkpt lat="42.25899" lon="2.36498">
        <ele>862.6</ele>
        <time>2022-05-21 21:43:50</time>
      </trkpt>
      <trkpt lat="42.25893" lon="2.36493">
        <ele>862.4</ele>
        <time>2022-05-21 21:43:51</time>
      </trkpt>
      <trkpt lat="42.25887" lon="2.36489">
        <ele>862.2</ele>
        <time>2022-05-21 21:43:52</time>
      </trkpt>
      <trkpt lat="42.25882" lon="2.36484">
        <ele>862</ele>
        <time>2022-05-21 21:43:53</time>
      </trkpt>
      <trkpt lat="42.25876" lon="2.36479">
        <ele>861.8</ele>
        <time>2022-05-21 21:43:54</time>
      </trkpt>
      <trkpt lat="42.25871" lon="2.36474">
        <ele>861.4</ele>
        <time>2022-05-21 21:43:55</time>
      </trkpt>
      <trkpt lat="42.25865" lon="2.3647">
        <ele>861.4</ele>
        <time>2022-05-21 21:43:56</time>
      </trkpt>
      <trkpt lat="42.25859" lon="2.36466">
        <ele>861.2</ele>
        <time>2022-05-21 21:43:57</time>
      </trkpt>
      <trkpt lat="42.25854" lon="2.36462">
        <ele>861.2</ele>
        <time>2022-05-21 21:43:58</time>
      </trkpt>
      <trkpt lat="42.25847" lon="2.36457">
        <ele>861</ele>
        <time>2022-05-21 21:43:59</time>
      </trkpt>
      <trkpt lat="42.25842" lon="2.36453">
        <ele>860.8</ele>
        <time>2022-05-21 21:44:00</time>
      </trkpt>
      <trkpt lat="42.25836" lon="2.36448">
        <ele>860.6</ele>
        <time>2022-05-21 21:44:01</time>
      </trkpt>
      <trkpt lat="42.25831" lon="2.36443">
        <ele>860.2</ele>
        <time>2022-05-21 21:44:02</time>
      </trkpt>
      <trkpt lat="42.25825" lon="2.36437">
        <ele>860</ele>
        <time>2022-05-21 21:44:03</time>
      </trkpt>
      <trkpt lat="42.2582" lon="2.36431">
        <ele>859.8</ele>
        <time>2022-05-21 21:44:04</time>
      </trkpt>
      <trkpt lat="42.25815" lon="2.36424">
        <ele>859.4</ele>
        <time>2022-05-21 21:44:05</time>
      </trkpt>
      <trkpt lat="42.25811" lon="2.36416">
        <ele>859</ele>
        <time>2022-05-21 21:44:06</time>
      </trkpt>
      <trkpt lat="42.25808" lon="2.36407">
        <ele>859</ele>
        <time>2022-05-21 21:44:07</time>
      </trkpt>
      <trkpt lat="42.25807" lon="2.36398">
        <ele>858.8</ele>
        <time>2022-05-21 21:44:08</time>
      </trkpt>
      <trkpt lat="42.25806" lon="2.36387">
        <ele>858.6</ele>
        <time>2022-05-21 21:44:09</time>
      </trkpt>
      <trkpt lat="42.25808" lon="2.36376">
        <ele>858.4</ele>
        <time>2022-05-21 21:44:10</time>
      </trkpt>
      <trkpt lat="42.25809" lon="2.36366">
        <ele>858.2</ele>
        <time>2022-05-21 21:44:11</time>
      </trkpt>
      <trkpt lat="42.25811" lon="2.36357">
        <ele>858.2</ele>
        <time>2022-05-21 21:44:12</time>
      </trkpt>
      <trkpt lat="42.25813" lon="2.36347">
        <ele>858</ele>
        <time>2022-05-21 21:44:13</time>
      </trkpt>
      <trkpt lat="42.25815" lon="2.36337">
        <ele>858</ele>
        <time>2022-05-21 21:44:14</time>
      </trkpt>
      <trkpt lat="42.25817" lon="2.36328">
        <ele>857.8</ele>
        <time>2022-05-21 21:44:15</time>
      </trkpt>
      <trkpt lat="42.25818" lon="2.3632">
        <ele>857.8</ele>
        <time>2022-05-21 21:44:16</time>
      </trkpt>
      <trkpt lat="42.2582" lon="2.36311">
        <ele>857.8</ele>
        <time>2022-05-21 21:44:17</time>
      </trkpt>
      <trkpt lat="42.25821" lon="2.36303">
        <ele>857.8</ele>
        <time>2022-05-21 21:44:18</time>
      </trkpt>
      <trkpt lat="42.25822" lon="2.36295">
        <ele>858</ele>
        <time>2022-05-21 21:44:19</time>
      </trkpt>
      <trkpt lat="42.25823" lon="2.36288">
        <ele>858</ele>
        <time>2022-05-21 21:44:20</time>
      </trkpt>
      <trkpt lat="42.25823" lon="2.3628">
        <ele>858.2</ele>
        <time>2022-05-21 21:44:21</time>
      </trkpt>
      <trkpt lat="42.25822" lon="2.36273">
        <ele>858.4</ele>
        <time>2022-05-21 21:44:22</time>
      </trkpt>
      <trkpt lat="42.25821" lon="2.36265">
        <ele>858.6</ele>
        <time>2022-05-21 21:44:23</time>
      </trkpt>
      <trkpt lat="42.2582" lon="2.36259">
        <ele>858.8</ele>
        <time>2022-05-21 21:44:24</time>
      </trkpt>
      <trkpt lat="42.25818" lon="2.36252">
        <ele>858.8</ele>
        <time>2022-05-21 21:44:25</time>
      </trkpt>
      <trkpt lat="42.25816" lon="2.36245">
        <ele>858.8</ele>
        <time>2022-05-21 21:44:26</time>
      </trkpt>
      <trkpt lat="42.25814" lon="2.36238">
        <ele>859</ele>
        <time>2022-05-21 21:44:27</time>
      </trkpt>
      <trkpt lat="42.25813" lon="2.36231">
        <ele>858.8</ele>
        <time>2022-05-21 21:44:28</time>
      </trkpt>
      <trkpt lat="42.25812" lon="2.36224">
        <ele>858.8</ele>
        <time>2022-05-21 21:44:29</time>
      </trkpt>
      <trkpt lat="42.2581" lon="2.36216">
        <ele>859</ele>
        <time>2022-05-21 21:44:30</time>
      </trkpt>
      <trkpt lat="42.25808" lon="2.36209">
        <ele>859</ele>
        <time>2022-05-21 21:44:31</time>
      </trkpt>
      <trkpt lat="42.25806" lon="2.36202">
        <ele>859</ele>
        <time>2022-05-21 21:44:32</time>
      </trkpt>
      <trkpt lat="42.25804" lon="2.36196">
        <ele>859</ele>
        <time>2022-05-21 21:44:33</time>
      </trkpt>
      <trkpt lat="42.25802" lon="2.3619">
        <ele>859.2</ele>
        <time>2022-05-21 21:44:34</time>
      </trkpt>
      <trkpt lat="42.258" lon="2.36184">
        <ele>859.2</ele>
        <time>2022-05-21 21:44:35</time>
      </trkpt>
      <trkpt lat="42.25798" lon="2.36178">
        <ele>859.4</ele>
        <time>2022-05-21 21:44:36</time>
      </trkpt>
      <trkpt lat="42.25796" lon="2.36171">
        <ele>859.4</ele>
        <time>2022-05-21 21:44:37</time>
      </trkpt>
      <trkpt lat="42.25793" lon="2.36164">
        <ele>859.4</ele>
        <time>2022-05-21 21:44:38</time>
      </trkpt>
      <trkpt lat="42.25791" lon="2.36158">
        <ele>859.6</ele>
        <time>2022-05-21 21:44:39</time>
      </trkpt>
      <trkpt lat="42.2579" lon="2.36152">
        <ele>859.4</ele>
        <time>2022-05-21 21:44:40</time>
      </trkpt>
      <trkpt lat="42.25788" lon="2.36147">
        <ele>859.6</ele>
        <time>2022-05-21 21:44:41</time>
      </trkpt>
      <trkpt lat="42.25786" lon="2.36142">
        <ele>859.6</ele>
        <time>2022-05-21 21:44:42</time>
      </trkpt>
      <trkpt lat="42.25784" lon="2.36135">
        <ele>859.6</ele>
        <time>2022-05-21 21:44:43</time>
      </trkpt>
      <trkpt lat="42.25782" lon="2.36129">
        <ele>859.6</ele>
        <time>2022-05-21 21:44:44</time>
      </trkpt>
      <trkpt lat="42.2578" lon="2.36123">
        <ele>859.6</ele>
        <time>2022-05-21 21:44:45</time>
      </trkpt>
      <trkpt lat="42.25778" lon="2.36117">
        <ele>859.8</ele>
        <time>2022-05-21 21:44:46</time>
      </trkpt>
      <trkpt lat="42.25776" lon="2.36111">
        <ele>859.8</ele>
        <time>2022-05-21 21:44:47</time>
      </trkpt>
      <trkpt lat="42.25774" lon="2.36105">
        <ele>859.8</ele>
        <time>2022-05-21 21:44:48</time>
      </trkpt>
      <trkpt lat="42.25772" lon="2.36099">
        <ele>860</ele>
        <time>2022-05-21 21:44:49</time>
      </trkpt>
      <trkpt lat="42.2577" lon="2.36094">
        <ele>860</ele>
        <time>2022-05-21 21:44:50</time>
      </trkpt>
      <trkpt lat="42.25768" lon="2.36088">
        <ele>860</ele>
        <time>2022-05-21 21:44:51</time>
      </trkpt>
      <trkpt lat="42.25767" lon="2.36081">
        <ele>860</ele>
        <time>2022-05-21 21:44:52</time>
      </trkpt>
      <trkpt lat="42.25765" lon="2.36075">
        <ele>860</ele>
        <time>2022-05-21 21:44:53</time>
      </trkpt>
      <trkpt lat="42.25763" lon="2.36069">
        <ele>860</ele>
        <time>2022-05-21 21:44:54</time>
      </trkpt>
      <trkpt lat="42.25762" lon="2.36063">
        <ele>860.2</ele>
        <time>2022-05-21 21:44:55</time>
      </trkpt>
      <trkpt lat="42.2576" lon="2.36057">
        <ele>860</ele>
        <time>2022-05-21 21:44:56</time>
      </trkpt>
      <trkpt lat="42.25758" lon="2.36051">
        <ele>860</ele>
        <time>2022-05-21 21:44:57</time>
      </trkpt>
      <trkpt lat="42.25756" lon="2.36044">
        <ele>860</ele>
        <time>2022-05-21 21:44:58</time>
      </trkpt>
      <trkpt lat="42.25754" lon="2.36038">
        <ele>860</ele>
        <time>2022-05-21 21:44:59</time>
      </trkpt>
      <trkpt lat="42.25752" lon="2.36032">
        <ele>859.8</ele>
        <time>2022-05-21 21:45:00</time>
      </trkpt>
      <trkpt lat="42.25749" lon="2.36025">
        <ele>859.8</ele>
        <time>2022-05-21 21:45:01</time>
      </trkpt>
      <trkpt lat="42.25748" lon="2.36019">
        <ele>859.8</ele>
        <time>2022-05-21 21:45:02</time>
      </trkpt>
      <trkpt lat="42.25746" lon="2.36012">
        <ele>859.8</ele>
        <time>2022-05-21 21:45:03</time>
      </trkpt>
      <trkpt lat="42.25743" lon="2.36005">
        <ele>859.6</ele>
        <time>2022-05-21 21:45:04</time>
      </trkpt>
      <trkpt lat="42.25741" lon="2.35999">
        <ele>859.6</ele>
        <time>2022-05-21 21:45:05</time>
      </trkpt>
      <trkpt lat="42.25739" lon="2.35992">
        <ele>859.6</ele>
        <time>2022-05-21 21:45:06</time>
      </trkpt>
      <trkpt lat="42.25737" lon="2.35985">
        <ele>859.6</ele>
        <time>2022-05-21 21:45:07</time>
      </trkpt>
      <trkpt lat="42.25735" lon="2.35978">
        <ele>859.4</ele>
        <time>2022-05-21 21:45:08</time>
      </trkpt>
      <trkpt lat="42.25733" lon="2.35971">
        <ele>859.4</ele>
        <time>2022-05-21 21:45:09</time>
      </trkpt>
      <trkpt lat="42.2573" lon="2.35964">
        <ele>859.4</ele>
        <time>2022-05-21 21:45:10</time>
      </trkpt>
      <trkpt lat="42.25728" lon="2.35957">
        <ele>859.4</ele>
        <time>2022-05-21 21:45:11</time>
      </trkpt>
      <trkpt lat="42.25726" lon="2.3595">
        <ele>859.2</ele>
        <time>2022-05-21 21:45:12</time>
      </trkpt>
      <trkpt lat="42.25723" lon="2.35943">
        <ele>859.2</ele>
        <time>2022-05-21 21:45:13</time>
      </trkpt>
      <trkpt lat="42.25721" lon="2.35936">
        <ele>859</ele>
        <time>2022-05-21 21:45:14</time>
      </trkpt>
      <trkpt lat="42.25719" lon="2.35928">
        <ele>859</ele>
        <time>2022-05-21 21:45:15</time>
      </trkpt>
      <trkpt lat="42.25716" lon="2.35921">
        <ele>859</ele>
        <time>2022-05-21 21:45:16</time>
      </trkpt>
      <trkpt lat="42.25714" lon="2.35913">
        <ele>858.8</ele>
        <time>2022-05-21 21:45:17</time>
      </trkpt>
      <trkpt lat="42.25712" lon="2.35905">
        <ele>858.8</ele>
        <time>2022-05-21 21:45:18</time>
      </trkpt>
      <trkpt lat="42.25709" lon="2.35898">
        <ele>858.8</ele>
        <time>2022-05-21 21:45:19</time>
      </trkpt>
      <trkpt lat="42.25707" lon="2.3589">
        <ele>858.8</ele>
        <time>2022-05-21 21:45:20</time>
      </trkpt>
      <trkpt lat="42.25705" lon="2.35883">
        <ele>858.8</ele>
        <time>2022-05-21 21:45:21</time>
      </trkpt>
      <trkpt lat="42.25703" lon="2.35876">
        <ele>858.6</ele>
        <time>2022-05-21 21:45:22</time>
      </trkpt>
      <trkpt lat="42.257" lon="2.35868">
        <ele>858.6</ele>
        <time>2022-05-21 21:45:23</time>
      </trkpt>
      <trkpt lat="42.25698" lon="2.35861">
        <ele>858.4</ele>
        <time>2022-05-21 21:45:24</time>
      </trkpt>
      <trkpt lat="42.25696" lon="2.35854">
        <ele>858.2</ele>
        <time>2022-05-21 21:45:25</time>
      </trkpt>
      <trkpt lat="42.25694" lon="2.35846">
        <ele>858</ele>
        <time>2022-05-21 21:45:26</time>
      </trkpt>
      <trkpt lat="42.25692" lon="2.35839">
        <ele>858</ele>
        <time>2022-05-21 21:45:27</time>
      </trkpt>
      <trkpt lat="42.25689" lon="2.35832">
        <ele>858</ele>
        <time>2022-05-21 21:45:28</time>
      </trkpt>
      <trkpt lat="42.25687" lon="2.35825">
        <ele>857.8</ele>
        <time>2022-05-21 21:45:29</time>
      </trkpt>
      <trkpt lat="42.25685" lon="2.35818">
        <ele>857.8</ele>
        <time>2022-05-21 21:45:30</time>
      </trkpt>
      <trkpt lat="42.25683" lon="2.3581">
        <ele>857.8</ele>
        <time>2022-05-21 21:45:31</time>
      </trkpt>
      <trkpt lat="42.2568" lon="2.35803">
        <ele>857.8</ele>
        <time>2022-05-21 21:45:32</time>
      </trkpt>
      <trkpt lat="42.25678" lon="2.35796">
        <ele>857.8</ele>
        <time>2022-05-21 21:45:33</time>
      </trkpt>
      <trkpt lat="42.25675" lon="2.35789">
        <ele>857.8</ele>
        <time>2022-05-21 21:45:34</time>
      </trkpt>
      <trkpt lat="42.25673" lon="2.35781">
        <ele>857.6</ele>
        <time>2022-05-21 21:45:35</time>
      </trkpt>
      <trkpt lat="42.2567" lon="2.35774">
        <ele>857.6</ele>
        <time>2022-05-21 21:45:36</time>
      </trkpt>
      <trkpt lat="42.25668" lon="2.35767">
        <ele>857.4</ele>
        <time>2022-05-21 21:45:37</time>
      </trkpt>
      <trkpt lat="42.25666" lon="2.35759">
        <ele>857.4</ele>
        <time>2022-05-21 21:45:38</time>
      </trkpt>
      <trkpt lat="42.25663" lon="2.35752">
        <ele>857.4</ele>
        <time>2022-05-21 21:45:39</time>
      </trkpt>
      <trkpt lat="42.25661" lon="2.35745">
        <ele>857.4</ele>
        <time>2022-05-21 21:45:40</time>
      </trkpt>
      <trkpt lat="42.25659" lon="2.35738">
        <ele>857.2</ele>
        <time>2022-05-21 21:45:41</time>
      </trkpt>
      <trkpt lat="42.25657" lon="2.35731">
        <ele>857.2</ele>
        <time>2022-05-21 21:45:42</time>
      </trkpt>
      <trkpt lat="42.25655" lon="2.35723">
        <ele>857.2</ele>
        <time>2022-05-21 21:45:43</time>
      </trkpt>
      <trkpt lat="42.25653" lon="2.35716">
        <ele>857.2</ele>
        <time>2022-05-21 21:45:44</time>
      </trkpt>
      <trkpt lat="42.25651" lon="2.35708">
        <ele>857</ele>
        <time>2022-05-21 21:45:45</time>
      </trkpt>
      <trkpt lat="42.25649" lon="2.357">
        <ele>857</ele>
        <time>2022-05-21 21:45:46</time>
      </trkpt>
      <trkpt lat="42.25648" lon="2.35693">
        <ele>856.8</ele>
        <time>2022-05-21 21:45:47</time>
      </trkpt>
      <trkpt lat="42.25647" lon="2.35685">
        <ele>856.8</ele>
        <time>2022-05-21 21:45:48</time>
      </trkpt>
      <trkpt lat="42.25645" lon="2.35678">
        <ele>856.6</ele>
        <time>2022-05-21 21:45:49</time>
      </trkpt>
      <trkpt lat="42.25644" lon="2.3567">
        <ele>856.6</ele>
        <time>2022-05-21 21:45:50</time>
      </trkpt>
      <trkpt lat="42.25643" lon="2.35662">
        <ele>856.4</ele>
        <time>2022-05-21 21:45:51</time>
      </trkpt>
      <trkpt lat="42.25642" lon="2.35654">
        <ele>856.4</ele>
        <time>2022-05-21 21:45:52</time>
      </trkpt>
      <trkpt lat="42.2564" lon="2.35647">
        <ele>856.4</ele>
        <time>2022-05-21 21:45:53</time>
      </trkpt>
      <trkpt lat="42.25639" lon="2.35639">
        <ele>856.2</ele>
        <time>2022-05-21 21:45:54</time>
      </trkpt>
      <trkpt lat="42.25638" lon="2.35631">
        <ele>856.2</ele>
        <time>2022-05-21 21:45:55</time>
      </trkpt>
      <trkpt lat="42.25637" lon="2.35622">
        <ele>856.2</ele>
        <time>2022-05-21 21:45:56</time>
      </trkpt>
      <trkpt lat="42.25636" lon="2.35615">
        <ele>856.2</ele>
        <time>2022-05-21 21:45:57</time>
      </trkpt>
      <trkpt lat="42.25634" lon="2.35607">
        <ele>856</ele>
        <time>2022-05-21 21:45:58</time>
      </trkpt>
      <trkpt lat="42.25632" lon="2.35599">
        <ele>855.8</ele>
        <time>2022-05-21 21:45:59</time>
      </trkpt>
      <trkpt lat="42.25631" lon="2.35591">
        <ele>855.8</ele>
        <time>2022-05-21 21:46:00</time>
      </trkpt>
      <trkpt lat="42.2563" lon="2.35583">
        <ele>855.8</ele>
        <time>2022-05-21 21:46:01</time>
      </trkpt>
      <trkpt lat="42.25628" lon="2.35576">
        <ele>855.8</ele>
        <time>2022-05-21 21:46:02</time>
      </trkpt>
      <trkpt lat="42.25626" lon="2.35567">
        <ele>855.6</ele>
        <time>2022-05-21 21:46:03</time>
      </trkpt>
      <trkpt lat="42.25625" lon="2.35559">
        <ele>855.6</ele>
        <time>2022-05-21 21:46:04</time>
      </trkpt>
      <trkpt lat="42.25623" lon="2.3555">
        <ele>855.6</ele>
        <time>2022-05-21 21:46:05</time>
      </trkpt>
      <trkpt lat="42.25622" lon="2.35542">
        <ele>855.6</ele>
        <time>2022-05-21 21:46:06</time>
      </trkpt>
      <trkpt lat="42.2562" lon="2.35533">
        <ele>855.4</ele>
        <time>2022-05-21 21:46:07</time>
      </trkpt>
      <trkpt lat="42.25619" lon="2.35525">
        <ele>855.4</ele>
        <time>2022-05-21 21:46:08</time>
      </trkpt>
      <trkpt lat="42.25617" lon="2.35517">
        <ele>855.2</ele>
        <time>2022-05-21 21:46:09</time>
      </trkpt>
      <trkpt lat="42.25616" lon="2.35509">
        <ele>855</ele>
        <time>2022-05-21 21:46:10</time>
      </trkpt>
      <trkpt lat="42.25615" lon="2.35501">
        <ele>855</ele>
        <time>2022-05-21 21:46:11</time>
      </trkpt>
      <trkpt lat="42.25614" lon="2.35492">
        <ele>855</ele>
        <time>2022-05-21 21:46:12</time>
      </trkpt>
      <trkpt lat="42.25613" lon="2.35484">
        <ele>854.8</ele>
        <time>2022-05-21 21:46:13</time>
      </trkpt>
      <trkpt lat="42.25612" lon="2.35476">
        <ele>854.8</ele>
        <time>2022-05-21 21:46:14</time>
      </trkpt>
      <trkpt lat="42.2561" lon="2.35467">
        <ele>854.6</ele>
        <time>2022-05-21 21:46:15</time>
      </trkpt>
      <trkpt lat="42.25609" lon="2.35459">
        <ele>854.6</ele>
        <time>2022-05-21 21:46:16</time>
      </trkpt>
      <trkpt lat="42.25608" lon="2.35451">
        <ele>854.6</ele>
        <time>2022-05-21 21:46:17</time>
      </trkpt>
      <trkpt lat="42.25606" lon="2.35442">
        <ele>854.4</ele>
        <time>2022-05-21 21:46:18</time>
      </trkpt>
      <trkpt lat="42.25605" lon="2.35434">
        <ele>854.4</ele>
        <time>2022-05-21 21:46:19</time>
      </trkpt>
      <trkpt lat="42.25603" lon="2.35425">
        <ele>854.4</ele>
        <time>2022-05-21 21:46:20</time>
      </trkpt>
      <trkpt lat="42.25602" lon="2.35417">
        <ele>854.4</ele>
        <time>2022-05-21 21:46:21</time>
      </trkpt>
      <trkpt lat="42.25601" lon="2.35408">
        <ele>854.2</ele>
        <time>2022-05-21 21:46:22</time>
      </trkpt>
      <trkpt lat="42.25599" lon="2.354">
        <ele>854.2</ele>
        <time>2022-05-21 21:46:23</time>
      </trkpt>
      <trkpt lat="42.25598" lon="2.35391">
        <ele>854</ele>
        <time>2022-05-21 21:46:24</time>
      </trkpt>
      <trkpt lat="42.25597" lon="2.35383">
        <ele>853.8</ele>
        <time>2022-05-21 21:46:25</time>
      </trkpt>
      <trkpt lat="42.25595" lon="2.35374">
        <ele>853.6</ele>
        <time>2022-05-21 21:46:26</time>
      </trkpt>
      <trkpt lat="42.25594" lon="2.35365">
        <ele>853.6</ele>
        <time>2022-05-21 21:46:27</time>
      </trkpt>
      <trkpt lat="42.25593" lon="2.35356">
        <ele>853.6</ele>
        <time>2022-05-21 21:46:28</time>
      </trkpt>
      <trkpt lat="42.25591" lon="2.35347">
        <ele>853.6</ele>
        <time>2022-05-21 21:46:29</time>
      </trkpt>
      <trkpt lat="42.2559" lon="2.35338">
        <ele>853.6</ele>
        <time>2022-05-21 21:46:30</time>
      </trkpt>
      <trkpt lat="42.25588" lon="2.35329">
        <ele>853.6</ele>
        <time>2022-05-21 21:46:31</time>
      </trkpt>
      <trkpt lat="42.25587" lon="2.3532">
        <ele>853.4</ele>
        <time>2022-05-21 21:46:32</time>
      </trkpt>
      <trkpt lat="42.25586" lon="2.35311">
        <ele>853.2</ele>
        <time>2022-05-21 21:46:33</time>
      </trkpt>
      <trkpt lat="42.25584" lon="2.35302">
        <ele>853.2</ele>
        <time>2022-05-21 21:46:34</time>
      </trkpt>
      <trkpt lat="42.25583" lon="2.35293">
        <ele>853.2</ele>
        <time>2022-05-21 21:46:35</time>
      </trkpt>
      <trkpt lat="42.25581" lon="2.35284">
        <ele>853.2</ele>
        <time>2022-05-21 21:46:36</time>
      </trkpt>
      <trkpt lat="42.2558" lon="2.35274">
        <ele>853.2</ele>
        <time>2022-05-21 21:46:37</time>
      </trkpt>
      <trkpt lat="42.25579" lon="2.35265">
        <ele>853.2</ele>
        <time>2022-05-21 21:46:38</time>
      </trkpt>
      <trkpt lat="42.25578" lon="2.35256">
        <ele>853</ele>
        <time>2022-05-21 21:46:39</time>
      </trkpt>
      <trkpt lat="42.25576" lon="2.35246">
        <ele>853</ele>
        <time>2022-05-21 21:46:40</time>
      </trkpt>
      <trkpt lat="42.25575" lon="2.35237">
        <ele>852.8</ele>
        <time>2022-05-21 21:46:41</time>
      </trkpt>
      <trkpt lat="42.25574" lon="2.35228">
        <ele>852.6</ele>
        <time>2022-05-21 21:46:42</time>
      </trkpt>
      <trkpt lat="42.25573" lon="2.35218">
        <ele>852.4</ele>
        <time>2022-05-21 21:46:43</time>
      </trkpt>
      <trkpt lat="42.25571" lon="2.35208">
        <ele>852.2</ele>
        <time>2022-05-21 21:46:44</time>
      </trkpt>
      <trkpt lat="42.2557" lon="2.35199">
        <ele>852</ele>
        <time>2022-05-21 21:46:45</time>
      </trkpt>
      <trkpt lat="42.25568" lon="2.35189">
        <ele>851.8</ele>
        <time>2022-05-21 21:46:46</time>
      </trkpt>
      <trkpt lat="42.25567" lon="2.3518">
        <ele>851.6</ele>
        <time>2022-05-21 21:46:47</time>
      </trkpt>
      <trkpt lat="42.25565" lon="2.3517">
        <ele>851.4</ele>
        <time>2022-05-21 21:46:48</time>
      </trkpt>
      <trkpt lat="42.25564" lon="2.35161">
        <ele>851.2</ele>
        <time>2022-05-21 21:46:49</time>
      </trkpt>
      <trkpt lat="42.25562" lon="2.35151">
        <ele>851</ele>
        <time>2022-05-21 21:46:50</time>
      </trkpt>
      <trkpt lat="42.25561" lon="2.35141">
        <ele>851</ele>
        <time>2022-05-21 21:46:51</time>
      </trkpt>
      <trkpt lat="42.25559" lon="2.35132">
        <ele>850.8</ele>
        <time>2022-05-21 21:46:52</time>
      </trkpt>
      <trkpt lat="42.25557" lon="2.35123">
        <ele>850.6</ele>
        <time>2022-05-21 21:46:53</time>
      </trkpt>
      <trkpt lat="42.25556" lon="2.35112">
        <ele>850.4</ele>
        <time>2022-05-21 21:46:54</time>
      </trkpt>
      <trkpt lat="42.25554" lon="2.35103">
        <ele>850.2</ele>
        <time>2022-05-21 21:46:55</time>
      </trkpt>
      <trkpt lat="42.25553" lon="2.35092">
        <ele>850</ele>
        <time>2022-05-21 21:46:56</time>
      </trkpt>
      <trkpt lat="42.25551" lon="2.35082">
        <ele>849.8</ele>
        <time>2022-05-21 21:46:57</time>
      </trkpt>
      <trkpt lat="42.25549" lon="2.35072">
        <ele>849.6</ele>
        <time>2022-05-21 21:46:58</time>
      </trkpt>
      <trkpt lat="42.25547" lon="2.35062">
        <ele>849.4</ele>
        <time>2022-05-21 21:46:59</time>
      </trkpt>
      <trkpt lat="42.25546" lon="2.35052">
        <ele>849.2</ele>
        <time>2022-05-21 21:47:00</time>
      </trkpt>
      <trkpt lat="42.25544" lon="2.35042">
        <ele>849</ele>
        <time>2022-05-21 21:47:01</time>
      </trkpt>
      <trkpt lat="42.25542" lon="2.35033">
        <ele>848.8</ele>
        <time>2022-05-21 21:47:02</time>
      </trkpt>
      <trkpt lat="42.2554" lon="2.35023">
        <ele>848.6</ele>
        <time>2022-05-21 21:47:03</time>
      </trkpt>
      <trkpt lat="42.25538" lon="2.35013">
        <ele>848.4</ele>
        <time>2022-05-21 21:47:04</time>
      </trkpt>
      <trkpt lat="42.25535" lon="2.35004">
        <ele>848.2</ele>
        <time>2022-05-21 21:47:05</time>
      </trkpt>
      <trkpt lat="42.25532" lon="2.34995">
        <ele>848</ele>
        <time>2022-05-21 21:47:06</time>
      </trkpt>
      <trkpt lat="42.25529" lon="2.34985">
        <ele>847.6</ele>
        <time>2022-05-21 21:47:07</time>
      </trkpt>
      <trkpt lat="42.25525" lon="2.34977">
        <ele>847.4</ele>
        <time>2022-05-21 21:47:08</time>
      </trkpt>
      <trkpt lat="42.25522" lon="2.34968">
        <ele>847.2</ele>
        <time>2022-05-21 21:47:09</time>
      </trkpt>
      <trkpt lat="42.25518" lon="2.34957">
        <ele>846.8</ele>
        <time>2022-05-21 21:47:10</time>
      </trkpt>
      <trkpt lat="42.25514" lon="2.34947">
        <ele>846.6</ele>
        <time>2022-05-21 21:47:11</time>
      </trkpt>
      <trkpt lat="42.25511" lon="2.34937">
        <ele>846.2</ele>
        <time>2022-05-21 21:47:12</time>
      </trkpt>
      <trkpt lat="42.25507" lon="2.34928">
        <ele>846</ele>
        <time>2022-05-21 21:47:13</time>
      </trkpt>
      <trkpt lat="42.25503" lon="2.34918">
        <ele>845.8</ele>
        <time>2022-05-21 21:47:14</time>
      </trkpt>
      <trkpt lat="42.25499" lon="2.34908">
        <ele>845.6</ele>
        <time>2022-05-21 21:47:15</time>
      </trkpt>
      <trkpt lat="42.25496" lon="2.34898">
        <ele>845.4</ele>
        <time>2022-05-21 21:47:16</time>
      </trkpt>
      <trkpt lat="42.25492" lon="2.34888">
        <ele>845.2</ele>
        <time>2022-05-21 21:47:17</time>
      </trkpt>
      <trkpt lat="42.25488" lon="2.34879">
        <ele>845</ele>
        <time>2022-05-21 21:47:18</time>
      </trkpt>
      <trkpt lat="42.25484" lon="2.34869">
        <ele>844.6</ele>
        <time>2022-05-21 21:47:19</time>
      </trkpt>
      <trkpt lat="42.2548" lon="2.34859">
        <ele>844.4</ele>
        <time>2022-05-21 21:47:20</time>
      </trkpt>
      <trkpt lat="42.25476" lon="2.34849">
        <ele>844.2</ele>
        <time>2022-05-21 21:47:21</time>
      </trkpt>
      <trkpt lat="42.25472" lon="2.34839">
        <ele>844</ele>
        <time>2022-05-21 21:47:22</time>
      </trkpt>
      <trkpt lat="42.25469" lon="2.34829">
        <ele>843.8</ele>
        <time>2022-05-21 21:47:23</time>
      </trkpt>
      <trkpt lat="42.25465" lon="2.34819">
        <ele>843.6</ele>
        <time>2022-05-21 21:47:24</time>
      </trkpt>
      <trkpt lat="42.25461" lon="2.34809">
        <ele>843.2</ele>
        <time>2022-05-21 21:47:25</time>
      </trkpt>
      <trkpt lat="42.25457" lon="2.34799">
        <ele>843</ele>
        <time>2022-05-21 21:47:26</time>
      </trkpt>
      <trkpt lat="42.25453" lon="2.34789">
        <ele>842.8</ele>
        <time>2022-05-21 21:47:27</time>
      </trkpt>
      <trkpt lat="42.25449" lon="2.34779">
        <ele>842.4</ele>
        <time>2022-05-21 21:47:28</time>
      </trkpt>
      <trkpt lat="42.25445" lon="2.34769">
        <ele>842.2</ele>
        <time>2022-05-21 21:47:29</time>
      </trkpt>
      <trkpt lat="42.25441" lon="2.34758">
        <ele>842.2</ele>
        <time>2022-05-21 21:47:30</time>
      </trkpt>
      <trkpt lat="42.25437" lon="2.34748">
        <ele>842</ele>
        <time>2022-05-21 21:47:31</time>
      </trkpt>
      <trkpt lat="42.25433" lon="2.34738">
        <ele>841.6</ele>
        <time>2022-05-21 21:47:32</time>
      </trkpt>
      <trkpt lat="42.25429" lon="2.34728">
        <ele>841.2</ele>
        <time>2022-05-21 21:47:33</time>
      </trkpt>
      <trkpt lat="42.25424" lon="2.34718">
        <ele>841</ele>
        <time>2022-05-21 21:47:34</time>
      </trkpt>
      <trkpt lat="42.2542" lon="2.34707">
        <ele>840.8</ele>
        <time>2022-05-21 21:47:35</time>
      </trkpt>
      <trkpt lat="42.25416" lon="2.34697">
        <ele>840.6</ele>
        <time>2022-05-21 21:47:36</time>
      </trkpt>
      <trkpt lat="42.25412" lon="2.34688">
        <ele>840.4</ele>
        <time>2022-05-21 21:47:37</time>
      </trkpt>
      <trkpt lat="42.25409" lon="2.34678">
        <ele>840.4</ele>
        <time>2022-05-21 21:47:38</time>
      </trkpt>
      <trkpt lat="42.25405" lon="2.34669">
        <ele>840.2</ele>
        <time>2022-05-21 21:47:39</time>
      </trkpt>
      <trkpt lat="42.25401" lon="2.34659">
        <ele>840.2</ele>
        <time>2022-05-21 21:47:40</time>
      </trkpt>
      <trkpt lat="42.25398" lon="2.3465">
        <ele>840.2</ele>
        <time>2022-05-21 21:47:41</time>
      </trkpt>
      <trkpt lat="42.25395" lon="2.34641">
        <ele>840.4</ele>
        <time>2022-05-21 21:47:42</time>
      </trkpt>
      <trkpt lat="42.25392" lon="2.34632">
        <ele>840.4</ele>
        <time>2022-05-21 21:47:43</time>
      </trkpt>
      <trkpt lat="42.25388" lon="2.34624">
        <ele>840.4</ele>
        <time>2022-05-21 21:47:44</time>
      </trkpt>
      <trkpt lat="42.25385" lon="2.34616">
        <ele>840.6</ele>
        <time>2022-05-21 21:47:45</time>
      </trkpt>
      <trkpt lat="42.25382" lon="2.34607">
        <ele>840.6</ele>
        <time>2022-05-21 21:47:46</time>
      </trkpt>
      <trkpt lat="42.25379" lon="2.34599">
        <ele>840.8</ele>
        <time>2022-05-21 21:47:47</time>
      </trkpt>
      <trkpt lat="42.25376" lon="2.34591">
        <ele>840.8</ele>
        <time>2022-05-21 21:47:48</time>
      </trkpt>
      <trkpt lat="42.25374" lon="2.34584">
        <ele>841</ele>
        <time>2022-05-21 21:47:49</time>
      </trkpt>
      <trkpt lat="42.25371" lon="2.34576">
        <ele>841</ele>
        <time>2022-05-21 21:47:50</time>
      </trkpt>
      <trkpt lat="42.25368" lon="2.34568">
        <ele>841</ele>
        <time>2022-05-21 21:47:51</time>
      </trkpt>
      <trkpt lat="42.25366" lon="2.3456">
        <ele>841.2</ele>
        <time>2022-05-21 21:47:52</time>
      </trkpt>
      <trkpt lat="42.25364" lon="2.34552">
        <ele>841.2</ele>
        <time>2022-05-21 21:47:53</time>
      </trkpt>
      <trkpt lat="42.25363" lon="2.34544">
        <ele>841.2</ele>
        <time>2022-05-21 21:47:54</time>
      </trkpt>
      <trkpt lat="42.25362" lon="2.34535">
        <ele>841.2</ele>
        <time>2022-05-21 21:47:55</time>
      </trkpt>
      <trkpt lat="42.25361" lon="2.34527">
        <ele>841.2</ele>
        <time>2022-05-21 21:47:56</time>
      </trkpt>
      <trkpt lat="42.2536" lon="2.34519">
        <ele>841.2</ele>
        <time>2022-05-21 21:47:57</time>
      </trkpt>
      <trkpt lat="42.2536" lon="2.3451">
        <ele>841.4</ele>
        <time>2022-05-21 21:47:58</time>
      </trkpt>
      <trkpt lat="42.2536" lon="2.34502">
        <ele>841.4</ele>
        <time>2022-05-21 21:47:59</time>
      </trkpt>
      <trkpt lat="42.2536" lon="2.34494">
        <ele>841.4</ele>
        <time>2022-05-21 21:48:00</time>
      </trkpt>
      <trkpt lat="42.2536" lon="2.34485">
        <ele>841.4</ele>
        <time>2022-05-21 21:48:01</time>
      </trkpt>
      <trkpt lat="42.25359" lon="2.34477">
        <ele>841.4</ele>
        <time>2022-05-21 21:48:02</time>
      </trkpt>
      <trkpt lat="42.25359" lon="2.34469">
        <ele>841.4</ele>
        <time>2022-05-21 21:48:03</time>
      </trkpt>
      <trkpt lat="42.25359" lon="2.3446">
        <ele>841.4</ele>
        <time>2022-05-21 21:48:04</time>
      </trkpt>
      <trkpt lat="42.25359" lon="2.34452">
        <ele>841.2</ele>
        <time>2022-05-21 21:48:05</time>
      </trkpt>
      <trkpt lat="42.25359" lon="2.34444">
        <ele>841.2</ele>
        <time>2022-05-21 21:48:06</time>
      </trkpt>
      <trkpt lat="42.25359" lon="2.34435">
        <ele>841.2</ele>
        <time>2022-05-21 21:48:07</time>
      </trkpt>
      <trkpt lat="42.25359" lon="2.34427">
        <ele>841</ele>
        <time>2022-05-21 21:48:08</time>
      </trkpt>
      <trkpt lat="42.25358" lon="2.34418">
        <ele>841</ele>
        <time>2022-05-21 21:48:09</time>
      </trkpt>
      <trkpt lat="42.25358" lon="2.3441">
        <ele>840.8</ele>
        <time>2022-05-21 21:48:10</time>
      </trkpt>
      <trkpt lat="42.25358" lon="2.34401">
        <ele>840.8</ele>
        <time>2022-05-21 21:48:11</time>
      </trkpt>
      <trkpt lat="42.25358" lon="2.34392">
        <ele>840.6</ele>
        <time>2022-05-21 21:48:12</time>
      </trkpt>
      <trkpt lat="42.25358" lon="2.34384">
        <ele>840.6</ele>
        <time>2022-05-21 21:48:13</time>
      </trkpt>
      <trkpt lat="42.25358" lon="2.34375">
        <ele>840.4</ele>
        <time>2022-05-21 21:48:14</time>
      </trkpt>
      <trkpt lat="42.25358" lon="2.34366">
        <ele>840.4</ele>
        <time>2022-05-21 21:48:15</time>
      </trkpt>
      <trkpt lat="42.25358" lon="2.34357">
        <ele>840.2</ele>
        <time>2022-05-21 21:48:16</time>
      </trkpt>
      <trkpt lat="42.25358" lon="2.34349">
        <ele>840.2</ele>
        <time>2022-05-21 21:48:17</time>
      </trkpt>
      <trkpt lat="42.25358" lon="2.3434">
        <ele>840</ele>
        <time>2022-05-21 21:48:18</time>
      </trkpt>
      <trkpt lat="42.25358" lon="2.34331">
        <ele>840</ele>
        <time>2022-05-21 21:48:19</time>
      </trkpt>
      <trkpt lat="42.25358" lon="2.34323">
        <ele>840</ele>
        <time>2022-05-21 21:48:20</time>
      </trkpt>
      <trkpt lat="42.25358" lon="2.34314">
        <ele>839.8</ele>
        <time>2022-05-21 21:48:21</time>
      </trkpt>
      <trkpt lat="42.25358" lon="2.34305">
        <ele>839.8</ele>
        <time>2022-05-21 21:48:22</time>
      </trkpt>
      <trkpt lat="42.25358" lon="2.34297">
        <ele>839.8</ele>
        <time>2022-05-21 21:48:23</time>
      </trkpt>
      <trkpt lat="42.25357" lon="2.34288">
        <ele>839.6</ele>
        <time>2022-05-21 21:48:24</time>
      </trkpt>
      <trkpt lat="42.25357" lon="2.3428">
        <ele>839.6</ele>
        <time>2022-05-21 21:48:25</time>
      </trkpt>
      <trkpt lat="42.25357" lon="2.34271">
        <ele>839.6</ele>
        <time>2022-05-21 21:48:26</time>
      </trkpt>
      <trkpt lat="42.25357" lon="2.34262">
        <ele>839.4</ele>
        <time>2022-05-21 21:48:27</time>
      </trkpt>
      <trkpt lat="42.25357" lon="2.34253">
        <ele>839.4</ele>
        <time>2022-05-21 21:48:28</time>
      </trkpt>
      <trkpt lat="42.25357" lon="2.34244">
        <ele>839.4</ele>
        <time>2022-05-21 21:48:29</time>
      </trkpt>
      <trkpt lat="42.25357" lon="2.34235">
        <ele>839.2</ele>
        <time>2022-05-21 21:48:30</time>
      </trkpt>
      <trkpt lat="42.25357" lon="2.34226">
        <ele>839.2</ele>
        <time>2022-05-21 21:48:31</time>
      </trkpt>
      <trkpt lat="42.25357" lon="2.34217">
        <ele>839.2</ele>
        <time>2022-05-21 21:48:32</time>
      </trkpt>
      <trkpt lat="42.25357" lon="2.34209">
        <ele>839</ele>
        <time>2022-05-21 21:48:33</time>
      </trkpt>
      <trkpt lat="42.25357" lon="2.342">
        <ele>839</ele>
        <time>2022-05-21 21:48:34</time>
      </trkpt>
      <trkpt lat="42.25357" lon="2.34191">
        <ele>839</ele>
        <time>2022-05-21 21:48:35</time>
      </trkpt>
      <trkpt lat="42.25356" lon="2.34183">
        <ele>839</ele>
        <time>2022-05-21 21:48:36</time>
      </trkpt>
      <trkpt lat="42.25356" lon="2.34174">
        <ele>839</ele>
        <time>2022-05-21 21:48:37</time>
      </trkpt>
      <trkpt lat="42.25356" lon="2.34165">
        <ele>839</ele>
        <time>2022-05-21 21:48:38</time>
      </trkpt>
      <trkpt lat="42.25355" lon="2.34156">
        <ele>838.8</ele>
        <time>2022-05-21 21:48:39</time>
      </trkpt>
      <trkpt lat="42.25354" lon="2.34148">
        <ele>838.8</ele>
        <time>2022-05-21 21:48:40</time>
      </trkpt>
      <trkpt lat="42.25353" lon="2.34139">
        <ele>838.8</ele>
        <time>2022-05-21 21:48:41</time>
      </trkpt>
      <trkpt lat="42.25352" lon="2.3413">
        <ele>838.6</ele>
        <time>2022-05-21 21:48:42</time>
      </trkpt>
      <trkpt lat="42.2535" lon="2.34121">
        <ele>838.6</ele>
        <time>2022-05-21 21:48:43</time>
      </trkpt>
      <trkpt lat="42.25349" lon="2.34112">
        <ele>838.4</ele>
        <time>2022-05-21 21:48:44</time>
      </trkpt>
      <trkpt lat="42.25347" lon="2.34104">
        <ele>838.4</ele>
        <time>2022-05-21 21:48:45</time>
      </trkpt>
      <trkpt lat="42.25346" lon="2.34095">
        <ele>838.4</ele>
        <time>2022-05-21 21:48:46</time>
      </trkpt>
      <trkpt lat="42.25344" lon="2.34086">
        <ele>838.4</ele>
        <time>2022-05-21 21:48:47</time>
      </trkpt>
      <trkpt lat="42.25343" lon="2.34078">
        <ele>838.2</ele>
        <time>2022-05-21 21:48:48</time>
      </trkpt>
      <trkpt lat="42.25342" lon="2.3407">
        <ele>838.2</ele>
        <time>2022-05-21 21:48:49</time>
      </trkpt>
      <trkpt lat="42.2534" lon="2.34059">
        <ele>838</ele>
        <time>2022-05-21 21:48:50</time>
      </trkpt>
      <trkpt lat="42.25339" lon="2.3405">
        <ele>838</ele>
        <time>2022-05-21 21:48:51</time>
      </trkpt>
      <trkpt lat="42.25337" lon="2.34041">
        <ele>838</ele>
        <time>2022-05-21 21:48:52</time>
      </trkpt>
      <trkpt lat="42.25336" lon="2.34032">
        <ele>838</ele>
        <time>2022-05-21 21:48:53</time>
      </trkpt>
      <trkpt lat="42.25334" lon="2.34023">
        <ele>838</ele>
        <time>2022-05-21 21:48:54</time>
      </trkpt>
      <trkpt lat="42.25333" lon="2.34014">
        <ele>838</ele>
        <time>2022-05-21 21:48:55</time>
      </trkpt>
      <trkpt lat="42.25331" lon="2.34005">
        <ele>837.8</ele>
        <time>2022-05-21 21:48:56</time>
      </trkpt>
      <trkpt lat="42.2533" lon="2.33998">
        <ele>837.8</ele>
        <time>2022-05-21 21:48:57</time>
      </trkpt>
      <trkpt lat="42.25329" lon="2.33993">
        <ele>837.8</ele>
        <time>2022-05-21 21:48:58</time>
      </trkpt>
      <trkpt lat="42.25327" lon="2.33979">
        <ele>837.8</ele>
        <time>2022-05-21 21:48:59</time>
      </trkpt>
      <trkpt lat="42.25325" lon="2.3397">
        <ele>837.8</ele>
        <time>2022-05-21 21:49:00</time>
      </trkpt>
      <trkpt lat="42.25323" lon="2.33961">
        <ele>837.6</ele>
        <time>2022-05-21 21:49:01</time>
      </trkpt>
      <trkpt lat="42.25322" lon="2.33952">
        <ele>837.6</ele>
        <time>2022-05-21 21:49:02</time>
      </trkpt>
      <trkpt lat="42.2532" lon="2.33944">
        <ele>837.4</ele>
        <time>2022-05-21 21:49:03</time>
      </trkpt>
      <trkpt lat="42.25317" lon="2.33936">
        <ele>837.4</ele>
        <time>2022-05-21 21:49:04</time>
      </trkpt>
      <trkpt lat="42.25315" lon="2.33928">
        <ele>837.2</ele>
        <time>2022-05-21 21:49:05</time>
      </trkpt>
      <trkpt lat="42.25312" lon="2.33919">
        <ele>837</ele>
        <time>2022-05-21 21:49:06</time>
      </trkpt>
      <trkpt lat="42.25308" lon="2.33911">
        <ele>837</ele>
        <time>2022-05-21 21:49:07</time>
      </trkpt>
      <trkpt lat="42.25305" lon="2.33903">
        <ele>836.8</ele>
        <time>2022-05-21 21:49:08</time>
      </trkpt>
      <trkpt lat="42.25302" lon="2.33896">
        <ele>836.6</ele>
        <time>2022-05-21 21:49:09</time>
      </trkpt>
      <trkpt lat="42.25298" lon="2.33887">
        <ele>836.6</ele>
        <time>2022-05-21 21:49:10</time>
      </trkpt>
      <trkpt lat="42.25295" lon="2.33879">
        <ele>836.4</ele>
        <time>2022-05-21 21:49:11</time>
      </trkpt>
      <trkpt lat="42.25291" lon="2.33871">
        <ele>836.2</ele>
        <time>2022-05-21 21:49:12</time>
      </trkpt>
      <trkpt lat="42.25288" lon="2.33863">
        <ele>836</ele>
        <time>2022-05-21 21:49:13</time>
      </trkpt>
      <trkpt lat="42.25285" lon="2.33855">
        <ele>836</ele>
        <time>2022-05-21 21:49:14</time>
      </trkpt>
      <trkpt lat="42.25282" lon="2.33847">
        <ele>835.8</ele>
        <time>2022-05-21 21:49:15</time>
      </trkpt>
      <trkpt lat="42.25279" lon="2.33838">
        <ele>835.6</ele>
        <time>2022-05-21 21:49:16</time>
      </trkpt>
      <trkpt lat="42.25275" lon="2.3383">
        <ele>835.4</ele>
        <time>2022-05-21 21:49:17</time>
      </trkpt>
      <trkpt lat="42.25272" lon="2.33822">
        <ele>835.2</ele>
        <time>2022-05-21 21:49:18</time>
      </trkpt>
      <trkpt lat="42.25268" lon="2.33815">
        <ele>835</ele>
        <time>2022-05-21 21:49:19</time>
      </trkpt>
      <trkpt lat="42.25265" lon="2.33807">
        <ele>834.8</ele>
        <time>2022-05-21 21:49:20</time>
      </trkpt>
      <trkpt lat="42.25261" lon="2.338">
        <ele>834.6</ele>
        <time>2022-05-21 21:49:21</time>
      </trkpt>
      <trkpt lat="42.25258" lon="2.3379">
        <ele>834.6</ele>
        <time>2022-05-21 21:49:22</time>
      </trkpt>
      <trkpt lat="42.25254" lon="2.33782">
        <ele>834.4</ele>
        <time>2022-05-21 21:49:23</time>
      </trkpt>
      <trkpt lat="42.2525" lon="2.33773">
        <ele>834.2</ele>
        <time>2022-05-21 21:49:24</time>
      </trkpt>
      <trkpt lat="42.25246" lon="2.33765">
        <ele>833.8</ele>
        <time>2022-05-21 21:49:25</time>
      </trkpt>
      <trkpt lat="42.25241" lon="2.33756">
        <ele>833.6</ele>
        <time>2022-05-21 21:49:26</time>
      </trkpt>
      <trkpt lat="42.25237" lon="2.33748">
        <ele>833.4</ele>
        <time>2022-05-21 21:49:27</time>
      </trkpt>
      <trkpt lat="42.25233" lon="2.33739">
        <ele>833.2</ele>
        <time>2022-05-21 21:49:28</time>
      </trkpt>
      <trkpt lat="42.25229" lon="2.3373">
        <ele>833</ele>
        <time>2022-05-21 21:49:29</time>
      </trkpt>
      <trkpt lat="42.25225" lon="2.33721">
        <ele>832.8</ele>
        <time>2022-05-21 21:49:30</time>
      </trkpt>
      <trkpt lat="42.25221" lon="2.33713">
        <ele>832.6</ele>
        <time>2022-05-21 21:49:31</time>
      </trkpt>
      <trkpt lat="42.25216" lon="2.33704">
        <ele>832.4</ele>
        <time>2022-05-21 21:49:32</time>
      </trkpt>
      <trkpt lat="42.25212" lon="2.33696">
        <ele>832.2</ele>
        <time>2022-05-21 21:49:33</time>
      </trkpt>
      <trkpt lat="42.25208" lon="2.33687">
        <ele>832</ele>
        <time>2022-05-21 21:49:34</time>
      </trkpt>
      <trkpt lat="42.25204" lon="2.33679">
        <ele>832</ele>
        <time>2022-05-21 21:49:35</time>
      </trkpt>
      <trkpt lat="42.252" lon="2.3367">
        <ele>831.8</ele>
        <time>2022-05-21 21:49:36</time>
      </trkpt>
      <trkpt lat="42.25196" lon="2.33662">
        <ele>831.6</ele>
        <time>2022-05-21 21:49:37</time>
      </trkpt>
      <trkpt lat="42.25192" lon="2.33653">
        <ele>831.4</ele>
        <time>2022-05-21 21:49:38</time>
      </trkpt>
      <trkpt lat="42.25188" lon="2.33645">
        <ele>831.4</ele>
        <time>2022-05-21 21:49:39</time>
      </trkpt>
      <trkpt lat="42.25184" lon="2.33636">
        <ele>831.2</ele>
        <time>2022-05-21 21:49:40</time>
      </trkpt>
      <trkpt lat="42.2518" lon="2.33628">
        <ele>831</ele>
        <time>2022-05-21 21:49:41</time>
      </trkpt>
      <trkpt lat="42.25176" lon="2.3362">
        <ele>830.8</ele>
        <time>2022-05-21 21:49:42</time>
      </trkpt>
      <trkpt lat="42.25172" lon="2.33612">
        <ele>830.6</ele>
        <time>2022-05-21 21:49:43</time>
      </trkpt>
      <trkpt lat="42.25168" lon="2.33603">
        <ele>830.4</ele>
        <time>2022-05-21 21:49:44</time>
      </trkpt>
      <trkpt lat="42.25164" lon="2.33595">
        <ele>830.4</ele>
        <time>2022-05-21 21:49:45</time>
      </trkpt>
      <trkpt lat="42.2516" lon="2.33586">
        <ele>830.2</ele>
        <time>2022-05-21 21:49:46</time>
      </trkpt>
      <trkpt lat="42.25156" lon="2.33577">
        <ele>830</ele>
        <time>2022-05-21 21:49:47</time>
      </trkpt>
      <trkpt lat="42.25152" lon="2.33568">
        <ele>829.8</ele>
        <time>2022-05-21 21:49:48</time>
      </trkpt>
      <trkpt lat="42.25148" lon="2.3356">
        <ele>829.8</ele>
        <time>2022-05-21 21:49:49</time>
      </trkpt>
      <trkpt lat="42.25144" lon="2.33551">
        <ele>829.6</ele>
        <time>2022-05-21 21:49:50</time>
      </trkpt>
      <trkpt lat="42.25141" lon="2.33543">
        <ele>829.4</ele>
        <time>2022-05-21 21:49:51</time>
      </trkpt>
      <trkpt lat="42.25137" lon="2.33534">
        <ele>829.4</ele>
        <time>2022-05-21 21:49:52</time>
      </trkpt>
      <trkpt lat="42.25133" lon="2.33526">
        <ele>829.2</ele>
        <time>2022-05-21 21:49:53</time>
      </trkpt>
      <trkpt lat="42.25129" lon="2.33517">
        <ele>829.2</ele>
        <time>2022-05-21 21:49:54</time>
      </trkpt>
      <trkpt lat="42.25125" lon="2.33508">
        <ele>829</ele>
        <time>2022-05-21 21:49:55</time>
      </trkpt>
      <trkpt lat="42.25121" lon="2.33499">
        <ele>828.8</ele>
        <time>2022-05-21 21:49:56</time>
      </trkpt>
      <trkpt lat="42.25117" lon="2.33491">
        <ele>828.8</ele>
        <time>2022-05-21 21:49:57</time>
      </trkpt>
      <trkpt lat="42.25113" lon="2.33481">
        <ele>828.6</ele>
        <time>2022-05-21 21:49:58</time>
      </trkpt>
      <trkpt lat="42.25109" lon="2.33472">
        <ele>828.6</ele>
        <time>2022-05-21 21:49:59</time>
      </trkpt>
      <trkpt lat="42.25105" lon="2.33463">
        <ele>828.4</ele>
        <time>2022-05-21 21:50:00</time>
      </trkpt>
      <trkpt lat="42.25101" lon="2.33454">
        <ele>828.2</ele>
        <time>2022-05-21 21:50:01</time>
      </trkpt>
      <trkpt lat="42.25097" lon="2.33445">
        <ele>828.2</ele>
        <time>2022-05-21 21:50:02</time>
      </trkpt>
      <trkpt lat="42.25093" lon="2.33437">
        <ele>828</ele>
        <time>2022-05-21 21:50:03</time>
      </trkpt>
      <trkpt lat="42.25089" lon="2.33428">
        <ele>827.8</ele>
        <time>2022-05-21 21:50:04</time>
      </trkpt>
      <trkpt lat="42.25085" lon="2.33419">
        <ele>827.8</ele>
        <time>2022-05-21 21:50:05</time>
      </trkpt>
      <trkpt lat="42.25081" lon="2.33411">
        <ele>827.6</ele>
        <time>2022-05-21 21:50:06</time>
      </trkpt>
      <trkpt lat="42.25077" lon="2.33402">
        <ele>827.4</ele>
        <time>2022-05-21 21:50:07</time>
      </trkpt>
      <trkpt lat="42.25073" lon="2.33394">
        <ele>827.2</ele>
        <time>2022-05-21 21:50:08</time>
      </trkpt>
      <trkpt lat="42.25069" lon="2.33385">
        <ele>827.2</ele>
        <time>2022-05-21 21:50:09</time>
      </trkpt>
      <trkpt lat="42.25065" lon="2.33377">
        <ele>827</ele>
        <time>2022-05-21 21:50:10</time>
      </trkpt>
      <trkpt lat="42.25061" lon="2.33368">
        <ele>827</ele>
        <time>2022-05-21 21:50:11</time>
      </trkpt>
      <trkpt lat="42.25057" lon="2.33359">
        <ele>826.8</ele>
        <time>2022-05-21 21:50:12</time>
      </trkpt>
      <trkpt lat="42.25053" lon="2.33351">
        <ele>826.6</ele>
        <time>2022-05-21 21:50:13</time>
      </trkpt>
      <trkpt lat="42.25049" lon="2.33341">
        <ele>826.6</ele>
        <time>2022-05-21 21:50:14</time>
      </trkpt>
      <trkpt lat="42.25045" lon="2.33333">
        <ele>826.4</ele>
        <time>2022-05-21 21:50:15</time>
      </trkpt>
      <trkpt lat="42.25041" lon="2.33324">
        <ele>826.2</ele>
        <time>2022-05-21 21:50:16</time>
      </trkpt>
      <trkpt lat="42.25037" lon="2.33315">
        <ele>826</ele>
        <time>2022-05-21 21:50:17</time>
      </trkpt>
      <trkpt lat="42.25033" lon="2.33306">
        <ele>826</ele>
        <time>2022-05-21 21:50:18</time>
      </trkpt>
      <trkpt lat="42.25029" lon="2.33298">
        <ele>825.8</ele>
        <time>2022-05-21 21:50:19</time>
      </trkpt>
      <trkpt lat="42.25025" lon="2.33289">
        <ele>825.8</ele>
        <time>2022-05-21 21:50:20</time>
      </trkpt>
      <trkpt lat="42.25021" lon="2.33281">
        <ele>825.6</ele>
        <time>2022-05-21 21:50:21</time>
      </trkpt>
      <trkpt lat="42.25016" lon="2.33272">
        <ele>825.4</ele>
        <time>2022-05-21 21:50:22</time>
      </trkpt>
      <trkpt lat="42.25012" lon="2.33265">
        <ele>825.4</ele>
        <time>2022-05-21 21:50:23</time>
      </trkpt>
      <trkpt lat="42.25007" lon="2.33257">
        <ele>825.2</ele>
        <time>2022-05-21 21:50:24</time>
      </trkpt>
      <trkpt lat="42.25002" lon="2.33249">
        <ele>825.2</ele>
        <time>2022-05-21 21:50:25</time>
      </trkpt>
      <trkpt lat="42.24996" lon="2.33241">
        <ele>825</ele>
        <time>2022-05-21 21:50:26</time>
      </trkpt>
      <trkpt lat="42.24991" lon="2.33234">
        <ele>825</ele>
        <time>2022-05-21 21:50:27</time>
      </trkpt>
      <trkpt lat="42.24986" lon="2.33227">
        <ele>824.8</ele>
        <time>2022-05-21 21:50:28</time>
      </trkpt>
      <trkpt lat="42.2498" lon="2.3322">
        <ele>824.8</ele>
        <time>2022-05-21 21:50:29</time>
      </trkpt>
      <trkpt lat="42.24974" lon="2.33214">
        <ele>824.6</ele>
        <time>2022-05-21 21:50:30</time>
      </trkpt>
      <trkpt lat="42.24969" lon="2.33207">
        <ele>824.6</ele>
        <time>2022-05-21 21:50:31</time>
      </trkpt>
      <trkpt lat="42.24963" lon="2.332">
        <ele>824.6</ele>
        <time>2022-05-21 21:50:32</time>
      </trkpt>
      <trkpt lat="42.24958" lon="2.33194">
        <ele>824.4</ele>
        <time>2022-05-21 21:50:33</time>
      </trkpt>
      <trkpt lat="42.24952" lon="2.33187">
        <ele>824.4</ele>
        <time>2022-05-21 21:50:34</time>
      </trkpt>
      <trkpt lat="42.24947" lon="2.33181">
        <ele>824.4</ele>
        <time>2022-05-21 21:50:35</time>
      </trkpt>
      <trkpt lat="42.24941" lon="2.33174">
        <ele>824.2</ele>
        <time>2022-05-21 21:50:36</time>
      </trkpt>
      <trkpt lat="42.24936" lon="2.33168">
        <ele>824.2</ele>
        <time>2022-05-21 21:50:37</time>
      </trkpt>
      <trkpt lat="42.2493" lon="2.33162">
        <ele>824</ele>
        <time>2022-05-21 21:50:38</time>
      </trkpt>
      <trkpt lat="42.24925" lon="2.33156">
        <ele>823.8</ele>
        <time>2022-05-21 21:50:39</time>
      </trkpt>
      <trkpt lat="42.24919" lon="2.33149">
        <ele>823.8</ele>
        <time>2022-05-21 21:50:40</time>
      </trkpt>
      <trkpt lat="42.24914" lon="2.33143">
        <ele>823.8</ele>
        <time>2022-05-21 21:50:41</time>
      </trkpt>
      <trkpt lat="42.24909" lon="2.33137">
        <ele>823.8</ele>
        <time>2022-05-21 21:50:42</time>
      </trkpt>
      <trkpt lat="42.24904" lon="2.33131">
        <ele>823.8</ele>
        <time>2022-05-21 21:50:43</time>
      </trkpt>
      <trkpt lat="42.24898" lon="2.33125">
        <ele>823.8</ele>
        <time>2022-05-21 21:50:44</time>
      </trkpt>
      <trkpt lat="42.24892" lon="2.33119">
        <ele>823.8</ele>
        <time>2022-05-21 21:50:45</time>
      </trkpt>
      <trkpt lat="42.24886" lon="2.33113">
        <ele>823.8</ele>
        <time>2022-05-21 21:50:46</time>
      </trkpt>
      <trkpt lat="42.24881" lon="2.33107">
        <ele>823.8</ele>
        <time>2022-05-21 21:50:47</time>
      </trkpt>
      <trkpt lat="42.24875" lon="2.331">
        <ele>823.6</ele>
        <time>2022-05-21 21:50:48</time>
      </trkpt>
      <trkpt lat="42.2487" lon="2.33093">
        <ele>823.6</ele>
        <time>2022-05-21 21:50:49</time>
      </trkpt>
      <trkpt lat="42.24865" lon="2.33086">
        <ele>823.6</ele>
        <time>2022-05-21 21:50:50</time>
      </trkpt>
      <trkpt lat="42.2486" lon="2.33079">
        <ele>823.4</ele>
        <time>2022-05-21 21:50:51</time>
      </trkpt>
      <trkpt lat="42.24856" lon="2.33071">
        <ele>823.4</ele>
        <time>2022-05-21 21:50:52</time>
      </trkpt>
      <trkpt lat="42.24853" lon="2.33062">
        <ele>823.4</ele>
        <time>2022-05-21 21:50:53</time>
      </trkpt>
      <trkpt lat="42.2485" lon="2.33053">
        <ele>823.4</ele>
        <time>2022-05-21 21:50:54</time>
      </trkpt>
      <trkpt lat="42.24848" lon="2.33044">
        <ele>823.4</ele>
        <time>2022-05-21 21:50:55</time>
      </trkpt>
      <trkpt lat="42.24845" lon="2.33034">
        <ele>823.4</ele>
        <time>2022-05-21 21:50:56</time>
      </trkpt>
      <trkpt lat="42.24843" lon="2.33026">
        <ele>823.2</ele>
        <time>2022-05-21 21:50:57</time>
      </trkpt>
      <trkpt lat="42.2484" lon="2.33017">
        <ele>823.2</ele>
        <time>2022-05-21 21:50:58</time>
      </trkpt>
      <trkpt lat="42.24838" lon="2.33009">
        <ele>823.2</ele>
        <time>2022-05-21 21:50:59</time>
      </trkpt>
      <trkpt lat="42.24835" lon="2.33001">
        <ele>823.2</ele>
        <time>2022-05-21 21:51:00</time>
      </trkpt>
      <trkpt lat="42.24832" lon="2.32993">
        <ele>823.2</ele>
        <time>2022-05-21 21:51:01</time>
      </trkpt>
      <trkpt lat="42.24829" lon="2.32985">
        <ele>823</ele>
        <time>2022-05-21 21:51:02</time>
      </trkpt>
      <trkpt lat="42.24825" lon="2.32977">
        <ele>823</ele>
        <time>2022-05-21 21:51:03</time>
      </trkpt>
      <trkpt lat="42.24822" lon="2.32969">
        <ele>823</ele>
        <time>2022-05-21 21:51:04</time>
      </trkpt>
      <trkpt lat="42.24818" lon="2.32961">
        <ele>823</ele>
        <time>2022-05-21 21:51:05</time>
      </trkpt>
      <trkpt lat="42.24814" lon="2.32953">
        <ele>823</ele>
        <time>2022-05-21 21:51:06</time>
      </trkpt>
      <trkpt lat="42.2481" lon="2.32947">
        <ele>823</ele>
        <time>2022-05-21 21:51:07</time>
      </trkpt>
      <trkpt lat="42.24806" lon="2.3294">
        <ele>823</ele>
        <time>2022-05-21 21:51:08</time>
      </trkpt>
      <trkpt lat="42.24801" lon="2.32932">
        <ele>823</ele>
        <time>2022-05-21 21:51:09</time>
      </trkpt>
      <trkpt lat="42.24795" lon="2.32924">
        <ele>823</ele>
        <time>2022-05-21 21:51:10</time>
      </trkpt>
      <trkpt lat="42.2479" lon="2.32916">
        <ele>822.8</ele>
        <time>2022-05-21 21:51:11</time>
      </trkpt>
      <trkpt lat="42.24784" lon="2.32908">
        <ele>822.8</ele>
        <time>2022-05-21 21:51:12</time>
      </trkpt>
      <trkpt lat="42.24779" lon="2.329">
        <ele>822.6</ele>
        <time>2022-05-21 21:51:13</time>
      </trkpt>
      <trkpt lat="42.24774" lon="2.32892">
        <ele>822.4</ele>
        <time>2022-05-21 21:51:14</time>
      </trkpt>
      <trkpt lat="42.24768" lon="2.32885">
        <ele>822.4</ele>
        <time>2022-05-21 21:51:15</time>
      </trkpt>
      <trkpt lat="42.24762" lon="2.32877">
        <ele>822.2</ele>
        <time>2022-05-21 21:51:16</time>
      </trkpt>
      <trkpt lat="42.24756" lon="2.3287">
        <ele>822.2</ele>
        <time>2022-05-21 21:51:17</time>
      </trkpt>
      <trkpt lat="42.24751" lon="2.32862">
        <ele>822</ele>
        <time>2022-05-21 21:51:18</time>
      </trkpt>
      <trkpt lat="42.24746" lon="2.32855">
        <ele>821.8</ele>
        <time>2022-05-21 21:51:19</time>
      </trkpt>
      <trkpt lat="42.2474" lon="2.32848">
        <ele>821.8</ele>
        <time>2022-05-21 21:51:20</time>
      </trkpt>
      <trkpt lat="42.24734" lon="2.32841">
        <ele>821.6</ele>
        <time>2022-05-21 21:51:21</time>
      </trkpt>
      <trkpt lat="42.24729" lon="2.32834">
        <ele>821.6</ele>
        <time>2022-05-21 21:51:22</time>
      </trkpt>
      <trkpt lat="42.24723" lon="2.32827">
        <ele>821.6</ele>
        <time>2022-05-21 21:51:23</time>
      </trkpt>
      <trkpt lat="42.24718" lon="2.3282">
        <ele>821.6</ele>
        <time>2022-05-21 21:51:24</time>
      </trkpt>
      <trkpt lat="42.24712" lon="2.32813">
        <ele>821.4</ele>
        <time>2022-05-21 21:51:25</time>
      </trkpt>
      <trkpt lat="42.24707" lon="2.32806">
        <ele>821.4</ele>
        <time>2022-05-21 21:51:26</time>
      </trkpt>
      <trkpt lat="42.24702" lon="2.32799">
        <ele>821.2</ele>
        <time>2022-05-21 21:51:27</time>
      </trkpt>
      <trkpt lat="42.24696" lon="2.32791">
        <ele>821.2</ele>
        <time>2022-05-21 21:51:28</time>
      </trkpt>
      <trkpt lat="42.24691" lon="2.32784">
        <ele>821.2</ele>
        <time>2022-05-21 21:51:29</time>
      </trkpt>
      <trkpt lat="42.24687" lon="2.32776">
        <ele>821</ele>
        <time>2022-05-21 21:51:30</time>
      </trkpt>
      <trkpt lat="42.24682" lon="2.32767">
        <ele>821</ele>
        <time>2022-05-21 21:51:31</time>
      </trkpt>
      <trkpt lat="42.24678" lon="2.32759">
        <ele>820.8</ele>
        <time>2022-05-21 21:51:32</time>
      </trkpt>
      <trkpt lat="42.24675" lon="2.3275">
        <ele>820.8</ele>
        <time>2022-05-21 21:51:33</time>
      </trkpt>
      <trkpt lat="42.24671" lon="2.32741">
        <ele>820.8</ele>
        <time>2022-05-21 21:51:34</time>
      </trkpt>
      <trkpt lat="42.24669" lon="2.32732">
        <ele>820.8</ele>
        <time>2022-05-21 21:51:35</time>
      </trkpt>
      <trkpt lat="42.24666" lon="2.32723">
        <ele>820.6</ele>
        <time>2022-05-21 21:51:36</time>
      </trkpt>
      <trkpt lat="42.24664" lon="2.32715">
        <ele>820.6</ele>
        <time>2022-05-21 21:51:37</time>
      </trkpt>
      <trkpt lat="42.24661" lon="2.32707">
        <ele>820.8</ele>
        <time>2022-05-21 21:51:38</time>
      </trkpt>
      <trkpt lat="42.24658" lon="2.32699">
        <ele>820.8</ele>
        <time>2022-05-21 21:51:39</time>
      </trkpt>
      <trkpt lat="42.24656" lon="2.3269">
        <ele>820.8</ele>
        <time>2022-05-21 21:51:40</time>
      </trkpt>
      <trkpt lat="42.24655" lon="2.32682">
        <ele>821</ele>
        <time>2022-05-21 21:51:41</time>
      </trkpt>
      <trkpt lat="42.24655" lon="2.32674">
        <ele>821</ele>
        <time>2022-05-21 21:51:42</time>
      </trkpt>
      <trkpt lat="42.24656" lon="2.32666">
        <ele>821.2</ele>
        <time>2022-05-21 21:51:43</time>
      </trkpt>
      <trkpt lat="42.24658" lon="2.32657">
        <ele>821.2</ele>
        <time>2022-05-21 21:51:44</time>
      </trkpt>
      <trkpt lat="42.24659" lon="2.32649">
        <ele>821.2</ele>
        <time>2022-05-21 21:51:45</time>
      </trkpt>
      <trkpt lat="42.2466" lon="2.32641">
        <ele>821.2</ele>
        <time>2022-05-21 21:51:46</time>
      </trkpt>
      <trkpt lat="42.24658" lon="2.32633">
        <ele>821.2</ele>
        <time>2022-05-21 21:51:47</time>
      </trkpt>
      <trkpt lat="42.24655" lon="2.32626">
        <ele>821.2</ele>
        <time>2022-05-21 21:51:48</time>
      </trkpt>
      <trkpt lat="42.24651" lon="2.32619">
        <ele>821</ele>
        <time>2022-05-21 21:51:49</time>
      </trkpt>
      <trkpt lat="42.24646" lon="2.32613">
        <ele>821</ele>
        <time>2022-05-21 21:51:50</time>
      </trkpt>
      <trkpt lat="42.24641" lon="2.32608">
        <ele>821</ele>
        <time>2022-05-21 21:51:51</time>
      </trkpt>
      <trkpt lat="42.24635" lon="2.32603">
        <ele>821</ele>
        <time>2022-05-21 21:51:52</time>
      </trkpt>
      <trkpt lat="42.2463" lon="2.32597">
        <ele>821</ele>
        <time>2022-05-21 21:51:53</time>
      </trkpt>
      <trkpt lat="42.24626" lon="2.3259">
        <ele>821</ele>
        <time>2022-05-21 21:51:54</time>
      </trkpt>
      <trkpt lat="42.24622" lon="2.32582">
        <ele>821</ele>
        <time>2022-05-21 21:51:55</time>
      </trkpt>
      <trkpt lat="42.2462" lon="2.32573">
        <ele>821</ele>
        <time>2022-05-21 21:51:56</time>
      </trkpt>
      <trkpt lat="42.24617" lon="2.32565">
        <ele>821</ele>
        <time>2022-05-21 21:51:57</time>
      </trkpt>
      <trkpt lat="42.24614" lon="2.32556">
        <ele>821</ele>
        <time>2022-05-21 21:51:58</time>
      </trkpt>
      <trkpt lat="42.24611" lon="2.32548">
        <ele>821</ele>
        <time>2022-05-21 21:51:59</time>
      </trkpt>
      <trkpt lat="42.24608" lon="2.32538">
        <ele>820.8</ele>
        <time>2022-05-21 21:52:00</time>
      </trkpt>
      <trkpt lat="42.24605" lon="2.32529">
        <ele>820.8</ele>
        <time>2022-05-21 21:52:01</time>
      </trkpt>
      <trkpt lat="42.24602" lon="2.3252">
        <ele>820.6</ele>
        <time>2022-05-21 21:52:02</time>
      </trkpt>
      <trkpt lat="42.24599" lon="2.32511">
        <ele>820.6</ele>
        <time>2022-05-21 21:52:03</time>
      </trkpt>
      <trkpt lat="42.24596" lon="2.32502">
        <ele>820.4</ele>
        <time>2022-05-21 21:52:04</time>
      </trkpt>
      <trkpt lat="42.24593" lon="2.32493">
        <ele>820.4</ele>
        <time>2022-05-21 21:52:05</time>
      </trkpt>
      <trkpt lat="42.2459" lon="2.32484">
        <ele>820.4</ele>
        <time>2022-05-21 21:52:06</time>
      </trkpt>
      <trkpt lat="42.24588" lon="2.32475">
        <ele>820.4</ele>
        <time>2022-05-21 21:52:07</time>
      </trkpt>
      <trkpt lat="42.24585" lon="2.32466">
        <ele>820.2</ele>
        <time>2022-05-21 21:52:08</time>
      </trkpt>
      <trkpt lat="42.24582" lon="2.32458">
        <ele>820.2</ele>
        <time>2022-05-21 21:52:09</time>
      </trkpt>
      <trkpt lat="42.24579" lon="2.32449">
        <ele>820.2</ele>
        <time>2022-05-21 21:52:10</time>
      </trkpt>
      <trkpt lat="42.24576" lon="2.3244">
        <ele>820.2</ele>
        <time>2022-05-21 21:52:11</time>
      </trkpt>
      <trkpt lat="42.24574" lon="2.32431">
        <ele>820.2</ele>
        <time>2022-05-21 21:52:12</time>
      </trkpt>
      <trkpt lat="42.24571" lon="2.32423">
        <ele>820.2</ele>
        <time>2022-05-21 21:52:13</time>
      </trkpt>
      <trkpt lat="42.24568" lon="2.32414">
        <ele>820.2</ele>
        <time>2022-05-21 21:52:14</time>
      </trkpt>
      <trkpt lat="42.24565" lon="2.32406">
        <ele>820.2</ele>
        <time>2022-05-21 21:52:15</time>
      </trkpt>
      <trkpt lat="42.24563" lon="2.32397">
        <ele>820.2</ele>
        <time>2022-05-21 21:52:16</time>
      </trkpt>
      <trkpt lat="42.2456" lon="2.32388">
        <ele>820.4</ele>
        <time>2022-05-21 21:52:17</time>
      </trkpt>
      <trkpt lat="42.24557" lon="2.3238">
        <ele>820.4</ele>
        <time>2022-05-21 21:52:18</time>
      </trkpt>
      <trkpt lat="42.24554" lon="2.32371">
        <ele>820.4</ele>
        <time>2022-05-21 21:52:19</time>
      </trkpt>
      <trkpt lat="42.24551" lon="2.32363">
        <ele>820.4</ele>
        <time>2022-05-21 21:52:20</time>
      </trkpt>
      <trkpt lat="42.24549" lon="2.32354">
        <ele>820.6</ele>
        <time>2022-05-21 21:52:21</time>
      </trkpt>
      <trkpt lat="42.24546" lon="2.32346">
        <ele>820.6</ele>
        <time>2022-05-21 21:52:22</time>
      </trkpt>
      <trkpt lat="42.24544" lon="2.32338">
        <ele>820.6</ele>
        <time>2022-05-21 21:52:23</time>
      </trkpt>
      <trkpt lat="42.24542" lon="2.32329">
        <ele>820.6</ele>
        <time>2022-05-21 21:52:24</time>
      </trkpt>
      <trkpt lat="42.24539" lon="2.3232">
        <ele>820.8</ele>
        <time>2022-05-21 21:52:25</time>
      </trkpt>
      <trkpt lat="42.24538" lon="2.32312">
        <ele>820.8</ele>
        <time>2022-05-21 21:52:26</time>
      </trkpt>
      <trkpt lat="42.24536" lon="2.32304">
        <ele>820.8</ele>
        <time>2022-05-21 21:52:27</time>
      </trkpt>
      <trkpt lat="42.24534" lon="2.32296">
        <ele>821</ele>
        <time>2022-05-21 21:52:28</time>
      </trkpt>
      <trkpt lat="42.24532" lon="2.32287">
        <ele>821</ele>
        <time>2022-05-21 21:52:29</time>
      </trkpt>
      <trkpt lat="42.24531" lon="2.32279">
        <ele>821</ele>
        <time>2022-05-21 21:52:30</time>
      </trkpt>
      <trkpt lat="42.2453" lon="2.3227">
        <ele>821</ele>
        <time>2022-05-21 21:52:31</time>
      </trkpt>
      <trkpt lat="42.2453" lon="2.32262">
        <ele>821.2</ele>
        <time>2022-05-21 21:52:32</time>
      </trkpt>
      <trkpt lat="42.2453" lon="2.32253">
        <ele>821.2</ele>
        <time>2022-05-21 21:52:33</time>
      </trkpt>
      <trkpt lat="42.2453" lon="2.32244">
        <ele>821.2</ele>
        <time>2022-05-21 21:52:34</time>
      </trkpt>
      <trkpt lat="42.24529" lon="2.32235">
        <ele>821.2</ele>
        <time>2022-05-21 21:52:35</time>
      </trkpt>
      <trkpt lat="42.24529" lon="2.32227">
        <ele>821.2</ele>
        <time>2022-05-21 21:52:36</time>
      </trkpt>
      <trkpt lat="42.2453" lon="2.32218">
        <ele>821.2</ele>
        <time>2022-05-21 21:52:37</time>
      </trkpt>
      <trkpt lat="42.24531" lon="2.32208">
        <ele>821.2</ele>
        <time>2022-05-21 21:52:38</time>
      </trkpt>
      <trkpt lat="42.24531" lon="2.32199">
        <ele>821.2</ele>
        <time>2022-05-21 21:52:39</time>
      </trkpt>
      <trkpt lat="42.24532" lon="2.32191">
        <ele>821.2</ele>
        <time>2022-05-21 21:52:40</time>
      </trkpt>
      <trkpt lat="42.24533" lon="2.32182">
        <ele>821.2</ele>
        <time>2022-05-21 21:52:41</time>
      </trkpt>
      <trkpt lat="42.24534" lon="2.32174">
        <ele>821.2</ele>
        <time>2022-05-21 21:52:42</time>
      </trkpt>
      <trkpt lat="42.24536" lon="2.32165">
        <ele>821.2</ele>
        <time>2022-05-21 21:52:43</time>
      </trkpt>
      <trkpt lat="42.24537" lon="2.32156">
        <ele>821.2</ele>
        <time>2022-05-21 21:52:44</time>
      </trkpt>
      <trkpt lat="42.24539" lon="2.32148">
        <ele>821.2</ele>
        <time>2022-05-21 21:52:45</time>
      </trkpt>
      <trkpt lat="42.24541" lon="2.32139">
        <ele>821.2</ele>
        <time>2022-05-21 21:52:46</time>
      </trkpt>
      <trkpt lat="42.24543" lon="2.32131">
        <ele>821</ele>
        <time>2022-05-21 21:52:47</time>
      </trkpt>
      <trkpt lat="42.24545" lon="2.32122">
        <ele>821</ele>
        <time>2022-05-21 21:52:48</time>
      </trkpt>
      <trkpt lat="42.24548" lon="2.32112">
        <ele>821</ele>
        <time>2022-05-21 21:52:49</time>
      </trkpt>
      <trkpt lat="42.2455" lon="2.32103">
        <ele>821</ele>
        <time>2022-05-21 21:52:50</time>
      </trkpt>
      <trkpt lat="42.24553" lon="2.32094">
        <ele>820.8</ele>
        <time>2022-05-21 21:52:51</time>
      </trkpt>
      <trkpt lat="42.24555" lon="2.32085">
        <ele>820.8</ele>
        <time>2022-05-21 21:52:52</time>
      </trkpt>
      <trkpt lat="42.24559" lon="2.32075">
        <ele>820.6</ele>
        <time>2022-05-21 21:52:53</time>
      </trkpt>
      <trkpt lat="42.24562" lon="2.32065">
        <ele>820.4</ele>
        <time>2022-05-21 21:52:54</time>
      </trkpt>
      <trkpt lat="42.24564" lon="2.32055">
        <ele>820.4</ele>
        <time>2022-05-21 21:52:55</time>
      </trkpt>
      <trkpt lat="42.24567" lon="2.32045">
        <ele>820.2</ele>
        <time>2022-05-21 21:52:56</time>
      </trkpt>
      <trkpt lat="42.2457" lon="2.32036">
        <ele>820</ele>
        <time>2022-05-21 21:52:57</time>
      </trkpt>
      <trkpt lat="42.24573" lon="2.32026">
        <ele>820</ele>
        <time>2022-05-21 21:52:58</time>
      </trkpt>
      <trkpt lat="42.24575" lon="2.32016">
        <ele>819.8</ele>
        <time>2022-05-21 21:52:59</time>
      </trkpt>
      <trkpt lat="42.24578" lon="2.32006">
        <ele>819.6</ele>
        <time>2022-05-21 21:53:00</time>
      </trkpt>
      <trkpt lat="42.2458" lon="2.31995">
        <ele>819.6</ele>
        <time>2022-05-21 21:53:01</time>
      </trkpt>
      <trkpt lat="42.24582" lon="2.31985">
        <ele>819.4</ele>
        <time>2022-05-21 21:53:02</time>
      </trkpt>
      <trkpt lat="42.24584" lon="2.31974">
        <ele>819.2</ele>
        <time>2022-05-21 21:53:03</time>
      </trkpt>
      <trkpt lat="42.24585" lon="2.31963">
        <ele>819</ele>
        <time>2022-05-21 21:53:04</time>
      </trkpt>
      <trkpt lat="42.24586" lon="2.31952">
        <ele>818.6</ele>
        <time>2022-05-21 21:53:05</time>
      </trkpt>
      <trkpt lat="42.24586" lon="2.3194">
        <ele>818.4</ele>
        <time>2022-05-21 21:53:06</time>
      </trkpt>
      <trkpt lat="42.24586" lon="2.31928">
        <ele>818</ele>
        <time>2022-05-21 21:53:07</time>
      </trkpt>
      <trkpt lat="42.24586" lon="2.31917">
        <ele>817.8</ele>
        <time>2022-05-21 21:53:08</time>
      </trkpt>
      <trkpt lat="42.24585" lon="2.31905">
        <ele>817.4</ele>
        <time>2022-05-21 21:53:09</time>
      </trkpt>
      <trkpt lat="42.24583" lon="2.31893">
        <ele>817.2</ele>
        <time>2022-05-21 21:53:10</time>
      </trkpt>
      <trkpt lat="42.24582" lon="2.31881">
        <ele>816.8</ele>
        <time>2022-05-21 21:53:11</time>
      </trkpt>
      <trkpt lat="42.2458" lon="2.31869">
        <ele>816.4</ele>
        <time>2022-05-21 21:53:12</time>
      </trkpt>
      <trkpt lat="42.24578" lon="2.31857">
        <ele>816</ele>
        <time>2022-05-21 21:53:13</time>
      </trkpt>
      <trkpt lat="42.24576" lon="2.31845">
        <ele>815.6</ele>
        <time>2022-05-21 21:53:14</time>
      </trkpt>
      <trkpt lat="42.24573" lon="2.31833">
        <ele>815.2</ele>
        <time>2022-05-21 21:53:15</time>
      </trkpt>
      <trkpt lat="42.24571" lon="2.3182">
        <ele>815</ele>
        <time>2022-05-21 21:53:16</time>
      </trkpt>
      <trkpt lat="42.24568" lon="2.31807">
        <ele>814.6</ele>
        <time>2022-05-21 21:53:17</time>
      </trkpt>
      <trkpt lat="42.24565" lon="2.31795">
        <ele>814.2</ele>
        <time>2022-05-21 21:53:18</time>
      </trkpt>
      <trkpt lat="42.24562" lon="2.31783">
        <ele>813.8</ele>
        <time>2022-05-21 21:53:19</time>
      </trkpt>
      <trkpt lat="42.24558" lon="2.31771">
        <ele>813.2</ele>
        <time>2022-05-21 21:53:20</time>
      </trkpt>
      <trkpt lat="42.24554" lon="2.31759">
        <ele>812.8</ele>
        <time>2022-05-21 21:53:21</time>
      </trkpt>
      <trkpt lat="42.2455" lon="2.31747">
        <ele>812.4</ele>
        <time>2022-05-21 21:53:22</time>
      </trkpt>
      <trkpt lat="42.24546" lon="2.31734">
        <ele>812</ele>
        <time>2022-05-21 21:53:23</time>
      </trkpt>
      <trkpt lat="42.24542" lon="2.31722">
        <ele>811.8</ele>
        <time>2022-05-21 21:53:24</time>
      </trkpt>
      <trkpt lat="42.24539" lon="2.3171">
        <ele>811.6</ele>
        <time>2022-05-21 21:53:25</time>
      </trkpt>
      <trkpt lat="42.24534" lon="2.31699">
        <ele>811.2</ele>
        <time>2022-05-21 21:53:26</time>
      </trkpt>
      <trkpt lat="42.2453" lon="2.31687">
        <ele>810.8</ele>
        <time>2022-05-21 21:53:27</time>
      </trkpt>
      <trkpt lat="42.24526" lon="2.31675">
        <ele>810.6</ele>
        <time>2022-05-21 21:53:28</time>
      </trkpt>
      <trkpt lat="42.24522" lon="2.31662">
        <ele>810.2</ele>
        <time>2022-05-21 21:53:29</time>
      </trkpt>
      <trkpt lat="42.24519" lon="2.31649">
        <ele>810</ele>
        <time>2022-05-21 21:53:30</time>
      </trkpt>
      <trkpt lat="42.24516" lon="2.31637">
        <ele>809.8</ele>
        <time>2022-05-21 21:53:31</time>
      </trkpt>
      <trkpt lat="42.24513" lon="2.31625">
        <ele>809.6</ele>
        <time>2022-05-21 21:53:32</time>
      </trkpt>
      <trkpt lat="42.24509" lon="2.31613">
        <ele>809.6</ele>
        <time>2022-05-21 21:53:33</time>
      </trkpt>
      <trkpt lat="42.24505" lon="2.31602">
        <ele>809.4</ele>
        <time>2022-05-21 21:53:34</time>
      </trkpt>
      <trkpt lat="42.24502" lon="2.31591">
        <ele>809.2</ele>
        <time>2022-05-21 21:53:35</time>
      </trkpt>
      <trkpt lat="42.24498" lon="2.3158">
        <ele>809</ele>
        <time>2022-05-21 21:53:36</time>
      </trkpt>
      <trkpt lat="42.24495" lon="2.31569">
        <ele>808.8</ele>
        <time>2022-05-21 21:53:37</time>
      </trkpt>
      <trkpt lat="42.24492" lon="2.31558">
        <ele>808.8</ele>
        <time>2022-05-21 21:53:38</time>
      </trkpt>
      <trkpt lat="42.24489" lon="2.31547">
        <ele>808.4</ele>
        <time>2022-05-21 21:53:39</time>
      </trkpt>
      <trkpt lat="42.24485" lon="2.31536">
        <ele>808.4</ele>
        <time>2022-05-21 21:53:40</time>
      </trkpt>
      <trkpt lat="42.24481" lon="2.31525">
        <ele>808.2</ele>
        <time>2022-05-21 21:53:41</time>
      </trkpt>
      <trkpt lat="42.24478" lon="2.31514">
        <ele>808</ele>
        <time>2022-05-21 21:53:42</time>
      </trkpt>
      <trkpt lat="42.24474" lon="2.31503">
        <ele>807.8</ele>
        <time>2022-05-21 21:53:43</time>
      </trkpt>
      <trkpt lat="42.2447" lon="2.31492">
        <ele>807.6</ele>
        <time>2022-05-21 21:53:44</time>
      </trkpt>
      <trkpt lat="42.24467" lon="2.31481">
        <ele>807.4</ele>
        <time>2022-05-21 21:53:45</time>
      </trkpt>
      <trkpt lat="42.24464" lon="2.31469">
        <ele>807.2</ele>
        <time>2022-05-21 21:53:46</time>
      </trkpt>
      <trkpt lat="42.2446" lon="2.31458">
        <ele>807</ele>
        <time>2022-05-21 21:53:47</time>
      </trkpt>
      <trkpt lat="42.24457" lon="2.31447">
        <ele>807</ele>
        <time>2022-05-21 21:53:48</time>
      </trkpt>
      <trkpt lat="42.24454" lon="2.31436">
        <ele>806.8</ele>
        <time>2022-05-21 21:53:49</time>
      </trkpt>
      <trkpt lat="42.2445" lon="2.31425">
        <ele>806.6</ele>
        <time>2022-05-21 21:53:50</time>
      </trkpt>
      <trkpt lat="42.24447" lon="2.31414">
        <ele>806.4</ele>
        <time>2022-05-21 21:53:51</time>
      </trkpt>
      <trkpt lat="42.24444" lon="2.31403">
        <ele>806.2</ele>
        <time>2022-05-21 21:53:52</time>
      </trkpt>
      <trkpt lat="42.2444" lon="2.31392">
        <ele>806</ele>
        <time>2022-05-21 21:53:53</time>
      </trkpt>
      <trkpt lat="42.24438" lon="2.31381">
        <ele>805.8</ele>
        <time>2022-05-21 21:53:54</time>
      </trkpt>
      <trkpt lat="42.24435" lon="2.31371">
        <ele>805.8</ele>
        <time>2022-05-21 21:53:55</time>
      </trkpt>
      <trkpt lat="42.24433" lon="2.3136">
        <ele>805.6</ele>
        <time>2022-05-21 21:53:56</time>
      </trkpt>
      <trkpt lat="42.24432" lon="2.31348">
        <ele>805.4</ele>
        <time>2022-05-21 21:53:57</time>
      </trkpt>
      <trkpt lat="42.24432" lon="2.31337">
        <ele>805.4</ele>
        <time>2022-05-21 21:53:58</time>
      </trkpt>
      <trkpt lat="42.24432" lon="2.31326">
        <ele>805.2</ele>
        <time>2022-05-21 21:53:59</time>
      </trkpt>
      <trkpt lat="42.24431" lon="2.31316">
        <ele>805.2</ele>
        <time>2022-05-21 21:54:00</time>
      </trkpt>
      <trkpt lat="42.2443" lon="2.31306">
        <ele>805.2</ele>
        <time>2022-05-21 21:54:01</time>
      </trkpt>
      <trkpt lat="42.24426" lon="2.31296">
        <ele>805</ele>
        <time>2022-05-21 21:54:02</time>
      </trkpt>
      <trkpt lat="42.24421" lon="2.31288">
        <ele>804.8</ele>
        <time>2022-05-21 21:54:03</time>
      </trkpt>
      <trkpt lat="42.24416" lon="2.3128">
        <ele>804.6</ele>
        <time>2022-05-21 21:54:04</time>
      </trkpt>
      <trkpt lat="42.2441" lon="2.31272">
        <ele>804.6</ele>
        <time>2022-05-21 21:54:05</time>
      </trkpt>
      <trkpt lat="42.24405" lon="2.31264">
        <ele>804.4</ele>
        <time>2022-05-21 21:54:06</time>
      </trkpt>
      <trkpt lat="42.24401" lon="2.31255">
        <ele>804.4</ele>
        <time>2022-05-21 21:54:07</time>
      </trkpt>
      <trkpt lat="42.24397" lon="2.31246">
        <ele>804.2</ele>
        <time>2022-05-21 21:54:08</time>
      </trkpt>
      <trkpt lat="42.24394" lon="2.31236">
        <ele>804.2</ele>
        <time>2022-05-21 21:54:09</time>
      </trkpt>
      <trkpt lat="42.24391" lon="2.31225">
        <ele>804</ele>
        <time>2022-05-21 21:54:10</time>
      </trkpt>
      <trkpt lat="42.24388" lon="2.31215">
        <ele>804</ele>
        <time>2022-05-21 21:54:11</time>
      </trkpt>
      <trkpt lat="42.24385" lon="2.31205">
        <ele>803.8</ele>
        <time>2022-05-21 21:54:12</time>
      </trkpt>
      <trkpt lat="42.24382" lon="2.31194">
        <ele>803.8</ele>
        <time>2022-05-21 21:54:13</time>
      </trkpt>
      <trkpt lat="42.24378" lon="2.31184">
        <ele>803.6</ele>
        <time>2022-05-21 21:54:14</time>
      </trkpt>
      <trkpt lat="42.24375" lon="2.31174">
        <ele>803.4</ele>
        <time>2022-05-21 21:54:15</time>
      </trkpt>
      <trkpt lat="42.24372" lon="2.31163">
        <ele>803.4</ele>
        <time>2022-05-21 21:54:16</time>
      </trkpt>
      <trkpt lat="42.24369" lon="2.31153">
        <ele>803.4</ele>
        <time>2022-05-21 21:54:17</time>
      </trkpt>
      <trkpt lat="42.24365" lon="2.31142">
        <ele>803.2</ele>
        <time>2022-05-21 21:54:18</time>
      </trkpt>
      <trkpt lat="42.24362" lon="2.31131">
        <ele>803</ele>
        <time>2022-05-21 21:54:19</time>
      </trkpt>
      <trkpt lat="42.24359" lon="2.31121">
        <ele>803</ele>
        <time>2022-05-21 21:54:20</time>
      </trkpt>
      <trkpt lat="42.24355" lon="2.3111">
        <ele>802.8</ele>
        <time>2022-05-21 21:54:21</time>
      </trkpt>
      <trkpt lat="42.24352" lon="2.311">
        <ele>802.8</ele>
        <time>2022-05-21 21:54:22</time>
      </trkpt>
      <trkpt lat="42.24349" lon="2.3109">
        <ele>802.8</ele>
        <time>2022-05-21 21:54:23</time>
      </trkpt>
      <trkpt lat="42.24346" lon="2.3108">
        <ele>802.6</ele>
        <time>2022-05-21 21:54:24</time>
      </trkpt>
      <trkpt lat="42.24343" lon="2.31069">
        <ele>802.6</ele>
        <time>2022-05-21 21:54:25</time>
      </trkpt>
      <trkpt lat="42.2434" lon="2.31059">
        <ele>802.4</ele>
        <time>2022-05-21 21:54:26</time>
      </trkpt>
      <trkpt lat="42.24337" lon="2.31049">
        <ele>802.4</ele>
        <time>2022-05-21 21:54:27</time>
      </trkpt>
      <trkpt lat="42.24334" lon="2.31038">
        <ele>802.2</ele>
        <time>2022-05-21 21:54:28</time>
      </trkpt>
      <trkpt lat="42.2433" lon="2.31028">
        <ele>802.2</ele>
        <time>2022-05-21 21:54:29</time>
      </trkpt>
      <trkpt lat="42.24327" lon="2.31018">
        <ele>802</ele>
        <time>2022-05-21 21:54:30</time>
      </trkpt>
      <trkpt lat="42.24324" lon="2.31006">
        <ele>802</ele>
        <time>2022-05-21 21:54:31</time>
      </trkpt>
      <trkpt lat="42.2432" lon="2.30995">
        <ele>802</ele>
        <time>2022-05-21 21:54:32</time>
      </trkpt>
      <trkpt lat="42.24317" lon="2.30985">
        <ele>801.8</ele>
        <time>2022-05-21 21:54:33</time>
      </trkpt>
      <trkpt lat="42.24314" lon="2.30974">
        <ele>801.8</ele>
        <time>2022-05-21 21:54:34</time>
      </trkpt>
      <trkpt lat="42.24311" lon="2.30964">
        <ele>801.6</ele>
        <time>2022-05-21 21:54:35</time>
      </trkpt>
      <trkpt lat="42.24308" lon="2.30953">
        <ele>801.6</ele>
        <time>2022-05-21 21:54:36</time>
      </trkpt>
      <trkpt lat="42.24304" lon="2.30941">
        <ele>801.4</ele>
        <time>2022-05-21 21:54:37</time>
      </trkpt>
      <trkpt lat="42.24301" lon="2.30931">
        <ele>801.4</ele>
        <time>2022-05-21 21:54:38</time>
      </trkpt>
      <trkpt lat="42.24298" lon="2.3092">
        <ele>801.2</ele>
        <time>2022-05-21 21:54:39</time>
      </trkpt>
      <trkpt lat="42.24295" lon="2.3091">
        <ele>801</ele>
        <time>2022-05-21 21:54:40</time>
      </trkpt>
      <trkpt lat="42.24292" lon="2.30898">
        <ele>801</ele>
        <time>2022-05-21 21:54:41</time>
      </trkpt>
      <trkpt lat="42.24288" lon="2.30888">
        <ele>800.8</ele>
        <time>2022-05-21 21:54:42</time>
      </trkpt>
      <trkpt lat="42.24285" lon="2.30877">
        <ele>800.6</ele>
        <time>2022-05-21 21:54:43</time>
      </trkpt>
      <trkpt lat="42.24282" lon="2.30867">
        <ele>800.6</ele>
        <time>2022-05-21 21:54:44</time>
      </trkpt>
      <trkpt lat="42.24279" lon="2.30856">
        <ele>800.4</ele>
        <time>2022-05-21 21:54:45</time>
      </trkpt>
      <trkpt lat="42.24276" lon="2.30845">
        <ele>800.4</ele>
        <time>2022-05-21 21:54:46</time>
      </trkpt>
      <trkpt lat="42.24273" lon="2.30835">
        <ele>800.2</ele>
        <time>2022-05-21 21:54:47</time>
      </trkpt>
      <trkpt lat="42.2427" lon="2.30824">
        <ele>800</ele>
        <time>2022-05-21 21:54:48</time>
      </trkpt>
      <trkpt lat="42.24267" lon="2.30814">
        <ele>800</ele>
        <time>2022-05-21 21:54:49</time>
      </trkpt>
      <trkpt lat="42.24264" lon="2.30803">
        <ele>800</ele>
        <time>2022-05-21 21:54:50</time>
      </trkpt>
      <trkpt lat="42.24261" lon="2.30793">
        <ele>799.8</ele>
        <time>2022-05-21 21:54:51</time>
      </trkpt>
      <trkpt lat="42.24258" lon="2.30783">
        <ele>799.8</ele>
        <time>2022-05-21 21:54:52</time>
      </trkpt>
      <trkpt lat="42.24254" lon="2.30773">
        <ele>799.6</ele>
        <time>2022-05-21 21:54:53</time>
      </trkpt>
      <trkpt lat="42.24251" lon="2.30763">
        <ele>799.6</ele>
        <time>2022-05-21 21:54:54</time>
      </trkpt>
      <trkpt lat="42.24248" lon="2.30753">
        <ele>799.4</ele>
        <time>2022-05-21 21:54:55</time>
      </trkpt>
      <trkpt lat="42.24245" lon="2.30742">
        <ele>799.2</ele>
        <time>2022-05-21 21:54:56</time>
      </trkpt>
      <trkpt lat="42.24242" lon="2.30732">
        <ele>799.2</ele>
        <time>2022-05-21 21:54:57</time>
      </trkpt>
      <trkpt lat="42.24239" lon="2.30722">
        <ele>799.2</ele>
        <time>2022-05-21 21:54:58</time>
      </trkpt>
      <trkpt lat="42.24236" lon="2.30712">
        <ele>799</ele>
        <time>2022-05-21 21:54:59</time>
      </trkpt>
      <trkpt lat="42.24233" lon="2.30703">
        <ele>799</ele>
        <time>2022-05-21 21:55:00</time>
      </trkpt>
      <trkpt lat="42.24229" lon="2.30694">
        <ele>798.8</ele>
        <time>2022-05-21 21:55:01</time>
      </trkpt>
      <trkpt lat="42.24226" lon="2.30685">
        <ele>798.8</ele>
        <time>2022-05-21 21:55:02</time>
      </trkpt>
      <trkpt lat="42.24222" lon="2.30673">
        <ele>798.6</ele>
        <time>2022-05-21 21:55:03</time>
      </trkpt>
      <trkpt lat="42.24218" lon="2.30663">
        <ele>798.6</ele>
        <time>2022-05-21 21:55:04</time>
      </trkpt>
      <trkpt lat="42.24214" lon="2.30653">
        <ele>798.4</ele>
        <time>2022-05-21 21:55:05</time>
      </trkpt>
      <trkpt lat="42.2421" lon="2.30644">
        <ele>798.4</ele>
        <time>2022-05-21 21:55:06</time>
      </trkpt>
      <trkpt lat="42.24207" lon="2.30635">
        <ele>798.2</ele>
        <time>2022-05-21 21:55:07</time>
      </trkpt>
      <trkpt lat="42.24202" lon="2.30626">
        <ele>798.2</ele>
        <time>2022-05-21 21:55:08</time>
      </trkpt>
      <trkpt lat="42.24198" lon="2.30617">
        <ele>798</ele>
        <time>2022-05-21 21:55:09</time>
      </trkpt>
      <trkpt lat="42.24194" lon="2.30608">
        <ele>798</ele>
        <time>2022-05-21 21:55:10</time>
      </trkpt>
      <trkpt lat="42.2419" lon="2.30599">
        <ele>797.8</ele>
        <time>2022-05-21 21:55:11</time>
      </trkpt>
      <trkpt lat="42.24186" lon="2.30589">
        <ele>797.8</ele>
        <time>2022-05-21 21:55:12</time>
      </trkpt>
      <trkpt lat="42.24182" lon="2.3058">
        <ele>797.8</ele>
        <time>2022-05-21 21:55:13</time>
      </trkpt>
      <trkpt lat="42.24177" lon="2.3057">
        <ele>797.6</ele>
        <time>2022-05-21 21:55:14</time>
      </trkpt>
      <trkpt lat="42.24172" lon="2.30562">
        <ele>797.6</ele>
        <time>2022-05-21 21:55:15</time>
      </trkpt>
      <trkpt lat="42.24167" lon="2.30553">
        <ele>797.6</ele>
        <time>2022-05-21 21:55:16</time>
      </trkpt>
      <trkpt lat="42.24162" lon="2.30545">
        <ele>797.4</ele>
        <time>2022-05-21 21:55:17</time>
      </trkpt>
      <trkpt lat="42.24156" lon="2.30537">
        <ele>797.4</ele>
        <time>2022-05-21 21:55:18</time>
      </trkpt>
      <trkpt lat="42.2415" lon="2.30529">
        <ele>797.4</ele>
        <time>2022-05-21 21:55:19</time>
      </trkpt>
      <trkpt lat="42.24144" lon="2.30522">
        <ele>797.4</ele>
        <time>2022-05-21 21:55:20</time>
      </trkpt>
      <trkpt lat="42.24137" lon="2.30517">
        <ele>797.4</ele>
        <time>2022-05-21 21:55:21</time>
      </trkpt>
      <trkpt lat="42.24131" lon="2.30512">
        <ele>797.4</ele>
        <time>2022-05-21 21:55:22</time>
      </trkpt>
      <trkpt lat="42.24124" lon="2.3051">
        <ele>797.6</ele>
        <time>2022-05-21 21:55:23</time>
      </trkpt>
      <trkpt lat="42.24116" lon="2.3051">
        <ele>797.8</ele>
        <time>2022-05-21 21:55:24</time>
      </trkpt>
      <trkpt lat="42.24109" lon="2.30511">
        <ele>798</ele>
        <time>2022-05-21 21:55:25</time>
      </trkpt>
      <trkpt lat="42.24103" lon="2.30514">
        <ele>798.2</ele>
        <time>2022-05-21 21:55:26</time>
      </trkpt>
      <trkpt lat="42.24097" lon="2.30519">
        <ele>798.4</ele>
        <time>2022-05-21 21:55:27</time>
      </trkpt>
      <trkpt lat="42.24092" lon="2.30524">
        <ele>798.6</ele>
        <time>2022-05-21 21:55:28</time>
      </trkpt>
      <trkpt lat="42.24087" lon="2.30529">
        <ele>798.8</ele>
        <time>2022-05-21 21:55:29</time>
      </trkpt>
      <trkpt lat="42.24082" lon="2.30535">
        <ele>799</ele>
        <time>2022-05-21 21:55:30</time>
      </trkpt>
      <trkpt lat="42.24077" lon="2.3054">
        <ele>799.2</ele>
        <time>2022-05-21 21:55:31</time>
      </trkpt>
      <trkpt lat="42.24072" lon="2.30545">
        <ele>799.4</ele>
        <time>2022-05-21 21:55:32</time>
      </trkpt>
      <trkpt lat="42.24068" lon="2.3055">
        <ele>799.6</ele>
        <time>2022-05-21 21:55:33</time>
      </trkpt>
      <trkpt lat="42.24063" lon="2.30556">
        <ele>800</ele>
        <time>2022-05-21 21:55:34</time>
      </trkpt>
      <trkpt lat="42.24058" lon="2.30561">
        <ele>800.2</ele>
        <time>2022-05-21 21:55:35</time>
      </trkpt>
      <trkpt lat="42.24054" lon="2.30565">
        <ele>800.4</ele>
        <time>2022-05-21 21:55:36</time>
      </trkpt>
      <trkpt lat="42.24049" lon="2.30568">
        <ele>800.6</ele>
        <time>2022-05-21 21:55:37</time>
      </trkpt>
      <trkpt lat="42.24044" lon="2.3057">
        <ele>800.8</ele>
        <time>2022-05-21 21:55:38</time>
      </trkpt>
      <trkpt lat="42.24039" lon="2.3057">
        <ele>801.2</ele>
        <time>2022-05-21 21:55:39</time>
      </trkpt>
      <trkpt lat="42.24035" lon="2.30569">
        <ele>801.4</ele>
        <time>2022-05-21 21:55:40</time>
      </trkpt>
      <trkpt lat="42.2403" lon="2.30565">
        <ele>801.6</ele>
        <time>2022-05-21 21:55:41</time>
      </trkpt>
      <trkpt lat="42.24026" lon="2.30561">
        <ele>801.8</ele>
        <time>2022-05-21 21:55:42</time>
      </trkpt>
      <trkpt lat="42.24023" lon="2.30557">
        <ele>802</ele>
        <time>2022-05-21 21:55:43</time>
      </trkpt>
      <trkpt lat="42.24019" lon="2.30552">
        <ele>802.4</ele>
        <time>2022-05-21 21:55:44</time>
      </trkpt>
      <trkpt lat="42.24016" lon="2.30547">
        <ele>802.6</ele>
        <time>2022-05-21 21:55:45</time>
      </trkpt>
      <trkpt lat="42.24012" lon="2.30541">
        <ele>802.8</ele>
        <time>2022-05-21 21:55:46</time>
      </trkpt>
      <trkpt lat="42.24009" lon="2.30536">
        <ele>803</ele>
        <time>2022-05-21 21:55:47</time>
      </trkpt>
      <trkpt lat="42.24005" lon="2.30531">
        <ele>803.2</ele>
        <time>2022-05-21 21:55:48</time>
      </trkpt>
      <trkpt lat="42.24002" lon="2.30527">
        <ele>803.4</ele>
        <time>2022-05-21 21:55:49</time>
      </trkpt>
      <trkpt lat="42.23998" lon="2.30521">
        <ele>803.6</ele>
        <time>2022-05-21 21:55:50</time>
      </trkpt>
      <trkpt lat="42.23995" lon="2.30516">
        <ele>803.8</ele>
        <time>2022-05-21 21:55:51</time>
      </trkpt>
      <trkpt lat="42.23992" lon="2.3051">
        <ele>804</ele>
        <time>2022-05-21 21:55:52</time>
      </trkpt>
      <trkpt lat="42.23988" lon="2.30504">
        <ele>804.2</ele>
        <time>2022-05-21 21:55:53</time>
      </trkpt>
      <trkpt lat="42.23984" lon="2.30499">
        <ele>804.4</ele>
        <time>2022-05-21 21:55:54</time>
      </trkpt>
      <trkpt lat="42.23981" lon="2.30493">
        <ele>804.6</ele>
        <time>2022-05-21 21:55:55</time>
      </trkpt>
      <trkpt lat="42.23977" lon="2.30488">
        <ele>804.8</ele>
        <time>2022-05-21 21:55:56</time>
      </trkpt>
      <trkpt lat="42.23973" lon="2.30483">
        <ele>805</ele>
        <time>2022-05-21 21:55:57</time>
      </trkpt>
      <trkpt lat="42.2397" lon="2.30478">
        <ele>805.2</ele>
        <time>2022-05-21 21:55:58</time>
      </trkpt>
      <trkpt lat="42.23967" lon="2.30473">
        <ele>805.4</ele>
        <time>2022-05-21 21:55:59</time>
      </trkpt>
      <trkpt lat="42.23964" lon="2.30468">
        <ele>805.6</ele>
        <time>2022-05-21 21:56:00</time>
      </trkpt>
      <trkpt lat="42.2396" lon="2.30463">
        <ele>805.6</ele>
        <time>2022-05-21 21:56:01</time>
      </trkpt>
      <trkpt lat="42.23957" lon="2.30457">
        <ele>805.8</ele>
        <time>2022-05-21 21:56:02</time>
      </trkpt>
      <trkpt lat="42.23955" lon="2.30452">
        <ele>805.8</ele>
        <time>2022-05-21 21:56:03</time>
      </trkpt>
      <trkpt lat="42.23952" lon="2.30446">
        <ele>805.8</ele>
        <time>2022-05-21 21:56:04</time>
      </trkpt>
      <trkpt lat="42.23949" lon="2.3044">
        <ele>805.8</ele>
        <time>2022-05-21 21:56:05</time>
      </trkpt>
      <trkpt lat="42.23947" lon="2.30434">
        <ele>805.8</ele>
        <time>2022-05-21 21:56:06</time>
      </trkpt>
      <trkpt lat="42.23943" lon="2.30428">
        <ele>805.8</ele>
        <time>2022-05-21 21:56:07</time>
      </trkpt>
      <trkpt lat="42.2394" lon="2.30422">
        <ele>805.6</ele>
        <time>2022-05-21 21:56:08</time>
      </trkpt>
      <trkpt lat="42.23938" lon="2.30415">
        <ele>805.6</ele>
        <time>2022-05-21 21:56:09</time>
      </trkpt>
      <trkpt lat="42.23935" lon="2.30407">
        <ele>805.6</ele>
        <time>2022-05-21 21:56:10</time>
      </trkpt>
      <trkpt lat="42.23932" lon="2.304">
        <ele>805.4</ele>
        <time>2022-05-21 21:56:11</time>
      </trkpt>
      <trkpt lat="42.23929" lon="2.30392">
        <ele>805.4</ele>
        <time>2022-05-21 21:56:12</time>
      </trkpt>
      <trkpt lat="42.23926" lon="2.30385">
        <ele>805.2</ele>
        <time>2022-05-21 21:56:13</time>
      </trkpt>
      <trkpt lat="42.23923" lon="2.30377">
        <ele>805.2</ele>
        <time>2022-05-21 21:56:14</time>
      </trkpt>
      <trkpt lat="42.2392" lon="2.30369">
        <ele>805.2</ele>
        <time>2022-05-21 21:56:15</time>
      </trkpt>
      <trkpt lat="42.23916" lon="2.30362">
        <ele>805.2</ele>
        <time>2022-05-21 21:56:16</time>
      </trkpt>
      <trkpt lat="42.23913" lon="2.30354">
        <ele>805</ele>
        <time>2022-05-21 21:56:17</time>
      </trkpt>
      <trkpt lat="42.2391" lon="2.30346">
        <ele>805</ele>
        <time>2022-05-21 21:56:18</time>
      </trkpt>
      <trkpt lat="42.23907" lon="2.30338">
        <ele>805</ele>
        <time>2022-05-21 21:56:19</time>
      </trkpt>
      <trkpt lat="42.23903" lon="2.30329">
        <ele>805</ele>
        <time>2022-05-21 21:56:20</time>
      </trkpt>
      <trkpt lat="42.239" lon="2.30321">
        <ele>805</ele>
        <time>2022-05-21 21:56:21</time>
      </trkpt>
      <trkpt lat="42.23897" lon="2.30312">
        <ele>805</ele>
        <time>2022-05-21 21:56:22</time>
      </trkpt>
      <trkpt lat="42.23894" lon="2.30304">
        <ele>804.8</ele>
        <time>2022-05-21 21:56:23</time>
      </trkpt>
      <trkpt lat="42.23891" lon="2.30296">
        <ele>804.8</ele>
        <time>2022-05-21 21:56:24</time>
      </trkpt>
      <trkpt lat="42.23887" lon="2.30288">
        <ele>805</ele>
        <time>2022-05-21 21:56:25</time>
      </trkpt>
      <trkpt lat="42.23884" lon="2.3028">
        <ele>805</ele>
        <time>2022-05-21 21:56:26</time>
      </trkpt>
      <trkpt lat="42.23879" lon="2.30273">
        <ele>804.8</ele>
        <time>2022-05-21 21:56:27</time>
      </trkpt>
      <trkpt lat="42.23875" lon="2.30266">
        <ele>804.8</ele>
        <time>2022-05-21 21:56:28</time>
      </trkpt>
      <trkpt lat="42.2387" lon="2.3026">
        <ele>804.8</ele>
        <time>2022-05-21 21:56:29</time>
      </trkpt>
      <trkpt lat="42.23865" lon="2.30254">
        <ele>804.8</ele>
        <time>2022-05-21 21:56:30</time>
      </trkpt>
      <trkpt lat="42.2386" lon="2.3025">
        <ele>805</ele>
        <time>2022-05-21 21:56:31</time>
      </trkpt>
      <trkpt lat="42.23854" lon="2.30245">
        <ele>805</ele>
        <time>2022-05-21 21:56:32</time>
      </trkpt>
      <trkpt lat="42.23848" lon="2.30242">
        <ele>805.2</ele>
        <time>2022-05-21 21:56:33</time>
      </trkpt>
      <trkpt lat="42.23842" lon="2.30239">
        <ele>805.4</ele>
        <time>2022-05-21 21:56:34</time>
      </trkpt>
      <trkpt lat="42.23836" lon="2.30236">
        <ele>805.4</ele>
        <time>2022-05-21 21:56:35</time>
      </trkpt>
      <trkpt lat="42.23831" lon="2.30233">
        <ele>805.6</ele>
        <time>2022-05-21 21:56:36</time>
      </trkpt>
      <trkpt lat="42.23825" lon="2.3023">
        <ele>805.8</ele>
        <time>2022-05-21 21:56:37</time>
      </trkpt>
      <trkpt lat="42.2382" lon="2.30227">
        <ele>806</ele>
        <time>2022-05-21 21:56:38</time>
      </trkpt>
      <trkpt lat="42.23814" lon="2.30223">
        <ele>806.2</ele>
        <time>2022-05-21 21:56:39</time>
      </trkpt>
      <trkpt lat="42.23809" lon="2.3022">
        <ele>806.4</ele>
        <time>2022-05-21 21:56:40</time>
      </trkpt>
      <trkpt lat="42.23804" lon="2.30216">
        <ele>806.6</ele>
        <time>2022-05-21 21:56:41</time>
      </trkpt>
      <trkpt lat="42.238" lon="2.30212">
        <ele>806.8</ele>
        <time>2022-05-21 21:56:42</time>
      </trkpt>
      <trkpt lat="42.23796" lon="2.30209">
        <ele>807.2</ele>
        <time>2022-05-21 21:56:43</time>
      </trkpt>
      <trkpt lat="42.23792" lon="2.30204">
        <ele>807.4</ele>
        <time>2022-05-21 21:56:44</time>
      </trkpt>
      <trkpt lat="42.23787" lon="2.30199">
        <ele>807.6</ele>
        <time>2022-05-21 21:56:45</time>
      </trkpt>
      <trkpt lat="42.23783" lon="2.30195">
        <ele>807.8</ele>
        <time>2022-05-21 21:56:46</time>
      </trkpt>
      <trkpt lat="42.2378" lon="2.3019">
        <ele>808</ele>
        <time>2022-05-21 21:56:47</time>
      </trkpt>
      <trkpt lat="42.23776" lon="2.30185">
        <ele>808.4</ele>
        <time>2022-05-21 21:56:48</time>
      </trkpt>
      <trkpt lat="42.23773" lon="2.30181">
        <ele>808.6</ele>
        <time>2022-05-21 21:56:49</time>
      </trkpt>
      <trkpt lat="42.2377" lon="2.30176">
        <ele>808.8</ele>
        <time>2022-05-21 21:56:50</time>
      </trkpt>
      <trkpt lat="42.23767" lon="2.30171">
        <ele>809.2</ele>
        <time>2022-05-21 21:56:51</time>
      </trkpt>
      <trkpt lat="42.23764" lon="2.30167">
        <ele>809.4</ele>
        <time>2022-05-21 21:56:52</time>
      </trkpt>
      <trkpt lat="42.23761" lon="2.30162">
        <ele>809.6</ele>
        <time>2022-05-21 21:56:53</time>
      </trkpt>
      <trkpt lat="42.23759" lon="2.30157">
        <ele>809.8</ele>
        <time>2022-05-21 21:56:54</time>
      </trkpt>
      <trkpt lat="42.23756" lon="2.30153">
        <ele>810</ele>
        <time>2022-05-21 21:56:55</time>
      </trkpt>
      <trkpt lat="42.23753" lon="2.30148">
        <ele>810.4</ele>
        <time>2022-05-21 21:56:56</time>
      </trkpt>
      <trkpt lat="42.23751" lon="2.30143">
        <ele>810.6</ele>
        <time>2022-05-21 21:56:57</time>
      </trkpt>
      <trkpt lat="42.23749" lon="2.30138">
        <ele>810.8</ele>
        <time>2022-05-21 21:56:58</time>
      </trkpt>
      <trkpt lat="42.23747" lon="2.30132">
        <ele>811</ele>
        <time>2022-05-21 21:56:59</time>
      </trkpt>
      <trkpt lat="42.23745" lon="2.30127">
        <ele>811.2</ele>
        <time>2022-05-21 21:57:00</time>
      </trkpt>
      <trkpt lat="42.23742" lon="2.30122">
        <ele>811.4</ele>
        <time>2022-05-21 21:57:01</time>
      </trkpt>
      <trkpt lat="42.2374" lon="2.30117">
        <ele>811.6</ele>
        <time>2022-05-21 21:57:02</time>
      </trkpt>
      <trkpt lat="42.23739" lon="2.30111">
        <ele>811.6</ele>
        <time>2022-05-21 21:57:03</time>
      </trkpt>
      <trkpt lat="42.23737" lon="2.30105">
        <ele>811.8</ele>
        <time>2022-05-21 21:57:04</time>
      </trkpt>
      <trkpt lat="42.23736" lon="2.301">
        <ele>812</ele>
        <time>2022-05-21 21:57:05</time>
      </trkpt>
      <trkpt lat="42.23734" lon="2.30094">
        <ele>812.2</ele>
        <time>2022-05-21 21:57:06</time>
      </trkpt>
      <trkpt lat="42.23733" lon="2.30089">
        <ele>812.2</ele>
        <time>2022-05-21 21:57:07</time>
      </trkpt>
      <trkpt lat="42.23731" lon="2.30084">
        <ele>812.2</ele>
        <time>2022-05-21 21:57:08</time>
      </trkpt>
      <trkpt lat="42.23729" lon="2.30078">
        <ele>812.4</ele>
        <time>2022-05-21 21:57:09</time>
      </trkpt>
      <trkpt lat="42.23728" lon="2.30073">
        <ele>812.6</ele>
        <time>2022-05-21 21:57:10</time>
      </trkpt>
      <trkpt lat="42.23727" lon="2.30067">
        <ele>812.8</ele>
        <time>2022-05-21 21:57:11</time>
      </trkpt>
      <trkpt lat="42.23726" lon="2.3006">
        <ele>812.8</ele>
        <time>2022-05-21 21:57:12</time>
      </trkpt>
      <trkpt lat="42.23726" lon="2.30053">
        <ele>812.8</ele>
        <time>2022-05-21 21:57:13</time>
      </trkpt>
      <trkpt lat="42.23726" lon="2.30045">
        <ele>812.8</ele>
        <time>2022-05-21 21:57:14</time>
      </trkpt>
      <trkpt lat="42.23726" lon="2.30038">
        <ele>812.8</ele>
        <time>2022-05-21 21:57:15</time>
      </trkpt>
      <trkpt lat="42.23727" lon="2.30031">
        <ele>812.8</ele>
        <time>2022-05-21 21:57:16</time>
      </trkpt>
      <trkpt lat="42.23728" lon="2.30024">
        <ele>812.8</ele>
        <time>2022-05-21 21:57:17</time>
      </trkpt>
      <trkpt lat="42.23729" lon="2.30016">
        <ele>812.8</ele>
        <time>2022-05-21 21:57:18</time>
      </trkpt>
      <trkpt lat="42.2373" lon="2.30009">
        <ele>812.8</ele>
        <time>2022-05-21 21:57:19</time>
      </trkpt>
      <trkpt lat="42.23732" lon="2.30001">
        <ele>812.6</ele>
        <time>2022-05-21 21:57:20</time>
      </trkpt>
      <trkpt lat="42.23734" lon="2.29994">
        <ele>812.6</ele>
        <time>2022-05-21 21:57:21</time>
      </trkpt>
      <trkpt lat="42.23736" lon="2.29986">
        <ele>812.6</ele>
        <time>2022-05-21 21:57:22</time>
      </trkpt>
      <trkpt lat="42.23739" lon="2.29979">
        <ele>812.6</ele>
        <time>2022-05-21 21:57:23</time>
      </trkpt>
      <trkpt lat="42.23742" lon="2.29972">
        <ele>812.4</ele>
        <time>2022-05-21 21:57:24</time>
      </trkpt>
      <trkpt lat="42.23744" lon="2.29965">
        <ele>812.4</ele>
        <time>2022-05-21 21:57:25</time>
      </trkpt>
      <trkpt lat="42.23747" lon="2.29957">
        <ele>812.2</ele>
        <time>2022-05-21 21:57:26</time>
      </trkpt>
      <trkpt lat="42.23751" lon="2.2995">
        <ele>812</ele>
        <time>2022-05-21 21:57:27</time>
      </trkpt>
      <trkpt lat="42.23754" lon="2.29942">
        <ele>811.8</ele>
        <time>2022-05-21 21:57:28</time>
      </trkpt>
      <trkpt lat="42.23756" lon="2.29934">
        <ele>811.6</ele>
        <time>2022-05-21 21:57:29</time>
      </trkpt>
      <trkpt lat="42.23759" lon="2.29926">
        <ele>811.4</ele>
        <time>2022-05-21 21:57:30</time>
      </trkpt>
      <trkpt lat="42.23763" lon="2.29916">
        <ele>811.2</ele>
        <time>2022-05-21 21:57:31</time>
      </trkpt>
      <trkpt lat="42.23766" lon="2.29907">
        <ele>810.8</ele>
        <time>2022-05-21 21:57:32</time>
      </trkpt>
      <trkpt lat="42.23768" lon="2.29898">
        <ele>810.6</ele>
        <time>2022-05-21 21:57:33</time>
      </trkpt>
      <trkpt lat="42.2377" lon="2.29889">
        <ele>810.2</ele>
        <time>2022-05-21 21:57:34</time>
      </trkpt>
      <trkpt lat="42.23772" lon="2.29878">
        <ele>809.8</ele>
        <time>2022-05-21 21:57:35</time>
      </trkpt>
      <trkpt lat="42.23773" lon="2.29867">
        <ele>809.4</ele>
        <time>2022-05-21 21:57:36</time>
      </trkpt>
      <trkpt lat="42.23774" lon="2.29856">
        <ele>809</ele>
        <time>2022-05-21 21:57:37</time>
      </trkpt>
      <trkpt lat="42.23775" lon="2.29844">
        <ele>808.6</ele>
        <time>2022-05-21 21:57:38</time>
      </trkpt>
      <trkpt lat="42.23774" lon="2.29833">
        <ele>808</ele>
        <time>2022-05-21 21:57:39</time>
      </trkpt>
      <trkpt lat="42.23773" lon="2.2982">
        <ele>807.4</ele>
        <time>2022-05-21 21:57:40</time>
      </trkpt>
      <trkpt lat="42.23772" lon="2.29808">
        <ele>807</ele>
        <time>2022-05-21 21:57:41</time>
      </trkpt>
      <trkpt lat="42.23769" lon="2.29796">
        <ele>806.4</ele>
        <time>2022-05-21 21:57:42</time>
      </trkpt>
      <trkpt lat="42.23766" lon="2.29785">
        <ele>805.8</ele>
        <time>2022-05-21 21:57:43</time>
      </trkpt>
      <trkpt lat="42.23761" lon="2.29773">
        <ele>805.2</ele>
        <time>2022-05-21 21:57:44</time>
      </trkpt>
      <trkpt lat="42.23756" lon="2.29763">
        <ele>804.4</ele>
        <time>2022-05-21 21:57:45</time>
      </trkpt>
      <trkpt lat="42.23751" lon="2.29752">
        <ele>803.8</ele>
        <time>2022-05-21 21:57:46</time>
      </trkpt>
      <trkpt lat="42.23745" lon="2.29742">
        <ele>803.2</ele>
        <time>2022-05-21 21:57:47</time>
      </trkpt>
      <trkpt lat="42.23739" lon="2.29733">
        <ele>802.6</ele>
        <time>2022-05-21 21:57:48</time>
      </trkpt>
      <trkpt lat="42.23733" lon="2.29722">
        <ele>802</ele>
        <time>2022-05-21 21:57:49</time>
      </trkpt>
      <trkpt lat="42.23725" lon="2.2971">
        <ele>801.4</ele>
        <time>2022-05-21 21:57:50</time>
      </trkpt>
      <trkpt lat="42.23719" lon="2.29699">
        <ele>800.8</ele>
        <time>2022-05-21 21:57:51</time>
      </trkpt>
      <trkpt lat="42.23713" lon="2.29687">
        <ele>800</ele>
        <time>2022-05-21 21:57:52</time>
      </trkpt>
      <trkpt lat="42.23708" lon="2.29674">
        <ele>799.4</ele>
        <time>2022-05-21 21:57:53</time>
      </trkpt>
      <trkpt lat="42.23702" lon="2.2966">
        <ele>798.6</ele>
        <time>2022-05-21 21:57:54</time>
      </trkpt>
      <trkpt lat="42.23697" lon="2.29646">
        <ele>798</ele>
        <time>2022-05-21 21:57:55</time>
      </trkpt>
      <trkpt lat="42.23692" lon="2.29631">
        <ele>797.4</ele>
        <time>2022-05-21 21:57:56</time>
      </trkpt>
      <trkpt lat="42.23687" lon="2.29616">
        <ele>796.6</ele>
        <time>2022-05-21 21:57:57</time>
      </trkpt>
      <trkpt lat="42.23682" lon="2.29601">
        <ele>796</ele>
        <time>2022-05-21 21:57:58</time>
      </trkpt>
      <trkpt lat="42.23678" lon="2.29587">
        <ele>795.4</ele>
        <time>2022-05-21 21:57:59</time>
      </trkpt>
      <trkpt lat="42.23673" lon="2.29573">
        <ele>794.6</ele>
        <time>2022-05-21 21:58:00</time>
      </trkpt>
      <trkpt lat="42.23669" lon="2.29558">
        <ele>794</ele>
        <time>2022-05-21 21:58:01</time>
      </trkpt>
      <trkpt lat="42.23664" lon="2.29543">
        <ele>793.2</ele>
        <time>2022-05-21 21:58:02</time>
      </trkpt>
      <trkpt lat="42.2366" lon="2.29527">
        <ele>792.4</ele>
        <time>2022-05-21 21:58:03</time>
      </trkpt>
      <trkpt lat="42.23655" lon="2.29513">
        <ele>791.8</ele>
        <time>2022-05-21 21:58:04</time>
      </trkpt>
      <trkpt lat="42.2365" lon="2.29499">
        <ele>791.2</ele>
        <time>2022-05-21 21:58:05</time>
      </trkpt>
      <trkpt lat="42.23645" lon="2.29484">
        <ele>790.6</ele>
        <time>2022-05-21 21:58:06</time>
      </trkpt>
      <trkpt lat="42.2364" lon="2.29469">
        <ele>790</ele>
        <time>2022-05-21 21:58:07</time>
      </trkpt>
      <trkpt lat="42.23635" lon="2.29456">
        <ele>789.6</ele>
        <time>2022-05-21 21:58:08</time>
      </trkpt>
      <trkpt lat="42.23631" lon="2.29443">
        <ele>789.4</ele>
        <time>2022-05-21 21:58:09</time>
      </trkpt>
      <trkpt lat="42.23626" lon="2.2943">
        <ele>789.2</ele>
        <time>2022-05-21 21:58:10</time>
      </trkpt>
      <trkpt lat="42.23622" lon="2.29417">
        <ele>789</ele>
        <time>2022-05-21 21:58:11</time>
      </trkpt>
      <trkpt lat="42.23618" lon="2.29406">
        <ele>788.8</ele>
        <time>2022-05-21 21:58:12</time>
      </trkpt>
      <trkpt lat="42.23614" lon="2.29394">
        <ele>788.8</ele>
        <time>2022-05-21 21:58:13</time>
      </trkpt>
      <trkpt lat="42.2361" lon="2.29382">
        <ele>788.8</ele>
        <time>2022-05-21 21:58:14</time>
      </trkpt>
      <trkpt lat="42.23607" lon="2.29371">
        <ele>788.8</ele>
        <time>2022-05-21 21:58:15</time>
      </trkpt>
      <trkpt lat="42.23604" lon="2.2936">
        <ele>788.8</ele>
        <time>2022-05-21 21:58:16</time>
      </trkpt>
      <trkpt lat="42.236" lon="2.29348">
        <ele>788.8</ele>
        <time>2022-05-21 21:58:17</time>
      </trkpt>
      <trkpt lat="42.23597" lon="2.29336">
        <ele>788.8</ele>
        <time>2022-05-21 21:58:18</time>
      </trkpt>
      <trkpt lat="42.23594" lon="2.29325">
        <ele>788.8</ele>
        <time>2022-05-21 21:58:19</time>
      </trkpt>
      <trkpt lat="42.23591" lon="2.29315">
        <ele>789</ele>
        <time>2022-05-21 21:58:20</time>
      </trkpt>
      <trkpt lat="42.23587" lon="2.29304">
        <ele>789</ele>
        <time>2022-05-21 21:58:21</time>
      </trkpt>
      <trkpt lat="42.23584" lon="2.29294">
        <ele>789</ele>
        <time>2022-05-21 21:58:22</time>
      </trkpt>
      <trkpt lat="42.23581" lon="2.29284">
        <ele>789.2</ele>
        <time>2022-05-21 21:58:23</time>
      </trkpt>
      <trkpt lat="42.23579" lon="2.29274">
        <ele>789.2</ele>
        <time>2022-05-21 21:58:24</time>
      </trkpt>
      <trkpt lat="42.23577" lon="2.29264">
        <ele>789.2</ele>
        <time>2022-05-21 21:58:25</time>
      </trkpt>
      <trkpt lat="42.23577" lon="2.29254">
        <ele>789.4</ele>
        <time>2022-05-21 21:58:26</time>
      </trkpt>
      <trkpt lat="42.23577" lon="2.29245">
        <ele>789.4</ele>
        <time>2022-05-21 21:58:27</time>
      </trkpt>
      <trkpt lat="42.23576" lon="2.29236">
        <ele>789.4</ele>
        <time>2022-05-21 21:58:28</time>
      </trkpt>
      <trkpt lat="42.23575" lon="2.29227">
        <ele>789.4</ele>
        <time>2022-05-21 21:58:29</time>
      </trkpt>
      <trkpt lat="42.23572" lon="2.29219">
        <ele>789.4</ele>
        <time>2022-05-21 21:58:30</time>
      </trkpt>
      <trkpt lat="42.23569" lon="2.29212">
        <ele>789.6</ele>
        <time>2022-05-21 21:58:31</time>
      </trkpt>
      <trkpt lat="42.23565" lon="2.29206">
        <ele>789.6</ele>
        <time>2022-05-21 21:58:32</time>
      </trkpt>
      <trkpt lat="42.23562" lon="2.292">
        <ele>789.6</ele>
        <time>2022-05-21 21:58:33</time>
      </trkpt>
      <trkpt lat="42.2356" lon="2.29194">
        <ele>789.8</ele>
        <time>2022-05-21 21:58:34</time>
      </trkpt>
      <trkpt lat="42.23558" lon="2.29189">
        <ele>789.8</ele>
        <time>2022-05-21 21:58:35</time>
      </trkpt>
      <trkpt lat="42.23556" lon="2.29184">
        <ele>790</ele>
        <time>2022-05-21 21:58:36</time>
      </trkpt>
      <trkpt lat="42.23555" lon="2.2918">
        <ele>790</ele>
        <time>2022-05-21 21:58:37</time>
      </trkpt>
      <trkpt lat="42.23555" lon="2.29177">
        <ele>790.2</ele>
        <time>2022-05-21 21:58:38</time>
      </trkpt>
      <trkpt lat="42.23552" lon="2.29181">
        <ele>790.4</ele>
        <time>2022-05-21 21:59:15</time>
      </trkpt>
      <trkpt lat="42.23551" lon="2.2918">
        <ele>790.4</ele>
        <time>2022-05-21 21:59:16</time>
      </trkpt>
      <trkpt lat="42.2355" lon="2.29179">
        <ele>790.4</ele>
        <time>2022-05-21 21:59:17</time>
      </trkpt>
      <trkpt lat="42.2355" lon="2.29177">
        <ele>790.4</ele>
        <time>2022-05-21 21:59:18</time>
      </trkpt>
      <trkpt lat="42.23549" lon="2.29176">
        <ele>790.4</ele>
        <time>2022-05-21 21:59:19</time>
      </trkpt>
      <trkpt lat="42.23547" lon="2.29174">
        <ele>790.4</ele>
        <time>2022-05-21 21:59:20</time>
      </trkpt>
      <trkpt lat="42.23545" lon="2.29172">
        <ele>790.4</ele>
        <time>2022-05-21 21:59:21</time>
      </trkpt>
      <trkpt lat="42.23543" lon="2.29169">
        <ele>790.2</ele>
        <time>2022-05-21 21:59:22</time>
      </trkpt>
      <trkpt lat="42.23541" lon="2.29165">
        <ele>790.2</ele>
        <time>2022-05-21 21:59:23</time>
      </trkpt>
      <trkpt lat="42.2354" lon="2.2916">
        <ele>790</ele>
        <time>2022-05-21 21:59:24</time>
      </trkpt>
      <trkpt lat="42.23538" lon="2.29155">
        <ele>789.8</ele>
        <time>2022-05-21 21:59:25</time>
      </trkpt>
      <trkpt lat="42.23537" lon="2.29149">
        <ele>789.6</ele>
        <time>2022-05-21 21:59:26</time>
      </trkpt>
      <trkpt lat="42.23535" lon="2.29144">
        <ele>789.4</ele>
        <time>2022-05-21 21:59:27</time>
      </trkpt>
      <trkpt lat="42.23533" lon="2.29138">
        <ele>789.4</ele>
        <time>2022-05-21 21:59:28</time>
      </trkpt>
      <trkpt lat="42.23531" lon="2.29131">
        <ele>789.2</ele>
        <time>2022-05-21 21:59:29</time>
      </trkpt>
      <trkpt lat="42.23529" lon="2.29124">
        <ele>789</ele>
        <time>2022-05-21 21:59:30</time>
      </trkpt>
      <trkpt lat="42.23527" lon="2.29118">
        <ele>788.6</ele>
        <time>2022-05-21 21:59:31</time>
      </trkpt>
      <trkpt lat="42.23525" lon="2.29111">
        <ele>788.4</ele>
        <time>2022-05-21 21:59:32</time>
      </trkpt>
      <trkpt lat="42.23523" lon="2.29104">
        <ele>788.2</ele>
        <time>2022-05-21 21:59:33</time>
      </trkpt>
      <trkpt lat="42.23521" lon="2.29097">
        <ele>788</ele>
        <time>2022-05-21 21:59:34</time>
      </trkpt>
      <trkpt lat="42.23518" lon="2.2909">
        <ele>787.8</ele>
        <time>2022-05-21 21:59:35</time>
      </trkpt>
      <trkpt lat="42.23516" lon="2.29083">
        <ele>787.6</ele>
        <time>2022-05-21 21:59:36</time>
      </trkpt>
      <trkpt lat="42.23515" lon="2.29076">
        <ele>787.4</ele>
        <time>2022-05-21 21:59:37</time>
      </trkpt>
      <trkpt lat="42.23512" lon="2.29069">
        <ele>787</ele>
        <time>2022-05-21 21:59:38</time>
      </trkpt>
      <trkpt lat="42.2351" lon="2.29062">
        <ele>786.8</ele>
        <time>2022-05-21 21:59:39</time>
      </trkpt>
      <trkpt lat="42.23507" lon="2.29054">
        <ele>786.6</ele>
        <time>2022-05-21 21:59:40</time>
      </trkpt>
      <trkpt lat="42.23505" lon="2.29046">
        <ele>786.4</ele>
        <time>2022-05-21 21:59:41</time>
      </trkpt>
      <trkpt lat="42.23503" lon="2.29039">
        <ele>786</ele>
        <time>2022-05-21 21:59:42</time>
      </trkpt>
      <trkpt lat="42.235" lon="2.29031">
        <ele>785.8</ele>
        <time>2022-05-21 21:59:43</time>
      </trkpt>
      <trkpt lat="42.23497" lon="2.29024">
        <ele>785.6</ele>
        <time>2022-05-21 21:59:44</time>
      </trkpt>
      <trkpt lat="42.23494" lon="2.29016">
        <ele>785.2</ele>
        <time>2022-05-21 21:59:45</time>
      </trkpt>
      <trkpt lat="42.23492" lon="2.29008">
        <ele>785</ele>
        <time>2022-05-21 21:59:46</time>
      </trkpt>
      <trkpt lat="42.23488" lon="2.29">
        <ele>784.8</ele>
        <time>2022-05-21 21:59:47</time>
      </trkpt>
      <trkpt lat="42.23486" lon="2.28992">
        <ele>784.6</ele>
        <time>2022-05-21 21:59:48</time>
      </trkpt>
      <trkpt lat="42.23483" lon="2.28983">
        <ele>784.6</ele>
        <time>2022-05-21 21:59:49</time>
      </trkpt>
      <trkpt lat="42.2348" lon="2.28976">
        <ele>784.4</ele>
        <time>2022-05-21 21:59:50</time>
      </trkpt>
      <trkpt lat="42.23477" lon="2.28969">
        <ele>784.4</ele>
        <time>2022-05-21 21:59:51</time>
      </trkpt>
      <trkpt lat="42.23473" lon="2.28965">
        <ele>784.4</ele>
        <time>2022-05-21 21:59:52</time>
      </trkpt>
      <trkpt lat="42.2347" lon="2.28961">
        <ele>784.4</ele>
        <time>2022-05-21 21:59:53</time>
      </trkpt>
      <trkpt lat="42.23467" lon="2.28957">
        <ele>784.4</ele>
        <time>2022-05-21 21:59:54</time>
      </trkpt>
      <trkpt lat="42.23464" lon="2.28954">
        <ele>784.4</ele>
        <time>2022-05-21 21:59:55</time>
      </trkpt>
      <trkpt lat="42.23463" lon="2.28951">
        <ele>784.4</ele>
        <time>2022-05-21 21:59:56</time>
      </trkpt>
      <trkpt lat="42.23461" lon="2.28949">
        <ele>784.4</ele>
        <time>2022-05-21 21:59:57</time>
      </trkpt>
      <trkpt lat="42.23459" lon="2.28947">
        <ele>784.2</ele>
        <time>2022-05-21 21:59:58</time>
      </trkpt>
      <trkpt lat="42.23456" lon="2.28944">
        <ele>784.2</ele>
        <time>2022-05-21 21:59:59</time>
      </trkpt>
      <trkpt lat="42.23453" lon="2.28941">
        <ele>784.2</ele>
        <time>2022-05-21 22:00:00</time>
      </trkpt>
      <trkpt lat="42.2345" lon="2.28937">
        <ele>784.2</ele>
        <time>2022-05-21 22:00:01</time>
      </trkpt>
      <trkpt lat="42.23447" lon="2.28933">
        <ele>784.2</ele>
        <time>2022-05-21 22:00:02</time>
      </trkpt>
      <trkpt lat="42.23445" lon="2.28928">
        <ele>784</ele>
        <time>2022-05-21 22:00:03</time>
      </trkpt>
      <trkpt lat="42.23443" lon="2.28923">
        <ele>784</ele>
        <time>2022-05-21 22:00:04</time>
      </trkpt>
      <trkpt lat="42.23441" lon="2.28918">
        <ele>784</ele>
        <time>2022-05-21 22:00:05</time>
      </trkpt>
      <trkpt lat="42.23439" lon="2.28912">
        <ele>784</ele>
        <time>2022-05-21 22:00:06</time>
      </trkpt>
      <trkpt lat="42.23439" lon="2.28907">
        <ele>783.8</ele>
        <time>2022-05-21 22:00:07</time>
      </trkpt>
      <trkpt lat="42.23439" lon="2.28901">
        <ele>783.8</ele>
        <time>2022-05-21 22:00:08</time>
      </trkpt>
      <trkpt lat="42.2344" lon="2.28896">
        <ele>783.6</ele>
        <time>2022-05-21 22:00:09</time>
      </trkpt>
      <trkpt lat="42.23441" lon="2.2889">
        <ele>783.4</ele>
        <time>2022-05-21 22:00:10</time>
      </trkpt>
      <trkpt lat="42.23442" lon="2.28884">
        <ele>783.2</ele>
        <time>2022-05-21 22:00:11</time>
      </trkpt>
      <trkpt lat="42.23443" lon="2.28879">
        <ele>783</ele>
        <time>2022-05-21 22:00:12</time>
      </trkpt>
      <trkpt lat="42.23445" lon="2.28872">
        <ele>782.6</ele>
        <time>2022-05-21 22:00:13</time>
      </trkpt>
      <trkpt lat="42.23446" lon="2.28866">
        <ele>782.4</ele>
        <time>2022-05-21 22:00:14</time>
      </trkpt>
      <trkpt lat="42.23447" lon="2.2886">
        <ele>782.2</ele>
        <time>2022-05-21 22:00:15</time>
      </trkpt>
      <trkpt lat="42.23449" lon="2.28854">
        <ele>782</ele>
        <time>2022-05-21 22:00:16</time>
      </trkpt>
      <trkpt lat="42.23449" lon="2.28847">
        <ele>781.6</ele>
        <time>2022-05-21 22:00:17</time>
      </trkpt>
      <trkpt lat="42.2345" lon="2.2884">
        <ele>781.4</ele>
        <time>2022-05-21 22:00:18</time>
      </trkpt>
      <trkpt lat="42.23449" lon="2.28835">
        <ele>781.2</ele>
        <time>2022-05-21 22:00:19</time>
      </trkpt>
      <trkpt lat="42.23448" lon="2.28829">
        <ele>781</ele>
        <time>2022-05-21 22:00:20</time>
      </trkpt>
      <trkpt lat="42.23447" lon="2.28825">
        <ele>780.8</ele>
        <time>2022-05-21 22:00:21</time>
      </trkpt>
      <trkpt lat="42.23446" lon="2.28822">
        <ele>780.6</ele>
        <time>2022-05-21 22:00:22</time>
      </trkpt>
      <trkpt lat="42.23445" lon="2.28818">
        <ele>780.6</ele>
        <time>2022-05-21 22:00:23</time>
      </trkpt>
      <trkpt lat="42.23445" lon="2.28816">
        <ele>780.4</ele>
        <time>2022-05-21 22:00:24</time>
      </trkpt>
      <trkpt lat="42.23444" lon="2.28814">
        <ele>780.4</ele>
        <time>2022-05-21 22:00:25</time>
      </trkpt>
      <trkpt lat="42.23444" lon="2.28813">
        <ele>780.4</ele>
        <time>2022-05-21 22:00:26</time>
      </trkpt>
      <trkpt lat="42.23442" lon="2.2881">
        <ele>780.2</ele>
        <time>2022-05-21 22:00:27</time>
      </trkpt>
      <trkpt lat="42.23441" lon="2.28808">
        <ele>780.2</ele>
        <time>2022-05-21 22:00:28</time>
      </trkpt>
      <trkpt lat="42.2344" lon="2.28805">
        <ele>780</ele>
        <time>2022-05-21 22:00:29</time>
      </trkpt>
      <trkpt lat="42.23439" lon="2.28803">
        <ele>780</ele>
        <time>2022-05-21 22:00:30</time>
      </trkpt>
      <trkpt lat="42.23439" lon="2.28801">
        <ele>780</ele>
        <time>2022-05-21 22:00:31</time>
      </trkpt>
      <trkpt lat="42.23437" lon="2.28797">
        <ele>779.8</ele>
        <time>2022-05-21 22:00:32</time>
      </trkpt>
      <trkpt lat="42.23435" lon="2.28794">
        <ele>779.6</ele>
        <time>2022-05-21 22:00:33</time>
      </trkpt>
      <trkpt lat="42.23434" lon="2.2879">
        <ele>779.6</ele>
        <time>2022-05-21 22:00:34</time>
      </trkpt>
      <trkpt lat="42.23433" lon="2.28787">
        <ele>779.4</ele>
        <time>2022-05-21 22:00:35</time>
      </trkpt>
      <trkpt lat="42.23431" lon="2.28783">
        <ele>779.2</ele>
        <time>2022-05-21 22:00:36</time>
      </trkpt>
      <trkpt lat="42.2343" lon="2.28779">
        <ele>779.2</ele>
        <time>2022-05-21 22:00:37</time>
      </trkpt>
      <trkpt lat="42.23429" lon="2.28777">
        <ele>779</ele>
        <time>2022-05-21 22:00:38</time>
      </trkpt>
      <trkpt lat="42.23428" lon="2.28769">
        <ele>779</ele>
        <time>2022-05-21 22:00:39</time>
      </trkpt>
      <trkpt lat="42.23426" lon="2.28765">
        <ele>778.8</ele>
        <time>2022-05-21 22:00:40</time>
      </trkpt>
      <trkpt lat="42.23425" lon="2.2876">
        <ele>778.8</ele>
        <time>2022-05-21 22:00:41</time>
      </trkpt>
      <trkpt lat="42.23424" lon="2.28755">
        <ele>778.6</ele>
        <time>2022-05-21 22:00:42</time>
      </trkpt>
      <trkpt lat="42.23423" lon="2.28752">
        <ele>778.6</ele>
        <time>2022-05-21 22:00:43</time>
      </trkpt>
      <trkpt lat="42.23421" lon="2.28749">
        <ele>778.4</ele>
        <time>2022-05-21 22:00:44</time>
      </trkpt>
      <trkpt lat="42.23418" lon="2.28741">
        <ele>778.4</ele>
        <time>2022-05-21 22:00:45</time>
      </trkpt>
      <trkpt lat="42.23417" lon="2.28737">
        <ele>778.4</ele>
        <time>2022-05-21 22:00:46</time>
      </trkpt>
      <trkpt lat="42.23416" lon="2.28734">
        <ele>778.4</ele>
        <time>2022-05-21 22:00:47</time>
      </trkpt>
      <trkpt lat="42.23414" lon="2.28728">
        <ele>778.4</ele>
        <time>2022-05-21 22:00:48</time>
      </trkpt>
      <trkpt lat="42.23414" lon="2.28726">
        <ele>778.4</ele>
        <time>2022-05-21 22:00:49</time>
      </trkpt>
      <trkpt lat="42.23414" lon="2.28725">
        <ele>778.4</ele>
        <time>2022-05-21 22:00:50</time>
      </trkpt>
      <trkpt lat="42.23419" lon="2.2872">
        <ele>778.4</ele>
        <time>2022-05-21 22:00:51</time>
      </trkpt>
      <trkpt lat="42.23421" lon="2.28719">
        <ele>778.4</ele>
        <time>2022-05-21 22:00:52</time>
      </trkpt>
      <trkpt lat="42.23421" lon="2.28719">
        <ele>778.4</ele>
        <time>2022-05-21 22:00:53</time>
      </trkpt>
      <trkpt lat="42.23421" lon="2.28719">
        <ele>778.4</ele>
        <time>2022-05-21 22:00:54</time>
      </trkpt>
      <trkpt lat="42.2342" lon="2.28698">
        <ele>778.4</ele>
        <time>2022-05-21 22:17:14</time>
      </trkpt>
      <trkpt lat="42.23419" lon="2.28697">
        <ele>778.4</ele>
        <time>2022-05-21 22:17:15</time>
      </trkpt>
      <trkpt lat="42.23419" lon="2.28696">
        <ele>778.4</ele>
        <time>2022-05-21 22:17:16</time>
      </trkpt>
      <trkpt lat="42.23418" lon="2.28695">
        <ele>778.4</ele>
        <time>2022-05-21 22:17:17</time>
      </trkpt>
      <trkpt lat="42.23418" lon="2.28694">
        <ele>778.4</ele>
        <time>2022-05-21 22:17:18</time>
      </trkpt>
      <trkpt lat="42.23418" lon="2.28694">
        <ele>778.4</ele>
        <time>2022-05-21 22:17:19</time>
      </trkpt>
      <trkpt lat="42.23418" lon="2.28694">
        <ele>778.4</ele>
        <time>2022-05-21 22:17:20</time>
      </trkpt>
      <trkpt lat="42.23418" lon="2.28694">
        <ele>778.4</ele>
        <time>2022-05-21 22:17:21</time>
      </trkpt>
      <trkpt lat="42.23418" lon="2.28694">
        <ele>778.4</ele>
        <time>2022-05-21 22:17:22</time>
      </trkpt>
      <trkpt lat="42.23418" lon="2.28694">
        <ele>778.4</ele>
        <time>2022-05-21 22:17:23</time>
      </trkpt>
      <trkpt lat="42.23418" lon="2.28694">
        <ele>778.4</ele>
        <time>2022-05-21 22:17:24</time>
      </trkpt>
      <trkpt lat="42.23418" lon="2.28694">
        <ele>778.4</ele>
        <time>2022-05-21 22:17:25</time>
      </trkpt>
      <trkpt lat="42.23414" lon="2.28682">
        <ele>778.4</ele>
        <time>2022-05-21 22:17:35</time>
      </trkpt>
      <trkpt lat="42.23414" lon="2.28681">
        <ele>778.4</ele>
        <time>2022-05-21 22:17:36</time>
      </trkpt>
      <trkpt lat="42.23414" lon="2.28679">
        <ele>778.4</ele>
        <time>2022-05-21 22:17:37</time>
      </trkpt>
      <trkpt lat="42.23415" lon="2.28678">
        <ele>778.2</ele>
        <time>2022-05-21 22:17:38</time>
      </trkpt>
      <trkpt lat="42.23415" lon="2.28678">
        <ele>778.2</ele>
        <time>2022-05-21 22:17:39</time>
      </trkpt>
      <trkpt lat="42.23415" lon="2.28678">
        <ele>778.2</ele>
        <time>2022-05-21 22:17:40</time>
      </trkpt>
      <trkpt lat="42.23415" lon="2.28678">
        <ele>778.2</ele>
        <time>2022-05-21 22:17:41</time>
      </trkpt>
      <trkpt lat="42.23414" lon="2.28675">
        <ele>778.2</ele>
        <time>2022-05-21 22:17:42</time>
      </trkpt>
      <trkpt lat="42.23414" lon="2.2867">
        <ele>778.2</ele>
        <time>2022-05-21 22:17:43</time>
      </trkpt>
      <trkpt lat="42.23414" lon="2.28668">
        <ele>778.2</ele>
        <time>2022-05-21 22:17:44</time>
      </trkpt>
      <trkpt lat="42.23415" lon="2.28667">
        <ele>778.2</ele>
        <time>2022-05-21 22:17:45</time>
      </trkpt>
      <trkpt lat="42.23415" lon="2.28665">
        <ele>778.2</ele>
        <time>2022-05-21 22:17:46</time>
      </trkpt>
      <trkpt lat="42.23415" lon="2.28663">
        <ele>778.2</ele>
        <time>2022-05-21 22:17:47</time>
      </trkpt>
      <trkpt lat="42.23415" lon="2.28662">
        <ele>778</ele>
        <time>2022-05-21 22:17:48</time>
      </trkpt>
      <trkpt lat="42.23415" lon="2.28661">
        <ele>778</ele>
        <time>2022-05-21 22:17:49</time>
      </trkpt>
      <trkpt lat="42.23415" lon="2.2866">
        <ele>778</ele>
        <time>2022-05-21 22:17:50</time>
      </trkpt>
      <trkpt lat="42.23415" lon="2.2866">
        <ele>778</ele>
        <time>2022-05-21 22:17:51</time>
      </trkpt>
      <trkpt lat="42.23415" lon="2.2866">
        <ele>778.2</ele>
        <time>2022-05-21 22:17:52</time>
      </trkpt>
      <trkpt lat="42.23415" lon="2.2866">
        <ele>778.2</ele>
        <time>2022-05-21 22:17:53</time>
      </trkpt>
      <trkpt lat="42.23415" lon="2.2866">
        <ele>778.2</ele>
        <time>2022-05-21 22:17:54</time>
      </trkpt>
      <trkpt lat="42.23408" lon="2.28669">
        <ele>778.4</ele>
        <time>2022-05-21 22:40:45</time>
      </trkpt>
      <trkpt lat="42.23408" lon="2.2867">
        <ele>778.4</ele>
        <time>2022-05-21 22:40:46</time>
      </trkpt>
      <trkpt lat="42.23407" lon="2.28671">
        <ele>778.4</ele>
        <time>2022-05-21 22:40:47</time>
      </trkpt>
      <trkpt lat="42.23407" lon="2.28671">
        <ele>778.4</ele>
        <time>2022-05-21 22:40:48</time>
      </trkpt>
      <trkpt lat="42.23407" lon="2.28671">
        <ele>778.4</ele>
        <time>2022-05-21 22:40:49</time>
      </trkpt>
      <trkpt lat="42.23407" lon="2.28671">
        <ele>778.4</ele>
        <time>2022-05-21 22:40:50</time>
      </trkpt>
      <trkpt lat="42.23407" lon="2.28671">
        <ele>778.4</ele>
        <time>2022-05-21 22:40:51</time>
      </trkpt>
      <trkpt lat="42.23407" lon="2.28671">
        <ele>778.4</ele>
        <time>2022-05-21 22:40:52</time>
      </trkpt>
      <trkpt lat="42.23407" lon="2.28671">
        <ele>778.4</ele>
        <time>2022-05-21 22:40:58</time>
      </trkpt>
      <trkpt lat="42.23407" lon="2.28676">
        <ele>778.4</ele>
        <time>2022-05-21 22:40:59</time>
      </trkpt>
      <trkpt lat="42.23406" lon="2.28681">
        <ele>778.4</ele>
        <time>2022-05-21 22:41:00</time>
      </trkpt>
      <trkpt lat="42.23407" lon="2.28682">
        <ele>778.4</ele>
        <time>2022-05-21 22:41:01</time>
      </trkpt>
      <trkpt lat="42.23408" lon="2.28685">
        <ele>778.4</ele>
        <time>2022-05-21 22:41:02</time>
      </trkpt>
      <trkpt lat="42.23409" lon="2.28688">
        <ele>778.4</ele>
        <time>2022-05-21 22:41:03</time>
      </trkpt>
      <trkpt lat="42.2341" lon="2.2869">
        <ele>778.4</ele>
        <time>2022-05-21 22:41:04</time>
      </trkpt>
      <trkpt lat="42.23411" lon="2.28693">
        <ele>778.6</ele>
        <time>2022-05-21 22:41:05</time>
      </trkpt>
      <trkpt lat="42.23412" lon="2.28697">
        <ele>778.6</ele>
        <time>2022-05-21 22:41:06</time>
      </trkpt>
      <trkpt lat="42.23412" lon="2.287">
        <ele>778.6</ele>
        <time>2022-05-21 22:41:07</time>
      </trkpt>
      <trkpt lat="42.23413" lon="2.28704">
        <ele>778.6</ele>
        <time>2022-05-21 22:41:08</time>
      </trkpt>
      <trkpt lat="42.23415" lon="2.28707">
        <ele>778.6</ele>
        <time>2022-05-21 22:41:09</time>
      </trkpt>
      <trkpt lat="42.23417" lon="2.28711">
        <ele>778.6</ele>
        <time>2022-05-21 22:41:10</time>
      </trkpt>
      <trkpt lat="42.23419" lon="2.28715">
        <ele>778.6</ele>
        <time>2022-05-21 22:41:11</time>
      </trkpt>
      <trkpt lat="42.2342" lon="2.28719">
        <ele>778.8</ele>
        <time>2022-05-21 22:41:12</time>
      </trkpt>
      <trkpt lat="42.23421" lon="2.28721">
        <ele>778.8</ele>
        <time>2022-05-21 22:41:13</time>
      </trkpt>
      <trkpt lat="42.23423" lon="2.28726">
        <ele>778.8</ele>
        <time>2022-05-21 22:41:14</time>
      </trkpt>
      <trkpt lat="42.23424" lon="2.28729">
        <ele>779</ele>
        <time>2022-05-21 22:41:15</time>
      </trkpt>
      <trkpt lat="42.23424" lon="2.2873">
        <ele>779</ele>
        <time>2022-05-21 22:41:16</time>
      </trkpt>
      <trkpt lat="42.23424" lon="2.28732">
        <ele>779</ele>
        <time>2022-05-21 22:41:17</time>
      </trkpt>
      <trkpt lat="42.23425" lon="2.28733">
        <ele>779.2</ele>
        <time>2022-05-21 22:41:18</time>
      </trkpt>
      <trkpt lat="42.23425" lon="2.28733">
        <ele>779.2</ele>
        <time>2022-05-21 22:41:19</time>
      </trkpt>
      <trkpt lat="42.23425" lon="2.28733">
        <ele>779.2</ele>
        <time>2022-05-21 22:41:20</time>
      </trkpt>
      <trkpt lat="42.23425" lon="2.28733">
        <ele>779.4</ele>
        <time>2022-05-21 22:41:21</time>
      </trkpt>
      <trkpt lat="42.23425" lon="2.28733">
        <ele>779.6</ele>
        <time>2022-05-21 22:45:13</time>
      </trkpt>
      <trkpt lat="42.23425" lon="2.28733">
        <ele>779.6</ele>
        <time>2022-05-21 22:45:14</time>
      </trkpt>
      <trkpt lat="42.23426" lon="2.28737">
        <ele>779.6</ele>
        <time>2022-05-21 22:45:15</time>
      </trkpt>
      <trkpt lat="42.23429" lon="2.28742">
        <ele>779.6</ele>
        <time>2022-05-21 22:45:16</time>
      </trkpt>
      <trkpt lat="42.23429" lon="2.28743">
        <ele>779.6</ele>
        <time>2022-05-21 22:45:17</time>
      </trkpt>
      <trkpt lat="42.2343" lon="2.28745">
        <ele>779.6</ele>
        <time>2022-05-21 22:45:18</time>
      </trkpt>
      <trkpt lat="42.2343" lon="2.28748">
        <ele>779.6</ele>
        <time>2022-05-21 22:45:19</time>
      </trkpt>
      <trkpt lat="42.23431" lon="2.2875">
        <ele>779.6</ele>
        <time>2022-05-21 22:45:20</time>
      </trkpt>
      <trkpt lat="42.23432" lon="2.28753">
        <ele>779.6</ele>
        <time>2022-05-21 22:45:21</time>
      </trkpt>
      <trkpt lat="42.23434" lon="2.28755">
        <ele>779.6</ele>
        <time>2022-05-21 22:45:22</time>
      </trkpt>
      <trkpt lat="42.23434" lon="2.28757">
        <ele>779.6</ele>
        <time>2022-05-21 22:45:23</time>
      </trkpt>
      <trkpt lat="42.23435" lon="2.28762">
        <ele>779.6</ele>
        <time>2022-05-21 22:45:24</time>
      </trkpt>
      <trkpt lat="42.23436" lon="2.28765">
        <ele>779.8</ele>
        <time>2022-05-21 22:45:25</time>
      </trkpt>
      <trkpt lat="42.23436" lon="2.28768">
        <ele>779.8</ele>
        <time>2022-05-21 22:45:26</time>
      </trkpt>
      <trkpt lat="42.23436" lon="2.2877">
        <ele>779.8</ele>
        <time>2022-05-21 22:45:27</time>
      </trkpt>
      <trkpt lat="42.23438" lon="2.28776">
        <ele>779.8</ele>
        <time>2022-05-21 22:45:28</time>
      </trkpt>
      <trkpt lat="42.23438" lon="2.2878">
        <ele>780</ele>
        <time>2022-05-21 22:45:29</time>
      </trkpt>
      <trkpt lat="42.23439" lon="2.28783">
        <ele>780</ele>
        <time>2022-05-21 22:45:30</time>
      </trkpt>
      <trkpt lat="42.23439" lon="2.28785">
        <ele>780</ele>
        <time>2022-05-21 22:45:31</time>
      </trkpt>
      <trkpt lat="42.2344" lon="2.28791">
        <ele>780.2</ele>
        <time>2022-05-21 22:45:32</time>
      </trkpt>
      <trkpt lat="42.23441" lon="2.28796">
        <ele>780.2</ele>
        <time>2022-05-21 22:45:33</time>
      </trkpt>
      <trkpt lat="42.23441" lon="2.288">
        <ele>780.4</ele>
        <time>2022-05-21 22:45:34</time>
      </trkpt>
      <trkpt lat="42.23442" lon="2.28805">
        <ele>780.4</ele>
        <time>2022-05-21 22:45:35</time>
      </trkpt>
      <trkpt lat="42.23443" lon="2.28809">
        <ele>780.6</ele>
        <time>2022-05-21 22:45:36</time>
      </trkpt>
      <trkpt lat="42.23443" lon="2.28813">
        <ele>780.6</ele>
        <time>2022-05-21 22:45:37</time>
      </trkpt>
      <trkpt lat="42.23443" lon="2.28818">
        <ele>780.8</ele>
        <time>2022-05-21 22:45:38</time>
      </trkpt>
      <trkpt lat="42.23443" lon="2.28822">
        <ele>781</ele>
        <time>2022-05-21 22:45:39</time>
      </trkpt>
      <trkpt lat="42.23443" lon="2.28826">
        <ele>781</ele>
        <time>2022-05-21 22:45:40</time>
      </trkpt>
      <trkpt lat="42.23443" lon="2.2883">
        <ele>781.2</ele>
        <time>2022-05-21 22:45:41</time>
      </trkpt>
      <trkpt lat="42.23443" lon="2.28835">
        <ele>781.4</ele>
        <time>2022-05-21 22:45:42</time>
      </trkpt>
      <trkpt lat="42.23443" lon="2.28839">
        <ele>781.6</ele>
        <time>2022-05-21 22:45:43</time>
      </trkpt>
      <trkpt lat="42.23442" lon="2.28843">
        <ele>781.8</ele>
        <time>2022-05-21 22:45:44</time>
      </trkpt>
      <trkpt lat="42.23442" lon="2.28846">
        <ele>781.8</ele>
        <time>2022-05-21 22:45:45</time>
      </trkpt>
      <trkpt lat="42.23441" lon="2.2885">
        <ele>782</ele>
        <time>2022-05-21 22:45:46</time>
      </trkpt>
      <trkpt lat="42.2344" lon="2.28853">
        <ele>782.2</ele>
        <time>2022-05-21 22:45:47</time>
      </trkpt>
      <trkpt lat="42.23439" lon="2.28856">
        <ele>782.4</ele>
        <time>2022-05-21 22:45:48</time>
      </trkpt>
      <trkpt lat="42.23439" lon="2.2886">
        <ele>782.6</ele>
        <time>2022-05-21 22:45:49</time>
      </trkpt>
      <trkpt lat="42.23438" lon="2.28863">
        <ele>782.8</ele>
        <time>2022-05-21 22:45:50</time>
      </trkpt>
      <trkpt lat="42.23437" lon="2.28866">
        <ele>782.8</ele>
        <time>2022-05-21 22:45:51</time>
      </trkpt>
      <trkpt lat="42.23437" lon="2.28869">
        <ele>783</ele>
        <time>2022-05-21 22:45:52</time>
      </trkpt>
      <trkpt lat="42.23435" lon="2.28872">
        <ele>783.2</ele>
        <time>2022-05-21 22:45:53</time>
      </trkpt>
      <trkpt lat="42.23435" lon="2.28875">
        <ele>783.4</ele>
        <time>2022-05-21 22:45:54</time>
      </trkpt>
      <trkpt lat="42.23435" lon="2.28878">
        <ele>783.6</ele>
        <time>2022-05-21 22:45:55</time>
      </trkpt>
      <trkpt lat="42.23434" lon="2.2888">
        <ele>783.6</ele>
        <time>2022-05-21 22:45:56</time>
      </trkpt>
      <trkpt lat="42.23434" lon="2.28881">
        <ele>783.8</ele>
        <time>2022-05-21 22:45:57</time>
      </trkpt>
      <trkpt lat="42.23435" lon="2.28886">
        <ele>783.8</ele>
        <time>2022-05-21 22:45:58</time>
      </trkpt>
      <trkpt lat="42.23435" lon="2.2889">
        <ele>784</ele>
        <time>2022-05-21 22:45:59</time>
      </trkpt>
      <trkpt lat="42.23434" lon="2.28894">
        <ele>784.2</ele>
        <time>2022-05-21 22:46:00</time>
      </trkpt>
      <trkpt lat="42.23434" lon="2.28897">
        <ele>784.2</ele>
        <time>2022-05-21 22:46:01</time>
      </trkpt>
      <trkpt lat="42.23434" lon="2.28901">
        <ele>784.4</ele>
        <time>2022-05-21 22:46:02</time>
      </trkpt>
      <trkpt lat="42.23433" lon="2.28904">
        <ele>784.4</ele>
        <time>2022-05-21 22:46:03</time>
      </trkpt>
      <trkpt lat="42.23432" lon="2.28907">
        <ele>784.6</ele>
        <time>2022-05-21 22:46:04</time>
      </trkpt>
      <trkpt lat="42.2343" lon="2.2891">
        <ele>784.8</ele>
        <time>2022-05-21 22:46:05</time>
      </trkpt>
      <trkpt lat="42.23428" lon="2.28912">
        <ele>784.8</ele>
        <time>2022-05-21 22:46:06</time>
      </trkpt>
      <trkpt lat="42.23426" lon="2.28912">
        <ele>785</ele>
        <time>2022-05-21 22:46:07</time>
      </trkpt>
      <trkpt lat="42.23423" lon="2.28912">
        <ele>785.2</ele>
        <time>2022-05-21 22:46:08</time>
      </trkpt>
      <trkpt lat="42.2342" lon="2.28912">
        <ele>785.4</ele>
        <time>2022-05-21 22:46:09</time>
      </trkpt>
      <trkpt lat="42.23418" lon="2.2891">
        <ele>785.4</ele>
        <time>2022-05-21 22:46:10</time>
      </trkpt>
      <trkpt lat="42.23415" lon="2.28909">
        <ele>785.6</ele>
        <time>2022-05-21 22:46:11</time>
      </trkpt>
      <trkpt lat="42.23413" lon="2.28908">
        <ele>785.8</ele>
        <time>2022-05-21 22:46:12</time>
      </trkpt>
      <trkpt lat="42.23411" lon="2.28907">
        <ele>786</ele>
        <time>2022-05-21 22:46:13</time>
      </trkpt>
      <trkpt lat="42.23409" lon="2.28906">
        <ele>786.2</ele>
        <time>2022-05-21 22:46:14</time>
      </trkpt>
      <trkpt lat="42.23407" lon="2.28904">
        <ele>786.4</ele>
        <time>2022-05-21 22:46:15</time>
      </trkpt>
      <trkpt lat="42.23405" lon="2.28903">
        <ele>786.6</ele>
        <time>2022-05-21 22:46:16</time>
      </trkpt>
      <trkpt lat="42.23403" lon="2.28902">
        <ele>786.8</ele>
        <time>2022-05-21 22:46:17</time>
      </trkpt>
      <trkpt lat="42.23401" lon="2.289">
        <ele>787</ele>
        <time>2022-05-21 22:46:18</time>
      </trkpt>
      <trkpt lat="42.23399" lon="2.28898">
        <ele>787</ele>
        <time>2022-05-21 22:46:19</time>
      </trkpt>
      <trkpt lat="42.23396" lon="2.28896">
        <ele>787.2</ele>
        <time>2022-05-21 22:46:20</time>
      </trkpt>
      <trkpt lat="42.23394" lon="2.28894">
        <ele>787.4</ele>
        <time>2022-05-21 22:46:21</time>
      </trkpt>
      <trkpt lat="42.23391" lon="2.28892">
        <ele>787.4</ele>
        <time>2022-05-21 22:46:22</time>
      </trkpt>
      <trkpt lat="42.23389" lon="2.2889">
        <ele>787.6</ele>
        <time>2022-05-21 22:46:23</time>
      </trkpt>
      <trkpt lat="42.23387" lon="2.28889">
        <ele>787.6</ele>
        <time>2022-05-21 22:46:24</time>
      </trkpt>
      <trkpt lat="42.23385" lon="2.28887">
        <ele>787.8</ele>
        <time>2022-05-21 22:46:25</time>
      </trkpt>
      <trkpt lat="42.23382" lon="2.28885">
        <ele>788</ele>
        <time>2022-05-21 22:46:26</time>
      </trkpt>
      <trkpt lat="42.23379" lon="2.28883">
        <ele>788</ele>
        <time>2022-05-21 22:46:27</time>
      </trkpt>
      <trkpt lat="42.23376" lon="2.28881">
        <ele>788</ele>
        <time>2022-05-21 22:46:28</time>
      </trkpt>
      <trkpt lat="42.23374" lon="2.28879">
        <ele>788.2</ele>
        <time>2022-05-21 22:46:29</time>
      </trkpt>
      <trkpt lat="42.23371" lon="2.28877">
        <ele>788.2</ele>
        <time>2022-05-21 22:46:30</time>
      </trkpt>
      <trkpt lat="42.23368" lon="2.28875">
        <ele>788.4</ele>
        <time>2022-05-21 22:46:31</time>
      </trkpt>
      <trkpt lat="42.23365" lon="2.28873">
        <ele>788.4</ele>
        <time>2022-05-21 22:46:32</time>
      </trkpt>
      <trkpt lat="42.23363" lon="2.2887">
        <ele>788.6</ele>
        <time>2022-05-21 22:46:33</time>
      </trkpt>
      <trkpt lat="42.2336" lon="2.28868">
        <ele>788.6</ele>
        <time>2022-05-21 22:46:34</time>
      </trkpt>
      <trkpt lat="42.23358" lon="2.28866">
        <ele>788.8</ele>
        <time>2022-05-21 22:46:35</time>
      </trkpt>
      <trkpt lat="42.23355" lon="2.28864">
        <ele>788.8</ele>
        <time>2022-05-21 22:46:36</time>
      </trkpt>
      <trkpt lat="42.23352" lon="2.28862">
        <ele>789</ele>
        <time>2022-05-21 22:46:37</time>
      </trkpt>
      <trkpt lat="42.2335" lon="2.2886">
        <ele>789</ele>
        <time>2022-05-21 22:46:38</time>
      </trkpt>
      <trkpt lat="42.23348" lon="2.28857">
        <ele>789.2</ele>
        <time>2022-05-21 22:46:39</time>
      </trkpt>
      <trkpt lat="42.23345" lon="2.28855">
        <ele>789.2</ele>
        <time>2022-05-21 22:46:40</time>
      </trkpt>
      <trkpt lat="42.23344" lon="2.28854">
        <ele>789.4</ele>
        <time>2022-05-21 22:46:41</time>
      </trkpt>
      <trkpt lat="42.23342" lon="2.28852">
        <ele>789.4</ele>
        <time>2022-05-21 22:46:42</time>
      </trkpt>
      <trkpt lat="42.2334" lon="2.2885">
        <ele>789.6</ele>
        <time>2022-05-21 22:46:43</time>
      </trkpt>
      <trkpt lat="42.23338" lon="2.28848">
        <ele>789.6</ele>
        <time>2022-05-21 22:46:44</time>
      </trkpt>
      <trkpt lat="42.23335" lon="2.28847">
        <ele>789.8</ele>
        <time>2022-05-21 22:46:45</time>
      </trkpt>
      <trkpt lat="42.23333" lon="2.28845">
        <ele>789.8</ele>
        <time>2022-05-21 22:46:46</time>
      </trkpt>
      <trkpt lat="42.23331" lon="2.28844">
        <ele>790</ele>
        <time>2022-05-21 22:46:47</time>
      </trkpt>
      <trkpt lat="42.23328" lon="2.28842">
        <ele>790</ele>
        <time>2022-05-21 22:46:48</time>
      </trkpt>
      <trkpt lat="42.23325" lon="2.2884">
        <ele>790.2</ele>
        <time>2022-05-21 22:46:49</time>
      </trkpt>
      <trkpt lat="42.23323" lon="2.28839">
        <ele>790.2</ele>
        <time>2022-05-21 22:46:50</time>
      </trkpt>
      <trkpt lat="42.23321" lon="2.28838">
        <ele>790.4</ele>
        <time>2022-05-21 22:46:51</time>
      </trkpt>
      <trkpt lat="42.23319" lon="2.28836">
        <ele>790.4</ele>
        <time>2022-05-21 22:46:52</time>
      </trkpt>
      <trkpt lat="42.23317" lon="2.28835">
        <ele>790.6</ele>
        <time>2022-05-21 22:46:53</time>
      </trkpt>
      <trkpt lat="42.23315" lon="2.28834">
        <ele>790.8</ele>
        <time>2022-05-21 22:46:54</time>
      </trkpt>
      <trkpt lat="42.23313" lon="2.28832">
        <ele>790.8</ele>
        <time>2022-05-21 22:46:55</time>
      </trkpt>
      <trkpt lat="42.23311" lon="2.28831">
        <ele>791</ele>
        <time>2022-05-21 22:46:56</time>
      </trkpt>
      <trkpt lat="42.23308" lon="2.28829">
        <ele>791</ele>
        <time>2022-05-21 22:46:57</time>
      </trkpt>
      <trkpt lat="42.23306" lon="2.28827">
        <ele>791.2</ele>
        <time>2022-05-21 22:46:58</time>
      </trkpt>
      <trkpt lat="42.23303" lon="2.28825">
        <ele>791.4</ele>
        <time>2022-05-21 22:46:59</time>
      </trkpt>
      <trkpt lat="42.23301" lon="2.28824">
        <ele>791.4</ele>
        <time>2022-05-21 22:47:00</time>
      </trkpt>
      <trkpt lat="42.23298" lon="2.28822">
        <ele>791.6</ele>
        <time>2022-05-21 22:47:01</time>
      </trkpt>
      <trkpt lat="42.23296" lon="2.2882">
        <ele>791.6</ele>
        <time>2022-05-21 22:47:02</time>
      </trkpt>
      <trkpt lat="42.23294" lon="2.28817">
        <ele>791.8</ele>
        <time>2022-05-21 22:47:03</time>
      </trkpt>
      <trkpt lat="42.23291" lon="2.28815">
        <ele>791.8</ele>
        <time>2022-05-21 22:47:04</time>
      </trkpt>
      <trkpt lat="42.23288" lon="2.28813">
        <ele>792</ele>
        <time>2022-05-21 22:47:05</time>
      </trkpt>
      <trkpt lat="42.23286" lon="2.2881">
        <ele>792</ele>
        <time>2022-05-21 22:47:06</time>
      </trkpt>
      <trkpt lat="42.23283" lon="2.28809">
        <ele>792.2</ele>
        <time>2022-05-21 22:47:07</time>
      </trkpt>
      <trkpt lat="42.23281" lon="2.28807">
        <ele>792.4</ele>
        <time>2022-05-21 22:47:08</time>
      </trkpt>
      <trkpt lat="42.23278" lon="2.28804">
        <ele>792.4</ele>
        <time>2022-05-21 22:47:09</time>
      </trkpt>
      <trkpt lat="42.23275" lon="2.28802">
        <ele>792.6</ele>
        <time>2022-05-21 22:47:10</time>
      </trkpt>
      <trkpt lat="42.23273" lon="2.28799">
        <ele>792.6</ele>
        <time>2022-05-21 22:47:11</time>
      </trkpt>
      <trkpt lat="42.23271" lon="2.28797">
        <ele>792.8</ele>
        <time>2022-05-21 22:47:12</time>
      </trkpt>
      <trkpt lat="42.23268" lon="2.28795">
        <ele>792.8</ele>
        <time>2022-05-21 22:47:13</time>
      </trkpt>
      <trkpt lat="42.23266" lon="2.28793">
        <ele>792.8</ele>
        <time>2022-05-21 22:47:14</time>
      </trkpt>
      <trkpt lat="42.23264" lon="2.28791">
        <ele>793</ele>
        <time>2022-05-21 22:47:15</time>
      </trkpt>
      <trkpt lat="42.23261" lon="2.28788">
        <ele>793</ele>
        <time>2022-05-21 22:47:16</time>
      </trkpt>
      <trkpt lat="42.23258" lon="2.28786">
        <ele>793.2</ele>
        <time>2022-05-21 22:47:17</time>
      </trkpt>
      <trkpt lat="42.23255" lon="2.28784">
        <ele>793.2</ele>
        <time>2022-05-21 22:47:18</time>
      </trkpt>
      <trkpt lat="42.23253" lon="2.28781">
        <ele>793.4</ele>
        <time>2022-05-21 22:47:19</time>
      </trkpt>
      <trkpt lat="42.23251" lon="2.28778">
        <ele>793.4</ele>
        <time>2022-05-21 22:47:20</time>
      </trkpt>
      <trkpt lat="42.23248" lon="2.28776">
        <ele>793.6</ele>
        <time>2022-05-21 22:47:21</time>
      </trkpt>
      <trkpt lat="42.23246" lon="2.28774">
        <ele>793.6</ele>
        <time>2022-05-21 22:47:22</time>
      </trkpt>
      <trkpt lat="42.23243" lon="2.28772">
        <ele>793.8</ele>
        <time>2022-05-21 22:47:23</time>
      </trkpt>
      <trkpt lat="42.23241" lon="2.2877">
        <ele>793.8</ele>
        <time>2022-05-21 22:47:24</time>
      </trkpt>
      <trkpt lat="42.23239" lon="2.28768">
        <ele>794</ele>
        <time>2022-05-21 22:47:25</time>
      </trkpt>
      <trkpt lat="42.23236" lon="2.28767">
        <ele>794.2</ele>
        <time>2022-05-21 22:47:26</time>
      </trkpt>
      <trkpt lat="42.23234" lon="2.28765">
        <ele>794.2</ele>
        <time>2022-05-21 22:47:27</time>
      </trkpt>
      <trkpt lat="42.23231" lon="2.28764">
        <ele>794.4</ele>
        <time>2022-05-21 22:47:28</time>
      </trkpt>
      <trkpt lat="42.23228" lon="2.28762">
        <ele>794.4</ele>
        <time>2022-05-21 22:47:29</time>
      </trkpt>
      <trkpt lat="42.23225" lon="2.28761">
        <ele>794.6</ele>
        <time>2022-05-21 22:47:30</time>
      </trkpt>
      <trkpt lat="42.23223" lon="2.28759">
        <ele>794.8</ele>
        <time>2022-05-21 22:47:31</time>
      </trkpt>
      <trkpt lat="42.2322" lon="2.28758">
        <ele>794.8</ele>
        <time>2022-05-21 22:47:32</time>
      </trkpt>
      <trkpt lat="42.23217" lon="2.28757">
        <ele>795</ele>
        <time>2022-05-21 22:47:33</time>
      </trkpt>
      <trkpt lat="42.23214" lon="2.28756">
        <ele>795</ele>
        <time>2022-05-21 22:47:34</time>
      </trkpt>
      <trkpt lat="42.23212" lon="2.28755">
        <ele>795.2</ele>
        <time>2022-05-21 22:47:35</time>
      </trkpt>
      <trkpt lat="42.23209" lon="2.28754">
        <ele>795.2</ele>
        <time>2022-05-21 22:47:36</time>
      </trkpt>
      <trkpt lat="42.23206" lon="2.28754">
        <ele>795.4</ele>
        <time>2022-05-21 22:47:37</time>
      </trkpt>
      <trkpt lat="42.23204" lon="2.28753">
        <ele>795.4</ele>
        <time>2022-05-21 22:47:38</time>
      </trkpt>
      <trkpt lat="42.23201" lon="2.28753">
        <ele>795.6</ele>
        <time>2022-05-21 22:47:39</time>
      </trkpt>
      <trkpt lat="42.23199" lon="2.28752">
        <ele>795.6</ele>
        <time>2022-05-21 22:47:40</time>
      </trkpt>
      <trkpt lat="42.23197" lon="2.28752">
        <ele>795.8</ele>
        <time>2022-05-21 22:47:41</time>
      </trkpt>
      <trkpt lat="42.23195" lon="2.28752">
        <ele>795.8</ele>
        <time>2022-05-21 22:47:42</time>
      </trkpt>
      <trkpt lat="42.23193" lon="2.28752">
        <ele>796</ele>
        <time>2022-05-21 22:47:43</time>
      </trkpt>
      <trkpt lat="42.23191" lon="2.28751">
        <ele>796.2</ele>
        <time>2022-05-21 22:47:44</time>
      </trkpt>
      <trkpt lat="42.23189" lon="2.28751">
        <ele>796.2</ele>
        <time>2022-05-21 22:47:45</time>
      </trkpt>
      <trkpt lat="42.23187" lon="2.28751">
        <ele>796.4</ele>
        <time>2022-05-21 22:47:46</time>
      </trkpt>
      <trkpt lat="42.23185" lon="2.28751">
        <ele>796.6</ele>
        <time>2022-05-21 22:47:47</time>
      </trkpt>
      <trkpt lat="42.23183" lon="2.28751">
        <ele>796.6</ele>
        <time>2022-05-21 22:47:48</time>
      </trkpt>
      <trkpt lat="42.23181" lon="2.2875">
        <ele>796.8</ele>
        <time>2022-05-21 22:47:49</time>
      </trkpt>
      <trkpt lat="42.23178" lon="2.2875">
        <ele>797</ele>
        <time>2022-05-21 22:47:50</time>
      </trkpt>
      <trkpt lat="42.23176" lon="2.2875">
        <ele>797</ele>
        <time>2022-05-21 22:47:51</time>
      </trkpt>
      <trkpt lat="42.23173" lon="2.28749">
        <ele>797.2</ele>
        <time>2022-05-21 22:47:52</time>
      </trkpt>
      <trkpt lat="42.23171" lon="2.28749">
        <ele>797.4</ele>
        <time>2022-05-21 22:47:53</time>
      </trkpt>
      <trkpt lat="42.23168" lon="2.2875">
        <ele>797.6</ele>
        <time>2022-05-21 22:47:54</time>
      </trkpt>
      <trkpt lat="42.23166" lon="2.2875">
        <ele>797.6</ele>
        <time>2022-05-21 22:47:55</time>
      </trkpt>
      <trkpt lat="42.23163" lon="2.2875">
        <ele>797.8</ele>
        <time>2022-05-21 22:47:56</time>
      </trkpt>
      <trkpt lat="42.23161" lon="2.28751">
        <ele>797.8</ele>
        <time>2022-05-21 22:47:57</time>
      </trkpt>
      <trkpt lat="42.23158" lon="2.28752">
        <ele>798</ele>
        <time>2022-05-21 22:47:58</time>
      </trkpt>
      <trkpt lat="42.23156" lon="2.28753">
        <ele>798.2</ele>
        <time>2022-05-21 22:47:59</time>
      </trkpt>
      <trkpt lat="42.23154" lon="2.28753">
        <ele>798.2</ele>
        <time>2022-05-21 22:48:00</time>
      </trkpt>
      <trkpt lat="42.23151" lon="2.28754">
        <ele>798.4</ele>
        <time>2022-05-21 22:48:01</time>
      </trkpt>
      <trkpt lat="42.23149" lon="2.28755">
        <ele>798.6</ele>
        <time>2022-05-21 22:48:02</time>
      </trkpt>
      <trkpt lat="42.23147" lon="2.28756">
        <ele>798.6</ele>
        <time>2022-05-21 22:48:03</time>
      </trkpt>
      <trkpt lat="42.23145" lon="2.28757">
        <ele>798.8</ele>
        <time>2022-05-21 22:48:04</time>
      </trkpt>
      <trkpt lat="42.23144" lon="2.28758">
        <ele>799</ele>
        <time>2022-05-21 22:48:05</time>
      </trkpt>
      <trkpt lat="42.23142" lon="2.28759">
        <ele>799.2</ele>
        <time>2022-05-21 22:48:06</time>
      </trkpt>
      <trkpt lat="42.2314" lon="2.2876">
        <ele>799.2</ele>
        <time>2022-05-21 22:48:07</time>
      </trkpt>
      <trkpt lat="42.23138" lon="2.28761">
        <ele>799.4</ele>
        <time>2022-05-21 22:48:08</time>
      </trkpt>
      <trkpt lat="42.23135" lon="2.28763">
        <ele>799.4</ele>
        <time>2022-05-21 22:48:09</time>
      </trkpt>
      <trkpt lat="42.23133" lon="2.28765">
        <ele>799.6</ele>
        <time>2022-05-21 22:48:10</time>
      </trkpt>
      <trkpt lat="42.2313" lon="2.28767">
        <ele>799.8</ele>
        <time>2022-05-21 22:48:11</time>
      </trkpt>
      <trkpt lat="42.23127" lon="2.28769">
        <ele>799.8</ele>
        <time>2022-05-21 22:48:12</time>
      </trkpt>
      <trkpt lat="42.23125" lon="2.28771">
        <ele>800</ele>
        <time>2022-05-21 22:48:13</time>
      </trkpt>
      <trkpt lat="42.23123" lon="2.28773">
        <ele>800.2</ele>
        <time>2022-05-21 22:48:14</time>
      </trkpt>
      <trkpt lat="42.2312" lon="2.28773">
        <ele>800.2</ele>
        <time>2022-05-21 22:48:15</time>
      </trkpt>
      <trkpt lat="42.23118" lon="2.28774">
        <ele>800.4</ele>
        <time>2022-05-21 22:48:16</time>
      </trkpt>
      <trkpt lat="42.23115" lon="2.28774">
        <ele>800.6</ele>
        <time>2022-05-21 22:48:17</time>
      </trkpt>
      <trkpt lat="42.23113" lon="2.28775">
        <ele>800.8</ele>
        <time>2022-05-21 22:48:18</time>
      </trkpt>
      <trkpt lat="42.2311" lon="2.28774">
        <ele>800.8</ele>
        <time>2022-05-21 22:48:19</time>
      </trkpt>
      <trkpt lat="42.23107" lon="2.28775">
        <ele>801</ele>
        <time>2022-05-21 22:48:20</time>
      </trkpt>
      <trkpt lat="42.23104" lon="2.28776">
        <ele>801.2</ele>
        <time>2022-05-21 22:48:21</time>
      </trkpt>
      <trkpt lat="42.23102" lon="2.28776">
        <ele>801.2</ele>
        <time>2022-05-21 22:48:22</time>
      </trkpt>
      <trkpt lat="42.231" lon="2.28777">
        <ele>801.4</ele>
        <time>2022-05-21 22:48:23</time>
      </trkpt>
      <trkpt lat="42.23097" lon="2.28777">
        <ele>801.6</ele>
        <time>2022-05-21 22:48:24</time>
      </trkpt>
      <trkpt lat="42.23094" lon="2.28778">
        <ele>801.6</ele>
        <time>2022-05-21 22:48:25</time>
      </trkpt>
      <trkpt lat="42.23091" lon="2.28778">
        <ele>801.8</ele>
        <time>2022-05-21 22:48:26</time>
      </trkpt>
      <trkpt lat="42.23089" lon="2.28778">
        <ele>802</ele>
        <time>2022-05-21 22:48:27</time>
      </trkpt>
      <trkpt lat="42.23086" lon="2.28778">
        <ele>802</ele>
        <time>2022-05-21 22:48:28</time>
      </trkpt>
      <trkpt lat="42.23084" lon="2.28779">
        <ele>802.2</ele>
        <time>2022-05-21 22:48:29</time>
      </trkpt>
      <trkpt lat="42.23081" lon="2.28781">
        <ele>802.4</ele>
        <time>2022-05-21 22:48:30</time>
      </trkpt>
      <trkpt lat="42.23079" lon="2.28782">
        <ele>802.4</ele>
        <time>2022-05-21 22:48:31</time>
      </trkpt>
      <trkpt lat="42.23077" lon="2.28783">
        <ele>802.6</ele>
        <time>2022-05-21 22:48:32</time>
      </trkpt>
      <trkpt lat="42.23074" lon="2.28784">
        <ele>802.8</ele>
        <time>2022-05-21 22:48:33</time>
      </trkpt>
      <trkpt lat="42.23072" lon="2.28785">
        <ele>802.8</ele>
        <time>2022-05-21 22:48:34</time>
      </trkpt>
      <trkpt lat="42.2307" lon="2.28786">
        <ele>803</ele>
        <time>2022-05-21 22:48:35</time>
      </trkpt>
      <trkpt lat="42.23068" lon="2.28788">
        <ele>803.2</ele>
        <time>2022-05-21 22:48:36</time>
      </trkpt>
      <trkpt lat="42.23065" lon="2.28789">
        <ele>803.2</ele>
        <time>2022-05-21 22:48:37</time>
      </trkpt>
      <trkpt lat="42.23063" lon="2.28791">
        <ele>803.4</ele>
        <time>2022-05-21 22:48:38</time>
      </trkpt>
      <trkpt lat="42.23061" lon="2.28793">
        <ele>803.6</ele>
        <time>2022-05-21 22:48:39</time>
      </trkpt>
      <trkpt lat="42.23058" lon="2.28795">
        <ele>803.6</ele>
        <time>2022-05-21 22:48:40</time>
      </trkpt>
      <trkpt lat="42.23056" lon="2.28797">
        <ele>803.8</ele>
        <time>2022-05-21 22:48:41</time>
      </trkpt>
      <trkpt lat="42.23053" lon="2.288">
        <ele>803.8</ele>
        <time>2022-05-21 22:48:42</time>
      </trkpt>
      <trkpt lat="42.23051" lon="2.28802">
        <ele>804</ele>
        <time>2022-05-21 22:48:43</time>
      </trkpt>
      <trkpt lat="42.23049" lon="2.28804">
        <ele>804.2</ele>
        <time>2022-05-21 22:48:44</time>
      </trkpt>
      <trkpt lat="42.23047" lon="2.28806">
        <ele>804.2</ele>
        <time>2022-05-21 22:48:45</time>
      </trkpt>
      <trkpt lat="42.23045" lon="2.28808">
        <ele>804.4</ele>
        <time>2022-05-21 22:48:46</time>
      </trkpt>
      <trkpt lat="42.23043" lon="2.2881">
        <ele>804.6</ele>
        <time>2022-05-21 22:48:47</time>
      </trkpt>
      <trkpt lat="42.23041" lon="2.28812">
        <ele>804.8</ele>
        <time>2022-05-21 22:48:48</time>
      </trkpt>
      <trkpt lat="42.23039" lon="2.28814">
        <ele>804.8</ele>
        <time>2022-05-21 22:48:49</time>
      </trkpt>
      <trkpt lat="42.23037" lon="2.28816">
        <ele>805</ele>
        <time>2022-05-21 22:48:50</time>
      </trkpt>
      <trkpt lat="42.23034" lon="2.28818">
        <ele>805</ele>
        <time>2022-05-21 22:48:51</time>
      </trkpt>
      <trkpt lat="42.23032" lon="2.2882">
        <ele>805.2</ele>
        <time>2022-05-21 22:48:52</time>
      </trkpt>
      <trkpt lat="42.23029" lon="2.28821">
        <ele>805.2</ele>
        <time>2022-05-21 22:48:53</time>
      </trkpt>
      <trkpt lat="42.23026" lon="2.28823">
        <ele>805.4</ele>
        <time>2022-05-21 22:48:54</time>
      </trkpt>
      <trkpt lat="42.23023" lon="2.28825">
        <ele>805.4</ele>
        <time>2022-05-21 22:48:55</time>
      </trkpt>
      <trkpt lat="42.2302" lon="2.28827">
        <ele>805.6</ele>
        <time>2022-05-21 22:48:56</time>
      </trkpt>
      <trkpt lat="42.23017" lon="2.28828">
        <ele>805.6</ele>
        <time>2022-05-21 22:48:57</time>
      </trkpt>
      <trkpt lat="42.23015" lon="2.28829">
        <ele>805.6</ele>
        <time>2022-05-21 22:48:58</time>
      </trkpt>
      <trkpt lat="42.23012" lon="2.28829">
        <ele>805.8</ele>
        <time>2022-05-21 22:48:59</time>
      </trkpt>
      <trkpt lat="42.23009" lon="2.28828">
        <ele>805.8</ele>
        <time>2022-05-21 22:49:00</time>
      </trkpt>
      <trkpt lat="42.23007" lon="2.28827">
        <ele>806</ele>
        <time>2022-05-21 22:49:01</time>
      </trkpt>
      <trkpt lat="42.23004" lon="2.28825">
        <ele>806</ele>
        <time>2022-05-21 22:49:02</time>
      </trkpt>
      <trkpt lat="42.23002" lon="2.28824">
        <ele>806.2</ele>
        <time>2022-05-21 22:49:03</time>
      </trkpt>
      <trkpt lat="42.23" lon="2.28822">
        <ele>806.2</ele>
        <time>2022-05-21 22:49:04</time>
      </trkpt>
      <trkpt lat="42.22998" lon="2.2882">
        <ele>806.4</ele>
        <time>2022-05-21 22:49:05</time>
      </trkpt>
      <trkpt lat="42.22996" lon="2.28818">
        <ele>806.4</ele>
        <time>2022-05-21 22:49:06</time>
      </trkpt>
      <trkpt lat="42.22994" lon="2.28816">
        <ele>806.6</ele>
        <time>2022-05-21 22:49:07</time>
      </trkpt>
      <trkpt lat="42.22992" lon="2.28813">
        <ele>806.8</ele>
        <time>2022-05-21 22:49:08</time>
      </trkpt>
      <trkpt lat="42.2299" lon="2.28811">
        <ele>806.8</ele>
        <time>2022-05-21 22:49:09</time>
      </trkpt>
      <trkpt lat="42.22989" lon="2.28808">
        <ele>807</ele>
        <time>2022-05-21 22:49:10</time>
      </trkpt>
      <trkpt lat="42.22987" lon="2.28806">
        <ele>807.2</ele>
        <time>2022-05-21 22:49:11</time>
      </trkpt>
      <trkpt lat="42.22985" lon="2.28803">
        <ele>807.2</ele>
        <time>2022-05-21 22:49:12</time>
      </trkpt>
      <trkpt lat="42.22983" lon="2.28801">
        <ele>807.4</ele>
        <time>2022-05-21 22:49:13</time>
      </trkpt>
      <trkpt lat="42.2298" lon="2.28798">
        <ele>807.4</ele>
        <time>2022-05-21 22:49:14</time>
      </trkpt>
      <trkpt lat="42.22978" lon="2.28796">
        <ele>807.6</ele>
        <time>2022-05-21 22:49:15</time>
      </trkpt>
      <trkpt lat="42.22975" lon="2.28793">
        <ele>807.6</ele>
        <time>2022-05-21 22:49:16</time>
      </trkpt>
      <trkpt lat="42.22972" lon="2.28791">
        <ele>807.8</ele>
        <time>2022-05-21 22:49:17</time>
      </trkpt>
      <trkpt lat="42.22969" lon="2.2879">
        <ele>807.8</ele>
        <time>2022-05-21 22:49:18</time>
      </trkpt>
      <trkpt lat="42.22966" lon="2.28789">
        <ele>808</ele>
        <time>2022-05-21 22:49:19</time>
      </trkpt>
      <trkpt lat="42.22963" lon="2.28789">
        <ele>808</ele>
        <time>2022-05-21 22:49:20</time>
      </trkpt>
      <trkpt lat="42.2296" lon="2.28788">
        <ele>808.2</ele>
        <time>2022-05-21 22:49:21</time>
      </trkpt>
      <trkpt lat="42.22956" lon="2.28787">
        <ele>808.2</ele>
        <time>2022-05-21 22:49:22</time>
      </trkpt>
      <trkpt lat="42.22953" lon="2.28787">
        <ele>808.2</ele>
        <time>2022-05-21 22:49:23</time>
      </trkpt>
      <trkpt lat="42.22949" lon="2.28787">
        <ele>808.4</ele>
        <time>2022-05-21 22:49:24</time>
      </trkpt>
      <trkpt lat="42.22946" lon="2.28788">
        <ele>808.4</ele>
        <time>2022-05-21 22:49:25</time>
      </trkpt>
      <trkpt lat="42.22943" lon="2.28788">
        <ele>808.4</ele>
        <time>2022-05-21 22:49:26</time>
      </trkpt>
      <trkpt lat="42.22939" lon="2.28788">
        <ele>808.6</ele>
        <time>2022-05-21 22:49:27</time>
      </trkpt>
      <trkpt lat="42.22936" lon="2.28788">
        <ele>808.6</ele>
        <time>2022-05-21 22:49:28</time>
      </trkpt>
      <trkpt lat="42.22932" lon="2.28789">
        <ele>808.8</ele>
        <time>2022-05-21 22:49:29</time>
      </trkpt>
      <trkpt lat="42.22929" lon="2.2879">
        <ele>808.8</ele>
        <time>2022-05-21 22:49:30</time>
      </trkpt>
      <trkpt lat="42.22926" lon="2.2879">
        <ele>809</ele>
        <time>2022-05-21 22:49:31</time>
      </trkpt>
      <trkpt lat="42.22922" lon="2.2879">
        <ele>809</ele>
        <time>2022-05-21 22:49:32</time>
      </trkpt>
      <trkpt lat="42.22919" lon="2.2879">
        <ele>809</ele>
        <time>2022-05-21 22:49:33</time>
      </trkpt>
      <trkpt lat="42.22915" lon="2.2879">
        <ele>809.2</ele>
        <time>2022-05-21 22:49:34</time>
      </trkpt>
      <trkpt lat="42.22912" lon="2.28791">
        <ele>809.2</ele>
        <time>2022-05-21 22:49:35</time>
      </trkpt>
      <trkpt lat="42.22908" lon="2.28791">
        <ele>809.2</ele>
        <time>2022-05-21 22:49:36</time>
      </trkpt>
      <trkpt lat="42.22905" lon="2.28791">
        <ele>809.4</ele>
        <time>2022-05-21 22:49:37</time>
      </trkpt>
      <trkpt lat="42.22902" lon="2.28791">
        <ele>809.4</ele>
        <time>2022-05-21 22:49:38</time>
      </trkpt>
      <trkpt lat="42.22899" lon="2.28792">
        <ele>809.6</ele>
        <time>2022-05-21 22:49:39</time>
      </trkpt>
      <trkpt lat="42.22896" lon="2.28793">
        <ele>809.6</ele>
        <time>2022-05-21 22:49:40</time>
      </trkpt>
      <trkpt lat="42.22893" lon="2.28794">
        <ele>809.8</ele>
        <time>2022-05-21 22:49:41</time>
      </trkpt>
      <trkpt lat="42.2289" lon="2.28795">
        <ele>809.8</ele>
        <time>2022-05-21 22:49:42</time>
      </trkpt>
      <trkpt lat="42.22887" lon="2.28795">
        <ele>810</ele>
        <time>2022-05-21 22:49:43</time>
      </trkpt>
      <trkpt lat="42.22884" lon="2.28796">
        <ele>810</ele>
        <time>2022-05-21 22:49:44</time>
      </trkpt>
      <trkpt lat="42.22881" lon="2.28797">
        <ele>810.2</ele>
        <time>2022-05-21 22:49:45</time>
      </trkpt>
      <trkpt lat="42.22878" lon="2.28798">
        <ele>810.2</ele>
        <time>2022-05-21 22:49:46</time>
      </trkpt>
      <trkpt lat="42.22875" lon="2.28799">
        <ele>810.4</ele>
        <time>2022-05-21 22:49:47</time>
      </trkpt>
      <trkpt lat="42.22871" lon="2.288">
        <ele>810.4</ele>
        <time>2022-05-21 22:49:48</time>
      </trkpt>
      <trkpt lat="42.22868" lon="2.288">
        <ele>810.6</ele>
        <time>2022-05-21 22:49:49</time>
      </trkpt>
      <trkpt lat="42.22864" lon="2.28801">
        <ele>810.8</ele>
        <time>2022-05-21 22:49:50</time>
      </trkpt>
      <trkpt lat="42.22861" lon="2.28801">
        <ele>810.8</ele>
        <time>2022-05-21 22:49:51</time>
      </trkpt>
      <trkpt lat="42.22858" lon="2.28801">
        <ele>811</ele>
        <time>2022-05-21 22:49:52</time>
      </trkpt>
      <trkpt lat="42.22855" lon="2.28802">
        <ele>811.2</ele>
        <time>2022-05-21 22:49:53</time>
      </trkpt>
      <trkpt lat="42.22851" lon="2.28802">
        <ele>811.2</ele>
        <time>2022-05-21 22:49:54</time>
      </trkpt>
      <trkpt lat="42.22848" lon="2.28802">
        <ele>811.4</ele>
        <time>2022-05-21 22:49:55</time>
      </trkpt>
      <trkpt lat="42.22845" lon="2.28803">
        <ele>811.4</ele>
        <time>2022-05-21 22:49:56</time>
      </trkpt>
      <trkpt lat="42.22842" lon="2.28803">
        <ele>811.6</ele>
        <time>2022-05-21 22:49:57</time>
      </trkpt>
      <trkpt lat="42.22839" lon="2.28803">
        <ele>811.8</ele>
        <time>2022-05-21 22:49:58</time>
      </trkpt>
      <trkpt lat="42.22835" lon="2.28803">
        <ele>811.8</ele>
        <time>2022-05-21 22:49:59</time>
      </trkpt>
      <trkpt lat="42.22832" lon="2.28802">
        <ele>812</ele>
        <time>2022-05-21 22:50:00</time>
      </trkpt>
      <trkpt lat="42.22828" lon="2.28803">
        <ele>812</ele>
        <time>2022-05-21 22:50:01</time>
      </trkpt>
      <trkpt lat="42.22825" lon="2.28803">
        <ele>812.2</ele>
        <time>2022-05-21 22:50:02</time>
      </trkpt>
      <trkpt lat="42.22822" lon="2.28804">
        <ele>812.4</ele>
        <time>2022-05-21 22:50:03</time>
      </trkpt>
      <trkpt lat="42.22819" lon="2.28804">
        <ele>812.4</ele>
        <time>2022-05-21 22:50:04</time>
      </trkpt>
      <trkpt lat="42.22815" lon="2.28804">
        <ele>812.6</ele>
        <time>2022-05-21 22:50:05</time>
      </trkpt>
      <trkpt lat="42.22812" lon="2.28804">
        <ele>812.6</ele>
        <time>2022-05-21 22:50:06</time>
      </trkpt>
      <trkpt lat="42.22808" lon="2.28804">
        <ele>812.8</ele>
        <time>2022-05-21 22:50:07</time>
      </trkpt>
      <trkpt lat="42.22805" lon="2.28804">
        <ele>812.8</ele>
        <time>2022-05-21 22:50:08</time>
      </trkpt>
      <trkpt lat="42.22802" lon="2.28805">
        <ele>813</ele>
        <time>2022-05-21 22:50:09</time>
      </trkpt>
      <trkpt lat="42.22798" lon="2.28805">
        <ele>813</ele>
        <time>2022-05-21 22:50:10</time>
      </trkpt>
      <trkpt lat="42.22795" lon="2.28806">
        <ele>813.2</ele>
        <time>2022-05-21 22:50:11</time>
      </trkpt>
      <trkpt lat="42.22792" lon="2.28806">
        <ele>813.2</ele>
        <time>2022-05-21 22:50:12</time>
      </trkpt>
      <trkpt lat="42.22789" lon="2.28807">
        <ele>813.4</ele>
        <time>2022-05-21 22:50:13</time>
      </trkpt>
      <trkpt lat="42.22786" lon="2.28808">
        <ele>813.4</ele>
        <time>2022-05-21 22:50:14</time>
      </trkpt>
      <trkpt lat="42.22782" lon="2.28809">
        <ele>813.6</ele>
        <time>2022-05-21 22:50:15</time>
      </trkpt>
      <trkpt lat="42.22779" lon="2.28811">
        <ele>813.8</ele>
        <time>2022-05-21 22:50:16</time>
      </trkpt>
      <trkpt lat="42.22776" lon="2.28812">
        <ele>813.8</ele>
        <time>2022-05-21 22:50:17</time>
      </trkpt>
      <trkpt lat="42.22773" lon="2.28813">
        <ele>814</ele>
        <time>2022-05-21 22:50:18</time>
      </trkpt>
      <trkpt lat="42.2277" lon="2.28814">
        <ele>814</ele>
        <time>2022-05-21 22:50:19</time>
      </trkpt>
      <trkpt lat="42.22766" lon="2.28815">
        <ele>814.2</ele>
        <time>2022-05-21 22:50:20</time>
      </trkpt>
      <trkpt lat="42.22763" lon="2.28816">
        <ele>814.4</ele>
        <time>2022-05-21 22:50:21</time>
      </trkpt>
      <trkpt lat="42.2276" lon="2.28818">
        <ele>814.4</ele>
        <time>2022-05-21 22:50:22</time>
      </trkpt>
      <trkpt lat="42.22758" lon="2.28819">
        <ele>814.6</ele>
        <time>2022-05-21 22:50:23</time>
      </trkpt>
      <trkpt lat="42.22755" lon="2.28821">
        <ele>814.6</ele>
        <time>2022-05-21 22:50:24</time>
      </trkpt>
      <trkpt lat="42.22752" lon="2.28823">
        <ele>814.8</ele>
        <time>2022-05-21 22:50:25</time>
      </trkpt>
      <trkpt lat="42.22749" lon="2.28824">
        <ele>815</ele>
        <time>2022-05-21 22:50:26</time>
      </trkpt>
      <trkpt lat="42.22746" lon="2.28825">
        <ele>815</ele>
        <time>2022-05-21 22:50:27</time>
      </trkpt>
      <trkpt lat="42.22744" lon="2.28827">
        <ele>815.2</ele>
        <time>2022-05-21 22:50:28</time>
      </trkpt>
      <trkpt lat="42.22741" lon="2.28828">
        <ele>815.4</ele>
        <time>2022-05-21 22:50:29</time>
      </trkpt>
      <trkpt lat="42.22738" lon="2.2883">
        <ele>815.4</ele>
        <time>2022-05-21 22:50:30</time>
      </trkpt>
      <trkpt lat="42.22735" lon="2.28831">
        <ele>815.6</ele>
        <time>2022-05-21 22:50:31</time>
      </trkpt>
      <trkpt lat="42.22732" lon="2.28833">
        <ele>815.8</ele>
        <time>2022-05-21 22:50:32</time>
      </trkpt>
      <trkpt lat="42.2273" lon="2.28835">
        <ele>816</ele>
        <time>2022-05-21 22:50:33</time>
      </trkpt>
      <trkpt lat="42.22727" lon="2.28837">
        <ele>816</ele>
        <time>2022-05-21 22:50:34</time>
      </trkpt>
      <trkpt lat="42.22725" lon="2.28838">
        <ele>816.2</ele>
        <time>2022-05-21 22:50:35</time>
      </trkpt>
      <trkpt lat="42.22722" lon="2.2884">
        <ele>816.4</ele>
        <time>2022-05-21 22:50:36</time>
      </trkpt>
      <trkpt lat="42.22719" lon="2.28841">
        <ele>816.4</ele>
        <time>2022-05-21 22:50:37</time>
      </trkpt>
      <trkpt lat="42.22716" lon="2.28843">
        <ele>816.6</ele>
        <time>2022-05-21 22:50:38</time>
      </trkpt>
      <trkpt lat="42.22713" lon="2.28845">
        <ele>816.8</ele>
        <time>2022-05-21 22:50:39</time>
      </trkpt>
      <trkpt lat="42.2271" lon="2.28846">
        <ele>817</ele>
        <time>2022-05-21 22:50:40</time>
      </trkpt>
      <trkpt lat="42.22708" lon="2.28848">
        <ele>817</ele>
        <time>2022-05-21 22:50:41</time>
      </trkpt>
      <trkpt lat="42.22705" lon="2.2885">
        <ele>817.2</ele>
        <time>2022-05-21 22:50:42</time>
      </trkpt>
      <trkpt lat="42.22702" lon="2.28851">
        <ele>817.4</ele>
        <time>2022-05-21 22:50:43</time>
      </trkpt>
      <trkpt lat="42.227" lon="2.28853">
        <ele>817.4</ele>
        <time>2022-05-21 22:50:44</time>
      </trkpt>
      <trkpt lat="42.22697" lon="2.28855">
        <ele>817.6</ele>
        <time>2022-05-21 22:50:45</time>
      </trkpt>
      <trkpt lat="42.22695" lon="2.28857">
        <ele>817.8</ele>
        <time>2022-05-21 22:50:46</time>
      </trkpt>
      <trkpt lat="42.22692" lon="2.28859">
        <ele>817.8</ele>
        <time>2022-05-21 22:50:47</time>
      </trkpt>
      <trkpt lat="42.22689" lon="2.2886">
        <ele>818</ele>
        <time>2022-05-21 22:50:48</time>
      </trkpt>
      <trkpt lat="42.22687" lon="2.28862">
        <ele>818.2</ele>
        <time>2022-05-21 22:50:49</time>
      </trkpt>
      <trkpt lat="42.22684" lon="2.28864">
        <ele>818.2</ele>
        <time>2022-05-21 22:50:50</time>
      </trkpt>
      <trkpt lat="42.22681" lon="2.28865">
        <ele>818.4</ele>
        <time>2022-05-21 22:50:51</time>
      </trkpt>
      <trkpt lat="42.22679" lon="2.28867">
        <ele>818.6</ele>
        <time>2022-05-21 22:50:52</time>
      </trkpt>
      <trkpt lat="42.22676" lon="2.28869">
        <ele>818.6</ele>
        <time>2022-05-21 22:50:53</time>
      </trkpt>
      <trkpt lat="42.22673" lon="2.2887">
        <ele>818.8</ele>
        <time>2022-05-21 22:50:54</time>
      </trkpt>
      <trkpt lat="42.22671" lon="2.28871">
        <ele>819</ele>
        <time>2022-05-21 22:50:55</time>
      </trkpt>
      <trkpt lat="42.22668" lon="2.28873">
        <ele>819.2</ele>
        <time>2022-05-21 22:50:56</time>
      </trkpt>
      <trkpt lat="42.22665" lon="2.28875">
        <ele>819.2</ele>
        <time>2022-05-21 22:50:57</time>
      </trkpt>
      <trkpt lat="42.22663" lon="2.28877">
        <ele>819.4</ele>
        <time>2022-05-21 22:50:58</time>
      </trkpt>
      <trkpt lat="42.2266" lon="2.28878">
        <ele>819.6</ele>
        <time>2022-05-21 22:50:59</time>
      </trkpt>
      <trkpt lat="42.22657" lon="2.2888">
        <ele>819.8</ele>
        <time>2022-05-21 22:51:00</time>
      </trkpt>
      <trkpt lat="42.22654" lon="2.28881">
        <ele>820</ele>
        <time>2022-05-21 22:51:01</time>
      </trkpt>
      <trkpt lat="42.22652" lon="2.28883">
        <ele>820</ele>
        <time>2022-05-21 22:51:02</time>
      </trkpt>
      <trkpt lat="42.22649" lon="2.28885">
        <ele>820.2</ele>
        <time>2022-05-21 22:51:03</time>
      </trkpt>
      <trkpt lat="42.22646" lon="2.28886">
        <ele>820.4</ele>
        <time>2022-05-21 22:51:04</time>
      </trkpt>
      <trkpt lat="42.22643" lon="2.28888">
        <ele>820.4</ele>
        <time>2022-05-21 22:51:05</time>
      </trkpt>
      <trkpt lat="42.22641" lon="2.2889">
        <ele>820.6</ele>
        <time>2022-05-21 22:51:06</time>
      </trkpt>
      <trkpt lat="42.22638" lon="2.28892">
        <ele>820.8</ele>
        <time>2022-05-21 22:51:07</time>
      </trkpt>
      <trkpt lat="42.22636" lon="2.28894">
        <ele>820.8</ele>
        <time>2022-05-21 22:51:08</time>
      </trkpt>
      <trkpt lat="42.22633" lon="2.28896">
        <ele>821</ele>
        <time>2022-05-21 22:51:09</time>
      </trkpt>
      <trkpt lat="42.22631" lon="2.28897">
        <ele>821.2</ele>
        <time>2022-05-21 22:51:10</time>
      </trkpt>
      <trkpt lat="42.22628" lon="2.28898">
        <ele>821.2</ele>
        <time>2022-05-21 22:51:11</time>
      </trkpt>
      <trkpt lat="42.22625" lon="2.289">
        <ele>821.4</ele>
        <time>2022-05-21 22:51:12</time>
      </trkpt>
      <trkpt lat="42.22623" lon="2.28901">
        <ele>821.6</ele>
        <time>2022-05-21 22:51:13</time>
      </trkpt>
      <trkpt lat="42.2262" lon="2.28903">
        <ele>821.6</ele>
        <time>2022-05-21 22:51:14</time>
      </trkpt>
      <trkpt lat="42.22617" lon="2.28904">
        <ele>821.8</ele>
        <time>2022-05-21 22:51:15</time>
      </trkpt>
      <trkpt lat="42.22613" lon="2.28905">
        <ele>821.8</ele>
        <time>2022-05-21 22:51:16</time>
      </trkpt>
      <trkpt lat="42.22611" lon="2.28905">
        <ele>822</ele>
        <time>2022-05-21 22:51:17</time>
      </trkpt>
      <trkpt lat="42.22608" lon="2.28906">
        <ele>822</ele>
        <time>2022-05-21 22:51:18</time>
      </trkpt>
      <trkpt lat="42.22605" lon="2.28906">
        <ele>822.2</ele>
        <time>2022-05-21 22:51:19</time>
      </trkpt>
      <trkpt lat="42.22602" lon="2.28905">
        <ele>822.4</ele>
        <time>2022-05-21 22:51:20</time>
      </trkpt>
      <trkpt lat="42.226" lon="2.28905">
        <ele>822.4</ele>
        <time>2022-05-21 22:51:21</time>
      </trkpt>
      <trkpt lat="42.22598" lon="2.28904">
        <ele>822.6</ele>
        <time>2022-05-21 22:51:22</time>
      </trkpt>
      <trkpt lat="42.22595" lon="2.28903">
        <ele>822.8</ele>
        <time>2022-05-21 22:51:23</time>
      </trkpt>
      <trkpt lat="42.22593" lon="2.28902">
        <ele>823</ele>
        <time>2022-05-21 22:51:24</time>
      </trkpt>
      <trkpt lat="42.22591" lon="2.28901">
        <ele>823</ele>
        <time>2022-05-21 22:51:25</time>
      </trkpt>
      <trkpt lat="42.22589" lon="2.289">
        <ele>823.2</ele>
        <time>2022-05-21 22:51:26</time>
      </trkpt>
      <trkpt lat="42.22587" lon="2.28899">
        <ele>823.4</ele>
        <time>2022-05-21 22:51:27</time>
      </trkpt>
      <trkpt lat="42.22585" lon="2.28897">
        <ele>823.6</ele>
        <time>2022-05-21 22:51:28</time>
      </trkpt>
      <trkpt lat="42.22583" lon="2.28896">
        <ele>823.6</ele>
        <time>2022-05-21 22:51:29</time>
      </trkpt>
      <trkpt lat="42.2258" lon="2.28895">
        <ele>823.8</ele>
        <time>2022-05-21 22:51:30</time>
      </trkpt>
      <trkpt lat="42.22578" lon="2.28893">
        <ele>823.8</ele>
        <time>2022-05-21 22:51:31</time>
      </trkpt>
      <trkpt lat="42.22575" lon="2.28892">
        <ele>824</ele>
        <time>2022-05-21 22:51:32</time>
      </trkpt>
      <trkpt lat="42.22572" lon="2.28891">
        <ele>824.2</ele>
        <time>2022-05-21 22:51:33</time>
      </trkpt>
      <trkpt lat="42.22568" lon="2.2889">
        <ele>824.2</ele>
        <time>2022-05-21 22:51:34</time>
      </trkpt>
      <trkpt lat="42.22565" lon="2.28888">
        <ele>824.4</ele>
        <time>2022-05-21 22:51:35</time>
      </trkpt>
      <trkpt lat="42.22562" lon="2.28885">
        <ele>824.6</ele>
        <time>2022-05-21 22:51:36</time>
      </trkpt>
      <trkpt lat="42.22559" lon="2.28882">
        <ele>824.6</ele>
        <time>2022-05-21 22:51:37</time>
      </trkpt>
      <trkpt lat="42.22555" lon="2.28879">
        <ele>824.8</ele>
        <time>2022-05-21 22:51:38</time>
      </trkpt>
      <trkpt lat="42.22552" lon="2.28877">
        <ele>825</ele>
        <time>2022-05-21 22:51:39</time>
      </trkpt>
      <trkpt lat="42.22549" lon="2.28874">
        <ele>825</ele>
        <time>2022-05-21 22:51:40</time>
      </trkpt>
      <trkpt lat="42.22546" lon="2.28873">
        <ele>825.2</ele>
        <time>2022-05-21 22:51:41</time>
      </trkpt>
      <trkpt lat="42.22542" lon="2.28871">
        <ele>825.4</ele>
        <time>2022-05-21 22:51:42</time>
      </trkpt>
      <trkpt lat="42.22539" lon="2.2887">
        <ele>825.6</ele>
        <time>2022-05-21 22:51:43</time>
      </trkpt>
      <trkpt lat="42.22535" lon="2.2887">
        <ele>825.6</ele>
        <time>2022-05-21 22:51:44</time>
      </trkpt>
      <trkpt lat="42.22532" lon="2.2887">
        <ele>825.8</ele>
        <time>2022-05-21 22:51:45</time>
      </trkpt>
      <trkpt lat="42.22529" lon="2.2887">
        <ele>826</ele>
        <time>2022-05-21 22:51:46</time>
      </trkpt>
      <trkpt lat="42.22526" lon="2.28871">
        <ele>826</ele>
        <time>2022-05-21 22:51:47</time>
      </trkpt>
      <trkpt lat="42.22523" lon="2.28871">
        <ele>826.2</ele>
        <time>2022-05-21 22:51:48</time>
      </trkpt>
      <trkpt lat="42.2252" lon="2.28872">
        <ele>826.4</ele>
        <time>2022-05-21 22:51:49</time>
      </trkpt>
      <trkpt lat="42.22518" lon="2.28874">
        <ele>826.4</ele>
        <time>2022-05-21 22:51:50</time>
      </trkpt>
      <trkpt lat="42.22515" lon="2.28875">
        <ele>826.6</ele>
        <time>2022-05-21 22:51:51</time>
      </trkpt>
      <trkpt lat="42.22512" lon="2.28877">
        <ele>826.8</ele>
        <time>2022-05-21 22:51:52</time>
      </trkpt>
      <trkpt lat="42.2251" lon="2.28879">
        <ele>826.8</ele>
        <time>2022-05-21 22:51:53</time>
      </trkpt>
      <trkpt lat="42.22507" lon="2.28881">
        <ele>827</ele>
        <time>2022-05-21 22:51:54</time>
      </trkpt>
      <trkpt lat="42.22504" lon="2.28883">
        <ele>827</ele>
        <time>2022-05-21 22:51:55</time>
      </trkpt>
      <trkpt lat="42.22501" lon="2.28885">
        <ele>827.2</ele>
        <time>2022-05-21 22:51:56</time>
      </trkpt>
      <trkpt lat="42.22499" lon="2.28887">
        <ele>827.4</ele>
        <time>2022-05-21 22:51:57</time>
      </trkpt>
      <trkpt lat="42.22497" lon="2.28889">
        <ele>827.4</ele>
        <time>2022-05-21 22:51:58</time>
      </trkpt>
      <trkpt lat="42.22494" lon="2.28891">
        <ele>827.6</ele>
        <time>2022-05-21 22:51:59</time>
      </trkpt>
      <trkpt lat="42.22491" lon="2.28893">
        <ele>827.8</ele>
        <time>2022-05-21 22:52:00</time>
      </trkpt>
      <trkpt lat="42.22489" lon="2.28895">
        <ele>827.8</ele>
        <time>2022-05-21 22:52:01</time>
      </trkpt>
      <trkpt lat="42.22486" lon="2.28897">
        <ele>828</ele>
        <time>2022-05-21 22:52:02</time>
      </trkpt>
      <trkpt lat="42.22483" lon="2.28899">
        <ele>828.2</ele>
        <time>2022-05-21 22:52:03</time>
      </trkpt>
      <trkpt lat="42.22481" lon="2.289">
        <ele>828.4</ele>
        <time>2022-05-21 22:52:04</time>
      </trkpt>
      <trkpt lat="42.22478" lon="2.28902">
        <ele>828.4</ele>
        <time>2022-05-21 22:52:05</time>
      </trkpt>
      <trkpt lat="42.22476" lon="2.28904">
        <ele>828.6</ele>
        <time>2022-05-21 22:52:06</time>
      </trkpt>
      <trkpt lat="42.22473" lon="2.28906">
        <ele>828.8</ele>
        <time>2022-05-21 22:52:07</time>
      </trkpt>
      <trkpt lat="42.2247" lon="2.28907">
        <ele>828.8</ele>
        <time>2022-05-21 22:52:08</time>
      </trkpt>
      <trkpt lat="42.22468" lon="2.28909">
        <ele>829</ele>
        <time>2022-05-21 22:52:09</time>
      </trkpt>
      <trkpt lat="42.22465" lon="2.28912">
        <ele>829.2</ele>
        <time>2022-05-21 22:52:10</time>
      </trkpt>
      <trkpt lat="42.22463" lon="2.28914">
        <ele>829.4</ele>
        <time>2022-05-21 22:52:11</time>
      </trkpt>
      <trkpt lat="42.22461" lon="2.28916">
        <ele>829.4</ele>
        <time>2022-05-21 22:52:12</time>
      </trkpt>
      <trkpt lat="42.22458" lon="2.28918">
        <ele>829.6</ele>
        <time>2022-05-21 22:52:13</time>
      </trkpt>
      <trkpt lat="42.22456" lon="2.28919">
        <ele>829.8</ele>
        <time>2022-05-21 22:52:14</time>
      </trkpt>
      <trkpt lat="42.22453" lon="2.28921">
        <ele>829.8</ele>
        <time>2022-05-21 22:52:15</time>
      </trkpt>
      <trkpt lat="42.2245" lon="2.28923">
        <ele>830</ele>
        <time>2022-05-21 22:52:16</time>
      </trkpt>
      <trkpt lat="42.22448" lon="2.28924">
        <ele>830</ele>
        <time>2022-05-21 22:52:17</time>
      </trkpt>
      <trkpt lat="42.22445" lon="2.28927">
        <ele>830.2</ele>
        <time>2022-05-21 22:52:18</time>
      </trkpt>
      <trkpt lat="42.22443" lon="2.28929">
        <ele>830.4</ele>
        <time>2022-05-21 22:52:19</time>
      </trkpt>
      <trkpt lat="42.2244" lon="2.28931">
        <ele>830.4</ele>
        <time>2022-05-21 22:52:20</time>
      </trkpt>
      <trkpt lat="42.22437" lon="2.28932">
        <ele>830.6</ele>
        <time>2022-05-21 22:52:21</time>
      </trkpt>
      <trkpt lat="42.22435" lon="2.28933">
        <ele>830.6</ele>
        <time>2022-05-21 22:52:22</time>
      </trkpt>
      <trkpt lat="42.22432" lon="2.28934">
        <ele>830.8</ele>
        <time>2022-05-21 22:52:23</time>
      </trkpt>
      <trkpt lat="42.2243" lon="2.28935">
        <ele>831</ele>
        <time>2022-05-21 22:52:24</time>
      </trkpt>
      <trkpt lat="42.22427" lon="2.28935">
        <ele>831</ele>
        <time>2022-05-21 22:52:25</time>
      </trkpt>
      <trkpt lat="42.22424" lon="2.28936">
        <ele>831.2</ele>
        <time>2022-05-21 22:52:26</time>
      </trkpt>
      <trkpt lat="42.22422" lon="2.28936">
        <ele>831.2</ele>
        <time>2022-05-21 22:52:27</time>
      </trkpt>
      <trkpt lat="42.22419" lon="2.28936">
        <ele>831.4</ele>
        <time>2022-05-21 22:52:28</time>
      </trkpt>
      <trkpt lat="42.22417" lon="2.28937">
        <ele>831.4</ele>
        <time>2022-05-21 22:52:29</time>
      </trkpt>
      <trkpt lat="42.22414" lon="2.28938">
        <ele>831.6</ele>
        <time>2022-05-21 22:52:30</time>
      </trkpt>
      <trkpt lat="42.22412" lon="2.28938">
        <ele>831.6</ele>
        <time>2022-05-21 22:52:31</time>
      </trkpt>
      <trkpt lat="42.22409" lon="2.28939">
        <ele>831.8</ele>
        <time>2022-05-21 22:52:32</time>
      </trkpt>
      <trkpt lat="42.22407" lon="2.2894">
        <ele>831.8</ele>
        <time>2022-05-21 22:52:33</time>
      </trkpt>
      <trkpt lat="42.22404" lon="2.28941">
        <ele>832</ele>
        <time>2022-05-21 22:52:34</time>
      </trkpt>
      <trkpt lat="42.22402" lon="2.28942">
        <ele>832</ele>
        <time>2022-05-21 22:52:35</time>
      </trkpt>
      <trkpt lat="42.22399" lon="2.28943">
        <ele>832.2</ele>
        <time>2022-05-21 22:52:36</time>
      </trkpt>
      <trkpt lat="42.22397" lon="2.28943">
        <ele>832.2</ele>
        <time>2022-05-21 22:52:37</time>
      </trkpt>
      <trkpt lat="42.22394" lon="2.28944">
        <ele>832.4</ele>
        <time>2022-05-21 22:52:38</time>
      </trkpt>
      <trkpt lat="42.22392" lon="2.28945">
        <ele>832.6</ele>
        <time>2022-05-21 22:52:39</time>
      </trkpt>
      <trkpt lat="42.22389" lon="2.28945">
        <ele>832.6</ele>
        <time>2022-05-21 22:52:40</time>
      </trkpt>
      <trkpt lat="42.22386" lon="2.28946">
        <ele>832.8</ele>
        <time>2022-05-21 22:52:41</time>
      </trkpt>
      <trkpt lat="42.22384" lon="2.28946">
        <ele>833</ele>
        <time>2022-05-21 22:52:42</time>
      </trkpt>
      <trkpt lat="42.22381" lon="2.28947">
        <ele>833</ele>
        <time>2022-05-21 22:52:43</time>
      </trkpt>
      <trkpt lat="42.22379" lon="2.28949">
        <ele>833.2</ele>
        <time>2022-05-21 22:52:44</time>
      </trkpt>
      <trkpt lat="42.22377" lon="2.2895">
        <ele>833.4</ele>
        <time>2022-05-21 22:52:45</time>
      </trkpt>
      <trkpt lat="42.22374" lon="2.28951">
        <ele>833.4</ele>
        <time>2022-05-21 22:52:46</time>
      </trkpt>
      <trkpt lat="42.22372" lon="2.28953">
        <ele>833.6</ele>
        <time>2022-05-21 22:52:47</time>
      </trkpt>
      <trkpt lat="42.22369" lon="2.28955">
        <ele>833.6</ele>
        <time>2022-05-21 22:52:48</time>
      </trkpt>
      <trkpt lat="42.22367" lon="2.28957">
        <ele>833.8</ele>
        <time>2022-05-21 22:52:49</time>
      </trkpt>
      <trkpt lat="42.22365" lon="2.2896">
        <ele>833.8</ele>
        <time>2022-05-21 22:52:50</time>
      </trkpt>
      <trkpt lat="42.22363" lon="2.28963">
        <ele>834</ele>
        <time>2022-05-21 22:52:51</time>
      </trkpt>
      <trkpt lat="42.22361" lon="2.28966">
        <ele>834</ele>
        <time>2022-05-21 22:52:52</time>
      </trkpt>
      <trkpt lat="42.22359" lon="2.28969">
        <ele>834.2</ele>
        <time>2022-05-21 22:52:53</time>
      </trkpt>
      <trkpt lat="42.22357" lon="2.28972">
        <ele>834.2</ele>
        <time>2022-05-21 22:52:54</time>
      </trkpt>
      <trkpt lat="42.22355" lon="2.28975">
        <ele>834.2</ele>
        <time>2022-05-21 22:52:55</time>
      </trkpt>
      <trkpt lat="42.22354" lon="2.28979">
        <ele>834.4</ele>
        <time>2022-05-21 22:52:56</time>
      </trkpt>
      <trkpt lat="42.22353" lon="2.28982">
        <ele>834.4</ele>
        <time>2022-05-21 22:52:57</time>
      </trkpt>
      <trkpt lat="42.22351" lon="2.28987">
        <ele>834.4</ele>
        <time>2022-05-21 22:52:58</time>
      </trkpt>
      <trkpt lat="42.2235" lon="2.2899">
        <ele>834.6</ele>
        <time>2022-05-21 22:52:59</time>
      </trkpt>
      <trkpt lat="42.22349" lon="2.28994">
        <ele>834.6</ele>
        <time>2022-05-21 22:53:00</time>
      </trkpt>
      <trkpt lat="42.22348" lon="2.28998">
        <ele>834.6</ele>
        <time>2022-05-21 22:53:01</time>
      </trkpt>
      <trkpt lat="42.22347" lon="2.29002">
        <ele>834.6</ele>
        <time>2022-05-21 22:53:02</time>
      </trkpt>
      <trkpt lat="42.22346" lon="2.29005">
        <ele>834.6</ele>
        <time>2022-05-21 22:53:03</time>
      </trkpt>
      <trkpt lat="42.22345" lon="2.29009">
        <ele>834.6</ele>
        <time>2022-05-21 22:53:04</time>
      </trkpt>
      <trkpt lat="42.22343" lon="2.29012">
        <ele>834.6</ele>
        <time>2022-05-21 22:53:05</time>
      </trkpt>
      <trkpt lat="42.22342" lon="2.29016">
        <ele>834.6</ele>
        <time>2022-05-21 22:53:06</time>
      </trkpt>
      <trkpt lat="42.22341" lon="2.29019">
        <ele>834.6</ele>
        <time>2022-05-21 22:53:07</time>
      </trkpt>
      <trkpt lat="42.2234" lon="2.29022">
        <ele>834.6</ele>
        <time>2022-05-21 22:53:08</time>
      </trkpt>
      <trkpt lat="42.2234" lon="2.29026">
        <ele>834.6</ele>
        <time>2022-05-21 22:53:09</time>
      </trkpt>
      <trkpt lat="42.22339" lon="2.29029">
        <ele>834.6</ele>
        <time>2022-05-21 22:53:10</time>
      </trkpt>
      <trkpt lat="42.22338" lon="2.29032">
        <ele>834.6</ele>
        <time>2022-05-21 22:53:11</time>
      </trkpt>
      <trkpt lat="42.22337" lon="2.29036">
        <ele>834.6</ele>
        <time>2022-05-21 22:53:12</time>
      </trkpt>
      <trkpt lat="42.22336" lon="2.29039">
        <ele>834.6</ele>
        <time>2022-05-21 22:53:13</time>
      </trkpt>
      <trkpt lat="42.22335" lon="2.29042">
        <ele>834.6</ele>
        <time>2022-05-21 22:53:14</time>
      </trkpt>
      <trkpt lat="42.22334" lon="2.29046">
        <ele>834.4</ele>
        <time>2022-05-21 22:53:15</time>
      </trkpt>
      <trkpt lat="42.22333" lon="2.29049">
        <ele>834.4</ele>
        <time>2022-05-21 22:53:16</time>
      </trkpt>
      <trkpt lat="42.22332" lon="2.29053">
        <ele>834.6</ele>
        <time>2022-05-21 22:53:17</time>
      </trkpt>
      <trkpt lat="42.2233" lon="2.29056">
        <ele>834.6</ele>
        <time>2022-05-21 22:53:18</time>
      </trkpt>
      <trkpt lat="42.22329" lon="2.29058">
        <ele>834.6</ele>
        <time>2022-05-21 22:53:19</time>
      </trkpt>
      <trkpt lat="42.22328" lon="2.29061">
        <ele>834.6</ele>
        <time>2022-05-21 22:53:20</time>
      </trkpt>
      <trkpt lat="42.22326" lon="2.29064">
        <ele>834.6</ele>
        <time>2022-05-21 22:53:21</time>
      </trkpt>
      <trkpt lat="42.22325" lon="2.29067">
        <ele>834.6</ele>
        <time>2022-05-21 22:53:22</time>
      </trkpt>
      <trkpt lat="42.22324" lon="2.2907">
        <ele>834.6</ele>
        <time>2022-05-21 22:53:23</time>
      </trkpt>
      <trkpt lat="42.22323" lon="2.29074">
        <ele>834.6</ele>
        <time>2022-05-21 22:53:24</time>
      </trkpt>
      <trkpt lat="42.22322" lon="2.29078">
        <ele>834.6</ele>
        <time>2022-05-21 22:53:25</time>
      </trkpt>
      <trkpt lat="42.2232" lon="2.29081">
        <ele>834.6</ele>
        <time>2022-05-21 22:53:26</time>
      </trkpt>
      <trkpt lat="42.22319" lon="2.29085">
        <ele>834.6</ele>
        <time>2022-05-21 22:53:27</time>
      </trkpt>
      <trkpt lat="42.22318" lon="2.29088">
        <ele>834.6</ele>
        <time>2022-05-21 22:53:28</time>
      </trkpt>
      <trkpt lat="42.22317" lon="2.29092">
        <ele>834.6</ele>
        <time>2022-05-21 22:53:29</time>
      </trkpt>
      <trkpt lat="42.22315" lon="2.29096">
        <ele>834.6</ele>
        <time>2022-05-21 22:53:30</time>
      </trkpt>
      <trkpt lat="42.22314" lon="2.291">
        <ele>834.6</ele>
        <time>2022-05-21 22:53:31</time>
      </trkpt>
      <trkpt lat="42.22312" lon="2.29104">
        <ele>834.6</ele>
        <time>2022-05-21 22:53:32</time>
      </trkpt>
      <trkpt lat="42.22311" lon="2.29108">
        <ele>834.6</ele>
        <time>2022-05-21 22:53:33</time>
      </trkpt>
      <trkpt lat="42.2231" lon="2.29111">
        <ele>834.6</ele>
        <time>2022-05-21 22:53:34</time>
      </trkpt>
      <trkpt lat="42.22308" lon="2.29115">
        <ele>834.6</ele>
        <time>2022-05-21 22:53:35</time>
      </trkpt>
      <trkpt lat="42.22307" lon="2.29119">
        <ele>834.6</ele>
        <time>2022-05-21 22:53:36</time>
      </trkpt>
      <trkpt lat="42.22305" lon="2.29123">
        <ele>834.6</ele>
        <time>2022-05-21 22:53:37</time>
      </trkpt>
      <trkpt lat="42.22303" lon="2.29127">
        <ele>834.6</ele>
        <time>2022-05-21 22:53:38</time>
      </trkpt>
      <trkpt lat="42.223" lon="2.29131">
        <ele>834.6</ele>
        <time>2022-05-21 22:53:39</time>
      </trkpt>
      <trkpt lat="42.22298" lon="2.29136">
        <ele>834.6</ele>
        <time>2022-05-21 22:53:40</time>
      </trkpt>
      <trkpt lat="42.22295" lon="2.29139">
        <ele>834.6</ele>
        <time>2022-05-21 22:53:41</time>
      </trkpt>
      <trkpt lat="42.22292" lon="2.29142">
        <ele>834.6</ele>
        <time>2022-05-21 22:53:42</time>
      </trkpt>
      <trkpt lat="42.22288" lon="2.29143">
        <ele>834.6</ele>
        <time>2022-05-21 22:53:43</time>
      </trkpt>
      <trkpt lat="42.22284" lon="2.29144">
        <ele>834.6</ele>
        <time>2022-05-21 22:53:44</time>
      </trkpt>
      <trkpt lat="42.22281" lon="2.29144">
        <ele>834.6</ele>
        <time>2022-05-21 22:53:45</time>
      </trkpt>
      <trkpt lat="42.22277" lon="2.29143">
        <ele>834.6</ele>
        <time>2022-05-21 22:53:46</time>
      </trkpt>
      <trkpt lat="42.22274" lon="2.29142">
        <ele>834.6</ele>
        <time>2022-05-21 22:53:47</time>
      </trkpt>
      <trkpt lat="42.22271" lon="2.2914">
        <ele>834.8</ele>
        <time>2022-05-21 22:53:48</time>
      </trkpt>
      <trkpt lat="42.22268" lon="2.29138">
        <ele>834.8</ele>
        <time>2022-05-21 22:53:49</time>
      </trkpt>
      <trkpt lat="42.22265" lon="2.29137">
        <ele>834.8</ele>
        <time>2022-05-21 22:53:50</time>
      </trkpt>
      <trkpt lat="42.22261" lon="2.29135">
        <ele>834.8</ele>
        <time>2022-05-21 22:53:51</time>
      </trkpt>
      <trkpt lat="42.22258" lon="2.29134">
        <ele>835</ele>
        <time>2022-05-21 22:53:52</time>
      </trkpt>
      <trkpt lat="42.22255" lon="2.29134">
        <ele>835</ele>
        <time>2022-05-21 22:53:53</time>
      </trkpt>
      <trkpt lat="42.22252" lon="2.29133">
        <ele>835</ele>
        <time>2022-05-21 22:53:54</time>
      </trkpt>
      <trkpt lat="42.22249" lon="2.29133">
        <ele>835</ele>
        <time>2022-05-21 22:53:55</time>
      </trkpt>
      <trkpt lat="42.22246" lon="2.29133">
        <ele>835</ele>
        <time>2022-05-21 22:53:56</time>
      </trkpt>
      <trkpt lat="42.22242" lon="2.29133">
        <ele>835</ele>
        <time>2022-05-21 22:53:57</time>
      </trkpt>
      <trkpt lat="42.22239" lon="2.29133">
        <ele>835</ele>
        <time>2022-05-21 22:53:58</time>
      </trkpt>
      <trkpt lat="42.22235" lon="2.29133">
        <ele>835</ele>
        <time>2022-05-21 22:53:59</time>
      </trkpt>
      <trkpt lat="42.22231" lon="2.29134">
        <ele>835</ele>
        <time>2022-05-21 22:54:00</time>
      </trkpt>
      <trkpt lat="42.22227" lon="2.29135">
        <ele>835</ele>
        <time>2022-05-21 22:54:01</time>
      </trkpt>
      <trkpt lat="42.22223" lon="2.29135">
        <ele>835</ele>
        <time>2022-05-21 22:54:02</time>
      </trkpt>
      <trkpt lat="42.22219" lon="2.29136">
        <ele>835</ele>
        <time>2022-05-21 22:54:03</time>
      </trkpt>
      <trkpt lat="42.22216" lon="2.29137">
        <ele>835.2</ele>
        <time>2022-05-21 22:54:04</time>
      </trkpt>
      <trkpt lat="42.22212" lon="2.29139">
        <ele>835.2</ele>
        <time>2022-05-21 22:54:05</time>
      </trkpt>
      <trkpt lat="42.22208" lon="2.2914">
        <ele>835.2</ele>
        <time>2022-05-21 22:54:06</time>
      </trkpt>
      <trkpt lat="42.22205" lon="2.29142">
        <ele>835.2</ele>
        <time>2022-05-21 22:54:07</time>
      </trkpt>
      <trkpt lat="42.22201" lon="2.29143">
        <ele>835.2</ele>
        <time>2022-05-21 22:54:08</time>
      </trkpt>
      <trkpt lat="42.22197" lon="2.29144">
        <ele>835.2</ele>
        <time>2022-05-21 22:54:09</time>
      </trkpt>
      <trkpt lat="42.22193" lon="2.29146">
        <ele>835.2</ele>
        <time>2022-05-21 22:54:10</time>
      </trkpt>
      <trkpt lat="42.22189" lon="2.29147">
        <ele>835.2</ele>
        <time>2022-05-21 22:54:11</time>
      </trkpt>
      <trkpt lat="42.22185" lon="2.29148">
        <ele>835.2</ele>
        <time>2022-05-21 22:54:12</time>
      </trkpt>
      <trkpt lat="42.22181" lon="2.29149">
        <ele>835.4</ele>
        <time>2022-05-21 22:54:13</time>
      </trkpt>
      <trkpt lat="42.22177" lon="2.29151">
        <ele>835.4</ele>
        <time>2022-05-21 22:54:14</time>
      </trkpt>
      <trkpt lat="42.22173" lon="2.29152">
        <ele>835.4</ele>
        <time>2022-05-21 22:54:15</time>
      </trkpt>
      <trkpt lat="42.22169" lon="2.29153">
        <ele>835.2</ele>
        <time>2022-05-21 22:54:16</time>
      </trkpt>
      <trkpt lat="42.22165" lon="2.29155">
        <ele>835.2</ele>
        <time>2022-05-21 22:54:17</time>
      </trkpt>
      <trkpt lat="42.22161" lon="2.29157">
        <ele>835.2</ele>
        <time>2022-05-21 22:54:18</time>
      </trkpt>
      <trkpt lat="42.22157" lon="2.29159">
        <ele>835.4</ele>
        <time>2022-05-21 22:54:19</time>
      </trkpt>
      <trkpt lat="42.22153" lon="2.29161">
        <ele>835.4</ele>
        <time>2022-05-21 22:54:20</time>
      </trkpt>
      <trkpt lat="42.2215" lon="2.29164">
        <ele>835.4</ele>
        <time>2022-05-21 22:54:21</time>
      </trkpt>
      <trkpt lat="42.22146" lon="2.29166">
        <ele>835.4</ele>
        <time>2022-05-21 22:54:22</time>
      </trkpt>
      <trkpt lat="42.22143" lon="2.29168">
        <ele>835.4</ele>
        <time>2022-05-21 22:54:23</time>
      </trkpt>
      <trkpt lat="42.22139" lon="2.2917">
        <ele>835.2</ele>
        <time>2022-05-21 22:54:24</time>
      </trkpt>
      <trkpt lat="42.22136" lon="2.29173">
        <ele>835.2</ele>
        <time>2022-05-21 22:54:25</time>
      </trkpt>
      <trkpt lat="42.22133" lon="2.29176">
        <ele>835.2</ele>
        <time>2022-05-21 22:54:26</time>
      </trkpt>
      <trkpt lat="42.22129" lon="2.29178">
        <ele>835.2</ele>
        <time>2022-05-21 22:54:27</time>
      </trkpt>
      <trkpt lat="42.22125" lon="2.29181">
        <ele>835</ele>
        <time>2022-05-21 22:54:28</time>
      </trkpt>
      <trkpt lat="42.22122" lon="2.29183">
        <ele>835</ele>
        <time>2022-05-21 22:54:29</time>
      </trkpt>
      <trkpt lat="42.22118" lon="2.29186">
        <ele>834.8</ele>
        <time>2022-05-21 22:54:30</time>
      </trkpt>
      <trkpt lat="42.22114" lon="2.29189">
        <ele>834.8</ele>
        <time>2022-05-21 22:54:31</time>
      </trkpt>
      <trkpt lat="42.2211" lon="2.29192">
        <ele>834.6</ele>
        <time>2022-05-21 22:54:32</time>
      </trkpt>
      <trkpt lat="42.22106" lon="2.29195">
        <ele>834.4</ele>
        <time>2022-05-21 22:54:33</time>
      </trkpt>
      <trkpt lat="42.22102" lon="2.29198">
        <ele>834.4</ele>
        <time>2022-05-21 22:54:34</time>
      </trkpt>
      <trkpt lat="42.22098" lon="2.29201">
        <ele>834.2</ele>
        <time>2022-05-21 22:54:35</time>
      </trkpt>
      <trkpt lat="42.22094" lon="2.29205">
        <ele>834</ele>
        <time>2022-05-21 22:54:36</time>
      </trkpt>
      <trkpt lat="42.22091" lon="2.29209">
        <ele>834</ele>
        <time>2022-05-21 22:54:37</time>
      </trkpt>
      <trkpt lat="42.22088" lon="2.29215">
        <ele>833.8</ele>
        <time>2022-05-21 22:54:38</time>
      </trkpt>
      <trkpt lat="42.22085" lon="2.2922">
        <ele>833.6</ele>
        <time>2022-05-21 22:54:39</time>
      </trkpt>
      <trkpt lat="42.22084" lon="2.29227">
        <ele>833.4</ele>
        <time>2022-05-21 22:54:40</time>
      </trkpt>
      <trkpt lat="42.22084" lon="2.29233">
        <ele>833.2</ele>
        <time>2022-05-21 22:54:41</time>
      </trkpt>
      <trkpt lat="42.22084" lon="2.29241">
        <ele>833</ele>
        <time>2022-05-21 22:54:42</time>
      </trkpt>
      <trkpt lat="42.22086" lon="2.29248">
        <ele>832.8</ele>
        <time>2022-05-21 22:54:43</time>
      </trkpt>
      <trkpt lat="42.22088" lon="2.29255">
        <ele>832.6</ele>
        <time>2022-05-21 22:54:44</time>
      </trkpt>
      <trkpt lat="42.2209" lon="2.29262">
        <ele>832.4</ele>
        <time>2022-05-21 22:54:45</time>
      </trkpt>
      <trkpt lat="42.22092" lon="2.29269">
        <ele>832.2</ele>
        <time>2022-05-21 22:54:46</time>
      </trkpt>
      <trkpt lat="42.22094" lon="2.29275">
        <ele>832</ele>
        <time>2022-05-21 22:54:47</time>
      </trkpt>
      <trkpt lat="42.22097" lon="2.29282">
        <ele>832</ele>
        <time>2022-05-21 22:54:48</time>
      </trkpt>
      <trkpt lat="42.22099" lon="2.29289">
        <ele>831.8</ele>
        <time>2022-05-21 22:54:49</time>
      </trkpt>
      <trkpt lat="42.22101" lon="2.29296">
        <ele>831.6</ele>
        <time>2022-05-21 22:54:50</time>
      </trkpt>
      <trkpt lat="42.22104" lon="2.29304">
        <ele>831.4</ele>
        <time>2022-05-21 22:54:51</time>
      </trkpt>
      <trkpt lat="42.22105" lon="2.29311">
        <ele>831.2</ele>
        <time>2022-05-21 22:54:52</time>
      </trkpt>
      <trkpt lat="42.22106" lon="2.29318">
        <ele>831.2</ele>
        <time>2022-05-21 22:54:53</time>
      </trkpt>
      <trkpt lat="42.22105" lon="2.29325">
        <ele>831</ele>
        <time>2022-05-21 22:54:54</time>
      </trkpt>
      <trkpt lat="42.22103" lon="2.29333">
        <ele>830.8</ele>
        <time>2022-05-21 22:54:55</time>
      </trkpt>
      <trkpt lat="42.22101" lon="2.29339">
        <ele>830.8</ele>
        <time>2022-05-21 22:54:56</time>
      </trkpt>
      <trkpt lat="42.22098" lon="2.29345">
        <ele>830.6</ele>
        <time>2022-05-21 22:54:57</time>
      </trkpt>
      <trkpt lat="42.22094" lon="2.29351">
        <ele>830.6</ele>
        <time>2022-05-21 22:54:58</time>
      </trkpt>
      <trkpt lat="42.2209" lon="2.29355">
        <ele>830.6</ele>
        <time>2022-05-21 22:54:59</time>
      </trkpt>
      <trkpt lat="42.22086" lon="2.29358">
        <ele>830.6</ele>
        <time>2022-05-21 22:55:00</time>
      </trkpt>
      <trkpt lat="42.22081" lon="2.29359">
        <ele>830.8</ele>
        <time>2022-05-21 22:55:01</time>
      </trkpt>
      <trkpt lat="42.22076" lon="2.29359">
        <ele>830.8</ele>
        <time>2022-05-21 22:55:02</time>
      </trkpt>
      <trkpt lat="42.22072" lon="2.29358">
        <ele>830.8</ele>
        <time>2022-05-21 22:55:03</time>
      </trkpt>
      <trkpt lat="42.22067" lon="2.29358">
        <ele>830.8</ele>
        <time>2022-05-21 22:55:04</time>
      </trkpt>
      <trkpt lat="42.22064" lon="2.29357">
        <ele>831</ele>
        <time>2022-05-21 22:55:05</time>
      </trkpt>
      <trkpt lat="42.2206" lon="2.29357">
        <ele>831</ele>
        <time>2022-05-21 22:55:06</time>
      </trkpt>
      <trkpt lat="42.22055" lon="2.29356">
        <ele>831</ele>
        <time>2022-05-21 22:55:07</time>
      </trkpt>
      <trkpt lat="42.22051" lon="2.29356">
        <ele>831</ele>
        <time>2022-05-21 22:55:08</time>
      </trkpt>
      <trkpt lat="42.22047" lon="2.29355">
        <ele>831</ele>
        <time>2022-05-21 22:55:09</time>
      </trkpt>
      <trkpt lat="42.22042" lon="2.29354">
        <ele>831</ele>
        <time>2022-05-21 22:55:10</time>
      </trkpt>
      <trkpt lat="42.22039" lon="2.29353">
        <ele>831</ele>
        <time>2022-05-21 22:55:11</time>
      </trkpt>
      <trkpt lat="42.22035" lon="2.29352">
        <ele>831</ele>
        <time>2022-05-21 22:55:12</time>
      </trkpt>
      <trkpt lat="42.22031" lon="2.29351">
        <ele>831</ele>
        <time>2022-05-21 22:55:13</time>
      </trkpt>
      <trkpt lat="42.22027" lon="2.29349">
        <ele>831</ele>
        <time>2022-05-21 22:55:14</time>
      </trkpt>
      <trkpt lat="42.22023" lon="2.29347">
        <ele>831</ele>
        <time>2022-05-21 22:55:15</time>
      </trkpt>
      <trkpt lat="42.2202" lon="2.29344">
        <ele>831</ele>
        <time>2022-05-21 22:55:16</time>
      </trkpt>
      <trkpt lat="42.22017" lon="2.29341">
        <ele>831.2</ele>
        <time>2022-05-21 22:55:17</time>
      </trkpt>
      <trkpt lat="42.22013" lon="2.29338">
        <ele>831.2</ele>
        <time>2022-05-21 22:55:18</time>
      </trkpt>
      <trkpt lat="42.22009" lon="2.29336">
        <ele>831.2</ele>
        <time>2022-05-21 22:55:19</time>
      </trkpt>
      <trkpt lat="42.22005" lon="2.29334">
        <ele>831.2</ele>
        <time>2022-05-21 22:55:20</time>
      </trkpt>
      <trkpt lat="42.22001" lon="2.29333">
        <ele>831.2</ele>
        <time>2022-05-21 22:55:21</time>
      </trkpt>
      <trkpt lat="42.21997" lon="2.29332">
        <ele>831.2</ele>
        <time>2022-05-21 22:55:22</time>
      </trkpt>
      <trkpt lat="42.21992" lon="2.29331">
        <ele>831.2</ele>
        <time>2022-05-21 22:55:23</time>
      </trkpt>
      <trkpt lat="42.21988" lon="2.2933">
        <ele>831.2</ele>
        <time>2022-05-21 22:55:24</time>
      </trkpt>
      <trkpt lat="42.21983" lon="2.29331">
        <ele>831.2</ele>
        <time>2022-05-21 22:55:25</time>
      </trkpt>
      <trkpt lat="42.21979" lon="2.29332">
        <ele>831.2</ele>
        <time>2022-05-21 22:55:26</time>
      </trkpt>
      <trkpt lat="42.21975" lon="2.29333">
        <ele>831.2</ele>
        <time>2022-05-21 22:55:27</time>
      </trkpt>
      <trkpt lat="42.21971" lon="2.29336">
        <ele>831.2</ele>
        <time>2022-05-21 22:55:28</time>
      </trkpt>
      <trkpt lat="42.21967" lon="2.29339">
        <ele>831.2</ele>
        <time>2022-05-21 22:55:29</time>
      </trkpt>
      <trkpt lat="42.21964" lon="2.29342">
        <ele>831.2</ele>
        <time>2022-05-21 22:55:30</time>
      </trkpt>
      <trkpt lat="42.2196" lon="2.29346">
        <ele>831.2</ele>
        <time>2022-05-21 22:55:31</time>
      </trkpt>
      <trkpt lat="42.21957" lon="2.2935">
        <ele>831.2</ele>
        <time>2022-05-21 22:55:32</time>
      </trkpt>
      <trkpt lat="42.21954" lon="2.29353">
        <ele>831</ele>
        <time>2022-05-21 22:55:33</time>
      </trkpt>
      <trkpt lat="42.2195" lon="2.29357">
        <ele>831</ele>
        <time>2022-05-21 22:55:34</time>
      </trkpt>
      <trkpt lat="42.21947" lon="2.29361">
        <ele>831</ele>
        <time>2022-05-21 22:55:35</time>
      </trkpt>
      <trkpt lat="42.21944" lon="2.29365">
        <ele>831</ele>
        <time>2022-05-21 22:55:36</time>
      </trkpt>
      <trkpt lat="42.21941" lon="2.2937">
        <ele>831</ele>
        <time>2022-05-21 22:55:37</time>
      </trkpt>
      <trkpt lat="42.21938" lon="2.29374">
        <ele>831.2</ele>
        <time>2022-05-21 22:55:38</time>
      </trkpt>
      <trkpt lat="42.21935" lon="2.29379">
        <ele>831.2</ele>
        <time>2022-05-21 22:55:39</time>
      </trkpt>
      <trkpt lat="42.21933" lon="2.29383">
        <ele>831.2</ele>
        <time>2022-05-21 22:55:40</time>
      </trkpt>
      <trkpt lat="42.21932" lon="2.29389">
        <ele>831.2</ele>
        <time>2022-05-21 22:55:41</time>
      </trkpt>
      <trkpt lat="42.21931" lon="2.29394">
        <ele>831.2</ele>
        <time>2022-05-21 22:55:42</time>
      </trkpt>
      <trkpt lat="42.21931" lon="2.29399">
        <ele>831.2</ele>
        <time>2022-05-21 22:55:43</time>
      </trkpt>
      <trkpt lat="42.21932" lon="2.29404">
        <ele>831.2</ele>
        <time>2022-05-21 22:55:44</time>
      </trkpt>
      <trkpt lat="42.21933" lon="2.2941">
        <ele>831.2</ele>
        <time>2022-05-21 22:55:45</time>
      </trkpt>
      <trkpt lat="42.21935" lon="2.29415">
        <ele>831.2</ele>
        <time>2022-05-21 22:55:46</time>
      </trkpt>
      <trkpt lat="42.21937" lon="2.2942">
        <ele>831.2</ele>
        <time>2022-05-21 22:55:47</time>
      </trkpt>
      <trkpt lat="42.21938" lon="2.29425">
        <ele>831.2</ele>
        <time>2022-05-21 22:55:48</time>
      </trkpt>
      <trkpt lat="42.21939" lon="2.29429">
        <ele>831.2</ele>
        <time>2022-05-21 22:55:49</time>
      </trkpt>
      <trkpt lat="42.21941" lon="2.29434">
        <ele>831.2</ele>
        <time>2022-05-21 22:55:50</time>
      </trkpt>
      <trkpt lat="42.21942" lon="2.29439">
        <ele>831.2</ele>
        <time>2022-05-21 22:55:51</time>
      </trkpt>
      <trkpt lat="42.21943" lon="2.29444">
        <ele>831.2</ele>
        <time>2022-05-21 22:55:52</time>
      </trkpt>
      <trkpt lat="42.21944" lon="2.29449">
        <ele>831.2</ele>
        <time>2022-05-21 22:55:53</time>
      </trkpt>
      <trkpt lat="42.21944" lon="2.29454">
        <ele>831.2</ele>
        <time>2022-05-21 22:55:54</time>
      </trkpt>
      <trkpt lat="42.21943" lon="2.2946">
        <ele>831.2</ele>
        <time>2022-05-21 22:55:55</time>
      </trkpt>
      <trkpt lat="42.21942" lon="2.29466">
        <ele>831.2</ele>
        <time>2022-05-21 22:55:56</time>
      </trkpt>
      <trkpt lat="42.2194" lon="2.29471">
        <ele>831.2</ele>
        <time>2022-05-21 22:55:57</time>
      </trkpt>
      <trkpt lat="42.21939" lon="2.29476">
        <ele>831.2</ele>
        <time>2022-05-21 22:55:58</time>
      </trkpt>
      <trkpt lat="42.21937" lon="2.29481">
        <ele>831.2</ele>
        <time>2022-05-21 22:55:59</time>
      </trkpt>
      <trkpt lat="42.21934" lon="2.29486">
        <ele>831.2</ele>
        <time>2022-05-21 22:56:00</time>
      </trkpt>
      <trkpt lat="42.2193" lon="2.2949">
        <ele>831.2</ele>
        <time>2022-05-21 22:56:01</time>
      </trkpt>
      <trkpt lat="42.21927" lon="2.29494">
        <ele>831.2</ele>
        <time>2022-05-21 22:56:02</time>
      </trkpt>
      <trkpt lat="42.21923" lon="2.29497">
        <ele>831.2</ele>
        <time>2022-05-21 22:56:03</time>
      </trkpt>
      <trkpt lat="42.21919" lon="2.295">
        <ele>831.2</ele>
        <time>2022-05-21 22:56:04</time>
      </trkpt>
      <trkpt lat="42.21916" lon="2.29502">
        <ele>831.2</ele>
        <time>2022-05-21 22:56:05</time>
      </trkpt>
      <trkpt lat="42.21912" lon="2.29505">
        <ele>831.2</ele>
        <time>2022-05-21 22:56:06</time>
      </trkpt>
      <trkpt lat="42.21908" lon="2.29508">
        <ele>831.4</ele>
        <time>2022-05-21 22:56:07</time>
      </trkpt>
      <trkpt lat="42.21905" lon="2.29512">
        <ele>831.4</ele>
        <time>2022-05-21 22:56:08</time>
      </trkpt>
      <trkpt lat="42.21903" lon="2.29516">
        <ele>831.4</ele>
        <time>2022-05-21 22:56:09</time>
      </trkpt>
      <trkpt lat="42.21901" lon="2.29521">
        <ele>831.4</ele>
        <time>2022-05-21 22:56:10</time>
      </trkpt>
      <trkpt lat="42.21901" lon="2.29526">
        <ele>831.4</ele>
        <time>2022-05-21 22:56:11</time>
      </trkpt>
      <trkpt lat="42.21901" lon="2.29532">
        <ele>831.4</ele>
        <time>2022-05-21 22:56:12</time>
      </trkpt>
      <trkpt lat="42.21902" lon="2.29537">
        <ele>831.4</ele>
        <time>2022-05-21 22:56:13</time>
      </trkpt>
      <trkpt lat="42.21904" lon="2.29542">
        <ele>831.4</ele>
        <time>2022-05-21 22:56:14</time>
      </trkpt>
      <trkpt lat="42.21906" lon="2.29548">
        <ele>831.4</ele>
        <time>2022-05-21 22:56:15</time>
      </trkpt>
      <trkpt lat="42.21908" lon="2.29554">
        <ele>831.4</ele>
        <time>2022-05-21 22:56:16</time>
      </trkpt>
      <trkpt lat="42.21909" lon="2.29559">
        <ele>831.4</ele>
        <time>2022-05-21 22:56:17</time>
      </trkpt>
      <trkpt lat="42.21911" lon="2.29564">
        <ele>831.4</ele>
        <time>2022-05-21 22:56:18</time>
      </trkpt>
      <trkpt lat="42.21914" lon="2.29569">
        <ele>831.4</ele>
        <time>2022-05-21 22:56:19</time>
      </trkpt>
      <trkpt lat="42.21915" lon="2.29573">
        <ele>831.4</ele>
        <time>2022-05-21 22:56:20</time>
      </trkpt>
      <trkpt lat="42.21917" lon="2.29578">
        <ele>831.4</ele>
        <time>2022-05-21 22:56:21</time>
      </trkpt>
      <trkpt lat="42.21919" lon="2.29583">
        <ele>831.4</ele>
        <time>2022-05-21 22:56:22</time>
      </trkpt>
      <trkpt lat="42.21921" lon="2.29588">
        <ele>831.4</ele>
        <time>2022-05-21 22:56:23</time>
      </trkpt>
      <trkpt lat="42.21923" lon="2.29593">
        <ele>831.4</ele>
        <time>2022-05-21 22:56:24</time>
      </trkpt>
      <trkpt lat="42.21925" lon="2.29598">
        <ele>831.4</ele>
        <time>2022-05-21 22:56:25</time>
      </trkpt>
      <trkpt lat="42.21926" lon="2.29603">
        <ele>831.2</ele>
        <time>2022-05-21 22:56:26</time>
      </trkpt>
      <trkpt lat="42.21927" lon="2.29609">
        <ele>831.2</ele>
        <time>2022-05-21 22:56:27</time>
      </trkpt>
      <trkpt lat="42.21925" lon="2.29615">
        <ele>831.2</ele>
        <time>2022-05-21 22:56:28</time>
      </trkpt>
      <trkpt lat="42.21922" lon="2.2962">
        <ele>831.2</ele>
        <time>2022-05-21 22:56:29</time>
      </trkpt>
      <trkpt lat="42.21918" lon="2.29626">
        <ele>831.2</ele>
        <time>2022-05-21 22:56:30</time>
      </trkpt>
      <trkpt lat="42.21914" lon="2.29629">
        <ele>831.2</ele>
        <time>2022-05-21 22:56:31</time>
      </trkpt>
      <trkpt lat="42.21909" lon="2.29633">
        <ele>831.2</ele>
        <time>2022-05-21 22:56:32</time>
      </trkpt>
      <trkpt lat="42.21904" lon="2.29636">
        <ele>831.2</ele>
        <time>2022-05-21 22:56:33</time>
      </trkpt>
      <trkpt lat="42.219" lon="2.29638">
        <ele>831.2</ele>
        <time>2022-05-21 22:56:34</time>
      </trkpt>
      <trkpt lat="42.21896" lon="2.29641">
        <ele>831.2</ele>
        <time>2022-05-21 22:56:35</time>
      </trkpt>
      <trkpt lat="42.21891" lon="2.29642">
        <ele>831.2</ele>
        <time>2022-05-21 22:56:36</time>
      </trkpt>
      <trkpt lat="42.21887" lon="2.29642">
        <ele>831.2</ele>
        <time>2022-05-21 22:56:37</time>
      </trkpt>
      <trkpt lat="42.21883" lon="2.29641">
        <ele>831.2</ele>
        <time>2022-05-21 22:56:38</time>
      </trkpt>
      <trkpt lat="42.21879" lon="2.29639">
        <ele>831.4</ele>
        <time>2022-05-21 22:56:39</time>
      </trkpt>
      <trkpt lat="42.21876" lon="2.29636">
        <ele>831.4</ele>
        <time>2022-05-21 22:56:40</time>
      </trkpt>
      <trkpt lat="42.21872" lon="2.29633">
        <ele>831.4</ele>
        <time>2022-05-21 22:56:41</time>
      </trkpt>
      <trkpt lat="42.21868" lon="2.2963">
        <ele>831.4</ele>
        <time>2022-05-21 22:56:42</time>
      </trkpt>
      <trkpt lat="42.21864" lon="2.29629">
        <ele>831.4</ele>
        <time>2022-05-21 22:56:43</time>
      </trkpt>
      <trkpt lat="42.2186" lon="2.29628">
        <ele>831.4</ele>
        <time>2022-05-21 22:56:44</time>
      </trkpt>
      <trkpt lat="42.21855" lon="2.29628">
        <ele>831.4</ele>
        <time>2022-05-21 22:56:45</time>
      </trkpt>
      <trkpt lat="42.21851" lon="2.29629">
        <ele>831.4</ele>
        <time>2022-05-21 22:56:46</time>
      </trkpt>
      <trkpt lat="42.21847" lon="2.2963">
        <ele>831.4</ele>
        <time>2022-05-21 22:56:47</time>
      </trkpt>
      <trkpt lat="42.21843" lon="2.29632">
        <ele>831.4</ele>
        <time>2022-05-21 22:56:48</time>
      </trkpt>
      <trkpt lat="42.21838" lon="2.29635">
        <ele>831.4</ele>
        <time>2022-05-21 22:56:49</time>
      </trkpt>
      <trkpt lat="42.21834" lon="2.29637">
        <ele>831.4</ele>
        <time>2022-05-21 22:56:50</time>
      </trkpt>
      <trkpt lat="42.21829" lon="2.2964">
        <ele>831.4</ele>
        <time>2022-05-21 22:56:51</time>
      </trkpt>
      <trkpt lat="42.21824" lon="2.29644">
        <ele>831.4</ele>
        <time>2022-05-21 22:56:52</time>
      </trkpt>
      <trkpt lat="42.2182" lon="2.29648">
        <ele>831.4</ele>
        <time>2022-05-21 22:56:53</time>
      </trkpt>
      <trkpt lat="42.21816" lon="2.29652">
        <ele>831.4</ele>
        <time>2022-05-21 22:56:54</time>
      </trkpt>
      <trkpt lat="42.21813" lon="2.29657">
        <ele>831.6</ele>
        <time>2022-05-21 22:56:55</time>
      </trkpt>
      <trkpt lat="42.21811" lon="2.29662">
        <ele>831.6</ele>
        <time>2022-05-21 22:56:56</time>
      </trkpt>
      <trkpt lat="42.21809" lon="2.29667">
        <ele>831.6</ele>
        <time>2022-05-21 22:56:57</time>
      </trkpt>
      <trkpt lat="42.21807" lon="2.29672">
        <ele>831.6</ele>
        <time>2022-05-21 22:56:58</time>
      </trkpt>
      <trkpt lat="42.21806" lon="2.29677">
        <ele>831.8</ele>
        <time>2022-05-21 22:56:59</time>
      </trkpt>
      <trkpt lat="42.21805" lon="2.29683">
        <ele>831.8</ele>
        <time>2022-05-21 22:57:00</time>
      </trkpt>
      <trkpt lat="42.21804" lon="2.29689">
        <ele>831.8</ele>
        <time>2022-05-21 22:57:01</time>
      </trkpt>
      <trkpt lat="42.21804" lon="2.29695">
        <ele>831.8</ele>
        <time>2022-05-21 22:57:02</time>
      </trkpt>
      <trkpt lat="42.21804" lon="2.297">
        <ele>832</ele>
        <time>2022-05-21 22:57:03</time>
      </trkpt>
      <trkpt lat="42.21804" lon="2.29706">
        <ele>832</ele>
        <time>2022-05-21 22:57:04</time>
      </trkpt>
      <trkpt lat="42.21804" lon="2.29712">
        <ele>832</ele>
        <time>2022-05-21 22:57:05</time>
      </trkpt>
      <trkpt lat="42.21803" lon="2.29718">
        <ele>832.2</ele>
        <time>2022-05-21 22:57:06</time>
      </trkpt>
      <trkpt lat="42.21803" lon="2.29724">
        <ele>832.2</ele>
        <time>2022-05-21 22:57:07</time>
      </trkpt>
      <trkpt lat="42.21802" lon="2.2973">
        <ele>832.4</ele>
        <time>2022-05-21 22:57:08</time>
      </trkpt>
      <trkpt lat="42.21801" lon="2.29735">
        <ele>832.4</ele>
        <time>2022-05-21 22:57:09</time>
      </trkpt>
      <trkpt lat="42.21801" lon="2.2974">
        <ele>832.6</ele>
        <time>2022-05-21 22:57:10</time>
      </trkpt>
      <trkpt lat="42.218" lon="2.29746">
        <ele>832.6</ele>
        <time>2022-05-21 22:57:11</time>
      </trkpt>
      <trkpt lat="42.218" lon="2.29751">
        <ele>832.8</ele>
        <time>2022-05-21 22:57:12</time>
      </trkpt>
      <trkpt lat="42.218" lon="2.29757">
        <ele>832.8</ele>
        <time>2022-05-21 22:57:13</time>
      </trkpt>
      <trkpt lat="42.218" lon="2.29762">
        <ele>833</ele>
        <time>2022-05-21 22:57:14</time>
      </trkpt>
      <trkpt lat="42.21799" lon="2.29767">
        <ele>833</ele>
        <time>2022-05-21 22:57:15</time>
      </trkpt>
      <trkpt lat="42.21799" lon="2.29773">
        <ele>833.2</ele>
        <time>2022-05-21 22:57:16</time>
      </trkpt>
      <trkpt lat="42.21799" lon="2.29778">
        <ele>833.2</ele>
        <time>2022-05-21 22:57:17</time>
      </trkpt>
      <trkpt lat="42.21799" lon="2.29783">
        <ele>833.4</ele>
        <time>2022-05-21 22:57:18</time>
      </trkpt>
      <trkpt lat="42.21798" lon="2.29789">
        <ele>833.4</ele>
        <time>2022-05-21 22:57:19</time>
      </trkpt>
      <trkpt lat="42.21798" lon="2.29794">
        <ele>833.6</ele>
        <time>2022-05-21 22:57:20</time>
      </trkpt>
      <trkpt lat="42.21798" lon="2.298">
        <ele>833.6</ele>
        <time>2022-05-21 22:57:21</time>
      </trkpt>
      <trkpt lat="42.21797" lon="2.29805">
        <ele>833.8</ele>
        <time>2022-05-21 22:57:22</time>
      </trkpt>
      <trkpt lat="42.21796" lon="2.29811">
        <ele>833.8</ele>
        <time>2022-05-21 22:57:23</time>
      </trkpt>
      <trkpt lat="42.21796" lon="2.29816">
        <ele>834</ele>
        <time>2022-05-21 22:57:24</time>
      </trkpt>
      <trkpt lat="42.21795" lon="2.29821">
        <ele>834</ele>
        <time>2022-05-21 22:57:25</time>
      </trkpt>
      <trkpt lat="42.21794" lon="2.29826">
        <ele>834.2</ele>
        <time>2022-05-21 22:57:26</time>
      </trkpt>
      <trkpt lat="42.21793" lon="2.29831">
        <ele>834.2</ele>
        <time>2022-05-21 22:57:27</time>
      </trkpt>
      <trkpt lat="42.21792" lon="2.29836">
        <ele>834.2</ele>
        <time>2022-05-21 22:57:28</time>
      </trkpt>
      <trkpt lat="42.21791" lon="2.29841">
        <ele>834.4</ele>
        <time>2022-05-21 22:57:29</time>
      </trkpt>
      <trkpt lat="42.21789" lon="2.29846">
        <ele>834.4</ele>
        <time>2022-05-21 22:57:30</time>
      </trkpt>
      <trkpt lat="42.21788" lon="2.29851">
        <ele>834.6</ele>
        <time>2022-05-21 22:57:31</time>
      </trkpt>
      <trkpt lat="42.21787" lon="2.29856">
        <ele>834.6</ele>
        <time>2022-05-21 22:57:32</time>
      </trkpt>
      <trkpt lat="42.21785" lon="2.29861">
        <ele>834.8</ele>
        <time>2022-05-21 22:57:33</time>
      </trkpt>
      <trkpt lat="42.21784" lon="2.29866">
        <ele>835</ele>
        <time>2022-05-21 22:57:34</time>
      </trkpt>
      <trkpt lat="42.21782" lon="2.29871">
        <ele>835</ele>
        <time>2022-05-21 22:57:35</time>
      </trkpt>
      <trkpt lat="42.2178" lon="2.29876">
        <ele>835.2</ele>
        <time>2022-05-21 22:57:36</time>
      </trkpt>
      <trkpt lat="42.21779" lon="2.29881">
        <ele>835.2</ele>
        <time>2022-05-21 22:57:37</time>
      </trkpt>
      <trkpt lat="42.21777" lon="2.29886">
        <ele>835.4</ele>
        <time>2022-05-21 22:57:38</time>
      </trkpt>
      <trkpt lat="42.21776" lon="2.2989">
        <ele>835.4</ele>
        <time>2022-05-21 22:57:39</time>
      </trkpt>
      <trkpt lat="42.21775" lon="2.29895">
        <ele>835.4</ele>
        <time>2022-05-21 22:57:40</time>
      </trkpt>
      <trkpt lat="42.21773" lon="2.29901">
        <ele>835.6</ele>
        <time>2022-05-21 22:57:41</time>
      </trkpt>
      <trkpt lat="42.21772" lon="2.29906">
        <ele>835.6</ele>
        <time>2022-05-21 22:57:42</time>
      </trkpt>
      <trkpt lat="42.21771" lon="2.2991">
        <ele>835.8</ele>
        <time>2022-05-21 22:57:43</time>
      </trkpt>
      <trkpt lat="42.2177" lon="2.29915">
        <ele>835.8</ele>
        <time>2022-05-21 22:57:44</time>
      </trkpt>
      <trkpt lat="42.21769" lon="2.2992">
        <ele>836</ele>
        <time>2022-05-21 22:57:45</time>
      </trkpt>
      <trkpt lat="42.21768" lon="2.29925">
        <ele>836</ele>
        <time>2022-05-21 22:57:46</time>
      </trkpt>
      <trkpt lat="42.21767" lon="2.29929">
        <ele>836.2</ele>
        <time>2022-05-21 22:57:47</time>
      </trkpt>
      <trkpt lat="42.21766" lon="2.29934">
        <ele>836.2</ele>
        <time>2022-05-21 22:57:48</time>
      </trkpt>
      <trkpt lat="42.21765" lon="2.29939">
        <ele>836.2</ele>
        <time>2022-05-21 22:57:49</time>
      </trkpt>
      <trkpt lat="42.21764" lon="2.29944">
        <ele>836.4</ele>
        <time>2022-05-21 22:57:50</time>
      </trkpt>
      <trkpt lat="42.21763" lon="2.29949">
        <ele>836.4</ele>
        <time>2022-05-21 22:57:51</time>
      </trkpt>
      <trkpt lat="42.21763" lon="2.29954">
        <ele>836.6</ele>
        <time>2022-05-21 22:57:52</time>
      </trkpt>
      <trkpt lat="42.21762" lon="2.29959">
        <ele>836.6</ele>
        <time>2022-05-21 22:57:53</time>
      </trkpt>
      <trkpt lat="42.21762" lon="2.29963">
        <ele>836.8</ele>
        <time>2022-05-21 22:57:54</time>
      </trkpt>
      <trkpt lat="42.21762" lon="2.29969">
        <ele>836.8</ele>
        <time>2022-05-21 22:57:55</time>
      </trkpt>
      <trkpt lat="42.21761" lon="2.29974">
        <ele>837</ele>
        <time>2022-05-21 22:57:56</time>
      </trkpt>
      <trkpt lat="42.21761" lon="2.29979">
        <ele>837</ele>
        <time>2022-05-21 22:57:57</time>
      </trkpt>
      <trkpt lat="42.21761" lon="2.29982">
        <ele>837.2</ele>
        <time>2022-05-21 22:57:58</time>
      </trkpt>
      <trkpt lat="42.2176" lon="2.2999">
        <ele>837.2</ele>
        <time>2022-05-21 22:57:59</time>
      </trkpt>
      <trkpt lat="42.2176" lon="2.29995">
        <ele>837.4</ele>
        <time>2022-05-21 22:58:00</time>
      </trkpt>
      <trkpt lat="42.21759" lon="2.3">
        <ele>837.4</ele>
        <time>2022-05-21 22:58:01</time>
      </trkpt>
      <trkpt lat="42.21759" lon="2.30005">
        <ele>837.6</ele>
        <time>2022-05-21 22:58:02</time>
      </trkpt>
      <trkpt lat="42.21759" lon="2.30011">
        <ele>837.6</ele>
        <time>2022-05-21 22:58:03</time>
      </trkpt>
      <trkpt lat="42.21759" lon="2.30016">
        <ele>837.8</ele>
        <time>2022-05-21 22:58:04</time>
      </trkpt>
      <trkpt lat="42.21758" lon="2.30021">
        <ele>838</ele>
        <time>2022-05-21 22:58:05</time>
      </trkpt>
      <trkpt lat="42.21758" lon="2.30026">
        <ele>838</ele>
        <time>2022-05-21 22:58:06</time>
      </trkpt>
      <trkpt lat="42.21758" lon="2.30031">
        <ele>838.2</ele>
        <time>2022-05-21 22:58:07</time>
      </trkpt>
      <trkpt lat="42.21758" lon="2.30036">
        <ele>838.4</ele>
        <time>2022-05-21 22:58:08</time>
      </trkpt>
      <trkpt lat="42.21758" lon="2.30041">
        <ele>838.6</ele>
        <time>2022-05-21 22:58:09</time>
      </trkpt>
      <trkpt lat="42.21758" lon="2.30046">
        <ele>838.8</ele>
        <time>2022-05-21 22:58:10</time>
      </trkpt>
      <trkpt lat="42.21758" lon="2.3005">
        <ele>839</ele>
        <time>2022-05-21 22:58:11</time>
      </trkpt>
      <trkpt lat="42.21757" lon="2.30055">
        <ele>839.2</ele>
        <time>2022-05-21 22:58:12</time>
      </trkpt>
      <trkpt lat="42.21757" lon="2.30059">
        <ele>839.4</ele>
        <time>2022-05-21 22:58:13</time>
      </trkpt>
      <trkpt lat="42.21757" lon="2.30064">
        <ele>839.6</ele>
        <time>2022-05-21 22:58:14</time>
      </trkpt>
      <trkpt lat="42.21758" lon="2.30068">
        <ele>840</ele>
        <time>2022-05-21 22:58:15</time>
      </trkpt>
      <trkpt lat="42.21759" lon="2.30073">
        <ele>840.2</ele>
        <time>2022-05-21 22:58:16</time>
      </trkpt>
      <trkpt lat="42.2176" lon="2.30077">
        <ele>840.4</ele>
        <time>2022-05-21 22:58:17</time>
      </trkpt>
      <trkpt lat="42.21762" lon="2.3008">
        <ele>840.6</ele>
        <time>2022-05-21 22:58:18</time>
      </trkpt>
      <trkpt lat="42.21764" lon="2.30084">
        <ele>840.8</ele>
        <time>2022-05-21 22:58:19</time>
      </trkpt>
      <trkpt lat="42.21766" lon="2.30087">
        <ele>841</ele>
        <time>2022-05-21 22:58:20</time>
      </trkpt>
      <trkpt lat="42.21769" lon="2.30089">
        <ele>841.2</ele>
        <time>2022-05-21 22:58:21</time>
      </trkpt>
      <trkpt lat="42.21771" lon="2.30091">
        <ele>841.4</ele>
        <time>2022-05-21 22:58:22</time>
      </trkpt>
      <trkpt lat="42.21774" lon="2.30094">
        <ele>841.8</ele>
        <time>2022-05-21 22:58:23</time>
      </trkpt>
      <trkpt lat="42.21777" lon="2.30096">
        <ele>842</ele>
        <time>2022-05-21 22:58:24</time>
      </trkpt>
      <trkpt lat="42.21779" lon="2.30097">
        <ele>842.2</ele>
        <time>2022-05-21 22:58:25</time>
      </trkpt>
      <trkpt lat="42.21781" lon="2.30099">
        <ele>842.4</ele>
        <time>2022-05-21 22:58:26</time>
      </trkpt>
      <trkpt lat="42.21784" lon="2.301">
        <ele>842.6</ele>
        <time>2022-05-21 22:58:27</time>
      </trkpt>
      <trkpt lat="42.21786" lon="2.30101">
        <ele>842.8</ele>
        <time>2022-05-21 22:58:28</time>
      </trkpt>
      <trkpt lat="42.21788" lon="2.30101">
        <ele>843</ele>
        <time>2022-05-21 22:58:29</time>
      </trkpt>
      <trkpt lat="42.2179" lon="2.30102">
        <ele>843.2</ele>
        <time>2022-05-21 22:58:30</time>
      </trkpt>
      <trkpt lat="42.21793" lon="2.30102">
        <ele>843.4</ele>
        <time>2022-05-21 22:58:31</time>
      </trkpt>
      <trkpt lat="42.21796" lon="2.30101">
        <ele>843.6</ele>
        <time>2022-05-21 22:58:32</time>
      </trkpt>
      <trkpt lat="42.21799" lon="2.30101">
        <ele>843.8</ele>
        <time>2022-05-21 22:58:33</time>
      </trkpt>
      <trkpt lat="42.21801" lon="2.301">
        <ele>844</ele>
        <time>2022-05-21 22:58:34</time>
      </trkpt>
      <trkpt lat="42.21803" lon="2.301">
        <ele>844.2</ele>
        <time>2022-05-21 22:58:35</time>
      </trkpt>
      <trkpt lat="42.21806" lon="2.30101">
        <ele>844.2</ele>
        <time>2022-05-21 22:58:36</time>
      </trkpt>
      <trkpt lat="42.21808" lon="2.30102">
        <ele>844.4</ele>
        <time>2022-05-21 22:58:37</time>
      </trkpt>
      <trkpt lat="42.21812" lon="2.30103">
        <ele>844.6</ele>
        <time>2022-05-21 22:58:38</time>
      </trkpt>
      <trkpt lat="42.21816" lon="2.30105">
        <ele>844.8</ele>
        <time>2022-05-21 22:58:39</time>
      </trkpt>
      <trkpt lat="42.21819" lon="2.30106">
        <ele>845</ele>
        <time>2022-05-21 22:58:40</time>
      </trkpt>
      <trkpt lat="42.21822" lon="2.30108">
        <ele>845.2</ele>
        <time>2022-05-21 22:58:41</time>
      </trkpt>
      <trkpt lat="42.21825" lon="2.30111">
        <ele>845.4</ele>
        <time>2022-05-21 22:58:42</time>
      </trkpt>
      <trkpt lat="42.21828" lon="2.30114">
        <ele>845.6</ele>
        <time>2022-05-21 22:58:43</time>
      </trkpt>
      <trkpt lat="42.2183" lon="2.30116">
        <ele>845.8</ele>
        <time>2022-05-21 22:58:44</time>
      </trkpt>
      <trkpt lat="42.21833" lon="2.30118">
        <ele>846</ele>
        <time>2022-05-21 22:58:45</time>
      </trkpt>
      <trkpt lat="42.21835" lon="2.3012">
        <ele>846.2</ele>
        <time>2022-05-21 22:58:46</time>
      </trkpt>
      <trkpt lat="42.21837" lon="2.30123">
        <ele>846.4</ele>
        <time>2022-05-21 22:58:47</time>
      </trkpt>
      <trkpt lat="42.2184" lon="2.30126">
        <ele>846.6</ele>
        <time>2022-05-21 22:58:48</time>
      </trkpt>
      <trkpt lat="42.21842" lon="2.30129">
        <ele>846.8</ele>
        <time>2022-05-21 22:58:49</time>
      </trkpt>
      <trkpt lat="42.21844" lon="2.30131">
        <ele>847</ele>
        <time>2022-05-21 22:58:50</time>
      </trkpt>
      <trkpt lat="42.21846" lon="2.30134">
        <ele>847.2</ele>
        <time>2022-05-21 22:58:51</time>
      </trkpt>
      <trkpt lat="42.21849" lon="2.30136">
        <ele>847.4</ele>
        <time>2022-05-21 22:58:52</time>
      </trkpt>
      <trkpt lat="42.21851" lon="2.30139">
        <ele>847.6</ele>
        <time>2022-05-21 22:58:53</time>
      </trkpt>
      <trkpt lat="42.21853" lon="2.30141">
        <ele>847.8</ele>
        <time>2022-05-21 22:58:54</time>
      </trkpt>
      <trkpt lat="42.21855" lon="2.30143">
        <ele>848</ele>
        <time>2022-05-21 22:58:55</time>
      </trkpt>
      <trkpt lat="42.21857" lon="2.30146">
        <ele>848.2</ele>
        <time>2022-05-21 22:58:56</time>
      </trkpt>
      <trkpt lat="42.2186" lon="2.3015">
        <ele>848.4</ele>
        <time>2022-05-21 22:58:57</time>
      </trkpt>
      <trkpt lat="42.21864" lon="2.30155">
        <ele>848.6</ele>
        <time>2022-05-21 22:58:58</time>
      </trkpt>
      <trkpt lat="42.21867" lon="2.30161">
        <ele>848.6</ele>
        <time>2022-05-21 22:58:59</time>
      </trkpt>
      <trkpt lat="42.21871" lon="2.30165">
        <ele>848.8</ele>
        <time>2022-05-21 22:59:00</time>
      </trkpt>
      <trkpt lat="42.21872" lon="2.30164">
        <ele>849</ele>
        <time>2022-05-21 22:59:01</time>
      </trkpt>
      <trkpt lat="42.21874" lon="2.30166">
        <ele>849.2</ele>
        <time>2022-05-21 22:59:02</time>
      </trkpt>
      <trkpt lat="42.21876" lon="2.30167">
        <ele>849.2</ele>
        <time>2022-05-21 22:59:03</time>
      </trkpt>
      <trkpt lat="42.21878" lon="2.3017">
        <ele>849.4</ele>
        <time>2022-05-21 22:59:04</time>
      </trkpt>
      <trkpt lat="42.2188" lon="2.30173">
        <ele>849.6</ele>
        <time>2022-05-21 22:59:05</time>
      </trkpt>
      <trkpt lat="42.21882" lon="2.30176">
        <ele>849.8</ele>
        <time>2022-05-21 22:59:06</time>
      </trkpt>
      <trkpt lat="42.21884" lon="2.30179">
        <ele>849.8</ele>
        <time>2022-05-21 22:59:07</time>
      </trkpt>
      <trkpt lat="42.21886" lon="2.30183">
        <ele>850</ele>
        <time>2022-05-21 22:59:08</time>
      </trkpt>
      <trkpt lat="42.21887" lon="2.30186">
        <ele>850.2</ele>
        <time>2022-05-21 22:59:09</time>
      </trkpt>
      <trkpt lat="42.21887" lon="2.3019">
        <ele>850.4</ele>
        <time>2022-05-21 22:59:10</time>
      </trkpt>
      <trkpt lat="42.21887" lon="2.30194">
        <ele>850.4</ele>
        <time>2022-05-21 22:59:11</time>
      </trkpt>
      <trkpt lat="42.21886" lon="2.30198">
        <ele>850.6</ele>
        <time>2022-05-21 22:59:12</time>
      </trkpt>
      <trkpt lat="42.21886" lon="2.30202">
        <ele>850.8</ele>
        <time>2022-05-21 22:59:13</time>
      </trkpt>
      <trkpt lat="42.21884" lon="2.30205">
        <ele>850.8</ele>
        <time>2022-05-21 22:59:14</time>
      </trkpt>
      <trkpt lat="42.21882" lon="2.3021">
        <ele>851</ele>
        <time>2022-05-21 22:59:15</time>
      </trkpt>
      <trkpt lat="42.21879" lon="2.30213">
        <ele>851</ele>
        <time>2022-05-21 22:59:16</time>
      </trkpt>
      <trkpt lat="42.21877" lon="2.30216">
        <ele>851.2</ele>
        <time>2022-05-21 22:59:17</time>
      </trkpt>
      <trkpt lat="42.21874" lon="2.30218">
        <ele>851.2</ele>
        <time>2022-05-21 22:59:18</time>
      </trkpt>
      <trkpt lat="42.2187" lon="2.30222">
        <ele>851.2</ele>
        <time>2022-05-21 22:59:19</time>
      </trkpt>
      <trkpt lat="42.21867" lon="2.30225">
        <ele>851.2</ele>
        <time>2022-05-21 22:59:20</time>
      </trkpt>
      <trkpt lat="42.21864" lon="2.30228">
        <ele>851.2</ele>
        <time>2022-05-21 22:59:21</time>
      </trkpt>
      <trkpt lat="42.21861" lon="2.30231">
        <ele>851.2</ele>
        <time>2022-05-21 22:59:22</time>
      </trkpt>
      <trkpt lat="42.21858" lon="2.30235">
        <ele>851.2</ele>
        <time>2022-05-21 22:59:23</time>
      </trkpt>
      <trkpt lat="42.21854" lon="2.30238">
        <ele>851.2</ele>
        <time>2022-05-21 22:59:24</time>
      </trkpt>
      <trkpt lat="42.21852" lon="2.30241">
        <ele>851.2</ele>
        <time>2022-05-21 22:59:25</time>
      </trkpt>
      <trkpt lat="42.21848" lon="2.30243">
        <ele>851.2</ele>
        <time>2022-05-21 22:59:26</time>
      </trkpt>
      <trkpt lat="42.21845" lon="2.30245">
        <ele>851.4</ele>
        <time>2022-05-21 22:59:27</time>
      </trkpt>
      <trkpt lat="42.21842" lon="2.30247">
        <ele>851.4</ele>
        <time>2022-05-21 22:59:28</time>
      </trkpt>
      <trkpt lat="42.21839" lon="2.30248">
        <ele>851.6</ele>
        <time>2022-05-21 22:59:29</time>
      </trkpt>
      <trkpt lat="42.21836" lon="2.3025">
        <ele>851.8</ele>
        <time>2022-05-21 22:59:30</time>
      </trkpt>
      <trkpt lat="42.21833" lon="2.30251">
        <ele>852</ele>
        <time>2022-05-21 22:59:31</time>
      </trkpt>
      <trkpt lat="42.2183" lon="2.3025">
        <ele>852.2</ele>
        <time>2022-05-21 22:59:32</time>
      </trkpt>
      <trkpt lat="42.21827" lon="2.30249">
        <ele>852.4</ele>
        <time>2022-05-21 22:59:33</time>
      </trkpt>
      <trkpt lat="42.21825" lon="2.30248">
        <ele>852.6</ele>
        <time>2022-05-21 22:59:34</time>
      </trkpt>
      <trkpt lat="42.21822" lon="2.30246">
        <ele>852.8</ele>
        <time>2022-05-21 22:59:35</time>
      </trkpt>
      <trkpt lat="42.2182" lon="2.30245">
        <ele>853</ele>
        <time>2022-05-21 22:59:36</time>
      </trkpt>
      <trkpt lat="42.21818" lon="2.30244">
        <ele>853.2</ele>
        <time>2022-05-21 22:59:37</time>
      </trkpt>
      <trkpt lat="42.21815" lon="2.30243">
        <ele>853.4</ele>
        <time>2022-05-21 22:59:38</time>
      </trkpt>
      <trkpt lat="42.21812" lon="2.30242">
        <ele>853.6</ele>
        <time>2022-05-21 22:59:39</time>
      </trkpt>
      <trkpt lat="42.2181" lon="2.30241">
        <ele>853.8</ele>
        <time>2022-05-21 22:59:40</time>
      </trkpt>
      <trkpt lat="42.21807" lon="2.30241">
        <ele>854</ele>
        <time>2022-05-21 22:59:41</time>
      </trkpt>
      <trkpt lat="42.21804" lon="2.3024">
        <ele>854.2</ele>
        <time>2022-05-21 22:59:42</time>
      </trkpt>
      <trkpt lat="42.21802" lon="2.30239">
        <ele>854.4</ele>
        <time>2022-05-21 22:59:43</time>
      </trkpt>
      <trkpt lat="42.21799" lon="2.30239">
        <ele>854.6</ele>
        <time>2022-05-21 22:59:44</time>
      </trkpt>
      <trkpt lat="42.21796" lon="2.30238">
        <ele>854.6</ele>
        <time>2022-05-21 22:59:45</time>
      </trkpt>
      <trkpt lat="42.21794" lon="2.30237">
        <ele>854.8</ele>
        <time>2022-05-21 22:59:46</time>
      </trkpt>
      <trkpt lat="42.21792" lon="2.30237">
        <ele>855</ele>
        <time>2022-05-21 22:59:47</time>
      </trkpt>
      <trkpt lat="42.21789" lon="2.30236">
        <ele>855.2</ele>
        <time>2022-05-21 22:59:48</time>
      </trkpt>
      <trkpt lat="42.21787" lon="2.30236">
        <ele>855.4</ele>
        <time>2022-05-21 22:59:49</time>
      </trkpt>
      <trkpt lat="42.21785" lon="2.30236">
        <ele>855.6</ele>
        <time>2022-05-21 22:59:50</time>
      </trkpt>
      <trkpt lat="42.21782" lon="2.30236">
        <ele>855.8</ele>
        <time>2022-05-21 22:59:51</time>
      </trkpt>
      <trkpt lat="42.21779" lon="2.30236">
        <ele>856</ele>
        <time>2022-05-21 22:59:52</time>
      </trkpt>
      <trkpt lat="42.21776" lon="2.30236">
        <ele>856.4</ele>
        <time>2022-05-21 22:59:53</time>
      </trkpt>
      <trkpt lat="42.21774" lon="2.30236">
        <ele>856.6</ele>
        <time>2022-05-21 22:59:54</time>
      </trkpt>
      <trkpt lat="42.21771" lon="2.30236">
        <ele>856.8</ele>
        <time>2022-05-21 22:59:55</time>
      </trkpt>
      <trkpt lat="42.21769" lon="2.30236">
        <ele>857</ele>
        <time>2022-05-21 22:59:56</time>
      </trkpt>
      <trkpt lat="42.21767" lon="2.30236">
        <ele>857.2</ele>
        <time>2022-05-21 22:59:57</time>
      </trkpt>
      <trkpt lat="42.21765" lon="2.30235">
        <ele>857.4</ele>
        <time>2022-05-21 22:59:58</time>
      </trkpt>
      <trkpt lat="42.21763" lon="2.30235">
        <ele>857.6</ele>
        <time>2022-05-21 22:59:59</time>
      </trkpt>
      <trkpt lat="42.21761" lon="2.30235">
        <ele>857.8</ele>
        <time>2022-05-21 23:00:00</time>
      </trkpt>
      <trkpt lat="42.21759" lon="2.30236">
        <ele>858</ele>
        <time>2022-05-21 23:00:01</time>
      </trkpt>
      <trkpt lat="42.21757" lon="2.30236">
        <ele>858.2</ele>
        <time>2022-05-21 23:00:02</time>
      </trkpt>
      <trkpt lat="42.21755" lon="2.30237">
        <ele>858.4</ele>
        <time>2022-05-21 23:00:03</time>
      </trkpt>
      <trkpt lat="42.21752" lon="2.30238">
        <ele>858.6</ele>
        <time>2022-05-21 23:00:04</time>
      </trkpt>
      <trkpt lat="42.2175" lon="2.30238">
        <ele>858.8</ele>
        <time>2022-05-21 23:00:05</time>
      </trkpt>
      <trkpt lat="42.21749" lon="2.30239">
        <ele>859</ele>
        <time>2022-05-21 23:00:06</time>
      </trkpt>
      <trkpt lat="42.21747" lon="2.30241">
        <ele>859.2</ele>
        <time>2022-05-21 23:00:07</time>
      </trkpt>
      <trkpt lat="42.21746" lon="2.30243">
        <ele>859.4</ele>
        <time>2022-05-21 23:00:08</time>
      </trkpt>
      <trkpt lat="42.21745" lon="2.30245">
        <ele>859.6</ele>
        <time>2022-05-21 23:00:09</time>
      </trkpt>
      <trkpt lat="42.21743" lon="2.30247">
        <ele>859.6</ele>
        <time>2022-05-21 23:00:10</time>
      </trkpt>
      <trkpt lat="42.21742" lon="2.30249">
        <ele>859.8</ele>
        <time>2022-05-21 23:00:11</time>
      </trkpt>
      <trkpt lat="42.2174" lon="2.30252">
        <ele>860</ele>
        <time>2022-05-21 23:00:12</time>
      </trkpt>
      <trkpt lat="42.21739" lon="2.30254">
        <ele>860.2</ele>
        <time>2022-05-21 23:00:13</time>
      </trkpt>
      <trkpt lat="42.21737" lon="2.30257">
        <ele>860.2</ele>
        <time>2022-05-21 23:00:14</time>
      </trkpt>
      <trkpt lat="42.21736" lon="2.30259">
        <ele>860.4</ele>
        <time>2022-05-21 23:00:15</time>
      </trkpt>
      <trkpt lat="42.21734" lon="2.30262">
        <ele>860.6</ele>
        <time>2022-05-21 23:00:16</time>
      </trkpt>
      <trkpt lat="42.21733" lon="2.30264">
        <ele>860.8</ele>
        <time>2022-05-21 23:00:17</time>
      </trkpt>
      <trkpt lat="42.21731" lon="2.30266">
        <ele>861</ele>
        <time>2022-05-21 23:00:18</time>
      </trkpt>
      <trkpt lat="42.21729" lon="2.30269">
        <ele>861</ele>
        <time>2022-05-21 23:00:19</time>
      </trkpt>
      <trkpt lat="42.21728" lon="2.30271">
        <ele>861.2</ele>
        <time>2022-05-21 23:00:20</time>
      </trkpt>
      <trkpt lat="42.21727" lon="2.30273">
        <ele>861.4</ele>
        <time>2022-05-21 23:00:21</time>
      </trkpt>
      <trkpt lat="42.21725" lon="2.30275">
        <ele>861.6</ele>
        <time>2022-05-21 23:00:22</time>
      </trkpt>
      <trkpt lat="42.21723" lon="2.30278">
        <ele>861.8</ele>
        <time>2022-05-21 23:00:23</time>
      </trkpt>
      <trkpt lat="42.21722" lon="2.30281">
        <ele>861.8</ele>
        <time>2022-05-21 23:00:24</time>
      </trkpt>
      <trkpt lat="42.21721" lon="2.30283">
        <ele>862</ele>
        <time>2022-05-21 23:00:25</time>
      </trkpt>
      <trkpt lat="42.21719" lon="2.30285">
        <ele>862.2</ele>
        <time>2022-05-21 23:00:26</time>
      </trkpt>
      <trkpt lat="42.21718" lon="2.30288">
        <ele>862.4</ele>
        <time>2022-05-21 23:00:27</time>
      </trkpt>
      <trkpt lat="42.21717" lon="2.3029">
        <ele>862.4</ele>
        <time>2022-05-21 23:00:28</time>
      </trkpt>
      <trkpt lat="42.21716" lon="2.30292">
        <ele>862.6</ele>
        <time>2022-05-21 23:00:29</time>
      </trkpt>
      <trkpt lat="42.21715" lon="2.30295">
        <ele>862.8</ele>
        <time>2022-05-21 23:00:30</time>
      </trkpt>
      <trkpt lat="42.21714" lon="2.30297">
        <ele>863</ele>
        <time>2022-05-21 23:00:31</time>
      </trkpt>
      <trkpt lat="42.21712" lon="2.303">
        <ele>863</ele>
        <time>2022-05-21 23:00:32</time>
      </trkpt>
      <trkpt lat="42.21711" lon="2.30302">
        <ele>863.2</ele>
        <time>2022-05-21 23:00:33</time>
      </trkpt>
      <trkpt lat="42.21709" lon="2.30304">
        <ele>863.4</ele>
        <time>2022-05-21 23:00:34</time>
      </trkpt>
      <trkpt lat="42.21708" lon="2.30306">
        <ele>863.6</ele>
        <time>2022-05-21 23:00:35</time>
      </trkpt>
      <trkpt lat="42.21707" lon="2.30309">
        <ele>863.8</ele>
        <time>2022-05-21 23:00:36</time>
      </trkpt>
      <trkpt lat="42.21706" lon="2.30311">
        <ele>863.8</ele>
        <time>2022-05-21 23:00:37</time>
      </trkpt>
      <trkpt lat="42.21704" lon="2.30314">
        <ele>864</ele>
        <time>2022-05-21 23:00:38</time>
      </trkpt>
      <trkpt lat="42.21703" lon="2.30316">
        <ele>864.2</ele>
        <time>2022-05-21 23:00:39</time>
      </trkpt>
      <trkpt lat="42.21702" lon="2.30319">
        <ele>864.4</ele>
        <time>2022-05-21 23:00:40</time>
      </trkpt>
      <trkpt lat="42.21702" lon="2.30322">
        <ele>864.6</ele>
        <time>2022-05-21 23:00:41</time>
      </trkpt>
      <trkpt lat="42.21701" lon="2.30325">
        <ele>864.8</ele>
        <time>2022-05-21 23:00:42</time>
      </trkpt>
      <trkpt lat="42.217" lon="2.30328">
        <ele>865</ele>
        <time>2022-05-21 23:00:43</time>
      </trkpt>
      <trkpt lat="42.217" lon="2.3033">
        <ele>865</ele>
        <time>2022-05-21 23:00:44</time>
      </trkpt>
      <trkpt lat="42.21699" lon="2.30333">
        <ele>865.2</ele>
        <time>2022-05-21 23:00:45</time>
      </trkpt>
      <trkpt lat="42.21699" lon="2.30336">
        <ele>865.4</ele>
        <time>2022-05-21 23:00:46</time>
      </trkpt>
      <trkpt lat="42.21698" lon="2.30339">
        <ele>865.6</ele>
        <time>2022-05-21 23:00:47</time>
      </trkpt>
      <trkpt lat="42.21697" lon="2.30342">
        <ele>865.8</ele>
        <time>2022-05-21 23:00:48</time>
      </trkpt>
      <trkpt lat="42.21697" lon="2.30345">
        <ele>865.8</ele>
        <time>2022-05-21 23:00:49</time>
      </trkpt>
      <trkpt lat="42.21696" lon="2.30348">
        <ele>866</ele>
        <time>2022-05-21 23:00:50</time>
      </trkpt>
      <trkpt lat="42.21696" lon="2.3035">
        <ele>866.2</ele>
        <time>2022-05-21 23:00:51</time>
      </trkpt>
      <trkpt lat="42.21695" lon="2.30353">
        <ele>866.4</ele>
        <time>2022-05-21 23:00:52</time>
      </trkpt>
      <trkpt lat="42.21694" lon="2.30356">
        <ele>866.6</ele>
        <time>2022-05-21 23:00:53</time>
      </trkpt>
      <trkpt lat="42.21692" lon="2.30359">
        <ele>866.8</ele>
        <time>2022-05-21 23:00:54</time>
      </trkpt>
      <trkpt lat="42.2169" lon="2.30361">
        <ele>867</ele>
        <time>2022-05-21 23:00:55</time>
      </trkpt>
      <trkpt lat="42.21689" lon="2.30364">
        <ele>867.2</ele>
        <time>2022-05-21 23:00:56</time>
      </trkpt>
      <trkpt lat="42.21687" lon="2.30366">
        <ele>867.4</ele>
        <time>2022-05-21 23:00:57</time>
      </trkpt>
      <trkpt lat="42.21685" lon="2.30368">
        <ele>867.6</ele>
        <time>2022-05-21 23:00:58</time>
      </trkpt>
      <trkpt lat="42.21683" lon="2.3037">
        <ele>867.8</ele>
        <time>2022-05-21 23:00:59</time>
      </trkpt>
      <trkpt lat="42.21681" lon="2.30371">
        <ele>868</ele>
        <time>2022-05-21 23:01:00</time>
      </trkpt>
      <trkpt lat="42.21678" lon="2.30372">
        <ele>868.2</ele>
        <time>2022-05-21 23:01:01</time>
      </trkpt>
      <trkpt lat="42.21676" lon="2.30373">
        <ele>868.2</ele>
        <time>2022-05-21 23:01:02</time>
      </trkpt>
      <trkpt lat="42.21673" lon="2.30374">
        <ele>868.4</ele>
        <time>2022-05-21 23:01:03</time>
      </trkpt>
      <trkpt lat="42.2167" lon="2.30374">
        <ele>868.6</ele>
        <time>2022-05-21 23:01:04</time>
      </trkpt>
      <trkpt lat="42.21668" lon="2.30375">
        <ele>868.8</ele>
        <time>2022-05-21 23:01:05</time>
      </trkpt>
      <trkpt lat="42.21665" lon="2.30375">
        <ele>869</ele>
        <time>2022-05-21 23:01:06</time>
      </trkpt>
      <trkpt lat="42.21662" lon="2.30376">
        <ele>869.2</ele>
        <time>2022-05-21 23:01:07</time>
      </trkpt>
      <trkpt lat="42.2166" lon="2.30377">
        <ele>869.2</ele>
        <time>2022-05-21 23:01:08</time>
      </trkpt>
      <trkpt lat="42.21657" lon="2.30378">
        <ele>869.4</ele>
        <time>2022-05-21 23:01:09</time>
      </trkpt>
      <trkpt lat="42.21655" lon="2.30378">
        <ele>869.6</ele>
        <time>2022-05-21 23:01:10</time>
      </trkpt>
      <trkpt lat="42.21653" lon="2.30378">
        <ele>869.8</ele>
        <time>2022-05-21 23:01:11</time>
      </trkpt>
      <trkpt lat="42.2165" lon="2.30379">
        <ele>870</ele>
        <time>2022-05-21 23:01:12</time>
      </trkpt>
      <trkpt lat="42.21648" lon="2.30379">
        <ele>870</ele>
        <time>2022-05-21 23:01:13</time>
      </trkpt>
      <trkpt lat="42.21645" lon="2.30379">
        <ele>870.2</ele>
        <time>2022-05-21 23:01:14</time>
      </trkpt>
      <trkpt lat="42.21643" lon="2.3038">
        <ele>870.4</ele>
        <time>2022-05-21 23:01:15</time>
      </trkpt>
      <trkpt lat="42.21641" lon="2.3038">
        <ele>870.6</ele>
        <time>2022-05-21 23:01:16</time>
      </trkpt>
      <trkpt lat="42.21639" lon="2.30381">
        <ele>870.8</ele>
        <time>2022-05-21 23:01:17</time>
      </trkpt>
      <trkpt lat="42.21637" lon="2.30382">
        <ele>871</ele>
        <time>2022-05-21 23:01:18</time>
      </trkpt>
      <trkpt lat="42.21635" lon="2.30382">
        <ele>871</ele>
        <time>2022-05-21 23:01:19</time>
      </trkpt>
      <trkpt lat="42.21633" lon="2.30383">
        <ele>871.2</ele>
        <time>2022-05-21 23:01:20</time>
      </trkpt>
      <trkpt lat="42.21631" lon="2.30385">
        <ele>871.4</ele>
        <time>2022-05-21 23:01:21</time>
      </trkpt>
      <trkpt lat="42.21629" lon="2.30386">
        <ele>871.6</ele>
        <time>2022-05-21 23:01:22</time>
      </trkpt>
      <trkpt lat="42.21627" lon="2.30387">
        <ele>871.8</ele>
        <time>2022-05-21 23:01:23</time>
      </trkpt>
      <trkpt lat="42.21625" lon="2.30387">
        <ele>872</ele>
        <time>2022-05-21 23:01:24</time>
      </trkpt>
      <trkpt lat="42.21623" lon="2.30388">
        <ele>872</ele>
        <time>2022-05-21 23:01:25</time>
      </trkpt>
      <trkpt lat="42.2162" lon="2.30388">
        <ele>872.2</ele>
        <time>2022-05-21 23:01:26</time>
      </trkpt>
      <trkpt lat="42.21617" lon="2.30389">
        <ele>872.4</ele>
        <time>2022-05-21 23:01:27</time>
      </trkpt>
      <trkpt lat="42.21614" lon="2.3039">
        <ele>872.6</ele>
        <time>2022-05-21 23:01:28</time>
      </trkpt>
      <trkpt lat="42.21612" lon="2.30391">
        <ele>872.8</ele>
        <time>2022-05-21 23:01:29</time>
      </trkpt>
      <trkpt lat="42.2161" lon="2.30392">
        <ele>873</ele>
        <time>2022-05-21 23:01:30</time>
      </trkpt>
      <trkpt lat="42.21607" lon="2.30394">
        <ele>873.2</ele>
        <time>2022-05-21 23:01:31</time>
      </trkpt>
      <trkpt lat="42.21605" lon="2.30395">
        <ele>873.2</ele>
        <time>2022-05-21 23:01:32</time>
      </trkpt>
      <trkpt lat="42.21602" lon="2.30396">
        <ele>873.4</ele>
        <time>2022-05-21 23:01:33</time>
      </trkpt>
      <trkpt lat="42.216" lon="2.30397">
        <ele>873.6</ele>
        <time>2022-05-21 23:01:34</time>
      </trkpt>
      <trkpt lat="42.21598" lon="2.30398">
        <ele>873.8</ele>
        <time>2022-05-21 23:01:35</time>
      </trkpt>
      <trkpt lat="42.21596" lon="2.30399">
        <ele>874</ele>
        <time>2022-05-21 23:01:36</time>
      </trkpt>
      <trkpt lat="42.21594" lon="2.30401">
        <ele>874</ele>
        <time>2022-05-21 23:01:37</time>
      </trkpt>
      <trkpt lat="42.21591" lon="2.30402">
        <ele>874.2</ele>
        <time>2022-05-21 23:01:38</time>
      </trkpt>
      <trkpt lat="42.21589" lon="2.30404">
        <ele>874.4</ele>
        <time>2022-05-21 23:01:39</time>
      </trkpt>
      <trkpt lat="42.21587" lon="2.30404">
        <ele>874.6</ele>
        <time>2022-05-21 23:01:40</time>
      </trkpt>
      <trkpt lat="42.21584" lon="2.30405">
        <ele>874.6</ele>
        <time>2022-05-21 23:01:41</time>
      </trkpt>
      <trkpt lat="42.21582" lon="2.30405">
        <ele>874.8</ele>
        <time>2022-05-21 23:01:42</time>
      </trkpt>
      <trkpt lat="42.21579" lon="2.30405">
        <ele>875</ele>
        <time>2022-05-21 23:01:43</time>
      </trkpt>
      <trkpt lat="42.21577" lon="2.30405">
        <ele>875.2</ele>
        <time>2022-05-21 23:01:44</time>
      </trkpt>
      <trkpt lat="42.21574" lon="2.30405">
        <ele>875.4</ele>
        <time>2022-05-21 23:01:45</time>
      </trkpt>
      <trkpt lat="42.21572" lon="2.30405">
        <ele>875.4</ele>
        <time>2022-05-21 23:01:46</time>
      </trkpt>
      <trkpt lat="42.2157" lon="2.30404">
        <ele>875.6</ele>
        <time>2022-05-21 23:01:47</time>
      </trkpt>
      <trkpt lat="42.21568" lon="2.30404">
        <ele>875.8</ele>
        <time>2022-05-21 23:01:48</time>
      </trkpt>
      <trkpt lat="42.21566" lon="2.30404">
        <ele>876</ele>
        <time>2022-05-21 23:01:49</time>
      </trkpt>
      <trkpt lat="42.21564" lon="2.30405">
        <ele>876.2</ele>
        <time>2022-05-21 23:01:50</time>
      </trkpt>
      <trkpt lat="42.21562" lon="2.30405">
        <ele>876.4</ele>
        <time>2022-05-21 23:01:51</time>
      </trkpt>
      <trkpt lat="42.21561" lon="2.30406">
        <ele>876.4</ele>
        <time>2022-05-21 23:01:52</time>
      </trkpt>
      <trkpt lat="42.21559" lon="2.30406">
        <ele>876.6</ele>
        <time>2022-05-21 23:01:53</time>
      </trkpt>
      <trkpt lat="42.21559" lon="2.30406">
        <ele>876.8</ele>
        <time>2022-05-21 23:01:54</time>
      </trkpt>
      <trkpt lat="42.21558" lon="2.30406">
        <ele>877</ele>
        <time>2022-05-21 23:01:55</time>
      </trkpt>
      <trkpt lat="42.21558" lon="2.30405">
        <ele>877</ele>
        <time>2022-05-21 23:01:56</time>
      </trkpt>
      <trkpt lat="42.21558" lon="2.30405">
        <ele>877.2</ele>
        <time>2022-05-21 23:01:57</time>
      </trkpt>
      <trkpt lat="42.21558" lon="2.30404">
        <ele>877.2</ele>
        <time>2022-05-21 23:01:58</time>
      </trkpt>
      <trkpt lat="42.21558" lon="2.30404">
        <ele>877.2</ele>
        <time>2022-05-21 23:01:59</time>
      </trkpt>
      <trkpt lat="42.21557" lon="2.30407">
        <ele>877.6</ele>
        <time>2022-05-21 23:02:38</time>
      </trkpt>
      <trkpt lat="42.21557" lon="2.30409">
        <ele>877.6</ele>
        <time>2022-05-21 23:02:39</time>
      </trkpt>
      <trkpt lat="42.21556" lon="2.3041">
        <ele>877.6</ele>
        <time>2022-05-21 23:02:40</time>
      </trkpt>
      <trkpt lat="42.21555" lon="2.30412">
        <ele>877.6</ele>
        <time>2022-05-21 23:02:41</time>
      </trkpt>
      <trkpt lat="42.21554" lon="2.30414">
        <ele>877.6</ele>
        <time>2022-05-21 23:02:42</time>
      </trkpt>
      <trkpt lat="42.21553" lon="2.30416">
        <ele>877.8</ele>
        <time>2022-05-21 23:02:43</time>
      </trkpt>
      <trkpt lat="42.21552" lon="2.30418">
        <ele>877.8</ele>
        <time>2022-05-21 23:02:44</time>
      </trkpt>
      <trkpt lat="42.21551" lon="2.30421">
        <ele>878</ele>
        <time>2022-05-21 23:02:45</time>
      </trkpt>
      <trkpt lat="42.21549" lon="2.30423">
        <ele>878</ele>
        <time>2022-05-21 23:02:46</time>
      </trkpt>
      <trkpt lat="42.21548" lon="2.30426">
        <ele>878.2</ele>
        <time>2022-05-21 23:02:47</time>
      </trkpt>
      <trkpt lat="42.21547" lon="2.30428">
        <ele>878.4</ele>
        <time>2022-05-21 23:02:48</time>
      </trkpt>
      <trkpt lat="42.21547" lon="2.30431">
        <ele>878.4</ele>
        <time>2022-05-21 23:02:49</time>
      </trkpt>
      <trkpt lat="42.21546" lon="2.30433">
        <ele>878.6</ele>
        <time>2022-05-21 23:02:50</time>
      </trkpt>
      <trkpt lat="42.21545" lon="2.30436">
        <ele>878.8</ele>
        <time>2022-05-21 23:02:51</time>
      </trkpt>
      <trkpt lat="42.21544" lon="2.30439">
        <ele>879</ele>
        <time>2022-05-21 23:02:52</time>
      </trkpt>
      <trkpt lat="42.21542" lon="2.30441">
        <ele>879</ele>
        <time>2022-05-21 23:02:53</time>
      </trkpt>
      <trkpt lat="42.21541" lon="2.30444">
        <ele>879.2</ele>
        <time>2022-05-21 23:02:54</time>
      </trkpt>
      <trkpt lat="42.21539" lon="2.30447">
        <ele>879.4</ele>
        <time>2022-05-21 23:02:55</time>
      </trkpt>
      <trkpt lat="42.21538" lon="2.30449">
        <ele>879.6</ele>
        <time>2022-05-21 23:02:56</time>
      </trkpt>
      <trkpt lat="42.21536" lon="2.30451">
        <ele>879.8</ele>
        <time>2022-05-21 23:02:57</time>
      </trkpt>
      <trkpt lat="42.21534" lon="2.30454">
        <ele>880</ele>
        <time>2022-05-21 23:02:58</time>
      </trkpt>
      <trkpt lat="42.21532" lon="2.30456">
        <ele>880.2</ele>
        <time>2022-05-21 23:02:59</time>
      </trkpt>
      <trkpt lat="42.2153" lon="2.30458">
        <ele>880.2</ele>
        <time>2022-05-21 23:03:00</time>
      </trkpt>
      <trkpt lat="42.21528" lon="2.3046">
        <ele>880.4</ele>
        <time>2022-05-21 23:03:01</time>
      </trkpt>
      <trkpt lat="42.21526" lon="2.30462">
        <ele>880.6</ele>
        <time>2022-05-21 23:03:02</time>
      </trkpt>
      <trkpt lat="42.21525" lon="2.30464">
        <ele>880.8</ele>
        <time>2022-05-21 23:03:03</time>
      </trkpt>
      <trkpt lat="42.21523" lon="2.30466">
        <ele>881</ele>
        <time>2022-05-21 23:03:04</time>
      </trkpt>
      <trkpt lat="42.21521" lon="2.30467">
        <ele>881</ele>
        <time>2022-05-21 23:03:05</time>
      </trkpt>
      <trkpt lat="42.21519" lon="2.30469">
        <ele>881.2</ele>
        <time>2022-05-21 23:03:06</time>
      </trkpt>
      <trkpt lat="42.21517" lon="2.3047">
        <ele>881.4</ele>
        <time>2022-05-21 23:03:07</time>
      </trkpt>
      <trkpt lat="42.21516" lon="2.30472">
        <ele>881.6</ele>
        <time>2022-05-21 23:03:08</time>
      </trkpt>
      <trkpt lat="42.21514" lon="2.30474">
        <ele>881.8</ele>
        <time>2022-05-21 23:03:09</time>
      </trkpt>
      <trkpt lat="42.21512" lon="2.30476">
        <ele>881.8</ele>
        <time>2022-05-21 23:03:10</time>
      </trkpt>
      <trkpt lat="42.21511" lon="2.30478">
        <ele>882</ele>
        <time>2022-05-21 23:03:11</time>
      </trkpt>
      <trkpt lat="42.21509" lon="2.30479">
        <ele>882.2</ele>
        <time>2022-05-21 23:03:12</time>
      </trkpt>
      <trkpt lat="42.21508" lon="2.30481">
        <ele>882.4</ele>
        <time>2022-05-21 23:03:13</time>
      </trkpt>
      <trkpt lat="42.21506" lon="2.30483">
        <ele>882.6</ele>
        <time>2022-05-21 23:03:14</time>
      </trkpt>
      <trkpt lat="42.21505" lon="2.30485">
        <ele>882.8</ele>
        <time>2022-05-21 23:03:15</time>
      </trkpt>
      <trkpt lat="42.21504" lon="2.30487">
        <ele>882.8</ele>
        <time>2022-05-21 23:03:16</time>
      </trkpt>
      <trkpt lat="42.21503" lon="2.3049">
        <ele>883</ele>
        <time>2022-05-21 23:03:17</time>
      </trkpt>
      <trkpt lat="42.21502" lon="2.30494">
        <ele>883.2</ele>
        <time>2022-05-21 23:03:18</time>
      </trkpt>
      <trkpt lat="42.21502" lon="2.30497">
        <ele>883.2</ele>
        <time>2022-05-21 23:03:19</time>
      </trkpt>
      <trkpt lat="42.21501" lon="2.30501">
        <ele>883.4</ele>
        <time>2022-05-21 23:03:20</time>
      </trkpt>
      <trkpt lat="42.21501" lon="2.30504">
        <ele>883.6</ele>
        <time>2022-05-21 23:03:21</time>
      </trkpt>
      <trkpt lat="42.21501" lon="2.30508">
        <ele>883.8</ele>
        <time>2022-05-21 23:03:22</time>
      </trkpt>
      <trkpt lat="42.21501" lon="2.30511">
        <ele>884</ele>
        <time>2022-05-21 23:03:23</time>
      </trkpt>
      <trkpt lat="42.21501" lon="2.30515">
        <ele>884.2</ele>
        <time>2022-05-21 23:03:24</time>
      </trkpt>
      <trkpt lat="42.21501" lon="2.30518">
        <ele>884.2</ele>
        <time>2022-05-21 23:03:25</time>
      </trkpt>
      <trkpt lat="42.21501" lon="2.30521">
        <ele>884.4</ele>
        <time>2022-05-21 23:03:26</time>
      </trkpt>
      <trkpt lat="42.21502" lon="2.30524">
        <ele>884.6</ele>
        <time>2022-05-21 23:03:27</time>
      </trkpt>
      <trkpt lat="42.21502" lon="2.30527">
        <ele>884.6</ele>
        <time>2022-05-21 23:03:28</time>
      </trkpt>
      <trkpt lat="42.21502" lon="2.3053">
        <ele>884.8</ele>
        <time>2022-05-21 23:03:29</time>
      </trkpt>
      <trkpt lat="42.21502" lon="2.30533">
        <ele>885</ele>
        <time>2022-05-21 23:03:30</time>
      </trkpt>
      <trkpt lat="42.21502" lon="2.30536">
        <ele>885.2</ele>
        <time>2022-05-21 23:03:31</time>
      </trkpt>
      <trkpt lat="42.21503" lon="2.30539">
        <ele>885.2</ele>
        <time>2022-05-21 23:03:32</time>
      </trkpt>
      <trkpt lat="42.21503" lon="2.30542">
        <ele>885.4</ele>
        <time>2022-05-21 23:03:33</time>
      </trkpt>
      <trkpt lat="42.21503" lon="2.30545">
        <ele>885.6</ele>
        <time>2022-05-21 23:03:34</time>
      </trkpt>
      <trkpt lat="42.21503" lon="2.30548">
        <ele>885.8</ele>
        <time>2022-05-21 23:03:35</time>
      </trkpt>
      <trkpt lat="42.21503" lon="2.30551">
        <ele>886</ele>
        <time>2022-05-21 23:03:36</time>
      </trkpt>
      <trkpt lat="42.21503" lon="2.30554">
        <ele>886</ele>
        <time>2022-05-21 23:03:37</time>
      </trkpt>
      <trkpt lat="42.21503" lon="2.30557">
        <ele>886.2</ele>
        <time>2022-05-21 23:03:38</time>
      </trkpt>
      <trkpt lat="42.21503" lon="2.3056">
        <ele>886.4</ele>
        <time>2022-05-21 23:03:39</time>
      </trkpt>
      <trkpt lat="42.21503" lon="2.30563">
        <ele>886.6</ele>
        <time>2022-05-21 23:03:40</time>
      </trkpt>
      <trkpt lat="42.21503" lon="2.30566">
        <ele>886.8</ele>
        <time>2022-05-21 23:03:41</time>
      </trkpt>
      <trkpt lat="42.21503" lon="2.30569">
        <ele>887</ele>
        <time>2022-05-21 23:03:42</time>
      </trkpt>
      <trkpt lat="42.21503" lon="2.30571">
        <ele>887.2</ele>
        <time>2022-05-21 23:03:43</time>
      </trkpt>
      <trkpt lat="42.21504" lon="2.30574">
        <ele>887.2</ele>
        <time>2022-05-21 23:03:44</time>
      </trkpt>
      <trkpt lat="42.21504" lon="2.30576">
        <ele>887.4</ele>
        <time>2022-05-21 23:03:45</time>
      </trkpt>
      <trkpt lat="42.21505" lon="2.30578">
        <ele>887.6</ele>
        <time>2022-05-21 23:03:46</time>
      </trkpt>
      <trkpt lat="42.21505" lon="2.30579">
        <ele>887.8</ele>
        <time>2022-05-21 23:03:47</time>
      </trkpt>
      <trkpt lat="42.21505" lon="2.30582">
        <ele>888.2</ele>
        <time>2022-05-21 23:04:29</time>
      </trkpt>
      <trkpt lat="42.21506" lon="2.30583">
        <ele>888.2</ele>
        <time>2022-05-21 23:04:30</time>
      </trkpt>
      <trkpt lat="42.21507" lon="2.30585">
        <ele>888.2</ele>
        <time>2022-05-21 23:04:31</time>
      </trkpt>
      <trkpt lat="42.21508" lon="2.30587">
        <ele>888.2</ele>
        <time>2022-05-21 23:04:32</time>
      </trkpt>
      <trkpt lat="42.21509" lon="2.30589">
        <ele>888.4</ele>
        <time>2022-05-21 23:04:33</time>
      </trkpt>
      <trkpt lat="42.2151" lon="2.30591">
        <ele>888.4</ele>
        <time>2022-05-21 23:04:34</time>
      </trkpt>
      <trkpt lat="42.2151" lon="2.30594">
        <ele>888.6</ele>
        <time>2022-05-21 23:04:35</time>
      </trkpt>
      <trkpt lat="42.2151" lon="2.30597">
        <ele>888.8</ele>
        <time>2022-05-21 23:04:36</time>
      </trkpt>
      <trkpt lat="42.2151" lon="2.306">
        <ele>888.8</ele>
        <time>2022-05-21 23:04:37</time>
      </trkpt>
      <trkpt lat="42.2151" lon="2.30604">
        <ele>889</ele>
        <time>2022-05-21 23:04:38</time>
      </trkpt>
      <trkpt lat="42.21509" lon="2.30607">
        <ele>889.2</ele>
        <time>2022-05-21 23:04:39</time>
      </trkpt>
      <trkpt lat="42.21508" lon="2.3061">
        <ele>889.4</ele>
        <time>2022-05-21 23:04:40</time>
      </trkpt>
      <trkpt lat="42.21508" lon="2.30613">
        <ele>889.4</ele>
        <time>2022-05-21 23:04:41</time>
      </trkpt>
      <trkpt lat="42.21507" lon="2.30617">
        <ele>889.6</ele>
        <time>2022-05-21 23:04:42</time>
      </trkpt>
      <trkpt lat="42.21507" lon="2.3062">
        <ele>889.8</ele>
        <time>2022-05-21 23:04:43</time>
      </trkpt>
      <trkpt lat="42.21506" lon="2.30622">
        <ele>890</ele>
        <time>2022-05-21 23:04:44</time>
      </trkpt>
      <trkpt lat="42.21505" lon="2.30625">
        <ele>890.2</ele>
        <time>2022-05-21 23:04:45</time>
      </trkpt>
      <trkpt lat="42.21505" lon="2.30628">
        <ele>890.2</ele>
        <time>2022-05-21 23:04:46</time>
      </trkpt>
      <trkpt lat="42.21504" lon="2.30632">
        <ele>890.4</ele>
        <time>2022-05-21 23:04:47</time>
      </trkpt>
      <trkpt lat="42.21503" lon="2.30635">
        <ele>890.6</ele>
        <time>2022-05-21 23:04:48</time>
      </trkpt>
      <trkpt lat="42.21503" lon="2.30638">
        <ele>890.8</ele>
        <time>2022-05-21 23:04:49</time>
      </trkpt>
      <trkpt lat="42.21503" lon="2.30641">
        <ele>891</ele>
        <time>2022-05-21 23:04:50</time>
      </trkpt>
      <trkpt lat="42.21502" lon="2.30644">
        <ele>891.2</ele>
        <time>2022-05-21 23:04:51</time>
      </trkpt>
      <trkpt lat="42.21501" lon="2.30647">
        <ele>891.2</ele>
        <time>2022-05-21 23:04:52</time>
      </trkpt>
      <trkpt lat="42.215" lon="2.3065">
        <ele>891.4</ele>
        <time>2022-05-21 23:04:53</time>
      </trkpt>
      <trkpt lat="42.215" lon="2.30653">
        <ele>891.6</ele>
        <time>2022-05-21 23:04:54</time>
      </trkpt>
      <trkpt lat="42.21499" lon="2.30656">
        <ele>891.8</ele>
        <time>2022-05-21 23:04:55</time>
      </trkpt>
      <trkpt lat="42.21498" lon="2.30658">
        <ele>891.8</ele>
        <time>2022-05-21 23:04:56</time>
      </trkpt>
      <trkpt lat="42.21498" lon="2.3066">
        <ele>892</ele>
        <time>2022-05-21 23:04:57</time>
      </trkpt>
      <trkpt lat="42.21497" lon="2.30664">
        <ele>892.2</ele>
        <time>2022-05-21 23:04:58</time>
      </trkpt>
      <trkpt lat="42.21497" lon="2.30666">
        <ele>892.4</ele>
        <time>2022-05-21 23:04:59</time>
      </trkpt>
      <trkpt lat="42.21496" lon="2.30669">
        <ele>892.6</ele>
        <time>2022-05-21 23:05:00</time>
      </trkpt>
      <trkpt lat="42.21496" lon="2.30672">
        <ele>892.6</ele>
        <time>2022-05-21 23:05:01</time>
      </trkpt>
      <trkpt lat="42.21495" lon="2.30675">
        <ele>892.8</ele>
        <time>2022-05-21 23:05:02</time>
      </trkpt>
      <trkpt lat="42.21495" lon="2.30678">
        <ele>893</ele>
        <time>2022-05-21 23:05:03</time>
      </trkpt>
      <trkpt lat="42.21495" lon="2.3068">
        <ele>893.2</ele>
        <time>2022-05-21 23:05:04</time>
      </trkpt>
      <trkpt lat="42.21495" lon="2.30683">
        <ele>893.2</ele>
        <time>2022-05-21 23:05:05</time>
      </trkpt>
      <trkpt lat="42.21494" lon="2.30686">
        <ele>893.4</ele>
        <time>2022-05-21 23:05:06</time>
      </trkpt>
      <trkpt lat="42.21494" lon="2.30689">
        <ele>893.6</ele>
        <time>2022-05-21 23:05:07</time>
      </trkpt>
      <trkpt lat="42.21494" lon="2.30692">
        <ele>893.8</ele>
        <time>2022-05-21 23:05:08</time>
      </trkpt>
      <trkpt lat="42.21495" lon="2.30695">
        <ele>894</ele>
        <time>2022-05-21 23:05:09</time>
      </trkpt>
      <trkpt lat="42.21495" lon="2.30698">
        <ele>894.2</ele>
        <time>2022-05-21 23:05:10</time>
      </trkpt>
      <trkpt lat="42.21495" lon="2.30701">
        <ele>894.2</ele>
        <time>2022-05-21 23:05:11</time>
      </trkpt>
      <trkpt lat="42.21496" lon="2.30704">
        <ele>894.4</ele>
        <time>2022-05-21 23:05:12</time>
      </trkpt>
      <trkpt lat="42.21496" lon="2.30707">
        <ele>894.6</ele>
        <time>2022-05-21 23:05:13</time>
      </trkpt>
      <trkpt lat="42.21497" lon="2.30709">
        <ele>894.8</ele>
        <time>2022-05-21 23:05:14</time>
      </trkpt>
      <trkpt lat="42.21498" lon="2.30712">
        <ele>894.8</ele>
        <time>2022-05-21 23:05:15</time>
      </trkpt>
      <trkpt lat="42.21498" lon="2.30715">
        <ele>895</ele>
        <time>2022-05-21 23:05:16</time>
      </trkpt>
      <trkpt lat="42.21499" lon="2.30718">
        <ele>895.2</ele>
        <time>2022-05-21 23:05:17</time>
      </trkpt>
      <trkpt lat="42.21501" lon="2.3072">
        <ele>895.4</ele>
        <time>2022-05-21 23:05:18</time>
      </trkpt>
      <trkpt lat="42.21502" lon="2.30723">
        <ele>895.4</ele>
        <time>2022-05-21 23:05:19</time>
      </trkpt>
      <trkpt lat="42.21503" lon="2.30725">
        <ele>895.6</ele>
        <time>2022-05-21 23:05:20</time>
      </trkpt>
      <trkpt lat="42.21505" lon="2.30728">
        <ele>895.8</ele>
        <time>2022-05-21 23:05:21</time>
      </trkpt>
      <trkpt lat="42.21506" lon="2.30731">
        <ele>896</ele>
        <time>2022-05-21 23:05:22</time>
      </trkpt>
      <trkpt lat="42.21506" lon="2.30734">
        <ele>896</ele>
        <time>2022-05-21 23:05:23</time>
      </trkpt>
      <trkpt lat="42.21507" lon="2.30736">
        <ele>896.2</ele>
        <time>2022-05-21 23:05:24</time>
      </trkpt>
      <trkpt lat="42.21508" lon="2.30739">
        <ele>896.4</ele>
        <time>2022-05-21 23:05:25</time>
      </trkpt>
      <trkpt lat="42.21508" lon="2.30743">
        <ele>896.6</ele>
        <time>2022-05-21 23:05:26</time>
      </trkpt>
      <trkpt lat="42.21508" lon="2.30746">
        <ele>896.6</ele>
        <time>2022-05-21 23:05:27</time>
      </trkpt>
      <trkpt lat="42.21507" lon="2.30749">
        <ele>896.8</ele>
        <time>2022-05-21 23:05:28</time>
      </trkpt>
      <trkpt lat="42.21506" lon="2.30753">
        <ele>897</ele>
        <time>2022-05-21 23:05:29</time>
      </trkpt>
      <trkpt lat="42.21505" lon="2.30756">
        <ele>897</ele>
        <time>2022-05-21 23:05:30</time>
      </trkpt>
      <trkpt lat="42.21504" lon="2.30759">
        <ele>897.2</ele>
        <time>2022-05-21 23:05:31</time>
      </trkpt>
      <trkpt lat="42.21503" lon="2.30762">
        <ele>897.4</ele>
        <time>2022-05-21 23:05:32</time>
      </trkpt>
      <trkpt lat="42.21501" lon="2.30765">
        <ele>897.4</ele>
        <time>2022-05-21 23:05:33</time>
      </trkpt>
      <trkpt lat="42.21499" lon="2.30768">
        <ele>897.6</ele>
        <time>2022-05-21 23:05:34</time>
      </trkpt>
      <trkpt lat="42.21497" lon="2.3077">
        <ele>897.8</ele>
        <time>2022-05-21 23:05:35</time>
      </trkpt>
      <trkpt lat="42.21495" lon="2.30771">
        <ele>898</ele>
        <time>2022-05-21 23:05:36</time>
      </trkpt>
      <trkpt lat="42.21493" lon="2.30773">
        <ele>898</ele>
        <time>2022-05-21 23:05:37</time>
      </trkpt>
      <trkpt lat="42.21491" lon="2.30775">
        <ele>898.2</ele>
        <time>2022-05-21 23:05:38</time>
      </trkpt>
      <trkpt lat="42.21489" lon="2.30777">
        <ele>898.4</ele>
        <time>2022-05-21 23:05:39</time>
      </trkpt>
      <trkpt lat="42.21487" lon="2.30779">
        <ele>898.6</ele>
        <time>2022-05-21 23:05:40</time>
      </trkpt>
      <trkpt lat="42.21486" lon="2.3078">
        <ele>898.8</ele>
        <time>2022-05-21 23:05:41</time>
      </trkpt>
      <trkpt lat="42.21484" lon="2.30782">
        <ele>899</ele>
        <time>2022-05-21 23:05:42</time>
      </trkpt>
      <trkpt lat="42.21483" lon="2.30785">
        <ele>899</ele>
        <time>2022-05-21 23:05:43</time>
      </trkpt>
      <trkpt lat="42.21482" lon="2.30787">
        <ele>899.2</ele>
        <time>2022-05-21 23:05:44</time>
      </trkpt>
      <trkpt lat="42.2148" lon="2.3079">
        <ele>899.4</ele>
        <time>2022-05-21 23:05:45</time>
      </trkpt>
      <trkpt lat="42.21479" lon="2.30793">
        <ele>899.6</ele>
        <time>2022-05-21 23:05:46</time>
      </trkpt>
      <trkpt lat="42.21478" lon="2.30795">
        <ele>899.6</ele>
        <time>2022-05-21 23:05:47</time>
      </trkpt>
      <trkpt lat="42.21478" lon="2.30798">
        <ele>899.8</ele>
        <time>2022-05-21 23:05:48</time>
      </trkpt>
      <trkpt lat="42.21477" lon="2.30801">
        <ele>900</ele>
        <time>2022-05-21 23:05:49</time>
      </trkpt>
      <trkpt lat="42.21476" lon="2.30804">
        <ele>900</ele>
        <time>2022-05-21 23:05:50</time>
      </trkpt>
      <trkpt lat="42.21476" lon="2.30807">
        <ele>900.2</ele>
        <time>2022-05-21 23:05:51</time>
      </trkpt>
      <trkpt lat="42.21475" lon="2.3081">
        <ele>900.2</ele>
        <time>2022-05-21 23:05:52</time>
      </trkpt>
      <trkpt lat="42.21475" lon="2.30813">
        <ele>900.4</ele>
        <time>2022-05-21 23:05:53</time>
      </trkpt>
      <trkpt lat="42.21475" lon="2.30816">
        <ele>900.6</ele>
        <time>2022-05-21 23:05:54</time>
      </trkpt>
      <trkpt lat="42.21475" lon="2.30819">
        <ele>900.6</ele>
        <time>2022-05-21 23:05:55</time>
      </trkpt>
      <trkpt lat="42.21475" lon="2.30822">
        <ele>900.8</ele>
        <time>2022-05-21 23:05:56</time>
      </trkpt>
      <trkpt lat="42.21475" lon="2.30825">
        <ele>901</ele>
        <time>2022-05-21 23:05:57</time>
      </trkpt>
      <trkpt lat="42.21474" lon="2.30828">
        <ele>901</ele>
        <time>2022-05-21 23:05:58</time>
      </trkpt>
      <trkpt lat="42.21474" lon="2.30831">
        <ele>901.2</ele>
        <time>2022-05-21 23:05:59</time>
      </trkpt>
      <trkpt lat="42.21474" lon="2.30834">
        <ele>901.4</ele>
        <time>2022-05-21 23:06:00</time>
      </trkpt>
      <trkpt lat="42.21473" lon="2.30837">
        <ele>901.4</ele>
        <time>2022-05-21 23:06:01</time>
      </trkpt>
      <trkpt lat="42.21473" lon="2.30839">
        <ele>901.6</ele>
        <time>2022-05-21 23:06:02</time>
      </trkpt>
      <trkpt lat="42.21472" lon="2.30842">
        <ele>901.8</ele>
        <time>2022-05-21 23:06:03</time>
      </trkpt>
      <trkpt lat="42.21471" lon="2.30845">
        <ele>901.8</ele>
        <time>2022-05-21 23:06:04</time>
      </trkpt>
      <trkpt lat="42.2147" lon="2.30847">
        <ele>902</ele>
        <time>2022-05-21 23:06:05</time>
      </trkpt>
      <trkpt lat="42.21469" lon="2.3085">
        <ele>902.2</ele>
        <time>2022-05-21 23:06:06</time>
      </trkpt>
      <trkpt lat="42.21468" lon="2.30852">
        <ele>902.4</ele>
        <time>2022-05-21 23:06:07</time>
      </trkpt>
      <trkpt lat="42.21467" lon="2.30855">
        <ele>902.6</ele>
        <time>2022-05-21 23:06:08</time>
      </trkpt>
      <trkpt lat="42.21466" lon="2.30858">
        <ele>902.8</ele>
        <time>2022-05-21 23:06:09</time>
      </trkpt>
      <trkpt lat="42.21466" lon="2.30861">
        <ele>903</ele>
        <time>2022-05-21 23:06:10</time>
      </trkpt>
      <trkpt lat="42.21465" lon="2.30864">
        <ele>903.2</ele>
        <time>2022-05-21 23:06:11</time>
      </trkpt>
      <trkpt lat="42.21465" lon="2.30867">
        <ele>903.4</ele>
        <time>2022-05-21 23:06:12</time>
      </trkpt>
      <trkpt lat="42.21465" lon="2.3087">
        <ele>903.4</ele>
        <time>2022-05-21 23:06:13</time>
      </trkpt>
      <trkpt lat="42.21465" lon="2.30872">
        <ele>903.6</ele>
        <time>2022-05-21 23:06:14</time>
      </trkpt>
      <trkpt lat="42.21465" lon="2.30875">
        <ele>903.8</ele>
        <time>2022-05-21 23:06:15</time>
      </trkpt>
      <trkpt lat="42.21465" lon="2.30878">
        <ele>904</ele>
        <time>2022-05-21 23:06:16</time>
      </trkpt>
      <trkpt lat="42.21465" lon="2.30882">
        <ele>904.2</ele>
        <time>2022-05-21 23:06:17</time>
      </trkpt>
      <trkpt lat="42.21466" lon="2.30885">
        <ele>904.2</ele>
        <time>2022-05-21 23:06:18</time>
      </trkpt>
      <trkpt lat="42.21466" lon="2.30888">
        <ele>904.4</ele>
        <time>2022-05-21 23:06:19</time>
      </trkpt>
      <trkpt lat="42.21466" lon="2.30892">
        <ele>904.6</ele>
        <time>2022-05-21 23:06:20</time>
      </trkpt>
      <trkpt lat="42.21466" lon="2.30895">
        <ele>904.8</ele>
        <time>2022-05-21 23:06:21</time>
      </trkpt>
      <trkpt lat="42.21466" lon="2.30898">
        <ele>904.8</ele>
        <time>2022-05-21 23:06:22</time>
      </trkpt>
      <trkpt lat="42.21465" lon="2.30901">
        <ele>905</ele>
        <time>2022-05-21 23:06:23</time>
      </trkpt>
      <trkpt lat="42.21464" lon="2.30904">
        <ele>905.2</ele>
        <time>2022-05-21 23:06:24</time>
      </trkpt>
      <trkpt lat="42.21464" lon="2.30906">
        <ele>905.2</ele>
        <time>2022-05-21 23:06:25</time>
      </trkpt>
      <trkpt lat="42.21463" lon="2.30909">
        <ele>905.4</ele>
        <time>2022-05-21 23:06:26</time>
      </trkpt>
      <trkpt lat="42.21463" lon="2.30912">
        <ele>905.6</ele>
        <time>2022-05-21 23:06:27</time>
      </trkpt>
      <trkpt lat="42.21462" lon="2.30914">
        <ele>905.6</ele>
        <time>2022-05-21 23:06:28</time>
      </trkpt>
      <trkpt lat="42.21461" lon="2.30916">
        <ele>905.8</ele>
        <time>2022-05-21 23:06:29</time>
      </trkpt>
      <trkpt lat="42.21461" lon="2.30919">
        <ele>906</ele>
        <time>2022-05-21 23:06:30</time>
      </trkpt>
      <trkpt lat="42.2146" lon="2.30921">
        <ele>906.2</ele>
        <time>2022-05-21 23:06:31</time>
      </trkpt>
      <trkpt lat="42.21459" lon="2.30924">
        <ele>906.2</ele>
        <time>2022-05-21 23:06:32</time>
      </trkpt>
      <trkpt lat="42.21458" lon="2.30926">
        <ele>906.4</ele>
        <time>2022-05-21 23:06:33</time>
      </trkpt>
      <trkpt lat="42.21457" lon="2.30928">
        <ele>906.6</ele>
        <time>2022-05-21 23:06:34</time>
      </trkpt>
      <trkpt lat="42.21456" lon="2.30931">
        <ele>906.6</ele>
        <time>2022-05-21 23:06:35</time>
      </trkpt>
      <trkpt lat="42.21455" lon="2.30933">
        <ele>906.8</ele>
        <time>2022-05-21 23:06:36</time>
      </trkpt>
      <trkpt lat="42.21454" lon="2.30936">
        <ele>907</ele>
        <time>2022-05-21 23:06:37</time>
      </trkpt>
      <trkpt lat="42.21453" lon="2.30938">
        <ele>907</ele>
        <time>2022-05-21 23:06:38</time>
      </trkpt>
      <trkpt lat="42.21452" lon="2.30941">
        <ele>907.2</ele>
        <time>2022-05-21 23:06:39</time>
      </trkpt>
      <trkpt lat="42.2145" lon="2.30944">
        <ele>907.2</ele>
        <time>2022-05-21 23:06:40</time>
      </trkpt>
      <trkpt lat="42.21449" lon="2.30947">
        <ele>907.4</ele>
        <time>2022-05-21 23:06:41</time>
      </trkpt>
      <trkpt lat="42.21448" lon="2.30949">
        <ele>907.4</ele>
        <time>2022-05-21 23:06:42</time>
      </trkpt>
      <trkpt lat="42.21446" lon="2.30952">
        <ele>907.6</ele>
        <time>2022-05-21 23:06:43</time>
      </trkpt>
      <trkpt lat="42.21445" lon="2.30954">
        <ele>907.8</ele>
        <time>2022-05-21 23:06:44</time>
      </trkpt>
      <trkpt lat="42.21444" lon="2.30957">
        <ele>907.8</ele>
        <time>2022-05-21 23:06:45</time>
      </trkpt>
      <trkpt lat="42.21443" lon="2.30959">
        <ele>908</ele>
        <time>2022-05-21 23:06:46</time>
      </trkpt>
      <trkpt lat="42.21442" lon="2.30962">
        <ele>908.2</ele>
        <time>2022-05-21 23:06:47</time>
      </trkpt>
      <trkpt lat="42.21441" lon="2.30965">
        <ele>908.2</ele>
        <time>2022-05-21 23:06:48</time>
      </trkpt>
      <trkpt lat="42.2144" lon="2.30967">
        <ele>908.4</ele>
        <time>2022-05-21 23:06:49</time>
      </trkpt>
      <trkpt lat="42.21438" lon="2.3097">
        <ele>908.6</ele>
        <time>2022-05-21 23:06:50</time>
      </trkpt>
      <trkpt lat="42.21437" lon="2.30972">
        <ele>908.8</ele>
        <time>2022-05-21 23:06:51</time>
      </trkpt>
      <trkpt lat="42.21436" lon="2.30974">
        <ele>908.8</ele>
        <time>2022-05-21 23:06:52</time>
      </trkpt>
      <trkpt lat="42.21435" lon="2.30977">
        <ele>909</ele>
        <time>2022-05-21 23:06:53</time>
      </trkpt>
      <trkpt lat="42.21434" lon="2.30979">
        <ele>909.2</ele>
        <time>2022-05-21 23:06:54</time>
      </trkpt>
      <trkpt lat="42.21434" lon="2.30982">
        <ele>909.4</ele>
        <time>2022-05-21 23:06:55</time>
      </trkpt>
      <trkpt lat="42.21433" lon="2.30984">
        <ele>909.4</ele>
        <time>2022-05-21 23:06:56</time>
      </trkpt>
      <trkpt lat="42.21433" lon="2.30987">
        <ele>909.6</ele>
        <time>2022-05-21 23:06:57</time>
      </trkpt>
      <trkpt lat="42.21432" lon="2.30989">
        <ele>909.8</ele>
        <time>2022-05-21 23:06:58</time>
      </trkpt>
      <trkpt lat="42.21432" lon="2.30992">
        <ele>910</ele>
        <time>2022-05-21 23:06:59</time>
      </trkpt>
      <trkpt lat="42.21432" lon="2.30995">
        <ele>910.2</ele>
        <time>2022-05-21 23:07:00</time>
      </trkpt>
      <trkpt lat="42.21432" lon="2.30997">
        <ele>910.4</ele>
        <time>2022-05-21 23:07:01</time>
      </trkpt>
      <trkpt lat="42.21432" lon="2.31">
        <ele>910.6</ele>
        <time>2022-05-21 23:07:02</time>
      </trkpt>
      <trkpt lat="42.21432" lon="2.31002">
        <ele>910.8</ele>
        <time>2022-05-21 23:07:03</time>
      </trkpt>
      <trkpt lat="42.21432" lon="2.31005">
        <ele>911</ele>
        <time>2022-05-21 23:07:04</time>
      </trkpt>
      <trkpt lat="42.21433" lon="2.31008">
        <ele>911</ele>
        <time>2022-05-21 23:07:05</time>
      </trkpt>
      <trkpt lat="42.21434" lon="2.31011">
        <ele>911.2</ele>
        <time>2022-05-21 23:07:06</time>
      </trkpt>
      <trkpt lat="42.21434" lon="2.31013">
        <ele>911.4</ele>
        <time>2022-05-21 23:07:07</time>
      </trkpt>
      <trkpt lat="42.21435" lon="2.31016">
        <ele>911.6</ele>
        <time>2022-05-21 23:07:08</time>
      </trkpt>
      <trkpt lat="42.21436" lon="2.31019">
        <ele>911.8</ele>
        <time>2022-05-21 23:07:09</time>
      </trkpt>
      <trkpt lat="42.21437" lon="2.31021">
        <ele>912</ele>
        <time>2022-05-21 23:07:10</time>
      </trkpt>
      <trkpt lat="42.21439" lon="2.31024">
        <ele>912</ele>
        <time>2022-05-21 23:07:11</time>
      </trkpt>
      <trkpt lat="42.2144" lon="2.31026">
        <ele>912.2</ele>
        <time>2022-05-21 23:07:12</time>
      </trkpt>
      <trkpt lat="42.21441" lon="2.31029">
        <ele>912.4</ele>
        <time>2022-05-21 23:07:13</time>
      </trkpt>
      <trkpt lat="42.21442" lon="2.31031">
        <ele>912.4</ele>
        <time>2022-05-21 23:07:14</time>
      </trkpt>
      <trkpt lat="42.21443" lon="2.31033">
        <ele>912.6</ele>
        <time>2022-05-21 23:07:15</time>
      </trkpt>
      <trkpt lat="42.21444" lon="2.31036">
        <ele>912.6</ele>
        <time>2022-05-21 23:07:16</time>
      </trkpt>
      <trkpt lat="42.21446" lon="2.31039">
        <ele>912.8</ele>
        <time>2022-05-21 23:07:17</time>
      </trkpt>
      <trkpt lat="42.21447" lon="2.31042">
        <ele>913</ele>
        <time>2022-05-21 23:07:18</time>
      </trkpt>
      <trkpt lat="42.21448" lon="2.31045">
        <ele>913</ele>
        <time>2022-05-21 23:07:19</time>
      </trkpt>
      <trkpt lat="42.21448" lon="2.31048">
        <ele>913.2</ele>
        <time>2022-05-21 23:07:20</time>
      </trkpt>
      <trkpt lat="42.21449" lon="2.31051">
        <ele>913.4</ele>
        <time>2022-05-21 23:07:21</time>
      </trkpt>
      <trkpt lat="42.21448" lon="2.31054">
        <ele>913.4</ele>
        <time>2022-05-21 23:07:22</time>
      </trkpt>
      <trkpt lat="42.21448" lon="2.31057">
        <ele>913.6</ele>
        <time>2022-05-21 23:07:23</time>
      </trkpt>
      <trkpt lat="42.21447" lon="2.3106">
        <ele>913.8</ele>
        <time>2022-05-21 23:07:24</time>
      </trkpt>
      <trkpt lat="42.21446" lon="2.31063">
        <ele>914</ele>
        <time>2022-05-21 23:07:25</time>
      </trkpt>
      <trkpt lat="42.21445" lon="2.31066">
        <ele>914.2</ele>
        <time>2022-05-21 23:07:26</time>
      </trkpt>
      <trkpt lat="42.21445" lon="2.31068">
        <ele>914.2</ele>
        <time>2022-05-21 23:07:27</time>
      </trkpt>
      <trkpt lat="42.21444" lon="2.31071">
        <ele>914.4</ele>
        <time>2022-05-21 23:07:28</time>
      </trkpt>
      <trkpt lat="42.21443" lon="2.31073">
        <ele>914.6</ele>
        <time>2022-05-21 23:07:29</time>
      </trkpt>
      <trkpt lat="42.21442" lon="2.31075">
        <ele>914.8</ele>
        <time>2022-05-21 23:07:30</time>
      </trkpt>
      <trkpt lat="42.21441" lon="2.31077">
        <ele>914.8</ele>
        <time>2022-05-21 23:07:31</time>
      </trkpt>
      <trkpt lat="42.2144" lon="2.3108">
        <ele>915</ele>
        <time>2022-05-21 23:07:32</time>
      </trkpt>
      <trkpt lat="42.21438" lon="2.31082">
        <ele>915.2</ele>
        <time>2022-05-21 23:07:33</time>
      </trkpt>
      <trkpt lat="42.21437" lon="2.31085">
        <ele>915.2</ele>
        <time>2022-05-21 23:07:34</time>
      </trkpt>
      <trkpt lat="42.21436" lon="2.31087">
        <ele>915.4</ele>
        <time>2022-05-21 23:07:35</time>
      </trkpt>
      <trkpt lat="42.21435" lon="2.3109">
        <ele>915.6</ele>
        <time>2022-05-21 23:07:36</time>
      </trkpt>
      <trkpt lat="42.21434" lon="2.31092">
        <ele>915.6</ele>
        <time>2022-05-21 23:07:37</time>
      </trkpt>
      <trkpt lat="42.21433" lon="2.31094">
        <ele>915.8</ele>
        <time>2022-05-21 23:07:38</time>
      </trkpt>
      <trkpt lat="42.21431" lon="2.31097">
        <ele>915.8</ele>
        <time>2022-05-21 23:07:39</time>
      </trkpt>
      <trkpt lat="42.2143" lon="2.31099">
        <ele>916</ele>
        <time>2022-05-21 23:07:40</time>
      </trkpt>
      <trkpt lat="42.21428" lon="2.31101">
        <ele>916.2</ele>
        <time>2022-05-21 23:07:41</time>
      </trkpt>
      <trkpt lat="42.21427" lon="2.31104">
        <ele>916.2</ele>
        <time>2022-05-21 23:07:42</time>
      </trkpt>
      <trkpt lat="42.21425" lon="2.31106">
        <ele>916.4</ele>
        <time>2022-05-21 23:07:43</time>
      </trkpt>
      <trkpt lat="42.21424" lon="2.31107">
        <ele>916.6</ele>
        <time>2022-05-21 23:07:44</time>
      </trkpt>
      <trkpt lat="42.21423" lon="2.31109">
        <ele>916.6</ele>
        <time>2022-05-21 23:07:45</time>
      </trkpt>
      <trkpt lat="42.21422" lon="2.31112">
        <ele>916.8</ele>
        <time>2022-05-21 23:07:46</time>
      </trkpt>
      <trkpt lat="42.21421" lon="2.31114">
        <ele>917</ele>
        <time>2022-05-21 23:07:47</time>
      </trkpt>
      <trkpt lat="42.2142" lon="2.31117">
        <ele>917.2</ele>
        <time>2022-05-21 23:07:48</time>
      </trkpt>
      <trkpt lat="42.21419" lon="2.31119">
        <ele>917.2</ele>
        <time>2022-05-21 23:07:49</time>
      </trkpt>
      <trkpt lat="42.21417" lon="2.31122">
        <ele>917.4</ele>
        <time>2022-05-21 23:07:50</time>
      </trkpt>
      <trkpt lat="42.21417" lon="2.31124">
        <ele>917.6</ele>
        <time>2022-05-21 23:07:51</time>
      </trkpt>
      <trkpt lat="42.21416" lon="2.31127">
        <ele>917.6</ele>
        <time>2022-05-21 23:07:52</time>
      </trkpt>
      <trkpt lat="42.21415" lon="2.31129">
        <ele>917.8</ele>
        <time>2022-05-21 23:07:53</time>
      </trkpt>
      <trkpt lat="42.21414" lon="2.31132">
        <ele>918</ele>
        <time>2022-05-21 23:07:54</time>
      </trkpt>
      <trkpt lat="42.21413" lon="2.31135">
        <ele>918.2</ele>
        <time>2022-05-21 23:07:55</time>
      </trkpt>
      <trkpt lat="42.21411" lon="2.31137">
        <ele>918.2</ele>
        <time>2022-05-21 23:07:56</time>
      </trkpt>
      <trkpt lat="42.2141" lon="2.3114">
        <ele>918.4</ele>
        <time>2022-05-21 23:07:57</time>
      </trkpt>
      <trkpt lat="42.21409" lon="2.31142">
        <ele>918.6</ele>
        <time>2022-05-21 23:07:58</time>
      </trkpt>
      <trkpt lat="42.21409" lon="2.31146">
        <ele>918.6</ele>
        <time>2022-05-21 23:07:59</time>
      </trkpt>
      <trkpt lat="42.21408" lon="2.31149">
        <ele>918.8</ele>
        <time>2022-05-21 23:08:00</time>
      </trkpt>
      <trkpt lat="42.21406" lon="2.31151">
        <ele>918.8</ele>
        <time>2022-05-21 23:08:01</time>
      </trkpt>
      <trkpt lat="42.21405" lon="2.31154">
        <ele>919</ele>
        <time>2022-05-21 23:08:02</time>
      </trkpt>
      <trkpt lat="42.21404" lon="2.31157">
        <ele>919.2</ele>
        <time>2022-05-21 23:08:03</time>
      </trkpt>
      <trkpt lat="42.21402" lon="2.3116">
        <ele>919.2</ele>
        <time>2022-05-21 23:08:04</time>
      </trkpt>
      <trkpt lat="42.21401" lon="2.31163">
        <ele>919.4</ele>
        <time>2022-05-21 23:08:05</time>
      </trkpt>
      <trkpt lat="42.214" lon="2.31165">
        <ele>919.6</ele>
        <time>2022-05-21 23:08:06</time>
      </trkpt>
      <trkpt lat="42.21398" lon="2.31168">
        <ele>919.6</ele>
        <time>2022-05-21 23:08:07</time>
      </trkpt>
      <trkpt lat="42.21397" lon="2.31171">
        <ele>919.8</ele>
        <time>2022-05-21 23:08:08</time>
      </trkpt>
      <trkpt lat="42.21396" lon="2.31173">
        <ele>920</ele>
        <time>2022-05-21 23:08:09</time>
      </trkpt>
      <trkpt lat="42.21394" lon="2.31176">
        <ele>920</ele>
        <time>2022-05-21 23:08:10</time>
      </trkpt>
      <trkpt lat="42.21393" lon="2.31178">
        <ele>920.2</ele>
        <time>2022-05-21 23:08:11</time>
      </trkpt>
      <trkpt lat="42.21391" lon="2.31181">
        <ele>920.4</ele>
        <time>2022-05-21 23:08:12</time>
      </trkpt>
      <trkpt lat="42.2139" lon="2.31184">
        <ele>920.4</ele>
        <time>2022-05-21 23:08:13</time>
      </trkpt>
      <trkpt lat="42.21388" lon="2.31187">
        <ele>920.6</ele>
        <time>2022-05-21 23:08:14</time>
      </trkpt>
      <trkpt lat="42.21388" lon="2.3119">
        <ele>920.8</ele>
        <time>2022-05-21 23:08:15</time>
      </trkpt>
      <trkpt lat="42.21387" lon="2.31192">
        <ele>920.8</ele>
        <time>2022-05-21 23:08:16</time>
      </trkpt>
      <trkpt lat="42.21386" lon="2.31195">
        <ele>921</ele>
        <time>2022-05-21 23:08:17</time>
      </trkpt>
      <trkpt lat="42.21385" lon="2.31198">
        <ele>921.2</ele>
        <time>2022-05-21 23:08:18</time>
      </trkpt>
      <trkpt lat="42.21384" lon="2.31201">
        <ele>921.2</ele>
        <time>2022-05-21 23:08:19</time>
      </trkpt>
      <trkpt lat="42.21383" lon="2.31204">
        <ele>921.4</ele>
        <time>2022-05-21 23:08:20</time>
      </trkpt>
      <trkpt lat="42.21383" lon="2.31207">
        <ele>921.6</ele>
        <time>2022-05-21 23:08:21</time>
      </trkpt>
      <trkpt lat="42.21383" lon="2.3121">
        <ele>921.6</ele>
        <time>2022-05-21 23:08:22</time>
      </trkpt>
      <trkpt lat="42.21382" lon="2.31213">
        <ele>921.8</ele>
        <time>2022-05-21 23:08:23</time>
      </trkpt>
      <trkpt lat="42.21382" lon="2.31216">
        <ele>921.8</ele>
        <time>2022-05-21 23:08:24</time>
      </trkpt>
      <trkpt lat="42.21382" lon="2.31219">
        <ele>922</ele>
        <time>2022-05-21 23:08:25</time>
      </trkpt>
      <trkpt lat="42.21382" lon="2.31222">
        <ele>922.2</ele>
        <time>2022-05-21 23:08:26</time>
      </trkpt>
      <trkpt lat="42.21382" lon="2.31225">
        <ele>922.2</ele>
        <time>2022-05-21 23:08:27</time>
      </trkpt>
      <trkpt lat="42.21382" lon="2.31228">
        <ele>922.4</ele>
        <time>2022-05-21 23:08:28</time>
      </trkpt>
      <trkpt lat="42.21382" lon="2.31231">
        <ele>922.4</ele>
        <time>2022-05-21 23:08:29</time>
      </trkpt>
      <trkpt lat="42.21382" lon="2.31234">
        <ele>922.6</ele>
        <time>2022-05-21 23:08:30</time>
      </trkpt>
      <trkpt lat="42.21381" lon="2.31237">
        <ele>922.8</ele>
        <time>2022-05-21 23:08:31</time>
      </trkpt>
      <trkpt lat="42.21381" lon="2.31239">
        <ele>923</ele>
        <time>2022-05-21 23:08:32</time>
      </trkpt>
      <trkpt lat="42.21382" lon="2.31242">
        <ele>923</ele>
        <time>2022-05-21 23:08:33</time>
      </trkpt>
      <trkpt lat="42.21382" lon="2.31245">
        <ele>923.2</ele>
        <time>2022-05-21 23:08:34</time>
      </trkpt>
      <trkpt lat="42.21382" lon="2.31248">
        <ele>923.4</ele>
        <time>2022-05-21 23:08:35</time>
      </trkpt>
      <trkpt lat="42.21382" lon="2.31251">
        <ele>923.4</ele>
        <time>2022-05-21 23:08:36</time>
      </trkpt>
      <trkpt lat="42.21382" lon="2.31254">
        <ele>923.6</ele>
        <time>2022-05-21 23:08:37</time>
      </trkpt>
      <trkpt lat="42.21383" lon="2.31256">
        <ele>923.8</ele>
        <time>2022-05-21 23:08:38</time>
      </trkpt>
      <trkpt lat="42.21383" lon="2.31259">
        <ele>923.8</ele>
        <time>2022-05-21 23:08:39</time>
      </trkpt>
      <trkpt lat="42.21384" lon="2.31262">
        <ele>924</ele>
        <time>2022-05-21 23:08:40</time>
      </trkpt>
      <trkpt lat="42.21384" lon="2.31265">
        <ele>924.2</ele>
        <time>2022-05-21 23:08:41</time>
      </trkpt>
      <trkpt lat="42.21384" lon="2.31268">
        <ele>924.2</ele>
        <time>2022-05-21 23:08:42</time>
      </trkpt>
      <trkpt lat="42.21385" lon="2.31271">
        <ele>924.4</ele>
        <time>2022-05-21 23:08:43</time>
      </trkpt>
      <trkpt lat="42.21385" lon="2.31274">
        <ele>924.6</ele>
        <time>2022-05-21 23:08:44</time>
      </trkpt>
      <trkpt lat="42.21385" lon="2.31277">
        <ele>924.6</ele>
        <time>2022-05-21 23:08:45</time>
      </trkpt>
      <trkpt lat="42.21385" lon="2.3128">
        <ele>924.8</ele>
        <time>2022-05-21 23:08:46</time>
      </trkpt>
      <trkpt lat="42.21384" lon="2.31283">
        <ele>925</ele>
        <time>2022-05-21 23:08:47</time>
      </trkpt>
      <trkpt lat="42.21384" lon="2.31286">
        <ele>925.2</ele>
        <time>2022-05-21 23:08:48</time>
      </trkpt>
      <trkpt lat="42.21383" lon="2.31288">
        <ele>925.2</ele>
        <time>2022-05-21 23:08:49</time>
      </trkpt>
      <trkpt lat="42.21383" lon="2.31291">
        <ele>925.4</ele>
        <time>2022-05-21 23:08:50</time>
      </trkpt>
      <trkpt lat="42.21382" lon="2.31294">
        <ele>925.6</ele>
        <time>2022-05-21 23:08:51</time>
      </trkpt>
      <trkpt lat="42.21382" lon="2.31297">
        <ele>925.8</ele>
        <time>2022-05-21 23:08:52</time>
      </trkpt>
      <trkpt lat="42.21381" lon="2.313">
        <ele>926</ele>
        <time>2022-05-21 23:08:53</time>
      </trkpt>
      <trkpt lat="42.21381" lon="2.31303">
        <ele>926.2</ele>
        <time>2022-05-21 23:08:54</time>
      </trkpt>
      <trkpt lat="42.21381" lon="2.31306">
        <ele>926.2</ele>
        <time>2022-05-21 23:08:55</time>
      </trkpt>
      <trkpt lat="42.21381" lon="2.31309">
        <ele>926.4</ele>
        <time>2022-05-21 23:08:56</time>
      </trkpt>
      <trkpt lat="42.21381" lon="2.31312">
        <ele>926.6</ele>
        <time>2022-05-21 23:08:57</time>
      </trkpt>
      <trkpt lat="42.21381" lon="2.31315">
        <ele>926.8</ele>
        <time>2022-05-21 23:08:58</time>
      </trkpt>
      <trkpt lat="42.21381" lon="2.31317">
        <ele>927</ele>
        <time>2022-05-21 23:08:59</time>
      </trkpt>
      <trkpt lat="42.21381" lon="2.3132">
        <ele>927</ele>
        <time>2022-05-21 23:09:00</time>
      </trkpt>
      <trkpt lat="42.21381" lon="2.31323">
        <ele>927.2</ele>
        <time>2022-05-21 23:09:01</time>
      </trkpt>
      <trkpt lat="42.21381" lon="2.31326">
        <ele>927.4</ele>
        <time>2022-05-21 23:09:02</time>
      </trkpt>
      <trkpt lat="42.21381" lon="2.31329">
        <ele>927.6</ele>
        <time>2022-05-21 23:09:03</time>
      </trkpt>
      <trkpt lat="42.2138" lon="2.31332">
        <ele>927.8</ele>
        <time>2022-05-21 23:09:04</time>
      </trkpt>
      <trkpt lat="42.21379" lon="2.31335">
        <ele>927.8</ele>
        <time>2022-05-21 23:09:05</time>
      </trkpt>
      <trkpt lat="42.21378" lon="2.31337">
        <ele>928</ele>
        <time>2022-05-21 23:09:06</time>
      </trkpt>
      <trkpt lat="42.21376" lon="2.3134">
        <ele>928.2</ele>
        <time>2022-05-21 23:09:07</time>
      </trkpt>
      <trkpt lat="42.21375" lon="2.31343">
        <ele>928.2</ele>
        <time>2022-05-21 23:09:08</time>
      </trkpt>
      <trkpt lat="42.21373" lon="2.31345">
        <ele>928.4</ele>
        <time>2022-05-21 23:09:09</time>
      </trkpt>
      <trkpt lat="42.21371" lon="2.31347">
        <ele>928.6</ele>
        <time>2022-05-21 23:09:10</time>
      </trkpt>
      <trkpt lat="42.21369" lon="2.3135">
        <ele>928.8</ele>
        <time>2022-05-21 23:09:11</time>
      </trkpt>
      <trkpt lat="42.21367" lon="2.31352">
        <ele>928.8</ele>
        <time>2022-05-21 23:09:12</time>
      </trkpt>
      <trkpt lat="42.21365" lon="2.31354">
        <ele>929</ele>
        <time>2022-05-21 23:09:13</time>
      </trkpt>
      <trkpt lat="42.21363" lon="2.31357">
        <ele>929.2</ele>
        <time>2022-05-21 23:09:14</time>
      </trkpt>
      <trkpt lat="42.21361" lon="2.31359">
        <ele>929.2</ele>
        <time>2022-05-21 23:09:15</time>
      </trkpt>
      <trkpt lat="42.21359" lon="2.31361">
        <ele>929.4</ele>
        <time>2022-05-21 23:09:16</time>
      </trkpt>
      <trkpt lat="42.21357" lon="2.31364">
        <ele>929.4</ele>
        <time>2022-05-21 23:09:17</time>
      </trkpt>
      <trkpt lat="42.21355" lon="2.31366">
        <ele>929.6</ele>
        <time>2022-05-21 23:09:18</time>
      </trkpt>
      <trkpt lat="42.21353" lon="2.31368">
        <ele>929.6</ele>
        <time>2022-05-21 23:09:19</time>
      </trkpt>
      <trkpt lat="42.21352" lon="2.3137">
        <ele>929.8</ele>
        <time>2022-05-21 23:09:20</time>
      </trkpt>
      <trkpt lat="42.2135" lon="2.31373">
        <ele>930</ele>
        <time>2022-05-21 23:09:21</time>
      </trkpt>
      <trkpt lat="42.21348" lon="2.31375">
        <ele>930</ele>
        <time>2022-05-21 23:09:22</time>
      </trkpt>
      <trkpt lat="42.21347" lon="2.31377">
        <ele>930.2</ele>
        <time>2022-05-21 23:09:23</time>
      </trkpt>
      <trkpt lat="42.21345" lon="2.3138">
        <ele>930.4</ele>
        <time>2022-05-21 23:09:24</time>
      </trkpt>
      <trkpt lat="42.21343" lon="2.31382">
        <ele>930.4</ele>
        <time>2022-05-21 23:09:25</time>
      </trkpt>
      <trkpt lat="42.21342" lon="2.31385">
        <ele>930.6</ele>
        <time>2022-05-21 23:09:26</time>
      </trkpt>
      <trkpt lat="42.21341" lon="2.31388">
        <ele>930.6</ele>
        <time>2022-05-21 23:09:27</time>
      </trkpt>
      <trkpt lat="42.2134" lon="2.31391">
        <ele>930.8</ele>
        <time>2022-05-21 23:09:28</time>
      </trkpt>
      <trkpt lat="42.21339" lon="2.31394">
        <ele>930.8</ele>
        <time>2022-05-21 23:09:29</time>
      </trkpt>
      <trkpt lat="42.21338" lon="2.31397">
        <ele>931</ele>
        <time>2022-05-21 23:09:30</time>
      </trkpt>
      <trkpt lat="42.21337" lon="2.314">
        <ele>931</ele>
        <time>2022-05-21 23:09:31</time>
      </trkpt>
      <trkpt lat="42.21336" lon="2.31403">
        <ele>931.2</ele>
        <time>2022-05-21 23:09:32</time>
      </trkpt>
      <trkpt lat="42.21336" lon="2.31407">
        <ele>931.2</ele>
        <time>2022-05-21 23:09:33</time>
      </trkpt>
      <trkpt lat="42.21335" lon="2.3141">
        <ele>931.4</ele>
        <time>2022-05-21 23:09:34</time>
      </trkpt>
      <trkpt lat="42.21335" lon="2.31413">
        <ele>931.4</ele>
        <time>2022-05-21 23:09:35</time>
      </trkpt>
      <trkpt lat="42.21335" lon="2.31417">
        <ele>931.4</ele>
        <time>2022-05-21 23:09:36</time>
      </trkpt>
      <trkpt lat="42.21335" lon="2.3142">
        <ele>931.6</ele>
        <time>2022-05-21 23:09:37</time>
      </trkpt>
      <trkpt lat="42.21334" lon="2.31423">
        <ele>931.8</ele>
        <time>2022-05-21 23:09:38</time>
      </trkpt>
      <trkpt lat="42.21334" lon="2.31427">
        <ele>931.8</ele>
        <time>2022-05-21 23:09:39</time>
      </trkpt>
      <trkpt lat="42.21334" lon="2.3143">
        <ele>932</ele>
        <time>2022-05-21 23:09:40</time>
      </trkpt>
      <trkpt lat="42.21334" lon="2.31434">
        <ele>932</ele>
        <time>2022-05-21 23:09:41</time>
      </trkpt>
      <trkpt lat="42.21334" lon="2.31437">
        <ele>932.2</ele>
        <time>2022-05-21 23:09:42</time>
      </trkpt>
      <trkpt lat="42.21334" lon="2.31441">
        <ele>932.4</ele>
        <time>2022-05-21 23:09:43</time>
      </trkpt>
      <trkpt lat="42.21334" lon="2.31444">
        <ele>932.4</ele>
        <time>2022-05-21 23:09:44</time>
      </trkpt>
      <trkpt lat="42.21334" lon="2.31447">
        <ele>932.6</ele>
        <time>2022-05-21 23:09:45</time>
      </trkpt>
      <trkpt lat="42.21334" lon="2.3145">
        <ele>932.8</ele>
        <time>2022-05-21 23:09:46</time>
      </trkpt>
      <trkpt lat="42.21334" lon="2.31454">
        <ele>932.8</ele>
        <time>2022-05-21 23:09:47</time>
      </trkpt>
      <trkpt lat="42.21333" lon="2.31457">
        <ele>933</ele>
        <time>2022-05-21 23:09:48</time>
      </trkpt>
      <trkpt lat="42.21333" lon="2.3146">
        <ele>933.2</ele>
        <time>2022-05-21 23:09:49</time>
      </trkpt>
      <trkpt lat="42.21333" lon="2.31463">
        <ele>933.2</ele>
        <time>2022-05-21 23:09:50</time>
      </trkpt>
      <trkpt lat="42.21332" lon="2.31467">
        <ele>933.4</ele>
        <time>2022-05-21 23:09:51</time>
      </trkpt>
      <trkpt lat="42.21332" lon="2.3147">
        <ele>933.6</ele>
        <time>2022-05-21 23:09:52</time>
      </trkpt>
      <trkpt lat="42.21332" lon="2.31473">
        <ele>933.6</ele>
        <time>2022-05-21 23:09:53</time>
      </trkpt>
      <trkpt lat="42.21331" lon="2.31477">
        <ele>933.8</ele>
        <time>2022-05-21 23:09:54</time>
      </trkpt>
      <trkpt lat="42.21331" lon="2.3148">
        <ele>934</ele>
        <time>2022-05-21 23:09:55</time>
      </trkpt>
      <trkpt lat="42.21331" lon="2.31483">
        <ele>934</ele>
        <time>2022-05-21 23:09:56</time>
      </trkpt>
      <trkpt lat="42.21331" lon="2.31486">
        <ele>934.2</ele>
        <time>2022-05-21 23:09:57</time>
      </trkpt>
      <trkpt lat="42.21331" lon="2.31489">
        <ele>934.4</ele>
        <time>2022-05-21 23:09:58</time>
      </trkpt>
      <trkpt lat="42.2133" lon="2.31493">
        <ele>934.6</ele>
        <time>2022-05-21 23:09:59</time>
      </trkpt>
      <trkpt lat="42.2133" lon="2.31497">
        <ele>934.6</ele>
        <time>2022-05-21 23:10:00</time>
      </trkpt>
      <trkpt lat="42.21331" lon="2.315">
        <ele>934.8</ele>
        <time>2022-05-21 23:10:01</time>
      </trkpt>
      <trkpt lat="42.21331" lon="2.31503">
        <ele>934.8</ele>
        <time>2022-05-21 23:10:02</time>
      </trkpt>
      <trkpt lat="42.21332" lon="2.31507">
        <ele>935</ele>
        <time>2022-05-21 23:10:03</time>
      </trkpt>
      <trkpt lat="42.21332" lon="2.3151">
        <ele>935.2</ele>
        <time>2022-05-21 23:10:04</time>
      </trkpt>
      <trkpt lat="42.21332" lon="2.31514">
        <ele>935.2</ele>
        <time>2022-05-21 23:10:05</time>
      </trkpt>
      <trkpt lat="42.21333" lon="2.31517">
        <ele>935.4</ele>
        <time>2022-05-21 23:10:06</time>
      </trkpt>
      <trkpt lat="42.21333" lon="2.31521">
        <ele>935.4</ele>
        <time>2022-05-21 23:10:07</time>
      </trkpt>
      <trkpt lat="42.21334" lon="2.31524">
        <ele>935.6</ele>
        <time>2022-05-21 23:10:08</time>
      </trkpt>
      <trkpt lat="42.21334" lon="2.31528">
        <ele>935.8</ele>
        <time>2022-05-21 23:10:09</time>
      </trkpt>
      <trkpt lat="42.21335" lon="2.31531">
        <ele>935.8</ele>
        <time>2022-05-21 23:10:10</time>
      </trkpt>
      <trkpt lat="42.21336" lon="2.31535">
        <ele>936</ele>
        <time>2022-05-21 23:10:11</time>
      </trkpt>
      <trkpt lat="42.21337" lon="2.31538">
        <ele>936</ele>
        <time>2022-05-21 23:10:12</time>
      </trkpt>
      <trkpt lat="42.21338" lon="2.31542">
        <ele>936</ele>
        <time>2022-05-21 23:10:13</time>
      </trkpt>
      <trkpt lat="42.21338" lon="2.31546">
        <ele>936.2</ele>
        <time>2022-05-21 23:10:14</time>
      </trkpt>
      <trkpt lat="42.21339" lon="2.3155">
        <ele>936.2</ele>
        <time>2022-05-21 23:10:15</time>
      </trkpt>
      <trkpt lat="42.21339" lon="2.31554">
        <ele>936.4</ele>
        <time>2022-05-21 23:10:16</time>
      </trkpt>
      <trkpt lat="42.21339" lon="2.31558">
        <ele>936.4</ele>
        <time>2022-05-21 23:10:17</time>
      </trkpt>
      <trkpt lat="42.21339" lon="2.31562">
        <ele>936.6</ele>
        <time>2022-05-21 23:10:18</time>
      </trkpt>
      <trkpt lat="42.21339" lon="2.31565">
        <ele>936.8</ele>
        <time>2022-05-21 23:10:19</time>
      </trkpt>
      <trkpt lat="42.21339" lon="2.31569">
        <ele>936.8</ele>
        <time>2022-05-21 23:10:20</time>
      </trkpt>
      <trkpt lat="42.21338" lon="2.31573">
        <ele>937</ele>
        <time>2022-05-21 23:10:21</time>
      </trkpt>
      <trkpt lat="42.21338" lon="2.31577">
        <ele>937</ele>
        <time>2022-05-21 23:10:22</time>
      </trkpt>
      <trkpt lat="42.21337" lon="2.31581">
        <ele>937.2</ele>
        <time>2022-05-21 23:10:23</time>
      </trkpt>
      <trkpt lat="42.21336" lon="2.31584">
        <ele>937.4</ele>
        <time>2022-05-21 23:10:24</time>
      </trkpt>
      <trkpt lat="42.21335" lon="2.31588">
        <ele>937.4</ele>
        <time>2022-05-21 23:10:25</time>
      </trkpt>
      <trkpt lat="42.21335" lon="2.31592">
        <ele>937.6</ele>
        <time>2022-05-21 23:10:26</time>
      </trkpt>
      <trkpt lat="42.21335" lon="2.31595">
        <ele>937.8</ele>
        <time>2022-05-21 23:10:27</time>
      </trkpt>
      <trkpt lat="42.21334" lon="2.31599">
        <ele>937.8</ele>
        <time>2022-05-21 23:10:28</time>
      </trkpt>
      <trkpt lat="42.21333" lon="2.31603">
        <ele>938</ele>
        <time>2022-05-21 23:10:29</time>
      </trkpt>
      <trkpt lat="42.21332" lon="2.31606">
        <ele>938.2</ele>
        <time>2022-05-21 23:10:30</time>
      </trkpt>
      <trkpt lat="42.21332" lon="2.3161">
        <ele>938.2</ele>
        <time>2022-05-21 23:10:31</time>
      </trkpt>
      <trkpt lat="42.21332" lon="2.31613">
        <ele>938.4</ele>
        <time>2022-05-21 23:10:32</time>
      </trkpt>
      <trkpt lat="42.21331" lon="2.31617">
        <ele>938.6</ele>
        <time>2022-05-21 23:10:33</time>
      </trkpt>
      <trkpt lat="42.21331" lon="2.31621">
        <ele>938.6</ele>
        <time>2022-05-21 23:10:34</time>
      </trkpt>
      <trkpt lat="42.21331" lon="2.31624">
        <ele>938.8</ele>
        <time>2022-05-21 23:10:35</time>
      </trkpt>
      <trkpt lat="42.2133" lon="2.31627">
        <ele>939</ele>
        <time>2022-05-21 23:10:36</time>
      </trkpt>
      <trkpt lat="42.2133" lon="2.31631">
        <ele>939.2</ele>
        <time>2022-05-21 23:10:37</time>
      </trkpt>
      <trkpt lat="42.2133" lon="2.31634">
        <ele>939.2</ele>
        <time>2022-05-21 23:10:38</time>
      </trkpt>
      <trkpt lat="42.2133" lon="2.31638">
        <ele>939.4</ele>
        <time>2022-05-21 23:10:39</time>
      </trkpt>
      <trkpt lat="42.21329" lon="2.31642">
        <ele>939.6</ele>
        <time>2022-05-21 23:10:40</time>
      </trkpt>
      <trkpt lat="42.2133" lon="2.31645">
        <ele>939.8</ele>
        <time>2022-05-21 23:10:41</time>
      </trkpt>
      <trkpt lat="42.2133" lon="2.31648">
        <ele>940</ele>
        <time>2022-05-21 23:10:42</time>
      </trkpt>
      <trkpt lat="42.21331" lon="2.31652">
        <ele>940.2</ele>
        <time>2022-05-21 23:10:43</time>
      </trkpt>
      <trkpt lat="42.21332" lon="2.31655">
        <ele>940.2</ele>
        <time>2022-05-21 23:10:44</time>
      </trkpt>
      <trkpt lat="42.21334" lon="2.31657">
        <ele>940.4</ele>
        <time>2022-05-21 23:10:45</time>
      </trkpt>
      <trkpt lat="42.21335" lon="2.3166">
        <ele>940.6</ele>
        <time>2022-05-21 23:10:46</time>
      </trkpt>
      <trkpt lat="42.21337" lon="2.31663">
        <ele>940.8</ele>
        <time>2022-05-21 23:10:47</time>
      </trkpt>
      <trkpt lat="42.21338" lon="2.31666">
        <ele>940.8</ele>
        <time>2022-05-21 23:10:48</time>
      </trkpt>
      <trkpt lat="42.2134" lon="2.31668">
        <ele>941</ele>
        <time>2022-05-21 23:10:49</time>
      </trkpt>
      <trkpt lat="42.21342" lon="2.3167">
        <ele>941.2</ele>
        <time>2022-05-21 23:10:50</time>
      </trkpt>
      <trkpt lat="42.21344" lon="2.31672">
        <ele>941.4</ele>
        <time>2022-05-21 23:10:51</time>
      </trkpt>
      <trkpt lat="42.21346" lon="2.31674">
        <ele>941.4</ele>
        <time>2022-05-21 23:10:52</time>
      </trkpt>
      <trkpt lat="42.21347" lon="2.31677">
        <ele>941.6</ele>
        <time>2022-05-21 23:10:53</time>
      </trkpt>
      <trkpt lat="42.21349" lon="2.31679">
        <ele>941.8</ele>
        <time>2022-05-21 23:10:54</time>
      </trkpt>
      <trkpt lat="42.2135" lon="2.31683">
        <ele>942</ele>
        <time>2022-05-21 23:10:55</time>
      </trkpt>
      <trkpt lat="42.21352" lon="2.31686">
        <ele>942</ele>
        <time>2022-05-21 23:10:56</time>
      </trkpt>
      <trkpt lat="42.21352" lon="2.31689">
        <ele>942.2</ele>
        <time>2022-05-21 23:10:57</time>
      </trkpt>
      <trkpt lat="42.21353" lon="2.31693">
        <ele>942.4</ele>
        <time>2022-05-21 23:10:58</time>
      </trkpt>
      <trkpt lat="42.21353" lon="2.31696">
        <ele>942.6</ele>
        <time>2022-05-21 23:10:59</time>
      </trkpt>
      <trkpt lat="42.21352" lon="2.317">
        <ele>942.8</ele>
        <time>2022-05-21 23:11:00</time>
      </trkpt>
      <trkpt lat="42.21351" lon="2.31703">
        <ele>943</ele>
        <time>2022-05-21 23:11:01</time>
      </trkpt>
      <trkpt lat="42.2135" lon="2.31706">
        <ele>943.2</ele>
        <time>2022-05-21 23:11:02</time>
      </trkpt>
      <trkpt lat="42.21348" lon="2.31709">
        <ele>943.4</ele>
        <time>2022-05-21 23:11:03</time>
      </trkpt>
      <trkpt lat="42.21347" lon="2.31712">
        <ele>943.6</ele>
        <time>2022-05-21 23:11:04</time>
      </trkpt>
      <trkpt lat="42.21345" lon="2.31715">
        <ele>943.8</ele>
        <time>2022-05-21 23:11:05</time>
      </trkpt>
      <trkpt lat="42.21344" lon="2.31717">
        <ele>944</ele>
        <time>2022-05-21 23:11:06</time>
      </trkpt>
      <trkpt lat="42.21344" lon="2.3172">
        <ele>944.2</ele>
        <time>2022-05-21 23:11:07</time>
      </trkpt>
      <trkpt lat="42.21343" lon="2.31723">
        <ele>944.2</ele>
        <time>2022-05-21 23:11:08</time>
      </trkpt>
      <trkpt lat="42.21343" lon="2.31727">
        <ele>944.4</ele>
        <time>2022-05-21 23:11:09</time>
      </trkpt>
      <trkpt lat="42.21342" lon="2.3173">
        <ele>944.6</ele>
        <time>2022-05-21 23:11:10</time>
      </trkpt>
      <trkpt lat="42.21342" lon="2.31734">
        <ele>944.8</ele>
        <time>2022-05-21 23:11:11</time>
      </trkpt>
      <trkpt lat="42.21342" lon="2.31737">
        <ele>944.8</ele>
        <time>2022-05-21 23:11:12</time>
      </trkpt>
      <trkpt lat="42.21343" lon="2.3174">
        <ele>945</ele>
        <time>2022-05-21 23:11:13</time>
      </trkpt>
      <trkpt lat="42.21344" lon="2.31743">
        <ele>945.2</ele>
        <time>2022-05-21 23:11:14</time>
      </trkpt>
      <trkpt lat="42.21345" lon="2.31746">
        <ele>945.4</ele>
        <time>2022-05-21 23:11:15</time>
      </trkpt>
      <trkpt lat="42.21346" lon="2.31749">
        <ele>945.4</ele>
        <time>2022-05-21 23:11:16</time>
      </trkpt>
      <trkpt lat="42.21348" lon="2.31751">
        <ele>945.6</ele>
        <time>2022-05-21 23:11:17</time>
      </trkpt>
      <trkpt lat="42.2135" lon="2.31754">
        <ele>945.8</ele>
        <time>2022-05-21 23:11:18</time>
      </trkpt>
      <trkpt lat="42.21352" lon="2.31756">
        <ele>946</ele>
        <time>2022-05-21 23:11:19</time>
      </trkpt>
      <trkpt lat="42.21354" lon="2.31758">
        <ele>946</ele>
        <time>2022-05-21 23:11:20</time>
      </trkpt>
      <trkpt lat="42.21356" lon="2.3176">
        <ele>946.2</ele>
        <time>2022-05-21 23:11:21</time>
      </trkpt>
      <trkpt lat="42.21357" lon="2.31763">
        <ele>946.4</ele>
        <time>2022-05-21 23:11:22</time>
      </trkpt>
      <trkpt lat="42.21359" lon="2.31766">
        <ele>946.6</ele>
        <time>2022-05-21 23:11:23</time>
      </trkpt>
      <trkpt lat="42.2136" lon="2.31769">
        <ele>946.8</ele>
        <time>2022-05-21 23:11:24</time>
      </trkpt>
      <trkpt lat="42.21362" lon="2.31772">
        <ele>947</ele>
        <time>2022-05-21 23:11:25</time>
      </trkpt>
      <trkpt lat="42.21364" lon="2.31776">
        <ele>947</ele>
        <time>2022-05-21 23:11:26</time>
      </trkpt>
      <trkpt lat="42.21366" lon="2.31779">
        <ele>947.2</ele>
        <time>2022-05-21 23:11:27</time>
      </trkpt>
      <trkpt lat="42.21367" lon="2.31783">
        <ele>947.4</ele>
        <time>2022-05-21 23:11:28</time>
      </trkpt>
      <trkpt lat="42.21369" lon="2.31786">
        <ele>947.6</ele>
        <time>2022-05-21 23:11:29</time>
      </trkpt>
      <trkpt lat="42.2137" lon="2.31789">
        <ele>947.6</ele>
        <time>2022-05-21 23:11:30</time>
      </trkpt>
      <trkpt lat="42.2137" lon="2.31793">
        <ele>947.8</ele>
        <time>2022-05-21 23:11:31</time>
      </trkpt>
      <trkpt lat="42.21371" lon="2.31797">
        <ele>947.8</ele>
        <time>2022-05-21 23:11:32</time>
      </trkpt>
      <trkpt lat="42.21371" lon="2.31801">
        <ele>948</ele>
        <time>2022-05-21 23:11:33</time>
      </trkpt>
      <trkpt lat="42.2137" lon="2.31805">
        <ele>948.2</ele>
        <time>2022-05-21 23:11:34</time>
      </trkpt>
      <trkpt lat="42.2137" lon="2.31808">
        <ele>948.2</ele>
        <time>2022-05-21 23:11:35</time>
      </trkpt>
      <trkpt lat="42.21368" lon="2.31811">
        <ele>948.4</ele>
        <time>2022-05-21 23:11:36</time>
      </trkpt>
      <trkpt lat="42.21366" lon="2.31815">
        <ele>948.4</ele>
        <time>2022-05-21 23:11:37</time>
      </trkpt>
      <trkpt lat="42.21365" lon="2.31818">
        <ele>948.6</ele>
        <time>2022-05-21 23:11:38</time>
      </trkpt>
      <trkpt lat="42.21363" lon="2.31821">
        <ele>948.8</ele>
        <time>2022-05-21 23:11:39</time>
      </trkpt>
      <trkpt lat="42.21362" lon="2.31824">
        <ele>948.8</ele>
        <time>2022-05-21 23:11:40</time>
      </trkpt>
      <trkpt lat="42.2136" lon="2.31827">
        <ele>949</ele>
        <time>2022-05-21 23:11:41</time>
      </trkpt>
      <trkpt lat="42.21359" lon="2.3183">
        <ele>949</ele>
        <time>2022-05-21 23:11:42</time>
      </trkpt>
      <trkpt lat="42.21357" lon="2.31833">
        <ele>949.2</ele>
        <time>2022-05-21 23:11:43</time>
      </trkpt>
      <trkpt lat="42.21356" lon="2.31836">
        <ele>949.4</ele>
        <time>2022-05-21 23:11:44</time>
      </trkpt>
      <trkpt lat="42.21355" lon="2.31839">
        <ele>949.4</ele>
        <time>2022-05-21 23:11:45</time>
      </trkpt>
      <trkpt lat="42.21354" lon="2.31843">
        <ele>949.6</ele>
        <time>2022-05-21 23:11:46</time>
      </trkpt>
      <trkpt lat="42.21353" lon="2.31846">
        <ele>949.6</ele>
        <time>2022-05-21 23:11:47</time>
      </trkpt>
      <trkpt lat="42.21352" lon="2.31849">
        <ele>949.8</ele>
        <time>2022-05-21 23:11:48</time>
      </trkpt>
      <trkpt lat="42.21352" lon="2.31852">
        <ele>950</ele>
        <time>2022-05-21 23:11:49</time>
      </trkpt>
      <trkpt lat="42.21351" lon="2.31855">
        <ele>950.2</ele>
        <time>2022-05-21 23:11:50</time>
      </trkpt>
      <trkpt lat="42.21351" lon="2.31858">
        <ele>950.2</ele>
        <time>2022-05-21 23:11:51</time>
      </trkpt>
      <trkpt lat="42.2135" lon="2.31861">
        <ele>950.4</ele>
        <time>2022-05-21 23:11:52</time>
      </trkpt>
      <trkpt lat="42.2135" lon="2.31864">
        <ele>950.6</ele>
        <time>2022-05-21 23:11:53</time>
      </trkpt>
      <trkpt lat="42.21349" lon="2.31867">
        <ele>950.8</ele>
        <time>2022-05-21 23:11:54</time>
      </trkpt>
      <trkpt lat="42.21349" lon="2.3187">
        <ele>951</ele>
        <time>2022-05-21 23:11:55</time>
      </trkpt>
      <trkpt lat="42.21349" lon="2.31872">
        <ele>951.2</ele>
        <time>2022-05-21 23:11:56</time>
      </trkpt>
      <trkpt lat="42.21348" lon="2.31875">
        <ele>951.4</ele>
        <time>2022-05-21 23:11:57</time>
      </trkpt>
      <trkpt lat="42.21348" lon="2.31878">
        <ele>951.4</ele>
        <time>2022-05-21 23:11:58</time>
      </trkpt>
      <trkpt lat="42.21348" lon="2.3188">
        <ele>951.6</ele>
        <time>2022-05-21 23:11:59</time>
      </trkpt>
      <trkpt lat="42.21348" lon="2.31883">
        <ele>951.8</ele>
        <time>2022-05-21 23:12:00</time>
      </trkpt>
      <trkpt lat="42.21348" lon="2.31887">
        <ele>952</ele>
        <time>2022-05-21 23:12:01</time>
      </trkpt>
      <trkpt lat="42.21348" lon="2.3189">
        <ele>952.2</ele>
        <time>2022-05-21 23:12:02</time>
      </trkpt>
      <trkpt lat="42.21349" lon="2.31893">
        <ele>952.4</ele>
        <time>2022-05-21 23:12:03</time>
      </trkpt>
      <trkpt lat="42.21349" lon="2.31897">
        <ele>952.4</ele>
        <time>2022-05-21 23:12:04</time>
      </trkpt>
      <trkpt lat="42.2135" lon="2.319">
        <ele>952.6</ele>
        <time>2022-05-21 23:12:05</time>
      </trkpt>
      <trkpt lat="42.21351" lon="2.31903">
        <ele>952.8</ele>
        <time>2022-05-21 23:12:06</time>
      </trkpt>
      <trkpt lat="42.21352" lon="2.31906">
        <ele>953</ele>
        <time>2022-05-21 23:12:07</time>
      </trkpt>
      <trkpt lat="42.21352" lon="2.31909">
        <ele>953.2</ele>
        <time>2022-05-21 23:12:08</time>
      </trkpt>
      <trkpt lat="42.21353" lon="2.31913">
        <ele>953.4</ele>
        <time>2022-05-21 23:12:09</time>
      </trkpt>
      <trkpt lat="42.21353" lon="2.31915">
        <ele>953.6</ele>
        <time>2022-05-21 23:12:10</time>
      </trkpt>
      <trkpt lat="42.21354" lon="2.31918">
        <ele>953.6</ele>
        <time>2022-05-21 23:12:11</time>
      </trkpt>
      <trkpt lat="42.21354" lon="2.31921">
        <ele>953.8</ele>
        <time>2022-05-21 23:12:12</time>
      </trkpt>
      <trkpt lat="42.21354" lon="2.31924">
        <ele>954</ele>
        <time>2022-05-21 23:12:13</time>
      </trkpt>
      <trkpt lat="42.21355" lon="2.31927">
        <ele>954.2</ele>
        <time>2022-05-21 23:12:14</time>
      </trkpt>
      <trkpt lat="42.21355" lon="2.3193">
        <ele>954.4</ele>
        <time>2022-05-21 23:12:15</time>
      </trkpt>
      <trkpt lat="42.21356" lon="2.31933">
        <ele>954.6</ele>
        <time>2022-05-21 23:12:16</time>
      </trkpt>
      <trkpt lat="42.21356" lon="2.31936">
        <ele>954.8</ele>
        <time>2022-05-21 23:12:17</time>
      </trkpt>
      <trkpt lat="42.21357" lon="2.31939">
        <ele>955</ele>
        <time>2022-05-21 23:12:18</time>
      </trkpt>
      <trkpt lat="42.21357" lon="2.31942">
        <ele>955.2</ele>
        <time>2022-05-21 23:12:19</time>
      </trkpt>
      <trkpt lat="42.21358" lon="2.31944">
        <ele>955.4</ele>
        <time>2022-05-21 23:12:20</time>
      </trkpt>
      <trkpt lat="42.21359" lon="2.31947">
        <ele>955.6</ele>
        <time>2022-05-21 23:12:21</time>
      </trkpt>
      <trkpt lat="42.2136" lon="2.3195">
        <ele>955.6</ele>
        <time>2022-05-21 23:12:22</time>
      </trkpt>
      <trkpt lat="42.21361" lon="2.31952">
        <ele>955.8</ele>
        <time>2022-05-21 23:12:23</time>
      </trkpt>
      <trkpt lat="42.21362" lon="2.31955">
        <ele>956</ele>
        <time>2022-05-21 23:12:24</time>
      </trkpt>
      <trkpt lat="42.21363" lon="2.31958">
        <ele>956.2</ele>
        <time>2022-05-21 23:12:25</time>
      </trkpt>
      <trkpt lat="42.21363" lon="2.3196">
        <ele>956.4</ele>
        <time>2022-05-21 23:12:26</time>
      </trkpt>
      <trkpt lat="42.21364" lon="2.31963">
        <ele>956.6</ele>
        <time>2022-05-21 23:12:27</time>
      </trkpt>
      <trkpt lat="42.21364" lon="2.31967">
        <ele>956.8</ele>
        <time>2022-05-21 23:12:28</time>
      </trkpt>
      <trkpt lat="42.21364" lon="2.3197">
        <ele>957</ele>
        <time>2022-05-21 23:12:29</time>
      </trkpt>
      <trkpt lat="42.21365" lon="2.31974">
        <ele>957</ele>
        <time>2022-05-21 23:12:30</time>
      </trkpt>
      <trkpt lat="42.21366" lon="2.31978">
        <ele>957.2</ele>
        <time>2022-05-21 23:12:31</time>
      </trkpt>
      <trkpt lat="42.21366" lon="2.31981">
        <ele>957.4</ele>
        <time>2022-05-21 23:12:32</time>
      </trkpt>
      <trkpt lat="42.21367" lon="2.31984">
        <ele>957.6</ele>
        <time>2022-05-21 23:12:33</time>
      </trkpt>
      <trkpt lat="42.21368" lon="2.31987">
        <ele>957.8</ele>
        <time>2022-05-21 23:12:34</time>
      </trkpt>
      <trkpt lat="42.21369" lon="2.31991">
        <ele>958</ele>
        <time>2022-05-21 23:12:35</time>
      </trkpt>
      <trkpt lat="42.21369" lon="2.31994">
        <ele>958.2</ele>
        <time>2022-05-21 23:12:36</time>
      </trkpt>
      <trkpt lat="42.2137" lon="2.31997">
        <ele>958.2</ele>
        <time>2022-05-21 23:12:37</time>
      </trkpt>
      <trkpt lat="42.21371" lon="2.32">
        <ele>958.4</ele>
        <time>2022-05-21 23:12:38</time>
      </trkpt>
      <trkpt lat="42.21372" lon="2.32003">
        <ele>958.6</ele>
        <time>2022-05-21 23:12:39</time>
      </trkpt>
      <trkpt lat="42.21373" lon="2.32006">
        <ele>958.8</ele>
        <time>2022-05-21 23:12:40</time>
      </trkpt>
      <trkpt lat="42.21374" lon="2.32009">
        <ele>959</ele>
        <time>2022-05-21 23:12:41</time>
      </trkpt>
      <trkpt lat="42.21375" lon="2.32012">
        <ele>959.2</ele>
        <time>2022-05-21 23:12:42</time>
      </trkpt>
      <trkpt lat="42.21376" lon="2.32014">
        <ele>959.4</ele>
        <time>2022-05-21 23:12:43</time>
      </trkpt>
      <trkpt lat="42.21377" lon="2.32017">
        <ele>959.4</ele>
        <time>2022-05-21 23:12:44</time>
      </trkpt>
      <trkpt lat="42.21378" lon="2.3202">
        <ele>959.6</ele>
        <time>2022-05-21 23:12:45</time>
      </trkpt>
      <trkpt lat="42.21379" lon="2.32023">
        <ele>959.8</ele>
        <time>2022-05-21 23:12:46</time>
      </trkpt>
      <trkpt lat="42.2138" lon="2.32026">
        <ele>960</ele>
        <time>2022-05-21 23:12:47</time>
      </trkpt>
      <trkpt lat="42.2138" lon="2.32029">
        <ele>960</ele>
        <time>2022-05-21 23:12:48</time>
      </trkpt>
      <trkpt lat="42.2138" lon="2.32033">
        <ele>960.2</ele>
        <time>2022-05-21 23:12:49</time>
      </trkpt>
      <trkpt lat="42.2138" lon="2.32036">
        <ele>960.4</ele>
        <time>2022-05-21 23:12:50</time>
      </trkpt>
      <trkpt lat="42.2138" lon="2.32039">
        <ele>960.6</ele>
        <time>2022-05-21 23:12:51</time>
      </trkpt>
      <trkpt lat="42.2138" lon="2.32042">
        <ele>960.8</ele>
        <time>2022-05-21 23:12:52</time>
      </trkpt>
      <trkpt lat="42.2138" lon="2.32045">
        <ele>961</ele>
        <time>2022-05-21 23:12:53</time>
      </trkpt>
      <trkpt lat="42.2138" lon="2.32048">
        <ele>961.2</ele>
        <time>2022-05-21 23:12:54</time>
      </trkpt>
      <trkpt lat="42.2138" lon="2.32051">
        <ele>961.4</ele>
        <time>2022-05-21 23:12:55</time>
      </trkpt>
      <trkpt lat="42.21379" lon="2.32055">
        <ele>961.4</ele>
        <time>2022-05-21 23:12:56</time>
      </trkpt>
      <trkpt lat="42.21378" lon="2.32058">
        <ele>961.6</ele>
        <time>2022-05-21 23:12:57</time>
      </trkpt>
      <trkpt lat="42.21378" lon="2.3206">
        <ele>961.8</ele>
        <time>2022-05-21 23:12:58</time>
      </trkpt>
      <trkpt lat="42.21377" lon="2.32063">
        <ele>962</ele>
        <time>2022-05-21 23:12:59</time>
      </trkpt>
      <trkpt lat="42.21376" lon="2.32066">
        <ele>962.2</ele>
        <time>2022-05-21 23:13:00</time>
      </trkpt>
      <trkpt lat="42.21376" lon="2.32069">
        <ele>962.4</ele>
        <time>2022-05-21 23:13:01</time>
      </trkpt>
      <trkpt lat="42.21375" lon="2.32072">
        <ele>962.4</ele>
        <time>2022-05-21 23:13:02</time>
      </trkpt>
      <trkpt lat="42.21375" lon="2.32075">
        <ele>962.6</ele>
        <time>2022-05-21 23:13:03</time>
      </trkpt>
      <trkpt lat="42.21375" lon="2.32078">
        <ele>962.8</ele>
        <time>2022-05-21 23:13:04</time>
      </trkpt>
      <trkpt lat="42.21375" lon="2.32081">
        <ele>963</ele>
        <time>2022-05-21 23:13:05</time>
      </trkpt>
      <trkpt lat="42.21375" lon="2.32084">
        <ele>963</ele>
        <time>2022-05-21 23:13:06</time>
      </trkpt>
      <trkpt lat="42.21375" lon="2.32087">
        <ele>963.2</ele>
        <time>2022-05-21 23:13:07</time>
      </trkpt>
      <trkpt lat="42.21375" lon="2.3209">
        <ele>963.4</ele>
        <time>2022-05-21 23:13:08</time>
      </trkpt>
      <trkpt lat="42.21375" lon="2.32093">
        <ele>963.6</ele>
        <time>2022-05-21 23:13:09</time>
      </trkpt>
      <trkpt lat="42.21375" lon="2.32096">
        <ele>963.6</ele>
        <time>2022-05-21 23:13:10</time>
      </trkpt>
      <trkpt lat="42.21375" lon="2.32098">
        <ele>963.8</ele>
        <time>2022-05-21 23:13:11</time>
      </trkpt>
      <trkpt lat="42.21376" lon="2.32101">
        <ele>964</ele>
        <time>2022-05-21 23:13:12</time>
      </trkpt>
      <trkpt lat="42.21376" lon="2.32104">
        <ele>964.2</ele>
        <time>2022-05-21 23:13:13</time>
      </trkpt>
      <trkpt lat="42.21376" lon="2.32107">
        <ele>964.4</ele>
        <time>2022-05-21 23:13:14</time>
      </trkpt>
      <trkpt lat="42.21377" lon="2.3211">
        <ele>964.4</ele>
        <time>2022-05-21 23:13:15</time>
      </trkpt>
      <trkpt lat="42.21377" lon="2.32112">
        <ele>964.6</ele>
        <time>2022-05-21 23:13:16</time>
      </trkpt>
      <trkpt lat="42.21377" lon="2.32115">
        <ele>964.8</ele>
        <time>2022-05-21 23:13:17</time>
      </trkpt>
      <trkpt lat="42.21378" lon="2.32118">
        <ele>965</ele>
        <time>2022-05-21 23:13:18</time>
      </trkpt>
      <trkpt lat="42.21378" lon="2.32121">
        <ele>965.2</ele>
        <time>2022-05-21 23:13:19</time>
      </trkpt>
      <trkpt lat="42.21379" lon="2.32123">
        <ele>965.2</ele>
        <time>2022-05-21 23:13:20</time>
      </trkpt>
      <trkpt lat="42.21379" lon="2.32126">
        <ele>965.4</ele>
        <time>2022-05-21 23:13:21</time>
      </trkpt>
      <trkpt lat="42.2138" lon="2.32129">
        <ele>965.6</ele>
        <time>2022-05-21 23:13:22</time>
      </trkpt>
      <trkpt lat="42.2138" lon="2.32132">
        <ele>965.8</ele>
        <time>2022-05-21 23:13:23</time>
      </trkpt>
      <trkpt lat="42.21381" lon="2.32135">
        <ele>965.8</ele>
        <time>2022-05-21 23:13:24</time>
      </trkpt>
      <trkpt lat="42.21381" lon="2.32138">
        <ele>966</ele>
        <time>2022-05-21 23:13:25</time>
      </trkpt>
      <trkpt lat="42.21382" lon="2.32142">
        <ele>966.2</ele>
        <time>2022-05-21 23:13:26</time>
      </trkpt>
      <trkpt lat="42.21383" lon="2.32145">
        <ele>966.4</ele>
        <time>2022-05-21 23:13:27</time>
      </trkpt>
      <trkpt lat="42.21383" lon="2.32147">
        <ele>966.4</ele>
        <time>2022-05-21 23:13:28</time>
      </trkpt>
      <trkpt lat="42.21383" lon="2.3215">
        <ele>966.6</ele>
        <time>2022-05-21 23:13:29</time>
      </trkpt>
      <trkpt lat="42.21384" lon="2.32153">
        <ele>966.8</ele>
        <time>2022-05-21 23:13:30</time>
      </trkpt>
      <trkpt lat="42.21384" lon="2.32156">
        <ele>967</ele>
        <time>2022-05-21 23:13:31</time>
      </trkpt>
      <trkpt lat="42.21385" lon="2.32159">
        <ele>967</ele>
        <time>2022-05-21 23:13:32</time>
      </trkpt>
      <trkpt lat="42.21385" lon="2.32163">
        <ele>967.2</ele>
        <time>2022-05-21 23:13:33</time>
      </trkpt>
      <trkpt lat="42.21385" lon="2.32166">
        <ele>967.4</ele>
        <time>2022-05-21 23:13:34</time>
      </trkpt>
      <trkpt lat="42.21386" lon="2.32169">
        <ele>967.6</ele>
        <time>2022-05-21 23:13:35</time>
      </trkpt>
      <trkpt lat="42.21387" lon="2.32172">
        <ele>967.8</ele>
        <time>2022-05-21 23:13:36</time>
      </trkpt>
      <trkpt lat="42.21387" lon="2.32174">
        <ele>967.8</ele>
        <time>2022-05-21 23:13:37</time>
      </trkpt>
      <trkpt lat="42.21388" lon="2.32177">
        <ele>968</ele>
        <time>2022-05-21 23:13:38</time>
      </trkpt>
      <trkpt lat="42.21389" lon="2.32181">
        <ele>968.2</ele>
        <time>2022-05-21 23:13:39</time>
      </trkpt>
      <trkpt lat="42.21389" lon="2.32184">
        <ele>968.4</ele>
        <time>2022-05-21 23:13:40</time>
      </trkpt>
      <trkpt lat="42.2139" lon="2.32187">
        <ele>968.6</ele>
        <time>2022-05-21 23:13:41</time>
      </trkpt>
      <trkpt lat="42.21391" lon="2.3219">
        <ele>968.8</ele>
        <time>2022-05-21 23:13:42</time>
      </trkpt>
      <trkpt lat="42.21391" lon="2.32193">
        <ele>969</ele>
        <time>2022-05-21 23:13:43</time>
      </trkpt>
      <trkpt lat="42.21392" lon="2.32196">
        <ele>969</ele>
        <time>2022-05-21 23:13:44</time>
      </trkpt>
      <trkpt lat="42.21392" lon="2.32199">
        <ele>969.2</ele>
        <time>2022-05-21 23:13:45</time>
      </trkpt>
      <trkpt lat="42.21393" lon="2.32202">
        <ele>969.4</ele>
        <time>2022-05-21 23:13:46</time>
      </trkpt>
      <trkpt lat="42.21393" lon="2.32205">
        <ele>969.6</ele>
        <time>2022-05-21 23:13:47</time>
      </trkpt>
      <trkpt lat="42.21394" lon="2.32208">
        <ele>969.6</ele>
        <time>2022-05-21 23:13:48</time>
      </trkpt>
      <trkpt lat="42.21394" lon="2.32212">
        <ele>969.8</ele>
        <time>2022-05-21 23:13:49</time>
      </trkpt>
      <trkpt lat="42.21394" lon="2.32215">
        <ele>970</ele>
        <time>2022-05-21 23:13:50</time>
      </trkpt>
      <trkpt lat="42.21394" lon="2.32218">
        <ele>970.2</ele>
        <time>2022-05-21 23:13:51</time>
      </trkpt>
      <trkpt lat="42.21394" lon="2.32221">
        <ele>970.2</ele>
        <time>2022-05-21 23:13:52</time>
      </trkpt>
      <trkpt lat="42.21394" lon="2.32225">
        <ele>970.4</ele>
        <time>2022-05-21 23:13:53</time>
      </trkpt>
      <trkpt lat="42.21394" lon="2.32228">
        <ele>970.6</ele>
        <time>2022-05-21 23:13:54</time>
      </trkpt>
      <trkpt lat="42.21393" lon="2.32231">
        <ele>970.8</ele>
        <time>2022-05-21 23:13:55</time>
      </trkpt>
      <trkpt lat="42.21393" lon="2.32235">
        <ele>971</ele>
        <time>2022-05-21 23:13:56</time>
      </trkpt>
      <trkpt lat="42.21393" lon="2.32238">
        <ele>971</ele>
        <time>2022-05-21 23:13:57</time>
      </trkpt>
      <trkpt lat="42.21393" lon="2.32241">
        <ele>971.2</ele>
        <time>2022-05-21 23:13:58</time>
      </trkpt>
      <trkpt lat="42.21392" lon="2.32244">
        <ele>971.4</ele>
        <time>2022-05-21 23:13:59</time>
      </trkpt>
      <trkpt lat="42.21392" lon="2.32247">
        <ele>971.6</ele>
        <time>2022-05-21 23:14:00</time>
      </trkpt>
      <trkpt lat="42.21392" lon="2.3225">
        <ele>971.8</ele>
        <time>2022-05-21 23:14:01</time>
      </trkpt>
      <trkpt lat="42.21392" lon="2.32253">
        <ele>972</ele>
        <time>2022-05-21 23:14:02</time>
      </trkpt>
      <trkpt lat="42.21393" lon="2.32256">
        <ele>972.2</ele>
        <time>2022-05-21 23:14:03</time>
      </trkpt>
      <trkpt lat="42.21393" lon="2.32259">
        <ele>972.4</ele>
        <time>2022-05-21 23:14:04</time>
      </trkpt>
      <trkpt lat="42.21394" lon="2.32261">
        <ele>972.6</ele>
        <time>2022-05-21 23:14:05</time>
      </trkpt>
      <trkpt lat="42.21395" lon="2.32264">
        <ele>972.8</ele>
        <time>2022-05-21 23:14:06</time>
      </trkpt>
      <trkpt lat="42.21397" lon="2.32266">
        <ele>973</ele>
        <time>2022-05-21 23:14:07</time>
      </trkpt>
      <trkpt lat="42.21398" lon="2.32267">
        <ele>973</ele>
        <time>2022-05-21 23:14:08</time>
      </trkpt>
      <trkpt lat="42.214" lon="2.32268">
        <ele>973.2</ele>
        <time>2022-05-21 23:14:09</time>
      </trkpt>
      <trkpt lat="42.21402" lon="2.32268">
        <ele>973.4</ele>
        <time>2022-05-21 23:14:10</time>
      </trkpt>
      <trkpt lat="42.21404" lon="2.32269">
        <ele>973.6</ele>
        <time>2022-05-21 23:14:11</time>
      </trkpt>
      <trkpt lat="42.21406" lon="2.32269">
        <ele>973.8</ele>
        <time>2022-05-21 23:14:12</time>
      </trkpt>
      <trkpt lat="42.21407" lon="2.32269">
        <ele>974</ele>
        <time>2022-05-21 23:14:13</time>
      </trkpt>
      <trkpt lat="42.2141" lon="2.32269">
        <ele>974.2</ele>
        <time>2022-05-21 23:14:14</time>
      </trkpt>
      <trkpt lat="42.21412" lon="2.32269">
        <ele>974.2</ele>
        <time>2022-05-21 23:14:15</time>
      </trkpt>
      <trkpt lat="42.21414" lon="2.32269">
        <ele>974.4</ele>
        <time>2022-05-21 23:14:16</time>
      </trkpt>
      <trkpt lat="42.21416" lon="2.32269">
        <ele>974.6</ele>
        <time>2022-05-21 23:14:17</time>
      </trkpt>
      <trkpt lat="42.21418" lon="2.32269">
        <ele>974.8</ele>
        <time>2022-05-21 23:14:18</time>
      </trkpt>
      <trkpt lat="42.2142" lon="2.32269">
        <ele>975</ele>
        <time>2022-05-21 23:14:19</time>
      </trkpt>
      <trkpt lat="42.21422" lon="2.32269">
        <ele>975.2</ele>
        <time>2022-05-21 23:14:20</time>
      </trkpt>
      <trkpt lat="42.21424" lon="2.3227">
        <ele>975.4</ele>
        <time>2022-05-21 23:14:21</time>
      </trkpt>
      <trkpt lat="42.21426" lon="2.3227">
        <ele>975.4</ele>
        <time>2022-05-21 23:14:22</time>
      </trkpt>
      <trkpt lat="42.21428" lon="2.32271">
        <ele>975.6</ele>
        <time>2022-05-21 23:14:23</time>
      </trkpt>
      <trkpt lat="42.2143" lon="2.32272">
        <ele>975.8</ele>
        <time>2022-05-21 23:14:24</time>
      </trkpt>
      <trkpt lat="42.21433" lon="2.32273">
        <ele>976</ele>
        <time>2022-05-21 23:14:25</time>
      </trkpt>
      <trkpt lat="42.21435" lon="2.32274">
        <ele>976.2</ele>
        <time>2022-05-21 23:14:26</time>
      </trkpt>
      <trkpt lat="42.21437" lon="2.32275">
        <ele>976.4</ele>
        <time>2022-05-21 23:14:27</time>
      </trkpt>
      <trkpt lat="42.21439" lon="2.32276">
        <ele>976.6</ele>
        <time>2022-05-21 23:14:28</time>
      </trkpt>
      <trkpt lat="42.21441" lon="2.32278">
        <ele>976.8</ele>
        <time>2022-05-21 23:14:29</time>
      </trkpt>
      <trkpt lat="42.21443" lon="2.3228">
        <ele>977</ele>
        <time>2022-05-21 23:14:30</time>
      </trkpt>
      <trkpt lat="42.21445" lon="2.32282">
        <ele>977.2</ele>
        <time>2022-05-21 23:14:31</time>
      </trkpt>
      <trkpt lat="42.21447" lon="2.32284">
        <ele>977.4</ele>
        <time>2022-05-21 23:14:32</time>
      </trkpt>
      <trkpt lat="42.21448" lon="2.32287">
        <ele>977.4</ele>
        <time>2022-05-21 23:14:33</time>
      </trkpt>
      <trkpt lat="42.21449" lon="2.3229">
        <ele>977.6</ele>
        <time>2022-05-21 23:14:34</time>
      </trkpt>
      <trkpt lat="42.2145" lon="2.32292">
        <ele>977.8</ele>
        <time>2022-05-21 23:14:35</time>
      </trkpt>
      <trkpt lat="42.21451" lon="2.32295">
        <ele>978</ele>
        <time>2022-05-21 23:14:36</time>
      </trkpt>
      <trkpt lat="42.21451" lon="2.32298">
        <ele>978</ele>
        <time>2022-05-21 23:14:37</time>
      </trkpt>
      <trkpt lat="42.21451" lon="2.32302">
        <ele>978.2</ele>
        <time>2022-05-21 23:14:38</time>
      </trkpt>
      <trkpt lat="42.2145" lon="2.32305">
        <ele>978.4</ele>
        <time>2022-05-21 23:14:39</time>
      </trkpt>
      <trkpt lat="42.2145" lon="2.32308">
        <ele>978.6</ele>
        <time>2022-05-21 23:14:40</time>
      </trkpt>
      <trkpt lat="42.21449" lon="2.32311">
        <ele>978.8</ele>
        <time>2022-05-21 23:14:41</time>
      </trkpt>
      <trkpt lat="42.21449" lon="2.32314">
        <ele>978.8</ele>
        <time>2022-05-21 23:14:42</time>
      </trkpt>
      <trkpt lat="42.21448" lon="2.32317">
        <ele>979</ele>
        <time>2022-05-21 23:14:43</time>
      </trkpt>
      <trkpt lat="42.21447" lon="2.3232">
        <ele>979.2</ele>
        <time>2022-05-21 23:14:44</time>
      </trkpt>
      <trkpt lat="42.21447" lon="2.32323">
        <ele>979.4</ele>
        <time>2022-05-21 23:14:45</time>
      </trkpt>
      <trkpt lat="42.21446" lon="2.32326">
        <ele>979.6</ele>
        <time>2022-05-21 23:14:46</time>
      </trkpt>
      <trkpt lat="42.21446" lon="2.32328">
        <ele>979.6</ele>
        <time>2022-05-21 23:14:47</time>
      </trkpt>
      <trkpt lat="42.21445" lon="2.32331">
        <ele>979.8</ele>
        <time>2022-05-21 23:14:48</time>
      </trkpt>
      <trkpt lat="42.21445" lon="2.32334">
        <ele>980</ele>
        <time>2022-05-21 23:14:49</time>
      </trkpt>
      <trkpt lat="42.21444" lon="2.32336">
        <ele>980.2</ele>
        <time>2022-05-21 23:14:50</time>
      </trkpt>
      <trkpt lat="42.21443" lon="2.32339">
        <ele>980.4</ele>
        <time>2022-05-21 23:14:51</time>
      </trkpt>
      <trkpt lat="42.21442" lon="2.32342">
        <ele>980.6</ele>
        <time>2022-05-21 23:14:52</time>
      </trkpt>
      <trkpt lat="42.21441" lon="2.32344">
        <ele>980.8</ele>
        <time>2022-05-21 23:14:53</time>
      </trkpt>
      <trkpt lat="42.2144" lon="2.32347">
        <ele>980.8</ele>
        <time>2022-05-21 23:14:54</time>
      </trkpt>
      <trkpt lat="42.21439" lon="2.32349">
        <ele>981</ele>
        <time>2022-05-21 23:14:55</time>
      </trkpt>
      <trkpt lat="42.21437" lon="2.32352">
        <ele>981.2</ele>
        <time>2022-05-21 23:14:56</time>
      </trkpt>
      <trkpt lat="42.21437" lon="2.32355">
        <ele>981.4</ele>
        <time>2022-05-21 23:14:57</time>
      </trkpt>
      <trkpt lat="42.21436" lon="2.32357">
        <ele>981.6</ele>
        <time>2022-05-21 23:14:58</time>
      </trkpt>
      <trkpt lat="42.21435" lon="2.3236">
        <ele>981.8</ele>
        <time>2022-05-21 23:14:59</time>
      </trkpt>
      <trkpt lat="42.21434" lon="2.32363">
        <ele>981.8</ele>
        <time>2022-05-21 23:15:00</time>
      </trkpt>
      <trkpt lat="42.21433" lon="2.32366">
        <ele>982</ele>
        <time>2022-05-21 23:15:01</time>
      </trkpt>
      <trkpt lat="42.21432" lon="2.32369">
        <ele>982.2</ele>
        <time>2022-05-21 23:15:02</time>
      </trkpt>
      <trkpt lat="42.21431" lon="2.32372">
        <ele>982.4</ele>
        <time>2022-05-21 23:15:03</time>
      </trkpt>
      <trkpt lat="42.2143" lon="2.32375">
        <ele>982.6</ele>
        <time>2022-05-21 23:15:04</time>
      </trkpt>
      <trkpt lat="42.21429" lon="2.32378">
        <ele>982.8</ele>
        <time>2022-05-21 23:15:05</time>
      </trkpt>
      <trkpt lat="42.21429" lon="2.32381">
        <ele>982.8</ele>
        <time>2022-05-21 23:15:06</time>
      </trkpt>
      <trkpt lat="42.21428" lon="2.32384">
        <ele>983</ele>
        <time>2022-05-21 23:15:07</time>
      </trkpt>
      <trkpt lat="42.21427" lon="2.32386">
        <ele>983.2</ele>
        <time>2022-05-21 23:15:08</time>
      </trkpt>
      <trkpt lat="42.21426" lon="2.32389">
        <ele>983.4</ele>
        <time>2022-05-21 23:15:09</time>
      </trkpt>
      <trkpt lat="42.21425" lon="2.32392">
        <ele>983.6</ele>
        <time>2022-05-21 23:15:10</time>
      </trkpt>
      <trkpt lat="42.21425" lon="2.32395">
        <ele>983.8</ele>
        <time>2022-05-21 23:15:11</time>
      </trkpt>
      <trkpt lat="42.21424" lon="2.32397">
        <ele>983.8</ele>
        <time>2022-05-21 23:15:12</time>
      </trkpt>
      <trkpt lat="42.21423" lon="2.324">
        <ele>984</ele>
        <time>2022-05-21 23:15:13</time>
      </trkpt>
      <trkpt lat="42.21423" lon="2.32402">
        <ele>984.2</ele>
        <time>2022-05-21 23:15:14</time>
      </trkpt>
      <trkpt lat="42.21422" lon="2.32405">
        <ele>984.4</ele>
        <time>2022-05-21 23:15:15</time>
      </trkpt>
      <trkpt lat="42.21422" lon="2.32408">
        <ele>984.6</ele>
        <time>2022-05-21 23:15:16</time>
      </trkpt>
      <trkpt lat="42.21423" lon="2.32411">
        <ele>984.8</ele>
        <time>2022-05-21 23:15:17</time>
      </trkpt>
      <trkpt lat="42.21423" lon="2.32414">
        <ele>985</ele>
        <time>2022-05-21 23:15:18</time>
      </trkpt>
      <trkpt lat="42.21424" lon="2.32417">
        <ele>985.2</ele>
        <time>2022-05-21 23:15:19</time>
      </trkpt>
      <trkpt lat="42.21424" lon="2.3242">
        <ele>985.4</ele>
        <time>2022-05-21 23:15:20</time>
      </trkpt>
      <trkpt lat="42.21425" lon="2.32422">
        <ele>985.4</ele>
        <time>2022-05-21 23:15:21</time>
      </trkpt>
      <trkpt lat="42.21426" lon="2.32425">
        <ele>985.6</ele>
        <time>2022-05-21 23:15:22</time>
      </trkpt>
      <trkpt lat="42.21427" lon="2.32427">
        <ele>985.8</ele>
        <time>2022-05-21 23:15:23</time>
      </trkpt>
      <trkpt lat="42.21428" lon="2.32429">
        <ele>985.8</ele>
        <time>2022-05-21 23:15:24</time>
      </trkpt>
      <trkpt lat="42.21429" lon="2.32431">
        <ele>986</ele>
        <time>2022-05-21 23:15:25</time>
      </trkpt>
      <trkpt lat="42.2143" lon="2.32434">
        <ele>986.2</ele>
        <time>2022-05-21 23:15:26</time>
      </trkpt>
      <trkpt lat="42.21432" lon="2.32436">
        <ele>986.4</ele>
        <time>2022-05-21 23:15:27</time>
      </trkpt>
      <trkpt lat="42.21433" lon="2.32437">
        <ele>986.6</ele>
        <time>2022-05-21 23:15:28</time>
      </trkpt>
      <trkpt lat="42.21435" lon="2.32439">
        <ele>986.6</ele>
        <time>2022-05-21 23:15:29</time>
      </trkpt>
      <trkpt lat="42.21436" lon="2.32441">
        <ele>986.8</ele>
        <time>2022-05-21 23:15:30</time>
      </trkpt>
      <trkpt lat="42.21437" lon="2.32443">
        <ele>987</ele>
        <time>2022-05-21 23:15:31</time>
      </trkpt>
      <trkpt lat="42.21439" lon="2.32445">
        <ele>987.2</ele>
        <time>2022-05-21 23:15:32</time>
      </trkpt>
      <trkpt lat="42.2144" lon="2.32447">
        <ele>987.2</ele>
        <time>2022-05-21 23:15:33</time>
      </trkpt>
      <trkpt lat="42.21441" lon="2.3245">
        <ele>987.4</ele>
        <time>2022-05-21 23:15:34</time>
      </trkpt>
      <trkpt lat="42.21443" lon="2.32452">
        <ele>987.6</ele>
        <time>2022-05-21 23:15:35</time>
      </trkpt>
      <trkpt lat="42.21444" lon="2.32455">
        <ele>987.8</ele>
        <time>2022-05-21 23:15:36</time>
      </trkpt>
      <trkpt lat="42.21446" lon="2.32458">
        <ele>987.8</ele>
        <time>2022-05-21 23:15:37</time>
      </trkpt>
      <trkpt lat="42.21447" lon="2.32461">
        <ele>988</ele>
        <time>2022-05-21 23:15:38</time>
      </trkpt>
      <trkpt lat="42.21448" lon="2.32464">
        <ele>988.2</ele>
        <time>2022-05-21 23:15:39</time>
      </trkpt>
      <trkpt lat="42.21449" lon="2.32467">
        <ele>988.4</ele>
        <time>2022-05-21 23:15:40</time>
      </trkpt>
      <trkpt lat="42.2145" lon="2.3247">
        <ele>988.6</ele>
        <time>2022-05-21 23:15:41</time>
      </trkpt>
      <trkpt lat="42.21451" lon="2.32473">
        <ele>988.6</ele>
        <time>2022-05-21 23:15:42</time>
      </trkpt>
      <trkpt lat="42.21451" lon="2.32476">
        <ele>988.8</ele>
        <time>2022-05-21 23:15:43</time>
      </trkpt>
      <trkpt lat="42.21451" lon="2.32479">
        <ele>989</ele>
        <time>2022-05-21 23:15:44</time>
      </trkpt>
      <trkpt lat="42.21451" lon="2.32482">
        <ele>989.2</ele>
        <time>2022-05-21 23:15:45</time>
      </trkpt>
      <trkpt lat="42.21451" lon="2.32485">
        <ele>989.2</ele>
        <time>2022-05-21 23:15:46</time>
      </trkpt>
      <trkpt lat="42.2145" lon="2.32488">
        <ele>989.4</ele>
        <time>2022-05-21 23:15:47</time>
      </trkpt>
      <trkpt lat="42.2145" lon="2.32491">
        <ele>989.6</ele>
        <time>2022-05-21 23:15:48</time>
      </trkpt>
      <trkpt lat="42.21449" lon="2.32494">
        <ele>989.8</ele>
        <time>2022-05-21 23:15:49</time>
      </trkpt>
      <trkpt lat="42.21448" lon="2.32497">
        <ele>990</ele>
        <time>2022-05-21 23:15:50</time>
      </trkpt>
      <trkpt lat="42.21446" lon="2.32499">
        <ele>990.2</ele>
        <time>2022-05-21 23:15:51</time>
      </trkpt>
      <trkpt lat="42.21445" lon="2.32501">
        <ele>990.2</ele>
        <time>2022-05-21 23:15:52</time>
      </trkpt>
      <trkpt lat="42.21443" lon="2.32504">
        <ele>990.4</ele>
        <time>2022-05-21 23:15:53</time>
      </trkpt>
      <trkpt lat="42.21442" lon="2.32506">
        <ele>990.6</ele>
        <time>2022-05-21 23:15:54</time>
      </trkpt>
      <trkpt lat="42.2144" lon="2.32508">
        <ele>990.8</ele>
        <time>2022-05-21 23:15:55</time>
      </trkpt>
      <trkpt lat="42.21439" lon="2.3251">
        <ele>990.8</ele>
        <time>2022-05-21 23:15:56</time>
      </trkpt>
      <trkpt lat="42.21437" lon="2.32512">
        <ele>991</ele>
        <time>2022-05-21 23:15:57</time>
      </trkpt>
      <trkpt lat="42.21435" lon="2.32513">
        <ele>991.2</ele>
        <time>2022-05-21 23:15:58</time>
      </trkpt>
      <trkpt lat="42.21434" lon="2.32514">
        <ele>991.4</ele>
        <time>2022-05-21 23:15:59</time>
      </trkpt>
      <trkpt lat="42.21432" lon="2.32516">
        <ele>991.4</ele>
        <time>2022-05-21 23:16:00</time>
      </trkpt>
      <trkpt lat="42.2143" lon="2.32517">
        <ele>991.6</ele>
        <time>2022-05-21 23:16:01</time>
      </trkpt>
      <trkpt lat="42.21428" lon="2.32518">
        <ele>991.8</ele>
        <time>2022-05-21 23:16:02</time>
      </trkpt>
      <trkpt lat="42.21427" lon="2.32519">
        <ele>992</ele>
        <time>2022-05-21 23:16:03</time>
      </trkpt>
      <trkpt lat="42.21425" lon="2.32521">
        <ele>992.2</ele>
        <time>2022-05-21 23:16:04</time>
      </trkpt>
      <trkpt lat="42.21424" lon="2.32522">
        <ele>992.4</ele>
        <time>2022-05-21 23:16:05</time>
      </trkpt>
      <trkpt lat="42.21422" lon="2.32524">
        <ele>992.4</ele>
        <time>2022-05-21 23:16:06</time>
      </trkpt>
      <trkpt lat="42.21421" lon="2.32526">
        <ele>992.6</ele>
        <time>2022-05-21 23:16:07</time>
      </trkpt>
      <trkpt lat="42.21419" lon="2.32528">
        <ele>992.8</ele>
        <time>2022-05-21 23:16:08</time>
      </trkpt>
      <trkpt lat="42.21418" lon="2.3253">
        <ele>992.8</ele>
        <time>2022-05-21 23:16:09</time>
      </trkpt>
      <trkpt lat="42.21416" lon="2.32532">
        <ele>993</ele>
        <time>2022-05-21 23:16:10</time>
      </trkpt>
      <trkpt lat="42.21415" lon="2.32534">
        <ele>993.2</ele>
        <time>2022-05-21 23:16:11</time>
      </trkpt>
      <trkpt lat="42.21414" lon="2.32536">
        <ele>993.4</ele>
        <time>2022-05-21 23:16:12</time>
      </trkpt>
      <trkpt lat="42.21413" lon="2.32538">
        <ele>993.4</ele>
        <time>2022-05-21 23:16:13</time>
      </trkpt>
      <trkpt lat="42.21413" lon="2.3254">
        <ele>993.6</ele>
        <time>2022-05-21 23:16:14</time>
      </trkpt>
      <trkpt lat="42.21412" lon="2.32543">
        <ele>993.8</ele>
        <time>2022-05-21 23:16:15</time>
      </trkpt>
      <trkpt lat="42.21412" lon="2.32546">
        <ele>994</ele>
        <time>2022-05-21 23:16:16</time>
      </trkpt>
      <trkpt lat="42.21411" lon="2.32548">
        <ele>994</ele>
        <time>2022-05-21 23:16:17</time>
      </trkpt>
      <trkpt lat="42.21411" lon="2.32551">
        <ele>994.2</ele>
        <time>2022-05-21 23:16:18</time>
      </trkpt>
      <trkpt lat="42.21411" lon="2.32554">
        <ele>994.4</ele>
        <time>2022-05-21 23:16:19</time>
      </trkpt>
      <trkpt lat="42.2141" lon="2.32556">
        <ele>994.4</ele>
        <time>2022-05-21 23:16:20</time>
      </trkpt>
      <trkpt lat="42.21409" lon="2.3256">
        <ele>994.6</ele>
        <time>2022-05-21 23:16:21</time>
      </trkpt>
      <trkpt lat="42.21408" lon="2.32563">
        <ele>994.8</ele>
        <time>2022-05-21 23:16:22</time>
      </trkpt>
      <trkpt lat="42.21408" lon="2.32567">
        <ele>995</ele>
        <time>2022-05-21 23:16:23</time>
      </trkpt>
      <trkpt lat="42.21407" lon="2.3257">
        <ele>995</ele>
        <time>2022-05-21 23:16:24</time>
      </trkpt>
      <trkpt lat="42.21407" lon="2.32574">
        <ele>995.2</ele>
        <time>2022-05-21 23:16:25</time>
      </trkpt>
      <trkpt lat="42.21407" lon="2.32577">
        <ele>995.4</ele>
        <time>2022-05-21 23:16:26</time>
      </trkpt>
      <trkpt lat="42.21407" lon="2.3258">
        <ele>995.4</ele>
        <time>2022-05-21 23:16:27</time>
      </trkpt>
      <trkpt lat="42.21408" lon="2.32582">
        <ele>995.6</ele>
        <time>2022-05-21 23:16:28</time>
      </trkpt>
      <trkpt lat="42.21409" lon="2.32585">
        <ele>995.8</ele>
        <time>2022-05-21 23:16:29</time>
      </trkpt>
      <trkpt lat="42.2141" lon="2.32587">
        <ele>995.8</ele>
        <time>2022-05-21 23:16:30</time>
      </trkpt>
      <trkpt lat="42.21411" lon="2.3259">
        <ele>996</ele>
        <time>2022-05-21 23:16:31</time>
      </trkpt>
      <trkpt lat="42.21412" lon="2.32592">
        <ele>996.2</ele>
        <time>2022-05-21 23:16:32</time>
      </trkpt>
      <trkpt lat="42.21413" lon="2.32594">
        <ele>996.2</ele>
        <time>2022-05-21 23:16:33</time>
      </trkpt>
      <trkpt lat="42.21414" lon="2.32595">
        <ele>996.4</ele>
        <time>2022-05-21 23:16:34</time>
      </trkpt>
      <trkpt lat="42.21416" lon="2.32597">
        <ele>996.6</ele>
        <time>2022-05-21 23:16:35</time>
      </trkpt>
      <trkpt lat="42.21417" lon="2.32598">
        <ele>996.8</ele>
        <time>2022-05-21 23:16:36</time>
      </trkpt>
      <trkpt lat="42.21418" lon="2.326">
        <ele>996.8</ele>
        <time>2022-05-21 23:16:37</time>
      </trkpt>
      <trkpt lat="42.2142" lon="2.32601">
        <ele>997</ele>
        <time>2022-05-21 23:16:38</time>
      </trkpt>
      <trkpt lat="42.21421" lon="2.32603">
        <ele>997.2</ele>
        <time>2022-05-21 23:16:39</time>
      </trkpt>
      <trkpt lat="42.21423" lon="2.32604">
        <ele>997.2</ele>
        <time>2022-05-21 23:16:40</time>
      </trkpt>
      <trkpt lat="42.21424" lon="2.32605">
        <ele>997.4</ele>
        <time>2022-05-21 23:16:41</time>
      </trkpt>
      <trkpt lat="42.21426" lon="2.32606">
        <ele>997.6</ele>
        <time>2022-05-21 23:16:42</time>
      </trkpt>
      <trkpt lat="42.21427" lon="2.32608">
        <ele>997.6</ele>
        <time>2022-05-21 23:16:43</time>
      </trkpt>
      <trkpt lat="42.21428" lon="2.32609">
        <ele>997.8</ele>
        <time>2022-05-21 23:16:44</time>
      </trkpt>
      <trkpt lat="42.21429" lon="2.32611">
        <ele>998</ele>
        <time>2022-05-21 23:16:45</time>
      </trkpt>
      <trkpt lat="42.21431" lon="2.32612">
        <ele>998.2</ele>
        <time>2022-05-21 23:16:46</time>
      </trkpt>
      <trkpt lat="42.21432" lon="2.32614">
        <ele>998.2</ele>
        <time>2022-05-21 23:16:47</time>
      </trkpt>
      <trkpt lat="42.21434" lon="2.32616">
        <ele>998.4</ele>
        <time>2022-05-21 23:16:48</time>
      </trkpt>
      <trkpt lat="42.21436" lon="2.32618">
        <ele>998.6</ele>
        <time>2022-05-21 23:16:49</time>
      </trkpt>
      <trkpt lat="42.21438" lon="2.3262">
        <ele>998.8</ele>
        <time>2022-05-21 23:16:50</time>
      </trkpt>
      <trkpt lat="42.21439" lon="2.32621">
        <ele>999</ele>
        <time>2022-05-21 23:16:51</time>
      </trkpt>
      <trkpt lat="42.21441" lon="2.32623">
        <ele>999.2</ele>
        <time>2022-05-21 23:16:52</time>
      </trkpt>
      <trkpt lat="42.21443" lon="2.32625">
        <ele>999.2</ele>
        <time>2022-05-21 23:16:53</time>
      </trkpt>
      <trkpt lat="42.21444" lon="2.32627">
        <ele>999.4</ele>
        <time>2022-05-21 23:16:54</time>
      </trkpt>
      <trkpt lat="42.21445" lon="2.32629">
        <ele>999.6</ele>
        <time>2022-05-21 23:16:55</time>
      </trkpt>
      <trkpt lat="42.21447" lon="2.32631">
        <ele>999.6</ele>
        <time>2022-05-21 23:16:56</time>
      </trkpt>
      <trkpt lat="42.21448" lon="2.32634">
        <ele>999.8</ele>
        <time>2022-05-21 23:16:57</time>
      </trkpt>
      <trkpt lat="42.21449" lon="2.32637">
        <ele>1000</ele>
        <time>2022-05-21 23:16:58</time>
      </trkpt>
      <trkpt lat="42.2145" lon="2.32639">
        <ele>1000.2</ele>
        <time>2022-05-21 23:16:59</time>
      </trkpt>
      <trkpt lat="42.21451" lon="2.32642">
        <ele>1000.4</ele>
        <time>2022-05-21 23:17:00</time>
      </trkpt>
      <trkpt lat="42.21451" lon="2.32646">
        <ele>1000.6</ele>
        <time>2022-05-21 23:17:01</time>
      </trkpt>
      <trkpt lat="42.2145" lon="2.32649">
        <ele>1000.8</ele>
        <time>2022-05-21 23:17:02</time>
      </trkpt>
      <trkpt lat="42.2145" lon="2.32652">
        <ele>1001</ele>
        <time>2022-05-21 23:17:03</time>
      </trkpt>
      <trkpt lat="42.21449" lon="2.32655">
        <ele>1001</ele>
        <time>2022-05-21 23:17:04</time>
      </trkpt>
      <trkpt lat="42.21449" lon="2.32658">
        <ele>1001.2</ele>
        <time>2022-05-21 23:17:05</time>
      </trkpt>
      <trkpt lat="42.21449" lon="2.32662">
        <ele>1001.4</ele>
        <time>2022-05-21 23:17:06</time>
      </trkpt>
      <trkpt lat="42.21448" lon="2.32665">
        <ele>1001.6</ele>
        <time>2022-05-21 23:17:07</time>
      </trkpt>
      <trkpt lat="42.21447" lon="2.32668">
        <ele>1001.8</ele>
        <time>2022-05-21 23:17:08</time>
      </trkpt>
      <trkpt lat="42.21446" lon="2.32671">
        <ele>1002</ele>
        <time>2022-05-21 23:17:09</time>
      </trkpt>
      <trkpt lat="42.21446" lon="2.32674">
        <ele>1002</ele>
        <time>2022-05-21 23:17:10</time>
      </trkpt>
      <trkpt lat="42.21445" lon="2.32677">
        <ele>1002.2</ele>
        <time>2022-05-21 23:17:11</time>
      </trkpt>
      <trkpt lat="42.21444" lon="2.3268">
        <ele>1002.4</ele>
        <time>2022-05-21 23:17:12</time>
      </trkpt>
      <trkpt lat="42.21444" lon="2.32683">
        <ele>1002.6</ele>
        <time>2022-05-21 23:17:13</time>
      </trkpt>
      <trkpt lat="42.21443" lon="2.32686">
        <ele>1002.6</ele>
        <time>2022-05-21 23:17:14</time>
      </trkpt>
      <trkpt lat="42.21443" lon="2.32689">
        <ele>1002.8</ele>
        <time>2022-05-21 23:17:15</time>
      </trkpt>
      <trkpt lat="42.21443" lon="2.32692">
        <ele>1003</ele>
        <time>2022-05-21 23:17:16</time>
      </trkpt>
      <trkpt lat="42.21442" lon="2.32695">
        <ele>1003.2</ele>
        <time>2022-05-21 23:17:17</time>
      </trkpt>
      <trkpt lat="42.21442" lon="2.32698">
        <ele>1003.4</ele>
        <time>2022-05-21 23:17:18</time>
      </trkpt>
      <trkpt lat="42.21441" lon="2.32701">
        <ele>1003.6</ele>
        <time>2022-05-21 23:17:19</time>
      </trkpt>
      <trkpt lat="42.21441" lon="2.32704">
        <ele>1003.8</ele>
        <time>2022-05-21 23:17:20</time>
      </trkpt>
      <trkpt lat="42.21441" lon="2.32707">
        <ele>1004</ele>
        <time>2022-05-21 23:17:21</time>
      </trkpt>
      <trkpt lat="42.2144" lon="2.3271">
        <ele>1004</ele>
        <time>2022-05-21 23:17:22</time>
      </trkpt>
      <trkpt lat="42.2144" lon="2.32714">
        <ele>1004.2</ele>
        <time>2022-05-21 23:17:23</time>
      </trkpt>
      <trkpt lat="42.2144" lon="2.32716">
        <ele>1004.4</ele>
        <time>2022-05-21 23:17:24</time>
      </trkpt>
      <trkpt lat="42.21439" lon="2.32719">
        <ele>1004.6</ele>
        <time>2022-05-21 23:17:25</time>
      </trkpt>
      <trkpt lat="42.21439" lon="2.32722">
        <ele>1004.6</ele>
        <time>2022-05-21 23:17:26</time>
      </trkpt>
      <trkpt lat="42.21439" lon="2.32725">
        <ele>1004.8</ele>
        <time>2022-05-21 23:17:27</time>
      </trkpt>
      <trkpt lat="42.21439" lon="2.32728">
        <ele>1005</ele>
        <time>2022-05-21 23:17:28</time>
      </trkpt>
      <trkpt lat="42.21438" lon="2.32731">
        <ele>1005.2</ele>
        <time>2022-05-21 23:17:29</time>
      </trkpt>
      <trkpt lat="42.21438" lon="2.32735">
        <ele>1005.4</ele>
        <time>2022-05-21 23:17:30</time>
      </trkpt>
      <trkpt lat="42.21438" lon="2.32738">
        <ele>1005.4</ele>
        <time>2022-05-21 23:17:31</time>
      </trkpt>
      <trkpt lat="42.21438" lon="2.32741">
        <ele>1005.6</ele>
        <time>2022-05-21 23:17:32</time>
      </trkpt>
      <trkpt lat="42.21438" lon="2.32744">
        <ele>1005.8</ele>
        <time>2022-05-21 23:17:33</time>
      </trkpt>
      <trkpt lat="42.21438" lon="2.32747">
        <ele>1006</ele>
        <time>2022-05-21 23:17:34</time>
      </trkpt>
      <trkpt lat="42.21438" lon="2.3275">
        <ele>1006.2</ele>
        <time>2022-05-21 23:17:35</time>
      </trkpt>
      <trkpt lat="42.21438" lon="2.32753">
        <ele>1006.4</ele>
        <time>2022-05-21 23:17:36</time>
      </trkpt>
      <trkpt lat="42.21438" lon="2.32756">
        <ele>1006.4</ele>
        <time>2022-05-21 23:17:37</time>
      </trkpt>
      <trkpt lat="42.21438" lon="2.32759">
        <ele>1006.6</ele>
        <time>2022-05-21 23:17:38</time>
      </trkpt>
      <trkpt lat="42.21438" lon="2.32763">
        <ele>1006.8</ele>
        <time>2022-05-21 23:17:39</time>
      </trkpt>
      <trkpt lat="42.21438" lon="2.32766">
        <ele>1007</ele>
        <time>2022-05-21 23:17:40</time>
      </trkpt>
      <trkpt lat="42.21438" lon="2.32769">
        <ele>1007.2</ele>
        <time>2022-05-21 23:17:41</time>
      </trkpt>
      <trkpt lat="42.21439" lon="2.32772">
        <ele>1007.4</ele>
        <time>2022-05-21 23:17:42</time>
      </trkpt>
      <trkpt lat="42.2144" lon="2.32774">
        <ele>1007.6</ele>
        <time>2022-05-21 23:17:43</time>
      </trkpt>
      <trkpt lat="42.21441" lon="2.32777">
        <ele>1007.8</ele>
        <time>2022-05-21 23:17:44</time>
      </trkpt>
      <trkpt lat="42.21442" lon="2.32779">
        <ele>1008</ele>
        <time>2022-05-21 23:17:45</time>
      </trkpt>
      <trkpt lat="42.21444" lon="2.32781">
        <ele>1008</ele>
        <time>2022-05-21 23:17:46</time>
      </trkpt>
      <trkpt lat="42.21445" lon="2.32783">
        <ele>1008.2</ele>
        <time>2022-05-21 23:17:47</time>
      </trkpt>
      <trkpt lat="42.21447" lon="2.32785">
        <ele>1008.4</ele>
        <time>2022-05-21 23:17:48</time>
      </trkpt>
      <trkpt lat="42.21449" lon="2.32787">
        <ele>1008.6</ele>
        <time>2022-05-21 23:17:49</time>
      </trkpt>
      <trkpt lat="42.21451" lon="2.32789">
        <ele>1008.6</ele>
        <time>2022-05-21 23:17:50</time>
      </trkpt>
      <trkpt lat="42.21452" lon="2.32791">
        <ele>1008.8</ele>
        <time>2022-05-21 23:17:51</time>
      </trkpt>
      <trkpt lat="42.21454" lon="2.32792">
        <ele>1009</ele>
        <time>2022-05-21 23:17:52</time>
      </trkpt>
      <trkpt lat="42.21456" lon="2.32793">
        <ele>1009</ele>
        <time>2022-05-21 23:17:53</time>
      </trkpt>
      <trkpt lat="42.21459" lon="2.32795">
        <ele>1009.2</ele>
        <time>2022-05-21 23:17:54</time>
      </trkpt>
      <trkpt lat="42.2146" lon="2.32797">
        <ele>1009.4</ele>
        <time>2022-05-21 23:17:55</time>
      </trkpt>
      <trkpt lat="42.21462" lon="2.32799">
        <ele>1009.6</ele>
        <time>2022-05-21 23:17:56</time>
      </trkpt>
      <trkpt lat="42.21464" lon="2.32801">
        <ele>1009.6</ele>
        <time>2022-05-21 23:17:57</time>
      </trkpt>
      <trkpt lat="42.21465" lon="2.32803">
        <ele>1009.8</ele>
        <time>2022-05-21 23:17:58</time>
      </trkpt>
      <trkpt lat="42.21466" lon="2.32805">
        <ele>1010</ele>
        <time>2022-05-21 23:17:59</time>
      </trkpt>
      <trkpt lat="42.21467" lon="2.32808">
        <ele>1010.2</ele>
        <time>2022-05-21 23:18:00</time>
      </trkpt>
      <trkpt lat="42.21467" lon="2.32811">
        <ele>1010.4</ele>
        <time>2022-05-21 23:18:01</time>
      </trkpt>
      <trkpt lat="42.21467" lon="2.32814">
        <ele>1010.6</ele>
        <time>2022-05-21 23:18:02</time>
      </trkpt>
      <trkpt lat="42.21466" lon="2.32817">
        <ele>1010.8</ele>
        <time>2022-05-21 23:18:03</time>
      </trkpt>
      <trkpt lat="42.21466" lon="2.3282">
        <ele>1010.8</ele>
        <time>2022-05-21 23:18:04</time>
      </trkpt>
      <trkpt lat="42.21465" lon="2.32824">
        <ele>1011</ele>
        <time>2022-05-21 23:18:05</time>
      </trkpt>
      <trkpt lat="42.21464" lon="2.32827">
        <ele>1011.2</ele>
        <time>2022-05-21 23:18:06</time>
      </trkpt>
      <trkpt lat="42.21464" lon="2.3283">
        <ele>1011.4</ele>
        <time>2022-05-21 23:18:07</time>
      </trkpt>
      <trkpt lat="42.21463" lon="2.32832">
        <ele>1011.6</ele>
        <time>2022-05-21 23:18:08</time>
      </trkpt>
      <trkpt lat="42.21462" lon="2.32835">
        <ele>1011.8</ele>
        <time>2022-05-21 23:18:09</time>
      </trkpt>
      <trkpt lat="42.21461" lon="2.32838">
        <ele>1012</ele>
        <time>2022-05-21 23:18:10</time>
      </trkpt>
      <trkpt lat="42.21459" lon="2.3284">
        <ele>1012</ele>
        <time>2022-05-21 23:18:11</time>
      </trkpt>
      <trkpt lat="42.21458" lon="2.32843">
        <ele>1012.2</ele>
        <time>2022-05-21 23:18:12</time>
      </trkpt>
      <trkpt lat="42.21457" lon="2.32846">
        <ele>1012.4</ele>
        <time>2022-05-21 23:18:13</time>
      </trkpt>
      <trkpt lat="42.21456" lon="2.32848">
        <ele>1012.4</ele>
        <time>2022-05-21 23:18:14</time>
      </trkpt>
      <trkpt lat="42.21454" lon="2.32851">
        <ele>1012.6</ele>
        <time>2022-05-21 23:18:15</time>
      </trkpt>
      <trkpt lat="42.21454" lon="2.32854">
        <ele>1012.8</ele>
        <time>2022-05-21 23:18:16</time>
      </trkpt>
      <trkpt lat="42.21453" lon="2.32857">
        <ele>1013</ele>
        <time>2022-05-21 23:18:17</time>
      </trkpt>
      <trkpt lat="42.21452" lon="2.3286">
        <ele>1013.2</ele>
        <time>2022-05-21 23:18:18</time>
      </trkpt>
      <trkpt lat="42.21451" lon="2.32863">
        <ele>1013.2</ele>
        <time>2022-05-21 23:18:19</time>
      </trkpt>
      <trkpt lat="42.2145" lon="2.32865">
        <ele>1013.4</ele>
        <time>2022-05-21 23:18:20</time>
      </trkpt>
      <trkpt lat="42.21449" lon="2.32868">
        <ele>1013.6</ele>
        <time>2022-05-21 23:18:21</time>
      </trkpt>
      <trkpt lat="42.21449" lon="2.3287">
        <ele>1013.6</ele>
        <time>2022-05-21 23:18:22</time>
      </trkpt>
      <trkpt lat="42.21448" lon="2.32873">
        <ele>1013.8</ele>
        <time>2022-05-21 23:18:23</time>
      </trkpt>
      <trkpt lat="42.21448" lon="2.32876">
        <ele>1014</ele>
        <time>2022-05-21 23:18:24</time>
      </trkpt>
      <trkpt lat="42.21447" lon="2.32878">
        <ele>1014.2</ele>
        <time>2022-05-21 23:18:25</time>
      </trkpt>
      <trkpt lat="42.21447" lon="2.32881">
        <ele>1014.2</ele>
        <time>2022-05-21 23:18:26</time>
      </trkpt>
      <trkpt lat="42.21447" lon="2.32884">
        <ele>1014.4</ele>
        <time>2022-05-21 23:18:27</time>
      </trkpt>
      <trkpt lat="42.21447" lon="2.32887">
        <ele>1014.6</ele>
        <time>2022-05-21 23:18:28</time>
      </trkpt>
      <trkpt lat="42.21447" lon="2.3289">
        <ele>1014.8</ele>
        <time>2022-05-21 23:18:29</time>
      </trkpt>
      <trkpt lat="42.21447" lon="2.32893">
        <ele>1015</ele>
        <time>2022-05-21 23:18:30</time>
      </trkpt>
      <trkpt lat="42.21448" lon="2.32896">
        <ele>1015</ele>
        <time>2022-05-21 23:18:31</time>
      </trkpt>
      <trkpt lat="42.21448" lon="2.32898">
        <ele>1015.2</ele>
        <time>2022-05-21 23:18:32</time>
      </trkpt>
      <trkpt lat="42.21449" lon="2.32901">
        <ele>1015.4</ele>
        <time>2022-05-21 23:18:33</time>
      </trkpt>
      <trkpt lat="42.2145" lon="2.32904">
        <ele>1015.4</ele>
        <time>2022-05-21 23:18:34</time>
      </trkpt>
      <trkpt lat="42.21451" lon="2.32906">
        <ele>1015.6</ele>
        <time>2022-05-21 23:18:35</time>
      </trkpt>
      <trkpt lat="42.21453" lon="2.32908">
        <ele>1015.8</ele>
        <time>2022-05-21 23:18:36</time>
      </trkpt>
      <trkpt lat="42.21454" lon="2.3291">
        <ele>1015.8</ele>
        <time>2022-05-21 23:18:37</time>
      </trkpt>
      <trkpt lat="42.21455" lon="2.32913">
        <ele>1016</ele>
        <time>2022-05-21 23:18:38</time>
      </trkpt>
      <trkpt lat="42.21457" lon="2.32914">
        <ele>1016.2</ele>
        <time>2022-05-21 23:18:39</time>
      </trkpt>
      <trkpt lat="42.21459" lon="2.32916">
        <ele>1016.4</ele>
        <time>2022-05-21 23:18:40</time>
      </trkpt>
      <trkpt lat="42.2146" lon="2.32918">
        <ele>1016.4</ele>
        <time>2022-05-21 23:18:41</time>
      </trkpt>
      <trkpt lat="42.21462" lon="2.3292">
        <ele>1016.6</ele>
        <time>2022-05-21 23:18:42</time>
      </trkpt>
      <trkpt lat="42.21464" lon="2.32922">
        <ele>1016.8</ele>
        <time>2022-05-21 23:18:43</time>
      </trkpt>
      <trkpt lat="42.21466" lon="2.32923">
        <ele>1017</ele>
        <time>2022-05-21 23:18:44</time>
      </trkpt>
      <trkpt lat="42.21468" lon="2.32925">
        <ele>1017</ele>
        <time>2022-05-21 23:18:45</time>
      </trkpt>
      <trkpt lat="42.21469" lon="2.32927">
        <ele>1017.2</ele>
        <time>2022-05-21 23:18:46</time>
      </trkpt>
      <trkpt lat="42.21471" lon="2.32929">
        <ele>1017.4</ele>
        <time>2022-05-21 23:18:47</time>
      </trkpt>
      <trkpt lat="42.21473" lon="2.3293">
        <ele>1017.6</ele>
        <time>2022-05-21 23:18:48</time>
      </trkpt>
      <trkpt lat="42.21475" lon="2.32932">
        <ele>1017.8</ele>
        <time>2022-05-21 23:18:49</time>
      </trkpt>
      <trkpt lat="42.21476" lon="2.32934">
        <ele>1018</ele>
        <time>2022-05-21 23:18:50</time>
      </trkpt>
      <trkpt lat="42.21478" lon="2.32936">
        <ele>1018.2</ele>
        <time>2022-05-21 23:18:51</time>
      </trkpt>
      <trkpt lat="42.2148" lon="2.32937">
        <ele>1018.2</ele>
        <time>2022-05-21 23:18:52</time>
      </trkpt>
      <trkpt lat="42.21482" lon="2.32939">
        <ele>1018.4</ele>
        <time>2022-05-21 23:18:53</time>
      </trkpt>
      <trkpt lat="42.21483" lon="2.32941">
        <ele>1018.6</ele>
        <time>2022-05-21 23:18:54</time>
      </trkpt>
      <trkpt lat="42.21485" lon="2.32943">
        <ele>1018.8</ele>
        <time>2022-05-21 23:18:55</time>
      </trkpt>
      <trkpt lat="42.21485" lon="2.32946">
        <ele>1019</ele>
        <time>2022-05-21 23:18:56</time>
      </trkpt>
      <trkpt lat="42.21486" lon="2.32949">
        <ele>1019.2</ele>
        <time>2022-05-21 23:18:57</time>
      </trkpt>
      <trkpt lat="42.21486" lon="2.32952">
        <ele>1019.2</ele>
        <time>2022-05-21 23:18:58</time>
      </trkpt>
      <trkpt lat="42.21486" lon="2.32955">
        <ele>1019.4</ele>
        <time>2022-05-21 23:18:59</time>
      </trkpt>
      <trkpt lat="42.21486" lon="2.32958">
        <ele>1019.6</ele>
        <time>2022-05-21 23:19:00</time>
      </trkpt>
      <trkpt lat="42.21486" lon="2.3296">
        <ele>1019.8</ele>
        <time>2022-05-21 23:19:01</time>
      </trkpt>
      <trkpt lat="42.21485" lon="2.32963">
        <ele>1020</ele>
        <time>2022-05-21 23:19:02</time>
      </trkpt>
      <trkpt lat="42.21485" lon="2.32966">
        <ele>1020.2</ele>
        <time>2022-05-21 23:19:03</time>
      </trkpt>
      <trkpt lat="42.21484" lon="2.32968">
        <ele>1020.4</ele>
        <time>2022-05-21 23:19:04</time>
      </trkpt>
      <trkpt lat="42.21483" lon="2.32971">
        <ele>1020.6</ele>
        <time>2022-05-21 23:19:05</time>
      </trkpt>
      <trkpt lat="42.21482" lon="2.32973">
        <ele>1020.8</ele>
        <time>2022-05-21 23:19:06</time>
      </trkpt>
      <trkpt lat="42.21482" lon="2.32976">
        <ele>1020.8</ele>
        <time>2022-05-21 23:19:07</time>
      </trkpt>
      <trkpt lat="42.21481" lon="2.32979">
        <ele>1021</ele>
        <time>2022-05-21 23:19:08</time>
      </trkpt>
      <trkpt lat="42.2148" lon="2.32981">
        <ele>1021.2</ele>
        <time>2022-05-21 23:19:09</time>
      </trkpt>
      <trkpt lat="42.2148" lon="2.32984">
        <ele>1021.4</ele>
        <time>2022-05-21 23:19:10</time>
      </trkpt>
      <trkpt lat="42.21479" lon="2.32986">
        <ele>1021.6</ele>
        <time>2022-05-21 23:19:11</time>
      </trkpt>
      <trkpt lat="42.21479" lon="2.32989">
        <ele>1021.8</ele>
        <time>2022-05-21 23:19:12</time>
      </trkpt>
      <trkpt lat="42.21478" lon="2.32992">
        <ele>1021.8</ele>
        <time>2022-05-21 23:19:13</time>
      </trkpt>
      <trkpt lat="42.21477" lon="2.32994">
        <ele>1022</ele>
        <time>2022-05-21 23:19:14</time>
      </trkpt>
      <trkpt lat="42.21476" lon="2.32997">
        <ele>1022.2</ele>
        <time>2022-05-21 23:19:15</time>
      </trkpt>
      <trkpt lat="42.21475" lon="2.33">
        <ele>1022.2</ele>
        <time>2022-05-21 23:19:16</time>
      </trkpt>
      <trkpt lat="42.21474" lon="2.33003">
        <ele>1022.4</ele>
        <time>2022-05-21 23:19:17</time>
      </trkpt>
      <trkpt lat="42.21473" lon="2.33006">
        <ele>1022.6</ele>
        <time>2022-05-21 23:19:18</time>
      </trkpt>
      <trkpt lat="42.21472" lon="2.33009">
        <ele>1022.6</ele>
        <time>2022-05-21 23:19:19</time>
      </trkpt>
      <trkpt lat="42.2147" lon="2.33011">
        <ele>1022.8</ele>
        <time>2022-05-21 23:19:20</time>
      </trkpt>
      <trkpt lat="42.21469" lon="2.33014">
        <ele>1023</ele>
        <time>2022-05-21 23:19:21</time>
      </trkpt>
      <trkpt lat="42.21467" lon="2.33017">
        <ele>1023.2</ele>
        <time>2022-05-21 23:19:22</time>
      </trkpt>
      <trkpt lat="42.21466" lon="2.3302">
        <ele>1023.4</ele>
        <time>2022-05-21 23:19:23</time>
      </trkpt>
      <trkpt lat="42.21465" lon="2.33022">
        <ele>1023.6</ele>
        <time>2022-05-21 23:19:24</time>
      </trkpt>
      <trkpt lat="42.21464" lon="2.33025">
        <ele>1023.6</ele>
        <time>2022-05-21 23:19:25</time>
      </trkpt>
      <trkpt lat="42.21463" lon="2.33027">
        <ele>1023.8</ele>
        <time>2022-05-21 23:19:26</time>
      </trkpt>
      <trkpt lat="42.21462" lon="2.3303">
        <ele>1024</ele>
        <time>2022-05-21 23:19:27</time>
      </trkpt>
      <trkpt lat="42.21461" lon="2.33032">
        <ele>1024.2</ele>
        <time>2022-05-21 23:19:28</time>
      </trkpt>
      <trkpt lat="42.2146" lon="2.33034">
        <ele>1024.4</ele>
        <time>2022-05-21 23:19:29</time>
      </trkpt>
      <trkpt lat="42.21459" lon="2.33036">
        <ele>1024.4</ele>
        <time>2022-05-21 23:19:30</time>
      </trkpt>
      <trkpt lat="42.21458" lon="2.33039">
        <ele>1024.6</ele>
        <time>2022-05-21 23:19:31</time>
      </trkpt>
      <trkpt lat="42.21457" lon="2.33043">
        <ele>1024.8</ele>
        <time>2022-05-21 23:19:32</time>
      </trkpt>
      <trkpt lat="42.21456" lon="2.33046">
        <ele>1024.8</ele>
        <time>2022-05-21 23:19:33</time>
      </trkpt>
      <trkpt lat="42.21454" lon="2.33049">
        <ele>1025</ele>
        <time>2022-05-21 23:19:34</time>
      </trkpt>
      <trkpt lat="42.21454" lon="2.33052">
        <ele>1025.2</ele>
        <time>2022-05-21 23:19:35</time>
      </trkpt>
      <trkpt lat="42.21453" lon="2.33055">
        <ele>1025.4</ele>
        <time>2022-05-21 23:19:36</time>
      </trkpt>
      <trkpt lat="42.21452" lon="2.33058">
        <ele>1025.6</ele>
        <time>2022-05-21 23:19:37</time>
      </trkpt>
      <trkpt lat="42.2145" lon="2.3306">
        <ele>1025.8</ele>
        <time>2022-05-21 23:19:38</time>
      </trkpt>
      <trkpt lat="42.21449" lon="2.33063">
        <ele>1026</ele>
        <time>2022-05-21 23:19:39</time>
      </trkpt>
      <trkpt lat="42.21448" lon="2.33065">
        <ele>1026.2</ele>
        <time>2022-05-21 23:19:40</time>
      </trkpt>
      <trkpt lat="42.21447" lon="2.33068">
        <ele>1026.2</ele>
        <time>2022-05-21 23:19:41</time>
      </trkpt>
      <trkpt lat="42.21446" lon="2.3307">
        <ele>1026.4</ele>
        <time>2022-05-21 23:19:42</time>
      </trkpt>
      <trkpt lat="42.21445" lon="2.33074">
        <ele>1026.6</ele>
        <time>2022-05-21 23:19:43</time>
      </trkpt>
      <trkpt lat="42.21444" lon="2.33076">
        <ele>1026.8</ele>
        <time>2022-05-21 23:19:44</time>
      </trkpt>
      <trkpt lat="42.21443" lon="2.33079">
        <ele>1027</ele>
        <time>2022-05-21 23:19:45</time>
      </trkpt>
      <trkpt lat="42.21442" lon="2.33082">
        <ele>1027.2</ele>
        <time>2022-05-21 23:19:46</time>
      </trkpt>
      <trkpt lat="42.21441" lon="2.33085">
        <ele>1027.4</ele>
        <time>2022-05-21 23:19:47</time>
      </trkpt>
      <trkpt lat="42.21441" lon="2.33088">
        <ele>1027.6</ele>
        <time>2022-05-21 23:19:48</time>
      </trkpt>
      <trkpt lat="42.2144" lon="2.33091">
        <ele>1027.8</ele>
        <time>2022-05-21 23:19:49</time>
      </trkpt>
      <trkpt lat="42.2144" lon="2.33094">
        <ele>1028</ele>
        <time>2022-05-21 23:19:50</time>
      </trkpt>
      <trkpt lat="42.2144" lon="2.33097">
        <ele>1028</ele>
        <time>2022-05-21 23:19:51</time>
      </trkpt>
      <trkpt lat="42.21439" lon="2.331">
        <ele>1028.2</ele>
        <time>2022-05-21 23:19:52</time>
      </trkpt>
      <trkpt lat="42.21439" lon="2.33103">
        <ele>1028.4</ele>
        <time>2022-05-21 23:19:53</time>
      </trkpt>
      <trkpt lat="42.21439" lon="2.33106">
        <ele>1028.6</ele>
        <time>2022-05-21 23:19:54</time>
      </trkpt>
      <trkpt lat="42.21439" lon="2.33109">
        <ele>1028.6</ele>
        <time>2022-05-21 23:19:55</time>
      </trkpt>
      <trkpt lat="42.21439" lon="2.33112">
        <ele>1028.8</ele>
        <time>2022-05-21 23:19:56</time>
      </trkpt>
      <trkpt lat="42.21439" lon="2.33114">
        <ele>1029</ele>
        <time>2022-05-21 23:19:57</time>
      </trkpt>
      <trkpt lat="42.21438" lon="2.33117">
        <ele>1029.2</ele>
        <time>2022-05-21 23:19:58</time>
      </trkpt>
      <trkpt lat="42.21438" lon="2.3312">
        <ele>1029.2</ele>
        <time>2022-05-21 23:19:59</time>
      </trkpt>
      <trkpt lat="42.21437" lon="2.33123">
        <ele>1029.4</ele>
        <time>2022-05-21 23:20:00</time>
      </trkpt>
      <trkpt lat="42.21437" lon="2.33126">
        <ele>1029.6</ele>
        <time>2022-05-21 23:20:01</time>
      </trkpt>
      <trkpt lat="42.21437" lon="2.33129">
        <ele>1029.6</ele>
        <time>2022-05-21 23:20:02</time>
      </trkpt>
      <trkpt lat="42.21437" lon="2.33131">
        <ele>1029.8</ele>
        <time>2022-05-21 23:20:03</time>
      </trkpt>
      <trkpt lat="42.21436" lon="2.33134">
        <ele>1030</ele>
        <time>2022-05-21 23:20:04</time>
      </trkpt>
      <trkpt lat="42.21436" lon="2.33137">
        <ele>1030</ele>
        <time>2022-05-21 23:20:05</time>
      </trkpt>
      <trkpt lat="42.21436" lon="2.3314">
        <ele>1030.2</ele>
        <time>2022-05-21 23:20:06</time>
      </trkpt>
      <trkpt lat="42.21436" lon="2.33142">
        <ele>1030.4</ele>
        <time>2022-05-21 23:20:07</time>
      </trkpt>
      <trkpt lat="42.21436" lon="2.33145">
        <ele>1030.6</ele>
        <time>2022-05-21 23:20:08</time>
      </trkpt>
      <trkpt lat="42.21435" lon="2.33147">
        <ele>1030.6</ele>
        <time>2022-05-21 23:20:09</time>
      </trkpt>
      <trkpt lat="42.21435" lon="2.3315">
        <ele>1030.8</ele>
        <time>2022-05-21 23:20:10</time>
      </trkpt>
      <trkpt lat="42.21435" lon="2.33153">
        <ele>1031</ele>
        <time>2022-05-21 23:20:11</time>
      </trkpt>
      <trkpt lat="42.21435" lon="2.33156">
        <ele>1031.2</ele>
        <time>2022-05-21 23:20:12</time>
      </trkpt>
      <trkpt lat="42.21434" lon="2.33159">
        <ele>1031.4</ele>
        <time>2022-05-21 23:20:13</time>
      </trkpt>
      <trkpt lat="42.21434" lon="2.33161">
        <ele>1031.4</ele>
        <time>2022-05-21 23:20:14</time>
      </trkpt>
      <trkpt lat="42.21433" lon="2.33164">
        <ele>1031.6</ele>
        <time>2022-05-21 23:20:15</time>
      </trkpt>
      <trkpt lat="42.21433" lon="2.33167">
        <ele>1031.8</ele>
        <time>2022-05-21 23:20:16</time>
      </trkpt>
      <trkpt lat="42.21432" lon="2.33169">
        <ele>1031.8</ele>
        <time>2022-05-21 23:20:17</time>
      </trkpt>
      <trkpt lat="42.21432" lon="2.33172">
        <ele>1032</ele>
        <time>2022-05-21 23:20:18</time>
      </trkpt>
      <trkpt lat="42.21431" lon="2.33175">
        <ele>1032.2</ele>
        <time>2022-05-21 23:20:19</time>
      </trkpt>
      <trkpt lat="42.21431" lon="2.33178">
        <ele>1032.4</ele>
        <time>2022-05-21 23:20:20</time>
      </trkpt>
      <trkpt lat="42.2143" lon="2.33181">
        <ele>1032.4</ele>
        <time>2022-05-21 23:20:21</time>
      </trkpt>
      <trkpt lat="42.21429" lon="2.33183">
        <ele>1032.6</ele>
        <time>2022-05-21 23:20:22</time>
      </trkpt>
      <trkpt lat="42.21429" lon="2.33186">
        <ele>1032.8</ele>
        <time>2022-05-21 23:20:23</time>
      </trkpt>
      <trkpt lat="42.21428" lon="2.33189">
        <ele>1033</ele>
        <time>2022-05-21 23:20:24</time>
      </trkpt>
      <trkpt lat="42.21427" lon="2.33191">
        <ele>1033</ele>
        <time>2022-05-21 23:20:25</time>
      </trkpt>
      <trkpt lat="42.21427" lon="2.33194">
        <ele>1033.2</ele>
        <time>2022-05-21 23:20:26</time>
      </trkpt>
      <trkpt lat="42.21427" lon="2.33197">
        <ele>1033.4</ele>
        <time>2022-05-21 23:20:27</time>
      </trkpt>
      <trkpt lat="42.21426" lon="2.332">
        <ele>1033.4</ele>
        <time>2022-05-21 23:20:28</time>
      </trkpt>
      <trkpt lat="42.21426" lon="2.33203">
        <ele>1033.6</ele>
        <time>2022-05-21 23:20:29</time>
      </trkpt>
      <trkpt lat="42.21426" lon="2.33205">
        <ele>1033.8</ele>
        <time>2022-05-21 23:20:30</time>
      </trkpt>
      <trkpt lat="42.21425" lon="2.33208">
        <ele>1034</ele>
        <time>2022-05-21 23:20:31</time>
      </trkpt>
      <trkpt lat="42.21425" lon="2.3321">
        <ele>1034.2</ele>
        <time>2022-05-21 23:20:32</time>
      </trkpt>
      <trkpt lat="42.21425" lon="2.33213">
        <ele>1034.2</ele>
        <time>2022-05-21 23:20:33</time>
      </trkpt>
      <trkpt lat="42.21425" lon="2.33216">
        <ele>1034.4</ele>
        <time>2022-05-21 23:20:34</time>
      </trkpt>
      <trkpt lat="42.21424" lon="2.33218">
        <ele>1034.6</ele>
        <time>2022-05-21 23:20:35</time>
      </trkpt>
      <trkpt lat="42.21424" lon="2.33221">
        <ele>1034.6</ele>
        <time>2022-05-21 23:20:36</time>
      </trkpt>
      <trkpt lat="42.21423" lon="2.33223">
        <ele>1034.8</ele>
        <time>2022-05-21 23:20:37</time>
      </trkpt>
      <trkpt lat="42.21422" lon="2.33226">
        <ele>1035</ele>
        <time>2022-05-21 23:20:38</time>
      </trkpt>
      <trkpt lat="42.21422" lon="2.33229">
        <ele>1035</ele>
        <time>2022-05-21 23:20:39</time>
      </trkpt>
      <trkpt lat="42.21421" lon="2.33232">
        <ele>1035.2</ele>
        <time>2022-05-21 23:20:40</time>
      </trkpt>
      <trkpt lat="42.2142" lon="2.33234">
        <ele>1035.4</ele>
        <time>2022-05-21 23:20:41</time>
      </trkpt>
      <trkpt lat="42.21419" lon="2.33237">
        <ele>1035.6</ele>
        <time>2022-05-21 23:20:42</time>
      </trkpt>
      <trkpt lat="42.21418" lon="2.3324">
        <ele>1035.6</ele>
        <time>2022-05-21 23:20:43</time>
      </trkpt>
      <trkpt lat="42.21417" lon="2.33242">
        <ele>1035.8</ele>
        <time>2022-05-21 23:20:44</time>
      </trkpt>
      <trkpt lat="42.21416" lon="2.33245">
        <ele>1036</ele>
        <time>2022-05-21 23:20:45</time>
      </trkpt>
      <trkpt lat="42.21415" lon="2.33248">
        <ele>1036.2</ele>
        <time>2022-05-21 23:20:46</time>
      </trkpt>
      <trkpt lat="42.21414" lon="2.3325">
        <ele>1036.2</ele>
        <time>2022-05-21 23:20:47</time>
      </trkpt>
      <trkpt lat="42.21412" lon="2.33253">
        <ele>1036.4</ele>
        <time>2022-05-21 23:20:48</time>
      </trkpt>
      <trkpt lat="42.21411" lon="2.33255">
        <ele>1036.6</ele>
        <time>2022-05-21 23:20:49</time>
      </trkpt>
      <trkpt lat="42.21409" lon="2.33257">
        <ele>1036.8</ele>
        <time>2022-05-21 23:20:50</time>
      </trkpt>
      <trkpt lat="42.21407" lon="2.33259">
        <ele>1037</ele>
        <time>2022-05-21 23:20:51</time>
      </trkpt>
      <trkpt lat="42.21405" lon="2.33261">
        <ele>1037</ele>
        <time>2022-05-21 23:20:52</time>
      </trkpt>
      <trkpt lat="42.21404" lon="2.33263">
        <ele>1037.2</ele>
        <time>2022-05-21 23:20:53</time>
      </trkpt>
      <trkpt lat="42.21402" lon="2.33265">
        <ele>1037.4</ele>
        <time>2022-05-21 23:20:54</time>
      </trkpt>
      <trkpt lat="42.214" lon="2.33267">
        <ele>1037.4</ele>
        <time>2022-05-21 23:20:55</time>
      </trkpt>
      <trkpt lat="42.21398" lon="2.33268">
        <ele>1037.6</ele>
        <time>2022-05-21 23:20:56</time>
      </trkpt>
      <trkpt lat="42.21396" lon="2.33269">
        <ele>1037.8</ele>
        <time>2022-05-21 23:20:57</time>
      </trkpt>
      <trkpt lat="42.21394" lon="2.3327">
        <ele>1038</ele>
        <time>2022-05-21 23:20:58</time>
      </trkpt>
      <trkpt lat="42.21392" lon="2.33271">
        <ele>1038.2</ele>
        <time>2022-05-21 23:20:59</time>
      </trkpt>
      <trkpt lat="42.2139" lon="2.33272">
        <ele>1038.4</ele>
        <time>2022-05-21 23:21:00</time>
      </trkpt>
      <trkpt lat="42.21388" lon="2.33273">
        <ele>1038.4</ele>
        <time>2022-05-21 23:21:01</time>
      </trkpt>
      <trkpt lat="42.21387" lon="2.33273">
        <ele>1038.6</ele>
        <time>2022-05-21 23:21:02</time>
      </trkpt>
      <trkpt lat="42.21385" lon="2.33273">
        <ele>1038.8</ele>
        <time>2022-05-21 23:21:03</time>
      </trkpt>
      <trkpt lat="42.21383" lon="2.33274">
        <ele>1039</ele>
        <time>2022-05-21 23:21:04</time>
      </trkpt>
      <trkpt lat="42.21381" lon="2.33275">
        <ele>1039.2</ele>
        <time>2022-05-21 23:21:05</time>
      </trkpt>
      <trkpt lat="42.21379" lon="2.33276">
        <ele>1039.2</ele>
        <time>2022-05-21 23:21:06</time>
      </trkpt>
      <trkpt lat="42.21377" lon="2.33277">
        <ele>1039.4</ele>
        <time>2022-05-21 23:21:07</time>
      </trkpt>
      <trkpt lat="42.21375" lon="2.33277">
        <ele>1039.6</ele>
        <time>2022-05-21 23:21:08</time>
      </trkpt>
      <trkpt lat="42.21373" lon="2.33278">
        <ele>1039.8</ele>
        <time>2022-05-21 23:21:09</time>
      </trkpt>
      <trkpt lat="42.21371" lon="2.33279">
        <ele>1040</ele>
        <time>2022-05-21 23:21:10</time>
      </trkpt>
      <trkpt lat="42.21369" lon="2.3328">
        <ele>1040</ele>
        <time>2022-05-21 23:21:11</time>
      </trkpt>
      <trkpt lat="42.21367" lon="2.3328">
        <ele>1040.2</ele>
        <time>2022-05-21 23:21:12</time>
      </trkpt>
      <trkpt lat="42.21365" lon="2.3328">
        <ele>1040.4</ele>
        <time>2022-05-21 23:21:13</time>
      </trkpt>
      <trkpt lat="42.21362" lon="2.3328">
        <ele>1040.6</ele>
        <time>2022-05-21 23:21:14</time>
      </trkpt>
      <trkpt lat="42.2136" lon="2.3328">
        <ele>1040.6</ele>
        <time>2022-05-21 23:21:15</time>
      </trkpt>
      <trkpt lat="42.21358" lon="2.33279">
        <ele>1040.8</ele>
        <time>2022-05-21 23:21:16</time>
      </trkpt>
      <trkpt lat="42.21356" lon="2.33278">
        <ele>1041</ele>
        <time>2022-05-21 23:21:17</time>
      </trkpt>
      <trkpt lat="42.21354" lon="2.33277">
        <ele>1041.2</ele>
        <time>2022-05-21 23:21:18</time>
      </trkpt>
      <trkpt lat="42.21351" lon="2.33276">
        <ele>1041.2</ele>
        <time>2022-05-21 23:21:19</time>
      </trkpt>
      <trkpt lat="42.21348" lon="2.33274">
        <ele>1041.4</ele>
        <time>2022-05-21 23:21:20</time>
      </trkpt>
      <trkpt lat="42.21346" lon="2.33272">
        <ele>1041.4</ele>
        <time>2022-05-21 23:21:21</time>
      </trkpt>
      <trkpt lat="42.21344" lon="2.33271">
        <ele>1041.6</ele>
        <time>2022-05-21 23:21:22</time>
      </trkpt>
      <trkpt lat="42.21342" lon="2.33269">
        <ele>1041.8</ele>
        <time>2022-05-21 23:21:23</time>
      </trkpt>
      <trkpt lat="42.2134" lon="2.33268">
        <ele>1041.8</ele>
        <time>2022-05-21 23:21:24</time>
      </trkpt>
      <trkpt lat="42.21338" lon="2.33266">
        <ele>1042</ele>
        <time>2022-05-21 23:21:25</time>
      </trkpt>
      <trkpt lat="42.21335" lon="2.33264">
        <ele>1042</ele>
        <time>2022-05-21 23:21:26</time>
      </trkpt>
      <trkpt lat="42.21333" lon="2.33262">
        <ele>1042.2</ele>
        <time>2022-05-21 23:21:27</time>
      </trkpt>
      <trkpt lat="42.21331" lon="2.3326">
        <ele>1042.2</ele>
        <time>2022-05-21 23:21:28</time>
      </trkpt>
      <trkpt lat="42.21329" lon="2.33259">
        <ele>1042.4</ele>
        <time>2022-05-21 23:21:29</time>
      </trkpt>
      <trkpt lat="42.21327" lon="2.33258">
        <ele>1042.6</ele>
        <time>2022-05-21 23:21:30</time>
      </trkpt>
      <trkpt lat="42.21325" lon="2.33257">
        <ele>1042.6</ele>
        <time>2022-05-21 23:21:31</time>
      </trkpt>
      <trkpt lat="42.21323" lon="2.33256">
        <ele>1042.8</ele>
        <time>2022-05-21 23:21:32</time>
      </trkpt>
      <trkpt lat="42.2132" lon="2.33256">
        <ele>1043</ele>
        <time>2022-05-21 23:21:33</time>
      </trkpt>
      <trkpt lat="42.21318" lon="2.33256">
        <ele>1043</ele>
        <time>2022-05-21 23:21:34</time>
      </trkpt>
      <trkpt lat="42.21316" lon="2.33255">
        <ele>1043.2</ele>
        <time>2022-05-21 23:21:35</time>
      </trkpt>
      <trkpt lat="42.21313" lon="2.33255">
        <ele>1043.2</ele>
        <time>2022-05-21 23:21:36</time>
      </trkpt>
      <trkpt lat="42.21311" lon="2.33256">
        <ele>1043.4</ele>
        <time>2022-05-21 23:21:37</time>
      </trkpt>
      <trkpt lat="42.21309" lon="2.33256">
        <ele>1043.4</ele>
        <time>2022-05-21 23:21:38</time>
      </trkpt>
      <trkpt lat="42.21307" lon="2.33258">
        <ele>1043.6</ele>
        <time>2022-05-21 23:21:39</time>
      </trkpt>
      <trkpt lat="42.21305" lon="2.33259">
        <ele>1043.6</ele>
        <time>2022-05-21 23:21:40</time>
      </trkpt>
      <trkpt lat="42.21303" lon="2.33261">
        <ele>1043.8</ele>
        <time>2022-05-21 23:21:41</time>
      </trkpt>
      <trkpt lat="42.21301" lon="2.33262">
        <ele>1044</ele>
        <time>2022-05-21 23:21:42</time>
      </trkpt>
      <trkpt lat="42.213" lon="2.33264">
        <ele>1044.2</ele>
        <time>2022-05-21 23:21:43</time>
      </trkpt>
      <trkpt lat="42.21299" lon="2.33265">
        <ele>1044.2</ele>
        <time>2022-05-21 23:21:44</time>
      </trkpt>
      <trkpt lat="42.21298" lon="2.33268">
        <ele>1044.4</ele>
        <time>2022-05-21 23:21:45</time>
      </trkpt>
      <trkpt lat="42.21297" lon="2.3327">
        <ele>1044.4</ele>
        <time>2022-05-21 23:21:46</time>
      </trkpt>
      <trkpt lat="42.21296" lon="2.33273">
        <ele>1044.6</ele>
        <time>2022-05-21 23:21:47</time>
      </trkpt>
      <trkpt lat="42.21294" lon="2.33275">
        <ele>1044.6</ele>
        <time>2022-05-21 23:21:48</time>
      </trkpt>
      <trkpt lat="42.21293" lon="2.33278">
        <ele>1044.8</ele>
        <time>2022-05-21 23:21:49</time>
      </trkpt>
      <trkpt lat="42.21291" lon="2.3328">
        <ele>1044.8</ele>
        <time>2022-05-21 23:21:50</time>
      </trkpt>
      <trkpt lat="42.21289" lon="2.33281">
        <ele>1045</ele>
        <time>2022-05-21 23:21:51</time>
      </trkpt>
      <trkpt lat="42.21287" lon="2.33283">
        <ele>1045</ele>
        <time>2022-05-21 23:21:52</time>
      </trkpt>
      <trkpt lat="42.21285" lon="2.33284">
        <ele>1045.2</ele>
        <time>2022-05-21 23:21:53</time>
      </trkpt>
      <trkpt lat="42.21283" lon="2.33286">
        <ele>1045.2</ele>
        <time>2022-05-21 23:21:54</time>
      </trkpt>
      <trkpt lat="42.2128" lon="2.33286">
        <ele>1045.4</ele>
        <time>2022-05-21 23:21:55</time>
      </trkpt>
      <trkpt lat="42.21278" lon="2.33286">
        <ele>1045.4</ele>
        <time>2022-05-21 23:21:56</time>
      </trkpt>
      <trkpt lat="42.21276" lon="2.33286">
        <ele>1045.6</ele>
        <time>2022-05-21 23:21:57</time>
      </trkpt>
      <trkpt lat="42.21274" lon="2.33285">
        <ele>1045.6</ele>
        <time>2022-05-21 23:21:58</time>
      </trkpt>
      <trkpt lat="42.21272" lon="2.33284">
        <ele>1045.8</ele>
        <time>2022-05-21 23:21:59</time>
      </trkpt>
      <trkpt lat="42.21271" lon="2.33282">
        <ele>1045.8</ele>
        <time>2022-05-21 23:22:00</time>
      </trkpt>
      <trkpt lat="42.21269" lon="2.33281">
        <ele>1046</ele>
        <time>2022-05-21 23:22:01</time>
      </trkpt>
      <trkpt lat="42.21268" lon="2.33279">
        <ele>1046</ele>
        <time>2022-05-21 23:22:02</time>
      </trkpt>
      <trkpt lat="42.21266" lon="2.33277">
        <ele>1046.2</ele>
        <time>2022-05-21 23:22:03</time>
      </trkpt>
      <trkpt lat="42.21264" lon="2.33275">
        <ele>1046.2</ele>
        <time>2022-05-21 23:22:04</time>
      </trkpt>
      <trkpt lat="42.21262" lon="2.33272">
        <ele>1046.4</ele>
        <time>2022-05-21 23:22:05</time>
      </trkpt>
      <trkpt lat="42.2126" lon="2.3327">
        <ele>1046.4</ele>
        <time>2022-05-21 23:22:06</time>
      </trkpt>
      <trkpt lat="42.21258" lon="2.33268">
        <ele>1046.6</ele>
        <time>2022-05-21 23:22:07</time>
      </trkpt>
      <trkpt lat="42.21257" lon="2.33266">
        <ele>1046.6</ele>
        <time>2022-05-21 23:22:08</time>
      </trkpt>
      <trkpt lat="42.21255" lon="2.33263">
        <ele>1046.6</ele>
        <time>2022-05-21 23:22:09</time>
      </trkpt>
      <trkpt lat="42.21254" lon="2.33261">
        <ele>1046.8</ele>
        <time>2022-05-21 23:22:10</time>
      </trkpt>
      <trkpt lat="42.21252" lon="2.33259">
        <ele>1046.8</ele>
        <time>2022-05-21 23:22:11</time>
      </trkpt>
      <trkpt lat="42.2125" lon="2.33256">
        <ele>1047</ele>
        <time>2022-05-21 23:22:12</time>
      </trkpt>
      <trkpt lat="42.21249" lon="2.33254">
        <ele>1047.2</ele>
        <time>2022-05-21 23:22:13</time>
      </trkpt>
      <trkpt lat="42.21248" lon="2.33252">
        <ele>1047.2</ele>
        <time>2022-05-21 23:22:14</time>
      </trkpt>
      <trkpt lat="42.21246" lon="2.3325">
        <ele>1047.4</ele>
        <time>2022-05-21 23:22:15</time>
      </trkpt>
      <trkpt lat="42.21244" lon="2.33247">
        <ele>1047.4</ele>
        <time>2022-05-21 23:22:16</time>
      </trkpt>
      <trkpt lat="42.21243" lon="2.33245">
        <ele>1047.6</ele>
        <time>2022-05-21 23:22:17</time>
      </trkpt>
      <trkpt lat="42.21241" lon="2.33242">
        <ele>1047.6</ele>
        <time>2022-05-21 23:22:18</time>
      </trkpt>
      <trkpt lat="42.21239" lon="2.3324">
        <ele>1047.8</ele>
        <time>2022-05-21 23:22:19</time>
      </trkpt>
      <trkpt lat="42.21237" lon="2.33239">
        <ele>1048</ele>
        <time>2022-05-21 23:22:20</time>
      </trkpt>
      <trkpt lat="42.21235" lon="2.33238">
        <ele>1048</ele>
        <time>2022-05-21 23:22:21</time>
      </trkpt>
      <trkpt lat="42.21233" lon="2.33237">
        <ele>1048.2</ele>
        <time>2022-05-21 23:22:22</time>
      </trkpt>
      <trkpt lat="42.2123" lon="2.33237">
        <ele>1048.4</ele>
        <time>2022-05-21 23:22:23</time>
      </trkpt>
      <trkpt lat="42.21227" lon="2.33236">
        <ele>1048.4</ele>
        <time>2022-05-21 23:22:24</time>
      </trkpt>
      <trkpt lat="42.21225" lon="2.33236">
        <ele>1048.6</ele>
        <time>2022-05-21 23:22:25</time>
      </trkpt>
      <trkpt lat="42.21222" lon="2.33236">
        <ele>1048.8</ele>
        <time>2022-05-21 23:22:26</time>
      </trkpt>
      <trkpt lat="42.2122" lon="2.33236">
        <ele>1048.8</ele>
        <time>2022-05-21 23:22:27</time>
      </trkpt>
      <trkpt lat="42.21217" lon="2.33236">
        <ele>1049</ele>
        <time>2022-05-21 23:22:28</time>
      </trkpt>
      <trkpt lat="42.21215" lon="2.33236">
        <ele>1049.2</ele>
        <time>2022-05-21 23:22:29</time>
      </trkpt>
      <trkpt lat="42.21213" lon="2.33235">
        <ele>1049.2</ele>
        <time>2022-05-21 23:22:30</time>
      </trkpt>
      <trkpt lat="42.21211" lon="2.33235">
        <ele>1049.4</ele>
        <time>2022-05-21 23:22:31</time>
      </trkpt>
      <trkpt lat="42.21208" lon="2.33234">
        <ele>1049.4</ele>
        <time>2022-05-21 23:22:32</time>
      </trkpt>
      <trkpt lat="42.21207" lon="2.33232">
        <ele>1049.6</ele>
        <time>2022-05-21 23:22:33</time>
      </trkpt>
      <trkpt lat="42.21205" lon="2.3323">
        <ele>1049.8</ele>
        <time>2022-05-21 23:22:34</time>
      </trkpt>
      <trkpt lat="42.21203" lon="2.33228">
        <ele>1049.8</ele>
        <time>2022-05-21 23:22:35</time>
      </trkpt>
      <trkpt lat="42.21201" lon="2.33226">
        <ele>1050</ele>
        <time>2022-05-21 23:22:36</time>
      </trkpt>
      <trkpt lat="42.212" lon="2.33224">
        <ele>1050.2</ele>
        <time>2022-05-21 23:22:37</time>
      </trkpt>
      <trkpt lat="42.21198" lon="2.33221">
        <ele>1050.2</ele>
        <time>2022-05-21 23:22:38</time>
      </trkpt>
      <trkpt lat="42.21197" lon="2.33218">
        <ele>1050.4</ele>
        <time>2022-05-21 23:22:39</time>
      </trkpt>
      <trkpt lat="42.21196" lon="2.33215">
        <ele>1050.4</ele>
        <time>2022-05-21 23:22:40</time>
      </trkpt>
      <trkpt lat="42.21195" lon="2.33212">
        <ele>1050.6</ele>
        <time>2022-05-21 23:22:41</time>
      </trkpt>
      <trkpt lat="42.21193" lon="2.33209">
        <ele>1050.6</ele>
        <time>2022-05-21 23:22:42</time>
      </trkpt>
      <trkpt lat="42.21192" lon="2.33207">
        <ele>1050.8</ele>
        <time>2022-05-21 23:22:43</time>
      </trkpt>
      <trkpt lat="42.2119" lon="2.33204">
        <ele>1051</ele>
        <time>2022-05-21 23:22:44</time>
      </trkpt>
      <trkpt lat="42.21189" lon="2.33202">
        <ele>1051</ele>
        <time>2022-05-21 23:22:45</time>
      </trkpt>
      <trkpt lat="42.21187" lon="2.332">
        <ele>1051.2</ele>
        <time>2022-05-21 23:22:46</time>
      </trkpt>
      <trkpt lat="42.21185" lon="2.33199">
        <ele>1051.2</ele>
        <time>2022-05-21 23:22:47</time>
      </trkpt>
      <trkpt lat="42.21182" lon="2.33199">
        <ele>1051.4</ele>
        <time>2022-05-21 23:22:48</time>
      </trkpt>
      <trkpt lat="42.2118" lon="2.33199">
        <ele>1051.4</ele>
        <time>2022-05-21 23:22:49</time>
      </trkpt>
      <trkpt lat="42.21177" lon="2.332">
        <ele>1051.6</ele>
        <time>2022-05-21 23:22:50</time>
      </trkpt>
      <trkpt lat="42.21175" lon="2.33201">
        <ele>1051.6</ele>
        <time>2022-05-21 23:22:51</time>
      </trkpt>
      <trkpt lat="42.21173" lon="2.33203">
        <ele>1051.8</ele>
        <time>2022-05-21 23:22:52</time>
      </trkpt>
      <trkpt lat="42.21171" lon="2.33204">
        <ele>1051.8</ele>
        <time>2022-05-21 23:22:53</time>
      </trkpt>
      <trkpt lat="42.21169" lon="2.33206">
        <ele>1052</ele>
        <time>2022-05-21 23:22:54</time>
      </trkpt>
      <trkpt lat="42.21167" lon="2.33207">
        <ele>1052.2</ele>
        <time>2022-05-21 23:22:55</time>
      </trkpt>
      <trkpt lat="42.21165" lon="2.33208">
        <ele>1052.2</ele>
        <time>2022-05-21 23:22:56</time>
      </trkpt>
      <trkpt lat="42.21162" lon="2.33209">
        <ele>1052.4</ele>
        <time>2022-05-21 23:22:57</time>
      </trkpt>
      <trkpt lat="42.2116" lon="2.33209">
        <ele>1052.6</ele>
        <time>2022-05-21 23:22:58</time>
      </trkpt>
      <trkpt lat="42.21158" lon="2.33208">
        <ele>1052.6</ele>
        <time>2022-05-21 23:22:59</time>
      </trkpt>
      <trkpt lat="42.21156" lon="2.33207">
        <ele>1052.8</ele>
        <time>2022-05-21 23:23:00</time>
      </trkpt>
      <trkpt lat="42.21153" lon="2.33206">
        <ele>1053</ele>
        <time>2022-05-21 23:23:01</time>
      </trkpt>
      <trkpt lat="42.21151" lon="2.33204">
        <ele>1053</ele>
        <time>2022-05-21 23:23:02</time>
      </trkpt>
      <trkpt lat="42.21149" lon="2.33203">
        <ele>1053.2</ele>
        <time>2022-05-21 23:23:03</time>
      </trkpt>
      <trkpt lat="42.21147" lon="2.33202">
        <ele>1053.4</ele>
        <time>2022-05-21 23:23:04</time>
      </trkpt>
      <trkpt lat="42.21145" lon="2.332">
        <ele>1053.4</ele>
        <time>2022-05-21 23:23:05</time>
      </trkpt>
      <trkpt lat="42.21142" lon="2.33199">
        <ele>1053.6</ele>
        <time>2022-05-21 23:23:06</time>
      </trkpt>
      <trkpt lat="42.2114" lon="2.33198">
        <ele>1053.6</ele>
        <time>2022-05-21 23:23:07</time>
      </trkpt>
      <trkpt lat="42.21137" lon="2.33197">
        <ele>1053.8</ele>
        <time>2022-05-21 23:23:08</time>
      </trkpt>
      <trkpt lat="42.21134" lon="2.33198">
        <ele>1053.8</ele>
        <time>2022-05-21 23:23:09</time>
      </trkpt>
      <trkpt lat="42.21132" lon="2.33199">
        <ele>1054</ele>
        <time>2022-05-21 23:23:10</time>
      </trkpt>
      <trkpt lat="42.21129" lon="2.332">
        <ele>1054.2</ele>
        <time>2022-05-21 23:23:11</time>
      </trkpt>
      <trkpt lat="42.21127" lon="2.33201">
        <ele>1054.2</ele>
        <time>2022-05-21 23:23:12</time>
      </trkpt>
      <trkpt lat="42.21125" lon="2.33203">
        <ele>1054.4</ele>
        <time>2022-05-21 23:23:13</time>
      </trkpt>
      <trkpt lat="42.21124" lon="2.33205">
        <ele>1054.6</ele>
        <time>2022-05-21 23:23:14</time>
      </trkpt>
      <trkpt lat="42.21122" lon="2.33207">
        <ele>1054.8</ele>
        <time>2022-05-21 23:23:15</time>
      </trkpt>
      <trkpt lat="42.21121" lon="2.3321">
        <ele>1054.8</ele>
        <time>2022-05-21 23:23:16</time>
      </trkpt>
      <trkpt lat="42.2112" lon="2.33213">
        <ele>1055</ele>
        <time>2022-05-21 23:23:17</time>
      </trkpt>
      <trkpt lat="42.21118" lon="2.33215">
        <ele>1055.2</ele>
        <time>2022-05-21 23:23:18</time>
      </trkpt>
      <trkpt lat="42.21116" lon="2.33217">
        <ele>1055.2</ele>
        <time>2022-05-21 23:23:19</time>
      </trkpt>
      <trkpt lat="42.21115" lon="2.33219">
        <ele>1055.4</ele>
        <time>2022-05-21 23:23:20</time>
      </trkpt>
      <trkpt lat="42.21113" lon="2.3322">
        <ele>1055.6</ele>
        <time>2022-05-21 23:23:21</time>
      </trkpt>
      <trkpt lat="42.21111" lon="2.33221">
        <ele>1055.8</ele>
        <time>2022-05-21 23:23:22</time>
      </trkpt>
      <trkpt lat="42.21109" lon="2.33222">
        <ele>1055.8</ele>
        <time>2022-05-21 23:23:23</time>
      </trkpt>
      <trkpt lat="42.21108" lon="2.33223">
        <ele>1056</ele>
        <time>2022-05-21 23:23:24</time>
      </trkpt>
      <trkpt lat="42.21106" lon="2.33225">
        <ele>1056.2</ele>
        <time>2022-05-21 23:23:25</time>
      </trkpt>
      <trkpt lat="42.21104" lon="2.33226">
        <ele>1056.4</ele>
        <time>2022-05-21 23:23:26</time>
      </trkpt>
      <trkpt lat="42.21103" lon="2.33228">
        <ele>1056.4</ele>
        <time>2022-05-21 23:23:27</time>
      </trkpt>
      <trkpt lat="42.21101" lon="2.3323">
        <ele>1056.4</ele>
        <time>2022-05-21 23:23:28</time>
      </trkpt>
      <trkpt lat="42.21099" lon="2.33232">
        <ele>1056.6</ele>
        <time>2022-05-21 23:23:29</time>
      </trkpt>
      <trkpt lat="42.21098" lon="2.33234">
        <ele>1056.6</ele>
        <time>2022-05-21 23:23:30</time>
      </trkpt>
      <trkpt lat="42.21096" lon="2.33237">
        <ele>1056.6</ele>
        <time>2022-05-21 23:23:31</time>
      </trkpt>
      <trkpt lat="42.21093" lon="2.3324">
        <ele>1056.6</ele>
        <time>2022-05-21 23:23:32</time>
      </trkpt>
      <trkpt lat="42.21091" lon="2.33243">
        <ele>1056.6</ele>
        <time>2022-05-21 23:23:33</time>
      </trkpt>
      <trkpt lat="42.21089" lon="2.33247">
        <ele>1056.6</ele>
        <time>2022-05-21 23:23:34</time>
      </trkpt>
      <trkpt lat="42.21087" lon="2.33251">
        <ele>1056.6</ele>
        <time>2022-05-21 23:23:35</time>
      </trkpt>
      <trkpt lat="42.21084" lon="2.33255">
        <ele>1056.6</ele>
        <time>2022-05-21 23:23:36</time>
      </trkpt>
      <trkpt lat="42.21082" lon="2.33259">
        <ele>1056.6</ele>
        <time>2022-05-21 23:23:37</time>
      </trkpt>
      <trkpt lat="42.21079" lon="2.33263">
        <ele>1056.4</ele>
        <time>2022-05-21 23:23:38</time>
      </trkpt>
      <trkpt lat="42.21076" lon="2.33268">
        <ele>1056.4</ele>
        <time>2022-05-21 23:23:39</time>
      </trkpt>
      <trkpt lat="42.21074" lon="2.33271">
        <ele>1056.2</ele>
        <time>2022-05-21 23:23:40</time>
      </trkpt>
      <trkpt lat="42.21072" lon="2.33275">
        <ele>1056.2</ele>
        <time>2022-05-21 23:23:41</time>
      </trkpt>
      <trkpt lat="42.21069" lon="2.33279">
        <ele>1056.2</ele>
        <time>2022-05-21 23:23:42</time>
      </trkpt>
      <trkpt lat="42.21066" lon="2.33283">
        <ele>1056.2</ele>
        <time>2022-05-21 23:23:43</time>
      </trkpt>
      <trkpt lat="42.21064" lon="2.33287">
        <ele>1056</ele>
        <time>2022-05-21 23:23:44</time>
      </trkpt>
      <trkpt lat="42.21061" lon="2.33292">
        <ele>1056</ele>
        <time>2022-05-21 23:23:45</time>
      </trkpt>
      <trkpt lat="42.21058" lon="2.33296">
        <ele>1056</ele>
        <time>2022-05-21 23:23:46</time>
      </trkpt>
      <trkpt lat="42.21055" lon="2.333">
        <ele>1055.8</ele>
        <time>2022-05-21 23:23:47</time>
      </trkpt>
      <trkpt lat="42.21052" lon="2.33305">
        <ele>1055.8</ele>
        <time>2022-05-21 23:23:48</time>
      </trkpt>
      <trkpt lat="42.21049" lon="2.3331">
        <ele>1055.8</ele>
        <time>2022-05-21 23:23:49</time>
      </trkpt>
      <trkpt lat="42.21047" lon="2.33314">
        <ele>1055.8</ele>
        <time>2022-05-21 23:23:50</time>
      </trkpt>
      <trkpt lat="42.21044" lon="2.3332">
        <ele>1055.6</ele>
        <time>2022-05-21 23:23:51</time>
      </trkpt>
      <trkpt lat="42.21042" lon="2.33324">
        <ele>1055.6</ele>
        <time>2022-05-21 23:23:52</time>
      </trkpt>
      <trkpt lat="42.21039" lon="2.33331">
        <ele>1055.6</ele>
        <time>2022-05-21 23:23:53</time>
      </trkpt>
      <trkpt lat="42.21037" lon="2.33336">
        <ele>1055.6</ele>
        <time>2022-05-21 23:23:54</time>
      </trkpt>
      <trkpt lat="42.21036" lon="2.33342">
        <ele>1055.6</ele>
        <time>2022-05-21 23:23:55</time>
      </trkpt>
      <trkpt lat="42.21035" lon="2.33348">
        <ele>1055.6</ele>
        <time>2022-05-21 23:23:56</time>
      </trkpt>
      <trkpt lat="42.21034" lon="2.33354">
        <ele>1055.4</ele>
        <time>2022-05-21 23:23:57</time>
      </trkpt>
      <trkpt lat="42.21033" lon="2.3336">
        <ele>1055.4</ele>
        <time>2022-05-21 23:23:58</time>
      </trkpt>
      <trkpt lat="42.21032" lon="2.33366">
        <ele>1055.2</ele>
        <time>2022-05-21 23:23:59</time>
      </trkpt>
      <trkpt lat="42.2103" lon="2.33372">
        <ele>1055.2</ele>
        <time>2022-05-21 23:24:00</time>
      </trkpt>
      <trkpt lat="42.21028" lon="2.33377">
        <ele>1055</ele>
        <time>2022-05-21 23:24:01</time>
      </trkpt>
      <trkpt lat="42.21025" lon="2.33383">
        <ele>1054.8</ele>
        <time>2022-05-21 23:24:02</time>
      </trkpt>
      <trkpt lat="42.21021" lon="2.33388">
        <ele>1054.6</ele>
        <time>2022-05-21 23:24:03</time>
      </trkpt>
      <trkpt lat="42.21016" lon="2.33393">
        <ele>1054.6</ele>
        <time>2022-05-21 23:24:04</time>
      </trkpt>
      <trkpt lat="42.2101" lon="2.33396">
        <ele>1054.4</ele>
        <time>2022-05-21 23:24:05</time>
      </trkpt>
      <trkpt lat="42.21004" lon="2.33398">
        <ele>1054</ele>
        <time>2022-05-21 23:24:06</time>
      </trkpt>
      <trkpt lat="42.20998" lon="2.334">
        <ele>1053.8</ele>
        <time>2022-05-21 23:24:07</time>
      </trkpt>
      <trkpt lat="42.20991" lon="2.33402">
        <ele>1053.6</ele>
        <time>2022-05-21 23:24:08</time>
      </trkpt>
      <trkpt lat="42.20986" lon="2.33404">
        <ele>1053.4</ele>
        <time>2022-05-21 23:24:09</time>
      </trkpt>
      <trkpt lat="42.20981" lon="2.33407">
        <ele>1053</ele>
        <time>2022-05-21 23:24:10</time>
      </trkpt>
      <trkpt lat="42.20978" lon="2.3341">
        <ele>1052.8</ele>
        <time>2022-05-21 23:24:11</time>
      </trkpt>
      <trkpt lat="42.20976" lon="2.33415">
        <ele>1052.6</ele>
        <time>2022-05-21 23:24:12</time>
      </trkpt>
      <trkpt lat="42.20975" lon="2.33421">
        <ele>1052.4</ele>
        <time>2022-05-21 23:24:13</time>
      </trkpt>
      <trkpt lat="42.20975" lon="2.33428">
        <ele>1052.2</ele>
        <time>2022-05-21 23:24:14</time>
      </trkpt>
      <trkpt lat="42.20977" lon="2.33435">
        <ele>1052</ele>
        <time>2022-05-21 23:24:15</time>
      </trkpt>
      <trkpt lat="42.20979" lon="2.33441">
        <ele>1051.8</ele>
        <time>2022-05-21 23:24:16</time>
      </trkpt>
      <trkpt lat="42.2098" lon="2.33447">
        <ele>1051.6</ele>
        <time>2022-05-21 23:24:17</time>
      </trkpt>
      <trkpt lat="42.20982" lon="2.33452">
        <ele>1051.2</ele>
        <time>2022-05-21 23:24:18</time>
      </trkpt>
      <trkpt lat="42.20984" lon="2.33458">
        <ele>1051</ele>
        <time>2022-05-21 23:24:19</time>
      </trkpt>
      <trkpt lat="42.20987" lon="2.33463">
        <ele>1050.8</ele>
        <time>2022-05-21 23:24:20</time>
      </trkpt>
      <trkpt lat="42.20991" lon="2.33468">
        <ele>1050.4</ele>
        <time>2022-05-21 23:24:21</time>
      </trkpt>
      <trkpt lat="42.20996" lon="2.33477">
        <ele>1050.2</ele>
        <time>2022-05-21 23:24:22</time>
      </trkpt>
      <trkpt lat="42.21" lon="2.33484">
        <ele>1049.8</ele>
        <time>2022-05-21 23:24:23</time>
      </trkpt>
      <trkpt lat="42.21004" lon="2.33491">
        <ele>1049.4</ele>
        <time>2022-05-21 23:24:24</time>
      </trkpt>
      <trkpt lat="42.21007" lon="2.33498">
        <ele>1049</ele>
        <time>2022-05-21 23:24:25</time>
      </trkpt>
      <trkpt lat="42.21012" lon="2.33509">
        <ele>1048.6</ele>
        <time>2022-05-21 23:24:26</time>
      </trkpt>
      <trkpt lat="42.21016" lon="2.3352">
        <ele>1048.4</ele>
        <time>2022-05-21 23:24:27</time>
      </trkpt>
      <trkpt lat="42.21019" lon="2.33531">
        <ele>1048</ele>
        <time>2022-05-21 23:24:28</time>
      </trkpt>
      <trkpt lat="42.21022" lon="2.33541">
        <ele>1047.6</ele>
        <time>2022-05-21 23:24:29</time>
      </trkpt>
      <trkpt lat="42.21024" lon="2.33552">
        <ele>1047.4</ele>
        <time>2022-05-21 23:24:30</time>
      </trkpt>
      <trkpt lat="42.21026" lon="2.33562">
        <ele>1047</ele>
        <time>2022-05-21 23:24:31</time>
      </trkpt>
      <trkpt lat="42.21028" lon="2.33572">
        <ele>1046.8</ele>
        <time>2022-05-21 23:24:32</time>
      </trkpt>
      <trkpt lat="42.21031" lon="2.3358">
        <ele>1046.4</ele>
        <time>2022-05-21 23:24:33</time>
      </trkpt>
      <trkpt lat="42.21035" lon="2.33588">
        <ele>1046</ele>
        <time>2022-05-21 23:24:34</time>
      </trkpt>
      <trkpt lat="42.2104" lon="2.33596">
        <ele>1045.6</ele>
        <time>2022-05-21 23:24:35</time>
      </trkpt>
      <trkpt lat="42.21044" lon="2.33602">
        <ele>1045.2</ele>
        <time>2022-05-21 23:24:36</time>
      </trkpt>
      <trkpt lat="42.21049" lon="2.33609">
        <ele>1044.8</ele>
        <time>2022-05-21 23:24:37</time>
      </trkpt>
      <trkpt lat="42.21052" lon="2.33616">
        <ele>1044.2</ele>
        <time>2022-05-21 23:24:38</time>
      </trkpt>
      <trkpt lat="42.21055" lon="2.33625">
        <ele>1043.8</ele>
        <time>2022-05-21 23:24:39</time>
      </trkpt>
      <trkpt lat="42.21058" lon="2.33633">
        <ele>1043.2</ele>
        <time>2022-05-21 23:24:40</time>
      </trkpt>
      <trkpt lat="42.21059" lon="2.33642">
        <ele>1042.8</ele>
        <time>2022-05-21 23:24:41</time>
      </trkpt>
      <trkpt lat="42.2106" lon="2.33652">
        <ele>1042.2</ele>
        <time>2022-05-21 23:24:42</time>
      </trkpt>
      <trkpt lat="42.21061" lon="2.33662">
        <ele>1041.8</ele>
        <time>2022-05-21 23:24:43</time>
      </trkpt>
      <trkpt lat="42.21062" lon="2.33673">
        <ele>1041.2</ele>
        <time>2022-05-21 23:24:44</time>
      </trkpt>
      <trkpt lat="42.21061" lon="2.33684">
        <ele>1040.6</ele>
        <time>2022-05-21 23:24:45</time>
      </trkpt>
      <trkpt lat="42.21061" lon="2.33695">
        <ele>1040</ele>
        <time>2022-05-21 23:24:46</time>
      </trkpt>
      <trkpt lat="42.21061" lon="2.33707">
        <ele>1039.2</ele>
        <time>2022-05-21 23:24:47</time>
      </trkpt>
      <trkpt lat="42.21062" lon="2.33719">
        <ele>1038.6</ele>
        <time>2022-05-21 23:24:48</time>
      </trkpt>
      <trkpt lat="42.21064" lon="2.33732">
        <ele>1038</ele>
        <time>2022-05-21 23:24:49</time>
      </trkpt>
      <trkpt lat="42.21067" lon="2.33743">
        <ele>1037.6</ele>
        <time>2022-05-21 23:24:50</time>
      </trkpt>
      <trkpt lat="42.21069" lon="2.33755">
        <ele>1037</ele>
        <time>2022-05-21 23:24:51</time>
      </trkpt>
      <trkpt lat="42.21071" lon="2.33766">
        <ele>1036.4</ele>
        <time>2022-05-21 23:24:52</time>
      </trkpt>
      <trkpt lat="42.21071" lon="2.33777">
        <ele>1036</ele>
        <time>2022-05-21 23:24:53</time>
      </trkpt>
      <trkpt lat="42.21069" lon="2.33788">
        <ele>1035.6</ele>
        <time>2022-05-21 23:24:54</time>
      </trkpt>
      <trkpt lat="42.21067" lon="2.33798">
        <ele>1035</ele>
        <time>2022-05-21 23:24:55</time>
      </trkpt>
      <trkpt lat="42.21065" lon="2.33807">
        <ele>1034.6</ele>
        <time>2022-05-21 23:24:56</time>
      </trkpt>
      <trkpt lat="42.21062" lon="2.33816">
        <ele>1034</ele>
        <time>2022-05-21 23:24:57</time>
      </trkpt>
      <trkpt lat="42.21057" lon="2.33824">
        <ele>1033.6</ele>
        <time>2022-05-21 23:24:58</time>
      </trkpt>
      <trkpt lat="42.21051" lon="2.3383">
        <ele>1033.2</ele>
        <time>2022-05-21 23:24:59</time>
      </trkpt>
      <trkpt lat="42.21044" lon="2.33834">
        <ele>1032.8</ele>
        <time>2022-05-21 23:25:00</time>
      </trkpt>
      <trkpt lat="42.21037" lon="2.33836">
        <ele>1032.6</ele>
        <time>2022-05-21 23:25:01</time>
      </trkpt>
      <trkpt lat="42.2103" lon="2.33835">
        <ele>1032.2</ele>
        <time>2022-05-21 23:25:02</time>
      </trkpt>
      <trkpt lat="42.21023" lon="2.33835">
        <ele>1032</ele>
        <time>2022-05-21 23:25:03</time>
      </trkpt>
      <trkpt lat="42.21016" lon="2.33834">
        <ele>1031.8</ele>
        <time>2022-05-21 23:25:04</time>
      </trkpt>
      <trkpt lat="42.21009" lon="2.33833">
        <ele>1031.6</ele>
        <time>2022-05-21 23:25:05</time>
      </trkpt>
      <trkpt lat="42.21002" lon="2.33833">
        <ele>1031.4</ele>
        <time>2022-05-21 23:25:06</time>
      </trkpt>
      <trkpt lat="42.20996" lon="2.33833">
        <ele>1031.4</ele>
        <time>2022-05-21 23:25:07</time>
      </trkpt>
      <trkpt lat="42.20989" lon="2.33833">
        <ele>1031.2</ele>
        <time>2022-05-21 23:25:08</time>
      </trkpt>
      <trkpt lat="42.20983" lon="2.33834">
        <ele>1031</ele>
        <time>2022-05-21 23:25:09</time>
      </trkpt>
      <trkpt lat="42.20977" lon="2.33835">
        <ele>1030.8</ele>
        <time>2022-05-21 23:25:10</time>
      </trkpt>
      <trkpt lat="42.2097" lon="2.33836">
        <ele>1030.8</ele>
        <time>2022-05-21 23:25:11</time>
      </trkpt>
      <trkpt lat="42.20964" lon="2.33837">
        <ele>1030.6</ele>
        <time>2022-05-21 23:25:12</time>
      </trkpt>
      <trkpt lat="42.20958" lon="2.33839">
        <ele>1030.4</ele>
        <time>2022-05-21 23:25:13</time>
      </trkpt>
      <trkpt lat="42.20953" lon="2.33841">
        <ele>1030.2</ele>
        <time>2022-05-21 23:25:14</time>
      </trkpt>
      <trkpt lat="42.20949" lon="2.33843">
        <ele>1030</ele>
        <time>2022-05-21 23:25:15</time>
      </trkpt>
      <trkpt lat="42.20946" lon="2.33845">
        <ele>1029.8</ele>
        <time>2022-05-21 23:25:16</time>
      </trkpt>
      <trkpt lat="42.20943" lon="2.33853">
        <ele>1029.8</ele>
        <time>2022-05-21 23:25:17</time>
      </trkpt>
      <trkpt lat="42.2094" lon="2.33865">
        <ele>1029.8</ele>
        <time>2022-05-21 23:25:18</time>
      </trkpt>
      <trkpt lat="42.20939" lon="2.33874">
        <ele>1029.6</ele>
        <time>2022-05-21 23:25:19</time>
      </trkpt>
      <trkpt lat="42.20939" lon="2.3388">
        <ele>1029.4</ele>
        <time>2022-05-21 23:25:20</time>
      </trkpt>
      <trkpt lat="42.2094" lon="2.33886">
        <ele>1029.4</ele>
        <time>2022-05-21 23:25:21</time>
      </trkpt>
      <trkpt lat="42.20941" lon="2.33892">
        <ele>1029.2</ele>
        <time>2022-05-21 23:25:22</time>
      </trkpt>
      <trkpt lat="42.20944" lon="2.33897">
        <ele>1029.2</ele>
        <time>2022-05-21 23:25:23</time>
      </trkpt>
      <trkpt lat="42.20948" lon="2.33904">
        <ele>1029</ele>
        <time>2022-05-21 23:25:24</time>
      </trkpt>
      <trkpt lat="42.20952" lon="2.33909">
        <ele>1028.8</ele>
        <time>2022-05-21 23:25:25</time>
      </trkpt>
      <trkpt lat="42.20958" lon="2.33913">
        <ele>1028.8</ele>
        <time>2022-05-21 23:25:26</time>
      </trkpt>
      <trkpt lat="42.20963" lon="2.33917">
        <ele>1028.6</ele>
        <time>2022-05-21 23:25:27</time>
      </trkpt>
      <trkpt lat="42.20969" lon="2.33922">
        <ele>1028.4</ele>
        <time>2022-05-21 23:25:28</time>
      </trkpt>
      <trkpt lat="42.20975" lon="2.33927">
        <ele>1028.2</ele>
        <time>2022-05-21 23:25:29</time>
      </trkpt>
      <trkpt lat="42.2098" lon="2.33932">
        <ele>1028</ele>
        <time>2022-05-21 23:25:30</time>
      </trkpt>
      <trkpt lat="42.20985" lon="2.33939">
        <ele>1028</ele>
        <time>2022-05-21 23:25:31</time>
      </trkpt>
      <trkpt lat="42.20989" lon="2.33947">
        <ele>1027.8</ele>
        <time>2022-05-21 23:25:32</time>
      </trkpt>
      <trkpt lat="42.20993" lon="2.33955">
        <ele>1027.6</ele>
        <time>2022-05-21 23:25:33</time>
      </trkpt>
      <trkpt lat="42.20996" lon="2.33963">
        <ele>1027.4</ele>
        <time>2022-05-21 23:25:34</time>
      </trkpt>
      <trkpt lat="42.20999" lon="2.33971">
        <ele>1027.4</ele>
        <time>2022-05-21 23:25:35</time>
      </trkpt>
      <trkpt lat="42.21002" lon="2.33979">
        <ele>1027.2</ele>
        <time>2022-05-21 23:25:36</time>
      </trkpt>
      <trkpt lat="42.21005" lon="2.33986">
        <ele>1027.2</ele>
        <time>2022-05-21 23:25:37</time>
      </trkpt>
      <trkpt lat="42.21008" lon="2.33992">
        <ele>1027</ele>
        <time>2022-05-21 23:25:38</time>
      </trkpt>
      <trkpt lat="42.21011" lon="2.33998">
        <ele>1026.8</ele>
        <time>2022-05-21 23:25:39</time>
      </trkpt>
      <trkpt lat="42.21015" lon="2.34004">
        <ele>1026.8</ele>
        <time>2022-05-21 23:25:40</time>
      </trkpt>
      <trkpt lat="42.2102" lon="2.34009">
        <ele>1026.6</ele>
        <time>2022-05-21 23:25:41</time>
      </trkpt>
      <trkpt lat="42.21024" lon="2.34015">
        <ele>1026.6</ele>
        <time>2022-05-21 23:25:42</time>
      </trkpt>
      <trkpt lat="42.21029" lon="2.34023">
        <ele>1026.4</ele>
        <time>2022-05-21 23:25:43</time>
      </trkpt>
      <trkpt lat="42.21032" lon="2.34032">
        <ele>1026.4</ele>
        <time>2022-05-21 23:25:44</time>
      </trkpt>
      <trkpt lat="42.21035" lon="2.3404">
        <ele>1026.2</ele>
        <time>2022-05-21 23:25:45</time>
      </trkpt>
      <trkpt lat="42.21036" lon="2.34049">
        <ele>1026.2</ele>
        <time>2022-05-21 23:25:46</time>
      </trkpt>
      <trkpt lat="42.21038" lon="2.34058">
        <ele>1026.2</ele>
        <time>2022-05-21 23:25:47</time>
      </trkpt>
      <trkpt lat="42.21039" lon="2.34067">
        <ele>1026</ele>
        <time>2022-05-21 23:25:48</time>
      </trkpt>
      <trkpt lat="42.21038" lon="2.34075">
        <ele>1026</ele>
        <time>2022-05-21 23:25:49</time>
      </trkpt>
      <trkpt lat="42.21037" lon="2.34083">
        <ele>1025.8</ele>
        <time>2022-05-21 23:25:50</time>
      </trkpt>
      <trkpt lat="42.21034" lon="2.34091">
        <ele>1025.6</ele>
        <time>2022-05-21 23:25:51</time>
      </trkpt>
      <trkpt lat="42.21031" lon="2.34097">
        <ele>1025.4</ele>
        <time>2022-05-21 23:25:52</time>
      </trkpt>
      <trkpt lat="42.21027" lon="2.34103">
        <ele>1025.2</ele>
        <time>2022-05-21 23:25:53</time>
      </trkpt>
      <trkpt lat="42.21023" lon="2.34108">
        <ele>1025</ele>
        <time>2022-05-21 23:25:54</time>
      </trkpt>
      <trkpt lat="42.21019" lon="2.34112">
        <ele>1024.8</ele>
        <time>2022-05-21 23:25:55</time>
      </trkpt>
      <trkpt lat="42.21016" lon="2.34115">
        <ele>1024.4</ele>
        <time>2022-05-21 23:25:56</time>
      </trkpt>
      <trkpt lat="42.21014" lon="2.34119">
        <ele>1024.2</ele>
        <time>2022-05-21 23:25:57</time>
      </trkpt>
      <trkpt lat="42.21011" lon="2.34124">
        <ele>1024</ele>
        <time>2022-05-21 23:25:58</time>
      </trkpt>
      <trkpt lat="42.21009" lon="2.3413">
        <ele>1023.8</ele>
        <time>2022-05-21 23:25:59</time>
      </trkpt>
      <trkpt lat="42.21008" lon="2.34136">
        <ele>1023.6</ele>
        <time>2022-05-21 23:26:00</time>
      </trkpt>
      <trkpt lat="42.21007" lon="2.34143">
        <ele>1023.4</ele>
        <time>2022-05-21 23:26:01</time>
      </trkpt>
      <trkpt lat="42.21007" lon="2.34151">
        <ele>1023.2</ele>
        <time>2022-05-21 23:26:02</time>
      </trkpt>
      <trkpt lat="42.21007" lon="2.3416">
        <ele>1022.8</ele>
        <time>2022-05-21 23:26:03</time>
      </trkpt>
      <trkpt lat="42.21008" lon="2.34169">
        <ele>1022.6</ele>
        <time>2022-05-21 23:26:04</time>
      </trkpt>
      <trkpt lat="42.2101" lon="2.34178">
        <ele>1022.4</ele>
        <time>2022-05-21 23:26:05</time>
      </trkpt>
      <trkpt lat="42.21012" lon="2.34187">
        <ele>1022.2</ele>
        <time>2022-05-21 23:26:06</time>
      </trkpt>
      <trkpt lat="42.21014" lon="2.34198">
        <ele>1022</ele>
        <time>2022-05-21 23:26:07</time>
      </trkpt>
      <trkpt lat="42.21015" lon="2.34208">
        <ele>1021.8</ele>
        <time>2022-05-21 23:26:08</time>
      </trkpt>
      <trkpt lat="42.21017" lon="2.34217">
        <ele>1021.6</ele>
        <time>2022-05-21 23:26:09</time>
      </trkpt>
      <trkpt lat="42.21018" lon="2.34227">
        <ele>1021.2</ele>
        <time>2022-05-21 23:26:10</time>
      </trkpt>
      <trkpt lat="42.2102" lon="2.34238">
        <ele>1021</ele>
        <time>2022-05-21 23:26:11</time>
      </trkpt>
      <trkpt lat="42.21023" lon="2.34249">
        <ele>1020.6</ele>
        <time>2022-05-21 23:26:12</time>
      </trkpt>
      <trkpt lat="42.21025" lon="2.3426">
        <ele>1020.4</ele>
        <time>2022-05-21 23:26:13</time>
      </trkpt>
      <trkpt lat="42.21026" lon="2.3427">
        <ele>1020.2</ele>
        <time>2022-05-21 23:26:14</time>
      </trkpt>
      <trkpt lat="42.21027" lon="2.34279">
        <ele>1020</ele>
        <time>2022-05-21 23:26:15</time>
      </trkpt>
      <trkpt lat="42.21027" lon="2.34286">
        <ele>1019.6</ele>
        <time>2022-05-21 23:26:16</time>
      </trkpt>
      <trkpt lat="42.21025" lon="2.34293">
        <ele>1019.4</ele>
        <time>2022-05-21 23:26:17</time>
      </trkpt>
      <trkpt lat="42.21021" lon="2.34298">
        <ele>1019</ele>
        <time>2022-05-21 23:26:18</time>
      </trkpt>
      <trkpt lat="42.21018" lon="2.34302">
        <ele>1018.8</ele>
        <time>2022-05-21 23:26:19</time>
      </trkpt>
      <trkpt lat="42.21013" lon="2.34306">
        <ele>1018.4</ele>
        <time>2022-05-21 23:26:20</time>
      </trkpt>
      <trkpt lat="42.21006" lon="2.34308">
        <ele>1018.2</ele>
        <time>2022-05-21 23:26:21</time>
      </trkpt>
      <trkpt lat="42.21001" lon="2.3431">
        <ele>1017.8</ele>
        <time>2022-05-21 23:26:22</time>
      </trkpt>
      <trkpt lat="42.20996" lon="2.34312">
        <ele>1017.6</ele>
        <time>2022-05-21 23:26:23</time>
      </trkpt>
      <trkpt lat="42.20992" lon="2.34314">
        <ele>1017.4</ele>
        <time>2022-05-21 23:26:24</time>
      </trkpt>
      <trkpt lat="42.20987" lon="2.34316">
        <ele>1017.2</ele>
        <time>2022-05-21 23:26:25</time>
      </trkpt>
      <trkpt lat="42.20983" lon="2.34319">
        <ele>1017</ele>
        <time>2022-05-21 23:26:26</time>
      </trkpt>
      <trkpt lat="42.2098" lon="2.34323">
        <ele>1016.8</ele>
        <time>2022-05-21 23:26:27</time>
      </trkpt>
      <trkpt lat="42.20977" lon="2.3433">
        <ele>1016.6</ele>
        <time>2022-05-21 23:26:28</time>
      </trkpt>
      <trkpt lat="42.20974" lon="2.34339">
        <ele>1016.4</ele>
        <time>2022-05-21 23:26:29</time>
      </trkpt>
      <trkpt lat="42.20971" lon="2.34349">
        <ele>1016.2</ele>
        <time>2022-05-21 23:26:30</time>
      </trkpt>
      <trkpt lat="42.20967" lon="2.3436">
        <ele>1016</ele>
        <time>2022-05-21 23:26:31</time>
      </trkpt>
      <trkpt lat="42.20964" lon="2.3437">
        <ele>1015.8</ele>
        <time>2022-05-21 23:26:32</time>
      </trkpt>
      <trkpt lat="42.2096" lon="2.34379">
        <ele>1015.6</ele>
        <time>2022-05-21 23:26:33</time>
      </trkpt>
      <trkpt lat="42.20955" lon="2.34388">
        <ele>1015.2</ele>
        <time>2022-05-21 23:26:34</time>
      </trkpt>
      <trkpt lat="42.20949" lon="2.34395">
        <ele>1014.8</ele>
        <time>2022-05-21 23:26:35</time>
      </trkpt>
      <trkpt lat="42.20944" lon="2.34402">
        <ele>1014.6</ele>
        <time>2022-05-21 23:26:36</time>
      </trkpt>
      <trkpt lat="42.20938" lon="2.3441">
        <ele>1014.4</ele>
        <time>2022-05-21 23:26:37</time>
      </trkpt>
      <trkpt lat="42.20934" lon="2.3442">
        <ele>1014</ele>
        <time>2022-05-21 23:26:38</time>
      </trkpt>
      <trkpt lat="42.20931" lon="2.34429">
        <ele>1013.8</ele>
        <time>2022-05-21 23:26:39</time>
      </trkpt>
      <trkpt lat="42.20931" lon="2.34438">
        <ele>1013.6</ele>
        <time>2022-05-21 23:26:40</time>
      </trkpt>
      <trkpt lat="42.20932" lon="2.34446">
        <ele>1013.4</ele>
        <time>2022-05-21 23:26:41</time>
      </trkpt>
      <trkpt lat="42.20934" lon="2.34453">
        <ele>1013.2</ele>
        <time>2022-05-21 23:26:42</time>
      </trkpt>
      <trkpt lat="42.20938" lon="2.34459">
        <ele>1013</ele>
        <time>2022-05-21 23:26:43</time>
      </trkpt>
      <trkpt lat="42.20943" lon="2.34464">
        <ele>1012.8</ele>
        <time>2022-05-21 23:26:44</time>
      </trkpt>
      <trkpt lat="42.20947" lon="2.3447">
        <ele>1012.6</ele>
        <time>2022-05-21 23:26:45</time>
      </trkpt>
      <trkpt lat="42.20953" lon="2.34477">
        <ele>1012.2</ele>
        <time>2022-05-21 23:26:46</time>
      </trkpt>
      <trkpt lat="42.20958" lon="2.34485">
        <ele>1012</ele>
        <time>2022-05-21 23:26:47</time>
      </trkpt>
      <trkpt lat="42.20964" lon="2.34492">
        <ele>1011.8</ele>
        <time>2022-05-21 23:26:48</time>
      </trkpt>
      <trkpt lat="42.20969" lon="2.34501">
        <ele>1011.4</ele>
        <time>2022-05-21 23:26:49</time>
      </trkpt>
      <trkpt lat="42.20974" lon="2.34509">
        <ele>1011.2</ele>
        <time>2022-05-21 23:26:50</time>
      </trkpt>
      <trkpt lat="42.2098" lon="2.34516">
        <ele>1010.8</ele>
        <time>2022-05-21 23:26:51</time>
      </trkpt>
      <trkpt lat="42.20986" lon="2.34524">
        <ele>1010.6</ele>
        <time>2022-05-21 23:26:52</time>
      </trkpt>
      <trkpt lat="42.20992" lon="2.34531">
        <ele>1010.2</ele>
        <time>2022-05-21 23:26:53</time>
      </trkpt>
      <trkpt lat="42.20998" lon="2.34538">
        <ele>1010</ele>
        <time>2022-05-21 23:26:54</time>
      </trkpt>
      <trkpt lat="42.21005" lon="2.34545">
        <ele>1009.8</ele>
        <time>2022-05-21 23:26:55</time>
      </trkpt>
      <trkpt lat="42.21011" lon="2.34552">
        <ele>1009.6</ele>
        <time>2022-05-21 23:26:56</time>
      </trkpt>
      <trkpt lat="42.21017" lon="2.34559">
        <ele>1009.4</ele>
        <time>2022-05-21 23:26:57</time>
      </trkpt>
      <trkpt lat="42.21022" lon="2.34566">
        <ele>1009.2</ele>
        <time>2022-05-21 23:26:58</time>
      </trkpt>
      <trkpt lat="42.21026" lon="2.34572">
        <ele>1009</ele>
        <time>2022-05-21 23:26:59</time>
      </trkpt>
      <trkpt lat="42.2103" lon="2.34579">
        <ele>1009</ele>
        <time>2022-05-21 23:27:00</time>
      </trkpt>
      <trkpt lat="42.21034" lon="2.34586">
        <ele>1008.8</ele>
        <time>2022-05-21 23:27:01</time>
      </trkpt>
      <trkpt lat="42.21038" lon="2.34593">
        <ele>1008.8</ele>
        <time>2022-05-21 23:27:02</time>
      </trkpt>
      <trkpt lat="42.21041" lon="2.346">
        <ele>1008.6</ele>
        <time>2022-05-21 23:27:03</time>
      </trkpt>
      <trkpt lat="42.21044" lon="2.34609">
        <ele>1008.6</ele>
        <time>2022-05-21 23:27:04</time>
      </trkpt>
      <trkpt lat="42.21047" lon="2.34619">
        <ele>1008.6</ele>
        <time>2022-05-21 23:27:05</time>
      </trkpt>
      <trkpt lat="42.21048" lon="2.34629">
        <ele>1008.6</ele>
        <time>2022-05-21 23:27:06</time>
      </trkpt>
      <trkpt lat="42.21049" lon="2.34639">
        <ele>1008.4</ele>
        <time>2022-05-21 23:27:07</time>
      </trkpt>
      <trkpt lat="42.2105" lon="2.34649">
        <ele>1008.4</ele>
        <time>2022-05-21 23:27:08</time>
      </trkpt>
      <trkpt lat="42.21051" lon="2.34659">
        <ele>1008.4</ele>
        <time>2022-05-21 23:27:09</time>
      </trkpt>
      <trkpt lat="42.21052" lon="2.34669">
        <ele>1008.4</ele>
        <time>2022-05-21 23:27:10</time>
      </trkpt>
      <trkpt lat="42.21053" lon="2.34678">
        <ele>1008.4</ele>
        <time>2022-05-21 23:27:11</time>
      </trkpt>
      <trkpt lat="42.21054" lon="2.34687">
        <ele>1008.4</ele>
        <time>2022-05-21 23:27:12</time>
      </trkpt>
      <trkpt lat="42.21055" lon="2.34697">
        <ele>1008.2</ele>
        <time>2022-05-21 23:27:13</time>
      </trkpt>
      <trkpt lat="42.21056" lon="2.34707">
        <ele>1008.2</ele>
        <time>2022-05-21 23:27:14</time>
      </trkpt>
      <trkpt lat="42.21056" lon="2.34717">
        <ele>1008.2</ele>
        <time>2022-05-21 23:27:15</time>
      </trkpt>
      <trkpt lat="42.21056" lon="2.34726">
        <ele>1008.2</ele>
        <time>2022-05-21 23:27:16</time>
      </trkpt>
      <trkpt lat="42.21055" lon="2.34735">
        <ele>1008.2</ele>
        <time>2022-05-21 23:27:17</time>
      </trkpt>
      <trkpt lat="42.21053" lon="2.34743">
        <ele>1008.2</ele>
        <time>2022-05-21 23:27:18</time>
      </trkpt>
      <trkpt lat="42.2105" lon="2.34751">
        <ele>1008.2</ele>
        <time>2022-05-21 23:27:19</time>
      </trkpt>
      <trkpt lat="42.21047" lon="2.34758">
        <ele>1008.2</ele>
        <time>2022-05-21 23:27:20</time>
      </trkpt>
      <trkpt lat="42.21043" lon="2.34764">
        <ele>1008.2</ele>
        <time>2022-05-21 23:27:21</time>
      </trkpt>
      <trkpt lat="42.2104" lon="2.34771">
        <ele>1008.4</ele>
        <time>2022-05-21 23:27:22</time>
      </trkpt>
      <trkpt lat="42.21037" lon="2.34777">
        <ele>1008.4</ele>
        <time>2022-05-21 23:27:23</time>
      </trkpt>
      <trkpt lat="42.21034" lon="2.34784">
        <ele>1008.4</ele>
        <time>2022-05-21 23:27:24</time>
      </trkpt>
      <trkpt lat="42.21032" lon="2.34791">
        <ele>1008.6</ele>
        <time>2022-05-21 23:27:25</time>
      </trkpt>
      <trkpt lat="42.21031" lon="2.34798">
        <ele>1008.8</ele>
        <time>2022-05-21 23:27:26</time>
      </trkpt>
      <trkpt lat="42.21031" lon="2.34805">
        <ele>1009</ele>
        <time>2022-05-21 23:27:27</time>
      </trkpt>
      <trkpt lat="42.21031" lon="2.34811">
        <ele>1009.2</ele>
        <time>2022-05-21 23:27:28</time>
      </trkpt>
      <trkpt lat="42.21031" lon="2.34816">
        <ele>1009.4</ele>
        <time>2022-05-21 23:27:29</time>
      </trkpt>
      <trkpt lat="42.21032" lon="2.34821">
        <ele>1009.8</ele>
        <time>2022-05-21 23:27:30</time>
      </trkpt>
      <trkpt lat="42.21031" lon="2.34826">
        <ele>1010</ele>
        <time>2022-05-21 23:27:31</time>
      </trkpt>
      <trkpt lat="42.21031" lon="2.3483">
        <ele>1010.4</ele>
        <time>2022-05-21 23:27:32</time>
      </trkpt>
      <trkpt lat="42.21031" lon="2.34833">
        <ele>1010.6</ele>
        <time>2022-05-21 23:27:33</time>
      </trkpt>
      <trkpt lat="42.2103" lon="2.34837">
        <ele>1011</ele>
        <time>2022-05-21 23:27:34</time>
      </trkpt>
      <trkpt lat="42.2103" lon="2.3484">
        <ele>1011.2</ele>
        <time>2022-05-21 23:27:35</time>
      </trkpt>
      <trkpt lat="42.21029" lon="2.34843">
        <ele>1011.6</ele>
        <time>2022-05-21 23:27:36</time>
      </trkpt>
      <trkpt lat="42.21029" lon="2.34847">
        <ele>1012</ele>
        <time>2022-05-21 23:27:37</time>
      </trkpt>
      <trkpt lat="42.21029" lon="2.3485">
        <ele>1012.2</ele>
        <time>2022-05-21 23:27:38</time>
      </trkpt>
      <trkpt lat="42.21028" lon="2.34853">
        <ele>1012.6</ele>
        <time>2022-05-21 23:27:39</time>
      </trkpt>
      <trkpt lat="42.21027" lon="2.34857">
        <ele>1012.8</ele>
        <time>2022-05-21 23:27:40</time>
      </trkpt>
      <trkpt lat="42.21027" lon="2.3486">
        <ele>1013</ele>
        <time>2022-05-21 23:27:41</time>
      </trkpt>
      <trkpt lat="42.21026" lon="2.34863">
        <ele>1013.4</ele>
        <time>2022-05-21 23:27:42</time>
      </trkpt>
      <trkpt lat="42.21025" lon="2.34866">
        <ele>1013.6</ele>
        <time>2022-05-21 23:27:43</time>
      </trkpt>
      <trkpt lat="42.21024" lon="2.34868">
        <ele>1013.8</ele>
        <time>2022-05-21 23:27:44</time>
      </trkpt>
      <trkpt lat="42.21022" lon="2.34871">
        <ele>1013.8</ele>
        <time>2022-05-21 23:27:45</time>
      </trkpt>
      <trkpt lat="42.21021" lon="2.34873">
        <ele>1014</ele>
        <time>2022-05-21 23:27:46</time>
      </trkpt>
      <trkpt lat="42.2102" lon="2.34876">
        <ele>1014.2</ele>
        <time>2022-05-21 23:27:47</time>
      </trkpt>
      <trkpt lat="42.21019" lon="2.34879">
        <ele>1014.4</ele>
        <time>2022-05-21 23:27:48</time>
      </trkpt>
      <trkpt lat="42.21018" lon="2.34881">
        <ele>1014.6</ele>
        <time>2022-05-21 23:27:49</time>
      </trkpt>
      <trkpt lat="42.21017" lon="2.34884">
        <ele>1014.6</ele>
        <time>2022-05-21 23:27:50</time>
      </trkpt>
      <trkpt lat="42.21016" lon="2.34887">
        <ele>1014.8</ele>
        <time>2022-05-21 23:27:51</time>
      </trkpt>
      <trkpt lat="42.21016" lon="2.3489">
        <ele>1015</ele>
        <time>2022-05-21 23:27:52</time>
      </trkpt>
      <trkpt lat="42.21015" lon="2.34893">
        <ele>1015</ele>
        <time>2022-05-21 23:27:53</time>
      </trkpt>
      <trkpt lat="42.21015" lon="2.34896">
        <ele>1015.2</ele>
        <time>2022-05-21 23:27:54</time>
      </trkpt>
      <trkpt lat="42.21015" lon="2.34898">
        <ele>1015.4</ele>
        <time>2022-05-21 23:27:55</time>
      </trkpt>
      <trkpt lat="42.21015" lon="2.34901">
        <ele>1015.4</ele>
        <time>2022-05-21 23:27:56</time>
      </trkpt>
      <trkpt lat="42.21015" lon="2.34904">
        <ele>1015.6</ele>
        <time>2022-05-21 23:27:57</time>
      </trkpt>
      <trkpt lat="42.21015" lon="2.34907">
        <ele>1015.8</ele>
        <time>2022-05-21 23:27:58</time>
      </trkpt>
      <trkpt lat="42.21015" lon="2.3491">
        <ele>1016</ele>
        <time>2022-05-21 23:27:59</time>
      </trkpt>
      <trkpt lat="42.21014" lon="2.34913">
        <ele>1016</ele>
        <time>2022-05-21 23:28:00</time>
      </trkpt>
      <trkpt lat="42.21015" lon="2.34917">
        <ele>1016.2</ele>
        <time>2022-05-21 23:28:01</time>
      </trkpt>
      <trkpt lat="42.21015" lon="2.3492">
        <ele>1016.4</ele>
        <time>2022-05-21 23:28:02</time>
      </trkpt>
      <trkpt lat="42.21015" lon="2.34923">
        <ele>1016.4</ele>
        <time>2022-05-21 23:28:03</time>
      </trkpt>
      <trkpt lat="42.21014" lon="2.34926">
        <ele>1016.6</ele>
        <time>2022-05-21 23:28:04</time>
      </trkpt>
      <trkpt lat="42.21014" lon="2.34929">
        <ele>1016.8</ele>
        <time>2022-05-21 23:28:05</time>
      </trkpt>
      <trkpt lat="42.21013" lon="2.34931">
        <ele>1016.8</ele>
        <time>2022-05-21 23:28:06</time>
      </trkpt>
      <trkpt lat="42.21013" lon="2.34934">
        <ele>1017</ele>
        <time>2022-05-21 23:28:07</time>
      </trkpt>
      <trkpt lat="42.21013" lon="2.34938">
        <ele>1017.2</ele>
        <time>2022-05-21 23:28:08</time>
      </trkpt>
      <trkpt lat="42.21012" lon="2.34941">
        <ele>1017.2</ele>
        <time>2022-05-21 23:28:09</time>
      </trkpt>
      <trkpt lat="42.21012" lon="2.34944">
        <ele>1017.4</ele>
        <time>2022-05-21 23:28:10</time>
      </trkpt>
      <trkpt lat="42.21012" lon="2.34947">
        <ele>1017.4</ele>
        <time>2022-05-21 23:28:11</time>
      </trkpt>
      <trkpt lat="42.21012" lon="2.3495">
        <ele>1017.6</ele>
        <time>2022-05-21 23:28:12</time>
      </trkpt>
      <trkpt lat="42.21012" lon="2.34953">
        <ele>1017.8</ele>
        <time>2022-05-21 23:28:13</time>
      </trkpt>
      <trkpt lat="42.21011" lon="2.34957">
        <ele>1017.8</ele>
        <time>2022-05-21 23:28:14</time>
      </trkpt>
      <trkpt lat="42.21011" lon="2.3496">
        <ele>1018</ele>
        <time>2022-05-21 23:28:15</time>
      </trkpt>
      <trkpt lat="42.2101" lon="2.34963">
        <ele>1018.2</ele>
        <time>2022-05-21 23:28:16</time>
      </trkpt>
      <trkpt lat="42.2101" lon="2.34966">
        <ele>1018.2</ele>
        <time>2022-05-21 23:28:17</time>
      </trkpt>
      <trkpt lat="42.2101" lon="2.34968">
        <ele>1018.4</ele>
        <time>2022-05-21 23:28:18</time>
      </trkpt>
      <trkpt lat="42.2101" lon="2.34971">
        <ele>1018.4</ele>
        <time>2022-05-21 23:28:19</time>
      </trkpt>
      <trkpt lat="42.2101" lon="2.34973">
        <ele>1018.6</ele>
        <time>2022-05-21 23:28:20</time>
      </trkpt>
      <trkpt lat="42.2101" lon="2.34977">
        <ele>1018.8</ele>
        <time>2022-05-21 23:28:21</time>
      </trkpt>
      <trkpt lat="42.21009" lon="2.34979">
        <ele>1018.8</ele>
        <time>2022-05-21 23:28:22</time>
      </trkpt>
      <trkpt lat="42.21009" lon="2.34982">
        <ele>1019</ele>
        <time>2022-05-21 23:28:23</time>
      </trkpt>
      <trkpt lat="42.21008" lon="2.34986">
        <ele>1019.2</ele>
        <time>2022-05-21 23:28:24</time>
      </trkpt>
      <trkpt lat="42.21008" lon="2.34989">
        <ele>1019.4</ele>
        <time>2022-05-21 23:28:25</time>
      </trkpt>
      <trkpt lat="42.21008" lon="2.34993">
        <ele>1019.4</ele>
        <time>2022-05-21 23:28:26</time>
      </trkpt>
      <trkpt lat="42.21007" lon="2.34996">
        <ele>1019.6</ele>
        <time>2022-05-21 23:28:27</time>
      </trkpt>
      <trkpt lat="42.21007" lon="2.34999">
        <ele>1019.8</ele>
        <time>2022-05-21 23:28:28</time>
      </trkpt>
      <trkpt lat="42.21007" lon="2.35002">
        <ele>1020</ele>
        <time>2022-05-21 23:28:29</time>
      </trkpt>
      <trkpt lat="42.21007" lon="2.35005">
        <ele>1020</ele>
        <time>2022-05-21 23:28:30</time>
      </trkpt>
      <trkpt lat="42.21006" lon="2.35008">
        <ele>1020.2</ele>
        <time>2022-05-21 23:28:31</time>
      </trkpt>
      <trkpt lat="42.21006" lon="2.3501">
        <ele>1020.4</ele>
        <time>2022-05-21 23:28:32</time>
      </trkpt>
      <trkpt lat="42.21006" lon="2.35013">
        <ele>1020.6</ele>
        <time>2022-05-21 23:28:33</time>
      </trkpt>
      <trkpt lat="42.21005" lon="2.35016">
        <ele>1020.8</ele>
        <time>2022-05-21 23:28:34</time>
      </trkpt>
      <trkpt lat="42.21005" lon="2.35019">
        <ele>1020.8</ele>
        <time>2022-05-21 23:28:35</time>
      </trkpt>
      <trkpt lat="42.21005" lon="2.35023">
        <ele>1021</ele>
        <time>2022-05-21 23:28:36</time>
      </trkpt>
      <trkpt lat="42.21004" lon="2.35026">
        <ele>1021.2</ele>
        <time>2022-05-21 23:28:37</time>
      </trkpt>
      <trkpt lat="42.21004" lon="2.35029">
        <ele>1021.4</ele>
        <time>2022-05-21 23:28:38</time>
      </trkpt>
      <trkpt lat="42.21004" lon="2.35032">
        <ele>1021.6</ele>
        <time>2022-05-21 23:28:39</time>
      </trkpt>
      <trkpt lat="42.21003" lon="2.35035">
        <ele>1021.6</ele>
        <time>2022-05-21 23:28:40</time>
      </trkpt>
      <trkpt lat="42.21003" lon="2.35037">
        <ele>1021.8</ele>
        <time>2022-05-21 23:28:41</time>
      </trkpt>
      <trkpt lat="42.21002" lon="2.3504">
        <ele>1022</ele>
        <time>2022-05-21 23:28:42</time>
      </trkpt>
      <trkpt lat="42.21001" lon="2.35044">
        <ele>1022</ele>
        <time>2022-05-21 23:28:43</time>
      </trkpt>
      <trkpt lat="42.21001" lon="2.35047">
        <ele>1022.2</ele>
        <time>2022-05-21 23:28:44</time>
      </trkpt>
      <trkpt lat="42.21" lon="2.3505">
        <ele>1022.4</ele>
        <time>2022-05-21 23:28:45</time>
      </trkpt>
      <trkpt lat="42.20999" lon="2.35054">
        <ele>1022.4</ele>
        <time>2022-05-21 23:28:46</time>
      </trkpt>
      <trkpt lat="42.20998" lon="2.35057">
        <ele>1022.6</ele>
        <time>2022-05-21 23:28:47</time>
      </trkpt>
      <trkpt lat="42.20998" lon="2.3506">
        <ele>1022.8</ele>
        <time>2022-05-21 23:28:48</time>
      </trkpt>
      <trkpt lat="42.20997" lon="2.35063">
        <ele>1023</ele>
        <time>2022-05-21 23:28:49</time>
      </trkpt>
      <trkpt lat="42.20996" lon="2.35066">
        <ele>1023</ele>
        <time>2022-05-21 23:28:50</time>
      </trkpt>
      <trkpt lat="42.20995" lon="2.35068">
        <ele>1023.2</ele>
        <time>2022-05-21 23:28:51</time>
      </trkpt>
      <trkpt lat="42.20994" lon="2.35069">
        <ele>1023.4</ele>
        <time>2022-05-21 23:28:52</time>
      </trkpt>
      <trkpt lat="42.20993" lon="2.3507">
        <ele>1023.4</ele>
        <time>2022-05-21 23:28:53</time>
      </trkpt>
      <trkpt lat="42.20993" lon="2.35071">
        <ele>1023.4</ele>
        <time>2022-05-21 23:28:54</time>
      </trkpt>
      <trkpt lat="42.20993" lon="2.35071">
        <ele>1023.6</ele>
        <time>2022-05-21 23:28:55</time>
      </trkpt>
      <trkpt lat="42.20993" lon="2.35071">
        <ele>1023.6</ele>
        <time>2022-05-21 23:28:56</time>
      </trkpt>
      <trkpt lat="42.20993" lon="2.35071">
        <ele>1023.6</ele>
        <time>2022-05-21 23:28:57</time>
      </trkpt>
      <trkpt lat="42.20993" lon="2.35074">
        <ele>1023.4</ele>
        <time>2022-05-21 23:30:28</time>
      </trkpt>
      <trkpt lat="42.20992" lon="2.35076">
        <ele>1023.4</ele>
        <time>2022-05-21 23:30:29</time>
      </trkpt>
      <trkpt lat="42.2099" lon="2.35079">
        <ele>1023.4</ele>
        <time>2022-05-21 23:30:30</time>
      </trkpt>
      <trkpt lat="42.20989" lon="2.35082">
        <ele>1023.6</ele>
        <time>2022-05-21 23:30:31</time>
      </trkpt>
      <trkpt lat="42.20988" lon="2.35084">
        <ele>1023.6</ele>
        <time>2022-05-21 23:30:32</time>
      </trkpt>
      <trkpt lat="42.20987" lon="2.35087">
        <ele>1023.8</ele>
        <time>2022-05-21 23:30:33</time>
      </trkpt>
      <trkpt lat="42.20985" lon="2.35089">
        <ele>1023.8</ele>
        <time>2022-05-21 23:30:34</time>
      </trkpt>
      <trkpt lat="42.20984" lon="2.35092">
        <ele>1024</ele>
        <time>2022-05-21 23:30:35</time>
      </trkpt>
      <trkpt lat="42.20983" lon="2.35095">
        <ele>1024</ele>
        <time>2022-05-21 23:30:36</time>
      </trkpt>
      <trkpt lat="42.20981" lon="2.35098">
        <ele>1024.2</ele>
        <time>2022-05-21 23:30:37</time>
      </trkpt>
      <trkpt lat="42.2098" lon="2.35101">
        <ele>1024.2</ele>
        <time>2022-05-21 23:30:38</time>
      </trkpt>
      <trkpt lat="42.20978" lon="2.35104">
        <ele>1024.2</ele>
        <time>2022-05-21 23:30:39</time>
      </trkpt>
      <trkpt lat="42.20977" lon="2.35107">
        <ele>1024.2</ele>
        <time>2022-05-21 23:30:40</time>
      </trkpt>
      <trkpt lat="42.20975" lon="2.3511">
        <ele>1024.4</ele>
        <time>2022-05-21 23:30:41</time>
      </trkpt>
      <trkpt lat="42.20973" lon="2.35113">
        <ele>1024.4</ele>
        <time>2022-05-21 23:30:42</time>
      </trkpt>
      <trkpt lat="42.20971" lon="2.35115">
        <ele>1024.4</ele>
        <time>2022-05-21 23:30:43</time>
      </trkpt>
      <trkpt lat="42.20969" lon="2.35118">
        <ele>1024.6</ele>
        <time>2022-05-21 23:30:44</time>
      </trkpt>
      <trkpt lat="42.20968" lon="2.3512">
        <ele>1024.6</ele>
        <time>2022-05-21 23:30:45</time>
      </trkpt>
      <trkpt lat="42.20966" lon="2.35123">
        <ele>1024.8</ele>
        <time>2022-05-21 23:30:46</time>
      </trkpt>
      <trkpt lat="42.20965" lon="2.35126">
        <ele>1024.8</ele>
        <time>2022-05-21 23:30:47</time>
      </trkpt>
      <trkpt lat="42.20964" lon="2.35129">
        <ele>1024.8</ele>
        <time>2022-05-21 23:30:48</time>
      </trkpt>
      <trkpt lat="42.20963" lon="2.35132">
        <ele>1025</ele>
        <time>2022-05-21 23:30:49</time>
      </trkpt>
      <trkpt lat="42.20962" lon="2.35134">
        <ele>1025</ele>
        <time>2022-05-21 23:30:50</time>
      </trkpt>
      <trkpt lat="42.2096" lon="2.35138">
        <ele>1025</ele>
        <time>2022-05-21 23:30:51</time>
      </trkpt>
      <trkpt lat="42.20958" lon="2.35142">
        <ele>1025</ele>
        <time>2022-05-21 23:30:52</time>
      </trkpt>
      <trkpt lat="42.20956" lon="2.35146">
        <ele>1025</ele>
        <time>2022-05-21 23:30:53</time>
      </trkpt>
      <trkpt lat="42.20955" lon="2.3515">
        <ele>1025</ele>
        <time>2022-05-21 23:30:54</time>
      </trkpt>
      <trkpt lat="42.20954" lon="2.35154">
        <ele>1025</ele>
        <time>2022-05-21 23:30:55</time>
      </trkpt>
      <trkpt lat="42.20952" lon="2.35158">
        <ele>1025</ele>
        <time>2022-05-21 23:30:56</time>
      </trkpt>
      <trkpt lat="42.20951" lon="2.35162">
        <ele>1025</ele>
        <time>2022-05-21 23:30:57</time>
      </trkpt>
      <trkpt lat="42.20949" lon="2.35166">
        <ele>1025.2</ele>
        <time>2022-05-21 23:30:58</time>
      </trkpt>
      <trkpt lat="42.20948" lon="2.3517">
        <ele>1025.2</ele>
        <time>2022-05-21 23:30:59</time>
      </trkpt>
      <trkpt lat="42.20947" lon="2.35175">
        <ele>1025.2</ele>
        <time>2022-05-21 23:31:00</time>
      </trkpt>
      <trkpt lat="42.20945" lon="2.35179">
        <ele>1025.2</ele>
        <time>2022-05-21 23:31:01</time>
      </trkpt>
      <trkpt lat="42.20944" lon="2.35183">
        <ele>1025.2</ele>
        <time>2022-05-21 23:31:02</time>
      </trkpt>
      <trkpt lat="42.20942" lon="2.35188">
        <ele>1025.2</ele>
        <time>2022-05-21 23:31:03</time>
      </trkpt>
      <trkpt lat="42.20941" lon="2.35192">
        <ele>1025.4</ele>
        <time>2022-05-21 23:31:04</time>
      </trkpt>
      <trkpt lat="42.2094" lon="2.35197">
        <ele>1025.4</ele>
        <time>2022-05-21 23:31:05</time>
      </trkpt>
      <trkpt lat="42.20938" lon="2.35202">
        <ele>1025.4</ele>
        <time>2022-05-21 23:31:06</time>
      </trkpt>
      <trkpt lat="42.20937" lon="2.35207">
        <ele>1025.4</ele>
        <time>2022-05-21 23:31:07</time>
      </trkpt>
      <trkpt lat="42.20936" lon="2.35211">
        <ele>1025.6</ele>
        <time>2022-05-21 23:31:08</time>
      </trkpt>
      <trkpt lat="42.20934" lon="2.35216">
        <ele>1025.6</ele>
        <time>2022-05-21 23:31:09</time>
      </trkpt>
      <trkpt lat="42.20933" lon="2.35221">
        <ele>1025.6</ele>
        <time>2022-05-21 23:31:10</time>
      </trkpt>
      <trkpt lat="42.20931" lon="2.35226">
        <ele>1025.8</ele>
        <time>2022-05-21 23:31:11</time>
      </trkpt>
      <trkpt lat="42.20929" lon="2.35231">
        <ele>1025.8</ele>
        <time>2022-05-21 23:31:12</time>
      </trkpt>
      <trkpt lat="42.20928" lon="2.35236">
        <ele>1025.8</ele>
        <time>2022-05-21 23:31:13</time>
      </trkpt>
      <trkpt lat="42.20926" lon="2.3524">
        <ele>1025.8</ele>
        <time>2022-05-21 23:31:14</time>
      </trkpt>
      <trkpt lat="42.20924" lon="2.35243">
        <ele>1025.8</ele>
        <time>2022-05-21 23:31:15</time>
      </trkpt>
      <trkpt lat="42.20921" lon="2.35247">
        <ele>1025.8</ele>
        <time>2022-05-21 23:31:16</time>
      </trkpt>
      <trkpt lat="42.20918" lon="2.35251">
        <ele>1025.8</ele>
        <time>2022-05-21 23:31:17</time>
      </trkpt>
      <trkpt lat="42.20914" lon="2.35254">
        <ele>1025.8</ele>
        <time>2022-05-21 23:31:18</time>
      </trkpt>
      <trkpt lat="42.20911" lon="2.35256">
        <ele>1025.8</ele>
        <time>2022-05-21 23:31:19</time>
      </trkpt>
      <trkpt lat="42.20908" lon="2.35257">
        <ele>1025.8</ele>
        <time>2022-05-21 23:31:20</time>
      </trkpt>
      <trkpt lat="42.20905" lon="2.35259">
        <ele>1025.8</ele>
        <time>2022-05-21 23:31:21</time>
      </trkpt>
      <trkpt lat="42.20902" lon="2.35261">
        <ele>1025.8</ele>
        <time>2022-05-21 23:31:22</time>
      </trkpt>
      <trkpt lat="42.20899" lon="2.35262">
        <ele>1025.8</ele>
        <time>2022-05-21 23:31:23</time>
      </trkpt>
      <trkpt lat="42.20894" lon="2.35264">
        <ele>1025.8</ele>
        <time>2022-05-21 23:31:24</time>
      </trkpt>
      <trkpt lat="42.2089" lon="2.35266">
        <ele>1025.8</ele>
        <time>2022-05-21 23:31:25</time>
      </trkpt>
      <trkpt lat="42.20886" lon="2.35268">
        <ele>1025.8</ele>
        <time>2022-05-21 23:31:26</time>
      </trkpt>
      <trkpt lat="42.20882" lon="2.3527">
        <ele>1025.8</ele>
        <time>2022-05-21 23:31:27</time>
      </trkpt>
      <trkpt lat="42.20878" lon="2.35271">
        <ele>1025.8</ele>
        <time>2022-05-21 23:31:28</time>
      </trkpt>
      <trkpt lat="42.20874" lon="2.35272">
        <ele>1025.8</ele>
        <time>2022-05-21 23:31:29</time>
      </trkpt>
      <trkpt lat="42.20871" lon="2.35274">
        <ele>1025.8</ele>
        <time>2022-05-21 23:31:30</time>
      </trkpt>
      <trkpt lat="42.20867" lon="2.35275">
        <ele>1025.8</ele>
        <time>2022-05-21 23:31:31</time>
      </trkpt>
      <trkpt lat="42.20863" lon="2.35276">
        <ele>1025.8</ele>
        <time>2022-05-21 23:31:32</time>
      </trkpt>
      <trkpt lat="42.20859" lon="2.35277">
        <ele>1025.8</ele>
        <time>2022-05-21 23:31:33</time>
      </trkpt>
      <trkpt lat="42.20855" lon="2.35277">
        <ele>1025.8</ele>
        <time>2022-05-21 23:31:34</time>
      </trkpt>
      <trkpt lat="42.20851" lon="2.35278">
        <ele>1025.8</ele>
        <time>2022-05-21 23:31:35</time>
      </trkpt>
      <trkpt lat="42.20848" lon="2.35279">
        <ele>1025.8</ele>
        <time>2022-05-21 23:31:36</time>
      </trkpt>
      <trkpt lat="42.20845" lon="2.3528">
        <ele>1025.6</ele>
        <time>2022-05-21 23:31:37</time>
      </trkpt>
      <trkpt lat="42.20841" lon="2.35281">
        <ele>1025.6</ele>
        <time>2022-05-21 23:31:38</time>
      </trkpt>
      <trkpt lat="42.20836" lon="2.35282">
        <ele>1025.6</ele>
        <time>2022-05-21 23:31:39</time>
      </trkpt>
      <trkpt lat="42.20832" lon="2.35283">
        <ele>1025.4</ele>
        <time>2022-05-21 23:31:40</time>
      </trkpt>
      <trkpt lat="42.20828" lon="2.35284">
        <ele>1025.4</ele>
        <time>2022-05-21 23:31:41</time>
      </trkpt>
      <trkpt lat="42.20824" lon="2.35286">
        <ele>1025.4</ele>
        <time>2022-05-21 23:31:42</time>
      </trkpt>
      <trkpt lat="42.2082" lon="2.35286">
        <ele>1025.2</ele>
        <time>2022-05-21 23:31:43</time>
      </trkpt>
      <trkpt lat="42.20816" lon="2.35287">
        <ele>1025.2</ele>
        <time>2022-05-21 23:31:44</time>
      </trkpt>
      <trkpt lat="42.20811" lon="2.35287">
        <ele>1025</ele>
        <time>2022-05-21 23:31:45</time>
      </trkpt>
      <trkpt lat="42.20805" lon="2.35287">
        <ele>1025</ele>
        <time>2022-05-21 23:31:46</time>
      </trkpt>
      <trkpt lat="42.20799" lon="2.35288">
        <ele>1025</ele>
        <time>2022-05-21 23:31:47</time>
      </trkpt>
      <trkpt lat="42.20795" lon="2.35289">
        <ele>1025.2</ele>
        <time>2022-05-21 23:31:48</time>
      </trkpt>
      <trkpt lat="42.2079" lon="2.35292">
        <ele>1025.2</ele>
        <time>2022-05-21 23:31:49</time>
      </trkpt>
      <trkpt lat="42.20785" lon="2.35295">
        <ele>1025.2</ele>
        <time>2022-05-21 23:31:50</time>
      </trkpt>
      <trkpt lat="42.20781" lon="2.35298">
        <ele>1025.4</ele>
        <time>2022-05-21 23:31:51</time>
      </trkpt>
      <trkpt lat="42.20779" lon="2.35302">
        <ele>1025.4</ele>
        <time>2022-05-21 23:31:52</time>
      </trkpt>
      <trkpt lat="42.20776" lon="2.35306">
        <ele>1025.4</ele>
        <time>2022-05-21 23:31:53</time>
      </trkpt>
      <trkpt lat="42.20774" lon="2.35312">
        <ele>1025.4</ele>
        <time>2022-05-21 23:31:54</time>
      </trkpt>
      <trkpt lat="42.20773" lon="2.35318">
        <ele>1025.4</ele>
        <time>2022-05-21 23:31:55</time>
      </trkpt>
      <trkpt lat="42.20773" lon="2.35325">
        <ele>1025.4</ele>
        <time>2022-05-21 23:31:56</time>
      </trkpt>
      <trkpt lat="42.20774" lon="2.35331">
        <ele>1025.2</ele>
        <time>2022-05-21 23:31:57</time>
      </trkpt>
      <trkpt lat="42.20775" lon="2.35338">
        <ele>1025.4</ele>
        <time>2022-05-21 23:31:58</time>
      </trkpt>
      <trkpt lat="42.20776" lon="2.35345">
        <ele>1025.2</ele>
        <time>2022-05-21 23:31:59</time>
      </trkpt>
      <trkpt lat="42.20776" lon="2.35352">
        <ele>1025.2</ele>
        <time>2022-05-21 23:32:00</time>
      </trkpt>
      <trkpt lat="42.20777" lon="2.35359">
        <ele>1025.2</ele>
        <time>2022-05-21 23:32:01</time>
      </trkpt>
      <trkpt lat="42.20778" lon="2.35366">
        <ele>1025.2</ele>
        <time>2022-05-21 23:32:02</time>
      </trkpt>
      <trkpt lat="42.20777" lon="2.35373">
        <ele>1025</ele>
        <time>2022-05-21 23:32:03</time>
      </trkpt>
      <trkpt lat="42.20776" lon="2.35382">
        <ele>1025</ele>
        <time>2022-05-21 23:32:04</time>
      </trkpt>
      <trkpt lat="42.20775" lon="2.3539">
        <ele>1025</ele>
        <time>2022-05-21 23:32:05</time>
      </trkpt>
      <trkpt lat="42.20773" lon="2.35398">
        <ele>1025</ele>
        <time>2022-05-21 23:32:06</time>
      </trkpt>
      <trkpt lat="42.20771" lon="2.35407">
        <ele>1024.8</ele>
        <time>2022-05-21 23:32:07</time>
      </trkpt>
      <trkpt lat="42.2077" lon="2.35415">
        <ele>1024.8</ele>
        <time>2022-05-21 23:32:08</time>
      </trkpt>
      <trkpt lat="42.20768" lon="2.35424">
        <ele>1024.8</ele>
        <time>2022-05-21 23:32:09</time>
      </trkpt>
      <trkpt lat="42.20768" lon="2.35431">
        <ele>1024.8</ele>
        <time>2022-05-21 23:32:10</time>
      </trkpt>
      <trkpt lat="42.20767" lon="2.35439">
        <ele>1024.8</ele>
        <time>2022-05-21 23:32:11</time>
      </trkpt>
      <trkpt lat="42.20765" lon="2.35447">
        <ele>1024.8</ele>
        <time>2022-05-21 23:32:12</time>
      </trkpt>
      <trkpt lat="42.20763" lon="2.35455">
        <ele>1024.8</ele>
        <time>2022-05-21 23:32:13</time>
      </trkpt>
      <trkpt lat="42.20762" lon="2.35463">
        <ele>1024.8</ele>
        <time>2022-05-21 23:32:14</time>
      </trkpt>
      <trkpt lat="42.20762" lon="2.35471">
        <ele>1024.8</ele>
        <time>2022-05-21 23:32:15</time>
      </trkpt>
      <trkpt lat="42.20761" lon="2.35478">
        <ele>1024.8</ele>
        <time>2022-05-21 23:32:16</time>
      </trkpt>
      <trkpt lat="42.20761" lon="2.35485">
        <ele>1024.8</ele>
        <time>2022-05-21 23:32:17</time>
      </trkpt>
      <trkpt lat="42.20761" lon="2.35491">
        <ele>1024.8</ele>
        <time>2022-05-21 23:32:18</time>
      </trkpt>
      <trkpt lat="42.20761" lon="2.35498">
        <ele>1024.8</ele>
        <time>2022-05-21 23:32:19</time>
      </trkpt>
      <trkpt lat="42.2076" lon="2.35506">
        <ele>1024.8</ele>
        <time>2022-05-21 23:32:20</time>
      </trkpt>
      <trkpt lat="42.2076" lon="2.35513">
        <ele>1024.8</ele>
        <time>2022-05-21 23:32:21</time>
      </trkpt>
      <trkpt lat="42.2076" lon="2.3552">
        <ele>1024.8</ele>
        <time>2022-05-21 23:32:22</time>
      </trkpt>
      <trkpt lat="42.2076" lon="2.35528">
        <ele>1024.8</ele>
        <time>2022-05-21 23:32:23</time>
      </trkpt>
      <trkpt lat="42.2076" lon="2.35535">
        <ele>1024.6</ele>
        <time>2022-05-21 23:32:24</time>
      </trkpt>
      <trkpt lat="42.20761" lon="2.35543">
        <ele>1024.6</ele>
        <time>2022-05-21 23:32:25</time>
      </trkpt>
      <trkpt lat="42.20761" lon="2.3555">
        <ele>1024.6</ele>
        <time>2022-05-21 23:32:26</time>
      </trkpt>
      <trkpt lat="42.20762" lon="2.35557">
        <ele>1024.6</ele>
        <time>2022-05-21 23:32:27</time>
      </trkpt>
      <trkpt lat="42.20763" lon="2.35563">
        <ele>1024.6</ele>
        <time>2022-05-21 23:32:28</time>
      </trkpt>
      <trkpt lat="42.20763" lon="2.3557">
        <ele>1024.6</ele>
        <time>2022-05-21 23:32:29</time>
      </trkpt>
      <trkpt lat="42.20764" lon="2.35577">
        <ele>1024.6</ele>
        <time>2022-05-21 23:32:30</time>
      </trkpt>
      <trkpt lat="42.20764" lon="2.35585">
        <ele>1024.8</ele>
        <time>2022-05-21 23:32:31</time>
      </trkpt>
      <trkpt lat="42.20765" lon="2.35592">
        <ele>1024.8</ele>
        <time>2022-05-21 23:32:32</time>
      </trkpt>
      <trkpt lat="42.20765" lon="2.35599">
        <ele>1024.8</ele>
        <time>2022-05-21 23:32:33</time>
      </trkpt>
      <trkpt lat="42.20765" lon="2.35605">
        <ele>1024.8</ele>
        <time>2022-05-21 23:32:34</time>
      </trkpt>
      <trkpt lat="42.20766" lon="2.35612">
        <ele>1025</ele>
        <time>2022-05-21 23:32:35</time>
      </trkpt>
      <trkpt lat="42.20766" lon="2.35619">
        <ele>1025</ele>
        <time>2022-05-21 23:32:36</time>
      </trkpt>
      <trkpt lat="42.20766" lon="2.35625">
        <ele>1025</ele>
        <time>2022-05-21 23:32:37</time>
      </trkpt>
      <trkpt lat="42.20765" lon="2.35632">
        <ele>1025</ele>
        <time>2022-05-21 23:32:38</time>
      </trkpt>
      <trkpt lat="42.20762" lon="2.35638">
        <ele>1025.2</ele>
        <time>2022-05-21 23:32:39</time>
      </trkpt>
      <trkpt lat="42.2076" lon="2.35645">
        <ele>1025.2</ele>
        <time>2022-05-21 23:32:40</time>
      </trkpt>
      <trkpt lat="42.20757" lon="2.35653">
        <ele>1025.2</ele>
        <time>2022-05-21 23:32:41</time>
      </trkpt>
      <trkpt lat="42.20755" lon="2.35661">
        <ele>1025.2</ele>
        <time>2022-05-21 23:32:42</time>
      </trkpt>
      <trkpt lat="42.20753" lon="2.35668">
        <ele>1025.2</ele>
        <time>2022-05-21 23:32:43</time>
      </trkpt>
      <trkpt lat="42.20751" lon="2.35676">
        <ele>1025.2</ele>
        <time>2022-05-21 23:32:44</time>
      </trkpt>
      <trkpt lat="42.20749" lon="2.35682">
        <ele>1025.2</ele>
        <time>2022-05-21 23:32:45</time>
      </trkpt>
      <trkpt lat="42.20747" lon="2.35689">
        <ele>1025.2</ele>
        <time>2022-05-21 23:32:46</time>
      </trkpt>
      <trkpt lat="42.20745" lon="2.35694">
        <ele>1025.2</ele>
        <time>2022-05-21 23:32:47</time>
      </trkpt>
      <trkpt lat="42.20743" lon="2.357">
        <ele>1025.2</ele>
        <time>2022-05-21 23:32:48</time>
      </trkpt>
      <trkpt lat="42.20741" lon="2.35706">
        <ele>1025.2</ele>
        <time>2022-05-21 23:32:49</time>
      </trkpt>
      <trkpt lat="42.20738" lon="2.35711">
        <ele>1025.2</ele>
        <time>2022-05-21 23:32:50</time>
      </trkpt>
      <trkpt lat="42.20736" lon="2.35716">
        <ele>1025.2</ele>
        <time>2022-05-21 23:32:51</time>
      </trkpt>
      <trkpt lat="42.20733" lon="2.3572">
        <ele>1025.2</ele>
        <time>2022-05-21 23:32:52</time>
      </trkpt>
      <trkpt lat="42.20731" lon="2.35724">
        <ele>1025.2</ele>
        <time>2022-05-21 23:32:53</time>
      </trkpt>
      <trkpt lat="42.20729" lon="2.35727">
        <ele>1025</ele>
        <time>2022-05-21 23:32:54</time>
      </trkpt>
      <trkpt lat="42.20727" lon="2.35731">
        <ele>1025</ele>
        <time>2022-05-21 23:32:55</time>
      </trkpt>
      <trkpt lat="42.20725" lon="2.35734">
        <ele>1025</ele>
        <time>2022-05-21 23:32:56</time>
      </trkpt>
      <trkpt lat="42.20723" lon="2.35738">
        <ele>1025</ele>
        <time>2022-05-21 23:32:57</time>
      </trkpt>
      <trkpt lat="42.20721" lon="2.35742">
        <ele>1024.8</ele>
        <time>2022-05-21 23:32:58</time>
      </trkpt>
      <trkpt lat="42.20719" lon="2.35747">
        <ele>1024.8</ele>
        <time>2022-05-21 23:32:59</time>
      </trkpt>
      <trkpt lat="42.20718" lon="2.35752">
        <ele>1024.8</ele>
        <time>2022-05-21 23:33:00</time>
      </trkpt>
      <trkpt lat="42.20718" lon="2.35757">
        <ele>1024.8</ele>
        <time>2022-05-21 23:33:01</time>
      </trkpt>
      <trkpt lat="42.20719" lon="2.35764">
        <ele>1024.8</ele>
        <time>2022-05-21 23:33:02</time>
      </trkpt>
      <trkpt lat="42.2072" lon="2.3577">
        <ele>1024.8</ele>
        <time>2022-05-21 23:33:03</time>
      </trkpt>
      <trkpt lat="42.20722" lon="2.35775">
        <ele>1024.8</ele>
        <time>2022-05-21 23:33:04</time>
      </trkpt>
      <trkpt lat="42.20724" lon="2.35781">
        <ele>1024.8</ele>
        <time>2022-05-21 23:33:05</time>
      </trkpt>
      <trkpt lat="42.20724" lon="2.35788">
        <ele>1024.8</ele>
        <time>2022-05-21 23:33:06</time>
      </trkpt>
      <trkpt lat="42.20724" lon="2.35796">
        <ele>1024.8</ele>
        <time>2022-05-21 23:33:07</time>
      </trkpt>
      <trkpt lat="42.20726" lon="2.35802">
        <ele>1024.8</ele>
        <time>2022-05-21 23:33:08</time>
      </trkpt>
      <trkpt lat="42.20728" lon="2.35808">
        <ele>1024.8</ele>
        <time>2022-05-21 23:33:09</time>
      </trkpt>
      <trkpt lat="42.2073" lon="2.35814">
        <ele>1024.8</ele>
        <time>2022-05-21 23:33:10</time>
      </trkpt>
      <trkpt lat="42.20732" lon="2.35821">
        <ele>1024.8</ele>
        <time>2022-05-21 23:33:11</time>
      </trkpt>
      <trkpt lat="42.20734" lon="2.35828">
        <ele>1024.8</ele>
        <time>2022-05-21 23:33:12</time>
      </trkpt>
      <trkpt lat="42.20737" lon="2.35836">
        <ele>1024.6</ele>
        <time>2022-05-21 23:33:13</time>
      </trkpt>
      <trkpt lat="42.20739" lon="2.35843">
        <ele>1024.6</ele>
        <time>2022-05-21 23:33:14</time>
      </trkpt>
      <trkpt lat="42.20741" lon="2.35851">
        <ele>1024.4</ele>
        <time>2022-05-21 23:33:15</time>
      </trkpt>
      <trkpt lat="42.20742" lon="2.3586">
        <ele>1024.4</ele>
        <time>2022-05-21 23:33:16</time>
      </trkpt>
      <trkpt lat="42.20743" lon="2.3587">
        <ele>1024.4</ele>
        <time>2022-05-21 23:33:17</time>
      </trkpt>
      <trkpt lat="42.20744" lon="2.35878">
        <ele>1024.2</ele>
        <time>2022-05-21 23:33:18</time>
      </trkpt>
      <trkpt lat="42.20745" lon="2.35887">
        <ele>1024.2</ele>
        <time>2022-05-21 23:33:19</time>
      </trkpt>
      <trkpt lat="42.20744" lon="2.35897">
        <ele>1024.2</ele>
        <time>2022-05-21 23:33:20</time>
      </trkpt>
      <trkpt lat="42.20745" lon="2.35906">
        <ele>1024.2</ele>
        <time>2022-05-21 23:33:21</time>
      </trkpt>
      <trkpt lat="42.20745" lon="2.35914">
        <ele>1024.2</ele>
        <time>2022-05-21 23:33:22</time>
      </trkpt>
      <trkpt lat="42.20745" lon="2.35922">
        <ele>1024</ele>
        <time>2022-05-21 23:33:23</time>
      </trkpt>
      <trkpt lat="42.20745" lon="2.35931">
        <ele>1024</ele>
        <time>2022-05-21 23:33:24</time>
      </trkpt>
      <trkpt lat="42.20745" lon="2.3594">
        <ele>1024</ele>
        <time>2022-05-21 23:33:25</time>
      </trkpt>
      <trkpt lat="42.20746" lon="2.35948">
        <ele>1023.8</ele>
        <time>2022-05-21 23:33:26</time>
      </trkpt>
      <trkpt lat="42.20747" lon="2.35956">
        <ele>1023.8</ele>
        <time>2022-05-21 23:33:27</time>
      </trkpt>
      <trkpt lat="42.20748" lon="2.35964">
        <ele>1023.8</ele>
        <time>2022-05-21 23:33:28</time>
      </trkpt>
      <trkpt lat="42.2075" lon="2.35971">
        <ele>1023.6</ele>
        <time>2022-05-21 23:33:29</time>
      </trkpt>
      <trkpt lat="42.20753" lon="2.35978">
        <ele>1023.4</ele>
        <time>2022-05-21 23:33:30</time>
      </trkpt>
      <trkpt lat="42.20755" lon="2.35985">
        <ele>1023.2</ele>
        <time>2022-05-21 23:33:31</time>
      </trkpt>
      <trkpt lat="42.20758" lon="2.35993">
        <ele>1022.8</ele>
        <time>2022-05-21 23:33:32</time>
      </trkpt>
      <trkpt lat="42.20761" lon="2.36002">
        <ele>1022.4</ele>
        <time>2022-05-21 23:33:33</time>
      </trkpt>
      <trkpt lat="42.20763" lon="2.36012">
        <ele>1022.2</ele>
        <time>2022-05-21 23:33:34</time>
      </trkpt>
      <trkpt lat="42.20765" lon="2.36022">
        <ele>1022</ele>
        <time>2022-05-21 23:33:35</time>
      </trkpt>
      <trkpt lat="42.20767" lon="2.36031">
        <ele>1021.8</ele>
        <time>2022-05-21 23:33:36</time>
      </trkpt>
      <trkpt lat="42.2077" lon="2.3604">
        <ele>1021.6</ele>
        <time>2022-05-21 23:33:37</time>
      </trkpt>
      <trkpt lat="42.20774" lon="2.36049">
        <ele>1021.4</ele>
        <time>2022-05-21 23:33:38</time>
      </trkpt>
      <trkpt lat="42.20779" lon="2.36057">
        <ele>1021.2</ele>
        <time>2022-05-21 23:33:39</time>
      </trkpt>
      <trkpt lat="42.20784" lon="2.36065">
        <ele>1021</ele>
        <time>2022-05-21 23:33:40</time>
      </trkpt>
      <trkpt lat="42.20789" lon="2.36073">
        <ele>1020.8</ele>
        <time>2022-05-21 23:33:41</time>
      </trkpt>
      <trkpt lat="42.20792" lon="2.36081">
        <ele>1020.4</ele>
        <time>2022-05-21 23:33:42</time>
      </trkpt>
      <trkpt lat="42.20795" lon="2.3609">
        <ele>1020.2</ele>
        <time>2022-05-21 23:33:43</time>
      </trkpt>
      <trkpt lat="42.20795" lon="2.361">
        <ele>1020</ele>
        <time>2022-05-21 23:33:44</time>
      </trkpt>
      <trkpt lat="42.20794" lon="2.36108">
        <ele>1019.6</ele>
        <time>2022-05-21 23:33:45</time>
      </trkpt>
      <trkpt lat="42.20792" lon="2.36117">
        <ele>1019.4</ele>
        <time>2022-05-21 23:33:46</time>
      </trkpt>
      <trkpt lat="42.20789" lon="2.36125">
        <ele>1019.2</ele>
        <time>2022-05-21 23:33:47</time>
      </trkpt>
      <trkpt lat="42.20787" lon="2.36133">
        <ele>1018.8</ele>
        <time>2022-05-21 23:33:48</time>
      </trkpt>
      <trkpt lat="42.20783" lon="2.36142">
        <ele>1018.6</ele>
        <time>2022-05-21 23:33:49</time>
      </trkpt>
      <trkpt lat="42.2078" lon="2.36151">
        <ele>1018.2</ele>
        <time>2022-05-21 23:33:50</time>
      </trkpt>
      <trkpt lat="42.20776" lon="2.3616">
        <ele>1018</ele>
        <time>2022-05-21 23:33:51</time>
      </trkpt>
      <trkpt lat="42.20773" lon="2.36169">
        <ele>1017.6</ele>
        <time>2022-05-21 23:33:52</time>
      </trkpt>
      <trkpt lat="42.20769" lon="2.36178">
        <ele>1017.2</ele>
        <time>2022-05-21 23:33:53</time>
      </trkpt>
      <trkpt lat="42.20766" lon="2.36187">
        <ele>1016.8</ele>
        <time>2022-05-21 23:33:54</time>
      </trkpt>
      <trkpt lat="42.20762" lon="2.36194">
        <ele>1016.6</ele>
        <time>2022-05-21 23:33:55</time>
      </trkpt>
      <trkpt lat="42.20756" lon="2.36201">
        <ele>1016.2</ele>
        <time>2022-05-21 23:33:56</time>
      </trkpt>
      <trkpt lat="42.2075" lon="2.36206">
        <ele>1016</ele>
        <time>2022-05-21 23:33:57</time>
      </trkpt>
      <trkpt lat="42.20744" lon="2.36209">
        <ele>1015.8</ele>
        <time>2022-05-21 23:33:58</time>
      </trkpt>
      <trkpt lat="42.20738" lon="2.36211">
        <ele>1015.6</ele>
        <time>2022-05-21 23:33:59</time>
      </trkpt>
      <trkpt lat="42.20732" lon="2.36211">
        <ele>1015.2</ele>
        <time>2022-05-21 23:34:00</time>
      </trkpt>
      <trkpt lat="42.20725" lon="2.36211">
        <ele>1015</ele>
        <time>2022-05-21 23:34:01</time>
      </trkpt>
      <trkpt lat="42.20718" lon="2.3621">
        <ele>1014.8</ele>
        <time>2022-05-21 23:34:02</time>
      </trkpt>
      <trkpt lat="42.20712" lon="2.3621">
        <ele>1014.6</ele>
        <time>2022-05-21 23:34:03</time>
      </trkpt>
      <trkpt lat="42.20705" lon="2.36209">
        <ele>1014.4</ele>
        <time>2022-05-21 23:34:04</time>
      </trkpt>
      <trkpt lat="42.20697" lon="2.36209">
        <ele>1014.2</ele>
        <time>2022-05-21 23:34:05</time>
      </trkpt>
      <trkpt lat="42.20691" lon="2.36209">
        <ele>1014</ele>
        <time>2022-05-21 23:34:06</time>
      </trkpt>
      <trkpt lat="42.20684" lon="2.36209">
        <ele>1014</ele>
        <time>2022-05-21 23:34:07</time>
      </trkpt>
      <trkpt lat="42.20678" lon="2.36209">
        <ele>1013.8</ele>
        <time>2022-05-21 23:34:08</time>
      </trkpt>
      <trkpt lat="42.20672" lon="2.3621">
        <ele>1013.8</ele>
        <time>2022-05-21 23:34:09</time>
      </trkpt>
      <trkpt lat="42.20666" lon="2.3621">
        <ele>1013.8</ele>
        <time>2022-05-21 23:34:10</time>
      </trkpt>
      <trkpt lat="42.2066" lon="2.36212">
        <ele>1013.6</ele>
        <time>2022-05-21 23:34:11</time>
      </trkpt>
      <trkpt lat="42.20654" lon="2.36215">
        <ele>1013.4</ele>
        <time>2022-05-21 23:34:12</time>
      </trkpt>
      <trkpt lat="42.2065" lon="2.36219">
        <ele>1013.2</ele>
        <time>2022-05-21 23:34:13</time>
      </trkpt>
      <trkpt lat="42.20647" lon="2.36224">
        <ele>1013.2</ele>
        <time>2022-05-21 23:34:14</time>
      </trkpt>
      <trkpt lat="42.20644" lon="2.36229">
        <ele>1013</ele>
        <time>2022-05-21 23:34:15</time>
      </trkpt>
      <trkpt lat="42.20641" lon="2.36236">
        <ele>1013</ele>
        <time>2022-05-21 23:34:16</time>
      </trkpt>
      <trkpt lat="42.20638" lon="2.36242">
        <ele>1012.8</ele>
        <time>2022-05-21 23:34:17</time>
      </trkpt>
      <trkpt lat="42.20635" lon="2.36249">
        <ele>1012.8</ele>
        <time>2022-05-21 23:34:18</time>
      </trkpt>
      <trkpt lat="42.20632" lon="2.36255">
        <ele>1012.8</ele>
        <time>2022-05-21 23:34:19</time>
      </trkpt>
      <trkpt lat="42.2063" lon="2.36261">
        <ele>1012.8</ele>
        <time>2022-05-21 23:34:20</time>
      </trkpt>
      <trkpt lat="42.20627" lon="2.36267">
        <ele>1012.8</ele>
        <time>2022-05-21 23:34:21</time>
      </trkpt>
      <trkpt lat="42.20624" lon="2.36274">
        <ele>1012.8</ele>
        <time>2022-05-21 23:34:22</time>
      </trkpt>
      <trkpt lat="42.20621" lon="2.36281">
        <ele>1012.8</ele>
        <time>2022-05-21 23:34:23</time>
      </trkpt>
      <trkpt lat="42.20617" lon="2.36287">
        <ele>1012.8</ele>
        <time>2022-05-21 23:34:24</time>
      </trkpt>
      <trkpt lat="42.20614" lon="2.36293">
        <ele>1012.8</ele>
        <time>2022-05-21 23:34:25</time>
      </trkpt>
      <trkpt lat="42.2061" lon="2.363">
        <ele>1012.6</ele>
        <time>2022-05-21 23:34:26</time>
      </trkpt>
      <trkpt lat="42.20607" lon="2.36306">
        <ele>1012.6</ele>
        <time>2022-05-21 23:34:27</time>
      </trkpt>
      <trkpt lat="42.20603" lon="2.36313">
        <ele>1012.6</ele>
        <time>2022-05-21 23:34:28</time>
      </trkpt>
      <trkpt lat="42.206" lon="2.36321">
        <ele>1012.6</ele>
        <time>2022-05-21 23:34:29</time>
      </trkpt>
      <trkpt lat="42.20597" lon="2.3633">
        <ele>1012.6</ele>
        <time>2022-05-21 23:34:30</time>
      </trkpt>
      <trkpt lat="42.20595" lon="2.36341">
        <ele>1012.6</ele>
        <time>2022-05-21 23:34:31</time>
      </trkpt>
      <trkpt lat="42.20594" lon="2.36353">
        <ele>1012.6</ele>
        <time>2022-05-21 23:34:32</time>
      </trkpt>
      <trkpt lat="42.20594" lon="2.36362">
        <ele>1012.6</ele>
        <time>2022-05-21 23:34:33</time>
      </trkpt>
      <trkpt lat="42.20595" lon="2.36369">
        <ele>1012.6</ele>
        <time>2022-05-21 23:34:34</time>
      </trkpt>
      <trkpt lat="42.20597" lon="2.36376">
        <ele>1012.6</ele>
        <time>2022-05-21 23:34:35</time>
      </trkpt>
      <trkpt lat="42.20599" lon="2.36382">
        <ele>1012.6</ele>
        <time>2022-05-21 23:34:36</time>
      </trkpt>
      <trkpt lat="42.206" lon="2.36388">
        <ele>1012.4</ele>
        <time>2022-05-21 23:34:37</time>
      </trkpt>
      <trkpt lat="42.20603" lon="2.36393">
        <ele>1012.4</ele>
        <time>2022-05-21 23:34:38</time>
      </trkpt>
      <trkpt lat="42.20605" lon="2.36399">
        <ele>1012.4</ele>
        <time>2022-05-21 23:34:39</time>
      </trkpt>
      <trkpt lat="42.20607" lon="2.36405">
        <ele>1012.4</ele>
        <time>2022-05-21 23:34:40</time>
      </trkpt>
      <trkpt lat="42.2061" lon="2.36411">
        <ele>1012.2</ele>
        <time>2022-05-21 23:34:41</time>
      </trkpt>
      <trkpt lat="42.20613" lon="2.36418">
        <ele>1012.2</ele>
        <time>2022-05-21 23:34:42</time>
      </trkpt>
      <trkpt lat="42.20614" lon="2.36426">
        <ele>1012</ele>
        <time>2022-05-21 23:34:43</time>
      </trkpt>
      <trkpt lat="42.20616" lon="2.36433">
        <ele>1012</ele>
        <time>2022-05-21 23:34:44</time>
      </trkpt>
      <trkpt lat="42.20616" lon="2.36441">
        <ele>1011.8</ele>
        <time>2022-05-21 23:34:45</time>
      </trkpt>
      <trkpt lat="42.20617" lon="2.36448">
        <ele>1011.8</ele>
        <time>2022-05-21 23:34:46</time>
      </trkpt>
      <trkpt lat="42.20617" lon="2.36455">
        <ele>1011.8</ele>
        <time>2022-05-21 23:34:47</time>
      </trkpt>
      <trkpt lat="42.20617" lon="2.36461">
        <ele>1011.6</ele>
        <time>2022-05-21 23:34:48</time>
      </trkpt>
      <trkpt lat="42.20617" lon="2.36468">
        <ele>1011.6</ele>
        <time>2022-05-21 23:34:49</time>
      </trkpt>
      <trkpt lat="42.20616" lon="2.36474">
        <ele>1011.4</ele>
        <time>2022-05-21 23:34:50</time>
      </trkpt>
      <trkpt lat="42.20615" lon="2.36481">
        <ele>1011.4</ele>
        <time>2022-05-21 23:34:51</time>
      </trkpt>
      <trkpt lat="42.20614" lon="2.36489">
        <ele>1011.4</ele>
        <time>2022-05-21 23:34:52</time>
      </trkpt>
      <trkpt lat="42.20614" lon="2.36496">
        <ele>1011.4</ele>
        <time>2022-05-21 23:34:53</time>
      </trkpt>
      <trkpt lat="42.20613" lon="2.36503">
        <ele>1011.4</ele>
        <time>2022-05-21 23:34:54</time>
      </trkpt>
      <trkpt lat="42.20613" lon="2.3651">
        <ele>1011.4</ele>
        <time>2022-05-21 23:34:55</time>
      </trkpt>
      <trkpt lat="42.20613" lon="2.36517">
        <ele>1011.2</ele>
        <time>2022-05-21 23:34:56</time>
      </trkpt>
      <trkpt lat="42.20613" lon="2.36524">
        <ele>1011</ele>
        <time>2022-05-21 23:34:57</time>
      </trkpt>
      <trkpt lat="42.20613" lon="2.36533">
        <ele>1010.8</ele>
        <time>2022-05-21 23:34:58</time>
      </trkpt>
      <trkpt lat="42.20613" lon="2.3654">
        <ele>1010.4</ele>
        <time>2022-05-21 23:34:59</time>
      </trkpt>
      <trkpt lat="42.20614" lon="2.36548">
        <ele>1010</ele>
        <time>2022-05-21 23:35:00</time>
      </trkpt>
      <trkpt lat="42.20616" lon="2.36558">
        <ele>1009.6</ele>
        <time>2022-05-21 23:35:01</time>
      </trkpt>
      <trkpt lat="42.20618" lon="2.36567">
        <ele>1009.2</ele>
        <time>2022-05-21 23:35:02</time>
      </trkpt>
      <trkpt lat="42.20619" lon="2.36577">
        <ele>1008.8</ele>
        <time>2022-05-21 23:35:03</time>
      </trkpt>
      <trkpt lat="42.20619" lon="2.36587">
        <ele>1008.4</ele>
        <time>2022-05-21 23:35:04</time>
      </trkpt>
      <trkpt lat="42.20619" lon="2.36597">
        <ele>1007.8</ele>
        <time>2022-05-21 23:35:05</time>
      </trkpt>
      <trkpt lat="42.20618" lon="2.36608">
        <ele>1007.2</ele>
        <time>2022-05-21 23:35:06</time>
      </trkpt>
      <trkpt lat="42.20617" lon="2.36619">
        <ele>1006.6</ele>
        <time>2022-05-21 23:35:07</time>
      </trkpt>
      <trkpt lat="42.20615" lon="2.3663">
        <ele>1006</ele>
        <time>2022-05-21 23:35:08</time>
      </trkpt>
      <trkpt lat="42.20612" lon="2.36641">
        <ele>1005.6</ele>
        <time>2022-05-21 23:35:09</time>
      </trkpt>
      <trkpt lat="42.2061" lon="2.36652">
        <ele>1005.2</ele>
        <time>2022-05-21 23:35:10</time>
      </trkpt>
      <trkpt lat="42.20608" lon="2.36662">
        <ele>1004.8</ele>
        <time>2022-05-21 23:35:11</time>
      </trkpt>
      <trkpt lat="42.20606" lon="2.36673">
        <ele>1004.4</ele>
        <time>2022-05-21 23:35:12</time>
      </trkpt>
      <trkpt lat="42.20605" lon="2.36684">
        <ele>1004</ele>
        <time>2022-05-21 23:35:13</time>
      </trkpt>
      <trkpt lat="42.20606" lon="2.36695">
        <ele>1003.6</ele>
        <time>2022-05-21 23:35:14</time>
      </trkpt>
      <trkpt lat="42.20607" lon="2.36705">
        <ele>1003</ele>
        <time>2022-05-21 23:35:15</time>
      </trkpt>
      <trkpt lat="42.20608" lon="2.36716">
        <ele>1002.6</ele>
        <time>2022-05-21 23:35:16</time>
      </trkpt>
      <trkpt lat="42.20609" lon="2.36727">
        <ele>1002.2</ele>
        <time>2022-05-21 23:35:17</time>
      </trkpt>
      <trkpt lat="42.2061" lon="2.36738">
        <ele>1001.8</ele>
        <time>2022-05-21 23:35:18</time>
      </trkpt>
      <trkpt lat="42.2061" lon="2.36753">
        <ele>1001.2</ele>
        <time>2022-05-21 23:35:19</time>
      </trkpt>
      <trkpt lat="42.20609" lon="2.36767">
        <ele>1000.6</ele>
        <time>2022-05-21 23:35:20</time>
      </trkpt>
      <trkpt lat="42.20607" lon="2.36782">
        <ele>999.8</ele>
        <time>2022-05-21 23:35:21</time>
      </trkpt>
      <trkpt lat="42.20606" lon="2.36798">
        <ele>999</ele>
        <time>2022-05-21 23:35:22</time>
      </trkpt>
      <trkpt lat="42.20605" lon="2.36811">
        <ele>998.2</ele>
        <time>2022-05-21 23:35:23</time>
      </trkpt>
      <trkpt lat="42.20604" lon="2.36825">
        <ele>997.4</ele>
        <time>2022-05-21 23:35:24</time>
      </trkpt>
      <trkpt lat="42.20602" lon="2.36839">
        <ele>996.8</ele>
        <time>2022-05-21 23:35:25</time>
      </trkpt>
      <trkpt lat="42.20599" lon="2.36853">
        <ele>996.2</ele>
        <time>2022-05-21 23:35:26</time>
      </trkpt>
      <trkpt lat="42.20598" lon="2.36867">
        <ele>995.6</ele>
        <time>2022-05-21 23:35:27</time>
      </trkpt>
      <trkpt lat="42.20595" lon="2.36882">
        <ele>995</ele>
        <time>2022-05-21 23:35:28</time>
      </trkpt>
      <trkpt lat="42.20592" lon="2.36895">
        <ele>994.6</ele>
        <time>2022-05-21 23:35:29</time>
      </trkpt>
      <trkpt lat="42.20588" lon="2.36907">
        <ele>994.2</ele>
        <time>2022-05-21 23:35:30</time>
      </trkpt>
      <trkpt lat="42.20585" lon="2.36919">
        <ele>993.8</ele>
        <time>2022-05-21 23:35:31</time>
      </trkpt>
      <trkpt lat="42.20582" lon="2.36931">
        <ele>993.6</ele>
        <time>2022-05-21 23:35:32</time>
      </trkpt>
      <trkpt lat="42.2058" lon="2.36943">
        <ele>993.2</ele>
        <time>2022-05-21 23:35:33</time>
      </trkpt>
      <trkpt lat="42.20578" lon="2.36955">
        <ele>993</ele>
        <time>2022-05-21 23:35:34</time>
      </trkpt>
      <trkpt lat="42.20576" lon="2.36966">
        <ele>993</ele>
        <time>2022-05-21 23:35:35</time>
      </trkpt>
      <trkpt lat="42.20573" lon="2.36977">
        <ele>992.8</ele>
        <time>2022-05-21 23:35:36</time>
      </trkpt>
      <trkpt lat="42.2057" lon="2.36988">
        <ele>992.6</ele>
        <time>2022-05-21 23:35:37</time>
      </trkpt>
      <trkpt lat="42.20567" lon="2.36998">
        <ele>992.4</ele>
        <time>2022-05-21 23:35:38</time>
      </trkpt>
      <trkpt lat="42.20562" lon="2.37008">
        <ele>992.2</ele>
        <time>2022-05-21 23:35:39</time>
      </trkpt>
      <trkpt lat="42.20557" lon="2.37018">
        <ele>992</ele>
        <time>2022-05-21 23:35:40</time>
      </trkpt>
      <trkpt lat="42.20552" lon="2.37027">
        <ele>991.8</ele>
        <time>2022-05-21 23:35:41</time>
      </trkpt>
      <trkpt lat="42.20548" lon="2.37036">
        <ele>991.6</ele>
        <time>2022-05-21 23:35:42</time>
      </trkpt>
      <trkpt lat="42.20544" lon="2.37045">
        <ele>991.4</ele>
        <time>2022-05-21 23:35:43</time>
      </trkpt>
      <trkpt lat="42.20539" lon="2.37055">
        <ele>991.2</ele>
        <time>2022-05-21 23:35:44</time>
      </trkpt>
      <trkpt lat="42.20534" lon="2.37066">
        <ele>991</ele>
        <time>2022-05-21 23:35:45</time>
      </trkpt>
      <trkpt lat="42.2053" lon="2.37077">
        <ele>990.8</ele>
        <time>2022-05-21 23:35:46</time>
      </trkpt>
      <trkpt lat="42.20527" lon="2.37087">
        <ele>990.8</ele>
        <time>2022-05-21 23:35:47</time>
      </trkpt>
      <trkpt lat="42.20525" lon="2.37098">
        <ele>990.6</ele>
        <time>2022-05-21 23:35:48</time>
      </trkpt>
      <trkpt lat="42.20522" lon="2.37109">
        <ele>990.4</ele>
        <time>2022-05-21 23:35:49</time>
      </trkpt>
      <trkpt lat="42.2052" lon="2.37119">
        <ele>990.2</ele>
        <time>2022-05-21 23:35:50</time>
      </trkpt>
      <trkpt lat="42.20518" lon="2.3713">
        <ele>989.8</ele>
        <time>2022-05-21 23:35:51</time>
      </trkpt>
      <trkpt lat="42.20517" lon="2.37141">
        <ele>989.6</ele>
        <time>2022-05-21 23:35:52</time>
      </trkpt>
      <trkpt lat="42.20516" lon="2.37152">
        <ele>989.4</ele>
        <time>2022-05-21 23:35:53</time>
      </trkpt>
      <trkpt lat="42.20515" lon="2.37163">
        <ele>989.2</ele>
        <time>2022-05-21 23:35:54</time>
      </trkpt>
      <trkpt lat="42.20513" lon="2.37172">
        <ele>989</ele>
        <time>2022-05-21 23:35:55</time>
      </trkpt>
      <trkpt lat="42.20511" lon="2.37182">
        <ele>988.8</ele>
        <time>2022-05-21 23:35:56</time>
      </trkpt>
      <trkpt lat="42.2051" lon="2.37192">
        <ele>988.6</ele>
        <time>2022-05-21 23:35:57</time>
      </trkpt>
      <trkpt lat="42.20507" lon="2.37201">
        <ele>988.6</ele>
        <time>2022-05-21 23:35:58</time>
      </trkpt>
      <trkpt lat="42.20505" lon="2.3721">
        <ele>988.4</ele>
        <time>2022-05-21 23:35:59</time>
      </trkpt>
      <trkpt lat="42.20501" lon="2.37218">
        <ele>988.2</ele>
        <time>2022-05-21 23:36:00</time>
      </trkpt>
      <trkpt lat="42.20497" lon="2.37227">
        <ele>988.2</ele>
        <time>2022-05-21 23:36:01</time>
      </trkpt>
      <trkpt lat="42.20492" lon="2.37234">
        <ele>988</ele>
        <time>2022-05-21 23:36:02</time>
      </trkpt>
      <trkpt lat="42.20488" lon="2.37241">
        <ele>988</ele>
        <time>2022-05-21 23:36:03</time>
      </trkpt>
      <trkpt lat="42.20483" lon="2.37249">
        <ele>987.8</ele>
        <time>2022-05-21 23:36:04</time>
      </trkpt>
      <trkpt lat="42.20478" lon="2.37256">
        <ele>987.8</ele>
        <time>2022-05-21 23:36:05</time>
      </trkpt>
      <trkpt lat="42.20475" lon="2.37265">
        <ele>987.6</ele>
        <time>2022-05-21 23:36:06</time>
      </trkpt>
      <trkpt lat="42.20472" lon="2.37277">
        <ele>987.4</ele>
        <time>2022-05-21 23:36:07</time>
      </trkpt>
      <trkpt lat="42.2047" lon="2.37291">
        <ele>987.2</ele>
        <time>2022-05-21 23:36:08</time>
      </trkpt>
      <trkpt lat="42.2047" lon="2.37303">
        <ele>987.2</ele>
        <time>2022-05-21 23:36:09</time>
      </trkpt>
      <trkpt lat="42.20471" lon="2.37313">
        <ele>987</ele>
        <time>2022-05-21 23:36:10</time>
      </trkpt>
      <trkpt lat="42.20472" lon="2.37323">
        <ele>986.8</ele>
        <time>2022-05-21 23:36:11</time>
      </trkpt>
      <trkpt lat="42.20474" lon="2.37331">
        <ele>986.8</ele>
        <time>2022-05-21 23:36:12</time>
      </trkpt>
      <trkpt lat="42.20475" lon="2.3734">
        <ele>986.6</ele>
        <time>2022-05-21 23:36:13</time>
      </trkpt>
      <trkpt lat="42.20477" lon="2.37351">
        <ele>986.4</ele>
        <time>2022-05-21 23:36:14</time>
      </trkpt>
      <trkpt lat="42.20479" lon="2.37362">
        <ele>986.2</ele>
        <time>2022-05-21 23:36:15</time>
      </trkpt>
      <trkpt lat="42.20482" lon="2.37372">
        <ele>986</ele>
        <time>2022-05-21 23:36:16</time>
      </trkpt>
      <trkpt lat="42.20483" lon="2.37381">
        <ele>985.8</ele>
        <time>2022-05-21 23:36:17</time>
      </trkpt>
      <trkpt lat="42.20485" lon="2.3739">
        <ele>985.6</ele>
        <time>2022-05-21 23:36:18</time>
      </trkpt>
      <trkpt lat="42.20485" lon="2.37398">
        <ele>985.4</ele>
        <time>2022-05-21 23:36:19</time>
      </trkpt>
      <trkpt lat="42.20485" lon="2.37407">
        <ele>985.4</ele>
        <time>2022-05-21 23:36:20</time>
      </trkpt>
      <trkpt lat="42.20484" lon="2.37417">
        <ele>985.2</ele>
        <time>2022-05-21 23:36:21</time>
      </trkpt>
      <trkpt lat="42.20483" lon="2.37425">
        <ele>985.2</ele>
        <time>2022-05-21 23:36:22</time>
      </trkpt>
      <trkpt lat="42.20481" lon="2.37434">
        <ele>985</ele>
        <time>2022-05-21 23:36:23</time>
      </trkpt>
      <trkpt lat="42.2048" lon="2.37442">
        <ele>984.8</ele>
        <time>2022-05-21 23:36:24</time>
      </trkpt>
      <trkpt lat="42.20478" lon="2.3745">
        <ele>984.6</ele>
        <time>2022-05-21 23:36:25</time>
      </trkpt>
      <trkpt lat="42.20476" lon="2.37459">
        <ele>984.6</ele>
        <time>2022-05-21 23:36:26</time>
      </trkpt>
      <trkpt lat="42.20473" lon="2.37467">
        <ele>984.4</ele>
        <time>2022-05-21 23:36:27</time>
      </trkpt>
      <trkpt lat="42.2047" lon="2.37476">
        <ele>984.2</ele>
        <time>2022-05-21 23:36:28</time>
      </trkpt>
      <trkpt lat="42.20467" lon="2.37485">
        <ele>984</ele>
        <time>2022-05-21 23:36:29</time>
      </trkpt>
      <trkpt lat="42.20463" lon="2.37493">
        <ele>983.8</ele>
        <time>2022-05-21 23:36:30</time>
      </trkpt>
      <trkpt lat="42.2046" lon="2.37502">
        <ele>983.6</ele>
        <time>2022-05-21 23:36:31</time>
      </trkpt>
      <trkpt lat="42.20456" lon="2.3751">
        <ele>983.4</ele>
        <time>2022-05-21 23:36:32</time>
      </trkpt>
      <trkpt lat="42.20453" lon="2.37518">
        <ele>983.2</ele>
        <time>2022-05-21 23:36:33</time>
      </trkpt>
      <trkpt lat="42.20449" lon="2.37527">
        <ele>983</ele>
        <time>2022-05-21 23:36:34</time>
      </trkpt>
      <trkpt lat="42.20446" lon="2.37535">
        <ele>982.8</ele>
        <time>2022-05-21 23:36:35</time>
      </trkpt>
      <trkpt lat="42.20443" lon="2.37543">
        <ele>982.4</ele>
        <time>2022-05-21 23:36:36</time>
      </trkpt>
      <trkpt lat="42.20439" lon="2.37553">
        <ele>982.2</ele>
        <time>2022-05-21 23:36:37</time>
      </trkpt>
      <trkpt lat="42.20436" lon="2.37562">
        <ele>982</ele>
        <time>2022-05-21 23:36:38</time>
      </trkpt>
      <trkpt lat="42.20433" lon="2.37571">
        <ele>981.8</ele>
        <time>2022-05-21 23:36:39</time>
      </trkpt>
      <trkpt lat="42.2043" lon="2.3758">
        <ele>981.6</ele>
        <time>2022-05-21 23:36:40</time>
      </trkpt>
      <trkpt lat="42.20427" lon="2.37589">
        <ele>981.2</ele>
        <time>2022-05-21 23:36:41</time>
      </trkpt>
      <trkpt lat="42.20425" lon="2.37597">
        <ele>981.2</ele>
        <time>2022-05-21 23:36:42</time>
      </trkpt>
      <trkpt lat="42.20423" lon="2.37607">
        <ele>981</ele>
        <time>2022-05-21 23:36:43</time>
      </trkpt>
      <trkpt lat="42.20421" lon="2.37616">
        <ele>980.8</ele>
        <time>2022-05-21 23:36:44</time>
      </trkpt>
      <trkpt lat="42.20419" lon="2.37625">
        <ele>980.6</ele>
        <time>2022-05-21 23:36:45</time>
      </trkpt>
      <trkpt lat="42.20418" lon="2.37634">
        <ele>980.4</ele>
        <time>2022-05-21 23:36:46</time>
      </trkpt>
      <trkpt lat="42.20417" lon="2.37644">
        <ele>980.2</ele>
        <time>2022-05-21 23:36:47</time>
      </trkpt>
      <trkpt lat="42.20416" lon="2.37654">
        <ele>980</ele>
        <time>2022-05-21 23:36:48</time>
      </trkpt>
      <trkpt lat="42.20414" lon="2.37662">
        <ele>980</ele>
        <time>2022-05-21 23:36:49</time>
      </trkpt>
      <trkpt lat="42.20412" lon="2.37671">
        <ele>979.8</ele>
        <time>2022-05-21 23:36:50</time>
      </trkpt>
      <trkpt lat="42.2041" lon="2.37678">
        <ele>979.6</ele>
        <time>2022-05-21 23:36:51</time>
      </trkpt>
      <trkpt lat="42.20407" lon="2.37683">
        <ele>979.6</ele>
        <time>2022-05-21 23:36:52</time>
      </trkpt>
      <trkpt lat="42.20403" lon="2.37686">
        <ele>979.6</ele>
        <time>2022-05-21 23:36:53</time>
      </trkpt>
      <trkpt lat="42.20398" lon="2.37686">
        <ele>979.6</ele>
        <time>2022-05-21 23:36:54</time>
      </trkpt>
      <trkpt lat="42.20394" lon="2.37685">
        <ele>979.6</ele>
        <time>2022-05-21 23:36:55</time>
      </trkpt>
      <trkpt lat="42.20392" lon="2.37681">
        <ele>979.6</ele>
        <time>2022-05-21 23:36:56</time>
      </trkpt>
      <trkpt lat="42.2039" lon="2.37677">
        <ele>979.8</ele>
        <time>2022-05-21 23:36:57</time>
      </trkpt>
      <trkpt lat="42.20388" lon="2.37673">
        <ele>980</ele>
        <time>2022-05-21 23:36:58</time>
      </trkpt>
      <trkpt lat="42.20387" lon="2.37669">
        <ele>980</ele>
        <time>2022-05-21 23:36:59</time>
      </trkpt>
      <trkpt lat="42.20386" lon="2.37664">
        <ele>980.2</ele>
        <time>2022-05-21 23:37:00</time>
      </trkpt>
      <trkpt lat="42.20385" lon="2.3766">
        <ele>980.2</ele>
        <time>2022-05-21 23:37:01</time>
      </trkpt>
      <trkpt lat="42.20384" lon="2.37656">
        <ele>980.2</ele>
        <time>2022-05-21 23:37:02</time>
      </trkpt>
      <trkpt lat="42.20383" lon="2.37652">
        <ele>980.4</ele>
        <time>2022-05-21 23:37:03</time>
      </trkpt>
      <trkpt lat="42.20382" lon="2.37647">
        <ele>980.6</ele>
        <time>2022-05-21 23:37:04</time>
      </trkpt>
      <trkpt lat="42.20381" lon="2.37642">
        <ele>980.8</ele>
        <time>2022-05-21 23:37:05</time>
      </trkpt>
      <trkpt lat="42.2038" lon="2.37638">
        <ele>980.8</ele>
        <time>2022-05-21 23:37:06</time>
      </trkpt>
      <trkpt lat="42.2038" lon="2.37634">
        <ele>981</ele>
        <time>2022-05-21 23:37:07</time>
      </trkpt>
      <trkpt lat="42.2038" lon="2.37631">
        <ele>981.2</ele>
        <time>2022-05-21 23:37:08</time>
      </trkpt>
      <trkpt lat="42.20379" lon="2.37628">
        <ele>981.4</ele>
        <time>2022-05-21 23:37:09</time>
      </trkpt>
      <trkpt lat="42.20379" lon="2.37625">
        <ele>981.4</ele>
        <time>2022-05-21 23:37:10</time>
      </trkpt>
      <trkpt lat="42.20378" lon="2.37622">
        <ele>981.6</ele>
        <time>2022-05-21 23:37:11</time>
      </trkpt>
      <trkpt lat="42.20378" lon="2.37619">
        <ele>981.8</ele>
        <time>2022-05-21 23:37:12</time>
      </trkpt>
      <trkpt lat="42.20377" lon="2.37616">
        <ele>981.8</ele>
        <time>2022-05-21 23:37:13</time>
      </trkpt>
      <trkpt lat="42.20377" lon="2.37613">
        <ele>982</ele>
        <time>2022-05-21 23:37:14</time>
      </trkpt>
      <trkpt lat="42.20376" lon="2.3761">
        <ele>982</ele>
        <time>2022-05-21 23:37:15</time>
      </trkpt>
      <trkpt lat="42.20376" lon="2.37607">
        <ele>982.2</ele>
        <time>2022-05-21 23:37:16</time>
      </trkpt>
      <trkpt lat="42.20375" lon="2.37603">
        <ele>982.2</ele>
        <time>2022-05-21 23:37:17</time>
      </trkpt>
      <trkpt lat="42.20375" lon="2.376">
        <ele>982.2</ele>
        <time>2022-05-21 23:37:18</time>
      </trkpt>
      <trkpt lat="42.20375" lon="2.37597">
        <ele>982.4</ele>
        <time>2022-05-21 23:37:19</time>
      </trkpt>
      <trkpt lat="42.20375" lon="2.37593">
        <ele>982.6</ele>
        <time>2022-05-21 23:37:20</time>
      </trkpt>
      <trkpt lat="42.20375" lon="2.37589">
        <ele>982.6</ele>
        <time>2022-05-21 23:37:21</time>
      </trkpt>
      <trkpt lat="42.20374" lon="2.37585">
        <ele>982.8</ele>
        <time>2022-05-21 23:37:22</time>
      </trkpt>
      <trkpt lat="42.20374" lon="2.37581">
        <ele>982.8</ele>
        <time>2022-05-21 23:37:23</time>
      </trkpt>
      <trkpt lat="42.20373" lon="2.37576">
        <ele>983</ele>
        <time>2022-05-21 23:37:24</time>
      </trkpt>
      <trkpt lat="42.20373" lon="2.37572">
        <ele>983.2</ele>
        <time>2022-05-21 23:37:25</time>
      </trkpt>
      <trkpt lat="42.20373" lon="2.37568">
        <ele>983.2</ele>
        <time>2022-05-21 23:37:26</time>
      </trkpt>
      <trkpt lat="42.20372" lon="2.37565">
        <ele>983.4</ele>
        <time>2022-05-21 23:37:27</time>
      </trkpt>
      <trkpt lat="42.20372" lon="2.37561">
        <ele>983.6</ele>
        <time>2022-05-21 23:37:28</time>
      </trkpt>
      <trkpt lat="42.20371" lon="2.37558">
        <ele>983.6</ele>
        <time>2022-05-21 23:37:29</time>
      </trkpt>
      <trkpt lat="42.20371" lon="2.37554">
        <ele>983.8</ele>
        <time>2022-05-21 23:37:30</time>
      </trkpt>
      <trkpt lat="42.20371" lon="2.3755">
        <ele>983.8</ele>
        <time>2022-05-21 23:37:31</time>
      </trkpt>
      <trkpt lat="42.2037" lon="2.37546">
        <ele>984</ele>
        <time>2022-05-21 23:37:32</time>
      </trkpt>
      <trkpt lat="42.2037" lon="2.37543">
        <ele>984.2</ele>
        <time>2022-05-21 23:37:33</time>
      </trkpt>
      <trkpt lat="42.20369" lon="2.37539">
        <ele>984.2</ele>
        <time>2022-05-21 23:37:34</time>
      </trkpt>
      <trkpt lat="42.20369" lon="2.37536">
        <ele>984.4</ele>
        <time>2022-05-21 23:37:35</time>
      </trkpt>
      <trkpt lat="42.20368" lon="2.37532">
        <ele>984.4</ele>
        <time>2022-05-21 23:37:36</time>
      </trkpt>
      <trkpt lat="42.20368" lon="2.37529">
        <ele>984.6</ele>
        <time>2022-05-21 23:37:37</time>
      </trkpt>
      <trkpt lat="42.20368" lon="2.37525">
        <ele>984.8</ele>
        <time>2022-05-21 23:37:38</time>
      </trkpt>
      <trkpt lat="42.20367" lon="2.37522">
        <ele>985</ele>
        <time>2022-05-21 23:37:39</time>
      </trkpt>
      <trkpt lat="42.20367" lon="2.37519">
        <ele>985.2</ele>
        <time>2022-05-21 23:37:40</time>
      </trkpt>
      <trkpt lat="42.20367" lon="2.37515">
        <ele>985.4</ele>
        <time>2022-05-21 23:37:41</time>
      </trkpt>
      <trkpt lat="42.20367" lon="2.37512">
        <ele>985.6</ele>
        <time>2022-05-21 23:37:42</time>
      </trkpt>
      <trkpt lat="42.20367" lon="2.37509">
        <ele>985.8</ele>
        <time>2022-05-21 23:37:43</time>
      </trkpt>
      <trkpt lat="42.20367" lon="2.37506">
        <ele>985.8</ele>
        <time>2022-05-21 23:37:44</time>
      </trkpt>
      <trkpt lat="42.20367" lon="2.37503">
        <ele>986</ele>
        <time>2022-05-21 23:37:45</time>
      </trkpt>
      <trkpt lat="42.20367" lon="2.375">
        <ele>986.2</ele>
        <time>2022-05-21 23:37:46</time>
      </trkpt>
      <trkpt lat="42.20366" lon="2.37497">
        <ele>986.4</ele>
        <time>2022-05-21 23:37:47</time>
      </trkpt>
      <trkpt lat="42.20366" lon="2.37493">
        <ele>986.4</ele>
        <time>2022-05-21 23:37:48</time>
      </trkpt>
      <trkpt lat="42.20366" lon="2.3749">
        <ele>986.6</ele>
        <time>2022-05-21 23:37:49</time>
      </trkpt>
      <trkpt lat="42.20365" lon="2.37487">
        <ele>986.8</ele>
        <time>2022-05-21 23:37:50</time>
      </trkpt>
      <trkpt lat="42.20365" lon="2.37484">
        <ele>986.8</ele>
        <time>2022-05-21 23:37:51</time>
      </trkpt>
      <trkpt lat="42.20365" lon="2.37481">
        <ele>987</ele>
        <time>2022-05-21 23:37:52</time>
      </trkpt>
      <trkpt lat="42.20365" lon="2.37478">
        <ele>987.2</ele>
        <time>2022-05-21 23:37:53</time>
      </trkpt>
      <trkpt lat="42.20365" lon="2.37475">
        <ele>987.2</ele>
        <time>2022-05-21 23:37:54</time>
      </trkpt>
      <trkpt lat="42.20365" lon="2.37472">
        <ele>987.4</ele>
        <time>2022-05-21 23:37:55</time>
      </trkpt>
      <trkpt lat="42.20366" lon="2.37468">
        <ele>987.6</ele>
        <time>2022-05-21 23:37:56</time>
      </trkpt>
      <trkpt lat="42.20366" lon="2.37465">
        <ele>987.6</ele>
        <time>2022-05-21 23:37:57</time>
      </trkpt>
      <trkpt lat="42.20366" lon="2.37462">
        <ele>987.8</ele>
        <time>2022-05-21 23:37:58</time>
      </trkpt>
      <trkpt lat="42.20366" lon="2.3746">
        <ele>987.8</ele>
        <time>2022-05-21 23:37:59</time>
      </trkpt>
      <trkpt lat="42.20366" lon="2.37457">
        <ele>988</ele>
        <time>2022-05-21 23:38:00</time>
      </trkpt>
      <trkpt lat="42.20367" lon="2.37453">
        <ele>988.2</ele>
        <time>2022-05-21 23:38:01</time>
      </trkpt>
      <trkpt lat="42.20367" lon="2.3745">
        <ele>988.2</ele>
        <time>2022-05-21 23:38:02</time>
      </trkpt>
      <trkpt lat="42.20367" lon="2.37447">
        <ele>988.4</ele>
        <time>2022-05-21 23:38:03</time>
      </trkpt>
      <trkpt lat="42.20367" lon="2.37444">
        <ele>988.6</ele>
        <time>2022-05-21 23:38:04</time>
      </trkpt>
      <trkpt lat="42.20367" lon="2.3744">
        <ele>988.8</ele>
        <time>2022-05-21 23:38:05</time>
      </trkpt>
      <trkpt lat="42.20367" lon="2.37437">
        <ele>989</ele>
        <time>2022-05-21 23:38:06</time>
      </trkpt>
      <trkpt lat="42.20367" lon="2.37434">
        <ele>989.2</ele>
        <time>2022-05-21 23:38:07</time>
      </trkpt>
      <trkpt lat="42.20368" lon="2.3743">
        <ele>989.4</ele>
        <time>2022-05-21 23:38:08</time>
      </trkpt>
      <trkpt lat="42.20368" lon="2.37427">
        <ele>989.6</ele>
        <time>2022-05-21 23:38:09</time>
      </trkpt>
      <trkpt lat="42.20369" lon="2.37423">
        <ele>989.8</ele>
        <time>2022-05-21 23:38:10</time>
      </trkpt>
      <trkpt lat="42.20369" lon="2.3742">
        <ele>989.8</ele>
        <time>2022-05-21 23:38:11</time>
      </trkpt>
      <trkpt lat="42.20369" lon="2.37417">
        <ele>990</ele>
        <time>2022-05-21 23:38:12</time>
      </trkpt>
      <trkpt lat="42.20369" lon="2.37414">
        <ele>990</ele>
        <time>2022-05-21 23:38:13</time>
      </trkpt>
      <trkpt lat="42.2037" lon="2.37411">
        <ele>990.2</ele>
        <time>2022-05-21 23:38:14</time>
      </trkpt>
      <trkpt lat="42.2037" lon="2.37408">
        <ele>990.4</ele>
        <time>2022-05-21 23:38:15</time>
      </trkpt>
      <trkpt lat="42.2037" lon="2.37405">
        <ele>990.4</ele>
        <time>2022-05-21 23:38:16</time>
      </trkpt>
      <trkpt lat="42.2037" lon="2.37402">
        <ele>990.6</ele>
        <time>2022-05-21 23:38:17</time>
      </trkpt>
      <trkpt lat="42.2037" lon="2.37399">
        <ele>990.8</ele>
        <time>2022-05-21 23:38:18</time>
      </trkpt>
      <trkpt lat="42.2037" lon="2.37395">
        <ele>990.8</ele>
        <time>2022-05-21 23:38:19</time>
      </trkpt>
      <trkpt lat="42.2037" lon="2.37392">
        <ele>991</ele>
        <time>2022-05-21 23:38:20</time>
      </trkpt>
      <trkpt lat="42.2037" lon="2.37389">
        <ele>991.2</ele>
        <time>2022-05-21 23:38:21</time>
      </trkpt>
      <trkpt lat="42.2037" lon="2.37385">
        <ele>991.4</ele>
        <time>2022-05-21 23:38:22</time>
      </trkpt>
      <trkpt lat="42.20371" lon="2.37382">
        <ele>991.6</ele>
        <time>2022-05-21 23:38:23</time>
      </trkpt>
      <trkpt lat="42.20372" lon="2.37378">
        <ele>991.6</ele>
        <time>2022-05-21 23:38:24</time>
      </trkpt>
      <trkpt lat="42.20372" lon="2.37375">
        <ele>991.8</ele>
        <time>2022-05-21 23:38:25</time>
      </trkpt>
      <trkpt lat="42.20372" lon="2.37372">
        <ele>992</ele>
        <time>2022-05-21 23:38:26</time>
      </trkpt>
      <trkpt lat="42.20372" lon="2.37369">
        <ele>992.2</ele>
        <time>2022-05-21 23:38:27</time>
      </trkpt>
      <trkpt lat="42.20371" lon="2.37366">
        <ele>992.2</ele>
        <time>2022-05-21 23:38:28</time>
      </trkpt>
      <trkpt lat="42.20371" lon="2.37363">
        <ele>992.4</ele>
        <time>2022-05-21 23:38:29</time>
      </trkpt>
      <trkpt lat="42.20371" lon="2.3736">
        <ele>992.6</ele>
        <time>2022-05-21 23:38:30</time>
      </trkpt>
      <trkpt lat="42.20371" lon="2.37357">
        <ele>992.8</ele>
        <time>2022-05-21 23:38:31</time>
      </trkpt>
      <trkpt lat="42.20371" lon="2.37354">
        <ele>993</ele>
        <time>2022-05-21 23:38:32</time>
      </trkpt>
      <trkpt lat="42.20371" lon="2.37351">
        <ele>993.2</ele>
        <time>2022-05-21 23:38:33</time>
      </trkpt>
      <trkpt lat="42.20372" lon="2.37348">
        <ele>993.4</ele>
        <time>2022-05-21 23:38:34</time>
      </trkpt>
      <trkpt lat="42.20371" lon="2.37345">
        <ele>993.4</ele>
        <time>2022-05-21 23:38:35</time>
      </trkpt>
      <trkpt lat="42.20371" lon="2.37342">
        <ele>993.6</ele>
        <time>2022-05-21 23:38:36</time>
      </trkpt>
      <trkpt lat="42.20371" lon="2.37339">
        <ele>993.8</ele>
        <time>2022-05-21 23:38:37</time>
      </trkpt>
      <trkpt lat="42.20371" lon="2.37335">
        <ele>994</ele>
        <time>2022-05-21 23:38:38</time>
      </trkpt>
      <trkpt lat="42.20371" lon="2.37332">
        <ele>994</ele>
        <time>2022-05-21 23:38:39</time>
      </trkpt>
      <trkpt lat="42.20371" lon="2.37329">
        <ele>994.2</ele>
        <time>2022-05-21 23:38:40</time>
      </trkpt>
      <trkpt lat="42.20371" lon="2.37326">
        <ele>994.4</ele>
        <time>2022-05-21 23:38:41</time>
      </trkpt>
      <trkpt lat="42.20371" lon="2.37323">
        <ele>994.4</ele>
        <time>2022-05-21 23:38:42</time>
      </trkpt>
      <trkpt lat="42.20371" lon="2.3732">
        <ele>994.6</ele>
        <time>2022-05-21 23:38:43</time>
      </trkpt>
      <trkpt lat="42.20371" lon="2.37317">
        <ele>994.8</ele>
        <time>2022-05-21 23:38:44</time>
      </trkpt>
      <trkpt lat="42.20371" lon="2.37313">
        <ele>994.8</ele>
        <time>2022-05-21 23:38:45</time>
      </trkpt>
      <trkpt lat="42.2037" lon="2.3731">
        <ele>995</ele>
        <time>2022-05-21 23:38:46</time>
      </trkpt>
      <trkpt lat="42.2037" lon="2.37307">
        <ele>995.2</ele>
        <time>2022-05-21 23:38:47</time>
      </trkpt>
      <trkpt lat="42.2037" lon="2.37303">
        <ele>995.4</ele>
        <time>2022-05-21 23:38:48</time>
      </trkpt>
      <trkpt lat="42.2037" lon="2.373">
        <ele>995.6</ele>
        <time>2022-05-21 23:38:49</time>
      </trkpt>
      <trkpt lat="42.2037" lon="2.37296">
        <ele>995.8</ele>
        <time>2022-05-21 23:38:50</time>
      </trkpt>
      <trkpt lat="42.2037" lon="2.37293">
        <ele>995.8</ele>
        <time>2022-05-21 23:38:51</time>
      </trkpt>
      <trkpt lat="42.20369" lon="2.3729">
        <ele>996</ele>
        <time>2022-05-21 23:38:52</time>
      </trkpt>
      <trkpt lat="42.20369" lon="2.37287">
        <ele>996.2</ele>
        <time>2022-05-21 23:38:53</time>
      </trkpt>
      <trkpt lat="42.20368" lon="2.37283">
        <ele>996.4</ele>
        <time>2022-05-21 23:38:54</time>
      </trkpt>
      <trkpt lat="42.20368" lon="2.3728">
        <ele>996.8</ele>
        <time>2022-05-21 23:38:55</time>
      </trkpt>
      <trkpt lat="42.20368" lon="2.37277">
        <ele>997</ele>
        <time>2022-05-21 23:38:56</time>
      </trkpt>
      <trkpt lat="42.20368" lon="2.37274">
        <ele>997.2</ele>
        <time>2022-05-21 23:38:57</time>
      </trkpt>
      <trkpt lat="42.20368" lon="2.3727">
        <ele>997.4</ele>
        <time>2022-05-21 23:38:58</time>
      </trkpt>
      <trkpt lat="42.20368" lon="2.37267">
        <ele>997.6</ele>
        <time>2022-05-21 23:38:59</time>
      </trkpt>
      <trkpt lat="42.20367" lon="2.37263">
        <ele>997.6</ele>
        <time>2022-05-21 23:39:00</time>
      </trkpt>
      <trkpt lat="42.20367" lon="2.3726">
        <ele>997.8</ele>
        <time>2022-05-21 23:39:01</time>
      </trkpt>
      <trkpt lat="42.20367" lon="2.37256">
        <ele>998</ele>
        <time>2022-05-21 23:39:02</time>
      </trkpt>
      <trkpt lat="42.20366" lon="2.37253">
        <ele>998.2</ele>
        <time>2022-05-21 23:39:03</time>
      </trkpt>
      <trkpt lat="42.20366" lon="2.3725">
        <ele>998.4</ele>
        <time>2022-05-21 23:39:04</time>
      </trkpt>
      <trkpt lat="42.20366" lon="2.37248">
        <ele>998.6</ele>
        <time>2022-05-21 23:39:05</time>
      </trkpt>
      <trkpt lat="42.20366" lon="2.37245">
        <ele>998.6</ele>
        <time>2022-05-21 23:39:06</time>
      </trkpt>
      <trkpt lat="42.20367" lon="2.37241">
        <ele>998.8</ele>
        <time>2022-05-21 23:39:07</time>
      </trkpt>
      <trkpt lat="42.20367" lon="2.37238">
        <ele>999</ele>
        <time>2022-05-21 23:39:08</time>
      </trkpt>
      <trkpt lat="42.20367" lon="2.37235">
        <ele>999.2</ele>
        <time>2022-05-21 23:39:09</time>
      </trkpt>
      <trkpt lat="42.20367" lon="2.37231">
        <ele>999.4</ele>
        <time>2022-05-21 23:39:10</time>
      </trkpt>
      <trkpt lat="42.20367" lon="2.37228">
        <ele>999.6</ele>
        <time>2022-05-21 23:39:11</time>
      </trkpt>
      <trkpt lat="42.20367" lon="2.37224">
        <ele>999.6</ele>
        <time>2022-05-21 23:39:12</time>
      </trkpt>
      <trkpt lat="42.20368" lon="2.37221">
        <ele>999.8</ele>
        <time>2022-05-21 23:39:13</time>
      </trkpt>
      <trkpt lat="42.20369" lon="2.37217">
        <ele>1000</ele>
        <time>2022-05-21 23:39:14</time>
      </trkpt>
      <trkpt lat="42.20369" lon="2.37214">
        <ele>1000</ele>
        <time>2022-05-21 23:39:15</time>
      </trkpt>
      <trkpt lat="42.20369" lon="2.37211">
        <ele>1000.2</ele>
        <time>2022-05-21 23:39:16</time>
      </trkpt>
      <trkpt lat="42.20369" lon="2.37208">
        <ele>1000.2</ele>
        <time>2022-05-21 23:39:17</time>
      </trkpt>
      <trkpt lat="42.20369" lon="2.37205">
        <ele>1000.4</ele>
        <time>2022-05-21 23:39:18</time>
      </trkpt>
      <trkpt lat="42.20369" lon="2.37201">
        <ele>1000.4</ele>
        <time>2022-05-21 23:39:19</time>
      </trkpt>
      <trkpt lat="42.20369" lon="2.37198">
        <ele>1000.6</ele>
        <time>2022-05-21 23:39:20</time>
      </trkpt>
      <trkpt lat="42.20368" lon="2.37195">
        <ele>1000.8</ele>
        <time>2022-05-21 23:39:21</time>
      </trkpt>
      <trkpt lat="42.20368" lon="2.37192">
        <ele>1000.8</ele>
        <time>2022-05-21 23:39:22</time>
      </trkpt>
      <trkpt lat="42.20367" lon="2.37189">
        <ele>1001</ele>
        <time>2022-05-21 23:39:23</time>
      </trkpt>
      <trkpt lat="42.20367" lon="2.37185">
        <ele>1001</ele>
        <time>2022-05-21 23:39:24</time>
      </trkpt>
      <trkpt lat="42.20367" lon="2.37182">
        <ele>1001.2</ele>
        <time>2022-05-21 23:39:25</time>
      </trkpt>
      <trkpt lat="42.20367" lon="2.37178">
        <ele>1001.2</ele>
        <time>2022-05-21 23:39:26</time>
      </trkpt>
      <trkpt lat="42.20366" lon="2.37175">
        <ele>1001.4</ele>
        <time>2022-05-21 23:39:27</time>
      </trkpt>
      <trkpt lat="42.20366" lon="2.37171">
        <ele>1001.6</ele>
        <time>2022-05-21 23:39:28</time>
      </trkpt>
      <trkpt lat="42.20366" lon="2.37168">
        <ele>1001.8</ele>
        <time>2022-05-21 23:39:29</time>
      </trkpt>
      <trkpt lat="42.20365" lon="2.37165">
        <ele>1001.8</ele>
        <time>2022-05-21 23:39:30</time>
      </trkpt>
      <trkpt lat="42.20364" lon="2.37161">
        <ele>1002</ele>
        <time>2022-05-21 23:39:31</time>
      </trkpt>
      <trkpt lat="42.20364" lon="2.37159">
        <ele>1002.2</ele>
        <time>2022-05-21 23:39:32</time>
      </trkpt>
      <trkpt lat="42.20363" lon="2.37156">
        <ele>1002.4</ele>
        <time>2022-05-21 23:39:33</time>
      </trkpt>
      <trkpt lat="42.20363" lon="2.37153">
        <ele>1002.6</ele>
        <time>2022-05-21 23:39:34</time>
      </trkpt>
      <trkpt lat="42.20362" lon="2.37151">
        <ele>1002.8</ele>
        <time>2022-05-21 23:39:35</time>
      </trkpt>
      <trkpt lat="42.20362" lon="2.37148">
        <ele>1003</ele>
        <time>2022-05-21 23:39:36</time>
      </trkpt>
      <trkpt lat="42.20362" lon="2.37145">
        <ele>1003.2</ele>
        <time>2022-05-21 23:39:37</time>
      </trkpt>
      <trkpt lat="42.20362" lon="2.37141">
        <ele>1003.4</ele>
        <time>2022-05-21 23:39:38</time>
      </trkpt>
      <trkpt lat="42.20361" lon="2.37138">
        <ele>1003.6</ele>
        <time>2022-05-21 23:39:39</time>
      </trkpt>
      <trkpt lat="42.2036" lon="2.37135">
        <ele>1003.6</ele>
        <time>2022-05-21 23:39:40</time>
      </trkpt>
      <trkpt lat="42.20359" lon="2.37132">
        <ele>1003.8</ele>
        <time>2022-05-21 23:39:41</time>
      </trkpt>
      <trkpt lat="42.20359" lon="2.3713">
        <ele>1003.8</ele>
        <time>2022-05-21 23:39:42</time>
      </trkpt>
      <trkpt lat="42.20358" lon="2.37127">
        <ele>1004</ele>
        <time>2022-05-21 23:39:43</time>
      </trkpt>
      <trkpt lat="42.20358" lon="2.37124">
        <ele>1004.2</ele>
        <time>2022-05-21 23:39:44</time>
      </trkpt>
      <trkpt lat="42.20357" lon="2.37122">
        <ele>1004.2</ele>
        <time>2022-05-21 23:39:45</time>
      </trkpt>
      <trkpt lat="42.20356" lon="2.37119">
        <ele>1004.4</ele>
        <time>2022-05-21 23:39:46</time>
      </trkpt>
      <trkpt lat="42.20355" lon="2.37115">
        <ele>1004.4</ele>
        <time>2022-05-21 23:39:47</time>
      </trkpt>
      <trkpt lat="42.20355" lon="2.37111">
        <ele>1004.6</ele>
        <time>2022-05-21 23:39:48</time>
      </trkpt>
      <trkpt lat="42.20354" lon="2.37107">
        <ele>1004.6</ele>
        <time>2022-05-21 23:39:49</time>
      </trkpt>
      <trkpt lat="42.20354" lon="2.37103">
        <ele>1004.6</ele>
        <time>2022-05-21 23:39:50</time>
      </trkpt>
      <trkpt lat="42.20352" lon="2.371">
        <ele>1004.8</ele>
        <time>2022-05-21 23:39:51</time>
      </trkpt>
      <trkpt lat="42.20351" lon="2.37096">
        <ele>1004.8</ele>
        <time>2022-05-21 23:39:52</time>
      </trkpt>
      <trkpt lat="42.20351" lon="2.37093">
        <ele>1004.8</ele>
        <time>2022-05-21 23:39:53</time>
      </trkpt>
      <trkpt lat="42.2035" lon="2.3709">
        <ele>1005</ele>
        <time>2022-05-21 23:39:54</time>
      </trkpt>
      <trkpt lat="42.20349" lon="2.37088">
        <ele>1005</ele>
        <time>2022-05-21 23:39:55</time>
      </trkpt>
      <trkpt lat="42.20348" lon="2.37085">
        <ele>1005.2</ele>
        <time>2022-05-21 23:39:56</time>
      </trkpt>
      <trkpt lat="42.20347" lon="2.37082">
        <ele>1005.4</ele>
        <time>2022-05-21 23:39:57</time>
      </trkpt>
      <trkpt lat="42.20346" lon="2.37079">
        <ele>1005.6</ele>
        <time>2022-05-21 23:39:58</time>
      </trkpt>
      <trkpt lat="42.20345" lon="2.37076">
        <ele>1005.6</ele>
        <time>2022-05-21 23:39:59</time>
      </trkpt>
      <trkpt lat="42.20344" lon="2.37072">
        <ele>1005.8</ele>
        <time>2022-05-21 23:40:00</time>
      </trkpt>
      <trkpt lat="42.20343" lon="2.37068">
        <ele>1006</ele>
        <time>2022-05-21 23:40:01</time>
      </trkpt>
      <trkpt lat="42.20342" lon="2.37065">
        <ele>1006</ele>
        <time>2022-05-21 23:40:02</time>
      </trkpt>
      <trkpt lat="42.20342" lon="2.37062">
        <ele>1006.2</ele>
        <time>2022-05-21 23:40:03</time>
      </trkpt>
      <trkpt lat="42.20341" lon="2.37059">
        <ele>1006.4</ele>
        <time>2022-05-21 23:40:04</time>
      </trkpt>
      <trkpt lat="42.2034" lon="2.37056">
        <ele>1006.4</ele>
        <time>2022-05-21 23:40:05</time>
      </trkpt>
      <trkpt lat="42.20339" lon="2.37054">
        <ele>1006.6</ele>
        <time>2022-05-21 23:40:06</time>
      </trkpt>
      <trkpt lat="42.20338" lon="2.37051">
        <ele>1006.8</ele>
        <time>2022-05-21 23:40:07</time>
      </trkpt>
      <trkpt lat="42.20337" lon="2.37048">
        <ele>1006.8</ele>
        <time>2022-05-21 23:40:08</time>
      </trkpt>
      <trkpt lat="42.20337" lon="2.37045">
        <ele>1007</ele>
        <time>2022-05-21 23:40:09</time>
      </trkpt>
      <trkpt lat="42.20336" lon="2.37042">
        <ele>1007</ele>
        <time>2022-05-21 23:40:10</time>
      </trkpt>
      <trkpt lat="42.20335" lon="2.37039">
        <ele>1007.2</ele>
        <time>2022-05-21 23:40:11</time>
      </trkpt>
      <trkpt lat="42.20335" lon="2.37035">
        <ele>1007.2</ele>
        <time>2022-05-21 23:40:12</time>
      </trkpt>
      <trkpt lat="42.20335" lon="2.37032">
        <ele>1007.4</ele>
        <time>2022-05-21 23:40:13</time>
      </trkpt>
      <trkpt lat="42.20335" lon="2.37029">
        <ele>1007.4</ele>
        <time>2022-05-21 23:40:14</time>
      </trkpt>
      <trkpt lat="42.20335" lon="2.37026">
        <ele>1007.6</ele>
        <time>2022-05-21 23:40:15</time>
      </trkpt>
      <trkpt lat="42.20334" lon="2.37022">
        <ele>1007.8</ele>
        <time>2022-05-21 23:40:16</time>
      </trkpt>
      <trkpt lat="42.20334" lon="2.37019">
        <ele>1008</ele>
        <time>2022-05-21 23:40:17</time>
      </trkpt>
      <trkpt lat="42.20334" lon="2.37015">
        <ele>1008.2</ele>
        <time>2022-05-21 23:40:18</time>
      </trkpt>
      <trkpt lat="42.20333" lon="2.37012">
        <ele>1008.2</ele>
        <time>2022-05-21 23:40:19</time>
      </trkpt>
      <trkpt lat="42.20333" lon="2.37009">
        <ele>1008.4</ele>
        <time>2022-05-21 23:40:20</time>
      </trkpt>
      <trkpt lat="42.20332" lon="2.37005">
        <ele>1008.6</ele>
        <time>2022-05-21 23:40:21</time>
      </trkpt>
      <trkpt lat="42.20332" lon="2.37002">
        <ele>1008.8</ele>
        <time>2022-05-21 23:40:22</time>
      </trkpt>
      <trkpt lat="42.20332" lon="2.36998">
        <ele>1009</ele>
        <time>2022-05-21 23:40:23</time>
      </trkpt>
      <trkpt lat="42.20331" lon="2.36994">
        <ele>1009</ele>
        <time>2022-05-21 23:40:24</time>
      </trkpt>
      <trkpt lat="42.2033" lon="2.36991">
        <ele>1009.2</ele>
        <time>2022-05-21 23:40:25</time>
      </trkpt>
      <trkpt lat="42.2033" lon="2.36988">
        <ele>1009.4</ele>
        <time>2022-05-21 23:40:26</time>
      </trkpt>
      <trkpt lat="42.2033" lon="2.36985">
        <ele>1009.4</ele>
        <time>2022-05-21 23:40:27</time>
      </trkpt>
      <trkpt lat="42.2033" lon="2.36982">
        <ele>1009.6</ele>
        <time>2022-05-21 23:40:28</time>
      </trkpt>
      <trkpt lat="42.2033" lon="2.36979">
        <ele>1009.8</ele>
        <time>2022-05-21 23:40:29</time>
      </trkpt>
      <trkpt lat="42.2033" lon="2.36976">
        <ele>1009.8</ele>
        <time>2022-05-21 23:40:30</time>
      </trkpt>
      <trkpt lat="42.20329" lon="2.36973">
        <ele>1010</ele>
        <time>2022-05-21 23:40:31</time>
      </trkpt>
      <trkpt lat="42.20329" lon="2.3697">
        <ele>1010.2</ele>
        <time>2022-05-21 23:40:32</time>
      </trkpt>
      <trkpt lat="42.2033" lon="2.36967">
        <ele>1010.4</ele>
        <time>2022-05-21 23:40:33</time>
      </trkpt>
      <trkpt lat="42.2033" lon="2.36964">
        <ele>1010.4</ele>
        <time>2022-05-21 23:40:34</time>
      </trkpt>
      <trkpt lat="42.2033" lon="2.36961">
        <ele>1010.6</ele>
        <time>2022-05-21 23:40:35</time>
      </trkpt>
      <trkpt lat="42.2033" lon="2.36958">
        <ele>1010.8</ele>
        <time>2022-05-21 23:40:36</time>
      </trkpt>
      <trkpt lat="42.20329" lon="2.36955">
        <ele>1011</ele>
        <time>2022-05-21 23:40:37</time>
      </trkpt>
      <trkpt lat="42.20328" lon="2.36952">
        <ele>1011.2</ele>
        <time>2022-05-21 23:40:38</time>
      </trkpt>
      <trkpt lat="42.20327" lon="2.36949">
        <ele>1011.2</ele>
        <time>2022-05-21 23:40:39</time>
      </trkpt>
      <trkpt lat="42.20327" lon="2.36946">
        <ele>1011.4</ele>
        <time>2022-05-21 23:40:40</time>
      </trkpt>
      <trkpt lat="42.20327" lon="2.36942">
        <ele>1011.6</ele>
        <time>2022-05-21 23:40:41</time>
      </trkpt>
      <trkpt lat="42.20327" lon="2.36938">
        <ele>1011.6</ele>
        <time>2022-05-21 23:40:42</time>
      </trkpt>
      <trkpt lat="42.20327" lon="2.36934">
        <ele>1011.8</ele>
        <time>2022-05-21 23:40:43</time>
      </trkpt>
      <trkpt lat="42.20327" lon="2.3693">
        <ele>1012</ele>
        <time>2022-05-21 23:40:44</time>
      </trkpt>
      <trkpt lat="42.20327" lon="2.36926">
        <ele>1012</ele>
        <time>2022-05-21 23:40:45</time>
      </trkpt>
      <trkpt lat="42.20326" lon="2.36922">
        <ele>1012.2</ele>
        <time>2022-05-21 23:40:46</time>
      </trkpt>
      <trkpt lat="42.20326" lon="2.36918">
        <ele>1012.4</ele>
        <time>2022-05-21 23:40:47</time>
      </trkpt>
      <trkpt lat="42.20325" lon="2.36914">
        <ele>1012.6</ele>
        <time>2022-05-21 23:40:48</time>
      </trkpt>
      <trkpt lat="42.20325" lon="2.36911">
        <ele>1012.8</ele>
        <time>2022-05-21 23:40:49</time>
      </trkpt>
      <trkpt lat="42.20324" lon="2.36907">
        <ele>1012.8</ele>
        <time>2022-05-21 23:40:50</time>
      </trkpt>
      <trkpt lat="42.20323" lon="2.36904">
        <ele>1013</ele>
        <time>2022-05-21 23:40:51</time>
      </trkpt>
      <trkpt lat="42.20321" lon="2.36901">
        <ele>1013.2</ele>
        <time>2022-05-21 23:40:52</time>
      </trkpt>
      <trkpt lat="42.2032" lon="2.36897">
        <ele>1013.2</ele>
        <time>2022-05-21 23:40:53</time>
      </trkpt>
      <trkpt lat="42.20318" lon="2.36894">
        <ele>1013.4</ele>
        <time>2022-05-21 23:40:54</time>
      </trkpt>
      <trkpt lat="42.20316" lon="2.36891">
        <ele>1013.4</ele>
        <time>2022-05-21 23:40:55</time>
      </trkpt>
      <trkpt lat="42.20315" lon="2.36887">
        <ele>1013.6</ele>
        <time>2022-05-21 23:40:56</time>
      </trkpt>
      <trkpt lat="42.20313" lon="2.36884">
        <ele>1013.6</ele>
        <time>2022-05-21 23:40:57</time>
      </trkpt>
      <trkpt lat="42.20312" lon="2.36881">
        <ele>1013.8</ele>
        <time>2022-05-21 23:40:58</time>
      </trkpt>
      <trkpt lat="42.20311" lon="2.36878">
        <ele>1013.8</ele>
        <time>2022-05-21 23:40:59</time>
      </trkpt>
      <trkpt lat="42.20309" lon="2.36876">
        <ele>1014</ele>
        <time>2022-05-21 23:41:00</time>
      </trkpt>
      <trkpt lat="42.20308" lon="2.36874">
        <ele>1014.2</ele>
        <time>2022-05-21 23:41:01</time>
      </trkpt>
      <trkpt lat="42.20307" lon="2.36871">
        <ele>1014.2</ele>
        <time>2022-05-21 23:41:02</time>
      </trkpt>
      <trkpt lat="42.20306" lon="2.36869">
        <ele>1014.4</ele>
        <time>2022-05-21 23:41:03</time>
      </trkpt>
      <trkpt lat="42.20306" lon="2.36866">
        <ele>1014.4</ele>
        <time>2022-05-21 23:41:04</time>
      </trkpt>
      <trkpt lat="42.20305" lon="2.36863">
        <ele>1014.6</ele>
        <time>2022-05-21 23:41:05</time>
      </trkpt>
      <trkpt lat="42.20304" lon="2.36861">
        <ele>1014.8</ele>
        <time>2022-05-21 23:41:06</time>
      </trkpt>
      <trkpt lat="42.20303" lon="2.36858">
        <ele>1014.8</ele>
        <time>2022-05-21 23:41:07</time>
      </trkpt>
      <trkpt lat="42.20303" lon="2.36855">
        <ele>1015</ele>
        <time>2022-05-21 23:41:08</time>
      </trkpt>
      <trkpt lat="42.20302" lon="2.36852">
        <ele>1015</ele>
        <time>2022-05-21 23:41:09</time>
      </trkpt>
      <trkpt lat="42.20301" lon="2.36849">
        <ele>1015.2</ele>
        <time>2022-05-21 23:41:10</time>
      </trkpt>
      <trkpt lat="42.203" lon="2.36846">
        <ele>1015.4</ele>
        <time>2022-05-21 23:41:11</time>
      </trkpt>
      <trkpt lat="42.203" lon="2.36843">
        <ele>1015.4</ele>
        <time>2022-05-21 23:41:12</time>
      </trkpt>
      <trkpt lat="42.20299" lon="2.36839">
        <ele>1015.6</ele>
        <time>2022-05-21 23:41:13</time>
      </trkpt>
      <trkpt lat="42.20298" lon="2.36836">
        <ele>1015.8</ele>
        <time>2022-05-21 23:41:14</time>
      </trkpt>
      <trkpt lat="42.20297" lon="2.36834">
        <ele>1015.8</ele>
        <time>2022-05-21 23:41:15</time>
      </trkpt>
      <trkpt lat="42.20296" lon="2.36831">
        <ele>1016</ele>
        <time>2022-05-21 23:41:16</time>
      </trkpt>
      <trkpt lat="42.20296" lon="2.36828">
        <ele>1016.2</ele>
        <time>2022-05-21 23:41:17</time>
      </trkpt>
      <trkpt lat="42.20295" lon="2.36825">
        <ele>1016.2</ele>
        <time>2022-05-21 23:41:18</time>
      </trkpt>
      <trkpt lat="42.20294" lon="2.36821">
        <ele>1016.4</ele>
        <time>2022-05-21 23:41:19</time>
      </trkpt>
      <trkpt lat="42.20293" lon="2.36817">
        <ele>1016.4</ele>
        <time>2022-05-21 23:41:20</time>
      </trkpt>
      <trkpt lat="42.20292" lon="2.36814">
        <ele>1016.6</ele>
        <time>2022-05-21 23:41:21</time>
      </trkpt>
      <trkpt lat="42.20291" lon="2.36812">
        <ele>1016.8</ele>
        <time>2022-05-21 23:41:22</time>
      </trkpt>
      <trkpt lat="42.2029" lon="2.3681">
        <ele>1016.8</ele>
        <time>2022-05-21 23:41:23</time>
      </trkpt>
      <trkpt lat="42.20289" lon="2.36807">
        <ele>1017</ele>
        <time>2022-05-21 23:41:24</time>
      </trkpt>
      <trkpt lat="42.20287" lon="2.36803">
        <ele>1017.2</ele>
        <time>2022-05-21 23:41:25</time>
      </trkpt>
      <trkpt lat="42.20286" lon="2.368">
        <ele>1017.2</ele>
        <time>2022-05-21 23:41:26</time>
      </trkpt>
      <trkpt lat="42.20284" lon="2.36797">
        <ele>1017.4</ele>
        <time>2022-05-21 23:41:27</time>
      </trkpt>
      <trkpt lat="42.20283" lon="2.36795">
        <ele>1017.4</ele>
        <time>2022-05-21 23:41:28</time>
      </trkpt>
      <trkpt lat="42.20281" lon="2.36792">
        <ele>1017.6</ele>
        <time>2022-05-21 23:41:29</time>
      </trkpt>
      <trkpt lat="42.2028" lon="2.36789">
        <ele>1017.6</ele>
        <time>2022-05-21 23:41:30</time>
      </trkpt>
      <trkpt lat="42.20278" lon="2.36786">
        <ele>1017.8</ele>
        <time>2022-05-21 23:41:31</time>
      </trkpt>
      <trkpt lat="42.20276" lon="2.36784">
        <ele>1017.8</ele>
        <time>2022-05-21 23:41:32</time>
      </trkpt>
      <trkpt lat="42.20275" lon="2.36781">
        <ele>1018</ele>
        <time>2022-05-21 23:41:33</time>
      </trkpt>
      <trkpt lat="42.20274" lon="2.36777">
        <ele>1018</ele>
        <time>2022-05-21 23:41:34</time>
      </trkpt>
      <trkpt lat="42.20272" lon="2.36774">
        <ele>1018</ele>
        <time>2022-05-21 23:41:35</time>
      </trkpt>
      <trkpt lat="42.20271" lon="2.36771">
        <ele>1018.2</ele>
        <time>2022-05-21 23:41:36</time>
      </trkpt>
      <trkpt lat="42.2027" lon="2.36768">
        <ele>1018.2</ele>
        <time>2022-05-21 23:41:37</time>
      </trkpt>
      <trkpt lat="42.20269" lon="2.36765">
        <ele>1018.4</ele>
        <time>2022-05-21 23:41:38</time>
      </trkpt>
      <trkpt lat="42.20268" lon="2.36762">
        <ele>1018.6</ele>
        <time>2022-05-21 23:41:39</time>
      </trkpt>
      <trkpt lat="42.20267" lon="2.36759">
        <ele>1018.8</ele>
        <time>2022-05-21 23:41:40</time>
      </trkpt>
      <trkpt lat="42.20267" lon="2.36756">
        <ele>1019</ele>
        <time>2022-05-21 23:41:41</time>
      </trkpt>
      <trkpt lat="42.20266" lon="2.36753">
        <ele>1019.2</ele>
        <time>2022-05-21 23:41:42</time>
      </trkpt>
      <trkpt lat="42.20266" lon="2.36751">
        <ele>1019.4</ele>
        <time>2022-05-21 23:41:43</time>
      </trkpt>
      <trkpt lat="42.20266" lon="2.36749">
        <ele>1019.6</ele>
        <time>2022-05-21 23:41:44</time>
      </trkpt>
      <trkpt lat="42.20266" lon="2.36746">
        <ele>1019.8</ele>
        <time>2022-05-21 23:41:45</time>
      </trkpt>
      <trkpt lat="42.20266" lon="2.36744">
        <ele>1020</ele>
        <time>2022-05-21 23:41:46</time>
      </trkpt>
      <trkpt lat="42.20266" lon="2.36741">
        <ele>1020.2</ele>
        <time>2022-05-21 23:41:47</time>
      </trkpt>
      <trkpt lat="42.20266" lon="2.36738">
        <ele>1020.4</ele>
        <time>2022-05-21 23:41:48</time>
      </trkpt>
      <trkpt lat="42.20266" lon="2.36735">
        <ele>1020.6</ele>
        <time>2022-05-21 23:41:49</time>
      </trkpt>
      <trkpt lat="42.20266" lon="2.36732">
        <ele>1020.8</ele>
        <time>2022-05-21 23:41:50</time>
      </trkpt>
      <trkpt lat="42.20266" lon="2.3673">
        <ele>1020.8</ele>
        <time>2022-05-21 23:41:51</time>
      </trkpt>
      <trkpt lat="42.20266" lon="2.36727">
        <ele>1021</ele>
        <time>2022-05-21 23:41:52</time>
      </trkpt>
      <trkpt lat="42.20265" lon="2.36724">
        <ele>1021.2</ele>
        <time>2022-05-21 23:41:53</time>
      </trkpt>
      <trkpt lat="42.20265" lon="2.36721">
        <ele>1021.4</ele>
        <time>2022-05-21 23:41:54</time>
      </trkpt>
      <trkpt lat="42.20265" lon="2.36717">
        <ele>1021.4</ele>
        <time>2022-05-21 23:41:55</time>
      </trkpt>
      <trkpt lat="42.20265" lon="2.36713">
        <ele>1021.6</ele>
        <time>2022-05-21 23:41:56</time>
      </trkpt>
      <trkpt lat="42.20264" lon="2.3671">
        <ele>1021.6</ele>
        <time>2022-05-21 23:41:57</time>
      </trkpt>
      <trkpt lat="42.20264" lon="2.36706">
        <ele>1021.8</ele>
        <time>2022-05-21 23:41:58</time>
      </trkpt>
      <trkpt lat="42.20263" lon="2.36702">
        <ele>1022</ele>
        <time>2022-05-21 23:41:59</time>
      </trkpt>
      <trkpt lat="42.20262" lon="2.36699">
        <ele>1022</ele>
        <time>2022-05-21 23:42:00</time>
      </trkpt>
      <trkpt lat="42.20261" lon="2.36696">
        <ele>1022.2</ele>
        <time>2022-05-21 23:42:01</time>
      </trkpt>
      <trkpt lat="42.2026" lon="2.36693">
        <ele>1022.4</ele>
        <time>2022-05-21 23:42:02</time>
      </trkpt>
      <trkpt lat="42.20259" lon="2.3669">
        <ele>1022.6</ele>
        <time>2022-05-21 23:42:03</time>
      </trkpt>
      <trkpt lat="42.20258" lon="2.36687">
        <ele>1022.8</ele>
        <time>2022-05-21 23:42:04</time>
      </trkpt>
      <trkpt lat="42.20257" lon="2.36684">
        <ele>1023</ele>
        <time>2022-05-21 23:42:05</time>
      </trkpt>
      <trkpt lat="42.20256" lon="2.36681">
        <ele>1023</ele>
        <time>2022-05-21 23:42:06</time>
      </trkpt>
      <trkpt lat="42.20254" lon="2.36678">
        <ele>1023.2</ele>
        <time>2022-05-21 23:42:07</time>
      </trkpt>
      <trkpt lat="42.20253" lon="2.36675">
        <ele>1023.4</ele>
        <time>2022-05-21 23:42:08</time>
      </trkpt>
      <trkpt lat="42.20252" lon="2.36672">
        <ele>1023.6</ele>
        <time>2022-05-21 23:42:09</time>
      </trkpt>
      <trkpt lat="42.2025" lon="2.3667">
        <ele>1023.8</ele>
        <time>2022-05-21 23:42:10</time>
      </trkpt>
      <trkpt lat="42.20249" lon="2.36667">
        <ele>1024</ele>
        <time>2022-05-21 23:42:11</time>
      </trkpt>
      <trkpt lat="42.20248" lon="2.36665">
        <ele>1024.2</ele>
        <time>2022-05-21 23:42:12</time>
      </trkpt>
      <trkpt lat="42.20246" lon="2.36662">
        <ele>1024.4</ele>
        <time>2022-05-21 23:42:13</time>
      </trkpt>
      <trkpt lat="42.20245" lon="2.36659">
        <ele>1024.4</ele>
        <time>2022-05-21 23:42:14</time>
      </trkpt>
      <trkpt lat="42.20245" lon="2.36656">
        <ele>1024.6</ele>
        <time>2022-05-21 23:42:15</time>
      </trkpt>
      <trkpt lat="42.20245" lon="2.36653">
        <ele>1024.8</ele>
        <time>2022-05-21 23:42:16</time>
      </trkpt>
      <trkpt lat="42.20245" lon="2.36649">
        <ele>1025</ele>
        <time>2022-05-21 23:42:17</time>
      </trkpt>
      <trkpt lat="42.20246" lon="2.36646">
        <ele>1025.2</ele>
        <time>2022-05-21 23:42:18</time>
      </trkpt>
      <trkpt lat="42.20246" lon="2.36643">
        <ele>1025.4</ele>
        <time>2022-05-21 23:42:19</time>
      </trkpt>
      <trkpt lat="42.20247" lon="2.3664">
        <ele>1025.4</ele>
        <time>2022-05-21 23:42:20</time>
      </trkpt>
      <trkpt lat="42.20248" lon="2.36638">
        <ele>1025.6</ele>
        <time>2022-05-21 23:42:21</time>
      </trkpt>
      <trkpt lat="42.20249" lon="2.36635">
        <ele>1025.8</ele>
        <time>2022-05-21 23:42:22</time>
      </trkpt>
      <trkpt lat="42.2025" lon="2.36632">
        <ele>1026</ele>
        <time>2022-05-21 23:42:23</time>
      </trkpt>
      <trkpt lat="42.2025" lon="2.36629">
        <ele>1026.2</ele>
        <time>2022-05-21 23:42:24</time>
      </trkpt>
      <trkpt lat="42.20251" lon="2.36626">
        <ele>1026.4</ele>
        <time>2022-05-21 23:42:25</time>
      </trkpt>
      <trkpt lat="42.20251" lon="2.36624">
        <ele>1026.6</ele>
        <time>2022-05-21 23:42:26</time>
      </trkpt>
      <trkpt lat="42.20251" lon="2.36621">
        <ele>1026.8</ele>
        <time>2022-05-21 23:42:27</time>
      </trkpt>
      <trkpt lat="42.20251" lon="2.36618">
        <ele>1026.8</ele>
        <time>2022-05-21 23:42:28</time>
      </trkpt>
      <trkpt lat="42.20251" lon="2.36615">
        <ele>1027</ele>
        <time>2022-05-21 23:42:29</time>
      </trkpt>
      <trkpt lat="42.2025" lon="2.36611">
        <ele>1027.2</ele>
        <time>2022-05-21 23:42:30</time>
      </trkpt>
      <trkpt lat="42.20249" lon="2.36608">
        <ele>1027.4</ele>
        <time>2022-05-21 23:42:31</time>
      </trkpt>
      <trkpt lat="42.20248" lon="2.36605">
        <ele>1027.6</ele>
        <time>2022-05-21 23:42:32</time>
      </trkpt>
      <trkpt lat="42.20248" lon="2.36602">
        <ele>1027.8</ele>
        <time>2022-05-21 23:42:33</time>
      </trkpt>
      <trkpt lat="42.20247" lon="2.366">
        <ele>1028</ele>
        <time>2022-05-21 23:42:34</time>
      </trkpt>
      <trkpt lat="42.20246" lon="2.36598">
        <ele>1028.2</ele>
        <time>2022-05-21 23:42:35</time>
      </trkpt>
      <trkpt lat="42.20245" lon="2.36595">
        <ele>1028.4</ele>
        <time>2022-05-21 23:42:36</time>
      </trkpt>
      <trkpt lat="42.20243" lon="2.36592">
        <ele>1028.6</ele>
        <time>2022-05-21 23:42:37</time>
      </trkpt>
      <trkpt lat="42.20242" lon="2.36589">
        <ele>1028.8</ele>
        <time>2022-05-21 23:42:38</time>
      </trkpt>
      <trkpt lat="42.20241" lon="2.36587">
        <ele>1029</ele>
        <time>2022-05-21 23:42:39</time>
      </trkpt>
      <trkpt lat="42.20239" lon="2.36584">
        <ele>1029.2</ele>
        <time>2022-05-21 23:42:40</time>
      </trkpt>
      <trkpt lat="42.20238" lon="2.36581">
        <ele>1029.2</ele>
        <time>2022-05-21 23:42:41</time>
      </trkpt>
      <trkpt lat="42.20236" lon="2.36578">
        <ele>1029.4</ele>
        <time>2022-05-21 23:42:42</time>
      </trkpt>
      <trkpt lat="42.20235" lon="2.36575">
        <ele>1029.6</ele>
        <time>2022-05-21 23:42:43</time>
      </trkpt>
      <trkpt lat="42.20233" lon="2.36572">
        <ele>1029.8</ele>
        <time>2022-05-21 23:42:44</time>
      </trkpt>
      <trkpt lat="42.20232" lon="2.3657">
        <ele>1029.8</ele>
        <time>2022-05-21 23:42:45</time>
      </trkpt>
      <trkpt lat="42.20231" lon="2.36567">
        <ele>1030</ele>
        <time>2022-05-21 23:42:46</time>
      </trkpt>
      <trkpt lat="42.20229" lon="2.36564">
        <ele>1030</ele>
        <time>2022-05-21 23:42:47</time>
      </trkpt>
      <trkpt lat="42.20227" lon="2.36561">
        <ele>1030.2</ele>
        <time>2022-05-21 23:42:48</time>
      </trkpt>
      <trkpt lat="42.20226" lon="2.36559">
        <ele>1030.4</ele>
        <time>2022-05-21 23:42:49</time>
      </trkpt>
      <trkpt lat="42.20224" lon="2.36557">
        <ele>1030.6</ele>
        <time>2022-05-21 23:42:50</time>
      </trkpt>
      <trkpt lat="42.20223" lon="2.36555">
        <ele>1030.6</ele>
        <time>2022-05-21 23:42:51</time>
      </trkpt>
      <trkpt lat="42.20221" lon="2.36553">
        <ele>1030.8</ele>
        <time>2022-05-21 23:42:52</time>
      </trkpt>
      <trkpt lat="42.2022" lon="2.36551">
        <ele>1031</ele>
        <time>2022-05-21 23:42:53</time>
      </trkpt>
      <trkpt lat="42.20218" lon="2.36549">
        <ele>1031.2</ele>
        <time>2022-05-21 23:42:54</time>
      </trkpt>
      <trkpt lat="42.20216" lon="2.36547">
        <ele>1031.4</ele>
        <time>2022-05-21 23:42:55</time>
      </trkpt>
      <trkpt lat="42.20214" lon="2.36545">
        <ele>1031.6</ele>
        <time>2022-05-21 23:42:56</time>
      </trkpt>
      <trkpt lat="42.20212" lon="2.36543">
        <ele>1031.8</ele>
        <time>2022-05-21 23:42:57</time>
      </trkpt>
      <trkpt lat="42.2021" lon="2.36542">
        <ele>1032</ele>
        <time>2022-05-21 23:42:58</time>
      </trkpt>
      <trkpt lat="42.20208" lon="2.3654">
        <ele>1032.2</ele>
        <time>2022-05-21 23:42:59</time>
      </trkpt>
      <trkpt lat="42.20206" lon="2.36538">
        <ele>1032.2</ele>
        <time>2022-05-21 23:43:00</time>
      </trkpt>
      <trkpt lat="42.20204" lon="2.36537">
        <ele>1032.4</ele>
        <time>2022-05-21 23:43:01</time>
      </trkpt>
      <trkpt lat="42.20202" lon="2.36536">
        <ele>1032.6</ele>
        <time>2022-05-21 23:43:02</time>
      </trkpt>
      <trkpt lat="42.20199" lon="2.36534">
        <ele>1032.6</ele>
        <time>2022-05-21 23:43:03</time>
      </trkpt>
      <trkpt lat="42.20197" lon="2.36533">
        <ele>1032.8</ele>
        <time>2022-05-21 23:43:04</time>
      </trkpt>
      <trkpt lat="42.20195" lon="2.36532">
        <ele>1032.8</ele>
        <time>2022-05-21 23:43:05</time>
      </trkpt>
      <trkpt lat="42.20194" lon="2.3653">
        <ele>1032.8</ele>
        <time>2022-05-21 23:43:06</time>
      </trkpt>
      <trkpt lat="42.20192" lon="2.36528">
        <ele>1033</ele>
        <time>2022-05-21 23:43:07</time>
      </trkpt>
      <trkpt lat="42.2019" lon="2.36526">
        <ele>1033</ele>
        <time>2022-05-21 23:43:08</time>
      </trkpt>
      <trkpt lat="42.20188" lon="2.36524">
        <ele>1033.2</ele>
        <time>2022-05-21 23:43:09</time>
      </trkpt>
      <trkpt lat="42.20186" lon="2.36523">
        <ele>1033.2</ele>
        <time>2022-05-21 23:43:10</time>
      </trkpt>
      <trkpt lat="42.20185" lon="2.36521">
        <ele>1033.4</ele>
        <time>2022-05-21 23:43:11</time>
      </trkpt>
      <trkpt lat="42.20183" lon="2.36519">
        <ele>1033.4</ele>
        <time>2022-05-21 23:43:12</time>
      </trkpt>
      <trkpt lat="42.20181" lon="2.36517">
        <ele>1033.6</ele>
        <time>2022-05-21 23:43:13</time>
      </trkpt>
      <trkpt lat="42.20179" lon="2.36515">
        <ele>1033.8</ele>
        <time>2022-05-21 23:43:14</time>
      </trkpt>
      <trkpt lat="42.20177" lon="2.36513">
        <ele>1034</ele>
        <time>2022-05-21 23:43:15</time>
      </trkpt>
      <trkpt lat="42.20176" lon="2.36511">
        <ele>1034.2</ele>
        <time>2022-05-21 23:43:16</time>
      </trkpt>
      <trkpt lat="42.20174" lon="2.36508">
        <ele>1034.4</ele>
        <time>2022-05-21 23:43:17</time>
      </trkpt>
      <trkpt lat="42.20172" lon="2.36505">
        <ele>1034.8</ele>
        <time>2022-05-21 23:43:18</time>
      </trkpt>
      <trkpt lat="42.20171" lon="2.36503">
        <ele>1035</ele>
        <time>2022-05-21 23:43:19</time>
      </trkpt>
      <trkpt lat="42.20169" lon="2.365">
        <ele>1035.2</ele>
        <time>2022-05-21 23:43:20</time>
      </trkpt>
      <trkpt lat="42.20168" lon="2.36497">
        <ele>1035.4</ele>
        <time>2022-05-21 23:43:21</time>
      </trkpt>
      <trkpt lat="42.20167" lon="2.36495">
        <ele>1035.4</ele>
        <time>2022-05-21 23:43:22</time>
      </trkpt>
      <trkpt lat="42.20166" lon="2.36492">
        <ele>1035.6</ele>
        <time>2022-05-21 23:43:23</time>
      </trkpt>
      <trkpt lat="42.20165" lon="2.3649">
        <ele>1035.8</ele>
        <time>2022-05-21 23:43:24</time>
      </trkpt>
      <trkpt lat="42.20163" lon="2.36487">
        <ele>1035.8</ele>
        <time>2022-05-21 23:43:25</time>
      </trkpt>
      <trkpt lat="42.20162" lon="2.36484">
        <ele>1036</ele>
        <time>2022-05-21 23:43:26</time>
      </trkpt>
      <trkpt lat="42.20161" lon="2.36481">
        <ele>1036</ele>
        <time>2022-05-21 23:43:27</time>
      </trkpt>
      <trkpt lat="42.2016" lon="2.36478">
        <ele>1036.2</ele>
        <time>2022-05-21 23:43:28</time>
      </trkpt>
      <trkpt lat="42.20159" lon="2.36475">
        <ele>1036.2</ele>
        <time>2022-05-21 23:43:29</time>
      </trkpt>
      <trkpt lat="42.20158" lon="2.36472">
        <ele>1036.2</ele>
        <time>2022-05-21 23:43:30</time>
      </trkpt>
      <trkpt lat="42.20157" lon="2.36469">
        <ele>1036.4</ele>
        <time>2022-05-21 23:43:31</time>
      </trkpt>
      <trkpt lat="42.20157" lon="2.36466">
        <ele>1036.6</ele>
        <time>2022-05-21 23:43:32</time>
      </trkpt>
      <trkpt lat="42.20158" lon="2.36463">
        <ele>1037</ele>
        <time>2022-05-21 23:43:33</time>
      </trkpt>
      <trkpt lat="42.20158" lon="2.36459">
        <ele>1037.2</ele>
        <time>2022-05-21 23:43:34</time>
      </trkpt>
      <trkpt lat="42.20158" lon="2.36456">
        <ele>1037.4</ele>
        <time>2022-05-21 23:43:35</time>
      </trkpt>
      <trkpt lat="42.20159" lon="2.36453">
        <ele>1037.6</ele>
        <time>2022-05-21 23:43:36</time>
      </trkpt>
      <trkpt lat="42.20159" lon="2.3645">
        <ele>1038</ele>
        <time>2022-05-21 23:43:37</time>
      </trkpt>
      <trkpt lat="42.2016" lon="2.36446">
        <ele>1038.2</ele>
        <time>2022-05-21 23:43:38</time>
      </trkpt>
      <trkpt lat="42.2016" lon="2.36443">
        <ele>1038.2</ele>
        <time>2022-05-21 23:43:39</time>
      </trkpt>
      <trkpt lat="42.20161" lon="2.3644">
        <ele>1038.6</ele>
        <time>2022-05-21 23:43:40</time>
      </trkpt>
      <trkpt lat="42.2016" lon="2.36437">
        <ele>1038.8</ele>
        <time>2022-05-21 23:43:41</time>
      </trkpt>
      <trkpt lat="42.2016" lon="2.36434">
        <ele>1039</ele>
        <time>2022-05-21 23:43:42</time>
      </trkpt>
      <trkpt lat="42.2016" lon="2.36431">
        <ele>1039.2</ele>
        <time>2022-05-21 23:43:43</time>
      </trkpt>
      <trkpt lat="42.2016" lon="2.36427">
        <ele>1039.4</ele>
        <time>2022-05-21 23:43:44</time>
      </trkpt>
      <trkpt lat="42.2016" lon="2.36424">
        <ele>1039.6</ele>
        <time>2022-05-21 23:43:45</time>
      </trkpt>
      <trkpt lat="42.20159" lon="2.36421">
        <ele>1039.6</ele>
        <time>2022-05-21 23:43:46</time>
      </trkpt>
      <trkpt lat="42.20159" lon="2.36418">
        <ele>1039.8</ele>
        <time>2022-05-21 23:43:47</time>
      </trkpt>
      <trkpt lat="42.20158" lon="2.36415">
        <ele>1040</ele>
        <time>2022-05-21 23:43:48</time>
      </trkpt>
      <trkpt lat="42.20157" lon="2.36412">
        <ele>1040.2</ele>
        <time>2022-05-21 23:43:49</time>
      </trkpt>
      <trkpt lat="42.20156" lon="2.36409">
        <ele>1040.2</ele>
        <time>2022-05-21 23:43:50</time>
      </trkpt>
      <trkpt lat="42.20155" lon="2.36406">
        <ele>1040.4</ele>
        <time>2022-05-21 23:43:51</time>
      </trkpt>
      <trkpt lat="42.20154" lon="2.36402">
        <ele>1040.4</ele>
        <time>2022-05-21 23:43:52</time>
      </trkpt>
      <trkpt lat="42.20153" lon="2.36399">
        <ele>1040.4</ele>
        <time>2022-05-21 23:43:53</time>
      </trkpt>
      <trkpt lat="42.20152" lon="2.36396">
        <ele>1040.6</ele>
        <time>2022-05-21 23:43:54</time>
      </trkpt>
      <trkpt lat="42.20151" lon="2.36394">
        <ele>1040.6</ele>
        <time>2022-05-21 23:43:55</time>
      </trkpt>
      <trkpt lat="42.2015" lon="2.36391">
        <ele>1040.8</ele>
        <time>2022-05-21 23:43:56</time>
      </trkpt>
      <trkpt lat="42.20149" lon="2.36388">
        <ele>1041</ele>
        <time>2022-05-21 23:43:57</time>
      </trkpt>
      <trkpt lat="42.20148" lon="2.36385">
        <ele>1041</ele>
        <time>2022-05-21 23:43:58</time>
      </trkpt>
      <trkpt lat="42.20147" lon="2.36383">
        <ele>1041.2</ele>
        <time>2022-05-21 23:43:59</time>
      </trkpt>
      <trkpt lat="42.20147" lon="2.3638">
        <ele>1041.4</ele>
        <time>2022-05-21 23:44:00</time>
      </trkpt>
      <trkpt lat="42.20146" lon="2.36378">
        <ele>1041.6</ele>
        <time>2022-05-21 23:44:01</time>
      </trkpt>
      <trkpt lat="42.20145" lon="2.36375">
        <ele>1041.8</ele>
        <time>2022-05-21 23:44:02</time>
      </trkpt>
      <trkpt lat="42.20144" lon="2.36373">
        <ele>1041.8</ele>
        <time>2022-05-21 23:44:03</time>
      </trkpt>
      <trkpt lat="42.20143" lon="2.3637">
        <ele>1042</ele>
        <time>2022-05-21 23:44:04</time>
      </trkpt>
      <trkpt lat="42.20142" lon="2.36367">
        <ele>1042</ele>
        <time>2022-05-21 23:44:05</time>
      </trkpt>
      <trkpt lat="42.20141" lon="2.36364">
        <ele>1042.2</ele>
        <time>2022-05-21 23:44:06</time>
      </trkpt>
      <trkpt lat="42.2014" lon="2.36361">
        <ele>1042.2</ele>
        <time>2022-05-21 23:44:07</time>
      </trkpt>
      <trkpt lat="42.20139" lon="2.36358">
        <ele>1042.4</ele>
        <time>2022-05-21 23:44:08</time>
      </trkpt>
      <trkpt lat="42.20138" lon="2.36355">
        <ele>1042.4</ele>
        <time>2022-05-21 23:44:09</time>
      </trkpt>
      <trkpt lat="42.20137" lon="2.36352">
        <ele>1042.6</ele>
        <time>2022-05-21 23:44:10</time>
      </trkpt>
      <trkpt lat="42.20136" lon="2.3635">
        <ele>1042.8</ele>
        <time>2022-05-21 23:44:11</time>
      </trkpt>
      <trkpt lat="42.20135" lon="2.36347">
        <ele>1043</ele>
        <time>2022-05-21 23:44:12</time>
      </trkpt>
      <trkpt lat="42.20134" lon="2.36344">
        <ele>1043</ele>
        <time>2022-05-21 23:44:13</time>
      </trkpt>
      <trkpt lat="42.20132" lon="2.36341">
        <ele>1043</ele>
        <time>2022-05-21 23:44:14</time>
      </trkpt>
      <trkpt lat="42.20131" lon="2.36338">
        <ele>1043.2</ele>
        <time>2022-05-21 23:44:15</time>
      </trkpt>
      <trkpt lat="42.2013" lon="2.36335">
        <ele>1043.2</ele>
        <time>2022-05-21 23:44:16</time>
      </trkpt>
      <trkpt lat="42.20129" lon="2.36332">
        <ele>1043.4</ele>
        <time>2022-05-21 23:44:17</time>
      </trkpt>
      <trkpt lat="42.20127" lon="2.36329">
        <ele>1043.6</ele>
        <time>2022-05-21 23:44:18</time>
      </trkpt>
      <trkpt lat="42.20126" lon="2.36326">
        <ele>1043.8</ele>
        <time>2022-05-21 23:44:19</time>
      </trkpt>
      <trkpt lat="42.20125" lon="2.36323">
        <ele>1044</ele>
        <time>2022-05-21 23:44:20</time>
      </trkpt>
      <trkpt lat="42.20124" lon="2.36321">
        <ele>1044</ele>
        <time>2022-05-21 23:44:21</time>
      </trkpt>
      <trkpt lat="42.20123" lon="2.36318">
        <ele>1044.2</ele>
        <time>2022-05-21 23:44:22</time>
      </trkpt>
      <trkpt lat="42.20121" lon="2.36315">
        <ele>1044.4</ele>
        <time>2022-05-21 23:44:23</time>
      </trkpt>
      <trkpt lat="42.2012" lon="2.36312">
        <ele>1044.4</ele>
        <time>2022-05-21 23:44:24</time>
      </trkpt>
      <trkpt lat="42.20119" lon="2.36309">
        <ele>1044.4</ele>
        <time>2022-05-21 23:44:25</time>
      </trkpt>
      <trkpt lat="42.20118" lon="2.36306">
        <ele>1044.6</ele>
        <time>2022-05-21 23:44:26</time>
      </trkpt>
      <trkpt lat="42.20118" lon="2.36303">
        <ele>1044.6</ele>
        <time>2022-05-21 23:44:27</time>
      </trkpt>
      <trkpt lat="42.20117" lon="2.363">
        <ele>1044.8</ele>
        <time>2022-05-21 23:44:28</time>
      </trkpt>
      <trkpt lat="42.20116" lon="2.36297">
        <ele>1044.8</ele>
        <time>2022-05-21 23:44:29</time>
      </trkpt>
      <trkpt lat="42.20116" lon="2.36294">
        <ele>1044.8</ele>
        <time>2022-05-21 23:44:30</time>
      </trkpt>
      <trkpt lat="42.20116" lon="2.36291">
        <ele>1044.8</ele>
        <time>2022-05-21 23:44:31</time>
      </trkpt>
      <trkpt lat="42.20116" lon="2.36289">
        <ele>1045</ele>
        <time>2022-05-21 23:44:32</time>
      </trkpt>
      <trkpt lat="42.20116" lon="2.36285">
        <ele>1045.2</ele>
        <time>2022-05-21 23:44:33</time>
      </trkpt>
      <trkpt lat="42.20116" lon="2.36282">
        <ele>1045.4</ele>
        <time>2022-05-21 23:44:34</time>
      </trkpt>
      <trkpt lat="42.20117" lon="2.36278">
        <ele>1045.6</ele>
        <time>2022-05-21 23:44:35</time>
      </trkpt>
      <trkpt lat="42.20117" lon="2.36275">
        <ele>1045.6</ele>
        <time>2022-05-21 23:44:36</time>
      </trkpt>
      <trkpt lat="42.20117" lon="2.36272">
        <ele>1045.8</ele>
        <time>2022-05-21 23:44:37</time>
      </trkpt>
      <trkpt lat="42.20117" lon="2.36269">
        <ele>1046</ele>
        <time>2022-05-21 23:44:38</time>
      </trkpt>
      <trkpt lat="42.20117" lon="2.36266">
        <ele>1046.2</ele>
        <time>2022-05-21 23:44:39</time>
      </trkpt>
      <trkpt lat="42.20117" lon="2.36263">
        <ele>1046.4</ele>
        <time>2022-05-21 23:44:40</time>
      </trkpt>
      <trkpt lat="42.20117" lon="2.3626">
        <ele>1046.6</ele>
        <time>2022-05-21 23:44:41</time>
      </trkpt>
      <trkpt lat="42.20118" lon="2.36257">
        <ele>1046.6</ele>
        <time>2022-05-21 23:44:42</time>
      </trkpt>
      <trkpt lat="42.20118" lon="2.36254">
        <ele>1046.8</ele>
        <time>2022-05-21 23:44:43</time>
      </trkpt>
      <trkpt lat="42.20118" lon="2.36251">
        <ele>1046.8</ele>
        <time>2022-05-21 23:44:44</time>
      </trkpt>
      <trkpt lat="42.20118" lon="2.36248">
        <ele>1047</ele>
        <time>2022-05-21 23:44:45</time>
      </trkpt>
      <trkpt lat="42.20118" lon="2.36245">
        <ele>1047</ele>
        <time>2022-05-21 23:44:46</time>
      </trkpt>
      <trkpt lat="42.20118" lon="2.36241">
        <ele>1047.2</ele>
        <time>2022-05-21 23:44:47</time>
      </trkpt>
      <trkpt lat="42.20119" lon="2.36238">
        <ele>1047.2</ele>
        <time>2022-05-21 23:44:48</time>
      </trkpt>
      <trkpt lat="42.20119" lon="2.36235">
        <ele>1047.4</ele>
        <time>2022-05-21 23:44:49</time>
      </trkpt>
      <trkpt lat="42.2012" lon="2.36231">
        <ele>1047.8</ele>
        <time>2022-05-21 23:44:50</time>
      </trkpt>
      <trkpt lat="42.20121" lon="2.36227">
        <ele>1048</ele>
        <time>2022-05-21 23:44:51</time>
      </trkpt>
      <trkpt lat="42.20122" lon="2.36224">
        <ele>1048.2</ele>
        <time>2022-05-21 23:44:52</time>
      </trkpt>
      <trkpt lat="42.20123" lon="2.3622">
        <ele>1048.4</ele>
        <time>2022-05-21 23:44:53</time>
      </trkpt>
      <trkpt lat="42.20123" lon="2.36217">
        <ele>1048.6</ele>
        <time>2022-05-21 23:44:54</time>
      </trkpt>
      <trkpt lat="42.20124" lon="2.36214">
        <ele>1048.8</ele>
        <time>2022-05-21 23:44:55</time>
      </trkpt>
      <trkpt lat="42.20125" lon="2.36211">
        <ele>1049</ele>
        <time>2022-05-21 23:44:56</time>
      </trkpt>
      <trkpt lat="42.20126" lon="2.36208">
        <ele>1049.2</ele>
        <time>2022-05-21 23:44:57</time>
      </trkpt>
      <trkpt lat="42.20127" lon="2.36205">
        <ele>1049.4</ele>
        <time>2022-05-21 23:44:58</time>
      </trkpt>
      <trkpt lat="42.20129" lon="2.36202">
        <ele>1049.6</ele>
        <time>2022-05-21 23:44:59</time>
      </trkpt>
      <trkpt lat="42.20131" lon="2.36199">
        <ele>1049.8</ele>
        <time>2022-05-21 23:45:00</time>
      </trkpt>
      <trkpt lat="42.20132" lon="2.36196">
        <ele>1050</ele>
        <time>2022-05-21 23:45:01</time>
      </trkpt>
      <trkpt lat="42.20133" lon="2.36193">
        <ele>1050</ele>
        <time>2022-05-21 23:45:02</time>
      </trkpt>
      <trkpt lat="42.20134" lon="2.3619">
        <ele>1050.2</ele>
        <time>2022-05-21 23:45:03</time>
      </trkpt>
      <trkpt lat="42.20135" lon="2.36187">
        <ele>1050.4</ele>
        <time>2022-05-21 23:45:04</time>
      </trkpt>
      <trkpt lat="42.20136" lon="2.36184">
        <ele>1050.4</ele>
        <time>2022-05-21 23:45:05</time>
      </trkpt>
      <trkpt lat="42.20138" lon="2.36181">
        <ele>1050.6</ele>
        <time>2022-05-21 23:45:06</time>
      </trkpt>
      <trkpt lat="42.20139" lon="2.36179">
        <ele>1050.8</ele>
        <time>2022-05-21 23:45:07</time>
      </trkpt>
      <trkpt lat="42.20139" lon="2.36176">
        <ele>1050.8</ele>
        <time>2022-05-21 23:45:08</time>
      </trkpt>
      <trkpt lat="42.2014" lon="2.36174">
        <ele>1051</ele>
        <time>2022-05-21 23:45:09</time>
      </trkpt>
      <trkpt lat="42.20141" lon="2.36171">
        <ele>1051.2</ele>
        <time>2022-05-21 23:45:10</time>
      </trkpt>
      <trkpt lat="42.20142" lon="2.36169">
        <ele>1051.4</ele>
        <time>2022-05-21 23:45:11</time>
      </trkpt>
      <trkpt lat="42.20143" lon="2.36166">
        <ele>1051.6</ele>
        <time>2022-05-21 23:45:12</time>
      </trkpt>
      <trkpt lat="42.20143" lon="2.36163">
        <ele>1051.6</ele>
        <time>2022-05-21 23:45:13</time>
      </trkpt>
      <trkpt lat="42.20144" lon="2.36161">
        <ele>1051.8</ele>
        <time>2022-05-21 23:45:14</time>
      </trkpt>
      <trkpt lat="42.20144" lon="2.36158">
        <ele>1052</ele>
        <time>2022-05-21 23:45:15</time>
      </trkpt>
      <trkpt lat="42.20144" lon="2.36154">
        <ele>1052.2</ele>
        <time>2022-05-21 23:45:16</time>
      </trkpt>
      <trkpt lat="42.20144" lon="2.3615">
        <ele>1052.2</ele>
        <time>2022-05-21 23:45:17</time>
      </trkpt>
      <trkpt lat="42.20143" lon="2.36147">
        <ele>1052.4</ele>
        <time>2022-05-21 23:45:18</time>
      </trkpt>
      <trkpt lat="42.20143" lon="2.36143">
        <ele>1052.4</ele>
        <time>2022-05-21 23:45:19</time>
      </trkpt>
      <trkpt lat="42.20142" lon="2.3614">
        <ele>1052.6</ele>
        <time>2022-05-21 23:45:20</time>
      </trkpt>
      <trkpt lat="42.20141" lon="2.36137">
        <ele>1052.6</ele>
        <time>2022-05-21 23:45:21</time>
      </trkpt>
      <trkpt lat="42.2014" lon="2.36134">
        <ele>1052.8</ele>
        <time>2022-05-21 23:45:22</time>
      </trkpt>
      <trkpt lat="42.20139" lon="2.36132">
        <ele>1052.8</ele>
        <time>2022-05-21 23:45:23</time>
      </trkpt>
      <trkpt lat="42.20137" lon="2.36129">
        <ele>1053</ele>
        <time>2022-05-21 23:45:24</time>
      </trkpt>
      <trkpt lat="42.20135" lon="2.36127">
        <ele>1053.2</ele>
        <time>2022-05-21 23:45:25</time>
      </trkpt>
      <trkpt lat="42.20134" lon="2.36124">
        <ele>1053.4</ele>
        <time>2022-05-21 23:45:26</time>
      </trkpt>
      <trkpt lat="42.20132" lon="2.36121">
        <ele>1053.6</ele>
        <time>2022-05-21 23:45:27</time>
      </trkpt>
      <trkpt lat="42.20131" lon="2.36119">
        <ele>1053.6</ele>
        <time>2022-05-21 23:45:28</time>
      </trkpt>
      <trkpt lat="42.2013" lon="2.36116">
        <ele>1053.8</ele>
        <time>2022-05-21 23:45:29</time>
      </trkpt>
      <trkpt lat="42.20128" lon="2.36113">
        <ele>1053.8</ele>
        <time>2022-05-21 23:45:30</time>
      </trkpt>
      <trkpt lat="42.20127" lon="2.36111">
        <ele>1054</ele>
        <time>2022-05-21 23:45:31</time>
      </trkpt>
      <trkpt lat="42.20126" lon="2.36108">
        <ele>1054.2</ele>
        <time>2022-05-21 23:45:32</time>
      </trkpt>
      <trkpt lat="42.20124" lon="2.36106">
        <ele>1054.2</ele>
        <time>2022-05-21 23:45:33</time>
      </trkpt>
      <trkpt lat="42.20123" lon="2.36103">
        <ele>1054.4</ele>
        <time>2022-05-21 23:45:34</time>
      </trkpt>
      <trkpt lat="42.20121" lon="2.361">
        <ele>1054.6</ele>
        <time>2022-05-21 23:45:35</time>
      </trkpt>
      <trkpt lat="42.2012" lon="2.36097">
        <ele>1054.8</ele>
        <time>2022-05-21 23:45:36</time>
      </trkpt>
      <trkpt lat="42.20119" lon="2.36094">
        <ele>1054.8</ele>
        <time>2022-05-21 23:45:37</time>
      </trkpt>
      <trkpt lat="42.20117" lon="2.36092">
        <ele>1055</ele>
        <time>2022-05-21 23:45:38</time>
      </trkpt>
      <trkpt lat="42.20116" lon="2.3609">
        <ele>1055</ele>
        <time>2022-05-21 23:45:39</time>
      </trkpt>
      <trkpt lat="42.20114" lon="2.36087">
        <ele>1055</ele>
        <time>2022-05-21 23:45:40</time>
      </trkpt>
      <trkpt lat="42.20113" lon="2.36085">
        <ele>1055.2</ele>
        <time>2022-05-21 23:45:41</time>
      </trkpt>
      <trkpt lat="42.20112" lon="2.36082">
        <ele>1055.2</ele>
        <time>2022-05-21 23:45:42</time>
      </trkpt>
      <trkpt lat="42.2011" lon="2.3608">
        <ele>1055.2</ele>
        <time>2022-05-21 23:45:43</time>
      </trkpt>
      <trkpt lat="42.20109" lon="2.36076">
        <ele>1055.2</ele>
        <time>2022-05-21 23:45:44</time>
      </trkpt>
      <trkpt lat="42.20108" lon="2.36073">
        <ele>1055.2</ele>
        <time>2022-05-21 23:45:45</time>
      </trkpt>
      <trkpt lat="42.20107" lon="2.3607">
        <ele>1055.2</ele>
        <time>2022-05-21 23:45:46</time>
      </trkpt>
      <trkpt lat="42.20106" lon="2.36067">
        <ele>1055.2</ele>
        <time>2022-05-21 23:45:47</time>
      </trkpt>
      <trkpt lat="42.20104" lon="2.36064">
        <ele>1055.2</ele>
        <time>2022-05-21 23:45:48</time>
      </trkpt>
      <trkpt lat="42.20103" lon="2.36061">
        <ele>1055.4</ele>
        <time>2022-05-21 23:45:49</time>
      </trkpt>
      <trkpt lat="42.20103" lon="2.36058">
        <ele>1055.4</ele>
        <time>2022-05-21 23:45:50</time>
      </trkpt>
      <trkpt lat="42.20102" lon="2.36054">
        <ele>1055.4</ele>
        <time>2022-05-21 23:45:51</time>
      </trkpt>
      <trkpt lat="42.20103" lon="2.36051">
        <ele>1055.4</ele>
        <time>2022-05-21 23:45:52</time>
      </trkpt>
      <trkpt lat="42.20103" lon="2.36047">
        <ele>1055.4</ele>
        <time>2022-05-21 23:45:53</time>
      </trkpt>
      <trkpt lat="42.20103" lon="2.36044">
        <ele>1055.4</ele>
        <time>2022-05-21 23:45:54</time>
      </trkpt>
      <trkpt lat="42.20104" lon="2.36041">
        <ele>1055.4</ele>
        <time>2022-05-21 23:45:55</time>
      </trkpt>
      <trkpt lat="42.20104" lon="2.36038">
        <ele>1055.2</ele>
        <time>2022-05-21 23:45:56</time>
      </trkpt>
      <trkpt lat="42.20104" lon="2.36034">
        <ele>1055.4</ele>
        <time>2022-05-21 23:45:57</time>
      </trkpt>
      <trkpt lat="42.20104" lon="2.36032">
        <ele>1055.4</ele>
        <time>2022-05-21 23:45:58</time>
      </trkpt>
      <trkpt lat="42.20105" lon="2.36029">
        <ele>1055.6</ele>
        <time>2022-05-21 23:45:59</time>
      </trkpt>
      <trkpt lat="42.20105" lon="2.36026">
        <ele>1055.6</ele>
        <time>2022-05-21 23:46:00</time>
      </trkpt>
      <trkpt lat="42.20106" lon="2.36023">
        <ele>1055.6</ele>
        <time>2022-05-21 23:46:01</time>
      </trkpt>
      <trkpt lat="42.20107" lon="2.3602">
        <ele>1055.6</ele>
        <time>2022-05-21 23:46:02</time>
      </trkpt>
      <trkpt lat="42.20109" lon="2.36018">
        <ele>1055.6</ele>
        <time>2022-05-21 23:46:03</time>
      </trkpt>
      <trkpt lat="42.2011" lon="2.36015">
        <ele>1055.8</ele>
        <time>2022-05-21 23:46:04</time>
      </trkpt>
      <trkpt lat="42.2011" lon="2.36013">
        <ele>1055.8</ele>
        <time>2022-05-21 23:46:05</time>
      </trkpt>
      <trkpt lat="42.20111" lon="2.3601">
        <ele>1055.6</ele>
        <time>2022-05-21 23:46:06</time>
      </trkpt>
      <trkpt lat="42.20111" lon="2.36008">
        <ele>1055.6</ele>
        <time>2022-05-21 23:46:07</time>
      </trkpt>
      <trkpt lat="42.20112" lon="2.36005">
        <ele>1055.6</ele>
        <time>2022-05-21 23:46:08</time>
      </trkpt>
      <trkpt lat="42.20112" lon="2.36003">
        <ele>1055.8</ele>
        <time>2022-05-21 23:46:09</time>
      </trkpt>
      <trkpt lat="42.20113" lon="2.36001">
        <ele>1055.8</ele>
        <time>2022-05-21 23:46:10</time>
      </trkpt>
      <trkpt lat="42.20114" lon="2.35998">
        <ele>1055.8</ele>
        <time>2022-05-21 23:46:11</time>
      </trkpt>
      <trkpt lat="42.20116" lon="2.35996">
        <ele>1056</ele>
        <time>2022-05-21 23:46:12</time>
      </trkpt>
      <trkpt lat="42.20118" lon="2.35993">
        <ele>1056</ele>
        <time>2022-05-21 23:46:13</time>
      </trkpt>
      <trkpt lat="42.20119" lon="2.35991">
        <ele>1056.2</ele>
        <time>2022-05-21 23:46:14</time>
      </trkpt>
      <trkpt lat="42.20121" lon="2.35989">
        <ele>1056.2</ele>
        <time>2022-05-21 23:46:15</time>
      </trkpt>
      <trkpt lat="42.20123" lon="2.35987">
        <ele>1056.4</ele>
        <time>2022-05-21 23:46:16</time>
      </trkpt>
      <trkpt lat="42.20126" lon="2.35984">
        <ele>1056.4</ele>
        <time>2022-05-21 23:46:17</time>
      </trkpt>
      <trkpt lat="42.20128" lon="2.35981">
        <ele>1056.6</ele>
        <time>2022-05-21 23:46:18</time>
      </trkpt>
      <trkpt lat="42.2013" lon="2.35977">
        <ele>1056.6</ele>
        <time>2022-05-21 23:46:19</time>
      </trkpt>
      <trkpt lat="42.20132" lon="2.35974">
        <ele>1056.8</ele>
        <time>2022-05-21 23:46:20</time>
      </trkpt>
      <trkpt lat="42.20133" lon="2.35971">
        <ele>1057</ele>
        <time>2022-05-21 23:46:21</time>
      </trkpt>
      <trkpt lat="42.20135" lon="2.35968">
        <ele>1057.2</ele>
        <time>2022-05-21 23:46:22</time>
      </trkpt>
      <trkpt lat="42.20136" lon="2.35965">
        <ele>1057.4</ele>
        <time>2022-05-21 23:46:23</time>
      </trkpt>
      <trkpt lat="42.20137" lon="2.35963">
        <ele>1057.6</ele>
        <time>2022-05-21 23:46:24</time>
      </trkpt>
      <trkpt lat="42.20138" lon="2.3596">
        <ele>1057.6</ele>
        <time>2022-05-21 23:46:25</time>
      </trkpt>
      <trkpt lat="42.20139" lon="2.35957">
        <ele>1057.8</ele>
        <time>2022-05-21 23:46:26</time>
      </trkpt>
      <trkpt lat="42.2014" lon="2.35954">
        <ele>1057.8</ele>
        <time>2022-05-21 23:46:27</time>
      </trkpt>
      <trkpt lat="42.20141" lon="2.35951">
        <ele>1057.8</ele>
        <time>2022-05-21 23:46:28</time>
      </trkpt>
      <trkpt lat="42.20142" lon="2.35948">
        <ele>1058.2</ele>
        <time>2022-05-21 23:46:29</time>
      </trkpt>
      <trkpt lat="42.20143" lon="2.35945">
        <ele>1058.4</ele>
        <time>2022-05-21 23:46:30</time>
      </trkpt>
      <trkpt lat="42.20143" lon="2.35943">
        <ele>1058.6</ele>
        <time>2022-05-21 23:46:31</time>
      </trkpt>
      <trkpt lat="42.20143" lon="2.3594">
        <ele>1058.8</ele>
        <time>2022-05-21 23:46:32</time>
      </trkpt>
      <trkpt lat="42.20143" lon="2.35937">
        <ele>1059</ele>
        <time>2022-05-21 23:46:33</time>
      </trkpt>
      <trkpt lat="42.20143" lon="2.35934">
        <ele>1059.2</ele>
        <time>2022-05-21 23:46:34</time>
      </trkpt>
      <trkpt lat="42.20144" lon="2.3593">
        <ele>1059.4</ele>
        <time>2022-05-21 23:46:35</time>
      </trkpt>
      <trkpt lat="42.20145" lon="2.35927">
        <ele>1059.4</ele>
        <time>2022-05-21 23:46:36</time>
      </trkpt>
      <trkpt lat="42.20146" lon="2.35924">
        <ele>1059.6</ele>
        <time>2022-05-21 23:46:37</time>
      </trkpt>
      <trkpt lat="42.20147" lon="2.35921">
        <ele>1059.8</ele>
        <time>2022-05-21 23:46:38</time>
      </trkpt>
      <trkpt lat="42.20148" lon="2.35918">
        <ele>1060</ele>
        <time>2022-05-21 23:46:39</time>
      </trkpt>
      <trkpt lat="42.20149" lon="2.35915">
        <ele>1060.2</ele>
        <time>2022-05-21 23:46:40</time>
      </trkpt>
      <trkpt lat="42.20151" lon="2.35913">
        <ele>1060.4</ele>
        <time>2022-05-21 23:46:41</time>
      </trkpt>
      <trkpt lat="42.20152" lon="2.3591">
        <ele>1060.4</ele>
        <time>2022-05-21 23:46:42</time>
      </trkpt>
      <trkpt lat="42.20153" lon="2.35907">
        <ele>1060.6</ele>
        <time>2022-05-21 23:46:43</time>
      </trkpt>
      <trkpt lat="42.20154" lon="2.35904">
        <ele>1060.8</ele>
        <time>2022-05-21 23:46:44</time>
      </trkpt>
      <trkpt lat="42.20155" lon="2.35901">
        <ele>1061</ele>
        <time>2022-05-21 23:46:45</time>
      </trkpt>
      <trkpt lat="42.20156" lon="2.35897">
        <ele>1061.2</ele>
        <time>2022-05-21 23:46:46</time>
      </trkpt>
      <trkpt lat="42.20157" lon="2.35894">
        <ele>1061.4</ele>
        <time>2022-05-21 23:46:47</time>
      </trkpt>
      <trkpt lat="42.20158" lon="2.3589">
        <ele>1061.6</ele>
        <time>2022-05-21 23:46:48</time>
      </trkpt>
      <trkpt lat="42.20158" lon="2.35887">
        <ele>1061.6</ele>
        <time>2022-05-21 23:46:49</time>
      </trkpt>
      <trkpt lat="42.20158" lon="2.35883">
        <ele>1061.8</ele>
        <time>2022-05-21 23:46:50</time>
      </trkpt>
      <trkpt lat="42.20157" lon="2.35879">
        <ele>1062</ele>
        <time>2022-05-21 23:46:51</time>
      </trkpt>
      <trkpt lat="42.20156" lon="2.35875">
        <ele>1062</ele>
        <time>2022-05-21 23:46:52</time>
      </trkpt>
      <trkpt lat="42.20154" lon="2.35872">
        <ele>1062.2</ele>
        <time>2022-05-21 23:46:53</time>
      </trkpt>
      <trkpt lat="42.20153" lon="2.35868">
        <ele>1062.4</ele>
        <time>2022-05-21 23:46:54</time>
      </trkpt>
      <trkpt lat="42.20152" lon="2.35865">
        <ele>1062.4</ele>
        <time>2022-05-21 23:46:55</time>
      </trkpt>
      <trkpt lat="42.2015" lon="2.35862">
        <ele>1062.6</ele>
        <time>2022-05-21 23:46:56</time>
      </trkpt>
      <trkpt lat="42.20149" lon="2.3586">
        <ele>1062.8</ele>
        <time>2022-05-21 23:46:57</time>
      </trkpt>
      <trkpt lat="42.20147" lon="2.35857">
        <ele>1063</ele>
        <time>2022-05-21 23:46:58</time>
      </trkpt>
      <trkpt lat="42.20146" lon="2.35855">
        <ele>1063</ele>
        <time>2022-05-21 23:46:59</time>
      </trkpt>
      <trkpt lat="42.20145" lon="2.35852">
        <ele>1063.2</ele>
        <time>2022-05-21 23:47:00</time>
      </trkpt>
      <trkpt lat="42.20144" lon="2.35849">
        <ele>1063.4</ele>
        <time>2022-05-21 23:47:01</time>
      </trkpt>
      <trkpt lat="42.20143" lon="2.35846">
        <ele>1063.6</ele>
        <time>2022-05-21 23:47:02</time>
      </trkpt>
      <trkpt lat="42.20142" lon="2.35843">
        <ele>1063.8</ele>
        <time>2022-05-21 23:47:03</time>
      </trkpt>
      <trkpt lat="42.20141" lon="2.35841">
        <ele>1063.8</ele>
        <time>2022-05-21 23:47:04</time>
      </trkpt>
      <trkpt lat="42.2014" lon="2.35838">
        <ele>1064</ele>
        <time>2022-05-21 23:47:05</time>
      </trkpt>
      <trkpt lat="42.2014" lon="2.35836">
        <ele>1064.2</ele>
        <time>2022-05-21 23:47:06</time>
      </trkpt>
      <trkpt lat="42.20139" lon="2.35833">
        <ele>1064.2</ele>
        <time>2022-05-21 23:47:07</time>
      </trkpt>
      <trkpt lat="42.20139" lon="2.3583">
        <ele>1064.2</ele>
        <time>2022-05-21 23:47:08</time>
      </trkpt>
      <trkpt lat="42.20138" lon="2.35828">
        <ele>1064.4</ele>
        <time>2022-05-21 23:47:09</time>
      </trkpt>
      <trkpt lat="42.20138" lon="2.35825">
        <ele>1064.4</ele>
        <time>2022-05-21 23:47:10</time>
      </trkpt>
      <trkpt lat="42.20138" lon="2.35822">
        <ele>1064.6</ele>
        <time>2022-05-21 23:47:11</time>
      </trkpt>
      <trkpt lat="42.20138" lon="2.35819">
        <ele>1064.6</ele>
        <time>2022-05-21 23:47:12</time>
      </trkpt>
      <trkpt lat="42.20137" lon="2.35816">
        <ele>1064.8</ele>
        <time>2022-05-21 23:47:13</time>
      </trkpt>
      <trkpt lat="42.20136" lon="2.35813">
        <ele>1064.8</ele>
        <time>2022-05-21 23:47:14</time>
      </trkpt>
      <trkpt lat="42.20135" lon="2.35811">
        <ele>1065</ele>
        <time>2022-05-21 23:47:15</time>
      </trkpt>
      <trkpt lat="42.20135" lon="2.35808">
        <ele>1065.2</ele>
        <time>2022-05-21 23:47:16</time>
      </trkpt>
      <trkpt lat="42.20134" lon="2.35805">
        <ele>1065.2</ele>
        <time>2022-05-21 23:47:17</time>
      </trkpt>
      <trkpt lat="42.20134" lon="2.35801">
        <ele>1065.4</ele>
        <time>2022-05-21 23:47:18</time>
      </trkpt>
      <trkpt lat="42.20134" lon="2.35798">
        <ele>1065.4</ele>
        <time>2022-05-21 23:47:19</time>
      </trkpt>
      <trkpt lat="42.20134" lon="2.35795">
        <ele>1065.6</ele>
        <time>2022-05-21 23:47:20</time>
      </trkpt>
      <trkpt lat="42.20135" lon="2.35792">
        <ele>1065.8</ele>
        <time>2022-05-21 23:47:21</time>
      </trkpt>
      <trkpt lat="42.20135" lon="2.35788">
        <ele>1065.8</ele>
        <time>2022-05-21 23:47:22</time>
      </trkpt>
      <trkpt lat="42.20136" lon="2.35785">
        <ele>1066</ele>
        <time>2022-05-21 23:47:23</time>
      </trkpt>
      <trkpt lat="42.20137" lon="2.35782">
        <ele>1066.2</ele>
        <time>2022-05-21 23:47:24</time>
      </trkpt>
      <trkpt lat="42.20138" lon="2.35779">
        <ele>1066.4</ele>
        <time>2022-05-21 23:47:25</time>
      </trkpt>
      <trkpt lat="42.20139" lon="2.35776">
        <ele>1066.6</ele>
        <time>2022-05-21 23:47:26</time>
      </trkpt>
      <trkpt lat="42.2014" lon="2.35773">
        <ele>1067</ele>
        <time>2022-05-21 23:47:27</time>
      </trkpt>
      <trkpt lat="42.20141" lon="2.3577">
        <ele>1067.2</ele>
        <time>2022-05-21 23:47:28</time>
      </trkpt>
      <trkpt lat="42.20142" lon="2.35767">
        <ele>1067.2</ele>
        <time>2022-05-21 23:47:29</time>
      </trkpt>
      <trkpt lat="42.20143" lon="2.35764">
        <ele>1067.4</ele>
        <time>2022-05-21 23:47:30</time>
      </trkpt>
      <trkpt lat="42.20144" lon="2.35761">
        <ele>1067.6</ele>
        <time>2022-05-21 23:47:31</time>
      </trkpt>
      <trkpt lat="42.20145" lon="2.35759">
        <ele>1067.6</ele>
        <time>2022-05-21 23:47:32</time>
      </trkpt>
      <trkpt lat="42.20146" lon="2.35756">
        <ele>1067.8</ele>
        <time>2022-05-21 23:47:33</time>
      </trkpt>
      <trkpt lat="42.20147" lon="2.35753">
        <ele>1067.8</ele>
        <time>2022-05-21 23:47:34</time>
      </trkpt>
      <trkpt lat="42.20148" lon="2.3575">
        <ele>1068</ele>
        <time>2022-05-21 23:47:35</time>
      </trkpt>
      <trkpt lat="42.20149" lon="2.35747">
        <ele>1068.2</ele>
        <time>2022-05-21 23:47:36</time>
      </trkpt>
      <trkpt lat="42.2015" lon="2.35743">
        <ele>1068.4</ele>
        <time>2022-05-21 23:47:37</time>
      </trkpt>
      <trkpt lat="42.20151" lon="2.3574">
        <ele>1068.6</ele>
        <time>2022-05-21 23:47:38</time>
      </trkpt>
      <trkpt lat="42.20151" lon="2.35736">
        <ele>1068.8</ele>
        <time>2022-05-21 23:47:39</time>
      </trkpt>
      <trkpt lat="42.20151" lon="2.35733">
        <ele>1069</ele>
        <time>2022-05-21 23:47:40</time>
      </trkpt>
      <trkpt lat="42.20151" lon="2.35729">
        <ele>1069</ele>
        <time>2022-05-21 23:47:41</time>
      </trkpt>
      <trkpt lat="42.2015" lon="2.35726">
        <ele>1069.2</ele>
        <time>2022-05-21 23:47:42</time>
      </trkpt>
      <trkpt lat="42.2015" lon="2.35722">
        <ele>1069.2</ele>
        <time>2022-05-21 23:47:43</time>
      </trkpt>
      <trkpt lat="42.20149" lon="2.35719">
        <ele>1069.2</ele>
        <time>2022-05-21 23:47:44</time>
      </trkpt>
      <trkpt lat="42.20148" lon="2.35715">
        <ele>1069.4</ele>
        <time>2022-05-21 23:47:45</time>
      </trkpt>
      <trkpt lat="42.20147" lon="2.35712">
        <ele>1069.4</ele>
        <time>2022-05-21 23:47:46</time>
      </trkpt>
      <trkpt lat="42.20146" lon="2.35709">
        <ele>1069.6</ele>
        <time>2022-05-21 23:47:47</time>
      </trkpt>
      <trkpt lat="42.20144" lon="2.35706">
        <ele>1069.6</ele>
        <time>2022-05-21 23:47:48</time>
      </trkpt>
      <trkpt lat="42.20143" lon="2.35703">
        <ele>1069.8</ele>
        <time>2022-05-21 23:47:49</time>
      </trkpt>
      <trkpt lat="42.20141" lon="2.357">
        <ele>1069.8</ele>
        <time>2022-05-21 23:47:50</time>
      </trkpt>
      <trkpt lat="42.2014" lon="2.35697">
        <ele>1070</ele>
        <time>2022-05-21 23:47:51</time>
      </trkpt>
      <trkpt lat="42.20139" lon="2.35694">
        <ele>1070</ele>
        <time>2022-05-21 23:47:52</time>
      </trkpt>
      <trkpt lat="42.20137" lon="2.35691">
        <ele>1070.2</ele>
        <time>2022-05-21 23:47:53</time>
      </trkpt>
      <trkpt lat="42.20136" lon="2.35688">
        <ele>1070.2</ele>
        <time>2022-05-21 23:47:54</time>
      </trkpt>
      <trkpt lat="42.20134" lon="2.35685">
        <ele>1070.4</ele>
        <time>2022-05-21 23:47:55</time>
      </trkpt>
      <trkpt lat="42.20133" lon="2.35682">
        <ele>1070.4</ele>
        <time>2022-05-21 23:47:56</time>
      </trkpt>
      <trkpt lat="42.20131" lon="2.35679">
        <ele>1070.6</ele>
        <time>2022-05-21 23:47:57</time>
      </trkpt>
      <trkpt lat="42.20129" lon="2.35675">
        <ele>1070.6</ele>
        <time>2022-05-21 23:47:58</time>
      </trkpt>
      <trkpt lat="42.20128" lon="2.35672">
        <ele>1070.8</ele>
        <time>2022-05-21 23:47:59</time>
      </trkpt>
      <trkpt lat="42.20126" lon="2.35668">
        <ele>1071</ele>
        <time>2022-05-21 23:48:00</time>
      </trkpt>
      <trkpt lat="42.20124" lon="2.35665">
        <ele>1071</ele>
        <time>2022-05-21 23:48:01</time>
      </trkpt>
      <trkpt lat="42.20123" lon="2.35662">
        <ele>1071.2</ele>
        <time>2022-05-21 23:48:02</time>
      </trkpt>
      <trkpt lat="42.20121" lon="2.35659">
        <ele>1071.4</ele>
        <time>2022-05-21 23:48:03</time>
      </trkpt>
      <trkpt lat="42.2012" lon="2.35657">
        <ele>1071.4</ele>
        <time>2022-05-21 23:48:04</time>
      </trkpt>
      <trkpt lat="42.20119" lon="2.35654">
        <ele>1071.4</ele>
        <time>2022-05-21 23:48:05</time>
      </trkpt>
      <trkpt lat="42.20118" lon="2.35651">
        <ele>1071.6</ele>
        <time>2022-05-21 23:48:06</time>
      </trkpt>
      <trkpt lat="42.20116" lon="2.35647">
        <ele>1071.6</ele>
        <time>2022-05-21 23:48:07</time>
      </trkpt>
      <trkpt lat="42.20114" lon="2.35644">
        <ele>1071.6</ele>
        <time>2022-05-21 23:48:08</time>
      </trkpt>
      <trkpt lat="42.20113" lon="2.35641">
        <ele>1071.6</ele>
        <time>2022-05-21 23:48:09</time>
      </trkpt>
      <trkpt lat="42.20112" lon="2.35638">
        <ele>1071.8</ele>
        <time>2022-05-21 23:48:10</time>
      </trkpt>
      <trkpt lat="42.20112" lon="2.35635">
        <ele>1071.8</ele>
        <time>2022-05-21 23:48:11</time>
      </trkpt>
      <trkpt lat="42.20111" lon="2.35632">
        <ele>1072</ele>
        <time>2022-05-21 23:48:12</time>
      </trkpt>
      <trkpt lat="42.2011" lon="2.35629">
        <ele>1072</ele>
        <time>2022-05-21 23:48:13</time>
      </trkpt>
      <trkpt lat="42.2011" lon="2.35626">
        <ele>1072.2</ele>
        <time>2022-05-21 23:48:14</time>
      </trkpt>
      <trkpt lat="42.2011" lon="2.35623">
        <ele>1072.2</ele>
        <time>2022-05-21 23:48:15</time>
      </trkpt>
      <trkpt lat="42.20111" lon="2.35619">
        <ele>1072.4</ele>
        <time>2022-05-21 23:48:16</time>
      </trkpt>
      <trkpt lat="42.20113" lon="2.35616">
        <ele>1072.4</ele>
        <time>2022-05-21 23:48:17</time>
      </trkpt>
      <trkpt lat="42.20114" lon="2.35612">
        <ele>1072.6</ele>
        <time>2022-05-21 23:48:18</time>
      </trkpt>
      <trkpt lat="42.20115" lon="2.35609">
        <ele>1072.6</ele>
        <time>2022-05-21 23:48:19</time>
      </trkpt>
      <trkpt lat="42.20116" lon="2.35605">
        <ele>1072.8</ele>
        <time>2022-05-21 23:48:20</time>
      </trkpt>
      <trkpt lat="42.20117" lon="2.35602">
        <ele>1072.8</ele>
        <time>2022-05-21 23:48:21</time>
      </trkpt>
      <trkpt lat="42.20119" lon="2.35599">
        <ele>1072.8</ele>
        <time>2022-05-21 23:48:22</time>
      </trkpt>
      <trkpt lat="42.2012" lon="2.35597">
        <ele>1072.8</ele>
        <time>2022-05-21 23:48:23</time>
      </trkpt>
      <trkpt lat="42.20122" lon="2.35594">
        <ele>1072.8</ele>
        <time>2022-05-21 23:48:24</time>
      </trkpt>
      <trkpt lat="42.20123" lon="2.35591">
        <ele>1072.8</ele>
        <time>2022-05-21 23:48:25</time>
      </trkpt>
      <trkpt lat="42.20125" lon="2.35589">
        <ele>1073</ele>
        <time>2022-05-21 23:48:26</time>
      </trkpt>
      <trkpt lat="42.20127" lon="2.35587">
        <ele>1073</ele>
        <time>2022-05-21 23:48:27</time>
      </trkpt>
      <trkpt lat="42.2013" lon="2.35585">
        <ele>1073</ele>
        <time>2022-05-21 23:48:28</time>
      </trkpt>
      <trkpt lat="42.20132" lon="2.35583">
        <ele>1073</ele>
        <time>2022-05-21 23:48:29</time>
      </trkpt>
      <trkpt lat="42.20134" lon="2.3558">
        <ele>1073.2</ele>
        <time>2022-05-21 23:48:30</time>
      </trkpt>
      <trkpt lat="42.20136" lon="2.35578">
        <ele>1073.2</ele>
        <time>2022-05-21 23:48:31</time>
      </trkpt>
      <trkpt lat="42.20137" lon="2.35575">
        <ele>1073.4</ele>
        <time>2022-05-21 23:48:32</time>
      </trkpt>
      <trkpt lat="42.20139" lon="2.35572">
        <ele>1073.6</ele>
        <time>2022-05-21 23:48:33</time>
      </trkpt>
      <trkpt lat="42.2014" lon="2.35569">
        <ele>1073.8</ele>
        <time>2022-05-21 23:48:34</time>
      </trkpt>
      <trkpt lat="42.20142" lon="2.35566">
        <ele>1074</ele>
        <time>2022-05-21 23:48:35</time>
      </trkpt>
      <trkpt lat="42.20144" lon="2.35564">
        <ele>1074</ele>
        <time>2022-05-21 23:48:36</time>
      </trkpt>
      <trkpt lat="42.20146" lon="2.35562">
        <ele>1074.2</ele>
        <time>2022-05-21 23:48:37</time>
      </trkpt>
      <trkpt lat="42.20149" lon="2.3556">
        <ele>1074.4</ele>
        <time>2022-05-21 23:48:38</time>
      </trkpt>
      <trkpt lat="42.20151" lon="2.35557">
        <ele>1074.6</ele>
        <time>2022-05-21 23:48:39</time>
      </trkpt>
      <trkpt lat="42.20153" lon="2.35554">
        <ele>1074.8</ele>
        <time>2022-05-21 23:48:40</time>
      </trkpt>
      <trkpt lat="42.20155" lon="2.35551">
        <ele>1075</ele>
        <time>2022-05-21 23:48:41</time>
      </trkpt>
      <trkpt lat="42.20156" lon="2.35549">
        <ele>1075</ele>
        <time>2022-05-21 23:48:42</time>
      </trkpt>
      <trkpt lat="42.20158" lon="2.35546">
        <ele>1075.2</ele>
        <time>2022-05-21 23:48:43</time>
      </trkpt>
      <trkpt lat="42.20159" lon="2.35543">
        <ele>1075.4</ele>
        <time>2022-05-21 23:48:44</time>
      </trkpt>
      <trkpt lat="42.2016" lon="2.35539">
        <ele>1075.4</ele>
        <time>2022-05-21 23:48:45</time>
      </trkpt>
      <trkpt lat="42.20161" lon="2.35535">
        <ele>1075.6</ele>
        <time>2022-05-21 23:48:46</time>
      </trkpt>
      <trkpt lat="42.20161" lon="2.35531">
        <ele>1075.8</ele>
        <time>2022-05-21 23:48:47</time>
      </trkpt>
      <trkpt lat="42.20162" lon="2.35527">
        <ele>1076</ele>
        <time>2022-05-21 23:48:48</time>
      </trkpt>
      <trkpt lat="42.20163" lon="2.35523">
        <ele>1076</ele>
        <time>2022-05-21 23:48:49</time>
      </trkpt>
      <trkpt lat="42.20164" lon="2.35519">
        <ele>1076.2</ele>
        <time>2022-05-21 23:48:50</time>
      </trkpt>
      <trkpt lat="42.20164" lon="2.35515">
        <ele>1076.4</ele>
        <time>2022-05-21 23:48:51</time>
      </trkpt>
      <trkpt lat="42.20165" lon="2.35512">
        <ele>1076.6</ele>
        <time>2022-05-21 23:48:52</time>
      </trkpt>
      <trkpt lat="42.20165" lon="2.35509">
        <ele>1076.6</ele>
        <time>2022-05-21 23:48:53</time>
      </trkpt>
      <trkpt lat="42.20165" lon="2.35505">
        <ele>1076.8</ele>
        <time>2022-05-21 23:48:54</time>
      </trkpt>
      <trkpt lat="42.20164" lon="2.35502">
        <ele>1076.8</ele>
        <time>2022-05-21 23:48:55</time>
      </trkpt>
      <trkpt lat="42.20163" lon="2.35498">
        <ele>1077</ele>
        <time>2022-05-21 23:48:56</time>
      </trkpt>
      <trkpt lat="42.20162" lon="2.35494">
        <ele>1077</ele>
        <time>2022-05-21 23:48:57</time>
      </trkpt>
      <trkpt lat="42.20161" lon="2.35491">
        <ele>1077.2</ele>
        <time>2022-05-21 23:48:58</time>
      </trkpt>
      <trkpt lat="42.20161" lon="2.35487">
        <ele>1077.4</ele>
        <time>2022-05-21 23:48:59</time>
      </trkpt>
      <trkpt lat="42.2016" lon="2.35483">
        <ele>1077.6</ele>
        <time>2022-05-21 23:49:00</time>
      </trkpt>
      <trkpt lat="42.20159" lon="2.3548">
        <ele>1077.6</ele>
        <time>2022-05-21 23:49:01</time>
      </trkpt>
      <trkpt lat="42.20157" lon="2.35476">
        <ele>1077.8</ele>
        <time>2022-05-21 23:49:02</time>
      </trkpt>
      <trkpt lat="42.20155" lon="2.35472">
        <ele>1078</ele>
        <time>2022-05-21 23:49:03</time>
      </trkpt>
      <trkpt lat="42.20153" lon="2.35467">
        <ele>1078.2</ele>
        <time>2022-05-21 23:49:04</time>
      </trkpt>
      <trkpt lat="42.20151" lon="2.35463">
        <ele>1078.4</ele>
        <time>2022-05-21 23:49:05</time>
      </trkpt>
      <trkpt lat="42.20149" lon="2.35459">
        <ele>1078.4</ele>
        <time>2022-05-21 23:49:06</time>
      </trkpt>
      <trkpt lat="42.20148" lon="2.35455">
        <ele>1078.6</ele>
        <time>2022-05-21 23:49:07</time>
      </trkpt>
      <trkpt lat="42.20147" lon="2.35451">
        <ele>1078.8</ele>
        <time>2022-05-21 23:49:08</time>
      </trkpt>
      <trkpt lat="42.20145" lon="2.35447">
        <ele>1079</ele>
        <time>2022-05-21 23:49:09</time>
      </trkpt>
      <trkpt lat="42.20144" lon="2.35444">
        <ele>1079.2</ele>
        <time>2022-05-21 23:49:10</time>
      </trkpt>
      <trkpt lat="42.20142" lon="2.35441">
        <ele>1079.4</ele>
        <time>2022-05-21 23:49:11</time>
      </trkpt>
      <trkpt lat="42.20141" lon="2.35438">
        <ele>1079.6</ele>
        <time>2022-05-21 23:49:12</time>
      </trkpt>
      <trkpt lat="42.20139" lon="2.35435">
        <ele>1079.8</ele>
        <time>2022-05-21 23:49:13</time>
      </trkpt>
      <trkpt lat="42.20138" lon="2.35432">
        <ele>1079.8</ele>
        <time>2022-05-21 23:49:14</time>
      </trkpt>
      <trkpt lat="42.20137" lon="2.35428">
        <ele>1080</ele>
        <time>2022-05-21 23:49:15</time>
      </trkpt>
      <trkpt lat="42.20136" lon="2.35425">
        <ele>1080.2</ele>
        <time>2022-05-21 23:49:16</time>
      </trkpt>
      <trkpt lat="42.20136" lon="2.35422">
        <ele>1080.4</ele>
        <time>2022-05-21 23:49:17</time>
      </trkpt>
      <trkpt lat="42.20135" lon="2.35418">
        <ele>1080.6</ele>
        <time>2022-05-21 23:49:18</time>
      </trkpt>
      <trkpt lat="42.20135" lon="2.35415">
        <ele>1080.8</ele>
        <time>2022-05-21 23:49:19</time>
      </trkpt>
      <trkpt lat="42.20135" lon="2.35412">
        <ele>1080.8</ele>
        <time>2022-05-21 23:49:20</time>
      </trkpt>
      <trkpt lat="42.20135" lon="2.35409">
        <ele>1081</ele>
        <time>2022-05-21 23:49:21</time>
      </trkpt>
      <trkpt lat="42.20135" lon="2.35406">
        <ele>1081.2</ele>
        <time>2022-05-21 23:49:22</time>
      </trkpt>
      <trkpt lat="42.20135" lon="2.35402">
        <ele>1081.2</ele>
        <time>2022-05-21 23:49:23</time>
      </trkpt>
      <trkpt lat="42.20135" lon="2.35399">
        <ele>1081.4</ele>
        <time>2022-05-21 23:49:24</time>
      </trkpt>
      <trkpt lat="42.20134" lon="2.35396">
        <ele>1081.4</ele>
        <time>2022-05-21 23:49:25</time>
      </trkpt>
      <trkpt lat="42.20134" lon="2.35392">
        <ele>1081.6</ele>
        <time>2022-05-21 23:49:26</time>
      </trkpt>
      <trkpt lat="42.20133" lon="2.35389">
        <ele>1081.8</ele>
        <time>2022-05-21 23:49:27</time>
      </trkpt>
      <trkpt lat="42.20132" lon="2.35386">
        <ele>1081.8</ele>
        <time>2022-05-21 23:49:28</time>
      </trkpt>
      <trkpt lat="42.2013" lon="2.35383">
        <ele>1082</ele>
        <time>2022-05-21 23:49:29</time>
      </trkpt>
      <trkpt lat="42.20128" lon="2.35381">
        <ele>1082.2</ele>
        <time>2022-05-21 23:49:30</time>
      </trkpt>
      <trkpt lat="42.20127" lon="2.35379">
        <ele>1082.2</ele>
        <time>2022-05-21 23:49:31</time>
      </trkpt>
      <trkpt lat="42.20125" lon="2.35377">
        <ele>1082.4</ele>
        <time>2022-05-21 23:49:32</time>
      </trkpt>
      <trkpt lat="42.20123" lon="2.35375">
        <ele>1082.6</ele>
        <time>2022-05-21 23:49:33</time>
      </trkpt>
      <trkpt lat="42.20121" lon="2.35374">
        <ele>1082.8</ele>
        <time>2022-05-21 23:49:34</time>
      </trkpt>
      <trkpt lat="42.20119" lon="2.35372">
        <ele>1082.8</ele>
        <time>2022-05-21 23:49:35</time>
      </trkpt>
      <trkpt lat="42.20117" lon="2.35371">
        <ele>1083</ele>
        <time>2022-05-21 23:49:36</time>
      </trkpt>
      <trkpt lat="42.20114" lon="2.35371">
        <ele>1083.2</ele>
        <time>2022-05-21 23:49:37</time>
      </trkpt>
      <trkpt lat="42.20112" lon="2.3537">
        <ele>1083.4</ele>
        <time>2022-05-21 23:49:38</time>
      </trkpt>
      <trkpt lat="42.20109" lon="2.35369">
        <ele>1083.6</ele>
        <time>2022-05-21 23:49:39</time>
      </trkpt>
      <trkpt lat="42.20107" lon="2.35368">
        <ele>1083.8</ele>
        <time>2022-05-21 23:49:40</time>
      </trkpt>
      <trkpt lat="42.20104" lon="2.35366">
        <ele>1084</ele>
        <time>2022-05-21 23:49:41</time>
      </trkpt>
      <trkpt lat="42.20102" lon="2.35365">
        <ele>1084.2</ele>
        <time>2022-05-21 23:49:42</time>
      </trkpt>
      <trkpt lat="42.201" lon="2.35364">
        <ele>1084.2</ele>
        <time>2022-05-21 23:49:43</time>
      </trkpt>
      <trkpt lat="42.20097" lon="2.35363">
        <ele>1084.4</ele>
        <time>2022-05-21 23:49:44</time>
      </trkpt>
      <trkpt lat="42.20095" lon="2.35362">
        <ele>1084.6</ele>
        <time>2022-05-21 23:49:45</time>
      </trkpt>
      <trkpt lat="42.20092" lon="2.35361">
        <ele>1084.8</ele>
        <time>2022-05-21 23:49:46</time>
      </trkpt>
      <trkpt lat="42.2009" lon="2.35361">
        <ele>1084.8</ele>
        <time>2022-05-21 23:49:47</time>
      </trkpt>
      <trkpt lat="42.20088" lon="2.3536">
        <ele>1085</ele>
        <time>2022-05-21 23:49:48</time>
      </trkpt>
      <trkpt lat="42.20085" lon="2.35359">
        <ele>1085.2</ele>
        <time>2022-05-21 23:49:49</time>
      </trkpt>
      <trkpt lat="42.20082" lon="2.35357">
        <ele>1085.2</ele>
        <time>2022-05-21 23:49:50</time>
      </trkpt>
      <trkpt lat="42.2008" lon="2.35356">
        <ele>1085.4</ele>
        <time>2022-05-21 23:49:51</time>
      </trkpt>
      <trkpt lat="42.20078" lon="2.35354">
        <ele>1085.6</ele>
        <time>2022-05-21 23:49:52</time>
      </trkpt>
      <trkpt lat="42.20076" lon="2.35352">
        <ele>1085.6</ele>
        <time>2022-05-21 23:49:53</time>
      </trkpt>
      <trkpt lat="42.20074" lon="2.3535">
        <ele>1085.8</ele>
        <time>2022-05-21 23:49:54</time>
      </trkpt>
      <trkpt lat="42.20072" lon="2.35347">
        <ele>1085.8</ele>
        <time>2022-05-21 23:49:55</time>
      </trkpt>
      <trkpt lat="42.2007" lon="2.35345">
        <ele>1086</ele>
        <time>2022-05-21 23:49:56</time>
      </trkpt>
      <trkpt lat="42.20067" lon="2.35343">
        <ele>1086.2</ele>
        <time>2022-05-21 23:49:57</time>
      </trkpt>
      <trkpt lat="42.20065" lon="2.35341">
        <ele>1086.2</ele>
        <time>2022-05-21 23:49:58</time>
      </trkpt>
      <trkpt lat="42.20063" lon="2.35339">
        <ele>1086.4</ele>
        <time>2022-05-21 23:49:59</time>
      </trkpt>
      <trkpt lat="42.20061" lon="2.35336">
        <ele>1086.4</ele>
        <time>2022-05-21 23:50:00</time>
      </trkpt>
      <trkpt lat="42.20059" lon="2.35334">
        <ele>1086.6</ele>
        <time>2022-05-21 23:50:01</time>
      </trkpt>
      <trkpt lat="42.20057" lon="2.35331">
        <ele>1086.8</ele>
        <time>2022-05-21 23:50:02</time>
      </trkpt>
      <trkpt lat="42.20055" lon="2.35328">
        <ele>1087</ele>
        <time>2022-05-21 23:50:03</time>
      </trkpt>
      <trkpt lat="42.20053" lon="2.35326">
        <ele>1087</ele>
        <time>2022-05-21 23:50:04</time>
      </trkpt>
      <trkpt lat="42.20051" lon="2.35323">
        <ele>1087.2</ele>
        <time>2022-05-21 23:50:05</time>
      </trkpt>
      <trkpt lat="42.2005" lon="2.35321">
        <ele>1087.4</ele>
        <time>2022-05-21 23:50:06</time>
      </trkpt>
      <trkpt lat="42.20047" lon="2.35319">
        <ele>1087.6</ele>
        <time>2022-05-21 23:50:07</time>
      </trkpt>
      <trkpt lat="42.20045" lon="2.35316">
        <ele>1087.8</ele>
        <time>2022-05-21 23:50:08</time>
      </trkpt>
      <trkpt lat="42.20044" lon="2.35313">
        <ele>1087.8</ele>
        <time>2022-05-21 23:50:09</time>
      </trkpt>
      <trkpt lat="42.20042" lon="2.35311">
        <ele>1088</ele>
        <time>2022-05-21 23:50:10</time>
      </trkpt>
      <trkpt lat="42.20041" lon="2.35308">
        <ele>1088.2</ele>
        <time>2022-05-21 23:50:11</time>
      </trkpt>
      <trkpt lat="42.20039" lon="2.35304">
        <ele>1088.2</ele>
        <time>2022-05-21 23:50:12</time>
      </trkpt>
      <trkpt lat="42.20038" lon="2.35301">
        <ele>1088.4</ele>
        <time>2022-05-21 23:50:13</time>
      </trkpt>
      <trkpt lat="42.20038" lon="2.35296">
        <ele>1088.4</ele>
        <time>2022-05-21 23:50:14</time>
      </trkpt>
      <trkpt lat="42.20038" lon="2.35292">
        <ele>1088.6</ele>
        <time>2022-05-21 23:50:15</time>
      </trkpt>
      <trkpt lat="42.20038" lon="2.35288">
        <ele>1088.6</ele>
        <time>2022-05-21 23:50:16</time>
      </trkpt>
      <trkpt lat="42.20037" lon="2.35283">
        <ele>1088.8</ele>
        <time>2022-05-21 23:50:17</time>
      </trkpt>
      <trkpt lat="42.20037" lon="2.35279">
        <ele>1088.8</ele>
        <time>2022-05-21 23:50:18</time>
      </trkpt>
      <trkpt lat="42.20037" lon="2.35275">
        <ele>1089</ele>
        <time>2022-05-21 23:50:19</time>
      </trkpt>
      <trkpt lat="42.20037" lon="2.35271">
        <ele>1089</ele>
        <time>2022-05-21 23:50:20</time>
      </trkpt>
      <trkpt lat="42.20037" lon="2.35267">
        <ele>1089.2</ele>
        <time>2022-05-21 23:50:21</time>
      </trkpt>
      <trkpt lat="42.20037" lon="2.35263">
        <ele>1089.2</ele>
        <time>2022-05-21 23:50:22</time>
      </trkpt>
      <trkpt lat="42.20038" lon="2.35259">
        <ele>1089.4</ele>
        <time>2022-05-21 23:50:23</time>
      </trkpt>
      <trkpt lat="42.20038" lon="2.35254">
        <ele>1089.6</ele>
        <time>2022-05-21 23:50:24</time>
      </trkpt>
      <trkpt lat="42.20039" lon="2.3525">
        <ele>1089.6</ele>
        <time>2022-05-21 23:50:25</time>
      </trkpt>
      <trkpt lat="42.20039" lon="2.35246">
        <ele>1089.6</ele>
        <time>2022-05-21 23:50:26</time>
      </trkpt>
      <trkpt lat="42.20039" lon="2.35243">
        <ele>1089.8</ele>
        <time>2022-05-21 23:50:27</time>
      </trkpt>
      <trkpt lat="42.20039" lon="2.35239">
        <ele>1090</ele>
        <time>2022-05-21 23:50:28</time>
      </trkpt>
      <trkpt lat="42.2004" lon="2.35235">
        <ele>1090</ele>
        <time>2022-05-21 23:50:29</time>
      </trkpt>
      <trkpt lat="42.20041" lon="2.35231">
        <ele>1090.2</ele>
        <time>2022-05-21 23:50:30</time>
      </trkpt>
      <trkpt lat="42.20042" lon="2.35228">
        <ele>1090.4</ele>
        <time>2022-05-21 23:50:31</time>
      </trkpt>
      <trkpt lat="42.20043" lon="2.35224">
        <ele>1090.4</ele>
        <time>2022-05-21 23:50:32</time>
      </trkpt>
      <trkpt lat="42.20043" lon="2.3522">
        <ele>1090.6</ele>
        <time>2022-05-21 23:50:33</time>
      </trkpt>
      <trkpt lat="42.20043" lon="2.35216">
        <ele>1090.8</ele>
        <time>2022-05-21 23:50:34</time>
      </trkpt>
      <trkpt lat="42.20043" lon="2.35212">
        <ele>1090.8</ele>
        <time>2022-05-21 23:50:35</time>
      </trkpt>
      <trkpt lat="42.20042" lon="2.35208">
        <ele>1091</ele>
        <time>2022-05-21 23:50:36</time>
      </trkpt>
      <trkpt lat="42.20041" lon="2.35204">
        <ele>1091</ele>
        <time>2022-05-21 23:50:37</time>
      </trkpt>
      <trkpt lat="42.2004" lon="2.352">
        <ele>1091.2</ele>
        <time>2022-05-21 23:50:38</time>
      </trkpt>
      <trkpt lat="42.20038" lon="2.35196">
        <ele>1091.2</ele>
        <time>2022-05-21 23:50:39</time>
      </trkpt>
      <trkpt lat="42.20037" lon="2.35193">
        <ele>1091.4</ele>
        <time>2022-05-21 23:50:40</time>
      </trkpt>
      <trkpt lat="42.20036" lon="2.35189">
        <ele>1091.4</ele>
        <time>2022-05-21 23:50:41</time>
      </trkpt>
      <trkpt lat="42.20034" lon="2.35185">
        <ele>1091.6</ele>
        <time>2022-05-21 23:50:42</time>
      </trkpt>
      <trkpt lat="42.20033" lon="2.35182">
        <ele>1091.8</ele>
        <time>2022-05-21 23:50:43</time>
      </trkpt>
      <trkpt lat="42.20032" lon="2.35178">
        <ele>1091.8</ele>
        <time>2022-05-21 23:50:44</time>
      </trkpt>
      <trkpt lat="42.20031" lon="2.35175">
        <ele>1092</ele>
        <time>2022-05-21 23:50:45</time>
      </trkpt>
      <trkpt lat="42.2003" lon="2.35171">
        <ele>1092.2</ele>
        <time>2022-05-21 23:50:46</time>
      </trkpt>
      <trkpt lat="42.20029" lon="2.35167">
        <ele>1092.2</ele>
        <time>2022-05-21 23:50:47</time>
      </trkpt>
      <trkpt lat="42.20027" lon="2.35163">
        <ele>1092.4</ele>
        <time>2022-05-21 23:50:48</time>
      </trkpt>
      <trkpt lat="42.20026" lon="2.35159">
        <ele>1092.4</ele>
        <time>2022-05-21 23:50:49</time>
      </trkpt>
      <trkpt lat="42.20024" lon="2.35156">
        <ele>1092.6</ele>
        <time>2022-05-21 23:50:50</time>
      </trkpt>
      <trkpt lat="42.20023" lon="2.35152">
        <ele>1092.6</ele>
        <time>2022-05-21 23:50:51</time>
      </trkpt>
      <trkpt lat="42.20021" lon="2.35149">
        <ele>1092.8</ele>
        <time>2022-05-21 23:50:52</time>
      </trkpt>
      <trkpt lat="42.20019" lon="2.35145">
        <ele>1092.8</ele>
        <time>2022-05-21 23:50:53</time>
      </trkpt>
      <trkpt lat="42.20017" lon="2.35142">
        <ele>1093</ele>
        <time>2022-05-21 23:50:54</time>
      </trkpt>
      <trkpt lat="42.20016" lon="2.35139">
        <ele>1093</ele>
        <time>2022-05-21 23:50:55</time>
      </trkpt>
      <trkpt lat="42.20014" lon="2.35137">
        <ele>1093.2</ele>
        <time>2022-05-21 23:50:56</time>
      </trkpt>
      <trkpt lat="42.20012" lon="2.35134">
        <ele>1093.2</ele>
        <time>2022-05-21 23:50:57</time>
      </trkpt>
      <trkpt lat="42.2001" lon="2.35132">
        <ele>1093.4</ele>
        <time>2022-05-21 23:50:58</time>
      </trkpt>
      <trkpt lat="42.20008" lon="2.35131">
        <ele>1093.4</ele>
        <time>2022-05-21 23:50:59</time>
      </trkpt>
      <trkpt lat="42.20005" lon="2.35129">
        <ele>1093.6</ele>
        <time>2022-05-21 23:51:00</time>
      </trkpt>
      <trkpt lat="42.20002" lon="2.35129">
        <ele>1093.6</ele>
        <time>2022-05-21 23:51:01</time>
      </trkpt>
      <trkpt lat="42.19999" lon="2.35128">
        <ele>1093.8</ele>
        <time>2022-05-21 23:51:02</time>
      </trkpt>
      <trkpt lat="42.19996" lon="2.35128">
        <ele>1094</ele>
        <time>2022-05-21 23:51:03</time>
      </trkpt>
      <trkpt lat="42.19993" lon="2.35127">
        <ele>1094.2</ele>
        <time>2022-05-21 23:51:04</time>
      </trkpt>
      <trkpt lat="42.19991" lon="2.35127">
        <ele>1094.2</ele>
        <time>2022-05-21 23:51:05</time>
      </trkpt>
      <trkpt lat="42.19988" lon="2.35126">
        <ele>1094.4</ele>
        <time>2022-05-21 23:51:06</time>
      </trkpt>
      <trkpt lat="42.19986" lon="2.35125">
        <ele>1094.6</ele>
        <time>2022-05-21 23:51:07</time>
      </trkpt>
      <trkpt lat="42.19983" lon="2.35125">
        <ele>1094.8</ele>
        <time>2022-05-21 23:51:08</time>
      </trkpt>
      <trkpt lat="42.1998" lon="2.35125">
        <ele>1094.8</ele>
        <time>2022-05-21 23:51:09</time>
      </trkpt>
      <trkpt lat="42.19978" lon="2.35124">
        <ele>1095</ele>
        <time>2022-05-21 23:51:10</time>
      </trkpt>
      <trkpt lat="42.19975" lon="2.35124">
        <ele>1095.2</ele>
        <time>2022-05-21 23:51:11</time>
      </trkpt>
      <trkpt lat="42.19973" lon="2.35124">
        <ele>1095.4</ele>
        <time>2022-05-21 23:51:12</time>
      </trkpt>
      <trkpt lat="42.1997" lon="2.35124">
        <ele>1095.6</ele>
        <time>2022-05-21 23:51:13</time>
      </trkpt>
      <trkpt lat="42.19968" lon="2.35123">
        <ele>1095.6</ele>
        <time>2022-05-21 23:51:14</time>
      </trkpt>
      <trkpt lat="42.19966" lon="2.35122">
        <ele>1095.8</ele>
        <time>2022-05-21 23:51:15</time>
      </trkpt>
      <trkpt lat="42.19964" lon="2.35121">
        <ele>1096</ele>
        <time>2022-05-21 23:51:16</time>
      </trkpt>
      <trkpt lat="42.19962" lon="2.3512">
        <ele>1096.2</ele>
        <time>2022-05-21 23:51:17</time>
      </trkpt>
      <trkpt lat="42.19959" lon="2.35119">
        <ele>1096.4</ele>
        <time>2022-05-21 23:51:18</time>
      </trkpt>
      <trkpt lat="42.19957" lon="2.35118">
        <ele>1096.6</ele>
        <time>2022-05-21 23:51:19</time>
      </trkpt>
      <trkpt lat="42.19955" lon="2.35115">
        <ele>1096.8</ele>
        <time>2022-05-21 23:51:20</time>
      </trkpt>
      <trkpt lat="42.19953" lon="2.35112">
        <ele>1096.8</ele>
        <time>2022-05-21 23:51:21</time>
      </trkpt>
      <trkpt lat="42.19951" lon="2.3511">
        <ele>1097</ele>
        <time>2022-05-21 23:51:22</time>
      </trkpt>
      <trkpt lat="42.19948" lon="2.35107">
        <ele>1097.2</ele>
        <time>2022-05-21 23:51:23</time>
      </trkpt>
      <trkpt lat="42.19946" lon="2.35105">
        <ele>1097.4</ele>
        <time>2022-05-21 23:51:24</time>
      </trkpt>
      <trkpt lat="42.19943" lon="2.35102">
        <ele>1097.6</ele>
        <time>2022-05-21 23:51:25</time>
      </trkpt>
      <trkpt lat="42.19942" lon="2.351">
        <ele>1097.6</ele>
        <time>2022-05-21 23:51:26</time>
      </trkpt>
      <trkpt lat="42.1994" lon="2.35097">
        <ele>1097.8</ele>
        <time>2022-05-21 23:51:27</time>
      </trkpt>
      <trkpt lat="42.19939" lon="2.35094">
        <ele>1098</ele>
        <time>2022-05-21 23:51:28</time>
      </trkpt>
      <trkpt lat="42.19937" lon="2.35092">
        <ele>1098.2</ele>
        <time>2022-05-21 23:51:29</time>
      </trkpt>
      <trkpt lat="42.19936" lon="2.35089">
        <ele>1098.4</ele>
        <time>2022-05-21 23:51:30</time>
      </trkpt>
      <trkpt lat="42.19935" lon="2.35086">
        <ele>1098.6</ele>
        <time>2022-05-21 23:51:31</time>
      </trkpt>
      <trkpt lat="42.19934" lon="2.35083">
        <ele>1098.8</ele>
        <time>2022-05-21 23:51:32</time>
      </trkpt>
      <trkpt lat="42.19933" lon="2.3508">
        <ele>1098.8</ele>
        <time>2022-05-21 23:51:33</time>
      </trkpt>
      <trkpt lat="42.19932" lon="2.35077">
        <ele>1099</ele>
        <time>2022-05-21 23:51:34</time>
      </trkpt>
      <trkpt lat="42.19931" lon="2.35073">
        <ele>1099.2</ele>
        <time>2022-05-21 23:51:35</time>
      </trkpt>
      <trkpt lat="42.1993" lon="2.3507">
        <ele>1099.4</ele>
        <time>2022-05-21 23:51:36</time>
      </trkpt>
      <trkpt lat="42.19929" lon="2.35067">
        <ele>1099.6</ele>
        <time>2022-05-21 23:51:37</time>
      </trkpt>
      <trkpt lat="42.19929" lon="2.35064">
        <ele>1099.8</ele>
        <time>2022-05-21 23:51:38</time>
      </trkpt>
      <trkpt lat="42.19928" lon="2.35061">
        <ele>1100</ele>
        <time>2022-05-21 23:51:39</time>
      </trkpt>
      <trkpt lat="42.19927" lon="2.35058">
        <ele>1100.2</ele>
        <time>2022-05-21 23:51:40</time>
      </trkpt>
      <trkpt lat="42.19926" lon="2.35054">
        <ele>1100.4</ele>
        <time>2022-05-21 23:51:41</time>
      </trkpt>
      <trkpt lat="42.19925" lon="2.35051">
        <ele>1100.6</ele>
        <time>2022-05-21 23:51:42</time>
      </trkpt>
      <trkpt lat="42.19925" lon="2.35048">
        <ele>1100.6</ele>
        <time>2022-05-21 23:51:43</time>
      </trkpt>
      <trkpt lat="42.19924" lon="2.35045">
        <ele>1100.8</ele>
        <time>2022-05-21 23:51:44</time>
      </trkpt>
      <trkpt lat="42.19923" lon="2.35042">
        <ele>1101</ele>
        <time>2022-05-21 23:51:45</time>
      </trkpt>
      <trkpt lat="42.19923" lon="2.35039">
        <ele>1101.2</ele>
        <time>2022-05-21 23:51:46</time>
      </trkpt>
      <trkpt lat="42.19922" lon="2.35036">
        <ele>1101.2</ele>
        <time>2022-05-21 23:51:47</time>
      </trkpt>
      <trkpt lat="42.19922" lon="2.35032">
        <ele>1101.4</ele>
        <time>2022-05-21 23:51:48</time>
      </trkpt>
      <trkpt lat="42.19921" lon="2.35029">
        <ele>1101.6</ele>
        <time>2022-05-21 23:51:49</time>
      </trkpt>
      <trkpt lat="42.1992" lon="2.35026">
        <ele>1101.8</ele>
        <time>2022-05-21 23:51:50</time>
      </trkpt>
      <trkpt lat="42.1992" lon="2.35023">
        <ele>1102</ele>
        <time>2022-05-21 23:51:51</time>
      </trkpt>
      <trkpt lat="42.19919" lon="2.3502">
        <ele>1102.2</ele>
        <time>2022-05-21 23:51:52</time>
      </trkpt>
      <trkpt lat="42.19918" lon="2.35016">
        <ele>1102.4</ele>
        <time>2022-05-21 23:51:53</time>
      </trkpt>
      <trkpt lat="42.19917" lon="2.35013">
        <ele>1102.6</ele>
        <time>2022-05-21 23:51:54</time>
      </trkpt>
      <trkpt lat="42.19916" lon="2.3501">
        <ele>1102.8</ele>
        <time>2022-05-21 23:51:55</time>
      </trkpt>
      <trkpt lat="42.19915" lon="2.35007">
        <ele>1102.8</ele>
        <time>2022-05-21 23:51:56</time>
      </trkpt>
      <trkpt lat="42.19914" lon="2.35004">
        <ele>1103</ele>
        <time>2022-05-21 23:51:57</time>
      </trkpt>
      <trkpt lat="42.19913" lon="2.35">
        <ele>1103.2</ele>
        <time>2022-05-21 23:51:58</time>
      </trkpt>
      <trkpt lat="42.19911" lon="2.34997">
        <ele>1103.4</ele>
        <time>2022-05-21 23:51:59</time>
      </trkpt>
      <trkpt lat="42.1991" lon="2.34994">
        <ele>1103.6</ele>
        <time>2022-05-21 23:52:00</time>
      </trkpt>
      <trkpt lat="42.19909" lon="2.3499">
        <ele>1103.8</ele>
        <time>2022-05-21 23:52:01</time>
      </trkpt>
      <trkpt lat="42.19907" lon="2.34987">
        <ele>1104</ele>
        <time>2022-05-21 23:52:02</time>
      </trkpt>
      <trkpt lat="42.19905" lon="2.34984">
        <ele>1104</ele>
        <time>2022-05-21 23:52:03</time>
      </trkpt>
      <trkpt lat="42.19903" lon="2.34981">
        <ele>1104.2</ele>
        <time>2022-05-21 23:52:04</time>
      </trkpt>
      <trkpt lat="42.19901" lon="2.34978">
        <ele>1104.4</ele>
        <time>2022-05-21 23:52:05</time>
      </trkpt>
      <trkpt lat="42.19898" lon="2.34976">
        <ele>1104.6</ele>
        <time>2022-05-21 23:52:06</time>
      </trkpt>
      <trkpt lat="42.19895" lon="2.34974">
        <ele>1104.6</ele>
        <time>2022-05-21 23:52:07</time>
      </trkpt>
      <trkpt lat="42.19893" lon="2.34972">
        <ele>1104.8</ele>
        <time>2022-05-21 23:52:08</time>
      </trkpt>
      <trkpt lat="42.1989" lon="2.3497">
        <ele>1105</ele>
        <time>2022-05-21 23:52:09</time>
      </trkpt>
      <trkpt lat="42.19888" lon="2.34969">
        <ele>1105.2</ele>
        <time>2022-05-21 23:52:10</time>
      </trkpt>
      <trkpt lat="42.19885" lon="2.34967">
        <ele>1105.2</ele>
        <time>2022-05-21 23:52:11</time>
      </trkpt>
      <trkpt lat="42.19882" lon="2.34967">
        <ele>1105.4</ele>
        <time>2022-05-21 23:52:12</time>
      </trkpt>
      <trkpt lat="42.1988" lon="2.34966">
        <ele>1105.6</ele>
        <time>2022-05-21 23:52:13</time>
      </trkpt>
      <trkpt lat="42.19877" lon="2.34965">
        <ele>1105.8</ele>
        <time>2022-05-21 23:52:14</time>
      </trkpt>
      <trkpt lat="42.19874" lon="2.34964">
        <ele>1106</ele>
        <time>2022-05-21 23:52:15</time>
      </trkpt>
      <trkpt lat="42.19872" lon="2.34962">
        <ele>1106.2</ele>
        <time>2022-05-21 23:52:16</time>
      </trkpt>
      <trkpt lat="42.1987" lon="2.34961">
        <ele>1106.2</ele>
        <time>2022-05-21 23:52:17</time>
      </trkpt>
      <trkpt lat="42.19867" lon="2.34959">
        <ele>1106.4</ele>
        <time>2022-05-21 23:52:18</time>
      </trkpt>
      <trkpt lat="42.19865" lon="2.34958">
        <ele>1106.6</ele>
        <time>2022-05-21 23:52:19</time>
      </trkpt>
      <trkpt lat="42.19862" lon="2.34957">
        <ele>1106.8</ele>
        <time>2022-05-21 23:52:20</time>
      </trkpt>
      <trkpt lat="42.1986" lon="2.34955">
        <ele>1107</ele>
        <time>2022-05-21 23:52:21</time>
      </trkpt>
      <trkpt lat="42.19857" lon="2.34954">
        <ele>1107.2</ele>
        <time>2022-05-21 23:52:22</time>
      </trkpt>
      <trkpt lat="42.19855" lon="2.34952">
        <ele>1107.2</ele>
        <time>2022-05-21 23:52:23</time>
      </trkpt>
      <trkpt lat="42.19853" lon="2.3495">
        <ele>1107.4</ele>
        <time>2022-05-21 23:52:24</time>
      </trkpt>
      <trkpt lat="42.19851" lon="2.34948">
        <ele>1107.6</ele>
        <time>2022-05-21 23:52:25</time>
      </trkpt>
      <trkpt lat="42.19849" lon="2.34946">
        <ele>1107.8</ele>
        <time>2022-05-21 23:52:26</time>
      </trkpt>
      <trkpt lat="42.19848" lon="2.34943">
        <ele>1107.8</ele>
        <time>2022-05-21 23:52:27</time>
      </trkpt>
      <trkpt lat="42.19846" lon="2.34941">
        <ele>1108</ele>
        <time>2022-05-21 23:52:28</time>
      </trkpt>
      <trkpt lat="42.19845" lon="2.34939">
        <ele>1108.2</ele>
        <time>2022-05-21 23:52:29</time>
      </trkpt>
      <trkpt lat="42.19844" lon="2.34935">
        <ele>1108.4</ele>
        <time>2022-05-21 23:52:30</time>
      </trkpt>
      <trkpt lat="42.19843" lon="2.34932">
        <ele>1108.4</ele>
        <time>2022-05-21 23:52:31</time>
      </trkpt>
      <trkpt lat="42.19843" lon="2.34929">
        <ele>1108.6</ele>
        <time>2022-05-21 23:52:32</time>
      </trkpt>
      <trkpt lat="42.19842" lon="2.34926">
        <ele>1108.8</ele>
        <time>2022-05-21 23:52:33</time>
      </trkpt>
      <trkpt lat="42.19842" lon="2.34922">
        <ele>1109</ele>
        <time>2022-05-21 23:52:34</time>
      </trkpt>
      <trkpt lat="42.19842" lon="2.34919">
        <ele>1109.2</ele>
        <time>2022-05-21 23:52:35</time>
      </trkpt>
      <trkpt lat="42.19841" lon="2.34916">
        <ele>1109.2</ele>
        <time>2022-05-21 23:52:36</time>
      </trkpt>
      <trkpt lat="42.19841" lon="2.34912">
        <ele>1109.4</ele>
        <time>2022-05-21 23:52:37</time>
      </trkpt>
      <trkpt lat="42.19841" lon="2.34909">
        <ele>1109.4</ele>
        <time>2022-05-21 23:52:38</time>
      </trkpt>
      <trkpt lat="42.1984" lon="2.34906">
        <ele>1109.6</ele>
        <time>2022-05-21 23:52:39</time>
      </trkpt>
      <trkpt lat="42.1984" lon="2.34903">
        <ele>1109.8</ele>
        <time>2022-05-21 23:52:40</time>
      </trkpt>
      <trkpt lat="42.19839" lon="2.349">
        <ele>1109.8</ele>
        <time>2022-05-21 23:52:41</time>
      </trkpt>
      <trkpt lat="42.19838" lon="2.34896">
        <ele>1110</ele>
        <time>2022-05-21 23:52:42</time>
      </trkpt>
      <trkpt lat="42.19837" lon="2.34893">
        <ele>1110</ele>
        <time>2022-05-21 23:52:43</time>
      </trkpt>
      <trkpt lat="42.19836" lon="2.3489">
        <ele>1110.2</ele>
        <time>2022-05-21 23:52:44</time>
      </trkpt>
      <trkpt lat="42.19835" lon="2.34887">
        <ele>1110.4</ele>
        <time>2022-05-21 23:52:45</time>
      </trkpt>
      <trkpt lat="42.19835" lon="2.34884">
        <ele>1110.6</ele>
        <time>2022-05-21 23:52:46</time>
      </trkpt>
      <trkpt lat="42.19834" lon="2.34882">
        <ele>1110.6</ele>
        <time>2022-05-21 23:52:47</time>
      </trkpt>
      <trkpt lat="42.19832" lon="2.34879">
        <ele>1110.8</ele>
        <time>2022-05-21 23:52:48</time>
      </trkpt>
      <trkpt lat="42.19831" lon="2.34877">
        <ele>1111</ele>
        <time>2022-05-21 23:52:49</time>
      </trkpt>
      <trkpt lat="42.19829" lon="2.34875">
        <ele>1111.2</ele>
        <time>2022-05-21 23:52:50</time>
      </trkpt>
      <trkpt lat="42.19827" lon="2.34873">
        <ele>1111.2</ele>
        <time>2022-05-21 23:52:51</time>
      </trkpt>
      <trkpt lat="42.19825" lon="2.34872">
        <ele>1111.4</ele>
        <time>2022-05-21 23:52:52</time>
      </trkpt>
      <trkpt lat="42.19823" lon="2.3487">
        <ele>1111.4</ele>
        <time>2022-05-21 23:52:53</time>
      </trkpt>
      <trkpt lat="42.19821" lon="2.34868">
        <ele>1111.4</ele>
        <time>2022-05-21 23:52:54</time>
      </trkpt>
      <trkpt lat="42.19819" lon="2.34866">
        <ele>1111.6</ele>
        <time>2022-05-21 23:52:55</time>
      </trkpt>
      <trkpt lat="42.19818" lon="2.34864">
        <ele>1111.6</ele>
        <time>2022-05-21 23:52:56</time>
      </trkpt>
      <trkpt lat="42.19816" lon="2.34861">
        <ele>1111.6</ele>
        <time>2022-05-21 23:52:57</time>
      </trkpt>
      <trkpt lat="42.19815" lon="2.34858">
        <ele>1111.8</ele>
        <time>2022-05-21 23:52:58</time>
      </trkpt>
      <trkpt lat="42.19813" lon="2.34855">
        <ele>1111.8</ele>
        <time>2022-05-21 23:52:59</time>
      </trkpt>
      <trkpt lat="42.19812" lon="2.34852">
        <ele>1112</ele>
        <time>2022-05-21 23:53:00</time>
      </trkpt>
      <trkpt lat="42.1981" lon="2.34849">
        <ele>1112</ele>
        <time>2022-05-21 23:53:01</time>
      </trkpt>
      <trkpt lat="42.19809" lon="2.34846">
        <ele>1112.2</ele>
        <time>2022-05-21 23:53:02</time>
      </trkpt>
      <trkpt lat="42.19808" lon="2.34843">
        <ele>1112.2</ele>
        <time>2022-05-21 23:53:03</time>
      </trkpt>
      <trkpt lat="42.19807" lon="2.3484">
        <ele>1112.4</ele>
        <time>2022-05-21 23:53:04</time>
      </trkpt>
      <trkpt lat="42.19806" lon="2.34837">
        <ele>1112.4</ele>
        <time>2022-05-21 23:53:05</time>
      </trkpt>
      <trkpt lat="42.19805" lon="2.34834">
        <ele>1112.6</ele>
        <time>2022-05-21 23:53:06</time>
      </trkpt>
      <trkpt lat="42.19804" lon="2.34831">
        <ele>1112.6</ele>
        <time>2022-05-21 23:53:07</time>
      </trkpt>
      <trkpt lat="42.19803" lon="2.34829">
        <ele>1112.8</ele>
        <time>2022-05-21 23:53:08</time>
      </trkpt>
      <trkpt lat="42.19803" lon="2.34825">
        <ele>1112.8</ele>
        <time>2022-05-21 23:53:09</time>
      </trkpt>
      <trkpt lat="42.19802" lon="2.34822">
        <ele>1113</ele>
        <time>2022-05-21 23:53:10</time>
      </trkpt>
      <trkpt lat="42.19801" lon="2.34819">
        <ele>1113</ele>
        <time>2022-05-21 23:53:11</time>
      </trkpt>
      <trkpt lat="42.198" lon="2.34816">
        <ele>1113.2</ele>
        <time>2022-05-21 23:53:12</time>
      </trkpt>
      <trkpt lat="42.198" lon="2.34812">
        <ele>1113.2</ele>
        <time>2022-05-21 23:53:13</time>
      </trkpt>
      <trkpt lat="42.19799" lon="2.34809">
        <ele>1113.4</ele>
        <time>2022-05-21 23:53:14</time>
      </trkpt>
      <trkpt lat="42.19798" lon="2.34806">
        <ele>1113.4</ele>
        <time>2022-05-21 23:53:15</time>
      </trkpt>
      <trkpt lat="42.19798" lon="2.34802">
        <ele>1113.6</ele>
        <time>2022-05-21 23:53:16</time>
      </trkpt>
      <trkpt lat="42.19797" lon="2.34799">
        <ele>1113.8</ele>
        <time>2022-05-21 23:53:17</time>
      </trkpt>
      <trkpt lat="42.19796" lon="2.34796">
        <ele>1113.8</ele>
        <time>2022-05-21 23:53:18</time>
      </trkpt>
      <trkpt lat="42.19795" lon="2.34793">
        <ele>1113.8</ele>
        <time>2022-05-21 23:53:19</time>
      </trkpt>
      <trkpt lat="42.19794" lon="2.34791">
        <ele>1114</ele>
        <time>2022-05-21 23:53:20</time>
      </trkpt>
      <trkpt lat="42.19793" lon="2.34788">
        <ele>1114</ele>
        <time>2022-05-21 23:53:21</time>
      </trkpt>
      <trkpt lat="42.19792" lon="2.34785">
        <ele>1114.2</ele>
        <time>2022-05-21 23:53:22</time>
      </trkpt>
      <trkpt lat="42.19791" lon="2.34782">
        <ele>1114.2</ele>
        <time>2022-05-21 23:53:23</time>
      </trkpt>
      <trkpt lat="42.1979" lon="2.34779">
        <ele>1114.2</ele>
        <time>2022-05-21 23:53:24</time>
      </trkpt>
      <trkpt lat="42.19789" lon="2.34777">
        <ele>1114.4</ele>
        <time>2022-05-21 23:53:25</time>
      </trkpt>
      <trkpt lat="42.19788" lon="2.34774">
        <ele>1114.6</ele>
        <time>2022-05-21 23:53:26</time>
      </trkpt>
      <trkpt lat="42.19787" lon="2.34772">
        <ele>1114.6</ele>
        <time>2022-05-21 23:53:27</time>
      </trkpt>
      <trkpt lat="42.19786" lon="2.34769">
        <ele>1114.8</ele>
        <time>2022-05-21 23:53:28</time>
      </trkpt>
      <trkpt lat="42.19786" lon="2.34767">
        <ele>1114.8</ele>
        <time>2022-05-21 23:53:29</time>
      </trkpt>
      <trkpt lat="42.19785" lon="2.34764">
        <ele>1115</ele>
        <time>2022-05-21 23:53:30</time>
      </trkpt>
      <trkpt lat="42.19784" lon="2.34761">
        <ele>1115</ele>
        <time>2022-05-21 23:53:31</time>
      </trkpt>
      <trkpt lat="42.19783" lon="2.34759">
        <ele>1115.2</ele>
        <time>2022-05-21 23:53:32</time>
      </trkpt>
      <trkpt lat="42.19783" lon="2.34756">
        <ele>1115.2</ele>
        <time>2022-05-21 23:53:33</time>
      </trkpt>
      <trkpt lat="42.19782" lon="2.34753">
        <ele>1115.4</ele>
        <time>2022-05-21 23:53:34</time>
      </trkpt>
      <trkpt lat="42.19782" lon="2.3475">
        <ele>1115.6</ele>
        <time>2022-05-21 23:53:35</time>
      </trkpt>
      <trkpt lat="42.19781" lon="2.34748">
        <ele>1115.6</ele>
        <time>2022-05-21 23:53:36</time>
      </trkpt>
      <trkpt lat="42.19779" lon="2.34745">
        <ele>1115.8</ele>
        <time>2022-05-21 23:53:37</time>
      </trkpt>
      <trkpt lat="42.19778" lon="2.34743">
        <ele>1115.8</ele>
        <time>2022-05-21 23:53:38</time>
      </trkpt>
      <trkpt lat="42.19778" lon="2.3474">
        <ele>1116</ele>
        <time>2022-05-21 23:53:39</time>
      </trkpt>
      <trkpt lat="42.19777" lon="2.34737">
        <ele>1116</ele>
        <time>2022-05-21 23:53:40</time>
      </trkpt>
      <trkpt lat="42.19776" lon="2.34734">
        <ele>1116.2</ele>
        <time>2022-05-21 23:53:41</time>
      </trkpt>
      <trkpt lat="42.19776" lon="2.34731">
        <ele>1116.2</ele>
        <time>2022-05-21 23:53:42</time>
      </trkpt>
      <trkpt lat="42.19775" lon="2.34727">
        <ele>1116.2</ele>
        <time>2022-05-21 23:53:43</time>
      </trkpt>
      <trkpt lat="42.19774" lon="2.34724">
        <ele>1116.4</ele>
        <time>2022-05-21 23:53:44</time>
      </trkpt>
      <trkpt lat="42.19773" lon="2.34721">
        <ele>1116.4</ele>
        <time>2022-05-21 23:53:45</time>
      </trkpt>
      <trkpt lat="42.19772" lon="2.34718">
        <ele>1116.4</ele>
        <time>2022-05-21 23:53:46</time>
      </trkpt>
      <trkpt lat="42.19771" lon="2.34715">
        <ele>1116.6</ele>
        <time>2022-05-21 23:53:47</time>
      </trkpt>
      <trkpt lat="42.1977" lon="2.34712">
        <ele>1116.8</ele>
        <time>2022-05-21 23:53:48</time>
      </trkpt>
      <trkpt lat="42.19769" lon="2.3471">
        <ele>1116.8</ele>
        <time>2022-05-21 23:53:49</time>
      </trkpt>
      <trkpt lat="42.19767" lon="2.34707">
        <ele>1117</ele>
        <time>2022-05-21 23:53:50</time>
      </trkpt>
      <trkpt lat="42.19766" lon="2.34704">
        <ele>1117</ele>
        <time>2022-05-21 23:53:51</time>
      </trkpt>
      <trkpt lat="42.19765" lon="2.347">
        <ele>1117</ele>
        <time>2022-05-21 23:53:52</time>
      </trkpt>
      <trkpt lat="42.19765" lon="2.34697">
        <ele>1117.2</ele>
        <time>2022-05-21 23:53:53</time>
      </trkpt>
      <trkpt lat="42.19763" lon="2.34694">
        <ele>1117.2</ele>
        <time>2022-05-21 23:53:54</time>
      </trkpt>
      <trkpt lat="42.19762" lon="2.34691">
        <ele>1117.2</ele>
        <time>2022-05-21 23:53:55</time>
      </trkpt>
      <trkpt lat="42.1976" lon="2.34689">
        <ele>1117.4</ele>
        <time>2022-05-21 23:53:56</time>
      </trkpt>
      <trkpt lat="42.19759" lon="2.34686">
        <ele>1117.4</ele>
        <time>2022-05-21 23:53:57</time>
      </trkpt>
      <trkpt lat="42.19758" lon="2.34684">
        <ele>1117.6</ele>
        <time>2022-05-21 23:53:58</time>
      </trkpt>
      <trkpt lat="42.19757" lon="2.34682">
        <ele>1117.6</ele>
        <time>2022-05-21 23:53:59</time>
      </trkpt>
      <trkpt lat="42.19757" lon="2.34681">
        <ele>1117.8</ele>
        <time>2022-05-21 23:54:00</time>
      </trkpt>
      <trkpt lat="42.19756" lon="2.34679">
        <ele>1117.8</ele>
        <time>2022-05-21 23:54:01</time>
      </trkpt>
      <trkpt lat="42.19756" lon="2.34678">
        <ele>1117.8</ele>
        <time>2022-05-21 23:54:02</time>
      </trkpt>
      <trkpt lat="42.19755" lon="2.34676">
        <ele>1117.8</ele>
        <time>2022-05-21 23:54:03</time>
      </trkpt>
      <trkpt lat="42.19754" lon="2.34675">
        <ele>1118</ele>
        <time>2022-05-21 23:54:04</time>
      </trkpt>
      <trkpt lat="42.19753" lon="2.34675">
        <ele>1118</ele>
        <time>2022-05-21 23:54:05</time>
      </trkpt>
      <trkpt lat="42.19752" lon="2.34676">
        <ele>1118</ele>
        <time>2022-05-21 23:54:06</time>
      </trkpt>
      <trkpt lat="42.19752" lon="2.34677">
        <ele>1118</ele>
        <time>2022-05-21 23:54:07</time>
      </trkpt>
      <trkpt lat="42.19752" lon="2.34679">
        <ele>1118.2</ele>
        <time>2022-05-21 23:54:08</time>
      </trkpt>
      <trkpt lat="42.19753" lon="2.34681">
        <ele>1118.2</ele>
        <time>2022-05-21 23:54:09</time>
      </trkpt>
      <trkpt lat="42.19754" lon="2.34684">
        <ele>1118.2</ele>
        <time>2022-05-21 23:54:10</time>
      </trkpt>
      <trkpt lat="42.19755" lon="2.34686">
        <ele>1118.2</ele>
        <time>2022-05-21 23:54:11</time>
      </trkpt>
      <trkpt lat="42.19756" lon="2.34689">
        <ele>1118</ele>
        <time>2022-05-21 23:54:12</time>
      </trkpt>
      <trkpt lat="42.19758" lon="2.34691">
        <ele>1118</ele>
        <time>2022-05-21 23:54:13</time>
      </trkpt>
      <trkpt lat="42.19759" lon="2.34692">
        <ele>1118</ele>
        <time>2022-05-21 23:54:14</time>
      </trkpt>
      <trkpt lat="42.1976" lon="2.34691">
        <ele>1118</ele>
        <time>2022-05-21 23:54:15</time>
      </trkpt>
      <trkpt lat="42.1976" lon="2.34691">
        <ele>1118</ele>
        <time>2022-05-21 23:54:16</time>
      </trkpt>
      <trkpt lat="42.19761" lon="2.3469">
        <ele>1118</ele>
        <time>2022-05-21 23:54:17</time>
      </trkpt>
      <trkpt lat="42.19761" lon="2.3469">
        <ele>1118</ele>
        <time>2022-05-21 23:54:18</time>
      </trkpt>
      <trkpt lat="42.19761" lon="2.3469">
        <ele>1118</ele>
        <time>2022-05-21 23:54:19</time>
      </trkpt>
      <trkpt lat="42.1976" lon="2.34689">
        <ele>1118</ele>
        <time>2022-05-21 23:54:29</time>
      </trkpt>
      <trkpt lat="42.19758" lon="2.34687">
        <ele>1118</ele>
        <time>2022-05-21 23:54:30</time>
      </trkpt>
      <trkpt lat="42.19757" lon="2.34684">
        <ele>1118</ele>
        <time>2022-05-21 23:54:31</time>
      </trkpt>
      <trkpt lat="42.19756" lon="2.34682">
        <ele>1118</ele>
        <time>2022-05-21 23:54:32</time>
      </trkpt>
      <trkpt lat="42.19755" lon="2.34679">
        <ele>1118</ele>
        <time>2022-05-21 23:54:33</time>
      </trkpt>
      <trkpt lat="42.19753" lon="2.34676">
        <ele>1118</ele>
        <time>2022-05-21 23:54:34</time>
      </trkpt>
      <trkpt lat="42.19752" lon="2.34672">
        <ele>1118</ele>
        <time>2022-05-21 23:54:35</time>
      </trkpt>
      <trkpt lat="42.1975" lon="2.34669">
        <ele>1118</ele>
        <time>2022-05-21 23:54:36</time>
      </trkpt>
      <trkpt lat="42.19748" lon="2.34665">
        <ele>1118</ele>
        <time>2022-05-21 23:54:37</time>
      </trkpt>
      <trkpt lat="42.19746" lon="2.34661">
        <ele>1117.8</ele>
        <time>2022-05-21 23:54:38</time>
      </trkpt>
      <trkpt lat="42.19744" lon="2.34658">
        <ele>1117.8</ele>
        <time>2022-05-21 23:54:39</time>
      </trkpt>
      <trkpt lat="42.19742" lon="2.34654">
        <ele>1117.8</ele>
        <time>2022-05-21 23:54:40</time>
      </trkpt>
      <trkpt lat="42.1974" lon="2.3465">
        <ele>1117.8</ele>
        <time>2022-05-21 23:54:41</time>
      </trkpt>
      <trkpt lat="42.19738" lon="2.34646">
        <ele>1117.8</ele>
        <time>2022-05-21 23:54:42</time>
      </trkpt>
      <trkpt lat="42.19737" lon="2.34643">
        <ele>1117.6</ele>
        <time>2022-05-21 23:54:43</time>
      </trkpt>
      <trkpt lat="42.19735" lon="2.34639">
        <ele>1117.6</ele>
        <time>2022-05-21 23:54:44</time>
      </trkpt>
      <trkpt lat="42.19733" lon="2.34635">
        <ele>1117.6</ele>
        <time>2022-05-21 23:54:45</time>
      </trkpt>
      <trkpt lat="42.19731" lon="2.34632">
        <ele>1117.6</ele>
        <time>2022-05-21 23:54:46</time>
      </trkpt>
      <trkpt lat="42.1973" lon="2.34628">
        <ele>1117.6</ele>
        <time>2022-05-21 23:54:47</time>
      </trkpt>
      <trkpt lat="42.19728" lon="2.34625">
        <ele>1117.6</ele>
        <time>2022-05-21 23:54:48</time>
      </trkpt>
      <trkpt lat="42.19726" lon="2.34621">
        <ele>1117.4</ele>
        <time>2022-05-21 23:54:49</time>
      </trkpt>
      <trkpt lat="42.19724" lon="2.34617">
        <ele>1117.4</ele>
        <time>2022-05-21 23:54:50</time>
      </trkpt>
      <trkpt lat="42.19723" lon="2.34614">
        <ele>1117.4</ele>
        <time>2022-05-21 23:54:51</time>
      </trkpt>
      <trkpt lat="42.19721" lon="2.3461">
        <ele>1117.4</ele>
        <time>2022-05-21 23:54:52</time>
      </trkpt>
      <trkpt lat="42.1972" lon="2.34607">
        <ele>1117.4</ele>
        <time>2022-05-21 23:54:53</time>
      </trkpt>
      <trkpt lat="42.19719" lon="2.34603">
        <ele>1117.4</ele>
        <time>2022-05-21 23:54:54</time>
      </trkpt>
      <trkpt lat="42.19719" lon="2.34599">
        <ele>1117.2</ele>
        <time>2022-05-21 23:54:55</time>
      </trkpt>
      <trkpt lat="42.19718" lon="2.34595">
        <ele>1117.2</ele>
        <time>2022-05-21 23:54:56</time>
      </trkpt>
      <trkpt lat="42.19718" lon="2.34591">
        <ele>1117.2</ele>
        <time>2022-05-21 23:54:57</time>
      </trkpt>
      <trkpt lat="42.19718" lon="2.34586">
        <ele>1117</ele>
        <time>2022-05-21 23:54:58</time>
      </trkpt>
      <trkpt lat="42.19719" lon="2.34581">
        <ele>1117</ele>
        <time>2022-05-21 23:54:59</time>
      </trkpt>
      <trkpt lat="42.19719" lon="2.34576">
        <ele>1117</ele>
        <time>2022-05-21 23:55:00</time>
      </trkpt>
      <trkpt lat="42.1972" lon="2.34571">
        <ele>1116.8</ele>
        <time>2022-05-21 23:55:01</time>
      </trkpt>
      <trkpt lat="42.1972" lon="2.34566">
        <ele>1116.8</ele>
        <time>2022-05-21 23:55:02</time>
      </trkpt>
      <trkpt lat="42.19721" lon="2.34561">
        <ele>1116.6</ele>
        <time>2022-05-21 23:55:03</time>
      </trkpt>
      <trkpt lat="42.19722" lon="2.34556">
        <ele>1116.4</ele>
        <time>2022-05-21 23:55:04</time>
      </trkpt>
      <trkpt lat="42.19722" lon="2.34551">
        <ele>1116.4</ele>
        <time>2022-05-21 23:55:05</time>
      </trkpt>
      <trkpt lat="42.19723" lon="2.34545">
        <ele>1116.2</ele>
        <time>2022-05-21 23:55:06</time>
      </trkpt>
      <trkpt lat="42.19723" lon="2.3454">
        <ele>1116</ele>
        <time>2022-05-21 23:55:07</time>
      </trkpt>
      <trkpt lat="42.19724" lon="2.34534">
        <ele>1116</ele>
        <time>2022-05-21 23:55:08</time>
      </trkpt>
      <trkpt lat="42.19726" lon="2.34528">
        <ele>1115.8</ele>
        <time>2022-05-21 23:55:09</time>
      </trkpt>
      <trkpt lat="42.19727" lon="2.34522">
        <ele>1115.6</ele>
        <time>2022-05-21 23:55:10</time>
      </trkpt>
      <trkpt lat="42.19729" lon="2.34516">
        <ele>1115.6</ele>
        <time>2022-05-21 23:55:11</time>
      </trkpt>
      <trkpt lat="42.19731" lon="2.34511">
        <ele>1115.4</ele>
        <time>2022-05-21 23:55:12</time>
      </trkpt>
      <trkpt lat="42.19733" lon="2.34506">
        <ele>1115.2</ele>
        <time>2022-05-21 23:55:13</time>
      </trkpt>
      <trkpt lat="42.19735" lon="2.34501">
        <ele>1115.2</ele>
        <time>2022-05-21 23:55:14</time>
      </trkpt>
      <trkpt lat="42.19738" lon="2.34497">
        <ele>1115</ele>
        <time>2022-05-21 23:55:15</time>
      </trkpt>
      <trkpt lat="42.1974" lon="2.34493">
        <ele>1114.8</ele>
        <time>2022-05-21 23:55:16</time>
      </trkpt>
      <trkpt lat="42.19743" lon="2.34489">
        <ele>1114.8</ele>
        <time>2022-05-21 23:55:17</time>
      </trkpt>
      <trkpt lat="42.19746" lon="2.34486">
        <ele>1114.6</ele>
        <time>2022-05-21 23:55:18</time>
      </trkpt>
      <trkpt lat="42.19748" lon="2.34482">
        <ele>1114.6</ele>
        <time>2022-05-21 23:55:19</time>
      </trkpt>
      <trkpt lat="42.19751" lon="2.34479">
        <ele>1114.4</ele>
        <time>2022-05-21 23:55:20</time>
      </trkpt>
      <trkpt lat="42.19753" lon="2.34475">
        <ele>1114.2</ele>
        <time>2022-05-21 23:55:21</time>
      </trkpt>
      <trkpt lat="42.19755" lon="2.34471">
        <ele>1114.2</ele>
        <time>2022-05-21 23:55:22</time>
      </trkpt>
      <trkpt lat="42.19758" lon="2.34466">
        <ele>1114</ele>
        <time>2022-05-21 23:55:23</time>
      </trkpt>
      <trkpt lat="42.19759" lon="2.34462">
        <ele>1113.8</ele>
        <time>2022-05-21 23:55:24</time>
      </trkpt>
      <trkpt lat="42.1976" lon="2.34456">
        <ele>1113.6</ele>
        <time>2022-05-21 23:55:25</time>
      </trkpt>
      <trkpt lat="42.19761" lon="2.34451">
        <ele>1113.4</ele>
        <time>2022-05-21 23:55:26</time>
      </trkpt>
      <trkpt lat="42.19763" lon="2.34444">
        <ele>1113.2</ele>
        <time>2022-05-21 23:55:27</time>
      </trkpt>
      <trkpt lat="42.19763" lon="2.34437">
        <ele>1113</ele>
        <time>2022-05-21 23:55:28</time>
      </trkpt>
      <trkpt lat="42.19764" lon="2.3443">
        <ele>1112.6</ele>
        <time>2022-05-21 23:55:29</time>
      </trkpt>
      <trkpt lat="42.19764" lon="2.34423">
        <ele>1112.4</ele>
        <time>2022-05-21 23:55:30</time>
      </trkpt>
      <trkpt lat="42.19764" lon="2.34416">
        <ele>1112.2</ele>
        <time>2022-05-21 23:55:31</time>
      </trkpt>
      <trkpt lat="42.19763" lon="2.34409">
        <ele>1111.8</ele>
        <time>2022-05-21 23:55:32</time>
      </trkpt>
      <trkpt lat="42.19763" lon="2.34401">
        <ele>1111.4</ele>
        <time>2022-05-21 23:55:33</time>
      </trkpt>
      <trkpt lat="42.19764" lon="2.34393">
        <ele>1111.2</ele>
        <time>2022-05-21 23:55:34</time>
      </trkpt>
      <trkpt lat="42.19765" lon="2.34384">
        <ele>1110.8</ele>
        <time>2022-05-21 23:55:35</time>
      </trkpt>
      <trkpt lat="42.19765" lon="2.34374">
        <ele>1110.6</ele>
        <time>2022-05-21 23:55:36</time>
      </trkpt>
      <trkpt lat="42.19766" lon="2.34365">
        <ele>1110.2</ele>
        <time>2022-05-21 23:55:37</time>
      </trkpt>
      <trkpt lat="42.19767" lon="2.34356">
        <ele>1109.8</ele>
        <time>2022-05-21 23:55:38</time>
      </trkpt>
      <trkpt lat="42.19767" lon="2.34346">
        <ele>1109.6</ele>
        <time>2022-05-21 23:55:39</time>
      </trkpt>
      <trkpt lat="42.19769" lon="2.34336">
        <ele>1109.2</ele>
        <time>2022-05-21 23:55:40</time>
      </trkpt>
      <trkpt lat="42.19771" lon="2.34326">
        <ele>1108.8</ele>
        <time>2022-05-21 23:55:41</time>
      </trkpt>
      <trkpt lat="42.19774" lon="2.34317">
        <ele>1108.6</ele>
        <time>2022-05-21 23:55:42</time>
      </trkpt>
      <trkpt lat="42.19777" lon="2.34307">
        <ele>1108.2</ele>
        <time>2022-05-21 23:55:43</time>
      </trkpt>
      <trkpt lat="42.1978" lon="2.34297">
        <ele>1107.8</ele>
        <time>2022-05-21 23:55:44</time>
      </trkpt>
      <trkpt lat="42.19782" lon="2.34288">
        <ele>1107.4</ele>
        <time>2022-05-21 23:55:45</time>
      </trkpt>
      <trkpt lat="42.19784" lon="2.34278">
        <ele>1107.2</ele>
        <time>2022-05-21 23:55:46</time>
      </trkpt>
      <trkpt lat="42.19786" lon="2.34268">
        <ele>1106.8</ele>
        <time>2022-05-21 23:55:47</time>
      </trkpt>
      <trkpt lat="42.19786" lon="2.34257">
        <ele>1106.4</ele>
        <time>2022-05-21 23:55:48</time>
      </trkpt>
      <trkpt lat="42.19786" lon="2.34247">
        <ele>1106</ele>
        <time>2022-05-21 23:55:49</time>
      </trkpt>
      <trkpt lat="42.19786" lon="2.34236">
        <ele>1105.6</ele>
        <time>2022-05-21 23:55:50</time>
      </trkpt>
      <trkpt lat="42.19786" lon="2.34225">
        <ele>1105.4</ele>
        <time>2022-05-21 23:55:51</time>
      </trkpt>
      <trkpt lat="42.19786" lon="2.34214">
        <ele>1105</ele>
        <time>2022-05-21 23:55:52</time>
      </trkpt>
      <trkpt lat="42.19786" lon="2.34203">
        <ele>1104.6</ele>
        <time>2022-05-21 23:55:53</time>
      </trkpt>
      <trkpt lat="42.19786" lon="2.34192">
        <ele>1104.2</ele>
        <time>2022-05-21 23:55:54</time>
      </trkpt>
      <trkpt lat="42.19786" lon="2.34181">
        <ele>1103.8</ele>
        <time>2022-05-21 23:55:55</time>
      </trkpt>
      <trkpt lat="42.19786" lon="2.34168">
        <ele>1103.4</ele>
        <time>2022-05-21 23:55:56</time>
      </trkpt>
      <trkpt lat="42.19786" lon="2.34157">
        <ele>1103</ele>
        <time>2022-05-21 23:55:57</time>
      </trkpt>
      <trkpt lat="42.19784" lon="2.34146">
        <ele>1102.6</ele>
        <time>2022-05-21 23:55:58</time>
      </trkpt>
      <trkpt lat="42.19781" lon="2.34135">
        <ele>1102</ele>
        <time>2022-05-21 23:55:59</time>
      </trkpt>
      <trkpt lat="42.19776" lon="2.34123">
        <ele>1101.4</ele>
        <time>2022-05-21 23:56:00</time>
      </trkpt>
      <trkpt lat="42.19772" lon="2.34112">
        <ele>1101</ele>
        <time>2022-05-21 23:56:01</time>
      </trkpt>
      <trkpt lat="42.19767" lon="2.34099">
        <ele>1100.4</ele>
        <time>2022-05-21 23:56:02</time>
      </trkpt>
      <trkpt lat="42.19762" lon="2.34087">
        <ele>1099.8</ele>
        <time>2022-05-21 23:56:03</time>
      </trkpt>
      <trkpt lat="42.19757" lon="2.34074">
        <ele>1099.2</ele>
        <time>2022-05-21 23:56:04</time>
      </trkpt>
      <trkpt lat="42.19752" lon="2.34063">
        <ele>1098.6</ele>
        <time>2022-05-21 23:56:05</time>
      </trkpt>
      <trkpt lat="42.19748" lon="2.34051">
        <ele>1098</ele>
        <time>2022-05-21 23:56:06</time>
      </trkpt>
      <trkpt lat="42.19743" lon="2.3404">
        <ele>1097.6</ele>
        <time>2022-05-21 23:56:07</time>
      </trkpt>
      <trkpt lat="42.19739" lon="2.34028">
        <ele>1097</ele>
        <time>2022-05-21 23:56:08</time>
      </trkpt>
      <trkpt lat="42.19735" lon="2.34017">
        <ele>1096.4</ele>
        <time>2022-05-21 23:56:09</time>
      </trkpt>
      <trkpt lat="42.19731" lon="2.34005">
        <ele>1096</ele>
        <time>2022-05-21 23:56:10</time>
      </trkpt>
      <trkpt lat="42.19729" lon="2.33993">
        <ele>1095.4</ele>
        <time>2022-05-21 23:56:11</time>
      </trkpt>
      <trkpt lat="42.19728" lon="2.33979">
        <ele>1094.8</ele>
        <time>2022-05-21 23:56:12</time>
      </trkpt>
      <trkpt lat="42.19727" lon="2.33967">
        <ele>1094.2</ele>
        <time>2022-05-21 23:56:13</time>
      </trkpt>
      <trkpt lat="42.19727" lon="2.33954">
        <ele>1093.8</ele>
        <time>2022-05-21 23:56:14</time>
      </trkpt>
      <trkpt lat="42.19731" lon="2.33942">
        <ele>1093.2</ele>
        <time>2022-05-21 23:56:15</time>
      </trkpt>
      <trkpt lat="42.19739" lon="2.3393">
        <ele>1092.6</ele>
        <time>2022-05-21 23:56:16</time>
      </trkpt>
      <trkpt lat="42.19746" lon="2.33916">
        <ele>1092</ele>
        <time>2022-05-21 23:56:17</time>
      </trkpt>
      <trkpt lat="42.19751" lon="2.33903">
        <ele>1091.4</ele>
        <time>2022-05-21 23:56:18</time>
      </trkpt>
      <trkpt lat="42.19754" lon="2.3389">
        <ele>1091</ele>
        <time>2022-05-21 23:56:19</time>
      </trkpt>
      <trkpt lat="42.19756" lon="2.33878">
        <ele>1090.4</ele>
        <time>2022-05-21 23:56:20</time>
      </trkpt>
      <trkpt lat="42.19758" lon="2.33865">
        <ele>1090</ele>
        <time>2022-05-21 23:56:21</time>
      </trkpt>
      <trkpt lat="42.19758" lon="2.33853">
        <ele>1089.4</ele>
        <time>2022-05-21 23:56:22</time>
      </trkpt>
      <trkpt lat="42.19757" lon="2.3384">
        <ele>1088.8</ele>
        <time>2022-05-21 23:56:23</time>
      </trkpt>
      <trkpt lat="42.19757" lon="2.33827">
        <ele>1088.4</ele>
        <time>2022-05-21 23:56:24</time>
      </trkpt>
      <trkpt lat="42.19757" lon="2.33813">
        <ele>1087.8</ele>
        <time>2022-05-21 23:56:25</time>
      </trkpt>
      <trkpt lat="42.19756" lon="2.338">
        <ele>1087.4</ele>
        <time>2022-05-21 23:56:26</time>
      </trkpt>
      <trkpt lat="42.19756" lon="2.33787">
        <ele>1087</ele>
        <time>2022-05-21 23:56:27</time>
      </trkpt>
      <trkpt lat="42.19756" lon="2.33774">
        <ele>1086.6</ele>
        <time>2022-05-21 23:56:28</time>
      </trkpt>
      <trkpt lat="42.19757" lon="2.33761">
        <ele>1086.2</ele>
        <time>2022-05-21 23:56:29</time>
      </trkpt>
      <trkpt lat="42.19758" lon="2.33749">
        <ele>1085.6</ele>
        <time>2022-05-21 23:56:30</time>
      </trkpt>
      <trkpt lat="42.1976" lon="2.33736">
        <ele>1085</ele>
        <time>2022-05-21 23:56:31</time>
      </trkpt>
      <trkpt lat="42.19762" lon="2.33723">
        <ele>1084.4</ele>
        <time>2022-05-21 23:56:32</time>
      </trkpt>
      <trkpt lat="42.19766" lon="2.3371">
        <ele>1084</ele>
        <time>2022-05-21 23:56:33</time>
      </trkpt>
      <trkpt lat="42.1977" lon="2.33697">
        <ele>1083.4</ele>
        <time>2022-05-21 23:56:34</time>
      </trkpt>
      <trkpt lat="42.19773" lon="2.33684">
        <ele>1082.8</ele>
        <time>2022-05-21 23:56:35</time>
      </trkpt>
      <trkpt lat="42.19778" lon="2.33671">
        <ele>1082.4</ele>
        <time>2022-05-21 23:56:36</time>
      </trkpt>
      <trkpt lat="42.19783" lon="2.33658">
        <ele>1081.8</ele>
        <time>2022-05-21 23:56:37</time>
      </trkpt>
      <trkpt lat="42.19787" lon="2.33645">
        <ele>1081.4</ele>
        <time>2022-05-21 23:56:38</time>
      </trkpt>
      <trkpt lat="42.19791" lon="2.33632">
        <ele>1081</ele>
        <time>2022-05-21 23:56:39</time>
      </trkpt>
      <trkpt lat="42.19794" lon="2.33619">
        <ele>1080.4</ele>
        <time>2022-05-21 23:56:40</time>
      </trkpt>
      <trkpt lat="42.19799" lon="2.33608">
        <ele>1080</ele>
        <time>2022-05-21 23:56:41</time>
      </trkpt>
      <trkpt lat="42.19804" lon="2.33597">
        <ele>1079.6</ele>
        <time>2022-05-21 23:56:42</time>
      </trkpt>
      <trkpt lat="42.1981" lon="2.33587">
        <ele>1079</ele>
        <time>2022-05-21 23:56:43</time>
      </trkpt>
      <trkpt lat="42.19818" lon="2.33576">
        <ele>1078.6</ele>
        <time>2022-05-21 23:56:44</time>
      </trkpt>
      <trkpt lat="42.19826" lon="2.33569">
        <ele>1078</ele>
        <time>2022-05-21 23:56:45</time>
      </trkpt>
      <trkpt lat="42.19835" lon="2.33561">
        <ele>1077.6</ele>
        <time>2022-05-21 23:56:46</time>
      </trkpt>
      <trkpt lat="42.19844" lon="2.33555">
        <ele>1077.2</ele>
        <time>2022-05-21 23:56:47</time>
      </trkpt>
      <trkpt lat="42.19852" lon="2.3355">
        <ele>1077</ele>
        <time>2022-05-21 23:56:48</time>
      </trkpt>
      <trkpt lat="42.1986" lon="2.33546">
        <ele>1076.8</ele>
        <time>2022-05-21 23:56:49</time>
      </trkpt>
      <trkpt lat="42.19868" lon="2.33541">
        <ele>1076.8</ele>
        <time>2022-05-21 23:56:50</time>
      </trkpt>
      <trkpt lat="42.19874" lon="2.33537">
        <ele>1076.6</ele>
        <time>2022-05-21 23:56:51</time>
      </trkpt>
      <trkpt lat="42.1988" lon="2.33532">
        <ele>1076.6</ele>
        <time>2022-05-21 23:56:52</time>
      </trkpt>
      <trkpt lat="42.19884" lon="2.33525">
        <ele>1076.4</ele>
        <time>2022-05-21 23:56:53</time>
      </trkpt>
      <trkpt lat="42.19887" lon="2.33516">
        <ele>1076.2</ele>
        <time>2022-05-21 23:56:54</time>
      </trkpt>
      <trkpt lat="42.19888" lon="2.33508">
        <ele>1076</ele>
        <time>2022-05-21 23:56:55</time>
      </trkpt>
      <trkpt lat="42.19886" lon="2.33498">
        <ele>1075.8</ele>
        <time>2022-05-21 23:56:56</time>
      </trkpt>
      <trkpt lat="42.19883" lon="2.3349">
        <ele>1075.6</ele>
        <time>2022-05-21 23:56:57</time>
      </trkpt>
      <trkpt lat="42.19878" lon="2.33483">
        <ele>1075.4</ele>
        <time>2022-05-21 23:56:58</time>
      </trkpt>
      <trkpt lat="42.19872" lon="2.33477">
        <ele>1075.2</ele>
        <time>2022-05-21 23:56:59</time>
      </trkpt>
      <trkpt lat="42.19865" lon="2.33473">
        <ele>1075</ele>
        <time>2022-05-21 23:57:00</time>
      </trkpt>
      <trkpt lat="42.19857" lon="2.33468">
        <ele>1074.8</ele>
        <time>2022-05-21 23:57:01</time>
      </trkpt>
      <trkpt lat="42.1985" lon="2.33465">
        <ele>1074.6</ele>
        <time>2022-05-21 23:57:02</time>
      </trkpt>
      <trkpt lat="42.19842" lon="2.33461">
        <ele>1074.4</ele>
        <time>2022-05-21 23:57:03</time>
      </trkpt>
      <trkpt lat="42.19833" lon="2.33458">
        <ele>1074.2</ele>
        <time>2022-05-21 23:57:04</time>
      </trkpt>
      <trkpt lat="42.19825" lon="2.33456">
        <ele>1074</ele>
        <time>2022-05-21 23:57:05</time>
      </trkpt>
      <trkpt lat="42.19817" lon="2.33453">
        <ele>1073.8</ele>
        <time>2022-05-21 23:57:06</time>
      </trkpt>
      <trkpt lat="42.1981" lon="2.3345">
        <ele>1073.6</ele>
        <time>2022-05-21 23:57:07</time>
      </trkpt>
      <trkpt lat="42.19802" lon="2.33447">
        <ele>1073.2</ele>
        <time>2022-05-21 23:57:08</time>
      </trkpt>
      <trkpt lat="42.19794" lon="2.33444">
        <ele>1073</ele>
        <time>2022-05-21 23:57:09</time>
      </trkpt>
      <trkpt lat="42.19785" lon="2.33441">
        <ele>1072.8</ele>
        <time>2022-05-21 23:57:10</time>
      </trkpt>
      <trkpt lat="42.19777" lon="2.33438">
        <ele>1072.4</ele>
        <time>2022-05-21 23:57:11</time>
      </trkpt>
      <trkpt lat="42.19769" lon="2.33435">
        <ele>1072.2</ele>
        <time>2022-05-21 23:57:12</time>
      </trkpt>
      <trkpt lat="42.19761" lon="2.33432">
        <ele>1071.8</ele>
        <time>2022-05-21 23:57:13</time>
      </trkpt>
      <trkpt lat="42.19753" lon="2.33426">
        <ele>1071.6</ele>
        <time>2022-05-21 23:57:14</time>
      </trkpt>
      <trkpt lat="42.19746" lon="2.33419">
        <ele>1071.2</ele>
        <time>2022-05-21 23:57:15</time>
      </trkpt>
      <trkpt lat="42.19741" lon="2.33411">
        <ele>1070.8</ele>
        <time>2022-05-21 23:57:16</time>
      </trkpt>
      <trkpt lat="42.19736" lon="2.33401">
        <ele>1070.4</ele>
        <time>2022-05-21 23:57:17</time>
      </trkpt>
      <trkpt lat="42.19733" lon="2.3339">
        <ele>1070</ele>
        <time>2022-05-21 23:57:18</time>
      </trkpt>
      <trkpt lat="42.1973" lon="2.33378">
        <ele>1069.6</ele>
        <time>2022-05-21 23:57:19</time>
      </trkpt>
      <trkpt lat="42.19728" lon="2.33366">
        <ele>1069.2</ele>
        <time>2022-05-21 23:57:20</time>
      </trkpt>
      <trkpt lat="42.19725" lon="2.33352">
        <ele>1068.8</ele>
        <time>2022-05-21 23:57:21</time>
      </trkpt>
      <trkpt lat="42.19723" lon="2.33339">
        <ele>1068.4</ele>
        <time>2022-05-21 23:57:22</time>
      </trkpt>
      <trkpt lat="42.19721" lon="2.33326">
        <ele>1068</ele>
        <time>2022-05-21 23:57:23</time>
      </trkpt>
      <trkpt lat="42.19718" lon="2.33313">
        <ele>1067.6</ele>
        <time>2022-05-21 23:57:24</time>
      </trkpt>
      <trkpt lat="42.19716" lon="2.33301">
        <ele>1067.2</ele>
        <time>2022-05-21 23:57:25</time>
      </trkpt>
      <trkpt lat="42.19713" lon="2.33289">
        <ele>1066.6</ele>
        <time>2022-05-21 23:57:26</time>
      </trkpt>
      <trkpt lat="42.19709" lon="2.33277">
        <ele>1066.2</ele>
        <time>2022-05-21 23:57:27</time>
      </trkpt>
      <trkpt lat="42.19705" lon="2.33266">
        <ele>1065.8</ele>
        <time>2022-05-21 23:57:28</time>
      </trkpt>
      <trkpt lat="42.19702" lon="2.33254">
        <ele>1065.4</ele>
        <time>2022-05-21 23:57:29</time>
      </trkpt>
      <trkpt lat="42.197" lon="2.33242">
        <ele>1065</ele>
        <time>2022-05-21 23:57:30</time>
      </trkpt>
      <trkpt lat="42.19697" lon="2.3323">
        <ele>1064.8</ele>
        <time>2022-05-21 23:57:31</time>
      </trkpt>
      <trkpt lat="42.19693" lon="2.33217">
        <ele>1064.4</ele>
        <time>2022-05-21 23:57:32</time>
      </trkpt>
      <trkpt lat="42.19691" lon="2.33206">
        <ele>1064.2</ele>
        <time>2022-05-21 23:57:33</time>
      </trkpt>
      <trkpt lat="42.1969" lon="2.33195">
        <ele>1063.8</ele>
        <time>2022-05-21 23:57:34</time>
      </trkpt>
      <trkpt lat="42.1969" lon="2.33183">
        <ele>1063.6</ele>
        <time>2022-05-21 23:57:35</time>
      </trkpt>
      <trkpt lat="42.19691" lon="2.33171">
        <ele>1063.2</ele>
        <time>2022-05-21 23:57:36</time>
      </trkpt>
      <trkpt lat="42.19693" lon="2.3316">
        <ele>1063</ele>
        <time>2022-05-21 23:57:37</time>
      </trkpt>
      <trkpt lat="42.19694" lon="2.33149">
        <ele>1062.8</ele>
        <time>2022-05-21 23:57:38</time>
      </trkpt>
      <trkpt lat="42.19696" lon="2.33139">
        <ele>1062.8</ele>
        <time>2022-05-21 23:57:39</time>
      </trkpt>
      <trkpt lat="42.19697" lon="2.33128">
        <ele>1062.6</ele>
        <time>2022-05-21 23:57:40</time>
      </trkpt>
      <trkpt lat="42.19698" lon="2.33118">
        <ele>1062.6</ele>
        <time>2022-05-21 23:57:41</time>
      </trkpt>
      <trkpt lat="42.19698" lon="2.33108">
        <ele>1062.4</ele>
        <time>2022-05-21 23:57:42</time>
      </trkpt>
      <trkpt lat="42.19697" lon="2.33099">
        <ele>1062.2</ele>
        <time>2022-05-21 23:57:43</time>
      </trkpt>
      <trkpt lat="42.19696" lon="2.3309">
        <ele>1062</ele>
        <time>2022-05-21 23:57:44</time>
      </trkpt>
      <trkpt lat="42.19694" lon="2.3308">
        <ele>1061.8</ele>
        <time>2022-05-21 23:57:45</time>
      </trkpt>
      <trkpt lat="42.19693" lon="2.33071">
        <ele>1061.6</ele>
        <time>2022-05-21 23:57:46</time>
      </trkpt>
      <trkpt lat="42.19691" lon="2.33062">
        <ele>1061.4</ele>
        <time>2022-05-21 23:57:47</time>
      </trkpt>
      <trkpt lat="42.19689" lon="2.33054">
        <ele>1061.2</ele>
        <time>2022-05-21 23:57:48</time>
      </trkpt>
      <trkpt lat="42.19687" lon="2.33046">
        <ele>1061.2</ele>
        <time>2022-05-21 23:57:49</time>
      </trkpt>
      <trkpt lat="42.19686" lon="2.33038">
        <ele>1061</ele>
        <time>2022-05-21 23:57:50</time>
      </trkpt>
      <trkpt lat="42.19686" lon="2.33031">
        <ele>1060.8</ele>
        <time>2022-05-21 23:57:51</time>
      </trkpt>
      <trkpt lat="42.19687" lon="2.33023">
        <ele>1060.6</ele>
        <time>2022-05-21 23:57:52</time>
      </trkpt>
      <trkpt lat="42.19688" lon="2.33016">
        <ele>1060.4</ele>
        <time>2022-05-21 23:57:53</time>
      </trkpt>
      <trkpt lat="42.1969" lon="2.33009">
        <ele>1060.2</ele>
        <time>2022-05-21 23:57:54</time>
      </trkpt>
      <trkpt lat="42.19692" lon="2.33002">
        <ele>1060</ele>
        <time>2022-05-21 23:57:55</time>
      </trkpt>
      <trkpt lat="42.19694" lon="2.32996">
        <ele>1059.8</ele>
        <time>2022-05-21 23:57:56</time>
      </trkpt>
      <trkpt lat="42.19697" lon="2.3299">
        <ele>1059.6</ele>
        <time>2022-05-21 23:57:57</time>
      </trkpt>
      <trkpt lat="42.19699" lon="2.32984">
        <ele>1059.4</ele>
        <time>2022-05-21 23:57:58</time>
      </trkpt>
      <trkpt lat="42.19701" lon="2.32979">
        <ele>1059.4</ele>
        <time>2022-05-21 23:57:59</time>
      </trkpt>
      <trkpt lat="42.19703" lon="2.32975">
        <ele>1059.2</ele>
        <time>2022-05-21 23:58:00</time>
      </trkpt>
      <trkpt lat="42.19704" lon="2.32971">
        <ele>1059.2</ele>
        <time>2022-05-21 23:58:01</time>
      </trkpt>
      <trkpt lat="42.19706" lon="2.32968">
        <ele>1059.2</ele>
        <time>2022-05-21 23:58:02</time>
      </trkpt>
      <trkpt lat="42.19707" lon="2.32965">
        <ele>1059</ele>
        <time>2022-05-21 23:58:03</time>
      </trkpt>
      <trkpt lat="42.19708" lon="2.32961">
        <ele>1059</ele>
        <time>2022-05-21 23:58:04</time>
      </trkpt>
      <trkpt lat="42.1971" lon="2.32957">
        <ele>1058.8</ele>
        <time>2022-05-21 23:58:05</time>
      </trkpt>
      <trkpt lat="42.19711" lon="2.32953">
        <ele>1058.8</ele>
        <time>2022-05-21 23:58:06</time>
      </trkpt>
      <trkpt lat="42.19712" lon="2.32949">
        <ele>1058.6</ele>
        <time>2022-05-21 23:58:07</time>
      </trkpt>
      <trkpt lat="42.19714" lon="2.32945">
        <ele>1058.6</ele>
        <time>2022-05-21 23:58:08</time>
      </trkpt>
      <trkpt lat="42.19716" lon="2.3294">
        <ele>1058.4</ele>
        <time>2022-05-21 23:58:09</time>
      </trkpt>
      <trkpt lat="42.19717" lon="2.32936">
        <ele>1058.2</ele>
        <time>2022-05-21 23:58:10</time>
      </trkpt>
      <trkpt lat="42.19719" lon="2.3293">
        <ele>1058</ele>
        <time>2022-05-21 23:58:11</time>
      </trkpt>
      <trkpt lat="42.19721" lon="2.32925">
        <ele>1057.8</ele>
        <time>2022-05-21 23:58:12</time>
      </trkpt>
      <trkpt lat="42.19722" lon="2.32919">
        <ele>1057.6</ele>
        <time>2022-05-21 23:58:13</time>
      </trkpt>
      <trkpt lat="42.19724" lon="2.32912">
        <ele>1057.4</ele>
        <time>2022-05-21 23:58:14</time>
      </trkpt>
      <trkpt lat="42.19725" lon="2.32905">
        <ele>1057.2</ele>
        <time>2022-05-21 23:58:15</time>
      </trkpt>
      <trkpt lat="42.19726" lon="2.32898">
        <ele>1057</ele>
        <time>2022-05-21 23:58:16</time>
      </trkpt>
      <trkpt lat="42.19727" lon="2.32891">
        <ele>1056.8</ele>
        <time>2022-05-21 23:58:17</time>
      </trkpt>
      <trkpt lat="42.19728" lon="2.32883">
        <ele>1056.6</ele>
        <time>2022-05-21 23:58:18</time>
      </trkpt>
      <trkpt lat="42.1973" lon="2.32875">
        <ele>1056.4</ele>
        <time>2022-05-21 23:58:19</time>
      </trkpt>
      <trkpt lat="42.19732" lon="2.32868">
        <ele>1056.2</ele>
        <time>2022-05-21 23:58:20</time>
      </trkpt>
      <trkpt lat="42.19733" lon="2.3286">
        <ele>1056</ele>
        <time>2022-05-21 23:58:21</time>
      </trkpt>
      <trkpt lat="42.19735" lon="2.32851">
        <ele>1055.8</ele>
        <time>2022-05-21 23:58:22</time>
      </trkpt>
      <trkpt lat="42.19737" lon="2.32843">
        <ele>1055.6</ele>
        <time>2022-05-21 23:58:23</time>
      </trkpt>
      <trkpt lat="42.19739" lon="2.32835">
        <ele>1055.4</ele>
        <time>2022-05-21 23:58:24</time>
      </trkpt>
      <trkpt lat="42.19741" lon="2.32827">
        <ele>1055.2</ele>
        <time>2022-05-21 23:58:25</time>
      </trkpt>
      <trkpt lat="42.19743" lon="2.3282">
        <ele>1055</ele>
        <time>2022-05-21 23:58:26</time>
      </trkpt>
      <trkpt lat="42.19746" lon="2.32813">
        <ele>1054.8</ele>
        <time>2022-05-21 23:58:27</time>
      </trkpt>
      <trkpt lat="42.19749" lon="2.32806">
        <ele>1054.6</ele>
        <time>2022-05-21 23:58:28</time>
      </trkpt>
      <trkpt lat="42.19752" lon="2.32799">
        <ele>1054.4</ele>
        <time>2022-05-21 23:58:29</time>
      </trkpt>
      <trkpt lat="42.19756" lon="2.32793">
        <ele>1054.2</ele>
        <time>2022-05-21 23:58:30</time>
      </trkpt>
      <trkpt lat="42.1976" lon="2.32787">
        <ele>1054</ele>
        <time>2022-05-21 23:58:31</time>
      </trkpt>
      <trkpt lat="42.19765" lon="2.32781">
        <ele>1053.6</ele>
        <time>2022-05-21 23:58:32</time>
      </trkpt>
      <trkpt lat="42.19769" lon="2.32776">
        <ele>1053.4</ele>
        <time>2022-05-21 23:58:33</time>
      </trkpt>
      <trkpt lat="42.19775" lon="2.32771">
        <ele>1053</ele>
        <time>2022-05-21 23:58:34</time>
      </trkpt>
      <trkpt lat="42.19781" lon="2.32767">
        <ele>1052.8</ele>
        <time>2022-05-21 23:58:35</time>
      </trkpt>
      <trkpt lat="42.19787" lon="2.32763">
        <ele>1052.6</ele>
        <time>2022-05-21 23:58:36</time>
      </trkpt>
      <trkpt lat="42.19794" lon="2.32759">
        <ele>1052.4</ele>
        <time>2022-05-21 23:58:37</time>
      </trkpt>
      <trkpt lat="42.198" lon="2.32755">
        <ele>1052</ele>
        <time>2022-05-21 23:58:38</time>
      </trkpt>
      <trkpt lat="42.19806" lon="2.32751">
        <ele>1051.8</ele>
        <time>2022-05-21 23:58:39</time>
      </trkpt>
      <trkpt lat="42.19812" lon="2.32745">
        <ele>1051.4</ele>
        <time>2022-05-21 23:58:40</time>
      </trkpt>
      <trkpt lat="42.19818" lon="2.32739">
        <ele>1051.2</ele>
        <time>2022-05-21 23:58:41</time>
      </trkpt>
      <trkpt lat="42.19822" lon="2.32731">
        <ele>1050.8</ele>
        <time>2022-05-21 23:58:42</time>
      </trkpt>
      <trkpt lat="42.19826" lon="2.32722">
        <ele>1050.4</ele>
        <time>2022-05-21 23:58:43</time>
      </trkpt>
      <trkpt lat="42.19829" lon="2.32713">
        <ele>1050.2</ele>
        <time>2022-05-21 23:58:44</time>
      </trkpt>
      <trkpt lat="42.1983" lon="2.32703">
        <ele>1049.8</ele>
        <time>2022-05-21 23:58:45</time>
      </trkpt>
      <trkpt lat="42.19831" lon="2.32693">
        <ele>1049.6</ele>
        <time>2022-05-21 23:58:46</time>
      </trkpt>
      <trkpt lat="42.19831" lon="2.32683">
        <ele>1049.2</ele>
        <time>2022-05-21 23:58:47</time>
      </trkpt>
      <trkpt lat="42.19829" lon="2.32673">
        <ele>1049</ele>
        <time>2022-05-21 23:58:48</time>
      </trkpt>
      <trkpt lat="42.19827" lon="2.32663">
        <ele>1048.6</ele>
        <time>2022-05-21 23:58:49</time>
      </trkpt>
      <trkpt lat="42.19825" lon="2.32654">
        <ele>1048.4</ele>
        <time>2022-05-21 23:58:50</time>
      </trkpt>
      <trkpt lat="42.19821" lon="2.32645">
        <ele>1048</ele>
        <time>2022-05-21 23:58:51</time>
      </trkpt>
      <trkpt lat="42.19817" lon="2.32637">
        <ele>1047.6</ele>
        <time>2022-05-21 23:58:52</time>
      </trkpt>
      <trkpt lat="42.19813" lon="2.32629">
        <ele>1047.4</ele>
        <time>2022-05-21 23:58:53</time>
      </trkpt>
      <trkpt lat="42.19809" lon="2.3262">
        <ele>1047</ele>
        <time>2022-05-21 23:58:54</time>
      </trkpt>
      <trkpt lat="42.19805" lon="2.32611">
        <ele>1046.6</ele>
        <time>2022-05-21 23:58:55</time>
      </trkpt>
      <trkpt lat="42.19801" lon="2.32603">
        <ele>1046.2</ele>
        <time>2022-05-21 23:58:56</time>
      </trkpt>
      <trkpt lat="42.19797" lon="2.32594">
        <ele>1046</ele>
        <time>2022-05-21 23:58:57</time>
      </trkpt>
      <trkpt lat="42.19795" lon="2.32585">
        <ele>1045.6</ele>
        <time>2022-05-21 23:58:58</time>
      </trkpt>
      <trkpt lat="42.19793" lon="2.32574">
        <ele>1045.2</ele>
        <time>2022-05-21 23:58:59</time>
      </trkpt>
      <trkpt lat="42.19791" lon="2.32564">
        <ele>1044.8</ele>
        <time>2022-05-21 23:59:00</time>
      </trkpt>
      <trkpt lat="42.19789" lon="2.32554">
        <ele>1044.4</ele>
        <time>2022-05-21 23:59:01</time>
      </trkpt>
      <trkpt lat="42.19787" lon="2.32543">
        <ele>1044</ele>
        <time>2022-05-21 23:59:02</time>
      </trkpt>
      <trkpt lat="42.19786" lon="2.32532">
        <ele>1043.6</ele>
        <time>2022-05-21 23:59:03</time>
      </trkpt>
      <trkpt lat="42.19784" lon="2.32521">
        <ele>1043</ele>
        <time>2022-05-21 23:59:04</time>
      </trkpt>
      <trkpt lat="42.19782" lon="2.32509">
        <ele>1042.6</ele>
        <time>2022-05-21 23:59:05</time>
      </trkpt>
      <trkpt lat="42.1978" lon="2.32497">
        <ele>1042.2</ele>
        <time>2022-05-21 23:59:06</time>
      </trkpt>
      <trkpt lat="42.19778" lon="2.32485">
        <ele>1041.6</ele>
        <time>2022-05-21 23:59:07</time>
      </trkpt>
      <trkpt lat="42.19775" lon="2.32474">
        <ele>1041.2</ele>
        <time>2022-05-21 23:59:08</time>
      </trkpt>
      <trkpt lat="42.19773" lon="2.32462">
        <ele>1040.8</ele>
        <time>2022-05-21 23:59:09</time>
      </trkpt>
      <trkpt lat="42.19775" lon="2.32452">
        <ele>1040.2</ele>
        <time>2022-05-21 23:59:10</time>
      </trkpt>
      <trkpt lat="42.19772" lon="2.32439">
        <ele>1039.8</ele>
        <time>2022-05-21 23:59:11</time>
      </trkpt>
      <trkpt lat="42.1977" lon="2.32426">
        <ele>1039.4</ele>
        <time>2022-05-21 23:59:12</time>
      </trkpt>
      <trkpt lat="42.19768" lon="2.32414">
        <ele>1038.8</ele>
        <time>2022-05-21 23:59:13</time>
      </trkpt>
      <trkpt lat="42.19767" lon="2.32403">
        <ele>1038.4</ele>
        <time>2022-05-21 23:59:14</time>
      </trkpt>
      <trkpt lat="42.19767" lon="2.32393">
        <ele>1037.8</ele>
        <time>2022-05-21 23:59:15</time>
      </trkpt>
      <trkpt lat="42.19769" lon="2.32382">
        <ele>1037.4</ele>
        <time>2022-05-21 23:59:16</time>
      </trkpt>
      <trkpt lat="42.19771" lon="2.32371">
        <ele>1036.8</ele>
        <time>2022-05-21 23:59:17</time>
      </trkpt>
      <trkpt lat="42.19774" lon="2.32362">
        <ele>1036.2</ele>
        <time>2022-05-21 23:59:18</time>
      </trkpt>
      <trkpt lat="42.19778" lon="2.32352">
        <ele>1035.6</ele>
        <time>2022-05-21 23:59:19</time>
      </trkpt>
      <trkpt lat="42.19783" lon="2.32343">
        <ele>1035.2</ele>
        <time>2022-05-21 23:59:20</time>
      </trkpt>
      <trkpt lat="42.19788" lon="2.32334">
        <ele>1034.4</ele>
        <time>2022-05-21 23:59:21</time>
      </trkpt>
      <trkpt lat="42.19793" lon="2.32326">
        <ele>1033.8</ele>
        <time>2022-05-21 23:59:22</time>
      </trkpt>
      <trkpt lat="42.19799" lon="2.32317">
        <ele>1033.2</ele>
        <time>2022-05-21 23:59:23</time>
      </trkpt>
      <trkpt lat="42.19805" lon="2.32308">
        <ele>1032.8</ele>
        <time>2022-05-21 23:59:24</time>
      </trkpt>
      <trkpt lat="42.19811" lon="2.32299">
        <ele>1032.2</ele>
        <time>2022-05-21 23:59:25</time>
      </trkpt>
      <trkpt lat="42.19817" lon="2.3229">
        <ele>1031.6</ele>
        <time>2022-05-21 23:59:26</time>
      </trkpt>
      <trkpt lat="42.19822" lon="2.3228">
        <ele>1031</ele>
        <time>2022-05-21 23:59:27</time>
      </trkpt>
      <trkpt lat="42.19828" lon="2.32272">
        <ele>1030.6</ele>
        <time>2022-05-21 23:59:28</time>
      </trkpt>
      <trkpt lat="42.19835" lon="2.32263">
        <ele>1030.2</ele>
        <time>2022-05-21 23:59:29</time>
      </trkpt>
      <trkpt lat="42.19841" lon="2.32257">
        <ele>1029.6</ele>
        <time>2022-05-21 23:59:30</time>
      </trkpt>
      <trkpt lat="42.19848" lon="2.32251">
        <ele>1029.2</ele>
        <time>2022-05-21 23:59:31</time>
      </trkpt>
      <trkpt lat="42.19855" lon="2.32246">
        <ele>1029</ele>
        <time>2022-05-21 23:59:32</time>
      </trkpt>
      <trkpt lat="42.19862" lon="2.32242">
        <ele>1028.6</ele>
        <time>2022-05-21 23:59:33</time>
      </trkpt>
      <trkpt lat="42.19869" lon="2.32238">
        <ele>1028.4</ele>
        <time>2022-05-21 23:59:34</time>
      </trkpt>
      <trkpt lat="42.19875" lon="2.32233">
        <ele>1028.2</ele>
        <time>2022-05-21 23:59:35</time>
      </trkpt>
      <trkpt lat="42.19881" lon="2.32228">
        <ele>1028</ele>
        <time>2022-05-21 23:59:36</time>
      </trkpt>
      <trkpt lat="42.19885" lon="2.3222">
        <ele>1027.8</ele>
        <time>2022-05-21 23:59:37</time>
      </trkpt>
      <trkpt lat="42.19888" lon="2.32212">
        <ele>1027.6</ele>
        <time>2022-05-21 23:59:38</time>
      </trkpt>
      <trkpt lat="42.1989" lon="2.32203">
        <ele>1027.4</ele>
        <time>2022-05-21 23:59:39</time>
      </trkpt>
      <trkpt lat="42.1989" lon="2.32194">
        <ele>1027.4</ele>
        <time>2022-05-21 23:59:40</time>
      </trkpt>
      <trkpt lat="42.1989" lon="2.32185">
        <ele>1027.2</ele>
        <time>2022-05-21 23:59:41</time>
      </trkpt>
      <trkpt lat="42.19888" lon="2.32176">
        <ele>1027.2</ele>
        <time>2022-05-21 23:59:42</time>
      </trkpt>
      <trkpt lat="42.19886" lon="2.32168">
        <ele>1027</ele>
        <time>2022-05-21 23:59:43</time>
      </trkpt>
      <trkpt lat="42.19883" lon="2.3216">
        <ele>1027</ele>
        <time>2022-05-21 23:59:44</time>
      </trkpt>
      <trkpt lat="42.1988" lon="2.32152">
        <ele>1026.8</ele>
        <time>2022-05-21 23:59:45</time>
      </trkpt>
      <trkpt lat="42.19877" lon="2.32144">
        <ele>1026.6</ele>
        <time>2022-05-21 23:59:46</time>
      </trkpt>
      <trkpt lat="42.19874" lon="2.32135">
        <ele>1026.4</ele>
        <time>2022-05-21 23:59:47</time>
      </trkpt>
      <trkpt lat="42.19872" lon="2.32127">
        <ele>1026.4</ele>
        <time>2022-05-21 23:59:48</time>
      </trkpt>
      <trkpt lat="42.19871" lon="2.32118">
        <ele>1026.2</ele>
        <time>2022-05-21 23:59:49</time>
      </trkpt>
      <trkpt lat="42.19869" lon="2.3211">
        <ele>1026</ele>
        <time>2022-05-21 23:59:50</time>
      </trkpt>
      <trkpt lat="42.19868" lon="2.32101">
        <ele>1026</ele>
        <time>2022-05-21 23:59:51</time>
      </trkpt>
      <trkpt lat="42.19867" lon="2.32092">
        <ele>1025.8</ele>
        <time>2022-05-21 23:59:52</time>
      </trkpt>
      <trkpt lat="42.19866" lon="2.32083">
        <ele>1025.6</ele>
        <time>2022-05-21 23:59:53</time>
      </trkpt>
      <trkpt lat="42.19867" lon="2.32073">
        <ele>1025.4</ele>
        <time>2022-05-21 23:59:54</time>
      </trkpt>
      <trkpt lat="42.19867" lon="2.32063">
        <ele>1025.2</ele>
        <time>2022-05-21 23:59:55</time>
      </trkpt>
      <trkpt lat="42.19869" lon="2.32053">
        <ele>1025</ele>
        <time>2022-05-21 23:59:56</time>
      </trkpt>
      <trkpt lat="42.1987" lon="2.32043">
        <ele>1024.8</ele>
        <time>2022-05-21 23:59:57</time>
      </trkpt>
      <trkpt lat="42.19872" lon="2.32033">
        <ele>1024.4</ele>
        <time>2022-05-21 23:59:58</time>
      </trkpt>
      <trkpt lat="42.19874" lon="2.32024">
        <ele>1024.2</ele>
        <time>2022-05-21 23:59:59</time>
      </trkpt>
      <trkpt lat="42.19875" lon="2.32014">
        <ele>1024</ele>
        <time>2022-05-22 00:00:00</time>
      </trkpt>
      <trkpt lat="42.19876" lon="2.32004">
        <ele>1023.8</ele>
        <time>2022-05-22 00:00:01</time>
      </trkpt>
      <trkpt lat="42.19876" lon="2.31995">
        <ele>1023.8</ele>
        <time>2022-05-22 00:00:02</time>
      </trkpt>
      <trkpt lat="42.19875" lon="2.31986">
        <ele>1023.6</ele>
        <time>2022-05-22 00:00:03</time>
      </trkpt>
      <trkpt lat="42.19874" lon="2.31976">
        <ele>1023.4</ele>
        <time>2022-05-22 00:00:04</time>
      </trkpt>
      <trkpt lat="42.19872" lon="2.31967">
        <ele>1023.4</ele>
        <time>2022-05-22 00:00:05</time>
      </trkpt>
      <trkpt lat="42.1987" lon="2.31959">
        <ele>1023.2</ele>
        <time>2022-05-22 00:00:06</time>
      </trkpt>
      <trkpt lat="42.19868" lon="2.3195">
        <ele>1023.2</ele>
        <time>2022-05-22 00:00:07</time>
      </trkpt>
      <trkpt lat="42.19866" lon="2.31941">
        <ele>1023</ele>
        <time>2022-05-22 00:00:08</time>
      </trkpt>
      <trkpt lat="42.19864" lon="2.31932">
        <ele>1023</ele>
        <time>2022-05-22 00:00:09</time>
      </trkpt>
      <trkpt lat="42.19863" lon="2.31923">
        <ele>1022.8</ele>
        <time>2022-05-22 00:00:10</time>
      </trkpt>
      <trkpt lat="42.19861" lon="2.31914">
        <ele>1022.8</ele>
        <time>2022-05-22 00:00:11</time>
      </trkpt>
      <trkpt lat="42.1986" lon="2.31906">
        <ele>1022.6</ele>
        <time>2022-05-22 00:00:12</time>
      </trkpt>
      <trkpt lat="42.1986" lon="2.31896">
        <ele>1022.4</ele>
        <time>2022-05-22 00:00:13</time>
      </trkpt>
      <trkpt lat="42.1986" lon="2.31887">
        <ele>1022.4</ele>
        <time>2022-05-22 00:00:14</time>
      </trkpt>
      <trkpt lat="42.19861" lon="2.31879">
        <ele>1022.2</ele>
        <time>2022-05-22 00:00:15</time>
      </trkpt>
      <trkpt lat="42.19862" lon="2.31869">
        <ele>1022.2</ele>
        <time>2022-05-22 00:00:16</time>
      </trkpt>
      <trkpt lat="42.19863" lon="2.3186">
        <ele>1022</ele>
        <time>2022-05-22 00:00:17</time>
      </trkpt>
      <trkpt lat="42.19864" lon="2.31852">
        <ele>1022</ele>
        <time>2022-05-22 00:00:18</time>
      </trkpt>
      <trkpt lat="42.19865" lon="2.31843">
        <ele>1021.8</ele>
        <time>2022-05-22 00:00:19</time>
      </trkpt>
      <trkpt lat="42.19866" lon="2.31834">
        <ele>1021.8</ele>
        <time>2022-05-22 00:00:20</time>
      </trkpt>
      <trkpt lat="42.19867" lon="2.31825">
        <ele>1021.6</ele>
        <time>2022-05-22 00:00:21</time>
      </trkpt>
      <trkpt lat="42.19869" lon="2.31817">
        <ele>1021.4</ele>
        <time>2022-05-22 00:00:22</time>
      </trkpt>
      <trkpt lat="42.19871" lon="2.31808">
        <ele>1021.4</ele>
        <time>2022-05-22 00:00:23</time>
      </trkpt>
      <trkpt lat="42.19873" lon="2.318">
        <ele>1021.2</ele>
        <time>2022-05-22 00:00:24</time>
      </trkpt>
      <trkpt lat="42.19875" lon="2.31791">
        <ele>1021.2</ele>
        <time>2022-05-22 00:00:25</time>
      </trkpt>
      <trkpt lat="42.19878" lon="2.31783">
        <ele>1021</ele>
        <time>2022-05-22 00:00:26</time>
      </trkpt>
      <trkpt lat="42.19881" lon="2.31775">
        <ele>1021</ele>
        <time>2022-05-22 00:00:27</time>
      </trkpt>
      <trkpt lat="42.19885" lon="2.31768">
        <ele>1020.8</ele>
        <time>2022-05-22 00:00:28</time>
      </trkpt>
      <trkpt lat="42.19889" lon="2.31761">
        <ele>1020.6</ele>
        <time>2022-05-22 00:00:29</time>
      </trkpt>
      <trkpt lat="42.19894" lon="2.31756">
        <ele>1020.6</ele>
        <time>2022-05-22 00:00:30</time>
      </trkpt>
      <trkpt lat="42.19899" lon="2.3175">
        <ele>1020.4</ele>
        <time>2022-05-22 00:00:31</time>
      </trkpt>
      <trkpt lat="42.19903" lon="2.31744">
        <ele>1020.4</ele>
        <time>2022-05-22 00:00:32</time>
      </trkpt>
      <trkpt lat="42.19906" lon="2.31737">
        <ele>1020.2</ele>
        <time>2022-05-22 00:00:33</time>
      </trkpt>
      <trkpt lat="42.19907" lon="2.31729">
        <ele>1020.2</ele>
        <time>2022-05-22 00:00:34</time>
      </trkpt>
      <trkpt lat="42.19907" lon="2.31722">
        <ele>1020</ele>
        <time>2022-05-22 00:00:35</time>
      </trkpt>
      <trkpt lat="42.19904" lon="2.31715">
        <ele>1020</ele>
        <time>2022-05-22 00:00:36</time>
      </trkpt>
      <trkpt lat="42.199" lon="2.31708">
        <ele>1019.8</ele>
        <time>2022-05-22 00:00:37</time>
      </trkpt>
      <trkpt lat="42.19895" lon="2.31703">
        <ele>1019.4</ele>
        <time>2022-05-22 00:00:38</time>
      </trkpt>
      <trkpt lat="42.19889" lon="2.31698">
        <ele>1019.2</ele>
        <time>2022-05-22 00:00:39</time>
      </trkpt>
      <trkpt lat="42.19883" lon="2.31694">
        <ele>1018.8</ele>
        <time>2022-05-22 00:00:40</time>
      </trkpt>
      <trkpt lat="42.19876" lon="2.3169">
        <ele>1018.4</ele>
        <time>2022-05-22 00:00:41</time>
      </trkpt>
      <trkpt lat="42.19868" lon="2.31686">
        <ele>1018</ele>
        <time>2022-05-22 00:00:42</time>
      </trkpt>
      <trkpt lat="42.19861" lon="2.31683">
        <ele>1017.6</ele>
        <time>2022-05-22 00:00:43</time>
      </trkpt>
      <trkpt lat="42.19854" lon="2.31679">
        <ele>1017.4</ele>
        <time>2022-05-22 00:00:44</time>
      </trkpt>
      <trkpt lat="42.19847" lon="2.31676">
        <ele>1017</ele>
        <time>2022-05-22 00:00:45</time>
      </trkpt>
      <trkpt lat="42.19841" lon="2.31671">
        <ele>1016.6</ele>
        <time>2022-05-22 00:00:46</time>
      </trkpt>
      <trkpt lat="42.19835" lon="2.31666">
        <ele>1016.4</ele>
        <time>2022-05-22 00:00:47</time>
      </trkpt>
      <trkpt lat="42.1983" lon="2.31659">
        <ele>1016</ele>
        <time>2022-05-22 00:00:48</time>
      </trkpt>
      <trkpt lat="42.19825" lon="2.31652">
        <ele>1015.6</ele>
        <time>2022-05-22 00:00:49</time>
      </trkpt>
      <trkpt lat="42.19821" lon="2.31643">
        <ele>1015.4</ele>
        <time>2022-05-22 00:00:50</time>
      </trkpt>
      <trkpt lat="42.19817" lon="2.31635">
        <ele>1015</ele>
        <time>2022-05-22 00:00:51</time>
      </trkpt>
      <trkpt lat="42.19813" lon="2.31626">
        <ele>1014.6</ele>
        <time>2022-05-22 00:00:52</time>
      </trkpt>
      <trkpt lat="42.1981" lon="2.31616">
        <ele>1014.2</ele>
        <time>2022-05-22 00:00:53</time>
      </trkpt>
      <trkpt lat="42.19808" lon="2.31606">
        <ele>1013.8</ele>
        <time>2022-05-22 00:00:54</time>
      </trkpt>
      <trkpt lat="42.19808" lon="2.31596">
        <ele>1013.4</ele>
        <time>2022-05-22 00:00:55</time>
      </trkpt>
      <trkpt lat="42.19809" lon="2.31585">
        <ele>1013</ele>
        <time>2022-05-22 00:00:56</time>
      </trkpt>
      <trkpt lat="42.19811" lon="2.31574">
        <ele>1012.6</ele>
        <time>2022-05-22 00:00:57</time>
      </trkpt>
      <trkpt lat="42.19813" lon="2.31563">
        <ele>1012.2</ele>
        <time>2022-05-22 00:00:58</time>
      </trkpt>
      <trkpt lat="42.19816" lon="2.31552">
        <ele>1011.8</ele>
        <time>2022-05-22 00:00:59</time>
      </trkpt>
      <trkpt lat="42.19817" lon="2.3154">
        <ele>1011.4</ele>
        <time>2022-05-22 00:01:00</time>
      </trkpt>
      <trkpt lat="42.19819" lon="2.31529">
        <ele>1011</ele>
        <time>2022-05-22 00:01:01</time>
      </trkpt>
      <trkpt lat="42.1982" lon="2.31518">
        <ele>1010.6</ele>
        <time>2022-05-22 00:01:02</time>
      </trkpt>
      <trkpt lat="42.19821" lon="2.31506">
        <ele>1010.2</ele>
        <time>2022-05-22 00:01:03</time>
      </trkpt>
      <trkpt lat="42.19823" lon="2.31495">
        <ele>1009.8</ele>
        <time>2022-05-22 00:01:04</time>
      </trkpt>
      <trkpt lat="42.19826" lon="2.31483">
        <ele>1009.4</ele>
        <time>2022-05-22 00:01:05</time>
      </trkpt>
      <trkpt lat="42.19829" lon="2.31471">
        <ele>1009</ele>
        <time>2022-05-22 00:01:06</time>
      </trkpt>
      <trkpt lat="42.19831" lon="2.3146">
        <ele>1008.6</ele>
        <time>2022-05-22 00:01:07</time>
      </trkpt>
      <trkpt lat="42.19834" lon="2.31448">
        <ele>1008</ele>
        <time>2022-05-22 00:01:08</time>
      </trkpt>
      <trkpt lat="42.19837" lon="2.31435">
        <ele>1007.6</ele>
        <time>2022-05-22 00:01:09</time>
      </trkpt>
      <trkpt lat="42.19838" lon="2.31423">
        <ele>1007</ele>
        <time>2022-05-22 00:01:10</time>
      </trkpt>
      <trkpt lat="42.1984" lon="2.3141">
        <ele>1006.6</ele>
        <time>2022-05-22 00:01:11</time>
      </trkpt>
      <trkpt lat="42.19843" lon="2.31398">
        <ele>1006.2</ele>
        <time>2022-05-22 00:01:12</time>
      </trkpt>
      <trkpt lat="42.19847" lon="2.31386">
        <ele>1005.6</ele>
        <time>2022-05-22 00:01:13</time>
      </trkpt>
      <trkpt lat="42.19851" lon="2.31374">
        <ele>1005</ele>
        <time>2022-05-22 00:01:14</time>
      </trkpt>
      <trkpt lat="42.19856" lon="2.31363">
        <ele>1004.4</ele>
        <time>2022-05-22 00:01:15</time>
      </trkpt>
      <trkpt lat="42.19861" lon="2.31353">
        <ele>1004</ele>
        <time>2022-05-22 00:01:16</time>
      </trkpt>
      <trkpt lat="42.19867" lon="2.31343">
        <ele>1003.4</ele>
        <time>2022-05-22 00:01:17</time>
      </trkpt>
      <trkpt lat="42.19872" lon="2.31334">
        <ele>1003</ele>
        <time>2022-05-22 00:01:18</time>
      </trkpt>
      <trkpt lat="42.19878" lon="2.31325">
        <ele>1002.4</ele>
        <time>2022-05-22 00:01:19</time>
      </trkpt>
      <trkpt lat="42.19883" lon="2.31316">
        <ele>1002</ele>
        <time>2022-05-22 00:01:20</time>
      </trkpt>
      <trkpt lat="42.19887" lon="2.31306">
        <ele>1001.6</ele>
        <time>2022-05-22 00:01:21</time>
      </trkpt>
      <trkpt lat="42.19888" lon="2.31296">
        <ele>1001.2</ele>
        <time>2022-05-22 00:01:22</time>
      </trkpt>
      <trkpt lat="42.19888" lon="2.31287">
        <ele>1000.8</ele>
        <time>2022-05-22 00:01:23</time>
      </trkpt>
      <trkpt lat="42.19885" lon="2.31278">
        <ele>1000.4</ele>
        <time>2022-05-22 00:01:24</time>
      </trkpt>
      <trkpt lat="42.19881" lon="2.3127">
        <ele>1000</ele>
        <time>2022-05-22 00:01:25</time>
      </trkpt>
      <trkpt lat="42.19875" lon="2.31264">
        <ele>999.6</ele>
        <time>2022-05-22 00:01:26</time>
      </trkpt>
      <trkpt lat="42.19869" lon="2.31258">
        <ele>999.2</ele>
        <time>2022-05-22 00:01:27</time>
      </trkpt>
      <trkpt lat="42.19862" lon="2.31251">
        <ele>998.8</ele>
        <time>2022-05-22 00:01:28</time>
      </trkpt>
      <trkpt lat="42.19855" lon="2.31244">
        <ele>998.2</ele>
        <time>2022-05-22 00:01:29</time>
      </trkpt>
      <trkpt lat="42.19848" lon="2.31237">
        <ele>997.6</ele>
        <time>2022-05-22 00:01:30</time>
      </trkpt>
      <trkpt lat="42.19841" lon="2.31229">
        <ele>997.2</ele>
        <time>2022-05-22 00:01:31</time>
      </trkpt>
      <trkpt lat="42.19835" lon="2.31221">
        <ele>996.6</ele>
        <time>2022-05-22 00:01:32</time>
      </trkpt>
      <trkpt lat="42.19831" lon="2.31211">
        <ele>996</ele>
        <time>2022-05-22 00:01:33</time>
      </trkpt>
      <trkpt lat="42.19829" lon="2.31201">
        <ele>995.4</ele>
        <time>2022-05-22 00:01:34</time>
      </trkpt>
      <trkpt lat="42.19828" lon="2.3119">
        <ele>994.8</ele>
        <time>2022-05-22 00:01:35</time>
      </trkpt>
      <trkpt lat="42.1983" lon="2.31179">
        <ele>994.2</ele>
        <time>2022-05-22 00:01:36</time>
      </trkpt>
      <trkpt lat="42.19833" lon="2.31168">
        <ele>993.6</ele>
        <time>2022-05-22 00:01:37</time>
      </trkpt>
      <trkpt lat="42.19837" lon="2.31157">
        <ele>993</ele>
        <time>2022-05-22 00:01:38</time>
      </trkpt>
      <trkpt lat="42.19843" lon="2.31147">
        <ele>992.4</ele>
        <time>2022-05-22 00:01:39</time>
      </trkpt>
      <trkpt lat="42.19849" lon="2.31138">
        <ele>991.8</ele>
        <time>2022-05-22 00:01:40</time>
      </trkpt>
      <trkpt lat="42.19855" lon="2.31128">
        <ele>991.2</ele>
        <time>2022-05-22 00:01:41</time>
      </trkpt>
      <trkpt lat="42.19862" lon="2.31119">
        <ele>990.6</ele>
        <time>2022-05-22 00:01:42</time>
      </trkpt>
      <trkpt lat="42.19869" lon="2.3111">
        <ele>990</ele>
        <time>2022-05-22 00:01:43</time>
      </trkpt>
      <trkpt lat="42.19876" lon="2.31101">
        <ele>989.4</ele>
        <time>2022-05-22 00:01:44</time>
      </trkpt>
      <trkpt lat="42.19882" lon="2.31092">
        <ele>989</ele>
        <time>2022-05-22 00:01:45</time>
      </trkpt>
      <trkpt lat="42.19888" lon="2.31082">
        <ele>988.4</ele>
        <time>2022-05-22 00:01:46</time>
      </trkpt>
      <trkpt lat="42.19893" lon="2.31072">
        <ele>987.8</ele>
        <time>2022-05-22 00:01:47</time>
      </trkpt>
      <trkpt lat="42.19897" lon="2.31062">
        <ele>987.4</ele>
        <time>2022-05-22 00:01:48</time>
      </trkpt>
      <trkpt lat="42.199" lon="2.31051">
        <ele>986.8</ele>
        <time>2022-05-22 00:01:49</time>
      </trkpt>
      <trkpt lat="42.19901" lon="2.3104">
        <ele>986.2</ele>
        <time>2022-05-22 00:01:50</time>
      </trkpt>
      <trkpt lat="42.19903" lon="2.31028">
        <ele>985.8</ele>
        <time>2022-05-22 00:01:51</time>
      </trkpt>
      <trkpt lat="42.19904" lon="2.31016">
        <ele>985.4</ele>
        <time>2022-05-22 00:01:52</time>
      </trkpt>
      <trkpt lat="42.19904" lon="2.31004">
        <ele>985</ele>
        <time>2022-05-22 00:01:53</time>
      </trkpt>
      <trkpt lat="42.19905" lon="2.30992">
        <ele>984.6</ele>
        <time>2022-05-22 00:01:54</time>
      </trkpt>
      <trkpt lat="42.19906" lon="2.3098">
        <ele>984.2</ele>
        <time>2022-05-22 00:01:55</time>
      </trkpt>
      <trkpt lat="42.19908" lon="2.30967">
        <ele>983.8</ele>
        <time>2022-05-22 00:01:56</time>
      </trkpt>
      <trkpt lat="42.19909" lon="2.30955">
        <ele>983.4</ele>
        <time>2022-05-22 00:01:57</time>
      </trkpt>
      <trkpt lat="42.1991" lon="2.30942">
        <ele>983</ele>
        <time>2022-05-22 00:01:58</time>
      </trkpt>
      <trkpt lat="42.1991" lon="2.3093">
        <ele>982.6</ele>
        <time>2022-05-22 00:01:59</time>
      </trkpt>
      <trkpt lat="42.1991" lon="2.30917">
        <ele>982.4</ele>
        <time>2022-05-22 00:02:00</time>
      </trkpt>
      <trkpt lat="42.19909" lon="2.30905">
        <ele>982</ele>
        <time>2022-05-22 00:02:01</time>
      </trkpt>
      <trkpt lat="42.19907" lon="2.30893">
        <ele>981.6</ele>
        <time>2022-05-22 00:02:02</time>
      </trkpt>
      <trkpt lat="42.19903" lon="2.30881">
        <ele>981.2</ele>
        <time>2022-05-22 00:02:03</time>
      </trkpt>
      <trkpt lat="42.19899" lon="2.3087">
        <ele>980.8</ele>
        <time>2022-05-22 00:02:04</time>
      </trkpt>
      <trkpt lat="42.19895" lon="2.30858">
        <ele>980.4</ele>
        <time>2022-05-22 00:02:05</time>
      </trkpt>
      <trkpt lat="42.19891" lon="2.30846">
        <ele>980</ele>
        <time>2022-05-22 00:02:06</time>
      </trkpt>
      <trkpt lat="42.19887" lon="2.30834">
        <ele>979.6</ele>
        <time>2022-05-22 00:02:07</time>
      </trkpt>
      <trkpt lat="42.19883" lon="2.30822">
        <ele>979.2</ele>
        <time>2022-05-22 00:02:08</time>
      </trkpt>
      <trkpt lat="42.19879" lon="2.30811">
        <ele>978.8</ele>
        <time>2022-05-22 00:02:09</time>
      </trkpt>
      <trkpt lat="42.19875" lon="2.30798">
        <ele>978.4</ele>
        <time>2022-05-22 00:02:10</time>
      </trkpt>
      <trkpt lat="42.19871" lon="2.30786">
        <ele>978</ele>
        <time>2022-05-22 00:02:11</time>
      </trkpt>
      <trkpt lat="42.19867" lon="2.30774">
        <ele>977.6</ele>
        <time>2022-05-22 00:02:12</time>
      </trkpt>
      <trkpt lat="42.19862" lon="2.30762">
        <ele>977.2</ele>
        <time>2022-05-22 00:02:13</time>
      </trkpt>
      <trkpt lat="42.19858" lon="2.3075">
        <ele>976.8</ele>
        <time>2022-05-22 00:02:14</time>
      </trkpt>
      <trkpt lat="42.19853" lon="2.30738">
        <ele>976.4</ele>
        <time>2022-05-22 00:02:15</time>
      </trkpt>
      <trkpt lat="42.19849" lon="2.30725">
        <ele>976</ele>
        <time>2022-05-22 00:02:16</time>
      </trkpt>
      <trkpt lat="42.19845" lon="2.30713">
        <ele>975.6</ele>
        <time>2022-05-22 00:02:17</time>
      </trkpt>
      <trkpt lat="42.1984" lon="2.30701">
        <ele>975.2</ele>
        <time>2022-05-22 00:02:18</time>
      </trkpt>
      <trkpt lat="42.19836" lon="2.30689">
        <ele>974.8</ele>
        <time>2022-05-22 00:02:19</time>
      </trkpt>
      <trkpt lat="42.19831" lon="2.30678">
        <ele>974.6</ele>
        <time>2022-05-22 00:02:20</time>
      </trkpt>
      <trkpt lat="42.19827" lon="2.30666">
        <ele>974.2</ele>
        <time>2022-05-22 00:02:21</time>
      </trkpt>
      <trkpt lat="42.19824" lon="2.30654">
        <ele>974</ele>
        <time>2022-05-22 00:02:22</time>
      </trkpt>
      <trkpt lat="42.19824" lon="2.30643">
        <ele>973.8</ele>
        <time>2022-05-22 00:02:23</time>
      </trkpt>
      <trkpt lat="42.19825" lon="2.30632">
        <ele>973.6</ele>
        <time>2022-05-22 00:02:24</time>
      </trkpt>
      <trkpt lat="42.19828" lon="2.30622">
        <ele>973.4</ele>
        <time>2022-05-22 00:02:25</time>
      </trkpt>
      <trkpt lat="42.19832" lon="2.30613">
        <ele>973.2</ele>
        <time>2022-05-22 00:02:26</time>
      </trkpt>
      <trkpt lat="42.19837" lon="2.30604">
        <ele>973.2</ele>
        <time>2022-05-22 00:02:27</time>
      </trkpt>
      <trkpt lat="42.19842" lon="2.30596">
        <ele>973</ele>
        <time>2022-05-22 00:02:28</time>
      </trkpt>
      <trkpt lat="42.19847" lon="2.30587">
        <ele>972.8</ele>
        <time>2022-05-22 00:02:29</time>
      </trkpt>
      <trkpt lat="42.19851" lon="2.30579">
        <ele>972.8</ele>
        <time>2022-05-22 00:02:30</time>
      </trkpt>
      <trkpt lat="42.19855" lon="2.3057">
        <ele>972.6</ele>
        <time>2022-05-22 00:02:31</time>
      </trkpt>
      <trkpt lat="42.19859" lon="2.30561">
        <ele>972.6</ele>
        <time>2022-05-22 00:02:32</time>
      </trkpt>
      <trkpt lat="42.19862" lon="2.30552">
        <ele>972.4</ele>
        <time>2022-05-22 00:02:33</time>
      </trkpt>
      <trkpt lat="42.19865" lon="2.30542">
        <ele>972.2</ele>
        <time>2022-05-22 00:02:34</time>
      </trkpt>
      <trkpt lat="42.19866" lon="2.30532">
        <ele>971.8</ele>
        <time>2022-05-22 00:02:35</time>
      </trkpt>
      <trkpt lat="42.19866" lon="2.30521">
        <ele>971.6</ele>
        <time>2022-05-22 00:02:36</time>
      </trkpt>
      <trkpt lat="42.19865" lon="2.3051">
        <ele>971.2</ele>
        <time>2022-05-22 00:02:37</time>
      </trkpt>
      <trkpt lat="42.19864" lon="2.30499">
        <ele>971</ele>
        <time>2022-05-22 00:02:38</time>
      </trkpt>
      <trkpt lat="42.19863" lon="2.30488">
        <ele>970.6</ele>
        <time>2022-05-22 00:02:39</time>
      </trkpt>
      <trkpt lat="42.19861" lon="2.30476">
        <ele>970.2</ele>
        <time>2022-05-22 00:02:40</time>
      </trkpt>
      <trkpt lat="42.19858" lon="2.30465">
        <ele>969.8</ele>
        <time>2022-05-22 00:02:41</time>
      </trkpt>
      <trkpt lat="42.19855" lon="2.30455">
        <ele>969.4</ele>
        <time>2022-05-22 00:02:42</time>
      </trkpt>
      <trkpt lat="42.19852" lon="2.30445">
        <ele>969</ele>
        <time>2022-05-22 00:02:43</time>
      </trkpt>
      <trkpt lat="42.19847" lon="2.30434">
        <ele>968.8</ele>
        <time>2022-05-22 00:02:44</time>
      </trkpt>
      <trkpt lat="42.19842" lon="2.30424">
        <ele>968.4</ele>
        <time>2022-05-22 00:02:45</time>
      </trkpt>
      <trkpt lat="42.19837" lon="2.30415">
        <ele>968</ele>
        <time>2022-05-22 00:02:46</time>
      </trkpt>
      <trkpt lat="42.19833" lon="2.30405">
        <ele>967.6</ele>
        <time>2022-05-22 00:02:47</time>
      </trkpt>
      <trkpt lat="42.19829" lon="2.30396">
        <ele>967.2</ele>
        <time>2022-05-22 00:02:48</time>
      </trkpt>
      <trkpt lat="42.19825" lon="2.30387">
        <ele>966.8</ele>
        <time>2022-05-22 00:02:49</time>
      </trkpt>
      <trkpt lat="42.19821" lon="2.30374">
        <ele>966.2</ele>
        <time>2022-05-22 00:02:50</time>
      </trkpt>
      <trkpt lat="42.19818" lon="2.30363">
        <ele>965.8</ele>
        <time>2022-05-22 00:02:51</time>
      </trkpt>
      <trkpt lat="42.19815" lon="2.30351">
        <ele>965.2</ele>
        <time>2022-05-22 00:02:52</time>
      </trkpt>
      <trkpt lat="42.19813" lon="2.3034">
        <ele>964.8</ele>
        <time>2022-05-22 00:02:53</time>
      </trkpt>
      <trkpt lat="42.19811" lon="2.3033">
        <ele>964.2</ele>
        <time>2022-05-22 00:02:54</time>
      </trkpt>
      <trkpt lat="42.1981" lon="2.30319">
        <ele>963.8</ele>
        <time>2022-05-22 00:02:55</time>
      </trkpt>
      <trkpt lat="42.1981" lon="2.30308">
        <ele>963.2</ele>
        <time>2022-05-22 00:02:56</time>
      </trkpt>
      <trkpt lat="42.19812" lon="2.30297">
        <ele>962.8</ele>
        <time>2022-05-22 00:02:57</time>
      </trkpt>
      <trkpt lat="42.19815" lon="2.30286">
        <ele>962.4</ele>
        <time>2022-05-22 00:02:58</time>
      </trkpt>
      <trkpt lat="42.19819" lon="2.30275">
        <ele>961.8</ele>
        <time>2022-05-22 00:02:59</time>
      </trkpt>
      <trkpt lat="42.19823" lon="2.30265">
        <ele>961.4</ele>
        <time>2022-05-22 00:03:00</time>
      </trkpt>
      <trkpt lat="42.19826" lon="2.30253">
        <ele>961</ele>
        <time>2022-05-22 00:03:01</time>
      </trkpt>
      <trkpt lat="42.19827" lon="2.30241">
        <ele>960.6</ele>
        <time>2022-05-22 00:03:02</time>
      </trkpt>
      <trkpt lat="42.19827" lon="2.30229">
        <ele>960.4</ele>
        <time>2022-05-22 00:03:03</time>
      </trkpt>
      <trkpt lat="42.19826" lon="2.30217">
        <ele>960.2</ele>
        <time>2022-05-22 00:03:04</time>
      </trkpt>
      <trkpt lat="42.19824" lon="2.30206">
        <ele>960</ele>
        <time>2022-05-22 00:03:05</time>
      </trkpt>
      <trkpt lat="42.19822" lon="2.30195">
        <ele>960</ele>
        <time>2022-05-22 00:03:06</time>
      </trkpt>
      <trkpt lat="42.1982" lon="2.30185">
        <ele>960</ele>
        <time>2022-05-22 00:03:07</time>
      </trkpt>
      <trkpt lat="42.19818" lon="2.30175">
        <ele>960</ele>
        <time>2022-05-22 00:03:08</time>
      </trkpt>
      <trkpt lat="42.19817" lon="2.30165">
        <ele>960</ele>
        <time>2022-05-22 00:03:09</time>
      </trkpt>
      <trkpt lat="42.19815" lon="2.30156">
        <ele>960</ele>
        <time>2022-05-22 00:03:10</time>
      </trkpt>
      <trkpt lat="42.19813" lon="2.30146">
        <ele>960</ele>
        <time>2022-05-22 00:03:11</time>
      </trkpt>
      <trkpt lat="42.19811" lon="2.30137">
        <ele>960</ele>
        <time>2022-05-22 00:03:12</time>
      </trkpt>
      <trkpt lat="42.19809" lon="2.30128">
        <ele>960</ele>
        <time>2022-05-22 00:03:13</time>
      </trkpt>
      <trkpt lat="42.19806" lon="2.3012">
        <ele>960</ele>
        <time>2022-05-22 00:03:14</time>
      </trkpt>
      <trkpt lat="42.19803" lon="2.30112">
        <ele>960.2</ele>
        <time>2022-05-22 00:03:15</time>
      </trkpt>
      <trkpt lat="42.198" lon="2.30104">
        <ele>960.2</ele>
        <time>2022-05-22 00:03:16</time>
      </trkpt>
      <trkpt lat="42.19796" lon="2.30096">
        <ele>960.2</ele>
        <time>2022-05-22 00:03:17</time>
      </trkpt>
      <trkpt lat="42.19794" lon="2.30089">
        <ele>960.2</ele>
        <time>2022-05-22 00:03:18</time>
      </trkpt>
      <trkpt lat="42.19791" lon="2.30082">
        <ele>960.2</ele>
        <time>2022-05-22 00:03:19</time>
      </trkpt>
      <trkpt lat="42.19788" lon="2.30075">
        <ele>960.4</ele>
        <time>2022-05-22 00:03:20</time>
      </trkpt>
      <trkpt lat="42.19785" lon="2.30068">
        <ele>960.4</ele>
        <time>2022-05-22 00:03:21</time>
      </trkpt>
      <trkpt lat="42.19782" lon="2.30061">
        <ele>960.4</ele>
        <time>2022-05-22 00:03:22</time>
      </trkpt>
      <trkpt lat="42.19779" lon="2.30055">
        <ele>960.6</ele>
        <time>2022-05-22 00:03:23</time>
      </trkpt>
      <trkpt lat="42.19776" lon="2.3005">
        <ele>960.6</ele>
        <time>2022-05-22 00:03:24</time>
      </trkpt>
      <trkpt lat="42.19773" lon="2.30044">
        <ele>960.8</ele>
        <time>2022-05-22 00:03:25</time>
      </trkpt>
      <trkpt lat="42.1977" lon="2.30038">
        <ele>960.8</ele>
        <time>2022-05-22 00:03:26</time>
      </trkpt>
      <trkpt lat="42.19767" lon="2.30032">
        <ele>960.8</ele>
        <time>2022-05-22 00:03:27</time>
      </trkpt>
      <trkpt lat="42.19764" lon="2.30026">
        <ele>961</ele>
        <time>2022-05-22 00:03:28</time>
      </trkpt>
      <trkpt lat="42.19761" lon="2.30021">
        <ele>961</ele>
        <time>2022-05-22 00:03:29</time>
      </trkpt>
      <trkpt lat="42.19758" lon="2.30015">
        <ele>961</ele>
        <time>2022-05-22 00:03:30</time>
      </trkpt>
      <trkpt lat="42.19755" lon="2.3001">
        <ele>961</ele>
        <time>2022-05-22 00:03:31</time>
      </trkpt>
      <trkpt lat="42.19752" lon="2.30004">
        <ele>961.2</ele>
        <time>2022-05-22 00:03:32</time>
      </trkpt>
      <trkpt lat="42.19749" lon="2.29999">
        <ele>961.2</ele>
        <time>2022-05-22 00:03:33</time>
      </trkpt>
      <trkpt lat="42.19746" lon="2.29994">
        <ele>961.2</ele>
        <time>2022-05-22 00:03:34</time>
      </trkpt>
      <trkpt lat="42.19744" lon="2.29989">
        <ele>961.4</ele>
        <time>2022-05-22 00:03:35</time>
      </trkpt>
      <trkpt lat="42.19742" lon="2.29984">
        <ele>961.4</ele>
        <time>2022-05-22 00:03:36</time>
      </trkpt>
      <trkpt lat="42.19739" lon="2.29979">
        <ele>961.4</ele>
        <time>2022-05-22 00:03:37</time>
      </trkpt>
      <trkpt lat="42.19737" lon="2.29974">
        <ele>961.6</ele>
        <time>2022-05-22 00:03:38</time>
      </trkpt>
      <trkpt lat="42.19734" lon="2.2997">
        <ele>961.6</ele>
        <time>2022-05-22 00:03:39</time>
      </trkpt>
      <trkpt lat="42.19732" lon="2.29965">
        <ele>961.8</ele>
        <time>2022-05-22 00:03:40</time>
      </trkpt>
      <trkpt lat="42.1973" lon="2.29961">
        <ele>961.8</ele>
        <time>2022-05-22 00:03:41</time>
      </trkpt>
      <trkpt lat="42.19728" lon="2.29957">
        <ele>962</ele>
        <time>2022-05-22 00:03:42</time>
      </trkpt>
      <trkpt lat="42.19725" lon="2.29953">
        <ele>962.2</ele>
        <time>2022-05-22 00:03:43</time>
      </trkpt>
      <trkpt lat="42.19723" lon="2.2995">
        <ele>962.4</ele>
        <time>2022-05-22 00:03:44</time>
      </trkpt>
      <trkpt lat="42.19722" lon="2.29947">
        <ele>962.4</ele>
        <time>2022-05-22 00:03:45</time>
      </trkpt>
      <trkpt lat="42.1972" lon="2.29943">
        <ele>962.6</ele>
        <time>2022-05-22 00:03:46</time>
      </trkpt>
      <trkpt lat="42.19719" lon="2.2994">
        <ele>962.8</ele>
        <time>2022-05-22 00:03:47</time>
      </trkpt>
      <trkpt lat="42.19717" lon="2.29937">
        <ele>963</ele>
        <time>2022-05-22 00:03:48</time>
      </trkpt>
      <trkpt lat="42.19716" lon="2.29934">
        <ele>963.2</ele>
        <time>2022-05-22 00:03:49</time>
      </trkpt>
      <trkpt lat="42.19716" lon="2.2993">
        <ele>963.2</ele>
        <time>2022-05-22 00:03:50</time>
      </trkpt>
      <trkpt lat="42.19715" lon="2.29927">
        <ele>963.4</ele>
        <time>2022-05-22 00:03:51</time>
      </trkpt>
      <trkpt lat="42.19714" lon="2.29924">
        <ele>963.6</ele>
        <time>2022-05-22 00:03:52</time>
      </trkpt>
      <trkpt lat="42.19713" lon="2.2992">
        <ele>963.8</ele>
        <time>2022-05-22 00:03:53</time>
      </trkpt>
      <trkpt lat="42.19712" lon="2.29918">
        <ele>963.8</ele>
        <time>2022-05-22 00:03:54</time>
      </trkpt>
      <trkpt lat="42.19711" lon="2.29915">
        <ele>964</ele>
        <time>2022-05-22 00:03:55</time>
      </trkpt>
      <trkpt lat="42.19711" lon="2.29912">
        <ele>964.2</ele>
        <time>2022-05-22 00:03:56</time>
      </trkpt>
      <trkpt lat="42.1971" lon="2.2991">
        <ele>964.2</ele>
        <time>2022-05-22 00:03:57</time>
      </trkpt>
      <trkpt lat="42.19709" lon="2.29907">
        <ele>964.4</ele>
        <time>2022-05-22 00:03:58</time>
      </trkpt>
      <trkpt lat="42.19709" lon="2.29904">
        <ele>964.4</ele>
        <time>2022-05-22 00:03:59</time>
      </trkpt>
      <trkpt lat="42.19708" lon="2.29901">
        <ele>964.6</ele>
        <time>2022-05-22 00:04:00</time>
      </trkpt>
      <trkpt lat="42.19707" lon="2.29897">
        <ele>964.6</ele>
        <time>2022-05-22 00:04:01</time>
      </trkpt>
      <trkpt lat="42.19706" lon="2.29894">
        <ele>964.8</ele>
        <time>2022-05-22 00:04:02</time>
      </trkpt>
      <trkpt lat="42.19705" lon="2.29891">
        <ele>965</ele>
        <time>2022-05-22 00:04:03</time>
      </trkpt>
      <trkpt lat="42.19704" lon="2.29887">
        <ele>965</ele>
        <time>2022-05-22 00:04:04</time>
      </trkpt>
      <trkpt lat="42.19704" lon="2.29883">
        <ele>965.2</ele>
        <time>2022-05-22 00:04:05</time>
      </trkpt>
      <trkpt lat="42.19703" lon="2.29879">
        <ele>965.2</ele>
        <time>2022-05-22 00:04:06</time>
      </trkpt>
      <trkpt lat="42.19702" lon="2.29875">
        <ele>965.2</ele>
        <time>2022-05-22 00:04:07</time>
      </trkpt>
      <trkpt lat="42.19702" lon="2.29871">
        <ele>965.4</ele>
        <time>2022-05-22 00:04:08</time>
      </trkpt>
      <trkpt lat="42.19702" lon="2.29867">
        <ele>965.4</ele>
        <time>2022-05-22 00:04:09</time>
      </trkpt>
      <trkpt lat="42.19702" lon="2.29863">
        <ele>965.6</ele>
        <time>2022-05-22 00:04:10</time>
      </trkpt>
      <trkpt lat="42.19703" lon="2.29859">
        <ele>965.6</ele>
        <time>2022-05-22 00:04:11</time>
      </trkpt>
      <trkpt lat="42.19703" lon="2.29854">
        <ele>965.6</ele>
        <time>2022-05-22 00:04:12</time>
      </trkpt>
      <trkpt lat="42.19704" lon="2.2985">
        <ele>965.6</ele>
        <time>2022-05-22 00:04:13</time>
      </trkpt>
      <trkpt lat="42.19705" lon="2.29845">
        <ele>965.8</ele>
        <time>2022-05-22 00:04:14</time>
      </trkpt>
      <trkpt lat="42.19705" lon="2.29841">
        <ele>965.8</ele>
        <time>2022-05-22 00:04:15</time>
      </trkpt>
      <trkpt lat="42.19706" lon="2.29837">
        <ele>965.8</ele>
        <time>2022-05-22 00:04:16</time>
      </trkpt>
      <trkpt lat="42.19706" lon="2.29833">
        <ele>966</ele>
        <time>2022-05-22 00:04:17</time>
      </trkpt>
      <trkpt lat="42.19707" lon="2.29829">
        <ele>966</ele>
        <time>2022-05-22 00:04:18</time>
      </trkpt>
      <trkpt lat="42.19707" lon="2.29825">
        <ele>966</ele>
        <time>2022-05-22 00:04:19</time>
      </trkpt>
      <trkpt lat="42.19707" lon="2.29821">
        <ele>966.2</ele>
        <time>2022-05-22 00:04:20</time>
      </trkpt>
      <trkpt lat="42.19707" lon="2.29817">
        <ele>966.2</ele>
        <time>2022-05-22 00:04:21</time>
      </trkpt>
      <trkpt lat="42.19707" lon="2.29813">
        <ele>966.2</ele>
        <time>2022-05-22 00:04:22</time>
      </trkpt>
      <trkpt lat="42.19707" lon="2.29809">
        <ele>966.4</ele>
        <time>2022-05-22 00:04:23</time>
      </trkpt>
      <trkpt lat="42.19706" lon="2.29805">
        <ele>966.4</ele>
        <time>2022-05-22 00:04:24</time>
      </trkpt>
      <trkpt lat="42.19706" lon="2.29801">
        <ele>966.6</ele>
        <time>2022-05-22 00:04:25</time>
      </trkpt>
      <trkpt lat="42.19705" lon="2.29796">
        <ele>966.6</ele>
        <time>2022-05-22 00:04:26</time>
      </trkpt>
      <trkpt lat="42.19704" lon="2.29792">
        <ele>966.8</ele>
        <time>2022-05-22 00:04:27</time>
      </trkpt>
      <trkpt lat="42.19704" lon="2.29788">
        <ele>966.8</ele>
        <time>2022-05-22 00:04:28</time>
      </trkpt>
      <trkpt lat="42.19703" lon="2.29784">
        <ele>967</ele>
        <time>2022-05-22 00:04:29</time>
      </trkpt>
      <trkpt lat="42.19702" lon="2.29779">
        <ele>967</ele>
        <time>2022-05-22 00:04:30</time>
      </trkpt>
      <trkpt lat="42.197" lon="2.29775">
        <ele>967.2</ele>
        <time>2022-05-22 00:04:31</time>
      </trkpt>
      <trkpt lat="42.19699" lon="2.29771">
        <ele>967.2</ele>
        <time>2022-05-22 00:04:32</time>
      </trkpt>
      <trkpt lat="42.19698" lon="2.29767">
        <ele>967.4</ele>
        <time>2022-05-22 00:04:33</time>
      </trkpt>
      <trkpt lat="42.19698" lon="2.29762">
        <ele>967.6</ele>
        <time>2022-05-22 00:04:34</time>
      </trkpt>
      <trkpt lat="42.19697" lon="2.29758">
        <ele>967.8</ele>
        <time>2022-05-22 00:04:35</time>
      </trkpt>
      <trkpt lat="42.19696" lon="2.29755">
        <ele>967.8</ele>
        <time>2022-05-22 00:04:36</time>
      </trkpt>
      <trkpt lat="42.19695" lon="2.29751">
        <ele>968</ele>
        <time>2022-05-22 00:04:37</time>
      </trkpt>
      <trkpt lat="42.19695" lon="2.29746">
        <ele>968.2</ele>
        <time>2022-05-22 00:04:38</time>
      </trkpt>
      <trkpt lat="42.19695" lon="2.29742">
        <ele>968.4</ele>
        <time>2022-05-22 00:04:39</time>
      </trkpt>
      <trkpt lat="42.19695" lon="2.29738">
        <ele>968.6</ele>
        <time>2022-05-22 00:04:40</time>
      </trkpt>
      <trkpt lat="42.19695" lon="2.29734">
        <ele>968.8</ele>
        <time>2022-05-22 00:04:41</time>
      </trkpt>
      <trkpt lat="42.19695" lon="2.2973">
        <ele>969</ele>
        <time>2022-05-22 00:04:42</time>
      </trkpt>
      <trkpt lat="42.19695" lon="2.29726">
        <ele>969.2</ele>
        <time>2022-05-22 00:04:43</time>
      </trkpt>
      <trkpt lat="42.19695" lon="2.29723">
        <ele>969.4</ele>
        <time>2022-05-22 00:04:44</time>
      </trkpt>
      <trkpt lat="42.19696" lon="2.2972">
        <ele>969.6</ele>
        <time>2022-05-22 00:04:45</time>
      </trkpt>
      <trkpt lat="42.19697" lon="2.29716">
        <ele>969.8</ele>
        <time>2022-05-22 00:04:46</time>
      </trkpt>
      <trkpt lat="42.19698" lon="2.29713">
        <ele>970</ele>
        <time>2022-05-22 00:04:47</time>
      </trkpt>
      <trkpt lat="42.19699" lon="2.2971">
        <ele>970.2</ele>
        <time>2022-05-22 00:04:48</time>
      </trkpt>
      <trkpt lat="42.197" lon="2.29707">
        <ele>970.4</ele>
        <time>2022-05-22 00:04:49</time>
      </trkpt>
      <trkpt lat="42.19702" lon="2.29703">
        <ele>970.6</ele>
        <time>2022-05-22 00:04:50</time>
      </trkpt>
      <trkpt lat="42.19704" lon="2.297">
        <ele>970.8</ele>
        <time>2022-05-22 00:04:51</time>
      </trkpt>
      <trkpt lat="42.19706" lon="2.29697">
        <ele>970.8</ele>
        <time>2022-05-22 00:04:52</time>
      </trkpt>
      <trkpt lat="42.19707" lon="2.29694">
        <ele>971</ele>
        <time>2022-05-22 00:04:53</time>
      </trkpt>
      <trkpt lat="42.19709" lon="2.29691">
        <ele>971.2</ele>
        <time>2022-05-22 00:04:54</time>
      </trkpt>
      <trkpt lat="42.19711" lon="2.29688">
        <ele>971.4</ele>
        <time>2022-05-22 00:04:55</time>
      </trkpt>
      <trkpt lat="42.19713" lon="2.29685">
        <ele>971.6</ele>
        <time>2022-05-22 00:04:56</time>
      </trkpt>
      <trkpt lat="42.19715" lon="2.29682">
        <ele>971.6</ele>
        <time>2022-05-22 00:04:57</time>
      </trkpt>
      <trkpt lat="42.19716" lon="2.29679">
        <ele>971.8</ele>
        <time>2022-05-22 00:04:58</time>
      </trkpt>
      <trkpt lat="42.19718" lon="2.29675">
        <ele>971.8</ele>
        <time>2022-05-22 00:04:59</time>
      </trkpt>
      <trkpt lat="42.19719" lon="2.29672">
        <ele>972</ele>
        <time>2022-05-22 00:05:00</time>
      </trkpt>
      <trkpt lat="42.19721" lon="2.29669">
        <ele>972</ele>
        <time>2022-05-22 00:05:01</time>
      </trkpt>
      <trkpt lat="42.19723" lon="2.29665">
        <ele>972.2</ele>
        <time>2022-05-22 00:05:02</time>
      </trkpt>
      <trkpt lat="42.19726" lon="2.29662">
        <ele>972.2</ele>
        <time>2022-05-22 00:05:03</time>
      </trkpt>
      <trkpt lat="42.19728" lon="2.29658">
        <ele>972.2</ele>
        <time>2022-05-22 00:05:04</time>
      </trkpt>
      <trkpt lat="42.1973" lon="2.29655">
        <ele>972.2</ele>
        <time>2022-05-22 00:05:05</time>
      </trkpt>
      <trkpt lat="42.19733" lon="2.29651">
        <ele>972.4</ele>
        <time>2022-05-22 00:05:06</time>
      </trkpt>
      <trkpt lat="42.19735" lon="2.29648">
        <ele>972.4</ele>
        <time>2022-05-22 00:05:07</time>
      </trkpt>
      <trkpt lat="42.19738" lon="2.29644">
        <ele>972.4</ele>
        <time>2022-05-22 00:05:08</time>
      </trkpt>
      <trkpt lat="42.1974" lon="2.29641">
        <ele>972.4</ele>
        <time>2022-05-22 00:05:09</time>
      </trkpt>
      <trkpt lat="42.19743" lon="2.29637">
        <ele>972.4</ele>
        <time>2022-05-22 00:05:10</time>
      </trkpt>
      <trkpt lat="42.19746" lon="2.29634">
        <ele>972.6</ele>
        <time>2022-05-22 00:05:11</time>
      </trkpt>
      <trkpt lat="42.19749" lon="2.29631">
        <ele>972.6</ele>
        <time>2022-05-22 00:05:12</time>
      </trkpt>
      <trkpt lat="42.19752" lon="2.29628">
        <ele>972.6</ele>
        <time>2022-05-22 00:05:13</time>
      </trkpt>
      <trkpt lat="42.19756" lon="2.29624">
        <ele>972.6</ele>
        <time>2022-05-22 00:05:14</time>
      </trkpt>
      <trkpt lat="42.19759" lon="2.29621">
        <ele>972.6</ele>
        <time>2022-05-22 00:05:15</time>
      </trkpt>
      <trkpt lat="42.19762" lon="2.29618">
        <ele>972.6</ele>
        <time>2022-05-22 00:05:16</time>
      </trkpt>
      <trkpt lat="42.19766" lon="2.29614">
        <ele>972.6</ele>
        <time>2022-05-22 00:05:17</time>
      </trkpt>
      <trkpt lat="42.1977" lon="2.29611">
        <ele>972.4</ele>
        <time>2022-05-22 00:05:18</time>
      </trkpt>
      <trkpt lat="42.19773" lon="2.29607">
        <ele>972.4</ele>
        <time>2022-05-22 00:05:19</time>
      </trkpt>
      <trkpt lat="42.19777" lon="2.29603">
        <ele>972.2</ele>
        <time>2022-05-22 00:05:20</time>
      </trkpt>
      <trkpt lat="42.19781" lon="2.29599">
        <ele>972</ele>
        <time>2022-05-22 00:05:21</time>
      </trkpt>
      <trkpt lat="42.19785" lon="2.29594">
        <ele>972</ele>
        <time>2022-05-22 00:05:22</time>
      </trkpt>
      <trkpt lat="42.19789" lon="2.29589">
        <ele>971.8</ele>
        <time>2022-05-22 00:05:23</time>
      </trkpt>
      <trkpt lat="42.19793" lon="2.29584">
        <ele>971.4</ele>
        <time>2022-05-22 00:05:24</time>
      </trkpt>
      <trkpt lat="42.19797" lon="2.29579">
        <ele>971.2</ele>
        <time>2022-05-22 00:05:25</time>
      </trkpt>
      <trkpt lat="42.19801" lon="2.29573">
        <ele>971</ele>
        <time>2022-05-22 00:05:26</time>
      </trkpt>
      <trkpt lat="42.19805" lon="2.29566">
        <ele>970.6</ele>
        <time>2022-05-22 00:05:27</time>
      </trkpt>
      <trkpt lat="42.19809" lon="2.29558">
        <ele>970.4</ele>
        <time>2022-05-22 00:05:28</time>
      </trkpt>
      <trkpt lat="42.19812" lon="2.2955">
        <ele>970</ele>
        <time>2022-05-22 00:05:29</time>
      </trkpt>
      <trkpt lat="42.19815" lon="2.29543">
        <ele>969.8</ele>
        <time>2022-05-22 00:05:30</time>
      </trkpt>
      <trkpt lat="42.19817" lon="2.29534">
        <ele>969.4</ele>
        <time>2022-05-22 00:05:31</time>
      </trkpt>
      <trkpt lat="42.19819" lon="2.29526">
        <ele>969</ele>
        <time>2022-05-22 00:05:32</time>
      </trkpt>
      <trkpt lat="42.1982" lon="2.29518">
        <ele>968.8</ele>
        <time>2022-05-22 00:05:33</time>
      </trkpt>
      <trkpt lat="42.19821" lon="2.29508">
        <ele>968.4</ele>
        <time>2022-05-22 00:05:34</time>
      </trkpt>
      <trkpt lat="42.19821" lon="2.29499">
        <ele>968</ele>
        <time>2022-05-22 00:05:35</time>
      </trkpt>
      <trkpt lat="42.19821" lon="2.29488">
        <ele>967.6</ele>
        <time>2022-05-22 00:05:36</time>
      </trkpt>
      <trkpt lat="42.19821" lon="2.29478">
        <ele>967.4</ele>
        <time>2022-05-22 00:05:37</time>
      </trkpt>
      <trkpt lat="42.1982" lon="2.29468">
        <ele>967</ele>
        <time>2022-05-22 00:05:38</time>
      </trkpt>
      <trkpt lat="42.1982" lon="2.29458">
        <ele>966.8</ele>
        <time>2022-05-22 00:05:39</time>
      </trkpt>
      <trkpt lat="42.1982" lon="2.29448">
        <ele>966.6</ele>
        <time>2022-05-22 00:05:40</time>
      </trkpt>
      <trkpt lat="42.1982" lon="2.29437">
        <ele>966.4</ele>
        <time>2022-05-22 00:05:41</time>
      </trkpt>
      <trkpt lat="42.1982" lon="2.29427">
        <ele>966.2</ele>
        <time>2022-05-22 00:05:42</time>
      </trkpt>
      <trkpt lat="42.1982" lon="2.29417">
        <ele>966</ele>
        <time>2022-05-22 00:05:43</time>
      </trkpt>
      <trkpt lat="42.1982" lon="2.29407">
        <ele>965.8</ele>
        <time>2022-05-22 00:05:44</time>
      </trkpt>
      <trkpt lat="42.19819" lon="2.29397">
        <ele>965.6</ele>
        <time>2022-05-22 00:05:45</time>
      </trkpt>
      <trkpt lat="42.19819" lon="2.29387">
        <ele>965.6</ele>
        <time>2022-05-22 00:05:46</time>
      </trkpt>
      <trkpt lat="42.19819" lon="2.29376">
        <ele>965.4</ele>
        <time>2022-05-22 00:05:47</time>
      </trkpt>
      <trkpt lat="42.19818" lon="2.29367">
        <ele>965.2</ele>
        <time>2022-05-22 00:05:48</time>
      </trkpt>
      <trkpt lat="42.19816" lon="2.29358">
        <ele>965.2</ele>
        <time>2022-05-22 00:05:49</time>
      </trkpt>
      <trkpt lat="42.19814" lon="2.29349">
        <ele>965</ele>
        <time>2022-05-22 00:05:50</time>
      </trkpt>
      <trkpt lat="42.19813" lon="2.2934">
        <ele>964.8</ele>
        <time>2022-05-22 00:05:51</time>
      </trkpt>
      <trkpt lat="42.19812" lon="2.29331">
        <ele>964.8</ele>
        <time>2022-05-22 00:05:52</time>
      </trkpt>
      <trkpt lat="42.1981" lon="2.29322">
        <ele>964.6</ele>
        <time>2022-05-22 00:05:53</time>
      </trkpt>
      <trkpt lat="42.19809" lon="2.29313">
        <ele>964.6</ele>
        <time>2022-05-22 00:05:54</time>
      </trkpt>
      <trkpt lat="42.19809" lon="2.29303">
        <ele>964.4</ele>
        <time>2022-05-22 00:05:55</time>
      </trkpt>
      <trkpt lat="42.19809" lon="2.29294">
        <ele>964.2</ele>
        <time>2022-05-22 00:05:56</time>
      </trkpt>
      <trkpt lat="42.19809" lon="2.29284">
        <ele>964</ele>
        <time>2022-05-22 00:05:57</time>
      </trkpt>
      <trkpt lat="42.19809" lon="2.29274">
        <ele>964</ele>
        <time>2022-05-22 00:05:58</time>
      </trkpt>
      <trkpt lat="42.19809" lon="2.29264">
        <ele>963.6</ele>
        <time>2022-05-22 00:05:59</time>
      </trkpt>
      <trkpt lat="42.19809" lon="2.29254">
        <ele>963.4</ele>
        <time>2022-05-22 00:06:00</time>
      </trkpt>
      <trkpt lat="42.1981" lon="2.29243">
        <ele>963</ele>
        <time>2022-05-22 00:06:01</time>
      </trkpt>
      <trkpt lat="42.19812" lon="2.29233">
        <ele>962.8</ele>
        <time>2022-05-22 00:06:02</time>
      </trkpt>
      <trkpt lat="42.19814" lon="2.29223">
        <ele>962.4</ele>
        <time>2022-05-22 00:06:03</time>
      </trkpt>
      <trkpt lat="42.19817" lon="2.29213">
        <ele>962</ele>
        <time>2022-05-22 00:06:04</time>
      </trkpt>
      <trkpt lat="42.1982" lon="2.29202">
        <ele>961.6</ele>
        <time>2022-05-22 00:06:05</time>
      </trkpt>
      <trkpt lat="42.19822" lon="2.29192">
        <ele>961.2</ele>
        <time>2022-05-22 00:06:06</time>
      </trkpt>
      <trkpt lat="42.19825" lon="2.29182">
        <ele>961</ele>
        <time>2022-05-22 00:06:07</time>
      </trkpt>
      <trkpt lat="42.19827" lon="2.29171">
        <ele>960.6</ele>
        <time>2022-05-22 00:06:08</time>
      </trkpt>
      <trkpt lat="42.19829" lon="2.29162">
        <ele>960.2</ele>
        <time>2022-05-22 00:06:09</time>
      </trkpt>
      <trkpt lat="42.19832" lon="2.29152">
        <ele>959.8</ele>
        <time>2022-05-22 00:06:10</time>
      </trkpt>
      <trkpt lat="42.19835" lon="2.29142">
        <ele>959.6</ele>
        <time>2022-05-22 00:06:11</time>
      </trkpt>
      <trkpt lat="42.19839" lon="2.29132">
        <ele>959.2</ele>
        <time>2022-05-22 00:06:12</time>
      </trkpt>
      <trkpt lat="42.19843" lon="2.29123">
        <ele>958.8</ele>
        <time>2022-05-22 00:06:13</time>
      </trkpt>
      <trkpt lat="42.19847" lon="2.29114">
        <ele>958.4</ele>
        <time>2022-05-22 00:06:14</time>
      </trkpt>
      <trkpt lat="42.19851" lon="2.29103">
        <ele>958</ele>
        <time>2022-05-22 00:06:15</time>
      </trkpt>
      <trkpt lat="42.19855" lon="2.29094">
        <ele>957.6</ele>
        <time>2022-05-22 00:06:16</time>
      </trkpt>
      <trkpt lat="42.1986" lon="2.29084">
        <ele>957.2</ele>
        <time>2022-05-22 00:06:17</time>
      </trkpt>
      <trkpt lat="42.19865" lon="2.29074">
        <ele>956.8</ele>
        <time>2022-05-22 00:06:18</time>
      </trkpt>
      <trkpt lat="42.1987" lon="2.29064">
        <ele>956.4</ele>
        <time>2022-05-22 00:06:19</time>
      </trkpt>
      <trkpt lat="42.19875" lon="2.29054">
        <ele>956</ele>
        <time>2022-05-22 00:06:20</time>
      </trkpt>
      <trkpt lat="42.19879" lon="2.29044">
        <ele>955.6</ele>
        <time>2022-05-22 00:06:21</time>
      </trkpt>
      <trkpt lat="42.19884" lon="2.29035">
        <ele>955.2</ele>
        <time>2022-05-22 00:06:22</time>
      </trkpt>
      <trkpt lat="42.19888" lon="2.29025">
        <ele>954.8</ele>
        <time>2022-05-22 00:06:23</time>
      </trkpt>
      <trkpt lat="42.19893" lon="2.29016">
        <ele>954.4</ele>
        <time>2022-05-22 00:06:24</time>
      </trkpt>
      <trkpt lat="42.19897" lon="2.29006">
        <ele>954</ele>
        <time>2022-05-22 00:06:25</time>
      </trkpt>
      <trkpt lat="42.19902" lon="2.28996">
        <ele>953.6</ele>
        <time>2022-05-22 00:06:26</time>
      </trkpt>
      <trkpt lat="42.19905" lon="2.28986">
        <ele>953.2</ele>
        <time>2022-05-22 00:06:27</time>
      </trkpt>
      <trkpt lat="42.19909" lon="2.28976">
        <ele>952.8</ele>
        <time>2022-05-22 00:06:28</time>
      </trkpt>
      <trkpt lat="42.19911" lon="2.28965">
        <ele>952.4</ele>
        <time>2022-05-22 00:06:29</time>
      </trkpt>
      <trkpt lat="42.19913" lon="2.28954">
        <ele>952</ele>
        <time>2022-05-22 00:06:30</time>
      </trkpt>
      <trkpt lat="42.19914" lon="2.28943">
        <ele>951.6</ele>
        <time>2022-05-22 00:06:31</time>
      </trkpt>
      <trkpt lat="42.19914" lon="2.28932">
        <ele>951.2</ele>
        <time>2022-05-22 00:06:32</time>
      </trkpt>
      <trkpt lat="42.19914" lon="2.28921">
        <ele>950.8</ele>
        <time>2022-05-22 00:06:33</time>
      </trkpt>
      <trkpt lat="42.19912" lon="2.28911">
        <ele>950.4</ele>
        <time>2022-05-22 00:06:34</time>
      </trkpt>
      <trkpt lat="42.1991" lon="2.289">
        <ele>950</ele>
        <time>2022-05-22 00:06:35</time>
      </trkpt>
      <trkpt lat="42.19907" lon="2.2889">
        <ele>949.4</ele>
        <time>2022-05-22 00:06:36</time>
      </trkpt>
      <trkpt lat="42.19904" lon="2.2888">
        <ele>949</ele>
        <time>2022-05-22 00:06:37</time>
      </trkpt>
      <trkpt lat="42.19901" lon="2.2887">
        <ele>948.6</ele>
        <time>2022-05-22 00:06:38</time>
      </trkpt>
      <trkpt lat="42.19897" lon="2.2886">
        <ele>948</ele>
        <time>2022-05-22 00:06:39</time>
      </trkpt>
      <trkpt lat="42.19893" lon="2.28851">
        <ele>947.6</ele>
        <time>2022-05-22 00:06:40</time>
      </trkpt>
      <trkpt lat="42.19889" lon="2.28842">
        <ele>947.2</ele>
        <time>2022-05-22 00:06:41</time>
      </trkpt>
      <trkpt lat="42.19885" lon="2.28832">
        <ele>946.8</ele>
        <time>2022-05-22 00:06:42</time>
      </trkpt>
      <trkpt lat="42.19881" lon="2.28823">
        <ele>946.4</ele>
        <time>2022-05-22 00:06:43</time>
      </trkpt>
      <trkpt lat="42.19877" lon="2.28813">
        <ele>946</ele>
        <time>2022-05-22 00:06:44</time>
      </trkpt>
      <trkpt lat="42.19872" lon="2.28803">
        <ele>945.6</ele>
        <time>2022-05-22 00:06:45</time>
      </trkpt>
      <trkpt lat="42.19868" lon="2.28792">
        <ele>945.2</ele>
        <time>2022-05-22 00:06:46</time>
      </trkpt>
      <trkpt lat="42.19863" lon="2.28781">
        <ele>944.8</ele>
        <time>2022-05-22 00:06:47</time>
      </trkpt>
      <trkpt lat="42.19858" lon="2.28771">
        <ele>944.4</ele>
        <time>2022-05-22 00:06:48</time>
      </trkpt>
      <trkpt lat="42.19853" lon="2.2876">
        <ele>944</ele>
        <time>2022-05-22 00:06:49</time>
      </trkpt>
      <trkpt lat="42.19849" lon="2.2875">
        <ele>943.6</ele>
        <time>2022-05-22 00:06:50</time>
      </trkpt>
      <trkpt lat="42.19845" lon="2.28739">
        <ele>943.4</ele>
        <time>2022-05-22 00:06:51</time>
      </trkpt>
      <trkpt lat="42.19841" lon="2.28728">
        <ele>943</ele>
        <time>2022-05-22 00:06:52</time>
      </trkpt>
      <trkpt lat="42.19837" lon="2.28717">
        <ele>942.4</ele>
        <time>2022-05-22 00:06:53</time>
      </trkpt>
      <trkpt lat="42.19832" lon="2.28706">
        <ele>942</ele>
        <time>2022-05-22 00:06:54</time>
      </trkpt>
      <trkpt lat="42.19827" lon="2.28693">
        <ele>941.6</ele>
        <time>2022-05-22 00:06:55</time>
      </trkpt>
      <trkpt lat="42.19822" lon="2.2868">
        <ele>941.2</ele>
        <time>2022-05-22 00:06:56</time>
      </trkpt>
      <trkpt lat="42.19817" lon="2.28668">
        <ele>941</ele>
        <time>2022-05-22 00:06:57</time>
      </trkpt>
      <trkpt lat="42.19812" lon="2.28657">
        <ele>940.8</ele>
        <time>2022-05-22 00:06:58</time>
      </trkpt>
      <trkpt lat="42.19808" lon="2.28647">
        <ele>940.6</ele>
        <time>2022-05-22 00:06:59</time>
      </trkpt>
      <trkpt lat="42.19804" lon="2.28635">
        <ele>940.4</ele>
        <time>2022-05-22 00:07:00</time>
      </trkpt>
      <trkpt lat="42.198" lon="2.28624">
        <ele>940.2</ele>
        <time>2022-05-22 00:07:01</time>
      </trkpt>
      <trkpt lat="42.19798" lon="2.28613">
        <ele>940.2</ele>
        <time>2022-05-22 00:07:02</time>
      </trkpt>
      <trkpt lat="42.19796" lon="2.28601">
        <ele>940</ele>
        <time>2022-05-22 00:07:03</time>
      </trkpt>
      <trkpt lat="42.19797" lon="2.2859">
        <ele>940</ele>
        <time>2022-05-22 00:07:04</time>
      </trkpt>
      <trkpt lat="42.19799" lon="2.28579">
        <ele>939.8</ele>
        <time>2022-05-22 00:07:05</time>
      </trkpt>
      <trkpt lat="42.19803" lon="2.2857">
        <ele>939.8</ele>
        <time>2022-05-22 00:07:06</time>
      </trkpt>
      <trkpt lat="42.19808" lon="2.28563">
        <ele>939.8</ele>
        <time>2022-05-22 00:07:07</time>
      </trkpt>
      <trkpt lat="42.19814" lon="2.28556">
        <ele>939.6</ele>
        <time>2022-05-22 00:07:08</time>
      </trkpt>
      <trkpt lat="42.19821" lon="2.2855">
        <ele>939.6</ele>
        <time>2022-05-22 00:07:09</time>
      </trkpt>
      <trkpt lat="42.19829" lon="2.28546">
        <ele>939.6</ele>
        <time>2022-05-22 00:07:10</time>
      </trkpt>
      <trkpt lat="42.19836" lon="2.28541">
        <ele>939.6</ele>
        <time>2022-05-22 00:07:11</time>
      </trkpt>
      <trkpt lat="42.19842" lon="2.28536">
        <ele>939.6</ele>
        <time>2022-05-22 00:07:12</time>
      </trkpt>
      <trkpt lat="42.19849" lon="2.28531">
        <ele>939.6</ele>
        <time>2022-05-22 00:07:13</time>
      </trkpt>
      <trkpt lat="42.19855" lon="2.28527">
        <ele>939.6</ele>
        <time>2022-05-22 00:07:14</time>
      </trkpt>
      <trkpt lat="42.19861" lon="2.28523">
        <ele>939.6</ele>
        <time>2022-05-22 00:07:15</time>
      </trkpt>
      <trkpt lat="42.19867" lon="2.28518">
        <ele>939.8</ele>
        <time>2022-05-22 00:07:16</time>
      </trkpt>
      <trkpt lat="42.19873" lon="2.28513">
        <ele>939.8</ele>
        <time>2022-05-22 00:07:17</time>
      </trkpt>
      <trkpt lat="42.19879" lon="2.28509">
        <ele>939.8</ele>
        <time>2022-05-22 00:07:18</time>
      </trkpt>
      <trkpt lat="42.19884" lon="2.28505">
        <ele>939.8</ele>
        <time>2022-05-22 00:07:19</time>
      </trkpt>
      <trkpt lat="42.19889" lon="2.285">
        <ele>939.8</ele>
        <time>2022-05-22 00:07:20</time>
      </trkpt>
      <trkpt lat="42.19893" lon="2.28495">
        <ele>939.8</ele>
        <time>2022-05-22 00:07:21</time>
      </trkpt>
      <trkpt lat="42.19897" lon="2.28488">
        <ele>939.8</ele>
        <time>2022-05-22 00:07:22</time>
      </trkpt>
      <trkpt lat="42.199" lon="2.28482">
        <ele>939.8</ele>
        <time>2022-05-22 00:07:23</time>
      </trkpt>
      <trkpt lat="42.19902" lon="2.28475">
        <ele>939.8</ele>
        <time>2022-05-22 00:07:24</time>
      </trkpt>
      <trkpt lat="42.19904" lon="2.28467">
        <ele>939.8</ele>
        <time>2022-05-22 00:07:25</time>
      </trkpt>
      <trkpt lat="42.19907" lon="2.2846">
        <ele>939.6</ele>
        <time>2022-05-22 00:07:26</time>
      </trkpt>
      <trkpt lat="42.19908" lon="2.28452">
        <ele>939.6</ele>
        <time>2022-05-22 00:07:27</time>
      </trkpt>
      <trkpt lat="42.19909" lon="2.28445">
        <ele>939.6</ele>
        <time>2022-05-22 00:07:28</time>
      </trkpt>
      <trkpt lat="42.19909" lon="2.28437">
        <ele>939.4</ele>
        <time>2022-05-22 00:07:29</time>
      </trkpt>
      <trkpt lat="42.19908" lon="2.28429">
        <ele>939.2</ele>
        <time>2022-05-22 00:07:30</time>
      </trkpt>
      <trkpt lat="42.19905" lon="2.28421">
        <ele>939</ele>
        <time>2022-05-22 00:07:31</time>
      </trkpt>
      <trkpt lat="42.19903" lon="2.28414">
        <ele>938.8</ele>
        <time>2022-05-22 00:07:32</time>
      </trkpt>
      <trkpt lat="42.19899" lon="2.28406">
        <ele>938.4</ele>
        <time>2022-05-22 00:07:33</time>
      </trkpt>
      <trkpt lat="42.19896" lon="2.28396">
        <ele>938</ele>
        <time>2022-05-22 00:07:34</time>
      </trkpt>
      <trkpt lat="42.19892" lon="2.28387">
        <ele>937.6</ele>
        <time>2022-05-22 00:07:35</time>
      </trkpt>
      <trkpt lat="42.19888" lon="2.28378">
        <ele>937</ele>
        <time>2022-05-22 00:07:36</time>
      </trkpt>
      <trkpt lat="42.19883" lon="2.28369">
        <ele>936.4</ele>
        <time>2022-05-22 00:07:37</time>
      </trkpt>
      <trkpt lat="42.19879" lon="2.28358">
        <ele>936</ele>
        <time>2022-05-22 00:07:38</time>
      </trkpt>
      <trkpt lat="42.19874" lon="2.28348">
        <ele>935.4</ele>
        <time>2022-05-22 00:07:39</time>
      </trkpt>
      <trkpt lat="42.1987" lon="2.28338">
        <ele>935</ele>
        <time>2022-05-22 00:07:40</time>
      </trkpt>
      <trkpt lat="42.19867" lon="2.28328">
        <ele>934.4</ele>
        <time>2022-05-22 00:07:41</time>
      </trkpt>
      <trkpt lat="42.19863" lon="2.28319">
        <ele>934</ele>
        <time>2022-05-22 00:07:42</time>
      </trkpt>
      <trkpt lat="42.1986" lon="2.28309">
        <ele>933.4</ele>
        <time>2022-05-22 00:07:43</time>
      </trkpt>
      <trkpt lat="42.19858" lon="2.28298">
        <ele>933</ele>
        <time>2022-05-22 00:07:44</time>
      </trkpt>
      <trkpt lat="42.19855" lon="2.28288">
        <ele>932.6</ele>
        <time>2022-05-22 00:07:45</time>
      </trkpt>
      <trkpt lat="42.19853" lon="2.28277">
        <ele>932.2</ele>
        <time>2022-05-22 00:07:46</time>
      </trkpt>
      <trkpt lat="42.19851" lon="2.28266">
        <ele>932</ele>
        <time>2022-05-22 00:07:47</time>
      </trkpt>
      <trkpt lat="42.19848" lon="2.28256">
        <ele>931.6</ele>
        <time>2022-05-22 00:07:48</time>
      </trkpt>
      <trkpt lat="42.19845" lon="2.28246">
        <ele>931.4</ele>
        <time>2022-05-22 00:07:49</time>
      </trkpt>
      <trkpt lat="42.19842" lon="2.28236">
        <ele>931</ele>
        <time>2022-05-22 00:07:50</time>
      </trkpt>
      <trkpt lat="42.19841" lon="2.28227">
        <ele>930.8</ele>
        <time>2022-05-22 00:07:51</time>
      </trkpt>
      <trkpt lat="42.1984" lon="2.28216">
        <ele>930.6</ele>
        <time>2022-05-22 00:07:52</time>
      </trkpt>
      <trkpt lat="42.1984" lon="2.28206">
        <ele>930.4</ele>
        <time>2022-05-22 00:07:53</time>
      </trkpt>
      <trkpt lat="42.19841" lon="2.28196">
        <ele>930.2</ele>
        <time>2022-05-22 00:07:54</time>
      </trkpt>
      <trkpt lat="42.19843" lon="2.28186">
        <ele>930</ele>
        <time>2022-05-22 00:07:55</time>
      </trkpt>
      <trkpt lat="42.19845" lon="2.28177">
        <ele>929.8</ele>
        <time>2022-05-22 00:07:56</time>
      </trkpt>
      <trkpt lat="42.19847" lon="2.28167">
        <ele>929.4</ele>
        <time>2022-05-22 00:07:57</time>
      </trkpt>
      <trkpt lat="42.1985" lon="2.28158">
        <ele>929.2</ele>
        <time>2022-05-22 00:07:58</time>
      </trkpt>
      <trkpt lat="42.19852" lon="2.28148">
        <ele>929</ele>
        <time>2022-05-22 00:07:59</time>
      </trkpt>
      <trkpt lat="42.19855" lon="2.28138">
        <ele>928.8</ele>
        <time>2022-05-22 00:08:00</time>
      </trkpt>
      <trkpt lat="42.19857" lon="2.28128">
        <ele>928.6</ele>
        <time>2022-05-22 00:08:01</time>
      </trkpt>
      <trkpt lat="42.19859" lon="2.28117">
        <ele>928.2</ele>
        <time>2022-05-22 00:08:02</time>
      </trkpt>
      <trkpt lat="42.19861" lon="2.28107">
        <ele>928</ele>
        <time>2022-05-22 00:08:03</time>
      </trkpt>
      <trkpt lat="42.19863" lon="2.28098">
        <ele>927.8</ele>
        <time>2022-05-22 00:08:04</time>
      </trkpt>
      <trkpt lat="42.19864" lon="2.28088">
        <ele>927.6</ele>
        <time>2022-05-22 00:08:05</time>
      </trkpt>
      <trkpt lat="42.19865" lon="2.28078">
        <ele>927.2</ele>
        <time>2022-05-22 00:08:06</time>
      </trkpt>
      <trkpt lat="42.19865" lon="2.28069">
        <ele>927</ele>
        <time>2022-05-22 00:08:07</time>
      </trkpt>
      <trkpt lat="42.19865" lon="2.28058">
        <ele>926.8</ele>
        <time>2022-05-22 00:08:08</time>
      </trkpt>
      <trkpt lat="42.19864" lon="2.28048">
        <ele>926.6</ele>
        <time>2022-05-22 00:08:09</time>
      </trkpt>
      <trkpt lat="42.19864" lon="2.28038">
        <ele>926.2</ele>
        <time>2022-05-22 00:08:10</time>
      </trkpt>
      <trkpt lat="42.19865" lon="2.28028">
        <ele>926</ele>
        <time>2022-05-22 00:08:11</time>
      </trkpt>
      <trkpt lat="42.19866" lon="2.28017">
        <ele>925.6</ele>
        <time>2022-05-22 00:08:12</time>
      </trkpt>
      <trkpt lat="42.19868" lon="2.28007">
        <ele>925.4</ele>
        <time>2022-05-22 00:08:13</time>
      </trkpt>
      <trkpt lat="42.1987" lon="2.27996">
        <ele>925.2</ele>
        <time>2022-05-22 00:08:14</time>
      </trkpt>
      <trkpt lat="42.19873" lon="2.27986">
        <ele>924.8</ele>
        <time>2022-05-22 00:08:15</time>
      </trkpt>
      <trkpt lat="42.19875" lon="2.27975">
        <ele>924.6</ele>
        <time>2022-05-22 00:08:16</time>
      </trkpt>
      <trkpt lat="42.19878" lon="2.27965">
        <ele>924.2</ele>
        <time>2022-05-22 00:08:17</time>
      </trkpt>
      <trkpt lat="42.19881" lon="2.27955">
        <ele>924</ele>
        <time>2022-05-22 00:08:18</time>
      </trkpt>
      <trkpt lat="42.19885" lon="2.27945">
        <ele>923.8</ele>
        <time>2022-05-22 00:08:19</time>
      </trkpt>
      <trkpt lat="42.19888" lon="2.27934">
        <ele>923.6</ele>
        <time>2022-05-22 00:08:20</time>
      </trkpt>
      <trkpt lat="42.19892" lon="2.27924">
        <ele>923.4</ele>
        <time>2022-05-22 00:08:21</time>
      </trkpt>
      <trkpt lat="42.19896" lon="2.27914">
        <ele>923.2</ele>
        <time>2022-05-22 00:08:22</time>
      </trkpt>
      <trkpt lat="42.19901" lon="2.27905">
        <ele>922.8</ele>
        <time>2022-05-22 00:08:23</time>
      </trkpt>
      <trkpt lat="42.19905" lon="2.27896">
        <ele>922.6</ele>
        <time>2022-05-22 00:08:24</time>
      </trkpt>
      <trkpt lat="42.1991" lon="2.27886">
        <ele>922.6</ele>
        <time>2022-05-22 00:08:25</time>
      </trkpt>
      <trkpt lat="42.19914" lon="2.27877">
        <ele>922.4</ele>
        <time>2022-05-22 00:08:26</time>
      </trkpt>
      <trkpt lat="42.19918" lon="2.27868">
        <ele>922.2</ele>
        <time>2022-05-22 00:08:27</time>
      </trkpt>
      <trkpt lat="42.19922" lon="2.27859">
        <ele>922</ele>
        <time>2022-05-22 00:08:28</time>
      </trkpt>
      <trkpt lat="42.19925" lon="2.2785">
        <ele>921.8</ele>
        <time>2022-05-22 00:08:29</time>
      </trkpt>
      <trkpt lat="42.19927" lon="2.2784">
        <ele>921.6</ele>
        <time>2022-05-22 00:08:30</time>
      </trkpt>
      <trkpt lat="42.19928" lon="2.2783">
        <ele>921.6</ele>
        <time>2022-05-22 00:08:31</time>
      </trkpt>
      <trkpt lat="42.19928" lon="2.27819">
        <ele>921.4</ele>
        <time>2022-05-22 00:08:32</time>
      </trkpt>
      <trkpt lat="42.19927" lon="2.27809">
        <ele>921.2</ele>
        <time>2022-05-22 00:08:33</time>
      </trkpt>
      <trkpt lat="42.19926" lon="2.27798">
        <ele>921</ele>
        <time>2022-05-22 00:08:34</time>
      </trkpt>
      <trkpt lat="42.19925" lon="2.27788">
        <ele>920.6</ele>
        <time>2022-05-22 00:08:35</time>
      </trkpt>
      <trkpt lat="42.19924" lon="2.27777">
        <ele>920.4</ele>
        <time>2022-05-22 00:08:36</time>
      </trkpt>
      <trkpt lat="42.19923" lon="2.27766">
        <ele>920.2</ele>
        <time>2022-05-22 00:08:37</time>
      </trkpt>
      <trkpt lat="42.19922" lon="2.27756">
        <ele>920.2</ele>
        <time>2022-05-22 00:08:38</time>
      </trkpt>
      <trkpt lat="42.19922" lon="2.27746">
        <ele>919.8</ele>
        <time>2022-05-22 00:08:39</time>
      </trkpt>
      <trkpt lat="42.19921" lon="2.27735">
        <ele>919.6</ele>
        <time>2022-05-22 00:08:40</time>
      </trkpt>
      <trkpt lat="42.1992" lon="2.27724">
        <ele>919.6</ele>
        <time>2022-05-22 00:08:41</time>
      </trkpt>
      <trkpt lat="42.1992" lon="2.27714">
        <ele>919.4</ele>
        <time>2022-05-22 00:08:42</time>
      </trkpt>
      <trkpt lat="42.1992" lon="2.27704">
        <ele>919.2</ele>
        <time>2022-05-22 00:08:43</time>
      </trkpt>
      <trkpt lat="42.19921" lon="2.27693">
        <ele>919</ele>
        <time>2022-05-22 00:08:44</time>
      </trkpt>
      <trkpt lat="42.19921" lon="2.27684">
        <ele>919</ele>
        <time>2022-05-22 00:08:45</time>
      </trkpt>
      <trkpt lat="42.19923" lon="2.27673">
        <ele>918.8</ele>
        <time>2022-05-22 00:08:46</time>
      </trkpt>
      <trkpt lat="42.19924" lon="2.27663">
        <ele>918.8</ele>
        <time>2022-05-22 00:08:47</time>
      </trkpt>
      <trkpt lat="42.19926" lon="2.27653">
        <ele>918.8</ele>
        <time>2022-05-22 00:08:48</time>
      </trkpt>
      <trkpt lat="42.19927" lon="2.27644">
        <ele>918.8</ele>
        <time>2022-05-22 00:08:49</time>
      </trkpt>
      <trkpt lat="42.19928" lon="2.27635">
        <ele>918.6</ele>
        <time>2022-05-22 00:08:50</time>
      </trkpt>
      <trkpt lat="42.19929" lon="2.27626">
        <ele>918.6</ele>
        <time>2022-05-22 00:08:51</time>
      </trkpt>
      <trkpt lat="42.19929" lon="2.27616">
        <ele>918.6</ele>
        <time>2022-05-22 00:08:52</time>
      </trkpt>
      <trkpt lat="42.19928" lon="2.27608">
        <ele>918.6</ele>
        <time>2022-05-22 00:08:53</time>
      </trkpt>
      <trkpt lat="42.19927" lon="2.276">
        <ele>918.4</ele>
        <time>2022-05-22 00:08:54</time>
      </trkpt>
      <trkpt lat="42.19924" lon="2.27592">
        <ele>918.4</ele>
        <time>2022-05-22 00:08:55</time>
      </trkpt>
      <trkpt lat="42.1992" lon="2.27584">
        <ele>918.4</ele>
        <time>2022-05-22 00:08:56</time>
      </trkpt>
      <trkpt lat="42.19916" lon="2.27577">
        <ele>918.2</ele>
        <time>2022-05-22 00:08:57</time>
      </trkpt>
      <trkpt lat="42.19912" lon="2.27571">
        <ele>918.2</ele>
        <time>2022-05-22 00:08:58</time>
      </trkpt>
      <trkpt lat="42.19908" lon="2.27564">
        <ele>918.2</ele>
        <time>2022-05-22 00:08:59</time>
      </trkpt>
      <trkpt lat="42.19905" lon="2.27558">
        <ele>918.2</ele>
        <time>2022-05-22 00:09:00</time>
      </trkpt>
      <trkpt lat="42.19901" lon="2.27552">
        <ele>918.2</ele>
        <time>2022-05-22 00:09:01</time>
      </trkpt>
      <trkpt lat="42.19897" lon="2.27546">
        <ele>918.2</ele>
        <time>2022-05-22 00:09:02</time>
      </trkpt>
      <trkpt lat="42.19894" lon="2.2754">
        <ele>918</ele>
        <time>2022-05-22 00:09:03</time>
      </trkpt>
      <trkpt lat="42.1989" lon="2.27532">
        <ele>918</ele>
        <time>2022-05-22 00:09:04</time>
      </trkpt>
      <trkpt lat="42.19887" lon="2.27525">
        <ele>917.8</ele>
        <time>2022-05-22 00:09:05</time>
      </trkpt>
      <trkpt lat="42.19885" lon="2.27516">
        <ele>917.6</ele>
        <time>2022-05-22 00:09:06</time>
      </trkpt>
      <trkpt lat="42.19884" lon="2.27508">
        <ele>917.6</ele>
        <time>2022-05-22 00:09:07</time>
      </trkpt>
      <trkpt lat="42.19884" lon="2.275">
        <ele>917.4</ele>
        <time>2022-05-22 00:09:08</time>
      </trkpt>
      <trkpt lat="42.19883" lon="2.27491">
        <ele>917.4</ele>
        <time>2022-05-22 00:09:09</time>
      </trkpt>
      <trkpt lat="42.19883" lon="2.27483">
        <ele>917.2</ele>
        <time>2022-05-22 00:09:10</time>
      </trkpt>
      <trkpt lat="42.19882" lon="2.27475">
        <ele>917.2</ele>
        <time>2022-05-22 00:09:11</time>
      </trkpt>
      <trkpt lat="42.19881" lon="2.27466">
        <ele>917</ele>
        <time>2022-05-22 00:09:12</time>
      </trkpt>
      <trkpt lat="42.19879" lon="2.27458">
        <ele>917</ele>
        <time>2022-05-22 00:09:13</time>
      </trkpt>
      <trkpt lat="42.19877" lon="2.2745">
        <ele>916.8</ele>
        <time>2022-05-22 00:09:14</time>
      </trkpt>
      <trkpt lat="42.19874" lon="2.27442">
        <ele>916.6</ele>
        <time>2022-05-22 00:09:15</time>
      </trkpt>
      <trkpt lat="42.1987" lon="2.27436">
        <ele>916.4</ele>
        <time>2022-05-22 00:09:16</time>
      </trkpt>
      <trkpt lat="42.19865" lon="2.27429">
        <ele>916.4</ele>
        <time>2022-05-22 00:09:17</time>
      </trkpt>
      <trkpt lat="42.19861" lon="2.27423">
        <ele>916.2</ele>
        <time>2022-05-22 00:09:18</time>
      </trkpt>
      <trkpt lat="42.19856" lon="2.27418">
        <ele>916</ele>
        <time>2022-05-22 00:09:19</time>
      </trkpt>
      <trkpt lat="42.19851" lon="2.27411">
        <ele>915.8</ele>
        <time>2022-05-22 00:09:20</time>
      </trkpt>
      <trkpt lat="42.19846" lon="2.27405">
        <ele>915.6</ele>
        <time>2022-05-22 00:09:21</time>
      </trkpt>
      <trkpt lat="42.19842" lon="2.27398">
        <ele>915.4</ele>
        <time>2022-05-22 00:09:22</time>
      </trkpt>
      <trkpt lat="42.19837" lon="2.27391">
        <ele>915.4</ele>
        <time>2022-05-22 00:09:23</time>
      </trkpt>
      <trkpt lat="42.19833" lon="2.27384">
        <ele>915.2</ele>
        <time>2022-05-22 00:09:24</time>
      </trkpt>
      <trkpt lat="42.19828" lon="2.27377">
        <ele>915</ele>
        <time>2022-05-22 00:09:25</time>
      </trkpt>
      <trkpt lat="42.19824" lon="2.2737">
        <ele>914.8</ele>
        <time>2022-05-22 00:09:26</time>
      </trkpt>
      <trkpt lat="42.19819" lon="2.27363">
        <ele>914.6</ele>
        <time>2022-05-22 00:09:27</time>
      </trkpt>
      <trkpt lat="42.19815" lon="2.27355">
        <ele>914.4</ele>
        <time>2022-05-22 00:09:28</time>
      </trkpt>
      <trkpt lat="42.19811" lon="2.27347">
        <ele>914.2</ele>
        <time>2022-05-22 00:09:29</time>
      </trkpt>
      <trkpt lat="42.19808" lon="2.27339">
        <ele>914</ele>
        <time>2022-05-22 00:09:30</time>
      </trkpt>
      <trkpt lat="42.19806" lon="2.27331">
        <ele>913.8</ele>
        <time>2022-05-22 00:09:31</time>
      </trkpt>
      <trkpt lat="42.19803" lon="2.27321">
        <ele>913.8</ele>
        <time>2022-05-22 00:09:32</time>
      </trkpt>
      <trkpt lat="42.19802" lon="2.27312">
        <ele>913.6</ele>
        <time>2022-05-22 00:09:33</time>
      </trkpt>
      <trkpt lat="42.198" lon="2.27302">
        <ele>913.4</ele>
        <time>2022-05-22 00:09:34</time>
      </trkpt>
      <trkpt lat="42.19798" lon="2.27293">
        <ele>913.2</ele>
        <time>2022-05-22 00:09:35</time>
      </trkpt>
      <trkpt lat="42.19797" lon="2.27284">
        <ele>913</ele>
        <time>2022-05-22 00:09:36</time>
      </trkpt>
      <trkpt lat="42.19795" lon="2.27275">
        <ele>913</ele>
        <time>2022-05-22 00:09:37</time>
      </trkpt>
      <trkpt lat="42.19792" lon="2.27266">
        <ele>912.8</ele>
        <time>2022-05-22 00:09:38</time>
      </trkpt>
      <trkpt lat="42.19788" lon="2.27259">
        <ele>912.6</ele>
        <time>2022-05-22 00:09:39</time>
      </trkpt>
      <trkpt lat="42.19783" lon="2.27252">
        <ele>912.2</ele>
        <time>2022-05-22 00:09:40</time>
      </trkpt>
      <trkpt lat="42.19777" lon="2.27247">
        <ele>912</ele>
        <time>2022-05-22 00:09:41</time>
      </trkpt>
      <trkpt lat="42.19771" lon="2.27243">
        <ele>911.8</ele>
        <time>2022-05-22 00:09:42</time>
      </trkpt>
      <trkpt lat="42.19764" lon="2.2724">
        <ele>911.4</ele>
        <time>2022-05-22 00:09:43</time>
      </trkpt>
      <trkpt lat="42.19756" lon="2.27236">
        <ele>911.2</ele>
        <time>2022-05-22 00:09:44</time>
      </trkpt>
      <trkpt lat="42.19749" lon="2.27233">
        <ele>910.8</ele>
        <time>2022-05-22 00:09:45</time>
      </trkpt>
      <trkpt lat="42.19742" lon="2.27229">
        <ele>910.4</ele>
        <time>2022-05-22 00:09:46</time>
      </trkpt>
      <trkpt lat="42.19735" lon="2.27225">
        <ele>910</ele>
        <time>2022-05-22 00:09:47</time>
      </trkpt>
      <trkpt lat="42.19728" lon="2.2722">
        <ele>909.6</ele>
        <time>2022-05-22 00:09:48</time>
      </trkpt>
      <trkpt lat="42.19722" lon="2.27214">
        <ele>909.2</ele>
        <time>2022-05-22 00:09:49</time>
      </trkpt>
      <trkpt lat="42.19718" lon="2.27206">
        <ele>908.6</ele>
        <time>2022-05-22 00:09:50</time>
      </trkpt>
      <trkpt lat="42.19714" lon="2.27197">
        <ele>908.2</ele>
        <time>2022-05-22 00:09:51</time>
      </trkpt>
      <trkpt lat="42.19712" lon="2.27188">
        <ele>907.8</ele>
        <time>2022-05-22 00:09:52</time>
      </trkpt>
      <trkpt lat="42.19712" lon="2.27178">
        <ele>907.2</ele>
        <time>2022-05-22 00:09:53</time>
      </trkpt>
      <trkpt lat="42.19713" lon="2.27168">
        <ele>906.6</ele>
        <time>2022-05-22 00:09:54</time>
      </trkpt>
      <trkpt lat="42.19716" lon="2.27158">
        <ele>906</ele>
        <time>2022-05-22 00:09:55</time>
      </trkpt>
      <trkpt lat="42.19722" lon="2.27149">
        <ele>905.6</ele>
        <time>2022-05-22 00:09:56</time>
      </trkpt>
      <trkpt lat="42.19728" lon="2.27141">
        <ele>905</ele>
        <time>2022-05-22 00:09:57</time>
      </trkpt>
      <trkpt lat="42.19735" lon="2.27136">
        <ele>904.6</ele>
        <time>2022-05-22 00:09:58</time>
      </trkpt>
      <trkpt lat="42.19743" lon="2.27132">
        <ele>904.2</ele>
        <time>2022-05-22 00:09:59</time>
      </trkpt>
      <trkpt lat="42.19751" lon="2.27129">
        <ele>903.8</ele>
        <time>2022-05-22 00:10:00</time>
      </trkpt>
      <trkpt lat="42.19758" lon="2.27125">
        <ele>903.2</ele>
        <time>2022-05-22 00:10:01</time>
      </trkpt>
      <trkpt lat="42.19766" lon="2.2712">
        <ele>903</ele>
        <time>2022-05-22 00:10:02</time>
      </trkpt>
      <trkpt lat="42.19772" lon="2.27114">
        <ele>902.6</ele>
        <time>2022-05-22 00:10:03</time>
      </trkpt>
      <trkpt lat="42.19776" lon="2.27106">
        <ele>902.2</ele>
        <time>2022-05-22 00:10:04</time>
      </trkpt>
      <trkpt lat="42.19779" lon="2.27098">
        <ele>901.8</ele>
        <time>2022-05-22 00:10:05</time>
      </trkpt>
      <trkpt lat="42.19781" lon="2.27088">
        <ele>901.4</ele>
        <time>2022-05-22 00:10:06</time>
      </trkpt>
      <trkpt lat="42.19781" lon="2.27078">
        <ele>901.2</ele>
        <time>2022-05-22 00:10:07</time>
      </trkpt>
      <trkpt lat="42.19779" lon="2.27069">
        <ele>901</ele>
        <time>2022-05-22 00:10:08</time>
      </trkpt>
      <trkpt lat="42.19776" lon="2.2706">
        <ele>900.8</ele>
        <time>2022-05-22 00:10:09</time>
      </trkpt>
      <trkpt lat="42.19772" lon="2.27052">
        <ele>900.6</ele>
        <time>2022-05-22 00:10:10</time>
      </trkpt>
      <trkpt lat="42.19769" lon="2.27043">
        <ele>900.4</ele>
        <time>2022-05-22 00:10:11</time>
      </trkpt>
      <trkpt lat="42.19765" lon="2.27036">
        <ele>900.2</ele>
        <time>2022-05-22 00:10:12</time>
      </trkpt>
      <trkpt lat="42.19762" lon="2.27028">
        <ele>900</ele>
        <time>2022-05-22 00:10:13</time>
      </trkpt>
      <trkpt lat="42.19758" lon="2.27018">
        <ele>900</ele>
        <time>2022-05-22 00:10:14</time>
      </trkpt>
      <trkpt lat="42.19755" lon="2.2701">
        <ele>899.8</ele>
        <time>2022-05-22 00:10:15</time>
      </trkpt>
      <trkpt lat="42.19752" lon="2.27001">
        <ele>899.6</ele>
        <time>2022-05-22 00:10:16</time>
      </trkpt>
      <trkpt lat="42.19749" lon="2.26992">
        <ele>899.4</ele>
        <time>2022-05-22 00:10:17</time>
      </trkpt>
      <trkpt lat="42.19746" lon="2.26983">
        <ele>899.2</ele>
        <time>2022-05-22 00:10:18</time>
      </trkpt>
      <trkpt lat="42.19743" lon="2.26973">
        <ele>899</ele>
        <time>2022-05-22 00:10:19</time>
      </trkpt>
      <trkpt lat="42.19741" lon="2.26964">
        <ele>898.8</ele>
        <time>2022-05-22 00:10:20</time>
      </trkpt>
      <trkpt lat="42.19739" lon="2.26955">
        <ele>898.8</ele>
        <time>2022-05-22 00:10:21</time>
      </trkpt>
      <trkpt lat="42.19736" lon="2.26946">
        <ele>898.6</ele>
        <time>2022-05-22 00:10:22</time>
      </trkpt>
      <trkpt lat="42.19735" lon="2.26938">
        <ele>898.4</ele>
        <time>2022-05-22 00:10:23</time>
      </trkpt>
      <trkpt lat="42.19732" lon="2.26927">
        <ele>898.4</ele>
        <time>2022-05-22 00:10:24</time>
      </trkpt>
      <trkpt lat="42.1973" lon="2.26919">
        <ele>898.2</ele>
        <time>2022-05-22 00:10:25</time>
      </trkpt>
      <trkpt lat="42.19727" lon="2.26908">
        <ele>898</ele>
        <time>2022-05-22 00:10:26</time>
      </trkpt>
      <trkpt lat="42.19725" lon="2.26899">
        <ele>898</ele>
        <time>2022-05-22 00:10:27</time>
      </trkpt>
      <trkpt lat="42.19723" lon="2.2689">
        <ele>897.8</ele>
        <time>2022-05-22 00:10:28</time>
      </trkpt>
      <trkpt lat="42.1972" lon="2.26881">
        <ele>897.6</ele>
        <time>2022-05-22 00:10:29</time>
      </trkpt>
      <trkpt lat="42.19718" lon="2.26873">
        <ele>897.4</ele>
        <time>2022-05-22 00:10:30</time>
      </trkpt>
      <trkpt lat="42.19715" lon="2.26864">
        <ele>897.2</ele>
        <time>2022-05-22 00:10:31</time>
      </trkpt>
      <trkpt lat="42.19713" lon="2.26854">
        <ele>897</ele>
        <time>2022-05-22 00:10:32</time>
      </trkpt>
      <trkpt lat="42.1971" lon="2.26845">
        <ele>896.8</ele>
        <time>2022-05-22 00:10:33</time>
      </trkpt>
      <trkpt lat="42.19708" lon="2.26835">
        <ele>896.6</ele>
        <time>2022-05-22 00:10:34</time>
      </trkpt>
      <trkpt lat="42.19705" lon="2.26826">
        <ele>896.4</ele>
        <time>2022-05-22 00:10:35</time>
      </trkpt>
      <trkpt lat="42.19703" lon="2.26816">
        <ele>896.2</ele>
        <time>2022-05-22 00:10:36</time>
      </trkpt>
      <trkpt lat="42.197" lon="2.26806">
        <ele>896</ele>
        <time>2022-05-22 00:10:37</time>
      </trkpt>
      <trkpt lat="42.19698" lon="2.26797">
        <ele>895.8</ele>
        <time>2022-05-22 00:10:38</time>
      </trkpt>
      <trkpt lat="42.19695" lon="2.26788">
        <ele>895.4</ele>
        <time>2022-05-22 00:10:39</time>
      </trkpt>
      <trkpt lat="42.19693" lon="2.26777">
        <ele>895.2</ele>
        <time>2022-05-22 00:10:40</time>
      </trkpt>
      <trkpt lat="42.19691" lon="2.26768">
        <ele>895</ele>
        <time>2022-05-22 00:10:41</time>
      </trkpt>
      <trkpt lat="42.1969" lon="2.26757">
        <ele>894.8</ele>
        <time>2022-05-22 00:10:42</time>
      </trkpt>
      <trkpt lat="42.19689" lon="2.26747">
        <ele>894.6</ele>
        <time>2022-05-22 00:10:43</time>
      </trkpt>
      <trkpt lat="42.19689" lon="2.26735">
        <ele>894.2</ele>
        <time>2022-05-22 00:10:44</time>
      </trkpt>
      <trkpt lat="42.1969" lon="2.26724">
        <ele>893.8</ele>
        <time>2022-05-22 00:10:45</time>
      </trkpt>
      <trkpt lat="42.1969" lon="2.26712">
        <ele>893.4</ele>
        <time>2022-05-22 00:10:46</time>
      </trkpt>
      <trkpt lat="42.19691" lon="2.26701">
        <ele>893</ele>
        <time>2022-05-22 00:10:47</time>
      </trkpt>
      <trkpt lat="42.19693" lon="2.26688">
        <ele>892.6</ele>
        <time>2022-05-22 00:10:48</time>
      </trkpt>
      <trkpt lat="42.19695" lon="2.26677">
        <ele>892</ele>
        <time>2022-05-22 00:10:49</time>
      </trkpt>
      <trkpt lat="42.19696" lon="2.26667">
        <ele>891.6</ele>
        <time>2022-05-22 00:10:50</time>
      </trkpt>
      <trkpt lat="42.19699" lon="2.26654">
        <ele>891.2</ele>
        <time>2022-05-22 00:10:51</time>
      </trkpt>
      <trkpt lat="42.19701" lon="2.26642">
        <ele>890.8</ele>
        <time>2022-05-22 00:10:52</time>
      </trkpt>
      <trkpt lat="42.19704" lon="2.26632">
        <ele>890.2</ele>
        <time>2022-05-22 00:10:53</time>
      </trkpt>
      <trkpt lat="42.19707" lon="2.26619">
        <ele>889.8</ele>
        <time>2022-05-22 00:10:54</time>
      </trkpt>
      <trkpt lat="42.1971" lon="2.2661">
        <ele>889.4</ele>
        <time>2022-05-22 00:10:55</time>
      </trkpt>
      <trkpt lat="42.19715" lon="2.26598">
        <ele>888.8</ele>
        <time>2022-05-22 00:10:56</time>
      </trkpt>
      <trkpt lat="42.19719" lon="2.26589">
        <ele>888.4</ele>
        <time>2022-05-22 00:10:57</time>
      </trkpt>
      <trkpt lat="42.19725" lon="2.26578">
        <ele>888</ele>
        <time>2022-05-22 00:10:58</time>
      </trkpt>
      <trkpt lat="42.19729" lon="2.26568">
        <ele>887.8</ele>
        <time>2022-05-22 00:10:59</time>
      </trkpt>
      <trkpt lat="42.19733" lon="2.26557">
        <ele>887.6</ele>
        <time>2022-05-22 00:11:00</time>
      </trkpt>
      <trkpt lat="42.19736" lon="2.26545">
        <ele>887.4</ele>
        <time>2022-05-22 00:11:01</time>
      </trkpt>
      <trkpt lat="42.19737" lon="2.26535">
        <ele>887.4</ele>
        <time>2022-05-22 00:11:02</time>
      </trkpt>
      <trkpt lat="42.19737" lon="2.26524">
        <ele>887.4</ele>
        <time>2022-05-22 00:11:03</time>
      </trkpt>
      <trkpt lat="42.19735" lon="2.26514">
        <ele>887.4</ele>
        <time>2022-05-22 00:11:04</time>
      </trkpt>
      <trkpt lat="42.19733" lon="2.26504">
        <ele>887.2</ele>
        <time>2022-05-22 00:11:05</time>
      </trkpt>
      <trkpt lat="42.19732" lon="2.26495">
        <ele>887.2</ele>
        <time>2022-05-22 00:11:06</time>
      </trkpt>
      <trkpt lat="42.19731" lon="2.26485">
        <ele>887.2</ele>
        <time>2022-05-22 00:11:07</time>
      </trkpt>
      <trkpt lat="42.19731" lon="2.26474">
        <ele>887.2</ele>
        <time>2022-05-22 00:11:08</time>
      </trkpt>
      <trkpt lat="42.19732" lon="2.26464">
        <ele>887.2</ele>
        <time>2022-05-22 00:11:09</time>
      </trkpt>
      <trkpt lat="42.19734" lon="2.26455">
        <ele>887.2</ele>
        <time>2022-05-22 00:11:10</time>
      </trkpt>
      <trkpt lat="42.19737" lon="2.26446">
        <ele>887.2</ele>
        <time>2022-05-22 00:11:11</time>
      </trkpt>
      <trkpt lat="42.1974" lon="2.26438">
        <ele>887.2</ele>
        <time>2022-05-22 00:11:12</time>
      </trkpt>
      <trkpt lat="42.19743" lon="2.26431">
        <ele>887.2</ele>
        <time>2022-05-22 00:11:13</time>
      </trkpt>
      <trkpt lat="42.19747" lon="2.26426">
        <ele>887.2</ele>
        <time>2022-05-22 00:11:14</time>
      </trkpt>
      <trkpt lat="42.19751" lon="2.26421">
        <ele>887.2</ele>
        <time>2022-05-22 00:11:15</time>
      </trkpt>
      <trkpt lat="42.19756" lon="2.26417">
        <ele>887.2</ele>
        <time>2022-05-22 00:11:16</time>
      </trkpt>
      <trkpt lat="42.19761" lon="2.26413">
        <ele>887.4</ele>
        <time>2022-05-22 00:11:17</time>
      </trkpt>
      <trkpt lat="42.19766" lon="2.2641">
        <ele>887.4</ele>
        <time>2022-05-22 00:11:18</time>
      </trkpt>
      <trkpt lat="42.19771" lon="2.26407">
        <ele>887.4</ele>
        <time>2022-05-22 00:11:19</time>
      </trkpt>
      <trkpt lat="42.19777" lon="2.26405">
        <ele>887.6</ele>
        <time>2022-05-22 00:11:20</time>
      </trkpt>
      <trkpt lat="42.19782" lon="2.26401">
        <ele>887.4</ele>
        <time>2022-05-22 00:11:21</time>
      </trkpt>
      <trkpt lat="42.19787" lon="2.26396">
        <ele>887.4</ele>
        <time>2022-05-22 00:11:22</time>
      </trkpt>
      <trkpt lat="42.19792" lon="2.26391">
        <ele>887.2</ele>
        <time>2022-05-22 00:11:23</time>
      </trkpt>
      <trkpt lat="42.19796" lon="2.26384">
        <ele>887</ele>
        <time>2022-05-22 00:11:24</time>
      </trkpt>
      <trkpt lat="42.19799" lon="2.26376">
        <ele>886.8</ele>
        <time>2022-05-22 00:11:25</time>
      </trkpt>
      <trkpt lat="42.198" lon="2.26368">
        <ele>886.4</ele>
        <time>2022-05-22 00:11:26</time>
      </trkpt>
      <trkpt lat="42.198" lon="2.26358">
        <ele>886</ele>
        <time>2022-05-22 00:11:27</time>
      </trkpt>
      <trkpt lat="42.198" lon="2.26348">
        <ele>885.6</ele>
        <time>2022-05-22 00:11:28</time>
      </trkpt>
      <trkpt lat="42.19801" lon="2.26338">
        <ele>885.2</ele>
        <time>2022-05-22 00:11:29</time>
      </trkpt>
      <trkpt lat="42.19802" lon="2.26329">
        <ele>884.8</ele>
        <time>2022-05-22 00:11:30</time>
      </trkpt>
      <trkpt lat="42.19804" lon="2.26321">
        <ele>884.2</ele>
        <time>2022-05-22 00:11:31</time>
      </trkpt>
      <trkpt lat="42.19808" lon="2.26314">
        <ele>883.8</ele>
        <time>2022-05-22 00:11:32</time>
      </trkpt>
      <trkpt lat="42.19812" lon="2.26309">
        <ele>883.4</ele>
        <time>2022-05-22 00:11:33</time>
      </trkpt>
      <trkpt lat="42.19817" lon="2.26304">
        <ele>883</ele>
        <time>2022-05-22 00:11:34</time>
      </trkpt>
      <trkpt lat="42.19823" lon="2.26301">
        <ele>882.8</ele>
        <time>2022-05-22 00:11:35</time>
      </trkpt>
      <trkpt lat="42.19829" lon="2.26297">
        <ele>882.4</ele>
        <time>2022-05-22 00:11:36</time>
      </trkpt>
      <trkpt lat="42.19835" lon="2.26294">
        <ele>882</ele>
        <time>2022-05-22 00:11:37</time>
      </trkpt>
      <trkpt lat="42.19841" lon="2.2629">
        <ele>881.8</ele>
        <time>2022-05-22 00:11:38</time>
      </trkpt>
      <trkpt lat="42.19847" lon="2.26284">
        <ele>881.6</ele>
        <time>2022-05-22 00:11:39</time>
      </trkpt>
      <trkpt lat="42.19852" lon="2.26278">
        <ele>881.2</ele>
        <time>2022-05-22 00:11:40</time>
      </trkpt>
      <trkpt lat="42.19857" lon="2.26272">
        <ele>880.8</ele>
        <time>2022-05-22 00:11:41</time>
      </trkpt>
      <trkpt lat="42.19861" lon="2.26264">
        <ele>880.4</ele>
        <time>2022-05-22 00:11:42</time>
      </trkpt>
      <trkpt lat="42.19866" lon="2.26255">
        <ele>880</ele>
        <time>2022-05-22 00:11:43</time>
      </trkpt>
      <trkpt lat="42.1987" lon="2.26246">
        <ele>879.8</ele>
        <time>2022-05-22 00:11:44</time>
      </trkpt>
      <trkpt lat="42.19873" lon="2.26236">
        <ele>879.6</ele>
        <time>2022-05-22 00:11:45</time>
      </trkpt>
      <trkpt lat="42.19876" lon="2.26226">
        <ele>879.2</ele>
        <time>2022-05-22 00:11:46</time>
      </trkpt>
      <trkpt lat="42.19879" lon="2.26215">
        <ele>879</ele>
        <time>2022-05-22 00:11:47</time>
      </trkpt>
      <trkpt lat="42.19882" lon="2.26205">
        <ele>878.6</ele>
        <time>2022-05-22 00:11:48</time>
      </trkpt>
      <trkpt lat="42.19885" lon="2.26195">
        <ele>878.6</ele>
        <time>2022-05-22 00:11:49</time>
      </trkpt>
      <trkpt lat="42.19888" lon="2.26186">
        <ele>878.4</ele>
        <time>2022-05-22 00:11:50</time>
      </trkpt>
      <trkpt lat="42.19891" lon="2.26176">
        <ele>878</ele>
        <time>2022-05-22 00:11:51</time>
      </trkpt>
      <trkpt lat="42.19894" lon="2.26167">
        <ele>877.8</ele>
        <time>2022-05-22 00:11:52</time>
      </trkpt>
      <trkpt lat="42.19898" lon="2.26159">
        <ele>877.4</ele>
        <time>2022-05-22 00:11:53</time>
      </trkpt>
      <trkpt lat="42.19903" lon="2.26151">
        <ele>877.2</ele>
        <time>2022-05-22 00:11:54</time>
      </trkpt>
      <trkpt lat="42.1991" lon="2.26144">
        <ele>877</ele>
        <time>2022-05-22 00:11:55</time>
      </trkpt>
      <trkpt lat="42.19917" lon="2.26139">
        <ele>876.8</ele>
        <time>2022-05-22 00:11:56</time>
      </trkpt>
      <trkpt lat="42.19924" lon="2.26133">
        <ele>876.6</ele>
        <time>2022-05-22 00:11:57</time>
      </trkpt>
      <trkpt lat="42.19931" lon="2.26129">
        <ele>876.4</ele>
        <time>2022-05-22 00:11:58</time>
      </trkpt>
      <trkpt lat="42.19938" lon="2.26124">
        <ele>876.2</ele>
        <time>2022-05-22 00:11:59</time>
      </trkpt>
      <trkpt lat="42.19945" lon="2.2612">
        <ele>876</ele>
        <time>2022-05-22 00:12:00</time>
      </trkpt>
      <trkpt lat="42.19952" lon="2.26116">
        <ele>875.8</ele>
        <time>2022-05-22 00:12:01</time>
      </trkpt>
      <trkpt lat="42.1996" lon="2.26111">
        <ele>875.6</ele>
        <time>2022-05-22 00:12:02</time>
      </trkpt>
      <trkpt lat="42.19967" lon="2.26107">
        <ele>875.4</ele>
        <time>2022-05-22 00:12:03</time>
      </trkpt>
      <trkpt lat="42.19974" lon="2.26102">
        <ele>875.2</ele>
        <time>2022-05-22 00:12:04</time>
      </trkpt>
      <trkpt lat="42.19981" lon="2.26097">
        <ele>875</ele>
        <time>2022-05-22 00:12:05</time>
      </trkpt>
      <trkpt lat="42.19988" lon="2.26093">
        <ele>875</ele>
        <time>2022-05-22 00:12:06</time>
      </trkpt>
      <trkpt lat="42.19995" lon="2.26088">
        <ele>874.8</ele>
        <time>2022-05-22 00:12:07</time>
      </trkpt>
      <trkpt lat="42.20003" lon="2.26085">
        <ele>874.6</ele>
        <time>2022-05-22 00:12:08</time>
      </trkpt>
      <trkpt lat="42.20011" lon="2.26082">
        <ele>874.2</ele>
        <time>2022-05-22 00:12:09</time>
      </trkpt>
      <trkpt lat="42.20018" lon="2.26079">
        <ele>874</ele>
        <time>2022-05-22 00:12:10</time>
      </trkpt>
      <trkpt lat="42.20025" lon="2.26076">
        <ele>873.8</ele>
        <time>2022-05-22 00:12:11</time>
      </trkpt>
      <trkpt lat="42.20033" lon="2.26074">
        <ele>873.6</ele>
        <time>2022-05-22 00:12:12</time>
      </trkpt>
      <trkpt lat="42.2004" lon="2.26072">
        <ele>873.4</ele>
        <time>2022-05-22 00:12:13</time>
      </trkpt>
      <trkpt lat="42.20048" lon="2.26071">
        <ele>873.2</ele>
        <time>2022-05-22 00:12:14</time>
      </trkpt>
      <trkpt lat="42.20055" lon="2.26069">
        <ele>873</ele>
        <time>2022-05-22 00:12:15</time>
      </trkpt>
      <trkpt lat="42.20062" lon="2.26069">
        <ele>873</ele>
        <time>2022-05-22 00:12:16</time>
      </trkpt>
      <trkpt lat="42.20069" lon="2.26068">
        <ele>873</ele>
        <time>2022-05-22 00:12:17</time>
      </trkpt>
      <trkpt lat="42.20075" lon="2.26068">
        <ele>872.8</ele>
        <time>2022-05-22 00:12:18</time>
      </trkpt>
      <trkpt lat="42.20081" lon="2.26069">
        <ele>872.8</ele>
        <time>2022-05-22 00:12:19</time>
      </trkpt>
      <trkpt lat="42.20086" lon="2.26071">
        <ele>872.8</ele>
        <time>2022-05-22 00:12:20</time>
      </trkpt>
      <trkpt lat="42.20092" lon="2.26071">
        <ele>873</ele>
        <time>2022-05-22 00:12:21</time>
      </trkpt>
      <trkpt lat="42.20097" lon="2.26071">
        <ele>872.8</ele>
        <time>2022-05-22 00:12:22</time>
      </trkpt>
      <trkpt lat="42.20103" lon="2.2607">
        <ele>872.8</ele>
        <time>2022-05-22 00:12:23</time>
      </trkpt>
      <trkpt lat="42.20109" lon="2.26068">
        <ele>872.8</ele>
        <time>2022-05-22 00:12:24</time>
      </trkpt>
      <trkpt lat="42.20115" lon="2.26065">
        <ele>872.8</ele>
        <time>2022-05-22 00:12:25</time>
      </trkpt>
      <trkpt lat="42.20121" lon="2.26062">
        <ele>872.6</ele>
        <time>2022-05-22 00:12:26</time>
      </trkpt>
      <trkpt lat="42.20127" lon="2.26058">
        <ele>872.6</ele>
        <time>2022-05-22 00:12:27</time>
      </trkpt>
      <trkpt lat="42.20132" lon="2.26054">
        <ele>872.4</ele>
        <time>2022-05-22 00:12:28</time>
      </trkpt>
      <trkpt lat="42.20138" lon="2.26051">
        <ele>872.4</ele>
        <time>2022-05-22 00:12:29</time>
      </trkpt>
      <trkpt lat="42.20144" lon="2.26048">
        <ele>872.4</ele>
        <time>2022-05-22 00:12:30</time>
      </trkpt>
      <trkpt lat="42.2015" lon="2.26044">
        <ele>872.2</ele>
        <time>2022-05-22 00:12:31</time>
      </trkpt>
      <trkpt lat="42.20155" lon="2.26041">
        <ele>872.2</ele>
        <time>2022-05-22 00:12:32</time>
      </trkpt>
      <trkpt lat="42.20161" lon="2.26039">
        <ele>872.2</ele>
        <time>2022-05-22 00:12:33</time>
      </trkpt>
      <trkpt lat="42.20168" lon="2.26038">
        <ele>872</ele>
        <time>2022-05-22 00:12:34</time>
      </trkpt>
      <trkpt lat="42.20175" lon="2.26038">
        <ele>872</ele>
        <time>2022-05-22 00:12:35</time>
      </trkpt>
      <trkpt lat="42.2018" lon="2.26038">
        <ele>871.8</ele>
        <time>2022-05-22 00:12:36</time>
      </trkpt>
      <trkpt lat="42.20186" lon="2.2604">
        <ele>871.8</ele>
        <time>2022-05-22 00:12:37</time>
      </trkpt>
      <trkpt lat="42.20192" lon="2.26042">
        <ele>871.6</ele>
        <time>2022-05-22 00:12:38</time>
      </trkpt>
      <trkpt lat="42.20197" lon="2.26044">
        <ele>871.6</ele>
        <time>2022-05-22 00:12:39</time>
      </trkpt>
      <trkpt lat="42.20203" lon="2.26045">
        <ele>871.4</ele>
        <time>2022-05-22 00:12:40</time>
      </trkpt>
      <trkpt lat="42.20209" lon="2.26046">
        <ele>871.2</ele>
        <time>2022-05-22 00:12:41</time>
      </trkpt>
      <trkpt lat="42.20217" lon="2.26047">
        <ele>871</ele>
        <time>2022-05-22 00:12:42</time>
      </trkpt>
      <trkpt lat="42.20225" lon="2.26046">
        <ele>870.8</ele>
        <time>2022-05-22 00:12:43</time>
      </trkpt>
      <trkpt lat="42.20232" lon="2.26044">
        <ele>870.4</ele>
        <time>2022-05-22 00:12:44</time>
      </trkpt>
      <trkpt lat="42.20239" lon="2.26042">
        <ele>870.2</ele>
        <time>2022-05-22 00:12:45</time>
      </trkpt>
      <trkpt lat="42.20246" lon="2.2604">
        <ele>869.8</ele>
        <time>2022-05-22 00:12:46</time>
      </trkpt>
      <trkpt lat="42.20253" lon="2.26037">
        <ele>869.6</ele>
        <time>2022-05-22 00:12:47</time>
      </trkpt>
      <trkpt lat="42.2026" lon="2.26033">
        <ele>869.4</ele>
        <time>2022-05-22 00:12:48</time>
      </trkpt>
      <trkpt lat="42.20267" lon="2.26027">
        <ele>869</ele>
        <time>2022-05-22 00:12:49</time>
      </trkpt>
      <trkpt lat="42.20272" lon="2.26021">
        <ele>869</ele>
        <time>2022-05-22 00:12:50</time>
      </trkpt>
      <trkpt lat="42.20277" lon="2.26013">
        <ele>868.8</ele>
        <time>2022-05-22 00:12:51</time>
      </trkpt>
      <trkpt lat="42.20281" lon="2.26003">
        <ele>868.6</ele>
        <time>2022-05-22 00:12:52</time>
      </trkpt>
      <trkpt lat="42.20283" lon="2.25994">
        <ele>868.6</ele>
        <time>2022-05-22 00:12:53</time>
      </trkpt>
      <trkpt lat="42.20284" lon="2.25985">
        <ele>868.6</ele>
        <time>2022-05-22 00:12:54</time>
      </trkpt>
      <trkpt lat="42.20285" lon="2.25976">
        <ele>868.4</ele>
        <time>2022-05-22 00:12:55</time>
      </trkpt>
      <trkpt lat="42.20285" lon="2.25967">
        <ele>868.4</ele>
        <time>2022-05-22 00:12:56</time>
      </trkpt>
      <trkpt lat="42.20286" lon="2.25958">
        <ele>868.4</ele>
        <time>2022-05-22 00:12:57</time>
      </trkpt>
      <trkpt lat="42.20286" lon="2.2595">
        <ele>868.6</ele>
        <time>2022-05-22 00:12:58</time>
      </trkpt>
      <trkpt lat="42.20284" lon="2.25943">
        <ele>868.6</ele>
        <time>2022-05-22 00:12:59</time>
      </trkpt>
      <trkpt lat="42.20282" lon="2.25937">
        <ele>868.8</ele>
        <time>2022-05-22 00:13:00</time>
      </trkpt>
      <trkpt lat="42.20279" lon="2.25931">
        <ele>869</ele>
        <time>2022-05-22 00:13:01</time>
      </trkpt>
      <trkpt lat="42.20275" lon="2.25926">
        <ele>869.2</ele>
        <time>2022-05-22 00:13:02</time>
      </trkpt>
      <trkpt lat="42.20271" lon="2.25923">
        <ele>869.4</ele>
        <time>2022-05-22 00:13:03</time>
      </trkpt>
      <trkpt lat="42.20266" lon="2.2592">
        <ele>869.4</ele>
        <time>2022-05-22 00:13:04</time>
      </trkpt>
      <trkpt lat="42.20261" lon="2.25919">
        <ele>869.6</ele>
        <time>2022-05-22 00:13:05</time>
      </trkpt>
      <trkpt lat="42.20257" lon="2.25918">
        <ele>869.6</ele>
        <time>2022-05-22 00:13:06</time>
      </trkpt>
      <trkpt lat="42.20252" lon="2.25918">
        <ele>869.8</ele>
        <time>2022-05-22 00:13:07</time>
      </trkpt>
      <trkpt lat="42.20247" lon="2.25917">
        <ele>869.8</ele>
        <time>2022-05-22 00:13:08</time>
      </trkpt>
      <trkpt lat="42.20242" lon="2.25918">
        <ele>870</ele>
        <time>2022-05-22 00:13:09</time>
      </trkpt>
      <trkpt lat="42.20237" lon="2.25918">
        <ele>870</ele>
        <time>2022-05-22 00:13:10</time>
      </trkpt>
      <trkpt lat="42.20232" lon="2.25919">
        <ele>870.2</ele>
        <time>2022-05-22 00:13:11</time>
      </trkpt>
      <trkpt lat="42.20228" lon="2.25919">
        <ele>870.2</ele>
        <time>2022-05-22 00:13:12</time>
      </trkpt>
      <trkpt lat="42.20223" lon="2.2592">
        <ele>870.4</ele>
        <time>2022-05-22 00:13:13</time>
      </trkpt>
      <trkpt lat="42.20218" lon="2.2592">
        <ele>870.4</ele>
        <time>2022-05-22 00:13:14</time>
      </trkpt>
      <trkpt lat="42.20213" lon="2.2592">
        <ele>870.4</ele>
        <time>2022-05-22 00:13:15</time>
      </trkpt>
      <trkpt lat="42.20209" lon="2.2592">
        <ele>870.4</ele>
        <time>2022-05-22 00:13:16</time>
      </trkpt>
      <trkpt lat="42.20204" lon="2.25921">
        <ele>870.4</ele>
        <time>2022-05-22 00:13:17</time>
      </trkpt>
      <trkpt lat="42.20199" lon="2.25922">
        <ele>870.6</ele>
        <time>2022-05-22 00:13:18</time>
      </trkpt>
      <trkpt lat="42.20193" lon="2.25922">
        <ele>870.6</ele>
        <time>2022-05-22 00:13:19</time>
      </trkpt>
      <trkpt lat="42.20188" lon="2.25923">
        <ele>870.6</ele>
        <time>2022-05-22 00:13:20</time>
      </trkpt>
      <trkpt lat="42.20183" lon="2.25924">
        <ele>870.6</ele>
        <time>2022-05-22 00:13:21</time>
      </trkpt>
      <trkpt lat="42.20178" lon="2.25925">
        <ele>870.6</ele>
        <time>2022-05-22 00:13:22</time>
      </trkpt>
      <trkpt lat="42.20173" lon="2.25926">
        <ele>870.6</ele>
        <time>2022-05-22 00:13:23</time>
      </trkpt>
      <trkpt lat="42.20168" lon="2.25927">
        <ele>870.8</ele>
        <time>2022-05-22 00:13:24</time>
      </trkpt>
      <trkpt lat="42.20163" lon="2.25928">
        <ele>870.8</ele>
        <time>2022-05-22 00:13:25</time>
      </trkpt>
      <trkpt lat="42.20158" lon="2.25929">
        <ele>870.8</ele>
        <time>2022-05-22 00:13:26</time>
      </trkpt>
      <trkpt lat="42.20153" lon="2.2593">
        <ele>871</ele>
        <time>2022-05-22 00:13:27</time>
      </trkpt>
      <trkpt lat="42.20148" lon="2.25931">
        <ele>871</ele>
        <time>2022-05-22 00:13:28</time>
      </trkpt>
      <trkpt lat="42.20143" lon="2.25932">
        <ele>871.2</ele>
        <time>2022-05-22 00:13:29</time>
      </trkpt>
      <trkpt lat="42.20138" lon="2.25932">
        <ele>871.2</ele>
        <time>2022-05-22 00:13:30</time>
      </trkpt>
      <trkpt lat="42.20133" lon="2.25932">
        <ele>871.2</ele>
        <time>2022-05-22 00:13:31</time>
      </trkpt>
      <trkpt lat="42.20128" lon="2.25931">
        <ele>871.2</ele>
        <time>2022-05-22 00:13:32</time>
      </trkpt>
      <trkpt lat="42.20123" lon="2.25929">
        <ele>871.4</ele>
        <time>2022-05-22 00:13:33</time>
      </trkpt>
      <trkpt lat="42.20118" lon="2.25927">
        <ele>871.4</ele>
        <time>2022-05-22 00:13:34</time>
      </trkpt>
      <trkpt lat="42.20113" lon="2.25925">
        <ele>871.4</ele>
        <time>2022-05-22 00:13:35</time>
      </trkpt>
      <trkpt lat="42.20108" lon="2.25922">
        <ele>871.4</ele>
        <time>2022-05-22 00:13:36</time>
      </trkpt>
      <trkpt lat="42.20103" lon="2.25919">
        <ele>871.4</ele>
        <time>2022-05-22 00:13:37</time>
      </trkpt>
      <trkpt lat="42.20099" lon="2.25916">
        <ele>871.6</ele>
        <time>2022-05-22 00:13:38</time>
      </trkpt>
      <trkpt lat="42.20095" lon="2.25914">
        <ele>871.6</ele>
        <time>2022-05-22 00:13:39</time>
      </trkpt>
      <trkpt lat="42.2009" lon="2.25911">
        <ele>871.6</ele>
        <time>2022-05-22 00:13:40</time>
      </trkpt>
      <trkpt lat="42.20086" lon="2.25908">
        <ele>871.6</ele>
        <time>2022-05-22 00:13:41</time>
      </trkpt>
      <trkpt lat="42.20082" lon="2.25905">
        <ele>871.6</ele>
        <time>2022-05-22 00:13:42</time>
      </trkpt>
      <trkpt lat="42.20078" lon="2.25902">
        <ele>871.8</ele>
        <time>2022-05-22 00:13:43</time>
      </trkpt>
      <trkpt lat="42.20073" lon="2.25899">
        <ele>871.8</ele>
        <time>2022-05-22 00:13:44</time>
      </trkpt>
      <trkpt lat="42.20069" lon="2.25897">
        <ele>871.8</ele>
        <time>2022-05-22 00:13:45</time>
      </trkpt>
      <trkpt lat="42.20064" lon="2.25894">
        <ele>871.8</ele>
        <time>2022-05-22 00:13:46</time>
      </trkpt>
      <trkpt lat="42.2006" lon="2.25892">
        <ele>872</ele>
        <time>2022-05-22 00:13:47</time>
      </trkpt>
      <trkpt lat="42.20055" lon="2.25891">
        <ele>872</ele>
        <time>2022-05-22 00:13:48</time>
      </trkpt>
      <trkpt lat="42.20049" lon="2.25891">
        <ele>872.2</ele>
        <time>2022-05-22 00:13:49</time>
      </trkpt>
      <trkpt lat="42.20044" lon="2.25891">
        <ele>872.2</ele>
        <time>2022-05-22 00:13:50</time>
      </trkpt>
      <trkpt lat="42.2004" lon="2.25891">
        <ele>872.2</ele>
        <time>2022-05-22 00:13:51</time>
      </trkpt>
      <trkpt lat="42.20034" lon="2.25892">
        <ele>872.4</ele>
        <time>2022-05-22 00:13:52</time>
      </trkpt>
      <trkpt lat="42.20029" lon="2.25892">
        <ele>872.4</ele>
        <time>2022-05-22 00:13:53</time>
      </trkpt>
      <trkpt lat="42.20024" lon="2.25891">
        <ele>872.6</ele>
        <time>2022-05-22 00:13:54</time>
      </trkpt>
      <trkpt lat="42.2002" lon="2.25891">
        <ele>872.8</ele>
        <time>2022-05-22 00:13:55</time>
      </trkpt>
      <trkpt lat="42.20015" lon="2.25889">
        <ele>873</ele>
        <time>2022-05-22 00:13:56</time>
      </trkpt>
      <trkpt lat="42.20011" lon="2.25888">
        <ele>873.2</ele>
        <time>2022-05-22 00:13:57</time>
      </trkpt>
      <trkpt lat="42.20007" lon="2.25885">
        <ele>873.4</ele>
        <time>2022-05-22 00:13:58</time>
      </trkpt>
      <trkpt lat="42.20003" lon="2.25883">
        <ele>873.8</ele>
        <time>2022-05-22 00:13:59</time>
      </trkpt>
      <trkpt lat="42.19999" lon="2.25881">
        <ele>874</ele>
        <time>2022-05-22 00:14:00</time>
      </trkpt>
      <trkpt lat="42.19995" lon="2.25878">
        <ele>874.2</ele>
        <time>2022-05-22 00:14:01</time>
      </trkpt>
      <trkpt lat="42.19991" lon="2.25876">
        <ele>874.4</ele>
        <time>2022-05-22 00:14:02</time>
      </trkpt>
      <trkpt lat="42.19987" lon="2.25873">
        <ele>874.6</ele>
        <time>2022-05-22 00:14:03</time>
      </trkpt>
      <trkpt lat="42.19984" lon="2.2587">
        <ele>874.8</ele>
        <time>2022-05-22 00:14:04</time>
      </trkpt>
      <trkpt lat="42.1998" lon="2.25868">
        <ele>875</ele>
        <time>2022-05-22 00:14:05</time>
      </trkpt>
      <trkpt lat="42.19977" lon="2.25865">
        <ele>875.2</ele>
        <time>2022-05-22 00:14:06</time>
      </trkpt>
      <trkpt lat="42.19974" lon="2.25862">
        <ele>875.4</ele>
        <time>2022-05-22 00:14:07</time>
      </trkpt>
      <trkpt lat="42.19971" lon="2.25858">
        <ele>875.6</ele>
        <time>2022-05-22 00:14:08</time>
      </trkpt>
      <trkpt lat="42.19969" lon="2.25855">
        <ele>875.8</ele>
        <time>2022-05-22 00:14:09</time>
      </trkpt>
      <trkpt lat="42.19966" lon="2.25851">
        <ele>876</ele>
        <time>2022-05-22 00:14:10</time>
      </trkpt>
      <trkpt lat="42.19964" lon="2.25847">
        <ele>876.2</ele>
        <time>2022-05-22 00:14:11</time>
      </trkpt>
      <trkpt lat="42.19961" lon="2.25843">
        <ele>876.2</ele>
        <time>2022-05-22 00:14:12</time>
      </trkpt>
      <trkpt lat="42.19958" lon="2.25839">
        <ele>876.4</ele>
        <time>2022-05-22 00:14:13</time>
      </trkpt>
      <trkpt lat="42.19955" lon="2.25835">
        <ele>876.6</ele>
        <time>2022-05-22 00:14:14</time>
      </trkpt>
      <trkpt lat="42.19952" lon="2.25832">
        <ele>876.8</ele>
        <time>2022-05-22 00:14:15</time>
      </trkpt>
      <trkpt lat="42.19949" lon="2.25828">
        <ele>876.8</ele>
        <time>2022-05-22 00:14:16</time>
      </trkpt>
      <trkpt lat="42.19946" lon="2.25825">
        <ele>877</ele>
        <time>2022-05-22 00:14:17</time>
      </trkpt>
      <trkpt lat="42.19943" lon="2.25821">
        <ele>877</ele>
        <time>2022-05-22 00:14:18</time>
      </trkpt>
      <trkpt lat="42.1994" lon="2.25818">
        <ele>877.2</ele>
        <time>2022-05-22 00:14:19</time>
      </trkpt>
      <trkpt lat="42.19937" lon="2.25815">
        <ele>877.2</ele>
        <time>2022-05-22 00:14:20</time>
      </trkpt>
      <trkpt lat="42.19934" lon="2.25811">
        <ele>877.4</ele>
        <time>2022-05-22 00:14:21</time>
      </trkpt>
      <trkpt lat="42.19931" lon="2.25808">
        <ele>877.4</ele>
        <time>2022-05-22 00:14:22</time>
      </trkpt>
      <trkpt lat="42.19927" lon="2.25804">
        <ele>877.4</ele>
        <time>2022-05-22 00:14:23</time>
      </trkpt>
      <trkpt lat="42.19924" lon="2.258">
        <ele>877.6</ele>
        <time>2022-05-22 00:14:24</time>
      </trkpt>
      <trkpt lat="42.19921" lon="2.25795">
        <ele>877.6</ele>
        <time>2022-05-22 00:14:25</time>
      </trkpt>
      <trkpt lat="42.19919" lon="2.25791">
        <ele>877.6</ele>
        <time>2022-05-22 00:14:26</time>
      </trkpt>
      <trkpt lat="42.19917" lon="2.25786">
        <ele>877.6</ele>
        <time>2022-05-22 00:14:27</time>
      </trkpt>
      <trkpt lat="42.19915" lon="2.25781">
        <ele>877.8</ele>
        <time>2022-05-22 00:14:28</time>
      </trkpt>
      <trkpt lat="42.19913" lon="2.25775">
        <ele>877.8</ele>
        <time>2022-05-22 00:14:29</time>
      </trkpt>
      <trkpt lat="42.19912" lon="2.2577">
        <ele>877.8</ele>
        <time>2022-05-22 00:14:30</time>
      </trkpt>
      <trkpt lat="42.1991" lon="2.25764">
        <ele>878</ele>
        <time>2022-05-22 00:14:31</time>
      </trkpt>
      <trkpt lat="42.19909" lon="2.25759">
        <ele>878</ele>
        <time>2022-05-22 00:14:32</time>
      </trkpt>
      <trkpt lat="42.19907" lon="2.25754">
        <ele>878</ele>
        <time>2022-05-22 00:14:33</time>
      </trkpt>
      <trkpt lat="42.19906" lon="2.25748">
        <ele>878</ele>
        <time>2022-05-22 00:14:34</time>
      </trkpt>
      <trkpt lat="42.19905" lon="2.25743">
        <ele>878.2</ele>
        <time>2022-05-22 00:14:35</time>
      </trkpt>
      <trkpt lat="42.19904" lon="2.25737">
        <ele>878.2</ele>
        <time>2022-05-22 00:14:36</time>
      </trkpt>
      <trkpt lat="42.19903" lon="2.25731">
        <ele>878.2</ele>
        <time>2022-05-22 00:14:37</time>
      </trkpt>
      <trkpt lat="42.19902" lon="2.25725">
        <ele>878.2</ele>
        <time>2022-05-22 00:14:38</time>
      </trkpt>
      <trkpt lat="42.19901" lon="2.2572">
        <ele>878.4</ele>
        <time>2022-05-22 00:14:39</time>
      </trkpt>
      <trkpt lat="42.199" lon="2.25714">
        <ele>878.4</ele>
        <time>2022-05-22 00:14:40</time>
      </trkpt>
      <trkpt lat="42.19899" lon="2.25708">
        <ele>878.6</ele>
        <time>2022-05-22 00:14:41</time>
      </trkpt>
      <trkpt lat="42.19898" lon="2.25702">
        <ele>878.6</ele>
        <time>2022-05-22 00:14:42</time>
      </trkpt>
      <trkpt lat="42.19897" lon="2.25697">
        <ele>878.8</ele>
        <time>2022-05-22 00:14:43</time>
      </trkpt>
      <trkpt lat="42.19897" lon="2.25691">
        <ele>878.8</ele>
        <time>2022-05-22 00:14:44</time>
      </trkpt>
      <trkpt lat="42.19896" lon="2.25685">
        <ele>878.8</ele>
        <time>2022-05-22 00:14:45</time>
      </trkpt>
      <trkpt lat="42.19896" lon="2.25678">
        <ele>879</ele>
        <time>2022-05-22 00:14:46</time>
      </trkpt>
      <trkpt lat="42.19896" lon="2.25672">
        <ele>879</ele>
        <time>2022-05-22 00:14:47</time>
      </trkpt>
      <trkpt lat="42.19896" lon="2.25665">
        <ele>879.2</ele>
        <time>2022-05-22 00:14:48</time>
      </trkpt>
      <trkpt lat="42.19896" lon="2.25658">
        <ele>879.2</ele>
        <time>2022-05-22 00:14:49</time>
      </trkpt>
      <trkpt lat="42.19896" lon="2.25652">
        <ele>879.4</ele>
        <time>2022-05-22 00:14:50</time>
      </trkpt>
      <trkpt lat="42.19896" lon="2.25646">
        <ele>879.4</ele>
        <time>2022-05-22 00:14:51</time>
      </trkpt>
      <trkpt lat="42.19896" lon="2.2564">
        <ele>879.6</ele>
        <time>2022-05-22 00:14:52</time>
      </trkpt>
      <trkpt lat="42.19897" lon="2.25634">
        <ele>879.6</ele>
        <time>2022-05-22 00:14:53</time>
      </trkpt>
      <trkpt lat="42.19897" lon="2.25628">
        <ele>879.8</ele>
        <time>2022-05-22 00:14:54</time>
      </trkpt>
      <trkpt lat="42.19898" lon="2.25621">
        <ele>879.8</ele>
        <time>2022-05-22 00:14:55</time>
      </trkpt>
      <trkpt lat="42.19899" lon="2.25615">
        <ele>879.8</ele>
        <time>2022-05-22 00:14:56</time>
      </trkpt>
      <trkpt lat="42.19899" lon="2.25609">
        <ele>880</ele>
        <time>2022-05-22 00:14:57</time>
      </trkpt>
      <trkpt lat="42.199" lon="2.25602">
        <ele>880</ele>
        <time>2022-05-22 00:14:58</time>
      </trkpt>
      <trkpt lat="42.199" lon="2.25596">
        <ele>880.2</ele>
        <time>2022-05-22 00:14:59</time>
      </trkpt>
      <trkpt lat="42.19901" lon="2.2559">
        <ele>880.2</ele>
        <time>2022-05-22 00:15:00</time>
      </trkpt>
      <trkpt lat="42.19902" lon="2.25585">
        <ele>880.4</ele>
        <time>2022-05-22 00:15:01</time>
      </trkpt>
      <trkpt lat="42.19903" lon="2.25578">
        <ele>880.4</ele>
        <time>2022-05-22 00:15:02</time>
      </trkpt>
      <trkpt lat="42.19904" lon="2.25572">
        <ele>880.4</ele>
        <time>2022-05-22 00:15:03</time>
      </trkpt>
      <trkpt lat="42.19906" lon="2.25566">
        <ele>880.6</ele>
        <time>2022-05-22 00:15:04</time>
      </trkpt>
      <trkpt lat="42.19908" lon="2.2556">
        <ele>880.8</ele>
        <time>2022-05-22 00:15:05</time>
      </trkpt>
      <trkpt lat="42.1991" lon="2.25555">
        <ele>880.8</ele>
        <time>2022-05-22 00:15:06</time>
      </trkpt>
      <trkpt lat="42.19912" lon="2.25549">
        <ele>881</ele>
        <time>2022-05-22 00:15:07</time>
      </trkpt>
      <trkpt lat="42.19914" lon="2.25544">
        <ele>881</ele>
        <time>2022-05-22 00:15:08</time>
      </trkpt>
      <trkpt lat="42.19917" lon="2.25539">
        <ele>881.2</ele>
        <time>2022-05-22 00:15:09</time>
      </trkpt>
      <trkpt lat="42.1992" lon="2.25534">
        <ele>881.4</ele>
        <time>2022-05-22 00:15:10</time>
      </trkpt>
      <trkpt lat="42.19922" lon="2.2553">
        <ele>881.4</ele>
        <time>2022-05-22 00:15:11</time>
      </trkpt>
      <trkpt lat="42.19925" lon="2.25525">
        <ele>881.6</ele>
        <time>2022-05-22 00:15:12</time>
      </trkpt>
      <trkpt lat="42.19928" lon="2.2552">
        <ele>881.8</ele>
        <time>2022-05-22 00:15:13</time>
      </trkpt>
      <trkpt lat="42.19931" lon="2.25515">
        <ele>882</ele>
        <time>2022-05-22 00:15:14</time>
      </trkpt>
      <trkpt lat="42.19933" lon="2.25511">
        <ele>882</ele>
        <time>2022-05-22 00:15:15</time>
      </trkpt>
      <trkpt lat="42.19935" lon="2.25506">
        <ele>882.2</ele>
        <time>2022-05-22 00:15:16</time>
      </trkpt>
      <trkpt lat="42.19938" lon="2.25502">
        <ele>882.4</ele>
        <time>2022-05-22 00:15:17</time>
      </trkpt>
      <trkpt lat="42.1994" lon="2.25498">
        <ele>882.6</ele>
        <time>2022-05-22 00:15:18</time>
      </trkpt>
      <trkpt lat="42.19943" lon="2.25494">
        <ele>882.6</ele>
        <time>2022-05-22 00:15:19</time>
      </trkpt>
      <trkpt lat="42.19945" lon="2.25489">
        <ele>882.8</ele>
        <time>2022-05-22 00:15:20</time>
      </trkpt>
      <trkpt lat="42.19947" lon="2.25485">
        <ele>883</ele>
        <time>2022-05-22 00:15:21</time>
      </trkpt>
      <trkpt lat="42.19949" lon="2.2548">
        <ele>883.2</ele>
        <time>2022-05-22 00:15:22</time>
      </trkpt>
      <trkpt lat="42.1995" lon="2.25475">
        <ele>883.2</ele>
        <time>2022-05-22 00:15:23</time>
      </trkpt>
      <trkpt lat="42.19951" lon="2.2547">
        <ele>883.4</ele>
        <time>2022-05-22 00:15:24</time>
      </trkpt>
      <trkpt lat="42.19951" lon="2.25464">
        <ele>883.6</ele>
        <time>2022-05-22 00:15:25</time>
      </trkpt>
      <trkpt lat="42.19951" lon="2.25459">
        <ele>883.6</ele>
        <time>2022-05-22 00:15:26</time>
      </trkpt>
      <trkpt lat="42.19951" lon="2.25454">
        <ele>883.8</ele>
        <time>2022-05-22 00:15:27</time>
      </trkpt>
      <trkpt lat="42.1995" lon="2.2545">
        <ele>884</ele>
        <time>2022-05-22 00:15:28</time>
      </trkpt>
      <trkpt lat="42.19948" lon="2.25445">
        <ele>884.2</ele>
        <time>2022-05-22 00:15:29</time>
      </trkpt>
      <trkpt lat="42.19947" lon="2.25441">
        <ele>884.2</ele>
        <time>2022-05-22 00:15:30</time>
      </trkpt>
      <trkpt lat="42.19944" lon="2.25436">
        <ele>884.4</ele>
        <time>2022-05-22 00:15:31</time>
      </trkpt>
      <trkpt lat="42.19942" lon="2.25432">
        <ele>884.6</ele>
        <time>2022-05-22 00:15:32</time>
      </trkpt>
      <trkpt lat="42.19939" lon="2.25428">
        <ele>884.6</ele>
        <time>2022-05-22 00:15:33</time>
      </trkpt>
      <trkpt lat="42.19937" lon="2.25424">
        <ele>884.6</ele>
        <time>2022-05-22 00:15:34</time>
      </trkpt>
      <trkpt lat="42.19934" lon="2.2542">
        <ele>884.8</ele>
        <time>2022-05-22 00:15:35</time>
      </trkpt>
      <trkpt lat="42.19931" lon="2.25415">
        <ele>884.8</ele>
        <time>2022-05-22 00:15:36</time>
      </trkpt>
      <trkpt lat="42.19927" lon="2.25412">
        <ele>885</ele>
        <time>2022-05-22 00:15:37</time>
      </trkpt>
      <trkpt lat="42.19924" lon="2.25408">
        <ele>885</ele>
        <time>2022-05-22 00:15:38</time>
      </trkpt>
      <trkpt lat="42.1992" lon="2.25405">
        <ele>885.2</ele>
        <time>2022-05-22 00:15:39</time>
      </trkpt>
      <trkpt lat="42.19916" lon="2.25402">
        <ele>885.2</ele>
        <time>2022-05-22 00:15:40</time>
      </trkpt>
      <trkpt lat="42.19912" lon="2.25399">
        <ele>885.2</ele>
        <time>2022-05-22 00:15:41</time>
      </trkpt>
      <trkpt lat="42.19908" lon="2.25397">
        <ele>885.4</ele>
        <time>2022-05-22 00:15:42</time>
      </trkpt>
      <trkpt lat="42.19903" lon="2.25395">
        <ele>885.4</ele>
        <time>2022-05-22 00:15:43</time>
      </trkpt>
      <trkpt lat="42.19899" lon="2.25393">
        <ele>885.4</ele>
        <time>2022-05-22 00:15:44</time>
      </trkpt>
      <trkpt lat="42.19894" lon="2.25392">
        <ele>885.4</ele>
        <time>2022-05-22 00:15:45</time>
      </trkpt>
      <trkpt lat="42.1989" lon="2.2539">
        <ele>885.6</ele>
        <time>2022-05-22 00:15:46</time>
      </trkpt>
      <trkpt lat="42.19885" lon="2.25389">
        <ele>885.6</ele>
        <time>2022-05-22 00:15:47</time>
      </trkpt>
      <trkpt lat="42.19881" lon="2.25387">
        <ele>885.6</ele>
        <time>2022-05-22 00:15:48</time>
      </trkpt>
      <trkpt lat="42.19876" lon="2.25386">
        <ele>885.6</ele>
        <time>2022-05-22 00:15:49</time>
      </trkpt>
      <trkpt lat="42.19872" lon="2.25383">
        <ele>885.8</ele>
        <time>2022-05-22 00:15:50</time>
      </trkpt>
      <trkpt lat="42.19867" lon="2.25381">
        <ele>885.8</ele>
        <time>2022-05-22 00:15:51</time>
      </trkpt>
      <trkpt lat="42.19863" lon="2.25378">
        <ele>885.8</ele>
        <time>2022-05-22 00:15:52</time>
      </trkpt>
      <trkpt lat="42.19859" lon="2.25375">
        <ele>886</ele>
        <time>2022-05-22 00:15:53</time>
      </trkpt>
      <trkpt lat="42.19855" lon="2.25372">
        <ele>886</ele>
        <time>2022-05-22 00:15:54</time>
      </trkpt>
      <trkpt lat="42.19852" lon="2.25369">
        <ele>886</ele>
        <time>2022-05-22 00:15:55</time>
      </trkpt>
      <trkpt lat="42.19848" lon="2.25365">
        <ele>886.2</ele>
        <time>2022-05-22 00:15:56</time>
      </trkpt>
      <trkpt lat="42.19845" lon="2.25361">
        <ele>886.2</ele>
        <time>2022-05-22 00:15:57</time>
      </trkpt>
      <trkpt lat="42.19843" lon="2.25356">
        <ele>886.2</ele>
        <time>2022-05-22 00:15:58</time>
      </trkpt>
      <trkpt lat="42.1984" lon="2.25351">
        <ele>886.4</ele>
        <time>2022-05-22 00:15:59</time>
      </trkpt>
      <trkpt lat="42.19838" lon="2.25346">
        <ele>886.4</ele>
        <time>2022-05-22 00:16:00</time>
      </trkpt>
      <trkpt lat="42.19837" lon="2.25341">
        <ele>886.4</ele>
        <time>2022-05-22 00:16:01</time>
      </trkpt>
      <trkpt lat="42.19837" lon="2.25335">
        <ele>886.6</ele>
        <time>2022-05-22 00:16:02</time>
      </trkpt>
      <trkpt lat="42.19838" lon="2.25329">
        <ele>886.8</ele>
        <time>2022-05-22 00:16:03</time>
      </trkpt>
      <trkpt lat="42.19838" lon="2.25323">
        <ele>886.8</ele>
        <time>2022-05-22 00:16:04</time>
      </trkpt>
      <trkpt lat="42.19838" lon="2.25318">
        <ele>887</ele>
        <time>2022-05-22 00:16:05</time>
      </trkpt>
      <trkpt lat="42.19838" lon="2.25312">
        <ele>887</ele>
        <time>2022-05-22 00:16:06</time>
      </trkpt>
      <trkpt lat="42.19837" lon="2.25307">
        <ele>887.2</ele>
        <time>2022-05-22 00:16:07</time>
      </trkpt>
      <trkpt lat="42.19836" lon="2.25301">
        <ele>887.4</ele>
        <time>2022-05-22 00:16:08</time>
      </trkpt>
      <trkpt lat="42.19835" lon="2.25296">
        <ele>887.4</ele>
        <time>2022-05-22 00:16:09</time>
      </trkpt>
      <trkpt lat="42.19832" lon="2.25292">
        <ele>887.6</ele>
        <time>2022-05-22 00:16:10</time>
      </trkpt>
      <trkpt lat="42.19829" lon="2.25288">
        <ele>887.6</ele>
        <time>2022-05-22 00:16:11</time>
      </trkpt>
      <trkpt lat="42.19826" lon="2.25285">
        <ele>887.8</ele>
        <time>2022-05-22 00:16:12</time>
      </trkpt>
      <trkpt lat="42.19822" lon="2.25283">
        <ele>888</ele>
        <time>2022-05-22 00:16:13</time>
      </trkpt>
      <trkpt lat="42.19818" lon="2.25281">
        <ele>888</ele>
        <time>2022-05-22 00:16:14</time>
      </trkpt>
      <trkpt lat="42.19815" lon="2.2528">
        <ele>888.2</ele>
        <time>2022-05-22 00:16:15</time>
      </trkpt>
      <trkpt lat="42.19813" lon="2.2528">
        <ele>888.2</ele>
        <time>2022-05-22 00:16:16</time>
      </trkpt>
      <trkpt lat="42.19808" lon="2.2528">
        <ele>888.4</ele>
        <time>2022-05-22 00:16:17</time>
      </trkpt>
      <trkpt lat="42.19801" lon="2.25281">
        <ele>888.6</ele>
        <time>2022-05-22 00:16:18</time>
      </trkpt>
      <trkpt lat="42.19798" lon="2.25282">
        <ele>888.8</ele>
        <time>2022-05-22 00:16:19</time>
      </trkpt>
      <trkpt lat="42.19794" lon="2.25283">
        <ele>888.8</ele>
        <time>2022-05-22 00:16:20</time>
      </trkpt>
      <trkpt lat="42.1979" lon="2.25283">
        <ele>889</ele>
        <time>2022-05-22 00:16:21</time>
      </trkpt>
      <trkpt lat="42.19786" lon="2.25282">
        <ele>889.2</ele>
        <time>2022-05-22 00:16:22</time>
      </trkpt>
      <trkpt lat="42.19783" lon="2.2528">
        <ele>889.4</ele>
        <time>2022-05-22 00:16:23</time>
      </trkpt>
      <trkpt lat="42.1978" lon="2.25278">
        <ele>889.4</ele>
        <time>2022-05-22 00:16:24</time>
      </trkpt>
      <trkpt lat="42.19778" lon="2.25275">
        <ele>889.6</ele>
        <time>2022-05-22 00:16:25</time>
      </trkpt>
      <trkpt lat="42.19776" lon="2.25271">
        <ele>889.8</ele>
        <time>2022-05-22 00:16:26</time>
      </trkpt>
      <trkpt lat="42.19775" lon="2.25266">
        <ele>890</ele>
        <time>2022-05-22 00:16:27</time>
      </trkpt>
      <trkpt lat="42.19774" lon="2.25261">
        <ele>890.2</ele>
        <time>2022-05-22 00:16:28</time>
      </trkpt>
      <trkpt lat="42.19774" lon="2.25257">
        <ele>890.2</ele>
        <time>2022-05-22 00:16:29</time>
      </trkpt>
      <trkpt lat="42.19774" lon="2.25252">
        <ele>890.4</ele>
        <time>2022-05-22 00:16:30</time>
      </trkpt>
      <trkpt lat="42.19773" lon="2.25247">
        <ele>890.6</ele>
        <time>2022-05-22 00:16:31</time>
      </trkpt>
      <trkpt lat="42.19773" lon="2.25243">
        <ele>890.8</ele>
        <time>2022-05-22 00:16:32</time>
      </trkpt>
      <trkpt lat="42.19772" lon="2.25238">
        <ele>891</ele>
        <time>2022-05-22 00:16:33</time>
      </trkpt>
      <trkpt lat="42.19771" lon="2.25233">
        <ele>891</ele>
        <time>2022-05-22 00:16:34</time>
      </trkpt>
      <trkpt lat="42.1977" lon="2.25229">
        <ele>891.2</ele>
        <time>2022-05-22 00:16:35</time>
      </trkpt>
      <trkpt lat="42.19769" lon="2.25224">
        <ele>891.4</ele>
        <time>2022-05-22 00:16:36</time>
      </trkpt>
      <trkpt lat="42.19768" lon="2.2522">
        <ele>891.6</ele>
        <time>2022-05-22 00:16:37</time>
      </trkpt>
      <trkpt lat="42.19766" lon="2.25215">
        <ele>891.6</ele>
        <time>2022-05-22 00:16:38</time>
      </trkpt>
      <trkpt lat="42.19764" lon="2.25211">
        <ele>891.8</ele>
        <time>2022-05-22 00:16:39</time>
      </trkpt>
      <trkpt lat="42.19762" lon="2.25206">
        <ele>892</ele>
        <time>2022-05-22 00:16:40</time>
      </trkpt>
      <trkpt lat="42.19759" lon="2.25202">
        <ele>892</ele>
        <time>2022-05-22 00:16:41</time>
      </trkpt>
      <trkpt lat="42.19757" lon="2.25198">
        <ele>892.2</ele>
        <time>2022-05-22 00:16:42</time>
      </trkpt>
      <trkpt lat="42.19754" lon="2.25194">
        <ele>892.4</ele>
        <time>2022-05-22 00:16:43</time>
      </trkpt>
      <trkpt lat="42.19751" lon="2.2519">
        <ele>892.4</ele>
        <time>2022-05-22 00:16:44</time>
      </trkpt>
      <trkpt lat="42.19748" lon="2.25186">
        <ele>892.6</ele>
        <time>2022-05-22 00:16:45</time>
      </trkpt>
      <trkpt lat="42.19746" lon="2.25182">
        <ele>892.8</ele>
        <time>2022-05-22 00:16:46</time>
      </trkpt>
      <trkpt lat="42.19743" lon="2.25179">
        <ele>892.8</ele>
        <time>2022-05-22 00:16:47</time>
      </trkpt>
      <trkpt lat="42.1974" lon="2.25175">
        <ele>893</ele>
        <time>2022-05-22 00:16:48</time>
      </trkpt>
      <trkpt lat="42.19737" lon="2.25172">
        <ele>893</ele>
        <time>2022-05-22 00:16:49</time>
      </trkpt>
      <trkpt lat="42.19734" lon="2.25168">
        <ele>893.2</ele>
        <time>2022-05-22 00:16:50</time>
      </trkpt>
      <trkpt lat="42.1973" lon="2.25164">
        <ele>893.2</ele>
        <time>2022-05-22 00:16:51</time>
      </trkpt>
      <trkpt lat="42.19727" lon="2.25159">
        <ele>893.4</ele>
        <time>2022-05-22 00:16:52</time>
      </trkpt>
      <trkpt lat="42.19725" lon="2.25155">
        <ele>893.4</ele>
        <time>2022-05-22 00:16:53</time>
      </trkpt>
      <trkpt lat="42.19722" lon="2.2515">
        <ele>893.4</ele>
        <time>2022-05-22 00:16:54</time>
      </trkpt>
      <trkpt lat="42.1972" lon="2.25145">
        <ele>893.6</ele>
        <time>2022-05-22 00:16:55</time>
      </trkpt>
      <trkpt lat="42.19717" lon="2.2514">
        <ele>893.6</ele>
        <time>2022-05-22 00:16:56</time>
      </trkpt>
      <trkpt lat="42.19715" lon="2.25136">
        <ele>893.8</ele>
        <time>2022-05-22 00:16:57</time>
      </trkpt>
      <trkpt lat="42.19712" lon="2.25132">
        <ele>893.8</ele>
        <time>2022-05-22 00:16:58</time>
      </trkpt>
      <trkpt lat="42.19709" lon="2.25128">
        <ele>894</ele>
        <time>2022-05-22 00:16:59</time>
      </trkpt>
      <trkpt lat="42.19705" lon="2.25126">
        <ele>894</ele>
        <time>2022-05-22 00:17:00</time>
      </trkpt>
      <trkpt lat="42.19702" lon="2.25124">
        <ele>894.2</ele>
        <time>2022-05-22 00:17:01</time>
      </trkpt>
      <trkpt lat="42.19698" lon="2.25123">
        <ele>894.2</ele>
        <time>2022-05-22 00:17:02</time>
      </trkpt>
      <trkpt lat="42.19694" lon="2.25122">
        <ele>894.4</ele>
        <time>2022-05-22 00:17:03</time>
      </trkpt>
      <trkpt lat="42.19691" lon="2.25121">
        <ele>894.4</ele>
        <time>2022-05-22 00:17:04</time>
      </trkpt>
      <trkpt lat="42.19688" lon="2.2512">
        <ele>894.6</ele>
        <time>2022-05-22 00:17:05</time>
      </trkpt>
      <trkpt lat="42.19682" lon="2.25118">
        <ele>894.6</ele>
        <time>2022-05-22 00:17:06</time>
      </trkpt>
      <trkpt lat="42.19678" lon="2.25117">
        <ele>894.8</ele>
        <time>2022-05-22 00:17:07</time>
      </trkpt>
      <trkpt lat="42.19674" lon="2.25114">
        <ele>894.8</ele>
        <time>2022-05-22 00:17:08</time>
      </trkpt>
      <trkpt lat="42.19671" lon="2.25111">
        <ele>895</ele>
        <time>2022-05-22 00:17:09</time>
      </trkpt>
      <trkpt lat="42.19668" lon="2.25107">
        <ele>895</ele>
        <time>2022-05-22 00:17:10</time>
      </trkpt>
      <trkpt lat="42.19665" lon="2.25103">
        <ele>895.2</ele>
        <time>2022-05-22 00:17:11</time>
      </trkpt>
      <trkpt lat="42.19663" lon="2.25098">
        <ele>895.2</ele>
        <time>2022-05-22 00:17:12</time>
      </trkpt>
      <trkpt lat="42.19661" lon="2.25093">
        <ele>895.2</ele>
        <time>2022-05-22 00:17:13</time>
      </trkpt>
      <trkpt lat="42.19659" lon="2.25087">
        <ele>895.4</ele>
        <time>2022-05-22 00:17:14</time>
      </trkpt>
      <trkpt lat="42.19658" lon="2.25082">
        <ele>895.4</ele>
        <time>2022-05-22 00:17:15</time>
      </trkpt>
      <trkpt lat="42.19658" lon="2.25076">
        <ele>895.4</ele>
        <time>2022-05-22 00:17:16</time>
      </trkpt>
      <trkpt lat="42.19659" lon="2.2507">
        <ele>895.6</ele>
        <time>2022-05-22 00:17:17</time>
      </trkpt>
      <trkpt lat="42.1966" lon="2.25064">
        <ele>895.6</ele>
        <time>2022-05-22 00:17:18</time>
      </trkpt>
      <trkpt lat="42.19661" lon="2.25058">
        <ele>895.6</ele>
        <time>2022-05-22 00:17:19</time>
      </trkpt>
      <trkpt lat="42.19661" lon="2.25053">
        <ele>895.6</ele>
        <time>2022-05-22 00:17:20</time>
      </trkpt>
      <trkpt lat="42.19662" lon="2.25047">
        <ele>895.6</ele>
        <time>2022-05-22 00:17:21</time>
      </trkpt>
      <trkpt lat="42.19663" lon="2.25041">
        <ele>895.8</ele>
        <time>2022-05-22 00:17:22</time>
      </trkpt>
      <trkpt lat="42.19664" lon="2.25035">
        <ele>895.8</ele>
        <time>2022-05-22 00:17:23</time>
      </trkpt>
      <trkpt lat="42.19664" lon="2.25028">
        <ele>895.8</ele>
        <time>2022-05-22 00:17:24</time>
      </trkpt>
      <trkpt lat="42.19664" lon="2.25022">
        <ele>895.8</ele>
        <time>2022-05-22 00:17:25</time>
      </trkpt>
      <trkpt lat="42.19663" lon="2.25015">
        <ele>895.8</ele>
        <time>2022-05-22 00:17:26</time>
      </trkpt>
      <trkpt lat="42.19662" lon="2.25009">
        <ele>895.8</ele>
        <time>2022-05-22 00:17:27</time>
      </trkpt>
      <trkpt lat="42.19661" lon="2.25003">
        <ele>895.8</ele>
        <time>2022-05-22 00:17:28</time>
      </trkpt>
      <trkpt lat="42.19658" lon="2.24997">
        <ele>895.8</ele>
        <time>2022-05-22 00:17:29</time>
      </trkpt>
      <trkpt lat="42.19655" lon="2.24992">
        <ele>895.8</ele>
        <time>2022-05-22 00:17:30</time>
      </trkpt>
      <trkpt lat="42.19652" lon="2.24986">
        <ele>895.8</ele>
        <time>2022-05-22 00:17:31</time>
      </trkpt>
      <trkpt lat="42.19649" lon="2.24982">
        <ele>895.8</ele>
        <time>2022-05-22 00:17:32</time>
      </trkpt>
      <trkpt lat="42.19645" lon="2.24979">
        <ele>895.8</ele>
        <time>2022-05-22 00:17:33</time>
      </trkpt>
      <trkpt lat="42.1964" lon="2.24978">
        <ele>895.8</ele>
        <time>2022-05-22 00:17:34</time>
      </trkpt>
      <trkpt lat="42.19634" lon="2.24978">
        <ele>896</ele>
        <time>2022-05-22 00:17:35</time>
      </trkpt>
      <trkpt lat="42.19629" lon="2.24978">
        <ele>896</ele>
        <time>2022-05-22 00:17:36</time>
      </trkpt>
      <trkpt lat="42.19624" lon="2.24978">
        <ele>896</ele>
        <time>2022-05-22 00:17:37</time>
      </trkpt>
      <trkpt lat="42.19619" lon="2.24979">
        <ele>896</ele>
        <time>2022-05-22 00:17:38</time>
      </trkpt>
      <trkpt lat="42.19614" lon="2.2498">
        <ele>896</ele>
        <time>2022-05-22 00:17:39</time>
      </trkpt>
      <trkpt lat="42.19609" lon="2.24982">
        <ele>896</ele>
        <time>2022-05-22 00:17:40</time>
      </trkpt>
      <trkpt lat="42.19605" lon="2.24984">
        <ele>896</ele>
        <time>2022-05-22 00:17:41</time>
      </trkpt>
      <trkpt lat="42.196" lon="2.24986">
        <ele>895.8</ele>
        <time>2022-05-22 00:17:42</time>
      </trkpt>
      <trkpt lat="42.19595" lon="2.24988">
        <ele>895.8</ele>
        <time>2022-05-22 00:17:43</time>
      </trkpt>
      <trkpt lat="42.1959" lon="2.2499">
        <ele>895.8</ele>
        <time>2022-05-22 00:17:44</time>
      </trkpt>
      <trkpt lat="42.19585" lon="2.24991">
        <ele>895.8</ele>
        <time>2022-05-22 00:17:45</time>
      </trkpt>
      <trkpt lat="42.1958" lon="2.24993">
        <ele>895.8</ele>
        <time>2022-05-22 00:17:46</time>
      </trkpt>
      <trkpt lat="42.19574" lon="2.24994">
        <ele>895.6</ele>
        <time>2022-05-22 00:17:47</time>
      </trkpt>
      <trkpt lat="42.19569" lon="2.24994">
        <ele>895.6</ele>
        <time>2022-05-22 00:17:48</time>
      </trkpt>
      <trkpt lat="42.19563" lon="2.24994">
        <ele>895.6</ele>
        <time>2022-05-22 00:17:49</time>
      </trkpt>
      <trkpt lat="42.19558" lon="2.24994">
        <ele>895.6</ele>
        <time>2022-05-22 00:17:50</time>
      </trkpt>
      <trkpt lat="42.19553" lon="2.24994">
        <ele>895.4</ele>
        <time>2022-05-22 00:17:51</time>
      </trkpt>
      <trkpt lat="42.19547" lon="2.24994">
        <ele>895.4</ele>
        <time>2022-05-22 00:17:52</time>
      </trkpt>
      <trkpt lat="42.19541" lon="2.24994">
        <ele>895.4</ele>
        <time>2022-05-22 00:17:53</time>
      </trkpt>
      <trkpt lat="42.19536" lon="2.24994">
        <ele>895.4</ele>
        <time>2022-05-22 00:17:54</time>
      </trkpt>
      <trkpt lat="42.19531" lon="2.24995">
        <ele>895.4</ele>
        <time>2022-05-22 00:17:55</time>
      </trkpt>
      <trkpt lat="42.19525" lon="2.24995">
        <ele>895.4</ele>
        <time>2022-05-22 00:17:56</time>
      </trkpt>
      <trkpt lat="42.1952" lon="2.24995">
        <ele>895.4</ele>
        <time>2022-05-22 00:17:57</time>
      </trkpt>
      <trkpt lat="42.19514" lon="2.24995">
        <ele>895.4</ele>
        <time>2022-05-22 00:17:58</time>
      </trkpt>
      <trkpt lat="42.19509" lon="2.24993">
        <ele>895.4</ele>
        <time>2022-05-22 00:17:59</time>
      </trkpt>
      <trkpt lat="42.19503" lon="2.2499">
        <ele>895.4</ele>
        <time>2022-05-22 00:18:00</time>
      </trkpt>
      <trkpt lat="42.19498" lon="2.24987">
        <ele>895.4</ele>
        <time>2022-05-22 00:18:01</time>
      </trkpt>
      <trkpt lat="42.19492" lon="2.24984">
        <ele>895.4</ele>
        <time>2022-05-22 00:18:02</time>
      </trkpt>
      <trkpt lat="42.19487" lon="2.2498">
        <ele>895.4</ele>
        <time>2022-05-22 00:18:03</time>
      </trkpt>
      <trkpt lat="42.19482" lon="2.24976">
        <ele>895.6</ele>
        <time>2022-05-22 00:18:04</time>
      </trkpt>
      <trkpt lat="42.19478" lon="2.24972">
        <ele>895.6</ele>
        <time>2022-05-22 00:18:05</time>
      </trkpt>
      <trkpt lat="42.19473" lon="2.24968">
        <ele>895.6</ele>
        <time>2022-05-22 00:18:06</time>
      </trkpt>
      <trkpt lat="42.19469" lon="2.24963">
        <ele>895.6</ele>
        <time>2022-05-22 00:18:07</time>
      </trkpt>
      <trkpt lat="42.19465" lon="2.24957">
        <ele>895.6</ele>
        <time>2022-05-22 00:18:08</time>
      </trkpt>
      <trkpt lat="42.19463" lon="2.2495">
        <ele>895.6</ele>
        <time>2022-05-22 00:18:09</time>
      </trkpt>
      <trkpt lat="42.19461" lon="2.24942">
        <ele>895.4</ele>
        <time>2022-05-22 00:18:10</time>
      </trkpt>
      <trkpt lat="42.1946" lon="2.24933">
        <ele>895.4</ele>
        <time>2022-05-22 00:18:11</time>
      </trkpt>
      <trkpt lat="42.19462" lon="2.24925">
        <ele>895.4</ele>
        <time>2022-05-22 00:18:12</time>
      </trkpt>
      <trkpt lat="42.19464" lon="2.24918">
        <ele>895.4</ele>
        <time>2022-05-22 00:18:13</time>
      </trkpt>
      <trkpt lat="42.19468" lon="2.24911">
        <ele>895.4</ele>
        <time>2022-05-22 00:18:14</time>
      </trkpt>
      <trkpt lat="42.19472" lon="2.24906">
        <ele>895.4</ele>
        <time>2022-05-22 00:18:15</time>
      </trkpt>
      <trkpt lat="42.19476" lon="2.249">
        <ele>895.4</ele>
        <time>2022-05-22 00:18:16</time>
      </trkpt>
      <trkpt lat="42.1948" lon="2.24894">
        <ele>895.4</ele>
        <time>2022-05-22 00:18:17</time>
      </trkpt>
      <trkpt lat="42.19484" lon="2.24889">
        <ele>895.4</ele>
        <time>2022-05-22 00:18:18</time>
      </trkpt>
      <trkpt lat="42.19488" lon="2.24883">
        <ele>895.4</ele>
        <time>2022-05-22 00:18:19</time>
      </trkpt>
      <trkpt lat="42.19491" lon="2.24877">
        <ele>895.4</ele>
        <time>2022-05-22 00:18:20</time>
      </trkpt>
      <trkpt lat="42.19494" lon="2.24871">
        <ele>895.4</ele>
        <time>2022-05-22 00:18:21</time>
      </trkpt>
      <trkpt lat="42.19497" lon="2.24866">
        <ele>895.4</ele>
        <time>2022-05-22 00:18:22</time>
      </trkpt>
      <trkpt lat="42.19501" lon="2.24861">
        <ele>895.4</ele>
        <time>2022-05-22 00:18:23</time>
      </trkpt>
      <trkpt lat="42.19504" lon="2.24855">
        <ele>895.4</ele>
        <time>2022-05-22 00:18:24</time>
      </trkpt>
      <trkpt lat="42.19506" lon="2.24849">
        <ele>895.4</ele>
        <time>2022-05-22 00:18:25</time>
      </trkpt>
      <trkpt lat="42.19508" lon="2.24842">
        <ele>895.4</ele>
        <time>2022-05-22 00:18:26</time>
      </trkpt>
      <trkpt lat="42.1951" lon="2.24835">
        <ele>895.4</ele>
        <time>2022-05-22 00:18:27</time>
      </trkpt>
      <trkpt lat="42.19512" lon="2.24828">
        <ele>895.4</ele>
        <time>2022-05-22 00:18:28</time>
      </trkpt>
      <trkpt lat="42.19513" lon="2.24821">
        <ele>895.4</ele>
        <time>2022-05-22 00:18:29</time>
      </trkpt>
      <trkpt lat="42.19514" lon="2.24813">
        <ele>895.4</ele>
        <time>2022-05-22 00:18:30</time>
      </trkpt>
      <trkpt lat="42.19515" lon="2.24806">
        <ele>895.4</ele>
        <time>2022-05-22 00:18:31</time>
      </trkpt>
      <trkpt lat="42.19515" lon="2.24798">
        <ele>895.4</ele>
        <time>2022-05-22 00:18:32</time>
      </trkpt>
      <trkpt lat="42.19515" lon="2.2479">
        <ele>895.4</ele>
        <time>2022-05-22 00:18:33</time>
      </trkpt>
      <trkpt lat="42.19514" lon="2.24783">
        <ele>895.4</ele>
        <time>2022-05-22 00:18:34</time>
      </trkpt>
      <trkpt lat="42.19514" lon="2.24775">
        <ele>895.4</ele>
        <time>2022-05-22 00:18:35</time>
      </trkpt>
      <trkpt lat="42.19514" lon="2.24768">
        <ele>895.4</ele>
        <time>2022-05-22 00:18:36</time>
      </trkpt>
      <trkpt lat="42.19514" lon="2.24761">
        <ele>895.4</ele>
        <time>2022-05-22 00:18:37</time>
      </trkpt>
      <trkpt lat="42.19514" lon="2.24753">
        <ele>895.4</ele>
        <time>2022-05-22 00:18:38</time>
      </trkpt>
      <trkpt lat="42.19515" lon="2.24745">
        <ele>895.4</ele>
        <time>2022-05-22 00:18:39</time>
      </trkpt>
      <trkpt lat="42.19516" lon="2.24738">
        <ele>895.4</ele>
        <time>2022-05-22 00:18:40</time>
      </trkpt>
      <trkpt lat="42.19517" lon="2.2473">
        <ele>895.4</ele>
        <time>2022-05-22 00:18:41</time>
      </trkpt>
      <trkpt lat="42.19518" lon="2.24723">
        <ele>895.4</ele>
        <time>2022-05-22 00:18:42</time>
      </trkpt>
      <trkpt lat="42.19519" lon="2.24716">
        <ele>895.4</ele>
        <time>2022-05-22 00:18:43</time>
      </trkpt>
      <trkpt lat="42.1952" lon="2.24708">
        <ele>895.6</ele>
        <time>2022-05-22 00:18:44</time>
      </trkpt>
      <trkpt lat="42.1952" lon="2.24701">
        <ele>895.6</ele>
        <time>2022-05-22 00:18:45</time>
      </trkpt>
      <trkpt lat="42.1952" lon="2.24694">
        <ele>895.6</ele>
        <time>2022-05-22 00:18:46</time>
      </trkpt>
      <trkpt lat="42.19521" lon="2.24686">
        <ele>895.6</ele>
        <time>2022-05-22 00:18:47</time>
      </trkpt>
      <trkpt lat="42.19521" lon="2.24679">
        <ele>895.4</ele>
        <time>2022-05-22 00:18:48</time>
      </trkpt>
      <trkpt lat="42.19521" lon="2.24671">
        <ele>895.4</ele>
        <time>2022-05-22 00:18:49</time>
      </trkpt>
      <trkpt lat="42.19521" lon="2.24663">
        <ele>895.4</ele>
        <time>2022-05-22 00:18:50</time>
      </trkpt>
      <trkpt lat="42.19522" lon="2.24655">
        <ele>895.4</ele>
        <time>2022-05-22 00:18:51</time>
      </trkpt>
      <trkpt lat="42.19523" lon="2.24647">
        <ele>895.4</ele>
        <time>2022-05-22 00:18:52</time>
      </trkpt>
      <trkpt lat="42.19524" lon="2.24639">
        <ele>895.4</ele>
        <time>2022-05-22 00:18:53</time>
      </trkpt>
      <trkpt lat="42.19526" lon="2.2463">
        <ele>895.4</ele>
        <time>2022-05-22 00:18:54</time>
      </trkpt>
      <trkpt lat="42.19528" lon="2.24622">
        <ele>895.4</ele>
        <time>2022-05-22 00:18:55</time>
      </trkpt>
      <trkpt lat="42.19531" lon="2.24614">
        <ele>895.4</ele>
        <time>2022-05-22 00:18:56</time>
      </trkpt>
      <trkpt lat="42.19533" lon="2.24606">
        <ele>895.4</ele>
        <time>2022-05-22 00:18:57</time>
      </trkpt>
      <trkpt lat="42.19536" lon="2.24598">
        <ele>895.6</ele>
        <time>2022-05-22 00:18:58</time>
      </trkpt>
      <trkpt lat="42.19539" lon="2.2459">
        <ele>895.6</ele>
        <time>2022-05-22 00:18:59</time>
      </trkpt>
      <trkpt lat="42.19543" lon="2.24583">
        <ele>895.4</ele>
        <time>2022-05-22 00:19:00</time>
      </trkpt>
      <trkpt lat="42.19546" lon="2.24575">
        <ele>895.4</ele>
        <time>2022-05-22 00:19:01</time>
      </trkpt>
      <trkpt lat="42.19549" lon="2.24568">
        <ele>895.4</ele>
        <time>2022-05-22 00:19:02</time>
      </trkpt>
      <trkpt lat="42.19551" lon="2.2456">
        <ele>895.4</ele>
        <time>2022-05-22 00:19:03</time>
      </trkpt>
      <trkpt lat="42.19553" lon="2.24552">
        <ele>895.2</ele>
        <time>2022-05-22 00:19:04</time>
      </trkpt>
      <trkpt lat="42.19555" lon="2.24544">
        <ele>895.2</ele>
        <time>2022-05-22 00:19:05</time>
      </trkpt>
      <trkpt lat="42.19557" lon="2.24536">
        <ele>895.2</ele>
        <time>2022-05-22 00:19:06</time>
      </trkpt>
      <trkpt lat="42.19558" lon="2.24527">
        <ele>895</ele>
        <time>2022-05-22 00:19:07</time>
      </trkpt>
      <trkpt lat="42.1956" lon="2.24519">
        <ele>895</ele>
        <time>2022-05-22 00:19:08</time>
      </trkpt>
      <trkpt lat="42.19561" lon="2.24511">
        <ele>895</ele>
        <time>2022-05-22 00:19:09</time>
      </trkpt>
      <trkpt lat="42.19562" lon="2.24503">
        <ele>894.8</ele>
        <time>2022-05-22 00:19:10</time>
      </trkpt>
      <trkpt lat="42.19563" lon="2.24495">
        <ele>894.8</ele>
        <time>2022-05-22 00:19:11</time>
      </trkpt>
      <trkpt lat="42.19564" lon="2.24487">
        <ele>894.8</ele>
        <time>2022-05-22 00:19:12</time>
      </trkpt>
      <trkpt lat="42.19565" lon="2.24479">
        <ele>894.8</ele>
        <time>2022-05-22 00:19:13</time>
      </trkpt>
      <trkpt lat="42.19566" lon="2.24471">
        <ele>894.8</ele>
        <time>2022-05-22 00:19:14</time>
      </trkpt>
      <trkpt lat="42.19568" lon="2.24463">
        <ele>894.8</ele>
        <time>2022-05-22 00:19:15</time>
      </trkpt>
      <trkpt lat="42.19569" lon="2.24455">
        <ele>894.6</ele>
        <time>2022-05-22 00:19:16</time>
      </trkpt>
      <trkpt lat="42.1957" lon="2.24448">
        <ele>894.6</ele>
        <time>2022-05-22 00:19:17</time>
      </trkpt>
      <trkpt lat="42.19571" lon="2.2444">
        <ele>894.6</ele>
        <time>2022-05-22 00:19:18</time>
      </trkpt>
      <trkpt lat="42.19572" lon="2.24432">
        <ele>894.6</ele>
        <time>2022-05-22 00:19:19</time>
      </trkpt>
      <trkpt lat="42.19573" lon="2.24424">
        <ele>894.6</ele>
        <time>2022-05-22 00:19:20</time>
      </trkpt>
      <trkpt lat="42.19575" lon="2.24417">
        <ele>894.4</ele>
        <time>2022-05-22 00:19:21</time>
      </trkpt>
      <trkpt lat="42.19576" lon="2.2441">
        <ele>894.4</ele>
        <time>2022-05-22 00:19:22</time>
      </trkpt>
      <trkpt lat="42.19577" lon="2.24403">
        <ele>894.4</ele>
        <time>2022-05-22 00:19:23</time>
      </trkpt>
      <trkpt lat="42.19578" lon="2.24396">
        <ele>894.4</ele>
        <time>2022-05-22 00:19:24</time>
      </trkpt>
      <trkpt lat="42.19578" lon="2.24388">
        <ele>894.4</ele>
        <time>2022-05-22 00:19:25</time>
      </trkpt>
      <trkpt lat="42.19579" lon="2.24381">
        <ele>894.4</ele>
        <time>2022-05-22 00:19:26</time>
      </trkpt>
      <trkpt lat="42.19579" lon="2.24373">
        <ele>894.4</ele>
        <time>2022-05-22 00:19:27</time>
      </trkpt>
      <trkpt lat="42.19579" lon="2.24366">
        <ele>894.4</ele>
        <time>2022-05-22 00:19:28</time>
      </trkpt>
      <trkpt lat="42.19578" lon="2.24359">
        <ele>894.4</ele>
        <time>2022-05-22 00:19:29</time>
      </trkpt>
      <trkpt lat="42.19578" lon="2.24351">
        <ele>894.4</ele>
        <time>2022-05-22 00:19:30</time>
      </trkpt>
      <trkpt lat="42.19578" lon="2.24344">
        <ele>894.4</ele>
        <time>2022-05-22 00:19:31</time>
      </trkpt>
      <trkpt lat="42.19577" lon="2.24337">
        <ele>894.4</ele>
        <time>2022-05-22 00:19:32</time>
      </trkpt>
      <trkpt lat="42.19577" lon="2.2433">
        <ele>894.4</ele>
        <time>2022-05-22 00:19:33</time>
      </trkpt>
      <trkpt lat="42.19576" lon="2.24323">
        <ele>894.4</ele>
        <time>2022-05-22 00:19:34</time>
      </trkpt>
      <trkpt lat="42.19576" lon="2.24317">
        <ele>894.4</ele>
        <time>2022-05-22 00:19:35</time>
      </trkpt>
      <trkpt lat="42.19576" lon="2.2431">
        <ele>894.4</ele>
        <time>2022-05-22 00:19:36</time>
      </trkpt>
      <trkpt lat="42.19575" lon="2.24304">
        <ele>894.4</ele>
        <time>2022-05-22 00:19:37</time>
      </trkpt>
      <trkpt lat="42.19575" lon="2.24298">
        <ele>894.4</ele>
        <time>2022-05-22 00:19:38</time>
      </trkpt>
      <trkpt lat="42.19575" lon="2.24291">
        <ele>894.4</ele>
        <time>2022-05-22 00:19:39</time>
      </trkpt>
      <trkpt lat="42.19575" lon="2.24285">
        <ele>894.6</ele>
        <time>2022-05-22 00:19:40</time>
      </trkpt>
      <trkpt lat="42.19575" lon="2.24278">
        <ele>894.6</ele>
        <time>2022-05-22 00:19:41</time>
      </trkpt>
      <trkpt lat="42.19574" lon="2.24272">
        <ele>894.6</ele>
        <time>2022-05-22 00:19:42</time>
      </trkpt>
      <trkpt lat="42.19574" lon="2.24266">
        <ele>894.6</ele>
        <time>2022-05-22 00:19:43</time>
      </trkpt>
      <trkpt lat="42.19573" lon="2.24259">
        <ele>894.6</ele>
        <time>2022-05-22 00:19:44</time>
      </trkpt>
      <trkpt lat="42.19573" lon="2.24253">
        <ele>894.6</ele>
        <time>2022-05-22 00:19:45</time>
      </trkpt>
      <trkpt lat="42.19573" lon="2.24247">
        <ele>894.8</ele>
        <time>2022-05-22 00:19:46</time>
      </trkpt>
      <trkpt lat="42.19572" lon="2.2424">
        <ele>894.8</ele>
        <time>2022-05-22 00:19:47</time>
      </trkpt>
      <trkpt lat="42.19572" lon="2.24233">
        <ele>894.8</ele>
        <time>2022-05-22 00:19:48</time>
      </trkpt>
      <trkpt lat="42.19572" lon="2.24227">
        <ele>894.8</ele>
        <time>2022-05-22 00:19:49</time>
      </trkpt>
      <trkpt lat="42.19572" lon="2.24221">
        <ele>895</ele>
        <time>2022-05-22 00:19:50</time>
      </trkpt>
      <trkpt lat="42.19571" lon="2.24214">
        <ele>895</ele>
        <time>2022-05-22 00:19:51</time>
      </trkpt>
      <trkpt lat="42.19571" lon="2.24208">
        <ele>895</ele>
        <time>2022-05-22 00:19:52</time>
      </trkpt>
      <trkpt lat="42.19571" lon="2.24201">
        <ele>895</ele>
        <time>2022-05-22 00:19:53</time>
      </trkpt>
      <trkpt lat="42.19571" lon="2.24195">
        <ele>895</ele>
        <time>2022-05-22 00:19:54</time>
      </trkpt>
      <trkpt lat="42.19571" lon="2.24189">
        <ele>895</ele>
        <time>2022-05-22 00:19:55</time>
      </trkpt>
      <trkpt lat="42.1957" lon="2.24182">
        <ele>895</ele>
        <time>2022-05-22 00:19:56</time>
      </trkpt>
      <trkpt lat="42.1957" lon="2.24176">
        <ele>895</ele>
        <time>2022-05-22 00:19:57</time>
      </trkpt>
      <trkpt lat="42.1957" lon="2.24169">
        <ele>895</ele>
        <time>2022-05-22 00:19:58</time>
      </trkpt>
      <trkpt lat="42.19569" lon="2.24163">
        <ele>895</ele>
        <time>2022-05-22 00:19:59</time>
      </trkpt>
      <trkpt lat="42.19569" lon="2.24157">
        <ele>895</ele>
        <time>2022-05-22 00:20:00</time>
      </trkpt>
      <trkpt lat="42.1957" lon="2.24151">
        <ele>895.2</ele>
        <time>2022-05-22 00:20:01</time>
      </trkpt>
      <trkpt lat="42.1957" lon="2.24144">
        <ele>895.2</ele>
        <time>2022-05-22 00:20:02</time>
      </trkpt>
      <trkpt lat="42.19571" lon="2.24138">
        <ele>895.2</ele>
        <time>2022-05-22 00:20:03</time>
      </trkpt>
      <trkpt lat="42.19572" lon="2.24132">
        <ele>895.2</ele>
        <time>2022-05-22 00:20:04</time>
      </trkpt>
      <trkpt lat="42.19573" lon="2.24126">
        <ele>895.2</ele>
        <time>2022-05-22 00:20:05</time>
      </trkpt>
      <trkpt lat="42.19575" lon="2.2412">
        <ele>895.2</ele>
        <time>2022-05-22 00:20:06</time>
      </trkpt>
      <trkpt lat="42.19577" lon="2.24113">
        <ele>895.2</ele>
        <time>2022-05-22 00:20:07</time>
      </trkpt>
      <trkpt lat="42.19579" lon="2.24108">
        <ele>895.2</ele>
        <time>2022-05-22 00:20:08</time>
      </trkpt>
      <trkpt lat="42.1958" lon="2.24101">
        <ele>895.2</ele>
        <time>2022-05-22 00:20:09</time>
      </trkpt>
      <trkpt lat="42.19582" lon="2.24095">
        <ele>895.2</ele>
        <time>2022-05-22 00:20:10</time>
      </trkpt>
      <trkpt lat="42.19584" lon="2.24089">
        <ele>895.2</ele>
        <time>2022-05-22 00:20:11</time>
      </trkpt>
      <trkpt lat="42.19587" lon="2.24082">
        <ele>895.2</ele>
        <time>2022-05-22 00:20:12</time>
      </trkpt>
      <trkpt lat="42.19589" lon="2.24076">
        <ele>895.2</ele>
        <time>2022-05-22 00:20:13</time>
      </trkpt>
      <trkpt lat="42.19591" lon="2.24069">
        <ele>895</ele>
        <time>2022-05-22 00:20:14</time>
      </trkpt>
      <trkpt lat="42.19593" lon="2.24063">
        <ele>895</ele>
        <time>2022-05-22 00:20:15</time>
      </trkpt>
      <trkpt lat="42.19595" lon="2.24057">
        <ele>895</ele>
        <time>2022-05-22 00:20:16</time>
      </trkpt>
      <trkpt lat="42.19597" lon="2.2405">
        <ele>895</ele>
        <time>2022-05-22 00:20:17</time>
      </trkpt>
      <trkpt lat="42.19599" lon="2.24044">
        <ele>895</ele>
        <time>2022-05-22 00:20:18</time>
      </trkpt>
      <trkpt lat="42.19601" lon="2.24037">
        <ele>895</ele>
        <time>2022-05-22 00:20:19</time>
      </trkpt>
      <trkpt lat="42.19603" lon="2.2403">
        <ele>895</ele>
        <time>2022-05-22 00:20:20</time>
      </trkpt>
      <trkpt lat="42.19606" lon="2.24023">
        <ele>894.8</ele>
        <time>2022-05-22 00:20:21</time>
      </trkpt>
      <trkpt lat="42.19608" lon="2.24017">
        <ele>894.8</ele>
        <time>2022-05-22 00:20:22</time>
      </trkpt>
      <trkpt lat="42.1961" lon="2.2401">
        <ele>894.8</ele>
        <time>2022-05-22 00:20:23</time>
      </trkpt>
      <trkpt lat="42.19611" lon="2.24003">
        <ele>894.8</ele>
        <time>2022-05-22 00:20:24</time>
      </trkpt>
      <trkpt lat="42.19612" lon="2.23996">
        <ele>894.8</ele>
        <time>2022-05-22 00:20:25</time>
      </trkpt>
      <trkpt lat="42.19613" lon="2.23988">
        <ele>894.8</ele>
        <time>2022-05-22 00:20:26</time>
      </trkpt>
      <trkpt lat="42.19613" lon="2.2398">
        <ele>894.8</ele>
        <time>2022-05-22 00:20:27</time>
      </trkpt>
      <trkpt lat="42.19612" lon="2.23973">
        <ele>894.6</ele>
        <time>2022-05-22 00:20:28</time>
      </trkpt>
      <trkpt lat="42.19611" lon="2.23965">
        <ele>894.6</ele>
        <time>2022-05-22 00:20:29</time>
      </trkpt>
      <trkpt lat="42.1961" lon="2.23958">
        <ele>894.6</ele>
        <time>2022-05-22 00:20:30</time>
      </trkpt>
      <trkpt lat="42.19609" lon="2.23951">
        <ele>894.6</ele>
        <time>2022-05-22 00:20:31</time>
      </trkpt>
      <trkpt lat="42.19607" lon="2.23944">
        <ele>894.6</ele>
        <time>2022-05-22 00:20:32</time>
      </trkpt>
      <trkpt lat="42.19606" lon="2.23938">
        <ele>894.6</ele>
        <time>2022-05-22 00:20:33</time>
      </trkpt>
      <trkpt lat="42.19605" lon="2.23931">
        <ele>894.6</ele>
        <time>2022-05-22 00:20:34</time>
      </trkpt>
      <trkpt lat="42.19604" lon="2.23924">
        <ele>894.6</ele>
        <time>2022-05-22 00:20:35</time>
      </trkpt>
      <trkpt lat="42.19603" lon="2.23918">
        <ele>894.6</ele>
        <time>2022-05-22 00:20:36</time>
      </trkpt>
      <trkpt lat="42.19603" lon="2.23911">
        <ele>894.6</ele>
        <time>2022-05-22 00:20:37</time>
      </trkpt>
      <trkpt lat="42.19602" lon="2.23903">
        <ele>894.6</ele>
        <time>2022-05-22 00:20:38</time>
      </trkpt>
      <trkpt lat="42.19602" lon="2.23896">
        <ele>894.6</ele>
        <time>2022-05-22 00:20:39</time>
      </trkpt>
      <trkpt lat="42.19603" lon="2.23888">
        <ele>894.6</ele>
        <time>2022-05-22 00:20:40</time>
      </trkpt>
      <trkpt lat="42.19604" lon="2.23881">
        <ele>894.6</ele>
        <time>2022-05-22 00:20:41</time>
      </trkpt>
      <trkpt lat="42.19605" lon="2.23874">
        <ele>894.6</ele>
        <time>2022-05-22 00:20:42</time>
      </trkpt>
      <trkpt lat="42.19606" lon="2.23867">
        <ele>894.6</ele>
        <time>2022-05-22 00:20:43</time>
      </trkpt>
      <trkpt lat="42.19608" lon="2.23861">
        <ele>894.6</ele>
        <time>2022-05-22 00:20:44</time>
      </trkpt>
      <trkpt lat="42.19609" lon="2.23854">
        <ele>894.4</ele>
        <time>2022-05-22 00:20:45</time>
      </trkpt>
      <trkpt lat="42.19611" lon="2.23847">
        <ele>894.4</ele>
        <time>2022-05-22 00:20:46</time>
      </trkpt>
      <trkpt lat="42.19613" lon="2.2384">
        <ele>894.4</ele>
        <time>2022-05-22 00:20:47</time>
      </trkpt>
      <trkpt lat="42.19614" lon="2.23834">
        <ele>894.4</ele>
        <time>2022-05-22 00:20:48</time>
      </trkpt>
      <trkpt lat="42.19616" lon="2.23827">
        <ele>894.4</ele>
        <time>2022-05-22 00:20:49</time>
      </trkpt>
      <trkpt lat="42.19618" lon="2.2382">
        <ele>894.2</ele>
        <time>2022-05-22 00:20:50</time>
      </trkpt>
      <trkpt lat="42.1962" lon="2.23814">
        <ele>894.2</ele>
        <time>2022-05-22 00:20:51</time>
      </trkpt>
      <trkpt lat="42.19623" lon="2.23807">
        <ele>894.2</ele>
        <time>2022-05-22 00:20:52</time>
      </trkpt>
      <trkpt lat="42.19626" lon="2.23801">
        <ele>894.2</ele>
        <time>2022-05-22 00:20:53</time>
      </trkpt>
      <trkpt lat="42.19629" lon="2.23795">
        <ele>894</ele>
        <time>2022-05-22 00:20:54</time>
      </trkpt>
      <trkpt lat="42.19632" lon="2.2379">
        <ele>894</ele>
        <time>2022-05-22 00:20:55</time>
      </trkpt>
      <trkpt lat="42.19635" lon="2.23784">
        <ele>894</ele>
        <time>2022-05-22 00:20:56</time>
      </trkpt>
      <trkpt lat="42.19639" lon="2.23778">
        <ele>894</ele>
        <time>2022-05-22 00:20:57</time>
      </trkpt>
      <trkpt lat="42.19642" lon="2.23774">
        <ele>894.2</ele>
        <time>2022-05-22 00:20:58</time>
      </trkpt>
      <trkpt lat="42.19646" lon="2.23768">
        <ele>894.2</ele>
        <time>2022-05-22 00:20:59</time>
      </trkpt>
      <trkpt lat="42.1965" lon="2.23763">
        <ele>894.2</ele>
        <time>2022-05-22 00:21:00</time>
      </trkpt>
      <trkpt lat="42.19653" lon="2.23758">
        <ele>894.2</ele>
        <time>2022-05-22 00:21:01</time>
      </trkpt>
      <trkpt lat="42.19657" lon="2.23753">
        <ele>894</ele>
        <time>2022-05-22 00:21:02</time>
      </trkpt>
      <trkpt lat="42.19661" lon="2.23747">
        <ele>894</ele>
        <time>2022-05-22 00:21:03</time>
      </trkpt>
      <trkpt lat="42.19665" lon="2.23741">
        <ele>894</ele>
        <time>2022-05-22 00:21:04</time>
      </trkpt>
      <trkpt lat="42.19669" lon="2.23735">
        <ele>894</ele>
        <time>2022-05-22 00:21:05</time>
      </trkpt>
      <trkpt lat="42.19673" lon="2.2373">
        <ele>893.8</ele>
        <time>2022-05-22 00:21:06</time>
      </trkpt>
      <trkpt lat="42.19677" lon="2.23724">
        <ele>893.8</ele>
        <time>2022-05-22 00:21:07</time>
      </trkpt>
      <trkpt lat="42.1968" lon="2.23719">
        <ele>893.8</ele>
        <time>2022-05-22 00:21:08</time>
      </trkpt>
      <trkpt lat="42.19684" lon="2.23713">
        <ele>893.8</ele>
        <time>2022-05-22 00:21:09</time>
      </trkpt>
      <trkpt lat="42.19687" lon="2.23706">
        <ele>893.8</ele>
        <time>2022-05-22 00:21:10</time>
      </trkpt>
      <trkpt lat="42.1969" lon="2.237">
        <ele>893.8</ele>
        <time>2022-05-22 00:21:11</time>
      </trkpt>
      <trkpt lat="42.19692" lon="2.23693">
        <ele>894</ele>
        <time>2022-05-22 00:21:12</time>
      </trkpt>
      <trkpt lat="42.19694" lon="2.23686">
        <ele>893.8</ele>
        <time>2022-05-22 00:21:13</time>
      </trkpt>
      <trkpt lat="42.19695" lon="2.2368">
        <ele>893.8</ele>
        <time>2022-05-22 00:21:14</time>
      </trkpt>
      <trkpt lat="42.19695" lon="2.23673">
        <ele>893.8</ele>
        <time>2022-05-22 00:21:15</time>
      </trkpt>
      <trkpt lat="42.19696" lon="2.23666">
        <ele>893.8</ele>
        <time>2022-05-22 00:21:16</time>
      </trkpt>
      <trkpt lat="42.19697" lon="2.23659">
        <ele>893.8</ele>
        <time>2022-05-22 00:21:17</time>
      </trkpt>
      <trkpt lat="42.19698" lon="2.23653">
        <ele>893.8</ele>
        <time>2022-05-22 00:21:18</time>
      </trkpt>
      <trkpt lat="42.19699" lon="2.23646">
        <ele>893.8</ele>
        <time>2022-05-22 00:21:19</time>
      </trkpt>
      <trkpt lat="42.19699" lon="2.2364">
        <ele>893.8</ele>
        <time>2022-05-22 00:21:20</time>
      </trkpt>
      <trkpt lat="42.197" lon="2.23634">
        <ele>893.8</ele>
        <time>2022-05-22 00:21:21</time>
      </trkpt>
      <trkpt lat="42.19701" lon="2.23628">
        <ele>893.8</ele>
        <time>2022-05-22 00:21:22</time>
      </trkpt>
      <trkpt lat="42.19702" lon="2.23621">
        <ele>893.8</ele>
        <time>2022-05-22 00:21:23</time>
      </trkpt>
      <trkpt lat="42.19702" lon="2.23615">
        <ele>893.8</ele>
        <time>2022-05-22 00:21:24</time>
      </trkpt>
      <trkpt lat="42.19702" lon="2.23608">
        <ele>893.8</ele>
        <time>2022-05-22 00:21:25</time>
      </trkpt>
      <trkpt lat="42.19703" lon="2.23602">
        <ele>893.8</ele>
        <time>2022-05-22 00:21:26</time>
      </trkpt>
      <trkpt lat="42.19704" lon="2.23596">
        <ele>893.8</ele>
        <time>2022-05-22 00:21:27</time>
      </trkpt>
      <trkpt lat="42.19704" lon="2.23589">
        <ele>893.8</ele>
        <time>2022-05-22 00:21:28</time>
      </trkpt>
      <trkpt lat="42.19705" lon="2.23582">
        <ele>893.6</ele>
        <time>2022-05-22 00:21:29</time>
      </trkpt>
      <trkpt lat="42.19706" lon="2.23576">
        <ele>893.6</ele>
        <time>2022-05-22 00:21:30</time>
      </trkpt>
      <trkpt lat="42.19707" lon="2.23569">
        <ele>893.6</ele>
        <time>2022-05-22 00:21:31</time>
      </trkpt>
      <trkpt lat="42.19707" lon="2.23562">
        <ele>893.6</ele>
        <time>2022-05-22 00:21:32</time>
      </trkpt>
      <trkpt lat="42.19708" lon="2.23555">
        <ele>893.4</ele>
        <time>2022-05-22 00:21:33</time>
      </trkpt>
      <trkpt lat="42.19709" lon="2.23548">
        <ele>893.4</ele>
        <time>2022-05-22 00:21:34</time>
      </trkpt>
      <trkpt lat="42.19709" lon="2.23541">
        <ele>893.4</ele>
        <time>2022-05-22 00:21:35</time>
      </trkpt>
      <trkpt lat="42.19709" lon="2.23535">
        <ele>893.2</ele>
        <time>2022-05-22 00:21:36</time>
      </trkpt>
      <trkpt lat="42.1971" lon="2.23528">
        <ele>893.2</ele>
        <time>2022-05-22 00:21:37</time>
      </trkpt>
      <trkpt lat="42.19711" lon="2.23521">
        <ele>893.2</ele>
        <time>2022-05-22 00:21:38</time>
      </trkpt>
      <trkpt lat="42.19712" lon="2.23514">
        <ele>893.2</ele>
        <time>2022-05-22 00:21:39</time>
      </trkpt>
      <trkpt lat="42.19713" lon="2.23507">
        <ele>893.2</ele>
        <time>2022-05-22 00:21:40</time>
      </trkpt>
      <trkpt lat="42.19713" lon="2.23499">
        <ele>893.2</ele>
        <time>2022-05-22 00:21:41</time>
      </trkpt>
      <trkpt lat="42.19714" lon="2.23493">
        <ele>893.2</ele>
        <time>2022-05-22 00:21:42</time>
      </trkpt>
      <trkpt lat="42.19714" lon="2.23486">
        <ele>893.2</ele>
        <time>2022-05-22 00:21:43</time>
      </trkpt>
      <trkpt lat="42.19713" lon="2.23479">
        <ele>893.2</ele>
        <time>2022-05-22 00:21:44</time>
      </trkpt>
      <trkpt lat="42.19713" lon="2.23473">
        <ele>893.2</ele>
        <time>2022-05-22 00:21:45</time>
      </trkpt>
      <trkpt lat="42.19712" lon="2.23467">
        <ele>893.2</ele>
        <time>2022-05-22 00:21:46</time>
      </trkpt>
      <trkpt lat="42.19711" lon="2.23461">
        <ele>893.2</ele>
        <time>2022-05-22 00:21:47</time>
      </trkpt>
      <trkpt lat="42.1971" lon="2.23454">
        <ele>893.2</ele>
        <time>2022-05-22 00:21:48</time>
      </trkpt>
      <trkpt lat="42.19708" lon="2.23447">
        <ele>893.2</ele>
        <time>2022-05-22 00:21:49</time>
      </trkpt>
      <trkpt lat="42.19705" lon="2.2344">
        <ele>893.2</ele>
        <time>2022-05-22 00:21:50</time>
      </trkpt>
      <trkpt lat="42.19702" lon="2.23434">
        <ele>893.2</ele>
        <time>2022-05-22 00:21:51</time>
      </trkpt>
      <trkpt lat="42.19699" lon="2.23428">
        <ele>893.2</ele>
        <time>2022-05-22 00:21:52</time>
      </trkpt>
      <trkpt lat="42.19695" lon="2.23423">
        <ele>893.2</ele>
        <time>2022-05-22 00:21:53</time>
      </trkpt>
      <trkpt lat="42.19691" lon="2.23419">
        <ele>893.2</ele>
        <time>2022-05-22 00:21:54</time>
      </trkpt>
      <trkpt lat="42.19687" lon="2.23415">
        <ele>893.2</ele>
        <time>2022-05-22 00:21:55</time>
      </trkpt>
      <trkpt lat="42.19683" lon="2.23413">
        <ele>893.4</ele>
        <time>2022-05-22 00:21:56</time>
      </trkpt>
      <trkpt lat="42.19677" lon="2.2341">
        <ele>893.4</ele>
        <time>2022-05-22 00:21:57</time>
      </trkpt>
      <trkpt lat="42.19671" lon="2.23408">
        <ele>893.2</ele>
        <time>2022-05-22 00:21:58</time>
      </trkpt>
      <trkpt lat="42.19666" lon="2.23407">
        <ele>893.2</ele>
        <time>2022-05-22 00:21:59</time>
      </trkpt>
      <trkpt lat="42.19661" lon="2.23407">
        <ele>893.2</ele>
        <time>2022-05-22 00:22:00</time>
      </trkpt>
      <trkpt lat="42.19656" lon="2.23406">
        <ele>893.2</ele>
        <time>2022-05-22 00:22:01</time>
      </trkpt>
      <trkpt lat="42.19652" lon="2.23407">
        <ele>893.2</ele>
        <time>2022-05-22 00:22:02</time>
      </trkpt>
      <trkpt lat="42.19648" lon="2.23407">
        <ele>893.2</ele>
        <time>2022-05-22 00:22:03</time>
      </trkpt>
      <trkpt lat="42.19643" lon="2.23407">
        <ele>893.2</ele>
        <time>2022-05-22 00:22:04</time>
      </trkpt>
      <trkpt lat="42.19639" lon="2.23407">
        <ele>893.2</ele>
        <time>2022-05-22 00:22:05</time>
      </trkpt>
      <trkpt lat="42.19634" lon="2.23407">
        <ele>893</ele>
        <time>2022-05-22 00:22:06</time>
      </trkpt>
      <trkpt lat="42.1963" lon="2.23408">
        <ele>893</ele>
        <time>2022-05-22 00:22:07</time>
      </trkpt>
      <trkpt lat="42.19625" lon="2.23408">
        <ele>893</ele>
        <time>2022-05-22 00:22:08</time>
      </trkpt>
      <trkpt lat="42.1962" lon="2.23409">
        <ele>893</ele>
        <time>2022-05-22 00:22:09</time>
      </trkpt>
      <trkpt lat="42.19615" lon="2.23409">
        <ele>892.8</ele>
        <time>2022-05-22 00:22:10</time>
      </trkpt>
      <trkpt lat="42.1961" lon="2.2341">
        <ele>892.8</ele>
        <time>2022-05-22 00:22:11</time>
      </trkpt>
      <trkpt lat="42.19605" lon="2.2341">
        <ele>892.8</ele>
        <time>2022-05-22 00:22:12</time>
      </trkpt>
      <trkpt lat="42.19599" lon="2.2341">
        <ele>892.8</ele>
        <time>2022-05-22 00:22:13</time>
      </trkpt>
      <trkpt lat="42.19594" lon="2.23409">
        <ele>892.8</ele>
        <time>2022-05-22 00:22:14</time>
      </trkpt>
      <trkpt lat="42.19588" lon="2.23409">
        <ele>892.8</ele>
        <time>2022-05-22 00:22:15</time>
      </trkpt>
      <trkpt lat="42.19583" lon="2.2341">
        <ele>892.6</ele>
        <time>2022-05-22 00:22:16</time>
      </trkpt>
      <trkpt lat="42.19579" lon="2.2341">
        <ele>892.6</ele>
        <time>2022-05-22 00:22:17</time>
      </trkpt>
      <trkpt lat="42.19573" lon="2.2341">
        <ele>892.8</ele>
        <time>2022-05-22 00:22:18</time>
      </trkpt>
      <trkpt lat="42.19567" lon="2.23409">
        <ele>892.8</ele>
        <time>2022-05-22 00:22:19</time>
      </trkpt>
      <trkpt lat="42.19562" lon="2.23407">
        <ele>892.8</ele>
        <time>2022-05-22 00:22:20</time>
      </trkpt>
      <trkpt lat="42.19558" lon="2.23405">
        <ele>892.6</ele>
        <time>2022-05-22 00:22:21</time>
      </trkpt>
      <trkpt lat="42.19553" lon="2.23402">
        <ele>892.6</ele>
        <time>2022-05-22 00:22:22</time>
      </trkpt>
      <trkpt lat="42.19548" lon="2.23398">
        <ele>892.6</ele>
        <time>2022-05-22 00:22:23</time>
      </trkpt>
      <trkpt lat="42.19544" lon="2.23394">
        <ele>892.6</ele>
        <time>2022-05-22 00:22:24</time>
      </trkpt>
      <trkpt lat="42.19539" lon="2.2339">
        <ele>892.6</ele>
        <time>2022-05-22 00:22:25</time>
      </trkpt>
      <trkpt lat="42.19535" lon="2.23386">
        <ele>892.6</ele>
        <time>2022-05-22 00:22:26</time>
      </trkpt>
      <trkpt lat="42.19532" lon="2.23381">
        <ele>892.6</ele>
        <time>2022-05-22 00:22:27</time>
      </trkpt>
      <trkpt lat="42.19527" lon="2.23376">
        <ele>892.6</ele>
        <time>2022-05-22 00:22:28</time>
      </trkpt>
      <trkpt lat="42.19523" lon="2.23372">
        <ele>892.6</ele>
        <time>2022-05-22 00:22:29</time>
      </trkpt>
      <trkpt lat="42.19518" lon="2.23368">
        <ele>892.6</ele>
        <time>2022-05-22 00:22:30</time>
      </trkpt>
      <trkpt lat="42.19513" lon="2.23364">
        <ele>892.6</ele>
        <time>2022-05-22 00:22:31</time>
      </trkpt>
      <trkpt lat="42.19509" lon="2.2336">
        <ele>892.6</ele>
        <time>2022-05-22 00:22:32</time>
      </trkpt>
      <trkpt lat="42.19504" lon="2.23355">
        <ele>892.6</ele>
        <time>2022-05-22 00:22:33</time>
      </trkpt>
      <trkpt lat="42.195" lon="2.2335">
        <ele>892.4</ele>
        <time>2022-05-22 00:22:34</time>
      </trkpt>
      <trkpt lat="42.19496" lon="2.23345">
        <ele>892.4</ele>
        <time>2022-05-22 00:22:35</time>
      </trkpt>
      <trkpt lat="42.19492" lon="2.23339">
        <ele>892.2</ele>
        <time>2022-05-22 00:22:36</time>
      </trkpt>
      <trkpt lat="42.19489" lon="2.23332">
        <ele>892.2</ele>
        <time>2022-05-22 00:22:37</time>
      </trkpt>
      <trkpt lat="42.19486" lon="2.23326">
        <ele>892.2</ele>
        <time>2022-05-22 00:22:38</time>
      </trkpt>
      <trkpt lat="42.19483" lon="2.23319">
        <ele>892.2</ele>
        <time>2022-05-22 00:22:39</time>
      </trkpt>
      <trkpt lat="42.1948" lon="2.23312">
        <ele>892.2</ele>
        <time>2022-05-22 00:22:40</time>
      </trkpt>
      <trkpt lat="42.19477" lon="2.23306">
        <ele>892</ele>
        <time>2022-05-22 00:22:41</time>
      </trkpt>
      <trkpt lat="42.19474" lon="2.23299">
        <ele>892</ele>
        <time>2022-05-22 00:22:42</time>
      </trkpt>
      <trkpt lat="42.19472" lon="2.23292">
        <ele>892</ele>
        <time>2022-05-22 00:22:43</time>
      </trkpt>
      <trkpt lat="42.1947" lon="2.23287">
        <ele>891.8</ele>
        <time>2022-05-22 00:22:44</time>
      </trkpt>
      <trkpt lat="42.19468" lon="2.23283">
        <ele>891.8</ele>
        <time>2022-05-22 00:22:45</time>
      </trkpt>
      <trkpt lat="42.19464" lon="2.23273">
        <ele>891.8</ele>
        <time>2022-05-22 00:22:46</time>
      </trkpt>
      <trkpt lat="42.19462" lon="2.23266">
        <ele>891.8</ele>
        <time>2022-05-22 00:22:47</time>
      </trkpt>
      <trkpt lat="42.19458" lon="2.23259">
        <ele>891.6</ele>
        <time>2022-05-22 00:22:48</time>
      </trkpt>
      <trkpt lat="42.19456" lon="2.23252">
        <ele>891.6</ele>
        <time>2022-05-22 00:22:49</time>
      </trkpt>
      <trkpt lat="42.19453" lon="2.23246">
        <ele>891.6</ele>
        <time>2022-05-22 00:22:50</time>
      </trkpt>
      <trkpt lat="42.1945" lon="2.23239">
        <ele>891.6</ele>
        <time>2022-05-22 00:22:51</time>
      </trkpt>
      <trkpt lat="42.19446" lon="2.23233">
        <ele>891.6</ele>
        <time>2022-05-22 00:22:52</time>
      </trkpt>
      <trkpt lat="42.19443" lon="2.23227">
        <ele>891.6</ele>
        <time>2022-05-22 00:22:53</time>
      </trkpt>
      <trkpt lat="42.19439" lon="2.23221">
        <ele>891.6</ele>
        <time>2022-05-22 00:22:54</time>
      </trkpt>
      <trkpt lat="42.19435" lon="2.23216">
        <ele>891.4</ele>
        <time>2022-05-22 00:22:55</time>
      </trkpt>
      <trkpt lat="42.19432" lon="2.2321">
        <ele>891.4</ele>
        <time>2022-05-22 00:22:56</time>
      </trkpt>
      <trkpt lat="42.19428" lon="2.23205">
        <ele>891.2</ele>
        <time>2022-05-22 00:22:57</time>
      </trkpt>
      <trkpt lat="42.19424" lon="2.23198">
        <ele>891</ele>
        <time>2022-05-22 00:22:58</time>
      </trkpt>
      <trkpt lat="42.1942" lon="2.2319">
        <ele>890.8</ele>
        <time>2022-05-22 00:22:59</time>
      </trkpt>
      <trkpt lat="42.19417" lon="2.23183">
        <ele>890.6</ele>
        <time>2022-05-22 00:23:00</time>
      </trkpt>
      <trkpt lat="42.19415" lon="2.23175">
        <ele>890.2</ele>
        <time>2022-05-22 00:23:01</time>
      </trkpt>
      <trkpt lat="42.19413" lon="2.23166">
        <ele>889.8</ele>
        <time>2022-05-22 00:23:02</time>
      </trkpt>
      <trkpt lat="42.19412" lon="2.23157">
        <ele>889.4</ele>
        <time>2022-05-22 00:23:03</time>
      </trkpt>
      <trkpt lat="42.19412" lon="2.23148">
        <ele>888.8</ele>
        <time>2022-05-22 00:23:04</time>
      </trkpt>
      <trkpt lat="42.19412" lon="2.23138">
        <ele>888.4</ele>
        <time>2022-05-22 00:23:05</time>
      </trkpt>
      <trkpt lat="42.19412" lon="2.23128">
        <ele>887.8</ele>
        <time>2022-05-22 00:23:06</time>
      </trkpt>
      <trkpt lat="42.19414" lon="2.23119">
        <ele>887.2</ele>
        <time>2022-05-22 00:23:07</time>
      </trkpt>
      <trkpt lat="42.19416" lon="2.23109">
        <ele>886.6</ele>
        <time>2022-05-22 00:23:08</time>
      </trkpt>
      <trkpt lat="42.1942" lon="2.231">
        <ele>886</ele>
        <time>2022-05-22 00:23:09</time>
      </trkpt>
      <trkpt lat="42.19423" lon="2.2309">
        <ele>885.4</ele>
        <time>2022-05-22 00:23:10</time>
      </trkpt>
      <trkpt lat="42.19426" lon="2.2308">
        <ele>884.8</ele>
        <time>2022-05-22 00:23:11</time>
      </trkpt>
      <trkpt lat="42.1943" lon="2.2307">
        <ele>884.2</ele>
        <time>2022-05-22 00:23:12</time>
      </trkpt>
      <trkpt lat="42.19433" lon="2.2306">
        <ele>883.6</ele>
        <time>2022-05-22 00:23:13</time>
      </trkpt>
      <trkpt lat="42.19436" lon="2.23049">
        <ele>883.2</ele>
        <time>2022-05-22 00:23:14</time>
      </trkpt>
      <trkpt lat="42.19439" lon="2.23038">
        <ele>882.6</ele>
        <time>2022-05-22 00:23:15</time>
      </trkpt>
      <trkpt lat="42.19441" lon="2.23027">
        <ele>882</ele>
        <time>2022-05-22 00:23:16</time>
      </trkpt>
      <trkpt lat="42.19443" lon="2.23016">
        <ele>881.6</ele>
        <time>2022-05-22 00:23:17</time>
      </trkpt>
      <trkpt lat="42.19444" lon="2.23004">
        <ele>880.8</ele>
        <time>2022-05-22 00:23:18</time>
      </trkpt>
      <trkpt lat="42.19446" lon="2.22992">
        <ele>880.2</ele>
        <time>2022-05-22 00:23:19</time>
      </trkpt>
      <trkpt lat="42.19448" lon="2.2298">
        <ele>879.6</ele>
        <time>2022-05-22 00:23:20</time>
      </trkpt>
      <trkpt lat="42.1945" lon="2.22968">
        <ele>879</ele>
        <time>2022-05-22 00:23:21</time>
      </trkpt>
      <trkpt lat="42.19452" lon="2.22956">
        <ele>878.2</ele>
        <time>2022-05-22 00:23:22</time>
      </trkpt>
      <trkpt lat="42.19454" lon="2.22943">
        <ele>877.6</ele>
        <time>2022-05-22 00:23:23</time>
      </trkpt>
      <trkpt lat="42.19456" lon="2.2293">
        <ele>876.8</ele>
        <time>2022-05-22 00:23:24</time>
      </trkpt>
      <trkpt lat="42.19458" lon="2.22917">
        <ele>876.2</ele>
        <time>2022-05-22 00:23:25</time>
      </trkpt>
      <trkpt lat="42.19459" lon="2.22905">
        <ele>875.4</ele>
        <time>2022-05-22 00:23:26</time>
      </trkpt>
      <trkpt lat="42.19458" lon="2.22892">
        <ele>874.8</ele>
        <time>2022-05-22 00:23:27</time>
      </trkpt>
      <trkpt lat="42.19458" lon="2.2288">
        <ele>874</ele>
        <time>2022-05-22 00:23:28</time>
      </trkpt>
      <trkpt lat="42.19458" lon="2.22868">
        <ele>873.2</ele>
        <time>2022-05-22 00:23:29</time>
      </trkpt>
      <trkpt lat="42.19458" lon="2.22856">
        <ele>872.4</ele>
        <time>2022-05-22 00:23:30</time>
      </trkpt>
      <trkpt lat="42.19458" lon="2.22843">
        <ele>871.8</ele>
        <time>2022-05-22 00:23:31</time>
      </trkpt>
      <trkpt lat="42.1946" lon="2.2283">
        <ele>871.2</ele>
        <time>2022-05-22 00:23:32</time>
      </trkpt>
      <trkpt lat="42.19462" lon="2.22819">
        <ele>870.4</ele>
        <time>2022-05-22 00:23:33</time>
      </trkpt>
      <trkpt lat="42.19465" lon="2.22808">
        <ele>869.8</ele>
        <time>2022-05-22 00:23:34</time>
      </trkpt>
      <trkpt lat="42.19469" lon="2.22798">
        <ele>869.2</ele>
        <time>2022-05-22 00:23:35</time>
      </trkpt>
      <trkpt lat="42.19474" lon="2.22788">
        <ele>868.6</ele>
        <time>2022-05-22 00:23:36</time>
      </trkpt>
      <trkpt lat="42.19478" lon="2.22777">
        <ele>868</ele>
        <time>2022-05-22 00:23:37</time>
      </trkpt>
      <trkpt lat="42.19483" lon="2.22766">
        <ele>867.6</ele>
        <time>2022-05-22 00:23:38</time>
      </trkpt>
      <trkpt lat="42.19486" lon="2.22754">
        <ele>867</ele>
        <time>2022-05-22 00:23:39</time>
      </trkpt>
      <trkpt lat="42.19489" lon="2.22741">
        <ele>866.2</ele>
        <time>2022-05-22 00:23:40</time>
      </trkpt>
      <trkpt lat="42.19492" lon="2.22728">
        <ele>865.6</ele>
        <time>2022-05-22 00:23:41</time>
      </trkpt>
      <trkpt lat="42.19494" lon="2.22716">
        <ele>864.8</ele>
        <time>2022-05-22 00:23:42</time>
      </trkpt>
      <trkpt lat="42.19498" lon="2.22704">
        <ele>864.2</ele>
        <time>2022-05-22 00:23:43</time>
      </trkpt>
      <trkpt lat="42.19502" lon="2.22692">
        <ele>863.6</ele>
        <time>2022-05-22 00:23:44</time>
      </trkpt>
      <trkpt lat="42.19505" lon="2.22682">
        <ele>863</ele>
        <time>2022-05-22 00:23:45</time>
      </trkpt>
      <trkpt lat="42.19507" lon="2.22672">
        <ele>862.4</ele>
        <time>2022-05-22 00:23:46</time>
      </trkpt>
      <trkpt lat="42.19508" lon="2.22661">
        <ele>861.8</ele>
        <time>2022-05-22 00:23:47</time>
      </trkpt>
      <trkpt lat="42.19508" lon="2.22651">
        <ele>861.2</ele>
        <time>2022-05-22 00:23:48</time>
      </trkpt>
      <trkpt lat="42.19506" lon="2.2264">
        <ele>860.8</ele>
        <time>2022-05-22 00:23:49</time>
      </trkpt>
      <trkpt lat="42.19503" lon="2.22629">
        <ele>860.2</ele>
        <time>2022-05-22 00:23:50</time>
      </trkpt>
      <trkpt lat="42.195" lon="2.22618">
        <ele>859.6</ele>
        <time>2022-05-22 00:23:51</time>
      </trkpt>
      <trkpt lat="42.19497" lon="2.22606">
        <ele>859</ele>
        <time>2022-05-22 00:23:52</time>
      </trkpt>
      <trkpt lat="42.19494" lon="2.22594">
        <ele>858.2</ele>
        <time>2022-05-22 00:23:53</time>
      </trkpt>
      <trkpt lat="42.19491" lon="2.22582">
        <ele>857.6</ele>
        <time>2022-05-22 00:23:54</time>
      </trkpt>
      <trkpt lat="42.19488" lon="2.22569">
        <ele>856.8</ele>
        <time>2022-05-22 00:23:55</time>
      </trkpt>
      <trkpt lat="42.19485" lon="2.22557">
        <ele>856.2</ele>
        <time>2022-05-22 00:23:56</time>
      </trkpt>
      <trkpt lat="42.19483" lon="2.22543">
        <ele>855.4</ele>
        <time>2022-05-22 00:23:57</time>
      </trkpt>
      <trkpt lat="42.1948" lon="2.22531">
        <ele>854.8</ele>
        <time>2022-05-22 00:23:58</time>
      </trkpt>
      <trkpt lat="42.19478" lon="2.22519">
        <ele>854.2</ele>
        <time>2022-05-22 00:23:59</time>
      </trkpt>
      <trkpt lat="42.19475" lon="2.22507">
        <ele>853.6</ele>
        <time>2022-05-22 00:24:00</time>
      </trkpt>
      <trkpt lat="42.19471" lon="2.22494">
        <ele>852.8</ele>
        <time>2022-05-22 00:24:01</time>
      </trkpt>
      <trkpt lat="42.19469" lon="2.2248">
        <ele>852</ele>
        <time>2022-05-22 00:24:02</time>
      </trkpt>
      <trkpt lat="42.19469" lon="2.22467">
        <ele>851.4</ele>
        <time>2022-05-22 00:24:03</time>
      </trkpt>
      <trkpt lat="42.1947" lon="2.22454">
        <ele>850.6</ele>
        <time>2022-05-22 00:24:04</time>
      </trkpt>
      <trkpt lat="42.19472" lon="2.2244">
        <ele>849.8</ele>
        <time>2022-05-22 00:24:05</time>
      </trkpt>
      <trkpt lat="42.19474" lon="2.22426">
        <ele>849.2</ele>
        <time>2022-05-22 00:24:06</time>
      </trkpt>
      <trkpt lat="42.19477" lon="2.22412">
        <ele>848.4</ele>
        <time>2022-05-22 00:24:07</time>
      </trkpt>
      <trkpt lat="42.1948" lon="2.22397">
        <ele>847.6</ele>
        <time>2022-05-22 00:24:08</time>
      </trkpt>
      <trkpt lat="42.19483" lon="2.22382">
        <ele>846.8</ele>
        <time>2022-05-22 00:24:09</time>
      </trkpt>
      <trkpt lat="42.19486" lon="2.22367">
        <ele>846.2</ele>
        <time>2022-05-22 00:24:10</time>
      </trkpt>
      <trkpt lat="42.19488" lon="2.22354">
        <ele>845.6</ele>
        <time>2022-05-22 00:24:11</time>
      </trkpt>
      <trkpt lat="42.1949" lon="2.22341">
        <ele>845</ele>
        <time>2022-05-22 00:24:12</time>
      </trkpt>
      <trkpt lat="42.19491" lon="2.22327">
        <ele>844</ele>
        <time>2022-05-22 00:24:13</time>
      </trkpt>
      <trkpt lat="42.19493" lon="2.22312">
        <ele>843.2</ele>
        <time>2022-05-22 00:24:14</time>
      </trkpt>
      <trkpt lat="42.19494" lon="2.22297">
        <ele>842.4</ele>
        <time>2022-05-22 00:24:15</time>
      </trkpt>
      <trkpt lat="42.19496" lon="2.22282">
        <ele>841.6</ele>
        <time>2022-05-22 00:24:16</time>
      </trkpt>
      <trkpt lat="42.19497" lon="2.22267">
        <ele>840.8</ele>
        <time>2022-05-22 00:24:17</time>
      </trkpt>
      <trkpt lat="42.19497" lon="2.22253">
        <ele>840</ele>
        <time>2022-05-22 00:24:18</time>
      </trkpt>
      <trkpt lat="42.19498" lon="2.22239">
        <ele>839.2</ele>
        <time>2022-05-22 00:24:19</time>
      </trkpt>
      <trkpt lat="42.19497" lon="2.22225">
        <ele>838.6</ele>
        <time>2022-05-22 00:24:20</time>
      </trkpt>
      <trkpt lat="42.19497" lon="2.22211">
        <ele>837.8</ele>
        <time>2022-05-22 00:24:21</time>
      </trkpt>
      <trkpt lat="42.19498" lon="2.22198">
        <ele>837</ele>
        <time>2022-05-22 00:24:22</time>
      </trkpt>
      <trkpt lat="42.195" lon="2.22185">
        <ele>836.4</ele>
        <time>2022-05-22 00:24:23</time>
      </trkpt>
      <trkpt lat="42.19503" lon="2.22172">
        <ele>835.8</ele>
        <time>2022-05-22 00:24:24</time>
      </trkpt>
      <trkpt lat="42.19506" lon="2.2216">
        <ele>835.2</ele>
        <time>2022-05-22 00:24:25</time>
      </trkpt>
      <trkpt lat="42.19509" lon="2.22148">
        <ele>834.6</ele>
        <time>2022-05-22 00:24:26</time>
      </trkpt>
      <trkpt lat="42.19511" lon="2.22136">
        <ele>834</ele>
        <time>2022-05-22 00:24:27</time>
      </trkpt>
      <trkpt lat="42.19514" lon="2.22126">
        <ele>833.4</ele>
        <time>2022-05-22 00:24:28</time>
      </trkpt>
      <trkpt lat="42.19519" lon="2.22116">
        <ele>833</ele>
        <time>2022-05-22 00:24:29</time>
      </trkpt>
      <trkpt lat="42.19524" lon="2.22107">
        <ele>832.4</ele>
        <time>2022-05-22 00:24:30</time>
      </trkpt>
      <trkpt lat="42.1953" lon="2.22099">
        <ele>831.8</ele>
        <time>2022-05-22 00:24:31</time>
      </trkpt>
      <trkpt lat="42.19535" lon="2.22091">
        <ele>831.2</ele>
        <time>2022-05-22 00:24:32</time>
      </trkpt>
      <trkpt lat="42.19539" lon="2.22081">
        <ele>830.8</ele>
        <time>2022-05-22 00:24:33</time>
      </trkpt>
      <trkpt lat="42.19543" lon="2.22071">
        <ele>830.2</ele>
        <time>2022-05-22 00:24:34</time>
      </trkpt>
      <trkpt lat="42.19544" lon="2.2206">
        <ele>829.6</ele>
        <time>2022-05-22 00:24:35</time>
      </trkpt>
      <trkpt lat="42.19543" lon="2.2205">
        <ele>829</ele>
        <time>2022-05-22 00:24:36</time>
      </trkpt>
      <trkpt lat="42.19541" lon="2.22039">
        <ele>828.4</ele>
        <time>2022-05-22 00:24:37</time>
      </trkpt>
      <trkpt lat="42.19539" lon="2.22028">
        <ele>827.8</ele>
        <time>2022-05-22 00:24:38</time>
      </trkpt>
      <trkpt lat="42.19537" lon="2.22017">
        <ele>827.2</ele>
        <time>2022-05-22 00:24:39</time>
      </trkpt>
      <trkpt lat="42.19536" lon="2.22006">
        <ele>826.6</ele>
        <time>2022-05-22 00:24:40</time>
      </trkpt>
      <trkpt lat="42.19536" lon="2.21995">
        <ele>826</ele>
        <time>2022-05-22 00:24:41</time>
      </trkpt>
      <trkpt lat="42.19536" lon="2.21984">
        <ele>825.6</ele>
        <time>2022-05-22 00:24:42</time>
      </trkpt>
      <trkpt lat="42.19535" lon="2.21973">
        <ele>825</ele>
        <time>2022-05-22 00:24:43</time>
      </trkpt>
      <trkpt lat="42.19533" lon="2.21963">
        <ele>824.6</ele>
        <time>2022-05-22 00:24:44</time>
      </trkpt>
      <trkpt lat="42.19529" lon="2.21953">
        <ele>824</ele>
        <time>2022-05-22 00:24:45</time>
      </trkpt>
      <trkpt lat="42.19524" lon="2.21944">
        <ele>823.4</ele>
        <time>2022-05-22 00:24:46</time>
      </trkpt>
      <trkpt lat="42.19519" lon="2.21934">
        <ele>823</ele>
        <time>2022-05-22 00:24:47</time>
      </trkpt>
      <trkpt lat="42.19514" lon="2.21926">
        <ele>822.4</ele>
        <time>2022-05-22 00:24:48</time>
      </trkpt>
      <trkpt lat="42.1951" lon="2.21917">
        <ele>821.8</ele>
        <time>2022-05-22 00:24:49</time>
      </trkpt>
      <trkpt lat="42.19506" lon="2.21904">
        <ele>821.2</ele>
        <time>2022-05-22 00:24:50</time>
      </trkpt>
      <trkpt lat="42.19503" lon="2.21892">
        <ele>820.6</ele>
        <time>2022-05-22 00:24:51</time>
      </trkpt>
      <trkpt lat="42.19501" lon="2.2188">
        <ele>820</ele>
        <time>2022-05-22 00:24:52</time>
      </trkpt>
      <trkpt lat="42.19499" lon="2.21866">
        <ele>819.4</ele>
        <time>2022-05-22 00:24:53</time>
      </trkpt>
      <trkpt lat="42.19498" lon="2.21853">
        <ele>818.8</ele>
        <time>2022-05-22 00:24:54</time>
      </trkpt>
      <trkpt lat="42.19498" lon="2.21839">
        <ele>818.4</ele>
        <time>2022-05-22 00:24:55</time>
      </trkpt>
      <trkpt lat="42.19498" lon="2.21826">
        <ele>817.6</ele>
        <time>2022-05-22 00:24:56</time>
      </trkpt>
      <trkpt lat="42.19498" lon="2.21812">
        <ele>817</ele>
        <time>2022-05-22 00:24:57</time>
      </trkpt>
      <trkpt lat="42.19498" lon="2.21798">
        <ele>816.2</ele>
        <time>2022-05-22 00:24:58</time>
      </trkpt>
      <trkpt lat="42.19498" lon="2.21783">
        <ele>815.6</ele>
        <time>2022-05-22 00:24:59</time>
      </trkpt>
      <trkpt lat="42.19498" lon="2.21769">
        <ele>815</ele>
        <time>2022-05-22 00:25:00</time>
      </trkpt>
      <trkpt lat="42.19498" lon="2.21757">
        <ele>814.4</ele>
        <time>2022-05-22 00:25:01</time>
      </trkpt>
      <trkpt lat="42.19498" lon="2.21744">
        <ele>814</ele>
        <time>2022-05-22 00:25:02</time>
      </trkpt>
      <trkpt lat="42.19498" lon="2.21732">
        <ele>813.4</ele>
        <time>2022-05-22 00:25:03</time>
      </trkpt>
      <trkpt lat="42.195" lon="2.21721">
        <ele>812.8</ele>
        <time>2022-05-22 00:25:04</time>
      </trkpt>
      <trkpt lat="42.19504" lon="2.21711">
        <ele>812.4</ele>
        <time>2022-05-22 00:25:05</time>
      </trkpt>
      <trkpt lat="42.19508" lon="2.21701">
        <ele>811.8</ele>
        <time>2022-05-22 00:25:06</time>
      </trkpt>
      <trkpt lat="42.19513" lon="2.21692">
        <ele>811.2</ele>
        <time>2022-05-22 00:25:07</time>
      </trkpt>
      <trkpt lat="42.19517" lon="2.21682">
        <ele>810.8</ele>
        <time>2022-05-22 00:25:08</time>
      </trkpt>
      <trkpt lat="42.19519" lon="2.21672">
        <ele>810.4</ele>
        <time>2022-05-22 00:25:09</time>
      </trkpt>
      <trkpt lat="42.19521" lon="2.21662">
        <ele>810</ele>
        <time>2022-05-22 00:25:10</time>
      </trkpt>
      <trkpt lat="42.19521" lon="2.21651">
        <ele>809.6</ele>
        <time>2022-05-22 00:25:11</time>
      </trkpt>
      <trkpt lat="42.19519" lon="2.21641">
        <ele>809.2</ele>
        <time>2022-05-22 00:25:12</time>
      </trkpt>
      <trkpt lat="42.19515" lon="2.2163">
        <ele>808.6</ele>
        <time>2022-05-22 00:25:13</time>
      </trkpt>
      <trkpt lat="42.1951" lon="2.21621">
        <ele>808.2</ele>
        <time>2022-05-22 00:25:14</time>
      </trkpt>
      <trkpt lat="42.19504" lon="2.21613">
        <ele>807.6</ele>
        <time>2022-05-22 00:25:15</time>
      </trkpt>
      <trkpt lat="42.19497" lon="2.21604">
        <ele>807.2</ele>
        <time>2022-05-22 00:25:16</time>
      </trkpt>
      <trkpt lat="42.19491" lon="2.21595">
        <ele>806.8</ele>
        <time>2022-05-22 00:25:17</time>
      </trkpt>
      <trkpt lat="42.19486" lon="2.21585">
        <ele>806</ele>
        <time>2022-05-22 00:25:18</time>
      </trkpt>
      <trkpt lat="42.19483" lon="2.21574">
        <ele>805.4</ele>
        <time>2022-05-22 00:25:19</time>
      </trkpt>
      <trkpt lat="42.1948" lon="2.21563">
        <ele>804.8</ele>
        <time>2022-05-22 00:25:20</time>
      </trkpt>
      <trkpt lat="42.19479" lon="2.21551">
        <ele>804.2</ele>
        <time>2022-05-22 00:25:21</time>
      </trkpt>
      <trkpt lat="42.1948" lon="2.21539">
        <ele>803.6</ele>
        <time>2022-05-22 00:25:22</time>
      </trkpt>
      <trkpt lat="42.19482" lon="2.21525">
        <ele>803</ele>
        <time>2022-05-22 00:25:23</time>
      </trkpt>
      <trkpt lat="42.19486" lon="2.21512">
        <ele>802.4</ele>
        <time>2022-05-22 00:25:24</time>
      </trkpt>
      <trkpt lat="42.1949" lon="2.21499">
        <ele>801.8</ele>
        <time>2022-05-22 00:25:25</time>
      </trkpt>
      <trkpt lat="42.19495" lon="2.21487">
        <ele>801.2</ele>
        <time>2022-05-22 00:25:26</time>
      </trkpt>
      <trkpt lat="42.195" lon="2.21477">
        <ele>800.6</ele>
        <time>2022-05-22 00:25:27</time>
      </trkpt>
      <trkpt lat="42.19506" lon="2.21468">
        <ele>800.2</ele>
        <time>2022-05-22 00:25:28</time>
      </trkpt>
      <trkpt lat="42.19513" lon="2.21461">
        <ele>799.6</ele>
        <time>2022-05-22 00:25:29</time>
      </trkpt>
      <trkpt lat="42.19521" lon="2.21457">
        <ele>799.2</ele>
        <time>2022-05-22 00:25:30</time>
      </trkpt>
      <trkpt lat="42.19528" lon="2.21454">
        <ele>798.6</ele>
        <time>2022-05-22 00:25:31</time>
      </trkpt>
      <trkpt lat="42.19536" lon="2.2145">
        <ele>798.2</ele>
        <time>2022-05-22 00:25:32</time>
      </trkpt>
      <trkpt lat="42.19543" lon="2.21446">
        <ele>797.8</ele>
        <time>2022-05-22 00:25:33</time>
      </trkpt>
      <trkpt lat="42.19549" lon="2.21441">
        <ele>797.4</ele>
        <time>2022-05-22 00:25:34</time>
      </trkpt>
      <trkpt lat="42.19553" lon="2.21434">
        <ele>797</ele>
        <time>2022-05-22 00:25:35</time>
      </trkpt>
      <trkpt lat="42.19555" lon="2.21426">
        <ele>796.6</ele>
        <time>2022-05-22 00:25:36</time>
      </trkpt>
      <trkpt lat="42.19555" lon="2.21419">
        <ele>796.4</ele>
        <time>2022-05-22 00:25:37</time>
      </trkpt>
      <trkpt lat="42.19554" lon="2.21412">
        <ele>796</ele>
        <time>2022-05-22 00:25:38</time>
      </trkpt>
      <trkpt lat="42.19551" lon="2.21405">
        <ele>795.6</ele>
        <time>2022-05-22 00:25:39</time>
      </trkpt>
      <trkpt lat="42.19546" lon="2.21399">
        <ele>795.4</ele>
        <time>2022-05-22 00:25:40</time>
      </trkpt>
      <trkpt lat="42.19541" lon="2.21394">
        <ele>795</ele>
        <time>2022-05-22 00:25:41</time>
      </trkpt>
      <trkpt lat="42.19535" lon="2.21389">
        <ele>794.6</ele>
        <time>2022-05-22 00:25:42</time>
      </trkpt>
      <trkpt lat="42.19529" lon="2.21385">
        <ele>794.2</ele>
        <time>2022-05-22 00:25:43</time>
      </trkpt>
      <trkpt lat="42.19522" lon="2.21382">
        <ele>793.8</ele>
        <time>2022-05-22 00:25:44</time>
      </trkpt>
      <trkpt lat="42.19514" lon="2.21379">
        <ele>793.2</ele>
        <time>2022-05-22 00:25:45</time>
      </trkpt>
      <trkpt lat="42.19507" lon="2.21376">
        <ele>792.8</ele>
        <time>2022-05-22 00:25:46</time>
      </trkpt>
      <trkpt lat="42.19501" lon="2.21372">
        <ele>792.2</ele>
        <time>2022-05-22 00:25:47</time>
      </trkpt>
      <trkpt lat="42.19494" lon="2.21367">
        <ele>791.8</ele>
        <time>2022-05-22 00:25:48</time>
      </trkpt>
      <trkpt lat="42.19489" lon="2.21358">
        <ele>791.4</ele>
        <time>2022-05-22 00:25:49</time>
      </trkpt>
      <trkpt lat="42.1949" lon="2.21346">
        <ele>791</ele>
        <time>2022-05-22 00:25:50</time>
      </trkpt>
      <trkpt lat="42.19492" lon="2.21335">
        <ele>790.4</ele>
        <time>2022-05-22 00:25:51</time>
      </trkpt>
      <trkpt lat="42.19493" lon="2.21324">
        <ele>790</ele>
        <time>2022-05-22 00:25:52</time>
      </trkpt>
      <trkpt lat="42.19495" lon="2.21313">
        <ele>789.4</ele>
        <time>2022-05-22 00:25:53</time>
      </trkpt>
      <trkpt lat="42.19497" lon="2.21302">
        <ele>789</ele>
        <time>2022-05-22 00:25:54</time>
      </trkpt>
      <trkpt lat="42.19499" lon="2.2129">
        <ele>788.4</ele>
        <time>2022-05-22 00:25:55</time>
      </trkpt>
      <trkpt lat="42.195" lon="2.21275">
        <ele>788</ele>
        <time>2022-05-22 00:25:56</time>
      </trkpt>
      <trkpt lat="42.19502" lon="2.21262">
        <ele>787.4</ele>
        <time>2022-05-22 00:25:57</time>
      </trkpt>
      <trkpt lat="42.19504" lon="2.21249">
        <ele>787</ele>
        <time>2022-05-22 00:25:58</time>
      </trkpt>
      <trkpt lat="42.19507" lon="2.21238">
        <ele>786.4</ele>
        <time>2022-05-22 00:25:59</time>
      </trkpt>
      <trkpt lat="42.19511" lon="2.21227">
        <ele>786</ele>
        <time>2022-05-22 00:26:00</time>
      </trkpt>
      <trkpt lat="42.19515" lon="2.21217">
        <ele>785.8</ele>
        <time>2022-05-22 00:26:01</time>
      </trkpt>
      <trkpt lat="42.1952" lon="2.21206">
        <ele>785.4</ele>
        <time>2022-05-22 00:26:02</time>
      </trkpt>
      <trkpt lat="42.19523" lon="2.21194">
        <ele>785</ele>
        <time>2022-05-22 00:26:03</time>
      </trkpt>
      <trkpt lat="42.19526" lon="2.21184">
        <ele>784.8</ele>
        <time>2022-05-22 00:26:04</time>
      </trkpt>
      <trkpt lat="42.19528" lon="2.21174">
        <ele>784.6</ele>
        <time>2022-05-22 00:26:05</time>
      </trkpt>
      <trkpt lat="42.19531" lon="2.21164">
        <ele>784.6</ele>
        <time>2022-05-22 00:26:06</time>
      </trkpt>
      <trkpt lat="42.19535" lon="2.21155">
        <ele>784.4</ele>
        <time>2022-05-22 00:26:07</time>
      </trkpt>
      <trkpt lat="42.1954" lon="2.21147">
        <ele>784.4</ele>
        <time>2022-05-22 00:26:08</time>
      </trkpt>
      <trkpt lat="42.19546" lon="2.2114">
        <ele>784.2</ele>
        <time>2022-05-22 00:26:09</time>
      </trkpt>
      <trkpt lat="42.19552" lon="2.21135">
        <ele>784.2</ele>
        <time>2022-05-22 00:26:10</time>
      </trkpt>
      <trkpt lat="42.19559" lon="2.2113">
        <ele>784.2</ele>
        <time>2022-05-22 00:26:11</time>
      </trkpt>
      <trkpt lat="42.19565" lon="2.21125">
        <ele>784</ele>
        <time>2022-05-22 00:26:12</time>
      </trkpt>
      <trkpt lat="42.1957" lon="2.21118">
        <ele>784</ele>
        <time>2022-05-22 00:26:13</time>
      </trkpt>
      <trkpt lat="42.19574" lon="2.21111">
        <ele>784</ele>
        <time>2022-05-22 00:26:14</time>
      </trkpt>
      <trkpt lat="42.19576" lon="2.21102">
        <ele>783.8</ele>
        <time>2022-05-22 00:26:15</time>
      </trkpt>
      <trkpt lat="42.19578" lon="2.21094">
        <ele>783.8</ele>
        <time>2022-05-22 00:26:16</time>
      </trkpt>
      <trkpt lat="42.19578" lon="2.21085">
        <ele>784</ele>
        <time>2022-05-22 00:26:17</time>
      </trkpt>
      <trkpt lat="42.19577" lon="2.21077">
        <ele>784</ele>
        <time>2022-05-22 00:26:18</time>
      </trkpt>
      <trkpt lat="42.19575" lon="2.21068">
        <ele>784.2</ele>
        <time>2022-05-22 00:26:19</time>
      </trkpt>
      <trkpt lat="42.19573" lon="2.21061">
        <ele>784.2</ele>
        <time>2022-05-22 00:26:20</time>
      </trkpt>
      <trkpt lat="42.19571" lon="2.21054">
        <ele>784.4</ele>
        <time>2022-05-22 00:26:21</time>
      </trkpt>
      <trkpt lat="42.19568" lon="2.21047">
        <ele>784.4</ele>
        <time>2022-05-22 00:26:22</time>
      </trkpt>
      <trkpt lat="42.19565" lon="2.2104">
        <ele>784.4</ele>
        <time>2022-05-22 00:26:23</time>
      </trkpt>
      <trkpt lat="42.19562" lon="2.21033">
        <ele>784.2</ele>
        <time>2022-05-22 00:26:24</time>
      </trkpt>
      <trkpt lat="42.19558" lon="2.21026">
        <ele>784</ele>
        <time>2022-05-22 00:26:25</time>
      </trkpt>
      <trkpt lat="42.19555" lon="2.21018">
        <ele>783.6</ele>
        <time>2022-05-22 00:26:26</time>
      </trkpt>
      <trkpt lat="42.19552" lon="2.2101">
        <ele>783.4</ele>
        <time>2022-05-22 00:26:27</time>
      </trkpt>
      <trkpt lat="42.19548" lon="2.21001">
        <ele>783</ele>
        <time>2022-05-22 00:26:28</time>
      </trkpt>
      <trkpt lat="42.19544" lon="2.20993">
        <ele>782.4</ele>
        <time>2022-05-22 00:26:29</time>
      </trkpt>
      <trkpt lat="42.19541" lon="2.20984">
        <ele>782</ele>
        <time>2022-05-22 00:26:30</time>
      </trkpt>
      <trkpt lat="42.19537" lon="2.20976">
        <ele>781.6</ele>
        <time>2022-05-22 00:26:31</time>
      </trkpt>
      <trkpt lat="42.19535" lon="2.20968">
        <ele>781.2</ele>
        <time>2022-05-22 00:26:32</time>
      </trkpt>
      <trkpt lat="42.19533" lon="2.20957">
        <ele>780.8</ele>
        <time>2022-05-22 00:26:33</time>
      </trkpt>
      <trkpt lat="42.19533" lon="2.20947">
        <ele>780.2</ele>
        <time>2022-05-22 00:26:34</time>
      </trkpt>
      <trkpt lat="42.19534" lon="2.20936">
        <ele>779.6</ele>
        <time>2022-05-22 00:26:35</time>
      </trkpt>
      <trkpt lat="42.19535" lon="2.20926">
        <ele>779.2</ele>
        <time>2022-05-22 00:26:36</time>
      </trkpt>
      <trkpt lat="42.19537" lon="2.20915">
        <ele>778.6</ele>
        <time>2022-05-22 00:26:37</time>
      </trkpt>
      <trkpt lat="42.19539" lon="2.20904">
        <ele>778</ele>
        <time>2022-05-22 00:26:38</time>
      </trkpt>
      <trkpt lat="42.19541" lon="2.20892">
        <ele>777.4</ele>
        <time>2022-05-22 00:26:39</time>
      </trkpt>
      <trkpt lat="42.19543" lon="2.20881">
        <ele>777</ele>
        <time>2022-05-22 00:26:40</time>
      </trkpt>
      <trkpt lat="42.19545" lon="2.2087">
        <ele>776.4</ele>
        <time>2022-05-22 00:26:41</time>
      </trkpt>
      <trkpt lat="42.19546" lon="2.2086">
        <ele>776</ele>
        <time>2022-05-22 00:26:42</time>
      </trkpt>
      <trkpt lat="42.19547" lon="2.20849">
        <ele>775.4</ele>
        <time>2022-05-22 00:26:43</time>
      </trkpt>
      <trkpt lat="42.19547" lon="2.20838">
        <ele>775</ele>
        <time>2022-05-22 00:26:44</time>
      </trkpt>
      <trkpt lat="42.19545" lon="2.20828">
        <ele>774.4</ele>
        <time>2022-05-22 00:26:45</time>
      </trkpt>
      <trkpt lat="42.19542" lon="2.20817">
        <ele>773.8</ele>
        <time>2022-05-22 00:26:46</time>
      </trkpt>
      <trkpt lat="42.19537" lon="2.20807">
        <ele>773.2</ele>
        <time>2022-05-22 00:26:47</time>
      </trkpt>
      <trkpt lat="42.19532" lon="2.20797">
        <ele>772.6</ele>
        <time>2022-05-22 00:26:48</time>
      </trkpt>
      <trkpt lat="42.19527" lon="2.20787">
        <ele>772</ele>
        <time>2022-05-22 00:26:49</time>
      </trkpt>
      <trkpt lat="42.19521" lon="2.20777">
        <ele>771.2</ele>
        <time>2022-05-22 00:26:50</time>
      </trkpt>
      <trkpt lat="42.19515" lon="2.20766">
        <ele>770.6</ele>
        <time>2022-05-22 00:26:51</time>
      </trkpt>
      <trkpt lat="42.1951" lon="2.20756">
        <ele>770</ele>
        <time>2022-05-22 00:26:52</time>
      </trkpt>
      <trkpt lat="42.19505" lon="2.20746">
        <ele>769.6</ele>
        <time>2022-05-22 00:26:53</time>
      </trkpt>
      <trkpt lat="42.19502" lon="2.20735">
        <ele>769</ele>
        <time>2022-05-22 00:26:54</time>
      </trkpt>
      <trkpt lat="42.19499" lon="2.20722">
        <ele>768.2</ele>
        <time>2022-05-22 00:26:55</time>
      </trkpt>
      <trkpt lat="42.19498" lon="2.2071">
        <ele>767.6</ele>
        <time>2022-05-22 00:26:56</time>
      </trkpt>
      <trkpt lat="42.19498" lon="2.20697">
        <ele>767</ele>
        <time>2022-05-22 00:26:57</time>
      </trkpt>
      <trkpt lat="42.19498" lon="2.20683">
        <ele>766.2</ele>
        <time>2022-05-22 00:26:58</time>
      </trkpt>
      <trkpt lat="42.19499" lon="2.2067">
        <ele>765.6</ele>
        <time>2022-05-22 00:26:59</time>
      </trkpt>
      <trkpt lat="42.195" lon="2.20656">
        <ele>765</ele>
        <time>2022-05-22 00:27:00</time>
      </trkpt>
      <trkpt lat="42.19502" lon="2.20642">
        <ele>764.2</ele>
        <time>2022-05-22 00:27:01</time>
      </trkpt>
      <trkpt lat="42.19503" lon="2.20628">
        <ele>763.6</ele>
        <time>2022-05-22 00:27:02</time>
      </trkpt>
      <trkpt lat="42.19504" lon="2.20613">
        <ele>762.8</ele>
        <time>2022-05-22 00:27:03</time>
      </trkpt>
      <trkpt lat="42.19505" lon="2.206">
        <ele>762.2</ele>
        <time>2022-05-22 00:27:04</time>
      </trkpt>
      <trkpt lat="42.19505" lon="2.20588">
        <ele>761.8</ele>
        <time>2022-05-22 00:27:05</time>
      </trkpt>
      <trkpt lat="42.19505" lon="2.20576">
        <ele>761</ele>
        <time>2022-05-22 00:27:06</time>
      </trkpt>
      <trkpt lat="42.19504" lon="2.20564">
        <ele>760.4</ele>
        <time>2022-05-22 00:27:07</time>
      </trkpt>
      <trkpt lat="42.19501" lon="2.20553">
        <ele>759.8</ele>
        <time>2022-05-22 00:27:08</time>
      </trkpt>
      <trkpt lat="42.19496" lon="2.20543">
        <ele>759.2</ele>
        <time>2022-05-22 00:27:09</time>
      </trkpt>
      <trkpt lat="42.1949" lon="2.20534">
        <ele>758.6</ele>
        <time>2022-05-22 00:27:10</time>
      </trkpt>
      <trkpt lat="42.19485" lon="2.20524">
        <ele>758</ele>
        <time>2022-05-22 00:27:11</time>
      </trkpt>
      <trkpt lat="42.1948" lon="2.20514">
        <ele>757.4</ele>
        <time>2022-05-22 00:27:12</time>
      </trkpt>
      <trkpt lat="42.19476" lon="2.20502">
        <ele>756.8</ele>
        <time>2022-05-22 00:27:13</time>
      </trkpt>
      <trkpt lat="42.19474" lon="2.2049">
        <ele>756.2</ele>
        <time>2022-05-22 00:27:14</time>
      </trkpt>
      <trkpt lat="42.19473" lon="2.20478">
        <ele>755.6</ele>
        <time>2022-05-22 00:27:15</time>
      </trkpt>
      <trkpt lat="42.19475" lon="2.20466">
        <ele>755</ele>
        <time>2022-05-22 00:27:16</time>
      </trkpt>
      <trkpt lat="42.19478" lon="2.20455">
        <ele>754.4</ele>
        <time>2022-05-22 00:27:17</time>
      </trkpt>
      <trkpt lat="42.19483" lon="2.20443">
        <ele>753.8</ele>
        <time>2022-05-22 00:27:18</time>
      </trkpt>
      <trkpt lat="42.19487" lon="2.20433">
        <ele>753</ele>
        <time>2022-05-22 00:27:19</time>
      </trkpt>
      <trkpt lat="42.19493" lon="2.20425">
        <ele>752.4</ele>
        <time>2022-05-22 00:27:20</time>
      </trkpt>
      <trkpt lat="42.195" lon="2.20417">
        <ele>751.8</ele>
        <time>2022-05-22 00:27:21</time>
      </trkpt>
      <trkpt lat="42.19509" lon="2.2041">
        <ele>751</ele>
        <time>2022-05-22 00:27:22</time>
      </trkpt>
      <trkpt lat="42.19517" lon="2.20404">
        <ele>750.4</ele>
        <time>2022-05-22 00:27:23</time>
      </trkpt>
      <trkpt lat="42.19525" lon="2.20398">
        <ele>750</ele>
        <time>2022-05-22 00:27:24</time>
      </trkpt>
      <trkpt lat="42.19531" lon="2.2039">
        <ele>749.4</ele>
        <time>2022-05-22 00:27:25</time>
      </trkpt>
      <trkpt lat="42.19536" lon="2.2038">
        <ele>748.6</ele>
        <time>2022-05-22 00:27:26</time>
      </trkpt>
      <trkpt lat="42.19542" lon="2.2037">
        <ele>748</ele>
        <time>2022-05-22 00:27:27</time>
      </trkpt>
      <trkpt lat="42.19546" lon="2.2036">
        <ele>747.6</ele>
        <time>2022-05-22 00:27:28</time>
      </trkpt>
      <trkpt lat="42.19551" lon="2.2035">
        <ele>747</ele>
        <time>2022-05-22 00:27:29</time>
      </trkpt>
      <trkpt lat="42.19553" lon="2.20339">
        <ele>746.4</ele>
        <time>2022-05-22 00:27:30</time>
      </trkpt>
      <trkpt lat="42.19554" lon="2.20328">
        <ele>746.2</ele>
        <time>2022-05-22 00:27:31</time>
      </trkpt>
      <trkpt lat="42.19552" lon="2.20318">
        <ele>745.8</ele>
        <time>2022-05-22 00:27:32</time>
      </trkpt>
      <trkpt lat="42.19549" lon="2.20308">
        <ele>745.6</ele>
        <time>2022-05-22 00:27:33</time>
      </trkpt>
      <trkpt lat="42.19544" lon="2.20299">
        <ele>745.4</ele>
        <time>2022-05-22 00:27:34</time>
      </trkpt>
      <trkpt lat="42.19539" lon="2.20292">
        <ele>745.2</ele>
        <time>2022-05-22 00:27:35</time>
      </trkpt>
      <trkpt lat="42.19534" lon="2.20285">
        <ele>745.2</ele>
        <time>2022-05-22 00:27:36</time>
      </trkpt>
      <trkpt lat="42.19528" lon="2.20278">
        <ele>745</ele>
        <time>2022-05-22 00:27:37</time>
      </trkpt>
      <trkpt lat="42.19522" lon="2.20271">
        <ele>744.8</ele>
        <time>2022-05-22 00:27:38</time>
      </trkpt>
      <trkpt lat="42.19516" lon="2.20264">
        <ele>744.6</ele>
        <time>2022-05-22 00:27:39</time>
      </trkpt>
      <trkpt lat="42.19511" lon="2.20256">
        <ele>744.2</ele>
        <time>2022-05-22 00:27:40</time>
      </trkpt>
      <trkpt lat="42.19505" lon="2.20248">
        <ele>743.8</ele>
        <time>2022-05-22 00:27:41</time>
      </trkpt>
      <trkpt lat="42.195" lon="2.20238">
        <ele>743.4</ele>
        <time>2022-05-22 00:27:42</time>
      </trkpt>
      <trkpt lat="42.19496" lon="2.20227">
        <ele>742.8</ele>
        <time>2022-05-22 00:27:43</time>
      </trkpt>
      <trkpt lat="42.19493" lon="2.20216">
        <ele>742.2</ele>
        <time>2022-05-22 00:27:44</time>
      </trkpt>
      <trkpt lat="42.19491" lon="2.20204">
        <ele>741.6</ele>
        <time>2022-05-22 00:27:45</time>
      </trkpt>
      <trkpt lat="42.19489" lon="2.20191">
        <ele>741.2</ele>
        <time>2022-05-22 00:27:46</time>
      </trkpt>
      <trkpt lat="42.19487" lon="2.20178">
        <ele>740.6</ele>
        <time>2022-05-22 00:27:47</time>
      </trkpt>
      <trkpt lat="42.19485" lon="2.20165">
        <ele>740</ele>
        <time>2022-05-22 00:27:48</time>
      </trkpt>
      <trkpt lat="42.19484" lon="2.20152">
        <ele>739.4</ele>
        <time>2022-05-22 00:27:49</time>
      </trkpt>
      <trkpt lat="42.19482" lon="2.20139">
        <ele>738.8</ele>
        <time>2022-05-22 00:27:50</time>
      </trkpt>
      <trkpt lat="42.1948" lon="2.20127">
        <ele>738.2</ele>
        <time>2022-05-22 00:27:51</time>
      </trkpt>
      <trkpt lat="42.19479" lon="2.20115">
        <ele>737.6</ele>
        <time>2022-05-22 00:27:52</time>
      </trkpt>
      <trkpt lat="42.19477" lon="2.20104">
        <ele>737</ele>
        <time>2022-05-22 00:27:53</time>
      </trkpt>
      <trkpt lat="42.19476" lon="2.20093">
        <ele>736.6</ele>
        <time>2022-05-22 00:27:54</time>
      </trkpt>
      <trkpt lat="42.19474" lon="2.20082">
        <ele>736</ele>
        <time>2022-05-22 00:27:55</time>
      </trkpt>
      <trkpt lat="42.19472" lon="2.20072">
        <ele>735.6</ele>
        <time>2022-05-22 00:27:56</time>
      </trkpt>
      <trkpt lat="42.1947" lon="2.20062">
        <ele>735</ele>
        <time>2022-05-22 00:27:57</time>
      </trkpt>
      <trkpt lat="42.19467" lon="2.20052">
        <ele>734.4</ele>
        <time>2022-05-22 00:27:58</time>
      </trkpt>
      <trkpt lat="42.19463" lon="2.20042">
        <ele>734</ele>
        <time>2022-05-22 00:27:59</time>
      </trkpt>
      <trkpt lat="42.19459" lon="2.20033">
        <ele>733.4</ele>
        <time>2022-05-22 00:28:00</time>
      </trkpt>
      <trkpt lat="42.19455" lon="2.20023">
        <ele>733</ele>
        <time>2022-05-22 00:28:01</time>
      </trkpt>
      <trkpt lat="42.19452" lon="2.20014">
        <ele>732.6</ele>
        <time>2022-05-22 00:28:02</time>
      </trkpt>
      <trkpt lat="42.19451" lon="2.20005">
        <ele>732</ele>
        <time>2022-05-22 00:28:03</time>
      </trkpt>
      <trkpt lat="42.19451" lon="2.19996">
        <ele>731.6</ele>
        <time>2022-05-22 00:28:04</time>
      </trkpt>
      <trkpt lat="42.19454" lon="2.19987">
        <ele>731</ele>
        <time>2022-05-22 00:28:05</time>
      </trkpt>
      <trkpt lat="42.1946" lon="2.19979">
        <ele>730.6</ele>
        <time>2022-05-22 00:28:06</time>
      </trkpt>
      <trkpt lat="42.19467" lon="2.19974">
        <ele>730</ele>
        <time>2022-05-22 00:28:07</time>
      </trkpt>
      <trkpt lat="42.19474" lon="2.19969">
        <ele>729.6</ele>
        <time>2022-05-22 00:28:08</time>
      </trkpt>
      <trkpt lat="42.19482" lon="2.19966">
        <ele>729.2</ele>
        <time>2022-05-22 00:28:09</time>
      </trkpt>
      <trkpt lat="42.1949" lon="2.19961">
        <ele>728.6</ele>
        <time>2022-05-22 00:28:10</time>
      </trkpt>
      <trkpt lat="42.19498" lon="2.19956">
        <ele>728.2</ele>
        <time>2022-05-22 00:28:11</time>
      </trkpt>
      <trkpt lat="42.19506" lon="2.1995">
        <ele>727.8</ele>
        <time>2022-05-22 00:28:12</time>
      </trkpt>
      <trkpt lat="42.19513" lon="2.19945">
        <ele>727.2</ele>
        <time>2022-05-22 00:28:13</time>
      </trkpt>
      <trkpt lat="42.1952" lon="2.19939">
        <ele>726.6</ele>
        <time>2022-05-22 00:28:14</time>
      </trkpt>
      <trkpt lat="42.19527" lon="2.19935">
        <ele>726.2</ele>
        <time>2022-05-22 00:28:15</time>
      </trkpt>
      <trkpt lat="42.19534" lon="2.19931">
        <ele>725.6</ele>
        <time>2022-05-22 00:28:16</time>
      </trkpt>
      <trkpt lat="42.19541" lon="2.19927">
        <ele>725</ele>
        <time>2022-05-22 00:28:17</time>
      </trkpt>
      <trkpt lat="42.19548" lon="2.19923">
        <ele>724.4</ele>
        <time>2022-05-22 00:28:18</time>
      </trkpt>
      <trkpt lat="42.19555" lon="2.19918">
        <ele>723.8</ele>
        <time>2022-05-22 00:28:19</time>
      </trkpt>
      <trkpt lat="42.19562" lon="2.19912">
        <ele>723</ele>
        <time>2022-05-22 00:28:20</time>
      </trkpt>
      <trkpt lat="42.19569" lon="2.19905">
        <ele>722.2</ele>
        <time>2022-05-22 00:28:21</time>
      </trkpt>
      <trkpt lat="42.19575" lon="2.19898">
        <ele>721.6</ele>
        <time>2022-05-22 00:28:22</time>
      </trkpt>
      <trkpt lat="42.19581" lon="2.1989">
        <ele>720.8</ele>
        <time>2022-05-22 00:28:23</time>
      </trkpt>
      <trkpt lat="42.19588" lon="2.19882">
        <ele>720.2</ele>
        <time>2022-05-22 00:28:24</time>
      </trkpt>
      <trkpt lat="42.19595" lon="2.19874">
        <ele>719.6</ele>
        <time>2022-05-22 00:28:25</time>
      </trkpt>
      <trkpt lat="42.19602" lon="2.19867">
        <ele>719</ele>
        <time>2022-05-22 00:28:26</time>
      </trkpt>
      <trkpt lat="42.19608" lon="2.19861">
        <ele>718.4</ele>
        <time>2022-05-22 00:28:27</time>
      </trkpt>
      <trkpt lat="42.19615" lon="2.19857">
        <ele>717.8</ele>
        <time>2022-05-22 00:28:28</time>
      </trkpt>
      <trkpt lat="42.19622" lon="2.19855">
        <ele>717.4</ele>
        <time>2022-05-22 00:28:29</time>
      </trkpt>
      <trkpt lat="42.1963" lon="2.19854">
        <ele>716.8</ele>
        <time>2022-05-22 00:28:30</time>
      </trkpt>
      <trkpt lat="42.19637" lon="2.19852">
        <ele>716.2</ele>
        <time>2022-05-22 00:28:31</time>
      </trkpt>
      <trkpt lat="42.19645" lon="2.19849">
        <ele>715.8</ele>
        <time>2022-05-22 00:28:32</time>
      </trkpt>
      <trkpt lat="42.19652" lon="2.19844">
        <ele>715.4</ele>
        <time>2022-05-22 00:28:33</time>
      </trkpt>
      <trkpt lat="42.19659" lon="2.19838">
        <ele>715.2</ele>
        <time>2022-05-22 00:28:34</time>
      </trkpt>
      <trkpt lat="42.19666" lon="2.19831">
        <ele>715</ele>
        <time>2022-05-22 00:28:35</time>
      </trkpt>
      <trkpt lat="42.19672" lon="2.19824">
        <ele>714.8</ele>
        <time>2022-05-22 00:28:36</time>
      </trkpt>
      <trkpt lat="42.19679" lon="2.19818">
        <ele>714.6</ele>
        <time>2022-05-22 00:28:37</time>
      </trkpt>
      <trkpt lat="42.19686" lon="2.19813">
        <ele>714.4</ele>
        <time>2022-05-22 00:28:38</time>
      </trkpt>
      <trkpt lat="42.19692" lon="2.19808">
        <ele>714.2</ele>
        <time>2022-05-22 00:28:39</time>
      </trkpt>
      <trkpt lat="42.19697" lon="2.19803">
        <ele>713.8</ele>
        <time>2022-05-22 00:28:40</time>
      </trkpt>
      <trkpt lat="42.19703" lon="2.19797">
        <ele>713.6</ele>
        <time>2022-05-22 00:28:41</time>
      </trkpt>
      <trkpt lat="42.19708" lon="2.19792">
        <ele>713.4</ele>
        <time>2022-05-22 00:28:42</time>
      </trkpt>
      <trkpt lat="42.19713" lon="2.19786">
        <ele>713</ele>
        <time>2022-05-22 00:28:43</time>
      </trkpt>
      <trkpt lat="42.19718" lon="2.1978">
        <ele>712.8</ele>
        <time>2022-05-22 00:28:44</time>
      </trkpt>
      <trkpt lat="42.19721" lon="2.19774">
        <ele>712.6</ele>
        <time>2022-05-22 00:28:45</time>
      </trkpt>
      <trkpt lat="42.19722" lon="2.19768">
        <ele>712.2</ele>
        <time>2022-05-22 00:28:46</time>
      </trkpt>
      <trkpt lat="42.19721" lon="2.19762">
        <ele>711.8</ele>
        <time>2022-05-22 00:28:47</time>
      </trkpt>
      <trkpt lat="42.19718" lon="2.19756">
        <ele>711.2</ele>
        <time>2022-05-22 00:28:48</time>
      </trkpt>
      <trkpt lat="42.19715" lon="2.19751">
        <ele>710.4</ele>
        <time>2022-05-22 00:28:49</time>
      </trkpt>
      <trkpt lat="42.1971" lon="2.19745">
        <ele>709.6</ele>
        <time>2022-05-22 00:28:50</time>
      </trkpt>
      <trkpt lat="42.19706" lon="2.19739">
        <ele>708.8</ele>
        <time>2022-05-22 00:28:51</time>
      </trkpt>
      <trkpt lat="42.19701" lon="2.19732">
        <ele>708</ele>
        <time>2022-05-22 00:28:52</time>
      </trkpt>
      <trkpt lat="42.19696" lon="2.19726">
        <ele>707.2</ele>
        <time>2022-05-22 00:28:53</time>
      </trkpt>
      <trkpt lat="42.19692" lon="2.19719">
        <ele>706.4</ele>
        <time>2022-05-22 00:28:54</time>
      </trkpt>
      <trkpt lat="42.19687" lon="2.19713">
        <ele>705.6</ele>
        <time>2022-05-22 00:28:55</time>
      </trkpt>
      <trkpt lat="42.19683" lon="2.19707">
        <ele>704.8</ele>
        <time>2022-05-22 00:28:56</time>
      </trkpt>
      <trkpt lat="42.19679" lon="2.19701">
        <ele>704</ele>
        <time>2022-05-22 00:28:57</time>
      </trkpt>
      <trkpt lat="42.19675" lon="2.19695">
        <ele>703.2</ele>
        <time>2022-05-22 00:28:58</time>
      </trkpt>
      <trkpt lat="42.19671" lon="2.1969">
        <ele>702.4</ele>
        <time>2022-05-22 00:28:59</time>
      </trkpt>
      <trkpt lat="42.19668" lon="2.19685">
        <ele>701.8</ele>
        <time>2022-05-22 00:29:00</time>
      </trkpt>
      <trkpt lat="42.19664" lon="2.19679">
        <ele>701.2</ele>
        <time>2022-05-22 00:29:01</time>
      </trkpt>
      <trkpt lat="42.1966" lon="2.19674">
        <ele>700.6</ele>
        <time>2022-05-22 00:29:02</time>
      </trkpt>
      <trkpt lat="42.19656" lon="2.19668">
        <ele>700.2</ele>
        <time>2022-05-22 00:29:03</time>
      </trkpt>
      <trkpt lat="42.19652" lon="2.19663">
        <ele>700</ele>
        <time>2022-05-22 00:29:04</time>
      </trkpt>
      <trkpt lat="42.19648" lon="2.19659">
        <ele>699.6</ele>
        <time>2022-05-22 00:29:05</time>
      </trkpt>
      <trkpt lat="42.19645" lon="2.19654">
        <ele>699.4</ele>
        <time>2022-05-22 00:29:06</time>
      </trkpt>
      <trkpt lat="42.19641" lon="2.19649">
        <ele>699</ele>
        <time>2022-05-22 00:29:07</time>
      </trkpt>
      <trkpt lat="42.19638" lon="2.19645">
        <ele>698.8</ele>
        <time>2022-05-22 00:29:08</time>
      </trkpt>
      <trkpt lat="42.19636" lon="2.19639">
        <ele>698.6</ele>
        <time>2022-05-22 00:29:09</time>
      </trkpt>
      <trkpt lat="42.19636" lon="2.19633">
        <ele>698.6</ele>
        <time>2022-05-22 00:29:10</time>
      </trkpt>
      <trkpt lat="42.19637" lon="2.19626">
        <ele>698.4</ele>
        <time>2022-05-22 00:29:11</time>
      </trkpt>
      <trkpt lat="42.19641" lon="2.19621">
        <ele>698.4</ele>
        <time>2022-05-22 00:29:12</time>
      </trkpt>
      <trkpt lat="42.19645" lon="2.19616">
        <ele>698.4</ele>
        <time>2022-05-22 00:29:13</time>
      </trkpt>
      <trkpt lat="42.19649" lon="2.19611">
        <ele>698.4</ele>
        <time>2022-05-22 00:29:14</time>
      </trkpt>
      <trkpt lat="42.19653" lon="2.19607">
        <ele>698.2</ele>
        <time>2022-05-22 00:29:15</time>
      </trkpt>
      <trkpt lat="42.19656" lon="2.19603">
        <ele>698.2</ele>
        <time>2022-05-22 00:29:16</time>
      </trkpt>
      <trkpt lat="42.1966" lon="2.19599">
        <ele>698.2</ele>
        <time>2022-05-22 00:29:17</time>
      </trkpt>
      <trkpt lat="42.19664" lon="2.19594">
        <ele>698.2</ele>
        <time>2022-05-22 00:29:18</time>
      </trkpt>
      <trkpt lat="42.19668" lon="2.1959">
        <ele>698.2</ele>
        <time>2022-05-22 00:29:19</time>
      </trkpt>
      <trkpt lat="42.19671" lon="2.19586">
        <ele>698.2</ele>
        <time>2022-05-22 00:29:20</time>
      </trkpt>
      <trkpt lat="42.19675" lon="2.19582">
        <ele>698.2</ele>
        <time>2022-05-22 00:29:21</time>
      </trkpt>
      <trkpt lat="42.19678" lon="2.19578">
        <ele>698.2</ele>
        <time>2022-05-22 00:29:22</time>
      </trkpt>
      <trkpt lat="42.19682" lon="2.19574">
        <ele>698.2</ele>
        <time>2022-05-22 00:29:23</time>
      </trkpt>
      <trkpt lat="42.19685" lon="2.19571">
        <ele>698.2</ele>
        <time>2022-05-22 00:29:24</time>
      </trkpt>
      <trkpt lat="42.19688" lon="2.19566">
        <ele>698.4</ele>
        <time>2022-05-22 00:29:25</time>
      </trkpt>
      <trkpt lat="42.19691" lon="2.19561">
        <ele>698.4</ele>
        <time>2022-05-22 00:29:26</time>
      </trkpt>
      <trkpt lat="42.19694" lon="2.19557">
        <ele>698.4</ele>
        <time>2022-05-22 00:29:27</time>
      </trkpt>
      <trkpt lat="42.19697" lon="2.19553">
        <ele>698.4</ele>
        <time>2022-05-22 00:29:28</time>
      </trkpt>
      <trkpt lat="42.197" lon="2.19548">
        <ele>698.4</ele>
        <time>2022-05-22 00:29:29</time>
      </trkpt>
      <trkpt lat="42.19703" lon="2.19544">
        <ele>698.4</ele>
        <time>2022-05-22 00:29:30</time>
      </trkpt>
      <trkpt lat="42.19707" lon="2.1954">
        <ele>698.4</ele>
        <time>2022-05-22 00:29:31</time>
      </trkpt>
      <trkpt lat="42.19711" lon="2.19536">
        <ele>698.4</ele>
        <time>2022-05-22 00:29:32</time>
      </trkpt>
      <trkpt lat="42.19714" lon="2.19532">
        <ele>698.4</ele>
        <time>2022-05-22 00:29:33</time>
      </trkpt>
      <trkpt lat="42.19717" lon="2.19528">
        <ele>698.4</ele>
        <time>2022-05-22 00:29:34</time>
      </trkpt>
      <trkpt lat="42.19721" lon="2.19523">
        <ele>698.4</ele>
        <time>2022-05-22 00:29:35</time>
      </trkpt>
      <trkpt lat="42.19724" lon="2.19519">
        <ele>698.4</ele>
        <time>2022-05-22 00:29:36</time>
      </trkpt>
      <trkpt lat="42.19728" lon="2.19515">
        <ele>698.4</ele>
        <time>2022-05-22 00:29:37</time>
      </trkpt>
      <trkpt lat="42.19731" lon="2.19511">
        <ele>698.4</ele>
        <time>2022-05-22 00:29:38</time>
      </trkpt>
      <trkpt lat="42.19735" lon="2.19507">
        <ele>698.6</ele>
        <time>2022-05-22 00:29:39</time>
      </trkpt>
      <trkpt lat="42.19738" lon="2.19503">
        <ele>698.6</ele>
        <time>2022-05-22 00:29:40</time>
      </trkpt>
      <trkpt lat="42.19742" lon="2.19499">
        <ele>698.6</ele>
        <time>2022-05-22 00:29:41</time>
      </trkpt>
      <trkpt lat="42.19745" lon="2.19495">
        <ele>698.6</ele>
        <time>2022-05-22 00:29:42</time>
      </trkpt>
      <trkpt lat="42.19748" lon="2.19491">
        <ele>698.6</ele>
        <time>2022-05-22 00:29:43</time>
      </trkpt>
      <trkpt lat="42.19752" lon="2.19488">
        <ele>698.6</ele>
        <time>2022-05-22 00:29:44</time>
      </trkpt>
      <trkpt lat="42.19755" lon="2.19484">
        <ele>698.6</ele>
        <time>2022-05-22 00:29:45</time>
      </trkpt>
      <trkpt lat="42.19759" lon="2.1948">
        <ele>698.8</ele>
        <time>2022-05-22 00:29:46</time>
      </trkpt>
      <trkpt lat="42.19762" lon="2.19476">
        <ele>698.8</ele>
        <time>2022-05-22 00:29:47</time>
      </trkpt>
      <trkpt lat="42.19765" lon="2.19473">
        <ele>698.8</ele>
        <time>2022-05-22 00:29:48</time>
      </trkpt>
      <trkpt lat="42.19769" lon="2.19469">
        <ele>698.8</ele>
        <time>2022-05-22 00:29:49</time>
      </trkpt>
      <trkpt lat="42.19772" lon="2.19465">
        <ele>699</ele>
        <time>2022-05-22 00:29:50</time>
      </trkpt>
      <trkpt lat="42.19775" lon="2.19461">
        <ele>699</ele>
        <time>2022-05-22 00:29:51</time>
      </trkpt>
      <trkpt lat="42.19779" lon="2.19457">
        <ele>699</ele>
        <time>2022-05-22 00:29:52</time>
      </trkpt>
      <trkpt lat="42.19782" lon="2.19454">
        <ele>699</ele>
        <time>2022-05-22 00:29:53</time>
      </trkpt>
      <trkpt lat="42.19785" lon="2.1945">
        <ele>699</ele>
        <time>2022-05-22 00:29:54</time>
      </trkpt>
      <trkpt lat="42.19788" lon="2.19446">
        <ele>699</ele>
        <time>2022-05-22 00:29:55</time>
      </trkpt>
      <trkpt lat="42.19791" lon="2.19442">
        <ele>699</ele>
        <time>2022-05-22 00:29:56</time>
      </trkpt>
      <trkpt lat="42.19795" lon="2.19439">
        <ele>699</ele>
        <time>2022-05-22 00:29:57</time>
      </trkpt>
      <trkpt lat="42.19798" lon="2.19435">
        <ele>699.2</ele>
        <time>2022-05-22 00:29:58</time>
      </trkpt>
      <trkpt lat="42.19801" lon="2.19431">
        <ele>699.2</ele>
        <time>2022-05-22 00:29:59</time>
      </trkpt>
      <trkpt lat="42.19805" lon="2.19427">
        <ele>699.2</ele>
        <time>2022-05-22 00:30:00</time>
      </trkpt>
      <trkpt lat="42.19808" lon="2.19423">
        <ele>699.2</ele>
        <time>2022-05-22 00:30:01</time>
      </trkpt>
      <trkpt lat="42.19812" lon="2.1942">
        <ele>699.2</ele>
        <time>2022-05-22 00:30:02</time>
      </trkpt>
      <trkpt lat="42.19816" lon="2.19416">
        <ele>699.2</ele>
        <time>2022-05-22 00:30:03</time>
      </trkpt>
      <trkpt lat="42.1982" lon="2.19413">
        <ele>699.2</ele>
        <time>2022-05-22 00:30:04</time>
      </trkpt>
      <trkpt lat="42.19824" lon="2.19409">
        <ele>699.4</ele>
        <time>2022-05-22 00:30:05</time>
      </trkpt>
      <trkpt lat="42.19827" lon="2.19406">
        <ele>699.4</ele>
        <time>2022-05-22 00:30:06</time>
      </trkpt>
      <trkpt lat="42.1983" lon="2.19402">
        <ele>699.4</ele>
        <time>2022-05-22 00:30:07</time>
      </trkpt>
      <trkpt lat="42.19833" lon="2.19398">
        <ele>699.4</ele>
        <time>2022-05-22 00:30:08</time>
      </trkpt>
      <trkpt lat="42.19837" lon="2.19394">
        <ele>699.4</ele>
        <time>2022-05-22 00:30:09</time>
      </trkpt>
      <trkpt lat="42.19841" lon="2.19391">
        <ele>699.6</ele>
        <time>2022-05-22 00:30:10</time>
      </trkpt>
      <trkpt lat="42.19844" lon="2.19387">
        <ele>699.6</ele>
        <time>2022-05-22 00:30:11</time>
      </trkpt>
      <trkpt lat="42.19848" lon="2.19383">
        <ele>699.6</ele>
        <time>2022-05-22 00:30:12</time>
      </trkpt>
      <trkpt lat="42.19852" lon="2.19379">
        <ele>699.6</ele>
        <time>2022-05-22 00:30:13</time>
      </trkpt>
      <trkpt lat="42.19855" lon="2.19375">
        <ele>699.6</ele>
        <time>2022-05-22 00:30:14</time>
      </trkpt>
      <trkpt lat="42.19858" lon="2.19371">
        <ele>699.6</ele>
        <time>2022-05-22 00:30:15</time>
      </trkpt>
      <trkpt lat="42.19861" lon="2.19367">
        <ele>699.6</ele>
        <time>2022-05-22 00:30:16</time>
      </trkpt>
      <trkpt lat="42.19865" lon="2.19363">
        <ele>699.6</ele>
        <time>2022-05-22 00:30:17</time>
      </trkpt>
      <trkpt lat="42.19868" lon="2.19359">
        <ele>699.6</ele>
        <time>2022-05-22 00:30:18</time>
      </trkpt>
      <trkpt lat="42.19872" lon="2.19355">
        <ele>699.6</ele>
        <time>2022-05-22 00:30:19</time>
      </trkpt>
      <trkpt lat="42.19876" lon="2.19351">
        <ele>699.6</ele>
        <time>2022-05-22 00:30:20</time>
      </trkpt>
      <trkpt lat="42.1988" lon="2.19347">
        <ele>699.6</ele>
        <time>2022-05-22 00:30:21</time>
      </trkpt>
      <trkpt lat="42.19884" lon="2.19344">
        <ele>699.6</ele>
        <time>2022-05-22 00:30:22</time>
      </trkpt>
      <trkpt lat="42.19887" lon="2.1934">
        <ele>699.6</ele>
        <time>2022-05-22 00:30:23</time>
      </trkpt>
      <trkpt lat="42.1989" lon="2.19336">
        <ele>699.8</ele>
        <time>2022-05-22 00:30:24</time>
      </trkpt>
      <trkpt lat="42.19893" lon="2.19331">
        <ele>699.8</ele>
        <time>2022-05-22 00:30:25</time>
      </trkpt>
      <trkpt lat="42.19896" lon="2.19327">
        <ele>699.8</ele>
        <time>2022-05-22 00:30:26</time>
      </trkpt>
      <trkpt lat="42.19899" lon="2.19323">
        <ele>699.8</ele>
        <time>2022-05-22 00:30:27</time>
      </trkpt>
      <trkpt lat="42.19902" lon="2.1932">
        <ele>699.8</ele>
        <time>2022-05-22 00:30:28</time>
      </trkpt>
      <trkpt lat="42.19905" lon="2.19316">
        <ele>699.8</ele>
        <time>2022-05-22 00:30:29</time>
      </trkpt>
      <trkpt lat="42.19909" lon="2.19312">
        <ele>700</ele>
        <time>2022-05-22 00:30:30</time>
      </trkpt>
      <trkpt lat="42.19912" lon="2.19308">
        <ele>700</ele>
        <time>2022-05-22 00:30:31</time>
      </trkpt>
      <trkpt lat="42.19916" lon="2.19304">
        <ele>700</ele>
        <time>2022-05-22 00:30:32</time>
      </trkpt>
      <trkpt lat="42.19919" lon="2.19301">
        <ele>700</ele>
        <time>2022-05-22 00:30:33</time>
      </trkpt>
      <trkpt lat="42.19924" lon="2.19297">
        <ele>700</ele>
        <time>2022-05-22 00:30:34</time>
      </trkpt>
      <trkpt lat="42.19928" lon="2.19294">
        <ele>700.2</ele>
        <time>2022-05-22 00:30:35</time>
      </trkpt>
      <trkpt lat="42.19933" lon="2.19291">
        <ele>700.2</ele>
        <time>2022-05-22 00:30:36</time>
      </trkpt>
      <trkpt lat="42.19937" lon="2.19288">
        <ele>700.2</ele>
        <time>2022-05-22 00:30:37</time>
      </trkpt>
      <trkpt lat="42.19941" lon="2.19285">
        <ele>700.2</ele>
        <time>2022-05-22 00:30:38</time>
      </trkpt>
      <trkpt lat="42.19945" lon="2.19282">
        <ele>700.2</ele>
        <time>2022-05-22 00:30:39</time>
      </trkpt>
      <trkpt lat="42.19949" lon="2.1928">
        <ele>700.2</ele>
        <time>2022-05-22 00:30:40</time>
      </trkpt>
      <trkpt lat="42.19953" lon="2.19277">
        <ele>700.4</ele>
        <time>2022-05-22 00:30:41</time>
      </trkpt>
      <trkpt lat="42.19957" lon="2.19275">
        <ele>700.4</ele>
        <time>2022-05-22 00:30:42</time>
      </trkpt>
      <trkpt lat="42.19961" lon="2.19273">
        <ele>700.4</ele>
        <time>2022-05-22 00:30:43</time>
      </trkpt>
      <trkpt lat="42.19965" lon="2.19271">
        <ele>700.6</ele>
        <time>2022-05-22 00:30:44</time>
      </trkpt>
      <trkpt lat="42.19969" lon="2.19269">
        <ele>700.6</ele>
        <time>2022-05-22 00:30:45</time>
      </trkpt>
      <trkpt lat="42.19972" lon="2.19267">
        <ele>700.6</ele>
        <time>2022-05-22 00:30:46</time>
      </trkpt>
      <trkpt lat="42.19976" lon="2.19264">
        <ele>700.6</ele>
        <time>2022-05-22 00:30:47</time>
      </trkpt>
      <trkpt lat="42.19979" lon="2.19261">
        <ele>700.4</ele>
        <time>2022-05-22 00:30:48</time>
      </trkpt>
      <trkpt lat="42.19982" lon="2.19256">
        <ele>700.4</ele>
        <time>2022-05-22 00:30:49</time>
      </trkpt>
      <trkpt lat="42.19984" lon="2.19252">
        <ele>700.4</ele>
        <time>2022-05-22 00:30:50</time>
      </trkpt>
      <trkpt lat="42.19985" lon="2.19247">
        <ele>700.2</ele>
        <time>2022-05-22 00:30:51</time>
      </trkpt>
      <trkpt lat="42.19985" lon="2.1924">
        <ele>700</ele>
        <time>2022-05-22 00:30:52</time>
      </trkpt>
      <trkpt lat="42.19986" lon="2.19231">
        <ele>700</ele>
        <time>2022-05-22 00:30:53</time>
      </trkpt>
      <trkpt lat="42.19988" lon="2.19224">
        <ele>699.8</ele>
        <time>2022-05-22 00:30:54</time>
      </trkpt>
      <trkpt lat="42.1999" lon="2.19217">
        <ele>699.6</ele>
        <time>2022-05-22 00:30:55</time>
      </trkpt>
      <trkpt lat="42.19992" lon="2.19211">
        <ele>699.4</ele>
        <time>2022-05-22 00:30:56</time>
      </trkpt>
      <trkpt lat="42.19995" lon="2.19206">
        <ele>699.2</ele>
        <time>2022-05-22 00:30:57</time>
      </trkpt>
      <trkpt lat="42.19998" lon="2.192">
        <ele>699.2</ele>
        <time>2022-05-22 00:30:58</time>
      </trkpt>
      <trkpt lat="42.20001" lon="2.19194">
        <ele>699</ele>
        <time>2022-05-22 00:30:59</time>
      </trkpt>
      <trkpt lat="42.20004" lon="2.19188">
        <ele>699</ele>
        <time>2022-05-22 00:31:00</time>
      </trkpt>
      <trkpt lat="42.20007" lon="2.19183">
        <ele>698.8</ele>
        <time>2022-05-22 00:31:01</time>
      </trkpt>
      <trkpt lat="42.20011" lon="2.19177">
        <ele>698.8</ele>
        <time>2022-05-22 00:31:02</time>
      </trkpt>
      <trkpt lat="42.20014" lon="2.19172">
        <ele>698.8</ele>
        <time>2022-05-22 00:31:03</time>
      </trkpt>
      <trkpt lat="42.20017" lon="2.19167">
        <ele>698.8</ele>
        <time>2022-05-22 00:31:04</time>
      </trkpt>
      <trkpt lat="42.20021" lon="2.19162">
        <ele>699</ele>
        <time>2022-05-22 00:31:05</time>
      </trkpt>
      <trkpt lat="42.20024" lon="2.19157">
        <ele>699</ele>
        <time>2022-05-22 00:31:06</time>
      </trkpt>
      <trkpt lat="42.20027" lon="2.19152">
        <ele>699.2</ele>
        <time>2022-05-22 00:31:07</time>
      </trkpt>
      <trkpt lat="42.2003" lon="2.19147">
        <ele>699.4</ele>
        <time>2022-05-22 00:31:08</time>
      </trkpt>
      <trkpt lat="42.20033" lon="2.19143">
        <ele>699.6</ele>
        <time>2022-05-22 00:31:09</time>
      </trkpt>
      <trkpt lat="42.20036" lon="2.19138">
        <ele>699.8</ele>
        <time>2022-05-22 00:31:10</time>
      </trkpt>
      <trkpt lat="42.20038" lon="2.19132">
        <ele>700</ele>
        <time>2022-05-22 00:31:11</time>
      </trkpt>
      <trkpt lat="42.2004" lon="2.19127">
        <ele>700.2</ele>
        <time>2022-05-22 00:31:12</time>
      </trkpt>
      <trkpt lat="42.20043" lon="2.19122">
        <ele>700.4</ele>
        <time>2022-05-22 00:31:13</time>
      </trkpt>
      <trkpt lat="42.20045" lon="2.19118">
        <ele>700.8</ele>
        <time>2022-05-22 00:31:14</time>
      </trkpt>
      <trkpt lat="42.20047" lon="2.19114">
        <ele>701</ele>
        <time>2022-05-22 00:31:15</time>
      </trkpt>
      <trkpt lat="42.2005" lon="2.19109">
        <ele>701.2</ele>
        <time>2022-05-22 00:31:16</time>
      </trkpt>
      <trkpt lat="42.20052" lon="2.19105">
        <ele>701.4</ele>
        <time>2022-05-22 00:31:17</time>
      </trkpt>
      <trkpt lat="42.20054" lon="2.19102">
        <ele>701.6</ele>
        <time>2022-05-22 00:31:18</time>
      </trkpt>
      <trkpt lat="42.20056" lon="2.19099">
        <ele>701.8</ele>
        <time>2022-05-22 00:31:19</time>
      </trkpt>
      <trkpt lat="42.20059" lon="2.19095">
        <ele>702</ele>
        <time>2022-05-22 00:31:20</time>
      </trkpt>
      <trkpt lat="42.20061" lon="2.19092">
        <ele>702.2</ele>
        <time>2022-05-22 00:31:21</time>
      </trkpt>
      <trkpt lat="42.20064" lon="2.19088">
        <ele>702.4</ele>
        <time>2022-05-22 00:31:22</time>
      </trkpt>
      <trkpt lat="42.20066" lon="2.19084">
        <ele>702.6</ele>
        <time>2022-05-22 00:31:23</time>
      </trkpt>
      <trkpt lat="42.20068" lon="2.19081">
        <ele>702.8</ele>
        <time>2022-05-22 00:31:24</time>
      </trkpt>
      <trkpt lat="42.20069" lon="2.19078">
        <ele>703</ele>
        <time>2022-05-22 00:31:25</time>
      </trkpt>
      <trkpt lat="42.2007" lon="2.19075">
        <ele>703.2</ele>
        <time>2022-05-22 00:31:26</time>
      </trkpt>
      <trkpt lat="42.20069" lon="2.19072">
        <ele>703.2</ele>
        <time>2022-05-22 00:31:27</time>
      </trkpt>
      <trkpt lat="42.20068" lon="2.19069">
        <ele>703.4</ele>
        <time>2022-05-22 00:31:28</time>
      </trkpt>
      <trkpt lat="42.20068" lon="2.19066">
        <ele>703.4</ele>
        <time>2022-05-22 00:31:29</time>
      </trkpt>
      <trkpt lat="42.20068" lon="2.19062">
        <ele>703.6</ele>
        <time>2022-05-22 00:31:30</time>
      </trkpt>
      <trkpt lat="42.20068" lon="2.19057">
        <ele>703.6</ele>
        <time>2022-05-22 00:31:31</time>
      </trkpt>
      <trkpt lat="42.2007" lon="2.19053">
        <ele>703.8</ele>
        <time>2022-05-22 00:31:32</time>
      </trkpt>
      <trkpt lat="42.20071" lon="2.19049">
        <ele>703.8</ele>
        <time>2022-05-22 00:31:33</time>
      </trkpt>
      <trkpt lat="42.20073" lon="2.19045">
        <ele>703.8</ele>
        <time>2022-05-22 00:31:34</time>
      </trkpt>
      <trkpt lat="42.20074" lon="2.1904">
        <ele>704</ele>
        <time>2022-05-22 00:31:35</time>
      </trkpt>
      <trkpt lat="42.20076" lon="2.19036">
        <ele>704.2</ele>
        <time>2022-05-22 00:31:36</time>
      </trkpt>
      <trkpt lat="42.20077" lon="2.19032">
        <ele>704.2</ele>
        <time>2022-05-22 00:31:37</time>
      </trkpt>
      <trkpt lat="42.20078" lon="2.19028">
        <ele>704.4</ele>
        <time>2022-05-22 00:31:38</time>
      </trkpt>
      <trkpt lat="42.20079" lon="2.19023">
        <ele>704.6</ele>
        <time>2022-05-22 00:31:39</time>
      </trkpt>
      <trkpt lat="42.20079" lon="2.19019">
        <ele>704.6</ele>
        <time>2022-05-22 00:31:40</time>
      </trkpt>
      <trkpt lat="42.20079" lon="2.19015">
        <ele>704.8</ele>
        <time>2022-05-22 00:31:41</time>
      </trkpt>
      <trkpt lat="42.20079" lon="2.19011">
        <ele>704.8</ele>
        <time>2022-05-22 00:31:42</time>
      </trkpt>
      <trkpt lat="42.20079" lon="2.19006">
        <ele>705</ele>
        <time>2022-05-22 00:31:43</time>
      </trkpt>
      <trkpt lat="42.20079" lon="2.19002">
        <ele>705</ele>
        <time>2022-05-22 00:31:44</time>
      </trkpt>
      <trkpt lat="42.20079" lon="2.18998">
        <ele>705.2</ele>
        <time>2022-05-22 00:31:45</time>
      </trkpt>
      <trkpt lat="42.2008" lon="2.18993">
        <ele>705.4</ele>
        <time>2022-05-22 00:31:46</time>
      </trkpt>
      <trkpt lat="42.2008" lon="2.18989">
        <ele>705.4</ele>
        <time>2022-05-22 00:31:47</time>
      </trkpt>
      <trkpt lat="42.2008" lon="2.18986">
        <ele>705.6</ele>
        <time>2022-05-22 00:31:48</time>
      </trkpt>
      <trkpt lat="42.2008" lon="2.18982">
        <ele>705.8</ele>
        <time>2022-05-22 00:31:49</time>
      </trkpt>
      <trkpt lat="42.2008" lon="2.18978">
        <ele>705.8</ele>
        <time>2022-05-22 00:31:50</time>
      </trkpt>
      <trkpt lat="42.20081" lon="2.18974">
        <ele>706</ele>
        <time>2022-05-22 00:31:51</time>
      </trkpt>
      <trkpt lat="42.20081" lon="2.18969">
        <ele>706</ele>
        <time>2022-05-22 00:31:52</time>
      </trkpt>
      <trkpt lat="42.20082" lon="2.18965">
        <ele>706.2</ele>
        <time>2022-05-22 00:31:53</time>
      </trkpt>
      <trkpt lat="42.20083" lon="2.18961">
        <ele>706.2</ele>
        <time>2022-05-22 00:31:54</time>
      </trkpt>
      <trkpt lat="42.20083" lon="2.18957">
        <ele>706.2</ele>
        <time>2022-05-22 00:31:55</time>
      </trkpt>
      <trkpt lat="42.20084" lon="2.18953">
        <ele>706.4</ele>
        <time>2022-05-22 00:31:56</time>
      </trkpt>
      <trkpt lat="42.20084" lon="2.18949">
        <ele>706.4</ele>
        <time>2022-05-22 00:31:57</time>
      </trkpt>
      <trkpt lat="42.20084" lon="2.18945">
        <ele>706.6</ele>
        <time>2022-05-22 00:31:58</time>
      </trkpt>
      <trkpt lat="42.20084" lon="2.18941">
        <ele>706.6</ele>
        <time>2022-05-22 00:31:59</time>
      </trkpt>
      <trkpt lat="42.20085" lon="2.18937">
        <ele>706.8</ele>
        <time>2022-05-22 00:32:00</time>
      </trkpt>
      <trkpt lat="42.20085" lon="2.18934">
        <ele>706.8</ele>
        <time>2022-05-22 00:32:01</time>
      </trkpt>
      <trkpt lat="42.20085" lon="2.1893">
        <ele>707</ele>
        <time>2022-05-22 00:32:02</time>
      </trkpt>
      <trkpt lat="42.20085" lon="2.18926">
        <ele>707</ele>
        <time>2022-05-22 00:32:03</time>
      </trkpt>
      <trkpt lat="42.20086" lon="2.18923">
        <ele>707.2</ele>
        <time>2022-05-22 00:32:04</time>
      </trkpt>
      <trkpt lat="42.20086" lon="2.18919">
        <ele>707.4</ele>
        <time>2022-05-22 00:32:05</time>
      </trkpt>
      <trkpt lat="42.20087" lon="2.18915">
        <ele>707.4</ele>
        <time>2022-05-22 00:32:06</time>
      </trkpt>
      <trkpt lat="42.20089" lon="2.18911">
        <ele>707.6</ele>
        <time>2022-05-22 00:32:07</time>
      </trkpt>
      <trkpt lat="42.2009" lon="2.18908">
        <ele>707.6</ele>
        <time>2022-05-22 00:32:08</time>
      </trkpt>
      <trkpt lat="42.20091" lon="2.18904">
        <ele>707.6</ele>
        <time>2022-05-22 00:32:09</time>
      </trkpt>
      <trkpt lat="42.20093" lon="2.18899">
        <ele>707.8</ele>
        <time>2022-05-22 00:32:10</time>
      </trkpt>
      <trkpt lat="42.20095" lon="2.18895">
        <ele>707.8</ele>
        <time>2022-05-22 00:32:11</time>
      </trkpt>
      <trkpt lat="42.20096" lon="2.18891">
        <ele>707.8</ele>
        <time>2022-05-22 00:32:12</time>
      </trkpt>
      <trkpt lat="42.20098" lon="2.18886">
        <ele>707.8</ele>
        <time>2022-05-22 00:32:13</time>
      </trkpt>
      <trkpt lat="42.20099" lon="2.18882">
        <ele>707.8</ele>
        <time>2022-05-22 00:32:14</time>
      </trkpt>
      <trkpt lat="42.201" lon="2.18877">
        <ele>707.6</ele>
        <time>2022-05-22 00:32:15</time>
      </trkpt>
      <trkpt lat="42.20102" lon="2.18872">
        <ele>707.6</ele>
        <time>2022-05-22 00:32:16</time>
      </trkpt>
      <trkpt lat="42.20104" lon="2.18868">
        <ele>707.6</ele>
        <time>2022-05-22 00:32:17</time>
      </trkpt>
      <trkpt lat="42.20106" lon="2.18863">
        <ele>707.6</ele>
        <time>2022-05-22 00:32:18</time>
      </trkpt>
      <trkpt lat="42.20108" lon="2.18857">
        <ele>707.4</ele>
        <time>2022-05-22 00:32:19</time>
      </trkpt>
      <trkpt lat="42.2011" lon="2.18852">
        <ele>707.4</ele>
        <time>2022-05-22 00:32:20</time>
      </trkpt>
      <trkpt lat="42.20112" lon="2.18847">
        <ele>707.4</ele>
        <time>2022-05-22 00:32:21</time>
      </trkpt>
      <trkpt lat="42.20114" lon="2.18841">
        <ele>707.4</ele>
        <time>2022-05-22 00:32:22</time>
      </trkpt>
      <trkpt lat="42.20117" lon="2.18836">
        <ele>707.4</ele>
        <time>2022-05-22 00:32:23</time>
      </trkpt>
      <trkpt lat="42.20119" lon="2.18831">
        <ele>707.4</ele>
        <time>2022-05-22 00:32:24</time>
      </trkpt>
      <trkpt lat="42.20121" lon="2.18826">
        <ele>707.2</ele>
        <time>2022-05-22 00:32:25</time>
      </trkpt>
      <trkpt lat="42.20122" lon="2.18821">
        <ele>707.2</ele>
        <time>2022-05-22 00:32:26</time>
      </trkpt>
      <trkpt lat="42.20124" lon="2.18816">
        <ele>707.4</ele>
        <time>2022-05-22 00:32:27</time>
      </trkpt>
      <trkpt lat="42.20125" lon="2.18812">
        <ele>707.4</ele>
        <time>2022-05-22 00:32:28</time>
      </trkpt>
      <trkpt lat="42.20127" lon="2.18808">
        <ele>707.4</ele>
        <time>2022-05-22 00:32:29</time>
      </trkpt>
      <trkpt lat="42.20128" lon="2.18803">
        <ele>707.6</ele>
        <time>2022-05-22 00:32:30</time>
      </trkpt>
      <trkpt lat="42.2013" lon="2.18798">
        <ele>707.6</ele>
        <time>2022-05-22 00:32:31</time>
      </trkpt>
      <trkpt lat="42.20131" lon="2.18793">
        <ele>707.6</ele>
        <time>2022-05-22 00:32:32</time>
      </trkpt>
      <trkpt lat="42.20132" lon="2.18788">
        <ele>707.6</ele>
        <time>2022-05-22 00:32:33</time>
      </trkpt>
      <trkpt lat="42.20134" lon="2.18784">
        <ele>707.8</ele>
        <time>2022-05-22 00:32:34</time>
      </trkpt>
      <trkpt lat="42.20135" lon="2.1878">
        <ele>707.8</ele>
        <time>2022-05-22 00:32:35</time>
      </trkpt>
      <trkpt lat="42.20137" lon="2.18776">
        <ele>707.8</ele>
        <time>2022-05-22 00:32:36</time>
      </trkpt>
      <trkpt lat="42.20138" lon="2.18772">
        <ele>708</ele>
        <time>2022-05-22 00:32:37</time>
      </trkpt>
      <trkpt lat="42.20139" lon="2.18767">
        <ele>708</ele>
        <time>2022-05-22 00:32:38</time>
      </trkpt>
      <trkpt lat="42.2014" lon="2.18763">
        <ele>708.2</ele>
        <time>2022-05-22 00:32:39</time>
      </trkpt>
      <trkpt lat="42.20141" lon="2.18759">
        <ele>708.2</ele>
        <time>2022-05-22 00:32:40</time>
      </trkpt>
      <trkpt lat="42.20142" lon="2.18754">
        <ele>708.2</ele>
        <time>2022-05-22 00:32:41</time>
      </trkpt>
      <trkpt lat="42.20143" lon="2.1875">
        <ele>708.4</ele>
        <time>2022-05-22 00:32:42</time>
      </trkpt>
      <trkpt lat="42.20144" lon="2.18746">
        <ele>708.4</ele>
        <time>2022-05-22 00:32:43</time>
      </trkpt>
      <trkpt lat="42.20145" lon="2.18742">
        <ele>708.6</ele>
        <time>2022-05-22 00:32:44</time>
      </trkpt>
      <trkpt lat="42.20146" lon="2.18737">
        <ele>708.6</ele>
        <time>2022-05-22 00:32:45</time>
      </trkpt>
      <trkpt lat="42.20148" lon="2.18733">
        <ele>708.6</ele>
        <time>2022-05-22 00:32:46</time>
      </trkpt>
      <trkpt lat="42.20149" lon="2.18728">
        <ele>708.8</ele>
        <time>2022-05-22 00:32:47</time>
      </trkpt>
      <trkpt lat="42.2015" lon="2.18724">
        <ele>708.8</ele>
        <time>2022-05-22 00:32:48</time>
      </trkpt>
      <trkpt lat="42.20152" lon="2.1872">
        <ele>708.8</ele>
        <time>2022-05-22 00:32:49</time>
      </trkpt>
      <trkpt lat="42.20154" lon="2.18715">
        <ele>709</ele>
        <time>2022-05-22 00:32:50</time>
      </trkpt>
      <trkpt lat="42.20156" lon="2.18711">
        <ele>709</ele>
        <time>2022-05-22 00:32:51</time>
      </trkpt>
      <trkpt lat="42.20158" lon="2.18707">
        <ele>709</ele>
        <time>2022-05-22 00:32:52</time>
      </trkpt>
      <trkpt lat="42.20159" lon="2.18702">
        <ele>709.2</ele>
        <time>2022-05-22 00:32:53</time>
      </trkpt>
      <trkpt lat="42.2016" lon="2.18698">
        <ele>709.2</ele>
        <time>2022-05-22 00:32:54</time>
      </trkpt>
      <trkpt lat="42.20162" lon="2.18694">
        <ele>709.2</ele>
        <time>2022-05-22 00:32:55</time>
      </trkpt>
      <trkpt lat="42.20163" lon="2.1869">
        <ele>709.2</ele>
        <time>2022-05-22 00:32:56</time>
      </trkpt>
      <trkpt lat="42.20165" lon="2.18685">
        <ele>709.4</ele>
        <time>2022-05-22 00:32:57</time>
      </trkpt>
      <trkpt lat="42.20166" lon="2.18681">
        <ele>709.4</ele>
        <time>2022-05-22 00:32:58</time>
      </trkpt>
      <trkpt lat="42.20167" lon="2.18676">
        <ele>709.4</ele>
        <time>2022-05-22 00:32:59</time>
      </trkpt>
      <trkpt lat="42.20168" lon="2.18672">
        <ele>709.6</ele>
        <time>2022-05-22 00:33:00</time>
      </trkpt>
      <trkpt lat="42.2017" lon="2.18668">
        <ele>709.6</ele>
        <time>2022-05-22 00:33:01</time>
      </trkpt>
      <trkpt lat="42.20171" lon="2.18663">
        <ele>709.6</ele>
        <time>2022-05-22 00:33:02</time>
      </trkpt>
      <trkpt lat="42.20172" lon="2.18659">
        <ele>709.6</ele>
        <time>2022-05-22 00:33:03</time>
      </trkpt>
      <trkpt lat="42.20174" lon="2.18654">
        <ele>709.8</ele>
        <time>2022-05-22 00:33:04</time>
      </trkpt>
      <trkpt lat="42.20176" lon="2.1865">
        <ele>709.8</ele>
        <time>2022-05-22 00:33:05</time>
      </trkpt>
      <trkpt lat="42.20177" lon="2.18645">
        <ele>709.8</ele>
        <time>2022-05-22 00:33:06</time>
      </trkpt>
      <trkpt lat="42.20179" lon="2.18641">
        <ele>709.8</ele>
        <time>2022-05-22 00:33:07</time>
      </trkpt>
      <trkpt lat="42.20181" lon="2.18636">
        <ele>709.8</ele>
        <time>2022-05-22 00:33:08</time>
      </trkpt>
      <trkpt lat="42.20182" lon="2.18631">
        <ele>709.8</ele>
        <time>2022-05-22 00:33:09</time>
      </trkpt>
      <trkpt lat="42.20183" lon="2.18627">
        <ele>709.8</ele>
        <time>2022-05-22 00:33:10</time>
      </trkpt>
      <trkpt lat="42.20185" lon="2.18622">
        <ele>710</ele>
        <time>2022-05-22 00:33:11</time>
      </trkpt>
      <trkpt lat="42.20186" lon="2.18618">
        <ele>710</ele>
        <time>2022-05-22 00:33:12</time>
      </trkpt>
      <trkpt lat="42.20188" lon="2.18613">
        <ele>710</ele>
        <time>2022-05-22 00:33:13</time>
      </trkpt>
      <trkpt lat="42.2019" lon="2.18609">
        <ele>710</ele>
        <time>2022-05-22 00:33:14</time>
      </trkpt>
      <trkpt lat="42.20192" lon="2.18604">
        <ele>710</ele>
        <time>2022-05-22 00:33:15</time>
      </trkpt>
      <trkpt lat="42.20194" lon="2.186">
        <ele>710</ele>
        <time>2022-05-22 00:33:16</time>
      </trkpt>
      <trkpt lat="42.20196" lon="2.18595">
        <ele>710</ele>
        <time>2022-05-22 00:33:17</time>
      </trkpt>
      <trkpt lat="42.20198" lon="2.18591">
        <ele>710.2</ele>
        <time>2022-05-22 00:33:18</time>
      </trkpt>
      <trkpt lat="42.20199" lon="2.18586">
        <ele>710.2</ele>
        <time>2022-05-22 00:33:19</time>
      </trkpt>
      <trkpt lat="42.20201" lon="2.18582">
        <ele>710.2</ele>
        <time>2022-05-22 00:33:20</time>
      </trkpt>
      <trkpt lat="42.20203" lon="2.18577">
        <ele>710.2</ele>
        <time>2022-05-22 00:33:21</time>
      </trkpt>
      <trkpt lat="42.20205" lon="2.18573">
        <ele>710.2</ele>
        <time>2022-05-22 00:33:22</time>
      </trkpt>
      <trkpt lat="42.20207" lon="2.18568">
        <ele>710.2</ele>
        <time>2022-05-22 00:33:23</time>
      </trkpt>
      <trkpt lat="42.20209" lon="2.18563">
        <ele>710.4</ele>
        <time>2022-05-22 00:33:24</time>
      </trkpt>
      <trkpt lat="42.20211" lon="2.18558">
        <ele>710.4</ele>
        <time>2022-05-22 00:33:25</time>
      </trkpt>
      <trkpt lat="42.20212" lon="2.18553">
        <ele>710.4</ele>
        <time>2022-05-22 00:33:26</time>
      </trkpt>
      <trkpt lat="42.20213" lon="2.18548">
        <ele>710.4</ele>
        <time>2022-05-22 00:33:27</time>
      </trkpt>
      <trkpt lat="42.20214" lon="2.18543">
        <ele>710.4</ele>
        <time>2022-05-22 00:33:28</time>
      </trkpt>
      <trkpt lat="42.20216" lon="2.18538">
        <ele>710.6</ele>
        <time>2022-05-22 00:33:29</time>
      </trkpt>
      <trkpt lat="42.20217" lon="2.18533">
        <ele>710.6</ele>
        <time>2022-05-22 00:33:30</time>
      </trkpt>
      <trkpt lat="42.20218" lon="2.18528">
        <ele>710.6</ele>
        <time>2022-05-22 00:33:31</time>
      </trkpt>
      <trkpt lat="42.2022" lon="2.18524">
        <ele>710.6</ele>
        <time>2022-05-22 00:33:32</time>
      </trkpt>
      <trkpt lat="42.20221" lon="2.1852">
        <ele>710.8</ele>
        <time>2022-05-22 00:33:33</time>
      </trkpt>
      <trkpt lat="42.20223" lon="2.18516">
        <ele>710.8</ele>
        <time>2022-05-22 00:33:34</time>
      </trkpt>
      <trkpt lat="42.20224" lon="2.18512">
        <ele>710.8</ele>
        <time>2022-05-22 00:33:35</time>
      </trkpt>
      <trkpt lat="42.20226" lon="2.18508">
        <ele>711</ele>
        <time>2022-05-22 00:33:36</time>
      </trkpt>
      <trkpt lat="42.20228" lon="2.18504">
        <ele>711</ele>
        <time>2022-05-22 00:33:37</time>
      </trkpt>
      <trkpt lat="42.2023" lon="2.18499">
        <ele>711</ele>
        <time>2022-05-22 00:33:38</time>
      </trkpt>
      <trkpt lat="42.20232" lon="2.18495">
        <ele>711.2</ele>
        <time>2022-05-22 00:33:39</time>
      </trkpt>
      <trkpt lat="42.20234" lon="2.1849">
        <ele>711.2</ele>
        <time>2022-05-22 00:33:40</time>
      </trkpt>
      <trkpt lat="42.20235" lon="2.18486">
        <ele>711.2</ele>
        <time>2022-05-22 00:33:41</time>
      </trkpt>
      <trkpt lat="42.20237" lon="2.18481">
        <ele>711.4</ele>
        <time>2022-05-22 00:33:42</time>
      </trkpt>
      <trkpt lat="42.20238" lon="2.18477">
        <ele>711.4</ele>
        <time>2022-05-22 00:33:43</time>
      </trkpt>
      <trkpt lat="42.2024" lon="2.18473">
        <ele>711.6</ele>
        <time>2022-05-22 00:33:44</time>
      </trkpt>
      <trkpt lat="42.20241" lon="2.18468">
        <ele>711.6</ele>
        <time>2022-05-22 00:33:45</time>
      </trkpt>
      <trkpt lat="42.20241" lon="2.18464">
        <ele>711.8</ele>
        <time>2022-05-22 00:33:46</time>
      </trkpt>
      <trkpt lat="42.20242" lon="2.1846">
        <ele>711.8</ele>
        <time>2022-05-22 00:33:47</time>
      </trkpt>
      <trkpt lat="42.20243" lon="2.18456">
        <ele>711.8</ele>
        <time>2022-05-22 00:33:48</time>
      </trkpt>
      <trkpt lat="42.20243" lon="2.18452">
        <ele>712</ele>
        <time>2022-05-22 00:33:49</time>
      </trkpt>
      <trkpt lat="42.20246" lon="2.18448">
        <ele>712</ele>
        <time>2022-05-22 00:33:50</time>
      </trkpt>
      <trkpt lat="42.2025" lon="2.18444">
        <ele>712.2</ele>
        <time>2022-05-22 00:33:51</time>
      </trkpt>
      <trkpt lat="42.20251" lon="2.1844">
        <ele>712.2</ele>
        <time>2022-05-22 00:33:52</time>
      </trkpt>
      <trkpt lat="42.20252" lon="2.18436">
        <ele>712.4</ele>
        <time>2022-05-22 00:33:53</time>
      </trkpt>
      <trkpt lat="42.20254" lon="2.18432">
        <ele>712.4</ele>
        <time>2022-05-22 00:33:54</time>
      </trkpt>
      <trkpt lat="42.20255" lon="2.18428">
        <ele>712.6</ele>
        <time>2022-05-22 00:33:55</time>
      </trkpt>
      <trkpt lat="42.20256" lon="2.18424">
        <ele>712.6</ele>
        <time>2022-05-22 00:33:56</time>
      </trkpt>
      <trkpt lat="42.20257" lon="2.18419">
        <ele>712.8</ele>
        <time>2022-05-22 00:33:57</time>
      </trkpt>
      <trkpt lat="42.20258" lon="2.18415">
        <ele>712.8</ele>
        <time>2022-05-22 00:33:58</time>
      </trkpt>
      <trkpt lat="42.20259" lon="2.18411">
        <ele>713</ele>
        <time>2022-05-22 00:33:59</time>
      </trkpt>
      <trkpt lat="42.2026" lon="2.18407">
        <ele>713</ele>
        <time>2022-05-22 00:34:00</time>
      </trkpt>
      <trkpt lat="42.20261" lon="2.18404">
        <ele>713.2</ele>
        <time>2022-05-22 00:34:01</time>
      </trkpt>
      <trkpt lat="42.20263" lon="2.184">
        <ele>713.2</ele>
        <time>2022-05-22 00:34:02</time>
      </trkpt>
      <trkpt lat="42.20264" lon="2.18396">
        <ele>713.2</ele>
        <time>2022-05-22 00:34:03</time>
      </trkpt>
      <trkpt lat="42.20266" lon="2.18392">
        <ele>713.4</ele>
        <time>2022-05-22 00:34:04</time>
      </trkpt>
      <trkpt lat="42.20268" lon="2.18388">
        <ele>713.4</ele>
        <time>2022-05-22 00:34:05</time>
      </trkpt>
      <trkpt lat="42.20269" lon="2.18384">
        <ele>713.6</ele>
        <time>2022-05-22 00:34:06</time>
      </trkpt>
      <trkpt lat="42.2027" lon="2.18381">
        <ele>713.6</ele>
        <time>2022-05-22 00:34:07</time>
      </trkpt>
      <trkpt lat="42.20271" lon="2.18377">
        <ele>713.6</ele>
        <time>2022-05-22 00:34:08</time>
      </trkpt>
      <trkpt lat="42.20272" lon="2.18373">
        <ele>713.8</ele>
        <time>2022-05-22 00:34:09</time>
      </trkpt>
      <trkpt lat="42.20273" lon="2.1837">
        <ele>713.8</ele>
        <time>2022-05-22 00:34:10</time>
      </trkpt>
      <trkpt lat="42.20275" lon="2.18366">
        <ele>714</ele>
        <time>2022-05-22 00:34:11</time>
      </trkpt>
      <trkpt lat="42.20276" lon="2.18362">
        <ele>714</ele>
        <time>2022-05-22 00:34:12</time>
      </trkpt>
      <trkpt lat="42.20277" lon="2.18359">
        <ele>714.2</ele>
        <time>2022-05-22 00:34:13</time>
      </trkpt>
      <trkpt lat="42.20278" lon="2.18355">
        <ele>714.2</ele>
        <time>2022-05-22 00:34:14</time>
      </trkpt>
      <trkpt lat="42.20279" lon="2.18352">
        <ele>714.4</ele>
        <time>2022-05-22 00:34:15</time>
      </trkpt>
      <trkpt lat="42.20281" lon="2.18349">
        <ele>714.4</ele>
        <time>2022-05-22 00:34:16</time>
      </trkpt>
      <trkpt lat="42.20282" lon="2.18345">
        <ele>714.4</ele>
        <time>2022-05-22 00:34:17</time>
      </trkpt>
      <trkpt lat="42.20284" lon="2.18342">
        <ele>714.6</ele>
        <time>2022-05-22 00:34:18</time>
      </trkpt>
      <trkpt lat="42.20286" lon="2.18339">
        <ele>714.6</ele>
        <time>2022-05-22 00:34:19</time>
      </trkpt>
      <trkpt lat="42.20288" lon="2.18336">
        <ele>714.6</ele>
        <time>2022-05-22 00:34:20</time>
      </trkpt>
      <trkpt lat="42.20289" lon="2.18334">
        <ele>714.8</ele>
        <time>2022-05-22 00:34:21</time>
      </trkpt>
      <trkpt lat="42.20291" lon="2.18331">
        <ele>714.8</ele>
        <time>2022-05-22 00:34:22</time>
      </trkpt>
      <trkpt lat="42.20293" lon="2.18328">
        <ele>715</ele>
        <time>2022-05-22 00:34:23</time>
      </trkpt>
      <trkpt lat="42.20295" lon="2.18325">
        <ele>715</ele>
        <time>2022-05-22 00:34:24</time>
      </trkpt>
      <trkpt lat="42.20297" lon="2.18322">
        <ele>715.2</ele>
        <time>2022-05-22 00:34:25</time>
      </trkpt>
      <trkpt lat="42.20299" lon="2.18319">
        <ele>715.2</ele>
        <time>2022-05-22 00:34:26</time>
      </trkpt>
      <trkpt lat="42.20301" lon="2.18315">
        <ele>715.2</ele>
        <time>2022-05-22 00:34:27</time>
      </trkpt>
      <trkpt lat="42.20304" lon="2.18312">
        <ele>715.4</ele>
        <time>2022-05-22 00:34:28</time>
      </trkpt>
      <trkpt lat="42.20306" lon="2.18309">
        <ele>715.4</ele>
        <time>2022-05-22 00:34:29</time>
      </trkpt>
      <trkpt lat="42.20309" lon="2.18306">
        <ele>715.4</ele>
        <time>2022-05-22 00:34:30</time>
      </trkpt>
      <trkpt lat="42.20311" lon="2.18302">
        <ele>715.4</ele>
        <time>2022-05-22 00:34:31</time>
      </trkpt>
      <trkpt lat="42.20313" lon="2.18299">
        <ele>715.6</ele>
        <time>2022-05-22 00:34:32</time>
      </trkpt>
      <trkpt lat="42.20315" lon="2.18295">
        <ele>715.6</ele>
        <time>2022-05-22 00:34:33</time>
      </trkpt>
      <trkpt lat="42.20317" lon="2.18291">
        <ele>715.6</ele>
        <time>2022-05-22 00:34:34</time>
      </trkpt>
      <trkpt lat="42.20319" lon="2.18288">
        <ele>715.8</ele>
        <time>2022-05-22 00:34:35</time>
      </trkpt>
      <trkpt lat="42.20321" lon="2.18284">
        <ele>715.8</ele>
        <time>2022-05-22 00:34:36</time>
      </trkpt>
      <trkpt lat="42.20323" lon="2.1828">
        <ele>715.8</ele>
        <time>2022-05-22 00:34:37</time>
      </trkpt>
      <trkpt lat="42.20324" lon="2.18276">
        <ele>716</ele>
        <time>2022-05-22 00:34:38</time>
      </trkpt>
      <trkpt lat="42.20326" lon="2.18272">
        <ele>716</ele>
        <time>2022-05-22 00:34:39</time>
      </trkpt>
      <trkpt lat="42.20328" lon="2.18268">
        <ele>716</ele>
        <time>2022-05-22 00:34:40</time>
      </trkpt>
      <trkpt lat="42.2033" lon="2.18264">
        <ele>716</ele>
        <time>2022-05-22 00:34:41</time>
      </trkpt>
      <trkpt lat="42.20332" lon="2.18261">
        <ele>716</ele>
        <time>2022-05-22 00:34:42</time>
      </trkpt>
      <trkpt lat="42.20336" lon="2.18257">
        <ele>716</ele>
        <time>2022-05-22 00:34:43</time>
      </trkpt>
      <trkpt lat="42.20338" lon="2.18255">
        <ele>716</ele>
        <time>2022-05-22 00:34:44</time>
      </trkpt>
      <trkpt lat="42.20341" lon="2.18252">
        <ele>716</ele>
        <time>2022-05-22 00:34:45</time>
      </trkpt>
      <trkpt lat="42.20344" lon="2.1825">
        <ele>716</ele>
        <time>2022-05-22 00:34:46</time>
      </trkpt>
      <trkpt lat="42.20346" lon="2.18247">
        <ele>716</ele>
        <time>2022-05-22 00:34:47</time>
      </trkpt>
      <trkpt lat="42.20349" lon="2.18244">
        <ele>716</ele>
        <time>2022-05-22 00:34:48</time>
      </trkpt>
      <trkpt lat="42.20352" lon="2.18241">
        <ele>716</ele>
        <time>2022-05-22 00:34:49</time>
      </trkpt>
      <trkpt lat="42.20355" lon="2.18238">
        <ele>716.2</ele>
        <time>2022-05-22 00:34:50</time>
      </trkpt>
      <trkpt lat="42.20358" lon="2.18235">
        <ele>716.2</ele>
        <time>2022-05-22 00:34:51</time>
      </trkpt>
      <trkpt lat="42.20361" lon="2.18232">
        <ele>716.2</ele>
        <time>2022-05-22 00:34:52</time>
      </trkpt>
      <trkpt lat="42.20364" lon="2.18229">
        <ele>716.2</ele>
        <time>2022-05-22 00:34:53</time>
      </trkpt>
      <trkpt lat="42.20367" lon="2.18226">
        <ele>716.2</ele>
        <time>2022-05-22 00:34:54</time>
      </trkpt>
      <trkpt lat="42.20371" lon="2.18222">
        <ele>716.2</ele>
        <time>2022-05-22 00:34:55</time>
      </trkpt>
      <trkpt lat="42.20374" lon="2.18218">
        <ele>716.2</ele>
        <time>2022-05-22 00:34:56</time>
      </trkpt>
      <trkpt lat="42.20378" lon="2.18215">
        <ele>716.2</ele>
        <time>2022-05-22 00:34:57</time>
      </trkpt>
      <trkpt lat="42.20381" lon="2.18211">
        <ele>716.2</ele>
        <time>2022-05-22 00:34:58</time>
      </trkpt>
      <trkpt lat="42.20384" lon="2.18207">
        <ele>716.2</ele>
        <time>2022-05-22 00:34:59</time>
      </trkpt>
      <trkpt lat="42.20388" lon="2.18202">
        <ele>716.4</ele>
        <time>2022-05-22 00:35:00</time>
      </trkpt>
      <trkpt lat="42.20391" lon="2.18198">
        <ele>716.2</ele>
        <time>2022-05-22 00:35:01</time>
      </trkpt>
      <trkpt lat="42.20394" lon="2.18194">
        <ele>716.2</ele>
        <time>2022-05-22 00:35:02</time>
      </trkpt>
      <trkpt lat="42.20397" lon="2.18189">
        <ele>716.2</ele>
        <time>2022-05-22 00:35:03</time>
      </trkpt>
      <trkpt lat="42.204" lon="2.18184">
        <ele>716.2</ele>
        <time>2022-05-22 00:35:04</time>
      </trkpt>
      <trkpt lat="42.20403" lon="2.18179">
        <ele>716.2</ele>
        <time>2022-05-22 00:35:05</time>
      </trkpt>
      <trkpt lat="42.20406" lon="2.18174">
        <ele>716.2</ele>
        <time>2022-05-22 00:35:06</time>
      </trkpt>
      <trkpt lat="42.20408" lon="2.18169">
        <ele>716.2</ele>
        <time>2022-05-22 00:35:07</time>
      </trkpt>
      <trkpt lat="42.2041" lon="2.18164">
        <ele>716.2</ele>
        <time>2022-05-22 00:35:08</time>
      </trkpt>
      <trkpt lat="42.20413" lon="2.18158">
        <ele>716</ele>
        <time>2022-05-22 00:35:09</time>
      </trkpt>
      <trkpt lat="42.20415" lon="2.18152">
        <ele>716</ele>
        <time>2022-05-22 00:35:10</time>
      </trkpt>
      <trkpt lat="42.20418" lon="2.18146">
        <ele>715.8</ele>
        <time>2022-05-22 00:35:11</time>
      </trkpt>
      <trkpt lat="42.2042" lon="2.18141">
        <ele>715.8</ele>
        <time>2022-05-22 00:35:12</time>
      </trkpt>
      <trkpt lat="42.20423" lon="2.18135">
        <ele>715.8</ele>
        <time>2022-05-22 00:35:13</time>
      </trkpt>
      <trkpt lat="42.20425" lon="2.18129">
        <ele>715.8</ele>
        <time>2022-05-22 00:35:14</time>
      </trkpt>
      <trkpt lat="42.20427" lon="2.18123">
        <ele>715.8</ele>
        <time>2022-05-22 00:35:15</time>
      </trkpt>
      <trkpt lat="42.20429" lon="2.18117">
        <ele>715.6</ele>
        <time>2022-05-22 00:35:16</time>
      </trkpt>
      <trkpt lat="42.20431" lon="2.18111">
        <ele>715.6</ele>
        <time>2022-05-22 00:35:17</time>
      </trkpt>
      <trkpt lat="42.20433" lon="2.18105">
        <ele>715.6</ele>
        <time>2022-05-22 00:35:18</time>
      </trkpt>
      <trkpt lat="42.20435" lon="2.18099">
        <ele>715.6</ele>
        <time>2022-05-22 00:35:19</time>
      </trkpt>
      <trkpt lat="42.20437" lon="2.18092">
        <ele>715.6</ele>
        <time>2022-05-22 00:35:20</time>
      </trkpt>
      <trkpt lat="42.20439" lon="2.18086">
        <ele>715.4</ele>
        <time>2022-05-22 00:35:21</time>
      </trkpt>
      <trkpt lat="42.2044" lon="2.18079">
        <ele>715.4</ele>
        <time>2022-05-22 00:35:22</time>
      </trkpt>
      <trkpt lat="42.20441" lon="2.18072">
        <ele>715.4</ele>
        <time>2022-05-22 00:35:23</time>
      </trkpt>
      <trkpt lat="42.20442" lon="2.18065">
        <ele>715.4</ele>
        <time>2022-05-22 00:35:24</time>
      </trkpt>
      <trkpt lat="42.20443" lon="2.18058">
        <ele>715.2</ele>
        <time>2022-05-22 00:35:25</time>
      </trkpt>
      <trkpt lat="42.20443" lon="2.18051">
        <ele>715.2</ele>
        <time>2022-05-22 00:35:26</time>
      </trkpt>
      <trkpt lat="42.20444" lon="2.18044">
        <ele>715.2</ele>
        <time>2022-05-22 00:35:27</time>
      </trkpt>
      <trkpt lat="42.20444" lon="2.18037">
        <ele>715</ele>
        <time>2022-05-22 00:35:28</time>
      </trkpt>
      <trkpt lat="42.20444" lon="2.18031">
        <ele>715</ele>
        <time>2022-05-22 00:35:29</time>
      </trkpt>
      <trkpt lat="42.20444" lon="2.18023">
        <ele>715</ele>
        <time>2022-05-22 00:35:30</time>
      </trkpt>
      <trkpt lat="42.20444" lon="2.18016">
        <ele>715</ele>
        <time>2022-05-22 00:35:31</time>
      </trkpt>
      <trkpt lat="42.20444" lon="2.18009">
        <ele>714.8</ele>
        <time>2022-05-22 00:35:32</time>
      </trkpt>
      <trkpt lat="42.20444" lon="2.18002">
        <ele>714.8</ele>
        <time>2022-05-22 00:35:33</time>
      </trkpt>
      <trkpt lat="42.20444" lon="2.17995">
        <ele>714.8</ele>
        <time>2022-05-22 00:35:34</time>
      </trkpt>
      <trkpt lat="42.20444" lon="2.17988">
        <ele>714.6</ele>
        <time>2022-05-22 00:35:35</time>
      </trkpt>
      <trkpt lat="42.20444" lon="2.17981">
        <ele>714.6</ele>
        <time>2022-05-22 00:35:36</time>
      </trkpt>
      <trkpt lat="42.20444" lon="2.17974">
        <ele>714.6</ele>
        <time>2022-05-22 00:35:37</time>
      </trkpt>
      <trkpt lat="42.20444" lon="2.17967">
        <ele>714.6</ele>
        <time>2022-05-22 00:35:38</time>
      </trkpt>
      <trkpt lat="42.20444" lon="2.17961">
        <ele>714.4</ele>
        <time>2022-05-22 00:35:39</time>
      </trkpt>
      <trkpt lat="42.20444" lon="2.17954">
        <ele>714.4</ele>
        <time>2022-05-22 00:35:40</time>
      </trkpt>
      <trkpt lat="42.20444" lon="2.17948">
        <ele>714.4</ele>
        <time>2022-05-22 00:35:41</time>
      </trkpt>
      <trkpt lat="42.20444" lon="2.17941">
        <ele>714.2</ele>
        <time>2022-05-22 00:35:42</time>
      </trkpt>
      <trkpt lat="42.20445" lon="2.17935">
        <ele>714.2</ele>
        <time>2022-05-22 00:35:43</time>
      </trkpt>
      <trkpt lat="42.20445" lon="2.17928">
        <ele>714.2</ele>
        <time>2022-05-22 00:35:44</time>
      </trkpt>
      <trkpt lat="42.20445" lon="2.17922">
        <ele>714.2</ele>
        <time>2022-05-22 00:35:45</time>
      </trkpt>
      <trkpt lat="42.20445" lon="2.17916">
        <ele>714.2</ele>
        <time>2022-05-22 00:35:46</time>
      </trkpt>
      <trkpt lat="42.20445" lon="2.1791">
        <ele>714</ele>
        <time>2022-05-22 00:35:47</time>
      </trkpt>
      <trkpt lat="42.20446" lon="2.17905">
        <ele>714</ele>
        <time>2022-05-22 00:35:48</time>
      </trkpt>
      <trkpt lat="42.20446" lon="2.17899">
        <ele>714</ele>
        <time>2022-05-22 00:35:49</time>
      </trkpt>
      <trkpt lat="42.20447" lon="2.17892">
        <ele>714</ele>
        <time>2022-05-22 00:35:50</time>
      </trkpt>
      <trkpt lat="42.20447" lon="2.17886">
        <ele>714</ele>
        <time>2022-05-22 00:35:51</time>
      </trkpt>
      <trkpt lat="42.20447" lon="2.17881">
        <ele>714</ele>
        <time>2022-05-22 00:35:52</time>
      </trkpt>
      <trkpt lat="42.20447" lon="2.17876">
        <ele>714</ele>
        <time>2022-05-22 00:35:53</time>
      </trkpt>
      <trkpt lat="42.20448" lon="2.17871">
        <ele>714</ele>
        <time>2022-05-22 00:35:54</time>
      </trkpt>
      <trkpt lat="42.20448" lon="2.17866">
        <ele>714</ele>
        <time>2022-05-22 00:35:55</time>
      </trkpt>
      <trkpt lat="42.20448" lon="2.17861">
        <ele>714</ele>
        <time>2022-05-22 00:35:56</time>
      </trkpt>
      <trkpt lat="42.20449" lon="2.17856">
        <ele>714</ele>
        <time>2022-05-22 00:35:57</time>
      </trkpt>
      <trkpt lat="42.20449" lon="2.17853">
        <ele>714</ele>
        <time>2022-05-22 00:35:58</time>
      </trkpt>
      <trkpt lat="42.20451" lon="2.17829">
        <ele>714.4</ele>
        <time>2022-05-22 00:39:00</time>
      </trkpt>
      <trkpt lat="42.20451" lon="2.17825">
        <ele>714.4</ele>
        <time>2022-05-22 00:39:01</time>
      </trkpt>
      <trkpt lat="42.20452" lon="2.17821">
        <ele>714.4</ele>
        <time>2022-05-22 00:39:02</time>
      </trkpt>
      <trkpt lat="42.20452" lon="2.17816">
        <ele>714.4</ele>
        <time>2022-05-22 00:39:03</time>
      </trkpt>
      <trkpt lat="42.20453" lon="2.17812">
        <ele>714.4</ele>
        <time>2022-05-22 00:39:04</time>
      </trkpt>
      <trkpt lat="42.20454" lon="2.17807">
        <ele>714.4</ele>
        <time>2022-05-22 00:39:05</time>
      </trkpt>
      <trkpt lat="42.20455" lon="2.17802">
        <ele>714.2</ele>
        <time>2022-05-22 00:39:06</time>
      </trkpt>
      <trkpt lat="42.20456" lon="2.17797">
        <ele>714.2</ele>
        <time>2022-05-22 00:39:07</time>
      </trkpt>
      <trkpt lat="42.20457" lon="2.17792">
        <ele>714.2</ele>
        <time>2022-05-22 00:39:08</time>
      </trkpt>
      <trkpt lat="42.20458" lon="2.17786">
        <ele>714.2</ele>
        <time>2022-05-22 00:39:09</time>
      </trkpt>
      <trkpt lat="42.2046" lon="2.17781">
        <ele>714.2</ele>
        <time>2022-05-22 00:39:10</time>
      </trkpt>
      <trkpt lat="42.20461" lon="2.17776">
        <ele>714.2</ele>
        <time>2022-05-22 00:39:11</time>
      </trkpt>
      <trkpt lat="42.20463" lon="2.17771">
        <ele>714.2</ele>
        <time>2022-05-22 00:39:12</time>
      </trkpt>
      <trkpt lat="42.20464" lon="2.17766">
        <ele>714.4</ele>
        <time>2022-05-22 00:39:13</time>
      </trkpt>
      <trkpt lat="42.20466" lon="2.17761">
        <ele>714.4</ele>
        <time>2022-05-22 00:39:14</time>
      </trkpt>
      <trkpt lat="42.20468" lon="2.17756">
        <ele>714.4</ele>
        <time>2022-05-22 00:39:15</time>
      </trkpt>
      <trkpt lat="42.20469" lon="2.17752">
        <ele>714.4</ele>
        <time>2022-05-22 00:39:16</time>
      </trkpt>
      <trkpt lat="42.20471" lon="2.17747">
        <ele>714.6</ele>
        <time>2022-05-22 00:39:17</time>
      </trkpt>
      <trkpt lat="42.20473" lon="2.17743">
        <ele>714.6</ele>
        <time>2022-05-22 00:39:18</time>
      </trkpt>
      <trkpt lat="42.20475" lon="2.17738">
        <ele>714.6</ele>
        <time>2022-05-22 00:39:19</time>
      </trkpt>
      <trkpt lat="42.20476" lon="2.17734">
        <ele>714.8</ele>
        <time>2022-05-22 00:39:20</time>
      </trkpt>
      <trkpt lat="42.20478" lon="2.1773">
        <ele>714.8</ele>
        <time>2022-05-22 00:39:21</time>
      </trkpt>
      <trkpt lat="42.20479" lon="2.17726">
        <ele>714.8</ele>
        <time>2022-05-22 00:39:22</time>
      </trkpt>
      <trkpt lat="42.20481" lon="2.17721">
        <ele>715</ele>
        <time>2022-05-22 00:39:23</time>
      </trkpt>
      <trkpt lat="42.20483" lon="2.17717">
        <ele>715</ele>
        <time>2022-05-22 00:39:24</time>
      </trkpt>
      <trkpt lat="42.20485" lon="2.17713">
        <ele>715</ele>
        <time>2022-05-22 00:39:25</time>
      </trkpt>
      <trkpt lat="42.20487" lon="2.17708">
        <ele>715</ele>
        <time>2022-05-22 00:39:26</time>
      </trkpt>
      <trkpt lat="42.20488" lon="2.17704">
        <ele>715.2</ele>
        <time>2022-05-22 00:39:27</time>
      </trkpt>
      <trkpt lat="42.2049" lon="2.177">
        <ele>715.2</ele>
        <time>2022-05-22 00:39:28</time>
      </trkpt>
      <trkpt lat="42.20492" lon="2.17697">
        <ele>715.2</ele>
        <time>2022-05-22 00:39:29</time>
      </trkpt>
      <trkpt lat="42.20494" lon="2.17693">
        <ele>715.4</ele>
        <time>2022-05-22 00:39:30</time>
      </trkpt>
      <trkpt lat="42.20496" lon="2.17688">
        <ele>715.4</ele>
        <time>2022-05-22 00:39:31</time>
      </trkpt>
      <trkpt lat="42.20498" lon="2.17684">
        <ele>715.4</ele>
        <time>2022-05-22 00:39:32</time>
      </trkpt>
      <trkpt lat="42.205" lon="2.1768">
        <ele>715.6</ele>
        <time>2022-05-22 00:39:33</time>
      </trkpt>
      <trkpt lat="42.20502" lon="2.17675">
        <ele>715.6</ele>
        <time>2022-05-22 00:39:34</time>
      </trkpt>
      <trkpt lat="42.20504" lon="2.17671">
        <ele>715.6</ele>
        <time>2022-05-22 00:39:35</time>
      </trkpt>
      <trkpt lat="42.20506" lon="2.17666">
        <ele>715.8</ele>
        <time>2022-05-22 00:39:36</time>
      </trkpt>
      <trkpt lat="42.20508" lon="2.17662">
        <ele>715.8</ele>
        <time>2022-05-22 00:39:37</time>
      </trkpt>
      <trkpt lat="42.2051" lon="2.17658">
        <ele>715.8</ele>
        <time>2022-05-22 00:39:38</time>
      </trkpt>
      <trkpt lat="42.20512" lon="2.17653">
        <ele>715.8</ele>
        <time>2022-05-22 00:39:39</time>
      </trkpt>
      <trkpt lat="42.20514" lon="2.17649">
        <ele>715.8</ele>
        <time>2022-05-22 00:39:40</time>
      </trkpt>
      <trkpt lat="42.20517" lon="2.17644">
        <ele>716</ele>
        <time>2022-05-22 00:39:41</time>
      </trkpt>
      <trkpt lat="42.20519" lon="2.17639">
        <ele>716</ele>
        <time>2022-05-22 00:39:42</time>
      </trkpt>
      <trkpt lat="42.20521" lon="2.17635">
        <ele>716</ele>
        <time>2022-05-22 00:39:43</time>
      </trkpt>
      <trkpt lat="42.20523" lon="2.1763">
        <ele>716</ele>
        <time>2022-05-22 00:39:44</time>
      </trkpt>
      <trkpt lat="42.20525" lon="2.17626">
        <ele>716.2</ele>
        <time>2022-05-22 00:39:45</time>
      </trkpt>
      <trkpt lat="42.20527" lon="2.17622">
        <ele>716.2</ele>
        <time>2022-05-22 00:39:46</time>
      </trkpt>
      <trkpt lat="42.20529" lon="2.17617">
        <ele>716.2</ele>
        <time>2022-05-22 00:39:47</time>
      </trkpt>
      <trkpt lat="42.20531" lon="2.17613">
        <ele>716.4</ele>
        <time>2022-05-22 00:39:48</time>
      </trkpt>
      <trkpt lat="42.20533" lon="2.17608">
        <ele>716.4</ele>
        <time>2022-05-22 00:39:49</time>
      </trkpt>
      <trkpt lat="42.20535" lon="2.17604">
        <ele>716.6</ele>
        <time>2022-05-22 00:39:50</time>
      </trkpt>
      <trkpt lat="42.20537" lon="2.176">
        <ele>716.6</ele>
        <time>2022-05-22 00:39:51</time>
      </trkpt>
      <trkpt lat="42.20539" lon="2.17596">
        <ele>716.6</ele>
        <time>2022-05-22 00:39:52</time>
      </trkpt>
      <trkpt lat="42.20541" lon="2.17592">
        <ele>716.8</ele>
        <time>2022-05-22 00:39:53</time>
      </trkpt>
      <trkpt lat="42.20543" lon="2.17588">
        <ele>716.8</ele>
        <time>2022-05-22 00:39:54</time>
      </trkpt>
      <trkpt lat="42.20544" lon="2.17584">
        <ele>717</ele>
        <time>2022-05-22 00:39:55</time>
      </trkpt>
      <trkpt lat="42.20546" lon="2.1758">
        <ele>717</ele>
        <time>2022-05-22 00:39:56</time>
      </trkpt>
      <trkpt lat="42.20548" lon="2.17575">
        <ele>717.2</ele>
        <time>2022-05-22 00:39:57</time>
      </trkpt>
      <trkpt lat="42.2055" lon="2.17571">
        <ele>717.2</ele>
        <time>2022-05-22 00:39:58</time>
      </trkpt>
      <trkpt lat="42.20552" lon="2.17567">
        <ele>717.4</ele>
        <time>2022-05-22 00:39:59</time>
      </trkpt>
      <trkpt lat="42.20554" lon="2.17563">
        <ele>717.4</ele>
        <time>2022-05-22 00:40:00</time>
      </trkpt>
      <trkpt lat="42.20555" lon="2.17559">
        <ele>717.6</ele>
        <time>2022-05-22 00:40:01</time>
      </trkpt>
      <trkpt lat="42.20557" lon="2.17555">
        <ele>717.6</ele>
        <time>2022-05-22 00:40:02</time>
      </trkpt>
      <trkpt lat="42.20559" lon="2.17551">
        <ele>717.8</ele>
        <time>2022-05-22 00:40:03</time>
      </trkpt>
      <trkpt lat="42.2056" lon="2.17547">
        <ele>718</ele>
        <time>2022-05-22 00:40:04</time>
      </trkpt>
      <trkpt lat="42.20562" lon="2.17543">
        <ele>718</ele>
        <time>2022-05-22 00:40:05</time>
      </trkpt>
      <trkpt lat="42.20563" lon="2.17539">
        <ele>718.2</ele>
        <time>2022-05-22 00:40:06</time>
      </trkpt>
      <trkpt lat="42.20565" lon="2.17535">
        <ele>718.4</ele>
        <time>2022-05-22 00:40:07</time>
      </trkpt>
      <trkpt lat="42.20567" lon="2.17531">
        <ele>718.4</ele>
        <time>2022-05-22 00:40:08</time>
      </trkpt>
      <trkpt lat="42.20569" lon="2.17527">
        <ele>718.6</ele>
        <time>2022-05-22 00:40:09</time>
      </trkpt>
      <trkpt lat="42.2057" lon="2.17523">
        <ele>718.6</ele>
        <time>2022-05-22 00:40:10</time>
      </trkpt>
      <trkpt lat="42.20572" lon="2.1752">
        <ele>718.8</ele>
        <time>2022-05-22 00:40:11</time>
      </trkpt>
      <trkpt lat="42.20574" lon="2.17516">
        <ele>718.8</ele>
        <time>2022-05-22 00:40:12</time>
      </trkpt>
      <trkpt lat="42.20576" lon="2.17512">
        <ele>719</ele>
        <time>2022-05-22 00:40:13</time>
      </trkpt>
      <trkpt lat="42.20577" lon="2.17508">
        <ele>719</ele>
        <time>2022-05-22 00:40:14</time>
      </trkpt>
      <trkpt lat="42.20579" lon="2.17504">
        <ele>719.2</ele>
        <time>2022-05-22 00:40:15</time>
      </trkpt>
      <trkpt lat="42.20581" lon="2.175">
        <ele>719.2</ele>
        <time>2022-05-22 00:40:16</time>
      </trkpt>
      <trkpt lat="42.20582" lon="2.17497">
        <ele>719.2</ele>
        <time>2022-05-22 00:40:17</time>
      </trkpt>
      <trkpt lat="42.20583" lon="2.17495">
        <ele>719.2</ele>
        <time>2022-05-22 00:40:18</time>
      </trkpt>
      <trkpt lat="42.20584" lon="2.17492">
        <ele>719.4</ele>
        <time>2022-05-22 00:40:19</time>
      </trkpt>
      <trkpt lat="42.20587" lon="2.17483">
        <ele>719.4</ele>
        <time>2022-05-22 00:40:20</time>
      </trkpt>
      <trkpt lat="42.20589" lon="2.17479">
        <ele>719.4</ele>
        <time>2022-05-22 00:40:21</time>
      </trkpt>
      <trkpt lat="42.2059" lon="2.17474">
        <ele>719.6</ele>
        <time>2022-05-22 00:40:22</time>
      </trkpt>
      <trkpt lat="42.20592" lon="2.1747">
        <ele>719.6</ele>
        <time>2022-05-22 00:40:23</time>
      </trkpt>
      <trkpt lat="42.20594" lon="2.17465">
        <ele>719.6</ele>
        <time>2022-05-22 00:40:24</time>
      </trkpt>
      <trkpt lat="42.20596" lon="2.1746">
        <ele>719.6</ele>
        <time>2022-05-22 00:40:25</time>
      </trkpt>
      <trkpt lat="42.20598" lon="2.17456">
        <ele>719.6</ele>
        <time>2022-05-22 00:40:26</time>
      </trkpt>
      <trkpt lat="42.206" lon="2.17451">
        <ele>719.6</ele>
        <time>2022-05-22 00:40:27</time>
      </trkpt>
      <trkpt lat="42.20602" lon="2.17446">
        <ele>719.6</ele>
        <time>2022-05-22 00:40:28</time>
      </trkpt>
      <trkpt lat="42.20604" lon="2.17442">
        <ele>719.4</ele>
        <time>2022-05-22 00:40:29</time>
      </trkpt>
      <trkpt lat="42.20606" lon="2.17437">
        <ele>719.4</ele>
        <time>2022-05-22 00:40:30</time>
      </trkpt>
      <trkpt lat="42.20608" lon="2.17432">
        <ele>719.4</ele>
        <time>2022-05-22 00:40:31</time>
      </trkpt>
      <trkpt lat="42.2061" lon="2.17427">
        <ele>719.4</ele>
        <time>2022-05-22 00:40:32</time>
      </trkpt>
      <trkpt lat="42.20613" lon="2.17422">
        <ele>719.4</ele>
        <time>2022-05-22 00:40:33</time>
      </trkpt>
      <trkpt lat="42.20615" lon="2.17417">
        <ele>719.4</ele>
        <time>2022-05-22 00:40:34</time>
      </trkpt>
      <trkpt lat="42.20617" lon="2.17412">
        <ele>719.4</ele>
        <time>2022-05-22 00:40:35</time>
      </trkpt>
      <trkpt lat="42.20619" lon="2.17406">
        <ele>719.2</ele>
        <time>2022-05-22 00:40:36</time>
      </trkpt>
      <trkpt lat="42.20622" lon="2.17401">
        <ele>719.2</ele>
        <time>2022-05-22 00:40:37</time>
      </trkpt>
      <trkpt lat="42.20624" lon="2.17396">
        <ele>719.2</ele>
        <time>2022-05-22 00:40:38</time>
      </trkpt>
      <trkpt lat="42.20626" lon="2.17391">
        <ele>719.2</ele>
        <time>2022-05-22 00:40:39</time>
      </trkpt>
      <trkpt lat="42.20629" lon="2.17386">
        <ele>719</ele>
        <time>2022-05-22 00:40:40</time>
      </trkpt>
      <trkpt lat="42.20631" lon="2.17381">
        <ele>719</ele>
        <time>2022-05-22 00:40:41</time>
      </trkpt>
      <trkpt lat="42.20633" lon="2.17376">
        <ele>719</ele>
        <time>2022-05-22 00:40:42</time>
      </trkpt>
      <trkpt lat="42.20635" lon="2.17371">
        <ele>719</ele>
        <time>2022-05-22 00:40:43</time>
      </trkpt>
      <trkpt lat="42.20637" lon="2.17366">
        <ele>719</ele>
        <time>2022-05-22 00:40:44</time>
      </trkpt>
      <trkpt lat="42.2064" lon="2.17361">
        <ele>719</ele>
        <time>2022-05-22 00:40:45</time>
      </trkpt>
      <trkpt lat="42.20642" lon="2.17356">
        <ele>719</ele>
        <time>2022-05-22 00:40:46</time>
      </trkpt>
      <trkpt lat="42.20644" lon="2.17351">
        <ele>718.8</ele>
        <time>2022-05-22 00:40:47</time>
      </trkpt>
      <trkpt lat="42.20647" lon="2.17346">
        <ele>718.8</ele>
        <time>2022-05-22 00:40:48</time>
      </trkpt>
      <trkpt lat="42.20649" lon="2.17341">
        <ele>718.8</ele>
        <time>2022-05-22 00:40:49</time>
      </trkpt>
      <trkpt lat="42.20651" lon="2.17335">
        <ele>718.6</ele>
        <time>2022-05-22 00:40:50</time>
      </trkpt>
      <trkpt lat="42.20653" lon="2.1733">
        <ele>718.6</ele>
        <time>2022-05-22 00:40:51</time>
      </trkpt>
      <trkpt lat="42.20655" lon="2.17325">
        <ele>718.6</ele>
        <time>2022-05-22 00:40:52</time>
      </trkpt>
      <trkpt lat="42.20657" lon="2.17319">
        <ele>718.6</ele>
        <time>2022-05-22 00:40:53</time>
      </trkpt>
      <trkpt lat="42.2066" lon="2.17313">
        <ele>718.6</ele>
        <time>2022-05-22 00:40:54</time>
      </trkpt>
      <trkpt lat="42.20662" lon="2.17308">
        <ele>718.6</ele>
        <time>2022-05-22 00:40:55</time>
      </trkpt>
      <trkpt lat="42.20665" lon="2.17303">
        <ele>718.4</ele>
        <time>2022-05-22 00:40:56</time>
      </trkpt>
      <trkpt lat="42.20667" lon="2.17297">
        <ele>718.4</ele>
        <time>2022-05-22 00:40:57</time>
      </trkpt>
      <trkpt lat="42.20669" lon="2.17292">
        <ele>718.4</ele>
        <time>2022-05-22 00:40:58</time>
      </trkpt>
      <trkpt lat="42.20671" lon="2.17288">
        <ele>718.4</ele>
        <time>2022-05-22 00:40:59</time>
      </trkpt>
      <trkpt lat="42.20673" lon="2.17283">
        <ele>718.4</ele>
        <time>2022-05-22 00:41:00</time>
      </trkpt>
      <trkpt lat="42.20676" lon="2.17278">
        <ele>718.6</ele>
        <time>2022-05-22 00:41:01</time>
      </trkpt>
      <trkpt lat="42.20678" lon="2.17273">
        <ele>718.6</ele>
        <time>2022-05-22 00:41:02</time>
      </trkpt>
      <trkpt lat="42.2068" lon="2.17268">
        <ele>718.6</ele>
        <time>2022-05-22 00:41:03</time>
      </trkpt>
      <trkpt lat="42.20682" lon="2.17264">
        <ele>718.6</ele>
        <time>2022-05-22 00:41:04</time>
      </trkpt>
      <trkpt lat="42.20684" lon="2.17259">
        <ele>718.6</ele>
        <time>2022-05-22 00:41:05</time>
      </trkpt>
      <trkpt lat="42.20686" lon="2.17255">
        <ele>718.6</ele>
        <time>2022-05-22 00:41:06</time>
      </trkpt>
      <trkpt lat="42.20688" lon="2.17251">
        <ele>718.8</ele>
        <time>2022-05-22 00:41:07</time>
      </trkpt>
      <trkpt lat="42.2069" lon="2.17246">
        <ele>718.8</ele>
        <time>2022-05-22 00:41:08</time>
      </trkpt>
      <trkpt lat="42.20692" lon="2.17242">
        <ele>719</ele>
        <time>2022-05-22 00:41:09</time>
      </trkpt>
      <trkpt lat="42.20694" lon="2.17238">
        <ele>719</ele>
        <time>2022-05-22 00:41:10</time>
      </trkpt>
      <trkpt lat="42.20696" lon="2.17233">
        <ele>719</ele>
        <time>2022-05-22 00:41:11</time>
      </trkpt>
      <trkpt lat="42.20698" lon="2.17229">
        <ele>719.2</ele>
        <time>2022-05-22 00:41:12</time>
      </trkpt>
      <trkpt lat="42.20701" lon="2.17225">
        <ele>719.2</ele>
        <time>2022-05-22 00:41:13</time>
      </trkpt>
      <trkpt lat="42.20703" lon="2.1722">
        <ele>719.2</ele>
        <time>2022-05-22 00:41:14</time>
      </trkpt>
      <trkpt lat="42.20706" lon="2.17216">
        <ele>719.4</ele>
        <time>2022-05-22 00:41:15</time>
      </trkpt>
      <trkpt lat="42.20708" lon="2.17212">
        <ele>719.4</ele>
        <time>2022-05-22 00:41:16</time>
      </trkpt>
      <trkpt lat="42.2071" lon="2.17207">
        <ele>719.4</ele>
        <time>2022-05-22 00:41:17</time>
      </trkpt>
      <trkpt lat="42.20713" lon="2.17204">
        <ele>719.6</ele>
        <time>2022-05-22 00:41:18</time>
      </trkpt>
      <trkpt lat="42.20716" lon="2.172">
        <ele>719.6</ele>
        <time>2022-05-22 00:41:19</time>
      </trkpt>
      <trkpt lat="42.20719" lon="2.17197">
        <ele>719.6</ele>
        <time>2022-05-22 00:41:20</time>
      </trkpt>
      <trkpt lat="42.20722" lon="2.17193">
        <ele>719.8</ele>
        <time>2022-05-22 00:41:21</time>
      </trkpt>
      <trkpt lat="42.20724" lon="2.1719">
        <ele>719.8</ele>
        <time>2022-05-22 00:41:22</time>
      </trkpt>
      <trkpt lat="42.20727" lon="2.17187">
        <ele>720</ele>
        <time>2022-05-22 00:41:23</time>
      </trkpt>
      <trkpt lat="42.2073" lon="2.17184">
        <ele>720</ele>
        <time>2022-05-22 00:41:24</time>
      </trkpt>
      <trkpt lat="42.20733" lon="2.17181">
        <ele>720</ele>
        <time>2022-05-22 00:41:25</time>
      </trkpt>
      <trkpt lat="42.20736" lon="2.17178">
        <ele>720.2</ele>
        <time>2022-05-22 00:41:26</time>
      </trkpt>
      <trkpt lat="42.20739" lon="2.17176">
        <ele>720.2</ele>
        <time>2022-05-22 00:41:27</time>
      </trkpt>
      <trkpt lat="42.20742" lon="2.17173">
        <ele>720.2</ele>
        <time>2022-05-22 00:41:28</time>
      </trkpt>
      <trkpt lat="42.20745" lon="2.17171">
        <ele>720.4</ele>
        <time>2022-05-22 00:41:29</time>
      </trkpt>
      <trkpt lat="42.20748" lon="2.17169">
        <ele>720.4</ele>
        <time>2022-05-22 00:41:30</time>
      </trkpt>
      <trkpt lat="42.20751" lon="2.17167">
        <ele>720.6</ele>
        <time>2022-05-22 00:41:31</time>
      </trkpt>
      <trkpt lat="42.20755" lon="2.17164">
        <ele>720.6</ele>
        <time>2022-05-22 00:41:32</time>
      </trkpt>
      <trkpt lat="42.20758" lon="2.17162">
        <ele>720.8</ele>
        <time>2022-05-22 00:41:33</time>
      </trkpt>
      <trkpt lat="42.20761" lon="2.17159">
        <ele>720.8</ele>
        <time>2022-05-22 00:41:34</time>
      </trkpt>
      <trkpt lat="42.20764" lon="2.17157">
        <ele>720.8</ele>
        <time>2022-05-22 00:41:35</time>
      </trkpt>
      <trkpt lat="42.20767" lon="2.17154">
        <ele>721</ele>
        <time>2022-05-22 00:41:36</time>
      </trkpt>
      <trkpt lat="42.20769" lon="2.17152">
        <ele>721</ele>
        <time>2022-05-22 00:41:37</time>
      </trkpt>
      <trkpt lat="42.20772" lon="2.1715">
        <ele>721</ele>
        <time>2022-05-22 00:41:38</time>
      </trkpt>
      <trkpt lat="42.20775" lon="2.17147">
        <ele>721.2</ele>
        <time>2022-05-22 00:41:39</time>
      </trkpt>
      <trkpt lat="42.20779" lon="2.17145">
        <ele>721.2</ele>
        <time>2022-05-22 00:41:40</time>
      </trkpt>
      <trkpt lat="42.20782" lon="2.17143">
        <ele>721.4</ele>
        <time>2022-05-22 00:41:41</time>
      </trkpt>
      <trkpt lat="42.20785" lon="2.17141">
        <ele>721.4</ele>
        <time>2022-05-22 00:41:42</time>
      </trkpt>
      <trkpt lat="42.20788" lon="2.17139">
        <ele>721.4</ele>
        <time>2022-05-22 00:41:43</time>
      </trkpt>
      <trkpt lat="42.20791" lon="2.17137">
        <ele>721.6</ele>
        <time>2022-05-22 00:41:44</time>
      </trkpt>
      <trkpt lat="42.20795" lon="2.17135">
        <ele>721.6</ele>
        <time>2022-05-22 00:41:45</time>
      </trkpt>
      <trkpt lat="42.20798" lon="2.17132">
        <ele>721.8</ele>
        <time>2022-05-22 00:41:46</time>
      </trkpt>
      <trkpt lat="42.20801" lon="2.1713">
        <ele>721.8</ele>
        <time>2022-05-22 00:41:47</time>
      </trkpt>
      <trkpt lat="42.20804" lon="2.17128">
        <ele>721.8</ele>
        <time>2022-05-22 00:41:48</time>
      </trkpt>
      <trkpt lat="42.20807" lon="2.17125">
        <ele>721.8</ele>
        <time>2022-05-22 00:41:49</time>
      </trkpt>
      <trkpt lat="42.2081" lon="2.17123">
        <ele>722</ele>
        <time>2022-05-22 00:41:50</time>
      </trkpt>
      <trkpt lat="42.20813" lon="2.17121">
        <ele>722</ele>
        <time>2022-05-22 00:41:51</time>
      </trkpt>
      <trkpt lat="42.20816" lon="2.17119">
        <ele>722.2</ele>
        <time>2022-05-22 00:41:52</time>
      </trkpt>
      <trkpt lat="42.2082" lon="2.17117">
        <ele>722.2</ele>
        <time>2022-05-22 00:41:53</time>
      </trkpt>
      <trkpt lat="42.20823" lon="2.17115">
        <ele>722.2</ele>
        <time>2022-05-22 00:41:54</time>
      </trkpt>
      <trkpt lat="42.20826" lon="2.17112">
        <ele>722.2</ele>
        <time>2022-05-22 00:41:55</time>
      </trkpt>
      <trkpt lat="42.20829" lon="2.1711">
        <ele>722.2</ele>
        <time>2022-05-22 00:41:56</time>
      </trkpt>
      <trkpt lat="42.20832" lon="2.17107">
        <ele>722.4</ele>
        <time>2022-05-22 00:41:57</time>
      </trkpt>
      <trkpt lat="42.20835" lon="2.17105">
        <ele>722.4</ele>
        <time>2022-05-22 00:41:58</time>
      </trkpt>
      <trkpt lat="42.20838" lon="2.17103">
        <ele>722.4</ele>
        <time>2022-05-22 00:41:59</time>
      </trkpt>
      <trkpt lat="42.20842" lon="2.171">
        <ele>722.6</ele>
        <time>2022-05-22 00:42:00</time>
      </trkpt>
      <trkpt lat="42.20845" lon="2.17098">
        <ele>722.6</ele>
        <time>2022-05-22 00:42:01</time>
      </trkpt>
      <trkpt lat="42.20848" lon="2.17096">
        <ele>722.6</ele>
        <time>2022-05-22 00:42:02</time>
      </trkpt>
      <trkpt lat="42.20851" lon="2.17094">
        <ele>722.6</ele>
        <time>2022-05-22 00:42:03</time>
      </trkpt>
      <trkpt lat="42.20855" lon="2.17092">
        <ele>722.8</ele>
        <time>2022-05-22 00:42:04</time>
      </trkpt>
      <trkpt lat="42.20858" lon="2.1709">
        <ele>722.8</ele>
        <time>2022-05-22 00:42:05</time>
      </trkpt>
      <trkpt lat="42.20861" lon="2.17088">
        <ele>722.8</ele>
        <time>2022-05-22 00:42:06</time>
      </trkpt>
      <trkpt lat="42.20864" lon="2.17085">
        <ele>722.8</ele>
        <time>2022-05-22 00:42:07</time>
      </trkpt>
      <trkpt lat="42.20867" lon="2.17083">
        <ele>723</ele>
        <time>2022-05-22 00:42:08</time>
      </trkpt>
      <trkpt lat="42.2087" lon="2.17081">
        <ele>723</ele>
        <time>2022-05-22 00:42:09</time>
      </trkpt>
      <trkpt lat="42.20874" lon="2.17078">
        <ele>723</ele>
        <time>2022-05-22 00:42:10</time>
      </trkpt>
      <trkpt lat="42.20877" lon="2.17076">
        <ele>723</ele>
        <time>2022-05-22 00:42:11</time>
      </trkpt>
      <trkpt lat="42.2088" lon="2.17074">
        <ele>723</ele>
        <time>2022-05-22 00:42:12</time>
      </trkpt>
      <trkpt lat="42.20883" lon="2.17072">
        <ele>723.2</ele>
        <time>2022-05-22 00:42:13</time>
      </trkpt>
      <trkpt lat="42.20886" lon="2.1707">
        <ele>723.2</ele>
        <time>2022-05-22 00:42:14</time>
      </trkpt>
      <trkpt lat="42.20889" lon="2.17068">
        <ele>723.2</ele>
        <time>2022-05-22 00:42:15</time>
      </trkpt>
      <trkpt lat="42.20892" lon="2.17066">
        <ele>723.4</ele>
        <time>2022-05-22 00:42:16</time>
      </trkpt>
      <trkpt lat="42.20895" lon="2.17064">
        <ele>723.4</ele>
        <time>2022-05-22 00:42:17</time>
      </trkpt>
      <trkpt lat="42.20898" lon="2.17061">
        <ele>723.4</ele>
        <time>2022-05-22 00:42:18</time>
      </trkpt>
      <trkpt lat="42.20902" lon="2.1706">
        <ele>723.6</ele>
        <time>2022-05-22 00:42:19</time>
      </trkpt>
      <trkpt lat="42.20905" lon="2.17058">
        <ele>723.6</ele>
        <time>2022-05-22 00:42:20</time>
      </trkpt>
      <trkpt lat="42.20908" lon="2.17056">
        <ele>723.6</ele>
        <time>2022-05-22 00:42:21</time>
      </trkpt>
      <trkpt lat="42.20911" lon="2.17054">
        <ele>723.8</ele>
        <time>2022-05-22 00:42:22</time>
      </trkpt>
      <trkpt lat="42.20914" lon="2.17052">
        <ele>723.8</ele>
        <time>2022-05-22 00:42:23</time>
      </trkpt>
      <trkpt lat="42.20917" lon="2.17049">
        <ele>723.8</ele>
        <time>2022-05-22 00:42:24</time>
      </trkpt>
      <trkpt lat="42.2092" lon="2.17047">
        <ele>724</ele>
        <time>2022-05-22 00:42:25</time>
      </trkpt>
      <trkpt lat="42.20923" lon="2.17045">
        <ele>724</ele>
        <time>2022-05-22 00:42:26</time>
      </trkpt>
      <trkpt lat="42.20926" lon="2.17043">
        <ele>724</ele>
        <time>2022-05-22 00:42:27</time>
      </trkpt>
      <trkpt lat="42.20929" lon="2.17041">
        <ele>724.2</ele>
        <time>2022-05-22 00:42:28</time>
      </trkpt>
      <trkpt lat="42.20932" lon="2.17039">
        <ele>724.2</ele>
        <time>2022-05-22 00:42:29</time>
      </trkpt>
      <trkpt lat="42.20934" lon="2.17037">
        <ele>724.2</ele>
        <time>2022-05-22 00:42:30</time>
      </trkpt>
      <trkpt lat="42.20937" lon="2.17034">
        <ele>724.2</ele>
        <time>2022-05-22 00:42:31</time>
      </trkpt>
      <trkpt lat="42.2094" lon="2.17032">
        <ele>724.4</ele>
        <time>2022-05-22 00:42:32</time>
      </trkpt>
      <trkpt lat="42.20943" lon="2.17029">
        <ele>724.4</ele>
        <time>2022-05-22 00:42:33</time>
      </trkpt>
      <trkpt lat="42.20946" lon="2.17027">
        <ele>724.6</ele>
        <time>2022-05-22 00:42:34</time>
      </trkpt>
      <trkpt lat="42.20949" lon="2.17025">
        <ele>724.6</ele>
        <time>2022-05-22 00:42:35</time>
      </trkpt>
      <trkpt lat="42.20951" lon="2.17022">
        <ele>724.6</ele>
        <time>2022-05-22 00:42:36</time>
      </trkpt>
      <trkpt lat="42.20954" lon="2.1702">
        <ele>724.8</ele>
        <time>2022-05-22 00:42:37</time>
      </trkpt>
      <trkpt lat="42.20957" lon="2.17018">
        <ele>724.8</ele>
        <time>2022-05-22 00:42:38</time>
      </trkpt>
      <trkpt lat="42.20959" lon="2.17016">
        <ele>724.8</ele>
        <time>2022-05-22 00:42:39</time>
      </trkpt>
      <trkpt lat="42.20962" lon="2.17014">
        <ele>725</ele>
        <time>2022-05-22 00:42:40</time>
      </trkpt>
      <trkpt lat="42.20965" lon="2.17012">
        <ele>725</ele>
        <time>2022-05-22 00:42:41</time>
      </trkpt>
      <trkpt lat="42.20967" lon="2.17011">
        <ele>725</ele>
        <time>2022-05-22 00:42:42</time>
      </trkpt>
      <trkpt lat="42.2097" lon="2.17009">
        <ele>725.2</ele>
        <time>2022-05-22 00:42:43</time>
      </trkpt>
      <trkpt lat="42.20972" lon="2.17007">
        <ele>725.2</ele>
        <time>2022-05-22 00:42:44</time>
      </trkpt>
      <trkpt lat="42.20975" lon="2.17006">
        <ele>725.2</ele>
        <time>2022-05-22 00:42:45</time>
      </trkpt>
      <trkpt lat="42.20978" lon="2.17004">
        <ele>725.2</ele>
        <time>2022-05-22 00:42:46</time>
      </trkpt>
      <trkpt lat="42.20981" lon="2.17003">
        <ele>725.4</ele>
        <time>2022-05-22 00:42:47</time>
      </trkpt>
      <trkpt lat="42.20983" lon="2.17002">
        <ele>725.4</ele>
        <time>2022-05-22 00:42:48</time>
      </trkpt>
      <trkpt lat="42.20986" lon="2.17">
        <ele>725.4</ele>
        <time>2022-05-22 00:42:49</time>
      </trkpt>
      <trkpt lat="42.20989" lon="2.16999">
        <ele>725.4</ele>
        <time>2022-05-22 00:42:50</time>
      </trkpt>
      <trkpt lat="42.20992" lon="2.16998">
        <ele>725.6</ele>
        <time>2022-05-22 00:42:51</time>
      </trkpt>
      <trkpt lat="42.20994" lon="2.16997">
        <ele>725.6</ele>
        <time>2022-05-22 00:42:52</time>
      </trkpt>
      <trkpt lat="42.20997" lon="2.16996">
        <ele>725.6</ele>
        <time>2022-05-22 00:42:53</time>
      </trkpt>
      <trkpt lat="42.21" lon="2.16995">
        <ele>725.6</ele>
        <time>2022-05-22 00:42:54</time>
      </trkpt>
      <trkpt lat="42.21003" lon="2.16994">
        <ele>725.8</ele>
        <time>2022-05-22 00:42:55</time>
      </trkpt>
      <trkpt lat="42.21006" lon="2.16993">
        <ele>725.8</ele>
        <time>2022-05-22 00:42:56</time>
      </trkpt>
      <trkpt lat="42.21009" lon="2.16992">
        <ele>725.8</ele>
        <time>2022-05-22 00:42:57</time>
      </trkpt>
      <trkpt lat="42.21012" lon="2.16992">
        <ele>726</ele>
        <time>2022-05-22 00:42:58</time>
      </trkpt>
      <trkpt lat="42.21015" lon="2.16991">
        <ele>726</ele>
        <time>2022-05-22 00:42:59</time>
      </trkpt>
      <trkpt lat="42.21018" lon="2.1699">
        <ele>726</ele>
        <time>2022-05-22 00:43:00</time>
      </trkpt>
      <trkpt lat="42.21021" lon="2.16989">
        <ele>726.2</ele>
        <time>2022-05-22 00:43:01</time>
      </trkpt>
      <trkpt lat="42.21024" lon="2.16989">
        <ele>726.2</ele>
        <time>2022-05-22 00:43:02</time>
      </trkpt>
      <trkpt lat="42.21026" lon="2.16988">
        <ele>726.2</ele>
        <time>2022-05-22 00:43:03</time>
      </trkpt>
      <trkpt lat="42.21029" lon="2.16987">
        <ele>726.2</ele>
        <time>2022-05-22 00:43:04</time>
      </trkpt>
      <trkpt lat="42.21032" lon="2.16987">
        <ele>726.4</ele>
        <time>2022-05-22 00:43:05</time>
      </trkpt>
      <trkpt lat="42.21035" lon="2.16986">
        <ele>726.4</ele>
        <time>2022-05-22 00:43:06</time>
      </trkpt>
      <trkpt lat="42.21038" lon="2.16986">
        <ele>726.4</ele>
        <time>2022-05-22 00:43:07</time>
      </trkpt>
      <trkpt lat="42.21041" lon="2.16985">
        <ele>726.4</ele>
        <time>2022-05-22 00:43:08</time>
      </trkpt>
      <trkpt lat="42.21044" lon="2.16984">
        <ele>726.6</ele>
        <time>2022-05-22 00:43:09</time>
      </trkpt>
      <trkpt lat="42.21047" lon="2.16983">
        <ele>726.6</ele>
        <time>2022-05-22 00:43:10</time>
      </trkpt>
      <trkpt lat="42.2105" lon="2.16983">
        <ele>726.6</ele>
        <time>2022-05-22 00:43:11</time>
      </trkpt>
      <trkpt lat="42.21053" lon="2.16982">
        <ele>726.6</ele>
        <time>2022-05-22 00:43:12</time>
      </trkpt>
      <trkpt lat="42.21055" lon="2.16981">
        <ele>726.8</ele>
        <time>2022-05-22 00:43:13</time>
      </trkpt>
      <trkpt lat="42.21059" lon="2.1698">
        <ele>726.8</ele>
        <time>2022-05-22 00:43:14</time>
      </trkpt>
      <trkpt lat="42.21061" lon="2.16979">
        <ele>726.8</ele>
        <time>2022-05-22 00:43:15</time>
      </trkpt>
      <trkpt lat="42.21064" lon="2.16978">
        <ele>726.8</ele>
        <time>2022-05-22 00:43:16</time>
      </trkpt>
      <trkpt lat="42.21067" lon="2.16978">
        <ele>726.8</ele>
        <time>2022-05-22 00:43:17</time>
      </trkpt>
      <trkpt lat="42.21071" lon="2.16977">
        <ele>727</ele>
        <time>2022-05-22 00:43:18</time>
      </trkpt>
      <trkpt lat="42.21074" lon="2.16976">
        <ele>727</ele>
        <time>2022-05-22 00:43:19</time>
      </trkpt>
      <trkpt lat="42.21077" lon="2.16976">
        <ele>727</ele>
        <time>2022-05-22 00:43:20</time>
      </trkpt>
      <trkpt lat="42.2108" lon="2.16976">
        <ele>727.2</ele>
        <time>2022-05-22 00:43:21</time>
      </trkpt>
      <trkpt lat="42.21083" lon="2.16975">
        <ele>727.2</ele>
        <time>2022-05-22 00:43:22</time>
      </trkpt>
      <trkpt lat="42.21086" lon="2.16974">
        <ele>727.2</ele>
        <time>2022-05-22 00:43:23</time>
      </trkpt>
      <trkpt lat="42.21089" lon="2.16973">
        <ele>727.2</ele>
        <time>2022-05-22 00:43:24</time>
      </trkpt>
      <trkpt lat="42.21092" lon="2.16972">
        <ele>727.4</ele>
        <time>2022-05-22 00:43:25</time>
      </trkpt>
      <trkpt lat="42.21095" lon="2.16971">
        <ele>727.4</ele>
        <time>2022-05-22 00:43:26</time>
      </trkpt>
      <trkpt lat="42.21098" lon="2.16971">
        <ele>727.4</ele>
        <time>2022-05-22 00:43:27</time>
      </trkpt>
      <trkpt lat="42.21101" lon="2.1697">
        <ele>727.4</ele>
        <time>2022-05-22 00:43:28</time>
      </trkpt>
      <trkpt lat="42.21104" lon="2.16969">
        <ele>727.6</ele>
        <time>2022-05-22 00:43:29</time>
      </trkpt>
      <trkpt lat="42.21107" lon="2.16969">
        <ele>727.6</ele>
        <time>2022-05-22 00:43:30</time>
      </trkpt>
      <trkpt lat="42.2111" lon="2.16968">
        <ele>727.6</ele>
        <time>2022-05-22 00:43:31</time>
      </trkpt>
      <trkpt lat="42.21113" lon="2.16967">
        <ele>727.6</ele>
        <time>2022-05-22 00:43:32</time>
      </trkpt>
      <trkpt lat="42.21116" lon="2.16967">
        <ele>727.6</ele>
        <time>2022-05-22 00:43:33</time>
      </trkpt>
      <trkpt lat="42.21119" lon="2.16966">
        <ele>727.8</ele>
        <time>2022-05-22 00:43:34</time>
      </trkpt>
      <trkpt lat="42.21122" lon="2.16965">
        <ele>727.8</ele>
        <time>2022-05-22 00:43:35</time>
      </trkpt>
      <trkpt lat="42.21125" lon="2.16965">
        <ele>727.8</ele>
        <time>2022-05-22 00:43:36</time>
      </trkpt>
      <trkpt lat="42.21128" lon="2.16964">
        <ele>728</ele>
        <time>2022-05-22 00:43:37</time>
      </trkpt>
      <trkpt lat="42.21131" lon="2.16964">
        <ele>728</ele>
        <time>2022-05-22 00:43:38</time>
      </trkpt>
      <trkpt lat="42.21133" lon="2.16963">
        <ele>728</ele>
        <time>2022-05-22 00:43:39</time>
      </trkpt>
      <trkpt lat="42.21136" lon="2.16962">
        <ele>728</ele>
        <time>2022-05-22 00:43:40</time>
      </trkpt>
      <trkpt lat="42.21139" lon="2.16962">
        <ele>728</ele>
        <time>2022-05-22 00:43:41</time>
      </trkpt>
      <trkpt lat="42.21142" lon="2.16961">
        <ele>728.2</ele>
        <time>2022-05-22 00:43:42</time>
      </trkpt>
      <trkpt lat="42.21145" lon="2.1696">
        <ele>728.2</ele>
        <time>2022-05-22 00:43:43</time>
      </trkpt>
      <trkpt lat="42.21148" lon="2.16959">
        <ele>728.2</ele>
        <time>2022-05-22 00:43:44</time>
      </trkpt>
      <trkpt lat="42.21151" lon="2.16958">
        <ele>728.2</ele>
        <time>2022-05-22 00:43:45</time>
      </trkpt>
      <trkpt lat="42.21154" lon="2.16957">
        <ele>728.4</ele>
        <time>2022-05-22 00:43:46</time>
      </trkpt>
      <trkpt lat="42.21157" lon="2.16956">
        <ele>728.4</ele>
        <time>2022-05-22 00:43:47</time>
      </trkpt>
      <trkpt lat="42.2116" lon="2.16955">
        <ele>728.4</ele>
        <time>2022-05-22 00:43:48</time>
      </trkpt>
      <trkpt lat="42.21163" lon="2.16954">
        <ele>728.4</ele>
        <time>2022-05-22 00:43:49</time>
      </trkpt>
      <trkpt lat="42.21166" lon="2.16953">
        <ele>728.4</ele>
        <time>2022-05-22 00:43:50</time>
      </trkpt>
      <trkpt lat="42.21169" lon="2.16953">
        <ele>728.4</ele>
        <time>2022-05-22 00:43:51</time>
      </trkpt>
      <trkpt lat="42.21172" lon="2.16952">
        <ele>728.6</ele>
        <time>2022-05-22 00:43:52</time>
      </trkpt>
      <trkpt lat="42.21175" lon="2.16951">
        <ele>728.6</ele>
        <time>2022-05-22 00:43:53</time>
      </trkpt>
      <trkpt lat="42.21178" lon="2.16951">
        <ele>728.6</ele>
        <time>2022-05-22 00:43:54</time>
      </trkpt>
      <trkpt lat="42.21181" lon="2.1695">
        <ele>728.6</ele>
        <time>2022-05-22 00:43:55</time>
      </trkpt>
      <trkpt lat="42.21184" lon="2.16949">
        <ele>728.8</ele>
        <time>2022-05-22 00:43:56</time>
      </trkpt>
      <trkpt lat="42.21187" lon="2.16948">
        <ele>728.8</ele>
        <time>2022-05-22 00:43:57</time>
      </trkpt>
      <trkpt lat="42.2119" lon="2.16947">
        <ele>728.8</ele>
        <time>2022-05-22 00:43:58</time>
      </trkpt>
      <trkpt lat="42.21194" lon="2.16946">
        <ele>728.8</ele>
        <time>2022-05-22 00:43:59</time>
      </trkpt>
      <trkpt lat="42.21197" lon="2.16945">
        <ele>728.8</ele>
        <time>2022-05-22 00:44:00</time>
      </trkpt>
      <trkpt lat="42.212" lon="2.16945">
        <ele>729</ele>
        <time>2022-05-22 00:44:01</time>
      </trkpt>
      <trkpt lat="42.21203" lon="2.16944">
        <ele>729</ele>
        <time>2022-05-22 00:44:02</time>
      </trkpt>
      <trkpt lat="42.21206" lon="2.16943">
        <ele>729</ele>
        <time>2022-05-22 00:44:03</time>
      </trkpt>
      <trkpt lat="42.21209" lon="2.16942">
        <ele>729</ele>
        <time>2022-05-22 00:44:04</time>
      </trkpt>
      <trkpt lat="42.21213" lon="2.16941">
        <ele>729</ele>
        <time>2022-05-22 00:44:05</time>
      </trkpt>
      <trkpt lat="42.21216" lon="2.1694">
        <ele>729.2</ele>
        <time>2022-05-22 00:44:06</time>
      </trkpt>
      <trkpt lat="42.21219" lon="2.1694">
        <ele>729.2</ele>
        <time>2022-05-22 00:44:07</time>
      </trkpt>
      <trkpt lat="42.21222" lon="2.16939">
        <ele>729.4</ele>
        <time>2022-05-22 00:44:08</time>
      </trkpt>
      <trkpt lat="42.21225" lon="2.16938">
        <ele>729.4</ele>
        <time>2022-05-22 00:44:09</time>
      </trkpt>
      <trkpt lat="42.21228" lon="2.16937">
        <ele>729.4</ele>
        <time>2022-05-22 00:44:10</time>
      </trkpt>
      <trkpt lat="42.21231" lon="2.16937">
        <ele>729.4</ele>
        <time>2022-05-22 00:44:11</time>
      </trkpt>
      <trkpt lat="42.21234" lon="2.16936">
        <ele>729.4</ele>
        <time>2022-05-22 00:44:12</time>
      </trkpt>
      <trkpt lat="42.21237" lon="2.16935">
        <ele>729.4</ele>
        <time>2022-05-22 00:44:13</time>
      </trkpt>
      <trkpt lat="42.2124" lon="2.16935">
        <ele>729.6</ele>
        <time>2022-05-22 00:44:14</time>
      </trkpt>
      <trkpt lat="42.21243" lon="2.16934">
        <ele>729.6</ele>
        <time>2022-05-22 00:44:15</time>
      </trkpt>
      <trkpt lat="42.21246" lon="2.16933">
        <ele>729.6</ele>
        <time>2022-05-22 00:44:16</time>
      </trkpt>
      <trkpt lat="42.2125" lon="2.16932">
        <ele>729.6</ele>
        <time>2022-05-22 00:44:17</time>
      </trkpt>
      <trkpt lat="42.21253" lon="2.16931">
        <ele>729.6</ele>
        <time>2022-05-22 00:44:18</time>
      </trkpt>
      <trkpt lat="42.21256" lon="2.1693">
        <ele>729.6</ele>
        <time>2022-05-22 00:44:19</time>
      </trkpt>
      <trkpt lat="42.2126" lon="2.1693">
        <ele>729.6</ele>
        <time>2022-05-22 00:44:20</time>
      </trkpt>
      <trkpt lat="42.21263" lon="2.16929">
        <ele>729.6</ele>
        <time>2022-05-22 00:44:21</time>
      </trkpt>
      <trkpt lat="42.21267" lon="2.16928">
        <ele>729.6</ele>
        <time>2022-05-22 00:44:22</time>
      </trkpt>
      <trkpt lat="42.2127" lon="2.16927">
        <ele>729.8</ele>
        <time>2022-05-22 00:44:23</time>
      </trkpt>
      <trkpt lat="42.21273" lon="2.16927">
        <ele>729.8</ele>
        <time>2022-05-22 00:44:24</time>
      </trkpt>
      <trkpt lat="42.21277" lon="2.16926">
        <ele>729.8</ele>
        <time>2022-05-22 00:44:25</time>
      </trkpt>
      <trkpt lat="42.2128" lon="2.16925">
        <ele>729.8</ele>
        <time>2022-05-22 00:44:26</time>
      </trkpt>
      <trkpt lat="42.21284" lon="2.16924">
        <ele>730</ele>
        <time>2022-05-22 00:44:27</time>
      </trkpt>
      <trkpt lat="42.21288" lon="2.16923">
        <ele>730</ele>
        <time>2022-05-22 00:44:28</time>
      </trkpt>
      <trkpt lat="42.21291" lon="2.16922">
        <ele>730</ele>
        <time>2022-05-22 00:44:29</time>
      </trkpt>
      <trkpt lat="42.21294" lon="2.16921">
        <ele>730</ele>
        <time>2022-05-22 00:44:30</time>
      </trkpt>
      <trkpt lat="42.21298" lon="2.16921">
        <ele>730</ele>
        <time>2022-05-22 00:44:31</time>
      </trkpt>
      <trkpt lat="42.21301" lon="2.1692">
        <ele>730.2</ele>
        <time>2022-05-22 00:44:32</time>
      </trkpt>
      <trkpt lat="42.21305" lon="2.16919">
        <ele>730.2</ele>
        <time>2022-05-22 00:44:33</time>
      </trkpt>
      <trkpt lat="42.21308" lon="2.16918">
        <ele>730.2</ele>
        <time>2022-05-22 00:44:34</time>
      </trkpt>
      <trkpt lat="42.21312" lon="2.16917">
        <ele>730.2</ele>
        <time>2022-05-22 00:44:35</time>
      </trkpt>
      <trkpt lat="42.21315" lon="2.16916">
        <ele>730.4</ele>
        <time>2022-05-22 00:44:36</time>
      </trkpt>
      <trkpt lat="42.21318" lon="2.16915">
        <ele>730.4</ele>
        <time>2022-05-22 00:44:37</time>
      </trkpt>
      <trkpt lat="42.21322" lon="2.16914">
        <ele>730.4</ele>
        <time>2022-05-22 00:44:38</time>
      </trkpt>
      <trkpt lat="42.21326" lon="2.16913">
        <ele>730.4</ele>
        <time>2022-05-22 00:44:39</time>
      </trkpt>
      <trkpt lat="42.2133" lon="2.16912">
        <ele>730.4</ele>
        <time>2022-05-22 00:44:40</time>
      </trkpt>
      <trkpt lat="42.21334" lon="2.1691">
        <ele>730.4</ele>
        <time>2022-05-22 00:44:41</time>
      </trkpt>
      <trkpt lat="42.21338" lon="2.16909">
        <ele>730.6</ele>
        <time>2022-05-22 00:44:42</time>
      </trkpt>
      <trkpt lat="42.21342" lon="2.16908">
        <ele>730.6</ele>
        <time>2022-05-22 00:44:43</time>
      </trkpt>
      <trkpt lat="42.21345" lon="2.16907">
        <ele>730.6</ele>
        <time>2022-05-22 00:44:44</time>
      </trkpt>
      <trkpt lat="42.21349" lon="2.16906">
        <ele>730.8</ele>
        <time>2022-05-22 00:44:45</time>
      </trkpt>
      <trkpt lat="42.21352" lon="2.16905">
        <ele>730.8</ele>
        <time>2022-05-22 00:44:46</time>
      </trkpt>
      <trkpt lat="42.21357" lon="2.16904">
        <ele>730.6</ele>
        <time>2022-05-22 00:44:47</time>
      </trkpt>
      <trkpt lat="42.21361" lon="2.16904">
        <ele>730.6</ele>
        <time>2022-05-22 00:44:48</time>
      </trkpt>
      <trkpt lat="42.21365" lon="2.16903">
        <ele>730.6</ele>
        <time>2022-05-22 00:44:49</time>
      </trkpt>
      <trkpt lat="42.21369" lon="2.16902">
        <ele>730.6</ele>
        <time>2022-05-22 00:44:50</time>
      </trkpt>
      <trkpt lat="42.21373" lon="2.16901">
        <ele>730.6</ele>
        <time>2022-05-22 00:44:51</time>
      </trkpt>
      <trkpt lat="42.21377" lon="2.169">
        <ele>730.8</ele>
        <time>2022-05-22 00:44:52</time>
      </trkpt>
      <trkpt lat="42.2138" lon="2.16899">
        <ele>730.8</ele>
        <time>2022-05-22 00:44:53</time>
      </trkpt>
      <trkpt lat="42.21384" lon="2.16898">
        <ele>730.8</ele>
        <time>2022-05-22 00:44:54</time>
      </trkpt>
      <trkpt lat="42.21388" lon="2.16897">
        <ele>730.8</ele>
        <time>2022-05-22 00:44:55</time>
      </trkpt>
      <trkpt lat="42.21393" lon="2.16896">
        <ele>730.8</ele>
        <time>2022-05-22 00:44:56</time>
      </trkpt>
      <trkpt lat="42.21397" lon="2.16895">
        <ele>730.8</ele>
        <time>2022-05-22 00:44:57</time>
      </trkpt>
      <trkpt lat="42.214" lon="2.16894">
        <ele>730.8</ele>
        <time>2022-05-22 00:44:58</time>
      </trkpt>
      <trkpt lat="42.21404" lon="2.16894">
        <ele>730.8</ele>
        <time>2022-05-22 00:44:59</time>
      </trkpt>
      <trkpt lat="42.21408" lon="2.16893">
        <ele>730.8</ele>
        <time>2022-05-22 00:45:00</time>
      </trkpt>
      <trkpt lat="42.21413" lon="2.16892">
        <ele>730.6</ele>
        <time>2022-05-22 00:45:01</time>
      </trkpt>
      <trkpt lat="42.21417" lon="2.16891">
        <ele>730.6</ele>
        <time>2022-05-22 00:45:02</time>
      </trkpt>
      <trkpt lat="42.21422" lon="2.1689">
        <ele>730.6</ele>
        <time>2022-05-22 00:45:03</time>
      </trkpt>
      <trkpt lat="42.21426" lon="2.16889">
        <ele>730.6</ele>
        <time>2022-05-22 00:45:04</time>
      </trkpt>
      <trkpt lat="42.2143" lon="2.16887">
        <ele>730.6</ele>
        <time>2022-05-22 00:45:05</time>
      </trkpt>
      <trkpt lat="42.21434" lon="2.16886">
        <ele>730.6</ele>
        <time>2022-05-22 00:45:06</time>
      </trkpt>
      <trkpt lat="42.21439" lon="2.16885">
        <ele>730.6</ele>
        <time>2022-05-22 00:45:07</time>
      </trkpt>
      <trkpt lat="42.21443" lon="2.16884">
        <ele>730.6</ele>
        <time>2022-05-22 00:45:08</time>
      </trkpt>
      <trkpt lat="42.21447" lon="2.16882">
        <ele>730.6</ele>
        <time>2022-05-22 00:45:09</time>
      </trkpt>
      <trkpt lat="42.21452" lon="2.16881">
        <ele>730.6</ele>
        <time>2022-05-22 00:45:10</time>
      </trkpt>
      <trkpt lat="42.21456" lon="2.1688">
        <ele>730.6</ele>
        <time>2022-05-22 00:45:11</time>
      </trkpt>
      <trkpt lat="42.21461" lon="2.1688">
        <ele>730.6</ele>
        <time>2022-05-22 00:45:12</time>
      </trkpt>
      <trkpt lat="42.21465" lon="2.16879">
        <ele>730.6</ele>
        <time>2022-05-22 00:45:13</time>
      </trkpt>
      <trkpt lat="42.2147" lon="2.16878">
        <ele>730.6</ele>
        <time>2022-05-22 00:45:14</time>
      </trkpt>
      <trkpt lat="42.21474" lon="2.16877">
        <ele>730.6</ele>
        <time>2022-05-22 00:45:15</time>
      </trkpt>
      <trkpt lat="42.21478" lon="2.16876">
        <ele>730.6</ele>
        <time>2022-05-22 00:45:16</time>
      </trkpt>
      <trkpt lat="42.21483" lon="2.16875">
        <ele>730.6</ele>
        <time>2022-05-22 00:45:17</time>
      </trkpt>
      <trkpt lat="42.21487" lon="2.16874">
        <ele>730.6</ele>
        <time>2022-05-22 00:45:18</time>
      </trkpt>
      <trkpt lat="42.21492" lon="2.16873">
        <ele>730.6</ele>
        <time>2022-05-22 00:45:19</time>
      </trkpt>
      <trkpt lat="42.21496" lon="2.16871">
        <ele>730.4</ele>
        <time>2022-05-22 00:45:20</time>
      </trkpt>
      <trkpt lat="42.21501" lon="2.1687">
        <ele>730.4</ele>
        <time>2022-05-22 00:45:21</time>
      </trkpt>
      <trkpt lat="42.21505" lon="2.16869">
        <ele>730.4</ele>
        <time>2022-05-22 00:45:22</time>
      </trkpt>
      <trkpt lat="42.2151" lon="2.16868">
        <ele>730.4</ele>
        <time>2022-05-22 00:45:23</time>
      </trkpt>
      <trkpt lat="42.21515" lon="2.16867">
        <ele>730.4</ele>
        <time>2022-05-22 00:45:24</time>
      </trkpt>
      <trkpt lat="42.21519" lon="2.16865">
        <ele>730.4</ele>
        <time>2022-05-22 00:45:25</time>
      </trkpt>
      <trkpt lat="42.21524" lon="2.16864">
        <ele>730.4</ele>
        <time>2022-05-22 00:45:26</time>
      </trkpt>
      <trkpt lat="42.21528" lon="2.16863">
        <ele>730.4</ele>
        <time>2022-05-22 00:45:27</time>
      </trkpt>
      <trkpt lat="42.21533" lon="2.16862">
        <ele>730.4</ele>
        <time>2022-05-22 00:45:28</time>
      </trkpt>
      <trkpt lat="42.21538" lon="2.16861">
        <ele>730.4</ele>
        <time>2022-05-22 00:45:29</time>
      </trkpt>
      <trkpt lat="42.21542" lon="2.16861">
        <ele>730.4</ele>
        <time>2022-05-22 00:45:30</time>
      </trkpt>
      <trkpt lat="42.21547" lon="2.1686">
        <ele>730.6</ele>
        <time>2022-05-22 00:45:31</time>
      </trkpt>
      <trkpt lat="42.21551" lon="2.1686">
        <ele>730.6</ele>
        <time>2022-05-22 00:45:32</time>
      </trkpt>
      <trkpt lat="42.21556" lon="2.16859">
        <ele>730.6</ele>
        <time>2022-05-22 00:45:33</time>
      </trkpt>
      <trkpt lat="42.21561" lon="2.16859">
        <ele>730.6</ele>
        <time>2022-05-22 00:45:34</time>
      </trkpt>
      <trkpt lat="42.21565" lon="2.16859">
        <ele>730.6</ele>
        <time>2022-05-22 00:45:35</time>
      </trkpt>
      <trkpt lat="42.21569" lon="2.16859">
        <ele>730.6</ele>
        <time>2022-05-22 00:45:36</time>
      </trkpt>
      <trkpt lat="42.21574" lon="2.16859">
        <ele>730.6</ele>
        <time>2022-05-22 00:45:37</time>
      </trkpt>
      <trkpt lat="42.21579" lon="2.16859">
        <ele>730.8</ele>
        <time>2022-05-22 00:45:38</time>
      </trkpt>
      <trkpt lat="42.21583" lon="2.1686">
        <ele>730.8</ele>
        <time>2022-05-22 00:45:39</time>
      </trkpt>
      <trkpt lat="42.21588" lon="2.1686">
        <ele>730.8</ele>
        <time>2022-05-22 00:45:40</time>
      </trkpt>
      <trkpt lat="42.21592" lon="2.1686">
        <ele>731</ele>
        <time>2022-05-22 00:45:41</time>
      </trkpt>
      <trkpt lat="42.21597" lon="2.1686">
        <ele>731</ele>
        <time>2022-05-22 00:45:42</time>
      </trkpt>
      <trkpt lat="42.21601" lon="2.16861">
        <ele>731</ele>
        <time>2022-05-22 00:45:43</time>
      </trkpt>
      <trkpt lat="42.21606" lon="2.16861">
        <ele>731.2</ele>
        <time>2022-05-22 00:45:44</time>
      </trkpt>
      <trkpt lat="42.21609" lon="2.16862">
        <ele>731.4</ele>
        <time>2022-05-22 00:45:45</time>
      </trkpt>
      <trkpt lat="42.21613" lon="2.16863">
        <ele>731.4</ele>
        <time>2022-05-22 00:45:46</time>
      </trkpt>
      <trkpt lat="42.21617" lon="2.16863">
        <ele>731.6</ele>
        <time>2022-05-22 00:45:47</time>
      </trkpt>
      <trkpt lat="42.21621" lon="2.16864">
        <ele>731.6</ele>
        <time>2022-05-22 00:45:48</time>
      </trkpt>
      <trkpt lat="42.21625" lon="2.16865">
        <ele>731.8</ele>
        <time>2022-05-22 00:45:49</time>
      </trkpt>
      <trkpt lat="42.21628" lon="2.16866">
        <ele>732</ele>
        <time>2022-05-22 00:45:50</time>
      </trkpt>
      <trkpt lat="42.21632" lon="2.16866">
        <ele>732</ele>
        <time>2022-05-22 00:45:51</time>
      </trkpt>
      <trkpt lat="42.21636" lon="2.16867">
        <ele>732.2</ele>
        <time>2022-05-22 00:45:52</time>
      </trkpt>
      <trkpt lat="42.2164" lon="2.16869">
        <ele>732.2</ele>
        <time>2022-05-22 00:45:53</time>
      </trkpt>
      <trkpt lat="42.21644" lon="2.1687">
        <ele>732.2</ele>
        <time>2022-05-22 00:45:54</time>
      </trkpt>
      <trkpt lat="42.21648" lon="2.16872">
        <ele>732.4</ele>
        <time>2022-05-22 00:45:55</time>
      </trkpt>
      <trkpt lat="42.21653" lon="2.16874">
        <ele>732.4</ele>
        <time>2022-05-22 00:45:56</time>
      </trkpt>
      <trkpt lat="42.21657" lon="2.16875">
        <ele>732.6</ele>
        <time>2022-05-22 00:45:57</time>
      </trkpt>
      <trkpt lat="42.21662" lon="2.16877">
        <ele>732.6</ele>
        <time>2022-05-22 00:45:58</time>
      </trkpt>
      <trkpt lat="42.21666" lon="2.16878">
        <ele>732.8</ele>
        <time>2022-05-22 00:45:59</time>
      </trkpt>
      <trkpt lat="42.2167" lon="2.1688">
        <ele>732.8</ele>
        <time>2022-05-22 00:46:00</time>
      </trkpt>
      <trkpt lat="42.21674" lon="2.16881">
        <ele>733</ele>
        <time>2022-05-22 00:46:01</time>
      </trkpt>
      <trkpt lat="42.21678" lon="2.16882">
        <ele>733</ele>
        <time>2022-05-22 00:46:02</time>
      </trkpt>
      <trkpt lat="42.21682" lon="2.16883">
        <ele>733.2</ele>
        <time>2022-05-22 00:46:03</time>
      </trkpt>
      <trkpt lat="42.21686" lon="2.16885">
        <ele>733.2</ele>
        <time>2022-05-22 00:46:04</time>
      </trkpt>
      <trkpt lat="42.2169" lon="2.16886">
        <ele>733.2</ele>
        <time>2022-05-22 00:46:05</time>
      </trkpt>
      <trkpt lat="42.21694" lon="2.16888">
        <ele>733.4</ele>
        <time>2022-05-22 00:46:06</time>
      </trkpt>
      <trkpt lat="42.21697" lon="2.16889">
        <ele>733.4</ele>
        <time>2022-05-22 00:46:07</time>
      </trkpt>
      <trkpt lat="42.21701" lon="2.1689">
        <ele>733.4</ele>
        <time>2022-05-22 00:46:08</time>
      </trkpt>
      <trkpt lat="42.21705" lon="2.16892">
        <ele>733.4</ele>
        <time>2022-05-22 00:46:09</time>
      </trkpt>
      <trkpt lat="42.21709" lon="2.16893">
        <ele>733.6</ele>
        <time>2022-05-22 00:46:10</time>
      </trkpt>
      <trkpt lat="42.21713" lon="2.16894">
        <ele>733.6</ele>
        <time>2022-05-22 00:46:11</time>
      </trkpt>
      <trkpt lat="42.21717" lon="2.16895">
        <ele>733.8</ele>
        <time>2022-05-22 00:46:12</time>
      </trkpt>
      <trkpt lat="42.21721" lon="2.16896">
        <ele>733.8</ele>
        <time>2022-05-22 00:46:13</time>
      </trkpt>
      <trkpt lat="42.21725" lon="2.16898">
        <ele>734</ele>
        <time>2022-05-22 00:46:14</time>
      </trkpt>
      <trkpt lat="42.21729" lon="2.16899">
        <ele>734</ele>
        <time>2022-05-22 00:46:15</time>
      </trkpt>
      <trkpt lat="42.21732" lon="2.169">
        <ele>734.2</ele>
        <time>2022-05-22 00:46:16</time>
      </trkpt>
      <trkpt lat="42.21736" lon="2.16901">
        <ele>734.2</ele>
        <time>2022-05-22 00:46:17</time>
      </trkpt>
      <trkpt lat="42.2174" lon="2.16902">
        <ele>734.4</ele>
        <time>2022-05-22 00:46:18</time>
      </trkpt>
      <trkpt lat="42.21744" lon="2.16903">
        <ele>734.4</ele>
        <time>2022-05-22 00:46:19</time>
      </trkpt>
      <trkpt lat="42.21748" lon="2.16904">
        <ele>734.6</ele>
        <time>2022-05-22 00:46:20</time>
      </trkpt>
      <trkpt lat="42.21751" lon="2.16905">
        <ele>734.6</ele>
        <time>2022-05-22 00:46:21</time>
      </trkpt>
      <trkpt lat="42.21755" lon="2.16907">
        <ele>734.6</ele>
        <time>2022-05-22 00:46:22</time>
      </trkpt>
      <trkpt lat="42.21759" lon="2.16908">
        <ele>734.8</ele>
        <time>2022-05-22 00:46:23</time>
      </trkpt>
      <trkpt lat="42.21762" lon="2.16909">
        <ele>734.8</ele>
        <time>2022-05-22 00:46:24</time>
      </trkpt>
      <trkpt lat="42.21766" lon="2.1691">
        <ele>735</ele>
        <time>2022-05-22 00:46:25</time>
      </trkpt>
      <trkpt lat="42.2177" lon="2.16911">
        <ele>735</ele>
        <time>2022-05-22 00:46:26</time>
      </trkpt>
      <trkpt lat="42.21774" lon="2.16912">
        <ele>735.2</ele>
        <time>2022-05-22 00:46:27</time>
      </trkpt>
      <trkpt lat="42.21777" lon="2.16913">
        <ele>735.2</ele>
        <time>2022-05-22 00:46:28</time>
      </trkpt>
      <trkpt lat="42.21781" lon="2.16914">
        <ele>735.2</ele>
        <time>2022-05-22 00:46:29</time>
      </trkpt>
      <trkpt lat="42.21784" lon="2.16915">
        <ele>735.4</ele>
        <time>2022-05-22 00:46:30</time>
      </trkpt>
      <trkpt lat="42.21788" lon="2.16917">
        <ele>735.4</ele>
        <time>2022-05-22 00:46:31</time>
      </trkpt>
      <trkpt lat="42.21791" lon="2.16918">
        <ele>735.6</ele>
        <time>2022-05-22 00:46:32</time>
      </trkpt>
      <trkpt lat="42.21795" lon="2.1692">
        <ele>735.6</ele>
        <time>2022-05-22 00:46:33</time>
      </trkpt>
      <trkpt lat="42.21798" lon="2.16921">
        <ele>735.6</ele>
        <time>2022-05-22 00:46:34</time>
      </trkpt>
      <trkpt lat="42.21801" lon="2.16922">
        <ele>735.8</ele>
        <time>2022-05-22 00:46:35</time>
      </trkpt>
      <trkpt lat="42.21805" lon="2.16924">
        <ele>735.8</ele>
        <time>2022-05-22 00:46:36</time>
      </trkpt>
      <trkpt lat="42.21808" lon="2.16925">
        <ele>735.8</ele>
        <time>2022-05-22 00:46:37</time>
      </trkpt>
      <trkpt lat="42.21811" lon="2.16925">
        <ele>736</ele>
        <time>2022-05-22 00:46:38</time>
      </trkpt>
      <trkpt lat="42.21815" lon="2.16926">
        <ele>736</ele>
        <time>2022-05-22 00:46:39</time>
      </trkpt>
      <trkpt lat="42.21818" lon="2.16927">
        <ele>736</ele>
        <time>2022-05-22 00:46:40</time>
      </trkpt>
      <trkpt lat="42.21821" lon="2.16928">
        <ele>736</ele>
        <time>2022-05-22 00:46:41</time>
      </trkpt>
      <trkpt lat="42.21825" lon="2.16929">
        <ele>736.2</ele>
        <time>2022-05-22 00:46:42</time>
      </trkpt>
      <trkpt lat="42.21829" lon="2.1693">
        <ele>736.2</ele>
        <time>2022-05-22 00:46:43</time>
      </trkpt>
      <trkpt lat="42.21832" lon="2.16931">
        <ele>736.2</ele>
        <time>2022-05-22 00:46:44</time>
      </trkpt>
      <trkpt lat="42.21836" lon="2.16932">
        <ele>736.4</ele>
        <time>2022-05-22 00:46:45</time>
      </trkpt>
      <trkpt lat="42.21839" lon="2.16933">
        <ele>736.4</ele>
        <time>2022-05-22 00:46:46</time>
      </trkpt>
      <trkpt lat="42.21843" lon="2.16934">
        <ele>736.4</ele>
        <time>2022-05-22 00:46:47</time>
      </trkpt>
      <trkpt lat="42.21846" lon="2.16935">
        <ele>736.6</ele>
        <time>2022-05-22 00:46:48</time>
      </trkpt>
      <trkpt lat="42.2185" lon="2.16936">
        <ele>736.6</ele>
        <time>2022-05-22 00:46:49</time>
      </trkpt>
      <trkpt lat="42.21853" lon="2.16937">
        <ele>736.6</ele>
        <time>2022-05-22 00:46:50</time>
      </trkpt>
      <trkpt lat="42.21857" lon="2.16938">
        <ele>736.8</ele>
        <time>2022-05-22 00:46:51</time>
      </trkpt>
      <trkpt lat="42.2186" lon="2.16939">
        <ele>736.8</ele>
        <time>2022-05-22 00:46:52</time>
      </trkpt>
      <trkpt lat="42.21863" lon="2.1694">
        <ele>737</ele>
        <time>2022-05-22 00:46:53</time>
      </trkpt>
      <trkpt lat="42.21866" lon="2.16941">
        <ele>737</ele>
        <time>2022-05-22 00:46:54</time>
      </trkpt>
      <trkpt lat="42.2187" lon="2.16942">
        <ele>737.2</ele>
        <time>2022-05-22 00:46:55</time>
      </trkpt>
      <trkpt lat="42.21873" lon="2.16943">
        <ele>737.2</ele>
        <time>2022-05-22 00:46:56</time>
      </trkpt>
      <trkpt lat="42.21876" lon="2.16944">
        <ele>737.4</ele>
        <time>2022-05-22 00:46:57</time>
      </trkpt>
      <trkpt lat="42.21879" lon="2.16945">
        <ele>737.4</ele>
        <time>2022-05-22 00:46:58</time>
      </trkpt>
      <trkpt lat="42.21882" lon="2.16946">
        <ele>737.6</ele>
        <time>2022-05-22 00:46:59</time>
      </trkpt>
      <trkpt lat="42.21885" lon="2.16947">
        <ele>737.8</ele>
        <time>2022-05-22 00:47:00</time>
      </trkpt>
      <trkpt lat="42.21888" lon="2.16948">
        <ele>737.8</ele>
        <time>2022-05-22 00:47:01</time>
      </trkpt>
      <trkpt lat="42.21891" lon="2.16949">
        <ele>738</ele>
        <time>2022-05-22 00:47:02</time>
      </trkpt>
      <trkpt lat="42.21894" lon="2.1695">
        <ele>738</ele>
        <time>2022-05-22 00:47:03</time>
      </trkpt>
      <trkpt lat="42.21897" lon="2.16951">
        <ele>738.2</ele>
        <time>2022-05-22 00:47:04</time>
      </trkpt>
      <trkpt lat="42.219" lon="2.16952">
        <ele>738.2</ele>
        <time>2022-05-22 00:47:05</time>
      </trkpt>
      <trkpt lat="42.21903" lon="2.16953">
        <ele>738.4</ele>
        <time>2022-05-22 00:47:06</time>
      </trkpt>
      <trkpt lat="42.21906" lon="2.16954">
        <ele>738.6</ele>
        <time>2022-05-22 00:47:07</time>
      </trkpt>
      <trkpt lat="42.21909" lon="2.16954">
        <ele>738.6</ele>
        <time>2022-05-22 00:47:08</time>
      </trkpt>
      <trkpt lat="42.21912" lon="2.16955">
        <ele>738.8</ele>
        <time>2022-05-22 00:47:09</time>
      </trkpt>
      <trkpt lat="42.21916" lon="2.16957">
        <ele>738.8</ele>
        <time>2022-05-22 00:47:10</time>
      </trkpt>
      <trkpt lat="42.21919" lon="2.16958">
        <ele>739</ele>
        <time>2022-05-22 00:47:11</time>
      </trkpt>
      <trkpt lat="42.21922" lon="2.16959">
        <ele>739</ele>
        <time>2022-05-22 00:47:12</time>
      </trkpt>
      <trkpt lat="42.21925" lon="2.1696">
        <ele>739.2</ele>
        <time>2022-05-22 00:47:13</time>
      </trkpt>
      <trkpt lat="42.21928" lon="2.16962">
        <ele>739.4</ele>
        <time>2022-05-22 00:47:14</time>
      </trkpt>
      <trkpt lat="42.21931" lon="2.16963">
        <ele>739.6</ele>
        <time>2022-05-22 00:47:15</time>
      </trkpt>
      <trkpt lat="42.21934" lon="2.16964">
        <ele>739.6</ele>
        <time>2022-05-22 00:47:16</time>
      </trkpt>
      <trkpt lat="42.21938" lon="2.16965">
        <ele>739.8</ele>
        <time>2022-05-22 00:47:17</time>
      </trkpt>
      <trkpt lat="42.21941" lon="2.16966">
        <ele>740</ele>
        <time>2022-05-22 00:47:18</time>
      </trkpt>
      <trkpt lat="42.21944" lon="2.16967">
        <ele>740</ele>
        <time>2022-05-22 00:47:19</time>
      </trkpt>
      <trkpt lat="42.21947" lon="2.16968">
        <ele>740.2</ele>
        <time>2022-05-22 00:47:20</time>
      </trkpt>
      <trkpt lat="42.21949" lon="2.16969">
        <ele>740.4</ele>
        <time>2022-05-22 00:47:21</time>
      </trkpt>
      <trkpt lat="42.21952" lon="2.1697">
        <ele>740.4</ele>
        <time>2022-05-22 00:47:22</time>
      </trkpt>
      <trkpt lat="42.21955" lon="2.16971">
        <ele>740.6</ele>
        <time>2022-05-22 00:47:23</time>
      </trkpt>
      <trkpt lat="42.21958" lon="2.16972">
        <ele>740.6</ele>
        <time>2022-05-22 00:47:24</time>
      </trkpt>
      <trkpt lat="42.21961" lon="2.16974">
        <ele>740.8</ele>
        <time>2022-05-22 00:47:25</time>
      </trkpt>
      <trkpt lat="42.21963" lon="2.16975">
        <ele>741</ele>
        <time>2022-05-22 00:47:26</time>
      </trkpt>
      <trkpt lat="42.21966" lon="2.16976">
        <ele>741</ele>
        <time>2022-05-22 00:47:27</time>
      </trkpt>
      <trkpt lat="42.21969" lon="2.16978">
        <ele>741.2</ele>
        <time>2022-05-22 00:47:28</time>
      </trkpt>
      <trkpt lat="42.21971" lon="2.16979">
        <ele>741.2</ele>
        <time>2022-05-22 00:47:29</time>
      </trkpt>
      <trkpt lat="42.21974" lon="2.1698">
        <ele>741.4</ele>
        <time>2022-05-22 00:47:30</time>
      </trkpt>
      <trkpt lat="42.21977" lon="2.16981">
        <ele>741.6</ele>
        <time>2022-05-22 00:47:31</time>
      </trkpt>
      <trkpt lat="42.21979" lon="2.16982">
        <ele>741.6</ele>
        <time>2022-05-22 00:47:32</time>
      </trkpt>
      <trkpt lat="42.21982" lon="2.16984">
        <ele>741.8</ele>
        <time>2022-05-22 00:47:33</time>
      </trkpt>
      <trkpt lat="42.21984" lon="2.16985">
        <ele>742</ele>
        <time>2022-05-22 00:47:34</time>
      </trkpt>
      <trkpt lat="42.21987" lon="2.16986">
        <ele>742</ele>
        <time>2022-05-22 00:47:35</time>
      </trkpt>
      <trkpt lat="42.21989" lon="2.16988">
        <ele>742.2</ele>
        <time>2022-05-22 00:47:36</time>
      </trkpt>
      <trkpt lat="42.21992" lon="2.16989">
        <ele>742.4</ele>
        <time>2022-05-22 00:47:37</time>
      </trkpt>
      <trkpt lat="42.21995" lon="2.1699">
        <ele>742.4</ele>
        <time>2022-05-22 00:47:38</time>
      </trkpt>
      <trkpt lat="42.21997" lon="2.16991">
        <ele>742.6</ele>
        <time>2022-05-22 00:47:39</time>
      </trkpt>
      <trkpt lat="42.22" lon="2.16992">
        <ele>742.8</ele>
        <time>2022-05-22 00:47:40</time>
      </trkpt>
      <trkpt lat="42.22002" lon="2.16993">
        <ele>742.8</ele>
        <time>2022-05-22 00:47:41</time>
      </trkpt>
      <trkpt lat="42.22004" lon="2.16995">
        <ele>743</ele>
        <time>2022-05-22 00:47:42</time>
      </trkpt>
      <trkpt lat="42.22007" lon="2.16996">
        <ele>743</ele>
        <time>2022-05-22 00:47:43</time>
      </trkpt>
      <trkpt lat="42.2201" lon="2.16998">
        <ele>743.2</ele>
        <time>2022-05-22 00:47:44</time>
      </trkpt>
      <trkpt lat="42.22012" lon="2.16999">
        <ele>743.2</ele>
        <time>2022-05-22 00:47:45</time>
      </trkpt>
      <trkpt lat="42.22015" lon="2.17">
        <ele>743.4</ele>
        <time>2022-05-22 00:47:46</time>
      </trkpt>
      <trkpt lat="42.22018" lon="2.17002">
        <ele>743.4</ele>
        <time>2022-05-22 00:47:47</time>
      </trkpt>
      <trkpt lat="42.2202" lon="2.17003">
        <ele>743.4</ele>
        <time>2022-05-22 00:47:48</time>
      </trkpt>
      <trkpt lat="42.22024" lon="2.17005">
        <ele>743.6</ele>
        <time>2022-05-22 00:47:49</time>
      </trkpt>
      <trkpt lat="42.22027" lon="2.17006">
        <ele>743.6</ele>
        <time>2022-05-22 00:47:50</time>
      </trkpt>
      <trkpt lat="42.2203" lon="2.17008">
        <ele>743.6</ele>
        <time>2022-05-22 00:47:51</time>
      </trkpt>
      <trkpt lat="42.22033" lon="2.1701">
        <ele>743.6</ele>
        <time>2022-05-22 00:47:52</time>
      </trkpt>
      <trkpt lat="42.22037" lon="2.17011">
        <ele>743.6</ele>
        <time>2022-05-22 00:47:53</time>
      </trkpt>
      <trkpt lat="42.2204" lon="2.17012">
        <ele>743.8</ele>
        <time>2022-05-22 00:47:54</time>
      </trkpt>
      <trkpt lat="42.22043" lon="2.17014">
        <ele>743.8</ele>
        <time>2022-05-22 00:47:55</time>
      </trkpt>
      <trkpt lat="42.22046" lon="2.17015">
        <ele>743.8</ele>
        <time>2022-05-22 00:47:56</time>
      </trkpt>
      <trkpt lat="42.22049" lon="2.17017">
        <ele>743.8</ele>
        <time>2022-05-22 00:47:57</time>
      </trkpt>
      <trkpt lat="42.22052" lon="2.17018">
        <ele>743.8</ele>
        <time>2022-05-22 00:47:58</time>
      </trkpt>
      <trkpt lat="42.22055" lon="2.1702">
        <ele>743.8</ele>
        <time>2022-05-22 00:47:59</time>
      </trkpt>
      <trkpt lat="42.22059" lon="2.17021">
        <ele>743.8</ele>
        <time>2022-05-22 00:48:00</time>
      </trkpt>
      <trkpt lat="42.22062" lon="2.17023">
        <ele>743.8</ele>
        <time>2022-05-22 00:48:01</time>
      </trkpt>
      <trkpt lat="42.22065" lon="2.17025">
        <ele>743.8</ele>
        <time>2022-05-22 00:48:02</time>
      </trkpt>
      <trkpt lat="42.22069" lon="2.17026">
        <ele>743.8</ele>
        <time>2022-05-22 00:48:03</time>
      </trkpt>
      <trkpt lat="42.22072" lon="2.17028">
        <ele>743.8</ele>
        <time>2022-05-22 00:48:04</time>
      </trkpt>
      <trkpt lat="42.22076" lon="2.1703">
        <ele>743.8</ele>
        <time>2022-05-22 00:48:05</time>
      </trkpt>
      <trkpt lat="42.2208" lon="2.17032">
        <ele>743.8</ele>
        <time>2022-05-22 00:48:06</time>
      </trkpt>
      <trkpt lat="42.22083" lon="2.17033">
        <ele>743.8</ele>
        <time>2022-05-22 00:48:07</time>
      </trkpt>
      <trkpt lat="42.22087" lon="2.17035">
        <ele>743.8</ele>
        <time>2022-05-22 00:48:08</time>
      </trkpt>
      <trkpt lat="42.22091" lon="2.17037">
        <ele>743.8</ele>
        <time>2022-05-22 00:48:09</time>
      </trkpt>
      <trkpt lat="42.22095" lon="2.17039">
        <ele>743.8</ele>
        <time>2022-05-22 00:48:10</time>
      </trkpt>
      <trkpt lat="42.22098" lon="2.17041">
        <ele>743.8</ele>
        <time>2022-05-22 00:48:11</time>
      </trkpt>
      <trkpt lat="42.22102" lon="2.17042">
        <ele>743.8</ele>
        <time>2022-05-22 00:48:12</time>
      </trkpt>
      <trkpt lat="42.22106" lon="2.17044">
        <ele>743.8</ele>
        <time>2022-05-22 00:48:13</time>
      </trkpt>
      <trkpt lat="42.2211" lon="2.17045">
        <ele>743.8</ele>
        <time>2022-05-22 00:48:14</time>
      </trkpt>
      <trkpt lat="42.22113" lon="2.17047">
        <ele>743.8</ele>
        <time>2022-05-22 00:48:15</time>
      </trkpt>
      <trkpt lat="42.22117" lon="2.17048">
        <ele>743.8</ele>
        <time>2022-05-22 00:48:16</time>
      </trkpt>
      <trkpt lat="42.22121" lon="2.1705">
        <ele>743.8</ele>
        <time>2022-05-22 00:48:17</time>
      </trkpt>
      <trkpt lat="42.22125" lon="2.17052">
        <ele>743.8</ele>
        <time>2022-05-22 00:48:18</time>
      </trkpt>
      <trkpt lat="42.22129" lon="2.17053">
        <ele>743.8</ele>
        <time>2022-05-22 00:48:19</time>
      </trkpt>
      <trkpt lat="42.22133" lon="2.17054">
        <ele>744</ele>
        <time>2022-05-22 00:48:20</time>
      </trkpt>
      <trkpt lat="42.22136" lon="2.17055">
        <ele>744</ele>
        <time>2022-05-22 00:48:21</time>
      </trkpt>
      <trkpt lat="42.22141" lon="2.17056">
        <ele>744</ele>
        <time>2022-05-22 00:48:22</time>
      </trkpt>
      <trkpt lat="42.22145" lon="2.17058">
        <ele>744</ele>
        <time>2022-05-22 00:48:23</time>
      </trkpt>
      <trkpt lat="42.22149" lon="2.17059">
        <ele>744</ele>
        <time>2022-05-22 00:48:24</time>
      </trkpt>
      <trkpt lat="42.22153" lon="2.1706">
        <ele>744</ele>
        <time>2022-05-22 00:48:25</time>
      </trkpt>
      <trkpt lat="42.22157" lon="2.1706">
        <ele>744.2</ele>
        <time>2022-05-22 00:48:26</time>
      </trkpt>
      <trkpt lat="42.22161" lon="2.17061">
        <ele>744.2</ele>
        <time>2022-05-22 00:48:27</time>
      </trkpt>
      <trkpt lat="42.22166" lon="2.17061">
        <ele>744.2</ele>
        <time>2022-05-22 00:48:28</time>
      </trkpt>
      <trkpt lat="42.2217" lon="2.17062">
        <ele>744.2</ele>
        <time>2022-05-22 00:48:29</time>
      </trkpt>
      <trkpt lat="42.22174" lon="2.17062">
        <ele>744.2</ele>
        <time>2022-05-22 00:48:30</time>
      </trkpt>
      <trkpt lat="42.22178" lon="2.17063">
        <ele>744.2</ele>
        <time>2022-05-22 00:48:31</time>
      </trkpt>
      <trkpt lat="42.22183" lon="2.17063">
        <ele>744.2</ele>
        <time>2022-05-22 00:48:32</time>
      </trkpt>
      <trkpt lat="42.22187" lon="2.17063">
        <ele>744.2</ele>
        <time>2022-05-22 00:48:33</time>
      </trkpt>
      <trkpt lat="42.22191" lon="2.17064">
        <ele>744.4</ele>
        <time>2022-05-22 00:48:34</time>
      </trkpt>
      <trkpt lat="42.22195" lon="2.17064">
        <ele>744.4</ele>
        <time>2022-05-22 00:48:35</time>
      </trkpt>
      <trkpt lat="42.22199" lon="2.17064">
        <ele>744.4</ele>
        <time>2022-05-22 00:48:36</time>
      </trkpt>
      <trkpt lat="42.22203" lon="2.17064">
        <ele>744.4</ele>
        <time>2022-05-22 00:48:37</time>
      </trkpt>
      <trkpt lat="42.22207" lon="2.17064">
        <ele>744.6</ele>
        <time>2022-05-22 00:48:38</time>
      </trkpt>
      <trkpt lat="42.22211" lon="2.17065">
        <ele>744.6</ele>
        <time>2022-05-22 00:48:39</time>
      </trkpt>
      <trkpt lat="42.22214" lon="2.17065">
        <ele>744.6</ele>
        <time>2022-05-22 00:48:40</time>
      </trkpt>
      <trkpt lat="42.22217" lon="2.17065">
        <ele>744.8</ele>
        <time>2022-05-22 00:48:41</time>
      </trkpt>
      <trkpt lat="42.22221" lon="2.17064">
        <ele>744.8</ele>
        <time>2022-05-22 00:48:42</time>
      </trkpt>
      <trkpt lat="42.22224" lon="2.17064">
        <ele>745</ele>
        <time>2022-05-22 00:48:43</time>
      </trkpt>
      <trkpt lat="42.22228" lon="2.17065">
        <ele>745</ele>
        <time>2022-05-22 00:48:44</time>
      </trkpt>
      <trkpt lat="42.22231" lon="2.17066">
        <ele>745.2</ele>
        <time>2022-05-22 00:48:45</time>
      </trkpt>
      <trkpt lat="42.22235" lon="2.17066">
        <ele>745.2</ele>
        <time>2022-05-22 00:48:46</time>
      </trkpt>
      <trkpt lat="42.22238" lon="2.17067">
        <ele>745.4</ele>
        <time>2022-05-22 00:48:47</time>
      </trkpt>
      <trkpt lat="42.22241" lon="2.17067">
        <ele>745.6</ele>
        <time>2022-05-22 00:48:48</time>
      </trkpt>
      <trkpt lat="42.22244" lon="2.17068">
        <ele>745.8</ele>
        <time>2022-05-22 00:48:49</time>
      </trkpt>
      <trkpt lat="42.22247" lon="2.17068">
        <ele>745.8</ele>
        <time>2022-05-22 00:48:50</time>
      </trkpt>
      <trkpt lat="42.2225" lon="2.17068">
        <ele>746</ele>
        <time>2022-05-22 00:48:51</time>
      </trkpt>
      <trkpt lat="42.22253" lon="2.17068">
        <ele>746.2</ele>
        <time>2022-05-22 00:48:52</time>
      </trkpt>
      <trkpt lat="42.22256" lon="2.17069">
        <ele>746.4</ele>
        <time>2022-05-22 00:48:53</time>
      </trkpt>
      <trkpt lat="42.22258" lon="2.17069">
        <ele>746.4</ele>
        <time>2022-05-22 00:48:54</time>
      </trkpt>
      <trkpt lat="42.22261" lon="2.17069">
        <ele>746.6</ele>
        <time>2022-05-22 00:48:55</time>
      </trkpt>
      <trkpt lat="42.22264" lon="2.17069">
        <ele>746.8</ele>
        <time>2022-05-22 00:48:56</time>
      </trkpt>
      <trkpt lat="42.22266" lon="2.17069">
        <ele>747</ele>
        <time>2022-05-22 00:48:57</time>
      </trkpt>
      <trkpt lat="42.22268" lon="2.1707">
        <ele>747</ele>
        <time>2022-05-22 00:48:58</time>
      </trkpt>
      <trkpt lat="42.2227" lon="2.1707">
        <ele>747.2</ele>
        <time>2022-05-22 00:48:59</time>
      </trkpt>
      <trkpt lat="42.22273" lon="2.1707">
        <ele>747.4</ele>
        <time>2022-05-22 00:49:00</time>
      </trkpt>
      <trkpt lat="42.22276" lon="2.1707">
        <ele>747.4</ele>
        <time>2022-05-22 00:49:01</time>
      </trkpt>
      <trkpt lat="42.22279" lon="2.1707">
        <ele>747.6</ele>
        <time>2022-05-22 00:49:02</time>
      </trkpt>
      <trkpt lat="42.22282" lon="2.1707">
        <ele>747.8</ele>
        <time>2022-05-22 00:49:03</time>
      </trkpt>
      <trkpt lat="42.22285" lon="2.1707">
        <ele>747.8</ele>
        <time>2022-05-22 00:49:04</time>
      </trkpt>
      <trkpt lat="42.22288" lon="2.17069">
        <ele>748</ele>
        <time>2022-05-22 00:49:05</time>
      </trkpt>
      <trkpt lat="42.22292" lon="2.17068">
        <ele>748.2</ele>
        <time>2022-05-22 00:49:06</time>
      </trkpt>
      <trkpt lat="42.22295" lon="2.17069">
        <ele>748.2</ele>
        <time>2022-05-22 00:49:07</time>
      </trkpt>
      <trkpt lat="42.22299" lon="2.17069">
        <ele>748.4</ele>
        <time>2022-05-22 00:49:08</time>
      </trkpt>
      <trkpt lat="42.22303" lon="2.1707">
        <ele>748.6</ele>
        <time>2022-05-22 00:49:09</time>
      </trkpt>
      <trkpt lat="42.22306" lon="2.1707">
        <ele>748.8</ele>
        <time>2022-05-22 00:49:10</time>
      </trkpt>
      <trkpt lat="42.22309" lon="2.1707">
        <ele>748.8</ele>
        <time>2022-05-22 00:49:11</time>
      </trkpt>
      <trkpt lat="42.22313" lon="2.1707">
        <ele>749</ele>
        <time>2022-05-22 00:49:12</time>
      </trkpt>
      <trkpt lat="42.22316" lon="2.1707">
        <ele>749.2</ele>
        <time>2022-05-22 00:49:13</time>
      </trkpt>
      <trkpt lat="42.22319" lon="2.1707">
        <ele>749.2</ele>
        <time>2022-05-22 00:49:14</time>
      </trkpt>
      <trkpt lat="42.22322" lon="2.1707">
        <ele>749.4</ele>
        <time>2022-05-22 00:49:15</time>
      </trkpt>
      <trkpt lat="42.22325" lon="2.1707">
        <ele>749.6</ele>
        <time>2022-05-22 00:49:16</time>
      </trkpt>
      <trkpt lat="42.22328" lon="2.1707">
        <ele>749.8</ele>
        <time>2022-05-22 00:49:17</time>
      </trkpt>
      <trkpt lat="42.22331" lon="2.1707">
        <ele>750</ele>
        <time>2022-05-22 00:49:18</time>
      </trkpt>
      <trkpt lat="42.22334" lon="2.1707">
        <ele>750.2</ele>
        <time>2022-05-22 00:49:19</time>
      </trkpt>
      <trkpt lat="42.22336" lon="2.1707">
        <ele>750.2</ele>
        <time>2022-05-22 00:49:20</time>
      </trkpt>
      <trkpt lat="42.22339" lon="2.1707">
        <ele>750.4</ele>
        <time>2022-05-22 00:49:21</time>
      </trkpt>
      <trkpt lat="42.22341" lon="2.17069">
        <ele>750.6</ele>
        <time>2022-05-22 00:49:22</time>
      </trkpt>
      <trkpt lat="42.22343" lon="2.17069">
        <ele>750.6</ele>
        <time>2022-05-22 00:49:23</time>
      </trkpt>
      <trkpt lat="42.22346" lon="2.17069">
        <ele>750.8</ele>
        <time>2022-05-22 00:49:24</time>
      </trkpt>
      <trkpt lat="42.22349" lon="2.17069">
        <ele>750.8</ele>
        <time>2022-05-22 00:49:25</time>
      </trkpt>
      <trkpt lat="42.22352" lon="2.17068">
        <ele>751</ele>
        <time>2022-05-22 00:49:26</time>
      </trkpt>
      <trkpt lat="42.22355" lon="2.17068">
        <ele>751</ele>
        <time>2022-05-22 00:49:27</time>
      </trkpt>
      <trkpt lat="42.22359" lon="2.17068">
        <ele>751.2</ele>
        <time>2022-05-22 00:49:28</time>
      </trkpt>
      <trkpt lat="42.22362" lon="2.17068">
        <ele>751.2</ele>
        <time>2022-05-22 00:49:29</time>
      </trkpt>
      <trkpt lat="42.22365" lon="2.17068">
        <ele>751.2</ele>
        <time>2022-05-22 00:49:30</time>
      </trkpt>
      <trkpt lat="42.22368" lon="2.17068">
        <ele>751.2</ele>
        <time>2022-05-22 00:49:31</time>
      </trkpt>
      <trkpt lat="42.22372" lon="2.17068">
        <ele>751.2</ele>
        <time>2022-05-22 00:49:32</time>
      </trkpt>
      <trkpt lat="42.22375" lon="2.17068">
        <ele>751.2</ele>
        <time>2022-05-22 00:49:33</time>
      </trkpt>
      <trkpt lat="42.22379" lon="2.17068">
        <ele>751.2</ele>
        <time>2022-05-22 00:49:34</time>
      </trkpt>
      <trkpt lat="42.22383" lon="2.17068">
        <ele>751.2</ele>
        <time>2022-05-22 00:49:35</time>
      </trkpt>
      <trkpt lat="42.22387" lon="2.17068">
        <ele>751.2</ele>
        <time>2022-05-22 00:49:36</time>
      </trkpt>
      <trkpt lat="42.22391" lon="2.17067">
        <ele>751.2</ele>
        <time>2022-05-22 00:49:37</time>
      </trkpt>
      <trkpt lat="42.22394" lon="2.17067">
        <ele>751</ele>
        <time>2022-05-22 00:49:38</time>
      </trkpt>
      <trkpt lat="42.22398" lon="2.17066">
        <ele>751</ele>
        <time>2022-05-22 00:49:39</time>
      </trkpt>
      <trkpt lat="42.22402" lon="2.17066">
        <ele>750.8</ele>
        <time>2022-05-22 00:49:40</time>
      </trkpt>
      <trkpt lat="42.22407" lon="2.17065">
        <ele>750.8</ele>
        <time>2022-05-22 00:49:41</time>
      </trkpt>
      <trkpt lat="42.22412" lon="2.17065">
        <ele>750.6</ele>
        <time>2022-05-22 00:49:42</time>
      </trkpt>
      <trkpt lat="42.22417" lon="2.17064">
        <ele>750.4</ele>
        <time>2022-05-22 00:49:43</time>
      </trkpt>
      <trkpt lat="42.22422" lon="2.17064">
        <ele>750.2</ele>
        <time>2022-05-22 00:49:44</time>
      </trkpt>
      <trkpt lat="42.22428" lon="2.17063">
        <ele>750</ele>
        <time>2022-05-22 00:49:45</time>
      </trkpt>
      <trkpt lat="42.22433" lon="2.17062">
        <ele>749.6</ele>
        <time>2022-05-22 00:49:46</time>
      </trkpt>
      <trkpt lat="42.22439" lon="2.17061">
        <ele>749.4</ele>
        <time>2022-05-22 00:49:47</time>
      </trkpt>
      <trkpt lat="42.22445" lon="2.1706">
        <ele>749.2</ele>
        <time>2022-05-22 00:49:48</time>
      </trkpt>
      <trkpt lat="42.22451" lon="2.1706">
        <ele>748.8</ele>
        <time>2022-05-22 00:49:49</time>
      </trkpt>
      <trkpt lat="42.22457" lon="2.1706">
        <ele>748.6</ele>
        <time>2022-05-22 00:49:50</time>
      </trkpt>
      <trkpt lat="42.22463" lon="2.17058">
        <ele>748.2</ele>
        <time>2022-05-22 00:49:51</time>
      </trkpt>
      <trkpt lat="42.22469" lon="2.17057">
        <ele>748.2</ele>
        <time>2022-05-22 00:49:52</time>
      </trkpt>
      <trkpt lat="42.22475" lon="2.17056">
        <ele>748</ele>
        <time>2022-05-22 00:49:53</time>
      </trkpt>
      <trkpt lat="42.22481" lon="2.17055">
        <ele>748</ele>
        <time>2022-05-22 00:49:54</time>
      </trkpt>
      <trkpt lat="42.22487" lon="2.17054">
        <ele>748</ele>
        <time>2022-05-22 00:49:55</time>
      </trkpt>
      <trkpt lat="42.22493" lon="2.17053">
        <ele>748</ele>
        <time>2022-05-22 00:49:56</time>
      </trkpt>
      <trkpt lat="42.22498" lon="2.17052">
        <ele>748</ele>
        <time>2022-05-22 00:49:57</time>
      </trkpt>
      <trkpt lat="42.22503" lon="2.17051">
        <ele>748</ele>
        <time>2022-05-22 00:49:58</time>
      </trkpt>
      <trkpt lat="42.22509" lon="2.1705">
        <ele>747.8</ele>
        <time>2022-05-22 00:49:59</time>
      </trkpt>
      <trkpt lat="42.22514" lon="2.17048">
        <ele>747.8</ele>
        <time>2022-05-22 00:50:00</time>
      </trkpt>
      <trkpt lat="42.22519" lon="2.17047">
        <ele>747.8</ele>
        <time>2022-05-22 00:50:01</time>
      </trkpt>
      <trkpt lat="42.22524" lon="2.17046">
        <ele>747.8</ele>
        <time>2022-05-22 00:50:02</time>
      </trkpt>
      <trkpt lat="42.2253" lon="2.17045">
        <ele>747.8</ele>
        <time>2022-05-22 00:50:03</time>
      </trkpt>
      <trkpt lat="42.22535" lon="2.17043">
        <ele>747.8</ele>
        <time>2022-05-22 00:50:04</time>
      </trkpt>
      <trkpt lat="42.2254" lon="2.17042">
        <ele>747.8</ele>
        <time>2022-05-22 00:50:05</time>
      </trkpt>
      <trkpt lat="42.22545" lon="2.17041">
        <ele>747.8</ele>
        <time>2022-05-22 00:50:06</time>
      </trkpt>
      <trkpt lat="42.22549" lon="2.17039">
        <ele>747.8</ele>
        <time>2022-05-22 00:50:07</time>
      </trkpt>
      <trkpt lat="42.22553" lon="2.17037">
        <ele>747.8</ele>
        <time>2022-05-22 00:50:08</time>
      </trkpt>
      <trkpt lat="42.22558" lon="2.17036">
        <ele>747.8</ele>
        <time>2022-05-22 00:50:09</time>
      </trkpt>
      <trkpt lat="42.22563" lon="2.17035">
        <ele>747.8</ele>
        <time>2022-05-22 00:50:10</time>
      </trkpt>
      <trkpt lat="42.22567" lon="2.17034">
        <ele>747.8</ele>
        <time>2022-05-22 00:50:11</time>
      </trkpt>
      <trkpt lat="42.22572" lon="2.17033">
        <ele>747.8</ele>
        <time>2022-05-22 00:50:12</time>
      </trkpt>
      <trkpt lat="42.22577" lon="2.17032">
        <ele>747.8</ele>
        <time>2022-05-22 00:50:13</time>
      </trkpt>
      <trkpt lat="42.22582" lon="2.17032">
        <ele>747.8</ele>
        <time>2022-05-22 00:50:14</time>
      </trkpt>
      <trkpt lat="42.22588" lon="2.17031">
        <ele>747.8</ele>
        <time>2022-05-22 00:50:15</time>
      </trkpt>
      <trkpt lat="42.22593" lon="2.1703">
        <ele>747.6</ele>
        <time>2022-05-22 00:50:16</time>
      </trkpt>
      <trkpt lat="42.22598" lon="2.17029">
        <ele>747.6</ele>
        <time>2022-05-22 00:50:17</time>
      </trkpt>
      <trkpt lat="42.22603" lon="2.17027">
        <ele>747.6</ele>
        <time>2022-05-22 00:50:18</time>
      </trkpt>
      <trkpt lat="42.22608" lon="2.17026">
        <ele>747.4</ele>
        <time>2022-05-22 00:50:19</time>
      </trkpt>
      <trkpt lat="42.22613" lon="2.17025">
        <ele>747.4</ele>
        <time>2022-05-22 00:50:20</time>
      </trkpt>
      <trkpt lat="42.22618" lon="2.17023">
        <ele>747.4</ele>
        <time>2022-05-22 00:50:21</time>
      </trkpt>
      <trkpt lat="42.22622" lon="2.17021">
        <ele>747.4</ele>
        <time>2022-05-22 00:50:22</time>
      </trkpt>
      <trkpt lat="42.22627" lon="2.1702">
        <ele>747.4</ele>
        <time>2022-05-22 00:50:23</time>
      </trkpt>
      <trkpt lat="42.22631" lon="2.17018">
        <ele>747.4</ele>
        <time>2022-05-22 00:50:24</time>
      </trkpt>
      <trkpt lat="42.22636" lon="2.17016">
        <ele>747.6</ele>
        <time>2022-05-22 00:50:25</time>
      </trkpt>
      <trkpt lat="42.22641" lon="2.17015">
        <ele>747.6</ele>
        <time>2022-05-22 00:50:26</time>
      </trkpt>
      <trkpt lat="42.22646" lon="2.17013">
        <ele>747.6</ele>
        <time>2022-05-22 00:50:27</time>
      </trkpt>
      <trkpt lat="42.22651" lon="2.17012">
        <ele>747.6</ele>
        <time>2022-05-22 00:50:28</time>
      </trkpt>
      <trkpt lat="42.22655" lon="2.1701">
        <ele>747.6</ele>
        <time>2022-05-22 00:50:29</time>
      </trkpt>
      <trkpt lat="42.2266" lon="2.17008">
        <ele>747.6</ele>
        <time>2022-05-22 00:50:30</time>
      </trkpt>
      <trkpt lat="42.22665" lon="2.17006">
        <ele>747.6</ele>
        <time>2022-05-22 00:50:31</time>
      </trkpt>
      <trkpt lat="42.22669" lon="2.17005">
        <ele>747.6</ele>
        <time>2022-05-22 00:50:32</time>
      </trkpt>
      <trkpt lat="42.22673" lon="2.17004">
        <ele>747.8</ele>
        <time>2022-05-22 00:50:33</time>
      </trkpt>
      <trkpt lat="42.22678" lon="2.17002">
        <ele>747.8</ele>
        <time>2022-05-22 00:50:34</time>
      </trkpt>
      <trkpt lat="42.22682" lon="2.17001">
        <ele>748</ele>
        <time>2022-05-22 00:50:35</time>
      </trkpt>
      <trkpt lat="42.22687" lon="2.16999">
        <ele>748</ele>
        <time>2022-05-22 00:50:36</time>
      </trkpt>
      <trkpt lat="42.22691" lon="2.16998">
        <ele>748.2</ele>
        <time>2022-05-22 00:50:37</time>
      </trkpt>
      <trkpt lat="42.22695" lon="2.16997">
        <ele>748.2</ele>
        <time>2022-05-22 00:50:38</time>
      </trkpt>
      <trkpt lat="42.227" lon="2.16995">
        <ele>748.2</ele>
        <time>2022-05-22 00:50:39</time>
      </trkpt>
      <trkpt lat="42.22704" lon="2.16994">
        <ele>748.4</ele>
        <time>2022-05-22 00:50:40</time>
      </trkpt>
      <trkpt lat="42.22708" lon="2.16992">
        <ele>748.4</ele>
        <time>2022-05-22 00:50:41</time>
      </trkpt>
      <trkpt lat="42.22712" lon="2.1699">
        <ele>748.6</ele>
        <time>2022-05-22 00:50:42</time>
      </trkpt>
      <trkpt lat="42.22715" lon="2.16989">
        <ele>748.6</ele>
        <time>2022-05-22 00:50:43</time>
      </trkpt>
      <trkpt lat="42.2272" lon="2.16988">
        <ele>748.6</ele>
        <time>2022-05-22 00:50:44</time>
      </trkpt>
      <trkpt lat="42.22725" lon="2.16987">
        <ele>748.8</ele>
        <time>2022-05-22 00:50:45</time>
      </trkpt>
      <trkpt lat="42.2273" lon="2.16985">
        <ele>748.8</ele>
        <time>2022-05-22 00:50:46</time>
      </trkpt>
      <trkpt lat="42.22734" lon="2.16984">
        <ele>749</ele>
        <time>2022-05-22 00:50:47</time>
      </trkpt>
      <trkpt lat="42.22739" lon="2.16983">
        <ele>749</ele>
        <time>2022-05-22 00:50:48</time>
      </trkpt>
      <trkpt lat="42.22744" lon="2.16981">
        <ele>749</ele>
        <time>2022-05-22 00:50:49</time>
      </trkpt>
      <trkpt lat="42.22749" lon="2.1698">
        <ele>749.2</ele>
        <time>2022-05-22 00:50:50</time>
      </trkpt>
      <trkpt lat="42.22754" lon="2.16979">
        <ele>749.2</ele>
        <time>2022-05-22 00:50:51</time>
      </trkpt>
      <trkpt lat="42.22759" lon="2.16978">
        <ele>749.2</ele>
        <time>2022-05-22 00:50:52</time>
      </trkpt>
      <trkpt lat="42.22764" lon="2.16976">
        <ele>749.4</ele>
        <time>2022-05-22 00:50:53</time>
      </trkpt>
      <trkpt lat="42.22769" lon="2.16975">
        <ele>749.4</ele>
        <time>2022-05-22 00:50:54</time>
      </trkpt>
      <trkpt lat="42.22774" lon="2.16973">
        <ele>749.6</ele>
        <time>2022-05-22 00:50:55</time>
      </trkpt>
      <trkpt lat="42.22778" lon="2.16972">
        <ele>749.6</ele>
        <time>2022-05-22 00:50:56</time>
      </trkpt>
      <trkpt lat="42.22783" lon="2.16971">
        <ele>749.8</ele>
        <time>2022-05-22 00:50:57</time>
      </trkpt>
      <trkpt lat="42.22789" lon="2.1697">
        <ele>749.8</ele>
        <time>2022-05-22 00:50:58</time>
      </trkpt>
      <trkpt lat="42.22794" lon="2.16969">
        <ele>749.8</ele>
        <time>2022-05-22 00:50:59</time>
      </trkpt>
      <trkpt lat="42.22799" lon="2.16968">
        <ele>750</ele>
        <time>2022-05-22 00:51:00</time>
      </trkpt>
      <trkpt lat="42.22803" lon="2.16966">
        <ele>750.2</ele>
        <time>2022-05-22 00:51:01</time>
      </trkpt>
      <trkpt lat="42.22808" lon="2.16964">
        <ele>750.2</ele>
        <time>2022-05-22 00:51:02</time>
      </trkpt>
      <trkpt lat="42.22812" lon="2.16963">
        <ele>750.4</ele>
        <time>2022-05-22 00:51:03</time>
      </trkpt>
      <trkpt lat="42.22817" lon="2.16961">
        <ele>750.4</ele>
        <time>2022-05-22 00:51:04</time>
      </trkpt>
      <trkpt lat="42.22822" lon="2.1696">
        <ele>750.4</ele>
        <time>2022-05-22 00:51:05</time>
      </trkpt>
      <trkpt lat="42.22826" lon="2.16959">
        <ele>750.6</ele>
        <time>2022-05-22 00:51:06</time>
      </trkpt>
      <trkpt lat="42.2283" lon="2.16958">
        <ele>750.8</ele>
        <time>2022-05-22 00:51:07</time>
      </trkpt>
      <trkpt lat="42.22835" lon="2.16956">
        <ele>750.8</ele>
        <time>2022-05-22 00:51:08</time>
      </trkpt>
      <trkpt lat="42.22839" lon="2.16955">
        <ele>751</ele>
        <time>2022-05-22 00:51:09</time>
      </trkpt>
      <trkpt lat="42.22844" lon="2.16954">
        <ele>751</ele>
        <time>2022-05-22 00:51:10</time>
      </trkpt>
      <trkpt lat="42.22848" lon="2.16952">
        <ele>751.2</ele>
        <time>2022-05-22 00:51:11</time>
      </trkpt>
      <trkpt lat="42.22852" lon="2.16951">
        <ele>751.2</ele>
        <time>2022-05-22 00:51:12</time>
      </trkpt>
      <trkpt lat="42.22856" lon="2.1695">
        <ele>751.4</ele>
        <time>2022-05-22 00:51:13</time>
      </trkpt>
      <trkpt lat="42.22861" lon="2.16948">
        <ele>751.4</ele>
        <time>2022-05-22 00:51:14</time>
      </trkpt>
      <trkpt lat="42.22865" lon="2.16947">
        <ele>751.6</ele>
        <time>2022-05-22 00:51:15</time>
      </trkpt>
      <trkpt lat="42.22869" lon="2.16946">
        <ele>751.6</ele>
        <time>2022-05-22 00:51:16</time>
      </trkpt>
      <trkpt lat="42.22874" lon="2.16945">
        <ele>751.6</ele>
        <time>2022-05-22 00:51:17</time>
      </trkpt>
      <trkpt lat="42.22878" lon="2.16944">
        <ele>751.8</ele>
        <time>2022-05-22 00:51:18</time>
      </trkpt>
      <trkpt lat="42.22882" lon="2.16943">
        <ele>752</ele>
        <time>2022-05-22 00:51:19</time>
      </trkpt>
      <trkpt lat="42.22886" lon="2.16942">
        <ele>752</ele>
        <time>2022-05-22 00:51:20</time>
      </trkpt>
      <trkpt lat="42.2289" lon="2.1694">
        <ele>752.2</ele>
        <time>2022-05-22 00:51:21</time>
      </trkpt>
      <trkpt lat="42.22894" lon="2.16939">
        <ele>752.2</ele>
        <time>2022-05-22 00:51:22</time>
      </trkpt>
      <trkpt lat="42.22898" lon="2.16938">
        <ele>752.4</ele>
        <time>2022-05-22 00:51:23</time>
      </trkpt>
      <trkpt lat="42.22903" lon="2.16936">
        <ele>752.6</ele>
        <time>2022-05-22 00:51:24</time>
      </trkpt>
      <trkpt lat="42.22907" lon="2.16935">
        <ele>752.6</ele>
        <time>2022-05-22 00:51:25</time>
      </trkpt>
      <trkpt lat="42.22911" lon="2.16934">
        <ele>752.8</ele>
        <time>2022-05-22 00:51:26</time>
      </trkpt>
      <trkpt lat="42.22915" lon="2.16933">
        <ele>752.8</ele>
        <time>2022-05-22 00:51:27</time>
      </trkpt>
      <trkpt lat="42.22919" lon="2.16931">
        <ele>753</ele>
        <time>2022-05-22 00:51:28</time>
      </trkpt>
      <trkpt lat="42.22923" lon="2.1693">
        <ele>753.2</ele>
        <time>2022-05-22 00:51:29</time>
      </trkpt>
      <trkpt lat="42.22927" lon="2.16929">
        <ele>753.2</ele>
        <time>2022-05-22 00:51:30</time>
      </trkpt>
      <trkpt lat="42.22931" lon="2.16928">
        <ele>753.4</ele>
        <time>2022-05-22 00:51:31</time>
      </trkpt>
      <trkpt lat="42.22935" lon="2.16927">
        <ele>753.6</ele>
        <time>2022-05-22 00:51:32</time>
      </trkpt>
      <trkpt lat="42.22939" lon="2.16926">
        <ele>753.6</ele>
        <time>2022-05-22 00:51:33</time>
      </trkpt>
      <trkpt lat="42.22943" lon="2.16924">
        <ele>753.8</ele>
        <time>2022-05-22 00:51:34</time>
      </trkpt>
      <trkpt lat="42.22947" lon="2.16923">
        <ele>754</ele>
        <time>2022-05-22 00:51:35</time>
      </trkpt>
      <trkpt lat="42.22951" lon="2.16922">
        <ele>754</ele>
        <time>2022-05-22 00:51:36</time>
      </trkpt>
      <trkpt lat="42.22955" lon="2.16921">
        <ele>754.2</ele>
        <time>2022-05-22 00:51:37</time>
      </trkpt>
      <trkpt lat="42.22959" lon="2.16919">
        <ele>754.2</ele>
        <time>2022-05-22 00:51:38</time>
      </trkpt>
      <trkpt lat="42.22963" lon="2.16918">
        <ele>754.4</ele>
        <time>2022-05-22 00:51:39</time>
      </trkpt>
      <trkpt lat="42.22967" lon="2.16917">
        <ele>754.6</ele>
        <time>2022-05-22 00:51:40</time>
      </trkpt>
      <trkpt lat="42.22971" lon="2.16916">
        <ele>754.6</ele>
        <time>2022-05-22 00:51:41</time>
      </trkpt>
      <trkpt lat="42.22975" lon="2.16914">
        <ele>754.8</ele>
        <time>2022-05-22 00:51:42</time>
      </trkpt>
      <trkpt lat="42.22979" lon="2.16913">
        <ele>755</ele>
        <time>2022-05-22 00:51:43</time>
      </trkpt>
      <trkpt lat="42.22983" lon="2.16912">
        <ele>755</ele>
        <time>2022-05-22 00:51:44</time>
      </trkpt>
      <trkpt lat="42.22987" lon="2.16912">
        <ele>755.2</ele>
        <time>2022-05-22 00:51:45</time>
      </trkpt>
      <trkpt lat="42.22991" lon="2.1691">
        <ele>755.4</ele>
        <time>2022-05-22 00:51:46</time>
      </trkpt>
      <trkpt lat="42.22995" lon="2.16909">
        <ele>755.4</ele>
        <time>2022-05-22 00:51:47</time>
      </trkpt>
      <trkpt lat="42.22999" lon="2.16908">
        <ele>755.6</ele>
        <time>2022-05-22 00:51:48</time>
      </trkpt>
      <trkpt lat="42.23003" lon="2.16907">
        <ele>755.8</ele>
        <time>2022-05-22 00:51:49</time>
      </trkpt>
      <trkpt lat="42.23006" lon="2.16905">
        <ele>755.8</ele>
        <time>2022-05-22 00:51:50</time>
      </trkpt>
      <trkpt lat="42.2301" lon="2.16904">
        <ele>756</ele>
        <time>2022-05-22 00:51:51</time>
      </trkpt>
      <trkpt lat="42.23014" lon="2.16903">
        <ele>756.2</ele>
        <time>2022-05-22 00:51:52</time>
      </trkpt>
      <trkpt lat="42.23018" lon="2.16902">
        <ele>756.4</ele>
        <time>2022-05-22 00:51:53</time>
      </trkpt>
      <trkpt lat="42.23022" lon="2.16901">
        <ele>756.4</ele>
        <time>2022-05-22 00:51:54</time>
      </trkpt>
      <trkpt lat="42.23025" lon="2.169">
        <ele>756.6</ele>
        <time>2022-05-22 00:51:55</time>
      </trkpt>
      <trkpt lat="42.23029" lon="2.16898">
        <ele>756.8</ele>
        <time>2022-05-22 00:51:56</time>
      </trkpt>
      <trkpt lat="42.23033" lon="2.16897">
        <ele>756.8</ele>
        <time>2022-05-22 00:51:57</time>
      </trkpt>
      <trkpt lat="42.23037" lon="2.16896">
        <ele>757</ele>
        <time>2022-05-22 00:51:58</time>
      </trkpt>
      <trkpt lat="42.2304" lon="2.16894">
        <ele>757.2</ele>
        <time>2022-05-22 00:51:59</time>
      </trkpt>
      <trkpt lat="42.23044" lon="2.16893">
        <ele>757.2</ele>
        <time>2022-05-22 00:52:00</time>
      </trkpt>
      <trkpt lat="42.23048" lon="2.16892">
        <ele>757.4</ele>
        <time>2022-05-22 00:52:01</time>
      </trkpt>
      <trkpt lat="42.23052" lon="2.16891">
        <ele>757.6</ele>
        <time>2022-05-22 00:52:02</time>
      </trkpt>
      <trkpt lat="42.23056" lon="2.1689">
        <ele>757.6</ele>
        <time>2022-05-22 00:52:03</time>
      </trkpt>
      <trkpt lat="42.2306" lon="2.16889">
        <ele>757.8</ele>
        <time>2022-05-22 00:52:04</time>
      </trkpt>
      <trkpt lat="42.23064" lon="2.16888">
        <ele>757.8</ele>
        <time>2022-05-22 00:52:05</time>
      </trkpt>
      <trkpt lat="42.23068" lon="2.16887">
        <ele>758</ele>
        <time>2022-05-22 00:52:06</time>
      </trkpt>
      <trkpt lat="42.23072" lon="2.16885">
        <ele>758</ele>
        <time>2022-05-22 00:52:07</time>
      </trkpt>
      <trkpt lat="42.23076" lon="2.16884">
        <ele>758.2</ele>
        <time>2022-05-22 00:52:08</time>
      </trkpt>
      <trkpt lat="42.2308" lon="2.16883">
        <ele>758.2</ele>
        <time>2022-05-22 00:52:09</time>
      </trkpt>
      <trkpt lat="42.23084" lon="2.16882">
        <ele>758.4</ele>
        <time>2022-05-22 00:52:10</time>
      </trkpt>
      <trkpt lat="42.23087" lon="2.1688">
        <ele>758.4</ele>
        <time>2022-05-22 00:52:11</time>
      </trkpt>
      <trkpt lat="42.23091" lon="2.16879">
        <ele>758.6</ele>
        <time>2022-05-22 00:52:12</time>
      </trkpt>
      <trkpt lat="42.23094" lon="2.16878">
        <ele>758.8</ele>
        <time>2022-05-22 00:52:13</time>
      </trkpt>
      <trkpt lat="42.23098" lon="2.16877">
        <ele>758.8</ele>
        <time>2022-05-22 00:52:14</time>
      </trkpt>
      <trkpt lat="42.23101" lon="2.16876">
        <ele>759</ele>
        <time>2022-05-22 00:52:15</time>
      </trkpt>
      <trkpt lat="42.23105" lon="2.16875">
        <ele>759.2</ele>
        <time>2022-05-22 00:52:16</time>
      </trkpt>
      <trkpt lat="42.23109" lon="2.16874">
        <ele>759.2</ele>
        <time>2022-05-22 00:52:17</time>
      </trkpt>
      <trkpt lat="42.23113" lon="2.16872">
        <ele>759.4</ele>
        <time>2022-05-22 00:52:18</time>
      </trkpt>
      <trkpt lat="42.23117" lon="2.16871">
        <ele>759.6</ele>
        <time>2022-05-22 00:52:19</time>
      </trkpt>
      <trkpt lat="42.23121" lon="2.1687">
        <ele>759.6</ele>
        <time>2022-05-22 00:52:20</time>
      </trkpt>
      <trkpt lat="42.23124" lon="2.16868">
        <ele>759.8</ele>
        <time>2022-05-22 00:52:21</time>
      </trkpt>
      <trkpt lat="42.23128" lon="2.16866">
        <ele>759.8</ele>
        <time>2022-05-22 00:52:22</time>
      </trkpt>
      <trkpt lat="42.23132" lon="2.16865">
        <ele>760</ele>
        <time>2022-05-22 00:52:23</time>
      </trkpt>
      <trkpt lat="42.23136" lon="2.16863">
        <ele>760</ele>
        <time>2022-05-22 00:52:24</time>
      </trkpt>
      <trkpt lat="42.2314" lon="2.16862">
        <ele>760.2</ele>
        <time>2022-05-22 00:52:25</time>
      </trkpt>
      <trkpt lat="42.23144" lon="2.1686">
        <ele>760.4</ele>
        <time>2022-05-22 00:52:26</time>
      </trkpt>
      <trkpt lat="42.23148" lon="2.16859">
        <ele>760.4</ele>
        <time>2022-05-22 00:52:27</time>
      </trkpt>
      <trkpt lat="42.23152" lon="2.16858">
        <ele>760.6</ele>
        <time>2022-05-22 00:52:28</time>
      </trkpt>
      <trkpt lat="42.23155" lon="2.16857">
        <ele>760.8</ele>
        <time>2022-05-22 00:52:29</time>
      </trkpt>
      <trkpt lat="42.23159" lon="2.16856">
        <ele>761</ele>
        <time>2022-05-22 00:52:30</time>
      </trkpt>
      <trkpt lat="42.23163" lon="2.16855">
        <ele>761</ele>
        <time>2022-05-22 00:52:31</time>
      </trkpt>
      <trkpt lat="42.23167" lon="2.16854">
        <ele>761.2</ele>
        <time>2022-05-22 00:52:32</time>
      </trkpt>
      <trkpt lat="42.23171" lon="2.16853">
        <ele>761.4</ele>
        <time>2022-05-22 00:52:33</time>
      </trkpt>
      <trkpt lat="42.23175" lon="2.16852">
        <ele>761.4</ele>
        <time>2022-05-22 00:52:34</time>
      </trkpt>
      <trkpt lat="42.23179" lon="2.16851">
        <ele>761.6</ele>
        <time>2022-05-22 00:52:35</time>
      </trkpt>
      <trkpt lat="42.23183" lon="2.1685">
        <ele>761.8</ele>
        <time>2022-05-22 00:52:36</time>
      </trkpt>
      <trkpt lat="42.23187" lon="2.16849">
        <ele>761.8</ele>
        <time>2022-05-22 00:52:37</time>
      </trkpt>
      <trkpt lat="42.23191" lon="2.16848">
        <ele>762</ele>
        <time>2022-05-22 00:52:38</time>
      </trkpt>
      <trkpt lat="42.23194" lon="2.16847">
        <ele>762.2</ele>
        <time>2022-05-22 00:52:39</time>
      </trkpt>
      <trkpt lat="42.23198" lon="2.16846">
        <ele>762.2</ele>
        <time>2022-05-22 00:52:40</time>
      </trkpt>
      <trkpt lat="42.23202" lon="2.16845">
        <ele>762.4</ele>
        <time>2022-05-22 00:52:41</time>
      </trkpt>
      <trkpt lat="42.23206" lon="2.16844">
        <ele>762.4</ele>
        <time>2022-05-22 00:52:42</time>
      </trkpt>
      <trkpt lat="42.2321" lon="2.16843">
        <ele>762.6</ele>
        <time>2022-05-22 00:52:43</time>
      </trkpt>
      <trkpt lat="42.23213" lon="2.16843">
        <ele>762.6</ele>
        <time>2022-05-22 00:52:44</time>
      </trkpt>
      <trkpt lat="42.23217" lon="2.16842">
        <ele>762.8</ele>
        <time>2022-05-22 00:52:45</time>
      </trkpt>
      <trkpt lat="42.23222" lon="2.16841">
        <ele>762.8</ele>
        <time>2022-05-22 00:52:46</time>
      </trkpt>
      <trkpt lat="42.23226" lon="2.16841">
        <ele>762.8</ele>
        <time>2022-05-22 00:52:47</time>
      </trkpt>
      <trkpt lat="42.2323" lon="2.1684">
        <ele>762.8</ele>
        <time>2022-05-22 00:52:48</time>
      </trkpt>
      <trkpt lat="42.23235" lon="2.16839">
        <ele>763</ele>
        <time>2022-05-22 00:52:49</time>
      </trkpt>
      <trkpt lat="42.2324" lon="2.16838">
        <ele>763</ele>
        <time>2022-05-22 00:52:50</time>
      </trkpt>
      <trkpt lat="42.23244" lon="2.16838">
        <ele>763</ele>
        <time>2022-05-22 00:52:51</time>
      </trkpt>
      <trkpt lat="42.23249" lon="2.16837">
        <ele>763</ele>
        <time>2022-05-22 00:52:52</time>
      </trkpt>
      <trkpt lat="42.23254" lon="2.16837">
        <ele>763</ele>
        <time>2022-05-22 00:52:53</time>
      </trkpt>
      <trkpt lat="42.23258" lon="2.16836">
        <ele>763</ele>
        <time>2022-05-22 00:52:54</time>
      </trkpt>
      <trkpt lat="42.23263" lon="2.16836">
        <ele>763</ele>
        <time>2022-05-22 00:52:55</time>
      </trkpt>
      <trkpt lat="42.23268" lon="2.16836">
        <ele>763</ele>
        <time>2022-05-22 00:52:56</time>
      </trkpt>
      <trkpt lat="42.23273" lon="2.16835">
        <ele>763</ele>
        <time>2022-05-22 00:52:57</time>
      </trkpt>
      <trkpt lat="42.23277" lon="2.16835">
        <ele>763</ele>
        <time>2022-05-22 00:52:58</time>
      </trkpt>
      <trkpt lat="42.23283" lon="2.16834">
        <ele>763</ele>
        <time>2022-05-22 00:52:59</time>
      </trkpt>
      <trkpt lat="42.23288" lon="2.16833">
        <ele>763</ele>
        <time>2022-05-22 00:53:00</time>
      </trkpt>
      <trkpt lat="42.23293" lon="2.16833">
        <ele>763</ele>
        <time>2022-05-22 00:53:01</time>
      </trkpt>
      <trkpt lat="42.23297" lon="2.16832">
        <ele>763</ele>
        <time>2022-05-22 00:53:02</time>
      </trkpt>
      <trkpt lat="42.23302" lon="2.16831">
        <ele>763</ele>
        <time>2022-05-22 00:53:03</time>
      </trkpt>
      <trkpt lat="42.23307" lon="2.16831">
        <ele>763</ele>
        <time>2022-05-22 00:53:04</time>
      </trkpt>
      <trkpt lat="42.23312" lon="2.1683">
        <ele>763.2</ele>
        <time>2022-05-22 00:53:05</time>
      </trkpt>
      <trkpt lat="42.23317" lon="2.1683">
        <ele>763.2</ele>
        <time>2022-05-22 00:53:06</time>
      </trkpt>
      <trkpt lat="42.23322" lon="2.16829">
        <ele>763.2</ele>
        <time>2022-05-22 00:53:07</time>
      </trkpt>
      <trkpt lat="42.23327" lon="2.16828">
        <ele>763.2</ele>
        <time>2022-05-22 00:53:08</time>
      </trkpt>
      <trkpt lat="42.23332" lon="2.16828">
        <ele>763.4</ele>
        <time>2022-05-22 00:53:09</time>
      </trkpt>
      <trkpt lat="42.23337" lon="2.16827">
        <ele>763.4</ele>
        <time>2022-05-22 00:53:10</time>
      </trkpt>
      <trkpt lat="42.23341" lon="2.16826">
        <ele>763.6</ele>
        <time>2022-05-22 00:53:11</time>
      </trkpt>
      <trkpt lat="42.23346" lon="2.16826">
        <ele>763.6</ele>
        <time>2022-05-22 00:53:12</time>
      </trkpt>
      <trkpt lat="42.2335" lon="2.16825">
        <ele>763.6</ele>
        <time>2022-05-22 00:53:13</time>
      </trkpt>
      <trkpt lat="42.23355" lon="2.16825">
        <ele>763.8</ele>
        <time>2022-05-22 00:53:14</time>
      </trkpt>
      <trkpt lat="42.2336" lon="2.16824">
        <ele>763.8</ele>
        <time>2022-05-22 00:53:15</time>
      </trkpt>
      <trkpt lat="42.23365" lon="2.16824">
        <ele>763.8</ele>
        <time>2022-05-22 00:53:16</time>
      </trkpt>
      <trkpt lat="42.23369" lon="2.16823">
        <ele>764</ele>
        <time>2022-05-22 00:53:17</time>
      </trkpt>
      <trkpt lat="42.23374" lon="2.16823">
        <ele>764</ele>
        <time>2022-05-22 00:53:18</time>
      </trkpt>
      <trkpt lat="42.23378" lon="2.16822">
        <ele>764</ele>
        <time>2022-05-22 00:53:19</time>
      </trkpt>
      <trkpt lat="42.23383" lon="2.16821">
        <ele>764.2</ele>
        <time>2022-05-22 00:53:20</time>
      </trkpt>
      <trkpt lat="42.23387" lon="2.16821">
        <ele>764.2</ele>
        <time>2022-05-22 00:53:21</time>
      </trkpt>
      <trkpt lat="42.23392" lon="2.1682">
        <ele>764.2</ele>
        <time>2022-05-22 00:53:22</time>
      </trkpt>
      <trkpt lat="42.23396" lon="2.1682">
        <ele>764.4</ele>
        <time>2022-05-22 00:53:23</time>
      </trkpt>
      <trkpt lat="42.234" lon="2.16819">
        <ele>764.4</ele>
        <time>2022-05-22 00:53:24</time>
      </trkpt>
      <trkpt lat="42.23404" lon="2.16818">
        <ele>764.6</ele>
        <time>2022-05-22 00:53:25</time>
      </trkpt>
      <trkpt lat="42.23408" lon="2.16817">
        <ele>764.6</ele>
        <time>2022-05-22 00:53:26</time>
      </trkpt>
      <trkpt lat="42.23413" lon="2.16817">
        <ele>764.8</ele>
        <time>2022-05-22 00:53:27</time>
      </trkpt>
      <trkpt lat="42.23417" lon="2.16816">
        <ele>764.8</ele>
        <time>2022-05-22 00:53:28</time>
      </trkpt>
      <trkpt lat="42.23421" lon="2.16816">
        <ele>765</ele>
        <time>2022-05-22 00:53:29</time>
      </trkpt>
      <trkpt lat="42.23425" lon="2.16815">
        <ele>765</ele>
        <time>2022-05-22 00:53:30</time>
      </trkpt>
      <trkpt lat="42.2343" lon="2.16815">
        <ele>765.2</ele>
        <time>2022-05-22 00:53:31</time>
      </trkpt>
      <trkpt lat="42.23434" lon="2.16814">
        <ele>765.2</ele>
        <time>2022-05-22 00:53:32</time>
      </trkpt>
      <trkpt lat="42.23438" lon="2.16814">
        <ele>765.4</ele>
        <time>2022-05-22 00:53:33</time>
      </trkpt>
      <trkpt lat="42.23442" lon="2.16813">
        <ele>765.4</ele>
        <time>2022-05-22 00:53:34</time>
      </trkpt>
      <trkpt lat="42.23447" lon="2.16813">
        <ele>765.6</ele>
        <time>2022-05-22 00:53:35</time>
      </trkpt>
      <trkpt lat="42.23451" lon="2.16813">
        <ele>765.6</ele>
        <time>2022-05-22 00:53:36</time>
      </trkpt>
      <trkpt lat="42.23455" lon="2.16812">
        <ele>765.8</ele>
        <time>2022-05-22 00:53:37</time>
      </trkpt>
      <trkpt lat="42.23459" lon="2.16812">
        <ele>765.8</ele>
        <time>2022-05-22 00:53:38</time>
      </trkpt>
      <trkpt lat="42.23463" lon="2.16811">
        <ele>765.8</ele>
        <time>2022-05-22 00:53:39</time>
      </trkpt>
      <trkpt lat="42.23468" lon="2.16811">
        <ele>766</ele>
        <time>2022-05-22 00:53:40</time>
      </trkpt>
      <trkpt lat="42.23473" lon="2.1681">
        <ele>766</ele>
        <time>2022-05-22 00:53:41</time>
      </trkpt>
      <trkpt lat="42.23477" lon="2.1681">
        <ele>766</ele>
        <time>2022-05-22 00:53:42</time>
      </trkpt>
      <trkpt lat="42.23481" lon="2.16809">
        <ele>766</ele>
        <time>2022-05-22 00:53:43</time>
      </trkpt>
      <trkpt lat="42.23485" lon="2.16808">
        <ele>766.2</ele>
        <time>2022-05-22 00:53:44</time>
      </trkpt>
      <trkpt lat="42.2349" lon="2.16808">
        <ele>766.2</ele>
        <time>2022-05-22 00:53:45</time>
      </trkpt>
      <trkpt lat="42.23494" lon="2.16807">
        <ele>766.2</ele>
        <time>2022-05-22 00:53:46</time>
      </trkpt>
      <trkpt lat="42.23498" lon="2.16807">
        <ele>766.2</ele>
        <time>2022-05-22 00:53:47</time>
      </trkpt>
      <trkpt lat="42.23503" lon="2.16806">
        <ele>766.2</ele>
        <time>2022-05-22 00:53:48</time>
      </trkpt>
      <trkpt lat="42.23507" lon="2.16806">
        <ele>766.2</ele>
        <time>2022-05-22 00:53:49</time>
      </trkpt>
      <trkpt lat="42.23512" lon="2.16805">
        <ele>766.4</ele>
        <time>2022-05-22 00:53:50</time>
      </trkpt>
      <trkpt lat="42.23516" lon="2.16805">
        <ele>766.4</ele>
        <time>2022-05-22 00:53:51</time>
      </trkpt>
      <trkpt lat="42.23521" lon="2.16805">
        <ele>766.4</ele>
        <time>2022-05-22 00:53:52</time>
      </trkpt>
      <trkpt lat="42.23525" lon="2.16804">
        <ele>766.4</ele>
        <time>2022-05-22 00:53:53</time>
      </trkpt>
      <trkpt lat="42.2353" lon="2.16804">
        <ele>766.4</ele>
        <time>2022-05-22 00:53:54</time>
      </trkpt>
      <trkpt lat="42.23534" lon="2.16804">
        <ele>766.4</ele>
        <time>2022-05-22 00:53:55</time>
      </trkpt>
      <trkpt lat="42.23539" lon="2.16804">
        <ele>766.6</ele>
        <time>2022-05-22 00:53:56</time>
      </trkpt>
      <trkpt lat="42.23544" lon="2.16804">
        <ele>766.6</ele>
        <time>2022-05-22 00:53:57</time>
      </trkpt>
      <trkpt lat="42.23549" lon="2.16805">
        <ele>766.6</ele>
        <time>2022-05-22 00:53:58</time>
      </trkpt>
      <trkpt lat="42.23553" lon="2.16805">
        <ele>766.6</ele>
        <time>2022-05-22 00:53:59</time>
      </trkpt>
      <trkpt lat="42.23558" lon="2.16805">
        <ele>766.8</ele>
        <time>2022-05-22 00:54:00</time>
      </trkpt>
      <trkpt lat="42.23563" lon="2.16806">
        <ele>766.8</ele>
        <time>2022-05-22 00:54:01</time>
      </trkpt>
      <trkpt lat="42.23567" lon="2.16806">
        <ele>766.8</ele>
        <time>2022-05-22 00:54:02</time>
      </trkpt>
      <trkpt lat="42.23572" lon="2.16807">
        <ele>766.8</ele>
        <time>2022-05-22 00:54:03</time>
      </trkpt>
      <trkpt lat="42.23577" lon="2.16808">
        <ele>766.8</ele>
        <time>2022-05-22 00:54:04</time>
      </trkpt>
      <trkpt lat="42.23581" lon="2.16809">
        <ele>767</ele>
        <time>2022-05-22 00:54:05</time>
      </trkpt>
      <trkpt lat="42.23586" lon="2.1681">
        <ele>767</ele>
        <time>2022-05-22 00:54:06</time>
      </trkpt>
      <trkpt lat="42.2359" lon="2.1681">
        <ele>767.2</ele>
        <time>2022-05-22 00:54:07</time>
      </trkpt>
      <trkpt lat="42.23594" lon="2.16811">
        <ele>767.2</ele>
        <time>2022-05-22 00:54:08</time>
      </trkpt>
      <trkpt lat="42.23597" lon="2.16812">
        <ele>767.2</ele>
        <time>2022-05-22 00:54:09</time>
      </trkpt>
      <trkpt lat="42.236" lon="2.16813">
        <ele>767.4</ele>
        <time>2022-05-22 00:54:10</time>
      </trkpt>
      <trkpt lat="42.23604" lon="2.16814">
        <ele>767.4</ele>
        <time>2022-05-22 00:54:11</time>
      </trkpt>
      <trkpt lat="42.23608" lon="2.16815">
        <ele>767.6</ele>
        <time>2022-05-22 00:54:12</time>
      </trkpt>
      <trkpt lat="42.23612" lon="2.16816">
        <ele>767.6</ele>
        <time>2022-05-22 00:54:13</time>
      </trkpt>
      <trkpt lat="42.23616" lon="2.16817">
        <ele>767.8</ele>
        <time>2022-05-22 00:54:14</time>
      </trkpt>
      <trkpt lat="42.23621" lon="2.16817">
        <ele>768</ele>
        <time>2022-05-22 00:54:15</time>
      </trkpt>
      <trkpt lat="42.23625" lon="2.16818">
        <ele>768</ele>
        <time>2022-05-22 00:54:16</time>
      </trkpt>
      <trkpt lat="42.23629" lon="2.16818">
        <ele>768.2</ele>
        <time>2022-05-22 00:54:17</time>
      </trkpt>
      <trkpt lat="42.23633" lon="2.16819">
        <ele>768.4</ele>
        <time>2022-05-22 00:54:18</time>
      </trkpt>
      <trkpt lat="42.23637" lon="2.16819">
        <ele>768.4</ele>
        <time>2022-05-22 00:54:19</time>
      </trkpt>
      <trkpt lat="42.23641" lon="2.1682">
        <ele>768.6</ele>
        <time>2022-05-22 00:54:20</time>
      </trkpt>
      <trkpt lat="42.23645" lon="2.16821">
        <ele>768.8</ele>
        <time>2022-05-22 00:54:21</time>
      </trkpt>
      <trkpt lat="42.23649" lon="2.16821">
        <ele>769</ele>
        <time>2022-05-22 00:54:22</time>
      </trkpt>
      <trkpt lat="42.23653" lon="2.16822">
        <ele>769</ele>
        <time>2022-05-22 00:54:23</time>
      </trkpt>
      <trkpt lat="42.23657" lon="2.16821">
        <ele>769.2</ele>
        <time>2022-05-22 00:54:24</time>
      </trkpt>
      <trkpt lat="42.23661" lon="2.16821">
        <ele>769.4</ele>
        <time>2022-05-22 00:54:25</time>
      </trkpt>
      <trkpt lat="42.23665" lon="2.1682">
        <ele>769.4</ele>
        <time>2022-05-22 00:54:26</time>
      </trkpt>
      <trkpt lat="42.23669" lon="2.1682">
        <ele>769.6</ele>
        <time>2022-05-22 00:54:27</time>
      </trkpt>
      <trkpt lat="42.23672" lon="2.16819">
        <ele>769.8</ele>
        <time>2022-05-22 00:54:28</time>
      </trkpt>
      <trkpt lat="42.23676" lon="2.16818">
        <ele>769.8</ele>
        <time>2022-05-22 00:54:29</time>
      </trkpt>
      <trkpt lat="42.2368" lon="2.16818">
        <ele>770</ele>
        <time>2022-05-22 00:54:30</time>
      </trkpt>
      <trkpt lat="42.23684" lon="2.16818">
        <ele>770</ele>
        <time>2022-05-22 00:54:31</time>
      </trkpt>
      <trkpt lat="42.23688" lon="2.16817">
        <ele>770.2</ele>
        <time>2022-05-22 00:54:32</time>
      </trkpt>
      <trkpt lat="42.23692" lon="2.16817">
        <ele>770.2</ele>
        <time>2022-05-22 00:54:33</time>
      </trkpt>
      <trkpt lat="42.23697" lon="2.16817">
        <ele>770.4</ele>
        <time>2022-05-22 00:54:34</time>
      </trkpt>
      <trkpt lat="42.23701" lon="2.16816">
        <ele>770.4</ele>
        <time>2022-05-22 00:54:35</time>
      </trkpt>
      <trkpt lat="42.23705" lon="2.16815">
        <ele>770.6</ele>
        <time>2022-05-22 00:54:36</time>
      </trkpt>
      <trkpt lat="42.23709" lon="2.16814">
        <ele>770.6</ele>
        <time>2022-05-22 00:54:37</time>
      </trkpt>
      <trkpt lat="42.23713" lon="2.16814">
        <ele>770.8</ele>
        <time>2022-05-22 00:54:38</time>
      </trkpt>
      <trkpt lat="42.23717" lon="2.16813">
        <ele>770.8</ele>
        <time>2022-05-22 00:54:39</time>
      </trkpt>
      <trkpt lat="42.23721" lon="2.16813">
        <ele>771</ele>
        <time>2022-05-22 00:54:40</time>
      </trkpt>
      <trkpt lat="42.23725" lon="2.16811">
        <ele>771.2</ele>
        <time>2022-05-22 00:54:41</time>
      </trkpt>
      <trkpt lat="42.23728" lon="2.1681">
        <ele>771.2</ele>
        <time>2022-05-22 00:54:42</time>
      </trkpt>
      <trkpt lat="42.23732" lon="2.16809">
        <ele>771.4</ele>
        <time>2022-05-22 00:54:43</time>
      </trkpt>
      <trkpt lat="42.23736" lon="2.16808">
        <ele>771.6</ele>
        <time>2022-05-22 00:54:44</time>
      </trkpt>
      <trkpt lat="42.2374" lon="2.16807">
        <ele>771.6</ele>
        <time>2022-05-22 00:54:45</time>
      </trkpt>
      <trkpt lat="42.23743" lon="2.16806">
        <ele>771.8</ele>
        <time>2022-05-22 00:54:46</time>
      </trkpt>
      <trkpt lat="42.23748" lon="2.16805">
        <ele>772</ele>
        <time>2022-05-22 00:54:47</time>
      </trkpt>
      <trkpt lat="42.23752" lon="2.16805">
        <ele>772</ele>
        <time>2022-05-22 00:54:48</time>
      </trkpt>
      <trkpt lat="42.23756" lon="2.16804">
        <ele>772.2</ele>
        <time>2022-05-22 00:54:49</time>
      </trkpt>
      <trkpt lat="42.2376" lon="2.16803">
        <ele>772.4</ele>
        <time>2022-05-22 00:54:50</time>
      </trkpt>
      <trkpt lat="42.23763" lon="2.16802">
        <ele>772.4</ele>
        <time>2022-05-22 00:54:51</time>
      </trkpt>
      <trkpt lat="42.23768" lon="2.168">
        <ele>772.6</ele>
        <time>2022-05-22 00:54:52</time>
      </trkpt>
      <trkpt lat="42.23772" lon="2.16799">
        <ele>772.8</ele>
        <time>2022-05-22 00:54:53</time>
      </trkpt>
      <trkpt lat="42.23776" lon="2.16797">
        <ele>772.8</ele>
        <time>2022-05-22 00:54:54</time>
      </trkpt>
      <trkpt lat="42.2378" lon="2.16796">
        <ele>773</ele>
        <time>2022-05-22 00:54:55</time>
      </trkpt>
      <trkpt lat="42.23784" lon="2.16794">
        <ele>773.2</ele>
        <time>2022-05-22 00:54:56</time>
      </trkpt>
      <trkpt lat="42.23787" lon="2.16793">
        <ele>773.2</ele>
        <time>2022-05-22 00:54:57</time>
      </trkpt>
      <trkpt lat="42.23791" lon="2.16792">
        <ele>773.4</ele>
        <time>2022-05-22 00:54:58</time>
      </trkpt>
      <trkpt lat="42.23795" lon="2.1679">
        <ele>773.4</ele>
        <time>2022-05-22 00:54:59</time>
      </trkpt>
      <trkpt lat="42.238" lon="2.16788">
        <ele>773.6</ele>
        <time>2022-05-22 00:55:00</time>
      </trkpt>
      <trkpt lat="42.23804" lon="2.16786">
        <ele>773.6</ele>
        <time>2022-05-22 00:55:01</time>
      </trkpt>
      <trkpt lat="42.23808" lon="2.16784">
        <ele>773.6</ele>
        <time>2022-05-22 00:55:02</time>
      </trkpt>
      <trkpt lat="42.23812" lon="2.16782">
        <ele>773.8</ele>
        <time>2022-05-22 00:55:03</time>
      </trkpt>
      <trkpt lat="42.23816" lon="2.1678">
        <ele>773.8</ele>
        <time>2022-05-22 00:55:04</time>
      </trkpt>
      <trkpt lat="42.2382" lon="2.16777">
        <ele>773.8</ele>
        <time>2022-05-22 00:55:05</time>
      </trkpt>
      <trkpt lat="42.23825" lon="2.16775">
        <ele>774</ele>
        <time>2022-05-22 00:55:06</time>
      </trkpt>
      <trkpt lat="42.23829" lon="2.16772">
        <ele>774</ele>
        <time>2022-05-22 00:55:07</time>
      </trkpt>
      <trkpt lat="42.23833" lon="2.1677">
        <ele>774</ele>
        <time>2022-05-22 00:55:08</time>
      </trkpt>
      <trkpt lat="42.23837" lon="2.16767">
        <ele>774</ele>
        <time>2022-05-22 00:55:09</time>
      </trkpt>
      <trkpt lat="42.23841" lon="2.16764">
        <ele>774</ele>
        <time>2022-05-22 00:55:10</time>
      </trkpt>
      <trkpt lat="42.23845" lon="2.1676">
        <ele>774</ele>
        <time>2022-05-22 00:55:11</time>
      </trkpt>
      <trkpt lat="42.23849" lon="2.16757">
        <ele>774</ele>
        <time>2022-05-22 00:55:12</time>
      </trkpt>
      <trkpt lat="42.23853" lon="2.16754">
        <ele>774.2</ele>
        <time>2022-05-22 00:55:13</time>
      </trkpt>
      <trkpt lat="42.23857" lon="2.1675">
        <ele>774.2</ele>
        <time>2022-05-22 00:55:14</time>
      </trkpt>
      <trkpt lat="42.23861" lon="2.16747">
        <ele>774.2</ele>
        <time>2022-05-22 00:55:15</time>
      </trkpt>
      <trkpt lat="42.23865" lon="2.16743">
        <ele>774.2</ele>
        <time>2022-05-22 00:55:16</time>
      </trkpt>
      <trkpt lat="42.23869" lon="2.1674">
        <ele>774.2</ele>
        <time>2022-05-22 00:55:17</time>
      </trkpt>
      <trkpt lat="42.23873" lon="2.16736">
        <ele>774.2</ele>
        <time>2022-05-22 00:55:18</time>
      </trkpt>
      <trkpt lat="42.23877" lon="2.16733">
        <ele>774.2</ele>
        <time>2022-05-22 00:55:19</time>
      </trkpt>
      <trkpt lat="42.23881" lon="2.16729">
        <ele>774.2</ele>
        <time>2022-05-22 00:55:20</time>
      </trkpt>
      <trkpt lat="42.23886" lon="2.16726">
        <ele>774.2</ele>
        <time>2022-05-22 00:55:21</time>
      </trkpt>
      <trkpt lat="42.2389" lon="2.16722">
        <ele>774.2</ele>
        <time>2022-05-22 00:55:22</time>
      </trkpt>
      <trkpt lat="42.23894" lon="2.16719">
        <ele>774.2</ele>
        <time>2022-05-22 00:55:23</time>
      </trkpt>
      <trkpt lat="42.23898" lon="2.16715">
        <ele>774.2</ele>
        <time>2022-05-22 00:55:24</time>
      </trkpt>
      <trkpt lat="42.23902" lon="2.16712">
        <ele>774.2</ele>
        <time>2022-05-22 00:55:25</time>
      </trkpt>
      <trkpt lat="42.23906" lon="2.16708">
        <ele>774.4</ele>
        <time>2022-05-22 00:55:26</time>
      </trkpt>
      <trkpt lat="42.2391" lon="2.16705">
        <ele>774.4</ele>
        <time>2022-05-22 00:55:27</time>
      </trkpt>
      <trkpt lat="42.23913" lon="2.16701">
        <ele>774.6</ele>
        <time>2022-05-22 00:55:28</time>
      </trkpt>
      <trkpt lat="42.23917" lon="2.16698">
        <ele>774.6</ele>
        <time>2022-05-22 00:55:29</time>
      </trkpt>
      <trkpt lat="42.23921" lon="2.16695">
        <ele>774.6</ele>
        <time>2022-05-22 00:55:30</time>
      </trkpt>
      <trkpt lat="42.23924" lon="2.16692">
        <ele>774.8</ele>
        <time>2022-05-22 00:55:31</time>
      </trkpt>
      <trkpt lat="42.23928" lon="2.16688">
        <ele>774.8</ele>
        <time>2022-05-22 00:55:32</time>
      </trkpt>
      <trkpt lat="42.23932" lon="2.16685">
        <ele>775</ele>
        <time>2022-05-22 00:55:33</time>
      </trkpt>
      <trkpt lat="42.23935" lon="2.16682">
        <ele>775</ele>
        <time>2022-05-22 00:55:34</time>
      </trkpt>
      <trkpt lat="42.23939" lon="2.16678">
        <ele>775</ele>
        <time>2022-05-22 00:55:35</time>
      </trkpt>
      <trkpt lat="42.23943" lon="2.16675">
        <ele>775.2</ele>
        <time>2022-05-22 00:55:36</time>
      </trkpt>
      <trkpt lat="42.23947" lon="2.16672">
        <ele>775.2</ele>
        <time>2022-05-22 00:55:37</time>
      </trkpt>
      <trkpt lat="42.2395" lon="2.16669">
        <ele>775.4</ele>
        <time>2022-05-22 00:55:38</time>
      </trkpt>
      <trkpt lat="42.23954" lon="2.16666">
        <ele>775.4</ele>
        <time>2022-05-22 00:55:39</time>
      </trkpt>
      <trkpt lat="42.23958" lon="2.16662">
        <ele>775.6</ele>
        <time>2022-05-22 00:55:40</time>
      </trkpt>
      <trkpt lat="42.23962" lon="2.1666">
        <ele>775.6</ele>
        <time>2022-05-22 00:55:41</time>
      </trkpt>
      <trkpt lat="42.23965" lon="2.16657">
        <ele>775.8</ele>
        <time>2022-05-22 00:55:42</time>
      </trkpt>
      <trkpt lat="42.23969" lon="2.16653">
        <ele>775.8</ele>
        <time>2022-05-22 00:55:43</time>
      </trkpt>
      <trkpt lat="42.23973" lon="2.1665">
        <ele>776</ele>
        <time>2022-05-22 00:55:44</time>
      </trkpt>
      <trkpt lat="42.23977" lon="2.16647">
        <ele>776</ele>
        <time>2022-05-22 00:55:45</time>
      </trkpt>
      <trkpt lat="42.23981" lon="2.16643">
        <ele>776.2</ele>
        <time>2022-05-22 00:55:46</time>
      </trkpt>
      <trkpt lat="42.23984" lon="2.1664">
        <ele>776.4</ele>
        <time>2022-05-22 00:55:47</time>
      </trkpt>
      <trkpt lat="42.23988" lon="2.16637">
        <ele>776.4</ele>
        <time>2022-05-22 00:55:48</time>
      </trkpt>
      <trkpt lat="42.23992" lon="2.16634">
        <ele>776.6</ele>
        <time>2022-05-22 00:55:49</time>
      </trkpt>
      <trkpt lat="42.23996" lon="2.16631">
        <ele>776.8</ele>
        <time>2022-05-22 00:55:50</time>
      </trkpt>
      <trkpt lat="42.24" lon="2.16627">
        <ele>776.8</ele>
        <time>2022-05-22 00:55:51</time>
      </trkpt>
      <trkpt lat="42.24004" lon="2.16624">
        <ele>777</ele>
        <time>2022-05-22 00:55:52</time>
      </trkpt>
      <trkpt lat="42.24008" lon="2.1662">
        <ele>777.2</ele>
        <time>2022-05-22 00:55:53</time>
      </trkpt>
      <trkpt lat="42.24012" lon="2.16617">
        <ele>777.2</ele>
        <time>2022-05-22 00:55:54</time>
      </trkpt>
      <trkpt lat="42.24016" lon="2.16614">
        <ele>777.4</ele>
        <time>2022-05-22 00:55:55</time>
      </trkpt>
      <trkpt lat="42.2402" lon="2.1661">
        <ele>777.6</ele>
        <time>2022-05-22 00:55:56</time>
      </trkpt>
      <trkpt lat="42.24024" lon="2.16607">
        <ele>777.6</ele>
        <time>2022-05-22 00:55:57</time>
      </trkpt>
      <trkpt lat="42.24028" lon="2.16604">
        <ele>777.8</ele>
        <time>2022-05-22 00:55:58</time>
      </trkpt>
      <trkpt lat="42.24032" lon="2.166">
        <ele>778</ele>
        <time>2022-05-22 00:55:59</time>
      </trkpt>
      <trkpt lat="42.24035" lon="2.16597">
        <ele>778</ele>
        <time>2022-05-22 00:56:00</time>
      </trkpt>
      <trkpt lat="42.24039" lon="2.16594">
        <ele>778.2</ele>
        <time>2022-05-22 00:56:01</time>
      </trkpt>
      <trkpt lat="42.24042" lon="2.16591">
        <ele>778.2</ele>
        <time>2022-05-22 00:56:02</time>
      </trkpt>
      <trkpt lat="42.24046" lon="2.16587">
        <ele>778.2</ele>
        <time>2022-05-22 00:56:03</time>
      </trkpt>
      <trkpt lat="42.24049" lon="2.16584">
        <ele>778.4</ele>
        <time>2022-05-22 00:56:04</time>
      </trkpt>
      <trkpt lat="42.24053" lon="2.1658">
        <ele>778.4</ele>
        <time>2022-05-22 00:56:05</time>
      </trkpt>
      <trkpt lat="42.24056" lon="2.16576">
        <ele>778.6</ele>
        <time>2022-05-22 00:56:06</time>
      </trkpt>
      <trkpt lat="42.2406" lon="2.16573">
        <ele>778.6</ele>
        <time>2022-05-22 00:56:07</time>
      </trkpt>
      <trkpt lat="42.24063" lon="2.16569">
        <ele>778.6</ele>
        <time>2022-05-22 00:56:08</time>
      </trkpt>
      <trkpt lat="42.24067" lon="2.16566">
        <ele>778.8</ele>
        <time>2022-05-22 00:56:09</time>
      </trkpt>
      <trkpt lat="42.24071" lon="2.16563">
        <ele>778.8</ele>
        <time>2022-05-22 00:56:10</time>
      </trkpt>
      <trkpt lat="42.24075" lon="2.1656">
        <ele>778.8</ele>
        <time>2022-05-22 00:56:11</time>
      </trkpt>
      <trkpt lat="42.24079" lon="2.16556">
        <ele>778.8</ele>
        <time>2022-05-22 00:56:12</time>
      </trkpt>
      <trkpt lat="42.24083" lon="2.16553">
        <ele>778.8</ele>
        <time>2022-05-22 00:56:13</time>
      </trkpt>
      <trkpt lat="42.24086" lon="2.1655">
        <ele>778.8</ele>
        <time>2022-05-22 00:56:14</time>
      </trkpt>
      <trkpt lat="42.2409" lon="2.16547">
        <ele>779</ele>
        <time>2022-05-22 00:56:15</time>
      </trkpt>
      <trkpt lat="42.24094" lon="2.16543">
        <ele>779</ele>
        <time>2022-05-22 00:56:16</time>
      </trkpt>
      <trkpt lat="42.24097" lon="2.1654">
        <ele>779.2</ele>
        <time>2022-05-22 00:56:17</time>
      </trkpt>
      <trkpt lat="42.24101" lon="2.16537">
        <ele>779.2</ele>
        <time>2022-05-22 00:56:18</time>
      </trkpt>
      <trkpt lat="42.24105" lon="2.16533">
        <ele>779.4</ele>
        <time>2022-05-22 00:56:19</time>
      </trkpt>
      <trkpt lat="42.24109" lon="2.1653">
        <ele>779.4</ele>
        <time>2022-05-22 00:56:20</time>
      </trkpt>
      <trkpt lat="42.24112" lon="2.16527">
        <ele>779.6</ele>
        <time>2022-05-22 00:56:21</time>
      </trkpt>
      <trkpt lat="42.24116" lon="2.16524">
        <ele>779.6</ele>
        <time>2022-05-22 00:56:22</time>
      </trkpt>
      <trkpt lat="42.2412" lon="2.1652">
        <ele>779.8</ele>
        <time>2022-05-22 00:56:23</time>
      </trkpt>
      <trkpt lat="42.24123" lon="2.16517">
        <ele>779.8</ele>
        <time>2022-05-22 00:56:24</time>
      </trkpt>
      <trkpt lat="42.24127" lon="2.16514">
        <ele>779.8</ele>
        <time>2022-05-22 00:56:25</time>
      </trkpt>
      <trkpt lat="42.2413" lon="2.1651">
        <ele>780</ele>
        <time>2022-05-22 00:56:26</time>
      </trkpt>
      <trkpt lat="42.24134" lon="2.16507">
        <ele>780</ele>
        <time>2022-05-22 00:56:27</time>
      </trkpt>
      <trkpt lat="42.24138" lon="2.16503">
        <ele>780</ele>
        <time>2022-05-22 00:56:28</time>
      </trkpt>
      <trkpt lat="42.24141" lon="2.165">
        <ele>780</ele>
        <time>2022-05-22 00:56:29</time>
      </trkpt>
      <trkpt lat="42.24145" lon="2.16497">
        <ele>780.2</ele>
        <time>2022-05-22 00:56:30</time>
      </trkpt>
      <trkpt lat="42.24148" lon="2.16494">
        <ele>780.2</ele>
        <time>2022-05-22 00:56:31</time>
      </trkpt>
      <trkpt lat="42.24152" lon="2.1649">
        <ele>780.2</ele>
        <time>2022-05-22 00:56:32</time>
      </trkpt>
      <trkpt lat="42.24156" lon="2.16487">
        <ele>780.4</ele>
        <time>2022-05-22 00:56:33</time>
      </trkpt>
      <trkpt lat="42.24159" lon="2.16484">
        <ele>780.4</ele>
        <time>2022-05-22 00:56:34</time>
      </trkpt>
      <trkpt lat="42.24163" lon="2.16481">
        <ele>780.4</ele>
        <time>2022-05-22 00:56:35</time>
      </trkpt>
      <trkpt lat="42.24167" lon="2.16478">
        <ele>780.4</ele>
        <time>2022-05-22 00:56:36</time>
      </trkpt>
      <trkpt lat="42.24171" lon="2.16475">
        <ele>780.4</ele>
        <time>2022-05-22 00:56:37</time>
      </trkpt>
      <trkpt lat="42.24176" lon="2.16472">
        <ele>780.2</ele>
        <time>2022-05-22 00:56:38</time>
      </trkpt>
      <trkpt lat="42.2418" lon="2.16469">
        <ele>780.2</ele>
        <time>2022-05-22 00:56:39</time>
      </trkpt>
      <trkpt lat="42.24185" lon="2.16467">
        <ele>780.2</ele>
        <time>2022-05-22 00:56:40</time>
      </trkpt>
      <trkpt lat="42.24189" lon="2.16465">
        <ele>780.2</ele>
        <time>2022-05-22 00:56:41</time>
      </trkpt>
      <trkpt lat="42.24194" lon="2.16464">
        <ele>780.2</ele>
        <time>2022-05-22 00:56:42</time>
      </trkpt>
      <trkpt lat="42.24199" lon="2.16463">
        <ele>780.2</ele>
        <time>2022-05-22 00:56:43</time>
      </trkpt>
      <trkpt lat="42.24204" lon="2.16462">
        <ele>780.2</ele>
        <time>2022-05-22 00:56:44</time>
      </trkpt>
      <trkpt lat="42.24209" lon="2.16462">
        <ele>780.2</ele>
        <time>2022-05-22 00:56:45</time>
      </trkpt>
      <trkpt lat="42.24214" lon="2.16463">
        <ele>780.2</ele>
        <time>2022-05-22 00:56:46</time>
      </trkpt>
      <trkpt lat="42.24219" lon="2.16463">
        <ele>780.2</ele>
        <time>2022-05-22 00:56:47</time>
      </trkpt>
      <trkpt lat="42.24224" lon="2.16465">
        <ele>780.2</ele>
        <time>2022-05-22 00:56:48</time>
      </trkpt>
      <trkpt lat="42.24229" lon="2.16466">
        <ele>780.2</ele>
        <time>2022-05-22 00:56:49</time>
      </trkpt>
      <trkpt lat="42.24233" lon="2.16467">
        <ele>780.4</ele>
        <time>2022-05-22 00:56:50</time>
      </trkpt>
      <trkpt lat="42.24238" lon="2.16469">
        <ele>780.4</ele>
        <time>2022-05-22 00:56:51</time>
      </trkpt>
      <trkpt lat="42.24242" lon="2.1647">
        <ele>780.4</ele>
        <time>2022-05-22 00:56:52</time>
      </trkpt>
      <trkpt lat="42.24247" lon="2.16472">
        <ele>780.4</ele>
        <time>2022-05-22 00:56:53</time>
      </trkpt>
      <trkpt lat="42.24252" lon="2.16474">
        <ele>780.4</ele>
        <time>2022-05-22 00:56:54</time>
      </trkpt>
      <trkpt lat="42.24257" lon="2.16476">
        <ele>780.4</ele>
        <time>2022-05-22 00:56:55</time>
      </trkpt>
      <trkpt lat="42.24262" lon="2.16478">
        <ele>780.4</ele>
        <time>2022-05-22 00:56:56</time>
      </trkpt>
      <trkpt lat="42.24267" lon="2.16479">
        <ele>780.4</ele>
        <time>2022-05-22 00:56:57</time>
      </trkpt>
      <trkpt lat="42.24272" lon="2.16481">
        <ele>780.4</ele>
        <time>2022-05-22 00:56:58</time>
      </trkpt>
      <trkpt lat="42.24276" lon="2.16483">
        <ele>780.4</ele>
        <time>2022-05-22 00:56:59</time>
      </trkpt>
      <trkpt lat="42.24278" lon="2.16484">
        <ele>780.4</ele>
        <time>2022-05-22 00:57:00</time>
      </trkpt>
      <trkpt lat="42.24283" lon="2.16486">
        <ele>780.2</ele>
        <time>2022-05-22 00:57:01</time>
      </trkpt>
      <trkpt lat="42.24291" lon="2.16488">
        <ele>780.2</ele>
        <time>2022-05-22 00:57:02</time>
      </trkpt>
      <trkpt lat="42.24295" lon="2.1649">
        <ele>780.2</ele>
        <time>2022-05-22 00:57:03</time>
      </trkpt>
      <trkpt lat="42.243" lon="2.16492">
        <ele>780.2</ele>
        <time>2022-05-22 00:57:04</time>
      </trkpt>
      <trkpt lat="42.24304" lon="2.16494">
        <ele>780</ele>
        <time>2022-05-22 00:57:05</time>
      </trkpt>
      <trkpt lat="42.24308" lon="2.16496">
        <ele>780</ele>
        <time>2022-05-22 00:57:06</time>
      </trkpt>
      <trkpt lat="42.24313" lon="2.16498">
        <ele>780</ele>
        <time>2022-05-22 00:57:07</time>
      </trkpt>
      <trkpt lat="42.24318" lon="2.16499">
        <ele>780</ele>
        <time>2022-05-22 00:57:08</time>
      </trkpt>
      <trkpt lat="42.24323" lon="2.16501">
        <ele>780</ele>
        <time>2022-05-22 00:57:09</time>
      </trkpt>
      <trkpt lat="42.24328" lon="2.16503">
        <ele>780</ele>
        <time>2022-05-22 00:57:10</time>
      </trkpt>
      <trkpt lat="42.24333" lon="2.16504">
        <ele>780.2</ele>
        <time>2022-05-22 00:57:11</time>
      </trkpt>
      <trkpt lat="42.24337" lon="2.16505">
        <ele>780.4</ele>
        <time>2022-05-22 00:57:12</time>
      </trkpt>
      <trkpt lat="42.24342" lon="2.16507">
        <ele>780.4</ele>
        <time>2022-05-22 00:57:13</time>
      </trkpt>
      <trkpt lat="42.24347" lon="2.16508">
        <ele>780.4</ele>
        <time>2022-05-22 00:57:14</time>
      </trkpt>
      <trkpt lat="42.24351" lon="2.1651">
        <ele>780.4</ele>
        <time>2022-05-22 00:57:15</time>
      </trkpt>
      <trkpt lat="42.24356" lon="2.16511">
        <ele>780.4</ele>
        <time>2022-05-22 00:57:16</time>
      </trkpt>
      <trkpt lat="42.24361" lon="2.16512">
        <ele>780.6</ele>
        <time>2022-05-22 00:57:17</time>
      </trkpt>
      <trkpt lat="42.24366" lon="2.16513">
        <ele>780.6</ele>
        <time>2022-05-22 00:57:18</time>
      </trkpt>
      <trkpt lat="42.24371" lon="2.16513">
        <ele>780.6</ele>
        <time>2022-05-22 00:57:19</time>
      </trkpt>
      <trkpt lat="42.24376" lon="2.16513">
        <ele>780.6</ele>
        <time>2022-05-22 00:57:20</time>
      </trkpt>
      <trkpt lat="42.24381" lon="2.16513">
        <ele>780.6</ele>
        <time>2022-05-22 00:57:21</time>
      </trkpt>
      <trkpt lat="42.24385" lon="2.16513">
        <ele>780.6</ele>
        <time>2022-05-22 00:57:22</time>
      </trkpt>
      <trkpt lat="42.24391" lon="2.16514">
        <ele>780.8</ele>
        <time>2022-05-22 00:57:23</time>
      </trkpt>
      <trkpt lat="42.24396" lon="2.16514">
        <ele>780.8</ele>
        <time>2022-05-22 00:57:24</time>
      </trkpt>
      <trkpt lat="42.24401" lon="2.16514">
        <ele>781</ele>
        <time>2022-05-22 00:57:25</time>
      </trkpt>
      <trkpt lat="42.24406" lon="2.16513">
        <ele>781.2</ele>
        <time>2022-05-22 00:57:26</time>
      </trkpt>
      <trkpt lat="42.24411" lon="2.16512">
        <ele>781.2</ele>
        <time>2022-05-22 00:57:27</time>
      </trkpt>
      <trkpt lat="42.24416" lon="2.16511">
        <ele>781.2</ele>
        <time>2022-05-22 00:57:28</time>
      </trkpt>
      <trkpt lat="42.24421" lon="2.1651">
        <ele>781.2</ele>
        <time>2022-05-22 00:57:29</time>
      </trkpt>
      <trkpt lat="42.24425" lon="2.16509">
        <ele>781.2</ele>
        <time>2022-05-22 00:57:30</time>
      </trkpt>
      <trkpt lat="42.2443" lon="2.16507">
        <ele>781.4</ele>
        <time>2022-05-22 00:57:31</time>
      </trkpt>
      <trkpt lat="42.24435" lon="2.16506">
        <ele>781.4</ele>
        <time>2022-05-22 00:57:32</time>
      </trkpt>
      <trkpt lat="42.24439" lon="2.16504">
        <ele>781.4</ele>
        <time>2022-05-22 00:57:33</time>
      </trkpt>
      <trkpt lat="42.24443" lon="2.16503">
        <ele>781.6</ele>
        <time>2022-05-22 00:57:34</time>
      </trkpt>
      <trkpt lat="42.24447" lon="2.16501">
        <ele>781.8</ele>
        <time>2022-05-22 00:57:35</time>
      </trkpt>
      <trkpt lat="42.24451" lon="2.165">
        <ele>782</ele>
        <time>2022-05-22 00:57:36</time>
      </trkpt>
      <trkpt lat="42.24456" lon="2.16499">
        <ele>782</ele>
        <time>2022-05-22 00:57:37</time>
      </trkpt>
      <trkpt lat="42.2446" lon="2.16497">
        <ele>782</ele>
        <time>2022-05-22 00:57:38</time>
      </trkpt>
      <trkpt lat="42.24464" lon="2.16496">
        <ele>782.2</ele>
        <time>2022-05-22 00:57:39</time>
      </trkpt>
      <trkpt lat="42.24468" lon="2.16495">
        <ele>782.2</ele>
        <time>2022-05-22 00:57:40</time>
      </trkpt>
      <trkpt lat="42.24472" lon="2.16494">
        <ele>782.2</ele>
        <time>2022-05-22 00:57:41</time>
      </trkpt>
      <trkpt lat="42.24475" lon="2.16493">
        <ele>782.4</ele>
        <time>2022-05-22 00:57:42</time>
      </trkpt>
      <trkpt lat="42.24479" lon="2.16491">
        <ele>782.4</ele>
        <time>2022-05-22 00:57:43</time>
      </trkpt>
      <trkpt lat="42.24483" lon="2.1649">
        <ele>782.6</ele>
        <time>2022-05-22 00:57:44</time>
      </trkpt>
      <trkpt lat="42.24487" lon="2.16488">
        <ele>782.6</ele>
        <time>2022-05-22 00:57:45</time>
      </trkpt>
      <trkpt lat="42.24491" lon="2.16487">
        <ele>782.8</ele>
        <time>2022-05-22 00:57:46</time>
      </trkpt>
      <trkpt lat="42.24495" lon="2.16485">
        <ele>783</ele>
        <time>2022-05-22 00:57:47</time>
      </trkpt>
      <trkpt lat="42.24499" lon="2.16483">
        <ele>783</ele>
        <time>2022-05-22 00:57:48</time>
      </trkpt>
      <trkpt lat="42.24502" lon="2.16481">
        <ele>783.2</ele>
        <time>2022-05-22 00:57:49</time>
      </trkpt>
      <trkpt lat="42.24506" lon="2.1648">
        <ele>783.2</ele>
        <time>2022-05-22 00:57:50</time>
      </trkpt>
      <trkpt lat="42.24509" lon="2.16478">
        <ele>783.2</ele>
        <time>2022-05-22 00:57:51</time>
      </trkpt>
      <trkpt lat="42.24513" lon="2.16476">
        <ele>783.2</ele>
        <time>2022-05-22 00:57:52</time>
      </trkpt>
      <trkpt lat="42.24517" lon="2.16475">
        <ele>783.4</ele>
        <time>2022-05-22 00:57:53</time>
      </trkpt>
      <trkpt lat="42.2452" lon="2.16474">
        <ele>783.4</ele>
        <time>2022-05-22 00:57:54</time>
      </trkpt>
      <trkpt lat="42.24523" lon="2.16472">
        <ele>783.4</ele>
        <time>2022-05-22 00:57:55</time>
      </trkpt>
      <trkpt lat="42.24527" lon="2.16471">
        <ele>783.6</ele>
        <time>2022-05-22 00:57:56</time>
      </trkpt>
      <trkpt lat="42.2453" lon="2.1647">
        <ele>783.6</ele>
        <time>2022-05-22 00:57:57</time>
      </trkpt>
      <trkpt lat="42.24534" lon="2.16469">
        <ele>783.8</ele>
        <time>2022-05-22 00:57:58</time>
      </trkpt>
      <trkpt lat="42.24538" lon="2.16467">
        <ele>783.8</ele>
        <time>2022-05-22 00:57:59</time>
      </trkpt>
      <trkpt lat="42.24541" lon="2.16466">
        <ele>784</ele>
        <time>2022-05-22 00:58:00</time>
      </trkpt>
      <trkpt lat="42.24545" lon="2.16465">
        <ele>784</ele>
        <time>2022-05-22 00:58:01</time>
      </trkpt>
      <trkpt lat="42.24548" lon="2.16464">
        <ele>784.2</ele>
        <time>2022-05-22 00:58:02</time>
      </trkpt>
      <trkpt lat="42.24552" lon="2.16462">
        <ele>784.2</ele>
        <time>2022-05-22 00:58:03</time>
      </trkpt>
      <trkpt lat="42.24555" lon="2.16461">
        <ele>784.4</ele>
        <time>2022-05-22 00:58:04</time>
      </trkpt>
      <trkpt lat="42.24559" lon="2.1646">
        <ele>784.2</ele>
        <time>2022-05-22 00:58:05</time>
      </trkpt>
      <trkpt lat="42.24562" lon="2.16458">
        <ele>784.2</ele>
        <time>2022-05-22 00:58:06</time>
      </trkpt>
      <trkpt lat="42.24566" lon="2.16457">
        <ele>784.4</ele>
        <time>2022-05-22 00:58:07</time>
      </trkpt>
      <trkpt lat="42.24569" lon="2.16456">
        <ele>784.4</ele>
        <time>2022-05-22 00:58:08</time>
      </trkpt>
      <trkpt lat="42.24573" lon="2.16455">
        <ele>784.4</ele>
        <time>2022-05-22 00:58:09</time>
      </trkpt>
      <trkpt lat="42.24576" lon="2.16454">
        <ele>784.6</ele>
        <time>2022-05-22 00:58:10</time>
      </trkpt>
      <trkpt lat="42.24579" lon="2.16452">
        <ele>784.6</ele>
        <time>2022-05-22 00:58:11</time>
      </trkpt>
      <trkpt lat="42.24583" lon="2.16451">
        <ele>784.8</ele>
        <time>2022-05-22 00:58:12</time>
      </trkpt>
      <trkpt lat="42.24586" lon="2.1645">
        <ele>784.8</ele>
        <time>2022-05-22 00:58:13</time>
      </trkpt>
      <trkpt lat="42.2459" lon="2.16448">
        <ele>785</ele>
        <time>2022-05-22 00:58:14</time>
      </trkpt>
      <trkpt lat="42.24593" lon="2.16447">
        <ele>785.2</ele>
        <time>2022-05-22 00:58:15</time>
      </trkpt>
      <trkpt lat="42.24597" lon="2.16446">
        <ele>785.4</ele>
        <time>2022-05-22 00:58:16</time>
      </trkpt>
      <trkpt lat="42.246" lon="2.16445">
        <ele>785.4</ele>
        <time>2022-05-22 00:58:17</time>
      </trkpt>
      <trkpt lat="42.24604" lon="2.16443">
        <ele>785.6</ele>
        <time>2022-05-22 00:58:18</time>
      </trkpt>
      <trkpt lat="42.24608" lon="2.16442">
        <ele>785.6</ele>
        <time>2022-05-22 00:58:19</time>
      </trkpt>
      <trkpt lat="42.24611" lon="2.16441">
        <ele>785.6</ele>
        <time>2022-05-22 00:58:20</time>
      </trkpt>
      <trkpt lat="42.24614" lon="2.1644">
        <ele>785.6</ele>
        <time>2022-05-22 00:58:21</time>
      </trkpt>
      <trkpt lat="42.24618" lon="2.16439">
        <ele>785.6</ele>
        <time>2022-05-22 00:58:22</time>
      </trkpt>
      <trkpt lat="42.24621" lon="2.16437">
        <ele>785.8</ele>
        <time>2022-05-22 00:58:23</time>
      </trkpt>
      <trkpt lat="42.24625" lon="2.16436">
        <ele>786</ele>
        <time>2022-05-22 00:58:24</time>
      </trkpt>
      <trkpt lat="42.24628" lon="2.16435">
        <ele>786.2</ele>
        <time>2022-05-22 00:58:25</time>
      </trkpt>
      <trkpt lat="42.24632" lon="2.16433">
        <ele>786.2</ele>
        <time>2022-05-22 00:58:26</time>
      </trkpt>
      <trkpt lat="42.24636" lon="2.16432">
        <ele>786.4</ele>
        <time>2022-05-22 00:58:27</time>
      </trkpt>
      <trkpt lat="42.24639" lon="2.16431">
        <ele>786.6</ele>
        <time>2022-05-22 00:58:28</time>
      </trkpt>
      <trkpt lat="42.24643" lon="2.1643">
        <ele>786.8</ele>
        <time>2022-05-22 00:58:29</time>
      </trkpt>
      <trkpt lat="42.24647" lon="2.16429">
        <ele>786.8</ele>
        <time>2022-05-22 00:58:30</time>
      </trkpt>
      <trkpt lat="42.2465" lon="2.16428">
        <ele>787</ele>
        <time>2022-05-22 00:58:31</time>
      </trkpt>
      <trkpt lat="42.24654" lon="2.16426">
        <ele>787</ele>
        <time>2022-05-22 00:58:32</time>
      </trkpt>
      <trkpt lat="42.24658" lon="2.16425">
        <ele>787.2</ele>
        <time>2022-05-22 00:58:33</time>
      </trkpt>
      <trkpt lat="42.24661" lon="2.16424">
        <ele>787.2</ele>
        <time>2022-05-22 00:58:34</time>
      </trkpt>
      <trkpt lat="42.24665" lon="2.16422">
        <ele>787.2</ele>
        <time>2022-05-22 00:58:35</time>
      </trkpt>
      <trkpt lat="42.24669" lon="2.16421">
        <ele>787.4</ele>
        <time>2022-05-22 00:58:36</time>
      </trkpt>
      <trkpt lat="42.24672" lon="2.1642">
        <ele>787.6</ele>
        <time>2022-05-22 00:58:37</time>
      </trkpt>
      <trkpt lat="42.24676" lon="2.16419">
        <ele>787.6</ele>
        <time>2022-05-22 00:58:38</time>
      </trkpt>
      <trkpt lat="42.24679" lon="2.16417">
        <ele>787.8</ele>
        <time>2022-05-22 00:58:39</time>
      </trkpt>
      <trkpt lat="42.24683" lon="2.16416">
        <ele>788</ele>
        <time>2022-05-22 00:58:40</time>
      </trkpt>
      <trkpt lat="42.24687" lon="2.16415">
        <ele>788</ele>
        <time>2022-05-22 00:58:41</time>
      </trkpt>
      <trkpt lat="42.2469" lon="2.16414">
        <ele>788</ele>
        <time>2022-05-22 00:58:42</time>
      </trkpt>
      <trkpt lat="42.24694" lon="2.16413">
        <ele>788.2</ele>
        <time>2022-05-22 00:58:43</time>
      </trkpt>
      <trkpt lat="42.24697" lon="2.16412">
        <ele>788.2</ele>
        <time>2022-05-22 00:58:44</time>
      </trkpt>
      <trkpt lat="42.24701" lon="2.16411">
        <ele>788.2</ele>
        <time>2022-05-22 00:58:45</time>
      </trkpt>
      <trkpt lat="42.24704" lon="2.16409">
        <ele>788.2</ele>
        <time>2022-05-22 00:58:46</time>
      </trkpt>
      <trkpt lat="42.24707" lon="2.16408">
        <ele>788.4</ele>
        <time>2022-05-22 00:58:47</time>
      </trkpt>
      <trkpt lat="42.24711" lon="2.16407">
        <ele>788.4</ele>
        <time>2022-05-22 00:58:48</time>
      </trkpt>
      <trkpt lat="42.24715" lon="2.16406">
        <ele>788.6</ele>
        <time>2022-05-22 00:58:49</time>
      </trkpt>
      <trkpt lat="42.24718" lon="2.16404">
        <ele>788.6</ele>
        <time>2022-05-22 00:58:50</time>
      </trkpt>
      <trkpt lat="42.24722" lon="2.16403">
        <ele>788.8</ele>
        <time>2022-05-22 00:58:51</time>
      </trkpt>
      <trkpt lat="42.24725" lon="2.16402">
        <ele>789</ele>
        <time>2022-05-22 00:58:52</time>
      </trkpt>
      <trkpt lat="42.24729" lon="2.16402">
        <ele>789</ele>
        <time>2022-05-22 00:58:53</time>
      </trkpt>
      <trkpt lat="42.24732" lon="2.16402">
        <ele>789</ele>
        <time>2022-05-22 00:58:54</time>
      </trkpt>
      <trkpt lat="42.24736" lon="2.16402">
        <ele>789.2</ele>
        <time>2022-05-22 00:58:55</time>
      </trkpt>
      <trkpt lat="42.2474" lon="2.16402">
        <ele>789</ele>
        <time>2022-05-22 00:58:56</time>
      </trkpt>
      <trkpt lat="42.24744" lon="2.16402">
        <ele>789</ele>
        <time>2022-05-22 00:58:57</time>
      </trkpt>
      <trkpt lat="42.24747" lon="2.16402">
        <ele>789.2</ele>
        <time>2022-05-22 00:58:58</time>
      </trkpt>
      <trkpt lat="42.24751" lon="2.16402">
        <ele>789.2</ele>
        <time>2022-05-22 00:58:59</time>
      </trkpt>
      <trkpt lat="42.24754" lon="2.16403">
        <ele>789.2</ele>
        <time>2022-05-22 00:59:00</time>
      </trkpt>
      <trkpt lat="42.24757" lon="2.16404">
        <ele>789.2</ele>
        <time>2022-05-22 00:59:01</time>
      </trkpt>
      <trkpt lat="42.2476" lon="2.16405">
        <ele>789.4</ele>
        <time>2022-05-22 00:59:02</time>
      </trkpt>
      <trkpt lat="42.24763" lon="2.16406">
        <ele>789.4</ele>
        <time>2022-05-22 00:59:03</time>
      </trkpt>
      <trkpt lat="42.24766" lon="2.16407">
        <ele>789.6</ele>
        <time>2022-05-22 00:59:04</time>
      </trkpt>
      <trkpt lat="42.24769" lon="2.16409">
        <ele>790</ele>
        <time>2022-05-22 00:59:05</time>
      </trkpt>
      <trkpt lat="42.24772" lon="2.1641">
        <ele>790.2</ele>
        <time>2022-05-22 00:59:06</time>
      </trkpt>
      <trkpt lat="42.24775" lon="2.16412">
        <ele>790.4</ele>
        <time>2022-05-22 00:59:07</time>
      </trkpt>
      <trkpt lat="42.24779" lon="2.16413">
        <ele>790.4</ele>
        <time>2022-05-22 00:59:08</time>
      </trkpt>
      <trkpt lat="42.24782" lon="2.16414">
        <ele>790.6</ele>
        <time>2022-05-22 00:59:09</time>
      </trkpt>
      <trkpt lat="42.24785" lon="2.16416">
        <ele>790.6</ele>
        <time>2022-05-22 00:59:10</time>
      </trkpt>
      <trkpt lat="42.24789" lon="2.16417">
        <ele>790.8</ele>
        <time>2022-05-22 00:59:11</time>
      </trkpt>
      <trkpt lat="42.24792" lon="2.16418">
        <ele>790.8</ele>
        <time>2022-05-22 00:59:12</time>
      </trkpt>
      <trkpt lat="42.24796" lon="2.1642">
        <ele>790.8</ele>
        <time>2022-05-22 00:59:13</time>
      </trkpt>
      <trkpt lat="42.24799" lon="2.16421">
        <ele>790.8</ele>
        <time>2022-05-22 00:59:14</time>
      </trkpt>
      <trkpt lat="42.24802" lon="2.16423">
        <ele>791</ele>
        <time>2022-05-22 00:59:15</time>
      </trkpt>
      <trkpt lat="42.24806" lon="2.16425">
        <ele>791</ele>
        <time>2022-05-22 00:59:16</time>
      </trkpt>
      <trkpt lat="42.2481" lon="2.16427">
        <ele>791</ele>
        <time>2022-05-22 00:59:17</time>
      </trkpt>
      <trkpt lat="42.24811" lon="2.16427">
        <ele>791</ele>
        <time>2022-05-22 00:59:18</time>
      </trkpt>
      <trkpt lat="42.24813" lon="2.16427">
        <ele>791</ele>
        <time>2022-05-22 00:59:19</time>
      </trkpt>
      <trkpt lat="42.24816" lon="2.16428">
        <ele>791</ele>
        <time>2022-05-22 00:59:20</time>
      </trkpt>
      <trkpt lat="42.24819" lon="2.16429">
        <ele>791.2</ele>
        <time>2022-05-22 00:59:21</time>
      </trkpt>
      <trkpt lat="42.24823" lon="2.16431">
        <ele>791.4</ele>
        <time>2022-05-22 00:59:22</time>
      </trkpt>
      <trkpt lat="42.24826" lon="2.16432">
        <ele>791.4</ele>
        <time>2022-05-22 00:59:23</time>
      </trkpt>
      <trkpt lat="42.24829" lon="2.16432">
        <ele>791.6</ele>
        <time>2022-05-22 00:59:24</time>
      </trkpt>
      <trkpt lat="42.24832" lon="2.16433">
        <ele>791.6</ele>
        <time>2022-05-22 00:59:25</time>
      </trkpt>
      <trkpt lat="42.24835" lon="2.16433">
        <ele>791.6</ele>
        <time>2022-05-22 00:59:26</time>
      </trkpt>
      <trkpt lat="42.24838" lon="2.16433">
        <ele>791.6</ele>
        <time>2022-05-22 00:59:27</time>
      </trkpt>
      <trkpt lat="42.24842" lon="2.16434">
        <ele>791.8</ele>
        <time>2022-05-22 00:59:28</time>
      </trkpt>
      <trkpt lat="42.24845" lon="2.16434">
        <ele>792</ele>
        <time>2022-05-22 00:59:29</time>
      </trkpt>
      <trkpt lat="42.24849" lon="2.16435">
        <ele>792</ele>
        <time>2022-05-22 00:59:30</time>
      </trkpt>
      <trkpt lat="42.24853" lon="2.16435">
        <ele>792.2</ele>
        <time>2022-05-22 00:59:31</time>
      </trkpt>
      <trkpt lat="42.24856" lon="2.16435">
        <ele>792.4</ele>
        <time>2022-05-22 00:59:32</time>
      </trkpt>
      <trkpt lat="42.2486" lon="2.16436">
        <ele>792.4</ele>
        <time>2022-05-22 00:59:33</time>
      </trkpt>
      <trkpt lat="42.24864" lon="2.16437">
        <ele>792.6</ele>
        <time>2022-05-22 00:59:34</time>
      </trkpt>
      <trkpt lat="42.24868" lon="2.16438">
        <ele>792.6</ele>
        <time>2022-05-22 00:59:35</time>
      </trkpt>
      <trkpt lat="42.24872" lon="2.16439">
        <ele>792.8</ele>
        <time>2022-05-22 00:59:36</time>
      </trkpt>
      <trkpt lat="42.24875" lon="2.1644">
        <ele>793</ele>
        <time>2022-05-22 00:59:37</time>
      </trkpt>
      <trkpt lat="42.24878" lon="2.16441">
        <ele>793</ele>
        <time>2022-05-22 00:59:38</time>
      </trkpt>
      <trkpt lat="42.24881" lon="2.16442">
        <ele>793</ele>
        <time>2022-05-22 00:59:39</time>
      </trkpt>
      <trkpt lat="42.24884" lon="2.16444">
        <ele>793.2</ele>
        <time>2022-05-22 00:59:40</time>
      </trkpt>
      <trkpt lat="42.24888" lon="2.16446">
        <ele>793.2</ele>
        <time>2022-05-22 00:59:41</time>
      </trkpt>
      <trkpt lat="42.2489" lon="2.16448">
        <ele>793.4</ele>
        <time>2022-05-22 00:59:42</time>
      </trkpt>
      <trkpt lat="42.24893" lon="2.1645">
        <ele>793.4</ele>
        <time>2022-05-22 00:59:43</time>
      </trkpt>
      <trkpt lat="42.24896" lon="2.16452">
        <ele>793.6</ele>
        <time>2022-05-22 00:59:44</time>
      </trkpt>
      <trkpt lat="42.24899" lon="2.16454">
        <ele>793.8</ele>
        <time>2022-05-22 00:59:45</time>
      </trkpt>
      <trkpt lat="42.24901" lon="2.16457">
        <ele>793.8</ele>
        <time>2022-05-22 00:59:46</time>
      </trkpt>
      <trkpt lat="42.24904" lon="2.16459">
        <ele>794</ele>
        <time>2022-05-22 00:59:47</time>
      </trkpt>
      <trkpt lat="42.24906" lon="2.16462">
        <ele>794.2</ele>
        <time>2022-05-22 00:59:48</time>
      </trkpt>
      <trkpt lat="42.24909" lon="2.16466">
        <ele>794.2</ele>
        <time>2022-05-22 00:59:49</time>
      </trkpt>
      <trkpt lat="42.24911" lon="2.16469">
        <ele>794.2</ele>
        <time>2022-05-22 00:59:50</time>
      </trkpt>
      <trkpt lat="42.24913" lon="2.16473">
        <ele>794.2</ele>
        <time>2022-05-22 00:59:51</time>
      </trkpt>
      <trkpt lat="42.24916" lon="2.16477">
        <ele>794.2</ele>
        <time>2022-05-22 00:59:52</time>
      </trkpt>
      <trkpt lat="42.24918" lon="2.1648">
        <ele>794.2</ele>
        <time>2022-05-22 00:59:53</time>
      </trkpt>
      <trkpt lat="42.2492" lon="2.16484">
        <ele>794.2</ele>
        <time>2022-05-22 00:59:54</time>
      </trkpt>
      <trkpt lat="42.24922" lon="2.16487">
        <ele>794.2</ele>
        <time>2022-05-22 00:59:55</time>
      </trkpt>
      <trkpt lat="42.24924" lon="2.16491">
        <ele>794.2</ele>
        <time>2022-05-22 00:59:56</time>
      </trkpt>
      <trkpt lat="42.24926" lon="2.16495">
        <ele>794.2</ele>
        <time>2022-05-22 00:59:57</time>
      </trkpt>
      <trkpt lat="42.24928" lon="2.165">
        <ele>794.2</ele>
        <time>2022-05-22 00:59:58</time>
      </trkpt>
      <trkpt lat="42.2493" lon="2.16504">
        <ele>794.2</ele>
        <time>2022-05-22 00:59:59</time>
      </trkpt>
      <trkpt lat="42.24932" lon="2.16508">
        <ele>794</ele>
        <time>2022-05-22 01:00:00</time>
      </trkpt>
      <trkpt lat="42.24934" lon="2.16512">
        <ele>794</ele>
        <time>2022-05-22 01:00:01</time>
      </trkpt>
      <trkpt lat="42.24936" lon="2.16516">
        <ele>794</ele>
        <time>2022-05-22 01:00:02</time>
      </trkpt>
      <trkpt lat="42.24938" lon="2.16521">
        <ele>794</ele>
        <time>2022-05-22 01:00:03</time>
      </trkpt>
      <trkpt lat="42.2494" lon="2.16525">
        <ele>794.2</ele>
        <time>2022-05-22 01:00:04</time>
      </trkpt>
      <trkpt lat="42.24943" lon="2.16529">
        <ele>794.2</ele>
        <time>2022-05-22 01:00:05</time>
      </trkpt>
      <trkpt lat="42.24946" lon="2.16534">
        <ele>794.2</ele>
        <time>2022-05-22 01:00:06</time>
      </trkpt>
      <trkpt lat="42.24948" lon="2.16538">
        <ele>794.4</ele>
        <time>2022-05-22 01:00:07</time>
      </trkpt>
      <trkpt lat="42.24951" lon="2.16542">
        <ele>794.4</ele>
        <time>2022-05-22 01:00:08</time>
      </trkpt>
      <trkpt lat="42.24954" lon="2.16546">
        <ele>794.4</ele>
        <time>2022-05-22 01:00:09</time>
      </trkpt>
      <trkpt lat="42.24958" lon="2.16551">
        <ele>794.4</ele>
        <time>2022-05-22 01:00:10</time>
      </trkpt>
      <trkpt lat="42.24962" lon="2.16554">
        <ele>794.4</ele>
        <time>2022-05-22 01:00:11</time>
      </trkpt>
      <trkpt lat="42.24966" lon="2.16558">
        <ele>794.4</ele>
        <time>2022-05-22 01:00:12</time>
      </trkpt>
      <trkpt lat="42.2497" lon="2.16561">
        <ele>794.2</ele>
        <time>2022-05-22 01:00:13</time>
      </trkpt>
      <trkpt lat="42.24974" lon="2.16564">
        <ele>794.2</ele>
        <time>2022-05-22 01:00:14</time>
      </trkpt>
      <trkpt lat="42.24979" lon="2.16568">
        <ele>794.2</ele>
        <time>2022-05-22 01:00:15</time>
      </trkpt>
      <trkpt lat="42.24984" lon="2.1657">
        <ele>794.2</ele>
        <time>2022-05-22 01:00:16</time>
      </trkpt>
      <trkpt lat="42.24989" lon="2.16573">
        <ele>794.2</ele>
        <time>2022-05-22 01:00:17</time>
      </trkpt>
      <trkpt lat="42.24994" lon="2.16576">
        <ele>794</ele>
        <time>2022-05-22 01:00:18</time>
      </trkpt>
      <trkpt lat="42.24999" lon="2.16578">
        <ele>794</ele>
        <time>2022-05-22 01:00:19</time>
      </trkpt>
      <trkpt lat="42.25005" lon="2.1658">
        <ele>794</ele>
        <time>2022-05-22 01:00:20</time>
      </trkpt>
      <trkpt lat="42.25009" lon="2.16582">
        <ele>794</ele>
        <time>2022-05-22 01:00:21</time>
      </trkpt>
      <trkpt lat="42.25014" lon="2.16583">
        <ele>794</ele>
        <time>2022-05-22 01:00:22</time>
      </trkpt>
      <trkpt lat="42.25019" lon="2.16585">
        <ele>794</ele>
        <time>2022-05-22 01:00:23</time>
      </trkpt>
      <trkpt lat="42.25024" lon="2.16585">
        <ele>793.8</ele>
        <time>2022-05-22 01:00:24</time>
      </trkpt>
      <trkpt lat="42.25029" lon="2.16586">
        <ele>794</ele>
        <time>2022-05-22 01:00:25</time>
      </trkpt>
      <trkpt lat="42.25034" lon="2.16586">
        <ele>794</ele>
        <time>2022-05-22 01:00:26</time>
      </trkpt>
      <trkpt lat="42.25039" lon="2.16586">
        <ele>794</ele>
        <time>2022-05-22 01:00:27</time>
      </trkpt>
      <trkpt lat="42.25044" lon="2.16585">
        <ele>794</ele>
        <time>2022-05-22 01:00:28</time>
      </trkpt>
      <trkpt lat="42.25049" lon="2.16584">
        <ele>794</ele>
        <time>2022-05-22 01:00:29</time>
      </trkpt>
      <trkpt lat="42.25054" lon="2.16582">
        <ele>794.2</ele>
        <time>2022-05-22 01:00:30</time>
      </trkpt>
      <trkpt lat="42.25058" lon="2.16581">
        <ele>794.2</ele>
        <time>2022-05-22 01:00:31</time>
      </trkpt>
      <trkpt lat="42.25062" lon="2.16579">
        <ele>794.2</ele>
        <time>2022-05-22 01:00:32</time>
      </trkpt>
      <trkpt lat="42.25067" lon="2.16577">
        <ele>794.4</ele>
        <time>2022-05-22 01:00:33</time>
      </trkpt>
      <trkpt lat="42.25071" lon="2.16574">
        <ele>794.4</ele>
        <time>2022-05-22 01:00:34</time>
      </trkpt>
      <trkpt lat="42.25075" lon="2.16571">
        <ele>794.4</ele>
        <time>2022-05-22 01:00:35</time>
      </trkpt>
      <trkpt lat="42.25079" lon="2.16568">
        <ele>794.6</ele>
        <time>2022-05-22 01:00:36</time>
      </trkpt>
      <trkpt lat="42.25083" lon="2.16565">
        <ele>794.6</ele>
        <time>2022-05-22 01:00:37</time>
      </trkpt>
      <trkpt lat="42.25086" lon="2.16561">
        <ele>794.6</ele>
        <time>2022-05-22 01:00:38</time>
      </trkpt>
      <trkpt lat="42.2509" lon="2.16557">
        <ele>794.8</ele>
        <time>2022-05-22 01:00:39</time>
      </trkpt>
      <trkpt lat="42.25093" lon="2.16553">
        <ele>794.8</ele>
        <time>2022-05-22 01:00:40</time>
      </trkpt>
      <trkpt lat="42.25096" lon="2.16549">
        <ele>794.8</ele>
        <time>2022-05-22 01:00:41</time>
      </trkpt>
      <trkpt lat="42.251" lon="2.16545">
        <ele>794.8</ele>
        <time>2022-05-22 01:00:42</time>
      </trkpt>
      <trkpt lat="42.25103" lon="2.16541">
        <ele>795</ele>
        <time>2022-05-22 01:00:43</time>
      </trkpt>
      <trkpt lat="42.25107" lon="2.16537">
        <ele>795</ele>
        <time>2022-05-22 01:00:44</time>
      </trkpt>
      <trkpt lat="42.2511" lon="2.16534">
        <ele>795</ele>
        <time>2022-05-22 01:00:45</time>
      </trkpt>
      <trkpt lat="42.25113" lon="2.1653">
        <ele>795</ele>
        <time>2022-05-22 01:00:46</time>
      </trkpt>
      <trkpt lat="42.25116" lon="2.16526">
        <ele>795</ele>
        <time>2022-05-22 01:00:47</time>
      </trkpt>
      <trkpt lat="42.25119" lon="2.16522">
        <ele>795.2</ele>
        <time>2022-05-22 01:00:48</time>
      </trkpt>
      <trkpt lat="42.25123" lon="2.16518">
        <ele>795.2</ele>
        <time>2022-05-22 01:00:49</time>
      </trkpt>
      <trkpt lat="42.25125" lon="2.16514">
        <ele>795.2</ele>
        <time>2022-05-22 01:00:50</time>
      </trkpt>
      <trkpt lat="42.25128" lon="2.1651">
        <ele>795.4</ele>
        <time>2022-05-22 01:00:51</time>
      </trkpt>
      <trkpt lat="42.25131" lon="2.16507">
        <ele>795.4</ele>
        <time>2022-05-22 01:00:52</time>
      </trkpt>
      <trkpt lat="42.25133" lon="2.16504">
        <ele>795.4</ele>
        <time>2022-05-22 01:00:53</time>
      </trkpt>
      <trkpt lat="42.25136" lon="2.165">
        <ele>795.6</ele>
        <time>2022-05-22 01:00:54</time>
      </trkpt>
      <trkpt lat="42.25139" lon="2.16496">
        <ele>795.6</ele>
        <time>2022-05-22 01:00:55</time>
      </trkpt>
      <trkpt lat="42.25141" lon="2.16492">
        <ele>795.6</ele>
        <time>2022-05-22 01:00:56</time>
      </trkpt>
      <trkpt lat="42.25144" lon="2.16489">
        <ele>795.8</ele>
        <time>2022-05-22 01:00:57</time>
      </trkpt>
      <trkpt lat="42.25147" lon="2.16485">
        <ele>795.8</ele>
        <time>2022-05-22 01:00:58</time>
      </trkpt>
      <trkpt lat="42.2515" lon="2.16482">
        <ele>795.8</ele>
        <time>2022-05-22 01:00:59</time>
      </trkpt>
      <trkpt lat="42.25153" lon="2.16478">
        <ele>796</ele>
        <time>2022-05-22 01:01:00</time>
      </trkpt>
      <trkpt lat="42.25156" lon="2.16474">
        <ele>796</ele>
        <time>2022-05-22 01:01:01</time>
      </trkpt>
      <trkpt lat="42.25158" lon="2.16469">
        <ele>796.2</ele>
        <time>2022-05-22 01:01:02</time>
      </trkpt>
      <trkpt lat="42.25161" lon="2.16463">
        <ele>796.2</ele>
        <time>2022-05-22 01:01:03</time>
      </trkpt>
      <trkpt lat="42.25164" lon="2.16458">
        <ele>796.2</ele>
        <time>2022-05-22 01:01:04</time>
      </trkpt>
      <trkpt lat="42.25167" lon="2.16453">
        <ele>796.2</ele>
        <time>2022-05-22 01:01:05</time>
      </trkpt>
      <trkpt lat="42.2517" lon="2.16448">
        <ele>796.2</ele>
        <time>2022-05-22 01:01:06</time>
      </trkpt>
      <trkpt lat="42.25174" lon="2.16443">
        <ele>796.2</ele>
        <time>2022-05-22 01:01:07</time>
      </trkpt>
      <trkpt lat="42.25177" lon="2.16439">
        <ele>796.2</ele>
        <time>2022-05-22 01:01:08</time>
      </trkpt>
      <trkpt lat="42.25181" lon="2.16435">
        <ele>796.4</ele>
        <time>2022-05-22 01:01:09</time>
      </trkpt>
      <trkpt lat="42.25185" lon="2.16431">
        <ele>796.4</ele>
        <time>2022-05-22 01:01:10</time>
      </trkpt>
      <trkpt lat="42.25188" lon="2.16427">
        <ele>796.4</ele>
        <time>2022-05-22 01:01:11</time>
      </trkpt>
      <trkpt lat="42.25192" lon="2.16425">
        <ele>796.6</ele>
        <time>2022-05-22 01:01:12</time>
      </trkpt>
      <trkpt lat="42.25196" lon="2.16423">
        <ele>796.8</ele>
        <time>2022-05-22 01:01:13</time>
      </trkpt>
      <trkpt lat="42.252" lon="2.16421">
        <ele>796.8</ele>
        <time>2022-05-22 01:01:14</time>
      </trkpt>
      <trkpt lat="42.25204" lon="2.16419">
        <ele>797</ele>
        <time>2022-05-22 01:01:15</time>
      </trkpt>
      <trkpt lat="42.25208" lon="2.16417">
        <ele>797</ele>
        <time>2022-05-22 01:01:16</time>
      </trkpt>
      <trkpt lat="42.25212" lon="2.16416">
        <ele>797.2</ele>
        <time>2022-05-22 01:01:17</time>
      </trkpt>
      <trkpt lat="42.25216" lon="2.16415">
        <ele>797.4</ele>
        <time>2022-05-22 01:01:18</time>
      </trkpt>
      <trkpt lat="42.2522" lon="2.16415">
        <ele>797.4</ele>
        <time>2022-05-22 01:01:19</time>
      </trkpt>
      <trkpt lat="42.25224" lon="2.16415">
        <ele>797.4</ele>
        <time>2022-05-22 01:01:20</time>
      </trkpt>
      <trkpt lat="42.25228" lon="2.16415">
        <ele>797.6</ele>
        <time>2022-05-22 01:01:21</time>
      </trkpt>
      <trkpt lat="42.25231" lon="2.16415">
        <ele>797.6</ele>
        <time>2022-05-22 01:01:22</time>
      </trkpt>
      <trkpt lat="42.25235" lon="2.16416">
        <ele>797.6</ele>
        <time>2022-05-22 01:01:23</time>
      </trkpt>
      <trkpt lat="42.25238" lon="2.16417">
        <ele>797.8</ele>
        <time>2022-05-22 01:01:24</time>
      </trkpt>
      <trkpt lat="42.25241" lon="2.16418">
        <ele>797.8</ele>
        <time>2022-05-22 01:01:25</time>
      </trkpt>
      <trkpt lat="42.25244" lon="2.1642">
        <ele>797.8</ele>
        <time>2022-05-22 01:01:26</time>
      </trkpt>
      <trkpt lat="42.25248" lon="2.16422">
        <ele>798</ele>
        <time>2022-05-22 01:01:27</time>
      </trkpt>
      <trkpt lat="42.25252" lon="2.16424">
        <ele>798</ele>
        <time>2022-05-22 01:01:28</time>
      </trkpt>
      <trkpt lat="42.25255" lon="2.16427">
        <ele>798</ele>
        <time>2022-05-22 01:01:29</time>
      </trkpt>
      <trkpt lat="42.25258" lon="2.16429">
        <ele>798.2</ele>
        <time>2022-05-22 01:01:30</time>
      </trkpt>
      <trkpt lat="42.25261" lon="2.16431">
        <ele>798.2</ele>
        <time>2022-05-22 01:01:31</time>
      </trkpt>
      <trkpt lat="42.25264" lon="2.16434">
        <ele>798.2</ele>
        <time>2022-05-22 01:01:32</time>
      </trkpt>
      <trkpt lat="42.25266" lon="2.16437">
        <ele>798.4</ele>
        <time>2022-05-22 01:01:33</time>
      </trkpt>
      <trkpt lat="42.25269" lon="2.1644">
        <ele>798.6</ele>
        <time>2022-05-22 01:01:34</time>
      </trkpt>
      <trkpt lat="42.25272" lon="2.16443">
        <ele>798.6</ele>
        <time>2022-05-22 01:01:35</time>
      </trkpt>
      <trkpt lat="42.25274" lon="2.16447">
        <ele>798.6</ele>
        <time>2022-05-22 01:01:36</time>
      </trkpt>
      <trkpt lat="42.25277" lon="2.1645">
        <ele>798.8</ele>
        <time>2022-05-22 01:01:37</time>
      </trkpt>
      <trkpt lat="42.2528" lon="2.16453">
        <ele>798.8</ele>
        <time>2022-05-22 01:01:38</time>
      </trkpt>
      <trkpt lat="42.25282" lon="2.16456">
        <ele>798.8</ele>
        <time>2022-05-22 01:01:39</time>
      </trkpt>
      <trkpt lat="42.25285" lon="2.1646">
        <ele>799</ele>
        <time>2022-05-22 01:01:40</time>
      </trkpt>
      <trkpt lat="42.25288" lon="2.16463">
        <ele>799</ele>
        <time>2022-05-22 01:01:41</time>
      </trkpt>
      <trkpt lat="42.2529" lon="2.16467">
        <ele>799</ele>
        <time>2022-05-22 01:01:42</time>
      </trkpt>
      <trkpt lat="42.25293" lon="2.16471">
        <ele>799.2</ele>
        <time>2022-05-22 01:01:43</time>
      </trkpt>
      <trkpt lat="42.25296" lon="2.16474">
        <ele>799.2</ele>
        <time>2022-05-22 01:01:44</time>
      </trkpt>
      <trkpt lat="42.25299" lon="2.16477">
        <ele>799.2</ele>
        <time>2022-05-22 01:01:45</time>
      </trkpt>
      <trkpt lat="42.25302" lon="2.1648">
        <ele>799.2</ele>
        <time>2022-05-22 01:01:46</time>
      </trkpt>
      <trkpt lat="42.25304" lon="2.16483">
        <ele>799.2</ele>
        <time>2022-05-22 01:01:47</time>
      </trkpt>
      <trkpt lat="42.25306" lon="2.16486">
        <ele>799.4</ele>
        <time>2022-05-22 01:01:48</time>
      </trkpt>
      <trkpt lat="42.25309" lon="2.16489">
        <ele>799.4</ele>
        <time>2022-05-22 01:01:49</time>
      </trkpt>
      <trkpt lat="42.25311" lon="2.16493">
        <ele>799.4</ele>
        <time>2022-05-22 01:01:50</time>
      </trkpt>
      <trkpt lat="42.25313" lon="2.16496">
        <ele>799.4</ele>
        <time>2022-05-22 01:01:51</time>
      </trkpt>
      <trkpt lat="42.25317" lon="2.16499">
        <ele>799.6</ele>
        <time>2022-05-22 01:01:52</time>
      </trkpt>
      <trkpt lat="42.2532" lon="2.16502">
        <ele>799.6</ele>
        <time>2022-05-22 01:01:53</time>
      </trkpt>
      <trkpt lat="42.25324" lon="2.16504">
        <ele>799.6</ele>
        <time>2022-05-22 01:01:54</time>
      </trkpt>
      <trkpt lat="42.25327" lon="2.16506">
        <ele>799.8</ele>
        <time>2022-05-22 01:01:55</time>
      </trkpt>
      <trkpt lat="42.2533" lon="2.16509">
        <ele>799.8</ele>
        <time>2022-05-22 01:01:56</time>
      </trkpt>
      <trkpt lat="42.25334" lon="2.16511">
        <ele>800</ele>
        <time>2022-05-22 01:01:57</time>
      </trkpt>
      <trkpt lat="42.25337" lon="2.16513">
        <ele>800</ele>
        <time>2022-05-22 01:01:58</time>
      </trkpt>
      <trkpt lat="42.25341" lon="2.16515">
        <ele>800</ele>
        <time>2022-05-22 01:01:59</time>
      </trkpt>
      <trkpt lat="42.25344" lon="2.16517">
        <ele>800.2</ele>
        <time>2022-05-22 01:02:00</time>
      </trkpt>
      <trkpt lat="42.25348" lon="2.16519">
        <ele>800.2</ele>
        <time>2022-05-22 01:02:01</time>
      </trkpt>
      <trkpt lat="42.25351" lon="2.16521">
        <ele>800.4</ele>
        <time>2022-05-22 01:02:02</time>
      </trkpt>
      <trkpt lat="42.25354" lon="2.16522">
        <ele>800.4</ele>
        <time>2022-05-22 01:02:03</time>
      </trkpt>
      <trkpt lat="42.25356" lon="2.16523">
        <ele>800.4</ele>
        <time>2022-05-22 01:02:04</time>
      </trkpt>
      <trkpt lat="42.25357" lon="2.16524">
        <ele>800.4</ele>
        <time>2022-05-22 01:02:05</time>
      </trkpt>
      <trkpt lat="42.25359" lon="2.16525">
        <ele>800.6</ele>
        <time>2022-05-22 01:02:06</time>
      </trkpt>
      <trkpt lat="42.25365" lon="2.16528">
        <ele>800.6</ele>
        <time>2022-05-22 01:02:07</time>
      </trkpt>
      <trkpt lat="42.25368" lon="2.1653">
        <ele>800.6</ele>
        <time>2022-05-22 01:02:08</time>
      </trkpt>
      <trkpt lat="42.25371" lon="2.16532">
        <ele>800.8</ele>
        <time>2022-05-22 01:02:09</time>
      </trkpt>
      <trkpt lat="42.25373" lon="2.16533">
        <ele>801</ele>
        <time>2022-05-22 01:02:10</time>
      </trkpt>
      <trkpt lat="42.25376" lon="2.16534">
        <ele>801.2</ele>
        <time>2022-05-22 01:02:11</time>
      </trkpt>
      <trkpt lat="42.25378" lon="2.16535">
        <ele>801.2</ele>
        <time>2022-05-22 01:02:12</time>
      </trkpt>
      <trkpt lat="42.25382" lon="2.16536">
        <ele>801.4</ele>
        <time>2022-05-22 01:02:13</time>
      </trkpt>
      <trkpt lat="42.25384" lon="2.16537">
        <ele>801.4</ele>
        <time>2022-05-22 01:02:14</time>
      </trkpt>
      <trkpt lat="42.25387" lon="2.16539">
        <ele>801.6</ele>
        <time>2022-05-22 01:02:15</time>
      </trkpt>
      <trkpt lat="42.2539" lon="2.1654">
        <ele>801.6</ele>
        <time>2022-05-22 01:02:16</time>
      </trkpt>
      <trkpt lat="42.25394" lon="2.16541">
        <ele>801.8</ele>
        <time>2022-05-22 01:02:17</time>
      </trkpt>
      <trkpt lat="42.25397" lon="2.16543">
        <ele>801.8</ele>
        <time>2022-05-22 01:02:18</time>
      </trkpt>
      <trkpt lat="42.254" lon="2.16545">
        <ele>802</ele>
        <time>2022-05-22 01:02:19</time>
      </trkpt>
      <trkpt lat="42.25404" lon="2.16547">
        <ele>802</ele>
        <time>2022-05-22 01:02:20</time>
      </trkpt>
      <trkpt lat="42.25407" lon="2.16548">
        <ele>802.2</ele>
        <time>2022-05-22 01:02:21</time>
      </trkpt>
      <trkpt lat="42.25411" lon="2.16549">
        <ele>802.2</ele>
        <time>2022-05-22 01:02:22</time>
      </trkpt>
      <trkpt lat="42.25414" lon="2.16549">
        <ele>802.4</ele>
        <time>2022-05-22 01:02:23</time>
      </trkpt>
      <trkpt lat="42.25418" lon="2.1655">
        <ele>802.6</ele>
        <time>2022-05-22 01:02:24</time>
      </trkpt>
      <trkpt lat="42.25421" lon="2.16551">
        <ele>802.8</ele>
        <time>2022-05-22 01:02:25</time>
      </trkpt>
      <trkpt lat="42.25424" lon="2.16551">
        <ele>802.8</ele>
        <time>2022-05-22 01:02:26</time>
      </trkpt>
      <trkpt lat="42.25427" lon="2.16552">
        <ele>803</ele>
        <time>2022-05-22 01:02:27</time>
      </trkpt>
      <trkpt lat="42.2543" lon="2.16553">
        <ele>803.2</ele>
        <time>2022-05-22 01:02:28</time>
      </trkpt>
      <trkpt lat="42.25434" lon="2.16553">
        <ele>803.4</ele>
        <time>2022-05-22 01:02:29</time>
      </trkpt>
      <trkpt lat="42.25437" lon="2.16553">
        <ele>803.6</ele>
        <time>2022-05-22 01:02:30</time>
      </trkpt>
      <trkpt lat="42.2544" lon="2.16554">
        <ele>803.6</ele>
        <time>2022-05-22 01:02:31</time>
      </trkpt>
      <trkpt lat="42.25443" lon="2.16554">
        <ele>803.8</ele>
        <time>2022-05-22 01:02:32</time>
      </trkpt>
      <trkpt lat="42.25446" lon="2.16554">
        <ele>804</ele>
        <time>2022-05-22 01:02:33</time>
      </trkpt>
      <trkpt lat="42.25449" lon="2.16554">
        <ele>804</ele>
        <time>2022-05-22 01:02:34</time>
      </trkpt>
      <trkpt lat="42.25452" lon="2.16554">
        <ele>804.2</ele>
        <time>2022-05-22 01:02:35</time>
      </trkpt>
      <trkpt lat="42.25455" lon="2.16553">
        <ele>804.2</ele>
        <time>2022-05-22 01:02:36</time>
      </trkpt>
      <trkpt lat="42.25458" lon="2.16553">
        <ele>804.4</ele>
        <time>2022-05-22 01:02:37</time>
      </trkpt>
      <trkpt lat="42.25461" lon="2.16553">
        <ele>804.6</ele>
        <time>2022-05-22 01:02:38</time>
      </trkpt>
      <trkpt lat="42.25464" lon="2.16554">
        <ele>804.8</ele>
        <time>2022-05-22 01:02:39</time>
      </trkpt>
      <trkpt lat="42.25468" lon="2.16554">
        <ele>805</ele>
        <time>2022-05-22 01:02:40</time>
      </trkpt>
      <trkpt lat="42.25471" lon="2.16554">
        <ele>805.2</ele>
        <time>2022-05-22 01:02:41</time>
      </trkpt>
      <trkpt lat="42.25474" lon="2.16554">
        <ele>805.2</ele>
        <time>2022-05-22 01:02:42</time>
      </trkpt>
      <trkpt lat="42.25477" lon="2.16554">
        <ele>805.4</ele>
        <time>2022-05-22 01:02:43</time>
      </trkpt>
      <trkpt lat="42.25481" lon="2.16555">
        <ele>805.6</ele>
        <time>2022-05-22 01:02:44</time>
      </trkpt>
      <trkpt lat="42.25483" lon="2.16555">
        <ele>805.8</ele>
        <time>2022-05-22 01:02:45</time>
      </trkpt>
      <trkpt lat="42.25486" lon="2.16555">
        <ele>806</ele>
        <time>2022-05-22 01:02:46</time>
      </trkpt>
      <trkpt lat="42.2549" lon="2.16555">
        <ele>806.2</ele>
        <time>2022-05-22 01:02:47</time>
      </trkpt>
      <trkpt lat="42.25493" lon="2.16555">
        <ele>806.4</ele>
        <time>2022-05-22 01:02:48</time>
      </trkpt>
      <trkpt lat="42.25496" lon="2.16555">
        <ele>806.6</ele>
        <time>2022-05-22 01:02:49</time>
      </trkpt>
      <trkpt lat="42.25499" lon="2.16554">
        <ele>806.6</ele>
        <time>2022-05-22 01:02:50</time>
      </trkpt>
      <trkpt lat="42.25502" lon="2.16553">
        <ele>806.8</ele>
        <time>2022-05-22 01:02:51</time>
      </trkpt>
      <trkpt lat="42.25505" lon="2.16552">
        <ele>807</ele>
        <time>2022-05-22 01:02:52</time>
      </trkpt>
      <trkpt lat="42.25509" lon="2.16552">
        <ele>807</ele>
        <time>2022-05-22 01:02:53</time>
      </trkpt>
      <trkpt lat="42.25513" lon="2.16551">
        <ele>807.2</ele>
        <time>2022-05-22 01:02:54</time>
      </trkpt>
      <trkpt lat="42.25517" lon="2.1655">
        <ele>807.2</ele>
        <time>2022-05-22 01:02:55</time>
      </trkpt>
      <trkpt lat="42.25522" lon="2.16548">
        <ele>807.4</ele>
        <time>2022-05-22 01:02:56</time>
      </trkpt>
      <trkpt lat="42.25526" lon="2.16547">
        <ele>807.4</ele>
        <time>2022-05-22 01:02:57</time>
      </trkpt>
      <trkpt lat="42.2553" lon="2.16545">
        <ele>807.4</ele>
        <time>2022-05-22 01:02:58</time>
      </trkpt>
      <trkpt lat="42.25534" lon="2.16542">
        <ele>807.6</ele>
        <time>2022-05-22 01:02:59</time>
      </trkpt>
      <trkpt lat="42.25537" lon="2.1654">
        <ele>807.6</ele>
        <time>2022-05-22 01:03:00</time>
      </trkpt>
      <trkpt lat="42.25541" lon="2.16537">
        <ele>807.4</ele>
        <time>2022-05-22 01:03:01</time>
      </trkpt>
      <trkpt lat="42.25545" lon="2.16534">
        <ele>807.4</ele>
        <time>2022-05-22 01:03:02</time>
      </trkpt>
      <trkpt lat="42.25549" lon="2.16532">
        <ele>807.4</ele>
        <time>2022-05-22 01:03:03</time>
      </trkpt>
      <trkpt lat="42.25553" lon="2.16529">
        <ele>807.4</ele>
        <time>2022-05-22 01:03:04</time>
      </trkpt>
      <trkpt lat="42.25557" lon="2.16525">
        <ele>807.6</ele>
        <time>2022-05-22 01:03:05</time>
      </trkpt>
      <trkpt lat="42.2556" lon="2.16522">
        <ele>807.6</ele>
        <time>2022-05-22 01:03:06</time>
      </trkpt>
      <trkpt lat="42.25564" lon="2.16518">
        <ele>807.6</ele>
        <time>2022-05-22 01:03:07</time>
      </trkpt>
      <trkpt lat="42.25568" lon="2.16514">
        <ele>807.6</ele>
        <time>2022-05-22 01:03:08</time>
      </trkpt>
      <trkpt lat="42.25572" lon="2.16511">
        <ele>807.6</ele>
        <time>2022-05-22 01:03:09</time>
      </trkpt>
      <trkpt lat="42.25576" lon="2.16507">
        <ele>807.6</ele>
        <time>2022-05-22 01:03:10</time>
      </trkpt>
      <trkpt lat="42.25579" lon="2.16504">
        <ele>807.6</ele>
        <time>2022-05-22 01:03:11</time>
      </trkpt>
      <trkpt lat="42.25583" lon="2.165">
        <ele>807.6</ele>
        <time>2022-05-22 01:03:12</time>
      </trkpt>
      <trkpt lat="42.25587" lon="2.16496">
        <ele>807.6</ele>
        <time>2022-05-22 01:03:13</time>
      </trkpt>
      <trkpt lat="42.2559" lon="2.16492">
        <ele>807.6</ele>
        <time>2022-05-22 01:03:14</time>
      </trkpt>
      <trkpt lat="42.25594" lon="2.16488">
        <ele>807.6</ele>
        <time>2022-05-22 01:03:15</time>
      </trkpt>
      <trkpt lat="42.25597" lon="2.16484">
        <ele>807.6</ele>
        <time>2022-05-22 01:03:16</time>
      </trkpt>
      <trkpt lat="42.256" lon="2.1648">
        <ele>807.6</ele>
        <time>2022-05-22 01:03:17</time>
      </trkpt>
      <trkpt lat="42.25604" lon="2.16476">
        <ele>807.6</ele>
        <time>2022-05-22 01:03:18</time>
      </trkpt>
      <trkpt lat="42.25608" lon="2.16473">
        <ele>807.6</ele>
        <time>2022-05-22 01:03:19</time>
      </trkpt>
      <trkpt lat="42.25611" lon="2.1647">
        <ele>807.6</ele>
        <time>2022-05-22 01:03:20</time>
      </trkpt>
      <trkpt lat="42.25615" lon="2.16466">
        <ele>807.6</ele>
        <time>2022-05-22 01:03:21</time>
      </trkpt>
      <trkpt lat="42.25619" lon="2.16463">
        <ele>807.6</ele>
        <time>2022-05-22 01:03:22</time>
      </trkpt>
      <trkpt lat="42.25623" lon="2.1646">
        <ele>807.6</ele>
        <time>2022-05-22 01:03:23</time>
      </trkpt>
      <trkpt lat="42.25626" lon="2.16457">
        <ele>807.6</ele>
        <time>2022-05-22 01:03:24</time>
      </trkpt>
      <trkpt lat="42.25631" lon="2.16454">
        <ele>807.6</ele>
        <time>2022-05-22 01:03:25</time>
      </trkpt>
      <trkpt lat="42.25635" lon="2.16451">
        <ele>807.6</ele>
        <time>2022-05-22 01:03:26</time>
      </trkpt>
      <trkpt lat="42.25639" lon="2.16449">
        <ele>807.4</ele>
        <time>2022-05-22 01:03:27</time>
      </trkpt>
      <trkpt lat="42.25643" lon="2.16447">
        <ele>807.4</ele>
        <time>2022-05-22 01:03:28</time>
      </trkpt>
      <trkpt lat="42.25647" lon="2.16445">
        <ele>807.4</ele>
        <time>2022-05-22 01:03:29</time>
      </trkpt>
      <trkpt lat="42.25651" lon="2.16443">
        <ele>807.4</ele>
        <time>2022-05-22 01:03:30</time>
      </trkpt>
      <trkpt lat="42.25655" lon="2.16441">
        <ele>807.4</ele>
        <time>2022-05-22 01:03:31</time>
      </trkpt>
      <trkpt lat="42.25659" lon="2.1644">
        <ele>807.6</ele>
        <time>2022-05-22 01:03:32</time>
      </trkpt>
      <trkpt lat="42.25664" lon="2.16439">
        <ele>807.6</ele>
        <time>2022-05-22 01:03:33</time>
      </trkpt>
      <trkpt lat="42.25668" lon="2.16439">
        <ele>807.6</ele>
        <time>2022-05-22 01:03:34</time>
      </trkpt>
      <trkpt lat="42.25672" lon="2.16438">
        <ele>807.8</ele>
        <time>2022-05-22 01:03:35</time>
      </trkpt>
      <trkpt lat="42.25676" lon="2.16437">
        <ele>807.8</ele>
        <time>2022-05-22 01:03:36</time>
      </trkpt>
      <trkpt lat="42.25679" lon="2.16436">
        <ele>808</ele>
        <time>2022-05-22 01:03:37</time>
      </trkpt>
      <trkpt lat="42.25683" lon="2.16436">
        <ele>808</ele>
        <time>2022-05-22 01:03:38</time>
      </trkpt>
      <trkpt lat="42.25687" lon="2.16436">
        <ele>808</ele>
        <time>2022-05-22 01:03:39</time>
      </trkpt>
      <trkpt lat="42.25691" lon="2.16437">
        <ele>808.2</ele>
        <time>2022-05-22 01:03:40</time>
      </trkpt>
      <trkpt lat="42.25694" lon="2.16438">
        <ele>808.2</ele>
        <time>2022-05-22 01:03:41</time>
      </trkpt>
      <trkpt lat="42.25698" lon="2.1644">
        <ele>808.2</ele>
        <time>2022-05-22 01:03:42</time>
      </trkpt>
      <trkpt lat="42.25702" lon="2.16441">
        <ele>808.4</ele>
        <time>2022-05-22 01:03:43</time>
      </trkpt>
      <trkpt lat="42.25705" lon="2.16443">
        <ele>808.4</ele>
        <time>2022-05-22 01:03:44</time>
      </trkpt>
      <trkpt lat="42.25709" lon="2.16445">
        <ele>808.4</ele>
        <time>2022-05-22 01:03:45</time>
      </trkpt>
      <trkpt lat="42.25713" lon="2.16447">
        <ele>808.4</ele>
        <time>2022-05-22 01:03:46</time>
      </trkpt>
      <trkpt lat="42.25716" lon="2.1645">
        <ele>808.4</ele>
        <time>2022-05-22 01:03:47</time>
      </trkpt>
      <trkpt lat="42.2572" lon="2.16452">
        <ele>808.6</ele>
        <time>2022-05-22 01:03:48</time>
      </trkpt>
      <trkpt lat="42.25723" lon="2.16455">
        <ele>808.6</ele>
        <time>2022-05-22 01:03:49</time>
      </trkpt>
      <trkpt lat="42.25726" lon="2.16459">
        <ele>808.8</ele>
        <time>2022-05-22 01:03:50</time>
      </trkpt>
      <trkpt lat="42.2573" lon="2.16462">
        <ele>809</ele>
        <time>2022-05-22 01:03:51</time>
      </trkpt>
      <trkpt lat="42.25732" lon="2.16466">
        <ele>809</ele>
        <time>2022-05-22 01:03:52</time>
      </trkpt>
      <trkpt lat="42.25735" lon="2.16469">
        <ele>809</ele>
        <time>2022-05-22 01:03:53</time>
      </trkpt>
      <trkpt lat="42.25738" lon="2.16473">
        <ele>809.2</ele>
        <time>2022-05-22 01:03:54</time>
      </trkpt>
      <trkpt lat="42.2574" lon="2.16476">
        <ele>809.2</ele>
        <time>2022-05-22 01:03:55</time>
      </trkpt>
      <trkpt lat="42.25742" lon="2.1648">
        <ele>809.4</ele>
        <time>2022-05-22 01:03:56</time>
      </trkpt>
      <trkpt lat="42.25745" lon="2.16484">
        <ele>809.4</ele>
        <time>2022-05-22 01:03:57</time>
      </trkpt>
      <trkpt lat="42.25747" lon="2.16488">
        <ele>809.6</ele>
        <time>2022-05-22 01:03:58</time>
      </trkpt>
      <trkpt lat="42.2575" lon="2.16492">
        <ele>809.6</ele>
        <time>2022-05-22 01:03:59</time>
      </trkpt>
      <trkpt lat="42.25753" lon="2.16496">
        <ele>809.6</ele>
        <time>2022-05-22 01:04:00</time>
      </trkpt>
      <trkpt lat="42.25755" lon="2.16499">
        <ele>809.8</ele>
        <time>2022-05-22 01:04:01</time>
      </trkpt>
      <trkpt lat="42.25757" lon="2.16504">
        <ele>809.8</ele>
        <time>2022-05-22 01:04:02</time>
      </trkpt>
      <trkpt lat="42.2576" lon="2.16508">
        <ele>809.8</ele>
        <time>2022-05-22 01:04:03</time>
      </trkpt>
      <trkpt lat="42.25763" lon="2.16512">
        <ele>809.8</ele>
        <time>2022-05-22 01:04:04</time>
      </trkpt>
      <trkpt lat="42.25765" lon="2.16516">
        <ele>810</ele>
        <time>2022-05-22 01:04:05</time>
      </trkpt>
      <trkpt lat="42.25767" lon="2.16521">
        <ele>810</ele>
        <time>2022-05-22 01:04:06</time>
      </trkpt>
      <trkpt lat="42.2577" lon="2.16524">
        <ele>810.2</ele>
        <time>2022-05-22 01:04:07</time>
      </trkpt>
      <trkpt lat="42.25772" lon="2.16528">
        <ele>810.2</ele>
        <time>2022-05-22 01:04:08</time>
      </trkpt>
      <trkpt lat="42.25775" lon="2.16531">
        <ele>810.2</ele>
        <time>2022-05-22 01:04:09</time>
      </trkpt>
      <trkpt lat="42.25778" lon="2.16534">
        <ele>810.4</ele>
        <time>2022-05-22 01:04:10</time>
      </trkpt>
      <trkpt lat="42.25781" lon="2.16538">
        <ele>810.4</ele>
        <time>2022-05-22 01:04:11</time>
      </trkpt>
      <trkpt lat="42.25784" lon="2.16541">
        <ele>810.4</ele>
        <time>2022-05-22 01:04:12</time>
      </trkpt>
      <trkpt lat="42.25787" lon="2.16544">
        <ele>810.6</ele>
        <time>2022-05-22 01:04:13</time>
      </trkpt>
      <trkpt lat="42.25789" lon="2.16548">
        <ele>810.6</ele>
        <time>2022-05-22 01:04:14</time>
      </trkpt>
      <trkpt lat="42.25792" lon="2.16552">
        <ele>810.6</ele>
        <time>2022-05-22 01:04:15</time>
      </trkpt>
      <trkpt lat="42.25795" lon="2.16555">
        <ele>810.6</ele>
        <time>2022-05-22 01:04:16</time>
      </trkpt>
      <trkpt lat="42.25798" lon="2.16557">
        <ele>810.8</ele>
        <time>2022-05-22 01:04:17</time>
      </trkpt>
      <trkpt lat="42.25802" lon="2.1656">
        <ele>810.8</ele>
        <time>2022-05-22 01:04:18</time>
      </trkpt>
      <trkpt lat="42.25805" lon="2.16562">
        <ele>810.8</ele>
        <time>2022-05-22 01:04:19</time>
      </trkpt>
      <trkpt lat="42.25808" lon="2.16564">
        <ele>811</ele>
        <time>2022-05-22 01:04:20</time>
      </trkpt>
      <trkpt lat="42.25812" lon="2.16565">
        <ele>811</ele>
        <time>2022-05-22 01:04:21</time>
      </trkpt>
      <trkpt lat="42.25815" lon="2.16567">
        <ele>811</ele>
        <time>2022-05-22 01:04:22</time>
      </trkpt>
      <trkpt lat="42.25818" lon="2.16568">
        <ele>811.2</ele>
        <time>2022-05-22 01:04:23</time>
      </trkpt>
      <trkpt lat="42.25822" lon="2.16569">
        <ele>811.2</ele>
        <time>2022-05-22 01:04:24</time>
      </trkpt>
      <trkpt lat="42.25825" lon="2.1657">
        <ele>811.2</ele>
        <time>2022-05-22 01:04:25</time>
      </trkpt>
      <trkpt lat="42.25829" lon="2.16571">
        <ele>811.2</ele>
        <time>2022-05-22 01:04:26</time>
      </trkpt>
      <trkpt lat="42.25833" lon="2.16571">
        <ele>811.2</ele>
        <time>2022-05-22 01:04:27</time>
      </trkpt>
      <trkpt lat="42.25836" lon="2.16571">
        <ele>811.4</ele>
        <time>2022-05-22 01:04:28</time>
      </trkpt>
      <trkpt lat="42.2584" lon="2.16572">
        <ele>811.4</ele>
        <time>2022-05-22 01:04:29</time>
      </trkpt>
      <trkpt lat="42.25845" lon="2.16572">
        <ele>811.4</ele>
        <time>2022-05-22 01:04:30</time>
      </trkpt>
      <trkpt lat="42.25849" lon="2.16572">
        <ele>811.4</ele>
        <time>2022-05-22 01:04:31</time>
      </trkpt>
      <trkpt lat="42.25853" lon="2.16571">
        <ele>811.4</ele>
        <time>2022-05-22 01:04:32</time>
      </trkpt>
      <trkpt lat="42.25857" lon="2.1657">
        <ele>811.4</ele>
        <time>2022-05-22 01:04:33</time>
      </trkpt>
      <trkpt lat="42.25861" lon="2.1657">
        <ele>811.6</ele>
        <time>2022-05-22 01:04:34</time>
      </trkpt>
      <trkpt lat="42.25865" lon="2.16569">
        <ele>811.6</ele>
        <time>2022-05-22 01:04:35</time>
      </trkpt>
      <trkpt lat="42.2587" lon="2.16568">
        <ele>811.6</ele>
        <time>2022-05-22 01:04:36</time>
      </trkpt>
      <trkpt lat="42.25873" lon="2.16566">
        <ele>811.6</ele>
        <time>2022-05-22 01:04:37</time>
      </trkpt>
      <trkpt lat="42.25877" lon="2.16565">
        <ele>811.6</ele>
        <time>2022-05-22 01:04:38</time>
      </trkpt>
      <trkpt lat="42.25881" lon="2.16563">
        <ele>811.6</ele>
        <time>2022-05-22 01:04:39</time>
      </trkpt>
      <trkpt lat="42.25885" lon="2.16562">
        <ele>811.6</ele>
        <time>2022-05-22 01:04:40</time>
      </trkpt>
      <trkpt lat="42.25889" lon="2.1656">
        <ele>811.6</ele>
        <time>2022-05-22 01:04:41</time>
      </trkpt>
      <trkpt lat="42.25894" lon="2.16558">
        <ele>811.8</ele>
        <time>2022-05-22 01:04:42</time>
      </trkpt>
      <trkpt lat="42.25897" lon="2.16557">
        <ele>811.8</ele>
        <time>2022-05-22 01:04:43</time>
      </trkpt>
      <trkpt lat="42.25901" lon="2.16556">
        <ele>811.8</ele>
        <time>2022-05-22 01:04:44</time>
      </trkpt>
      <trkpt lat="42.25906" lon="2.16554">
        <ele>811.8</ele>
        <time>2022-05-22 01:04:45</time>
      </trkpt>
      <trkpt lat="42.2591" lon="2.16553">
        <ele>811.8</ele>
        <time>2022-05-22 01:04:46</time>
      </trkpt>
      <trkpt lat="42.25914" lon="2.16552">
        <ele>811.8</ele>
        <time>2022-05-22 01:04:47</time>
      </trkpt>
      <trkpt lat="42.25918" lon="2.1655">
        <ele>811.8</ele>
        <time>2022-05-22 01:04:48</time>
      </trkpt>
      <trkpt lat="42.25922" lon="2.16548">
        <ele>811.8</ele>
        <time>2022-05-22 01:04:49</time>
      </trkpt>
      <trkpt lat="42.25926" lon="2.16547">
        <ele>811.8</ele>
        <time>2022-05-22 01:04:50</time>
      </trkpt>
      <trkpt lat="42.2593" lon="2.16545">
        <ele>811.8</ele>
        <time>2022-05-22 01:04:51</time>
      </trkpt>
      <trkpt lat="42.25934" lon="2.16542">
        <ele>811.8</ele>
        <time>2022-05-22 01:04:52</time>
      </trkpt>
      <trkpt lat="42.25938" lon="2.16541">
        <ele>812</ele>
        <time>2022-05-22 01:04:53</time>
      </trkpt>
      <trkpt lat="42.25943" lon="2.16539">
        <ele>812</ele>
        <time>2022-05-22 01:04:54</time>
      </trkpt>
      <trkpt lat="42.25947" lon="2.16538">
        <ele>812</ele>
        <time>2022-05-22 01:04:55</time>
      </trkpt>
      <trkpt lat="42.25951" lon="2.16536">
        <ele>811.8</ele>
        <time>2022-05-22 01:04:56</time>
      </trkpt>
      <trkpt lat="42.25955" lon="2.16535">
        <ele>811.8</ele>
        <time>2022-05-22 01:04:57</time>
      </trkpt>
      <trkpt lat="42.25959" lon="2.16534">
        <ele>812</ele>
        <time>2022-05-22 01:04:58</time>
      </trkpt>
      <trkpt lat="42.25963" lon="2.16532">
        <ele>812</ele>
        <time>2022-05-22 01:04:59</time>
      </trkpt>
      <trkpt lat="42.25967" lon="2.1653">
        <ele>812</ele>
        <time>2022-05-22 01:05:00</time>
      </trkpt>
      <trkpt lat="42.25971" lon="2.16528">
        <ele>812</ele>
        <time>2022-05-22 01:05:01</time>
      </trkpt>
      <trkpt lat="42.25975" lon="2.16527">
        <ele>812</ele>
        <time>2022-05-22 01:05:02</time>
      </trkpt>
      <trkpt lat="42.25979" lon="2.16525">
        <ele>812</ele>
        <time>2022-05-22 01:05:03</time>
      </trkpt>
      <trkpt lat="42.25982" lon="2.16523">
        <ele>812</ele>
        <time>2022-05-22 01:05:04</time>
      </trkpt>
      <trkpt lat="42.25986" lon="2.16521">
        <ele>812</ele>
        <time>2022-05-22 01:05:05</time>
      </trkpt>
      <trkpt lat="42.2599" lon="2.1652">
        <ele>812.2</ele>
        <time>2022-05-22 01:05:06</time>
      </trkpt>
      <trkpt lat="42.25994" lon="2.16518">
        <ele>812.2</ele>
        <time>2022-05-22 01:05:07</time>
      </trkpt>
      <trkpt lat="42.25997" lon="2.16516">
        <ele>812.2</ele>
        <time>2022-05-22 01:05:08</time>
      </trkpt>
      <trkpt lat="42.26001" lon="2.16514">
        <ele>812.2</ele>
        <time>2022-05-22 01:05:09</time>
      </trkpt>
      <trkpt lat="42.26005" lon="2.16513">
        <ele>812.2</ele>
        <time>2022-05-22 01:05:10</time>
      </trkpt>
      <trkpt lat="42.26009" lon="2.16511">
        <ele>812.4</ele>
        <time>2022-05-22 01:05:11</time>
      </trkpt>
      <trkpt lat="42.26013" lon="2.16508">
        <ele>812.4</ele>
        <time>2022-05-22 01:05:12</time>
      </trkpt>
      <trkpt lat="42.26017" lon="2.16506">
        <ele>812.6</ele>
        <time>2022-05-22 01:05:13</time>
      </trkpt>
      <trkpt lat="42.26021" lon="2.16504">
        <ele>812.8</ele>
        <time>2022-05-22 01:05:14</time>
      </trkpt>
      <trkpt lat="42.26025" lon="2.16502">
        <ele>812.8</ele>
        <time>2022-05-22 01:05:15</time>
      </trkpt>
      <trkpt lat="42.26029" lon="2.16501">
        <ele>813</ele>
        <time>2022-05-22 01:05:16</time>
      </trkpt>
      <trkpt lat="42.26033" lon="2.165">
        <ele>813</ele>
        <time>2022-05-22 01:05:17</time>
      </trkpt>
      <trkpt lat="42.26038" lon="2.16498">
        <ele>813</ele>
        <time>2022-05-22 01:05:18</time>
      </trkpt>
      <trkpt lat="42.26042" lon="2.16496">
        <ele>813.2</ele>
        <time>2022-05-22 01:05:19</time>
      </trkpt>
      <trkpt lat="42.26045" lon="2.16495">
        <ele>813.2</ele>
        <time>2022-05-22 01:05:20</time>
      </trkpt>
      <trkpt lat="42.2605" lon="2.16493">
        <ele>813.2</ele>
        <time>2022-05-22 01:05:21</time>
      </trkpt>
      <trkpt lat="42.26054" lon="2.16491">
        <ele>813.4</ele>
        <time>2022-05-22 01:05:22</time>
      </trkpt>
      <trkpt lat="42.26058" lon="2.16489">
        <ele>813.4</ele>
        <time>2022-05-22 01:05:23</time>
      </trkpt>
      <trkpt lat="42.26062" lon="2.16487">
        <ele>813.6</ele>
        <time>2022-05-22 01:05:24</time>
      </trkpt>
      <trkpt lat="42.26066" lon="2.16486">
        <ele>813.6</ele>
        <time>2022-05-22 01:05:25</time>
      </trkpt>
      <trkpt lat="42.2607" lon="2.16484">
        <ele>813.6</ele>
        <time>2022-05-22 01:05:26</time>
      </trkpt>
      <trkpt lat="42.26074" lon="2.16482">
        <ele>813.8</ele>
        <time>2022-05-22 01:05:27</time>
      </trkpt>
      <trkpt lat="42.26078" lon="2.1648">
        <ele>813.8</ele>
        <time>2022-05-22 01:05:28</time>
      </trkpt>
      <trkpt lat="42.26082" lon="2.16479">
        <ele>813.8</ele>
        <time>2022-05-22 01:05:29</time>
      </trkpt>
      <trkpt lat="42.26087" lon="2.16476">
        <ele>814</ele>
        <time>2022-05-22 01:05:30</time>
      </trkpt>
      <trkpt lat="42.26091" lon="2.16474">
        <ele>814</ele>
        <time>2022-05-22 01:05:31</time>
      </trkpt>
      <trkpt lat="42.26095" lon="2.16472">
        <ele>814</ele>
        <time>2022-05-22 01:05:32</time>
      </trkpt>
      <trkpt lat="42.26099" lon="2.16469">
        <ele>814.2</ele>
        <time>2022-05-22 01:05:33</time>
      </trkpt>
      <trkpt lat="42.26103" lon="2.16466">
        <ele>814.2</ele>
        <time>2022-05-22 01:05:34</time>
      </trkpt>
      <trkpt lat="42.26106" lon="2.16464">
        <ele>814.4</ele>
        <time>2022-05-22 01:05:35</time>
      </trkpt>
      <trkpt lat="42.26109" lon="2.16461">
        <ele>814.4</ele>
        <time>2022-05-22 01:05:36</time>
      </trkpt>
      <trkpt lat="42.26114" lon="2.16457">
        <ele>814.4</ele>
        <time>2022-05-22 01:05:37</time>
      </trkpt>
      <trkpt lat="42.26117" lon="2.16454">
        <ele>814.6</ele>
        <time>2022-05-22 01:05:38</time>
      </trkpt>
      <trkpt lat="42.26121" lon="2.16451">
        <ele>814.6</ele>
        <time>2022-05-22 01:05:39</time>
      </trkpt>
      <trkpt lat="42.26124" lon="2.16447">
        <ele>814.6</ele>
        <time>2022-05-22 01:05:40</time>
      </trkpt>
      <trkpt lat="42.26128" lon="2.16444">
        <ele>814.8</ele>
        <time>2022-05-22 01:05:41</time>
      </trkpt>
      <trkpt lat="42.26131" lon="2.1644">
        <ele>814.8</ele>
        <time>2022-05-22 01:05:42</time>
      </trkpt>
      <trkpt lat="42.26135" lon="2.16436">
        <ele>814.8</ele>
        <time>2022-05-22 01:05:43</time>
      </trkpt>
      <trkpt lat="42.26138" lon="2.16433">
        <ele>814.8</ele>
        <time>2022-05-22 01:05:44</time>
      </trkpt>
      <trkpt lat="42.26141" lon="2.16429">
        <ele>814.8</ele>
        <time>2022-05-22 01:05:45</time>
      </trkpt>
      <trkpt lat="42.26144" lon="2.16424">
        <ele>814.8</ele>
        <time>2022-05-22 01:05:46</time>
      </trkpt>
      <trkpt lat="42.26146" lon="2.16419">
        <ele>814.8</ele>
        <time>2022-05-22 01:05:47</time>
      </trkpt>
      <trkpt lat="42.26149" lon="2.16415">
        <ele>815</ele>
        <time>2022-05-22 01:05:48</time>
      </trkpt>
      <trkpt lat="42.26151" lon="2.1641">
        <ele>815</ele>
        <time>2022-05-22 01:05:49</time>
      </trkpt>
      <trkpt lat="42.26154" lon="2.16405">
        <ele>815</ele>
        <time>2022-05-22 01:05:50</time>
      </trkpt>
      <trkpt lat="42.26157" lon="2.164">
        <ele>815</ele>
        <time>2022-05-22 01:05:51</time>
      </trkpt>
      <trkpt lat="42.26159" lon="2.16395">
        <ele>815.2</ele>
        <time>2022-05-22 01:05:52</time>
      </trkpt>
      <trkpt lat="42.2616" lon="2.1639">
        <ele>815.2</ele>
        <time>2022-05-22 01:05:53</time>
      </trkpt>
      <trkpt lat="42.26163" lon="2.16385">
        <ele>815.2</ele>
        <time>2022-05-22 01:05:54</time>
      </trkpt>
      <trkpt lat="42.26165" lon="2.16381">
        <ele>815.2</ele>
        <time>2022-05-22 01:05:55</time>
      </trkpt>
      <trkpt lat="42.26167" lon="2.16376">
        <ele>815.2</ele>
        <time>2022-05-22 01:05:56</time>
      </trkpt>
      <trkpt lat="42.26169" lon="2.16371">
        <ele>815.2</ele>
        <time>2022-05-22 01:05:57</time>
      </trkpt>
      <trkpt lat="42.26172" lon="2.16366">
        <ele>815.2</ele>
        <time>2022-05-22 01:05:58</time>
      </trkpt>
      <trkpt lat="42.26174" lon="2.16361">
        <ele>815.2</ele>
        <time>2022-05-22 01:05:59</time>
      </trkpt>
      <trkpt lat="42.26176" lon="2.16356">
        <ele>815.2</ele>
        <time>2022-05-22 01:06:00</time>
      </trkpt>
      <trkpt lat="42.26178" lon="2.16351">
        <ele>815.2</ele>
        <time>2022-05-22 01:06:01</time>
      </trkpt>
      <trkpt lat="42.2618" lon="2.16347">
        <ele>815.4</ele>
        <time>2022-05-22 01:06:02</time>
      </trkpt>
      <trkpt lat="42.26182" lon="2.16342">
        <ele>815.4</ele>
        <time>2022-05-22 01:06:03</time>
      </trkpt>
      <trkpt lat="42.26184" lon="2.16338">
        <ele>815.6</ele>
        <time>2022-05-22 01:06:04</time>
      </trkpt>
      <trkpt lat="42.26186" lon="2.16334">
        <ele>815.6</ele>
        <time>2022-05-22 01:06:05</time>
      </trkpt>
      <trkpt lat="42.26188" lon="2.1633">
        <ele>815.6</ele>
        <time>2022-05-22 01:06:06</time>
      </trkpt>
      <trkpt lat="42.2619" lon="2.16326">
        <ele>815.6</ele>
        <time>2022-05-22 01:06:07</time>
      </trkpt>
      <trkpt lat="42.26192" lon="2.16323">
        <ele>815.6</ele>
        <time>2022-05-22 01:06:08</time>
      </trkpt>
      <trkpt lat="42.26195" lon="2.16318">
        <ele>815.6</ele>
        <time>2022-05-22 01:06:09</time>
      </trkpt>
      <trkpt lat="42.26197" lon="2.16314">
        <ele>815.6</ele>
        <time>2022-05-22 01:06:10</time>
      </trkpt>
      <trkpt lat="42.26199" lon="2.16309">
        <ele>815.6</ele>
        <time>2022-05-22 01:06:11</time>
      </trkpt>
      <trkpt lat="42.26202" lon="2.16304">
        <ele>815.8</ele>
        <time>2022-05-22 01:06:12</time>
      </trkpt>
      <trkpt lat="42.26204" lon="2.163">
        <ele>815.8</ele>
        <time>2022-05-22 01:06:13</time>
      </trkpt>
      <trkpt lat="42.26207" lon="2.16296">
        <ele>815.8</ele>
        <time>2022-05-22 01:06:14</time>
      </trkpt>
      <trkpt lat="42.2621" lon="2.16291">
        <ele>816</ele>
        <time>2022-05-22 01:06:15</time>
      </trkpt>
      <trkpt lat="42.26212" lon="2.16287">
        <ele>816.2</ele>
        <time>2022-05-22 01:06:16</time>
      </trkpt>
      <trkpt lat="42.26215" lon="2.16283">
        <ele>816.4</ele>
        <time>2022-05-22 01:06:17</time>
      </trkpt>
      <trkpt lat="42.26218" lon="2.16279">
        <ele>816.4</ele>
        <time>2022-05-22 01:06:18</time>
      </trkpt>
      <trkpt lat="42.2622" lon="2.16276">
        <ele>816.6</ele>
        <time>2022-05-22 01:06:19</time>
      </trkpt>
      <trkpt lat="42.26222" lon="2.16272">
        <ele>816.8</ele>
        <time>2022-05-22 01:06:20</time>
      </trkpt>
      <trkpt lat="42.26225" lon="2.16269">
        <ele>817</ele>
        <time>2022-05-22 01:06:21</time>
      </trkpt>
      <trkpt lat="42.26229" lon="2.16267">
        <ele>817</ele>
        <time>2022-05-22 01:06:22</time>
      </trkpt>
      <trkpt lat="42.26232" lon="2.16265">
        <ele>817.2</ele>
        <time>2022-05-22 01:06:23</time>
      </trkpt>
      <trkpt lat="42.26236" lon="2.16263">
        <ele>817.2</ele>
        <time>2022-05-22 01:06:24</time>
      </trkpt>
      <trkpt lat="42.26239" lon="2.16262">
        <ele>817.4</ele>
        <time>2022-05-22 01:06:25</time>
      </trkpt>
      <trkpt lat="42.26242" lon="2.1626">
        <ele>817.4</ele>
        <time>2022-05-22 01:06:26</time>
      </trkpt>
      <trkpt lat="42.26247" lon="2.16259">
        <ele>817.6</ele>
        <time>2022-05-22 01:06:27</time>
      </trkpt>
      <trkpt lat="42.26251" lon="2.16257">
        <ele>817.6</ele>
        <time>2022-05-22 01:06:28</time>
      </trkpt>
      <trkpt lat="42.26255" lon="2.16256">
        <ele>817.8</ele>
        <time>2022-05-22 01:06:29</time>
      </trkpt>
      <trkpt lat="42.26259" lon="2.16254">
        <ele>817.8</ele>
        <time>2022-05-22 01:06:30</time>
      </trkpt>
      <trkpt lat="42.26263" lon="2.16253">
        <ele>818</ele>
        <time>2022-05-22 01:06:31</time>
      </trkpt>
      <trkpt lat="42.26266" lon="2.16252">
        <ele>818.2</ele>
        <time>2022-05-22 01:06:32</time>
      </trkpt>
      <trkpt lat="42.26269" lon="2.16251">
        <ele>818.2</ele>
        <time>2022-05-22 01:06:33</time>
      </trkpt>
      <trkpt lat="42.26272" lon="2.1625">
        <ele>818.4</ele>
        <time>2022-05-22 01:06:34</time>
      </trkpt>
      <trkpt lat="42.26276" lon="2.16249">
        <ele>818.4</ele>
        <time>2022-05-22 01:06:35</time>
      </trkpt>
      <trkpt lat="42.26279" lon="2.16248">
        <ele>818.6</ele>
        <time>2022-05-22 01:06:36</time>
      </trkpt>
      <trkpt lat="42.26282" lon="2.16247">
        <ele>818.6</ele>
        <time>2022-05-22 01:06:37</time>
      </trkpt>
      <trkpt lat="42.26285" lon="2.16247">
        <ele>818.6</ele>
        <time>2022-05-22 01:06:38</time>
      </trkpt>
      <trkpt lat="42.26288" lon="2.16247">
        <ele>818.8</ele>
        <time>2022-05-22 01:06:39</time>
      </trkpt>
      <trkpt lat="42.26291" lon="2.16246">
        <ele>818.8</ele>
        <time>2022-05-22 01:06:40</time>
      </trkpt>
      <trkpt lat="42.26294" lon="2.16246">
        <ele>819</ele>
        <time>2022-05-22 01:06:41</time>
      </trkpt>
      <trkpt lat="42.26297" lon="2.16246">
        <ele>819.2</ele>
        <time>2022-05-22 01:06:42</time>
      </trkpt>
      <trkpt lat="42.263" lon="2.16246">
        <ele>819.4</ele>
        <time>2022-05-22 01:06:43</time>
      </trkpt>
      <trkpt lat="42.26303" lon="2.16246">
        <ele>819.6</ele>
        <time>2022-05-22 01:06:44</time>
      </trkpt>
      <trkpt lat="42.26305" lon="2.16247">
        <ele>819.6</ele>
        <time>2022-05-22 01:06:45</time>
      </trkpt>
      <trkpt lat="42.26308" lon="2.16249">
        <ele>819.8</ele>
        <time>2022-05-22 01:06:46</time>
      </trkpt>
      <trkpt lat="42.26311" lon="2.1625">
        <ele>819.8</ele>
        <time>2022-05-22 01:06:47</time>
      </trkpt>
      <trkpt lat="42.26314" lon="2.1625">
        <ele>820</ele>
        <time>2022-05-22 01:06:48</time>
      </trkpt>
      <trkpt lat="42.26317" lon="2.16251">
        <ele>820.2</ele>
        <time>2022-05-22 01:06:49</time>
      </trkpt>
      <trkpt lat="42.2632" lon="2.16251">
        <ele>820.2</ele>
        <time>2022-05-22 01:06:50</time>
      </trkpt>
      <trkpt lat="42.26323" lon="2.16253">
        <ele>820.2</ele>
        <time>2022-05-22 01:06:51</time>
      </trkpt>
      <trkpt lat="42.26326" lon="2.16254">
        <ele>820.4</ele>
        <time>2022-05-22 01:06:52</time>
      </trkpt>
      <trkpt lat="42.26329" lon="2.16255">
        <ele>820.6</ele>
        <time>2022-05-22 01:06:53</time>
      </trkpt>
      <trkpt lat="42.26332" lon="2.16256">
        <ele>820.6</ele>
        <time>2022-05-22 01:06:54</time>
      </trkpt>
      <trkpt lat="42.26334" lon="2.16258">
        <ele>820.8</ele>
        <time>2022-05-22 01:06:55</time>
      </trkpt>
      <trkpt lat="42.26337" lon="2.16259">
        <ele>821</ele>
        <time>2022-05-22 01:06:56</time>
      </trkpt>
      <trkpt lat="42.2634" lon="2.16261">
        <ele>821.2</ele>
        <time>2022-05-22 01:06:57</time>
      </trkpt>
      <trkpt lat="42.26343" lon="2.16263">
        <ele>821.4</ele>
        <time>2022-05-22 01:06:58</time>
      </trkpt>
      <trkpt lat="42.26346" lon="2.16264">
        <ele>821.4</ele>
        <time>2022-05-22 01:06:59</time>
      </trkpt>
      <trkpt lat="42.26349" lon="2.16266">
        <ele>821.6</ele>
        <time>2022-05-22 01:07:00</time>
      </trkpt>
      <trkpt lat="42.26352" lon="2.16267">
        <ele>821.8</ele>
        <time>2022-05-22 01:07:01</time>
      </trkpt>
      <trkpt lat="42.26355" lon="2.16269">
        <ele>821.8</ele>
        <time>2022-05-22 01:07:02</time>
      </trkpt>
      <trkpt lat="42.26358" lon="2.16271">
        <ele>822</ele>
        <time>2022-05-22 01:07:03</time>
      </trkpt>
      <trkpt lat="42.26361" lon="2.16273">
        <ele>822</ele>
        <time>2022-05-22 01:07:04</time>
      </trkpt>
      <trkpt lat="42.26364" lon="2.16275">
        <ele>822.2</ele>
        <time>2022-05-22 01:07:05</time>
      </trkpt>
      <trkpt lat="42.26368" lon="2.16277">
        <ele>822.2</ele>
        <time>2022-05-22 01:07:06</time>
      </trkpt>
      <trkpt lat="42.26372" lon="2.1628">
        <ele>822.2</ele>
        <time>2022-05-22 01:07:07</time>
      </trkpt>
      <trkpt lat="42.26375" lon="2.16282">
        <ele>822.2</ele>
        <time>2022-05-22 01:07:08</time>
      </trkpt>
      <trkpt lat="42.26379" lon="2.16284">
        <ele>822.2</ele>
        <time>2022-05-22 01:07:09</time>
      </trkpt>
      <trkpt lat="42.26383" lon="2.16288">
        <ele>822.2</ele>
        <time>2022-05-22 01:07:10</time>
      </trkpt>
      <trkpt lat="42.26386" lon="2.1629">
        <ele>822.2</ele>
        <time>2022-05-22 01:07:11</time>
      </trkpt>
      <trkpt lat="42.2639" lon="2.16292">
        <ele>822.2</ele>
        <time>2022-05-22 01:07:12</time>
      </trkpt>
      <trkpt lat="42.26394" lon="2.16295">
        <ele>822</ele>
        <time>2022-05-22 01:07:13</time>
      </trkpt>
      <trkpt lat="42.26398" lon="2.16297">
        <ele>822</ele>
        <time>2022-05-22 01:07:14</time>
      </trkpt>
      <trkpt lat="42.26402" lon="2.163">
        <ele>822</ele>
        <time>2022-05-22 01:07:15</time>
      </trkpt>
      <trkpt lat="42.26406" lon="2.16303">
        <ele>822</ele>
        <time>2022-05-22 01:07:16</time>
      </trkpt>
      <trkpt lat="42.2641" lon="2.16305">
        <ele>822</ele>
        <time>2022-05-22 01:07:17</time>
      </trkpt>
      <trkpt lat="42.26413" lon="2.16308">
        <ele>822.2</ele>
        <time>2022-05-22 01:07:18</time>
      </trkpt>
      <trkpt lat="42.26418" lon="2.1631">
        <ele>822.2</ele>
        <time>2022-05-22 01:07:19</time>
      </trkpt>
      <trkpt lat="42.26421" lon="2.16312">
        <ele>822.2</ele>
        <time>2022-05-22 01:07:20</time>
      </trkpt>
      <trkpt lat="42.26424" lon="2.16315">
        <ele>822.4</ele>
        <time>2022-05-22 01:07:21</time>
      </trkpt>
      <trkpt lat="42.26428" lon="2.16317">
        <ele>822.4</ele>
        <time>2022-05-22 01:07:22</time>
      </trkpt>
      <trkpt lat="42.26432" lon="2.16319">
        <ele>822.4</ele>
        <time>2022-05-22 01:07:23</time>
      </trkpt>
      <trkpt lat="42.26436" lon="2.1632">
        <ele>822.6</ele>
        <time>2022-05-22 01:07:24</time>
      </trkpt>
      <trkpt lat="42.2644" lon="2.16322">
        <ele>822.6</ele>
        <time>2022-05-22 01:07:25</time>
      </trkpt>
      <trkpt lat="42.26443" lon="2.16323">
        <ele>822.6</ele>
        <time>2022-05-22 01:07:26</time>
      </trkpt>
      <trkpt lat="42.26446" lon="2.16324">
        <ele>822.6</ele>
        <time>2022-05-22 01:07:27</time>
      </trkpt>
      <trkpt lat="42.2645" lon="2.16325">
        <ele>822.6</ele>
        <time>2022-05-22 01:07:28</time>
      </trkpt>
      <trkpt lat="42.26454" lon="2.16325">
        <ele>822.8</ele>
        <time>2022-05-22 01:07:29</time>
      </trkpt>
      <trkpt lat="42.26457" lon="2.16326">
        <ele>822.8</ele>
        <time>2022-05-22 01:07:30</time>
      </trkpt>
      <trkpt lat="42.26461" lon="2.16326">
        <ele>823</ele>
        <time>2022-05-22 01:07:31</time>
      </trkpt>
      <trkpt lat="42.26464" lon="2.16326">
        <ele>823</ele>
        <time>2022-05-22 01:07:32</time>
      </trkpt>
      <trkpt lat="42.26468" lon="2.16326">
        <ele>823</ele>
        <time>2022-05-22 01:07:33</time>
      </trkpt>
      <trkpt lat="42.26473" lon="2.16326">
        <ele>823</ele>
        <time>2022-05-22 01:07:34</time>
      </trkpt>
      <trkpt lat="42.26476" lon="2.16326">
        <ele>823.2</ele>
        <time>2022-05-22 01:07:35</time>
      </trkpt>
      <trkpt lat="42.2648" lon="2.16325">
        <ele>823.2</ele>
        <time>2022-05-22 01:07:36</time>
      </trkpt>
      <trkpt lat="42.26484" lon="2.16324">
        <ele>823.4</ele>
        <time>2022-05-22 01:07:37</time>
      </trkpt>
      <trkpt lat="42.26488" lon="2.16323">
        <ele>823.4</ele>
        <time>2022-05-22 01:07:38</time>
      </trkpt>
      <trkpt lat="42.26491" lon="2.16321">
        <ele>823.6</ele>
        <time>2022-05-22 01:07:39</time>
      </trkpt>
      <trkpt lat="42.26496" lon="2.1632">
        <ele>823.8</ele>
        <time>2022-05-22 01:07:40</time>
      </trkpt>
      <trkpt lat="42.265" lon="2.16318">
        <ele>823.8</ele>
        <time>2022-05-22 01:07:41</time>
      </trkpt>
      <trkpt lat="42.26503" lon="2.16316">
        <ele>824</ele>
        <time>2022-05-22 01:07:42</time>
      </trkpt>
      <trkpt lat="42.26508" lon="2.16314">
        <ele>824.2</ele>
        <time>2022-05-22 01:07:43</time>
      </trkpt>
      <trkpt lat="42.26511" lon="2.16312">
        <ele>824.4</ele>
        <time>2022-05-22 01:07:44</time>
      </trkpt>
      <trkpt lat="42.26515" lon="2.16311">
        <ele>824.4</ele>
        <time>2022-05-22 01:07:45</time>
      </trkpt>
      <trkpt lat="42.26519" lon="2.16308">
        <ele>824.6</ele>
        <time>2022-05-22 01:07:46</time>
      </trkpt>
      <trkpt lat="42.26522" lon="2.16305">
        <ele>824.8</ele>
        <time>2022-05-22 01:07:47</time>
      </trkpt>
      <trkpt lat="42.26525" lon="2.16303">
        <ele>824.8</ele>
        <time>2022-05-22 01:07:48</time>
      </trkpt>
      <trkpt lat="42.26529" lon="2.16299">
        <ele>824.8</ele>
        <time>2022-05-22 01:07:49</time>
      </trkpt>
      <trkpt lat="42.26532" lon="2.16296">
        <ele>825</ele>
        <time>2022-05-22 01:07:50</time>
      </trkpt>
      <trkpt lat="42.26535" lon="2.16293">
        <ele>825</ele>
        <time>2022-05-22 01:07:51</time>
      </trkpt>
      <trkpt lat="42.26539" lon="2.16288">
        <ele>825</ele>
        <time>2022-05-22 01:07:52</time>
      </trkpt>
      <trkpt lat="42.26542" lon="2.16284">
        <ele>825.2</ele>
        <time>2022-05-22 01:07:53</time>
      </trkpt>
      <trkpt lat="42.26545" lon="2.1628">
        <ele>825.2</ele>
        <time>2022-05-22 01:07:54</time>
      </trkpt>
      <trkpt lat="42.26548" lon="2.16275">
        <ele>825.4</ele>
        <time>2022-05-22 01:07:55</time>
      </trkpt>
      <trkpt lat="42.2655" lon="2.1627">
        <ele>825.4</ele>
        <time>2022-05-22 01:07:56</time>
      </trkpt>
      <trkpt lat="42.26552" lon="2.16266">
        <ele>825.4</ele>
        <time>2022-05-22 01:07:57</time>
      </trkpt>
      <trkpt lat="42.26555" lon="2.16261">
        <ele>825.4</ele>
        <time>2022-05-22 01:07:58</time>
      </trkpt>
      <trkpt lat="42.26557" lon="2.16256">
        <ele>825.4</ele>
        <time>2022-05-22 01:07:59</time>
      </trkpt>
      <trkpt lat="42.26558" lon="2.16252">
        <ele>825.6</ele>
        <time>2022-05-22 01:08:00</time>
      </trkpt>
      <trkpt lat="42.2656" lon="2.16246">
        <ele>825.6</ele>
        <time>2022-05-22 01:08:01</time>
      </trkpt>
      <trkpt lat="42.26562" lon="2.16242">
        <ele>825.6</ele>
        <time>2022-05-22 01:08:02</time>
      </trkpt>
      <trkpt lat="42.26564" lon="2.16237">
        <ele>825.6</ele>
        <time>2022-05-22 01:08:03</time>
      </trkpt>
      <trkpt lat="42.26566" lon="2.16232">
        <ele>825.8</ele>
        <time>2022-05-22 01:08:04</time>
      </trkpt>
      <trkpt lat="42.26567" lon="2.16228">
        <ele>825.8</ele>
        <time>2022-05-22 01:08:05</time>
      </trkpt>
      <trkpt lat="42.26569" lon="2.16224">
        <ele>825.8</ele>
        <time>2022-05-22 01:08:06</time>
      </trkpt>
      <trkpt lat="42.26571" lon="2.16218">
        <ele>826</ele>
        <time>2022-05-22 01:08:07</time>
      </trkpt>
      <trkpt lat="42.26573" lon="2.16214">
        <ele>826</ele>
        <time>2022-05-22 01:08:08</time>
      </trkpt>
      <trkpt lat="42.26575" lon="2.1621">
        <ele>826</ele>
        <time>2022-05-22 01:08:09</time>
      </trkpt>
      <trkpt lat="42.26576" lon="2.16205">
        <ele>826.2</ele>
        <time>2022-05-22 01:08:10</time>
      </trkpt>
      <trkpt lat="42.26578" lon="2.162">
        <ele>826.2</ele>
        <time>2022-05-22 01:08:11</time>
      </trkpt>
      <trkpt lat="42.2658" lon="2.16196">
        <ele>826.2</ele>
        <time>2022-05-22 01:08:12</time>
      </trkpt>
      <trkpt lat="42.26582" lon="2.16191">
        <ele>826.4</ele>
        <time>2022-05-22 01:08:13</time>
      </trkpt>
      <trkpt lat="42.26584" lon="2.16187">
        <ele>826.4</ele>
        <time>2022-05-22 01:08:14</time>
      </trkpt>
      <trkpt lat="42.26586" lon="2.16182">
        <ele>826.6</ele>
        <time>2022-05-22 01:08:15</time>
      </trkpt>
      <trkpt lat="42.26588" lon="2.16177">
        <ele>826.6</ele>
        <time>2022-05-22 01:08:16</time>
      </trkpt>
      <trkpt lat="42.2659" lon="2.16173">
        <ele>826.6</ele>
        <time>2022-05-22 01:08:17</time>
      </trkpt>
      <trkpt lat="42.26592" lon="2.16169">
        <ele>826.6</ele>
        <time>2022-05-22 01:08:18</time>
      </trkpt>
      <trkpt lat="42.26594" lon="2.16164">
        <ele>826.8</ele>
        <time>2022-05-22 01:08:19</time>
      </trkpt>
      <trkpt lat="42.26597" lon="2.1616">
        <ele>826.8</ele>
        <time>2022-05-22 01:08:20</time>
      </trkpt>
      <trkpt lat="42.26599" lon="2.16156">
        <ele>827</ele>
        <time>2022-05-22 01:08:21</time>
      </trkpt>
      <trkpt lat="42.26602" lon="2.16151">
        <ele>827</ele>
        <time>2022-05-22 01:08:22</time>
      </trkpt>
      <trkpt lat="42.26603" lon="2.16147">
        <ele>827</ele>
        <time>2022-05-22 01:08:23</time>
      </trkpt>
      <trkpt lat="42.26606" lon="2.16143">
        <ele>827.2</ele>
        <time>2022-05-22 01:08:24</time>
      </trkpt>
      <trkpt lat="42.26608" lon="2.16138">
        <ele>827.2</ele>
        <time>2022-05-22 01:08:25</time>
      </trkpt>
      <trkpt lat="42.26611" lon="2.16134">
        <ele>827.4</ele>
        <time>2022-05-22 01:08:26</time>
      </trkpt>
      <trkpt lat="42.26613" lon="2.1613">
        <ele>827.4</ele>
        <time>2022-05-22 01:08:27</time>
      </trkpt>
      <trkpt lat="42.26616" lon="2.16126">
        <ele>827.6</ele>
        <time>2022-05-22 01:08:28</time>
      </trkpt>
      <trkpt lat="42.26619" lon="2.16122">
        <ele>827.6</ele>
        <time>2022-05-22 01:08:29</time>
      </trkpt>
      <trkpt lat="42.26621" lon="2.16119">
        <ele>827.6</ele>
        <time>2022-05-22 01:08:30</time>
      </trkpt>
      <trkpt lat="42.26624" lon="2.16115">
        <ele>827.8</ele>
        <time>2022-05-22 01:08:31</time>
      </trkpt>
      <trkpt lat="42.26627" lon="2.16112">
        <ele>827.8</ele>
        <time>2022-05-22 01:08:32</time>
      </trkpt>
      <trkpt lat="42.2663" lon="2.16109">
        <ele>827.8</ele>
        <time>2022-05-22 01:08:33</time>
      </trkpt>
      <trkpt lat="42.26633" lon="2.16105">
        <ele>828</ele>
        <time>2022-05-22 01:08:34</time>
      </trkpt>
      <trkpt lat="42.26636" lon="2.16102">
        <ele>828</ele>
        <time>2022-05-22 01:08:35</time>
      </trkpt>
      <trkpt lat="42.26639" lon="2.161">
        <ele>828.2</ele>
        <time>2022-05-22 01:08:36</time>
      </trkpt>
      <trkpt lat="42.26642" lon="2.16096">
        <ele>828.2</ele>
        <time>2022-05-22 01:08:37</time>
      </trkpt>
      <trkpt lat="42.26645" lon="2.16094">
        <ele>828.4</ele>
        <time>2022-05-22 01:08:38</time>
      </trkpt>
      <trkpt lat="42.26648" lon="2.16091">
        <ele>828.4</ele>
        <time>2022-05-22 01:08:39</time>
      </trkpt>
      <trkpt lat="42.26651" lon="2.16088">
        <ele>828.6</ele>
        <time>2022-05-22 01:08:40</time>
      </trkpt>
      <trkpt lat="42.26653" lon="2.16086">
        <ele>828.6</ele>
        <time>2022-05-22 01:08:41</time>
      </trkpt>
      <trkpt lat="42.26656" lon="2.16083">
        <ele>828.8</ele>
        <time>2022-05-22 01:08:42</time>
      </trkpt>
      <trkpt lat="42.26659" lon="2.1608">
        <ele>829</ele>
        <time>2022-05-22 01:08:43</time>
      </trkpt>
      <trkpt lat="42.26662" lon="2.16078">
        <ele>829</ele>
        <time>2022-05-22 01:08:44</time>
      </trkpt>
      <trkpt lat="42.26665" lon="2.16076">
        <ele>829.2</ele>
        <time>2022-05-22 01:08:45</time>
      </trkpt>
      <trkpt lat="42.26668" lon="2.16073">
        <ele>829.4</ele>
        <time>2022-05-22 01:08:46</time>
      </trkpt>
      <trkpt lat="42.26671" lon="2.16072">
        <ele>829.4</ele>
        <time>2022-05-22 01:08:47</time>
      </trkpt>
      <trkpt lat="42.26674" lon="2.1607">
        <ele>829.6</ele>
        <time>2022-05-22 01:08:48</time>
      </trkpt>
      <trkpt lat="42.26677" lon="2.16067">
        <ele>829.8</ele>
        <time>2022-05-22 01:08:49</time>
      </trkpt>
      <trkpt lat="42.2668" lon="2.16065">
        <ele>830</ele>
        <time>2022-05-22 01:08:50</time>
      </trkpt>
      <trkpt lat="42.26683" lon="2.16064">
        <ele>830</ele>
        <time>2022-05-22 01:08:51</time>
      </trkpt>
      <trkpt lat="42.26686" lon="2.16062">
        <ele>830.2</ele>
        <time>2022-05-22 01:08:52</time>
      </trkpt>
      <trkpt lat="42.26689" lon="2.16061">
        <ele>830.4</ele>
        <time>2022-05-22 01:08:53</time>
      </trkpt>
      <trkpt lat="42.26692" lon="2.1606">
        <ele>830.4</ele>
        <time>2022-05-22 01:08:54</time>
      </trkpt>
      <trkpt lat="42.26699" lon="2.1606">
        <ele>830.6</ele>
        <time>2022-05-22 01:08:55</time>
      </trkpt>
      <trkpt lat="42.26706" lon="2.16061">
        <ele>830.8</ele>
        <time>2022-05-22 01:08:56</time>
      </trkpt>
      <trkpt lat="42.26708" lon="2.1606">
        <ele>830.8</ele>
        <time>2022-05-22 01:08:57</time>
      </trkpt>
      <trkpt lat="42.26711" lon="2.16058">
        <ele>831</ele>
        <time>2022-05-22 01:08:58</time>
      </trkpt>
      <trkpt lat="42.26714" lon="2.16057">
        <ele>831.2</ele>
        <time>2022-05-22 01:08:59</time>
      </trkpt>
      <trkpt lat="42.26717" lon="2.16055">
        <ele>831.2</ele>
        <time>2022-05-22 01:09:00</time>
      </trkpt>
      <trkpt lat="42.2672" lon="2.16053">
        <ele>831.4</ele>
        <time>2022-05-22 01:09:01</time>
      </trkpt>
      <trkpt lat="42.26724" lon="2.16051">
        <ele>831.6</ele>
        <time>2022-05-22 01:09:02</time>
      </trkpt>
      <trkpt lat="42.26727" lon="2.1605">
        <ele>831.6</ele>
        <time>2022-05-22 01:09:03</time>
      </trkpt>
      <trkpt lat="42.2673" lon="2.16048">
        <ele>831.8</ele>
        <time>2022-05-22 01:09:04</time>
      </trkpt>
      <trkpt lat="42.26733" lon="2.16047">
        <ele>831.8</ele>
        <time>2022-05-22 01:09:05</time>
      </trkpt>
      <trkpt lat="42.26736" lon="2.16046">
        <ele>832</ele>
        <time>2022-05-22 01:09:06</time>
      </trkpt>
      <trkpt lat="42.26738" lon="2.16044">
        <ele>832.2</ele>
        <time>2022-05-22 01:09:07</time>
      </trkpt>
      <trkpt lat="42.26742" lon="2.16042">
        <ele>832.2</ele>
        <time>2022-05-22 01:09:08</time>
      </trkpt>
      <trkpt lat="42.26745" lon="2.16041">
        <ele>832.4</ele>
        <time>2022-05-22 01:09:09</time>
      </trkpt>
      <trkpt lat="42.26748" lon="2.16039">
        <ele>832.4</ele>
        <time>2022-05-22 01:09:10</time>
      </trkpt>
      <trkpt lat="42.26751" lon="2.16037">
        <ele>832.6</ele>
        <time>2022-05-22 01:09:11</time>
      </trkpt>
      <trkpt lat="42.26754" lon="2.16035">
        <ele>832.8</ele>
        <time>2022-05-22 01:09:12</time>
      </trkpt>
      <trkpt lat="42.26757" lon="2.16034">
        <ele>832.8</ele>
        <time>2022-05-22 01:09:13</time>
      </trkpt>
      <trkpt lat="42.26762" lon="2.16032">
        <ele>833</ele>
        <time>2022-05-22 01:09:14</time>
      </trkpt>
      <trkpt lat="42.26765" lon="2.16031">
        <ele>833.2</ele>
        <time>2022-05-22 01:09:15</time>
      </trkpt>
      <trkpt lat="42.26769" lon="2.16029">
        <ele>833.2</ele>
        <time>2022-05-22 01:09:16</time>
      </trkpt>
      <trkpt lat="42.26773" lon="2.16028">
        <ele>833.4</ele>
        <time>2022-05-22 01:09:17</time>
      </trkpt>
      <trkpt lat="42.26777" lon="2.16026">
        <ele>833.4</ele>
        <time>2022-05-22 01:09:18</time>
      </trkpt>
      <trkpt lat="42.2678" lon="2.16025">
        <ele>833.6</ele>
        <time>2022-05-22 01:09:19</time>
      </trkpt>
      <trkpt lat="42.26785" lon="2.16023">
        <ele>833.8</ele>
        <time>2022-05-22 01:09:20</time>
      </trkpt>
      <trkpt lat="42.26788" lon="2.16021">
        <ele>833.8</ele>
        <time>2022-05-22 01:09:21</time>
      </trkpt>
      <trkpt lat="42.26791" lon="2.16019">
        <ele>834</ele>
        <time>2022-05-22 01:09:22</time>
      </trkpt>
      <trkpt lat="42.26795" lon="2.16017">
        <ele>834.2</ele>
        <time>2022-05-22 01:09:23</time>
      </trkpt>
      <trkpt lat="42.26798" lon="2.16015">
        <ele>834.4</ele>
        <time>2022-05-22 01:09:24</time>
      </trkpt>
      <trkpt lat="42.26802" lon="2.16013">
        <ele>834.4</ele>
        <time>2022-05-22 01:09:25</time>
      </trkpt>
      <trkpt lat="42.26806" lon="2.16011">
        <ele>834.6</ele>
        <time>2022-05-22 01:09:26</time>
      </trkpt>
      <trkpt lat="42.26809" lon="2.1601">
        <ele>834.8</ele>
        <time>2022-05-22 01:09:27</time>
      </trkpt>
      <trkpt lat="42.26812" lon="2.16008">
        <ele>835</ele>
        <time>2022-05-22 01:09:28</time>
      </trkpt>
      <trkpt lat="42.26816" lon="2.16005">
        <ele>835</ele>
        <time>2022-05-22 01:09:29</time>
      </trkpt>
      <trkpt lat="42.26819" lon="2.16003">
        <ele>835.2</ele>
        <time>2022-05-22 01:09:30</time>
      </trkpt>
      <trkpt lat="42.26823" lon="2.16001">
        <ele>835.4</ele>
        <time>2022-05-22 01:09:31</time>
      </trkpt>
      <trkpt lat="42.26826" lon="2.15999">
        <ele>835.6</ele>
        <time>2022-05-22 01:09:32</time>
      </trkpt>
      <trkpt lat="42.26829" lon="2.15997">
        <ele>835.8</ele>
        <time>2022-05-22 01:09:33</time>
      </trkpt>
      <trkpt lat="42.26833" lon="2.15995">
        <ele>835.8</ele>
        <time>2022-05-22 01:09:34</time>
      </trkpt>
      <trkpt lat="42.26836" lon="2.15993">
        <ele>836</ele>
        <time>2022-05-22 01:09:35</time>
      </trkpt>
      <trkpt lat="42.26839" lon="2.15991">
        <ele>836.2</ele>
        <time>2022-05-22 01:09:36</time>
      </trkpt>
      <trkpt lat="42.26842" lon="2.15989">
        <ele>836.2</ele>
        <time>2022-05-22 01:09:37</time>
      </trkpt>
      <trkpt lat="42.26845" lon="2.15987">
        <ele>836.4</ele>
        <time>2022-05-22 01:09:38</time>
      </trkpt>
      <trkpt lat="42.26848" lon="2.15985">
        <ele>836.6</ele>
        <time>2022-05-22 01:09:39</time>
      </trkpt>
      <trkpt lat="42.26851" lon="2.15984">
        <ele>836.6</ele>
        <time>2022-05-22 01:09:40</time>
      </trkpt>
      <trkpt lat="42.26855" lon="2.15982">
        <ele>836.8</ele>
        <time>2022-05-22 01:09:41</time>
      </trkpt>
      <trkpt lat="42.26858" lon="2.15981">
        <ele>837</ele>
        <time>2022-05-22 01:09:42</time>
      </trkpt>
      <trkpt lat="42.26861" lon="2.15979">
        <ele>837.2</ele>
        <time>2022-05-22 01:09:43</time>
      </trkpt>
      <trkpt lat="42.26864" lon="2.15977">
        <ele>837.4</ele>
        <time>2022-05-22 01:09:44</time>
      </trkpt>
      <trkpt lat="42.26866" lon="2.15975">
        <ele>837.6</ele>
        <time>2022-05-22 01:09:45</time>
      </trkpt>
      <trkpt lat="42.26869" lon="2.15974">
        <ele>837.6</ele>
        <time>2022-05-22 01:09:46</time>
      </trkpt>
      <trkpt lat="42.26871" lon="2.15972">
        <ele>837.8</ele>
        <time>2022-05-22 01:09:47</time>
      </trkpt>
      <trkpt lat="42.26874" lon="2.15971">
        <ele>838</ele>
        <time>2022-05-22 01:09:48</time>
      </trkpt>
      <trkpt lat="42.26876" lon="2.1597">
        <ele>838</ele>
        <time>2022-05-22 01:09:49</time>
      </trkpt>
      <trkpt lat="42.26878" lon="2.15969">
        <ele>838.2</ele>
        <time>2022-05-22 01:09:50</time>
      </trkpt>
      <trkpt lat="42.26881" lon="2.15967">
        <ele>838.2</ele>
        <time>2022-05-22 01:09:51</time>
      </trkpt>
      <trkpt lat="42.26883" lon="2.15966">
        <ele>838.4</ele>
        <time>2022-05-22 01:09:52</time>
      </trkpt>
      <trkpt lat="42.26885" lon="2.15965">
        <ele>838.6</ele>
        <time>2022-05-22 01:09:53</time>
      </trkpt>
      <trkpt lat="42.26887" lon="2.15964">
        <ele>838.6</ele>
        <time>2022-05-22 01:09:54</time>
      </trkpt>
      <trkpt lat="42.2689" lon="2.15963">
        <ele>838.8</ele>
        <time>2022-05-22 01:09:55</time>
      </trkpt>
      <trkpt lat="42.26893" lon="2.15962">
        <ele>839</ele>
        <time>2022-05-22 01:09:56</time>
      </trkpt>
      <trkpt lat="42.26895" lon="2.15961">
        <ele>839</ele>
        <time>2022-05-22 01:09:57</time>
      </trkpt>
      <trkpt lat="42.26898" lon="2.1596">
        <ele>839.2</ele>
        <time>2022-05-22 01:09:58</time>
      </trkpt>
      <trkpt lat="42.26901" lon="2.15959">
        <ele>839.2</ele>
        <time>2022-05-22 01:09:59</time>
      </trkpt>
      <trkpt lat="42.26903" lon="2.15958">
        <ele>839.4</ele>
        <time>2022-05-22 01:10:00</time>
      </trkpt>
      <trkpt lat="42.26905" lon="2.15957">
        <ele>839.4</ele>
        <time>2022-05-22 01:10:01</time>
      </trkpt>
      <trkpt lat="42.26908" lon="2.15956">
        <ele>839.6</ele>
        <time>2022-05-22 01:10:02</time>
      </trkpt>
      <trkpt lat="42.2691" lon="2.15955">
        <ele>839.6</ele>
        <time>2022-05-22 01:10:03</time>
      </trkpt>
      <trkpt lat="42.26913" lon="2.15954">
        <ele>839.6</ele>
        <time>2022-05-22 01:10:04</time>
      </trkpt>
      <trkpt lat="42.26915" lon="2.15953">
        <ele>839.6</ele>
        <time>2022-05-22 01:10:05</time>
      </trkpt>
      <trkpt lat="42.26918" lon="2.15952">
        <ele>839.8</ele>
        <time>2022-05-22 01:10:06</time>
      </trkpt>
      <trkpt lat="42.26921" lon="2.15951">
        <ele>839.8</ele>
        <time>2022-05-22 01:10:07</time>
      </trkpt>
      <trkpt lat="42.26924" lon="2.15951">
        <ele>840</ele>
        <time>2022-05-22 01:10:08</time>
      </trkpt>
      <trkpt lat="42.26927" lon="2.1595">
        <ele>840</ele>
        <time>2022-05-22 01:10:09</time>
      </trkpt>
      <trkpt lat="42.26929" lon="2.15949">
        <ele>840</ele>
        <time>2022-05-22 01:10:10</time>
      </trkpt>
      <trkpt lat="42.26932" lon="2.15948">
        <ele>840</ele>
        <time>2022-05-22 01:10:11</time>
      </trkpt>
      <trkpt lat="42.26935" lon="2.15947">
        <ele>840.2</ele>
        <time>2022-05-22 01:10:12</time>
      </trkpt>
      <trkpt lat="42.26938" lon="2.15947">
        <ele>840.2</ele>
        <time>2022-05-22 01:10:13</time>
      </trkpt>
      <trkpt lat="42.26941" lon="2.15946">
        <ele>840.4</ele>
        <time>2022-05-22 01:10:14</time>
      </trkpt>
      <trkpt lat="42.26944" lon="2.15945">
        <ele>840.4</ele>
        <time>2022-05-22 01:10:15</time>
      </trkpt>
      <trkpt lat="42.26946" lon="2.15945">
        <ele>840.4</ele>
        <time>2022-05-22 01:10:16</time>
      </trkpt>
      <trkpt lat="42.26949" lon="2.15944">
        <ele>840.4</ele>
        <time>2022-05-22 01:10:17</time>
      </trkpt>
      <trkpt lat="42.26952" lon="2.15943">
        <ele>840.4</ele>
        <time>2022-05-22 01:10:18</time>
      </trkpt>
      <trkpt lat="42.26955" lon="2.15942">
        <ele>840.6</ele>
        <time>2022-05-22 01:10:19</time>
      </trkpt>
      <trkpt lat="42.26958" lon="2.15942">
        <ele>840.6</ele>
        <time>2022-05-22 01:10:20</time>
      </trkpt>
      <trkpt lat="42.26961" lon="2.15941">
        <ele>840.6</ele>
        <time>2022-05-22 01:10:21</time>
      </trkpt>
      <trkpt lat="42.26964" lon="2.15941">
        <ele>840.6</ele>
        <time>2022-05-22 01:10:22</time>
      </trkpt>
      <trkpt lat="42.26968" lon="2.1594">
        <ele>840.6</ele>
        <time>2022-05-22 01:10:23</time>
      </trkpt>
      <trkpt lat="42.2697" lon="2.15939">
        <ele>840.4</ele>
        <time>2022-05-22 01:10:24</time>
      </trkpt>
      <trkpt lat="42.26972" lon="2.15937">
        <ele>840.4</ele>
        <time>2022-05-22 01:10:25</time>
      </trkpt>
      <trkpt lat="42.26976" lon="2.15937">
        <ele>840.4</ele>
        <time>2022-05-22 01:10:26</time>
      </trkpt>
      <trkpt lat="42.2698" lon="2.15938">
        <ele>840.2</ele>
        <time>2022-05-22 01:10:27</time>
      </trkpt>
      <trkpt lat="42.26983" lon="2.15938">
        <ele>840.2</ele>
        <time>2022-05-22 01:10:28</time>
      </trkpt>
      <trkpt lat="42.26987" lon="2.15939">
        <ele>840.2</ele>
        <time>2022-05-22 01:10:29</time>
      </trkpt>
      <trkpt lat="42.26991" lon="2.1594">
        <ele>840.2</ele>
        <time>2022-05-22 01:10:30</time>
      </trkpt>
      <trkpt lat="42.26995" lon="2.15941">
        <ele>840.2</ele>
        <time>2022-05-22 01:10:31</time>
      </trkpt>
      <trkpt lat="42.26999" lon="2.15941">
        <ele>840.2</ele>
        <time>2022-05-22 01:10:32</time>
      </trkpt>
      <trkpt lat="42.27004" lon="2.15942">
        <ele>840.2</ele>
        <time>2022-05-22 01:10:33</time>
      </trkpt>
      <trkpt lat="42.27008" lon="2.15942">
        <ele>840</ele>
        <time>2022-05-22 01:10:34</time>
      </trkpt>
      <trkpt lat="42.27012" lon="2.15941">
        <ele>840</ele>
        <time>2022-05-22 01:10:35</time>
      </trkpt>
      <trkpt lat="42.27018" lon="2.15941">
        <ele>840</ele>
        <time>2022-05-22 01:10:36</time>
      </trkpt>
      <trkpt lat="42.27022" lon="2.15941">
        <ele>840</ele>
        <time>2022-05-22 01:10:37</time>
      </trkpt>
      <trkpt lat="42.27027" lon="2.15941">
        <ele>839.8</ele>
        <time>2022-05-22 01:10:38</time>
      </trkpt>
      <trkpt lat="42.27031" lon="2.1594">
        <ele>839.8</ele>
        <time>2022-05-22 01:10:39</time>
      </trkpt>
      <trkpt lat="42.27036" lon="2.15939">
        <ele>839.8</ele>
        <time>2022-05-22 01:10:40</time>
      </trkpt>
      <trkpt lat="42.27041" lon="2.15938">
        <ele>839.8</ele>
        <time>2022-05-22 01:10:41</time>
      </trkpt>
      <trkpt lat="42.27046" lon="2.15937">
        <ele>839.8</ele>
        <time>2022-05-22 01:10:42</time>
      </trkpt>
      <trkpt lat="42.27051" lon="2.15935">
        <ele>839.8</ele>
        <time>2022-05-22 01:10:43</time>
      </trkpt>
      <trkpt lat="42.27056" lon="2.15934">
        <ele>840</ele>
        <time>2022-05-22 01:10:44</time>
      </trkpt>
      <trkpt lat="42.27061" lon="2.15933">
        <ele>840</ele>
        <time>2022-05-22 01:10:45</time>
      </trkpt>
      <trkpt lat="42.27065" lon="2.15933">
        <ele>840</ele>
        <time>2022-05-22 01:10:46</time>
      </trkpt>
      <trkpt lat="42.2707" lon="2.15934">
        <ele>840.2</ele>
        <time>2022-05-22 01:10:47</time>
      </trkpt>
      <trkpt lat="42.27074" lon="2.15935">
        <ele>840.2</ele>
        <time>2022-05-22 01:10:48</time>
      </trkpt>
      <trkpt lat="42.27077" lon="2.15935">
        <ele>840.4</ele>
        <time>2022-05-22 01:10:49</time>
      </trkpt>
      <trkpt lat="42.27082" lon="2.15936">
        <ele>840.4</ele>
        <time>2022-05-22 01:10:50</time>
      </trkpt>
      <trkpt lat="42.27087" lon="2.15937">
        <ele>840.6</ele>
        <time>2022-05-22 01:10:51</time>
      </trkpt>
      <trkpt lat="42.2709" lon="2.15937">
        <ele>840.6</ele>
        <time>2022-05-22 01:10:52</time>
      </trkpt>
      <trkpt lat="42.27093" lon="2.15938">
        <ele>840.8</ele>
        <time>2022-05-22 01:10:53</time>
      </trkpt>
      <trkpt lat="42.27097" lon="2.15939">
        <ele>840.8</ele>
        <time>2022-05-22 01:10:54</time>
      </trkpt>
      <trkpt lat="42.27101" lon="2.15938">
        <ele>841</ele>
        <time>2022-05-22 01:10:55</time>
      </trkpt>
      <trkpt lat="42.27105" lon="2.15937">
        <ele>841</ele>
        <time>2022-05-22 01:10:56</time>
      </trkpt>
      <trkpt lat="42.2711" lon="2.15936">
        <ele>841.2</ele>
        <time>2022-05-22 01:10:57</time>
      </trkpt>
      <trkpt lat="42.27115" lon="2.15936">
        <ele>841.4</ele>
        <time>2022-05-22 01:10:58</time>
      </trkpt>
      <trkpt lat="42.2712" lon="2.15937">
        <ele>841.4</ele>
        <time>2022-05-22 01:10:59</time>
      </trkpt>
      <trkpt lat="42.27124" lon="2.15939">
        <ele>841.6</ele>
        <time>2022-05-22 01:11:00</time>
      </trkpt>
      <trkpt lat="42.27129" lon="2.1594">
        <ele>841.8</ele>
        <time>2022-05-22 01:11:01</time>
      </trkpt>
      <trkpt lat="42.27134" lon="2.15941">
        <ele>842</ele>
        <time>2022-05-22 01:11:02</time>
      </trkpt>
      <trkpt lat="42.27139" lon="2.15944">
        <ele>842.2</ele>
        <time>2022-05-22 01:11:03</time>
      </trkpt>
      <trkpt lat="42.27143" lon="2.15946">
        <ele>842.2</ele>
        <time>2022-05-22 01:11:04</time>
      </trkpt>
      <trkpt lat="42.27148" lon="2.15948">
        <ele>842.4</ele>
        <time>2022-05-22 01:11:05</time>
      </trkpt>
      <trkpt lat="42.27152" lon="2.15949">
        <ele>842.6</ele>
        <time>2022-05-22 01:11:06</time>
      </trkpt>
      <trkpt lat="42.27157" lon="2.15951">
        <ele>842.6</ele>
        <time>2022-05-22 01:11:07</time>
      </trkpt>
      <trkpt lat="42.27161" lon="2.15953">
        <ele>842.8</ele>
        <time>2022-05-22 01:11:08</time>
      </trkpt>
      <trkpt lat="42.27166" lon="2.15955">
        <ele>842.8</ele>
        <time>2022-05-22 01:11:09</time>
      </trkpt>
      <trkpt lat="42.27171" lon="2.15956">
        <ele>843</ele>
        <time>2022-05-22 01:11:10</time>
      </trkpt>
      <trkpt lat="42.27176" lon="2.15958">
        <ele>843</ele>
        <time>2022-05-22 01:11:11</time>
      </trkpt>
      <trkpt lat="42.27181" lon="2.15959">
        <ele>843.2</ele>
        <time>2022-05-22 01:11:12</time>
      </trkpt>
      <trkpt lat="42.27186" lon="2.1596">
        <ele>843.2</ele>
        <time>2022-05-22 01:11:13</time>
      </trkpt>
      <trkpt lat="42.27191" lon="2.15961">
        <ele>843.2</ele>
        <time>2022-05-22 01:11:14</time>
      </trkpt>
      <trkpt lat="42.27197" lon="2.1596">
        <ele>843.2</ele>
        <time>2022-05-22 01:11:15</time>
      </trkpt>
      <trkpt lat="42.27202" lon="2.15959">
        <ele>843.4</ele>
        <time>2022-05-22 01:11:16</time>
      </trkpt>
      <trkpt lat="42.27208" lon="2.15958">
        <ele>843.4</ele>
        <time>2022-05-22 01:11:17</time>
      </trkpt>
      <trkpt lat="42.27213" lon="2.15957">
        <ele>843.4</ele>
        <time>2022-05-22 01:11:18</time>
      </trkpt>
      <trkpt lat="42.27218" lon="2.15956">
        <ele>843.4</ele>
        <time>2022-05-22 01:11:19</time>
      </trkpt>
      <trkpt lat="42.27223" lon="2.15954">
        <ele>843.4</ele>
        <time>2022-05-22 01:11:20</time>
      </trkpt>
      <trkpt lat="42.27228" lon="2.15952">
        <ele>843.4</ele>
        <time>2022-05-22 01:11:21</time>
      </trkpt>
      <trkpt lat="42.27233" lon="2.1595">
        <ele>843.4</ele>
        <time>2022-05-22 01:11:22</time>
      </trkpt>
      <trkpt lat="42.27239" lon="2.15948">
        <ele>843.2</ele>
        <time>2022-05-22 01:11:23</time>
      </trkpt>
      <trkpt lat="42.27243" lon="2.15945">
        <ele>843.2</ele>
        <time>2022-05-22 01:11:24</time>
      </trkpt>
      <trkpt lat="42.27249" lon="2.15943">
        <ele>843.2</ele>
        <time>2022-05-22 01:11:25</time>
      </trkpt>
      <trkpt lat="42.27254" lon="2.1594">
        <ele>843</ele>
        <time>2022-05-22 01:11:26</time>
      </trkpt>
      <trkpt lat="42.27259" lon="2.15938">
        <ele>843</ele>
        <time>2022-05-22 01:11:27</time>
      </trkpt>
      <trkpt lat="42.27264" lon="2.15935">
        <ele>843</ele>
        <time>2022-05-22 01:11:28</time>
      </trkpt>
      <trkpt lat="42.27269" lon="2.15933">
        <ele>843</ele>
        <time>2022-05-22 01:11:29</time>
      </trkpt>
      <trkpt lat="42.27274" lon="2.1593">
        <ele>843.2</ele>
        <time>2022-05-22 01:11:30</time>
      </trkpt>
      <trkpt lat="42.27279" lon="2.15928">
        <ele>843.2</ele>
        <time>2022-05-22 01:11:31</time>
      </trkpt>
      <trkpt lat="42.27283" lon="2.15926">
        <ele>843.2</ele>
        <time>2022-05-22 01:11:32</time>
      </trkpt>
      <trkpt lat="42.27289" lon="2.15923">
        <ele>843.2</ele>
        <time>2022-05-22 01:11:33</time>
      </trkpt>
      <trkpt lat="42.27294" lon="2.15921">
        <ele>843.2</ele>
        <time>2022-05-22 01:11:34</time>
      </trkpt>
      <trkpt lat="42.27299" lon="2.15919">
        <ele>843.4</ele>
        <time>2022-05-22 01:11:35</time>
      </trkpt>
      <trkpt lat="42.27304" lon="2.15917">
        <ele>843.4</ele>
        <time>2022-05-22 01:11:36</time>
      </trkpt>
      <trkpt lat="42.27309" lon="2.15915">
        <ele>843.4</ele>
        <time>2022-05-22 01:11:37</time>
      </trkpt>
      <trkpt lat="42.27314" lon="2.15914">
        <ele>843.4</ele>
        <time>2022-05-22 01:11:38</time>
      </trkpt>
      <trkpt lat="42.27319" lon="2.15912">
        <ele>843.4</ele>
        <time>2022-05-22 01:11:39</time>
      </trkpt>
      <trkpt lat="42.27324" lon="2.15911">
        <ele>843.6</ele>
        <time>2022-05-22 01:11:40</time>
      </trkpt>
      <trkpt lat="42.27329" lon="2.15909">
        <ele>843.6</ele>
        <time>2022-05-22 01:11:41</time>
      </trkpt>
      <trkpt lat="42.27334" lon="2.15909">
        <ele>843.6</ele>
        <time>2022-05-22 01:11:42</time>
      </trkpt>
      <trkpt lat="42.27339" lon="2.15908">
        <ele>843.6</ele>
        <time>2022-05-22 01:11:43</time>
      </trkpt>
      <trkpt lat="42.27344" lon="2.15909">
        <ele>843.8</ele>
        <time>2022-05-22 01:11:44</time>
      </trkpt>
      <trkpt lat="42.27349" lon="2.1591">
        <ele>843.8</ele>
        <time>2022-05-22 01:11:45</time>
      </trkpt>
      <trkpt lat="42.27354" lon="2.15911">
        <ele>843.8</ele>
        <time>2022-05-22 01:11:46</time>
      </trkpt>
      <trkpt lat="42.27359" lon="2.15912">
        <ele>844</ele>
        <time>2022-05-22 01:11:47</time>
      </trkpt>
      <trkpt lat="42.27363" lon="2.15913">
        <ele>844</ele>
        <time>2022-05-22 01:11:48</time>
      </trkpt>
      <trkpt lat="42.27367" lon="2.15915">
        <ele>844.2</ele>
        <time>2022-05-22 01:11:49</time>
      </trkpt>
      <trkpt lat="42.27372" lon="2.15917">
        <ele>844.2</ele>
        <time>2022-05-22 01:11:50</time>
      </trkpt>
      <trkpt lat="42.27377" lon="2.15919">
        <ele>844.2</ele>
        <time>2022-05-22 01:11:51</time>
      </trkpt>
      <trkpt lat="42.27382" lon="2.15921">
        <ele>844.4</ele>
        <time>2022-05-22 01:11:52</time>
      </trkpt>
      <trkpt lat="42.27387" lon="2.15923">
        <ele>844.4</ele>
        <time>2022-05-22 01:11:53</time>
      </trkpt>
      <trkpt lat="42.27391" lon="2.15925">
        <ele>844.6</ele>
        <time>2022-05-22 01:11:54</time>
      </trkpt>
      <trkpt lat="42.27395" lon="2.15928">
        <ele>844.6</ele>
        <time>2022-05-22 01:11:55</time>
      </trkpt>
      <trkpt lat="42.27399" lon="2.15931">
        <ele>844.8</ele>
        <time>2022-05-22 01:11:56</time>
      </trkpt>
      <trkpt lat="42.27403" lon="2.15934">
        <ele>845</ele>
        <time>2022-05-22 01:11:57</time>
      </trkpt>
      <trkpt lat="42.27408" lon="2.15938">
        <ele>845</ele>
        <time>2022-05-22 01:11:58</time>
      </trkpt>
      <trkpt lat="42.27412" lon="2.15941">
        <ele>845.2</ele>
        <time>2022-05-22 01:11:59</time>
      </trkpt>
      <trkpt lat="42.27415" lon="2.15945">
        <ele>845.4</ele>
        <time>2022-05-22 01:12:00</time>
      </trkpt>
      <trkpt lat="42.27418" lon="2.15948">
        <ele>845.6</ele>
        <time>2022-05-22 01:12:01</time>
      </trkpt>
      <trkpt lat="42.2742" lon="2.15952">
        <ele>845.6</ele>
        <time>2022-05-22 01:12:02</time>
      </trkpt>
      <trkpt lat="42.27422" lon="2.15956">
        <ele>845.8</ele>
        <time>2022-05-22 01:12:03</time>
      </trkpt>
      <trkpt lat="42.27425" lon="2.15959">
        <ele>846</ele>
        <time>2022-05-22 01:12:04</time>
      </trkpt>
      <trkpt lat="42.27428" lon="2.15962">
        <ele>846</ele>
        <time>2022-05-22 01:12:05</time>
      </trkpt>
      <trkpt lat="42.27431" lon="2.15965">
        <ele>846.2</ele>
        <time>2022-05-22 01:12:06</time>
      </trkpt>
      <trkpt lat="42.27434" lon="2.15968">
        <ele>846.4</ele>
        <time>2022-05-22 01:12:07</time>
      </trkpt>
      <trkpt lat="42.27437" lon="2.15971">
        <ele>846.6</ele>
        <time>2022-05-22 01:12:08</time>
      </trkpt>
      <trkpt lat="42.2744" lon="2.15974">
        <ele>846.6</ele>
        <time>2022-05-22 01:12:09</time>
      </trkpt>
      <trkpt lat="42.27444" lon="2.15976">
        <ele>846.8</ele>
        <time>2022-05-22 01:12:10</time>
      </trkpt>
      <trkpt lat="42.27447" lon="2.15978">
        <ele>847</ele>
        <time>2022-05-22 01:12:11</time>
      </trkpt>
      <trkpt lat="42.2745" lon="2.1598">
        <ele>847</ele>
        <time>2022-05-22 01:12:12</time>
      </trkpt>
      <trkpt lat="42.27453" lon="2.15982">
        <ele>847.2</ele>
        <time>2022-05-22 01:12:13</time>
      </trkpt>
      <trkpt lat="42.27456" lon="2.15983">
        <ele>847.4</ele>
        <time>2022-05-22 01:12:14</time>
      </trkpt>
      <trkpt lat="42.27459" lon="2.15985">
        <ele>847.4</ele>
        <time>2022-05-22 01:12:15</time>
      </trkpt>
      <trkpt lat="42.27462" lon="2.15987">
        <ele>847.6</ele>
        <time>2022-05-22 01:12:16</time>
      </trkpt>
      <trkpt lat="42.27465" lon="2.15988">
        <ele>847.8</ele>
        <time>2022-05-22 01:12:17</time>
      </trkpt>
      <trkpt lat="42.27468" lon="2.15988">
        <ele>847.8</ele>
        <time>2022-05-22 01:12:18</time>
      </trkpt>
      <trkpt lat="42.27471" lon="2.15989">
        <ele>848</ele>
        <time>2022-05-22 01:12:19</time>
      </trkpt>
      <trkpt lat="42.27474" lon="2.1599">
        <ele>848</ele>
        <time>2022-05-22 01:12:20</time>
      </trkpt>
      <trkpt lat="42.27478" lon="2.1599">
        <ele>848.2</ele>
        <time>2022-05-22 01:12:21</time>
      </trkpt>
      <trkpt lat="42.27481" lon="2.15991">
        <ele>848.2</ele>
        <time>2022-05-22 01:12:22</time>
      </trkpt>
      <trkpt lat="42.27484" lon="2.15992">
        <ele>848.4</ele>
        <time>2022-05-22 01:12:23</time>
      </trkpt>
      <trkpt lat="42.27488" lon="2.15993">
        <ele>848.4</ele>
        <time>2022-05-22 01:12:24</time>
      </trkpt>
      <trkpt lat="42.27491" lon="2.15994">
        <ele>848.6</ele>
        <time>2022-05-22 01:12:25</time>
      </trkpt>
      <trkpt lat="42.27495" lon="2.15995">
        <ele>848.6</ele>
        <time>2022-05-22 01:12:26</time>
      </trkpt>
      <trkpt lat="42.27498" lon="2.15996">
        <ele>848.8</ele>
        <time>2022-05-22 01:12:27</time>
      </trkpt>
      <trkpt lat="42.27502" lon="2.15996">
        <ele>848.8</ele>
        <time>2022-05-22 01:12:28</time>
      </trkpt>
      <trkpt lat="42.27506" lon="2.15996">
        <ele>849</ele>
        <time>2022-05-22 01:12:29</time>
      </trkpt>
      <trkpt lat="42.2751" lon="2.15997">
        <ele>849</ele>
        <time>2022-05-22 01:12:30</time>
      </trkpt>
      <trkpt lat="42.27514" lon="2.15998">
        <ele>849.2</ele>
        <time>2022-05-22 01:12:31</time>
      </trkpt>
      <trkpt lat="42.27518" lon="2.15999">
        <ele>849.2</ele>
        <time>2022-05-22 01:12:32</time>
      </trkpt>
      <trkpt lat="42.27521" lon="2.15999">
        <ele>849.4</ele>
        <time>2022-05-22 01:12:33</time>
      </trkpt>
      <trkpt lat="42.27525" lon="2.16">
        <ele>849.4</ele>
        <time>2022-05-22 01:12:34</time>
      </trkpt>
      <trkpt lat="42.27529" lon="2.16">
        <ele>849.6</ele>
        <time>2022-05-22 01:12:35</time>
      </trkpt>
      <trkpt lat="42.27533" lon="2.16001">
        <ele>849.8</ele>
        <time>2022-05-22 01:12:36</time>
      </trkpt>
      <trkpt lat="42.27537" lon="2.16001">
        <ele>849.8</ele>
        <time>2022-05-22 01:12:37</time>
      </trkpt>
      <trkpt lat="42.27541" lon="2.16001">
        <ele>850</ele>
        <time>2022-05-22 01:12:38</time>
      </trkpt>
      <trkpt lat="42.27545" lon="2.16001">
        <ele>850</ele>
        <time>2022-05-22 01:12:39</time>
      </trkpt>
      <trkpt lat="42.27549" lon="2.16001">
        <ele>850.2</ele>
        <time>2022-05-22 01:12:40</time>
      </trkpt>
      <trkpt lat="42.27554" lon="2.16002">
        <ele>850.4</ele>
        <time>2022-05-22 01:12:41</time>
      </trkpt>
      <trkpt lat="42.27559" lon="2.16001">
        <ele>850.4</ele>
        <time>2022-05-22 01:12:42</time>
      </trkpt>
      <trkpt lat="42.27563" lon="2.16001">
        <ele>850.6</ele>
        <time>2022-05-22 01:12:43</time>
      </trkpt>
      <trkpt lat="42.27567" lon="2.16001">
        <ele>850.6</ele>
        <time>2022-05-22 01:12:44</time>
      </trkpt>
      <trkpt lat="42.27571" lon="2.16">
        <ele>850.8</ele>
        <time>2022-05-22 01:12:45</time>
      </trkpt>
      <trkpt lat="42.27575" lon="2.16">
        <ele>850.8</ele>
        <time>2022-05-22 01:12:46</time>
      </trkpt>
      <trkpt lat="42.27579" lon="2.16">
        <ele>851</ele>
        <time>2022-05-22 01:12:47</time>
      </trkpt>
      <trkpt lat="42.27583" lon="2.15998">
        <ele>851</ele>
        <time>2022-05-22 01:12:48</time>
      </trkpt>
      <trkpt lat="42.27586" lon="2.15997">
        <ele>851.2</ele>
        <time>2022-05-22 01:12:49</time>
      </trkpt>
      <trkpt lat="42.2759" lon="2.15995">
        <ele>851.4</ele>
        <time>2022-05-22 01:12:50</time>
      </trkpt>
      <trkpt lat="42.27594" lon="2.15993">
        <ele>851.4</ele>
        <time>2022-05-22 01:12:51</time>
      </trkpt>
      <trkpt lat="42.27598" lon="2.15992">
        <ele>851.6</ele>
        <time>2022-05-22 01:12:52</time>
      </trkpt>
      <trkpt lat="42.27602" lon="2.15991">
        <ele>851.6</ele>
        <time>2022-05-22 01:12:53</time>
      </trkpt>
      <trkpt lat="42.27607" lon="2.1599">
        <ele>851.6</ele>
        <time>2022-05-22 01:12:54</time>
      </trkpt>
      <trkpt lat="42.27611" lon="2.15988">
        <ele>851.8</ele>
        <time>2022-05-22 01:12:55</time>
      </trkpt>
      <trkpt lat="42.27616" lon="2.15987">
        <ele>852</ele>
        <time>2022-05-22 01:12:56</time>
      </trkpt>
      <trkpt lat="42.2762" lon="2.15986">
        <ele>852</ele>
        <time>2022-05-22 01:12:57</time>
      </trkpt>
      <trkpt lat="42.27625" lon="2.15985">
        <ele>852.2</ele>
        <time>2022-05-22 01:12:58</time>
      </trkpt>
      <trkpt lat="42.27629" lon="2.15983">
        <ele>852.2</ele>
        <time>2022-05-22 01:12:59</time>
      </trkpt>
      <trkpt lat="42.27632" lon="2.15982">
        <ele>852.4</ele>
        <time>2022-05-22 01:13:00</time>
      </trkpt>
      <trkpt lat="42.27636" lon="2.15981">
        <ele>852.4</ele>
        <time>2022-05-22 01:13:01</time>
      </trkpt>
      <trkpt lat="42.2764" lon="2.15979">
        <ele>852.6</ele>
        <time>2022-05-22 01:13:02</time>
      </trkpt>
      <trkpt lat="42.27644" lon="2.15978">
        <ele>852.6</ele>
        <time>2022-05-22 01:13:03</time>
      </trkpt>
      <trkpt lat="42.27647" lon="2.15977">
        <ele>852.8</ele>
        <time>2022-05-22 01:13:04</time>
      </trkpt>
      <trkpt lat="42.27651" lon="2.15976">
        <ele>852.8</ele>
        <time>2022-05-22 01:13:05</time>
      </trkpt>
      <trkpt lat="42.27654" lon="2.15975">
        <ele>853</ele>
        <time>2022-05-22 01:13:06</time>
      </trkpt>
      <trkpt lat="42.27658" lon="2.15974">
        <ele>853</ele>
        <time>2022-05-22 01:13:07</time>
      </trkpt>
      <trkpt lat="42.27662" lon="2.15972">
        <ele>853.2</ele>
        <time>2022-05-22 01:13:08</time>
      </trkpt>
      <trkpt lat="42.27665" lon="2.15971">
        <ele>853.2</ele>
        <time>2022-05-22 01:13:09</time>
      </trkpt>
      <trkpt lat="42.27668" lon="2.15969">
        <ele>853.4</ele>
        <time>2022-05-22 01:13:10</time>
      </trkpt>
      <trkpt lat="42.27671" lon="2.15968">
        <ele>853.4</ele>
        <time>2022-05-22 01:13:11</time>
      </trkpt>
      <trkpt lat="42.27674" lon="2.15967">
        <ele>853.6</ele>
        <time>2022-05-22 01:13:12</time>
      </trkpt>
      <trkpt lat="42.27677" lon="2.15966">
        <ele>853.6</ele>
        <time>2022-05-22 01:13:13</time>
      </trkpt>
      <trkpt lat="42.2768" lon="2.15965">
        <ele>853.8</ele>
        <time>2022-05-22 01:13:14</time>
      </trkpt>
      <trkpt lat="42.27683" lon="2.15964">
        <ele>853.8</ele>
        <time>2022-05-22 01:13:15</time>
      </trkpt>
      <trkpt lat="42.27687" lon="2.15963">
        <ele>854</ele>
        <time>2022-05-22 01:13:16</time>
      </trkpt>
      <trkpt lat="42.2769" lon="2.15963">
        <ele>854.2</ele>
        <time>2022-05-22 01:13:17</time>
      </trkpt>
      <trkpt lat="42.27694" lon="2.15963">
        <ele>854.2</ele>
        <time>2022-05-22 01:13:18</time>
      </trkpt>
      <trkpt lat="42.27698" lon="2.15962">
        <ele>854.4</ele>
        <time>2022-05-22 01:13:19</time>
      </trkpt>
      <trkpt lat="42.27701" lon="2.15962">
        <ele>854.6</ele>
        <time>2022-05-22 01:13:20</time>
      </trkpt>
      <trkpt lat="42.27706" lon="2.15961">
        <ele>854.6</ele>
        <time>2022-05-22 01:13:21</time>
      </trkpt>
      <trkpt lat="42.2771" lon="2.1596">
        <ele>854.8</ele>
        <time>2022-05-22 01:13:22</time>
      </trkpt>
      <trkpt lat="42.27713" lon="2.1596">
        <ele>855</ele>
        <time>2022-05-22 01:13:23</time>
      </trkpt>
      <trkpt lat="42.27717" lon="2.1596">
        <ele>855</ele>
        <time>2022-05-22 01:13:24</time>
      </trkpt>
      <trkpt lat="42.27721" lon="2.15959">
        <ele>855.2</ele>
        <time>2022-05-22 01:13:25</time>
      </trkpt>
      <trkpt lat="42.27724" lon="2.15959">
        <ele>855.2</ele>
        <time>2022-05-22 01:13:26</time>
      </trkpt>
      <trkpt lat="42.27728" lon="2.15959">
        <ele>855.4</ele>
        <time>2022-05-22 01:13:27</time>
      </trkpt>
      <trkpt lat="42.27731" lon="2.15959">
        <ele>855.4</ele>
        <time>2022-05-22 01:13:28</time>
      </trkpt>
      <trkpt lat="42.27735" lon="2.15958">
        <ele>855.6</ele>
        <time>2022-05-22 01:13:29</time>
      </trkpt>
      <trkpt lat="42.27739" lon="2.15958">
        <ele>855.6</ele>
        <time>2022-05-22 01:13:30</time>
      </trkpt>
      <trkpt lat="42.27743" lon="2.15957">
        <ele>855.8</ele>
        <time>2022-05-22 01:13:31</time>
      </trkpt>
      <trkpt lat="42.27747" lon="2.15957">
        <ele>855.8</ele>
        <time>2022-05-22 01:13:32</time>
      </trkpt>
      <trkpt lat="42.27751" lon="2.15957">
        <ele>856</ele>
        <time>2022-05-22 01:13:33</time>
      </trkpt>
      <trkpt lat="42.27755" lon="2.15957">
        <ele>856</ele>
        <time>2022-05-22 01:13:34</time>
      </trkpt>
      <trkpt lat="42.2776" lon="2.15957">
        <ele>856.2</ele>
        <time>2022-05-22 01:13:35</time>
      </trkpt>
      <trkpt lat="42.27764" lon="2.15957">
        <ele>856.2</ele>
        <time>2022-05-22 01:13:36</time>
      </trkpt>
      <trkpt lat="42.27767" lon="2.15958">
        <ele>856.2</ele>
        <time>2022-05-22 01:13:37</time>
      </trkpt>
      <trkpt lat="42.27771" lon="2.15958">
        <ele>856.4</ele>
        <time>2022-05-22 01:13:38</time>
      </trkpt>
      <trkpt lat="42.27775" lon="2.15959">
        <ele>856.4</ele>
        <time>2022-05-22 01:13:39</time>
      </trkpt>
      <trkpt lat="42.27779" lon="2.15959">
        <ele>856.6</ele>
        <time>2022-05-22 01:13:40</time>
      </trkpt>
      <trkpt lat="42.27784" lon="2.1596">
        <ele>856.6</ele>
        <time>2022-05-22 01:13:41</time>
      </trkpt>
      <trkpt lat="42.27788" lon="2.15961">
        <ele>856.8</ele>
        <time>2022-05-22 01:13:42</time>
      </trkpt>
      <trkpt lat="42.27792" lon="2.15961">
        <ele>857</ele>
        <time>2022-05-22 01:13:43</time>
      </trkpt>
      <trkpt lat="42.27796" lon="2.15962">
        <ele>857.2</ele>
        <time>2022-05-22 01:13:44</time>
      </trkpt>
      <trkpt lat="42.278" lon="2.15962">
        <ele>857.4</ele>
        <time>2022-05-22 01:13:45</time>
      </trkpt>
      <trkpt lat="42.27804" lon="2.15963">
        <ele>857.6</ele>
        <time>2022-05-22 01:13:46</time>
      </trkpt>
      <trkpt lat="42.27808" lon="2.15963">
        <ele>857.6</ele>
        <time>2022-05-22 01:13:47</time>
      </trkpt>
      <trkpt lat="42.27812" lon="2.15963">
        <ele>857.8</ele>
        <time>2022-05-22 01:13:48</time>
      </trkpt>
      <trkpt lat="42.27816" lon="2.15963">
        <ele>857.8</ele>
        <time>2022-05-22 01:13:49</time>
      </trkpt>
      <trkpt lat="42.2782" lon="2.15963">
        <ele>858</ele>
        <time>2022-05-22 01:13:50</time>
      </trkpt>
      <trkpt lat="42.27825" lon="2.15964">
        <ele>858</ele>
        <time>2022-05-22 01:13:51</time>
      </trkpt>
      <trkpt lat="42.27829" lon="2.15965">
        <ele>858</ele>
        <time>2022-05-22 01:13:52</time>
      </trkpt>
      <trkpt lat="42.27833" lon="2.15965">
        <ele>858.2</ele>
        <time>2022-05-22 01:13:53</time>
      </trkpt>
      <trkpt lat="42.27837" lon="2.15966">
        <ele>858.2</ele>
        <time>2022-05-22 01:13:54</time>
      </trkpt>
      <trkpt lat="42.27841" lon="2.15966">
        <ele>858.4</ele>
        <time>2022-05-22 01:13:55</time>
      </trkpt>
      <trkpt lat="42.27845" lon="2.15966">
        <ele>858.4</ele>
        <time>2022-05-22 01:13:56</time>
      </trkpt>
      <trkpt lat="42.27849" lon="2.15967">
        <ele>858.6</ele>
        <time>2022-05-22 01:13:57</time>
      </trkpt>
      <trkpt lat="42.27853" lon="2.15968">
        <ele>858.6</ele>
        <time>2022-05-22 01:13:58</time>
      </trkpt>
      <trkpt lat="42.27857" lon="2.15969">
        <ele>858.8</ele>
        <time>2022-05-22 01:13:59</time>
      </trkpt>
      <trkpt lat="42.27861" lon="2.15969">
        <ele>858.8</ele>
        <time>2022-05-22 01:14:00</time>
      </trkpt>
      <trkpt lat="42.27865" lon="2.1597">
        <ele>859</ele>
        <time>2022-05-22 01:14:01</time>
      </trkpt>
      <trkpt lat="42.27869" lon="2.1597">
        <ele>859</ele>
        <time>2022-05-22 01:14:02</time>
      </trkpt>
      <trkpt lat="42.27873" lon="2.15971">
        <ele>859.2</ele>
        <time>2022-05-22 01:14:03</time>
      </trkpt>
      <trkpt lat="42.27876" lon="2.15971">
        <ele>859.2</ele>
        <time>2022-05-22 01:14:04</time>
      </trkpt>
      <trkpt lat="42.2788" lon="2.15972">
        <ele>859.4</ele>
        <time>2022-05-22 01:14:05</time>
      </trkpt>
      <trkpt lat="42.27884" lon="2.15972">
        <ele>859.4</ele>
        <time>2022-05-22 01:14:06</time>
      </trkpt>
      <trkpt lat="42.27888" lon="2.15973">
        <ele>859.6</ele>
        <time>2022-05-22 01:14:07</time>
      </trkpt>
      <trkpt lat="42.27892" lon="2.15973">
        <ele>859.6</ele>
        <time>2022-05-22 01:14:08</time>
      </trkpt>
      <trkpt lat="42.27896" lon="2.15974">
        <ele>859.8</ele>
        <time>2022-05-22 01:14:09</time>
      </trkpt>
      <trkpt lat="42.27899" lon="2.15974">
        <ele>859.8</ele>
        <time>2022-05-22 01:14:10</time>
      </trkpt>
      <trkpt lat="42.27903" lon="2.15975">
        <ele>860</ele>
        <time>2022-05-22 01:14:11</time>
      </trkpt>
      <trkpt lat="42.27907" lon="2.15975">
        <ele>860.2</ele>
        <time>2022-05-22 01:14:12</time>
      </trkpt>
      <trkpt lat="42.27911" lon="2.15976">
        <ele>860.4</ele>
        <time>2022-05-22 01:14:13</time>
      </trkpt>
      <trkpt lat="42.27915" lon="2.15976">
        <ele>860.4</ele>
        <time>2022-05-22 01:14:14</time>
      </trkpt>
      <trkpt lat="42.27919" lon="2.15977">
        <ele>860.6</ele>
        <time>2022-05-22 01:14:15</time>
      </trkpt>
      <trkpt lat="42.27923" lon="2.15977">
        <ele>860.8</ele>
        <time>2022-05-22 01:14:16</time>
      </trkpt>
      <trkpt lat="42.27927" lon="2.15978">
        <ele>861</ele>
        <time>2022-05-22 01:14:17</time>
      </trkpt>
      <trkpt lat="42.27931" lon="2.15978">
        <ele>861.2</ele>
        <time>2022-05-22 01:14:18</time>
      </trkpt>
      <trkpt lat="42.27935" lon="2.15979">
        <ele>861.4</ele>
        <time>2022-05-22 01:14:19</time>
      </trkpt>
      <trkpt lat="42.27939" lon="2.15979">
        <ele>861.6</ele>
        <time>2022-05-22 01:14:20</time>
      </trkpt>
      <trkpt lat="42.27943" lon="2.15979">
        <ele>861.8</ele>
        <time>2022-05-22 01:14:21</time>
      </trkpt>
      <trkpt lat="42.27946" lon="2.15979">
        <ele>862</ele>
        <time>2022-05-22 01:14:22</time>
      </trkpt>
      <trkpt lat="42.2795" lon="2.15978">
        <ele>862.2</ele>
        <time>2022-05-22 01:14:23</time>
      </trkpt>
      <trkpt lat="42.27953" lon="2.15977">
        <ele>862.4</ele>
        <time>2022-05-22 01:14:24</time>
      </trkpt>
      <trkpt lat="42.27957" lon="2.15976">
        <ele>862.6</ele>
        <time>2022-05-22 01:14:25</time>
      </trkpt>
      <trkpt lat="42.2796" lon="2.15975">
        <ele>862.8</ele>
        <time>2022-05-22 01:14:26</time>
      </trkpt>
      <trkpt lat="42.27964" lon="2.15973">
        <ele>863</ele>
        <time>2022-05-22 01:14:27</time>
      </trkpt>
      <trkpt lat="42.27967" lon="2.15972">
        <ele>863</ele>
        <time>2022-05-22 01:14:28</time>
      </trkpt>
      <trkpt lat="42.27971" lon="2.1597">
        <ele>863.2</ele>
        <time>2022-05-22 01:14:29</time>
      </trkpt>
      <trkpt lat="42.27975" lon="2.15968">
        <ele>863.4</ele>
        <time>2022-05-22 01:14:30</time>
      </trkpt>
      <trkpt lat="42.27979" lon="2.15967">
        <ele>863.4</ele>
        <time>2022-05-22 01:14:31</time>
      </trkpt>
      <trkpt lat="42.27983" lon="2.15965">
        <ele>863.6</ele>
        <time>2022-05-22 01:14:32</time>
      </trkpt>
      <trkpt lat="42.27987" lon="2.15963">
        <ele>863.6</ele>
        <time>2022-05-22 01:14:33</time>
      </trkpt>
      <trkpt lat="42.2799" lon="2.15961">
        <ele>863.8</ele>
        <time>2022-05-22 01:14:34</time>
      </trkpt>
      <trkpt lat="42.27993" lon="2.1596">
        <ele>863.8</ele>
        <time>2022-05-22 01:14:35</time>
      </trkpt>
      <trkpt lat="42.27997" lon="2.15958">
        <ele>864</ele>
        <time>2022-05-22 01:14:36</time>
      </trkpt>
      <trkpt lat="42.28" lon="2.15956">
        <ele>864</ele>
        <time>2022-05-22 01:14:37</time>
      </trkpt>
      <trkpt lat="42.28004" lon="2.15955">
        <ele>864</ele>
        <time>2022-05-22 01:14:38</time>
      </trkpt>
      <trkpt lat="42.28008" lon="2.15953">
        <ele>864.2</ele>
        <time>2022-05-22 01:14:39</time>
      </trkpt>
      <trkpt lat="42.28011" lon="2.15952">
        <ele>864.4</ele>
        <time>2022-05-22 01:14:40</time>
      </trkpt>
      <trkpt lat="42.28014" lon="2.1595">
        <ele>864.6</ele>
        <time>2022-05-22 01:14:41</time>
      </trkpt>
      <trkpt lat="42.28018" lon="2.15949">
        <ele>864.6</ele>
        <time>2022-05-22 01:14:42</time>
      </trkpt>
      <trkpt lat="42.28021" lon="2.15947">
        <ele>864.8</ele>
        <time>2022-05-22 01:14:43</time>
      </trkpt>
      <trkpt lat="42.28025" lon="2.15946">
        <ele>865</ele>
        <time>2022-05-22 01:14:44</time>
      </trkpt>
      <trkpt lat="42.28028" lon="2.15944">
        <ele>865</ele>
        <time>2022-05-22 01:14:45</time>
      </trkpt>
      <trkpt lat="42.28032" lon="2.15943">
        <ele>865.2</ele>
        <time>2022-05-22 01:14:46</time>
      </trkpt>
      <trkpt lat="42.28035" lon="2.15941">
        <ele>865.2</ele>
        <time>2022-05-22 01:14:47</time>
      </trkpt>
      <trkpt lat="42.28038" lon="2.1594">
        <ele>865.2</ele>
        <time>2022-05-22 01:14:48</time>
      </trkpt>
      <trkpt lat="42.28041" lon="2.15939">
        <ele>865.4</ele>
        <time>2022-05-22 01:14:49</time>
      </trkpt>
      <trkpt lat="42.28045" lon="2.15937">
        <ele>865.4</ele>
        <time>2022-05-22 01:14:50</time>
      </trkpt>
      <trkpt lat="42.28048" lon="2.15936">
        <ele>865.6</ele>
        <time>2022-05-22 01:14:51</time>
      </trkpt>
      <trkpt lat="42.28051" lon="2.15935">
        <ele>865.6</ele>
        <time>2022-05-22 01:14:52</time>
      </trkpt>
      <trkpt lat="42.28055" lon="2.15935">
        <ele>865.6</ele>
        <time>2022-05-22 01:14:53</time>
      </trkpt>
      <trkpt lat="42.28058" lon="2.15934">
        <ele>865.6</ele>
        <time>2022-05-22 01:14:54</time>
      </trkpt>
      <trkpt lat="42.28062" lon="2.15933">
        <ele>865.8</ele>
        <time>2022-05-22 01:14:55</time>
      </trkpt>
      <trkpt lat="42.28066" lon="2.15932">
        <ele>865.8</ele>
        <time>2022-05-22 01:14:56</time>
      </trkpt>
      <trkpt lat="42.28069" lon="2.15932">
        <ele>865.8</ele>
        <time>2022-05-22 01:14:57</time>
      </trkpt>
      <trkpt lat="42.28073" lon="2.15931">
        <ele>865.8</ele>
        <time>2022-05-22 01:14:58</time>
      </trkpt>
      <trkpt lat="42.28076" lon="2.1593">
        <ele>865.8</ele>
        <time>2022-05-22 01:14:59</time>
      </trkpt>
      <trkpt lat="42.2808" lon="2.15929">
        <ele>866</ele>
        <time>2022-05-22 01:15:00</time>
      </trkpt>
      <trkpt lat="42.28083" lon="2.15928">
        <ele>866</ele>
        <time>2022-05-22 01:15:01</time>
      </trkpt>
      <trkpt lat="42.28087" lon="2.15928">
        <ele>866.2</ele>
        <time>2022-05-22 01:15:02</time>
      </trkpt>
      <trkpt lat="42.28091" lon="2.15927">
        <ele>866.2</ele>
        <time>2022-05-22 01:15:03</time>
      </trkpt>
      <trkpt lat="42.28095" lon="2.15927">
        <ele>866.2</ele>
        <time>2022-05-22 01:15:04</time>
      </trkpt>
      <trkpt lat="42.28099" lon="2.15926">
        <ele>866.4</ele>
        <time>2022-05-22 01:15:05</time>
      </trkpt>
      <trkpt lat="42.28103" lon="2.15925">
        <ele>866.4</ele>
        <time>2022-05-22 01:15:06</time>
      </trkpt>
      <trkpt lat="42.28107" lon="2.15925">
        <ele>866.4</ele>
        <time>2022-05-22 01:15:07</time>
      </trkpt>
      <trkpt lat="42.28112" lon="2.15925">
        <ele>866.4</ele>
        <time>2022-05-22 01:15:08</time>
      </trkpt>
      <trkpt lat="42.28116" lon="2.15925">
        <ele>866.6</ele>
        <time>2022-05-22 01:15:09</time>
      </trkpt>
      <trkpt lat="42.28121" lon="2.15926">
        <ele>866.6</ele>
        <time>2022-05-22 01:15:10</time>
      </trkpt>
      <trkpt lat="42.28126" lon="2.15927">
        <ele>866.8</ele>
        <time>2022-05-22 01:15:11</time>
      </trkpt>
      <trkpt lat="42.2813" lon="2.15927">
        <ele>866.8</ele>
        <time>2022-05-22 01:15:12</time>
      </trkpt>
      <trkpt lat="42.28134" lon="2.15928">
        <ele>866.8</ele>
        <time>2022-05-22 01:15:13</time>
      </trkpt>
      <trkpt lat="42.28138" lon="2.15929">
        <ele>867</ele>
        <time>2022-05-22 01:15:14</time>
      </trkpt>
      <trkpt lat="42.28142" lon="2.1593">
        <ele>867</ele>
        <time>2022-05-22 01:15:15</time>
      </trkpt>
      <trkpt lat="42.28146" lon="2.15931">
        <ele>867</ele>
        <time>2022-05-22 01:15:16</time>
      </trkpt>
      <trkpt lat="42.2815" lon="2.15933">
        <ele>867</ele>
        <time>2022-05-22 01:15:17</time>
      </trkpt>
      <trkpt lat="42.28155" lon="2.15934">
        <ele>867.2</ele>
        <time>2022-05-22 01:15:18</time>
      </trkpt>
      <trkpt lat="42.28158" lon="2.15935">
        <ele>867.2</ele>
        <time>2022-05-22 01:15:19</time>
      </trkpt>
      <trkpt lat="42.28162" lon="2.15937">
        <ele>867.4</ele>
        <time>2022-05-22 01:15:20</time>
      </trkpt>
      <trkpt lat="42.28165" lon="2.15938">
        <ele>867.6</ele>
        <time>2022-05-22 01:15:21</time>
      </trkpt>
      <trkpt lat="42.28169" lon="2.15939">
        <ele>867.6</ele>
        <time>2022-05-22 01:15:22</time>
      </trkpt>
      <trkpt lat="42.28173" lon="2.1594">
        <ele>867.8</ele>
        <time>2022-05-22 01:15:23</time>
      </trkpt>
      <trkpt lat="42.28176" lon="2.15941">
        <ele>867.8</ele>
        <time>2022-05-22 01:15:24</time>
      </trkpt>
      <trkpt lat="42.2818" lon="2.15943">
        <ele>868</ele>
        <time>2022-05-22 01:15:25</time>
      </trkpt>
      <trkpt lat="42.28182" lon="2.15944">
        <ele>868</ele>
        <time>2022-05-22 01:15:26</time>
      </trkpt>
      <trkpt lat="42.28184" lon="2.15944">
        <ele>868.2</ele>
        <time>2022-05-22 01:15:27</time>
      </trkpt>
      <trkpt lat="42.28186" lon="2.15945">
        <ele>868.2</ele>
        <time>2022-05-22 01:15:28</time>
      </trkpt>
      <trkpt lat="42.28194" lon="2.15948">
        <ele>868.4</ele>
        <time>2022-05-22 01:15:29</time>
      </trkpt>
      <trkpt lat="42.28198" lon="2.15948">
        <ele>868.4</ele>
        <time>2022-05-22 01:15:30</time>
      </trkpt>
      <trkpt lat="42.28201" lon="2.15949">
        <ele>868.4</ele>
        <time>2022-05-22 01:15:31</time>
      </trkpt>
      <trkpt lat="42.28205" lon="2.15949">
        <ele>868.6</ele>
        <time>2022-05-22 01:15:32</time>
      </trkpt>
      <trkpt lat="42.28209" lon="2.1595">
        <ele>868.6</ele>
        <time>2022-05-22 01:15:33</time>
      </trkpt>
      <trkpt lat="42.28213" lon="2.15951">
        <ele>868.6</ele>
        <time>2022-05-22 01:15:34</time>
      </trkpt>
      <trkpt lat="42.28216" lon="2.15951">
        <ele>868.4</ele>
        <time>2022-05-22 01:15:35</time>
      </trkpt>
      <trkpt lat="42.2822" lon="2.15952">
        <ele>868.4</ele>
        <time>2022-05-22 01:15:36</time>
      </trkpt>
      <trkpt lat="42.28224" lon="2.15952">
        <ele>868.6</ele>
        <time>2022-05-22 01:15:37</time>
      </trkpt>
      <trkpt lat="42.28228" lon="2.15952">
        <ele>868.6</ele>
        <time>2022-05-22 01:15:38</time>
      </trkpt>
      <trkpt lat="42.28232" lon="2.15952">
        <ele>868.6</ele>
        <time>2022-05-22 01:15:39</time>
      </trkpt>
      <trkpt lat="42.28236" lon="2.15951">
        <ele>868.6</ele>
        <time>2022-05-22 01:15:40</time>
      </trkpt>
      <trkpt lat="42.2824" lon="2.15951">
        <ele>868.8</ele>
        <time>2022-05-22 01:15:41</time>
      </trkpt>
      <trkpt lat="42.28244" lon="2.1595">
        <ele>869</ele>
        <time>2022-05-22 01:15:42</time>
      </trkpt>
      <trkpt lat="42.28248" lon="2.1595">
        <ele>869</ele>
        <time>2022-05-22 01:15:43</time>
      </trkpt>
      <trkpt lat="42.28252" lon="2.15949">
        <ele>869</ele>
        <time>2022-05-22 01:15:44</time>
      </trkpt>
      <trkpt lat="42.28255" lon="2.15949">
        <ele>869.2</ele>
        <time>2022-05-22 01:15:45</time>
      </trkpt>
      <trkpt lat="42.28259" lon="2.15948">
        <ele>869.2</ele>
        <time>2022-05-22 01:15:46</time>
      </trkpt>
      <trkpt lat="42.28263" lon="2.15947">
        <ele>869.2</ele>
        <time>2022-05-22 01:15:47</time>
      </trkpt>
      <trkpt lat="42.28267" lon="2.15947">
        <ele>869.2</ele>
        <time>2022-05-22 01:15:48</time>
      </trkpt>
      <trkpt lat="42.28271" lon="2.15947">
        <ele>869.2</ele>
        <time>2022-05-22 01:15:49</time>
      </trkpt>
      <trkpt lat="42.28274" lon="2.15946">
        <ele>869.2</ele>
        <time>2022-05-22 01:15:50</time>
      </trkpt>
      <trkpt lat="42.28278" lon="2.15945">
        <ele>869.2</ele>
        <time>2022-05-22 01:15:51</time>
      </trkpt>
      <trkpt lat="42.28281" lon="2.15943">
        <ele>869.2</ele>
        <time>2022-05-22 01:15:52</time>
      </trkpt>
      <trkpt lat="42.28285" lon="2.15943">
        <ele>869.2</ele>
        <time>2022-05-22 01:15:53</time>
      </trkpt>
      <trkpt lat="42.28289" lon="2.15942">
        <ele>869.2</ele>
        <time>2022-05-22 01:15:54</time>
      </trkpt>
      <trkpt lat="42.28294" lon="2.15941">
        <ele>869.2</ele>
        <time>2022-05-22 01:15:55</time>
      </trkpt>
      <trkpt lat="42.28298" lon="2.15941">
        <ele>869.4</ele>
        <time>2022-05-22 01:15:56</time>
      </trkpt>
      <trkpt lat="42.28302" lon="2.1594">
        <ele>869.4</ele>
        <time>2022-05-22 01:15:57</time>
      </trkpt>
      <trkpt lat="42.28306" lon="2.1594">
        <ele>869.4</ele>
        <time>2022-05-22 01:15:58</time>
      </trkpt>
      <trkpt lat="42.2831" lon="2.15939">
        <ele>869.4</ele>
        <time>2022-05-22 01:15:59</time>
      </trkpt>
      <trkpt lat="42.28314" lon="2.15939">
        <ele>869.6</ele>
        <time>2022-05-22 01:16:00</time>
      </trkpt>
      <trkpt lat="42.28318" lon="2.15938">
        <ele>869.6</ele>
        <time>2022-05-22 01:16:01</time>
      </trkpt>
      <trkpt lat="42.28322" lon="2.15937">
        <ele>869.8</ele>
        <time>2022-05-22 01:16:02</time>
      </trkpt>
      <trkpt lat="42.28326" lon="2.15936">
        <ele>869.8</ele>
        <time>2022-05-22 01:16:03</time>
      </trkpt>
      <trkpt lat="42.28329" lon="2.15935">
        <ele>870</ele>
        <time>2022-05-22 01:16:04</time>
      </trkpt>
      <trkpt lat="42.28333" lon="2.15934">
        <ele>870</ele>
        <time>2022-05-22 01:16:05</time>
      </trkpt>
      <trkpt lat="42.28337" lon="2.15932">
        <ele>870.2</ele>
        <time>2022-05-22 01:16:06</time>
      </trkpt>
      <trkpt lat="42.28341" lon="2.15931">
        <ele>870.2</ele>
        <time>2022-05-22 01:16:07</time>
      </trkpt>
      <trkpt lat="42.28345" lon="2.15929">
        <ele>870.4</ele>
        <time>2022-05-22 01:16:08</time>
      </trkpt>
      <trkpt lat="42.28348" lon="2.15928">
        <ele>870.4</ele>
        <time>2022-05-22 01:16:09</time>
      </trkpt>
      <trkpt lat="42.28352" lon="2.15926">
        <ele>870.6</ele>
        <time>2022-05-22 01:16:10</time>
      </trkpt>
      <trkpt lat="42.28355" lon="2.15924">
        <ele>870.6</ele>
        <time>2022-05-22 01:16:11</time>
      </trkpt>
      <trkpt lat="42.28358" lon="2.15922">
        <ele>870.8</ele>
        <time>2022-05-22 01:16:12</time>
      </trkpt>
      <trkpt lat="42.28361" lon="2.1592">
        <ele>870.8</ele>
        <time>2022-05-22 01:16:13</time>
      </trkpt>
      <trkpt lat="42.28364" lon="2.15919">
        <ele>871</ele>
        <time>2022-05-22 01:16:14</time>
      </trkpt>
      <trkpt lat="42.28367" lon="2.15917">
        <ele>871</ele>
        <time>2022-05-22 01:16:15</time>
      </trkpt>
      <trkpt lat="42.28369" lon="2.15915">
        <ele>871</ele>
        <time>2022-05-22 01:16:16</time>
      </trkpt>
      <trkpt lat="42.28372" lon="2.15913">
        <ele>871.2</ele>
        <time>2022-05-22 01:16:17</time>
      </trkpt>
      <trkpt lat="42.28374" lon="2.15911">
        <ele>871.4</ele>
        <time>2022-05-22 01:16:18</time>
      </trkpt>
      <trkpt lat="42.28378" lon="2.15908">
        <ele>871.4</ele>
        <time>2022-05-22 01:16:19</time>
      </trkpt>
      <trkpt lat="42.28381" lon="2.15905">
        <ele>871.4</ele>
        <time>2022-05-22 01:16:20</time>
      </trkpt>
      <trkpt lat="42.28384" lon="2.15902">
        <ele>871.6</ele>
        <time>2022-05-22 01:16:21</time>
      </trkpt>
      <trkpt lat="42.28387" lon="2.159">
        <ele>871.6</ele>
        <time>2022-05-22 01:16:22</time>
      </trkpt>
      <trkpt lat="42.28389" lon="2.15898">
        <ele>871.8</ele>
        <time>2022-05-22 01:16:23</time>
      </trkpt>
      <trkpt lat="42.28392" lon="2.15896">
        <ele>871.8</ele>
        <time>2022-05-22 01:16:24</time>
      </trkpt>
      <trkpt lat="42.28395" lon="2.15895">
        <ele>872</ele>
        <time>2022-05-22 01:16:25</time>
      </trkpt>
      <trkpt lat="42.28398" lon="2.15893">
        <ele>872</ele>
        <time>2022-05-22 01:16:26</time>
      </trkpt>
      <trkpt lat="42.284" lon="2.15891">
        <ele>872.2</ele>
        <time>2022-05-22 01:16:27</time>
      </trkpt>
      <trkpt lat="42.28404" lon="2.1589">
        <ele>872.2</ele>
        <time>2022-05-22 01:16:28</time>
      </trkpt>
      <trkpt lat="42.28407" lon="2.15889">
        <ele>872.4</ele>
        <time>2022-05-22 01:16:29</time>
      </trkpt>
      <trkpt lat="42.28411" lon="2.15888">
        <ele>872.4</ele>
        <time>2022-05-22 01:16:30</time>
      </trkpt>
      <trkpt lat="42.28415" lon="2.15888">
        <ele>872.6</ele>
        <time>2022-05-22 01:16:31</time>
      </trkpt>
      <trkpt lat="42.28419" lon="2.15887">
        <ele>872.6</ele>
        <time>2022-05-22 01:16:32</time>
      </trkpt>
      <trkpt lat="42.28424" lon="2.15887">
        <ele>872.8</ele>
        <time>2022-05-22 01:16:33</time>
      </trkpt>
      <trkpt lat="42.28428" lon="2.15887">
        <ele>873</ele>
        <time>2022-05-22 01:16:34</time>
      </trkpt>
      <trkpt lat="42.28432" lon="2.15887">
        <ele>873</ele>
        <time>2022-05-22 01:16:35</time>
      </trkpt>
      <trkpt lat="42.28436" lon="2.15887">
        <ele>873.2</ele>
        <time>2022-05-22 01:16:36</time>
      </trkpt>
      <trkpt lat="42.2844" lon="2.15888">
        <ele>873.2</ele>
        <time>2022-05-22 01:16:37</time>
      </trkpt>
      <trkpt lat="42.28443" lon="2.15889">
        <ele>873.4</ele>
        <time>2022-05-22 01:16:38</time>
      </trkpt>
      <trkpt lat="42.28447" lon="2.1589">
        <ele>873.4</ele>
        <time>2022-05-22 01:16:39</time>
      </trkpt>
      <trkpt lat="42.28451" lon="2.15892">
        <ele>873.6</ele>
        <time>2022-05-22 01:16:40</time>
      </trkpt>
      <trkpt lat="42.28454" lon="2.15894">
        <ele>873.6</ele>
        <time>2022-05-22 01:16:41</time>
      </trkpt>
      <trkpt lat="42.28458" lon="2.15896">
        <ele>873.6</ele>
        <time>2022-05-22 01:16:42</time>
      </trkpt>
      <trkpt lat="42.28462" lon="2.15898">
        <ele>873.6</ele>
        <time>2022-05-22 01:16:43</time>
      </trkpt>
      <trkpt lat="42.28465" lon="2.15901">
        <ele>873.8</ele>
        <time>2022-05-22 01:16:44</time>
      </trkpt>
      <trkpt lat="42.28469" lon="2.15903">
        <ele>873.8</ele>
        <time>2022-05-22 01:16:45</time>
      </trkpt>
      <trkpt lat="42.28472" lon="2.15906">
        <ele>874</ele>
        <time>2022-05-22 01:16:46</time>
      </trkpt>
      <trkpt lat="42.28475" lon="2.15908">
        <ele>874</ele>
        <time>2022-05-22 01:16:47</time>
      </trkpt>
      <trkpt lat="42.28477" lon="2.15911">
        <ele>874.2</ele>
        <time>2022-05-22 01:16:48</time>
      </trkpt>
      <trkpt lat="42.28481" lon="2.15914">
        <ele>874.2</ele>
        <time>2022-05-22 01:16:49</time>
      </trkpt>
      <trkpt lat="42.28483" lon="2.15917">
        <ele>874.4</ele>
        <time>2022-05-22 01:16:50</time>
      </trkpt>
      <trkpt lat="42.28487" lon="2.1592">
        <ele>874.4</ele>
        <time>2022-05-22 01:16:51</time>
      </trkpt>
      <trkpt lat="42.2849" lon="2.15923">
        <ele>874.4</ele>
        <time>2022-05-22 01:16:52</time>
      </trkpt>
      <trkpt lat="42.28493" lon="2.15926">
        <ele>874.6</ele>
        <time>2022-05-22 01:16:53</time>
      </trkpt>
      <trkpt lat="42.28496" lon="2.15928">
        <ele>874.6</ele>
        <time>2022-05-22 01:16:54</time>
      </trkpt>
      <trkpt lat="42.285" lon="2.15931">
        <ele>874.6</ele>
        <time>2022-05-22 01:16:55</time>
      </trkpt>
      <trkpt lat="42.28503" lon="2.15934">
        <ele>874.6</ele>
        <time>2022-05-22 01:16:56</time>
      </trkpt>
      <trkpt lat="42.28506" lon="2.15937">
        <ele>874.6</ele>
        <time>2022-05-22 01:16:57</time>
      </trkpt>
      <trkpt lat="42.2851" lon="2.1594">
        <ele>874.6</ele>
        <time>2022-05-22 01:16:58</time>
      </trkpt>
      <trkpt lat="42.28513" lon="2.15943">
        <ele>874.6</ele>
        <time>2022-05-22 01:16:59</time>
      </trkpt>
      <trkpt lat="42.28517" lon="2.15946">
        <ele>874.8</ele>
        <time>2022-05-22 01:17:00</time>
      </trkpt>
      <trkpt lat="42.28521" lon="2.15949">
        <ele>874.8</ele>
        <time>2022-05-22 01:17:01</time>
      </trkpt>
      <trkpt lat="42.28524" lon="2.15952">
        <ele>874.8</ele>
        <time>2022-05-22 01:17:02</time>
      </trkpt>
      <trkpt lat="42.28528" lon="2.15955">
        <ele>874.8</ele>
        <time>2022-05-22 01:17:03</time>
      </trkpt>
      <trkpt lat="42.28531" lon="2.15958">
        <ele>874.8</ele>
        <time>2022-05-22 01:17:04</time>
      </trkpt>
      <trkpt lat="42.28534" lon="2.1596">
        <ele>875</ele>
        <time>2022-05-22 01:17:05</time>
      </trkpt>
      <trkpt lat="42.28537" lon="2.15963">
        <ele>875</ele>
        <time>2022-05-22 01:17:06</time>
      </trkpt>
      <trkpt lat="42.28541" lon="2.15966">
        <ele>875</ele>
        <time>2022-05-22 01:17:07</time>
      </trkpt>
      <trkpt lat="42.28545" lon="2.15969">
        <ele>875.2</ele>
        <time>2022-05-22 01:17:08</time>
      </trkpt>
      <trkpt lat="42.28548" lon="2.15972">
        <ele>875.2</ele>
        <time>2022-05-22 01:17:09</time>
      </trkpt>
      <trkpt lat="42.28551" lon="2.15975">
        <ele>875.2</ele>
        <time>2022-05-22 01:17:10</time>
      </trkpt>
      <trkpt lat="42.28555" lon="2.15978">
        <ele>875.2</ele>
        <time>2022-05-22 01:17:11</time>
      </trkpt>
      <trkpt lat="42.28558" lon="2.15981">
        <ele>875.2</ele>
        <time>2022-05-22 01:17:12</time>
      </trkpt>
      <trkpt lat="42.28562" lon="2.15984">
        <ele>875.2</ele>
        <time>2022-05-22 01:17:13</time>
      </trkpt>
      <trkpt lat="42.28565" lon="2.15988">
        <ele>875.4</ele>
        <time>2022-05-22 01:17:14</time>
      </trkpt>
      <trkpt lat="42.28569" lon="2.15991">
        <ele>875.4</ele>
        <time>2022-05-22 01:17:15</time>
      </trkpt>
      <trkpt lat="42.28572" lon="2.15994">
        <ele>875.6</ele>
        <time>2022-05-22 01:17:16</time>
      </trkpt>
      <trkpt lat="42.28575" lon="2.15998">
        <ele>875.6</ele>
        <time>2022-05-22 01:17:17</time>
      </trkpt>
      <trkpt lat="42.28578" lon="2.16">
        <ele>875.6</ele>
        <time>2022-05-22 01:17:18</time>
      </trkpt>
      <trkpt lat="42.28582" lon="2.16003">
        <ele>875.8</ele>
        <time>2022-05-22 01:17:19</time>
      </trkpt>
      <trkpt lat="42.28585" lon="2.16006">
        <ele>875.8</ele>
        <time>2022-05-22 01:17:20</time>
      </trkpt>
      <trkpt lat="42.28589" lon="2.16009">
        <ele>876</ele>
        <time>2022-05-22 01:17:21</time>
      </trkpt>
      <trkpt lat="42.28593" lon="2.16011">
        <ele>876.2</ele>
        <time>2022-05-22 01:17:22</time>
      </trkpt>
      <trkpt lat="42.28596" lon="2.16014">
        <ele>876.2</ele>
        <time>2022-05-22 01:17:23</time>
      </trkpt>
      <trkpt lat="42.286" lon="2.16017">
        <ele>876.4</ele>
        <time>2022-05-22 01:17:24</time>
      </trkpt>
      <trkpt lat="42.28603" lon="2.16019">
        <ele>876.4</ele>
        <time>2022-05-22 01:17:25</time>
      </trkpt>
      <trkpt lat="42.28606" lon="2.16021">
        <ele>876.6</ele>
        <time>2022-05-22 01:17:26</time>
      </trkpt>
      <trkpt lat="42.2861" lon="2.16023">
        <ele>876.6</ele>
        <time>2022-05-22 01:17:27</time>
      </trkpt>
      <trkpt lat="42.28614" lon="2.16025">
        <ele>876.8</ele>
        <time>2022-05-22 01:17:28</time>
      </trkpt>
      <trkpt lat="42.28617" lon="2.16027">
        <ele>876.8</ele>
        <time>2022-05-22 01:17:29</time>
      </trkpt>
      <trkpt lat="42.2862" lon="2.16029">
        <ele>877</ele>
        <time>2022-05-22 01:17:30</time>
      </trkpt>
      <trkpt lat="42.28625" lon="2.16032">
        <ele>877</ele>
        <time>2022-05-22 01:17:31</time>
      </trkpt>
      <trkpt lat="42.28628" lon="2.16034">
        <ele>877.2</ele>
        <time>2022-05-22 01:17:32</time>
      </trkpt>
      <trkpt lat="42.28631" lon="2.16036">
        <ele>877.2</ele>
        <time>2022-05-22 01:17:33</time>
      </trkpt>
      <trkpt lat="42.28635" lon="2.16038">
        <ele>877.4</ele>
        <time>2022-05-22 01:17:34</time>
      </trkpt>
      <trkpt lat="42.28639" lon="2.16039">
        <ele>877.4</ele>
        <time>2022-05-22 01:17:35</time>
      </trkpt>
      <trkpt lat="42.28642" lon="2.16041">
        <ele>877.6</ele>
        <time>2022-05-22 01:17:36</time>
      </trkpt>
      <trkpt lat="42.28646" lon="2.16042">
        <ele>877.6</ele>
        <time>2022-05-22 01:17:37</time>
      </trkpt>
      <trkpt lat="42.2865" lon="2.16043">
        <ele>877.8</ele>
        <time>2022-05-22 01:17:38</time>
      </trkpt>
      <trkpt lat="42.28653" lon="2.16045">
        <ele>877.8</ele>
        <time>2022-05-22 01:17:39</time>
      </trkpt>
      <trkpt lat="42.28657" lon="2.16046">
        <ele>878</ele>
        <time>2022-05-22 01:17:40</time>
      </trkpt>
      <trkpt lat="42.2866" lon="2.16047">
        <ele>878</ele>
        <time>2022-05-22 01:17:41</time>
      </trkpt>
      <trkpt lat="42.28663" lon="2.16047">
        <ele>878.2</ele>
        <time>2022-05-22 01:17:42</time>
      </trkpt>
      <trkpt lat="42.28667" lon="2.16048">
        <ele>878.2</ele>
        <time>2022-05-22 01:17:43</time>
      </trkpt>
      <trkpt lat="42.28671" lon="2.16049">
        <ele>878.4</ele>
        <time>2022-05-22 01:17:44</time>
      </trkpt>
      <trkpt lat="42.28674" lon="2.16049">
        <ele>878.4</ele>
        <time>2022-05-22 01:17:45</time>
      </trkpt>
      <trkpt lat="42.28678" lon="2.16051">
        <ele>878.6</ele>
        <time>2022-05-22 01:17:46</time>
      </trkpt>
      <trkpt lat="42.28681" lon="2.16051">
        <ele>878.8</ele>
        <time>2022-05-22 01:17:47</time>
      </trkpt>
      <trkpt lat="42.28685" lon="2.16052">
        <ele>878.8</ele>
        <time>2022-05-22 01:17:48</time>
      </trkpt>
      <trkpt lat="42.28688" lon="2.16052">
        <ele>879</ele>
        <time>2022-05-22 01:17:49</time>
      </trkpt>
      <trkpt lat="42.28692" lon="2.16052">
        <ele>879</ele>
        <time>2022-05-22 01:17:50</time>
      </trkpt>
      <trkpt lat="42.28696" lon="2.16052">
        <ele>879.2</ele>
        <time>2022-05-22 01:17:51</time>
      </trkpt>
      <trkpt lat="42.287" lon="2.16052">
        <ele>879.2</ele>
        <time>2022-05-22 01:17:52</time>
      </trkpt>
      <trkpt lat="42.28703" lon="2.16052">
        <ele>879.2</ele>
        <time>2022-05-22 01:17:53</time>
      </trkpt>
      <trkpt lat="42.28707" lon="2.16052">
        <ele>879.4</ele>
        <time>2022-05-22 01:17:54</time>
      </trkpt>
      <trkpt lat="42.2871" lon="2.16051">
        <ele>879.4</ele>
        <time>2022-05-22 01:17:55</time>
      </trkpt>
      <trkpt lat="42.28714" lon="2.16051">
        <ele>879.6</ele>
        <time>2022-05-22 01:17:56</time>
      </trkpt>
      <trkpt lat="42.28718" lon="2.1605">
        <ele>879.6</ele>
        <time>2022-05-22 01:17:57</time>
      </trkpt>
      <trkpt lat="42.28721" lon="2.16049">
        <ele>879.6</ele>
        <time>2022-05-22 01:17:58</time>
      </trkpt>
      <trkpt lat="42.28725" lon="2.16049">
        <ele>879.8</ele>
        <time>2022-05-22 01:17:59</time>
      </trkpt>
      <trkpt lat="42.28729" lon="2.16048">
        <ele>879.8</ele>
        <time>2022-05-22 01:18:00</time>
      </trkpt>
      <trkpt lat="42.28733" lon="2.16047">
        <ele>880</ele>
        <time>2022-05-22 01:18:01</time>
      </trkpt>
      <trkpt lat="42.28736" lon="2.16046">
        <ele>880</ele>
        <time>2022-05-22 01:18:02</time>
      </trkpt>
      <trkpt lat="42.2874" lon="2.16045">
        <ele>880.2</ele>
        <time>2022-05-22 01:18:03</time>
      </trkpt>
      <trkpt lat="42.28744" lon="2.16044">
        <ele>880.2</ele>
        <time>2022-05-22 01:18:04</time>
      </trkpt>
      <trkpt lat="42.28748" lon="2.16043">
        <ele>880.2</ele>
        <time>2022-05-22 01:18:05</time>
      </trkpt>
      <trkpt lat="42.28752" lon="2.16042">
        <ele>880.4</ele>
        <time>2022-05-22 01:18:06</time>
      </trkpt>
      <trkpt lat="42.28755" lon="2.16041">
        <ele>880.4</ele>
        <time>2022-05-22 01:18:07</time>
      </trkpt>
      <trkpt lat="42.28759" lon="2.16039">
        <ele>880.4</ele>
        <time>2022-05-22 01:18:08</time>
      </trkpt>
      <trkpt lat="42.28763" lon="2.16038">
        <ele>880.6</ele>
        <time>2022-05-22 01:18:09</time>
      </trkpt>
      <trkpt lat="42.28766" lon="2.16037">
        <ele>880.6</ele>
        <time>2022-05-22 01:18:10</time>
      </trkpt>
      <trkpt lat="42.2877" lon="2.16036">
        <ele>880.6</ele>
        <time>2022-05-22 01:18:11</time>
      </trkpt>
      <trkpt lat="42.28774" lon="2.16035">
        <ele>880.8</ele>
        <time>2022-05-22 01:18:12</time>
      </trkpt>
      <trkpt lat="42.28778" lon="2.16034">
        <ele>880.8</ele>
        <time>2022-05-22 01:18:13</time>
      </trkpt>
      <trkpt lat="42.28781" lon="2.16034">
        <ele>881</ele>
        <time>2022-05-22 01:18:14</time>
      </trkpt>
      <trkpt lat="42.28785" lon="2.16033">
        <ele>881</ele>
        <time>2022-05-22 01:18:15</time>
      </trkpt>
      <trkpt lat="42.28789" lon="2.16031">
        <ele>881.2</ele>
        <time>2022-05-22 01:18:16</time>
      </trkpt>
      <trkpt lat="42.28793" lon="2.1603">
        <ele>881.2</ele>
        <time>2022-05-22 01:18:17</time>
      </trkpt>
      <trkpt lat="42.28797" lon="2.16029">
        <ele>881.2</ele>
        <time>2022-05-22 01:18:18</time>
      </trkpt>
      <trkpt lat="42.28801" lon="2.16027">
        <ele>881.2</ele>
        <time>2022-05-22 01:18:19</time>
      </trkpt>
      <trkpt lat="42.28805" lon="2.16026">
        <ele>881.2</ele>
        <time>2022-05-22 01:18:20</time>
      </trkpt>
      <trkpt lat="42.28809" lon="2.16025">
        <ele>881</ele>
        <time>2022-05-22 01:18:21</time>
      </trkpt>
      <trkpt lat="42.28814" lon="2.16024">
        <ele>881</ele>
        <time>2022-05-22 01:18:22</time>
      </trkpt>
      <trkpt lat="42.28818" lon="2.16023">
        <ele>881</ele>
        <time>2022-05-22 01:18:23</time>
      </trkpt>
      <trkpt lat="42.28822" lon="2.16022">
        <ele>881.2</ele>
        <time>2022-05-22 01:18:24</time>
      </trkpt>
      <trkpt lat="42.28826" lon="2.1602">
        <ele>881.2</ele>
        <time>2022-05-22 01:18:25</time>
      </trkpt>
      <trkpt lat="42.2883" lon="2.16019">
        <ele>881.2</ele>
        <time>2022-05-22 01:18:26</time>
      </trkpt>
      <trkpt lat="42.28834" lon="2.16018">
        <ele>881.4</ele>
        <time>2022-05-22 01:18:27</time>
      </trkpt>
      <trkpt lat="42.28838" lon="2.16017">
        <ele>881.4</ele>
        <time>2022-05-22 01:18:28</time>
      </trkpt>
      <trkpt lat="42.28842" lon="2.16015">
        <ele>881.4</ele>
        <time>2022-05-22 01:18:29</time>
      </trkpt>
      <trkpt lat="42.28846" lon="2.16014">
        <ele>881.4</ele>
        <time>2022-05-22 01:18:30</time>
      </trkpt>
      <trkpt lat="42.2885" lon="2.16013">
        <ele>881.4</ele>
        <time>2022-05-22 01:18:31</time>
      </trkpt>
      <trkpt lat="42.28853" lon="2.16012">
        <ele>881.4</ele>
        <time>2022-05-22 01:18:32</time>
      </trkpt>
      <trkpt lat="42.28857" lon="2.16011">
        <ele>881.4</ele>
        <time>2022-05-22 01:18:33</time>
      </trkpt>
      <trkpt lat="42.2886" lon="2.1601">
        <ele>881.4</ele>
        <time>2022-05-22 01:18:34</time>
      </trkpt>
      <trkpt lat="42.28864" lon="2.16009">
        <ele>881.4</ele>
        <time>2022-05-22 01:18:35</time>
      </trkpt>
      <trkpt lat="42.28868" lon="2.16009">
        <ele>881.6</ele>
        <time>2022-05-22 01:18:36</time>
      </trkpt>
      <trkpt lat="42.28872" lon="2.16009">
        <ele>881.6</ele>
        <time>2022-05-22 01:18:37</time>
      </trkpt>
      <trkpt lat="42.28876" lon="2.16009">
        <ele>881.8</ele>
        <time>2022-05-22 01:18:38</time>
      </trkpt>
      <trkpt lat="42.2888" lon="2.1601">
        <ele>881.8</ele>
        <time>2022-05-22 01:18:39</time>
      </trkpt>
      <trkpt lat="42.28884" lon="2.16011">
        <ele>882</ele>
        <time>2022-05-22 01:18:40</time>
      </trkpt>
      <trkpt lat="42.28888" lon="2.16011">
        <ele>882.2</ele>
        <time>2022-05-22 01:18:41</time>
      </trkpt>
      <trkpt lat="42.28892" lon="2.16012">
        <ele>882.2</ele>
        <time>2022-05-22 01:18:42</time>
      </trkpt>
      <trkpt lat="42.28896" lon="2.16013">
        <ele>882.2</ele>
        <time>2022-05-22 01:18:43</time>
      </trkpt>
      <trkpt lat="42.28899" lon="2.16014">
        <ele>882.4</ele>
        <time>2022-05-22 01:18:44</time>
      </trkpt>
      <trkpt lat="42.28903" lon="2.16015">
        <ele>882.4</ele>
        <time>2022-05-22 01:18:45</time>
      </trkpt>
      <trkpt lat="42.28906" lon="2.16016">
        <ele>882.6</ele>
        <time>2022-05-22 01:18:46</time>
      </trkpt>
      <trkpt lat="42.2891" lon="2.16018">
        <ele>882.6</ele>
        <time>2022-05-22 01:18:47</time>
      </trkpt>
      <trkpt lat="42.28913" lon="2.16019">
        <ele>882.8</ele>
        <time>2022-05-22 01:18:48</time>
      </trkpt>
      <trkpt lat="42.28917" lon="2.16021">
        <ele>882.8</ele>
        <time>2022-05-22 01:18:49</time>
      </trkpt>
      <trkpt lat="42.28921" lon="2.16023">
        <ele>883</ele>
        <time>2022-05-22 01:18:50</time>
      </trkpt>
      <trkpt lat="42.28925" lon="2.16024">
        <ele>883</ele>
        <time>2022-05-22 01:18:51</time>
      </trkpt>
      <trkpt lat="42.28929" lon="2.16026">
        <ele>883.2</ele>
        <time>2022-05-22 01:18:52</time>
      </trkpt>
      <trkpt lat="42.28933" lon="2.16028">
        <ele>883.4</ele>
        <time>2022-05-22 01:18:53</time>
      </trkpt>
      <trkpt lat="42.28937" lon="2.1603">
        <ele>883.4</ele>
        <time>2022-05-22 01:18:54</time>
      </trkpt>
      <trkpt lat="42.28941" lon="2.16031">
        <ele>883.6</ele>
        <time>2022-05-22 01:18:55</time>
      </trkpt>
      <trkpt lat="42.28944" lon="2.16033">
        <ele>883.8</ele>
        <time>2022-05-22 01:18:56</time>
      </trkpt>
      <trkpt lat="42.28948" lon="2.16035">
        <ele>884</ele>
        <time>2022-05-22 01:18:57</time>
      </trkpt>
      <trkpt lat="42.28952" lon="2.16037">
        <ele>884.2</ele>
        <time>2022-05-22 01:18:58</time>
      </trkpt>
      <trkpt lat="42.28956" lon="2.16039">
        <ele>884.2</ele>
        <time>2022-05-22 01:18:59</time>
      </trkpt>
      <trkpt lat="42.2896" lon="2.16041">
        <ele>884.4</ele>
        <time>2022-05-22 01:19:00</time>
      </trkpt>
      <trkpt lat="42.28963" lon="2.16042">
        <ele>884.6</ele>
        <time>2022-05-22 01:19:01</time>
      </trkpt>
      <trkpt lat="42.28966" lon="2.16044">
        <ele>884.8</ele>
        <time>2022-05-22 01:19:02</time>
      </trkpt>
      <trkpt lat="42.28969" lon="2.16045">
        <ele>885</ele>
        <time>2022-05-22 01:19:03</time>
      </trkpt>
      <trkpt lat="42.28971" lon="2.16047">
        <ele>885.2</ele>
        <time>2022-05-22 01:19:04</time>
      </trkpt>
      <trkpt lat="42.28976" lon="2.16049">
        <ele>885.4</ele>
        <time>2022-05-22 01:19:05</time>
      </trkpt>
      <trkpt lat="42.2898" lon="2.16051">
        <ele>885.4</ele>
        <time>2022-05-22 01:19:06</time>
      </trkpt>
      <trkpt lat="42.28984" lon="2.16053">
        <ele>885.6</ele>
        <time>2022-05-22 01:19:07</time>
      </trkpt>
      <trkpt lat="42.28986" lon="2.16056">
        <ele>885.8</ele>
        <time>2022-05-22 01:19:08</time>
      </trkpt>
      <trkpt lat="42.28989" lon="2.16058">
        <ele>886</ele>
        <time>2022-05-22 01:19:09</time>
      </trkpt>
      <trkpt lat="42.28992" lon="2.1606">
        <ele>886</ele>
        <time>2022-05-22 01:19:10</time>
      </trkpt>
      <trkpt lat="42.28994" lon="2.16062">
        <ele>886.2</ele>
        <time>2022-05-22 01:19:11</time>
      </trkpt>
      <trkpt lat="42.28997" lon="2.16064">
        <ele>886.4</ele>
        <time>2022-05-22 01:19:12</time>
      </trkpt>
      <trkpt lat="42.29" lon="2.16066">
        <ele>886.4</ele>
        <time>2022-05-22 01:19:13</time>
      </trkpt>
      <trkpt lat="42.29003" lon="2.16068">
        <ele>886.6</ele>
        <time>2022-05-22 01:19:14</time>
      </trkpt>
      <trkpt lat="42.29006" lon="2.16071">
        <ele>886.8</ele>
        <time>2022-05-22 01:19:15</time>
      </trkpt>
      <trkpt lat="42.2901" lon="2.16072">
        <ele>886.8</ele>
        <time>2022-05-22 01:19:16</time>
      </trkpt>
      <trkpt lat="42.29012" lon="2.16074">
        <ele>887</ele>
        <time>2022-05-22 01:19:17</time>
      </trkpt>
      <trkpt lat="42.29015" lon="2.16075">
        <ele>887.2</ele>
        <time>2022-05-22 01:19:18</time>
      </trkpt>
      <trkpt lat="42.29018" lon="2.16076">
        <ele>887.2</ele>
        <time>2022-05-22 01:19:19</time>
      </trkpt>
      <trkpt lat="42.29021" lon="2.16077">
        <ele>887.4</ele>
        <time>2022-05-22 01:19:20</time>
      </trkpt>
      <trkpt lat="42.29024" lon="2.16078">
        <ele>887.4</ele>
        <time>2022-05-22 01:19:21</time>
      </trkpt>
      <trkpt lat="42.29028" lon="2.16078">
        <ele>887.6</ele>
        <time>2022-05-22 01:19:22</time>
      </trkpt>
      <trkpt lat="42.29031" lon="2.16079">
        <ele>887.6</ele>
        <time>2022-05-22 01:19:23</time>
      </trkpt>
      <trkpt lat="42.29034" lon="2.1608">
        <ele>887.6</ele>
        <time>2022-05-22 01:19:24</time>
      </trkpt>
      <trkpt lat="42.29037" lon="2.1608">
        <ele>887.6</ele>
        <time>2022-05-22 01:19:25</time>
      </trkpt>
      <trkpt lat="42.2904" lon="2.16081">
        <ele>887.6</ele>
        <time>2022-05-22 01:19:26</time>
      </trkpt>
      <trkpt lat="42.29044" lon="2.16081">
        <ele>887.6</ele>
        <time>2022-05-22 01:19:27</time>
      </trkpt>
      <trkpt lat="42.29048" lon="2.16081">
        <ele>887.6</ele>
        <time>2022-05-22 01:19:28</time>
      </trkpt>
      <trkpt lat="42.29051" lon="2.16082">
        <ele>887.6</ele>
        <time>2022-05-22 01:19:29</time>
      </trkpt>
      <trkpt lat="42.29055" lon="2.16082">
        <ele>887.8</ele>
        <time>2022-05-22 01:19:30</time>
      </trkpt>
      <trkpt lat="42.29058" lon="2.16083">
        <ele>887.8</ele>
        <time>2022-05-22 01:19:31</time>
      </trkpt>
      <trkpt lat="42.29061" lon="2.16083">
        <ele>887.8</ele>
        <time>2022-05-22 01:19:32</time>
      </trkpt>
      <trkpt lat="42.29065" lon="2.16084">
        <ele>887.8</ele>
        <time>2022-05-22 01:19:33</time>
      </trkpt>
      <trkpt lat="42.29068" lon="2.16084">
        <ele>888</ele>
        <time>2022-05-22 01:19:34</time>
      </trkpt>
      <trkpt lat="42.29071" lon="2.16084">
        <ele>888</ele>
        <time>2022-05-22 01:19:35</time>
      </trkpt>
      <trkpt lat="42.29075" lon="2.16085">
        <ele>888.2</ele>
        <time>2022-05-22 01:19:36</time>
      </trkpt>
      <trkpt lat="42.29078" lon="2.16085">
        <ele>888.2</ele>
        <time>2022-05-22 01:19:37</time>
      </trkpt>
      <trkpt lat="42.29081" lon="2.16085">
        <ele>888.2</ele>
        <time>2022-05-22 01:19:38</time>
      </trkpt>
      <trkpt lat="42.29085" lon="2.16085">
        <ele>888.2</ele>
        <time>2022-05-22 01:19:39</time>
      </trkpt>
      <trkpt lat="42.29088" lon="2.16086">
        <ele>888.4</ele>
        <time>2022-05-22 01:19:40</time>
      </trkpt>
      <trkpt lat="42.29091" lon="2.16086">
        <ele>888.4</ele>
        <time>2022-05-22 01:19:41</time>
      </trkpt>
      <trkpt lat="42.29095" lon="2.16087">
        <ele>888.4</ele>
        <time>2022-05-22 01:19:42</time>
      </trkpt>
      <trkpt lat="42.29099" lon="2.16087">
        <ele>888.4</ele>
        <time>2022-05-22 01:19:43</time>
      </trkpt>
      <trkpt lat="42.29102" lon="2.16088">
        <ele>888.4</ele>
        <time>2022-05-22 01:19:44</time>
      </trkpt>
      <trkpt lat="42.29105" lon="2.16088">
        <ele>888.4</ele>
        <time>2022-05-22 01:19:45</time>
      </trkpt>
      <trkpt lat="42.29108" lon="2.16088">
        <ele>888.6</ele>
        <time>2022-05-22 01:19:46</time>
      </trkpt>
      <trkpt lat="42.29111" lon="2.16089">
        <ele>888.6</ele>
        <time>2022-05-22 01:19:47</time>
      </trkpt>
      <trkpt lat="42.29114" lon="2.16089">
        <ele>888.6</ele>
        <time>2022-05-22 01:19:48</time>
      </trkpt>
      <trkpt lat="42.29117" lon="2.1609">
        <ele>888.6</ele>
        <time>2022-05-22 01:19:49</time>
      </trkpt>
      <trkpt lat="42.2912" lon="2.1609">
        <ele>888.8</ele>
        <time>2022-05-22 01:19:50</time>
      </trkpt>
      <trkpt lat="42.29123" lon="2.1609">
        <ele>888.8</ele>
        <time>2022-05-22 01:19:51</time>
      </trkpt>
      <trkpt lat="42.29126" lon="2.1609">
        <ele>889</ele>
        <time>2022-05-22 01:19:52</time>
      </trkpt>
      <trkpt lat="42.29129" lon="2.1609">
        <ele>889</ele>
        <time>2022-05-22 01:19:53</time>
      </trkpt>
      <trkpt lat="42.29132" lon="2.1609">
        <ele>889.2</ele>
        <time>2022-05-22 01:19:54</time>
      </trkpt>
      <trkpt lat="42.29136" lon="2.1609">
        <ele>889.2</ele>
        <time>2022-05-22 01:19:55</time>
      </trkpt>
      <trkpt lat="42.29139" lon="2.1609">
        <ele>889.4</ele>
        <time>2022-05-22 01:19:56</time>
      </trkpt>
      <trkpt lat="42.29142" lon="2.16089">
        <ele>889.6</ele>
        <time>2022-05-22 01:19:57</time>
      </trkpt>
      <trkpt lat="42.29145" lon="2.16088">
        <ele>889.6</ele>
        <time>2022-05-22 01:19:58</time>
      </trkpt>
      <trkpt lat="42.29149" lon="2.16087">
        <ele>889.8</ele>
        <time>2022-05-22 01:19:59</time>
      </trkpt>
      <trkpt lat="42.29152" lon="2.16087">
        <ele>889.8</ele>
        <time>2022-05-22 01:20:00</time>
      </trkpt>
      <trkpt lat="42.29155" lon="2.16085">
        <ele>889.8</ele>
        <time>2022-05-22 01:20:01</time>
      </trkpt>
      <trkpt lat="42.29158" lon="2.16084">
        <ele>890</ele>
        <time>2022-05-22 01:20:02</time>
      </trkpt>
      <trkpt lat="42.29161" lon="2.16083">
        <ele>890</ele>
        <time>2022-05-22 01:20:03</time>
      </trkpt>
      <trkpt lat="42.29165" lon="2.16081">
        <ele>890</ele>
        <time>2022-05-22 01:20:04</time>
      </trkpt>
      <trkpt lat="42.29168" lon="2.1608">
        <ele>890</ele>
        <time>2022-05-22 01:20:05</time>
      </trkpt>
      <trkpt lat="42.29171" lon="2.16078">
        <ele>890.2</ele>
        <time>2022-05-22 01:20:06</time>
      </trkpt>
      <trkpt lat="42.29174" lon="2.16076">
        <ele>890.2</ele>
        <time>2022-05-22 01:20:07</time>
      </trkpt>
      <trkpt lat="42.29177" lon="2.16075">
        <ele>890.2</ele>
        <time>2022-05-22 01:20:08</time>
      </trkpt>
      <trkpt lat="42.2918" lon="2.16074">
        <ele>890.2</ele>
        <time>2022-05-22 01:20:09</time>
      </trkpt>
      <trkpt lat="42.29184" lon="2.16073">
        <ele>890.4</ele>
        <time>2022-05-22 01:20:10</time>
      </trkpt>
      <trkpt lat="42.29187" lon="2.16073">
        <ele>890.4</ele>
        <time>2022-05-22 01:20:11</time>
      </trkpt>
      <trkpt lat="42.29191" lon="2.16072">
        <ele>890.4</ele>
        <time>2022-05-22 01:20:12</time>
      </trkpt>
      <trkpt lat="42.29195" lon="2.16072">
        <ele>890.4</ele>
        <time>2022-05-22 01:20:13</time>
      </trkpt>
      <trkpt lat="42.29198" lon="2.16072">
        <ele>890.6</ele>
        <time>2022-05-22 01:20:14</time>
      </trkpt>
      <trkpt lat="42.29202" lon="2.16072">
        <ele>890.6</ele>
        <time>2022-05-22 01:20:15</time>
      </trkpt>
      <trkpt lat="42.29205" lon="2.16072">
        <ele>890.8</ele>
        <time>2022-05-22 01:20:16</time>
      </trkpt>
      <trkpt lat="42.29209" lon="2.16072">
        <ele>890.8</ele>
        <time>2022-05-22 01:20:17</time>
      </trkpt>
      <trkpt lat="42.29212" lon="2.16072">
        <ele>891</ele>
        <time>2022-05-22 01:20:18</time>
      </trkpt>
      <trkpt lat="42.29216" lon="2.16073">
        <ele>891</ele>
        <time>2022-05-22 01:20:19</time>
      </trkpt>
      <trkpt lat="42.29219" lon="2.16073">
        <ele>891.2</ele>
        <time>2022-05-22 01:20:20</time>
      </trkpt>
      <trkpt lat="42.29223" lon="2.16074">
        <ele>891.2</ele>
        <time>2022-05-22 01:20:21</time>
      </trkpt>
      <trkpt lat="42.29226" lon="2.16075">
        <ele>891.2</ele>
        <time>2022-05-22 01:20:22</time>
      </trkpt>
      <trkpt lat="42.2923" lon="2.16076">
        <ele>891.2</ele>
        <time>2022-05-22 01:20:23</time>
      </trkpt>
      <trkpt lat="42.29234" lon="2.16078">
        <ele>891.4</ele>
        <time>2022-05-22 01:20:24</time>
      </trkpt>
      <trkpt lat="42.29238" lon="2.1608">
        <ele>891.4</ele>
        <time>2022-05-22 01:20:25</time>
      </trkpt>
      <trkpt lat="42.29241" lon="2.16081">
        <ele>891.6</ele>
        <time>2022-05-22 01:20:26</time>
      </trkpt>
      <trkpt lat="42.29245" lon="2.16082">
        <ele>891.6</ele>
        <time>2022-05-22 01:20:27</time>
      </trkpt>
      <trkpt lat="42.29248" lon="2.16084">
        <ele>891.6</ele>
        <time>2022-05-22 01:20:28</time>
      </trkpt>
      <trkpt lat="42.29251" lon="2.16085">
        <ele>891.8</ele>
        <time>2022-05-22 01:20:29</time>
      </trkpt>
      <trkpt lat="42.29255" lon="2.16086">
        <ele>891.8</ele>
        <time>2022-05-22 01:20:30</time>
      </trkpt>
      <trkpt lat="42.29259" lon="2.16088">
        <ele>891.8</ele>
        <time>2022-05-22 01:20:31</time>
      </trkpt>
      <trkpt lat="42.29262" lon="2.16089">
        <ele>892</ele>
        <time>2022-05-22 01:20:32</time>
      </trkpt>
      <trkpt lat="42.29265" lon="2.16091">
        <ele>892</ele>
        <time>2022-05-22 01:20:33</time>
      </trkpt>
      <trkpt lat="42.29268" lon="2.16093">
        <ele>892.2</ele>
        <time>2022-05-22 01:20:34</time>
      </trkpt>
      <trkpt lat="42.29271" lon="2.16094">
        <ele>892.2</ele>
        <time>2022-05-22 01:20:35</time>
      </trkpt>
      <trkpt lat="42.29275" lon="2.16096">
        <ele>892.2</ele>
        <time>2022-05-22 01:20:36</time>
      </trkpt>
      <trkpt lat="42.29278" lon="2.16097">
        <ele>892.2</ele>
        <time>2022-05-22 01:20:37</time>
      </trkpt>
      <trkpt lat="42.29282" lon="2.16099">
        <ele>892.4</ele>
        <time>2022-05-22 01:20:38</time>
      </trkpt>
      <trkpt lat="42.29285" lon="2.16101">
        <ele>892.4</ele>
        <time>2022-05-22 01:20:39</time>
      </trkpt>
      <trkpt lat="42.29289" lon="2.16103">
        <ele>892.4</ele>
        <time>2022-05-22 01:20:40</time>
      </trkpt>
      <trkpt lat="42.29292" lon="2.16105">
        <ele>892.4</ele>
        <time>2022-05-22 01:20:41</time>
      </trkpt>
      <trkpt lat="42.29295" lon="2.16107">
        <ele>892.4</ele>
        <time>2022-05-22 01:20:42</time>
      </trkpt>
      <trkpt lat="42.29298" lon="2.16111">
        <ele>892.4</ele>
        <time>2022-05-22 01:20:43</time>
      </trkpt>
      <trkpt lat="42.29302" lon="2.16113">
        <ele>892.4</ele>
        <time>2022-05-22 01:20:44</time>
      </trkpt>
      <trkpt lat="42.29305" lon="2.16116">
        <ele>892.4</ele>
        <time>2022-05-22 01:20:45</time>
      </trkpt>
      <trkpt lat="42.29308" lon="2.1612">
        <ele>892.2</ele>
        <time>2022-05-22 01:20:46</time>
      </trkpt>
      <trkpt lat="42.29312" lon="2.16124">
        <ele>892.2</ele>
        <time>2022-05-22 01:20:47</time>
      </trkpt>
      <trkpt lat="42.29316" lon="2.16127">
        <ele>892.2</ele>
        <time>2022-05-22 01:20:48</time>
      </trkpt>
      <trkpt lat="42.2932" lon="2.1613">
        <ele>892.4</ele>
        <time>2022-05-22 01:20:49</time>
      </trkpt>
      <trkpt lat="42.29324" lon="2.16134">
        <ele>892.4</ele>
        <time>2022-05-22 01:20:50</time>
      </trkpt>
      <trkpt lat="42.29327" lon="2.16137">
        <ele>892.4</ele>
        <time>2022-05-22 01:20:51</time>
      </trkpt>
      <trkpt lat="42.29331" lon="2.16141">
        <ele>892.4</ele>
        <time>2022-05-22 01:20:52</time>
      </trkpt>
      <trkpt lat="42.29334" lon="2.16145">
        <ele>892.6</ele>
        <time>2022-05-22 01:20:53</time>
      </trkpt>
      <trkpt lat="42.29337" lon="2.16149">
        <ele>892.6</ele>
        <time>2022-05-22 01:20:54</time>
      </trkpt>
      <trkpt lat="42.29341" lon="2.16153">
        <ele>892.6</ele>
        <time>2022-05-22 01:20:55</time>
      </trkpt>
      <trkpt lat="42.29343" lon="2.16157">
        <ele>892.8</ele>
        <time>2022-05-22 01:20:56</time>
      </trkpt>
      <trkpt lat="42.29346" lon="2.16162">
        <ele>892.8</ele>
        <time>2022-05-22 01:20:57</time>
      </trkpt>
      <trkpt lat="42.29348" lon="2.16167">
        <ele>892.8</ele>
        <time>2022-05-22 01:20:58</time>
      </trkpt>
      <trkpt lat="42.29351" lon="2.16171">
        <ele>893</ele>
        <time>2022-05-22 01:20:59</time>
      </trkpt>
      <trkpt lat="42.29353" lon="2.16175">
        <ele>893</ele>
        <time>2022-05-22 01:21:00</time>
      </trkpt>
      <trkpt lat="42.29356" lon="2.16179">
        <ele>893.2</ele>
        <time>2022-05-22 01:21:01</time>
      </trkpt>
      <trkpt lat="42.29358" lon="2.16182">
        <ele>893.2</ele>
        <time>2022-05-22 01:21:02</time>
      </trkpt>
      <trkpt lat="42.29361" lon="2.16185">
        <ele>893.2</ele>
        <time>2022-05-22 01:21:03</time>
      </trkpt>
      <trkpt lat="42.29364" lon="2.16188">
        <ele>893.2</ele>
        <time>2022-05-22 01:21:04</time>
      </trkpt>
      <trkpt lat="42.29366" lon="2.16192">
        <ele>893.2</ele>
        <time>2022-05-22 01:21:05</time>
      </trkpt>
      <trkpt lat="42.29368" lon="2.16196">
        <ele>893.4</ele>
        <time>2022-05-22 01:21:06</time>
      </trkpt>
      <trkpt lat="42.29371" lon="2.16199">
        <ele>893.4</ele>
        <time>2022-05-22 01:21:07</time>
      </trkpt>
      <trkpt lat="42.29373" lon="2.16203">
        <ele>893.4</ele>
        <time>2022-05-22 01:21:08</time>
      </trkpt>
      <trkpt lat="42.29376" lon="2.16206">
        <ele>893.4</ele>
        <time>2022-05-22 01:21:09</time>
      </trkpt>
      <trkpt lat="42.29378" lon="2.16209">
        <ele>893.6</ele>
        <time>2022-05-22 01:21:10</time>
      </trkpt>
      <trkpt lat="42.29381" lon="2.16213">
        <ele>893.6</ele>
        <time>2022-05-22 01:21:11</time>
      </trkpt>
      <trkpt lat="42.29383" lon="2.16218">
        <ele>893.6</ele>
        <time>2022-05-22 01:21:12</time>
      </trkpt>
      <trkpt lat="42.29385" lon="2.16221">
        <ele>893.6</ele>
        <time>2022-05-22 01:21:13</time>
      </trkpt>
      <trkpt lat="42.29387" lon="2.16226">
        <ele>893.6</ele>
        <time>2022-05-22 01:21:14</time>
      </trkpt>
      <trkpt lat="42.29389" lon="2.1623">
        <ele>893.8</ele>
        <time>2022-05-22 01:21:15</time>
      </trkpt>
      <trkpt lat="42.2939" lon="2.16234">
        <ele>893.8</ele>
        <time>2022-05-22 01:21:16</time>
      </trkpt>
      <trkpt lat="42.29392" lon="2.16238">
        <ele>893.8</ele>
        <time>2022-05-22 01:21:17</time>
      </trkpt>
      <trkpt lat="42.29393" lon="2.16243">
        <ele>894</ele>
        <time>2022-05-22 01:21:18</time>
      </trkpt>
      <trkpt lat="42.29395" lon="2.16248">
        <ele>894</ele>
        <time>2022-05-22 01:21:19</time>
      </trkpt>
      <trkpt lat="42.29396" lon="2.16252">
        <ele>894</ele>
        <time>2022-05-22 01:21:20</time>
      </trkpt>
      <trkpt lat="42.29398" lon="2.16257">
        <ele>894.2</ele>
        <time>2022-05-22 01:21:21</time>
      </trkpt>
      <trkpt lat="42.294" lon="2.16261">
        <ele>894.2</ele>
        <time>2022-05-22 01:21:22</time>
      </trkpt>
      <trkpt lat="42.29402" lon="2.16266">
        <ele>894.2</ele>
        <time>2022-05-22 01:21:23</time>
      </trkpt>
      <trkpt lat="42.29403" lon="2.1627">
        <ele>894.2</ele>
        <time>2022-05-22 01:21:24</time>
      </trkpt>
      <trkpt lat="42.29405" lon="2.16275">
        <ele>894.2</ele>
        <time>2022-05-22 01:21:25</time>
      </trkpt>
      <trkpt lat="42.29406" lon="2.16279">
        <ele>894.4</ele>
        <time>2022-05-22 01:21:26</time>
      </trkpt>
      <trkpt lat="42.29407" lon="2.16283">
        <ele>894.4</ele>
        <time>2022-05-22 01:21:27</time>
      </trkpt>
      <trkpt lat="42.29408" lon="2.16288">
        <ele>894.4</ele>
        <time>2022-05-22 01:21:28</time>
      </trkpt>
      <trkpt lat="42.29409" lon="2.16293">
        <ele>894.4</ele>
        <time>2022-05-22 01:21:29</time>
      </trkpt>
      <trkpt lat="42.2941" lon="2.16299">
        <ele>894.4</ele>
        <time>2022-05-22 01:21:30</time>
      </trkpt>
      <trkpt lat="42.2941" lon="2.16304">
        <ele>894.6</ele>
        <time>2022-05-22 01:21:31</time>
      </trkpt>
      <trkpt lat="42.29411" lon="2.16309">
        <ele>894.6</ele>
        <time>2022-05-22 01:21:32</time>
      </trkpt>
      <trkpt lat="42.29412" lon="2.16314">
        <ele>894.8</ele>
        <time>2022-05-22 01:21:33</time>
      </trkpt>
      <trkpt lat="42.29414" lon="2.16318">
        <ele>894.8</ele>
        <time>2022-05-22 01:21:34</time>
      </trkpt>
      <trkpt lat="42.29415" lon="2.16323">
        <ele>894.8</ele>
        <time>2022-05-22 01:21:35</time>
      </trkpt>
      <trkpt lat="42.29416" lon="2.16328">
        <ele>895</ele>
        <time>2022-05-22 01:21:36</time>
      </trkpt>
      <trkpt lat="42.29418" lon="2.16333">
        <ele>895.2</ele>
        <time>2022-05-22 01:21:37</time>
      </trkpt>
      <trkpt lat="42.29419" lon="2.16337">
        <ele>895.2</ele>
        <time>2022-05-22 01:21:38</time>
      </trkpt>
      <trkpt lat="42.2942" lon="2.16341">
        <ele>895.2</ele>
        <time>2022-05-22 01:21:39</time>
      </trkpt>
      <trkpt lat="42.29422" lon="2.16345">
        <ele>895.4</ele>
        <time>2022-05-22 01:21:40</time>
      </trkpt>
      <trkpt lat="42.29423" lon="2.16349">
        <ele>895.4</ele>
        <time>2022-05-22 01:21:41</time>
      </trkpt>
      <trkpt lat="42.29424" lon="2.16353">
        <ele>895.4</ele>
        <time>2022-05-22 01:21:42</time>
      </trkpt>
      <trkpt lat="42.29425" lon="2.16357">
        <ele>895.4</ele>
        <time>2022-05-22 01:21:43</time>
      </trkpt>
      <trkpt lat="42.29426" lon="2.16361">
        <ele>895.6</ele>
        <time>2022-05-22 01:21:44</time>
      </trkpt>
      <trkpt lat="42.29427" lon="2.16365">
        <ele>895.6</ele>
        <time>2022-05-22 01:21:45</time>
      </trkpt>
      <trkpt lat="42.29429" lon="2.16369">
        <ele>895.6</ele>
        <time>2022-05-22 01:21:46</time>
      </trkpt>
      <trkpt lat="42.2943" lon="2.16373">
        <ele>895.6</ele>
        <time>2022-05-22 01:21:47</time>
      </trkpt>
      <trkpt lat="42.29433" lon="2.16377">
        <ele>895.6</ele>
        <time>2022-05-22 01:21:48</time>
      </trkpt>
      <trkpt lat="42.29435" lon="2.16381">
        <ele>895.8</ele>
        <time>2022-05-22 01:21:49</time>
      </trkpt>
      <trkpt lat="42.29436" lon="2.16386">
        <ele>895.8</ele>
        <time>2022-05-22 01:21:50</time>
      </trkpt>
      <trkpt lat="42.29438" lon="2.1639">
        <ele>895.8</ele>
        <time>2022-05-22 01:21:51</time>
      </trkpt>
      <trkpt lat="42.2944" lon="2.16394">
        <ele>895.8</ele>
        <time>2022-05-22 01:21:52</time>
      </trkpt>
      <trkpt lat="42.29442" lon="2.16398">
        <ele>896</ele>
        <time>2022-05-22 01:21:53</time>
      </trkpt>
      <trkpt lat="42.29444" lon="2.16402">
        <ele>896</ele>
        <time>2022-05-22 01:21:54</time>
      </trkpt>
      <trkpt lat="42.29446" lon="2.16406">
        <ele>896</ele>
        <time>2022-05-22 01:21:55</time>
      </trkpt>
      <trkpt lat="42.29449" lon="2.1641">
        <ele>896.2</ele>
        <time>2022-05-22 01:21:56</time>
      </trkpt>
      <trkpt lat="42.29451" lon="2.16414">
        <ele>896.2</ele>
        <time>2022-05-22 01:21:57</time>
      </trkpt>
      <trkpt lat="42.29453" lon="2.16418">
        <ele>896.2</ele>
        <time>2022-05-22 01:21:58</time>
      </trkpt>
      <trkpt lat="42.29455" lon="2.16422">
        <ele>896.2</ele>
        <time>2022-05-22 01:21:59</time>
      </trkpt>
      <trkpt lat="42.29458" lon="2.16426">
        <ele>896.2</ele>
        <time>2022-05-22 01:22:00</time>
      </trkpt>
      <trkpt lat="42.2946" lon="2.16429">
        <ele>896.4</ele>
        <time>2022-05-22 01:22:01</time>
      </trkpt>
      <trkpt lat="42.29463" lon="2.16433">
        <ele>896.4</ele>
        <time>2022-05-22 01:22:02</time>
      </trkpt>
      <trkpt lat="42.29466" lon="2.16436">
        <ele>896.4</ele>
        <time>2022-05-22 01:22:03</time>
      </trkpt>
      <trkpt lat="42.29468" lon="2.16439">
        <ele>896.6</ele>
        <time>2022-05-22 01:22:04</time>
      </trkpt>
      <trkpt lat="42.29471" lon="2.16442">
        <ele>896.6</ele>
        <time>2022-05-22 01:22:05</time>
      </trkpt>
      <trkpt lat="42.29473" lon="2.16446">
        <ele>896.6</ele>
        <time>2022-05-22 01:22:06</time>
      </trkpt>
      <trkpt lat="42.29476" lon="2.16449">
        <ele>896.8</ele>
        <time>2022-05-22 01:22:07</time>
      </trkpt>
      <trkpt lat="42.29479" lon="2.16452">
        <ele>896.8</ele>
        <time>2022-05-22 01:22:08</time>
      </trkpt>
      <trkpt lat="42.29481" lon="2.16455">
        <ele>897</ele>
        <time>2022-05-22 01:22:09</time>
      </trkpt>
      <trkpt lat="42.29484" lon="2.16457">
        <ele>897</ele>
        <time>2022-05-22 01:22:10</time>
      </trkpt>
      <trkpt lat="42.29486" lon="2.16459">
        <ele>897</ele>
        <time>2022-05-22 01:22:11</time>
      </trkpt>
      <trkpt lat="42.29489" lon="2.16462">
        <ele>897</ele>
        <time>2022-05-22 01:22:12</time>
      </trkpt>
      <trkpt lat="42.29491" lon="2.16464">
        <ele>897.2</ele>
        <time>2022-05-22 01:22:13</time>
      </trkpt>
      <trkpt lat="42.29494" lon="2.16466">
        <ele>897.2</ele>
        <time>2022-05-22 01:22:14</time>
      </trkpt>
      <trkpt lat="42.29497" lon="2.16468">
        <ele>897.2</ele>
        <time>2022-05-22 01:22:15</time>
      </trkpt>
      <trkpt lat="42.295" lon="2.1647">
        <ele>897.2</ele>
        <time>2022-05-22 01:22:16</time>
      </trkpt>
      <trkpt lat="42.29504" lon="2.16471">
        <ele>897.4</ele>
        <time>2022-05-22 01:22:17</time>
      </trkpt>
      <trkpt lat="42.29507" lon="2.16473">
        <ele>897.4</ele>
        <time>2022-05-22 01:22:18</time>
      </trkpt>
      <trkpt lat="42.2951" lon="2.16475">
        <ele>897.4</ele>
        <time>2022-05-22 01:22:19</time>
      </trkpt>
      <trkpt lat="42.29513" lon="2.16477">
        <ele>897.6</ele>
        <time>2022-05-22 01:22:20</time>
      </trkpt>
      <trkpt lat="42.29516" lon="2.16478">
        <ele>897.6</ele>
        <time>2022-05-22 01:22:21</time>
      </trkpt>
      <trkpt lat="42.2952" lon="2.16479">
        <ele>897.6</ele>
        <time>2022-05-22 01:22:22</time>
      </trkpt>
      <trkpt lat="42.29523" lon="2.1648">
        <ele>897.6</ele>
        <time>2022-05-22 01:22:23</time>
      </trkpt>
      <trkpt lat="42.29527" lon="2.16482">
        <ele>897.8</ele>
        <time>2022-05-22 01:22:24</time>
      </trkpt>
      <trkpt lat="42.29531" lon="2.16483">
        <ele>897.8</ele>
        <time>2022-05-22 01:22:25</time>
      </trkpt>
      <trkpt lat="42.29534" lon="2.16484">
        <ele>897.8</ele>
        <time>2022-05-22 01:22:26</time>
      </trkpt>
      <trkpt lat="42.29537" lon="2.16485">
        <ele>898</ele>
        <time>2022-05-22 01:22:27</time>
      </trkpt>
      <trkpt lat="42.29541" lon="2.16486">
        <ele>898</ele>
        <time>2022-05-22 01:22:28</time>
      </trkpt>
      <trkpt lat="42.29544" lon="2.16487">
        <ele>898.2</ele>
        <time>2022-05-22 01:22:29</time>
      </trkpt>
      <trkpt lat="42.29548" lon="2.16488">
        <ele>898.2</ele>
        <time>2022-05-22 01:22:30</time>
      </trkpt>
      <trkpt lat="42.29552" lon="2.16489">
        <ele>898.4</ele>
        <time>2022-05-22 01:22:31</time>
      </trkpt>
      <trkpt lat="42.29555" lon="2.1649">
        <ele>898.4</ele>
        <time>2022-05-22 01:22:32</time>
      </trkpt>
      <trkpt lat="42.29557" lon="2.16491">
        <ele>898.6</ele>
        <time>2022-05-22 01:22:33</time>
      </trkpt>
      <trkpt lat="42.29562" lon="2.16492">
        <ele>898.6</ele>
        <time>2022-05-22 01:22:34</time>
      </trkpt>
      <trkpt lat="42.29565" lon="2.16493">
        <ele>898.6</ele>
        <time>2022-05-22 01:22:35</time>
      </trkpt>
      <trkpt lat="42.29568" lon="2.16494">
        <ele>898.8</ele>
        <time>2022-05-22 01:22:36</time>
      </trkpt>
      <trkpt lat="42.29572" lon="2.16496">
        <ele>898.8</ele>
        <time>2022-05-22 01:22:37</time>
      </trkpt>
      <trkpt lat="42.29575" lon="2.16496">
        <ele>899</ele>
        <time>2022-05-22 01:22:38</time>
      </trkpt>
      <trkpt lat="42.29578" lon="2.16497">
        <ele>899</ele>
        <time>2022-05-22 01:22:39</time>
      </trkpt>
      <trkpt lat="42.29582" lon="2.16499">
        <ele>899</ele>
        <time>2022-05-22 01:22:40</time>
      </trkpt>
      <trkpt lat="42.29585" lon="2.165">
        <ele>899.2</ele>
        <time>2022-05-22 01:22:41</time>
      </trkpt>
      <trkpt lat="42.29589" lon="2.16501">
        <ele>899.2</ele>
        <time>2022-05-22 01:22:42</time>
      </trkpt>
      <trkpt lat="42.29592" lon="2.16502">
        <ele>899.4</ele>
        <time>2022-05-22 01:22:43</time>
      </trkpt>
      <trkpt lat="42.29595" lon="2.16503">
        <ele>899.4</ele>
        <time>2022-05-22 01:22:44</time>
      </trkpt>
      <trkpt lat="42.29598" lon="2.16504">
        <ele>899.6</ele>
        <time>2022-05-22 01:22:45</time>
      </trkpt>
      <trkpt lat="42.29602" lon="2.16505">
        <ele>899.6</ele>
        <time>2022-05-22 01:22:46</time>
      </trkpt>
      <trkpt lat="42.29605" lon="2.16506">
        <ele>899.8</ele>
        <time>2022-05-22 01:22:47</time>
      </trkpt>
      <trkpt lat="42.29607" lon="2.16507">
        <ele>899.8</ele>
        <time>2022-05-22 01:22:48</time>
      </trkpt>
      <trkpt lat="42.2961" lon="2.16508">
        <ele>900</ele>
        <time>2022-05-22 01:22:49</time>
      </trkpt>
      <trkpt lat="42.29614" lon="2.16509">
        <ele>900</ele>
        <time>2022-05-22 01:22:50</time>
      </trkpt>
      <trkpt lat="42.29617" lon="2.1651">
        <ele>900.2</ele>
        <time>2022-05-22 01:22:51</time>
      </trkpt>
      <trkpt lat="42.2962" lon="2.16511">
        <ele>900.2</ele>
        <time>2022-05-22 01:22:52</time>
      </trkpt>
      <trkpt lat="42.29623" lon="2.16512">
        <ele>900.2</ele>
        <time>2022-05-22 01:22:53</time>
      </trkpt>
      <trkpt lat="42.29627" lon="2.16512">
        <ele>900.4</ele>
        <time>2022-05-22 01:22:54</time>
      </trkpt>
      <trkpt lat="42.2963" lon="2.16513">
        <ele>900.4</ele>
        <time>2022-05-22 01:22:55</time>
      </trkpt>
      <trkpt lat="42.29632" lon="2.16514">
        <ele>900.6</ele>
        <time>2022-05-22 01:22:56</time>
      </trkpt>
      <trkpt lat="42.29635" lon="2.16515">
        <ele>900.6</ele>
        <time>2022-05-22 01:22:57</time>
      </trkpt>
      <trkpt lat="42.29637" lon="2.16516">
        <ele>900.8</ele>
        <time>2022-05-22 01:22:58</time>
      </trkpt>
      <trkpt lat="42.2964" lon="2.16517">
        <ele>901</ele>
        <time>2022-05-22 01:22:59</time>
      </trkpt>
      <trkpt lat="42.29643" lon="2.16517">
        <ele>901</ele>
        <time>2022-05-22 01:23:00</time>
      </trkpt>
      <trkpt lat="42.29645" lon="2.16518">
        <ele>901.2</ele>
        <time>2022-05-22 01:23:01</time>
      </trkpt>
      <trkpt lat="42.29648" lon="2.1652">
        <ele>901.2</ele>
        <time>2022-05-22 01:23:02</time>
      </trkpt>
      <trkpt lat="42.29651" lon="2.1652">
        <ele>901.4</ele>
        <time>2022-05-22 01:23:03</time>
      </trkpt>
      <trkpt lat="42.29654" lon="2.16521">
        <ele>901.4</ele>
        <time>2022-05-22 01:23:04</time>
      </trkpt>
      <trkpt lat="42.29656" lon="2.16522">
        <ele>901.4</ele>
        <time>2022-05-22 01:23:05</time>
      </trkpt>
      <trkpt lat="42.2966" lon="2.16523">
        <ele>901.6</ele>
        <time>2022-05-22 01:23:06</time>
      </trkpt>
      <trkpt lat="42.29663" lon="2.16524">
        <ele>901.6</ele>
        <time>2022-05-22 01:23:07</time>
      </trkpt>
      <trkpt lat="42.29666" lon="2.16525">
        <ele>901.6</ele>
        <time>2022-05-22 01:23:08</time>
      </trkpt>
      <trkpt lat="42.29669" lon="2.16526">
        <ele>901.8</ele>
        <time>2022-05-22 01:23:09</time>
      </trkpt>
      <trkpt lat="42.29673" lon="2.16526">
        <ele>901.8</ele>
        <time>2022-05-22 01:23:10</time>
      </trkpt>
      <trkpt lat="42.29676" lon="2.16527">
        <ele>902</ele>
        <time>2022-05-22 01:23:11</time>
      </trkpt>
      <trkpt lat="42.2968" lon="2.16528">
        <ele>902</ele>
        <time>2022-05-22 01:23:12</time>
      </trkpt>
      <trkpt lat="42.29684" lon="2.16528">
        <ele>902</ele>
        <time>2022-05-22 01:23:13</time>
      </trkpt>
      <trkpt lat="42.29687" lon="2.16528">
        <ele>902.2</ele>
        <time>2022-05-22 01:23:14</time>
      </trkpt>
      <trkpt lat="42.2969" lon="2.16529">
        <ele>902.2</ele>
        <time>2022-05-22 01:23:15</time>
      </trkpt>
      <trkpt lat="42.29694" lon="2.1653">
        <ele>902.2</ele>
        <time>2022-05-22 01:23:16</time>
      </trkpt>
      <trkpt lat="42.29697" lon="2.1653">
        <ele>902.4</ele>
        <time>2022-05-22 01:23:17</time>
      </trkpt>
      <trkpt lat="42.29701" lon="2.16531">
        <ele>902.4</ele>
        <time>2022-05-22 01:23:18</time>
      </trkpt>
      <trkpt lat="42.29704" lon="2.16531">
        <ele>902.6</ele>
        <time>2022-05-22 01:23:19</time>
      </trkpt>
      <trkpt lat="42.29708" lon="2.16532">
        <ele>902.6</ele>
        <time>2022-05-22 01:23:20</time>
      </trkpt>
      <trkpt lat="42.29711" lon="2.16532">
        <ele>902.8</ele>
        <time>2022-05-22 01:23:21</time>
      </trkpt>
      <trkpt lat="42.29715" lon="2.16532">
        <ele>902.8</ele>
        <time>2022-05-22 01:23:22</time>
      </trkpt>
      <trkpt lat="42.29718" lon="2.16532">
        <ele>903</ele>
        <time>2022-05-22 01:23:23</time>
      </trkpt>
      <trkpt lat="42.29721" lon="2.16532">
        <ele>903</ele>
        <time>2022-05-22 01:23:24</time>
      </trkpt>
      <trkpt lat="42.29724" lon="2.16532">
        <ele>903.2</ele>
        <time>2022-05-22 01:23:25</time>
      </trkpt>
      <trkpt lat="42.29727" lon="2.16532">
        <ele>903.2</ele>
        <time>2022-05-22 01:23:26</time>
      </trkpt>
      <trkpt lat="42.2973" lon="2.16531">
        <ele>903.4</ele>
        <time>2022-05-22 01:23:27</time>
      </trkpt>
      <trkpt lat="42.29734" lon="2.16532">
        <ele>903.4</ele>
        <time>2022-05-22 01:23:28</time>
      </trkpt>
      <trkpt lat="42.29736" lon="2.16532">
        <ele>903.6</ele>
        <time>2022-05-22 01:23:29</time>
      </trkpt>
      <trkpt lat="42.2974" lon="2.16532">
        <ele>903.6</ele>
        <time>2022-05-22 01:23:30</time>
      </trkpt>
      <trkpt lat="42.29743" lon="2.16533">
        <ele>903.6</ele>
        <time>2022-05-22 01:23:31</time>
      </trkpt>
      <trkpt lat="42.29747" lon="2.16533">
        <ele>903.8</ele>
        <time>2022-05-22 01:23:32</time>
      </trkpt>
      <trkpt lat="42.29751" lon="2.16534">
        <ele>903.8</ele>
        <time>2022-05-22 01:23:33</time>
      </trkpt>
      <trkpt lat="42.29754" lon="2.16534">
        <ele>904</ele>
        <time>2022-05-22 01:23:34</time>
      </trkpt>
      <trkpt lat="42.29758" lon="2.16534">
        <ele>904</ele>
        <time>2022-05-22 01:23:35</time>
      </trkpt>
      <trkpt lat="42.29761" lon="2.16535">
        <ele>904.2</ele>
        <time>2022-05-22 01:23:36</time>
      </trkpt>
      <trkpt lat="42.29764" lon="2.16535">
        <ele>904.2</ele>
        <time>2022-05-22 01:23:37</time>
      </trkpt>
      <trkpt lat="42.29768" lon="2.16536">
        <ele>904.2</ele>
        <time>2022-05-22 01:23:38</time>
      </trkpt>
      <trkpt lat="42.29771" lon="2.16536">
        <ele>904.4</ele>
        <time>2022-05-22 01:23:39</time>
      </trkpt>
      <trkpt lat="42.29775" lon="2.16537">
        <ele>904.4</ele>
        <time>2022-05-22 01:23:40</time>
      </trkpt>
      <trkpt lat="42.29779" lon="2.16538">
        <ele>904.6</ele>
        <time>2022-05-22 01:23:41</time>
      </trkpt>
      <trkpt lat="42.29783" lon="2.16538">
        <ele>904.6</ele>
        <time>2022-05-22 01:23:42</time>
      </trkpt>
      <trkpt lat="42.29787" lon="2.16539">
        <ele>904.8</ele>
        <time>2022-05-22 01:23:43</time>
      </trkpt>
      <trkpt lat="42.2979" lon="2.16539">
        <ele>904.8</ele>
        <time>2022-05-22 01:23:44</time>
      </trkpt>
      <trkpt lat="42.29793" lon="2.16539">
        <ele>904.8</ele>
        <time>2022-05-22 01:23:45</time>
      </trkpt>
      <trkpt lat="42.29798" lon="2.1654">
        <ele>905</ele>
        <time>2022-05-22 01:23:46</time>
      </trkpt>
      <trkpt lat="42.29801" lon="2.1654">
        <ele>905</ele>
        <time>2022-05-22 01:23:47</time>
      </trkpt>
      <trkpt lat="42.29804" lon="2.16541">
        <ele>905.2</ele>
        <time>2022-05-22 01:23:48</time>
      </trkpt>
      <trkpt lat="42.29808" lon="2.16541">
        <ele>905.2</ele>
        <time>2022-05-22 01:23:49</time>
      </trkpt>
      <trkpt lat="42.29812" lon="2.16542">
        <ele>905.2</ele>
        <time>2022-05-22 01:23:50</time>
      </trkpt>
      <trkpt lat="42.29816" lon="2.16542">
        <ele>905.4</ele>
        <time>2022-05-22 01:23:51</time>
      </trkpt>
      <trkpt lat="42.2982" lon="2.16544">
        <ele>905.4</ele>
        <time>2022-05-22 01:23:52</time>
      </trkpt>
      <trkpt lat="42.29824" lon="2.16545">
        <ele>905.4</ele>
        <time>2022-05-22 01:23:53</time>
      </trkpt>
      <trkpt lat="42.29828" lon="2.16547">
        <ele>905.6</ele>
        <time>2022-05-22 01:23:54</time>
      </trkpt>
      <trkpt lat="42.29832" lon="2.16549">
        <ele>905.6</ele>
        <time>2022-05-22 01:23:55</time>
      </trkpt>
      <trkpt lat="42.29836" lon="2.16551">
        <ele>905.8</ele>
        <time>2022-05-22 01:23:56</time>
      </trkpt>
      <trkpt lat="42.29839" lon="2.16552">
        <ele>905.8</ele>
        <time>2022-05-22 01:23:57</time>
      </trkpt>
      <trkpt lat="42.29842" lon="2.16554">
        <ele>906</ele>
        <time>2022-05-22 01:23:58</time>
      </trkpt>
      <trkpt lat="42.29845" lon="2.16555">
        <ele>906</ele>
        <time>2022-05-22 01:23:59</time>
      </trkpt>
      <trkpt lat="42.29847" lon="2.16557">
        <ele>906.2</ele>
        <time>2022-05-22 01:24:00</time>
      </trkpt>
      <trkpt lat="42.2985" lon="2.16559">
        <ele>906.4</ele>
        <time>2022-05-22 01:24:01</time>
      </trkpt>
      <trkpt lat="42.29852" lon="2.16561">
        <ele>906.4</ele>
        <time>2022-05-22 01:24:02</time>
      </trkpt>
      <trkpt lat="42.29854" lon="2.16563">
        <ele>906.6</ele>
        <time>2022-05-22 01:24:03</time>
      </trkpt>
      <trkpt lat="42.29856" lon="2.16565">
        <ele>906.6</ele>
        <time>2022-05-22 01:24:04</time>
      </trkpt>
      <trkpt lat="42.29858" lon="2.16567">
        <ele>906.8</ele>
        <time>2022-05-22 01:24:05</time>
      </trkpt>
      <trkpt lat="42.2986" lon="2.1657">
        <ele>906.8</ele>
        <time>2022-05-22 01:24:06</time>
      </trkpt>
      <trkpt lat="42.29863" lon="2.16572">
        <ele>907</ele>
        <time>2022-05-22 01:24:07</time>
      </trkpt>
      <trkpt lat="42.29865" lon="2.16575">
        <ele>907.2</ele>
        <time>2022-05-22 01:24:08</time>
      </trkpt>
      <trkpt lat="42.29867" lon="2.16577">
        <ele>907.2</ele>
        <time>2022-05-22 01:24:09</time>
      </trkpt>
      <trkpt lat="42.2987" lon="2.16578">
        <ele>907.4</ele>
        <time>2022-05-22 01:24:10</time>
      </trkpt>
      <trkpt lat="42.29872" lon="2.1658">
        <ele>907.4</ele>
        <time>2022-05-22 01:24:11</time>
      </trkpt>
      <trkpt lat="42.29874" lon="2.16581">
        <ele>907.6</ele>
        <time>2022-05-22 01:24:12</time>
      </trkpt>
      <trkpt lat="42.29876" lon="2.16583">
        <ele>907.6</ele>
        <time>2022-05-22 01:24:13</time>
      </trkpt>
      <trkpt lat="42.29879" lon="2.16584">
        <ele>907.8</ele>
        <time>2022-05-22 01:24:14</time>
      </trkpt>
      <trkpt lat="42.29881" lon="2.16586">
        <ele>907.8</ele>
        <time>2022-05-22 01:24:15</time>
      </trkpt>
      <trkpt lat="42.29882" lon="2.16589">
        <ele>908</ele>
        <time>2022-05-22 01:24:16</time>
      </trkpt>
      <trkpt lat="42.29884" lon="2.1659">
        <ele>908</ele>
        <time>2022-05-22 01:24:17</time>
      </trkpt>
      <trkpt lat="42.29886" lon="2.16592">
        <ele>908.2</ele>
        <time>2022-05-22 01:24:18</time>
      </trkpt>
      <trkpt lat="42.29888" lon="2.16594">
        <ele>908.2</ele>
        <time>2022-05-22 01:24:19</time>
      </trkpt>
      <trkpt lat="42.2989" lon="2.16595">
        <ele>908.4</ele>
        <time>2022-05-22 01:24:20</time>
      </trkpt>
      <trkpt lat="42.29892" lon="2.16597">
        <ele>908.6</ele>
        <time>2022-05-22 01:24:21</time>
      </trkpt>
      <trkpt lat="42.29894" lon="2.16599">
        <ele>908.6</ele>
        <time>2022-05-22 01:24:22</time>
      </trkpt>
      <trkpt lat="42.29896" lon="2.16601">
        <ele>908.8</ele>
        <time>2022-05-22 01:24:23</time>
      </trkpt>
      <trkpt lat="42.29898" lon="2.16602">
        <ele>908.8</ele>
        <time>2022-05-22 01:24:24</time>
      </trkpt>
      <trkpt lat="42.29901" lon="2.16604">
        <ele>909</ele>
        <time>2022-05-22 01:24:25</time>
      </trkpt>
      <trkpt lat="42.29903" lon="2.16606">
        <ele>909.2</ele>
        <time>2022-05-22 01:24:26</time>
      </trkpt>
      <trkpt lat="42.29906" lon="2.16607">
        <ele>909.2</ele>
        <time>2022-05-22 01:24:27</time>
      </trkpt>
      <trkpt lat="42.29909" lon="2.16609">
        <ele>909.4</ele>
        <time>2022-05-22 01:24:28</time>
      </trkpt>
      <trkpt lat="42.29912" lon="2.16611">
        <ele>909.4</ele>
        <time>2022-05-22 01:24:29</time>
      </trkpt>
      <trkpt lat="42.29915" lon="2.16612">
        <ele>909.6</ele>
        <time>2022-05-22 01:24:30</time>
      </trkpt>
      <trkpt lat="42.29918" lon="2.16613">
        <ele>909.6</ele>
        <time>2022-05-22 01:24:31</time>
      </trkpt>
      <trkpt lat="42.29922" lon="2.16615">
        <ele>909.6</ele>
        <time>2022-05-22 01:24:32</time>
      </trkpt>
      <trkpt lat="42.29925" lon="2.16616">
        <ele>909.8</ele>
        <time>2022-05-22 01:24:33</time>
      </trkpt>
      <trkpt lat="42.29928" lon="2.16617">
        <ele>909.8</ele>
        <time>2022-05-22 01:24:34</time>
      </trkpt>
      <trkpt lat="42.29932" lon="2.16617">
        <ele>909.8</ele>
        <time>2022-05-22 01:24:35</time>
      </trkpt>
      <trkpt lat="42.29935" lon="2.16619">
        <ele>910</ele>
        <time>2022-05-22 01:24:36</time>
      </trkpt>
      <trkpt lat="42.29938" lon="2.1662">
        <ele>910</ele>
        <time>2022-05-22 01:24:37</time>
      </trkpt>
      <trkpt lat="42.29943" lon="2.16621">
        <ele>910</ele>
        <time>2022-05-22 01:24:38</time>
      </trkpt>
      <trkpt lat="42.29947" lon="2.16623">
        <ele>910.2</ele>
        <time>2022-05-22 01:24:39</time>
      </trkpt>
      <trkpt lat="42.29951" lon="2.16624">
        <ele>910.2</ele>
        <time>2022-05-22 01:24:40</time>
      </trkpt>
      <trkpt lat="42.29955" lon="2.16625">
        <ele>910.2</ele>
        <time>2022-05-22 01:24:41</time>
      </trkpt>
      <trkpt lat="42.29959" lon="2.16627">
        <ele>910.4</ele>
        <time>2022-05-22 01:24:42</time>
      </trkpt>
      <trkpt lat="42.29964" lon="2.16628">
        <ele>910.4</ele>
        <time>2022-05-22 01:24:43</time>
      </trkpt>
      <trkpt lat="42.29968" lon="2.1663">
        <ele>910.4</ele>
        <time>2022-05-22 01:24:44</time>
      </trkpt>
      <trkpt lat="42.29972" lon="2.16632">
        <ele>910.6</ele>
        <time>2022-05-22 01:24:45</time>
      </trkpt>
      <trkpt lat="42.29976" lon="2.16633">
        <ele>910.6</ele>
        <time>2022-05-22 01:24:46</time>
      </trkpt>
      <trkpt lat="42.29979" lon="2.16635">
        <ele>910.6</ele>
        <time>2022-05-22 01:24:47</time>
      </trkpt>
      <trkpt lat="42.29983" lon="2.16636">
        <ele>910.8</ele>
        <time>2022-05-22 01:24:48</time>
      </trkpt>
      <trkpt lat="42.29987" lon="2.16638">
        <ele>910.8</ele>
        <time>2022-05-22 01:24:49</time>
      </trkpt>
      <trkpt lat="42.29991" lon="2.16639">
        <ele>910.8</ele>
        <time>2022-05-22 01:24:50</time>
      </trkpt>
      <trkpt lat="42.29994" lon="2.16641">
        <ele>910.8</ele>
        <time>2022-05-22 01:24:51</time>
      </trkpt>
      <trkpt lat="42.29998" lon="2.16643">
        <ele>911</ele>
        <time>2022-05-22 01:24:52</time>
      </trkpt>
      <trkpt lat="42.30002" lon="2.16644">
        <ele>911</ele>
        <time>2022-05-22 01:24:53</time>
      </trkpt>
      <trkpt lat="42.30004" lon="2.16644">
        <ele>911</ele>
        <time>2022-05-22 01:24:54</time>
      </trkpt>
      <trkpt lat="42.30009" lon="2.16646">
        <ele>911.2</ele>
        <time>2022-05-22 01:24:55</time>
      </trkpt>
      <trkpt lat="42.30013" lon="2.16647">
        <ele>911.4</ele>
        <time>2022-05-22 01:24:56</time>
      </trkpt>
      <trkpt lat="42.30016" lon="2.16647">
        <ele>911.4</ele>
        <time>2022-05-22 01:24:57</time>
      </trkpt>
      <trkpt lat="42.30019" lon="2.16648">
        <ele>911.6</ele>
        <time>2022-05-22 01:24:58</time>
      </trkpt>
      <trkpt lat="42.30021" lon="2.16649">
        <ele>911.8</ele>
        <time>2022-05-22 01:24:59</time>
      </trkpt>
      <trkpt lat="42.30024" lon="2.1665">
        <ele>911.8</ele>
        <time>2022-05-22 01:25:00</time>
      </trkpt>
      <trkpt lat="42.30027" lon="2.1665">
        <ele>912</ele>
        <time>2022-05-22 01:25:01</time>
      </trkpt>
      <trkpt lat="42.3003" lon="2.16651">
        <ele>912</ele>
        <time>2022-05-22 01:25:02</time>
      </trkpt>
      <trkpt lat="42.30033" lon="2.16652">
        <ele>912</ele>
        <time>2022-05-22 01:25:03</time>
      </trkpt>
      <trkpt lat="42.30037" lon="2.16654">
        <ele>912.2</ele>
        <time>2022-05-22 01:25:04</time>
      </trkpt>
      <trkpt lat="42.3004" lon="2.16655">
        <ele>912.2</ele>
        <time>2022-05-22 01:25:05</time>
      </trkpt>
      <trkpt lat="42.30044" lon="2.16656">
        <ele>912.2</ele>
        <time>2022-05-22 01:25:06</time>
      </trkpt>
      <trkpt lat="42.30048" lon="2.16657">
        <ele>912.4</ele>
        <time>2022-05-22 01:25:07</time>
      </trkpt>
      <trkpt lat="42.30052" lon="2.16658">
        <ele>912.4</ele>
        <time>2022-05-22 01:25:08</time>
      </trkpt>
      <trkpt lat="42.30056" lon="2.16659">
        <ele>912.4</ele>
        <time>2022-05-22 01:25:09</time>
      </trkpt>
      <trkpt lat="42.30059" lon="2.1666">
        <ele>912.4</ele>
        <time>2022-05-22 01:25:10</time>
      </trkpt>
      <trkpt lat="42.30064" lon="2.16662">
        <ele>912.4</ele>
        <time>2022-05-22 01:25:11</time>
      </trkpt>
      <trkpt lat="42.30067" lon="2.16663">
        <ele>912.4</ele>
        <time>2022-05-22 01:25:12</time>
      </trkpt>
      <trkpt lat="42.30071" lon="2.16664">
        <ele>912.6</ele>
        <time>2022-05-22 01:25:13</time>
      </trkpt>
      <trkpt lat="42.30076" lon="2.16666">
        <ele>912.6</ele>
        <time>2022-05-22 01:25:14</time>
      </trkpt>
      <trkpt lat="42.3008" lon="2.16667">
        <ele>912.6</ele>
        <time>2022-05-22 01:25:15</time>
      </trkpt>
      <trkpt lat="42.30084" lon="2.16669">
        <ele>912.6</ele>
        <time>2022-05-22 01:25:16</time>
      </trkpt>
      <trkpt lat="42.30088" lon="2.16671">
        <ele>912.6</ele>
        <time>2022-05-22 01:25:17</time>
      </trkpt>
      <trkpt lat="42.30092" lon="2.16673">
        <ele>912.6</ele>
        <time>2022-05-22 01:25:18</time>
      </trkpt>
      <trkpt lat="42.30096" lon="2.16675">
        <ele>912.4</ele>
        <time>2022-05-22 01:25:19</time>
      </trkpt>
      <trkpt lat="42.30101" lon="2.16677">
        <ele>912.4</ele>
        <time>2022-05-22 01:25:20</time>
      </trkpt>
      <trkpt lat="42.30104" lon="2.16679">
        <ele>912.4</ele>
        <time>2022-05-22 01:25:21</time>
      </trkpt>
      <trkpt lat="42.30108" lon="2.16681">
        <ele>912.2</ele>
        <time>2022-05-22 01:25:22</time>
      </trkpt>
      <trkpt lat="42.30113" lon="2.16683">
        <ele>912.2</ele>
        <time>2022-05-22 01:25:23</time>
      </trkpt>
      <trkpt lat="42.30117" lon="2.16685">
        <ele>912.2</ele>
        <time>2022-05-22 01:25:24</time>
      </trkpt>
      <trkpt lat="42.30121" lon="2.16687">
        <ele>912.2</ele>
        <time>2022-05-22 01:25:25</time>
      </trkpt>
      <trkpt lat="42.30125" lon="2.16689">
        <ele>912.2</ele>
        <time>2022-05-22 01:25:26</time>
      </trkpt>
      <trkpt lat="42.30129" lon="2.1669">
        <ele>912.2</ele>
        <time>2022-05-22 01:25:27</time>
      </trkpt>
      <trkpt lat="42.30134" lon="2.16692">
        <ele>912.2</ele>
        <time>2022-05-22 01:25:28</time>
      </trkpt>
      <trkpt lat="42.30138" lon="2.16692">
        <ele>912</ele>
        <time>2022-05-22 01:25:29</time>
      </trkpt>
      <trkpt lat="42.30144" lon="2.16693">
        <ele>912</ele>
        <time>2022-05-22 01:25:30</time>
      </trkpt>
      <trkpt lat="42.30148" lon="2.16693">
        <ele>912</ele>
        <time>2022-05-22 01:25:31</time>
      </trkpt>
      <trkpt lat="42.30152" lon="2.16692">
        <ele>912</ele>
        <time>2022-05-22 01:25:32</time>
      </trkpt>
      <trkpt lat="42.30157" lon="2.16691">
        <ele>912</ele>
        <time>2022-05-22 01:25:33</time>
      </trkpt>
      <trkpt lat="42.30161" lon="2.16691">
        <ele>912.2</ele>
        <time>2022-05-22 01:25:34</time>
      </trkpt>
      <trkpt lat="42.30165" lon="2.1669">
        <ele>912.2</ele>
        <time>2022-05-22 01:25:35</time>
      </trkpt>
      <trkpt lat="42.3017" lon="2.16688">
        <ele>912</ele>
        <time>2022-05-22 01:25:36</time>
      </trkpt>
      <trkpt lat="42.30174" lon="2.16687">
        <ele>912</ele>
        <time>2022-05-22 01:25:37</time>
      </trkpt>
      <trkpt lat="42.30179" lon="2.16685">
        <ele>912</ele>
        <time>2022-05-22 01:25:38</time>
      </trkpt>
      <trkpt lat="42.30183" lon="2.16683">
        <ele>912</ele>
        <time>2022-05-22 01:25:39</time>
      </trkpt>
      <trkpt lat="42.30187" lon="2.16681">
        <ele>912</ele>
        <time>2022-05-22 01:25:40</time>
      </trkpt>
      <trkpt lat="42.30191" lon="2.16679">
        <ele>912</ele>
        <time>2022-05-22 01:25:41</time>
      </trkpt>
      <trkpt lat="42.30196" lon="2.16677">
        <ele>912</ele>
        <time>2022-05-22 01:25:42</time>
      </trkpt>
      <trkpt lat="42.302" lon="2.16675">
        <ele>912</ele>
        <time>2022-05-22 01:25:43</time>
      </trkpt>
      <trkpt lat="42.30203" lon="2.16673">
        <ele>912</ele>
        <time>2022-05-22 01:25:44</time>
      </trkpt>
      <trkpt lat="42.30207" lon="2.1667">
        <ele>912</ele>
        <time>2022-05-22 01:25:45</time>
      </trkpt>
      <trkpt lat="42.30211" lon="2.16668">
        <ele>912</ele>
        <time>2022-05-22 01:25:46</time>
      </trkpt>
      <trkpt lat="42.30215" lon="2.16666">
        <ele>912</ele>
        <time>2022-05-22 01:25:47</time>
      </trkpt>
      <trkpt lat="42.3022" lon="2.16664">
        <ele>912.2</ele>
        <time>2022-05-22 01:25:48</time>
      </trkpt>
      <trkpt lat="42.30224" lon="2.16661">
        <ele>912.2</ele>
        <time>2022-05-22 01:25:49</time>
      </trkpt>
      <trkpt lat="42.30228" lon="2.16659">
        <ele>912.2</ele>
        <time>2022-05-22 01:25:50</time>
      </trkpt>
      <trkpt lat="42.30232" lon="2.16656">
        <ele>912.2</ele>
        <time>2022-05-22 01:25:51</time>
      </trkpt>
      <trkpt lat="42.30237" lon="2.16654">
        <ele>912.2</ele>
        <time>2022-05-22 01:25:52</time>
      </trkpt>
      <trkpt lat="42.30242" lon="2.16652">
        <ele>912.2</ele>
        <time>2022-05-22 01:25:53</time>
      </trkpt>
      <trkpt lat="42.30247" lon="2.1665">
        <ele>912</ele>
        <time>2022-05-22 01:25:54</time>
      </trkpt>
      <trkpt lat="42.30252" lon="2.16647">
        <ele>912</ele>
        <time>2022-05-22 01:25:55</time>
      </trkpt>
      <trkpt lat="42.30256" lon="2.16645">
        <ele>912</ele>
        <time>2022-05-22 01:25:56</time>
      </trkpt>
      <trkpt lat="42.3026" lon="2.16644">
        <ele>912</ele>
        <time>2022-05-22 01:25:57</time>
      </trkpt>
      <trkpt lat="42.30267" lon="2.16642">
        <ele>911.8</ele>
        <time>2022-05-22 01:25:58</time>
      </trkpt>
      <trkpt lat="42.30272" lon="2.16642">
        <ele>911.8</ele>
        <time>2022-05-22 01:25:59</time>
      </trkpt>
      <trkpt lat="42.30277" lon="2.16642">
        <ele>911.6</ele>
        <time>2022-05-22 01:26:00</time>
      </trkpt>
      <trkpt lat="42.30282" lon="2.16643">
        <ele>911.6</ele>
        <time>2022-05-22 01:26:01</time>
      </trkpt>
      <trkpt lat="42.30287" lon="2.16644">
        <ele>911.4</ele>
        <time>2022-05-22 01:26:02</time>
      </trkpt>
      <trkpt lat="42.30291" lon="2.16645">
        <ele>911.4</ele>
        <time>2022-05-22 01:26:03</time>
      </trkpt>
      <trkpt lat="42.30297" lon="2.16646">
        <ele>911.4</ele>
        <time>2022-05-22 01:26:04</time>
      </trkpt>
      <trkpt lat="42.30301" lon="2.16648">
        <ele>911.6</ele>
        <time>2022-05-22 01:26:05</time>
      </trkpt>
      <trkpt lat="42.30306" lon="2.16649">
        <ele>911.6</ele>
        <time>2022-05-22 01:26:06</time>
      </trkpt>
      <trkpt lat="42.3031" lon="2.1665">
        <ele>911.6</ele>
        <time>2022-05-22 01:26:07</time>
      </trkpt>
      <trkpt lat="42.30314" lon="2.16652">
        <ele>911.8</ele>
        <time>2022-05-22 01:26:08</time>
      </trkpt>
      <trkpt lat="42.30318" lon="2.16653">
        <ele>911.8</ele>
        <time>2022-05-22 01:26:09</time>
      </trkpt>
      <trkpt lat="42.30322" lon="2.16654">
        <ele>911.8</ele>
        <time>2022-05-22 01:26:10</time>
      </trkpt>
      <trkpt lat="42.30326" lon="2.16655">
        <ele>911.8</ele>
        <time>2022-05-22 01:26:11</time>
      </trkpt>
      <trkpt lat="42.30331" lon="2.16657">
        <ele>911.8</ele>
        <time>2022-05-22 01:26:12</time>
      </trkpt>
      <trkpt lat="42.30335" lon="2.16658">
        <ele>912</ele>
        <time>2022-05-22 01:26:13</time>
      </trkpt>
      <trkpt lat="42.30339" lon="2.16659">
        <ele>912</ele>
        <time>2022-05-22 01:26:14</time>
      </trkpt>
      <trkpt lat="42.30344" lon="2.1666">
        <ele>912</ele>
        <time>2022-05-22 01:26:15</time>
      </trkpt>
      <trkpt lat="42.30348" lon="2.16662">
        <ele>912.2</ele>
        <time>2022-05-22 01:26:16</time>
      </trkpt>
      <trkpt lat="42.30351" lon="2.16663">
        <ele>912.2</ele>
        <time>2022-05-22 01:26:17</time>
      </trkpt>
      <trkpt lat="42.30355" lon="2.16665">
        <ele>912.4</ele>
        <time>2022-05-22 01:26:18</time>
      </trkpt>
      <trkpt lat="42.30359" lon="2.16666">
        <ele>912.4</ele>
        <time>2022-05-22 01:26:19</time>
      </trkpt>
      <trkpt lat="42.30362" lon="2.16667">
        <ele>912.6</ele>
        <time>2022-05-22 01:26:20</time>
      </trkpt>
      <trkpt lat="42.30366" lon="2.16669">
        <ele>912.6</ele>
        <time>2022-05-22 01:26:21</time>
      </trkpt>
      <trkpt lat="42.30369" lon="2.1667">
        <ele>912.8</ele>
        <time>2022-05-22 01:26:22</time>
      </trkpt>
      <trkpt lat="42.30373" lon="2.16672">
        <ele>912.8</ele>
        <time>2022-05-22 01:26:23</time>
      </trkpt>
      <trkpt lat="42.30376" lon="2.16673">
        <ele>913</ele>
        <time>2022-05-22 01:26:24</time>
      </trkpt>
      <trkpt lat="42.3038" lon="2.16675">
        <ele>913</ele>
        <time>2022-05-22 01:26:25</time>
      </trkpt>
      <trkpt lat="42.30384" lon="2.16676">
        <ele>913.2</ele>
        <time>2022-05-22 01:26:26</time>
      </trkpt>
      <trkpt lat="42.30388" lon="2.16677">
        <ele>913.4</ele>
        <time>2022-05-22 01:26:27</time>
      </trkpt>
      <trkpt lat="42.30391" lon="2.16678">
        <ele>913.4</ele>
        <time>2022-05-22 01:26:28</time>
      </trkpt>
      <trkpt lat="42.30395" lon="2.16679">
        <ele>913.6</ele>
        <time>2022-05-22 01:26:29</time>
      </trkpt>
      <trkpt lat="42.30399" lon="2.1668">
        <ele>913.6</ele>
        <time>2022-05-22 01:26:30</time>
      </trkpt>
      <trkpt lat="42.30402" lon="2.1668">
        <ele>913.8</ele>
        <time>2022-05-22 01:26:31</time>
      </trkpt>
      <trkpt lat="42.30405" lon="2.16681">
        <ele>913.8</ele>
        <time>2022-05-22 01:26:32</time>
      </trkpt>
      <trkpt lat="42.30409" lon="2.16682">
        <ele>914</ele>
        <time>2022-05-22 01:26:33</time>
      </trkpt>
      <trkpt lat="42.30412" lon="2.16683">
        <ele>914.2</ele>
        <time>2022-05-22 01:26:34</time>
      </trkpt>
      <trkpt lat="42.30416" lon="2.16684">
        <ele>914.2</ele>
        <time>2022-05-22 01:26:35</time>
      </trkpt>
      <trkpt lat="42.3042" lon="2.16685">
        <ele>914.4</ele>
        <time>2022-05-22 01:26:36</time>
      </trkpt>
      <trkpt lat="42.30423" lon="2.16686">
        <ele>914.4</ele>
        <time>2022-05-22 01:26:37</time>
      </trkpt>
      <trkpt lat="42.30426" lon="2.16687">
        <ele>914.6</ele>
        <time>2022-05-22 01:26:38</time>
      </trkpt>
      <trkpt lat="42.3043" lon="2.16688">
        <ele>914.6</ele>
        <time>2022-05-22 01:26:39</time>
      </trkpt>
      <trkpt lat="42.30433" lon="2.16689">
        <ele>914.8</ele>
        <time>2022-05-22 01:26:40</time>
      </trkpt>
      <trkpt lat="42.30436" lon="2.16689">
        <ele>914.8</ele>
        <time>2022-05-22 01:26:41</time>
      </trkpt>
      <trkpt lat="42.30439" lon="2.1669">
        <ele>915</ele>
        <time>2022-05-22 01:26:42</time>
      </trkpt>
      <trkpt lat="42.30441" lon="2.1669">
        <ele>915</ele>
        <time>2022-05-22 01:26:43</time>
      </trkpt>
      <trkpt lat="42.30444" lon="2.1669">
        <ele>915.2</ele>
        <time>2022-05-22 01:26:44</time>
      </trkpt>
      <trkpt lat="42.30447" lon="2.1669">
        <ele>915.2</ele>
        <time>2022-05-22 01:26:45</time>
      </trkpt>
      <trkpt lat="42.3045" lon="2.16691">
        <ele>915.4</ele>
        <time>2022-05-22 01:26:46</time>
      </trkpt>
      <trkpt lat="42.30453" lon="2.16691">
        <ele>915.4</ele>
        <time>2022-05-22 01:26:47</time>
      </trkpt>
      <trkpt lat="42.30456" lon="2.16691">
        <ele>915.6</ele>
        <time>2022-05-22 01:26:48</time>
      </trkpt>
      <trkpt lat="42.30459" lon="2.16691">
        <ele>915.6</ele>
        <time>2022-05-22 01:26:49</time>
      </trkpt>
      <trkpt lat="42.30462" lon="2.16691">
        <ele>915.8</ele>
        <time>2022-05-22 01:26:50</time>
      </trkpt>
      <trkpt lat="42.30465" lon="2.1669">
        <ele>915.8</ele>
        <time>2022-05-22 01:26:51</time>
      </trkpt>
      <trkpt lat="42.30468" lon="2.16691">
        <ele>916</ele>
        <time>2022-05-22 01:26:52</time>
      </trkpt>
      <trkpt lat="42.30471" lon="2.16692">
        <ele>916</ele>
        <time>2022-05-22 01:26:53</time>
      </trkpt>
      <trkpt lat="42.30474" lon="2.16692">
        <ele>916.2</ele>
        <time>2022-05-22 01:26:54</time>
      </trkpt>
      <trkpt lat="42.30478" lon="2.16693">
        <ele>916.2</ele>
        <time>2022-05-22 01:26:55</time>
      </trkpt>
      <trkpt lat="42.30481" lon="2.16693">
        <ele>916.4</ele>
        <time>2022-05-22 01:26:56</time>
      </trkpt>
      <trkpt lat="42.30484" lon="2.16694">
        <ele>916.4</ele>
        <time>2022-05-22 01:26:57</time>
      </trkpt>
      <trkpt lat="42.30488" lon="2.16694">
        <ele>916.4</ele>
        <time>2022-05-22 01:26:58</time>
      </trkpt>
      <trkpt lat="42.30491" lon="2.16695">
        <ele>916.6</ele>
        <time>2022-05-22 01:26:59</time>
      </trkpt>
      <trkpt lat="42.30494" lon="2.16695">
        <ele>916.6</ele>
        <time>2022-05-22 01:27:00</time>
      </trkpt>
      <trkpt lat="42.30497" lon="2.16695">
        <ele>916.6</ele>
        <time>2022-05-22 01:27:01</time>
      </trkpt>
      <trkpt lat="42.305" lon="2.16695">
        <ele>916.8</ele>
        <time>2022-05-22 01:27:02</time>
      </trkpt>
      <trkpt lat="42.30503" lon="2.16694">
        <ele>916.8</ele>
        <time>2022-05-22 01:27:03</time>
      </trkpt>
      <trkpt lat="42.30508" lon="2.16694">
        <ele>916.8</ele>
        <time>2022-05-22 01:27:04</time>
      </trkpt>
      <trkpt lat="42.30512" lon="2.16695">
        <ele>917</ele>
        <time>2022-05-22 01:27:05</time>
      </trkpt>
      <trkpt lat="42.30516" lon="2.16695">
        <ele>917</ele>
        <time>2022-05-22 01:27:06</time>
      </trkpt>
      <trkpt lat="42.30521" lon="2.16695">
        <ele>917</ele>
        <time>2022-05-22 01:27:07</time>
      </trkpt>
      <trkpt lat="42.30525" lon="2.16696">
        <ele>917</ele>
        <time>2022-05-22 01:27:08</time>
      </trkpt>
      <trkpt lat="42.30529" lon="2.16696">
        <ele>917</ele>
        <time>2022-05-22 01:27:09</time>
      </trkpt>
      <trkpt lat="42.30532" lon="2.16696">
        <ele>917</ele>
        <time>2022-05-22 01:27:10</time>
      </trkpt>
      <trkpt lat="42.30535" lon="2.16696">
        <ele>917.2</ele>
        <time>2022-05-22 01:27:11</time>
      </trkpt>
      <trkpt lat="42.30538" lon="2.16696">
        <ele>917.2</ele>
        <time>2022-05-22 01:27:12</time>
      </trkpt>
      <trkpt lat="42.30542" lon="2.16695">
        <ele>917.2</ele>
        <time>2022-05-22 01:27:13</time>
      </trkpt>
      <trkpt lat="42.30546" lon="2.16695">
        <ele>917.2</ele>
        <time>2022-05-22 01:27:14</time>
      </trkpt>
      <trkpt lat="42.30549" lon="2.16694">
        <ele>917.2</ele>
        <time>2022-05-22 01:27:15</time>
      </trkpt>
      <trkpt lat="42.30552" lon="2.16692">
        <ele>917.4</ele>
        <time>2022-05-22 01:27:16</time>
      </trkpt>
      <trkpt lat="42.30555" lon="2.16692">
        <ele>917.4</ele>
        <time>2022-05-22 01:27:17</time>
      </trkpt>
      <trkpt lat="42.30558" lon="2.16691">
        <ele>917.6</ele>
        <time>2022-05-22 01:27:18</time>
      </trkpt>
      <trkpt lat="42.3056" lon="2.16691">
        <ele>917.8</ele>
        <time>2022-05-22 01:27:19</time>
      </trkpt>
      <trkpt lat="42.30561" lon="2.16691">
        <ele>918</ele>
        <time>2022-05-22 01:27:20</time>
      </trkpt>
      <trkpt lat="42.30576" lon="2.16692">
        <ele>918.8</ele>
        <time>2022-05-22 01:28:28</time>
      </trkpt>
      <trkpt lat="42.30577" lon="2.16692">
        <ele>918.8</ele>
        <time>2022-05-22 01:28:29</time>
      </trkpt>
      <trkpt lat="42.30578" lon="2.16692">
        <ele>918.8</ele>
        <time>2022-05-22 01:28:30</time>
      </trkpt>
      <trkpt lat="42.3058" lon="2.16691">
        <ele>918.8</ele>
        <time>2022-05-22 01:28:31</time>
      </trkpt>
      <trkpt lat="42.30582" lon="2.1669">
        <ele>918.8</ele>
        <time>2022-05-22 01:28:32</time>
      </trkpt>
      <trkpt lat="42.30584" lon="2.16689">
        <ele>918.8</ele>
        <time>2022-05-22 01:28:33</time>
      </trkpt>
      <trkpt lat="42.30586" lon="2.16687">
        <ele>918.8</ele>
        <time>2022-05-22 01:28:34</time>
      </trkpt>
      <trkpt lat="42.30589" lon="2.16685">
        <ele>918.8</ele>
        <time>2022-05-22 01:28:35</time>
      </trkpt>
      <trkpt lat="42.30592" lon="2.16684">
        <ele>918.8</ele>
        <time>2022-05-22 01:28:36</time>
      </trkpt>
      <trkpt lat="42.30596" lon="2.16683">
        <ele>918.8</ele>
        <time>2022-05-22 01:28:37</time>
      </trkpt>
      <trkpt lat="42.30599" lon="2.16683">
        <ele>918.8</ele>
        <time>2022-05-22 01:28:38</time>
      </trkpt>
      <trkpt lat="42.30603" lon="2.16683">
        <ele>919</ele>
        <time>2022-05-22 01:28:39</time>
      </trkpt>
      <trkpt lat="42.30607" lon="2.16683">
        <ele>919</ele>
        <time>2022-05-22 01:28:40</time>
      </trkpt>
      <trkpt lat="42.30611" lon="2.16682">
        <ele>919</ele>
        <time>2022-05-22 01:28:41</time>
      </trkpt>
      <trkpt lat="42.30615" lon="2.16681">
        <ele>919.2</ele>
        <time>2022-05-22 01:28:42</time>
      </trkpt>
      <trkpt lat="42.30619" lon="2.1668">
        <ele>919.2</ele>
        <time>2022-05-22 01:28:43</time>
      </trkpt>
      <trkpt lat="42.30622" lon="2.16678">
        <ele>919.4</ele>
        <time>2022-05-22 01:28:44</time>
      </trkpt>
      <trkpt lat="42.30625" lon="2.16676">
        <ele>919.6</ele>
        <time>2022-05-22 01:28:45</time>
      </trkpt>
      <trkpt lat="42.30628" lon="2.16674">
        <ele>919.6</ele>
        <time>2022-05-22 01:28:46</time>
      </trkpt>
      <trkpt lat="42.3063" lon="2.16672">
        <ele>919.8</ele>
        <time>2022-05-22 01:28:47</time>
      </trkpt>
      <trkpt lat="42.30633" lon="2.1667">
        <ele>920</ele>
        <time>2022-05-22 01:28:48</time>
      </trkpt>
      <trkpt lat="42.30635" lon="2.16667">
        <ele>920.2</ele>
        <time>2022-05-22 01:28:49</time>
      </trkpt>
      <trkpt lat="42.30637" lon="2.16665">
        <ele>920.2</ele>
        <time>2022-05-22 01:28:50</time>
      </trkpt>
      <trkpt lat="42.30639" lon="2.16663">
        <ele>920.4</ele>
        <time>2022-05-22 01:28:51</time>
      </trkpt>
      <trkpt lat="42.30641" lon="2.1666">
        <ele>920.6</ele>
        <time>2022-05-22 01:28:52</time>
      </trkpt>
      <trkpt lat="42.30642" lon="2.16657">
        <ele>920.6</ele>
        <time>2022-05-22 01:28:53</time>
      </trkpt>
      <trkpt lat="42.30644" lon="2.16655">
        <ele>920.8</ele>
        <time>2022-05-22 01:28:54</time>
      </trkpt>
      <trkpt lat="42.30646" lon="2.16652">
        <ele>921</ele>
        <time>2022-05-22 01:28:55</time>
      </trkpt>
      <trkpt lat="42.30649" lon="2.16649">
        <ele>921</ele>
        <time>2022-05-22 01:28:56</time>
      </trkpt>
      <trkpt lat="42.30651" lon="2.16647">
        <ele>921.2</ele>
        <time>2022-05-22 01:28:57</time>
      </trkpt>
      <trkpt lat="42.30653" lon="2.16644">
        <ele>921.2</ele>
        <time>2022-05-22 01:28:58</time>
      </trkpt>
      <trkpt lat="42.30656" lon="2.16641">
        <ele>921.4</ele>
        <time>2022-05-22 01:28:59</time>
      </trkpt>
      <trkpt lat="42.30658" lon="2.16639">
        <ele>921.4</ele>
        <time>2022-05-22 01:29:00</time>
      </trkpt>
      <trkpt lat="42.30661" lon="2.16637">
        <ele>921.6</ele>
        <time>2022-05-22 01:29:01</time>
      </trkpt>
      <trkpt lat="42.30663" lon="2.16635">
        <ele>921.6</ele>
        <time>2022-05-22 01:29:02</time>
      </trkpt>
      <trkpt lat="42.30665" lon="2.16633">
        <ele>921.8</ele>
        <time>2022-05-22 01:29:03</time>
      </trkpt>
      <trkpt lat="42.30667" lon="2.1663">
        <ele>921.8</ele>
        <time>2022-05-22 01:29:04</time>
      </trkpt>
      <trkpt lat="42.30669" lon="2.16628">
        <ele>922</ele>
        <time>2022-05-22 01:29:05</time>
      </trkpt>
      <trkpt lat="42.30671" lon="2.16626">
        <ele>922</ele>
        <time>2022-05-22 01:29:06</time>
      </trkpt>
      <trkpt lat="42.30673" lon="2.16624">
        <ele>922.2</ele>
        <time>2022-05-22 01:29:07</time>
      </trkpt>
      <trkpt lat="42.30676" lon="2.16621">
        <ele>922.2</ele>
        <time>2022-05-22 01:29:08</time>
      </trkpt>
      <trkpt lat="42.30678" lon="2.16619">
        <ele>922.4</ele>
        <time>2022-05-22 01:29:09</time>
      </trkpt>
      <trkpt lat="42.30681" lon="2.16617">
        <ele>922.4</ele>
        <time>2022-05-22 01:29:10</time>
      </trkpt>
      <trkpt lat="42.30682" lon="2.16615">
        <ele>922.6</ele>
        <time>2022-05-22 01:29:11</time>
      </trkpt>
      <trkpt lat="42.30684" lon="2.16613">
        <ele>922.6</ele>
        <time>2022-05-22 01:29:12</time>
      </trkpt>
      <trkpt lat="42.30686" lon="2.16611">
        <ele>922.8</ele>
        <time>2022-05-22 01:29:13</time>
      </trkpt>
      <trkpt lat="42.30688" lon="2.16609">
        <ele>922.8</ele>
        <time>2022-05-22 01:29:14</time>
      </trkpt>
      <trkpt lat="42.30689" lon="2.16606">
        <ele>922.8</ele>
        <time>2022-05-22 01:29:15</time>
      </trkpt>
      <trkpt lat="42.30691" lon="2.16604">
        <ele>923</ele>
        <time>2022-05-22 01:29:16</time>
      </trkpt>
      <trkpt lat="42.30693" lon="2.16601">
        <ele>923</ele>
        <time>2022-05-22 01:29:17</time>
      </trkpt>
      <trkpt lat="42.30695" lon="2.16598">
        <ele>923</ele>
        <time>2022-05-22 01:29:18</time>
      </trkpt>
      <trkpt lat="42.30698" lon="2.16595">
        <ele>923.2</ele>
        <time>2022-05-22 01:29:19</time>
      </trkpt>
      <trkpt lat="42.30701" lon="2.16592">
        <ele>923.2</ele>
        <time>2022-05-22 01:29:20</time>
      </trkpt>
      <trkpt lat="42.30703" lon="2.16589">
        <ele>923.2</ele>
        <time>2022-05-22 01:29:21</time>
      </trkpt>
      <trkpt lat="42.30705" lon="2.16587">
        <ele>923.4</ele>
        <time>2022-05-22 01:29:22</time>
      </trkpt>
      <trkpt lat="42.30707" lon="2.16584">
        <ele>923.4</ele>
        <time>2022-05-22 01:29:23</time>
      </trkpt>
      <trkpt lat="42.30709" lon="2.16581">
        <ele>923.6</ele>
        <time>2022-05-22 01:29:24</time>
      </trkpt>
      <trkpt lat="42.3071" lon="2.16578">
        <ele>923.6</ele>
        <time>2022-05-22 01:29:25</time>
      </trkpt>
      <trkpt lat="42.30712" lon="2.16575">
        <ele>923.6</ele>
        <time>2022-05-22 01:29:26</time>
      </trkpt>
      <trkpt lat="42.30714" lon="2.16573">
        <ele>923.6</ele>
        <time>2022-05-22 01:29:27</time>
      </trkpt>
      <trkpt lat="42.30715" lon="2.1657">
        <ele>923.8</ele>
        <time>2022-05-22 01:29:28</time>
      </trkpt>
      <trkpt lat="42.30717" lon="2.16567">
        <ele>923.8</ele>
        <time>2022-05-22 01:29:29</time>
      </trkpt>
      <trkpt lat="42.30719" lon="2.16564">
        <ele>924</ele>
        <time>2022-05-22 01:29:30</time>
      </trkpt>
      <trkpt lat="42.30721" lon="2.16562">
        <ele>924</ele>
        <time>2022-05-22 01:29:31</time>
      </trkpt>
      <trkpt lat="42.30722" lon="2.16559">
        <ele>924</ele>
        <time>2022-05-22 01:29:32</time>
      </trkpt>
      <trkpt lat="42.30724" lon="2.16556">
        <ele>924.2</ele>
        <time>2022-05-22 01:29:33</time>
      </trkpt>
      <trkpt lat="42.30726" lon="2.16553">
        <ele>924.2</ele>
        <time>2022-05-22 01:29:34</time>
      </trkpt>
      <trkpt lat="42.30728" lon="2.1655">
        <ele>924.4</ele>
        <time>2022-05-22 01:29:35</time>
      </trkpt>
      <trkpt lat="42.3073" lon="2.16547">
        <ele>924.4</ele>
        <time>2022-05-22 01:29:36</time>
      </trkpt>
      <trkpt lat="42.30732" lon="2.16544">
        <ele>924.4</ele>
        <time>2022-05-22 01:29:37</time>
      </trkpt>
      <trkpt lat="42.30734" lon="2.16542">
        <ele>924.6</ele>
        <time>2022-05-22 01:29:38</time>
      </trkpt>
      <trkpt lat="42.30736" lon="2.16539">
        <ele>924.6</ele>
        <time>2022-05-22 01:29:39</time>
      </trkpt>
      <trkpt lat="42.30738" lon="2.16536">
        <ele>924.8</ele>
        <time>2022-05-22 01:29:40</time>
      </trkpt>
      <trkpt lat="42.3074" lon="2.16533">
        <ele>924.8</ele>
        <time>2022-05-22 01:29:41</time>
      </trkpt>
      <trkpt lat="42.30741" lon="2.16531">
        <ele>925</ele>
        <time>2022-05-22 01:29:42</time>
      </trkpt>
      <trkpt lat="42.30743" lon="2.16528">
        <ele>925</ele>
        <time>2022-05-22 01:29:43</time>
      </trkpt>
      <trkpt lat="42.30745" lon="2.16524">
        <ele>925.2</ele>
        <time>2022-05-22 01:29:44</time>
      </trkpt>
      <trkpt lat="42.30747" lon="2.16522">
        <ele>925.2</ele>
        <time>2022-05-22 01:29:45</time>
      </trkpt>
      <trkpt lat="42.30749" lon="2.16519">
        <ele>925.4</ele>
        <time>2022-05-22 01:29:46</time>
      </trkpt>
      <trkpt lat="42.30751" lon="2.16516">
        <ele>925.4</ele>
        <time>2022-05-22 01:29:47</time>
      </trkpt>
      <trkpt lat="42.30753" lon="2.16513">
        <ele>925.4</ele>
        <time>2022-05-22 01:29:48</time>
      </trkpt>
      <trkpt lat="42.30755" lon="2.16511">
        <ele>925.6</ele>
        <time>2022-05-22 01:29:49</time>
      </trkpt>
      <trkpt lat="42.30757" lon="2.16508">
        <ele>925.6</ele>
        <time>2022-05-22 01:29:50</time>
      </trkpt>
      <trkpt lat="42.3076" lon="2.16505">
        <ele>925.8</ele>
        <time>2022-05-22 01:29:51</time>
      </trkpt>
      <trkpt lat="42.30762" lon="2.16502">
        <ele>925.8</ele>
        <time>2022-05-22 01:29:52</time>
      </trkpt>
      <trkpt lat="42.30764" lon="2.165">
        <ele>926</ele>
        <time>2022-05-22 01:29:53</time>
      </trkpt>
      <trkpt lat="42.30766" lon="2.16497">
        <ele>926</ele>
        <time>2022-05-22 01:29:54</time>
      </trkpt>
      <trkpt lat="42.30769" lon="2.16494">
        <ele>926.2</ele>
        <time>2022-05-22 01:29:55</time>
      </trkpt>
      <trkpt lat="42.30771" lon="2.16491">
        <ele>926.2</ele>
        <time>2022-05-22 01:29:56</time>
      </trkpt>
      <trkpt lat="42.30774" lon="2.16488">
        <ele>926.4</ele>
        <time>2022-05-22 01:29:57</time>
      </trkpt>
      <trkpt lat="42.30776" lon="2.16485">
        <ele>926.6</ele>
        <time>2022-05-22 01:29:58</time>
      </trkpt>
      <trkpt lat="42.30778" lon="2.16483">
        <ele>926.6</ele>
        <time>2022-05-22 01:29:59</time>
      </trkpt>
      <trkpt lat="42.3078" lon="2.1648">
        <ele>926.8</ele>
        <time>2022-05-22 01:30:00</time>
      </trkpt>
      <trkpt lat="42.30782" lon="2.16477">
        <ele>926.8</ele>
        <time>2022-05-22 01:30:01</time>
      </trkpt>
      <trkpt lat="42.30784" lon="2.16475">
        <ele>927</ele>
        <time>2022-05-22 01:30:02</time>
      </trkpt>
      <trkpt lat="42.30786" lon="2.16472">
        <ele>927</ele>
        <time>2022-05-22 01:30:03</time>
      </trkpt>
      <trkpt lat="42.30788" lon="2.16469">
        <ele>927.2</ele>
        <time>2022-05-22 01:30:04</time>
      </trkpt>
      <trkpt lat="42.3079" lon="2.16467">
        <ele>927.2</ele>
        <time>2022-05-22 01:30:05</time>
      </trkpt>
      <trkpt lat="42.30792" lon="2.16464">
        <ele>927.4</ele>
        <time>2022-05-22 01:30:06</time>
      </trkpt>
      <trkpt lat="42.30794" lon="2.16461">
        <ele>927.6</ele>
        <time>2022-05-22 01:30:07</time>
      </trkpt>
      <trkpt lat="42.30795" lon="2.16458">
        <ele>927.6</ele>
        <time>2022-05-22 01:30:08</time>
      </trkpt>
      <trkpt lat="42.30796" lon="2.16455">
        <ele>927.8</ele>
        <time>2022-05-22 01:30:09</time>
      </trkpt>
      <trkpt lat="42.30798" lon="2.16452">
        <ele>927.8</ele>
        <time>2022-05-22 01:30:10</time>
      </trkpt>
      <trkpt lat="42.30799" lon="2.16449">
        <ele>928</ele>
        <time>2022-05-22 01:30:11</time>
      </trkpt>
      <trkpt lat="42.30801" lon="2.16447">
        <ele>928</ele>
        <time>2022-05-22 01:30:12</time>
      </trkpt>
      <trkpt lat="42.30803" lon="2.16444">
        <ele>928.2</ele>
        <time>2022-05-22 01:30:13</time>
      </trkpt>
      <trkpt lat="42.30805" lon="2.16441">
        <ele>928.2</ele>
        <time>2022-05-22 01:30:14</time>
      </trkpt>
      <trkpt lat="42.30807" lon="2.16438">
        <ele>928.4</ele>
        <time>2022-05-22 01:30:15</time>
      </trkpt>
      <trkpt lat="42.30809" lon="2.16435">
        <ele>928.4</ele>
        <time>2022-05-22 01:30:16</time>
      </trkpt>
      <trkpt lat="42.30812" lon="2.16433">
        <ele>928.6</ele>
        <time>2022-05-22 01:30:17</time>
      </trkpt>
      <trkpt lat="42.30814" lon="2.1643">
        <ele>928.6</ele>
        <time>2022-05-22 01:30:18</time>
      </trkpt>
      <trkpt lat="42.30816" lon="2.16427">
        <ele>928.8</ele>
        <time>2022-05-22 01:30:19</time>
      </trkpt>
      <trkpt lat="42.30818" lon="2.16423">
        <ele>929</ele>
        <time>2022-05-22 01:30:20</time>
      </trkpt>
      <trkpt lat="42.30819" lon="2.1642">
        <ele>929</ele>
        <time>2022-05-22 01:30:21</time>
      </trkpt>
      <trkpt lat="42.30821" lon="2.16417">
        <ele>929.2</ele>
        <time>2022-05-22 01:30:22</time>
      </trkpt>
      <trkpt lat="42.30822" lon="2.16413">
        <ele>929.2</ele>
        <time>2022-05-22 01:30:23</time>
      </trkpt>
      <trkpt lat="42.30823" lon="2.1641">
        <ele>929.4</ele>
        <time>2022-05-22 01:30:24</time>
      </trkpt>
      <trkpt lat="42.30824" lon="2.16406">
        <ele>929.4</ele>
        <time>2022-05-22 01:30:25</time>
      </trkpt>
      <trkpt lat="42.30825" lon="2.16403">
        <ele>929.6</ele>
        <time>2022-05-22 01:30:26</time>
      </trkpt>
      <trkpt lat="42.30827" lon="2.16399">
        <ele>929.6</ele>
        <time>2022-05-22 01:30:27</time>
      </trkpt>
      <trkpt lat="42.30827" lon="2.16395">
        <ele>929.8</ele>
        <time>2022-05-22 01:30:28</time>
      </trkpt>
      <trkpt lat="42.30828" lon="2.16391">
        <ele>929.8</ele>
        <time>2022-05-22 01:30:29</time>
      </trkpt>
      <trkpt lat="42.30829" lon="2.16387">
        <ele>930</ele>
        <time>2022-05-22 01:30:30</time>
      </trkpt>
      <trkpt lat="42.30829" lon="2.16383">
        <ele>930</ele>
        <time>2022-05-22 01:30:31</time>
      </trkpt>
      <trkpt lat="42.3083" lon="2.16379">
        <ele>930.2</ele>
        <time>2022-05-22 01:30:32</time>
      </trkpt>
      <trkpt lat="42.3083" lon="2.16375">
        <ele>930.4</ele>
        <time>2022-05-22 01:30:33</time>
      </trkpt>
      <trkpt lat="42.30831" lon="2.16372">
        <ele>930.4</ele>
        <time>2022-05-22 01:30:34</time>
      </trkpt>
      <trkpt lat="42.30832" lon="2.16368">
        <ele>930.4</ele>
        <time>2022-05-22 01:30:35</time>
      </trkpt>
      <trkpt lat="42.30833" lon="2.16364">
        <ele>930.6</ele>
        <time>2022-05-22 01:30:36</time>
      </trkpt>
      <trkpt lat="42.30834" lon="2.1636">
        <ele>930.6</ele>
        <time>2022-05-22 01:30:37</time>
      </trkpt>
      <trkpt lat="42.30835" lon="2.16357">
        <ele>930.8</ele>
        <time>2022-05-22 01:30:38</time>
      </trkpt>
      <trkpt lat="42.30835" lon="2.16353">
        <ele>931</ele>
        <time>2022-05-22 01:30:39</time>
      </trkpt>
      <trkpt lat="42.30836" lon="2.1635">
        <ele>931</ele>
        <time>2022-05-22 01:30:40</time>
      </trkpt>
      <trkpt lat="42.30836" lon="2.16346">
        <ele>931.2</ele>
        <time>2022-05-22 01:30:41</time>
      </trkpt>
      <trkpt lat="42.30837" lon="2.16343">
        <ele>931.2</ele>
        <time>2022-05-22 01:30:42</time>
      </trkpt>
      <trkpt lat="42.30838" lon="2.1634">
        <ele>931.4</ele>
        <time>2022-05-22 01:30:43</time>
      </trkpt>
      <trkpt lat="42.30838" lon="2.16337">
        <ele>931.4</ele>
        <time>2022-05-22 01:30:44</time>
      </trkpt>
      <trkpt lat="42.30838" lon="2.16334">
        <ele>931.6</ele>
        <time>2022-05-22 01:30:45</time>
      </trkpt>
      <trkpt lat="42.30838" lon="2.16333">
        <ele>931.8</ele>
        <time>2022-05-22 01:30:46</time>
      </trkpt>
      <trkpt lat="42.30839" lon="2.16331">
        <ele>931.8</ele>
        <time>2022-05-22 01:30:47</time>
      </trkpt>
      <trkpt lat="42.3084" lon="2.16329">
        <ele>932</ele>
        <time>2022-05-22 01:30:48</time>
      </trkpt>
      <trkpt lat="42.30842" lon="2.16327">
        <ele>932</ele>
        <time>2022-05-22 01:30:49</time>
      </trkpt>
      <trkpt lat="42.30843" lon="2.16323">
        <ele>932.2</ele>
        <time>2022-05-22 01:30:50</time>
      </trkpt>
      <trkpt lat="42.30844" lon="2.1632">
        <ele>932.2</ele>
        <time>2022-05-22 01:30:51</time>
      </trkpt>
      <trkpt lat="42.30845" lon="2.16316">
        <ele>932.2</ele>
        <time>2022-05-22 01:30:52</time>
      </trkpt>
      <trkpt lat="42.30846" lon="2.16312">
        <ele>932.4</ele>
        <time>2022-05-22 01:30:53</time>
      </trkpt>
      <trkpt lat="42.30847" lon="2.16308">
        <ele>932.4</ele>
        <time>2022-05-22 01:30:54</time>
      </trkpt>
      <trkpt lat="42.30848" lon="2.16304">
        <ele>932.6</ele>
        <time>2022-05-22 01:30:55</time>
      </trkpt>
      <trkpt lat="42.30849" lon="2.163">
        <ele>932.8</ele>
        <time>2022-05-22 01:30:56</time>
      </trkpt>
      <trkpt lat="42.3085" lon="2.16296">
        <ele>932.8</ele>
        <time>2022-05-22 01:30:57</time>
      </trkpt>
      <trkpt lat="42.30851" lon="2.16293">
        <ele>933</ele>
        <time>2022-05-22 01:30:58</time>
      </trkpt>
      <trkpt lat="42.30852" lon="2.16289">
        <ele>933</ele>
        <time>2022-05-22 01:30:59</time>
      </trkpt>
      <trkpt lat="42.30853" lon="2.16286">
        <ele>933.2</ele>
        <time>2022-05-22 01:31:00</time>
      </trkpt>
      <trkpt lat="42.30853" lon="2.16283">
        <ele>933.4</ele>
        <time>2022-05-22 01:31:01</time>
      </trkpt>
      <trkpt lat="42.30853" lon="2.1628">
        <ele>933.4</ele>
        <time>2022-05-22 01:31:02</time>
      </trkpt>
      <trkpt lat="42.30854" lon="2.16277">
        <ele>933.6</ele>
        <time>2022-05-22 01:31:03</time>
      </trkpt>
      <trkpt lat="42.30854" lon="2.16274">
        <ele>933.6</ele>
        <time>2022-05-22 01:31:04</time>
      </trkpt>
      <trkpt lat="42.30854" lon="2.1627">
        <ele>933.8</ele>
        <time>2022-05-22 01:31:05</time>
      </trkpt>
      <trkpt lat="42.30855" lon="2.16266">
        <ele>933.8</ele>
        <time>2022-05-22 01:31:06</time>
      </trkpt>
      <trkpt lat="42.30856" lon="2.16262">
        <ele>934</ele>
        <time>2022-05-22 01:31:07</time>
      </trkpt>
      <trkpt lat="42.30856" lon="2.16259">
        <ele>934</ele>
        <time>2022-05-22 01:31:08</time>
      </trkpt>
      <trkpt lat="42.30857" lon="2.16255">
        <ele>934.2</ele>
        <time>2022-05-22 01:31:09</time>
      </trkpt>
      <trkpt lat="42.30858" lon="2.16251">
        <ele>934.4</ele>
        <time>2022-05-22 01:31:10</time>
      </trkpt>
      <trkpt lat="42.30858" lon="2.16247">
        <ele>934.4</ele>
        <time>2022-05-22 01:31:11</time>
      </trkpt>
      <trkpt lat="42.30859" lon="2.16244">
        <ele>934.6</ele>
        <time>2022-05-22 01:31:12</time>
      </trkpt>
      <trkpt lat="42.3086" lon="2.1624">
        <ele>934.6</ele>
        <time>2022-05-22 01:31:13</time>
      </trkpt>
      <trkpt lat="42.3086" lon="2.16237">
        <ele>934.8</ele>
        <time>2022-05-22 01:31:14</time>
      </trkpt>
      <trkpt lat="42.30861" lon="2.16233">
        <ele>934.8</ele>
        <time>2022-05-22 01:31:15</time>
      </trkpt>
      <trkpt lat="42.30861" lon="2.16229">
        <ele>935</ele>
        <time>2022-05-22 01:31:16</time>
      </trkpt>
      <trkpt lat="42.30862" lon="2.16225">
        <ele>935</ele>
        <time>2022-05-22 01:31:17</time>
      </trkpt>
      <trkpt lat="42.30862" lon="2.16222">
        <ele>935.2</ele>
        <time>2022-05-22 01:31:18</time>
      </trkpt>
      <trkpt lat="42.30863" lon="2.16219">
        <ele>935.2</ele>
        <time>2022-05-22 01:31:19</time>
      </trkpt>
      <trkpt lat="42.30863" lon="2.16216">
        <ele>935.4</ele>
        <time>2022-05-22 01:31:20</time>
      </trkpt>
      <trkpt lat="42.30863" lon="2.16212">
        <ele>935.4</ele>
        <time>2022-05-22 01:31:21</time>
      </trkpt>
      <trkpt lat="42.30862" lon="2.1621">
        <ele>935.6</ele>
        <time>2022-05-22 01:31:22</time>
      </trkpt>
      <trkpt lat="42.30861" lon="2.16208">
        <ele>935.6</ele>
        <time>2022-05-22 01:31:23</time>
      </trkpt>
      <trkpt lat="42.30862" lon="2.16205">
        <ele>935.8</ele>
        <time>2022-05-22 01:31:24</time>
      </trkpt>
      <trkpt lat="42.30863" lon="2.16202">
        <ele>935.8</ele>
        <time>2022-05-22 01:31:25</time>
      </trkpt>
      <trkpt lat="42.30865" lon="2.16198">
        <ele>936</ele>
        <time>2022-05-22 01:31:26</time>
      </trkpt>
      <trkpt lat="42.30867" lon="2.16194">
        <ele>936</ele>
        <time>2022-05-22 01:31:27</time>
      </trkpt>
      <trkpt lat="42.30869" lon="2.16189">
        <ele>936.2</ele>
        <time>2022-05-22 01:31:28</time>
      </trkpt>
      <trkpt lat="42.30871" lon="2.16184">
        <ele>936.2</ele>
        <time>2022-05-22 01:31:29</time>
      </trkpt>
      <trkpt lat="42.30872" lon="2.1618">
        <ele>936.4</ele>
        <time>2022-05-22 01:31:30</time>
      </trkpt>
      <trkpt lat="42.30873" lon="2.16176">
        <ele>936.6</ele>
        <time>2022-05-22 01:31:31</time>
      </trkpt>
      <trkpt lat="42.30873" lon="2.16172">
        <ele>936.6</ele>
        <time>2022-05-22 01:31:32</time>
      </trkpt>
      <trkpt lat="42.30874" lon="2.16169">
        <ele>936.8</ele>
        <time>2022-05-22 01:31:33</time>
      </trkpt>
      <trkpt lat="42.30875" lon="2.16165">
        <ele>936.8</ele>
        <time>2022-05-22 01:31:34</time>
      </trkpt>
      <trkpt lat="42.30875" lon="2.16161">
        <ele>937</ele>
        <time>2022-05-22 01:31:35</time>
      </trkpt>
      <trkpt lat="42.30876" lon="2.16157">
        <ele>937</ele>
        <time>2022-05-22 01:31:36</time>
      </trkpt>
      <trkpt lat="42.30877" lon="2.16153">
        <ele>937.2</ele>
        <time>2022-05-22 01:31:37</time>
      </trkpt>
      <trkpt lat="42.30879" lon="2.16149">
        <ele>937.4</ele>
        <time>2022-05-22 01:31:38</time>
      </trkpt>
      <trkpt lat="42.3088" lon="2.16145">
        <ele>937.4</ele>
        <time>2022-05-22 01:31:39</time>
      </trkpt>
      <trkpt lat="42.30881" lon="2.16142">
        <ele>937.6</ele>
        <time>2022-05-22 01:31:40</time>
      </trkpt>
      <trkpt lat="42.30883" lon="2.16138">
        <ele>937.8</ele>
        <time>2022-05-22 01:31:41</time>
      </trkpt>
      <trkpt lat="42.30885" lon="2.16134">
        <ele>937.8</ele>
        <time>2022-05-22 01:31:42</time>
      </trkpt>
      <trkpt lat="42.30886" lon="2.16131">
        <ele>938</ele>
        <time>2022-05-22 01:31:43</time>
      </trkpt>
      <trkpt lat="42.30888" lon="2.16127">
        <ele>938.2</ele>
        <time>2022-05-22 01:31:44</time>
      </trkpt>
      <trkpt lat="42.30889" lon="2.16124">
        <ele>938.2</ele>
        <time>2022-05-22 01:31:45</time>
      </trkpt>
      <trkpt lat="42.30891" lon="2.16121">
        <ele>938.4</ele>
        <time>2022-05-22 01:31:46</time>
      </trkpt>
      <trkpt lat="42.30893" lon="2.16118">
        <ele>938.6</ele>
        <time>2022-05-22 01:31:47</time>
      </trkpt>
      <trkpt lat="42.30895" lon="2.16115">
        <ele>938.8</ele>
        <time>2022-05-22 01:31:48</time>
      </trkpt>
      <trkpt lat="42.30897" lon="2.16112">
        <ele>939</ele>
        <time>2022-05-22 01:31:49</time>
      </trkpt>
      <trkpt lat="42.30899" lon="2.16109">
        <ele>939.2</ele>
        <time>2022-05-22 01:31:50</time>
      </trkpt>
      <trkpt lat="42.30901" lon="2.16106">
        <ele>939.4</ele>
        <time>2022-05-22 01:31:51</time>
      </trkpt>
      <trkpt lat="42.30904" lon="2.16103">
        <ele>939.6</ele>
        <time>2022-05-22 01:31:52</time>
      </trkpt>
      <trkpt lat="42.30906" lon="2.161">
        <ele>939.8</ele>
        <time>2022-05-22 01:31:53</time>
      </trkpt>
      <trkpt lat="42.30909" lon="2.16097">
        <ele>940</ele>
        <time>2022-05-22 01:31:54</time>
      </trkpt>
      <trkpt lat="42.30912" lon="2.16093">
        <ele>940</ele>
        <time>2022-05-22 01:31:55</time>
      </trkpt>
      <trkpt lat="42.30915" lon="2.1609">
        <ele>940.2</ele>
        <time>2022-05-22 01:31:56</time>
      </trkpt>
      <trkpt lat="42.30917" lon="2.16086">
        <ele>940.4</ele>
        <time>2022-05-22 01:31:57</time>
      </trkpt>
      <trkpt lat="42.30918" lon="2.16082">
        <ele>940.6</ele>
        <time>2022-05-22 01:31:58</time>
      </trkpt>
      <trkpt lat="42.3092" lon="2.16078">
        <ele>940.8</ele>
        <time>2022-05-22 01:31:59</time>
      </trkpt>
      <trkpt lat="42.3092" lon="2.16074">
        <ele>940.8</ele>
        <time>2022-05-22 01:32:00</time>
      </trkpt>
      <trkpt lat="42.3092" lon="2.16071">
        <ele>941</ele>
        <time>2022-05-22 01:32:01</time>
      </trkpt>
      <trkpt lat="42.3092" lon="2.16067">
        <ele>941.2</ele>
        <time>2022-05-22 01:32:02</time>
      </trkpt>
      <trkpt lat="42.3092" lon="2.16063">
        <ele>941.4</ele>
        <time>2022-05-22 01:32:03</time>
      </trkpt>
      <trkpt lat="42.30919" lon="2.16059">
        <ele>941.4</ele>
        <time>2022-05-22 01:32:04</time>
      </trkpt>
      <trkpt lat="42.30918" lon="2.16055">
        <ele>941.6</ele>
        <time>2022-05-22 01:32:05</time>
      </trkpt>
      <trkpt lat="42.30917" lon="2.16052">
        <ele>941.8</ele>
        <time>2022-05-22 01:32:06</time>
      </trkpt>
      <trkpt lat="42.30916" lon="2.16048">
        <ele>942</ele>
        <time>2022-05-22 01:32:07</time>
      </trkpt>
      <trkpt lat="42.30916" lon="2.16044">
        <ele>942</ele>
        <time>2022-05-22 01:32:08</time>
      </trkpt>
      <trkpt lat="42.30915" lon="2.1604">
        <ele>942.2</ele>
        <time>2022-05-22 01:32:09</time>
      </trkpt>
      <trkpt lat="42.30915" lon="2.16037">
        <ele>942.4</ele>
        <time>2022-05-22 01:32:10</time>
      </trkpt>
      <trkpt lat="42.30915" lon="2.16034">
        <ele>942.6</ele>
        <time>2022-05-22 01:32:11</time>
      </trkpt>
      <trkpt lat="42.30914" lon="2.16031">
        <ele>942.8</ele>
        <time>2022-05-22 01:32:12</time>
      </trkpt>
      <trkpt lat="42.30913" lon="2.16028">
        <ele>942.8</ele>
        <time>2022-05-22 01:32:13</time>
      </trkpt>
      <trkpt lat="42.30912" lon="2.16025">
        <ele>942.8</ele>
        <time>2022-05-22 01:32:14</time>
      </trkpt>
      <trkpt lat="42.30911" lon="2.16022">
        <ele>943</ele>
        <time>2022-05-22 01:32:15</time>
      </trkpt>
      <trkpt lat="42.3091" lon="2.16019">
        <ele>943.2</ele>
        <time>2022-05-22 01:32:16</time>
      </trkpt>
      <trkpt lat="42.30908" lon="2.16016">
        <ele>943.4</ele>
        <time>2022-05-22 01:32:17</time>
      </trkpt>
      <trkpt lat="42.30906" lon="2.16014">
        <ele>943.6</ele>
        <time>2022-05-22 01:32:18</time>
      </trkpt>
      <trkpt lat="42.30905" lon="2.16012">
        <ele>943.6</ele>
        <time>2022-05-22 01:32:19</time>
      </trkpt>
      <trkpt lat="42.30904" lon="2.16011">
        <ele>943.8</ele>
        <time>2022-05-22 01:32:20</time>
      </trkpt>
      <trkpt lat="42.30903" lon="2.16008">
        <ele>944</ele>
        <time>2022-05-22 01:32:21</time>
      </trkpt>
      <trkpt lat="42.30901" lon="2.16003">
        <ele>944.2</ele>
        <time>2022-05-22 01:32:22</time>
      </trkpt>
      <trkpt lat="42.30899" lon="2.15999">
        <ele>944.2</ele>
        <time>2022-05-22 01:32:23</time>
      </trkpt>
      <trkpt lat="42.30898" lon="2.15995">
        <ele>944.4</ele>
        <time>2022-05-22 01:32:24</time>
      </trkpt>
      <trkpt lat="42.30897" lon="2.15991">
        <ele>944.6</ele>
        <time>2022-05-22 01:32:25</time>
      </trkpt>
      <trkpt lat="42.30896" lon="2.15988">
        <ele>944.6</ele>
        <time>2022-05-22 01:32:26</time>
      </trkpt>
      <trkpt lat="42.30894" lon="2.15984">
        <ele>944.8</ele>
        <time>2022-05-22 01:32:27</time>
      </trkpt>
      <trkpt lat="42.30893" lon="2.15981">
        <ele>945</ele>
        <time>2022-05-22 01:32:28</time>
      </trkpt>
      <trkpt lat="42.30892" lon="2.15978">
        <ele>945</ele>
        <time>2022-05-22 01:32:29</time>
      </trkpt>
      <trkpt lat="42.30892" lon="2.15975">
        <ele>945.2</ele>
        <time>2022-05-22 01:32:30</time>
      </trkpt>
      <trkpt lat="42.30892" lon="2.15972">
        <ele>945.2</ele>
        <time>2022-05-22 01:32:31</time>
      </trkpt>
      <trkpt lat="42.30891" lon="2.15969">
        <ele>945.4</ele>
        <time>2022-05-22 01:32:32</time>
      </trkpt>
      <trkpt lat="42.30892" lon="2.15965">
        <ele>945.6</ele>
        <time>2022-05-22 01:32:33</time>
      </trkpt>
      <trkpt lat="42.30892" lon="2.15962">
        <ele>945.6</ele>
        <time>2022-05-22 01:32:34</time>
      </trkpt>
      <trkpt lat="42.30892" lon="2.15958">
        <ele>945.8</ele>
        <time>2022-05-22 01:32:35</time>
      </trkpt>
      <trkpt lat="42.30892" lon="2.15955">
        <ele>946</ele>
        <time>2022-05-22 01:32:36</time>
      </trkpt>
      <trkpt lat="42.30892" lon="2.15951">
        <ele>946</ele>
        <time>2022-05-22 01:32:37</time>
      </trkpt>
      <trkpt lat="42.30893" lon="2.15947">
        <ele>946.2</ele>
        <time>2022-05-22 01:32:38</time>
      </trkpt>
      <trkpt lat="42.30893" lon="2.15944">
        <ele>946.2</ele>
        <time>2022-05-22 01:32:39</time>
      </trkpt>
      <trkpt lat="42.30893" lon="2.15942">
        <ele>946.4</ele>
        <time>2022-05-22 01:32:40</time>
      </trkpt>
      <trkpt lat="42.30894" lon="2.15939">
        <ele>946.4</ele>
        <time>2022-05-22 01:32:41</time>
      </trkpt>
      <trkpt lat="42.30896" lon="2.15936">
        <ele>946.6</ele>
        <time>2022-05-22 01:32:42</time>
      </trkpt>
      <trkpt lat="42.30897" lon="2.15933">
        <ele>946.6</ele>
        <time>2022-05-22 01:32:43</time>
      </trkpt>
      <trkpt lat="42.309" lon="2.1593">
        <ele>946.8</ele>
        <time>2022-05-22 01:32:44</time>
      </trkpt>
      <trkpt lat="42.30902" lon="2.15927">
        <ele>947</ele>
        <time>2022-05-22 01:32:45</time>
      </trkpt>
      <trkpt lat="42.30905" lon="2.15924">
        <ele>947.2</ele>
        <time>2022-05-22 01:32:46</time>
      </trkpt>
      <trkpt lat="42.30907" lon="2.15921">
        <ele>947.4</ele>
        <time>2022-05-22 01:32:47</time>
      </trkpt>
      <trkpt lat="42.3091" lon="2.15919">
        <ele>947.6</ele>
        <time>2022-05-22 01:32:48</time>
      </trkpt>
      <trkpt lat="42.30913" lon="2.15916">
        <ele>947.6</ele>
        <time>2022-05-22 01:32:49</time>
      </trkpt>
      <trkpt lat="42.30915" lon="2.15913">
        <ele>947.8</ele>
        <time>2022-05-22 01:32:50</time>
      </trkpt>
      <trkpt lat="42.30918" lon="2.15911">
        <ele>947.8</ele>
        <time>2022-05-22 01:32:51</time>
      </trkpt>
      <trkpt lat="42.3092" lon="2.15908">
        <ele>948</ele>
        <time>2022-05-22 01:32:52</time>
      </trkpt>
      <trkpt lat="42.30922" lon="2.15905">
        <ele>948</ele>
        <time>2022-05-22 01:32:53</time>
      </trkpt>
      <trkpt lat="42.30923" lon="2.15903">
        <ele>948.2</ele>
        <time>2022-05-22 01:32:54</time>
      </trkpt>
      <trkpt lat="42.30926" lon="2.159">
        <ele>948.2</ele>
        <time>2022-05-22 01:32:55</time>
      </trkpt>
      <trkpt lat="42.30928" lon="2.15897">
        <ele>948.2</ele>
        <time>2022-05-22 01:32:56</time>
      </trkpt>
      <trkpt lat="42.3093" lon="2.15894">
        <ele>948.4</ele>
        <time>2022-05-22 01:32:57</time>
      </trkpt>
      <trkpt lat="42.30932" lon="2.15892">
        <ele>948.4</ele>
        <time>2022-05-22 01:32:58</time>
      </trkpt>
      <trkpt lat="42.30933" lon="2.15889">
        <ele>948.6</ele>
        <time>2022-05-22 01:32:59</time>
      </trkpt>
      <trkpt lat="42.30935" lon="2.15887">
        <ele>948.6</ele>
        <time>2022-05-22 01:33:00</time>
      </trkpt>
      <trkpt lat="42.30936" lon="2.15884">
        <ele>948.8</ele>
        <time>2022-05-22 01:33:01</time>
      </trkpt>
      <trkpt lat="42.30937" lon="2.15881">
        <ele>948.8</ele>
        <time>2022-05-22 01:33:02</time>
      </trkpt>
      <trkpt lat="42.30939" lon="2.15878">
        <ele>949</ele>
        <time>2022-05-22 01:33:03</time>
      </trkpt>
      <trkpt lat="42.3094" lon="2.15875">
        <ele>949</ele>
        <time>2022-05-22 01:33:04</time>
      </trkpt>
      <trkpt lat="42.30941" lon="2.15873">
        <ele>949.2</ele>
        <time>2022-05-22 01:33:05</time>
      </trkpt>
      <trkpt lat="42.30941" lon="2.1587">
        <ele>949.2</ele>
        <time>2022-05-22 01:33:06</time>
      </trkpt>
      <trkpt lat="42.30941" lon="2.15867">
        <ele>949.4</ele>
        <time>2022-05-22 01:33:07</time>
      </trkpt>
      <trkpt lat="42.30941" lon="2.15864">
        <ele>949.4</ele>
        <time>2022-05-22 01:33:08</time>
      </trkpt>
      <trkpt lat="42.30941" lon="2.15861">
        <ele>949.4</ele>
        <time>2022-05-22 01:33:09</time>
      </trkpt>
      <trkpt lat="42.30941" lon="2.15858">
        <ele>949.6</ele>
        <time>2022-05-22 01:33:10</time>
      </trkpt>
      <trkpt lat="42.30942" lon="2.15855">
        <ele>949.6</ele>
        <time>2022-05-22 01:33:11</time>
      </trkpt>
      <trkpt lat="42.30942" lon="2.15851">
        <ele>949.6</ele>
        <time>2022-05-22 01:33:12</time>
      </trkpt>
      <trkpt lat="42.30943" lon="2.15847">
        <ele>949.8</ele>
        <time>2022-05-22 01:33:13</time>
      </trkpt>
      <trkpt lat="42.30944" lon="2.15844">
        <ele>949.8</ele>
        <time>2022-05-22 01:33:14</time>
      </trkpt>
      <trkpt lat="42.30944" lon="2.1584">
        <ele>950</ele>
        <time>2022-05-22 01:33:15</time>
      </trkpt>
      <trkpt lat="42.30944" lon="2.15837">
        <ele>950.2</ele>
        <time>2022-05-22 01:33:16</time>
      </trkpt>
      <trkpt lat="42.30945" lon="2.15834">
        <ele>950.2</ele>
        <time>2022-05-22 01:33:17</time>
      </trkpt>
      <trkpt lat="42.30945" lon="2.15831">
        <ele>950.4</ele>
        <time>2022-05-22 01:33:18</time>
      </trkpt>
      <trkpt lat="42.30946" lon="2.15827">
        <ele>950.4</ele>
        <time>2022-05-22 01:33:19</time>
      </trkpt>
      <trkpt lat="42.30947" lon="2.15824">
        <ele>950.6</ele>
        <time>2022-05-22 01:33:20</time>
      </trkpt>
      <trkpt lat="42.30947" lon="2.15821">
        <ele>950.8</ele>
        <time>2022-05-22 01:33:21</time>
      </trkpt>
      <trkpt lat="42.30947" lon="2.15818">
        <ele>950.8</ele>
        <time>2022-05-22 01:33:22</time>
      </trkpt>
      <trkpt lat="42.30948" lon="2.15815">
        <ele>951</ele>
        <time>2022-05-22 01:33:23</time>
      </trkpt>
      <trkpt lat="42.30948" lon="2.15812">
        <ele>951.2</ele>
        <time>2022-05-22 01:33:24</time>
      </trkpt>
      <trkpt lat="42.30949" lon="2.1581">
        <ele>951.2</ele>
        <time>2022-05-22 01:33:25</time>
      </trkpt>
      <trkpt lat="42.30948" lon="2.15807">
        <ele>951.4</ele>
        <time>2022-05-22 01:33:26</time>
      </trkpt>
      <trkpt lat="42.30948" lon="2.15804">
        <ele>951.4</ele>
        <time>2022-05-22 01:33:27</time>
      </trkpt>
      <trkpt lat="42.30949" lon="2.15801">
        <ele>951.6</ele>
        <time>2022-05-22 01:33:28</time>
      </trkpt>
      <trkpt lat="42.30949" lon="2.15799">
        <ele>951.6</ele>
        <time>2022-05-22 01:33:29</time>
      </trkpt>
      <trkpt lat="42.30949" lon="2.15796">
        <ele>951.8</ele>
        <time>2022-05-22 01:33:30</time>
      </trkpt>
      <trkpt lat="42.30949" lon="2.15793">
        <ele>951.8</ele>
        <time>2022-05-22 01:33:31</time>
      </trkpt>
      <trkpt lat="42.30949" lon="2.15791">
        <ele>952</ele>
        <time>2022-05-22 01:33:32</time>
      </trkpt>
      <trkpt lat="42.3095" lon="2.15788">
        <ele>952</ele>
        <time>2022-05-22 01:33:33</time>
      </trkpt>
      <trkpt lat="42.3095" lon="2.15784">
        <ele>952.2</ele>
        <time>2022-05-22 01:33:34</time>
      </trkpt>
      <trkpt lat="42.30951" lon="2.15781">
        <ele>952.2</ele>
        <time>2022-05-22 01:33:35</time>
      </trkpt>
      <trkpt lat="42.30952" lon="2.15778">
        <ele>952.2</ele>
        <time>2022-05-22 01:33:36</time>
      </trkpt>
      <trkpt lat="42.30952" lon="2.15774">
        <ele>952.4</ele>
        <time>2022-05-22 01:33:37</time>
      </trkpt>
      <trkpt lat="42.30953" lon="2.15771">
        <ele>952.4</ele>
        <time>2022-05-22 01:33:38</time>
      </trkpt>
      <trkpt lat="42.30954" lon="2.15768">
        <ele>952.6</ele>
        <time>2022-05-22 01:33:39</time>
      </trkpt>
      <trkpt lat="42.30954" lon="2.15765">
        <ele>952.6</ele>
        <time>2022-05-22 01:33:40</time>
      </trkpt>
      <trkpt lat="42.30955" lon="2.15761">
        <ele>952.6</ele>
        <time>2022-05-22 01:33:41</time>
      </trkpt>
      <trkpt lat="42.30955" lon="2.15757">
        <ele>952.8</ele>
        <time>2022-05-22 01:33:42</time>
      </trkpt>
      <trkpt lat="42.30956" lon="2.15754">
        <ele>952.8</ele>
        <time>2022-05-22 01:33:43</time>
      </trkpt>
      <trkpt lat="42.30956" lon="2.1575">
        <ele>953</ele>
        <time>2022-05-22 01:33:44</time>
      </trkpt>
      <trkpt lat="42.30957" lon="2.15747">
        <ele>953</ele>
        <time>2022-05-22 01:33:45</time>
      </trkpt>
      <trkpt lat="42.30957" lon="2.15743">
        <ele>953</ele>
        <time>2022-05-22 01:33:46</time>
      </trkpt>
      <trkpt lat="42.30958" lon="2.15739">
        <ele>953</ele>
        <time>2022-05-22 01:33:47</time>
      </trkpt>
      <trkpt lat="42.30959" lon="2.15736">
        <ele>953.2</ele>
        <time>2022-05-22 01:33:48</time>
      </trkpt>
      <trkpt lat="42.30959" lon="2.15732">
        <ele>953.2</ele>
        <time>2022-05-22 01:33:49</time>
      </trkpt>
      <trkpt lat="42.3096" lon="2.15729">
        <ele>953.2</ele>
        <time>2022-05-22 01:33:50</time>
      </trkpt>
      <trkpt lat="42.30961" lon="2.15725">
        <ele>953.2</ele>
        <time>2022-05-22 01:33:51</time>
      </trkpt>
      <trkpt lat="42.30961" lon="2.15722">
        <ele>953.4</ele>
        <time>2022-05-22 01:33:52</time>
      </trkpt>
      <trkpt lat="42.30961" lon="2.15719">
        <ele>953.4</ele>
        <time>2022-05-22 01:33:53</time>
      </trkpt>
      <trkpt lat="42.30962" lon="2.15716">
        <ele>953.6</ele>
        <time>2022-05-22 01:33:54</time>
      </trkpt>
      <trkpt lat="42.30962" lon="2.15713">
        <ele>953.6</ele>
        <time>2022-05-22 01:33:55</time>
      </trkpt>
      <trkpt lat="42.30963" lon="2.1571">
        <ele>953.6</ele>
        <time>2022-05-22 01:33:56</time>
      </trkpt>
      <trkpt lat="42.30964" lon="2.15706">
        <ele>953.8</ele>
        <time>2022-05-22 01:33:57</time>
      </trkpt>
      <trkpt lat="42.30964" lon="2.15702">
        <ele>953.8</ele>
        <time>2022-05-22 01:33:58</time>
      </trkpt>
      <trkpt lat="42.30965" lon="2.15699">
        <ele>954</ele>
        <time>2022-05-22 01:33:59</time>
      </trkpt>
      <trkpt lat="42.30966" lon="2.15696">
        <ele>954</ele>
        <time>2022-05-22 01:34:00</time>
      </trkpt>
      <trkpt lat="42.30967" lon="2.15693">
        <ele>954</ele>
        <time>2022-05-22 01:34:01</time>
      </trkpt>
      <trkpt lat="42.30967" lon="2.1569">
        <ele>954.2</ele>
        <time>2022-05-22 01:34:02</time>
      </trkpt>
      <trkpt lat="42.30968" lon="2.15686">
        <ele>954.2</ele>
        <time>2022-05-22 01:34:03</time>
      </trkpt>
      <trkpt lat="42.30969" lon="2.15683">
        <ele>954.4</ele>
        <time>2022-05-22 01:34:04</time>
      </trkpt>
      <trkpt lat="42.3097" lon="2.15679">
        <ele>954.4</ele>
        <time>2022-05-22 01:34:05</time>
      </trkpt>
      <trkpt lat="42.30971" lon="2.15675">
        <ele>954.4</ele>
        <time>2022-05-22 01:34:06</time>
      </trkpt>
      <trkpt lat="42.30972" lon="2.15671">
        <ele>954.6</ele>
        <time>2022-05-22 01:34:07</time>
      </trkpt>
      <trkpt lat="42.30973" lon="2.15667">
        <ele>954.6</ele>
        <time>2022-05-22 01:34:08</time>
      </trkpt>
      <trkpt lat="42.30974" lon="2.15663">
        <ele>954.6</ele>
        <time>2022-05-22 01:34:09</time>
      </trkpt>
      <trkpt lat="42.30975" lon="2.15659">
        <ele>954.8</ele>
        <time>2022-05-22 01:34:10</time>
      </trkpt>
      <trkpt lat="42.30976" lon="2.15655">
        <ele>954.8</ele>
        <time>2022-05-22 01:34:11</time>
      </trkpt>
      <trkpt lat="42.30976" lon="2.15651">
        <ele>955</ele>
        <time>2022-05-22 01:34:12</time>
      </trkpt>
      <trkpt lat="42.30977" lon="2.15648">
        <ele>955</ele>
        <time>2022-05-22 01:34:13</time>
      </trkpt>
      <trkpt lat="42.30978" lon="2.15644">
        <ele>955</ele>
        <time>2022-05-22 01:34:14</time>
      </trkpt>
      <trkpt lat="42.30979" lon="2.15641">
        <ele>955.2</ele>
        <time>2022-05-22 01:34:15</time>
      </trkpt>
      <trkpt lat="42.3098" lon="2.15637">
        <ele>955.2</ele>
        <time>2022-05-22 01:34:16</time>
      </trkpt>
      <trkpt lat="42.30981" lon="2.15634">
        <ele>955.4</ele>
        <time>2022-05-22 01:34:17</time>
      </trkpt>
      <trkpt lat="42.30981" lon="2.1563">
        <ele>955.4</ele>
        <time>2022-05-22 01:34:18</time>
      </trkpt>
      <trkpt lat="42.30982" lon="2.15627">
        <ele>955.4</ele>
        <time>2022-05-22 01:34:19</time>
      </trkpt>
      <trkpt lat="42.30982" lon="2.15624">
        <ele>955.6</ele>
        <time>2022-05-22 01:34:20</time>
      </trkpt>
      <trkpt lat="42.30983" lon="2.15621">
        <ele>955.6</ele>
        <time>2022-05-22 01:34:21</time>
      </trkpt>
      <trkpt lat="42.30984" lon="2.15618">
        <ele>955.8</ele>
        <time>2022-05-22 01:34:22</time>
      </trkpt>
      <trkpt lat="42.30985" lon="2.15616">
        <ele>955.8</ele>
        <time>2022-05-22 01:34:23</time>
      </trkpt>
      <trkpt lat="42.30986" lon="2.15612">
        <ele>955.8</ele>
        <time>2022-05-22 01:34:24</time>
      </trkpt>
      <trkpt lat="42.30987" lon="2.15609">
        <ele>956</ele>
        <time>2022-05-22 01:34:25</time>
      </trkpt>
      <trkpt lat="42.30987" lon="2.15607">
        <ele>956</ele>
        <time>2022-05-22 01:34:26</time>
      </trkpt>
      <trkpt lat="42.30988" lon="2.15604">
        <ele>956.2</ele>
        <time>2022-05-22 01:34:27</time>
      </trkpt>
      <trkpt lat="42.30988" lon="2.156">
        <ele>956.2</ele>
        <time>2022-05-22 01:34:28</time>
      </trkpt>
      <trkpt lat="42.30989" lon="2.15597">
        <ele>956.4</ele>
        <time>2022-05-22 01:34:29</time>
      </trkpt>
      <trkpt lat="42.3099" lon="2.15594">
        <ele>956.4</ele>
        <time>2022-05-22 01:34:30</time>
      </trkpt>
      <trkpt lat="42.3099" lon="2.15592">
        <ele>956.4</ele>
        <time>2022-05-22 01:34:31</time>
      </trkpt>
      <trkpt lat="42.30991" lon="2.15589">
        <ele>956.6</ele>
        <time>2022-05-22 01:34:32</time>
      </trkpt>
      <trkpt lat="42.30991" lon="2.15586">
        <ele>956.6</ele>
        <time>2022-05-22 01:34:33</time>
      </trkpt>
      <trkpt lat="42.30992" lon="2.15583">
        <ele>956.8</ele>
        <time>2022-05-22 01:34:34</time>
      </trkpt>
      <trkpt lat="42.30992" lon="2.1558">
        <ele>956.8</ele>
        <time>2022-05-22 01:34:35</time>
      </trkpt>
      <trkpt lat="42.30992" lon="2.15577">
        <ele>957</ele>
        <time>2022-05-22 01:34:36</time>
      </trkpt>
      <trkpt lat="42.30993" lon="2.15575">
        <ele>957</ele>
        <time>2022-05-22 01:34:37</time>
      </trkpt>
      <trkpt lat="42.30993" lon="2.15572">
        <ele>957.2</ele>
        <time>2022-05-22 01:34:38</time>
      </trkpt>
      <trkpt lat="42.30994" lon="2.15569">
        <ele>957.2</ele>
        <time>2022-05-22 01:34:39</time>
      </trkpt>
      <trkpt lat="42.30994" lon="2.15567">
        <ele>957.2</ele>
        <time>2022-05-22 01:34:40</time>
      </trkpt>
      <trkpt lat="42.30995" lon="2.15564">
        <ele>957.4</ele>
        <time>2022-05-22 01:34:41</time>
      </trkpt>
      <trkpt lat="42.30995" lon="2.15561">
        <ele>957.4</ele>
        <time>2022-05-22 01:34:42</time>
      </trkpt>
      <trkpt lat="42.30996" lon="2.15558">
        <ele>957.6</ele>
        <time>2022-05-22 01:34:43</time>
      </trkpt>
      <trkpt lat="42.30996" lon="2.15555">
        <ele>957.6</ele>
        <time>2022-05-22 01:34:44</time>
      </trkpt>
      <trkpt lat="42.30997" lon="2.15553">
        <ele>957.8</ele>
        <time>2022-05-22 01:34:45</time>
      </trkpt>
      <trkpt lat="42.30997" lon="2.1555">
        <ele>957.8</ele>
        <time>2022-05-22 01:34:46</time>
      </trkpt>
      <trkpt lat="42.30998" lon="2.15547">
        <ele>958</ele>
        <time>2022-05-22 01:34:47</time>
      </trkpt>
      <trkpt lat="42.30999" lon="2.15544">
        <ele>958</ele>
        <time>2022-05-22 01:34:48</time>
      </trkpt>
      <trkpt lat="42.31" lon="2.15541">
        <ele>958.2</ele>
        <time>2022-05-22 01:34:49</time>
      </trkpt>
      <trkpt lat="42.31" lon="2.15539">
        <ele>958.2</ele>
        <time>2022-05-22 01:34:50</time>
      </trkpt>
      <trkpt lat="42.31001" lon="2.15536">
        <ele>958.4</ele>
        <time>2022-05-22 01:34:51</time>
      </trkpt>
      <trkpt lat="42.31001" lon="2.15533">
        <ele>958.4</ele>
        <time>2022-05-22 01:34:52</time>
      </trkpt>
      <trkpt lat="42.31001" lon="2.15531">
        <ele>958.6</ele>
        <time>2022-05-22 01:34:53</time>
      </trkpt>
      <trkpt lat="42.31001" lon="2.15528">
        <ele>958.6</ele>
        <time>2022-05-22 01:34:54</time>
      </trkpt>
      <trkpt lat="42.31001" lon="2.15525">
        <ele>958.8</ele>
        <time>2022-05-22 01:34:55</time>
      </trkpt>
      <trkpt lat="42.31002" lon="2.15523">
        <ele>958.8</ele>
        <time>2022-05-22 01:34:56</time>
      </trkpt>
      <trkpt lat="42.31003" lon="2.1552">
        <ele>959</ele>
        <time>2022-05-22 01:34:57</time>
      </trkpt>
      <trkpt lat="42.31003" lon="2.15516">
        <ele>959</ele>
        <time>2022-05-22 01:34:58</time>
      </trkpt>
      <trkpt lat="42.31004" lon="2.15514">
        <ele>959.2</ele>
        <time>2022-05-22 01:34:59</time>
      </trkpt>
      <trkpt lat="42.31004" lon="2.15511">
        <ele>959.2</ele>
        <time>2022-05-22 01:35:00</time>
      </trkpt>
      <trkpt lat="42.31005" lon="2.15508">
        <ele>959.4</ele>
        <time>2022-05-22 01:35:01</time>
      </trkpt>
      <trkpt lat="42.31005" lon="2.15505">
        <ele>959.4</ele>
        <time>2022-05-22 01:35:02</time>
      </trkpt>
      <trkpt lat="42.31006" lon="2.15503">
        <ele>959.6</ele>
        <time>2022-05-22 01:35:03</time>
      </trkpt>
      <trkpt lat="42.31007" lon="2.155">
        <ele>959.6</ele>
        <time>2022-05-22 01:35:04</time>
      </trkpt>
      <trkpt lat="42.31007" lon="2.15496">
        <ele>959.8</ele>
        <time>2022-05-22 01:35:05</time>
      </trkpt>
      <trkpt lat="42.31008" lon="2.15493">
        <ele>959.8</ele>
        <time>2022-05-22 01:35:06</time>
      </trkpt>
      <trkpt lat="42.31008" lon="2.1549">
        <ele>960</ele>
        <time>2022-05-22 01:35:07</time>
      </trkpt>
      <trkpt lat="42.31009" lon="2.15487">
        <ele>960</ele>
        <time>2022-05-22 01:35:08</time>
      </trkpt>
      <trkpt lat="42.31009" lon="2.15484">
        <ele>960.2</ele>
        <time>2022-05-22 01:35:09</time>
      </trkpt>
      <trkpt lat="42.3101" lon="2.1548">
        <ele>960.2</ele>
        <time>2022-05-22 01:35:10</time>
      </trkpt>
      <trkpt lat="42.3101" lon="2.15477">
        <ele>960.4</ele>
        <time>2022-05-22 01:35:11</time>
      </trkpt>
      <trkpt lat="42.31011" lon="2.15474">
        <ele>960.6</ele>
        <time>2022-05-22 01:35:12</time>
      </trkpt>
      <trkpt lat="42.31012" lon="2.15471">
        <ele>960.6</ele>
        <time>2022-05-22 01:35:13</time>
      </trkpt>
      <trkpt lat="42.31012" lon="2.15468">
        <ele>960.8</ele>
        <time>2022-05-22 01:35:14</time>
      </trkpt>
      <trkpt lat="42.31013" lon="2.15465">
        <ele>960.8</ele>
        <time>2022-05-22 01:35:15</time>
      </trkpt>
      <trkpt lat="42.31014" lon="2.15462">
        <ele>961</ele>
        <time>2022-05-22 01:35:16</time>
      </trkpt>
      <trkpt lat="42.31015" lon="2.1546">
        <ele>961.2</ele>
        <time>2022-05-22 01:35:17</time>
      </trkpt>
      <trkpt lat="42.31015" lon="2.15457">
        <ele>961.2</ele>
        <time>2022-05-22 01:35:18</time>
      </trkpt>
      <trkpt lat="42.31015" lon="2.15454">
        <ele>961.4</ele>
        <time>2022-05-22 01:35:19</time>
      </trkpt>
      <trkpt lat="42.31016" lon="2.15451">
        <ele>961.4</ele>
        <time>2022-05-22 01:35:20</time>
      </trkpt>
      <trkpt lat="42.31016" lon="2.15448">
        <ele>961.6</ele>
        <time>2022-05-22 01:35:21</time>
      </trkpt>
      <trkpt lat="42.31016" lon="2.15445">
        <ele>961.6</ele>
        <time>2022-05-22 01:35:22</time>
      </trkpt>
      <trkpt lat="42.31017" lon="2.15442">
        <ele>961.8</ele>
        <time>2022-05-22 01:35:23</time>
      </trkpt>
      <trkpt lat="42.31017" lon="2.15439">
        <ele>962</ele>
        <time>2022-05-22 01:35:24</time>
      </trkpt>
      <trkpt lat="42.31017" lon="2.15437">
        <ele>962</ele>
        <time>2022-05-22 01:35:25</time>
      </trkpt>
      <trkpt lat="42.31016" lon="2.15434">
        <ele>962.2</ele>
        <time>2022-05-22 01:35:26</time>
      </trkpt>
      <trkpt lat="42.31016" lon="2.15431">
        <ele>962.2</ele>
        <time>2022-05-22 01:35:27</time>
      </trkpt>
      <trkpt lat="42.31016" lon="2.15429">
        <ele>962.4</ele>
        <time>2022-05-22 01:35:28</time>
      </trkpt>
      <trkpt lat="42.31015" lon="2.15426">
        <ele>962.6</ele>
        <time>2022-05-22 01:35:29</time>
      </trkpt>
      <trkpt lat="42.31015" lon="2.15423">
        <ele>962.6</ele>
        <time>2022-05-22 01:35:30</time>
      </trkpt>
      <trkpt lat="42.31014" lon="2.1542">
        <ele>962.8</ele>
        <time>2022-05-22 01:35:31</time>
      </trkpt>
      <trkpt lat="42.31013" lon="2.15418">
        <ele>962.8</ele>
        <time>2022-05-22 01:35:32</time>
      </trkpt>
      <trkpt lat="42.31012" lon="2.15415">
        <ele>962.8</ele>
        <time>2022-05-22 01:35:33</time>
      </trkpt>
      <trkpt lat="42.31011" lon="2.15412">
        <ele>963</ele>
        <time>2022-05-22 01:35:34</time>
      </trkpt>
      <trkpt lat="42.31011" lon="2.15409">
        <ele>963</ele>
        <time>2022-05-22 01:35:35</time>
      </trkpt>
      <trkpt lat="42.3101" lon="2.15406">
        <ele>963.2</ele>
        <time>2022-05-22 01:35:36</time>
      </trkpt>
      <trkpt lat="42.3101" lon="2.15403">
        <ele>963.2</ele>
        <time>2022-05-22 01:35:37</time>
      </trkpt>
      <trkpt lat="42.31009" lon="2.154">
        <ele>963.2</ele>
        <time>2022-05-22 01:35:38</time>
      </trkpt>
      <trkpt lat="42.31009" lon="2.15396">
        <ele>963.4</ele>
        <time>2022-05-22 01:35:39</time>
      </trkpt>
      <trkpt lat="42.31009" lon="2.15393">
        <ele>963.4</ele>
        <time>2022-05-22 01:35:40</time>
      </trkpt>
      <trkpt lat="42.31009" lon="2.1539">
        <ele>963.6</ele>
        <time>2022-05-22 01:35:41</time>
      </trkpt>
      <trkpt lat="42.31008" lon="2.15387">
        <ele>963.6</ele>
        <time>2022-05-22 01:35:42</time>
      </trkpt>
      <trkpt lat="42.31006" lon="2.15384">
        <ele>963.8</ele>
        <time>2022-05-22 01:35:43</time>
      </trkpt>
      <trkpt lat="42.31005" lon="2.15381">
        <ele>963.8</ele>
        <time>2022-05-22 01:35:44</time>
      </trkpt>
      <trkpt lat="42.31003" lon="2.15379">
        <ele>963.8</ele>
        <time>2022-05-22 01:35:45</time>
      </trkpt>
      <trkpt lat="42.31001" lon="2.15376">
        <ele>964</ele>
        <time>2022-05-22 01:35:46</time>
      </trkpt>
      <trkpt lat="42.31" lon="2.15373">
        <ele>964</ele>
        <time>2022-05-22 01:35:47</time>
      </trkpt>
      <trkpt lat="42.30999" lon="2.1537">
        <ele>964.2</ele>
        <time>2022-05-22 01:35:48</time>
      </trkpt>
      <trkpt lat="42.30998" lon="2.15367">
        <ele>964.2</ele>
        <time>2022-05-22 01:35:49</time>
      </trkpt>
      <trkpt lat="42.30998" lon="2.15364">
        <ele>964.2</ele>
        <time>2022-05-22 01:35:50</time>
      </trkpt>
      <trkpt lat="42.30997" lon="2.15361">
        <ele>964.4</ele>
        <time>2022-05-22 01:35:51</time>
      </trkpt>
      <trkpt lat="42.30996" lon="2.15358">
        <ele>964.6</ele>
        <time>2022-05-22 01:35:52</time>
      </trkpt>
      <trkpt lat="42.30996" lon="2.15355">
        <ele>964.6</ele>
        <time>2022-05-22 01:35:53</time>
      </trkpt>
      <trkpt lat="42.30996" lon="2.15352">
        <ele>964.8</ele>
        <time>2022-05-22 01:35:54</time>
      </trkpt>
      <trkpt lat="42.30996" lon="2.15348">
        <ele>964.8</ele>
        <time>2022-05-22 01:35:55</time>
      </trkpt>
      <trkpt lat="42.30996" lon="2.15345">
        <ele>965</ele>
        <time>2022-05-22 01:35:56</time>
      </trkpt>
      <trkpt lat="42.30997" lon="2.15343">
        <ele>965</ele>
        <time>2022-05-22 01:35:57</time>
      </trkpt>
      <trkpt lat="42.30997" lon="2.15339">
        <ele>965.2</ele>
        <time>2022-05-22 01:35:58</time>
      </trkpt>
      <trkpt lat="42.30997" lon="2.15335">
        <ele>965.2</ele>
        <time>2022-05-22 01:35:59</time>
      </trkpt>
      <trkpt lat="42.30998" lon="2.15332">
        <ele>965.4</ele>
        <time>2022-05-22 01:36:00</time>
      </trkpt>
      <trkpt lat="42.30998" lon="2.15329">
        <ele>965.4</ele>
        <time>2022-05-22 01:36:01</time>
      </trkpt>
      <trkpt lat="42.30997" lon="2.15326">
        <ele>965.6</ele>
        <time>2022-05-22 01:36:02</time>
      </trkpt>
      <trkpt lat="42.30997" lon="2.15323">
        <ele>965.6</ele>
        <time>2022-05-22 01:36:03</time>
      </trkpt>
      <trkpt lat="42.30997" lon="2.1532">
        <ele>965.8</ele>
        <time>2022-05-22 01:36:04</time>
      </trkpt>
      <trkpt lat="42.30996" lon="2.15317">
        <ele>965.8</ele>
        <time>2022-05-22 01:36:05</time>
      </trkpt>
      <trkpt lat="42.30995" lon="2.15314">
        <ele>966</ele>
        <time>2022-05-22 01:36:06</time>
      </trkpt>
      <trkpt lat="42.30994" lon="2.15311">
        <ele>966.2</ele>
        <time>2022-05-22 01:36:07</time>
      </trkpt>
      <trkpt lat="42.30993" lon="2.15309">
        <ele>966.2</ele>
        <time>2022-05-22 01:36:08</time>
      </trkpt>
      <trkpt lat="42.30992" lon="2.15306">
        <ele>966.2</ele>
        <time>2022-05-22 01:36:09</time>
      </trkpt>
      <trkpt lat="42.30992" lon="2.15302">
        <ele>966.4</ele>
        <time>2022-05-22 01:36:10</time>
      </trkpt>
      <trkpt lat="42.30991" lon="2.15299">
        <ele>966.4</ele>
        <time>2022-05-22 01:36:11</time>
      </trkpt>
      <trkpt lat="42.30991" lon="2.15294">
        <ele>966.6</ele>
        <time>2022-05-22 01:36:12</time>
      </trkpt>
      <trkpt lat="42.3099" lon="2.1529">
        <ele>966.8</ele>
        <time>2022-05-22 01:36:13</time>
      </trkpt>
      <trkpt lat="42.3099" lon="2.15286">
        <ele>966.8</ele>
        <time>2022-05-22 01:36:14</time>
      </trkpt>
      <trkpt lat="42.3099" lon="2.15283">
        <ele>967</ele>
        <time>2022-05-22 01:36:15</time>
      </trkpt>
      <trkpt lat="42.3099" lon="2.15279">
        <ele>967</ele>
        <time>2022-05-22 01:36:16</time>
      </trkpt>
      <trkpt lat="42.3099" lon="2.15275">
        <ele>967.2</ele>
        <time>2022-05-22 01:36:17</time>
      </trkpt>
      <trkpt lat="42.30991" lon="2.15271">
        <ele>967.4</ele>
        <time>2022-05-22 01:36:18</time>
      </trkpt>
      <trkpt lat="42.30991" lon="2.15267">
        <ele>967.4</ele>
        <time>2022-05-22 01:36:19</time>
      </trkpt>
      <trkpt lat="42.30992" lon="2.15264">
        <ele>967.6</ele>
        <time>2022-05-22 01:36:20</time>
      </trkpt>
      <trkpt lat="42.30992" lon="2.15261">
        <ele>967.6</ele>
        <time>2022-05-22 01:36:21</time>
      </trkpt>
      <trkpt lat="42.30992" lon="2.15257">
        <ele>967.8</ele>
        <time>2022-05-22 01:36:22</time>
      </trkpt>
      <trkpt lat="42.30993" lon="2.15254">
        <ele>968</ele>
        <time>2022-05-22 01:36:23</time>
      </trkpt>
      <trkpt lat="42.30993" lon="2.15251">
        <ele>968</ele>
        <time>2022-05-22 01:36:24</time>
      </trkpt>
      <trkpt lat="42.30994" lon="2.15248">
        <ele>968.2</ele>
        <time>2022-05-22 01:36:25</time>
      </trkpt>
      <trkpt lat="42.30994" lon="2.15245">
        <ele>968.2</ele>
        <time>2022-05-22 01:36:26</time>
      </trkpt>
      <trkpt lat="42.30995" lon="2.15241">
        <ele>968.4</ele>
        <time>2022-05-22 01:36:27</time>
      </trkpt>
      <trkpt lat="42.30995" lon="2.15239">
        <ele>968.6</ele>
        <time>2022-05-22 01:36:28</time>
      </trkpt>
      <trkpt lat="42.30995" lon="2.15236">
        <ele>968.6</ele>
        <time>2022-05-22 01:36:29</time>
      </trkpt>
      <trkpt lat="42.30996" lon="2.15233">
        <ele>968.8</ele>
        <time>2022-05-22 01:36:30</time>
      </trkpt>
      <trkpt lat="42.30997" lon="2.1523">
        <ele>968.8</ele>
        <time>2022-05-22 01:36:31</time>
      </trkpt>
      <trkpt lat="42.30998" lon="2.15227">
        <ele>969</ele>
        <time>2022-05-22 01:36:32</time>
      </trkpt>
      <trkpt lat="42.30999" lon="2.15224">
        <ele>969</ele>
        <time>2022-05-22 01:36:33</time>
      </trkpt>
      <trkpt lat="42.31" lon="2.15221">
        <ele>969.2</ele>
        <time>2022-05-22 01:36:34</time>
      </trkpt>
      <trkpt lat="42.31001" lon="2.15218">
        <ele>969.2</ele>
        <time>2022-05-22 01:36:35</time>
      </trkpt>
      <trkpt lat="42.31002" lon="2.15216">
        <ele>969.4</ele>
        <time>2022-05-22 01:36:36</time>
      </trkpt>
      <trkpt lat="42.31004" lon="2.15213">
        <ele>969.6</ele>
        <time>2022-05-22 01:36:37</time>
      </trkpt>
      <trkpt lat="42.31005" lon="2.15211">
        <ele>969.6</ele>
        <time>2022-05-22 01:36:38</time>
      </trkpt>
      <trkpt lat="42.31007" lon="2.15208">
        <ele>969.8</ele>
        <time>2022-05-22 01:36:39</time>
      </trkpt>
      <trkpt lat="42.31008" lon="2.15206">
        <ele>970</ele>
        <time>2022-05-22 01:36:40</time>
      </trkpt>
      <trkpt lat="42.3101" lon="2.15205">
        <ele>970.2</ele>
        <time>2022-05-22 01:36:41</time>
      </trkpt>
      <trkpt lat="42.31012" lon="2.15203">
        <ele>970.2</ele>
        <time>2022-05-22 01:36:42</time>
      </trkpt>
      <trkpt lat="42.31014" lon="2.15201">
        <ele>970.4</ele>
        <time>2022-05-22 01:36:43</time>
      </trkpt>
      <trkpt lat="42.31016" lon="2.152">
        <ele>970.4</ele>
        <time>2022-05-22 01:36:44</time>
      </trkpt>
      <trkpt lat="42.31018" lon="2.15198">
        <ele>970.6</ele>
        <time>2022-05-22 01:36:45</time>
      </trkpt>
      <trkpt lat="42.31021" lon="2.15197">
        <ele>970.6</ele>
        <time>2022-05-22 01:36:46</time>
      </trkpt>
      <trkpt lat="42.31023" lon="2.15196">
        <ele>970.8</ele>
        <time>2022-05-22 01:36:47</time>
      </trkpt>
      <trkpt lat="42.31025" lon="2.15194">
        <ele>971</ele>
        <time>2022-05-22 01:36:48</time>
      </trkpt>
      <trkpt lat="42.31027" lon="2.15194">
        <ele>971</ele>
        <time>2022-05-22 01:36:49</time>
      </trkpt>
      <trkpt lat="42.31029" lon="2.15193">
        <ele>971.2</ele>
        <time>2022-05-22 01:36:50</time>
      </trkpt>
      <trkpt lat="42.31031" lon="2.15192">
        <ele>971.4</ele>
        <time>2022-05-22 01:36:51</time>
      </trkpt>
      <trkpt lat="42.31033" lon="2.15191">
        <ele>971.4</ele>
        <time>2022-05-22 01:36:52</time>
      </trkpt>
      <trkpt lat="42.31035" lon="2.1519">
        <ele>971.6</ele>
        <time>2022-05-22 01:36:53</time>
      </trkpt>
      <trkpt lat="42.31037" lon="2.15189">
        <ele>971.6</ele>
        <time>2022-05-22 01:36:54</time>
      </trkpt>
      <trkpt lat="42.3104" lon="2.15188">
        <ele>971.8</ele>
        <time>2022-05-22 01:36:55</time>
      </trkpt>
      <trkpt lat="42.31042" lon="2.15186">
        <ele>972</ele>
        <time>2022-05-22 01:36:56</time>
      </trkpt>
      <trkpt lat="42.31043" lon="2.15185">
        <ele>972</ele>
        <time>2022-05-22 01:36:57</time>
      </trkpt>
      <trkpt lat="42.31045" lon="2.15184">
        <ele>972.2</ele>
        <time>2022-05-22 01:36:58</time>
      </trkpt>
      <trkpt lat="42.31047" lon="2.15183">
        <ele>972.4</ele>
        <time>2022-05-22 01:36:59</time>
      </trkpt>
      <trkpt lat="42.31049" lon="2.15182">
        <ele>972.4</ele>
        <time>2022-05-22 01:37:00</time>
      </trkpt>
      <trkpt lat="42.31051" lon="2.15181">
        <ele>972.6</ele>
        <time>2022-05-22 01:37:01</time>
      </trkpt>
      <trkpt lat="42.31053" lon="2.1518">
        <ele>972.8</ele>
        <time>2022-05-22 01:37:02</time>
      </trkpt>
      <trkpt lat="42.31055" lon="2.15179">
        <ele>972.8</ele>
        <time>2022-05-22 01:37:03</time>
      </trkpt>
      <trkpt lat="42.31057" lon="2.15178">
        <ele>973</ele>
        <time>2022-05-22 01:37:04</time>
      </trkpt>
      <trkpt lat="42.31059" lon="2.15178">
        <ele>973.2</ele>
        <time>2022-05-22 01:37:05</time>
      </trkpt>
      <trkpt lat="42.31062" lon="2.15177">
        <ele>973.2</ele>
        <time>2022-05-22 01:37:06</time>
      </trkpt>
      <trkpt lat="42.31064" lon="2.15177">
        <ele>973.4</ele>
        <time>2022-05-22 01:37:07</time>
      </trkpt>
      <trkpt lat="42.31067" lon="2.15176">
        <ele>973.4</ele>
        <time>2022-05-22 01:37:08</time>
      </trkpt>
      <trkpt lat="42.31068" lon="2.15176">
        <ele>973.6</ele>
        <time>2022-05-22 01:37:09</time>
      </trkpt>
      <trkpt lat="42.31071" lon="2.15176">
        <ele>973.8</ele>
        <time>2022-05-22 01:37:10</time>
      </trkpt>
      <trkpt lat="42.31073" lon="2.15176">
        <ele>973.8</ele>
        <time>2022-05-22 01:37:11</time>
      </trkpt>
      <trkpt lat="42.31076" lon="2.15175">
        <ele>974</ele>
        <time>2022-05-22 01:37:12</time>
      </trkpt>
      <trkpt lat="42.31078" lon="2.15175">
        <ele>974</ele>
        <time>2022-05-22 01:37:13</time>
      </trkpt>
      <trkpt lat="42.3108" lon="2.15175">
        <ele>974.2</ele>
        <time>2022-05-22 01:37:14</time>
      </trkpt>
      <trkpt lat="42.31083" lon="2.15175">
        <ele>974.4</ele>
        <time>2022-05-22 01:37:15</time>
      </trkpt>
      <trkpt lat="42.31086" lon="2.15175">
        <ele>974.4</ele>
        <time>2022-05-22 01:37:16</time>
      </trkpt>
      <trkpt lat="42.31088" lon="2.15175">
        <ele>974.6</ele>
        <time>2022-05-22 01:37:17</time>
      </trkpt>
      <trkpt lat="42.3109" lon="2.15175">
        <ele>974.8</ele>
        <time>2022-05-22 01:37:18</time>
      </trkpt>
      <trkpt lat="42.31093" lon="2.15174">
        <ele>974.8</ele>
        <time>2022-05-22 01:37:19</time>
      </trkpt>
      <trkpt lat="42.31095" lon="2.15174">
        <ele>975</ele>
        <time>2022-05-22 01:37:20</time>
      </trkpt>
      <trkpt lat="42.31097" lon="2.15174">
        <ele>975.2</ele>
        <time>2022-05-22 01:37:21</time>
      </trkpt>
      <trkpt lat="42.31099" lon="2.15173">
        <ele>975.2</ele>
        <time>2022-05-22 01:37:22</time>
      </trkpt>
      <trkpt lat="42.31102" lon="2.15173">
        <ele>975.4</ele>
        <time>2022-05-22 01:37:23</time>
      </trkpt>
      <trkpt lat="42.31104" lon="2.15173">
        <ele>975.6</ele>
        <time>2022-05-22 01:37:24</time>
      </trkpt>
      <trkpt lat="42.31107" lon="2.15173">
        <ele>975.6</ele>
        <time>2022-05-22 01:37:25</time>
      </trkpt>
      <trkpt lat="42.31109" lon="2.15172">
        <ele>975.8</ele>
        <time>2022-05-22 01:37:26</time>
      </trkpt>
      <trkpt lat="42.31112" lon="2.15172">
        <ele>976</ele>
        <time>2022-05-22 01:37:27</time>
      </trkpt>
      <trkpt lat="42.31114" lon="2.15172">
        <ele>976</ele>
        <time>2022-05-22 01:37:28</time>
      </trkpt>
      <trkpt lat="42.31117" lon="2.15171">
        <ele>976.2</ele>
        <time>2022-05-22 01:37:29</time>
      </trkpt>
      <trkpt lat="42.31119" lon="2.15171">
        <ele>976.4</ele>
        <time>2022-05-22 01:37:30</time>
      </trkpt>
      <trkpt lat="42.31122" lon="2.15171">
        <ele>976.6</ele>
        <time>2022-05-22 01:37:31</time>
      </trkpt>
      <trkpt lat="42.31124" lon="2.15171">
        <ele>976.6</ele>
        <time>2022-05-22 01:37:32</time>
      </trkpt>
      <trkpt lat="42.31126" lon="2.15171">
        <ele>976.8</ele>
        <time>2022-05-22 01:37:33</time>
      </trkpt>
      <trkpt lat="42.31129" lon="2.15171">
        <ele>977</ele>
        <time>2022-05-22 01:37:34</time>
      </trkpt>
      <trkpt lat="42.31131" lon="2.15171">
        <ele>977.2</ele>
        <time>2022-05-22 01:37:35</time>
      </trkpt>
      <trkpt lat="42.31133" lon="2.1517">
        <ele>977.2</ele>
        <time>2022-05-22 01:37:36</time>
      </trkpt>
      <trkpt lat="42.31135" lon="2.1517">
        <ele>977.4</ele>
        <time>2022-05-22 01:37:37</time>
      </trkpt>
      <trkpt lat="42.31137" lon="2.15169">
        <ele>977.6</ele>
        <time>2022-05-22 01:37:38</time>
      </trkpt>
      <trkpt lat="42.3114" lon="2.15168">
        <ele>977.6</ele>
        <time>2022-05-22 01:37:39</time>
      </trkpt>
      <trkpt lat="42.31142" lon="2.15167">
        <ele>977.8</ele>
        <time>2022-05-22 01:37:40</time>
      </trkpt>
      <trkpt lat="42.31144" lon="2.15166">
        <ele>978</ele>
        <time>2022-05-22 01:37:41</time>
      </trkpt>
      <trkpt lat="42.31146" lon="2.15164">
        <ele>978.2</ele>
        <time>2022-05-22 01:37:42</time>
      </trkpt>
      <trkpt lat="42.31148" lon="2.15162">
        <ele>978.2</ele>
        <time>2022-05-22 01:37:43</time>
      </trkpt>
      <trkpt lat="42.3115" lon="2.1516">
        <ele>978.4</ele>
        <time>2022-05-22 01:37:44</time>
      </trkpt>
      <trkpt lat="42.31152" lon="2.15158">
        <ele>978.4</ele>
        <time>2022-05-22 01:37:45</time>
      </trkpt>
      <trkpt lat="42.31153" lon="2.15155">
        <ele>978.6</ele>
        <time>2022-05-22 01:37:46</time>
      </trkpt>
      <trkpt lat="42.31155" lon="2.15152">
        <ele>978.6</ele>
        <time>2022-05-22 01:37:47</time>
      </trkpt>
      <trkpt lat="42.31156" lon="2.15149">
        <ele>978.8</ele>
        <time>2022-05-22 01:37:48</time>
      </trkpt>
      <trkpt lat="42.31156" lon="2.15148">
        <ele>978.8</ele>
        <time>2022-05-22 01:37:49</time>
      </trkpt>
      <trkpt lat="42.31158" lon="2.15142">
        <ele>979</ele>
        <time>2022-05-22 01:37:50</time>
      </trkpt>
      <trkpt lat="42.31159" lon="2.15139">
        <ele>979</ele>
        <time>2022-05-22 01:37:51</time>
      </trkpt>
      <trkpt lat="42.31159" lon="2.15136">
        <ele>979.2</ele>
        <time>2022-05-22 01:37:52</time>
      </trkpt>
      <trkpt lat="42.31159" lon="2.15133">
        <ele>979.2</ele>
        <time>2022-05-22 01:37:53</time>
      </trkpt>
      <trkpt lat="42.31159" lon="2.1513">
        <ele>979.4</ele>
        <time>2022-05-22 01:37:54</time>
      </trkpt>
      <trkpt lat="42.3116" lon="2.15126">
        <ele>979.4</ele>
        <time>2022-05-22 01:37:55</time>
      </trkpt>
      <trkpt lat="42.3116" lon="2.15123">
        <ele>979.6</ele>
        <time>2022-05-22 01:37:56</time>
      </trkpt>
      <trkpt lat="42.3116" lon="2.1512">
        <ele>979.8</ele>
        <time>2022-05-22 01:37:57</time>
      </trkpt>
      <trkpt lat="42.31161" lon="2.15117">
        <ele>979.8</ele>
        <time>2022-05-22 01:37:58</time>
      </trkpt>
      <trkpt lat="42.31161" lon="2.15114">
        <ele>980</ele>
        <time>2022-05-22 01:37:59</time>
      </trkpt>
      <trkpt lat="42.31161" lon="2.15111">
        <ele>980</ele>
        <time>2022-05-22 01:38:00</time>
      </trkpt>
      <trkpt lat="42.31162" lon="2.15107">
        <ele>980.2</ele>
        <time>2022-05-22 01:38:01</time>
      </trkpt>
      <trkpt lat="42.31162" lon="2.15104">
        <ele>980.4</ele>
        <time>2022-05-22 01:38:02</time>
      </trkpt>
      <trkpt lat="42.31162" lon="2.15101">
        <ele>980.4</ele>
        <time>2022-05-22 01:38:03</time>
      </trkpt>
      <trkpt lat="42.31162" lon="2.15098">
        <ele>980.6</ele>
        <time>2022-05-22 01:38:04</time>
      </trkpt>
      <trkpt lat="42.31162" lon="2.15095">
        <ele>980.6</ele>
        <time>2022-05-22 01:38:05</time>
      </trkpt>
      <trkpt lat="42.31163" lon="2.15092">
        <ele>980.8</ele>
        <time>2022-05-22 01:38:06</time>
      </trkpt>
      <trkpt lat="42.31163" lon="2.15089">
        <ele>980.8</ele>
        <time>2022-05-22 01:38:07</time>
      </trkpt>
      <trkpt lat="42.31163" lon="2.15086">
        <ele>981</ele>
        <time>2022-05-22 01:38:08</time>
      </trkpt>
      <trkpt lat="42.31164" lon="2.15083">
        <ele>981.2</ele>
        <time>2022-05-22 01:38:09</time>
      </trkpt>
      <trkpt lat="42.31164" lon="2.1508">
        <ele>981.2</ele>
        <time>2022-05-22 01:38:10</time>
      </trkpt>
      <trkpt lat="42.31165" lon="2.15076">
        <ele>981.4</ele>
        <time>2022-05-22 01:38:11</time>
      </trkpt>
      <trkpt lat="42.31165" lon="2.15073">
        <ele>981.4</ele>
        <time>2022-05-22 01:38:12</time>
      </trkpt>
      <trkpt lat="42.31165" lon="2.1507">
        <ele>981.6</ele>
        <time>2022-05-22 01:38:13</time>
      </trkpt>
      <trkpt lat="42.31165" lon="2.15067">
        <ele>981.6</ele>
        <time>2022-05-22 01:38:14</time>
      </trkpt>
      <trkpt lat="42.31166" lon="2.15063">
        <ele>981.6</ele>
        <time>2022-05-22 01:38:15</time>
      </trkpt>
      <trkpt lat="42.31167" lon="2.15059">
        <ele>981.8</ele>
        <time>2022-05-22 01:38:16</time>
      </trkpt>
      <trkpt lat="42.31167" lon="2.15056">
        <ele>981.8</ele>
        <time>2022-05-22 01:38:17</time>
      </trkpt>
      <trkpt lat="42.31168" lon="2.15053">
        <ele>982</ele>
        <time>2022-05-22 01:38:18</time>
      </trkpt>
      <trkpt lat="42.31168" lon="2.15049">
        <ele>982</ele>
        <time>2022-05-22 01:38:19</time>
      </trkpt>
      <trkpt lat="42.31168" lon="2.15045">
        <ele>982.2</ele>
        <time>2022-05-22 01:38:20</time>
      </trkpt>
      <trkpt lat="42.31169" lon="2.15042">
        <ele>982.2</ele>
        <time>2022-05-22 01:38:21</time>
      </trkpt>
      <trkpt lat="42.31169" lon="2.15038">
        <ele>982.2</ele>
        <time>2022-05-22 01:38:22</time>
      </trkpt>
      <trkpt lat="42.3117" lon="2.15035">
        <ele>982.4</ele>
        <time>2022-05-22 01:38:23</time>
      </trkpt>
      <trkpt lat="42.3117" lon="2.15031">
        <ele>982.4</ele>
        <time>2022-05-22 01:38:24</time>
      </trkpt>
      <trkpt lat="42.31171" lon="2.15027">
        <ele>982.6</ele>
        <time>2022-05-22 01:38:25</time>
      </trkpt>
      <trkpt lat="42.31172" lon="2.15024">
        <ele>982.6</ele>
        <time>2022-05-22 01:38:26</time>
      </trkpt>
      <trkpt lat="42.31172" lon="2.15019">
        <ele>982.8</ele>
        <time>2022-05-22 01:38:27</time>
      </trkpt>
      <trkpt lat="42.31173" lon="2.15015">
        <ele>982.8</ele>
        <time>2022-05-22 01:38:28</time>
      </trkpt>
      <trkpt lat="42.31173" lon="2.15012">
        <ele>983</ele>
        <time>2022-05-22 01:38:29</time>
      </trkpt>
      <trkpt lat="42.31174" lon="2.15008">
        <ele>983</ele>
        <time>2022-05-22 01:38:30</time>
      </trkpt>
      <trkpt lat="42.31175" lon="2.15003">
        <ele>983.2</ele>
        <time>2022-05-22 01:38:31</time>
      </trkpt>
      <trkpt lat="42.31176" lon="2.14999">
        <ele>983.2</ele>
        <time>2022-05-22 01:38:32</time>
      </trkpt>
      <trkpt lat="42.31176" lon="2.14995">
        <ele>983.4</ele>
        <time>2022-05-22 01:38:33</time>
      </trkpt>
      <trkpt lat="42.31177" lon="2.14992">
        <ele>983.4</ele>
        <time>2022-05-22 01:38:34</time>
      </trkpt>
      <trkpt lat="42.31177" lon="2.14988">
        <ele>983.6</ele>
        <time>2022-05-22 01:38:35</time>
      </trkpt>
      <trkpt lat="42.31178" lon="2.14984">
        <ele>983.8</ele>
        <time>2022-05-22 01:38:36</time>
      </trkpt>
      <trkpt lat="42.31179" lon="2.1498">
        <ele>983.8</ele>
        <time>2022-05-22 01:38:37</time>
      </trkpt>
      <trkpt lat="42.3118" lon="2.14976">
        <ele>984</ele>
        <time>2022-05-22 01:38:38</time>
      </trkpt>
      <trkpt lat="42.31181" lon="2.14972">
        <ele>984.2</ele>
        <time>2022-05-22 01:38:39</time>
      </trkpt>
      <trkpt lat="42.31182" lon="2.14969">
        <ele>984.2</ele>
        <time>2022-05-22 01:38:40</time>
      </trkpt>
      <trkpt lat="42.31183" lon="2.14965">
        <ele>984.4</ele>
        <time>2022-05-22 01:38:41</time>
      </trkpt>
      <trkpt lat="42.31184" lon="2.14962">
        <ele>984.6</ele>
        <time>2022-05-22 01:38:42</time>
      </trkpt>
      <trkpt lat="42.31186" lon="2.14959">
        <ele>984.8</ele>
        <time>2022-05-22 01:38:43</time>
      </trkpt>
      <trkpt lat="42.31187" lon="2.14955">
        <ele>985</ele>
        <time>2022-05-22 01:38:44</time>
      </trkpt>
      <trkpt lat="42.31189" lon="2.14952">
        <ele>985</ele>
        <time>2022-05-22 01:38:45</time>
      </trkpt>
      <trkpt lat="42.31191" lon="2.14949">
        <ele>985.2</ele>
        <time>2022-05-22 01:38:46</time>
      </trkpt>
      <trkpt lat="42.31192" lon="2.14946">
        <ele>985.4</ele>
        <time>2022-05-22 01:38:47</time>
      </trkpt>
      <trkpt lat="42.31193" lon="2.14943">
        <ele>985.6</ele>
        <time>2022-05-22 01:38:48</time>
      </trkpt>
      <trkpt lat="42.31195" lon="2.14941">
        <ele>985.6</ele>
        <time>2022-05-22 01:38:49</time>
      </trkpt>
      <trkpt lat="42.31196" lon="2.14938">
        <ele>985.8</ele>
        <time>2022-05-22 01:38:50</time>
      </trkpt>
      <trkpt lat="42.31197" lon="2.14935">
        <ele>986</ele>
        <time>2022-05-22 01:38:51</time>
      </trkpt>
      <trkpt lat="42.31198" lon="2.14933">
        <ele>986.2</ele>
        <time>2022-05-22 01:38:52</time>
      </trkpt>
      <trkpt lat="42.312" lon="2.1493">
        <ele>986.4</ele>
        <time>2022-05-22 01:38:53</time>
      </trkpt>
      <trkpt lat="42.31201" lon="2.14928">
        <ele>986.6</ele>
        <time>2022-05-22 01:38:54</time>
      </trkpt>
      <trkpt lat="42.31202" lon="2.14925">
        <ele>986.6</ele>
        <time>2022-05-22 01:38:55</time>
      </trkpt>
      <trkpt lat="42.31203" lon="2.14923">
        <ele>986.8</ele>
        <time>2022-05-22 01:38:56</time>
      </trkpt>
      <trkpt lat="42.31204" lon="2.14921">
        <ele>987</ele>
        <time>2022-05-22 01:38:57</time>
      </trkpt>
      <trkpt lat="42.31206" lon="2.14917">
        <ele>987.2</ele>
        <time>2022-05-22 01:38:58</time>
      </trkpt>
      <trkpt lat="42.31207" lon="2.14915">
        <ele>987.4</ele>
        <time>2022-05-22 01:38:59</time>
      </trkpt>
      <trkpt lat="42.31208" lon="2.14912">
        <ele>987.4</ele>
        <time>2022-05-22 01:39:00</time>
      </trkpt>
      <trkpt lat="42.31209" lon="2.14909">
        <ele>987.6</ele>
        <time>2022-05-22 01:39:01</time>
      </trkpt>
      <trkpt lat="42.31211" lon="2.14906">
        <ele>987.8</ele>
        <time>2022-05-22 01:39:02</time>
      </trkpt>
      <trkpt lat="42.31212" lon="2.14903">
        <ele>988</ele>
        <time>2022-05-22 01:39:03</time>
      </trkpt>
      <trkpt lat="42.31214" lon="2.149">
        <ele>988.2</ele>
        <time>2022-05-22 01:39:04</time>
      </trkpt>
      <trkpt lat="42.31215" lon="2.14898">
        <ele>988.4</ele>
        <time>2022-05-22 01:39:05</time>
      </trkpt>
      <trkpt lat="42.31216" lon="2.14895">
        <ele>988.4</ele>
        <time>2022-05-22 01:39:06</time>
      </trkpt>
      <trkpt lat="42.31218" lon="2.14892">
        <ele>988.6</ele>
        <time>2022-05-22 01:39:07</time>
      </trkpt>
      <trkpt lat="42.31219" lon="2.1489">
        <ele>988.8</ele>
        <time>2022-05-22 01:39:08</time>
      </trkpt>
      <trkpt lat="42.31221" lon="2.14887">
        <ele>989</ele>
        <time>2022-05-22 01:39:09</time>
      </trkpt>
      <trkpt lat="42.31223" lon="2.14885">
        <ele>989.2</ele>
        <time>2022-05-22 01:39:10</time>
      </trkpt>
      <trkpt lat="42.31224" lon="2.14882">
        <ele>989.4</ele>
        <time>2022-05-22 01:39:11</time>
      </trkpt>
      <trkpt lat="42.31226" lon="2.14879">
        <ele>989.4</ele>
        <time>2022-05-22 01:39:12</time>
      </trkpt>
      <trkpt lat="42.31228" lon="2.14877">
        <ele>989.6</ele>
        <time>2022-05-22 01:39:13</time>
      </trkpt>
      <trkpt lat="42.3123" lon="2.14874">
        <ele>989.8</ele>
        <time>2022-05-22 01:39:14</time>
      </trkpt>
      <trkpt lat="42.31231" lon="2.14872">
        <ele>990</ele>
        <time>2022-05-22 01:39:15</time>
      </trkpt>
      <trkpt lat="42.31231" lon="2.14869">
        <ele>990.2</ele>
        <time>2022-05-22 01:39:16</time>
      </trkpt>
      <trkpt lat="42.31232" lon="2.14867">
        <ele>990.4</ele>
        <time>2022-05-22 01:39:17</time>
      </trkpt>
      <trkpt lat="42.31233" lon="2.14864">
        <ele>990.4</ele>
        <time>2022-05-22 01:39:18</time>
      </trkpt>
      <trkpt lat="42.31234" lon="2.14862">
        <ele>990.6</ele>
        <time>2022-05-22 01:39:19</time>
      </trkpt>
      <trkpt lat="42.31235" lon="2.14859">
        <ele>990.8</ele>
        <time>2022-05-22 01:39:20</time>
      </trkpt>
      <trkpt lat="42.31236" lon="2.14857">
        <ele>991</ele>
        <time>2022-05-22 01:39:21</time>
      </trkpt>
      <trkpt lat="42.31237" lon="2.14855">
        <ele>991.2</ele>
        <time>2022-05-22 01:39:22</time>
      </trkpt>
      <trkpt lat="42.31239" lon="2.14852">
        <ele>991.4</ele>
        <time>2022-05-22 01:39:23</time>
      </trkpt>
      <trkpt lat="42.31241" lon="2.1485">
        <ele>991.6</ele>
        <time>2022-05-22 01:39:24</time>
      </trkpt>
      <trkpt lat="42.31242" lon="2.14847">
        <ele>991.8</ele>
        <time>2022-05-22 01:39:25</time>
      </trkpt>
      <trkpt lat="42.31243" lon="2.14845">
        <ele>991.8</ele>
        <time>2022-05-22 01:39:26</time>
      </trkpt>
      <trkpt lat="42.31245" lon="2.14843">
        <ele>992</ele>
        <time>2022-05-22 01:39:27</time>
      </trkpt>
      <trkpt lat="42.31246" lon="2.1484">
        <ele>992.2</ele>
        <time>2022-05-22 01:39:28</time>
      </trkpt>
      <trkpt lat="42.31247" lon="2.14837">
        <ele>992.4</ele>
        <time>2022-05-22 01:39:29</time>
      </trkpt>
      <trkpt lat="42.31248" lon="2.14835">
        <ele>992.6</ele>
        <time>2022-05-22 01:39:30</time>
      </trkpt>
      <trkpt lat="42.31249" lon="2.14832">
        <ele>992.6</ele>
        <time>2022-05-22 01:39:31</time>
      </trkpt>
      <trkpt lat="42.31251" lon="2.1483">
        <ele>992.8</ele>
        <time>2022-05-22 01:39:32</time>
      </trkpt>
      <trkpt lat="42.31252" lon="2.14827">
        <ele>993</ele>
        <time>2022-05-22 01:39:33</time>
      </trkpt>
      <trkpt lat="42.31253" lon="2.14825">
        <ele>993.2</ele>
        <time>2022-05-22 01:39:34</time>
      </trkpt>
      <trkpt lat="42.31254" lon="2.14823">
        <ele>993.4</ele>
        <time>2022-05-22 01:39:35</time>
      </trkpt>
      <trkpt lat="42.31256" lon="2.1482">
        <ele>993.4</ele>
        <time>2022-05-22 01:39:36</time>
      </trkpt>
      <trkpt lat="42.31258" lon="2.14817">
        <ele>993.6</ele>
        <time>2022-05-22 01:39:37</time>
      </trkpt>
      <trkpt lat="42.31259" lon="2.14815">
        <ele>993.8</ele>
        <time>2022-05-22 01:39:38</time>
      </trkpt>
      <trkpt lat="42.31261" lon="2.14813">
        <ele>994</ele>
        <time>2022-05-22 01:39:39</time>
      </trkpt>
      <trkpt lat="42.31262" lon="2.1481">
        <ele>994.2</ele>
        <time>2022-05-22 01:39:40</time>
      </trkpt>
      <trkpt lat="42.31263" lon="2.14808">
        <ele>994.4</ele>
        <time>2022-05-22 01:39:41</time>
      </trkpt>
      <trkpt lat="42.31264" lon="2.14805">
        <ele>994.6</ele>
        <time>2022-05-22 01:39:42</time>
      </trkpt>
      <trkpt lat="42.31266" lon="2.14803">
        <ele>994.8</ele>
        <time>2022-05-22 01:39:43</time>
      </trkpt>
      <trkpt lat="42.31267" lon="2.14801">
        <ele>995</ele>
        <time>2022-05-22 01:39:44</time>
      </trkpt>
      <trkpt lat="42.31269" lon="2.14799">
        <ele>995.2</ele>
        <time>2022-05-22 01:39:45</time>
      </trkpt>
      <trkpt lat="42.31271" lon="2.14796">
        <ele>995.4</ele>
        <time>2022-05-22 01:39:46</time>
      </trkpt>
      <trkpt lat="42.31272" lon="2.14794">
        <ele>995.6</ele>
        <time>2022-05-22 01:39:47</time>
      </trkpt>
      <trkpt lat="42.31273" lon="2.14792">
        <ele>995.8</ele>
        <time>2022-05-22 01:39:48</time>
      </trkpt>
      <trkpt lat="42.31275" lon="2.1479">
        <ele>996</ele>
        <time>2022-05-22 01:39:49</time>
      </trkpt>
      <trkpt lat="42.31277" lon="2.14787">
        <ele>996.2</ele>
        <time>2022-05-22 01:39:50</time>
      </trkpt>
      <trkpt lat="42.31278" lon="2.14785">
        <ele>996.4</ele>
        <time>2022-05-22 01:39:51</time>
      </trkpt>
      <trkpt lat="42.3128" lon="2.14782">
        <ele>996.4</ele>
        <time>2022-05-22 01:39:52</time>
      </trkpt>
      <trkpt lat="42.31281" lon="2.14779">
        <ele>996.6</ele>
        <time>2022-05-22 01:39:53</time>
      </trkpt>
      <trkpt lat="42.31282" lon="2.14777">
        <ele>996.8</ele>
        <time>2022-05-22 01:39:54</time>
      </trkpt>
      <trkpt lat="42.31283" lon="2.14774">
        <ele>997</ele>
        <time>2022-05-22 01:39:55</time>
      </trkpt>
      <trkpt lat="42.31285" lon="2.14773">
        <ele>997.2</ele>
        <time>2022-05-22 01:39:56</time>
      </trkpt>
      <trkpt lat="42.31287" lon="2.14771">
        <ele>997.4</ele>
        <time>2022-05-22 01:39:57</time>
      </trkpt>
      <trkpt lat="42.31288" lon="2.14769">
        <ele>997.6</ele>
        <time>2022-05-22 01:39:58</time>
      </trkpt>
      <trkpt lat="42.3129" lon="2.14766">
        <ele>997.8</ele>
        <time>2022-05-22 01:39:59</time>
      </trkpt>
      <trkpt lat="42.31291" lon="2.14763">
        <ele>997.8</ele>
        <time>2022-05-22 01:40:00</time>
      </trkpt>
      <trkpt lat="42.31292" lon="2.1476">
        <ele>998</ele>
        <time>2022-05-22 01:40:01</time>
      </trkpt>
      <trkpt lat="42.31294" lon="2.14758">
        <ele>998.2</ele>
        <time>2022-05-22 01:40:02</time>
      </trkpt>
      <trkpt lat="42.31295" lon="2.14754">
        <ele>998.4</ele>
        <time>2022-05-22 01:40:03</time>
      </trkpt>
      <trkpt lat="42.31296" lon="2.14752">
        <ele>998.6</ele>
        <time>2022-05-22 01:40:04</time>
      </trkpt>
      <trkpt lat="42.31297" lon="2.14749">
        <ele>998.6</ele>
        <time>2022-05-22 01:40:05</time>
      </trkpt>
      <trkpt lat="42.31299" lon="2.14747">
        <ele>998.8</ele>
        <time>2022-05-22 01:40:06</time>
      </trkpt>
      <trkpt lat="42.313" lon="2.14745">
        <ele>999</ele>
        <time>2022-05-22 01:40:07</time>
      </trkpt>
      <trkpt lat="42.31301" lon="2.14743">
        <ele>999.2</ele>
        <time>2022-05-22 01:40:08</time>
      </trkpt>
      <trkpt lat="42.31301" lon="2.1474">
        <ele>999.2</ele>
        <time>2022-05-22 01:40:09</time>
      </trkpt>
      <trkpt lat="42.31301" lon="2.14737">
        <ele>999.4</ele>
        <time>2022-05-22 01:40:10</time>
      </trkpt>
      <trkpt lat="42.31302" lon="2.14734">
        <ele>999.6</ele>
        <time>2022-05-22 01:40:11</time>
      </trkpt>
      <trkpt lat="42.31302" lon="2.14731">
        <ele>999.8</ele>
        <time>2022-05-22 01:40:12</time>
      </trkpt>
      <trkpt lat="42.31303" lon="2.14728">
        <ele>999.8</ele>
        <time>2022-05-22 01:40:13</time>
      </trkpt>
      <trkpt lat="42.31303" lon="2.14725">
        <ele>1000</ele>
        <time>2022-05-22 01:40:14</time>
      </trkpt>
      <trkpt lat="42.31303" lon="2.14722">
        <ele>1000.2</ele>
        <time>2022-05-22 01:40:15</time>
      </trkpt>
      <trkpt lat="42.31303" lon="2.14719">
        <ele>1000.4</ele>
        <time>2022-05-22 01:40:16</time>
      </trkpt>
      <trkpt lat="42.31302" lon="2.14716">
        <ele>1000.4</ele>
        <time>2022-05-22 01:40:17</time>
      </trkpt>
      <trkpt lat="42.31302" lon="2.14713">
        <ele>1000.6</ele>
        <time>2022-05-22 01:40:18</time>
      </trkpt>
      <trkpt lat="42.31302" lon="2.1471">
        <ele>1000.8</ele>
        <time>2022-05-22 01:40:19</time>
      </trkpt>
      <trkpt lat="42.31302" lon="2.14707">
        <ele>1000.8</ele>
        <time>2022-05-22 01:40:20</time>
      </trkpt>
      <trkpt lat="42.31302" lon="2.14704">
        <ele>1001</ele>
        <time>2022-05-22 01:40:21</time>
      </trkpt>
      <trkpt lat="42.31301" lon="2.14701">
        <ele>1001.2</ele>
        <time>2022-05-22 01:40:22</time>
      </trkpt>
      <trkpt lat="42.31301" lon="2.14698">
        <ele>1001.4</ele>
        <time>2022-05-22 01:40:23</time>
      </trkpt>
      <trkpt lat="42.31301" lon="2.14695">
        <ele>1001.6</ele>
        <time>2022-05-22 01:40:24</time>
      </trkpt>
      <trkpt lat="42.31301" lon="2.14693">
        <ele>1001.6</ele>
        <time>2022-05-22 01:40:25</time>
      </trkpt>
      <trkpt lat="42.31301" lon="2.1469">
        <ele>1001.8</ele>
        <time>2022-05-22 01:40:26</time>
      </trkpt>
      <trkpt lat="42.31301" lon="2.14687">
        <ele>1002</ele>
        <time>2022-05-22 01:40:27</time>
      </trkpt>
      <trkpt lat="42.31301" lon="2.14685">
        <ele>1002.2</ele>
        <time>2022-05-22 01:40:28</time>
      </trkpt>
      <trkpt lat="42.313" lon="2.14684">
        <ele>1002.4</ele>
        <time>2022-05-22 01:40:29</time>
      </trkpt>
      <trkpt lat="42.31299" lon="2.14681">
        <ele>1002.6</ele>
        <time>2022-05-22 01:40:30</time>
      </trkpt>
      <trkpt lat="42.31299" lon="2.14679">
        <ele>1002.6</ele>
        <time>2022-05-22 01:40:31</time>
      </trkpt>
      <trkpt lat="42.31298" lon="2.14677">
        <ele>1002.8</ele>
        <time>2022-05-22 01:40:32</time>
      </trkpt>
      <trkpt lat="42.31298" lon="2.14675">
        <ele>1003</ele>
        <time>2022-05-22 01:40:33</time>
      </trkpt>
      <trkpt lat="42.31296" lon="2.14673">
        <ele>1003.2</ele>
        <time>2022-05-22 01:40:34</time>
      </trkpt>
      <trkpt lat="42.31295" lon="2.14671">
        <ele>1003.2</ele>
        <time>2022-05-22 01:40:35</time>
      </trkpt>
      <trkpt lat="42.31294" lon="2.14668">
        <ele>1003.4</ele>
        <time>2022-05-22 01:40:36</time>
      </trkpt>
      <trkpt lat="42.31294" lon="2.14666">
        <ele>1003.6</ele>
        <time>2022-05-22 01:40:37</time>
      </trkpt>
      <trkpt lat="42.31294" lon="2.14663">
        <ele>1003.6</ele>
        <time>2022-05-22 01:40:38</time>
      </trkpt>
      <trkpt lat="42.31293" lon="2.14661">
        <ele>1003.8</ele>
        <time>2022-05-22 01:40:39</time>
      </trkpt>
      <trkpt lat="42.31292" lon="2.14659">
        <ele>1003.8</ele>
        <time>2022-05-22 01:40:40</time>
      </trkpt>
      <trkpt lat="42.31291" lon="2.14656">
        <ele>1004</ele>
        <time>2022-05-22 01:40:41</time>
      </trkpt>
      <trkpt lat="42.31291" lon="2.14654">
        <ele>1004.2</ele>
        <time>2022-05-22 01:40:42</time>
      </trkpt>
      <trkpt lat="42.3129" lon="2.14652">
        <ele>1004.2</ele>
        <time>2022-05-22 01:40:43</time>
      </trkpt>
      <trkpt lat="42.31289" lon="2.14649">
        <ele>1004.4</ele>
        <time>2022-05-22 01:40:44</time>
      </trkpt>
      <trkpt lat="42.31289" lon="2.14646">
        <ele>1004.4</ele>
        <time>2022-05-22 01:40:45</time>
      </trkpt>
      <trkpt lat="42.31288" lon="2.14644">
        <ele>1004.6</ele>
        <time>2022-05-22 01:40:46</time>
      </trkpt>
      <trkpt lat="42.31287" lon="2.1464">
        <ele>1004.6</ele>
        <time>2022-05-22 01:40:47</time>
      </trkpt>
      <trkpt lat="42.31286" lon="2.14636">
        <ele>1004.8</ele>
        <time>2022-05-22 01:40:48</time>
      </trkpt>
      <trkpt lat="42.31286" lon="2.14631">
        <ele>1005</ele>
        <time>2022-05-22 01:40:49</time>
      </trkpt>
      <trkpt lat="42.31286" lon="2.14627">
        <ele>1005</ele>
        <time>2022-05-22 01:40:50</time>
      </trkpt>
      <trkpt lat="42.31286" lon="2.14624">
        <ele>1005.2</ele>
        <time>2022-05-22 01:40:51</time>
      </trkpt>
      <trkpt lat="42.31286" lon="2.14619">
        <ele>1005.2</ele>
        <time>2022-05-22 01:40:52</time>
      </trkpt>
      <trkpt lat="42.31286" lon="2.14615">
        <ele>1005.4</ele>
        <time>2022-05-22 01:40:53</time>
      </trkpt>
      <trkpt lat="42.31285" lon="2.14612">
        <ele>1005.6</ele>
        <time>2022-05-22 01:40:54</time>
      </trkpt>
      <trkpt lat="42.31285" lon="2.1461">
        <ele>1005.8</ele>
        <time>2022-05-22 01:40:55</time>
      </trkpt>
      <trkpt lat="42.31286" lon="2.14606">
        <ele>1006</ele>
        <time>2022-05-22 01:40:56</time>
      </trkpt>
      <trkpt lat="42.31286" lon="2.14601">
        <ele>1006</ele>
        <time>2022-05-22 01:40:57</time>
      </trkpt>
      <trkpt lat="42.31286" lon="2.14597">
        <ele>1006.2</ele>
        <time>2022-05-22 01:40:58</time>
      </trkpt>
      <trkpt lat="42.31285" lon="2.14594">
        <ele>1006.4</ele>
        <time>2022-05-22 01:40:59</time>
      </trkpt>
      <trkpt lat="42.31285" lon="2.14591">
        <ele>1006.6</ele>
        <time>2022-05-22 01:41:00</time>
      </trkpt>
      <trkpt lat="42.31285" lon="2.14588">
        <ele>1006.8</ele>
        <time>2022-05-22 01:41:01</time>
      </trkpt>
      <trkpt lat="42.31284" lon="2.14585">
        <ele>1007</ele>
        <time>2022-05-22 01:41:02</time>
      </trkpt>
      <trkpt lat="42.31284" lon="2.14582">
        <ele>1007.2</ele>
        <time>2022-05-22 01:41:03</time>
      </trkpt>
      <trkpt lat="42.31283" lon="2.14578">
        <ele>1007.4</ele>
        <time>2022-05-22 01:41:04</time>
      </trkpt>
      <trkpt lat="42.31283" lon="2.14575">
        <ele>1007.6</ele>
        <time>2022-05-22 01:41:05</time>
      </trkpt>
      <trkpt lat="42.31283" lon="2.14572">
        <ele>1007.6</ele>
        <time>2022-05-22 01:41:06</time>
      </trkpt>
      <trkpt lat="42.31282" lon="2.14569">
        <ele>1007.8</ele>
        <time>2022-05-22 01:41:07</time>
      </trkpt>
      <trkpt lat="42.31282" lon="2.14565">
        <ele>1008</ele>
        <time>2022-05-22 01:41:08</time>
      </trkpt>
      <trkpt lat="42.31282" lon="2.14562">
        <ele>1008.2</ele>
        <time>2022-05-22 01:41:09</time>
      </trkpt>
      <trkpt lat="42.31282" lon="2.14558">
        <ele>1008.2</ele>
        <time>2022-05-22 01:41:10</time>
      </trkpt>
      <trkpt lat="42.31282" lon="2.14555">
        <ele>1008.4</ele>
        <time>2022-05-22 01:41:11</time>
      </trkpt>
      <trkpt lat="42.31282" lon="2.14551">
        <ele>1008.4</ele>
        <time>2022-05-22 01:41:12</time>
      </trkpt>
      <trkpt lat="42.3128" lon="2.14547">
        <ele>1008.6</ele>
        <time>2022-05-22 01:41:13</time>
      </trkpt>
      <trkpt lat="42.31279" lon="2.14544">
        <ele>1008.6</ele>
        <time>2022-05-22 01:41:14</time>
      </trkpt>
      <trkpt lat="42.31279" lon="2.14541">
        <ele>1008.8</ele>
        <time>2022-05-22 01:41:15</time>
      </trkpt>
      <trkpt lat="42.31278" lon="2.14537">
        <ele>1008.8</ele>
        <time>2022-05-22 01:41:16</time>
      </trkpt>
      <trkpt lat="42.31277" lon="2.14534">
        <ele>1009</ele>
        <time>2022-05-22 01:41:17</time>
      </trkpt>
      <trkpt lat="42.31277" lon="2.14531">
        <ele>1009</ele>
        <time>2022-05-22 01:41:18</time>
      </trkpt>
      <trkpt lat="42.31276" lon="2.14528">
        <ele>1009.2</ele>
        <time>2022-05-22 01:41:19</time>
      </trkpt>
      <trkpt lat="42.31275" lon="2.14525">
        <ele>1009.4</ele>
        <time>2022-05-22 01:41:20</time>
      </trkpt>
      <trkpt lat="42.31274" lon="2.14522">
        <ele>1009.4</ele>
        <time>2022-05-22 01:41:21</time>
      </trkpt>
      <trkpt lat="42.31273" lon="2.14519">
        <ele>1009.6</ele>
        <time>2022-05-22 01:41:22</time>
      </trkpt>
      <trkpt lat="42.31272" lon="2.14516">
        <ele>1009.8</ele>
        <time>2022-05-22 01:41:23</time>
      </trkpt>
      <trkpt lat="42.31271" lon="2.14513">
        <ele>1010</ele>
        <time>2022-05-22 01:41:24</time>
      </trkpt>
      <trkpt lat="42.3127" lon="2.1451">
        <ele>1010</ele>
        <time>2022-05-22 01:41:25</time>
      </trkpt>
      <trkpt lat="42.31269" lon="2.14507">
        <ele>1010.2</ele>
        <time>2022-05-22 01:41:26</time>
      </trkpt>
      <trkpt lat="42.31268" lon="2.14504">
        <ele>1010.4</ele>
        <time>2022-05-22 01:41:27</time>
      </trkpt>
      <trkpt lat="42.31268" lon="2.14501">
        <ele>1010.4</ele>
        <time>2022-05-22 01:41:28</time>
      </trkpt>
      <trkpt lat="42.31268" lon="2.14497">
        <ele>1010.6</ele>
        <time>2022-05-22 01:41:29</time>
      </trkpt>
      <trkpt lat="42.31267" lon="2.14494">
        <ele>1010.8</ele>
        <time>2022-05-22 01:41:30</time>
      </trkpt>
      <trkpt lat="42.31267" lon="2.14491">
        <ele>1011</ele>
        <time>2022-05-22 01:41:31</time>
      </trkpt>
      <trkpt lat="42.31267" lon="2.14487">
        <ele>1011</ele>
        <time>2022-05-22 01:41:32</time>
      </trkpt>
      <trkpt lat="42.31267" lon="2.14484">
        <ele>1011.2</ele>
        <time>2022-05-22 01:41:33</time>
      </trkpt>
      <trkpt lat="42.31267" lon="2.14481">
        <ele>1011.4</ele>
        <time>2022-05-22 01:41:34</time>
      </trkpt>
      <trkpt lat="42.31267" lon="2.14477">
        <ele>1011.4</ele>
        <time>2022-05-22 01:41:35</time>
      </trkpt>
      <trkpt lat="42.31267" lon="2.14474">
        <ele>1011.6</ele>
        <time>2022-05-22 01:41:36</time>
      </trkpt>
      <trkpt lat="42.31268" lon="2.14471">
        <ele>1011.8</ele>
        <time>2022-05-22 01:41:37</time>
      </trkpt>
      <trkpt lat="42.31268" lon="2.14468">
        <ele>1011.8</ele>
        <time>2022-05-22 01:41:38</time>
      </trkpt>
      <trkpt lat="42.31268" lon="2.14465">
        <ele>1012</ele>
        <time>2022-05-22 01:41:39</time>
      </trkpt>
      <trkpt lat="42.31269" lon="2.14461">
        <ele>1012.2</ele>
        <time>2022-05-22 01:41:40</time>
      </trkpt>
      <trkpt lat="42.31269" lon="2.14458">
        <ele>1012.4</ele>
        <time>2022-05-22 01:41:41</time>
      </trkpt>
      <trkpt lat="42.31269" lon="2.14455">
        <ele>1012.6</ele>
        <time>2022-05-22 01:41:42</time>
      </trkpt>
      <trkpt lat="42.31269" lon="2.14452">
        <ele>1012.6</ele>
        <time>2022-05-22 01:41:43</time>
      </trkpt>
      <trkpt lat="42.31269" lon="2.14449">
        <ele>1012.8</ele>
        <time>2022-05-22 01:41:44</time>
      </trkpt>
      <trkpt lat="42.31269" lon="2.14446">
        <ele>1013</ele>
        <time>2022-05-22 01:41:45</time>
      </trkpt>
      <trkpt lat="42.31269" lon="2.14443">
        <ele>1013</ele>
        <time>2022-05-22 01:41:46</time>
      </trkpt>
      <trkpt lat="42.31268" lon="2.1444">
        <ele>1013.2</ele>
        <time>2022-05-22 01:41:47</time>
      </trkpt>
      <trkpt lat="42.31268" lon="2.14437">
        <ele>1013.4</ele>
        <time>2022-05-22 01:41:48</time>
      </trkpt>
      <trkpt lat="42.31267" lon="2.14434">
        <ele>1013.6</ele>
        <time>2022-05-22 01:41:49</time>
      </trkpt>
      <trkpt lat="42.31267" lon="2.14431">
        <ele>1013.6</ele>
        <time>2022-05-22 01:41:50</time>
      </trkpt>
      <trkpt lat="42.31266" lon="2.14428">
        <ele>1013.8</ele>
        <time>2022-05-22 01:41:51</time>
      </trkpt>
      <trkpt lat="42.31266" lon="2.14425">
        <ele>1014</ele>
        <time>2022-05-22 01:41:52</time>
      </trkpt>
      <trkpt lat="42.31266" lon="2.14422">
        <ele>1014</ele>
        <time>2022-05-22 01:41:53</time>
      </trkpt>
      <trkpt lat="42.31266" lon="2.14419">
        <ele>1014.2</ele>
        <time>2022-05-22 01:41:54</time>
      </trkpt>
      <trkpt lat="42.31266" lon="2.14416">
        <ele>1014.4</ele>
        <time>2022-05-22 01:41:55</time>
      </trkpt>
      <trkpt lat="42.31266" lon="2.14413">
        <ele>1014.6</ele>
        <time>2022-05-22 01:41:56</time>
      </trkpt>
      <trkpt lat="42.31266" lon="2.1441">
        <ele>1014.6</ele>
        <time>2022-05-22 01:41:57</time>
      </trkpt>
      <trkpt lat="42.31266" lon="2.14407">
        <ele>1014.8</ele>
        <time>2022-05-22 01:41:58</time>
      </trkpt>
      <trkpt lat="42.31266" lon="2.14404">
        <ele>1015</ele>
        <time>2022-05-22 01:41:59</time>
      </trkpt>
      <trkpt lat="42.31265" lon="2.14401">
        <ele>1015</ele>
        <time>2022-05-22 01:42:00</time>
      </trkpt>
      <trkpt lat="42.31265" lon="2.14398">
        <ele>1015.2</ele>
        <time>2022-05-22 01:42:01</time>
      </trkpt>
      <trkpt lat="42.31265" lon="2.14395">
        <ele>1015.4</ele>
        <time>2022-05-22 01:42:02</time>
      </trkpt>
      <trkpt lat="42.31264" lon="2.14392">
        <ele>1015.6</ele>
        <time>2022-05-22 01:42:03</time>
      </trkpt>
      <trkpt lat="42.31264" lon="2.1439">
        <ele>1015.6</ele>
        <time>2022-05-22 01:42:04</time>
      </trkpt>
      <trkpt lat="42.31264" lon="2.14387">
        <ele>1015.8</ele>
        <time>2022-05-22 01:42:05</time>
      </trkpt>
      <trkpt lat="42.31264" lon="2.14384">
        <ele>1016</ele>
        <time>2022-05-22 01:42:06</time>
      </trkpt>
      <trkpt lat="42.31263" lon="2.14381">
        <ele>1016</ele>
        <time>2022-05-22 01:42:07</time>
      </trkpt>
      <trkpt lat="42.31263" lon="2.14378">
        <ele>1016.2</ele>
        <time>2022-05-22 01:42:08</time>
      </trkpt>
      <trkpt lat="42.31262" lon="2.14375">
        <ele>1016.4</ele>
        <time>2022-05-22 01:42:09</time>
      </trkpt>
      <trkpt lat="42.31261" lon="2.14372">
        <ele>1016.4</ele>
        <time>2022-05-22 01:42:10</time>
      </trkpt>
      <trkpt lat="42.3126" lon="2.14369">
        <ele>1016.6</ele>
        <time>2022-05-22 01:42:11</time>
      </trkpt>
      <trkpt lat="42.31258" lon="2.14366">
        <ele>1016.8</ele>
        <time>2022-05-22 01:42:12</time>
      </trkpt>
      <trkpt lat="42.31256" lon="2.14364">
        <ele>1017</ele>
        <time>2022-05-22 01:42:13</time>
      </trkpt>
      <trkpt lat="42.31255" lon="2.14361">
        <ele>1017</ele>
        <time>2022-05-22 01:42:14</time>
      </trkpt>
      <trkpt lat="42.31254" lon="2.14358">
        <ele>1017.2</ele>
        <time>2022-05-22 01:42:15</time>
      </trkpt>
      <trkpt lat="42.31253" lon="2.14356">
        <ele>1017.4</ele>
        <time>2022-05-22 01:42:16</time>
      </trkpt>
      <trkpt lat="42.31252" lon="2.14353">
        <ele>1017.6</ele>
        <time>2022-05-22 01:42:17</time>
      </trkpt>
      <trkpt lat="42.31251" lon="2.1435">
        <ele>1017.6</ele>
        <time>2022-05-22 01:42:18</time>
      </trkpt>
      <trkpt lat="42.3125" lon="2.14348">
        <ele>1017.8</ele>
        <time>2022-05-22 01:42:19</time>
      </trkpt>
      <trkpt lat="42.31248" lon="2.14345">
        <ele>1018</ele>
        <time>2022-05-22 01:42:20</time>
      </trkpt>
      <trkpt lat="42.31247" lon="2.14342">
        <ele>1018</ele>
        <time>2022-05-22 01:42:21</time>
      </trkpt>
      <trkpt lat="42.31246" lon="2.1434">
        <ele>1018.2</ele>
        <time>2022-05-22 01:42:22</time>
      </trkpt>
      <trkpt lat="42.31245" lon="2.14337">
        <ele>1018.2</ele>
        <time>2022-05-22 01:42:23</time>
      </trkpt>
      <trkpt lat="42.31244" lon="2.14334">
        <ele>1018.4</ele>
        <time>2022-05-22 01:42:24</time>
      </trkpt>
      <trkpt lat="42.31244" lon="2.14331">
        <ele>1018.4</ele>
        <time>2022-05-22 01:42:25</time>
      </trkpt>
      <trkpt lat="42.31244" lon="2.14328">
        <ele>1018.6</ele>
        <time>2022-05-22 01:42:26</time>
      </trkpt>
      <trkpt lat="42.31244" lon="2.14324">
        <ele>1018.6</ele>
        <time>2022-05-22 01:42:27</time>
      </trkpt>
      <trkpt lat="42.31244" lon="2.14321">
        <ele>1018.8</ele>
        <time>2022-05-22 01:42:28</time>
      </trkpt>
      <trkpt lat="42.31244" lon="2.14318">
        <ele>1018.8</ele>
        <time>2022-05-22 01:42:29</time>
      </trkpt>
      <trkpt lat="42.31244" lon="2.14315">
        <ele>1019</ele>
        <time>2022-05-22 01:42:30</time>
      </trkpt>
      <trkpt lat="42.31244" lon="2.14312">
        <ele>1019</ele>
        <time>2022-05-22 01:42:31</time>
      </trkpt>
      <trkpt lat="42.31244" lon="2.14309">
        <ele>1019.2</ele>
        <time>2022-05-22 01:42:32</time>
      </trkpt>
      <trkpt lat="42.31243" lon="2.14305">
        <ele>1019.2</ele>
        <time>2022-05-22 01:42:33</time>
      </trkpt>
      <trkpt lat="42.31242" lon="2.14302">
        <ele>1019.2</ele>
        <time>2022-05-22 01:42:34</time>
      </trkpt>
      <trkpt lat="42.31241" lon="2.14298">
        <ele>1019.4</ele>
        <time>2022-05-22 01:42:35</time>
      </trkpt>
      <trkpt lat="42.3124" lon="2.14294">
        <ele>1019.4</ele>
        <time>2022-05-22 01:42:36</time>
      </trkpt>
      <trkpt lat="42.3124" lon="2.1429">
        <ele>1019.4</ele>
        <time>2022-05-22 01:42:37</time>
      </trkpt>
      <trkpt lat="42.31239" lon="2.14286">
        <ele>1019.4</ele>
        <time>2022-05-22 01:42:38</time>
      </trkpt>
      <trkpt lat="42.31238" lon="2.14282">
        <ele>1019.4</ele>
        <time>2022-05-22 01:42:39</time>
      </trkpt>
      <trkpt lat="42.31236" lon="2.14279">
        <ele>1019.6</ele>
        <time>2022-05-22 01:42:40</time>
      </trkpt>
      <trkpt lat="42.31235" lon="2.14276">
        <ele>1019.6</ele>
        <time>2022-05-22 01:42:41</time>
      </trkpt>
      <trkpt lat="42.31233" lon="2.14273">
        <ele>1019.8</ele>
        <time>2022-05-22 01:42:42</time>
      </trkpt>
      <trkpt lat="42.31232" lon="2.1427">
        <ele>1019.8</ele>
        <time>2022-05-22 01:42:43</time>
      </trkpt>
      <trkpt lat="42.3123" lon="2.14268">
        <ele>1019.8</ele>
        <time>2022-05-22 01:42:44</time>
      </trkpt>
      <trkpt lat="42.31228" lon="2.14265">
        <ele>1020</ele>
        <time>2022-05-22 01:42:45</time>
      </trkpt>
      <trkpt lat="42.31226" lon="2.14263">
        <ele>1020</ele>
        <time>2022-05-22 01:42:46</time>
      </trkpt>
      <trkpt lat="42.31224" lon="2.14261">
        <ele>1020</ele>
        <time>2022-05-22 01:42:47</time>
      </trkpt>
      <trkpt lat="42.31222" lon="2.14259">
        <ele>1020</ele>
        <time>2022-05-22 01:42:48</time>
      </trkpt>
      <trkpt lat="42.31219" lon="2.14257">
        <ele>1020.2</ele>
        <time>2022-05-22 01:42:49</time>
      </trkpt>
      <trkpt lat="42.31217" lon="2.14254">
        <ele>1020.2</ele>
        <time>2022-05-22 01:42:50</time>
      </trkpt>
      <trkpt lat="42.31215" lon="2.14252">
        <ele>1020.2</ele>
        <time>2022-05-22 01:42:51</time>
      </trkpt>
      <trkpt lat="42.31212" lon="2.1425">
        <ele>1020.4</ele>
        <time>2022-05-22 01:42:52</time>
      </trkpt>
      <trkpt lat="42.3121" lon="2.14249">
        <ele>1020.4</ele>
        <time>2022-05-22 01:42:53</time>
      </trkpt>
      <trkpt lat="42.31207" lon="2.14247">
        <ele>1020.4</ele>
        <time>2022-05-22 01:42:54</time>
      </trkpt>
      <trkpt lat="42.31205" lon="2.14245">
        <ele>1020.6</ele>
        <time>2022-05-22 01:42:55</time>
      </trkpt>
      <trkpt lat="42.31203" lon="2.14243">
        <ele>1020.6</ele>
        <time>2022-05-22 01:42:56</time>
      </trkpt>
      <trkpt lat="42.312" lon="2.14241">
        <ele>1020.8</ele>
        <time>2022-05-22 01:42:57</time>
      </trkpt>
      <trkpt lat="42.31197" lon="2.14238">
        <ele>1020.8</ele>
        <time>2022-05-22 01:42:58</time>
      </trkpt>
      <trkpt lat="42.31194" lon="2.14236">
        <ele>1020.8</ele>
        <time>2022-05-22 01:42:59</time>
      </trkpt>
      <trkpt lat="42.31192" lon="2.14233">
        <ele>1021</ele>
        <time>2022-05-22 01:43:00</time>
      </trkpt>
      <trkpt lat="42.31189" lon="2.1423">
        <ele>1021</ele>
        <time>2022-05-22 01:43:01</time>
      </trkpt>
      <trkpt lat="42.31187" lon="2.14227">
        <ele>1021</ele>
        <time>2022-05-22 01:43:02</time>
      </trkpt>
      <trkpt lat="42.31185" lon="2.14223">
        <ele>1021.2</ele>
        <time>2022-05-22 01:43:03</time>
      </trkpt>
      <trkpt lat="42.31183" lon="2.14219">
        <ele>1021.2</ele>
        <time>2022-05-22 01:43:04</time>
      </trkpt>
      <trkpt lat="42.31182" lon="2.14215">
        <ele>1021.2</ele>
        <time>2022-05-22 01:43:05</time>
      </trkpt>
      <trkpt lat="42.3118" lon="2.14212">
        <ele>1021.2</ele>
        <time>2022-05-22 01:43:06</time>
      </trkpt>
      <trkpt lat="42.31178" lon="2.14208">
        <ele>1021.4</ele>
        <time>2022-05-22 01:43:07</time>
      </trkpt>
      <trkpt lat="42.31177" lon="2.14204">
        <ele>1021.4</ele>
        <time>2022-05-22 01:43:08</time>
      </trkpt>
      <trkpt lat="42.31176" lon="2.142">
        <ele>1021.4</ele>
        <time>2022-05-22 01:43:09</time>
      </trkpt>
      <trkpt lat="42.31174" lon="2.14196">
        <ele>1021.4</ele>
        <time>2022-05-22 01:43:10</time>
      </trkpt>
      <trkpt lat="42.31173" lon="2.14191">
        <ele>1021.6</ele>
        <time>2022-05-22 01:43:11</time>
      </trkpt>
      <trkpt lat="42.31171" lon="2.14187">
        <ele>1021.6</ele>
        <time>2022-05-22 01:43:12</time>
      </trkpt>
      <trkpt lat="42.3117" lon="2.14183">
        <ele>1021.6</ele>
        <time>2022-05-22 01:43:13</time>
      </trkpt>
      <trkpt lat="42.31169" lon="2.14179">
        <ele>1021.6</ele>
        <time>2022-05-22 01:43:14</time>
      </trkpt>
      <trkpt lat="42.31168" lon="2.14174">
        <ele>1021.6</ele>
        <time>2022-05-22 01:43:15</time>
      </trkpt>
      <trkpt lat="42.31166" lon="2.1417">
        <ele>1021.8</ele>
        <time>2022-05-22 01:43:16</time>
      </trkpt>
      <trkpt lat="42.31165" lon="2.14166">
        <ele>1021.8</ele>
        <time>2022-05-22 01:43:17</time>
      </trkpt>
      <trkpt lat="42.31164" lon="2.14162">
        <ele>1021.8</ele>
        <time>2022-05-22 01:43:18</time>
      </trkpt>
      <trkpt lat="42.31163" lon="2.14158">
        <ele>1021.8</ele>
        <time>2022-05-22 01:43:19</time>
      </trkpt>
      <trkpt lat="42.31162" lon="2.14154">
        <ele>1022</ele>
        <time>2022-05-22 01:43:20</time>
      </trkpt>
      <trkpt lat="42.31161" lon="2.1415">
        <ele>1022</ele>
        <time>2022-05-22 01:43:21</time>
      </trkpt>
      <trkpt lat="42.31161" lon="2.14145">
        <ele>1022</ele>
        <time>2022-05-22 01:43:22</time>
      </trkpt>
      <trkpt lat="42.3116" lon="2.14141">
        <ele>1022</ele>
        <time>2022-05-22 01:43:23</time>
      </trkpt>
      <trkpt lat="42.31159" lon="2.14137">
        <ele>1022.2</ele>
        <time>2022-05-22 01:43:24</time>
      </trkpt>
      <trkpt lat="42.31158" lon="2.14133">
        <ele>1022.2</ele>
        <time>2022-05-22 01:43:25</time>
      </trkpt>
      <trkpt lat="42.31158" lon="2.14129">
        <ele>1022.2</ele>
        <time>2022-05-22 01:43:26</time>
      </trkpt>
      <trkpt lat="42.31157" lon="2.14126">
        <ele>1022.4</ele>
        <time>2022-05-22 01:43:27</time>
      </trkpt>
      <trkpt lat="42.31156" lon="2.14122">
        <ele>1022.4</ele>
        <time>2022-05-22 01:43:28</time>
      </trkpt>
      <trkpt lat="42.31155" lon="2.14118">
        <ele>1022.4</ele>
        <time>2022-05-22 01:43:29</time>
      </trkpt>
      <trkpt lat="42.31155" lon="2.14114">
        <ele>1022.6</ele>
        <time>2022-05-22 01:43:30</time>
      </trkpt>
      <trkpt lat="42.31154" lon="2.1411">
        <ele>1022.6</ele>
        <time>2022-05-22 01:43:31</time>
      </trkpt>
      <trkpt lat="42.31154" lon="2.14106">
        <ele>1022.6</ele>
        <time>2022-05-22 01:43:32</time>
      </trkpt>
      <trkpt lat="42.31153" lon="2.14102">
        <ele>1022.8</ele>
        <time>2022-05-22 01:43:33</time>
      </trkpt>
      <trkpt lat="42.31153" lon="2.14098">
        <ele>1022.8</ele>
        <time>2022-05-22 01:43:34</time>
      </trkpt>
      <trkpt lat="42.31152" lon="2.14094">
        <ele>1022.8</ele>
        <time>2022-05-22 01:43:35</time>
      </trkpt>
      <trkpt lat="42.31152" lon="2.14089">
        <ele>1023</ele>
        <time>2022-05-22 01:43:36</time>
      </trkpt>
      <trkpt lat="42.31152" lon="2.14085">
        <ele>1023</ele>
        <time>2022-05-22 01:43:37</time>
      </trkpt>
      <trkpt lat="42.31151" lon="2.14081">
        <ele>1023</ele>
        <time>2022-05-22 01:43:38</time>
      </trkpt>
      <trkpt lat="42.3115" lon="2.14077">
        <ele>1023</ele>
        <time>2022-05-22 01:43:39</time>
      </trkpt>
      <trkpt lat="42.31149" lon="2.14074">
        <ele>1023.2</ele>
        <time>2022-05-22 01:43:40</time>
      </trkpt>
      <trkpt lat="42.31148" lon="2.1407">
        <ele>1023.2</ele>
        <time>2022-05-22 01:43:41</time>
      </trkpt>
      <trkpt lat="42.31148" lon="2.14067">
        <ele>1023.4</ele>
        <time>2022-05-22 01:43:42</time>
      </trkpt>
      <trkpt lat="42.31147" lon="2.14063">
        <ele>1023.4</ele>
        <time>2022-05-22 01:43:43</time>
      </trkpt>
      <trkpt lat="42.31147" lon="2.14059">
        <ele>1023.4</ele>
        <time>2022-05-22 01:43:44</time>
      </trkpt>
      <trkpt lat="42.31146" lon="2.14055">
        <ele>1023.6</ele>
        <time>2022-05-22 01:43:45</time>
      </trkpt>
      <trkpt lat="42.31146" lon="2.14051">
        <ele>1023.6</ele>
        <time>2022-05-22 01:43:46</time>
      </trkpt>
      <trkpt lat="42.31145" lon="2.14047">
        <ele>1023.6</ele>
        <time>2022-05-22 01:43:47</time>
      </trkpt>
      <trkpt lat="42.31144" lon="2.14043">
        <ele>1023.8</ele>
        <time>2022-05-22 01:43:48</time>
      </trkpt>
      <trkpt lat="42.31143" lon="2.14039">
        <ele>1023.8</ele>
        <time>2022-05-22 01:43:49</time>
      </trkpt>
      <trkpt lat="42.31143" lon="2.14035">
        <ele>1023.8</ele>
        <time>2022-05-22 01:43:50</time>
      </trkpt>
      <trkpt lat="42.31142" lon="2.14031">
        <ele>1024</ele>
        <time>2022-05-22 01:43:51</time>
      </trkpt>
      <trkpt lat="42.31142" lon="2.14027">
        <ele>1024</ele>
        <time>2022-05-22 01:43:52</time>
      </trkpt>
      <trkpt lat="42.31142" lon="2.14023">
        <ele>1024</ele>
        <time>2022-05-22 01:43:53</time>
      </trkpt>
      <trkpt lat="42.31142" lon="2.14018">
        <ele>1024.2</ele>
        <time>2022-05-22 01:43:54</time>
      </trkpt>
      <trkpt lat="42.31142" lon="2.14014">
        <ele>1024.2</ele>
        <time>2022-05-22 01:43:55</time>
      </trkpt>
      <trkpt lat="42.31142" lon="2.1401">
        <ele>1024.4</ele>
        <time>2022-05-22 01:43:56</time>
      </trkpt>
      <trkpt lat="42.31142" lon="2.14006">
        <ele>1024.4</ele>
        <time>2022-05-22 01:43:57</time>
      </trkpt>
      <trkpt lat="42.31142" lon="2.14001">
        <ele>1024.6</ele>
        <time>2022-05-22 01:43:58</time>
      </trkpt>
      <trkpt lat="42.31143" lon="2.13997">
        <ele>1024.8</ele>
        <time>2022-05-22 01:43:59</time>
      </trkpt>
      <trkpt lat="42.31144" lon="2.13993">
        <ele>1024.8</ele>
        <time>2022-05-22 01:44:00</time>
      </trkpt>
      <trkpt lat="42.31145" lon="2.13989">
        <ele>1025</ele>
        <time>2022-05-22 01:44:01</time>
      </trkpt>
      <trkpt lat="42.31146" lon="2.13986">
        <ele>1025.2</ele>
        <time>2022-05-22 01:44:02</time>
      </trkpt>
      <trkpt lat="42.31148" lon="2.13982">
        <ele>1025.2</ele>
        <time>2022-05-22 01:44:03</time>
      </trkpt>
      <trkpt lat="42.3115" lon="2.13979">
        <ele>1025.4</ele>
        <time>2022-05-22 01:44:04</time>
      </trkpt>
      <trkpt lat="42.31152" lon="2.13976">
        <ele>1025.6</ele>
        <time>2022-05-22 01:44:05</time>
      </trkpt>
      <trkpt lat="42.31154" lon="2.13973">
        <ele>1025.8</ele>
        <time>2022-05-22 01:44:06</time>
      </trkpt>
      <trkpt lat="42.31156" lon="2.13971">
        <ele>1026</ele>
        <time>2022-05-22 01:44:07</time>
      </trkpt>
      <trkpt lat="42.31158" lon="2.13968">
        <ele>1026.2</ele>
        <time>2022-05-22 01:44:08</time>
      </trkpt>
      <trkpt lat="42.3116" lon="2.13966">
        <ele>1026.4</ele>
        <time>2022-05-22 01:44:09</time>
      </trkpt>
      <trkpt lat="42.31162" lon="2.13964">
        <ele>1026.6</ele>
        <time>2022-05-22 01:44:10</time>
      </trkpt>
      <trkpt lat="42.31164" lon="2.13961">
        <ele>1026.8</ele>
        <time>2022-05-22 01:44:11</time>
      </trkpt>
      <trkpt lat="42.31166" lon="2.13959">
        <ele>1026.8</ele>
        <time>2022-05-22 01:44:12</time>
      </trkpt>
      <trkpt lat="42.31167" lon="2.13956">
        <ele>1027</ele>
        <time>2022-05-22 01:44:13</time>
      </trkpt>
      <trkpt lat="42.31168" lon="2.13952">
        <ele>1027</ele>
        <time>2022-05-22 01:44:14</time>
      </trkpt>
      <trkpt lat="42.31169" lon="2.13949">
        <ele>1027.2</ele>
        <time>2022-05-22 01:44:15</time>
      </trkpt>
      <trkpt lat="42.3117" lon="2.13946">
        <ele>1027.4</ele>
        <time>2022-05-22 01:44:16</time>
      </trkpt>
      <trkpt lat="42.31171" lon="2.13943">
        <ele>1027.4</ele>
        <time>2022-05-22 01:44:17</time>
      </trkpt>
      <trkpt lat="42.31171" lon="2.1394">
        <ele>1027.6</ele>
        <time>2022-05-22 01:44:18</time>
      </trkpt>
      <trkpt lat="42.31171" lon="2.13937">
        <ele>1027.6</ele>
        <time>2022-05-22 01:44:19</time>
      </trkpt>
      <trkpt lat="42.3117" lon="2.13934">
        <ele>1027.8</ele>
        <time>2022-05-22 01:44:20</time>
      </trkpt>
      <trkpt lat="42.3117" lon="2.13931">
        <ele>1027.8</ele>
        <time>2022-05-22 01:44:21</time>
      </trkpt>
      <trkpt lat="42.31169" lon="2.13928">
        <ele>1028</ele>
        <time>2022-05-22 01:44:22</time>
      </trkpt>
      <trkpt lat="42.31167" lon="2.13925">
        <ele>1028</ele>
        <time>2022-05-22 01:44:23</time>
      </trkpt>
      <trkpt lat="42.31166" lon="2.13922">
        <ele>1028</ele>
        <time>2022-05-22 01:44:24</time>
      </trkpt>
      <trkpt lat="42.31165" lon="2.13919">
        <ele>1028.2</ele>
        <time>2022-05-22 01:44:25</time>
      </trkpt>
      <trkpt lat="42.31163" lon="2.13916">
        <ele>1028.2</ele>
        <time>2022-05-22 01:44:26</time>
      </trkpt>
      <trkpt lat="42.31162" lon="2.13913">
        <ele>1028.4</ele>
        <time>2022-05-22 01:44:27</time>
      </trkpt>
      <trkpt lat="42.31161" lon="2.1391">
        <ele>1028.4</ele>
        <time>2022-05-22 01:44:28</time>
      </trkpt>
      <trkpt lat="42.31161" lon="2.13906">
        <ele>1028.4</ele>
        <time>2022-05-22 01:44:29</time>
      </trkpt>
      <trkpt lat="42.3116" lon="2.13902">
        <ele>1028.6</ele>
        <time>2022-05-22 01:44:30</time>
      </trkpt>
      <trkpt lat="42.3116" lon="2.13898">
        <ele>1028.6</ele>
        <time>2022-05-22 01:44:31</time>
      </trkpt>
      <trkpt lat="42.31159" lon="2.13895">
        <ele>1028.8</ele>
        <time>2022-05-22 01:44:32</time>
      </trkpt>
      <trkpt lat="42.31159" lon="2.13891">
        <ele>1028.8</ele>
        <time>2022-05-22 01:44:33</time>
      </trkpt>
      <trkpt lat="42.31159" lon="2.13887">
        <ele>1029</ele>
        <time>2022-05-22 01:44:34</time>
      </trkpt>
      <trkpt lat="42.31158" lon="2.13883">
        <ele>1029</ele>
        <time>2022-05-22 01:44:35</time>
      </trkpt>
      <trkpt lat="42.31158" lon="2.1388">
        <ele>1029.2</ele>
        <time>2022-05-22 01:44:36</time>
      </trkpt>
      <trkpt lat="42.31158" lon="2.13876">
        <ele>1029.2</ele>
        <time>2022-05-22 01:44:37</time>
      </trkpt>
      <trkpt lat="42.31158" lon="2.13872">
        <ele>1029.4</ele>
        <time>2022-05-22 01:44:38</time>
      </trkpt>
      <trkpt lat="42.31158" lon="2.13869">
        <ele>1029.4</ele>
        <time>2022-05-22 01:44:39</time>
      </trkpt>
      <trkpt lat="42.31158" lon="2.13865">
        <ele>1029.6</ele>
        <time>2022-05-22 01:44:40</time>
      </trkpt>
      <trkpt lat="42.31158" lon="2.13862">
        <ele>1029.6</ele>
        <time>2022-05-22 01:44:41</time>
      </trkpt>
      <trkpt lat="42.31158" lon="2.13859">
        <ele>1029.8</ele>
        <time>2022-05-22 01:44:42</time>
      </trkpt>
      <trkpt lat="42.31158" lon="2.13856">
        <ele>1029.8</ele>
        <time>2022-05-22 01:44:43</time>
      </trkpt>
      <trkpt lat="42.31157" lon="2.13853">
        <ele>1030</ele>
        <time>2022-05-22 01:44:44</time>
      </trkpt>
      <trkpt lat="42.31157" lon="2.1385">
        <ele>1030</ele>
        <time>2022-05-22 01:44:45</time>
      </trkpt>
      <trkpt lat="42.31157" lon="2.13847">
        <ele>1030.2</ele>
        <time>2022-05-22 01:44:46</time>
      </trkpt>
      <trkpt lat="42.31157" lon="2.13844">
        <ele>1030.2</ele>
        <time>2022-05-22 01:44:47</time>
      </trkpt>
      <trkpt lat="42.31157" lon="2.13841">
        <ele>1030.4</ele>
        <time>2022-05-22 01:44:48</time>
      </trkpt>
      <trkpt lat="42.31157" lon="2.13839">
        <ele>1030.4</ele>
        <time>2022-05-22 01:44:49</time>
      </trkpt>
      <trkpt lat="42.31156" lon="2.13835">
        <ele>1030.6</ele>
        <time>2022-05-22 01:44:50</time>
      </trkpt>
      <trkpt lat="42.31156" lon="2.13832">
        <ele>1030.6</ele>
        <time>2022-05-22 01:44:51</time>
      </trkpt>
      <trkpt lat="42.31156" lon="2.13828">
        <ele>1030.8</ele>
        <time>2022-05-22 01:44:52</time>
      </trkpt>
      <trkpt lat="42.31156" lon="2.13825">
        <ele>1030.8</ele>
        <time>2022-05-22 01:44:53</time>
      </trkpt>
      <trkpt lat="42.31155" lon="2.13822">
        <ele>1031</ele>
        <time>2022-05-22 01:44:54</time>
      </trkpt>
      <trkpt lat="42.31155" lon="2.13819">
        <ele>1031</ele>
        <time>2022-05-22 01:44:55</time>
      </trkpt>
      <trkpt lat="42.31155" lon="2.13816">
        <ele>1031.2</ele>
        <time>2022-05-22 01:44:56</time>
      </trkpt>
      <trkpt lat="42.31155" lon="2.13813">
        <ele>1031.4</ele>
        <time>2022-05-22 01:44:57</time>
      </trkpt>
      <trkpt lat="42.31155" lon="2.13811">
        <ele>1031.4</ele>
        <time>2022-05-22 01:44:58</time>
      </trkpt>
      <trkpt lat="42.31155" lon="2.13808">
        <ele>1031.4</ele>
        <time>2022-05-22 01:44:59</time>
      </trkpt>
      <trkpt lat="42.31155" lon="2.13805">
        <ele>1031.6</ele>
        <time>2022-05-22 01:45:00</time>
      </trkpt>
      <trkpt lat="42.31155" lon="2.13802">
        <ele>1031.6</ele>
        <time>2022-05-22 01:45:01</time>
      </trkpt>
      <trkpt lat="42.31155" lon="2.13799">
        <ele>1031.8</ele>
        <time>2022-05-22 01:45:02</time>
      </trkpt>
      <trkpt lat="42.31155" lon="2.13796">
        <ele>1031.8</ele>
        <time>2022-05-22 01:45:03</time>
      </trkpt>
      <trkpt lat="42.31155" lon="2.13793">
        <ele>1032</ele>
        <time>2022-05-22 01:45:04</time>
      </trkpt>
      <trkpt lat="42.31155" lon="2.1379">
        <ele>1032</ele>
        <time>2022-05-22 01:45:05</time>
      </trkpt>
      <trkpt lat="42.31156" lon="2.13786">
        <ele>1032.2</ele>
        <time>2022-05-22 01:45:06</time>
      </trkpt>
      <trkpt lat="42.31156" lon="2.13783">
        <ele>1032.2</ele>
        <time>2022-05-22 01:45:07</time>
      </trkpt>
      <trkpt lat="42.31156" lon="2.1378">
        <ele>1032.4</ele>
        <time>2022-05-22 01:45:08</time>
      </trkpt>
      <trkpt lat="42.31156" lon="2.13777">
        <ele>1032.4</ele>
        <time>2022-05-22 01:45:09</time>
      </trkpt>
      <trkpt lat="42.31156" lon="2.13774">
        <ele>1032.6</ele>
        <time>2022-05-22 01:45:10</time>
      </trkpt>
      <trkpt lat="42.31156" lon="2.13771">
        <ele>1032.6</ele>
        <time>2022-05-22 01:45:11</time>
      </trkpt>
      <trkpt lat="42.31155" lon="2.13768">
        <ele>1032.8</ele>
        <time>2022-05-22 01:45:12</time>
      </trkpt>
      <trkpt lat="42.31155" lon="2.13765">
        <ele>1032.8</ele>
        <time>2022-05-22 01:45:13</time>
      </trkpt>
      <trkpt lat="42.31155" lon="2.13763">
        <ele>1033</ele>
        <time>2022-05-22 01:45:14</time>
      </trkpt>
      <trkpt lat="42.31154" lon="2.1376">
        <ele>1033.2</ele>
        <time>2022-05-22 01:45:15</time>
      </trkpt>
      <trkpt lat="42.31154" lon="2.13757">
        <ele>1033.2</ele>
        <time>2022-05-22 01:45:16</time>
      </trkpt>
      <trkpt lat="42.31154" lon="2.13754">
        <ele>1033.4</ele>
        <time>2022-05-22 01:45:17</time>
      </trkpt>
      <trkpt lat="42.31153" lon="2.13751">
        <ele>1033.4</ele>
        <time>2022-05-22 01:45:18</time>
      </trkpt>
      <trkpt lat="42.31153" lon="2.13748">
        <ele>1033.4</ele>
        <time>2022-05-22 01:45:19</time>
      </trkpt>
      <trkpt lat="42.31153" lon="2.13745">
        <ele>1033.6</ele>
        <time>2022-05-22 01:45:20</time>
      </trkpt>
      <trkpt lat="42.31153" lon="2.13742">
        <ele>1033.6</ele>
        <time>2022-05-22 01:45:21</time>
      </trkpt>
      <trkpt lat="42.31153" lon="2.13738">
        <ele>1033.8</ele>
        <time>2022-05-22 01:45:22</time>
      </trkpt>
      <trkpt lat="42.31153" lon="2.13735">
        <ele>1033.8</ele>
        <time>2022-05-22 01:45:23</time>
      </trkpt>
      <trkpt lat="42.31153" lon="2.13732">
        <ele>1034</ele>
        <time>2022-05-22 01:45:24</time>
      </trkpt>
      <trkpt lat="42.31153" lon="2.13729">
        <ele>1034.2</ele>
        <time>2022-05-22 01:45:25</time>
      </trkpt>
      <trkpt lat="42.31153" lon="2.13725">
        <ele>1034.2</ele>
        <time>2022-05-22 01:45:26</time>
      </trkpt>
      <trkpt lat="42.31153" lon="2.13722">
        <ele>1034.4</ele>
        <time>2022-05-22 01:45:27</time>
      </trkpt>
      <trkpt lat="42.31152" lon="2.13719">
        <ele>1034.4</ele>
        <time>2022-05-22 01:45:28</time>
      </trkpt>
      <trkpt lat="42.31152" lon="2.13716">
        <ele>1034.6</ele>
        <time>2022-05-22 01:45:29</time>
      </trkpt>
      <trkpt lat="42.31151" lon="2.13713">
        <ele>1034.6</ele>
        <time>2022-05-22 01:45:30</time>
      </trkpt>
      <trkpt lat="42.31151" lon="2.1371">
        <ele>1034.6</ele>
        <time>2022-05-22 01:45:31</time>
      </trkpt>
      <trkpt lat="42.3115" lon="2.13706">
        <ele>1034.8</ele>
        <time>2022-05-22 01:45:32</time>
      </trkpt>
      <trkpt lat="42.3115" lon="2.13702">
        <ele>1034.8</ele>
        <time>2022-05-22 01:45:33</time>
      </trkpt>
      <trkpt lat="42.3115" lon="2.13699">
        <ele>1035</ele>
        <time>2022-05-22 01:45:34</time>
      </trkpt>
      <trkpt lat="42.3115" lon="2.13696">
        <ele>1035</ele>
        <time>2022-05-22 01:45:35</time>
      </trkpt>
      <trkpt lat="42.31149" lon="2.13692">
        <ele>1035.2</ele>
        <time>2022-05-22 01:45:36</time>
      </trkpt>
      <trkpt lat="42.31149" lon="2.13688">
        <ele>1035.2</ele>
        <time>2022-05-22 01:45:37</time>
      </trkpt>
      <trkpt lat="42.31149" lon="2.13685">
        <ele>1035.4</ele>
        <time>2022-05-22 01:45:38</time>
      </trkpt>
      <trkpt lat="42.31148" lon="2.13682">
        <ele>1035.4</ele>
        <time>2022-05-22 01:45:39</time>
      </trkpt>
      <trkpt lat="42.31148" lon="2.13678">
        <ele>1035.6</ele>
        <time>2022-05-22 01:45:40</time>
      </trkpt>
      <trkpt lat="42.31148" lon="2.13675">
        <ele>1035.6</ele>
        <time>2022-05-22 01:45:41</time>
      </trkpt>
      <trkpt lat="42.31147" lon="2.13672">
        <ele>1035.8</ele>
        <time>2022-05-22 01:45:42</time>
      </trkpt>
      <trkpt lat="42.31147" lon="2.13669">
        <ele>1035.8</ele>
        <time>2022-05-22 01:45:43</time>
      </trkpt>
      <trkpt lat="42.31147" lon="2.13665">
        <ele>1036</ele>
        <time>2022-05-22 01:45:44</time>
      </trkpt>
      <trkpt lat="42.31147" lon="2.13662">
        <ele>1036</ele>
        <time>2022-05-22 01:45:45</time>
      </trkpt>
      <trkpt lat="42.31146" lon="2.1366">
        <ele>1036.2</ele>
        <time>2022-05-22 01:45:46</time>
      </trkpt>
      <trkpt lat="42.31146" lon="2.13657">
        <ele>1036.2</ele>
        <time>2022-05-22 01:45:47</time>
      </trkpt>
      <trkpt lat="42.31146" lon="2.13654">
        <ele>1036.4</ele>
        <time>2022-05-22 01:45:48</time>
      </trkpt>
      <trkpt lat="42.31145" lon="2.13651">
        <ele>1036.4</ele>
        <time>2022-05-22 01:45:49</time>
      </trkpt>
      <trkpt lat="42.31145" lon="2.13648">
        <ele>1036.6</ele>
        <time>2022-05-22 01:45:50</time>
      </trkpt>
      <trkpt lat="42.31145" lon="2.13645">
        <ele>1036.6</ele>
        <time>2022-05-22 01:45:51</time>
      </trkpt>
      <trkpt lat="42.31145" lon="2.13642">
        <ele>1036.8</ele>
        <time>2022-05-22 01:45:52</time>
      </trkpt>
      <trkpt lat="42.31145" lon="2.13638">
        <ele>1036.8</ele>
        <time>2022-05-22 01:45:53</time>
      </trkpt>
      <trkpt lat="42.31145" lon="2.13635">
        <ele>1037</ele>
        <time>2022-05-22 01:45:54</time>
      </trkpt>
      <trkpt lat="42.31145" lon="2.13632">
        <ele>1037</ele>
        <time>2022-05-22 01:45:55</time>
      </trkpt>
      <trkpt lat="42.31145" lon="2.13629">
        <ele>1037</ele>
        <time>2022-05-22 01:45:56</time>
      </trkpt>
      <trkpt lat="42.31145" lon="2.13626">
        <ele>1037.2</ele>
        <time>2022-05-22 01:45:57</time>
      </trkpt>
      <trkpt lat="42.31144" lon="2.13622">
        <ele>1037.2</ele>
        <time>2022-05-22 01:45:58</time>
      </trkpt>
      <trkpt lat="42.31144" lon="2.13619">
        <ele>1037.4</ele>
        <time>2022-05-22 01:45:59</time>
      </trkpt>
      <trkpt lat="42.31145" lon="2.13616">
        <ele>1037.4</ele>
        <time>2022-05-22 01:46:00</time>
      </trkpt>
      <trkpt lat="42.31146" lon="2.13614">
        <ele>1037.6</ele>
        <time>2022-05-22 01:46:01</time>
      </trkpt>
      <trkpt lat="42.31146" lon="2.13611">
        <ele>1037.6</ele>
        <time>2022-05-22 01:46:02</time>
      </trkpt>
      <trkpt lat="42.31147" lon="2.13608">
        <ele>1037.6</ele>
        <time>2022-05-22 01:46:03</time>
      </trkpt>
      <trkpt lat="42.31147" lon="2.13605">
        <ele>1037.8</ele>
        <time>2022-05-22 01:46:04</time>
      </trkpt>
      <trkpt lat="42.31148" lon="2.13603">
        <ele>1037.8</ele>
        <time>2022-05-22 01:46:05</time>
      </trkpt>
      <trkpt lat="42.31149" lon="2.136">
        <ele>1038</ele>
        <time>2022-05-22 01:46:06</time>
      </trkpt>
      <trkpt lat="42.3115" lon="2.13597">
        <ele>1038</ele>
        <time>2022-05-22 01:46:07</time>
      </trkpt>
      <trkpt lat="42.31152" lon="2.13595">
        <ele>1038.2</ele>
        <time>2022-05-22 01:46:08</time>
      </trkpt>
      <trkpt lat="42.31153" lon="2.13593">
        <ele>1038.4</ele>
        <time>2022-05-22 01:46:09</time>
      </trkpt>
      <trkpt lat="42.31154" lon="2.13591">
        <ele>1038.4</ele>
        <time>2022-05-22 01:46:10</time>
      </trkpt>
      <trkpt lat="42.31156" lon="2.1359">
        <ele>1038.6</ele>
        <time>2022-05-22 01:46:11</time>
      </trkpt>
      <trkpt lat="42.31158" lon="2.13588">
        <ele>1038.6</ele>
        <time>2022-05-22 01:46:12</time>
      </trkpt>
      <trkpt lat="42.31159" lon="2.13587">
        <ele>1038.8</ele>
        <time>2022-05-22 01:46:13</time>
      </trkpt>
      <trkpt lat="42.31161" lon="2.13585">
        <ele>1039</ele>
        <time>2022-05-22 01:46:14</time>
      </trkpt>
      <trkpt lat="42.31162" lon="2.13583">
        <ele>1039</ele>
        <time>2022-05-22 01:46:15</time>
      </trkpt>
      <trkpt lat="42.31164" lon="2.13582">
        <ele>1039.2</ele>
        <time>2022-05-22 01:46:16</time>
      </trkpt>
      <trkpt lat="42.31166" lon="2.1358">
        <ele>1039.4</ele>
        <time>2022-05-22 01:46:17</time>
      </trkpt>
      <trkpt lat="42.31168" lon="2.13579">
        <ele>1039.4</ele>
        <time>2022-05-22 01:46:18</time>
      </trkpt>
      <trkpt lat="42.3117" lon="2.13578">
        <ele>1039.6</ele>
        <time>2022-05-22 01:46:19</time>
      </trkpt>
      <trkpt lat="42.31172" lon="2.13577">
        <ele>1039.8</ele>
        <time>2022-05-22 01:46:20</time>
      </trkpt>
      <trkpt lat="42.31174" lon="2.13576">
        <ele>1039.8</ele>
        <time>2022-05-22 01:46:21</time>
      </trkpt>
      <trkpt lat="42.31176" lon="2.13575">
        <ele>1040</ele>
        <time>2022-05-22 01:46:22</time>
      </trkpt>
      <trkpt lat="42.31178" lon="2.13574">
        <ele>1040.2</ele>
        <time>2022-05-22 01:46:23</time>
      </trkpt>
      <trkpt lat="42.31179" lon="2.13572">
        <ele>1040.2</ele>
        <time>2022-05-22 01:46:24</time>
      </trkpt>
      <trkpt lat="42.31181" lon="2.13571">
        <ele>1040.4</ele>
        <time>2022-05-22 01:46:25</time>
      </trkpt>
      <trkpt lat="42.31183" lon="2.1357">
        <ele>1040.4</ele>
        <time>2022-05-22 01:46:26</time>
      </trkpt>
      <trkpt lat="42.31184" lon="2.13569">
        <ele>1040.6</ele>
        <time>2022-05-22 01:46:27</time>
      </trkpt>
      <trkpt lat="42.31185" lon="2.13567">
        <ele>1040.6</ele>
        <time>2022-05-22 01:46:28</time>
      </trkpt>
      <trkpt lat="42.31186" lon="2.13565">
        <ele>1040.8</ele>
        <time>2022-05-22 01:46:29</time>
      </trkpt>
      <trkpt lat="42.31187" lon="2.13563">
        <ele>1040.8</ele>
        <time>2022-05-22 01:46:30</time>
      </trkpt>
      <trkpt lat="42.31189" lon="2.1356">
        <ele>1040.8</ele>
        <time>2022-05-22 01:46:31</time>
      </trkpt>
      <trkpt lat="42.31191" lon="2.13557">
        <ele>1041</ele>
        <time>2022-05-22 01:46:32</time>
      </trkpt>
      <trkpt lat="42.31192" lon="2.13554">
        <ele>1041</ele>
        <time>2022-05-22 01:46:33</time>
      </trkpt>
      <trkpt lat="42.31192" lon="2.13551">
        <ele>1041</ele>
        <time>2022-05-22 01:46:34</time>
      </trkpt>
      <trkpt lat="42.31192" lon="2.13547">
        <ele>1041</ele>
        <time>2022-05-22 01:46:35</time>
      </trkpt>
      <trkpt lat="42.31192" lon="2.13545">
        <ele>1041.2</ele>
        <time>2022-05-22 01:46:36</time>
      </trkpt>
      <trkpt lat="42.31191" lon="2.13542">
        <ele>1041.2</ele>
        <time>2022-05-22 01:46:37</time>
      </trkpt>
      <trkpt lat="42.3119" lon="2.13539">
        <ele>1041.2</ele>
        <time>2022-05-22 01:46:38</time>
      </trkpt>
      <trkpt lat="42.31189" lon="2.13537">
        <ele>1041.4</ele>
        <time>2022-05-22 01:46:39</time>
      </trkpt>
      <trkpt lat="42.31189" lon="2.13535">
        <ele>1041.4</ele>
        <time>2022-05-22 01:46:40</time>
      </trkpt>
      <trkpt lat="42.31188" lon="2.13533">
        <ele>1041.4</ele>
        <time>2022-05-22 01:46:41</time>
      </trkpt>
      <trkpt lat="42.31187" lon="2.13531">
        <ele>1041.4</ele>
        <time>2022-05-22 01:46:42</time>
      </trkpt>
      <trkpt lat="42.31187" lon="2.13529">
        <ele>1041.6</ele>
        <time>2022-05-22 01:46:43</time>
      </trkpt>
      <trkpt lat="42.31186" lon="2.13527">
        <ele>1041.6</ele>
        <time>2022-05-22 01:46:44</time>
      </trkpt>
      <trkpt lat="42.31185" lon="2.13526">
        <ele>1041.6</ele>
        <time>2022-05-22 01:46:45</time>
      </trkpt>
      <trkpt lat="42.31183" lon="2.13524">
        <ele>1041.8</ele>
        <time>2022-05-22 01:46:46</time>
      </trkpt>
      <trkpt lat="42.31182" lon="2.13522">
        <ele>1041.8</ele>
        <time>2022-05-22 01:46:47</time>
      </trkpt>
      <trkpt lat="42.31181" lon="2.1352">
        <ele>1041.8</ele>
        <time>2022-05-22 01:46:48</time>
      </trkpt>
      <trkpt lat="42.31181" lon="2.13518">
        <ele>1041.8</ele>
        <time>2022-05-22 01:46:49</time>
      </trkpt>
      <trkpt lat="42.31179" lon="2.13514">
        <ele>1042</ele>
        <time>2022-05-22 01:46:50</time>
      </trkpt>
      <trkpt lat="42.31178" lon="2.1351">
        <ele>1042</ele>
        <time>2022-05-22 01:46:51</time>
      </trkpt>
      <trkpt lat="42.31177" lon="2.13506">
        <ele>1042</ele>
        <time>2022-05-22 01:46:52</time>
      </trkpt>
      <trkpt lat="42.31176" lon="2.13503">
        <ele>1042</ele>
        <time>2022-05-22 01:46:53</time>
      </trkpt>
      <trkpt lat="42.31176" lon="2.135">
        <ele>1042.2</ele>
        <time>2022-05-22 01:46:54</time>
      </trkpt>
      <trkpt lat="42.31175" lon="2.13496">
        <ele>1042.2</ele>
        <time>2022-05-22 01:46:55</time>
      </trkpt>
      <trkpt lat="42.31174" lon="2.13492">
        <ele>1042.2</ele>
        <time>2022-05-22 01:46:56</time>
      </trkpt>
      <trkpt lat="42.31174" lon="2.13489">
        <ele>1042.4</ele>
        <time>2022-05-22 01:46:57</time>
      </trkpt>
      <trkpt lat="42.31173" lon="2.13485">
        <ele>1042.4</ele>
        <time>2022-05-22 01:46:58</time>
      </trkpt>
      <trkpt lat="42.31173" lon="2.13481">
        <ele>1042.6</ele>
        <time>2022-05-22 01:46:59</time>
      </trkpt>
      <trkpt lat="42.31172" lon="2.13478">
        <ele>1042.6</ele>
        <time>2022-05-22 01:47:00</time>
      </trkpt>
      <trkpt lat="42.31172" lon="2.13474">
        <ele>1042.6</ele>
        <time>2022-05-22 01:47:01</time>
      </trkpt>
      <trkpt lat="42.31172" lon="2.1347">
        <ele>1042.8</ele>
        <time>2022-05-22 01:47:02</time>
      </trkpt>
      <trkpt lat="42.31172" lon="2.13466">
        <ele>1042.8</ele>
        <time>2022-05-22 01:47:03</time>
      </trkpt>
      <trkpt lat="42.31171" lon="2.13462">
        <ele>1042.8</ele>
        <time>2022-05-22 01:47:04</time>
      </trkpt>
      <trkpt lat="42.3117" lon="2.13458">
        <ele>1043</ele>
        <time>2022-05-22 01:47:05</time>
      </trkpt>
      <trkpt lat="42.3117" lon="2.13455">
        <ele>1043</ele>
        <time>2022-05-22 01:47:06</time>
      </trkpt>
      <trkpt lat="42.3117" lon="2.13451">
        <ele>1043</ele>
        <time>2022-05-22 01:47:07</time>
      </trkpt>
      <trkpt lat="42.3117" lon="2.13447">
        <ele>1043.2</ele>
        <time>2022-05-22 01:47:08</time>
      </trkpt>
      <trkpt lat="42.31171" lon="2.13444">
        <ele>1043.2</ele>
        <time>2022-05-22 01:47:09</time>
      </trkpt>
      <trkpt lat="42.3117" lon="2.13441">
        <ele>1043.2</ele>
        <time>2022-05-22 01:47:10</time>
      </trkpt>
      <trkpt lat="42.3117" lon="2.13438">
        <ele>1043.4</ele>
        <time>2022-05-22 01:47:11</time>
      </trkpt>
      <trkpt lat="42.3117" lon="2.13434">
        <ele>1043.4</ele>
        <time>2022-05-22 01:47:12</time>
      </trkpt>
      <trkpt lat="42.3117" lon="2.13431">
        <ele>1043.4</ele>
        <time>2022-05-22 01:47:13</time>
      </trkpt>
      <trkpt lat="42.31169" lon="2.13427">
        <ele>1043.4</ele>
        <time>2022-05-22 01:47:14</time>
      </trkpt>
      <trkpt lat="42.31169" lon="2.13424">
        <ele>1043.6</ele>
        <time>2022-05-22 01:47:15</time>
      </trkpt>
      <trkpt lat="42.31169" lon="2.1342">
        <ele>1043.6</ele>
        <time>2022-05-22 01:47:16</time>
      </trkpt>
      <trkpt lat="42.31169" lon="2.13417">
        <ele>1043.6</ele>
        <time>2022-05-22 01:47:17</time>
      </trkpt>
      <trkpt lat="42.31169" lon="2.13413">
        <ele>1043.6</ele>
        <time>2022-05-22 01:47:18</time>
      </trkpt>
      <trkpt lat="42.31169" lon="2.1341">
        <ele>1043.8</ele>
        <time>2022-05-22 01:47:19</time>
      </trkpt>
      <trkpt lat="42.31169" lon="2.13406">
        <ele>1043.8</ele>
        <time>2022-05-22 01:47:20</time>
      </trkpt>
      <trkpt lat="42.31169" lon="2.13402">
        <ele>1043.8</ele>
        <time>2022-05-22 01:47:21</time>
      </trkpt>
      <trkpt lat="42.31169" lon="2.13399">
        <ele>1044</ele>
        <time>2022-05-22 01:47:22</time>
      </trkpt>
      <trkpt lat="42.31168" lon="2.13396">
        <ele>1044</ele>
        <time>2022-05-22 01:47:23</time>
      </trkpt>
      <trkpt lat="42.31168" lon="2.13392">
        <ele>1044.2</ele>
        <time>2022-05-22 01:47:24</time>
      </trkpt>
      <trkpt lat="42.31168" lon="2.13388">
        <ele>1044.2</ele>
        <time>2022-05-22 01:47:25</time>
      </trkpt>
      <trkpt lat="42.31168" lon="2.13385">
        <ele>1044.2</ele>
        <time>2022-05-22 01:47:26</time>
      </trkpt>
      <trkpt lat="42.31168" lon="2.13382">
        <ele>1044.4</ele>
        <time>2022-05-22 01:47:27</time>
      </trkpt>
      <trkpt lat="42.31168" lon="2.13378">
        <ele>1044.4</ele>
        <time>2022-05-22 01:47:28</time>
      </trkpt>
      <trkpt lat="42.31168" lon="2.13375">
        <ele>1044.4</ele>
        <time>2022-05-22 01:47:29</time>
      </trkpt>
      <trkpt lat="42.31168" lon="2.13371">
        <ele>1044.6</ele>
        <time>2022-05-22 01:47:30</time>
      </trkpt>
      <trkpt lat="42.31168" lon="2.13368">
        <ele>1044.6</ele>
        <time>2022-05-22 01:47:31</time>
      </trkpt>
      <trkpt lat="42.31168" lon="2.13365">
        <ele>1044.6</ele>
        <time>2022-05-22 01:47:32</time>
      </trkpt>
      <trkpt lat="42.31168" lon="2.13362">
        <ele>1044.8</ele>
        <time>2022-05-22 01:47:33</time>
      </trkpt>
      <trkpt lat="42.31168" lon="2.13359">
        <ele>1044.8</ele>
        <time>2022-05-22 01:47:34</time>
      </trkpt>
      <trkpt lat="42.31168" lon="2.13355">
        <ele>1045</ele>
        <time>2022-05-22 01:47:35</time>
      </trkpt>
      <trkpt lat="42.31168" lon="2.13352">
        <ele>1045</ele>
        <time>2022-05-22 01:47:36</time>
      </trkpt>
      <trkpt lat="42.31168" lon="2.13349">
        <ele>1045.2</ele>
        <time>2022-05-22 01:47:37</time>
      </trkpt>
      <trkpt lat="42.31168" lon="2.13346">
        <ele>1045.2</ele>
        <time>2022-05-22 01:47:38</time>
      </trkpt>
      <trkpt lat="42.31168" lon="2.13342">
        <ele>1045.4</ele>
        <time>2022-05-22 01:47:39</time>
      </trkpt>
      <trkpt lat="42.31167" lon="2.13339">
        <ele>1045.4</ele>
        <time>2022-05-22 01:47:40</time>
      </trkpt>
      <trkpt lat="42.31167" lon="2.13335">
        <ele>1045.6</ele>
        <time>2022-05-22 01:47:41</time>
      </trkpt>
      <trkpt lat="42.31168" lon="2.13332">
        <ele>1045.6</ele>
        <time>2022-05-22 01:47:42</time>
      </trkpt>
      <trkpt lat="42.31168" lon="2.13329">
        <ele>1045.8</ele>
        <time>2022-05-22 01:47:43</time>
      </trkpt>
      <trkpt lat="42.31168" lon="2.13326">
        <ele>1045.8</ele>
        <time>2022-05-22 01:47:44</time>
      </trkpt>
      <trkpt lat="42.31168" lon="2.13322">
        <ele>1046</ele>
        <time>2022-05-22 01:47:45</time>
      </trkpt>
      <trkpt lat="42.31168" lon="2.1332">
        <ele>1046</ele>
        <time>2022-05-22 01:47:46</time>
      </trkpt>
      <trkpt lat="42.31168" lon="2.13316">
        <ele>1046.2</ele>
        <time>2022-05-22 01:47:47</time>
      </trkpt>
      <trkpt lat="42.31168" lon="2.13313">
        <ele>1046.2</ele>
        <time>2022-05-22 01:47:48</time>
      </trkpt>
      <trkpt lat="42.31169" lon="2.1331">
        <ele>1046.4</ele>
        <time>2022-05-22 01:47:49</time>
      </trkpt>
      <trkpt lat="42.31169" lon="2.13307">
        <ele>1046.4</ele>
        <time>2022-05-22 01:47:50</time>
      </trkpt>
      <trkpt lat="42.31169" lon="2.13304">
        <ele>1046.6</ele>
        <time>2022-05-22 01:47:51</time>
      </trkpt>
      <trkpt lat="42.31169" lon="2.13301">
        <ele>1046.6</ele>
        <time>2022-05-22 01:47:52</time>
      </trkpt>
      <trkpt lat="42.31169" lon="2.13298">
        <ele>1046.8</ele>
        <time>2022-05-22 01:47:53</time>
      </trkpt>
      <trkpt lat="42.3117" lon="2.13295">
        <ele>1046.8</ele>
        <time>2022-05-22 01:47:54</time>
      </trkpt>
      <trkpt lat="42.3117" lon="2.13292">
        <ele>1046.8</ele>
        <time>2022-05-22 01:47:55</time>
      </trkpt>
      <trkpt lat="42.31169" lon="2.13288">
        <ele>1047</ele>
        <time>2022-05-22 01:47:56</time>
      </trkpt>
      <trkpt lat="42.31169" lon="2.13285">
        <ele>1047</ele>
        <time>2022-05-22 01:47:57</time>
      </trkpt>
      <trkpt lat="42.31169" lon="2.13282">
        <ele>1047.2</ele>
        <time>2022-05-22 01:47:58</time>
      </trkpt>
      <trkpt lat="42.31169" lon="2.13279">
        <ele>1047.2</ele>
        <time>2022-05-22 01:47:59</time>
      </trkpt>
      <trkpt lat="42.3117" lon="2.13275">
        <ele>1047.4</ele>
        <time>2022-05-22 01:48:00</time>
      </trkpt>
      <trkpt lat="42.3117" lon="2.13272">
        <ele>1047.4</ele>
        <time>2022-05-22 01:48:01</time>
      </trkpt>
      <trkpt lat="42.3117" lon="2.1327">
        <ele>1047.6</ele>
        <time>2022-05-22 01:48:02</time>
      </trkpt>
      <trkpt lat="42.31171" lon="2.13266">
        <ele>1047.6</ele>
        <time>2022-05-22 01:48:03</time>
      </trkpt>
      <trkpt lat="42.31172" lon="2.13263">
        <ele>1047.8</ele>
        <time>2022-05-22 01:48:04</time>
      </trkpt>
      <trkpt lat="42.31173" lon="2.1326">
        <ele>1047.8</ele>
        <time>2022-05-22 01:48:05</time>
      </trkpt>
      <trkpt lat="42.31173" lon="2.13257">
        <ele>1047.8</ele>
        <time>2022-05-22 01:48:06</time>
      </trkpt>
      <trkpt lat="42.31174" lon="2.13254">
        <ele>1048</ele>
        <time>2022-05-22 01:48:07</time>
      </trkpt>
      <trkpt lat="42.31175" lon="2.13251">
        <ele>1048</ele>
        <time>2022-05-22 01:48:08</time>
      </trkpt>
      <trkpt lat="42.31177" lon="2.13248">
        <ele>1048.2</ele>
        <time>2022-05-22 01:48:09</time>
      </trkpt>
      <trkpt lat="42.31178" lon="2.13246">
        <ele>1048.2</ele>
        <time>2022-05-22 01:48:10</time>
      </trkpt>
      <trkpt lat="42.3118" lon="2.13243">
        <ele>1048.4</ele>
        <time>2022-05-22 01:48:11</time>
      </trkpt>
      <trkpt lat="42.31181" lon="2.13241">
        <ele>1048.4</ele>
        <time>2022-05-22 01:48:12</time>
      </trkpt>
      <trkpt lat="42.31183" lon="2.13238">
        <ele>1048.6</ele>
        <time>2022-05-22 01:48:13</time>
      </trkpt>
      <trkpt lat="42.31185" lon="2.13236">
        <ele>1048.6</ele>
        <time>2022-05-22 01:48:14</time>
      </trkpt>
      <trkpt lat="42.31186" lon="2.13234">
        <ele>1048.8</ele>
        <time>2022-05-22 01:48:15</time>
      </trkpt>
      <trkpt lat="42.31188" lon="2.13232">
        <ele>1048.8</ele>
        <time>2022-05-22 01:48:16</time>
      </trkpt>
      <trkpt lat="42.31189" lon="2.1323">
        <ele>1049</ele>
        <time>2022-05-22 01:48:17</time>
      </trkpt>
      <trkpt lat="42.31191" lon="2.13227">
        <ele>1049.2</ele>
        <time>2022-05-22 01:48:18</time>
      </trkpt>
      <trkpt lat="42.31192" lon="2.13225">
        <ele>1049.2</ele>
        <time>2022-05-22 01:48:19</time>
      </trkpt>
      <trkpt lat="42.31193" lon="2.13223">
        <ele>1049.4</ele>
        <time>2022-05-22 01:48:20</time>
      </trkpt>
      <trkpt lat="42.31195" lon="2.13221">
        <ele>1049.4</ele>
        <time>2022-05-22 01:48:21</time>
      </trkpt>
      <trkpt lat="42.31196" lon="2.13218">
        <ele>1049.6</ele>
        <time>2022-05-22 01:48:22</time>
      </trkpt>
      <trkpt lat="42.31197" lon="2.13216">
        <ele>1049.8</ele>
        <time>2022-05-22 01:48:23</time>
      </trkpt>
      <trkpt lat="42.31198" lon="2.13214">
        <ele>1049.8</ele>
        <time>2022-05-22 01:48:24</time>
      </trkpt>
      <trkpt lat="42.31199" lon="2.13211">
        <ele>1050</ele>
        <time>2022-05-22 01:48:25</time>
      </trkpt>
      <trkpt lat="42.312" lon="2.13209">
        <ele>1050</ele>
        <time>2022-05-22 01:48:26</time>
      </trkpt>
      <trkpt lat="42.31201" lon="2.13206">
        <ele>1050.2</ele>
        <time>2022-05-22 01:48:27</time>
      </trkpt>
      <trkpt lat="42.31202" lon="2.13203">
        <ele>1050.2</ele>
        <time>2022-05-22 01:48:28</time>
      </trkpt>
      <trkpt lat="42.31203" lon="2.132">
        <ele>1050.4</ele>
        <time>2022-05-22 01:48:29</time>
      </trkpt>
      <trkpt lat="42.31204" lon="2.13198">
        <ele>1050.4</ele>
        <time>2022-05-22 01:48:30</time>
      </trkpt>
      <trkpt lat="42.31205" lon="2.13195">
        <ele>1050.6</ele>
        <time>2022-05-22 01:48:31</time>
      </trkpt>
      <trkpt lat="42.31205" lon="2.13192">
        <ele>1050.6</ele>
        <time>2022-05-22 01:48:32</time>
      </trkpt>
      <trkpt lat="42.31206" lon="2.13189">
        <ele>1050.8</ele>
        <time>2022-05-22 01:48:33</time>
      </trkpt>
      <trkpt lat="42.31207" lon="2.13186">
        <ele>1050.8</ele>
        <time>2022-05-22 01:48:34</time>
      </trkpt>
      <trkpt lat="42.31208" lon="2.13183">
        <ele>1051</ele>
        <time>2022-05-22 01:48:35</time>
      </trkpt>
      <trkpt lat="42.31209" lon="2.1318">
        <ele>1051</ele>
        <time>2022-05-22 01:48:36</time>
      </trkpt>
      <trkpt lat="42.3121" lon="2.13177">
        <ele>1051.2</ele>
        <time>2022-05-22 01:48:37</time>
      </trkpt>
      <trkpt lat="42.31211" lon="2.13174">
        <ele>1051.2</ele>
        <time>2022-05-22 01:48:38</time>
      </trkpt>
      <trkpt lat="42.31212" lon="2.13171">
        <ele>1051.4</ele>
        <time>2022-05-22 01:48:39</time>
      </trkpt>
      <trkpt lat="42.31213" lon="2.13168">
        <ele>1051.4</ele>
        <time>2022-05-22 01:48:40</time>
      </trkpt>
      <trkpt lat="42.31213" lon="2.13165">
        <ele>1051.6</ele>
        <time>2022-05-22 01:48:41</time>
      </trkpt>
      <trkpt lat="42.31215" lon="2.13163">
        <ele>1051.6</ele>
        <time>2022-05-22 01:48:42</time>
      </trkpt>
      <trkpt lat="42.31216" lon="2.1316">
        <ele>1051.8</ele>
        <time>2022-05-22 01:48:43</time>
      </trkpt>
      <trkpt lat="42.31217" lon="2.13157">
        <ele>1051.8</ele>
        <time>2022-05-22 01:48:44</time>
      </trkpt>
      <trkpt lat="42.31218" lon="2.13154">
        <ele>1052</ele>
        <time>2022-05-22 01:48:45</time>
      </trkpt>
      <trkpt lat="42.31218" lon="2.13151">
        <ele>1052</ele>
        <time>2022-05-22 01:48:46</time>
      </trkpt>
      <trkpt lat="42.31219" lon="2.13148">
        <ele>1052.2</ele>
        <time>2022-05-22 01:48:47</time>
      </trkpt>
      <trkpt lat="42.3122" lon="2.13145">
        <ele>1052.2</ele>
        <time>2022-05-22 01:48:48</time>
      </trkpt>
      <trkpt lat="42.31222" lon="2.13143">
        <ele>1052.2</ele>
        <time>2022-05-22 01:48:49</time>
      </trkpt>
      <trkpt lat="42.31223" lon="2.1314">
        <ele>1052.4</ele>
        <time>2022-05-22 01:48:50</time>
      </trkpt>
      <trkpt lat="42.31224" lon="2.13137">
        <ele>1052.4</ele>
        <time>2022-05-22 01:48:51</time>
      </trkpt>
      <trkpt lat="42.31225" lon="2.13134">
        <ele>1052.6</ele>
        <time>2022-05-22 01:48:52</time>
      </trkpt>
      <trkpt lat="42.31226" lon="2.13132">
        <ele>1052.6</ele>
        <time>2022-05-22 01:48:53</time>
      </trkpt>
      <trkpt lat="42.31227" lon="2.13129">
        <ele>1052.8</ele>
        <time>2022-05-22 01:48:54</time>
      </trkpt>
      <trkpt lat="42.31229" lon="2.13126">
        <ele>1053</ele>
        <time>2022-05-22 01:48:55</time>
      </trkpt>
      <trkpt lat="42.3123" lon="2.13124">
        <ele>1053</ele>
        <time>2022-05-22 01:48:56</time>
      </trkpt>
      <trkpt lat="42.31232" lon="2.13122">
        <ele>1053.2</ele>
        <time>2022-05-22 01:48:57</time>
      </trkpt>
      <trkpt lat="42.31233" lon="2.13119">
        <ele>1053.2</ele>
        <time>2022-05-22 01:48:58</time>
      </trkpt>
      <trkpt lat="42.31235" lon="2.13117">
        <ele>1053.4</ele>
        <time>2022-05-22 01:48:59</time>
      </trkpt>
      <trkpt lat="42.31236" lon="2.13115">
        <ele>1053.4</ele>
        <time>2022-05-22 01:49:00</time>
      </trkpt>
      <trkpt lat="42.31238" lon="2.13112">
        <ele>1053.4</ele>
        <time>2022-05-22 01:49:01</time>
      </trkpt>
      <trkpt lat="42.31239" lon="2.1311">
        <ele>1053.6</ele>
        <time>2022-05-22 01:49:02</time>
      </trkpt>
      <trkpt lat="42.31241" lon="2.13108">
        <ele>1053.6</ele>
        <time>2022-05-22 01:49:03</time>
      </trkpt>
      <trkpt lat="42.31243" lon="2.13106">
        <ele>1053.8</ele>
        <time>2022-05-22 01:49:04</time>
      </trkpt>
      <trkpt lat="42.31244" lon="2.13105">
        <ele>1054</ele>
        <time>2022-05-22 01:49:05</time>
      </trkpt>
      <trkpt lat="42.31246" lon="2.13103">
        <ele>1054</ele>
        <time>2022-05-22 01:49:06</time>
      </trkpt>
      <trkpt lat="42.31247" lon="2.13101">
        <ele>1054.2</ele>
        <time>2022-05-22 01:49:07</time>
      </trkpt>
      <trkpt lat="42.31249" lon="2.13099">
        <ele>1054.2</ele>
        <time>2022-05-22 01:49:08</time>
      </trkpt>
      <trkpt lat="42.31251" lon="2.13097">
        <ele>1054.4</ele>
        <time>2022-05-22 01:49:09</time>
      </trkpt>
      <trkpt lat="42.31252" lon="2.13095">
        <ele>1054.4</ele>
        <time>2022-05-22 01:49:10</time>
      </trkpt>
      <trkpt lat="42.31254" lon="2.13093">
        <ele>1054.6</ele>
        <time>2022-05-22 01:49:11</time>
      </trkpt>
      <trkpt lat="42.31256" lon="2.13091">
        <ele>1054.6</ele>
        <time>2022-05-22 01:49:12</time>
      </trkpt>
      <trkpt lat="42.31258" lon="2.13089">
        <ele>1054.6</ele>
        <time>2022-05-22 01:49:13</time>
      </trkpt>
      <trkpt lat="42.3126" lon="2.13087">
        <ele>1054.8</ele>
        <time>2022-05-22 01:49:14</time>
      </trkpt>
      <trkpt lat="42.31262" lon="2.13085">
        <ele>1054.8</ele>
        <time>2022-05-22 01:49:15</time>
      </trkpt>
      <trkpt lat="42.31263" lon="2.13083">
        <ele>1055</ele>
        <time>2022-05-22 01:49:16</time>
      </trkpt>
      <trkpt lat="42.31265" lon="2.13081">
        <ele>1055</ele>
        <time>2022-05-22 01:49:17</time>
      </trkpt>
      <trkpt lat="42.31267" lon="2.1308">
        <ele>1055.2</ele>
        <time>2022-05-22 01:49:18</time>
      </trkpt>
      <trkpt lat="42.31269" lon="2.13078">
        <ele>1055.2</ele>
        <time>2022-05-22 01:49:19</time>
      </trkpt>
      <trkpt lat="42.3127" lon="2.13076">
        <ele>1055.4</ele>
        <time>2022-05-22 01:49:20</time>
      </trkpt>
      <trkpt lat="42.31272" lon="2.13075">
        <ele>1055.4</ele>
        <time>2022-05-22 01:49:21</time>
      </trkpt>
      <trkpt lat="42.31274" lon="2.13073">
        <ele>1055.6</ele>
        <time>2022-05-22 01:49:22</time>
      </trkpt>
      <trkpt lat="42.31276" lon="2.13072">
        <ele>1055.6</ele>
        <time>2022-05-22 01:49:23</time>
      </trkpt>
      <trkpt lat="42.31278" lon="2.13071">
        <ele>1055.8</ele>
        <time>2022-05-22 01:49:24</time>
      </trkpt>
      <trkpt lat="42.3128" lon="2.13069">
        <ele>1055.8</ele>
        <time>2022-05-22 01:49:25</time>
      </trkpt>
      <trkpt lat="42.31281" lon="2.13067">
        <ele>1055.8</ele>
        <time>2022-05-22 01:49:26</time>
      </trkpt>
      <trkpt lat="42.31283" lon="2.13066">
        <ele>1056</ele>
        <time>2022-05-22 01:49:27</time>
      </trkpt>
      <trkpt lat="42.31285" lon="2.13065">
        <ele>1056</ele>
        <time>2022-05-22 01:49:28</time>
      </trkpt>
      <trkpt lat="42.31287" lon="2.13063">
        <ele>1056.2</ele>
        <time>2022-05-22 01:49:29</time>
      </trkpt>
      <trkpt lat="42.31289" lon="2.13062">
        <ele>1056.2</ele>
        <time>2022-05-22 01:49:30</time>
      </trkpt>
      <trkpt lat="42.31291" lon="2.1306">
        <ele>1056.4</ele>
        <time>2022-05-22 01:49:31</time>
      </trkpt>
      <trkpt lat="42.31294" lon="2.13059">
        <ele>1056.6</ele>
        <time>2022-05-22 01:49:32</time>
      </trkpt>
      <trkpt lat="42.31296" lon="2.13058">
        <ele>1056.6</ele>
        <time>2022-05-22 01:49:33</time>
      </trkpt>
      <trkpt lat="42.31299" lon="2.13057">
        <ele>1056.8</ele>
        <time>2022-05-22 01:49:34</time>
      </trkpt>
      <trkpt lat="42.31301" lon="2.13056">
        <ele>1056.8</ele>
        <time>2022-05-22 01:49:35</time>
      </trkpt>
      <trkpt lat="42.31303" lon="2.13055">
        <ele>1057</ele>
        <time>2022-05-22 01:49:36</time>
      </trkpt>
      <trkpt lat="42.31306" lon="2.13055">
        <ele>1057</ele>
        <time>2022-05-22 01:49:37</time>
      </trkpt>
      <trkpt lat="42.31308" lon="2.13054">
        <ele>1057.2</ele>
        <time>2022-05-22 01:49:38</time>
      </trkpt>
      <trkpt lat="42.31309" lon="2.13053">
        <ele>1057.2</ele>
        <time>2022-05-22 01:49:39</time>
      </trkpt>
      <trkpt lat="42.31312" lon="2.13052">
        <ele>1057.4</ele>
        <time>2022-05-22 01:49:40</time>
      </trkpt>
      <trkpt lat="42.31314" lon="2.13052">
        <ele>1057.4</ele>
        <time>2022-05-22 01:49:41</time>
      </trkpt>
      <trkpt lat="42.31316" lon="2.13051">
        <ele>1057.6</ele>
        <time>2022-05-22 01:49:42</time>
      </trkpt>
      <trkpt lat="42.31318" lon="2.13051">
        <ele>1057.6</ele>
        <time>2022-05-22 01:49:43</time>
      </trkpt>
      <trkpt lat="42.3132" lon="2.1305">
        <ele>1057.8</ele>
        <time>2022-05-22 01:49:44</time>
      </trkpt>
      <trkpt lat="42.31322" lon="2.1305">
        <ele>1057.8</ele>
        <time>2022-05-22 01:49:45</time>
      </trkpt>
      <trkpt lat="42.31324" lon="2.1305">
        <ele>1058</ele>
        <time>2022-05-22 01:49:46</time>
      </trkpt>
      <trkpt lat="42.31327" lon="2.13049">
        <ele>1058</ele>
        <time>2022-05-22 01:49:47</time>
      </trkpt>
      <trkpt lat="42.31329" lon="2.13049">
        <ele>1058</ele>
        <time>2022-05-22 01:49:48</time>
      </trkpt>
      <trkpt lat="42.31331" lon="2.13048">
        <ele>1058.2</ele>
        <time>2022-05-22 01:49:49</time>
      </trkpt>
      <trkpt lat="42.31333" lon="2.13047">
        <ele>1058.2</ele>
        <time>2022-05-22 01:49:50</time>
      </trkpt>
      <trkpt lat="42.31336" lon="2.13046">
        <ele>1058.4</ele>
        <time>2022-05-22 01:49:51</time>
      </trkpt>
      <trkpt lat="42.31338" lon="2.13045">
        <ele>1058.4</ele>
        <time>2022-05-22 01:49:52</time>
      </trkpt>
      <trkpt lat="42.31341" lon="2.13043">
        <ele>1058.4</ele>
        <time>2022-05-22 01:49:53</time>
      </trkpt>
      <trkpt lat="42.31344" lon="2.13041">
        <ele>1058.6</ele>
        <time>2022-05-22 01:49:54</time>
      </trkpt>
      <trkpt lat="42.31346" lon="2.13039">
        <ele>1058.6</ele>
        <time>2022-05-22 01:49:55</time>
      </trkpt>
      <trkpt lat="42.31348" lon="2.13036">
        <ele>1058.8</ele>
        <time>2022-05-22 01:49:56</time>
      </trkpt>
      <trkpt lat="42.3135" lon="2.13033">
        <ele>1058.8</ele>
        <time>2022-05-22 01:49:57</time>
      </trkpt>
      <trkpt lat="42.31351" lon="2.13029">
        <ele>1059</ele>
        <time>2022-05-22 01:49:58</time>
      </trkpt>
      <trkpt lat="42.31351" lon="2.13025">
        <ele>1059</ele>
        <time>2022-05-22 01:49:59</time>
      </trkpt>
      <trkpt lat="42.31352" lon="2.13021">
        <ele>1059.2</ele>
        <time>2022-05-22 01:50:00</time>
      </trkpt>
      <trkpt lat="42.31352" lon="2.13017">
        <ele>1059.2</ele>
        <time>2022-05-22 01:50:01</time>
      </trkpt>
      <trkpt lat="42.31352" lon="2.13013">
        <ele>1059.4</ele>
        <time>2022-05-22 01:50:02</time>
      </trkpt>
      <trkpt lat="42.31352" lon="2.13009">
        <ele>1059.4</ele>
        <time>2022-05-22 01:50:03</time>
      </trkpt>
      <trkpt lat="42.31352" lon="2.13005">
        <ele>1059.6</ele>
        <time>2022-05-22 01:50:04</time>
      </trkpt>
      <trkpt lat="42.31351" lon="2.13001">
        <ele>1059.8</ele>
        <time>2022-05-22 01:50:05</time>
      </trkpt>
      <trkpt lat="42.31351" lon="2.12997">
        <ele>1059.8</ele>
        <time>2022-05-22 01:50:06</time>
      </trkpt>
      <trkpt lat="42.31349" lon="2.12994">
        <ele>1060</ele>
        <time>2022-05-22 01:50:07</time>
      </trkpt>
      <trkpt lat="42.31348" lon="2.12991">
        <ele>1060</ele>
        <time>2022-05-22 01:50:08</time>
      </trkpt>
      <trkpt lat="42.31346" lon="2.12987">
        <ele>1060.2</ele>
        <time>2022-05-22 01:50:09</time>
      </trkpt>
      <trkpt lat="42.31344" lon="2.12984">
        <ele>1060.2</ele>
        <time>2022-05-22 01:50:10</time>
      </trkpt>
      <trkpt lat="42.31343" lon="2.1298">
        <ele>1060.4</ele>
        <time>2022-05-22 01:50:11</time>
      </trkpt>
      <trkpt lat="42.31341" lon="2.12977">
        <ele>1060.4</ele>
        <time>2022-05-22 01:50:12</time>
      </trkpt>
      <trkpt lat="42.31339" lon="2.12973">
        <ele>1060.6</ele>
        <time>2022-05-22 01:50:13</time>
      </trkpt>
      <trkpt lat="42.31338" lon="2.12969">
        <ele>1060.6</ele>
        <time>2022-05-22 01:50:14</time>
      </trkpt>
      <trkpt lat="42.31336" lon="2.12966">
        <ele>1060.8</ele>
        <time>2022-05-22 01:50:15</time>
      </trkpt>
      <trkpt lat="42.31334" lon="2.12962">
        <ele>1060.8</ele>
        <time>2022-05-22 01:50:16</time>
      </trkpt>
      <trkpt lat="42.31333" lon="2.12958">
        <ele>1061</ele>
        <time>2022-05-22 01:50:17</time>
      </trkpt>
      <trkpt lat="42.31331" lon="2.12955">
        <ele>1061</ele>
        <time>2022-05-22 01:50:18</time>
      </trkpt>
      <trkpt lat="42.3133" lon="2.12951">
        <ele>1061.2</ele>
        <time>2022-05-22 01:50:19</time>
      </trkpt>
      <trkpt lat="42.31328" lon="2.12948">
        <ele>1061.2</ele>
        <time>2022-05-22 01:50:20</time>
      </trkpt>
      <trkpt lat="42.31327" lon="2.12944">
        <ele>1061.4</ele>
        <time>2022-05-22 01:50:21</time>
      </trkpt>
      <trkpt lat="42.31326" lon="2.12941">
        <ele>1061.4</ele>
        <time>2022-05-22 01:50:22</time>
      </trkpt>
      <trkpt lat="42.31325" lon="2.12937">
        <ele>1061.6</ele>
        <time>2022-05-22 01:50:23</time>
      </trkpt>
      <trkpt lat="42.31324" lon="2.12933">
        <ele>1061.6</ele>
        <time>2022-05-22 01:50:24</time>
      </trkpt>
      <trkpt lat="42.31323" lon="2.1293">
        <ele>1061.8</ele>
        <time>2022-05-22 01:50:25</time>
      </trkpt>
      <trkpt lat="42.31323" lon="2.12926">
        <ele>1061.8</ele>
        <time>2022-05-22 01:50:26</time>
      </trkpt>
      <trkpt lat="42.31322" lon="2.12922">
        <ele>1062</ele>
        <time>2022-05-22 01:50:27</time>
      </trkpt>
      <trkpt lat="42.31322" lon="2.12919">
        <ele>1062</ele>
        <time>2022-05-22 01:50:28</time>
      </trkpt>
      <trkpt lat="42.31321" lon="2.12915">
        <ele>1062.2</ele>
        <time>2022-05-22 01:50:29</time>
      </trkpt>
      <trkpt lat="42.31321" lon="2.12912">
        <ele>1062.2</ele>
        <time>2022-05-22 01:50:30</time>
      </trkpt>
      <trkpt lat="42.31322" lon="2.12908">
        <ele>1062.4</ele>
        <time>2022-05-22 01:50:31</time>
      </trkpt>
      <trkpt lat="42.31322" lon="2.12904">
        <ele>1062.4</ele>
        <time>2022-05-22 01:50:32</time>
      </trkpt>
      <trkpt lat="42.31323" lon="2.12901">
        <ele>1062.6</ele>
        <time>2022-05-22 01:50:33</time>
      </trkpt>
      <trkpt lat="42.31324" lon="2.12897">
        <ele>1062.8</ele>
        <time>2022-05-22 01:50:34</time>
      </trkpt>
      <trkpt lat="42.31324" lon="2.12893">
        <ele>1062.8</ele>
        <time>2022-05-22 01:50:35</time>
      </trkpt>
      <trkpt lat="42.31325" lon="2.12889">
        <ele>1063</ele>
        <time>2022-05-22 01:50:36</time>
      </trkpt>
      <trkpt lat="42.31327" lon="2.12885">
        <ele>1063</ele>
        <time>2022-05-22 01:50:37</time>
      </trkpt>
      <trkpt lat="42.31328" lon="2.12882">
        <ele>1063.2</ele>
        <time>2022-05-22 01:50:38</time>
      </trkpt>
      <trkpt lat="42.31329" lon="2.12878">
        <ele>1063.2</ele>
        <time>2022-05-22 01:50:39</time>
      </trkpt>
      <trkpt lat="42.3133" lon="2.12874">
        <ele>1063.4</ele>
        <time>2022-05-22 01:50:40</time>
      </trkpt>
      <trkpt lat="42.31331" lon="2.12871">
        <ele>1063.6</ele>
        <time>2022-05-22 01:50:41</time>
      </trkpt>
      <trkpt lat="42.31333" lon="2.12867">
        <ele>1063.6</ele>
        <time>2022-05-22 01:50:42</time>
      </trkpt>
      <trkpt lat="42.31334" lon="2.12864">
        <ele>1063.8</ele>
        <time>2022-05-22 01:50:43</time>
      </trkpt>
      <trkpt lat="42.31335" lon="2.1286">
        <ele>1064</ele>
        <time>2022-05-22 01:50:44</time>
      </trkpt>
      <trkpt lat="42.31336" lon="2.12856">
        <ele>1064.2</ele>
        <time>2022-05-22 01:50:45</time>
      </trkpt>
      <trkpt lat="42.31338" lon="2.12853">
        <ele>1064.2</ele>
        <time>2022-05-22 01:50:46</time>
      </trkpt>
      <trkpt lat="42.31339" lon="2.12849">
        <ele>1064.4</ele>
        <time>2022-05-22 01:50:47</time>
      </trkpt>
      <trkpt lat="42.3134" lon="2.12845">
        <ele>1064.6</ele>
        <time>2022-05-22 01:50:48</time>
      </trkpt>
      <trkpt lat="42.31341" lon="2.12841">
        <ele>1064.6</ele>
        <time>2022-05-22 01:50:49</time>
      </trkpt>
      <trkpt lat="42.31342" lon="2.12838">
        <ele>1064.8</ele>
        <time>2022-05-22 01:50:50</time>
      </trkpt>
      <trkpt lat="42.31343" lon="2.12835">
        <ele>1065</ele>
        <time>2022-05-22 01:50:51</time>
      </trkpt>
      <trkpt lat="42.31344" lon="2.12831">
        <ele>1065</ele>
        <time>2022-05-22 01:50:52</time>
      </trkpt>
      <trkpt lat="42.31345" lon="2.12827">
        <ele>1065.2</ele>
        <time>2022-05-22 01:50:53</time>
      </trkpt>
      <trkpt lat="42.31346" lon="2.12824">
        <ele>1065.4</ele>
        <time>2022-05-22 01:50:54</time>
      </trkpt>
      <trkpt lat="42.31347" lon="2.1282">
        <ele>1065.4</ele>
        <time>2022-05-22 01:50:55</time>
      </trkpt>
      <trkpt lat="42.31348" lon="2.12817">
        <ele>1065.6</ele>
        <time>2022-05-22 01:50:56</time>
      </trkpt>
      <trkpt lat="42.31349" lon="2.12813">
        <ele>1065.8</ele>
        <time>2022-05-22 01:50:57</time>
      </trkpt>
      <trkpt lat="42.3135" lon="2.1281">
        <ele>1065.8</ele>
        <time>2022-05-22 01:50:58</time>
      </trkpt>
      <trkpt lat="42.31352" lon="2.12807">
        <ele>1066</ele>
        <time>2022-05-22 01:50:59</time>
      </trkpt>
      <trkpt lat="42.31353" lon="2.12804">
        <ele>1066.2</ele>
        <time>2022-05-22 01:51:00</time>
      </trkpt>
      <trkpt lat="42.31355" lon="2.12801">
        <ele>1066.2</ele>
        <time>2022-05-22 01:51:01</time>
      </trkpt>
      <trkpt lat="42.31357" lon="2.12799">
        <ele>1066.4</ele>
        <time>2022-05-22 01:51:02</time>
      </trkpt>
      <trkpt lat="42.31359" lon="2.12796">
        <ele>1066.6</ele>
        <time>2022-05-22 01:51:03</time>
      </trkpt>
      <trkpt lat="42.31361" lon="2.12794">
        <ele>1066.6</ele>
        <time>2022-05-22 01:51:04</time>
      </trkpt>
      <trkpt lat="42.31364" lon="2.12792">
        <ele>1066.8</ele>
        <time>2022-05-22 01:51:05</time>
      </trkpt>
      <trkpt lat="42.31366" lon="2.12791">
        <ele>1067</ele>
        <time>2022-05-22 01:51:06</time>
      </trkpt>
      <trkpt lat="42.31369" lon="2.12789">
        <ele>1067</ele>
        <time>2022-05-22 01:51:07</time>
      </trkpt>
      <trkpt lat="42.31371" lon="2.12788">
        <ele>1067.2</ele>
        <time>2022-05-22 01:51:08</time>
      </trkpt>
      <trkpt lat="42.31374" lon="2.12786">
        <ele>1067.4</ele>
        <time>2022-05-22 01:51:09</time>
      </trkpt>
      <trkpt lat="42.31377" lon="2.12784">
        <ele>1067.6</ele>
        <time>2022-05-22 01:51:10</time>
      </trkpt>
      <trkpt lat="42.31379" lon="2.12783">
        <ele>1067.6</ele>
        <time>2022-05-22 01:51:11</time>
      </trkpt>
      <trkpt lat="42.31381" lon="2.12781">
        <ele>1067.8</ele>
        <time>2022-05-22 01:51:12</time>
      </trkpt>
      <trkpt lat="42.31383" lon="2.12779">
        <ele>1068</ele>
        <time>2022-05-22 01:51:13</time>
      </trkpt>
      <trkpt lat="42.31386" lon="2.12777">
        <ele>1068.2</ele>
        <time>2022-05-22 01:51:14</time>
      </trkpt>
      <trkpt lat="42.31388" lon="2.12775">
        <ele>1068.2</ele>
        <time>2022-05-22 01:51:15</time>
      </trkpt>
      <trkpt lat="42.3139" lon="2.12773">
        <ele>1068.4</ele>
        <time>2022-05-22 01:51:16</time>
      </trkpt>
      <trkpt lat="42.31393" lon="2.12771">
        <ele>1068.6</ele>
        <time>2022-05-22 01:51:17</time>
      </trkpt>
      <trkpt lat="42.31395" lon="2.12769">
        <ele>1068.6</ele>
        <time>2022-05-22 01:51:18</time>
      </trkpt>
      <trkpt lat="42.31396" lon="2.12767">
        <ele>1068.8</ele>
        <time>2022-05-22 01:51:19</time>
      </trkpt>
      <trkpt lat="42.31398" lon="2.12764">
        <ele>1069</ele>
        <time>2022-05-22 01:51:20</time>
      </trkpt>
      <trkpt lat="42.314" lon="2.12762">
        <ele>1069.2</ele>
        <time>2022-05-22 01:51:21</time>
      </trkpt>
      <trkpt lat="42.31402" lon="2.1276">
        <ele>1069.2</ele>
        <time>2022-05-22 01:51:22</time>
      </trkpt>
      <trkpt lat="42.31404" lon="2.12757">
        <ele>1069.4</ele>
        <time>2022-05-22 01:51:23</time>
      </trkpt>
      <trkpt lat="42.31406" lon="2.12755">
        <ele>1069.6</ele>
        <time>2022-05-22 01:51:24</time>
      </trkpt>
      <trkpt lat="42.31408" lon="2.12753">
        <ele>1069.8</ele>
        <time>2022-05-22 01:51:25</time>
      </trkpt>
      <trkpt lat="42.3141" lon="2.12751">
        <ele>1069.8</ele>
        <time>2022-05-22 01:51:26</time>
      </trkpt>
      <trkpt lat="42.31412" lon="2.12748">
        <ele>1070</ele>
        <time>2022-05-22 01:51:27</time>
      </trkpt>
      <trkpt lat="42.31413" lon="2.12746">
        <ele>1070.2</ele>
        <time>2022-05-22 01:51:28</time>
      </trkpt>
      <trkpt lat="42.31415" lon="2.12743">
        <ele>1070.4</ele>
        <time>2022-05-22 01:51:29</time>
      </trkpt>
      <trkpt lat="42.31417" lon="2.12741">
        <ele>1070.4</ele>
        <time>2022-05-22 01:51:30</time>
      </trkpt>
      <trkpt lat="42.31419" lon="2.12738">
        <ele>1070.6</ele>
        <time>2022-05-22 01:51:31</time>
      </trkpt>
      <trkpt lat="42.31421" lon="2.12736">
        <ele>1070.6</ele>
        <time>2022-05-22 01:51:32</time>
      </trkpt>
      <trkpt lat="42.31423" lon="2.12733">
        <ele>1070.8</ele>
        <time>2022-05-22 01:51:33</time>
      </trkpt>
      <trkpt lat="42.31424" lon="2.1273">
        <ele>1071</ele>
        <time>2022-05-22 01:51:34</time>
      </trkpt>
      <trkpt lat="42.31426" lon="2.12728">
        <ele>1071</ele>
        <time>2022-05-22 01:51:35</time>
      </trkpt>
      <trkpt lat="42.31428" lon="2.12726">
        <ele>1071.2</ele>
        <time>2022-05-22 01:51:36</time>
      </trkpt>
      <trkpt lat="42.3143" lon="2.12723">
        <ele>1071.2</ele>
        <time>2022-05-22 01:51:37</time>
      </trkpt>
      <trkpt lat="42.31432" lon="2.12721">
        <ele>1071.4</ele>
        <time>2022-05-22 01:51:38</time>
      </trkpt>
      <trkpt lat="42.31434" lon="2.12718">
        <ele>1071.4</ele>
        <time>2022-05-22 01:51:39</time>
      </trkpt>
      <trkpt lat="42.31436" lon="2.12716">
        <ele>1071.6</ele>
        <time>2022-05-22 01:51:40</time>
      </trkpt>
      <trkpt lat="42.31439" lon="2.12714">
        <ele>1071.6</ele>
        <time>2022-05-22 01:51:41</time>
      </trkpt>
      <trkpt lat="42.31442" lon="2.12712">
        <ele>1071.8</ele>
        <time>2022-05-22 01:51:42</time>
      </trkpt>
      <trkpt lat="42.31444" lon="2.12711">
        <ele>1071.8</ele>
        <time>2022-05-22 01:51:43</time>
      </trkpt>
      <trkpt lat="42.31447" lon="2.12709">
        <ele>1071.8</ele>
        <time>2022-05-22 01:51:44</time>
      </trkpt>
      <trkpt lat="42.31449" lon="2.12708">
        <ele>1072</ele>
        <time>2022-05-22 01:51:45</time>
      </trkpt>
      <trkpt lat="42.31451" lon="2.12707">
        <ele>1072</ele>
        <time>2022-05-22 01:51:46</time>
      </trkpt>
      <trkpt lat="42.31454" lon="2.12706">
        <ele>1072.2</ele>
        <time>2022-05-22 01:51:47</time>
      </trkpt>
      <trkpt lat="42.31456" lon="2.12705">
        <ele>1072.2</ele>
        <time>2022-05-22 01:51:48</time>
      </trkpt>
      <trkpt lat="42.31459" lon="2.12704">
        <ele>1072.2</ele>
        <time>2022-05-22 01:51:49</time>
      </trkpt>
      <trkpt lat="42.31462" lon="2.12704">
        <ele>1072.4</ele>
        <time>2022-05-22 01:51:50</time>
      </trkpt>
      <trkpt lat="42.31465" lon="2.12704">
        <ele>1072.4</ele>
        <time>2022-05-22 01:51:51</time>
      </trkpt>
      <trkpt lat="42.31468" lon="2.12704">
        <ele>1072.4</ele>
        <time>2022-05-22 01:51:52</time>
      </trkpt>
      <trkpt lat="42.31471" lon="2.12703">
        <ele>1072.6</ele>
        <time>2022-05-22 01:51:53</time>
      </trkpt>
      <trkpt lat="42.31474" lon="2.12703">
        <ele>1072.6</ele>
        <time>2022-05-22 01:51:54</time>
      </trkpt>
      <trkpt lat="42.31477" lon="2.12703">
        <ele>1072.6</ele>
        <time>2022-05-22 01:51:55</time>
      </trkpt>
      <trkpt lat="42.3148" lon="2.12703">
        <ele>1072.8</ele>
        <time>2022-05-22 01:51:56</time>
      </trkpt>
      <trkpt lat="42.31482" lon="2.12703">
        <ele>1072.8</ele>
        <time>2022-05-22 01:51:57</time>
      </trkpt>
      <trkpt lat="42.31485" lon="2.12703">
        <ele>1072.8</ele>
        <time>2022-05-22 01:51:58</time>
      </trkpt>
      <trkpt lat="42.31488" lon="2.12704">
        <ele>1072.8</ele>
        <time>2022-05-22 01:51:59</time>
      </trkpt>
      <trkpt lat="42.31491" lon="2.12704">
        <ele>1073</ele>
        <time>2022-05-22 01:52:00</time>
      </trkpt>
      <trkpt lat="42.31494" lon="2.12704">
        <ele>1073</ele>
        <time>2022-05-22 01:52:01</time>
      </trkpt>
      <trkpt lat="42.31497" lon="2.12704">
        <ele>1073</ele>
        <time>2022-05-22 01:52:02</time>
      </trkpt>
      <trkpt lat="42.315" lon="2.12704">
        <ele>1073</ele>
        <time>2022-05-22 01:52:03</time>
      </trkpt>
      <trkpt lat="42.31502" lon="2.12704">
        <ele>1073.2</ele>
        <time>2022-05-22 01:52:04</time>
      </trkpt>
      <trkpt lat="42.31505" lon="2.12703">
        <ele>1073.2</ele>
        <time>2022-05-22 01:52:05</time>
      </trkpt>
      <trkpt lat="42.31508" lon="2.12702">
        <ele>1073.2</ele>
        <time>2022-05-22 01:52:06</time>
      </trkpt>
      <trkpt lat="42.31511" lon="2.127">
        <ele>1073.2</ele>
        <time>2022-05-22 01:52:07</time>
      </trkpt>
      <trkpt lat="42.31514" lon="2.12699">
        <ele>1073.2</ele>
        <time>2022-05-22 01:52:08</time>
      </trkpt>
      <trkpt lat="42.31517" lon="2.12698">
        <ele>1073.2</ele>
        <time>2022-05-22 01:52:09</time>
      </trkpt>
      <trkpt lat="42.3152" lon="2.12696">
        <ele>1073.4</ele>
        <time>2022-05-22 01:52:10</time>
      </trkpt>
      <trkpt lat="42.31523" lon="2.12694">
        <ele>1073.4</ele>
        <time>2022-05-22 01:52:11</time>
      </trkpt>
      <trkpt lat="42.31525" lon="2.12691">
        <ele>1073.4</ele>
        <time>2022-05-22 01:52:12</time>
      </trkpt>
      <trkpt lat="42.31528" lon="2.12688">
        <ele>1073.4</ele>
        <time>2022-05-22 01:52:13</time>
      </trkpt>
      <trkpt lat="42.3153" lon="2.12684">
        <ele>1073.4</ele>
        <time>2022-05-22 01:52:14</time>
      </trkpt>
      <trkpt lat="42.31532" lon="2.1268">
        <ele>1073.4</ele>
        <time>2022-05-22 01:52:15</time>
      </trkpt>
      <trkpt lat="42.31533" lon="2.12675">
        <ele>1073.4</ele>
        <time>2022-05-22 01:52:16</time>
      </trkpt>
      <trkpt lat="42.31533" lon="2.12669">
        <ele>1073.4</ele>
        <time>2022-05-22 01:52:17</time>
      </trkpt>
      <trkpt lat="42.31532" lon="2.12664">
        <ele>1073.4</ele>
        <time>2022-05-22 01:52:18</time>
      </trkpt>
      <trkpt lat="42.31531" lon="2.1266">
        <ele>1073.4</ele>
        <time>2022-05-22 01:52:19</time>
      </trkpt>
      <trkpt lat="42.3153" lon="2.12656">
        <ele>1073.4</ele>
        <time>2022-05-22 01:52:20</time>
      </trkpt>
      <trkpt lat="42.31528" lon="2.12652">
        <ele>1073.4</ele>
        <time>2022-05-22 01:52:21</time>
      </trkpt>
      <trkpt lat="42.31525" lon="2.12649">
        <ele>1073.6</ele>
        <time>2022-05-22 01:52:22</time>
      </trkpt>
      <trkpt lat="42.31522" lon="2.12646">
        <ele>1073.6</ele>
        <time>2022-05-22 01:52:23</time>
      </trkpt>
      <trkpt lat="42.3152" lon="2.12644">
        <ele>1073.6</ele>
        <time>2022-05-22 01:52:24</time>
      </trkpt>
      <trkpt lat="42.31517" lon="2.12641">
        <ele>1073.8</ele>
        <time>2022-05-22 01:52:25</time>
      </trkpt>
      <trkpt lat="42.31514" lon="2.12638">
        <ele>1073.8</ele>
        <time>2022-05-22 01:52:26</time>
      </trkpt>
      <trkpt lat="42.31511" lon="2.12635">
        <ele>1074</ele>
        <time>2022-05-22 01:52:27</time>
      </trkpt>
      <trkpt lat="42.31508" lon="2.12632">
        <ele>1074</ele>
        <time>2022-05-22 01:52:28</time>
      </trkpt>
      <trkpt lat="42.31505" lon="2.12629">
        <ele>1074.2</ele>
        <time>2022-05-22 01:52:29</time>
      </trkpt>
      <trkpt lat="42.31502" lon="2.12626">
        <ele>1074.2</ele>
        <time>2022-05-22 01:52:30</time>
      </trkpt>
      <trkpt lat="42.315" lon="2.12622">
        <ele>1074.2</ele>
        <time>2022-05-22 01:52:31</time>
      </trkpt>
      <trkpt lat="42.31497" lon="2.12618">
        <ele>1074.4</ele>
        <time>2022-05-22 01:52:32</time>
      </trkpt>
      <trkpt lat="42.31494" lon="2.12614">
        <ele>1074.4</ele>
        <time>2022-05-22 01:52:33</time>
      </trkpt>
      <trkpt lat="42.31492" lon="2.1261">
        <ele>1074.4</ele>
        <time>2022-05-22 01:52:34</time>
      </trkpt>
      <trkpt lat="42.31489" lon="2.12606">
        <ele>1074.6</ele>
        <time>2022-05-22 01:52:35</time>
      </trkpt>
      <trkpt lat="42.31488" lon="2.12602">
        <ele>1074.8</ele>
        <time>2022-05-22 01:52:36</time>
      </trkpt>
      <trkpt lat="42.31486" lon="2.12599">
        <ele>1074.8</ele>
        <time>2022-05-22 01:52:37</time>
      </trkpt>
      <trkpt lat="42.31484" lon="2.12596">
        <ele>1075</ele>
        <time>2022-05-22 01:52:38</time>
      </trkpt>
      <trkpt lat="42.31482" lon="2.12593">
        <ele>1075</ele>
        <time>2022-05-22 01:52:39</time>
      </trkpt>
      <trkpt lat="42.3148" lon="2.12589">
        <ele>1075.2</ele>
        <time>2022-05-22 01:52:40</time>
      </trkpt>
      <trkpt lat="42.31478" lon="2.12587">
        <ele>1075.4</ele>
        <time>2022-05-22 01:52:41</time>
      </trkpt>
      <trkpt lat="42.31476" lon="2.12584">
        <ele>1075.4</ele>
        <time>2022-05-22 01:52:42</time>
      </trkpt>
      <trkpt lat="42.31474" lon="2.1258">
        <ele>1075.6</ele>
        <time>2022-05-22 01:52:43</time>
      </trkpt>
      <trkpt lat="42.31472" lon="2.12577">
        <ele>1075.8</ele>
        <time>2022-05-22 01:52:44</time>
      </trkpt>
      <trkpt lat="42.31469" lon="2.12574">
        <ele>1075.8</ele>
        <time>2022-05-22 01:52:45</time>
      </trkpt>
      <trkpt lat="42.31467" lon="2.12571">
        <ele>1076</ele>
        <time>2022-05-22 01:52:46</time>
      </trkpt>
      <trkpt lat="42.31464" lon="2.12567">
        <ele>1076.2</ele>
        <time>2022-05-22 01:52:47</time>
      </trkpt>
      <trkpt lat="42.31462" lon="2.12564">
        <ele>1076.4</ele>
        <time>2022-05-22 01:52:48</time>
      </trkpt>
      <trkpt lat="42.31459" lon="2.12561">
        <ele>1076.4</ele>
        <time>2022-05-22 01:52:49</time>
      </trkpt>
      <trkpt lat="42.31456" lon="2.12558">
        <ele>1076.6</ele>
        <time>2022-05-22 01:52:50</time>
      </trkpt>
      <trkpt lat="42.31453" lon="2.12556">
        <ele>1076.8</ele>
        <time>2022-05-22 01:52:51</time>
      </trkpt>
      <trkpt lat="42.31449" lon="2.12553">
        <ele>1077</ele>
        <time>2022-05-22 01:52:52</time>
      </trkpt>
      <trkpt lat="42.31446" lon="2.12551">
        <ele>1077.2</ele>
        <time>2022-05-22 01:52:53</time>
      </trkpt>
      <trkpt lat="42.31443" lon="2.12549">
        <ele>1077.4</ele>
        <time>2022-05-22 01:52:54</time>
      </trkpt>
      <trkpt lat="42.3144" lon="2.12547">
        <ele>1077.4</ele>
        <time>2022-05-22 01:52:55</time>
      </trkpt>
      <trkpt lat="42.31437" lon="2.12545">
        <ele>1077.6</ele>
        <time>2022-05-22 01:52:56</time>
      </trkpt>
      <trkpt lat="42.31434" lon="2.12542">
        <ele>1077.8</ele>
        <time>2022-05-22 01:52:57</time>
      </trkpt>
      <trkpt lat="42.31431" lon="2.12539">
        <ele>1078</ele>
        <time>2022-05-22 01:52:58</time>
      </trkpt>
      <trkpt lat="42.31428" lon="2.12535">
        <ele>1078</ele>
        <time>2022-05-22 01:52:59</time>
      </trkpt>
      <trkpt lat="42.31426" lon="2.12531">
        <ele>1078.2</ele>
        <time>2022-05-22 01:53:00</time>
      </trkpt>
      <trkpt lat="42.31425" lon="2.12528">
        <ele>1078.4</ele>
        <time>2022-05-22 01:53:01</time>
      </trkpt>
      <trkpt lat="42.31423" lon="2.12524">
        <ele>1078.6</ele>
        <time>2022-05-22 01:53:02</time>
      </trkpt>
      <trkpt lat="42.31421" lon="2.1252">
        <ele>1078.8</ele>
        <time>2022-05-22 01:53:03</time>
      </trkpt>
      <trkpt lat="42.31419" lon="2.12517">
        <ele>1079</ele>
        <time>2022-05-22 01:53:04</time>
      </trkpt>
      <trkpt lat="42.31417" lon="2.12514">
        <ele>1079.2</ele>
        <time>2022-05-22 01:53:05</time>
      </trkpt>
      <trkpt lat="42.31416" lon="2.12511">
        <ele>1079.2</ele>
        <time>2022-05-22 01:53:06</time>
      </trkpt>
      <trkpt lat="42.31414" lon="2.12508">
        <ele>1079.4</ele>
        <time>2022-05-22 01:53:07</time>
      </trkpt>
      <trkpt lat="42.31413" lon="2.12505">
        <ele>1079.6</ele>
        <time>2022-05-22 01:53:08</time>
      </trkpt>
      <trkpt lat="42.31413" lon="2.12501">
        <ele>1079.8</ele>
        <time>2022-05-22 01:53:09</time>
      </trkpt>
      <trkpt lat="42.31412" lon="2.12498">
        <ele>1080</ele>
        <time>2022-05-22 01:53:10</time>
      </trkpt>
      <trkpt lat="42.31411" lon="2.12495">
        <ele>1080</ele>
        <time>2022-05-22 01:53:11</time>
      </trkpt>
      <trkpt lat="42.3141" lon="2.12491">
        <ele>1080.2</ele>
        <time>2022-05-22 01:53:12</time>
      </trkpt>
      <trkpt lat="42.31409" lon="2.12488">
        <ele>1080.4</ele>
        <time>2022-05-22 01:53:13</time>
      </trkpt>
      <trkpt lat="42.31408" lon="2.12484">
        <ele>1080.6</ele>
        <time>2022-05-22 01:53:14</time>
      </trkpt>
      <trkpt lat="42.31407" lon="2.1248">
        <ele>1080.8</ele>
        <time>2022-05-22 01:53:15</time>
      </trkpt>
      <trkpt lat="42.31406" lon="2.12477">
        <ele>1080.8</ele>
        <time>2022-05-22 01:53:16</time>
      </trkpt>
      <trkpt lat="42.31405" lon="2.12473">
        <ele>1081</ele>
        <time>2022-05-22 01:53:17</time>
      </trkpt>
      <trkpt lat="42.31404" lon="2.12469">
        <ele>1081</ele>
        <time>2022-05-22 01:53:18</time>
      </trkpt>
      <trkpt lat="42.31403" lon="2.12466">
        <ele>1081.2</ele>
        <time>2022-05-22 01:53:19</time>
      </trkpt>
      <trkpt lat="42.31402" lon="2.12462">
        <ele>1081.4</ele>
        <time>2022-05-22 01:53:20</time>
      </trkpt>
      <trkpt lat="42.31401" lon="2.12458">
        <ele>1081.6</ele>
        <time>2022-05-22 01:53:21</time>
      </trkpt>
      <trkpt lat="42.314" lon="2.12454">
        <ele>1081.8</ele>
        <time>2022-05-22 01:53:22</time>
      </trkpt>
      <trkpt lat="42.314" lon="2.1245">
        <ele>1082</ele>
        <time>2022-05-22 01:53:23</time>
      </trkpt>
      <trkpt lat="42.31399" lon="2.12447">
        <ele>1082</ele>
        <time>2022-05-22 01:53:24</time>
      </trkpt>
      <trkpt lat="42.31398" lon="2.12442">
        <ele>1082.2</ele>
        <time>2022-05-22 01:53:25</time>
      </trkpt>
      <trkpt lat="42.31397" lon="2.12438">
        <ele>1082.4</ele>
        <time>2022-05-22 01:53:26</time>
      </trkpt>
      <trkpt lat="42.31396" lon="2.12435">
        <ele>1082.4</ele>
        <time>2022-05-22 01:53:27</time>
      </trkpt>
      <trkpt lat="42.31395" lon="2.12431">
        <ele>1082.6</ele>
        <time>2022-05-22 01:53:28</time>
      </trkpt>
      <trkpt lat="42.31394" lon="2.12428">
        <ele>1082.8</ele>
        <time>2022-05-22 01:53:29</time>
      </trkpt>
      <trkpt lat="42.31393" lon="2.12425">
        <ele>1083</ele>
        <time>2022-05-22 01:53:30</time>
      </trkpt>
      <trkpt lat="42.31392" lon="2.12421">
        <ele>1083</ele>
        <time>2022-05-22 01:53:31</time>
      </trkpt>
      <trkpt lat="42.3139" lon="2.12418">
        <ele>1083.2</ele>
        <time>2022-05-22 01:53:32</time>
      </trkpt>
      <trkpt lat="42.31389" lon="2.12414">
        <ele>1083.4</ele>
        <time>2022-05-22 01:53:33</time>
      </trkpt>
      <trkpt lat="42.31388" lon="2.1241">
        <ele>1083.6</ele>
        <time>2022-05-22 01:53:34</time>
      </trkpt>
      <trkpt lat="42.31387" lon="2.12406">
        <ele>1083.6</ele>
        <time>2022-05-22 01:53:35</time>
      </trkpt>
      <trkpt lat="42.31387" lon="2.12402">
        <ele>1083.8</ele>
        <time>2022-05-22 01:53:36</time>
      </trkpt>
      <trkpt lat="42.31386" lon="2.12398">
        <ele>1083.8</ele>
        <time>2022-05-22 01:53:37</time>
      </trkpt>
      <trkpt lat="42.31386" lon="2.12394">
        <ele>1084</ele>
        <time>2022-05-22 01:53:38</time>
      </trkpt>
      <trkpt lat="42.31385" lon="2.1239">
        <ele>1084</ele>
        <time>2022-05-22 01:53:39</time>
      </trkpt>
      <trkpt lat="42.31384" lon="2.12385">
        <ele>1084.2</ele>
        <time>2022-05-22 01:53:40</time>
      </trkpt>
      <trkpt lat="42.31383" lon="2.12381">
        <ele>1084.4</ele>
        <time>2022-05-22 01:53:41</time>
      </trkpt>
      <trkpt lat="42.31383" lon="2.12377">
        <ele>1084.4</ele>
        <time>2022-05-22 01:53:42</time>
      </trkpt>
      <trkpt lat="42.31383" lon="2.12374">
        <ele>1084.6</ele>
        <time>2022-05-22 01:53:43</time>
      </trkpt>
      <trkpt lat="42.31382" lon="2.1237">
        <ele>1084.8</ele>
        <time>2022-05-22 01:53:44</time>
      </trkpt>
      <trkpt lat="42.31382" lon="2.12366">
        <ele>1084.8</ele>
        <time>2022-05-22 01:53:45</time>
      </trkpt>
      <trkpt lat="42.31382" lon="2.12362">
        <ele>1085</ele>
        <time>2022-05-22 01:53:46</time>
      </trkpt>
      <trkpt lat="42.31382" lon="2.12359">
        <ele>1085</ele>
        <time>2022-05-22 01:53:47</time>
      </trkpt>
      <trkpt lat="42.31382" lon="2.12355">
        <ele>1085.2</ele>
        <time>2022-05-22 01:53:48</time>
      </trkpt>
      <trkpt lat="42.31382" lon="2.12351">
        <ele>1085.2</ele>
        <time>2022-05-22 01:53:49</time>
      </trkpt>
      <trkpt lat="42.31383" lon="2.12347">
        <ele>1085.4</ele>
        <time>2022-05-22 01:53:50</time>
      </trkpt>
      <trkpt lat="42.31383" lon="2.12343">
        <ele>1085.6</ele>
        <time>2022-05-22 01:53:51</time>
      </trkpt>
      <trkpt lat="42.31383" lon="2.1234">
        <ele>1085.6</ele>
        <time>2022-05-22 01:53:52</time>
      </trkpt>
      <trkpt lat="42.31384" lon="2.12336">
        <ele>1085.8</ele>
        <time>2022-05-22 01:53:53</time>
      </trkpt>
      <trkpt lat="42.31385" lon="2.12333">
        <ele>1086</ele>
        <time>2022-05-22 01:53:54</time>
      </trkpt>
      <trkpt lat="42.31386" lon="2.12329">
        <ele>1086.2</ele>
        <time>2022-05-22 01:53:55</time>
      </trkpt>
      <trkpt lat="42.31387" lon="2.12326">
        <ele>1086.2</ele>
        <time>2022-05-22 01:53:56</time>
      </trkpt>
      <trkpt lat="42.31388" lon="2.12322">
        <ele>1086.4</ele>
        <time>2022-05-22 01:53:57</time>
      </trkpt>
      <trkpt lat="42.31389" lon="2.12319">
        <ele>1086.6</ele>
        <time>2022-05-22 01:53:58</time>
      </trkpt>
      <trkpt lat="42.3139" lon="2.12315">
        <ele>1086.6</ele>
        <time>2022-05-22 01:53:59</time>
      </trkpt>
      <trkpt lat="42.3139" lon="2.12312">
        <ele>1086.8</ele>
        <time>2022-05-22 01:54:00</time>
      </trkpt>
      <trkpt lat="42.31391" lon="2.12309">
        <ele>1087</ele>
        <time>2022-05-22 01:54:01</time>
      </trkpt>
      <trkpt lat="42.31392" lon="2.12305">
        <ele>1087</ele>
        <time>2022-05-22 01:54:02</time>
      </trkpt>
      <trkpt lat="42.31393" lon="2.12302">
        <ele>1087.2</ele>
        <time>2022-05-22 01:54:03</time>
      </trkpt>
      <trkpt lat="42.31394" lon="2.12298">
        <ele>1087.4</ele>
        <time>2022-05-22 01:54:04</time>
      </trkpt>
      <trkpt lat="42.31394" lon="2.12294">
        <ele>1087.4</ele>
        <time>2022-05-22 01:54:05</time>
      </trkpt>
      <trkpt lat="42.31395" lon="2.12291">
        <ele>1087.6</ele>
        <time>2022-05-22 01:54:06</time>
      </trkpt>
      <trkpt lat="42.31396" lon="2.12287">
        <ele>1087.8</ele>
        <time>2022-05-22 01:54:07</time>
      </trkpt>
      <trkpt lat="42.31397" lon="2.12284">
        <ele>1087.8</ele>
        <time>2022-05-22 01:54:08</time>
      </trkpt>
      <trkpt lat="42.31398" lon="2.1228">
        <ele>1088</ele>
        <time>2022-05-22 01:54:09</time>
      </trkpt>
      <trkpt lat="42.31399" lon="2.12276">
        <ele>1088</ele>
        <time>2022-05-22 01:54:10</time>
      </trkpt>
      <trkpt lat="42.314" lon="2.12273">
        <ele>1088.2</ele>
        <time>2022-05-22 01:54:11</time>
      </trkpt>
      <trkpt lat="42.31401" lon="2.12269">
        <ele>1088.2</ele>
        <time>2022-05-22 01:54:12</time>
      </trkpt>
      <trkpt lat="42.31402" lon="2.12266">
        <ele>1088.4</ele>
        <time>2022-05-22 01:54:13</time>
      </trkpt>
      <trkpt lat="42.31403" lon="2.12262">
        <ele>1088.4</ele>
        <time>2022-05-22 01:54:14</time>
      </trkpt>
      <trkpt lat="42.31404" lon="2.1226">
        <ele>1088.6</ele>
        <time>2022-05-22 01:54:15</time>
      </trkpt>
      <trkpt lat="42.31405" lon="2.12258">
        <ele>1088.6</ele>
        <time>2022-05-22 01:54:16</time>
      </trkpt>
      <trkpt lat="42.31407" lon="2.12253">
        <ele>1088.8</ele>
        <time>2022-05-22 01:54:17</time>
      </trkpt>
      <trkpt lat="42.31408" lon="2.12249">
        <ele>1088.8</ele>
        <time>2022-05-22 01:54:18</time>
      </trkpt>
      <trkpt lat="42.31409" lon="2.12247">
        <ele>1088.8</ele>
        <time>2022-05-22 01:54:19</time>
      </trkpt>
      <trkpt lat="42.31411" lon="2.12244">
        <ele>1089</ele>
        <time>2022-05-22 01:54:20</time>
      </trkpt>
      <trkpt lat="42.31413" lon="2.12241">
        <ele>1089</ele>
        <time>2022-05-22 01:54:21</time>
      </trkpt>
      <trkpt lat="42.31415" lon="2.12239">
        <ele>1089.2</ele>
        <time>2022-05-22 01:54:22</time>
      </trkpt>
      <trkpt lat="42.31417" lon="2.12237">
        <ele>1089.4</ele>
        <time>2022-05-22 01:54:23</time>
      </trkpt>
      <trkpt lat="42.31419" lon="2.12235">
        <ele>1089.4</ele>
        <time>2022-05-22 01:54:24</time>
      </trkpt>
      <trkpt lat="42.31421" lon="2.12233">
        <ele>1089.6</ele>
        <time>2022-05-22 01:54:25</time>
      </trkpt>
      <trkpt lat="42.31423" lon="2.12231">
        <ele>1089.8</ele>
        <time>2022-05-22 01:54:26</time>
      </trkpt>
      <trkpt lat="42.31425" lon="2.12229">
        <ele>1090</ele>
        <time>2022-05-22 01:54:27</time>
      </trkpt>
      <trkpt lat="42.31427" lon="2.12226">
        <ele>1090</ele>
        <time>2022-05-22 01:54:28</time>
      </trkpt>
      <trkpt lat="42.31429" lon="2.12223">
        <ele>1090.2</ele>
        <time>2022-05-22 01:54:29</time>
      </trkpt>
      <trkpt lat="42.3143" lon="2.12219">
        <ele>1090.2</ele>
        <time>2022-05-22 01:54:30</time>
      </trkpt>
      <trkpt lat="42.31432" lon="2.12215">
        <ele>1090.4</ele>
        <time>2022-05-22 01:54:31</time>
      </trkpt>
      <trkpt lat="42.31432" lon="2.12211">
        <ele>1090.6</ele>
        <time>2022-05-22 01:54:32</time>
      </trkpt>
      <trkpt lat="42.31433" lon="2.12207">
        <ele>1090.8</ele>
        <time>2022-05-22 01:54:33</time>
      </trkpt>
      <trkpt lat="42.31434" lon="2.12203">
        <ele>1090.8</ele>
        <time>2022-05-22 01:54:34</time>
      </trkpt>
      <trkpt lat="42.31436" lon="2.12199">
        <ele>1091</ele>
        <time>2022-05-22 01:54:35</time>
      </trkpt>
      <trkpt lat="42.31436" lon="2.12195">
        <ele>1091.2</ele>
        <time>2022-05-22 01:54:36</time>
      </trkpt>
      <trkpt lat="42.31437" lon="2.12191">
        <ele>1091.2</ele>
        <time>2022-05-22 01:54:37</time>
      </trkpt>
      <trkpt lat="42.31438" lon="2.12187">
        <ele>1091.4</ele>
        <time>2022-05-22 01:54:38</time>
      </trkpt>
      <trkpt lat="42.31438" lon="2.12183">
        <ele>1091.4</ele>
        <time>2022-05-22 01:54:39</time>
      </trkpt>
      <trkpt lat="42.31439" lon="2.12179">
        <ele>1091.6</ele>
        <time>2022-05-22 01:54:40</time>
      </trkpt>
      <trkpt lat="42.31439" lon="2.12176">
        <ele>1091.8</ele>
        <time>2022-05-22 01:54:41</time>
      </trkpt>
      <trkpt lat="42.31439" lon="2.12172">
        <ele>1091.8</ele>
        <time>2022-05-22 01:54:42</time>
      </trkpt>
      <trkpt lat="42.3144" lon="2.12169">
        <ele>1092</ele>
        <time>2022-05-22 01:54:43</time>
      </trkpt>
      <trkpt lat="42.31441" lon="2.12165">
        <ele>1092.2</ele>
        <time>2022-05-22 01:54:44</time>
      </trkpt>
      <trkpt lat="42.31442" lon="2.12161">
        <ele>1092.2</ele>
        <time>2022-05-22 01:54:45</time>
      </trkpt>
      <trkpt lat="42.31443" lon="2.12158">
        <ele>1092.4</ele>
        <time>2022-05-22 01:54:46</time>
      </trkpt>
      <trkpt lat="42.31444" lon="2.12154">
        <ele>1092.6</ele>
        <time>2022-05-22 01:54:47</time>
      </trkpt>
      <trkpt lat="42.31445" lon="2.12151">
        <ele>1092.8</ele>
        <time>2022-05-22 01:54:48</time>
      </trkpt>
      <trkpt lat="42.31446" lon="2.12148">
        <ele>1092.8</ele>
        <time>2022-05-22 01:54:49</time>
      </trkpt>
      <trkpt lat="42.31447" lon="2.12144">
        <ele>1093</ele>
        <time>2022-05-22 01:54:50</time>
      </trkpt>
      <trkpt lat="42.31448" lon="2.12141">
        <ele>1093.2</ele>
        <time>2022-05-22 01:54:51</time>
      </trkpt>
      <trkpt lat="42.3145" lon="2.12137">
        <ele>1093.2</ele>
        <time>2022-05-22 01:54:52</time>
      </trkpt>
      <trkpt lat="42.31451" lon="2.12134">
        <ele>1093.4</ele>
        <time>2022-05-22 01:54:53</time>
      </trkpt>
      <trkpt lat="42.31452" lon="2.1213">
        <ele>1093.6</ele>
        <time>2022-05-22 01:54:54</time>
      </trkpt>
      <trkpt lat="42.31453" lon="2.12126">
        <ele>1093.6</ele>
        <time>2022-05-22 01:54:55</time>
      </trkpt>
      <trkpt lat="42.31454" lon="2.12122">
        <ele>1093.8</ele>
        <time>2022-05-22 01:54:56</time>
      </trkpt>
      <trkpt lat="42.31454" lon="2.12118">
        <ele>1093.8</ele>
        <time>2022-05-22 01:54:57</time>
      </trkpt>
      <trkpt lat="42.31456" lon="2.12115">
        <ele>1094</ele>
        <time>2022-05-22 01:54:58</time>
      </trkpt>
      <trkpt lat="42.31457" lon="2.12112">
        <ele>1094</ele>
        <time>2022-05-22 01:54:59</time>
      </trkpt>
      <trkpt lat="42.31459" lon="2.12109">
        <ele>1094.2</ele>
        <time>2022-05-22 01:55:00</time>
      </trkpt>
      <trkpt lat="42.31461" lon="2.12106">
        <ele>1094.4</ele>
        <time>2022-05-22 01:55:01</time>
      </trkpt>
      <trkpt lat="42.31463" lon="2.12104">
        <ele>1094.4</ele>
        <time>2022-05-22 01:55:02</time>
      </trkpt>
      <trkpt lat="42.31465" lon="2.12102">
        <ele>1094.6</ele>
        <time>2022-05-22 01:55:03</time>
      </trkpt>
      <trkpt lat="42.31468" lon="2.12099">
        <ele>1094.8</ele>
        <time>2022-05-22 01:55:04</time>
      </trkpt>
      <trkpt lat="42.3147" lon="2.12097">
        <ele>1094.8</ele>
        <time>2022-05-22 01:55:05</time>
      </trkpt>
      <trkpt lat="42.31472" lon="2.12095">
        <ele>1095</ele>
        <time>2022-05-22 01:55:06</time>
      </trkpt>
      <trkpt lat="42.31474" lon="2.12093">
        <ele>1095.2</ele>
        <time>2022-05-22 01:55:07</time>
      </trkpt>
      <trkpt lat="42.31476" lon="2.12091">
        <ele>1095.2</ele>
        <time>2022-05-22 01:55:08</time>
      </trkpt>
      <trkpt lat="42.31478" lon="2.12089">
        <ele>1095.4</ele>
        <time>2022-05-22 01:55:09</time>
      </trkpt>
      <trkpt lat="42.3148" lon="2.12087">
        <ele>1095.6</ele>
        <time>2022-05-22 01:55:10</time>
      </trkpt>
      <trkpt lat="42.31483" lon="2.12086">
        <ele>1095.8</ele>
        <time>2022-05-22 01:55:11</time>
      </trkpt>
      <trkpt lat="42.31485" lon="2.12084">
        <ele>1095.8</ele>
        <time>2022-05-22 01:55:12</time>
      </trkpt>
      <trkpt lat="42.31487" lon="2.12082">
        <ele>1096</ele>
        <time>2022-05-22 01:55:13</time>
      </trkpt>
      <trkpt lat="42.31489" lon="2.1208">
        <ele>1096.2</ele>
        <time>2022-05-22 01:55:14</time>
      </trkpt>
      <trkpt lat="42.31492" lon="2.12078">
        <ele>1096.4</ele>
        <time>2022-05-22 01:55:15</time>
      </trkpt>
      <trkpt lat="42.31494" lon="2.12075">
        <ele>1096.4</ele>
        <time>2022-05-22 01:55:16</time>
      </trkpt>
      <trkpt lat="42.31495" lon="2.12073">
        <ele>1096.6</ele>
        <time>2022-05-22 01:55:17</time>
      </trkpt>
      <trkpt lat="42.31496" lon="2.12069">
        <ele>1096.6</ele>
        <time>2022-05-22 01:55:18</time>
      </trkpt>
      <trkpt lat="42.31497" lon="2.12065">
        <ele>1096.8</ele>
        <time>2022-05-22 01:55:19</time>
      </trkpt>
      <trkpt lat="42.31498" lon="2.12061">
        <ele>1096.8</ele>
        <time>2022-05-22 01:55:20</time>
      </trkpt>
      <trkpt lat="42.31498" lon="2.12057">
        <ele>1097</ele>
        <time>2022-05-22 01:55:21</time>
      </trkpt>
      <trkpt lat="42.31497" lon="2.12053">
        <ele>1097.2</ele>
        <time>2022-05-22 01:55:22</time>
      </trkpt>
      <trkpt lat="42.31497" lon="2.12048">
        <ele>1097.2</ele>
        <time>2022-05-22 01:55:23</time>
      </trkpt>
      <trkpt lat="42.31497" lon="2.12044">
        <ele>1097.4</ele>
        <time>2022-05-22 01:55:24</time>
      </trkpt>
      <trkpt lat="42.31496" lon="2.1204">
        <ele>1097.4</ele>
        <time>2022-05-22 01:55:25</time>
      </trkpt>
      <trkpt lat="42.31495" lon="2.12036">
        <ele>1097.6</ele>
        <time>2022-05-22 01:55:26</time>
      </trkpt>
      <trkpt lat="42.31495" lon="2.12032">
        <ele>1097.6</ele>
        <time>2022-05-22 01:55:27</time>
      </trkpt>
      <trkpt lat="42.31494" lon="2.12029">
        <ele>1097.8</ele>
        <time>2022-05-22 01:55:28</time>
      </trkpt>
      <trkpt lat="42.31493" lon="2.12025">
        <ele>1097.8</ele>
        <time>2022-05-22 01:55:29</time>
      </trkpt>
      <trkpt lat="42.31494" lon="2.1202">
        <ele>1098</ele>
        <time>2022-05-22 01:55:30</time>
      </trkpt>
      <trkpt lat="42.31495" lon="2.12015">
        <ele>1098</ele>
        <time>2022-05-22 01:55:31</time>
      </trkpt>
      <trkpt lat="42.31495" lon="2.12011">
        <ele>1098.2</ele>
        <time>2022-05-22 01:55:32</time>
      </trkpt>
      <trkpt lat="42.31495" lon="2.12007">
        <ele>1098.4</ele>
        <time>2022-05-22 01:55:33</time>
      </trkpt>
      <trkpt lat="42.31495" lon="2.12003">
        <ele>1098.4</ele>
        <time>2022-05-22 01:55:34</time>
      </trkpt>
      <trkpt lat="42.31495" lon="2.11999">
        <ele>1098.4</ele>
        <time>2022-05-22 01:55:35</time>
      </trkpt>
      <trkpt lat="42.31495" lon="2.11995">
        <ele>1098.6</ele>
        <time>2022-05-22 01:55:36</time>
      </trkpt>
      <trkpt lat="42.31495" lon="2.11992">
        <ele>1098.6</ele>
        <time>2022-05-22 01:55:37</time>
      </trkpt>
      <trkpt lat="42.31495" lon="2.11989">
        <ele>1098.8</ele>
        <time>2022-05-22 01:55:38</time>
      </trkpt>
      <trkpt lat="42.31496" lon="2.11985">
        <ele>1098.8</ele>
        <time>2022-05-22 01:55:39</time>
      </trkpt>
      <trkpt lat="42.31497" lon="2.11982">
        <ele>1099</ele>
        <time>2022-05-22 01:55:40</time>
      </trkpt>
      <trkpt lat="42.31498" lon="2.11979">
        <ele>1099</ele>
        <time>2022-05-22 01:55:41</time>
      </trkpt>
      <trkpt lat="42.315" lon="2.11977">
        <ele>1099.2</ele>
        <time>2022-05-22 01:55:42</time>
      </trkpt>
      <trkpt lat="42.31501" lon="2.11974">
        <ele>1099.2</ele>
        <time>2022-05-22 01:55:43</time>
      </trkpt>
      <trkpt lat="42.31503" lon="2.11972">
        <ele>1099.4</ele>
        <time>2022-05-22 01:55:44</time>
      </trkpt>
      <trkpt lat="42.31505" lon="2.11969">
        <ele>1099.6</ele>
        <time>2022-05-22 01:55:45</time>
      </trkpt>
      <trkpt lat="42.31507" lon="2.11967">
        <ele>1099.8</ele>
        <time>2022-05-22 01:55:46</time>
      </trkpt>
      <trkpt lat="42.31509" lon="2.11965">
        <ele>1099.8</ele>
        <time>2022-05-22 01:55:47</time>
      </trkpt>
      <trkpt lat="42.31511" lon="2.11964">
        <ele>1100</ele>
        <time>2022-05-22 01:55:48</time>
      </trkpt>
      <trkpt lat="42.31513" lon="2.11963">
        <ele>1100.2</ele>
        <time>2022-05-22 01:55:49</time>
      </trkpt>
      <trkpt lat="42.31516" lon="2.1196">
        <ele>1100.4</ele>
        <time>2022-05-22 01:55:50</time>
      </trkpt>
      <trkpt lat="42.31518" lon="2.11959">
        <ele>1100.4</ele>
        <time>2022-05-22 01:55:51</time>
      </trkpt>
      <trkpt lat="42.31521" lon="2.11957">
        <ele>1100.6</ele>
        <time>2022-05-22 01:55:52</time>
      </trkpt>
      <trkpt lat="42.31523" lon="2.11955">
        <ele>1100.8</ele>
        <time>2022-05-22 01:55:53</time>
      </trkpt>
      <trkpt lat="42.31526" lon="2.11954">
        <ele>1101</ele>
        <time>2022-05-22 01:55:54</time>
      </trkpt>
      <trkpt lat="42.31528" lon="2.11952">
        <ele>1101.2</ele>
        <time>2022-05-22 01:55:55</time>
      </trkpt>
      <trkpt lat="42.3153" lon="2.11951">
        <ele>1101.4</ele>
        <time>2022-05-22 01:55:56</time>
      </trkpt>
      <trkpt lat="42.31533" lon="2.11949">
        <ele>1101.4</ele>
        <time>2022-05-22 01:55:57</time>
      </trkpt>
      <trkpt lat="42.31535" lon="2.11947">
        <ele>1101.6</ele>
        <time>2022-05-22 01:55:58</time>
      </trkpt>
      <trkpt lat="42.31538" lon="2.11945">
        <ele>1101.8</ele>
        <time>2022-05-22 01:55:59</time>
      </trkpt>
      <trkpt lat="42.3154" lon="2.11943">
        <ele>1101.8</ele>
        <time>2022-05-22 01:56:00</time>
      </trkpt>
      <trkpt lat="42.31542" lon="2.11941">
        <ele>1102</ele>
        <time>2022-05-22 01:56:01</time>
      </trkpt>
      <trkpt lat="42.31544" lon="2.11938">
        <ele>1102</ele>
        <time>2022-05-22 01:56:02</time>
      </trkpt>
      <trkpt lat="42.31546" lon="2.11935">
        <ele>1102.2</ele>
        <time>2022-05-22 01:56:03</time>
      </trkpt>
      <trkpt lat="42.31547" lon="2.11931">
        <ele>1102.2</ele>
        <time>2022-05-22 01:56:04</time>
      </trkpt>
      <trkpt lat="42.31548" lon="2.11928">
        <ele>1102.4</ele>
        <time>2022-05-22 01:56:05</time>
      </trkpt>
      <trkpt lat="42.31549" lon="2.11924">
        <ele>1102.4</ele>
        <time>2022-05-22 01:56:06</time>
      </trkpt>
      <trkpt lat="42.3155" lon="2.1192">
        <ele>1102.4</ele>
        <time>2022-05-22 01:56:07</time>
      </trkpt>
      <trkpt lat="42.3155" lon="2.11916">
        <ele>1102.6</ele>
        <time>2022-05-22 01:56:08</time>
      </trkpt>
      <trkpt lat="42.3155" lon="2.11912">
        <ele>1102.6</ele>
        <time>2022-05-22 01:56:09</time>
      </trkpt>
      <trkpt lat="42.3155" lon="2.11908">
        <ele>1102.6</ele>
        <time>2022-05-22 01:56:10</time>
      </trkpt>
      <trkpt lat="42.3155" lon="2.11903">
        <ele>1102.6</ele>
        <time>2022-05-22 01:56:11</time>
      </trkpt>
      <trkpt lat="42.3155" lon="2.11899">
        <ele>1102.6</ele>
        <time>2022-05-22 01:56:12</time>
      </trkpt>
      <trkpt lat="42.31549" lon="2.11894">
        <ele>1102.8</ele>
        <time>2022-05-22 01:56:13</time>
      </trkpt>
      <trkpt lat="42.31548" lon="2.1189">
        <ele>1102.8</ele>
        <time>2022-05-22 01:56:14</time>
      </trkpt>
      <trkpt lat="42.31547" lon="2.11885">
        <ele>1102.8</ele>
        <time>2022-05-22 01:56:15</time>
      </trkpt>
      <trkpt lat="42.31546" lon="2.11881">
        <ele>1102.8</ele>
        <time>2022-05-22 01:56:16</time>
      </trkpt>
      <trkpt lat="42.31545" lon="2.11876">
        <ele>1102.8</ele>
        <time>2022-05-22 01:56:17</time>
      </trkpt>
      <trkpt lat="42.31544" lon="2.11871">
        <ele>1103</ele>
        <time>2022-05-22 01:56:18</time>
      </trkpt>
      <trkpt lat="42.31543" lon="2.11867">
        <ele>1103</ele>
        <time>2022-05-22 01:56:19</time>
      </trkpt>
      <trkpt lat="42.31542" lon="2.11862">
        <ele>1103</ele>
        <time>2022-05-22 01:56:20</time>
      </trkpt>
      <trkpt lat="42.31541" lon="2.11857">
        <ele>1103</ele>
        <time>2022-05-22 01:56:21</time>
      </trkpt>
      <trkpt lat="42.3154" lon="2.11853">
        <ele>1103</ele>
        <time>2022-05-22 01:56:22</time>
      </trkpt>
      <trkpt lat="42.3154" lon="2.11848">
        <ele>1103</ele>
        <time>2022-05-22 01:56:23</time>
      </trkpt>
      <trkpt lat="42.3154" lon="2.11843">
        <ele>1103</ele>
        <time>2022-05-22 01:56:24</time>
      </trkpt>
      <trkpt lat="42.3154" lon="2.11838">
        <ele>1103</ele>
        <time>2022-05-22 01:56:25</time>
      </trkpt>
      <trkpt lat="42.3154" lon="2.11833">
        <ele>1103</ele>
        <time>2022-05-22 01:56:26</time>
      </trkpt>
      <trkpt lat="42.31541" lon="2.11828">
        <ele>1103.2</ele>
        <time>2022-05-22 01:56:27</time>
      </trkpt>
      <trkpt lat="42.31542" lon="2.11824">
        <ele>1103.2</ele>
        <time>2022-05-22 01:56:28</time>
      </trkpt>
      <trkpt lat="42.31543" lon="2.1182">
        <ele>1103.4</ele>
        <time>2022-05-22 01:56:29</time>
      </trkpt>
      <trkpt lat="42.31545" lon="2.11816">
        <ele>1103.4</ele>
        <time>2022-05-22 01:56:30</time>
      </trkpt>
      <trkpt lat="42.31547" lon="2.11812">
        <ele>1103.6</ele>
        <time>2022-05-22 01:56:31</time>
      </trkpt>
      <trkpt lat="42.31548" lon="2.11809">
        <ele>1103.8</ele>
        <time>2022-05-22 01:56:32</time>
      </trkpt>
      <trkpt lat="42.3155" lon="2.11805">
        <ele>1103.8</ele>
        <time>2022-05-22 01:56:33</time>
      </trkpt>
      <trkpt lat="42.31551" lon="2.11801">
        <ele>1104</ele>
        <time>2022-05-22 01:56:34</time>
      </trkpt>
      <trkpt lat="42.31552" lon="2.11798">
        <ele>1104</ele>
        <time>2022-05-22 01:56:35</time>
      </trkpt>
      <trkpt lat="42.31553" lon="2.11794">
        <ele>1104.2</ele>
        <time>2022-05-22 01:56:36</time>
      </trkpt>
      <trkpt lat="42.31553" lon="2.1179">
        <ele>1104.2</ele>
        <time>2022-05-22 01:56:37</time>
      </trkpt>
      <trkpt lat="42.31554" lon="2.11786">
        <ele>1104.4</ele>
        <time>2022-05-22 01:56:38</time>
      </trkpt>
      <trkpt lat="42.31555" lon="2.11782">
        <ele>1104.6</ele>
        <time>2022-05-22 01:56:39</time>
      </trkpt>
      <trkpt lat="42.31556" lon="2.11778">
        <ele>1104.8</ele>
        <time>2022-05-22 01:56:40</time>
      </trkpt>
      <trkpt lat="42.31556" lon="2.11774">
        <ele>1104.8</ele>
        <time>2022-05-22 01:56:41</time>
      </trkpt>
      <trkpt lat="42.31556" lon="2.1177">
        <ele>1105</ele>
        <time>2022-05-22 01:56:42</time>
      </trkpt>
      <trkpt lat="42.31556" lon="2.11766">
        <ele>1105</ele>
        <time>2022-05-22 01:56:43</time>
      </trkpt>
      <trkpt lat="42.31557" lon="2.11762">
        <ele>1105.2</ele>
        <time>2022-05-22 01:56:44</time>
      </trkpt>
      <trkpt lat="42.31557" lon="2.11759">
        <ele>1105.2</ele>
        <time>2022-05-22 01:56:45</time>
      </trkpt>
      <trkpt lat="42.31558" lon="2.11755">
        <ele>1105.4</ele>
        <time>2022-05-22 01:56:46</time>
      </trkpt>
      <trkpt lat="42.31559" lon="2.11751">
        <ele>1105.4</ele>
        <time>2022-05-22 01:56:47</time>
      </trkpt>
      <trkpt lat="42.31559" lon="2.11748">
        <ele>1105.6</ele>
        <time>2022-05-22 01:56:48</time>
      </trkpt>
      <trkpt lat="42.3156" lon="2.11744">
        <ele>1105.8</ele>
        <time>2022-05-22 01:56:49</time>
      </trkpt>
      <trkpt lat="42.3156" lon="2.11741">
        <ele>1106</ele>
        <time>2022-05-22 01:56:50</time>
      </trkpt>
      <trkpt lat="42.31561" lon="2.11737">
        <ele>1106.2</ele>
        <time>2022-05-22 01:56:51</time>
      </trkpt>
      <trkpt lat="42.31562" lon="2.11734">
        <ele>1106.2</ele>
        <time>2022-05-22 01:56:52</time>
      </trkpt>
      <trkpt lat="42.31562" lon="2.11731">
        <ele>1106.4</ele>
        <time>2022-05-22 01:56:53</time>
      </trkpt>
      <trkpt lat="42.31563" lon="2.11728">
        <ele>1106.6</ele>
        <time>2022-05-22 01:56:54</time>
      </trkpt>
      <trkpt lat="42.31564" lon="2.11724">
        <ele>1106.6</ele>
        <time>2022-05-22 01:56:55</time>
      </trkpt>
      <trkpt lat="42.31565" lon="2.11721">
        <ele>1106.8</ele>
        <time>2022-05-22 01:56:56</time>
      </trkpt>
      <trkpt lat="42.31565" lon="2.11718">
        <ele>1107</ele>
        <time>2022-05-22 01:56:57</time>
      </trkpt>
      <trkpt lat="42.31566" lon="2.11714">
        <ele>1107</ele>
        <time>2022-05-22 01:56:58</time>
      </trkpt>
      <trkpt lat="42.31566" lon="2.11711">
        <ele>1107.2</ele>
        <time>2022-05-22 01:56:59</time>
      </trkpt>
      <trkpt lat="42.31567" lon="2.11708">
        <ele>1107.2</ele>
        <time>2022-05-22 01:57:00</time>
      </trkpt>
      <trkpt lat="42.31568" lon="2.11705">
        <ele>1107.4</ele>
        <time>2022-05-22 01:57:01</time>
      </trkpt>
      <trkpt lat="42.31569" lon="2.11701">
        <ele>1107.4</ele>
        <time>2022-05-22 01:57:02</time>
      </trkpt>
      <trkpt lat="42.31569" lon="2.11698">
        <ele>1107.6</ele>
        <time>2022-05-22 01:57:03</time>
      </trkpt>
      <trkpt lat="42.3157" lon="2.11696">
        <ele>1107.8</ele>
        <time>2022-05-22 01:57:04</time>
      </trkpt>
      <trkpt lat="42.31571" lon="2.11693">
        <ele>1108</ele>
        <time>2022-05-22 01:57:05</time>
      </trkpt>
      <trkpt lat="42.31572" lon="2.1169">
        <ele>1108</ele>
        <time>2022-05-22 01:57:06</time>
      </trkpt>
      <trkpt lat="42.31573" lon="2.11687">
        <ele>1108.2</ele>
        <time>2022-05-22 01:57:07</time>
      </trkpt>
      <trkpt lat="42.31575" lon="2.11685">
        <ele>1108.2</ele>
        <time>2022-05-22 01:57:08</time>
      </trkpt>
      <trkpt lat="42.31576" lon="2.11683">
        <ele>1108.4</ele>
        <time>2022-05-22 01:57:09</time>
      </trkpt>
      <trkpt lat="42.31577" lon="2.11681">
        <ele>1108.4</ele>
        <time>2022-05-22 01:57:10</time>
      </trkpt>
      <trkpt lat="42.31579" lon="2.11678">
        <ele>1108.6</ele>
        <time>2022-05-22 01:57:11</time>
      </trkpt>
      <trkpt lat="42.3158" lon="2.11676">
        <ele>1108.8</ele>
        <time>2022-05-22 01:57:12</time>
      </trkpt>
      <trkpt lat="42.31582" lon="2.11674">
        <ele>1109</ele>
        <time>2022-05-22 01:57:13</time>
      </trkpt>
      <trkpt lat="42.31583" lon="2.11672">
        <ele>1109</ele>
        <time>2022-05-22 01:57:14</time>
      </trkpt>
      <trkpt lat="42.31585" lon="2.1167">
        <ele>1109.2</ele>
        <time>2022-05-22 01:57:15</time>
      </trkpt>
      <trkpt lat="42.31587" lon="2.11668">
        <ele>1109.4</ele>
        <time>2022-05-22 01:57:16</time>
      </trkpt>
      <trkpt lat="42.31588" lon="2.11665">
        <ele>1109.4</ele>
        <time>2022-05-22 01:57:17</time>
      </trkpt>
      <trkpt lat="42.3159" lon="2.11663">
        <ele>1109.6</ele>
        <time>2022-05-22 01:57:18</time>
      </trkpt>
      <trkpt lat="42.31591" lon="2.1166">
        <ele>1109.8</ele>
        <time>2022-05-22 01:57:19</time>
      </trkpt>
      <trkpt lat="42.31593" lon="2.11657">
        <ele>1109.8</ele>
        <time>2022-05-22 01:57:20</time>
      </trkpt>
      <trkpt lat="42.31594" lon="2.11654">
        <ele>1110</ele>
        <time>2022-05-22 01:57:21</time>
      </trkpt>
      <trkpt lat="42.31595" lon="2.11651">
        <ele>1110.2</ele>
        <time>2022-05-22 01:57:22</time>
      </trkpt>
      <trkpt lat="42.31596" lon="2.11648">
        <ele>1110.2</ele>
        <time>2022-05-22 01:57:23</time>
      </trkpt>
      <trkpt lat="42.31596" lon="2.11645">
        <ele>1110.4</ele>
        <time>2022-05-22 01:57:24</time>
      </trkpt>
      <trkpt lat="42.31597" lon="2.11642">
        <ele>1110.4</ele>
        <time>2022-05-22 01:57:25</time>
      </trkpt>
      <trkpt lat="42.31597" lon="2.11639">
        <ele>1110.6</ele>
        <time>2022-05-22 01:57:26</time>
      </trkpt>
      <trkpt lat="42.31598" lon="2.11635">
        <ele>1110.6</ele>
        <time>2022-05-22 01:57:27</time>
      </trkpt>
      <trkpt lat="42.31598" lon="2.11632">
        <ele>1110.8</ele>
        <time>2022-05-22 01:57:28</time>
      </trkpt>
      <trkpt lat="42.31599" lon="2.11629">
        <ele>1111</ele>
        <time>2022-05-22 01:57:29</time>
      </trkpt>
      <trkpt lat="42.31599" lon="2.11626">
        <ele>1111</ele>
        <time>2022-05-22 01:57:30</time>
      </trkpt>
      <trkpt lat="42.31599" lon="2.11623">
        <ele>1111.2</ele>
        <time>2022-05-22 01:57:31</time>
      </trkpt>
      <trkpt lat="42.316" lon="2.1162">
        <ele>1111.2</ele>
        <time>2022-05-22 01:57:32</time>
      </trkpt>
      <trkpt lat="42.316" lon="2.11617">
        <ele>1111.4</ele>
        <time>2022-05-22 01:57:33</time>
      </trkpt>
      <trkpt lat="42.316" lon="2.11614">
        <ele>1111.6</ele>
        <time>2022-05-22 01:57:34</time>
      </trkpt>
      <trkpt lat="42.316" lon="2.1161">
        <ele>1111.6</ele>
        <time>2022-05-22 01:57:35</time>
      </trkpt>
      <trkpt lat="42.316" lon="2.11607">
        <ele>1111.8</ele>
        <time>2022-05-22 01:57:36</time>
      </trkpt>
      <trkpt lat="42.316" lon="2.11604">
        <ele>1111.8</ele>
        <time>2022-05-22 01:57:37</time>
      </trkpt>
      <trkpt lat="42.316" lon="2.11601">
        <ele>1112</ele>
        <time>2022-05-22 01:57:38</time>
      </trkpt>
      <trkpt lat="42.316" lon="2.11598">
        <ele>1112</ele>
        <time>2022-05-22 01:57:39</time>
      </trkpt>
      <trkpt lat="42.31601" lon="2.11594">
        <ele>1112.2</ele>
        <time>2022-05-22 01:57:40</time>
      </trkpt>
      <trkpt lat="42.31601" lon="2.11591">
        <ele>1112.2</ele>
        <time>2022-05-22 01:57:41</time>
      </trkpt>
      <trkpt lat="42.31601" lon="2.11588">
        <ele>1112.4</ele>
        <time>2022-05-22 01:57:42</time>
      </trkpt>
      <trkpt lat="42.31602" lon="2.11585">
        <ele>1112.6</ele>
        <time>2022-05-22 01:57:43</time>
      </trkpt>
      <trkpt lat="42.31602" lon="2.11582">
        <ele>1112.6</ele>
        <time>2022-05-22 01:57:44</time>
      </trkpt>
      <trkpt lat="42.31602" lon="2.11579">
        <ele>1112.8</ele>
        <time>2022-05-22 01:57:45</time>
      </trkpt>
      <trkpt lat="42.31602" lon="2.11576">
        <ele>1112.8</ele>
        <time>2022-05-22 01:57:46</time>
      </trkpt>
      <trkpt lat="42.31602" lon="2.11572">
        <ele>1113</ele>
        <time>2022-05-22 01:57:47</time>
      </trkpt>
      <trkpt lat="42.31602" lon="2.11569">
        <ele>1113.2</ele>
        <time>2022-05-22 01:57:48</time>
      </trkpt>
      <trkpt lat="42.31602" lon="2.11567">
        <ele>1113.4</ele>
        <time>2022-05-22 01:57:49</time>
      </trkpt>
      <trkpt lat="42.31602" lon="2.11563">
        <ele>1113.4</ele>
        <time>2022-05-22 01:57:50</time>
      </trkpt>
      <trkpt lat="42.31601" lon="2.1156">
        <ele>1113.6</ele>
        <time>2022-05-22 01:57:51</time>
      </trkpt>
      <trkpt lat="42.31601" lon="2.11557">
        <ele>1113.6</ele>
        <time>2022-05-22 01:57:52</time>
      </trkpt>
      <trkpt lat="42.31601" lon="2.11554">
        <ele>1113.8</ele>
        <time>2022-05-22 01:57:53</time>
      </trkpt>
      <trkpt lat="42.31601" lon="2.11551">
        <ele>1114</ele>
        <time>2022-05-22 01:57:54</time>
      </trkpt>
      <trkpt lat="42.31601" lon="2.11548">
        <ele>1114.2</ele>
        <time>2022-05-22 01:57:55</time>
      </trkpt>
      <trkpt lat="42.31601" lon="2.11545">
        <ele>1114.2</ele>
        <time>2022-05-22 01:57:56</time>
      </trkpt>
      <trkpt lat="42.31601" lon="2.11542">
        <ele>1114.4</ele>
        <time>2022-05-22 01:57:57</time>
      </trkpt>
      <trkpt lat="42.31601" lon="2.11539">
        <ele>1114.6</ele>
        <time>2022-05-22 01:57:58</time>
      </trkpt>
      <trkpt lat="42.31601" lon="2.11536">
        <ele>1114.6</ele>
        <time>2022-05-22 01:57:59</time>
      </trkpt>
      <trkpt lat="42.31601" lon="2.11533">
        <ele>1114.8</ele>
        <time>2022-05-22 01:58:00</time>
      </trkpt>
      <trkpt lat="42.31602" lon="2.11529">
        <ele>1115</ele>
        <time>2022-05-22 01:58:01</time>
      </trkpt>
      <trkpt lat="42.31602" lon="2.11526">
        <ele>1115</ele>
        <time>2022-05-22 01:58:02</time>
      </trkpt>
      <trkpt lat="42.31602" lon="2.11523">
        <ele>1115.2</ele>
        <time>2022-05-22 01:58:03</time>
      </trkpt>
      <trkpt lat="42.31602" lon="2.1152">
        <ele>1115.2</ele>
        <time>2022-05-22 01:58:04</time>
      </trkpt>
      <trkpt lat="42.31602" lon="2.11517">
        <ele>1115.4</ele>
        <time>2022-05-22 01:58:05</time>
      </trkpt>
      <trkpt lat="42.31602" lon="2.11514">
        <ele>1115.6</ele>
        <time>2022-05-22 01:58:06</time>
      </trkpt>
      <trkpt lat="42.31601" lon="2.11511">
        <ele>1115.6</ele>
        <time>2022-05-22 01:58:07</time>
      </trkpt>
      <trkpt lat="42.31601" lon="2.11508">
        <ele>1115.8</ele>
        <time>2022-05-22 01:58:08</time>
      </trkpt>
      <trkpt lat="42.31601" lon="2.11505">
        <ele>1115.8</ele>
        <time>2022-05-22 01:58:09</time>
      </trkpt>
      <trkpt lat="42.31601" lon="2.11502">
        <ele>1116</ele>
        <time>2022-05-22 01:58:10</time>
      </trkpt>
      <trkpt lat="42.31601" lon="2.11499">
        <ele>1116</ele>
        <time>2022-05-22 01:58:11</time>
      </trkpt>
      <trkpt lat="42.31601" lon="2.11496">
        <ele>1116.2</ele>
        <time>2022-05-22 01:58:12</time>
      </trkpt>
      <trkpt lat="42.31601" lon="2.11493">
        <ele>1116.4</ele>
        <time>2022-05-22 01:58:13</time>
      </trkpt>
      <trkpt lat="42.31601" lon="2.1149">
        <ele>1116.4</ele>
        <time>2022-05-22 01:58:14</time>
      </trkpt>
      <trkpt lat="42.31601" lon="2.11487">
        <ele>1116.6</ele>
        <time>2022-05-22 01:58:15</time>
      </trkpt>
      <trkpt lat="42.31601" lon="2.11484">
        <ele>1116.6</ele>
        <time>2022-05-22 01:58:16</time>
      </trkpt>
      <trkpt lat="42.31601" lon="2.11481">
        <ele>1116.8</ele>
        <time>2022-05-22 01:58:17</time>
      </trkpt>
      <trkpt lat="42.31602" lon="2.11478">
        <ele>1116.8</ele>
        <time>2022-05-22 01:58:18</time>
      </trkpt>
      <trkpt lat="42.31602" lon="2.11474">
        <ele>1117</ele>
        <time>2022-05-22 01:58:19</time>
      </trkpt>
      <trkpt lat="42.31602" lon="2.11471">
        <ele>1117</ele>
        <time>2022-05-22 01:58:20</time>
      </trkpt>
      <trkpt lat="42.31602" lon="2.11468">
        <ele>1117.2</ele>
        <time>2022-05-22 01:58:21</time>
      </trkpt>
      <trkpt lat="42.31602" lon="2.11464">
        <ele>1117.2</ele>
        <time>2022-05-22 01:58:22</time>
      </trkpt>
      <trkpt lat="42.31602" lon="2.11461">
        <ele>1117.4</ele>
        <time>2022-05-22 01:58:23</time>
      </trkpt>
      <trkpt lat="42.31602" lon="2.11459">
        <ele>1117.4</ele>
        <time>2022-05-22 01:58:24</time>
      </trkpt>
      <trkpt lat="42.31602" lon="2.11456">
        <ele>1117.6</ele>
        <time>2022-05-22 01:58:25</time>
      </trkpt>
      <trkpt lat="42.31602" lon="2.11453">
        <ele>1117.8</ele>
        <time>2022-05-22 01:58:26</time>
      </trkpt>
      <trkpt lat="42.31602" lon="2.1145">
        <ele>1117.8</ele>
        <time>2022-05-22 01:58:27</time>
      </trkpt>
      <trkpt lat="42.31603" lon="2.11447">
        <ele>1118</ele>
        <time>2022-05-22 01:58:28</time>
      </trkpt>
      <trkpt lat="42.31603" lon="2.11443">
        <ele>1118</ele>
        <time>2022-05-22 01:58:29</time>
      </trkpt>
      <trkpt lat="42.31604" lon="2.1144">
        <ele>1118.2</ele>
        <time>2022-05-22 01:58:30</time>
      </trkpt>
      <trkpt lat="42.31605" lon="2.11437">
        <ele>1118.2</ele>
        <time>2022-05-22 01:58:31</time>
      </trkpt>
      <trkpt lat="42.31605" lon="2.11434">
        <ele>1118.4</ele>
        <time>2022-05-22 01:58:32</time>
      </trkpt>
      <trkpt lat="42.31606" lon="2.11431">
        <ele>1118.4</ele>
        <time>2022-05-22 01:58:33</time>
      </trkpt>
      <trkpt lat="42.31607" lon="2.11428">
        <ele>1118.6</ele>
        <time>2022-05-22 01:58:34</time>
      </trkpt>
      <trkpt lat="42.31608" lon="2.11425">
        <ele>1118.8</ele>
        <time>2022-05-22 01:58:35</time>
      </trkpt>
      <trkpt lat="42.31609" lon="2.11422">
        <ele>1118.8</ele>
        <time>2022-05-22 01:58:36</time>
      </trkpt>
      <trkpt lat="42.31609" lon="2.11419">
        <ele>1119</ele>
        <time>2022-05-22 01:58:37</time>
      </trkpt>
      <trkpt lat="42.3161" lon="2.11416">
        <ele>1119.2</ele>
        <time>2022-05-22 01:58:38</time>
      </trkpt>
      <trkpt lat="42.31611" lon="2.11413">
        <ele>1119.2</ele>
        <time>2022-05-22 01:58:39</time>
      </trkpt>
      <trkpt lat="42.31612" lon="2.1141">
        <ele>1119.4</ele>
        <time>2022-05-22 01:58:40</time>
      </trkpt>
      <trkpt lat="42.31613" lon="2.11407">
        <ele>1119.4</ele>
        <time>2022-05-22 01:58:41</time>
      </trkpt>
      <trkpt lat="42.31614" lon="2.11404">
        <ele>1119.6</ele>
        <time>2022-05-22 01:58:42</time>
      </trkpt>
      <trkpt lat="42.31616" lon="2.11401">
        <ele>1119.6</ele>
        <time>2022-05-22 01:58:43</time>
      </trkpt>
      <trkpt lat="42.31617" lon="2.11398">
        <ele>1119.8</ele>
        <time>2022-05-22 01:58:44</time>
      </trkpt>
      <trkpt lat="42.31618" lon="2.11395">
        <ele>1119.8</ele>
        <time>2022-05-22 01:58:45</time>
      </trkpt>
      <trkpt lat="42.3162" lon="2.11392">
        <ele>1120</ele>
        <time>2022-05-22 01:58:46</time>
      </trkpt>
      <trkpt lat="42.31621" lon="2.11389">
        <ele>1120</ele>
        <time>2022-05-22 01:58:47</time>
      </trkpt>
      <trkpt lat="42.31623" lon="2.11387">
        <ele>1120.2</ele>
        <time>2022-05-22 01:58:48</time>
      </trkpt>
      <trkpt lat="42.31625" lon="2.11385">
        <ele>1120.2</ele>
        <time>2022-05-22 01:58:49</time>
      </trkpt>
      <trkpt lat="42.31627" lon="2.11383">
        <ele>1120.4</ele>
        <time>2022-05-22 01:58:50</time>
      </trkpt>
      <trkpt lat="42.31629" lon="2.1138">
        <ele>1120.4</ele>
        <time>2022-05-22 01:58:51</time>
      </trkpt>
      <trkpt lat="42.31631" lon="2.11379">
        <ele>1120.6</ele>
        <time>2022-05-22 01:58:52</time>
      </trkpt>
      <trkpt lat="42.31633" lon="2.11377">
        <ele>1120.6</ele>
        <time>2022-05-22 01:58:53</time>
      </trkpt>
      <trkpt lat="42.31636" lon="2.11376">
        <ele>1120.8</ele>
        <time>2022-05-22 01:58:54</time>
      </trkpt>
      <trkpt lat="42.31638" lon="2.11377">
        <ele>1120.8</ele>
        <time>2022-05-22 01:58:55</time>
      </trkpt>
      <trkpt lat="42.31641" lon="2.11377">
        <ele>1121</ele>
        <time>2022-05-22 01:58:56</time>
      </trkpt>
      <trkpt lat="42.31643" lon="2.11377">
        <ele>1121.2</ele>
        <time>2022-05-22 01:58:57</time>
      </trkpt>
      <trkpt lat="42.31645" lon="2.11376">
        <ele>1121.2</ele>
        <time>2022-05-22 01:58:58</time>
      </trkpt>
      <trkpt lat="42.31647" lon="2.11376">
        <ele>1121.4</ele>
        <time>2022-05-22 01:58:59</time>
      </trkpt>
      <trkpt lat="42.31649" lon="2.11375">
        <ele>1121.4</ele>
        <time>2022-05-22 01:59:00</time>
      </trkpt>
      <trkpt lat="42.31651" lon="2.11375">
        <ele>1121.6</ele>
        <time>2022-05-22 01:59:01</time>
      </trkpt>
      <trkpt lat="42.31653" lon="2.11374">
        <ele>1121.8</ele>
        <time>2022-05-22 01:59:02</time>
      </trkpt>
      <trkpt lat="42.31656" lon="2.11373">
        <ele>1121.8</ele>
        <time>2022-05-22 01:59:03</time>
      </trkpt>
      <trkpt lat="42.31658" lon="2.11372">
        <ele>1122</ele>
        <time>2022-05-22 01:59:04</time>
      </trkpt>
      <trkpt lat="42.3166" lon="2.11372">
        <ele>1122</ele>
        <time>2022-05-22 01:59:05</time>
      </trkpt>
      <trkpt lat="42.31662" lon="2.11371">
        <ele>1122.2</ele>
        <time>2022-05-22 01:59:06</time>
      </trkpt>
      <trkpt lat="42.31664" lon="2.11371">
        <ele>1122.2</ele>
        <time>2022-05-22 01:59:07</time>
      </trkpt>
      <trkpt lat="42.31666" lon="2.11371">
        <ele>1122.4</ele>
        <time>2022-05-22 01:59:08</time>
      </trkpt>
      <trkpt lat="42.31668" lon="2.1137">
        <ele>1122.4</ele>
        <time>2022-05-22 01:59:09</time>
      </trkpt>
      <trkpt lat="42.31671" lon="2.11369">
        <ele>1122.6</ele>
        <time>2022-05-22 01:59:10</time>
      </trkpt>
      <trkpt lat="42.31672" lon="2.11369">
        <ele>1122.8</ele>
        <time>2022-05-22 01:59:11</time>
      </trkpt>
      <trkpt lat="42.31674" lon="2.11368">
        <ele>1122.8</ele>
        <time>2022-05-22 01:59:12</time>
      </trkpt>
      <trkpt lat="42.31676" lon="2.11368">
        <ele>1123</ele>
        <time>2022-05-22 01:59:13</time>
      </trkpt>
      <trkpt lat="42.31678" lon="2.11367">
        <ele>1123</ele>
        <time>2022-05-22 01:59:14</time>
      </trkpt>
      <trkpt lat="42.3168" lon="2.11367">
        <ele>1123.2</ele>
        <time>2022-05-22 01:59:15</time>
      </trkpt>
      <trkpt lat="42.31682" lon="2.11366">
        <ele>1123.2</ele>
        <time>2022-05-22 01:59:16</time>
      </trkpt>
      <trkpt lat="42.31684" lon="2.11365">
        <ele>1123.4</ele>
        <time>2022-05-22 01:59:17</time>
      </trkpt>
      <trkpt lat="42.31686" lon="2.11365">
        <ele>1123.6</ele>
        <time>2022-05-22 01:59:18</time>
      </trkpt>
      <trkpt lat="42.31688" lon="2.11364">
        <ele>1123.6</ele>
        <time>2022-05-22 01:59:19</time>
      </trkpt>
      <trkpt lat="42.3169" lon="2.11363">
        <ele>1123.8</ele>
        <time>2022-05-22 01:59:20</time>
      </trkpt>
      <trkpt lat="42.31692" lon="2.11362">
        <ele>1123.8</ele>
        <time>2022-05-22 01:59:21</time>
      </trkpt>
      <trkpt lat="42.31694" lon="2.11361">
        <ele>1124</ele>
        <time>2022-05-22 01:59:22</time>
      </trkpt>
      <trkpt lat="42.31696" lon="2.1136">
        <ele>1124</ele>
        <time>2022-05-22 01:59:23</time>
      </trkpt>
      <trkpt lat="42.31698" lon="2.11359">
        <ele>1124.2</ele>
        <time>2022-05-22 01:59:24</time>
      </trkpt>
      <trkpt lat="42.31701" lon="2.11358">
        <ele>1124.4</ele>
        <time>2022-05-22 01:59:25</time>
      </trkpt>
      <trkpt lat="42.320022" lon="2.110414">
        <ele>1199.880003</ele>
        <time>2022-05-22T00:09:47.103Z</time>
      </trkpt>
      <trkpt lat="42.320158" lon="2.110386">
        <ele>1199.880003</ele>
        <time>2022-05-22T00:09:49.093Z</time>
      </trkpt>
      <trkpt lat="42.320205" lon="2.110493">
        <ele>1199.880003</ele>
        <time>2022-05-22T00:09:50.722Z</time>
      </trkpt>
      <trkpt lat="42.320105" lon="2.110359">
        <ele>1199.880003</ele>
        <time>2022-05-22T00:10:45.728Z</time>
      </trkpt>
      <trkpt lat="42.320109" lon="2.110233">
        <ele>1199.880003</ele>
        <time>2022-05-22T00:10:51.723Z</time>
      </trkpt>
      <trkpt lat="42.320104" lon="2.110094">
        <ele>1199.880003</ele>
        <time>2022-05-22T00:10:56.725Z</time>
      </trkpt>
      <trkpt lat="42.320095" lon="2.109964">
        <ele>1199.880003</ele>
        <time>2022-05-22T00:11:01.727Z</time>
      </trkpt>
      <trkpt lat="42.320069" lon="2.109819">
        <ele>1199.880003</ele>
        <time>2022-05-22T00:11:07.722Z</time>
      </trkpt>
      <trkpt lat="42.320007" lon="2.109697">
        <ele>1199.880003</ele>
        <time>2022-05-22T00:11:12.729Z</time>
      </trkpt>
      <trkpt lat="42.319940" lon="2.109601">
        <ele>1200.065769</ele>
        <time>2022-05-22T00:11:16.723Z</time>
      </trkpt>
      <trkpt lat="42.319855" lon="2.109525">
        <ele>1200.299125</ele>
        <time>2022-05-22T00:11:21.731Z</time>
      </trkpt>
      <trkpt lat="42.319767" lon="2.109457">
        <ele>1200.531233</ele>
        <time>2022-05-22T00:11:26.725Z</time>
      </trkpt>
      <trkpt lat="42.319690" lon="2.109373">
        <ele>1200.757791</ele>
        <time>2022-05-22T00:11:31.725Z</time>
      </trkpt>
      <trkpt lat="42.319592" lon="2.109299">
        <ele>1201.014836</ele>
        <time>2022-05-22T00:11:36.712Z</time>
      </trkpt>
      <trkpt lat="42.319493" lon="2.109229">
        <ele>1201.270676</ele>
        <time>2022-05-22T00:11:41.731Z</time>
      </trkpt>
      <trkpt lat="42.319397" lon="2.109162">
        <ele>1201.518078</ele>
        <time>2022-05-22T00:11:46.725Z</time>
      </trkpt>
      <trkpt lat="42.319314" lon="2.109083">
        <ele>1201.750514</ele>
        <time>2022-05-22T00:11:51.735Z</time>
      </trkpt>
      <trkpt lat="42.319222" lon="2.109020">
        <ele>1201.986676</ele>
        <time>2022-05-22T00:11:57.724Z</time>
      </trkpt>
      <trkpt lat="42.319128" lon="2.108964">
        <ele>1202.221909</ele>
        <time>2022-05-22T00:12:03.728Z</time>
      </trkpt>
      <trkpt lat="42.319026" lon="2.108922">
        <ele>1202.466091</ele>
        <time>2022-05-22T00:12:08.710Z</time>
      </trkpt>
      <trkpt lat="42.318924" lon="2.108924">
        <ele>1202.699710</ele>
        <time>2022-05-22T00:12:13.724Z</time>
      </trkpt>
      <trkpt lat="42.318829" lon="2.108922">
        <ele>1202.917300</ele>
        <time>2022-05-22T00:12:18.734Z</time>
      </trkpt>
      <trkpt lat="42.318731" lon="2.108888">
        <ele>1203.149001</ele>
        <time>2022-05-22T00:12:23.724Z</time>
      </trkpt>
      <trkpt lat="42.318638" lon="2.108809">
        <ele>1203.400512</ele>
        <time>2022-05-22T00:12:28.727Z</time>
      </trkpt>
      <trkpt lat="42.318567" lon="2.108708">
        <ele>1203.636499</ele>
        <time>2022-05-22T00:12:33.723Z</time>
      </trkpt>
      <trkpt lat="42.318524" lon="2.108581">
        <ele>1203.873030</ele>
        <time>2022-05-22T00:12:38.727Z</time>
      </trkpt>
      <trkpt lat="42.318519" lon="2.108441">
        <ele>1203.916308</ele>
        <time>2022-05-22T00:12:43.739Z</time>
      </trkpt>
      <trkpt lat="42.318522" lon="2.108300">
        <ele>1203.738388</ele>
        <time>2022-05-22T00:12:49.757Z</time>
      </trkpt>
      <trkpt lat="42.318548" lon="2.108172">
        <ele>1203.570958</ele>
        <time>2022-05-22T00:12:54.731Z</time>
      </trkpt>
      <trkpt lat="42.318587" lon="2.108039">
        <ele>1203.390492</ele>
        <time>2022-05-22T00:12:59.735Z</time>
      </trkpt>
      <trkpt lat="42.318614" lon="2.107904">
        <ele>1203.214095</ele>
        <time>2022-05-22T00:13:04.739Z</time>
      </trkpt>
      <trkpt lat="42.318656" lon="2.107779">
        <ele>1203.040916</ele>
        <time>2022-05-22T00:13:09.723Z</time>
      </trkpt>
      <trkpt lat="42.318689" lon="2.107651">
        <ele>1202.869935</ele>
        <time>2022-05-22T00:13:14.722Z</time>
      </trkpt>
      <trkpt lat="42.318732" lon="2.107531">
        <ele>1202.701739</ele>
        <time>2022-05-22T00:13:19.735Z</time>
      </trkpt>
      <trkpt lat="42.318777" lon="2.107412">
        <ele>1202.533153</ele>
        <time>2022-05-22T00:13:24.734Z</time>
      </trkpt>
      <trkpt lat="42.318828" lon="2.107303">
        <ele>1202.370456</ele>
        <time>2022-05-22T00:13:29.735Z</time>
      </trkpt>
      <trkpt lat="42.318868" lon="2.107185">
        <ele>1202.206725</ele>
        <time>2022-05-22T00:13:34.727Z</time>
      </trkpt>
      <trkpt lat="42.318912" lon="2.107066">
        <ele>1202.038909</ele>
        <time>2022-05-22T00:13:40.732Z</time>
      </trkpt>
      <trkpt lat="42.318958" lon="2.106954">
        <ele>1201.877311</ele>
        <time>2022-05-22T00:13:45.735Z</time>
      </trkpt>
      <trkpt lat="42.319005" lon="2.106819">
        <ele>1201.689103</ele>
        <time>2022-05-22T00:13:49.737Z</time>
      </trkpt>
      <trkpt lat="42.319052" lon="2.106712">
        <ele>1201.532125</ele>
        <time>2022-05-22T00:13:53.741Z</time>
      </trkpt>
      <trkpt lat="42.319112" lon="2.106606">
        <ele>1201.363748</ele>
        <time>2022-05-22T00:13:58.732Z</time>
      </trkpt>
      <trkpt lat="42.319164" lon="2.106484">
        <ele>1201.186132</ele>
        <time>2022-05-22T00:14:04.735Z</time>
      </trkpt>
      <trkpt lat="42.319201" lon="2.106365">
        <ele>1201.023306</ele>
        <time>2022-05-22T00:14:09.736Z</time>
      </trkpt>
      <trkpt lat="42.319272" lon="2.106257">
        <ele>1201.037802</ele>
        <time>2022-05-22T00:14:14.740Z</time>
      </trkpt>
      <trkpt lat="42.319316" lon="2.106138">
        <ele>1201.237182</ele>
        <time>2022-05-22T00:14:18.729Z</time>
      </trkpt>
      <trkpt lat="42.319367" lon="2.106019">
        <ele>1201.443297</ele>
        <time>2022-05-22T00:14:22.752Z</time>
      </trkpt>
      <trkpt lat="42.319440" lon="2.105903">
        <ele>1201.671564</ele>
        <time>2022-05-22T00:14:27.736Z</time>
      </trkpt>
      <trkpt lat="42.319520" lon="2.105834">
        <ele>1201.863863</ele>
        <time>2022-05-22T00:14:32.730Z</time>
      </trkpt>
      <trkpt lat="42.319629" lon="2.105755">
        <ele>1202.114493</ele>
        <time>2022-05-22T00:14:37.741Z</time>
      </trkpt>
      <trkpt lat="42.319722" lon="2.105682">
        <ele>1202.332420</ele>
        <time>2022-05-22T00:14:41.730Z</time>
      </trkpt>
      <trkpt lat="42.319816" lon="2.105652">
        <ele>1202.528161</ele>
        <time>2022-05-22T00:14:45.731Z</time>
      </trkpt>
      <trkpt lat="42.319917" lon="2.105631">
        <ele>1202.735261</ele>
        <time>2022-05-22T00:14:49.743Z</time>
      </trkpt>
      <trkpt lat="42.319983" lon="2.105500">
        <ele>1202.972808</ele>
        <time>2022-05-22T00:14:53.728Z</time>
      </trkpt>
      <trkpt lat="42.320023" lon="2.105365">
        <ele>1203.190747</ele>
        <time>2022-05-22T00:14:57.730Z</time>
      </trkpt>
      <trkpt lat="42.319995" lon="2.105249">
        <ele>1203.373604</ele>
        <time>2022-05-22T00:15:00.732Z</time>
      </trkpt>
      <trkpt lat="42.319934" lon="2.105131">
        <ele>1203.589362</ele>
        <time>2022-05-22T00:15:04.731Z</time>
      </trkpt>
      <trkpt lat="42.319878" lon="2.105005">
        <ele>1203.809661</ele>
        <time>2022-05-22T00:15:08.730Z</time>
      </trkpt>
      <trkpt lat="42.319812" lon="2.104875">
        <ele>1204.045971</ele>
        <time>2022-05-22T00:15:12.733Z</time>
      </trkpt>
      <trkpt lat="42.319790" lon="2.104723">
        <ele>1204.278070</ele>
        <time>2022-05-22T00:15:17.728Z</time>
      </trkpt>
      <trkpt lat="42.319770" lon="2.104597">
        <ele>1204.471187</ele>
        <time>2022-05-22T00:15:21.727Z</time>
      </trkpt>
      <trkpt lat="42.319756" lon="2.104470">
        <ele>1204.669894</ele>
        <time>2022-05-22T00:15:26.730Z</time>
      </trkpt>
      <trkpt lat="42.319717" lon="2.104350">
        <ele>1204.880465</ele>
        <time>2022-05-22T00:15:29.756Z</time>
      </trkpt>
      <trkpt lat="42.319638" lon="2.104223">
        <ele>1205.147077</ele>
        <time>2022-05-22T00:15:32.722Z</time>
      </trkpt>
      <trkpt lat="42.319535" lon="2.104135">
        <ele>1205.411769</ele>
        <time>2022-05-22T00:15:35.734Z</time>
      </trkpt>
      <trkpt lat="42.319410" lon="2.104127">
        <ele>1205.683650</ele>
        <time>2022-05-22T00:15:38.731Z</time>
      </trkpt>
      <trkpt lat="42.319317" lon="2.104157">
        <ele>1205.891371</ele>
        <time>2022-05-22T00:15:41.759Z</time>
      </trkpt>
      <trkpt lat="42.319240" lon="2.104219">
        <ele>1206.086067</ele>
        <time>2022-05-22T00:15:44.736Z</time>
      </trkpt>
      <trkpt lat="42.319133" lon="2.104259">
        <ele>1206.327255</ele>
        <time>2022-05-22T00:15:48.739Z</time>
      </trkpt>
      <trkpt lat="42.319033" lon="2.104311">
        <ele>1206.560022</ele>
        <time>2022-05-22T00:15:52.735Z</time>
      </trkpt>
      <trkpt lat="42.318931" lon="2.104351">
        <ele>1206.790757</ele>
        <time>2022-05-22T00:15:56.730Z</time>
      </trkpt>
      <trkpt lat="42.318838" lon="2.104374">
        <ele>1206.996161</ele>
        <time>2022-05-22T00:16:00.730Z</time>
      </trkpt>
      <trkpt lat="42.318745" lon="2.104385">
        <ele>1207.198986</ele>
        <time>2022-05-22T00:16:04.727Z</time>
      </trkpt>
      <trkpt lat="42.318650" lon="2.104406">
        <ele>1207.408123</ele>
        <time>2022-05-22T00:16:08.727Z</time>
      </trkpt>
      <trkpt lat="42.318543" lon="2.104415">
        <ele>1207.641042</ele>
        <time>2022-05-22T00:16:12.725Z</time>
      </trkpt>
      <trkpt lat="42.318446" lon="2.104403">
        <ele>1207.852666</ele>
        <time>2022-05-22T00:16:16.732Z</time>
      </trkpt>
      <trkpt lat="42.318356" lon="2.104313">
        <ele>1208.095849</ele>
        <time>2022-05-22T00:16:21.725Z</time>
      </trkpt>
      <trkpt lat="42.318314" lon="2.104202">
        <ele>1208.296158</ele>
        <time>2022-05-22T00:16:25.731Z</time>
      </trkpt>
      <trkpt lat="42.318291" lon="2.104053">
        <ele>1208.828182</ele>
        <time>2022-05-22T00:16:30.734Z</time>
      </trkpt>
      <trkpt lat="42.318281" lon="2.103928">
        <ele>1210.054712</ele>
        <time>2022-05-22T00:16:34.733Z</time>
      </trkpt>
      <trkpt lat="42.318266" lon="2.103806">
        <ele>1211.261201</ele>
        <time>2022-05-22T00:16:38.735Z</time>
      </trkpt>
      <trkpt lat="42.318250" lon="2.103658">
        <ele>1212.720337</ele>
        <time>2022-05-22T00:16:43.730Z</time>
      </trkpt>
      <trkpt lat="42.318233" lon="2.103530">
        <ele>1213.989000</ele>
        <time>2022-05-22T00:16:47.732Z</time>
      </trkpt>
      <trkpt lat="42.318206" lon="2.103384">
        <ele>1215.457146</ele>
        <time>2022-05-22T00:16:52.734Z</time>
      </trkpt>
      <trkpt lat="42.318185" lon="2.103243">
        <ele>1216.860272</ele>
        <time>2022-05-22T00:16:56.721Z</time>
      </trkpt>
      <trkpt lat="42.318175" lon="2.103118">
        <ele>1218.086804</ele>
        <time>2022-05-22T00:17:00.730Z</time>
      </trkpt>
      <trkpt lat="42.318200" lon="2.102986">
        <ele>1219.416077</ele>
        <time>2022-05-22T00:17:04.727Z</time>
      </trkpt>
      <trkpt lat="42.318230" lon="2.102856">
        <ele>1220.744597</ele>
        <time>2022-05-22T00:17:08.730Z</time>
      </trkpt>
      <trkpt lat="42.318271" lon="2.102738">
        <ele>1222.016482</ele>
        <time>2022-05-22T00:17:12.731Z</time>
      </trkpt>
      <trkpt lat="42.318326" lon="2.102611">
        <ele>1223.452263</ele>
        <time>2022-05-22T00:17:17.745Z</time>
      </trkpt>
      <trkpt lat="42.318386" lon="2.102510">
        <ele>1224.716150</ele>
        <time>2022-05-22T00:17:21.737Z</time>
      </trkpt>
      <trkpt lat="42.318460" lon="2.102417">
        <ele>1226.048911</ele>
        <time>2022-05-22T00:17:26.734Z</time>
      </trkpt>
      <trkpt lat="42.318546" lon="2.102343">
        <ele>1227.393711</ele>
        <time>2022-05-22T00:17:31.738Z</time>
      </trkpt>
      <trkpt lat="42.318632" lon="2.102275">
        <ele>1228.708019</ele>
        <time>2022-05-22T00:17:35.724Z</time>
      </trkpt>
      <trkpt lat="42.318713" lon="2.102194">
        <ele>1230.037078</ele>
        <time>2022-05-22T00:17:39.739Z</time>
      </trkpt>
      <trkpt lat="42.318815" lon="2.102119">
        <ele>1231.568822</ele>
        <time>2022-05-22T00:17:44.732Z</time>
      </trkpt>
      <trkpt lat="42.318904" lon="2.102070">
        <ele>1232.532366</ele>
        <time>2022-05-22T00:17:48.722Z</time>
      </trkpt>
      <trkpt lat="42.318998" lon="2.102019">
        <ele>1233.215703</ele>
        <time>2022-05-22T00:17:52.733Z</time>
      </trkpt>
      <trkpt lat="42.319090" lon="2.101984">
        <ele>1233.860506</ele>
        <time>2022-05-22T00:17:56.740Z</time>
      </trkpt>
      <trkpt lat="42.319176" lon="2.101914">
        <ele>1234.537717</ele>
        <time>2022-05-22T00:18:00.737Z</time>
      </trkpt>
      <trkpt lat="42.319260" lon="2.101862">
        <ele>1235.161003</ele>
        <time>2022-05-22T00:18:04.748Z</time>
      </trkpt>
      <trkpt lat="42.319359" lon="2.101781">
        <ele>1235.941661</ele>
        <time>2022-05-22T00:18:09.730Z</time>
      </trkpt>
      <trkpt lat="42.319450" lon="2.101718">
        <ele>1236.631392</ele>
        <time>2022-05-22T00:18:14.743Z</time>
      </trkpt>
      <trkpt lat="42.319523" lon="2.101644">
        <ele>1237.246906</ele>
        <time>2022-05-22T00:18:18.734Z</time>
      </trkpt>
      <trkpt lat="42.319598" lon="2.101550">
        <ele>1237.936798</ele>
        <time>2022-05-22T00:18:22.729Z</time>
      </trkpt>
      <trkpt lat="42.319665" lon="2.101461">
        <ele>1238.570412</ele>
        <time>2022-05-22T00:18:26.734Z</time>
      </trkpt>
      <trkpt lat="42.319723" lon="2.101367">
        <ele>1239.181172</ele>
        <time>2022-05-22T00:18:30.737Z</time>
      </trkpt>
      <trkpt lat="42.319778" lon="2.101252">
        <ele>1239.864416</ele>
        <time>2022-05-22T00:18:35.724Z</time>
      </trkpt>
      <trkpt lat="42.319842" lon="2.101128">
        <ele>1240.618807</ele>
        <time>2022-05-22T00:18:40.816Z</time>
      </trkpt>
      <trkpt lat="42.319894" lon="2.100998">
        <ele>1241.356144</ele>
        <time>2022-05-22T00:18:45.733Z</time>
      </trkpt>
      <trkpt lat="42.319948" lon="2.100863">
        <ele>1242.121841</ele>
        <time>2022-05-22T00:18:50.738Z</time>
      </trkpt>
      <trkpt lat="42.319997" lon="2.100727">
        <ele>1242.876553</ele>
        <time>2022-05-22T00:18:55.742Z</time>
      </trkpt>
      <trkpt lat="42.320053" lon="2.100598">
        <ele>1243.622800</ele>
        <time>2022-05-22T00:19:00.729Z</time>
      </trkpt>
      <trkpt lat="42.320106" lon="2.100479">
        <ele>1244.315822</ele>
        <time>2022-05-22T00:19:05.738Z</time>
      </trkpt>
      <trkpt lat="42.320157" lon="2.100360">
        <ele>1244.422604</ele>
        <time>2022-05-22T00:19:10.740Z</time>
      </trkpt>
      <trkpt lat="42.320236" lon="2.100279">
        <ele>1244.497830</ele>
        <time>2022-05-22T00:19:15.738Z</time>
      </trkpt>
      <trkpt lat="42.320320" lon="2.100216">
        <ele>1244.570715</ele>
        <time>2022-05-22T00:19:20.740Z</time>
      </trkpt>
      <trkpt lat="42.320417" lon="2.100158">
        <ele>1244.651193</ele>
        <time>2022-05-22T00:19:25.743Z</time>
      </trkpt>
      <trkpt lat="42.320509" lon="2.100131">
        <ele>1244.722629</ele>
        <time>2022-05-22T00:19:30.731Z</time>
      </trkpt>
      <trkpt lat="42.320610" lon="2.100108">
        <ele>1244.800348</ele>
        <time>2022-05-22T00:19:35.729Z</time>
      </trkpt>
      <trkpt lat="42.320713" lon="2.100088">
        <ele>1244.879308</ele>
        <time>2022-05-22T00:19:40.741Z</time>
      </trkpt>
      <trkpt lat="42.320803" lon="2.100072">
        <ele>1244.948189</ele>
        <time>2022-05-22T00:19:44.732Z</time>
      </trkpt>
      <trkpt lat="42.320891" lon="2.100096">
        <ele>1245.016309</ele>
        <time>2022-05-22T00:19:48.727Z</time>
      </trkpt>
      <trkpt lat="42.320998" lon="2.100111">
        <ele>1245.097937</ele>
        <time>2022-05-22T00:19:53.720Z</time>
      </trkpt>
      <trkpt lat="42.321094" lon="2.100126">
        <ele>1245.171268</ele>
        <time>2022-05-22T00:19:57.729Z</time>
      </trkpt>
      <trkpt lat="42.321183" lon="2.100165">
        <ele>1245.242259</ele>
        <time>2022-05-22T00:20:01.735Z</time>
      </trkpt>
      <trkpt lat="42.321280" lon="2.100205">
        <ele>1245.319210</ele>
        <time>2022-05-22T00:20:06.734Z</time>
      </trkpt>
      <trkpt lat="42.321390" lon="2.100205">
        <ele>1245.402680</ele>
        <time>2022-05-22T00:20:12.731Z</time>
      </trkpt>
      <trkpt lat="42.321485" lon="2.100240">
        <ele>1245.477394</ele>
        <time>2022-05-22T00:20:16.734Z</time>
      </trkpt>
      <trkpt lat="42.321603" lon="2.100262">
        <ele>1245.567781</ele>
        <time>2022-05-22T00:20:20.733Z</time>
      </trkpt>
      <trkpt lat="42.321701" lon="2.100216">
        <ele>1245.646496</ele>
        <time>2022-05-22T00:20:24.729Z</time>
      </trkpt>
      <trkpt lat="42.321786" lon="2.100164">
        <ele>1245.708606</ele>
        <time>2022-05-22T00:20:28.724Z</time>
      </trkpt>
      <trkpt lat="42.321880" lon="2.100125">
        <ele>1245.584648</ele>
        <time>2022-05-22T00:20:31.730Z</time>
      </trkpt>
      <trkpt lat="42.321964" lon="2.100039">
        <ele>1245.451828</ele>
        <time>2022-05-22T00:20:34.732Z</time>
      </trkpt>
      <trkpt lat="42.322020" lon="2.099921">
        <ele>1245.321127</ele>
        <time>2022-05-22T00:20:37.731Z</time>
      </trkpt>
      <trkpt lat="42.322061" lon="2.099779">
        <ele>1245.179029</ele>
        <time>2022-05-22T00:20:41.738Z</time>
      </trkpt>
      <trkpt lat="42.322078" lon="2.099633">
        <ele>1245.041259</ele>
        <time>2022-05-22T00:20:45.734Z</time>
      </trkpt>
      <trkpt lat="42.322088" lon="2.099510">
        <ele>1244.925915</ele>
        <time>2022-05-22T00:20:49.733Z</time>
      </trkpt>
      <trkpt lat="42.322068" lon="2.099378">
        <ele>1244.800315</ele>
        <time>2022-05-22T00:20:53.736Z</time>
      </trkpt>
      <trkpt lat="42.322023" lon="2.099241">
        <ele>1244.660577</ele>
        <time>2022-05-22T00:20:57.740Z</time>
      </trkpt>
      <trkpt lat="42.321951" lon="2.099147">
        <ele>1244.534415</ele>
        <time>2022-05-22T00:21:01.729Z</time>
      </trkpt>
      <trkpt lat="42.321875" lon="2.099061">
        <ele>1244.409488</ele>
        <time>2022-05-22T00:21:06.737Z</time>
      </trkpt>
      <trkpt lat="42.321798" lon="2.098983">
        <ele>1244.288203</ele>
        <time>2022-05-22T00:21:10.728Z</time>
      </trkpt>
      <trkpt lat="42.321708" lon="2.098898">
        <ele>1244.149813</ele>
        <time>2022-05-22T00:21:14.737Z</time>
      </trkpt>
      <trkpt lat="42.321625" lon="2.098825">
        <ele>1244.024994</ele>
        <time>2022-05-22T00:21:18.734Z</time>
      </trkpt>
      <trkpt lat="42.321545" lon="2.098715">
        <ele>1243.881168</ele>
        <time>2022-05-22T00:21:23.730Z</time>
      </trkpt>
      <trkpt lat="42.321463" lon="2.098631">
        <ele>1243.751483</ele>
        <time>2022-05-22T00:21:28.730Z</time>
      </trkpt>
      <trkpt lat="42.321375" lon="2.098549">
        <ele>1243.616758</ele>
        <time>2022-05-22T00:21:33.729Z</time>
      </trkpt>
      <trkpt lat="42.321292" lon="2.098487">
        <ele>1243.497219</ele>
        <time>2022-05-22T00:21:37.727Z</time>
      </trkpt>
      <trkpt lat="42.321209" lon="2.098434">
        <ele>1243.481239</ele>
        <time>2022-05-22T00:21:40.738Z</time>
      </trkpt>
      <trkpt lat="42.321113" lon="2.098392">
        <ele>1243.549397</ele>
        <time>2022-05-22T00:21:44.731Z</time>
      </trkpt>
      <trkpt lat="42.321024" lon="2.098360">
        <ele>1243.611607</ele>
        <time>2022-05-22T00:21:48.727Z</time>
      </trkpt>
      <trkpt lat="42.320924" lon="2.098303">
        <ele>1243.684913</ele>
        <time>2022-05-22T00:21:53.734Z</time>
      </trkpt>
      <trkpt lat="42.320830" lon="2.098256">
        <ele>1243.752612</ele>
        <time>2022-05-22T00:21:58.734Z</time>
      </trkpt>
      <trkpt lat="42.320751" lon="2.098168">
        <ele>1243.821748</ele>
        <time>2022-05-22T00:22:04.731Z</time>
      </trkpt>
      <trkpt lat="42.320655" lon="2.098128">
        <ele>1243.889605</ele>
        <time>2022-05-22T00:22:10.723Z</time>
      </trkpt>
      <trkpt lat="42.320745" lon="2.098214">
        <ele>1243.964045</ele>
        <time>2022-05-22T00:22:21.716Z</time>
      </trkpt>
      <trkpt lat="42.320631" lon="2.098207">
        <ele>1244.041134</ele>
        <time>2022-05-22T00:22:29.730Z</time>
      </trkpt>
      <trkpt lat="42.320523" lon="2.098160">
        <ele>1244.117773</ele>
        <time>2022-05-22T00:22:33.737Z</time>
      </trkpt>
      <trkpt lat="42.320419" lon="2.098083">
        <ele>1244.197866</ele>
        <time>2022-05-22T00:22:37.731Z</time>
      </trkpt>
      <trkpt lat="42.320334" lon="2.097976">
        <ele>1244.276308</ele>
        <time>2022-05-22T00:22:40.727Z</time>
      </trkpt>
      <trkpt lat="42.320270" lon="2.097837">
        <ele>1244.358095</ele>
        <time>2022-05-22T00:22:43.729Z</time>
      </trkpt>
      <trkpt lat="42.320241" lon="2.097718">
        <ele>1244.420677</ele>
        <time>2022-05-22T00:22:46.738Z</time>
      </trkpt>
      <trkpt lat="42.320214" lon="2.097572">
        <ele>1244.495847</ele>
        <time>2022-05-22T00:22:50.736Z</time>
      </trkpt>
      <trkpt lat="42.320229" lon="2.097423">
        <ele>1244.570955</ele>
        <time>2022-05-22T00:22:54.730Z</time>
      </trkpt>
      <trkpt lat="42.320216" lon="2.097546">
        <ele>1244.633015</ele>
        <time>2022-05-22T00:23:02.732Z</time>
      </trkpt>
      <trkpt lat="42.320237" lon="2.097697">
        <ele>1244.682724</ele>
        <time>2022-05-22T00:23:06.737Z</time>
      </trkpt>
      <trkpt lat="42.320275" lon="2.097819">
        <ele>1244.711836</ele>
        <time>2022-05-22T00:23:09.733Z</time>
      </trkpt>
      <trkpt lat="42.320318" lon="2.097949">
        <ele>1244.743154</ele>
        <time>2022-05-22T00:23:12.733Z</time>
      </trkpt>
      <trkpt lat="42.320356" lon="2.098073">
        <ele>1244.772671</ele>
        <time>2022-05-22T00:23:15.743Z</time>
      </trkpt>
      <trkpt lat="42.320316" lon="2.098183">
        <ele>1244.799628</ele>
        <time>2022-05-22T00:23:19.740Z</time>
      </trkpt>
      <trkpt lat="42.320223" lon="2.098175">
        <ele>1244.827344</ele>
        <time>2022-05-22T00:23:23.722Z</time>
      </trkpt>
      <trkpt lat="42.320137" lon="2.098138">
        <ele>1244.854184</ele>
        <time>2022-05-22T00:23:27.743Z</time>
      </trkpt>
      <trkpt lat="42.320044" lon="2.098106">
        <ele>1244.882725</ele>
        <time>2022-05-22T00:23:30.732Z</time>
      </trkpt>
      <trkpt lat="42.319948" lon="2.098106">
        <ele>1244.911277</ele>
        <time>2022-05-22T00:23:33.735Z</time>
      </trkpt>
      <trkpt lat="42.319842" lon="2.098162">
        <ele>1244.945122</ele>
        <time>2022-05-22T00:23:38.747Z</time>
      </trkpt>
      <trkpt lat="42.319775" lon="2.098266">
        <ele>1244.975456</ele>
        <time>2022-05-22T00:23:44.749Z</time>
      </trkpt>
      <trkpt lat="42.319666" lon="2.098304">
        <ele>1245.008934</ele>
        <time>2022-05-22T00:23:57.757Z</time>
      </trkpt>
      <trkpt lat="42.319759" lon="2.098323">
        <ele>1245.036907</ele>
        <time>2022-05-22T00:24:06.724Z</time>
      </trkpt>
      <trkpt lat="42.319849" lon="2.098256">
        <ele>1245.067462</ele>
        <time>2022-05-22T00:24:14.733Z</time>
      </trkpt>
      <trkpt lat="42.319918" lon="2.098163">
        <ele>1245.096434</ele>
        <time>2022-05-22T00:24:21.737Z</time>
      </trkpt>
      <trkpt lat="42.319982" lon="2.098067">
        <ele>1245.124859</ele>
        <time>2022-05-22T00:24:29.738Z</time>
      </trkpt>
      <trkpt lat="42.319937" lon="2.097953">
        <ele>1245.153278</ele>
        <time>2022-05-22T00:24:35.737Z</time>
      </trkpt>
      <trkpt lat="42.319876" lon="2.097861">
        <ele>1245.180452</ele>
        <time>2022-05-22T00:26:15.749Z</time>
      </trkpt>
      <trkpt lat="42.319874" lon="2.098056">
        <ele>1245.147783</ele>
        <time>2022-05-22T00:27:03.735Z</time>
      </trkpt>
      <trkpt lat="42.319964" lon="2.098089">
        <ele>1245.097727</ele>
        <time>2022-05-22T00:27:08.727Z</time>
      </trkpt>
      <trkpt lat="42.320056" lon="2.098126">
        <ele>1245.046204</ele>
        <time>2022-05-22T00:27:14.729Z</time>
      </trkpt>
      <trkpt lat="42.320152" lon="2.098170">
        <ele>1244.991792</ele>
        <time>2022-05-22T00:27:21.756Z</time>
      </trkpt>
      <trkpt lat="42.320241" lon="2.098194">
        <ele>1244.943076</ele>
        <time>2022-05-22T00:27:30.720Z</time>
      </trkpt>
      <trkpt lat="42.320342" lon="2.098176">
        <ele>1244.888390</ele>
        <time>2022-05-22T00:27:38.736Z</time>
      </trkpt>
      <trkpt lat="42.320337" lon="2.098041">
        <ele>1244.834741</ele>
        <time>2022-05-22T00:27:45.739Z</time>
      </trkpt>
      <trkpt lat="42.320305" lon="2.097892">
        <ele>1244.773157</ele>
        <time>2022-05-22T00:27:50.736Z</time>
      </trkpt>
      <trkpt lat="42.320280" lon="2.097760">
        <ele>1244.719074</ele>
        <time>2022-05-22T00:27:53.735Z</time>
      </trkpt>
      <trkpt lat="42.320265" lon="2.097623">
        <ele>1244.664105</ele>
        <time>2022-05-22T00:27:56.734Z</time>
      </trkpt>
      <trkpt lat="42.320254" lon="2.097483">
        <ele>1244.608225</ele>
        <time>2022-05-22T00:27:59.730Z</time>
      </trkpt>
      <trkpt lat="42.320278" lon="2.097343">
        <ele>1244.551183</ele>
        <time>2022-05-22T00:28:02.735Z</time>
      </trkpt>
      <trkpt lat="42.320309" lon="2.097206">
        <ele>1244.494318</ele>
        <time>2022-05-22T00:28:05.739Z</time>
      </trkpt>
      <trkpt lat="42.320309" lon="2.097054">
        <ele>1244.433988</ele>
        <time>2022-05-22T00:28:08.726Z</time>
      </trkpt>
      <trkpt lat="42.320347" lon="2.096888">
        <ele>1244.365016</ele>
        <time>2022-05-22T00:28:11.735Z</time>
      </trkpt>
      <trkpt lat="42.320385" lon="2.096768">
        <ele>1244.313202</ele>
        <time>2022-05-22T00:28:13.725Z</time>
      </trkpt>
      <trkpt lat="42.320434" lon="2.096660">
        <ele>1244.262910</ele>
        <time>2022-05-22T00:28:15.731Z</time>
      </trkpt>
      <trkpt lat="42.320509" lon="2.096562">
        <ele>1243.854082</ele>
        <time>2022-05-22T00:28:17.731Z</time>
      </trkpt>
      <trkpt lat="42.320601" lon="2.096466">
        <ele>1242.872971</ele>
        <time>2022-05-22T00:28:19.735Z</time>
      </trkpt>
      <trkpt lat="42.320722" lon="2.096364">
        <ele>1241.669128</ele>
        <time>2022-05-22T00:28:21.723Z</time>
      </trkpt>
      <trkpt lat="42.320830" lon="2.096258">
        <ele>1240.542438</ele>
        <time>2022-05-22T00:28:23.729Z</time>
      </trkpt>
      <trkpt lat="42.320920" lon="2.096142">
        <ele>1239.492736</ele>
        <time>2022-05-22T00:28:25.733Z</time>
      </trkpt>
      <trkpt lat="42.320962" lon="2.095979">
        <ele>1238.415127</ele>
        <time>2022-05-22T00:28:27.739Z</time>
      </trkpt>
      <trkpt lat="42.320974" lon="2.095792">
        <ele>1237.243323</ele>
        <time>2022-05-22T00:28:29.737Z</time>
      </trkpt>
      <trkpt lat="42.320971" lon="2.095601">
        <ele>1236.050666</ele>
        <time>2022-05-22T00:28:31.737Z</time>
      </trkpt>
      <trkpt lat="42.320984" lon="2.095406">
        <ele>1234.828369</ele>
        <time>2022-05-22T00:28:33.737Z</time>
      </trkpt>
      <trkpt lat="42.320989" lon="2.095252">
        <ele>1233.866041</ele>
        <time>2022-05-22T00:28:35.740Z</time>
      </trkpt>
      <trkpt lat="42.320988" lon="2.095125">
        <ele>1233.073152</ele>
        <time>2022-05-22T00:28:37.739Z</time>
      </trkpt>
      <trkpt lat="42.321001" lon="2.095003">
        <ele>1232.303654</ele>
        <time>2022-05-22T00:28:39.743Z</time>
      </trkpt>
      <trkpt lat="42.321011" lon="2.094872">
        <ele>1231.481492</ele>
        <time>2022-05-22T00:28:41.729Z</time>
      </trkpt>
      <trkpt lat="42.321003" lon="2.094733">
        <ele>1230.611109</ele>
        <time>2022-05-22T00:28:43.730Z</time>
      </trkpt>
      <trkpt lat="42.320992" lon="2.094570">
        <ele>1229.589292</ele>
        <time>2022-05-22T00:28:46.734Z</time>
      </trkpt>
      <trkpt lat="42.320905" lon="2.094496">
        <ele>1228.874232</ele>
        <time>2022-05-22T00:28:50.731Z</time>
      </trkpt>
      <trkpt lat="42.320952" lon="2.094370">
        <ele>1228.409944</ele>
        <time>2022-05-22T00:28:59.734Z</time>
      </trkpt>
      <trkpt lat="42.320928" lon="2.094253">
        <ele>1228.010491</ele>
        <time>2022-05-22T00:29:01.717Z</time>
      </trkpt>
      <trkpt lat="42.320924" lon="2.094111">
        <ele>1227.542991</ele>
        <time>2022-05-22T00:29:04.718Z</time>
      </trkpt>
      <trkpt lat="42.320932" lon="2.093955">
        <ele>1227.028539</ele>
        <time>2022-05-22T00:29:07.722Z</time>
      </trkpt>
      <trkpt lat="42.320951" lon="2.093807">
        <ele>1226.534354</ele>
        <time>2022-05-22T00:29:10.715Z</time>
      </trkpt>
      <trkpt lat="42.320988" lon="2.093668">
        <ele>1226.048331</ele>
        <time>2022-05-22T00:29:14.718Z</time>
      </trkpt>
      <trkpt lat="42.321043" lon="2.093532">
        <ele>1225.538356</ele>
        <time>2022-05-22T00:29:18.736Z</time>
      </trkpt>
      <trkpt lat="42.321119" lon="2.093399">
        <ele>1224.985362</ele>
        <time>2022-05-22T00:29:21.736Z</time>
      </trkpt>
      <trkpt lat="42.321194" lon="2.093303">
        <ele>1224.525897</ele>
        <time>2022-05-22T00:29:23.735Z</time>
      </trkpt>
      <trkpt lat="42.321280" lon="2.093195">
        <ele>1224.003724</ele>
        <time>2022-05-22T00:29:25.738Z</time>
      </trkpt>
      <trkpt lat="42.321366" lon="2.093074">
        <ele>1223.451560</ele>
        <time>2022-05-22T00:29:27.731Z</time>
      </trkpt>
      <trkpt lat="42.321452" lon="2.092932">
        <ele>1222.847689</ele>
        <time>2022-05-22T00:29:29.731Z</time>
      </trkpt>
      <trkpt lat="42.321545" lon="2.092816">
        <ele>1222.284781</ele>
        <time>2022-05-22T00:29:31.731Z</time>
      </trkpt>
      <trkpt lat="42.321666" lon="2.092781">
        <ele>1221.734220</ele>
        <time>2022-05-22T00:29:33.734Z</time>
      </trkpt>
      <trkpt lat="42.321788" lon="2.092799">
        <ele>1221.188166</ele>
        <time>2022-05-22T00:29:35.736Z</time>
      </trkpt>
      <trkpt lat="42.321908" lon="2.092836">
        <ele>1220.561775</ele>
        <time>2022-05-22T00:29:37.737Z</time>
      </trkpt>
      <trkpt lat="42.322017" lon="2.092906">
        <ele>1219.919396</ele>
        <time>2022-05-22T00:29:39.736Z</time>
      </trkpt>
      <trkpt lat="42.322114" lon="2.092977">
        <ele>1219.332223</ele>
        <time>2022-05-22T00:29:41.736Z</time>
      </trkpt>
      <trkpt lat="42.322199" lon="2.093062">
        <ele>1218.769451</ele>
        <time>2022-05-22T00:29:43.732Z</time>
      </trkpt>
      <trkpt lat="42.322291" lon="2.093140">
        <ele>1218.191394</ele>
        <time>2022-05-22T00:29:45.733Z</time>
      </trkpt>
      <trkpt lat="42.322375" lon="2.093217">
        <ele>1217.651170</ele>
        <time>2022-05-22T00:29:47.730Z</time>
      </trkpt>
      <trkpt lat="42.322483" lon="2.093285">
        <ele>1217.016959</ele>
        <time>2022-05-22T00:29:50.732Z</time>
      </trkpt>
      <trkpt lat="42.322559" lon="2.093175">
        <ele>1216.424360</ele>
        <time>2022-05-22T00:29:52.728Z</time>
      </trkpt>
      <trkpt lat="42.322615" lon="2.092987">
        <ele>1215.626562</ele>
        <time>2022-05-22T00:29:54.734Z</time>
      </trkpt>
      <trkpt lat="42.322648" lon="2.092814">
        <ele>1214.923307</ele>
        <time>2022-05-22T00:29:56.731Z</time>
      </trkpt>
      <trkpt lat="42.322610" lon="2.092649">
        <ele>1214.243061</ele>
        <time>2022-05-22T00:29:58.723Z</time>
      </trkpt>
      <trkpt lat="42.322538" lon="2.092504">
        <ele>1213.555548</ele>
        <time>2022-05-22T00:30:00.736Z</time>
      </trkpt>
      <trkpt lat="42.322457" lon="2.092361">
        <ele>1212.846479</ele>
        <time>2022-05-22T00:30:02.730Z</time>
      </trkpt>
      <trkpt lat="42.322428" lon="2.092209">
        <ele>1212.228581</ele>
        <time>2022-05-22T00:30:04.734Z</time>
      </trkpt>
      <trkpt lat="42.322414" lon="2.092075">
        <ele>1211.695893</ele>
        <time>2022-05-22T00:30:06.729Z</time>
      </trkpt>
      <trkpt lat="42.322370" lon="2.091931">
        <ele>1211.316256</ele>
        <time>2022-05-22T00:30:08.725Z</time>
      </trkpt>
      <trkpt lat="42.322331" lon="2.091802">
        <ele>1211.102102</ele>
        <time>2022-05-22T00:30:10.740Z</time>
      </trkpt>
      <trkpt lat="42.322297" lon="2.091666">
        <ele>1210.881499</ele>
        <time>2022-05-22T00:30:12.739Z</time>
      </trkpt>
      <trkpt lat="42.322238" lon="2.091522">
        <ele>1210.628523</ele>
        <time>2022-05-22T00:30:14.736Z</time>
      </trkpt>
      <trkpt lat="42.322197" lon="2.091390">
        <ele>1210.408518</ele>
        <time>2022-05-22T00:30:16.735Z</time>
      </trkpt>
      <trkpt lat="42.322173" lon="2.091270">
        <ele>1210.217497</ele>
        <time>2022-05-22T00:30:18.726Z</time>
      </trkpt>
      <trkpt lat="42.322178" lon="2.091107">
        <ele>1209.966813</ele>
        <time>2022-05-22T00:30:21.735Z</time>
      </trkpt>
      <trkpt lat="42.322191" lon="2.090981">
        <ele>1209.771324</ele>
        <time>2022-05-22T00:30:23.733Z</time>
      </trkpt>
      <trkpt lat="42.322208" lon="2.090857">
        <ele>1209.577535</ele>
        <time>2022-05-22T00:30:25.730Z</time>
      </trkpt>
      <trkpt lat="42.322209" lon="2.090692">
        <ele>1209.323985</ele>
        <time>2022-05-22T00:30:28.725Z</time>
      </trkpt>
      <trkpt lat="42.322231" lon="2.090527">
        <ele>1209.066353</ele>
        <time>2022-05-22T00:30:31.736Z</time>
      </trkpt>
      <trkpt lat="42.322263" lon="2.090402">
        <ele>1208.863089</ele>
        <time>2022-05-22T00:30:33.733Z</time>
      </trkpt>
      <trkpt lat="42.322280" lon="2.090274">
        <ele>1208.663254</ele>
        <time>2022-05-22T00:30:35.739Z</time>
      </trkpt>
      <trkpt lat="42.322229" lon="2.090168">
        <ele>1208.468923</ele>
        <time>2022-05-22T00:30:37.731Z</time>
      </trkpt>
      <trkpt lat="42.322137" lon="2.090077">
        <ele>1208.232045</ele>
        <time>2022-05-22T00:30:39.742Z</time>
      </trkpt>
      <trkpt lat="42.322033" lon="2.090005">
        <ele>1207.989234</ele>
        <time>2022-05-22T00:30:41.737Z</time>
      </trkpt>
      <trkpt lat="42.321911" lon="2.089902">
        <ele>1207.637313</ele>
        <time>2022-05-22T00:30:43.727Z</time>
      </trkpt>
      <trkpt lat="42.321847" lon="2.089779">
        <ele>1207.079120</ele>
        <time>2022-05-22T00:30:45.735Z</time>
      </trkpt>
      <trkpt lat="42.321813" lon="2.089636">
        <ele>1206.521643</ele>
        <time>2022-05-22T00:30:47.717Z</time>
      </trkpt>
      <trkpt lat="42.321811" lon="2.089474">
        <ele>1205.920333</ele>
        <time>2022-05-22T00:30:49.732Z</time>
      </trkpt>
      <trkpt lat="42.321843" lon="2.089312">
        <ele>1205.298021</ele>
        <time>2022-05-22T00:30:51.732Z</time>
      </trkpt>
      <trkpt lat="42.321882" lon="2.089156">
        <ele>1204.686863</ele>
        <time>2022-05-22T00:30:53.739Z</time>
      </trkpt>
      <trkpt lat="42.321941" lon="2.089008">
        <ele>1204.062845</ele>
        <time>2022-05-22T00:30:55.745Z</time>
      </trkpt>
      <trkpt lat="42.322010" lon="2.088883">
        <ele>1203.483911</ele>
        <time>2022-05-22T00:30:57.742Z</time>
      </trkpt>
      <trkpt lat="42.322085" lon="2.088747">
        <ele>1202.854247</ele>
        <time>2022-05-22T00:30:59.729Z</time>
      </trkpt>
      <trkpt lat="42.322157" lon="2.088609">
        <ele>1202.227420</ele>
        <time>2022-05-22T00:31:01.723Z</time>
      </trkpt>
      <trkpt lat="42.322194" lon="2.088467">
        <ele>1201.668655</ele>
        <time>2022-05-22T00:31:03.736Z</time>
      </trkpt>
      <trkpt lat="42.322232" lon="2.088319">
        <ele>1201.087214</ele>
        <time>2022-05-22T00:31:05.726Z</time>
      </trkpt>
      <trkpt lat="42.322271" lon="2.088166">
        <ele>1200.486596</ele>
        <time>2022-05-22T00:31:07.735Z</time>
      </trkpt>
      <trkpt lat="42.322317" lon="2.088019">
        <ele>1199.894193</ele>
        <time>2022-05-22T00:31:09.728Z</time>
      </trkpt>
      <trkpt lat="42.322384" lon="2.087891">
        <ele>1199.312160</ele>
        <time>2022-05-22T00:31:11.728Z</time>
      </trkpt>
      <trkpt lat="42.322462" lon="2.087773">
        <ele>1198.724737</ele>
        <time>2022-05-22T00:31:13.730Z</time>
      </trkpt>
      <trkpt lat="42.322538" lon="2.087665">
        <ele>1198.160255</ele>
        <time>2022-05-22T00:31:15.740Z</time>
      </trkpt>
      <trkpt lat="42.322572" lon="2.087543">
        <ele>1197.666177</ele>
        <time>2022-05-22T00:31:17.731Z</time>
      </trkpt>
      <trkpt lat="42.322542" lon="2.087381">
        <ele>1197.033305</ele>
        <time>2022-05-22T00:31:19.736Z</time>
      </trkpt>
      <trkpt lat="42.322495" lon="2.087224">
        <ele>1196.391426</ele>
        <time>2022-05-22T00:31:21.736Z</time>
      </trkpt>
      <trkpt lat="42.322483" lon="2.087075">
        <ele>1195.823441</ele>
        <time>2022-05-22T00:31:23.726Z</time>
      </trkpt>
      <trkpt lat="42.322505" lon="2.086896">
        <ele>1195.135801</ele>
        <time>2022-05-22T00:31:25.754Z</time>
      </trkpt>
      <trkpt lat="42.322589" lon="2.086696">
        <ele>1194.264141</ele>
        <time>2022-05-22T00:31:27.743Z</time>
      </trkpt>
      <trkpt lat="42.322666" lon="2.086535">
        <ele>1193.537506</ele>
        <time>2022-05-22T00:31:29.735Z</time>
      </trkpt>
      <trkpt lat="42.322747" lon="2.086408">
        <ele>1192.901912</ele>
        <time>2022-05-22T00:31:31.731Z</time>
      </trkpt>
      <trkpt lat="42.322844" lon="2.086296">
        <ele>1192.248219</ele>
        <time>2022-05-22T00:31:33.733Z</time>
      </trkpt>
      <trkpt lat="42.322966" lon="2.086204">
        <ele>1191.532294</ele>
        <time>2022-05-22T00:31:35.730Z</time>
      </trkpt>
      <trkpt lat="42.323076" lon="2.086129">
        <ele>1190.900912</ele>
        <time>2022-05-22T00:31:37.738Z</time>
      </trkpt>
      <trkpt lat="42.323174" lon="2.086027">
        <ele>1190.267111</ele>
        <time>2022-05-22T00:31:39.740Z</time>
      </trkpt>
      <trkpt lat="42.323240" lon="2.085876">
        <ele>1189.602382</ele>
        <time>2022-05-22T00:31:41.736Z</time>
      </trkpt>
      <trkpt lat="42.323271" lon="2.085695">
        <ele>1188.735165</ele>
        <time>2022-05-22T00:31:43.746Z</time>
      </trkpt>
      <trkpt lat="42.323304" lon="2.085513">
        <ele>1187.826121</ele>
        <time>2022-05-22T00:31:45.734Z</time>
      </trkpt>
      <trkpt lat="42.323338" lon="2.085356">
        <ele>1187.032516</ele>
        <time>2022-05-22T00:31:47.735Z</time>
      </trkpt>
      <trkpt lat="42.323431" lon="2.085205">
        <ele>1186.079164</ele>
        <time>2022-05-22T00:31:49.732Z</time>
      </trkpt>
      <trkpt lat="42.323537" lon="2.085051">
        <ele>1185.058491</ele>
        <time>2022-05-22T00:31:51.732Z</time>
      </trkpt>
      <trkpt lat="42.323629" lon="2.084918">
        <ele>1184.174965</ele>
        <time>2022-05-22T00:31:53.732Z</time>
      </trkpt>
      <trkpt lat="42.323696" lon="2.084802">
        <ele>1183.460900</ele>
        <time>2022-05-22T00:31:55.733Z</time>
      </trkpt>
      <trkpt lat="42.323706" lon="2.084646">
        <ele>1182.701310</ele>
        <time>2022-05-22T00:31:58.724Z</time>
      </trkpt>
      <trkpt lat="42.323651" lon="2.084541">
        <ele>1182.077083</ele>
        <time>2022-05-22T00:32:00.732Z</time>
      </trkpt>
      <trkpt lat="42.323562" lon="2.084440">
        <ele>1181.314827</ele>
        <time>2022-05-22T00:32:02.737Z</time>
      </trkpt>
      <trkpt lat="42.323476" lon="2.084355">
        <ele>1180.615969</ele>
        <time>2022-05-22T00:32:04.738Z</time>
      </trkpt>
      <trkpt lat="42.323392" lon="2.084276">
        <ele>1179.944693</ele>
        <time>2022-05-22T00:32:06.732Z</time>
      </trkpt>
      <trkpt lat="42.323299" lon="2.084195">
        <ele>1179.218940</ele>
        <time>2022-05-22T00:32:08.723Z</time>
      </trkpt>
      <trkpt lat="42.323234" lon="2.084080">
        <ele>1178.516734</ele>
        <time>2022-05-22T00:32:11.729Z</time>
      </trkpt>
      <trkpt lat="42.323188" lon="2.083965">
        <ele>1177.882460</ele>
        <time>2022-05-22T00:32:14.733Z</time>
      </trkpt>
      <trkpt lat="42.323156" lon="2.083836">
        <ele>1177.792024</ele>
        <time>2022-05-22T00:32:17.739Z</time>
      </trkpt>
      <trkpt lat="42.323113" lon="2.083712">
        <ele>1177.955244</ele>
        <time>2022-05-22T00:32:20.736Z</time>
      </trkpt>
      <trkpt lat="42.323103" lon="2.083579">
        <ele>1178.114562</ele>
        <time>2022-05-22T00:32:23.729Z</time>
      </trkpt>
      <trkpt lat="42.323114" lon="2.083417">
        <ele>1178.308434</ele>
        <time>2022-05-22T00:32:27.740Z</time>
      </trkpt>
      <trkpt lat="42.323130" lon="2.083264">
        <ele>1178.492584</ele>
        <time>2022-05-22T00:32:30.735Z</time>
      </trkpt>
      <trkpt lat="42.323181" lon="2.083104">
        <ele>1178.700225</ele>
        <time>2022-05-22T00:32:33.742Z</time>
      </trkpt>
      <trkpt lat="42.323234" lon="2.082965">
        <ele>1178.886606</ele>
        <time>2022-05-22T00:32:36.733Z</time>
      </trkpt>
      <trkpt lat="42.323288" lon="2.082845">
        <ele>1179.054018</ele>
        <time>2022-05-22T00:32:39.730Z</time>
      </trkpt>
      <trkpt lat="42.323355" lon="2.082726">
        <ele>1179.232271</ele>
        <time>2022-05-22T00:32:42.737Z</time>
      </trkpt>
      <trkpt lat="42.323350" lon="2.082562">
        <ele>1179.427880</ele>
        <time>2022-05-22T00:32:45.729Z</time>
      </trkpt>
      <trkpt lat="42.323396" lon="2.082399">
        <ele>1179.635800</ele>
        <time>2022-05-22T00:32:48.729Z</time>
      </trkpt>
      <trkpt lat="42.323460" lon="2.082301">
        <ele>1179.791624</ele>
        <time>2022-05-22T00:32:50.732Z</time>
      </trkpt>
      <trkpt lat="42.323514" lon="2.082198">
        <ele>1179.942099</ele>
        <time>2022-05-22T00:32:52.719Z</time>
      </trkpt>
      <trkpt lat="42.323563" lon="2.082083">
        <ele>1180.100276</ele>
        <time>2022-05-22T00:32:54.726Z</time>
      </trkpt>
      <trkpt lat="42.323626" lon="2.081973">
        <ele>1180.266095</ele>
        <time>2022-05-22T00:32:56.728Z</time>
      </trkpt>
      <trkpt lat="42.323700" lon="2.081865">
        <ele>1180.441572</ele>
        <time>2022-05-22T00:32:58.733Z</time>
      </trkpt>
      <trkpt lat="42.323742" lon="2.081727">
        <ele>1180.523447</ele>
        <time>2022-05-22T00:33:00.737Z</time>
      </trkpt>
      <trkpt lat="42.323750" lon="2.081604">
        <ele>1180.322850</ele>
        <time>2022-05-22T00:33:02.720Z</time>
      </trkpt>
      <trkpt lat="42.323742" lon="2.081456">
        <ele>1180.081768</ele>
        <time>2022-05-22T00:33:05.724Z</time>
      </trkpt>
      <trkpt lat="42.323759" lon="2.081307">
        <ele>1179.836838</ele>
        <time>2022-05-22T00:33:08.725Z</time>
      </trkpt>
      <trkpt lat="42.323772" lon="2.081153">
        <ele>1179.585024</ele>
        <time>2022-05-22T00:33:11.722Z</time>
      </trkpt>
      <trkpt lat="42.323770" lon="2.080971">
        <ele>1179.289315</ele>
        <time>2022-05-22T00:33:14.737Z</time>
      </trkpt>
      <trkpt lat="42.323744" lon="2.080807">
        <ele>1179.016825</ele>
        <time>2022-05-22T00:33:17.724Z</time>
      </trkpt>
      <trkpt lat="42.323710" lon="2.080684">
        <ele>1178.803490</ele>
        <time>2022-05-22T00:33:19.729Z</time>
      </trkpt>
      <trkpt lat="42.323690" lon="2.080538">
        <ele>1178.562262</ele>
        <time>2022-05-22T00:33:21.731Z</time>
      </trkpt>
      <trkpt lat="42.323697" lon="2.080392">
        <ele>1178.324572</ele>
        <time>2022-05-22T00:33:23.723Z</time>
      </trkpt>
      <trkpt lat="42.323711" lon="2.080265">
        <ele>1178.115967</ele>
        <time>2022-05-22T00:33:25.730Z</time>
      </trkpt>
      <trkpt lat="42.323721" lon="2.080119">
        <ele>1177.877760</ele>
        <time>2022-05-22T00:33:27.734Z</time>
      </trkpt>
      <trkpt lat="42.323738" lon="2.079988">
        <ele>1177.661685</ele>
        <time>2022-05-22T00:33:29.736Z</time>
      </trkpt>
      <trkpt lat="42.323758" lon="2.079836">
        <ele>1177.410866</ele>
        <time>2022-05-22T00:33:32.737Z</time>
      </trkpt>
      <trkpt lat="42.323734" lon="2.079688">
        <ele>1177.164710</ele>
        <time>2022-05-22T00:33:35.735Z</time>
      </trkpt>
      <trkpt lat="42.323729" lon="2.079499">
        <ele>1176.857465</ele>
        <time>2022-05-22T00:33:38.728Z</time>
      </trkpt>
      <trkpt lat="42.323720" lon="2.079378">
        <ele>1176.659896</ele>
        <time>2022-05-22T00:33:40.732Z</time>
      </trkpt>
      <trkpt lat="42.323695" lon="2.079239">
        <ele>1176.433058</ele>
        <time>2022-05-22T00:33:42.734Z</time>
      </trkpt>
      <trkpt lat="42.323683" lon="2.079099">
        <ele>1176.210492</ele>
        <time>2022-05-22T00:33:44.729Z</time>
      </trkpt>
      <trkpt lat="42.323686" lon="2.078964">
        <ele>1175.997207</ele>
        <time>2022-05-22T00:33:46.731Z</time>
      </trkpt>
      <trkpt lat="42.323666" lon="2.078796">
        <ele>1175.728488</ele>
        <time>2022-05-22T00:33:49.728Z</time>
      </trkpt>
      <trkpt lat="42.323651" lon="2.078672">
        <ele>1175.530067</ele>
        <time>2022-05-22T00:33:51.731Z</time>
      </trkpt>
      <trkpt lat="42.323631" lon="2.078547">
        <ele>1175.328100</ele>
        <time>2022-05-22T00:33:53.730Z</time>
      </trkpt>
      <trkpt lat="42.323618" lon="2.078364">
        <ele>1175.037779</ele>
        <time>2022-05-22T00:33:56.730Z</time>
      </trkpt>
      <trkpt lat="42.323592" lon="2.078193">
        <ele>1174.762089</ele>
        <time>2022-05-22T00:33:59.735Z</time>
      </trkpt>
      <trkpt lat="42.323567" lon="2.078032">
        <ele>1174.502294</ele>
        <time>2022-05-22T00:34:02.732Z</time>
      </trkpt>
      <trkpt lat="42.323543" lon="2.077891">
        <ele>1174.273805</ele>
        <time>2022-05-22T00:34:05.714Z</time>
      </trkpt>
      <trkpt lat="42.323523" lon="2.077752">
        <ele>1174.050181</ele>
        <time>2022-05-22T00:34:08.726Z</time>
      </trkpt>
      <trkpt lat="42.323508" lon="2.077610">
        <ele>1173.823660</ele>
        <time>2022-05-22T00:34:11.734Z</time>
      </trkpt>
      <trkpt lat="42.323508" lon="2.077455">
        <ele>1173.578887</ele>
        <time>2022-05-22T00:34:15.730Z</time>
      </trkpt>
      <trkpt lat="42.323483" lon="2.077305">
        <ele>1173.336065</ele>
        <time>2022-05-22T00:34:18.736Z</time>
      </trkpt>
      <trkpt lat="42.323437" lon="2.077181">
        <ele>1173.116980</ele>
        <time>2022-05-22T00:34:20.724Z</time>
      </trkpt>
      <trkpt lat="42.323386" lon="2.077063">
        <ele>1172.901134</ele>
        <time>2022-05-22T00:34:22.727Z</time>
      </trkpt>
      <trkpt lat="42.323337" lon="2.076906">
        <ele>1172.501740</ele>
        <time>2022-05-22T00:34:25.725Z</time>
      </trkpt>
      <trkpt lat="42.323288" lon="2.076766">
        <ele>1172.048690</ele>
        <time>2022-05-22T00:34:28.719Z</time>
      </trkpt>
      <trkpt lat="42.323246" lon="2.076651">
        <ele>1171.673527</ele>
        <time>2022-05-22T00:34:31.726Z</time>
      </trkpt>
      <trkpt lat="42.323209" lon="2.076492">
        <ele>1171.185976</ele>
        <time>2022-05-22T00:34:35.716Z</time>
      </trkpt>
      <trkpt lat="42.323173" lon="2.076370">
        <ele>1170.801767</ele>
        <time>2022-05-22T00:34:38.717Z</time>
      </trkpt>
      <trkpt lat="42.323123" lon="2.076239">
        <ele>1170.370561</ele>
        <time>2022-05-22T00:34:41.713Z</time>
      </trkpt>
      <trkpt lat="42.323077" lon="2.076093">
        <ele>1169.906366</ele>
        <time>2022-05-22T00:34:44.735Z</time>
      </trkpt>
      <trkpt lat="42.323021" lon="2.075963">
        <ele>1169.466298</ele>
        <time>2022-05-22T00:34:47.714Z</time>
      </trkpt>
      <trkpt lat="42.322984" lon="2.075845">
        <ele>1169.091403</ele>
        <time>2022-05-22T00:34:50.731Z</time>
      </trkpt>
      <trkpt lat="42.322972" lon="2.075723">
        <ele>1168.731419</ele>
        <time>2022-05-22T00:34:53.727Z</time>
      </trkpt>
      <trkpt lat="42.322959" lon="2.075563">
        <ele>1168.260614</ele>
        <time>2022-05-22T00:34:57.718Z</time>
      </trkpt>
      <trkpt lat="42.322954" lon="2.075436">
        <ele>1167.888623</ele>
        <time>2022-05-22T00:35:00.728Z</time>
      </trkpt>
      <trkpt lat="42.322941" lon="2.075316">
        <ele>1167.533885</ele>
        <time>2022-05-22T00:35:03.735Z</time>
      </trkpt>
      <trkpt lat="42.322948" lon="2.075177">
        <ele>1167.126379</ele>
        <time>2022-05-22T00:35:07.730Z</time>
      </trkpt>
      <trkpt lat="42.322951" lon="2.075044">
        <ele>1166.737184</ele>
        <time>2022-05-22T00:35:11.724Z</time>
      </trkpt>
      <trkpt lat="42.322953" lon="2.074907">
        <ele>1166.336392</ele>
        <time>2022-05-22T00:35:16.722Z</time>
      </trkpt>
      <trkpt lat="42.322945" lon="2.074755">
        <ele>1165.890679</ele>
        <time>2022-05-22T00:35:20.728Z</time>
      </trkpt>
      <trkpt lat="42.322911" lon="2.074621">
        <ele>1165.786385</ele>
        <time>2022-05-22T00:35:24.727Z</time>
      </trkpt>
      <trkpt lat="42.322879" lon="2.074499">
        <ele>1166.015619</ele>
        <time>2022-05-22T00:35:27.730Z</time>
      </trkpt>
      <trkpt lat="42.322864" lon="2.074376">
        <ele>1166.236375</ele>
        <time>2022-05-22T00:35:30.727Z</time>
      </trkpt>
      <trkpt lat="42.322825" lon="2.074249">
        <ele>1166.479897</ele>
        <time>2022-05-22T00:35:33.733Z</time>
      </trkpt>
      <trkpt lat="42.322763" lon="2.074116">
        <ele>1166.758324</ele>
        <time>2022-05-22T00:35:37.726Z</time>
      </trkpt>
      <trkpt lat="42.322737" lon="2.073995">
        <ele>1166.981460</ele>
        <time>2022-05-22T00:35:40.731Z</time>
      </trkpt>
      <trkpt lat="42.322716" lon="2.073871">
        <ele>1167.206731</ele>
        <time>2022-05-22T00:35:43.734Z</time>
      </trkpt>
      <trkpt lat="42.322683" lon="2.073744">
        <ele>1167.445112</ele>
        <time>2022-05-22T00:35:46.732Z</time>
      </trkpt>
      <trkpt lat="42.322637" lon="2.073608">
        <ele>1167.709951</ele>
        <time>2022-05-22T00:35:49.736Z</time>
      </trkpt>
      <trkpt lat="42.322584" lon="2.073499">
        <ele>1167.940972</ele>
        <time>2022-05-22T00:35:51.727Z</time>
      </trkpt>
      <trkpt lat="42.322531" lon="2.073365">
        <ele>1168.210085</ele>
        <time>2022-05-22T00:35:54.729Z</time>
      </trkpt>
      <trkpt lat="42.322477" lon="2.073261">
        <ele>1168.435130</ele>
        <time>2022-05-22T00:35:57.732Z</time>
      </trkpt>
      <trkpt lat="42.322428" lon="2.073128">
        <ele>1168.698273</ele>
        <time>2022-05-22T00:36:01.728Z</time>
      </trkpt>
      <trkpt lat="42.322398" lon="2.072985">
        <ele>1168.961501</ele>
        <time>2022-05-22T00:36:04.730Z</time>
      </trkpt>
      <trkpt lat="42.322376" lon="2.072864">
        <ele>1169.182157</ele>
        <time>2022-05-22T00:36:06.732Z</time>
      </trkpt>
      <trkpt lat="42.322330" lon="2.072725">
        <ele>1169.451837</ele>
        <time>2022-05-22T00:36:09.725Z</time>
      </trkpt>
      <trkpt lat="42.322239" lon="2.072614">
        <ele>1169.745334</ele>
        <time>2022-05-22T00:36:13.724Z</time>
      </trkpt>
      <trkpt lat="42.322147" lon="2.072516">
        <ele>1170.096102</ele>
        <time>2022-05-22T00:36:16.730Z</time>
      </trkpt>
      <trkpt lat="42.322059" lon="2.072414">
        <ele>1170.776212</ele>
        <time>2022-05-22T00:36:19.730Z</time>
      </trkpt>
      <trkpt lat="42.321995" lon="2.072281">
        <ele>1171.464740</ele>
        <time>2022-05-22T00:36:22.732Z</time>
      </trkpt>
      <trkpt lat="42.321954" lon="2.072132">
        <ele>1172.154557</ele>
        <time>2022-05-22T00:36:25.732Z</time>
      </trkpt>
      <trkpt lat="42.321924" lon="2.071969">
        <ele>1172.883380</ele>
        <time>2022-05-22T00:36:28.737Z</time>
      </trkpt>
      <trkpt lat="42.321910" lon="2.071828">
        <ele>1173.500658</ele>
        <time>2022-05-22T00:36:31.733Z</time>
      </trkpt>
      <trkpt lat="42.321873" lon="2.071697">
        <ele>1174.109115</ele>
        <time>2022-05-22T00:36:35.732Z</time>
      </trkpt>
      <trkpt lat="42.321839" lon="2.071582">
        <ele>1174.646502</ele>
        <time>2022-05-22T00:36:38.726Z</time>
      </trkpt>
      <trkpt lat="42.321752" lon="2.071478">
        <ele>1175.327885</ele>
        <time>2022-05-22T00:36:42.735Z</time>
      </trkpt>
      <trkpt lat="42.321699" lon="2.071376">
        <ele>1175.868813</ele>
        <time>2022-05-22T00:36:45.736Z</time>
      </trkpt>
      <trkpt lat="42.321641" lon="2.071252">
        <ele>1176.505460</ele>
        <time>2022-05-22T00:36:49.730Z</time>
      </trkpt>
      <trkpt lat="42.321608" lon="2.071115">
        <ele>1177.130643</ele>
        <time>2022-05-22T00:36:53.738Z</time>
      </trkpt>
      <trkpt lat="42.321615" lon="2.070967">
        <ele>1177.774116</ele>
        <time>2022-05-22T00:36:58.730Z</time>
      </trkpt>
      <trkpt lat="42.321655" lon="2.070856">
        <ele>1178.309895</ele>
        <time>2022-05-22T00:37:02.733Z</time>
      </trkpt>
      <trkpt lat="42.321674" lon="2.070730">
        <ele>1178.867853</ele>
        <time>2022-05-22T00:37:13.727Z</time>
      </trkpt>
      <trkpt lat="42.321732" lon="2.070635">
        <ele>1179.402413</ele>
        <time>2022-05-22T00:37:25.732Z</time>
      </trkpt>
      <trkpt lat="42.321798" lon="2.070509">
        <ele>1180.072409</ele>
        <time>2022-05-22T00:37:30.735Z</time>
      </trkpt>
      <trkpt lat="42.321825" lon="2.070382">
        <ele>1180.751339</ele>
        <time>2022-05-22T00:37:35.732Z</time>
      </trkpt>
      <trkpt lat="42.321840" lon="2.070256">
        <ele>1181.820749</ele>
        <time>2022-05-22T00:37:56.734Z</time>
      </trkpt>
      <trkpt lat="42.321817" lon="2.070109">
        <ele>1183.079808</ele>
        <time>2022-05-22T00:38:02.734Z</time>
      </trkpt>
      <trkpt lat="42.321793" lon="2.069992">
        <ele>1184.097237</ele>
        <time>2022-05-22T00:38:06.721Z</time>
      </trkpt>
      <trkpt lat="42.321749" lon="2.069850">
        <ele>1185.387387</ele>
        <time>2022-05-22T00:38:10.726Z</time>
      </trkpt>
      <trkpt lat="42.321703" lon="2.069703">
        <ele>1186.724948</ele>
        <time>2022-05-22T00:38:13.724Z</time>
      </trkpt>
      <trkpt lat="42.321708" lon="2.069561">
        <ele>1187.916183</ele>
        <time>2022-05-22T00:38:16.733Z</time>
      </trkpt>
      <trkpt lat="42.321746" lon="2.069426">
        <ele>1189.126616</ele>
        <time>2022-05-22T00:38:19.731Z</time>
      </trkpt>
      <trkpt lat="42.321820" lon="2.069324">
        <ele>1190.324057</ele>
        <time>2022-05-22T00:38:22.737Z</time>
      </trkpt>
      <trkpt lat="42.321898" lon="2.069230">
        <ele>1191.508057</ele>
        <time>2022-05-22T00:38:26.732Z</time>
      </trkpt>
      <trkpt lat="42.321974" lon="2.069160">
        <ele>1192.550136</ele>
        <time>2022-05-22T00:38:31.734Z</time>
      </trkpt>
      <trkpt lat="42.322061" lon="2.069103">
        <ele>1193.645717</ele>
        <time>2022-05-22T00:38:37.733Z</time>
      </trkpt>
      <trkpt lat="42.322162" lon="2.069087">
        <ele>1194.798193</ele>
        <time>2022-05-22T00:38:44.729Z</time>
      </trkpt>
      <trkpt lat="42.322264" lon="2.069035">
        <ele>1196.033571</ele>
        <time>2022-05-22T00:38:50.728Z</time>
      </trkpt>
      <trkpt lat="42.322357" lon="2.069006">
        <ele>1197.115206</ele>
        <time>2022-05-22T00:38:53.731Z</time>
      </trkpt>
      <trkpt lat="42.322469" lon="2.069004">
        <ele>1198.384632</ele>
        <time>2022-05-22T00:38:56.733Z</time>
      </trkpt>
      <trkpt lat="42.322568" lon="2.068993">
        <ele>1199.510397</ele>
        <time>2022-05-22T00:38:59.738Z</time>
      </trkpt>
      <trkpt lat="42.322665" lon="2.068974">
        <ele>1200.621183</ele>
        <time>2022-05-22T00:39:02.734Z</time>
      </trkpt>
      <trkpt lat="42.322767" lon="2.068933">
        <ele>1201.034092</ele>
        <time>2022-05-22T00:39:05.739Z</time>
      </trkpt>
      <trkpt lat="42.322864" lon="2.068920">
        <ele>1201.176466</ele>
        <time>2022-05-22T00:39:08.728Z</time>
      </trkpt>
      <trkpt lat="42.322968" lon="2.068894">
        <ele>1201.330944</ele>
        <time>2022-05-22T00:39:12.728Z</time>
      </trkpt>
      <trkpt lat="42.323075" lon="2.068866">
        <ele>1201.490128</ele>
        <time>2022-05-22T00:39:16.729Z</time>
      </trkpt>
      <trkpt lat="42.323179" lon="2.068790">
        <ele>1201.662787</ele>
        <time>2022-05-22T00:39:20.730Z</time>
      </trkpt>
      <trkpt lat="42.323261" lon="2.068723">
        <ele>1201.802716</ele>
        <time>2022-05-22T00:39:23.732Z</time>
      </trkpt>
      <trkpt lat="42.323346" lon="2.068638">
        <ele>1201.957118</ele>
        <time>2022-05-22T00:39:26.733Z</time>
      </trkpt>
      <trkpt lat="42.323419" lon="2.068552">
        <ele>1202.098519</ele>
        <time>2022-05-22T00:39:29.725Z</time>
      </trkpt>
      <trkpt lat="42.323491" lon="2.068432">
        <ele>1202.265412</ele>
        <time>2022-05-22T00:39:33.730Z</time>
      </trkpt>
      <trkpt lat="42.323542" lon="2.068287">
        <ele>1202.438815</ele>
        <time>2022-05-22T00:39:37.735Z</time>
      </trkpt>
      <trkpt lat="42.323576" lon="2.068174">
        <ele>1202.570563</ele>
        <time>2022-05-22T00:39:40.729Z</time>
      </trkpt>
      <trkpt lat="42.323628" lon="2.068046">
        <ele>1202.728285</ele>
        <time>2022-05-22T00:39:44.734Z</time>
      </trkpt>
      <trkpt lat="42.323681" lon="2.067911">
        <ele>1202.893351</ele>
        <time>2022-05-22T00:39:48.725Z</time>
      </trkpt>
      <trkpt lat="42.323737" lon="2.067779">
        <ele>1203.057699</ele>
        <time>2022-05-22T00:39:52.728Z</time>
      </trkpt>
      <trkpt lat="42.323786" lon="2.067662">
        <ele>1203.202912</ele>
        <time>2022-05-22T00:39:56.737Z</time>
      </trkpt>
      <trkpt lat="42.323834" lon="2.067530">
        <ele>1203.361768</ele>
        <time>2022-05-22T00:40:00.738Z</time>
      </trkpt>
      <trkpt lat="42.323892" lon="2.067392">
        <ele>1203.533191</ele>
        <time>2022-05-22T00:40:04.737Z</time>
      </trkpt>
      <trkpt lat="42.323950" lon="2.067291">
        <ele>1203.998148</ele>
        <time>2022-05-22T00:40:07.729Z</time>
      </trkpt>
      <trkpt lat="42.324004" lon="2.067158">
        <ele>1204.582389</ele>
        <time>2022-05-22T00:40:11.737Z</time>
      </trkpt>
      <trkpt lat="42.324040" lon="2.067010">
        <ele>1205.182298</ele>
        <time>2022-05-22T00:40:15.733Z</time>
      </trkpt>
      <trkpt lat="42.324071" lon="2.066882">
        <ele>1205.700918</ele>
        <time>2022-05-22T00:40:18.728Z</time>
      </trkpt>
      <trkpt lat="42.324104" lon="2.066758">
        <ele>1206.208357</ele>
        <time>2022-05-22T00:40:21.729Z</time>
      </trkpt>
      <trkpt lat="42.324134" lon="2.066630">
        <ele>1206.725379</ele>
        <time>2022-05-22T00:40:24.731Z</time>
      </trkpt>
      <trkpt lat="42.324165" lon="2.066501">
        <ele>1207.247660</ele>
        <time>2022-05-22T00:40:27.732Z</time>
      </trkpt>
      <trkpt lat="42.324206" lon="2.066361">
        <ele>1207.827464</ele>
        <time>2022-05-22T00:40:31.732Z</time>
      </trkpt>
      <trkpt lat="42.324218" lon="2.066229">
        <ele>1208.339544</ele>
        <time>2022-05-22T00:40:34.730Z</time>
      </trkpt>
      <trkpt lat="42.324269" lon="2.066082">
        <ele>1208.964771</ele>
        <time>2022-05-22T00:40:38.730Z</time>
      </trkpt>
      <trkpt lat="42.324279" lon="2.065954">
        <ele>1209.460365</ele>
        <time>2022-05-22T00:40:41.729Z</time>
      </trkpt>
      <trkpt lat="42.324337" lon="2.065822">
        <ele>1210.051598</ele>
        <time>2022-05-22T00:40:45.733Z</time>
      </trkpt>
      <trkpt lat="42.324377" lon="2.065705">
        <ele>1210.547925</ele>
        <time>2022-05-22T00:40:48.731Z</time>
      </trkpt>
      <trkpt lat="42.324413" lon="2.065586">
        <ele>1211.042994</ele>
        <time>2022-05-22T00:40:51.731Z</time>
      </trkpt>
      <trkpt lat="42.324451" lon="2.065433">
        <ele>1211.664454</ele>
        <time>2022-05-22T00:40:55.731Z</time>
      </trkpt>
      <trkpt lat="42.324477" lon="2.065311">
        <ele>1212.153327</ele>
        <time>2022-05-22T00:40:58.726Z</time>
      </trkpt>
      <trkpt lat="42.324505" lon="2.065181">
        <ele>1212.674684</ele>
        <time>2022-05-22T00:41:01.733Z</time>
      </trkpt>
      <trkpt lat="42.324525" lon="2.065036">
        <ele>1213.052388</ele>
        <time>2022-05-22T00:41:05.734Z</time>
      </trkpt>
      <trkpt lat="42.324556" lon="2.064894">
        <ele>1213.295508</ele>
        <time>2022-05-22T00:41:09.730Z</time>
      </trkpt>
      <trkpt lat="42.324582" lon="2.064752">
        <ele>1213.535720</ele>
        <time>2022-05-22T00:41:13.726Z</time>
      </trkpt>
      <trkpt lat="42.324614" lon="2.064637">
        <ele>1213.737485</ele>
        <time>2022-05-22T00:41:17.727Z</time>
      </trkpt>
      <trkpt lat="42.324643" lon="2.064498">
        <ele>1213.974640</ele>
        <time>2022-05-22T00:41:21.731Z</time>
      </trkpt>
      <trkpt lat="42.324667" lon="2.064346">
        <ele>1214.229857</ele>
        <time>2022-05-22T00:41:25.730Z</time>
      </trkpt>
      <trkpt lat="42.324694" lon="2.064210">
        <ele>1214.461083</ele>
        <time>2022-05-22T00:41:29.733Z</time>
      </trkpt>
      <trkpt lat="42.324713" lon="2.064059">
        <ele>1214.712595</ele>
        <time>2022-05-22T00:41:33.735Z</time>
      </trkpt>
      <trkpt lat="42.324718" lon="2.063890">
        <ele>1214.990319</ele>
        <time>2022-05-22T00:41:37.754Z</time>
      </trkpt>
      <trkpt lat="42.324734" lon="2.063758">
        <ele>1215.209960</ele>
        <time>2022-05-22T00:41:40.716Z</time>
      </trkpt>
      <trkpt lat="42.324752" lon="2.063621">
        <ele>1215.438442</ele>
        <time>2022-05-22T00:41:44.709Z</time>
      </trkpt>
      <trkpt lat="42.324789" lon="2.063484">
        <ele>1215.677938</ele>
        <time>2022-05-22T00:41:48.723Z</time>
      </trkpt>
      <trkpt lat="42.324831" lon="2.063362">
        <ele>1215.898918</ele>
        <time>2022-05-22T00:41:52.728Z</time>
      </trkpt>
      <trkpt lat="42.324867" lon="2.063244">
        <ele>1216.108525</ele>
        <time>2022-05-22T00:41:56.715Z</time>
      </trkpt>
      <trkpt lat="42.324896" lon="2.063121">
        <ele>1216.320514</ele>
        <time>2022-05-22T00:42:00.715Z</time>
      </trkpt>
      <trkpt lat="42.324924" lon="2.062987">
        <ele>1216.549164</ele>
        <time>2022-05-22T00:42:05.751Z</time>
      </trkpt>
      <trkpt lat="42.324937" lon="2.062856">
        <ele>1216.766198</ele>
        <time>2022-05-22T00:42:10.743Z</time>
      </trkpt>
      <trkpt lat="42.324978" lon="2.062713">
        <ele>1216.814247</ele>
        <time>2022-05-22T00:42:14.715Z</time>
      </trkpt>
      <trkpt lat="42.324991" lon="2.062576">
        <ele>1216.629972</ele>
        <time>2022-05-22T00:42:18.726Z</time>
      </trkpt>
      <trkpt lat="42.324979" lon="2.062448">
        <ele>1216.457836</ele>
        <time>2022-05-22T00:42:22.727Z</time>
      </trkpt>
      <trkpt lat="42.324973" lon="2.062313">
        <ele>1216.277403</ele>
        <time>2022-05-22T00:42:26.725Z</time>
      </trkpt>
      <trkpt lat="42.324989" lon="2.062170">
        <ele>1216.084449</ele>
        <time>2022-05-22T00:42:30.722Z</time>
      </trkpt>
      <trkpt lat="42.324999" lon="2.062045">
        <ele>1215.916709</ele>
        <time>2022-05-22T00:42:34.711Z</time>
      </trkpt>
      <trkpt lat="42.324992" lon="2.061918">
        <ele>1215.746804</ele>
        <time>2022-05-22T00:42:38.716Z</time>
      </trkpt>
      <trkpt lat="42.324993" lon="2.061779">
        <ele>1215.561351</ele>
        <time>2022-05-22T00:42:43.727Z</time>
      </trkpt>
      <trkpt lat="42.324996" lon="2.061625">
        <ele>1215.355824</ele>
        <time>2022-05-22T00:42:48.724Z</time>
      </trkpt>
      <trkpt lat="42.324999" lon="2.061494">
        <ele>1215.180968</ele>
        <time>2022-05-22T00:42:52.720Z</time>
      </trkpt>
      <trkpt lat="42.324997" lon="2.061351">
        <ele>1214.990153</ele>
        <time>2022-05-22T00:42:56.725Z</time>
      </trkpt>
      <trkpt lat="42.325010" lon="2.061224">
        <ele>1214.819102</ele>
        <time>2022-05-22T00:43:00.722Z</time>
      </trkpt>
      <trkpt lat="42.324999" lon="2.061091">
        <ele>1214.640556</ele>
        <time>2022-05-22T00:43:05.720Z</time>
      </trkpt>
      <trkpt lat="42.325009" lon="2.060950">
        <ele>1214.451580</ele>
        <time>2022-05-22T00:43:11.741Z</time>
      </trkpt>
      <trkpt lat="42.325017" lon="2.060816">
        <ele>1214.272224</ele>
        <time>2022-05-22T00:43:16.732Z</time>
      </trkpt>
      <trkpt lat="42.325007" lon="2.060678">
        <ele>1214.087232</ele>
        <time>2022-05-22T00:43:21.725Z</time>
      </trkpt>
      <trkpt lat="42.325008" lon="2.060550">
        <ele>1213.916454</ele>
        <time>2022-05-22T00:43:25.730Z</time>
      </trkpt>
      <trkpt lat="42.325027" lon="2.060406">
        <ele>1213.721303</ele>
        <time>2022-05-22T00:43:29.733Z</time>
      </trkpt>
      <trkpt lat="42.325033" lon="2.060282">
        <ele>1214.157356</ele>
        <time>2022-05-22T00:43:32.726Z</time>
      </trkpt>
      <trkpt lat="42.325056" lon="2.060137">
        <ele>1215.099618</ele>
        <time>2022-05-22T00:43:36.724Z</time>
      </trkpt>
      <trkpt lat="42.325047" lon="2.059995">
        <ele>1216.005162</ele>
        <time>2022-05-22T00:43:40.724Z</time>
      </trkpt>
      <trkpt lat="42.325040" lon="2.059827">
        <ele>1217.074290</ele>
        <time>2022-05-22T00:43:44.721Z</time>
      </trkpt>
      <trkpt lat="42.325057" lon="2.059670">
        <ele>1218.082474</ele>
        <time>2022-05-22T00:43:48.732Z</time>
      </trkpt>
      <trkpt lat="42.325077" lon="2.059540">
        <ele>1218.926157</ele>
        <time>2022-05-22T00:43:52.735Z</time>
      </trkpt>
      <trkpt lat="42.325120" lon="2.059427">
        <ele>1219.733651</ele>
        <time>2022-05-22T00:43:56.732Z</time>
      </trkpt>
      <trkpt lat="42.325156" lon="2.059287">
        <ele>1220.675444</ele>
        <time>2022-05-22T00:44:00.737Z</time>
      </trkpt>
      <trkpt lat="42.325190" lon="2.059171">
        <ele>1221.468286</ele>
        <time>2022-05-22T00:44:04.726Z</time>
      </trkpt>
      <trkpt lat="42.325224" lon="2.059051">
        <ele>1222.284807</ele>
        <time>2022-05-22T00:44:08.724Z</time>
      </trkpt>
      <trkpt lat="42.325257" lon="2.058920">
        <ele>1223.164136</ele>
        <time>2022-05-22T00:44:12.733Z</time>
      </trkpt>
      <trkpt lat="42.325301" lon="2.058810">
        <ele>1223.958782</ele>
        <time>2022-05-22T00:44:16.737Z</time>
      </trkpt>
      <trkpt lat="42.325362" lon="2.058700">
        <ele>1224.832447</ele>
        <time>2022-05-22T00:44:20.729Z</time>
      </trkpt>
      <trkpt lat="42.325422" lon="2.058605">
        <ele>1225.626309</ele>
        <time>2022-05-22T00:44:24.723Z</time>
      </trkpt>
      <trkpt lat="42.325445" lon="2.058485">
        <ele>1226.413961</ele>
        <time>2022-05-22T00:44:27.709Z</time>
      </trkpt>
      <trkpt lat="42.325490" lon="2.058359">
        <ele>1227.303044</ele>
        <time>2022-05-22T00:44:32.717Z</time>
      </trkpt>
      <trkpt lat="42.325548" lon="2.058239">
        <ele>1228.213962</ele>
        <time>2022-05-22T00:44:38.730Z</time>
      </trkpt>
      <trkpt lat="42.325593" lon="2.058125">
        <ele>1229.035060</ele>
        <time>2022-05-22T00:44:44.717Z</time>
      </trkpt>
      <trkpt lat="42.325656" lon="2.058010">
        <ele>1230.360664</ele>
        <time>2022-05-22T00:44:50.720Z</time>
      </trkpt>
      <trkpt lat="42.325710" lon="2.057900">
        <ele>1231.621730</ele>
        <time>2022-05-22T00:44:55.724Z</time>
      </trkpt>
      <trkpt lat="42.325764" lon="2.057801">
        <ele>1232.796712</ele>
        <time>2022-05-22T00:45:00.723Z</time>
      </trkpt>
      <trkpt lat="42.325825" lon="2.057702">
        <ele>1234.027531</ele>
        <time>2022-05-22T00:45:05.716Z</time>
      </trkpt>
      <trkpt lat="42.325890" lon="2.057609">
        <ele>1235.249799</ele>
        <time>2022-05-22T00:45:11.716Z</time>
      </trkpt>
      <trkpt lat="42.325944" lon="2.057510">
        <ele>1236.424779</ele>
        <time>2022-05-22T00:45:16.720Z</time>
      </trkpt>
      <trkpt lat="42.325994" lon="2.057387">
        <ele>1237.765354</ele>
        <time>2022-05-22T00:45:21.713Z</time>
      </trkpt>
      <trkpt lat="42.326052" lon="2.057291">
        <ele>1238.949404</ele>
        <time>2022-05-22T00:45:26.831Z</time>
      </trkpt>
      <trkpt lat="42.326113" lon="2.057176">
        <ele>1240.301150</ele>
        <time>2022-05-22T00:45:32.717Z</time>
      </trkpt>
      <trkpt lat="42.326153" lon="2.057064">
        <ele>1241.489075</ele>
        <time>2022-05-22T00:45:36.710Z</time>
      </trkpt>
      <trkpt lat="42.326190" lon="2.056932">
        <ele>1242.837307</ele>
        <time>2022-05-22T00:45:41.727Z</time>
      </trkpt>
      <trkpt lat="42.326222" lon="2.056802">
        <ele>1244.145880</ele>
        <time>2022-05-22T00:45:46.729Z</time>
      </trkpt>
      <trkpt lat="42.326253" lon="2.056669">
        <ele>1245.477727</ele>
        <time>2022-05-22T00:45:52.729Z</time>
      </trkpt>
      <trkpt lat="42.326289" lon="2.056557">
        <ele>1246.644102</ele>
        <time>2022-05-22T00:45:57.727Z</time>
      </trkpt>
      <trkpt lat="42.326298" lon="2.056415">
        <ele>1248.005246</ele>
        <time>2022-05-22T00:46:03.723Z</time>
      </trkpt>
      <trkpt lat="42.326320" lon="2.056296">
        <ele>1249.176749</ele>
        <time>2022-05-22T00:46:08.722Z</time>
      </trkpt>
      <trkpt lat="42.326333" lon="2.056175">
        <ele>1250.344496</ele>
        <time>2022-05-22T00:46:13.728Z</time>
      </trkpt>
      <trkpt lat="42.326338" lon="2.056048">
        <ele>1251.559127</ele>
        <time>2022-05-22T00:46:18.723Z</time>
      </trkpt>
      <trkpt lat="42.326328" lon="2.055916">
        <ele>1252.331936</ele>
        <time>2022-05-22T00:46:23.725Z</time>
      </trkpt>
      <trkpt lat="42.326319" lon="2.055786">
        <ele>1252.279229</ele>
        <time>2022-05-22T00:46:29.728Z</time>
      </trkpt>
      <trkpt lat="42.326308" lon="2.055664">
        <ele>1252.229616</ele>
        <time>2022-05-22T00:46:34.729Z</time>
      </trkpt>
      <trkpt lat="42.326299" lon="2.055527">
        <ele>1252.174096</ele>
        <time>2022-05-22T00:46:39.736Z</time>
      </trkpt>
      <trkpt lat="42.326273" lon="2.055393">
        <ele>1252.118172</ele>
        <time>2022-05-22T00:46:43.747Z</time>
      </trkpt>
      <trkpt lat="42.326239" lon="2.055274">
        <ele>1252.066673</ele>
        <time>2022-05-22T00:46:47.726Z</time>
      </trkpt>
      <trkpt lat="42.326190" lon="2.055148">
        <ele>1252.009203</ele>
        <time>2022-05-22T00:46:52.739Z</time>
      </trkpt>
      <trkpt lat="42.326131" lon="2.055041">
        <ele>1251.955321</ele>
        <time>2022-05-22T00:46:56.738Z</time>
      </trkpt>
      <trkpt lat="42.326073" lon="2.054929">
        <ele>1251.900122</ele>
        <time>2022-05-22T00:47:00.741Z</time>
      </trkpt>
      <trkpt lat="42.326014" lon="2.054817">
        <ele>1251.844608</ele>
        <time>2022-05-22T00:47:06.732Z</time>
      </trkpt>
      <trkpt lat="42.325942" lon="2.054731">
        <ele>1251.792162</ele>
        <time>2022-05-22T00:47:13.727Z</time>
      </trkpt>
      <trkpt lat="42.325856" lon="2.054658">
        <ele>1251.736725</ele>
        <time>2022-05-22T00:47:18.719Z</time>
      </trkpt>
      <trkpt lat="42.325779" lon="2.054561">
        <ele>1251.679273</ele>
        <time>2022-05-22T00:47:23.735Z</time>
      </trkpt>
      <trkpt lat="42.325713" lon="2.054477">
        <ele>1251.629792</ele>
        <time>2022-05-22T00:47:27.730Z</time>
      </trkpt>
      <trkpt lat="42.325657" lon="2.054348">
        <ele>1251.569405</ele>
        <time>2022-05-22T00:47:32.725Z</time>
      </trkpt>
      <trkpt lat="42.325623" lon="2.054234">
        <ele>1251.519783</ele>
        <time>2022-05-22T00:47:36.725Z</time>
      </trkpt>
      <trkpt lat="42.325603" lon="2.054115">
        <ele>1251.470520</ele>
        <time>2022-05-22T00:47:40.730Z</time>
      </trkpt>
      <trkpt lat="42.325597" lon="2.053994">
        <ele>1251.421566</ele>
        <time>2022-05-22T00:47:44.735Z</time>
      </trkpt>
      <trkpt lat="42.325599" lon="2.053863">
        <ele>1251.386466</ele>
        <time>2022-05-22T00:47:48.725Z</time>
      </trkpt>
      <trkpt lat="42.325627" lon="2.053721">
        <ele>1252.167963</ele>
        <time>2022-05-22T00:47:53.722Z</time>
      </trkpt>
      <trkpt lat="42.325661" lon="2.053585">
        <ele>1252.931387</ele>
        <time>2022-05-22T00:47:58.718Z</time>
      </trkpt>
      <trkpt lat="42.325696" lon="2.053446">
        <ele>1253.712228</ele>
        <time>2022-05-22T00:48:03.731Z</time>
      </trkpt>
      <trkpt lat="42.325742" lon="2.053313">
        <ele>1254.493033</ele>
        <time>2022-05-22T00:48:08.726Z</time>
      </trkpt>
      <trkpt lat="42.325752" lon="2.053165">
        <ele>1255.283320</ele>
        <time>2022-05-22T00:48:13.726Z</time>
      </trkpt>
      <trkpt lat="42.325762" lon="2.053042">
        <ele>1255.941329</ele>
        <time>2022-05-22T00:48:17.730Z</time>
      </trkpt>
      <trkpt lat="42.325760" lon="2.052909">
        <ele>1256.648717</ele>
        <time>2022-05-22T00:48:22.730Z</time>
      </trkpt>
      <trkpt lat="42.325747" lon="2.052783">
        <ele>1257.325229</ele>
        <time>2022-05-22T00:48:27.728Z</time>
      </trkpt>
      <trkpt lat="42.325705" lon="2.052645">
        <ele>1258.118805</ele>
        <time>2022-05-22T00:48:33.734Z</time>
      </trkpt>
      <trkpt lat="42.325683" lon="2.052525">
        <ele>1258.776245</ele>
        <time>2022-05-22T00:48:37.728Z</time>
      </trkpt>
      <trkpt lat="42.325647" lon="2.052379">
        <ele>1259.594658</ele>
        <time>2022-05-22T00:48:42.732Z</time>
      </trkpt>
      <trkpt lat="42.325599" lon="2.052274">
        <ele>1260.251122</ele>
        <time>2022-05-22T00:48:46.718Z</time>
      </trkpt>
      <trkpt lat="42.325566" lon="2.052151">
        <ele>1260.946925</ele>
        <time>2022-05-22T00:48:50.732Z</time>
      </trkpt>
      <trkpt lat="42.325524" lon="2.052039">
        <ele>1261.614730</ele>
        <time>2022-05-22T00:48:55.739Z</time>
      </trkpt>
      <trkpt lat="42.325475" lon="2.051934">
        <ele>1262.275006</ele>
        <time>2022-05-22T00:48:59.732Z</time>
      </trkpt>
      <trkpt lat="42.325447" lon="2.051799">
        <ele>1263.020601</ele>
        <time>2022-05-22T00:49:04.728Z</time>
      </trkpt>
      <trkpt lat="42.325399" lon="2.051681">
        <ele>1263.736787</ele>
        <time>2022-05-22T00:49:09.726Z</time>
      </trkpt>
      <trkpt lat="42.325354" lon="2.051554">
        <ele>1264.638720</ele>
        <time>2022-05-22T00:49:14.732Z</time>
      </trkpt>
      <trkpt lat="42.325281" lon="2.051444">
        <ele>1266.096649</ele>
        <time>2022-05-22T00:49:19.736Z</time>
      </trkpt>
      <trkpt lat="42.325232" lon="2.051335">
        <ele>1267.354879</ele>
        <time>2022-05-22T00:49:23.725Z</time>
      </trkpt>
      <trkpt lat="42.325207" lon="2.051197">
        <ele>1268.756274</ele>
        <time>2022-05-22T00:49:28.758Z</time>
      </trkpt>
      <trkpt lat="42.325161" lon="2.051082">
        <ele>1270.045915</ele>
        <time>2022-05-22T00:49:33.723Z</time>
      </trkpt>
      <trkpt lat="42.325108" lon="2.050981">
        <ele>1271.267523</ele>
        <time>2022-05-22T00:49:37.734Z</time>
      </trkpt>
      <trkpt lat="42.325060" lon="2.050849">
        <ele>1272.718430</ele>
        <time>2022-05-22T00:49:42.729Z</time>
      </trkpt>
      <trkpt lat="42.325007" lon="2.050741">
        <ele>1273.996967</ele>
        <time>2022-05-22T00:49:47.752Z</time>
      </trkpt>
      <trkpt lat="42.324963" lon="2.050604">
        <ele>1275.470226</ele>
        <time>2022-05-22T00:49:53.717Z</time>
      </trkpt>
      <trkpt lat="42.324917" lon="2.050483">
        <ele>1276.812216</ele>
        <time>2022-05-22T00:49:59.740Z</time>
      </trkpt>
      <trkpt lat="42.324864" lon="2.050370">
        <ele>1278.132126</ele>
        <time>2022-05-22T00:50:06.733Z</time>
      </trkpt>
      <trkpt lat="42.324831" lon="2.050248">
        <ele>1279.413454</ele>
        <time>2022-05-22T00:50:12.730Z</time>
      </trkpt>
      <trkpt lat="42.324780" lon="2.050142">
        <ele>1280.660854</ele>
        <time>2022-05-22T00:50:17.729Z</time>
      </trkpt>
      <trkpt lat="42.324746" lon="2.050025">
        <ele>1281.900804</ele>
        <time>2022-05-22T00:50:22.729Z</time>
      </trkpt>
      <trkpt lat="42.324721" lon="2.049904">
        <ele>1283.139993</ele>
        <time>2022-05-22T00:50:26.741Z</time>
      </trkpt>
      <trkpt lat="42.324670" lon="2.049781">
        <ele>1284.530943</ele>
        <time>2022-05-22T00:50:30.731Z</time>
      </trkpt>
      <trkpt lat="42.324642" lon="2.049662">
        <ele>1285.762687</ele>
        <time>2022-05-22T00:50:36.729Z</time>
      </trkpt>
      <trkpt lat="42.324572" lon="2.049563">
        <ele>1287.113824</ele>
        <time>2022-05-22T00:50:42.713Z</time>
      </trkpt>
      <trkpt lat="42.324514" lon="2.049449">
        <ele>1288.385529</ele>
        <time>2022-05-22T00:50:48.727Z</time>
      </trkpt>
      <trkpt lat="42.324470" lon="2.049327">
        <ele>1289.018894</ele>
        <time>2022-05-22T00:50:54.734Z</time>
      </trkpt>
      <trkpt lat="42.324390" lon="2.049235">
        <ele>1289.681596</ele>
        <time>2022-05-22T00:51:00.730Z</time>
      </trkpt>
      <trkpt lat="42.324319" lon="2.049127">
        <ele>1290.355922</ele>
        <time>2022-05-22T00:51:06.732Z</time>
      </trkpt>
      <trkpt lat="42.324254" lon="2.049011">
        <ele>1291.035062</ele>
        <time>2022-05-22T00:51:11.739Z</time>
      </trkpt>
      <trkpt lat="42.324195" lon="2.048905">
        <ele>1291.654147</ele>
        <time>2022-05-22T00:51:16.733Z</time>
      </trkpt>
      <trkpt lat="42.324128" lon="2.048807">
        <ele>1292.276950</ele>
        <time>2022-05-22T00:51:22.728Z</time>
      </trkpt>
      <trkpt lat="42.324051" lon="2.048733">
        <ele>1292.873074</ele>
        <time>2022-05-22T00:51:27.735Z</time>
      </trkpt>
      <trkpt lat="42.323963" lon="2.048688">
        <ele>1293.466806</ele>
        <time>2022-05-22T00:51:31.728Z</time>
      </trkpt>
      <trkpt lat="42.323864" lon="2.048664">
        <ele>1294.101548</ele>
        <time>2022-05-22T00:51:36.729Z</time>
      </trkpt>
      <trkpt lat="42.323768" lon="2.048633">
        <ele>1294.724429</ele>
        <time>2022-05-22T00:51:41.732Z</time>
      </trkpt>
      <trkpt lat="42.323657" lon="2.048602">
        <ele>1295.439724</ele>
        <time>2022-05-22T00:51:46.735Z</time>
      </trkpt>
      <trkpt lat="42.323545" lon="2.048561">
        <ele>1296.171984</ele>
        <time>2022-05-22T00:51:51.741Z</time>
      </trkpt>
      <trkpt lat="42.323473" lon="2.048483">
        <ele>1296.754162</ele>
        <time>2022-05-22T00:51:55.731Z</time>
      </trkpt>
      <trkpt lat="42.323381" lon="2.048405">
        <ele>1297.439412</ele>
        <time>2022-05-22T00:52:00.739Z</time>
      </trkpt>
      <trkpt lat="42.323331" lon="2.048298">
        <ele>1298.030039</ele>
        <time>2022-05-22T00:52:03.724Z</time>
      </trkpt>
      <trkpt lat="42.323298" lon="2.048180">
        <ele>1298.618705</ele>
        <time>2022-05-22T00:52:05.722Z</time>
      </trkpt>
      <trkpt lat="42.323254" lon="2.048029">
        <ele>1299.376025</ele>
        <time>2022-05-22T00:52:08.730Z</time>
      </trkpt>
      <trkpt lat="42.323186" lon="2.047880">
        <ele>1299.653015</ele>
        <time>2022-05-22T00:52:11.722Z</time>
      </trkpt>
      <trkpt lat="42.323145" lon="2.047758">
        <ele>1299.653015</ele>
        <time>2022-05-22T00:52:14.720Z</time>
      </trkpt>
      <trkpt lat="42.323089" lon="2.047644">
        <ele>1299.653015</ele>
        <time>2022-05-22T00:52:17.725Z</time>
      </trkpt>
      <trkpt lat="42.323015" lon="2.047517">
        <ele>1299.653015</ele>
        <time>2022-05-22T00:52:20.733Z</time>
      </trkpt>
      <trkpt lat="42.322947" lon="2.047392">
        <ele>1299.653015</ele>
        <time>2022-05-22T00:52:23.735Z</time>
      </trkpt>
      <trkpt lat="42.322893" lon="2.047258">
        <ele>1299.653015</ele>
        <time>2022-05-22T00:52:26.727Z</time>
      </trkpt>
      <trkpt lat="42.322849" lon="2.047141">
        <ele>1299.653015</ele>
        <time>2022-05-22T00:52:29.742Z</time>
      </trkpt>
      <trkpt lat="42.322789" lon="2.047050">
        <ele>1299.653015</ele>
        <time>2022-05-22T00:52:32.752Z</time>
      </trkpt>
      <trkpt lat="42.322721" lon="2.046965">
        <ele>1299.653015</ele>
        <time>2022-05-22T00:52:35.723Z</time>
      </trkpt>
      <trkpt lat="42.322675" lon="2.046828">
        <ele>1299.653015</ele>
        <time>2022-05-22T00:52:40.728Z</time>
      </trkpt>
      <trkpt lat="42.322754" lon="2.046744">
        <ele>1299.653015</ele>
        <time>2022-05-22T00:52:48.723Z</time>
      </trkpt>
      <trkpt lat="42.322855" lon="2.046722">
        <ele>1299.653015</ele>
        <time>2022-05-22T00:52:53.726Z</time>
      </trkpt>
      <trkpt lat="42.322950" lon="2.046750">
        <ele>1299.653015</ele>
        <time>2022-05-22T00:52:59.723Z</time>
      </trkpt>
      <trkpt lat="42.322985" lon="2.046864">
        <ele>1299.653015</ele>
        <time>2022-05-22T00:53:10.723Z</time>
      </trkpt>
      <trkpt lat="42.323031" lon="2.046970">
        <ele>1299.653015</ele>
        <time>2022-05-22T00:53:20.720Z</time>
      </trkpt>
      <trkpt lat="42.323113" lon="2.047059">
        <ele>1299.653015</ele>
        <time>2022-05-22T00:53:27.734Z</time>
      </trkpt>
      <trkpt lat="42.323066" lon="2.046948">
        <ele>1299.653015</ele>
        <time>2022-05-22T00:53:34.722Z</time>
      </trkpt>
      <trkpt lat="42.322982" lon="2.047005">
        <ele>1299.653015</ele>
        <time>2022-05-22T00:53:40.727Z</time>
      </trkpt>
      <trkpt lat="42.323014" lon="2.046889">
        <ele>1299.653015</ele>
        <time>2022-05-22T00:54:22.744Z</time>
      </trkpt>
      <trkpt lat="42.322986" lon="2.046767">
        <ele>1299.653015</ele>
        <time>2022-05-22T00:54:25.726Z</time>
      </trkpt>
      <trkpt lat="42.322911" lon="2.046689">
        <ele>1299.653015</ele>
        <time>2022-05-22T00:54:28.722Z</time>
      </trkpt>
      <trkpt lat="42.322788" lon="2.046708">
        <ele>1299.653015</ele>
        <time>2022-05-22T00:54:31.718Z</time>
      </trkpt>
      <trkpt lat="42.322704" lon="2.046765">
        <ele>1299.653015</ele>
        <time>2022-05-22T00:54:34.718Z</time>
      </trkpt>
      <trkpt lat="42.322757" lon="2.046867">
        <ele>1299.653015</ele>
        <time>2022-05-22T00:54:51.741Z</time>
      </trkpt>
      <trkpt lat="42.322770" lon="2.046812">
        <ele>1299.653015</ele>
        <time>2022-05-22T00:56:19.458Z</time>
      </trkpt>
      <trkpt lat="42.322896" lon="2.046768">
        <ele>1310.160588</ele>
        <time>2022-05-22T02:23:50.930Z</time>
      </trkpt>
      <trkpt lat="42.322740" lon="2.046835">
        <ele>1310.160588</ele>
        <time>2022-05-22T02:24:17.943Z</time>
      </trkpt>
      <trkpt lat="42.322648" lon="2.046625">
        <ele>1310.160588</ele>
        <time>2022-05-22T02:24:43.956Z</time>
      </trkpt>
      <trkpt lat="42.322624" lon="2.046491">
        <ele>1310.160588</ele>
        <time>2022-05-22T02:24:47.936Z</time>
      </trkpt>
      <trkpt lat="42.322620" lon="2.046366">
        <ele>1310.160588</ele>
        <time>2022-05-22T02:24:51.939Z</time>
      </trkpt>
      <trkpt lat="42.322601" lon="2.046242">
        <ele>1310.160588</ele>
        <time>2022-05-22T02:24:55.940Z</time>
      </trkpt>
      <trkpt lat="42.322580" lon="2.046116">
        <ele>1310.160588</ele>
        <time>2022-05-22T02:24:59.943Z</time>
      </trkpt>
      <trkpt lat="42.322549" lon="2.045981">
        <ele>1310.160588</ele>
        <time>2022-05-22T02:25:04.949Z</time>
      </trkpt>
      <trkpt lat="42.322527" lon="2.045850">
        <ele>1310.226622</ele>
        <time>2022-05-22T02:25:08.934Z</time>
      </trkpt>
      <trkpt lat="42.322517" lon="2.045712">
        <ele>1310.436558</ele>
        <time>2022-05-22T02:25:12.932Z</time>
      </trkpt>
      <trkpt lat="42.322509" lon="2.045577">
        <ele>1310.641606</ele>
        <time>2022-05-22T02:25:16.938Z</time>
      </trkpt>
      <trkpt lat="42.322498" lon="2.045432">
        <ele>1310.862292</ele>
        <time>2022-05-22T02:25:21.942Z</time>
      </trkpt>
      <trkpt lat="42.322511" lon="2.045310">
        <ele>1311.048911</ele>
        <time>2022-05-22T02:25:25.944Z</time>
      </trkpt>
      <trkpt lat="42.322509" lon="2.045169">
        <ele>1311.262427</ele>
        <time>2022-05-22T02:25:30.940Z</time>
      </trkpt>
      <trkpt lat="42.322517" lon="2.045042">
        <ele>1311.455404</ele>
        <time>2022-05-22T02:25:34.943Z</time>
      </trkpt>
      <trkpt lat="42.322529" lon="2.044901">
        <ele>1311.670291</ele>
        <time>2022-05-22T02:25:38.936Z</time>
      </trkpt>
      <trkpt lat="42.322544" lon="2.044746">
        <ele>1311.906965</ele>
        <time>2022-05-22T02:25:42.942Z</time>
      </trkpt>
      <trkpt lat="42.322546" lon="2.044597">
        <ele>1312.132591</ele>
        <time>2022-05-22T02:25:46.954Z</time>
      </trkpt>
      <trkpt lat="42.322546" lon="2.044464">
        <ele>1312.333956</ele>
        <time>2022-05-22T02:25:50.943Z</time>
      </trkpt>
      <trkpt lat="42.322539" lon="2.044329">
        <ele>1312.538851</ele>
        <time>2022-05-22T02:25:54.942Z</time>
      </trkpt>
      <trkpt lat="42.322554" lon="2.044180">
        <ele>1312.766521</ele>
        <time>2022-05-22T02:25:58.936Z</time>
      </trkpt>
      <trkpt lat="42.322565" lon="2.044042">
        <ele>1312.976667</ele>
        <time>2022-05-22T02:26:02.947Z</time>
      </trkpt>
      <trkpt lat="42.322559" lon="2.043898">
        <ele>1313.195032</ele>
        <time>2022-05-22T02:26:07.942Z</time>
      </trkpt>
      <trkpt lat="42.322554" lon="2.043760">
        <ele>1313.404217</ele>
        <time>2022-05-22T02:26:12.932Z</time>
      </trkpt>
      <trkpt lat="42.322552" lon="2.043637">
        <ele>1313.590487</ele>
        <time>2022-05-22T02:26:16.934Z</time>
      </trkpt>
      <trkpt lat="42.322549" lon="2.043492">
        <ele>1313.810105</ele>
        <time>2022-05-22T02:26:21.944Z</time>
      </trkpt>
      <trkpt lat="42.322542" lon="2.043355">
        <ele>1313.422915</ele>
        <time>2022-05-22T02:26:26.934Z</time>
      </trkpt>
      <trkpt lat="42.322534" lon="2.043231">
        <ele>1312.967952</ele>
        <time>2022-05-22T02:26:30.938Z</time>
      </trkpt>
      <trkpt lat="42.322530" lon="2.043088">
        <ele>1312.444889</ele>
        <time>2022-05-22T02:26:35.935Z</time>
      </trkpt>
      <trkpt lat="42.322530" lon="2.042956">
        <ele>1311.962406</ele>
        <time>2022-05-22T02:26:40.938Z</time>
      </trkpt>
      <trkpt lat="42.322525" lon="2.042826">
        <ele>1311.486592</ele>
        <time>2022-05-22T02:26:44.938Z</time>
      </trkpt>
      <trkpt lat="42.322500" lon="2.042691">
        <ele>1310.977902</ele>
        <time>2022-05-22T02:26:48.932Z</time>
      </trkpt>
      <trkpt lat="42.322468" lon="2.042572">
        <ele>1310.515062</ele>
        <time>2022-05-22T02:26:52.942Z</time>
      </trkpt>
      <trkpt lat="42.322443" lon="2.042434">
        <ele>1309.995727</ele>
        <time>2022-05-22T02:26:56.944Z</time>
      </trkpt>
      <trkpt lat="42.322416" lon="2.042307">
        <ele>1309.512711</ele>
        <time>2022-05-22T02:27:00.942Z</time>
      </trkpt>
      <trkpt lat="42.322377" lon="2.042179">
        <ele>1309.006679</ele>
        <time>2022-05-22T02:27:04.937Z</time>
      </trkpt>
      <trkpt lat="42.322320" lon="2.042051">
        <ele>1308.460511</ele>
        <time>2022-05-22T02:27:08.946Z</time>
      </trkpt>
      <trkpt lat="42.322289" lon="2.041923">
        <ele>1307.968187</ele>
        <time>2022-05-22T02:27:12.933Z</time>
      </trkpt>
      <trkpt lat="42.322265" lon="2.041776">
        <ele>1307.417931</ele>
        <time>2022-05-22T02:27:17.923Z</time>
      </trkpt>
      <trkpt lat="42.322263" lon="2.041648">
        <ele>1306.949963</ele>
        <time>2022-05-22T02:27:21.937Z</time>
      </trkpt>
      <trkpt lat="42.322262" lon="2.041527">
        <ele>1306.507658</ele>
        <time>2022-05-22T02:27:25.938Z</time>
      </trkpt>
      <trkpt lat="42.322261" lon="2.041376">
        <ele>1305.955703</ele>
        <time>2022-05-22T02:27:29.933Z</time>
      </trkpt>
      <trkpt lat="42.322267" lon="2.041232">
        <ele>1305.428522</ele>
        <time>2022-05-22T02:27:32.937Z</time>
      </trkpt>
      <trkpt lat="42.322261" lon="2.041100">
        <ele>1304.948262</ele>
        <time>2022-05-22T02:27:35.934Z</time>
      </trkpt>
      <trkpt lat="42.322253" lon="2.040948">
        <ele>1304.650785</ele>
        <time>2022-05-22T02:27:38.947Z</time>
      </trkpt>
      <trkpt lat="42.322250" lon="2.040824">
        <ele>1304.408590</ele>
        <time>2022-05-22T02:27:41.950Z</time>
      </trkpt>
      <trkpt lat="42.322261" lon="2.040664">
        <ele>1304.094899</ele>
        <time>2022-05-22T02:27:45.937Z</time>
      </trkpt>
      <trkpt lat="42.322289" lon="2.040543">
        <ele>1303.847391</ele>
        <time>2022-05-22T02:27:48.929Z</time>
      </trkpt>
      <trkpt lat="42.322300" lon="2.040417">
        <ele>1303.599713</ele>
        <time>2022-05-22T02:27:51.945Z</time>
      </trkpt>
      <trkpt lat="42.322305" lon="2.040264">
        <ele>1303.300743</ele>
        <time>2022-05-22T02:27:55.943Z</time>
      </trkpt>
      <trkpt lat="42.322309" lon="2.040139">
        <ele>1303.056497</ele>
        <time>2022-05-22T02:27:58.942Z</time>
      </trkpt>
      <trkpt lat="42.322311" lon="2.039982">
        <ele>1302.749965</ele>
        <time>2022-05-22T02:28:02.936Z</time>
      </trkpt>
      <trkpt lat="42.322323" lon="2.039838">
        <ele>1302.467077</ele>
        <time>2022-05-22T02:28:06.934Z</time>
      </trkpt>
      <trkpt lat="42.322342" lon="2.039677">
        <ele>1302.148804</ele>
        <time>2022-05-22T02:28:10.937Z</time>
      </trkpt>
      <trkpt lat="42.322359" lon="2.039544">
        <ele>1301.885318</ele>
        <time>2022-05-22T02:28:13.943Z</time>
      </trkpt>
      <trkpt lat="42.322357" lon="2.039389">
        <ele>1301.582690</ele>
        <time>2022-05-22T02:28:17.940Z</time>
      </trkpt>
      <trkpt lat="42.322365" lon="2.039217">
        <ele>1301.246258</ele>
        <time>2022-05-22T02:28:21.932Z</time>
      </trkpt>
      <trkpt lat="42.322360" lon="2.039076">
        <ele>1300.970690</ele>
        <time>2022-05-22T02:28:24.951Z</time>
      </trkpt>
      <trkpt lat="42.322372" lon="2.038951">
        <ele>1300.724624</ele>
        <time>2022-05-22T02:28:27.936Z</time>
      </trkpt>
      <trkpt lat="42.322371" lon="2.038829">
        <ele>1300.486449</ele>
        <time>2022-05-22T02:28:30.934Z</time>
      </trkpt>
      <trkpt lat="42.322372" lon="2.038702">
        <ele>1300.238513</ele>
        <time>2022-05-22T02:28:33.933Z</time>
      </trkpt>
      <trkpt lat="42.322354" lon="2.038563">
        <ele>1301.297930</ele>
        <time>2022-05-22T02:28:36.936Z</time>
      </trkpt>
      <trkpt lat="42.322343" lon="2.038441">
        <ele>1302.393058</ele>
        <time>2022-05-22T02:28:39.937Z</time>
      </trkpt>
      <trkpt lat="42.322335" lon="2.038289">
        <ele>1303.750873</ele>
        <time>2022-05-22T02:28:43.946Z</time>
      </trkpt>
      <trkpt lat="42.322326" lon="2.038157">
        <ele>1304.932043</ele>
        <time>2022-05-22T02:28:46.945Z</time>
      </trkpt>
      <trkpt lat="42.322316" lon="2.037993">
        <ele>1306.398317</ele>
        <time>2022-05-22T02:28:50.937Z</time>
      </trkpt>
      <trkpt lat="42.322308" lon="2.037863">
        <ele>1307.560681</ele>
        <time>2022-05-22T02:28:53.922Z</time>
      </trkpt>
      <trkpt lat="42.322307" lon="2.037740">
        <ele>1308.656733</ele>
        <time>2022-05-22T02:28:56.933Z</time>
      </trkpt>
      <trkpt lat="42.322297" lon="2.037616">
        <ele>1309.768182</ele>
        <time>2022-05-22T02:28:59.938Z</time>
      </trkpt>
      <trkpt lat="42.322299" lon="2.037469">
        <ele>1311.078241</ele>
        <time>2022-05-22T02:29:03.930Z</time>
      </trkpt>
      <trkpt lat="42.322286" lon="2.037326">
        <ele>1312.362031</ele>
        <time>2022-05-22T02:29:07.943Z</time>
      </trkpt>
      <trkpt lat="42.322271" lon="2.037193">
        <ele>1313.560830</ele>
        <time>2022-05-22T02:29:11.947Z</time>
      </trkpt>
      <trkpt lat="42.322258" lon="2.037061">
        <ele>1314.747399</ele>
        <time>2022-05-22T02:29:16.937Z</time>
      </trkpt>
      <trkpt lat="42.322279" lon="2.036927">
        <ele>1315.967927</ele>
        <time>2022-05-22T02:29:21.938Z</time>
      </trkpt>
      <trkpt lat="42.322318" lon="2.036814">
        <ele>1317.079104</ele>
        <time>2022-05-22T02:29:25.935Z</time>
      </trkpt>
      <trkpt lat="42.322385" lon="2.036724">
        <ele>1318.217118</ele>
        <time>2022-05-22T02:29:29.933Z</time>
      </trkpt>
      <trkpt lat="42.322477" lon="2.036653">
        <ele>1319.493645</ele>
        <time>2022-05-22T02:29:33.940Z</time>
      </trkpt>
      <trkpt lat="42.322577" lon="2.036608">
        <ele>1320.763741</ele>
        <time>2022-05-22T02:29:37.941Z</time>
      </trkpt>
      <trkpt lat="42.322667" lon="2.036564">
        <ele>1321.917691</ele>
        <time>2022-05-22T02:29:40.943Z</time>
      </trkpt>
      <trkpt lat="42.322759" lon="2.036513">
        <ele>1323.136109</ele>
        <time>2022-05-22T02:29:44.932Z</time>
      </trkpt>
      <trkpt lat="42.322844" lon="2.036461">
        <ele>1324.279323</ele>
        <time>2022-05-22T02:29:48.942Z</time>
      </trkpt>
      <trkpt lat="42.322935" lon="2.036438">
        <ele>1325.413769</ele>
        <time>2022-05-22T02:29:52.939Z</time>
      </trkpt>
      <trkpt lat="42.323029" lon="2.036380">
        <ele>1326.679881</ele>
        <time>2022-05-22T02:29:57.951Z</time>
      </trkpt>
      <trkpt lat="42.323127" lon="2.036334">
        <ele>1327.951068</ele>
        <time>2022-05-22T02:30:02.949Z</time>
      </trkpt>
      <trkpt lat="42.323222" lon="2.036281">
        <ele>1329.210376</ele>
        <time>2022-05-22T02:30:07.940Z</time>
      </trkpt>
      <trkpt lat="42.323313" lon="2.036237">
        <ele>1330.394635</ele>
        <time>2022-05-22T02:30:12.938Z</time>
      </trkpt>
      <trkpt lat="42.323399" lon="2.036183">
        <ele>1331.556537</ele>
        <time>2022-05-22T02:30:17.946Z</time>
      </trkpt>
      <trkpt lat="42.323497" lon="2.036158">
        <ele>1332.778634</ele>
        <time>2022-05-22T02:30:22.942Z</time>
      </trkpt>
      <trkpt lat="42.323578" lon="2.036096">
        <ele>1333.919161</ele>
        <time>2022-05-22T02:30:27.942Z</time>
      </trkpt>
      <trkpt lat="42.323656" lon="2.036034">
        <ele>1335.027841</ele>
        <time>2022-05-22T02:30:31.934Z</time>
      </trkpt>
      <trkpt lat="42.323751" lon="2.035978">
        <ele>1336.297761</ele>
        <time>2022-05-22T02:30:36.944Z</time>
      </trkpt>
      <trkpt lat="42.323835" lon="2.035897">
        <ele>1337.561947</ele>
        <time>2022-05-22T02:30:41.948Z</time>
      </trkpt>
      <trkpt lat="42.323913" lon="2.035821">
        <ele>1338.739980</ele>
        <time>2022-05-22T02:30:46.930Z</time>
      </trkpt>
      <trkpt lat="42.323997" lon="2.035728">
        <ele>1340.070229</ele>
        <time>2022-05-22T02:30:51.930Z</time>
      </trkpt>
      <trkpt lat="42.324076" lon="2.035651">
        <ele>1341.263500</ele>
        <time>2022-05-22T02:30:55.927Z</time>
      </trkpt>
      <trkpt lat="42.324164" lon="2.035559">
        <ele>1342.626471</ele>
        <time>2022-05-22T02:31:00.937Z</time>
      </trkpt>
      <trkpt lat="42.324238" lon="2.035474">
        <ele>1343.816176</ele>
        <time>2022-05-22T02:31:05.932Z</time>
      </trkpt>
      <trkpt lat="42.324325" lon="2.035406">
        <ele>1344.610302</ele>
        <time>2022-05-22T02:31:11.944Z</time>
      </trkpt>
      <trkpt lat="42.324404" lon="2.035326">
        <ele>1345.350594</ele>
        <time>2022-05-22T02:31:16.936Z</time>
      </trkpt>
      <trkpt lat="42.324458" lon="2.035219">
        <ele>1346.069089</ele>
        <time>2022-05-22T02:31:20.940Z</time>
      </trkpt>
      <trkpt lat="42.324473" lon="2.035071">
        <ele>1346.897578</ele>
        <time>2022-05-22T02:31:24.934Z</time>
      </trkpt>
      <trkpt lat="42.324457" lon="2.034931">
        <ele>1347.683243</ele>
        <time>2022-05-22T02:31:29.940Z</time>
      </trkpt>
      <trkpt lat="42.324383" lon="2.034831">
        <ele>1348.467919</ele>
        <time>2022-05-22T02:31:33.952Z</time>
      </trkpt>
      <trkpt lat="42.324282" lon="2.034748">
        <ele>1349.354429</ele>
        <time>2022-05-22T02:31:37.933Z</time>
      </trkpt>
      <trkpt lat="42.324182" lon="2.034747">
        <ele>1350.104578</ele>
        <time>2022-05-22T02:31:40.932Z</time>
      </trkpt>
      <trkpt lat="42.324087" lon="2.034771">
        <ele>1350.829525</ele>
        <time>2022-05-22T02:31:43.938Z</time>
      </trkpt>
      <trkpt lat="42.323996" lon="2.034857">
        <ele>1351.662267</ele>
        <time>2022-05-22T02:31:47.941Z</time>
      </trkpt>
      <trkpt lat="42.323924" lon="2.034969">
        <ele>1352.485396</ele>
        <time>2022-05-22T02:31:51.938Z</time>
      </trkpt>
      <trkpt lat="42.323852" lon="2.035069">
        <ele>1353.259534</ele>
        <time>2022-05-22T02:31:55.937Z</time>
      </trkpt>
      <trkpt lat="42.323777" lon="2.035159">
        <ele>1354.011640</ele>
        <time>2022-05-22T02:31:59.941Z</time>
      </trkpt>
      <trkpt lat="42.323705" lon="2.035239">
        <ele>1354.710610</ele>
        <time>2022-05-22T02:32:03.945Z</time>
      </trkpt>
      <trkpt lat="42.323637" lon="2.035328">
        <ele>1355.420422</ele>
        <time>2022-05-22T02:32:07.940Z</time>
      </trkpt>
      <trkpt lat="42.323554" lon="2.035411">
        <ele>1356.194722</ele>
        <time>2022-05-22T02:32:11.938Z</time>
      </trkpt>
      <trkpt lat="42.323471" lon="2.035485">
        <ele>1356.940429</ele>
        <time>2022-05-22T02:32:15.944Z</time>
      </trkpt>
      <trkpt lat="42.323371" lon="2.035524">
        <ele>1357.548112</ele>
        <time>2022-05-22T02:32:19.949Z</time>
      </trkpt>
      <trkpt lat="42.323256" lon="2.035503">
        <ele>1357.930720</ele>
        <time>2022-05-22T02:32:23.939Z</time>
      </trkpt>
      <trkpt lat="42.323156" lon="2.035470">
        <ele>1358.270104</ele>
        <time>2022-05-22T02:32:27.938Z</time>
      </trkpt>
      <trkpt lat="42.323058" lon="2.035443">
        <ele>1358.599856</ele>
        <time>2022-05-22T02:32:31.936Z</time>
      </trkpt>
      <trkpt lat="42.322958" lon="2.035414">
        <ele>1358.937062</ele>
        <time>2022-05-22T02:32:35.941Z</time>
      </trkpt>
      <trkpt lat="42.322860" lon="2.035365">
        <ele>1359.281551</ele>
        <time>2022-05-22T02:32:39.945Z</time>
      </trkpt>
      <trkpt lat="42.322765" lon="2.035282">
        <ele>1359.654445</ele>
        <time>2022-05-22T02:32:43.955Z</time>
      </trkpt>
      <trkpt lat="42.322693" lon="2.035181">
        <ele>1359.996463</ele>
        <time>2022-05-22T02:32:47.949Z</time>
      </trkpt>
      <trkpt lat="42.322662" lon="2.035045">
        <ele>1360.343398</ele>
        <time>2022-05-22T02:32:51.934Z</time>
      </trkpt>
      <trkpt lat="42.322685" lon="2.034915">
        <ele>1360.669254</ele>
        <time>2022-05-22T02:32:55.942Z</time>
      </trkpt>
      <trkpt lat="42.322729" lon="2.034791">
        <ele>1361.004547</ele>
        <time>2022-05-22T02:32:59.940Z</time>
      </trkpt>
      <trkpt lat="42.322778" lon="2.034670">
        <ele>1361.340863</ele>
        <time>2022-05-22T02:33:03.941Z</time>
      </trkpt>
      <trkpt lat="42.322814" lon="2.034548">
        <ele>1361.661082</ele>
        <time>2022-05-22T02:33:07.949Z</time>
      </trkpt>
      <trkpt lat="42.322847" lon="2.034433">
        <ele>1361.961798</ele>
        <time>2022-05-22T02:33:11.934Z</time>
      </trkpt>
      <trkpt lat="42.322873" lon="2.034310">
        <ele>1362.273657</ele>
        <time>2022-05-22T02:33:15.938Z</time>
      </trkpt>
      <trkpt lat="42.322906" lon="2.034177">
        <ele>1362.615649</ele>
        <time>2022-05-22T02:33:19.938Z</time>
      </trkpt>
      <trkpt lat="42.322939" lon="2.034052">
        <ele>1362.939211</ele>
        <time>2022-05-22T02:33:23.932Z</time>
      </trkpt>
      <trkpt lat="42.322950" lon="2.033929">
        <ele>1363.241241</ele>
        <time>2022-05-22T02:33:27.935Z</time>
      </trkpt>
      <trkpt lat="42.322982" lon="2.033788">
        <ele>1363.948555</ele>
        <time>2022-05-22T02:33:32.930Z</time>
      </trkpt>
      <trkpt lat="42.323052" lon="2.033668">
        <ele>1364.823361</ele>
        <time>2022-05-22T02:33:37.933Z</time>
      </trkpt>
      <trkpt lat="42.323093" lon="2.033551">
        <ele>1365.564384</ele>
        <time>2022-05-22T02:33:41.936Z</time>
      </trkpt>
      <trkpt lat="42.323101" lon="2.033426">
        <ele>1366.282463</ele>
        <time>2022-05-22T02:33:45.932Z</time>
      </trkpt>
      <trkpt lat="42.323112" lon="2.033290">
        <ele>1367.065465</ele>
        <time>2022-05-22T02:33:49.929Z</time>
      </trkpt>
      <trkpt lat="42.323112" lon="2.033149">
        <ele>1367.872441</ele>
        <time>2022-05-22T02:33:53.938Z</time>
      </trkpt>
      <trkpt lat="42.323117" lon="2.033013">
        <ele>1368.651762</ele>
        <time>2022-05-22T02:33:57.932Z</time>
      </trkpt>
      <trkpt lat="42.323143" lon="2.032889">
        <ele>1369.389428</ele>
        <time>2022-05-22T02:34:01.934Z</time>
      </trkpt>
      <trkpt lat="42.323171" lon="2.032768">
        <ele>1370.115064</ele>
        <time>2022-05-22T02:34:05.933Z</time>
      </trkpt>
      <trkpt lat="42.323210" lon="2.032631">
        <ele>1370.955256</ele>
        <time>2022-05-22T02:34:10.938Z</time>
      </trkpt>
      <trkpt lat="42.323233" lon="2.032503">
        <ele>1371.709152</ele>
        <time>2022-05-22T02:34:15.935Z</time>
      </trkpt>
      <trkpt lat="42.323262" lon="2.032375">
        <ele>1372.475346</ele>
        <time>2022-05-22T02:34:20.933Z</time>
      </trkpt>
      <trkpt lat="42.323292" lon="2.032245">
        <ele>1373.254763</ele>
        <time>2022-05-22T02:34:25.927Z</time>
      </trkpt>
      <trkpt lat="42.323318" lon="2.032127">
        <ele>1373.959453</ele>
        <time>2022-05-22T02:34:29.933Z</time>
      </trkpt>
      <trkpt lat="42.323336" lon="2.032001">
        <ele>1374.693915</ele>
        <time>2022-05-22T02:34:33.933Z</time>
      </trkpt>
      <trkpt lat="42.323366" lon="2.031860">
        <ele>1375.533637</ele>
        <time>2022-05-22T02:34:38.933Z</time>
      </trkpt>
      <trkpt lat="42.323381" lon="2.031718">
        <ele>1376.354585</ele>
        <time>2022-05-22T02:34:43.933Z</time>
      </trkpt>
      <trkpt lat="42.323412" lon="2.031572">
        <ele>1377.223946</ele>
        <time>2022-05-22T02:34:48.938Z</time>
      </trkpt>
      <trkpt lat="42.323436" lon="2.031453">
        <ele>1377.827634</ele>
        <time>2022-05-22T02:34:52.937Z</time>
      </trkpt>
      <trkpt lat="42.323459" lon="2.031315">
        <ele>1378.512609</ele>
        <time>2022-05-22T02:34:57.933Z</time>
      </trkpt>
      <trkpt lat="42.323477" lon="2.031194">
        <ele>1379.110243</ele>
        <time>2022-05-22T02:35:01.930Z</time>
      </trkpt>
      <trkpt lat="42.323487" lon="2.031065">
        <ele>1379.738296</ele>
        <time>2022-05-22T02:35:06.936Z</time>
      </trkpt>
      <trkpt lat="42.323488" lon="2.030931">
        <ele>1380.387169</ele>
        <time>2022-05-22T02:35:11.935Z</time>
      </trkpt>
      <trkpt lat="42.323493" lon="2.030805">
        <ele>1380.998150</ele>
        <time>2022-05-22T02:35:16.940Z</time>
      </trkpt>
      <trkpt lat="42.323497" lon="2.030653">
        <ele>1381.734613</ele>
        <time>2022-05-22T02:35:21.936Z</time>
      </trkpt>
      <trkpt lat="42.323503" lon="2.030532">
        <ele>1382.321822</ele>
        <time>2022-05-22T02:35:25.938Z</time>
      </trkpt>
      <trkpt lat="42.323508" lon="2.030391">
        <ele>1383.005340</ele>
        <time>2022-05-22T02:35:30.936Z</time>
      </trkpt>
      <trkpt lat="42.323507" lon="2.030246">
        <ele>1383.707473</ele>
        <time>2022-05-22T02:35:35.928Z</time>
      </trkpt>
      <trkpt lat="42.323492" lon="2.030098">
        <ele>1384.430803</ele>
        <time>2022-05-22T02:35:40.933Z</time>
      </trkpt>
      <trkpt lat="42.323491" lon="2.029949">
        <ele>1385.152304</ele>
        <time>2022-05-22T02:35:45.934Z</time>
      </trkpt>
      <trkpt lat="42.323498" lon="2.029823">
        <ele>1385.764127</ele>
        <time>2022-05-22T02:35:49.937Z</time>
      </trkpt>
      <trkpt lat="42.323502" lon="2.029695">
        <ele>1386.384467</ele>
        <time>2022-05-22T02:35:53.957Z</time>
      </trkpt>
      <trkpt lat="42.323516" lon="2.029557">
        <ele>1387.058936</ele>
        <time>2022-05-22T02:35:58.937Z</time>
      </trkpt>
      <trkpt lat="42.323525" lon="2.029434">
        <ele>1387.657421</ele>
        <time>2022-05-22T02:36:02.932Z</time>
      </trkpt>
      <trkpt lat="42.323529" lon="2.029281">
        <ele>1388.398723</ele>
        <time>2022-05-22T02:36:07.933Z</time>
      </trkpt>
      <trkpt lat="42.323526" lon="2.029155">
        <ele>1389.009142</ele>
        <time>2022-05-22T02:36:11.942Z</time>
      </trkpt>
      <trkpt lat="42.323530" lon="2.029020">
        <ele>1389.670540</ele>
        <time>2022-05-22T02:36:15.938Z</time>
      </trkpt>
      <trkpt lat="42.323540" lon="2.028885">
        <ele>1390.335136</ele>
        <time>2022-05-22T02:36:19.938Z</time>
      </trkpt>
      <trkpt lat="42.323552" lon="2.028763">
        <ele>1390.938007</ele>
        <time>2022-05-22T02:36:23.932Z</time>
      </trkpt>
      <trkpt lat="42.323550" lon="2.028617">
        <ele>1391.653297</ele>
        <time>2022-05-22T02:36:28.937Z</time>
      </trkpt>
      <trkpt lat="42.323541" lon="2.028494">
        <ele>1392.258745</ele>
        <time>2022-05-22T02:36:32.928Z</time>
      </trkpt>
      <trkpt lat="42.323539" lon="2.028361">
        <ele>1392.910368</ele>
        <time>2022-05-22T02:36:36.933Z</time>
      </trkpt>
      <trkpt lat="42.323547" lon="2.028226">
        <ele>1393.573774</ele>
        <time>2022-05-22T02:36:40.932Z</time>
      </trkpt>
      <trkpt lat="42.323565" lon="2.028101">
        <ele>1394.197580</ele>
        <time>2022-05-22T02:36:44.936Z</time>
      </trkpt>
      <trkpt lat="42.323597" lon="2.027978">
        <ele>1394.836297</ele>
        <time>2022-05-22T02:36:48.935Z</time>
      </trkpt>
      <trkpt lat="42.323586" lon="2.027850">
        <ele>1395.467514</ele>
        <time>2022-05-22T02:36:52.934Z</time>
      </trkpt>
      <trkpt lat="42.323534" lon="2.027722">
        <ele>1396.182926</ele>
        <time>2022-05-22T02:36:56.939Z</time>
      </trkpt>
      <trkpt lat="42.323480" lon="2.027604">
        <ele>1396.862700</ele>
        <time>2022-05-22T02:37:00.936Z</time>
      </trkpt>
      <trkpt lat="42.323450" lon="2.027489">
        <ele>1397.460054</ele>
        <time>2022-05-22T02:37:04.938Z</time>
      </trkpt>
      <trkpt lat="42.323438" lon="2.027366">
        <ele>1398.067782</ele>
        <time>2022-05-22T02:37:08.940Z</time>
      </trkpt>
      <trkpt lat="42.323422" lon="2.027226">
        <ele>1398.761705</ele>
        <time>2022-05-22T02:37:13.937Z</time>
      </trkpt>
      <trkpt lat="42.323398" lon="2.027099">
        <ele>1399.403804</ele>
        <time>2022-05-22T02:37:17.940Z</time>
      </trkpt>
      <trkpt lat="42.323384" lon="2.026963">
        <ele>1400.076415</ele>
        <time>2022-05-22T02:37:22.955Z</time>
      </trkpt>
      <trkpt lat="42.323354" lon="2.026832">
        <ele>1400.748185</ele>
        <time>2022-05-22T02:37:27.940Z</time>
      </trkpt>
      <trkpt lat="42.323335" lon="2.026709">
        <ele>1401.240364</ele>
        <time>2022-05-22T02:37:31.932Z</time>
      </trkpt>
      <trkpt lat="42.323314" lon="2.026582">
        <ele>1401.682307</ele>
        <time>2022-05-22T02:37:35.943Z</time>
      </trkpt>
      <trkpt lat="42.323283" lon="2.026439">
        <ele>1402.188377</ele>
        <time>2022-05-22T02:37:39.934Z</time>
      </trkpt>
      <trkpt lat="42.323246" lon="2.026306">
        <ele>1402.670957</ele>
        <time>2022-05-22T02:37:43.943Z</time>
      </trkpt>
      <trkpt lat="42.323210" lon="2.026190">
        <ele>1403.098187</ele>
        <time>2022-05-22T02:37:47.937Z</time>
      </trkpt>
      <trkpt lat="42.323177" lon="2.026063">
        <ele>1403.555337</ele>
        <time>2022-05-22T02:37:52.946Z</time>
      </trkpt>
      <trkpt lat="42.323147" lon="2.025948">
        <ele>1403.969472</ele>
        <time>2022-05-22T02:37:56.942Z</time>
      </trkpt>
      <trkpt lat="42.323142" lon="2.025826">
        <ele>1404.384419</ele>
        <time>2022-05-22T02:38:00.947Z</time>
      </trkpt>
      <trkpt lat="42.323136" lon="2.025676">
        <ele>1404.894562</ele>
        <time>2022-05-22T02:38:05.939Z</time>
      </trkpt>
      <trkpt lat="42.323121" lon="2.025541">
        <ele>1405.358169</ele>
        <time>2022-05-22T02:38:10.935Z</time>
      </trkpt>
      <trkpt lat="42.323103" lon="2.025408">
        <ele>1405.817340</ele>
        <time>2022-05-22T02:38:15.943Z</time>
      </trkpt>
      <trkpt lat="42.323078" lon="2.025283">
        <ele>1406.257095</ele>
        <time>2022-05-22T02:38:20.942Z</time>
      </trkpt>
      <trkpt lat="42.323051" lon="2.025142">
        <ele>1406.751729</ele>
        <time>2022-05-22T02:38:25.941Z</time>
      </trkpt>
      <trkpt lat="42.323020" lon="2.025022">
        <ele>1407.183408</ele>
        <time>2022-05-22T02:38:29.940Z</time>
      </trkpt>
      <trkpt lat="42.322977" lon="2.024905">
        <ele>1407.627120</ele>
        <time>2022-05-22T02:38:33.929Z</time>
      </trkpt>
      <trkpt lat="42.322953" lon="2.024778">
        <ele>1408.072277</ele>
        <time>2022-05-22T02:38:37.941Z</time>
      </trkpt>
      <trkpt lat="42.322892" lon="2.024676">
        <ele>1408.517799</ele>
        <time>2022-05-22T02:38:41.943Z</time>
      </trkpt>
      <trkpt lat="42.322851" lon="2.024559">
        <ele>1408.957500</ele>
        <time>2022-05-22T02:38:45.956Z</time>
      </trkpt>
      <trkpt lat="42.322795" lon="2.024455">
        <ele>1409.216428</ele>
        <time>2022-05-22T02:38:49.947Z</time>
      </trkpt>
      <trkpt lat="42.322731" lon="2.024349">
        <ele>1409.198539</ele>
        <time>2022-05-22T02:38:53.938Z</time>
      </trkpt>
      <trkpt lat="42.322658" lon="2.024250">
        <ele>1409.180261</ele>
        <time>2022-05-22T02:38:57.946Z</time>
      </trkpt>
      <trkpt lat="42.322605" lon="2.024147">
        <ele>1409.163857</ele>
        <time>2022-05-22T02:39:01.929Z</time>
      </trkpt>
      <trkpt lat="42.322538" lon="2.024036">
        <ele>1409.145126</ele>
        <time>2022-05-22T02:39:05.930Z</time>
      </trkpt>
      <trkpt lat="42.322476" lon="2.023929">
        <ele>1409.127355</ele>
        <time>2022-05-22T02:39:09.940Z</time>
      </trkpt>
      <trkpt lat="42.322405" lon="2.023842">
        <ele>1409.110416</ele>
        <time>2022-05-22T02:39:13.941Z</time>
      </trkpt>
      <trkpt lat="42.322333" lon="2.023751">
        <ele>1409.092994</ele>
        <time>2022-05-22T02:39:17.941Z</time>
      </trkpt>
      <trkpt lat="42.322253" lon="2.023680">
        <ele>1409.076076</ele>
        <time>2022-05-22T02:39:21.925Z</time>
      </trkpt>
      <trkpt lat="42.322183" lon="2.023570">
        <ele>1409.057104</ele>
        <time>2022-05-22T02:39:26.928Z</time>
      </trkpt>
      <trkpt lat="42.322099" lon="2.023503">
        <ele>1409.039863</ele>
        <time>2022-05-22T02:39:30.937Z</time>
      </trkpt>
      <trkpt lat="42.322023" lon="2.023419">
        <ele>1409.022510</ele>
        <time>2022-05-22T02:39:34.932Z</time>
      </trkpt>
      <trkpt lat="42.321959" lon="2.023308">
        <ele>1409.004109</ele>
        <time>2022-05-22T02:39:39.936Z</time>
      </trkpt>
      <trkpt lat="42.321891" lon="2.023218">
        <ele>1408.987288</ele>
        <time>2022-05-22T02:39:43.933Z</time>
      </trkpt>
      <trkpt lat="42.321835" lon="2.023121">
        <ele>1408.971200</ele>
        <time>2022-05-22T02:39:47.940Z</time>
      </trkpt>
      <trkpt lat="42.321783" lon="2.023004">
        <ele>1408.953355</ele>
        <time>2022-05-22T02:39:52.937Z</time>
      </trkpt>
      <trkpt lat="42.321769" lon="2.022853">
        <ele>1408.933461</ele>
        <time>2022-05-22T02:39:56.938Z</time>
      </trkpt>
      <trkpt lat="42.321777" lon="2.022702">
        <ele>1408.913671</ele>
        <time>2022-05-22T02:40:00.935Z</time>
      </trkpt>
      <trkpt lat="42.321777" lon="2.022568">
        <ele>1409.314372</ele>
        <time>2022-05-22T02:40:04.934Z</time>
      </trkpt>
      <trkpt lat="42.321802" lon="2.022440">
        <ele>1410.113301</ele>
        <time>2022-05-22T02:40:08.931Z</time>
      </trkpt>
      <trkpt lat="42.321852" lon="2.022335">
        <ele>1410.866979</ele>
        <time>2022-05-22T02:40:13.924Z</time>
      </trkpt>
      <trkpt lat="42.321906" lon="2.022237">
        <ele>1411.604539</ele>
        <time>2022-05-22T02:40:19.932Z</time>
      </trkpt>
      <trkpt lat="42.321963" lon="2.022138">
        <ele>1412.361739</ele>
        <time>2022-05-22T02:40:24.936Z</time>
      </trkpt>
      <trkpt lat="42.322006" lon="2.022030">
        <ele>1413.101964</ele>
        <time>2022-05-22T02:40:30.936Z</time>
      </trkpt>
      <trkpt lat="42.322021" lon="2.021894">
        <ele>1413.931752</ele>
        <time>2022-05-22T02:40:36.934Z</time>
      </trkpt>
      <trkpt lat="42.322013" lon="2.021762">
        <ele>1414.730992</ele>
        <time>2022-05-22T02:40:41.943Z</time>
      </trkpt>
      <trkpt lat="42.321947" lon="2.021658">
        <ele>1415.558069</ele>
        <time>2022-05-22T02:40:57.937Z</time>
      </trkpt>
      <trkpt lat="42.321831" lon="2.021516">
        <ele>1416.835048</ele>
        <time>2022-05-22T02:44:16.944Z</time>
      </trkpt>
      <trkpt lat="42.321760" lon="2.021441">
        <ele>1417.570337</ele>
        <time>2022-05-22T02:44:20.941Z</time>
      </trkpt>
      <trkpt lat="42.321693" lon="2.021316">
        <ele>1418.502028</ele>
        <time>2022-05-22T02:44:24.935Z</time>
      </trkpt>
      <trkpt lat="42.321637" lon="2.021186">
        <ele>1419.409965</ele>
        <time>2022-05-22T02:44:28.941Z</time>
      </trkpt>
      <trkpt lat="42.321609" lon="2.021070">
        <ele>1420.146343</ele>
        <time>2022-05-22T02:44:32.946Z</time>
      </trkpt>
      <trkpt lat="42.321611" lon="2.020945">
        <ele>1420.900851</ele>
        <time>2022-05-22T02:44:36.940Z</time>
      </trkpt>
      <trkpt lat="42.321613" lon="2.020801">
        <ele>1421.769993</ele>
        <time>2022-05-22T02:44:41.948Z</time>
      </trkpt>
      <trkpt lat="42.321628" lon="2.020655">
        <ele>1422.659517</ele>
        <time>2022-05-22T02:44:46.939Z</time>
      </trkpt>
      <trkpt lat="42.321677" lon="2.020536">
        <ele>1423.481492</ele>
        <time>2022-05-22T02:44:50.938Z</time>
      </trkpt>
      <trkpt lat="42.321728" lon="2.020405">
        <ele>1423.796805</ele>
        <time>2022-05-22T02:44:55.937Z</time>
      </trkpt>
      <trkpt lat="42.321750" lon="2.020266">
        <ele>1424.026669</ele>
        <time>2022-05-22T02:45:00.943Z</time>
      </trkpt>
      <trkpt lat="42.321762" lon="2.020134">
        <ele>1424.241728</ele>
        <time>2022-05-22T02:45:04.940Z</time>
      </trkpt>
      <trkpt lat="42.321779" lon="2.019992">
        <ele>1424.474341</ele>
        <time>2022-05-22T02:45:09.934Z</time>
      </trkpt>
      <trkpt lat="42.321797" lon="2.019865">
        <ele>1424.683447</ele>
        <time>2022-05-22T02:45:15.939Z</time>
      </trkpt>
      <trkpt lat="42.321788" lon="2.019744">
        <ele>1424.880099</ele>
        <time>2022-05-22T02:45:20.936Z</time>
      </trkpt>
      <trkpt lat="42.321795" lon="2.019615">
        <ele>1425.089261</ele>
        <time>2022-05-22T02:45:25.941Z</time>
      </trkpt>
      <trkpt lat="42.321787" lon="2.019493">
        <ele>1425.287316</ele>
        <time>2022-05-22T02:45:30.939Z</time>
      </trkpt>
      <trkpt lat="42.321767" lon="2.019371">
        <ele>1425.489389</ele>
        <time>2022-05-22T02:45:35.934Z</time>
      </trkpt>
      <trkpt lat="42.321733" lon="2.019255">
        <ele>1425.691169</ele>
        <time>2022-05-22T02:45:40.934Z</time>
      </trkpt>
      <trkpt lat="42.321650" lon="2.019146">
        <ele>1425.944189</ele>
        <time>2022-05-22T02:45:45.938Z</time>
      </trkpt>
      <trkpt lat="42.321579" lon="2.019067">
        <ele>1426.145266</ele>
        <time>2022-05-22T02:45:48.939Z</time>
      </trkpt>
      <trkpt lat="42.321520" lon="2.018974">
        <ele>1426.343425</ele>
        <time>2022-05-22T02:45:51.939Z</time>
      </trkpt>
      <trkpt lat="42.321430" lon="2.018873">
        <ele>1426.599196</ele>
        <time>2022-05-22T02:45:55.937Z</time>
      </trkpt>
      <trkpt lat="42.321354" lon="2.018764">
        <ele>1426.841468</ele>
        <time>2022-05-22T02:45:59.942Z</time>
      </trkpt>
      <trkpt lat="42.321299" lon="2.018653">
        <ele>1427.057542</ele>
        <time>2022-05-22T02:46:03.940Z</time>
      </trkpt>
      <trkpt lat="42.321273" lon="2.018520">
        <ele>1427.280003</ele>
        <time>2022-05-22T02:46:08.940Z</time>
      </trkpt>
      <trkpt lat="42.321254" lon="2.018386">
        <ele>1427.500639</ele>
        <time>2022-05-22T02:46:12.933Z</time>
      </trkpt>
      <trkpt lat="42.321264" lon="2.018260">
        <ele>1428.276556</ele>
        <time>2022-05-22T02:46:17.934Z</time>
      </trkpt>
      <trkpt lat="42.321324" lon="2.018158">
        <ele>1429.132191</ele>
        <time>2022-05-22T02:46:22.932Z</time>
      </trkpt>
      <trkpt lat="42.321314" lon="2.018020">
        <ele>1430.042434</ele>
        <time>2022-05-22T02:46:26.924Z</time>
      </trkpt>
      <trkpt lat="42.321262" lon="2.017905">
        <ele>1430.927335</ele>
        <time>2022-05-22T02:46:30.934Z</time>
      </trkpt>
      <trkpt lat="42.321247" lon="2.017778">
        <ele>1431.771598</ele>
        <time>2022-05-22T02:46:36.934Z</time>
      </trkpt>
      <trkpt lat="42.321294" lon="2.017655">
        <ele>1432.680487</ele>
        <time>2022-05-22T02:46:43.936Z</time>
      </trkpt>
      <trkpt lat="42.321371" lon="2.017578">
        <ele>1433.530697</ele>
        <time>2022-05-22T02:46:49.930Z</time>
      </trkpt>
      <trkpt lat="42.321392" lon="2.017442">
        <ele>1434.442730</ele>
        <time>2022-05-22T02:46:54.942Z</time>
      </trkpt>
      <trkpt lat="42.321401" lon="2.017298">
        <ele>1435.391390</ele>
        <time>2022-05-22T02:46:59.939Z</time>
      </trkpt>
      <trkpt lat="42.321399" lon="2.017148">
        <ele>1436.376226</ele>
        <time>2022-05-22T02:47:04.943Z</time>
      </trkpt>
      <trkpt lat="42.321392" lon="2.017003">
        <ele>1437.330106</ele>
        <time>2022-05-22T02:47:09.941Z</time>
      </trkpt>
      <trkpt lat="42.321364" lon="2.016872">
        <ele>1438.225267</ele>
        <time>2022-05-22T02:47:13.931Z</time>
      </trkpt>
      <trkpt lat="42.321331" lon="2.016744">
        <ele>1439.115140</ele>
        <time>2022-05-22T02:47:17.936Z</time>
      </trkpt>
      <trkpt lat="42.321289" lon="2.016609">
        <ele>1440.076606</ele>
        <time>2022-05-22T02:47:22.932Z</time>
      </trkpt>
      <trkpt lat="42.321263" lon="2.016465">
        <ele>1441.049673</ele>
        <time>2022-05-22T02:47:27.940Z</time>
      </trkpt>
      <trkpt lat="42.321252" lon="2.016330">
        <ele>1441.941248</ele>
        <time>2022-05-22T02:47:32.934Z</time>
      </trkpt>
      <trkpt lat="42.321248" lon="2.016208">
        <ele>1442.742907</ele>
        <time>2022-05-22T02:47:36.942Z</time>
      </trkpt>
      <trkpt lat="42.321238" lon="2.016059">
        <ele>1443.750459</ele>
        <time>2022-05-22T02:47:41.944Z</time>
      </trkpt>
      <trkpt lat="42.321230" lon="2.015920">
        <ele>1444.763826</ele>
        <time>2022-05-22T02:47:46.932Z</time>
      </trkpt>
      <trkpt lat="42.321227" lon="2.015783">
        <ele>1445.760036</ele>
        <time>2022-05-22T02:47:51.935Z</time>
      </trkpt>
      <trkpt lat="42.321215" lon="2.015654">
        <ele>1446.705054</ele>
        <time>2022-05-22T02:47:56.947Z</time>
      </trkpt>
      <trkpt lat="42.321191" lon="2.015530">
        <ele>1447.636707</ele>
        <time>2022-05-22T02:48:00.945Z</time>
      </trkpt>
      <trkpt lat="42.321171" lon="2.015410">
        <ele>1448.530802</ele>
        <time>2022-05-22T02:48:04.938Z</time>
      </trkpt>
      <trkpt lat="42.321142" lon="2.015285">
        <ele>1449.483032</ele>
        <time>2022-05-22T02:48:09.935Z</time>
      </trkpt>
      <trkpt lat="42.321108" lon="2.015168">
        <ele>1450.396763</ele>
        <time>2022-05-22T02:48:13.937Z</time>
      </trkpt>
      <trkpt lat="42.321064" lon="2.015034">
        <ele>1451.462458</ele>
        <time>2022-05-22T02:48:17.951Z</time>
      </trkpt>
      <trkpt lat="42.321025" lon="2.014898">
        <ele>1452.522710</ele>
        <time>2022-05-22T02:48:21.946Z</time>
      </trkpt>
      <trkpt lat="42.321002" lon="2.014756">
        <ele>1453.579304</ele>
        <time>2022-05-22T02:48:25.952Z</time>
      </trkpt>
      <trkpt lat="42.320980" lon="2.014623">
        <ele>1454.569904</ele>
        <time>2022-05-22T02:48:28.939Z</time>
      </trkpt>
      <trkpt lat="42.320941" lon="2.014483">
        <ele>1455.657314</ele>
        <time>2022-05-22T02:48:32.934Z</time>
      </trkpt>
      <trkpt lat="42.320920" lon="2.014356">
        <ele>1456.603210</ele>
        <time>2022-05-22T02:48:35.946Z</time>
      </trkpt>
      <trkpt lat="42.320906" lon="2.014225">
        <ele>1457.565272</ele>
        <time>2022-05-22T02:48:39.955Z</time>
      </trkpt>
      <trkpt lat="42.320867" lon="2.014110">
        <ele>1458.484874</ele>
        <time>2022-05-22T02:48:44.943Z</time>
      </trkpt>
      <trkpt lat="42.320827" lon="2.013991">
        <ele>1459.435007</ele>
        <time>2022-05-22T02:48:49.937Z</time>
      </trkpt>
      <trkpt lat="42.320800" lon="2.013868">
        <ele>1460.367597</ele>
        <time>2022-05-22T02:48:55.937Z</time>
      </trkpt>
      <trkpt lat="42.320788" lon="2.013748">
        <ele>1461.294691</ele>
        <time>2022-05-22T02:49:01.943Z</time>
      </trkpt>
      <trkpt lat="42.320777" lon="2.013616">
        <ele>1462.838451</ele>
        <time>2022-05-22T02:49:08.934Z</time>
      </trkpt>
      <trkpt lat="42.320760" lon="2.013495">
        <ele>1464.269823</ele>
        <time>2022-05-22T02:49:14.942Z</time>
      </trkpt>
      <trkpt lat="42.320757" lon="2.013365">
        <ele>1465.781364</ele>
        <time>2022-05-22T02:49:20.938Z</time>
      </trkpt>
      <trkpt lat="42.320721" lon="2.013238">
        <ele>1467.362054</ele>
        <time>2022-05-22T02:49:26.946Z</time>
      </trkpt>
      <trkpt lat="42.320674" lon="2.013135">
        <ele>1468.768682</ele>
        <time>2022-05-22T02:49:31.940Z</time>
      </trkpt>
      <trkpt lat="42.320602" lon="2.013053">
        <ele>1470.248163</ele>
        <time>2022-05-22T02:49:36.937Z</time>
      </trkpt>
      <trkpt lat="42.320509" lon="2.012996">
        <ele>1471.853018</ele>
        <time>2022-05-22T02:49:41.942Z</time>
      </trkpt>
      <trkpt lat="42.320412" lon="2.012933">
        <ele>1473.544338</ele>
        <time>2022-05-22T02:49:47.935Z</time>
      </trkpt>
      <trkpt lat="42.320339" lon="2.012845">
        <ele>1475.081368</ele>
        <time>2022-05-22T02:49:53.938Z</time>
      </trkpt>
      <trkpt lat="42.320288" lon="2.012737">
        <ele>1476.570648</ele>
        <time>2022-05-22T02:50:00.941Z</time>
      </trkpt>
      <trkpt lat="42.320241" lon="2.012622">
        <ele>1478.097719</ele>
        <time>2022-05-22T02:50:07.938Z</time>
      </trkpt>
      <trkpt lat="42.320205" lon="2.012497">
        <ele>1479.656739</ele>
        <time>2022-05-22T02:50:13.940Z</time>
      </trkpt>
      <trkpt lat="42.320181" lon="2.012376">
        <ele>1481.112681</ele>
        <time>2022-05-22T02:50:18.933Z</time>
      </trkpt>
      <trkpt lat="42.320159" lon="2.012238">
        <ele>1482.753328</ele>
        <time>2022-05-22T02:50:24.932Z</time>
      </trkpt>
      <trkpt lat="42.320139" lon="2.012113">
        <ele>1484.239663</ele>
        <time>2022-05-22T02:50:30.940Z</time>
      </trkpt>
      <trkpt lat="42.320105" lon="2.011988">
        <ele>1485.787553</ele>
        <time>2022-05-22T02:50:36.942Z</time>
      </trkpt>
      <trkpt lat="42.320078" lon="2.011864">
        <ele>1487.289832</ele>
        <time>2022-05-22T02:50:43.934Z</time>
      </trkpt>
      <trkpt lat="42.320074" lon="2.011726">
        <ele>1488.894859</ele>
        <time>2022-05-22T02:50:50.935Z</time>
      </trkpt>
      <trkpt lat="42.320038" lon="2.011597">
        <ele>1490.134789</ele>
        <time>2022-05-22T02:50:56.951Z</time>
      </trkpt>
      <trkpt lat="42.319999" lon="2.011467">
        <ele>1491.206121</ele>
        <time>2022-05-22T02:51:02.938Z</time>
      </trkpt>
      <trkpt lat="42.319947" lon="2.011347">
        <ele>1492.268267</ele>
        <time>2022-05-22T02:51:08.942Z</time>
      </trkpt>
      <trkpt lat="42.319911" lon="2.011218">
        <ele>1493.321193</ele>
        <time>2022-05-22T02:51:14.948Z</time>
      </trkpt>
      <trkpt lat="42.319912" lon="2.011088">
        <ele>1494.313979</ele>
        <time>2022-05-22T02:51:20.940Z</time>
      </trkpt>
      <trkpt lat="42.319878" lon="2.010974">
        <ele>1495.252683</ele>
        <time>2022-05-22T02:51:26.935Z</time>
      </trkpt>
      <trkpt lat="42.319849" lon="2.010847">
        <ele>1496.267702</ele>
        <time>2022-05-22T02:51:32.941Z</time>
      </trkpt>
      <trkpt lat="42.319819" lon="2.010721">
        <ele>1497.278546</ele>
        <time>2022-05-22T02:51:38.941Z</time>
      </trkpt>
      <trkpt lat="42.319785" lon="2.010593">
        <ele>1498.317169</ele>
        <time>2022-05-22T02:51:44.938Z</time>
      </trkpt>
      <trkpt lat="42.319747" lon="2.010474">
        <ele>1499.307029</ele>
        <time>2022-05-22T02:51:49.943Z</time>
      </trkpt>
      <trkpt lat="42.319713" lon="2.010357">
        <ele>1500.267019</ele>
        <time>2022-05-22T02:51:54.925Z</time>
      </trkpt>
      <trkpt lat="42.319675" lon="2.010230">
        <ele>1501.313245</ele>
        <time>2022-05-22T02:52:01.939Z</time>
      </trkpt>
      <trkpt lat="42.319667" lon="2.010106">
        <ele>1502.263761</ele>
        <time>2022-05-22T02:52:06.942Z</time>
      </trkpt>
      <trkpt lat="42.319656" lon="2.009972">
        <ele>1503.293331</ele>
        <time>2022-05-22T02:52:13.938Z</time>
      </trkpt>
      <trkpt lat="42.319646" lon="2.009833">
        <ele>1504.359809</ele>
        <time>2022-05-22T02:52:20.938Z</time>
      </trkpt>
      <trkpt lat="42.319672" lon="2.009716">
        <ele>1505.292752</ele>
        <time>2022-05-22T02:52:26.946Z</time>
      </trkpt>
      <trkpt lat="42.319673" lon="2.009585">
        <ele>1506.293178</ele>
        <time>2022-05-22T02:52:32.937Z</time>
      </trkpt>
      <trkpt lat="42.319686" lon="2.009456">
        <ele>1507.287386</ele>
        <time>2022-05-22T02:52:37.938Z</time>
      </trkpt>
      <trkpt lat="42.319681" lon="2.009314">
        <ele>1508.375351</ele>
        <time>2022-05-22T02:52:43.941Z</time>
      </trkpt>
      <trkpt lat="42.319696" lon="2.009194">
        <ele>1509.310882</ele>
        <time>2022-05-22T02:52:48.941Z</time>
      </trkpt>
      <trkpt lat="42.319698" lon="2.009070">
        <ele>1510.264298</ele>
        <time>2022-05-22T02:52:54.934Z</time>
      </trkpt>
      <trkpt lat="42.319710" lon="2.008930">
        <ele>1511.347687</ele>
        <time>2022-05-22T02:53:01.937Z</time>
      </trkpt>
      <trkpt lat="42.319694" lon="2.008796">
        <ele>1512.391092</ele>
        <time>2022-05-22T02:53:07.941Z</time>
      </trkpt>
      <trkpt lat="42.319677" lon="2.008657">
        <ele>1513.474105</ele>
        <time>2022-05-22T02:53:14.940Z</time>
      </trkpt>
      <trkpt lat="42.319684" lon="2.008519">
        <ele>1514.537407</ele>
        <time>2022-05-22T02:53:20.944Z</time>
      </trkpt>
      <trkpt lat="42.319726" lon="2.008397">
        <ele>1515.571891</ele>
        <time>2022-05-22T02:53:26.938Z</time>
      </trkpt>
      <trkpt lat="42.319760" lon="2.008278">
        <ele>1516.552563</ele>
        <time>2022-05-22T02:53:32.941Z</time>
      </trkpt>
      <trkpt lat="42.319804" lon="2.008171">
        <ele>1517.493717</ele>
        <time>2022-05-22T02:53:38.942Z</time>
      </trkpt>
      <trkpt lat="42.319836" lon="2.008045">
        <ele>1518.517821</ele>
        <time>2022-05-22T02:53:45.943Z</time>
      </trkpt>
      <trkpt lat="42.319864" lon="2.007916">
        <ele>1519.551287</ele>
        <time>2022-05-22T02:53:52.951Z</time>
      </trkpt>
      <trkpt lat="42.319886" lon="2.007782">
        <ele>1520.606432</ele>
        <time>2022-05-22T02:53:58.937Z</time>
      </trkpt>
      <trkpt lat="42.319913" lon="2.007646">
        <ele>1521.688891</ele>
        <time>2022-05-22T02:54:05.941Z</time>
      </trkpt>
      <trkpt lat="42.319936" lon="2.007516">
        <ele>1522.716409</ele>
        <time>2022-05-22T02:54:13.945Z</time>
      </trkpt>
      <trkpt lat="42.319947" lon="2.007384">
        <ele>1523.737515</ele>
        <time>2022-05-22T02:54:19.938Z</time>
      </trkpt>
      <trkpt lat="42.319957" lon="2.007256">
        <ele>1524.726926</ele>
        <time>2022-05-22T02:54:25.938Z</time>
      </trkpt>
      <trkpt lat="42.319969" lon="2.007135">
        <ele>1525.665380</ele>
        <time>2022-05-22T02:54:31.939Z</time>
      </trkpt>
      <trkpt lat="42.320011" lon="2.007009">
        <ele>1526.716311</ele>
        <time>2022-05-22T02:54:37.953Z</time>
      </trkpt>
      <trkpt lat="42.320029" lon="2.006876">
        <ele>1526.777567</ele>
        <time>2022-05-22T02:54:43.952Z</time>
      </trkpt>
      <trkpt lat="42.320043" lon="2.006743">
        <ele>1526.838429</ele>
        <time>2022-05-22T02:54:49.948Z</time>
      </trkpt>
      <trkpt lat="42.320019" lon="2.006601">
        <ele>1526.904421</ele>
        <time>2022-05-22T02:54:54.940Z</time>
      </trkpt>
      <trkpt lat="42.319998" lon="2.006446">
        <ele>1526.975812</ele>
        <time>2022-05-22T02:54:58.936Z</time>
      </trkpt>
      <trkpt lat="42.319952" lon="2.006298">
        <ele>1527.048545</ele>
        <time>2022-05-22T02:55:02.953Z</time>
      </trkpt>
      <trkpt lat="42.319924" lon="2.006151">
        <ele>1527.117317</ele>
        <time>2022-05-22T02:55:05.936Z</time>
      </trkpt>
      <trkpt lat="42.319910" lon="2.006030">
        <ele>1527.172803</ele>
        <time>2022-05-22T02:55:08.927Z</time>
      </trkpt>
      <trkpt lat="42.319883" lon="2.005881">
        <ele>1527.242304</ele>
        <time>2022-05-22T02:55:11.933Z</time>
      </trkpt>
      <trkpt lat="42.319849" lon="2.005741">
        <ele>1527.309064</ele>
        <time>2022-05-22T02:55:14.937Z</time>
      </trkpt>
      <trkpt lat="42.319807" lon="2.005591">
        <ele>1527.381730</ele>
        <time>2022-05-22T02:55:17.939Z</time>
      </trkpt>
      <trkpt lat="42.319802" lon="2.005447">
        <ele>1527.447041</ele>
        <time>2022-05-22T02:55:20.926Z</time>
      </trkpt>
      <trkpt lat="42.319826" lon="2.005278">
        <ele>1527.525005</ele>
        <time>2022-05-22T02:55:23.927Z</time>
      </trkpt>
      <trkpt lat="42.319877" lon="2.005139">
        <ele>1527.595305</ele>
        <time>2022-05-22T02:55:26.920Z</time>
      </trkpt>
      <trkpt lat="42.319966" lon="2.005052">
        <ele>1527.662590</ele>
        <time>2022-05-22T02:55:30.934Z</time>
      </trkpt>
      <trkpt lat="42.320049" lon="2.004952">
        <ele>1527.730699</ele>
        <time>2022-05-22T02:55:34.930Z</time>
      </trkpt>
      <trkpt lat="42.320135" lon="2.004861">
        <ele>1527.797604</ele>
        <time>2022-05-22T02:55:38.931Z</time>
      </trkpt>
      <trkpt lat="42.320213" lon="2.004776">
        <ele>1527.986552</ele>
        <time>2022-05-22T02:55:42.936Z</time>
      </trkpt>
      <trkpt lat="42.320283" lon="2.004682">
        <ele>1528.233592</ele>
        <time>2022-05-22T02:55:46.927Z</time>
      </trkpt>
      <trkpt lat="42.320354" lon="2.004597">
        <ele>1528.471055</ele>
        <time>2022-05-22T02:55:50.923Z</time>
      </trkpt>
      <trkpt lat="42.320444" lon="2.004528">
        <ele>1528.730142</ele>
        <time>2022-05-22T02:55:54.935Z</time>
      </trkpt>
      <trkpt lat="42.320549" lon="2.004467">
        <ele>1529.016332</ele>
        <time>2022-05-22T02:55:58.931Z</time>
      </trkpt>
      <trkpt lat="42.320646" lon="2.004447">
        <ele>1529.262061</ele>
        <time>2022-05-22T02:56:02.939Z</time>
      </trkpt>
      <trkpt lat="42.320740" lon="2.004436">
        <ele>1529.498350</ele>
        <time>2022-05-22T02:56:06.936Z</time>
      </trkpt>
      <trkpt lat="42.320834" lon="2.004482">
        <ele>1529.748695</ele>
        <time>2022-05-22T02:56:10.933Z</time>
      </trkpt>
      <trkpt lat="42.320917" lon="2.004551">
        <ele>1529.992684</ele>
        <time>2022-05-22T02:56:14.934Z</time>
      </trkpt>
      <trkpt lat="42.321012" lon="2.004580">
        <ele>1530.236583</ele>
        <time>2022-05-22T02:56:18.938Z</time>
      </trkpt>
      <trkpt lat="42.321115" lon="2.004633">
        <ele>1530.512569</ele>
        <time>2022-05-22T02:56:23.919Z</time>
      </trkpt>
      <trkpt lat="42.321209" lon="2.004600">
        <ele>1530.755780</ele>
        <time>2022-05-22T02:56:28.932Z</time>
      </trkpt>
      <trkpt lat="42.321300" lon="2.004628">
        <ele>1530.989499</ele>
        <time>2022-05-22T02:56:33.931Z</time>
      </trkpt>
      <trkpt lat="42.321393" lon="2.004674">
        <ele>1531.237490</ele>
        <time>2022-05-22T02:56:38.929Z</time>
      </trkpt>
      <trkpt lat="42.321481" lon="2.004744">
        <ele>1531.493164</ele>
        <time>2022-05-22T02:56:43.933Z</time>
      </trkpt>
      <trkpt lat="42.321559" lon="2.004813">
        <ele>1531.726577</ele>
        <time>2022-05-22T02:56:47.932Z</time>
      </trkpt>
      <trkpt lat="42.321645" lon="2.004880">
        <ele>1531.975127</ele>
        <time>2022-05-22T02:56:52.937Z</time>
      </trkpt>
      <trkpt lat="42.321740" lon="2.004938">
        <ele>1532.236158</ele>
        <time>2022-05-22T02:56:58.934Z</time>
      </trkpt>
      <trkpt lat="42.321839" lon="2.004964">
        <ele>1532.708689</ele>
        <time>2022-05-22T02:57:03.943Z</time>
      </trkpt>
      <trkpt lat="42.321938" lon="2.004975">
        <ele>1533.285867</ele>
        <time>2022-05-22T02:57:08.934Z</time>
      </trkpt>
      <trkpt lat="42.322031" lon="2.005012">
        <ele>1533.849137</ele>
        <time>2022-05-22T02:57:13.930Z</time>
      </trkpt>
      <trkpt lat="42.322125" lon="2.005049">
        <ele>1534.417985</ele>
        <time>2022-05-22T02:57:19.938Z</time>
      </trkpt>
      <trkpt lat="42.322218" lon="2.005081">
        <ele>1534.975574</ele>
        <time>2022-05-22T02:57:25.939Z</time>
      </trkpt>
      <trkpt lat="42.322320" lon="2.005056">
        <ele>1535.577898</ele>
        <time>2022-05-22T02:57:31.937Z</time>
      </trkpt>
      <trkpt lat="42.322405" lon="2.005014">
        <ele>1536.103718</ele>
        <time>2022-05-22T02:57:35.937Z</time>
      </trkpt>
      <trkpt lat="42.322509" lon="2.005000">
        <ele>1536.710996</ele>
        <time>2022-05-22T02:57:41.936Z</time>
      </trkpt>
      <trkpt lat="42.322602" lon="2.005004">
        <ele>1537.251646</ele>
        <time>2022-05-22T02:57:46.937Z</time>
      </trkpt>
      <trkpt lat="42.322693" lon="2.004987">
        <ele>1537.785421</ele>
        <time>2022-05-22T02:57:51.937Z</time>
      </trkpt>
      <trkpt lat="42.322789" lon="2.005045">
        <ele>1538.396352</ele>
        <time>2022-05-22T02:57:58.935Z</time>
      </trkpt>
      <trkpt lat="42.322870" lon="2.005137">
        <ele>1539.010945</ele>
        <time>2022-05-22T02:58:04.928Z</time>
      </trkpt>
      <trkpt lat="42.322940" lon="2.005222">
        <ele>1539.557552</ele>
        <time>2022-05-22T02:58:11.932Z</time>
      </trkpt>
      <trkpt lat="42.323041" lon="2.005256">
        <ele>1540.162317</ele>
        <time>2022-05-22T02:58:16.935Z</time>
      </trkpt>
      <trkpt lat="42.323144" lon="2.005283">
        <ele>1540.771935</ele>
        <time>2022-05-22T02:58:21.937Z</time>
      </trkpt>
      <trkpt lat="42.323239" lon="2.005321">
        <ele>1541.347566</ele>
        <time>2022-05-22T02:58:28.937Z</time>
      </trkpt>
      <trkpt lat="42.323333" lon="2.005322">
        <ele>1541.893770</ele>
        <time>2022-05-22T02:58:34.934Z</time>
      </trkpt>
      <trkpt lat="42.323409" lon="2.005256">
        <ele>1542.418558</ele>
        <time>2022-05-22T02:58:41.933Z</time>
      </trkpt>
      <trkpt lat="42.323494" lon="2.005204">
        <ele>1542.855961</ele>
        <time>2022-05-22T02:58:48.932Z</time>
      </trkpt>
      <trkpt lat="42.323599" lon="2.005165">
        <ele>1543.135508</ele>
        <time>2022-05-22T02:58:55.932Z</time>
      </trkpt>
      <trkpt lat="42.323691" lon="2.005100">
        <ele>1543.401983</ele>
        <time>2022-05-22T02:59:02.940Z</time>
      </trkpt>
      <trkpt lat="42.323768" lon="2.005008">
        <ele>1543.665752</ele>
        <time>2022-05-22T02:59:09.938Z</time>
      </trkpt>
      <trkpt lat="42.323844" lon="2.004929">
        <ele>1543.911833</ele>
        <time>2022-05-22T02:59:15.938Z</time>
      </trkpt>
      <trkpt lat="42.323928" lon="2.004849">
        <ele>1544.175585</ele>
        <time>2022-05-22T02:59:21.935Z</time>
      </trkpt>
      <trkpt lat="42.324010" lon="2.004777">
        <ele>1544.426575</ele>
        <time>2022-05-22T02:59:27.936Z</time>
      </trkpt>
      <trkpt lat="42.324075" lon="2.004683">
        <ele>1544.670875</ele>
        <time>2022-05-22T02:59:34.930Z</time>
      </trkpt>
      <trkpt lat="42.324168" lon="2.004630">
        <ele>1544.929963</ele>
        <time>2022-05-22T02:59:39.932Z</time>
      </trkpt>
      <trkpt lat="42.324248" lon="2.004560">
        <ele>1545.174579</ele>
        <time>2022-05-22T02:59:44.920Z</time>
      </trkpt>
      <trkpt lat="42.324345" lon="2.004520">
        <ele>1545.434925</ele>
        <time>2022-05-22T02:59:49.929Z</time>
      </trkpt>
      <trkpt lat="42.324429" lon="2.004465">
        <ele>1545.674519</ele>
        <time>2022-05-22T02:59:55.932Z</time>
      </trkpt>
      <trkpt lat="42.324523" lon="2.004404">
        <ele>1545.942184</ele>
        <time>2022-05-22T03:00:01.929Z</time>
      </trkpt>
      <trkpt lat="42.324575" lon="2.004291">
        <ele>1546.194825</ele>
        <time>2022-05-22T03:00:07.934Z</time>
      </trkpt>
      <trkpt lat="42.324652" lon="2.004226">
        <ele>1546.427849</ele>
        <time>2022-05-22T03:00:14.927Z</time>
      </trkpt>
      <trkpt lat="42.324739" lon="2.004135">
        <ele>1546.710201</ele>
        <time>2022-05-22T03:00:20.936Z</time>
      </trkpt>
      <trkpt lat="42.324832" lon="2.004104">
        <ele>1546.956105</ele>
        <time>2022-05-22T03:00:26.934Z</time>
      </trkpt>
      <trkpt lat="42.324929" lon="2.004093">
        <ele>1547.206007</ele>
        <time>2022-05-22T03:00:32.942Z</time>
      </trkpt>
      <trkpt lat="42.325031" lon="2.004105">
        <ele>1547.783408</ele>
        <time>2022-05-22T03:00:38.935Z</time>
      </trkpt>
      <trkpt lat="42.325134" lon="2.004118">
        <ele>1549.118848</ele>
        <time>2022-05-22T03:00:46.937Z</time>
      </trkpt>
      <trkpt lat="42.325208" lon="2.004037">
        <ele>1550.347772</ele>
        <time>2022-05-22T03:00:51.932Z</time>
      </trkpt>
      <trkpt lat="42.325297" lon="2.003998">
        <ele>1551.555497</ele>
        <time>2022-05-22T03:00:56.929Z</time>
      </trkpt>
      <trkpt lat="42.325380" lon="2.003941">
        <ele>1552.757173</ele>
        <time>2022-05-22T03:01:02.933Z</time>
      </trkpt>
      <trkpt lat="42.325470" lon="2.003884">
        <ele>1554.040075</ele>
        <time>2022-05-22T03:01:08.935Z</time>
      </trkpt>
      <trkpt lat="42.325566" lon="2.003861">
        <ele>1555.298665</ele>
        <time>2022-05-22T03:01:14.928Z</time>
      </trkpt>
      <trkpt lat="42.325671" lon="2.003826">
        <ele>1556.694702</ele>
        <time>2022-05-22T03:01:20.927Z</time>
      </trkpt>
      <trkpt lat="42.325763" lon="2.003815">
        <ele>1557.886994</ele>
        <time>2022-05-22T03:01:25.938Z</time>
      </trkpt>
      <trkpt lat="42.325851" lon="2.003751">
        <ele>1559.176825</ele>
        <time>2022-05-22T03:01:32.933Z</time>
      </trkpt>
      <trkpt lat="42.325955" lon="2.003741">
        <ele>1560.522785</ele>
        <time>2022-05-22T03:01:38.937Z</time>
      </trkpt>
      <trkpt lat="42.326036" lon="2.003676">
        <ele>1561.738624</ele>
        <time>2022-05-22T03:01:42.936Z</time>
      </trkpt>
      <trkpt lat="42.326123" lon="2.003633">
        <ele>1562.934372</ele>
        <time>2022-05-22T03:01:45.929Z</time>
      </trkpt>
      <trkpt lat="42.326197" lon="2.003562">
        <ele>1564.105600</ele>
        <time>2022-05-22T03:01:49.936Z</time>
      </trkpt>
      <trkpt lat="42.326271" lon="2.003461">
        <ele>1565.462731</ele>
        <time>2022-05-22T03:01:56.940Z</time>
      </trkpt>
      <trkpt lat="42.326367" lon="2.003398">
        <ele>1566.840193</ele>
        <time>2022-05-22T03:02:02.932Z</time>
      </trkpt>
      <trkpt lat="42.326437" lon="2.003310">
        <ele>1568.073886</ele>
        <time>2022-05-22T03:02:08.934Z</time>
      </trkpt>
      <trkpt lat="42.326488" lon="2.003192">
        <ele>1569.378419</ele>
        <time>2022-05-22T03:02:14.931Z</time>
      </trkpt>
      <trkpt lat="42.326559" lon="2.003083">
        <ele>1570.717741</ele>
        <time>2022-05-22T03:02:19.941Z</time>
      </trkpt>
      <trkpt lat="42.326649" lon="2.003005">
        <ele>1571.677249</ele>
        <time>2022-05-22T03:02:25.931Z</time>
      </trkpt>
      <trkpt lat="42.326705" lon="2.002893">
        <ele>1572.574568</ele>
        <time>2022-05-22T03:02:31.929Z</time>
      </trkpt>
      <trkpt lat="42.326778" lon="2.002794">
        <ele>1573.502512</ele>
        <time>2022-05-22T03:02:37.948Z</time>
      </trkpt>
      <trkpt lat="42.326859" lon="2.002699">
        <ele>1574.464891</ele>
        <time>2022-05-22T03:02:45.940Z</time>
      </trkpt>
      <trkpt lat="42.326920" lon="2.002582">
        <ele>1575.415022</ele>
        <time>2022-05-22T03:02:50.940Z</time>
      </trkpt>
      <trkpt lat="42.326994" lon="2.002486">
        <ele>1576.335432</ele>
        <time>2022-05-22T03:02:55.935Z</time>
      </trkpt>
      <trkpt lat="42.327102" lon="2.002460">
        <ele>1577.320140</ele>
        <time>2022-05-22T03:03:00.939Z</time>
      </trkpt>
      <trkpt lat="42.327168" lon="2.002372">
        <ele>1578.152050</ele>
        <time>2022-05-22T03:03:05.935Z</time>
      </trkpt>
      <trkpt lat="42.327231" lon="2.002266">
        <ele>1579.054650</ele>
        <time>2022-05-22T03:03:10.934Z</time>
      </trkpt>
      <trkpt lat="42.327313" lon="2.002191">
        <ele>1579.943220</ele>
        <time>2022-05-22T03:03:16.939Z</time>
      </trkpt>
      <trkpt lat="42.327351" lon="2.002077">
        <ele>1580.773122</ele>
        <time>2022-05-22T03:03:22.937Z</time>
      </trkpt>
      <trkpt lat="42.327428" lon="2.001978">
        <ele>1581.726756</ele>
        <time>2022-05-22T03:03:28.930Z</time>
      </trkpt>
      <trkpt lat="42.327488" lon="2.001877">
        <ele>1582.586620</ele>
        <time>2022-05-22T03:03:34.933Z</time>
      </trkpt>
      <trkpt lat="42.327545" lon="2.001752">
        <ele>1583.561283</ele>
        <time>2022-05-22T03:03:39.935Z</time>
      </trkpt>
      <trkpt lat="42.327627" lon="2.001647">
        <ele>1584.574882</ele>
        <time>2022-05-22T03:03:46.942Z</time>
      </trkpt>
      <trkpt lat="42.327711" lon="2.001564">
        <ele>1585.508678</ele>
        <time>2022-05-22T03:03:52.935Z</time>
      </trkpt>
      <trkpt lat="42.327779" lon="2.001460">
        <ele>1586.430069</ele>
        <time>2022-05-22T03:03:57.936Z</time>
      </trkpt>
      <trkpt lat="42.327853" lon="2.001373">
        <ele>1586.866359</ele>
        <time>2022-05-22T03:04:02.934Z</time>
      </trkpt>
      <trkpt lat="42.327913" lon="2.001257">
        <ele>1587.053749</ele>
        <time>2022-05-22T03:04:09.934Z</time>
      </trkpt>
      <trkpt lat="42.328012" lon="2.001221">
        <ele>1587.237292</ele>
        <time>2022-05-22T03:04:16.933Z</time>
      </trkpt>
      <trkpt lat="42.328116" lon="2.001230">
        <ele>1587.423874</ele>
        <time>2022-05-22T03:04:24.931Z</time>
      </trkpt>
      <trkpt lat="42.328187" lon="2.001149">
        <ele>1587.590169</ele>
        <time>2022-05-22T03:04:28.933Z</time>
      </trkpt>
      <trkpt lat="42.328252" lon="2.001065">
        <ele>1587.751121</ele>
        <time>2022-05-22T03:04:33.935Z</time>
      </trkpt>
      <trkpt lat="42.328326" lon="2.000986">
        <ele>1587.919904</ele>
        <time>2022-05-22T03:04:40.928Z</time>
      </trkpt>
      <trkpt lat="42.328424" lon="2.000944">
        <ele>1588.103960</ele>
        <time>2022-05-22T03:04:45.933Z</time>
      </trkpt>
      <trkpt lat="42.328515" lon="2.000902">
        <ele>1588.276109</ele>
        <time>2022-05-22T03:04:50.936Z</time>
      </trkpt>
      <trkpt lat="42.328620" lon="2.000863">
        <ele>1588.471060</ele>
        <time>2022-05-22T03:04:54.931Z</time>
      </trkpt>
      <trkpt lat="42.328714" lon="2.000851">
        <ele>1588.640105</ele>
        <time>2022-05-22T03:04:57.930Z</time>
      </trkpt>
      <trkpt lat="42.328807" lon="2.000837">
        <ele>1588.807639</ele>
        <time>2022-05-22T03:05:00.935Z</time>
      </trkpt>
      <trkpt lat="42.328922" lon="2.000820">
        <ele>1589.014761</ele>
        <time>2022-05-22T03:05:05.929Z</time>
      </trkpt>
      <trkpt lat="42.329008" lon="2.000756">
        <ele>1589.190500</ele>
        <time>2022-05-22T03:05:08.937Z</time>
      </trkpt>
      <trkpt lat="42.329099" lon="2.000746">
        <ele>1589.353963</ele>
        <time>2022-05-22T03:05:12.935Z</time>
      </trkpt>
      <trkpt lat="42.329203" lon="2.000785">
        <ele>1589.547187</ele>
        <time>2022-05-22T03:05:17.932Z</time>
      </trkpt>
      <trkpt lat="42.329310" lon="2.000802">
        <ele>1589.740076</ele>
        <time>2022-05-22T03:05:22.929Z</time>
      </trkpt>
      <trkpt lat="42.329414" lon="2.000792">
        <ele>1589.926747</ele>
        <time>2022-05-22T03:05:27.934Z</time>
      </trkpt>
      <trkpt lat="42.329508" lon="2.000796">
        <ele>1590.248874</ele>
        <time>2022-05-22T03:05:31.924Z</time>
      </trkpt>
      <trkpt lat="42.329591" lon="2.000746">
        <ele>1590.621609</ele>
        <time>2022-05-22T03:05:34.937Z</time>
      </trkpt>
      <trkpt lat="42.329679" lon="2.000716">
        <ele>1590.993904</ele>
        <time>2022-05-22T03:05:41.926Z</time>
      </trkpt>
      <trkpt lat="42.329775" lon="2.000711">
        <ele>1591.388022</ele>
        <time>2022-05-22T03:05:46.931Z</time>
      </trkpt>
      <trkpt lat="42.329854" lon="2.000648">
        <ele>1591.764237</ele>
        <time>2022-05-22T03:05:50.925Z</time>
      </trkpt>
      <trkpt lat="42.329957" lon="2.000668">
        <ele>1592.191110</ele>
        <time>2022-05-22T03:05:57.926Z</time>
      </trkpt>
      <trkpt lat="42.330051" lon="2.000694">
        <ele>1592.584710</ele>
        <time>2022-05-22T03:06:05.930Z</time>
      </trkpt>
      <trkpt lat="42.330147" lon="2.000706">
        <ele>1592.980214</ele>
        <time>2022-05-22T03:06:12.931Z</time>
      </trkpt>
      <trkpt lat="42.330239" lon="2.000775">
        <ele>1593.411761</ele>
        <time>2022-05-22T03:06:17.929Z</time>
      </trkpt>
      <trkpt lat="42.330337" lon="2.000767">
        <ele>1593.814523</ele>
        <time>2022-05-22T03:06:21.933Z</time>
      </trkpt>
      <trkpt lat="42.330438" lon="2.000714">
        <ele>1594.258946</ele>
        <time>2022-05-22T03:06:27.940Z</time>
      </trkpt>
      <trkpt lat="42.330511" lon="2.000631">
        <ele>1594.650156</ele>
        <time>2022-05-22T03:06:33.930Z</time>
      </trkpt>
      <trkpt lat="42.330607" lon="2.000623">
        <ele>1595.044728</ele>
        <time>2022-05-22T03:06:39.933Z</time>
      </trkpt>
      <trkpt lat="42.330701" lon="2.000580">
        <ele>1595.451803</ele>
        <time>2022-05-22T03:06:44.930Z</time>
      </trkpt>
      <trkpt lat="42.330802" lon="2.000580">
        <ele>1595.866140</ele>
        <time>2022-05-22T03:06:49.932Z</time>
      </trkpt>
      <trkpt lat="42.330892" lon="2.000547">
        <ele>1596.248676</ele>
        <time>2022-05-22T03:06:57.942Z</time>
      </trkpt>
      <trkpt lat="42.330959" lon="2.000454">
        <ele>1596.642497</ele>
        <time>2022-05-22T03:07:02.925Z</time>
      </trkpt>
      <trkpt lat="42.331036" lon="2.000387">
        <ele>1597.018088</ele>
        <time>2022-05-22T03:07:08.931Z</time>
      </trkpt>
      <trkpt lat="42.331134" lon="2.000373">
        <ele>1597.486308</ele>
        <time>2022-05-22T03:07:14.925Z</time>
      </trkpt>
      <trkpt lat="42.331226" lon="2.000355">
        <ele>1598.228300</ele>
        <time>2022-05-22T03:07:21.928Z</time>
      </trkpt>
      <trkpt lat="42.331311" lon="2.000302">
        <ele>1598.975387</ele>
        <time>2022-05-22T03:07:27.934Z</time>
      </trkpt>
      <trkpt lat="42.331383" lon="2.000216">
        <ele>1599.742080</ele>
        <time>2022-05-22T03:07:31.929Z</time>
      </trkpt>
      <trkpt lat="42.331465" lon="2.000144">
        <ele>1600.522410</ele>
        <time>2022-05-22T03:07:37.932Z</time>
      </trkpt>
      <trkpt lat="42.331518" lon="2.000025">
        <ele>1601.342199</ele>
        <time>2022-05-22T03:07:44.933Z</time>
      </trkpt>
      <trkpt lat="42.331570" lon="1.999916">
        <ele>1602.107688</ele>
        <time>2022-05-22T03:07:49.933Z</time>
      </trkpt>
      <trkpt lat="42.331582" lon="1.999782">
        <ele>1602.904179</ele>
        <time>2022-05-22T03:07:54.928Z</time>
      </trkpt>
      <trkpt lat="42.331618" lon="1.999644">
        <ele>1603.767705</ele>
        <time>2022-05-22T03:07:58.924Z</time>
      </trkpt>
      <trkpt lat="42.331653" lon="1.999530">
        <ele>1604.496104</ele>
        <time>2022-05-22T03:08:05.929Z</time>
      </trkpt>
      <trkpt lat="42.331733" lon="1.999448">
        <ele>1605.297286</ele>
        <time>2022-05-22T03:08:10.928Z</time>
      </trkpt>
      <trkpt lat="42.331775" lon="1.999332">
        <ele>1606.059468</ele>
        <time>2022-05-22T03:08:16.933Z</time>
      </trkpt>
      <trkpt lat="42.331842" lon="1.999246">
        <ele>1606.796716</ele>
        <time>2022-05-22T03:08:23.933Z</time>
      </trkpt>
      <trkpt lat="42.331931" lon="1.999153">
        <ele>1607.694394</ele>
        <time>2022-05-22T03:08:29.936Z</time>
      </trkpt>
      <trkpt lat="42.332018" lon="1.999095">
        <ele>1608.468589</ele>
        <time>2022-05-22T03:08:35.928Z</time>
      </trkpt>
      <trkpt lat="42.332109" lon="1.999091">
        <ele>1609.195340</ele>
        <time>2022-05-22T03:08:41.930Z</time>
      </trkpt>
      <trkpt lat="42.332207" lon="1.999056">
        <ele>1610.004387</ele>
        <time>2022-05-22T03:08:48.933Z</time>
      </trkpt>
      <trkpt lat="42.332261" lon="1.998958">
        <ele>1610.725629</ele>
        <time>2022-05-22T03:08:54.938Z</time>
      </trkpt>
      <trkpt lat="42.332305" lon="1.998843">
        <ele>1611.489716</ele>
        <time>2022-05-22T03:09:02.934Z</time>
      </trkpt>
      <trkpt lat="42.332362" lon="1.998744">
        <ele>1612.438608</ele>
        <time>2022-05-22T03:09:07.931Z</time>
      </trkpt>
      <trkpt lat="42.332409" lon="1.998638">
        <ele>1613.461154</ele>
        <time>2022-05-22T03:09:10.933Z</time>
      </trkpt>
      <trkpt lat="42.332469" lon="1.998517">
        <ele>1614.666486</ele>
        <time>2022-05-22T03:09:15.932Z</time>
      </trkpt>
      <trkpt lat="42.332533" lon="1.998405">
        <ele>1615.837564</ele>
        <time>2022-05-22T03:09:21.926Z</time>
      </trkpt>
      <trkpt lat="42.332529" lon="1.998263">
        <ele>1617.013138</ele>
        <time>2022-05-22T03:09:26.936Z</time>
      </trkpt>
      <trkpt lat="42.332574" lon="1.998136">
        <ele>1618.178220</ele>
        <time>2022-05-22T03:09:34.933Z</time>
      </trkpt>
      <trkpt lat="42.332574" lon="1.998008">
        <ele>1619.237123</ele>
        <time>2022-05-22T03:09:38.927Z</time>
      </trkpt>
      <trkpt lat="42.332543" lon="1.997892">
        <ele>1620.257533</ele>
        <time>2022-05-22T03:09:43.935Z</time>
      </trkpt>
      <trkpt lat="42.332569" lon="1.997775">
        <ele>1621.268223</ele>
        <time>2022-05-22T03:09:47.928Z</time>
      </trkpt>
      <trkpt lat="42.332613" lon="1.997640">
        <ele>1622.488761</ele>
        <time>2022-05-22T03:09:52.932Z</time>
      </trkpt>
      <trkpt lat="42.332602" lon="1.997506">
        <ele>1623.604113</ele>
        <time>2022-05-22T03:09:59.933Z</time>
      </trkpt>
      <trkpt lat="42.332646" lon="1.997372">
        <ele>1624.817086</ele>
        <time>2022-05-22T03:10:04.932Z</time>
      </trkpt>
      <trkpt lat="42.332627" lon="1.997253">
        <ele>1625.824234</ele>
        <time>2022-05-22T03:10:08.938Z</time>
      </trkpt>
      <trkpt lat="42.332589" lon="1.997139">
        <ele>1626.858759</ele>
        <time>2022-05-22T03:10:13.942Z</time>
      </trkpt>
      <trkpt lat="42.332536" lon="1.997035">
        <ele>1627.903742</ele>
        <time>2022-05-22T03:10:17.934Z</time>
      </trkpt>
      <trkpt lat="42.332462" lon="1.996936">
        <ele>1629.068439</ele>
        <time>2022-05-22T03:10:25.929Z</time>
      </trkpt>
      <trkpt lat="42.332370" lon="1.996901">
        <ele>1630.137920</ele>
        <time>2022-05-22T03:10:31.930Z</time>
      </trkpt>
      <trkpt lat="42.332276" lon="1.996906">
        <ele>1631.190655</ele>
        <time>2022-05-22T03:10:36.925Z</time>
      </trkpt>
      <trkpt lat="42.332195" lon="1.997004">
        <ele>1632.460287</ele>
        <time>2022-05-22T03:10:41.927Z</time>
      </trkpt>
      <trkpt lat="42.332108" lon="1.997079">
        <ele>1633.723729</ele>
        <time>2022-05-22T03:10:45.932Z</time>
      </trkpt>
      <trkpt lat="42.332000" lon="1.997083">
        <ele>1635.046877</ele>
        <time>2022-05-22T03:10:48.932Z</time>
      </trkpt>
      <trkpt lat="42.331905" lon="1.997068">
        <ele>1636.218221</ele>
        <time>2022-05-22T03:10:51.935Z</time>
      </trkpt>
      <trkpt lat="42.331801" lon="1.997072">
        <ele>1637.492402</ele>
        <time>2022-05-22T03:10:56.922Z</time>
      </trkpt>
      <trkpt lat="42.331732" lon="1.997151">
        <ele>1638.599482</ele>
        <time>2022-05-22T03:11:00.936Z</time>
      </trkpt>
      <trkpt lat="42.331661" lon="1.997234">
        <ele>1639.748715</ele>
        <time>2022-05-22T03:11:05.928Z</time>
      </trkpt>
      <trkpt lat="42.331563" lon="1.997207">
        <ele>1640.973541</ele>
        <time>2022-05-22T03:11:09.926Z</time>
      </trkpt>
      <trkpt lat="42.331471" lon="1.997225">
        <ele>1642.111970</ele>
        <time>2022-05-22T03:11:18.931Z</time>
      </trkpt>
      <trkpt lat="42.331374" lon="1.997202">
        <ele>1643.318021</ele>
        <time>2022-05-22T03:11:23.932Z</time>
      </trkpt>
      <trkpt lat="42.331267" lon="1.997213">
        <ele>1644.632206</ele>
        <time>2022-05-22T03:11:29.939Z</time>
      </trkpt>
      <trkpt lat="42.331185" lon="1.997156">
        <ele>1645.761279</ele>
        <time>2022-05-22T03:11:34.924Z</time>
      </trkpt>
      <trkpt lat="42.331093" lon="1.997123">
        <ele>1646.926923</ele>
        <time>2022-05-22T03:11:38.929Z</time>
      </trkpt>
      <trkpt lat="42.330989" lon="1.997126">
        <ele>1648.200879</ele>
        <time>2022-05-22T03:11:45.932Z</time>
      </trkpt>
      <trkpt lat="42.330896" lon="1.997098">
        <ele>1649.367701</ele>
        <time>2022-05-22T03:11:49.929Z</time>
      </trkpt>
      <trkpt lat="42.330803" lon="1.997102">
        <ele>1650.507228</ele>
        <time>2022-05-22T03:11:57.931Z</time>
      </trkpt>
      <trkpt lat="42.330712" lon="1.997074">
        <ele>1651.650154</ele>
        <time>2022-05-22T03:12:05.941Z</time>
      </trkpt>
      <trkpt lat="42.330623" lon="1.997119">
        <ele>1652.813773</ele>
        <time>2022-05-22T03:12:11.927Z</time>
      </trkpt>
      <trkpt lat="42.330533" lon="1.997146">
        <ele>1653.934028</ele>
        <time>2022-05-22T03:12:16.927Z</time>
      </trkpt>
      <trkpt lat="42.330440" lon="1.997174">
        <ele>1654.965893</ele>
        <time>2022-05-22T03:12:20.935Z</time>
      </trkpt>
      <trkpt lat="42.330361" lon="1.997244">
        <ele>1655.988709</ele>
        <time>2022-05-22T03:12:24.925Z</time>
      </trkpt>
      <trkpt lat="42.330268" lon="1.997271">
        <ele>1657.018864</ele>
        <time>2022-05-22T03:12:33.932Z</time>
      </trkpt>
      <trkpt lat="42.330175" lon="1.997186">
        <ele>1658.234448</ele>
        <time>2022-05-22T03:12:38.930Z</time>
      </trkpt>
      <trkpt lat="42.330102" lon="1.997084">
        <ele>1659.371118</ele>
        <time>2022-05-22T03:12:43.927Z</time>
      </trkpt>
      <trkpt lat="42.330001" lon="1.997065">
        <ele>1660.475505</ele>
        <time>2022-05-22T03:12:49.931Z</time>
      </trkpt>
      <trkpt lat="42.329908" lon="1.997061">
        <ele>1661.483231</ele>
        <time>2022-05-22T03:12:55.931Z</time>
      </trkpt>
      <trkpt lat="42.329817" lon="1.997076">
        <ele>1662.476078</ele>
        <time>2022-05-22T03:12:59.930Z</time>
      </trkpt>
      <trkpt lat="42.329747" lon="1.996975">
        <ele>1663.584542</ele>
        <time>2022-05-22T03:13:05.941Z</time>
      </trkpt>
      <trkpt lat="42.329655" lon="1.996941">
        <ele>1664.617447</ele>
        <time>2022-05-22T03:13:11.929Z</time>
      </trkpt>
      <trkpt lat="42.329580" lon="1.996842">
        <ele>1665.752389</ele>
        <time>2022-05-22T03:13:19.925Z</time>
      </trkpt>
      <trkpt lat="42.329478" lon="1.996836">
        <ele>1666.858122</ele>
        <time>2022-05-22T03:13:26.938Z</time>
      </trkpt>
      <trkpt lat="42.329361" lon="1.996833">
        <ele>1668.125494</ele>
        <time>2022-05-22T03:13:31.932Z</time>
      </trkpt>
      <trkpt lat="42.329279" lon="1.996767">
        <ele>1669.158907</ele>
        <time>2022-05-22T03:13:35.932Z</time>
      </trkpt>
      <trkpt lat="42.329181" lon="1.996718">
        <ele>1670.290465</ele>
        <time>2022-05-22T03:13:39.936Z</time>
      </trkpt>
      <trkpt lat="42.329091" lon="1.996652">
        <ele>1671.399223</ele>
        <time>2022-05-22T03:13:43.935Z</time>
      </trkpt>
      <trkpt lat="42.329018" lon="1.996555">
        <ele>1672.507489</ele>
        <time>2022-05-22T03:13:51.932Z</time>
      </trkpt>
      <trkpt lat="42.328915" lon="1.996528">
        <ele>1673.532189</ele>
        <time>2022-05-22T03:13:56.931Z</time>
      </trkpt>
      <trkpt lat="42.328814" lon="1.996472">
        <ele>1674.269833</ele>
        <time>2022-05-22T03:14:01.934Z</time>
      </trkpt>
      <trkpt lat="42.328732" lon="1.996400">
        <ele>1674.930477</ele>
        <time>2022-05-22T03:14:08.929Z</time>
      </trkpt>
      <trkpt lat="42.328693" lon="1.996288">
        <ele>1675.548983</ele>
        <time>2022-05-22T03:14:13.929Z</time>
      </trkpt>
      <trkpt lat="42.328713" lon="1.996140">
        <ele>1676.300632</ele>
        <time>2022-05-22T03:14:19.922Z</time>
      </trkpt>
      <trkpt lat="42.328732" lon="1.996012">
        <ele>1676.952874</ele>
        <time>2022-05-22T03:14:24.930Z</time>
      </trkpt>
      <trkpt lat="42.328805" lon="1.995931">
        <ele>1677.590930</ele>
        <time>2022-05-22T03:14:28.928Z</time>
      </trkpt>
      <trkpt lat="42.328850" lon="1.995818">
        <ele>1678.232163</ele>
        <time>2022-05-22T03:14:32.932Z</time>
      </trkpt>
      <trkpt lat="42.328888" lon="1.995706">
        <ele>1678.847818</ele>
        <time>2022-05-22T03:14:36.938Z</time>
      </trkpt>
      <trkpt lat="42.328962" lon="1.995606">
        <ele>1679.554686</ele>
        <time>2022-05-22T03:14:41.927Z</time>
      </trkpt>
      <trkpt lat="42.329012" lon="1.995503">
        <ele>1680.170282</ele>
        <time>2022-05-22T03:14:48.930Z</time>
      </trkpt>
      <trkpt lat="42.328977" lon="1.995378">
        <ele>1680.838060</ele>
        <time>2022-05-22T03:14:53.930Z</time>
      </trkpt>
      <trkpt lat="42.328988" lon="1.995244">
        <ele>1681.511627</ele>
        <time>2022-05-22T03:14:58.926Z</time>
      </trkpt>
      <trkpt lat="42.328999" lon="1.995111">
        <ele>1682.180228</ele>
        <time>2022-05-22T03:15:03.929Z</time>
      </trkpt>
      <trkpt lat="42.328975" lon="1.994989">
        <ele>1682.810939</ele>
        <time>2022-05-22T03:15:08.932Z</time>
      </trkpt>
      <trkpt lat="42.329013" lon="1.994867">
        <ele>1683.472327</ele>
        <time>2022-05-22T03:15:17.936Z</time>
      </trkpt>
      <trkpt lat="42.329030" lon="1.994725">
        <ele>1684.190988</ele>
        <time>2022-05-22T03:15:24.930Z</time>
      </trkpt>
      <trkpt lat="42.329033" lon="1.994590">
        <ele>1684.865740</ele>
        <time>2022-05-22T03:15:31.930Z</time>
      </trkpt>
      <trkpt lat="42.329012" lon="1.994463">
        <ele>1685.516744</ele>
        <time>2022-05-22T03:15:35.939Z</time>
      </trkpt>
      <trkpt lat="42.328974" lon="1.994329">
        <ele>1686.276734</ele>
        <time>2022-05-22T03:15:39.934Z</time>
      </trkpt>
      <trkpt lat="42.328931" lon="1.994212">
        <ele>1686.968626</ele>
        <time>2022-05-22T03:15:43.925Z</time>
      </trkpt>
      <trkpt lat="42.328895" lon="1.994084">
        <ele>1687.693824</ele>
        <time>2022-05-22T03:15:48.930Z</time>
      </trkpt>
      <trkpt lat="42.328812" lon="1.993979">
        <ele>1688.507821</ele>
        <time>2022-05-22T03:15:52.937Z</time>
      </trkpt>
      <trkpt lat="42.328770" lon="1.993828">
        <ele>1689.362142</ele>
        <time>2022-05-22T03:15:56.932Z</time>
      </trkpt>
      <trkpt lat="42.328745" lon="1.993699">
        <ele>1690.068326</ele>
        <time>2022-05-22T03:16:00.945Z</time>
      </trkpt>
      <trkpt lat="42.328762" lon="1.993568">
        <ele>1690.772626</ele>
        <time>2022-05-22T03:16:07.928Z</time>
      </trkpt>
      <trkpt lat="42.328752" lon="1.993425">
        <ele>1691.533245</ele>
        <time>2022-05-22T03:16:12.931Z</time>
      </trkpt>
      <trkpt lat="42.328725" lon="1.993300">
        <ele>1692.222840</ele>
        <time>2022-05-22T03:16:18.941Z</time>
      </trkpt>
      <trkpt lat="42.328730" lon="1.993145">
        <ele>1693.044405</ele>
        <time>2022-05-22T03:16:23.930Z</time>
      </trkpt>
      <trkpt lat="42.328768" lon="1.993017">
        <ele>1693.774821</ele>
        <time>2022-05-22T03:16:28.928Z</time>
      </trkpt>
      <trkpt lat="42.328786" lon="1.992885">
        <ele>1694.485602</ele>
        <time>2022-05-22T03:16:33.932Z</time>
      </trkpt>
      <trkpt lat="42.328840" lon="1.992774">
        <ele>1695.189234</ele>
        <time>2022-05-22T03:16:40.932Z</time>
      </trkpt>
      <trkpt lat="42.328868" lon="1.992655">
        <ele>1695.850528</ele>
        <time>2022-05-22T03:16:46.927Z</time>
      </trkpt>
      <trkpt lat="42.328904" lon="1.992540">
        <ele>1696.511839</ele>
        <time>2022-05-22T03:16:52.930Z</time>
      </trkpt>
      <trkpt lat="42.328961" lon="1.992443">
        <ele>1697.167984</ele>
        <time>2022-05-22T03:16:57.922Z</time>
      </trkpt>
      <trkpt lat="42.328955" lon="1.992317">
        <ele>1697.836582</ele>
        <time>2022-05-22T03:17:03.931Z</time>
      </trkpt>
      <trkpt lat="42.328917" lon="1.992191">
        <ele>1698.662799</ele>
        <time>2022-05-22T03:17:09.928Z</time>
      </trkpt>
      <trkpt lat="42.328914" lon="1.992069">
        <ele>1699.705706</ele>
        <time>2022-05-22T03:17:14.939Z</time>
      </trkpt>
      <trkpt lat="42.328940" lon="1.991928">
        <ele>1700.947274</ele>
        <time>2022-05-22T03:17:19.926Z</time>
      </trkpt>
      <trkpt lat="42.328969" lon="1.991812">
        <ele>1701.993474</ele>
        <time>2022-05-22T03:17:24.934Z</time>
      </trkpt>
      <trkpt lat="42.329029" lon="1.991701">
        <ele>1703.168277</ele>
        <time>2022-05-22T03:17:32.929Z</time>
      </trkpt>
      <trkpt lat="42.329057" lon="1.991560">
        <ele>1704.415638</ele>
        <time>2022-05-22T03:17:36.923Z</time>
      </trkpt>
      <trkpt lat="42.329075" lon="1.991433">
        <ele>1705.520445</ele>
        <time>2022-05-22T03:17:41.936Z</time>
      </trkpt>
      <trkpt lat="42.329092" lon="1.991301">
        <ele>1706.665194</ele>
        <time>2022-05-22T03:17:49.934Z</time>
      </trkpt>
      <trkpt lat="42.329143" lon="1.991184">
        <ele>1707.825622</ele>
        <time>2022-05-22T03:17:56.926Z</time>
      </trkpt>
      <trkpt lat="42.329196" lon="1.991082">
        <ele>1708.890792</ele>
        <time>2022-05-22T03:18:02.933Z</time>
      </trkpt>
      <trkpt lat="42.329244" lon="1.990968">
        <ele>1710.011658</ele>
        <time>2022-05-22T03:18:09.929Z</time>
      </trkpt>
      <trkpt lat="42.329258" lon="1.990830">
        <ele>1711.201730</ele>
        <time>2022-05-22T03:18:16.935Z</time>
      </trkpt>
      <trkpt lat="42.329305" lon="1.990703">
        <ele>1712.415131</ele>
        <time>2022-05-22T03:18:23.927Z</time>
      </trkpt>
      <trkpt lat="42.329350" lon="1.990580">
        <ele>1713.587637</ele>
        <time>2022-05-22T03:18:30.920Z</time>
      </trkpt>
      <trkpt lat="42.329405" lon="1.990479">
        <ele>1714.659370</ele>
        <time>2022-05-22T03:18:36.929Z</time>
      </trkpt>
      <trkpt lat="42.329455" lon="1.990369">
        <ele>1715.762597</ele>
        <time>2022-05-22T03:18:41.932Z</time>
      </trkpt>
      <trkpt lat="42.329536" lon="1.990280">
        <ele>1716.968596</ele>
        <time>2022-05-22T03:18:48.931Z</time>
      </trkpt>
      <trkpt lat="42.329622" lon="1.990196">
        <ele>1718.194488</ele>
        <time>2022-05-22T03:18:54.931Z</time>
      </trkpt>
      <trkpt lat="42.329713" lon="1.990166">
        <ele>1719.272993</ele>
        <time>2022-05-22T03:18:59.934Z</time>
      </trkpt>
      <trkpt lat="42.329768" lon="1.990062">
        <ele>1720.324867</ele>
        <time>2022-05-22T03:19:05.937Z</time>
      </trkpt>
      <trkpt lat="42.329840" lon="1.989986">
        <ele>1721.341086</ele>
        <time>2022-05-22T03:19:11.924Z</time>
      </trkpt>
      <trkpt lat="42.329915" lon="1.989911">
        <ele>1722.378912</ele>
        <time>2022-05-22T03:19:16.932Z</time>
      </trkpt>
      <trkpt lat="42.329976" lon="1.989789">
        <ele>1723.590474</ele>
        <time>2022-05-22T03:19:23.937Z</time>
      </trkpt>
      <trkpt lat="42.330053" lon="1.989697">
        <ele>1724.733641</ele>
        <time>2022-05-22T03:19:30.938Z</time>
      </trkpt>
      <trkpt lat="42.330118" lon="1.989583">
        <ele>1725.917922</ele>
        <time>2022-05-22T03:19:36.933Z</time>
      </trkpt>
      <trkpt lat="42.330166" lon="1.989464">
        <ele>1727.033049</ele>
        <time>2022-05-22T03:19:41.932Z</time>
      </trkpt>
      <trkpt lat="42.330230" lon="1.989336">
        <ele>1728.304192</ele>
        <time>2022-05-22T03:19:46.933Z</time>
      </trkpt>
      <trkpt lat="42.330277" lon="1.989232">
        <ele>1729.306886</ele>
        <time>2022-05-22T03:19:52.918Z</time>
      </trkpt>
      <trkpt lat="42.330316" lon="1.989119">
        <ele>1730.332734</ele>
        <time>2022-05-22T03:19:59.930Z</time>
      </trkpt>
      <trkpt lat="42.330350" lon="1.988984">
        <ele>1731.505920</ele>
        <time>2022-05-22T03:20:06.928Z</time>
      </trkpt>
      <trkpt lat="42.330320" lon="1.988838">
        <ele>1732.752446</ele>
        <time>2022-05-22T03:20:11.930Z</time>
      </trkpt>
      <trkpt lat="42.330301" lon="1.988698">
        <ele>1733.923333</ele>
        <time>2022-05-22T03:20:16.927Z</time>
      </trkpt>
      <trkpt lat="42.330312" lon="1.988571">
        <ele>1734.975183</ele>
        <time>2022-05-22T03:20:20.928Z</time>
      </trkpt>
      <trkpt lat="42.330282" lon="1.988455">
        <ele>1735.986106</ele>
        <time>2022-05-22T03:20:24.934Z</time>
      </trkpt>
      <trkpt lat="42.330287" lon="1.988322">
        <ele>1737.081580</ele>
        <time>2022-05-22T03:20:28.940Z</time>
      </trkpt>
      <trkpt lat="42.330277" lon="1.988198">
        <ele>1738.107658</ele>
        <time>2022-05-22T03:20:33.924Z</time>
      </trkpt>
      <trkpt lat="42.330301" lon="1.988070">
        <ele>1739.209666</ele>
        <time>2022-05-22T03:20:38.924Z</time>
      </trkpt>
      <trkpt lat="42.330304" lon="1.987932">
        <ele>1742.337564</ele>
        <time>2022-05-22T03:20:42.927Z</time>
      </trkpt>
      <trkpt lat="42.330345" lon="1.987809">
        <ele>1745.394444</ele>
        <time>2022-05-22T03:20:49.922Z</time>
      </trkpt>
      <trkpt lat="42.330434" lon="1.987733">
        <ele>1748.620005</ele>
        <time>2022-05-22T03:20:58.930Z</time>
      </trkpt>
      <trkpt lat="42.330505" lon="1.987652">
        <ele>1751.466453</ele>
        <time>2022-05-22T03:21:02.922Z</time>
      </trkpt>
      <trkpt lat="42.330573" lon="1.987563">
        <ele>1754.366228</ele>
        <time>2022-05-22T03:21:09.925Z</time>
      </trkpt>
      <trkpt lat="42.330670" lon="1.987537">
        <ele>1757.396731</ele>
        <time>2022-05-22T03:21:15.927Z</time>
      </trkpt>
      <trkpt lat="42.330743" lon="1.987461">
        <ele>1760.219815</ele>
        <time>2022-05-22T03:21:20.928Z</time>
      </trkpt>
      <trkpt lat="42.330843" lon="1.987379">
        <ele>1763.803585</ele>
        <time>2022-05-22T03:21:25.930Z</time>
      </trkpt>
      <trkpt lat="42.330921" lon="1.987301">
        <ele>1766.776289</ele>
        <time>2022-05-22T03:21:29.937Z</time>
      </trkpt>
      <trkpt lat="42.331000" lon="1.987208">
        <ele>1769.985808</ele>
        <time>2022-05-22T03:21:34.927Z</time>
      </trkpt>
      <trkpt lat="42.331048" lon="1.987076">
        <ele>1773.318594</ele>
        <time>2022-05-22T03:21:39.932Z</time>
      </trkpt>
      <trkpt lat="42.331047" lon="1.986954">
        <ele>1776.082780</ele>
        <time>2022-05-22T03:21:42.933Z</time>
      </trkpt>
      <trkpt lat="42.331050" lon="1.986817">
        <ele>1779.187994</ele>
        <time>2022-05-22T03:21:48.935Z</time>
      </trkpt>
      <trkpt lat="42.331089" lon="1.986683">
        <ele>1782.450681</ele>
        <time>2022-05-22T03:21:56.930Z</time>
      </trkpt>
      <trkpt lat="42.331118" lon="1.986552">
        <ele>1785.548809</ele>
        <time>2022-05-22T03:22:06.931Z</time>
      </trkpt>
      <trkpt lat="42.331136" lon="1.986419">
        <ele>1788.612113</ele>
        <time>2022-05-22T03:22:10.929Z</time>
      </trkpt>
      <trkpt lat="42.331167" lon="1.986300">
        <ele>1791.470649</ele>
        <time>2022-05-22T03:22:15.927Z</time>
      </trkpt>
      <trkpt lat="42.331201" lon="1.986187">
        <ele>1794.234680</ele>
        <time>2022-05-22T03:22:20.923Z</time>
      </trkpt>
      <trkpt lat="42.331237" lon="1.986059">
        <ele>1796.405951</ele>
        <time>2022-05-22T03:22:26.924Z</time>
      </trkpt>
      <trkpt lat="42.331273" lon="1.985941">
        <ele>1798.409124</ele>
        <time>2022-05-22T03:22:31.932Z</time>
      </trkpt>
      <trkpt lat="42.331291" lon="1.985800">
        <ele>1800.654482</ele>
        <time>2022-05-22T03:22:37.933Z</time>
      </trkpt>
      <trkpt lat="42.331309" lon="1.985676">
        <ele>1802.637481</ele>
        <time>2022-05-22T03:22:42.933Z</time>
      </trkpt>
      <trkpt lat="42.331317" lon="1.985555">
        <ele>1804.543823</ele>
        <time>2022-05-22T03:22:47.936Z</time>
      </trkpt>
      <trkpt lat="42.331316" lon="1.985422">
        <ele>1806.631002</ele>
        <time>2022-05-22T03:22:52.924Z</time>
      </trkpt>
      <trkpt lat="42.331305" lon="1.985296">
        <ele>1808.621967</ele>
        <time>2022-05-22T03:22:57.925Z</time>
      </trkpt>
      <trkpt lat="42.331315" lon="1.985169">
        <ele>1810.626157</ele>
        <time>2022-05-22T03:23:02.921Z</time>
      </trkpt>
      <trkpt lat="42.331338" lon="1.985041">
        <ele>1812.693248</ele>
        <time>2022-05-22T03:23:07.932Z</time>
      </trkpt>
      <trkpt lat="42.331391" lon="1.984908">
        <ele>1815.064227</ele>
        <time>2022-05-22T03:23:12.937Z</time>
      </trkpt>
      <trkpt lat="42.331448" lon="1.984789">
        <ele>1817.289318</ele>
        <time>2022-05-22T03:23:16.927Z</time>
      </trkpt>
      <trkpt lat="42.331515" lon="1.984694">
        <ele>1819.349665</ele>
        <time>2022-05-22T03:23:19.930Z</time>
      </trkpt>
      <trkpt lat="42.331533" lon="1.984568">
        <ele>1821.363462</ele>
        <time>2022-05-22T03:23:22.930Z</time>
      </trkpt>
      <trkpt lat="42.331480" lon="1.984435">
        <ele>1823.734437</ele>
        <time>2022-05-22T03:23:26.931Z</time>
      </trkpt>
      <trkpt lat="42.331434" lon="1.984315">
        <ele>1825.855609</ele>
        <time>2022-05-22T03:23:29.936Z</time>
      </trkpt>
      <trkpt lat="42.331410" lon="1.984187">
        <ele>1827.927814</ele>
        <time>2022-05-22T03:23:32.929Z</time>
      </trkpt>
      <trkpt lat="42.331405" lon="1.984055">
        <ele>1830.001907</ele>
        <time>2022-05-22T03:23:36.926Z</time>
      </trkpt>
      <trkpt lat="42.331433" lon="1.983895">
        <ele>1832.494052</ele>
        <time>2022-05-22T03:23:40.931Z</time>
      </trkpt>
      <trkpt lat="42.331447" lon="1.983764">
        <ele>1832.657386</ele>
        <time>2022-05-22T03:23:43.929Z</time>
      </trkpt>
      <trkpt lat="42.331471" lon="1.983626">
        <ele>1832.832327</ele>
        <time>2022-05-22T03:23:46.939Z</time>
      </trkpt>
      <trkpt lat="42.331482" lon="1.983490">
        <ele>1833.001152</ele>
        <time>2022-05-22T03:23:49.928Z</time>
      </trkpt>
      <trkpt lat="42.331498" lon="1.983330">
        <ele>1833.200390</ele>
        <time>2022-05-22T03:23:53.929Z</time>
      </trkpt>
      <trkpt lat="42.331500" lon="1.983204">
        <ele>1833.355909</ele>
        <time>2022-05-22T03:23:56.927Z</time>
      </trkpt>
      <trkpt lat="42.331508" lon="1.983082">
        <ele>1833.507048</ele>
        <time>2022-05-22T03:23:59.938Z</time>
      </trkpt>
      <trkpt lat="42.331518" lon="1.982953">
        <ele>1833.667106</ele>
        <time>2022-05-22T03:24:02.928Z</time>
      </trkpt>
      <trkpt lat="42.331559" lon="1.982836">
        <ele>1833.826883</ele>
        <time>2022-05-22T03:24:05.937Z</time>
      </trkpt>
      <trkpt lat="42.331594" lon="1.982709">
        <ele>1833.994136</ele>
        <time>2022-05-22T03:24:08.943Z</time>
      </trkpt>
      <trkpt lat="42.331610" lon="1.982566">
        <ele>1834.172607</ele>
        <time>2022-05-22T03:24:11.935Z</time>
      </trkpt>
      <trkpt lat="42.331628" lon="1.982408">
        <ele>1834.369880</ele>
        <time>2022-05-22T03:24:15.934Z</time>
      </trkpt>
      <trkpt lat="42.331624" lon="1.982268">
        <ele>1834.542768</ele>
        <time>2022-05-22T03:24:18.940Z</time>
      </trkpt>
      <trkpt lat="42.331642" lon="1.982097">
        <ele>1834.755910</ele>
        <time>2022-05-22T03:24:21.931Z</time>
      </trkpt>
      <trkpt lat="42.331666" lon="1.981958">
        <ele>1834.932051</ele>
        <time>2022-05-22T03:24:24.935Z</time>
      </trkpt>
      <trkpt lat="42.331680" lon="1.981811">
        <ele>1835.114947</ele>
        <time>2022-05-22T03:24:28.929Z</time>
      </trkpt>
      <trkpt lat="42.331700" lon="1.981656">
        <ele>1835.309108</ele>
        <time>2022-05-22T03:24:32.924Z</time>
      </trkpt>
      <trkpt lat="42.331666" lon="1.981509">
        <ele>1835.489768</ele>
        <time>2022-05-22T03:24:35.931Z</time>
      </trkpt>
      <trkpt lat="42.331612" lon="1.981371">
        <ele>1835.506190</ele>
        <time>2022-05-22T03:24:38.937Z</time>
      </trkpt>
      <trkpt lat="42.331563" lon="1.981235">
        <ele>1835.522102</ele>
        <time>2022-05-22T03:24:41.933Z</time>
      </trkpt>
      <trkpt lat="42.331533" lon="1.981087">
        <ele>1835.538243</ele>
        <time>2022-05-22T03:24:44.926Z</time>
      </trkpt>
      <trkpt lat="42.331493" lon="1.980950">
        <ele>1835.553735</ele>
        <time>2022-05-22T03:24:47.932Z</time>
      </trkpt>
      <trkpt lat="42.331436" lon="1.980787">
        <ele>1835.572699</ele>
        <time>2022-05-22T03:24:50.935Z</time>
      </trkpt>
      <trkpt lat="42.331369" lon="1.980656">
        <ele>1835.589453</ele>
        <time>2022-05-22T03:24:53.937Z</time>
      </trkpt>
      <trkpt lat="42.331328" lon="1.980511">
        <ele>1835.605781</ele>
        <time>2022-05-22T03:24:56.933Z</time>
      </trkpt>
      <trkpt lat="42.331321" lon="1.980373">
        <ele>1835.620330</ele>
        <time>2022-05-22T03:24:59.932Z</time>
      </trkpt>
      <trkpt lat="42.331329" lon="1.980237">
        <ele>1835.634679</ele>
        <time>2022-05-22T03:25:02.939Z</time>
      </trkpt>
      <trkpt lat="42.331389" lon="1.980102">
        <ele>1835.651246</ele>
        <time>2022-05-22T03:25:05.932Z</time>
      </trkpt>
      <trkpt lat="42.331473" lon="1.979985">
        <ele>1835.668399</ele>
        <time>2022-05-22T03:25:08.934Z</time>
      </trkpt>
      <trkpt lat="42.331553" lon="1.979866">
        <ele>1835.685316</ele>
        <time>2022-05-22T03:25:11.933Z</time>
      </trkpt>
      <trkpt lat="42.331609" lon="1.979762">
        <ele>1835.698849</ele>
        <time>2022-05-22T03:25:14.934Z</time>
      </trkpt>
      <trkpt lat="42.331673" lon="1.979645">
        <ele>1835.714156</ele>
        <time>2022-05-22T03:25:17.928Z</time>
      </trkpt>
      <trkpt lat="42.331765" lon="1.979531">
        <ele>1835.731907</ele>
        <time>2022-05-22T03:25:20.929Z</time>
      </trkpt>
      <trkpt lat="42.331849" lon="1.979472">
        <ele>1835.750525</ele>
        <time>2022-05-22T03:25:22.934Z</time>
      </trkpt>
      <trkpt lat="42.331936" lon="1.979402">
        <ele>1835.891290</ele>
        <time>2022-05-22T03:25:25.936Z</time>
      </trkpt>
      <trkpt lat="42.332032" lon="1.979298">
        <ele>1836.062321</ele>
        <time>2022-05-22T03:25:29.929Z</time>
      </trkpt>
      <trkpt lat="42.332108" lon="1.979160">
        <ele>1836.239223</ele>
        <time>2022-05-22T03:25:32.936Z</time>
      </trkpt>
      <trkpt lat="42.332164" lon="1.979061">
        <ele>1836.367370</ele>
        <time>2022-05-22T03:25:34.932Z</time>
      </trkpt>
      <trkpt lat="42.332206" lon="1.978945">
        <ele>1836.500152</ele>
        <time>2022-05-22T03:25:36.934Z</time>
      </trkpt>
      <trkpt lat="42.332250" lon="1.978828">
        <ele>1836.635096</ele>
        <time>2022-05-22T03:25:38.933Z</time>
      </trkpt>
      <trkpt lat="42.332260" lon="1.978706">
        <ele>1836.761280</ele>
        <time>2022-05-22T03:25:40.934Z</time>
      </trkpt>
      <trkpt lat="42.332261" lon="1.978553">
        <ele>1836.918570</ele>
        <time>2022-05-22T03:25:43.936Z</time>
      </trkpt>
      <trkpt lat="42.332266" lon="1.978394">
        <ele>1837.082169</ele>
        <time>2022-05-22T03:25:46.930Z</time>
      </trkpt>
      <trkpt lat="42.332251" lon="1.978210">
        <ele>1837.272466</ele>
        <time>2022-05-22T03:25:49.929Z</time>
      </trkpt>
      <trkpt lat="42.332208" lon="1.978040">
        <ele>1837.457172</ele>
        <time>2022-05-22T03:25:52.924Z</time>
      </trkpt>
      <trkpt lat="42.332152" lon="1.977934">
        <ele>1837.591106</ele>
        <time>2022-05-22T03:25:54.926Z</time>
      </trkpt>
      <trkpt lat="42.332084" lon="1.977778">
        <ele>1837.777276</ele>
        <time>2022-05-22T03:25:57.944Z</time>
      </trkpt>
      <trkpt lat="42.332014" lon="1.977673">
        <ele>1837.922625</ele>
        <time>2022-05-22T03:26:00.934Z</time>
      </trkpt>
      <trkpt lat="42.331917" lon="1.977601">
        <ele>1838.076485</ele>
        <time>2022-05-22T03:26:03.918Z</time>
      </trkpt>
      <trkpt lat="42.331824" lon="1.977493">
        <ele>1838.250702</ele>
        <time>2022-05-22T03:26:06.919Z</time>
      </trkpt>
      <trkpt lat="42.331765" lon="1.977402">
        <ele>1838.858066</ele>
        <time>2022-05-22T03:26:08.932Z</time>
      </trkpt>
      <trkpt lat="42.331681" lon="1.977276">
        <ele>1839.709441</ele>
        <time>2022-05-22T03:26:11.924Z</time>
      </trkpt>
      <trkpt lat="42.331603" lon="1.977157">
        <ele>1840.507486</ele>
        <time>2022-05-22T03:26:14.931Z</time>
      </trkpt>
      <trkpt lat="42.331537" lon="1.977029">
        <ele>1841.290579</ele>
        <time>2022-05-22T03:26:17.931Z</time>
      </trkpt>
      <trkpt lat="42.331468" lon="1.976897">
        <ele>1842.101802</ele>
        <time>2022-05-22T03:26:20.931Z</time>
      </trkpt>
      <trkpt lat="42.331403" lon="1.976755">
        <ele>1842.939883</ele>
        <time>2022-05-22T03:26:23.936Z</time>
      </trkpt>
      <trkpt lat="42.331336" lon="1.976610">
        <ele>1843.797917</ele>
        <time>2022-05-22T03:26:26.927Z</time>
      </trkpt>
      <trkpt lat="42.331275" lon="1.976459">
        <ele>1844.661375</ele>
        <time>2022-05-22T03:26:29.931Z</time>
      </trkpt>
      <trkpt lat="42.331198" lon="1.976369">
        <ele>1845.352117</ele>
        <time>2022-05-22T03:26:32.930Z</time>
      </trkpt>
      <trkpt lat="42.331141" lon="1.976249">
        <ele>1846.067855</ele>
        <time>2022-05-22T03:26:35.932Z</time>
      </trkpt>
      <trkpt lat="42.331084" lon="1.976107">
        <ele>1846.878668</ele>
        <time>2022-05-22T03:26:38.931Z</time>
      </trkpt>
      <trkpt lat="42.331036" lon="1.975962">
        <ele>1847.675887</ele>
        <time>2022-05-22T03:26:41.928Z</time>
      </trkpt>
      <trkpt lat="42.331012" lon="1.975799">
        <ele>1848.509878</ele>
        <time>2022-05-22T03:26:44.934Z</time>
      </trkpt>
      <trkpt lat="42.330995" lon="1.975641">
        <ele>1849.311067</ele>
        <time>2022-05-22T03:26:47.926Z</time>
      </trkpt>
      <trkpt lat="42.330994" lon="1.975475">
        <ele>1850.144075</ele>
        <time>2022-05-22T03:26:50.935Z</time>
      </trkpt>
      <trkpt lat="42.331011" lon="1.975350">
        <ele>1850.721269</ele>
        <time>2022-05-22T03:26:52.928Z</time>
      </trkpt>
      <trkpt lat="42.331021" lon="1.975227">
        <ele>1851.227230</ele>
        <time>2022-05-22T03:26:54.934Z</time>
      </trkpt>
      <trkpt lat="42.331020" lon="1.975091">
        <ele>1851.783342</ele>
        <time>2022-05-22T03:26:56.926Z</time>
      </trkpt>
      <trkpt lat="42.331019" lon="1.974958">
        <ele>1852.327187</ele>
        <time>2022-05-22T03:26:58.939Z</time>
      </trkpt>
      <trkpt lat="42.331025" lon="1.974833">
        <ele>1852.839370</ele>
        <time>2022-05-22T03:27:00.937Z</time>
      </trkpt>
      <trkpt lat="42.331022" lon="1.974698">
        <ele>1853.391614</ele>
        <time>2022-05-22T03:27:02.930Z</time>
      </trkpt>
      <trkpt lat="42.331010" lon="1.974508">
        <ele>1854.171326</ele>
        <time>2022-05-22T03:27:05.929Z</time>
      </trkpt>
      <trkpt lat="42.330981" lon="1.974334">
        <ele>1854.900643</ele>
        <time>2022-05-22T03:27:08.935Z</time>
      </trkpt>
      <trkpt lat="42.330959" lon="1.974216">
        <ele>1855.398236</ele>
        <time>2022-05-22T03:27:10.930Z</time>
      </trkpt>
      <trkpt lat="42.330936" lon="1.974043">
        <ele>1856.116956</ele>
        <time>2022-05-22T03:27:13.932Z</time>
      </trkpt>
      <trkpt lat="42.330911" lon="1.973881">
        <ele>1856.793629</ele>
        <time>2022-05-22T03:27:16.938Z</time>
      </trkpt>
      <trkpt lat="42.330888" lon="1.973715">
        <ele>1857.484198</ele>
        <time>2022-05-22T03:27:19.934Z</time>
      </trkpt>
      <trkpt lat="42.330873" lon="1.973595">
        <ele>1857.981826</ele>
        <time>2022-05-22T03:27:21.930Z</time>
      </trkpt>
      <trkpt lat="42.330847" lon="1.973472">
        <ele>1858.504912</ele>
        <time>2022-05-22T03:27:23.937Z</time>
      </trkpt>
      <trkpt lat="42.330826" lon="1.973351">
        <ele>1859.013115</ele>
        <time>2022-05-22T03:27:25.925Z</time>
      </trkpt>
      <trkpt lat="42.330795" lon="1.973227">
        <ele>1859.548341</ele>
        <time>2022-05-22T03:27:27.936Z</time>
      </trkpt>
      <trkpt lat="42.330745" lon="1.973061">
        <ele>1860.281269</ele>
        <time>2022-05-22T03:27:30.924Z</time>
      </trkpt>
      <trkpt lat="42.330710" lon="1.972946">
        <ele>1860.621980</ele>
        <time>2022-05-22T03:27:32.963Z</time>
      </trkpt>
      <trkpt lat="42.330648" lon="1.972784">
        <ele>1861.044362</ele>
        <time>2022-05-22T03:27:35.933Z</time>
      </trkpt>
      <trkpt lat="42.330605" lon="1.972667">
        <ele>1861.346897</ele>
        <time>2022-05-22T03:27:37.922Z</time>
      </trkpt>
      <trkpt lat="42.330572" lon="1.972548">
        <ele>1861.641180</ele>
        <time>2022-05-22T03:27:39.935Z</time>
      </trkpt>
      <trkpt lat="42.330526" lon="1.972441">
        <ele>1861.927777</ele>
        <time>2022-05-22T03:27:41.955Z</time>
      </trkpt>
      <trkpt lat="42.330484" lon="1.972329">
        <ele>1862.218561</ele>
        <time>2022-05-22T03:27:43.933Z</time>
      </trkpt>
      <trkpt lat="42.330446" lon="1.972218">
        <ele>1862.501793</ele>
        <time>2022-05-22T03:27:45.939Z</time>
      </trkpt>
      <trkpt lat="42.330379" lon="1.972064">
        <ele>1862.915535</ele>
        <time>2022-05-22T03:27:48.927Z</time>
      </trkpt>
      <trkpt lat="42.330320" lon="1.971898">
        <ele>1863.342011</ele>
        <time>2022-05-22T03:27:51.928Z</time>
      </trkpt>
      <trkpt lat="42.330281" lon="1.971786">
        <ele>1863.628667</ele>
        <time>2022-05-22T03:27:53.924Z</time>
      </trkpt>
      <trkpt lat="42.330245" lon="1.971614">
        <ele>1864.042576</ele>
        <time>2022-05-22T03:27:56.934Z</time>
      </trkpt>
      <trkpt lat="42.330201" lon="1.971440">
        <ele>1864.468380</ele>
        <time>2022-05-22T03:27:59.956Z</time>
      </trkpt>
      <trkpt lat="42.330179" lon="1.971317">
        <ele>1864.761396</ele>
        <time>2022-05-22T03:28:01.938Z</time>
      </trkpt>
      <trkpt lat="42.330153" lon="1.971135">
        <ele>1865.190602</ele>
        <time>2022-05-22T03:28:04.955Z</time>
      </trkpt>
      <trkpt lat="42.330146" lon="1.971013">
        <ele>1865.473936</ele>
        <time>2022-05-22T03:28:06.937Z</time>
      </trkpt>
      <trkpt lat="42.330126" lon="1.970844">
        <ele>1865.870227</ele>
        <time>2022-05-22T03:28:09.935Z</time>
      </trkpt>
      <trkpt lat="42.330113" lon="1.970719">
        <ele>1865.950177</ele>
        <time>2022-05-22T03:28:11.952Z</time>
      </trkpt>
      <trkpt lat="42.330113" lon="1.970582">
        <ele>1865.733645</ele>
        <time>2022-05-22T03:28:13.918Z</time>
      </trkpt>
      <trkpt lat="42.330117" lon="1.970453">
        <ele>1865.529578</ele>
        <time>2022-05-22T03:28:15.946Z</time>
      </trkpt>
      <trkpt lat="42.330118" lon="1.970324">
        <ele>1865.325680</ele>
        <time>2022-05-22T03:28:17.937Z</time>
      </trkpt>
      <trkpt lat="42.330129" lon="1.970181">
        <ele>1865.098444</ele>
        <time>2022-05-22T03:28:19.931Z</time>
      </trkpt>
      <trkpt lat="42.330150" lon="1.970033">
        <ele>1864.860257</ele>
        <time>2022-05-22T03:28:21.932Z</time>
      </trkpt>
      <trkpt lat="42.330176" lon="1.969893">
        <ele>1864.632109</ele>
        <time>2022-05-22T03:28:23.935Z</time>
      </trkpt>
      <trkpt lat="42.330203" lon="1.969744">
        <ele>1864.389639</ele>
        <time>2022-05-22T03:28:25.930Z</time>
      </trkpt>
      <trkpt lat="42.330236" lon="1.969600">
        <ele>1864.151360</ele>
        <time>2022-05-22T03:28:27.930Z</time>
      </trkpt>
      <trkpt lat="42.330262" lon="1.969436">
        <ele>1863.886261</ele>
        <time>2022-05-22T03:28:29.956Z</time>
      </trkpt>
      <trkpt lat="42.330291" lon="1.969274">
        <ele>1863.622817</ele>
        <time>2022-05-22T03:28:31.931Z</time>
      </trkpt>
      <trkpt lat="42.330324" lon="1.969111">
        <ele>1863.355706</ele>
        <time>2022-05-22T03:28:33.923Z</time>
      </trkpt>
      <trkpt lat="42.330360" lon="1.968952">
        <ele>1863.092882</ele>
        <time>2022-05-22T03:28:35.925Z</time>
      </trkpt>
      <trkpt lat="42.330393" lon="1.968797">
        <ele>1862.837945</ele>
        <time>2022-05-22T03:28:37.935Z</time>
      </trkpt>
      <trkpt lat="42.330419" lon="1.968637">
        <ele>1862.579025</ele>
        <time>2022-05-22T03:28:39.927Z</time>
      </trkpt>
      <trkpt lat="42.330447" lon="1.968484">
        <ele>1862.329906</ele>
        <time>2022-05-22T03:28:41.939Z</time>
      </trkpt>
      <trkpt lat="42.330465" lon="1.968327">
        <ele>1862.194798</ele>
        <time>2022-05-22T03:28:43.927Z</time>
      </trkpt>
      <trkpt lat="42.330479" lon="1.968164">
        <ele>1862.203725</ele>
        <time>2022-05-22T03:28:45.926Z</time>
      </trkpt>
      <trkpt lat="42.330481" lon="1.968002">
        <ele>1862.212540</ele>
        <time>2022-05-22T03:28:47.936Z</time>
      </trkpt>
      <trkpt lat="42.330472" lon="1.967855">
        <ele>1862.220565</ele>
        <time>2022-05-22T03:28:49.934Z</time>
      </trkpt>
      <trkpt lat="42.330467" lon="1.967701">
        <ele>1862.228951</ele>
        <time>2022-05-22T03:28:51.932Z</time>
      </trkpt>
      <trkpt lat="42.330464" lon="1.967534">
        <ele>1862.238040</ele>
        <time>2022-05-22T03:28:53.930Z</time>
      </trkpt>
      <trkpt lat="42.330476" lon="1.967370">
        <ele>1862.247006</ele>
        <time>2022-05-22T03:28:55.931Z</time>
      </trkpt>
      <trkpt lat="42.330502" lon="1.967223">
        <ele>1862.255229</ele>
        <time>2022-05-22T03:28:57.929Z</time>
      </trkpt>
      <trkpt lat="42.330522" lon="1.967085">
        <ele>1862.262879</ele>
        <time>2022-05-22T03:28:59.931Z</time>
      </trkpt>
      <trkpt lat="42.330544" lon="1.966959">
        <ele>1862.269923</ele>
        <time>2022-05-22T03:29:01.933Z</time>
      </trkpt>
      <trkpt lat="42.330572" lon="1.966839">
        <ele>1862.276769</ele>
        <time>2022-05-22T03:29:03.919Z</time>
      </trkpt>
      <trkpt lat="42.330620" lon="1.966672">
        <ele>1862.286517</ele>
        <time>2022-05-22T03:29:06.930Z</time>
      </trkpt>
      <trkpt lat="42.330655" lon="1.966558">
        <ele>1862.293233</ele>
        <time>2022-05-22T03:29:08.928Z</time>
      </trkpt>
      <trkpt lat="42.330715" lon="1.966394">
        <ele>1862.303188</ele>
        <time>2022-05-22T03:29:11.937Z</time>
      </trkpt>
      <trkpt lat="42.330767" lon="1.966258">
        <ele>1862.311518</ele>
        <time>2022-05-22T03:29:14.943Z</time>
      </trkpt>
      <trkpt lat="42.330829" lon="1.966141">
        <ele>1862.319350</ele>
        <time>2022-05-22T03:29:17.948Z</time>
      </trkpt>
      <trkpt lat="42.330892" lon="1.965992">
        <ele>1862.316760</ele>
        <time>2022-05-22T03:29:20.937Z</time>
      </trkpt>
      <trkpt lat="42.330938" lon="1.965827">
        <ele>1862.305101</ele>
        <time>2022-05-22T03:29:23.937Z</time>
      </trkpt>
      <trkpt lat="42.330977" lon="1.965716">
        <ele>1862.296975</ele>
        <time>2022-05-22T03:29:25.937Z</time>
      </trkpt>
      <trkpt lat="42.331010" lon="1.965601">
        <ele>1862.288819</ele>
        <time>2022-05-22T03:29:27.938Z</time>
      </trkpt>
      <trkpt lat="42.331056" lon="1.965440">
        <ele>1862.277408</ele>
        <time>2022-05-22T03:29:30.940Z</time>
      </trkpt>
      <trkpt lat="42.331095" lon="1.965275">
        <ele>1862.265955</ele>
        <time>2022-05-22T03:29:33.937Z</time>
      </trkpt>
      <trkpt lat="42.331116" lon="1.965106">
        <ele>1862.254625</ele>
        <time>2022-05-22T03:29:36.938Z</time>
      </trkpt>
      <trkpt lat="42.331127" lon="1.964930">
        <ele>1862.242947</ele>
        <time>2022-05-22T03:29:39.932Z</time>
      </trkpt>
      <trkpt lat="42.331133" lon="1.964749">
        <ele>1862.230968</ele>
        <time>2022-05-22T03:29:42.933Z</time>
      </trkpt>
      <trkpt lat="42.331119" lon="1.964573">
        <ele>1862.219265</ele>
        <time>2022-05-22T03:29:45.940Z</time>
      </trkpt>
      <trkpt lat="42.331108" lon="1.964449">
        <ele>1862.211008</ele>
        <time>2022-05-22T03:29:47.939Z</time>
      </trkpt>
      <trkpt lat="42.331101" lon="1.964271">
        <ele>1862.199223</ele>
        <time>2022-05-22T03:29:50.943Z</time>
      </trkpt>
      <trkpt lat="42.331072" lon="1.964110">
        <ele>1862.188267</ele>
        <time>2022-05-22T03:29:53.942Z</time>
      </trkpt>
      <trkpt lat="42.331044" lon="1.963962">
        <ele>1862.178167</ele>
        <time>2022-05-22T03:29:56.933Z</time>
      </trkpt>
      <trkpt lat="42.331003" lon="1.963813">
        <ele>1862.167655</ele>
        <time>2022-05-22T03:29:59.934Z</time>
      </trkpt>
      <trkpt lat="42.330960" lon="1.963674">
        <ele>1862.148006</ele>
        <time>2022-05-22T03:30:02.945Z</time>
      </trkpt>
      <trkpt lat="42.330928" lon="1.963520">
        <ele>1862.115872</ele>
        <time>2022-05-22T03:30:05.936Z</time>
      </trkpt>
      <trkpt lat="42.330900" lon="1.963355">
        <ele>1862.081864</ele>
        <time>2022-05-22T03:30:08.945Z</time>
      </trkpt>
      <trkpt lat="42.330861" lon="1.963187">
        <ele>1862.046492</ele>
        <time>2022-05-22T03:30:11.935Z</time>
      </trkpt>
      <trkpt lat="42.330822" lon="1.963032">
        <ele>1862.013601</ele>
        <time>2022-05-22T03:30:14.932Z</time>
      </trkpt>
      <trkpt lat="42.330766" lon="1.962892">
        <ele>1861.981625</ele>
        <time>2022-05-22T03:30:17.937Z</time>
      </trkpt>
      <trkpt lat="42.330715" lon="1.962749">
        <ele>1861.949731</ele>
        <time>2022-05-22T03:30:20.941Z</time>
      </trkpt>
      <trkpt lat="42.330671" lon="1.962620">
        <ele>1861.921193</ele>
        <time>2022-05-22T03:30:23.938Z</time>
      </trkpt>
      <trkpt lat="42.330608" lon="1.962497">
        <ele>1861.891133</ele>
        <time>2022-05-22T03:30:26.935Z</time>
      </trkpt>
      <trkpt lat="42.330529" lon="1.962391">
        <ele>1861.860897</ele>
        <time>2022-05-22T03:30:29.936Z</time>
      </trkpt>
      <trkpt lat="42.330466" lon="1.962275">
        <ele>1861.831983</ele>
        <time>2022-05-22T03:30:32.941Z</time>
      </trkpt>
      <trkpt lat="42.330395" lon="1.962177">
        <ele>1861.804419</ele>
        <time>2022-05-22T03:30:35.946Z</time>
      </trkpt>
      <trkpt lat="42.330314" lon="1.962092">
        <ele>1861.776562</ele>
        <time>2022-05-22T03:30:38.943Z</time>
      </trkpt>
      <trkpt lat="42.330236" lon="1.962012">
        <ele>1861.749964</ele>
        <time>2022-05-22T03:30:41.938Z</time>
      </trkpt>
      <trkpt lat="42.330161" lon="1.961929">
        <ele>1861.723633</ele>
        <time>2022-05-22T03:30:44.940Z</time>
      </trkpt>
      <trkpt lat="42.330073" lon="1.961819">
        <ele>1861.691074</ele>
        <time>2022-05-22T03:30:48.936Z</time>
      </trkpt>
      <trkpt lat="42.329967" lon="1.961727">
        <ele>1861.796100</ele>
        <time>2022-05-22T03:30:51.930Z</time>
      </trkpt>
      <trkpt lat="42.329857" lon="1.961654">
        <ele>1862.037911</ele>
        <time>2022-05-22T03:30:54.933Z</time>
      </trkpt>
      <trkpt lat="42.329774" lon="1.961561">
        <ele>1862.250617</ele>
        <time>2022-05-22T03:30:57.940Z</time>
      </trkpt>
      <trkpt lat="42.329682" lon="1.961465">
        <ele>1862.479932</ele>
        <time>2022-05-22T03:31:00.935Z</time>
      </trkpt>
      <trkpt lat="42.329572" lon="1.961381">
        <ele>1862.729229</ele>
        <time>2022-05-22T03:31:03.928Z</time>
      </trkpt>
      <trkpt lat="42.329473" lon="1.961299">
        <ele>1862.958332</ele>
        <time>2022-05-22T03:31:06.942Z</time>
      </trkpt>
      <trkpt lat="42.329390" lon="1.961217">
        <ele>1863.161177</ele>
        <time>2022-05-22T03:31:09.934Z</time>
      </trkpt>
      <trkpt lat="42.329282" lon="1.961124">
        <ele>1863.413847</ele>
        <time>2022-05-22T03:31:12.930Z</time>
      </trkpt>
      <trkpt lat="42.329163" lon="1.961048">
        <ele>1863.673562</ele>
        <time>2022-05-22T03:31:15.943Z</time>
      </trkpt>
      <trkpt lat="42.329084" lon="1.960960">
        <ele>1863.875537</ele>
        <time>2022-05-22T03:31:18.925Z</time>
      </trkpt>
      <trkpt lat="42.328991" lon="1.960884">
        <ele>1864.089974</ele>
        <time>2022-05-22T03:31:21.929Z</time>
      </trkpt>
      <trkpt lat="42.328919" lon="1.960805">
        <ele>1864.272941</ele>
        <time>2022-05-22T03:31:24.926Z</time>
      </trkpt>
      <trkpt lat="42.328840" lon="1.960736">
        <ele>1864.458531</ele>
        <time>2022-05-22T03:31:27.924Z</time>
      </trkpt>
      <trkpt lat="42.328750" lon="1.960670">
        <ele>1864.660576</ele>
        <time>2022-05-22T03:31:30.923Z</time>
      </trkpt>
      <trkpt lat="42.328670" lon="1.960586">
        <ele>1864.860447</ele>
        <time>2022-05-22T03:31:33.926Z</time>
      </trkpt>
      <trkpt lat="42.328585" lon="1.960509">
        <ele>1865.062345</ele>
        <time>2022-05-22T03:31:36.929Z</time>
      </trkpt>
      <trkpt lat="42.328506" lon="1.960415">
        <ele>1865.259664</ele>
        <time>2022-05-22T03:31:39.933Z</time>
      </trkpt>
      <trkpt lat="42.328422" lon="1.960322">
        <ele>1865.426361</ele>
        <time>2022-05-22T03:31:42.926Z</time>
      </trkpt>
      <trkpt lat="42.328337" lon="1.960232">
        <ele>1865.592129</ele>
        <time>2022-05-22T03:31:45.924Z</time>
      </trkpt>
      <trkpt lat="42.328258" lon="1.960155">
        <ele>1865.741661</ele>
        <time>2022-05-22T03:31:48.928Z</time>
      </trkpt>
      <trkpt lat="42.328164" lon="1.960078">
        <ele>1865.910421</ele>
        <time>2022-05-22T03:31:51.929Z</time>
      </trkpt>
      <trkpt lat="42.328053" lon="1.959997">
        <ele>1866.104103</ele>
        <time>2022-05-22T03:31:54.927Z</time>
      </trkpt>
      <trkpt lat="42.327938" lon="1.959910">
        <ele>1866.306449</ele>
        <time>2022-05-22T03:31:57.933Z</time>
      </trkpt>
      <trkpt lat="42.327836" lon="1.959866">
        <ele>1866.470860</ele>
        <time>2022-05-22T03:32:00.927Z</time>
      </trkpt>
      <trkpt lat="42.327713" lon="1.959860">
        <ele>1866.659869</ele>
        <time>2022-05-22T03:32:03.927Z</time>
      </trkpt>
      <trkpt lat="42.327605" lon="1.959843">
        <ele>1866.826840</ele>
        <time>2022-05-22T03:32:06.928Z</time>
      </trkpt>
      <trkpt lat="42.327501" lon="1.959809">
        <ele>1866.991148</ele>
        <time>2022-05-22T03:32:09.918Z</time>
      </trkpt>
      <trkpt lat="42.327402" lon="1.959752">
        <ele>1867.156378</ele>
        <time>2022-05-22T03:32:13.936Z</time>
      </trkpt>
      <trkpt lat="42.327316" lon="1.959704">
        <ele>1867.299247</ele>
        <time>2022-05-22T03:32:17.932Z</time>
      </trkpt>
      <trkpt lat="42.327232" lon="1.959656">
        <ele>1867.439282</ele>
        <time>2022-05-22T03:32:21.938Z</time>
      </trkpt>
      <trkpt lat="42.327142" lon="1.959613">
        <ele>1867.585860</ele>
        <time>2022-05-22T03:32:25.944Z</time>
      </trkpt>
      <trkpt lat="42.327049" lon="1.959572">
        <ele>1867.736072</ele>
        <time>2022-05-22T03:32:29.938Z</time>
      </trkpt>
      <trkpt lat="42.326953" lon="1.959545">
        <ele>1867.886648</ele>
        <time>2022-05-22T03:32:34.931Z</time>
      </trkpt>
      <trkpt lat="42.326852" lon="1.959510">
        <ele>1868.344925</ele>
        <time>2022-05-22T03:32:39.941Z</time>
      </trkpt>
      <trkpt lat="42.326748" lon="1.959508">
        <ele>1869.282664</ele>
        <time>2022-05-22T03:32:44.923Z</time>
      </trkpt>
      <trkpt lat="42.326653" lon="1.959488">
        <ele>1870.149479</ele>
        <time>2022-05-22T03:32:49.934Z</time>
      </trkpt>
      <trkpt lat="42.326556" lon="1.959487">
        <ele>1871.024039</ele>
        <time>2022-05-22T03:32:54.936Z</time>
      </trkpt>
      <trkpt lat="42.326458" lon="1.959515">
        <ele>1871.927086</ele>
        <time>2022-05-22T03:32:59.936Z</time>
      </trkpt>
      <trkpt lat="42.326359" lon="1.959545">
        <ele>1872.841777</ele>
        <time>2022-05-22T03:33:04.936Z</time>
      </trkpt>
      <trkpt lat="42.326261" lon="1.959576">
        <ele>1873.749168</ele>
        <time>2022-05-22T03:33:09.936Z</time>
      </trkpt>
      <trkpt lat="42.326172" lon="1.959603">
        <ele>1874.571511</ele>
        <time>2022-05-22T03:33:13.927Z</time>
      </trkpt>
      <trkpt lat="42.326073" lon="1.959649">
        <ele>1875.515274</ele>
        <time>2022-05-22T03:33:18.940Z</time>
      </trkpt>
      <trkpt lat="42.325975" lon="1.959685">
        <ele>1876.430830</ele>
        <time>2022-05-22T03:33:23.947Z</time>
      </trkpt>
      <trkpt lat="42.325867" lon="1.959726">
        <ele>1877.442163</ele>
        <time>2022-05-22T03:33:28.941Z</time>
      </trkpt>
      <trkpt lat="42.325778" lon="1.959761">
        <ele>1878.277798</ele>
        <time>2022-05-22T03:33:32.938Z</time>
      </trkpt>
      <trkpt lat="42.325690" lon="1.959791">
        <ele>1879.096003</ele>
        <time>2022-05-22T03:33:36.947Z</time>
      </trkpt>
      <trkpt lat="42.325578" lon="1.959827">
        <ele>1880.133895</ele>
        <time>2022-05-22T03:33:41.945Z</time>
      </trkpt>
      <trkpt lat="42.325468" lon="1.959863">
        <ele>1881.154254</ele>
        <time>2022-05-22T03:33:46.943Z</time>
      </trkpt>
      <trkpt lat="42.325361" lon="1.959896">
        <ele>1882.143706</ele>
        <time>2022-05-22T03:33:51.939Z</time>
      </trkpt>
      <trkpt lat="42.325276" lon="1.959941">
        <ele>1882.966663</ele>
        <time>2022-05-22T03:33:55.930Z</time>
      </trkpt>
      <trkpt lat="42.325174" lon="1.959979">
        <ele>1883.920523</ele>
        <time>2022-05-22T03:33:59.937Z</time>
      </trkpt>
      <trkpt lat="42.325082" lon="1.960026">
        <ele>1884.321688</ele>
        <time>2022-05-22T03:34:03.937Z</time>
      </trkpt>
      <trkpt lat="42.324969" lon="1.960083">
        <ele>1884.537047</ele>
        <time>2022-05-22T03:34:07.946Z</time>
      </trkpt>
      <trkpt lat="42.324892" lon="1.960147">
        <ele>1884.698432</ele>
        <time>2022-05-22T03:34:10.941Z</time>
      </trkpt>
      <trkpt lat="42.324818" lon="1.960219">
        <ele>1884.861211</ele>
        <time>2022-05-22T03:34:13.940Z</time>
      </trkpt>
      <trkpt lat="42.324735" lon="1.960294">
        <ele>1885.039457</ele>
        <time>2022-05-22T03:34:16.941Z</time>
      </trkpt>
      <trkpt lat="42.324646" lon="1.960379">
        <ele>1885.234010</ele>
        <time>2022-05-22T03:34:19.956Z</time>
      </trkpt>
      <trkpt lat="42.324539" lon="1.960449">
        <ele>1885.446255</ele>
        <time>2022-05-22T03:34:22.937Z</time>
      </trkpt>
      <trkpt lat="42.324430" lon="1.960543">
        <ele>1885.677093</ele>
        <time>2022-05-22T03:34:25.938Z</time>
      </trkpt>
      <trkpt lat="42.324340" lon="1.960603">
        <ele>1885.856267</ele>
        <time>2022-05-22T03:34:27.938Z</time>
      </trkpt>
      <trkpt lat="42.324246" lon="1.960660">
        <ele>1886.040220</ele>
        <time>2022-05-22T03:34:29.942Z</time>
      </trkpt>
      <trkpt lat="42.324144" lon="1.960728">
        <ele>1886.243284</ele>
        <time>2022-05-22T03:34:31.942Z</time>
      </trkpt>
      <trkpt lat="42.324041" lon="1.960809">
        <ele>1886.456039</ele>
        <time>2022-05-22T03:34:33.932Z</time>
      </trkpt>
      <trkpt lat="42.323935" lon="1.960891">
        <ele>1886.674095</ele>
        <time>2022-05-22T03:34:35.928Z</time>
      </trkpt>
      <trkpt lat="42.323831" lon="1.960967">
        <ele>1886.885180</ele>
        <time>2022-05-22T03:34:37.938Z</time>
      </trkpt>
      <trkpt lat="42.323721" lon="1.961057">
        <ele>1887.114749</ele>
        <time>2022-05-22T03:34:39.942Z</time>
      </trkpt>
      <trkpt lat="42.323608" lon="1.961130">
        <ele>1887.338368</ele>
        <time>2022-05-22T03:34:41.946Z</time>
      </trkpt>
      <trkpt lat="42.323500" lon="1.961201">
        <ele>1886.990600</ele>
        <time>2022-05-22T03:34:43.940Z</time>
      </trkpt>
      <trkpt lat="42.323392" lon="1.961280">
        <ele>1886.324292</ele>
        <time>2022-05-22T03:34:45.936Z</time>
      </trkpt>
      <trkpt lat="42.323283" lon="1.961371">
        <ele>1885.629168</ele>
        <time>2022-05-22T03:34:47.940Z</time>
      </trkpt>
      <trkpt lat="42.323130" lon="1.961510">
        <ele>1884.628959</ele>
        <time>2022-05-22T03:34:50.939Z</time>
      </trkpt>
      <trkpt lat="42.323035" lon="1.961620">
        <ele>1883.950305</ele>
        <time>2022-05-22T03:34:52.933Z</time>
      </trkpt>
      <trkpt lat="42.322929" lon="1.961716">
        <ele>1883.258021</ele>
        <time>2022-05-22T03:34:54.938Z</time>
      </trkpt>
      <trkpt lat="42.322834" lon="1.961827">
        <ele>1882.576749</ele>
        <time>2022-05-22T03:34:56.938Z</time>
      </trkpt>
      <trkpt lat="42.322743" lon="1.961933">
        <ele>1881.925018</ele>
        <time>2022-05-22T03:34:58.932Z</time>
      </trkpt>
      <trkpt lat="42.322671" lon="1.962014">
        <ele>1881.416796</ele>
        <time>2022-05-22T03:35:01.944Z</time>
      </trkpt>
      <trkpt lat="42.322599" lon="1.962122">
        <ele>1880.833323</ele>
        <time>2022-05-22T03:35:40.943Z</time>
      </trkpt>
      <trkpt lat="42.322535" lon="1.962225">
        <ele>1880.293493</ele>
        <time>2022-05-22T03:35:43.955Z</time>
      </trkpt>
      <trkpt lat="42.322473" lon="1.962369">
        <ele>1879.624891</ele>
        <time>2022-05-22T03:35:46.942Z</time>
      </trkpt>
      <trkpt lat="42.322423" lon="1.962487">
        <ele>1879.079196</ele>
        <time>2022-05-22T03:35:48.934Z</time>
      </trkpt>
      <trkpt lat="42.322367" lon="1.962607">
        <ele>1878.509830</ele>
        <time>2022-05-22T03:35:50.941Z</time>
      </trkpt>
      <trkpt lat="42.322303" lon="1.962740">
        <ele>1877.873122</ele>
        <time>2022-05-22T03:35:52.939Z</time>
      </trkpt>
      <trkpt lat="42.322235" lon="1.962871">
        <ele>1877.387598</ele>
        <time>2022-05-22T03:35:54.936Z</time>
      </trkpt>
      <trkpt lat="42.322163" lon="1.963026">
        <ele>1876.925869</ele>
        <time>2022-05-22T03:35:56.935Z</time>
      </trkpt>
      <trkpt lat="42.322093" lon="1.963192">
        <ele>1876.443838</ele>
        <time>2022-05-22T03:35:58.944Z</time>
      </trkpt>
      <trkpt lat="42.322021" lon="1.963365">
        <ele>1875.943081</ele>
        <time>2022-05-22T03:36:00.940Z</time>
      </trkpt>
      <trkpt lat="42.321942" lon="1.963548">
        <ele>1875.408562</ele>
        <time>2022-05-22T03:36:02.940Z</time>
      </trkpt>
      <trkpt lat="42.321863" lon="1.963727">
        <ele>1874.882731</ele>
        <time>2022-05-22T03:36:04.936Z</time>
      </trkpt>
      <trkpt lat="42.321777" lon="1.963915">
        <ele>1874.325095</ele>
        <time>2022-05-22T03:36:06.941Z</time>
      </trkpt>
      <trkpt lat="42.321684" lon="1.964112">
        <ele>1873.735530</ele>
        <time>2022-05-22T03:36:08.937Z</time>
      </trkpt>
      <trkpt lat="42.321603" lon="1.964306">
        <ele>1873.173548</ele>
        <time>2022-05-22T03:36:10.944Z</time>
      </trkpt>
      <trkpt lat="42.321512" lon="1.964509">
        <ele>1872.574736</ele>
        <time>2022-05-22T03:36:12.945Z</time>
      </trkpt>
      <trkpt lat="42.321418" lon="1.964719">
        <ele>1871.955519</ele>
        <time>2022-05-22T03:36:14.944Z</time>
      </trkpt>
      <trkpt lat="42.321323" lon="1.964920">
        <ele>1871.310233</ele>
        <time>2022-05-22T03:36:16.939Z</time>
      </trkpt>
      <trkpt lat="42.321278" lon="1.965026">
        <ele>1870.919530</ele>
        <time>2022-05-22T03:36:17.934Z</time>
      </trkpt>
      <trkpt lat="42.321188" lon="1.965240">
        <ele>1870.132573</ele>
        <time>2022-05-22T03:36:19.939Z</time>
      </trkpt>
      <trkpt lat="42.321141" lon="1.965345">
        <ele>1869.740230</ele>
        <time>2022-05-22T03:36:20.936Z</time>
      </trkpt>
      <trkpt lat="42.321088" lon="1.965454">
        <ele>1869.323226</ele>
        <time>2022-05-22T03:36:21.952Z</time>
      </trkpt>
      <trkpt lat="42.321039" lon="1.965562">
        <ele>1868.918195</ele>
        <time>2022-05-22T03:36:22.940Z</time>
      </trkpt>
      <trkpt lat="42.320943" lon="1.965777">
        <ele>1868.115359</ele>
        <time>2022-05-22T03:36:24.940Z</time>
      </trkpt>
      <trkpt lat="42.320895" lon="1.965889">
        <ele>1867.701561</ele>
        <time>2022-05-22T03:36:25.939Z</time>
      </trkpt>
      <trkpt lat="42.320844" lon="1.966000">
        <ele>1867.283827</ele>
        <time>2022-05-22T03:36:26.935Z</time>
      </trkpt>
      <trkpt lat="42.320792" lon="1.966110">
        <ele>1866.866491</ele>
        <time>2022-05-22T03:36:27.937Z</time>
      </trkpt>
      <trkpt lat="42.320744" lon="1.966224">
        <ele>1866.447149</ele>
        <time>2022-05-22T03:36:28.944Z</time>
      </trkpt>
      <trkpt lat="42.320692" lon="1.966336">
        <ele>1866.024413</ele>
        <time>2022-05-22T03:36:29.934Z</time>
      </trkpt>
      <trkpt lat="42.320640" lon="1.966452">
        <ele>1865.590795</ele>
        <time>2022-05-22T03:36:30.938Z</time>
      </trkpt>
      <trkpt lat="42.320588" lon="1.966566">
        <ele>1865.162631</ele>
        <time>2022-05-22T03:36:31.953Z</time>
      </trkpt>
      <trkpt lat="42.320538" lon="1.966683">
        <ele>1864.730667</ele>
        <time>2022-05-22T03:36:32.940Z</time>
      </trkpt>
      <trkpt lat="42.320487" lon="1.966800">
        <ele>1864.296523</ele>
        <time>2022-05-22T03:36:33.944Z</time>
      </trkpt>
      <trkpt lat="42.320434" lon="1.966917">
        <ele>1863.857925</ele>
        <time>2022-05-22T03:36:34.939Z</time>
      </trkpt>
      <trkpt lat="42.320382" lon="1.967036">
        <ele>1863.408228</ele>
        <time>2022-05-22T03:36:35.939Z</time>
      </trkpt>
      <trkpt lat="42.320327" lon="1.967152">
        <ele>1862.957101</ele>
        <time>2022-05-22T03:36:36.943Z</time>
      </trkpt>
      <trkpt lat="42.320271" lon="1.967270">
        <ele>1862.498072</ele>
        <time>2022-05-22T03:36:37.941Z</time>
      </trkpt>
      <trkpt lat="42.320216" lon="1.967393">
        <ele>1862.027491</ele>
        <time>2022-05-22T03:36:38.942Z</time>
      </trkpt>
      <trkpt lat="42.320158" lon="1.967510">
        <ele>1861.566341</ele>
        <time>2022-05-22T03:36:39.944Z</time>
      </trkpt>
      <trkpt lat="42.320103" lon="1.967626">
        <ele>1861.115213</ele>
        <time>2022-05-22T03:36:40.947Z</time>
      </trkpt>
      <trkpt lat="42.320046" lon="1.967745">
        <ele>1860.651032</ele>
        <time>2022-05-22T03:36:41.945Z</time>
      </trkpt>
      <trkpt lat="42.319988" lon="1.967867">
        <ele>1860.176197</ele>
        <time>2022-05-22T03:36:42.940Z</time>
      </trkpt>
      <trkpt lat="42.319930" lon="1.967987">
        <ele>1859.706857</ele>
        <time>2022-05-22T03:36:43.926Z</time>
      </trkpt>
      <trkpt lat="42.319873" lon="1.968109">
        <ele>1859.234402</ele>
        <time>2022-05-22T03:36:44.938Z</time>
      </trkpt>
      <trkpt lat="42.319817" lon="1.968235">
        <ele>1858.753121</ele>
        <time>2022-05-22T03:36:45.935Z</time>
      </trkpt>
      <trkpt lat="42.319753" lon="1.968354">
        <ele>1858.271385</ele>
        <time>2022-05-22T03:36:46.939Z</time>
      </trkpt>
      <trkpt lat="42.319685" lon="1.968466">
        <ele>1857.796948</ele>
        <time>2022-05-22T03:36:47.932Z</time>
      </trkpt>
      <trkpt lat="42.319607" lon="1.968566">
        <ele>1857.321084</ele>
        <time>2022-05-22T03:36:48.944Z</time>
      </trkpt>
      <trkpt lat="42.319526" lon="1.968661">
        <ele>1856.846375</ele>
        <time>2022-05-22T03:36:49.941Z</time>
      </trkpt>
      <trkpt lat="42.319440" lon="1.968756">
        <ele>1856.354727</ele>
        <time>2022-05-22T03:36:50.942Z</time>
      </trkpt>
      <trkpt lat="42.319355" lon="1.968853">
        <ele>1855.862303</ele>
        <time>2022-05-22T03:36:51.943Z</time>
      </trkpt>
      <trkpt lat="42.319266" lon="1.968956">
        <ele>1855.427267</ele>
        <time>2022-05-22T03:36:52.943Z</time>
      </trkpt>
      <trkpt lat="42.319179" lon="1.969061">
        <ele>1855.010549</ele>
        <time>2022-05-22T03:36:53.948Z</time>
      </trkpt>
      <trkpt lat="42.319093" lon="1.969163">
        <ele>1854.601761</ele>
        <time>2022-05-22T03:36:54.942Z</time>
      </trkpt>
      <trkpt lat="42.319005" lon="1.969268">
        <ele>1854.182370</ele>
        <time>2022-05-22T03:36:55.947Z</time>
      </trkpt>
      <trkpt lat="42.318916" lon="1.969370">
        <ele>1853.765461</ele>
        <time>2022-05-22T03:36:56.938Z</time>
      </trkpt>
      <trkpt lat="42.318825" lon="1.969473">
        <ele>1853.341382</ele>
        <time>2022-05-22T03:36:57.935Z</time>
      </trkpt>
      <trkpt lat="42.318739" lon="1.969576">
        <ele>1852.930845</ele>
        <time>2022-05-22T03:36:58.940Z</time>
      </trkpt>
      <trkpt lat="42.318651" lon="1.969679">
        <ele>1852.514931</ele>
        <time>2022-05-22T03:36:59.947Z</time>
      </trkpt>
      <trkpt lat="42.318563" lon="1.969782">
        <ele>1852.099016</ele>
        <time>2022-05-22T03:37:00.939Z</time>
      </trkpt>
      <trkpt lat="42.318471" lon="1.969882">
        <ele>1851.677200</ele>
        <time>2022-05-22T03:37:01.951Z</time>
      </trkpt>
      <trkpt lat="42.318380" lon="1.969985">
        <ele>1851.253120</ele>
        <time>2022-05-22T03:37:02.942Z</time>
      </trkpt>
      <trkpt lat="42.318289" lon="1.970088">
        <ele>1850.829039</ele>
        <time>2022-05-22T03:37:03.944Z</time>
      </trkpt>
      <trkpt lat="42.318197" lon="1.970188">
        <ele>1850.407223</ele>
        <time>2022-05-22T03:37:04.938Z</time>
      </trkpt>
      <trkpt lat="42.318103" lon="1.970282">
        <ele>1849.989428</ele>
        <time>2022-05-22T03:37:05.954Z</time>
      </trkpt>
      <trkpt lat="42.318005" lon="1.970368">
        <ele>1849.571928</ele>
        <time>2022-05-22T03:37:06.941Z</time>
      </trkpt>
      <trkpt lat="42.317902" lon="1.970443">
        <ele>1849.150655</ele>
        <time>2022-05-22T03:37:07.938Z</time>
      </trkpt>
      <trkpt lat="42.317793" lon="1.970504">
        <ele>1848.722149</ele>
        <time>2022-05-22T03:37:08.938Z</time>
      </trkpt>
      <trkpt lat="42.317683" lon="1.970545">
        <ele>1848.307674</ele>
        <time>2022-05-22T03:37:09.941Z</time>
      </trkpt>
      <trkpt lat="42.317577" lon="1.970571">
        <ele>1847.916345</ele>
        <time>2022-05-22T03:37:10.950Z</time>
      </trkpt>
      <trkpt lat="42.317465" lon="1.970578">
        <ele>1847.509069</ele>
        <time>2022-05-22T03:37:11.950Z</time>
      </trkpt>
      <trkpt lat="42.317351" lon="1.970587">
        <ele>1847.094256</ele>
        <time>2022-05-22T03:37:12.941Z</time>
      </trkpt>
      <trkpt lat="42.317231" lon="1.970594">
        <ele>1846.657948</ele>
        <time>2022-05-22T03:37:13.942Z</time>
      </trkpt>
      <trkpt lat="42.317110" lon="1.970594">
        <ele>1846.218413</ele>
        <time>2022-05-22T03:37:14.939Z</time>
      </trkpt>
      <trkpt lat="42.316989" lon="1.970597">
        <ele>1845.778804</ele>
        <time>2022-05-22T03:37:15.954Z</time>
      </trkpt>
      <trkpt lat="42.316869" lon="1.970595">
        <ele>1845.342868</ele>
        <time>2022-05-22T03:37:16.945Z</time>
      </trkpt>
      <trkpt lat="42.316749" lon="1.970595">
        <ele>1844.906966</ele>
        <time>2022-05-22T03:37:17.933Z</time>
      </trkpt>
      <trkpt lat="42.316631" lon="1.970599">
        <ele>1844.478193</ele>
        <time>2022-05-22T03:37:18.935Z</time>
      </trkpt>
      <trkpt lat="42.316513" lon="1.970604">
        <ele>1844.049345</ele>
        <time>2022-05-22T03:37:19.943Z</time>
      </trkpt>
      <trkpt lat="42.316394" lon="1.970610">
        <ele>1843.616775</ele>
        <time>2022-05-22T03:37:20.941Z</time>
      </trkpt>
      <trkpt lat="42.316278" lon="1.970608">
        <ele>1843.195368</ele>
        <time>2022-05-22T03:37:21.948Z</time>
      </trkpt>
      <trkpt lat="42.316163" lon="1.970603">
        <ele>1842.767538</ele>
        <time>2022-05-22T03:37:22.939Z</time>
      </trkpt>
      <trkpt lat="42.316045" lon="1.970601">
        <ele>1842.228140</ele>
        <time>2022-05-22T03:37:23.961Z</time>
      </trkpt>
      <trkpt lat="42.315933" lon="1.970598">
        <ele>1841.716109</ele>
        <time>2022-05-22T03:37:24.939Z</time>
      </trkpt>
      <trkpt lat="42.315820" lon="1.970594">
        <ele>1841.199430</ele>
        <time>2022-05-22T03:37:25.944Z</time>
      </trkpt>
      <trkpt lat="42.315715" lon="1.970592">
        <ele>1840.719447</ele>
        <time>2022-05-22T03:37:26.938Z</time>
      </trkpt>
      <trkpt lat="42.315609" lon="1.970587">
        <ele>1840.234646</ele>
        <time>2022-05-22T03:37:27.937Z</time>
      </trkpt>
      <trkpt lat="42.315506" lon="1.970586">
        <ele>1839.763840</ele>
        <time>2022-05-22T03:37:28.932Z</time>
      </trkpt>
      <trkpt lat="42.315407" lon="1.970595">
        <ele>1839.310309</ele>
        <time>2022-05-22T03:37:29.945Z</time>
      </trkpt>
      <trkpt lat="42.315310" lon="1.970620">
        <ele>1838.858960</ele>
        <time>2022-05-22T03:37:30.936Z</time>
      </trkpt>
      <trkpt lat="42.315209" lon="1.970658">
        <ele>1838.379775</ele>
        <time>2022-05-22T03:37:31.943Z</time>
      </trkpt>
      <trkpt lat="42.315114" lon="1.970710">
        <ele>1837.911327</ele>
        <time>2022-05-22T03:37:32.940Z</time>
      </trkpt>
      <trkpt lat="42.315014" lon="1.970771">
        <ele>1837.409898</ele>
        <time>2022-05-22T03:37:33.945Z</time>
      </trkpt>
      <trkpt lat="42.314915" lon="1.970845">
        <ele>1836.892866</ele>
        <time>2022-05-22T03:37:34.935Z</time>
      </trkpt>
      <trkpt lat="42.314816" lon="1.970922">
        <ele>1836.370853</ele>
        <time>2022-05-22T03:37:35.933Z</time>
      </trkpt>
      <trkpt lat="42.314717" lon="1.971003">
        <ele>1835.841970</ele>
        <time>2022-05-22T03:37:36.939Z</time>
      </trkpt>
      <trkpt lat="42.314618" lon="1.971087">
        <ele>1835.307767</ele>
        <time>2022-05-22T03:37:37.938Z</time>
      </trkpt>
      <trkpt lat="42.314524" lon="1.971159">
        <ele>1834.813979</ele>
        <time>2022-05-22T03:37:38.938Z</time>
      </trkpt>
      <trkpt lat="42.314430" lon="1.971216">
        <ele>1834.379921</ele>
        <time>2022-05-22T03:37:39.936Z</time>
      </trkpt>
      <trkpt lat="42.314339" lon="1.971246">
        <ele>1834.014523</ele>
        <time>2022-05-22T03:37:40.938Z</time>
      </trkpt>
      <trkpt lat="42.314183" lon="1.971219">
        <ele>1833.400983</ele>
        <time>2022-05-22T03:37:42.936Z</time>
      </trkpt>
      <trkpt lat="42.314105" lon="1.971069">
        <ele>1832.871994</ele>
        <time>2022-05-22T03:37:44.939Z</time>
      </trkpt>
      <trkpt lat="42.314121" lon="1.970860">
        <ele>1832.265859</ele>
        <time>2022-05-22T03:37:46.947Z</time>
      </trkpt>
      <trkpt lat="42.314135" lon="1.970647">
        <ele>1831.648986</ele>
        <time>2022-05-22T03:37:48.933Z</time>
      </trkpt>
      <trkpt lat="42.314122" lon="1.970425">
        <ele>1831.006568</ele>
        <time>2022-05-22T03:37:50.929Z</time>
      </trkpt>
      <trkpt lat="42.314069" lon="1.970217">
        <ele>1830.371917</ele>
        <time>2022-05-22T03:37:52.933Z</time>
      </trkpt>
      <trkpt lat="42.313928" lon="1.970076">
        <ele>1829.687805</ele>
        <time>2022-05-22T03:37:54.939Z</time>
      </trkpt>
      <trkpt lat="42.313737" lon="1.970094">
        <ele>1828.940883</ele>
        <time>2022-05-22T03:37:56.935Z</time>
      </trkpt>
      <trkpt lat="42.313655" lon="1.970150">
        <ele>1828.582514</ele>
        <time>2022-05-22T03:37:57.939Z</time>
      </trkpt>
      <trkpt lat="42.313553" lon="1.970315">
        <ele>1827.962111</ele>
        <time>2022-05-22T03:37:59.943Z</time>
      </trkpt>
      <trkpt lat="42.313444" lon="1.970475">
        <ele>1827.480476</ele>
        <time>2022-05-22T03:38:01.944Z</time>
      </trkpt>
      <trkpt lat="42.313333" lon="1.970623">
        <ele>1827.237417</ele>
        <time>2022-05-22T03:38:03.946Z</time>
      </trkpt>
      <trkpt lat="42.313214" lon="1.970758">
        <ele>1826.995219</ele>
        <time>2022-05-22T03:38:05.944Z</time>
      </trkpt>
      <trkpt lat="42.313094" lon="1.970908">
        <ele>1826.740415</ele>
        <time>2022-05-22T03:38:07.937Z</time>
      </trkpt>
      <trkpt lat="42.312974" lon="1.971052">
        <ele>1826.490255</ele>
        <time>2022-05-22T03:38:09.950Z</time>
      </trkpt>
      <trkpt lat="42.312853" lon="1.971197">
        <ele>1826.238164</ele>
        <time>2022-05-22T03:38:11.943Z</time>
      </trkpt>
      <trkpt lat="42.312736" lon="1.971338">
        <ele>1825.993798</ele>
        <time>2022-05-22T03:38:13.940Z</time>
      </trkpt>
      <trkpt lat="42.312623" lon="1.971480">
        <ele>1825.753269</ele>
        <time>2022-05-22T03:38:15.945Z</time>
      </trkpt>
      <trkpt lat="42.312495" lon="1.971604">
        <ele>1825.507754</ele>
        <time>2022-05-22T03:38:17.949Z</time>
      </trkpt>
      <trkpt lat="42.312343" lon="1.971652">
        <ele>1825.264368</ele>
        <time>2022-05-22T03:38:19.945Z</time>
      </trkpt>
      <trkpt lat="42.312183" lon="1.971663">
        <ele>1825.014563</ele>
        <time>2022-05-22T03:38:21.950Z</time>
      </trkpt>
      <trkpt lat="42.312022" lon="1.971653">
        <ele>1824.756883</ele>
        <time>2022-05-22T03:38:23.940Z</time>
      </trkpt>
      <trkpt lat="42.311865" lon="1.971658">
        <ele>1824.353150</ele>
        <time>2022-05-22T03:38:25.937Z</time>
      </trkpt>
      <trkpt lat="42.311716" lon="1.971684">
        <ele>1823.966920</ele>
        <time>2022-05-22T03:38:27.945Z</time>
      </trkpt>
      <trkpt lat="42.311579" lon="1.971753">
        <ele>1823.591081</ele>
        <time>2022-05-22T03:38:29.935Z</time>
      </trkpt>
      <trkpt lat="42.311460" lon="1.971880">
        <ele>1823.201354</ele>
        <time>2022-05-22T03:38:31.942Z</time>
      </trkpt>
      <trkpt lat="42.311367" lon="1.972047">
        <ele>1822.803911</ele>
        <time>2022-05-22T03:38:33.950Z</time>
      </trkpt>
      <trkpt lat="42.311274" lon="1.972225">
        <ele>1822.389571</ele>
        <time>2022-05-22T03:38:35.943Z</time>
      </trkpt>
      <trkpt lat="42.311181" lon="1.972402">
        <ele>1821.976782</ele>
        <time>2022-05-22T03:38:37.941Z</time>
      </trkpt>
      <trkpt lat="42.311084" lon="1.972559">
        <ele>1821.587842</ele>
        <time>2022-05-22T03:38:39.944Z</time>
      </trkpt>
      <trkpt lat="42.310982" lon="1.972722">
        <ele>1821.181898</ele>
        <time>2022-05-22T03:38:41.944Z</time>
      </trkpt>
      <trkpt lat="42.310882" lon="1.972873">
        <ele>1820.796538</ele>
        <time>2022-05-22T03:38:43.952Z</time>
      </trkpt>
      <trkpt lat="42.310775" lon="1.973019">
        <ele>1820.405755</ele>
        <time>2022-05-22T03:38:45.955Z</time>
      </trkpt>
      <trkpt lat="42.310656" lon="1.973151">
        <ele>1820.182399</ele>
        <time>2022-05-22T03:38:47.951Z</time>
      </trkpt>
      <trkpt lat="42.310545" lon="1.973291">
        <ele>1820.275963</ele>
        <time>2022-05-22T03:38:49.954Z</time>
      </trkpt>
      <trkpt lat="42.310437" lon="1.973424">
        <ele>1820.366006</ele>
        <time>2022-05-22T03:38:51.945Z</time>
      </trkpt>
      <trkpt lat="42.310326" lon="1.973547">
        <ele>1820.454467</ele>
        <time>2022-05-22T03:38:53.944Z</time>
      </trkpt>
      <trkpt lat="42.310207" lon="1.973668">
        <ele>1820.546244</ele>
        <time>2022-05-22T03:38:55.944Z</time>
      </trkpt>
      <trkpt lat="42.310097" lon="1.973802">
        <ele>1820.637506</ele>
        <time>2022-05-22T03:38:57.939Z</time>
      </trkpt>
      <trkpt lat="42.309993" lon="1.973931">
        <ele>1820.724499</ele>
        <time>2022-05-22T03:38:59.937Z</time>
      </trkpt>
      <trkpt lat="42.309886" lon="1.974065">
        <ele>1820.814396</ele>
        <time>2022-05-22T03:39:01.944Z</time>
      </trkpt>
      <trkpt lat="42.309775" lon="1.974184">
        <ele>1820.901713</ele>
        <time>2022-05-22T03:39:03.943Z</time>
      </trkpt>
      <trkpt lat="42.309671" lon="1.974314">
        <ele>1820.989014</ele>
        <time>2022-05-22T03:39:05.942Z</time>
      </trkpt>
      <trkpt lat="42.309566" lon="1.974439">
        <ele>1821.075247</ele>
        <time>2022-05-22T03:39:07.938Z</time>
      </trkpt>
      <trkpt lat="42.309464" lon="1.974561">
        <ele>1821.159188</ele>
        <time>2022-05-22T03:39:09.942Z</time>
      </trkpt>
      <trkpt lat="42.309365" lon="1.974676">
        <ele>1821.239638</ele>
        <time>2022-05-22T03:39:11.949Z</time>
      </trkpt>
      <trkpt lat="42.309269" lon="1.974790">
        <ele>1821.065342</ele>
        <time>2022-05-22T03:39:13.947Z</time>
      </trkpt>
      <trkpt lat="42.309170" lon="1.974907">
        <ele>1820.808016</ele>
        <time>2022-05-22T03:39:15.937Z</time>
      </trkpt>
      <trkpt lat="42.309072" lon="1.975011">
        <ele>1820.564206</ele>
        <time>2022-05-22T03:39:17.943Z</time>
      </trkpt>
      <trkpt lat="42.308967" lon="1.975115">
        <ele>1820.309477</ele>
        <time>2022-05-22T03:39:19.944Z</time>
      </trkpt>
      <trkpt lat="42.308857" lon="1.975191">
        <ele>1820.067720</ele>
        <time>2022-05-22T03:39:21.941Z</time>
      </trkpt>
      <trkpt lat="42.308746" lon="1.975257">
        <ele>1819.830405</ele>
        <time>2022-05-22T03:39:23.937Z</time>
      </trkpt>
      <trkpt lat="42.308621" lon="1.975309">
        <ele>1819.574449</ele>
        <time>2022-05-22T03:39:25.937Z</time>
      </trkpt>
      <trkpt lat="42.308490" lon="1.975336">
        <ele>1819.315105</ele>
        <time>2022-05-22T03:39:27.938Z</time>
      </trkpt>
      <trkpt lat="42.308355" lon="1.975316">
        <ele>1819.049313</ele>
        <time>2022-05-22T03:39:29.943Z</time>
      </trkpt>
      <trkpt lat="42.308212" lon="1.975289">
        <ele>1818.766729</ele>
        <time>2022-05-22T03:39:31.939Z</time>
      </trkpt>
      <trkpt lat="42.308066" lon="1.975275">
        <ele>1818.480272</ele>
        <time>2022-05-22T03:39:33.942Z</time>
      </trkpt>
      <trkpt lat="42.307924" lon="1.975253">
        <ele>1818.200542</ele>
        <time>2022-05-22T03:39:35.946Z</time>
      </trkpt>
      <trkpt lat="42.307781" lon="1.975219">
        <ele>1817.916380</ele>
        <time>2022-05-22T03:39:37.942Z</time>
      </trkpt>
      <trkpt lat="42.307647" lon="1.975197">
        <ele>1817.621389</ele>
        <time>2022-05-22T03:39:39.943Z</time>
      </trkpt>
      <trkpt lat="42.307520" lon="1.975175">
        <ele>1817.280417</ele>
        <time>2022-05-22T03:39:41.935Z</time>
      </trkpt>
      <trkpt lat="42.307401" lon="1.975153">
        <ele>1816.960565</ele>
        <time>2022-05-22T03:39:43.941Z</time>
      </trkpt>
      <trkpt lat="42.307275" lon="1.975124">
        <ele>1816.620193</ele>
        <time>2022-05-22T03:39:45.948Z</time>
      </trkpt>
      <trkpt lat="42.307103" lon="1.975031">
        <ele>1816.126885</ele>
        <time>2022-05-22T03:39:48.951Z</time>
      </trkpt>
      <trkpt lat="42.306969" lon="1.974947">
        <ele>1815.733552</ele>
        <time>2022-05-22T03:39:50.947Z</time>
      </trkpt>
      <trkpt lat="42.306847" lon="1.974873">
        <ele>1815.377468</ele>
        <time>2022-05-22T03:39:52.938Z</time>
      </trkpt>
      <trkpt lat="42.306744" lon="1.974800">
        <ele>1815.067778</ele>
        <time>2022-05-22T03:39:54.939Z</time>
      </trkpt>
      <trkpt lat="42.306626" lon="1.974743">
        <ele>1814.734087</ele>
        <time>2022-05-22T03:39:56.953Z</time>
      </trkpt>
      <trkpt lat="42.306511" lon="1.974669">
        <ele>1814.394926</ele>
        <time>2022-05-22T03:39:58.942Z</time>
      </trkpt>
      <trkpt lat="42.306401" lon="1.974614">
        <ele>1814.082604</ele>
        <time>2022-05-22T03:40:00.940Z</time>
      </trkpt>
      <trkpt lat="42.306289" lon="1.974562">
        <ele>1813.767248</ele>
        <time>2022-05-22T03:40:02.936Z</time>
      </trkpt>
      <trkpt lat="42.306177" lon="1.974514">
        <ele>1813.454363</ele>
        <time>2022-05-22T03:40:04.939Z</time>
      </trkpt>
      <trkpt lat="42.306068" lon="1.974478">
        <ele>1813.155555</ele>
        <time>2022-05-22T03:40:06.943Z</time>
      </trkpt>
      <trkpt lat="42.305957" lon="1.974481">
        <ele>1813.082394</ele>
        <time>2022-05-22T03:40:08.923Z</time>
      </trkpt>
      <trkpt lat="42.305863" lon="1.974527">
        <ele>1813.490578</ele>
        <time>2022-05-22T03:40:10.936Z</time>
      </trkpt>
      <trkpt lat="42.305813" lon="1.974629">
        <ele>1813.860114</ele>
        <time>2022-05-22T03:40:12.937Z</time>
      </trkpt>
      <trkpt lat="42.305780" lon="1.974755">
        <ele>1814.263761</ele>
        <time>2022-05-22T03:40:14.940Z</time>
      </trkpt>
      <trkpt lat="42.305802" lon="1.974908">
        <ele>1814.734441</ele>
        <time>2022-05-22T03:40:17.938Z</time>
      </trkpt>
      <trkpt lat="42.305866" lon="1.975015">
        <ele>1815.150007</ele>
        <time>2022-05-22T03:40:20.944Z</time>
      </trkpt>
      <trkpt lat="42.305916" lon="1.975140">
        <ele>1815.579154</ele>
        <time>2022-05-22T03:40:24.946Z</time>
      </trkpt>
      <trkpt lat="42.305983" lon="1.975254">
        <ele>1816.018875</ele>
        <time>2022-05-22T03:40:28.940Z</time>
      </trkpt>
      <trkpt lat="42.306055" lon="1.975373">
        <ele>1816.483165</ele>
        <time>2022-05-22T03:40:32.941Z</time>
      </trkpt>
      <trkpt lat="42.306124" lon="1.975476">
        <ele>1816.902834</ele>
        <time>2022-05-22T03:40:36.939Z</time>
      </trkpt>
      <trkpt lat="42.306172" lon="1.975584">
        <ele>1817.283330</ele>
        <time>2022-05-22T03:40:40.941Z</time>
      </trkpt>
      <trkpt lat="42.306233" lon="1.975680">
        <ele>1817.665534</ele>
        <time>2022-05-22T03:40:44.947Z</time>
      </trkpt>
      <trkpt lat="42.306289" lon="1.975794">
        <ele>1818.078807</ele>
        <time>2022-05-22T03:40:49.939Z</time>
      </trkpt>
      <trkpt lat="42.306329" lon="1.975908">
        <ele>1818.459840</ele>
        <time>2022-05-22T03:40:54.943Z</time>
      </trkpt>
      <trkpt lat="42.306382" lon="1.976017">
        <ele>1818.853764</ele>
        <time>2022-05-22T03:40:59.942Z</time>
      </trkpt>
      <trkpt lat="42.306424" lon="1.976131">
        <ele>1819.238367</ele>
        <time>2022-05-22T03:41:04.947Z</time>
      </trkpt>
      <trkpt lat="42.306489" lon="1.976238">
        <ele>1819.656511</ele>
        <time>2022-05-22T03:41:09.938Z</time>
      </trkpt>
      <trkpt lat="42.306542" lon="1.976370">
        <ele>1820.110076</ele>
        <time>2022-05-22T03:41:15.941Z</time>
      </trkpt>
      <trkpt lat="42.306589" lon="1.976490">
        <ele>1820.956439</ele>
        <time>2022-05-22T03:41:20.940Z</time>
      </trkpt>
      <trkpt lat="42.306632" lon="1.976614">
        <ele>1822.160837</ele>
        <time>2022-05-22T03:41:25.941Z</time>
      </trkpt>
      <trkpt lat="42.306664" lon="1.976759">
        <ele>1823.491548</ele>
        <time>2022-05-22T03:41:30.931Z</time>
      </trkpt>
      <trkpt lat="42.306709" lon="1.976887">
        <ele>1824.737907</ele>
        <time>2022-05-22T03:41:35.940Z</time>
      </trkpt>
      <trkpt lat="42.306742" lon="1.977020">
        <ele>1825.971595</ele>
        <time>2022-05-22T03:41:40.933Z</time>
      </trkpt>
      <trkpt lat="42.306777" lon="1.977151">
        <ele>1827.196495</ele>
        <time>2022-05-22T03:41:45.941Z</time>
      </trkpt>
      <trkpt lat="42.306802" lon="1.977285">
        <ele>1828.411823</ele>
        <time>2022-05-22T03:41:50.940Z</time>
      </trkpt>
      <trkpt lat="42.306822" lon="1.977425">
        <ele>1829.665755</ele>
        <time>2022-05-22T03:41:55.953Z</time>
      </trkpt>
      <trkpt lat="42.306848" lon="1.977561">
        <ele>1830.901066</ele>
        <time>2022-05-22T03:42:00.949Z</time>
      </trkpt>
      <trkpt lat="42.306857" lon="1.977700">
        <ele>1832.128120</ele>
        <time>2022-05-22T03:42:05.944Z</time>
      </trkpt>
      <trkpt lat="42.306856" lon="1.977836">
        <ele>1833.324175</ele>
        <time>2022-05-22T03:42:09.944Z</time>
      </trkpt>
      <trkpt lat="42.306870" lon="1.977968">
        <ele>1834.496871</ele>
        <time>2022-05-22T03:42:14.954Z</time>
      </trkpt>
      <trkpt lat="42.306883" lon="1.978094">
        <ele>1835.615657</ele>
        <time>2022-05-22T03:42:19.945Z</time>
      </trkpt>
      <trkpt lat="42.306873" lon="1.978237">
        <ele>1836.878821</ele>
        <time>2022-05-22T03:42:24.940Z</time>
      </trkpt>
      <trkpt lat="42.306884" lon="1.978387">
        <ele>1838.204403</ele>
        <time>2022-05-22T03:42:29.946Z</time>
      </trkpt>
      <trkpt lat="42.306872" lon="1.978527">
        <ele>1839.443816</ele>
        <time>2022-05-22T03:42:34.948Z</time>
      </trkpt>
      <trkpt lat="42.306868" lon="1.978669">
        <ele>1840.693482</ele>
        <time>2022-05-22T03:42:39.943Z</time>
      </trkpt>
      <trkpt lat="42.306860" lon="1.978811">
        <ele>1841.877036</ele>
        <time>2022-05-22T03:42:44.943Z</time>
      </trkpt>
      <trkpt lat="42.306853" lon="1.978950">
        <ele>1842.785259</ele>
        <time>2022-05-22T03:42:49.936Z</time>
      </trkpt>
      <trkpt lat="42.306852" lon="1.979098">
        <ele>1843.750094</ele>
        <time>2022-05-22T03:42:54.946Z</time>
      </trkpt>
      <trkpt lat="42.306849" lon="1.979221">
        <ele>1844.552353</ele>
        <time>2022-05-22T03:42:58.948Z</time>
      </trkpt>
      <trkpt lat="42.306838" lon="1.979354">
        <ele>1845.424769</ele>
        <time>2022-05-22T03:43:03.944Z</time>
      </trkpt>
      <trkpt lat="42.306851" lon="1.979479">
        <ele>1846.247647</ele>
        <time>2022-05-22T03:43:07.956Z</time>
      </trkpt>
      <trkpt lat="42.306876" lon="1.979597">
        <ele>1847.047818</ele>
        <time>2022-05-22T03:43:11.941Z</time>
      </trkpt>
      <trkpt lat="42.306899" lon="1.979719">
        <ele>1847.868555</ele>
        <time>2022-05-22T03:43:15.940Z</time>
      </trkpt>
      <trkpt lat="42.306926" lon="1.979855">
        <ele>1848.786511</ele>
        <time>2022-05-22T03:43:20.948Z</time>
      </trkpt>
      <trkpt lat="42.306961" lon="1.979969">
        <ele>1849.591157</ele>
        <time>2022-05-22T03:43:24.951Z</time>
      </trkpt>
      <trkpt lat="42.307000" lon="1.980113">
        <ele>1850.590841</ele>
        <time>2022-05-22T03:43:29.938Z</time>
      </trkpt>
      <trkpt lat="42.307054" lon="1.980241">
        <ele>1851.551474</ele>
        <time>2022-05-22T03:43:34.946Z</time>
      </trkpt>
      <trkpt lat="42.307129" lon="1.980346">
        <ele>1852.503086</ele>
        <time>2022-05-22T03:43:39.942Z</time>
      </trkpt>
      <trkpt lat="42.307183" lon="1.980470">
        <ele>1853.441157</ele>
        <time>2022-05-22T03:43:44.940Z</time>
      </trkpt>
      <trkpt lat="42.307237" lon="1.980576">
        <ele>1854.280231</ele>
        <time>2022-05-22T03:43:48.945Z</time>
      </trkpt>
      <trkpt lat="42.307292" lon="1.980705">
        <ele>1855.250901</ele>
        <time>2022-05-22T03:43:53.947Z</time>
      </trkpt>
      <trkpt lat="42.307325" lon="1.980835">
        <ele>1856.146882</ele>
        <time>2022-05-22T03:43:58.956Z</time>
      </trkpt>
      <trkpt lat="42.307319" lon="1.980969">
        <ele>1857.022006</ele>
        <time>2022-05-22T03:44:03.947Z</time>
      </trkpt>
      <trkpt lat="42.307341" lon="1.981117">
        <ele>1857.962433</ele>
        <time>2022-05-22T03:44:08.950Z</time>
      </trkpt>
      <trkpt lat="42.307297" lon="1.981252">
        <ele>1858.835166</ele>
        <time>2022-05-22T03:44:13.951Z</time>
      </trkpt>
      <trkpt lat="42.307268" lon="1.981387">
        <ele>1859.666790</ele>
        <time>2022-05-22T03:44:18.939Z</time>
      </trkpt>
      <trkpt lat="42.307227" lon="1.981524">
        <ele>1860.541082</ele>
        <time>2022-05-22T03:44:23.947Z</time>
      </trkpt>
      <trkpt lat="42.307174" lon="1.981654">
        <ele>1861.419236</ele>
        <time>2022-05-22T03:44:28.949Z</time>
      </trkpt>
      <trkpt lat="42.307115" lon="1.981776">
        <ele>1862.281560</ele>
        <time>2022-05-22T03:44:33.947Z</time>
      </trkpt>
      <trkpt lat="42.307054" lon="1.981869">
        <ele>1863.016927</ele>
        <time>2022-05-22T03:44:37.945Z</time>
      </trkpt>
      <trkpt lat="42.306987" lon="1.981971">
        <ele>1863.823973</ele>
        <time>2022-05-22T03:44:42.954Z</time>
      </trkpt>
      <trkpt lat="42.306915" lon="1.982071">
        <ele>1864.649597</ele>
        <time>2022-05-22T03:44:47.942Z</time>
      </trkpt>
      <trkpt lat="42.306829" lon="1.982138">
        <ele>1865.443530</ele>
        <time>2022-05-22T03:44:52.946Z</time>
      </trkpt>
      <trkpt lat="42.306748" lon="1.982196">
        <ele>1866.176696</ele>
        <time>2022-05-22T03:44:57.944Z</time>
      </trkpt>
      <trkpt lat="42.306653" lon="1.982266">
        <ele>1867.042112</ele>
        <time>2022-05-22T03:45:03.948Z</time>
      </trkpt>
      <trkpt lat="42.306566" lon="1.982316">
        <ele>1867.798282</ele>
        <time>2022-05-22T03:45:08.945Z</time>
      </trkpt>
      <trkpt lat="42.306477" lon="1.982356">
        <ele>1868.548495</ele>
        <time>2022-05-22T03:45:13.937Z</time>
      </trkpt>
      <trkpt lat="42.306395" lon="1.982418">
        <ele>1869.300001</ele>
        <time>2022-05-22T03:45:18.931Z</time>
      </trkpt>
      <trkpt lat="42.306295" lon="1.982457">
        <ele>1870.132516</ele>
        <time>2022-05-22T03:45:23.946Z</time>
      </trkpt>
      <trkpt lat="42.306203" lon="1.982507">
        <ele>1870.925649</ele>
        <time>2022-05-22T03:45:28.945Z</time>
      </trkpt>
      <trkpt lat="42.306121" lon="1.982573">
        <ele>1871.688985</ele>
        <time>2022-05-22T03:45:33.938Z</time>
      </trkpt>
      <trkpt lat="42.306032" lon="1.982636">
        <ele>1872.524658</ele>
        <time>2022-05-22T03:45:38.939Z</time>
      </trkpt>
      <trkpt lat="42.305947" lon="1.982680">
        <ele>1873.293645</ele>
        <time>2022-05-22T03:45:43.936Z</time>
      </trkpt>
      <trkpt lat="42.305870" lon="1.982748">
        <ele>1874.070675</ele>
        <time>2022-05-22T03:45:48.956Z</time>
      </trkpt>
      <trkpt lat="42.305783" lon="1.982789">
        <ele>1874.849097</ele>
        <time>2022-05-22T03:45:53.943Z</time>
      </trkpt>
      <trkpt lat="42.305697" lon="1.982853">
        <ele>1875.678483</ele>
        <time>2022-05-22T03:45:58.943Z</time>
      </trkpt>
      <trkpt lat="42.305609" lon="1.982927">
        <ele>1876.554043</ele>
        <time>2022-05-22T03:46:04.946Z</time>
      </trkpt>
      <trkpt lat="42.305521" lon="1.982977">
        <ele>1877.360523</ele>
        <time>2022-05-22T03:46:09.945Z</time>
      </trkpt>
      <trkpt lat="42.305426" lon="1.983044">
        <ele>1878.265793</ele>
        <time>2022-05-22T03:46:15.942Z</time>
      </trkpt>
      <trkpt lat="42.305332" lon="1.983109">
        <ele>1879.157821</ele>
        <time>2022-05-22T03:46:21.942Z</time>
      </trkpt>
      <trkpt lat="42.305248" lon="1.983175">
        <ele>1879.978653</ele>
        <time>2022-05-22T03:46:26.942Z</time>
      </trkpt>
      <trkpt lat="42.305169" lon="1.983238">
        <ele>1880.753558</ele>
        <time>2022-05-22T03:46:31.940Z</time>
      </trkpt>
      <trkpt lat="42.305097" lon="1.983341">
        <ele>1881.639155</ele>
        <time>2022-05-22T03:46:36.945Z</time>
      </trkpt>
      <trkpt lat="42.305076" lon="1.983488">
        <ele>1882.574675</ele>
        <time>2022-05-22T03:46:41.946Z</time>
      </trkpt>
      <trkpt lat="42.305086" lon="1.983630">
        <ele>1883.465988</ele>
        <time>2022-05-22T03:46:46.940Z</time>
      </trkpt>
      <trkpt lat="42.305118" lon="1.983746">
        <ele>1884.239605</ele>
        <time>2022-05-22T03:46:50.937Z</time>
      </trkpt>
      <trkpt lat="42.305164" lon="1.983863">
        <ele>1885.067573</ele>
        <time>2022-05-22T03:46:54.954Z</time>
      </trkpt>
      <trkpt lat="42.305210" lon="1.983970">
        <ele>1885.840924</ele>
        <time>2022-05-22T03:46:58.952Z</time>
      </trkpt>
      <trkpt lat="42.305267" lon="1.984076">
        <ele>1886.659846</ele>
        <time>2022-05-22T03:47:02.937Z</time>
      </trkpt>
      <trkpt lat="42.305321" lon="1.984204">
        <ele>1887.655707</ele>
        <time>2022-05-22T03:47:07.929Z</time>
      </trkpt>
      <trkpt lat="42.305383" lon="1.984320">
        <ele>1888.695227</ele>
        <time>2022-05-22T03:47:12.937Z</time>
      </trkpt>
      <trkpt lat="42.305437" lon="1.984422">
        <ele>1889.606321</ele>
        <time>2022-05-22T03:47:16.950Z</time>
      </trkpt>
      <trkpt lat="42.305486" lon="1.984553">
        <ele>1890.672565</ele>
        <time>2022-05-22T03:47:21.941Z</time>
      </trkpt>
      <trkpt lat="42.305542" lon="1.984658">
        <ele>1891.612814</ele>
        <time>2022-05-22T03:47:25.941Z</time>
      </trkpt>
      <trkpt lat="42.305601" lon="1.984770">
        <ele>1892.611551</ele>
        <time>2022-05-22T03:47:30.944Z</time>
      </trkpt>
      <trkpt lat="42.305660" lon="1.984894">
        <ele>1893.682471</ele>
        <time>2022-05-22T03:47:35.944Z</time>
      </trkpt>
      <trkpt lat="42.305715" lon="1.985006">
        <ele>1894.658940</ele>
        <time>2022-05-22T03:47:40.944Z</time>
      </trkpt>
      <trkpt lat="42.305768" lon="1.985118">
        <ele>1895.624682</ele>
        <time>2022-05-22T03:47:45.949Z</time>
      </trkpt>
      <trkpt lat="42.305835" lon="1.985236">
        <ele>1896.705186</ele>
        <time>2022-05-22T03:47:51.949Z</time>
      </trkpt>
      <trkpt lat="42.305881" lon="1.985345">
        <ele>1897.616691</ele>
        <time>2022-05-22T03:47:56.942Z</time>
      </trkpt>
      <trkpt lat="42.305956" lon="1.985455">
        <ele>1898.703351</ele>
        <time>2022-05-22T03:48:01.938Z</time>
      </trkpt>
      <trkpt lat="42.306007" lon="1.985566">
        <ele>1899.652471</ele>
        <time>2022-05-22T03:48:06.956Z</time>
      </trkpt>
      <trkpt lat="42.306067" lon="1.985671">
        <ele>1900.616219</ele>
        <time>2022-05-22T03:48:11.940Z</time>
      </trkpt>
      <trkpt lat="42.306122" lon="1.985778">
        <ele>1901.562644</ele>
        <time>2022-05-22T03:48:16.941Z</time>
      </trkpt>
      <trkpt lat="42.306168" lon="1.985892">
        <ele>1902.505859</ele>
        <time>2022-05-22T03:48:21.945Z</time>
      </trkpt>
      <trkpt lat="42.306216" lon="1.985995">
        <ele>1903.390090</ele>
        <time>2022-05-22T03:48:25.939Z</time>
      </trkpt>
      <trkpt lat="42.306275" lon="1.986116">
        <ele>1904.442745</ele>
        <time>2022-05-22T03:48:30.948Z</time>
      </trkpt>
      <trkpt lat="42.306328" lon="1.986225">
        <ele>1905.191045</ele>
        <time>2022-05-22T03:48:35.942Z</time>
      </trkpt>
      <trkpt lat="42.306398" lon="1.986337">
        <ele>1905.907058</ele>
        <time>2022-05-22T03:48:40.952Z</time>
      </trkpt>
      <trkpt lat="42.306439" lon="1.986464">
        <ele>1906.583687</ele>
        <time>2022-05-22T03:48:46.946Z</time>
      </trkpt>
      <trkpt lat="42.306499" lon="1.986570">
        <ele>1907.235469</ele>
        <time>2022-05-22T03:48:51.945Z</time>
      </trkpt>
      <trkpt lat="42.306552" lon="1.986697">
        <ele>1907.947506</ele>
        <time>2022-05-22T03:48:56.949Z</time>
      </trkpt>
      <trkpt lat="42.306605" lon="1.986802">
        <ele>1908.568236</ele>
        <time>2022-05-22T03:49:00.944Z</time>
      </trkpt>
      <trkpt lat="42.306643" lon="1.986923">
        <ele>1909.210121</ele>
        <time>2022-05-22T03:49:05.945Z</time>
      </trkpt>
      <trkpt lat="42.306703" lon="1.987038">
        <ele>1909.897317</ele>
        <time>2022-05-22T03:49:10.944Z</time>
      </trkpt>
      <trkpt lat="42.306750" lon="1.987165">
        <ele>1910.590743</ele>
        <time>2022-05-22T03:49:15.943Z</time>
      </trkpt>
      <trkpt lat="42.306805" lon="1.987287">
        <ele>1911.288401</ele>
        <time>2022-05-22T03:49:20.949Z</time>
      </trkpt>
      <trkpt lat="42.306870" lon="1.987407">
        <ele>1912.014690</ele>
        <time>2022-05-22T03:49:25.935Z</time>
      </trkpt>
      <trkpt lat="42.306919" lon="1.987539">
        <ele>1912.735857</ele>
        <time>2022-05-22T03:49:30.954Z</time>
      </trkpt>
      <trkpt lat="42.306982" lon="1.987663">
        <ele>1913.470435</ele>
        <time>2022-05-22T03:49:35.940Z</time>
      </trkpt>
      <trkpt lat="42.307027" lon="1.987784">
        <ele>1914.131751</ele>
        <time>2022-05-22T03:49:40.942Z</time>
      </trkpt>
      <trkpt lat="42.307038" lon="1.987917">
        <ele>1914.785211</ele>
        <time>2022-05-22T03:49:45.941Z</time>
      </trkpt>
      <trkpt lat="42.307012" lon="1.988059">
        <ele>1915.499501</ele>
        <time>2022-05-22T03:49:50.954Z</time>
      </trkpt>
      <trkpt lat="42.306947" lon="1.988155">
        <ele>1916.135032</ele>
        <time>2022-05-22T03:49:54.951Z</time>
      </trkpt>
      <trkpt lat="42.306870" lon="1.988230">
        <ele>1916.780934</ele>
        <time>2022-05-22T03:49:58.937Z</time>
      </trkpt>
      <trkpt lat="42.306770" lon="1.988291">
        <ele>1917.640367</ele>
        <time>2022-05-22T03:50:03.948Z</time>
      </trkpt>
      <trkpt lat="42.306679" lon="1.988308">
        <ele>1918.360038</ele>
        <time>2022-05-22T03:50:07.949Z</time>
      </trkpt>
      <trkpt lat="42.306568" lon="1.988310">
        <ele>1919.229695</ele>
        <time>2022-05-22T03:50:12.944Z</time>
      </trkpt>
      <trkpt lat="42.306455" lon="1.988297">
        <ele>1920.118142</ele>
        <time>2022-05-22T03:50:17.945Z</time>
      </trkpt>
      <trkpt lat="42.306363" lon="1.988268">
        <ele>1920.858200</ele>
        <time>2022-05-22T03:50:21.951Z</time>
      </trkpt>
      <trkpt lat="42.306269" lon="1.988241">
        <ele>1921.611033</ele>
        <time>2022-05-22T03:50:25.950Z</time>
      </trkpt>
      <trkpt lat="42.306174" lon="1.988212">
        <ele>1922.373999</ele>
        <time>2022-05-22T03:50:29.946Z</time>
      </trkpt>
      <trkpt lat="42.306070" lon="1.988185">
        <ele>1923.203622</ele>
        <time>2022-05-22T03:50:34.939Z</time>
      </trkpt>
      <trkpt lat="42.305978" lon="1.988175">
        <ele>1923.926680</ele>
        <time>2022-05-22T03:50:39.949Z</time>
      </trkpt>
      <trkpt lat="42.305877" lon="1.988182">
        <ele>1924.718958</ele>
        <time>2022-05-22T03:50:44.946Z</time>
      </trkpt>
      <trkpt lat="42.305784" lon="1.988212">
        <ele>1925.467972</ele>
        <time>2022-05-22T03:50:49.943Z</time>
      </trkpt>
      <trkpt lat="42.305688" lon="1.988252">
        <ele>1926.254939</ele>
        <time>2022-05-22T03:50:54.948Z</time>
      </trkpt>
      <trkpt lat="42.305600" lon="1.988298">
        <ele>1926.994058</ele>
        <time>2022-05-22T03:50:59.943Z</time>
      </trkpt>
      <trkpt lat="42.305511" lon="1.988350">
        <ele>1927.753597</ele>
        <time>2022-05-22T03:51:04.940Z</time>
      </trkpt>
      <trkpt lat="42.305422" lon="1.988405">
        <ele>1928.520197</ele>
        <time>2022-05-22T03:51:09.945Z</time>
      </trkpt>
      <trkpt lat="42.305332" lon="1.988462">
        <ele>1929.298772</ele>
        <time>2022-05-22T03:51:14.946Z</time>
      </trkpt>
      <trkpt lat="42.305242" lon="1.988520">
        <ele>1930.079823</ele>
        <time>2022-05-22T03:51:20.946Z</time>
      </trkpt>
      <trkpt lat="42.305144" lon="1.988555">
        <ele>1930.897344</ele>
        <time>2022-05-22T03:51:25.941Z</time>
      </trkpt>
      <trkpt lat="42.305050" lon="1.988618">
        <ele>1931.872992</ele>
        <time>2022-05-22T03:51:31.933Z</time>
      </trkpt>
      <trkpt lat="42.304957" lon="1.988684">
        <ele>1932.849734</ele>
        <time>2022-05-22T03:51:37.937Z</time>
      </trkpt>
      <trkpt lat="42.304864" lon="1.988722">
        <ele>1933.753216</ele>
        <time>2022-05-22T03:51:42.942Z</time>
      </trkpt>
      <trkpt lat="42.304772" lon="1.988798">
        <ele>1934.755810</ele>
        <time>2022-05-22T03:51:48.948Z</time>
      </trkpt>
      <trkpt lat="42.304687" lon="1.988848">
        <ele>1935.617833</ele>
        <time>2022-05-22T03:51:53.941Z</time>
      </trkpt>
      <trkpt lat="42.304581" lon="1.988892">
        <ele>1936.648988</ele>
        <time>2022-05-22T03:51:59.935Z</time>
      </trkpt>
      <trkpt lat="42.304495" lon="1.988943">
        <ele>1937.522286</ele>
        <time>2022-05-22T03:52:04.945Z</time>
      </trkpt>
      <trkpt lat="42.304390" lon="1.988991">
        <ele>1938.553033</ele>
        <time>2022-05-22T03:52:10.956Z</time>
      </trkpt>
      <trkpt lat="42.304310" lon="1.989053">
        <ele>1939.410537</ele>
        <time>2022-05-22T03:52:15.942Z</time>
      </trkpt>
      <trkpt lat="42.304224" lon="1.989097">
        <ele>1940.265636</ele>
        <time>2022-05-22T03:52:20.940Z</time>
      </trkpt>
      <trkpt lat="42.304139" lon="1.989156">
        <ele>1941.154168</ele>
        <time>2022-05-22T03:52:25.954Z</time>
      </trkpt>
      <trkpt lat="42.304044" lon="1.989192">
        <ele>1942.071663</ele>
        <time>2022-05-22T03:52:31.940Z</time>
      </trkpt>
      <trkpt lat="42.303952" lon="1.989238">
        <ele>1942.983843</ele>
        <time>2022-05-22T03:52:36.938Z</time>
      </trkpt>
      <trkpt lat="42.303860" lon="1.989308">
        <ele>1943.965558</ele>
        <time>2022-05-22T03:52:42.945Z</time>
      </trkpt>
      <trkpt lat="42.303773" lon="1.989357">
        <ele>1944.842001</ele>
        <time>2022-05-22T03:52:47.942Z</time>
      </trkpt>
      <trkpt lat="42.303683" lon="1.989421">
        <ele>1945.787652</ele>
        <time>2022-05-22T03:52:53.939Z</time>
      </trkpt>
      <trkpt lat="42.303590" lon="1.989459">
        <ele>1946.691136</ele>
        <time>2022-05-22T03:52:58.937Z</time>
      </trkpt>
      <trkpt lat="42.303501" lon="1.989491">
        <ele>1947.549517</ele>
        <time>2022-05-22T03:53:03.940Z</time>
      </trkpt>
      <trkpt lat="42.303416" lon="1.989548">
        <ele>1948.455706</ele>
        <time>2022-05-22T03:53:08.939Z</time>
      </trkpt>
      <trkpt lat="42.303318" lon="1.989564">
        <ele>1949.398494</ele>
        <time>2022-05-22T03:53:13.942Z</time>
      </trkpt>
      <trkpt lat="42.303215" lon="1.989576">
        <ele>1950.385883</ele>
        <time>2022-05-22T03:53:19.941Z</time>
      </trkpt>
      <trkpt lat="42.303119" lon="1.989587">
        <ele>1951.306057</ele>
        <time>2022-05-22T03:53:24.946Z</time>
      </trkpt>
      <trkpt lat="42.303026" lon="1.989587">
        <ele>1952.194292</ele>
        <time>2022-05-22T03:53:29.957Z</time>
      </trkpt>
      <trkpt lat="42.302919" lon="1.989596">
        <ele>1953.218215</ele>
        <time>2022-05-22T03:53:35.941Z</time>
      </trkpt>
      <trkpt lat="42.302820" lon="1.989584">
        <ele>1954.167547</ele>
        <time>2022-05-22T03:53:40.945Z</time>
      </trkpt>
      <trkpt lat="42.302724" lon="1.989579">
        <ele>1955.085115</ele>
        <time>2022-05-22T03:53:45.940Z</time>
      </trkpt>
      <trkpt lat="42.302618" lon="1.989583">
        <ele>1956.097906</ele>
        <time>2022-05-22T03:53:51.937Z</time>
      </trkpt>
      <trkpt lat="42.302516" lon="1.989587">
        <ele>1957.072508</ele>
        <time>2022-05-22T03:53:57.933Z</time>
      </trkpt>
      <trkpt lat="42.302416" lon="1.989600">
        <ele>1958.032004</ele>
        <time>2022-05-22T03:54:04.944Z</time>
      </trkpt>
      <trkpt lat="42.302320" lon="1.989674">
        <ele>1959.087431</ele>
        <time>2022-05-22T03:54:09.941Z</time>
      </trkpt>
      <trkpt lat="42.302238" lon="1.989766">
        <ele>1960.105127</ele>
        <time>2022-05-22T03:54:14.944Z</time>
      </trkpt>
      <trkpt lat="42.302204" lon="1.989895">
        <ele>1961.072502</ele>
        <time>2022-05-22T03:54:20.941Z</time>
      </trkpt>
      <trkpt lat="42.302218" lon="1.990028">
        <ele>1962.021469</ele>
        <time>2022-05-22T03:54:26.938Z</time>
      </trkpt>
      <trkpt lat="42.302253" lon="1.990141">
        <ele>1962.886859</ele>
        <time>2022-05-22T03:54:31.948Z</time>
      </trkpt>
      <trkpt lat="42.302271" lon="1.990261">
        <ele>1963.751785</ele>
        <time>2022-05-22T03:54:36.948Z</time>
      </trkpt>
      <trkpt lat="42.302278" lon="1.990390">
        <ele>1964.662225</ele>
        <time>2022-05-22T03:54:41.940Z</time>
      </trkpt>
      <trkpt lat="42.302288" lon="1.990517">
        <ele>1965.314958</ele>
        <time>2022-05-22T03:54:46.950Z</time>
      </trkpt>
      <trkpt lat="42.302273" lon="1.990643">
        <ele>1965.967201</ele>
        <time>2022-05-22T03:54:51.948Z</time>
      </trkpt>
      <trkpt lat="42.302255" lon="1.990767">
        <ele>1966.613025</ele>
        <time>2022-05-22T03:54:56.939Z</time>
      </trkpt>
      <trkpt lat="42.302240" lon="1.990889">
        <ele>1967.245094</ele>
        <time>2022-05-22T03:55:00.944Z</time>
      </trkpt>
      <trkpt lat="42.302206" lon="1.991020">
        <ele>1967.954629</ele>
        <time>2022-05-22T03:55:05.944Z</time>
      </trkpt>
      <trkpt lat="42.302158" lon="1.991144">
        <ele>1968.669916</ele>
        <time>2022-05-22T03:55:11.946Z</time>
      </trkpt>
      <trkpt lat="42.302098" lon="1.991267">
        <ele>1969.422954</ele>
        <time>2022-05-22T03:55:17.950Z</time>
      </trkpt>
      <trkpt lat="42.302044" lon="1.991369">
        <ele>1970.064039</ele>
        <time>2022-05-22T03:55:22.940Z</time>
      </trkpt>
      <trkpt lat="42.301990" lon="1.991478">
        <ele>1970.734538</ele>
        <time>2022-05-22T03:55:27.939Z</time>
      </trkpt>
      <trkpt lat="42.301925" lon="1.991570">
        <ele>1971.384786</ele>
        <time>2022-05-22T03:55:32.945Z</time>
      </trkpt>
      <trkpt lat="42.301875" lon="1.991672">
        <ele>1972.010188</ele>
        <time>2022-05-22T03:55:37.941Z</time>
      </trkpt>
      <trkpt lat="42.301815" lon="1.991785">
        <ele>1972.721122</ele>
        <time>2022-05-22T03:55:42.955Z</time>
      </trkpt>
      <trkpt lat="42.301745" lon="1.991900">
        <ele>1973.482314</ele>
        <time>2022-05-22T03:55:48.945Z</time>
      </trkpt>
      <trkpt lat="42.301690" lon="1.992005">
        <ele>1974.139899</ele>
        <time>2022-05-22T03:55:52.943Z</time>
      </trkpt>
      <trkpt lat="42.301635" lon="1.992104">
        <ele>1974.772708</ele>
        <time>2022-05-22T03:55:56.938Z</time>
      </trkpt>
      <trkpt lat="42.301584" lon="1.992207">
        <ele>1975.406197</ele>
        <time>2022-05-22T03:56:00.945Z</time>
      </trkpt>
      <trkpt lat="42.301544" lon="1.992322">
        <ele>1976.055690</ele>
        <time>2022-05-22T03:56:04.953Z</time>
      </trkpt>
      <trkpt lat="42.301514" lon="1.992444">
        <ele>1976.712767</ele>
        <time>2022-05-22T03:56:08.944Z</time>
      </trkpt>
      <trkpt lat="42.301464" lon="1.992588">
        <ele>1977.365240</ele>
        <time>2022-05-22T03:56:12.944Z</time>
      </trkpt>
      <trkpt lat="42.301436" lon="1.992729">
        <ele>1977.841120</ele>
        <time>2022-05-22T03:56:17.944Z</time>
      </trkpt>
      <trkpt lat="42.301424" lon="1.992865">
        <ele>1978.287568</ele>
        <time>2022-05-22T03:56:23.946Z</time>
      </trkpt>
      <trkpt lat="42.301390" lon="1.992979">
        <ele>1978.688236</ele>
        <time>2022-05-22T03:56:29.938Z</time>
      </trkpt>
      <trkpt lat="42.301380" lon="1.993109">
        <ele>1979.114269</ele>
        <time>2022-05-22T03:58:06.932Z</time>
      </trkpt>
      <trkpt lat="42.301388" lon="1.993232">
        <ele>1979.516746</ele>
        <time>2022-05-22T03:58:10.941Z</time>
      </trkpt>
      <trkpt lat="42.301371" lon="1.993355">
        <ele>1979.924616</ele>
        <time>2022-05-22T03:58:13.931Z</time>
      </trkpt>
      <trkpt lat="42.301381" lon="1.993478">
        <ele>1980.327961</ele>
        <time>2022-05-22T03:58:16.932Z</time>
      </trkpt>
      <trkpt lat="42.301388" lon="1.993635">
        <ele>1980.840647</ele>
        <time>2022-05-22T03:58:20.941Z</time>
      </trkpt>
      <trkpt lat="42.301412" lon="1.993789">
        <ele>1981.353647</ele>
        <time>2022-05-22T03:58:23.933Z</time>
      </trkpt>
      <trkpt lat="42.301408" lon="1.993915">
        <ele>1981.764733</ele>
        <time>2022-05-22T03:58:25.933Z</time>
      </trkpt>
      <trkpt lat="42.301406" lon="1.994049">
        <ele>1982.201608</ele>
        <time>2022-05-22T03:58:27.933Z</time>
      </trkpt>
      <trkpt lat="42.301386" lon="1.994193">
        <ele>1982.679193</ele>
        <time>2022-05-22T03:58:29.940Z</time>
      </trkpt>
      <trkpt lat="42.301365" lon="1.994339">
        <ele>1983.164010</ele>
        <time>2022-05-22T03:58:31.936Z</time>
      </trkpt>
      <trkpt lat="42.301335" lon="1.994481">
        <ele>1983.645386</ele>
        <time>2022-05-22T03:58:33.926Z</time>
      </trkpt>
      <trkpt lat="42.301302" lon="1.994627">
        <ele>1984.143014</ele>
        <time>2022-05-22T03:58:35.940Z</time>
      </trkpt>
      <trkpt lat="42.301262" lon="1.994766">
        <ele>1984.629185</ele>
        <time>2022-05-22T03:58:37.927Z</time>
      </trkpt>
      <trkpt lat="42.301222" lon="1.994916">
        <ele>1985.069092</ele>
        <time>2022-05-22T03:58:39.937Z</time>
      </trkpt>
      <trkpt lat="42.301182" lon="1.995060">
        <ele>1985.283511</ele>
        <time>2022-05-22T03:58:41.934Z</time>
      </trkpt>
      <trkpt lat="42.301143" lon="1.995215">
        <ele>1985.511734</ele>
        <time>2022-05-22T03:58:43.936Z</time>
      </trkpt>
      <trkpt lat="42.301106" lon="1.995361">
        <ele>1985.726866</ele>
        <time>2022-05-22T03:58:45.935Z</time>
      </trkpt>
      <trkpt lat="42.301074" lon="1.995511">
        <ele>1985.944483</ele>
        <time>2022-05-22T03:58:47.930Z</time>
      </trkpt>
      <trkpt lat="42.301038" lon="1.995662">
        <ele>1986.165634</ele>
        <time>2022-05-22T03:58:49.931Z</time>
      </trkpt>
      <trkpt lat="42.301004" lon="1.995811">
        <ele>1986.382994</ele>
        <time>2022-05-22T03:58:51.929Z</time>
      </trkpt>
      <trkpt lat="42.300975" lon="1.995970">
        <ele>1986.611272</ele>
        <time>2022-05-22T03:58:53.937Z</time>
      </trkpt>
      <trkpt lat="42.300952" lon="1.996125">
        <ele>1986.831640</ele>
        <time>2022-05-22T03:58:55.933Z</time>
      </trkpt>
      <trkpt lat="42.300924" lon="1.996286">
        <ele>1987.062188</ele>
        <time>2022-05-22T03:58:57.932Z</time>
      </trkpt>
      <trkpt lat="42.300906" lon="1.996448">
        <ele>1987.290543</ele>
        <time>2022-05-22T03:58:59.939Z</time>
      </trkpt>
      <trkpt lat="42.300886" lon="1.996606">
        <ele>1987.513990</ele>
        <time>2022-05-22T03:59:01.933Z</time>
      </trkpt>
      <trkpt lat="42.300871" lon="1.996763">
        <ele>1987.734660</ele>
        <time>2022-05-22T03:59:03.932Z</time>
      </trkpt>
      <trkpt lat="42.300860" lon="1.996931">
        <ele>1987.969760</ele>
        <time>2022-05-22T03:59:05.924Z</time>
      </trkpt>
      <trkpt lat="42.300847" lon="1.997104">
        <ele>1988.212156</ele>
        <time>2022-05-22T03:59:07.933Z</time>
      </trkpt>
      <trkpt lat="42.300845" lon="1.997274">
        <ele>1988.378324</ele>
        <time>2022-05-22T03:59:09.934Z</time>
      </trkpt>
      <trkpt lat="42.300833" lon="1.997442">
        <ele>1988.279186</ele>
        <time>2022-05-22T03:59:11.928Z</time>
      </trkpt>
      <trkpt lat="42.300818" lon="1.997598">
        <ele>1988.186784</ele>
        <time>2022-05-22T03:59:13.928Z</time>
      </trkpt>
      <trkpt lat="42.300810" lon="1.997759">
        <ele>1988.092004</ele>
        <time>2022-05-22T03:59:15.935Z</time>
      </trkpt>
      <trkpt lat="42.300795" lon="1.997929">
        <ele>1987.991442</ele>
        <time>2022-05-22T03:59:17.934Z</time>
      </trkpt>
      <trkpt lat="42.300775" lon="1.998096">
        <ele>1987.892072</ele>
        <time>2022-05-22T03:59:19.930Z</time>
      </trkpt>
      <trkpt lat="42.300756" lon="1.998276">
        <ele>1987.785273</ele>
        <time>2022-05-22T03:59:21.920Z</time>
      </trkpt>
      <trkpt lat="42.300734" lon="1.998459">
        <ele>1987.676372</ele>
        <time>2022-05-22T03:59:23.936Z</time>
      </trkpt>
      <trkpt lat="42.300679" lon="1.998633">
        <ele>1987.565226</ele>
        <time>2022-05-22T03:59:25.930Z</time>
      </trkpt>
      <trkpt lat="42.300593" lon="1.998793">
        <ele>1987.449050</ele>
        <time>2022-05-22T03:59:27.931Z</time>
      </trkpt>
      <trkpt lat="42.300511" lon="1.998952">
        <ele>1987.335195</ele>
        <time>2022-05-22T03:59:29.922Z</time>
      </trkpt>
      <trkpt lat="42.300444" lon="1.999118">
        <ele>1987.224117</ele>
        <time>2022-05-22T03:59:31.928Z</time>
      </trkpt>
      <trkpt lat="42.300382" lon="1.999269">
        <ele>1987.122672</ele>
        <time>2022-05-22T03:59:33.934Z</time>
      </trkpt>
      <trkpt lat="42.300318" lon="1.999400">
        <ele>1987.030454</ele>
        <time>2022-05-22T03:59:35.929Z</time>
      </trkpt>
      <trkpt lat="42.300253" lon="1.999539">
        <ele>1986.880430</ele>
        <time>2022-05-22T03:59:37.941Z</time>
      </trkpt>
      <trkpt lat="42.300201" lon="1.999659">
        <ele>1986.680958</ele>
        <time>2022-05-22T03:59:39.921Z</time>
      </trkpt>
      <trkpt lat="42.300124" lon="1.999808">
        <ele>1986.420262</ele>
        <time>2022-05-22T03:59:42.932Z</time>
      </trkpt>
      <trkpt lat="42.300072" lon="1.999914">
        <ele>1986.237832</ele>
        <time>2022-05-22T03:59:44.933Z</time>
      </trkpt>
      <trkpt lat="42.300011" lon="2.000078">
        <ele>1985.974548</ele>
        <time>2022-05-22T03:59:47.934Z</time>
      </trkpt>
      <trkpt lat="42.299979" lon="2.000192">
        <ele>1985.799666</ele>
        <time>2022-05-22T03:59:49.938Z</time>
      </trkpt>
      <trkpt lat="42.299953" lon="2.000317">
        <ele>1985.613431</ele>
        <time>2022-05-22T03:59:51.928Z</time>
      </trkpt>
      <trkpt lat="42.299924" lon="2.000457">
        <ele>1985.404911</ele>
        <time>2022-05-22T03:59:53.921Z</time>
      </trkpt>
      <trkpt lat="42.299913" lon="2.000603">
        <ele>1985.194428</ele>
        <time>2022-05-22T03:59:55.922Z</time>
      </trkpt>
      <trkpt lat="42.299907" lon="2.000769">
        <ele>1984.956060</ele>
        <time>2022-05-22T03:59:57.951Z</time>
      </trkpt>
      <trkpt lat="42.299899" lon="2.000934">
        <ele>1984.718901</ele>
        <time>2022-05-22T03:59:59.971Z</time>
      </trkpt>
      <trkpt lat="42.299890" lon="2.001096">
        <ele>1984.485899</ele>
        <time>2022-05-22T04:00:01.935Z</time>
      </trkpt>
      <trkpt lat="42.299883" lon="2.001268">
        <ele>1984.238836</ele>
        <time>2022-05-22T04:00:03.930Z</time>
      </trkpt>
      <trkpt lat="42.299873" lon="2.001442">
        <ele>1983.988526</ele>
        <time>2022-05-22T04:00:05.927Z</time>
      </trkpt>
      <trkpt lat="42.299851" lon="2.001608">
        <ele>1983.746649</ele>
        <time>2022-05-22T04:00:07.928Z</time>
      </trkpt>
      <trkpt lat="42.299827" lon="2.001767">
        <ele>1983.513904</ele>
        <time>2022-05-22T04:00:09.929Z</time>
      </trkpt>
      <trkpt lat="42.299814" lon="2.001927">
        <ele>1983.191722</ele>
        <time>2022-05-22T04:00:11.926Z</time>
      </trkpt>
      <trkpt lat="42.299806" lon="2.002094">
        <ele>1982.842142</ele>
        <time>2022-05-22T04:00:13.935Z</time>
      </trkpt>
      <trkpt lat="42.299801" lon="2.002247">
        <ele>1982.522225</ele>
        <time>2022-05-22T04:00:15.933Z</time>
      </trkpt>
      <trkpt lat="42.299797" lon="2.002400">
        <ele>1982.202422</ele>
        <time>2022-05-22T04:00:17.946Z</time>
      </trkpt>
      <trkpt lat="42.299807" lon="2.002552">
        <ele>1981.883653</ele>
        <time>2022-05-22T04:00:19.938Z</time>
      </trkpt>
      <trkpt lat="42.299839" lon="2.002703">
        <ele>1981.555534</ele>
        <time>2022-05-22T04:00:21.941Z</time>
      </trkpt>
      <trkpt lat="42.299881" lon="2.002851">
        <ele>1981.224400</ele>
        <time>2022-05-22T04:00:23.930Z</time>
      </trkpt>
      <trkpt lat="42.299949" lon="2.002997">
        <ele>1980.863988</ele>
        <time>2022-05-22T04:00:25.941Z</time>
      </trkpt>
      <trkpt lat="42.300023" lon="2.003145">
        <ele>1980.490815</ele>
        <time>2022-05-22T04:00:27.947Z</time>
      </trkpt>
      <trkpt lat="42.300101" lon="2.003331">
        <ele>1980.044172</ele>
        <time>2022-05-22T04:00:29.946Z</time>
      </trkpt>
      <trkpt lat="42.300151" lon="2.003553">
        <ele>1979.559411</ele>
        <time>2022-05-22T04:00:31.938Z</time>
      </trkpt>
      <trkpt lat="42.300206" lon="2.003780">
        <ele>1979.060436</ele>
        <time>2022-05-22T04:00:33.944Z</time>
      </trkpt>
      <trkpt lat="42.300220" lon="2.004010">
        <ele>1978.578364</ele>
        <time>2022-05-22T04:00:35.947Z</time>
      </trkpt>
      <trkpt lat="42.300193" lon="2.004251">
        <ele>1977.775612</ele>
        <time>2022-05-22T04:00:37.944Z</time>
      </trkpt>
      <trkpt lat="42.300177" lon="2.004372">
        <ele>1977.293207</ele>
        <time>2022-05-22T04:00:38.944Z</time>
      </trkpt>
      <trkpt lat="42.300167" lon="2.004493">
        <ele>1976.815376</ele>
        <time>2022-05-22T04:00:39.939Z</time>
      </trkpt>
      <trkpt lat="42.300156" lon="2.004621">
        <ele>1976.309649</ele>
        <time>2022-05-22T04:00:40.939Z</time>
      </trkpt>
      <trkpt lat="42.300140" lon="2.004760">
        <ele>1975.757564</ele>
        <time>2022-05-22T04:00:41.936Z</time>
      </trkpt>
      <trkpt lat="42.300129" lon="2.004890">
        <ele>1975.244039</ele>
        <time>2022-05-22T04:00:42.940Z</time>
      </trkpt>
      <trkpt lat="42.300124" lon="2.005026">
        <ele>1974.709635</ele>
        <time>2022-05-22T04:00:43.941Z</time>
      </trkpt>
      <trkpt lat="42.300119" lon="2.005162">
        <ele>1974.175231</ele>
        <time>2022-05-22T04:00:44.945Z</time>
      </trkpt>
      <trkpt lat="42.300123" lon="2.005302">
        <ele>1973.625378</ele>
        <time>2022-05-22T04:00:45.941Z</time>
      </trkpt>
      <trkpt lat="42.300130" lon="2.005440">
        <ele>1973.082512</ele>
        <time>2022-05-22T04:00:46.943Z</time>
      </trkpt>
      <trkpt lat="42.300134" lon="2.005584">
        <ele>1972.516972</ele>
        <time>2022-05-22T04:00:47.941Z</time>
      </trkpt>
      <trkpt lat="42.300144" lon="2.005731">
        <ele>1971.937622</ele>
        <time>2022-05-22T04:00:48.940Z</time>
      </trkpt>
      <trkpt lat="42.300155" lon="2.005873">
        <ele>1971.377281</ele>
        <time>2022-05-22T04:00:49.941Z</time>
      </trkpt>
      <trkpt lat="42.300165" lon="2.006014">
        <ele>1970.821376</ele>
        <time>2022-05-22T04:00:50.938Z</time>
      </trkpt>
      <trkpt lat="42.300182" lon="2.006144">
        <ele>1970.303266</ele>
        <time>2022-05-22T04:00:51.938Z</time>
      </trkpt>
      <trkpt lat="42.300216" lon="2.006268">
        <ele>1969.784252</ele>
        <time>2022-05-22T04:00:52.932Z</time>
      </trkpt>
      <trkpt lat="42.300263" lon="2.006383">
        <ele>1969.268605</ele>
        <time>2022-05-22T04:00:53.949Z</time>
      </trkpt>
      <trkpt lat="42.300326" lon="2.006483">
        <ele>1968.807191</ele>
        <time>2022-05-22T04:00:54.944Z</time>
      </trkpt>
      <trkpt lat="42.300406" lon="2.006556">
        <ele>1968.555759</ele>
        <time>2022-05-22T04:00:55.943Z</time>
      </trkpt>
      <trkpt lat="42.300487" lon="2.006609">
        <ele>1968.321334</ele>
        <time>2022-05-22T04:00:56.939Z</time>
      </trkpt>
      <trkpt lat="42.300575" lon="2.006637">
        <ele>1968.085822</ele>
        <time>2022-05-22T04:00:57.943Z</time>
      </trkpt>
      <trkpt lat="42.300667" lon="2.006673">
        <ele>1967.836317</ele>
        <time>2022-05-22T04:00:58.938Z</time>
      </trkpt>
      <trkpt lat="42.300757" lon="2.006708">
        <ele>1967.592352</ele>
        <time>2022-05-22T04:00:59.939Z</time>
      </trkpt>
      <trkpt lat="42.300909" lon="2.006821">
        <ele>1967.140465</ele>
        <time>2022-05-22T04:01:01.944Z</time>
      </trkpt>
      <trkpt lat="42.300961" lon="2.006923">
        <ele>1966.901770</ele>
        <time>2022-05-22T04:01:02.942Z</time>
      </trkpt>
      <trkpt lat="42.300973" lon="2.007049">
        <ele>1966.656991</ele>
        <time>2022-05-22T04:01:03.943Z</time>
      </trkpt>
      <trkpt lat="42.300940" lon="2.007192">
        <ele>1966.368360</ele>
        <time>2022-05-22T04:01:04.949Z</time>
      </trkpt>
      <trkpt lat="42.300873" lon="2.007324">
        <ele>1966.059894</ele>
        <time>2022-05-22T04:01:05.939Z</time>
      </trkpt>
      <trkpt lat="42.300811" lon="2.007438">
        <ele>1965.787249</ele>
        <time>2022-05-22T04:01:06.937Z</time>
      </trkpt>
      <trkpt lat="42.300761" lon="2.007556">
        <ele>1965.525220</ele>
        <time>2022-05-22T04:01:07.937Z</time>
      </trkpt>
      <trkpt lat="42.300703" lon="2.007674">
        <ele>1965.252230</ele>
        <time>2022-05-22T04:01:08.944Z</time>
      </trkpt>
      <trkpt lat="42.300656" lon="2.007794">
        <ele>1964.990597</ele>
        <time>2022-05-22T04:01:09.947Z</time>
      </trkpt>
      <trkpt lat="42.300615" lon="2.007923">
        <ele>1964.720063</ele>
        <time>2022-05-22T04:01:10.941Z</time>
      </trkpt>
      <trkpt lat="42.300565" lon="2.008057">
        <ele>1964.430877</ele>
        <time>2022-05-22T04:01:11.943Z</time>
      </trkpt>
      <trkpt lat="42.300513" lon="2.008194">
        <ele>1964.050678</ele>
        <time>2022-05-22T04:01:12.934Z</time>
      </trkpt>
      <trkpt lat="42.300460" lon="2.008337">
        <ele>1963.092039</ele>
        <time>2022-05-22T04:01:13.945Z</time>
      </trkpt>
      <trkpt lat="42.300409" lon="2.008477">
        <ele>1962.156714</ele>
        <time>2022-05-22T04:01:14.944Z</time>
      </trkpt>
      <trkpt lat="42.300363" lon="2.008624">
        <ele>1961.200077</ele>
        <time>2022-05-22T04:01:15.948Z</time>
      </trkpt>
      <trkpt lat="42.300324" lon="2.008777">
        <ele>1960.230158</ele>
        <time>2022-05-22T04:01:16.939Z</time>
      </trkpt>
      <trkpt lat="42.300290" lon="2.008929">
        <ele>1959.278412</ele>
        <time>2022-05-22T04:01:17.939Z</time>
      </trkpt>
      <trkpt lat="42.300265" lon="2.009079">
        <ele>1958.356860</ele>
        <time>2022-05-22T04:01:18.938Z</time>
      </trkpt>
      <trkpt lat="42.300239" lon="2.009233">
        <ele>1957.410135</ele>
        <time>2022-05-22T04:01:19.938Z</time>
      </trkpt>
      <trkpt lat="42.300220" lon="2.009393">
        <ele>1956.438909</ele>
        <time>2022-05-22T04:01:20.934Z</time>
      </trkpt>
      <trkpt lat="42.300207" lon="2.009543">
        <ele>1955.533748</ele>
        <time>2022-05-22T04:01:21.939Z</time>
      </trkpt>
      <trkpt lat="42.300193" lon="2.009694">
        <ele>1954.621661</ele>
        <time>2022-05-22T04:01:22.928Z</time>
      </trkpt>
      <trkpt lat="42.300184" lon="2.009846">
        <ele>1953.707748</ele>
        <time>2022-05-22T04:01:23.941Z</time>
      </trkpt>
      <trkpt lat="42.300179" lon="2.010004">
        <ele>1952.759923</ele>
        <time>2022-05-22T04:01:24.946Z</time>
      </trkpt>
      <trkpt lat="42.300179" lon="2.010158">
        <ele>1951.836938</ele>
        <time>2022-05-22T04:01:25.940Z</time>
      </trkpt>
      <trkpt lat="42.300190" lon="2.010321">
        <ele>1950.855954</ele>
        <time>2022-05-22T04:01:26.940Z</time>
      </trkpt>
      <trkpt lat="42.300216" lon="2.010470">
        <ele>1949.938420</ele>
        <time>2022-05-22T04:01:27.943Z</time>
      </trkpt>
      <trkpt lat="42.300255" lon="2.010607">
        <ele>1949.418083</ele>
        <time>2022-05-22T04:01:28.947Z</time>
      </trkpt>
      <trkpt lat="42.300301" lon="2.010740">
        <ele>1949.123637</ele>
        <time>2022-05-22T04:01:29.945Z</time>
      </trkpt>
      <trkpt lat="42.300361" lon="2.010871">
        <ele>1948.814630</ele>
        <time>2022-05-22T04:01:30.942Z</time>
      </trkpt>
      <trkpt lat="42.300421" lon="2.010992">
        <ele>1948.522483</ele>
        <time>2022-05-22T04:01:31.948Z</time>
      </trkpt>
      <trkpt lat="42.300485" lon="2.011108">
        <ele>1948.232258</ele>
        <time>2022-05-22T04:01:32.941Z</time>
      </trkpt>
      <trkpt lat="42.300551" lon="2.011213">
        <ele>1947.955915</ele>
        <time>2022-05-22T04:01:33.958Z</time>
      </trkpt>
      <trkpt lat="42.300620" lon="2.011331">
        <ele>1947.654251</ele>
        <time>2022-05-22T04:01:34.940Z</time>
      </trkpt>
      <trkpt lat="42.300689" lon="2.011452">
        <ele>1947.347844</ele>
        <time>2022-05-22T04:01:35.942Z</time>
      </trkpt>
      <trkpt lat="42.300764" lon="2.011565">
        <ele>1947.043364</ele>
        <time>2022-05-22T04:01:36.941Z</time>
      </trkpt>
      <trkpt lat="42.300849" lon="2.011671">
        <ele>1946.729826</ele>
        <time>2022-05-22T04:01:37.950Z</time>
      </trkpt>
      <trkpt lat="42.300933" lon="2.011756">
        <ele>1946.445341</ele>
        <time>2022-05-22T04:01:38.940Z</time>
      </trkpt>
      <trkpt lat="42.301020" lon="2.011833">
        <ele>1946.163399</ele>
        <time>2022-05-22T04:01:39.940Z</time>
      </trkpt>
      <trkpt lat="42.301122" lon="2.011902">
        <ele>1945.854148</ele>
        <time>2022-05-22T04:01:40.936Z</time>
      </trkpt>
      <trkpt lat="42.301220" lon="2.011969">
        <ele>1945.556389</ele>
        <time>2022-05-22T04:01:41.938Z</time>
      </trkpt>
      <trkpt lat="42.301327" lon="2.012028">
        <ele>1945.243066</ele>
        <time>2022-05-22T04:01:42.940Z</time>
      </trkpt>
      <trkpt lat="42.301436" lon="2.012080">
        <ele>1944.929662</ele>
        <time>2022-05-22T04:01:43.946Z</time>
      </trkpt>
      <trkpt lat="42.301550" lon="2.012127">
        <ele>1944.445628</ele>
        <time>2022-05-22T04:01:44.940Z</time>
      </trkpt>
      <trkpt lat="42.301656" lon="2.012155">
        <ele>1943.744704</ele>
        <time>2022-05-22T04:01:45.941Z</time>
      </trkpt>
      <trkpt lat="42.301755" lon="2.012166">
        <ele>1943.100048</ele>
        <time>2022-05-22T04:01:46.938Z</time>
      </trkpt>
      <trkpt lat="42.301853" lon="2.012166">
        <ele>1942.464048</ele>
        <time>2022-05-22T04:01:47.937Z</time>
      </trkpt>
      <trkpt lat="42.301943" lon="2.012169">
        <ele>1941.879789</ele>
        <time>2022-05-22T04:01:48.922Z</time>
      </trkpt>
      <trkpt lat="42.302094" lon="2.012225">
        <ele>1940.863634</ele>
        <time>2022-05-22T04:01:50.934Z</time>
      </trkpt>
      <trkpt lat="42.302163" lon="2.012379">
        <ele>1939.999393</ele>
        <time>2022-05-22T04:01:52.936Z</time>
      </trkpt>
      <trkpt lat="42.302101" lon="2.012563">
        <ele>1939.028874</ele>
        <time>2022-05-22T04:01:54.943Z</time>
      </trkpt>
      <trkpt lat="42.301968" lon="2.012672">
        <ele>1938.019546</ele>
        <time>2022-05-22T04:01:56.935Z</time>
      </trkpt>
      <trkpt lat="42.301874" lon="2.012695">
        <ele>1937.399596</ele>
        <time>2022-05-22T04:01:57.938Z</time>
      </trkpt>
      <trkpt lat="42.301763" lon="2.012723">
        <ele>1936.666799</ele>
        <time>2022-05-22T04:01:58.937Z</time>
      </trkpt>
      <trkpt lat="42.301658" lon="2.012752">
        <ele>1935.971299</ele>
        <time>2022-05-22T04:01:59.935Z</time>
      </trkpt>
      <trkpt lat="42.301557" lon="2.012776">
        <ele>1935.305783</ele>
        <time>2022-05-22T04:02:00.938Z</time>
      </trkpt>
      <trkpt lat="42.301455" lon="2.012790">
        <ele>1934.640422</ele>
        <time>2022-05-22T04:02:01.944Z</time>
      </trkpt>
      <trkpt lat="42.301346" lon="2.012799">
        <ele>1933.931716</ele>
        <time>2022-05-22T04:02:02.947Z</time>
      </trkpt>
      <trkpt lat="42.301239" lon="2.012816">
        <ele>1933.232530</ele>
        <time>2022-05-22T04:02:03.940Z</time>
      </trkpt>
      <trkpt lat="42.301120" lon="2.012827">
        <ele>1932.322660</ele>
        <time>2022-05-22T04:02:04.953Z</time>
      </trkpt>
      <trkpt lat="42.301000" lon="2.012836">
        <ele>1931.363396</ele>
        <time>2022-05-22T04:02:05.937Z</time>
      </trkpt>
      <trkpt lat="42.300883" lon="2.012853">
        <ele>1930.424172</ele>
        <time>2022-05-22T04:02:06.934Z</time>
      </trkpt>
      <trkpt lat="42.300766" lon="2.012853">
        <ele>1929.490325</ele>
        <time>2022-05-22T04:02:07.934Z</time>
      </trkpt>
      <trkpt lat="42.300651" lon="2.012854">
        <ele>1928.572422</ele>
        <time>2022-05-22T04:02:08.936Z</time>
      </trkpt>
      <trkpt lat="42.300534" lon="2.012849">
        <ele>1927.638109</ele>
        <time>2022-05-22T04:02:09.929Z</time>
      </trkpt>
      <trkpt lat="42.300418" lon="2.012835">
        <ele>1926.708562</ele>
        <time>2022-05-22T04:02:10.941Z</time>
      </trkpt>
      <trkpt lat="42.300302" lon="2.012819">
        <ele>1925.777891</ele>
        <time>2022-05-22T04:02:11.946Z</time>
      </trkpt>
      <trkpt lat="42.300188" lon="2.012793">
        <ele>1924.855134</ele>
        <time>2022-05-22T04:02:12.936Z</time>
      </trkpt>
      <trkpt lat="42.300072" lon="2.012770">
        <ele>1923.919366</ele>
        <time>2022-05-22T04:02:13.943Z</time>
      </trkpt>
      <trkpt lat="42.299957" lon="2.012737">
        <ele>1922.981036</ele>
        <time>2022-05-22T04:02:14.941Z</time>
      </trkpt>
      <trkpt lat="42.299846" lon="2.012696">
        <ele>1922.062611</ele>
        <time>2022-05-22T04:02:15.937Z</time>
      </trkpt>
      <trkpt lat="42.299735" lon="2.012651">
        <ele>1921.137682</ele>
        <time>2022-05-22T04:02:16.941Z</time>
      </trkpt>
      <trkpt lat="42.299618" lon="2.012607">
        <ele>1920.168383</ele>
        <time>2022-05-22T04:02:17.944Z</time>
      </trkpt>
      <trkpt lat="42.299500" lon="2.012567">
        <ele>1919.197402</ele>
        <time>2022-05-22T04:02:18.937Z</time>
      </trkpt>
      <trkpt lat="42.299384" lon="2.012522">
        <ele>1918.576437</ele>
        <time>2022-05-22T04:02:19.942Z</time>
      </trkpt>
      <trkpt lat="42.299268" lon="2.012488">
        <ele>1918.335628</ele>
        <time>2022-05-22T04:02:20.950Z</time>
      </trkpt>
      <trkpt lat="42.299157" lon="2.012484">
        <ele>1918.110350</ele>
        <time>2022-05-22T04:02:21.942Z</time>
      </trkpt>
      <trkpt lat="42.299045" lon="2.012509">
        <ele>1917.880048</ele>
        <time>2022-05-22T04:02:22.943Z</time>
      </trkpt>
      <trkpt lat="42.298944" lon="2.012572">
        <ele>1917.654382</ele>
        <time>2022-05-22T04:02:23.947Z</time>
      </trkpt>
      <trkpt lat="42.298858" lon="2.012656">
        <ele>1917.439135</ele>
        <time>2022-05-22T04:02:24.943Z</time>
      </trkpt>
      <trkpt lat="42.298778" lon="2.012757">
        <ele>1917.217069</ele>
        <time>2022-05-22T04:02:25.943Z</time>
      </trkpt>
      <trkpt lat="42.298707" lon="2.012877">
        <ele>1916.986472</ele>
        <time>2022-05-22T04:02:26.935Z</time>
      </trkpt>
      <trkpt lat="42.298644" lon="2.013007">
        <ele>1916.753251</ele>
        <time>2022-05-22T04:02:27.942Z</time>
      </trkpt>
      <trkpt lat="42.298592" lon="2.013142">
        <ele>1916.524846</ele>
        <time>2022-05-22T04:02:28.932Z</time>
      </trkpt>
      <trkpt lat="42.298544" lon="2.013279">
        <ele>1916.297365</ele>
        <time>2022-05-22T04:02:29.954Z</time>
      </trkpt>
      <trkpt lat="42.298499" lon="2.013419">
        <ele>1916.068300</ele>
        <time>2022-05-22T04:02:30.943Z</time>
      </trkpt>
      <trkpt lat="42.298458" lon="2.013561">
        <ele>1915.839554</ele>
        <time>2022-05-22T04:02:31.942Z</time>
      </trkpt>
      <trkpt lat="42.298412" lon="2.013702">
        <ele>1915.608301</ele>
        <time>2022-05-22T04:02:32.941Z</time>
      </trkpt>
      <trkpt lat="42.298358" lon="2.013823">
        <ele>1915.396236</ele>
        <time>2022-05-22T04:02:33.937Z</time>
      </trkpt>
      <trkpt lat="42.298299" lon="2.013943">
        <ele>1915.180009</ele>
        <time>2022-05-22T04:02:34.941Z</time>
      </trkpt>
      <trkpt lat="42.298239" lon="2.014074">
        <ele>1914.954267</ele>
        <time>2022-05-22T04:02:35.940Z</time>
      </trkpt>
      <trkpt lat="42.298189" lon="2.014209">
        <ele>1914.740739</ele>
        <time>2022-05-22T04:02:36.947Z</time>
      </trkpt>
      <trkpt lat="42.298144" lon="2.014350">
        <ele>1914.523553</ele>
        <time>2022-05-22T04:02:37.944Z</time>
      </trkpt>
      <trkpt lat="42.298102" lon="2.014488">
        <ele>1914.312505</ele>
        <time>2022-05-22T04:02:38.936Z</time>
      </trkpt>
      <trkpt lat="42.298074" lon="2.014633">
        <ele>1914.100559</ele>
        <time>2022-05-22T04:02:39.940Z</time>
      </trkpt>
      <trkpt lat="42.298049" lon="2.014780">
        <ele>1913.887234</ele>
        <time>2022-05-22T04:02:40.934Z</time>
      </trkpt>
      <trkpt lat="42.298027" lon="2.014928">
        <ele>1913.673734</ele>
        <time>2022-05-22T04:02:41.932Z</time>
      </trkpt>
      <trkpt lat="42.298010" lon="2.015072">
        <ele>1913.467498</ele>
        <time>2022-05-22T04:02:42.944Z</time>
      </trkpt>
      <trkpt lat="42.297991" lon="2.015212">
        <ele>1913.266192</ele>
        <time>2022-05-22T04:02:43.941Z</time>
      </trkpt>
      <trkpt lat="42.297965" lon="2.015352">
        <ele>1913.062045</ele>
        <time>2022-05-22T04:02:44.952Z</time>
      </trkpt>
      <trkpt lat="42.297940" lon="2.015487">
        <ele>1912.865223</ele>
        <time>2022-05-22T04:02:45.932Z</time>
      </trkpt>
      <trkpt lat="42.297917" lon="2.015619">
        <ele>1912.673426</ele>
        <time>2022-05-22T04:02:46.940Z</time>
      </trkpt>
      <trkpt lat="42.297906" lon="2.015749">
        <ele>1912.488369</ele>
        <time>2022-05-22T04:02:47.946Z</time>
      </trkpt>
      <trkpt lat="42.297911" lon="2.015890">
        <ele>1912.288724</ele>
        <time>2022-05-22T04:02:48.928Z</time>
      </trkpt>
      <trkpt lat="42.297927" lon="2.016035">
        <ele>1912.081382</ele>
        <time>2022-05-22T04:02:49.936Z</time>
      </trkpt>
      <trkpt lat="42.297949" lon="2.016166">
        <ele>1911.891394</ele>
        <time>2022-05-22T04:02:50.938Z</time>
      </trkpt>
      <trkpt lat="42.297972" lon="2.016298">
        <ele>1911.699598</ele>
        <time>2022-05-22T04:02:51.935Z</time>
      </trkpt>
      <trkpt lat="42.298000" lon="2.016435">
        <ele>1911.681533</ele>
        <time>2022-05-22T04:02:52.940Z</time>
      </trkpt>
      <trkpt lat="42.298043" lon="2.016564">
        <ele>1911.826087</ele>
        <time>2022-05-22T04:02:53.934Z</time>
      </trkpt>
      <trkpt lat="42.298096" lon="2.016685">
        <ele>1911.969753</ele>
        <time>2022-05-22T04:02:54.941Z</time>
      </trkpt>
      <trkpt lat="42.298163" lon="2.016787">
        <ele>1912.109119</ele>
        <time>2022-05-22T04:02:55.942Z</time>
      </trkpt>
      <trkpt lat="42.298242" lon="2.016869">
        <ele>1912.246685</ele>
        <time>2022-05-22T04:02:56.942Z</time>
      </trkpt>
      <trkpt lat="42.298319" lon="2.016951">
        <ele>1912.382070</ele>
        <time>2022-05-22T04:02:57.953Z</time>
      </trkpt>
      <trkpt lat="42.298394" lon="2.017023">
        <ele>1912.509120</ele>
        <time>2022-05-22T04:02:58.938Z</time>
      </trkpt>
      <trkpt lat="42.298471" lon="2.017099">
        <ele>1912.640800</ele>
        <time>2022-05-22T04:02:59.943Z</time>
      </trkpt>
      <trkpt lat="42.298545" lon="2.017173">
        <ele>1912.767931</ele>
        <time>2022-05-22T04:03:00.940Z</time>
      </trkpt>
      <trkpt lat="42.298623" lon="2.017241">
        <ele>1912.896122</ele>
        <time>2022-05-22T04:03:01.946Z</time>
      </trkpt>
      <trkpt lat="42.298701" lon="2.017305">
        <ele>1913.022145</ele>
        <time>2022-05-22T04:03:02.944Z</time>
      </trkpt>
      <trkpt lat="42.298779" lon="2.017369">
        <ele>1913.148168</ele>
        <time>2022-05-22T04:03:03.944Z</time>
      </trkpt>
      <trkpt lat="42.298927" lon="2.017486">
        <ele>1913.384969</ele>
        <time>2022-05-22T04:03:05.936Z</time>
      </trkpt>
      <trkpt lat="42.299070" lon="2.017604">
        <ele>1913.616366</ele>
        <time>2022-05-22T04:03:07.941Z</time>
      </trkpt>
      <trkpt lat="42.299210" lon="2.017727">
        <ele>1913.846978</ele>
        <time>2022-05-22T04:03:09.936Z</time>
      </trkpt>
      <trkpt lat="42.299349" lon="2.017844">
        <ele>1914.073135</ele>
        <time>2022-05-22T04:03:11.931Z</time>
      </trkpt>
      <trkpt lat="42.299498" lon="2.017924">
        <ele>1913.527558</ele>
        <time>2022-05-22T04:03:13.938Z</time>
      </trkpt>
      <trkpt lat="42.299655" lon="2.017963">
        <ele>1912.924898</ele>
        <time>2022-05-22T04:03:15.940Z</time>
      </trkpt>
      <trkpt lat="42.299822" lon="2.017975">
        <ele>1912.293516</ele>
        <time>2022-05-22T04:03:17.950Z</time>
      </trkpt>
      <trkpt lat="42.299983" lon="2.017974">
        <ele>1911.685669</ele>
        <time>2022-05-22T04:03:19.930Z</time>
      </trkpt>
      <trkpt lat="42.300140" lon="2.017991">
        <ele>1911.091033</ele>
        <time>2022-05-22T04:03:21.946Z</time>
      </trkpt>
      <trkpt lat="42.300293" lon="2.018008">
        <ele>1910.511449</ele>
        <time>2022-05-22T04:03:23.946Z</time>
      </trkpt>
      <trkpt lat="42.300451" lon="2.018042">
        <ele>1909.907427</ele>
        <time>2022-05-22T04:03:25.938Z</time>
      </trkpt>
      <trkpt lat="42.300609" lon="2.018067">
        <ele>1909.306842</ele>
        <time>2022-05-22T04:03:27.927Z</time>
      </trkpt>
      <trkpt lat="42.300763" lon="2.018130">
        <ele>1908.699398</ele>
        <time>2022-05-22T04:03:29.940Z</time>
      </trkpt>
      <trkpt lat="42.300866" lon="2.018281">
        <ele>1908.125809</ele>
        <time>2022-05-22T04:03:31.930Z</time>
      </trkpt>
      <trkpt lat="42.300890" lon="2.018481">
        <ele>1907.560033</ele>
        <time>2022-05-22T04:03:33.926Z</time>
      </trkpt>
      <trkpt lat="42.300804" lon="2.018627">
        <ele>1906.858829</ele>
        <time>2022-05-22T04:03:35.924Z</time>
      </trkpt>
      <trkpt lat="42.300690" lon="2.018792">
        <ele>1905.791213</ele>
        <time>2022-05-22T04:03:37.931Z</time>
      </trkpt>
      <trkpt lat="42.300618" lon="2.018882">
        <ele>1905.164351</ele>
        <time>2022-05-22T04:03:38.930Z</time>
      </trkpt>
      <trkpt lat="42.300542" lon="2.018974">
        <ele>1904.512208</ele>
        <time>2022-05-22T04:03:39.924Z</time>
      </trkpt>
      <trkpt lat="42.300471" lon="2.019067">
        <ele>1903.880237</ele>
        <time>2022-05-22T04:03:40.930Z</time>
      </trkpt>
      <trkpt lat="42.300398" lon="2.019156">
        <ele>1903.251840</ele>
        <time>2022-05-22T04:03:41.923Z</time>
      </trkpt>
      <trkpt lat="42.300332" lon="2.019242">
        <ele>1902.665854</ele>
        <time>2022-05-22T04:03:42.931Z</time>
      </trkpt>
      <trkpt lat="42.300250" lon="2.019449">
        <ele>1901.555543</ele>
        <time>2022-05-22T04:03:44.966Z</time>
      </trkpt>
      <trkpt lat="42.300247" lon="2.019571">
        <ele>1900.978364</ele>
        <time>2022-05-22T04:03:45.925Z</time>
      </trkpt>
      <trkpt lat="42.300276" lon="2.019687">
        <ele>1900.399390</ele>
        <time>2022-05-22T04:03:46.923Z</time>
      </trkpt>
      <trkpt lat="42.300400" lon="2.019849">
        <ele>1899.297053</ele>
        <time>2022-05-22T04:03:48.928Z</time>
      </trkpt>
      <trkpt lat="42.300549" lon="2.019947">
        <ele>1898.237785</ele>
        <time>2022-05-22T04:03:50.929Z</time>
      </trkpt>
      <trkpt lat="42.300680" lon="2.020069">
        <ele>1897.220870</ele>
        <time>2022-05-22T04:03:52.936Z</time>
      </trkpt>
      <trkpt lat="42.300711" lon="2.020251">
        <ele>1896.337790</ele>
        <time>2022-05-22T04:03:54.938Z</time>
      </trkpt>
      <trkpt lat="42.300599" lon="2.020413">
        <ele>1895.067394</ele>
        <time>2022-05-22T04:03:56.936Z</time>
      </trkpt>
      <trkpt lat="42.300465" lon="2.020486">
        <ele>1893.742602</ele>
        <time>2022-05-22T04:03:58.934Z</time>
      </trkpt>
      <trkpt lat="42.300301" lon="2.020534">
        <ele>1892.203872</ele>
        <time>2022-05-22T04:04:00.927Z</time>
      </trkpt>
      <trkpt lat="42.300139" lon="2.020592">
        <ele>1890.667114</ele>
        <time>2022-05-22T04:04:02.937Z</time>
      </trkpt>
      <trkpt lat="42.299985" lon="2.020666">
        <ele>1889.168381</ele>
        <time>2022-05-22T04:04:04.938Z</time>
      </trkpt>
      <trkpt lat="42.299835" lon="2.020750">
        <ele>1887.679545</ele>
        <time>2022-05-22T04:04:06.936Z</time>
      </trkpt>
      <trkpt lat="42.299678" lon="2.020800">
        <ele>1886.200438</ele>
        <time>2022-05-22T04:04:08.957Z</time>
      </trkpt>
      <trkpt lat="42.299529" lon="2.020823">
        <ele>1884.825217</ele>
        <time>2022-05-22T04:04:10.934Z</time>
      </trkpt>
      <trkpt lat="42.299375" lon="2.020812">
        <ele>1883.411053</ele>
        <time>2022-05-22T04:04:12.927Z</time>
      </trkpt>
      <trkpt lat="42.299216" lon="2.020770">
        <ele>1881.925440</ele>
        <time>2022-05-22T04:04:14.935Z</time>
      </trkpt>
      <trkpt lat="42.299062" lon="2.020706">
        <ele>1880.448036</ele>
        <time>2022-05-22T04:04:16.930Z</time>
      </trkpt>
      <trkpt lat="42.298911" lon="2.020644">
        <ele>1879.091378</ele>
        <time>2022-05-22T04:04:18.944Z</time>
      </trkpt>
      <trkpt lat="42.298751" lon="2.020558">
        <ele>1877.980263</ele>
        <time>2022-05-22T04:04:20.933Z</time>
      </trkpt>
      <trkpt lat="42.298665" lon="2.020519">
        <ele>1877.394901</ele>
        <time>2022-05-22T04:04:21.954Z</time>
      </trkpt>
      <trkpt lat="42.298577" lon="2.020481">
        <ele>1876.798757</ele>
        <time>2022-05-22T04:04:22.933Z</time>
      </trkpt>
      <trkpt lat="42.298485" lon="2.020446">
        <ele>1876.182007</ele>
        <time>2022-05-22T04:04:23.927Z</time>
      </trkpt>
      <trkpt lat="42.298386" lon="2.020417">
        <ele>1875.528317</ele>
        <time>2022-05-22T04:04:24.928Z</time>
      </trkpt>
      <trkpt lat="42.298283" lon="2.020397">
        <ele>1874.856818</ele>
        <time>2022-05-22T04:04:25.932Z</time>
      </trkpt>
      <trkpt lat="42.298173" lon="2.020393">
        <ele>1874.146710</ele>
        <time>2022-05-22T04:04:26.943Z</time>
      </trkpt>
      <trkpt lat="42.298055" lon="2.020412">
        <ele>1873.379851</ele>
        <time>2022-05-22T04:04:27.934Z</time>
      </trkpt>
      <trkpt lat="42.297936" lon="2.020442">
        <ele>1872.598685</ele>
        <time>2022-05-22T04:04:28.944Z</time>
      </trkpt>
      <trkpt lat="42.297816" lon="2.020465">
        <ele>1871.816558</ele>
        <time>2022-05-22T04:04:29.930Z</time>
      </trkpt>
      <trkpt lat="42.297685" lon="2.020475">
        <ele>1870.969843</ele>
        <time>2022-05-22T04:04:30.932Z</time>
      </trkpt>
      <trkpt lat="42.297548" lon="2.020464">
        <ele>1870.084198</ele>
        <time>2022-05-22T04:04:31.929Z</time>
      </trkpt>
      <trkpt lat="42.297410" lon="2.020435">
        <ele>1869.182963</ele>
        <time>2022-05-22T04:04:32.934Z</time>
      </trkpt>
      <trkpt lat="42.297275" lon="2.020411">
        <ele>1868.304282</ele>
        <time>2022-05-22T04:04:33.938Z</time>
      </trkpt>
      <trkpt lat="42.297134" lon="2.020390">
        <ele>1867.450631</ele>
        <time>2022-05-22T04:04:34.947Z</time>
      </trkpt>
      <trkpt lat="42.296994" lon="2.020368">
        <ele>1866.722055</ele>
        <time>2022-05-22T04:04:35.943Z</time>
      </trkpt>
      <trkpt lat="42.296855" lon="2.020347">
        <ele>1865.999047</ele>
        <time>2022-05-22T04:04:36.939Z</time>
      </trkpt>
      <trkpt lat="42.296712" lon="2.020328">
        <ele>1865.256274</ele>
        <time>2022-05-22T04:04:37.937Z</time>
      </trkpt>
      <trkpt lat="42.296568" lon="2.020306">
        <ele>1864.507154</ele>
        <time>2022-05-22T04:04:38.943Z</time>
      </trkpt>
      <trkpt lat="42.296426" lon="2.020278">
        <ele>1863.765345</ele>
        <time>2022-05-22T04:04:39.940Z</time>
      </trkpt>
      <trkpt lat="42.296282" lon="2.020236">
        <ele>1863.003837</ele>
        <time>2022-05-22T04:04:40.948Z</time>
      </trkpt>
      <trkpt lat="42.296143" lon="2.020187">
        <ele>1862.261277</ele>
        <time>2022-05-22T04:04:41.935Z</time>
      </trkpt>
      <trkpt lat="42.296002" lon="2.020127">
        <ele>1861.497151</ele>
        <time>2022-05-22T04:04:42.939Z</time>
      </trkpt>
      <trkpt lat="42.295864" lon="2.020066">
        <ele>1860.746622</ele>
        <time>2022-05-22T04:04:43.933Z</time>
      </trkpt>
      <trkpt lat="42.295723" lon="2.020004">
        <ele>1859.980165</ele>
        <time>2022-05-22T04:04:44.932Z</time>
      </trkpt>
      <trkpt lat="42.295587" lon="2.019953">
        <ele>1859.250593</ele>
        <time>2022-05-22T04:04:45.928Z</time>
      </trkpt>
      <trkpt lat="42.295448" lon="2.019909">
        <ele>1858.512625</ele>
        <time>2022-05-22T04:04:46.935Z</time>
      </trkpt>
      <trkpt lat="42.295310" lon="2.019869">
        <ele>1857.592677</ele>
        <time>2022-05-22T04:04:47.943Z</time>
      </trkpt>
      <trkpt lat="42.295172" lon="2.019837">
        <ele>1856.646108</ele>
        <time>2022-05-22T04:04:48.939Z</time>
      </trkpt>
      <trkpt lat="42.295033" lon="2.019821">
        <ele>1855.703002</ele>
        <time>2022-05-22T04:04:49.935Z</time>
      </trkpt>
      <trkpt lat="42.294900" lon="2.019819">
        <ele>1854.803804</ele>
        <time>2022-05-22T04:04:50.941Z</time>
      </trkpt>
      <trkpt lat="42.294771" lon="2.019848">
        <ele>1853.919728</ele>
        <time>2022-05-22T04:04:51.933Z</time>
      </trkpt>
      <trkpt lat="42.294644" lon="2.019912">
        <ele>1853.003438</ele>
        <time>2022-05-22T04:04:52.940Z</time>
      </trkpt>
      <trkpt lat="42.294547" lon="2.020009">
        <ele>1852.187768</ele>
        <time>2022-05-22T04:04:53.961Z</time>
      </trkpt>
      <trkpt lat="42.294466" lon="2.020121">
        <ele>1851.404473</ele>
        <time>2022-05-22T04:04:54.939Z</time>
      </trkpt>
      <trkpt lat="42.294380" lon="2.020248">
        <ele>1850.543448</ele>
        <time>2022-05-22T04:04:55.933Z</time>
      </trkpt>
      <trkpt lat="42.294298" lon="2.020394">
        <ele>1849.626734</ele>
        <time>2022-05-22T04:04:56.937Z</time>
      </trkpt>
      <trkpt lat="42.294228" lon="2.020544">
        <ele>1848.739824</ele>
        <time>2022-05-22T04:04:57.931Z</time>
      </trkpt>
      <trkpt lat="42.294166" lon="2.020709">
        <ele>1847.814348</ele>
        <time>2022-05-22T04:04:58.930Z</time>
      </trkpt>
      <trkpt lat="42.294136" lon="2.020868">
        <ele>1846.993775</ele>
        <time>2022-05-22T04:04:59.929Z</time>
      </trkpt>
      <trkpt lat="42.294132" lon="2.021026">
        <ele>1846.219034</ele>
        <time>2022-05-22T04:05:00.932Z</time>
      </trkpt>
      <trkpt lat="42.294148" lon="2.021198">
        <ele>1845.707403</ele>
        <time>2022-05-22T04:05:01.935Z</time>
      </trkpt>
      <trkpt lat="42.294180" lon="2.021369">
        <ele>1845.186821</ele>
        <time>2022-05-22T04:05:02.951Z</time>
      </trkpt>
      <trkpt lat="42.294217" lon="2.021532">
        <ele>1844.683609</ele>
        <time>2022-05-22T04:05:03.941Z</time>
      </trkpt>
      <trkpt lat="42.294259" lon="2.021694">
        <ele>1844.176974</ele>
        <time>2022-05-22T04:05:04.942Z</time>
      </trkpt>
      <trkpt lat="42.294302" lon="2.021854">
        <ele>1843.674556</ele>
        <time>2022-05-22T04:05:05.949Z</time>
      </trkpt>
      <trkpt lat="42.294352" lon="2.022018">
        <ele>1843.151035</ele>
        <time>2022-05-22T04:05:06.944Z</time>
      </trkpt>
      <trkpt lat="42.294409" lon="2.022173">
        <ele>1842.640162</ele>
        <time>2022-05-22T04:05:07.935Z</time>
      </trkpt>
      <trkpt lat="42.294471" lon="2.022322">
        <ele>1842.135608</ele>
        <time>2022-05-22T04:05:08.944Z</time>
      </trkpt>
      <trkpt lat="42.294549" lon="2.022465">
        <ele>1841.611229</ele>
        <time>2022-05-22T04:05:09.950Z</time>
      </trkpt>
      <trkpt lat="42.294641" lon="2.022592">
        <ele>1841.086602</ele>
        <time>2022-05-22T04:05:10.943Z</time>
      </trkpt>
      <trkpt lat="42.294745" lon="2.022709">
        <ele>1840.546767</ele>
        <time>2022-05-22T04:05:11.941Z</time>
      </trkpt>
      <trkpt lat="42.294861" lon="2.022805">
        <ele>1840.004100</ele>
        <time>2022-05-22T04:05:12.944Z</time>
      </trkpt>
      <trkpt lat="42.294992" lon="2.022867">
        <ele>1839.450314</ele>
        <time>2022-05-22T04:05:13.948Z</time>
      </trkpt>
      <trkpt lat="42.295115" lon="2.022911">
        <ele>1838.879212</ele>
        <time>2022-05-22T04:05:14.939Z</time>
      </trkpt>
      <trkpt lat="42.295241" lon="2.022955">
        <ele>1838.091495</ele>
        <time>2022-05-22T04:05:15.940Z</time>
      </trkpt>
      <trkpt lat="42.295366" lon="2.022992">
        <ele>1837.316940</ele>
        <time>2022-05-22T04:05:16.939Z</time>
      </trkpt>
      <trkpt lat="42.295492" lon="2.023026">
        <ele>1836.539211</ele>
        <time>2022-05-22T04:05:17.938Z</time>
      </trkpt>
      <trkpt lat="42.295616" lon="2.023065">
        <ele>1835.768589</ele>
        <time>2022-05-22T04:05:18.939Z</time>
      </trkpt>
      <trkpt lat="42.295738" lon="2.023112">
        <ele>1835.000719</ele>
        <time>2022-05-22T04:05:19.948Z</time>
      </trkpt>
      <trkpt lat="42.295852" lon="2.023165">
        <ele>1834.271009</ele>
        <time>2022-05-22T04:05:20.936Z</time>
      </trkpt>
      <trkpt lat="42.295944" lon="2.023225">
        <ele>1833.652718</ele>
        <time>2022-05-22T04:05:21.937Z</time>
      </trkpt>
      <trkpt lat="42.296016" lon="2.023301">
        <ele>1833.099793</ele>
        <time>2022-05-22T04:05:22.943Z</time>
      </trkpt>
      <trkpt lat="42.296098" lon="2.023492">
        <ele>1832.111020</ele>
        <time>2022-05-22T04:05:24.944Z</time>
      </trkpt>
      <trkpt lat="42.296080" lon="2.023627">
        <ele>1831.496842</ele>
        <time>2022-05-22T04:05:25.935Z</time>
      </trkpt>
      <trkpt lat="42.296031" lon="2.023753">
        <ele>1830.859484</ele>
        <time>2022-05-22T04:05:26.944Z</time>
      </trkpt>
      <trkpt lat="42.295958" lon="2.023862">
        <ele>1830.201136</ele>
        <time>2022-05-22T04:05:27.949Z</time>
      </trkpt>
      <trkpt lat="42.295890" lon="2.023972">
        <ele>1829.559278</ele>
        <time>2022-05-22T04:05:28.938Z</time>
      </trkpt>
      <trkpt lat="42.295821" lon="2.024098">
        <ele>1828.857354</ele>
        <time>2022-05-22T04:05:29.937Z</time>
      </trkpt>
      <trkpt lat="42.295756" lon="2.024230">
        <ele>1828.113845</ele>
        <time>2022-05-22T04:05:30.938Z</time>
      </trkpt>
      <trkpt lat="42.295681" lon="2.024362">
        <ele>1826.555774</ele>
        <time>2022-05-22T04:05:31.939Z</time>
      </trkpt>
      <trkpt lat="42.295607" lon="2.024504">
        <ele>1824.929793</ele>
        <time>2022-05-22T04:05:32.940Z</time>
      </trkpt>
      <trkpt lat="42.295536" lon="2.024649">
        <ele>1823.302035</ele>
        <time>2022-05-22T04:05:33.943Z</time>
      </trkpt>
      <trkpt lat="42.295456" lon="2.024798">
        <ele>1821.578582</ele>
        <time>2022-05-22T04:05:34.940Z</time>
      </trkpt>
      <trkpt lat="42.295373" lon="2.024949">
        <ele>1819.817564</ele>
        <time>2022-05-22T04:05:35.941Z</time>
      </trkpt>
      <trkpt lat="42.295291" lon="2.025103">
        <ele>1818.041349</ele>
        <time>2022-05-22T04:05:36.940Z</time>
      </trkpt>
      <trkpt lat="42.295207" lon="2.025260">
        <ele>1816.227549</ele>
        <time>2022-05-22T04:05:37.946Z</time>
      </trkpt>
      <trkpt lat="42.295128" lon="2.025413">
        <ele>1814.480925</ele>
        <time>2022-05-22T04:05:38.939Z</time>
      </trkpt>
      <trkpt lat="42.295054" lon="2.025558">
        <ele>1812.831898</ele>
        <time>2022-05-22T04:05:39.948Z</time>
      </trkpt>
      <trkpt lat="42.294981" lon="2.025702">
        <ele>1811.197753</ele>
        <time>2022-05-22T04:05:40.940Z</time>
      </trkpt>
      <trkpt lat="42.294917" lon="2.025860">
        <ele>1809.511501</ele>
        <time>2022-05-22T04:05:41.954Z</time>
      </trkpt>
      <trkpt lat="42.294871" lon="2.026034">
        <ele>1807.781814</ele>
        <time>2022-05-22T04:05:42.942Z</time>
      </trkpt>
      <trkpt lat="42.294847" lon="2.026215">
        <ele>1806.060495</ele>
        <time>2022-05-22T04:05:43.934Z</time>
      </trkpt>
      <trkpt lat="42.294839" lon="2.026406">
        <ele>1804.947835</ele>
        <time>2022-05-22T04:05:44.942Z</time>
      </trkpt>
      <trkpt lat="42.294838" lon="2.026605">
        <ele>1804.186858</ele>
        <time>2022-05-22T04:05:45.947Z</time>
      </trkpt>
      <trkpt lat="42.294827" lon="2.026806">
        <ele>1803.416149</ele>
        <time>2022-05-22T04:05:46.950Z</time>
      </trkpt>
      <trkpt lat="42.294807" lon="2.026991">
        <ele>1802.701208</ele>
        <time>2022-05-22T04:05:47.943Z</time>
      </trkpt>
      <trkpt lat="42.294778" lon="2.027160">
        <ele>1802.037803</ele>
        <time>2022-05-22T04:05:48.941Z</time>
      </trkpt>
      <trkpt lat="42.294757" lon="2.027312">
        <ele>1801.446515</ele>
        <time>2022-05-22T04:05:49.946Z</time>
      </trkpt>
      <trkpt lat="42.294750" lon="2.027446">
        <ele>1800.932833</ele>
        <time>2022-05-22T04:05:50.939Z</time>
      </trkpt>
      <trkpt lat="42.294767" lon="2.027566">
        <ele>1800.465622</ele>
        <time>2022-05-22T04:05:51.944Z</time>
      </trkpt>
      <trkpt lat="42.294887" lon="2.027744">
        <ele>1799.544680</ele>
        <time>2022-05-22T04:05:53.938Z</time>
      </trkpt>
      <trkpt lat="42.294962" lon="2.027823">
        <ele>1799.053167</ele>
        <time>2022-05-22T04:05:54.936Z</time>
      </trkpt>
      <trkpt lat="42.295038" lon="2.027907">
        <ele>1798.545685</ele>
        <time>2022-05-22T04:05:55.950Z</time>
      </trkpt>
      <trkpt lat="42.295122" lon="2.028001">
        <ele>1797.981971</ele>
        <time>2022-05-22T04:05:56.943Z</time>
      </trkpt>
      <trkpt lat="42.295198" lon="2.028089">
        <ele>1797.464673</ele>
        <time>2022-05-22T04:05:57.947Z</time>
      </trkpt>
      <trkpt lat="42.295273" lon="2.028188">
        <ele>1796.922788</ele>
        <time>2022-05-22T04:05:58.932Z</time>
      </trkpt>
      <trkpt lat="42.295328" lon="2.028305">
        <ele>1796.392689</ele>
        <time>2022-05-22T04:05:59.944Z</time>
      </trkpt>
      <trkpt lat="42.295373" lon="2.028439">
        <ele>1795.933221</ele>
        <time>2022-05-22T04:06:00.923Z</time>
      </trkpt>
      <trkpt lat="42.295415" lon="2.028578">
        <ele>1795.564996</ele>
        <time>2022-05-22T04:06:01.936Z</time>
      </trkpt>
      <trkpt lat="42.295457" lon="2.028719">
        <ele>1795.192227</ele>
        <time>2022-05-22T04:06:02.936Z</time>
      </trkpt>
      <trkpt lat="42.295497" lon="2.028865">
        <ele>1794.810410</ele>
        <time>2022-05-22T04:06:03.930Z</time>
      </trkpt>
      <trkpt lat="42.295536" lon="2.029018">
        <ele>1794.413543</ele>
        <time>2022-05-22T04:06:04.930Z</time>
      </trkpt>
      <trkpt lat="42.295577" lon="2.029172">
        <ele>1794.012160</ele>
        <time>2022-05-22T04:06:05.948Z</time>
      </trkpt>
      <trkpt lat="42.295615" lon="2.029309">
        <ele>1793.653340</ele>
        <time>2022-05-22T04:06:06.933Z</time>
      </trkpt>
      <trkpt lat="42.295660" lon="2.029427">
        <ele>1793.327765</ele>
        <time>2022-05-22T04:06:07.927Z</time>
      </trkpt>
      <trkpt lat="42.295739" lon="2.029613">
        <ele>1792.801776</ele>
        <time>2022-05-22T04:06:09.941Z</time>
      </trkpt>
      <trkpt lat="42.295844" lon="2.029772">
        <ele>1792.279063</ele>
        <time>2022-05-22T04:06:11.941Z</time>
      </trkpt>
      <trkpt lat="42.295971" lon="2.029908">
        <ele>1791.741916</ele>
        <time>2022-05-22T04:06:13.930Z</time>
      </trkpt>
      <trkpt lat="42.296123" lon="2.030016">
        <ele>1791.172610</ele>
        <time>2022-05-22T04:06:15.947Z</time>
      </trkpt>
      <trkpt lat="42.296285" lon="2.030112">
        <ele>1790.586180</ele>
        <time>2022-05-22T04:06:17.944Z</time>
      </trkpt>
      <trkpt lat="42.296376" lon="2.030145">
        <ele>1790.273810</ele>
        <time>2022-05-22T04:06:18.949Z</time>
      </trkpt>
      <trkpt lat="42.296466" lon="2.030173">
        <ele>1789.787323</ele>
        <time>2022-05-22T04:06:19.949Z</time>
      </trkpt>
      <trkpt lat="42.296564" lon="2.030200">
        <ele>1789.135980</ele>
        <time>2022-05-22T04:06:20.936Z</time>
      </trkpt>
      <trkpt lat="42.296662" lon="2.030231">
        <ele>1788.480517</ele>
        <time>2022-05-22T04:06:21.934Z</time>
      </trkpt>
      <trkpt lat="42.296764" lon="2.030264">
        <ele>1787.797486</ele>
        <time>2022-05-22T04:06:22.940Z</time>
      </trkpt>
      <trkpt lat="42.296867" lon="2.030300">
        <ele>1787.104645</ele>
        <time>2022-05-22T04:06:23.929Z</time>
      </trkpt>
      <trkpt lat="42.296972" lon="2.030343">
        <ele>1786.390149</ele>
        <time>2022-05-22T04:06:24.941Z</time>
      </trkpt>
      <trkpt lat="42.297074" lon="2.030403">
        <ele>1785.665720</ele>
        <time>2022-05-22T04:06:25.936Z</time>
      </trkpt>
      <trkpt lat="42.297179" lon="2.030465">
        <ele>1784.919532</ele>
        <time>2022-05-22T04:06:26.930Z</time>
      </trkpt>
      <trkpt lat="42.297289" lon="2.030517">
        <ele>1784.160626</ele>
        <time>2022-05-22T04:06:27.943Z</time>
      </trkpt>
      <trkpt lat="42.297400" lon="2.030565">
        <ele>1783.401661</ele>
        <time>2022-05-22T04:06:28.939Z</time>
      </trkpt>
      <trkpt lat="42.297513" lon="2.030607">
        <ele>1782.638444</ele>
        <time>2022-05-22T04:06:29.938Z</time>
      </trkpt>
      <trkpt lat="42.297623" lon="2.030646">
        <ele>1781.897845</ele>
        <time>2022-05-22T04:06:30.943Z</time>
      </trkpt>
      <trkpt lat="42.297728" lon="2.030695">
        <ele>1781.174442</ele>
        <time>2022-05-22T04:06:31.936Z</time>
      </trkpt>
      <trkpt lat="42.297822" lon="2.030770">
        <ele>1780.463612</ele>
        <time>2022-05-22T04:06:32.940Z</time>
      </trkpt>
      <trkpt lat="42.297915" lon="2.030864">
        <ele>1779.707401</ele>
        <time>2022-05-22T04:06:33.942Z</time>
      </trkpt>
      <trkpt lat="42.297999" lon="2.030966">
        <ele>1778.972096</ele>
        <time>2022-05-22T04:06:34.932Z</time>
      </trkpt>
      <trkpt lat="42.298062" lon="2.031067">
        <ele>1778.261515</ele>
        <time>2022-05-22T04:06:35.939Z</time>
      </trkpt>
      <trkpt lat="42.298131" lon="2.031251">
        <ele>1776.567655</ele>
        <time>2022-05-22T04:06:37.940Z</time>
      </trkpt>
      <trkpt lat="42.298079" lon="2.031430">
        <ele>1774.988631</ele>
        <time>2022-05-22T04:06:39.928Z</time>
      </trkpt>
      <trkpt lat="42.297920" lon="2.031530">
        <ele>1773.041961</ele>
        <time>2022-05-22T04:06:41.931Z</time>
      </trkpt>
      <trkpt lat="42.297822" lon="2.031565">
        <ele>1771.916760</ele>
        <time>2022-05-22T04:06:42.935Z</time>
      </trkpt>
      <trkpt lat="42.297722" lon="2.031604">
        <ele>1770.761411</ele>
        <time>2022-05-22T04:06:43.932Z</time>
      </trkpt>
      <trkpt lat="42.297617" lon="2.031644">
        <ele>1769.550433</ele>
        <time>2022-05-22T04:06:44.929Z</time>
      </trkpt>
      <trkpt lat="42.297509" lon="2.031695">
        <ele>1768.280513</ele>
        <time>2022-05-22T04:06:45.930Z</time>
      </trkpt>
      <trkpt lat="42.297407" lon="2.031753">
        <ele>1767.052153</ele>
        <time>2022-05-22T04:06:46.934Z</time>
      </trkpt>
      <trkpt lat="42.297296" lon="2.031815">
        <ele>1765.718938</ele>
        <time>2022-05-22T04:06:47.933Z</time>
      </trkpt>
      <trkpt lat="42.297183" lon="2.031866">
        <ele>1764.396491</ele>
        <time>2022-05-22T04:06:48.935Z</time>
      </trkpt>
      <trkpt lat="42.297073" lon="2.031912">
        <ele>1763.118317</ele>
        <time>2022-05-22T04:06:49.938Z</time>
      </trkpt>
      <trkpt lat="42.296978" lon="2.031966">
        <ele>1761.974317</ele>
        <time>2022-05-22T04:06:50.939Z</time>
      </trkpt>
      <trkpt lat="42.296892" lon="2.032028">
        <ele>1760.892392</ele>
        <time>2022-05-22T04:06:51.940Z</time>
      </trkpt>
      <trkpt lat="42.296821" lon="2.032216">
        <ele>1759.159165</ele>
        <time>2022-05-22T04:06:53.938Z</time>
      </trkpt>
      <trkpt lat="42.296823" lon="2.032355">
        <ele>1758.036484</ele>
        <time>2022-05-22T04:06:54.936Z</time>
      </trkpt>
      <trkpt lat="42.296841" lon="2.032499">
        <ele>1756.886843</ele>
        <time>2022-05-22T04:06:55.940Z</time>
      </trkpt>
      <trkpt lat="42.296877" lon="2.032647">
        <ele>1755.660406</ele>
        <time>2022-05-22T04:06:56.936Z</time>
      </trkpt>
      <trkpt lat="42.296923" lon="2.032797">
        <ele>1754.382143</ele>
        <time>2022-05-22T04:06:57.926Z</time>
      </trkpt>
      <trkpt lat="42.296966" lon="2.032937">
        <ele>1753.188827</ele>
        <time>2022-05-22T04:06:58.935Z</time>
      </trkpt>
      <trkpt lat="42.297007" lon="2.033071">
        <ele>1752.047293</ele>
        <time>2022-05-22T04:06:59.939Z</time>
      </trkpt>
      <trkpt lat="42.297035" lon="2.033198">
        <ele>1751.004085</ele>
        <time>2022-05-22T04:07:00.940Z</time>
      </trkpt>
      <trkpt lat="42.297027" lon="2.033409">
        <ele>1749.340917</ele>
        <time>2022-05-22T04:07:02.943Z</time>
      </trkpt>
      <trkpt lat="42.296881" lon="2.033485">
        <ele>1747.675898</ele>
        <time>2022-05-22T04:07:04.933Z</time>
      </trkpt>
      <trkpt lat="42.296710" lon="2.033381">
        <ele>1745.680343</ele>
        <time>2022-05-22T04:07:06.934Z</time>
      </trkpt>
      <trkpt lat="42.296625" lon="2.033313">
        <ele>1744.629208</ele>
        <time>2022-05-22T04:07:07.936Z</time>
      </trkpt>
      <trkpt lat="42.296536" lon="2.033244">
        <ele>1743.537326</ele>
        <time>2022-05-22T04:07:08.940Z</time>
      </trkpt>
      <trkpt lat="42.296438" lon="2.033178">
        <ele>1742.372106</ele>
        <time>2022-05-22T04:07:09.934Z</time>
      </trkpt>
      <trkpt lat="42.296340" lon="2.033118">
        <ele>1741.227166</ele>
        <time>2022-05-22T04:07:10.934Z</time>
      </trkpt>
      <trkpt lat="42.296254" lon="2.033051">
        <ele>1740.170808</ele>
        <time>2022-05-22T04:07:11.948Z</time>
      </trkpt>
      <trkpt lat="42.296162" lon="2.032967">
        <ele>1739.023476</ele>
        <time>2022-05-22T04:07:12.926Z</time>
      </trkpt>
      <trkpt lat="42.296072" lon="2.032883">
        <ele>1737.975529</ele>
        <time>2022-05-22T04:07:13.952Z</time>
      </trkpt>
      <trkpt lat="42.295977" lon="2.032805">
        <ele>1736.910495</ele>
        <time>2022-05-22T04:07:14.933Z</time>
      </trkpt>
      <trkpt lat="42.295876" lon="2.032721">
        <ele>1735.774226</ele>
        <time>2022-05-22T04:07:15.928Z</time>
      </trkpt>
      <trkpt lat="42.295770" lon="2.032636">
        <ele>1734.593282</ele>
        <time>2022-05-22T04:07:16.928Z</time>
      </trkpt>
      <trkpt lat="42.295660" lon="2.032562">
        <ele>1733.415956</ele>
        <time>2022-05-22T04:07:17.930Z</time>
      </trkpt>
      <trkpt lat="42.295562" lon="2.032494">
        <ele>1732.360438</ele>
        <time>2022-05-22T04:07:18.929Z</time>
      </trkpt>
      <trkpt lat="42.295465" lon="2.032432">
        <ele>1731.332318</ele>
        <time>2022-05-22T04:07:19.931Z</time>
      </trkpt>
      <trkpt lat="42.295367" lon="2.032371">
        <ele>1730.298512</ele>
        <time>2022-05-22T04:07:20.909Z</time>
      </trkpt>
      <trkpt lat="42.295273" lon="2.032315">
        <ele>1729.314209</ele>
        <time>2022-05-22T04:07:21.931Z</time>
      </trkpt>
      <trkpt lat="42.295179" lon="2.032276">
        <ele>1728.372021</ele>
        <time>2022-05-22T04:07:22.912Z</time>
      </trkpt>
      <trkpt lat="42.295077" lon="2.032242">
        <ele>1727.365367</ele>
        <time>2022-05-22T04:07:23.927Z</time>
      </trkpt>
      <trkpt lat="42.294977" lon="2.032209">
        <ele>1726.379014</ele>
        <time>2022-05-22T04:07:24.913Z</time>
      </trkpt>
      <trkpt lat="42.294878" lon="2.032183">
        <ele>1725.412642</ele>
        <time>2022-05-22T04:07:25.937Z</time>
      </trkpt>
      <trkpt lat="42.294781" lon="2.032161">
        <ele>1724.470180</ele>
        <time>2022-05-22T04:07:26.913Z</time>
      </trkpt>
      <trkpt lat="42.294679" lon="2.032138">
        <ele>1723.479295</ele>
        <time>2022-05-22T04:07:27.913Z</time>
      </trkpt>
      <trkpt lat="42.294574" lon="2.032109">
        <ele>1722.452383</ele>
        <time>2022-05-22T04:07:28.917Z</time>
      </trkpt>
      <trkpt lat="42.294477" lon="2.032070">
        <ele>1721.545085</ele>
        <time>2022-05-22T04:07:29.911Z</time>
      </trkpt>
      <trkpt lat="42.294393" lon="2.032020">
        <ele>1720.754926</ele>
        <time>2022-05-22T04:07:30.918Z</time>
      </trkpt>
      <trkpt lat="42.294250" lon="2.031894">
        <ele>1719.285422</ele>
        <time>2022-05-22T04:07:32.919Z</time>
      </trkpt>
      <trkpt lat="42.294109" lon="2.031761">
        <ele>1717.805264</ele>
        <time>2022-05-22T04:07:34.915Z</time>
      </trkpt>
      <trkpt lat="42.293968" lon="2.031629">
        <ele>1716.328739</ele>
        <time>2022-05-22T04:07:36.922Z</time>
      </trkpt>
      <trkpt lat="42.293817" lon="2.031500">
        <ele>1714.790950</ele>
        <time>2022-05-22T04:07:38.927Z</time>
      </trkpt>
      <trkpt lat="42.293656" lon="2.031423">
        <ele>1713.320701</ele>
        <time>2022-05-22T04:07:40.919Z</time>
      </trkpt>
      <trkpt lat="42.293567" lon="2.031398">
        <ele>1712.538125</ele>
        <time>2022-05-22T04:07:41.916Z</time>
      </trkpt>
      <trkpt lat="42.293475" lon="2.031396">
        <ele>1711.745983</ele>
        <time>2022-05-22T04:07:42.928Z</time>
      </trkpt>
      <trkpt lat="42.293381" lon="2.031415">
        <ele>1710.927731</ele>
        <time>2022-05-22T04:07:43.915Z</time>
      </trkpt>
      <trkpt lat="42.293277" lon="2.031448">
        <ele>1710.008050</ele>
        <time>2022-05-22T04:07:45.454Z</time>
      </trkpt>
      <trkpt lat="42.293178" lon="2.031487">
        <ele>1709.120298</ele>
        <time>2022-05-22T04:07:45.921Z</time>
      </trkpt>
      <trkpt lat="42.293075" lon="2.031535">
        <ele>1708.182351</ele>
        <time>2022-05-22T04:07:46.915Z</time>
      </trkpt>
      <trkpt lat="42.292979" lon="2.031572">
        <ele>1707.322943</ele>
        <time>2022-05-22T04:07:47.921Z</time>
      </trkpt>
      <trkpt lat="42.292815" lon="2.031646">
        <ele>1705.766914</ele>
        <time>2022-05-22T04:07:49.911Z</time>
      </trkpt>
      <trkpt lat="42.292658" lon="2.031723">
        <ele>1704.204222</ele>
        <time>2022-05-22T04:07:51.946Z</time>
      </trkpt>
      <trkpt lat="42.292508" lon="2.031758">
        <ele>1702.779960</ele>
        <time>2022-05-22T04:07:53.932Z</time>
      </trkpt>
      <trkpt lat="42.292341" lon="2.031724">
        <ele>1701.199765</ele>
        <time>2022-05-22T04:07:55.912Z</time>
      </trkpt>
      <trkpt lat="42.292183" lon="2.031648">
        <ele>1699.630607</ele>
        <time>2022-05-22T04:07:57.928Z</time>
      </trkpt>
      <trkpt lat="42.292026" lon="2.031572">
        <ele>1698.070259</ele>
        <time>2022-05-22T04:07:59.912Z</time>
      </trkpt>
      <trkpt lat="42.291864" lon="2.031523">
        <ele>1696.516991</ele>
        <time>2022-05-22T04:08:02.049Z</time>
      </trkpt>
      <trkpt lat="42.291705" lon="2.031516">
        <ele>1695.028483</ele>
        <time>2022-05-22T04:08:03.963Z</time>
      </trkpt>
      <trkpt lat="42.291539" lon="2.031513">
        <ele>1693.475127</ele>
        <time>2022-05-22T04:08:05.916Z</time>
      </trkpt>
      <trkpt lat="42.291373" lon="2.031514">
        <ele>1691.921895</ele>
        <time>2022-05-22T04:08:07.916Z</time>
      </trkpt>
      <trkpt lat="42.291193" lon="2.031513">
        <ele>1690.237669</ele>
        <time>2022-05-22T04:08:09.921Z</time>
      </trkpt>
      <trkpt lat="42.291097" lon="2.031508">
        <ele>1689.496676</ele>
        <time>2022-05-22T04:08:10.926Z</time>
      </trkpt>
      <trkpt lat="42.290997" lon="2.031503">
        <ele>1688.893131</ele>
        <time>2022-05-22T04:08:11.926Z</time>
      </trkpt>
      <trkpt lat="42.290893" lon="2.031497">
        <ele>1688.265302</ele>
        <time>2022-05-22T04:08:12.920Z</time>
      </trkpt>
      <trkpt lat="42.290780" lon="2.031494">
        <ele>1687.583631</ele>
        <time>2022-05-22T04:08:13.936Z</time>
      </trkpt>
      <trkpt lat="42.290665" lon="2.031482">
        <ele>1686.887966</ele>
        <time>2022-05-22T04:08:14.926Z</time>
      </trkpt>
      <trkpt lat="42.290546" lon="2.031464">
        <ele>1686.165759</ele>
        <time>2022-05-22T04:08:15.923Z</time>
      </trkpt>
      <trkpt lat="42.290425" lon="2.031444">
        <ele>1685.430534</ele>
        <time>2022-05-22T04:08:16.926Z</time>
      </trkpt>
      <trkpt lat="42.290301" lon="2.031429">
        <ele>1684.679661</ele>
        <time>2022-05-22T04:08:17.927Z</time>
      </trkpt>
      <trkpt lat="42.290183" lon="2.031418">
        <ele>1683.966275</ele>
        <time>2022-05-22T04:08:18.936Z</time>
      </trkpt>
      <trkpt lat="42.290059" lon="2.031424">
        <ele>1683.217912</ele>
        <time>2022-05-22T04:08:19.938Z</time>
      </trkpt>
      <trkpt lat="42.289929" lon="2.031464">
        <ele>1682.413785</ele>
        <time>2022-05-22T04:08:20.932Z</time>
      </trkpt>
      <trkpt lat="42.289812" lon="2.031539">
        <ele>1681.632801</ele>
        <time>2022-05-22T04:08:21.936Z</time>
      </trkpt>
      <trkpt lat="42.289707" lon="2.031649">
        <ele>1680.831599</ele>
        <time>2022-05-22T04:08:22.936Z</time>
      </trkpt>
      <trkpt lat="42.289646" lon="2.031781">
        <ele>1680.137184</ele>
        <time>2022-05-22T04:08:23.938Z</time>
      </trkpt>
      <trkpt lat="42.289611" lon="2.031944">
        <ele>1679.379911</ele>
        <time>2022-05-22T04:08:24.932Z</time>
      </trkpt>
      <trkpt lat="42.289600" lon="2.032097">
        <ele>1678.806487</ele>
        <time>2022-05-22T04:08:25.930Z</time>
      </trkpt>
      <trkpt lat="42.289603" lon="2.032246">
        <ele>1678.451909</ele>
        <time>2022-05-22T04:08:26.932Z</time>
      </trkpt>
      <trkpt lat="42.289616" lon="2.032380">
        <ele>1678.130415</ele>
        <time>2022-05-22T04:08:27.930Z</time>
      </trkpt>
      <trkpt lat="42.289628" lon="2.032507">
        <ele>1677.825848</ele>
        <time>2022-05-22T04:08:28.933Z</time>
      </trkpt>
      <trkpt lat="42.289639" lon="2.032735">
        <ele>1677.282320</ele>
        <time>2022-05-22T04:08:30.934Z</time>
      </trkpt>
      <trkpt lat="42.289643" lon="2.032949">
        <ele>1676.773086</ele>
        <time>2022-05-22T04:08:32.931Z</time>
      </trkpt>
      <trkpt lat="42.289661" lon="2.033139">
        <ele>1676.317415</ele>
        <time>2022-05-22T04:08:34.933Z</time>
      </trkpt>
      <trkpt lat="42.289675" lon="2.033311">
        <ele>1675.905786</ele>
        <time>2022-05-22T04:08:36.928Z</time>
      </trkpt>
      <trkpt lat="42.289669" lon="2.033475">
        <ele>1675.515180</ele>
        <time>2022-05-22T04:08:38.930Z</time>
      </trkpt>
      <trkpt lat="42.289634" lon="2.033622">
        <ele>1675.147824</ele>
        <time>2022-05-22T04:08:40.924Z</time>
      </trkpt>
      <trkpt lat="42.289573" lon="2.033749">
        <ele>1674.787615</ele>
        <time>2022-05-22T04:08:42.934Z</time>
      </trkpt>
      <trkpt lat="42.289475" lon="2.033825">
        <ele>1674.424298</ele>
        <time>2022-05-22T04:08:44.931Z</time>
      </trkpt>
      <trkpt lat="42.289356" lon="2.033827">
        <ele>1674.041597</ele>
        <time>2022-05-22T04:08:46.932Z</time>
      </trkpt>
      <trkpt lat="42.289214" lon="2.033774">
        <ele>1673.567879</ele>
        <time>2022-05-22T04:08:48.925Z</time>
      </trkpt>
      <trkpt lat="42.289088" lon="2.033661">
        <ele>1673.086098</ele>
        <time>2022-05-22T04:08:50.931Z</time>
      </trkpt>
      <trkpt lat="42.288978" lon="2.033503">
        <ele>1672.603173</ele>
        <time>2022-05-22T04:08:52.924Z</time>
      </trkpt>
      <trkpt lat="42.288876" lon="2.033310">
        <ele>1672.075229</ele>
        <time>2022-05-22T04:08:54.931Z</time>
      </trkpt>
      <trkpt lat="42.288823" lon="2.033204">
        <ele>1671.790457</ele>
        <time>2022-05-22T04:08:55.931Z</time>
      </trkpt>
      <trkpt lat="42.288771" lon="2.033088">
        <ele>1671.488558</ele>
        <time>2022-05-22T04:08:56.935Z</time>
      </trkpt>
      <trkpt lat="42.288719" lon="2.032970">
        <ele>1671.182843</ele>
        <time>2022-05-22T04:08:57.926Z</time>
      </trkpt>
      <trkpt lat="42.288665" lon="2.032850">
        <ele>1670.870211</ele>
        <time>2022-05-22T04:08:58.932Z</time>
      </trkpt>
      <trkpt lat="42.288615" lon="2.032729">
        <ele>1670.561719</ele>
        <time>2022-05-22T04:08:59.933Z</time>
      </trkpt>
      <trkpt lat="42.288558" lon="2.032616">
        <ele>1670.257295</ele>
        <time>2022-05-22T04:09:00.932Z</time>
      </trkpt>
      <trkpt lat="42.288492" lon="2.032514">
        <ele>1669.955669</ele>
        <time>2022-05-22T04:09:01.929Z</time>
      </trkpt>
      <trkpt lat="42.288407" lon="2.032437">
        <ele>1669.647803</ele>
        <time>2022-05-22T04:09:02.930Z</time>
      </trkpt>
      <trkpt lat="42.288300" lon="2.032392">
        <ele>1669.310640</ele>
        <time>2022-05-22T04:09:03.927Z</time>
      </trkpt>
      <trkpt lat="42.288191" lon="2.032370">
        <ele>1668.979044</ele>
        <time>2022-05-22T04:09:04.928Z</time>
      </trkpt>
      <trkpt lat="42.288078" lon="2.032348">
        <ele>1668.635540</ele>
        <time>2022-05-22T04:09:05.932Z</time>
      </trkpt>
      <trkpt lat="42.287962" lon="2.032333">
        <ele>1668.284925</ele>
        <time>2022-05-22T04:09:06.926Z</time>
      </trkpt>
      <trkpt lat="42.287846" lon="2.032336">
        <ele>1667.935839</ele>
        <time>2022-05-22T04:09:07.933Z</time>
      </trkpt>
      <trkpt lat="42.287732" lon="2.032363">
        <ele>1667.450684</ele>
        <time>2022-05-22T04:09:08.932Z</time>
      </trkpt>
      <trkpt lat="42.287633" lon="2.032429">
        <ele>1666.818530</ele>
        <time>2022-05-22T04:09:09.931Z</time>
      </trkpt>
      <trkpt lat="42.287554" lon="2.032528">
        <ele>1666.201607</ele>
        <time>2022-05-22T04:09:10.927Z</time>
      </trkpt>
      <trkpt lat="42.287490" lon="2.032653">
        <ele>1665.557575</ele>
        <time>2022-05-22T04:09:11.930Z</time>
      </trkpt>
      <trkpt lat="42.287444" lon="2.032793">
        <ele>1664.908586</ele>
        <time>2022-05-22T04:09:12.929Z</time>
      </trkpt>
      <trkpt lat="42.287414" lon="2.032942">
        <ele>1664.254376</ele>
        <time>2022-05-22T04:09:13.925Z</time>
      </trkpt>
      <trkpt lat="42.287389" lon="2.033091">
        <ele>1663.607095</ele>
        <time>2022-05-22T04:09:14.934Z</time>
      </trkpt>
      <trkpt lat="42.287364" lon="2.033241">
        <ele>1662.955681</ele>
        <time>2022-05-22T04:09:15.934Z</time>
      </trkpt>
      <trkpt lat="42.287334" lon="2.033392">
        <ele>1662.293291</ele>
        <time>2022-05-22T04:09:16.927Z</time>
      </trkpt>
      <trkpt lat="42.287303" lon="2.033534">
        <ele>1661.666049</ele>
        <time>2022-05-22T04:09:17.929Z</time>
      </trkpt>
      <trkpt lat="42.287271" lon="2.033671">
        <ele>1661.057395</ele>
        <time>2022-05-22T04:09:18.936Z</time>
      </trkpt>
      <trkpt lat="42.287243" lon="2.033799">
        <ele>1660.491903</ele>
        <time>2022-05-22T04:09:19.938Z</time>
      </trkpt>
      <trkpt lat="42.287213" lon="2.033929">
        <ele>1659.914973</ele>
        <time>2022-05-22T04:09:20.931Z</time>
      </trkpt>
      <trkpt lat="42.287185" lon="2.034051">
        <ele>1659.373808</ele>
        <time>2022-05-22T04:09:21.928Z</time>
      </trkpt>
      <trkpt lat="42.287130" lon="2.034257">
        <ele>1658.445973</ele>
        <time>2022-05-22T04:09:23.918Z</time>
      </trkpt>
      <trkpt lat="42.287053" lon="2.034449">
        <ele>1657.520711</ele>
        <time>2022-05-22T04:09:25.922Z</time>
      </trkpt>
      <trkpt lat="42.286937" lon="2.034597">
        <ele>1656.329908</ele>
        <time>2022-05-22T04:09:27.927Z</time>
      </trkpt>
      <trkpt lat="42.286784" lon="2.034686">
        <ele>1655.057882</ele>
        <time>2022-05-22T04:09:30.005Z</time>
      </trkpt>
      <trkpt lat="42.286629" lon="2.034753">
        <ele>1653.815129</ele>
        <time>2022-05-22T04:09:31.950Z</time>
      </trkpt>
      <trkpt lat="42.286487" lon="2.034775">
        <ele>1652.723604</ele>
        <time>2022-05-22T04:09:33.921Z</time>
      </trkpt>
      <trkpt lat="42.286355" lon="2.034690">
        <ele>1651.607007</ele>
        <time>2022-05-22T04:09:35.923Z</time>
      </trkpt>
      <trkpt lat="42.286237" lon="2.034535">
        <ele>1650.350464</ele>
        <time>2022-05-22T04:09:37.926Z</time>
      </trkpt>
      <trkpt lat="42.286087" lon="2.034383">
        <ele>1648.918800</ele>
        <time>2022-05-22T04:09:39.931Z</time>
      </trkpt>
      <trkpt lat="42.286009" lon="2.034299">
        <ele>1648.157195</ele>
        <time>2022-05-22T04:09:40.924Z</time>
      </trkpt>
      <trkpt lat="42.285935" lon="2.034205">
        <ele>1647.381696</ele>
        <time>2022-05-22T04:09:41.920Z</time>
      </trkpt>
      <trkpt lat="42.285855" lon="2.034096">
        <ele>1646.514240</ele>
        <time>2022-05-22T04:09:42.929Z</time>
      </trkpt>
      <trkpt lat="42.285774" lon="2.033986">
        <ele>1645.637392</ele>
        <time>2022-05-22T04:09:43.923Z</time>
      </trkpt>
      <trkpt lat="42.285696" lon="2.033858">
        <ele>1644.700490</ele>
        <time>2022-05-22T04:09:44.928Z</time>
      </trkpt>
      <trkpt lat="42.285628" lon="2.033727">
        <ele>1643.796367</ele>
        <time>2022-05-22T04:09:45.931Z</time>
      </trkpt>
      <trkpt lat="42.285554" lon="2.033590">
        <ele>1642.736916</ele>
        <time>2022-05-22T04:09:46.928Z</time>
      </trkpt>
      <trkpt lat="42.285477" lon="2.033448">
        <ele>1641.625960</ele>
        <time>2022-05-22T04:09:47.927Z</time>
      </trkpt>
      <trkpt lat="42.285390" lon="2.033312">
        <ele>1640.491445</ele>
        <time>2022-05-22T04:09:48.927Z</time>
      </trkpt>
      <trkpt lat="42.285308" lon="2.033200">
        <ele>1639.497134</ele>
        <time>2022-05-22T04:09:49.927Z</time>
      </trkpt>
      <trkpt lat="42.285229" lon="2.033110">
        <ele>1638.615903</ele>
        <time>2022-05-22T04:09:50.926Z</time>
      </trkpt>
      <trkpt lat="42.285131" lon="2.033054">
        <ele>1637.708392</ele>
        <time>2022-05-22T04:09:51.937Z</time>
      </trkpt>
      <trkpt lat="42.285016" lon="2.033054">
        <ele>1636.727503</ele>
        <time>2022-05-22T04:09:52.927Z</time>
      </trkpt>
      <trkpt lat="42.284900" lon="2.033076">
        <ele>1635.728394</ele>
        <time>2022-05-22T04:09:53.934Z</time>
      </trkpt>
      <trkpt lat="42.284783" lon="2.033110">
        <ele>1634.707645</ele>
        <time>2022-05-22T04:09:54.930Z</time>
      </trkpt>
      <trkpt lat="42.284660" lon="2.033153">
        <ele>1633.624000</ele>
        <time>2022-05-22T04:09:55.942Z</time>
      </trkpt>
      <trkpt lat="42.284535" lon="2.033192">
        <ele>1632.529784</ele>
        <time>2022-05-22T04:09:56.930Z</time>
      </trkpt>
      <trkpt lat="42.284408" lon="2.033225">
        <ele>1631.426708</ele>
        <time>2022-05-22T04:09:57.933Z</time>
      </trkpt>
      <trkpt lat="42.284282" lon="2.033257">
        <ele>1630.333190</ele>
        <time>2022-05-22T04:09:58.933Z</time>
      </trkpt>
      <trkpt lat="42.284153" lon="2.033293">
        <ele>1629.209684</ele>
        <time>2022-05-22T04:09:59.930Z</time>
      </trkpt>
      <trkpt lat="42.284026" lon="2.033326">
        <ele>1628.096827</ele>
        <time>2022-05-22T04:10:00.930Z</time>
      </trkpt>
      <trkpt lat="42.283905" lon="2.033340">
        <ele>1627.021220</ele>
        <time>2022-05-22T04:10:01.932Z</time>
      </trkpt>
      <trkpt lat="42.283800" lon="2.033339">
        <ele>1626.091220</ele>
        <time>2022-05-22T04:10:02.939Z</time>
      </trkpt>
      <trkpt lat="42.283701" lon="2.033355">
        <ele>1625.208139</ele>
        <time>2022-05-22T04:10:03.936Z</time>
      </trkpt>
      <trkpt lat="42.283614" lon="2.033416">
        <ele>1624.340086</ele>
        <time>2022-05-22T04:10:04.934Z</time>
      </trkpt>
      <trkpt lat="42.283542" lon="2.033517">
        <ele>1623.421038</ele>
        <time>2022-05-22T04:10:05.930Z</time>
      </trkpt>
      <trkpt lat="42.283486" lon="2.033648">
        <ele>1622.429659</ele>
        <time>2022-05-22T04:10:06.941Z</time>
      </trkpt>
      <trkpt lat="42.283429" lon="2.033771">
        <ele>1621.478633</ele>
        <time>2022-05-22T04:10:07.930Z</time>
      </trkpt>
      <trkpt lat="42.283357" lon="2.033892">
        <ele>1620.461141</ele>
        <time>2022-05-22T04:10:08.938Z</time>
      </trkpt>
      <trkpt lat="42.283286" lon="2.034011">
        <ele>1619.459410</ele>
        <time>2022-05-22T04:10:09.930Z</time>
      </trkpt>
      <trkpt lat="42.283204" lon="2.034132">
        <ele>1618.384190</ele>
        <time>2022-05-22T04:10:10.937Z</time>
      </trkpt>
      <trkpt lat="42.283124" lon="2.034256">
        <ele>1617.306116</ele>
        <time>2022-05-22T04:10:11.929Z</time>
      </trkpt>
      <trkpt lat="42.283050" lon="2.034388">
        <ele>1616.220899</ele>
        <time>2022-05-22T04:10:12.934Z</time>
      </trkpt>
      <trkpt lat="42.282978" lon="2.034515">
        <ele>1615.172478</ele>
        <time>2022-05-22T04:10:13.925Z</time>
      </trkpt>
      <trkpt lat="42.282911" lon="2.034631">
        <ele>1614.208165</ele>
        <time>2022-05-22T04:10:14.927Z</time>
      </trkpt>
      <trkpt lat="42.282848" lon="2.034728">
        <ele>1613.362385</ele>
        <time>2022-05-22T04:10:15.927Z</time>
      </trkpt>
      <trkpt lat="42.282724" lon="2.034821">
        <ele>1612.176753</ele>
        <time>2022-05-22T04:10:17.934Z</time>
      </trkpt>
      <trkpt lat="42.282582" lon="2.034735">
        <ele>1611.097400</ele>
        <time>2022-05-22T04:10:19.934Z</time>
      </trkpt>
      <trkpt lat="42.282492" lon="2.034511">
        <ele>1609.789266</ele>
        <time>2022-05-22T04:10:21.932Z</time>
      </trkpt>
      <trkpt lat="42.282473" lon="2.034376">
        <ele>1609.084029</ele>
        <time>2022-05-22T04:10:22.928Z</time>
      </trkpt>
      <trkpt lat="42.282465" lon="2.034230">
        <ele>1608.332714</ele>
        <time>2022-05-22T04:10:23.932Z</time>
      </trkpt>
      <trkpt lat="42.282464" lon="2.034088">
        <ele>1607.603945</ele>
        <time>2022-05-22T04:10:24.936Z</time>
      </trkpt>
      <trkpt lat="42.282480" lon="2.033937">
        <ele>1606.821114</ele>
        <time>2022-05-22T04:10:25.931Z</time>
      </trkpt>
      <trkpt lat="42.282509" lon="2.033794">
        <ele>1606.060176</ele>
        <time>2022-05-22T04:10:26.939Z</time>
      </trkpt>
      <trkpt lat="42.282552" lon="2.033670">
        <ele>1605.357380</ele>
        <time>2022-05-22T04:10:27.927Z</time>
      </trkpt>
      <trkpt lat="42.282684" lon="2.033500">
        <ele>1604.092664</ele>
        <time>2022-05-22T04:10:29.934Z</time>
      </trkpt>
      <trkpt lat="42.282777" lon="2.033451">
        <ele>1603.400283</ele>
        <time>2022-05-22T04:10:30.923Z</time>
      </trkpt>
      <trkpt lat="42.282873" lon="2.033406">
        <ele>1602.695463</ele>
        <time>2022-05-22T04:10:31.932Z</time>
      </trkpt>
      <trkpt lat="42.282975" lon="2.033351">
        <ele>1601.933710</ele>
        <time>2022-05-22T04:10:32.935Z</time>
      </trkpt>
      <trkpt lat="42.283069" lon="2.033266">
        <ele>1601.149213</ele>
        <time>2022-05-22T04:10:33.935Z</time>
      </trkpt>
      <trkpt lat="42.283139" lon="2.033156">
        <ele>1600.404606</ele>
        <time>2022-05-22T04:10:34.929Z</time>
      </trkpt>
      <trkpt lat="42.283195" lon="2.033029">
        <ele>1599.477698</ele>
        <time>2022-05-22T04:10:35.930Z</time>
      </trkpt>
      <trkpt lat="42.283229" lon="2.032898">
        <ele>1598.377002</ele>
        <time>2022-05-22T04:10:36.929Z</time>
      </trkpt>
      <trkpt lat="42.283271" lon="2.032761">
        <ele>1597.201231</ele>
        <time>2022-05-22T04:10:37.933Z</time>
      </trkpt>
      <trkpt lat="42.283313" lon="2.032647">
        <ele>1596.191509</ele>
        <time>2022-05-22T04:10:38.932Z</time>
      </trkpt>
      <trkpt lat="42.283375" lon="2.032555">
        <ele>1595.204831</ele>
        <time>2022-05-22T04:10:39.931Z</time>
      </trkpt>
      <trkpt lat="42.283460" lon="2.032465">
        <ele>1594.047700</ele>
        <time>2022-05-22T04:10:40.929Z</time>
      </trkpt>
      <trkpt lat="42.283529" lon="2.032365">
        <ele>1592.963541</ele>
        <time>2022-05-22T04:10:41.929Z</time>
      </trkpt>
      <trkpt lat="42.283589" lon="2.032244">
        <ele>1591.808639</ele>
        <time>2022-05-22T04:10:42.940Z</time>
      </trkpt>
      <trkpt lat="42.283629" lon="2.032110">
        <ele>1590.663002</ele>
        <time>2022-05-22T04:10:43.930Z</time>
      </trkpt>
      <trkpt lat="42.283647" lon="2.031944">
        <ele>1589.332814</ele>
        <time>2022-05-22T04:10:44.926Z</time>
      </trkpt>
      <trkpt lat="42.283664" lon="2.031788">
        <ele>1588.082627</ele>
        <time>2022-05-22T04:10:45.927Z</time>
      </trkpt>
      <trkpt lat="42.283685" lon="2.031628">
        <ele>1586.794263</ele>
        <time>2022-05-22T04:10:46.930Z</time>
      </trkpt>
      <trkpt lat="42.283697" lon="2.031463">
        <ele>1585.479761</ele>
        <time>2022-05-22T04:10:47.938Z</time>
      </trkpt>
      <trkpt lat="42.283704" lon="2.031301">
        <ele>1584.193160</ele>
        <time>2022-05-22T04:10:48.934Z</time>
      </trkpt>
      <trkpt lat="42.283712" lon="2.031140">
        <ele>1582.913802</ele>
        <time>2022-05-22T04:10:49.934Z</time>
      </trkpt>
      <trkpt lat="42.283704" lon="2.030965">
        <ele>1581.523674</ele>
        <time>2022-05-22T04:10:50.933Z</time>
      </trkpt>
      <trkpt lat="42.283683" lon="2.030792">
        <ele>1580.331615</ele>
        <time>2022-05-22T04:10:51.937Z</time>
      </trkpt>
      <trkpt lat="42.283638" lon="2.030632">
        <ele>1579.467085</ele>
        <time>2022-05-22T04:10:52.931Z</time>
      </trkpt>
      <trkpt lat="42.283549" lon="2.030493">
        <ele>1578.538630</ele>
        <time>2022-05-22T04:10:53.936Z</time>
      </trkpt>
      <trkpt lat="42.283425" lon="2.030399">
        <ele>1577.568058</ele>
        <time>2022-05-22T04:10:54.930Z</time>
      </trkpt>
      <trkpt lat="42.283285" lon="2.030348">
        <ele>1576.578197</ele>
        <time>2022-05-22T04:10:55.932Z</time>
      </trkpt>
      <trkpt lat="42.283148" lon="2.030303">
        <ele>1575.615699</ele>
        <time>2022-05-22T04:10:56.928Z</time>
      </trkpt>
      <trkpt lat="42.283024" lon="2.030246">
        <ele>1574.721556</ele>
        <time>2022-05-22T04:10:57.932Z</time>
      </trkpt>
      <trkpt lat="42.282912" lon="2.030179">
        <ele>1573.885412</ele>
        <time>2022-05-22T04:10:58.935Z</time>
      </trkpt>
      <trkpt lat="42.282808" lon="2.030096">
        <ele>1573.060896</ele>
        <time>2022-05-22T04:10:59.931Z</time>
      </trkpt>
      <trkpt lat="42.282736" lon="2.029985">
        <ele>1572.315301</ele>
        <time>2022-05-22T04:11:00.928Z</time>
      </trkpt>
      <trkpt lat="42.282707" lon="2.029854">
        <ele>1571.624670</ele>
        <time>2022-05-22T04:11:01.933Z</time>
      </trkpt>
      <trkpt lat="42.282707" lon="2.029699">
        <ele>1570.841806</ele>
        <time>2022-05-22T04:11:02.931Z</time>
      </trkpt>
      <trkpt lat="42.282728" lon="2.029545">
        <ele>1570.050891</ele>
        <time>2022-05-22T04:11:03.929Z</time>
      </trkpt>
      <trkpt lat="42.282766" lon="2.029407">
        <ele>1569.307178</ele>
        <time>2022-05-22T04:11:04.932Z</time>
      </trkpt>
      <trkpt lat="42.282824" lon="2.029262">
        <ele>1568.474636</ele>
        <time>2022-05-22T04:11:05.936Z</time>
      </trkpt>
      <trkpt lat="42.282893" lon="2.029106">
        <ele>1567.456125</ele>
        <time>2022-05-22T04:11:06.931Z</time>
      </trkpt>
      <trkpt lat="42.282954" lon="2.028955">
        <ele>1566.483587</ele>
        <time>2022-05-22T04:11:07.927Z</time>
      </trkpt>
      <trkpt lat="42.283008" lon="2.028798">
        <ele>1565.504872</ele>
        <time>2022-05-22T04:11:08.932Z</time>
      </trkpt>
      <trkpt lat="42.283053" lon="2.028636">
        <ele>1564.526693</ele>
        <time>2022-05-22T04:11:09.933Z</time>
      </trkpt>
      <trkpt lat="42.283082" lon="2.028469">
        <ele>1563.557015</ele>
        <time>2022-05-22T04:11:10.936Z</time>
      </trkpt>
      <trkpt lat="42.283090" lon="2.028296">
        <ele>1562.577168</ele>
        <time>2022-05-22T04:11:11.927Z</time>
      </trkpt>
      <trkpt lat="42.283093" lon="2.028125">
        <ele>1561.610264</ele>
        <time>2022-05-22T04:11:12.929Z</time>
      </trkpt>
      <trkpt lat="42.283095" lon="2.027950">
        <ele>1560.620902</ele>
        <time>2022-05-22T04:11:13.924Z</time>
      </trkpt>
      <trkpt lat="42.283104" lon="2.027772">
        <ele>1559.612353</ele>
        <time>2022-05-22T04:11:14.927Z</time>
      </trkpt>
      <trkpt lat="42.283112" lon="2.027595">
        <ele>1558.609938</ele>
        <time>2022-05-22T04:11:15.928Z</time>
      </trkpt>
      <trkpt lat="42.283102" lon="2.027421">
        <ele>1557.623384</ele>
        <time>2022-05-22T04:11:16.929Z</time>
      </trkpt>
      <trkpt lat="42.283086" lon="2.027250">
        <ele>1556.649051</ele>
        <time>2022-05-22T04:11:17.931Z</time>
      </trkpt>
      <trkpt lat="42.283058" lon="2.027082">
        <ele>1555.675577</ele>
        <time>2022-05-22T04:11:18.925Z</time>
      </trkpt>
      <trkpt lat="42.283011" lon="2.026930">
        <ele>1554.744321</ele>
        <time>2022-05-22T04:11:19.937Z</time>
      </trkpt>
      <trkpt lat="42.282931" lon="2.026804">
        <ele>1553.850241</ele>
        <time>2022-05-22T04:11:20.931Z</time>
      </trkpt>
      <trkpt lat="42.282837" lon="2.026699">
        <ele>1552.967211</ele>
        <time>2022-05-22T04:11:21.933Z</time>
      </trkpt>
      <trkpt lat="42.282745" lon="2.026603">
        <ele>1552.125595</ele>
        <time>2022-05-22T04:11:22.929Z</time>
      </trkpt>
      <trkpt lat="42.282637" lon="2.026527">
        <ele>1551.243904</ele>
        <time>2022-05-22T04:11:23.930Z</time>
      </trkpt>
      <trkpt lat="42.282516" lon="2.026474">
        <ele>1550.322858</ele>
        <time>2022-05-22T04:11:24.938Z</time>
      </trkpt>
      <trkpt lat="42.282398" lon="2.026461">
        <ele>1549.465560</ele>
        <time>2022-05-22T04:11:25.939Z</time>
      </trkpt>
      <trkpt lat="42.282296" lon="2.026473">
        <ele>1548.724163</ele>
        <time>2022-05-22T04:11:26.929Z</time>
      </trkpt>
      <trkpt lat="42.282188" lon="2.026502">
        <ele>1547.926829</ele>
        <time>2022-05-22T04:11:27.930Z</time>
      </trkpt>
      <trkpt lat="42.282079" lon="2.026548">
        <ele>1547.099958</ele>
        <time>2022-05-22T04:11:28.932Z</time>
      </trkpt>
      <trkpt lat="42.281975" lon="2.026594">
        <ele>1546.307574</ele>
        <time>2022-05-22T04:11:29.932Z</time>
      </trkpt>
      <trkpt lat="42.281872" lon="2.026615">
        <ele>1545.553291</ele>
        <time>2022-05-22T04:11:30.935Z</time>
      </trkpt>
      <trkpt lat="42.281757" lon="2.026594">
        <ele>1544.712985</ele>
        <time>2022-05-22T04:11:31.934Z</time>
      </trkpt>
      <trkpt lat="42.281648" lon="2.026531">
        <ele>1543.854556</ele>
        <time>2022-05-22T04:11:32.936Z</time>
      </trkpt>
      <trkpt lat="42.281546" lon="2.026453">
        <ele>1543.005935</ele>
        <time>2022-05-22T04:11:33.931Z</time>
      </trkpt>
      <trkpt lat="42.281443" lon="2.026374">
        <ele>1542.148372</ele>
        <time>2022-05-22T04:11:34.934Z</time>
      </trkpt>
      <trkpt lat="42.281336" lon="2.026297">
        <ele>1541.364972</ele>
        <time>2022-05-22T04:11:35.930Z</time>
      </trkpt>
      <trkpt lat="42.281225" lon="2.026220">
        <ele>1540.697063</ele>
        <time>2022-05-22T04:11:36.939Z</time>
      </trkpt>
      <trkpt lat="42.281120" lon="2.026142">
        <ele>1540.055664</ele>
        <time>2022-05-22T04:11:37.930Z</time>
      </trkpt>
      <trkpt lat="42.281010" lon="2.026054">
        <ele>1539.371382</ele>
        <time>2022-05-22T04:11:38.934Z</time>
      </trkpt>
      <trkpt lat="42.280890" lon="2.025980">
        <ele>1538.665283</ele>
        <time>2022-05-22T04:11:39.937Z</time>
      </trkpt>
      <trkpt lat="42.280758" lon="2.025936">
        <ele>1537.937473</ele>
        <time>2022-05-22T04:11:40.964Z</time>
      </trkpt>
      <trkpt lat="42.280616" lon="2.025932">
        <ele>1537.177137</ele>
        <time>2022-05-22T04:11:41.936Z</time>
      </trkpt>
      <trkpt lat="42.280488" lon="2.025983">
        <ele>1536.462760</ele>
        <time>2022-05-22T04:11:42.930Z</time>
      </trkpt>
      <trkpt lat="42.280385" lon="2.026072">
        <ele>1535.808321</ele>
        <time>2022-05-22T04:11:43.936Z</time>
      </trkpt>
      <trkpt lat="42.280295" lon="2.026200">
        <ele>1535.108928</ele>
        <time>2022-05-22T04:11:44.935Z</time>
      </trkpt>
      <trkpt lat="42.280200" lon="2.026331">
        <ele>1534.382397</ele>
        <time>2022-05-22T04:11:45.928Z</time>
      </trkpt>
      <trkpt lat="42.280109" lon="2.026455">
        <ele>1533.690641</ele>
        <time>2022-05-22T04:11:46.929Z</time>
      </trkpt>
      <trkpt lat="42.280022" lon="2.026588">
        <ele>1532.987501</ele>
        <time>2022-05-22T04:11:47.926Z</time>
      </trkpt>
      <trkpt lat="42.279933" lon="2.026710">
        <ele>1532.308905</ele>
        <time>2022-05-22T04:11:48.934Z</time>
      </trkpt>
      <trkpt lat="42.279817" lon="2.026790">
        <ele>1531.497659</ele>
        <time>2022-05-22T04:11:49.927Z</time>
      </trkpt>
      <trkpt lat="42.279670" lon="2.026821">
        <ele>1530.469475</ele>
        <time>2022-05-22T04:11:50.928Z</time>
      </trkpt>
      <trkpt lat="42.279520" lon="2.026851">
        <ele>1529.421561</ele>
        <time>2022-05-22T04:11:51.937Z</time>
      </trkpt>
      <trkpt lat="42.279379" lon="2.026918">
        <ele>1528.388666</ele>
        <time>2022-05-22T04:11:52.940Z</time>
      </trkpt>
      <trkpt lat="42.279256" lon="2.027020">
        <ele>1527.391389</ele>
        <time>2022-05-22T04:11:53.933Z</time>
      </trkpt>
      <trkpt lat="42.279142" lon="2.027142">
        <ele>1526.386491</ele>
        <time>2022-05-22T04:11:54.934Z</time>
      </trkpt>
      <trkpt lat="42.279039" lon="2.027278">
        <ele>1525.391377</ele>
        <time>2022-05-22T04:11:55.932Z</time>
      </trkpt>
      <trkpt lat="42.278941" lon="2.027421">
        <ele>1524.394726</ele>
        <time>2022-05-22T04:11:56.932Z</time>
      </trkpt>
      <trkpt lat="42.278860" lon="2.027576">
        <ele>1523.424428</ele>
        <time>2022-05-22T04:11:57.927Z</time>
      </trkpt>
      <trkpt lat="42.278790" lon="2.027744">
        <ele>1522.438563</ele>
        <time>2022-05-22T04:11:58.932Z</time>
      </trkpt>
      <trkpt lat="42.278723" lon="2.027919">
        <ele>1521.431052</ele>
        <time>2022-05-22T04:11:59.946Z</time>
      </trkpt>
      <trkpt lat="42.278650" lon="2.028093">
        <ele>1520.408275</ele>
        <time>2022-05-22T04:12:00.936Z</time>
      </trkpt>
      <trkpt lat="42.278580" lon="2.028264">
        <ele>1519.456626</ele>
        <time>2022-05-22T04:12:01.930Z</time>
      </trkpt>
      <trkpt lat="42.278512" lon="2.028431">
        <ele>1518.763633</ele>
        <time>2022-05-22T04:12:02.931Z</time>
      </trkpt>
      <trkpt lat="42.278450" lon="2.028603">
        <ele>1518.068068</ele>
        <time>2022-05-22T04:12:03.933Z</time>
      </trkpt>
      <trkpt lat="42.278394" lon="2.028774">
        <ele>1517.388226</ele>
        <time>2022-05-22T04:12:04.935Z</time>
      </trkpt>
      <trkpt lat="42.278343" lon="2.028930">
        <ele>1516.768193</ele>
        <time>2022-05-22T04:12:05.934Z</time>
      </trkpt>
      <trkpt lat="42.278288" lon="2.029079">
        <ele>1516.162834</ele>
        <time>2022-05-22T04:12:06.939Z</time>
      </trkpt>
      <trkpt lat="42.278222" lon="2.029210">
        <ele>1515.586654</ele>
        <time>2022-05-22T04:12:07.935Z</time>
      </trkpt>
      <trkpt lat="42.278138" lon="2.029314">
        <ele>1515.026914</ele>
        <time>2022-05-22T04:12:08.934Z</time>
      </trkpt>
      <trkpt lat="42.278036" lon="2.029359">
        <ele>1514.499703</ele>
        <time>2022-05-22T04:12:09.926Z</time>
      </trkpt>
      <trkpt lat="42.277942" lon="2.029356">
        <ele>1514.037697</ele>
        <time>2022-05-22T04:12:10.927Z</time>
      </trkpt>
      <trkpt lat="42.277784" lon="2.029235">
        <ele>1513.145383</ele>
        <time>2022-05-22T04:12:12.925Z</time>
      </trkpt>
      <trkpt lat="42.277720" lon="2.029113">
        <ele>1512.601680</ele>
        <time>2022-05-22T04:12:13.926Z</time>
      </trkpt>
      <trkpt lat="42.277689" lon="2.028964">
        <ele>1512.038977</ele>
        <time>2022-05-22T04:12:14.947Z</time>
      </trkpt>
      <trkpt lat="42.277673" lon="2.028810">
        <ele>1511.473613</ele>
        <time>2022-05-22T04:12:15.923Z</time>
      </trkpt>
      <trkpt lat="42.277671" lon="2.028672">
        <ele>1510.971814</ele>
        <time>2022-05-22T04:12:16.919Z</time>
      </trkpt>
      <trkpt lat="42.277669" lon="2.028525">
        <ele>1510.393124</ele>
        <time>2022-05-22T04:12:17.925Z</time>
      </trkpt>
      <trkpt lat="42.277667" lon="2.028373">
        <ele>1509.758690</ele>
        <time>2022-05-22T04:12:18.933Z</time>
      </trkpt>
      <trkpt lat="42.277666" lon="2.028218">
        <ele>1509.111811</ele>
        <time>2022-05-22T04:12:19.934Z</time>
      </trkpt>
      <trkpt lat="42.277664" lon="2.028076">
        <ele>1508.519102</ele>
        <time>2022-05-22T04:12:20.935Z</time>
      </trkpt>
      <trkpt lat="42.277662" lon="2.027931">
        <ele>1507.913876</ele>
        <time>2022-05-22T04:12:21.930Z</time>
      </trkpt>
      <trkpt lat="42.277664" lon="2.027787">
        <ele>1507.312822</ele>
        <time>2022-05-22T04:12:22.935Z</time>
      </trkpt>
      <trkpt lat="42.277661" lon="2.027647">
        <ele>1506.728321</ele>
        <time>2022-05-22T04:12:23.934Z</time>
      </trkpt>
      <trkpt lat="42.277664" lon="2.027508">
        <ele>1506.147993</ele>
        <time>2022-05-22T04:12:24.921Z</time>
      </trkpt>
      <trkpt lat="42.277667" lon="2.027365">
        <ele>1505.550978</ele>
        <time>2022-05-22T04:12:25.938Z</time>
      </trkpt>
      <trkpt lat="42.277678" lon="2.027223">
        <ele>1504.955137</ele>
        <time>2022-05-22T04:12:26.933Z</time>
      </trkpt>
      <trkpt lat="42.277694" lon="2.027083">
        <ele>1504.363954</ele>
        <time>2022-05-22T04:12:27.942Z</time>
      </trkpt>
      <trkpt lat="42.277716" lon="2.026945">
        <ele>1503.774829</ele>
        <time>2022-05-22T04:12:28.933Z</time>
      </trkpt>
      <trkpt lat="42.277756" lon="2.026812">
        <ele>1503.175685</ele>
        <time>2022-05-22T04:12:29.938Z</time>
      </trkpt>
      <trkpt lat="42.277804" lon="2.026687">
        <ele>1502.587959</ele>
        <time>2022-05-22T04:12:30.936Z</time>
      </trkpt>
      <trkpt lat="42.277861" lon="2.026565">
        <ele>1501.985812</ele>
        <time>2022-05-22T04:12:31.938Z</time>
      </trkpt>
      <trkpt lat="42.277916" lon="2.026447">
        <ele>1501.403803</ele>
        <time>2022-05-22T04:12:32.934Z</time>
      </trkpt>
      <trkpt lat="42.277975" lon="2.026336">
        <ele>1500.833431</ele>
        <time>2022-05-22T04:12:33.935Z</time>
      </trkpt>
      <trkpt lat="42.278034" lon="2.026227">
        <ele>1500.501349</ele>
        <time>2022-05-22T04:12:34.933Z</time>
      </trkpt>
      <trkpt lat="42.278093" lon="2.026121">
        <ele>1500.346821</ele>
        <time>2022-05-22T04:12:35.936Z</time>
      </trkpt>
      <trkpt lat="42.278155" lon="2.026017">
        <ele>1500.191229</ele>
        <time>2022-05-22T04:12:36.936Z</time>
      </trkpt>
      <trkpt lat="42.278211" lon="2.025915">
        <ele>1500.043261</ele>
        <time>2022-05-22T04:12:37.925Z</time>
      </trkpt>
      <trkpt lat="42.278268" lon="2.025812">
        <ele>1499.893419</ele>
        <time>2022-05-22T04:12:38.932Z</time>
      </trkpt>
      <trkpt lat="42.278371" lon="2.025619">
        <ele>1499.616194</ele>
        <time>2022-05-22T04:12:40.935Z</time>
      </trkpt>
      <trkpt lat="42.278482" lon="2.025443">
        <ele>1499.346779</ele>
        <time>2022-05-22T04:12:42.933Z</time>
      </trkpt>
      <trkpt lat="42.278618" lon="2.025305">
        <ele>1499.079012</ele>
        <time>2022-05-22T04:12:44.932Z</time>
      </trkpt>
      <trkpt lat="42.278764" lon="2.025195">
        <ele>1498.815827</ele>
        <time>2022-05-22T04:12:46.929Z</time>
      </trkpt>
      <trkpt lat="42.278922" lon="2.025094">
        <ele>1498.540630</ele>
        <time>2022-05-22T04:12:48.926Z</time>
      </trkpt>
      <trkpt lat="42.279008" lon="2.025054">
        <ele>1498.397427</ele>
        <time>2022-05-22T04:12:49.928Z</time>
      </trkpt>
      <trkpt lat="42.279178" lon="2.024974">
        <ele>1498.113998</ele>
        <time>2022-05-22T04:12:51.936Z</time>
      </trkpt>
      <trkpt lat="42.279314" lon="2.024829">
        <ele>1497.841257</ele>
        <time>2022-05-22T04:12:53.933Z</time>
      </trkpt>
      <trkpt lat="42.279358" lon="2.024607">
        <ele>1496.970859</ele>
        <time>2022-05-22T04:12:55.935Z</time>
      </trkpt>
      <trkpt lat="42.279293" lon="2.024404">
        <ele>1495.875934</ele>
        <time>2022-05-22T04:12:57.935Z</time>
      </trkpt>
      <trkpt lat="42.279192" lon="2.024209">
        <ele>1494.697655</ele>
        <time>2022-05-22T04:12:59.935Z</time>
      </trkpt>
      <trkpt lat="42.279157" lon="2.023971">
        <ele>1493.496494</ele>
        <time>2022-05-22T04:13:01.935Z</time>
      </trkpt>
      <trkpt lat="42.279179" lon="2.023846">
        <ele>1492.860471</ele>
        <time>2022-05-22T04:13:02.949Z</time>
      </trkpt>
      <trkpt lat="42.279220" lon="2.023722">
        <ele>1492.188159</ele>
        <time>2022-05-22T04:13:03.932Z</time>
      </trkpt>
      <trkpt lat="42.279281" lon="2.023593">
        <ele>1491.430325</ele>
        <time>2022-05-22T04:13:04.937Z</time>
      </trkpt>
      <trkpt lat="42.279344" lon="2.023472">
        <ele>1490.697927</ele>
        <time>2022-05-22T04:13:05.939Z</time>
      </trkpt>
      <trkpt lat="42.279409" lon="2.023340">
        <ele>1489.913034</ele>
        <time>2022-05-22T04:13:06.930Z</time>
      </trkpt>
      <trkpt lat="42.279451" lon="2.023196">
        <ele>1489.146841</ele>
        <time>2022-05-22T04:13:07.935Z</time>
      </trkpt>
      <trkpt lat="42.279481" lon="2.023053">
        <ele>1488.411080</ele>
        <time>2022-05-22T04:13:08.929Z</time>
      </trkpt>
      <trkpt lat="42.279481" lon="2.022910">
        <ele>1487.703225</ele>
        <time>2022-05-22T04:13:09.932Z</time>
      </trkpt>
      <trkpt lat="42.279471" lon="2.022770">
        <ele>1487.006997</ele>
        <time>2022-05-22T04:13:10.932Z</time>
      </trkpt>
      <trkpt lat="42.279447" lon="2.022623">
        <ele>1486.261836</ele>
        <time>2022-05-22T04:13:11.931Z</time>
      </trkpt>
      <trkpt lat="42.279443" lon="2.022466">
        <ele>1485.381485</ele>
        <time>2022-05-22T04:13:12.933Z</time>
      </trkpt>
      <trkpt lat="42.279459" lon="2.022304">
        <ele>1484.227803</ele>
        <time>2022-05-22T04:13:13.936Z</time>
      </trkpt>
      <trkpt lat="42.279500" lon="2.022143">
        <ele>1483.025889</ele>
        <time>2022-05-22T04:13:14.933Z</time>
      </trkpt>
      <trkpt lat="42.279544" lon="2.021980">
        <ele>1481.801106</ele>
        <time>2022-05-22T04:13:15.934Z</time>
      </trkpt>
      <trkpt lat="42.279584" lon="2.021822">
        <ele>1480.622321</ele>
        <time>2022-05-22T04:13:16.940Z</time>
      </trkpt>
      <trkpt lat="42.279625" lon="2.021672">
        <ele>1479.493547</ele>
        <time>2022-05-22T04:13:17.928Z</time>
      </trkpt>
      <trkpt lat="42.279667" lon="2.021526">
        <ele>1478.387795</ele>
        <time>2022-05-22T04:13:18.931Z</time>
      </trkpt>
      <trkpt lat="42.279707" lon="2.021385">
        <ele>1477.321841</ele>
        <time>2022-05-22T04:13:19.929Z</time>
      </trkpt>
      <trkpt lat="42.279740" lon="2.021256">
        <ele>1476.358357</ele>
        <time>2022-05-22T04:13:20.937Z</time>
      </trkpt>
      <trkpt lat="42.279783" lon="2.021145">
        <ele>1475.473922</ele>
        <time>2022-05-22T04:13:21.936Z</time>
      </trkpt>
      <trkpt lat="42.279865" lon="2.020948">
        <ele>1473.878369</ele>
        <time>2022-05-22T04:13:23.938Z</time>
      </trkpt>
      <trkpt lat="42.279927" lon="2.020826">
        <ele>1472.833609</ele>
        <time>2022-05-22T04:13:25.934Z</time>
      </trkpt>
      <trkpt lat="42.279860" lon="2.020738">
        <ele>1471.942279</ele>
        <time>2022-05-22T04:13:33.932Z</time>
      </trkpt>
      <trkpt lat="42.279778" lon="2.020799">
        <ele>1471.049276</ele>
        <time>2022-05-22T04:13:37.929Z</time>
      </trkpt>
      <trkpt lat="42.279865" lon="2.020744">
        <ele>1470.132929</ele>
        <time>2022-05-22T04:13:53.938Z</time>
      </trkpt>
      <trkpt lat="42.279956" lon="2.020673">
        <ele>1469.130457</ele>
        <time>2022-05-22T04:14:01.932Z</time>
      </trkpt>
      <trkpt lat="42.280069" lon="2.020596">
        <ele>1468.063883</ele>
        <time>2022-05-22T04:14:05.931Z</time>
      </trkpt>
      <trkpt lat="42.280165" lon="2.020500">
        <ele>1467.174390</ele>
        <time>2022-05-22T04:14:08.937Z</time>
      </trkpt>
      <trkpt lat="42.280211" lon="2.020383">
        <ele>1466.444232</ele>
        <time>2022-05-22T04:14:10.935Z</time>
      </trkpt>
      <trkpt lat="42.280261" lon="2.020244">
        <ele>1465.592482</ele>
        <time>2022-05-22T04:14:12.930Z</time>
      </trkpt>
      <trkpt lat="42.280314" lon="2.020077">
        <ele>1464.591068</ele>
        <time>2022-05-22T04:14:14.915Z</time>
      </trkpt>
      <trkpt lat="42.280357" lon="2.019876">
        <ele>1463.438005</ele>
        <time>2022-05-22T04:14:16.922Z</time>
      </trkpt>
      <trkpt lat="42.280390" lon="2.019659">
        <ele>1462.217145</ele>
        <time>2022-05-22T04:14:18.920Z</time>
      </trkpt>
      <trkpt lat="42.280381" lon="2.019417">
        <ele>1460.881829</ele>
        <time>2022-05-22T04:14:20.924Z</time>
      </trkpt>
      <trkpt lat="42.280376" lon="2.019287">
        <ele>1460.164448</ele>
        <time>2022-05-22T04:14:21.929Z</time>
      </trkpt>
      <trkpt lat="42.280366" lon="2.019152">
        <ele>1459.416760</ele>
        <time>2022-05-22T04:14:22.924Z</time>
      </trkpt>
      <trkpt lat="42.280356" lon="2.019016">
        <ele>1458.663588</ele>
        <time>2022-05-22T04:14:23.936Z</time>
      </trkpt>
      <trkpt lat="42.280343" lon="2.018874">
        <ele>1457.875075</ele>
        <time>2022-05-22T04:14:24.933Z</time>
      </trkpt>
      <trkpt lat="42.280335" lon="2.018729">
        <ele>1457.073779</ele>
        <time>2022-05-22T04:14:25.953Z</time>
      </trkpt>
      <trkpt lat="42.280342" lon="2.018590">
        <ele>1456.305994</ele>
        <time>2022-05-22T04:14:26.935Z</time>
      </trkpt>
      <trkpt lat="42.280365" lon="2.018444">
        <ele>1455.483370</ele>
        <time>2022-05-22T04:14:27.931Z</time>
      </trkpt>
      <trkpt lat="42.280406" lon="2.018312">
        <ele>1454.594034</ele>
        <time>2022-05-22T04:14:28.931Z</time>
      </trkpt>
      <trkpt lat="42.280465" lon="2.018180">
        <ele>1453.563935</ele>
        <time>2022-05-22T04:14:29.934Z</time>
      </trkpt>
      <trkpt lat="42.280533" lon="2.018040">
        <ele>1452.445299</ele>
        <time>2022-05-22T04:14:30.935Z</time>
      </trkpt>
      <trkpt lat="42.280607" lon="2.017897">
        <ele>1451.279681</ele>
        <time>2022-05-22T04:14:31.933Z</time>
      </trkpt>
      <trkpt lat="42.280667" lon="2.017746">
        <ele>1450.134825</ele>
        <time>2022-05-22T04:14:32.933Z</time>
      </trkpt>
      <trkpt lat="42.280717" lon="2.017586">
        <ele>1448.974690</ele>
        <time>2022-05-22T04:14:33.932Z</time>
      </trkpt>
      <trkpt lat="42.280763" lon="2.017421">
        <ele>1447.796931</ele>
        <time>2022-05-22T04:14:34.918Z</time>
      </trkpt>
      <trkpt lat="42.280785" lon="2.017252">
        <ele>1446.650763</ele>
        <time>2022-05-22T04:14:35.934Z</time>
      </trkpt>
      <trkpt lat="42.280788" lon="2.017095">
        <ele>1445.601739</ele>
        <time>2022-05-22T04:14:36.929Z</time>
      </trkpt>
      <trkpt lat="42.280766" lon="2.016961">
        <ele>1444.684919</ele>
        <time>2022-05-22T04:14:37.930Z</time>
      </trkpt>
      <trkpt lat="42.280691" lon="2.016834">
        <ele>1443.599531</ele>
        <time>2022-05-22T04:14:38.931Z</time>
      </trkpt>
      <trkpt lat="42.280588" lon="2.016728">
        <ele>1442.430775</ele>
        <time>2022-05-22T04:14:39.931Z</time>
      </trkpt>
      <trkpt lat="42.280477" lon="2.016656">
        <ele>1441.319237</ele>
        <time>2022-05-22T04:14:40.925Z</time>
      </trkpt>
      <trkpt lat="42.280366" lon="2.016599">
        <ele>1440.247236</ele>
        <time>2022-05-22T04:14:41.927Z</time>
      </trkpt>
      <trkpt lat="42.280273" lon="2.016524">
        <ele>1439.269532</ele>
        <time>2022-05-22T04:14:42.932Z</time>
      </trkpt>
      <trkpt lat="42.280223" lon="2.016413">
        <ele>1438.462173</ele>
        <time>2022-05-22T04:14:43.927Z</time>
      </trkpt>
      <trkpt lat="42.280212" lon="2.016277">
        <ele>1437.653323</ele>
        <time>2022-05-22T04:14:44.949Z</time>
      </trkpt>
      <trkpt lat="42.280242" lon="2.016149">
        <ele>1436.859498</ele>
        <time>2022-05-22T04:14:45.932Z</time>
      </trkpt>
      <trkpt lat="42.280299" lon="2.015913">
        <ele>1435.391756</ele>
        <time>2022-05-22T04:14:47.929Z</time>
      </trkpt>
      <trkpt lat="42.280354" lon="2.015800">
        <ele>1434.592075</ele>
        <time>2022-05-22T04:14:48.929Z</time>
      </trkpt>
      <trkpt lat="42.280425" lon="2.015710">
        <ele>1433.814245</ele>
        <time>2022-05-22T04:14:49.933Z</time>
      </trkpt>
      <trkpt lat="42.280501" lon="2.015626">
        <ele>1433.029731</ele>
        <time>2022-05-22T04:14:50.926Z</time>
      </trkpt>
      <trkpt lat="42.280579" lon="2.015538">
        <ele>1432.217834</ele>
        <time>2022-05-22T04:14:51.934Z</time>
      </trkpt>
      <trkpt lat="42.280674" lon="2.015399">
        <ele>1431.099071</ele>
        <time>2022-05-22T04:14:53.936Z</time>
      </trkpt>
      <trkpt lat="42.280727" lon="2.015250">
        <ele>1430.121638</ele>
        <time>2022-05-22T04:14:55.930Z</time>
      </trkpt>
      <trkpt lat="42.280701" lon="2.015109">
        <ele>1429.262524</ele>
        <time>2022-05-22T04:14:57.933Z</time>
      </trkpt>
      <trkpt lat="42.280551" lon="2.015000">
        <ele>1427.901633</ele>
        <time>2022-05-22T04:14:59.932Z</time>
      </trkpt>
      <trkpt lat="42.280423" lon="2.014847">
        <ele>1426.536189</ele>
        <time>2022-05-22T04:15:01.935Z</time>
      </trkpt>
      <trkpt lat="42.280366" lon="2.014744">
        <ele>1425.775734</ele>
        <time>2022-05-22T04:15:02.928Z</time>
      </trkpt>
      <trkpt lat="42.280317" lon="2.014636">
        <ele>1425.026722</ele>
        <time>2022-05-22T04:15:03.933Z</time>
      </trkpt>
      <trkpt lat="42.280274" lon="2.014517">
        <ele>1424.319922</ele>
        <time>2022-05-22T04:15:04.928Z</time>
      </trkpt>
      <trkpt lat="42.280236" lon="2.014384">
        <ele>1423.682113</ele>
        <time>2022-05-22T04:15:05.936Z</time>
      </trkpt>
      <trkpt lat="42.280201" lon="2.014242">
        <ele>1423.012541</ele>
        <time>2022-05-22T04:15:06.939Z</time>
      </trkpt>
      <trkpt lat="42.280163" lon="2.014106">
        <ele>1422.362194</ele>
        <time>2022-05-22T04:15:07.936Z</time>
      </trkpt>
      <trkpt lat="42.280114" lon="2.013989">
        <ele>1421.760748</ele>
        <time>2022-05-22T04:15:08.933Z</time>
      </trkpt>
      <trkpt lat="42.279965" lon="2.013854">
        <ele>1420.676125</ele>
        <time>2022-05-22T04:15:10.937Z</time>
      </trkpt>
      <trkpt lat="42.279868" lon="2.013846">
        <ele>1420.088524</ele>
        <time>2022-05-22T04:15:11.931Z</time>
      </trkpt>
      <trkpt lat="42.279780" lon="2.013891">
        <ele>1419.519624</ele>
        <time>2022-05-22T04:15:12.930Z</time>
      </trkpt>
      <trkpt lat="42.279691" lon="2.014090">
        <ele>1418.479367</ele>
        <time>2022-05-22T04:15:14.930Z</time>
      </trkpt>
      <trkpt lat="42.279716" lon="2.014333">
        <ele>1417.381819</ele>
        <time>2022-05-22T04:15:16.934Z</time>
      </trkpt>
      <trkpt lat="42.279737" lon="2.014465">
        <ele>1416.777805</ele>
        <time>2022-05-22T04:15:17.937Z</time>
      </trkpt>
      <trkpt lat="42.279756" lon="2.014601">
        <ele>1416.158643</ele>
        <time>2022-05-22T04:15:18.926Z</time>
      </trkpt>
      <trkpt lat="42.279775" lon="2.014742">
        <ele>1415.517487</ele>
        <time>2022-05-22T04:15:19.932Z</time>
      </trkpt>
      <trkpt lat="42.279794" lon="2.014890">
        <ele>1414.845500</ele>
        <time>2022-05-22T04:15:20.934Z</time>
      </trkpt>
      <trkpt lat="42.279805" lon="2.015043">
        <ele>1414.157814</ele>
        <time>2022-05-22T04:15:21.936Z</time>
      </trkpt>
      <trkpt lat="42.279809" lon="2.015202">
        <ele>1413.439174</ele>
        <time>2022-05-22T04:15:22.936Z</time>
      </trkpt>
      <trkpt lat="42.279820" lon="2.015366">
        <ele>1412.680802</ele>
        <time>2022-05-22T04:15:23.933Z</time>
      </trkpt>
      <trkpt lat="42.279835" lon="2.015522">
        <ele>1411.956328</ele>
        <time>2022-05-22T04:15:24.933Z</time>
      </trkpt>
      <trkpt lat="42.279856" lon="2.015684">
        <ele>1411.198900</ele>
        <time>2022-05-22T04:15:25.931Z</time>
      </trkpt>
      <trkpt lat="42.279868" lon="2.015848">
        <ele>1410.439942</ele>
        <time>2022-05-22T04:15:26.935Z</time>
      </trkpt>
      <trkpt lat="42.279848" lon="2.016009">
        <ele>1409.688105</ele>
        <time>2022-05-22T04:15:27.930Z</time>
      </trkpt>
      <trkpt lat="42.279798" lon="2.016160">
        <ele>1408.926232</ele>
        <time>2022-05-22T04:15:28.936Z</time>
      </trkpt>
      <trkpt lat="42.279744" lon="2.016314">
        <ele>1408.141391</ele>
        <time>2022-05-22T04:15:29.929Z</time>
      </trkpt>
      <trkpt lat="42.279709" lon="2.016483">
        <ele>1407.333173</ele>
        <time>2022-05-22T04:15:30.929Z</time>
      </trkpt>
      <trkpt lat="42.279704" lon="2.016658">
        <ele>1406.526638</ele>
        <time>2022-05-22T04:15:31.930Z</time>
      </trkpt>
      <trkpt lat="42.279726" lon="2.016821">
        <ele>1405.763579</ele>
        <time>2022-05-22T04:15:32.931Z</time>
      </trkpt>
      <trkpt lat="42.279740" lon="2.016969">
        <ele>1405.076440</ele>
        <time>2022-05-22T04:15:33.937Z</time>
      </trkpt>
      <trkpt lat="42.279724" lon="2.017093">
        <ele>1404.496759</ele>
        <time>2022-05-22T04:15:34.930Z</time>
      </trkpt>
      <trkpt lat="42.279680" lon="2.017214">
        <ele>1403.875846</ele>
        <time>2022-05-22T04:15:35.924Z</time>
      </trkpt>
      <trkpt lat="42.279609" lon="2.017325">
        <ele>1403.200101</ele>
        <time>2022-05-22T04:15:36.928Z</time>
      </trkpt>
      <trkpt lat="42.279531" lon="2.017429">
        <ele>1402.518102</ele>
        <time>2022-05-22T04:15:37.928Z</time>
      </trkpt>
      <trkpt lat="42.279454" lon="2.017543">
        <ele>1401.878119</ele>
        <time>2022-05-22T04:15:38.930Z</time>
      </trkpt>
      <trkpt lat="42.279395" lon="2.017677">
        <ele>1401.235044</ele>
        <time>2022-05-22T04:15:39.928Z</time>
      </trkpt>
      <trkpt lat="42.279362" lon="2.017824">
        <ele>1400.601518</ele>
        <time>2022-05-22T04:15:40.928Z</time>
      </trkpt>
      <trkpt lat="42.279343" lon="2.017983">
        <ele>1399.937296</ele>
        <time>2022-05-22T04:15:41.934Z</time>
      </trkpt>
      <trkpt lat="42.279347" lon="2.018137">
        <ele>1399.301800</ele>
        <time>2022-05-22T04:15:42.932Z</time>
      </trkpt>
      <trkpt lat="42.279366" lon="2.018300">
        <ele>1398.621288</ele>
        <time>2022-05-22T04:15:43.931Z</time>
      </trkpt>
      <trkpt lat="42.279389" lon="2.018456">
        <ele>1397.965287</ele>
        <time>2022-05-22T04:15:44.932Z</time>
      </trkpt>
      <trkpt lat="42.279401" lon="2.018616">
        <ele>1397.302057</ele>
        <time>2022-05-22T04:15:45.927Z</time>
      </trkpt>
      <trkpt lat="42.279404" lon="2.018773">
        <ele>1396.654365</ele>
        <time>2022-05-22T04:15:46.937Z</time>
      </trkpt>
      <trkpt lat="42.279392" lon="2.018925">
        <ele>1396.023951</ele>
        <time>2022-05-22T04:15:47.937Z</time>
      </trkpt>
      <trkpt lat="42.279351" lon="2.019065">
        <ele>1395.402999</ele>
        <time>2022-05-22T04:15:48.930Z</time>
      </trkpt>
      <trkpt lat="42.279281" lon="2.019190">
        <ele>1394.756479</ele>
        <time>2022-05-22T04:15:49.923Z</time>
      </trkpt>
      <trkpt lat="42.279164" lon="2.019283">
        <ele>1393.999901</ele>
        <time>2022-05-22T04:15:50.930Z</time>
      </trkpt>
      <trkpt lat="42.279067" lon="2.019368">
        <ele>1393.355529</ele>
        <time>2022-05-22T04:15:51.926Z</time>
      </trkpt>
      <trkpt lat="42.278960" lon="2.019457">
        <ele>1392.655219</ele>
        <time>2022-05-22T04:15:52.927Z</time>
      </trkpt>
      <trkpt lat="42.278851" lon="2.019540">
        <ele>1391.871860</ele>
        <time>2022-05-22T04:15:53.934Z</time>
      </trkpt>
      <trkpt lat="42.278740" lon="2.019630">
        <ele>1391.026771</ele>
        <time>2022-05-22T04:15:54.926Z</time>
      </trkpt>
      <trkpt lat="42.278638" lon="2.019741">
        <ele>1390.171811</ele>
        <time>2022-05-22T04:15:55.930Z</time>
      </trkpt>
      <trkpt lat="42.278551" lon="2.019863">
        <ele>1389.353323</ele>
        <time>2022-05-22T04:15:56.931Z</time>
      </trkpt>
      <trkpt lat="42.278481" lon="2.020005">
        <ele>1388.529090</ele>
        <time>2022-05-22T04:15:57.933Z</time>
      </trkpt>
      <trkpt lat="42.278416" lon="2.020142">
        <ele>1387.742936</ele>
        <time>2022-05-22T04:15:58.928Z</time>
      </trkpt>
      <trkpt lat="42.278351" lon="2.020280">
        <ele>1386.952710</ele>
        <time>2022-05-22T04:15:59.933Z</time>
      </trkpt>
      <trkpt lat="42.278287" lon="2.020421">
        <ele>1386.153654</ele>
        <time>2022-05-22T04:16:00.925Z</time>
      </trkpt>
      <trkpt lat="42.278222" lon="2.020560">
        <ele>1385.359348</ele>
        <time>2022-05-22T04:16:01.931Z</time>
      </trkpt>
      <trkpt lat="42.278165" lon="2.020700">
        <ele>1384.587446</ele>
        <time>2022-05-22T04:16:02.943Z</time>
      </trkpt>
      <trkpt lat="42.278113" lon="2.020842">
        <ele>1383.822095</ele>
        <time>2022-05-22T04:16:03.936Z</time>
      </trkpt>
      <trkpt lat="42.278066" lon="2.020987">
        <ele>1383.057402</ele>
        <time>2022-05-22T04:16:04.932Z</time>
      </trkpt>
      <trkpt lat="42.278016" lon="2.021129">
        <ele>1382.297751</ele>
        <time>2022-05-22T04:16:05.930Z</time>
      </trkpt>
      <trkpt lat="42.277949" lon="2.021262">
        <ele>1381.520514</ele>
        <time>2022-05-22T04:16:06.931Z</time>
      </trkpt>
      <trkpt lat="42.277873" lon="2.021393">
        <ele>1380.716245</ele>
        <time>2022-05-22T04:16:07.936Z</time>
      </trkpt>
      <trkpt lat="42.277803" lon="2.021525">
        <ele>1379.791321</ele>
        <time>2022-05-22T04:16:08.935Z</time>
      </trkpt>
      <trkpt lat="42.277747" lon="2.021655">
        <ele>1378.934600</ele>
        <time>2022-05-22T04:16:09.932Z</time>
      </trkpt>
      <trkpt lat="42.277694" lon="2.021784">
        <ele>1378.094245</ele>
        <time>2022-05-22T04:16:10.932Z</time>
      </trkpt>
      <trkpt lat="42.277652" lon="2.021914">
        <ele>1377.286358</ele>
        <time>2022-05-22T04:16:11.925Z</time>
      </trkpt>
      <trkpt lat="42.277627" lon="2.022050">
        <ele>1376.488257</ele>
        <time>2022-05-22T04:16:12.929Z</time>
      </trkpt>
      <trkpt lat="42.277619" lon="2.022188">
        <ele>1375.699904</ele>
        <time>2022-05-22T04:16:13.932Z</time>
      </trkpt>
      <trkpt lat="42.277559" lon="2.022381">
        <ele>1374.507635</ele>
        <time>2022-05-22T04:16:15.931Z</time>
      </trkpt>
      <trkpt lat="42.277417" lon="2.022413">
        <ele>1373.399516</ele>
        <time>2022-05-22T04:16:17.928Z</time>
      </trkpt>
      <trkpt lat="42.277314" lon="2.022280">
        <ele>1372.303002</ele>
        <time>2022-05-22T04:16:19.928Z</time>
      </trkpt>
      <trkpt lat="42.277309" lon="2.022056">
        <ele>1371.026679</ele>
        <time>2022-05-22T04:16:21.935Z</time>
      </trkpt>
      <trkpt lat="42.277402" lon="2.021825">
        <ele>1369.528922</ele>
        <time>2022-05-22T04:16:23.929Z</time>
      </trkpt>
      <trkpt lat="42.277461" lon="2.021715">
        <ele>1368.755149</ele>
        <time>2022-05-22T04:16:24.930Z</time>
      </trkpt>
      <trkpt lat="42.277524" lon="2.021614">
        <ele>1368.002791</ele>
        <time>2022-05-22T04:16:25.929Z</time>
      </trkpt>
      <trkpt lat="42.277578" lon="2.021504">
        <ele>1367.250961</ele>
        <time>2022-05-22T04:16:26.937Z</time>
      </trkpt>
      <trkpt lat="42.277633" lon="2.021395">
        <ele>1366.604097</ele>
        <time>2022-05-22T04:16:27.928Z</time>
      </trkpt>
      <trkpt lat="42.277678" lon="2.021282">
        <ele>1366.078229</ele>
        <time>2022-05-22T04:16:28.929Z</time>
      </trkpt>
      <trkpt lat="42.277716" lon="2.021161">
        <ele>1365.539573</ele>
        <time>2022-05-22T04:16:29.930Z</time>
      </trkpt>
      <trkpt lat="42.277753" lon="2.021041">
        <ele>1365.006841</ele>
        <time>2022-05-22T04:16:30.930Z</time>
      </trkpt>
      <trkpt lat="42.277775" lon="2.020910">
        <ele>1364.456369</ele>
        <time>2022-05-22T04:16:31.930Z</time>
      </trkpt>
      <trkpt lat="42.277796" lon="2.020778">
        <ele>1363.903091</ele>
        <time>2022-05-22T04:16:32.938Z</time>
      </trkpt>
      <trkpt lat="42.277823" lon="2.020646">
        <ele>1363.341886</ele>
        <time>2022-05-22T04:16:33.930Z</time>
      </trkpt>
      <trkpt lat="42.277860" lon="2.020522">
        <ele>1362.793989</ele>
        <time>2022-05-22T04:16:34.934Z</time>
      </trkpt>
      <trkpt lat="42.277898" lon="2.020398">
        <ele>1362.243997</ele>
        <time>2022-05-22T04:16:35.931Z</time>
      </trkpt>
      <trkpt lat="42.277941" lon="2.020267">
        <ele>1361.656725</ele>
        <time>2022-05-22T04:16:36.933Z</time>
      </trkpt>
      <trkpt lat="42.277980" lon="2.020133">
        <ele>1361.066660</ele>
        <time>2022-05-22T04:16:37.933Z</time>
      </trkpt>
      <trkpt lat="42.278017" lon="2.019996">
        <ele>1360.469026</ele>
        <time>2022-05-22T04:16:38.930Z</time>
      </trkpt>
      <trkpt lat="42.278057" lon="2.019861">
        <ele>1359.873110</ele>
        <time>2022-05-22T04:16:39.935Z</time>
      </trkpt>
      <trkpt lat="42.278096" lon="2.019721">
        <ele>1359.260100</ele>
        <time>2022-05-22T04:16:40.929Z</time>
      </trkpt>
      <trkpt lat="42.278133" lon="2.019576">
        <ele>1358.631571</ele>
        <time>2022-05-22T04:16:41.928Z</time>
      </trkpt>
      <trkpt lat="42.278169" lon="2.019428">
        <ele>1357.993160</ele>
        <time>2022-05-22T04:16:42.926Z</time>
      </trkpt>
      <trkpt lat="42.278216" lon="2.019282">
        <ele>1357.340704</ele>
        <time>2022-05-22T04:16:43.933Z</time>
      </trkpt>
      <trkpt lat="42.278270" lon="2.019141">
        <ele>1356.657511</ele>
        <time>2022-05-22T04:16:44.932Z</time>
      </trkpt>
      <trkpt lat="42.278323" lon="2.019007">
        <ele>1355.942856</ele>
        <time>2022-05-22T04:16:45.930Z</time>
      </trkpt>
      <trkpt lat="42.278405" lon="2.018900">
        <ele>1355.218293</ele>
        <time>2022-05-22T04:16:46.926Z</time>
      </trkpt>
      <trkpt lat="42.278499" lon="2.018808">
        <ele>1354.480524</ele>
        <time>2022-05-22T04:16:47.922Z</time>
      </trkpt>
      <trkpt lat="42.278588" lon="2.018714">
        <ele>1353.762501</ele>
        <time>2022-05-22T04:16:48.932Z</time>
      </trkpt>
      <trkpt lat="42.278640" lon="2.018586">
        <ele>1353.075690</ele>
        <time>2022-05-22T04:16:49.932Z</time>
      </trkpt>
      <trkpt lat="42.278644" lon="2.018429">
        <ele>1352.336824</ele>
        <time>2022-05-22T04:16:50.924Z</time>
      </trkpt>
      <trkpt lat="42.278630" lon="2.018274">
        <ele>1351.602391</ele>
        <time>2022-05-22T04:16:51.927Z</time>
      </trkpt>
      <trkpt lat="42.278600" lon="2.018115">
        <ele>1350.830624</ele>
        <time>2022-05-22T04:16:52.930Z</time>
      </trkpt>
      <trkpt lat="42.278568" lon="2.017952">
        <ele>1350.037446</ele>
        <time>2022-05-22T04:16:53.925Z</time>
      </trkpt>
      <trkpt lat="42.278537" lon="2.017792">
        <ele>1349.259533</ele>
        <time>2022-05-22T04:16:54.939Z</time>
      </trkpt>
      <trkpt lat="42.278524" lon="2.017630">
        <ele>1348.493119</ele>
        <time>2022-05-22T04:16:55.924Z</time>
      </trkpt>
      <trkpt lat="42.278520" lon="2.017463">
        <ele>1347.707245</ele>
        <time>2022-05-22T04:16:56.933Z</time>
      </trkpt>
      <trkpt lat="42.278549" lon="2.017288">
        <ele>1346.863764</ele>
        <time>2022-05-22T04:16:57.931Z</time>
      </trkpt>
      <trkpt lat="42.278613" lon="2.017139">
        <ele>1346.053428</ele>
        <time>2022-05-22T04:16:58.929Z</time>
      </trkpt>
      <trkpt lat="42.278688" lon="2.017013">
        <ele>1345.247210</ele>
        <time>2022-05-22T04:16:59.923Z</time>
      </trkpt>
      <trkpt lat="42.278760" lon="2.016879">
        <ele>1344.275138</ele>
        <time>2022-05-22T04:17:00.928Z</time>
      </trkpt>
      <trkpt lat="42.278801" lon="2.016725">
        <ele>1343.314460</ele>
        <time>2022-05-22T04:17:01.923Z</time>
      </trkpt>
      <trkpt lat="42.278796" lon="2.016563">
        <ele>1342.362738</ele>
        <time>2022-05-22T04:17:02.921Z</time>
      </trkpt>
      <trkpt lat="42.278784" lon="2.016409">
        <ele>1341.453800</ele>
        <time>2022-05-22T04:17:03.932Z</time>
      </trkpt>
      <trkpt lat="42.278754" lon="2.016253">
        <ele>1340.507698</ele>
        <time>2022-05-22T04:17:04.927Z</time>
      </trkpt>
      <trkpt lat="42.278725" lon="2.016100">
        <ele>1339.580628</ele>
        <time>2022-05-22T04:17:05.930Z</time>
      </trkpt>
      <trkpt lat="42.278708" lon="2.015945">
        <ele>1338.660878</ele>
        <time>2022-05-22T04:17:06.934Z</time>
      </trkpt>
      <trkpt lat="42.278697" lon="2.015785">
        <ele>1337.717674</ele>
        <time>2022-05-22T04:17:07.933Z</time>
      </trkpt>
      <trkpt lat="42.278693" lon="2.015621">
        <ele>1336.754515</ele>
        <time>2022-05-22T04:17:08.933Z</time>
      </trkpt>
      <trkpt lat="42.278699" lon="2.015450">
        <ele>1335.749662</ele>
        <time>2022-05-22T04:17:09.930Z</time>
      </trkpt>
      <trkpt lat="42.278714" lon="2.015285">
        <ele>1334.773873</ele>
        <time>2022-05-22T04:17:10.933Z</time>
      </trkpt>
      <trkpt lat="42.278720" lon="2.015119">
        <ele>1333.798335</ele>
        <time>2022-05-22T04:17:11.928Z</time>
      </trkpt>
      <trkpt lat="42.278717" lon="2.014955">
        <ele>1332.835404</ele>
        <time>2022-05-22T04:17:12.929Z</time>
      </trkpt>
      <trkpt lat="42.278698" lon="2.014792">
        <ele>1331.866837</ele>
        <time>2022-05-22T04:17:13.925Z</time>
      </trkpt>
      <trkpt lat="42.278653" lon="2.014637">
        <ele>1330.962889</ele>
        <time>2022-05-22T04:17:14.931Z</time>
      </trkpt>
      <trkpt lat="42.278600" lon="2.014480">
        <ele>1330.183715</ele>
        <time>2022-05-22T04:17:15.932Z</time>
      </trkpt>
      <trkpt lat="42.278551" lon="2.014323">
        <ele>1329.414353</ele>
        <time>2022-05-22T04:17:16.930Z</time>
      </trkpt>
      <trkpt lat="42.278499" lon="2.014166">
        <ele>1328.637692</ele>
        <time>2022-05-22T04:17:17.929Z</time>
      </trkpt>
      <trkpt lat="42.278454" lon="2.014008">
        <ele>1327.873271</ele>
        <time>2022-05-22T04:17:18.934Z</time>
      </trkpt>
      <trkpt lat="42.278424" lon="2.013850">
        <ele>1327.136763</ele>
        <time>2022-05-22T04:17:19.926Z</time>
      </trkpt>
      <trkpt lat="42.278405" lon="2.013696">
        <ele>1326.431830</ele>
        <time>2022-05-22T04:17:20.934Z</time>
      </trkpt>
      <trkpt lat="42.278402" lon="2.013537">
        <ele>1325.713690</ele>
        <time>2022-05-22T04:17:21.934Z</time>
      </trkpt>
      <trkpt lat="42.278414" lon="2.013375">
        <ele>1324.978580</ele>
        <time>2022-05-22T04:17:22.937Z</time>
      </trkpt>
      <trkpt lat="42.278423" lon="2.013213">
        <ele>1324.245069</ele>
        <time>2022-05-22T04:17:23.926Z</time>
      </trkpt>
      <trkpt lat="42.278430" lon="2.013038">
        <ele>1323.453765</ele>
        <time>2022-05-22T04:17:24.929Z</time>
      </trkpt>
      <trkpt lat="42.278432" lon="2.012860">
        <ele>1322.649978</ele>
        <time>2022-05-22T04:17:25.934Z</time>
      </trkpt>
      <trkpt lat="42.278437" lon="2.012683">
        <ele>1321.850216</ele>
        <time>2022-05-22T04:17:26.933Z</time>
      </trkpt>
      <trkpt lat="42.278446" lon="2.012515">
        <ele>1321.089687</ele>
        <time>2022-05-22T04:17:27.931Z</time>
      </trkpt>
      <trkpt lat="42.278452" lon="2.012348">
        <ele>1320.334771</ele>
        <time>2022-05-22T04:17:28.937Z</time>
      </trkpt>
      <trkpt lat="42.278460" lon="2.012183">
        <ele>1319.687585</ele>
        <time>2022-05-22T04:17:29.933Z</time>
      </trkpt>
      <trkpt lat="42.278458" lon="2.012019">
        <ele>1319.061472</ele>
        <time>2022-05-22T04:17:30.930Z</time>
      </trkpt>
      <trkpt lat="42.278449" lon="2.011855">
        <ele>1318.433724</ele>
        <time>2022-05-22T04:17:31.934Z</time>
      </trkpt>
      <trkpt lat="42.278427" lon="2.011690">
        <ele>1317.793733</ele>
        <time>2022-05-22T04:17:32.927Z</time>
      </trkpt>
      <trkpt lat="42.278397" lon="2.011535">
        <ele>1317.182150</ele>
        <time>2022-05-22T04:17:33.928Z</time>
      </trkpt>
      <trkpt lat="42.278373" lon="2.011381">
        <ele>1316.581395</ele>
        <time>2022-05-22T04:17:34.926Z</time>
      </trkpt>
      <trkpt lat="42.278362" lon="2.011236">
        <ele>1316.024992</ele>
        <time>2022-05-22T04:17:35.928Z</time>
      </trkpt>
      <trkpt lat="42.278354" lon="2.011092">
        <ele>1315.473760</ele>
        <time>2022-05-22T04:17:36.933Z</time>
      </trkpt>
      <trkpt lat="42.278353" lon="2.010945">
        <ele>1314.912600</ele>
        <time>2022-05-22T04:17:37.932Z</time>
      </trkpt>
      <trkpt lat="42.278365" lon="2.010793">
        <ele>1314.329085</ele>
        <time>2022-05-22T04:17:38.927Z</time>
      </trkpt>
      <trkpt lat="42.278383" lon="2.010646">
        <ele>1313.760316</ele>
        <time>2022-05-22T04:17:39.931Z</time>
      </trkpt>
      <trkpt lat="42.278396" lon="2.010490">
        <ele>1313.161060</ele>
        <time>2022-05-22T04:17:40.923Z</time>
      </trkpt>
      <trkpt lat="42.278394" lon="2.010333">
        <ele>1312.561663</ele>
        <time>2022-05-22T04:17:41.925Z</time>
      </trkpt>
      <trkpt lat="42.278378" lon="2.010182">
        <ele>1311.979378</ele>
        <time>2022-05-22T04:17:42.931Z</time>
      </trkpt>
      <trkpt lat="42.278351" lon="2.010039">
        <ele>1311.416017</ele>
        <time>2022-05-22T04:17:43.935Z</time>
      </trkpt>
      <trkpt lat="42.278315" lon="2.009899">
        <ele>1310.837773</ele>
        <time>2022-05-22T04:17:44.924Z</time>
      </trkpt>
      <trkpt lat="42.278275" lon="2.009758">
        <ele>1310.190443</ele>
        <time>2022-05-22T04:17:45.933Z</time>
      </trkpt>
      <trkpt lat="42.278242" lon="2.009623">
        <ele>1309.580974</ele>
        <time>2022-05-22T04:17:46.931Z</time>
      </trkpt>
      <trkpt lat="42.278206" lon="2.009485">
        <ele>1308.953717</ele>
        <time>2022-05-22T04:17:47.935Z</time>
      </trkpt>
      <trkpt lat="42.278161" lon="2.009355">
        <ele>1308.338473</ele>
        <time>2022-05-22T04:17:48.932Z</time>
      </trkpt>
      <trkpt lat="42.278112" lon="2.009225">
        <ele>1307.713056</ele>
        <time>2022-05-22T04:17:49.934Z</time>
      </trkpt>
      <trkpt lat="42.278059" lon="2.009098">
        <ele>1307.088017</ele>
        <time>2022-05-22T04:17:50.916Z</time>
      </trkpt>
      <trkpt lat="42.278012" lon="2.008970">
        <ele>1306.475464</ele>
        <time>2022-05-22T04:17:51.929Z</time>
      </trkpt>
      <trkpt lat="42.277978" lon="2.008825">
        <ele>1305.823423</ele>
        <time>2022-05-22T04:17:52.938Z</time>
      </trkpt>
      <trkpt lat="42.277956" lon="2.008676">
        <ele>1305.172109</ele>
        <time>2022-05-22T04:17:53.926Z</time>
      </trkpt>
      <trkpt lat="42.277943" lon="2.008515">
        <ele>1304.477850</ele>
        <time>2022-05-22T04:17:54.934Z</time>
      </trkpt>
      <trkpt lat="42.277943" lon="2.008360">
        <ele>1303.813409</ele>
        <time>2022-05-22T04:17:55.932Z</time>
      </trkpt>
      <trkpt lat="42.277944" lon="2.008201">
        <ele>1303.131796</ele>
        <time>2022-05-22T04:17:56.928Z</time>
      </trkpt>
      <trkpt lat="42.277946" lon="2.008039">
        <ele>1302.437251</ele>
        <time>2022-05-22T04:17:57.930Z</time>
      </trkpt>
      <trkpt lat="42.277937" lon="2.007888">
        <ele>1301.787860</ele>
        <time>2022-05-22T04:17:58.931Z</time>
      </trkpt>
      <trkpt lat="42.277932" lon="2.007727">
        <ele>1301.097091</ele>
        <time>2022-05-22T04:17:59.933Z</time>
      </trkpt>
      <trkpt lat="42.277905" lon="2.007571">
        <ele>1300.364267</ele>
        <time>2022-05-22T04:18:00.929Z</time>
      </trkpt>
      <trkpt lat="42.277873" lon="2.007417">
        <ele>1299.416638</ele>
        <time>2022-05-22T04:18:01.930Z</time>
      </trkpt>
      <trkpt lat="42.277844" lon="2.007252">
        <ele>1298.411937</ele>
        <time>2022-05-22T04:18:02.932Z</time>
      </trkpt>
      <trkpt lat="42.277825" lon="2.007090">
        <ele>1297.440227</ele>
        <time>2022-05-22T04:18:03.923Z</time>
      </trkpt>
      <trkpt lat="42.277806" lon="2.006936">
        <ele>1296.515296</ele>
        <time>2022-05-22T04:18:04.937Z</time>
      </trkpt>
      <trkpt lat="42.277759" lon="2.006788">
        <ele>1295.561158</ele>
        <time>2022-05-22T04:18:05.927Z</time>
      </trkpt>
      <trkpt lat="42.277689" lon="2.006650">
        <ele>1294.569933</ele>
        <time>2022-05-22T04:18:06.934Z</time>
      </trkpt>
      <trkpt lat="42.277605" lon="2.006526">
        <ele>1293.573934</ele>
        <time>2022-05-22T04:18:07.947Z</time>
      </trkpt>
      <trkpt lat="42.277493" lon="2.006429">
        <ele>1292.508837</ele>
        <time>2022-05-22T04:18:08.929Z</time>
      </trkpt>
      <trkpt lat="42.277377" lon="2.006343">
        <ele>1291.449473</ele>
        <time>2022-05-22T04:18:09.926Z</time>
      </trkpt>
      <trkpt lat="42.277271" lon="2.006244">
        <ele>1290.417807</ele>
        <time>2022-05-22T04:18:10.935Z</time>
      </trkpt>
      <trkpt lat="42.277186" lon="2.006124">
        <ele>1289.433632</ele>
        <time>2022-05-22T04:18:11.928Z</time>
      </trkpt>
      <trkpt lat="42.277129" lon="2.005978">
        <ele>1288.455658</ele>
        <time>2022-05-22T04:18:12.931Z</time>
      </trkpt>
      <trkpt lat="42.277096" lon="2.005823">
        <ele>1287.500130</ele>
        <time>2022-05-22T04:18:13.927Z</time>
      </trkpt>
      <trkpt lat="42.277068" lon="2.005656">
        <ele>1286.485685</ele>
        <time>2022-05-22T04:18:14.926Z</time>
      </trkpt>
      <trkpt lat="42.277040" lon="2.005492">
        <ele>1285.510990</ele>
        <time>2022-05-22T04:18:15.936Z</time>
      </trkpt>
      <trkpt lat="42.277015" lon="2.005326">
        <ele>1284.542513</ele>
        <time>2022-05-22T04:18:16.933Z</time>
      </trkpt>
      <trkpt lat="42.276995" lon="2.005167">
        <ele>1283.620472</ele>
        <time>2022-05-22T04:18:17.933Z</time>
      </trkpt>
      <trkpt lat="42.276988" lon="2.005009">
        <ele>1282.715572</ele>
        <time>2022-05-22T04:18:18.936Z</time>
      </trkpt>
      <trkpt lat="42.276962" lon="2.004848">
        <ele>1281.773470</ele>
        <time>2022-05-22T04:18:19.934Z</time>
      </trkpt>
      <trkpt lat="42.276925" lon="2.004696">
        <ele>1280.858670</ele>
        <time>2022-05-22T04:18:20.931Z</time>
      </trkpt>
      <trkpt lat="42.276885" lon="2.004553">
        <ele>1279.984670</ele>
        <time>2022-05-22T04:18:21.925Z</time>
      </trkpt>
      <trkpt lat="42.276828" lon="2.004426">
        <ele>1279.135477</ele>
        <time>2022-05-22T04:18:22.933Z</time>
      </trkpt>
      <trkpt lat="42.276777" lon="2.004319">
        <ele>1278.407821</ele>
        <time>2022-05-22T04:18:23.938Z</time>
      </trkpt>
      <trkpt lat="42.276720" lon="2.004120">
        <ele>1277.187865</ele>
        <time>2022-05-22T04:18:25.929Z</time>
      </trkpt>
      <trkpt lat="42.276804" lon="2.003939">
        <ele>1275.966384</ele>
        <time>2022-05-22T04:18:27.924Z</time>
      </trkpt>
      <trkpt lat="42.276892" lon="2.003881">
        <ele>1275.209894</ele>
        <time>2022-05-22T04:18:28.929Z</time>
      </trkpt>
      <trkpt lat="42.276994" lon="2.003881">
        <ele>1274.421773</ele>
        <time>2022-05-22T04:18:29.931Z</time>
      </trkpt>
      <trkpt lat="42.277106" lon="2.003945">
        <ele>1273.482216</ele>
        <time>2022-05-22T04:18:30.929Z</time>
      </trkpt>
      <trkpt lat="42.277190" lon="2.004042">
        <ele>1272.628533</ele>
        <time>2022-05-22T04:18:31.928Z</time>
      </trkpt>
      <trkpt lat="42.277271" lon="2.004164">
        <ele>1271.905164</ele>
        <time>2022-05-22T04:18:32.944Z</time>
      </trkpt>
      <trkpt lat="42.277351" lon="2.004305">
        <ele>1271.291192</ele>
        <time>2022-05-22T04:18:33.931Z</time>
      </trkpt>
      <trkpt lat="42.277422" lon="2.004430">
        <ele>1270.746669</ele>
        <time>2022-05-22T04:18:34.927Z</time>
      </trkpt>
      <trkpt lat="42.277484" lon="2.004546">
        <ele>1270.252198</ele>
        <time>2022-05-22T04:18:35.934Z</time>
      </trkpt>
      <trkpt lat="42.277547" lon="2.004662">
        <ele>1269.754979</ele>
        <time>2022-05-22T04:18:36.927Z</time>
      </trkpt>
      <trkpt lat="42.277612" lon="2.004772">
        <ele>1269.268544</ele>
        <time>2022-05-22T04:18:37.930Z</time>
      </trkpt>
      <trkpt lat="42.277678" lon="2.004872">
        <ele>1268.805508</ele>
        <time>2022-05-22T04:18:38.928Z</time>
      </trkpt>
      <trkpt lat="42.277746" lon="2.004966">
        <ele>1268.351250</ele>
        <time>2022-05-22T04:18:39.925Z</time>
      </trkpt>
      <trkpt lat="42.277881" lon="2.005088">
        <ele>1267.592831</ele>
        <time>2022-05-22T04:18:41.929Z</time>
      </trkpt>
      <trkpt lat="42.278039" lon="2.005091">
        <ele>1266.854878</ele>
        <time>2022-05-22T04:18:43.930Z</time>
      </trkpt>
      <trkpt lat="42.278215" lon="2.004989">
        <ele>1265.960557</ele>
        <time>2022-05-22T04:18:45.925Z</time>
      </trkpt>
      <trkpt lat="42.278313" lon="2.004919">
        <ele>1265.442900</ele>
        <time>2022-05-22T04:18:46.930Z</time>
      </trkpt>
      <trkpt lat="42.278413" lon="2.004842">
        <ele>1264.905415</ele>
        <time>2022-05-22T04:18:47.933Z</time>
      </trkpt>
      <trkpt lat="42.278516" lon="2.004767">
        <ele>1264.359024</ele>
        <time>2022-05-22T04:18:48.925Z</time>
      </trkpt>
      <trkpt lat="42.278611" lon="2.004688">
        <ele>1263.838111</ele>
        <time>2022-05-22T04:18:49.927Z</time>
      </trkpt>
      <trkpt lat="42.278699" lon="2.004619">
        <ele>1263.360138</ele>
        <time>2022-05-22T04:18:50.931Z</time>
      </trkpt>
      <trkpt lat="42.278762" lon="2.004506">
        <ele>1262.868269</ele>
        <time>2022-05-22T04:18:51.930Z</time>
      </trkpt>
      <trkpt lat="42.278794" lon="2.004368">
        <ele>1262.365524</ele>
        <time>2022-05-22T04:18:52.927Z</time>
      </trkpt>
      <trkpt lat="42.278821" lon="2.004237">
        <ele>1261.892782</ele>
        <time>2022-05-22T04:18:53.927Z</time>
      </trkpt>
      <trkpt lat="42.278850" lon="2.004113">
        <ele>1261.440692</ele>
        <time>2022-05-22T04:18:54.930Z</time>
      </trkpt>
      <trkpt lat="42.278951" lon="2.003917">
        <ele>1260.610358</ele>
        <time>2022-05-22T04:18:56.925Z</time>
      </trkpt>
      <trkpt lat="42.279003" lon="2.003813">
        <ele>1260.174003</ele>
        <time>2022-05-22T04:18:57.934Z</time>
      </trkpt>
      <trkpt lat="42.279057" lon="2.003694">
        <ele>1259.688711</ele>
        <time>2022-05-22T04:18:58.931Z</time>
      </trkpt>
      <trkpt lat="42.279085" lon="2.003548">
        <ele>1259.164392</ele>
        <time>2022-05-22T04:18:59.930Z</time>
      </trkpt>
      <trkpt lat="42.279076" lon="2.003415">
        <ele>1258.700110</ele>
        <time>2022-05-22T04:19:00.927Z</time>
      </trkpt>
      <trkpt lat="42.279043" lon="2.003280">
        <ele>1258.205854</ele>
        <time>2022-05-22T04:19:01.930Z</time>
      </trkpt>
      <trkpt lat="42.279006" lon="2.003138">
        <ele>1257.682497</ele>
        <time>2022-05-22T04:19:02.926Z</time>
      </trkpt>
      <trkpt lat="42.278990" lon="2.002990">
        <ele>1257.162536</ele>
        <time>2022-05-22T04:19:03.931Z</time>
      </trkpt>
      <trkpt lat="42.279004" lon="2.002830">
        <ele>1256.602445</ele>
        <time>2022-05-22T04:19:04.926Z</time>
      </trkpt>
      <trkpt lat="42.279016" lon="2.002683">
        <ele>1256.088322</ele>
        <time>2022-05-22T04:19:05.923Z</time>
      </trkpt>
      <trkpt lat="42.279007" lon="2.002553">
        <ele>1255.634424</ele>
        <time>2022-05-22T04:19:06.926Z</time>
      </trkpt>
      <trkpt lat="42.278958" lon="2.002428">
        <ele>1255.268310</ele>
        <time>2022-05-22T04:19:07.930Z</time>
      </trkpt>
      <trkpt lat="42.278885" lon="2.002334">
        <ele>1255.044479</ele>
        <time>2022-05-22T04:19:08.931Z</time>
      </trkpt>
      <trkpt lat="42.278768" lon="2.002289">
        <ele>1254.774432</ele>
        <time>2022-05-22T04:19:09.928Z</time>
      </trkpt>
      <trkpt lat="42.278662" lon="2.002285">
        <ele>1254.539025</ele>
        <time>2022-05-22T04:19:10.928Z</time>
      </trkpt>
      <trkpt lat="42.278568" lon="2.002302">
        <ele>1254.328489</ele>
        <time>2022-05-22T04:19:11.928Z</time>
      </trkpt>
      <trkpt lat="42.278460" lon="2.002313">
        <ele>1254.088053</ele>
        <time>2022-05-22T04:19:12.933Z</time>
      </trkpt>
      <trkpt lat="42.278367" lon="2.002283">
        <ele>1253.875798</ele>
        <time>2022-05-22T04:19:13.926Z</time>
      </trkpt>
      <trkpt lat="42.278279" lon="2.002206">
        <ele>1253.643076</ele>
        <time>2022-05-22T04:19:14.924Z</time>
      </trkpt>
      <trkpt lat="42.278203" lon="2.002075">
        <ele>1253.369647</ele>
        <time>2022-05-22T04:19:15.927Z</time>
      </trkpt>
      <trkpt lat="42.278138" lon="2.001947">
        <ele>1253.114649</ele>
        <time>2022-05-22T04:19:16.929Z</time>
      </trkpt>
      <trkpt lat="42.278065" lon="2.001843">
        <ele>1252.879187</ele>
        <time>2022-05-22T04:19:17.928Z</time>
      </trkpt>
      <trkpt lat="42.277959" lon="2.001791">
        <ele>1252.628850</ele>
        <time>2022-05-22T04:19:18.928Z</time>
      </trkpt>
      <trkpt lat="42.277838" lon="2.001776">
        <ele>1252.359107</ele>
        <time>2022-05-22T04:19:19.934Z</time>
      </trkpt>
      <trkpt lat="42.277724" lon="2.001800">
        <ele>1252.102980</ele>
        <time>2022-05-22T04:19:20.928Z</time>
      </trkpt>
      <trkpt lat="42.277621" lon="2.001863">
        <ele>1251.851999</ele>
        <time>2022-05-22T04:19:21.924Z</time>
      </trkpt>
      <trkpt lat="42.277514" lon="2.001911">
        <ele>1251.601721</ele>
        <time>2022-05-22T04:19:22.921Z</time>
      </trkpt>
      <trkpt lat="42.277399" lon="2.001927">
        <ele>1251.240104</ele>
        <time>2022-05-22T04:19:23.930Z</time>
      </trkpt>
      <trkpt lat="42.277291" lon="2.001941">
        <ele>1250.409345</ele>
        <time>2022-05-22T04:19:24.932Z</time>
      </trkpt>
      <trkpt lat="42.277194" lon="2.001951">
        <ele>1249.664451</ele>
        <time>2022-05-22T04:19:25.925Z</time>
      </trkpt>
      <trkpt lat="42.277090" lon="2.001948">
        <ele>1248.867934</ele>
        <time>2022-05-22T04:19:26.923Z</time>
      </trkpt>
      <trkpt lat="42.276994" lon="2.001897">
        <ele>1248.078106</ele>
        <time>2022-05-22T04:19:27.929Z</time>
      </trkpt>
      <trkpt lat="42.276909" lon="2.001795">
        <ele>1247.207731</ele>
        <time>2022-05-22T04:19:28.930Z</time>
      </trkpt>
      <trkpt lat="42.276815" lon="2.001650">
        <ele>1246.115523</ele>
        <time>2022-05-22T04:19:29.926Z</time>
      </trkpt>
      <trkpt lat="42.276701" lon="2.001500">
        <ele>1244.897258</ele>
        <time>2022-05-22T04:19:30.927Z</time>
      </trkpt>
      <trkpt lat="42.276576" lon="2.001389">
        <ele>1243.752013</ele>
        <time>2022-05-22T04:19:31.923Z</time>
      </trkpt>
      <trkpt lat="42.276456" lon="2.001263">
        <ele>1242.588452</ele>
        <time>2022-05-22T04:19:32.921Z</time>
      </trkpt>
      <trkpt lat="42.276360" lon="2.001119">
        <ele>1241.490303</ele>
        <time>2022-05-22T04:19:33.928Z</time>
      </trkpt>
      <trkpt lat="42.276289" lon="2.000927">
        <ele>1240.274231</ele>
        <time>2022-05-22T04:19:34.924Z</time>
      </trkpt>
      <trkpt lat="42.276250" lon="2.000709">
        <ele>1239.003553</ele>
        <time>2022-05-22T04:19:35.928Z</time>
      </trkpt>
      <trkpt lat="42.276218" lon="2.000504">
        <ele>1237.816550</ele>
        <time>2022-05-22T04:19:36.926Z</time>
      </trkpt>
      <trkpt lat="42.276182" lon="2.000341">
        <ele>1237.215026</ele>
        <time>2022-05-22T04:19:37.926Z</time>
      </trkpt>
      <trkpt lat="42.276148" lon="2.000174">
        <ele>1236.699710</ele>
        <time>2022-05-22T04:19:38.935Z</time>
      </trkpt>
      <trkpt lat="42.276125" lon="2.000005">
        <ele>1236.188474</ele>
        <time>2022-05-22T04:19:39.929Z</time>
      </trkpt>
      <trkpt lat="42.276112" lon="1.999839">
        <ele>1235.691840</ele>
        <time>2022-05-22T04:19:40.934Z</time>
      </trkpt>
      <trkpt lat="42.276105" lon="1.999669">
        <ele>1235.185281</ele>
        <time>2022-05-22T04:19:41.916Z</time>
      </trkpt>
      <trkpt lat="42.276085" lon="1.999508">
        <ele>1234.699577</ele>
        <time>2022-05-22T04:19:42.932Z</time>
      </trkpt>
      <trkpt lat="42.276061" lon="1.999354">
        <ele>1234.231350</ele>
        <time>2022-05-22T04:19:43.926Z</time>
      </trkpt>
      <trkpt lat="42.276046" lon="1.999194">
        <ele>1233.751519</ele>
        <time>2022-05-22T04:19:44.930Z</time>
      </trkpt>
      <trkpt lat="42.276033" lon="1.999033">
        <ele>1233.269675</ele>
        <time>2022-05-22T04:19:45.923Z</time>
      </trkpt>
      <trkpt lat="42.276010" lon="1.998876">
        <ele>1232.793508</ele>
        <time>2022-05-22T04:19:46.917Z</time>
      </trkpt>
      <trkpt lat="42.276007" lon="1.998714">
        <ele>1232.311381</ele>
        <time>2022-05-22T04:19:47.922Z</time>
      </trkpt>
      <trkpt lat="42.276026" lon="1.998530">
        <ele>1231.758646</ele>
        <time>2022-05-22T04:19:48.922Z</time>
      </trkpt>
      <trkpt lat="42.276072" lon="1.998362">
        <ele>1231.225694</ele>
        <time>2022-05-22T04:19:49.923Z</time>
      </trkpt>
      <trkpt lat="42.276115" lon="1.998219">
        <ele>1230.766455</ele>
        <time>2022-05-22T04:19:50.933Z</time>
      </trkpt>
      <trkpt lat="42.276142" lon="1.998087">
        <ele>1230.331024</ele>
        <time>2022-05-22T04:19:51.924Z</time>
      </trkpt>
      <trkpt lat="42.276141" lon="1.997966">
        <ele>1229.556636</ele>
        <time>2022-05-22T04:19:52.926Z</time>
      </trkpt>
      <trkpt lat="42.276061" lon="1.997870">
        <ele>1228.631335</ele>
        <time>2022-05-22T04:19:54.926Z</time>
      </trkpt>
      <trkpt lat="42.275907" lon="1.997817">
        <ele>1227.256881</ele>
        <time>2022-05-22T04:19:56.923Z</time>
      </trkpt>
      <trkpt lat="42.275746" lon="1.997842">
        <ele>1225.855230</ele>
        <time>2022-05-22T04:19:58.929Z</time>
      </trkpt>
      <trkpt lat="42.275645" lon="1.997881">
        <ele>1224.946726</ele>
        <time>2022-05-22T04:19:59.918Z</time>
      </trkpt>
      <trkpt lat="42.275544" lon="1.997869">
        <ele>1224.069807</ele>
        <time>2022-05-22T04:20:00.925Z</time>
      </trkpt>
      <trkpt lat="42.275445" lon="1.997803">
        <ele>1223.115048</ele>
        <time>2022-05-22T04:20:01.920Z</time>
      </trkpt>
      <trkpt lat="42.275345" lon="1.997714">
        <ele>1222.079454</ele>
        <time>2022-05-22T04:20:02.925Z</time>
      </trkpt>
      <trkpt lat="42.275246" lon="1.997627">
        <ele>1221.058105</ele>
        <time>2022-05-22T04:20:03.931Z</time>
      </trkpt>
      <trkpt lat="42.275158" lon="1.997538">
        <ele>1220.107476</ele>
        <time>2022-05-22T04:20:04.928Z</time>
      </trkpt>
      <trkpt lat="42.275091" lon="1.997443">
        <ele>1219.267584</ele>
        <time>2022-05-22T04:20:05.926Z</time>
      </trkpt>
      <trkpt lat="42.275083" lon="1.997209">
        <ele>1217.768479</ele>
        <time>2022-05-22T04:20:07.928Z</time>
      </trkpt>
      <trkpt lat="42.275101" lon="1.997069">
        <ele>1216.859108</ele>
        <time>2022-05-22T04:20:08.931Z</time>
      </trkpt>
      <trkpt lat="42.275116" lon="1.996934">
        <ele>1215.985475</ele>
        <time>2022-05-22T04:20:09.934Z</time>
      </trkpt>
      <trkpt lat="42.275118" lon="1.996788">
        <ele>1215.050973</ele>
        <time>2022-05-22T04:20:10.928Z</time>
      </trkpt>
      <trkpt lat="42.275115" lon="1.996640">
        <ele>1213.763939</ele>
        <time>2022-05-22T04:20:11.925Z</time>
      </trkpt>
      <trkpt lat="42.275110" lon="1.996494">
        <ele>1212.389555</ele>
        <time>2022-05-22T04:20:12.929Z</time>
      </trkpt>
      <trkpt lat="42.275113" lon="1.996344">
        <ele>1210.978511</ele>
        <time>2022-05-22T04:20:13.937Z</time>
      </trkpt>
      <trkpt lat="42.275110" lon="1.996201">
        <ele>1209.633268</ele>
        <time>2022-05-22T04:20:14.932Z</time>
      </trkpt>
      <trkpt lat="42.275108" lon="1.996057">
        <ele>1208.278922</ele>
        <time>2022-05-22T04:20:15.928Z</time>
      </trkpt>
      <trkpt lat="42.275104" lon="1.995908">
        <ele>1206.876875</ele>
        <time>2022-05-22T04:20:16.934Z</time>
      </trkpt>
      <trkpt lat="42.275109" lon="1.995750">
        <ele>1205.389761</ele>
        <time>2022-05-22T04:20:17.926Z</time>
      </trkpt>
      <trkpt lat="42.275126" lon="1.995597">
        <ele>1203.934891</ele>
        <time>2022-05-22T04:20:18.928Z</time>
      </trkpt>
      <trkpt lat="42.275143" lon="1.995445">
        <ele>1202.489320</ele>
        <time>2022-05-22T04:20:19.932Z</time>
      </trkpt>
      <trkpt lat="42.275166" lon="1.995298">
        <ele>1201.076437</ele>
        <time>2022-05-22T04:20:20.926Z</time>
      </trkpt>
      <trkpt lat="42.275172" lon="1.995146">
        <ele>1199.645070</ele>
        <time>2022-05-22T04:20:21.924Z</time>
      </trkpt>
      <trkpt lat="42.275153" lon="1.994990">
        <ele>1198.158382</ele>
        <time>2022-05-22T04:20:22.928Z</time>
      </trkpt>
      <trkpt lat="42.275112" lon="1.994832">
        <ele>1196.583906</ele>
        <time>2022-05-22T04:20:23.924Z</time>
      </trkpt>
      <trkpt lat="42.275080" lon="1.994673">
        <ele>1195.034424</ele>
        <time>2022-05-22T04:20:24.921Z</time>
      </trkpt>
      <trkpt lat="42.275058" lon="1.994510">
        <ele>1193.476358</ele>
        <time>2022-05-22T04:20:25.924Z</time>
      </trkpt>
      <trkpt lat="42.275055" lon="1.994331">
        <ele>1191.891507</ele>
        <time>2022-05-22T04:20:26.928Z</time>
      </trkpt>
      <trkpt lat="42.275045" lon="1.994161">
        <ele>1191.190328</ele>
        <time>2022-05-22T04:20:27.922Z</time>
      </trkpt>
      <trkpt lat="42.275034" lon="1.993976">
        <ele>1190.427229</ele>
        <time>2022-05-22T04:20:28.926Z</time>
      </trkpt>
      <trkpt lat="42.275035" lon="1.993801">
        <ele>1189.707676</ele>
        <time>2022-05-22T04:20:29.928Z</time>
      </trkpt>
      <trkpt lat="42.275056" lon="1.993619">
        <ele>1188.950319</ele>
        <time>2022-05-22T04:20:30.934Z</time>
      </trkpt>
      <trkpt lat="42.275082" lon="1.993447">
        <ele>1188.228516</ele>
        <time>2022-05-22T04:20:31.925Z</time>
      </trkpt>
      <trkpt lat="42.275111" lon="1.993283">
        <ele>1187.535225</ele>
        <time>2022-05-22T04:20:32.930Z</time>
      </trkpt>
      <trkpt lat="42.275149" lon="1.993118">
        <ele>1186.824708</ele>
        <time>2022-05-22T04:20:33.931Z</time>
      </trkpt>
      <trkpt lat="42.275185" lon="1.992956">
        <ele>1186.129238</ele>
        <time>2022-05-22T04:20:34.937Z</time>
      </trkpt>
      <trkpt lat="42.275221" lon="1.992788">
        <ele>1185.410105</ele>
        <time>2022-05-22T04:20:35.928Z</time>
      </trkpt>
      <trkpt lat="42.275225" lon="1.992615">
        <ele>1184.698452</ele>
        <time>2022-05-22T04:20:36.929Z</time>
      </trkpt>
      <trkpt lat="42.275213" lon="1.992433">
        <ele>1183.947177</ele>
        <time>2022-05-22T04:20:37.936Z</time>
      </trkpt>
      <trkpt lat="42.275202" lon="1.992256">
        <ele>1183.216862</ele>
        <time>2022-05-22T04:20:38.932Z</time>
      </trkpt>
      <trkpt lat="42.275196" lon="1.992079">
        <ele>1182.488346</ele>
        <time>2022-05-22T04:20:39.938Z</time>
      </trkpt>
      <trkpt lat="42.275191" lon="1.991901">
        <ele>1181.688034</ele>
        <time>2022-05-22T04:20:40.930Z</time>
      </trkpt>
      <trkpt lat="42.275181" lon="1.991721">
        <ele>1180.714241</ele>
        <time>2022-05-22T04:20:41.930Z</time>
      </trkpt>
      <trkpt lat="42.275169" lon="1.991541">
        <ele>1179.739248</ele>
        <time>2022-05-22T04:20:42.935Z</time>
      </trkpt>
      <trkpt lat="42.275152" lon="1.991358">
        <ele>1178.744254</ele>
        <time>2022-05-22T04:20:43.930Z</time>
      </trkpt>
      <trkpt lat="42.275127" lon="1.991180">
        <ele>1177.766838</ele>
        <time>2022-05-22T04:20:44.932Z</time>
      </trkpt>
      <trkpt lat="42.275109" lon="1.991001">
        <ele>1176.792295</ele>
        <time>2022-05-22T04:20:45.923Z</time>
      </trkpt>
      <trkpt lat="42.275096" lon="1.990815">
        <ele>1175.784399</ele>
        <time>2022-05-22T04:20:46.929Z</time>
      </trkpt>
      <trkpt lat="42.275083" lon="1.990627">
        <ele>1174.765761</ele>
        <time>2022-05-22T04:20:47.922Z</time>
      </trkpt>
      <trkpt lat="42.275075" lon="1.990437">
        <ele>1173.739094</ele>
        <time>2022-05-22T04:20:48.936Z</time>
      </trkpt>
      <trkpt lat="42.275067" lon="1.990244">
        <ele>1172.696269</ele>
        <time>2022-05-22T04:20:49.931Z</time>
      </trkpt>
      <trkpt lat="42.275063" lon="1.990051">
        <ele>1171.654667</ele>
        <time>2022-05-22T04:20:50.927Z</time>
      </trkpt>
      <trkpt lat="42.275072" lon="1.989864">
        <ele>1170.643711</ele>
        <time>2022-05-22T04:20:51.938Z</time>
      </trkpt>
      <trkpt lat="42.275095" lon="1.989682">
        <ele>1169.647643</ele>
        <time>2022-05-22T04:20:52.927Z</time>
      </trkpt>
      <trkpt lat="42.275132" lon="1.989503">
        <ele>1168.594447</ele>
        <time>2022-05-22T04:20:53.935Z</time>
      </trkpt>
      <trkpt lat="42.275187" lon="1.989343">
        <ele>1167.418538</ele>
        <time>2022-05-22T04:20:54.931Z</time>
      </trkpt>
      <trkpt lat="42.275255" lon="1.989196">
        <ele>1166.263026</ele>
        <time>2022-05-22T04:20:55.937Z</time>
      </trkpt>
      <trkpt lat="42.275327" lon="1.989071">
        <ele>1165.207183</ele>
        <time>2022-05-22T04:20:56.934Z</time>
      </trkpt>
      <trkpt lat="42.275380" lon="1.988858">
        <ele>1163.709360</ele>
        <time>2022-05-22T04:20:58.924Z</time>
      </trkpt>
      <trkpt lat="42.275371" lon="1.988684">
        <ele>1162.546778</ele>
        <time>2022-05-22T04:21:00.932Z</time>
      </trkpt>
      <trkpt lat="42.275205" lon="1.988692">
        <ele>1161.050491</ele>
        <time>2022-05-22T04:21:02.922Z</time>
      </trkpt>
      <trkpt lat="42.275120" lon="1.988756">
        <ele>1160.173998</ele>
        <time>2022-05-22T04:21:03.922Z</time>
      </trkpt>
      <trkpt lat="42.275051" lon="1.988978">
        <ele>1158.569064</ele>
        <time>2022-05-22T04:21:05.927Z</time>
      </trkpt>
      <trkpt lat="42.275023" lon="1.989099">
        <ele>1157.724045</ele>
        <time>2022-05-22T04:21:06.928Z</time>
      </trkpt>
      <trkpt lat="42.275008" lon="1.989222">
        <ele>1156.893156</ele>
        <time>2022-05-22T04:21:07.933Z</time>
      </trkpt>
      <trkpt lat="42.274984" lon="1.989349">
        <ele>1156.019494</ele>
        <time>2022-05-22T04:21:08.934Z</time>
      </trkpt>
      <trkpt lat="42.274922" lon="1.989580">
        <ele>1154.381648</ele>
        <time>2022-05-22T04:21:10.934Z</time>
      </trkpt>
      <trkpt lat="42.274880" lon="1.989694">
        <ele>1153.532825</ele>
        <time>2022-05-22T04:21:11.933Z</time>
      </trkpt>
      <trkpt lat="42.274840" lon="1.989816">
        <ele>1152.648942</ele>
        <time>2022-05-22T04:21:12.932Z</time>
      </trkpt>
      <trkpt lat="42.274798" lon="1.989942">
        <ele>1152.091896</ele>
        <time>2022-05-22T04:21:13.932Z</time>
      </trkpt>
      <trkpt lat="42.274755" lon="1.990072">
        <ele>1151.517909</ele>
        <time>2022-05-22T04:21:14.935Z</time>
      </trkpt>
      <trkpt lat="42.274714" lon="1.990207">
        <ele>1150.929688</ele>
        <time>2022-05-22T04:21:15.944Z</time>
      </trkpt>
      <trkpt lat="42.274679" lon="1.990352">
        <ele>1150.314899</ele>
        <time>2022-05-22T04:21:16.931Z</time>
      </trkpt>
      <trkpt lat="42.274661" lon="1.990504">
        <ele>1149.694410</ele>
        <time>2022-05-22T04:21:17.936Z</time>
      </trkpt>
      <trkpt lat="42.274622" lon="1.990651">
        <ele>1149.064935</ele>
        <time>2022-05-22T04:21:18.938Z</time>
      </trkpt>
      <trkpt lat="42.274588" lon="1.990802">
        <ele>1148.428716</ele>
        <time>2022-05-22T04:21:19.931Z</time>
      </trkpt>
      <trkpt lat="42.274557" lon="1.990948">
        <ele>1147.816457</ele>
        <time>2022-05-22T04:21:20.931Z</time>
      </trkpt>
      <trkpt lat="42.274534" lon="1.991108">
        <ele>1147.159459</ele>
        <time>2022-05-22T04:21:21.929Z</time>
      </trkpt>
      <trkpt lat="42.274514" lon="1.991273">
        <ele>1146.485499</ele>
        <time>2022-05-22T04:21:22.935Z</time>
      </trkpt>
      <trkpt lat="42.274504" lon="1.991438">
        <ele>1145.818178</ele>
        <time>2022-05-22T04:21:23.929Z</time>
      </trkpt>
      <trkpt lat="42.274493" lon="1.991608">
        <ele>1145.130313</ele>
        <time>2022-05-22T04:21:24.926Z</time>
      </trkpt>
      <trkpt lat="42.274489" lon="1.991787">
        <ele>1144.408457</ele>
        <time>2022-05-22T04:21:25.926Z</time>
      </trkpt>
      <trkpt lat="42.274490" lon="1.991970">
        <ele>1143.670786</ele>
        <time>2022-05-22T04:21:26.928Z</time>
      </trkpt>
      <trkpt lat="42.274488" lon="1.992135">
        <ele>1143.005602</ele>
        <time>2022-05-22T04:21:27.931Z</time>
      </trkpt>
      <trkpt lat="42.274484" lon="1.992302">
        <ele>1141.979177</ele>
        <time>2022-05-22T04:21:28.926Z</time>
      </trkpt>
      <trkpt lat="42.274472" lon="1.992456">
        <ele>1140.936954</ele>
        <time>2022-05-22T04:21:29.926Z</time>
      </trkpt>
      <trkpt lat="42.274465" lon="1.992588">
        <ele>1140.046255</ele>
        <time>2022-05-22T04:21:30.930Z</time>
      </trkpt>
      <trkpt lat="42.274383" lon="1.992776">
        <ele>1138.577450</ele>
        <time>2022-05-22T04:21:32.925Z</time>
      </trkpt>
      <trkpt lat="42.274243" lon="1.992819">
        <ele>1137.271528</ele>
        <time>2022-05-22T04:21:34.921Z</time>
      </trkpt>
      <trkpt lat="42.274141" lon="1.992727">
        <ele>1136.156080</ele>
        <time>2022-05-22T04:21:36.927Z</time>
      </trkpt>
      <trkpt lat="42.274132" lon="1.992521">
        <ele>1134.767182</ele>
        <time>2022-05-22T04:21:38.927Z</time>
      </trkpt>
      <trkpt lat="42.274182" lon="1.992302">
        <ele>1133.224633</ele>
        <time>2022-05-22T04:21:40.927Z</time>
      </trkpt>
      <trkpt lat="42.274183" lon="1.992076">
        <ele>1131.703515</ele>
        <time>2022-05-22T04:21:42.926Z</time>
      </trkpt>
      <trkpt lat="42.274164" lon="1.991956">
        <ele>1130.877572</ele>
        <time>2022-05-22T04:21:43.925Z</time>
      </trkpt>
      <trkpt lat="42.274132" lon="1.991834">
        <ele>1130.006387</ele>
        <time>2022-05-22T04:21:44.931Z</time>
      </trkpt>
      <trkpt lat="42.274101" lon="1.991707">
        <ele>1129.106304</ele>
        <time>2022-05-22T04:21:45.930Z</time>
      </trkpt>
      <trkpt lat="42.274066" lon="1.991579">
        <ele>1128.187858</ele>
        <time>2022-05-22T04:21:46.930Z</time>
      </trkpt>
      <trkpt lat="42.274034" lon="1.991446">
        <ele>1127.246566</ele>
        <time>2022-05-22T04:21:47.928Z</time>
      </trkpt>
      <trkpt lat="42.274009" lon="1.991308">
        <ele>1126.354860</ele>
        <time>2022-05-22T04:21:48.930Z</time>
      </trkpt>
      <trkpt lat="42.273995" lon="1.991164">
        <ele>1125.680422</ele>
        <time>2022-05-22T04:21:49.933Z</time>
      </trkpt>
      <trkpt lat="42.273991" lon="1.991019">
        <ele>1125.006620</ele>
        <time>2022-05-22T04:21:50.930Z</time>
      </trkpt>
      <trkpt lat="42.273986" lon="1.990868">
        <ele>1124.304721</ele>
        <time>2022-05-22T04:21:51.941Z</time>
      </trkpt>
      <trkpt lat="42.273983" lon="1.990714">
        <ele>1123.589346</ele>
        <time>2022-05-22T04:21:52.937Z</time>
      </trkpt>
      <trkpt lat="42.273979" lon="1.990560">
        <ele>1122.873777</ele>
        <time>2022-05-22T04:21:53.928Z</time>
      </trkpt>
      <trkpt lat="42.273968" lon="1.990413">
        <ele>1122.187673</ele>
        <time>2022-05-22T04:21:54.932Z</time>
      </trkpt>
      <trkpt lat="42.273939" lon="1.990272">
        <ele>1121.508089</ele>
        <time>2022-05-22T04:21:55.933Z</time>
      </trkpt>
      <trkpt lat="42.273897" lon="1.990131">
        <ele>1120.802265</ele>
        <time>2022-05-22T04:21:56.926Z</time>
      </trkpt>
      <trkpt lat="42.273856" lon="1.989995">
        <ele>1120.120317</ele>
        <time>2022-05-22T04:21:57.932Z</time>
      </trkpt>
      <trkpt lat="42.273826" lon="1.989850">
        <ele>1119.421154</ele>
        <time>2022-05-22T04:21:58.930Z</time>
      </trkpt>
      <trkpt lat="42.273814" lon="1.989702">
        <ele>1118.729773</ele>
        <time>2022-05-22T04:21:59.930Z</time>
      </trkpt>
      <trkpt lat="42.273829" lon="1.989549">
        <ele>1118.013078</ele>
        <time>2022-05-22T04:22:00.927Z</time>
      </trkpt>
      <trkpt lat="42.273848" lon="1.989404">
        <ele>1117.329265</ele>
        <time>2022-05-22T04:22:01.924Z</time>
      </trkpt>
      <trkpt lat="42.273864" lon="1.989262">
        <ele>1116.662259</ele>
        <time>2022-05-22T04:22:02.926Z</time>
      </trkpt>
      <trkpt lat="42.273875" lon="1.989116">
        <ele>1115.980774</ele>
        <time>2022-05-22T04:22:03.930Z</time>
      </trkpt>
      <trkpt lat="42.273885" lon="1.988969">
        <ele>1115.295272</ele>
        <time>2022-05-22T04:22:04.928Z</time>
      </trkpt>
      <trkpt lat="42.273887" lon="1.988819">
        <ele>1114.973540</ele>
        <time>2022-05-22T04:22:05.924Z</time>
      </trkpt>
      <trkpt lat="42.273888" lon="1.988674">
        <ele>1114.712733</ele>
        <time>2022-05-22T04:22:06.931Z</time>
      </trkpt>
      <trkpt lat="42.273887" lon="1.988530">
        <ele>1114.453725</ele>
        <time>2022-05-22T04:22:07.929Z</time>
      </trkpt>
      <trkpt lat="42.273876" lon="1.988387">
        <ele>1114.195141</ele>
        <time>2022-05-22T04:22:08.923Z</time>
      </trkpt>
      <trkpt lat="42.273857" lon="1.988245">
        <ele>1113.935599</ele>
        <time>2022-05-22T04:22:09.929Z</time>
      </trkpt>
      <trkpt lat="42.273815" lon="1.988120">
        <ele>1113.688682</ele>
        <time>2022-05-22T04:22:10.930Z</time>
      </trkpt>
      <trkpt lat="42.273735" lon="1.988033">
        <ele>1113.439084</ele>
        <time>2022-05-22T04:22:11.934Z</time>
      </trkpt>
      <trkpt lat="42.273568" lon="1.988010">
        <ele>1113.031050</ele>
        <time>2022-05-22T04:22:13.940Z</time>
      </trkpt>
      <trkpt lat="42.273505" lon="1.988107">
        <ele>1112.798911</ele>
        <time>2022-05-22T04:22:14.926Z</time>
      </trkpt>
      <trkpt lat="42.273463" lon="1.988219">
        <ele>1112.573075</ele>
        <time>2022-05-22T04:22:15.927Z</time>
      </trkpt>
      <trkpt lat="42.273464" lon="1.988412">
        <ele>1112.225937</ele>
        <time>2022-05-22T04:22:17.934Z</time>
      </trkpt>
      <trkpt lat="42.273464" lon="1.988586">
        <ele>1111.912980</ele>
        <time>2022-05-22T04:22:19.929Z</time>
      </trkpt>
      <trkpt lat="42.273459" lon="1.988741">
        <ele>1111.633933</ele>
        <time>2022-05-22T04:22:21.931Z</time>
      </trkpt>
      <trkpt lat="42.273414" lon="1.988887">
        <ele>1111.349466</ele>
        <time>2022-05-22T04:22:23.927Z</time>
      </trkpt>
      <trkpt lat="42.273348" lon="1.989003">
        <ele>1111.086280</ele>
        <time>2022-05-22T04:22:25.931Z</time>
      </trkpt>
      <trkpt lat="42.273240" lon="1.989074">
        <ele>1110.855852</ele>
        <time>2022-05-22T04:22:27.935Z</time>
      </trkpt>
      <trkpt lat="42.273118" lon="1.989105">
        <ele>1110.973984</ele>
        <time>2022-05-22T04:22:29.929Z</time>
      </trkpt>
      <trkpt lat="42.272977" lon="1.989089">
        <ele>1111.108634</ele>
        <time>2022-05-22T04:22:31.947Z</time>
      </trkpt>
      <trkpt lat="42.272836" lon="1.989056">
        <ele>1111.244809</ele>
        <time>2022-05-22T04:22:33.932Z</time>
      </trkpt>
      <trkpt lat="42.272698" lon="1.989010">
        <ele>1111.380068</ele>
        <time>2022-05-22T04:22:35.925Z</time>
      </trkpt>
      <trkpt lat="42.272557" lon="1.988938">
        <ele>1111.523504</ele>
        <time>2022-05-22T04:22:37.931Z</time>
      </trkpt>
      <trkpt lat="42.272439" lon="1.988821">
        <ele>1111.662776</ele>
        <time>2022-05-22T04:22:39.922Z</time>
      </trkpt>
      <trkpt lat="42.272335" lon="1.988711">
        <ele>1111.788452</ele>
        <time>2022-05-22T04:22:41.931Z</time>
      </trkpt>
      <trkpt lat="42.272247" lon="1.988623">
        <ele>1111.892627</ele>
        <time>2022-05-22T04:22:43.932Z</time>
      </trkpt>
      <trkpt lat="42.272161" lon="1.988551">
        <ele>1111.988898</ele>
        <time>2022-05-22T04:22:45.927Z</time>
      </trkpt>
      <trkpt lat="42.272057" lon="1.988444">
        <ele>1112.113282</ele>
        <time>2022-05-22T04:22:48.931Z</time>
      </trkpt>
      <trkpt lat="42.271956" lon="1.988358">
        <ele>1112.226882</ele>
        <time>2022-05-22T04:22:51.938Z</time>
      </trkpt>
      <trkpt lat="42.271865" lon="1.988291">
        <ele>1112.325497</ele>
        <time>2022-05-22T04:22:54.929Z</time>
      </trkpt>
      <trkpt lat="42.271786" lon="1.988232">
        <ele>1112.411391</ele>
        <time>2022-05-22T04:22:57.924Z</time>
      </trkpt>
      <trkpt lat="42.271703" lon="1.988163">
        <ele>1112.504123</ele>
        <time>2022-05-22T04:23:01.930Z</time>
      </trkpt>
      <trkpt lat="42.271619" lon="1.988100">
        <ele>1112.786500</ele>
        <time>2022-05-22T04:23:05.927Z</time>
      </trkpt>
      <trkpt lat="42.271529" lon="1.988017">
        <ele>1113.326537</ele>
        <time>2022-05-22T04:23:10.927Z</time>
      </trkpt>
      <trkpt lat="42.271448" lon="1.987930">
        <ele>1113.839353</ele>
        <time>2022-05-22T04:23:15.933Z</time>
      </trkpt>
      <trkpt lat="42.271364" lon="1.987852">
        <ele>1114.344493</ele>
        <time>2022-05-22T04:23:19.934Z</time>
      </trkpt>
      <trkpt lat="42.271269" lon="1.987763">
        <ele>1114.917419</ele>
        <time>2022-05-22T04:23:23.931Z</time>
      </trkpt>
      <trkpt lat="42.271177" lon="1.987683">
        <ele>1115.459641</ele>
        <time>2022-05-22T04:23:27.930Z</time>
      </trkpt>
      <trkpt lat="42.271088" lon="1.987628">
        <ele>1115.944687</ele>
        <time>2022-05-22T04:23:31.931Z</time>
      </trkpt>
      <trkpt lat="42.270995" lon="1.987601">
        <ele>1116.416143</ele>
        <time>2022-05-22T04:23:35.930Z</time>
      </trkpt>
      <trkpt lat="42.270901" lon="1.987592">
        <ele>1116.883205</ele>
        <time>2022-05-22T04:23:39.933Z</time>
      </trkpt>
      <trkpt lat="42.270800" lon="1.987588">
        <ele>1117.384010</ele>
        <time>2022-05-22T04:23:43.939Z</time>
      </trkpt>
      <trkpt lat="42.270703" lon="1.987629">
        <ele>1117.887741</ele>
        <time>2022-05-22T04:23:47.932Z</time>
      </trkpt>
      <trkpt lat="42.270605" lon="1.987664">
        <ele>1118.390137</ele>
        <time>2022-05-22T04:23:51.928Z</time>
      </trkpt>
      <trkpt lat="42.270513" lon="1.987698">
        <ele>1118.862862</ele>
        <time>2022-05-22T04:23:55.933Z</time>
      </trkpt>
      <trkpt lat="42.270418" lon="1.987721">
        <ele>1119.341210</ele>
        <time>2022-05-22T04:23:59.923Z</time>
      </trkpt>
      <trkpt lat="42.270318" lon="1.987765">
        <ele>1119.862452</ele>
        <time>2022-05-22T04:24:03.931Z</time>
      </trkpt>
      <trkpt lat="42.270206" lon="1.987811">
        <ele>1120.442632</ele>
        <time>2022-05-22T04:24:07.927Z</time>
      </trkpt>
      <trkpt lat="42.270097" lon="1.987847">
        <ele>1120.998773</ele>
        <time>2022-05-22T04:24:10.931Z</time>
      </trkpt>
      <trkpt lat="42.269997" lon="1.987894">
        <ele>1121.460848</ele>
        <time>2022-05-22T04:24:13.926Z</time>
      </trkpt>
      <trkpt lat="42.269903" lon="1.987958">
        <ele>1121.425397</ele>
        <time>2022-05-22T04:24:16.934Z</time>
      </trkpt>
      <trkpt lat="42.269812" lon="1.988027">
        <ele>1121.390251</ele>
        <time>2022-05-22T04:24:19.928Z</time>
      </trkpt>
      <trkpt lat="42.269696" lon="1.988037">
        <ele>1121.351102</ele>
        <time>2022-05-22T04:24:22.929Z</time>
      </trkpt>
      <trkpt lat="42.269583" lon="1.987999">
        <ele>1121.311881</ele>
        <time>2022-05-22T04:24:24.936Z</time>
      </trkpt>
      <trkpt lat="42.269462" lon="1.987956">
        <ele>1121.269741</ele>
        <time>2022-05-22T04:24:26.929Z</time>
      </trkpt>
      <trkpt lat="42.269335" lon="1.987903">
        <ele>1121.224972</ele>
        <time>2022-05-22T04:24:28.925Z</time>
      </trkpt>
      <trkpt lat="42.269209" lon="1.987816">
        <ele>1121.177315</ele>
        <time>2022-05-22T04:24:30.928Z</time>
      </trkpt>
      <trkpt lat="42.269073" lon="1.987680">
        <ele>1121.120330</ele>
        <time>2022-05-22T04:24:32.933Z</time>
      </trkpt>
      <trkpt lat="42.269005" lon="1.987592">
        <ele>1121.088619</ele>
        <time>2022-05-22T04:24:33.923Z</time>
      </trkpt>
      <trkpt lat="42.268946" lon="1.987488">
        <ele>1121.055957</ele>
        <time>2022-05-22T04:24:34.931Z</time>
      </trkpt>
      <trkpt lat="42.268903" lon="1.987358">
        <ele>1121.020466</ele>
        <time>2022-05-22T04:24:35.923Z</time>
      </trkpt>
      <trkpt lat="42.268898" lon="1.987219">
        <ele>1120.985780</ele>
        <time>2022-05-22T04:24:36.926Z</time>
      </trkpt>
      <trkpt lat="42.268900" lon="1.987089">
        <ele>1120.953372</ele>
        <time>2022-05-22T04:24:37.930Z</time>
      </trkpt>
      <trkpt lat="42.268911" lon="1.986861">
        <ele>1120.896425</ele>
        <time>2022-05-22T04:24:39.926Z</time>
      </trkpt>
      <trkpt lat="42.268873" lon="1.986693">
        <ele>1120.825661</ele>
        <time>2022-05-22T04:24:41.925Z</time>
      </trkpt>
      <trkpt lat="42.268756" lon="1.986647">
        <ele>1120.611312</ele>
        <time>2022-05-22T04:24:43.925Z</time>
      </trkpt>
      <trkpt lat="42.268670" lon="1.986714">
        <ele>1120.436689</ele>
        <time>2022-05-22T04:24:44.925Z</time>
      </trkpt>
      <trkpt lat="42.268586" lon="1.986789">
        <ele>1120.259584</ele>
        <time>2022-05-22T04:24:45.921Z</time>
      </trkpt>
      <trkpt lat="42.268455" lon="1.986911">
        <ele>1119.979718</ele>
        <time>2022-05-22T04:24:47.926Z</time>
      </trkpt>
      <trkpt lat="42.268338" lon="1.987008">
        <ele>1119.738256</ele>
        <time>2022-05-22T04:24:49.934Z</time>
      </trkpt>
      <trkpt lat="42.268245" lon="1.987089">
        <ele>1119.543624</ele>
        <time>2022-05-22T04:24:51.933Z</time>
      </trkpt>
      <trkpt lat="42.268162" lon="1.987175">
        <ele>1119.359639</ele>
        <time>2022-05-22T04:24:53.934Z</time>
      </trkpt>
      <trkpt lat="42.268093" lon="1.987261">
        <ele>1119.194516</ele>
        <time>2022-05-22T04:24:55.927Z</time>
      </trkpt>
      <trkpt lat="42.267993" lon="1.987300">
        <ele>1119.011426</ele>
        <time>2022-05-22T04:24:58.933Z</time>
      </trkpt>
      <trkpt lat="42.267927" lon="1.987209">
        <ele>1118.845558</ele>
        <time>2022-05-22T04:25:00.932Z</time>
      </trkpt>
      <trkpt lat="42.267872" lon="1.987084">
        <ele>1118.656249</ele>
        <time>2022-05-22T04:25:02.929Z</time>
      </trkpt>
      <trkpt lat="42.267818" lon="1.986942">
        <ele>1118.448420</ele>
        <time>2022-05-22T04:25:04.928Z</time>
      </trkpt>
      <trkpt lat="42.267741" lon="1.986802">
        <ele>1118.221351</ele>
        <time>2022-05-22T04:25:06.934Z</time>
      </trkpt>
      <trkpt lat="42.267599" lon="1.986724">
        <ele>1117.951710</ele>
        <time>2022-05-22T04:25:08.936Z</time>
      </trkpt>
      <trkpt lat="42.267446" lon="1.986783">
        <ele>1117.679087</ele>
        <time>2022-05-22T04:25:10.929Z</time>
      </trkpt>
      <trkpt lat="42.267360" lon="1.986829">
        <ele>1117.567324</ele>
        <time>2022-05-22T04:25:11.925Z</time>
      </trkpt>
      <trkpt lat="42.267219" lon="1.986913">
        <ele>1117.381122</ele>
        <time>2022-05-22T04:25:13.924Z</time>
      </trkpt>
      <trkpt lat="42.267074" lon="1.987032">
        <ele>1117.176128</ele>
        <time>2022-05-22T04:25:15.924Z</time>
      </trkpt>
      <trkpt lat="42.266935" lon="1.987146">
        <ele>1116.979651</ele>
        <time>2022-05-22T04:25:17.927Z</time>
      </trkpt>
      <trkpt lat="42.266813" lon="1.987274">
        <ele>1116.793014</ele>
        <time>2022-05-22T04:25:19.922Z</time>
      </trkpt>
      <trkpt lat="42.266678" lon="1.987403">
        <ele>1116.593221</ele>
        <time>2022-05-22T04:25:21.931Z</time>
      </trkpt>
      <trkpt lat="42.266550" lon="1.987497">
        <ele>1116.417186</ele>
        <time>2022-05-22T04:25:23.924Z</time>
      </trkpt>
      <trkpt lat="42.266400" lon="1.987545">
        <ele>1116.230919</ele>
        <time>2022-05-22T04:25:25.927Z</time>
      </trkpt>
      <trkpt lat="42.266232" lon="1.987591">
        <ele>1116.023788</ele>
        <time>2022-05-22T04:25:27.924Z</time>
      </trkpt>
      <trkpt lat="42.266071" lon="1.987688">
        <ele>1115.810781</ele>
        <time>2022-05-22T04:25:29.927Z</time>
      </trkpt>
      <trkpt lat="42.265985" lon="1.987738">
        <ele>1115.697652</ele>
        <time>2022-05-22T04:25:30.925Z</time>
      </trkpt>
      <trkpt lat="42.265900" lon="1.987796">
        <ele>1115.582589</ele>
        <time>2022-05-22T04:25:31.926Z</time>
      </trkpt>
      <trkpt lat="42.265808" lon="1.987857">
        <ele>1115.293809</ele>
        <time>2022-05-22T04:25:32.932Z</time>
      </trkpt>
      <trkpt lat="42.265713" lon="1.987924">
        <ele>1114.824516</ele>
        <time>2022-05-22T04:25:33.922Z</time>
      </trkpt>
      <trkpt lat="42.265619" lon="1.987978">
        <ele>1114.377201</ele>
        <time>2022-05-22T04:25:34.927Z</time>
      </trkpt>
      <trkpt lat="42.265524" lon="1.988032">
        <ele>1113.925853</ele>
        <time>2022-05-22T04:25:35.927Z</time>
      </trkpt>
      <trkpt lat="42.265420" lon="1.988070">
        <ele>1113.454045</ele>
        <time>2022-05-22T04:25:36.926Z</time>
      </trkpt>
      <trkpt lat="42.265311" lon="1.988111">
        <ele>1112.958547</ele>
        <time>2022-05-22T04:25:37.927Z</time>
      </trkpt>
      <trkpt lat="42.265201" lon="1.988161">
        <ele>1112.450295</ele>
        <time>2022-05-22T04:25:38.924Z</time>
      </trkpt>
      <trkpt lat="42.265103" lon="1.988226">
        <ele>1111.972206</ele>
        <time>2022-05-22T04:25:39.918Z</time>
      </trkpt>
      <trkpt lat="42.265009" lon="1.988280">
        <ele>1111.524891</ele>
        <time>2022-05-22T04:25:40.919Z</time>
      </trkpt>
      <trkpt lat="42.264915" lon="1.988315">
        <ele>1111.097891</ele>
        <time>2022-05-22T04:25:41.916Z</time>
      </trkpt>
      <trkpt lat="42.264812" lon="1.988300">
        <ele>1110.644206</ele>
        <time>2022-05-22T04:25:42.922Z</time>
      </trkpt>
      <trkpt lat="42.264707" lon="1.988219">
        <ele>1110.114717</ele>
        <time>2022-05-22T04:25:43.923Z</time>
      </trkpt>
      <trkpt lat="42.264627" lon="1.988090">
        <ele>1109.569251</ele>
        <time>2022-05-22T04:25:44.922Z</time>
      </trkpt>
      <trkpt lat="42.264556" lon="1.987879">
        <ele>1108.818046</ele>
        <time>2022-05-22T04:25:45.927Z</time>
      </trkpt>
      <trkpt lat="42.264490" lon="1.987668">
        <ele>1108.075636</ele>
        <time>2022-05-22T04:25:46.928Z</time>
      </trkpt>
      <trkpt lat="42.264446" lon="1.987506">
        <ele>1107.310808</ele>
        <time>2022-05-22T04:25:47.921Z</time>
      </trkpt>
      <trkpt lat="42.264406" lon="1.987352">
        <ele>1105.934876</ele>
        <time>2022-05-22T04:25:48.926Z</time>
      </trkpt>
      <trkpt lat="42.264364" lon="1.987205">
        <ele>1104.606447</ele>
        <time>2022-05-22T04:25:49.929Z</time>
      </trkpt>
      <trkpt lat="42.264326" lon="1.987057">
        <ele>1103.285779</ele>
        <time>2022-05-22T04:25:50.927Z</time>
      </trkpt>
      <trkpt lat="42.264284" lon="1.986914">
        <ele>1101.988750</ele>
        <time>2022-05-22T04:25:51.930Z</time>
      </trkpt>
      <trkpt lat="42.264248" lon="1.986758">
        <ele>1100.611140</ele>
        <time>2022-05-22T04:25:52.931Z</time>
      </trkpt>
      <trkpt lat="42.264214" lon="1.986593">
        <ele>1099.167195</ele>
        <time>2022-05-22T04:25:53.928Z</time>
      </trkpt>
      <trkpt lat="42.264178" lon="1.986427">
        <ele>1097.708884</ele>
        <time>2022-05-22T04:25:54.936Z</time>
      </trkpt>
      <trkpt lat="42.264132" lon="1.986273">
        <ele>1096.308825</ele>
        <time>2022-05-22T04:25:55.923Z</time>
      </trkpt>
      <trkpt lat="42.264078" lon="1.986126">
        <ele>1094.925267</ele>
        <time>2022-05-22T04:25:56.932Z</time>
      </trkpt>
      <trkpt lat="42.264008" lon="1.985985">
        <ele>1093.493872</ele>
        <time>2022-05-22T04:25:57.921Z</time>
      </trkpt>
      <trkpt lat="42.263932" lon="1.985850">
        <ele>1092.063881</ele>
        <time>2022-05-22T04:25:58.928Z</time>
      </trkpt>
      <trkpt lat="42.263866" lon="1.985732">
        <ele>1090.816919</ele>
        <time>2022-05-22T04:25:59.926Z</time>
      </trkpt>
      <trkpt lat="42.263796" lon="1.985623">
        <ele>1089.600239</ele>
        <time>2022-05-22T04:26:00.929Z</time>
      </trkpt>
      <trkpt lat="42.263749" lon="1.985491">
        <ele>1088.365307</ele>
        <time>2022-05-22T04:26:01.937Z</time>
      </trkpt>
      <trkpt lat="42.263724" lon="1.985327">
        <ele>1087.003629</ele>
        <time>2022-05-22T04:26:02.926Z</time>
      </trkpt>
      <trkpt lat="42.263699" lon="1.985173">
        <ele>1086.004189</ele>
        <time>2022-05-22T04:26:03.922Z</time>
      </trkpt>
      <trkpt lat="42.263661" lon="1.985017">
        <ele>1084.963091</ele>
        <time>2022-05-22T04:26:04.927Z</time>
      </trkpt>
      <trkpt lat="42.263589" lon="1.984874">
        <ele>1083.866687</ele>
        <time>2022-05-22T04:26:05.934Z</time>
      </trkpt>
      <trkpt lat="42.263487" lon="1.984764">
        <ele>1082.748832</ele>
        <time>2022-05-22T04:26:06.928Z</time>
      </trkpt>
      <trkpt lat="42.263378" lon="1.984666">
        <ele>1081.627373</ele>
        <time>2022-05-22T04:26:07.934Z</time>
      </trkpt>
      <trkpt lat="42.263275" lon="1.984561">
        <ele>1080.522182</ele>
        <time>2022-05-22T04:26:08.926Z</time>
      </trkpt>
      <trkpt lat="42.263179" lon="1.984431">
        <ele>1079.357996</ele>
        <time>2022-05-22T04:26:09.925Z</time>
      </trkpt>
      <trkpt lat="42.263102" lon="1.984271">
        <ele>1078.148132</ele>
        <time>2022-05-22T04:26:10.930Z</time>
      </trkpt>
      <trkpt lat="42.263046" lon="1.984105">
        <ele>1076.991651</ele>
        <time>2022-05-22T04:26:11.929Z</time>
      </trkpt>
      <trkpt lat="42.263005" lon="1.983941">
        <ele>1075.894304</ele>
        <time>2022-05-22T04:26:12.927Z</time>
      </trkpt>
      <trkpt lat="42.262976" lon="1.983785">
        <ele>1074.874665</ele>
        <time>2022-05-22T04:26:13.928Z</time>
      </trkpt>
      <trkpt lat="42.262950" lon="1.983651">
        <ele>1073.996500</ele>
        <time>2022-05-22T04:26:14.927Z</time>
      </trkpt>
      <trkpt lat="42.262938" lon="1.983523">
        <ele>1073.178595</ele>
        <time>2022-05-22T04:26:15.932Z</time>
      </trkpt>
      <trkpt lat="42.262852" lon="1.983376">
        <ele>1071.990725</ele>
        <time>2022-05-22T04:26:17.922Z</time>
      </trkpt>
      <trkpt lat="42.262737" lon="1.983388">
        <ele>1071.195020</ele>
        <time>2022-05-22T04:26:19.928Z</time>
      </trkpt>
      <trkpt lat="42.262690" lon="1.983575">
        <ele>1070.265957</ele>
        <time>2022-05-22T04:26:21.924Z</time>
      </trkpt>
      <trkpt lat="42.262773" lon="1.983798">
        <ele>1069.091686</ele>
        <time>2022-05-22T04:26:23.926Z</time>
      </trkpt>
      <trkpt lat="42.262844" lon="1.983901">
        <ele>1068.429509</ele>
        <time>2022-05-22T04:26:24.929Z</time>
      </trkpt>
      <trkpt lat="42.262931" lon="1.984108">
        <ele>1067.309632</ele>
        <time>2022-05-22T04:26:26.933Z</time>
      </trkpt>
      <trkpt lat="42.262960" lon="1.984224">
        <ele>1066.733633</ele>
        <time>2022-05-22T04:26:27.934Z</time>
      </trkpt>
      <trkpt lat="42.262984" lon="1.984343">
        <ele>1066.153402</ele>
        <time>2022-05-22T04:26:28.926Z</time>
      </trkpt>
      <trkpt lat="42.262999" lon="1.984470">
        <ele>1065.548390</ele>
        <time>2022-05-22T04:26:29.923Z</time>
      </trkpt>
      <trkpt lat="42.263000" lon="1.984606">
        <ele>1064.908569</ele>
        <time>2022-05-22T04:26:30.930Z</time>
      </trkpt>
      <trkpt lat="42.262991" lon="1.984746">
        <ele>1064.247482</ele>
        <time>2022-05-22T04:26:31.931Z</time>
      </trkpt>
      <trkpt lat="42.262974" lon="1.984887">
        <ele>1063.575426</ele>
        <time>2022-05-22T04:26:32.930Z</time>
      </trkpt>
      <trkpt lat="42.262960" lon="1.985029">
        <ele>1062.901508</ele>
        <time>2022-05-22T04:26:33.927Z</time>
      </trkpt>
      <trkpt lat="42.262974" lon="1.985169">
        <ele>1062.236915</ele>
        <time>2022-05-22T04:26:34.925Z</time>
      </trkpt>
      <trkpt lat="42.263021" lon="1.985303">
        <ele>1061.539320</ele>
        <time>2022-05-22T04:26:35.929Z</time>
      </trkpt>
      <trkpt lat="42.263076" lon="1.985425">
        <ele>1060.867290</ele>
        <time>2022-05-22T04:26:36.930Z</time>
      </trkpt>
      <trkpt lat="42.263116" lon="1.985545">
        <ele>1060.215260</ele>
        <time>2022-05-22T04:26:37.932Z</time>
      </trkpt>
      <trkpt lat="42.263128" lon="1.985680">
        <ele>1059.260834</ele>
        <time>2022-05-22T04:26:38.933Z</time>
      </trkpt>
      <trkpt lat="42.263091" lon="1.985822">
        <ele>1058.204109</ele>
        <time>2022-05-22T04:26:39.934Z</time>
      </trkpt>
      <trkpt lat="42.263050" lon="1.985969">
        <ele>1057.101414</ele>
        <time>2022-05-22T04:26:40.929Z</time>
      </trkpt>
      <trkpt lat="42.263011" lon="1.986119">
        <ele>1055.985419</ele>
        <time>2022-05-22T04:26:41.934Z</time>
      </trkpt>
      <trkpt lat="42.262992" lon="1.986270">
        <ele>1054.910282</ele>
        <time>2022-05-22T04:26:42.935Z</time>
      </trkpt>
      <trkpt lat="42.263010" lon="1.986394">
        <ele>1054.023293</ele>
        <time>2022-05-22T04:26:43.926Z</time>
      </trkpt>
      <trkpt lat="42.263025" lon="1.986519">
        <ele>1053.134410</ele>
        <time>2022-05-22T04:26:44.925Z</time>
      </trkpt>
      <trkpt lat="42.263016" lon="1.986728">
        <ele>1051.664879</ele>
        <time>2022-05-22T04:26:46.930Z</time>
      </trkpt>
      <trkpt lat="42.262881" lon="1.986853">
        <ele>1050.112647</ele>
        <time>2022-05-22T04:26:48.923Z</time>
      </trkpt>
      <trkpt lat="42.262781" lon="1.986873">
        <ele>1049.153833</ele>
        <time>2022-05-22T04:26:49.932Z</time>
      </trkpt>
      <trkpt lat="42.262703" lon="1.986640">
        <ele>1047.358767</ele>
        <time>2022-05-22T04:26:51.923Z</time>
      </trkpt>
      <trkpt lat="42.262704" lon="1.986467">
        <ele>1046.144371</ele>
        <time>2022-05-22T04:26:52.925Z</time>
      </trkpt>
      <trkpt lat="42.262734" lon="1.986322">
        <ele>1045.087530</ele>
        <time>2022-05-22T04:26:53.925Z</time>
      </trkpt>
      <trkpt lat="42.262744" lon="1.986159">
        <ele>1043.939442</ele>
        <time>2022-05-22T04:26:54.928Z</time>
      </trkpt>
      <trkpt lat="42.262756" lon="1.985996">
        <ele>1042.634541</ele>
        <time>2022-05-22T04:26:55.927Z</time>
      </trkpt>
      <trkpt lat="42.262738" lon="1.985852">
        <ele>1041.267944</ele>
        <time>2022-05-22T04:26:56.929Z</time>
      </trkpt>
      <trkpt lat="42.262717" lon="1.985698">
        <ele>1039.802596</ele>
        <time>2022-05-22T04:26:57.936Z</time>
      </trkpt>
      <trkpt lat="42.262691" lon="1.985539">
        <ele>1038.278831</ele>
        <time>2022-05-22T04:26:58.925Z</time>
      </trkpt>
      <trkpt lat="42.262655" lon="1.985380">
        <ele>1036.722878</ele>
        <time>2022-05-22T04:26:59.931Z</time>
      </trkpt>
      <trkpt lat="42.262605" lon="1.985218">
        <ele>1035.080376</ele>
        <time>2022-05-22T04:27:00.930Z</time>
      </trkpt>
      <trkpt lat="42.262543" lon="1.985059">
        <ele>1033.398599</ele>
        <time>2022-05-22T04:27:01.928Z</time>
      </trkpt>
      <trkpt lat="42.262458" lon="1.984916">
        <ele>1031.682264</ele>
        <time>2022-05-22T04:27:02.924Z</time>
      </trkpt>
      <trkpt lat="42.262351" lon="1.984774">
        <ele>1029.785901</ele>
        <time>2022-05-22T04:27:03.928Z</time>
      </trkpt>
      <trkpt lat="42.262238" lon="1.984629">
        <ele>1027.815461</ele>
        <time>2022-05-22T04:27:04.955Z</time>
      </trkpt>
      <trkpt lat="42.262135" lon="1.984477">
        <ele>1025.886898</ele>
        <time>2022-05-22T04:27:05.918Z</time>
      </trkpt>
      <trkpt lat="42.262055" lon="1.984315">
        <ele>1024.064430</ele>
        <time>2022-05-22T04:27:06.923Z</time>
      </trkpt>
      <trkpt lat="42.261989" lon="1.984148">
        <ele>1022.292807</ele>
        <time>2022-05-22T04:27:07.925Z</time>
      </trkpt>
      <trkpt lat="42.261935" lon="1.983981">
        <ele>1020.587396</ele>
        <time>2022-05-22T04:27:08.926Z</time>
      </trkpt>
      <trkpt lat="42.261870" lon="1.983831">
        <ele>1019.438582</ele>
        <time>2022-05-22T04:27:09.927Z</time>
      </trkpt>
      <trkpt lat="42.261788" lon="1.983703">
        <ele>1018.342167</ele>
        <time>2022-05-22T04:27:10.927Z</time>
      </trkpt>
      <trkpt lat="42.261699" lon="1.983595">
        <ele>1017.295354</ele>
        <time>2022-05-22T04:27:11.922Z</time>
      </trkpt>
      <trkpt lat="42.261601" lon="1.983495">
        <ele>1016.220688</ele>
        <time>2022-05-22T04:27:12.930Z</time>
      </trkpt>
      <trkpt lat="42.261513" lon="1.983376">
        <ele>1015.131192</ele>
        <time>2022-05-22T04:27:13.920Z</time>
      </trkpt>
      <trkpt lat="42.261423" lon="1.983243">
        <ele>1013.964041</ele>
        <time>2022-05-22T04:27:14.927Z</time>
      </trkpt>
      <trkpt lat="42.261350" lon="1.983089">
        <ele>1012.779624</ele>
        <time>2022-05-22T04:27:15.928Z</time>
      </trkpt>
      <trkpt lat="42.261295" lon="1.982923">
        <ele>1011.601713</ele>
        <time>2022-05-22T04:27:16.929Z</time>
      </trkpt>
      <trkpt lat="42.261246" lon="1.982751">
        <ele>1010.408083</ele>
        <time>2022-05-22T04:27:17.925Z</time>
      </trkpt>
      <trkpt lat="42.261203" lon="1.982583">
        <ele>1009.256806</ele>
        <time>2022-05-22T04:27:18.925Z</time>
      </trkpt>
      <trkpt lat="42.261169" lon="1.982425">
        <ele>1008.191146</ele>
        <time>2022-05-22T04:27:19.928Z</time>
      </trkpt>
      <trkpt lat="42.261139" lon="1.982268">
        <ele>1007.140996</ele>
        <time>2022-05-22T04:27:20.927Z</time>
      </trkpt>
      <trkpt lat="42.261117" lon="1.982119">
        <ele>1006.156984</ele>
        <time>2022-05-22T04:27:21.926Z</time>
      </trkpt>
      <trkpt lat="42.261092" lon="1.981975">
        <ele>1005.199055</ele>
        <time>2022-05-22T04:27:22.923Z</time>
      </trkpt>
      <trkpt lat="42.261063" lon="1.981835">
        <ele>1004.584814</ele>
        <time>2022-05-22T04:27:23.926Z</time>
      </trkpt>
      <trkpt lat="42.261034" lon="1.981700">
        <ele>1004.252915</ele>
        <time>2022-05-22T04:27:24.932Z</time>
      </trkpt>
      <trkpt lat="42.260998" lon="1.981566">
        <ele>1003.916331</ele>
        <time>2022-05-22T04:27:25.927Z</time>
      </trkpt>
      <trkpt lat="42.260943" lon="1.981447">
        <ele>1003.585075</ele>
        <time>2022-05-22T04:27:26.916Z</time>
      </trkpt>
      <trkpt lat="42.260871" lon="1.981345">
        <ele>1003.252269</ele>
        <time>2022-05-22T04:27:27.933Z</time>
      </trkpt>
      <trkpt lat="42.260803" lon="1.981255">
        <ele>1002.948597</ele>
        <time>2022-05-22T04:27:28.997Z</time>
      </trkpt>
      <trkpt lat="42.260731" lon="1.981170">
        <ele>1002.643575</ele>
        <time>2022-05-22T04:27:29.919Z</time>
      </trkpt>
      <trkpt lat="42.260661" lon="1.981080">
        <ele>1002.335312</ele>
        <time>2022-05-22T04:27:30.925Z</time>
      </trkpt>
      <trkpt lat="42.260596" lon="1.980996">
        <ele>1002.048370</ele>
        <time>2022-05-22T04:27:31.964Z</time>
      </trkpt>
      <trkpt lat="42.260527" lon="1.980912">
        <ele>1001.752074</ele>
        <time>2022-05-22T04:27:33.018Z</time>
      </trkpt>
      <trkpt lat="42.260413" lon="1.980740">
        <ele>1001.206920</ele>
        <time>2022-05-22T04:27:34.923Z</time>
      </trkpt>
      <trkpt lat="42.260342" lon="1.980528">
        <ele>1000.657504</ele>
        <time>2022-05-22T04:27:36.916Z</time>
      </trkpt>
      <trkpt lat="42.260302" lon="1.980327">
        <ele>1000.166066</ele>
        <time>2022-05-22T04:27:38.928Z</time>
      </trkpt>
      <trkpt lat="42.260263" lon="1.980138">
        <ele>999.702799</ele>
        <time>2022-05-22T04:27:41.082Z</time>
      </trkpt>
      <trkpt lat="42.260208" lon="1.979979">
        <ele>999.288403</ele>
        <time>2022-05-22T04:27:42.929Z</time>
      </trkpt>
      <trkpt lat="42.260140" lon="1.979843">
        <ele>999.070515</ele>
        <time>2022-05-22T04:27:44.923Z</time>
      </trkpt>
      <trkpt lat="42.260056" lon="1.979745">
        <ele>999.166038</ele>
        <time>2022-05-22T04:27:46.931Z</time>
      </trkpt>
      <trkpt lat="42.259974" lon="1.979663">
        <ele>999.253844</ele>
        <time>2022-05-22T04:27:48.920Z</time>
      </trkpt>
      <trkpt lat="42.259901" lon="1.979573">
        <ele>999.338901</ele>
        <time>2022-05-22T04:27:50.928Z</time>
      </trkpt>
      <trkpt lat="42.259846" lon="1.979460">
        <ele>999.425056</ele>
        <time>2022-05-22T04:27:52.922Z</time>
      </trkpt>
      <trkpt lat="42.259800" lon="1.979338">
        <ele>999.512276</ele>
        <time>2022-05-22T04:27:54.919Z</time>
      </trkpt>
      <trkpt lat="42.259757" lon="1.979208">
        <ele>999.602983</ele>
        <time>2022-05-22T04:27:57.926Z</time>
      </trkpt>
      <trkpt lat="42.259732" lon="1.979043">
        <ele>999.710271</ele>
        <time>2022-05-22T04:28:00.921Z</time>
      </trkpt>
      <trkpt lat="42.259692" lon="1.978890">
        <ele>999.813637</ele>
        <time>2022-05-22T04:28:03.924Z</time>
      </trkpt>
      <trkpt lat="42.259653" lon="1.978755">
        <ele>999.905954</ele>
        <time>2022-05-22T04:28:06.933Z</time>
      </trkpt>
      <trkpt lat="42.259611" lon="1.978618">
        <ele>1000.000417</ele>
        <time>2022-05-22T04:28:09.920Z</time>
      </trkpt>
      <trkpt lat="42.259530" lon="1.978489">
        <ele>1000.108183</ele>
        <time>2022-05-22T04:28:12.927Z</time>
      </trkpt>
      <trkpt lat="42.259464" lon="1.978372">
        <ele>1000.201895</ele>
        <time>2022-05-22T04:28:15.929Z</time>
      </trkpt>
      <trkpt lat="42.259408" lon="1.978251">
        <ele>1000.292805</ele>
        <time>2022-05-22T04:28:18.921Z</time>
      </trkpt>
      <trkpt lat="42.259374" lon="1.978116">
        <ele>1000.383646</ele>
        <time>2022-05-22T04:28:21.923Z</time>
      </trkpt>
      <trkpt lat="42.259335" lon="1.977982">
        <ele>1000.475370</ele>
        <time>2022-05-22T04:28:24.934Z</time>
      </trkpt>
      <trkpt lat="42.259271" lon="1.977861">
        <ele>1000.570110</ele>
        <time>2022-05-22T04:28:27.934Z</time>
      </trkpt>
      <trkpt lat="42.259201" lon="1.977735">
        <ele>1000.567932</ele>
        <time>2022-05-22T04:28:30.928Z</time>
      </trkpt>
      <trkpt lat="42.259110" lon="1.977605">
        <ele>1000.548914</ele>
        <time>2022-05-22T04:28:33.933Z</time>
      </trkpt>
      <trkpt lat="42.259036" lon="1.977514">
        <ele>1000.534544</ele>
        <time>2022-05-22T04:28:35.918Z</time>
      </trkpt>
      <trkpt lat="42.258952" lon="1.977428">
        <ele>1000.519409</ele>
        <time>2022-05-22T04:28:37.930Z</time>
      </trkpt>
      <trkpt lat="42.258861" lon="1.977326">
        <ele>1000.502429</ele>
        <time>2022-05-22T04:28:40.012Z</time>
      </trkpt>
      <trkpt lat="42.258760" lon="1.977225">
        <ele>1000.484384</ele>
        <time>2022-05-22T04:28:41.944Z</time>
      </trkpt>
      <trkpt lat="42.258651" lon="1.977109">
        <ele>1000.464458</ele>
        <time>2022-05-22T04:28:43.930Z</time>
      </trkpt>
      <trkpt lat="42.258563" lon="1.976943">
        <ele>1000.442755</ele>
        <time>2022-05-22T04:28:45.924Z</time>
      </trkpt>
      <trkpt lat="42.258466" lon="1.976750">
        <ele>1000.417959</ele>
        <time>2022-05-22T04:28:47.924Z</time>
      </trkpt>
      <trkpt lat="42.258425" lon="1.976640">
        <ele>1000.404868</ele>
        <time>2022-05-22T04:28:48.919Z</time>
      </trkpt>
      <trkpt lat="42.258379" lon="1.976531">
        <ele>1000.391532</ele>
        <time>2022-05-22T04:28:49.925Z</time>
      </trkpt>
      <trkpt lat="42.258332" lon="1.976417">
        <ele>1000.377662</ele>
        <time>2022-05-22T04:28:50.928Z</time>
      </trkpt>
      <trkpt lat="42.258287" lon="1.976297">
        <ele>1000.363364</ele>
        <time>2022-05-22T04:28:51.920Z</time>
      </trkpt>
      <trkpt lat="42.258253" lon="1.976165">
        <ele>1000.348508</ele>
        <time>2022-05-22T04:28:52.922Z</time>
      </trkpt>
      <trkpt lat="42.258222" lon="1.976039">
        <ele>1000.334395</ele>
        <time>2022-05-22T04:28:53.922Z</time>
      </trkpt>
      <trkpt lat="42.258185" lon="1.975911">
        <ele>1000.298945</ele>
        <time>2022-05-22T04:28:54.926Z</time>
      </trkpt>
      <trkpt lat="42.258141" lon="1.975785">
        <ele>1000.215589</ele>
        <time>2022-05-22T04:28:55.917Z</time>
      </trkpt>
      <trkpt lat="42.258077" lon="1.975673">
        <ele>1000.130930</ele>
        <time>2022-05-22T04:28:56.923Z</time>
      </trkpt>
      <trkpt lat="42.257997" lon="1.975581">
        <ele>1000.046005</ele>
        <time>2022-05-22T04:28:57.926Z</time>
      </trkpt>
      <trkpt lat="42.257910" lon="1.975503">
        <ele>999.961600</ele>
        <time>2022-05-22T04:28:58.922Z</time>
      </trkpt>
      <trkpt lat="42.257823" lon="1.975434">
        <ele>999.880048</ele>
        <time>2022-05-22T04:28:59.933Z</time>
      </trkpt>
      <trkpt lat="42.257672" lon="1.975322">
        <ele>999.740798</ele>
        <time>2022-05-22T04:29:01.927Z</time>
      </trkpt>
      <trkpt lat="42.257545" lon="1.975171">
        <ele>999.604040</ele>
        <time>2022-05-22T04:29:03.919Z</time>
      </trkpt>
      <trkpt lat="42.257448" lon="1.975006">
        <ele>999.477966</ele>
        <time>2022-05-22T04:29:05.928Z</time>
      </trkpt>
      <trkpt lat="42.257350" lon="1.974848">
        <ele>999.354626</ele>
        <time>2022-05-22T04:29:07.927Z</time>
      </trkpt>
      <trkpt lat="42.257233" lon="1.974725">
        <ele>999.234786</ele>
        <time>2022-05-22T04:29:09.917Z</time>
      </trkpt>
      <trkpt lat="42.257087" lon="1.974670">
        <ele>999.112259</ele>
        <time>2022-05-22T04:29:11.919Z</time>
      </trkpt>
      <trkpt lat="42.256959" lon="1.974707">
        <ele>999.006444</ele>
        <time>2022-05-22T04:29:13.919Z</time>
      </trkpt>
      <trkpt lat="42.256843" lon="1.974824">
        <ele>998.889423</ele>
        <time>2022-05-22T04:29:15.921Z</time>
      </trkpt>
      <trkpt lat="42.256746" lon="1.974945">
        <ele>999.004737</ele>
        <time>2022-05-22T04:29:17.921Z</time>
      </trkpt>
      <trkpt lat="42.256669" lon="1.975091">
        <ele>999.169391</ele>
        <time>2022-05-22T04:29:19.920Z</time>
      </trkpt>
      <trkpt lat="42.256602" lon="1.975226">
        <ele>999.318676</ele>
        <time>2022-05-22T04:29:21.913Z</time>
      </trkpt>
      <trkpt lat="42.256535" lon="1.975380">
        <ele>999.482743</ele>
        <time>2022-05-22T04:29:23.922Z</time>
      </trkpt>
      <trkpt lat="42.256451" lon="1.975522">
        <ele>999.649700</ele>
        <time>2022-05-22T04:29:25.918Z</time>
      </trkpt>
      <trkpt lat="42.256371" lon="1.975627">
        <ele>999.788102</ele>
        <time>2022-05-22T04:29:27.921Z</time>
      </trkpt>
      <trkpt lat="42.256286" lon="1.975712">
        <ele>999.919328</ele>
        <time>2022-05-22T04:29:29.919Z</time>
      </trkpt>
      <trkpt lat="42.256197" lon="1.975760">
        <ele>1000.038243</ele>
        <time>2022-05-22T04:29:31.918Z</time>
      </trkpt>
      <trkpt lat="42.256080" lon="1.975778">
        <ele>1000.184367</ele>
        <time>2022-05-22T04:29:34.921Z</time>
      </trkpt>
      <trkpt lat="42.255951" lon="1.975765">
        <ele>1000.344889</ele>
        <time>2022-05-22T04:29:37.920Z</time>
      </trkpt>
      <trkpt lat="42.255860" lon="1.975732">
        <ele>1000.461809</ele>
        <time>2022-05-22T04:29:39.921Z</time>
      </trkpt>
      <trkpt lat="42.255776" lon="1.975686">
        <ele>1000.574282</ele>
        <time>2022-05-22T04:29:41.921Z</time>
      </trkpt>
      <trkpt lat="42.255662" lon="1.975601">
        <ele>1000.735858</ele>
        <time>2022-05-22T04:29:44.912Z</time>
      </trkpt>
      <trkpt lat="42.255571" lon="1.975495">
        <ele>1000.884955</ele>
        <time>2022-05-22T04:29:47.923Z</time>
      </trkpt>
      <trkpt lat="42.255496" lon="1.975427">
        <ele>1000.997038</ele>
        <time>2022-05-22T04:29:49.918Z</time>
      </trkpt>
      <trkpt lat="42.255423" lon="1.975349">
        <ele>1001.108840</ele>
        <time>2022-05-22T04:29:51.911Z</time>
      </trkpt>
      <trkpt lat="42.255300" lon="1.975279">
        <ele>1001.215083</ele>
        <time>2022-05-22T04:29:54.926Z</time>
      </trkpt>
      <trkpt lat="42.255192" lon="1.975326">
        <ele>1001.305403</ele>
        <time>2022-05-22T04:29:56.929Z</time>
      </trkpt>
      <trkpt lat="42.255071" lon="1.975475">
        <ele>1001.435726</ele>
        <time>2022-05-22T04:29:58.931Z</time>
      </trkpt>
      <trkpt lat="42.255001" lon="1.975594">
        <ele>1001.525284</ele>
        <time>2022-05-22T04:29:59.925Z</time>
      </trkpt>
      <trkpt lat="42.254939" lon="1.975724">
        <ele>1001.616402</ele>
        <time>2022-05-22T04:30:00.924Z</time>
      </trkpt>
      <trkpt lat="42.254871" lon="1.975935">
        <ele>1001.751993</ele>
        <time>2022-05-22T04:30:02.928Z</time>
      </trkpt>
      <trkpt lat="42.254824" lon="1.976047">
        <ele>1001.827850</ele>
        <time>2022-05-22T04:30:03.930Z</time>
      </trkpt>
      <trkpt lat="42.254767" lon="1.976168">
        <ele>1001.912355</ele>
        <time>2022-05-22T04:30:04.932Z</time>
      </trkpt>
      <trkpt lat="42.254706" lon="1.976269">
        <ele>1001.989160</ele>
        <time>2022-05-22T04:30:05.932Z</time>
      </trkpt>
      <trkpt lat="42.254635" lon="1.976358">
        <ele>1002.066257</ele>
        <time>2022-05-22T04:30:06.928Z</time>
      </trkpt>
      <trkpt lat="42.254555" lon="1.976430">
        <ele>1002.142775</ele>
        <time>2022-05-22T04:30:07.931Z</time>
      </trkpt>
      <trkpt lat="42.254448" lon="1.976456">
        <ele>1002.229316</ele>
        <time>2022-05-22T04:30:08.933Z</time>
      </trkpt>
      <trkpt lat="42.254335" lon="1.976456">
        <ele>1002.319267</ele>
        <time>2022-05-22T04:30:09.917Z</time>
      </trkpt>
      <trkpt lat="42.254221" lon="1.976457">
        <ele>1002.410015</ele>
        <time>2022-05-22T04:30:10.929Z</time>
      </trkpt>
      <trkpt lat="42.254109" lon="1.976472">
        <ele>1002.499607</ele>
        <time>2022-05-22T04:30:11.928Z</time>
      </trkpt>
      <trkpt lat="42.253999" lon="1.976523">
        <ele>1002.363457</ele>
        <time>2022-05-22T04:30:12.935Z</time>
      </trkpt>
      <trkpt lat="42.253920" lon="1.976617">
        <ele>1002.117818</ele>
        <time>2022-05-22T04:30:13.925Z</time>
      </trkpt>
      <trkpt lat="42.253849" lon="1.976731">
        <ele>1001.860497</ele>
        <time>2022-05-22T04:30:14.927Z</time>
      </trkpt>
      <trkpt lat="42.253782" lon="1.976851">
        <ele>1001.600889</ele>
        <time>2022-05-22T04:30:15.925Z</time>
      </trkpt>
      <trkpt lat="42.253716" lon="1.976961">
        <ele>1001.356325</ele>
        <time>2022-05-22T04:30:16.922Z</time>
      </trkpt>
      <trkpt lat="42.253642" lon="1.977062">
        <ele>1001.110876</ele>
        <time>2022-05-22T04:30:17.922Z</time>
      </trkpt>
      <trkpt lat="42.253555" lon="1.977131">
        <ele>1000.875475</ele>
        <time>2022-05-22T04:30:18.920Z</time>
      </trkpt>
      <trkpt lat="42.253466" lon="1.977163">
        <ele>1000.660573</ele>
        <time>2022-05-22T04:30:19.921Z</time>
      </trkpt>
      <trkpt lat="42.253367" lon="1.977173">
        <ele>1000.428921</ele>
        <time>2022-05-22T04:30:20.915Z</time>
      </trkpt>
      <trkpt lat="42.253270" lon="1.977181">
        <ele>1000.202158</ele>
        <time>2022-05-22T04:30:21.919Z</time>
      </trkpt>
      <trkpt lat="42.253183" lon="1.977214">
        <ele>999.991303</ele>
        <time>2022-05-22T04:30:22.913Z</time>
      </trkpt>
      <trkpt lat="42.253029" lon="1.977342">
        <ele>999.569399</ele>
        <time>2022-05-22T04:30:24.913Z</time>
      </trkpt>
      <trkpt lat="42.252960" lon="1.977427">
        <ele>999.351510</ele>
        <time>2022-05-22T04:30:25.919Z</time>
      </trkpt>
      <trkpt lat="42.252883" lon="1.977520">
        <ele>999.110507</ele>
        <time>2022-05-22T04:30:26.915Z</time>
      </trkpt>
      <trkpt lat="42.252815" lon="1.977611">
        <ele>998.887170</ele>
        <time>2022-05-22T04:30:27.936Z</time>
      </trkpt>
      <trkpt lat="42.252742" lon="1.977687">
        <ele>998.672122</ele>
        <time>2022-05-22T04:30:28.933Z</time>
      </trkpt>
      <trkpt lat="42.252659" lon="1.977750">
        <ele>998.449975</ele>
        <time>2022-05-22T04:30:29.919Z</time>
      </trkpt>
      <trkpt lat="42.252570" lon="1.977804">
        <ele>998.174079</ele>
        <time>2022-05-22T04:30:30.919Z</time>
      </trkpt>
      <trkpt lat="42.252488" lon="1.977872">
        <ele>997.855153</ele>
        <time>2022-05-22T04:30:31.927Z</time>
      </trkpt>
      <trkpt lat="42.252410" lon="1.977956">
        <ele>997.524514</ele>
        <time>2022-05-22T04:30:32.930Z</time>
      </trkpt>
      <trkpt lat="42.252346" lon="1.978057">
        <ele>997.198305</ele>
        <time>2022-05-22T04:30:33.929Z</time>
      </trkpt>
      <trkpt lat="42.252291" lon="1.978164">
        <ele>996.878685</ele>
        <time>2022-05-22T04:30:34.932Z</time>
      </trkpt>
      <trkpt lat="42.252241" lon="1.978286">
        <ele>996.536535</ele>
        <time>2022-05-22T04:30:35.927Z</time>
      </trkpt>
      <trkpt lat="42.252221" lon="1.978415">
        <ele>996.213161</ele>
        <time>2022-05-22T04:30:36.925Z</time>
      </trkpt>
      <trkpt lat="42.252226" lon="1.978561">
        <ele>995.854563</ele>
        <time>2022-05-22T04:30:37.919Z</time>
      </trkpt>
      <trkpt lat="42.252269" lon="1.978798">
        <ele>995.255864</ele>
        <time>2022-05-22T04:30:39.919Z</time>
      </trkpt>
      <trkpt lat="42.252334" lon="1.979023">
        <ele>994.663265</ele>
        <time>2022-05-22T04:30:41.920Z</time>
      </trkpt>
      <trkpt lat="42.252339" lon="1.979254">
        <ele>994.096259</ele>
        <time>2022-05-22T04:30:43.924Z</time>
      </trkpt>
      <trkpt lat="42.252307" lon="1.979470">
        <ele>993.555788</ele>
        <time>2022-05-22T04:30:45.925Z</time>
      </trkpt>
      <trkpt lat="42.252217" lon="1.979628">
        <ele>993.066630</ele>
        <time>2022-05-22T04:30:47.919Z</time>
      </trkpt>
      <trkpt lat="42.252090" lon="1.979739">
        <ele>992.565247</ele>
        <time>2022-05-22T04:30:49.925Z</time>
      </trkpt>
      <trkpt lat="42.252000" lon="1.979721">
        <ele>992.062711</ele>
        <time>2022-05-22T04:30:50.916Z</time>
      </trkpt>
      <trkpt lat="42.251921" lon="1.979647">
        <ele>991.169061</ele>
        <time>2022-05-22T04:30:51.918Z</time>
      </trkpt>
      <trkpt lat="42.251832" lon="1.979547">
        <ele>990.092959</ele>
        <time>2022-05-22T04:30:52.924Z</time>
      </trkpt>
      <trkpt lat="42.251761" lon="1.979429">
        <ele>989.046583</ele>
        <time>2022-05-22T04:30:53.916Z</time>
      </trkpt>
      <trkpt lat="42.251679" lon="1.979310">
        <ele>987.927848</ele>
        <time>2022-05-22T04:30:54.921Z</time>
      </trkpt>
      <trkpt lat="42.251610" lon="1.979189">
        <ele>986.876820</ele>
        <time>2022-05-22T04:30:55.915Z</time>
      </trkpt>
      <trkpt lat="42.251536" lon="1.979066">
        <ele>985.786153</ele>
        <time>2022-05-22T04:30:56.923Z</time>
      </trkpt>
      <trkpt lat="42.251464" lon="1.978938">
        <ele>984.679924</ele>
        <time>2022-05-22T04:30:57.932Z</time>
      </trkpt>
      <trkpt lat="42.251387" lon="1.978817">
        <ele>983.581926</ele>
        <time>2022-05-22T04:30:58.930Z</time>
      </trkpt>
      <trkpt lat="42.251310" lon="1.978698">
        <ele>982.494325</ele>
        <time>2022-05-22T04:30:59.926Z</time>
      </trkpt>
      <trkpt lat="42.251251" lon="1.978567">
        <ele>981.439162</ele>
        <time>2022-05-22T04:31:00.930Z</time>
      </trkpt>
      <trkpt lat="42.251202" lon="1.978422">
        <ele>980.342351</ele>
        <time>2022-05-22T04:31:01.924Z</time>
      </trkpt>
      <trkpt lat="42.251159" lon="1.978261">
        <ele>979.164594</ele>
        <time>2022-05-22T04:31:02.931Z</time>
      </trkpt>
      <trkpt lat="42.251125" lon="1.978099">
        <ele>978.005922</ele>
        <time>2022-05-22T04:31:03.932Z</time>
      </trkpt>
      <trkpt lat="42.251077" lon="1.977939">
        <ele>976.817968</ele>
        <time>2022-05-22T04:31:04.928Z</time>
      </trkpt>
      <trkpt lat="42.251017" lon="1.977794">
        <ele>975.674895</ele>
        <time>2022-05-22T04:31:05.932Z</time>
      </trkpt>
      <trkpt lat="42.250930" lon="1.977682">
        <ele>974.901882</ele>
        <time>2022-05-22T04:31:06.926Z</time>
      </trkpt>
      <trkpt lat="42.250827" lon="1.977613">
        <ele>974.168449</ele>
        <time>2022-05-22T04:31:07.927Z</time>
      </trkpt>
      <trkpt lat="42.250702" lon="1.977575">
        <ele>973.351077</ele>
        <time>2022-05-22T04:31:08.928Z</time>
      </trkpt>
      <trkpt lat="42.250578" lon="1.977554">
        <ele>972.553832</ele>
        <time>2022-05-22T04:31:09.932Z</time>
      </trkpt>
      <trkpt lat="42.250458" lon="1.977525">
        <ele>971.776145</ele>
        <time>2022-05-22T04:31:10.924Z</time>
      </trkpt>
      <trkpt lat="42.250340" lon="1.977495">
        <ele>971.010155</ele>
        <time>2022-05-22T04:31:11.932Z</time>
      </trkpt>
      <trkpt lat="42.250226" lon="1.977468">
        <ele>970.271805</ele>
        <time>2022-05-22T04:31:12.919Z</time>
      </trkpt>
      <trkpt lat="42.250103" lon="1.977451">
        <ele>969.483036</ele>
        <time>2022-05-22T04:31:13.929Z</time>
      </trkpt>
      <trkpt lat="42.249987" lon="1.977427">
        <ele>968.734390</ele>
        <time>2022-05-22T04:31:14.920Z</time>
      </trkpt>
      <trkpt lat="42.249862" lon="1.977391">
        <ele>967.919039</ele>
        <time>2022-05-22T04:31:15.934Z</time>
      </trkpt>
      <trkpt lat="42.249746" lon="1.977340">
        <ele>967.140819</ele>
        <time>2022-05-22T04:31:16.916Z</time>
      </trkpt>
      <trkpt lat="42.249626" lon="1.977274">
        <ele>966.314272</ele>
        <time>2022-05-22T04:31:17.925Z</time>
      </trkpt>
      <trkpt lat="42.249512" lon="1.977181">
        <ele>965.464700</ele>
        <time>2022-05-22T04:31:18.922Z</time>
      </trkpt>
      <trkpt lat="42.249398" lon="1.977083">
        <ele>964.602686</ele>
        <time>2022-05-22T04:31:19.916Z</time>
      </trkpt>
      <trkpt lat="42.249280" lon="1.977001">
        <ele>963.848139</ele>
        <time>2022-05-22T04:31:20.912Z</time>
      </trkpt>
      <trkpt lat="42.249137" lon="1.976953">
        <ele>963.112025</ele>
        <time>2022-05-22T04:31:21.918Z</time>
      </trkpt>
      <trkpt lat="42.248988" lon="1.976952">
        <ele>962.367650</ele>
        <time>2022-05-22T04:31:22.927Z</time>
      </trkpt>
      <trkpt lat="42.248844" lon="1.976990">
        <ele>961.634666</ele>
        <time>2022-05-22T04:31:23.928Z</time>
      </trkpt>
      <trkpt lat="42.248723" lon="1.977052">
        <ele>960.988160</ele>
        <time>2022-05-22T04:31:24.924Z</time>
      </trkpt>
      <trkpt lat="42.248636" lon="1.977145">
        <ele>960.433920</ele>
        <time>2022-05-22T04:31:25.927Z</time>
      </trkpt>
      <trkpt lat="42.248568" lon="1.977258">
        <ele>959.895381</ele>
        <time>2022-05-22T04:31:26.933Z</time>
      </trkpt>
      <trkpt lat="42.248516" lon="1.977385">
        <ele>959.358673</ele>
        <time>2022-05-22T04:31:27.931Z</time>
      </trkpt>
      <trkpt lat="42.248475" lon="1.977516">
        <ele>958.832709</ele>
        <time>2022-05-22T04:31:28.921Z</time>
      </trkpt>
      <trkpt lat="42.248431" lon="1.977647">
        <ele>958.300730</ele>
        <time>2022-05-22T04:31:29.924Z</time>
      </trkpt>
      <trkpt lat="42.248386" lon="1.977779">
        <ele>957.763310</ele>
        <time>2022-05-22T04:31:30.919Z</time>
      </trkpt>
      <trkpt lat="42.248346" lon="1.977912">
        <ele>957.232426</ele>
        <time>2022-05-22T04:31:31.924Z</time>
      </trkpt>
      <trkpt lat="42.248318" lon="1.978052">
        <ele>956.696137</ele>
        <time>2022-05-22T04:31:32.915Z</time>
      </trkpt>
      <trkpt lat="42.248310" lon="1.978199">
        <ele>956.151057</ele>
        <time>2022-05-22T04:31:33.919Z</time>
      </trkpt>
      <trkpt lat="42.248321" lon="1.978339">
        <ele>955.630423</ele>
        <time>2022-05-22T04:31:34.918Z</time>
      </trkpt>
      <trkpt lat="42.248346" lon="1.978475">
        <ele>955.137590</ele>
        <time>2022-05-22T04:31:35.925Z</time>
      </trkpt>
      <trkpt lat="42.248397" lon="1.978609">
        <ele>954.751863</ele>
        <time>2022-05-22T04:31:36.926Z</time>
      </trkpt>
      <trkpt lat="42.248443" lon="1.978728">
        <ele>954.408187</ele>
        <time>2022-05-22T04:31:37.932Z</time>
      </trkpt>
      <trkpt lat="42.248491" lon="1.978848">
        <ele>954.059005</ele>
        <time>2022-05-22T04:31:38.925Z</time>
      </trkpt>
      <trkpt lat="42.248532" lon="1.978963">
        <ele>953.732238</ele>
        <time>2022-05-22T04:31:39.924Z</time>
      </trkpt>
      <trkpt lat="42.248529" lon="1.979141">
        <ele>953.276441</ele>
        <time>2022-05-22T04:31:41.925Z</time>
      </trkpt>
      <trkpt lat="42.248403" lon="1.979203">
        <ele>952.812682</ele>
        <time>2022-05-22T04:31:43.923Z</time>
      </trkpt>
      <trkpt lat="42.248313" lon="1.979205">
        <ele>952.501388</ele>
        <time>2022-05-22T04:31:44.924Z</time>
      </trkpt>
      <trkpt lat="42.248220" lon="1.979172">
        <ele>952.168851</ele>
        <time>2022-05-22T04:31:45.921Z</time>
      </trkpt>
      <trkpt lat="42.248079" lon="1.979001">
        <ele>951.513552</ele>
        <time>2022-05-22T04:31:47.921Z</time>
      </trkpt>
      <trkpt lat="42.248027" lon="1.978890">
        <ele>951.177266</ele>
        <time>2022-05-22T04:31:48.925Z</time>
      </trkpt>
      <trkpt lat="42.247983" lon="1.978768">
        <ele>950.829847</ele>
        <time>2022-05-22T04:31:49.920Z</time>
      </trkpt>
      <trkpt lat="42.247942" lon="1.978648">
        <ele>950.491501</ele>
        <time>2022-05-22T04:31:50.926Z</time>
      </trkpt>
      <trkpt lat="42.247900" lon="1.978531">
        <ele>950.158617</ele>
        <time>2022-05-22T04:31:51.921Z</time>
      </trkpt>
      <trkpt lat="42.247852" lon="1.978408">
        <ele>949.802657</ele>
        <time>2022-05-22T04:31:52.925Z</time>
      </trkpt>
      <trkpt lat="42.247817" lon="1.978286">
        <ele>949.467699</ele>
        <time>2022-05-22T04:31:53.925Z</time>
      </trkpt>
      <trkpt lat="42.247787" lon="1.978166">
        <ele>949.143449</ele>
        <time>2022-05-22T04:31:54.928Z</time>
      </trkpt>
      <trkpt lat="42.247761" lon="1.978049">
        <ele>948.758803</ele>
        <time>2022-05-22T04:31:55.919Z</time>
      </trkpt>
      <trkpt lat="42.247740" lon="1.977809">
        <ele>947.830282</ele>
        <time>2022-05-22T04:31:57.921Z</time>
      </trkpt>
      <trkpt lat="42.247745" lon="1.977674">
        <ele>947.310952</ele>
        <time>2022-05-22T04:31:58.932Z</time>
      </trkpt>
      <trkpt lat="42.247744" lon="1.977547">
        <ele>946.822979</ele>
        <time>2022-05-22T04:31:59.929Z</time>
      </trkpt>
      <trkpt lat="42.247741" lon="1.977414">
        <ele>946.311744</ele>
        <time>2022-05-22T04:32:00.928Z</time>
      </trkpt>
      <trkpt lat="42.247721" lon="1.977274">
        <ele>945.763927</ele>
        <time>2022-05-22T04:32:01.911Z</time>
      </trkpt>
      <trkpt lat="42.247696" lon="1.977154">
        <ele>945.284965</ele>
        <time>2022-05-22T04:32:02.987Z</time>
      </trkpt>
      <trkpt lat="42.247593" lon="1.976965">
        <ele>944.383244</ele>
        <time>2022-05-22T04:32:04.918Z</time>
      </trkpt>
      <trkpt lat="42.247516" lon="1.976899">
        <ele>943.909932</ele>
        <time>2022-05-22T04:32:05.923Z</time>
      </trkpt>
      <trkpt lat="42.247340" lon="1.976861">
        <ele>942.984847</ele>
        <time>2022-05-22T04:32:07.918Z</time>
      </trkpt>
      <trkpt lat="42.247249" lon="1.976866">
        <ele>942.512140</ele>
        <time>2022-05-22T04:32:08.929Z</time>
      </trkpt>
      <trkpt lat="42.247158" lon="1.976858">
        <ele>942.038824</ele>
        <time>2022-05-22T04:32:09.923Z</time>
      </trkpt>
      <trkpt lat="42.246980" lon="1.976825">
        <ele>941.106292</ele>
        <time>2022-05-22T04:32:11.919Z</time>
      </trkpt>
      <trkpt lat="42.246887" lon="1.976812">
        <ele>940.621017</ele>
        <time>2022-05-22T04:32:12.921Z</time>
      </trkpt>
      <trkpt lat="42.246780" lon="1.976807">
        <ele>940.065323</ele>
        <time>2022-05-22T04:32:13.971Z</time>
      </trkpt>
      <trkpt lat="42.246678" lon="1.976794">
        <ele>939.566424</ele>
        <time>2022-05-22T04:32:14.915Z</time>
      </trkpt>
      <trkpt lat="42.246566" lon="1.976781">
        <ele>939.165094</ele>
        <time>2022-05-22T04:32:15.918Z</time>
      </trkpt>
      <trkpt lat="42.246455" lon="1.976782">
        <ele>938.768799</ele>
        <time>2022-05-22T04:32:16.917Z</time>
      </trkpt>
      <trkpt lat="42.246339" lon="1.976784">
        <ele>938.354628</ele>
        <time>2022-05-22T04:32:17.921Z</time>
      </trkpt>
      <trkpt lat="42.246222" lon="1.976801">
        <ele>937.934511</ele>
        <time>2022-05-22T04:32:18.928Z</time>
      </trkpt>
      <trkpt lat="42.246113" lon="1.976833">
        <ele>937.536281</ele>
        <time>2022-05-22T04:32:19.921Z</time>
      </trkpt>
      <trkpt lat="42.246022" lon="1.976889">
        <ele>937.179275</ele>
        <time>2022-05-22T04:32:20.921Z</time>
      </trkpt>
      <trkpt lat="42.245951" lon="1.976967">
        <ele>936.852553</ele>
        <time>2022-05-22T04:32:21.922Z</time>
      </trkpt>
      <trkpt lat="42.245915" lon="1.977085">
        <ele>936.515249</ele>
        <time>2022-05-22T04:32:22.926Z</time>
      </trkpt>
      <trkpt lat="42.245892" lon="1.977217">
        <ele>936.156858</ele>
        <time>2022-05-22T04:32:23.926Z</time>
      </trkpt>
      <trkpt lat="42.245891" lon="1.977346">
        <ele>935.815910</ele>
        <time>2022-05-22T04:32:24.925Z</time>
      </trkpt>
      <trkpt lat="42.245910" lon="1.977474">
        <ele>935.470890</ele>
        <time>2022-05-22T04:32:25.925Z</time>
      </trkpt>
      <trkpt lat="42.245924" lon="1.977613">
        <ele>935.100148</ele>
        <time>2022-05-22T04:32:26.918Z</time>
      </trkpt>
      <trkpt lat="42.245939" lon="1.977753">
        <ele>934.726292</ele>
        <time>2022-05-22T04:32:27.926Z</time>
      </trkpt>
      <trkpt lat="42.245946" lon="1.977881">
        <ele>934.387084</ele>
        <time>2022-05-22T04:32:28.928Z</time>
      </trkpt>
      <trkpt lat="42.245950" lon="1.978012">
        <ele>934.040575</ele>
        <time>2022-05-22T04:32:29.928Z</time>
      </trkpt>
      <trkpt lat="42.245944" lon="1.978141">
        <ele>933.698974</ele>
        <time>2022-05-22T04:32:31.017Z</time>
      </trkpt>
      <trkpt lat="42.245927" lon="1.978271">
        <ele>933.350083</ele>
        <time>2022-05-22T04:32:31.925Z</time>
      </trkpt>
      <trkpt lat="42.245897" lon="1.978395">
        <ele>932.732728</ele>
        <time>2022-05-22T04:32:32.925Z</time>
      </trkpt>
      <trkpt lat="42.245853" lon="1.978526">
        <ele>931.863954</ele>
        <time>2022-05-22T04:32:33.932Z</time>
      </trkpt>
      <trkpt lat="42.245805" lon="1.978663">
        <ele>930.948578</ele>
        <time>2022-05-22T04:32:34.923Z</time>
      </trkpt>
      <trkpt lat="42.245755" lon="1.978791">
        <ele>930.074524</ele>
        <time>2022-05-22T04:32:35.924Z</time>
      </trkpt>
      <trkpt lat="42.245707" lon="1.978920">
        <ele>929.202573</ele>
        <time>2022-05-22T04:32:36.923Z</time>
      </trkpt>
      <trkpt lat="42.245661" lon="1.979052">
        <ele>928.321468</ele>
        <time>2022-05-22T04:32:37.922Z</time>
      </trkpt>
      <trkpt lat="42.245620" lon="1.979174">
        <ele>927.512301</ele>
        <time>2022-05-22T04:32:38.919Z</time>
      </trkpt>
      <trkpt lat="42.245580" lon="1.979287">
        <ele>926.755848</ele>
        <time>2022-05-22T04:32:39.918Z</time>
      </trkpt>
      <trkpt lat="42.245516" lon="1.979464">
        <ele>925.566186</ele>
        <time>2022-05-22T04:32:41.919Z</time>
      </trkpt>
      <trkpt lat="42.245478" lon="1.979580">
        <ele>924.800095</ele>
        <time>2022-05-22T04:32:44.921Z</time>
      </trkpt>
      <trkpt lat="42.245387" lon="1.979551">
        <ele>924.037313</ele>
        <time>2022-05-22T04:32:59.926Z</time>
      </trkpt>
      <trkpt lat="42.245291" lon="1.979477">
        <ele>923.135580</ele>
        <time>2022-05-22T04:33:23.939Z</time>
      </trkpt>
      <trkpt lat="42.245219" lon="1.979324">
        <ele>922.040661</ele>
        <time>2022-05-22T04:33:26.935Z</time>
      </trkpt>
      <trkpt lat="42.245165" lon="1.979204">
        <ele>921.192543</ele>
        <time>2022-05-22T04:33:28.926Z</time>
      </trkpt>
      <trkpt lat="42.245118" lon="1.979082">
        <ele>920.361939</ele>
        <time>2022-05-22T04:33:30.930Z</time>
      </trkpt>
      <trkpt lat="42.245067" lon="1.978933">
        <ele>919.370539</ele>
        <time>2022-05-22T04:33:32.934Z</time>
      </trkpt>
      <trkpt lat="42.245060" lon="1.978772">
        <ele>918.446118</ele>
        <time>2022-05-22T04:33:34.921Z</time>
      </trkpt>
      <trkpt lat="42.245092" lon="1.978590">
        <ele>917.697329</ele>
        <time>2022-05-22T04:33:36.933Z</time>
      </trkpt>
      <trkpt lat="42.245125" lon="1.978400">
        <ele>916.916132</ele>
        <time>2022-05-22T04:33:38.930Z</time>
      </trkpt>
      <trkpt lat="42.245155" lon="1.978230">
        <ele>916.216577</ele>
        <time>2022-05-22T04:33:40.935Z</time>
      </trkpt>
      <trkpt lat="42.245169" lon="1.978055">
        <ele>915.511997</ele>
        <time>2022-05-22T04:33:42.926Z</time>
      </trkpt>
      <trkpt lat="42.245168" lon="1.977855">
        <ele>914.711406</ele>
        <time>2022-05-22T04:33:44.934Z</time>
      </trkpt>
      <trkpt lat="42.245152" lon="1.977633">
        <ele>913.818568</ele>
        <time>2022-05-22T04:33:46.919Z</time>
      </trkpt>
      <trkpt lat="42.245081" lon="1.977441">
        <ele>912.959463</ele>
        <time>2022-05-22T04:33:48.930Z</time>
      </trkpt>
      <trkpt lat="42.245022" lon="1.977347">
        <ele>912.466149</ele>
        <time>2022-05-22T04:33:49.941Z</time>
      </trkpt>
      <trkpt lat="42.244962" lon="1.977256">
        <ele>911.978353</ele>
        <time>2022-05-22T04:33:50.945Z</time>
      </trkpt>
      <trkpt lat="42.244885" lon="1.977081">
        <ele>911.163453</ele>
        <time>2022-05-22T04:33:52.933Z</time>
      </trkpt>
      <trkpt lat="42.244896" lon="1.976848">
        <ele>910.228887</ele>
        <time>2022-05-22T04:33:54.926Z</time>
      </trkpt>
      <trkpt lat="42.244919" lon="1.976727">
        <ele>909.728827</ele>
        <time>2022-05-22T04:33:55.930Z</time>
      </trkpt>
      <trkpt lat="42.244942" lon="1.976599">
        <ele>909.201580</ele>
        <time>2022-05-22T04:33:56.918Z</time>
      </trkpt>
      <trkpt lat="42.244962" lon="1.976469">
        <ele>908.643150</ele>
        <time>2022-05-22T04:33:57.929Z</time>
      </trkpt>
      <trkpt lat="42.244979" lon="1.976320">
        <ele>907.929667</ele>
        <time>2022-05-22T04:33:58.939Z</time>
      </trkpt>
      <trkpt lat="42.244969" lon="1.976176">
        <ele>907.245182</ele>
        <time>2022-05-22T04:33:59.929Z</time>
      </trkpt>
      <trkpt lat="42.244936" lon="1.976029">
        <ele>906.518206</ele>
        <time>2022-05-22T04:34:00.927Z</time>
      </trkpt>
      <trkpt lat="42.244878" lon="1.975905">
        <ele>905.824036</ele>
        <time>2022-05-22T04:34:01.930Z</time>
      </trkpt>
      <trkpt lat="42.244816" lon="1.975773">
        <ele>905.084197</ele>
        <time>2022-05-22T04:34:02.935Z</time>
      </trkpt>
      <trkpt lat="42.244776" lon="1.975642">
        <ele>904.413558</ele>
        <time>2022-05-22T04:34:03.932Z</time>
      </trkpt>
      <trkpt lat="42.244737" lon="1.975508">
        <ele>903.732136</ele>
        <time>2022-05-22T04:34:04.926Z</time>
      </trkpt>
      <trkpt lat="42.244705" lon="1.975395">
        <ele>903.159557</ele>
        <time>2022-05-22T04:34:05.932Z</time>
      </trkpt>
      <trkpt lat="42.244660" lon="1.975223">
        <ele>902.296206</ele>
        <time>2022-05-22T04:34:07.929Z</time>
      </trkpt>
      <trkpt lat="42.244611" lon="1.975074">
        <ele>901.524597</ele>
        <time>2022-05-22T04:34:09.933Z</time>
      </trkpt>
      <trkpt lat="42.244505" lon="1.974986">
        <ele>900.729192</ele>
        <time>2022-05-22T04:34:11.926Z</time>
      </trkpt>
      <trkpt lat="42.244357" lon="1.975052">
        <ele>899.732803</ele>
        <time>2022-05-22T04:34:13.934Z</time>
      </trkpt>
      <trkpt lat="42.244227" lon="1.975143">
        <ele>898.796753</ele>
        <time>2022-05-22T04:34:15.934Z</time>
      </trkpt>
      <trkpt lat="42.244117" lon="1.975234">
        <ele>897.972126</ele>
        <time>2022-05-22T04:34:17.924Z</time>
      </trkpt>
      <trkpt lat="42.244018" lon="1.975309">
        <ele>897.274264</ele>
        <time>2022-05-22T04:34:19.926Z</time>
      </trkpt>
      <trkpt lat="42.243899" lon="1.975368">
        <ele>896.773828</ele>
        <time>2022-05-22T04:34:21.929Z</time>
      </trkpt>
      <trkpt lat="42.243821" lon="1.975247">
        <ele>896.304921</ele>
        <time>2022-05-22T04:34:23.930Z</time>
      </trkpt>
      <trkpt lat="42.243788" lon="1.975019">
        <ele>895.625966</ele>
        <time>2022-05-22T04:34:25.926Z</time>
      </trkpt>
      <trkpt lat="42.243757" lon="1.974803">
        <ele>894.982942</ele>
        <time>2022-05-22T04:34:27.930Z</time>
      </trkpt>
      <trkpt lat="42.243736" lon="1.974584">
        <ele>894.337558</ele>
        <time>2022-05-22T04:34:29.935Z</time>
      </trkpt>
      <trkpt lat="42.243726" lon="1.974372">
        <ele>893.716722</ele>
        <time>2022-05-22T04:34:31.931Z</time>
      </trkpt>
      <trkpt lat="42.243730" lon="1.974159">
        <ele>893.094019</ele>
        <time>2022-05-22T04:34:33.929Z</time>
      </trkpt>
      <trkpt lat="42.243742" lon="1.973962">
        <ele>892.516332</ele>
        <time>2022-05-22T04:34:35.931Z</time>
      </trkpt>
      <trkpt lat="42.243740" lon="1.973754">
        <ele>891.908392</ele>
        <time>2022-05-22T04:34:37.923Z</time>
      </trkpt>
      <trkpt lat="42.243657" lon="1.973576">
        <ele>891.293583</ele>
        <time>2022-05-22T04:34:39.941Z</time>
      </trkpt>
      <trkpt lat="42.243571" lon="1.973427">
        <ele>890.741410</ele>
        <time>2022-05-22T04:34:41.927Z</time>
      </trkpt>
      <trkpt lat="42.243497" lon="1.973297">
        <ele>890.262146</ele>
        <time>2022-05-22T04:34:43.928Z</time>
      </trkpt>
      <trkpt lat="42.243444" lon="1.973115">
        <ele>890.012222</ele>
        <time>2022-05-22T04:34:45.934Z</time>
      </trkpt>
      <trkpt lat="42.243460" lon="1.972923">
        <ele>889.791664</ele>
        <time>2022-05-22T04:34:47.928Z</time>
      </trkpt>
      <trkpt lat="42.243534" lon="1.972775">
        <ele>889.587792</ele>
        <time>2022-05-22T04:34:49.926Z</time>
      </trkpt>
      <trkpt lat="42.243637" lon="1.972660">
        <ele>889.381736</ele>
        <time>2022-05-22T04:34:51.935Z</time>
      </trkpt>
      <trkpt lat="42.243750" lon="1.972555">
        <ele>889.170246</ele>
        <time>2022-05-22T04:34:53.932Z</time>
      </trkpt>
      <trkpt lat="42.243857" lon="1.972456">
        <ele>888.970259</ele>
        <time>2022-05-22T04:34:55.934Z</time>
      </trkpt>
      <trkpt lat="42.243968" lon="1.972364">
        <ele>888.769447</ele>
        <time>2022-05-22T04:34:57.937Z</time>
      </trkpt>
      <trkpt lat="42.244081" lon="1.972225">
        <ele>888.533781</ele>
        <time>2022-05-22T04:34:59.926Z</time>
      </trkpt>
      <trkpt lat="42.244168" lon="1.972053">
        <ele>888.295984</ele>
        <time>2022-05-22T04:35:01.926Z</time>
      </trkpt>
      <trkpt lat="42.244220" lon="1.971858">
        <ele>888.059386</ele>
        <time>2022-05-22T04:35:03.934Z</time>
      </trkpt>
      <trkpt lat="42.244252" lon="1.971651">
        <ele>887.817995</ele>
        <time>2022-05-22T04:35:05.932Z</time>
      </trkpt>
      <trkpt lat="42.244284" lon="1.971450">
        <ele>887.583303</ele>
        <time>2022-05-22T04:35:07.932Z</time>
      </trkpt>
      <trkpt lat="42.244296" lon="1.971242">
        <ele>887.404090</ele>
        <time>2022-05-22T04:35:09.930Z</time>
      </trkpt>
      <trkpt lat="42.244291" lon="1.971051">
        <ele>887.314863</ele>
        <time>2022-05-22T04:35:11.923Z</time>
      </trkpt>
      <trkpt lat="42.244290" lon="1.970865">
        <ele>887.228023</ele>
        <time>2022-05-22T04:35:13.949Z</time>
      </trkpt>
      <trkpt lat="42.244296" lon="1.970686">
        <ele>887.144368</ele>
        <time>2022-05-22T04:35:15.939Z</time>
      </trkpt>
      <trkpt lat="42.244265" lon="1.970491">
        <ele>887.051253</ele>
        <time>2022-05-22T04:35:17.932Z</time>
      </trkpt>
      <trkpt lat="42.244219" lon="1.970301">
        <ele>886.957925</ele>
        <time>2022-05-22T04:35:19.927Z</time>
      </trkpt>
      <trkpt lat="42.244182" lon="1.970136">
        <ele>886.877435</ele>
        <time>2022-05-22T04:35:21.927Z</time>
      </trkpt>
      <trkpt lat="42.244106" lon="1.969977">
        <ele>886.789074</ele>
        <time>2022-05-22T04:35:23.934Z</time>
      </trkpt>
      <trkpt lat="42.244004" lon="1.969872">
        <ele>886.708197</ele>
        <time>2022-05-22T04:35:25.932Z</time>
      </trkpt>
      <trkpt lat="42.243904" lon="1.969782">
        <ele>886.632415</ele>
        <time>2022-05-22T04:35:27.924Z</time>
      </trkpt>
      <trkpt lat="42.243768" lon="1.969733">
        <ele>886.543647</ele>
        <time>2022-05-22T04:35:29.926Z</time>
      </trkpt>
      <trkpt lat="42.243620" lon="1.969756">
        <ele>886.449694</ele>
        <time>2022-05-22T04:35:31.923Z</time>
      </trkpt>
      <trkpt lat="42.243489" lon="1.969809">
        <ele>886.363451</ele>
        <time>2022-05-22T04:35:33.927Z</time>
      </trkpt>
      <trkpt lat="42.243348" lon="1.969860">
        <ele>886.112041</ele>
        <time>2022-05-22T04:35:35.934Z</time>
      </trkpt>
      <trkpt lat="42.243221" lon="1.969899">
        <ele>885.695594</ele>
        <time>2022-05-22T04:35:37.927Z</time>
      </trkpt>
      <trkpt lat="42.243078" lon="1.969939">
        <ele>885.228647</ele>
        <time>2022-05-22T04:35:39.925Z</time>
      </trkpt>
      <trkpt lat="42.242944" lon="1.969998">
        <ele>884.777992</ele>
        <time>2022-05-22T04:35:41.931Z</time>
      </trkpt>
      <trkpt lat="42.242812" lon="1.970069">
        <ele>884.323688</ele>
        <time>2022-05-22T04:35:43.926Z</time>
      </trkpt>
      <trkpt lat="42.242690" lon="1.970090">
        <ele>883.930435</ele>
        <time>2022-05-22T04:35:45.930Z</time>
      </trkpt>
      <trkpt lat="42.242557" lon="1.970051">
        <ele>883.495260</ele>
        <time>2022-05-22T04:35:47.931Z</time>
      </trkpt>
      <trkpt lat="42.242422" lon="1.969995">
        <ele>883.043698</ele>
        <time>2022-05-22T04:35:49.930Z</time>
      </trkpt>
      <trkpt lat="42.242288" lon="1.969893">
        <ele>882.551882</ele>
        <time>2022-05-22T04:35:51.931Z</time>
      </trkpt>
      <trkpt lat="42.242183" lon="1.969755">
        <ele>882.083445</ele>
        <time>2022-05-22T04:35:53.932Z</time>
      </trkpt>
      <trkpt lat="42.242119" lon="1.969659">
        <ele>881.777636</ele>
        <time>2022-05-22T04:35:55.931Z</time>
      </trkpt>
      <trkpt lat="42.242055" lon="1.969525">
        <ele>881.400152</ele>
        <time>2022-05-22T04:37:09.936Z</time>
      </trkpt>
      <trkpt lat="42.242012" lon="1.969393">
        <ele>881.058774</ele>
        <time>2022-05-22T04:37:12.928Z</time>
      </trkpt>
      <trkpt lat="42.241972" lon="1.969282">
        <ele>880.766542</ele>
        <time>2022-05-22T04:37:14.932Z</time>
      </trkpt>
      <trkpt lat="42.241940" lon="1.969151">
        <ele>880.432898</ele>
        <time>2022-05-22T04:37:16.931Z</time>
      </trkpt>
      <trkpt lat="42.241923" lon="1.969006">
        <ele>880.064703</ele>
        <time>2022-05-22T04:37:18.933Z</time>
      </trkpt>
      <trkpt lat="42.241917" lon="1.968844">
        <ele>879.657896</ele>
        <time>2022-05-22T04:37:20.923Z</time>
      </trkpt>
      <trkpt lat="42.241900" lon="1.968668">
        <ele>879.212743</ele>
        <time>2022-05-22T04:37:22.933Z</time>
      </trkpt>
      <trkpt lat="42.241875" lon="1.968490">
        <ele>878.758353</ele>
        <time>2022-05-22T04:37:24.952Z</time>
      </trkpt>
      <trkpt lat="42.241837" lon="1.968306">
        <ele>878.279257</ele>
        <time>2022-05-22T04:37:26.928Z</time>
      </trkpt>
      <trkpt lat="42.241799" lon="1.968134">
        <ele>877.829078</ele>
        <time>2022-05-22T04:37:28.928Z</time>
      </trkpt>
      <trkpt lat="42.241759" lon="1.967968">
        <ele>877.391247</ele>
        <time>2022-05-22T04:37:30.926Z</time>
      </trkpt>
      <trkpt lat="42.241722" lon="1.967800">
        <ele>876.951649</ele>
        <time>2022-05-22T04:37:32.931Z</time>
      </trkpt>
      <trkpt lat="42.241700" lon="1.967634">
        <ele>876.528698</ele>
        <time>2022-05-22T04:37:34.933Z</time>
      </trkpt>
      <trkpt lat="42.241652" lon="1.967477">
        <ele>876.102681</ele>
        <time>2022-05-22T04:37:36.937Z</time>
      </trkpt>
      <trkpt lat="42.241600" lon="1.967317">
        <ele>875.664431</ele>
        <time>2022-05-22T04:37:38.931Z</time>
      </trkpt>
      <trkpt lat="42.241548" lon="1.967160">
        <ele>875.233059</ele>
        <time>2022-05-22T04:37:40.933Z</time>
      </trkpt>
      <trkpt lat="42.241495" lon="1.966994">
        <ele>874.779657</ele>
        <time>2022-05-22T04:37:42.936Z</time>
      </trkpt>
      <trkpt lat="42.241447" lon="1.966827">
        <ele>874.463702</ele>
        <time>2022-05-22T04:37:44.946Z</time>
      </trkpt>
      <trkpt lat="42.241414" lon="1.966661">
        <ele>874.456609</ele>
        <time>2022-05-22T04:37:46.934Z</time>
      </trkpt>
      <trkpt lat="42.241374" lon="1.966504">
        <ele>874.449758</ele>
        <time>2022-05-22T04:37:48.932Z</time>
      </trkpt>
      <trkpt lat="42.241334" lon="1.966348">
        <ele>874.442946</ele>
        <time>2022-05-22T04:37:50.934Z</time>
      </trkpt>
      <trkpt lat="42.241299" lon="1.966182">
        <ele>874.435824</ele>
        <time>2022-05-22T04:37:52.930Z</time>
      </trkpt>
      <trkpt lat="42.241271" lon="1.966021">
        <ele>874.429000</ele>
        <time>2022-05-22T04:37:54.935Z</time>
      </trkpt>
      <trkpt lat="42.241262" lon="1.965846">
        <ele>874.421762</ele>
        <time>2022-05-22T04:37:56.932Z</time>
      </trkpt>
      <trkpt lat="42.241270" lon="1.965675">
        <ele>874.414692</ele>
        <time>2022-05-22T04:37:58.933Z</time>
      </trkpt>
      <trkpt lat="42.241280" lon="1.965515">
        <ele>874.408066</ele>
        <time>2022-05-22T04:38:00.929Z</time>
      </trkpt>
      <trkpt lat="42.241288" lon="1.965338">
        <ele>874.400749</ele>
        <time>2022-05-22T04:38:02.934Z</time>
      </trkpt>
      <trkpt lat="42.241289" lon="1.965156">
        <ele>874.393239</ele>
        <time>2022-05-22T04:38:04.930Z</time>
      </trkpt>
      <trkpt lat="42.241275" lon="1.964979">
        <ele>874.385894</ele>
        <time>2022-05-22T04:38:06.927Z</time>
      </trkpt>
      <trkpt lat="42.241264" lon="1.964812">
        <ele>874.378976</ele>
        <time>2022-05-22T04:38:08.928Z</time>
      </trkpt>
      <trkpt lat="42.241245" lon="1.964651">
        <ele>874.372249</ele>
        <time>2022-05-22T04:38:10.929Z</time>
      </trkpt>
      <trkpt lat="42.241218" lon="1.964492">
        <ele>874.366075</ele>
        <time>2022-05-22T04:38:12.929Z</time>
      </trkpt>
      <trkpt lat="42.241176" lon="1.964342">
        <ele>874.381809</ele>
        <time>2022-05-22T04:38:14.933Z</time>
      </trkpt>
      <trkpt lat="42.241137" lon="1.964209">
        <ele>874.395844</ele>
        <time>2022-05-22T04:38:16.937Z</time>
      </trkpt>
      <trkpt lat="42.241072" lon="1.964083">
        <ele>874.410911</ele>
        <time>2022-05-22T04:38:18.929Z</time>
      </trkpt>
      <trkpt lat="42.240988" lon="1.963961">
        <ele>874.427257</ele>
        <time>2022-05-22T04:38:20.927Z</time>
      </trkpt>
      <trkpt lat="42.240891" lon="1.963843">
        <ele>874.444557</ele>
        <time>2022-05-22T04:38:22.934Z</time>
      </trkpt>
      <trkpt lat="42.240799" lon="1.963727">
        <ele>874.461236</ele>
        <time>2022-05-22T04:38:24.946Z</time>
      </trkpt>
      <trkpt lat="42.240708" lon="1.963610">
        <ele>874.477885</ele>
        <time>2022-05-22T04:38:26.928Z</time>
      </trkpt>
      <trkpt lat="42.240628" lon="1.963486">
        <ele>874.494022</ele>
        <time>2022-05-22T04:38:28.932Z</time>
      </trkpt>
      <trkpt lat="42.240552" lon="1.963367">
        <ele>874.509442</ele>
        <time>2022-05-22T04:38:30.933Z</time>
      </trkpt>
      <trkpt lat="42.240468" lon="1.963252">
        <ele>874.525292</ele>
        <time>2022-05-22T04:38:32.932Z</time>
      </trkpt>
      <trkpt lat="42.240383" lon="1.963138">
        <ele>874.541166</ele>
        <time>2022-05-22T04:38:34.938Z</time>
      </trkpt>
      <trkpt lat="42.240299" lon="1.963017">
        <ele>874.557440</ele>
        <time>2022-05-22T04:38:36.934Z</time>
      </trkpt>
      <trkpt lat="42.240217" lon="1.962908">
        <ele>874.572687</ele>
        <time>2022-05-22T04:38:38.929Z</time>
      </trkpt>
      <trkpt lat="42.240135" lon="1.962793">
        <ele>874.588352</ele>
        <time>2022-05-22T04:38:40.944Z</time>
      </trkpt>
      <trkpt lat="42.240058" lon="1.962666">
        <ele>874.607051</ele>
        <time>2022-05-22T04:38:42.934Z</time>
      </trkpt>
      <trkpt lat="42.239980" lon="1.962551">
        <ele>874.719057</ele>
        <time>2022-05-22T04:38:44.930Z</time>
      </trkpt>
      <trkpt lat="42.239895" lon="1.962441">
        <ele>874.833244</ele>
        <time>2022-05-22T04:38:46.931Z</time>
      </trkpt>
      <trkpt lat="42.239812" lon="1.962322">
        <ele>874.950656</ele>
        <time>2022-05-22T04:38:48.933Z</time>
      </trkpt>
      <trkpt lat="42.239732" lon="1.962202">
        <ele>875.066625</ele>
        <time>2022-05-22T04:38:50.934Z</time>
      </trkpt>
      <trkpt lat="42.239654" lon="1.962084">
        <ele>875.180229</ele>
        <time>2022-05-22T04:38:52.935Z</time>
      </trkpt>
      <trkpt lat="42.239581" lon="1.961951">
        <ele>875.299129</ele>
        <time>2022-05-22T04:38:54.933Z</time>
      </trkpt>
      <trkpt lat="42.239521" lon="1.961811">
        <ele>875.415301</ele>
        <time>2022-05-22T04:38:56.933Z</time>
      </trkpt>
      <trkpt lat="42.239462" lon="1.961660">
        <ele>875.537918</ele>
        <time>2022-05-22T04:38:58.933Z</time>
      </trkpt>
      <trkpt lat="42.239407" lon="1.961505">
        <ele>875.661357</ele>
        <time>2022-05-22T04:39:00.936Z</time>
      </trkpt>
      <trkpt lat="42.239379" lon="1.961358">
        <ele>875.770363</ele>
        <time>2022-05-22T04:39:02.935Z</time>
      </trkpt>
      <trkpt lat="42.239356" lon="1.961205">
        <ele>875.882483</ele>
        <time>2022-05-22T04:39:04.944Z</time>
      </trkpt>
      <trkpt lat="42.239368" lon="1.961063">
        <ele>875.985123</ele>
        <time>2022-05-22T04:39:06.929Z</time>
      </trkpt>
      <trkpt lat="42.239384" lon="1.960906">
        <ele>876.098936</ele>
        <time>2022-05-22T04:39:08.954Z</time>
      </trkpt>
      <trkpt lat="42.239396" lon="1.960749">
        <ele>876.212285</ele>
        <time>2022-05-22T04:39:10.931Z</time>
      </trkpt>
      <trkpt lat="42.239411" lon="1.960598">
        <ele>876.321698</ele>
        <time>2022-05-22T04:39:12.924Z</time>
      </trkpt>
      <trkpt lat="42.239430" lon="1.960447">
        <ele>876.515846</ele>
        <time>2022-05-22T04:39:14.924Z</time>
      </trkpt>
      <trkpt lat="42.239447" lon="1.960290">
        <ele>876.745447</ele>
        <time>2022-05-22T04:39:16.928Z</time>
      </trkpt>
      <trkpt lat="42.239486" lon="1.960152">
        <ele>876.959191</ele>
        <time>2022-05-22T04:39:18.923Z</time>
      </trkpt>
      <trkpt lat="42.239564" lon="1.960046">
        <ele>877.175453</ele>
        <time>2022-05-22T04:39:20.920Z</time>
      </trkpt>
      <trkpt lat="42.239681" lon="1.959979">
        <ele>877.423837</ele>
        <time>2022-05-22T04:39:22.930Z</time>
      </trkpt>
      <trkpt lat="42.239787" lon="1.959928">
        <ele>877.643769</ele>
        <time>2022-05-22T04:39:24.928Z</time>
      </trkpt>
      <trkpt lat="42.239874" lon="1.959835">
        <ele>877.860622</ele>
        <time>2022-05-22T04:39:26.925Z</time>
      </trkpt>
      <trkpt lat="42.239908" lon="1.959692">
        <ele>878.077955</ele>
        <time>2022-05-22T04:39:28.936Z</time>
      </trkpt>
      <trkpt lat="42.239858" lon="1.959551">
        <ele>878.304182</ele>
        <time>2022-05-22T04:39:30.942Z</time>
      </trkpt>
      <trkpt lat="42.239758" lon="1.959480">
        <ele>878.524993</ele>
        <time>2022-05-22T04:39:32.955Z</time>
      </trkpt>
      <trkpt lat="42.239653" lon="1.959434">
        <ele>878.740745</ele>
        <time>2022-05-22T04:39:34.943Z</time>
      </trkpt>
      <trkpt lat="42.239550" lon="1.959376">
        <ele>878.958856</ele>
        <time>2022-05-22T04:39:36.976Z</time>
      </trkpt>
      <trkpt lat="42.239465" lon="1.959256">
        <ele>879.199175</ele>
        <time>2022-05-22T04:39:38.982Z</time>
      </trkpt>
      <trkpt lat="42.239399" lon="1.959118">
        <ele>879.436909</ele>
        <time>2022-05-22T04:39:40.981Z</time>
      </trkpt>
      <trkpt lat="42.239351" lon="1.958973">
        <ele>879.666748</ele>
        <time>2022-05-22T04:39:42.925Z</time>
      </trkpt>
      <trkpt lat="42.239313" lon="1.958818">
        <ele>879.872914</ele>
        <time>2022-05-22T04:39:44.943Z</time>
      </trkpt>
      <trkpt lat="42.239271" lon="1.958643">
        <ele>879.932127</ele>
        <time>2022-05-22T04:39:46.937Z</time>
      </trkpt>
      <trkpt lat="42.239250" lon="1.958477">
        <ele>879.986332</ele>
        <time>2022-05-22T04:39:48.948Z</time>
      </trkpt>
      <trkpt lat="42.239233" lon="1.958305">
        <ele>880.042184</ele>
        <time>2022-05-22T04:39:50.926Z</time>
      </trkpt>
      <trkpt lat="42.239223" lon="1.958128">
        <ele>880.099321</ele>
        <time>2022-05-22T04:39:52.943Z</time>
      </trkpt>
      <trkpt lat="42.239209" lon="1.957963">
        <ele>880.152777</ele>
        <time>2022-05-22T04:39:54.927Z</time>
      </trkpt>
      <trkpt lat="42.239193" lon="1.957798">
        <ele>880.206339</ele>
        <time>2022-05-22T04:39:56.924Z</time>
      </trkpt>
      <trkpt lat="42.239196" lon="1.957631">
        <ele>880.260107</ele>
        <time>2022-05-22T04:39:58.939Z</time>
      </trkpt>
      <trkpt lat="42.239190" lon="1.957467">
        <ele>880.312958</ele>
        <time>2022-05-22T04:40:00.934Z</time>
      </trkpt>
      <trkpt lat="42.239184" lon="1.957298">
        <ele>880.367417</ele>
        <time>2022-05-22T04:40:02.938Z</time>
      </trkpt>
      <trkpt lat="42.239177" lon="1.957126">
        <ele>880.422862</ele>
        <time>2022-05-22T04:40:04.923Z</time>
      </trkpt>
      <trkpt lat="42.239168" lon="1.956956">
        <ele>880.477719</ele>
        <time>2022-05-22T04:40:06.921Z</time>
      </trkpt>
      <trkpt lat="42.239163" lon="1.956798">
        <ele>880.528621</ele>
        <time>2022-05-22T04:40:08.945Z</time>
      </trkpt>
      <trkpt lat="42.239156" lon="1.956617">
        <ele>880.586959</ele>
        <time>2022-05-22T04:40:10.959Z</time>
      </trkpt>
      <trkpt lat="42.239147" lon="1.956445">
        <ele>880.642459</ele>
        <time>2022-05-22T04:40:12.937Z</time>
      </trkpt>
      <trkpt lat="42.239136" lon="1.956270">
        <ele>880.500166</ele>
        <time>2022-05-22T04:40:14.936Z</time>
      </trkpt>
      <trkpt lat="42.239127" lon="1.956092">
        <ele>880.340996</ele>
        <time>2022-05-22T04:40:16.943Z</time>
      </trkpt>
      <trkpt lat="42.239118" lon="1.955911">
        <ele>880.179156</ele>
        <time>2022-05-22T04:40:18.932Z</time>
      </trkpt>
      <trkpt lat="42.239114" lon="1.955720">
        <ele>880.008691</ele>
        <time>2022-05-22T04:40:20.935Z</time>
      </trkpt>
      <trkpt lat="42.239115" lon="1.955532">
        <ele>879.840965</ele>
        <time>2022-05-22T04:40:22.944Z</time>
      </trkpt>
      <trkpt lat="42.239103" lon="1.955349">
        <ele>879.677065</ele>
        <time>2022-05-22T04:40:24.934Z</time>
      </trkpt>
      <trkpt lat="42.239096" lon="1.955165">
        <ele>879.512696</ele>
        <time>2022-05-22T04:40:26.932Z</time>
      </trkpt>
      <trkpt lat="42.239084" lon="1.954984">
        <ele>879.350574</ele>
        <time>2022-05-22T04:40:28.929Z</time>
      </trkpt>
      <trkpt lat="42.239077" lon="1.954803">
        <ele>879.188877</ele>
        <time>2022-05-22T04:40:30.933Z</time>
      </trkpt>
      <trkpt lat="42.239063" lon="1.954615">
        <ele>879.020310</ele>
        <time>2022-05-22T04:40:32.922Z</time>
      </trkpt>
      <trkpt lat="42.239043" lon="1.954437">
        <ele>878.859691</ele>
        <time>2022-05-22T04:40:34.930Z</time>
      </trkpt>
      <trkpt lat="42.239019" lon="1.954258">
        <ele>878.697402</ele>
        <time>2022-05-22T04:40:36.939Z</time>
      </trkpt>
      <trkpt lat="42.239008" lon="1.954084">
        <ele>878.541605</ele>
        <time>2022-05-22T04:40:38.931Z</time>
      </trkpt>
      <trkpt lat="42.238991" lon="1.953907">
        <ele>878.438778</ele>
        <time>2022-05-22T04:40:40.926Z</time>
      </trkpt>
      <trkpt lat="42.238981" lon="1.953728">
        <ele>878.372243</ele>
        <time>2022-05-22T04:40:42.931Z</time>
      </trkpt>
      <trkpt lat="42.238962" lon="1.953557">
        <ele>878.308151</ele>
        <time>2022-05-22T04:40:44.934Z</time>
      </trkpt>
      <trkpt lat="42.238957" lon="1.953374">
        <ele>878.240276</ele>
        <time>2022-05-22T04:40:46.928Z</time>
      </trkpt>
      <trkpt lat="42.238948" lon="1.953189">
        <ele>878.171557</ele>
        <time>2022-05-22T04:40:48.939Z</time>
      </trkpt>
      <trkpt lat="42.238932" lon="1.953018">
        <ele>878.107671</ele>
        <time>2022-05-22T04:40:50.938Z</time>
      </trkpt>
      <trkpt lat="42.238922" lon="1.952834">
        <ele>878.039287</ele>
        <time>2022-05-22T04:40:52.923Z</time>
      </trkpt>
      <trkpt lat="42.238913" lon="1.952650">
        <ele>877.970939</ele>
        <time>2022-05-22T04:40:54.924Z</time>
      </trkpt>
      <trkpt lat="42.238900" lon="1.952471">
        <ele>877.904273</ele>
        <time>2022-05-22T04:40:56.950Z</time>
      </trkpt>
      <trkpt lat="42.238894" lon="1.952299">
        <ele>877.840450</ele>
        <time>2022-05-22T04:40:58.934Z</time>
      </trkpt>
      <trkpt lat="42.238885" lon="1.952124">
        <ele>877.775429</ele>
        <time>2022-05-22T04:41:00.934Z</time>
      </trkpt>
      <trkpt lat="42.238879" lon="1.951951">
        <ele>877.711236</ele>
        <time>2022-05-22T04:41:02.958Z</time>
      </trkpt>
      <trkpt lat="42.238868" lon="1.951788">
        <ele>877.650569</ele>
        <time>2022-05-22T04:41:04.940Z</time>
      </trkpt>
      <trkpt lat="42.238866" lon="1.951617">
        <ele>877.587179</ele>
        <time>2022-05-22T04:41:06.952Z</time>
      </trkpt>
      <trkpt lat="42.238864" lon="1.951449">
        <ele>877.471546</ele>
        <time>2022-05-22T04:41:08.965Z</time>
      </trkpt>
      <trkpt lat="42.238853" lon="1.951275">
        <ele>877.342242</ele>
        <time>2022-05-22T04:41:10.943Z</time>
      </trkpt>
      <trkpt lat="42.238847" lon="1.951095">
        <ele>877.208829</ele>
        <time>2022-05-22T04:41:12.934Z</time>
      </trkpt>
      <trkpt lat="42.238834" lon="1.950924">
        <ele>877.081549</ele>
        <time>2022-05-22T04:41:14.937Z</time>
      </trkpt>
      <trkpt lat="42.238825" lon="1.950749">
        <ele>876.951661</ele>
        <time>2022-05-22T04:41:16.957Z</time>
      </trkpt>
      <trkpt lat="42.238814" lon="1.950588">
        <ele>876.831945</ele>
        <time>2022-05-22T04:41:18.938Z</time>
      </trkpt>
      <trkpt lat="42.238800" lon="1.950419">
        <ele>876.706031</ele>
        <time>2022-05-22T04:41:20.930Z</time>
      </trkpt>
      <trkpt lat="42.238789" lon="1.950243">
        <ele>876.575251</ele>
        <time>2022-05-22T04:41:22.931Z</time>
      </trkpt>
      <trkpt lat="42.238772" lon="1.950063">
        <ele>876.440893</ele>
        <time>2022-05-22T04:41:24.928Z</time>
      </trkpt>
      <trkpt lat="42.238767" lon="1.949870">
        <ele>876.297901</ele>
        <time>2022-05-22T04:41:26.952Z</time>
      </trkpt>
      <trkpt lat="42.238752" lon="1.949687">
        <ele>876.161574</ele>
        <time>2022-05-22T04:41:28.917Z</time>
      </trkpt>
      <trkpt lat="42.238739" lon="1.949504">
        <ele>876.025452</ele>
        <time>2022-05-22T04:41:30.934Z</time>
      </trkpt>
      <trkpt lat="42.238739" lon="1.949338">
        <ele>875.902540</ele>
        <time>2022-05-22T04:41:32.930Z</time>
      </trkpt>
      <trkpt lat="42.238731" lon="1.949167">
        <ele>875.777220</ele>
        <time>2022-05-22T04:41:34.942Z</time>
      </trkpt>
      <trkpt lat="42.238732" lon="1.948992">
        <ele>875.699559</ele>
        <time>2022-05-22T04:41:36.948Z</time>
      </trkpt>
      <trkpt lat="42.238756" lon="1.948809">
        <ele>875.617085</ele>
        <time>2022-05-22T04:41:38.930Z</time>
      </trkpt>
      <trkpt lat="42.238796" lon="1.948624">
        <ele>875.531558</ele>
        <time>2022-05-22T04:41:40.943Z</time>
      </trkpt>
      <trkpt lat="42.238857" lon="1.948455">
        <ele>875.448123</ele>
        <time>2022-05-22T04:41:42.944Z</time>
      </trkpt>
      <trkpt lat="42.238920" lon="1.948294">
        <ele>875.367311</ele>
        <time>2022-05-22T04:41:44.932Z</time>
      </trkpt>
      <trkpt lat="42.238995" lon="1.948132">
        <ele>875.282522</ele>
        <time>2022-05-22T04:41:46.940Z</time>
      </trkpt>
      <trkpt lat="42.239068" lon="1.947966">
        <ele>875.196841</ele>
        <time>2022-05-22T04:41:48.935Z</time>
      </trkpt>
      <trkpt lat="42.239131" lon="1.947802">
        <ele>875.114850</ele>
        <time>2022-05-22T04:41:50.937Z</time>
      </trkpt>
      <trkpt lat="42.239201" lon="1.947640">
        <ele>875.031611</ele>
        <time>2022-05-22T04:41:52.926Z</time>
      </trkpt>
      <trkpt lat="42.239276" lon="1.947482">
        <ele>874.948322</ele>
        <time>2022-05-22T04:41:54.925Z</time>
      </trkpt>
      <trkpt lat="42.239349" lon="1.947333">
        <ele>874.869034</ele>
        <time>2022-05-22T04:41:56.932Z</time>
      </trkpt>
      <trkpt lat="42.239401" lon="1.947179">
        <ele>874.793922</ele>
        <time>2022-05-22T04:41:58.921Z</time>
      </trkpt>
      <trkpt lat="42.239421" lon="1.946996">
        <ele>874.711834</ele>
        <time>2022-05-22T04:42:00.933Z</time>
      </trkpt>
      <trkpt lat="42.239411" lon="1.946815">
        <ele>874.473956</ele>
        <time>2022-05-22T04:42:02.934Z</time>
      </trkpt>
      <trkpt lat="42.239392" lon="1.946627">
        <ele>874.200862</ele>
        <time>2022-05-22T04:42:04.934Z</time>
      </trkpt>
      <trkpt lat="42.239370" lon="1.946429">
        <ele>873.912693</ele>
        <time>2022-05-22T04:42:06.938Z</time>
      </trkpt>
      <trkpt lat="42.239348" lon="1.946227">
        <ele>873.618830</ele>
        <time>2022-05-22T04:42:08.931Z</time>
      </trkpt>
      <trkpt lat="42.239313" lon="1.946037">
        <ele>873.337029</ele>
        <time>2022-05-22T04:42:10.934Z</time>
      </trkpt>
      <trkpt lat="42.239287" lon="1.945843">
        <ele>873.053271</ele>
        <time>2022-05-22T04:42:12.952Z</time>
      </trkpt>
      <trkpt lat="42.239259" lon="1.945658">
        <ele>872.781497</ele>
        <time>2022-05-22T04:42:14.940Z</time>
      </trkpt>
      <trkpt lat="42.239231" lon="1.945474">
        <ele>872.511133</ele>
        <time>2022-05-22T04:42:16.934Z</time>
      </trkpt>
      <trkpt lat="42.239204" lon="1.945289">
        <ele>872.239741</ele>
        <time>2022-05-22T04:42:18.951Z</time>
      </trkpt>
      <trkpt lat="42.239173" lon="1.945108">
        <ele>871.972351</ele>
        <time>2022-05-22T04:42:20.933Z</time>
      </trkpt>
      <trkpt lat="42.239136" lon="1.944914">
        <ele>871.684014</ele>
        <time>2022-05-22T04:42:22.930Z</time>
      </trkpt>
      <trkpt lat="42.239109" lon="1.944729">
        <ele>871.412622</ele>
        <time>2022-05-22T04:42:24.925Z</time>
      </trkpt>
      <trkpt lat="42.239085" lon="1.944569">
        <ele>871.202740</ele>
        <time>2022-05-22T04:42:26.926Z</time>
      </trkpt>
      <trkpt lat="42.239065" lon="1.944398">
        <ele>871.184385</ele>
        <time>2022-05-22T04:42:28.925Z</time>
      </trkpt>
      <trkpt lat="42.239044" lon="1.944215">
        <ele>871.164750</ele>
        <time>2022-05-22T04:42:30.941Z</time>
      </trkpt>
      <trkpt lat="42.239007" lon="1.944016">
        <ele>871.142995</ele>
        <time>2022-05-22T04:42:32.939Z</time>
      </trkpt>
      <trkpt lat="42.238979" lon="1.943818">
        <ele>871.121622</ele>
        <time>2022-05-22T04:42:34.930Z</time>
      </trkpt>
      <trkpt lat="42.238962" lon="1.943627">
        <ele>871.101225</ele>
        <time>2022-05-22T04:42:36.931Z</time>
      </trkpt>
      <trkpt lat="42.238965" lon="1.943422">
        <ele>871.079485</ele>
        <time>2022-05-22T04:42:38.932Z</time>
      </trkpt>
      <trkpt lat="42.238975" lon="1.943250">
        <ele>871.061192</ele>
        <time>2022-05-22T04:42:40.926Z</time>
      </trkpt>
      <trkpt lat="42.239004" lon="1.943084">
        <ele>871.043108</ele>
        <time>2022-05-22T04:42:42.931Z</time>
      </trkpt>
      <trkpt lat="42.239033" lon="1.942915">
        <ele>871.024715</ele>
        <time>2022-05-22T04:42:44.925Z</time>
      </trkpt>
      <trkpt lat="42.239066" lon="1.942747">
        <ele>871.006286</ele>
        <time>2022-05-22T04:42:46.932Z</time>
      </trkpt>
      <trkpt lat="42.239101" lon="1.942569">
        <ele>870.986759</ele>
        <time>2022-05-22T04:42:48.933Z</time>
      </trkpt>
      <trkpt lat="42.239135" lon="1.942387">
        <ele>870.966857</ele>
        <time>2022-05-22T04:42:50.929Z</time>
      </trkpt>
      <trkpt lat="42.239173" lon="1.942211">
        <ele>870.947419</ele>
        <time>2022-05-22T04:42:52.931Z</time>
      </trkpt>
      <trkpt lat="42.239206" lon="1.942031">
        <ele>870.921958</ele>
        <time>2022-05-22T04:42:54.932Z</time>
      </trkpt>
      <trkpt lat="42.239244" lon="1.941864">
        <ele>870.897894</ele>
        <time>2022-05-22T04:42:56.925Z</time>
      </trkpt>
      <trkpt lat="42.239268" lon="1.941683">
        <ele>870.872566</ele>
        <time>2022-05-22T04:42:58.931Z</time>
      </trkpt>
      <trkpt lat="42.239283" lon="1.941491">
        <ele>870.845973</ele>
        <time>2022-05-22T04:43:00.934Z</time>
      </trkpt>
      <trkpt lat="42.239296" lon="1.941310">
        <ele>870.820925</ele>
        <time>2022-05-22T04:43:02.934Z</time>
      </trkpt>
      <trkpt lat="42.239306" lon="1.941123">
        <ele>870.795101</ele>
        <time>2022-05-22T04:43:04.930Z</time>
      </trkpt>
      <trkpt lat="42.239315" lon="1.940955">
        <ele>870.771900</ele>
        <time>2022-05-22T04:43:06.931Z</time>
      </trkpt>
      <trkpt lat="42.239328" lon="1.940786">
        <ele>870.748496</ele>
        <time>2022-05-22T04:43:08.949Z</time>
      </trkpt>
      <trkpt lat="42.239342" lon="1.940611">
        <ele>870.724251</ele>
        <time>2022-05-22T04:43:10.934Z</time>
      </trkpt>
      <trkpt lat="42.239357" lon="1.940432">
        <ele>870.699439</ele>
        <time>2022-05-22T04:43:12.934Z</time>
      </trkpt>
      <trkpt lat="42.239366" lon="1.940251">
        <ele>870.674451</ele>
        <time>2022-05-22T04:43:14.924Z</time>
      </trkpt>
      <trkpt lat="42.239379" lon="1.940087">
        <ele>870.651733</ele>
        <time>2022-05-22T04:43:16.925Z</time>
      </trkpt>
      <trkpt lat="42.239389" lon="1.939913">
        <ele>870.627694</ele>
        <time>2022-05-22T04:43:18.932Z</time>
      </trkpt>
      <trkpt lat="42.239404" lon="1.939742">
        <ele>870.471924</ele>
        <time>2022-05-22T04:43:20.938Z</time>
      </trkpt>
      <trkpt lat="42.239433" lon="1.939564">
        <ele>870.058359</ele>
        <time>2022-05-22T04:43:22.925Z</time>
      </trkpt>
      <trkpt lat="42.239475" lon="1.939401">
        <ele>869.666733</ele>
        <time>2022-05-22T04:43:24.922Z</time>
      </trkpt>
      <trkpt lat="42.239517" lon="1.939238">
        <ele>869.275108</ele>
        <time>2022-05-22T04:43:26.937Z</time>
      </trkpt>
      <trkpt lat="42.239565" lon="1.939080">
        <ele>868.887578</ele>
        <time>2022-05-22T04:43:28.926Z</time>
      </trkpt>
      <trkpt lat="42.239614" lon="1.938925">
        <ele>868.505145</ele>
        <time>2022-05-22T04:43:30.924Z</time>
      </trkpt>
      <trkpt lat="42.239674" lon="1.938779">
        <ele>868.126238</ele>
        <time>2022-05-22T04:43:32.938Z</time>
      </trkpt>
      <trkpt lat="42.239741" lon="1.938643">
        <ele>867.755561</ele>
        <time>2022-05-22T04:43:34.940Z</time>
      </trkpt>
      <trkpt lat="42.239821" lon="1.938505">
        <ele>867.357849</ele>
        <time>2022-05-22T04:43:36.925Z</time>
      </trkpt>
      <trkpt lat="42.239906" lon="1.938374">
        <ele>866.962591</ele>
        <time>2022-05-22T04:43:38.953Z</time>
      </trkpt>
      <trkpt lat="42.239996" lon="1.938240">
        <ele>866.552052</ele>
        <time>2022-05-22T04:43:40.937Z</time>
      </trkpt>
      <trkpt lat="42.240101" lon="1.938116">
        <ele>866.124577</ele>
        <time>2022-05-22T04:43:42.945Z</time>
      </trkpt>
      <trkpt lat="42.240195" lon="1.938008">
        <ele>865.746346</ele>
        <time>2022-05-22T04:43:44.930Z</time>
      </trkpt>
      <trkpt lat="42.240304" lon="1.937897">
        <ele>865.327960</ele>
        <time>2022-05-22T04:43:46.935Z</time>
      </trkpt>
      <trkpt lat="42.240416" lon="1.937780">
        <ele>864.895020</ele>
        <time>2022-05-22T04:43:48.933Z</time>
      </trkpt>
      <trkpt lat="42.240526" lon="1.937671">
        <ele>864.478949</ele>
        <time>2022-05-22T04:43:50.938Z</time>
      </trkpt>
      <trkpt lat="42.240631" lon="1.937574">
        <ele>864.090987</ele>
        <time>2022-05-22T04:43:52.924Z</time>
      </trkpt>
      <trkpt lat="42.240725" lon="1.937461">
        <ele>863.707213</ele>
        <time>2022-05-22T04:43:54.925Z</time>
      </trkpt>
      <trkpt lat="42.240816" lon="1.937331">
        <ele>863.303258</ele>
        <time>2022-05-22T04:43:56.937Z</time>
      </trkpt>
      <trkpt lat="42.240896" lon="1.937197">
        <ele>862.914585</ele>
        <time>2022-05-22T04:43:58.918Z</time>
      </trkpt>
      <trkpt lat="42.240966" lon="1.937040">
        <ele>862.500780</ele>
        <time>2022-05-22T04:44:00.928Z</time>
      </trkpt>
      <trkpt lat="42.241026" lon="1.936871">
        <ele>862.077595</ele>
        <time>2022-05-22T04:44:02.940Z</time>
      </trkpt>
      <trkpt lat="42.241073" lon="1.936703">
        <ele>861.672096</ele>
        <time>2022-05-22T04:44:04.925Z</time>
      </trkpt>
      <trkpt lat="42.241099" lon="1.936543">
        <ele>861.302240</ele>
        <time>2022-05-22T04:44:06.923Z</time>
      </trkpt>
      <trkpt lat="42.241116" lon="1.936374">
        <ele>860.917158</ele>
        <time>2022-05-22T04:44:08.927Z</time>
      </trkpt>
      <trkpt lat="42.241130" lon="1.936222">
        <ele>860.571319</ele>
        <time>2022-05-22T04:44:10.923Z</time>
      </trkpt>
      <trkpt lat="42.241150" lon="1.936066">
        <ele>860.213853</ele>
        <time>2022-05-22T04:44:12.942Z</time>
      </trkpt>
      <trkpt lat="42.241160" lon="1.935907">
        <ele>859.853563</ele>
        <time>2022-05-22T04:44:14.964Z</time>
      </trkpt>
      <trkpt lat="42.241171" lon="1.935743">
        <ele>859.609003</ele>
        <time>2022-05-22T04:44:16.933Z</time>
      </trkpt>
      <trkpt lat="42.241197" lon="1.935596">
        <ele>859.595521</ele>
        <time>2022-05-22T04:44:18.960Z</time>
      </trkpt>
      <trkpt lat="42.241222" lon="1.935432">
        <ele>859.580584</ele>
        <time>2022-05-22T04:44:20.944Z</time>
      </trkpt>
      <trkpt lat="42.241236" lon="1.935260">
        <ele>859.565148</ele>
        <time>2022-05-22T04:44:22.946Z</time>
      </trkpt>
      <trkpt lat="42.241248" lon="1.935089">
        <ele>859.549825</ele>
        <time>2022-05-22T04:44:24.929Z</time>
      </trkpt>
      <trkpt lat="42.241268" lon="1.934920">
        <ele>859.534557</ele>
        <time>2022-05-22T04:44:26.940Z</time>
      </trkpt>
      <trkpt lat="42.241275" lon="1.934752">
        <ele>859.519547</ele>
        <time>2022-05-22T04:44:28.947Z</time>
      </trkpt>
      <trkpt lat="42.241253" lon="1.934595">
        <ele>859.505293</ele>
        <time>2022-05-22T04:44:30.930Z</time>
      </trkpt>
      <trkpt lat="42.241229" lon="1.934445">
        <ele>859.491603</ele>
        <time>2022-05-22T04:44:32.921Z</time>
      </trkpt>
      <trkpt lat="42.241191" lon="1.934307">
        <ele>859.478468</ele>
        <time>2022-05-22T04:44:34.926Z</time>
      </trkpt>
      <trkpt lat="42.241130" lon="1.934160">
        <ele>859.463435</ele>
        <time>2022-05-22T04:44:37.035Z</time>
      </trkpt>
      <trkpt lat="42.241067" lon="1.934028">
        <ele>859.449425</ele>
        <time>2022-05-22T04:44:38.942Z</time>
      </trkpt>
      <trkpt lat="42.241012" lon="1.933890">
        <ele>859.435443</ele>
        <time>2022-05-22T04:44:40.921Z</time>
      </trkpt>
      <trkpt lat="42.240927" lon="1.933768">
        <ele>859.420498</ele>
        <time>2022-05-22T04:44:42.925Z</time>
      </trkpt>
      <trkpt lat="42.240824" lon="1.933689">
        <ele>859.406226</ele>
        <time>2022-05-22T04:44:44.938Z</time>
      </trkpt>
      <trkpt lat="42.240720" lon="1.933592">
        <ele>859.396407</ele>
        <time>2022-05-22T04:44:46.928Z</time>
      </trkpt>
      <trkpt lat="42.240617" lon="1.933503">
        <ele>859.393922</ele>
        <time>2022-05-22T04:44:48.933Z</time>
      </trkpt>
      <trkpt lat="42.240507" lon="1.933423">
        <ele>859.391384</ele>
        <time>2022-05-22T04:44:50.944Z</time>
      </trkpt>
      <trkpt lat="42.240395" lon="1.933368">
        <ele>859.388962</ele>
        <time>2022-05-22T04:44:52.932Z</time>
      </trkpt>
      <trkpt lat="42.240285" lon="1.933298">
        <ele>859.386491</ele>
        <time>2022-05-22T04:44:54.928Z</time>
      </trkpt>
      <trkpt lat="42.240177" lon="1.933225">
        <ele>859.384037</ele>
        <time>2022-05-22T04:44:56.938Z</time>
      </trkpt>
      <trkpt lat="42.240072" lon="1.933147">
        <ele>859.381602</ele>
        <time>2022-05-22T04:44:58.932Z</time>
      </trkpt>
      <trkpt lat="42.239965" lon="1.933053">
        <ele>859.379008</ele>
        <time>2022-05-22T04:45:01.018Z</time>
      </trkpt>
      <trkpt lat="42.239871" lon="1.932929">
        <ele>859.376338</ele>
        <time>2022-05-22T04:45:02.930Z</time>
      </trkpt>
      <trkpt lat="42.239781" lon="1.932781">
        <ele>859.373457</ele>
        <time>2022-05-22T04:45:04.926Z</time>
      </trkpt>
      <trkpt lat="42.239696" lon="1.932620">
        <ele>859.370482</ele>
        <time>2022-05-22T04:45:06.925Z</time>
      </trkpt>
      <trkpt lat="42.239629" lon="1.932456">
        <ele>859.367664</ele>
        <time>2022-05-22T04:45:08.928Z</time>
      </trkpt>
      <trkpt lat="42.239582" lon="1.932304">
        <ele>859.365186</ele>
        <time>2022-05-22T04:45:10.925Z</time>
      </trkpt>
      <trkpt lat="42.239540" lon="1.932156">
        <ele>859.362802</ele>
        <time>2022-05-22T04:45:12.923Z</time>
      </trkpt>
      <trkpt lat="42.239513" lon="1.932007">
        <ele>859.312039</ele>
        <time>2022-05-22T04:45:14.979Z</time>
      </trkpt>
      <trkpt lat="42.239503" lon="1.931867">
        <ele>859.087581</ele>
        <time>2022-05-22T04:45:16.922Z</time>
      </trkpt>
      <trkpt lat="42.239509" lon="1.931706">
        <ele>858.830321</ele>
        <time>2022-05-22T04:45:18.925Z</time>
      </trkpt>
      <trkpt lat="42.239520" lon="1.931537">
        <ele>858.559580</ele>
        <time>2022-05-22T04:45:20.930Z</time>
      </trkpt>
      <trkpt lat="42.239521" lon="1.931368">
        <ele>858.289870</ele>
        <time>2022-05-22T04:45:22.928Z</time>
      </trkpt>
      <trkpt lat="42.239523" lon="1.931220">
        <ele>858.053643</ele>
        <time>2022-05-22T04:45:24.936Z</time>
      </trkpt>
      <trkpt lat="42.239531" lon="1.931069">
        <ele>857.812052</ele>
        <time>2022-05-22T04:45:26.936Z</time>
      </trkpt>
      <trkpt lat="42.239523" lon="1.930915">
        <ele>857.565684</ele>
        <time>2022-05-22T04:45:28.933Z</time>
      </trkpt>
      <trkpt lat="42.239521" lon="1.930761">
        <ele>857.319884</ele>
        <time>2022-05-22T04:45:30.939Z</time>
      </trkpt>
      <trkpt lat="42.239526" lon="1.930592">
        <ele>857.049967</ele>
        <time>2022-05-22T04:45:32.935Z</time>
      </trkpt>
      <trkpt lat="42.239518" lon="1.930429">
        <ele>856.789271</ele>
        <time>2022-05-22T04:45:34.915Z</time>
      </trkpt>
      <trkpt lat="42.239508" lon="1.930261">
        <ele>856.520300</ele>
        <time>2022-05-22T04:45:36.933Z</time>
      </trkpt>
      <trkpt lat="42.239512" lon="1.930090">
        <ele>856.247272</ele>
        <time>2022-05-22T04:45:38.926Z</time>
      </trkpt>
      <trkpt lat="42.239514" lon="1.929921">
        <ele>855.977536</ele>
        <time>2022-05-22T04:45:40.930Z</time>
      </trkpt>
      <trkpt lat="42.239527" lon="1.929741">
        <ele>855.688917</ele>
        <time>2022-05-22T04:45:42.931Z</time>
      </trkpt>
      <trkpt lat="42.239532" lon="1.929572">
        <ele>855.370465</ele>
        <time>2022-05-22T04:45:44.930Z</time>
      </trkpt>
      <trkpt lat="42.239545" lon="1.929395">
        <ele>854.874120</ele>
        <time>2022-05-22T04:45:46.931Z</time>
      </trkpt>
      <trkpt lat="42.239523" lon="1.929203">
        <ele>854.331964</ele>
        <time>2022-05-22T04:45:48.923Z</time>
      </trkpt>
      <trkpt lat="42.239521" lon="1.929008">
        <ele>853.787763</ele>
        <time>2022-05-22T04:45:50.931Z</time>
      </trkpt>
      <trkpt lat="42.239507" lon="1.928823">
        <ele>853.268829</ele>
        <time>2022-05-22T04:45:52.933Z</time>
      </trkpt>
      <trkpt lat="42.239502" lon="1.928637">
        <ele>852.749452</ele>
        <time>2022-05-22T04:45:54.941Z</time>
      </trkpt>
      <trkpt lat="42.239500" lon="1.928453">
        <ele>852.235943</ele>
        <time>2022-05-22T04:45:56.939Z</time>
      </trkpt>
      <trkpt lat="42.239496" lon="1.928259">
        <ele>851.694375</ele>
        <time>2022-05-22T04:45:58.940Z</time>
      </trkpt>
      <trkpt lat="42.239503" lon="1.928060">
        <ele>851.138437</ele>
        <time>2022-05-22T04:46:00.935Z</time>
      </trkpt>
      <trkpt lat="42.239503" lon="1.927870">
        <ele>850.608240</ele>
        <time>2022-05-22T04:46:02.937Z</time>
      </trkpt>
      <trkpt lat="42.239507" lon="1.927685">
        <ele>850.091776</ele>
        <time>2022-05-22T04:46:04.944Z</time>
      </trkpt>
      <trkpt lat="42.239507" lon="1.927511">
        <ele>849.606228</ele>
        <time>2022-05-22T04:46:06.938Z</time>
      </trkpt>
      <trkpt lat="42.239503" lon="1.927320">
        <ele>849.073027</ele>
        <time>2022-05-22T04:46:08.944Z</time>
      </trkpt>
      <trkpt lat="42.239502" lon="1.927121">
        <ele>848.606749</ele>
        <time>2022-05-22T04:46:10.939Z</time>
      </trkpt>
      <trkpt lat="42.239480" lon="1.926941">
        <ele>848.340525</ele>
        <time>2022-05-22T04:46:12.934Z</time>
      </trkpt>
      <trkpt lat="42.239441" lon="1.926761">
        <ele>848.066840</ele>
        <time>2022-05-22T04:46:14.932Z</time>
      </trkpt>
      <trkpt lat="42.239407" lon="1.926576">
        <ele>847.788681</ele>
        <time>2022-05-22T04:46:16.937Z</time>
      </trkpt>
      <trkpt lat="42.239388" lon="1.926394">
        <ele>847.520467</ele>
        <time>2022-05-22T04:46:18.944Z</time>
      </trkpt>
      <trkpt lat="42.239366" lon="1.926217">
        <ele>847.258561</ele>
        <time>2022-05-22T04:46:20.937Z</time>
      </trkpt>
      <trkpt lat="42.239341" lon="1.926052">
        <ele>847.012791</ele>
        <time>2022-05-22T04:46:22.939Z</time>
      </trkpt>
      <trkpt lat="42.239308" lon="1.925881">
        <ele>846.754918</ele>
        <time>2022-05-22T04:46:24.934Z</time>
      </trkpt>
      <trkpt lat="42.239291" lon="1.925704">
        <ele>846.494462</ele>
        <time>2022-05-22T04:46:26.937Z</time>
      </trkpt>
      <trkpt lat="42.239282" lon="1.925523">
        <ele>846.229739</ele>
        <time>2022-05-22T04:46:28.931Z</time>
      </trkpt>
      <trkpt lat="42.239266" lon="1.925340">
        <ele>845.960836</ele>
        <time>2022-05-22T04:46:30.933Z</time>
      </trkpt>
      <trkpt lat="42.239249" lon="1.925172">
        <ele>845.713399</ele>
        <time>2022-05-22T04:46:32.936Z</time>
      </trkpt>
      <trkpt lat="42.239252" lon="1.924993">
        <ele>845.452122</ele>
        <time>2022-05-22T04:46:34.932Z</time>
      </trkpt>
      <trkpt lat="42.239256" lon="1.924802">
        <ele>845.173290</ele>
        <time>2022-05-22T04:46:36.938Z</time>
      </trkpt>
      <trkpt lat="42.239245" lon="1.924623">
        <ele>844.880194</ele>
        <time>2022-05-22T04:46:38.928Z</time>
      </trkpt>
      <trkpt lat="42.239272" lon="1.924454">
        <ele>844.596365</ele>
        <time>2022-05-22T04:46:40.928Z</time>
      </trkpt>
      <trkpt lat="42.239313" lon="1.924280">
        <ele>844.296595</ele>
        <time>2022-05-22T04:46:42.933Z</time>
      </trkpt>
      <trkpt lat="42.239342" lon="1.924081">
        <ele>843.963634</ele>
        <time>2022-05-22T04:46:44.932Z</time>
      </trkpt>
      <trkpt lat="42.239352" lon="1.923861">
        <ele>843.601786</ele>
        <time>2022-05-22T04:46:46.933Z</time>
      </trkpt>
      <trkpt lat="42.239355" lon="1.923650">
        <ele>843.255330</ele>
        <time>2022-05-22T04:46:48.923Z</time>
      </trkpt>
      <trkpt lat="42.239353" lon="1.923436">
        <ele>842.903985</ele>
        <time>2022-05-22T04:46:50.932Z</time>
      </trkpt>
      <trkpt lat="42.239347" lon="1.923228">
        <ele>842.562259</ele>
        <time>2022-05-22T04:46:52.931Z</time>
      </trkpt>
      <trkpt lat="42.239332" lon="1.923011">
        <ele>842.204467</ele>
        <time>2022-05-22T04:46:54.931Z</time>
      </trkpt>
      <trkpt lat="42.239319" lon="1.922811">
        <ele>841.874870</ele>
        <time>2022-05-22T04:46:56.931Z</time>
      </trkpt>
      <trkpt lat="42.239299" lon="1.922603">
        <ele>841.530535</ele>
        <time>2022-05-22T04:46:58.920Z</time>
      </trkpt>
      <trkpt lat="42.239254" lon="1.922386">
        <ele>841.164625</ele>
        <time>2022-05-22T04:47:00.936Z</time>
      </trkpt>
      <trkpt lat="42.239208" lon="1.922171">
        <ele>840.943917</ele>
        <time>2022-05-22T04:47:02.933Z</time>
      </trkpt>
      <trkpt lat="42.239167" lon="1.921963">
        <ele>840.731643</ele>
        <time>2022-05-22T04:47:04.932Z</time>
      </trkpt>
      <trkpt lat="42.239131" lon="1.921762">
        <ele>840.527700</ele>
        <time>2022-05-22T04:47:06.939Z</time>
      </trkpt>
      <trkpt lat="42.239080" lon="1.921559">
        <ele>840.316290</ele>
        <time>2022-05-22T04:47:08.936Z</time>
      </trkpt>
      <trkpt lat="42.239052" lon="1.921356">
        <ele>840.112648</ele>
        <time>2022-05-22T04:47:10.936Z</time>
      </trkpt>
      <trkpt lat="42.239032" lon="1.921145">
        <ele>839.902862</ele>
        <time>2022-05-22T04:47:12.942Z</time>
      </trkpt>
      <trkpt lat="42.238991" lon="1.920939">
        <ele>839.692493</ele>
        <time>2022-05-22T04:47:14.941Z</time>
      </trkpt>
      <trkpt lat="42.238952" lon="1.920738">
        <ele>839.487573</ele>
        <time>2022-05-22T04:47:16.933Z</time>
      </trkpt>
      <trkpt lat="42.238894" lon="1.920541">
        <ele>839.278494</ele>
        <time>2022-05-22T04:47:18.937Z</time>
      </trkpt>
      <trkpt lat="42.238843" lon="1.920347">
        <ele>839.075468</ele>
        <time>2022-05-22T04:47:20.938Z</time>
      </trkpt>
      <trkpt lat="42.238794" lon="1.920147">
        <ele>838.867709</ele>
        <time>2022-05-22T04:47:22.937Z</time>
      </trkpt>
      <trkpt lat="42.238748" lon="1.919945">
        <ele>838.703941</ele>
        <time>2022-05-22T04:47:24.932Z</time>
      </trkpt>
      <trkpt lat="42.238698" lon="1.919730">
        <ele>838.567618</ele>
        <time>2022-05-22T04:47:26.934Z</time>
      </trkpt>
      <trkpt lat="42.238644" lon="1.919527">
        <ele>838.437133</ele>
        <time>2022-05-22T04:47:28.930Z</time>
      </trkpt>
      <trkpt lat="42.238595" lon="1.919327">
        <ele>838.309697</ele>
        <time>2022-05-22T04:47:30.928Z</time>
      </trkpt>
      <trkpt lat="42.238541" lon="1.919120">
        <ele>838.176932</ele>
        <time>2022-05-22T04:47:32.932Z</time>
      </trkpt>
      <trkpt lat="42.238479" lon="1.918915">
        <ele>838.042975</ele>
        <time>2022-05-22T04:47:34.928Z</time>
      </trkpt>
      <trkpt lat="42.238420" lon="1.918723">
        <ele>837.917223</ele>
        <time>2022-05-22T04:47:36.936Z</time>
      </trkpt>
      <trkpt lat="42.238374" lon="1.918517">
        <ele>837.787064</ele>
        <time>2022-05-22T04:47:38.943Z</time>
      </trkpt>
      <trkpt lat="42.238361" lon="1.918300">
        <ele>837.655367</ele>
        <time>2022-05-22T04:47:40.935Z</time>
      </trkpt>
      <trkpt lat="42.238360" lon="1.918085">
        <ele>837.525306</ele>
        <time>2022-05-22T04:47:42.933Z</time>
      </trkpt>
      <trkpt lat="42.238382" lon="1.917869">
        <ele>837.393412</ele>
        <time>2022-05-22T04:47:44.936Z</time>
      </trkpt>
      <trkpt lat="42.238386" lon="1.917662">
        <ele>837.215381</ele>
        <time>2022-05-22T04:47:46.939Z</time>
      </trkpt>
      <trkpt lat="42.238381" lon="1.917462">
        <ele>836.921764</ele>
        <time>2022-05-22T04:47:48.936Z</time>
      </trkpt>
      <trkpt lat="42.238401" lon="1.917250">
        <ele>836.608192</ele>
        <time>2022-05-22T04:47:50.927Z</time>
      </trkpt>
      <trkpt lat="42.238410" lon="1.917034">
        <ele>836.290766</ele>
        <time>2022-05-22T04:47:52.933Z</time>
      </trkpt>
      <trkpt lat="42.238437" lon="1.916800">
        <ele>835.943285</ele>
        <time>2022-05-22T04:47:54.935Z</time>
      </trkpt>
      <trkpt lat="42.238452" lon="1.916679">
        <ele>835.763277</ele>
        <time>2022-05-22T04:47:55.929Z</time>
      </trkpt>
      <trkpt lat="42.238462" lon="1.916558">
        <ele>835.584637</ele>
        <time>2022-05-22T04:47:56.934Z</time>
      </trkpt>
      <trkpt lat="42.238489" lon="1.916320">
        <ele>835.231357</ele>
        <time>2022-05-22T04:47:58.935Z</time>
      </trkpt>
      <trkpt lat="42.238505" lon="1.916200">
        <ele>835.052455</ele>
        <time>2022-05-22T04:47:59.943Z</time>
      </trkpt>
      <trkpt lat="42.238518" lon="1.915970">
        <ele>834.714007</ele>
        <time>2022-05-22T04:48:01.934Z</time>
      </trkpt>
      <trkpt lat="42.238524" lon="1.915729">
        <ele>834.360201</ele>
        <time>2022-05-22T04:48:03.938Z</time>
      </trkpt>
      <trkpt lat="42.238528" lon="1.915608">
        <ele>834.182488</ele>
        <time>2022-05-22T04:48:04.943Z</time>
      </trkpt>
      <trkpt lat="42.238532" lon="1.915377">
        <ele>833.843462</ele>
        <time>2022-05-22T04:48:06.928Z</time>
      </trkpt>
      <trkpt lat="42.238551" lon="1.915142">
        <ele>833.384072</ele>
        <time>2022-05-22T04:48:08.940Z</time>
      </trkpt>
      <trkpt lat="42.238556" lon="1.914904">
        <ele>832.873589</ele>
        <time>2022-05-22T04:48:10.938Z</time>
      </trkpt>
      <trkpt lat="42.238567" lon="1.914665">
        <ele>832.360177</ele>
        <time>2022-05-22T04:48:12.938Z</time>
      </trkpt>
      <trkpt lat="42.238590" lon="1.914427">
        <ele>831.845570</ele>
        <time>2022-05-22T04:48:14.939Z</time>
      </trkpt>
      <trkpt lat="42.238595" lon="1.914201">
        <ele>831.360803</ele>
        <time>2022-05-22T04:48:16.938Z</time>
      </trkpt>
      <trkpt lat="42.238607" lon="1.913980">
        <ele>830.885701</ele>
        <time>2022-05-22T04:48:18.934Z</time>
      </trkpt>
      <trkpt lat="42.238620" lon="1.913761">
        <ele>830.414653</ele>
        <time>2022-05-22T04:48:20.952Z</time>
      </trkpt>
      <trkpt lat="42.238632" lon="1.913541">
        <ele>829.941689</ele>
        <time>2022-05-22T04:48:22.934Z</time>
      </trkpt>
      <trkpt lat="42.238639" lon="1.913325">
        <ele>829.478136</ele>
        <time>2022-05-22T04:48:24.942Z</time>
      </trkpt>
      <trkpt lat="42.238649" lon="1.913112">
        <ele>829.020541</ele>
        <time>2022-05-22T04:48:26.936Z</time>
      </trkpt>
      <trkpt lat="42.238650" lon="1.912894">
        <ele>828.553135</ele>
        <time>2022-05-22T04:48:28.938Z</time>
      </trkpt>
      <trkpt lat="42.238674" lon="1.912680">
        <ele>828.155626</ele>
        <time>2022-05-22T04:48:30.949Z</time>
      </trkpt>
      <trkpt lat="42.238692" lon="1.912459">
        <ele>827.750591</ele>
        <time>2022-05-22T04:48:32.942Z</time>
      </trkpt>
      <trkpt lat="42.238708" lon="1.912242">
        <ele>827.353316</ele>
        <time>2022-05-22T04:48:34.933Z</time>
      </trkpt>
      <trkpt lat="42.238730" lon="1.912021">
        <ele>826.947087</ele>
        <time>2022-05-22T04:48:36.928Z</time>
      </trkpt>
      <trkpt lat="42.238742" lon="1.911809">
        <ele>826.559750</ele>
        <time>2022-05-22T04:48:38.937Z</time>
      </trkpt>
      <trkpt lat="42.238762" lon="1.911592">
        <ele>826.161380</ele>
        <time>2022-05-22T04:48:40.940Z</time>
      </trkpt>
      <trkpt lat="42.238747" lon="1.911379">
        <ele>825.771597</ele>
        <time>2022-05-22T04:48:42.931Z</time>
      </trkpt>
      <trkpt lat="42.238694" lon="1.911172">
        <ele>825.372581</ele>
        <time>2022-05-22T04:48:44.935Z</time>
      </trkpt>
      <trkpt lat="42.238638" lon="1.910957">
        <ele>824.957373</ele>
        <time>2022-05-22T04:48:46.935Z</time>
      </trkpt>
      <trkpt lat="42.238590" lon="1.910743">
        <ele>824.550020</ele>
        <time>2022-05-22T04:48:48.936Z</time>
      </trkpt>
      <trkpt lat="42.238537" lon="1.910526">
        <ele>824.133743</ele>
        <time>2022-05-22T04:48:50.942Z</time>
      </trkpt>
      <trkpt lat="42.238479" lon="1.910307">
        <ele>823.507447</ele>
        <time>2022-05-22T04:48:52.931Z</time>
      </trkpt>
      <trkpt lat="42.238448" lon="1.910192">
        <ele>823.170418</ele>
        <time>2022-05-22T04:48:53.930Z</time>
      </trkpt>
      <trkpt lat="42.238416" lon="1.910078">
        <ele>822.834675</ele>
        <time>2022-05-22T04:48:54.938Z</time>
      </trkpt>
      <trkpt lat="42.238366" lon="1.909855">
        <ele>822.193027</ele>
        <time>2022-05-22T04:48:56.931Z</time>
      </trkpt>
      <trkpt lat="42.238318" lon="1.909639">
        <ele>821.571982</ele>
        <time>2022-05-22T04:48:58.937Z</time>
      </trkpt>
      <trkpt lat="42.238264" lon="1.909431">
        <ele>820.964989</ele>
        <time>2022-05-22T04:49:00.933Z</time>
      </trkpt>
      <trkpt lat="42.238223" lon="1.909207">
        <ele>820.329558</ele>
        <time>2022-05-22T04:49:02.940Z</time>
      </trkpt>
      <trkpt lat="42.238188" lon="1.908974">
        <ele>819.674841</ele>
        <time>2022-05-22T04:49:04.931Z</time>
      </trkpt>
      <trkpt lat="42.238153" lon="1.908747">
        <ele>819.036307</ele>
        <time>2022-05-22T04:49:06.940Z</time>
      </trkpt>
      <trkpt lat="42.238125" lon="1.908514">
        <ele>818.386265</ele>
        <time>2022-05-22T04:49:08.927Z</time>
      </trkpt>
      <trkpt lat="42.238115" lon="1.908291">
        <ele>817.771034</ele>
        <time>2022-05-22T04:49:10.930Z</time>
      </trkpt>
      <trkpt lat="42.238113" lon="1.908053">
        <ele>817.116030</ele>
        <time>2022-05-22T04:49:12.939Z</time>
      </trkpt>
      <trkpt lat="42.238113" lon="1.907821">
        <ele>816.478101</ele>
        <time>2022-05-22T04:49:14.946Z</time>
      </trkpt>
      <trkpt lat="42.238121" lon="1.907592">
        <ele>815.847722</ele>
        <time>2022-05-22T04:49:16.940Z</time>
      </trkpt>
      <trkpt lat="42.238154" lon="1.907357">
        <ele>815.190024</ele>
        <time>2022-05-22T04:49:18.937Z</time>
      </trkpt>
      <trkpt lat="42.238163" lon="1.907136">
        <ele>814.581424</ele>
        <time>2022-05-22T04:49:20.936Z</time>
      </trkpt>
      <trkpt lat="42.238176" lon="1.906930">
        <ele>814.012934</ele>
        <time>2022-05-22T04:49:22.941Z</time>
      </trkpt>
      <trkpt lat="42.238192" lon="1.906716">
        <ele>813.421507</ele>
        <time>2022-05-22T04:49:24.938Z</time>
      </trkpt>
      <trkpt lat="42.238201" lon="1.906505">
        <ele>812.840361</ele>
        <time>2022-05-22T04:49:26.937Z</time>
      </trkpt>
      <trkpt lat="42.238212" lon="1.906301">
        <ele>812.277939</ele>
        <time>2022-05-22T04:49:28.936Z</time>
      </trkpt>
      <trkpt lat="42.238229" lon="1.906085">
        <ele>811.680660</ele>
        <time>2022-05-22T04:49:30.944Z</time>
      </trkpt>
      <trkpt lat="42.238266" lon="1.905874">
        <ele>811.084425</ele>
        <time>2022-05-22T04:49:32.941Z</time>
      </trkpt>
      <trkpt lat="42.238297" lon="1.905685">
        <ele>810.473808</ele>
        <time>2022-05-22T04:49:34.937Z</time>
      </trkpt>
      <trkpt lat="42.238291" lon="1.905475">
        <ele>809.649163</ele>
        <time>2022-05-22T04:49:36.934Z</time>
      </trkpt>
      <trkpt lat="42.238276" lon="1.905251">
        <ele>808.766609</ele>
        <time>2022-05-22T04:49:38.956Z</time>
      </trkpt>
      <trkpt lat="42.238264" lon="1.905048">
        <ele>807.967510</ele>
        <time>2022-05-22T04:49:40.920Z</time>
      </trkpt>
      <trkpt lat="42.238261" lon="1.904855">
        <ele>807.210019</ele>
        <time>2022-05-22T04:49:42.922Z</time>
      </trkpt>
      <trkpt lat="42.238268" lon="1.904654">
        <ele>806.420431</ele>
        <time>2022-05-22T04:49:44.936Z</time>
      </trkpt>
      <trkpt lat="42.238264" lon="1.904450">
        <ele>805.619663</ele>
        <time>2022-05-22T04:49:46.932Z</time>
      </trkpt>
      <trkpt lat="42.238258" lon="1.904258">
        <ele>804.865592</ele>
        <time>2022-05-22T04:49:48.940Z</time>
      </trkpt>
      <trkpt lat="42.238254" lon="1.904063">
        <ele>804.100126</ele>
        <time>2022-05-22T04:49:51.018Z</time>
      </trkpt>
      <trkpt lat="42.238266" lon="1.903852">
        <ele>803.269731</ele>
        <time>2022-05-22T04:49:52.935Z</time>
      </trkpt>
      <trkpt lat="42.238281" lon="1.903649">
        <ele>802.469210</ele>
        <time>2022-05-22T04:49:54.923Z</time>
      </trkpt>
      <trkpt lat="42.238293" lon="1.903445">
        <ele>801.666200</ele>
        <time>2022-05-22T04:49:56.926Z</time>
      </trkpt>
      <trkpt lat="42.238314" lon="1.903250">
        <ele>801.141048</ele>
        <time>2022-05-22T04:49:58.934Z</time>
      </trkpt>
      <trkpt lat="42.238328" lon="1.903059">
        <ele>800.991417</ele>
        <time>2022-05-22T04:50:00.923Z</time>
      </trkpt>
      <trkpt lat="42.238335" lon="1.902858">
        <ele>800.834544</ele>
        <time>2022-05-22T04:50:02.924Z</time>
      </trkpt>
      <trkpt lat="42.238352" lon="1.902679">
        <ele>800.693853</ele>
        <time>2022-05-22T04:50:04.923Z</time>
      </trkpt>
      <trkpt lat="42.238370" lon="1.902495">
        <ele>800.549160</ele>
        <time>2022-05-22T04:50:06.925Z</time>
      </trkpt>
      <trkpt lat="42.238382" lon="1.902306">
        <ele>800.401275</ele>
        <time>2022-05-22T04:50:08.920Z</time>
      </trkpt>
      <trkpt lat="42.238400" lon="1.902112">
        <ele>800.248850</ele>
        <time>2022-05-22T04:50:10.918Z</time>
      </trkpt>
      <trkpt lat="42.238424" lon="1.901920">
        <ele>800.097049</ele>
        <time>2022-05-22T04:50:12.921Z</time>
      </trkpt>
      <trkpt lat="42.238426" lon="1.901730">
        <ele>799.948911</ele>
        <time>2022-05-22T04:50:14.922Z</time>
      </trkpt>
      <trkpt lat="42.238420" lon="1.901543">
        <ele>799.802989</ele>
        <time>2022-05-22T04:50:16.923Z</time>
      </trkpt>
      <trkpt lat="42.238389" lon="1.901356">
        <ele>799.653595</ele>
        <time>2022-05-22T04:50:18.936Z</time>
      </trkpt>
      <trkpt lat="42.238348" lon="1.901168">
        <ele>799.500804</ele>
        <time>2022-05-22T04:50:20.924Z</time>
      </trkpt>
      <trkpt lat="42.238296" lon="1.900993">
        <ele>799.353796</ele>
        <time>2022-05-22T04:50:22.925Z</time>
      </trkpt>
      <trkpt lat="42.238236" lon="1.900831">
        <ele>799.369248</ele>
        <time>2022-05-22T04:50:24.922Z</time>
      </trkpt>
      <trkpt lat="42.238160" lon="1.900677">
        <ele>799.460448</ele>
        <time>2022-05-22T04:50:26.922Z</time>
      </trkpt>
      <trkpt lat="42.238079" lon="1.900542">
        <ele>799.546074</ele>
        <time>2022-05-22T04:50:28.923Z</time>
      </trkpt>
      <trkpt lat="42.237993" lon="1.900408">
        <ele>799.633461</ele>
        <time>2022-05-22T04:50:30.922Z</time>
      </trkpt>
      <trkpt lat="42.237914" lon="1.900269">
        <ele>799.719811</ele>
        <time>2022-05-22T04:50:32.923Z</time>
      </trkpt>
      <trkpt lat="42.237828" lon="1.900132">
        <ele>799.808320</ele>
        <time>2022-05-22T04:50:34.920Z</time>
      </trkpt>
      <trkpt lat="42.237730" lon="1.899988">
        <ele>799.904703</ele>
        <time>2022-05-22T04:50:36.925Z</time>
      </trkpt>
      <trkpt lat="42.237658" lon="1.899816">
        <ele>800.002069</ele>
        <time>2022-05-22T04:50:38.942Z</time>
      </trkpt>
      <trkpt lat="42.237596" lon="1.899643">
        <ele>800.096781</ele>
        <time>2022-05-22T04:50:40.926Z</time>
      </trkpt>
      <trkpt lat="42.237536" lon="1.899474">
        <ele>800.189139</ele>
        <time>2022-05-22T04:50:42.925Z</time>
      </trkpt>
      <trkpt lat="42.237470" lon="1.899298">
        <ele>800.286358</ele>
        <time>2022-05-22T04:50:44.923Z</time>
      </trkpt>
      <trkpt lat="42.237419" lon="1.899113">
        <ele>800.383635</ele>
        <time>2022-05-22T04:50:46.928Z</time>
      </trkpt>
      <trkpt lat="42.237381" lon="1.898934">
        <ele>800.475396</ele>
        <time>2022-05-22T04:50:48.924Z</time>
      </trkpt>
      <trkpt lat="42.237333" lon="1.898757">
        <ele>800.317282</ele>
        <time>2022-05-22T04:50:50.925Z</time>
      </trkpt>
      <trkpt lat="42.237289" lon="1.898566">
        <ele>800.020437</ele>
        <time>2022-05-22T04:50:52.924Z</time>
      </trkpt>
      <trkpt lat="42.237254" lon="1.898371">
        <ele>799.722677</ele>
        <time>2022-05-22T04:50:54.922Z</time>
      </trkpt>
      <trkpt lat="42.237218" lon="1.898156">
        <ele>799.395563</ele>
        <time>2022-05-22T04:50:56.925Z</time>
      </trkpt>
      <trkpt lat="42.237183" lon="1.897946">
        <ele>799.076127</ele>
        <time>2022-05-22T04:50:58.948Z</time>
      </trkpt>
      <trkpt lat="42.237159" lon="1.897744">
        <ele>798.772526</ele>
        <time>2022-05-22T04:51:00.915Z</time>
      </trkpt>
      <trkpt lat="42.237141" lon="1.897539">
        <ele>798.466176</ele>
        <time>2022-05-22T04:51:02.929Z</time>
      </trkpt>
      <trkpt lat="42.237125" lon="1.897349">
        <ele>798.182401</ele>
        <time>2022-05-22T04:51:04.924Z</time>
      </trkpt>
      <trkpt lat="42.237100" lon="1.897162">
        <ele>797.900407</ele>
        <time>2022-05-22T04:51:06.920Z</time>
      </trkpt>
      <trkpt lat="42.237068" lon="1.896980">
        <ele>797.622809</ele>
        <time>2022-05-22T04:51:08.920Z</time>
      </trkpt>
      <trkpt lat="42.237017" lon="1.896807">
        <ele>797.346476</ele>
        <time>2022-05-22T04:51:10.921Z</time>
      </trkpt>
      <trkpt lat="42.236960" lon="1.896650">
        <ele>797.086984</ele>
        <time>2022-05-22T04:51:12.921Z</time>
      </trkpt>
      <trkpt lat="42.236916" lon="1.896502">
        <ele>796.861688</ele>
        <time>2022-05-22T04:51:14.925Z</time>
      </trkpt>
      <trkpt lat="42.236887" lon="1.896332">
        <ele>796.661465</ele>
        <time>2022-05-22T04:51:16.922Z</time>
      </trkpt>
      <trkpt lat="42.236872" lon="1.896152">
        <ele>796.453571</ele>
        <time>2022-05-22T04:51:18.931Z</time>
      </trkpt>
      <trkpt lat="42.236852" lon="1.895979">
        <ele>796.252611</ele>
        <time>2022-05-22T04:51:20.927Z</time>
      </trkpt>
      <trkpt lat="42.236829" lon="1.895792">
        <ele>796.035046</ele>
        <time>2022-05-22T04:51:22.917Z</time>
      </trkpt>
      <trkpt lat="42.236826" lon="1.895575">
        <ele>795.785949</ele>
        <time>2022-05-22T04:51:24.931Z</time>
      </trkpt>
      <trkpt lat="42.236818" lon="1.895382">
        <ele>795.564092</ele>
        <time>2022-05-22T04:51:26.921Z</time>
      </trkpt>
      <trkpt lat="42.236804" lon="1.895204">
        <ele>795.358649</ele>
        <time>2022-05-22T04:51:28.923Z</time>
      </trkpt>
      <trkpt lat="42.236766" lon="1.895024">
        <ele>795.143826</ele>
        <time>2022-05-22T04:51:30.925Z</time>
      </trkpt>
      <trkpt lat="42.236699" lon="1.894850">
        <ele>794.918729</ele>
        <time>2022-05-22T04:51:32.926Z</time>
      </trkpt>
      <trkpt lat="42.236615" lon="1.894684">
        <ele>794.687959</ele>
        <time>2022-05-22T04:51:34.921Z</time>
      </trkpt>
      <trkpt lat="42.236526" lon="1.894554">
        <ele>794.484744</ele>
        <time>2022-05-22T04:51:36.923Z</time>
      </trkpt>
      <trkpt lat="42.236417" lon="1.894461">
        <ele>794.284884</ele>
        <time>2022-05-22T04:51:38.932Z</time>
      </trkpt>
      <trkpt lat="42.236284" lon="1.894406">
        <ele>794.052376</ele>
        <time>2022-05-22T04:51:40.922Z</time>
      </trkpt>
      <trkpt lat="42.236129" lon="1.894376">
        <ele>793.714397</ele>
        <time>2022-05-22T04:51:42.914Z</time>
      </trkpt>
      <trkpt lat="42.235996" lon="1.894348">
        <ele>793.423856</ele>
        <time>2022-05-22T04:51:44.918Z</time>
      </trkpt>
      <trkpt lat="42.235862" lon="1.894299">
        <ele>793.124210</ele>
        <time>2022-05-22T04:51:46.920Z</time>
      </trkpt>
      <trkpt lat="42.235744" lon="1.894243">
        <ele>792.854247</ele>
        <time>2022-05-22T04:51:48.928Z</time>
      </trkpt>
      <trkpt lat="42.235610" lon="1.894210">
        <ele>792.560245</ele>
        <time>2022-05-22T04:51:50.922Z</time>
      </trkpt>
      <trkpt lat="42.235480" lon="1.894181">
        <ele>792.275844</ele>
        <time>2022-05-22T04:51:52.919Z</time>
      </trkpt>
      <trkpt lat="42.235349" lon="1.894124">
        <ele>791.978776</ele>
        <time>2022-05-22T04:51:54.921Z</time>
      </trkpt>
      <trkpt lat="42.235212" lon="1.894058">
        <ele>791.664820</ele>
        <time>2022-05-22T04:51:56.925Z</time>
      </trkpt>
      <trkpt lat="42.235064" lon="1.893965">
        <ele>791.312487</ele>
        <time>2022-05-22T04:51:58.924Z</time>
      </trkpt>
      <trkpt lat="42.234935" lon="1.893848">
        <ele>790.977091</ele>
        <time>2022-05-22T04:52:00.927Z</time>
      </trkpt>
      <trkpt lat="42.234815" lon="1.893702">
        <ele>790.628481</ele>
        <time>2022-05-22T04:52:02.929Z</time>
      </trkpt>
      <trkpt lat="42.234710" lon="1.893539">
        <ele>790.283197</ele>
        <time>2022-05-22T04:52:04.916Z</time>
      </trkpt>
      <trkpt lat="42.234634" lon="1.893361">
        <ele>790.200178</ele>
        <time>2022-05-22T04:52:06.925Z</time>
      </trkpt>
      <trkpt lat="42.234597" lon="1.893148">
        <ele>790.162282</ele>
        <time>2022-05-22T04:52:08.923Z</time>
      </trkpt>
      <trkpt lat="42.234560" lon="1.892946">
        <ele>790.126239</ele>
        <time>2022-05-22T04:52:10.929Z</time>
      </trkpt>
      <trkpt lat="42.234562" lon="1.892728">
        <ele>790.088476</ele>
        <time>2022-05-22T04:52:12.928Z</time>
      </trkpt>
      <trkpt lat="42.234560" lon="1.892520">
        <ele>790.052445</ele>
        <time>2022-05-22T04:52:14.928Z</time>
      </trkpt>
      <trkpt lat="42.234564" lon="1.892316">
        <ele>790.017097</ele>
        <time>2022-05-22T04:52:16.925Z</time>
      </trkpt>
      <trkpt lat="42.234563" lon="1.892114">
        <ele>789.982108</ele>
        <time>2022-05-22T04:52:18.929Z</time>
      </trkpt>
      <trkpt lat="42.234540" lon="1.891921">
        <ele>789.948248</ele>
        <time>2022-05-22T04:52:20.927Z</time>
      </trkpt>
      <trkpt lat="42.234536" lon="1.891703">
        <ele>789.910476</ele>
        <time>2022-05-22T04:52:22.926Z</time>
      </trkpt>
      <trkpt lat="42.234499" lon="1.891515">
        <ele>789.876781</ele>
        <time>2022-05-22T04:52:24.924Z</time>
      </trkpt>
      <trkpt lat="42.234453" lon="1.891340">
        <ele>789.844616</ele>
        <time>2022-05-22T04:52:26.928Z</time>
      </trkpt>
      <trkpt lat="42.234404" lon="1.891156">
        <ele>789.810746</ele>
        <time>2022-05-22T04:52:28.927Z</time>
      </trkpt>
      <trkpt lat="42.234329" lon="1.890994">
        <ele>789.503159</ele>
        <time>2022-05-22T04:52:30.931Z</time>
      </trkpt>
      <trkpt lat="42.234253" lon="1.890836">
        <ele>789.186776</ele>
        <time>2022-05-22T04:52:32.924Z</time>
      </trkpt>
      <trkpt lat="42.234168" lon="1.890705">
        <ele>788.894287</ele>
        <time>2022-05-22T04:52:34.930Z</time>
      </trkpt>
      <trkpt lat="42.234073" lon="1.890573">
        <ele>788.585176</ele>
        <time>2022-05-22T04:52:36.927Z</time>
      </trkpt>
      <trkpt lat="42.233982" lon="1.890428">
        <ele>788.265995</ele>
        <time>2022-05-22T04:52:38.930Z</time>
      </trkpt>
      <trkpt lat="42.233865" lon="1.890279">
        <ele>787.901291</ele>
        <time>2022-05-22T04:52:40.931Z</time>
      </trkpt>
      <trkpt lat="42.233779" lon="1.890120">
        <ele>787.570647</ele>
        <time>2022-05-22T04:52:42.935Z</time>
      </trkpt>
      <trkpt lat="42.233704" lon="1.889971">
        <ele>787.268104</ele>
        <time>2022-05-22T04:52:44.930Z</time>
      </trkpt>
      <trkpt lat="42.233632" lon="1.889823">
        <ele>786.970738</ele>
        <time>2022-05-22T04:52:46.928Z</time>
      </trkpt>
      <trkpt lat="42.233569" lon="1.889659">
        <ele>786.660491</ele>
        <time>2022-05-22T04:52:48.926Z</time>
      </trkpt>
      <trkpt lat="42.233509" lon="1.889488">
        <ele>786.342737</ele>
        <time>2022-05-22T04:52:50.929Z</time>
      </trkpt>
      <trkpt lat="42.233448" lon="1.889297">
        <ele>785.993445</ele>
        <time>2022-05-22T04:52:52.923Z</time>
      </trkpt>
      <trkpt lat="42.233382" lon="1.889112">
        <ele>785.693925</ele>
        <time>2022-05-22T04:52:54.928Z</time>
      </trkpt>
      <trkpt lat="42.233323" lon="1.888930">
        <ele>785.545974</ele>
        <time>2022-05-22T04:52:56.930Z</time>
      </trkpt>
      <trkpt lat="42.233254" lon="1.888768">
        <ele>785.406802</ele>
        <time>2022-05-22T04:52:58.925Z</time>
      </trkpt>
      <trkpt lat="42.233209" lon="1.888586">
        <ele>785.263915</ele>
        <time>2022-05-22T04:53:00.932Z</time>
      </trkpt>
      <trkpt lat="42.233160" lon="1.888391">
        <ele>785.110570</ele>
        <time>2022-05-22T04:53:02.921Z</time>
      </trkpt>
      <trkpt lat="42.233099" lon="1.888205">
        <ele>784.959082</ele>
        <time>2022-05-22T04:53:04.921Z</time>
      </trkpt>
      <trkpt lat="42.233042" lon="1.888020">
        <ele>784.809866</ele>
        <time>2022-05-22T04:53:06.929Z</time>
      </trkpt>
      <trkpt lat="42.232987" lon="1.887832">
        <ele>784.659336</ele>
        <time>2022-05-22T04:53:08.926Z</time>
      </trkpt>
      <trkpt lat="42.232921" lon="1.887646">
        <ele>784.505742</ele>
        <time>2022-05-22T04:53:10.928Z</time>
      </trkpt>
      <trkpt lat="42.232852" lon="1.887460">
        <ele>784.350821</ele>
        <time>2022-05-22T04:53:12.928Z</time>
      </trkpt>
      <trkpt lat="42.232791" lon="1.887274">
        <ele>784.199332</ele>
        <time>2022-05-22T04:53:14.927Z</time>
      </trkpt>
      <trkpt lat="42.232726" lon="1.887090">
        <ele>784.047516</ele>
        <time>2022-05-22T04:53:16.921Z</time>
      </trkpt>
      <trkpt lat="42.232651" lon="1.886935">
        <ele>783.890247</ele>
        <time>2022-05-22T04:53:18.937Z</time>
      </trkpt>
      <trkpt lat="42.232586" lon="1.886767">
        <ele>783.509612</ele>
        <time>2022-05-22T04:53:20.930Z</time>
      </trkpt>
      <trkpt lat="42.232525" lon="1.886588">
        <ele>783.113926</ele>
        <time>2022-05-22T04:53:22.932Z</time>
      </trkpt>
      <trkpt lat="42.232461" lon="1.886409">
        <ele>782.714770</ele>
        <time>2022-05-22T04:53:24.929Z</time>
      </trkpt>
      <trkpt lat="42.232401" lon="1.886237">
        <ele>782.332971</ele>
        <time>2022-05-22T04:53:26.920Z</time>
      </trkpt>
      <trkpt lat="42.232358" lon="1.886050">
        <ele>781.939772</ele>
        <time>2022-05-22T04:53:28.948Z</time>
      </trkpt>
      <trkpt lat="42.232324" lon="1.885857">
        <ele>781.541398</ele>
        <time>2022-05-22T04:53:30.931Z</time>
      </trkpt>
      <trkpt lat="42.232336" lon="1.885672">
        <ele>781.168483</ele>
        <time>2022-05-22T04:53:32.930Z</time>
      </trkpt>
      <trkpt lat="42.232404" lon="1.885493">
        <ele>780.764491</ele>
        <time>2022-05-22T04:53:34.926Z</time>
      </trkpt>
      <trkpt lat="42.232430" lon="1.885340">
        <ele>780.449270</ele>
        <time>2022-05-22T04:53:36.934Z</time>
      </trkpt>
      <trkpt lat="42.232416" lon="1.885205">
        <ele>780.175536</ele>
        <time>2022-05-22T04:53:38.926Z</time>
      </trkpt>
      <trkpt lat="42.232354" lon="1.885034">
        <ele>779.793198</ele>
        <time>2022-05-22T04:53:41.989Z</time>
      </trkpt>
      <trkpt lat="42.232253" lon="1.884916">
        <ele>779.431016</ele>
        <time>2022-05-22T04:53:43.925Z</time>
      </trkpt>
      <trkpt lat="42.232171" lon="1.884807">
        <ele>779.118983</ele>
        <time>2022-05-22T04:53:45.925Z</time>
      </trkpt>
      <trkpt lat="42.232082" lon="1.884701">
        <ele>778.842358</ele>
        <time>2022-05-22T04:53:48.919Z</time>
      </trkpt>
      <trkpt lat="42.232125" lon="1.884830">
        <ele>778.610488</ele>
        <time>2022-05-22T04:53:54.928Z</time>
      </trkpt>
      <trkpt lat="42.232201" lon="1.884936">
        <ele>778.368649</ele>
        <time>2022-05-22T04:53:58.924Z</time>
      </trkpt>
      <trkpt lat="42.232255" lon="1.885034">
        <ele>778.168429</ele>
        <time>2022-05-22T04:54:01.932Z</time>
      </trkpt>
      <trkpt lat="42.232297" lon="1.885179">
        <ele>777.913235</ele>
        <time>2022-05-22T04:54:05.927Z</time>
      </trkpt>
      <trkpt lat="42.232217" lon="1.885292">
        <ele>777.656990</ele>
        <time>2022-05-22T04:54:09.928Z</time>
      </trkpt>
      <trkpt lat="42.232097" lon="1.885322">
        <ele>777.386846</ele>
        <time>2022-05-22T04:54:12.926Z</time>
      </trkpt>
      <trkpt lat="42.232007" lon="1.885216">
        <ele>777.122509</ele>
        <time>2022-05-22T04:54:15.923Z</time>
      </trkpt>
      <trkpt lat="42.231948" lon="1.885094">
        <ele>776.883678</ele>
        <time>2022-05-22T04:54:17.924Z</time>
      </trkpt>
      <trkpt lat="42.231902" lon="1.884972">
        <ele>776.659285</ele>
        <time>2022-05-22T04:54:19.925Z</time>
      </trkpt>
      <trkpt lat="42.231844" lon="1.884847">
        <ele>776.417504</ele>
        <time>2022-05-22T04:54:21.928Z</time>
      </trkpt>
      <trkpt lat="42.231785" lon="1.884727">
        <ele>776.181409</ele>
        <time>2022-05-22T04:54:23.929Z</time>
      </trkpt>
      <trkpt lat="42.231715" lon="1.884596">
        <ele>775.916625</ele>
        <time>2022-05-22T04:54:25.923Z</time>
      </trkpt>
      <trkpt lat="42.231638" lon="1.884466">
        <ele>775.643766</ele>
        <time>2022-05-22T04:54:27.924Z</time>
      </trkpt>
      <trkpt lat="42.231553" lon="1.884349">
        <ele>775.375109</ele>
        <time>2022-05-22T04:54:29.929Z</time>
      </trkpt>
      <trkpt lat="42.231475" lon="1.884263">
        <ele>775.152218</ele>
        <time>2022-05-22T04:54:31.924Z</time>
      </trkpt>
      <trkpt lat="42.231374" lon="1.884169">
        <ele>774.901975</ele>
        <time>2022-05-22T04:54:34.004Z</time>
      </trkpt>
      <trkpt lat="42.231275" lon="1.884075">
        <ele>774.665596</ele>
        <time>2022-05-22T04:54:35.928Z</time>
      </trkpt>
      <trkpt lat="42.231190" lon="1.883969">
        <ele>774.439615</ele>
        <time>2022-05-22T04:54:37.920Z</time>
      </trkpt>
      <trkpt lat="42.231102" lon="1.883858">
        <ele>774.204420</ele>
        <time>2022-05-22T04:54:39.920Z</time>
      </trkpt>
      <trkpt lat="42.231012" lon="1.883756">
        <ele>773.974930</ele>
        <time>2022-05-22T04:54:41.922Z</time>
      </trkpt>
      <trkpt lat="42.230919" lon="1.883660">
        <ele>773.746293</ele>
        <time>2022-05-22T04:54:43.916Z</time>
      </trkpt>
      <trkpt lat="42.230831" lon="1.883562">
        <ele>773.523506</ele>
        <time>2022-05-22T04:54:45.916Z</time>
      </trkpt>
      <trkpt lat="42.230748" lon="1.883460">
        <ele>773.304313</ele>
        <time>2022-05-22T04:54:47.920Z</time>
      </trkpt>
      <trkpt lat="42.230662" lon="1.883356">
        <ele>773.078833</ele>
        <time>2022-05-22T04:54:49.918Z</time>
      </trkpt>
      <trkpt lat="42.230601" lon="1.883217">
        <ele>772.845143</ele>
        <time>2022-05-22T04:54:51.938Z</time>
      </trkpt>
      <trkpt lat="42.230605" lon="1.883075">
        <ele>772.639623</ele>
        <time>2022-05-22T04:54:53.920Z</time>
      </trkpt>
      <trkpt lat="42.230656" lon="1.882913">
        <ele>772.385027</ele>
        <time>2022-05-22T04:54:55.923Z</time>
      </trkpt>
      <trkpt lat="42.230667" lon="1.882747">
        <ele>772.143985</ele>
        <time>2022-05-22T04:54:58.021Z</time>
      </trkpt>
      <trkpt lat="42.230622" lon="1.882608">
        <ele>771.924576</ele>
        <time>2022-05-22T04:54:59.917Z</time>
      </trkpt>
      <trkpt lat="42.230630" lon="1.882465">
        <ele>771.717168</ele>
        <time>2022-05-22T04:55:01.921Z</time>
      </trkpt>
      <trkpt lat="42.230686" lon="1.882333">
        <ele>771.592646</ele>
        <time>2022-05-22T04:55:03.920Z</time>
      </trkpt>
      <trkpt lat="42.230738" lon="1.882191">
        <ele>771.790611</ele>
        <time>2022-05-22T04:55:05.923Z</time>
      </trkpt>
      <trkpt lat="42.230795" lon="1.882067">
        <ele>771.972999</ele>
        <time>2022-05-22T04:55:07.921Z</time>
      </trkpt>
      <trkpt lat="42.230843" lon="1.881937">
        <ele>772.154531</ele>
        <time>2022-05-22T04:55:09.929Z</time>
      </trkpt>
      <trkpt lat="42.230896" lon="1.881807">
        <ele>772.339981</ele>
        <time>2022-05-22T04:55:11.923Z</time>
      </trkpt>
      <trkpt lat="42.230958" lon="1.881683">
        <ele>772.526958</ele>
        <time>2022-05-22T04:55:13.926Z</time>
      </trkpt>
      <trkpt lat="42.231007" lon="1.881554">
        <ele>772.708135</ele>
        <time>2022-05-22T04:55:15.922Z</time>
      </trkpt>
      <trkpt lat="42.231054" lon="1.881415">
        <ele>772.899090</ele>
        <time>2022-05-22T04:55:17.920Z</time>
      </trkpt>
      <trkpt lat="42.231100" lon="1.881285">
        <ele>773.079140</ele>
        <time>2022-05-22T04:55:19.931Z</time>
      </trkpt>
      <trkpt lat="42.231164" lon="1.881142">
        <ele>773.287945</ele>
        <time>2022-05-22T04:55:21.926Z</time>
      </trkpt>
      <trkpt lat="42.231222" lon="1.881006">
        <ele>773.484070</ele>
        <time>2022-05-22T04:55:23.936Z</time>
      </trkpt>
      <trkpt lat="42.231291" lon="1.880867">
        <ele>773.693192</ele>
        <time>2022-05-22T04:55:25.926Z</time>
      </trkpt>
      <trkpt lat="42.231356" lon="1.880760">
        <ele>773.866145</ele>
        <time>2022-05-22T04:55:27.929Z</time>
      </trkpt>
      <trkpt lat="42.231431" lon="1.880677">
        <ele>774.029789</ele>
        <time>2022-05-22T04:55:29.928Z</time>
      </trkpt>
      <trkpt lat="42.231513" lon="1.880587">
        <ele>774.208117</ele>
        <time>2022-05-22T04:55:31.929Z</time>
      </trkpt>
      <trkpt lat="42.231623" lon="1.880542">
        <ele>774.402093</ele>
        <time>2022-05-22T04:55:33.930Z</time>
      </trkpt>
      <trkpt lat="42.231732" lon="1.880509">
        <ele>774.570717</ele>
        <time>2022-05-22T04:55:35.925Z</time>
      </trkpt>
      <trkpt lat="42.231839" lon="1.880466">
        <ele>774.197670</ele>
        <time>2022-05-22T04:55:37.927Z</time>
      </trkpt>
      <trkpt lat="42.231946" lon="1.880430">
        <ele>773.829189</ele>
        <time>2022-05-22T04:55:39.929Z</time>
      </trkpt>
      <trkpt lat="42.232054" lon="1.880389">
        <ele>773.454308</ele>
        <time>2022-05-22T04:55:41.927Z</time>
      </trkpt>
      <trkpt lat="42.232166" lon="1.880353">
        <ele>773.069593</ele>
        <time>2022-05-22T04:55:43.929Z</time>
      </trkpt>
      <trkpt lat="42.232274" lon="1.880319">
        <ele>772.699023</ele>
        <time>2022-05-22T04:55:45.930Z</time>
      </trkpt>
      <trkpt lat="42.232384" lon="1.880284">
        <ele>772.321381</ele>
        <time>2022-05-22T04:55:47.928Z</time>
      </trkpt>
      <trkpt lat="42.232497" lon="1.880237">
        <ele>771.926277</ele>
        <time>2022-05-22T04:55:49.926Z</time>
      </trkpt>
      <trkpt lat="42.232606" lon="1.880194">
        <ele>771.546820</ele>
        <time>2022-05-22T04:55:51.926Z</time>
      </trkpt>
      <trkpt lat="42.232713" lon="1.880144">
        <ele>771.168470</ele>
        <time>2022-05-22T04:55:53.927Z</time>
      </trkpt>
      <trkpt lat="42.232811" lon="1.880088">
        <ele>770.812886</ele>
        <time>2022-05-22T04:55:55.924Z</time>
      </trkpt>
      <trkpt lat="42.232888" lon="1.879984">
        <ele>770.448994</ele>
        <time>2022-05-22T04:55:57.925Z</time>
      </trkpt>
      <trkpt lat="42.232951" lon="1.879846">
        <ele>770.047870</ele>
        <time>2022-05-22T04:55:59.932Z</time>
      </trkpt>
      <trkpt lat="42.232973" lon="1.879688">
        <ele>769.650094</ele>
        <time>2022-05-22T04:56:01.932Z</time>
      </trkpt>
      <trkpt lat="42.232990" lon="1.879533">
        <ele>769.262409</ele>
        <time>2022-05-22T04:56:03.927Z</time>
      </trkpt>
      <trkpt lat="42.232982" lon="1.879362">
        <ele>768.838478</ele>
        <time>2022-05-22T04:56:05.931Z</time>
      </trkpt>
      <trkpt lat="42.232965" lon="1.879224">
        <ele>768.570490</ele>
        <time>2022-05-22T04:56:07.934Z</time>
      </trkpt>
      <trkpt lat="42.232922" lon="1.879108">
        <ele>768.558377</ele>
        <time>2022-05-22T04:56:09.932Z</time>
      </trkpt>
      <trkpt lat="42.232834" lon="1.879030">
        <ele>768.545104</ele>
        <time>2022-05-22T04:56:11.933Z</time>
      </trkpt>
      <trkpt lat="42.232756" lon="1.878963">
        <ele>768.533446</ele>
        <time>2022-05-22T04:56:13.935Z</time>
      </trkpt>
      <trkpt lat="42.232634" lon="1.878937">
        <ele>768.517871</ele>
        <time>2022-05-22T04:56:15.945Z</time>
      </trkpt>
      <trkpt lat="42.232501" lon="1.878911">
        <ele>768.500924</ele>
        <time>2022-05-22T04:56:17.928Z</time>
      </trkpt>
      <trkpt lat="42.232366" lon="1.878861">
        <ele>768.483271</ele>
        <time>2022-05-22T04:56:19.931Z</time>
      </trkpt>
      <trkpt lat="42.232231" lon="1.878812">
        <ele>768.465643</ele>
        <time>2022-05-22T04:56:21.934Z</time>
      </trkpt>
      <trkpt lat="42.232106" lon="1.878777">
        <ele>768.449544</ele>
        <time>2022-05-22T04:56:23.936Z</time>
      </trkpt>
      <trkpt lat="42.232004" lon="1.878726">
        <ele>768.435828</ele>
        <time>2022-05-22T04:56:25.929Z</time>
      </trkpt>
      <trkpt lat="42.231901" lon="1.878696">
        <ele>768.422540</ele>
        <time>2022-05-22T04:56:27.931Z</time>
      </trkpt>
      <trkpt lat="42.231792" lon="1.878664">
        <ele>768.408474</ele>
        <time>2022-05-22T04:56:29.932Z</time>
      </trkpt>
      <trkpt lat="42.231687" lon="1.878611">
        <ele>768.394338</ele>
        <time>2022-05-22T04:56:31.925Z</time>
      </trkpt>
      <trkpt lat="42.231594" lon="1.878520">
        <ele>768.379855</ele>
        <time>2022-05-22T04:56:33.926Z</time>
      </trkpt>
      <trkpt lat="42.231501" lon="1.878402">
        <ele>768.363764</ele>
        <time>2022-05-22T04:56:35.932Z</time>
      </trkpt>
      <trkpt lat="42.231404" lon="1.878262">
        <ele>768.345164</ele>
        <time>2022-05-22T04:56:37.928Z</time>
      </trkpt>
      <trkpt lat="42.231295" lon="1.878142">
        <ele>768.313269</ele>
        <time>2022-05-22T04:56:39.922Z</time>
      </trkpt>
      <trkpt lat="42.231180" lon="1.878031">
        <ele>768.281211</ele>
        <time>2022-05-22T04:56:41.926Z</time>
      </trkpt>
      <trkpt lat="42.231083" lon="1.877909">
        <ele>768.251148</ele>
        <time>2022-05-22T04:56:43.934Z</time>
      </trkpt>
      <trkpt lat="42.230985" lon="1.877785">
        <ele>768.220691</ele>
        <time>2022-05-22T04:56:45.926Z</time>
      </trkpt>
      <trkpt lat="42.230895" lon="1.877672">
        <ele>768.192820</ele>
        <time>2022-05-22T04:56:47.926Z</time>
      </trkpt>
      <trkpt lat="42.230797" lon="1.877548">
        <ele>768.162363</ele>
        <time>2022-05-22T04:56:49.920Z</time>
      </trkpt>
      <trkpt lat="42.230697" lon="1.877430">
        <ele>768.132245</ele>
        <time>2022-05-22T04:56:51.929Z</time>
      </trkpt>
      <trkpt lat="42.230599" lon="1.877307">
        <ele>768.101902</ele>
        <time>2022-05-22T04:56:53.928Z</time>
      </trkpt>
      <trkpt lat="42.230516" lon="1.877195">
        <ele>768.075292</ele>
        <time>2022-05-22T04:56:55.931Z</time>
      </trkpt>
      <trkpt lat="42.230434" lon="1.877089">
        <ele>768.049548</ele>
        <time>2022-05-22T04:56:57.926Z</time>
      </trkpt>
      <trkpt lat="42.230328" lon="1.877001">
        <ele>768.021328</ele>
        <time>2022-05-22T04:56:59.929Z</time>
      </trkpt>
      <trkpt lat="42.230203" lon="1.876929">
        <ele>767.990506</ele>
        <time>2022-05-22T04:57:01.923Z</time>
      </trkpt>
      <trkpt lat="42.230075" lon="1.876864">
        <ele>767.959491</ele>
        <time>2022-05-22T04:57:03.934Z</time>
      </trkpt>
      <trkpt lat="42.229951" lon="1.876822">
        <ele>768.124708</ele>
        <time>2022-05-22T04:57:05.925Z</time>
      </trkpt>
      <trkpt lat="42.229837" lon="1.876779">
        <ele>768.725962</ele>
        <time>2022-05-22T04:57:07.931Z</time>
      </trkpt>
      <trkpt lat="42.229697" lon="1.876729">
        <ele>769.461575</ele>
        <time>2022-05-22T04:57:09.931Z</time>
      </trkpt>
      <trkpt lat="42.229532" lon="1.876677">
        <ele>770.322253</ele>
        <time>2022-05-22T04:57:11.922Z</time>
      </trkpt>
      <trkpt lat="42.229390" lon="1.876604">
        <ele>771.094071</ele>
        <time>2022-05-22T04:57:13.920Z</time>
      </trkpt>
      <trkpt lat="42.229257" lon="1.876533">
        <ele>771.820545</ele>
        <time>2022-05-22T04:57:15.922Z</time>
      </trkpt>
      <trkpt lat="42.229123" lon="1.876463">
        <ele>772.550380</ele>
        <time>2022-05-22T04:57:17.927Z</time>
      </trkpt>
      <trkpt lat="42.229006" lon="1.876403">
        <ele>773.186118</ele>
        <time>2022-05-22T04:57:19.918Z</time>
      </trkpt>
      <trkpt lat="42.228874" lon="1.876357">
        <ele>773.878610</ele>
        <time>2022-05-22T04:57:21.937Z</time>
      </trkpt>
      <trkpt lat="42.228745" lon="1.876289">
        <ele>774.582046</ele>
        <time>2022-05-22T04:57:23.915Z</time>
      </trkpt>
      <trkpt lat="42.228622" lon="1.876230">
        <ele>775.245098</ele>
        <time>2022-05-22T04:57:25.921Z</time>
      </trkpt>
      <trkpt lat="42.228497" lon="1.876175">
        <ele>775.912918</ele>
        <time>2022-05-22T04:57:27.923Z</time>
      </trkpt>
      <trkpt lat="42.228369" lon="1.876098">
        <ele>776.624716</ele>
        <time>2022-05-22T04:57:29.924Z</time>
      </trkpt>
      <trkpt lat="42.228238" lon="1.876029">
        <ele>776.982682</ele>
        <time>2022-05-22T04:57:31.919Z</time>
      </trkpt>
      <trkpt lat="42.228108" lon="1.875984">
        <ele>776.742660</ele>
        <time>2022-05-22T04:57:33.912Z</time>
      </trkpt>
      <trkpt lat="42.227991" lon="1.875948">
        <ele>776.528042</ele>
        <time>2022-05-22T04:57:35.926Z</time>
      </trkpt>
      <trkpt lat="42.227885" lon="1.875916">
        <ele>776.333782</ele>
        <time>2022-05-22T04:57:37.919Z</time>
      </trkpt>
      <trkpt lat="42.227780" lon="1.875883">
        <ele>776.140970</ele>
        <time>2022-05-22T04:57:39.934Z</time>
      </trkpt>
      <trkpt lat="42.227679" lon="1.875816">
        <ele>775.939715</ele>
        <time>2022-05-22T04:57:41.924Z</time>
      </trkpt>
      <trkpt lat="42.227587" lon="1.875722">
        <ele>775.733385</ele>
        <time>2022-05-22T04:57:43.928Z</time>
      </trkpt>
      <trkpt lat="42.227496" lon="1.875598">
        <ele>775.502177</ele>
        <time>2022-05-22T04:57:45.928Z</time>
      </trkpt>
      <trkpt lat="42.227399" lon="1.875483">
        <ele>775.271325</ele>
        <time>2022-05-22T04:57:47.925Z</time>
      </trkpt>
      <trkpt lat="42.227279" lon="1.875368">
        <ele>775.008156</ele>
        <time>2022-05-22T04:57:49.928Z</time>
      </trkpt>
      <trkpt lat="42.227146" lon="1.875267">
        <ele>774.735256</ele>
        <time>2022-05-22T04:57:51.930Z</time>
      </trkpt>
      <trkpt lat="42.227008" lon="1.875151">
        <ele>774.444536</ele>
        <time>2022-05-22T04:57:53.933Z</time>
      </trkpt>
      <trkpt lat="42.226864" lon="1.875041">
        <ele>774.148644</ele>
        <time>2022-05-22T04:57:55.924Z</time>
      </trkpt>
      <trkpt lat="42.226728" lon="1.874940">
        <ele>773.871054</ele>
        <time>2022-05-22T04:57:57.926Z</time>
      </trkpt>
      <trkpt lat="42.226608" lon="1.874840">
        <ele>773.272379</ele>
        <time>2022-05-22T04:57:59.928Z</time>
      </trkpt>
      <trkpt lat="42.226503" lon="1.874729">
        <ele>772.689188</ele>
        <time>2022-05-22T04:58:01.926Z</time>
      </trkpt>
      <trkpt lat="42.226390" lon="1.874603">
        <ele>772.048284</ele>
        <time>2022-05-22T04:58:03.929Z</time>
      </trkpt>
      <trkpt lat="42.226276" lon="1.874500">
        <ele>771.448403</ele>
        <time>2022-05-22T04:58:05.924Z</time>
      </trkpt>
      <trkpt lat="42.226167" lon="1.874382">
        <ele>770.837421</ele>
        <time>2022-05-22T04:58:07.917Z</time>
      </trkpt>
      <trkpt lat="42.226055" lon="1.874254">
        <ele>770.195717</ele>
        <time>2022-05-22T04:58:09.920Z</time>
      </trkpt>
      <trkpt lat="42.225936" lon="1.874135">
        <ele>769.548108</ele>
        <time>2022-05-22T04:58:11.931Z</time>
      </trkpt>
      <trkpt lat="42.225815" lon="1.874031">
        <ele>768.920816</ele>
        <time>2022-05-22T04:58:13.920Z</time>
      </trkpt>
      <trkpt lat="42.225689" lon="1.873944">
        <ele>768.301896</ele>
        <time>2022-05-22T04:58:15.925Z</time>
      </trkpt>
      <trkpt lat="42.225538" lon="1.873838">
        <ele>767.557595</ele>
        <time>2022-05-22T04:58:17.922Z</time>
      </trkpt>
      <trkpt lat="42.225378" lon="1.873762">
        <ele>766.815803</ele>
        <time>2022-05-22T04:58:19.922Z</time>
      </trkpt>
      <trkpt lat="42.225286" lon="1.873732">
        <ele>766.401873</ele>
        <time>2022-05-22T04:58:20.928Z</time>
      </trkpt>
      <trkpt lat="42.225127" lon="1.873649">
        <ele>765.789073</ele>
        <time>2022-05-22T04:58:22.920Z</time>
      </trkpt>
      <trkpt lat="42.224967" lon="1.873586">
        <ele>765.348288</ele>
        <time>2022-05-22T04:58:24.923Z</time>
      </trkpt>
      <trkpt lat="42.224824" lon="1.873493">
        <ele>764.928511</ele>
        <time>2022-05-22T04:58:26.924Z</time>
      </trkpt>
      <trkpt lat="42.224675" lon="1.873401">
        <ele>764.495201</ele>
        <time>2022-05-22T04:58:28.921Z</time>
      </trkpt>
      <trkpt lat="42.224542" lon="1.873302">
        <ele>764.093547</ele>
        <time>2022-05-22T04:58:30.923Z</time>
      </trkpt>
      <trkpt lat="42.224410" lon="1.873209">
        <ele>763.699779</ele>
        <time>2022-05-22T04:58:32.926Z</time>
      </trkpt>
      <trkpt lat="42.224265" lon="1.873124">
        <ele>763.281713</ele>
        <time>2022-05-22T04:58:34.923Z</time>
      </trkpt>
      <trkpt lat="42.224114" lon="1.873058">
        <ele>762.861953</ele>
        <time>2022-05-22T04:58:36.925Z</time>
      </trkpt>
      <trkpt lat="42.223957" lon="1.873008">
        <ele>762.435333</ele>
        <time>2022-05-22T04:58:38.924Z</time>
      </trkpt>
      <trkpt lat="42.223791" lon="1.872949">
        <ele>761.981348</ele>
        <time>2022-05-22T04:58:40.928Z</time>
      </trkpt>
      <trkpt lat="42.223631" lon="1.872896">
        <ele>761.545638</ele>
        <time>2022-05-22T04:58:42.923Z</time>
      </trkpt>
      <trkpt lat="42.223484" lon="1.872843">
        <ele>761.314995</ele>
        <time>2022-05-22T04:58:44.935Z</time>
      </trkpt>
      <trkpt lat="42.223332" lon="1.872786">
        <ele>761.677542</ele>
        <time>2022-05-22T04:58:46.925Z</time>
      </trkpt>
      <trkpt lat="42.223175" lon="1.872759">
        <ele>762.041274</ele>
        <time>2022-05-22T04:58:48.945Z</time>
      </trkpt>
      <trkpt lat="42.223019" lon="1.872721">
        <ele>762.405580</ele>
        <time>2022-05-22T04:58:50.928Z</time>
      </trkpt>
      <trkpt lat="42.222871" lon="1.872667">
        <ele>762.757912</ele>
        <time>2022-05-22T04:58:52.921Z</time>
      </trkpt>
      <trkpt lat="42.222726" lon="1.872630">
        <ele>763.097049</ele>
        <time>2022-05-22T04:58:54.922Z</time>
      </trkpt>
      <trkpt lat="42.222587" lon="1.872609">
        <ele>763.418493</ele>
        <time>2022-05-22T04:58:56.921Z</time>
      </trkpt>
      <trkpt lat="42.222442" lon="1.872588">
        <ele>763.753643</ele>
        <time>2022-05-22T04:58:58.928Z</time>
      </trkpt>
      <trkpt lat="42.222298" lon="1.872526">
        <ele>764.101000</ele>
        <time>2022-05-22T04:59:00.926Z</time>
      </trkpt>
      <trkpt lat="42.222181" lon="1.872468">
        <ele>764.387436</ele>
        <time>2022-05-22T04:59:03.000Z</time>
      </trkpt>
      <trkpt lat="42.222049" lon="1.872413">
        <ele>764.704912</ele>
        <time>2022-05-22T04:59:04.929Z</time>
      </trkpt>
      <trkpt lat="42.221910" lon="1.872359">
        <ele>765.037320</ele>
        <time>2022-05-22T04:59:06.924Z</time>
      </trkpt>
      <trkpt lat="42.221778" lon="1.872303">
        <ele>765.355303</ele>
        <time>2022-05-22T04:59:08.958Z</time>
      </trkpt>
      <trkpt lat="42.221654" lon="1.872254">
        <ele>765.749357</ele>
        <time>2022-05-22T04:59:10.926Z</time>
      </trkpt>
      <trkpt lat="42.221534" lon="1.872195">
        <ele>766.143424</ele>
        <time>2022-05-22T04:59:12.927Z</time>
      </trkpt>
      <trkpt lat="42.221420" lon="1.872147">
        <ele>766.511899</ele>
        <time>2022-05-22T04:59:14.922Z</time>
      </trkpt>
      <trkpt lat="42.221312" lon="1.872091">
        <ele>766.868881</ele>
        <time>2022-05-22T04:59:16.923Z</time>
      </trkpt>
      <trkpt lat="42.221200" lon="1.872024">
        <ele>767.246876</ele>
        <time>2022-05-22T04:59:18.930Z</time>
      </trkpt>
      <trkpt lat="42.221089" lon="1.871943">
        <ele>767.636205</ele>
        <time>2022-05-22T04:59:20.922Z</time>
      </trkpt>
      <trkpt lat="42.220982" lon="1.871852">
        <ele>768.026404</ele>
        <time>2022-05-22T04:59:22.926Z</time>
      </trkpt>
      <trkpt lat="42.220872" lon="1.871762">
        <ele>768.423279</ele>
        <time>2022-05-22T04:59:24.921Z</time>
      </trkpt>
      <trkpt lat="42.220765" lon="1.871667">
        <ele>768.818426</ele>
        <time>2022-05-22T04:59:26.934Z</time>
      </trkpt>
      <trkpt lat="42.220660" lon="1.871546">
        <ele>769.244372</ele>
        <time>2022-05-22T04:59:28.957Z</time>
      </trkpt>
      <trkpt lat="42.220552" lon="1.871459">
        <ele>769.632426</ele>
        <time>2022-05-22T04:59:30.926Z</time>
      </trkpt>
      <trkpt lat="42.220448" lon="1.871358">
        <ele>770.027717</ele>
        <time>2022-05-22T04:59:32.927Z</time>
      </trkpt>
      <trkpt lat="42.220339" lon="1.871266">
        <ele>770.424360</ele>
        <time>2022-05-22T04:59:34.929Z</time>
      </trkpt>
      <trkpt lat="42.220236" lon="1.871170">
        <ele>770.810548</ele>
        <time>2022-05-22T04:59:36.951Z</time>
      </trkpt>
      <trkpt lat="42.220121" lon="1.871074">
        <ele>770.808417</ele>
        <time>2022-05-22T04:59:38.928Z</time>
      </trkpt>
      <trkpt lat="42.220005" lon="1.870980">
        <ele>770.659107</ele>
        <time>2022-05-22T04:59:40.928Z</time>
      </trkpt>
      <trkpt lat="42.219878" lon="1.870880">
        <ele>770.496851</ele>
        <time>2022-05-22T04:59:42.925Z</time>
      </trkpt>
      <trkpt lat="42.219780" lon="1.870787">
        <ele>770.364652</ele>
        <time>2022-05-22T04:59:44.934Z</time>
      </trkpt>
      <trkpt lat="42.219669" lon="1.870673">
        <ele>770.210736</ele>
        <time>2022-05-22T04:59:46.972Z</time>
      </trkpt>
      <trkpt lat="42.219544" lon="1.870602">
        <ele>770.061069</ele>
        <time>2022-05-22T04:59:48.924Z</time>
      </trkpt>
      <trkpt lat="42.219430" lon="1.870499">
        <ele>769.909683</ele>
        <time>2022-05-22T04:59:50.930Z</time>
      </trkpt>
      <trkpt lat="42.219321" lon="1.870378">
        <ele>769.753949</ele>
        <time>2022-05-22T04:59:52.926Z</time>
      </trkpt>
      <trkpt lat="42.219208" lon="1.870274">
        <ele>769.603020</ele>
        <time>2022-05-22T04:59:54.922Z</time>
      </trkpt>
      <trkpt lat="42.219098" lon="1.870168">
        <ele>769.453871</ele>
        <time>2022-05-22T04:59:56.956Z</time>
      </trkpt>
      <trkpt lat="42.218992" lon="1.870063">
        <ele>769.308778</ele>
        <time>2022-05-22T04:59:58.921Z</time>
      </trkpt>
      <trkpt lat="42.218895" lon="1.869968">
        <ele>769.176527</ele>
        <time>2022-05-22T05:00:00.924Z</time>
      </trkpt>
      <trkpt lat="42.218792" lon="1.869879">
        <ele>769.041566</ele>
        <time>2022-05-22T05:00:02.926Z</time>
      </trkpt>
      <trkpt lat="42.218697" lon="1.869785">
        <ele>768.884752</ele>
        <time>2022-05-22T05:00:04.929Z</time>
      </trkpt>
      <trkpt lat="42.218590" lon="1.869699">
        <ele>768.581228</ele>
        <time>2022-05-22T05:00:06.923Z</time>
      </trkpt>
      <trkpt lat="42.218496" lon="1.869612">
        <ele>768.303441</ele>
        <time>2022-05-22T05:00:08.930Z</time>
      </trkpt>
      <trkpt lat="42.218403" lon="1.869527">
        <ele>768.029701</ele>
        <time>2022-05-22T05:00:10.922Z</time>
      </trkpt>
      <trkpt lat="42.218305" lon="1.869430">
        <ele>767.733517</ele>
        <time>2022-05-22T05:00:12.933Z</time>
      </trkpt>
      <trkpt lat="42.218204" lon="1.869334">
        <ele>767.432447</ele>
        <time>2022-05-22T05:00:14.927Z</time>
      </trkpt>
      <trkpt lat="42.218104" lon="1.869229">
        <ele>767.123669</ele>
        <time>2022-05-22T05:00:16.916Z</time>
      </trkpt>
      <trkpt lat="42.218004" lon="1.869131">
        <ele>766.822482</ele>
        <time>2022-05-22T05:00:18.928Z</time>
      </trkpt>
      <trkpt lat="42.217897" lon="1.869049">
        <ele>766.522586</ele>
        <time>2022-05-22T05:00:20.937Z</time>
      </trkpt>
      <trkpt lat="42.217796" lon="1.868980">
        <ele>766.246678</ele>
        <time>2022-05-22T05:00:22.922Z</time>
      </trkpt>
      <trkpt lat="42.217692" lon="1.868913">
        <ele>765.965799</ele>
        <time>2022-05-22T05:00:24.942Z</time>
      </trkpt>
      <trkpt lat="42.217594" lon="1.868841">
        <ele>765.693849</ele>
        <time>2022-05-22T05:00:26.923Z</time>
      </trkpt>
      <trkpt lat="42.217512" lon="1.868774">
        <ele>765.460224</ele>
        <time>2022-05-22T05:00:28.916Z</time>
      </trkpt>
      <trkpt lat="42.217432" lon="1.868711">
        <ele>765.234480</ele>
        <time>2022-05-22T05:00:30.923Z</time>
      </trkpt>
      <trkpt lat="42.217320" lon="1.868656">
        <ele>764.943981</ele>
        <time>2022-05-22T05:00:33.922Z</time>
      </trkpt>
      <trkpt lat="42.217219" lon="1.868581">
        <ele>764.663016</ele>
        <time>2022-05-22T05:00:36.918Z</time>
      </trkpt>
      <trkpt lat="42.217124" lon="1.868523">
        <ele>764.245891</ele>
        <time>2022-05-22T05:00:39.924Z</time>
      </trkpt>
      <trkpt lat="42.217012" lon="1.868496">
        <ele>763.647188</ele>
        <time>2022-05-22T05:00:42.919Z</time>
      </trkpt>
      <trkpt lat="42.216909" lon="1.868467">
        <ele>763.093508</ele>
        <time>2022-05-22T05:00:45.930Z</time>
      </trkpt>
      <trkpt lat="42.216795" lon="1.868419">
        <ele>762.465109</ele>
        <time>2022-05-22T05:00:48.920Z</time>
      </trkpt>
      <trkpt lat="42.216705" lon="1.868399">
        <ele>761.985126</ele>
        <time>2022-05-22T05:00:50.924Z</time>
      </trkpt>
      <trkpt lat="42.216610" lon="1.868388">
        <ele>761.483369</ele>
        <time>2022-05-22T05:00:52.926Z</time>
      </trkpt>
      <trkpt lat="42.216492" lon="1.868382">
        <ele>760.861972</ele>
        <time>2022-05-22T05:00:55.931Z</time>
      </trkpt>
      <trkpt lat="42.216377" lon="1.868390">
        <ele>760.255999</ele>
        <time>2022-05-22T05:00:58.923Z</time>
      </trkpt>
      <trkpt lat="42.216274" lon="1.868393">
        <ele>759.713851</ele>
        <time>2022-05-22T05:01:01.932Z</time>
      </trkpt>
      <trkpt lat="42.216187" lon="1.868321">
        <ele>759.176873</ele>
        <time>2022-05-22T05:01:04.925Z</time>
      </trkpt>
      <trkpt lat="42.216099" lon="1.868221">
        <ele>758.571609</ele>
        <time>2022-05-22T05:01:06.928Z</time>
      </trkpt>
      <trkpt lat="42.216021" lon="1.868084">
        <ele>757.898131</ele>
        <time>2022-05-22T05:01:08.928Z</time>
      </trkpt>
      <trkpt lat="42.215906" lon="1.867916">
        <ele>757.006536</ele>
        <time>2022-05-22T05:01:10.925Z</time>
      </trkpt>
      <trkpt lat="42.215835" lon="1.867830">
        <ele>756.504600</ele>
        <time>2022-05-22T05:01:11.925Z</time>
      </trkpt>
      <trkpt lat="42.215708" lon="1.867672">
        <ele>755.595840</ele>
        <time>2022-05-22T05:01:13.925Z</time>
      </trkpt>
      <trkpt lat="42.215594" lon="1.867515">
        <ele>755.082215</ele>
        <time>2022-05-22T05:01:15.926Z</time>
      </trkpt>
      <trkpt lat="42.215515" lon="1.867349">
        <ele>755.077267</ele>
        <time>2022-05-22T05:01:17.926Z</time>
      </trkpt>
      <trkpt lat="42.215485" lon="1.867180">
        <ele>755.072910</ele>
        <time>2022-05-22T05:01:19.930Z</time>
      </trkpt>
      <trkpt lat="42.215489" lon="1.867021">
        <ele>755.068920</ele>
        <time>2022-05-22T05:01:21.932Z</time>
      </trkpt>
      <trkpt lat="42.215497" lon="1.866849">
        <ele>755.064599</ele>
        <time>2022-05-22T05:01:23.921Z</time>
      </trkpt>
      <trkpt lat="42.215504" lon="1.866718">
        <ele>755.061306</ele>
        <time>2022-05-22T05:01:25.928Z</time>
      </trkpt>
      <trkpt lat="42.215526" lon="1.866546">
        <ele>755.056929</ele>
        <time>2022-05-22T05:01:28.930Z</time>
      </trkpt>
      <trkpt lat="42.215562" lon="1.866375">
        <ele>755.052472</ele>
        <time>2022-05-22T05:01:31.929Z</time>
      </trkpt>
      <trkpt lat="42.215589" lon="1.866217">
        <ele>755.048406</ele>
        <time>2022-05-22T05:01:34.929Z</time>
      </trkpt>
      <trkpt lat="42.215607" lon="1.866074">
        <ele>755.044769</ele>
        <time>2022-05-22T05:01:38.927Z</time>
      </trkpt>
      <trkpt lat="42.215649" lon="1.865934">
        <ele>755.040981</ele>
        <time>2022-05-22T05:01:43.929Z</time>
      </trkpt>
      <trkpt lat="42.215703" lon="1.865820">
        <ele>755.037588</ele>
        <time>2022-05-22T05:01:47.929Z</time>
      </trkpt>
      <trkpt lat="42.215770" lon="1.865712">
        <ele>755.034056</ele>
        <time>2022-05-22T05:01:51.926Z</time>
      </trkpt>
      <trkpt lat="42.215839" lon="1.865613">
        <ele>755.030647</ele>
        <time>2022-05-22T05:01:55.923Z</time>
      </trkpt>
      <trkpt lat="42.215920" lon="1.865544">
        <ele>755.027404</ele>
        <time>2022-05-22T05:01:59.931Z</time>
      </trkpt>
      <trkpt lat="42.216004" lon="1.865460">
        <ele>755.023865</ele>
        <time>2022-05-22T05:02:04.930Z</time>
      </trkpt>
      <trkpt lat="42.216091" lon="1.865403">
        <ele>755.774254</ele>
        <time>2022-05-22T05:02:09.928Z</time>
      </trkpt>
      <trkpt lat="42.216182" lon="1.865395">
        <ele>756.559549</ele>
        <time>2022-05-22T05:02:13.924Z</time>
      </trkpt>
      <trkpt lat="42.216298" lon="1.865363">
        <ele>757.579103</ele>
        <time>2022-05-22T05:02:17.926Z</time>
      </trkpt>
      <trkpt lat="42.216396" lon="1.865342">
        <ele>758.433580</ele>
        <time>2022-05-22T05:02:21.927Z</time>
      </trkpt>
      <trkpt lat="42.216495" lon="1.865312">
        <ele>759.307312</ele>
        <time>2022-05-22T05:02:25.920Z</time>
      </trkpt>
      <trkpt lat="42.216589" lon="1.865273">
        <ele>760.154134</ele>
        <time>2022-05-22T05:02:30.918Z</time>
      </trkpt>
      <trkpt lat="42.216697" lon="1.865283">
        <ele>761.086347</ele>
        <time>2022-05-22T05:02:34.925Z</time>
      </trkpt>
      <trkpt lat="42.216790" lon="1.865294">
        <ele>761.890271</ele>
        <time>2022-05-22T05:02:38.922Z</time>
      </trkpt>
      <trkpt lat="42.216889" lon="1.865339">
        <ele>762.789808</ele>
        <time>2022-05-22T05:02:43.921Z</time>
      </trkpt>
      <trkpt lat="42.216981" lon="1.865395">
        <ele>763.658836</ele>
        <time>2022-05-22T05:02:48.930Z</time>
      </trkpt>
      <trkpt lat="42.217077" lon="1.865448">
        <ele>764.551962</ele>
        <time>2022-05-22T05:02:53.926Z</time>
      </trkpt>
      <trkpt lat="42.217186" lon="1.865481">
        <ele>765.513907</ele>
        <time>2022-05-22T05:02:58.925Z</time>
      </trkpt>
      <trkpt lat="42.217273" lon="1.865516">
        <ele>766.295643</ele>
        <time>2022-05-22T05:03:02.927Z</time>
      </trkpt>
      <trkpt lat="42.217360" lon="1.865545">
        <ele>767.067324</ele>
        <time>2022-05-22T05:03:06.930Z</time>
      </trkpt>
      <trkpt lat="42.217469" lon="1.865564">
        <ele>768.013753</ele>
        <time>2022-05-22T05:03:12.926Z</time>
      </trkpt>
      <trkpt lat="42.217557" lon="1.865539">
        <ele>768.788145</ele>
        <time>2022-05-22T05:03:17.921Z</time>
      </trkpt>
      <trkpt lat="42.217628" lon="1.865453">
        <ele>769.609510</ele>
        <time>2022-05-22T05:03:22.926Z</time>
      </trkpt>
      <trkpt lat="42.217664" lon="1.865327">
        <ele>770.470809</ele>
        <time>2022-05-22T05:03:27.931Z</time>
      </trkpt>
      <trkpt lat="42.217698" lon="1.865212">
        <ele>770.981022</ele>
        <time>2022-05-22T05:03:32.931Z</time>
      </trkpt>
      <trkpt lat="42.217699" lon="1.865079">
        <ele>771.512405</ele>
        <time>2022-05-22T05:03:38.928Z</time>
      </trkpt>
      <trkpt lat="42.217723" lon="1.864943">
        <ele>772.070957</ele>
        <time>2022-05-22T05:03:44.930Z</time>
      </trkpt>
      <trkpt lat="42.217714" lon="1.864796">
        <ele>772.660248</ele>
        <time>2022-05-22T05:03:50.926Z</time>
      </trkpt>
      <trkpt lat="42.217712" lon="1.864658">
        <ele>773.211685</ele>
        <time>2022-05-22T05:03:56.937Z</time>
      </trkpt>
      <trkpt lat="42.217746" lon="1.864533">
        <ele>773.743695</ele>
        <time>2022-05-22T05:04:02.929Z</time>
      </trkpt>
      <trkpt lat="42.217763" lon="1.864412">
        <ele>774.235730</ele>
        <time>2022-05-22T05:04:08.926Z</time>
      </trkpt>
      <trkpt lat="42.217779" lon="1.864268">
        <ele>774.817470</ele>
        <time>2022-05-22T05:04:14.926Z</time>
      </trkpt>
      <trkpt lat="42.217808" lon="1.864129">
        <ele>775.394410</ele>
        <time>2022-05-22T05:04:19.931Z</time>
      </trkpt>
      <trkpt lat="42.217814" lon="1.863994">
        <ele>775.934725</ele>
        <time>2022-05-22T05:04:25.919Z</time>
      </trkpt>
      <trkpt lat="42.217819" lon="1.863856">
        <ele>776.486715</ele>
        <time>2022-05-22T05:04:33.924Z</time>
      </trkpt>
      <trkpt lat="42.217842" lon="1.863728">
        <ele>777.012930</ele>
        <time>2022-05-22T05:04:39.932Z</time>
      </trkpt>
      <trkpt lat="42.217860" lon="1.863596">
        <ele>777.549154</ele>
        <time>2022-05-22T05:04:45.933Z</time>
      </trkpt>
      <trkpt lat="42.217870" lon="1.863462">
        <ele>778.087214</ele>
        <time>2022-05-22T05:04:50.925Z</time>
      </trkpt>
      <trkpt lat="42.217880" lon="1.863340">
        <ele>778.577598</ele>
        <time>2022-05-22T05:04:54.926Z</time>
      </trkpt>
      <trkpt lat="42.217896" lon="1.863219">
        <ele>779.068655</ele>
        <time>2022-05-22T05:04:58.927Z</time>
      </trkpt>
      <trkpt lat="42.217912" lon="1.863094">
        <ele>779.575451</ele>
        <time>2022-05-22T05:05:03.923Z</time>
      </trkpt>
      <trkpt lat="42.217944" lon="1.862955">
        <ele>780.156988</ele>
        <time>2022-05-22T05:05:09.925Z</time>
      </trkpt>
      <trkpt lat="42.217970" lon="1.862831">
        <ele>780.180245</ele>
        <time>2022-05-22T05:05:14.921Z</time>
      </trkpt>
      <trkpt lat="42.217992" lon="1.862710">
        <ele>780.142232</ele>
        <time>2022-05-22T05:05:19.919Z</time>
      </trkpt>
      <trkpt lat="42.218019" lon="1.862585">
        <ele>780.102506</ele>
        <time>2022-05-22T05:05:24.926Z</time>
      </trkpt>
      <trkpt lat="42.218031" lon="1.862458">
        <ele>780.063445</ele>
        <time>2022-05-22T05:05:29.929Z</time>
      </trkpt>
      <trkpt lat="42.218021" lon="1.862326">
        <ele>780.022962</ele>
        <time>2022-05-22T05:05:34.931Z</time>
      </trkpt>
      <trkpt lat="42.218023" lon="1.862193">
        <ele>779.982377</ele>
        <time>2022-05-22T05:05:39.924Z</time>
      </trkpt>
      <trkpt lat="42.218013" lon="1.862063">
        <ele>779.942501</ele>
        <time>2022-05-22T05:05:44.924Z</time>
      </trkpt>
      <trkpt lat="42.218010" lon="1.861938">
        <ele>779.904344</ele>
        <time>2022-05-22T05:05:48.929Z</time>
      </trkpt>
      <trkpt lat="42.218023" lon="1.861792">
        <ele>779.859479</ele>
        <time>2022-05-22T05:05:52.922Z</time>
      </trkpt>
      <trkpt lat="42.218033" lon="1.861652">
        <ele>779.816568</ele>
        <time>2022-05-22T05:05:56.932Z</time>
      </trkpt>
      <trkpt lat="42.218067" lon="1.861520">
        <ele>779.773929</ele>
        <time>2022-05-22T05:06:00.917Z</time>
      </trkpt>
      <trkpt lat="42.218124" lon="1.861402">
        <ele>779.730947</ele>
        <time>2022-05-22T05:06:03.921Z</time>
      </trkpt>
      <trkpt lat="42.218147" lon="1.861254">
        <ele>779.684810</ele>
        <time>2022-05-22T05:06:06.926Z</time>
      </trkpt>
      <trkpt lat="42.218161" lon="1.861132">
        <ele>779.647144</ele>
        <time>2022-05-22T05:06:08.924Z</time>
      </trkpt>
      <trkpt lat="42.218196" lon="1.860969">
        <ele>779.595366</ele>
        <time>2022-05-22T05:06:11.929Z</time>
      </trkpt>
      <trkpt lat="42.218241" lon="1.860860">
        <ele>779.557293</ele>
        <time>2022-05-22T05:06:14.922Z</time>
      </trkpt>
      <trkpt lat="42.218273" lon="1.860744">
        <ele>779.519526</ele>
        <time>2022-05-22T05:06:17.922Z</time>
      </trkpt>
      <trkpt lat="42.218298" lon="1.860613">
        <ele>779.478254</ele>
        <time>2022-05-22T05:06:20.921Z</time>
      </trkpt>
      <trkpt lat="42.218302" lon="1.860477">
        <ele>779.741556</ele>
        <time>2022-05-22T05:06:23.926Z</time>
      </trkpt>
      <trkpt lat="42.218324" lon="1.860352">
        <ele>780.021612</ele>
        <time>2022-05-22T05:06:26.922Z</time>
      </trkpt>
      <trkpt lat="42.218385" lon="1.860231">
        <ele>780.340668</ele>
        <time>2022-05-22T05:06:29.926Z</time>
      </trkpt>
      <trkpt lat="42.218450" lon="1.860120">
        <ele>780.649116</ele>
        <time>2022-05-22T05:06:32.922Z</time>
      </trkpt>
      <trkpt lat="42.218492" lon="1.860004">
        <ele>780.930566</ele>
        <time>2022-05-22T05:06:35.918Z</time>
      </trkpt>
      <trkpt lat="42.218583" lon="1.859898">
        <ele>781.284290</ele>
        <time>2022-05-22T05:06:39.927Z</time>
      </trkpt>
      <trkpt lat="42.218667" lon="1.859821">
        <ele>781.583111</ele>
        <time>2022-05-22T05:06:42.927Z</time>
      </trkpt>
      <trkpt lat="42.218732" lon="1.859723">
        <ele>781.869870</ele>
        <time>2022-05-22T05:06:46.920Z</time>
      </trkpt>
      <trkpt lat="42.218784" lon="1.859589">
        <ele>782.199622</ele>
        <time>2022-05-22T05:06:50.923Z</time>
      </trkpt>
      <trkpt lat="42.218807" lon="1.859468">
        <ele>782.471918</ele>
        <time>2022-05-22T05:06:53.929Z</time>
      </trkpt>
      <trkpt lat="42.218850" lon="1.859336">
        <ele>782.786246</ele>
        <time>2022-05-22T05:06:57.930Z</time>
      </trkpt>
      <trkpt lat="42.218915" lon="1.859215">
        <ele>783.112071</ele>
        <time>2022-05-22T05:07:02.927Z</time>
      </trkpt>
      <trkpt lat="42.218943" lon="1.859085">
        <ele>783.407175</ele>
        <time>2022-05-22T05:07:07.914Z</time>
      </trkpt>
      <trkpt lat="42.218963" lon="1.858940">
        <ele>783.728669</ele>
        <time>2022-05-22T05:07:11.931Z</time>
      </trkpt>
      <trkpt lat="42.218967" lon="1.858785">
        <ele>784.066730</ele>
        <time>2022-05-22T05:07:15.924Z</time>
      </trkpt>
      <trkpt lat="42.218967" lon="1.858663">
        <ele>784.332656</ele>
        <time>2022-05-22T05:07:18.926Z</time>
      </trkpt>
      <trkpt lat="42.218947" lon="1.858525">
        <ele>784.639162</ele>
        <time>2022-05-22T05:07:22.926Z</time>
      </trkpt>
      <trkpt lat="42.218913" lon="1.858390">
        <ele>784.839766</ele>
        <time>2022-05-22T05:07:27.930Z</time>
      </trkpt>
      <trkpt lat="42.218892" lon="1.858239">
        <ele>784.971827</ele>
        <time>2022-05-22T05:07:31.931Z</time>
      </trkpt>
      <trkpt lat="42.218893" lon="1.858095">
        <ele>785.095608</ele>
        <time>2022-05-22T05:07:35.929Z</time>
      </trkpt>
      <trkpt lat="42.218923" lon="1.857941">
        <ele>785.232482</ele>
        <time>2022-05-22T05:07:39.918Z</time>
      </trkpt>
      <trkpt lat="42.218969" lon="1.857828">
        <ele>785.343318</ele>
        <time>2022-05-22T05:07:42.927Z</time>
      </trkpt>
      <trkpt lat="42.218994" lon="1.857696">
        <ele>785.460430</ele>
        <time>2022-05-22T05:07:46.926Z</time>
      </trkpt>
      <trkpt lat="42.219029" lon="1.857560">
        <ele>785.584186</ele>
        <time>2022-05-22T05:07:50.924Z</time>
      </trkpt>
      <trkpt lat="42.219061" lon="1.857438">
        <ele>785.695434</ele>
        <time>2022-05-22T05:07:54.928Z</time>
      </trkpt>
      <trkpt lat="42.219059" lon="1.857298">
        <ele>785.815793</ele>
        <time>2022-05-22T05:07:58.931Z</time>
      </trkpt>
      <trkpt lat="42.219050" lon="1.857162">
        <ele>785.933158</ele>
        <time>2022-05-22T05:08:02.927Z</time>
      </trkpt>
      <trkpt lat="42.219049" lon="1.857026">
        <ele>786.050062</ele>
        <time>2022-05-22T05:08:06.928Z</time>
      </trkpt>
      <trkpt lat="42.219025" lon="1.856893">
        <ele>786.167727</ele>
        <time>2022-05-22T05:08:11.927Z</time>
      </trkpt>
      <trkpt lat="42.218998" lon="1.856753">
        <ele>786.292078</ele>
        <time>2022-05-22T05:08:16.922Z</time>
      </trkpt>
      <trkpt lat="42.218948" lon="1.856639">
        <ele>786.405961</ele>
        <time>2022-05-22T05:08:20.923Z</time>
      </trkpt>
      <trkpt lat="42.218909" lon="1.856528">
        <ele>786.511565</ele>
        <time>2022-05-22T05:08:24.930Z</time>
      </trkpt>
      <trkpt lat="42.218892" lon="1.856384">
        <ele>786.636903</ele>
        <time>2022-05-22T05:08:29.931Z</time>
      </trkpt>
      <trkpt lat="42.218884" lon="1.856243">
        <ele>786.758455</ele>
        <time>2022-05-22T05:08:33.930Z</time>
      </trkpt>
      <trkpt lat="42.218884" lon="1.856115">
        <ele>786.992311</ele>
        <time>2022-05-22T05:08:37.925Z</time>
      </trkpt>
      <trkpt lat="42.218914" lon="1.855999">
        <ele>788.112859</ele>
        <time>2022-05-22T05:08:40.923Z</time>
      </trkpt>
      <trkpt lat="42.218949" lon="1.855885">
        <ele>789.238315</ele>
        <time>2022-05-22T05:08:43.933Z</time>
      </trkpt>
      <trkpt lat="42.218987" lon="1.855748">
        <ele>790.572484</ele>
        <time>2022-05-22T05:08:47.921Z</time>
      </trkpt>
      <trkpt lat="42.219041" lon="1.855635">
        <ele>791.798942</ele>
        <time>2022-05-22T05:08:50.921Z</time>
      </trkpt>
      <trkpt lat="42.219119" lon="1.855568">
        <ele>792.937341</ele>
        <time>2022-05-22T05:08:53.922Z</time>
      </trkpt>
      <trkpt lat="42.219210" lon="1.855492">
        <ele>794.254972</ele>
        <time>2022-05-22T05:08:57.925Z</time>
      </trkpt>
      <trkpt lat="42.219309" lon="1.855421">
        <ele>795.635378</ele>
        <time>2022-05-22T05:09:01.919Z</time>
      </trkpt>
      <trkpt lat="42.219394" lon="1.855362">
        <ele>796.812297</ele>
        <time>2022-05-22T05:09:05.929Z</time>
      </trkpt>
      <trkpt lat="42.219467" lon="1.855270">
        <ele>798.041954</ele>
        <time>2022-05-22T05:09:09.924Z</time>
      </trkpt>
      <trkpt lat="42.219525" lon="1.855173">
        <ele>799.178911</ele>
        <time>2022-05-22T05:09:12.926Z</time>
      </trkpt>
      <trkpt lat="42.219561" lon="1.855045">
        <ele>800.427580</ele>
        <time>2022-05-22T05:09:16.930Z</time>
      </trkpt>
      <trkpt lat="42.219671" lon="1.854984">
        <ele>801.891944</ele>
        <time>2022-05-22T05:09:21.923Z</time>
      </trkpt>
      <trkpt lat="42.219762" lon="1.854986">
        <ele>803.012699</ele>
        <time>2022-05-22T05:09:25.924Z</time>
      </trkpt>
      <trkpt lat="42.219860" lon="1.855032">
        <ele>804.290342</ele>
        <time>2022-05-22T05:09:30.928Z</time>
      </trkpt>
      <trkpt lat="42.219951" lon="1.855086">
        <ele>805.514384</ele>
        <time>2022-05-22T05:09:34.927Z</time>
      </trkpt>
      <trkpt lat="42.220046" lon="1.855105">
        <ele>806.697012</ele>
        <time>2022-05-22T05:09:38.920Z</time>
      </trkpt>
      <trkpt lat="42.220138" lon="1.855054">
        <ele>807.921688</ele>
        <time>2022-05-22T05:09:42.923Z</time>
      </trkpt>
      <trkpt lat="42.220211" lon="1.854971">
        <ele>809.144096</ele>
        <time>2022-05-22T05:09:46.925Z</time>
      </trkpt>
      <trkpt lat="42.220267" lon="1.854873">
        <ele>810.851642</ele>
        <time>2022-05-22T05:09:51.926Z</time>
      </trkpt>
      <trkpt lat="42.220290" lon="1.854739">
        <ele>812.749138</ele>
        <time>2022-05-22T05:09:58.929Z</time>
      </trkpt>
      <trkpt lat="42.220357" lon="1.854629">
        <ele>814.713863</ele>
        <time>2022-05-22T05:10:05.928Z</time>
      </trkpt>
      <trkpt lat="42.220439" lon="1.854572">
        <ele>816.431808</ele>
        <time>2022-05-22T05:10:13.924Z</time>
      </trkpt>
      <trkpt lat="42.220534" lon="1.854562">
        <ele>818.206769</ele>
        <time>2022-05-22T05:10:33.927Z</time>
      </trkpt>
      <trkpt lat="42.220616" lon="1.854614">
        <ele>819.894259</ele>
        <time>2022-05-22T05:10:44.929Z</time>
      </trkpt>
      <trkpt lat="42.220692" lon="1.854538">
        <ele>821.655867</ele>
        <time>2022-05-22T05:11:03.946Z</time>
      </trkpt>
      <trkpt lat="42.220805" lon="1.854470">
        <ele>823.960309</ele>
        <time>2022-05-22T05:16:12.944Z</time>
      </trkpt>
      <trkpt lat="42.220886" lon="1.854403">
        <ele>825.729695</ele>
        <time>2022-05-22T05:16:18.928Z</time>
      </trkpt>
      <trkpt lat="42.220986" lon="1.854330">
        <ele>827.847199</ele>
        <time>2022-05-22T05:16:24.944Z</time>
      </trkpt>
      <trkpt lat="42.221073" lon="1.854283">
        <ele>829.592654</ele>
        <time>2022-05-22T05:16:29.930Z</time>
      </trkpt>
      <trkpt lat="42.221166" lon="1.854246">
        <ele>831.398617</ele>
        <time>2022-05-22T05:16:34.936Z</time>
      </trkpt>
      <trkpt lat="42.221255" lon="1.854227">
        <ele>833.077037</ele>
        <time>2022-05-22T05:16:39.924Z</time>
      </trkpt>
      <trkpt lat="42.221352" lon="1.854212">
        <ele>834.895694</ele>
        <time>2022-05-22T05:16:44.931Z</time>
      </trkpt>
      <trkpt lat="42.221450" lon="1.854175">
        <ele>836.791178</ele>
        <time>2022-05-22T05:16:49.936Z</time>
      </trkpt>
      <trkpt lat="42.221528" lon="1.854110">
        <ele>838.498506</ele>
        <time>2022-05-22T05:16:53.932Z</time>
      </trkpt>
      <trkpt lat="42.221609" lon="1.854039">
        <ele>840.297325</ele>
        <time>2022-05-22T05:16:57.925Z</time>
      </trkpt>
      <trkpt lat="42.221683" lon="1.853964">
        <ele>842.020811</ele>
        <time>2022-05-22T05:17:02.924Z</time>
      </trkpt>
      <trkpt lat="42.221747" lon="1.853861">
        <ele>842.667189</ele>
        <time>2022-05-22T05:17:07.928Z</time>
      </trkpt>
      <trkpt lat="42.221764" lon="1.853727">
        <ele>842.884770</ele>
        <time>2022-05-22T05:17:12.938Z</time>
      </trkpt>
      <trkpt lat="42.221761" lon="1.853604">
        <ele>843.081729</ele>
        <time>2022-05-22T05:17:16.931Z</time>
      </trkpt>
      <trkpt lat="42.221745" lon="1.853469">
        <ele>843.300536</ele>
        <time>2022-05-22T05:17:21.937Z</time>
      </trkpt>
      <trkpt lat="42.221746" lon="1.853348">
        <ele>843.494200</ele>
        <time>2022-05-22T05:17:25.930Z</time>
      </trkpt>
      <trkpt lat="42.221740" lon="1.853201">
        <ele>843.729820</ele>
        <time>2022-05-22T05:17:30.922Z</time>
      </trkpt>
      <trkpt lat="42.221729" lon="1.853050">
        <ele>843.972651</ele>
        <time>2022-05-22T05:17:35.924Z</time>
      </trkpt>
      <trkpt lat="42.221705" lon="1.852931">
        <ele>844.170038</ele>
        <time>2022-05-22T05:17:39.930Z</time>
      </trkpt>
      <trkpt lat="42.221679" lon="1.852801">
        <ele>844.385548</ele>
        <time>2022-05-22T05:17:43.925Z</time>
      </trkpt>
      <trkpt lat="42.221637" lon="1.852666">
        <ele>844.619897</ele>
        <time>2022-05-22T05:17:47.933Z</time>
      </trkpt>
      <trkpt lat="42.221585" lon="1.852548">
        <ele>844.839655</ele>
        <time>2022-05-22T05:17:51.933Z</time>
      </trkpt>
      <trkpt lat="42.221521" lon="1.852437">
        <ele>845.064798</ele>
        <time>2022-05-22T05:17:55.937Z</time>
      </trkpt>
      <trkpt lat="42.221467" lon="1.852316">
        <ele>845.290896</ele>
        <time>2022-05-22T05:17:59.930Z</time>
      </trkpt>
      <trkpt lat="42.221403" lon="1.852196">
        <ele>845.527570</ele>
        <time>2022-05-22T05:18:03.922Z</time>
      </trkpt>
      <trkpt lat="42.221334" lon="1.852074">
        <ele>845.773253</ele>
        <time>2022-05-22T05:18:07.926Z</time>
      </trkpt>
      <trkpt lat="42.221272" lon="1.851953">
        <ele>846.008741</ele>
        <time>2022-05-22T05:18:11.929Z</time>
      </trkpt>
      <trkpt lat="42.221221" lon="1.851839">
        <ele>846.221898</ele>
        <time>2022-05-22T05:18:15.928Z</time>
      </trkpt>
      <trkpt lat="42.221173" lon="1.851729">
        <ele>846.449424</ele>
        <time>2022-05-22T05:18:19.922Z</time>
      </trkpt>
      <trkpt lat="42.221118" lon="1.851628">
        <ele>846.802461</ele>
        <time>2022-05-22T05:18:23.925Z</time>
      </trkpt>
      <trkpt lat="42.221059" lon="1.851521">
        <ele>847.178128</ele>
        <time>2022-05-22T05:18:27.933Z</time>
      </trkpt>
      <trkpt lat="42.221037" lon="1.851396">
        <ele>847.539937</ele>
        <time>2022-05-22T05:18:31.924Z</time>
      </trkpt>
      <trkpt lat="42.221039" lon="1.851240">
        <ele>847.979305</ele>
        <time>2022-05-22T05:18:36.925Z</time>
      </trkpt>
      <trkpt lat="42.221044" lon="1.851100">
        <ele>848.374009</ele>
        <time>2022-05-22T05:18:40.923Z</time>
      </trkpt>
      <trkpt lat="42.221060" lon="1.850961">
        <ele>848.770139</ele>
        <time>2022-05-22T05:18:44.930Z</time>
      </trkpt>
      <trkpt lat="42.221081" lon="1.850834">
        <ele>849.136582</ele>
        <time>2022-05-22T05:18:48.931Z</time>
      </trkpt>
      <trkpt lat="42.221071" lon="1.850711">
        <ele>849.485036</ele>
        <time>2022-05-22T05:18:52.934Z</time>
      </trkpt>
      <trkpt lat="42.221084" lon="1.850591">
        <ele>849.826557</ele>
        <time>2022-05-22T05:18:56.928Z</time>
      </trkpt>
      <trkpt lat="42.221085" lon="1.850452">
        <ele>850.218005</ele>
        <time>2022-05-22T05:19:00.930Z</time>
      </trkpt>
      <trkpt lat="42.221102" lon="1.850316">
        <ele>850.606403</ele>
        <time>2022-05-22T05:19:04.926Z</time>
      </trkpt>
      <trkpt lat="42.221114" lon="1.850181">
        <ele>850.989297</ele>
        <time>2022-05-22T05:19:08.924Z</time>
      </trkpt>
      <trkpt lat="42.221105" lon="1.850044">
        <ele>851.376609</ele>
        <time>2022-05-22T05:19:12.930Z</time>
      </trkpt>
      <trkpt lat="42.221115" lon="1.849911">
        <ele>851.753067</ele>
        <time>2022-05-22T05:19:16.924Z</time>
      </trkpt>
      <trkpt lat="42.221109" lon="1.849780">
        <ele>852.122672</ele>
        <time>2022-05-22T05:19:20.929Z</time>
      </trkpt>
      <trkpt lat="42.221099" lon="1.849645">
        <ele>852.504734</ele>
        <time>2022-05-22T05:19:24.928Z</time>
      </trkpt>
      <trkpt lat="42.221103" lon="1.849510">
        <ele>852.885203</ele>
        <time>2022-05-22T05:19:28.921Z</time>
      </trkpt>
      <trkpt lat="42.221119" lon="1.849370">
        <ele>853.308773</ele>
        <time>2022-05-22T05:19:32.923Z</time>
      </trkpt>
      <trkpt lat="42.221117" lon="1.849223">
        <ele>853.931559</ele>
        <time>2022-05-22T05:19:36.928Z</time>
      </trkpt>
      <trkpt lat="42.221100" lon="1.849087">
        <ele>854.515793</ele>
        <time>2022-05-22T05:19:40.930Z</time>
      </trkpt>
      <trkpt lat="42.221047" lon="1.848988">
        <ele>855.033252</ele>
        <time>2022-05-22T05:19:43.925Z</time>
      </trkpt>
      <trkpt lat="42.220988" lon="1.848868">
        <ele>855.643391</ele>
        <time>2022-05-22T05:19:47.926Z</time>
      </trkpt>
      <trkpt lat="42.220942" lon="1.848740">
        <ele>856.246060</ele>
        <time>2022-05-22T05:19:51.929Z</time>
      </trkpt>
      <trkpt lat="42.220897" lon="1.848610">
        <ele>856.853919</ele>
        <time>2022-05-22T05:19:55.923Z</time>
      </trkpt>
      <trkpt lat="42.220848" lon="1.848493">
        <ele>857.423286</ele>
        <time>2022-05-22T05:19:59.926Z</time>
      </trkpt>
      <trkpt lat="42.220788" lon="1.848367">
        <ele>858.057832</ele>
        <time>2022-05-22T05:20:04.926Z</time>
      </trkpt>
      <trkpt lat="42.220741" lon="1.848235">
        <ele>858.678248</ele>
        <time>2022-05-22T05:20:09.924Z</time>
      </trkpt>
      <trkpt lat="42.220671" lon="1.848159">
        <ele>859.192015</ele>
        <time>2022-05-22T05:20:13.929Z</time>
      </trkpt>
      <trkpt lat="42.220587" lon="1.848097">
        <ele>859.739580</ele>
        <time>2022-05-22T05:20:18.924Z</time>
      </trkpt>
      <trkpt lat="42.220494" lon="1.848073">
        <ele>860.281160</ele>
        <time>2022-05-22T05:20:22.931Z</time>
      </trkpt>
      <trkpt lat="42.220395" lon="1.848050">
        <ele>860.855752</ele>
        <time>2022-05-22T05:20:26.921Z</time>
      </trkpt>
      <trkpt lat="42.220304" lon="1.848008">
        <ele>861.405829</ele>
        <time>2022-05-22T05:20:30.933Z</time>
      </trkpt>
      <trkpt lat="42.220220" lon="1.847945">
        <ele>861.955440</ele>
        <time>2022-05-22T05:20:34.924Z</time>
      </trkpt>
      <trkpt lat="42.220178" lon="1.847837">
        <ele>862.472167</ele>
        <time>2022-05-22T05:20:37.925Z</time>
      </trkpt>
      <trkpt lat="42.220169" lon="1.847713">
        <ele>862.999946</ele>
        <time>2022-05-22T05:20:40.925Z</time>
      </trkpt>
      <trkpt lat="42.220137" lon="1.847567">
        <ele>863.608200</ele>
        <time>2022-05-22T05:20:44.932Z</time>
      </trkpt>
      <trkpt lat="42.220117" lon="1.847447">
        <ele>863.971928</ele>
        <time>2022-05-22T05:20:48.928Z</time>
      </trkpt>
      <trkpt lat="42.220090" lon="1.847313">
        <ele>864.382584</ele>
        <time>2022-05-22T05:20:54.930Z</time>
      </trkpt>
      <trkpt lat="42.220021" lon="1.847193">
        <ele>864.831840</ele>
        <time>2022-05-22T05:20:59.935Z</time>
      </trkpt>
      <trkpt lat="42.219950" lon="1.847090">
        <ele>865.247947</ele>
        <time>2022-05-22T05:21:03.929Z</time>
      </trkpt>
      <trkpt lat="42.219868" lon="1.846989">
        <ele>865.691131</ele>
        <time>2022-05-22T05:21:08.927Z</time>
      </trkpt>
      <trkpt lat="42.219805" lon="1.846869">
        <ele>866.126107</ele>
        <time>2022-05-22T05:21:13.925Z</time>
      </trkpt>
      <trkpt lat="42.219792" lon="1.846746">
        <ele>866.493518</ele>
        <time>2022-05-22T05:21:16.930Z</time>
      </trkpt>
      <trkpt lat="42.219772" lon="1.846622">
        <ele>866.868796</ele>
        <time>2022-05-22T05:21:19.921Z</time>
      </trkpt>
      <trkpt lat="42.219749" lon="1.846494">
        <ele>867.258290</ele>
        <time>2022-05-22T05:21:23.928Z</time>
      </trkpt>
      <trkpt lat="42.219754" lon="1.846363">
        <ele>867.646187</ele>
        <time>2022-05-22T05:21:27.927Z</time>
      </trkpt>
      <trkpt lat="42.219752" lon="1.846235">
        <ele>868.024783</ele>
        <time>2022-05-22T05:21:31.928Z</time>
      </trkpt>
      <trkpt lat="42.219755" lon="1.846094">
        <ele>868.441909</ele>
        <time>2022-05-22T05:21:35.924Z</time>
      </trkpt>
      <trkpt lat="42.219733" lon="1.845957">
        <ele>868.856450</ele>
        <time>2022-05-22T05:21:40.932Z</time>
      </trkpt>
      <trkpt lat="42.219750" lon="1.845832">
        <ele>869.232271</ele>
        <time>2022-05-22T05:21:44.924Z</time>
      </trkpt>
      <trkpt lat="42.219751" lon="1.845709">
        <ele>869.596019</ele>
        <time>2022-05-22T05:21:48.927Z</time>
      </trkpt>
      <trkpt lat="42.219763" lon="1.845573">
        <ele>870.001032</ele>
        <time>2022-05-22T05:21:52.926Z</time>
      </trkpt>
      <trkpt lat="42.219784" lon="1.845423">
        <ele>870.452456</ele>
        <time>2022-05-22T05:21:56.928Z</time>
      </trkpt>
      <trkpt lat="42.219782" lon="1.845285">
        <ele>870.879983</ele>
        <time>2022-05-22T05:22:00.920Z</time>
      </trkpt>
      <trkpt lat="42.219778" lon="1.845156">
        <ele>871.309396</ele>
        <time>2022-05-22T05:22:04.935Z</time>
      </trkpt>
      <trkpt lat="42.219718" lon="1.845029">
        <ele>871.810411</ele>
        <time>2022-05-22T05:22:08.924Z</time>
      </trkpt>
      <trkpt lat="42.219664" lon="1.844896">
        <ele>872.314868</ele>
        <time>2022-05-22T05:22:12.924Z</time>
      </trkpt>
      <trkpt lat="42.219609" lon="1.844757">
        <ele>872.839013</ele>
        <time>2022-05-22T05:22:16.931Z</time>
      </trkpt>
      <trkpt lat="42.219564" lon="1.844622">
        <ele>873.331392</ele>
        <time>2022-05-22T05:22:20.930Z</time>
      </trkpt>
      <trkpt lat="42.219531" lon="1.844482">
        <ele>873.820031</ele>
        <time>2022-05-22T05:22:24.940Z</time>
      </trkpt>
      <trkpt lat="42.219529" lon="1.844352">
        <ele>874.252489</ele>
        <time>2022-05-22T05:22:28.930Z</time>
      </trkpt>
      <trkpt lat="42.219544" lon="1.844214">
        <ele>874.716378</ele>
        <time>2022-05-22T05:22:32.925Z</time>
      </trkpt>
      <trkpt lat="42.219579" lon="1.844078">
        <ele>875.195230</ele>
        <time>2022-05-22T05:22:36.930Z</time>
      </trkpt>
      <trkpt lat="42.219608" lon="1.843929">
        <ele>875.707614</ele>
        <time>2022-05-22T05:22:41.919Z</time>
      </trkpt>
      <trkpt lat="42.219640" lon="1.843801">
        <ele>876.156928</ele>
        <time>2022-05-22T05:22:45.930Z</time>
      </trkpt>
      <trkpt lat="42.219675" lon="1.843667">
        <ele>876.629502</ele>
        <time>2022-05-22T05:22:49.928Z</time>
      </trkpt>
      <trkpt lat="42.219725" lon="1.843531">
        <ele>877.134490</ele>
        <time>2022-05-22T05:22:53.927Z</time>
      </trkpt>
      <trkpt lat="42.219778" lon="1.843382">
        <ele>877.684243</ele>
        <time>2022-05-22T05:22:57.925Z</time>
      </trkpt>
      <trkpt lat="42.219791" lon="1.843240">
        <ele>878.160111</ele>
        <time>2022-05-22T05:23:01.930Z</time>
      </trkpt>
      <trkpt lat="42.219776" lon="1.843095">
        <ele>878.647044</ele>
        <time>2022-05-22T05:23:05.942Z</time>
      </trkpt>
      <trkpt lat="42.219743" lon="1.842964">
        <ele>879.954003</ele>
        <time>2022-05-22T05:23:09.925Z</time>
      </trkpt>
      <trkpt lat="42.219695" lon="1.842833">
        <ele>881.709186</ele>
        <time>2022-05-22T05:23:13.928Z</time>
      </trkpt>
      <trkpt lat="42.219632" lon="1.842713">
        <ele>883.475623</ele>
        <time>2022-05-22T05:23:17.926Z</time>
      </trkpt>
      <trkpt lat="42.219567" lon="1.842602">
        <ele>885.174977</ele>
        <time>2022-05-22T05:23:21.929Z</time>
      </trkpt>
      <trkpt lat="42.219534" lon="1.842480">
        <ele>886.734728</ele>
        <time>2022-05-22T05:23:25.926Z</time>
      </trkpt>
      <trkpt lat="42.219486" lon="1.842348">
        <ele>888.500686</ele>
        <time>2022-05-22T05:23:30.940Z</time>
      </trkpt>
      <trkpt lat="42.219435" lon="1.842223">
        <ele>890.214532</ele>
        <time>2022-05-22T05:23:34.917Z</time>
      </trkpt>
      <trkpt lat="42.219378" lon="1.842096">
        <ele>891.997884</ele>
        <time>2022-05-22T05:23:38.917Z</time>
      </trkpt>
      <trkpt lat="42.219332" lon="1.841958">
        <ele>893.815249</ele>
        <time>2022-05-22T05:23:42.913Z</time>
      </trkpt>
      <trkpt lat="42.219276" lon="1.841838">
        <ele>895.518566</ele>
        <time>2022-05-22T05:23:46.917Z</time>
      </trkpt>
      <trkpt lat="42.219231" lon="1.841708">
        <ele>897.241848</ele>
        <time>2022-05-22T05:23:50.927Z</time>
      </trkpt>
      <trkpt lat="42.219177" lon="1.841588">
        <ele>898.928101</ele>
        <time>2022-05-22T05:23:54.932Z</time>
      </trkpt>
      <trkpt lat="42.219127" lon="1.841468">
        <ele>900.581603</ele>
        <time>2022-05-22T05:23:58.924Z</time>
      </trkpt>
      <trkpt lat="42.219076" lon="1.841332">
        <ele>902.412268</ele>
        <time>2022-05-22T05:24:02.923Z</time>
      </trkpt>
      <trkpt lat="42.219032" lon="1.841206">
        <ele>904.085180</ele>
        <time>2022-05-22T05:24:06.924Z</time>
      </trkpt>
      <trkpt lat="42.219000" lon="1.841078">
        <ele>905.707552</ele>
        <time>2022-05-22T05:24:10.927Z</time>
      </trkpt>
      <trkpt lat="42.218950" lon="1.840968">
        <ele>907.257514</ele>
        <time>2022-05-22T05:24:14.926Z</time>
      </trkpt>
      <trkpt lat="42.218911" lon="1.840849">
        <ele>908.360381</ele>
        <time>2022-05-22T05:24:18.933Z</time>
      </trkpt>
      <trkpt lat="42.218879" lon="1.840726">
        <ele>909.099563</ele>
        <time>2022-05-22T05:24:22.924Z</time>
      </trkpt>
      <trkpt lat="42.218841" lon="1.840609">
        <ele>909.823936</ele>
        <time>2022-05-22T05:24:26.923Z</time>
      </trkpt>
      <trkpt lat="42.218792" lon="1.840480">
        <ele>910.645953</ele>
        <time>2022-05-22T05:24:30.923Z</time>
      </trkpt>
      <trkpt lat="42.218740" lon="1.840356">
        <ele>911.453917</ele>
        <time>2022-05-22T05:24:34.919Z</time>
      </trkpt>
      <trkpt lat="42.218705" lon="1.840237">
        <ele>912.179903</ele>
        <time>2022-05-22T05:24:38.921Z</time>
      </trkpt>
      <trkpt lat="42.218670" lon="1.840113">
        <ele>912.932309</ele>
        <time>2022-05-22T05:24:42.921Z</time>
      </trkpt>
      <trkpt lat="42.218626" lon="1.839988">
        <ele>913.717036</ele>
        <time>2022-05-22T05:24:46.916Z</time>
      </trkpt>
      <trkpt lat="42.218600" lon="1.839848">
        <ele>914.535408</ele>
        <time>2022-05-22T05:24:51.918Z</time>
      </trkpt>
      <trkpt lat="42.218569" lon="1.839722">
        <ele>915.288214</ele>
        <time>2022-05-22T05:24:55.929Z</time>
      </trkpt>
      <trkpt lat="42.218505" lon="1.839602">
        <ele>916.126680</ele>
        <time>2022-05-22T05:24:59.934Z</time>
      </trkpt>
      <trkpt lat="42.218450" lon="1.839489">
        <ele>916.893370</ele>
        <time>2022-05-22T05:25:03.920Z</time>
      </trkpt>
      <trkpt lat="42.218388" lon="1.839387">
        <ele>917.641561</ele>
        <time>2022-05-22T05:25:07.932Z</time>
      </trkpt>
      <trkpt lat="42.218335" lon="1.839281">
        <ele>918.366731</ele>
        <time>2022-05-22T05:25:11.928Z</time>
      </trkpt>
      <trkpt lat="42.218280" lon="1.839181">
        <ele>919.072987</ele>
        <time>2022-05-22T05:25:15.929Z</time>
      </trkpt>
      <trkpt lat="42.218220" lon="1.839077">
        <ele>919.820472</ele>
        <time>2022-05-22T05:25:20.929Z</time>
      </trkpt>
      <trkpt lat="42.218174" lon="1.838961">
        <ele>920.566544</ele>
        <time>2022-05-22T05:25:25.932Z</time>
      </trkpt>
      <trkpt lat="42.218178" lon="1.838825">
        <ele>921.338272</ele>
        <time>2022-05-22T05:25:30.922Z</time>
      </trkpt>
      <trkpt lat="42.218154" lon="1.838700">
        <ele>921.755638</ele>
        <time>2022-05-22T05:25:35.921Z</time>
      </trkpt>
      <trkpt lat="42.218123" lon="1.838586">
        <ele>921.826509</ele>
        <time>2022-05-22T05:25:40.922Z</time>
      </trkpt>
      <trkpt lat="42.218074" lon="1.838478">
        <ele>921.900423</ele>
        <time>2022-05-22T05:25:44.920Z</time>
      </trkpt>
      <trkpt lat="42.217994" lon="1.838405">
        <ele>921.976508</ele>
        <time>2022-05-22T05:25:48.918Z</time>
      </trkpt>
      <trkpt lat="42.217910" lon="1.838334">
        <ele>922.054598</ele>
        <time>2022-05-22T05:25:52.933Z</time>
      </trkpt>
      <trkpt lat="42.217821" lon="1.838277">
        <ele>922.132218</ele>
        <time>2022-05-22T05:25:56.929Z</time>
      </trkpt>
      <trkpt lat="42.217731" lon="1.838209">
        <ele>922.213486</ele>
        <time>2022-05-22T05:26:01.930Z</time>
      </trkpt>
      <trkpt lat="42.217648" lon="1.838163">
        <ele>922.284184</ele>
        <time>2022-05-22T05:26:05.937Z</time>
      </trkpt>
      <trkpt lat="42.217562" lon="1.838116">
        <ele>922.357292</ele>
        <time>2022-05-22T05:26:09.930Z</time>
      </trkpt>
      <trkpt lat="42.217470" lon="1.838064">
        <ele>922.435882</ele>
        <time>2022-05-22T05:26:13.925Z</time>
      </trkpt>
      <trkpt lat="42.217382" lon="1.838019">
        <ele>922.510032</ele>
        <time>2022-05-22T05:26:17.921Z</time>
      </trkpt>
      <trkpt lat="42.217299" lon="1.837958">
        <ele>922.584496</ele>
        <time>2022-05-22T05:26:22.929Z</time>
      </trkpt>
      <trkpt lat="42.217200" lon="1.837910">
        <ele>922.667384</ele>
        <time>2022-05-22T05:26:27.927Z</time>
      </trkpt>
      <trkpt lat="42.217111" lon="1.837848">
        <ele>922.746299</ele>
        <time>2022-05-22T05:26:32.926Z</time>
      </trkpt>
      <trkpt lat="42.217022" lon="1.837804">
        <ele>922.820984</ele>
        <time>2022-05-22T05:26:36.931Z</time>
      </trkpt>
      <trkpt lat="42.216936" lon="1.837735">
        <ele>922.899812</ele>
        <time>2022-05-22T05:26:40.932Z</time>
      </trkpt>
      <trkpt lat="42.216844" lon="1.837674">
        <ele>922.980577</ele>
        <time>2022-05-22T05:26:44.919Z</time>
      </trkpt>
      <trkpt lat="42.216757" lon="1.837607">
        <ele>923.059499</ele>
        <time>2022-05-22T05:26:49.931Z</time>
      </trkpt>
      <trkpt lat="42.216670" lon="1.837530">
        <ele>923.172125</ele>
        <time>2022-05-22T05:26:54.935Z</time>
      </trkpt>
      <trkpt lat="42.216593" lon="1.837465">
        <ele>923.717237</ele>
        <time>2022-05-22T05:26:58.928Z</time>
      </trkpt>
      <trkpt lat="42.216504" lon="1.837396">
        <ele>924.333289</ele>
        <time>2022-05-22T05:27:03.928Z</time>
      </trkpt>
      <trkpt lat="42.216428" lon="1.837326">
        <ele>924.885535</ele>
        <time>2022-05-22T05:27:08.925Z</time>
      </trkpt>
      <trkpt lat="42.216346" lon="1.837225">
        <ele>925.551799</ele>
        <time>2022-05-22T05:27:13.926Z</time>
      </trkpt>
      <trkpt lat="42.216262" lon="1.837131">
        <ele>926.206698</ele>
        <time>2022-05-22T05:27:18.925Z</time>
      </trkpt>
      <trkpt lat="42.216173" lon="1.837040">
        <ele>926.876841</ele>
        <time>2022-05-22T05:27:23.929Z</time>
      </trkpt>
      <trkpt lat="42.216096" lon="1.836955">
        <ele>927.473870</ele>
        <time>2022-05-22T05:27:27.925Z</time>
      </trkpt>
      <trkpt lat="42.216024" lon="1.836859">
        <ele>928.081282</ele>
        <time>2022-05-22T05:27:32.931Z</time>
      </trkpt>
      <trkpt lat="42.215959" lon="1.836769">
        <ele>928.640153</ele>
        <time>2022-05-22T05:27:36.924Z</time>
      </trkpt>
      <trkpt lat="42.215896" lon="1.836671">
        <ele>929.217075</ele>
        <time>2022-05-22T05:27:40.931Z</time>
      </trkpt>
      <trkpt lat="42.215834" lon="1.836569">
        <ele>929.803715</ele>
        <time>2022-05-22T05:27:45.927Z</time>
      </trkpt>
      <trkpt lat="42.215762" lon="1.836482">
        <ele>930.383713</ele>
        <time>2022-05-22T05:27:49.929Z</time>
      </trkpt>
      <trkpt lat="42.215682" lon="1.836398">
        <ele>930.992052</ele>
        <time>2022-05-22T05:27:53.924Z</time>
      </trkpt>
      <trkpt lat="42.215601" lon="1.836301">
        <ele>931.641964</ele>
        <time>2022-05-22T05:27:58.922Z</time>
      </trkpt>
      <trkpt lat="42.215530" lon="1.836214">
        <ele>932.217504</ele>
        <time>2022-05-22T05:28:03.927Z</time>
      </trkpt>
      <trkpt lat="42.215469" lon="1.836117">
        <ele>932.783234</ele>
        <time>2022-05-22T05:28:07.924Z</time>
      </trkpt>
      <trkpt lat="42.215408" lon="1.836019">
        <ele>933.352361</ele>
        <time>2022-05-22T05:28:11.918Z</time>
      </trkpt>
      <trkpt lat="42.215331" lon="1.835928">
        <ele>933.937194</ele>
        <time>2022-05-22T05:28:15.917Z</time>
      </trkpt>
      <trkpt lat="42.215260" lon="1.835832">
        <ele>934.001049</ele>
        <time>2022-05-22T05:28:19.926Z</time>
      </trkpt>
      <trkpt lat="42.215187" lon="1.835743">
        <ele>934.063555</ele>
        <time>2022-05-22T05:28:23.928Z</time>
      </trkpt>
      <trkpt lat="42.215110" lon="1.835671">
        <ele>934.123078</ele>
        <time>2022-05-22T05:28:27.930Z</time>
      </trkpt>
      <trkpt lat="42.215022" lon="1.835601">
        <ele>934.187985</ele>
        <time>2022-05-22T05:28:31.922Z</time>
      </trkpt>
      <trkpt lat="42.214925" lon="1.835524">
        <ele>934.259494</ele>
        <time>2022-05-22T05:28:35.928Z</time>
      </trkpt>
      <trkpt lat="42.214827" lon="1.835450">
        <ele>934.330851</ele>
        <time>2022-05-22T05:28:39.932Z</time>
      </trkpt>
      <trkpt lat="42.214733" lon="1.835378">
        <ele>934.399531</ele>
        <time>2022-05-22T05:28:43.926Z</time>
      </trkpt>
      <trkpt lat="42.214659" lon="1.835293">
        <ele>934.461274</ele>
        <time>2022-05-22T05:28:47.922Z</time>
      </trkpt>
      <trkpt lat="42.214611" lon="1.835183">
        <ele>934.521366</ele>
        <time>2022-05-22T05:28:51.932Z</time>
      </trkpt>
      <trkpt lat="42.214552" lon="1.835077">
        <ele>934.583776</ele>
        <time>2022-05-22T05:28:55.929Z</time>
      </trkpt>
      <trkpt lat="42.214495" lon="1.834973">
        <ele>934.644672</ele>
        <time>2022-05-22T05:28:59.923Z</time>
      </trkpt>
      <trkpt lat="42.214445" lon="1.834861">
        <ele>934.706224</ele>
        <time>2022-05-22T05:29:04.929Z</time>
      </trkpt>
      <trkpt lat="42.214384" lon="1.834759">
        <ele>934.767930</ele>
        <time>2022-05-22T05:29:09.928Z</time>
      </trkpt>
      <trkpt lat="42.214362" lon="1.834635">
        <ele>934.827945</ele>
        <time>2022-05-22T05:29:15.927Z</time>
      </trkpt>
      <trkpt lat="42.214310" lon="1.834511">
        <ele>934.895015</ele>
        <time>2022-05-22T05:29:21.920Z</time>
      </trkpt>
      <trkpt lat="42.214274" lon="1.834395">
        <ele>934.954213</ele>
        <time>2022-05-22T05:29:26.919Z</time>
      </trkpt>
      <trkpt lat="42.214223" lon="1.834282">
        <ele>935.016497</ele>
        <time>2022-05-22T05:29:31.919Z</time>
      </trkpt>
      <trkpt lat="42.214174" lon="1.834178">
        <ele>935.074513</ele>
        <time>2022-05-22T05:29:35.925Z</time>
      </trkpt>
      <trkpt lat="42.214122" lon="1.834052">
        <ele>935.663696</ele>
        <time>2022-05-22T05:29:40.926Z</time>
      </trkpt>
      <trkpt lat="42.214068" lon="1.833929">
        <ele>936.265394</ele>
        <time>2022-05-22T05:29:44.927Z</time>
      </trkpt>
      <trkpt lat="42.214028" lon="1.833807">
        <ele>936.826839</ele>
        <time>2022-05-22T05:29:49.926Z</time>
      </trkpt>
      <trkpt lat="42.213979" lon="1.833686">
        <ele>937.407162</ele>
        <time>2022-05-22T05:29:54.922Z</time>
      </trkpt>
      <trkpt lat="42.213953" lon="1.833559">
        <ele>937.961633</ele>
        <time>2022-05-22T05:29:58.924Z</time>
      </trkpt>
      <trkpt lat="42.213917" lon="1.833436">
        <ele>938.518181</ele>
        <time>2022-05-22T05:30:02.926Z</time>
      </trkpt>
      <trkpt lat="42.213879" lon="1.833318">
        <ele>939.059647</ele>
        <time>2022-05-22T05:30:06.927Z</time>
      </trkpt>
      <trkpt lat="42.213833" lon="1.833202">
        <ele>939.613354</ele>
        <time>2022-05-22T05:30:10.929Z</time>
      </trkpt>
      <trkpt lat="42.213797" lon="1.833078">
        <ele>940.173818</ele>
        <time>2022-05-22T05:30:15.930Z</time>
      </trkpt>
      <trkpt lat="42.213751" lon="1.832968">
        <ele>940.705400</ele>
        <time>2022-05-22T05:30:20.929Z</time>
      </trkpt>
      <trkpt lat="42.213710" lon="1.832844">
        <ele>941.276845</ele>
        <time>2022-05-22T05:30:25.920Z</time>
      </trkpt>
      <trkpt lat="42.213675" lon="1.832726">
        <ele>941.811744</ele>
        <time>2022-05-22T05:30:30.923Z</time>
      </trkpt>
      <trkpt lat="42.213614" lon="1.832606">
        <ele>942.424217</ele>
        <time>2022-05-22T05:30:35.927Z</time>
      </trkpt>
      <trkpt lat="42.213576" lon="1.832492">
        <ele>942.950291</ele>
        <time>2022-05-22T05:30:40.928Z</time>
      </trkpt>
      <trkpt lat="42.213547" lon="1.832369">
        <ele>943.493485</ele>
        <time>2022-05-22T05:30:45.919Z</time>
      </trkpt>
      <trkpt lat="42.213527" lon="1.832223">
        <ele>944.118295</ele>
        <time>2022-05-22T05:30:50.914Z</time>
      </trkpt>
      <trkpt lat="42.213514" lon="1.832102">
        <ele>944.632809</ele>
        <time>2022-05-22T05:30:54.925Z</time>
      </trkpt>
      <trkpt lat="42.213460" lon="1.831973">
        <ele>945.256365</ele>
        <time>2022-05-22T05:30:59.922Z</time>
      </trkpt>
      <trkpt lat="42.213429" lon="1.831848">
        <ele>946.662589</ele>
        <time>2022-05-22T05:31:03.928Z</time>
      </trkpt>
      <trkpt lat="42.213412" lon="1.831707">
        <ele>948.257811</ele>
        <time>2022-05-22T05:31:07.921Z</time>
      </trkpt>
      <trkpt lat="42.213387" lon="1.831576">
        <ele>949.768422</ele>
        <time>2022-05-22T05:31:11.929Z</time>
      </trkpt>
      <trkpt lat="42.213361" lon="1.831438">
        <ele>951.358497</ele>
        <time>2022-05-22T05:31:15.928Z</time>
      </trkpt>
      <trkpt lat="42.213341" lon="1.831299">
        <ele>952.939681</ele>
        <time>2022-05-22T05:31:19.929Z</time>
      </trkpt>
      <trkpt lat="42.213296" lon="1.831163">
        <ele>954.603007</ele>
        <time>2022-05-22T05:31:23.925Z</time>
      </trkpt>
      <trkpt lat="42.213241" lon="1.831052">
        <ele>956.094308</ele>
        <time>2022-05-22T05:31:27.937Z</time>
      </trkpt>
      <trkpt lat="42.213167" lon="1.830945">
        <ele>957.729054</ele>
        <time>2022-05-22T05:31:32.930Z</time>
      </trkpt>
      <trkpt lat="42.213101" lon="1.830856">
        <ele>959.135425</ele>
        <time>2022-05-22T05:31:36.921Z</time>
      </trkpt>
      <trkpt lat="42.213034" lon="1.830755">
        <ele>960.649500</ele>
        <time>2022-05-22T05:31:41.912Z</time>
      </trkpt>
      <trkpt lat="42.212993" lon="1.830626">
        <ele>962.217036</ele>
        <time>2022-05-22T05:31:46.922Z</time>
      </trkpt>
      <trkpt lat="42.212961" lon="1.830508">
        <ele>963.620258</ele>
        <time>2022-05-22T05:31:50.916Z</time>
      </trkpt>
      <trkpt lat="42.212919" lon="1.830393">
        <ele>965.052068</ele>
        <time>2022-05-22T05:31:54.972Z</time>
      </trkpt>
      <trkpt lat="42.212886" lon="1.830270">
        <ele>966.512913</ele>
        <time>2022-05-22T05:31:58.931Z</time>
      </trkpt>
      <trkpt lat="42.212838" lon="1.830153">
        <ele>968.006464</ele>
        <time>2022-05-22T05:32:02.940Z</time>
      </trkpt>
      <trkpt lat="42.212795" lon="1.830031">
        <ele>969.515198</ele>
        <time>2022-05-22T05:32:06.918Z</time>
      </trkpt>
      <trkpt lat="42.212738" lon="1.829905">
        <ele>971.163901</ele>
        <time>2022-05-22T05:32:10.933Z</time>
      </trkpt>
      <trkpt lat="42.212697" lon="1.829773">
        <ele>972.540087</ele>
        <time>2022-05-22T05:32:14.920Z</time>
      </trkpt>
      <trkpt lat="42.212723" lon="1.829636">
        <ele>973.111647</ele>
        <time>2022-05-22T05:32:18.919Z</time>
      </trkpt>
      <trkpt lat="42.212793" lon="1.829559">
        <ele>973.604322</ele>
        <time>2022-05-22T05:32:21.921Z</time>
      </trkpt>
      <trkpt lat="42.212878" lon="1.829504">
        <ele>974.118639</ele>
        <time>2022-05-22T05:32:24.924Z</time>
      </trkpt>
      <trkpt lat="42.212973" lon="1.829459">
        <ele>974.667986</ele>
        <time>2022-05-22T05:32:27.920Z</time>
      </trkpt>
      <trkpt lat="42.213068" lon="1.829517">
        <ele>975.236890</ele>
        <time>2022-05-22T05:32:31.922Z</time>
      </trkpt>
      <trkpt lat="42.213151" lon="1.829585">
        <ele>975.766639</ele>
        <time>2022-05-22T05:32:35.919Z</time>
      </trkpt>
      <trkpt lat="42.213261" lon="1.829604">
        <ele>976.371749</ele>
        <time>2022-05-22T05:32:39.926Z</time>
      </trkpt>
      <trkpt lat="42.213359" lon="1.829628">
        <ele>976.915214</ele>
        <time>2022-05-22T05:32:43.927Z</time>
      </trkpt>
      <trkpt lat="42.213473" lon="1.829647">
        <ele>977.541979</ele>
        <time>2022-05-22T05:32:47.924Z</time>
      </trkpt>
      <trkpt lat="42.213566" lon="1.829681">
        <ele>978.067711</ele>
        <time>2022-05-22T05:32:50.924Z</time>
      </trkpt>
      <trkpt lat="42.213664" lon="1.829717">
        <ele>978.621889</ele>
        <time>2022-05-22T05:32:53.928Z</time>
      </trkpt>
      <trkpt lat="42.213779" lon="1.829740">
        <ele>979.256237</ele>
        <time>2022-05-22T05:32:57.926Z</time>
      </trkpt>
      <trkpt lat="42.213891" lon="1.829751">
        <ele>979.868983</ele>
        <time>2022-05-22T05:33:01.920Z</time>
      </trkpt>
      <trkpt lat="42.213983" lon="1.829735">
        <ele>980.375131</ele>
        <time>2022-05-22T05:33:04.925Z</time>
      </trkpt>
      <trkpt lat="42.214094" lon="1.829705">
        <ele>980.992821</ele>
        <time>2022-05-22T05:33:08.927Z</time>
      </trkpt>
      <trkpt lat="42.214207" lon="1.829661">
        <ele>981.634537</ele>
        <time>2022-05-22T05:33:12.925Z</time>
      </trkpt>
      <trkpt lat="42.214319" lon="1.829625">
        <ele>982.248384</ele>
        <time>2022-05-22T05:33:16.921Z</time>
      </trkpt>
      <trkpt lat="42.214417" lon="1.829576">
        <ele>982.580096</ele>
        <time>2022-05-22T05:33:20.921Z</time>
      </trkpt>
      <trkpt lat="42.214516" lon="1.829494">
        <ele>982.948756</ele>
        <time>2022-05-22T05:33:24.927Z</time>
      </trkpt>
      <trkpt lat="42.214593" lon="1.829404">
        <ele>983.272025</ele>
        <time>2022-05-22T05:33:28.918Z</time>
      </trkpt>
      <trkpt lat="42.214678" lon="1.829300">
        <ele>983.636128</ele>
        <time>2022-05-22T05:33:32.919Z</time>
      </trkpt>
      <trkpt lat="42.214759" lon="1.829232">
        <ele>983.938881</ele>
        <time>2022-05-22T05:33:35.922Z</time>
      </trkpt>
      <trkpt lat="42.214833" lon="1.829162">
        <ele>984.225679</ele>
        <time>2022-05-22T05:33:38.923Z</time>
      </trkpt>
      <trkpt lat="42.214926" lon="1.829088">
        <ele>984.568324</ele>
        <time>2022-05-22T05:33:42.926Z</time>
      </trkpt>
      <trkpt lat="42.215019" lon="1.829060">
        <ele>984.870771</ele>
        <time>2022-05-22T05:33:45.925Z</time>
      </trkpt>
      <trkpt lat="42.215115" lon="1.829035">
        <ele>985.181107</ele>
        <time>2022-05-22T05:33:48.922Z</time>
      </trkpt>
      <trkpt lat="42.215214" lon="1.829001">
        <ele>985.505356</ele>
        <time>2022-05-22T05:33:51.929Z</time>
      </trkpt>
      <trkpt lat="42.215308" lon="1.828978">
        <ele>985.808587</ele>
        <time>2022-05-22T05:33:54.926Z</time>
      </trkpt>
      <trkpt lat="42.215403" lon="1.828969">
        <ele>986.110874</ele>
        <time>2022-05-22T05:33:57.921Z</time>
      </trkpt>
      <trkpt lat="42.215492" lon="1.828950">
        <ele>986.396884</ele>
        <time>2022-05-22T05:34:00.923Z</time>
      </trkpt>
      <trkpt lat="42.215607" lon="1.828978">
        <ele>986.767800</ele>
        <time>2022-05-22T05:34:04.927Z</time>
      </trkpt>
      <trkpt lat="42.215717" lon="1.828969">
        <ele>987.117599</ele>
        <time>2022-05-22T05:34:08.921Z</time>
      </trkpt>
      <trkpt lat="42.215819" lon="1.828931">
        <ele>987.453462</ele>
        <time>2022-05-22T05:34:12.927Z</time>
      </trkpt>
      <trkpt lat="42.215918" lon="1.828931">
        <ele>987.767704</ele>
        <time>2022-05-22T05:34:16.931Z</time>
      </trkpt>
      <trkpt lat="42.216011" lon="1.828919">
        <ele>988.105518</ele>
        <time>2022-05-22T05:34:20.922Z</time>
      </trkpt>
      <trkpt lat="42.216112" lon="1.828887">
        <ele>988.542126</ele>
        <time>2022-05-22T05:34:24.924Z</time>
      </trkpt>
      <trkpt lat="42.216222" lon="1.828859">
        <ele>989.013221</ele>
        <time>2022-05-22T05:34:28.925Z</time>
      </trkpt>
      <trkpt lat="42.216321" lon="1.828854">
        <ele>989.430159</ele>
        <time>2022-05-22T05:34:32.928Z</time>
      </trkpt>
      <trkpt lat="42.216419" lon="1.828822">
        <ele>989.854485</ele>
        <time>2022-05-22T05:34:36.929Z</time>
      </trkpt>
      <trkpt lat="42.216529" lon="1.828788">
        <ele>990.329400</ele>
        <time>2022-05-22T05:34:41.932Z</time>
      </trkpt>
      <trkpt lat="42.216614" lon="1.828747">
        <ele>990.709268</ele>
        <time>2022-05-22T05:34:44.932Z</time>
      </trkpt>
      <trkpt lat="42.216710" lon="1.828724">
        <ele>991.119599</ele>
        <time>2022-05-22T05:34:47.933Z</time>
      </trkpt>
      <trkpt lat="42.216803" lon="1.828701">
        <ele>991.517505</ele>
        <time>2022-05-22T05:34:50.929Z</time>
      </trkpt>
      <trkpt lat="42.216919" lon="1.828672">
        <ele>992.013994</ele>
        <time>2022-05-22T05:34:54.927Z</time>
      </trkpt>
      <trkpt lat="42.217002" lon="1.828622">
        <ele>992.396491</ele>
        <time>2022-05-22T05:34:57.931Z</time>
      </trkpt>
      <trkpt lat="42.217053" lon="1.828510">
        <ele>992.806287</ele>
        <time>2022-05-22T05:35:00.928Z</time>
      </trkpt>
      <trkpt lat="42.217019" lon="1.828371">
        <ele>993.262550</ele>
        <time>2022-05-22T05:35:04.930Z</time>
      </trkpt>
      <trkpt lat="42.216930" lon="1.828298">
        <ele>993.700804</ele>
        <time>2022-05-22T05:35:08.924Z</time>
      </trkpt>
      <trkpt lat="42.216839" lon="1.828295">
        <ele>994.083896</ele>
        <time>2022-05-22T05:35:14.922Z</time>
      </trkpt>
      <trkpt lat="42.216725" lon="1.828325">
        <ele>994.572697</ele>
        <time>2022-05-22T05:35:19.925Z</time>
      </trkpt>
      <trkpt lat="42.216632" lon="1.828379">
        <ele>994.998748</ele>
        <time>2022-05-22T05:35:24.930Z</time>
      </trkpt>
      <trkpt lat="42.216533" lon="1.828435">
        <ele>995.450478</ele>
        <time>2022-05-22T05:35:30.925Z</time>
      </trkpt>
      <trkpt lat="42.216436" lon="1.828462">
        <ele>996.261140</ele>
        <time>2022-05-22T05:35:34.930Z</time>
      </trkpt>
      <trkpt lat="42.216344" lon="1.828446">
        <ele>997.078597</ele>
        <time>2022-05-22T05:35:38.923Z</time>
      </trkpt>
      <trkpt lat="42.216255" lon="1.828401">
        <ele>997.916106</ele>
        <time>2022-05-22T05:35:42.935Z</time>
      </trkpt>
      <trkpt lat="42.216233" lon="1.828261">
        <ele>998.850190</ele>
        <time>2022-05-22T05:35:47.925Z</time>
      </trkpt>
      <trkpt lat="42.216269" lon="1.828140">
        <ele>999.701266</ele>
        <time>2022-05-22T05:35:52.933Z</time>
      </trkpt>
      <trkpt lat="42.216316" lon="1.828020">
        <ele>1000.587251</ele>
        <time>2022-05-22T05:35:58.934Z</time>
      </trkpt>
      <trkpt lat="42.216419" lon="1.828012">
        <ele>1001.496449</ele>
        <time>2022-05-22T05:36:04.921Z</time>
      </trkpt>
      <trkpt lat="42.216525" lon="1.828048">
        <ele>1002.459681</ele>
        <time>2022-05-22T05:36:09.926Z</time>
      </trkpt>
      <trkpt lat="42.216618" lon="1.828052">
        <ele>1003.279668</ele>
        <time>2022-05-22T05:36:13.931Z</time>
      </trkpt>
      <trkpt lat="42.216717" lon="1.828041">
        <ele>1004.155064</ele>
        <time>2022-05-22T05:36:19.925Z</time>
      </trkpt>
      <trkpt lat="42.216804" lon="1.828010">
        <ele>1004.948007</ele>
        <time>2022-05-22T05:36:25.929Z</time>
      </trkpt>
      <trkpt lat="42.216876" lon="1.827927">
        <ele>1005.782305</ele>
        <time>2022-05-22T05:36:30.926Z</time>
      </trkpt>
      <trkpt lat="42.216948" lon="1.827853">
        <ele>1006.579715</ele>
        <time>2022-05-22T05:36:35.936Z</time>
      </trkpt>
      <trkpt lat="42.217027" lon="1.827777">
        <ele>1007.434542</ele>
        <time>2022-05-22T05:36:40.927Z</time>
      </trkpt>
      <trkpt lat="42.217099" lon="1.827678">
        <ele>1008.340132</ele>
        <time>2022-05-22T05:36:45.937Z</time>
      </trkpt>
      <trkpt lat="42.217165" lon="1.827581">
        <ele>1009.199836</ele>
        <time>2022-05-22T05:36:51.931Z</time>
      </trkpt>
      <trkpt lat="42.217237" lon="1.827506">
        <ele>1010.001214</ele>
        <time>2022-05-22T05:36:56.929Z</time>
      </trkpt>
      <trkpt lat="42.217301" lon="1.827397">
        <ele>1010.909067</ele>
        <time>2022-05-22T05:37:01.931Z</time>
      </trkpt>
      <trkpt lat="42.217366" lon="1.827286">
        <ele>1012.035950</ele>
        <time>2022-05-22T05:37:07.933Z</time>
      </trkpt>
      <trkpt lat="42.217418" lon="1.827179">
        <ele>1013.229052</ele>
        <time>2022-05-22T05:37:13.934Z</time>
      </trkpt>
      <trkpt lat="42.217489" lon="1.827087">
        <ele>1014.467748</ele>
        <time>2022-05-22T05:37:17.917Z</time>
      </trkpt>
      <trkpt lat="42.217562" lon="1.826996">
        <ele>1015.718386</ele>
        <time>2022-05-22T05:37:21.941Z</time>
      </trkpt>
      <trkpt lat="42.217630" lon="1.826907">
        <ele>1016.910484</ele>
        <time>2022-05-22T05:37:25.929Z</time>
      </trkpt>
      <trkpt lat="42.217704" lon="1.826819">
        <ele>1018.151740</ele>
        <time>2022-05-22T05:37:29.946Z</time>
      </trkpt>
      <trkpt lat="42.217778" lon="1.826749">
        <ele>1019.289081</ele>
        <time>2022-05-22T05:37:33.911Z</time>
      </trkpt>
      <trkpt lat="42.217841" lon="1.826661">
        <ele>1020.430100</ele>
        <time>2022-05-22T05:37:38.923Z</time>
      </trkpt>
      <trkpt lat="42.217911" lon="1.826566">
        <ele>1021.679409</ele>
        <time>2022-05-22T05:37:43.907Z</time>
      </trkpt>
      <trkpt lat="42.217998" lon="1.826479">
        <ele>1023.042179</ele>
        <time>2022-05-22T05:37:48.930Z</time>
      </trkpt>
      <trkpt lat="42.218079" lon="1.826400">
        <ele>1024.299958</ele>
        <time>2022-05-22T05:37:53.935Z</time>
      </trkpt>
      <trkpt lat="42.218174" lon="1.826344">
        <ele>1025.604789</ele>
        <time>2022-05-22T05:37:58.929Z</time>
      </trkpt>
      <trkpt lat="42.218260" lon="1.826284">
        <ele>1026.823309</ele>
        <time>2022-05-22T05:38:03.928Z</time>
      </trkpt>
      <trkpt lat="42.218361" lon="1.826224">
        <ele>1028.212283</ele>
        <time>2022-05-22T05:38:08.932Z</time>
      </trkpt>
      <trkpt lat="42.218447" lon="1.826159">
        <ele>1029.452889</ele>
        <time>2022-05-22T05:38:13.925Z</time>
      </trkpt>
      <trkpt lat="42.218535" lon="1.826089">
        <ele>1030.738544</ele>
        <time>2022-05-22T05:38:19.926Z</time>
      </trkpt>
      <trkpt lat="42.218619" lon="1.826013">
        <ele>1032.011344</ele>
        <time>2022-05-22T05:38:25.934Z</time>
      </trkpt>
      <trkpt lat="42.218721" lon="1.825968">
        <ele>1033.362097</ele>
        <time>2022-05-22T05:38:31.931Z</time>
      </trkpt>
      <trkpt lat="42.218799" lon="1.825905">
        <ele>1034.217671</ele>
        <time>2022-05-22T05:38:36.925Z</time>
      </trkpt>
      <trkpt lat="42.218882" lon="1.825853">
        <ele>1034.714241</ele>
        <time>2022-05-22T05:38:41.925Z</time>
      </trkpt>
      <trkpt lat="42.218968" lon="1.825799">
        <ele>1035.228963</ele>
        <time>2022-05-22T05:38:45.930Z</time>
      </trkpt>
      <trkpt lat="42.219073" lon="1.825740">
        <ele>1035.846175</ele>
        <time>2022-05-22T05:38:50.935Z</time>
      </trkpt>
      <trkpt lat="42.219169" lon="1.825687">
        <ele>1036.409038</ele>
        <time>2022-05-22T05:38:55.932Z</time>
      </trkpt>
      <trkpt lat="42.219259" lon="1.825637">
        <ele>1036.937198</ele>
        <time>2022-05-22T05:39:00.939Z</time>
      </trkpt>
      <trkpt lat="42.219341" lon="1.825551">
        <ele>1037.500683</ele>
        <time>2022-05-22T05:39:06.932Z</time>
      </trkpt>
      <trkpt lat="42.219421" lon="1.825492">
        <ele>1037.995384</ele>
        <time>2022-05-22T05:39:10.928Z</time>
      </trkpt>
      <trkpt lat="42.219500" lon="1.825392">
        <ele>1038.583051</ele>
        <time>2022-05-22T05:39:15.924Z</time>
      </trkpt>
      <trkpt lat="42.219564" lon="1.825287">
        <ele>1039.129615</ele>
        <time>2022-05-22T05:39:21.934Z</time>
      </trkpt>
      <trkpt lat="42.219621" lon="1.825182">
        <ele>1039.652860</ele>
        <time>2022-05-22T05:39:27.923Z</time>
      </trkpt>
      <trkpt lat="42.219661" lon="1.825072">
        <ele>1040.145386</ele>
        <time>2022-05-22T05:39:32.933Z</time>
      </trkpt>
      <trkpt lat="42.219679" lon="1.824936">
        <ele>1040.700650</ele>
        <time>2022-05-22T05:39:37.926Z</time>
      </trkpt>
      <trkpt lat="42.219703" lon="1.824792">
        <ele>1041.293881</ele>
        <time>2022-05-22T05:39:42.930Z</time>
      </trkpt>
      <trkpt lat="42.219754" lon="1.824687">
        <ele>1041.798558</ele>
        <time>2022-05-22T05:39:46.926Z</time>
      </trkpt>
      <trkpt lat="42.219827" lon="1.824608">
        <ele>1042.306267</ele>
        <time>2022-05-22T05:39:50.932Z</time>
      </trkpt>
      <trkpt lat="42.219923" lon="1.824552">
        <ele>1042.873802</ele>
        <time>2022-05-22T05:39:54.926Z</time>
      </trkpt>
      <trkpt lat="42.220033" lon="1.824540">
        <ele>1043.472724</ele>
        <time>2022-05-22T05:39:59.926Z</time>
      </trkpt>
      <trkpt lat="42.220129" lon="1.824564">
        <ele>1044.120366</ele>
        <time>2022-05-22T05:40:03.924Z</time>
      </trkpt>
      <trkpt lat="42.220222" lon="1.824615">
        <ele>1044.930016</ele>
        <time>2022-05-22T05:40:07.922Z</time>
      </trkpt>
      <trkpt lat="42.220329" lon="1.824669">
        <ele>1045.851400</ele>
        <time>2022-05-22T05:40:12.924Z</time>
      </trkpt>
      <trkpt lat="42.220423" lon="1.824693">
        <ele>1046.623049</ele>
        <time>2022-05-22T05:40:16.927Z</time>
      </trkpt>
      <trkpt lat="42.220533" lon="1.824692">
        <ele>1047.510342</ele>
        <time>2022-05-22T05:40:21.927Z</time>
      </trkpt>
      <trkpt lat="42.220623" lon="1.824667">
        <ele>1048.251493</ele>
        <time>2022-05-22T05:40:25.930Z</time>
      </trkpt>
      <trkpt lat="42.220703" lon="1.824605">
        <ele>1048.995510</ele>
        <time>2022-05-22T05:40:29.934Z</time>
      </trkpt>
      <trkpt lat="42.220784" lon="1.824539">
        <ele>1049.758599</ele>
        <time>2022-05-22T05:40:34.928Z</time>
      </trkpt>
      <trkpt lat="42.220869" lon="1.824489">
        <ele>1050.506449</ele>
        <time>2022-05-22T05:40:38.930Z</time>
      </trkpt>
      <trkpt lat="42.220959" lon="1.824445">
        <ele>1051.278513</ele>
        <time>2022-05-22T05:40:42.930Z</time>
      </trkpt>
      <trkpt lat="42.221054" lon="1.824386">
        <ele>1052.121956</ele>
        <time>2022-05-22T05:40:46.920Z</time>
      </trkpt>
      <trkpt lat="42.221147" lon="1.824325">
        <ele>1052.955919</ele>
        <time>2022-05-22T05:40:50.933Z</time>
      </trkpt>
      <trkpt lat="42.221238" lon="1.824280">
        <ele>1053.737606</ele>
        <time>2022-05-22T05:40:54.938Z</time>
      </trkpt>
      <trkpt lat="42.221326" lon="1.824211">
        <ele>1054.558412</ele>
        <time>2022-05-22T05:40:58.930Z</time>
      </trkpt>
      <trkpt lat="42.221418" lon="1.824142">
        <ele>1055.407273</ele>
        <time>2022-05-22T05:41:02.931Z</time>
      </trkpt>
      <trkpt lat="42.221503" lon="1.824058">
        <ele>1056.256886</ele>
        <time>2022-05-22T05:41:06.933Z</time>
      </trkpt>
      <trkpt lat="42.221592" lon="1.823966">
        <ele>1057.160968</ele>
        <time>2022-05-22T05:41:10.930Z</time>
      </trkpt>
      <trkpt lat="42.221667" lon="1.823874">
        <ele>1057.978268</ele>
        <time>2022-05-22T05:41:14.936Z</time>
      </trkpt>
      <trkpt lat="42.221742" lon="1.823784">
        <ele>1058.298352</ele>
        <time>2022-05-22T05:41:18.938Z</time>
      </trkpt>
      <trkpt lat="42.221823" lon="1.823685">
        <ele>1058.349177</ele>
        <time>2022-05-22T05:41:22.935Z</time>
      </trkpt>
      <trkpt lat="42.221898" lon="1.823574">
        <ele>1058.400943</ele>
        <time>2022-05-22T05:41:26.932Z</time>
      </trkpt>
      <trkpt lat="42.221976" lon="1.823481">
        <ele>1058.449350</ele>
        <time>2022-05-22T05:41:30.933Z</time>
      </trkpt>
      <trkpt lat="42.222052" lon="1.823399">
        <ele>1058.494606</ele>
        <time>2022-05-22T05:41:34.930Z</time>
      </trkpt>
      <trkpt lat="42.222136" lon="1.823302">
        <ele>1058.546023</ele>
        <time>2022-05-22T05:41:39.927Z</time>
      </trkpt>
      <trkpt lat="42.222218" lon="1.823218">
        <ele>1058.593905</ele>
        <time>2022-05-22T05:41:43.933Z</time>
      </trkpt>
      <trkpt lat="42.222285" lon="1.823131">
        <ele>1058.637147</ele>
        <time>2022-05-22T05:41:47.935Z</time>
      </trkpt>
      <trkpt lat="42.222351" lon="1.823018">
        <ele>1058.686727</ele>
        <time>2022-05-22T05:41:52.921Z</time>
      </trkpt>
      <trkpt lat="42.222419" lon="1.822901">
        <ele>1058.737966</ele>
        <time>2022-05-22T05:41:57.952Z</time>
      </trkpt>
      <trkpt lat="42.222466" lon="1.822779">
        <ele>1058.785343</ele>
        <time>2022-05-22T05:42:02.937Z</time>
      </trkpt>
      <trkpt lat="42.222506" lon="1.822659">
        <ele>1058.830679</ele>
        <time>2022-05-22T05:42:06.925Z</time>
      </trkpt>
      <trkpt lat="42.222520" lon="1.822532">
        <ele>1058.874913</ele>
        <time>2022-05-22T05:42:10.935Z</time>
      </trkpt>
      <trkpt lat="42.222524" lon="1.822407">
        <ele>1058.918017</ele>
        <time>2022-05-22T05:42:14.940Z</time>
      </trkpt>
      <trkpt lat="42.222510" lon="1.822282">
        <ele>1058.961570</ele>
        <time>2022-05-22T05:42:18.933Z</time>
      </trkpt>
      <trkpt lat="42.222491" lon="1.822127">
        <ele>1059.015695</ele>
        <time>2022-05-22T05:42:23.932Z</time>
      </trkpt>
      <trkpt lat="42.222487" lon="1.821985">
        <ele>1059.064651</ele>
        <time>2022-05-22T05:42:27.933Z</time>
      </trkpt>
      <trkpt lat="42.222478" lon="1.821846">
        <ele>1059.195336</ele>
        <time>2022-05-22T05:42:31.934Z</time>
      </trkpt>
      <trkpt lat="42.222475" lon="1.821706">
        <ele>1059.770573</ele>
        <time>2022-05-22T05:42:35.933Z</time>
      </trkpt>
      <trkpt lat="42.222485" lon="1.821568">
        <ele>1060.340063</ele>
        <time>2022-05-22T05:42:39.931Z</time>
      </trkpt>
      <trkpt lat="42.222518" lon="1.821427">
        <ele>1060.947399</ele>
        <time>2022-05-22T05:42:43.935Z</time>
      </trkpt>
      <trkpt lat="42.222541" lon="1.821288">
        <ele>1061.532366</ele>
        <time>2022-05-22T05:42:48.925Z</time>
      </trkpt>
      <trkpt lat="42.222560" lon="1.821154">
        <ele>1062.092716</ele>
        <time>2022-05-22T05:42:53.930Z</time>
      </trkpt>
      <trkpt lat="42.222609" lon="1.821028">
        <ele>1062.677229</ele>
        <time>2022-05-22T05:42:58.927Z</time>
      </trkpt>
      <trkpt lat="42.222656" lon="1.820900">
        <ele>1063.264015</ele>
        <time>2022-05-22T05:43:03.932Z</time>
      </trkpt>
      <trkpt lat="42.222695" lon="1.820772">
        <ele>1063.832483</ele>
        <time>2022-05-22T05:43:08.928Z</time>
      </trkpt>
      <trkpt lat="42.222743" lon="1.820646">
        <ele>1064.414437</ele>
        <time>2022-05-22T05:43:13.930Z</time>
      </trkpt>
      <trkpt lat="42.222793" lon="1.820516">
        <ele>1065.016078</ele>
        <time>2022-05-22T05:43:18.932Z</time>
      </trkpt>
      <trkpt lat="42.222815" lon="1.820377">
        <ele>1065.599857</ele>
        <time>2022-05-22T05:43:23.931Z</time>
      </trkpt>
      <trkpt lat="42.222846" lon="1.820240">
        <ele>1066.188211</ele>
        <time>2022-05-22T05:43:28.927Z</time>
      </trkpt>
      <trkpt lat="42.222851" lon="1.820098">
        <ele>1066.772077</ele>
        <time>2022-05-22T05:43:33.931Z</time>
      </trkpt>
      <trkpt lat="42.222820" lon="1.819960">
        <ele>1067.364359</ele>
        <time>2022-05-22T05:43:38.918Z</time>
      </trkpt>
      <trkpt lat="42.222772" lon="1.819833">
        <ele>1067.949968</ele>
        <time>2022-05-22T05:43:43.932Z</time>
      </trkpt>
      <trkpt lat="42.222706" lon="1.819745">
        <ele>1068.464376</ele>
        <time>2022-05-22T05:43:47.935Z</time>
      </trkpt>
      <trkpt lat="42.222619" lon="1.819676">
        <ele>1069.023953</ele>
        <time>2022-05-22T05:43:52.927Z</time>
      </trkpt>
      <trkpt lat="42.222517" lon="1.819672">
        <ele>1069.875703</ele>
        <time>2022-05-22T05:43:57.925Z</time>
      </trkpt>
      <trkpt lat="42.222407" lon="1.819704">
        <ele>1070.850002</ele>
        <time>2022-05-22T05:44:03.928Z</time>
      </trkpt>
      <trkpt lat="42.222314" lon="1.819770">
        <ele>1071.759686</ele>
        <time>2022-05-22T05:44:08.925Z</time>
      </trkpt>
      <trkpt lat="42.222227" lon="1.819824">
        <ele>1072.588753</ele>
        <time>2022-05-22T05:44:13.924Z</time>
      </trkpt>
      <trkpt lat="42.222148" lon="1.819913">
        <ele>1073.479578</ele>
        <time>2022-05-22T05:44:18.927Z</time>
      </trkpt>
      <trkpt lat="42.222073" lon="1.819988">
        <ele>1074.287655</ele>
        <time>2022-05-22T05:44:23.925Z</time>
      </trkpt>
      <trkpt lat="42.222009" lon="1.820083">
        <ele>1075.111152</ele>
        <time>2022-05-22T05:44:27.931Z</time>
      </trkpt>
      <trkpt lat="42.221944" lon="1.820183">
        <ele>1075.964327</ele>
        <time>2022-05-22T05:44:32.928Z</time>
      </trkpt>
      <trkpt lat="42.221884" lon="1.820283">
        <ele>1076.789585</ele>
        <time>2022-05-22T05:44:36.925Z</time>
      </trkpt>
      <trkpt lat="42.221830" lon="1.820390">
        <ele>1077.619854</ele>
        <time>2022-05-22T05:44:40.931Z</time>
      </trkpt>
      <trkpt lat="42.221763" lon="1.820504">
        <ele>1078.553066</ele>
        <time>2022-05-22T05:44:44.933Z</time>
      </trkpt>
      <trkpt lat="42.221710" lon="1.820610">
        <ele>1079.373169</ele>
        <time>2022-05-22T05:44:48.926Z</time>
      </trkpt>
      <trkpt lat="42.221673" lon="1.820744">
        <ele>1080.290179</ele>
        <time>2022-05-22T05:44:52.929Z</time>
      </trkpt>
      <trkpt lat="42.221634" lon="1.820877">
        <ele>1081.207417</ele>
        <time>2022-05-22T05:44:57.934Z</time>
      </trkpt>
      <trkpt lat="42.221596" lon="1.821024">
        <ele>1082.205779</ele>
        <time>2022-05-22T05:45:02.929Z</time>
      </trkpt>
      <trkpt lat="42.221544" lon="1.821147">
        <ele>1083.113944</ele>
        <time>2022-05-22T05:45:06.936Z</time>
      </trkpt>
      <trkpt lat="42.221500" lon="1.821283">
        <ele>1084.065586</ele>
        <time>2022-05-22T05:45:10.932Z</time>
      </trkpt>
      <trkpt lat="42.221446" lon="1.821388">
        <ele>1084.836978</ele>
        <time>2022-05-22T05:45:13.934Z</time>
      </trkpt>
      <trkpt lat="42.221385" lon="1.821486">
        <ele>1085.486097</ele>
        <time>2022-05-22T05:45:16.928Z</time>
      </trkpt>
      <trkpt lat="42.221290" lon="1.821561">
        <ele>1086.239560</ele>
        <time>2022-05-22T05:45:20.919Z</time>
      </trkpt>
      <trkpt lat="42.221191" lon="1.821631">
        <ele>1087.004705</ele>
        <time>2022-05-22T05:45:24.934Z</time>
      </trkpt>
      <trkpt lat="42.221092" lon="1.821672">
        <ele>1087.713709</ele>
        <time>2022-05-22T05:45:28.935Z</time>
      </trkpt>
      <trkpt lat="42.220992" lon="1.821676">
        <ele>1088.398697</ele>
        <time>2022-05-22T05:45:33.929Z</time>
      </trkpt>
      <trkpt lat="42.220903" lon="1.821595">
        <ele>1089.133557</ele>
        <time>2022-05-22T05:45:38.926Z</time>
      </trkpt>
      <trkpt lat="42.220833" lon="1.821502">
        <ele>1089.805924</ele>
        <time>2022-05-22T05:45:43.930Z</time>
      </trkpt>
      <trkpt lat="42.220791" lon="1.821377">
        <ele>1090.501926</ele>
        <time>2022-05-22T05:45:48.928Z</time>
      </trkpt>
      <trkpt lat="42.220802" lon="1.821248">
        <ele>1091.160346</ele>
        <time>2022-05-22T05:45:52.927Z</time>
      </trkpt>
      <trkpt lat="42.220838" lon="1.821113">
        <ele>1091.887893</ele>
        <time>2022-05-22T05:45:56.922Z</time>
      </trkpt>
      <trkpt lat="42.220876" lon="1.820985">
        <ele>1092.587129</ele>
        <time>2022-05-22T05:46:00.921Z</time>
      </trkpt>
      <trkpt lat="42.220922" lon="1.820879">
        <ele>1093.210087</ele>
        <time>2022-05-22T05:46:04.933Z</time>
      </trkpt>
      <trkpt lat="42.220969" lon="1.820758">
        <ele>1093.902892</ele>
        <time>2022-05-22T05:46:08.934Z</time>
      </trkpt>
      <trkpt lat="42.221023" lon="1.820639">
        <ele>1094.610552</ele>
        <time>2022-05-22T05:46:12.917Z</time>
      </trkpt>
      <trkpt lat="42.221088" lon="1.820519">
        <ele>1095.364403</ele>
        <time>2022-05-22T05:46:16.924Z</time>
      </trkpt>
      <trkpt lat="42.221122" lon="1.820391">
        <ele>1096.053914</ele>
        <time>2022-05-22T05:46:20.930Z</time>
      </trkpt>
      <trkpt lat="42.221153" lon="1.820257">
        <ele>1096.765743</ele>
        <time>2022-05-22T05:46:24.929Z</time>
      </trkpt>
      <trkpt lat="42.221168" lon="1.820102">
        <ele>1096.990469</ele>
        <time>2022-05-22T05:46:28.931Z</time>
      </trkpt>
      <trkpt lat="42.221175" lon="1.819948">
        <ele>1097.018362</ele>
        <time>2022-05-22T05:46:32.928Z</time>
      </trkpt>
      <trkpt lat="42.221183" lon="1.819826">
        <ele>1097.040503</ele>
        <time>2022-05-22T05:46:35.928Z</time>
      </trkpt>
      <trkpt lat="42.221188" lon="1.819699">
        <ele>1097.063495</ele>
        <time>2022-05-22T05:46:38.930Z</time>
      </trkpt>
      <trkpt lat="42.221207" lon="1.819575">
        <ele>1097.086387</ele>
        <time>2022-05-22T05:46:41.930Z</time>
      </trkpt>
      <trkpt lat="42.221212" lon="1.819419">
        <ele>1097.114615</ele>
        <time>2022-05-22T05:46:45.927Z</time>
      </trkpt>
      <trkpt lat="42.221233" lon="1.819274">
        <ele>1097.141325</ele>
        <time>2022-05-22T05:46:49.924Z</time>
      </trkpt>
      <trkpt lat="42.221284" lon="1.819129">
        <ele>1097.170345</ele>
        <time>2022-05-22T05:46:53.925Z</time>
      </trkpt>
      <trkpt lat="42.221336" lon="1.819013">
        <ele>1097.194859</ele>
        <time>2022-05-22T05:46:56.933Z</time>
      </trkpt>
      <trkpt lat="42.221369" lon="1.818893">
        <ele>1097.218000</ele>
        <time>2022-05-22T05:46:59.917Z</time>
      </trkpt>
      <trkpt lat="42.221409" lon="1.818769">
        <ele>1097.242451</ele>
        <time>2022-05-22T05:47:02.920Z</time>
      </trkpt>
      <trkpt lat="42.221450" lon="1.818660">
        <ele>1097.264553</ele>
        <time>2022-05-22T05:47:05.926Z</time>
      </trkpt>
      <trkpt lat="42.221485" lon="1.818511">
        <ele>1097.292812</ele>
        <time>2022-05-22T05:47:09.930Z</time>
      </trkpt>
      <trkpt lat="42.221545" lon="1.818384">
        <ele>1097.320045</ele>
        <time>2022-05-22T05:47:13.926Z</time>
      </trkpt>
      <trkpt lat="42.221584" lon="1.818271">
        <ele>1097.342583</ele>
        <time>2022-05-22T05:47:16.949Z</time>
      </trkpt>
      <trkpt lat="42.221623" lon="1.818160">
        <ele>1097.364794</ele>
        <time>2022-05-22T05:47:19.916Z</time>
      </trkpt>
      <trkpt lat="42.221666" lon="1.818049">
        <ele>1097.387440</ele>
        <time>2022-05-22T05:47:22.958Z</time>
      </trkpt>
      <trkpt lat="42.221734" lon="1.817931">
        <ele>1097.663429</ele>
        <time>2022-05-22T05:47:26.931Z</time>
      </trkpt>
      <trkpt lat="42.221813" lon="1.817867">
        <ele>1098.632065</ele>
        <time>2022-05-22T05:47:29.925Z</time>
      </trkpt>
      <trkpt lat="42.221898" lon="1.817807">
        <ele>1099.640512</ele>
        <time>2022-05-22T05:47:32.925Z</time>
      </trkpt>
      <trkpt lat="42.221994" lon="1.817757">
        <ele>1100.722353</ele>
        <time>2022-05-22T05:47:35.931Z</time>
      </trkpt>
      <trkpt lat="42.222091" lon="1.817712">
        <ele>1101.800739</ele>
        <time>2022-05-22T05:47:38.926Z</time>
      </trkpt>
      <trkpt lat="42.222187" lon="1.817668">
        <ele>1102.866658</ele>
        <time>2022-05-22T05:47:41.935Z</time>
      </trkpt>
      <trkpt lat="42.222279" lon="1.817625">
        <ele>1103.890268</ele>
        <time>2022-05-22T05:47:44.930Z</time>
      </trkpt>
      <trkpt lat="42.222376" lon="1.817575">
        <ele>1104.981924</ele>
        <time>2022-05-22T05:47:47.930Z</time>
      </trkpt>
      <trkpt lat="42.222462" lon="1.817499">
        <ele>1106.062565</ele>
        <time>2022-05-22T05:47:50.931Z</time>
      </trkpt>
      <trkpt lat="42.222539" lon="1.817417">
        <ele>1107.093624</ele>
        <time>2022-05-22T05:47:53.935Z</time>
      </trkpt>
      <trkpt lat="42.222596" lon="1.817316">
        <ele>1108.082362</ele>
        <time>2022-05-22T05:47:56.932Z</time>
      </trkpt>
      <trkpt lat="42.222648" lon="1.817212">
        <ele>1109.059418</ele>
        <time>2022-05-22T05:47:59.928Z</time>
      </trkpt>
      <trkpt lat="42.222689" lon="1.817061">
        <ele>1110.311668</ele>
        <time>2022-05-22T05:48:03.933Z</time>
      </trkpt>
      <trkpt lat="42.222720" lon="1.816937">
        <ele>1111.330686</ele>
        <time>2022-05-22T05:48:06.930Z</time>
      </trkpt>
      <trkpt lat="42.222749" lon="1.816814">
        <ele>1112.335751</ele>
        <time>2022-05-22T05:48:09.930Z</time>
      </trkpt>
      <trkpt lat="42.222781" lon="1.816694">
        <ele>1113.328823</ele>
        <time>2022-05-22T05:48:12.932Z</time>
      </trkpt>
      <trkpt lat="42.222821" lon="1.816583">
        <ele>1114.289983</ele>
        <time>2022-05-22T05:48:15.932Z</time>
      </trkpt>
      <trkpt lat="42.222900" lon="1.816468">
        <ele>1115.511329</ele>
        <time>2022-05-22T05:48:19.930Z</time>
      </trkpt>
      <trkpt lat="42.222993" lon="1.816412">
        <ele>1116.561733</ele>
        <time>2022-05-22T05:48:23.934Z</time>
      </trkpt>
      <trkpt lat="42.223083" lon="1.816382">
        <ele>1117.461204</ele>
        <time>2022-05-22T05:48:27.916Z</time>
      </trkpt>
      <trkpt lat="42.223184" lon="1.816372">
        <ele>1118.443825</ele>
        <time>2022-05-22T05:48:31.933Z</time>
      </trkpt>
      <trkpt lat="42.223282" lon="1.816389">
        <ele>1119.402521</ele>
        <time>2022-05-22T05:48:35.930Z</time>
      </trkpt>
      <trkpt lat="42.223376" lon="1.816407">
        <ele>1120.323716</ele>
        <time>2022-05-22T05:48:39.927Z</time>
      </trkpt>
      <trkpt lat="42.223467" lon="1.816424">
        <ele>1121.215087</ele>
        <time>2022-05-22T05:48:43.937Z</time>
      </trkpt>
      <trkpt lat="42.223576" lon="1.816444">
        <ele>1122.282420</ele>
        <time>2022-05-22T05:48:48.930Z</time>
      </trkpt>
      <trkpt lat="42.223680" lon="1.816452">
        <ele>1123.293155</ele>
        <time>2022-05-22T05:48:53.921Z</time>
      </trkpt>
      <trkpt lat="42.223781" lon="1.816458">
        <ele>1124.274094</ele>
        <time>2022-05-22T05:48:58.930Z</time>
      </trkpt>
      <trkpt lat="42.223876" lon="1.816425">
        <ele>1125.225876</ele>
        <time>2022-05-22T05:49:03.924Z</time>
      </trkpt>
      <trkpt lat="42.223979" lon="1.816370">
        <ele>1126.300569</ele>
        <time>2022-05-22T05:49:08.935Z</time>
      </trkpt>
      <trkpt lat="42.224049" lon="1.816267">
        <ele>1127.305073</ele>
        <time>2022-05-22T05:49:13.928Z</time>
      </trkpt>
      <trkpt lat="42.224114" lon="1.816156">
        <ele>1128.321864</ele>
        <time>2022-05-22T05:49:18.926Z</time>
      </trkpt>
      <trkpt lat="42.224169" lon="1.816041">
        <ele>1129.305509</ele>
        <time>2022-05-22T05:49:23.927Z</time>
      </trkpt>
      <trkpt lat="42.224207" lon="1.815918">
        <ele>1130.263116</ele>
        <time>2022-05-22T05:49:28.929Z</time>
      </trkpt>
      <trkpt lat="42.224251" lon="1.815793">
        <ele>1131.257568</ele>
        <time>2022-05-22T05:49:33.932Z</time>
      </trkpt>
      <trkpt lat="42.224294" lon="1.815671">
        <ele>1132.228386</ele>
        <time>2022-05-22T05:49:38.937Z</time>
      </trkpt>
      <trkpt lat="42.224348" lon="1.815538">
        <ele>1133.318228</ele>
        <time>2022-05-22T05:49:43.931Z</time>
      </trkpt>
      <trkpt lat="42.224391" lon="1.815413">
        <ele>1134.150487</ele>
        <time>2022-05-22T05:49:48.927Z</time>
      </trkpt>
      <trkpt lat="42.224429" lon="1.815297">
        <ele>1134.793458</ele>
        <time>2022-05-22T05:49:53.934Z</time>
      </trkpt>
      <trkpt lat="42.224439" lon="1.815166">
        <ele>1135.461016</ele>
        <time>2022-05-22T05:49:58.929Z</time>
      </trkpt>
      <trkpt lat="42.224425" lon="1.815031">
        <ele>1136.152009</ele>
        <time>2022-05-22T05:50:03.929Z</time>
      </trkpt>
      <trkpt lat="42.224405" lon="1.814888">
        <ele>1136.889692</ele>
        <time>2022-05-22T05:50:08.938Z</time>
      </trkpt>
      <trkpt lat="42.224369" lon="1.814773">
        <ele>1137.522575</ele>
        <time>2022-05-22T05:50:13.928Z</time>
      </trkpt>
      <trkpt lat="42.224320" lon="1.814668">
        <ele>1138.151694</ele>
        <time>2022-05-22T05:50:18.920Z</time>
      </trkpt>
      <trkpt lat="42.224250" lon="1.814563">
        <ele>1138.867854</ele>
        <time>2022-05-22T05:50:23.920Z</time>
      </trkpt>
      <trkpt lat="42.224164" lon="1.814503">
        <ele>1139.530467</ele>
        <time>2022-05-22T05:50:28.927Z</time>
      </trkpt>
      <trkpt lat="42.224064" lon="1.814464">
        <ele>1140.242964</ele>
        <time>2022-05-22T05:50:33.920Z</time>
      </trkpt>
      <trkpt lat="42.223975" lon="1.814434">
        <ele>1140.870881</ele>
        <time>2022-05-22T05:50:38.935Z</time>
      </trkpt>
      <trkpt lat="42.223873" lon="1.814392">
        <ele>1141.600830</ele>
        <time>2022-05-22T05:50:43.924Z</time>
      </trkpt>
      <trkpt lat="42.223770" lon="1.814374">
        <ele>1142.311766</ele>
        <time>2022-05-22T05:50:49.925Z</time>
      </trkpt>
      <trkpt lat="42.223670" lon="1.814338">
        <ele>1143.020195</ele>
        <time>2022-05-22T05:50:55.933Z</time>
      </trkpt>
      <trkpt lat="42.223586" lon="1.814271">
        <ele>1143.688004</ele>
        <time>2022-05-22T05:51:00.928Z</time>
      </trkpt>
      <trkpt lat="42.223516" lon="1.814178">
        <ele>1144.360195</ele>
        <time>2022-05-22T05:51:05.930Z</time>
      </trkpt>
      <trkpt lat="42.223455" lon="1.814062">
        <ele>1145.081384</ele>
        <time>2022-05-22T05:51:10.926Z</time>
      </trkpt>
      <trkpt lat="42.223388" lon="1.813966">
        <ele>1145.750078</ele>
        <time>2022-05-22T05:51:14.932Z</time>
      </trkpt>
      <trkpt lat="42.223343" lon="1.813831">
        <ele>1146.381063</ele>
        <time>2022-05-22T05:51:19.928Z</time>
      </trkpt>
      <trkpt lat="42.223311" lon="1.813716">
        <ele>1146.825202</ele>
        <time>2022-05-22T05:51:24.936Z</time>
      </trkpt>
      <trkpt lat="42.223299" lon="1.813579">
        <ele>1147.323947</ele>
        <time>2022-05-22T05:51:29.933Z</time>
      </trkpt>
      <trkpt lat="42.223297" lon="1.813449">
        <ele>1147.794035</ele>
        <time>2022-05-22T05:51:34.922Z</time>
      </trkpt>
      <trkpt lat="42.223319" lon="1.813316">
        <ele>1148.286716</ele>
        <time>2022-05-22T05:51:40.926Z</time>
      </trkpt>
      <trkpt lat="42.223318" lon="1.813178">
        <ele>1148.785648</ele>
        <time>2022-05-22T05:51:46.931Z</time>
      </trkpt>
      <trkpt lat="42.223313" lon="1.813032">
        <ele>1149.314042</ele>
        <time>2022-05-22T05:51:52.923Z</time>
      </trkpt>
      <trkpt lat="42.223317" lon="1.812884">
        <ele>1149.849459</ele>
        <time>2022-05-22T05:51:58.933Z</time>
      </trkpt>
      <trkpt lat="42.223305" lon="1.812741">
        <ele>1150.369752</ele>
        <time>2022-05-22T05:52:04.930Z</time>
      </trkpt>
      <trkpt lat="42.223327" lon="1.812597">
        <ele>1150.901316</ele>
        <time>2022-05-22T05:52:09.929Z</time>
      </trkpt>
      <trkpt lat="42.223292" lon="1.812462">
        <ele>1151.418424</ele>
        <time>2022-05-22T05:52:14.926Z</time>
      </trkpt>
      <trkpt lat="42.223254" lon="1.812349">
        <ele>1151.867100</ele>
        <time>2022-05-22T05:52:18.928Z</time>
      </trkpt>
      <trkpt lat="42.223206" lon="1.812222">
        <ele>1152.382584</ele>
        <time>2022-05-22T05:52:23.927Z</time>
      </trkpt>
      <trkpt lat="42.223174" lon="1.812095">
        <ele>1152.867575</ele>
        <time>2022-05-22T05:52:28.926Z</time>
      </trkpt>
      <trkpt lat="42.223144" lon="1.811975">
        <ele>1153.325464</ele>
        <time>2022-05-22T05:52:33.931Z</time>
      </trkpt>
      <trkpt lat="42.223126" lon="1.811839">
        <ele>1153.824934</ele>
        <time>2022-05-22T05:52:38.930Z</time>
      </trkpt>
      <trkpt lat="42.223092" lon="1.811716">
        <ele>1154.299584</ele>
        <time>2022-05-22T05:52:44.938Z</time>
      </trkpt>
      <trkpt lat="42.223066" lon="1.811583">
        <ele>1154.796890</ele>
        <time>2022-05-22T05:52:49.931Z</time>
      </trkpt>
      <trkpt lat="42.223037" lon="1.811463">
        <ele>1155.335924</ele>
        <time>2022-05-22T05:52:54.931Z</time>
      </trkpt>
      <trkpt lat="42.222996" lon="1.811344">
        <ele>1155.911466</ele>
        <time>2022-05-22T05:53:00.923Z</time>
      </trkpt>
      <trkpt lat="42.222955" lon="1.811220">
        <ele>1156.506959</ele>
        <time>2022-05-22T05:53:05.934Z</time>
      </trkpt>
      <trkpt lat="42.222921" lon="1.811101">
        <ele>1157.066281</ele>
        <time>2022-05-22T05:53:10.927Z</time>
      </trkpt>
      <trkpt lat="42.222881" lon="1.810970">
        <ele>1157.687648</ele>
        <time>2022-05-22T05:53:15.924Z</time>
      </trkpt>
      <trkpt lat="42.222870" lon="1.810844">
        <ele>1158.243999</ele>
        <time>2022-05-22T05:53:20.930Z</time>
      </trkpt>
      <trkpt lat="42.222865" lon="1.810714">
        <ele>1158.814833</ele>
        <time>2022-05-22T05:53:25.925Z</time>
      </trkpt>
      <trkpt lat="42.222828" lon="1.810584">
        <ele>1159.425553</ele>
        <time>2022-05-22T05:53:30.926Z</time>
      </trkpt>
      <trkpt lat="42.222776" lon="1.810469">
        <ele>1160.016420</ele>
        <time>2022-05-22T05:53:35.928Z</time>
      </trkpt>
      <trkpt lat="42.222748" lon="1.810346">
        <ele>1160.580699</ele>
        <time>2022-05-22T05:53:40.932Z</time>
      </trkpt>
      <trkpt lat="42.222702" lon="1.810225">
        <ele>1161.177134</ele>
        <time>2022-05-22T05:53:45.929Z</time>
      </trkpt>
      <trkpt lat="42.222654" lon="1.810099">
        <ele>1161.798484</ele>
        <time>2022-05-22T05:53:50.934Z</time>
      </trkpt>
      <trkpt lat="42.222623" lon="1.809957">
        <ele>1162.447667</ele>
        <time>2022-05-22T05:53:55.930Z</time>
      </trkpt>
      <trkpt lat="42.222593" lon="1.809841">
        <ele>1162.986471</ele>
        <time>2022-05-22T05:53:59.926Z</time>
      </trkpt>
      <trkpt lat="42.222544" lon="1.809720">
        <ele>1163.591227</ele>
        <time>2022-05-22T05:54:04.927Z</time>
      </trkpt>
      <trkpt lat="42.222512" lon="1.809591">
        <ele>1164.187804</ele>
        <time>2022-05-22T05:54:09.925Z</time>
      </trkpt>
      <trkpt lat="42.222459" lon="1.809471">
        <ele>1164.800504</ele>
        <time>2022-05-22T05:54:14.925Z</time>
      </trkpt>
      <trkpt lat="42.222447" lon="1.809330">
        <ele>1165.422880</ele>
        <time>2022-05-22T05:54:19.925Z</time>
      </trkpt>
      <trkpt lat="42.222453" lon="1.809196">
        <ele>1166.119343</ele>
        <time>2022-05-22T05:54:24.928Z</time>
      </trkpt>
      <trkpt lat="42.222452" lon="1.809051">
        <ele>1166.893427</ele>
        <time>2022-05-22T05:54:29.927Z</time>
      </trkpt>
      <trkpt lat="42.222431" lon="1.808909">
        <ele>1167.666430</ele>
        <time>2022-05-22T05:54:34.922Z</time>
      </trkpt>
      <trkpt lat="42.222438" lon="1.808761">
        <ele>1168.458106</ele>
        <time>2022-05-22T05:54:39.929Z</time>
      </trkpt>
      <trkpt lat="42.222450" lon="1.808621">
        <ele>1169.210454</ele>
        <time>2022-05-22T05:54:44.933Z</time>
      </trkpt>
      <trkpt lat="42.222403" lon="1.808497">
        <ele>1169.954068</ele>
        <time>2022-05-22T05:54:50.930Z</time>
      </trkpt>
      <trkpt lat="42.222347" lon="1.808395">
        <ele>1170.631892</ele>
        <time>2022-05-22T05:54:55.927Z</time>
      </trkpt>
      <trkpt lat="42.222282" lon="1.808278">
        <ele>1171.412692</ele>
        <time>2022-05-22T05:55:01.923Z</time>
      </trkpt>
      <trkpt lat="42.222215" lon="1.808179">
        <ele>1172.128632</ele>
        <time>2022-05-22T05:55:06.931Z</time>
      </trkpt>
      <trkpt lat="42.222140" lon="1.808077">
        <ele>1172.895956</ele>
        <time>2022-05-22T05:55:11.923Z</time>
      </trkpt>
      <trkpt lat="42.222072" lon="1.807970">
        <ele>1173.648652</ele>
        <time>2022-05-22T05:55:16.930Z</time>
      </trkpt>
      <trkpt lat="42.222003" lon="1.807858">
        <ele>1174.426389</ele>
        <time>2022-05-22T05:55:21.925Z</time>
      </trkpt>
      <trkpt lat="42.221927" lon="1.807751">
        <ele>1175.217852</ele>
        <time>2022-05-22T05:55:26.924Z</time>
      </trkpt>
      <trkpt lat="42.221870" lon="1.807653">
        <ele>1175.883077</ele>
        <time>2022-05-22T05:55:30.930Z</time>
      </trkpt>
      <trkpt lat="42.221810" lon="1.807544">
        <ele>1176.608096</ele>
        <time>2022-05-22T05:55:34.923Z</time>
      </trkpt>
      <trkpt lat="42.221772" lon="1.807414">
        <ele>1177.354185</ele>
        <time>2022-05-22T05:55:38.924Z</time>
      </trkpt>
      <trkpt lat="42.221774" lon="1.807279">
        <ele>1178.075005</ele>
        <time>2022-05-22T05:55:42.922Z</time>
      </trkpt>
      <trkpt lat="42.221798" lon="1.807128">
        <ele>1179.036942</ele>
        <time>2022-05-22T05:55:46.927Z</time>
      </trkpt>
      <trkpt lat="42.221845" lon="1.806998">
        <ele>1180.063217</ele>
        <time>2022-05-22T05:55:50.932Z</time>
      </trkpt>
      <trkpt lat="42.221920" lon="1.806879">
        <ele>1181.171762</ele>
        <time>2022-05-22T05:55:54.922Z</time>
      </trkpt>
      <trkpt lat="42.222005" lon="1.806783">
        <ele>1182.233287</ele>
        <time>2022-05-22T05:55:58.922Z</time>
      </trkpt>
      <trkpt lat="42.222074" lon="1.806695">
        <ele>1183.142483</ele>
        <time>2022-05-22T05:56:02.932Z</time>
      </trkpt>
      <trkpt lat="42.222166" lon="1.806610">
        <ele>1184.210347</ele>
        <time>2022-05-22T05:56:07.930Z</time>
      </trkpt>
      <trkpt lat="42.222253" lon="1.806531">
        <ele>1185.214677</ele>
        <time>2022-05-22T05:56:12.924Z</time>
      </trkpt>
      <trkpt lat="42.222331" lon="1.806455">
        <ele>1186.136090</ele>
        <time>2022-05-22T05:56:16.928Z</time>
      </trkpt>
      <trkpt lat="42.222421" lon="1.806366">
        <ele>1187.204713</ele>
        <time>2022-05-22T05:56:21.925Z</time>
      </trkpt>
      <trkpt lat="42.222506" lon="1.806282">
        <ele>1188.213734</ele>
        <time>2022-05-22T05:56:26.927Z</time>
      </trkpt>
      <trkpt lat="42.222600" lon="1.806208">
        <ele>1189.256062</ele>
        <time>2022-05-22T05:56:31.918Z</time>
      </trkpt>
      <trkpt lat="42.222680" lon="1.806136">
        <ele>1190.177042</ele>
        <time>2022-05-22T05:56:36.925Z</time>
      </trkpt>
      <trkpt lat="42.222772" lon="1.806072">
        <ele>1191.168434</ele>
        <time>2022-05-22T05:56:42.922Z</time>
      </trkpt>
      <trkpt lat="42.222859" lon="1.806002">
        <ele>1192.138582</ele>
        <time>2022-05-22T05:56:47.928Z</time>
      </trkpt>
      <trkpt lat="42.222940" lon="1.805947">
        <ele>1193.007101</ele>
        <time>2022-05-22T05:56:50.926Z</time>
      </trkpt>
      <trkpt lat="42.223032" lon="1.805881">
        <ele>1194.005070</ele>
        <time>2022-05-22T05:56:54.924Z</time>
      </trkpt>
      <trkpt lat="42.223120" lon="1.805821">
        <ele>1194.949433</ele>
        <time>2022-05-22T05:56:58.927Z</time>
      </trkpt>
      <trkpt lat="42.223213" lon="1.805768">
        <ele>1195.853739</ele>
        <time>2022-05-22T05:57:02.922Z</time>
      </trkpt>
      <trkpt lat="42.223305" lon="1.805731">
        <ele>1196.491821</ele>
        <time>2022-05-22T05:57:06.927Z</time>
      </trkpt>
      <trkpt lat="42.223397" lon="1.805728">
        <ele>1197.103536</ele>
        <time>2022-05-22T05:57:10.932Z</time>
      </trkpt>
      <trkpt lat="42.223486" lon="1.805747">
        <ele>1197.702478</ele>
        <time>2022-05-22T05:57:14.928Z</time>
      </trkpt>
      <trkpt lat="42.223578" lon="1.805784">
        <ele>1198.340559</ele>
        <time>2022-05-22T05:57:18.932Z</time>
      </trkpt>
      <trkpt lat="42.223676" lon="1.805828">
        <ele>1199.027041</ele>
        <time>2022-05-22T05:57:22.927Z</time>
      </trkpt>
      <trkpt lat="42.223759" lon="1.805878">
        <ele>1199.631161</ele>
        <time>2022-05-22T05:57:26.932Z</time>
      </trkpt>
      <trkpt lat="42.223865" lon="1.805921">
        <ele>1200.366863</ele>
        <time>2022-05-22T05:57:31.927Z</time>
      </trkpt>
      <trkpt lat="42.223960" lon="1.805959">
        <ele>1201.025461</ele>
        <time>2022-05-22T05:57:35.924Z</time>
      </trkpt>
      <trkpt lat="42.224067" lon="1.805939">
        <ele>1201.743486</ele>
        <time>2022-05-22T05:57:40.922Z</time>
      </trkpt>
      <trkpt lat="42.224161" lon="1.805897">
        <ele>1202.401631</ele>
        <time>2022-05-22T05:57:44.930Z</time>
      </trkpt>
      <trkpt lat="42.224257" lon="1.805857">
        <ele>1203.069441</ele>
        <time>2022-05-22T05:57:48.926Z</time>
      </trkpt>
      <trkpt lat="42.224346" lon="1.805777">
        <ele>1203.780112</ele>
        <time>2022-05-22T05:57:52.928Z</time>
      </trkpt>
      <trkpt lat="42.224420" lon="1.805704">
        <ele>1204.389269</ele>
        <time>2022-05-22T05:57:56.928Z</time>
      </trkpt>
      <trkpt lat="42.224518" lon="1.805632">
        <ele>1205.130856</ele>
        <time>2022-05-22T05:58:01.922Z</time>
      </trkpt>
      <trkpt lat="42.224600" lon="1.805538">
        <ele>1205.845829</ele>
        <time>2022-05-22T05:58:06.927Z</time>
      </trkpt>
      <trkpt lat="42.224687" lon="1.805503">
        <ele>1206.449246</ele>
        <time>2022-05-22T05:58:10.921Z</time>
      </trkpt>
      <trkpt lat="42.224773" lon="1.805409">
        <ele>1207.184689</ele>
        <time>2022-05-22T05:58:15.921Z</time>
      </trkpt>
      <trkpt lat="42.224823" lon="1.805294">
        <ele>1207.731404</ele>
        <time>2022-05-22T05:58:20.928Z</time>
      </trkpt>
      <trkpt lat="42.224893" lon="1.805196">
        <ele>1207.978147</ele>
        <time>2022-05-22T05:58:25.931Z</time>
      </trkpt>
      <trkpt lat="42.224956" lon="1.805093">
        <ele>1208.220236</ele>
        <time>2022-05-22T05:58:29.929Z</time>
      </trkpt>
      <trkpt lat="42.225007" lon="1.804990">
        <ele>1208.444768</ele>
        <time>2022-05-22T05:58:33.919Z</time>
      </trkpt>
      <trkpt lat="42.225071" lon="1.804903">
        <ele>1208.666994</ele>
        <time>2022-05-22T05:58:37.933Z</time>
      </trkpt>
      <trkpt lat="42.225116" lon="1.804795">
        <ele>1208.891560</ele>
        <time>2022-05-22T05:58:41.932Z</time>
      </trkpt>
      <trkpt lat="42.225186" lon="1.804696">
        <ele>1209.139610</ele>
        <time>2022-05-22T05:58:45.933Z</time>
      </trkpt>
      <trkpt lat="42.225245" lon="1.804593">
        <ele>1209.375585</ele>
        <time>2022-05-22T05:58:49.926Z</time>
      </trkpt>
      <trkpt lat="42.225325" lon="1.804484">
        <ele>1209.653689</ele>
        <time>2022-05-22T05:58:54.929Z</time>
      </trkpt>
      <trkpt lat="42.225386" lon="1.804382">
        <ele>1209.891277</ele>
        <time>2022-05-22T05:58:58.927Z</time>
      </trkpt>
      <trkpt lat="42.225442" lon="1.804249">
        <ele>1210.168527</ele>
        <time>2022-05-22T05:59:03.929Z</time>
      </trkpt>
      <trkpt lat="42.225484" lon="1.804134">
        <ele>1210.400889</ele>
        <time>2022-05-22T05:59:07.928Z</time>
      </trkpt>
      <trkpt lat="42.225530" lon="1.804026">
        <ele>1210.626664</ele>
        <time>2022-05-22T05:59:11.927Z</time>
      </trkpt>
      <trkpt lat="42.225559" lon="1.803900">
        <ele>1210.865766</ele>
        <time>2022-05-22T05:59:16.917Z</time>
      </trkpt>
      <trkpt lat="42.225583" lon="1.803766">
        <ele>1211.115593</ele>
        <time>2022-05-22T05:59:21.920Z</time>
      </trkpt>
      <trkpt lat="42.225622" lon="1.803639">
        <ele>1211.364737</ele>
        <time>2022-05-22T05:59:26.929Z</time>
      </trkpt>
      <trkpt lat="42.225667" lon="1.803530">
        <ele>1211.590882</ele>
        <time>2022-05-22T05:59:31.928Z</time>
      </trkpt>
      <trkpt lat="42.225698" lon="1.803403">
        <ele>1211.833203</ele>
        <time>2022-05-22T05:59:37.924Z</time>
      </trkpt>
      <trkpt lat="42.225742" lon="1.803265">
        <ele>1212.148405</ele>
        <time>2022-05-22T05:59:42.925Z</time>
      </trkpt>
      <trkpt lat="42.225780" lon="1.803133">
        <ele>1212.707418</ele>
        <time>2022-05-22T05:59:46.924Z</time>
      </trkpt>
      <trkpt lat="42.225801" lon="1.803008">
        <ele>1213.213351</ele>
        <time>2022-05-22T05:59:50.920Z</time>
      </trkpt>
      <trkpt lat="42.225835" lon="1.802882">
        <ele>1213.742684</ele>
        <time>2022-05-22T05:59:55.915Z</time>
      </trkpt>
      <trkpt lat="42.225858" lon="1.802764">
        <ele>1214.224313</ele>
        <time>2022-05-22T06:00:00.924Z</time>
      </trkpt>
      <trkpt lat="42.225866" lon="1.802640">
        <ele>1214.715614</ele>
        <time>2022-05-22T06:00:05.925Z</time>
      </trkpt>
      <trkpt lat="42.225915" lon="1.802531">
        <ele>1215.218928</ele>
        <time>2022-05-22T06:00:10.930Z</time>
      </trkpt>
      <trkpt lat="42.225952" lon="1.802411">
        <ele>1215.732006</ele>
        <time>2022-05-22T06:00:15.920Z</time>
      </trkpt>
      <trkpt lat="42.225996" lon="1.802304">
        <ele>1216.215103</ele>
        <time>2022-05-22T06:00:20.925Z</time>
      </trkpt>
      <trkpt lat="42.226033" lon="1.802188">
        <ele>1216.713642</ele>
        <time>2022-05-22T06:00:25.929Z</time>
      </trkpt>
      <trkpt lat="42.226036" lon="1.802057">
        <ele>1217.230964</ele>
        <time>2022-05-22T06:00:31.919Z</time>
      </trkpt>
      <trkpt lat="42.226040" lon="1.801923">
        <ele>1217.760311</ele>
        <time>2022-05-22T06:00:37.922Z</time>
      </trkpt>
      <trkpt lat="42.226023" lon="1.801799">
        <ele>1218.258074</ele>
        <time>2022-05-22T06:00:43.924Z</time>
      </trkpt>
      <trkpt lat="42.226020" lon="1.801668">
        <ele>1218.775397</ele>
        <time>2022-05-22T06:00:48.926Z</time>
      </trkpt>
      <trkpt lat="42.226005" lon="1.801533">
        <ele>1219.314226</ele>
        <time>2022-05-22T06:00:54.928Z</time>
      </trkpt>
      <trkpt lat="42.225998" lon="1.801409">
        <ele>1219.805092</ele>
        <time>2022-05-22T06:00:59.931Z</time>
      </trkpt>
      <trkpt lat="42.225987" lon="1.801271">
        <ele>1220.352945</ele>
        <time>2022-05-22T06:01:05.923Z</time>
      </trkpt>
      <trkpt lat="42.225936" lon="1.801164">
        <ele>1220.855216</ele>
        <time>2022-05-22T06:01:09.925Z</time>
      </trkpt>
      <trkpt lat="42.225913" lon="1.801024">
        <ele>1221.421253</ele>
        <time>2022-05-22T06:01:16.929Z</time>
      </trkpt>
      <trkpt lat="42.225901" lon="1.800888">
        <ele>1222.149947</ele>
        <time>2022-05-22T06:01:21.923Z</time>
      </trkpt>
      <trkpt lat="42.225903" lon="1.800761">
        <ele>1222.960158</ele>
        <time>2022-05-22T06:01:26.929Z</time>
      </trkpt>
      <trkpt lat="42.225899" lon="1.800623">
        <ele>1223.841020</ele>
        <time>2022-05-22T06:01:32.939Z</time>
      </trkpt>
      <trkpt lat="42.225892" lon="1.800491">
        <ele>1224.685094</ele>
        <time>2022-05-22T06:01:37.926Z</time>
      </trkpt>
      <trkpt lat="42.225884" lon="1.800357">
        <ele>1225.542543</ele>
        <time>2022-05-22T06:01:41.936Z</time>
      </trkpt>
      <trkpt lat="42.225920" lon="1.800223">
        <ele>1226.451728</ele>
        <time>2022-05-22T06:01:46.925Z</time>
      </trkpt>
      <trkpt lat="42.225943" lon="1.800078">
        <ele>1227.397542</ele>
        <time>2022-05-22T06:01:51.926Z</time>
      </trkpt>
      <trkpt lat="42.225945" lon="1.799952">
        <ele>1228.201376</ele>
        <time>2022-05-22T06:01:56.924Z</time>
      </trkpt>
      <trkpt lat="42.225966" lon="1.799830">
        <ele>1229.000258</ele>
        <time>2022-05-22T06:02:01.925Z</time>
      </trkpt>
      <trkpt lat="42.225976" lon="1.799693">
        <ele>1229.878302</ele>
        <time>2022-05-22T06:02:06.926Z</time>
      </trkpt>
      <trkpt lat="42.225996" lon="1.799566">
        <ele>1230.706443</ele>
        <time>2022-05-22T06:02:11.924Z</time>
      </trkpt>
      <trkpt lat="42.226021" lon="1.799424">
        <ele>1231.637388</ele>
        <time>2022-05-22T06:02:16.931Z</time>
      </trkpt>
      <trkpt lat="42.226042" lon="1.799277">
        <ele>1232.592266</ele>
        <time>2022-05-22T06:02:21.922Z</time>
      </trkpt>
      <trkpt lat="42.226065" lon="1.799147">
        <ele>1233.444764</ele>
        <time>2022-05-22T06:02:26.920Z</time>
      </trkpt>
      <trkpt lat="42.226098" lon="1.799033">
        <ele>1234.225456</ele>
        <time>2022-05-22T06:02:30.923Z</time>
      </trkpt>
      <trkpt lat="42.226141" lon="1.798925">
        <ele>1235.007553</ele>
        <time>2022-05-22T06:02:34.926Z</time>
      </trkpt>
      <trkpt lat="42.226188" lon="1.798814">
        <ele>1235.823097</ele>
        <time>2022-05-22T06:02:37.946Z</time>
      </trkpt>
      <trkpt lat="42.226230" lon="1.798700">
        <ele>1236.635227</ele>
        <time>2022-05-22T06:02:40.926Z</time>
      </trkpt>
      <trkpt lat="42.226272" lon="1.798562">
        <ele>1237.770609</ele>
        <time>2022-05-22T06:02:44.926Z</time>
      </trkpt>
      <trkpt lat="42.226305" lon="1.798417">
        <ele>1239.143961</ele>
        <time>2022-05-22T06:02:49.926Z</time>
      </trkpt>
      <trkpt lat="42.226342" lon="1.798278">
        <ele>1240.481227</ele>
        <time>2022-05-22T06:02:54.926Z</time>
      </trkpt>
      <trkpt lat="42.226411" lon="1.798184">
        <ele>1241.679524</ele>
        <time>2022-05-22T06:02:58.926Z</time>
      </trkpt>
      <trkpt lat="42.226491" lon="1.798099">
        <ele>1242.924057</ele>
        <time>2022-05-22T06:03:02.930Z</time>
      </trkpt>
      <trkpt lat="42.226586" lon="1.798041">
        <ele>1244.198727</ele>
        <time>2022-05-22T06:03:06.929Z</time>
      </trkpt>
      <trkpt lat="42.226683" lon="1.797983">
        <ele>1245.495717</ele>
        <time>2022-05-22T06:03:11.930Z</time>
      </trkpt>
      <trkpt lat="42.226788" lon="1.797954">
        <ele>1246.806040</ele>
        <time>2022-05-22T06:03:16.931Z</time>
      </trkpt>
      <trkpt lat="42.226894" lon="1.797901">
        <ele>1248.187992</ele>
        <time>2022-05-22T06:03:22.931Z</time>
      </trkpt>
      <trkpt lat="42.226996" lon="1.797859">
        <ele>1249.491744</ele>
        <time>2022-05-22T06:03:27.924Z</time>
      </trkpt>
      <trkpt lat="42.227096" lon="1.797825">
        <ele>1250.752517</ele>
        <time>2022-05-22T06:03:32.926Z</time>
      </trkpt>
      <trkpt lat="42.227195" lon="1.797800">
        <ele>1251.983889</ele>
        <time>2022-05-22T06:03:38.929Z</time>
      </trkpt>
      <trkpt lat="42.227285" lon="1.797774">
        <ele>1253.109141</ele>
        <time>2022-05-22T06:03:43.936Z</time>
      </trkpt>
      <trkpt lat="42.227390" lon="1.797754">
        <ele>1254.405598</ele>
        <time>2022-05-22T06:03:49.929Z</time>
      </trkpt>
      <trkpt lat="42.227485" lon="1.797733">
        <ele>1255.582543</ele>
        <time>2022-05-22T06:03:54.923Z</time>
      </trkpt>
      <trkpt lat="42.227579" lon="1.797715">
        <ele>1256.743301</ele>
        <time>2022-05-22T06:03:59.925Z</time>
      </trkpt>
      <trkpt lat="42.227678" lon="1.797673">
        <ele>1258.012014</ele>
        <time>2022-05-22T06:04:05.925Z</time>
      </trkpt>
      <trkpt lat="42.227789" lon="1.797647">
        <ele>1259.403363</ele>
        <time>2022-05-22T06:04:10.923Z</time>
      </trkpt>
      <trkpt lat="42.227888" lon="1.797619">
        <ele>1260.709155</ele>
        <time>2022-05-22T06:04:16.962Z</time>
      </trkpt>
      <trkpt lat="42.227992" lon="1.797588">
        <ele>1262.084083</ele>
        <time>2022-05-22T06:04:21.938Z</time>
      </trkpt>
      <trkpt lat="42.228094" lon="1.797568">
        <ele>1263.414683</ele>
        <time>2022-05-22T06:04:26.918Z</time>
      </trkpt>
      <trkpt lat="42.228189" lon="1.797553">
        <ele>1264.649462</ele>
        <time>2022-05-22T06:04:31.924Z</time>
      </trkpt>
      <trkpt lat="42.228284" lon="1.797520">
        <ele>1265.915808</ele>
        <time>2022-05-22T06:04:36.935Z</time>
      </trkpt>
      <trkpt lat="42.228360" lon="1.797434">
        <ele>1267.195841</ele>
        <time>2022-05-22T06:04:41.924Z</time>
      </trkpt>
      <trkpt lat="42.228443" lon="1.797370">
        <ele>1268.429706</ele>
        <time>2022-05-22T06:04:46.919Z</time>
      </trkpt>
      <trkpt lat="42.228532" lon="1.797291">
        <ele>1269.804634</ele>
        <time>2022-05-22T06:04:52.925Z</time>
      </trkpt>
      <trkpt lat="42.228605" lon="1.797203">
        <ele>1271.067876</ele>
        <time>2022-05-22T06:04:57.922Z</time>
      </trkpt>
      <trkpt lat="42.228679" lon="1.797108">
        <ele>1272.385957</ele>
        <time>2022-05-22T06:05:03.920Z</time>
      </trkpt>
      <trkpt lat="42.228743" lon="1.797002">
        <ele>1273.693390</ele>
        <time>2022-05-22T06:05:09.921Z</time>
      </trkpt>
      <trkpt lat="42.228814" lon="1.796903">
        <ele>1275.010867</ele>
        <time>2022-05-22T06:05:15.922Z</time>
      </trkpt>
      <trkpt lat="42.228878" lon="1.796788">
        <ele>1276.386051</ele>
        <time>2022-05-22T06:05:21.931Z</time>
      </trkpt>
      <trkpt lat="42.228932" lon="1.796684">
        <ele>1277.600273</ele>
        <time>2022-05-22T06:05:26.941Z</time>
      </trkpt>
      <trkpt lat="42.228995" lon="1.796573">
        <ele>1278.937192</ele>
        <time>2022-05-22T06:05:31.935Z</time>
      </trkpt>
      <trkpt lat="42.229047" lon="1.796470">
        <ele>1280.128865</ele>
        <time>2022-05-22T06:05:36.935Z</time>
      </trkpt>
      <trkpt lat="42.229117" lon="1.796368">
        <ele>1281.458278</ele>
        <time>2022-05-22T06:05:41.933Z</time>
      </trkpt>
      <trkpt lat="42.229167" lon="1.796255">
        <ele>1282.539850</ele>
        <time>2022-05-22T06:05:46.931Z</time>
      </trkpt>
      <trkpt lat="42.229216" lon="1.796134">
        <ele>1283.205898</ele>
        <time>2022-05-22T06:05:51.939Z</time>
      </trkpt>
      <trkpt lat="42.229257" lon="1.795998">
        <ele>1283.915055</ele>
        <time>2022-05-22T06:05:56.938Z</time>
      </trkpt>
      <trkpt lat="42.229285" lon="1.795870">
        <ele>1284.559637</ele>
        <time>2022-05-22T06:06:01.928Z</time>
      </trkpt>
      <trkpt lat="42.229302" lon="1.795735">
        <ele>1285.220974</ele>
        <time>2022-05-22T06:06:06.936Z</time>
      </trkpt>
      <trkpt lat="42.229312" lon="1.795612">
        <ele>1285.818567</ele>
        <time>2022-05-22T06:06:12.930Z</time>
      </trkpt>
      <trkpt lat="42.229315" lon="1.795471">
        <ele>1286.499801</ele>
        <time>2022-05-22T06:06:17.941Z</time>
      </trkpt>
      <trkpt lat="42.229326" lon="1.795343">
        <ele>1287.122120</ele>
        <time>2022-05-22T06:06:22.011Z</time>
      </trkpt>
      <trkpt lat="42.229329" lon="1.795188">
        <ele>1287.870941</ele>
        <time>2022-05-22T06:06:25.922Z</time>
      </trkpt>
      <trkpt lat="42.229340" lon="1.795040">
        <ele>1288.589291</ele>
        <time>2022-05-22T06:06:28.936Z</time>
      </trkpt>
      <trkpt lat="42.229336" lon="1.794886">
        <ele>1289.333484</ele>
        <time>2022-05-22T06:06:31.925Z</time>
      </trkpt>
      <trkpt lat="42.229340" lon="1.794738">
        <ele>1290.048719</ele>
        <time>2022-05-22T06:06:34.919Z</time>
      </trkpt>
      <trkpt lat="42.229340" lon="1.794585">
        <ele>1290.787625</ele>
        <time>2022-05-22T06:06:37.928Z</time>
      </trkpt>
      <trkpt lat="42.229326" lon="1.794433">
        <ele>1291.527359</ele>
        <time>2022-05-22T06:06:40.934Z</time>
      </trkpt>
      <trkpt lat="42.229326" lon="1.794269">
        <ele>1292.319389</ele>
        <time>2022-05-22T06:06:43.931Z</time>
      </trkpt>
      <trkpt lat="42.229326" lon="1.794112">
        <ele>1293.077613</ele>
        <time>2022-05-22T06:06:46.921Z</time>
      </trkpt>
      <trkpt lat="42.229331" lon="1.793973">
        <ele>1293.749699</ele>
        <time>2022-05-22T06:06:49.930Z</time>
      </trkpt>
      <trkpt lat="42.229321" lon="1.793843">
        <ele>1293.984594</ele>
        <time>2022-05-22T06:06:52.930Z</time>
      </trkpt>
      <trkpt lat="42.229268" lon="1.793693">
        <ele>1293.691887</ele>
        <time>2022-05-22T06:06:56.934Z</time>
      </trkpt>
      <trkpt lat="42.229240" lon="1.793572">
        <ele>1293.468624</ele>
        <time>2022-05-22T06:06:59.928Z</time>
      </trkpt>
      <trkpt lat="42.229199" lon="1.793457">
        <ele>1293.243838</ele>
        <time>2022-05-22T06:07:03.924Z</time>
      </trkpt>
      <trkpt lat="42.229115" lon="1.793352">
        <ele>1292.971603</ele>
        <time>2022-05-22T06:07:07.925Z</time>
      </trkpt>
      <trkpt lat="42.229020" lon="1.793304">
        <ele>1292.730355</ele>
        <time>2022-05-22T06:07:10.928Z</time>
      </trkpt>
      <trkpt lat="42.228918" lon="1.793279">
        <ele>1292.483790</ele>
        <time>2022-05-22T06:07:13.933Z</time>
      </trkpt>
      <trkpt lat="42.228809" lon="1.793248">
        <ele>1292.218853</ele>
        <time>2022-05-22T06:07:16.927Z</time>
      </trkpt>
      <trkpt lat="42.228704" lon="1.793183">
        <ele>1291.944129</ele>
        <time>2022-05-22T06:07:20.920Z</time>
      </trkpt>
      <trkpt lat="42.228624" lon="1.793084">
        <ele>1291.686050</ele>
        <time>2022-05-22T06:07:23.924Z</time>
      </trkpt>
      <trkpt lat="42.228563" lon="1.792969">
        <ele>1291.436911</ele>
        <time>2022-05-22T06:07:26.927Z</time>
      </trkpt>
      <trkpt lat="42.228501" lon="1.792847">
        <ele>1291.176313</ele>
        <time>2022-05-22T06:07:29.926Z</time>
      </trkpt>
      <trkpt lat="42.228444" lon="1.792697">
        <ele>1290.879381</ele>
        <time>2022-05-22T06:07:32.923Z</time>
      </trkpt>
      <trkpt lat="42.228440" lon="1.792566">
        <ele>1290.648471</ele>
        <time>2022-05-22T06:07:34.918Z</time>
      </trkpt>
      <trkpt lat="42.228446" lon="1.792427">
        <ele>1290.403253</ele>
        <time>2022-05-22T06:07:36.923Z</time>
      </trkpt>
      <trkpt lat="42.228436" lon="1.792258">
        <ele>1290.104666</ele>
        <time>2022-05-22T06:07:39.920Z</time>
      </trkpt>
      <trkpt lat="42.228447" lon="1.792101">
        <ele>1289.826927</ele>
        <time>2022-05-22T06:07:42.923Z</time>
      </trkpt>
      <trkpt lat="42.228449" lon="1.791975">
        <ele>1289.514534</ele>
        <time>2022-05-22T06:07:44.925Z</time>
      </trkpt>
      <trkpt lat="42.228444" lon="1.791818">
        <ele>1289.117182</ele>
        <time>2022-05-22T06:07:47.944Z</time>
      </trkpt>
      <trkpt lat="42.228427" lon="1.791657">
        <ele>1288.705966</ele>
        <time>2022-05-22T06:07:50.921Z</time>
      </trkpt>
      <trkpt lat="42.228387" lon="1.791486">
        <ele>1288.252519</ele>
        <time>2022-05-22T06:07:53.921Z</time>
      </trkpt>
      <trkpt lat="42.228360" lon="1.791350">
        <ele>1287.896489</ele>
        <time>2022-05-22T06:07:56.926Z</time>
      </trkpt>
      <trkpt lat="42.228324" lon="1.791175">
        <ele>1287.437231</ele>
        <time>2022-05-22T06:07:59.940Z</time>
      </trkpt>
      <trkpt lat="42.228274" lon="1.791049">
        <ele>1287.075764</ele>
        <time>2022-05-22T06:08:01.931Z</time>
      </trkpt>
      <trkpt lat="42.228197" lon="1.790909">
        <ele>1286.634796</ele>
        <time>2022-05-22T06:08:04.921Z</time>
      </trkpt>
      <trkpt lat="42.228118" lon="1.790764">
        <ele>1286.179600</ele>
        <time>2022-05-22T06:08:07.927Z</time>
      </trkpt>
      <trkpt lat="42.228055" lon="1.790661">
        <ele>1285.841794</ele>
        <time>2022-05-22T06:08:09.931Z</time>
      </trkpt>
      <trkpt lat="42.227988" lon="1.790570">
        <ele>1285.517307</ele>
        <time>2022-05-22T06:08:11.932Z</time>
      </trkpt>
      <trkpt lat="42.227920" lon="1.790472">
        <ele>1285.177711</ele>
        <time>2022-05-22T06:08:13.931Z</time>
      </trkpt>
      <trkpt lat="42.227851" lon="1.790373">
        <ele>1284.833934</ele>
        <time>2022-05-22T06:08:15.933Z</time>
      </trkpt>
      <trkpt lat="42.227773" lon="1.790266">
        <ele>1284.454268</ele>
        <time>2022-05-22T06:08:17.920Z</time>
      </trkpt>
      <trkpt lat="42.227700" lon="1.790164">
        <ele>1284.095573</ele>
        <time>2022-05-22T06:08:19.926Z</time>
      </trkpt>
      <trkpt lat="42.227648" lon="1.790055">
        <ele>1283.767708</ele>
        <time>2022-05-22T06:08:21.926Z</time>
      </trkpt>
      <trkpt lat="42.227601" lon="1.789928">
        <ele>1283.643113</ele>
        <time>2022-05-22T06:08:23.921Z</time>
      </trkpt>
      <trkpt lat="42.227556" lon="1.789790">
        <ele>1283.603221</ele>
        <time>2022-05-22T06:08:25.926Z</time>
      </trkpt>
      <trkpt lat="42.227516" lon="1.789641">
        <ele>1283.561291</ele>
        <time>2022-05-22T06:08:27.926Z</time>
      </trkpt>
      <trkpt lat="42.227492" lon="1.789502">
        <ele>1283.523531</ele>
        <time>2022-05-22T06:08:29.926Z</time>
      </trkpt>
      <trkpt lat="42.227484" lon="1.789347">
        <ele>1283.482425</ele>
        <time>2022-05-22T06:08:31.925Z</time>
      </trkpt>
      <trkpt lat="42.227484" lon="1.789199">
        <ele>1283.443270</ele>
        <time>2022-05-22T06:08:33.925Z</time>
      </trkpt>
      <trkpt lat="42.227494" lon="1.789048">
        <ele>1283.403162</ele>
        <time>2022-05-22T06:08:35.929Z</time>
      </trkpt>
      <trkpt lat="42.227522" lon="1.788906">
        <ele>1283.364286</ele>
        <time>2022-05-22T06:08:37.925Z</time>
      </trkpt>
      <trkpt lat="42.227575" lon="1.788772">
        <ele>1283.324095</ele>
        <time>2022-05-22T06:08:39.927Z</time>
      </trkpt>
      <trkpt lat="42.227642" lon="1.788649">
        <ele>1283.283698</ele>
        <time>2022-05-22T06:08:41.931Z</time>
      </trkpt>
      <trkpt lat="42.227707" lon="1.788531">
        <ele>1283.244790</ele>
        <time>2022-05-22T06:08:43.932Z</time>
      </trkpt>
      <trkpt lat="42.227776" lon="1.788421">
        <ele>1283.206650</ele>
        <time>2022-05-22T06:08:45.925Z</time>
      </trkpt>
      <trkpt lat="42.227826" lon="1.788302">
        <ele>1283.170453</ele>
        <time>2022-05-22T06:08:47.918Z</time>
      </trkpt>
      <trkpt lat="42.227897" lon="1.788201">
        <ele>1283.133609</ele>
        <time>2022-05-22T06:08:49.926Z</time>
      </trkpt>
      <trkpt lat="42.227959" lon="1.788102">
        <ele>1283.099307</ele>
        <time>2022-05-22T06:08:51.925Z</time>
      </trkpt>
      <trkpt lat="42.228020" lon="1.787979">
        <ele>1283.060142</ele>
        <time>2022-05-22T06:08:53.926Z</time>
      </trkpt>
      <trkpt lat="42.228079" lon="1.787861">
        <ele>1283.043766</ele>
        <time>2022-05-22T06:08:55.938Z</time>
      </trkpt>
      <trkpt lat="42.228138" lon="1.787727">
        <ele>1283.164742</ele>
        <time>2022-05-22T06:08:57.927Z</time>
      </trkpt>
      <trkpt lat="42.228191" lon="1.787587">
        <ele>1283.286755</ele>
        <time>2022-05-22T06:08:59.928Z</time>
      </trkpt>
      <trkpt lat="42.228205" lon="1.787446">
        <ele>1283.397148</ele>
        <time>2022-05-22T06:09:01.922Z</time>
      </trkpt>
      <trkpt lat="42.228208" lon="1.787314">
        <ele>1283.499627</ele>
        <time>2022-05-22T06:09:03.928Z</time>
      </trkpt>
      <trkpt lat="42.228178" lon="1.787190">
        <ele>1283.600855</ele>
        <time>2022-05-22T06:09:05.937Z</time>
      </trkpt>
      <trkpt lat="42.228127" lon="1.787082">
        <ele>1283.700253</ele>
        <time>2022-05-22T06:09:07.927Z</time>
      </trkpt>
      <trkpt lat="42.228068" lon="1.786981">
        <ele>1283.800080</ele>
        <time>2022-05-22T06:09:09.919Z</time>
      </trkpt>
      <trkpt lat="42.227995" lon="1.786897">
        <ele>1283.900585</ele>
        <time>2022-05-22T06:09:11.929Z</time>
      </trkpt>
      <trkpt lat="42.227918" lon="1.786830">
        <ele>1283.996577</ele>
        <time>2022-05-22T06:09:13.929Z</time>
      </trkpt>
      <trkpt lat="42.227843" lon="1.786733">
        <ele>1284.105404</ele>
        <time>2022-05-22T06:09:15.929Z</time>
      </trkpt>
      <trkpt lat="42.227773" lon="1.786645">
        <ele>1284.205625</ele>
        <time>2022-05-22T06:09:17.929Z</time>
      </trkpt>
      <trkpt lat="42.227737" lon="1.786529">
        <ele>1284.303227</ele>
        <time>2022-05-22T06:09:19.930Z</time>
      </trkpt>
      <trkpt lat="42.227727" lon="1.786393">
        <ele>1284.409281</ele>
        <time>2022-05-22T06:09:21.918Z</time>
      </trkpt>
      <trkpt lat="42.227725" lon="1.786245">
        <ele>1284.524147</ele>
        <time>2022-05-22T06:09:23.930Z</time>
      </trkpt>
      <trkpt lat="42.227752" lon="1.786087">
        <ele>1284.649976</ele>
        <time>2022-05-22T06:09:25.915Z</time>
      </trkpt>
      <trkpt lat="42.227788" lon="1.785957">
        <ele>1284.757678</ele>
        <time>2022-05-22T06:09:27.923Z</time>
      </trkpt>
      <trkpt lat="42.227855" lon="1.785832">
        <ele>1284.877423</ele>
        <time>2022-05-22T06:09:30.921Z</time>
      </trkpt>
      <trkpt lat="42.227942" lon="1.785731">
        <ele>1285.150467</ele>
        <time>2022-05-22T06:09:33.926Z</time>
      </trkpt>
      <trkpt lat="42.228016" lon="1.785638">
        <ele>1285.447165</ele>
        <time>2022-05-22T06:09:36.920Z</time>
      </trkpt>
      <trkpt lat="42.228094" lon="1.785563">
        <ele>1285.728205</ele>
        <time>2022-05-22T06:09:39.920Z</time>
      </trkpt>
      <trkpt lat="42.228194" lon="1.785470">
        <ele>1286.084580</ele>
        <time>2022-05-22T06:09:43.921Z</time>
      </trkpt>
      <trkpt lat="42.228291" lon="1.785379">
        <ele>1286.431241</ele>
        <time>2022-05-22T06:09:47.927Z</time>
      </trkpt>
      <trkpt lat="42.228381" lon="1.785291">
        <ele>1286.757369</ele>
        <time>2022-05-22T06:09:50.926Z</time>
      </trkpt>
      <trkpt lat="42.228468" lon="1.785166">
        <ele>1287.130212</ele>
        <time>2022-05-22T06:09:53.923Z</time>
      </trkpt>
      <trkpt lat="42.228530" lon="1.785015">
        <ele>1287.505467</ele>
        <time>2022-05-22T06:09:56.925Z</time>
      </trkpt>
      <trkpt lat="42.228572" lon="1.784897">
        <ele>1287.790014</ele>
        <time>2022-05-22T06:09:58.928Z</time>
      </trkpt>
      <trkpt lat="42.228606" lon="1.784776">
        <ele>1288.071290</ele>
        <time>2022-05-22T06:10:00.929Z</time>
      </trkpt>
      <trkpt lat="42.228641" lon="1.784645">
        <ele>1288.373967</ele>
        <time>2022-05-22T06:10:02.927Z</time>
      </trkpt>
      <trkpt lat="42.228657" lon="1.784521">
        <ele>1288.647525</ele>
        <time>2022-05-22T06:10:04.928Z</time>
      </trkpt>
      <trkpt lat="42.228674" lon="1.784394">
        <ele>1288.928015</ele>
        <time>2022-05-22T06:10:06.933Z</time>
      </trkpt>
      <trkpt lat="42.228690" lon="1.784257">
        <ele>1289.229447</ele>
        <time>2022-05-22T06:10:08.925Z</time>
      </trkpt>
      <trkpt lat="42.228702" lon="1.784131">
        <ele>1289.505546</ele>
        <time>2022-05-22T06:10:10.929Z</time>
      </trkpt>
      <trkpt lat="42.228723" lon="1.784008">
        <ele>1289.779883</ele>
        <time>2022-05-22T06:10:12.926Z</time>
      </trkpt>
      <trkpt lat="42.228739" lon="1.783888">
        <ele>1290.044880</ele>
        <time>2022-05-22T06:10:14.929Z</time>
      </trkpt>
      <trkpt lat="42.228767" lon="1.783714">
        <ele>1290.436258</ele>
        <time>2022-05-22T06:10:17.928Z</time>
      </trkpt>
      <trkpt lat="42.228789" lon="1.783591">
        <ele>1290.716299</ele>
        <time>2022-05-22T06:10:19.929Z</time>
      </trkpt>
      <trkpt lat="42.228816" lon="1.783421">
        <ele>1291.101084</ele>
        <time>2022-05-22T06:10:22.927Z</time>
      </trkpt>
      <trkpt lat="42.228841" lon="1.783295">
        <ele>1291.389772</ele>
        <time>2022-05-22T06:10:24.927Z</time>
      </trkpt>
      <trkpt lat="42.228858" lon="1.783162">
        <ele>1291.688468</ele>
        <time>2022-05-22T06:10:26.929Z</time>
      </trkpt>
      <trkpt lat="42.228883" lon="1.783032">
        <ele>1291.985715</ele>
        <time>2022-05-22T06:10:28.926Z</time>
      </trkpt>
      <trkpt lat="42.228914" lon="1.782901">
        <ele>1292.290077</ele>
        <time>2022-05-22T06:10:30.927Z</time>
      </trkpt>
      <trkpt lat="42.228939" lon="1.782773">
        <ele>1292.583042</ele>
        <time>2022-05-22T06:10:32.924Z</time>
      </trkpt>
      <trkpt lat="42.228939" lon="1.782637">
        <ele>1292.884023</ele>
        <time>2022-05-22T06:10:34.927Z</time>
      </trkpt>
      <trkpt lat="42.228941" lon="1.782502">
        <ele>1293.182851</ele>
        <time>2022-05-22T06:10:36.928Z</time>
      </trkpt>
      <trkpt lat="42.228952" lon="1.782376">
        <ele>1293.463633</ele>
        <time>2022-05-22T06:10:38.930Z</time>
      </trkpt>
      <trkpt lat="42.228967" lon="1.782242">
        <ele>1293.763558</ele>
        <time>2022-05-22T06:10:40.935Z</time>
      </trkpt>
      <trkpt lat="42.228976" lon="1.782097">
        <ele>1294.085583</ele>
        <time>2022-05-22T06:10:42.927Z</time>
      </trkpt>
      <trkpt lat="42.228982" lon="1.781969">
        <ele>1294.369426</ele>
        <time>2022-05-22T06:10:44.924Z</time>
      </trkpt>
      <trkpt lat="42.228989" lon="1.781826">
        <ele>1294.686590</ele>
        <time>2022-05-22T06:10:46.931Z</time>
      </trkpt>
      <trkpt lat="42.229000" lon="1.781684">
        <ele>1295.002564</ele>
        <time>2022-05-22T06:10:48.929Z</time>
      </trkpt>
      <trkpt lat="42.229014" lon="1.781549">
        <ele>1295.304248</ele>
        <time>2022-05-22T06:10:50.929Z</time>
      </trkpt>
      <trkpt lat="42.229025" lon="1.781408">
        <ele>1295.589000</ele>
        <time>2022-05-22T06:10:52.924Z</time>
      </trkpt>
      <trkpt lat="42.229044" lon="1.781263">
        <ele>1295.726584</ele>
        <time>2022-05-22T06:10:54.931Z</time>
      </trkpt>
      <trkpt lat="42.229054" lon="1.781122">
        <ele>1295.858928</ele>
        <time>2022-05-22T06:10:56.928Z</time>
      </trkpt>
      <trkpt lat="42.229071" lon="1.780992">
        <ele>1295.982272</ele>
        <time>2022-05-22T06:10:58.926Z</time>
      </trkpt>
      <trkpt lat="42.229082" lon="1.780865">
        <ele>1296.101741</ele>
        <time>2022-05-22T06:11:00.924Z</time>
      </trkpt>
      <trkpt lat="42.229094" lon="1.780733">
        <ele>1296.226000</ele>
        <time>2022-05-22T06:11:02.924Z</time>
      </trkpt>
      <trkpt lat="42.229102" lon="1.780600">
        <ele>1296.350675</ele>
        <time>2022-05-22T06:11:04.931Z</time>
      </trkpt>
      <trkpt lat="42.229107" lon="1.780469">
        <ele>1296.473236</ele>
        <time>2022-05-22T06:11:06.927Z</time>
      </trkpt>
      <trkpt lat="42.229106" lon="1.780334">
        <ele>1296.599377</ele>
        <time>2022-05-22T06:11:08.924Z</time>
      </trkpt>
      <trkpt lat="42.229105" lon="1.780194">
        <ele>1296.730190</ele>
        <time>2022-05-22T06:11:10.931Z</time>
      </trkpt>
      <trkpt lat="42.229103" lon="1.780060">
        <ele>1296.855417</ele>
        <time>2022-05-22T06:11:12.929Z</time>
      </trkpt>
      <trkpt lat="42.229097" lon="1.779914">
        <ele>1296.992040</ele>
        <time>2022-05-22T06:11:14.924Z</time>
      </trkpt>
      <trkpt lat="42.229097" lon="1.779759">
        <ele>1297.136862</ele>
        <time>2022-05-22T06:11:16.929Z</time>
      </trkpt>
      <trkpt lat="42.229094" lon="1.779613">
        <ele>1297.273327</ele>
        <time>2022-05-22T06:11:18.930Z</time>
      </trkpt>
      <trkpt lat="42.229099" lon="1.779487">
        <ele>1297.391222</ele>
        <time>2022-05-22T06:11:20.926Z</time>
      </trkpt>
      <trkpt lat="42.229096" lon="1.779359">
        <ele>1297.510877</ele>
        <time>2022-05-22T06:11:22.925Z</time>
      </trkpt>
      <trkpt lat="42.229093" lon="1.779223">
        <ele>1297.638003</ele>
        <time>2022-05-22T06:11:24.927Z</time>
      </trkpt>
      <trkpt lat="42.229083" lon="1.779082">
        <ele>1297.770347</ele>
        <time>2022-05-22T06:11:26.929Z</time>
      </trkpt>
      <trkpt lat="42.229079" lon="1.778948">
        <ele>1297.865165</ele>
        <time>2022-05-22T06:11:28.927Z</time>
      </trkpt>
      <trkpt lat="42.229072" lon="1.778824">
        <ele>1297.920581</ele>
        <time>2022-05-22T06:11:30.925Z</time>
      </trkpt>
      <trkpt lat="42.229065" lon="1.778698">
        <ele>1297.976886</ele>
        <time>2022-05-22T06:11:32.923Z</time>
      </trkpt>
      <trkpt lat="42.229062" lon="1.778568">
        <ele>1298.034843</ele>
        <time>2022-05-22T06:11:34.921Z</time>
      </trkpt>
      <trkpt lat="42.229055" lon="1.778441">
        <ele>1298.091593</ele>
        <time>2022-05-22T06:11:36.925Z</time>
      </trkpt>
      <trkpt lat="42.229060" lon="1.778258">
        <ele>1298.173195</ele>
        <time>2022-05-22T06:11:39.922Z</time>
      </trkpt>
      <trkpt lat="42.229060" lon="1.778136">
        <ele>1298.227560</ele>
        <time>2022-05-22T06:11:41.926Z</time>
      </trkpt>
      <trkpt lat="42.229066" lon="1.778012">
        <ele>1298.282933</ele>
        <time>2022-05-22T06:11:43.936Z</time>
      </trkpt>
      <trkpt lat="42.229072" lon="1.777886">
        <ele>1298.339196</ele>
        <time>2022-05-22T06:11:45.927Z</time>
      </trkpt>
      <trkpt lat="42.229073" lon="1.777764">
        <ele>1298.393564</ele>
        <time>2022-05-22T06:11:47.926Z</time>
      </trkpt>
      <trkpt lat="42.229074" lon="1.777642">
        <ele>1298.447932</ele>
        <time>2022-05-22T06:11:49.930Z</time>
      </trkpt>
      <trkpt lat="42.229080" lon="1.777517">
        <ele>1298.503750</ele>
        <time>2022-05-22T06:11:51.928Z</time>
      </trkpt>
      <trkpt lat="42.229088" lon="1.777391">
        <ele>1298.560104</ele>
        <time>2022-05-22T06:11:53.926Z</time>
      </trkpt>
      <trkpt lat="42.229105" lon="1.777216">
        <ele>1298.638754</ele>
        <time>2022-05-22T06:11:56.927Z</time>
      </trkpt>
      <trkpt lat="42.229131" lon="1.777099">
        <ele>1298.693188</ele>
        <time>2022-05-22T06:11:58.925Z</time>
      </trkpt>
      <trkpt lat="42.229156" lon="1.776978">
        <ele>1298.749166</ele>
        <time>2022-05-22T06:12:00.922Z</time>
      </trkpt>
      <trkpt lat="42.229192" lon="1.776864">
        <ele>1298.804393</ele>
        <time>2022-05-22T06:12:02.928Z</time>
      </trkpt>
      <trkpt lat="42.229231" lon="1.776691">
        <ele>1298.884977</ele>
        <time>2022-05-22T06:12:05.922Z</time>
      </trkpt>
      <trkpt lat="42.229273" lon="1.776534">
        <ele>1298.979010</ele>
        <time>2022-05-22T06:12:08.924Z</time>
      </trkpt>
      <trkpt lat="42.229317" lon="1.776384">
        <ele>1299.086600</ele>
        <time>2022-05-22T06:12:11.923Z</time>
      </trkpt>
      <trkpt lat="42.229370" lon="1.776225">
        <ele>1299.202877</ele>
        <time>2022-05-22T06:12:14.926Z</time>
      </trkpt>
      <trkpt lat="42.229443" lon="1.776088">
        <ele>1299.315431</ele>
        <time>2022-05-22T06:12:17.929Z</time>
      </trkpt>
      <trkpt lat="42.229519" lon="1.775977">
        <ele>1299.416246</ele>
        <time>2022-05-22T06:12:20.925Z</time>
      </trkpt>
      <trkpt lat="42.229611" lon="1.775890">
        <ele>1299.517392</ele>
        <time>2022-05-22T06:12:23.924Z</time>
      </trkpt>
      <trkpt lat="42.229702" lon="1.775825">
        <ele>1299.610102</ele>
        <time>2022-05-22T06:12:26.922Z</time>
      </trkpt>
      <trkpt lat="42.229798" lon="1.775790">
        <ele>1299.699654</ele>
        <time>2022-05-22T06:12:29.930Z</time>
      </trkpt>
      <trkpt lat="42.229896" lon="1.775770">
        <ele>1299.788913</ele>
        <time>2022-05-22T06:12:32.926Z</time>
      </trkpt>
      <trkpt lat="42.229989" lon="1.775769">
        <ele>1299.872670</ele>
        <time>2022-05-22T06:12:35.926Z</time>
      </trkpt>
      <trkpt lat="42.230099" lon="1.775751">
        <ele>1299.972459</ele>
        <time>2022-05-22T06:12:38.931Z</time>
      </trkpt>
      <trkpt lat="42.230199" lon="1.775747">
        <ele>1300.062558</ele>
        <time>2022-05-22T06:12:41.933Z</time>
      </trkpt>
      <trkpt lat="42.230301" lon="1.775748">
        <ele>1300.154420</ele>
        <time>2022-05-22T06:12:44.921Z</time>
      </trkpt>
      <trkpt lat="42.230421" lon="1.775740">
        <ele>1300.262622</ele>
        <time>2022-05-22T06:12:47.927Z</time>
      </trkpt>
      <trkpt lat="42.230526" lon="1.775746">
        <ele>1300.357268</ele>
        <time>2022-05-22T06:12:50.935Z</time>
      </trkpt>
      <trkpt lat="42.230633" lon="1.775739">
        <ele>1300.453744</ele>
        <time>2022-05-22T06:12:53.926Z</time>
      </trkpt>
      <trkpt lat="42.230733" lon="1.775728">
        <ele>1300.561826</ele>
        <time>2022-05-22T06:12:56.932Z</time>
      </trkpt>
      <trkpt lat="42.230838" lon="1.775716">
        <ele>1301.032735</ele>
        <time>2022-05-22T06:13:00.924Z</time>
      </trkpt>
      <trkpt lat="42.230936" lon="1.775737">
        <ele>1301.476163</ele>
        <time>2022-05-22T06:13:04.922Z</time>
      </trkpt>
      <trkpt lat="42.231030" lon="1.775758">
        <ele>1301.901946</ele>
        <time>2022-05-22T06:13:08.925Z</time>
      </trkpt>
      <trkpt lat="42.231135" lon="1.775768">
        <ele>1302.372343</ele>
        <time>2022-05-22T06:13:12.921Z</time>
      </trkpt>
      <trkpt lat="42.231252" lon="1.775763">
        <ele>1302.895464</ele>
        <time>2022-05-22T06:13:17.928Z</time>
      </trkpt>
      <trkpt lat="42.231359" lon="1.775767">
        <ele>1303.373816</ele>
        <time>2022-05-22T06:13:21.926Z</time>
      </trkpt>
      <trkpt lat="42.231455" lon="1.775760">
        <ele>1303.803453</ele>
        <time>2022-05-22T06:13:25.930Z</time>
      </trkpt>
      <trkpt lat="42.231547" lon="1.775762">
        <ele>1304.214643</ele>
        <time>2022-05-22T06:13:29.927Z</time>
      </trkpt>
      <trkpt lat="42.231655" lon="1.775781">
        <ele>1304.701359</ele>
        <time>2022-05-22T06:13:33.929Z</time>
      </trkpt>
      <trkpt lat="42.231759" lon="1.775782">
        <ele>1305.166134</ele>
        <time>2022-05-22T06:13:37.928Z</time>
      </trkpt>
      <trkpt lat="42.231854" lon="1.775797">
        <ele>1305.593569</ele>
        <time>2022-05-22T06:13:41.927Z</time>
      </trkpt>
      <trkpt lat="42.231965" lon="1.775809">
        <ele>1306.091201</ele>
        <time>2022-05-22T06:13:46.922Z</time>
      </trkpt>
      <trkpt lat="42.232066" lon="1.775839">
        <ele>1306.553344</ele>
        <time>2022-05-22T06:13:50.946Z</time>
      </trkpt>
      <trkpt lat="42.232168" lon="1.775862">
        <ele>1307.015479</ele>
        <time>2022-05-22T06:13:54.922Z</time>
      </trkpt>
      <trkpt lat="42.232275" lon="1.775880">
        <ele>1307.497344</ele>
        <time>2022-05-22T06:13:59.924Z</time>
      </trkpt>
      <trkpt lat="42.232373" lon="1.775889">
        <ele>1307.936305</ele>
        <time>2022-05-22T06:14:03.922Z</time>
      </trkpt>
      <trkpt lat="42.232462" lon="1.775914">
        <ele>1308.342546</ele>
        <time>2022-05-22T06:14:07.921Z</time>
      </trkpt>
      <trkpt lat="42.232555" lon="1.775897">
        <ele>1308.701963</ele>
        <time>2022-05-22T06:14:11.939Z</time>
      </trkpt>
      <trkpt lat="42.232649" lon="1.775884">
        <ele>1308.986887</ele>
        <time>2022-05-22T06:14:15.922Z</time>
      </trkpt>
      <trkpt lat="42.232758" lon="1.775889">
        <ele>1309.315749</ele>
        <time>2022-05-22T06:14:19.917Z</time>
      </trkpt>
      <trkpt lat="42.232875" lon="1.775872">
        <ele>1309.670579</ele>
        <time>2022-05-22T06:14:23.934Z</time>
      </trkpt>
      <trkpt lat="42.232972" lon="1.775845">
        <ele>1309.969214</ele>
        <time>2022-05-22T06:14:27.911Z</time>
      </trkpt>
      <trkpt lat="42.233069" lon="1.775802">
        <ele>1310.277054</ele>
        <time>2022-05-22T06:14:31.924Z</time>
      </trkpt>
      <trkpt lat="42.233170" lon="1.775799">
        <ele>1310.581677</ele>
        <time>2022-05-22T06:14:35.923Z</time>
      </trkpt>
      <trkpt lat="42.233265" lon="1.775775">
        <ele>1310.873103</ele>
        <time>2022-05-22T06:14:39.923Z</time>
      </trkpt>
      <trkpt lat="42.233338" lon="1.775692">
        <ele>1311.160837</ele>
        <time>2022-05-22T06:14:42.918Z</time>
      </trkpt>
      <trkpt lat="42.233410" lon="1.775556">
        <ele>1311.534102</ele>
        <time>2022-05-22T06:14:45.923Z</time>
      </trkpt>
      <trkpt lat="42.233450" lon="1.775432">
        <ele>1311.836078</ele>
        <time>2022-05-22T06:14:47.925Z</time>
      </trkpt>
      <trkpt lat="42.233508" lon="1.775304">
        <ele>1312.171118</ele>
        <time>2022-05-22T06:14:49.918Z</time>
      </trkpt>
      <trkpt lat="42.233584" lon="1.775174">
        <ele>1312.540921</ele>
        <time>2022-05-22T06:14:51.919Z</time>
      </trkpt>
      <trkpt lat="42.233658" lon="1.775034">
        <ele>1312.924958</ele>
        <time>2022-05-22T06:14:53.925Z</time>
      </trkpt>
      <trkpt lat="42.233733" lon="1.774889">
        <ele>1313.319853</ele>
        <time>2022-05-22T06:14:55.920Z</time>
      </trkpt>
      <trkpt lat="42.233819" lon="1.774735">
        <ele>1313.750500</ele>
        <time>2022-05-22T06:14:57.919Z</time>
      </trkpt>
      <trkpt lat="42.233908" lon="1.774550">
        <ele>1313.867748</ele>
        <time>2022-05-22T06:14:59.929Z</time>
      </trkpt>
      <trkpt lat="42.233993" lon="1.774357">
        <ele>1313.591562</ele>
        <time>2022-05-22T06:15:01.921Z</time>
      </trkpt>
      <trkpt lat="42.234085" lon="1.774170">
        <ele>1313.315432</ele>
        <time>2022-05-22T06:15:03.919Z</time>
      </trkpt>
      <trkpt lat="42.234186" lon="1.773979">
        <ele>1313.026766</ele>
        <time>2022-05-22T06:15:05.920Z</time>
      </trkpt>
      <trkpt lat="42.234228" lon="1.773869">
        <ele>1312.874551</ele>
        <time>2022-05-22T06:15:06.922Z</time>
      </trkpt>
      <trkpt lat="42.234260" lon="1.773747">
        <ele>1312.715369</ele>
        <time>2022-05-22T06:15:07.929Z</time>
      </trkpt>
      <trkpt lat="42.234284" lon="1.773625">
        <ele>1312.560119</ele>
        <time>2022-05-22T06:15:08.924Z</time>
      </trkpt>
      <trkpt lat="42.234298" lon="1.773496">
        <ele>1312.399770</ele>
        <time>2022-05-22T06:15:09.918Z</time>
      </trkpt>
      <trkpt lat="42.234296" lon="1.773373">
        <ele>1312.248459</ele>
        <time>2022-05-22T06:15:10.916Z</time>
      </trkpt>
      <trkpt lat="42.234255" lon="1.773145">
        <ele>1311.959896</ele>
        <time>2022-05-22T06:15:12.923Z</time>
      </trkpt>
      <trkpt lat="42.234209" lon="1.773039">
        <ele>1311.808787</ele>
        <time>2022-05-22T06:15:13.921Z</time>
      </trkpt>
      <trkpt lat="42.234142" lon="1.772926">
        <ele>1311.630740</ele>
        <time>2022-05-22T06:15:14.921Z</time>
      </trkpt>
      <trkpt lat="42.234062" lon="1.772827">
        <ele>1311.450507</ele>
        <time>2022-05-22T06:15:15.915Z</time>
      </trkpt>
      <trkpt lat="42.233974" lon="1.772735">
        <ele>1311.265656</ele>
        <time>2022-05-22T06:15:16.919Z</time>
      </trkpt>
      <trkpt lat="42.233886" lon="1.772646">
        <ele>1311.083040</ele>
        <time>2022-05-22T06:15:17.922Z</time>
      </trkpt>
      <trkpt lat="42.233802" lon="1.772550">
        <ele>1310.799039</ele>
        <time>2022-05-22T06:15:18.921Z</time>
      </trkpt>
      <trkpt lat="42.233724" lon="1.772455">
        <ele>1310.468429</ele>
        <time>2022-05-22T06:15:19.917Z</time>
      </trkpt>
      <trkpt lat="42.233645" lon="1.772347">
        <ele>1310.114603</ele>
        <time>2022-05-22T06:15:20.923Z</time>
      </trkpt>
      <trkpt lat="42.233574" lon="1.772228">
        <ele>1309.758420</ele>
        <time>2022-05-22T06:15:21.915Z</time>
      </trkpt>
      <trkpt lat="42.233503" lon="1.772099">
        <ele>1309.383804</ele>
        <time>2022-05-22T06:15:22.918Z</time>
      </trkpt>
      <trkpt lat="42.233436" lon="1.771968">
        <ele>1309.012734</ele>
        <time>2022-05-22T06:15:23.917Z</time>
      </trkpt>
      <trkpt lat="42.233373" lon="1.771844">
        <ele>1308.662242</ele>
        <time>2022-05-22T06:15:24.916Z</time>
      </trkpt>
      <trkpt lat="42.233311" lon="1.771725">
        <ele>1308.323116</ele>
        <time>2022-05-22T06:15:25.938Z</time>
      </trkpt>
      <trkpt lat="42.233244" lon="1.771594">
        <ele>1307.952045</ele>
        <time>2022-05-22T06:15:26.918Z</time>
      </trkpt>
      <trkpt lat="42.233182" lon="1.771466">
        <ele>1307.595560</ele>
        <time>2022-05-22T06:15:27.916Z</time>
      </trkpt>
      <trkpt lat="42.233118" lon="1.771346">
        <ele>1307.250883</ele>
        <time>2022-05-22T06:15:28.915Z</time>
      </trkpt>
      <trkpt lat="42.233053" lon="1.771214">
        <ele>1306.881415</ele>
        <time>2022-05-22T06:15:29.914Z</time>
      </trkpt>
      <trkpt lat="42.232988" lon="1.771087">
        <ele>1306.521592</ele>
        <time>2022-05-22T06:15:30.915Z</time>
      </trkpt>
      <trkpt lat="42.232923" lon="1.770962">
        <ele>1306.165593</ele>
        <time>2022-05-22T06:15:31.915Z</time>
      </trkpt>
      <trkpt lat="42.232853" lon="1.770847">
        <ele>1305.818625</ele>
        <time>2022-05-22T06:15:32.914Z</time>
      </trkpt>
      <trkpt lat="42.232773" lon="1.770747">
        <ele>1305.475505</ele>
        <time>2022-05-22T06:15:33.909Z</time>
      </trkpt>
      <trkpt lat="42.232669" lon="1.770657">
        <ele>1304.997446</ele>
        <time>2022-05-22T06:15:34.917Z</time>
      </trkpt>
      <trkpt lat="42.232549" lon="1.770563">
        <ele>1304.413707</ele>
        <time>2022-05-22T06:15:35.919Z</time>
      </trkpt>
      <trkpt lat="42.232422" lon="1.770481">
        <ele>1303.821370</ele>
        <time>2022-05-22T06:15:36.918Z</time>
      </trkpt>
      <trkpt lat="42.232305" lon="1.770400">
        <ele>1303.268127</ele>
        <time>2022-05-22T06:15:37.914Z</time>
      </trkpt>
      <trkpt lat="42.232201" lon="1.770309">
        <ele>1302.746684</ele>
        <time>2022-05-22T06:15:38.916Z</time>
      </trkpt>
      <trkpt lat="42.232084" lon="1.770212">
        <ele>1302.168994</ele>
        <time>2022-05-22T06:15:39.917Z</time>
      </trkpt>
      <trkpt lat="42.231971" lon="1.770112">
        <ele>1301.600512</ele>
        <time>2022-05-22T06:15:40.917Z</time>
      </trkpt>
      <trkpt lat="42.231860" lon="1.770015">
        <ele>1301.044183</ele>
        <time>2022-05-22T06:15:41.912Z</time>
      </trkpt>
      <trkpt lat="42.231762" lon="1.769904">
        <ele>1300.505980</ele>
        <time>2022-05-22T06:15:42.923Z</time>
      </trkpt>
      <trkpt lat="42.231674" lon="1.769786">
        <ele>1299.984167</ele>
        <time>2022-05-22T06:15:43.922Z</time>
      </trkpt>
      <trkpt lat="42.231588" lon="1.769656">
        <ele>1299.441012</ele>
        <time>2022-05-22T06:15:44.916Z</time>
      </trkpt>
      <trkpt lat="42.231513" lon="1.769506">
        <ele>1298.877078</ele>
        <time>2022-05-22T06:15:45.918Z</time>
      </trkpt>
      <trkpt lat="42.231453" lon="1.769337">
        <ele>1298.293123</ele>
        <time>2022-05-22T06:15:46.917Z</time>
      </trkpt>
      <trkpt lat="42.231405" lon="1.769169">
        <ele>1297.721832</ele>
        <time>2022-05-22T06:15:47.919Z</time>
      </trkpt>
      <trkpt lat="42.231363" lon="1.769002">
        <ele>1297.062189</ele>
        <time>2022-05-22T06:15:48.920Z</time>
      </trkpt>
      <trkpt lat="42.231333" lon="1.768830">
        <ele>1296.401284</ele>
        <time>2022-05-22T06:15:49.918Z</time>
      </trkpt>
      <trkpt lat="42.231299" lon="1.768665">
        <ele>1295.760715</ele>
        <time>2022-05-22T06:15:50.913Z</time>
      </trkpt>
      <trkpt lat="42.231253" lon="1.768502">
        <ele>1295.108299</ele>
        <time>2022-05-22T06:15:51.925Z</time>
      </trkpt>
      <trkpt lat="42.231207" lon="1.768333">
        <ele>1294.434866</ele>
        <time>2022-05-22T06:15:52.920Z</time>
      </trkpt>
      <trkpt lat="42.231154" lon="1.768159">
        <ele>1293.731173</ele>
        <time>2022-05-22T06:15:53.919Z</time>
      </trkpt>
      <trkpt lat="42.231111" lon="1.767990">
        <ele>1293.062816</ele>
        <time>2022-05-22T06:15:54.930Z</time>
      </trkpt>
      <trkpt lat="42.231068" lon="1.767823">
        <ele>1292.401528</ele>
        <time>2022-05-22T06:15:55.920Z</time>
      </trkpt>
      <trkpt lat="42.231018" lon="1.767665">
        <ele>1291.758881</ele>
        <time>2022-05-22T06:15:56.918Z</time>
      </trkpt>
      <trkpt lat="42.230969" lon="1.767513">
        <ele>1291.138839</ele>
        <time>2022-05-22T06:15:57.921Z</time>
      </trkpt>
      <trkpt lat="42.230906" lon="1.767376">
        <ele>1290.535665</ele>
        <time>2022-05-22T06:15:58.928Z</time>
      </trkpt>
      <trkpt lat="42.230810" lon="1.767264">
        <ele>1289.894872</ele>
        <time>2022-05-22T06:15:59.923Z</time>
      </trkpt>
      <trkpt lat="42.230689" lon="1.767177">
        <ele>1289.202455</ele>
        <time>2022-05-22T06:16:00.922Z</time>
      </trkpt>
      <trkpt lat="42.230544" lon="1.767147">
        <ele>1288.438217</ele>
        <time>2022-05-22T06:16:01.925Z</time>
      </trkpt>
      <trkpt lat="42.230407" lon="1.767112">
        <ele>1287.664585</ele>
        <time>2022-05-22T06:16:02.921Z</time>
      </trkpt>
      <trkpt lat="42.230266" lon="1.767094">
        <ele>1286.878752</ele>
        <time>2022-05-22T06:16:03.922Z</time>
      </trkpt>
      <trkpt lat="42.230132" lon="1.767081">
        <ele>1286.133330</ele>
        <time>2022-05-22T06:16:04.921Z</time>
      </trkpt>
      <trkpt lat="42.229973" lon="1.767069">
        <ele>1285.249735</ele>
        <time>2022-05-22T06:16:05.926Z</time>
      </trkpt>
      <trkpt lat="42.229821" lon="1.767044">
        <ele>1284.400124</ele>
        <time>2022-05-22T06:16:06.924Z</time>
      </trkpt>
      <trkpt lat="42.229684" lon="1.766993">
        <ele>1283.611623</ele>
        <time>2022-05-22T06:16:07.924Z</time>
      </trkpt>
      <trkpt lat="42.229562" lon="1.766919">
        <ele>1282.869561</ele>
        <time>2022-05-22T06:16:08.916Z</time>
      </trkpt>
      <trkpt lat="42.229463" lon="1.766804">
        <ele>1282.145013</ele>
        <time>2022-05-22T06:16:09.922Z</time>
      </trkpt>
      <trkpt lat="42.229377" lon="1.766664">
        <ele>1281.397660</ele>
        <time>2022-05-22T06:16:10.915Z</time>
      </trkpt>
      <trkpt lat="42.229298" lon="1.766527">
        <ele>1280.684252</ele>
        <time>2022-05-22T06:16:11.909Z</time>
      </trkpt>
      <trkpt lat="42.229249" lon="1.766377">
        <ele>1280.010672</ele>
        <time>2022-05-22T06:16:12.914Z</time>
      </trkpt>
      <trkpt lat="42.229204" lon="1.766215">
        <ele>1279.299804</ele>
        <time>2022-05-22T06:16:13.914Z</time>
      </trkpt>
      <trkpt lat="42.229174" lon="1.766053">
        <ele>1278.573719</ele>
        <time>2022-05-22T06:16:14.919Z</time>
      </trkpt>
      <trkpt lat="42.229172" lon="1.765881">
        <ele>1277.595652</ele>
        <time>2022-05-22T06:16:15.918Z</time>
      </trkpt>
      <trkpt lat="42.229194" lon="1.765711">
        <ele>1276.614427</ele>
        <time>2022-05-22T06:16:16.918Z</time>
      </trkpt>
      <trkpt lat="42.229200" lon="1.765557">
        <ele>1275.737613</ele>
        <time>2022-05-22T06:16:17.921Z</time>
      </trkpt>
      <trkpt lat="42.229219" lon="1.765386">
        <ele>1274.754468</ele>
        <time>2022-05-22T06:16:18.919Z</time>
      </trkpt>
      <trkpt lat="42.229239" lon="1.765213">
        <ele>1273.758921</ele>
        <time>2022-05-22T06:16:19.916Z</time>
      </trkpt>
      <trkpt lat="42.229265" lon="1.765037">
        <ele>1272.738512</ele>
        <time>2022-05-22T06:16:20.916Z</time>
      </trkpt>
      <trkpt lat="42.229298" lon="1.764858">
        <ele>1271.689698</ele>
        <time>2022-05-22T06:16:21.920Z</time>
      </trkpt>
      <trkpt lat="42.229323" lon="1.764680">
        <ele>1270.659595</ele>
        <time>2022-05-22T06:16:22.918Z</time>
      </trkpt>
      <trkpt lat="42.229350" lon="1.764502">
        <ele>1269.626520</ele>
        <time>2022-05-22T06:16:23.928Z</time>
      </trkpt>
      <trkpt lat="42.229369" lon="1.764318">
        <ele>1268.570224</ele>
        <time>2022-05-22T06:16:24.917Z</time>
      </trkpt>
      <trkpt lat="42.229388" lon="1.764136">
        <ele>1267.525190</ele>
        <time>2022-05-22T06:16:25.918Z</time>
      </trkpt>
      <trkpt lat="42.229414" lon="1.763959">
        <ele>1266.499208</ele>
        <time>2022-05-22T06:16:26.924Z</time>
      </trkpt>
      <trkpt lat="42.229435" lon="1.763787">
        <ele>1265.508061</ele>
        <time>2022-05-22T06:16:27.924Z</time>
      </trkpt>
      <trkpt lat="42.229461" lon="1.763632">
        <ele>1264.730582</ele>
        <time>2022-05-22T06:16:28.925Z</time>
      </trkpt>
      <trkpt lat="42.229501" lon="1.763466">
        <ele>1264.152042</ele>
        <time>2022-05-22T06:16:29.922Z</time>
      </trkpt>
      <trkpt lat="42.229548" lon="1.763307">
        <ele>1263.584661</ele>
        <time>2022-05-22T06:16:30.922Z</time>
      </trkpt>
      <trkpt lat="42.229598" lon="1.763146">
        <ele>1263.006060</ele>
        <time>2022-05-22T06:16:31.920Z</time>
      </trkpt>
      <trkpt lat="42.229660" lon="1.762993">
        <ele>1262.428035</ele>
        <time>2022-05-22T06:16:32.916Z</time>
      </trkpt>
      <trkpt lat="42.229718" lon="1.762848">
        <ele>1261.881855</ele>
        <time>2022-05-22T06:16:33.920Z</time>
      </trkpt>
      <trkpt lat="42.229780" lon="1.762695">
        <ele>1261.303832</ele>
        <time>2022-05-22T06:16:34.913Z</time>
      </trkpt>
      <trkpt lat="42.229842" lon="1.762547">
        <ele>1260.740288</ele>
        <time>2022-05-22T06:16:35.918Z</time>
      </trkpt>
      <trkpt lat="42.229914" lon="1.762401">
        <ele>1260.158940</ele>
        <time>2022-05-22T06:16:36.913Z</time>
      </trkpt>
      <trkpt lat="42.229995" lon="1.762256">
        <ele>1259.556981</ele>
        <time>2022-05-22T06:16:37.917Z</time>
      </trkpt>
      <trkpt lat="42.230076" lon="1.762112">
        <ele>1258.957666</ele>
        <time>2022-05-22T06:16:38.917Z</time>
      </trkpt>
      <trkpt lat="42.230148" lon="1.761960">
        <ele>1258.359668</ele>
        <time>2022-05-22T06:16:39.920Z</time>
      </trkpt>
      <trkpt lat="42.230211" lon="1.761820">
        <ele>1257.816734</ele>
        <time>2022-05-22T06:16:40.915Z</time>
      </trkpt>
      <trkpt lat="42.230250" lon="1.761669">
        <ele>1257.286739</ele>
        <time>2022-05-22T06:16:41.924Z</time>
      </trkpt>
      <trkpt lat="42.230283" lon="1.761523">
        <ele>1256.806842</ele>
        <time>2022-05-22T06:16:42.917Z</time>
      </trkpt>
      <trkpt lat="42.230314" lon="1.761372">
        <ele>1256.465850</ele>
        <time>2022-05-22T06:16:43.913Z</time>
      </trkpt>
      <trkpt lat="42.230343" lon="1.761224">
        <ele>1256.132698</ele>
        <time>2022-05-22T06:16:44.918Z</time>
      </trkpt>
      <trkpt lat="42.230358" lon="1.761078">
        <ele>1255.811939</ele>
        <time>2022-05-22T06:16:45.920Z</time>
      </trkpt>
      <trkpt lat="42.230353" lon="1.760935">
        <ele>1255.500407</ele>
        <time>2022-05-22T06:16:46.922Z</time>
      </trkpt>
      <trkpt lat="42.230321" lon="1.760807">
        <ele>1255.206415</ele>
        <time>2022-05-22T06:16:47.919Z</time>
      </trkpt>
      <trkpt lat="42.230304" lon="1.760683">
        <ele>1254.931989</ele>
        <time>2022-05-22T06:16:48.914Z</time>
      </trkpt>
      <trkpt lat="42.230277" lon="1.760557">
        <ele>1254.646546</ele>
        <time>2022-05-22T06:16:49.920Z</time>
      </trkpt>
      <trkpt lat="42.230214" lon="1.760448">
        <ele>1254.345640</ele>
        <time>2022-05-22T06:16:50.918Z</time>
      </trkpt>
      <trkpt lat="42.230130" lon="1.760366">
        <ele>1254.041031</ele>
        <time>2022-05-22T06:16:51.914Z</time>
      </trkpt>
      <trkpt lat="42.230008" lon="1.760330">
        <ele>1253.674023</ele>
        <time>2022-05-22T06:16:52.914Z</time>
      </trkpt>
      <trkpt lat="42.229876" lon="1.760307">
        <ele>1253.282869</ele>
        <time>2022-05-22T06:16:53.917Z</time>
      </trkpt>
      <trkpt lat="42.229745" lon="1.760287">
        <ele>1252.895417</ele>
        <time>2022-05-22T06:16:54.919Z</time>
      </trkpt>
      <trkpt lat="42.229629" lon="1.760269">
        <ele>1252.552259</ele>
        <time>2022-05-22T06:16:55.921Z</time>
      </trkpt>
      <trkpt lat="42.229515" lon="1.760251">
        <ele>1252.214939</ele>
        <time>2022-05-22T06:16:56.918Z</time>
      </trkpt>
      <trkpt lat="42.229411" lon="1.760232">
        <ele>1251.906507</ele>
        <time>2022-05-22T06:16:57.917Z</time>
      </trkpt>
      <trkpt lat="42.229301" lon="1.760216">
        <ele>1251.581355</ele>
        <time>2022-05-22T06:16:58.917Z</time>
      </trkpt>
      <trkpt lat="42.229198" lon="1.760199">
        <ele>1251.006947</ele>
        <time>2022-05-22T06:16:59.918Z</time>
      </trkpt>
      <trkpt lat="42.229097" lon="1.760168">
        <ele>1250.423647</ele>
        <time>2022-05-22T06:17:00.924Z</time>
      </trkpt>
      <trkpt lat="42.228995" lon="1.760144">
        <ele>1249.840568</ele>
        <time>2022-05-22T06:17:01.923Z</time>
      </trkpt>
      <trkpt lat="42.228884" lon="1.760091">
        <ele>1249.177537</ele>
        <time>2022-05-22T06:17:02.918Z</time>
      </trkpt>
      <trkpt lat="42.228770" lon="1.760026">
        <ele>1248.480658</ele>
        <time>2022-05-22T06:17:03.908Z</time>
      </trkpt>
      <trkpt lat="42.228649" lon="1.759964">
        <ele>1247.751832</ele>
        <time>2022-05-22T06:17:04.915Z</time>
      </trkpt>
      <trkpt lat="42.228522" lon="1.759895">
        <ele>1246.980907</ele>
        <time>2022-05-22T06:17:05.913Z</time>
      </trkpt>
      <trkpt lat="42.228392" lon="1.759828">
        <ele>1246.197294</ele>
        <time>2022-05-22T06:17:06.922Z</time>
      </trkpt>
      <trkpt lat="42.228260" lon="1.759748">
        <ele>1245.382494</ele>
        <time>2022-05-22T06:17:07.914Z</time>
      </trkpt>
      <trkpt lat="42.228141" lon="1.759664">
        <ele>1244.626306</ele>
        <time>2022-05-22T06:17:08.917Z</time>
      </trkpt>
      <trkpt lat="42.228024" lon="1.759574">
        <ele>1243.868015</ele>
        <time>2022-05-22T06:17:09.913Z</time>
      </trkpt>
      <trkpt lat="42.227919" lon="1.759483">
        <ele>1243.165402</ele>
        <time>2022-05-22T06:17:10.913Z</time>
      </trkpt>
      <trkpt lat="42.227820" lon="1.759391">
        <ele>1242.488625</ele>
        <time>2022-05-22T06:17:11.911Z</time>
      </trkpt>
      <trkpt lat="42.227715" lon="1.759292">
        <ele>1241.767447</ele>
        <time>2022-05-22T06:17:12.914Z</time>
      </trkpt>
      <trkpt lat="42.227611" lon="1.759176">
        <ele>1241.191000</ele>
        <time>2022-05-22T06:17:13.916Z</time>
      </trkpt>
      <trkpt lat="42.227518" lon="1.759048">
        <ele>1240.759281</ele>
        <time>2022-05-22T06:17:14.919Z</time>
      </trkpt>
      <trkpt lat="42.227430" lon="1.758922">
        <ele>1240.342302</ele>
        <time>2022-05-22T06:17:15.920Z</time>
      </trkpt>
      <trkpt lat="42.227349" lon="1.758801">
        <ele>1239.949607</ele>
        <time>2022-05-22T06:17:16.920Z</time>
      </trkpt>
      <trkpt lat="42.227267" lon="1.758664">
        <ele>1239.525510</ele>
        <time>2022-05-22T06:17:17.904Z</time>
      </trkpt>
      <trkpt lat="42.227185" lon="1.758512">
        <ele>1239.072759</ele>
        <time>2022-05-22T06:17:18.917Z</time>
      </trkpt>
      <trkpt lat="42.227104" lon="1.758361">
        <ele>1238.623866</ele>
        <time>2022-05-22T06:17:19.917Z</time>
      </trkpt>
      <trkpt lat="42.227031" lon="1.758211">
        <ele>1238.191735</ele>
        <time>2022-05-22T06:17:20.917Z</time>
      </trkpt>
      <trkpt lat="42.226955" lon="1.758056">
        <ele>1237.744184</ele>
        <time>2022-05-22T06:17:21.922Z</time>
      </trkpt>
      <trkpt lat="42.226895" lon="1.757884">
        <ele>1237.286449</ele>
        <time>2022-05-22T06:17:22.913Z</time>
      </trkpt>
      <trkpt lat="42.226838" lon="1.757715">
        <ele>1236.839368</ele>
        <time>2022-05-22T06:17:23.917Z</time>
      </trkpt>
      <trkpt lat="42.226785" lon="1.757549">
        <ele>1236.404160</ele>
        <time>2022-05-22T06:17:24.921Z</time>
      </trkpt>
      <trkpt lat="42.226738" lon="1.757385">
        <ele>1235.980794</ele>
        <time>2022-05-22T06:17:25.924Z</time>
      </trkpt>
      <trkpt lat="42.226693" lon="1.757216">
        <ele>1235.529627</ele>
        <time>2022-05-22T06:17:26.923Z</time>
      </trkpt>
      <trkpt lat="42.226661" lon="1.757045">
        <ele>1234.927668</ele>
        <time>2022-05-22T06:17:27.934Z</time>
      </trkpt>
      <trkpt lat="42.226627" lon="1.756888">
        <ele>1234.369393</ele>
        <time>2022-05-22T06:17:28.929Z</time>
      </trkpt>
      <trkpt lat="42.226601" lon="1.756722">
        <ele>1233.790312</ele>
        <time>2022-05-22T06:17:29.922Z</time>
      </trkpt>
      <trkpt lat="42.226584" lon="1.756558">
        <ele>1233.225133</ele>
        <time>2022-05-22T06:17:30.920Z</time>
      </trkpt>
      <trkpt lat="42.226574" lon="1.756389">
        <ele>1232.646509</ele>
        <time>2022-05-22T06:17:31.920Z</time>
      </trkpt>
      <trkpt lat="42.226576" lon="1.756219">
        <ele>1232.066237</ele>
        <time>2022-05-22T06:17:32.917Z</time>
      </trkpt>
      <trkpt lat="42.226567" lon="1.756057">
        <ele>1231.511788</ele>
        <time>2022-05-22T06:17:33.918Z</time>
      </trkpt>
      <trkpt lat="42.226565" lon="1.755897">
        <ele>1230.965641</ele>
        <time>2022-05-22T06:17:34.913Z</time>
      </trkpt>
      <trkpt lat="42.226562" lon="1.755739">
        <ele>1230.426220</ele>
        <time>2022-05-22T06:17:35.921Z</time>
      </trkpt>
      <trkpt lat="42.226550" lon="1.755570">
        <ele>1229.846788</ele>
        <time>2022-05-22T06:17:36.916Z</time>
      </trkpt>
      <trkpt lat="42.226529" lon="1.755401">
        <ele>1229.261937</ele>
        <time>2022-05-22T06:17:37.920Z</time>
      </trkpt>
      <trkpt lat="42.226506" lon="1.755223">
        <ele>1228.645255</ele>
        <time>2022-05-22T06:17:38.918Z</time>
      </trkpt>
      <trkpt lat="42.226477" lon="1.755044">
        <ele>1228.019888</ele>
        <time>2022-05-22T06:17:39.918Z</time>
      </trkpt>
      <trkpt lat="42.226458" lon="1.754880">
        <ele>1227.453357</ele>
        <time>2022-05-22T06:17:40.926Z</time>
      </trkpt>
      <trkpt lat="42.226441" lon="1.754716">
        <ele>1226.690084</ele>
        <time>2022-05-22T06:17:41.924Z</time>
      </trkpt>
      <trkpt lat="42.226409" lon="1.754542">
        <ele>1225.786327</ele>
        <time>2022-05-22T06:17:42.927Z</time>
      </trkpt>
      <trkpt lat="42.226357" lon="1.754380">
        <ele>1224.896284</ele>
        <time>2022-05-22T06:17:43.920Z</time>
      </trkpt>
      <trkpt lat="42.226303" lon="1.754226">
        <ele>1224.037351</ele>
        <time>2022-05-22T06:17:44.921Z</time>
      </trkpt>
      <trkpt lat="42.226228" lon="1.754066">
        <ele>1223.082796</ele>
        <time>2022-05-22T06:17:45.924Z</time>
      </trkpt>
      <trkpt lat="42.226168" lon="1.753918">
        <ele>1222.232254</ele>
        <time>2022-05-22T06:17:46.919Z</time>
      </trkpt>
      <trkpt lat="42.226109" lon="1.753768">
        <ele>1221.376070</ele>
        <time>2022-05-22T06:17:47.923Z</time>
      </trkpt>
      <trkpt lat="42.226050" lon="1.753617">
        <ele>1220.515430</ele>
        <time>2022-05-22T06:17:48.925Z</time>
      </trkpt>
      <trkpt lat="42.225992" lon="1.753467">
        <ele>1219.662417</ele>
        <time>2022-05-22T06:17:49.921Z</time>
      </trkpt>
      <trkpt lat="42.225959" lon="1.753332">
        <ele>1218.945775</ele>
        <time>2022-05-22T06:17:50.920Z</time>
      </trkpt>
      <trkpt lat="42.225920" lon="1.753197">
        <ele>1218.215299</ele>
        <time>2022-05-22T06:17:51.915Z</time>
      </trkpt>
      <trkpt lat="42.225886" lon="1.753059">
        <ele>1217.482159</ele>
        <time>2022-05-22T06:17:52.924Z</time>
      </trkpt>
      <trkpt lat="42.225878" lon="1.752921">
        <ele>1216.784385</ele>
        <time>2022-05-22T06:17:53.920Z</time>
      </trkpt>
      <trkpt lat="42.225886" lon="1.752771">
        <ele>1216.026290</ele>
        <time>2022-05-22T06:17:54.926Z</time>
      </trkpt>
      <trkpt lat="42.225905" lon="1.752619">
        <ele>1215.249232</ele>
        <time>2022-05-22T06:17:55.919Z</time>
      </trkpt>
      <trkpt lat="42.225931" lon="1.752462">
        <ele>1214.722488</ele>
        <time>2022-05-22T06:17:56.922Z</time>
      </trkpt>
      <trkpt lat="42.225961" lon="1.752302">
        <ele>1214.271243</ele>
        <time>2022-05-22T06:17:57.920Z</time>
      </trkpt>
      <trkpt lat="42.226001" lon="1.752150">
        <ele>1213.830213</ele>
        <time>2022-05-22T06:17:58.919Z</time>
      </trkpt>
      <trkpt lat="42.226035" lon="1.752000">
        <ele>1213.401331</ele>
        <time>2022-05-22T06:17:59.924Z</time>
      </trkpt>
      <trkpt lat="42.226057" lon="1.751850">
        <ele>1212.983264</ele>
        <time>2022-05-22T06:18:00.917Z</time>
      </trkpt>
      <trkpt lat="42.226079" lon="1.751699">
        <ele>1212.562516</ele>
        <time>2022-05-22T06:18:01.921Z</time>
      </trkpt>
      <trkpt lat="42.226108" lon="1.751548">
        <ele>1212.136024</ele>
        <time>2022-05-22T06:18:02.920Z</time>
      </trkpt>
      <trkpt lat="42.226130" lon="1.751396">
        <ele>1211.712593</ele>
        <time>2022-05-22T06:18:03.915Z</time>
      </trkpt>
      <trkpt lat="42.226161" lon="1.751254">
        <ele>1211.307846</ele>
        <time>2022-05-22T06:18:04.922Z</time>
      </trkpt>
      <trkpt lat="42.226185" lon="1.751112">
        <ele>1210.909635</ele>
        <time>2022-05-22T06:18:05.918Z</time>
      </trkpt>
      <trkpt lat="42.226213" lon="1.750979">
        <ele>1210.531605</ele>
        <time>2022-05-22T06:18:06.919Z</time>
      </trkpt>
      <trkpt lat="42.226254" lon="1.750846">
        <ele>1210.137733</ele>
        <time>2022-05-22T06:18:07.922Z</time>
      </trkpt>
      <trkpt lat="42.226320" lon="1.750722">
        <ele>1209.720229</ele>
        <time>2022-05-22T06:18:08.923Z</time>
      </trkpt>
      <trkpt lat="42.226419" lon="1.750609">
        <ele>1209.241640</ele>
        <time>2022-05-22T06:18:09.920Z</time>
      </trkpt>
      <trkpt lat="42.226493" lon="1.750507">
        <ele>1208.851239</ele>
        <time>2022-05-22T06:18:10.919Z</time>
      </trkpt>
      <trkpt lat="42.226590" lon="1.750414">
        <ele>1208.412770</ele>
        <time>2022-05-22T06:18:11.920Z</time>
      </trkpt>
      <trkpt lat="42.226680" lon="1.750310">
        <ele>1208.025135</ele>
        <time>2022-05-22T06:18:12.920Z</time>
      </trkpt>
      <trkpt lat="42.226780" lon="1.750209">
        <ele>1207.616482</ele>
        <time>2022-05-22T06:18:13.922Z</time>
      </trkpt>
      <trkpt lat="42.226881" lon="1.750094">
        <ele>1207.184155</ele>
        <time>2022-05-22T06:18:14.917Z</time>
      </trkpt>
      <trkpt lat="42.226968" lon="1.749970">
        <ele>1206.770210</ele>
        <time>2022-05-22T06:18:15.916Z</time>
      </trkpt>
      <trkpt lat="42.227046" lon="1.749840">
        <ele>1206.364752</ele>
        <time>2022-05-22T06:18:16.924Z</time>
      </trkpt>
      <trkpt lat="42.227120" lon="1.749714">
        <ele>1205.975045</ele>
        <time>2022-05-22T06:18:17.919Z</time>
      </trkpt>
      <trkpt lat="42.227183" lon="1.749583">
        <ele>1205.596524</ele>
        <time>2022-05-22T06:18:18.921Z</time>
      </trkpt>
      <trkpt lat="42.227239" lon="1.749448">
        <ele>1205.221551</ele>
        <time>2022-05-22T06:18:19.920Z</time>
      </trkpt>
      <trkpt lat="42.227311" lon="1.749311">
        <ele>1204.814449</ele>
        <time>2022-05-22T06:18:20.922Z</time>
      </trkpt>
      <trkpt lat="42.227391" lon="1.749175">
        <ele>1204.393555</ele>
        <time>2022-05-22T06:18:21.922Z</time>
      </trkpt>
      <trkpt lat="42.227458" lon="1.749028">
        <ele>1203.975267</ele>
        <time>2022-05-22T06:18:22.931Z</time>
      </trkpt>
      <trkpt lat="42.227493" lon="1.748863">
        <ele>1203.559349</ele>
        <time>2022-05-22T06:18:23.918Z</time>
      </trkpt>
      <trkpt lat="42.227510" lon="1.748692">
        <ele>1203.141257</ele>
        <time>2022-05-22T06:18:24.924Z</time>
      </trkpt>
      <trkpt lat="42.227496" lon="1.748522">
        <ele>1202.726765</ele>
        <time>2022-05-22T06:18:25.918Z</time>
      </trkpt>
      <trkpt lat="42.227462" lon="1.748343">
        <ele>1202.201496</ele>
        <time>2022-05-22T06:18:26.925Z</time>
      </trkpt>
      <trkpt lat="42.227420" lon="1.748166">
        <ele>1201.613468</ele>
        <time>2022-05-22T06:18:27.923Z</time>
      </trkpt>
      <trkpt lat="42.227390" lon="1.748007">
        <ele>1201.094362</ele>
        <time>2022-05-22T06:18:28.919Z</time>
      </trkpt>
      <trkpt lat="42.227342" lon="1.747857">
        <ele>1200.577386</ele>
        <time>2022-05-22T06:18:29.925Z</time>
      </trkpt>
      <trkpt lat="42.227300" lon="1.747696">
        <ele>1200.037340</ele>
        <time>2022-05-22T06:18:30.920Z</time>
      </trkpt>
      <trkpt lat="42.227255" lon="1.747533">
        <ele>1199.486977</ele>
        <time>2022-05-22T06:18:31.916Z</time>
      </trkpt>
      <trkpt lat="42.227218" lon="1.747378">
        <ele>1198.971747</ele>
        <time>2022-05-22T06:18:32.916Z</time>
      </trkpt>
      <trkpt lat="42.227187" lon="1.747228">
        <ele>1198.479050</ele>
        <time>2022-05-22T06:18:33.917Z</time>
      </trkpt>
      <trkpt lat="42.227151" lon="1.747088">
        <ele>1198.010180</ele>
        <time>2022-05-22T06:18:34.920Z</time>
      </trkpt>
      <trkpt lat="42.227126" lon="1.746951">
        <ele>1197.563781</ele>
        <time>2022-05-22T06:18:35.917Z</time>
      </trkpt>
      <trkpt lat="42.227106" lon="1.746820">
        <ele>1197.140613</ele>
        <time>2022-05-22T06:18:36.921Z</time>
      </trkpt>
      <trkpt lat="42.227085" lon="1.746682">
        <ele>1196.694893</ele>
        <time>2022-05-22T06:18:37.919Z</time>
      </trkpt>
      <trkpt lat="42.227064" lon="1.746544">
        <ele>1196.249172</ele>
        <time>2022-05-22T06:18:38.926Z</time>
      </trkpt>
      <trkpt lat="42.227047" lon="1.746403">
        <ele>1195.797210</ele>
        <time>2022-05-22T06:18:39.924Z</time>
      </trkpt>
      <trkpt lat="42.227024" lon="1.746254">
        <ele>1195.315678</ele>
        <time>2022-05-22T06:18:40.911Z</time>
      </trkpt>
      <trkpt lat="42.227005" lon="1.746099">
        <ele>1194.815825</ele>
        <time>2022-05-22T06:18:41.907Z</time>
      </trkpt>
      <trkpt lat="42.226980" lon="1.745948">
        <ele>1194.279233</ele>
        <time>2022-05-22T06:18:42.918Z</time>
      </trkpt>
      <trkpt lat="42.226941" lon="1.745796">
        <ele>1193.721355</ele>
        <time>2022-05-22T06:18:43.922Z</time>
      </trkpt>
      <trkpt lat="42.226908" lon="1.745656">
        <ele>1193.211835</ele>
        <time>2022-05-22T06:18:44.914Z</time>
      </trkpt>
      <trkpt lat="42.226872" lon="1.745520">
        <ele>1192.710962</ele>
        <time>2022-05-22T06:18:45.915Z</time>
      </trkpt>
      <trkpt lat="42.226824" lon="1.745371">
        <ele>1192.147453</ele>
        <time>2022-05-22T06:18:46.920Z</time>
      </trkpt>
      <trkpt lat="42.226772" lon="1.745228">
        <ele>1191.594962</ele>
        <time>2022-05-22T06:18:47.921Z</time>
      </trkpt>
      <trkpt lat="42.226729" lon="1.745082">
        <ele>1191.050059</ele>
        <time>2022-05-22T06:18:48.922Z</time>
      </trkpt>
      <trkpt lat="42.226687" lon="1.744941">
        <ele>1190.522994</ele>
        <time>2022-05-22T06:18:49.918Z</time>
      </trkpt>
      <trkpt lat="42.226635" lon="1.744794">
        <ele>1189.958018</ele>
        <time>2022-05-22T06:18:50.921Z</time>
      </trkpt>
      <trkpt lat="42.226586" lon="1.744654">
        <ele>1189.420998</ele>
        <time>2022-05-22T06:18:51.923Z</time>
      </trkpt>
      <trkpt lat="42.226533" lon="1.744515">
        <ele>1188.878795</ele>
        <time>2022-05-22T06:18:52.922Z</time>
      </trkpt>
      <trkpt lat="42.226482" lon="1.744379">
        <ele>1188.350118</ele>
        <time>2022-05-22T06:18:53.916Z</time>
      </trkpt>
      <trkpt lat="42.226429" lon="1.744244">
        <ele>1187.820209</ele>
        <time>2022-05-22T06:18:54.916Z</time>
      </trkpt>
      <trkpt lat="42.226378" lon="1.744113">
        <ele>1187.306940</ele>
        <time>2022-05-22T06:18:55.914Z</time>
      </trkpt>
      <trkpt lat="42.226323" lon="1.743982">
        <ele>1186.784690</ele>
        <time>2022-05-22T06:18:56.920Z</time>
      </trkpt>
      <trkpt lat="42.226276" lon="1.743860">
        <ele>1186.300894</ele>
        <time>2022-05-22T06:18:57.917Z</time>
      </trkpt>
      <trkpt lat="42.226223" lon="1.743739">
        <ele>1185.784562</ele>
        <time>2022-05-22T06:18:58.923Z</time>
      </trkpt>
      <trkpt lat="42.226166" lon="1.743618">
        <ele>1185.257852</ele>
        <time>2022-05-22T06:18:59.918Z</time>
      </trkpt>
      <trkpt lat="42.226104" lon="1.743492">
        <ele>1184.702226</ele>
        <time>2022-05-22T06:19:00.911Z</time>
      </trkpt>
      <trkpt lat="42.226036" lon="1.743372">
        <ele>1184.147250</ele>
        <time>2022-05-22T06:19:01.918Z</time>
      </trkpt>
      <trkpt lat="42.225960" lon="1.743257">
        <ele>1183.581133</ele>
        <time>2022-05-22T06:19:02.919Z</time>
      </trkpt>
      <trkpt lat="42.225883" lon="1.743157">
        <ele>1183.051275</ele>
        <time>2022-05-22T06:19:03.913Z</time>
      </trkpt>
      <trkpt lat="42.225798" lon="1.743065">
        <ele>1182.510985</ele>
        <time>2022-05-22T06:19:04.917Z</time>
      </trkpt>
      <trkpt lat="42.225701" lon="1.742982">
        <ele>1181.941430</ele>
        <time>2022-05-22T06:19:05.919Z</time>
      </trkpt>
      <trkpt lat="42.225592" lon="1.742908">
        <ele>1181.336330</ele>
        <time>2022-05-22T06:19:06.925Z</time>
      </trkpt>
      <trkpt lat="42.225487" lon="1.742844">
        <ele>1180.764952</ele>
        <time>2022-05-22T06:19:07.919Z</time>
      </trkpt>
      <trkpt lat="42.225367" lon="1.742777">
        <ele>1180.120902</ele>
        <time>2022-05-22T06:19:08.914Z</time>
      </trkpt>
      <trkpt lat="42.225253" lon="1.742715">
        <ele>1179.511345</ele>
        <time>2022-05-22T06:19:09.916Z</time>
      </trkpt>
      <trkpt lat="42.225147" lon="1.742647">
        <ele>1178.929291</ele>
        <time>2022-05-22T06:19:10.918Z</time>
      </trkpt>
      <trkpt lat="42.225040" lon="1.742581">
        <ele>1178.345844</ele>
        <time>2022-05-22T06:19:11.917Z</time>
      </trkpt>
      <trkpt lat="42.224949" lon="1.742501">
        <ele>1177.807280</ele>
        <time>2022-05-22T06:19:12.908Z</time>
      </trkpt>
      <trkpt lat="42.224864" lon="1.742401">
        <ele>1177.452669</ele>
        <time>2022-05-22T06:19:13.914Z</time>
      </trkpt>
      <trkpt lat="42.224789" lon="1.742304">
        <ele>1177.350921</ele>
        <time>2022-05-22T06:19:14.910Z</time>
      </trkpt>
      <trkpt lat="42.224702" lon="1.742116">
        <ele>1177.190075</ele>
        <time>2022-05-22T06:19:16.916Z</time>
      </trkpt>
      <trkpt lat="42.224709" lon="1.741932">
        <ele>1177.056399</ele>
        <time>2022-05-22T06:19:18.926Z</time>
      </trkpt>
      <trkpt lat="42.224727" lon="1.741773">
        <ele>1176.939698</ele>
        <time>2022-05-22T06:19:20.921Z</time>
      </trkpt>
      <trkpt lat="42.224741" lon="1.741638">
        <ele>1176.840794</ele>
        <time>2022-05-22T06:19:22.924Z</time>
      </trkpt>
      <trkpt lat="42.224765" lon="1.741469">
        <ele>1176.715944</ele>
        <time>2022-05-22T06:19:25.925Z</time>
      </trkpt>
      <trkpt lat="42.224773" lon="1.741347">
        <ele>1176.627082</ele>
        <time>2022-05-22T06:19:28.920Z</time>
      </trkpt>
      <trkpt lat="42.224788" lon="1.741201">
        <ele>1176.520138</ele>
        <time>2022-05-22T06:19:32.927Z</time>
      </trkpt>
      <trkpt lat="42.224799" lon="1.741052">
        <ele>1176.411497</ele>
        <time>2022-05-22T06:19:36.922Z</time>
      </trkpt>
      <trkpt lat="42.224843" lon="1.740917">
        <ele>1176.304482</ele>
        <time>2022-05-22T06:19:40.928Z</time>
      </trkpt>
      <trkpt lat="42.224892" lon="1.740774">
        <ele>1176.190160</ele>
        <time>2022-05-22T06:19:44.924Z</time>
      </trkpt>
      <trkpt lat="42.224955" lon="1.740646">
        <ele>1176.078649</ele>
        <time>2022-05-22T06:19:48.928Z</time>
      </trkpt>
      <trkpt lat="42.225017" lon="1.740536">
        <ele>1175.978352</ele>
        <time>2022-05-22T06:19:52.923Z</time>
      </trkpt>
      <trkpt lat="42.225075" lon="1.740433">
        <ele>1175.884469</ele>
        <time>2022-05-22T06:19:56.924Z</time>
      </trkpt>
      <trkpt lat="42.225145" lon="1.740320">
        <ele>1175.777579</ele>
        <time>2022-05-22T06:20:01.929Z</time>
      </trkpt>
      <trkpt lat="42.225231" lon="1.740260">
        <ele>1176.036821</ele>
        <time>2022-05-22T06:20:05.925Z</time>
      </trkpt>
      <trkpt lat="42.225331" lon="1.740204">
        <ele>1176.578192</ele>
        <time>2022-05-22T06:20:09.929Z</time>
      </trkpt>
      <trkpt lat="42.225414" lon="1.740139">
        <ele>1177.058001</ele>
        <time>2022-05-22T06:20:14.922Z</time>
      </trkpt>
      <trkpt lat="42.225494" lon="1.740084">
        <ele>1177.506924</ele>
        <time>2022-05-22T06:20:19.929Z</time>
      </trkpt>
      <trkpt lat="42.225591" lon="1.740044">
        <ele>1178.014112</ele>
        <time>2022-05-22T06:20:24.927Z</time>
      </trkpt>
      <trkpt lat="42.225688" lon="1.740007">
        <ele>1178.518167</ele>
        <time>2022-05-22T06:20:30.927Z</time>
      </trkpt>
      <trkpt lat="42.225788" lon="1.740014">
        <ele>1179.018916</ele>
        <time>2022-05-22T06:20:36.921Z</time>
      </trkpt>
      <trkpt lat="42.225894" lon="1.740016">
        <ele>1179.549051</ele>
        <time>2022-05-22T06:20:43.928Z</time>
      </trkpt>
      <trkpt lat="42.225988" lon="1.739998">
        <ele>1180.023827</ele>
        <time>2022-05-22T06:20:48.923Z</time>
      </trkpt>
      <trkpt lat="42.226099" lon="1.740001">
        <ele>1180.579025</ele>
        <time>2022-05-22T06:20:53.921Z</time>
      </trkpt>
      <trkpt lat="42.226203" lon="1.739979">
        <ele>1181.105448</ele>
        <time>2022-05-22T06:20:58.921Z</time>
      </trkpt>
      <trkpt lat="42.226318" lon="1.739962">
        <ele>1181.683974</ele>
        <time>2022-05-22T06:21:03.915Z</time>
      </trkpt>
      <trkpt lat="42.226420" lon="1.739922">
        <ele>1182.215125</ele>
        <time>2022-05-22T06:21:07.920Z</time>
      </trkpt>
      <trkpt lat="42.226515" lon="1.739932">
        <ele>1182.691640</ele>
        <time>2022-05-22T06:21:12.926Z</time>
      </trkpt>
      <trkpt lat="42.226615" lon="1.739943">
        <ele>1183.193375</ele>
        <time>2022-05-22T06:21:18.921Z</time>
      </trkpt>
      <trkpt lat="42.226709" lon="1.739940">
        <ele>1183.663580</ele>
        <time>2022-05-22T06:21:23.927Z</time>
      </trkpt>
      <trkpt lat="42.226810" lon="1.739941">
        <ele>1184.168672</ele>
        <time>2022-05-22T06:21:28.923Z</time>
      </trkpt>
      <trkpt lat="42.226904" lon="1.739957">
        <ele>1184.642465</ele>
        <time>2022-05-22T06:21:33.924Z</time>
      </trkpt>
      <trkpt lat="42.226996" lon="1.739974">
        <ele>1185.343060</ele>
        <time>2022-05-22T06:21:40.928Z</time>
      </trkpt>
      <trkpt lat="42.227089" lon="1.739963">
        <ele>1186.106821</ele>
        <time>2022-05-22T06:21:44.920Z</time>
      </trkpt>
      <trkpt lat="42.227177" lon="1.739920">
        <ele>1186.872442</ele>
        <time>2022-05-22T06:21:48.918Z</time>
      </trkpt>
      <trkpt lat="42.227253" lon="1.739844">
        <ele>1187.646118</ele>
        <time>2022-05-22T06:21:55.921Z</time>
      </trkpt>
      <trkpt lat="42.227332" lon="1.739778">
        <ele>1188.406107</ele>
        <time>2022-05-22T06:22:01.924Z</time>
      </trkpt>
      <trkpt lat="42.227403" lon="1.739699">
        <ele>1189.158731</ele>
        <time>2022-05-22T06:22:07.917Z</time>
      </trkpt>
      <trkpt lat="42.227497" lon="1.739639">
        <ele>1190.009334</ele>
        <time>2022-05-22T06:22:13.920Z</time>
      </trkpt>
      <trkpt lat="42.227582" lon="1.739573">
        <ele>1190.811482</ele>
        <time>2022-05-22T06:22:19.924Z</time>
      </trkpt>
      <trkpt lat="42.227616" lon="1.739461">
        <ele>1191.544782</ele>
        <time>2022-05-22T06:22:26.928Z</time>
      </trkpt>
      <trkpt lat="42.227665" lon="1.739342">
        <ele>1192.369647</ele>
        <time>2022-05-22T06:22:33.926Z</time>
      </trkpt>
      <trkpt lat="42.227709" lon="1.739222">
        <ele>1193.180848</ele>
        <time>2022-05-22T06:22:38.929Z</time>
      </trkpt>
      <trkpt lat="42.227724" lon="1.739084">
        <ele>1194.025809</ele>
        <time>2022-05-22T06:22:44.921Z</time>
      </trkpt>
      <trkpt lat="42.227728" lon="1.738960">
        <ele>1194.777712</ele>
        <time>2022-05-22T06:22:51.923Z</time>
      </trkpt>
      <trkpt lat="42.227723" lon="1.738836">
        <ele>1195.530015</ele>
        <time>2022-05-22T06:22:57.929Z</time>
      </trkpt>
      <trkpt lat="42.227655" lon="1.738752">
        <ele>1196.283965</ele>
        <time>2022-05-22T06:23:03.923Z</time>
      </trkpt>
      <trkpt lat="42.227633" lon="1.738615">
        <ele>1197.133202</ele>
        <time>2022-05-22T06:23:08.907Z</time>
      </trkpt>
      <trkpt lat="42.227580" lon="1.738499">
        <ele>1197.958936</ele>
        <time>2022-05-22T06:23:13.922Z</time>
      </trkpt>
      <trkpt lat="42.227549" lon="1.738373">
        <ele>1198.763274</ele>
        <time>2022-05-22T06:23:19.925Z</time>
      </trkpt>
      <trkpt lat="42.227529" lon="1.738251">
        <ele>1199.581949</ele>
        <time>2022-05-22T06:23:25.921Z</time>
      </trkpt>
      <trkpt lat="42.227495" lon="1.738116">
        <ele>1201.208552</ele>
        <time>2022-05-22T06:23:31.925Z</time>
      </trkpt>
      <trkpt lat="42.227425" lon="1.738013">
        <ele>1202.803333</ele>
        <time>2022-05-22T06:23:37.921Z</time>
      </trkpt>
      <trkpt lat="42.227390" lon="1.737888">
        <ele>1204.327767</ele>
        <time>2022-05-22T06:23:43.926Z</time>
      </trkpt>
      <trkpt lat="42.227366" lon="1.737754">
        <ele>1205.900408</ele>
        <time>2022-05-22T06:23:50.915Z</time>
      </trkpt>
      <trkpt lat="42.227336" lon="1.737613">
        <ele>1207.573902</ele>
        <time>2022-05-22T06:23:56.921Z</time>
      </trkpt>
      <trkpt lat="42.227329" lon="1.737491">
        <ele>1208.969752</ele>
        <time>2022-05-22T06:24:01.919Z</time>
      </trkpt>
      <trkpt lat="42.227296" lon="1.737361">
        <ele>1210.537406</ele>
        <time>2022-05-22T06:24:08.926Z</time>
      </trkpt>
      <trkpt lat="42.227272" lon="1.737232">
        <ele>1212.054671</ele>
        <time>2022-05-22T06:24:13.934Z</time>
      </trkpt>
      <trkpt lat="42.227247" lon="1.737112">
        <ele>1213.476682</ele>
        <time>2022-05-22T06:24:18.922Z</time>
      </trkpt>
      <trkpt lat="42.227216" lon="1.736985">
        <ele>1215.002080</ele>
        <time>2022-05-22T06:24:24.936Z</time>
      </trkpt>
      <trkpt lat="42.227180" lon="1.736856">
        <ele>1216.574647</ele>
        <time>2022-05-22T06:24:30.929Z</time>
      </trkpt>
      <trkpt lat="42.227155" lon="1.736722">
        <ele>1218.150987</ele>
        <time>2022-05-22T06:24:36.925Z</time>
      </trkpt>
      <trkpt lat="42.227146" lon="1.736589">
        <ele>1219.674470</ele>
        <time>2022-05-22T06:24:41.924Z</time>
      </trkpt>
      <trkpt lat="42.227151" lon="1.736466">
        <ele>1221.079673</ele>
        <time>2022-05-22T06:24:47.920Z</time>
      </trkpt>
      <trkpt lat="42.227139" lon="1.736331">
        <ele>1222.630705</ele>
        <time>2022-05-22T06:24:52.926Z</time>
      </trkpt>
      <trkpt lat="42.227136" lon="1.736199">
        <ele>1224.137169</ele>
        <time>2022-05-22T06:24:57.929Z</time>
      </trkpt>
      <trkpt lat="42.227130" lon="1.736060">
        <ele>1225.725466</ele>
        <time>2022-05-22T06:25:02.916Z</time>
      </trkpt>
      <trkpt lat="42.227118" lon="1.735916">
        <ele>1227.287115</ele>
        <time>2022-05-22T06:25:07.920Z</time>
      </trkpt>
      <trkpt lat="42.227115" lon="1.735783">
        <ele>1228.174369</ele>
        <time>2022-05-22T06:25:12.924Z</time>
      </trkpt>
      <trkpt lat="42.227106" lon="1.735651">
        <ele>1229.058268</ele>
        <time>2022-05-22T06:25:18.919Z</time>
      </trkpt>
      <trkpt lat="42.227105" lon="1.735509">
        <ele>1230.005167</ele>
        <time>2022-05-22T06:25:24.932Z</time>
      </trkpt>
      <trkpt lat="42.227083" lon="1.735387">
        <ele>1230.842438</ele>
        <time>2022-05-22T06:25:29.935Z</time>
      </trkpt>
      <trkpt lat="42.227041" lon="1.735268">
        <ele>1231.721454</ele>
        <time>2022-05-22T06:25:34.936Z</time>
      </trkpt>
      <trkpt lat="42.226977" lon="1.735167">
        <ele>1232.607849</ele>
        <time>2022-05-22T06:25:39.920Z</time>
      </trkpt>
      <trkpt lat="42.226902" lon="1.735063">
        <ele>1233.575850</ele>
        <time>2022-05-22T06:25:44.928Z</time>
      </trkpt>
      <trkpt lat="42.226827" lon="1.734989">
        <ele>1234.412268</ele>
        <time>2022-05-22T06:25:49.934Z</time>
      </trkpt>
      <trkpt lat="42.226749" lon="1.734912">
        <ele>1235.282302</ele>
        <time>2022-05-22T06:25:54.927Z</time>
      </trkpt>
      <trkpt lat="42.226676" lon="1.734834">
        <ele>1236.120532</ele>
        <time>2022-05-22T06:25:59.927Z</time>
      </trkpt>
      <trkpt lat="42.226593" lon="1.734773">
        <ele>1236.971449</ele>
        <time>2022-05-22T06:26:04.921Z</time>
      </trkpt>
      <trkpt lat="42.226517" lon="1.734702">
        <ele>1237.803616</ele>
        <time>2022-05-22T06:26:10.916Z</time>
      </trkpt>
      <trkpt lat="42.226441" lon="1.734630">
        <ele>1238.639595</ele>
        <time>2022-05-22T06:26:15.922Z</time>
      </trkpt>
      <trkpt lat="42.226368" lon="1.734557">
        <ele>1239.457557</ele>
        <time>2022-05-22T06:26:20.921Z</time>
      </trkpt>
      <trkpt lat="42.226289" lon="1.734475">
        <ele>1240.354798</ele>
        <time>2022-05-22T06:26:26.924Z</time>
      </trkpt>
      <trkpt lat="42.226211" lon="1.734384">
        <ele>1241.282990</ele>
        <time>2022-05-22T06:26:32.920Z</time>
      </trkpt>
      <trkpt lat="42.226132" lon="1.734301">
        <ele>1242.184311</ele>
        <time>2022-05-22T06:26:38.914Z</time>
      </trkpt>
      <trkpt lat="42.226055" lon="1.734219">
        <ele>1243.067342</ele>
        <time>2022-05-22T06:26:44.920Z</time>
      </trkpt>
      <trkpt lat="42.225983" lon="1.734121">
        <ele>1243.524618</ele>
        <time>2022-05-22T06:26:50.929Z</time>
      </trkpt>
      <trkpt lat="42.225904" lon="1.734057">
        <ele>1243.746815</ele>
        <time>2022-05-22T06:26:56.938Z</time>
      </trkpt>
      <trkpt lat="42.225830" lon="1.733970">
        <ele>1243.983457</ele>
        <time>2022-05-22T06:27:02.953Z</time>
      </trkpt>
      <trkpt lat="42.225766" lon="1.733881">
        <ele>1244.205029</ele>
        <time>2022-05-22T06:27:08.908Z</time>
      </trkpt>
      <trkpt lat="42.225698" lon="1.733779">
        <ele>1244.450155</ele>
        <time>2022-05-22T06:27:15.932Z</time>
      </trkpt>
      <trkpt lat="42.225626" lon="1.733680">
        <ele>1244.697987</ele>
        <time>2022-05-22T06:27:22.928Z</time>
      </trkpt>
      <trkpt lat="42.225546" lon="1.733617">
        <ele>1244.921350</ele>
        <time>2022-05-22T06:27:27.938Z</time>
      </trkpt>
      <trkpt lat="42.225450" lon="1.733535">
        <ele>1245.195322</ele>
        <time>2022-05-22T06:27:33.927Z</time>
      </trkpt>
      <trkpt lat="42.225391" lon="1.733438">
        <ele>1245.419518</ele>
        <time>2022-05-22T06:27:37.936Z</time>
      </trkpt>
      <trkpt lat="42.225306" lon="1.733375">
        <ele>1245.653378</ele>
        <time>2022-05-22T06:27:43.936Z</time>
      </trkpt>
      <trkpt lat="42.225233" lon="1.733301">
        <ele>1245.873533</ele>
        <time>2022-05-22T06:27:47.935Z</time>
      </trkpt>
      <trkpt lat="42.225154" lon="1.733212">
        <ele>1246.121672</ele>
        <time>2022-05-22T06:27:51.933Z</time>
      </trkpt>
      <trkpt lat="42.225080" lon="1.733111">
        <ele>1246.375435</ele>
        <time>2022-05-22T06:27:55.934Z</time>
      </trkpt>
      <trkpt lat="42.225017" lon="1.733000">
        <ele>1246.625219</ele>
        <time>2022-05-22T06:27:59.936Z</time>
      </trkpt>
      <trkpt lat="42.224978" lon="1.732866">
        <ele>1246.882370</ele>
        <time>2022-05-22T06:28:04.933Z</time>
      </trkpt>
      <trkpt lat="42.224957" lon="1.732714">
        <ele>1247.158533</ele>
        <time>2022-05-22T06:28:09.928Z</time>
      </trkpt>
      <trkpt lat="42.224934" lon="1.732595">
        <ele>1247.378192</ele>
        <time>2022-05-22T06:28:13.932Z</time>
      </trkpt>
      <trkpt lat="42.224907" lon="1.732457">
        <ele>1247.633124</ele>
        <time>2022-05-22T06:28:17.933Z</time>
      </trkpt>
      <trkpt lat="42.224885" lon="1.732325">
        <ele>1247.726362</ele>
        <time>2022-05-22T06:28:21.944Z</time>
      </trkpt>
      <trkpt lat="42.224885" lon="1.732196">
        <ele>1247.768340</ele>
        <time>2022-05-22T06:28:25.928Z</time>
      </trkpt>
      <trkpt lat="42.224874" lon="1.732043">
        <ele>1247.818363</ele>
        <time>2022-05-22T06:28:29.934Z</time>
      </trkpt>
      <trkpt lat="42.224878" lon="1.731885">
        <ele>1247.869809</ele>
        <time>2022-05-22T06:28:33.939Z</time>
      </trkpt>
      <trkpt lat="42.224878" lon="1.731733">
        <ele>1247.919272</ele>
        <time>2022-05-22T06:28:37.936Z</time>
      </trkpt>
      <trkpt lat="42.224869" lon="1.731605">
        <ele>1247.961113</ele>
        <time>2022-05-22T06:28:40.941Z</time>
      </trkpt>
      <trkpt lat="42.224840" lon="1.731459">
        <ele>1248.010303</ele>
        <time>2022-05-22T06:28:44.923Z</time>
      </trkpt>
      <trkpt lat="42.224811" lon="1.731324">
        <ele>1248.056045</ele>
        <time>2022-05-22T06:28:48.933Z</time>
      </trkpt>
      <trkpt lat="42.224779" lon="1.731196">
        <ele>1248.100008</ele>
        <time>2022-05-22T06:28:52.938Z</time>
      </trkpt>
      <trkpt lat="42.224737" lon="1.731072">
        <ele>1248.144381</ele>
        <time>2022-05-22T06:28:56.934Z</time>
      </trkpt>
      <trkpt lat="42.224687" lon="1.730932">
        <ele>1248.194961</ele>
        <time>2022-05-22T06:29:00.930Z</time>
      </trkpt>
      <trkpt lat="42.224630" lon="1.730838">
        <ele>1248.234497</ele>
        <time>2022-05-22T06:29:03.931Z</time>
      </trkpt>
      <trkpt lat="42.224581" lon="1.730733">
        <ele>1248.274885</ele>
        <time>2022-05-22T06:29:06.939Z</time>
      </trkpt>
      <trkpt lat="42.224515" lon="1.730627">
        <ele>1248.319953</ele>
        <time>2022-05-22T06:29:09.929Z</time>
      </trkpt>
      <trkpt lat="42.224448" lon="1.730542">
        <ele>1248.360351</ele>
        <time>2022-05-22T06:29:13.937Z</time>
      </trkpt>
      <trkpt lat="42.224343" lon="1.730470">
        <ele>1248.412100</ele>
        <time>2022-05-22T06:29:17.939Z</time>
      </trkpt>
      <trkpt lat="42.224239" lon="1.730395">
        <ele>1248.463912</ele>
        <time>2022-05-22T06:29:21.934Z</time>
      </trkpt>
      <trkpt lat="42.224134" lon="1.730333">
        <ele>1248.604165</ele>
        <time>2022-05-22T06:29:25.933Z</time>
      </trkpt>
      <trkpt lat="42.224040" lon="1.730295">
        <ele>1248.774089</ele>
        <time>2022-05-22T06:29:29.943Z</time>
      </trkpt>
      <trkpt lat="42.223953" lon="1.730249">
        <ele>1248.935889</ele>
        <time>2022-05-22T06:29:32.934Z</time>
      </trkpt>
      <trkpt lat="42.223853" lon="1.730160">
        <ele>1249.143294</ele>
        <time>2022-05-22T06:29:36.948Z</time>
      </trkpt>
      <trkpt lat="42.223757" lon="1.730064">
        <ele>1249.350165</ele>
        <time>2022-05-22T06:29:40.938Z</time>
      </trkpt>
      <trkpt lat="42.223671" lon="1.729994">
        <ele>1249.524059</ele>
        <time>2022-05-22T06:29:43.931Z</time>
      </trkpt>
      <trkpt lat="42.223584" lon="1.729888">
        <ele>1249.726983</ele>
        <time>2022-05-22T06:29:47.935Z</time>
      </trkpt>
      <trkpt lat="42.223528" lon="1.729792">
        <ele>1249.883705</ele>
        <time>2022-05-22T06:29:50.933Z</time>
      </trkpt>
      <trkpt lat="42.223469" lon="1.729686">
        <ele>1250.053759</ele>
        <time>2022-05-22T06:29:53.937Z</time>
      </trkpt>
      <trkpt lat="42.223418" lon="1.729540">
        <ele>1250.260778</ele>
        <time>2022-05-22T06:29:57.935Z</time>
      </trkpt>
      <trkpt lat="42.223392" lon="1.729423">
        <ele>1250.417432</ele>
        <time>2022-05-22T06:30:00.939Z</time>
      </trkpt>
      <trkpt lat="42.223375" lon="1.729298">
        <ele>1250.580416</ele>
        <time>2022-05-22T06:30:03.929Z</time>
      </trkpt>
      <trkpt lat="42.223348" lon="1.729182">
        <ele>1250.736352</ele>
        <time>2022-05-22T06:30:06.937Z</time>
      </trkpt>
      <trkpt lat="42.223345" lon="1.729061">
        <ele>1250.891613</ele>
        <time>2022-05-22T06:30:09.932Z</time>
      </trkpt>
      <trkpt lat="42.223356" lon="1.728911">
        <ele>1251.084917</ele>
        <time>2022-05-22T06:30:13.935Z</time>
      </trkpt>
      <trkpt lat="42.223364" lon="1.728783">
        <ele>1251.249651</ele>
        <time>2022-05-22T06:30:17.928Z</time>
      </trkpt>
      <trkpt lat="42.223375" lon="1.728653">
        <ele>1251.417452</ele>
        <time>2022-05-22T06:30:21.921Z</time>
      </trkpt>
      <trkpt lat="42.223395" lon="1.728525">
        <ele>1251.585216</ele>
        <time>2022-05-22T06:30:24.932Z</time>
      </trkpt>
      <trkpt lat="42.223419" lon="1.728389">
        <ele>1252.049827</ele>
        <time>2022-05-22T06:30:28.940Z</time>
      </trkpt>
      <trkpt lat="42.223473" lon="1.728259">
        <ele>1252.569569</ele>
        <time>2022-05-22T06:30:32.929Z</time>
      </trkpt>
      <trkpt lat="42.223513" lon="1.728146">
        <ele>1253.006292</ele>
        <time>2022-05-22T06:30:36.931Z</time>
      </trkpt>
      <trkpt lat="42.223529" lon="1.728026">
        <ele>1253.431450</ele>
        <time>2022-05-22T06:30:40.935Z</time>
      </trkpt>
      <trkpt lat="42.223583" lon="1.727912">
        <ele>1253.903324</ele>
        <time>2022-05-22T06:30:44.936Z</time>
      </trkpt>
      <trkpt lat="42.223616" lon="1.727791">
        <ele>1254.352943</ele>
        <time>2022-05-22T06:30:48.931Z</time>
      </trkpt>
      <trkpt lat="42.223607" lon="1.727665">
        <ele>1254.794332</ele>
        <time>2022-05-22T06:30:52.933Z</time>
      </trkpt>
      <trkpt lat="42.223587" lon="1.727518">
        <ele>1255.315487</ele>
        <time>2022-05-22T06:30:57.929Z</time>
      </trkpt>
      <trkpt lat="42.223546" lon="1.727395">
        <ele>1255.785823</ele>
        <time>2022-05-22T06:31:01.924Z</time>
      </trkpt>
      <trkpt lat="42.223502" lon="1.727277">
        <ele>1256.246497</ele>
        <time>2022-05-22T06:31:05.931Z</time>
      </trkpt>
      <trkpt lat="42.223480" lon="1.727148">
        <ele>1256.708082</ele>
        <time>2022-05-22T06:31:11.931Z</time>
      </trkpt>
      <trkpt lat="42.223422" lon="1.727053">
        <ele>1257.137403</ele>
        <time>2022-05-22T06:31:15.936Z</time>
      </trkpt>
      <trkpt lat="42.223356" lon="1.726936">
        <ele>1257.650257</ele>
        <time>2022-05-22T06:31:20.930Z</time>
      </trkpt>
      <trkpt lat="42.223266" lon="1.726854">
        <ele>1258.161476</ele>
        <time>2022-05-22T06:31:25.935Z</time>
      </trkpt>
      <trkpt lat="42.223184" lon="1.726764">
        <ele>1258.659037</ele>
        <time>2022-05-22T06:31:31.931Z</time>
      </trkpt>
      <trkpt lat="42.223108" lon="1.726692">
        <ele>1259.096180</ele>
        <time>2022-05-22T06:31:36.930Z</time>
      </trkpt>
      <trkpt lat="42.223035" lon="1.726600">
        <ele>1259.566354</ele>
        <time>2022-05-22T06:31:41.933Z</time>
      </trkpt>
      <trkpt lat="42.222952" lon="1.726502">
        <ele>1260.127622</ele>
        <time>2022-05-22T06:31:45.937Z</time>
      </trkpt>
      <trkpt lat="42.222897" lon="1.726396">
        <ele>1261.650444</ele>
        <time>2022-05-22T06:31:49.931Z</time>
      </trkpt>
      <trkpt lat="42.222862" lon="1.726278">
        <ele>1263.146010</ele>
        <time>2022-05-22T06:31:53.931Z</time>
      </trkpt>
      <trkpt lat="42.222817" lon="1.726165">
        <ele>1264.655572</ele>
        <time>2022-05-22T06:31:57.937Z</time>
      </trkpt>
      <trkpt lat="42.222800" lon="1.726032">
        <ele>1266.243539</ele>
        <time>2022-05-22T06:32:01.930Z</time>
      </trkpt>
      <trkpt lat="42.222783" lon="1.725910">
        <ele>1267.704137</ele>
        <time>2022-05-22T06:32:05.934Z</time>
      </trkpt>
      <trkpt lat="42.222740" lon="1.725779">
        <ele>1269.390060</ele>
        <time>2022-05-22T06:32:09.925Z</time>
      </trkpt>
      <trkpt lat="42.222752" lon="1.725633">
        <ele>1271.118392</ele>
        <time>2022-05-22T06:32:13.927Z</time>
      </trkpt>
      <trkpt lat="42.222789" lon="1.725513">
        <ele>1272.647760</ele>
        <time>2022-05-22T06:32:17.930Z</time>
      </trkpt>
      <trkpt lat="42.222824" lon="1.725398">
        <ele>1274.110620</ele>
        <time>2022-05-22T06:32:21.938Z</time>
      </trkpt>
      <trkpt lat="42.222847" lon="1.725251">
        <ele>1275.878349</ele>
        <time>2022-05-22T06:32:26.942Z</time>
      </trkpt>
      <trkpt lat="42.222820" lon="1.725126">
        <ele>1277.410337</ele>
        <time>2022-05-22T06:32:31.919Z</time>
      </trkpt>
      <trkpt lat="42.222797" lon="1.724984">
        <ele>1279.120552</ele>
        <time>2022-05-22T06:32:36.939Z</time>
      </trkpt>
      <trkpt lat="42.222830" lon="1.724858">
        <ele>1280.693005</ele>
        <time>2022-05-22T06:32:40.926Z</time>
      </trkpt>
      <trkpt lat="42.222853" lon="1.724728">
        <ele>1282.265582</ele>
        <time>2022-05-22T06:32:45.932Z</time>
      </trkpt>
      <trkpt lat="42.222882" lon="1.724611">
        <ele>1283.717221</ele>
        <time>2022-05-22T06:32:48.934Z</time>
      </trkpt>
      <trkpt lat="42.222896" lon="1.724477">
        <ele>1285.309427</ele>
        <time>2022-05-22T06:32:54.002Z</time>
      </trkpt>
      <trkpt lat="42.222945" lon="1.724368">
        <ele>1286.809680</ele>
        <time>2022-05-22T06:32:58.926Z</time>
      </trkpt>
      <trkpt lat="42.222975" lon="1.724236">
        <ele>1288.434234</ele>
        <time>2022-05-22T06:33:04.928Z</time>
      </trkpt>
      <trkpt lat="42.223008" lon="1.724113">
        <ele>1289.847780</ele>
        <time>2022-05-22T06:33:09.925Z</time>
      </trkpt>
      <trkpt lat="42.223027" lon="1.723986">
        <ele>1291.228039</ele>
        <time>2022-05-22T06:33:14.929Z</time>
      </trkpt>
      <trkpt lat="42.223045" lon="1.723858">
        <ele>1292.615985</ele>
        <time>2022-05-22T06:33:19.920Z</time>
      </trkpt>
      <trkpt lat="42.223066" lon="1.723737">
        <ele>1293.939918</ele>
        <time>2022-05-22T06:33:24.924Z</time>
      </trkpt>
      <trkpt lat="42.223066" lon="1.723603">
        <ele>1295.367413</ele>
        <time>2022-05-22T06:33:29.926Z</time>
      </trkpt>
      <trkpt lat="42.223056" lon="1.723473">
        <ele>1296.759748</ele>
        <time>2022-05-22T06:33:34.928Z</time>
      </trkpt>
      <trkpt lat="42.223041" lon="1.723334">
        <ele>1298.256148</ele>
        <time>2022-05-22T06:33:40.918Z</time>
      </trkpt>
      <trkpt lat="42.223006" lon="1.723207">
        <ele>1299.699724</ele>
        <time>2022-05-22T06:33:45.924Z</time>
      </trkpt>
      <trkpt lat="42.222974" lon="1.723083">
        <ele>1301.098603</ele>
        <time>2022-05-22T06:33:50.925Z</time>
      </trkpt>
      <trkpt lat="42.222939" lon="1.722955">
        <ele>1302.552169</ele>
        <time>2022-05-22T06:33:55.928Z</time>
      </trkpt>
      <trkpt lat="42.222889" lon="1.722823">
        <ele>1304.131641</ele>
        <time>2022-05-22T06:34:00.931Z</time>
      </trkpt>
      <trkpt lat="42.222836" lon="1.722713">
        <ele>1305.529669</ele>
        <time>2022-05-22T06:34:05.937Z</time>
      </trkpt>
      <trkpt lat="42.222765" lon="1.722616">
        <ele>1306.982593</ele>
        <time>2022-05-22T06:34:10.920Z</time>
      </trkpt>
      <trkpt lat="42.222704" lon="1.722498">
        <ele>1308.515636</ele>
        <time>2022-05-22T06:34:15.918Z</time>
      </trkpt>
      <trkpt lat="42.222630" lon="1.722406">
        <ele>1309.962621</ele>
        <time>2022-05-22T06:34:20.920Z</time>
      </trkpt>
      <trkpt lat="42.222554" lon="1.722319">
        <ele>1311.395898</ele>
        <time>2022-05-22T06:34:25.919Z</time>
      </trkpt>
      <trkpt lat="42.222480" lon="1.722239">
        <ele>1312.759546</ele>
        <time>2022-05-22T06:34:30.923Z</time>
      </trkpt>
      <trkpt lat="42.222398" lon="1.722185">
        <ele>1314.071952</ele>
        <time>2022-05-22T06:34:35.940Z</time>
      </trkpt>
      <trkpt lat="42.222311" lon="1.722113">
        <ele>1314.662585</ele>
        <time>2022-05-22T06:34:42.938Z</time>
      </trkpt>
      <trkpt lat="42.222211" lon="1.722068">
        <ele>1314.875984</ele>
        <time>2022-05-22T06:34:47.938Z</time>
      </trkpt>
      <trkpt lat="42.222114" lon="1.722018">
        <ele>1315.086185</ele>
        <time>2022-05-22T06:34:52.933Z</time>
      </trkpt>
      <trkpt lat="42.222019" lon="1.721950">
        <ele>1315.303866</ele>
        <time>2022-05-22T06:34:57.929Z</time>
      </trkpt>
      <trkpt lat="42.221933" lon="1.721904">
        <ele>1315.491137</ele>
        <time>2022-05-22T06:35:01.938Z</time>
      </trkpt>
      <trkpt lat="42.221848" lon="1.721854">
        <ele>1315.678841</ele>
        <time>2022-05-22T06:35:05.934Z</time>
      </trkpt>
      <trkpt lat="42.221766" lon="1.721797">
        <ele>1315.865558</ele>
        <time>2022-05-22T06:35:09.936Z</time>
      </trkpt>
      <trkpt lat="42.221684" lon="1.721723">
        <ele>1316.065230</ele>
        <time>2022-05-22T06:35:14.938Z</time>
      </trkpt>
      <trkpt lat="42.221590" lon="1.721637">
        <ele>1316.295102</ele>
        <time>2022-05-22T06:35:19.937Z</time>
      </trkpt>
      <trkpt lat="42.221501" lon="1.721555">
        <ele>1316.513231</ele>
        <time>2022-05-22T06:35:24.942Z</time>
      </trkpt>
      <trkpt lat="42.221425" lon="1.721452">
        <ele>1316.731226</ele>
        <time>2022-05-22T06:35:29.943Z</time>
      </trkpt>
      <trkpt lat="42.221375" lon="1.721334">
        <ele>1316.935053</ele>
        <time>2022-05-22T06:35:34.939Z</time>
      </trkpt>
      <trkpt lat="42.221329" lon="1.721227">
        <ele>1317.120548</ele>
        <time>2022-05-22T06:35:38.935Z</time>
      </trkpt>
      <trkpt lat="42.221292" lon="1.721094">
        <ele>1317.333558</ele>
        <time>2022-05-22T06:35:43.934Z</time>
      </trkpt>
      <trkpt lat="42.221277" lon="1.720965">
        <ele>1317.529334</ele>
        <time>2022-05-22T06:35:48.932Z</time>
      </trkpt>
      <trkpt lat="42.221270" lon="1.720840">
        <ele>1317.717279</ele>
        <time>2022-05-22T06:35:52.944Z</time>
      </trkpt>
      <trkpt lat="42.221266" lon="1.720696">
        <ele>1317.933327</ele>
        <time>2022-05-22T06:35:57.939Z</time>
      </trkpt>
      <trkpt lat="42.221275" lon="1.720553">
        <ele>1318.148497</ele>
        <time>2022-05-22T06:36:02.943Z</time>
      </trkpt>
      <trkpt lat="42.221291" lon="1.720426">
        <ele>1318.694541</ele>
        <time>2022-05-22T06:36:07.944Z</time>
      </trkpt>
      <trkpt lat="42.221311" lon="1.720293">
        <ele>1319.294029</ele>
        <time>2022-05-22T06:36:13.943Z</time>
      </trkpt>
      <trkpt lat="42.221338" lon="1.720156">
        <ele>1319.920259</ele>
        <time>2022-05-22T06:36:19.938Z</time>
      </trkpt>
      <trkpt lat="42.221352" lon="1.720013">
        <ele>1320.557425</ele>
        <time>2022-05-22T06:36:25.945Z</time>
      </trkpt>
      <trkpt lat="42.221350" lon="1.719886">
        <ele>1321.118546</ele>
        <time>2022-05-22T06:36:30.943Z</time>
      </trkpt>
      <trkpt lat="42.221344" lon="1.719762">
        <ele>1321.667457</ele>
        <time>2022-05-22T06:36:35.934Z</time>
      </trkpt>
      <trkpt lat="42.221330" lon="1.719640">
        <ele>1322.212796</ele>
        <time>2022-05-22T06:36:40.938Z</time>
      </trkpt>
      <trkpt lat="42.221312" lon="1.719498">
        <ele>1322.849172</ele>
        <time>2022-05-22T06:36:46.939Z</time>
      </trkpt>
      <trkpt lat="42.221296" lon="1.719354">
        <ele>1323.492380</ele>
        <time>2022-05-22T06:36:52.935Z</time>
      </trkpt>
      <trkpt lat="42.221287" lon="1.719225">
        <ele>1324.064733</ele>
        <time>2022-05-22T06:36:57.932Z</time>
      </trkpt>
      <trkpt lat="42.221294" lon="1.719084">
        <ele>1324.688967</ele>
        <time>2022-05-22T06:37:03.939Z</time>
      </trkpt>
      <trkpt lat="42.221292" lon="1.718946">
        <ele>1325.298668</ele>
        <time>2022-05-22T06:37:09.937Z</time>
      </trkpt>
      <trkpt lat="42.221294" lon="1.718823">
        <ele>1325.842125</ele>
        <time>2022-05-22T06:37:14.935Z</time>
      </trkpt>
      <trkpt lat="42.221314" lon="1.718700">
        <ele>1326.398393</ele>
        <time>2022-05-22T06:37:19.935Z</time>
      </trkpt>
      <trkpt lat="42.221322" lon="1.718570">
        <ele>1326.974618</ele>
        <time>2022-05-22T06:37:25.937Z</time>
      </trkpt>
      <trkpt lat="42.221310" lon="1.718435">
        <ele>1327.575231</ele>
        <time>2022-05-22T06:37:31.947Z</time>
      </trkpt>
      <trkpt lat="42.221307" lon="1.718311">
        <ele>1328.123266</ele>
        <time>2022-05-22T06:37:37.936Z</time>
      </trkpt>
      <trkpt lat="42.221270" lon="1.718191">
        <ele>1328.697449</ele>
        <time>2022-05-22T06:37:42.937Z</time>
      </trkpt>
      <trkpt lat="42.221236" lon="1.718072">
        <ele>1329.441715</ele>
        <time>2022-05-22T06:37:48.940Z</time>
      </trkpt>
      <trkpt lat="42.221209" lon="1.717943">
        <ele>1330.321766</ele>
        <time>2022-05-22T06:37:54.945Z</time>
      </trkpt>
      <trkpt lat="42.221144" lon="1.717826">
        <ele>1331.281974</ele>
        <time>2022-05-22T06:38:00.942Z</time>
      </trkpt>
      <trkpt lat="42.221078" lon="1.717738">
        <ele>1332.104213</ele>
        <time>2022-05-22T06:38:04.935Z</time>
      </trkpt>
      <trkpt lat="42.220998" lon="1.717641">
        <ele>1333.057348</ele>
        <time>2022-05-22T06:38:09.943Z</time>
      </trkpt>
      <trkpt lat="42.220905" lon="1.717579">
        <ele>1333.976784</ele>
        <time>2022-05-22T06:38:14.932Z</time>
      </trkpt>
      <trkpt lat="42.220813" lon="1.717535">
        <ele>1334.841996</ele>
        <time>2022-05-22T06:38:18.930Z</time>
      </trkpt>
      <trkpt lat="42.220712" lon="1.717497">
        <ele>1335.771453</ele>
        <time>2022-05-22T06:38:23.937Z</time>
      </trkpt>
      <trkpt lat="42.220622" lon="1.717500">
        <ele>1336.569535</ele>
        <time>2022-05-22T06:38:28.934Z</time>
      </trkpt>
      <trkpt lat="42.220532" lon="1.717513">
        <ele>1337.371926</ele>
        <time>2022-05-22T06:38:33.935Z</time>
      </trkpt>
      <trkpt lat="42.220431" lon="1.717558">
        <ele>1338.314758</ele>
        <time>2022-05-22T06:38:39.928Z</time>
      </trkpt>
      <trkpt lat="42.220335" lon="1.717608">
        <ele>1339.226897</ele>
        <time>2022-05-22T06:38:45.934Z</time>
      </trkpt>
      <trkpt lat="42.220242" lon="1.717673">
        <ele>1340.155222</ele>
        <time>2022-05-22T06:38:51.933Z</time>
      </trkpt>
      <trkpt lat="42.220164" lon="1.717736">
        <ele>1340.960940</ele>
        <time>2022-05-22T06:38:56.935Z</time>
      </trkpt>
      <trkpt lat="42.220078" lon="1.717823">
        <ele>1341.913539</ele>
        <time>2022-05-22T06:39:01.932Z</time>
      </trkpt>
      <trkpt lat="42.220011" lon="1.717911">
        <ele>1342.742116</ele>
        <time>2022-05-22T06:39:05.946Z</time>
      </trkpt>
      <trkpt lat="42.219947" lon="1.718006">
        <ele>1343.585245</ele>
        <time>2022-05-22T06:39:10.933Z</time>
      </trkpt>
      <trkpt lat="42.219878" lon="1.718100">
        <ele>1344.454141</ele>
        <time>2022-05-22T06:39:15.936Z</time>
      </trkpt>
      <trkpt lat="42.219825" lon="1.718199">
        <ele>1345.139825</ele>
        <time>2022-05-22T06:39:19.947Z</time>
      </trkpt>
      <trkpt lat="42.219736" lon="1.718293">
        <ele>1345.865738</ele>
        <time>2022-05-22T06:39:24.942Z</time>
      </trkpt>
      <trkpt lat="42.219671" lon="1.718394">
        <ele>1346.502370</ele>
        <time>2022-05-22T06:39:29.935Z</time>
      </trkpt>
      <trkpt lat="42.219597" lon="1.718478">
        <ele>1347.123451</ele>
        <time>2022-05-22T06:39:34.929Z</time>
      </trkpt>
      <trkpt lat="42.219523" lon="1.718561">
        <ele>1347.741482</ele>
        <time>2022-05-22T06:39:39.930Z</time>
      </trkpt>
      <trkpt lat="42.219452" lon="1.718645">
        <ele>1348.347937</ele>
        <time>2022-05-22T06:39:44.926Z</time>
      </trkpt>
      <trkpt lat="42.219378" lon="1.718733">
        <ele>1348.981433</ele>
        <time>2022-05-22T06:39:49.930Z</time>
      </trkpt>
      <trkpt lat="42.219305" lon="1.718811">
        <ele>1349.579491</ele>
        <time>2022-05-22T06:39:54.935Z</time>
      </trkpt>
      <trkpt lat="42.219227" lon="1.718902">
        <ele>1350.241736</ele>
        <time>2022-05-22T06:39:59.925Z</time>
      </trkpt>
      <trkpt lat="42.219158" lon="1.719009">
        <ele>1350.916775</ele>
        <time>2022-05-22T06:40:05.927Z</time>
      </trkpt>
      <trkpt lat="42.219109" lon="1.719113">
        <ele>1351.503241</ele>
        <time>2022-05-22T06:40:10.937Z</time>
      </trkpt>
      <trkpt lat="42.219028" lon="1.719204">
        <ele>1352.180188</ele>
        <time>2022-05-22T06:40:15.924Z</time>
      </trkpt>
      <trkpt lat="42.218947" lon="1.719291">
        <ele>1352.845124</ele>
        <time>2022-05-22T06:40:20.932Z</time>
      </trkpt>
      <trkpt lat="42.218874" lon="1.719396">
        <ele>1353.530344</ele>
        <time>2022-05-22T06:40:26.920Z</time>
      </trkpt>
      <trkpt lat="42.218796" lon="1.719486">
        <ele>1354.189490</ele>
        <time>2022-05-22T06:40:31.924Z</time>
      </trkpt>
      <trkpt lat="42.218728" lon="1.719584">
        <ele>1354.828443</ele>
        <time>2022-05-22T06:40:36.926Z</time>
      </trkpt>
      <trkpt lat="42.218642" lon="1.719650">
        <ele>1355.463952</ele>
        <time>2022-05-22T06:40:41.925Z</time>
      </trkpt>
      <trkpt lat="42.218549" lon="1.719707">
        <ele>1356.120099</ele>
        <time>2022-05-22T06:40:46.932Z</time>
      </trkpt>
      <trkpt lat="42.218458" lon="1.719757">
        <ele>1356.811666</ele>
        <time>2022-05-22T06:40:51.929Z</time>
      </trkpt>
      <trkpt lat="42.218366" lon="1.719787">
        <ele>1357.521077</ele>
        <time>2022-05-22T06:40:56.938Z</time>
      </trkpt>
      <trkpt lat="42.218279" lon="1.719822">
        <ele>1358.201515</ele>
        <time>2022-05-22T06:41:02.930Z</time>
      </trkpt>
      <trkpt lat="42.218181" lon="1.719798">
        <ele>1358.948059</ele>
        <time>2022-05-22T06:41:08.929Z</time>
      </trkpt>
      <trkpt lat="42.218086" lon="1.719757">
        <ele>1359.695622</ele>
        <time>2022-05-22T06:41:13.928Z</time>
      </trkpt>
      <trkpt lat="42.217993" lon="1.719702">
        <ele>1360.456634</ele>
        <time>2022-05-22T06:41:18.938Z</time>
      </trkpt>
      <trkpt lat="42.217906" lon="1.719653">
        <ele>1361.163199</ele>
        <time>2022-05-22T06:41:22.932Z</time>
      </trkpt>
      <trkpt lat="42.217805" lon="1.719596">
        <ele>1361.983711</ele>
        <time>2022-05-22T06:41:26.941Z</time>
      </trkpt>
      <trkpt lat="42.217716" lon="1.719543">
        <ele>1362.712809</ele>
        <time>2022-05-22T06:41:29.938Z</time>
      </trkpt>
      <trkpt lat="42.217621" lon="1.719501">
        <ele>1363.462080</ele>
        <time>2022-05-22T06:41:32.943Z</time>
      </trkpt>
      <trkpt lat="42.217533" lon="1.719447">
        <ele>1364.186606</ele>
        <time>2022-05-22T06:41:35.941Z</time>
      </trkpt>
      <trkpt lat="42.217435" lon="1.719384">
        <ele>1365.000170</ele>
        <time>2022-05-22T06:41:38.932Z</time>
      </trkpt>
      <trkpt lat="42.217343" lon="1.719323">
        <ele>1365.768412</ele>
        <time>2022-05-22T06:41:41.928Z</time>
      </trkpt>
      <trkpt lat="42.217237" lon="1.719261">
        <ele>1366.634279</ele>
        <time>2022-05-22T06:41:44.930Z</time>
      </trkpt>
      <trkpt lat="42.217124" lon="1.719188">
        <ele>1367.573222</ele>
        <time>2022-05-22T06:41:47.931Z</time>
      </trkpt>
      <trkpt lat="42.217007" lon="1.719118">
        <ele>1368.532432</ele>
        <time>2022-05-22T06:41:50.930Z</time>
      </trkpt>
      <trkpt lat="42.216925" lon="1.719056">
        <ele>1369.236868</ele>
        <time>2022-05-22T06:41:52.917Z</time>
      </trkpt>
      <trkpt lat="42.216805" lon="1.718957">
        <ele>1369.850764</ele>
        <time>2022-05-22T06:41:55.934Z</time>
      </trkpt>
      <trkpt lat="42.216726" lon="1.718884">
        <ele>1369.816569</ele>
        <time>2022-05-22T06:41:57.937Z</time>
      </trkpt>
      <trkpt lat="42.216666" lon="1.718790">
        <ele>1369.783740</ele>
        <time>2022-05-22T06:41:59.934Z</time>
      </trkpt>
      <trkpt lat="42.216589" lon="1.718647">
        <ele>1369.736968</ele>
        <time>2022-05-22T06:42:02.919Z</time>
      </trkpt>
      <trkpt lat="42.216531" lon="1.718506">
        <ele>1369.694299</ele>
        <time>2022-05-22T06:42:05.933Z</time>
      </trkpt>
      <trkpt lat="42.216475" lon="1.718346">
        <ele>1369.647482</ele>
        <time>2022-05-22T06:42:08.929Z</time>
      </trkpt>
      <trkpt lat="42.216422" lon="1.718169">
        <ele>1369.596974</ele>
        <time>2022-05-22T06:42:11.920Z</time>
      </trkpt>
      <trkpt lat="42.216382" lon="1.718033">
        <ele>1369.558262</ele>
        <time>2022-05-22T06:42:13.933Z</time>
      </trkpt>
      <trkpt lat="42.216334" lon="1.717879">
        <ele>1369.514060</ele>
        <time>2022-05-22T06:42:15.917Z</time>
      </trkpt>
      <trkpt lat="42.216276" lon="1.717707">
        <ele>1369.464063</ele>
        <time>2022-05-22T06:42:17.928Z</time>
      </trkpt>
      <trkpt lat="42.216219" lon="1.717531">
        <ele>1369.413245</ele>
        <time>2022-05-22T06:42:19.991Z</time>
      </trkpt>
      <trkpt lat="42.216163" lon="1.717340">
        <ele>1369.358900</ele>
        <time>2022-05-22T06:42:21.926Z</time>
      </trkpt>
      <trkpt lat="42.216096" lon="1.717167">
        <ele>1369.307252</ele>
        <time>2022-05-22T06:42:23.971Z</time>
      </trkpt>
      <trkpt lat="42.216036" lon="1.716973">
        <ele>1369.251634</ele>
        <time>2022-05-22T06:42:25.931Z</time>
      </trkpt>
      <trkpt lat="42.215968" lon="1.716759">
        <ele>1368.616254</ele>
        <time>2022-05-22T06:42:27.925Z</time>
      </trkpt>
      <trkpt lat="42.215921" lon="1.716655">
        <ele>1368.100815</ele>
        <time>2022-05-22T06:42:28.922Z</time>
      </trkpt>
      <trkpt lat="42.215876" lon="1.716550">
        <ele>1367.587576</ele>
        <time>2022-05-22T06:42:29.917Z</time>
      </trkpt>
      <trkpt lat="42.215828" lon="1.716445">
        <ele>1367.065542</ele>
        <time>2022-05-22T06:42:30.921Z</time>
      </trkpt>
      <trkpt lat="42.215722" lon="1.716261">
        <ele>1366.079319</ele>
        <time>2022-05-22T06:42:32.988Z</time>
      </trkpt>
      <trkpt lat="42.215625" lon="1.716058">
        <ele>1365.057246</ele>
        <time>2022-05-22T06:42:34.919Z</time>
      </trkpt>
      <trkpt lat="42.215576" lon="1.715954">
        <ele>1364.535763</ele>
        <time>2022-05-22T06:42:35.918Z</time>
      </trkpt>
      <trkpt lat="42.215519" lon="1.715848">
        <ele>1363.981566</ele>
        <time>2022-05-22T06:42:36.938Z</time>
      </trkpt>
      <trkpt lat="42.215465" lon="1.715735">
        <ele>1363.412612</ele>
        <time>2022-05-22T06:42:37.928Z</time>
      </trkpt>
      <trkpt lat="42.215418" lon="1.715621">
        <ele>1362.860615</ele>
        <time>2022-05-22T06:42:38.933Z</time>
      </trkpt>
      <trkpt lat="42.215376" lon="1.715503">
        <ele>1362.306728</ele>
        <time>2022-05-22T06:42:40.011Z</time>
      </trkpt>
      <trkpt lat="42.215340" lon="1.715380">
        <ele>1361.747186</ele>
        <time>2022-05-22T06:42:40.922Z</time>
      </trkpt>
      <trkpt lat="42.215306" lon="1.715258">
        <ele>1361.195702</ele>
        <time>2022-05-22T06:42:41.932Z</time>
      </trkpt>
      <trkpt lat="42.215276" lon="1.715134">
        <ele>1360.643807</ele>
        <time>2022-05-22T06:42:42.916Z</time>
      </trkpt>
      <trkpt lat="42.215253" lon="1.715005">
        <ele>1360.082448</ele>
        <time>2022-05-22T06:42:43.937Z</time>
      </trkpt>
      <trkpt lat="42.215231" lon="1.714872">
        <ele>1359.505894</ele>
        <time>2022-05-22T06:42:44.925Z</time>
      </trkpt>
      <trkpt lat="42.215201" lon="1.714744">
        <ele>1358.941731</ele>
        <time>2022-05-22T06:42:45.928Z</time>
      </trkpt>
      <trkpt lat="42.215171" lon="1.714616">
        <ele>1358.511557</ele>
        <time>2022-05-22T06:42:46.915Z</time>
      </trkpt>
      <trkpt lat="42.215134" lon="1.714489">
        <ele>1358.074283</ele>
        <time>2022-05-22T06:42:47.929Z</time>
      </trkpt>
      <trkpt lat="42.215100" lon="1.714369">
        <ele>1357.662613</ele>
        <time>2022-05-22T06:42:48.921Z</time>
      </trkpt>
      <trkpt lat="42.215064" lon="1.714248">
        <ele>1357.244801</ele>
        <time>2022-05-22T06:42:49.930Z</time>
      </trkpt>
      <trkpt lat="42.214998" lon="1.714031">
        <ele>1356.493160</ele>
        <time>2022-05-22T06:42:51.924Z</time>
      </trkpt>
      <trkpt lat="42.214933" lon="1.713843">
        <ele>1355.828380</ele>
        <time>2022-05-22T06:42:53.922Z</time>
      </trkpt>
      <trkpt lat="42.214869" lon="1.713658">
        <ele>1355.174139</ele>
        <time>2022-05-22T06:42:55.931Z</time>
      </trkpt>
      <trkpt lat="42.214807" lon="1.713502">
        <ele>1354.606873</ele>
        <time>2022-05-22T06:42:57.930Z</time>
      </trkpt>
      <trkpt lat="42.214773" lon="1.713343">
        <ele>1354.076605</ele>
        <time>2022-05-22T06:42:59.929Z</time>
      </trkpt>
      <trkpt lat="42.214730" lon="1.713192">
        <ele>1353.558249</ele>
        <time>2022-05-22T06:43:01.929Z</time>
      </trkpt>
      <trkpt lat="42.214696" lon="1.713038">
        <ele>1353.043354</ele>
        <time>2022-05-22T06:43:03.934Z</time>
      </trkpt>
      <trkpt lat="42.214659" lon="1.712884">
        <ele>1352.524602</ele>
        <time>2022-05-22T06:43:05.931Z</time>
      </trkpt>
      <trkpt lat="42.214640" lon="1.712749">
        <ele>1352.084302</ele>
        <time>2022-05-22T06:43:07.929Z</time>
      </trkpt>
      <trkpt lat="42.214604" lon="1.712595">
        <ele>1351.566868</ele>
        <time>2022-05-22T06:43:09.931Z</time>
      </trkpt>
      <trkpt lat="42.214563" lon="1.712436">
        <ele>1350.947421</ele>
        <time>2022-05-22T06:43:11.926Z</time>
      </trkpt>
      <trkpt lat="42.214522" lon="1.712267">
        <ele>1350.063193</ele>
        <time>2022-05-22T06:43:13.917Z</time>
      </trkpt>
      <trkpt lat="42.214474" lon="1.712096">
        <ele>1349.153935</ele>
        <time>2022-05-22T06:43:15.932Z</time>
      </trkpt>
      <trkpt lat="42.214421" lon="1.711918">
        <ele>1348.200045</ele>
        <time>2022-05-22T06:43:17.935Z</time>
      </trkpt>
      <trkpt lat="42.214351" lon="1.711724">
        <ele>1347.127059</ele>
        <time>2022-05-22T06:43:19.930Z</time>
      </trkpt>
      <trkpt lat="42.214266" lon="1.711515">
        <ele>1345.941506</ele>
        <time>2022-05-22T06:43:21.934Z</time>
      </trkpt>
      <trkpt lat="42.214220" lon="1.711405">
        <ele>1345.313405</ele>
        <time>2022-05-22T06:43:22.931Z</time>
      </trkpt>
      <trkpt lat="42.214180" lon="1.711289">
        <ele>1344.677182</ele>
        <time>2022-05-22T06:43:23.929Z</time>
      </trkpt>
      <trkpt lat="42.214140" lon="1.711168">
        <ele>1344.018337</ele>
        <time>2022-05-22T06:43:24.932Z</time>
      </trkpt>
      <trkpt lat="42.214100" lon="1.711045">
        <ele>1343.350399</ele>
        <time>2022-05-22T06:43:25.929Z</time>
      </trkpt>
      <trkpt lat="42.214063" lon="1.710919">
        <ele>1342.676456</ele>
        <time>2022-05-22T06:43:26.940Z</time>
      </trkpt>
      <trkpt lat="42.214030" lon="1.710792">
        <ele>1342.007252</ele>
        <time>2022-05-22T06:43:27.923Z</time>
      </trkpt>
      <trkpt lat="42.214003" lon="1.710656">
        <ele>1341.307160</ele>
        <time>2022-05-22T06:43:28.930Z</time>
      </trkpt>
      <trkpt lat="42.213988" lon="1.710524">
        <ele>1340.643148</ele>
        <time>2022-05-22T06:43:29.929Z</time>
      </trkpt>
      <trkpt lat="42.213971" lon="1.710394">
        <ele>1339.986763</ele>
        <time>2022-05-22T06:43:30.928Z</time>
      </trkpt>
      <trkpt lat="42.213958" lon="1.710262">
        <ele>1339.324654</ele>
        <time>2022-05-22T06:43:31.933Z</time>
      </trkpt>
      <trkpt lat="42.213943" lon="1.710128">
        <ele>1339.227535</ele>
        <time>2022-05-22T06:43:32.933Z</time>
      </trkpt>
      <trkpt lat="42.213933" lon="1.709989">
        <ele>1339.429889</ele>
        <time>2022-05-22T06:43:33.934Z</time>
      </trkpt>
      <trkpt lat="42.213927" lon="1.709846">
        <ele>1339.637424</ele>
        <time>2022-05-22T06:43:34.932Z</time>
      </trkpt>
      <trkpt lat="42.213929" lon="1.709708">
        <ele>1339.837420</ele>
        <time>2022-05-22T06:43:35.932Z</time>
      </trkpt>
      <trkpt lat="42.213932" lon="1.709575">
        <ele>1340.030222</ele>
        <time>2022-05-22T06:43:36.940Z</time>
      </trkpt>
      <trkpt lat="42.213940" lon="1.709448">
        <ele>1340.214906</ele>
        <time>2022-05-22T06:43:37.927Z</time>
      </trkpt>
      <trkpt lat="42.213953" lon="1.709207">
        <ele>1340.565032</ele>
        <time>2022-05-22T06:43:39.931Z</time>
      </trkpt>
      <trkpt lat="42.213967" lon="1.708996">
        <ele>1340.871989</ele>
        <time>2022-05-22T06:43:41.931Z</time>
      </trkpt>
      <trkpt lat="42.214005" lon="1.708811">
        <ele>1341.150166</ele>
        <time>2022-05-22T06:43:43.930Z</time>
      </trkpt>
      <trkpt lat="42.214046" lon="1.708644">
        <ele>1341.405091</ele>
        <time>2022-05-22T06:43:45.931Z</time>
      </trkpt>
      <trkpt lat="42.214086" lon="1.708497">
        <ele>1341.632009</ele>
        <time>2022-05-22T06:43:47.924Z</time>
      </trkpt>
      <trkpt lat="42.214139" lon="1.708368">
        <ele>1341.845759</ele>
        <time>2022-05-22T06:43:49.950Z</time>
      </trkpt>
      <trkpt lat="42.214197" lon="1.708262">
        <ele>1342.036718</ele>
        <time>2022-05-22T06:43:51.923Z</time>
      </trkpt>
      <trkpt lat="42.214242" lon="1.708152">
        <ele>1342.218801</ele>
        <time>2022-05-22T06:43:54.926Z</time>
      </trkpt>
      <trkpt lat="42.214267" lon="1.708022">
        <ele>1342.413412</ele>
        <time>2022-05-22T06:43:59.077Z</time>
      </trkpt>
      <trkpt lat="42.214280" lon="1.707873">
        <ele>1342.649019</ele>
        <time>2022-05-22T06:44:03.914Z</time>
      </trkpt>
      <trkpt lat="42.214275" lon="1.707746">
        <ele>1343.063362</ele>
        <time>2022-05-22T06:44:07.924Z</time>
      </trkpt>
      <trkpt lat="42.214276" lon="1.707623">
        <ele>1343.464113</ele>
        <time>2022-05-22T06:44:11.926Z</time>
      </trkpt>
      <trkpt lat="42.214310" lon="1.707480">
        <ele>1343.953417</ele>
        <time>2022-05-22T06:44:16.923Z</time>
      </trkpt>
      <trkpt lat="42.214333" lon="1.707333">
        <ele>1344.442904</ele>
        <time>2022-05-22T06:44:21.926Z</time>
      </trkpt>
      <trkpt lat="42.214351" lon="1.707204">
        <ele>1344.870572</ele>
        <time>2022-05-22T06:44:25.923Z</time>
      </trkpt>
      <trkpt lat="42.214358" lon="1.707058">
        <ele>1345.347227</ele>
        <time>2022-05-22T06:44:29.928Z</time>
      </trkpt>
      <trkpt lat="42.214348" lon="1.706926">
        <ele>1345.779519</ele>
        <time>2022-05-22T06:44:33.932Z</time>
      </trkpt>
      <trkpt lat="42.214355" lon="1.706801">
        <ele>1346.187924</ele>
        <time>2022-05-22T06:44:37.928Z</time>
      </trkpt>
      <trkpt lat="42.214343" lon="1.706662">
        <ele>1346.643843</ele>
        <time>2022-05-22T06:44:41.924Z</time>
      </trkpt>
      <trkpt lat="42.214359" lon="1.706531">
        <ele>1347.076398</ele>
        <time>2022-05-22T06:44:45.929Z</time>
      </trkpt>
      <trkpt lat="42.214341" lon="1.706387">
        <ele>1347.552176</ele>
        <time>2022-05-22T06:44:51.916Z</time>
      </trkpt>
      <trkpt lat="42.214304" lon="1.706271">
        <ele>1347.963654</ele>
        <time>2022-05-22T06:44:56.921Z</time>
      </trkpt>
      <trkpt lat="42.214309" lon="1.706129">
        <ele>1348.426805</ele>
        <time>2022-05-22T06:45:02.929Z</time>
      </trkpt>
      <trkpt lat="42.214321" lon="1.705996">
        <ele>1348.863314</ele>
        <time>2022-05-22T06:45:07.931Z</time>
      </trkpt>
      <trkpt lat="42.214323" lon="1.705858">
        <ele>1349.312996</ele>
        <time>2022-05-22T06:45:13.929Z</time>
      </trkpt>
      <trkpt lat="42.214318" lon="1.705732">
        <ele>1349.724086</ele>
        <time>2022-05-22T06:45:18.925Z</time>
      </trkpt>
      <trkpt lat="42.214313" lon="1.705610">
        <ele>1350.122163</ele>
        <time>2022-05-22T06:45:23.928Z</time>
      </trkpt>
      <trkpt lat="42.214291" lon="1.705474">
        <ele>1350.586638</ele>
        <time>2022-05-22T06:45:29.919Z</time>
      </trkpt>
      <trkpt lat="42.214272" lon="1.705354">
        <ele>1351.078513</ele>
        <time>2022-05-22T06:45:34.924Z</time>
      </trkpt>
      <trkpt lat="42.214241" lon="1.705225">
        <ele>1351.622133</ele>
        <time>2022-05-22T06:45:39.934Z</time>
      </trkpt>
      <trkpt lat="42.214202" lon="1.705111">
        <ele>1352.125482</ele>
        <time>2022-05-22T06:45:44.933Z</time>
      </trkpt>
      <trkpt lat="42.214201" lon="1.704979">
        <ele>1352.654618</ele>
        <time>2022-05-22T06:45:49.925Z</time>
      </trkpt>
      <trkpt lat="42.214194" lon="1.704851">
        <ele>1353.169089</ele>
        <time>2022-05-22T06:45:53.929Z</time>
      </trkpt>
      <trkpt lat="42.214205" lon="1.704703">
        <ele>1353.765310</ele>
        <time>2022-05-22T06:45:59.927Z</time>
      </trkpt>
      <trkpt lat="42.214216" lon="1.704575">
        <ele>1354.281827</ele>
        <time>2022-05-22T06:46:04.925Z</time>
      </trkpt>
      <trkpt lat="42.214224" lon="1.704442">
        <ele>1354.816698</ele>
        <time>2022-05-22T06:46:10.934Z</time>
      </trkpt>
      <trkpt lat="42.214239" lon="1.704318">
        <ele>1355.320324</ele>
        <time>2022-05-22T06:46:16.932Z</time>
      </trkpt>
      <trkpt lat="42.214216" lon="1.704175">
        <ele>1355.906885</ele>
        <time>2022-05-22T06:46:22.922Z</time>
      </trkpt>
      <trkpt lat="42.214203" lon="1.704046">
        <ele>1356.428732</ele>
        <time>2022-05-22T06:46:27.937Z</time>
      </trkpt>
      <trkpt lat="42.214228" lon="1.703913">
        <ele>1356.978749</ele>
        <time>2022-05-22T06:46:33.930Z</time>
      </trkpt>
      <trkpt lat="42.214215" lon="1.703777">
        <ele>1357.528412</ele>
        <time>2022-05-22T06:46:38.929Z</time>
      </trkpt>
      <trkpt lat="42.214205" lon="1.703657">
        <ele>1358.012454</ele>
        <time>2022-05-22T06:46:43.939Z</time>
      </trkpt>
      <trkpt lat="42.214166" lon="1.703538">
        <ele>1358.534066</ele>
        <time>2022-05-22T06:46:49.927Z</time>
      </trkpt>
      <trkpt lat="42.214129" lon="1.703424">
        <ele>1359.032973</ele>
        <time>2022-05-22T06:46:54.933Z</time>
      </trkpt>
      <trkpt lat="42.214126" lon="1.703282">
        <ele>1359.602397</ele>
        <time>2022-05-22T06:46:59.925Z</time>
      </trkpt>
      <trkpt lat="42.214093" lon="1.703156">
        <ele>1360.138103</ele>
        <time>2022-05-22T06:47:05.925Z</time>
      </trkpt>
      <trkpt lat="42.214076" lon="1.703025">
        <ele>1360.714230</ele>
        <time>2022-05-22T06:47:11.925Z</time>
      </trkpt>
      <trkpt lat="42.214056" lon="1.702888">
        <ele>1361.332880</ele>
        <time>2022-05-22T06:47:17.932Z</time>
      </trkpt>
      <trkpt lat="42.214015" lon="1.702777">
        <ele>1361.882424</ele>
        <time>2022-05-22T06:47:21.929Z</time>
      </trkpt>
      <trkpt lat="42.214020" lon="1.702644">
        <ele>1362.472432</ele>
        <time>2022-05-22T06:47:26.933Z</time>
      </trkpt>
      <trkpt lat="42.214000" lon="1.702508">
        <ele>1363.086736</ele>
        <time>2022-05-22T06:47:32.927Z</time>
      </trkpt>
      <trkpt lat="42.213999" lon="1.702382">
        <ele>1363.645005</ele>
        <time>2022-05-22T06:47:38.930Z</time>
      </trkpt>
      <trkpt lat="42.214041" lon="1.702274">
        <ele>1364.185442</ele>
        <time>2022-05-22T06:47:42.924Z</time>
      </trkpt>
      <trkpt lat="42.214047" lon="1.702143">
        <ele>1364.766940</ele>
        <time>2022-05-22T06:47:47.938Z</time>
      </trkpt>
      <trkpt lat="42.214042" lon="1.701994">
        <ele>1365.427753</ele>
        <time>2022-05-22T06:47:52.924Z</time>
      </trkpt>
      <trkpt lat="42.214069" lon="1.701855">
        <ele>1366.064413</ele>
        <time>2022-05-22T06:47:57.929Z</time>
      </trkpt>
      <trkpt lat="42.214101" lon="1.701730">
        <ele>1366.650367</ele>
        <time>2022-05-22T06:48:02.929Z</time>
      </trkpt>
      <trkpt lat="42.214082" lon="1.701611">
        <ele>1367.189702</ele>
        <time>2022-05-22T06:48:07.933Z</time>
      </trkpt>
      <trkpt lat="42.214117" lon="1.701472">
        <ele>1367.840150</ele>
        <time>2022-05-22T06:48:12.934Z</time>
      </trkpt>
      <trkpt lat="42.214120" lon="1.701320">
        <ele>1368.513816</ele>
        <time>2022-05-22T06:48:17.925Z</time>
      </trkpt>
      <trkpt lat="42.214116" lon="1.701185">
        <ele>1369.112404</ele>
        <time>2022-05-22T06:48:21.934Z</time>
      </trkpt>
      <trkpt lat="42.214118" lon="1.701062">
        <ele>1369.657480</ele>
        <time>2022-05-22T06:48:24.926Z</time>
      </trkpt>
      <trkpt lat="42.214130" lon="1.700923">
        <ele>1370.277480</ele>
        <time>2022-05-22T06:48:27.923Z</time>
      </trkpt>
      <trkpt lat="42.214132" lon="1.700764">
        <ele>1370.982022</ele>
        <time>2022-05-22T06:48:30.943Z</time>
      </trkpt>
      <trkpt lat="42.214140" lon="1.700602">
        <ele>1371.285521</ele>
        <time>2022-05-22T06:48:33.931Z</time>
      </trkpt>
      <trkpt lat="42.214189" lon="1.700478">
        <ele>1371.527126</ele>
        <time>2022-05-22T06:48:35.926Z</time>
      </trkpt>
      <trkpt lat="42.214203" lon="1.700354">
        <ele>1371.742750</ele>
        <time>2022-05-22T06:48:37.921Z</time>
      </trkpt>
      <trkpt lat="42.214276" lon="1.700227">
        <ele>1372.019103</ele>
        <time>2022-05-22T06:48:40.931Z</time>
      </trkpt>
      <trkpt lat="42.214347" lon="1.700150">
        <ele>1372.230474</ele>
        <time>2022-05-22T06:48:42.920Z</time>
      </trkpt>
      <trkpt lat="42.214430" lon="1.700072">
        <ele>1372.465190</ele>
        <time>2022-05-22T06:48:44.929Z</time>
      </trkpt>
      <trkpt lat="42.214508" lon="1.699993">
        <ele>1372.691504</ele>
        <time>2022-05-22T06:48:46.938Z</time>
      </trkpt>
      <trkpt lat="42.214583" lon="1.699923">
        <ele>1372.903124</ele>
        <time>2022-05-22T06:48:48.922Z</time>
      </trkpt>
      <trkpt lat="42.214693" lon="1.699853">
        <ele>1373.185374</ele>
        <time>2022-05-22T06:48:51.934Z</time>
      </trkpt>
      <trkpt lat="42.214802" lon="1.699809">
        <ele>1373.449431</ele>
        <time>2022-05-22T06:48:54.924Z</time>
      </trkpt>
      <trkpt lat="42.214912" lon="1.699773">
        <ele>1373.712138</ele>
        <time>2022-05-22T06:48:58.922Z</time>
      </trkpt>
      <trkpt lat="42.214998" lon="1.699858">
        <ele>1373.959512</ele>
        <time>2022-05-22T06:49:05.924Z</time>
      </trkpt>
      <trkpt lat="42.215115" lon="1.699888">
        <ele>1374.235926</ele>
        <time>2022-05-22T06:49:11.923Z</time>
      </trkpt>
      <trkpt lat="42.215211" lon="1.699906">
        <ele>1374.460883</ele>
        <time>2022-05-22T06:49:15.925Z</time>
      </trkpt>
      <trkpt lat="42.215299" lon="1.699969">
        <ele>1374.692069</ele>
        <time>2022-05-22T06:49:19.946Z</time>
      </trkpt>
      <trkpt lat="42.215379" lon="1.700026">
        <ele>1374.902019</ele>
        <time>2022-05-22T06:49:24.928Z</time>
      </trkpt>
      <trkpt lat="42.215463" lon="1.700074">
        <ele>1375.113727</ele>
        <time>2022-05-22T06:49:28.935Z</time>
      </trkpt>
      <trkpt lat="42.215569" lon="1.700130">
        <ele>1375.281251</ele>
        <time>2022-05-22T06:49:34.928Z</time>
      </trkpt>
      <trkpt lat="42.215666" lon="1.700194">
        <ele>1375.398244</ele>
        <time>2022-05-22T06:49:38.933Z</time>
      </trkpt>
      <trkpt lat="42.215764" lon="1.700268">
        <ele>1375.519920</ele>
        <time>2022-05-22T06:49:42.930Z</time>
      </trkpt>
      <trkpt lat="42.215842" lon="1.700336">
        <ele>1375.620532</ele>
        <time>2022-05-22T06:49:45.932Z</time>
      </trkpt>
      <trkpt lat="42.215923" lon="1.700410">
        <ele>1375.726511</ele>
        <time>2022-05-22T06:49:48.929Z</time>
      </trkpt>
      <trkpt lat="42.216006" lon="1.700496">
        <ele>1375.839885</ele>
        <time>2022-05-22T06:49:52.932Z</time>
      </trkpt>
      <trkpt lat="42.216089" lon="1.700586">
        <ele>1375.955241</ele>
        <time>2022-05-22T06:49:56.927Z</time>
      </trkpt>
      <trkpt lat="42.216171" lon="1.700648">
        <ele>1376.057083</ele>
        <time>2022-05-22T06:49:59.923Z</time>
      </trkpt>
      <trkpt lat="42.216266" lon="1.700723">
        <ele>1376.176335</ele>
        <time>2022-05-22T06:50:02.935Z</time>
      </trkpt>
      <trkpt lat="42.216364" lon="1.700789">
        <ele>1376.295010</ele>
        <time>2022-05-22T06:50:05.930Z</time>
      </trkpt>
      <trkpt lat="42.216494" lon="1.700875">
        <ele>1376.451883</ele>
        <time>2022-05-22T06:50:08.928Z</time>
      </trkpt>
      <trkpt lat="42.216596" lon="1.700938">
        <ele>1376.573430</ele>
        <time>2022-05-22T06:50:10.920Z</time>
      </trkpt>
      <trkpt lat="42.216705" lon="1.700986">
        <ele>1376.697671</ele>
        <time>2022-05-22T06:50:12.930Z</time>
      </trkpt>
      <trkpt lat="42.216804" lon="1.701014">
        <ele>1376.807280</ele>
        <time>2022-05-22T06:50:14.926Z</time>
      </trkpt>
      <trkpt lat="42.216905" lon="1.701010">
        <ele>1376.916776</ele>
        <time>2022-05-22T06:50:16.929Z</time>
      </trkpt>
      <trkpt lat="42.217002" lon="1.700988">
        <ele>1377.023362</ele>
        <time>2022-05-22T06:50:18.929Z</time>
      </trkpt>
      <trkpt lat="42.217108" lon="1.700916">
        <ele>1377.148955</ele>
        <time>2022-05-22T06:50:21.931Z</time>
      </trkpt>
      <trkpt lat="42.217214" lon="1.700832">
        <ele>1377.218528</ele>
        <time>2022-05-22T06:50:24.930Z</time>
      </trkpt>
      <trkpt lat="42.217311" lon="1.700736">
        <ele>1377.286606</ele>
        <time>2022-05-22T06:50:27.928Z</time>
      </trkpt>
      <trkpt lat="42.217397" lon="1.700658">
        <ele>1377.345250</ele>
        <time>2022-05-22T06:50:30.926Z</time>
      </trkpt>
      <trkpt lat="42.217469" lon="1.700582">
        <ele>1377.396982</ele>
        <time>2022-05-22T06:50:33.927Z</time>
      </trkpt>
      <trkpt lat="42.217531" lon="1.700476">
        <ele>1377.453608</ele>
        <time>2022-05-22T06:50:36.927Z</time>
      </trkpt>
      <trkpt lat="42.217592" lon="1.700356">
        <ele>1377.514625</ele>
        <time>2022-05-22T06:50:39.931Z</time>
      </trkpt>
      <trkpt lat="42.217645" lon="1.700245">
        <ele>1377.569991</ele>
        <time>2022-05-22T06:50:41.928Z</time>
      </trkpt>
      <trkpt lat="42.217682" lon="1.700128">
        <ele>1377.623325</ele>
        <time>2022-05-22T06:50:43.928Z</time>
      </trkpt>
      <trkpt lat="42.217738" lon="1.699966">
        <ele>1377.698273</ele>
        <time>2022-05-22T06:50:46.931Z</time>
      </trkpt>
      <trkpt lat="42.217789" lon="1.699807">
        <ele>1377.770912</ele>
        <time>2022-05-22T06:50:49.925Z</time>
      </trkpt>
      <trkpt lat="42.217823" lon="1.699686">
        <ele>1377.825167</ele>
        <time>2022-05-22T06:50:51.925Z</time>
      </trkpt>
      <trkpt lat="42.217847" lon="1.699525">
        <ele>1377.894015</ele>
        <time>2022-05-22T06:50:53.925Z</time>
      </trkpt>
      <trkpt lat="42.217869" lon="1.699341">
        <ele>1377.972151</ele>
        <time>2022-05-22T06:50:55.924Z</time>
      </trkpt>
      <trkpt lat="42.217886" lon="1.699138">
        <ele>1378.057795</ele>
        <time>2022-05-22T06:50:57.926Z</time>
      </trkpt>
      <trkpt lat="42.217887" lon="1.699010">
        <ele>1378.111458</ele>
        <time>2022-05-22T06:50:58.924Z</time>
      </trkpt>
      <trkpt lat="42.217886" lon="1.698765">
        <ele>1378.011304</ele>
        <time>2022-05-22T06:51:00.919Z</time>
      </trkpt>
      <trkpt lat="42.217879" lon="1.698637">
        <ele>1377.848278</ele>
        <time>2022-05-22T06:51:01.924Z</time>
      </trkpt>
      <trkpt lat="42.217870" lon="1.698499">
        <ele>1377.672314</ele>
        <time>2022-05-22T06:51:02.918Z</time>
      </trkpt>
      <trkpt lat="42.217858" lon="1.698360">
        <ele>1377.494564</ele>
        <time>2022-05-22T06:51:03.918Z</time>
      </trkpt>
      <trkpt lat="42.217849" lon="1.698222">
        <ele>1377.318600</ele>
        <time>2022-05-22T06:51:04.922Z</time>
      </trkpt>
      <trkpt lat="42.217834" lon="1.698089">
        <ele>1377.147719</ele>
        <time>2022-05-22T06:51:05.930Z</time>
      </trkpt>
      <trkpt lat="42.217815" lon="1.697948">
        <ele>1376.965682</ele>
        <time>2022-05-22T06:51:06.921Z</time>
      </trkpt>
      <trkpt lat="42.217796" lon="1.697805">
        <ele>1376.781146</ele>
        <time>2022-05-22T06:51:07.922Z</time>
      </trkpt>
      <trkpt lat="42.217777" lon="1.697673">
        <ele>1376.610345</ele>
        <time>2022-05-22T06:51:08.924Z</time>
      </trkpt>
      <trkpt lat="42.217759" lon="1.697533">
        <ele>1376.429859</ele>
        <time>2022-05-22T06:51:09.921Z</time>
      </trkpt>
      <trkpt lat="42.217746" lon="1.697408">
        <ele>1376.269529</ele>
        <time>2022-05-22T06:51:10.918Z</time>
      </trkpt>
      <trkpt lat="42.217734" lon="1.697279">
        <ele>1376.104387</ele>
        <time>2022-05-22T06:51:11.917Z</time>
      </trkpt>
      <trkpt lat="42.217725" lon="1.697150">
        <ele>1375.939808</ele>
        <time>2022-05-22T06:51:12.919Z</time>
      </trkpt>
      <trkpt lat="42.217722" lon="1.697025">
        <ele>1375.780952</ele>
        <time>2022-05-22T06:51:13.918Z</time>
      </trkpt>
      <trkpt lat="42.217745" lon="1.696807">
        <ele>1375.501256</ele>
        <time>2022-05-22T06:51:15.909Z</time>
      </trkpt>
      <trkpt lat="42.217786" lon="1.696630">
        <ele>1375.265693</ele>
        <time>2022-05-22T06:51:17.913Z</time>
      </trkpt>
      <trkpt lat="42.217848" lon="1.696510">
        <ele>1375.079845</ele>
        <time>2022-05-22T06:51:19.924Z</time>
      </trkpt>
      <trkpt lat="42.217922" lon="1.696423">
        <ele>1375.254123</ele>
        <time>2022-05-22T06:51:21.927Z</time>
      </trkpt>
      <trkpt lat="42.218036" lon="1.696369">
        <ele>1375.470812</ele>
        <time>2022-05-22T06:51:24.925Z</time>
      </trkpt>
      <trkpt lat="42.218129" lon="1.696339">
        <ele>1375.642313</ele>
        <time>2022-05-22T06:51:27.927Z</time>
      </trkpt>
      <trkpt lat="42.218218" lon="1.696316">
        <ele>1375.804843</ele>
        <time>2022-05-22T06:51:30.934Z</time>
      </trkpt>
      <trkpt lat="42.218314" lon="1.696258">
        <ele>1375.993481</ele>
        <time>2022-05-22T06:51:34.930Z</time>
      </trkpt>
      <trkpt lat="42.218393" lon="1.696196">
        <ele>1376.157373</ele>
        <time>2022-05-22T06:51:38.932Z</time>
      </trkpt>
      <trkpt lat="42.218477" lon="1.696100">
        <ele>1376.354758</ele>
        <time>2022-05-22T06:51:43.924Z</time>
      </trkpt>
      <trkpt lat="42.218550" lon="1.696004">
        <ele>1376.537529</ele>
        <time>2022-05-22T06:51:47.925Z</time>
      </trkpt>
      <trkpt lat="42.218623" lon="1.695931">
        <ele>1376.700461</ele>
        <time>2022-05-22T06:51:50.936Z</time>
      </trkpt>
      <trkpt lat="42.218696" lon="1.695832">
        <ele>1376.886034</ele>
        <time>2022-05-22T06:51:54.934Z</time>
      </trkpt>
      <trkpt lat="42.218745" lon="1.695713">
        <ele>1377.066895</ele>
        <time>2022-05-22T06:51:58.932Z</time>
      </trkpt>
      <trkpt lat="42.218795" lon="1.695585">
        <ele>1377.259123</ele>
        <time>2022-05-22T06:52:02.940Z</time>
      </trkpt>
      <trkpt lat="42.218790" lon="1.695443">
        <ele>1377.447959</ele>
        <time>2022-05-22T06:52:07.932Z</time>
      </trkpt>
      <trkpt lat="42.218819" lon="1.695327">
        <ele>1377.610587</ele>
        <time>2022-05-22T06:52:11.929Z</time>
      </trkpt>
      <trkpt lat="42.218862" lon="1.695217">
        <ele>1377.775809</ele>
        <time>2022-05-22T06:52:16.925Z</time>
      </trkpt>
      <trkpt lat="42.218819" lon="1.695093">
        <ele>1377.957684</ele>
        <time>2022-05-22T06:52:22.934Z</time>
      </trkpt>
      <trkpt lat="42.218769" lon="1.694972">
        <ele>1378.141739</ele>
        <time>2022-05-22T06:52:26.931Z</time>
      </trkpt>
      <trkpt lat="42.218720" lon="1.694860">
        <ele>1378.329450</ele>
        <time>2022-05-22T06:52:31.926Z</time>
      </trkpt>
      <trkpt lat="42.218670" lon="1.694732">
        <ele>1378.825526</ele>
        <time>2022-05-22T06:52:36.930Z</time>
      </trkpt>
      <trkpt lat="42.218633" lon="1.694595">
        <ele>1379.325413</ele>
        <time>2022-05-22T06:52:41.929Z</time>
      </trkpt>
      <trkpt lat="42.218611" lon="1.694465">
        <ele>1379.782537</ele>
        <time>2022-05-22T06:52:46.931Z</time>
      </trkpt>
      <trkpt lat="42.218600" lon="1.694334">
        <ele>1380.234479</ele>
        <time>2022-05-22T06:52:52.936Z</time>
      </trkpt>
      <trkpt lat="42.218622" lon="1.694194">
        <ele>1380.725081</ele>
        <time>2022-05-22T06:52:57.932Z</time>
      </trkpt>
      <trkpt lat="42.218632" lon="1.694061">
        <ele>1381.183346</ele>
        <time>2022-05-22T06:53:02.931Z</time>
      </trkpt>
      <trkpt lat="42.218662" lon="1.693935">
        <ele>1381.637044</ele>
        <time>2022-05-22T06:53:07.930Z</time>
      </trkpt>
      <trkpt lat="42.218705" lon="1.693822">
        <ele>1382.072548</ele>
        <time>2022-05-22T06:53:12.933Z</time>
      </trkpt>
      <trkpt lat="42.218739" lon="1.693689">
        <ele>1382.554866</ele>
        <time>2022-05-22T06:53:18.928Z</time>
      </trkpt>
      <trkpt lat="42.218777" lon="1.693545">
        <ele>1383.078895</ele>
        <time>2022-05-22T06:53:23.933Z</time>
      </trkpt>
      <trkpt lat="42.218837" lon="1.693434">
        <ele>1383.549973</ele>
        <time>2022-05-22T06:53:28.927Z</time>
      </trkpt>
      <trkpt lat="42.218866" lon="1.693311">
        <ele>1383.992465</ele>
        <time>2022-05-22T06:53:33.926Z</time>
      </trkpt>
      <trkpt lat="42.218941" lon="1.693210">
        <ele>1384.482759</ele>
        <time>2022-05-22T06:53:36.929Z</time>
      </trkpt>
      <trkpt lat="42.219006" lon="1.693104">
        <ele>1384.954516</ele>
        <time>2022-05-22T06:53:39.927Z</time>
      </trkpt>
      <trkpt lat="42.219093" lon="1.693006">
        <ele>1385.478942</ele>
        <time>2022-05-22T06:53:42.935Z</time>
      </trkpt>
      <trkpt lat="42.219197" lon="1.692929">
        <ele>1386.027946</ele>
        <time>2022-05-22T06:53:45.936Z</time>
      </trkpt>
      <trkpt lat="42.219283" lon="1.692878">
        <ele>1386.462716</ele>
        <time>2022-05-22T06:53:47.927Z</time>
      </trkpt>
      <trkpt lat="42.219367" lon="1.692817">
        <ele>1386.594223</ele>
        <time>2022-05-22T06:53:49.932Z</time>
      </trkpt>
      <trkpt lat="42.219445" lon="1.692737">
        <ele>1386.534052</ele>
        <time>2022-05-22T06:53:51.929Z</time>
      </trkpt>
      <trkpt lat="42.219515" lon="1.692632">
        <ele>1386.469780</ele>
        <time>2022-05-22T06:53:53.930Z</time>
      </trkpt>
      <trkpt lat="42.219603" lon="1.692507">
        <ele>1386.391319</ele>
        <time>2022-05-22T06:53:55.922Z</time>
      </trkpt>
      <trkpt lat="42.219687" lon="1.692360">
        <ele>1386.306850</ele>
        <time>2022-05-22T06:53:57.923Z</time>
      </trkpt>
      <trkpt lat="42.219760" lon="1.692190">
        <ele>1386.217450</ele>
        <time>2022-05-22T06:53:59.917Z</time>
      </trkpt>
      <trkpt lat="42.219807" lon="1.692006">
        <ele>1386.128903</ele>
        <time>2022-05-22T06:54:01.934Z</time>
      </trkpt>
      <trkpt lat="42.219803" lon="1.691813">
        <ele>1386.041066</ele>
        <time>2022-05-22T06:54:03.927Z</time>
      </trkpt>
      <trkpt lat="42.219763" lon="1.691627">
        <ele>1385.952953</ele>
        <time>2022-05-22T06:54:05.917Z</time>
      </trkpt>
      <trkpt lat="42.219709" lon="1.691427">
        <ele>1385.856107</ele>
        <time>2022-05-22T06:54:07.918Z</time>
      </trkpt>
      <trkpt lat="42.219646" lon="1.691259">
        <ele>1385.770438</ele>
        <time>2022-05-22T06:54:09.908Z</time>
      </trkpt>
      <trkpt lat="42.219581" lon="1.691103">
        <ele>1385.689007</ele>
        <time>2022-05-22T06:54:11.914Z</time>
      </trkpt>
      <trkpt lat="42.219537" lon="1.690946">
        <ele>1385.612639</ele>
        <time>2022-05-22T06:54:13.923Z</time>
      </trkpt>
      <trkpt lat="42.219487" lon="1.690810">
        <ele>1385.543563</ele>
        <time>2022-05-22T06:54:15.929Z</time>
      </trkpt>
      <trkpt lat="42.219434" lon="1.690673">
        <ele>1386.049778</ele>
        <time>2022-05-22T06:54:17.917Z</time>
      </trkpt>
      <trkpt lat="42.219404" lon="1.690556">
        <ele>1386.613350</ele>
        <time>2022-05-22T06:54:19.924Z</time>
      </trkpt>
      <trkpt lat="42.219365" lon="1.690404">
        <ele>1387.345564</ele>
        <time>2022-05-22T06:54:22.922Z</time>
      </trkpt>
      <trkpt lat="42.219371" lon="1.690256">
        <ele>1388.020233</ele>
        <time>2022-05-22T06:54:25.921Z</time>
      </trkpt>
      <trkpt lat="42.219385" lon="1.690123">
        <ele>1388.631702</ele>
        <time>2022-05-22T06:54:28.932Z</time>
      </trkpt>
      <trkpt lat="42.219390" lon="1.689992">
        <ele>1389.228773</ele>
        <time>2022-05-22T06:54:31.921Z</time>
      </trkpt>
      <trkpt lat="42.219418" lon="1.689867">
        <ele>1389.823200</ele>
        <time>2022-05-22T06:54:34.921Z</time>
      </trkpt>
      <trkpt lat="42.219466" lon="1.689760">
        <ele>1390.392622</ele>
        <time>2022-05-22T06:54:37.930Z</time>
      </trkpt>
      <trkpt lat="42.219543" lon="1.689656">
        <ele>1391.061999</ele>
        <time>2022-05-22T06:54:40.927Z</time>
      </trkpt>
      <trkpt lat="42.219610" lon="1.689570">
        <ele>1391.630163</ele>
        <time>2022-05-22T06:54:44.925Z</time>
      </trkpt>
      <trkpt lat="42.219686" lon="1.689470">
        <ele>1392.282373</ele>
        <time>2022-05-22T06:54:49.932Z</time>
      </trkpt>
      <trkpt lat="42.219743" lon="1.689375">
        <ele>1392.838896</ele>
        <time>2022-05-22T06:54:53.926Z</time>
      </trkpt>
      <trkpt lat="42.219844" lon="1.689296">
        <ele>1393.556292</ele>
        <time>2022-05-22T06:54:57.906Z</time>
      </trkpt>
      <trkpt lat="42.219941" lon="1.689222">
        <ele>1394.241046</ele>
        <time>2022-05-22T06:55:01.933Z</time>
      </trkpt>
      <trkpt lat="42.220041" lon="1.689141">
        <ele>1394.957770</ele>
        <time>2022-05-22T06:55:05.923Z</time>
      </trkpt>
      <trkpt lat="42.220128" lon="1.689070">
        <ele>1395.582564</ele>
        <time>2022-05-22T06:55:09.920Z</time>
      </trkpt>
      <trkpt lat="42.220179" lon="1.688944">
        <ele>1396.236150</ele>
        <time>2022-05-22T06:55:14.927Z</time>
      </trkpt>
      <trkpt lat="42.220222" lon="1.688797">
        <ele>1397.445532</ele>
        <time>2022-05-22T06:55:19.930Z</time>
      </trkpt>
      <trkpt lat="42.220280" lon="1.688690">
        <ele>1398.837597</ele>
        <time>2022-05-22T06:55:23.928Z</time>
      </trkpt>
      <trkpt lat="42.220313" lon="1.688546">
        <ele>1400.420067</ele>
        <time>2022-05-22T06:55:27.917Z</time>
      </trkpt>
      <trkpt lat="42.220326" lon="1.688396">
        <ele>1402.005546</ele>
        <time>2022-05-22T06:55:31.920Z</time>
      </trkpt>
      <trkpt lat="42.220334" lon="1.688257">
        <ele>1403.469199</ele>
        <time>2022-05-22T06:55:35.919Z</time>
      </trkpt>
      <trkpt lat="42.220351" lon="1.688134">
        <ele>1404.782774</ele>
        <time>2022-05-22T06:55:39.917Z</time>
      </trkpt>
      <trkpt lat="42.220365" lon="1.688011">
        <ele>1406.089216</ele>
        <time>2022-05-22T06:55:43.943Z</time>
      </trkpt>
      <trkpt lat="42.220377" lon="1.687869">
        <ele>1407.589636</ele>
        <time>2022-05-22T06:55:48.933Z</time>
      </trkpt>
      <trkpt lat="42.220394" lon="1.687746">
        <ele>1408.903211</ele>
        <time>2022-05-22T06:55:53.936Z</time>
      </trkpt>
      <trkpt lat="42.220386" lon="1.687614">
        <ele>1410.293607</ele>
        <time>2022-05-22T06:55:58.927Z</time>
      </trkpt>
      <trkpt lat="42.220404" lon="1.687473">
        <ele>1411.795686</ele>
        <time>2022-05-22T06:56:03.956Z</time>
      </trkpt>
      <trkpt lat="42.220425" lon="1.687353">
        <ele>1413.090166</ele>
        <time>2022-05-22T06:56:07.918Z</time>
      </trkpt>
      <trkpt lat="42.220457" lon="1.687216">
        <ele>1414.598261</ele>
        <time>2022-05-22T06:56:12.920Z</time>
      </trkpt>
      <trkpt lat="42.220510" lon="1.687087">
        <ele>1416.146978</ele>
        <time>2022-05-22T06:56:18.925Z</time>
      </trkpt>
      <trkpt lat="42.220551" lon="1.686978">
        <ele>1417.430425</ele>
        <time>2022-05-22T06:56:22.921Z</time>
      </trkpt>
      <trkpt lat="42.220611" lon="1.686868">
        <ele>1418.864652</ele>
        <time>2022-05-22T06:56:27.922Z</time>
      </trkpt>
      <trkpt lat="42.220684" lon="1.686767">
        <ele>1420.346261</ele>
        <time>2022-05-22T06:56:32.917Z</time>
      </trkpt>
      <trkpt lat="42.220763" lon="1.686665">
        <ele>1421.895716</ele>
        <time>2022-05-22T06:56:37.920Z</time>
      </trkpt>
      <trkpt lat="42.220836" lon="1.686593">
        <ele>1422.582449</ele>
        <time>2022-05-22T06:56:41.917Z</time>
      </trkpt>
      <trkpt lat="42.220907" lon="1.686516">
        <ele>1423.174907</ele>
        <time>2022-05-22T06:56:45.917Z</time>
      </trkpt>
      <trkpt lat="42.220980" lon="1.686425">
        <ele>1423.821278</ele>
        <time>2022-05-22T06:56:50.924Z</time>
      </trkpt>
      <trkpt lat="42.221049" lon="1.686339">
        <ele>1424.432186</ele>
        <time>2022-05-22T06:56:55.921Z</time>
      </trkpt>
      <trkpt lat="42.221113" lon="1.686253">
        <ele>1425.019605</ele>
        <time>2022-05-22T06:57:00.922Z</time>
      </trkpt>
      <trkpt lat="42.221178" lon="1.686162">
        <ele>1425.628755</ele>
        <time>2022-05-22T06:57:05.914Z</time>
      </trkpt>
      <trkpt lat="42.221232" lon="1.686034">
        <ele>1426.338513</ele>
        <time>2022-05-22T06:57:10.931Z</time>
      </trkpt>
      <trkpt lat="42.221288" lon="1.685917">
        <ele>1427.009711</ele>
        <time>2022-05-22T06:57:15.923Z</time>
      </trkpt>
      <trkpt lat="42.221314" lon="1.685777">
        <ele>1427.705120</ele>
        <time>2022-05-22T06:57:20.922Z</time>
      </trkpt>
      <trkpt lat="42.221350" lon="1.685646">
        <ele>1428.378337</ele>
        <time>2022-05-22T06:57:24.918Z</time>
      </trkpt>
      <trkpt lat="42.221394" lon="1.685517">
        <ele>1429.062616</ele>
        <time>2022-05-22T06:57:28.923Z</time>
      </trkpt>
      <trkpt lat="42.221440" lon="1.685388">
        <ele>1429.752440</ele>
        <time>2022-05-22T06:57:32.926Z</time>
      </trkpt>
      <trkpt lat="42.221482" lon="1.685280">
        <ele>1430.340168</ele>
        <time>2022-05-22T06:57:35.927Z</time>
      </trkpt>
      <trkpt lat="42.221543" lon="1.685155">
        <ele>1431.061422</ele>
        <time>2022-05-22T06:57:38.924Z</time>
      </trkpt>
      <trkpt lat="42.221622" lon="1.685013">
        <ele>1431.917130</ele>
        <time>2022-05-22T06:57:41.929Z</time>
      </trkpt>
      <trkpt lat="42.221676" lon="1.684911">
        <ele>1432.521229</ele>
        <time>2022-05-22T06:57:43.924Z</time>
      </trkpt>
      <trkpt lat="42.221747" lon="1.684820">
        <ele>1433.158096</ele>
        <time>2022-05-22T06:57:45.924Z</time>
      </trkpt>
      <trkpt lat="42.221821" lon="1.684678">
        <ele>1433.730246</ele>
        <time>2022-05-22T06:57:48.904Z</time>
      </trkpt>
      <trkpt lat="42.221907" lon="1.684535">
        <ele>1433.525293</ele>
        <time>2022-05-22T06:57:51.945Z</time>
      </trkpt>
      <trkpt lat="42.221964" lon="1.684432">
        <ele>1433.382235</ele>
        <time>2022-05-22T06:57:53.921Z</time>
      </trkpt>
      <trkpt lat="42.222042" lon="1.684291">
        <ele>1433.186425</ele>
        <time>2022-05-22T06:57:56.936Z</time>
      </trkpt>
      <trkpt lat="42.222096" lon="1.684192">
        <ele>1433.049627</ele>
        <time>2022-05-22T06:57:58.923Z</time>
      </trkpt>
      <trkpt lat="42.222176" lon="1.684063">
        <ele>1432.862426</ele>
        <time>2022-05-22T06:58:01.918Z</time>
      </trkpt>
      <trkpt lat="42.222253" lon="1.683937">
        <ele>1432.680674</ele>
        <time>2022-05-22T06:58:04.921Z</time>
      </trkpt>
      <trkpt lat="42.222327" lon="1.683807">
        <ele>1432.498248</ele>
        <time>2022-05-22T06:58:07.915Z</time>
      </trkpt>
      <trkpt lat="42.222388" lon="1.683700">
        <ele>1432.348013</ele>
        <time>2022-05-22T06:58:10.923Z</time>
      </trkpt>
      <trkpt lat="42.222432" lon="1.683580">
        <ele>1432.199036</ele>
        <time>2022-05-22T06:58:13.920Z</time>
      </trkpt>
      <trkpt lat="42.222462" lon="1.683463">
        <ele>1432.061284</ele>
        <time>2022-05-22T06:58:16.914Z</time>
      </trkpt>
      <trkpt lat="42.222479" lon="1.683332">
        <ele>1431.913316</ele>
        <time>2022-05-22T06:58:20.920Z</time>
      </trkpt>
      <trkpt lat="42.222495" lon="1.683188">
        <ele>1431.751313</ele>
        <time>2022-05-22T06:58:25.918Z</time>
      </trkpt>
      <trkpt lat="42.222498" lon="1.683044">
        <ele>1431.591040</ele>
        <time>2022-05-22T06:58:31.924Z</time>
      </trkpt>
      <trkpt lat="42.222490" lon="1.682913">
        <ele>1431.444799</ele>
        <time>2022-05-22T06:58:35.933Z</time>
      </trkpt>
      <trkpt lat="42.222495" lon="1.682780">
        <ele>1431.296637</ele>
        <time>2022-05-22T06:58:39.932Z</time>
      </trkpt>
      <trkpt lat="42.222502" lon="1.682624">
        <ele>1431.122758</ele>
        <time>2022-05-22T06:58:43.928Z</time>
      </trkpt>
      <trkpt lat="42.222520" lon="1.682488">
        <ele>1431.119474</ele>
        <time>2022-05-22T06:58:46.928Z</time>
      </trkpt>
      <trkpt lat="42.222515" lon="1.682333">
        <ele>1431.186012</ele>
        <time>2022-05-22T06:58:51.931Z</time>
      </trkpt>
      <trkpt lat="42.222506" lon="1.682194">
        <ele>1431.245853</ele>
        <time>2022-05-22T06:58:55.937Z</time>
      </trkpt>
      <trkpt lat="42.222537" lon="1.682057">
        <ele>1431.307291</ele>
        <time>2022-05-22T06:58:59.921Z</time>
      </trkpt>
      <trkpt lat="42.222576" lon="1.681917">
        <ele>1431.371441</ele>
        <time>2022-05-22T06:59:03.928Z</time>
      </trkpt>
      <trkpt lat="42.222624" lon="1.681783">
        <ele>1431.435280</ele>
        <time>2022-05-22T06:59:06.931Z</time>
      </trkpt>
      <trkpt lat="42.222685" lon="1.681648">
        <ele>1431.503105</ele>
        <time>2022-05-22T06:59:10.930Z</time>
      </trkpt>
      <trkpt lat="42.222775" lon="1.681578">
        <ele>1431.563255</ele>
        <time>2022-05-22T06:59:14.927Z</time>
      </trkpt>
      <trkpt lat="42.222865" lon="1.681532">
        <ele>1431.618986</ele>
        <time>2022-05-22T06:59:19.931Z</time>
      </trkpt>
      <trkpt lat="42.222946" lon="1.681458">
        <ele>1431.675623</ele>
        <time>2022-05-22T06:59:25.934Z</time>
      </trkpt>
      <trkpt lat="42.223033" lon="1.681396">
        <ele>1431.732594</ele>
        <time>2022-05-22T06:59:29.927Z</time>
      </trkpt>
      <trkpt lat="42.223126" lon="1.681322">
        <ele>1431.795109</ele>
        <time>2022-05-22T06:59:35.938Z</time>
      </trkpt>
      <trkpt lat="42.223207" lon="1.681249">
        <ele>1431.851507</ele>
        <time>2022-05-22T06:59:39.921Z</time>
      </trkpt>
      <trkpt lat="42.223293" lon="1.681200">
        <ele>1431.905564</ele>
        <time>2022-05-22T06:59:42.923Z</time>
      </trkpt>
      <trkpt lat="42.223392" lon="1.681120">
        <ele>1431.972380</ele>
        <time>2022-05-22T06:59:46.924Z</time>
      </trkpt>
      <trkpt lat="42.223487" lon="1.681053">
        <ele>1432.034450</ele>
        <time>2022-05-22T06:59:51.923Z</time>
      </trkpt>
      <trkpt lat="42.223587" lon="1.680972">
        <ele>1432.101983</ele>
        <time>2022-05-22T06:59:55.929Z</time>
      </trkpt>
      <trkpt lat="42.223667" lon="1.680915">
        <ele>1432.187835</ele>
        <time>2022-05-22T06:59:58.924Z</time>
      </trkpt>
      <trkpt lat="42.223760" lon="1.680867">
        <ele>1432.300496</ele>
        <time>2022-05-22T07:00:02.934Z</time>
      </trkpt>
      <trkpt lat="42.223849" lon="1.680798">
        <ele>1432.416623</ele>
        <time>2022-05-22T07:00:07.919Z</time>
      </trkpt>
      <trkpt lat="42.223941" lon="1.680749">
        <ele>1432.528532</ele>
        <time>2022-05-22T07:00:12.934Z</time>
      </trkpt>
      <trkpt lat="42.224028" lon="1.680696">
        <ele>1432.636533</ele>
        <time>2022-05-22T07:00:16.934Z</time>
      </trkpt>
      <trkpt lat="42.224105" lon="1.680609">
        <ele>1432.750140</ele>
        <time>2022-05-22T07:00:20.928Z</time>
      </trkpt>
      <trkpt lat="42.224191" lon="1.680549">
        <ele>1432.859676</ele>
        <time>2022-05-22T07:00:24.938Z</time>
      </trkpt>
      <trkpt lat="42.224279" lon="1.680466">
        <ele>1432.981138</ele>
        <time>2022-05-22T07:00:28.937Z</time>
      </trkpt>
      <trkpt lat="42.224364" lon="1.680373">
        <ele>1433.104929</ele>
        <time>2022-05-22T07:00:32.931Z</time>
      </trkpt>
      <trkpt lat="42.224447" lon="1.680278">
        <ele>1433.228047</ele>
        <time>2022-05-22T07:00:36.931Z</time>
      </trkpt>
      <trkpt lat="42.224531" lon="1.680187">
        <ele>1433.349906</ele>
        <time>2022-05-22T07:00:41.921Z</time>
      </trkpt>
      <trkpt lat="42.224583" lon="1.680064">
        <ele>1433.468587</ele>
        <time>2022-05-22T07:00:46.921Z</time>
      </trkpt>
      <trkpt lat="42.224636" lon="1.679962">
        <ele>1433.573000</ele>
        <time>2022-05-22T07:00:50.922Z</time>
      </trkpt>
      <trkpt lat="42.224743" lon="1.679898">
        <ele>1433.705423</ele>
        <time>2022-05-22T07:00:54.930Z</time>
      </trkpt>
      <trkpt lat="42.224836" lon="1.679847">
        <ele>1433.819006</ele>
        <time>2022-05-22T07:00:58.923Z</time>
      </trkpt>
      <trkpt lat="42.224929" lon="1.679791">
        <ele>1433.934230</ele>
        <time>2022-05-22T07:01:02.938Z</time>
      </trkpt>
      <trkpt lat="42.225011" lon="1.679702">
        <ele>1434.053274</ele>
        <time>2022-05-22T07:01:06.935Z</time>
      </trkpt>
      <trkpt lat="42.225096" lon="1.679639">
        <ele>1434.190878</ele>
        <time>2022-05-22T07:01:09.923Z</time>
      </trkpt>
      <trkpt lat="42.225179" lon="1.679579">
        <ele>1434.650480</ele>
        <time>2022-05-22T07:01:12.916Z</time>
      </trkpt>
      <trkpt lat="42.225270" lon="1.679571">
        <ele>1435.095675</ele>
        <time>2022-05-22T07:01:16.942Z</time>
      </trkpt>
      <trkpt lat="42.225363" lon="1.679558">
        <ele>1435.552118</ele>
        <time>2022-05-22T07:01:20.919Z</time>
      </trkpt>
      <trkpt lat="42.225477" lon="1.679541">
        <ele>1436.112039</ele>
        <time>2022-05-22T07:01:24.918Z</time>
      </trkpt>
      <trkpt lat="42.225573" lon="1.679509">
        <ele>1436.594769</ele>
        <time>2022-05-22T07:01:28.922Z</time>
      </trkpt>
      <trkpt lat="42.225676" lon="1.679524">
        <ele>1437.100521</ele>
        <time>2022-05-22T07:01:32.930Z</time>
      </trkpt>
      <trkpt lat="42.225779" lon="1.679582">
        <ele>1437.645322</ele>
        <time>2022-05-22T07:01:36.929Z</time>
      </trkpt>
      <trkpt lat="42.225890" lon="1.679636">
        <ele>1438.221304</ele>
        <time>2022-05-22T07:01:40.921Z</time>
      </trkpt>
      <trkpt lat="42.225998" lon="1.679659">
        <ele>1438.755067</ele>
        <time>2022-05-22T07:01:44.931Z</time>
      </trkpt>
      <trkpt lat="42.226091" lon="1.679686">
        <ele>1439.219458</ele>
        <time>2022-05-22T07:01:48.923Z</time>
      </trkpt>
      <trkpt lat="42.226208" lon="1.679712">
        <ele>1439.798323</ele>
        <time>2022-05-22T07:01:52.923Z</time>
      </trkpt>
      <trkpt lat="42.226312" lon="1.679698">
        <ele>1440.308558</ele>
        <time>2022-05-22T07:01:56.919Z</time>
      </trkpt>
      <trkpt lat="42.226426" lon="1.679700">
        <ele>1440.865143</ele>
        <time>2022-05-22T07:02:00.922Z</time>
      </trkpt>
      <trkpt lat="42.226517" lon="1.679677">
        <ele>1441.317111</ele>
        <time>2022-05-22T07:02:05.926Z</time>
      </trkpt>
      <trkpt lat="42.226606" lon="1.679639">
        <ele>1441.772800</ele>
        <time>2022-05-22T07:02:10.935Z</time>
      </trkpt>
      <trkpt lat="42.226697" lon="1.679576">
        <ele>1442.272029</ele>
        <time>2022-05-22T07:02:14.927Z</time>
      </trkpt>
      <trkpt lat="42.226773" lon="1.679488">
        <ele>1442.760763</ele>
        <time>2022-05-22T07:02:18.923Z</time>
      </trkpt>
      <trkpt lat="42.226843" lon="1.679377">
        <ele>1443.506838</ele>
        <time>2022-05-22T07:02:22.926Z</time>
      </trkpt>
      <trkpt lat="42.226915" lon="1.679264">
        <ele>1444.380636</ele>
        <time>2022-05-22T07:02:26.934Z</time>
      </trkpt>
      <trkpt lat="42.226957" lon="1.679146">
        <ele>1445.148044</ele>
        <time>2022-05-22T07:02:30.935Z</time>
      </trkpt>
      <trkpt lat="42.226978" lon="1.678994">
        <ele>1446.054362</ele>
        <time>2022-05-22T07:02:35.930Z</time>
      </trkpt>
      <trkpt lat="42.226995" lon="1.678847">
        <ele>1446.926443</ele>
        <time>2022-05-22T07:02:39.930Z</time>
      </trkpt>
      <trkpt lat="42.227010" lon="1.678693">
        <ele>1447.836885</ele>
        <time>2022-05-22T07:02:44.931Z</time>
      </trkpt>
      <trkpt lat="42.227031" lon="1.678558">
        <ele>1448.645454</ele>
        <time>2022-05-22T07:02:48.923Z</time>
      </trkpt>
      <trkpt lat="42.227024" lon="1.678400">
        <ele>1449.573222</ele>
        <time>2022-05-22T07:02:52.928Z</time>
      </trkpt>
      <trkpt lat="42.227044" lon="1.678262">
        <ele>1450.397451</ele>
        <time>2022-05-22T07:02:56.926Z</time>
      </trkpt>
      <trkpt lat="42.227097" lon="1.678131">
        <ele>1451.272439</ele>
        <time>2022-05-22T07:03:00.923Z</time>
      </trkpt>
      <trkpt lat="42.227098" lon="1.677994">
        <ele>1452.075498</ele>
        <time>2022-05-22T07:03:04.926Z</time>
      </trkpt>
      <trkpt lat="42.227103" lon="1.677841">
        <ele>1452.973174</ele>
        <time>2022-05-22T07:03:08.927Z</time>
      </trkpt>
      <trkpt lat="42.227125" lon="1.677713">
        <ele>1453.743386</ele>
        <time>2022-05-22T07:03:12.939Z</time>
      </trkpt>
      <trkpt lat="42.227150" lon="1.677576">
        <ele>1454.570430</ele>
        <time>2022-05-22T07:03:16.924Z</time>
      </trkpt>
      <trkpt lat="42.227161" lon="1.677435">
        <ele>1455.401469</ele>
        <time>2022-05-22T07:03:20.935Z</time>
      </trkpt>
      <trkpt lat="42.227174" lon="1.677285">
        <ele>1456.286688</ele>
        <time>2022-05-22T07:03:24.932Z</time>
      </trkpt>
      <trkpt lat="42.227202" lon="1.677147">
        <ele>1457.125385</ele>
        <time>2022-05-22T07:03:28.932Z</time>
      </trkpt>
      <trkpt lat="42.227210" lon="1.677017">
        <ele>1457.487977</ele>
        <time>2022-05-22T07:03:32.931Z</time>
      </trkpt>
      <trkpt lat="42.227246" lon="1.676874">
        <ele>1457.876967</ele>
        <time>2022-05-22T07:03:37.922Z</time>
      </trkpt>
      <trkpt lat="42.227270" lon="1.676753">
        <ele>1458.199581</ele>
        <time>2022-05-22T07:03:41.929Z</time>
      </trkpt>
      <trkpt lat="42.227280" lon="1.676618">
        <ele>1458.549001</ele>
        <time>2022-05-22T07:03:45.932Z</time>
      </trkpt>
      <trkpt lat="42.227317" lon="1.676506">
        <ele>1458.864854</ele>
        <time>2022-05-22T07:03:48.937Z</time>
      </trkpt>
      <trkpt lat="42.227358" lon="1.676378">
        <ele>1459.224030</ele>
        <time>2022-05-22T07:03:52.935Z</time>
      </trkpt>
      <trkpt lat="42.227402" lon="1.676260">
        <ele>1459.564288</ele>
        <time>2022-05-22T07:03:56.926Z</time>
      </trkpt>
      <trkpt lat="42.227471" lon="1.676156">
        <ele>1459.923918</ele>
        <time>2022-05-22T07:03:59.940Z</time>
      </trkpt>
      <trkpt lat="42.227550" lon="1.676061">
        <ele>1460.291828</ele>
        <time>2022-05-22T07:04:02.931Z</time>
      </trkpt>
      <trkpt lat="42.227621" lon="1.675981">
        <ele>1460.613433</ele>
        <time>2022-05-22T07:04:05.932Z</time>
      </trkpt>
      <trkpt lat="42.227699" lon="1.675899">
        <ele>1460.957229</ele>
        <time>2022-05-22T07:04:08.930Z</time>
      </trkpt>
      <trkpt lat="42.227770" lon="1.675808">
        <ele>1461.297679</ele>
        <time>2022-05-22T07:04:11.933Z</time>
      </trkpt>
      <trkpt lat="42.227832" lon="1.675688">
        <ele>1461.674523</ele>
        <time>2022-05-22T07:04:15.947Z</time>
      </trkpt>
      <trkpt lat="42.227915" lon="1.675576">
        <ele>1462.082612</ele>
        <time>2022-05-22T07:04:19.924Z</time>
      </trkpt>
      <trkpt lat="42.227977" lon="1.675464">
        <ele>1462.442752</ele>
        <time>2022-05-22T07:04:22.931Z</time>
      </trkpt>
      <trkpt lat="42.228030" lon="1.675361">
        <ele>1462.765779</ele>
        <time>2022-05-22T07:04:25.924Z</time>
      </trkpt>
      <trkpt lat="42.228117" lon="1.675258">
        <ele>1463.168181</ele>
        <time>2022-05-22T07:04:29.930Z</time>
      </trkpt>
      <trkpt lat="42.228197" lon="1.675173">
        <ele>1463.562243</ele>
        <time>2022-05-22T07:04:32.928Z</time>
      </trkpt>
      <trkpt lat="42.228310" lon="1.675102">
        <ele>1464.181149</ele>
        <time>2022-05-22T07:04:35.930Z</time>
      </trkpt>
      <trkpt lat="42.228382" lon="1.675016">
        <ele>1464.658474</ele>
        <time>2022-05-22T07:04:38.929Z</time>
      </trkpt>
      <trkpt lat="42.228430" lon="1.674913">
        <ele>1465.105981</ele>
        <time>2022-05-22T07:04:41.928Z</time>
      </trkpt>
      <trkpt lat="42.228490" lon="1.674791">
        <ele>1465.644519</ele>
        <time>2022-05-22T07:04:44.929Z</time>
      </trkpt>
      <trkpt lat="42.228552" lon="1.674673">
        <ele>1466.176553</ele>
        <time>2022-05-22T07:04:47.930Z</time>
      </trkpt>
      <trkpt lat="42.228611" lon="1.674562">
        <ele>1466.678981</ele>
        <time>2022-05-22T07:04:50.932Z</time>
      </trkpt>
      <trkpt lat="42.228672" lon="1.674446">
        <ele>1467.202143</ele>
        <time>2022-05-22T07:04:53.937Z</time>
      </trkpt>
      <trkpt lat="42.228736" lon="1.674314">
        <ele>1467.782312</ele>
        <time>2022-05-22T07:04:56.926Z</time>
      </trkpt>
      <trkpt lat="42.228793" lon="1.674180">
        <ele>1468.350557</ele>
        <time>2022-05-22T07:04:59.926Z</time>
      </trkpt>
      <trkpt lat="42.228848" lon="1.674040">
        <ele>1468.933315</ele>
        <time>2022-05-22T07:05:01.928Z</time>
      </trkpt>
      <trkpt lat="42.228899" lon="1.673921">
        <ele>1469.438893</ele>
        <time>2022-05-22T07:05:03.936Z</time>
      </trkpt>
      <trkpt lat="42.228944" lon="1.673805">
        <ele>1469.920426</ele>
        <time>2022-05-22T07:05:05.933Z</time>
      </trkpt>
      <trkpt lat="42.229025" lon="1.673662">
        <ele>1470.582454</ele>
        <time>2022-05-22T07:05:08.933Z</time>
      </trkpt>
      <trkpt lat="42.229086" lon="1.673517">
        <ele>1471.195671</ele>
        <time>2022-05-22T07:05:11.926Z</time>
      </trkpt>
      <trkpt lat="42.229142" lon="1.673363">
        <ele>1471.826538</ele>
        <time>2022-05-22T07:05:14.928Z</time>
      </trkpt>
      <trkpt lat="42.229186" lon="1.673239">
        <ele>1472.332143</ele>
        <time>2022-05-22T07:05:16.929Z</time>
      </trkpt>
      <trkpt lat="42.229231" lon="1.673115">
        <ele>1473.112919</ele>
        <time>2022-05-22T07:05:18.930Z</time>
      </trkpt>
      <trkpt lat="42.229293" lon="1.672972">
        <ele>1474.069240</ele>
        <time>2022-05-22T07:05:21.928Z</time>
      </trkpt>
      <trkpt lat="42.229330" lon="1.672851">
        <ele>1474.824735</ele>
        <time>2022-05-22T07:05:23.927Z</time>
      </trkpt>
      <trkpt lat="42.229365" lon="1.672696">
        <ele>1475.759913</ele>
        <time>2022-05-22T07:05:26.929Z</time>
      </trkpt>
      <trkpt lat="42.229415" lon="1.672536">
        <ele>1476.762140</ele>
        <time>2022-05-22T07:05:29.926Z</time>
      </trkpt>
      <trkpt lat="42.229466" lon="1.672418">
        <ele>1477.550637</ele>
        <time>2022-05-22T07:05:31.922Z</time>
      </trkpt>
      <trkpt lat="42.229538" lon="1.672301">
        <ele>1478.428590</ele>
        <time>2022-05-22T07:05:33.927Z</time>
      </trkpt>
      <trkpt lat="42.229585" lon="1.672181">
        <ele>1479.212023</ele>
        <time>2022-05-22T07:05:35.928Z</time>
      </trkpt>
      <trkpt lat="42.229617" lon="1.672049">
        <ele>1480.013583</ele>
        <time>2022-05-22T07:05:37.919Z</time>
      </trkpt>
      <trkpt lat="42.229679" lon="1.671946">
        <ele>1480.779629</ele>
        <time>2022-05-22T07:05:39.924Z</time>
      </trkpt>
      <trkpt lat="42.229753" lon="1.671821">
        <ele>1481.703216</ele>
        <time>2022-05-22T07:05:41.951Z</time>
      </trkpt>
      <trkpt lat="42.229810" lon="1.671686">
        <ele>1482.600058</ele>
        <time>2022-05-22T07:05:43.913Z</time>
      </trkpt>
      <trkpt lat="42.229871" lon="1.671544">
        <ele>1483.547462</ele>
        <time>2022-05-22T07:05:45.923Z</time>
      </trkpt>
      <trkpt lat="42.229933" lon="1.671397">
        <ele>1484.523765</ele>
        <time>2022-05-22T07:05:47.923Z</time>
      </trkpt>
      <trkpt lat="42.230003" lon="1.671253">
        <ele>1485.517866</ele>
        <time>2022-05-22T07:05:49.922Z</time>
      </trkpt>
      <trkpt lat="42.230075" lon="1.671112">
        <ele>1486.368842</ele>
        <time>2022-05-22T07:05:51.919Z</time>
      </trkpt>
      <trkpt lat="42.230145" lon="1.670958">
        <ele>1486.287094</ele>
        <time>2022-05-22T07:05:53.932Z</time>
      </trkpt>
      <trkpt lat="42.230219" lon="1.670815">
        <ele>1486.208170</ele>
        <time>2022-05-22T07:05:55.915Z</time>
      </trkpt>
      <trkpt lat="42.230299" lon="1.670676">
        <ele>1486.128526</ele>
        <time>2022-05-22T07:05:57.928Z</time>
      </trkpt>
      <trkpt lat="42.230377" lon="1.670526">
        <ele>1486.045605</ele>
        <time>2022-05-22T07:05:59.920Z</time>
      </trkpt>
      <trkpt lat="42.230457" lon="1.670374">
        <ele>1485.961241</ele>
        <time>2022-05-22T07:06:01.919Z</time>
      </trkpt>
      <trkpt lat="42.230538" lon="1.670225">
        <ele>1485.877619</ele>
        <time>2022-05-22T07:06:03.928Z</time>
      </trkpt>
      <trkpt lat="42.230621" lon="1.670073">
        <ele>1485.792179</ele>
        <time>2022-05-22T07:06:05.924Z</time>
      </trkpt>
      <trkpt lat="42.230704" lon="1.669916">
        <ele>1485.704909</ele>
        <time>2022-05-22T07:06:07.915Z</time>
      </trkpt>
      <trkpt lat="42.230791" lon="1.669770">
        <ele>1485.620129</ele>
        <time>2022-05-22T07:06:09.925Z</time>
      </trkpt>
      <trkpt lat="42.230874" lon="1.669620">
        <ele>1485.535416</ele>
        <time>2022-05-22T07:06:11.959Z</time>
      </trkpt>
      <trkpt lat="42.230957" lon="1.669467">
        <ele>1485.449612</ele>
        <time>2022-05-22T07:06:13.906Z</time>
      </trkpt>
      <trkpt lat="42.231044" lon="1.669313">
        <ele>1485.361983</ele>
        <time>2022-05-22T07:06:15.928Z</time>
      </trkpt>
      <trkpt lat="42.231136" lon="1.669161">
        <ele>1485.244793</ele>
        <time>2022-05-22T07:06:17.918Z</time>
      </trkpt>
      <trkpt lat="42.231231" lon="1.669015">
        <ele>1484.787394</ele>
        <time>2022-05-22T07:06:19.934Z</time>
      </trkpt>
      <trkpt lat="42.231328" lon="1.668861">
        <ele>1484.311596</ele>
        <time>2022-05-22T07:06:21.923Z</time>
      </trkpt>
      <trkpt lat="42.231430" lon="1.668715">
        <ele>1483.839216</ele>
        <time>2022-05-22T07:06:23.916Z</time>
      </trkpt>
      <trkpt lat="42.231525" lon="1.668576">
        <ele>1483.394059</ele>
        <time>2022-05-22T07:06:25.918Z</time>
      </trkpt>
      <trkpt lat="42.231622" lon="1.668443">
        <ele>1482.954736</ele>
        <time>2022-05-22T07:06:27.927Z</time>
      </trkpt>
      <trkpt lat="42.231721" lon="1.668302">
        <ele>1482.497457</ele>
        <time>2022-05-22T07:06:29.921Z</time>
      </trkpt>
      <trkpt lat="42.231820" lon="1.668167">
        <ele>1482.050319</ele>
        <time>2022-05-22T07:06:31.924Z</time>
      </trkpt>
      <trkpt lat="42.231914" lon="1.668033">
        <ele>1481.615929</ele>
        <time>2022-05-22T07:06:33.912Z</time>
      </trkpt>
      <trkpt lat="42.232009" lon="1.667895">
        <ele>1481.172500</ele>
        <time>2022-05-22T07:06:35.919Z</time>
      </trkpt>
      <trkpt lat="42.232107" lon="1.667756">
        <ele>1480.720824</ele>
        <time>2022-05-22T07:06:37.925Z</time>
      </trkpt>
      <trkpt lat="42.232205" lon="1.667609">
        <ele>1480.255333</ele>
        <time>2022-05-22T07:06:39.920Z</time>
      </trkpt>
      <trkpt lat="42.232296" lon="1.667460">
        <ele>1479.800805</ele>
        <time>2022-05-22T07:06:41.928Z</time>
      </trkpt>
      <trkpt lat="42.232393" lon="1.667311">
        <ele>1479.285064</ele>
        <time>2022-05-22T07:06:43.918Z</time>
      </trkpt>
      <trkpt lat="42.232491" lon="1.667165">
        <ele>1478.722593</ele>
        <time>2022-05-22T07:06:45.921Z</time>
      </trkpt>
      <trkpt lat="42.232589" lon="1.667021">
        <ele>1478.164340</ele>
        <time>2022-05-22T07:06:47.921Z</time>
      </trkpt>
      <trkpt lat="42.232683" lon="1.666870">
        <ele>1477.601262</ele>
        <time>2022-05-22T07:06:49.920Z</time>
      </trkpt>
      <trkpt lat="42.232774" lon="1.666701">
        <ele>1477.004828</ele>
        <time>2022-05-22T07:06:51.924Z</time>
      </trkpt>
      <trkpt lat="42.232870" lon="1.666546">
        <ele>1476.428049</ele>
        <time>2022-05-22T07:06:53.918Z</time>
      </trkpt>
      <trkpt lat="42.232957" lon="1.666382">
        <ele>1475.852212</ele>
        <time>2022-05-22T07:06:55.917Z</time>
      </trkpt>
      <trkpt lat="42.233035" lon="1.666209">
        <ele>1475.274088</ele>
        <time>2022-05-22T07:06:57.919Z</time>
      </trkpt>
      <trkpt lat="42.233128" lon="1.666050">
        <ele>1474.695746</ele>
        <time>2022-05-22T07:06:59.920Z</time>
      </trkpt>
      <trkpt lat="42.233223" lon="1.665901">
        <ele>1474.134520</ele>
        <time>2022-05-22T07:07:01.919Z</time>
      </trkpt>
      <trkpt lat="42.233323" lon="1.665732">
        <ele>1473.517046</ele>
        <time>2022-05-22T07:07:03.924Z</time>
      </trkpt>
      <trkpt lat="42.233430" lon="1.665549">
        <ele>1472.851500</ele>
        <time>2022-05-22T07:07:05.917Z</time>
      </trkpt>
      <trkpt lat="42.233490" lon="1.665456">
        <ele>1472.639379</ele>
        <time>2022-05-22T07:07:06.920Z</time>
      </trkpt>
      <trkpt lat="42.233599" lon="1.665252">
        <ele>1472.692110</ele>
        <time>2022-05-22T07:07:08.924Z</time>
      </trkpt>
      <trkpt lat="42.233654" lon="1.665137">
        <ele>1472.720806</ele>
        <time>2022-05-22T07:07:09.925Z</time>
      </trkpt>
      <trkpt lat="42.233713" lon="1.665025">
        <ele>1472.749617</ele>
        <time>2022-05-22T07:07:10.922Z</time>
      </trkpt>
      <trkpt lat="42.233779" lon="1.664911">
        <ele>1472.779950</ele>
        <time>2022-05-22T07:07:11.931Z</time>
      </trkpt>
      <trkpt lat="42.233852" lon="1.664788">
        <ele>1472.812991</ele>
        <time>2022-05-22T07:07:12.927Z</time>
      </trkpt>
      <trkpt lat="42.233919" lon="1.664657">
        <ele>1472.846364</ele>
        <time>2022-05-22T07:07:13.926Z</time>
      </trkpt>
      <trkpt lat="42.233981" lon="1.664529">
        <ele>1472.878424</ele>
        <time>2022-05-22T07:07:14.925Z</time>
      </trkpt>
      <trkpt lat="42.234048" lon="1.664397">
        <ele>1472.911969</ele>
        <time>2022-05-22T07:07:15.922Z</time>
      </trkpt>
      <trkpt lat="42.234118" lon="1.664273">
        <ele>1472.944653</ele>
        <time>2022-05-22T07:07:16.923Z</time>
      </trkpt>
      <trkpt lat="42.234188" lon="1.664148">
        <ele>1472.977503</ele>
        <time>2022-05-22T07:07:17.930Z</time>
      </trkpt>
      <trkpt lat="42.234257" lon="1.664019">
        <ele>1473.010860</ele>
        <time>2022-05-22T07:07:18.916Z</time>
      </trkpt>
      <trkpt lat="42.234321" lon="1.663898">
        <ele>1473.042028</ele>
        <time>2022-05-22T07:07:19.918Z</time>
      </trkpt>
      <trkpt lat="42.234381" lon="1.663773">
        <ele>1473.073253</ele>
        <time>2022-05-22T07:07:20.934Z</time>
      </trkpt>
      <trkpt lat="42.234442" lon="1.663651">
        <ele>1473.104109</ele>
        <time>2022-05-22T07:07:21.918Z</time>
      </trkpt>
      <trkpt lat="42.234510" lon="1.663543">
        <ele>1473.133825</ele>
        <time>2022-05-22T07:07:22.938Z</time>
      </trkpt>
      <trkpt lat="42.234582" lon="1.663458">
        <ele>1472.878105</ele>
        <time>2022-05-22T07:07:23.918Z</time>
      </trkpt>
      <trkpt lat="42.234702" lon="1.663330">
        <ele>1472.362625</ele>
        <time>2022-05-22T07:07:25.929Z</time>
      </trkpt>
      <trkpt lat="42.234785" lon="1.663152">
        <ele>1471.837575</ele>
        <time>2022-05-22T07:07:27.918Z</time>
      </trkpt>
      <trkpt lat="42.234811" lon="1.662925">
        <ele>1471.264250</ele>
        <time>2022-05-22T07:07:29.924Z</time>
      </trkpt>
      <trkpt lat="42.234862" lon="1.662764">
        <ele>1470.827165</ele>
        <time>2022-05-22T07:07:31.926Z</time>
      </trkpt>
      <trkpt lat="42.234921" lon="1.662659">
        <ele>1470.498161</ele>
        <time>2022-05-22T07:07:33.917Z</time>
      </trkpt>
      <trkpt lat="42.235005" lon="1.662556">
        <ele>1470.115695</ele>
        <time>2022-05-22T07:07:36.927Z</time>
      </trkpt>
      <trkpt lat="42.235088" lon="1.662463">
        <ele>1469.752141</ele>
        <time>2022-05-22T07:07:39.929Z</time>
      </trkpt>
      <trkpt lat="42.235135" lon="1.662350">
        <ele>1469.428640</ele>
        <time>2022-05-22T07:07:42.930Z</time>
      </trkpt>
      <trkpt lat="42.235209" lon="1.662264">
        <ele>1469.099539</ele>
        <time>2022-05-22T07:07:45.936Z</time>
      </trkpt>
      <trkpt lat="42.235276" lon="1.662148">
        <ele>1468.732329</ele>
        <time>2022-05-22T07:07:49.925Z</time>
      </trkpt>
      <trkpt lat="42.235342" lon="1.662064">
        <ele>1468.426616</ele>
        <time>2022-05-22T07:07:53.922Z</time>
      </trkpt>
      <trkpt lat="42.235419" lon="1.661987">
        <ele>1468.103635</ele>
        <time>2022-05-22T07:07:57.917Z</time>
      </trkpt>
      <trkpt lat="42.235486" lon="1.661887">
        <ele>1467.767016</ele>
        <time>2022-05-22T07:08:01.916Z</time>
      </trkpt>
      <trkpt lat="42.235572" lon="1.661811">
        <ele>1467.420556</ele>
        <time>2022-05-22T07:08:05.914Z</time>
      </trkpt>
      <trkpt lat="42.235651" lon="1.661702">
        <ele>1467.081116</ele>
        <time>2022-05-22T07:08:09.923Z</time>
      </trkpt>
      <trkpt lat="42.235731" lon="1.661630">
        <ele>1467.131799</ele>
        <time>2022-05-22T07:08:12.926Z</time>
      </trkpt>
      <trkpt lat="42.235808" lon="1.661554">
        <ele>1467.182077</ele>
        <time>2022-05-22T07:08:15.916Z</time>
      </trkpt>
      <trkpt lat="42.235902" lon="1.661478">
        <ele>1467.239835</ele>
        <time>2022-05-22T07:08:19.933Z</time>
      </trkpt>
      <trkpt lat="42.236011" lon="1.661453">
        <ele>1467.298123</ele>
        <time>2022-05-22T07:08:22.921Z</time>
      </trkpt>
      <trkpt lat="42.236101" lon="1.661430">
        <ele>1467.346413</ele>
        <time>2022-05-22T07:08:25.929Z</time>
      </trkpt>
      <trkpt lat="42.236197" lon="1.661356">
        <ele>1467.404688</ele>
        <time>2022-05-22T07:08:30.926Z</time>
      </trkpt>
      <trkpt lat="42.236262" lon="1.661267">
        <ele>1467.453485</ele>
        <time>2022-05-22T07:08:33.918Z</time>
      </trkpt>
      <trkpt lat="42.236346" lon="1.661156">
        <ele>1467.515439</ele>
        <time>2022-05-22T07:08:37.933Z</time>
      </trkpt>
      <trkpt lat="42.236436" lon="1.661050">
        <ele>1467.578394</ele>
        <time>2022-05-22T07:08:41.936Z</time>
      </trkpt>
      <trkpt lat="42.236515" lon="1.660933">
        <ele>1467.640202</ele>
        <time>2022-05-22T07:08:45.923Z</time>
      </trkpt>
      <trkpt lat="42.236549" lon="1.660817">
        <ele>1467.688899</ele>
        <time>2022-05-22T07:08:48.937Z</time>
      </trkpt>
      <trkpt lat="42.236615" lon="1.660693">
        <ele>1467.748510</ele>
        <time>2022-05-22T07:08:52.937Z</time>
      </trkpt>
      <trkpt lat="42.236696" lon="1.660579">
        <ele>1467.810183</ele>
        <time>2022-05-22T07:08:56.920Z</time>
      </trkpt>
      <trkpt lat="42.236765" lon="1.660467">
        <ele>1467.867055</ele>
        <time>2022-05-22T07:09:00.928Z</time>
      </trkpt>
      <trkpt lat="42.236875" lon="1.660407">
        <ele>1467.929598</ele>
        <time>2022-05-22T07:09:05.928Z</time>
      </trkpt>
      <trkpt lat="42.236967" lon="1.660336">
        <ele>1467.985460</ele>
        <time>2022-05-22T07:09:09.932Z</time>
      </trkpt>
      <trkpt lat="42.237060" lon="1.660247">
        <ele>1468.129919</ele>
        <time>2022-05-22T07:09:12.919Z</time>
      </trkpt>
      <trkpt lat="42.237143" lon="1.660169">
        <ele>1468.389900</ele>
        <time>2022-05-22T07:09:15.922Z</time>
      </trkpt>
      <trkpt lat="42.237224" lon="1.660098">
        <ele>1468.638178</ele>
        <time>2022-05-22T07:09:18.922Z</time>
      </trkpt>
      <trkpt lat="42.237311" lon="1.660032">
        <ele>1468.894739</ele>
        <time>2022-05-22T07:09:21.927Z</time>
      </trkpt>
      <trkpt lat="42.237398" lon="1.660000">
        <ele>1469.126577</ele>
        <time>2022-05-22T07:09:24.930Z</time>
      </trkpt>
      <trkpt lat="42.237515" lon="1.659976">
        <ele>1469.430855</ele>
        <time>2022-05-22T07:09:28.929Z</time>
      </trkpt>
      <trkpt lat="42.237622" lon="1.659937">
        <ele>1469.715812</ele>
        <time>2022-05-22T07:09:32.935Z</time>
      </trkpt>
      <trkpt lat="42.237722" lon="1.659869">
        <ele>1470.003676</ele>
        <time>2022-05-22T07:09:35.929Z</time>
      </trkpt>
      <trkpt lat="42.237794" lon="1.659779">
        <ele>1470.255912</ele>
        <time>2022-05-22T07:09:37.927Z</time>
      </trkpt>
      <trkpt lat="42.237887" lon="1.659721">
        <ele>1470.519291</ele>
        <time>2022-05-22T07:09:39.919Z</time>
      </trkpt>
      <trkpt lat="42.237981" lon="1.659636">
        <ele>1470.810144</ele>
        <time>2022-05-22T07:09:42.926Z</time>
      </trkpt>
      <trkpt lat="42.237961" lon="1.659513">
        <ele>1471.049867</ele>
        <time>2022-05-22T07:10:09.931Z</time>
      </trkpt>
      <trkpt lat="42.238055" lon="1.659522">
        <ele>1471.292164</ele>
        <time>2022-05-22T07:10:32.926Z</time>
      </trkpt>
      <trkpt lat="42.238148" lon="1.659508">
        <ele>1471.532765</ele>
        <time>2022-05-22T07:10:41.927Z</time>
      </trkpt>
      <trkpt lat="42.238063" lon="1.659563">
        <ele>1471.775099</ele>
        <time>2022-05-22T07:11:42.932Z</time>
      </trkpt>
      <trkpt lat="42.238160" lon="1.659532">
        <ele>1472.031389</ele>
        <time>2022-05-22T07:15:46.920Z</time>
      </trkpt>
      <trkpt lat="42.238257" lon="1.659470">
        <ele>1472.307309</ele>
        <time>2022-05-22T07:15:51.917Z</time>
      </trkpt>
      <trkpt lat="42.238352" lon="1.659397">
        <ele>1472.588333</ele>
        <time>2022-05-22T07:15:56.919Z</time>
      </trkpt>
      <trkpt lat="42.238439" lon="1.659331">
        <ele>1472.953452</ele>
        <time>2022-05-22T07:16:01.923Z</time>
      </trkpt>
      <trkpt lat="42.238527" lon="1.659282">
        <ele>1473.333417</ele>
        <time>2022-05-22T07:16:06.926Z</time>
      </trkpt>
      <trkpt lat="42.238617" lon="1.659265">
        <ele>1473.696182</ele>
        <time>2022-05-22T07:16:10.915Z</time>
      </trkpt>
      <trkpt lat="42.238709" lon="1.659232">
        <ele>1474.076164</ele>
        <time>2022-05-22T07:16:15.920Z</time>
      </trkpt>
      <trkpt lat="42.238793" lon="1.659187">
        <ele>1474.436893</ele>
        <time>2022-05-22T07:16:19.918Z</time>
      </trkpt>
      <trkpt lat="42.238892" lon="1.659141">
        <ele>1474.854819</ele>
        <time>2022-05-22T07:16:24.929Z</time>
      </trkpt>
      <trkpt lat="42.238988" lon="1.659095">
        <ele>1475.261438</ele>
        <time>2022-05-22T07:16:30.927Z</time>
      </trkpt>
      <trkpt lat="42.239076" lon="1.659047">
        <ele>1475.640286</ele>
        <time>2022-05-22T07:16:37.923Z</time>
      </trkpt>
      <trkpt lat="42.239180" lon="1.658995">
        <ele>1476.082973</ele>
        <time>2022-05-22T07:16:44.928Z</time>
      </trkpt>
      <trkpt lat="42.239280" lon="1.658950">
        <ele>1476.503731</ele>
        <time>2022-05-22T07:16:51.928Z</time>
      </trkpt>
      <trkpt lat="42.239372" lon="1.658905">
        <ele>1476.894323</ele>
        <time>2022-05-22T07:16:57.922Z</time>
      </trkpt>
      <trkpt lat="42.239468" lon="1.658842">
        <ele>1477.320379</ele>
        <time>2022-05-22T07:17:04.929Z</time>
      </trkpt>
      <trkpt lat="42.239557" lon="1.658797">
        <ele>1477.699732</ele>
        <time>2022-05-22T07:17:11.928Z</time>
      </trkpt>
      <trkpt lat="42.239651" lon="1.658738">
        <ele>1478.113502</ele>
        <time>2022-05-22T07:17:17.928Z</time>
      </trkpt>
      <trkpt lat="42.239732" lon="1.658668">
        <ele>1478.497361</ele>
        <time>2022-05-22T07:17:23.922Z</time>
      </trkpt>
      <trkpt lat="42.239824" lon="1.658617">
        <ele>1478.894339</ele>
        <time>2022-05-22T07:17:29.921Z</time>
      </trkpt>
      <trkpt lat="42.239928" lon="1.658591">
        <ele>1479.316546</ele>
        <time>2022-05-22T07:17:35.922Z</time>
      </trkpt>
      <trkpt lat="42.240032" lon="1.658544">
        <ele>1479.754322</ele>
        <time>2022-05-22T07:17:41.927Z</time>
      </trkpt>
      <trkpt lat="42.240124" lon="1.658507">
        <ele>1480.520787</ele>
        <time>2022-05-22T07:17:46.924Z</time>
      </trkpt>
      <trkpt lat="42.240216" lon="1.658475">
        <ele>1481.370243</ele>
        <time>2022-05-22T07:17:51.920Z</time>
      </trkpt>
      <trkpt lat="42.240298" lon="1.658418">
        <ele>1482.194841</ele>
        <time>2022-05-22T07:17:56.926Z</time>
      </trkpt>
      <trkpt lat="42.240395" lon="1.658353">
        <ele>1483.163033</ele>
        <time>2022-05-22T07:18:01.923Z</time>
      </trkpt>
      <trkpt lat="42.240500" lon="1.658295">
        <ele>1484.177364</ele>
        <time>2022-05-22T07:18:06.926Z</time>
      </trkpt>
      <trkpt lat="42.240601" lon="1.658264">
        <ele>1485.103479</ele>
        <time>2022-05-22T07:18:10.925Z</time>
      </trkpt>
      <trkpt lat="42.240686" lon="1.658217">
        <ele>1485.924724</ele>
        <time>2022-05-22T07:18:14.916Z</time>
      </trkpt>
      <trkpt lat="42.240788" lon="1.658223">
        <ele>1486.837623</ele>
        <time>2022-05-22T07:18:20.921Z</time>
      </trkpt>
      <trkpt lat="42.240886" lon="1.658180">
        <ele>1487.758964</ele>
        <time>2022-05-22T07:18:26.918Z</time>
      </trkpt>
      <trkpt lat="42.240984" lon="1.658123">
        <ele>1488.713016</ele>
        <time>2022-05-22T07:18:31.921Z</time>
      </trkpt>
      <trkpt lat="42.241070" lon="1.658078">
        <ele>1489.537668</ele>
        <time>2022-05-22T07:18:37.919Z</time>
      </trkpt>
      <trkpt lat="42.241162" lon="1.658055">
        <ele>1490.374258</ele>
        <time>2022-05-22T07:18:42.926Z</time>
      </trkpt>
      <trkpt lat="42.241261" lon="1.658056">
        <ele>1491.259493</ele>
        <time>2022-05-22T07:18:47.913Z</time>
      </trkpt>
      <trkpt lat="42.241347" lon="1.658001">
        <ele>1492.110298</ele>
        <time>2022-05-22T07:18:51.916Z</time>
      </trkpt>
      <trkpt lat="42.241454" lon="1.657945">
        <ele>1493.136344</ele>
        <time>2022-05-22T07:18:57.921Z</time>
      </trkpt>
      <trkpt lat="42.241547" lon="1.657918">
        <ele>1493.986896</ele>
        <time>2022-05-22T07:19:01.922Z</time>
      </trkpt>
      <trkpt lat="42.241647" lon="1.657868">
        <ele>1494.940339</ele>
        <time>2022-05-22T07:19:07.928Z</time>
      </trkpt>
      <trkpt lat="42.241736" lon="1.657825">
        <ele>1495.785508</ele>
        <time>2022-05-22T07:19:12.922Z</time>
      </trkpt>
      <trkpt lat="42.241827" lon="1.657780">
        <ele>1496.533090</ele>
        <time>2022-05-22T07:19:17.919Z</time>
      </trkpt>
      <trkpt lat="42.241919" lon="1.657782">
        <ele>1497.223796</ele>
        <time>2022-05-22T07:19:22.915Z</time>
      </trkpt>
      <trkpt lat="42.242019" lon="1.657764">
        <ele>1497.981101</ele>
        <time>2022-05-22T07:19:27.926Z</time>
      </trkpt>
      <trkpt lat="42.242111" lon="1.657760">
        <ele>1498.672075</ele>
        <time>2022-05-22T07:19:32.923Z</time>
      </trkpt>
      <trkpt lat="42.242209" lon="1.657728">
        <ele>1499.428921</ele>
        <time>2022-05-22T07:19:38.919Z</time>
      </trkpt>
      <trkpt lat="42.242303" lon="1.657733">
        <ele>1500.135097</ele>
        <time>2022-05-22T07:19:43.914Z</time>
      </trkpt>
      <trkpt lat="42.242409" lon="1.657735">
        <ele>1500.930885</ele>
        <time>2022-05-22T07:19:49.918Z</time>
      </trkpt>
      <trkpt lat="42.242513" lon="1.657753">
        <ele>1501.717964</ele>
        <time>2022-05-22T07:19:55.916Z</time>
      </trkpt>
      <trkpt lat="42.242610" lon="1.657771">
        <ele>1502.452952</ele>
        <time>2022-05-22T07:20:01.925Z</time>
      </trkpt>
      <trkpt lat="42.242707" lon="1.657792">
        <ele>1503.190395</ele>
        <time>2022-05-22T07:20:06.923Z</time>
      </trkpt>
      <trkpt lat="42.242794" lon="1.657831">
        <ele>1503.878501</ele>
        <time>2022-05-22T07:20:11.923Z</time>
      </trkpt>
      <trkpt lat="42.242866" lon="1.657927">
        <ele>1504.637932</ele>
        <time>2022-05-22T07:20:17.923Z</time>
      </trkpt>
      <trkpt lat="42.242928" lon="1.658032">
        <ele>1505.384319</ele>
        <time>2022-05-22T07:20:22.915Z</time>
      </trkpt>
      <trkpt lat="42.242978" lon="1.658141">
        <ele>1506.096915</ele>
        <time>2022-05-22T07:20:27.930Z</time>
      </trkpt>
      <trkpt lat="42.243033" lon="1.658241">
        <ele>1506.789220</ele>
        <time>2022-05-22T07:20:31.924Z</time>
      </trkpt>
      <trkpt lat="42.243106" lon="1.658342">
        <ele>1507.573646</ele>
        <time>2022-05-22T07:20:36.925Z</time>
      </trkpt>
      <trkpt lat="42.243179" lon="1.658432">
        <ele>1508.315562</ele>
        <time>2022-05-22T07:20:41.919Z</time>
      </trkpt>
      <trkpt lat="42.243239" lon="1.658535">
        <ele>1509.043912</ele>
        <time>2022-05-22T07:20:47.918Z</time>
      </trkpt>
      <trkpt lat="42.243306" lon="1.658644">
        <ele>1510.122289</ele>
        <time>2022-05-22T07:20:52.932Z</time>
      </trkpt>
      <trkpt lat="42.243363" lon="1.658761">
        <ele>1511.442144</ele>
        <time>2022-05-22T07:20:57.925Z</time>
      </trkpt>
      <trkpt lat="42.243402" lon="1.658891">
        <ele>1512.763945</ele>
        <time>2022-05-22T07:21:04.019Z</time>
      </trkpt>
      <trkpt lat="42.243465" lon="1.659009">
        <ele>1514.134909</ele>
        <time>2022-05-22T07:21:09.916Z</time>
      </trkpt>
      <trkpt lat="42.243557" lon="1.659083">
        <ele>1515.497882</ele>
        <time>2022-05-22T07:21:14.918Z</time>
      </trkpt>
      <trkpt lat="42.243648" lon="1.659145">
        <ele>1516.795235</ele>
        <time>2022-05-22T07:21:19.924Z</time>
      </trkpt>
      <trkpt lat="42.243731" lon="1.659203">
        <ele>1517.984752</ele>
        <time>2022-05-22T07:21:24.910Z</time>
      </trkpt>
      <trkpt lat="42.243808" lon="1.659281">
        <ele>1519.209878</ele>
        <time>2022-05-22T07:21:29.923Z</time>
      </trkpt>
      <trkpt lat="42.243893" lon="1.659351">
        <ele>1520.477074</ele>
        <time>2022-05-22T07:21:34.918Z</time>
      </trkpt>
      <trkpt lat="42.243984" lon="1.659417">
        <ele>1521.791831</ele>
        <time>2022-05-22T07:21:40.917Z</time>
      </trkpt>
      <trkpt lat="42.244060" lon="1.659498">
        <ele>1523.024102</ele>
        <time>2022-05-22T07:21:46.922Z</time>
      </trkpt>
      <trkpt lat="42.244146" lon="1.659565">
        <ele>1524.287825</ele>
        <time>2022-05-22T07:21:52.923Z</time>
      </trkpt>
      <trkpt lat="42.244240" lon="1.659615">
        <ele>1525.573788</ele>
        <time>2022-05-22T07:21:58.921Z</time>
      </trkpt>
      <trkpt lat="42.244319" lon="1.659680">
        <ele>1526.751245</ele>
        <time>2022-05-22T07:22:04.923Z</time>
      </trkpt>
      <trkpt lat="42.244394" lon="1.659755">
        <ele>1527.939061</ele>
        <time>2022-05-22T07:22:10.922Z</time>
      </trkpt>
      <trkpt lat="42.244486" lon="1.659811">
        <ele>1529.223545</ele>
        <time>2022-05-22T07:22:16.926Z</time>
      </trkpt>
      <trkpt lat="42.244566" lon="1.659874">
        <ele>1530.402287</ele>
        <time>2022-05-22T07:22:22.920Z</time>
      </trkpt>
      <trkpt lat="42.244650" lon="1.659926">
        <ele>1531.578466</ele>
        <time>2022-05-22T07:22:28.957Z</time>
      </trkpt>
      <trkpt lat="42.244743" lon="1.659974">
        <ele>1532.604359</ele>
        <time>2022-05-22T07:22:34.933Z</time>
      </trkpt>
      <trkpt lat="42.244841" lon="1.660026">
        <ele>1533.342908</ele>
        <time>2022-05-22T07:22:40.939Z</time>
      </trkpt>
      <trkpt lat="42.244941" lon="1.660045">
        <ele>1534.051260</ele>
        <time>2022-05-22T07:22:45.923Z</time>
      </trkpt>
      <trkpt lat="42.245017" lon="1.660122">
        <ele>1534.717640</ele>
        <time>2022-05-22T07:22:50.905Z</time>
      </trkpt>
      <trkpt lat="42.244971" lon="1.660242">
        <ele>1535.419345</ele>
        <time>2022-05-22T07:22:59.910Z</time>
      </trkpt>
      <trkpt lat="42.244881" lon="1.660164">
        <ele>1536.169405</ele>
        <time>2022-05-22T07:23:06.919Z</time>
      </trkpt>
      <trkpt lat="42.244838" lon="1.660034">
        <ele>1536.908772</ele>
        <time>2022-05-22T07:23:10.912Z</time>
      </trkpt>
      <trkpt lat="42.244769" lon="1.659933">
        <ele>1537.622433</ele>
        <time>2022-05-22T07:23:17.917Z</time>
      </trkpt>
      <trkpt lat="42.244682" lon="1.660003">
        <ele>1538.332742</ele>
        <time>2022-05-22T07:23:24.914Z</time>
      </trkpt>
      <trkpt lat="42.244576" lon="1.659990">
        <ele>1539.079334</ele>
        <time>2022-05-22T07:23:28.921Z</time>
      </trkpt>
      <trkpt lat="42.244478" lon="1.659985">
        <ele>1539.767243</ele>
        <time>2022-05-22T07:23:32.920Z</time>
      </trkpt>
      <trkpt lat="42.244374" lon="1.659989">
        <ele>1540.497044</ele>
        <time>2022-05-22T07:23:36.918Z</time>
      </trkpt>
      <trkpt lat="42.244278" lon="1.659972">
        <ele>1541.176194</ele>
        <time>2022-05-22T07:23:39.921Z</time>
      </trkpt>
      <trkpt lat="42.244177" lon="1.659972">
        <ele>1541.884656</ele>
        <time>2022-05-22T07:23:43.921Z</time>
      </trkpt>
      <trkpt lat="42.244075" lon="1.659967">
        <ele>1542.600603</ele>
        <time>2022-05-22T07:23:46.923Z</time>
      </trkpt>
      <trkpt lat="42.243980" lon="1.659952">
        <ele>1543.271515</ele>
        <time>2022-05-22T07:23:49.914Z</time>
      </trkpt>
      <trkpt lat="42.243874" lon="1.659960">
        <ele>1544.016209</ele>
        <time>2022-05-22T07:23:53.922Z</time>
      </trkpt>
      <trkpt lat="42.243767" lon="1.659931">
        <ele>1544.781715</ele>
        <time>2022-05-22T07:23:57.919Z</time>
      </trkpt>
      <trkpt lat="42.243678" lon="1.659911">
        <ele>1545.062428</ele>
        <time>2022-05-22T07:24:01.921Z</time>
      </trkpt>
      <trkpt lat="42.243569" lon="1.659878">
        <ele>1545.282827</ele>
        <time>2022-05-22T07:24:06.922Z</time>
      </trkpt>
      <trkpt lat="42.243477" lon="1.659837">
        <ele>1545.473973</ele>
        <time>2022-05-22T07:24:10.917Z</time>
      </trkpt>
      <trkpt lat="42.243390" lon="1.659802">
        <ele>1545.653080</ele>
        <time>2022-05-22T07:24:13.917Z</time>
      </trkpt>
      <trkpt lat="42.243296" lon="1.659774">
        <ele>1545.843003</ele>
        <time>2022-05-22T07:24:17.916Z</time>
      </trkpt>
      <trkpt lat="42.243200" lon="1.659754">
        <ele>1546.034657</ele>
        <time>2022-05-22T07:24:21.920Z</time>
      </trkpt>
      <trkpt lat="42.243109" lon="1.659719">
        <ele>1546.221341</ele>
        <time>2022-05-22T07:24:25.923Z</time>
      </trkpt>
      <trkpt lat="42.243024" lon="1.659654">
        <ele>1546.414061</ele>
        <time>2022-05-22T07:24:29.917Z</time>
      </trkpt>
      <trkpt lat="42.242918" lon="1.659652">
        <ele>1546.623226</ele>
        <time>2022-05-22T07:24:35.914Z</time>
      </trkpt>
      <trkpt lat="42.242865" lon="1.659764">
        <ele>1546.817386</ele>
        <time>2022-05-22T07:24:41.922Z</time>
      </trkpt>
      <trkpt lat="42.242952" lon="1.659857">
        <ele>1547.036290</ele>
        <time>2022-05-22T07:24:46.913Z</time>
      </trkpt>
      <trkpt lat="42.243036" lon="1.659906">
        <ele>1547.216820</ele>
        <time>2022-05-22T07:24:49.915Z</time>
      </trkpt>
      <trkpt lat="42.243145" lon="1.659961">
        <ele>1547.446399</ele>
        <time>2022-05-22T07:24:53.926Z</time>
      </trkpt>
      <trkpt lat="42.243233" lon="1.659995">
        <ele>1547.626991</ele>
        <time>2022-05-22T07:24:57.920Z</time>
      </trkpt>
      <trkpt lat="42.243315" lon="1.660055">
        <ele>1547.810993</ele>
        <time>2022-05-22T07:25:02.914Z</time>
      </trkpt>
      <trkpt lat="42.243389" lon="1.660127">
        <ele>1547.990932</ele>
        <time>2022-05-22T07:25:06.920Z</time>
      </trkpt>
      <trkpt lat="42.243467" lon="1.660197">
        <ele>1548.175699</ele>
        <time>2022-05-22T07:25:11.916Z</time>
      </trkpt>
      <trkpt lat="42.243548" lon="1.660261">
        <ele>1548.360849</ele>
        <time>2022-05-22T07:25:16.921Z</time>
      </trkpt>
      <trkpt lat="42.243641" lon="1.660321">
        <ele>1548.466181</ele>
        <time>2022-05-22T07:25:20.914Z</time>
      </trkpt>
      <trkpt lat="42.243707" lon="1.660413">
        <ele>1548.451219</ele>
        <time>2022-05-22T07:25:26.918Z</time>
      </trkpt>
      <trkpt lat="42.243782" lon="1.660501">
        <ele>1548.435547</ele>
        <time>2022-05-22T07:25:36.917Z</time>
      </trkpt>
      <trkpt lat="42.243862" lon="1.660585">
        <ele>1548.419562</ele>
        <time>2022-05-22T07:25:43.918Z</time>
      </trkpt>
      <trkpt lat="42.243950" lon="1.660626">
        <ele>1548.404877</ele>
        <time>2022-05-22T07:25:49.917Z</time>
      </trkpt>
      <trkpt lat="42.244039" lon="1.660645">
        <ele>1548.390662</ele>
        <time>2022-05-22T07:25:53.918Z</time>
      </trkpt>
      <trkpt lat="42.244162" lon="1.660692">
        <ele>1548.370496</ele>
        <time>2022-05-22T07:25:58.910Z</time>
      </trkpt>
      <trkpt lat="42.244258" lon="1.660703">
        <ele>1548.355297</ele>
        <time>2022-05-22T07:26:01.916Z</time>
      </trkpt>
      <trkpt lat="42.244358" lon="1.660734">
        <ele>1548.339112</ele>
        <time>2022-05-22T07:26:06.916Z</time>
      </trkpt>
      <trkpt lat="42.244447" lon="1.660807">
        <ele>1548.322685</ele>
        <time>2022-05-22T07:26:12.915Z</time>
      </trkpt>
      <trkpt lat="42.244520" lon="1.660888">
        <ele>1548.307782</ele>
        <time>2022-05-22T07:26:16.916Z</time>
      </trkpt>
      <trkpt lat="42.244624" lon="1.660947">
        <ele>1548.289987</ele>
        <time>2022-05-22T07:26:20.911Z</time>
      </trkpt>
      <trkpt lat="42.244714" lon="1.661020">
        <ele>1548.273426</ele>
        <time>2022-05-22T07:26:25.919Z</time>
      </trkpt>
      <trkpt lat="42.244796" lon="1.661075">
        <ele>1548.258983</ele>
        <time>2022-05-22T07:26:30.920Z</time>
      </trkpt>
      <trkpt lat="42.244904" lon="1.661134">
        <ele>1548.240605</ele>
        <time>2022-05-22T07:26:34.915Z</time>
      </trkpt>
      <trkpt lat="42.244972" lon="1.661231">
        <ele>1548.225003</ele>
        <time>2022-05-22T07:26:38.916Z</time>
      </trkpt>
      <trkpt lat="42.245036" lon="1.661319">
        <ele>1548.210597</ele>
        <time>2022-05-22T07:26:44.916Z</time>
      </trkpt>
      <trkpt lat="42.245103" lon="1.661410">
        <ele>1548.195608</ele>
        <time>2022-05-22T07:26:51.907Z</time>
      </trkpt>
      <trkpt lat="42.245190" lon="1.661442">
        <ele>1548.473309</ele>
        <time>2022-05-22T07:26:59.908Z</time>
      </trkpt>
      <trkpt lat="42.245269" lon="1.661530">
        <ele>1549.024997</ele>
        <time>2022-05-22T07:27:05.914Z</time>
      </trkpt>
      <trkpt lat="42.245337" lon="1.661613">
        <ele>1549.518777</ele>
        <time>2022-05-22T07:27:09.921Z</time>
      </trkpt>
      <trkpt lat="42.245393" lon="1.661712">
        <ele>1550.015715</ele>
        <time>2022-05-22T07:27:12.915Z</time>
      </trkpt>
      <trkpt lat="42.245460" lon="1.661814">
        <ele>1550.559604</ele>
        <time>2022-05-22T07:27:15.918Z</time>
      </trkpt>
      <trkpt lat="42.245513" lon="1.661936">
        <ele>1551.123797</ele>
        <time>2022-05-22T07:27:19.906Z</time>
      </trkpt>
      <trkpt lat="42.245544" lon="1.662062">
        <ele>1551.653371</ele>
        <time>2022-05-22T07:27:23.916Z</time>
      </trkpt>
      <trkpt lat="42.245580" lon="1.662177">
        <ele>1552.151368</ele>
        <time>2022-05-22T07:27:27.912Z</time>
      </trkpt>
      <trkpt lat="42.245633" lon="1.662283">
        <ele>1552.661546</ele>
        <time>2022-05-22T07:27:31.909Z</time>
      </trkpt>
      <trkpt lat="42.245700" lon="1.662390">
        <ele>1553.220507</ele>
        <time>2022-05-22T07:27:35.911Z</time>
      </trkpt>
      <trkpt lat="42.245779" lon="1.662484">
        <ele>1553.787718</ele>
        <time>2022-05-22T07:27:40.910Z</time>
      </trkpt>
      <trkpt lat="42.245853" lon="1.662559">
        <ele>1554.286158</ele>
        <time>2022-05-22T07:27:44.907Z</time>
      </trkpt>
      <trkpt lat="42.245943" lon="1.662640">
        <ele>1554.868827</ele>
        <time>2022-05-22T07:27:48.905Z</time>
      </trkpt>
      <trkpt lat="42.246058" lon="1.662605">
        <ele>1555.503958</ele>
        <time>2022-05-22T07:27:57.912Z</time>
      </trkpt>
      <trkpt lat="42.246125" lon="1.662515">
        <ele>1556.013037</ele>
        <time>2022-05-22T07:28:00.912Z</time>
      </trkpt>
      <trkpt lat="42.246172" lon="1.662373">
        <ele>1556.633426</ele>
        <time>2022-05-22T07:28:04.909Z</time>
      </trkpt>
      <trkpt lat="42.246195" lon="1.662222">
        <ele>1557.248293</ele>
        <time>2022-05-22T07:28:08.918Z</time>
      </trkpt>
      <trkpt lat="42.246225" lon="1.662077">
        <ele>1557.848776</ele>
        <time>2022-05-22T07:28:12.919Z</time>
      </trkpt>
      <trkpt lat="42.246280" lon="1.661957">
        <ele>1558.794157</ele>
        <time>2022-05-22T07:28:16.911Z</time>
      </trkpt>
      <trkpt lat="42.246322" lon="1.661825">
        <ele>1559.779774</ele>
        <time>2022-05-22T07:28:21.914Z</time>
      </trkpt>
      <trkpt lat="42.246371" lon="1.661706">
        <ele>1560.713899</ele>
        <time>2022-05-22T07:28:26.915Z</time>
      </trkpt>
      <trkpt lat="42.246420" lon="1.661590">
        <ele>1561.630093</ele>
        <time>2022-05-22T07:28:30.917Z</time>
      </trkpt>
      <trkpt lat="42.246429" lon="1.661449">
        <ele>1562.600934</ele>
        <time>2022-05-22T07:28:35.912Z</time>
      </trkpt>
      <trkpt lat="42.246448" lon="1.661319">
        <ele>1563.509941</ele>
        <time>2022-05-22T07:28:39.923Z</time>
      </trkpt>
      <trkpt lat="42.246439" lon="1.661184">
        <ele>1564.439780</ele>
        <time>2022-05-22T07:28:44.920Z</time>
      </trkpt>
      <trkpt lat="42.246453" lon="1.661054">
        <ele>1565.340960</ele>
        <time>2022-05-22T07:28:48.918Z</time>
      </trkpt>
      <trkpt lat="42.246472" lon="1.660931">
        <ele>1566.202907</ele>
        <time>2022-05-22T07:28:52.909Z</time>
      </trkpt>
      <trkpt lat="42.246514" lon="1.660801">
        <ele>1567.175932</ele>
        <time>2022-05-22T07:28:58.916Z</time>
      </trkpt>
      <trkpt lat="42.246526" lon="1.660674">
        <ele>1568.054211</ele>
        <time>2022-05-22T07:29:02.916Z</time>
      </trkpt>
      <trkpt lat="42.246582" lon="1.660566">
        <ele>1568.958754</ele>
        <time>2022-05-22T07:29:06.911Z</time>
      </trkpt>
      <trkpt lat="42.246663" lon="1.660510">
        <ele>1569.801967</ele>
        <time>2022-05-22T07:29:10.917Z</time>
      </trkpt>
      <trkpt lat="42.246710" lon="1.660372">
        <ele>1570.844023</ele>
        <time>2022-05-22T07:29:16.918Z</time>
      </trkpt>
      <trkpt lat="42.246778" lon="1.660259">
        <ele>1571.843012</ele>
        <time>2022-05-22T07:29:21.911Z</time>
      </trkpt>
      <trkpt lat="42.246836" lon="1.660160">
        <ele>1572.709097</ele>
        <time>2022-05-22T07:29:26.908Z</time>
      </trkpt>
      <trkpt lat="42.246911" lon="1.660083">
        <ele>1573.582058</ele>
        <time>2022-05-22T07:29:30.912Z</time>
      </trkpt>
      <trkpt lat="42.246974" lon="1.659978">
        <ele>1574.509235</ele>
        <time>2022-05-22T07:29:35.914Z</time>
      </trkpt>
      <trkpt lat="42.247034" lon="1.659873">
        <ele>1575.079347</ele>
        <time>2022-05-22T07:29:40.915Z</time>
      </trkpt>
      <trkpt lat="42.247090" lon="1.659772">
        <ele>1575.607181</ele>
        <time>2022-05-22T07:29:45.914Z</time>
      </trkpt>
      <trkpt lat="42.247179" lon="1.659704">
        <ele>1576.184945</ele>
        <time>2022-05-22T07:29:52.918Z</time>
      </trkpt>
      <trkpt lat="42.247265" lon="1.659632">
        <ele>1576.756650</ele>
        <time>2022-05-22T07:30:00.913Z</time>
      </trkpt>
      <trkpt lat="42.247353" lon="1.659584">
        <ele>1577.292905</ele>
        <time>2022-05-22T07:30:04.911Z</time>
      </trkpt>
      <trkpt lat="42.247444" lon="1.659540">
        <ele>1577.839052</ele>
        <time>2022-05-22T07:30:09.912Z</time>
      </trkpt>
      <trkpt lat="42.247544" lon="1.659529">
        <ele>1578.405979</ele>
        <time>2022-05-22T07:30:17.918Z</time>
      </trkpt>
      <trkpt lat="42.247652" lon="1.659513">
        <ele>1579.019900</ele>
        <time>2022-05-22T07:30:23.916Z</time>
      </trkpt>
      <trkpt lat="42.247751" lon="1.659538">
        <ele>1579.588996</ele>
        <time>2022-05-22T07:30:31.912Z</time>
      </trkpt>
      <trkpt lat="42.247849" lon="1.659518">
        <ele>1580.149036</ele>
        <time>2022-05-22T07:30:37.912Z</time>
      </trkpt>
      <trkpt lat="42.247940" lon="1.659471">
        <ele>1580.699537</ele>
        <time>2022-05-22T07:30:41.911Z</time>
      </trkpt>
      <trkpt lat="42.248032" lon="1.659436">
        <ele>1581.239610</ele>
        <time>2022-05-22T07:30:45.921Z</time>
      </trkpt>
      <trkpt lat="42.248137" lon="1.659379">
        <ele>1581.879032</ele>
        <time>2022-05-22T07:30:51.915Z</time>
      </trkpt>
      <trkpt lat="42.248218" lon="1.659324">
        <ele>1582.391292</ele>
        <time>2022-05-22T07:30:54.916Z</time>
      </trkpt>
      <trkpt lat="42.248333" lon="1.659287">
        <ele>1583.059283</ele>
        <time>2022-05-22T07:30:58.911Z</time>
      </trkpt>
      <trkpt lat="42.248442" lon="1.659261">
        <ele>1583.684723</ele>
        <time>2022-05-22T07:31:02.913Z</time>
      </trkpt>
      <trkpt lat="42.248540" lon="1.659191">
        <ele>1584.311120</ele>
        <time>2022-05-22T07:31:08.917Z</time>
      </trkpt>
      <trkpt lat="42.248629" lon="1.659138">
        <ele>1584.919113</ele>
        <time>2022-05-22T07:31:15.915Z</time>
      </trkpt>
      <trkpt lat="42.248730" lon="1.659139">
        <ele>1585.713574</ele>
        <time>2022-05-22T07:31:22.913Z</time>
      </trkpt>
      <trkpt lat="42.248817" lon="1.659084">
        <ele>1586.469117</ele>
        <time>2022-05-22T07:31:29.915Z</time>
      </trkpt>
      <trkpt lat="42.248903" lon="1.658994">
        <ele>1587.324798</ele>
        <time>2022-05-22T07:31:34.915Z</time>
      </trkpt>
      <trkpt lat="42.248970" lon="1.658866">
        <ele>1588.237580</ele>
        <time>2022-05-22T07:31:39.918Z</time>
      </trkpt>
      <trkpt lat="42.248986" lon="1.658732">
        <ele>1589.027875</ele>
        <time>2022-05-22T07:31:43.912Z</time>
      </trkpt>
      <trkpt lat="42.249018" lon="1.658606">
        <ele>1589.803483</ele>
        <time>2022-05-22T07:31:49.910Z</time>
      </trkpt>
      <trkpt lat="42.249059" lon="1.658495">
        <ele>1590.525769</ele>
        <time>2022-05-22T07:31:54.913Z</time>
      </trkpt>
      <trkpt lat="42.249135" lon="1.658417">
        <ele>1591.276512</ele>
        <time>2022-05-22T07:32:01.909Z</time>
      </trkpt>
      <trkpt lat="42.249202" lon="1.658309">
        <ele>1592.096971</ele>
        <time>2022-05-22T07:32:06.912Z</time>
      </trkpt>
      <trkpt lat="42.249214" lon="1.658183">
        <ele>1592.836646</ele>
        <time>2022-05-22T07:32:11.907Z</time>
      </trkpt>
      <trkpt lat="42.249253" lon="1.658053">
        <ele>1593.653364</ele>
        <time>2022-05-22T07:32:17.909Z</time>
      </trkpt>
      <trkpt lat="42.249310" lon="1.657958">
        <ele>1594.365382</ele>
        <time>2022-05-22T07:32:22.914Z</time>
      </trkpt>
      <trkpt lat="42.249402" lon="1.657890">
        <ele>1595.190260</ele>
        <time>2022-05-22T07:32:27.917Z</time>
      </trkpt>
      <trkpt lat="42.249487" lon="1.657826">
        <ele>1595.955680</ele>
        <time>2022-05-22T07:32:31.914Z</time>
      </trkpt>
      <trkpt lat="42.249595" lon="1.657782">
        <ele>1596.842969</ele>
        <time>2022-05-22T07:32:35.915Z</time>
      </trkpt>
      <trkpt lat="42.249689" lon="1.657727">
        <ele>1597.648718</ele>
        <time>2022-05-22T07:32:40.910Z</time>
      </trkpt>
      <trkpt lat="42.249780" lon="1.657688">
        <ele>1598.399656</ele>
        <time>2022-05-22T07:32:45.919Z</time>
      </trkpt>
      <trkpt lat="42.249879" lon="1.657715">
        <ele>1599.194253</ele>
        <time>2022-05-22T07:32:49.906Z</time>
      </trkpt>
      <trkpt lat="42.249974" lon="1.657767">
        <ele>1600.000936</ele>
        <time>2022-05-22T07:32:55.910Z</time>
      </trkpt>
      <trkpt lat="42.250048" lon="1.657866">
        <ele>1600.820552</ele>
        <time>2022-05-22T07:32:59.911Z</time>
      </trkpt>
      <trkpt lat="42.250154" lon="1.657909">
        <ele>1601.691564</ele>
        <time>2022-05-22T07:33:09.910Z</time>
      </trkpt>
      <trkpt lat="42.250249" lon="1.658003">
        <ele>1602.618295</ele>
        <time>2022-05-22T07:33:12.910Z</time>
      </trkpt>
      <trkpt lat="42.250337" lon="1.658037">
        <ele>1603.338617</ele>
        <time>2022-05-22T07:33:18.908Z</time>
      </trkpt>
      <trkpt lat="42.250363" lon="1.657888">
        <ele>1604.230400</ele>
        <time>2022-05-22T07:33:23.908Z</time>
      </trkpt>
      <trkpt lat="42.250369" lon="1.657739">
        <ele>1605.099675</ele>
        <time>2022-05-22T07:33:26.896Z</time>
      </trkpt>
      <trkpt lat="42.250410" lon="1.657553">
        <ele>1606.230231</ele>
        <time>2022-05-22T07:33:29.904Z</time>
      </trkpt>
      <trkpt lat="42.250437" lon="1.657410">
        <ele>1607.089942</ele>
        <time>2022-05-22T07:33:31.900Z</time>
      </trkpt>
      <trkpt lat="42.250472" lon="1.657261">
        <ele>1608.000589</ele>
        <time>2022-05-22T07:33:35.902Z</time>
      </trkpt>
      <trkpt lat="42.250457" lon="1.657133">
        <ele>1608.755532</ele>
        <time>2022-05-22T07:33:38.911Z</time>
      </trkpt>
      <trkpt lat="42.250421" lon="1.656989">
        <ele>1609.640947</ele>
        <time>2022-05-22T07:33:42.906Z</time>
      </trkpt>
      <trkpt lat="42.250362" lon="1.656894">
        <ele>1610.363353</ele>
        <time>2022-05-22T07:33:45.905Z</time>
      </trkpt>
      <trkpt lat="42.250352" lon="1.656727">
        <ele>1611.339380</ele>
        <time>2022-05-22T07:33:50.910Z</time>
      </trkpt>
      <trkpt lat="42.250314" lon="1.656613">
        <ele>1612.067711</ele>
        <time>2022-05-22T07:33:53.921Z</time>
      </trkpt>
      <trkpt lat="42.250354" lon="1.656488">
        <ele>1612.861024</ele>
        <time>2022-05-22T07:33:56.901Z</time>
      </trkpt>
      <trkpt lat="42.250342" lon="1.656368">
        <ele>1614.244742</ele>
        <time>2022-05-22T07:34:00.917Z</time>
      </trkpt>
      <trkpt lat="42.250296" lon="1.656246">
        <ele>1616.022840</ele>
        <time>2022-05-22T07:34:05.930Z</time>
      </trkpt>
      <trkpt lat="42.250211" lon="1.656174">
        <ele>1617.783035</ele>
        <time>2022-05-22T07:34:10.928Z</time>
      </trkpt>
      <trkpt lat="42.250111" lon="1.656116">
        <ele>1619.692359</ele>
        <time>2022-05-22T07:34:15.939Z</time>
      </trkpt>
      <trkpt lat="42.250049" lon="1.656011">
        <ele>1621.436694</ele>
        <time>2022-05-22T07:34:20.929Z</time>
      </trkpt>
      <trkpt lat="42.250011" lon="1.655891">
        <ele>1623.131737</ele>
        <time>2022-05-22T07:34:25.912Z</time>
      </trkpt>
      <trkpt lat="42.249968" lon="1.655760">
        <ele>1624.992788</ele>
        <time>2022-05-22T07:34:30.917Z</time>
      </trkpt>
      <trkpt lat="42.249898" lon="1.655642">
        <ele>1626.956638</ele>
        <time>2022-05-22T07:34:35.913Z</time>
      </trkpt>
      <trkpt lat="42.249829" lon="1.655545">
        <ele>1628.703758</ele>
        <time>2022-05-22T07:34:40.908Z</time>
      </trkpt>
      <trkpt lat="42.249779" lon="1.655432">
        <ele>1630.413483</ele>
        <time>2022-05-22T07:34:46.926Z</time>
      </trkpt>
      <trkpt lat="42.249756" lon="1.655300">
        <ele>1632.174611</ele>
        <time>2022-05-22T07:34:52.915Z</time>
      </trkpt>
      <trkpt lat="42.249754" lon="1.655164">
        <ele>1633.941182</ele>
        <time>2022-05-22T07:34:58.909Z</time>
      </trkpt>
      <trkpt lat="42.249765" lon="1.655043">
        <ele>1635.524407</ele>
        <time>2022-05-22T07:35:04.924Z</time>
      </trkpt>
      <trkpt lat="42.249760" lon="1.654919">
        <ele>1637.137174</ele>
        <time>2022-05-22T07:35:10.926Z</time>
      </trkpt>
      <trkpt lat="42.249772" lon="1.654794">
        <ele>1638.774135</ele>
        <time>2022-05-22T07:35:16.917Z</time>
      </trkpt>
      <trkpt lat="42.249773" lon="1.654672">
        <ele>1640.358637</ele>
        <time>2022-05-22T07:35:22.918Z</time>
      </trkpt>
      <trkpt lat="42.249745" lon="1.654551">
        <ele>1642.005052</ele>
        <time>2022-05-22T07:35:27.919Z</time>
      </trkpt>
      <trkpt lat="42.249728" lon="1.654417">
        <ele>1643.770676</ele>
        <time>2022-05-22T07:35:34.933Z</time>
      </trkpt>
      <trkpt lat="42.249716" lon="1.654275">
        <ele>1645.203993</ele>
        <time>2022-05-22T07:35:41.916Z</time>
      </trkpt>
      <trkpt lat="42.249696" lon="1.654149">
        <ele>1646.207199</ele>
        <time>2022-05-22T07:35:47.937Z</time>
      </trkpt>
      <trkpt lat="42.249684" lon="1.654010">
        <ele>1647.296646</ele>
        <time>2022-05-22T07:35:54.924Z</time>
      </trkpt>
      <trkpt lat="42.249687" lon="1.653874">
        <ele>1648.355873</ele>
        <time>2022-05-22T07:36:00.925Z</time>
      </trkpt>
      <trkpt lat="42.249696" lon="1.653750">
        <ele>1649.325840</ele>
        <time>2022-05-22T07:36:07.930Z</time>
      </trkpt>
      <trkpt lat="42.249701" lon="1.653616">
        <ele>1650.370351</ele>
        <time>2022-05-22T07:36:14.933Z</time>
      </trkpt>
      <trkpt lat="42.249695" lon="1.653492">
        <ele>1651.337749</ele>
        <time>2022-05-22T07:36:20.923Z</time>
      </trkpt>
      <trkpt lat="42.249687" lon="1.653365">
        <ele>1652.330015</ele>
        <time>2022-05-22T07:36:27.926Z</time>
      </trkpt>
      <trkpt lat="42.249684" lon="1.653222">
        <ele>1653.443714</ele>
        <time>2022-05-22T07:36:34.915Z</time>
      </trkpt>
      <trkpt lat="42.249691" lon="1.653096">
        <ele>1654.427380</ele>
        <time>2022-05-22T07:36:41.924Z</time>
      </trkpt>
      <trkpt lat="42.249710" lon="1.652961">
        <ele>1655.497180</ele>
        <time>2022-05-22T07:36:49.923Z</time>
      </trkpt>
      <trkpt lat="42.249713" lon="1.652831">
        <ele>1656.509719</ele>
        <time>2022-05-22T07:36:55.925Z</time>
      </trkpt>
      <trkpt lat="42.249728" lon="1.652699">
        <ele>1657.549374</ele>
        <time>2022-05-22T07:37:01.925Z</time>
      </trkpt>
      <trkpt lat="42.249725" lon="1.652556">
        <ele>1658.663072</ele>
        <time>2022-05-22T07:37:14.922Z</time>
      </trkpt>
      <trkpt lat="42.249715" lon="1.652421">
        <ele>1659.719293</ele>
        <time>2022-05-22T07:37:18.922Z</time>
      </trkpt>
      <trkpt lat="42.249728" lon="1.652295">
        <ele>1660.709683</ele>
        <time>2022-05-22T07:37:22.916Z</time>
      </trkpt>
      <trkpt lat="42.249767" lon="1.652176">
        <ele>1661.722834</ele>
        <time>2022-05-22T07:37:26.923Z</time>
      </trkpt>
      <trkpt lat="42.249802" lon="1.652039">
        <ele>1662.851109</ele>
        <time>2022-05-22T07:37:32.919Z</time>
      </trkpt>
      <trkpt lat="42.249832" lon="1.651910">
        <ele>1663.856179</ele>
        <time>2022-05-22T07:37:37.924Z</time>
      </trkpt>
      <trkpt lat="42.249833" lon="1.651785">
        <ele>1664.718040</ele>
        <time>2022-05-22T07:37:42.923Z</time>
      </trkpt>
      <trkpt lat="42.249830" lon="1.651660">
        <ele>1665.580304</ele>
        <time>2022-05-22T07:37:47.923Z</time>
      </trkpt>
      <trkpt lat="42.249825" lon="1.651518">
        <ele>1666.560428</ele>
        <time>2022-05-22T07:37:53.926Z</time>
      </trkpt>
      <trkpt lat="42.249856" lon="1.651392">
        <ele>1667.475861</ele>
        <time>2022-05-22T07:37:59.931Z</time>
      </trkpt>
      <trkpt lat="42.249903" lon="1.651283">
        <ele>1668.345566</ele>
        <time>2022-05-22T07:38:04.915Z</time>
      </trkpt>
      <trkpt lat="42.249979" lon="1.651214">
        <ele>1669.198438</ele>
        <time>2022-05-22T07:38:11.924Z</time>
      </trkpt>
      <trkpt lat="42.250042" lon="1.651120">
        <ele>1670.072697</ele>
        <time>2022-05-22T07:38:19.927Z</time>
      </trkpt>
      <trkpt lat="42.250101" lon="1.651022">
        <ele>1670.943615</ele>
        <time>2022-05-22T07:38:26.937Z</time>
      </trkpt>
      <trkpt lat="42.250179" lon="1.650944">
        <ele>1671.847493</ele>
        <time>2022-05-22T07:38:32.932Z</time>
      </trkpt>
      <trkpt lat="42.250260" lon="1.650884">
        <ele>1672.707902</ele>
        <time>2022-05-22T07:38:36.929Z</time>
      </trkpt>
      <trkpt lat="42.250361" lon="1.650834">
        <ele>1673.709798</ele>
        <time>2022-05-22T07:38:40.927Z</time>
      </trkpt>
      <trkpt lat="42.250458" lon="1.650781">
        <ele>1674.684362</ele>
        <time>2022-05-22T07:38:43.931Z</time>
      </trkpt>
      <trkpt lat="42.250578" lon="1.650767">
        <ele>1675.806214</ele>
        <time>2022-05-22T07:38:46.938Z</time>
      </trkpt>
      <trkpt lat="42.250670" lon="1.650744">
        <ele>1676.677660</ele>
        <time>2022-05-22T07:38:48.935Z</time>
      </trkpt>
      <trkpt lat="42.250797" lon="1.650702">
        <ele>1677.895478</ele>
        <time>2022-05-22T07:38:50.924Z</time>
      </trkpt>
      <trkpt lat="42.250925" lon="1.650673">
        <ele>1679.104332</ele>
        <time>2022-05-22T07:38:52.930Z</time>
      </trkpt>
      <trkpt lat="42.251041" lon="1.650614">
        <ele>1680.235173</ele>
        <time>2022-05-22T07:38:54.922Z</time>
      </trkpt>
      <trkpt lat="42.251168" lon="1.650528">
        <ele>1679.851408</ele>
        <time>2022-05-22T07:38:56.926Z</time>
      </trkpt>
      <trkpt lat="42.251291" lon="1.650374">
        <ele>1679.398382</ele>
        <time>2022-05-22T07:38:58.913Z</time>
      </trkpt>
      <trkpt lat="42.251352" lon="1.650276">
        <ele>1679.142345</ele>
        <time>2022-05-22T07:38:59.923Z</time>
      </trkpt>
      <trkpt lat="42.251412" lon="1.650168">
        <ele>1678.872330</ele>
        <time>2022-05-22T07:39:00.923Z</time>
      </trkpt>
      <trkpt lat="42.251465" lon="1.650046">
        <ele>1678.589468</ele>
        <time>2022-05-22T07:39:01.924Z</time>
      </trkpt>
      <trkpt lat="42.251521" lon="1.649917">
        <ele>1678.290433</ele>
        <time>2022-05-22T07:39:02.923Z</time>
      </trkpt>
      <trkpt lat="42.251575" lon="1.649779">
        <ele>1677.978304</ele>
        <time>2022-05-22T07:39:03.921Z</time>
      </trkpt>
      <trkpt lat="42.251618" lon="1.649629">
        <ele>1677.656658</ele>
        <time>2022-05-22T07:39:04.919Z</time>
      </trkpt>
      <trkpt lat="42.251647" lon="1.649481">
        <ele>1677.350526</ele>
        <time>2022-05-22T07:39:05.921Z</time>
      </trkpt>
      <trkpt lat="42.251671" lon="1.649343">
        <ele>1677.067069</ele>
        <time>2022-05-22T07:39:06.924Z</time>
      </trkpt>
      <trkpt lat="42.251701" lon="1.649205">
        <ele>1676.779472</ele>
        <time>2022-05-22T07:39:07.919Z</time>
      </trkpt>
      <trkpt lat="42.251739" lon="1.649069">
        <ele>1676.488799</ele>
        <time>2022-05-22T07:39:08.930Z</time>
      </trkpt>
      <trkpt lat="42.251784" lon="1.648939">
        <ele>1676.201833</ele>
        <time>2022-05-22T07:39:09.928Z</time>
      </trkpt>
      <trkpt lat="42.251840" lon="1.648817">
        <ele>1675.914786</ele>
        <time>2022-05-22T07:39:10.934Z</time>
      </trkpt>
      <trkpt lat="42.251914" lon="1.648698">
        <ele>1675.604009</ele>
        <time>2022-05-22T07:39:11.926Z</time>
      </trkpt>
      <trkpt lat="42.251997" lon="1.648578">
        <ele>1675.124037</ele>
        <time>2022-05-22T07:39:12.926Z</time>
      </trkpt>
      <trkpt lat="42.252087" lon="1.648442">
        <ele>1674.237659</ele>
        <time>2022-05-22T07:39:13.926Z</time>
      </trkpt>
      <trkpt lat="42.252180" lon="1.648295">
        <ele>1673.298077</ele>
        <time>2022-05-22T07:39:14.926Z</time>
      </trkpt>
      <trkpt lat="42.252256" lon="1.648165">
        <ele>1672.493186</ele>
        <time>2022-05-22T07:39:15.923Z</time>
      </trkpt>
      <trkpt lat="42.252318" lon="1.648023">
        <ele>1671.692152</ele>
        <time>2022-05-22T07:39:16.934Z</time>
      </trkpt>
      <trkpt lat="42.252380" lon="1.647871">
        <ele>1670.848907</ele>
        <time>2022-05-22T07:39:17.923Z</time>
      </trkpt>
      <trkpt lat="42.252444" lon="1.647718">
        <ele>1669.995023</ele>
        <time>2022-05-22T07:39:18.924Z</time>
      </trkpt>
      <trkpt lat="42.252500" lon="1.647564">
        <ele>1669.161356</ele>
        <time>2022-05-22T07:39:19.924Z</time>
      </trkpt>
      <trkpt lat="42.252566" lon="1.647423">
        <ele>1668.350780</ele>
        <time>2022-05-22T07:39:20.923Z</time>
      </trkpt>
      <trkpt lat="42.252632" lon="1.647287">
        <ele>1667.560631</ele>
        <time>2022-05-22T07:39:21.922Z</time>
      </trkpt>
      <trkpt lat="42.252709" lon="1.647141">
        <ele>1666.689605</ele>
        <time>2022-05-22T07:39:22.921Z</time>
      </trkpt>
      <trkpt lat="42.252800" lon="1.646998">
        <ele>1665.773329</ele>
        <time>2022-05-22T07:39:23.923Z</time>
      </trkpt>
      <trkpt lat="42.252873" lon="1.646874">
        <ele>1665.003522</ele>
        <time>2022-05-22T07:39:24.917Z</time>
      </trkpt>
      <trkpt lat="42.252944" lon="1.646751">
        <ele>1664.245655</ele>
        <time>2022-05-22T07:39:25.919Z</time>
      </trkpt>
      <trkpt lat="42.253020" lon="1.646637">
        <ele>1663.525732</ele>
        <time>2022-05-22T07:39:26.928Z</time>
      </trkpt>
      <trkpt lat="42.253083" lon="1.646527">
        <ele>1663.080680</ele>
        <time>2022-05-22T07:39:27.928Z</time>
      </trkpt>
      <trkpt lat="42.253155" lon="1.646426">
        <ele>1662.631976</ele>
        <time>2022-05-22T07:39:28.928Z</time>
      </trkpt>
      <trkpt lat="42.253225" lon="1.646328">
        <ele>1662.196185</ele>
        <time>2022-05-22T07:39:29.917Z</time>
      </trkpt>
      <trkpt lat="42.253286" lon="1.646232">
        <ele>1661.791331</ele>
        <time>2022-05-22T07:39:30.923Z</time>
      </trkpt>
      <trkpt lat="42.253394" lon="1.646050">
        <ele>1661.044905</ele>
        <time>2022-05-22T07:39:32.929Z</time>
      </trkpt>
      <trkpt lat="42.253447" lon="1.645951">
        <ele>1660.653942</ele>
        <time>2022-05-22T07:39:33.923Z</time>
      </trkpt>
      <trkpt lat="42.253482" lon="1.645837">
        <ele>1660.259023</ele>
        <time>2022-05-22T07:39:34.924Z</time>
      </trkpt>
      <trkpt lat="42.253505" lon="1.645717">
        <ele>1659.862375</ele>
        <time>2022-05-22T07:39:35.918Z</time>
      </trkpt>
      <trkpt lat="42.253508" lon="1.645588">
        <ele>1659.449389</ele>
        <time>2022-05-22T07:39:36.923Z</time>
      </trkpt>
      <trkpt lat="42.253503" lon="1.645464">
        <ele>1659.052019</ele>
        <time>2022-05-22T07:39:37.919Z</time>
      </trkpt>
      <trkpt lat="42.253521" lon="1.645262">
        <ele>1658.400980</ele>
        <time>2022-05-22T07:39:39.928Z</time>
      </trkpt>
      <trkpt lat="42.253544" lon="1.645104">
        <ele>1657.885718</ele>
        <time>2022-05-22T07:39:41.919Z</time>
      </trkpt>
      <trkpt lat="42.253644" lon="1.645061">
        <ele>1657.432040</ele>
        <time>2022-05-22T07:39:43.925Z</time>
      </trkpt>
      <trkpt lat="42.253834" lon="1.645081">
        <ele>1656.608162</ele>
        <time>2022-05-22T07:39:45.928Z</time>
      </trkpt>
      <trkpt lat="42.253945" lon="1.645097">
        <ele>1656.125575</ele>
        <time>2022-05-22T07:39:46.925Z</time>
      </trkpt>
      <trkpt lat="42.254059" lon="1.645114">
        <ele>1655.649824</ele>
        <time>2022-05-22T07:39:47.925Z</time>
      </trkpt>
      <trkpt lat="42.254171" lon="1.645137">
        <ele>1655.218084</ele>
        <time>2022-05-22T07:39:48.921Z</time>
      </trkpt>
      <trkpt lat="42.254292" lon="1.645152">
        <ele>1654.755009</ele>
        <time>2022-05-22T07:39:49.928Z</time>
      </trkpt>
      <trkpt lat="42.254410" lon="1.645161">
        <ele>1654.304589</ele>
        <time>2022-05-22T07:39:50.925Z</time>
      </trkpt>
      <trkpt lat="42.254521" lon="1.645145">
        <ele>1653.879161</ele>
        <time>2022-05-22T07:39:51.919Z</time>
      </trkpt>
      <trkpt lat="42.254628" lon="1.645096">
        <ele>1653.448590</ele>
        <time>2022-05-22T07:39:52.925Z</time>
      </trkpt>
      <trkpt lat="42.254733" lon="1.645043">
        <ele>1653.021414</ele>
        <time>2022-05-22T07:39:53.923Z</time>
      </trkpt>
      <trkpt lat="42.254838" lon="1.644991">
        <ele>1652.595217</ele>
        <time>2022-05-22T07:39:54.921Z</time>
      </trkpt>
      <trkpt lat="42.254935" lon="1.644923">
        <ele>1652.178744</ele>
        <time>2022-05-22T07:39:55.918Z</time>
      </trkpt>
      <trkpt lat="42.255029" lon="1.644855">
        <ele>1651.772385</ele>
        <time>2022-05-22T07:39:56.920Z</time>
      </trkpt>
      <trkpt lat="42.255135" lon="1.644789">
        <ele>1651.327579</ele>
        <time>2022-05-22T07:39:57.928Z</time>
      </trkpt>
      <trkpt lat="42.255237" lon="1.644713">
        <ele>1650.883656</ele>
        <time>2022-05-22T07:39:58.938Z</time>
      </trkpt>
      <trkpt lat="42.255339" lon="1.644630">
        <ele>1650.429868</ele>
        <time>2022-05-22T07:39:59.926Z</time>
      </trkpt>
      <trkpt lat="42.255451" lon="1.644550">
        <ele>1649.947050</ele>
        <time>2022-05-22T07:40:00.926Z</time>
      </trkpt>
      <trkpt lat="42.255570" lon="1.644485">
        <ele>1649.457874</ele>
        <time>2022-05-22T07:40:01.925Z</time>
      </trkpt>
      <trkpt lat="42.255685" lon="1.644426">
        <ele>1648.989068</ele>
        <time>2022-05-22T07:40:02.917Z</time>
      </trkpt>
      <trkpt lat="42.255794" lon="1.644344">
        <ele>1647.618753</ele>
        <time>2022-05-22T07:40:03.926Z</time>
      </trkpt>
      <trkpt lat="42.255888" lon="1.644253">
        <ele>1646.262838</ele>
        <time>2022-05-22T07:40:04.924Z</time>
      </trkpt>
      <trkpt lat="42.255977" lon="1.644151">
        <ele>1644.894408</ele>
        <time>2022-05-22T07:40:05.925Z</time>
      </trkpt>
      <trkpt lat="42.256068" lon="1.644024">
        <ele>1643.360367</ele>
        <time>2022-05-22T07:40:06.930Z</time>
      </trkpt>
      <trkpt lat="42.256154" lon="1.643876">
        <ele>1641.727409</ele>
        <time>2022-05-22T07:40:07.927Z</time>
      </trkpt>
      <trkpt lat="42.256238" lon="1.643714">
        <ele>1640.010821</ele>
        <time>2022-05-22T07:40:08.930Z</time>
      </trkpt>
      <trkpt lat="42.256321" lon="1.643542">
        <ele>1638.228894</ele>
        <time>2022-05-22T07:40:09.924Z</time>
      </trkpt>
      <trkpt lat="42.256404" lon="1.643358">
        <ele>1636.358866</ele>
        <time>2022-05-22T07:40:10.934Z</time>
      </trkpt>
      <trkpt lat="42.256489" lon="1.643190">
        <ele>1634.592792</ele>
        <time>2022-05-22T07:40:11.925Z</time>
      </trkpt>
      <trkpt lat="42.256579" lon="1.643032">
        <ele>1632.862536</ele>
        <time>2022-05-22T07:40:12.924Z</time>
      </trkpt>
      <trkpt lat="42.256672" lon="1.642876">
        <ele>1631.124158</ele>
        <time>2022-05-22T07:40:13.923Z</time>
      </trkpt>
      <trkpt lat="42.256760" lon="1.642710">
        <ele>1629.352141</ele>
        <time>2022-05-22T07:40:14.926Z</time>
      </trkpt>
      <trkpt lat="42.256844" lon="1.642543">
        <ele>1627.675170</ele>
        <time>2022-05-22T07:40:15.927Z</time>
      </trkpt>
      <trkpt lat="42.256919" lon="1.642374">
        <ele>1626.470330</ele>
        <time>2022-05-22T07:40:16.930Z</time>
      </trkpt>
      <trkpt lat="42.256986" lon="1.642191">
        <ele>1625.221994</ele>
        <time>2022-05-22T07:40:17.923Z</time>
      </trkpt>
      <trkpt lat="42.257059" lon="1.642008">
        <ele>1623.950904</ele>
        <time>2022-05-22T07:40:18.929Z</time>
      </trkpt>
      <trkpt lat="42.257126" lon="1.641828">
        <ele>1622.718985</ele>
        <time>2022-05-22T07:40:19.924Z</time>
      </trkpt>
      <trkpt lat="42.257196" lon="1.641657">
        <ele>1621.524173</ele>
        <time>2022-05-22T07:40:20.924Z</time>
      </trkpt>
      <trkpt lat="42.257282" lon="1.641508">
        <ele>1620.368871</ele>
        <time>2022-05-22T07:40:21.934Z</time>
      </trkpt>
      <trkpt lat="42.257383" lon="1.641378">
        <ele>1619.216493</ele>
        <time>2022-05-22T07:40:22.930Z</time>
      </trkpt>
      <trkpt lat="42.257476" lon="1.641247">
        <ele>1618.106623</ele>
        <time>2022-05-22T07:40:23.919Z</time>
      </trkpt>
      <trkpt lat="42.257560" lon="1.641099">
        <ele>1616.966268</ele>
        <time>2022-05-22T07:40:24.915Z</time>
      </trkpt>
      <trkpt lat="42.257642" lon="1.640936">
        <ele>1615.761217</ele>
        <time>2022-05-22T07:40:25.932Z</time>
      </trkpt>
      <trkpt lat="42.257716" lon="1.640762">
        <ele>1614.534205</ele>
        <time>2022-05-22T07:40:26.918Z</time>
      </trkpt>
      <trkpt lat="42.257775" lon="1.640579">
        <ele>1613.313745</ele>
        <time>2022-05-22T07:40:27.919Z</time>
      </trkpt>
      <trkpt lat="42.257828" lon="1.640396">
        <ele>1612.013790</ele>
        <time>2022-05-22T07:40:28.921Z</time>
      </trkpt>
      <trkpt lat="42.257881" lon="1.640208">
        <ele>1610.646754</ele>
        <time>2022-05-22T07:40:29.915Z</time>
      </trkpt>
      <trkpt lat="42.257933" lon="1.640018">
        <ele>1609.270222</ele>
        <time>2022-05-22T07:40:30.923Z</time>
      </trkpt>
      <trkpt lat="42.257992" lon="1.639835">
        <ele>1607.913840</ele>
        <time>2022-05-22T07:40:31.945Z</time>
      </trkpt>
      <trkpt lat="42.258038" lon="1.639650">
        <ele>1606.587683</ele>
        <time>2022-05-22T07:40:32.912Z</time>
      </trkpt>
      <trkpt lat="42.258077" lon="1.639464">
        <ele>1605.274037</ele>
        <time>2022-05-22T07:40:33.913Z</time>
      </trkpt>
      <trkpt lat="42.258109" lon="1.639283">
        <ele>1604.009505</ele>
        <time>2022-05-22T07:40:34.909Z</time>
      </trkpt>
      <trkpt lat="42.258128" lon="1.639100">
        <ele>1602.753811</ele>
        <time>2022-05-22T07:40:35.914Z</time>
      </trkpt>
      <trkpt lat="42.258135" lon="1.638912">
        <ele>1601.474702</ele>
        <time>2022-05-22T07:40:36.915Z</time>
      </trkpt>
      <trkpt lat="42.258142" lon="1.638735">
        <ele>1600.270239</ele>
        <time>2022-05-22T07:40:37.919Z</time>
      </trkpt>
      <trkpt lat="42.258153" lon="1.638566">
        <ele>1599.117421</ele>
        <time>2022-05-22T07:40:38.918Z</time>
      </trkpt>
      <trkpt lat="42.258168" lon="1.638404">
        <ele>1598.008022</ele>
        <time>2022-05-22T07:40:39.920Z</time>
      </trkpt>
      <trkpt lat="42.258179" lon="1.638253">
        <ele>1596.976992</ele>
        <time>2022-05-22T07:40:40.922Z</time>
      </trkpt>
      <trkpt lat="42.258189" lon="1.638106">
        <ele>1596.158516</ele>
        <time>2022-05-22T07:40:41.909Z</time>
      </trkpt>
      <trkpt lat="42.258198" lon="1.637968">
        <ele>1595.558926</ele>
        <time>2022-05-22T07:40:42.920Z</time>
      </trkpt>
      <trkpt lat="42.258214" lon="1.637827">
        <ele>1594.941535</ele>
        <time>2022-05-22T07:40:43.925Z</time>
      </trkpt>
      <trkpt lat="42.258224" lon="1.637688">
        <ele>1594.337095</ele>
        <time>2022-05-22T07:40:44.925Z</time>
      </trkpt>
      <trkpt lat="42.258227" lon="1.637544">
        <ele>1593.713604</ele>
        <time>2022-05-22T07:40:45.923Z</time>
      </trkpt>
      <trkpt lat="42.258217" lon="1.637405">
        <ele>1593.109165</ele>
        <time>2022-05-22T07:40:46.933Z</time>
      </trkpt>
      <trkpt lat="42.258199" lon="1.637282">
        <ele>1592.566504</ele>
        <time>2022-05-22T07:40:47.923Z</time>
      </trkpt>
      <trkpt lat="42.258163" lon="1.637073">
        <ele>1591.637759</ele>
        <time>2022-05-22T07:40:49.929Z</time>
      </trkpt>
      <trkpt lat="42.258156" lon="1.636950">
        <ele>1591.103833</ele>
        <time>2022-05-22T07:40:51.921Z</time>
      </trkpt>
      <trkpt lat="42.258260" lon="1.637031">
        <ele>1590.401853</ele>
        <time>2022-05-22T07:40:56.915Z</time>
      </trkpt>
      <trkpt lat="42.258279" lon="1.637239">
        <ele>1589.494782</ele>
        <time>2022-05-22T07:40:58.931Z</time>
      </trkpt>
      <trkpt lat="42.258313" lon="1.637483">
        <ele>1588.420177</ele>
        <time>2022-05-22T07:41:00.906Z</time>
      </trkpt>
      <trkpt lat="42.258344" lon="1.637606">
        <ele>1587.857804</ele>
        <time>2022-05-22T07:41:01.907Z</time>
      </trkpt>
      <trkpt lat="42.258378" lon="1.637727">
        <ele>1587.297634</ele>
        <time>2022-05-22T07:41:02.909Z</time>
      </trkpt>
      <trkpt lat="42.258416" lon="1.637851">
        <ele>1586.716767</ele>
        <time>2022-05-22T07:41:03.918Z</time>
      </trkpt>
      <trkpt lat="42.258460" lon="1.637973">
        <ele>1586.129387</ele>
        <time>2022-05-22T07:41:04.918Z</time>
      </trkpt>
      <trkpt lat="42.258499" lon="1.638096">
        <ele>1584.617315</ele>
        <time>2022-05-22T07:41:05.920Z</time>
      </trkpt>
      <trkpt lat="42.258538" lon="1.638221">
        <ele>1582.707371</ele>
        <time>2022-05-22T07:41:06.930Z</time>
      </trkpt>
      <trkpt lat="42.258574" lon="1.638338">
        <ele>1580.923367</ele>
        <time>2022-05-22T07:41:07.919Z</time>
      </trkpt>
      <trkpt lat="42.258633" lon="1.638560">
        <ele>1577.602282</ele>
        <time>2022-05-22T07:41:09.938Z</time>
      </trkpt>
      <trkpt lat="42.258666" lon="1.638688">
        <ele>1575.693881</ele>
        <time>2022-05-22T07:41:10.919Z</time>
      </trkpt>
      <trkpt lat="42.258683" lon="1.638842">
        <ele>1573.501635</ele>
        <time>2022-05-22T07:41:11.947Z</time>
      </trkpt>
      <trkpt lat="42.258693" lon="1.638981">
        <ele>1571.535346</ele>
        <time>2022-05-22T07:41:12.917Z</time>
      </trkpt>
      <trkpt lat="42.258710" lon="1.639118">
        <ele>1569.579517</ele>
        <time>2022-05-22T07:41:13.931Z</time>
      </trkpt>
      <trkpt lat="42.258719" lon="1.639337">
        <ele>1566.491335</ele>
        <time>2022-05-22T07:41:15.911Z</time>
      </trkpt>
      <trkpt lat="42.258706" lon="1.639544">
        <ele>1563.566384</ele>
        <time>2022-05-22T07:41:17.916Z</time>
      </trkpt>
      <trkpt lat="42.258663" lon="1.639718">
        <ele>1560.983572</ele>
        <time>2022-05-22T07:41:19.922Z</time>
      </trkpt>
      <trkpt lat="42.258699" lon="1.639883">
        <ele>1558.561595</ele>
        <time>2022-05-22T07:41:21.917Z</time>
      </trkpt>
      <trkpt lat="42.258790" lon="1.639905">
        <ele>1556.802962</ele>
        <time>2022-05-22T07:41:23.911Z</time>
      </trkpt>
      <trkpt lat="42.258879" lon="1.639800">
        <ele>1554.555275</ele>
        <time>2022-05-22T07:41:25.916Z</time>
      </trkpt>
      <trkpt lat="42.258901" lon="1.639652">
        <ele>1552.429887</ele>
        <time>2022-05-22T07:41:27.940Z</time>
      </trkpt>
      <trkpt lat="42.258928" lon="1.639463">
        <ele>1550.794606</ele>
        <time>2022-05-22T07:41:29.916Z</time>
      </trkpt>
      <trkpt lat="42.258990" lon="1.639270">
        <ele>1549.402336</ele>
        <time>2022-05-22T07:41:31.908Z</time>
      </trkpt>
      <trkpt lat="42.259069" lon="1.639058">
        <ele>1547.831668</ele>
        <time>2022-05-22T07:41:33.912Z</time>
      </trkpt>
      <trkpt lat="42.259118" lon="1.638944">
        <ele>1546.959299</ele>
        <time>2022-05-22T07:41:34.911Z</time>
      </trkpt>
      <trkpt lat="42.259163" lon="1.638829">
        <ele>1546.098487</ele>
        <time>2022-05-22T07:41:35.909Z</time>
      </trkpt>
      <trkpt lat="42.259208" lon="1.638713">
        <ele>1545.231820</ele>
        <time>2022-05-22T07:41:36.932Z</time>
      </trkpt>
      <trkpt lat="42.259248" lon="1.638584">
        <ele>1544.306290</ele>
        <time>2022-05-22T07:41:37.917Z</time>
      </trkpt>
      <trkpt lat="42.259273" lon="1.638454">
        <ele>1543.417470</ele>
        <time>2022-05-22T07:41:38.915Z</time>
      </trkpt>
      <trkpt lat="42.259284" lon="1.638308">
        <ele>1542.446345</ele>
        <time>2022-05-22T07:41:39.915Z</time>
      </trkpt>
      <trkpt lat="42.259289" lon="1.638160">
        <ele>1541.465959</ele>
        <time>2022-05-22T07:41:40.922Z</time>
      </trkpt>
      <trkpt lat="42.259291" lon="1.638012">
        <ele>1540.486430</ele>
        <time>2022-05-22T07:41:41.929Z</time>
      </trkpt>
      <trkpt lat="42.259289" lon="1.637860">
        <ele>1539.480435</ele>
        <time>2022-05-22T07:41:42.918Z</time>
      </trkpt>
      <trkpt lat="42.259285" lon="1.637704">
        <ele>1538.447511</ele>
        <time>2022-05-22T07:41:43.920Z</time>
      </trkpt>
      <trkpt lat="42.259283" lon="1.637549">
        <ele>1537.421667</ele>
        <time>2022-05-22T07:41:44.923Z</time>
      </trkpt>
      <trkpt lat="42.259290" lon="1.637401">
        <ele>1536.440303</ele>
        <time>2022-05-22T07:41:45.926Z</time>
      </trkpt>
      <trkpt lat="42.259299" lon="1.637262">
        <ele>1535.659244</ele>
        <time>2022-05-22T07:41:46.928Z</time>
      </trkpt>
      <trkpt lat="42.259308" lon="1.637140">
        <ele>1535.622121</ele>
        <time>2022-05-22T07:41:47.928Z</time>
      </trkpt>
      <trkpt lat="42.259339" lon="1.636950">
        <ele>1535.563210</ele>
        <time>2022-05-22T07:41:49.922Z</time>
      </trkpt>
      <trkpt lat="42.259407" lon="1.636797">
        <ele>1535.509173</ele>
        <time>2022-05-22T07:41:51.913Z</time>
      </trkpt>
      <trkpt lat="42.259501" lon="1.636745">
        <ele>1535.467618</ele>
        <time>2022-05-22T07:41:53.921Z</time>
      </trkpt>
      <trkpt lat="42.259612" lon="1.636783">
        <ele>1535.420772</ele>
        <time>2022-05-22T07:41:55.920Z</time>
      </trkpt>
      <trkpt lat="42.259741" lon="1.636910">
        <ele>1535.355474</ele>
        <time>2022-05-22T07:41:57.912Z</time>
      </trkpt>
      <trkpt lat="42.259844" lon="1.637105">
        <ele>1535.282936</ele>
        <time>2022-05-22T07:41:59.913Z</time>
      </trkpt>
      <trkpt lat="42.259893" lon="1.637248">
        <ele>1535.235223</ele>
        <time>2022-05-22T07:42:00.910Z</time>
      </trkpt>
      <trkpt lat="42.259924" lon="1.637391">
        <ele>1535.190106</ele>
        <time>2022-05-22T07:42:01.916Z</time>
      </trkpt>
      <trkpt lat="42.259942" lon="1.637543">
        <ele>1535.143498</ele>
        <time>2022-05-22T07:42:02.912Z</time>
      </trkpt>
      <trkpt lat="42.259971" lon="1.637693">
        <ele>1535.096556</ele>
        <time>2022-05-22T07:42:03.918Z</time>
      </trkpt>
      <trkpt lat="42.260014" lon="1.637855">
        <ele>1535.044446</ele>
        <time>2022-05-22T07:42:04.925Z</time>
      </trkpt>
      <trkpt lat="42.260049" lon="1.638018">
        <ele>1534.993058</ele>
        <time>2022-05-22T07:42:05.908Z</time>
      </trkpt>
      <trkpt lat="42.260083" lon="1.638172">
        <ele>1534.944399</ele>
        <time>2022-05-22T07:42:06.918Z</time>
      </trkpt>
      <trkpt lat="42.260111" lon="1.638318">
        <ele>1534.657068</ele>
        <time>2022-05-22T07:42:07.915Z</time>
      </trkpt>
      <trkpt lat="42.260137" lon="1.638472">
        <ele>1534.242219</ele>
        <time>2022-05-22T07:42:08.911Z</time>
      </trkpt>
      <trkpt lat="42.260163" lon="1.638641">
        <ele>1533.788876</ele>
        <time>2022-05-22T07:42:09.907Z</time>
      </trkpt>
      <trkpt lat="42.260184" lon="1.638817">
        <ele>1533.320670</ele>
        <time>2022-05-22T07:42:10.909Z</time>
      </trkpt>
      <trkpt lat="42.260199" lon="1.638998">
        <ele>1532.842329</ele>
        <time>2022-05-22T07:42:11.916Z</time>
      </trkpt>
      <trkpt lat="42.260202" lon="1.639178">
        <ele>1532.369465</ele>
        <time>2022-05-22T07:42:12.916Z</time>
      </trkpt>
      <trkpt lat="42.260214" lon="1.639372">
        <ele>1531.858177</ele>
        <time>2022-05-22T07:42:13.915Z</time>
      </trkpt>
      <trkpt lat="42.260233" lon="1.639567">
        <ele>1531.341619</ele>
        <time>2022-05-22T07:42:14.926Z</time>
      </trkpt>
      <trkpt lat="42.260262" lon="1.639759">
        <ele>1530.826965</ele>
        <time>2022-05-22T07:42:15.917Z</time>
      </trkpt>
      <trkpt lat="42.260291" lon="1.639945">
        <ele>1530.327742</ele>
        <time>2022-05-22T07:42:16.914Z</time>
      </trkpt>
      <trkpt lat="42.260320" lon="1.640120">
        <ele>1529.856751</ele>
        <time>2022-05-22T07:42:17.918Z</time>
      </trkpt>
      <trkpt lat="42.260346" lon="1.640293">
        <ele>1529.393119</ele>
        <time>2022-05-22T07:42:18.916Z</time>
      </trkpt>
      <trkpt lat="42.260368" lon="1.640471">
        <ele>1528.919156</ele>
        <time>2022-05-22T07:42:19.919Z</time>
      </trkpt>
      <trkpt lat="42.260389" lon="1.640647">
        <ele>1528.259638</ele>
        <time>2022-05-22T07:42:20.924Z</time>
      </trkpt>
      <trkpt lat="42.260400" lon="1.640808">
        <ele>1526.993252</ele>
        <time>2022-05-22T07:42:21.911Z</time>
      </trkpt>
      <trkpt lat="42.260394" lon="1.640951">
        <ele>1525.871414</ele>
        <time>2022-05-22T07:42:22.916Z</time>
      </trkpt>
      <trkpt lat="42.260356" lon="1.641080">
        <ele>1524.783936</ele>
        <time>2022-05-22T07:42:23.915Z</time>
      </trkpt>
      <trkpt lat="42.260300" lon="1.641192">
        <ele>1523.725271</ele>
        <time>2022-05-22T07:42:24.917Z</time>
      </trkpt>
      <trkpt lat="42.260229" lon="1.641295">
        <ele>1522.622806</ele>
        <time>2022-05-22T07:42:25.936Z</time>
      </trkpt>
      <trkpt lat="42.260145" lon="1.641385">
        <ele>1521.488263</ele>
        <time>2022-05-22T07:42:26.909Z</time>
      </trkpt>
      <trkpt lat="42.260071" lon="1.641470">
        <ele>1520.460377</ele>
        <time>2022-05-22T07:42:27.907Z</time>
      </trkpt>
      <trkpt lat="42.259999" lon="1.641555">
        <ele>1519.448523</ele>
        <time>2022-05-22T07:42:28.908Z</time>
      </trkpt>
      <trkpt lat="42.259913" lon="1.641725">
        <ele>1517.835665</ele>
        <time>2022-05-22T07:42:30.909Z</time>
      </trkpt>
      <trkpt lat="42.259899" lon="1.641886">
        <ele>1516.565957</ele>
        <time>2022-05-22T07:42:32.922Z</time>
      </trkpt>
      <trkpt lat="42.259963" lon="1.641989">
        <ele>1515.512584</ele>
        <time>2022-05-22T07:42:33.919Z</time>
      </trkpt>
      <trkpt lat="42.260074" lon="1.642027">
        <ele>1514.300751</ele>
        <time>2022-05-22T07:42:34.918Z</time>
      </trkpt>
      <trkpt lat="42.260270" lon="1.642039">
        <ele>1512.224352</ele>
        <time>2022-05-22T07:42:36.917Z</time>
      </trkpt>
      <trkpt lat="42.260367" lon="1.641996">
        <ele>1511.143963</ele>
        <time>2022-05-22T07:42:37.920Z</time>
      </trkpt>
      <trkpt lat="42.260454" lon="1.641940">
        <ele>1510.124104</ele>
        <time>2022-05-22T07:42:38.928Z</time>
      </trkpt>
      <trkpt lat="42.260569" lon="1.641770">
        <ele>1508.339440</ele>
        <time>2022-05-22T07:42:40.912Z</time>
      </trkpt>
      <trkpt lat="42.260690" lon="1.641637">
        <ele>1506.715359</ele>
        <time>2022-05-22T07:42:42.916Z</time>
      </trkpt>
      <trkpt lat="42.260789" lon="1.641501">
        <ele>1505.245378</ele>
        <time>2022-05-22T07:42:44.928Z</time>
      </trkpt>
      <trkpt lat="42.260884" lon="1.641363">
        <ele>1503.793051</ele>
        <time>2022-05-22T07:42:46.924Z</time>
      </trkpt>
      <trkpt lat="42.260962" lon="1.641214">
        <ele>1502.386680</ele>
        <time>2022-05-22T07:42:48.945Z</time>
      </trkpt>
      <trkpt lat="42.261026" lon="1.641046">
        <ele>1500.930657</ele>
        <time>2022-05-22T07:42:50.916Z</time>
      </trkpt>
      <trkpt lat="42.261052" lon="1.640857">
        <ele>1499.449305</ele>
        <time>2022-05-22T07:42:52.912Z</time>
      </trkpt>
      <trkpt lat="42.261048" lon="1.640673">
        <ele>1498.030816</ele>
        <time>2022-05-22T07:42:54.906Z</time>
      </trkpt>
      <trkpt lat="42.261031" lon="1.640494">
        <ele>1496.640157</ele>
        <time>2022-05-22T07:42:56.923Z</time>
      </trkpt>
      <trkpt lat="42.261012" lon="1.640320">
        <ele>1495.284823</ele>
        <time>2022-05-22T07:42:58.921Z</time>
      </trkpt>
      <trkpt lat="42.261030" lon="1.640137">
        <ele>1493.862251</ele>
        <time>2022-05-22T07:43:00.920Z</time>
      </trkpt>
      <trkpt lat="42.261091" lon="1.639957">
        <ele>1492.336697</ele>
        <time>2022-05-22T07:43:02.922Z</time>
      </trkpt>
      <trkpt lat="42.261162" lon="1.639784">
        <ele>1490.812333</ele>
        <time>2022-05-22T07:43:04.917Z</time>
      </trkpt>
      <trkpt lat="42.261242" lon="1.639612">
        <ele>1490.582371</ele>
        <time>2022-05-22T07:43:06.934Z</time>
      </trkpt>
      <trkpt lat="42.261316" lon="1.639434">
        <ele>1490.375289</ele>
        <time>2022-05-22T07:43:08.918Z</time>
      </trkpt>
      <trkpt lat="42.261374" lon="1.639227">
        <ele>1490.150784</ele>
        <time>2022-05-22T07:43:10.912Z</time>
      </trkpt>
      <trkpt lat="42.261374" lon="1.639009">
        <ele>1489.929665</ele>
        <time>2022-05-22T07:43:12.915Z</time>
      </trkpt>
      <trkpt lat="42.261366" lon="1.638785">
        <ele>1489.702196</ele>
        <time>2022-05-22T07:43:14.913Z</time>
      </trkpt>
      <trkpt lat="42.261364" lon="1.638567">
        <ele>1489.481060</ele>
        <time>2022-05-22T07:43:16.927Z</time>
      </trkpt>
      <trkpt lat="42.261352" lon="1.638359">
        <ele>1489.269445</ele>
        <time>2022-05-22T07:43:18.918Z</time>
      </trkpt>
      <trkpt lat="42.261302" lon="1.638137">
        <ele>1489.034072</ele>
        <time>2022-05-22T07:43:20.927Z</time>
      </trkpt>
      <trkpt lat="42.261258" lon="1.637914">
        <ele>1488.799981</ele>
        <time>2022-05-22T07:43:22.920Z</time>
      </trkpt>
      <trkpt lat="42.261237" lon="1.637682">
        <ele>1488.562908</ele>
        <time>2022-05-22T07:43:24.920Z</time>
      </trkpt>
      <trkpt lat="42.261234" lon="1.637557">
        <ele>1488.436053</ele>
        <time>2022-05-22T07:43:25.915Z</time>
      </trkpt>
      <trkpt lat="42.261230" lon="1.637322">
        <ele>1488.024618</ele>
        <time>2022-05-22T07:43:27.922Z</time>
      </trkpt>
      <trkpt lat="42.261245" lon="1.637095">
        <ele>1487.465861</ele>
        <time>2022-05-22T07:43:29.917Z</time>
      </trkpt>
      <trkpt lat="42.261263" lon="1.636878">
        <ele>1486.930505</ele>
        <time>2022-05-22T07:43:31.920Z</time>
      </trkpt>
      <trkpt lat="42.261288" lon="1.636675">
        <ele>1486.425961</ele>
        <time>2022-05-22T07:43:33.916Z</time>
      </trkpt>
      <trkpt lat="42.261315" lon="1.636466">
        <ele>1485.905803</ele>
        <time>2022-05-22T07:43:35.920Z</time>
      </trkpt>
      <trkpt lat="42.261348" lon="1.636268">
        <ele>1485.408204</ele>
        <time>2022-05-22T07:43:37.916Z</time>
      </trkpt>
      <trkpt lat="42.261384" lon="1.636066">
        <ele>1484.898799</ele>
        <time>2022-05-22T07:43:39.916Z</time>
      </trkpt>
      <trkpt lat="42.261413" lon="1.635857">
        <ele>1484.377461</ele>
        <time>2022-05-22T07:43:41.919Z</time>
      </trkpt>
      <trkpt lat="42.261463" lon="1.635667">
        <ele>1483.883062</ele>
        <time>2022-05-22T07:43:43.917Z</time>
      </trkpt>
      <trkpt lat="42.261487" lon="1.635475">
        <ele>1483.405665</ele>
        <time>2022-05-22T07:43:45.917Z</time>
      </trkpt>
      <trkpt lat="42.261497" lon="1.635273">
        <ele>1482.909311</ele>
        <time>2022-05-22T07:43:47.920Z</time>
      </trkpt>
      <trkpt lat="42.261492" lon="1.635069">
        <ele>1482.408886</ele>
        <time>2022-05-22T07:43:49.918Z</time>
      </trkpt>
      <trkpt lat="42.261478" lon="1.634870">
        <ele>1481.252418</ele>
        <time>2022-05-22T07:43:51.919Z</time>
      </trkpt>
      <trkpt lat="42.261457" lon="1.634664">
        <ele>1479.974737</ele>
        <time>2022-05-22T07:43:53.927Z</time>
      </trkpt>
      <trkpt lat="42.261446" lon="1.634465">
        <ele>1478.748611</ele>
        <time>2022-05-22T07:43:55.923Z</time>
      </trkpt>
      <trkpt lat="42.261450" lon="1.634261">
        <ele>1477.494729</ele>
        <time>2022-05-22T07:43:57.910Z</time>
      </trkpt>
      <trkpt lat="42.261468" lon="1.634068">
        <ele>1476.299496</ele>
        <time>2022-05-22T07:43:59.904Z</time>
      </trkpt>
      <trkpt lat="42.261488" lon="1.633870">
        <ele>1475.071642</ele>
        <time>2022-05-22T07:44:01.918Z</time>
      </trkpt>
      <trkpt lat="42.261488" lon="1.633676">
        <ele>1473.879644</ele>
        <time>2022-05-22T07:44:03.926Z</time>
      </trkpt>
      <trkpt lat="42.261458" lon="1.633473">
        <ele>1472.607723</ele>
        <time>2022-05-22T07:44:05.922Z</time>
      </trkpt>
      <trkpt lat="42.261410" lon="1.633258">
        <ele>1471.227895</ele>
        <time>2022-05-22T07:44:07.930Z</time>
      </trkpt>
      <trkpt lat="42.261341" lon="1.633040">
        <ele>1469.771075</ele>
        <time>2022-05-22T07:44:09.925Z</time>
      </trkpt>
      <trkpt lat="42.261306" lon="1.632918">
        <ele>1468.967117</ele>
        <time>2022-05-22T07:44:10.925Z</time>
      </trkpt>
      <trkpt lat="42.261237" lon="1.632697">
        <ele>1467.493330</ele>
        <time>2022-05-22T07:44:12.924Z</time>
      </trkpt>
      <trkpt lat="42.261194" lon="1.632582">
        <ele>1467.206139</ele>
        <time>2022-05-22T07:44:13.926Z</time>
      </trkpt>
      <trkpt lat="42.261156" lon="1.632471">
        <ele>1466.976213</ele>
        <time>2022-05-22T07:44:14.926Z</time>
      </trkpt>
      <trkpt lat="42.261093" lon="1.632249">
        <ele>1466.529219</ele>
        <time>2022-05-22T07:44:16.909Z</time>
      </trkpt>
      <trkpt lat="42.261038" lon="1.632033">
        <ele>1466.099773</ele>
        <time>2022-05-22T07:44:18.922Z</time>
      </trkpt>
      <trkpt lat="42.260985" lon="1.631794">
        <ele>1465.630711</ele>
        <time>2022-05-22T07:44:20.927Z</time>
      </trkpt>
      <trkpt lat="42.260959" lon="1.631662">
        <ele>1465.373910</ele>
        <time>2022-05-22T07:44:21.921Z</time>
      </trkpt>
      <trkpt lat="42.260938" lon="1.631529">
        <ele>1465.118240</ele>
        <time>2022-05-22T07:44:22.921Z</time>
      </trkpt>
      <trkpt lat="42.260934" lon="1.631392">
        <ele>1464.860477</ele>
        <time>2022-05-22T07:44:23.913Z</time>
      </trkpt>
      <trkpt lat="42.260945" lon="1.631256">
        <ele>1464.603272</ele>
        <time>2022-05-22T07:44:24.921Z</time>
      </trkpt>
      <trkpt lat="42.260993" lon="1.631130">
        <ele>1464.336850</ele>
        <time>2022-05-22T07:44:25.927Z</time>
      </trkpt>
      <trkpt lat="42.261046" lon="1.631022">
        <ele>1464.093226</ele>
        <time>2022-05-22T07:44:26.916Z</time>
      </trkpt>
      <trkpt lat="42.261100" lon="1.630923">
        <ele>1463.862017</ele>
        <time>2022-05-22T07:44:27.920Z</time>
      </trkpt>
      <trkpt lat="42.261194" lon="1.630719">
        <ele>1463.410234</ele>
        <time>2022-05-22T07:44:29.915Z</time>
      </trkpt>
      <trkpt lat="42.261219" lon="1.630482">
        <ele>1462.960168</ele>
        <time>2022-05-22T07:44:31.923Z</time>
      </trkpt>
      <trkpt lat="42.261166" lon="1.630271">
        <ele>1462.681815</ele>
        <time>2022-05-22T07:44:33.924Z</time>
      </trkpt>
      <trkpt lat="42.261109" lon="1.630170">
        <ele>1462.548482</ele>
        <time>2022-05-22T07:44:34.926Z</time>
      </trkpt>
      <trkpt lat="42.261014" lon="1.629954">
        <ele>1462.284720</ele>
        <time>2022-05-22T07:44:36.921Z</time>
      </trkpt>
      <trkpt lat="42.260981" lon="1.629833">
        <ele>1462.149351</ele>
        <time>2022-05-22T07:44:37.918Z</time>
      </trkpt>
      <trkpt lat="42.260968" lon="1.629706">
        <ele>1462.014765</ele>
        <time>2022-05-22T07:44:38.917Z</time>
      </trkpt>
      <trkpt lat="42.260974" lon="1.629570">
        <ele>1461.871746</ele>
        <time>2022-05-22T07:44:39.925Z</time>
      </trkpt>
      <trkpt lat="42.260989" lon="1.629434">
        <ele>1461.727404</ele>
        <time>2022-05-22T07:44:40.915Z</time>
      </trkpt>
      <trkpt lat="42.261009" lon="1.629296">
        <ele>1461.579788</ele>
        <time>2022-05-22T07:44:41.925Z</time>
      </trkpt>
      <trkpt lat="42.261032" lon="1.629156">
        <ele>1461.429246</ele>
        <time>2022-05-22T07:44:42.921Z</time>
      </trkpt>
      <trkpt lat="42.261064" lon="1.629019">
        <ele>1461.278439</ele>
        <time>2022-05-22T07:44:43.917Z</time>
      </trkpt>
      <trkpt lat="42.261107" lon="1.628874">
        <ele>1461.114461</ele>
        <time>2022-05-22T07:44:44.927Z</time>
      </trkpt>
      <trkpt lat="42.261150" lon="1.628733">
        <ele>1460.954374</ele>
        <time>2022-05-22T07:44:45.934Z</time>
      </trkpt>
      <trkpt lat="42.261200" lon="1.628596">
        <ele>1460.794023</ele>
        <time>2022-05-22T07:44:46.927Z</time>
      </trkpt>
      <trkpt lat="42.261252" lon="1.628466">
        <ele>1460.638900</ele>
        <time>2022-05-22T07:44:47.925Z</time>
      </trkpt>
      <trkpt lat="42.261316" lon="1.628330">
        <ele>1460.469719</ele>
        <time>2022-05-22T07:44:48.924Z</time>
      </trkpt>
      <trkpt lat="42.261359" lon="1.628190">
        <ele>1460.310602</ele>
        <time>2022-05-22T07:44:49.924Z</time>
      </trkpt>
      <trkpt lat="42.261386" lon="1.628038">
        <ele>1460.306514</ele>
        <time>2022-05-22T07:44:50.929Z</time>
      </trkpt>
      <trkpt lat="42.261359" lon="1.627867">
        <ele>1460.304462</ele>
        <time>2022-05-22T07:44:51.922Z</time>
      </trkpt>
      <trkpt lat="42.261303" lon="1.627704">
        <ele>1460.302354</ele>
        <time>2022-05-22T07:44:52.924Z</time>
      </trkpt>
      <trkpt lat="42.261215" lon="1.627549">
        <ele>1460.300061</ele>
        <time>2022-05-22T07:44:53.932Z</time>
      </trkpt>
      <trkpt lat="42.261111" lon="1.627413">
        <ele>1460.297767</ele>
        <time>2022-05-22T07:44:54.922Z</time>
      </trkpt>
      <trkpt lat="42.261016" lon="1.627321">
        <ele>1460.295914</ele>
        <time>2022-05-22T07:44:55.930Z</time>
      </trkpt>
      <trkpt lat="42.260914" lon="1.627258">
        <ele>1460.294136</ele>
        <time>2022-05-22T07:44:56.920Z</time>
      </trkpt>
      <trkpt lat="42.260823" lon="1.627207">
        <ele>1460.292574</ele>
        <time>2022-05-22T07:44:57.917Z</time>
      </trkpt>
      <trkpt lat="42.260743" lon="1.627131">
        <ele>1460.291024</ele>
        <time>2022-05-22T07:44:58.916Z</time>
      </trkpt>
      <trkpt lat="42.260666" lon="1.627033">
        <ele>1460.289347</ele>
        <time>2022-05-22T07:44:59.926Z</time>
      </trkpt>
      <trkpt lat="42.260586" lon="1.626915">
        <ele>1460.287469</ele>
        <time>2022-05-22T07:45:00.919Z</time>
      </trkpt>
      <trkpt lat="42.260563" lon="1.626765">
        <ele>1460.285672</ele>
        <time>2022-05-22T07:45:01.916Z</time>
      </trkpt>
      <trkpt lat="42.260560" lon="1.626615">
        <ele>1460.283911</ele>
        <time>2022-05-22T07:45:02.925Z</time>
      </trkpt>
      <trkpt lat="42.260550" lon="1.626476">
        <ele>1460.282272</ele>
        <time>2022-05-22T07:45:03.915Z</time>
      </trkpt>
      <trkpt lat="42.260559" lon="1.626338">
        <ele>1460.280647</ele>
        <time>2022-05-22T07:45:04.919Z</time>
      </trkpt>
      <trkpt lat="42.260594" lon="1.626200">
        <ele>1460.107411</ele>
        <time>2022-05-22T07:45:05.925Z</time>
      </trkpt>
      <trkpt lat="42.260629" lon="1.626083">
        <ele>1459.814565</ele>
        <time>2022-05-22T07:45:06.921Z</time>
      </trkpt>
      <trkpt lat="42.260665" lon="1.625958">
        <ele>1459.503306</ele>
        <time>2022-05-22T07:45:07.920Z</time>
      </trkpt>
      <trkpt lat="42.260708" lon="1.625846">
        <ele>1459.210514</ele>
        <time>2022-05-22T07:45:08.928Z</time>
      </trkpt>
      <trkpt lat="42.260746" lon="1.625727">
        <ele>1458.909759</ele>
        <time>2022-05-22T07:45:09.925Z</time>
      </trkpt>
      <trkpt lat="42.260776" lon="1.625609">
        <ele>1458.620228</ele>
        <time>2022-05-22T07:45:10.920Z</time>
      </trkpt>
      <trkpt lat="42.260816" lon="1.625479">
        <ele>1458.293523</ele>
        <time>2022-05-22T07:45:11.926Z</time>
      </trkpt>
      <trkpt lat="42.260833" lon="1.625350">
        <ele>1457.989462</ele>
        <time>2022-05-22T07:45:12.922Z</time>
      </trkpt>
      <trkpt lat="42.260829" lon="1.625221">
        <ele>1457.689848</ele>
        <time>2022-05-22T07:45:13.922Z</time>
      </trkpt>
      <trkpt lat="42.260803" lon="1.625093">
        <ele>1457.381833</ele>
        <time>2022-05-22T07:45:14.925Z</time>
      </trkpt>
      <trkpt lat="42.260760" lon="1.624965">
        <ele>1457.055635</ele>
        <time>2022-05-22T07:45:15.919Z</time>
      </trkpt>
      <trkpt lat="42.260688" lon="1.624844">
        <ele>1456.695347</ele>
        <time>2022-05-22T07:45:16.927Z</time>
      </trkpt>
      <trkpt lat="42.260610" lon="1.624725">
        <ele>1456.326469</ele>
        <time>2022-05-22T07:45:17.920Z</time>
      </trkpt>
      <trkpt lat="42.260549" lon="1.624606">
        <ele>1455.990553</ele>
        <time>2022-05-22T07:45:18.926Z</time>
      </trkpt>
      <trkpt lat="42.260486" lon="1.624491">
        <ele>1455.658533</ele>
        <time>2022-05-22T07:45:19.921Z</time>
      </trkpt>
      <trkpt lat="42.260429" lon="1.624376">
        <ele>1455.337349</ele>
        <time>2022-05-22T07:45:20.920Z</time>
      </trkpt>
      <trkpt lat="42.260376" lon="1.624260">
        <ele>1455.020999</ele>
        <time>2022-05-22T07:45:21.919Z</time>
      </trkpt>
      <trkpt lat="42.260339" lon="1.624143">
        <ele>1454.725744</ele>
        <time>2022-05-22T07:45:22.925Z</time>
      </trkpt>
      <trkpt lat="42.260304" lon="1.624021">
        <ele>1454.275378</ele>
        <time>2022-05-22T07:45:23.923Z</time>
      </trkpt>
      <trkpt lat="42.260268" lon="1.623901">
        <ele>1453.772709</ele>
        <time>2022-05-22T07:45:24.918Z</time>
      </trkpt>
      <trkpt lat="42.260232" lon="1.623783">
        <ele>1453.277228</ele>
        <time>2022-05-22T07:45:25.915Z</time>
      </trkpt>
      <trkpt lat="42.260197" lon="1.623666">
        <ele>1452.787322</ele>
        <time>2022-05-22T07:45:26.917Z</time>
      </trkpt>
      <trkpt lat="42.260174" lon="1.623547">
        <ele>1452.309859</ele>
        <time>2022-05-22T07:45:27.916Z</time>
      </trkpt>
      <trkpt lat="42.260144" lon="1.623431">
        <ele>1451.832833</ele>
        <time>2022-05-22T07:45:28.916Z</time>
      </trkpt>
      <trkpt lat="42.260099" lon="1.623211">
        <ele>1450.946752</ele>
        <time>2022-05-22T07:45:30.919Z</time>
      </trkpt>
      <trkpt lat="42.260091" lon="1.622984">
        <ele>1450.064515</ele>
        <time>2022-05-22T07:45:32.921Z</time>
      </trkpt>
      <trkpt lat="42.260115" lon="1.622757">
        <ele>1449.174331</ele>
        <time>2022-05-22T07:45:34.916Z</time>
      </trkpt>
      <trkpt lat="42.260171" lon="1.622564">
        <ele>1448.369562</ele>
        <time>2022-05-22T07:45:36.921Z</time>
      </trkpt>
      <trkpt lat="42.260277" lon="1.622401">
        <ele>1447.527208</ele>
        <time>2022-05-22T07:45:38.922Z</time>
      </trkpt>
      <trkpt lat="42.260404" lon="1.622247">
        <ele>1446.632117</ele>
        <time>2022-05-22T07:45:40.922Z</time>
      </trkpt>
      <trkpt lat="42.260470" lon="1.622163">
        <ele>1446.156523</ele>
        <time>2022-05-22T07:45:41.919Z</time>
      </trkpt>
      <trkpt lat="42.260538" lon="1.622083">
        <ele>1445.683579</ele>
        <time>2022-05-22T07:45:42.918Z</time>
      </trkpt>
      <trkpt lat="42.260656" lon="1.621916">
        <ele>1445.005877</ele>
        <time>2022-05-22T07:45:44.925Z</time>
      </trkpt>
      <trkpt lat="42.260794" lon="1.621764">
        <ele>1444.560034</ele>
        <time>2022-05-22T07:45:46.919Z</time>
      </trkpt>
      <trkpt lat="42.260863" lon="1.621679">
        <ele>1444.326217</ele>
        <time>2022-05-22T07:45:47.926Z</time>
      </trkpt>
      <trkpt lat="42.260956" lon="1.621486">
        <ele>1443.899397</ele>
        <time>2022-05-22T07:45:49.927Z</time>
      </trkpt>
      <trkpt lat="42.260987" lon="1.621273">
        <ele>1443.497086</ele>
        <time>2022-05-22T07:45:51.921Z</time>
      </trkpt>
      <trkpt lat="42.260942" lon="1.621158">
        <ele>1443.256001</ele>
        <time>2022-05-22T07:45:52.922Z</time>
      </trkpt>
      <trkpt lat="42.260860" lon="1.621065">
        <ele>1442.987913</ele>
        <time>2022-05-22T07:45:53.922Z</time>
      </trkpt>
      <trkpt lat="42.260763" lon="1.621004">
        <ele>1442.719991</ele>
        <time>2022-05-22T07:45:54.921Z</time>
      </trkpt>
      <trkpt lat="42.260599" lon="1.620924">
        <ele>1442.283368</ele>
        <time>2022-05-22T07:45:56.920Z</time>
      </trkpt>
      <trkpt lat="42.260447" lon="1.620895">
        <ele>1441.898962</ele>
        <time>2022-05-22T07:45:58.917Z</time>
      </trkpt>
      <trkpt lat="42.260292" lon="1.620922">
        <ele>1441.507607</ele>
        <time>2022-05-22T07:46:00.922Z</time>
      </trkpt>
      <trkpt lat="42.260142" lon="1.620969">
        <ele>1441.122018</ele>
        <time>2022-05-22T07:46:02.918Z</time>
      </trkpt>
      <trkpt lat="42.260011" lon="1.621028">
        <ele>1440.776230</ele>
        <time>2022-05-22T07:46:04.924Z</time>
      </trkpt>
      <trkpt lat="42.259872" lon="1.621031">
        <ele>1440.332609</ele>
        <time>2022-05-22T07:46:07.934Z</time>
      </trkpt>
      <trkpt lat="42.259781" lon="1.621017">
        <ele>1440.023152</ele>
        <time>2022-05-22T07:46:09.913Z</time>
      </trkpt>
      <trkpt lat="42.259686" lon="1.621021">
        <ele>1439.702011</ele>
        <time>2022-05-22T07:46:12.923Z</time>
      </trkpt>
      <trkpt lat="42.259579" lon="1.620975">
        <ele>1439.322621</ele>
        <time>2022-05-22T07:46:16.920Z</time>
      </trkpt>
      <trkpt lat="42.259508" lon="1.620895">
        <ele>1439.010258</ele>
        <time>2022-05-22T07:46:21.017Z</time>
      </trkpt>
      <trkpt lat="42.259461" lon="1.620776">
        <ele>1438.672957</ele>
        <time>2022-05-22T07:46:26.931Z</time>
      </trkpt>
      <trkpt lat="42.259456" lon="1.620638">
        <ele>1438.327452</ele>
        <time>2022-05-22T07:46:31.916Z</time>
      </trkpt>
      <trkpt lat="42.259515" lon="1.620519">
        <ele>1437.969271</ele>
        <time>2022-05-22T07:46:35.919Z</time>
      </trkpt>
      <trkpt lat="42.259555" lon="1.620382">
        <ele>1437.600985</ele>
        <time>2022-05-22T07:46:39.917Z</time>
      </trkpt>
      <trkpt lat="42.259578" lon="1.620246">
        <ele>1437.252129</ele>
        <time>2022-05-22T07:46:43.920Z</time>
      </trkpt>
      <trkpt lat="42.259607" lon="1.620125">
        <ele>1436.934078</ele>
        <time>2022-05-22T07:46:47.934Z</time>
      </trkpt>
      <trkpt lat="42.259660" lon="1.620001">
        <ele>1436.576001</ele>
        <time>2022-05-22T07:46:52.930Z</time>
      </trkpt>
      <trkpt lat="42.259720" lon="1.619891">
        <ele>1436.234295</ele>
        <time>2022-05-22T07:46:56.924Z</time>
      </trkpt>
      <trkpt lat="42.259740" lon="1.619757">
        <ele>1435.892461</ele>
        <time>2022-05-22T07:47:00.909Z</time>
      </trkpt>
      <trkpt lat="42.259790" lon="1.619630">
        <ele>1435.532739</ele>
        <time>2022-05-22T07:47:04.906Z</time>
      </trkpt>
      <trkpt lat="42.259808" lon="1.619502">
        <ele>1435.206928</ele>
        <time>2022-05-22T07:47:08.938Z</time>
      </trkpt>
      <trkpt lat="42.259833" lon="1.619382">
        <ele>1434.895187</ele>
        <time>2022-05-22T07:47:12.936Z</time>
      </trkpt>
      <trkpt lat="42.259859" lon="1.619239">
        <ele>1434.689069</ele>
        <time>2022-05-22T07:47:18.921Z</time>
      </trkpt>
      <trkpt lat="42.259862" lon="1.619085">
        <ele>1434.945484</ele>
        <time>2022-05-22T07:47:23.921Z</time>
      </trkpt>
      <trkpt lat="42.259859" lon="1.618951">
        <ele>1435.168622</ele>
        <time>2022-05-22T07:47:27.913Z</time>
      </trkpt>
      <trkpt lat="42.259853" lon="1.618820">
        <ele>1435.387083</ele>
        <time>2022-05-22T07:47:31.917Z</time>
      </trkpt>
      <trkpt lat="42.259838" lon="1.618692">
        <ele>1435.602787</ele>
        <time>2022-05-22T07:47:35.911Z</time>
      </trkpt>
      <trkpt lat="42.259811" lon="1.618572">
        <ele>1435.811547</ele>
        <time>2022-05-22T07:47:39.924Z</time>
      </trkpt>
      <trkpt lat="42.259795" lon="1.618429">
        <ele>1436.052269</ele>
        <time>2022-05-22T07:47:43.914Z</time>
      </trkpt>
      <trkpt lat="42.259766" lon="1.618285">
        <ele>1436.300665</ele>
        <time>2022-05-22T07:47:48.917Z</time>
      </trkpt>
      <trkpt lat="42.259766" lon="1.618135">
        <ele>1436.550333</ele>
        <time>2022-05-22T07:47:53.918Z</time>
      </trkpt>
      <trkpt lat="42.259781" lon="1.618014">
        <ele>1436.754538</ele>
        <time>2022-05-22T07:47:56.922Z</time>
      </trkpt>
      <trkpt lat="42.259825" lon="1.617863">
        <ele>1437.024649</ele>
        <time>2022-05-22T07:47:59.911Z</time>
      </trkpt>
      <trkpt lat="42.259871" lon="1.617753">
        <ele>1437.234944</ele>
        <time>2022-05-22T07:48:01.915Z</time>
      </trkpt>
      <trkpt lat="42.259931" lon="1.617629">
        <ele>1437.481532</ele>
        <time>2022-05-22T07:48:03.928Z</time>
      </trkpt>
      <trkpt lat="42.259989" lon="1.617522">
        <ele>1437.702287</ele>
        <time>2022-05-22T07:48:05.921Z</time>
      </trkpt>
      <trkpt lat="42.260047" lon="1.617391">
        <ele>1437.956367</ele>
        <time>2022-05-22T07:48:07.928Z</time>
      </trkpt>
      <trkpt lat="42.260033" lon="1.617226">
        <ele>1438.232800</ele>
        <time>2022-05-22T07:48:09.945Z</time>
      </trkpt>
      <trkpt lat="42.259938" lon="1.617094">
        <ele>1438.539260</ele>
        <time>2022-05-22T07:48:11.917Z</time>
      </trkpt>
      <trkpt lat="42.259812" lon="1.617036">
        <ele>1438.698300</ele>
        <time>2022-05-22T07:48:13.913Z</time>
      </trkpt>
      <trkpt lat="42.259686" lon="1.617001">
        <ele>1438.747786</ele>
        <time>2022-05-22T07:48:15.921Z</time>
      </trkpt>
      <trkpt lat="42.259570" lon="1.616983">
        <ele>1438.792705</ele>
        <time>2022-05-22T07:48:17.919Z</time>
      </trkpt>
      <trkpt lat="42.259473" lon="1.616956">
        <ele>1438.830804</ele>
        <time>2022-05-22T07:48:19.921Z</time>
      </trkpt>
      <trkpt lat="42.259364" lon="1.616929">
        <ele>1438.873436</ele>
        <time>2022-05-22T07:48:21.916Z</time>
      </trkpt>
      <trkpt lat="42.259262" lon="1.616902">
        <ele>1438.913421</ele>
        <time>2022-05-22T07:48:23.930Z</time>
      </trkpt>
      <trkpt lat="42.259165" lon="1.616885">
        <ele>1438.951050</ele>
        <time>2022-05-22T07:48:25.927Z</time>
      </trkpt>
      <trkpt lat="42.259033" lon="1.616913">
        <ele>1439.002452</ele>
        <time>2022-05-22T07:48:28.919Z</time>
      </trkpt>
      <trkpt lat="42.258944" lon="1.616969">
        <ele>1439.040221</ele>
        <time>2022-05-22T07:48:30.917Z</time>
      </trkpt>
      <trkpt lat="42.258863" lon="1.617024">
        <ele>1439.075096</ele>
        <time>2022-05-22T07:48:32.925Z</time>
      </trkpt>
      <trkpt lat="42.258753" lon="1.617119">
        <ele>1439.125319</ele>
        <time>2022-05-22T07:48:35.931Z</time>
      </trkpt>
      <trkpt lat="42.258680" lon="1.617192">
        <ele>1439.160257</ele>
        <time>2022-05-22T07:48:37.914Z</time>
      </trkpt>
      <trkpt lat="42.258584" lon="1.617315">
        <ele>1439.211153</ele>
        <time>2022-05-22T07:48:40.919Z</time>
      </trkpt>
      <trkpt lat="42.258493" lon="1.617419">
        <ele>1439.257005</ele>
        <time>2022-05-22T07:48:43.913Z</time>
      </trkpt>
      <trkpt lat="42.258392" lon="1.617492">
        <ele>1439.301069</ele>
        <time>2022-05-22T07:48:46.933Z</time>
      </trkpt>
      <trkpt lat="42.258302" lon="1.617465">
        <ele>1439.336536</ele>
        <time>2022-05-22T07:48:49.915Z</time>
      </trkpt>
      <trkpt lat="42.258217" lon="1.617409">
        <ele>1439.340719</ele>
        <time>2022-05-22T07:48:52.911Z</time>
      </trkpt>
      <trkpt lat="42.258164" lon="1.617306">
        <ele>1439.277570</ele>
        <time>2022-05-22T07:48:55.913Z</time>
      </trkpt>
      <trkpt lat="42.258149" lon="1.617166">
        <ele>1439.206359</ele>
        <time>2022-05-22T07:48:57.917Z</time>
      </trkpt>
      <trkpt lat="42.258142" lon="1.616997">
        <ele>1439.121152</ele>
        <time>2022-05-22T07:48:59.915Z</time>
      </trkpt>
      <trkpt lat="42.258124" lon="1.616808">
        <ele>1439.025225</ele>
        <time>2022-05-22T07:49:01.911Z</time>
      </trkpt>
      <trkpt lat="42.258084" lon="1.616613">
        <ele>1438.923362</ele>
        <time>2022-05-22T07:49:03.906Z</time>
      </trkpt>
      <trkpt lat="42.258034" lon="1.616412">
        <ele>1438.816617</ele>
        <time>2022-05-22T07:49:05.910Z</time>
      </trkpt>
      <trkpt lat="42.257942" lon="1.616210">
        <ele>1438.697219</ele>
        <time>2022-05-22T07:49:07.924Z</time>
      </trkpt>
      <trkpt lat="42.257880" lon="1.616120">
        <ele>1438.635325</ele>
        <time>2022-05-22T07:49:08.920Z</time>
      </trkpt>
      <trkpt lat="42.257759" lon="1.615950">
        <ele>1438.516595</ele>
        <time>2022-05-22T07:49:10.918Z</time>
      </trkpt>
      <trkpt lat="42.257628" lon="1.615800">
        <ele>1438.399802</ele>
        <time>2022-05-22T07:49:12.916Z</time>
      </trkpt>
      <trkpt lat="42.257468" lon="1.615682">
        <ele>1438.275821</ele>
        <time>2022-05-22T07:49:14.918Z</time>
      </trkpt>
      <trkpt lat="42.257392" lon="1.615615">
        <ele>1438.214098</ele>
        <time>2022-05-22T07:49:15.930Z</time>
      </trkpt>
      <trkpt lat="42.257306" lon="1.615547">
        <ele>1438.146325</ele>
        <time>2022-05-22T07:49:16.918Z</time>
      </trkpt>
      <trkpt lat="42.257215" lon="1.615478">
        <ele>1437.940174</ele>
        <time>2022-05-22T07:49:17.919Z</time>
      </trkpt>
      <trkpt lat="42.257122" lon="1.615410">
        <ele>1437.712887</ele>
        <time>2022-05-22T07:49:18.922Z</time>
      </trkpt>
      <trkpt lat="42.257039" lon="1.615349">
        <ele>1437.509802</ele>
        <time>2022-05-22T07:49:19.920Z</time>
      </trkpt>
      <trkpt lat="42.256960" lon="1.615272">
        <ele>1437.300428</ele>
        <time>2022-05-22T07:49:20.917Z</time>
      </trkpt>
      <trkpt lat="42.256880" lon="1.615198">
        <ele>1437.092040</ele>
        <time>2022-05-22T07:49:21.918Z</time>
      </trkpt>
      <trkpt lat="42.256803" lon="1.615124">
        <ele>1436.888939</ele>
        <time>2022-05-22T07:49:22.918Z</time>
      </trkpt>
      <trkpt lat="42.256731" lon="1.615045">
        <ele>1436.689580</ele>
        <time>2022-05-22T07:49:23.925Z</time>
      </trkpt>
      <trkpt lat="42.256654" lon="1.614962">
        <ele>1436.477859</ele>
        <time>2022-05-22T07:49:24.921Z</time>
      </trkpt>
      <trkpt lat="42.256581" lon="1.614869">
        <ele>1436.262201</ele>
        <time>2022-05-22T07:49:25.926Z</time>
      </trkpt>
      <trkpt lat="42.256527" lon="1.614753">
        <ele>1436.044196</ele>
        <time>2022-05-22T07:49:26.923Z</time>
      </trkpt>
      <trkpt lat="42.256479" lon="1.614630">
        <ele>1435.822989</ele>
        <time>2022-05-22T07:49:27.928Z</time>
      </trkpt>
      <trkpt lat="42.256427" lon="1.614528">
        <ele>1435.625954</ele>
        <time>2022-05-22T07:49:28.922Z</time>
      </trkpt>
      <trkpt lat="42.256300" lon="1.614386">
        <ele>1435.271630</ele>
        <time>2022-05-22T07:49:30.924Z</time>
      </trkpt>
      <trkpt lat="42.256123" lon="1.614444">
        <ele>1434.880158</ele>
        <time>2022-05-22T07:49:32.918Z</time>
      </trkpt>
      <trkpt lat="42.256039" lon="1.614516">
        <ele>1434.666341</ele>
        <time>2022-05-22T07:49:33.917Z</time>
      </trkpt>
      <trkpt lat="42.255959" lon="1.614598">
        <ele>1434.450506</ele>
        <time>2022-05-22T07:49:34.912Z</time>
      </trkpt>
      <trkpt lat="42.255873" lon="1.614683">
        <ele>1434.206327</ele>
        <time>2022-05-22T07:49:35.917Z</time>
      </trkpt>
      <trkpt lat="42.255788" lon="1.614769">
        <ele>1433.909551</ele>
        <time>2022-05-22T07:49:36.914Z</time>
      </trkpt>
      <trkpt lat="42.255708" lon="1.614859">
        <ele>1433.618615</ele>
        <time>2022-05-22T07:49:37.920Z</time>
      </trkpt>
      <trkpt lat="42.255628" lon="1.614948">
        <ele>1433.328997</ele>
        <time>2022-05-22T07:49:38.916Z</time>
      </trkpt>
      <trkpt lat="42.255503" lon="1.615104">
        <ele>1432.853429</ele>
        <time>2022-05-22T07:49:40.914Z</time>
      </trkpt>
      <trkpt lat="42.255366" lon="1.615224">
        <ele>1432.397131</ele>
        <time>2022-05-22T07:49:42.922Z</time>
      </trkpt>
      <trkpt lat="42.255270" lon="1.615247">
        <ele>1432.124653</ele>
        <time>2022-05-22T07:49:43.923Z</time>
      </trkpt>
      <trkpt lat="42.255173" lon="1.615257">
        <ele>1431.852778</ele>
        <time>2022-05-22T07:49:44.922Z</time>
      </trkpt>
      <trkpt lat="42.255051" lon="1.615247">
        <ele>1431.511196</ele>
        <time>2022-05-22T07:49:45.912Z</time>
      </trkpt>
      <trkpt lat="42.254940" lon="1.615213">
        <ele>1431.193111</ele>
        <time>2022-05-22T07:49:46.917Z</time>
      </trkpt>
      <trkpt lat="42.254829" lon="1.615171">
        <ele>1430.870962</ele>
        <time>2022-05-22T07:49:47.916Z</time>
      </trkpt>
      <trkpt lat="42.254731" lon="1.615130">
        <ele>1430.584250</ele>
        <time>2022-05-22T07:49:48.921Z</time>
      </trkpt>
      <trkpt lat="42.254635" lon="1.615089">
        <ele>1430.302872</ele>
        <time>2022-05-22T07:49:49.922Z</time>
      </trkpt>
      <trkpt lat="42.254554" lon="1.615031">
        <ele>1430.046672</ele>
        <time>2022-05-22T07:49:50.921Z</time>
      </trkpt>
      <trkpt lat="42.254474" lon="1.614962">
        <ele>1429.781421</ele>
        <time>2022-05-22T07:49:51.929Z</time>
      </trkpt>
      <trkpt lat="42.254353" lon="1.614786">
        <ele>1429.284535</ele>
        <time>2022-05-22T07:49:53.917Z</time>
      </trkpt>
      <trkpt lat="42.254322" lon="1.614650">
        <ele>1428.854702</ele>
        <time>2022-05-22T07:49:54.932Z</time>
      </trkpt>
      <trkpt lat="42.254315" lon="1.614486">
        <ele>1428.334427</ele>
        <time>2022-05-22T07:49:55.923Z</time>
      </trkpt>
      <trkpt lat="42.254320" lon="1.614298">
        <ele>1427.738620</ele>
        <time>2022-05-22T07:49:56.919Z</time>
      </trkpt>
      <trkpt lat="42.254316" lon="1.614122">
        <ele>1427.180940</ele>
        <time>2022-05-22T07:49:57.930Z</time>
      </trkpt>
      <trkpt lat="42.254289" lon="1.613956">
        <ele>1426.642649</ele>
        <time>2022-05-22T07:49:58.921Z</time>
      </trkpt>
      <trkpt lat="42.254230" lon="1.613806">
        <ele>1426.104663</ele>
        <time>2022-05-22T07:49:59.917Z</time>
      </trkpt>
      <trkpt lat="42.254163" lon="1.613685">
        <ele>1425.626069</ele>
        <time>2022-05-22T07:50:00.918Z</time>
      </trkpt>
      <trkpt lat="42.254076" lon="1.613590">
        <ele>1425.147411</ele>
        <time>2022-05-22T07:50:01.917Z</time>
      </trkpt>
      <trkpt lat="42.253966" lon="1.613523">
        <ele>1424.631104</ele>
        <time>2022-05-22T07:50:02.920Z</time>
      </trkpt>
      <trkpt lat="42.253869" lon="1.613444">
        <ele>1424.146463</ele>
        <time>2022-05-22T07:50:03.922Z</time>
      </trkpt>
      <trkpt lat="42.253775" lon="1.613369">
        <ele>1423.679337</ele>
        <time>2022-05-22T07:50:04.920Z</time>
      </trkpt>
      <trkpt lat="42.253682" lon="1.613303">
        <ele>1423.229833</ele>
        <time>2022-05-22T07:50:05.912Z</time>
      </trkpt>
      <trkpt lat="42.253592" lon="1.613269">
        <ele>1422.829955</ele>
        <time>2022-05-22T07:50:06.912Z</time>
      </trkpt>
      <trkpt lat="42.253511" lon="1.613341">
        <ele>1422.415070</ele>
        <time>2022-05-22T07:50:07.914Z</time>
      </trkpt>
      <trkpt lat="42.253429" lon="1.613406">
        <ele>1422.008260</ele>
        <time>2022-05-22T07:50:08.917Z</time>
      </trkpt>
      <trkpt lat="42.253271" lon="1.613524">
        <ele>1420.927717</ele>
        <time>2022-05-22T07:50:10.915Z</time>
      </trkpt>
      <trkpt lat="42.253180" lon="1.613570">
        <ele>1420.103028</ele>
        <time>2022-05-22T07:50:11.928Z</time>
      </trkpt>
      <trkpt lat="42.253007" lon="1.613584">
        <ele>1418.631998</ele>
        <time>2022-05-22T07:50:13.916Z</time>
      </trkpt>
      <trkpt lat="42.252819" lon="1.613509">
        <ele>1416.968168</ele>
        <time>2022-05-22T07:50:15.912Z</time>
      </trkpt>
      <trkpt lat="42.252704" lon="1.613401">
        <ele>1415.779402</ele>
        <time>2022-05-22T07:50:16.911Z</time>
      </trkpt>
      <trkpt lat="42.252601" lon="1.613295">
        <ele>1414.680399</ele>
        <time>2022-05-22T07:50:17.916Z</time>
      </trkpt>
      <trkpt lat="42.252501" lon="1.613197">
        <ele>1413.631821</ele>
        <time>2022-05-22T07:50:18.919Z</time>
      </trkpt>
      <trkpt lat="42.252406" lon="1.613084">
        <ele>1412.557483</ele>
        <time>2022-05-22T07:50:19.914Z</time>
      </trkpt>
      <trkpt lat="42.252332" lon="1.612969">
        <ele>1411.600133</ele>
        <time>2022-05-22T07:50:20.921Z</time>
      </trkpt>
      <trkpt lat="42.252303" lon="1.612774">
        <ele>1410.350537</ele>
        <time>2022-05-22T07:50:21.913Z</time>
      </trkpt>
      <trkpt lat="42.252261" lon="1.612581">
        <ele>1409.086671</ele>
        <time>2022-05-22T07:50:22.922Z</time>
      </trkpt>
      <trkpt lat="42.252225" lon="1.612377">
        <ele>1407.769092</ele>
        <time>2022-05-22T07:50:23.936Z</time>
      </trkpt>
      <trkpt lat="42.252170" lon="1.612186">
        <ele>1406.481500</ele>
        <time>2022-05-22T07:50:24.930Z</time>
      </trkpt>
      <trkpt lat="42.252111" lon="1.612015">
        <ele>1405.327886</ele>
        <time>2022-05-22T07:50:25.924Z</time>
      </trkpt>
      <trkpt lat="42.252033" lon="1.611837">
        <ele>1404.070075</ele>
        <time>2022-05-22T07:50:26.921Z</time>
      </trkpt>
      <trkpt lat="42.251954" lon="1.611669">
        <ele>1402.859805</ele>
        <time>2022-05-22T07:50:27.922Z</time>
      </trkpt>
      <trkpt lat="42.251891" lon="1.611502">
        <ele>1401.720050</ele>
        <time>2022-05-22T07:50:28.920Z</time>
      </trkpt>
      <trkpt lat="42.251821" lon="1.611335">
        <ele>1400.553057</ele>
        <time>2022-05-22T07:50:29.913Z</time>
      </trkpt>
      <trkpt lat="42.251773" lon="1.611153">
        <ele>1399.378218</ele>
        <time>2022-05-22T07:50:30.923Z</time>
      </trkpt>
      <trkpt lat="42.251737" lon="1.610978">
        <ele>1398.273763</ele>
        <time>2022-05-22T07:50:31.919Z</time>
      </trkpt>
      <trkpt lat="42.251718" lon="1.610793">
        <ele>1397.138055</ele>
        <time>2022-05-22T07:50:32.917Z</time>
      </trkpt>
      <trkpt lat="42.251700" lon="1.610603">
        <ele>1395.973295</ele>
        <time>2022-05-22T07:50:33.923Z</time>
      </trkpt>
      <trkpt lat="42.251677" lon="1.610418">
        <ele>1394.832606</ele>
        <time>2022-05-22T07:50:34.926Z</time>
      </trkpt>
      <trkpt lat="42.251643" lon="1.610229">
        <ele>1393.649896</ele>
        <time>2022-05-22T07:50:35.933Z</time>
      </trkpt>
      <trkpt lat="42.251606" lon="1.610046">
        <ele>1392.496359</ele>
        <time>2022-05-22T07:50:36.924Z</time>
      </trkpt>
      <trkpt lat="42.251565" lon="1.609868">
        <ele>1391.393171</ele>
        <time>2022-05-22T07:50:37.926Z</time>
      </trkpt>
      <trkpt lat="42.251534" lon="1.609687">
        <ele>1390.502255</ele>
        <time>2022-05-22T07:50:38.930Z</time>
      </trkpt>
      <trkpt lat="42.251492" lon="1.609531">
        <ele>1389.706209</ele>
        <time>2022-05-22T07:50:39.926Z</time>
      </trkpt>
      <trkpt lat="42.251483" lon="1.609381">
        <ele>1388.984525</ele>
        <time>2022-05-22T07:50:40.921Z</time>
      </trkpt>
      <trkpt lat="42.251521" lon="1.609248">
        <ele>1388.300859</ele>
        <time>2022-05-22T07:50:41.932Z</time>
      </trkpt>
      <trkpt lat="42.251572" lon="1.609122">
        <ele>1387.612189</ele>
        <time>2022-05-22T07:50:42.924Z</time>
      </trkpt>
      <trkpt lat="42.251619" lon="1.609001">
        <ele>1386.956893</ele>
        <time>2022-05-22T07:50:43.927Z</time>
      </trkpt>
      <trkpt lat="42.251656" lon="1.608884">
        <ele>1386.346760</ele>
        <time>2022-05-22T07:50:44.919Z</time>
      </trkpt>
      <trkpt lat="42.251611" lon="1.608679">
        <ele>1385.321367</ele>
        <time>2022-05-22T07:50:46.920Z</time>
      </trkpt>
      <trkpt lat="42.251549" lon="1.608579">
        <ele>1384.695819</ele>
        <time>2022-05-22T07:50:47.923Z</time>
      </trkpt>
      <trkpt lat="42.251455" lon="1.608393">
        <ele>1383.615787</ele>
        <time>2022-05-22T07:50:49.920Z</time>
      </trkpt>
      <trkpt lat="42.251434" lon="1.608257">
        <ele>1382.949559</ele>
        <time>2022-05-22T07:50:50.916Z</time>
      </trkpt>
      <trkpt lat="42.251445" lon="1.608105">
        <ele>1382.217168</ele>
        <time>2022-05-22T07:50:51.927Z</time>
      </trkpt>
      <trkpt lat="42.251457" lon="1.607956">
        <ele>1381.498422</ele>
        <time>2022-05-22T07:50:52.924Z</time>
      </trkpt>
      <trkpt lat="42.251454" lon="1.607798">
        <ele>1380.740484</ele>
        <time>2022-05-22T07:50:53.921Z</time>
      </trkpt>
      <trkpt lat="42.251449" lon="1.607628">
        <ele>1379.924606</ele>
        <time>2022-05-22T07:50:54.926Z</time>
      </trkpt>
      <trkpt lat="42.251427" lon="1.607462">
        <ele>1379.005818</ele>
        <time>2022-05-22T07:50:55.923Z</time>
      </trkpt>
      <trkpt lat="42.251400" lon="1.607313">
        <ele>1378.160444</ele>
        <time>2022-05-22T07:50:56.929Z</time>
      </trkpt>
      <trkpt lat="42.251362" lon="1.607156">
        <ele>1377.250148</ele>
        <time>2022-05-22T07:50:57.920Z</time>
      </trkpt>
      <trkpt lat="42.251310" lon="1.607014">
        <ele>1376.377068</ele>
        <time>2022-05-22T07:50:58.926Z</time>
      </trkpt>
      <trkpt lat="42.251254" lon="1.606871">
        <ele>1375.485512</ele>
        <time>2022-05-22T07:50:59.927Z</time>
      </trkpt>
      <trkpt lat="42.251201" lon="1.606732">
        <ele>1374.623833</ele>
        <time>2022-05-22T07:51:00.924Z</time>
      </trkpt>
      <trkpt lat="42.251139" lon="1.606584">
        <ele>1373.686652</ele>
        <time>2022-05-22T07:51:01.925Z</time>
      </trkpt>
      <trkpt lat="42.251080" lon="1.606428">
        <ele>1372.721225</ele>
        <time>2022-05-22T07:51:02.925Z</time>
      </trkpt>
      <trkpt lat="42.251028" lon="1.606263">
        <ele>1371.732932</ele>
        <time>2022-05-22T07:51:03.925Z</time>
      </trkpt>
      <trkpt lat="42.250972" lon="1.606102">
        <ele>1370.752593</ele>
        <time>2022-05-22T07:51:04.931Z</time>
      </trkpt>
      <trkpt lat="42.250933" lon="1.605940">
        <ele>1369.813787</ele>
        <time>2022-05-22T07:51:05.929Z</time>
      </trkpt>
      <trkpt lat="42.250898" lon="1.605773">
        <ele>1368.857277</ele>
        <time>2022-05-22T07:51:06.925Z</time>
      </trkpt>
      <trkpt lat="42.250863" lon="1.605610">
        <ele>1367.921958</ele>
        <time>2022-05-22T07:51:07.919Z</time>
      </trkpt>
      <trkpt lat="42.250817" lon="1.605460">
        <ele>1367.027178</ele>
        <time>2022-05-22T07:51:08.923Z</time>
      </trkpt>
      <trkpt lat="42.250758" lon="1.605320">
        <ele>1366.297543</ele>
        <time>2022-05-22T07:51:09.917Z</time>
      </trkpt>
      <trkpt lat="42.250698" lon="1.605199">
        <ele>1365.887742</ele>
        <time>2022-05-22T07:51:10.923Z</time>
      </trkpt>
      <trkpt lat="42.250621" lon="1.605100">
        <ele>1365.483674</ele>
        <time>2022-05-22T07:51:11.922Z</time>
      </trkpt>
      <trkpt lat="42.250516" lon="1.605047">
        <ele>1365.057586</ele>
        <time>2022-05-22T07:51:12.931Z</time>
      </trkpt>
      <trkpt lat="42.250413" lon="1.605014">
        <ele>1364.655192</ele>
        <time>2022-05-22T07:51:13.921Z</time>
      </trkpt>
      <trkpt lat="42.250293" lon="1.604987">
        <ele>1364.192751</ele>
        <time>2022-05-22T07:51:14.922Z</time>
      </trkpt>
      <trkpt lat="42.250165" lon="1.604938">
        <ele>1363.687026</ele>
        <time>2022-05-22T07:51:15.922Z</time>
      </trkpt>
      <trkpt lat="42.250043" lon="1.604865">
        <ele>1363.179813</ele>
        <time>2022-05-22T07:51:16.920Z</time>
      </trkpt>
      <trkpt lat="42.249916" lon="1.604788">
        <ele>1362.650657</ele>
        <time>2022-05-22T07:51:17.922Z</time>
      </trkpt>
      <trkpt lat="42.249802" lon="1.604700">
        <ele>1362.151553</ele>
        <time>2022-05-22T07:51:18.921Z</time>
      </trkpt>
      <trkpt lat="42.249702" lon="1.604575">
        <ele>1361.633662</ele>
        <time>2022-05-22T07:51:19.916Z</time>
      </trkpt>
      <trkpt lat="42.249595" lon="1.604454">
        <ele>1361.103230</ele>
        <time>2022-05-22T07:51:20.926Z</time>
      </trkpt>
      <trkpt lat="42.249494" lon="1.604340">
        <ele>1360.602929</ele>
        <time>2022-05-22T07:51:21.919Z</time>
      </trkpt>
      <trkpt lat="42.249393" lon="1.604235">
        <ele>1360.118475</ele>
        <time>2022-05-22T07:51:22.914Z</time>
      </trkpt>
      <trkpt lat="42.249314" lon="1.604098">
        <ele>1359.629816</ele>
        <time>2022-05-22T07:51:23.917Z</time>
      </trkpt>
      <trkpt lat="42.249224" lon="1.603961">
        <ele>1358.425672</ele>
        <time>2022-05-22T07:51:24.914Z</time>
      </trkpt>
      <trkpt lat="42.249129" lon="1.603831">
        <ele>1357.218789</ele>
        <time>2022-05-22T07:51:25.920Z</time>
      </trkpt>
      <trkpt lat="42.249052" lon="1.603680">
        <ele>1356.007380</ele>
        <time>2022-05-22T07:51:26.916Z</time>
      </trkpt>
      <trkpt lat="42.248979" lon="1.603526">
        <ele>1354.799218</ele>
        <time>2022-05-22T07:51:27.917Z</time>
      </trkpt>
      <trkpt lat="42.248919" lon="1.603365">
        <ele>1353.608347</ele>
        <time>2022-05-22T07:51:28.919Z</time>
      </trkpt>
      <trkpt lat="42.248880" lon="1.603199">
        <ele>1352.457725</ele>
        <time>2022-05-22T07:51:29.920Z</time>
      </trkpt>
      <trkpt lat="42.248844" lon="1.603031">
        <ele>1351.302231</ele>
        <time>2022-05-22T07:51:30.916Z</time>
      </trkpt>
      <trkpt lat="42.248806" lon="1.602863">
        <ele>1350.141646</ele>
        <time>2022-05-22T07:51:31.925Z</time>
      </trkpt>
      <trkpt lat="42.248757" lon="1.602702">
        <ele>1348.991573</ele>
        <time>2022-05-22T07:51:32.923Z</time>
      </trkpt>
      <trkpt lat="42.248697" lon="1.602555">
        <ele>1347.882533</ele>
        <time>2022-05-22T07:51:33.921Z</time>
      </trkpt>
      <trkpt lat="42.248632" lon="1.602413">
        <ele>1346.779498</ele>
        <time>2022-05-22T07:51:34.922Z</time>
      </trkpt>
      <trkpt lat="42.248566" lon="1.602272">
        <ele>1345.677331</ele>
        <time>2022-05-22T07:51:35.918Z</time>
      </trkpt>
      <trkpt lat="42.248504" lon="1.602126">
        <ele>1344.565296</ele>
        <time>2022-05-22T07:51:36.913Z</time>
      </trkpt>
      <trkpt lat="42.248452" lon="1.601980">
        <ele>1343.509300</ele>
        <time>2022-05-22T07:51:37.912Z</time>
      </trkpt>
      <trkpt lat="42.248398" lon="1.601829">
        <ele>1342.608160</ele>
        <time>2022-05-22T07:51:38.912Z</time>
      </trkpt>
      <trkpt lat="42.248319" lon="1.601684">
        <ele>1341.640695</ele>
        <time>2022-05-22T07:51:39.924Z</time>
      </trkpt>
      <trkpt lat="42.248232" lon="1.601544">
        <ele>1340.658439</ele>
        <time>2022-05-22T07:51:40.920Z</time>
      </trkpt>
      <trkpt lat="42.248149" lon="1.601412">
        <ele>1339.727762</ele>
        <time>2022-05-22T07:51:41.920Z</time>
      </trkpt>
      <trkpt lat="42.248035" lon="1.601281">
        <ele>1338.641306</ele>
        <time>2022-05-22T07:51:42.921Z</time>
      </trkpt>
      <trkpt lat="42.247917" lon="1.601151">
        <ele>1337.535975</ele>
        <time>2022-05-22T07:51:43.917Z</time>
      </trkpt>
      <trkpt lat="42.247807" lon="1.601027">
        <ele>1336.495960</ele>
        <time>2022-05-22T07:51:44.917Z</time>
      </trkpt>
      <trkpt lat="42.247698" lon="1.600890">
        <ele>1335.415187</ele>
        <time>2022-05-22T07:51:45.908Z</time>
      </trkpt>
      <trkpt lat="42.247592" lon="1.600750">
        <ele>1334.339047</ele>
        <time>2022-05-22T07:51:46.912Z</time>
      </trkpt>
      <trkpt lat="42.247499" lon="1.600608">
        <ele>1333.320206</ele>
        <time>2022-05-22T07:51:47.918Z</time>
      </trkpt>
      <trkpt lat="42.247409" lon="1.600459">
        <ele>1332.286799</ele>
        <time>2022-05-22T07:51:48.916Z</time>
      </trkpt>
      <trkpt lat="42.247329" lon="1.600312">
        <ele>1331.306365</ele>
        <time>2022-05-22T07:51:49.916Z</time>
      </trkpt>
      <trkpt lat="42.247254" lon="1.600177">
        <ele>1330.443314</ele>
        <time>2022-05-22T07:51:50.916Z</time>
      </trkpt>
      <trkpt lat="42.247193" lon="1.600034">
        <ele>1329.892656</ele>
        <time>2022-05-22T07:51:51.919Z</time>
      </trkpt>
      <trkpt lat="42.247144" lon="1.599890">
        <ele>1329.363879</ele>
        <time>2022-05-22T07:51:52.925Z</time>
      </trkpt>
      <trkpt lat="42.247110" lon="1.599734">
        <ele>1328.821303</ele>
        <time>2022-05-22T07:51:53.922Z</time>
      </trkpt>
      <trkpt lat="42.247077" lon="1.599580">
        <ele>1328.286396</ele>
        <time>2022-05-22T07:51:54.915Z</time>
      </trkpt>
      <trkpt lat="42.247056" lon="1.599415">
        <ele>1327.727806</ele>
        <time>2022-05-22T07:51:55.917Z</time>
      </trkpt>
      <trkpt lat="42.247055" lon="1.599255">
        <ele>1327.193955</ele>
        <time>2022-05-22T07:51:56.919Z</time>
      </trkpt>
      <trkpt lat="42.247045" lon="1.599097">
        <ele>1326.664874</ele>
        <time>2022-05-22T07:51:57.913Z</time>
      </trkpt>
      <trkpt lat="42.247032" lon="1.598949">
        <ele>1326.167615</ele>
        <time>2022-05-22T07:51:58.918Z</time>
      </trkpt>
      <trkpt lat="42.246999" lon="1.598806">
        <ele>1325.667857</ele>
        <time>2022-05-22T07:51:59.917Z</time>
      </trkpt>
      <trkpt lat="42.246961" lon="1.598674">
        <ele>1325.195315</ele>
        <time>2022-05-22T07:52:00.914Z</time>
      </trkpt>
      <trkpt lat="42.246899" lon="1.598562">
        <ele>1324.728701</ele>
        <time>2022-05-22T07:52:01.914Z</time>
      </trkpt>
      <trkpt lat="42.246838" lon="1.598462">
        <ele>1324.296371</ele>
        <time>2022-05-22T07:52:02.917Z</time>
      </trkpt>
      <trkpt lat="42.246783" lon="1.598359">
        <ele>1323.872637</ele>
        <time>2022-05-22T07:52:03.920Z</time>
      </trkpt>
      <trkpt lat="42.246699" lon="1.598144">
        <ele>1323.061517</ele>
        <time>2022-05-22T07:52:05.918Z</time>
      </trkpt>
      <trkpt lat="42.246664" lon="1.598026">
        <ele>1322.637385</ele>
        <time>2022-05-22T07:52:06.915Z</time>
      </trkpt>
      <trkpt lat="42.246628" lon="1.597908">
        <ele>1322.231890</ele>
        <time>2022-05-22T07:52:07.916Z</time>
      </trkpt>
      <trkpt lat="42.246580" lon="1.597699">
        <ele>1321.577142</ele>
        <time>2022-05-22T07:52:09.918Z</time>
      </trkpt>
      <trkpt lat="42.246607" lon="1.597465">
        <ele>1320.868543</ele>
        <time>2022-05-22T07:52:11.915Z</time>
      </trkpt>
      <trkpt lat="42.246574" lon="1.597249">
        <ele>1320.208634</ele>
        <time>2022-05-22T07:52:13.917Z</time>
      </trkpt>
      <trkpt lat="42.246549" lon="1.597041">
        <ele>1319.578133</ele>
        <time>2022-05-22T07:52:15.913Z</time>
      </trkpt>
      <trkpt lat="42.246501" lon="1.596853">
        <ele>1318.983104</ele>
        <time>2022-05-22T07:52:17.919Z</time>
      </trkpt>
      <trkpt lat="42.246429" lon="1.596676">
        <ele>1318.378814</ele>
        <time>2022-05-22T07:52:19.925Z</time>
      </trkpt>
      <trkpt lat="42.246338" lon="1.596520">
        <ele>1317.784543</ele>
        <time>2022-05-22T07:52:21.902Z</time>
      </trkpt>
      <trkpt lat="42.246264" lon="1.596342">
        <ele>1317.173711</ele>
        <time>2022-05-22T07:52:23.914Z</time>
      </trkpt>
      <trkpt lat="42.246241" lon="1.596148">
        <ele>1316.585848</ele>
        <time>2022-05-22T07:52:25.922Z</time>
      </trkpt>
      <trkpt lat="42.246287" lon="1.595945">
        <ele>1315.950634</ele>
        <time>2022-05-22T07:52:27.919Z</time>
      </trkpt>
      <trkpt lat="42.246359" lon="1.595760">
        <ele>1315.325259</ele>
        <time>2022-05-22T07:52:29.919Z</time>
      </trkpt>
      <trkpt lat="42.246441" lon="1.595592">
        <ele>1314.429711</ele>
        <time>2022-05-22T07:52:31.923Z</time>
      </trkpt>
      <trkpt lat="42.246559" lon="1.595425">
        <ele>1313.250969</ele>
        <time>2022-05-22T07:52:33.919Z</time>
      </trkpt>
      <trkpt lat="42.246688" lon="1.595243">
        <ele>1311.964440</ele>
        <time>2022-05-22T07:52:35.914Z</time>
      </trkpt>
      <trkpt lat="42.246752" lon="1.595140">
        <ele>1311.277840</ele>
        <time>2022-05-22T07:52:36.926Z</time>
      </trkpt>
      <trkpt lat="42.246806" lon="1.595034">
        <ele>1310.620856</ele>
        <time>2022-05-22T07:52:37.918Z</time>
      </trkpt>
      <trkpt lat="42.246851" lon="1.594911">
        <ele>1309.920337</ele>
        <time>2022-05-22T07:52:38.912Z</time>
      </trkpt>
      <trkpt lat="42.246890" lon="1.594772">
        <ele>1309.161371</ele>
        <time>2022-05-22T07:52:39.918Z</time>
      </trkpt>
      <trkpt lat="42.246926" lon="1.594643">
        <ele>1308.457481</ele>
        <time>2022-05-22T07:52:40.918Z</time>
      </trkpt>
      <trkpt lat="42.246970" lon="1.594514">
        <ele>1307.732287</ele>
        <time>2022-05-22T07:52:41.914Z</time>
      </trkpt>
      <trkpt lat="42.247000" lon="1.594377">
        <ele>1307.002839</ele>
        <time>2022-05-22T07:52:42.922Z</time>
      </trkpt>
      <trkpt lat="42.247012" lon="1.594230">
        <ele>1306.247747</ele>
        <time>2022-05-22T07:52:43.906Z</time>
      </trkpt>
      <trkpt lat="42.246999" lon="1.594098">
        <ele>1305.567852</ele>
        <time>2022-05-22T07:52:44.917Z</time>
      </trkpt>
      <trkpt lat="42.246915" lon="1.593899">
        <ele>1304.398232</ele>
        <time>2022-05-22T07:52:46.916Z</time>
      </trkpt>
      <trkpt lat="42.246728" lon="1.593835">
        <ele>1303.067692</ele>
        <time>2022-05-22T07:52:48.916Z</time>
      </trkpt>
      <trkpt lat="42.246634" lon="1.593813">
        <ele>1302.535829</ele>
        <time>2022-05-22T07:52:49.914Z</time>
      </trkpt>
      <trkpt lat="42.246523" lon="1.593783">
        <ele>1302.059858</ele>
        <time>2022-05-22T07:52:50.912Z</time>
      </trkpt>
      <trkpt lat="42.246408" lon="1.593737">
        <ele>1301.555565</ele>
        <time>2022-05-22T07:52:51.917Z</time>
      </trkpt>
      <trkpt lat="42.246298" lon="1.593676">
        <ele>1301.055593</ele>
        <time>2022-05-22T07:52:52.918Z</time>
      </trkpt>
      <trkpt lat="42.246190" lon="1.593602">
        <ele>1300.546411</ele>
        <time>2022-05-22T07:52:53.911Z</time>
      </trkpt>
      <trkpt lat="42.246077" lon="1.593519">
        <ele>1300.005586</ele>
        <time>2022-05-22T07:52:54.916Z</time>
      </trkpt>
      <trkpt lat="42.245995" lon="1.593427">
        <ele>1299.557392</ele>
        <time>2022-05-22T07:52:55.919Z</time>
      </trkpt>
      <trkpt lat="42.245947" lon="1.593314">
        <ele>1299.151876</ele>
        <time>2022-05-22T07:52:56.918Z</time>
      </trkpt>
      <trkpt lat="42.245923" lon="1.593186">
        <ele>1298.740883</ele>
        <time>2022-05-22T07:52:57.921Z</time>
      </trkpt>
      <trkpt lat="42.245899" lon="1.593041">
        <ele>1298.278412</ele>
        <time>2022-05-22T07:52:58.920Z</time>
      </trkpt>
      <trkpt lat="42.245885" lon="1.592888">
        <ele>1297.798560</ele>
        <time>2022-05-22T07:52:59.921Z</time>
      </trkpt>
      <trkpt lat="42.245882" lon="1.592735">
        <ele>1297.322165</ele>
        <time>2022-05-22T07:53:00.923Z</time>
      </trkpt>
      <trkpt lat="42.245884" lon="1.592581">
        <ele>1296.842751</ele>
        <time>2022-05-22T07:53:01.934Z</time>
      </trkpt>
      <trkpt lat="42.245914" lon="1.592427">
        <ele>1296.347091</ele>
        <time>2022-05-22T07:53:02.918Z</time>
      </trkpt>
      <trkpt lat="42.245969" lon="1.592273">
        <ele>1295.814881</ele>
        <time>2022-05-22T07:53:03.924Z</time>
      </trkpt>
      <trkpt lat="42.246019" lon="1.592134">
        <ele>1295.333856</ele>
        <time>2022-05-22T07:53:04.934Z</time>
      </trkpt>
      <trkpt lat="42.246073" lon="1.592013">
        <ele>1294.872787</ele>
        <time>2022-05-22T07:53:05.922Z</time>
      </trkpt>
      <trkpt lat="42.246133" lon="1.591903">
        <ele>1294.414673</ele>
        <time>2022-05-22T07:53:06.920Z</time>
      </trkpt>
      <trkpt lat="42.246184" lon="1.591800">
        <ele>1293.999203</ele>
        <time>2022-05-22T07:53:07.920Z</time>
      </trkpt>
      <trkpt lat="42.246256" lon="1.591620">
        <ele>1293.313230</ele>
        <time>2022-05-22T07:53:09.919Z</time>
      </trkpt>
      <trkpt lat="42.246232" lon="1.591460">
        <ele>1292.765880</ele>
        <time>2022-05-22T07:53:11.920Z</time>
      </trkpt>
      <trkpt lat="42.246109" lon="1.591442">
        <ele>1292.205529</ele>
        <time>2022-05-22T07:53:13.916Z</time>
      </trkpt>
      <trkpt lat="42.245963" lon="1.591499">
        <ele>1291.517203</ele>
        <time>2022-05-22T07:53:15.918Z</time>
      </trkpt>
      <trkpt lat="42.245822" lon="1.591570">
        <ele>1290.835661</ele>
        <time>2022-05-22T07:53:17.919Z</time>
      </trkpt>
      <trkpt lat="42.245702" lon="1.591609">
        <ele>1290.276649</ele>
        <time>2022-05-22T07:53:19.926Z</time>
      </trkpt>
      <trkpt lat="42.245582" lon="1.591598">
        <ele>1289.731895</ele>
        <time>2022-05-22T07:53:21.913Z</time>
      </trkpt>
      <trkpt lat="42.245478" lon="1.591543">
        <ele>1289.226047</ele>
        <time>2022-05-22T07:53:23.920Z</time>
      </trkpt>
      <trkpt lat="42.245375" lon="1.591463">
        <ele>1288.687925</ele>
        <time>2022-05-22T07:53:25.921Z</time>
      </trkpt>
      <trkpt lat="42.245267" lon="1.591420">
        <ele>1288.177967</ele>
        <time>2022-05-22T07:53:27.920Z</time>
      </trkpt>
      <trkpt lat="42.245139" lon="1.591364">
        <ele>1287.568583</ele>
        <time>2022-05-22T07:53:29.906Z</time>
      </trkpt>
      <trkpt lat="42.245040" lon="1.591263">
        <ele>1287.015727</ele>
        <time>2022-05-22T07:53:31.915Z</time>
      </trkpt>
      <trkpt lat="42.245008" lon="1.591114">
        <ele>1286.773102</ele>
        <time>2022-05-22T07:53:33.914Z</time>
      </trkpt>
      <trkpt lat="42.245046" lon="1.590937">
        <ele>1286.484890</ele>
        <time>2022-05-22T07:53:35.915Z</time>
      </trkpt>
      <trkpt lat="42.245073" lon="1.590762">
        <ele>1286.205331</ele>
        <time>2022-05-22T07:53:37.913Z</time>
      </trkpt>
      <trkpt lat="42.245064" lon="1.590593">
        <ele>1285.940352</ele>
        <time>2022-05-22T07:53:39.917Z</time>
      </trkpt>
      <trkpt lat="42.245006" lon="1.590461">
        <ele>1285.700296</ele>
        <time>2022-05-22T07:53:41.917Z</time>
      </trkpt>
      <trkpt lat="42.244919" lon="1.590367">
        <ele>1285.464945</ele>
        <time>2022-05-22T07:53:43.925Z</time>
      </trkpt>
      <trkpt lat="42.244833" lon="1.590282">
        <ele>1285.239827</ele>
        <time>2022-05-22T07:53:45.918Z</time>
      </trkpt>
      <trkpt lat="42.244741" lon="1.590166">
        <ele>1284.973963</ele>
        <time>2022-05-22T07:53:47.913Z</time>
      </trkpt>
      <trkpt lat="42.244685" lon="1.590021">
        <ele>1284.718195</ele>
        <time>2022-05-22T07:53:49.916Z</time>
      </trkpt>
      <trkpt lat="42.244674" lon="1.589846">
        <ele>1284.443530</ele>
        <time>2022-05-22T07:53:51.916Z</time>
      </trkpt>
      <trkpt lat="42.244661" lon="1.589656">
        <ele>1284.145125</ele>
        <time>2022-05-22T07:53:53.919Z</time>
      </trkpt>
      <trkpt lat="42.244655" lon="1.589461">
        <ele>1283.839904</ele>
        <time>2022-05-22T07:53:55.927Z</time>
      </trkpt>
      <trkpt lat="42.244643" lon="1.589265">
        <ele>1283.532336</ele>
        <time>2022-05-22T07:53:57.920Z</time>
      </trkpt>
      <trkpt lat="42.244613" lon="1.589078">
        <ele>1283.233100</ele>
        <time>2022-05-22T07:53:59.944Z</time>
      </trkpt>
      <trkpt lat="42.244551" lon="1.588882">
        <ele>1282.686494</ele>
        <time>2022-05-22T07:54:01.918Z</time>
      </trkpt>
      <trkpt lat="42.244468" lon="1.588688">
        <ele>1282.105504</ele>
        <time>2022-05-22T07:54:03.918Z</time>
      </trkpt>
      <trkpt lat="42.244392" lon="1.588477">
        <ele>1281.497076</ele>
        <time>2022-05-22T07:54:05.918Z</time>
      </trkpt>
      <trkpt lat="42.244382" lon="1.588234">
        <ele>1280.866024</ele>
        <time>2022-05-22T07:54:07.923Z</time>
      </trkpt>
      <trkpt lat="42.244388" lon="1.588112">
        <ele>1280.548991</ele>
        <time>2022-05-22T07:54:08.920Z</time>
      </trkpt>
      <trkpt lat="42.244393" lon="1.587989">
        <ele>1280.229581</ele>
        <time>2022-05-22T07:54:09.916Z</time>
      </trkpt>
      <trkpt lat="42.244362" lon="1.587751">
        <ele>1279.602987</ele>
        <time>2022-05-22T07:54:11.916Z</time>
      </trkpt>
      <trkpt lat="42.244311" lon="1.587648">
        <ele>1279.281683</ele>
        <time>2022-05-22T07:54:12.920Z</time>
      </trkpt>
      <trkpt lat="42.244251" lon="1.587554">
        <ele>1278.959857</ele>
        <time>2022-05-22T07:54:13.917Z</time>
      </trkpt>
      <trkpt lat="42.244189" lon="1.587459">
        <ele>1278.631473</ele>
        <time>2022-05-22T07:54:14.931Z</time>
      </trkpt>
      <trkpt lat="42.244136" lon="1.587359">
        <ele>1278.312578</ele>
        <time>2022-05-22T07:54:15.922Z</time>
      </trkpt>
      <trkpt lat="42.244097" lon="1.587137">
        <ele>1277.720961</ele>
        <time>2022-05-22T07:54:17.924Z</time>
      </trkpt>
      <trkpt lat="42.244064" lon="1.586911">
        <ele>1277.123669</ele>
        <time>2022-05-22T07:54:19.922Z</time>
      </trkpt>
      <trkpt lat="42.244030" lon="1.586688">
        <ele>1276.371325</ele>
        <time>2022-05-22T07:54:21.920Z</time>
      </trkpt>
      <trkpt lat="42.243968" lon="1.586471">
        <ele>1275.518128</ele>
        <time>2022-05-22T07:54:23.922Z</time>
      </trkpt>
      <trkpt lat="42.243925" lon="1.586361">
        <ele>1275.061841</ele>
        <time>2022-05-22T07:54:24.920Z</time>
      </trkpt>
      <trkpt lat="42.243899" lon="1.586243">
        <ele>1274.610242</ele>
        <time>2022-05-22T07:54:25.928Z</time>
      </trkpt>
      <trkpt lat="42.243880" lon="1.586115">
        <ele>1274.131383</ele>
        <time>2022-05-22T07:54:26.920Z</time>
      </trkpt>
      <trkpt lat="42.243884" lon="1.585987">
        <ele>1273.661451</ele>
        <time>2022-05-22T07:54:27.921Z</time>
      </trkpt>
      <trkpt lat="42.243899" lon="1.585867">
        <ele>1273.215051</ele>
        <time>2022-05-22T07:54:28.918Z</time>
      </trkpt>
      <trkpt lat="42.243930" lon="1.585744">
        <ele>1272.738447</ele>
        <time>2022-05-22T07:54:29.926Z</time>
      </trkpt>
      <trkpt lat="42.243982" lon="1.585634">
        <ele>1272.259710</ele>
        <time>2022-05-22T07:54:30.925Z</time>
      </trkpt>
      <trkpt lat="42.244027" lon="1.585523">
        <ele>1271.795499</ele>
        <time>2022-05-22T07:54:31.922Z</time>
      </trkpt>
      <trkpt lat="42.244069" lon="1.585406">
        <ele>1271.318540</ele>
        <time>2022-05-22T07:54:32.921Z</time>
      </trkpt>
      <trkpt lat="42.244120" lon="1.585183">
        <ele>1270.462417</ele>
        <time>2022-05-22T07:54:34.920Z</time>
      </trkpt>
      <trkpt lat="42.244139" lon="1.585059">
        <ele>1269.997936</ele>
        <time>2022-05-22T07:54:35.916Z</time>
      </trkpt>
      <trkpt lat="42.244167" lon="1.584828">
        <ele>1269.139331</ele>
        <time>2022-05-22T07:54:37.923Z</time>
      </trkpt>
      <trkpt lat="42.244178" lon="1.584705">
        <ele>1268.684879</ele>
        <time>2022-05-22T07:54:38.922Z</time>
      </trkpt>
      <trkpt lat="42.244187" lon="1.584577">
        <ele>1268.213254</ele>
        <time>2022-05-22T07:54:39.915Z</time>
      </trkpt>
      <trkpt lat="42.244181" lon="1.584446">
        <ele>1267.742297</ele>
        <time>2022-05-22T07:54:40.921Z</time>
      </trkpt>
      <trkpt lat="42.244159" lon="1.584319">
        <ele>1267.281772</ele>
        <time>2022-05-22T07:54:41.921Z</time>
      </trkpt>
      <trkpt lat="42.244131" lon="1.584190">
        <ele>1266.807123</ele>
        <time>2022-05-22T07:54:42.919Z</time>
      </trkpt>
      <trkpt lat="42.244100" lon="1.584058">
        <ele>1266.318165</ele>
        <time>2022-05-22T07:54:43.921Z</time>
      </trkpt>
      <trkpt lat="42.244063" lon="1.583934">
        <ele>1265.846117</ele>
        <time>2022-05-22T07:54:44.920Z</time>
      </trkpt>
      <trkpt lat="42.244027" lon="1.583819">
        <ele>1265.405262</ele>
        <time>2022-05-22T07:54:45.907Z</time>
      </trkpt>
      <trkpt lat="42.243951" lon="1.583609">
        <ele>1264.579929</ele>
        <time>2022-05-22T07:54:47.912Z</time>
      </trkpt>
      <trkpt lat="42.243921" lon="1.583493">
        <ele>1264.146080</ele>
        <time>2022-05-22T07:54:48.917Z</time>
      </trkpt>
      <trkpt lat="42.243902" lon="1.583370">
        <ele>1263.702435</ele>
        <time>2022-05-22T07:54:49.916Z</time>
      </trkpt>
      <trkpt lat="42.243892" lon="1.583239">
        <ele>1263.237444</ele>
        <time>2022-05-22T07:54:50.919Z</time>
      </trkpt>
      <trkpt lat="42.243881" lon="1.583104">
        <ele>1262.757905</ele>
        <time>2022-05-22T07:54:51.930Z</time>
      </trkpt>
      <trkpt lat="42.243866" lon="1.582982">
        <ele>1262.321244</ele>
        <time>2022-05-22T07:54:52.919Z</time>
      </trkpt>
      <trkpt lat="42.243843" lon="1.582735">
        <ele>1261.442258</ele>
        <time>2022-05-22T07:54:54.922Z</time>
      </trkpt>
      <trkpt lat="42.243826" lon="1.582492">
        <ele>1260.580444</ele>
        <time>2022-05-22T07:54:56.923Z</time>
      </trkpt>
      <trkpt lat="42.243815" lon="1.582365">
        <ele>1260.128970</ele>
        <time>2022-05-22T07:54:57.924Z</time>
      </trkpt>
      <trkpt lat="42.243800" lon="1.582242">
        <ele>1259.688825</ele>
        <time>2022-05-22T07:54:58.918Z</time>
      </trkpt>
      <trkpt lat="42.243710" lon="1.582049">
        <ele>1258.890170</ele>
        <time>2022-05-22T07:55:00.916Z</time>
      </trkpt>
      <trkpt lat="42.243612" lon="1.581990">
        <ele>1258.384696</ele>
        <time>2022-05-22T07:55:01.929Z</time>
      </trkpt>
      <trkpt lat="42.243509" lon="1.581924">
        <ele>1257.847617</ele>
        <time>2022-05-22T07:55:02.922Z</time>
      </trkpt>
      <trkpt lat="42.243422" lon="1.581849">
        <ele>1257.361391</ele>
        <time>2022-05-22T07:55:03.921Z</time>
      </trkpt>
      <trkpt lat="42.243356" lon="1.581748">
        <ele>1256.891534</ele>
        <time>2022-05-22T07:55:04.923Z</time>
      </trkpt>
      <trkpt lat="42.243296" lon="1.581541">
        <ele>1256.116222</ele>
        <time>2022-05-22T07:55:06.923Z</time>
      </trkpt>
      <trkpt lat="42.243319" lon="1.581304">
        <ele>1255.282573</ele>
        <time>2022-05-22T07:55:08.914Z</time>
      </trkpt>
      <trkpt lat="42.243371" lon="1.581171">
        <ele>1254.757995</ele>
        <time>2022-05-22T07:55:09.921Z</time>
      </trkpt>
      <trkpt lat="42.243421" lon="1.581025">
        <ele>1254.196951</ele>
        <time>2022-05-22T07:55:10.920Z</time>
      </trkpt>
      <trkpt lat="42.243445" lon="1.580886">
        <ele>1253.699155</ele>
        <time>2022-05-22T07:55:11.915Z</time>
      </trkpt>
      <trkpt lat="42.243457" lon="1.580745">
        <ele>1253.204156</ele>
        <time>2022-05-22T07:55:12.917Z</time>
      </trkpt>
      <trkpt lat="42.243457" lon="1.580600">
        <ele>1252.698445</ele>
        <time>2022-05-22T07:55:13.919Z</time>
      </trkpt>
      <trkpt lat="42.243442" lon="1.580459">
        <ele>1252.201634</ele>
        <time>2022-05-22T07:55:14.919Z</time>
      </trkpt>
      <trkpt lat="42.243407" lon="1.580330">
        <ele>1251.722461</ele>
        <time>2022-05-22T07:55:15.927Z</time>
      </trkpt>
      <trkpt lat="42.243355" lon="1.580198">
        <ele>1251.200966</ele>
        <time>2022-05-22T07:55:16.914Z</time>
      </trkpt>
      <trkpt lat="42.243305" lon="1.580063">
        <ele>1250.729507</ele>
        <time>2022-05-22T07:55:17.919Z</time>
      </trkpt>
      <trkpt lat="42.243233" lon="1.579940">
        <ele>1250.288199</ele>
        <time>2022-05-22T07:55:18.914Z</time>
      </trkpt>
      <trkpt lat="42.243172" lon="1.579798">
        <ele>1249.826150</ele>
        <time>2022-05-22T07:55:19.919Z</time>
      </trkpt>
      <trkpt lat="42.243084" lon="1.579672">
        <ele>1249.338638</ele>
        <time>2022-05-22T07:55:20.928Z</time>
      </trkpt>
      <trkpt lat="42.242994" lon="1.579534">
        <ele>1248.821040</ele>
        <time>2022-05-22T07:55:21.924Z</time>
      </trkpt>
      <trkpt lat="42.242911" lon="1.579390">
        <ele>1248.307419</ele>
        <time>2022-05-22T07:55:22.925Z</time>
      </trkpt>
      <trkpt lat="42.242830" lon="1.579248">
        <ele>1247.802903</ele>
        <time>2022-05-22T07:55:23.919Z</time>
      </trkpt>
      <trkpt lat="42.242752" lon="1.579113">
        <ele>1247.320944</ele>
        <time>2022-05-22T07:55:24.916Z</time>
      </trkpt>
      <trkpt lat="42.242665" lon="1.578987">
        <ele>1246.836031</ele>
        <time>2022-05-22T07:55:25.918Z</time>
      </trkpt>
      <trkpt lat="42.242591" lon="1.578849">
        <ele>1246.356463</ele>
        <time>2022-05-22T07:55:26.913Z</time>
      </trkpt>
      <trkpt lat="42.242513" lon="1.578717">
        <ele>1245.881130</ele>
        <time>2022-05-22T07:55:27.924Z</time>
      </trkpt>
      <trkpt lat="42.242440" lon="1.578579">
        <ele>1245.403782</ele>
        <time>2022-05-22T07:55:28.920Z</time>
      </trkpt>
      <trkpt lat="42.242380" lon="1.578434">
        <ele>1244.936273</ele>
        <time>2022-05-22T07:55:29.932Z</time>
      </trkpt>
      <trkpt lat="42.242323" lon="1.578289">
        <ele>1244.474222</ele>
        <time>2022-05-22T07:55:30.934Z</time>
      </trkpt>
      <trkpt lat="42.242255" lon="1.578154">
        <ele>1243.959339</ele>
        <time>2022-05-22T07:55:31.924Z</time>
      </trkpt>
      <trkpt lat="42.242182" lon="1.578030">
        <ele>1243.282806</ele>
        <time>2022-05-22T07:55:32.925Z</time>
      </trkpt>
      <trkpt lat="42.242097" lon="1.577940">
        <ele>1242.659827</ele>
        <time>2022-05-22T07:55:33.924Z</time>
      </trkpt>
      <trkpt lat="42.242000" lon="1.577889">
        <ele>1242.059416</ele>
        <time>2022-05-22T07:55:34.919Z</time>
      </trkpt>
      <trkpt lat="42.241896" lon="1.577879">
        <ele>1241.458000</ele>
        <time>2022-05-22T07:55:35.920Z</time>
      </trkpt>
      <trkpt lat="42.241793" lon="1.577883">
        <ele>1240.863625</ele>
        <time>2022-05-22T07:55:36.917Z</time>
      </trkpt>
      <trkpt lat="42.241685" lon="1.577884">
        <ele>1240.240639</ele>
        <time>2022-05-22T07:55:37.916Z</time>
      </trkpt>
      <trkpt lat="42.241589" lon="1.577858">
        <ele>1239.675866</ele>
        <time>2022-05-22T07:55:38.917Z</time>
      </trkpt>
      <trkpt lat="42.241487" lon="1.577781">
        <ele>1239.001857</ele>
        <time>2022-05-22T07:55:39.917Z</time>
      </trkpt>
      <trkpt lat="42.241398" lon="1.577673">
        <ele>1238.311744</ele>
        <time>2022-05-22T07:55:40.918Z</time>
      </trkpt>
      <trkpt lat="42.241334" lon="1.577539">
        <ele>1237.630768</ele>
        <time>2022-05-22T07:55:41.917Z</time>
      </trkpt>
      <trkpt lat="42.241300" lon="1.577377">
        <ele>1236.911709</ele>
        <time>2022-05-22T07:55:42.914Z</time>
      </trkpt>
      <trkpt lat="42.241302" lon="1.577194">
        <ele>1236.130149</ele>
        <time>2022-05-22T07:55:43.914Z</time>
      </trkpt>
      <trkpt lat="42.241325" lon="1.577019">
        <ele>1235.371153</ele>
        <time>2022-05-22T07:55:44.913Z</time>
      </trkpt>
      <trkpt lat="42.241349" lon="1.576855">
        <ele>1234.657264</ele>
        <time>2022-05-22T07:55:45.920Z</time>
      </trkpt>
      <trkpt lat="42.241375" lon="1.576687">
        <ele>1233.924337</ele>
        <time>2022-05-22T07:55:46.923Z</time>
      </trkpt>
      <trkpt lat="42.241387" lon="1.576533">
        <ele>1233.166267</ele>
        <time>2022-05-22T07:55:47.919Z</time>
      </trkpt>
      <trkpt lat="42.241378" lon="1.576394">
        <ele>1232.451136</ele>
        <time>2022-05-22T07:55:48.916Z</time>
      </trkpt>
      <trkpt lat="42.241358" lon="1.576256">
        <ele>1231.730425</ele>
        <time>2022-05-22T07:55:49.916Z</time>
      </trkpt>
      <trkpt lat="42.241328" lon="1.576120">
        <ele>1231.003105</ele>
        <time>2022-05-22T07:55:50.915Z</time>
      </trkpt>
      <trkpt lat="42.241284" lon="1.576003">
        <ele>1230.330515</ele>
        <time>2022-05-22T07:55:51.918Z</time>
      </trkpt>
      <trkpt lat="42.241215" lon="1.575888">
        <ele>1229.571841</ele>
        <time>2022-05-22T07:55:52.920Z</time>
      </trkpt>
      <trkpt lat="42.241142" lon="1.575790">
        <ele>1228.859315</ele>
        <time>2022-05-22T07:55:53.921Z</time>
      </trkpt>
      <trkpt lat="42.241074" lon="1.575704">
        <ele>1228.214409</ele>
        <time>2022-05-22T07:55:54.920Z</time>
      </trkpt>
      <trkpt lat="42.240991" lon="1.575643">
        <ele>1227.560250</ele>
        <time>2022-05-22T07:55:55.920Z</time>
      </trkpt>
      <trkpt lat="42.240877" lon="1.575593">
        <ele>1226.730461</ele>
        <time>2022-05-22T07:55:56.924Z</time>
      </trkpt>
      <trkpt lat="42.240755" lon="1.575567">
        <ele>1225.875402</ele>
        <time>2022-05-22T07:55:57.921Z</time>
      </trkpt>
      <trkpt lat="42.240637" lon="1.575536">
        <ele>1225.043176</ele>
        <time>2022-05-22T07:55:58.918Z</time>
      </trkpt>
      <trkpt lat="42.240534" lon="1.575509">
        <ele>1224.316799</ele>
        <time>2022-05-22T07:55:59.917Z</time>
      </trkpt>
      <trkpt lat="42.240420" lon="1.575504">
        <ele>1223.527157</ele>
        <time>2022-05-22T07:56:00.917Z</time>
      </trkpt>
      <trkpt lat="42.240319" lon="1.575491">
        <ele>1222.824762</ele>
        <time>2022-05-22T07:56:01.927Z</time>
      </trkpt>
      <trkpt lat="42.240228" lon="1.575473">
        <ele>1222.188046</ele>
        <time>2022-05-22T07:56:02.920Z</time>
      </trkpt>
      <trkpt lat="42.240125" lon="1.575460">
        <ele>1221.471867</ele>
        <time>2022-05-22T07:56:03.924Z</time>
      </trkpt>
      <trkpt lat="42.240034" lon="1.575439">
        <ele>1220.935929</ele>
        <time>2022-05-22T07:56:04.933Z</time>
      </trkpt>
      <trkpt lat="42.239944" lon="1.575390">
        <ele>1220.414254</ele>
        <time>2022-05-22T07:56:05.931Z</time>
      </trkpt>
      <trkpt lat="42.239857" lon="1.575333">
        <ele>1219.894417</ele>
        <time>2022-05-22T07:56:06.920Z</time>
      </trkpt>
      <trkpt lat="42.239768" lon="1.575263">
        <ele>1219.340739</ele>
        <time>2022-05-22T07:56:07.914Z</time>
      </trkpt>
      <trkpt lat="42.239678" lon="1.575166">
        <ele>1218.721739</ele>
        <time>2022-05-22T07:56:08.920Z</time>
      </trkpt>
      <trkpt lat="42.239595" lon="1.575075">
        <ele>1218.147028</ele>
        <time>2022-05-22T07:56:09.915Z</time>
      </trkpt>
      <trkpt lat="42.239506" lon="1.574988">
        <ele>1217.556401</ele>
        <time>2022-05-22T07:56:10.923Z</time>
      </trkpt>
      <trkpt lat="42.239414" lon="1.574908">
        <ele>1216.968169</ele>
        <time>2022-05-22T07:56:11.914Z</time>
      </trkpt>
      <trkpt lat="42.239321" lon="1.574828">
        <ele>1216.375410</ele>
        <time>2022-05-22T07:56:12.917Z</time>
      </trkpt>
      <trkpt lat="42.239221" lon="1.574759">
        <ele>1215.771716</ele>
        <time>2022-05-22T07:56:13.928Z</time>
      </trkpt>
      <trkpt lat="42.239113" lon="1.574702">
        <ele>1215.148348</ele>
        <time>2022-05-22T07:56:14.923Z</time>
      </trkpt>
      <trkpt lat="42.239014" lon="1.574656">
        <ele>1214.585503</ele>
        <time>2022-05-22T07:56:15.922Z</time>
      </trkpt>
      <trkpt lat="42.238917" lon="1.574608">
        <ele>1214.030127</ele>
        <time>2022-05-22T07:56:16.917Z</time>
      </trkpt>
      <trkpt lat="42.238834" lon="1.574545">
        <ele>1213.518283</ele>
        <time>2022-05-22T07:56:17.917Z</time>
      </trkpt>
      <trkpt lat="42.238752" lon="1.574495">
        <ele>1213.034604</ele>
        <time>2022-05-22T07:56:18.912Z</time>
      </trkpt>
      <trkpt lat="42.238668" lon="1.574434">
        <ele>1212.521883</ele>
        <time>2022-05-22T07:56:19.914Z</time>
      </trkpt>
      <trkpt lat="42.238578" lon="1.574375">
        <ele>1211.984058</ele>
        <time>2022-05-22T07:56:20.923Z</time>
      </trkpt>
      <trkpt lat="42.238431" lon="1.574268">
        <ele>1211.129822</ele>
        <time>2022-05-22T07:56:22.915Z</time>
      </trkpt>
      <trkpt lat="42.238289" lon="1.574145">
        <ele>1210.296176</ele>
        <time>2022-05-22T07:56:24.920Z</time>
      </trkpt>
      <trkpt lat="42.238200" lon="1.574085">
        <ele>1209.804611</ele>
        <time>2022-05-22T07:56:25.918Z</time>
      </trkpt>
      <trkpt lat="42.238108" lon="1.574042">
        <ele>1209.323509</ele>
        <time>2022-05-22T07:56:26.919Z</time>
      </trkpt>
      <trkpt lat="42.238023" lon="1.573994">
        <ele>1208.868218</ele>
        <time>2022-05-22T07:56:27.920Z</time>
      </trkpt>
      <trkpt lat="42.237871" lon="1.573879">
        <ele>1208.007242</ele>
        <time>2022-05-22T07:56:29.915Z</time>
      </trkpt>
      <trkpt lat="42.237797" lon="1.573796">
        <ele>1207.531896</ele>
        <time>2022-05-22T07:56:30.912Z</time>
      </trkpt>
      <trkpt lat="42.237736" lon="1.573699">
        <ele>1207.066248</ele>
        <time>2022-05-22T07:56:31.911Z</time>
      </trkpt>
      <trkpt lat="42.237665" lon="1.573476">
        <ele>1206.178098</ele>
        <time>2022-05-22T07:56:33.919Z</time>
      </trkpt>
      <trkpt lat="42.237640" lon="1.573354">
        <ele>1205.714946</ele>
        <time>2022-05-22T07:56:34.916Z</time>
      </trkpt>
      <trkpt lat="42.237634" lon="1.573123">
        <ele>1204.869251</ele>
        <time>2022-05-22T07:56:36.915Z</time>
      </trkpt>
      <trkpt lat="42.237655" lon="1.572998">
        <ele>1204.400279</ele>
        <time>2022-05-22T07:56:37.914Z</time>
      </trkpt>
      <trkpt lat="42.237663" lon="1.572777">
        <ele>1203.590726</ele>
        <time>2022-05-22T07:56:39.914Z</time>
      </trkpt>
      <trkpt lat="42.237690" lon="1.572565">
        <ele>1202.803675</ele>
        <time>2022-05-22T07:56:41.918Z</time>
      </trkpt>
      <trkpt lat="42.237720" lon="1.572378">
        <ele>1202.189248</ele>
        <time>2022-05-22T07:56:43.917Z</time>
      </trkpt>
      <trkpt lat="42.237749" lon="1.572182">
        <ele>1201.556950</ele>
        <time>2022-05-22T07:56:45.915Z</time>
      </trkpt>
      <trkpt lat="42.237759" lon="1.571985">
        <ele>1200.932286</ele>
        <time>2022-05-22T07:56:47.917Z</time>
      </trkpt>
      <trkpt lat="42.237754" lon="1.571802">
        <ele>1200.352980</ele>
        <time>2022-05-22T07:56:49.920Z</time>
      </trkpt>
      <trkpt lat="42.237728" lon="1.571645">
        <ele>1199.844044</ele>
        <time>2022-05-22T07:56:51.918Z</time>
      </trkpt>
      <trkpt lat="42.237679" lon="1.571496">
        <ele>1199.328281</ele>
        <time>2022-05-22T07:56:53.918Z</time>
      </trkpt>
      <trkpt lat="42.237605" lon="1.571346">
        <ele>1198.758066</ele>
        <time>2022-05-22T07:56:55.921Z</time>
      </trkpt>
      <trkpt lat="42.237543" lon="1.571204">
        <ele>1198.236556</ele>
        <time>2022-05-22T07:56:57.915Z</time>
      </trkpt>
      <trkpt lat="42.237480" lon="1.571074">
        <ele>1197.745038</ele>
        <time>2022-05-22T07:56:59.919Z</time>
      </trkpt>
      <trkpt lat="42.237421" lon="1.570965">
        <ele>1197.317892</ele>
        <time>2022-05-22T07:57:01.915Z</time>
      </trkpt>
      <trkpt lat="42.237372" lon="1.570847">
        <ele>1196.889896</ele>
        <time>2022-05-22T07:57:03.928Z</time>
      </trkpt>
      <trkpt lat="42.237320" lon="1.570713">
        <ele>1196.411290</ele>
        <time>2022-05-22T07:57:05.917Z</time>
      </trkpt>
      <trkpt lat="42.237257" lon="1.570571">
        <ele>1195.887595</ele>
        <time>2022-05-22T07:57:07.921Z</time>
      </trkpt>
      <trkpt lat="42.237177" lon="1.570426">
        <ele>1195.315531</ele>
        <time>2022-05-22T07:57:09.921Z</time>
      </trkpt>
      <trkpt lat="42.237077" lon="1.570293">
        <ele>1194.750990</ele>
        <time>2022-05-22T07:57:11.923Z</time>
      </trkpt>
      <trkpt lat="42.236957" lon="1.570169">
        <ele>1194.173087</ele>
        <time>2022-05-22T07:57:13.921Z</time>
      </trkpt>
      <trkpt lat="42.236830" lon="1.570033">
        <ele>1193.553177</ele>
        <time>2022-05-22T07:57:15.927Z</time>
      </trkpt>
      <trkpt lat="42.236721" lon="1.569867">
        <ele>1192.924849</ele>
        <time>2022-05-22T07:57:17.918Z</time>
      </trkpt>
      <trkpt lat="42.236636" lon="1.569677">
        <ele>1192.296201</ele>
        <time>2022-05-22T07:57:19.931Z</time>
      </trkpt>
      <trkpt lat="42.236551" lon="1.569483">
        <ele>1191.657830</ele>
        <time>2022-05-22T07:57:21.922Z</time>
      </trkpt>
      <trkpt lat="42.236464" lon="1.569295">
        <ele>1191.030001</ele>
        <time>2022-05-22T07:57:23.919Z</time>
      </trkpt>
      <trkpt lat="42.236377" lon="1.569100">
        <ele>1190.385275</ele>
        <time>2022-05-22T07:57:25.911Z</time>
      </trkpt>
      <trkpt lat="42.236281" lon="1.568900">
        <ele>1189.710290</ele>
        <time>2022-05-22T07:57:27.915Z</time>
      </trkpt>
      <trkpt lat="42.236172" lon="1.568728">
        <ele>1189.069147</ele>
        <time>2022-05-22T07:57:29.918Z</time>
      </trkpt>
      <trkpt lat="42.236045" lon="1.568580">
        <ele>1188.427570</ele>
        <time>2022-05-22T07:57:31.913Z</time>
      </trkpt>
      <trkpt lat="42.235908" lon="1.568465">
        <ele>1187.813869</ele>
        <time>2022-05-22T07:57:33.924Z</time>
      </trkpt>
      <trkpt lat="42.235758" lon="1.568359">
        <ele>1187.172211</ele>
        <time>2022-05-22T07:57:35.913Z</time>
      </trkpt>
      <trkpt lat="42.235588" lon="1.568258">
        <ele>1186.468280</ele>
        <time>2022-05-22T07:57:37.915Z</time>
      </trkpt>
      <trkpt lat="42.235501" lon="1.568227">
        <ele>1186.127243</ele>
        <time>2022-05-22T07:57:38.913Z</time>
      </trkpt>
      <trkpt lat="42.235411" lon="1.568199">
        <ele>1185.777185</ele>
        <time>2022-05-22T07:57:39.920Z</time>
      </trkpt>
      <trkpt lat="42.235321" lon="1.568166">
        <ele>1185.423712</ele>
        <time>2022-05-22T07:57:40.919Z</time>
      </trkpt>
      <trkpt lat="42.235152" lon="1.568064">
        <ele>1184.722108</ele>
        <time>2022-05-22T07:57:42.919Z</time>
      </trkpt>
      <trkpt lat="42.235078" lon="1.567988">
        <ele>1184.369748</ele>
        <time>2022-05-22T07:57:43.918Z</time>
      </trkpt>
      <trkpt lat="42.235006" lon="1.567908">
        <ele>1184.016369</ele>
        <time>2022-05-22T07:57:44.916Z</time>
      </trkpt>
      <trkpt lat="42.234938" lon="1.567808">
        <ele>1183.635341</ele>
        <time>2022-05-22T07:57:45.935Z</time>
      </trkpt>
      <trkpt lat="42.234873" lon="1.567710">
        <ele>1183.266108</ele>
        <time>2022-05-22T07:57:46.912Z</time>
      </trkpt>
      <trkpt lat="42.234807" lon="1.567615">
        <ele>1182.900520</ele>
        <time>2022-05-22T07:57:47.913Z</time>
      </trkpt>
      <trkpt lat="42.234737" lon="1.567523">
        <ele>1182.530315</ele>
        <time>2022-05-22T07:57:48.911Z</time>
      </trkpt>
      <trkpt lat="42.234673" lon="1.567423">
        <ele>1182.159373</ele>
        <time>2022-05-22T07:57:49.910Z</time>
      </trkpt>
      <trkpt lat="42.234611" lon="1.567328">
        <ele>1181.803986</ele>
        <time>2022-05-22T07:57:50.909Z</time>
      </trkpt>
      <trkpt lat="42.234542" lon="1.567228">
        <ele>1181.420382</ele>
        <time>2022-05-22T07:57:51.914Z</time>
      </trkpt>
      <trkpt lat="42.234483" lon="1.567119">
        <ele>1181.308243</ele>
        <time>2022-05-22T07:57:52.919Z</time>
      </trkpt>
      <trkpt lat="42.234436" lon="1.567005">
        <ele>1181.254711</ele>
        <time>2022-05-22T07:57:53.932Z</time>
      </trkpt>
      <trkpt lat="42.234407" lon="1.566883">
        <ele>1181.202143</ele>
        <time>2022-05-22T07:57:54.916Z</time>
      </trkpt>
      <trkpt lat="42.234379" lon="1.566764">
        <ele>1181.150916</ele>
        <time>2022-05-22T07:57:55.918Z</time>
      </trkpt>
      <trkpt lat="42.234344" lon="1.566632">
        <ele>1181.093393</ele>
        <time>2022-05-22T07:57:56.922Z</time>
      </trkpt>
      <trkpt lat="42.234312" lon="1.566500">
        <ele>1181.036410</ele>
        <time>2022-05-22T07:57:57.906Z</time>
      </trkpt>
      <trkpt lat="42.234324" lon="1.566323">
        <ele>1180.963489</ele>
        <time>2022-05-22T07:57:58.970Z</time>
      </trkpt>
      <trkpt lat="42.234294" lon="1.566185">
        <ele>1180.904483</ele>
        <time>2022-05-22T07:57:59.916Z</time>
      </trkpt>
      <trkpt lat="42.234259" lon="1.566045">
        <ele>1180.843860</ele>
        <time>2022-05-22T07:58:00.913Z</time>
      </trkpt>
      <trkpt lat="42.234219" lon="1.565912">
        <ele>1180.784966</ele>
        <time>2022-05-22T07:58:01.914Z</time>
      </trkpt>
      <trkpt lat="42.234185" lon="1.565781">
        <ele>1180.728015</ele>
        <time>2022-05-22T07:58:02.920Z</time>
      </trkpt>
      <trkpt lat="42.234151" lon="1.565653">
        <ele>1180.672224</ele>
        <time>2022-05-22T07:58:03.912Z</time>
      </trkpt>
      <trkpt lat="42.234127" lon="1.565525">
        <ele>1180.618052</ele>
        <time>2022-05-22T07:58:04.926Z</time>
      </trkpt>
      <trkpt lat="42.234101" lon="1.565403">
        <ele>1180.565968</ele>
        <time>2022-05-22T07:58:05.938Z</time>
      </trkpt>
      <trkpt lat="42.234061" lon="1.565288">
        <ele>1180.513841</ele>
        <time>2022-05-22T07:58:06.915Z</time>
      </trkpt>
      <trkpt lat="42.234010" lon="1.565180">
        <ele>1180.461287</ele>
        <time>2022-05-22T07:58:07.913Z</time>
      </trkpt>
      <trkpt lat="42.233933" lon="1.565088">
        <ele>1180.404322</ele>
        <time>2022-05-22T07:58:08.909Z</time>
      </trkpt>
      <trkpt lat="42.233852" lon="1.565009">
        <ele>1180.338916</ele>
        <time>2022-05-22T07:58:09.916Z</time>
      </trkpt>
      <trkpt lat="42.233772" lon="1.564935">
        <ele>1180.220312</ele>
        <time>2022-05-22T07:58:10.915Z</time>
      </trkpt>
      <trkpt lat="42.233696" lon="1.564863">
        <ele>1180.106761</ele>
        <time>2022-05-22T07:58:11.915Z</time>
      </trkpt>
      <trkpt lat="42.233560" lon="1.564733">
        <ele>1179.902962</ele>
        <time>2022-05-22T07:58:13.921Z</time>
      </trkpt>
      <trkpt lat="42.233456" lon="1.564628">
        <ele>1179.744137</ele>
        <time>2022-05-22T07:58:15.911Z</time>
      </trkpt>
      <trkpt lat="42.233375" lon="1.564503">
        <ele>1179.593698</ele>
        <time>2022-05-22T07:58:17.923Z</time>
      </trkpt>
      <trkpt lat="42.233324" lon="1.564354">
        <ele>1179.445034</ele>
        <time>2022-05-22T07:58:19.968Z</time>
      </trkpt>
      <trkpt lat="42.233295" lon="1.564219">
        <ele>1179.317729</ele>
        <time>2022-05-22T07:58:21.937Z</time>
      </trkpt>
      <trkpt lat="42.233271" lon="1.564095">
        <ele>1179.201654</ele>
        <time>2022-05-22T07:58:23.911Z</time>
      </trkpt>
      <trkpt lat="42.233232" lon="1.563944">
        <ele>1179.056818</ele>
        <time>2022-05-22T07:58:26.912Z</time>
      </trkpt>
      <trkpt lat="42.233182" lon="1.563798">
        <ele>1178.911133</ele>
        <time>2022-05-22T07:58:29.915Z</time>
      </trkpt>
      <trkpt lat="42.233154" lon="1.563669">
        <ele>1178.789387</ele>
        <time>2022-05-22T07:58:32.922Z</time>
      </trkpt>
      <trkpt lat="42.233123" lon="1.563548">
        <ele>1178.673428</ele>
        <time>2022-05-22T07:58:35.924Z</time>
      </trkpt>
      <trkpt lat="42.233112" lon="1.563409">
        <ele>1178.546824</ele>
        <time>2022-05-22T07:58:38.927Z</time>
      </trkpt>
      <trkpt lat="42.233073" lon="1.563278">
        <ele>1178.418952</ele>
        <time>2022-05-22T07:58:41.919Z</time>
      </trkpt>
      <trkpt lat="42.233049" lon="1.563144">
        <ele>1178.294093</ele>
        <time>2022-05-22T07:58:44.923Z</time>
      </trkpt>
      <trkpt lat="42.233045" lon="1.563000">
        <ele>1178.163587</ele>
        <time>2022-05-22T07:58:47.940Z</time>
      </trkpt>
      <trkpt lat="42.233025" lon="1.562816">
        <ele>1177.747205</ele>
        <time>2022-05-22T07:58:50.922Z</time>
      </trkpt>
      <trkpt lat="42.233025" lon="1.562668">
        <ele>1177.408094</ele>
        <time>2022-05-22T07:58:52.919Z</time>
      </trkpt>
      <trkpt lat="42.233013" lon="1.562530">
        <ele>1177.089724</ele>
        <time>2022-05-22T07:58:54.922Z</time>
      </trkpt>
      <trkpt lat="42.232982" lon="1.562389">
        <ele>1176.752710</ele>
        <time>2022-05-22T07:58:56.918Z</time>
      </trkpt>
      <trkpt lat="42.232950" lon="1.562238">
        <ele>1176.392833</ele>
        <time>2022-05-22T07:58:58.923Z</time>
      </trkpt>
      <trkpt lat="42.232919" lon="1.562112">
        <ele>1176.088609</ele>
        <time>2022-05-22T07:59:00.920Z</time>
      </trkpt>
      <trkpt lat="42.232871" lon="1.561988">
        <ele>1175.768002</ele>
        <time>2022-05-22T07:59:02.918Z</time>
      </trkpt>
      <trkpt lat="42.232815" lon="1.561877">
        <ele>1175.460240</ele>
        <time>2022-05-22T07:59:04.920Z</time>
      </trkpt>
      <trkpt lat="42.232768" lon="1.561758">
        <ele>1175.151209</ele>
        <time>2022-05-22T07:59:06.920Z</time>
      </trkpt>
      <trkpt lat="42.232722" lon="1.561649">
        <ele>1174.863738</ele>
        <time>2022-05-22T07:59:08.914Z</time>
      </trkpt>
      <trkpt lat="42.232685" lon="1.561530">
        <ele>1174.568009</ele>
        <time>2022-05-22T07:59:10.926Z</time>
      </trkpt>
      <trkpt lat="42.232641" lon="1.561397">
        <ele>1174.234230</ele>
        <time>2022-05-22T07:59:12.922Z</time>
      </trkpt>
      <trkpt lat="42.232586" lon="1.561247">
        <ele>1173.850700</ele>
        <time>2022-05-22T07:59:14.916Z</time>
      </trkpt>
      <trkpt lat="42.232551" lon="1.561093">
        <ele>1173.481590</ele>
        <time>2022-05-22T07:59:16.921Z</time>
      </trkpt>
      <trkpt lat="42.232516" lon="1.560937">
        <ele>1173.108097</ele>
        <time>2022-05-22T07:59:18.920Z</time>
      </trkpt>
      <trkpt lat="42.232498" lon="1.560753">
        <ele>1172.682833</ele>
        <time>2022-05-22T07:59:20.926Z</time>
      </trkpt>
      <trkpt lat="42.232496" lon="1.560544">
        <ele>1172.154590</ele>
        <time>2022-05-22T07:59:22.920Z</time>
      </trkpt>
      <trkpt lat="42.232496" lon="1.560340">
        <ele>1171.627633</ele>
        <time>2022-05-22T07:59:24.913Z</time>
      </trkpt>
      <trkpt lat="42.232484" lon="1.560108">
        <ele>1171.026888</ele>
        <time>2022-05-22T07:59:26.924Z</time>
      </trkpt>
      <trkpt lat="42.232461" lon="1.559880">
        <ele>1170.432494</ele>
        <time>2022-05-22T07:59:28.921Z</time>
      </trkpt>
      <trkpt lat="42.232432" lon="1.559671">
        <ele>1169.883223</ele>
        <time>2022-05-22T07:59:30.921Z</time>
      </trkpt>
      <trkpt lat="42.232390" lon="1.559448">
        <ele>1169.288842</ele>
        <time>2022-05-22T07:59:32.927Z</time>
      </trkpt>
      <trkpt lat="42.232373" lon="1.559206">
        <ele>1168.660918</ele>
        <time>2022-05-22T07:59:34.920Z</time>
      </trkpt>
      <trkpt lat="42.232366" lon="1.559084">
        <ele>1168.344831</ele>
        <time>2022-05-22T07:59:35.924Z</time>
      </trkpt>
      <trkpt lat="42.232360" lon="1.558959">
        <ele>1168.021262</ele>
        <time>2022-05-22T07:59:36.918Z</time>
      </trkpt>
      <trkpt lat="42.232348" lon="1.558831">
        <ele>1167.687982</ele>
        <time>2022-05-22T07:59:37.931Z</time>
      </trkpt>
      <trkpt lat="42.232330" lon="1.558699">
        <ele>1167.341274</ele>
        <time>2022-05-22T07:59:38.923Z</time>
      </trkpt>
      <trkpt lat="42.232303" lon="1.558568">
        <ele>1166.990019</ele>
        <time>2022-05-22T07:59:39.936Z</time>
      </trkpt>
      <trkpt lat="42.232275" lon="1.558436">
        <ele>1166.635328</ele>
        <time>2022-05-22T07:59:40.924Z</time>
      </trkpt>
      <trkpt lat="42.232243" lon="1.558312">
        <ele>1166.307640</ele>
        <time>2022-05-22T07:59:41.925Z</time>
      </trkpt>
      <trkpt lat="42.232217" lon="1.558182">
        <ele>1166.159161</ele>
        <time>2022-05-22T07:59:42.923Z</time>
      </trkpt>
      <trkpt lat="42.232214" lon="1.558059">
        <ele>1166.023464</ele>
        <time>2022-05-22T07:59:43.921Z</time>
      </trkpt>
      <trkpt lat="42.232244" lon="1.557834">
        <ele>1165.771382</ele>
        <time>2022-05-22T07:59:45.923Z</time>
      </trkpt>
      <trkpt lat="42.232311" lon="1.557616">
        <ele>1165.511124</ele>
        <time>2022-05-22T07:59:47.925Z</time>
      </trkpt>
      <trkpt lat="42.232367" lon="1.557419">
        <ele>1165.278449</ele>
        <time>2022-05-22T07:59:49.925Z</time>
      </trkpt>
      <trkpt lat="42.232407" lon="1.557221">
        <ele>1165.052148</ele>
        <time>2022-05-22T07:59:51.924Z</time>
      </trkpt>
      <trkpt lat="42.232438" lon="1.557014">
        <ele>1164.819283</ele>
        <time>2022-05-22T07:59:53.922Z</time>
      </trkpt>
      <trkpt lat="42.232467" lon="1.556794">
        <ele>1164.572891</ele>
        <time>2022-05-22T07:59:55.926Z</time>
      </trkpt>
      <trkpt lat="42.232470" lon="1.556555">
        <ele>1164.309326</ele>
        <time>2022-05-22T07:59:57.923Z</time>
      </trkpt>
      <trkpt lat="42.232467" lon="1.556432">
        <ele>1164.173630</ele>
        <time>2022-05-22T07:59:58.922Z</time>
      </trkpt>
      <trkpt lat="42.232444" lon="1.556193">
        <ele>1163.907886</ele>
        <time>2022-05-22T08:00:00.921Z</time>
      </trkpt>
      <trkpt lat="42.232434" lon="1.556070">
        <ele>1163.771448</ele>
        <time>2022-05-22T08:00:01.921Z</time>
      </trkpt>
      <trkpt lat="42.232421" lon="1.555950">
        <ele>1163.637724</ele>
        <time>2022-05-22T08:00:02.924Z</time>
      </trkpt>
      <trkpt lat="42.232420" lon="1.555827">
        <ele>1163.304408</ele>
        <time>2022-05-22T08:00:03.935Z</time>
      </trkpt>
      <trkpt lat="42.232418" lon="1.555702">
        <ele>1162.965598</ele>
        <time>2022-05-22T08:00:04.917Z</time>
      </trkpt>
      <trkpt lat="42.232428" lon="1.555573">
        <ele>1162.614117</ele>
        <time>2022-05-22T08:00:05.924Z</time>
      </trkpt>
      <trkpt lat="42.232438" lon="1.555445">
        <ele>1162.265331</ele>
        <time>2022-05-22T08:00:06.924Z</time>
      </trkpt>
      <trkpt lat="42.232431" lon="1.555314">
        <ele>1161.909418</ele>
        <time>2022-05-22T08:00:07.930Z</time>
      </trkpt>
      <trkpt lat="42.232426" lon="1.555181">
        <ele>1161.548544</ele>
        <time>2022-05-22T08:00:08.924Z</time>
      </trkpt>
      <trkpt lat="42.232423" lon="1.555050">
        <ele>1161.193384</ele>
        <time>2022-05-22T08:00:09.930Z</time>
      </trkpt>
      <trkpt lat="42.232422" lon="1.554919">
        <ele>1160.838375</ele>
        <time>2022-05-22T08:00:10.924Z</time>
      </trkpt>
      <trkpt lat="42.232414" lon="1.554784">
        <ele>1160.471376</ele>
        <time>2022-05-22T08:00:11.924Z</time>
      </trkpt>
      <trkpt lat="42.232393" lon="1.554649">
        <ele>1160.097560</ele>
        <time>2022-05-22T08:00:12.923Z</time>
      </trkpt>
      <trkpt lat="42.232370" lon="1.554519">
        <ele>1159.735363</ele>
        <time>2022-05-22T08:00:13.931Z</time>
      </trkpt>
      <trkpt lat="42.232351" lon="1.554394">
        <ele>1159.389568</ele>
        <time>2022-05-22T08:00:14.924Z</time>
      </trkpt>
      <trkpt lat="42.232337" lon="1.554270">
        <ele>1159.049662</ele>
        <time>2022-05-22T08:00:15.924Z</time>
      </trkpt>
      <trkpt lat="42.232322" lon="1.554136">
        <ele>1158.682416</ele>
        <time>2022-05-22T08:00:16.924Z</time>
      </trkpt>
      <trkpt lat="42.232312" lon="1.554009">
        <ele>1158.336324</ele>
        <time>2022-05-22T08:00:17.926Z</time>
      </trkpt>
      <trkpt lat="42.232300" lon="1.553880">
        <ele>1157.984005</ele>
        <time>2022-05-22T08:00:18.926Z</time>
      </trkpt>
      <trkpt lat="42.232289" lon="1.553746">
        <ele>1157.618660</ele>
        <time>2022-05-22T08:00:19.926Z</time>
      </trkpt>
      <trkpt lat="42.232272" lon="1.553611">
        <ele>1157.247577</ele>
        <time>2022-05-22T08:00:20.926Z</time>
      </trkpt>
      <trkpt lat="42.232251" lon="1.553475">
        <ele>1156.929532</ele>
        <time>2022-05-22T08:00:21.923Z</time>
      </trkpt>
      <trkpt lat="42.232234" lon="1.553338">
        <ele>1156.672739</ele>
        <time>2022-05-22T08:00:22.923Z</time>
      </trkpt>
      <trkpt lat="42.232236" lon="1.553207">
        <ele>1156.430518</ele>
        <time>2022-05-22T08:00:23.920Z</time>
      </trkpt>
      <trkpt lat="42.232251" lon="1.553078">
        <ele>1156.189123</ele>
        <time>2022-05-22T08:00:24.923Z</time>
      </trkpt>
      <trkpt lat="42.232272" lon="1.552948">
        <ele>1155.943150</ele>
        <time>2022-05-22T08:00:25.918Z</time>
      </trkpt>
      <trkpt lat="42.232297" lon="1.552822">
        <ele>1155.702006</ele>
        <time>2022-05-22T08:00:26.929Z</time>
      </trkpt>
      <trkpt lat="42.232331" lon="1.552701">
        <ele>1155.462757</ele>
        <time>2022-05-22T08:00:27.916Z</time>
      </trkpt>
      <trkpt lat="42.232409" lon="1.552475">
        <ele>1155.001812</ele>
        <time>2022-05-22T08:00:29.918Z</time>
      </trkpt>
      <trkpt lat="42.232449" lon="1.552364">
        <ele>1154.773603</ele>
        <time>2022-05-22T08:00:30.916Z</time>
      </trkpt>
      <trkpt lat="42.232487" lon="1.552251">
        <ele>1154.544174</ele>
        <time>2022-05-22T08:00:31.914Z</time>
      </trkpt>
      <trkpt lat="42.232529" lon="1.552016">
        <ele>1154.097274</ele>
        <time>2022-05-22T08:00:33.920Z</time>
      </trkpt>
      <trkpt lat="42.232547" lon="1.551892">
        <ele>1153.863682</ele>
        <time>2022-05-22T08:00:34.918Z</time>
      </trkpt>
      <trkpt lat="42.232576" lon="1.551776">
        <ele>1153.637350</ele>
        <time>2022-05-22T08:00:35.923Z</time>
      </trkpt>
      <trkpt lat="42.232664" lon="1.551571">
        <ele>1153.199301</ele>
        <time>2022-05-22T08:00:37.924Z</time>
      </trkpt>
      <trkpt lat="42.232730" lon="1.551348">
        <ele>1152.755348</ele>
        <time>2022-05-22T08:00:39.922Z</time>
      </trkpt>
      <trkpt lat="42.232760" lon="1.551135">
        <ele>1152.179366</ele>
        <time>2022-05-22T08:00:41.924Z</time>
      </trkpt>
      <trkpt lat="42.232770" lon="1.550929">
        <ele>1151.479004</ele>
        <time>2022-05-22T08:00:43.918Z</time>
      </trkpt>
      <trkpt lat="42.232755" lon="1.550735">
        <ele>1150.817275</ele>
        <time>2022-05-22T08:00:45.916Z</time>
      </trkpt>
      <trkpt lat="42.232736" lon="1.550554">
        <ele>1150.197087</ele>
        <time>2022-05-22T08:00:47.927Z</time>
      </trkpt>
      <trkpt lat="42.232697" lon="1.550379">
        <ele>1149.577085</ele>
        <time>2022-05-22T08:00:49.928Z</time>
      </trkpt>
      <trkpt lat="42.232623" lon="1.550199">
        <ele>1148.878613</ele>
        <time>2022-05-22T08:00:51.928Z</time>
      </trkpt>
      <trkpt lat="42.232597" lon="1.550020">
        <ele>1148.259774</ele>
        <time>2022-05-22T08:00:53.921Z</time>
      </trkpt>
      <trkpt lat="42.232637" lon="1.549812">
        <ele>1147.530714</ele>
        <time>2022-05-22T08:00:55.925Z</time>
      </trkpt>
      <trkpt lat="42.232722" lon="1.549613">
        <ele>1146.751317</ele>
        <time>2022-05-22T08:00:57.915Z</time>
      </trkpt>
      <trkpt lat="42.232832" lon="1.549440">
        <ele>1145.977699</ele>
        <time>2022-05-22T08:00:59.925Z</time>
      </trkpt>
      <trkpt lat="42.232964" lon="1.549303">
        <ele>1145.214934</ele>
        <time>2022-05-22T08:01:01.913Z</time>
      </trkpt>
      <trkpt lat="42.233098" lon="1.549178">
        <ele>1144.468747</ele>
        <time>2022-05-22T08:01:03.913Z</time>
      </trkpt>
      <trkpt lat="42.233234" lon="1.549055">
        <ele>1144.419367</ele>
        <time>2022-05-22T08:01:05.912Z</time>
      </trkpt>
      <trkpt lat="42.233356" lon="1.548914">
        <ele>1144.536603</ele>
        <time>2022-05-22T08:01:07.922Z</time>
      </trkpt>
      <trkpt lat="42.233458" lon="1.548775">
        <ele>1144.642397</ele>
        <time>2022-05-22T08:01:09.921Z</time>
      </trkpt>
      <trkpt lat="42.233569" lon="1.548637">
        <ele>1144.752549</ele>
        <time>2022-05-22T08:01:11.925Z</time>
      </trkpt>
      <trkpt lat="42.233693" lon="1.548496">
        <ele>1144.870898</ele>
        <time>2022-05-22T08:01:13.929Z</time>
      </trkpt>
      <trkpt lat="42.233823" lon="1.548377">
        <ele>1144.985560</ele>
        <time>2022-05-22T08:01:15.924Z</time>
      </trkpt>
      <trkpt lat="42.233956" lon="1.548282">
        <ele>1145.095410</ele>
        <time>2022-05-22T08:01:17.920Z</time>
      </trkpt>
      <trkpt lat="42.234108" lon="1.548191">
        <ele>1145.216802</ele>
        <time>2022-05-22T08:01:19.912Z</time>
      </trkpt>
      <trkpt lat="42.234224" lon="1.548082">
        <ele>1145.319977</ele>
        <time>2022-05-22T08:01:21.915Z</time>
      </trkpt>
      <trkpt lat="42.234345" lon="1.547947">
        <ele>1145.434566</ele>
        <time>2022-05-22T08:01:23.923Z</time>
      </trkpt>
      <trkpt lat="42.234461" lon="1.547811">
        <ele>1145.546718</ele>
        <time>2022-05-22T08:01:25.919Z</time>
      </trkpt>
      <trkpt lat="42.234563" lon="1.547662">
        <ele>1145.560980</ele>
        <time>2022-05-22T08:01:27.917Z</time>
      </trkpt>
      <trkpt lat="42.234657" lon="1.547518">
        <ele>1145.172392</ele>
        <time>2022-05-22T08:01:29.916Z</time>
      </trkpt>
      <trkpt lat="42.234762" lon="1.547389">
        <ele>1144.784341</ele>
        <time>2022-05-22T08:01:31.911Z</time>
      </trkpt>
      <trkpt lat="42.234858" lon="1.547253">
        <ele>1144.403995</ele>
        <time>2022-05-22T08:01:33.916Z</time>
      </trkpt>
      <trkpt lat="42.234949" lon="1.547145">
        <ele>1144.072811</ele>
        <time>2022-05-22T08:01:35.922Z</time>
      </trkpt>
      <trkpt lat="42.235063" lon="1.547072">
        <ele>1143.727895</ele>
        <time>2022-05-22T08:01:37.920Z</time>
      </trkpt>
      <trkpt lat="42.235194" lon="1.547019">
        <ele>1143.354034</ele>
        <time>2022-05-22T08:01:39.919Z</time>
      </trkpt>
      <trkpt lat="42.235310" lon="1.546970">
        <ele>1143.021756</ele>
        <time>2022-05-22T08:01:41.915Z</time>
      </trkpt>
      <trkpt lat="42.235428" lon="1.546923">
        <ele>1142.685423</ele>
        <time>2022-05-22T08:01:43.920Z</time>
      </trkpt>
      <trkpt lat="42.235558" lon="1.546847">
        <ele>1142.298155</ele>
        <time>2022-05-22T08:01:45.921Z</time>
      </trkpt>
      <trkpt lat="42.235661" lon="1.546773">
        <ele>1141.979206</ele>
        <time>2022-05-22T08:01:47.916Z</time>
      </trkpt>
      <trkpt lat="42.235765" lon="1.546677">
        <ele>1141.634824</ele>
        <time>2022-05-22T08:01:49.925Z</time>
      </trkpt>
      <trkpt lat="42.235857" lon="1.546566">
        <ele>1141.297570</ele>
        <time>2022-05-22T08:01:51.915Z</time>
      </trkpt>
      <trkpt lat="42.235946" lon="1.546464">
        <ele>1140.978465</ele>
        <time>2022-05-22T08:01:53.928Z</time>
      </trkpt>
      <trkpt lat="42.236031" lon="1.546328">
        <ele>1140.506540</ele>
        <time>2022-05-22T08:01:55.919Z</time>
      </trkpt>
      <trkpt lat="42.236112" lon="1.546162">
        <ele>1139.658356</ele>
        <time>2022-05-22T08:01:57.923Z</time>
      </trkpt>
      <trkpt lat="42.236169" lon="1.545966">
        <ele>1138.759962</ele>
        <time>2022-05-22T08:01:59.919Z</time>
      </trkpt>
      <trkpt lat="42.236183" lon="1.545750">
        <ele>1137.834913</ele>
        <time>2022-05-22T08:02:01.918Z</time>
      </trkpt>
      <trkpt lat="42.236159" lon="1.545522">
        <ele>1136.852410</ele>
        <time>2022-05-22T08:02:03.927Z</time>
      </trkpt>
      <trkpt lat="42.236123" lon="1.545290">
        <ele>1135.841118</ele>
        <time>2022-05-22T08:02:05.915Z</time>
      </trkpt>
      <trkpt lat="42.236116" lon="1.545168">
        <ele>1135.319066</ele>
        <time>2022-05-22T08:02:06.916Z</time>
      </trkpt>
      <trkpt lat="42.236155" lon="1.544936">
        <ele>1134.304088</ele>
        <time>2022-05-22T08:02:08.920Z</time>
      </trkpt>
      <trkpt lat="42.236186" lon="1.544810">
        <ele>1133.737628</ele>
        <time>2022-05-22T08:02:09.926Z</time>
      </trkpt>
      <trkpt lat="42.236239" lon="1.544694">
        <ele>1133.156087</ele>
        <time>2022-05-22T08:02:10.919Z</time>
      </trkpt>
      <trkpt lat="42.236302" lon="1.544583">
        <ele>1132.559389</ele>
        <time>2022-05-22T08:02:11.918Z</time>
      </trkpt>
      <trkpt lat="42.236347" lon="1.544470">
        <ele>1132.011983</ele>
        <time>2022-05-22T08:02:12.913Z</time>
      </trkpt>
      <trkpt lat="42.236395" lon="1.544346">
        <ele>1131.415018</ele>
        <time>2022-05-22T08:02:13.925Z</time>
      </trkpt>
      <trkpt lat="42.236439" lon="1.544219">
        <ele>1130.816810</ele>
        <time>2022-05-22T08:02:14.927Z</time>
      </trkpt>
      <trkpt lat="42.236488" lon="1.544087">
        <ele>1130.225377</ele>
        <time>2022-05-22T08:02:15.918Z</time>
      </trkpt>
      <trkpt lat="42.236510" lon="1.543940">
        <ele>1129.732493</ele>
        <time>2022-05-22T08:02:16.920Z</time>
      </trkpt>
      <trkpt lat="42.236553" lon="1.543801">
        <ele>1129.237398</ele>
        <time>2022-05-22T08:02:17.934Z</time>
      </trkpt>
      <trkpt lat="42.236591" lon="1.543656">
        <ele>1128.731886</ele>
        <time>2022-05-22T08:02:18.911Z</time>
      </trkpt>
      <trkpt lat="42.236636" lon="1.543511">
        <ele>1128.215174</ele>
        <time>2022-05-22T08:02:19.912Z</time>
      </trkpt>
      <trkpt lat="42.236678" lon="1.543363">
        <ele>1127.694270</ele>
        <time>2022-05-22T08:02:20.915Z</time>
      </trkpt>
      <trkpt lat="42.236722" lon="1.543216">
        <ele>1127.173171</ele>
        <time>2022-05-22T08:02:21.920Z</time>
      </trkpt>
      <trkpt lat="42.236769" lon="1.543071">
        <ele>1126.652964</ele>
        <time>2022-05-22T08:02:22.912Z</time>
      </trkpt>
      <trkpt lat="42.236822" lon="1.542933">
        <ele>1126.142042</ele>
        <time>2022-05-22T08:02:23.914Z</time>
      </trkpt>
      <trkpt lat="42.236873" lon="1.542791">
        <ele>1125.623352</ele>
        <time>2022-05-22T08:02:24.910Z</time>
      </trkpt>
      <trkpt lat="42.236921" lon="1.542641">
        <ele>1125.086307</ele>
        <time>2022-05-22T08:02:25.914Z</time>
      </trkpt>
      <trkpt lat="42.236971" lon="1.542490">
        <ele>1124.542680</ele>
        <time>2022-05-22T08:02:26.919Z</time>
      </trkpt>
      <trkpt lat="42.237023" lon="1.542339">
        <ele>1123.995369</ele>
        <time>2022-05-22T08:02:27.924Z</time>
      </trkpt>
      <trkpt lat="42.237115" lon="1.542217">
        <ele>1123.423063</ele>
        <time>2022-05-22T08:02:28.933Z</time>
      </trkpt>
      <trkpt lat="42.237199" lon="1.542070">
        <ele>1122.812796</ele>
        <time>2022-05-22T08:02:29.939Z</time>
      </trkpt>
      <trkpt lat="42.237318" lon="1.541922">
        <ele>1121.988959</ele>
        <time>2022-05-22T08:02:30.913Z</time>
      </trkpt>
      <trkpt lat="42.237391" lon="1.541783">
        <ele>1121.214116</ele>
        <time>2022-05-22T08:02:31.914Z</time>
      </trkpt>
      <trkpt lat="42.237464" lon="1.541624">
        <ele>1120.363476</ele>
        <time>2022-05-22T08:02:33.049Z</time>
      </trkpt>
      <trkpt lat="42.237531" lon="1.541472">
        <ele>1119.559173</ele>
        <time>2022-05-22T08:02:33.905Z</time>
      </trkpt>
      <trkpt lat="42.237595" lon="1.541331">
        <ele>1118.807205</ele>
        <time>2022-05-22T08:02:34.929Z</time>
      </trkpt>
      <trkpt lat="42.237662" lon="1.541214">
        <ele>1118.134691</ele>
        <time>2022-05-22T08:02:35.906Z</time>
      </trkpt>
      <trkpt lat="42.237731" lon="1.541116">
        <ele>1117.519803</ele>
        <time>2022-05-22T08:02:36.919Z</time>
      </trkpt>
      <trkpt lat="42.237825" lon="1.541037">
        <ele>1116.839915</ele>
        <time>2022-05-22T08:02:37.909Z</time>
      </trkpt>
      <trkpt lat="42.237918" lon="1.540965">
        <ele>1116.181626</ele>
        <time>2022-05-22T08:02:38.910Z</time>
      </trkpt>
      <trkpt lat="42.238010" lon="1.540899">
        <ele>1115.541898</ele>
        <time>2022-05-22T08:02:39.914Z</time>
      </trkpt>
      <trkpt lat="42.238114" lon="1.540827">
        <ele>1114.824215</ele>
        <time>2022-05-22T08:02:40.917Z</time>
      </trkpt>
      <trkpt lat="42.238222" lon="1.540741">
        <ele>1114.054296</ele>
        <time>2022-05-22T08:02:41.920Z</time>
      </trkpt>
      <trkpt lat="42.238314" lon="1.540640">
        <ele>1113.326232</ele>
        <time>2022-05-22T08:02:42.918Z</time>
      </trkpt>
      <trkpt lat="42.238386" lon="1.540504">
        <ele>1112.566069</ele>
        <time>2022-05-22T08:02:43.914Z</time>
      </trkpt>
      <trkpt lat="42.238449" lon="1.540343">
        <ele>1111.738113</ele>
        <time>2022-05-22T08:02:44.922Z</time>
      </trkpt>
      <trkpt lat="42.238493" lon="1.540161">
        <ele>1111.131551</ele>
        <time>2022-05-22T08:02:45.925Z</time>
      </trkpt>
      <trkpt lat="42.238530" lon="1.539976">
        <ele>1110.763135</ele>
        <time>2022-05-22T08:02:46.918Z</time>
      </trkpt>
      <trkpt lat="42.238565" lon="1.539779">
        <ele>1110.373645</ele>
        <time>2022-05-22T08:02:47.923Z</time>
      </trkpt>
      <trkpt lat="42.238583" lon="1.539592">
        <ele>1110.011108</ele>
        <time>2022-05-22T08:02:48.922Z</time>
      </trkpt>
      <trkpt lat="42.238601" lon="1.539400">
        <ele>1109.639036</ele>
        <time>2022-05-22T08:02:49.916Z</time>
      </trkpt>
      <trkpt lat="42.238613" lon="1.539210">
        <ele>1109.272430</ele>
        <time>2022-05-22T08:02:50.922Z</time>
      </trkpt>
      <trkpt lat="42.238622" lon="1.539025">
        <ele>1108.915997</ele>
        <time>2022-05-22T08:02:51.923Z</time>
      </trkpt>
      <trkpt lat="42.238639" lon="1.538861">
        <ele>1108.597628</ele>
        <time>2022-05-22T08:02:52.922Z</time>
      </trkpt>
      <trkpt lat="42.238666" lon="1.538705">
        <ele>1108.289629</ele>
        <time>2022-05-22T08:02:53.918Z</time>
      </trkpt>
      <trkpt lat="42.238704" lon="1.538568">
        <ele>1108.008366</ele>
        <time>2022-05-22T08:02:54.917Z</time>
      </trkpt>
      <trkpt lat="42.238770" lon="1.538467">
        <ele>1107.749374</ele>
        <time>2022-05-22T08:02:55.921Z</time>
      </trkpt>
      <trkpt lat="42.238865" lon="1.538382">
        <ele>1107.453466</ele>
        <time>2022-05-22T08:02:56.915Z</time>
      </trkpt>
      <trkpt lat="42.238967" lon="1.538296">
        <ele>1107.141228</ele>
        <time>2022-05-22T08:02:57.931Z</time>
      </trkpt>
      <trkpt lat="42.239067" lon="1.538204">
        <ele>1106.827038</ele>
        <time>2022-05-22T08:02:58.914Z</time>
      </trkpt>
      <trkpt lat="42.239147" lon="1.538099">
        <ele>1106.154478</ele>
        <time>2022-05-22T08:02:59.913Z</time>
      </trkpt>
      <trkpt lat="42.239224" lon="1.537985">
        <ele>1104.885909</ele>
        <time>2022-05-22T08:03:00.909Z</time>
      </trkpt>
      <trkpt lat="42.239291" lon="1.537853">
        <ele>1103.570249</ele>
        <time>2022-05-22T08:03:01.904Z</time>
      </trkpt>
      <trkpt lat="42.239368" lon="1.537747">
        <ele>1102.349461</ele>
        <time>2022-05-22T08:03:02.905Z</time>
      </trkpt>
      <trkpt lat="42.239431" lon="1.537641">
        <ele>1101.232023</ele>
        <time>2022-05-22T08:03:03.908Z</time>
      </trkpt>
      <trkpt lat="42.239477" lon="1.537533">
        <ele>1100.207756</ele>
        <time>2022-05-22T08:03:04.903Z</time>
      </trkpt>
      <trkpt lat="42.239550" lon="1.537352">
        <ele>1098.513364</ele>
        <time>2022-05-22T08:03:06.919Z</time>
      </trkpt>
      <trkpt lat="42.239644" lon="1.537257">
        <ele>1097.209784</ele>
        <time>2022-05-22T08:03:08.943Z</time>
      </trkpt>
      <trkpt lat="42.239681" lon="1.537146">
        <ele>1096.209076</ele>
        <time>2022-05-22T08:03:10.921Z</time>
      </trkpt>
      <trkpt lat="42.239706" lon="1.537015">
        <ele>1095.096978</ele>
        <time>2022-05-22T08:03:12.915Z</time>
      </trkpt>
      <trkpt lat="42.239753" lon="1.536847">
        <ele>1093.620607</ele>
        <time>2022-05-22T08:03:14.924Z</time>
      </trkpt>
      <trkpt lat="42.239793" lon="1.536665">
        <ele>1092.059930</ele>
        <time>2022-05-22T08:03:16.922Z</time>
      </trkpt>
      <trkpt lat="42.239836" lon="1.536450">
        <ele>1090.229153</ele>
        <time>2022-05-22T08:03:18.912Z</time>
      </trkpt>
      <trkpt lat="42.239887" lon="1.536218">
        <ele>1088.239687</ele>
        <time>2022-05-22T08:03:20.919Z</time>
      </trkpt>
      <trkpt lat="42.239914" lon="1.536088">
        <ele>1087.129759</ele>
        <time>2022-05-22T08:03:21.923Z</time>
      </trkpt>
      <trkpt lat="42.239937" lon="1.535954">
        <ele>1086.434855</ele>
        <time>2022-05-22T08:03:22.922Z</time>
      </trkpt>
      <trkpt lat="42.239961" lon="1.535817">
        <ele>1086.015556</ele>
        <time>2022-05-22T08:03:23.924Z</time>
      </trkpt>
      <trkpt lat="42.239989" lon="1.535677">
        <ele>1085.583642</ele>
        <time>2022-05-22T08:03:24.916Z</time>
      </trkpt>
      <trkpt lat="42.240016" lon="1.535536">
        <ele>1085.149878</ele>
        <time>2022-05-22T08:03:25.921Z</time>
      </trkpt>
      <trkpt lat="42.240033" lon="1.535392">
        <ele>1084.715580</ele>
        <time>2022-05-22T08:03:26.909Z</time>
      </trkpt>
      <trkpt lat="42.240049" lon="1.535248">
        <ele>1084.281898</ele>
        <time>2022-05-22T08:03:27.916Z</time>
      </trkpt>
      <trkpt lat="42.240055" lon="1.535097">
        <ele>1083.831523</ele>
        <time>2022-05-22T08:03:28.916Z</time>
      </trkpt>
      <trkpt lat="42.240048" lon="1.534947">
        <ele>1083.383887</ele>
        <time>2022-05-22T08:03:29.920Z</time>
      </trkpt>
      <trkpt lat="42.240023" lon="1.534793">
        <ele>1082.914327</ele>
        <time>2022-05-22T08:03:30.925Z</time>
      </trkpt>
      <trkpt lat="42.239984" lon="1.534638">
        <ele>1082.426753</ele>
        <time>2022-05-22T08:03:31.917Z</time>
      </trkpt>
      <trkpt lat="42.239946" lon="1.534486">
        <ele>1081.948932</ele>
        <time>2022-05-22T08:03:32.918Z</time>
      </trkpt>
      <trkpt lat="42.239908" lon="1.534338">
        <ele>1081.482383</ele>
        <time>2022-05-22T08:03:33.924Z</time>
      </trkpt>
      <trkpt lat="42.239876" lon="1.534193">
        <ele>1081.031745</ele>
        <time>2022-05-22T08:03:34.914Z</time>
      </trkpt>
      <trkpt lat="42.239852" lon="1.534046">
        <ele>1080.583410</ele>
        <time>2022-05-22T08:03:35.919Z</time>
      </trkpt>
      <trkpt lat="42.239833" lon="1.533893">
        <ele>1080.121358</ele>
        <time>2022-05-22T08:03:36.917Z</time>
      </trkpt>
      <trkpt lat="42.239820" lon="1.533741">
        <ele>1079.665640</ele>
        <time>2022-05-22T08:03:37.917Z</time>
      </trkpt>
      <trkpt lat="42.239828" lon="1.533579">
        <ele>1079.307555</ele>
        <time>2022-05-22T08:03:38.919Z</time>
      </trkpt>
      <trkpt lat="42.239854" lon="1.533427">
        <ele>1079.063285</ele>
        <time>2022-05-22T08:03:39.915Z</time>
      </trkpt>
      <trkpt lat="42.239894" lon="1.533285">
        <ele>1078.825392</ele>
        <time>2022-05-22T08:03:40.925Z</time>
      </trkpt>
      <trkpt lat="42.239937" lon="1.533144">
        <ele>1078.586619</ele>
        <time>2022-05-22T08:03:41.922Z</time>
      </trkpt>
      <trkpt lat="42.239972" lon="1.533015">
        <ele>1078.371495</ele>
        <time>2022-05-22T08:03:42.923Z</time>
      </trkpt>
      <trkpt lat="42.240005" lon="1.532881">
        <ele>1078.150376</ele>
        <time>2022-05-22T08:03:43.919Z</time>
      </trkpt>
      <trkpt lat="42.240052" lon="1.532756">
        <ele>1077.930857</ele>
        <time>2022-05-22T08:03:44.919Z</time>
      </trkpt>
      <trkpt lat="42.240103" lon="1.532635">
        <ele>1077.712844</ele>
        <time>2022-05-22T08:03:45.921Z</time>
      </trkpt>
      <trkpt lat="42.240145" lon="1.532506">
        <ele>1077.492189</ele>
        <time>2022-05-22T08:03:46.921Z</time>
      </trkpt>
      <trkpt lat="42.240188" lon="1.532384">
        <ele>1077.280620</ele>
        <time>2022-05-22T08:03:47.928Z</time>
      </trkpt>
      <trkpt lat="42.240232" lon="1.532271">
        <ele>1077.080707</ele>
        <time>2022-05-22T08:03:48.921Z</time>
      </trkpt>
      <trkpt lat="42.240314" lon="1.532061">
        <ele>1076.708960</ele>
        <time>2022-05-22T08:03:50.920Z</time>
      </trkpt>
      <trkpt lat="42.240407" lon="1.531870">
        <ele>1076.351013</ele>
        <time>2022-05-22T08:03:52.923Z</time>
      </trkpt>
      <trkpt lat="42.240487" lon="1.531675">
        <ele>1076.001940</ele>
        <time>2022-05-22T08:03:54.922Z</time>
      </trkpt>
      <trkpt lat="42.240554" lon="1.531478">
        <ele>1075.662491</ele>
        <time>2022-05-22T08:03:56.924Z</time>
      </trkpt>
      <trkpt lat="42.240644" lon="1.531298">
        <ele>1075.136549</ele>
        <time>2022-05-22T08:03:58.919Z</time>
      </trkpt>
      <trkpt lat="42.240725" lon="1.531133">
        <ele>1074.646626</ele>
        <time>2022-05-22T08:04:00.922Z</time>
      </trkpt>
      <trkpt lat="42.240801" lon="1.530985">
        <ele>1074.200903</ele>
        <time>2022-05-22T08:04:02.917Z</time>
      </trkpt>
      <trkpt lat="42.240919" lon="1.530883">
        <ele>1073.732626</ele>
        <time>2022-05-22T08:04:04.915Z</time>
      </trkpt>
      <trkpt lat="42.241034" lon="1.530780">
        <ele>1073.271401</ele>
        <time>2022-05-22T08:04:06.918Z</time>
      </trkpt>
      <trkpt lat="42.241152" lon="1.530660">
        <ele>1072.777688</ele>
        <time>2022-05-22T08:04:08.922Z</time>
      </trkpt>
      <trkpt lat="42.241256" lon="1.530508">
        <ele>1072.265509</ele>
        <time>2022-05-22T08:04:10.922Z</time>
      </trkpt>
      <trkpt lat="42.241335" lon="1.530341">
        <ele>1071.775089</ele>
        <time>2022-05-22T08:04:12.919Z</time>
      </trkpt>
      <trkpt lat="42.241397" lon="1.530159">
        <ele>1071.279320</ele>
        <time>2022-05-22T08:04:14.919Z</time>
      </trkpt>
      <trkpt lat="42.241455" lon="1.529982">
        <ele>1070.800330</ele>
        <time>2022-05-22T08:04:16.929Z</time>
      </trkpt>
      <trkpt lat="42.241528" lon="1.529829">
        <ele>1070.349900</ele>
        <time>2022-05-22T08:04:18.921Z</time>
      </trkpt>
      <trkpt lat="42.241614" lon="1.529716">
        <ele>1069.948867</ele>
        <time>2022-05-22T08:04:20.924Z</time>
      </trkpt>
      <trkpt lat="42.241710" lon="1.529585">
        <ele>1069.512311</ele>
        <time>2022-05-22T08:04:22.921Z</time>
      </trkpt>
      <trkpt lat="42.241802" lon="1.529479">
        <ele>1069.165580</ele>
        <time>2022-05-22T08:04:24.921Z</time>
      </trkpt>
      <trkpt lat="42.241885" lon="1.529381">
        <ele>1068.849481</ele>
        <time>2022-05-22T08:04:26.927Z</time>
      </trkpt>
      <trkpt lat="42.241988" lon="1.529298">
        <ele>1068.505578</ele>
        <time>2022-05-22T08:04:28.926Z</time>
      </trkpt>
      <trkpt lat="42.242103" lon="1.529206">
        <ele>1068.122334</ele>
        <time>2022-05-22T08:04:30.920Z</time>
      </trkpt>
      <trkpt lat="42.242207" lon="1.529119">
        <ele>1067.771569</ele>
        <time>2022-05-22T08:04:32.918Z</time>
      </trkpt>
      <trkpt lat="42.242317" lon="1.529034">
        <ele>1067.408193</ele>
        <time>2022-05-22T08:04:34.916Z</time>
      </trkpt>
      <trkpt lat="42.242422" lon="1.528918">
        <ele>1067.019244</ele>
        <time>2022-05-22T08:04:36.923Z</time>
      </trkpt>
      <trkpt lat="42.242514" lon="1.528757">
        <ele>1066.587511</ele>
        <time>2022-05-22T08:04:38.919Z</time>
      </trkpt>
      <trkpt lat="42.242590" lon="1.528589">
        <ele>1066.169576</ele>
        <time>2022-05-22T08:04:40.918Z</time>
      </trkpt>
      <trkpt lat="42.242662" lon="1.528427">
        <ele>1065.768478</ele>
        <time>2022-05-22T08:04:42.919Z</time>
      </trkpt>
      <trkpt lat="42.242721" lon="1.528259">
        <ele>1065.373763</ele>
        <time>2022-05-22T08:04:44.915Z</time>
      </trkpt>
      <trkpt lat="42.242779" lon="1.528083">
        <ele>1064.964816</ele>
        <time>2022-05-22T08:04:46.921Z</time>
      </trkpt>
      <trkpt lat="42.242853" lon="1.527904">
        <ele>1064.529613</ele>
        <time>2022-05-22T08:04:48.926Z</time>
      </trkpt>
      <trkpt lat="42.242934" lon="1.527733">
        <ele>1063.905681</ele>
        <time>2022-05-22T08:04:50.920Z</time>
      </trkpt>
      <trkpt lat="42.243024" lon="1.527563">
        <ele>1063.233298</ele>
        <time>2022-05-22T08:04:52.921Z</time>
      </trkpt>
      <trkpt lat="42.243100" lon="1.527384">
        <ele>1062.569432</ele>
        <time>2022-05-22T08:04:54.919Z</time>
      </trkpt>
      <trkpt lat="42.243177" lon="1.527217">
        <ele>1061.936476</ele>
        <time>2022-05-22T08:04:56.922Z</time>
      </trkpt>
      <trkpt lat="42.243263" lon="1.527038">
        <ele>1061.249955</ele>
        <time>2022-05-22T08:04:58.911Z</time>
      </trkpt>
      <trkpt lat="42.243352" lon="1.526853">
        <ele>1060.540145</ele>
        <time>2022-05-22T08:05:00.921Z</time>
      </trkpt>
      <trkpt lat="42.243448" lon="1.526665">
        <ele>1059.805387</ele>
        <time>2022-05-22T08:05:02.916Z</time>
      </trkpt>
      <trkpt lat="42.243538" lon="1.526467">
        <ele>1059.057897</ele>
        <time>2022-05-22T08:05:04.917Z</time>
      </trkpt>
      <trkpt lat="42.243575" lon="1.526352">
        <ele>1058.654492</ele>
        <time>2022-05-22T08:05:05.925Z</time>
      </trkpt>
      <trkpt lat="42.243603" lon="1.526235">
        <ele>1058.258905</ele>
        <time>2022-05-22T08:05:06.914Z</time>
      </trkpt>
      <trkpt lat="42.243617" lon="1.526113">
        <ele>1057.861724</ele>
        <time>2022-05-22T08:05:07.916Z</time>
      </trkpt>
      <trkpt lat="42.243620" lon="1.525984">
        <ele>1057.446507</ele>
        <time>2022-05-22T08:05:08.912Z</time>
      </trkpt>
      <trkpt lat="42.243623" lon="1.525852">
        <ele>1057.021642</ele>
        <time>2022-05-22T08:05:09.913Z</time>
      </trkpt>
      <trkpt lat="42.243623" lon="1.525716">
        <ele>1056.514731</ele>
        <time>2022-05-22T08:05:10.928Z</time>
      </trkpt>
      <trkpt lat="42.243616" lon="1.525591">
        <ele>1055.724837</ele>
        <time>2022-05-22T08:05:11.918Z</time>
      </trkpt>
      <trkpt lat="42.243624" lon="1.525371">
        <ele>1054.336913</ele>
        <time>2022-05-22T08:05:13.922Z</time>
      </trkpt>
      <trkpt lat="42.243644" lon="1.525199">
        <ele>1053.239827</ele>
        <time>2022-05-22T08:05:15.917Z</time>
      </trkpt>
      <trkpt lat="42.243696" lon="1.525041">
        <ele>1052.150294</ele>
        <time>2022-05-22T08:05:17.917Z</time>
      </trkpt>
      <trkpt lat="42.243755" lon="1.524912">
        <ele>1051.194828</ele>
        <time>2022-05-22T08:05:19.922Z</time>
      </trkpt>
      <trkpt lat="42.243800" lon="1.524779">
        <ele>1050.273395</ele>
        <time>2022-05-22T08:05:21.929Z</time>
      </trkpt>
      <trkpt lat="42.243796" lon="1.524642">
        <ele>1049.409469</ele>
        <time>2022-05-22T08:05:25.926Z</time>
      </trkpt>
      <trkpt lat="42.243846" lon="1.524541">
        <ele>1048.643868</ele>
        <time>2022-05-22T08:05:32.909Z</time>
      </trkpt>
      <trkpt lat="42.243870" lon="1.524666">
        <ele>1047.830167</ele>
        <time>2022-05-22T08:05:37.916Z</time>
      </trkpt>
      <trkpt lat="42.243849" lon="1.524789">
        <ele>1047.034784</ele>
        <time>2022-05-22T08:05:41.924Z</time>
      </trkpt>
      <trkpt lat="42.243758" lon="1.524789">
        <ele>1046.260220</ele>
        <time>2022-05-22T08:06:17.914Z</time>
      </trkpt>
      <trkpt lat="42.243825" lon="1.524881">
        <ele>1045.447028</ele>
        <time>2022-05-22T08:15:24.915Z</time>
      </trkpt>
      <trkpt lat="42.243889" lon="1.524794">
        <ele>1044.674194</ele>
        <time>2022-05-22T08:16:06.914Z</time>
      </trkpt>
      <trkpt lat="42.243823" lon="1.524705">
        <ele>1043.880416</ele>
        <time>2022-05-22T08:16:16.925Z</time>
      </trkpt>
      <trkpt lat="42.243723" lon="1.524746">
        <ele>1042.990903</ele>
        <time>2022-05-22T08:16:32.923Z</time>
      </trkpt>
      <trkpt lat="42.244094" lon="1.524948">
        <ele>1039.362538</ele>
        <time>2022-05-22T08:18:47.908Z</time>
      </trkpt>
      <trkpt lat="42.244010" lon="1.524546">
        <ele>1036.396197</ele>
        <time>2022-05-22T08:18:56.909Z</time>
      </trkpt>
      <trkpt lat="42.243809" lon="1.524703">
        <ele>1034.168888</ele>
        <time>2022-05-22T08:23:11.910Z</time>
      </trkpt>
      <trkpt lat="42.243895" lon="1.524777">
        <ele>1033.190745</ele>
        <time>2022-05-22T08:23:14.904Z</time>
      </trkpt>
      <trkpt lat="42.243928" lon="1.524899">
        <ele>1032.268339</ele>
        <time>2022-05-22T08:23:17.902Z</time>
      </trkpt>
      <trkpt lat="42.244210" lon="1.524594">
        <ele>1028.802882</ele>
        <time>2022-05-22T08:24:29.914Z</time>
      </trkpt>
      <trkpt lat="42.244210" lon="1.524466">
        <ele>1027.893895</ele>
        <time>2022-05-22T08:24:32.906Z</time>
      </trkpt>
      <trkpt lat="42.244177" lon="1.524581">
        <ele>1027.018017</ele>
        <time>2022-05-22T08:25:02.905Z</time>
      </trkpt>
      <trkpt lat="42.244078" lon="1.524609">
        <ele>1026.047731</ele>
        <time>2022-05-22T08:25:06.912Z</time>
      </trkpt>
      <trkpt lat="42.243996" lon="1.524696">
        <ele>1025.047493</ele>
        <time>2022-05-22T08:25:10.902Z</time>
      </trkpt>
      <trkpt lat="42.244151" lon="1.524717">
        <ele>1024.574739</ele>
        <time>2022-05-22T08:25:23.907Z</time>
      </trkpt>
      <trkpt lat="42.244275" lon="1.524741">
        <ele>1025.647736</ele>
        <time>2022-05-22T08:25:27.917Z</time>
      </trkpt>
      <trkpt lat="42.244371" lon="1.524749">
        <ele>1026.471608</ele>
        <time>2022-05-22T08:25:30.908Z</time>
      </trkpt>
      <trkpt lat="42.244463" lon="1.524742">
        <ele>1027.260904</ele>
        <time>2022-05-22T08:25:35.903Z</time>
      </trkpt>
      <trkpt lat="42.244371" lon="1.524823">
        <ele>1028.201557</ele>
        <time>2022-05-22T08:25:42.906Z</time>
      </trkpt>
      <trkpt lat="42.244270" lon="1.524844">
        <ele>1029.076883</ele>
        <time>2022-05-22T08:25:51.908Z</time>
      </trkpt>
      <trkpt lat="42.244231" lon="1.524713">
        <ele>1029.972221</ele>
        <time>2022-05-22T08:25:57.903Z</time>
      </trkpt>
      <trkpt lat="42.244326" lon="1.524691">
        <ele>1030.797836</ele>
        <time>2022-05-22T08:26:15.907Z</time>
      </trkpt>
      <trkpt lat="42.243876" lon="1.524342">
        <ele>1035.242530</ele>
        <time>2022-05-22T08:28:01.899Z</time>
      </trkpt>
      <trkpt lat="42.243964" lon="1.524391">
        <ele>1036.057842</ele>
        <time>2022-05-22T08:28:08.908Z</time>
      </trkpt>
      <trkpt lat="42.244049" lon="1.524431">
        <ele>1036.828845</ele>
        <time>2022-05-22T08:28:13.904Z</time>
      </trkpt>
      <trkpt lat="42.243900" lon="1.524502">
        <ele>1038.182218</ele>
        <time>2022-05-22T08:28:47.915Z</time>
      </trkpt>
      <trkpt lat="42.243941" lon="1.523879">
        <ele>1044.194221</ele>
        <time>2022-05-22T08:31:10.904Z</time>
      </trkpt>
      <trkpt lat="42.243849" lon="1.523863">
        <ele>1045.602476</ele>
        <time>2022-05-22T08:31:14.906Z</time>
      </trkpt>
      <trkpt lat="42.243545" lon="1.524330">
        <ele>1052.591646</ele>
        <time>2022-05-22T08:31:19.906Z</time>
      </trkpt>
      <trkpt lat="42.243468" lon="1.524460">
        <ele>1054.462819</ele>
        <time>2022-05-22T08:31:21.915Z</time>
      </trkpt>
      <trkpt lat="42.243522" lon="1.524331">
        <ele>1056.128386</ele>
        <time>2022-05-22T08:31:39.909Z</time>
      </trkpt>
      <trkpt lat="42.243473" lon="1.524466">
        <ele>1057.818207</ele>
        <time>2022-05-22T08:31:54.910Z</time>
      </trkpt>
      <trkpt lat="42.243545" lon="1.524388">
        <ele>1059.219402</ele>
        <time>2022-05-22T08:31:57.909Z</time>
      </trkpt>
      <trkpt lat="42.243646" lon="1.524297">
        <ele>1061.062555</ele>
        <time>2022-05-22T08:31:59.909Z</time>
      </trkpt>
      <trkpt lat="42.243782" lon="1.524186">
        <ele>1063.474901</ele>
        <time>2022-05-22T08:32:01.908Z</time>
      </trkpt>
      <trkpt lat="42.243863" lon="1.524125">
        <ele>1064.882822</ele>
        <time>2022-05-22T08:32:02.911Z</time>
      </trkpt>
      <trkpt lat="42.243985" lon="1.524005">
        <ele>1066.509807</ele>
        <time>2022-05-22T08:32:04.908Z</time>
      </trkpt>
      <trkpt lat="42.244139" lon="1.523901">
        <ele>1064.403851</ele>
        <time>2022-05-22T08:32:06.908Z</time>
      </trkpt>
      <trkpt lat="42.244254" lon="1.523802">
        <ele>1062.735848</ele>
        <time>2022-05-22T08:32:08.903Z</time>
      </trkpt>
      <trkpt lat="42.244359" lon="1.523684">
        <ele>1061.065180</ele>
        <time>2022-05-22T08:32:10.912Z</time>
      </trkpt>
      <trkpt lat="42.244292" lon="1.523772">
        <ele>1059.922134</ele>
        <time>2022-05-22T08:32:16.901Z</time>
      </trkpt>
      <trkpt lat="42.244395" lon="1.523837">
        <ele>1058.531574</ele>
        <time>2022-05-22T08:32:22.910Z</time>
      </trkpt>
      <trkpt lat="42.243802" lon="1.524724">
        <ele>1047.709377</ele>
        <time>2022-05-22T08:44:25.930Z</time>
      </trkpt>
      <trkpt lat="42.243776" lon="1.524896">
        <ele>1046.119783</ele>
        <time>2022-05-22T08:46:03.911Z</time>
      </trkpt>
      <trkpt lat="42.243869" lon="1.524778">
        <ele>1044.776933</ele>
        <time>2022-05-22T08:46:49.914Z</time>
      </trkpt>
      <trkpt lat="42.243878" lon="1.524634">
        <ele>1044.623824</ele>
        <time>2022-05-22T08:46:53.919Z</time>
      </trkpt>
      <trkpt lat="42.243868" lon="1.524513">
        <ele>1044.494829</ele>
        <time>2022-05-22T08:46:56.915Z</time>
      </trkpt>
      <trkpt lat="42.243837" lon="1.524367">
        <ele>1044.333906</ele>
        <time>2022-05-22T08:47:00.910Z</time>
      </trkpt>
      <trkpt lat="42.243807" lon="1.524224">
        <ele>1044.176432</ele>
        <time>2022-05-22T08:47:04.912Z</time>
      </trkpt>
      <trkpt lat="42.243801" lon="1.524087">
        <ele>1044.031028</ele>
        <time>2022-05-22T08:47:08.907Z</time>
      </trkpt>
      <trkpt lat="42.243808" lon="1.523942">
        <ele>1043.877075</ele>
        <time>2022-05-22T08:47:12.913Z</time>
      </trkpt>
      <trkpt lat="42.243825" lon="1.523806">
        <ele>1043.730944</ele>
        <time>2022-05-22T08:47:16.917Z</time>
      </trkpt>
      <trkpt lat="42.243833" lon="1.523666">
        <ele>1043.582174</ele>
        <time>2022-05-22T08:47:21.911Z</time>
      </trkpt>
      <trkpt lat="42.243865" lon="1.523544">
        <ele>1043.445042</ele>
        <time>2022-05-22T08:47:25.910Z</time>
      </trkpt>
      <trkpt lat="42.243889" lon="1.523403">
        <ele>1043.291755</ele>
        <time>2022-05-22T08:47:30.913Z</time>
      </trkpt>
      <trkpt lat="42.243921" lon="1.523270">
        <ele>1043.143587</ele>
        <time>2022-05-22T08:47:35.908Z</time>
      </trkpt>
      <trkpt lat="42.243939" lon="1.523139">
        <ele>1043.002423</ele>
        <time>2022-05-22T08:47:40.907Z</time>
      </trkpt>
      <trkpt lat="42.243970" lon="1.523011">
        <ele>1042.859736</ele>
        <time>2022-05-22T08:47:46.901Z</time>
      </trkpt>
      <trkpt lat="42.243985" lon="1.522881">
        <ele>1042.720339</ele>
        <time>2022-05-22T08:47:51.914Z</time>
      </trkpt>
      <trkpt lat="42.243970" lon="1.522750">
        <ele>1042.579895</ele>
        <time>2022-05-22T08:47:56.911Z</time>
      </trkpt>
      <trkpt lat="42.243954" lon="1.522591">
        <ele>1042.409887</ele>
        <time>2022-05-22T08:48:00.911Z</time>
      </trkpt>
      <trkpt lat="42.243944" lon="1.522434">
        <ele>1042.242932</ele>
        <time>2022-05-22T08:48:03.912Z</time>
      </trkpt>
      <trkpt lat="42.243925" lon="1.522286">
        <ele>1041.813474</ele>
        <time>2022-05-22T08:48:05.908Z</time>
      </trkpt>
      <trkpt lat="42.243894" lon="1.522129">
        <ele>1041.326496</ele>
        <time>2022-05-22T08:48:07.909Z</time>
      </trkpt>
      <trkpt lat="42.243861" lon="1.521950">
        <ele>1040.773648</ele>
        <time>2022-05-22T08:48:09.912Z</time>
      </trkpt>
      <trkpt lat="42.243859" lon="1.521745">
        <ele>1040.159210</ele>
        <time>2022-05-22T08:48:11.905Z</time>
      </trkpt>
      <trkpt lat="42.243848" lon="1.521510">
        <ele>1039.453509</ele>
        <time>2022-05-22T08:48:13.905Z</time>
      </trkpt>
      <trkpt lat="42.243834" lon="1.521383">
        <ele>1039.068694</ele>
        <time>2022-05-22T08:48:14.913Z</time>
      </trkpt>
      <trkpt lat="42.243828" lon="1.521254">
        <ele>1038.681318</ele>
        <time>2022-05-22T08:48:15.912Z</time>
      </trkpt>
      <trkpt lat="42.243829" lon="1.521129">
        <ele>1038.306672</ele>
        <time>2022-05-22T08:48:16.910Z</time>
      </trkpt>
      <trkpt lat="42.243815" lon="1.520901">
        <ele>1037.621009</ele>
        <time>2022-05-22T08:48:18.905Z</time>
      </trkpt>
      <trkpt lat="42.243800" lon="1.520699">
        <ele>1037.012577</ele>
        <time>2022-05-22T08:48:20.909Z</time>
      </trkpt>
      <trkpt lat="42.243786" lon="1.520568">
        <ele>1036.615900</ele>
        <time>2022-05-22T08:48:22.916Z</time>
      </trkpt>
      <trkpt lat="42.243769" lon="1.520412">
        <ele>1036.143329</ele>
        <time>2022-05-22T08:48:25.909Z</time>
      </trkpt>
      <trkpt lat="42.243786" lon="1.520289">
        <ele>1035.768328</ele>
        <time>2022-05-22T08:48:28.909Z</time>
      </trkpt>
      <trkpt lat="42.243822" lon="1.520170">
        <ele>1035.383055</ele>
        <time>2022-05-22T08:48:31.907Z</time>
      </trkpt>
      <trkpt lat="42.243841" lon="1.520051">
        <ele>1035.018212</ele>
        <time>2022-05-22T08:48:34.908Z</time>
      </trkpt>
      <trkpt lat="42.243810" lon="1.519893">
        <ele>1034.790520</ele>
        <time>2022-05-22T08:48:38.909Z</time>
      </trkpt>
      <trkpt lat="42.243787" lon="1.519772">
        <ele>1034.648938</ele>
        <time>2022-05-22T08:48:41.911Z</time>
      </trkpt>
      <trkpt lat="42.243759" lon="1.519636">
        <ele>1034.488955</ele>
        <time>2022-05-22T08:48:45.913Z</time>
      </trkpt>
      <trkpt lat="42.243702" lon="1.519533">
        <ele>1034.343211</ele>
        <time>2022-05-22T08:48:48.910Z</time>
      </trkpt>
      <trkpt lat="42.243628" lon="1.519435">
        <ele>1034.184560</ele>
        <time>2022-05-22T08:48:52.910Z</time>
      </trkpt>
      <trkpt lat="42.243553" lon="1.519339">
        <ele>1034.026379</ele>
        <time>2022-05-22T08:48:55.914Z</time>
      </trkpt>
      <trkpt lat="42.243508" lon="1.519197">
        <ele>1033.851320</ele>
        <time>2022-05-22T08:48:59.908Z</time>
      </trkpt>
      <trkpt lat="42.243481" lon="1.519078">
        <ele>1033.710260</ele>
        <time>2022-05-22T08:49:02.908Z</time>
      </trkpt>
      <trkpt lat="42.243452" lon="1.518925">
        <ele>1033.531266</ele>
        <time>2022-05-22T08:49:06.904Z</time>
      </trkpt>
      <trkpt lat="42.243427" lon="1.518795">
        <ele>1033.379042</ele>
        <time>2022-05-22T08:49:09.906Z</time>
      </trkpt>
      <trkpt lat="42.243371" lon="1.518681">
        <ele>1033.223985</ele>
        <time>2022-05-22T08:49:12.908Z</time>
      </trkpt>
      <trkpt lat="42.243324" lon="1.518528">
        <ele>1033.036248</ele>
        <time>2022-05-22T08:49:16.911Z</time>
      </trkpt>
      <trkpt lat="42.243294" lon="1.518400">
        <ele>1032.884083</ele>
        <time>2022-05-22T08:49:19.910Z</time>
      </trkpt>
      <trkpt lat="42.243266" lon="1.518275">
        <ele>1032.736073</ele>
        <time>2022-05-22T08:49:22.910Z</time>
      </trkpt>
      <trkpt lat="42.243231" lon="1.518163">
        <ele>1032.598292</ele>
        <time>2022-05-22T08:49:25.908Z</time>
      </trkpt>
      <trkpt lat="42.243194" lon="1.518038">
        <ele>1032.445720</ele>
        <time>2022-05-22T08:49:28.909Z</time>
      </trkpt>
      <trkpt lat="42.243130" lon="1.517892">
        <ele>1032.253419</ele>
        <time>2022-05-22T08:49:31.904Z</time>
      </trkpt>
      <trkpt lat="42.243081" lon="1.517775">
        <ele>1032.270082</ele>
        <time>2022-05-22T08:49:33.900Z</time>
      </trkpt>
      <trkpt lat="42.243020" lon="1.517638">
        <ele>1032.410244</ele>
        <time>2022-05-22T08:49:36.903Z</time>
      </trkpt>
      <trkpt lat="42.242976" lon="1.517483">
        <ele>1032.555783</ele>
        <time>2022-05-22T08:49:39.902Z</time>
      </trkpt>
      <trkpt lat="42.242941" lon="1.517348">
        <ele>1032.681189</ele>
        <time>2022-05-22T08:49:42.907Z</time>
      </trkpt>
      <trkpt lat="42.242942" lon="1.517207">
        <ele>1032.804812</ele>
        <time>2022-05-22T08:49:45.901Z</time>
      </trkpt>
      <trkpt lat="42.242928" lon="1.517056">
        <ele>1032.938231</ele>
        <time>2022-05-22T08:49:48.905Z</time>
      </trkpt>
      <trkpt lat="42.242898" lon="1.516923">
        <ele>1033.060127</ele>
        <time>2022-05-22T08:49:51.901Z</time>
      </trkpt>
      <trkpt lat="42.242827" lon="1.516832">
        <ele>1033.176037</ele>
        <time>2022-05-22T08:49:54.906Z</time>
      </trkpt>
      <trkpt lat="42.242759" lon="1.516735">
        <ele>1033.293159</ele>
        <time>2022-05-22T08:49:57.906Z</time>
      </trkpt>
      <trkpt lat="42.242692" lon="1.516622">
        <ele>1033.420086</ele>
        <time>2022-05-22T08:50:00.907Z</time>
      </trkpt>
      <trkpt lat="42.242640" lon="1.516517">
        <ele>1033.530842</ele>
        <time>2022-05-22T08:50:03.904Z</time>
      </trkpt>
      <trkpt lat="42.242621" lon="1.516391">
        <ele>1033.643577</ele>
        <time>2022-05-22T08:50:06.906Z</time>
      </trkpt>
      <trkpt lat="42.242598" lon="1.516255">
        <ele>1033.765884</ele>
        <time>2022-05-22T08:50:09.903Z</time>
      </trkpt>
      <trkpt lat="42.242596" lon="1.516093">
        <ele>1033.907933</ele>
        <time>2022-05-22T08:50:12.908Z</time>
      </trkpt>
      <trkpt lat="42.242603" lon="1.515946">
        <ele>1034.037078</ele>
        <time>2022-05-22T08:50:15.913Z</time>
      </trkpt>
      <trkpt lat="42.242622" lon="1.515822">
        <ele>1034.148096</ele>
        <time>2022-05-22T08:50:17.908Z</time>
      </trkpt>
      <trkpt lat="42.242635" lon="1.515644">
        <ele>1034.304910</ele>
        <time>2022-05-22T08:50:20.911Z</time>
      </trkpt>
      <trkpt lat="42.242652" lon="1.515479">
        <ele>1034.284032</ele>
        <time>2022-05-22T08:50:23.913Z</time>
      </trkpt>
      <trkpt lat="42.242651" lon="1.515351">
        <ele>1034.245794</ele>
        <time>2022-05-22T08:50:25.910Z</time>
      </trkpt>
      <trkpt lat="42.242660" lon="1.515225">
        <ele>1034.207981</ele>
        <time>2022-05-22T08:50:27.909Z</time>
      </trkpt>
      <trkpt lat="42.242674" lon="1.515099">
        <ele>1034.169922</ele>
        <time>2022-05-22T08:50:29.916Z</time>
      </trkpt>
      <trkpt lat="42.242685" lon="1.514949">
        <ele>1034.124895</ele>
        <time>2022-05-22T08:50:31.908Z</time>
      </trkpt>
      <trkpt lat="42.242699" lon="1.514797">
        <ele>1034.079141</ele>
        <time>2022-05-22T08:50:33.911Z</time>
      </trkpt>
      <trkpt lat="42.242723" lon="1.514643">
        <ele>1034.032130</ele>
        <time>2022-05-22T08:50:35.904Z</time>
      </trkpt>
      <trkpt lat="42.242740" lon="1.514460">
        <ele>1033.977037</ele>
        <time>2022-05-22T08:50:37.903Z</time>
      </trkpt>
      <trkpt lat="42.242747" lon="1.514294">
        <ele>1033.927370</ele>
        <time>2022-05-22T08:50:39.902Z</time>
      </trkpt>
      <trkpt lat="42.242731" lon="1.514169">
        <ele>1033.889477</ele>
        <time>2022-05-22T08:50:41.907Z</time>
      </trkpt>
      <trkpt lat="42.242671" lon="1.514026">
        <ele>1033.840377</ele>
        <time>2022-05-22T08:50:43.907Z</time>
      </trkpt>
      <trkpt lat="42.242584" lon="1.513874">
        <ele>1033.782984</ele>
        <time>2022-05-22T08:50:45.906Z</time>
      </trkpt>
      <trkpt lat="42.242495" lon="1.513661">
        <ele>1033.709923</ele>
        <time>2022-05-22T08:50:47.904Z</time>
      </trkpt>
      <trkpt lat="42.242458" lon="1.513536">
        <ele>1033.669709</ele>
        <time>2022-05-22T08:50:48.904Z</time>
      </trkpt>
      <trkpt lat="42.242426" lon="1.513399">
        <ele>1033.626797</ele>
        <time>2022-05-22T08:50:49.907Z</time>
      </trkpt>
      <trkpt lat="42.242389" lon="1.513271">
        <ele>1033.448323</ele>
        <time>2022-05-22T08:50:50.904Z</time>
      </trkpt>
      <trkpt lat="42.242365" lon="1.513132">
        <ele>1033.013706</ele>
        <time>2022-05-22T08:50:51.903Z</time>
      </trkpt>
      <trkpt lat="42.242338" lon="1.513000">
        <ele>1032.596703</ele>
        <time>2022-05-22T08:50:52.900Z</time>
      </trkpt>
      <trkpt lat="42.242295" lon="1.512859">
        <ele>1032.132353</ele>
        <time>2022-05-22T08:50:53.908Z</time>
      </trkpt>
      <trkpt lat="42.242265" lon="1.512718">
        <ele>1031.685624</ele>
        <time>2022-05-22T08:50:54.906Z</time>
      </trkpt>
      <trkpt lat="42.242240" lon="1.512585">
        <ele>1031.267785</ele>
        <time>2022-05-22T08:50:55.904Z</time>
      </trkpt>
      <trkpt lat="42.242224" lon="1.512431">
        <ele>1030.794255</ele>
        <time>2022-05-22T08:50:56.907Z</time>
      </trkpt>
      <trkpt lat="42.242184" lon="1.512290">
        <ele>1030.334462</ele>
        <time>2022-05-22T08:50:57.904Z</time>
      </trkpt>
      <trkpt lat="42.242145" lon="1.512158">
        <ele>1029.901690</ele>
        <time>2022-05-22T08:50:58.906Z</time>
      </trkpt>
      <trkpt lat="42.242108" lon="1.512033">
        <ele>1029.491764</ele>
        <time>2022-05-22T08:50:59.905Z</time>
      </trkpt>
      <trkpt lat="42.242073" lon="1.511906">
        <ele>1029.079119</ele>
        <time>2022-05-22T08:51:00.912Z</time>
      </trkpt>
      <trkpt lat="42.242040" lon="1.511775">
        <ele>1028.657758</ele>
        <time>2022-05-22T08:51:01.907Z</time>
      </trkpt>
      <trkpt lat="42.242016" lon="1.511634">
        <ele>1028.217205</ele>
        <time>2022-05-22T08:51:02.907Z</time>
      </trkpt>
      <trkpt lat="42.241987" lon="1.511501">
        <ele>1027.795015</ele>
        <time>2022-05-22T08:51:03.905Z</time>
      </trkpt>
      <trkpt lat="42.241960" lon="1.511360">
        <ele>1027.351534</ele>
        <time>2022-05-22T08:51:04.905Z</time>
      </trkpt>
      <trkpt lat="42.241941" lon="1.511227">
        <ele>1026.939072</ele>
        <time>2022-05-22T08:51:05.903Z</time>
      </trkpt>
      <trkpt lat="42.241916" lon="1.511093">
        <ele>1026.518279</ele>
        <time>2022-05-22T08:51:06.902Z</time>
      </trkpt>
      <trkpt lat="42.241892" lon="1.510962">
        <ele>1026.113735</ele>
        <time>2022-05-22T08:51:07.903Z</time>
      </trkpt>
      <trkpt lat="42.241864" lon="1.510820">
        <ele>1025.696293</ele>
        <time>2022-05-22T08:51:08.900Z</time>
      </trkpt>
      <trkpt lat="42.241831" lon="1.510673">
        <ele>1025.259934</ele>
        <time>2022-05-22T08:51:09.907Z</time>
      </trkpt>
      <trkpt lat="42.241788" lon="1.510543">
        <ele>1024.855459</ele>
        <time>2022-05-22T08:51:10.905Z</time>
      </trkpt>
      <trkpt lat="42.241757" lon="1.510406">
        <ele>1024.448511</ele>
        <time>2022-05-22T08:51:11.905Z</time>
      </trkpt>
      <trkpt lat="42.241740" lon="1.510274">
        <ele>1024.067907</ele>
        <time>2022-05-22T08:51:12.906Z</time>
      </trkpt>
      <trkpt lat="42.241735" lon="1.510141">
        <ele>1023.689607</ele>
        <time>2022-05-22T08:51:13.906Z</time>
      </trkpt>
      <trkpt lat="42.241730" lon="1.510006">
        <ele>1023.305633</ele>
        <time>2022-05-22T08:51:14.908Z</time>
      </trkpt>
      <trkpt lat="42.241720" lon="1.509876">
        <ele>1022.934353</ele>
        <time>2022-05-22T08:51:15.901Z</time>
      </trkpt>
      <trkpt lat="42.241667" lon="1.509647">
        <ele>1022.252785</ele>
        <time>2022-05-22T08:51:17.906Z</time>
      </trkpt>
      <trkpt lat="42.241593" lon="1.509453">
        <ele>1021.632837</ele>
        <time>2022-05-22T08:51:19.908Z</time>
      </trkpt>
      <trkpt lat="42.241511" lon="1.509279">
        <ele>1021.046904</ele>
        <time>2022-05-22T08:51:21.907Z</time>
      </trkpt>
      <trkpt lat="42.241422" lon="1.509093">
        <ele>1020.417774</ele>
        <time>2022-05-22T08:51:23.904Z</time>
      </trkpt>
      <trkpt lat="42.241350" lon="1.508902">
        <ele>1019.808908</ele>
        <time>2022-05-22T08:51:25.905Z</time>
      </trkpt>
      <trkpt lat="42.241279" lon="1.508717">
        <ele>1019.240623</ele>
        <time>2022-05-22T08:51:27.901Z</time>
      </trkpt>
      <trkpt lat="42.241226" lon="1.508534">
        <ele>1018.839807</ele>
        <time>2022-05-22T08:51:29.910Z</time>
      </trkpt>
      <trkpt lat="42.241197" lon="1.508305">
        <ele>1018.365926</ele>
        <time>2022-05-22T08:51:31.911Z</time>
      </trkpt>
      <trkpt lat="42.241195" lon="1.508176">
        <ele>1018.102743</ele>
        <time>2022-05-22T08:51:32.909Z</time>
      </trkpt>
      <trkpt lat="42.241189" lon="1.508024">
        <ele>1017.792265</ele>
        <time>2022-05-22T08:51:33.909Z</time>
      </trkpt>
      <trkpt lat="42.241188" lon="1.507893">
        <ele>1017.525047</ele>
        <time>2022-05-22T08:51:34.913Z</time>
      </trkpt>
      <trkpt lat="42.241165" lon="1.507750">
        <ele>1017.226562</ele>
        <time>2022-05-22T08:51:35.907Z</time>
      </trkpt>
      <trkpt lat="42.241139" lon="1.507599">
        <ele>1016.910342</ele>
        <time>2022-05-22T08:51:36.904Z</time>
      </trkpt>
      <trkpt lat="42.241121" lon="1.507440">
        <ele>1016.582256</ele>
        <time>2022-05-22T08:51:37.904Z</time>
      </trkpt>
      <trkpt lat="42.241112" lon="1.507300">
        <ele>1016.295619</ele>
        <time>2022-05-22T08:51:38.906Z</time>
      </trkpt>
      <trkpt lat="42.241094" lon="1.507157">
        <ele>1015.999752</ele>
        <time>2022-05-22T08:51:39.903Z</time>
      </trkpt>
      <trkpt lat="42.241081" lon="1.507003">
        <ele>1015.683599</ele>
        <time>2022-05-22T08:51:40.900Z</time>
      </trkpt>
      <trkpt lat="42.241090" lon="1.506855">
        <ele>1015.380702</ele>
        <time>2022-05-22T08:51:41.906Z</time>
      </trkpt>
      <trkpt lat="42.241112" lon="1.506695">
        <ele>1015.048764</ele>
        <time>2022-05-22T08:51:42.905Z</time>
      </trkpt>
      <trkpt lat="42.241151" lon="1.506539">
        <ele>1014.712914</ele>
        <time>2022-05-22T08:51:43.906Z</time>
      </trkpt>
      <trkpt lat="42.241198" lon="1.506389">
        <ele>1014.380680</ele>
        <time>2022-05-22T08:51:44.912Z</time>
      </trkpt>
      <trkpt lat="42.241247" lon="1.506246">
        <ele>1013.832450</ele>
        <time>2022-05-22T08:51:45.910Z</time>
      </trkpt>
      <trkpt lat="42.241292" lon="1.506087">
        <ele>1013.209897</ele>
        <time>2022-05-22T08:51:46.910Z</time>
      </trkpt>
      <trkpt lat="42.241347" lon="1.505934">
        <ele>1012.587854</ele>
        <time>2022-05-22T08:51:47.909Z</time>
      </trkpt>
      <trkpt lat="42.241416" lon="1.505814">
        <ele>1012.032154</ele>
        <time>2022-05-22T08:51:48.909Z</time>
      </trkpt>
      <trkpt lat="42.241465" lon="1.505692">
        <ele>1011.524533</ele>
        <time>2022-05-22T08:51:49.903Z</time>
      </trkpt>
      <trkpt lat="42.241510" lon="1.505569">
        <ele>1011.022755</ele>
        <time>2022-05-22T08:51:50.913Z</time>
      </trkpt>
      <trkpt lat="42.241593" lon="1.505377">
        <ele>1010.209610</ele>
        <time>2022-05-22T08:51:52.914Z</time>
      </trkpt>
      <trkpt lat="42.241617" lon="1.505221">
        <ele>1009.626887</ele>
        <time>2022-05-22T08:51:55.914Z</time>
      </trkpt>
      <trkpt lat="42.241529" lon="1.505128">
        <ele>1009.074911</ele>
        <time>2022-05-22T08:51:57.910Z</time>
      </trkpt>
      <trkpt lat="42.241426" lon="1.505007">
        <ele>1008.400563</ele>
        <time>2022-05-22T08:51:59.916Z</time>
      </trkpt>
      <trkpt lat="42.241357" lon="1.504788">
        <ele>1007.530101</ele>
        <time>2022-05-22T08:52:01.908Z</time>
      </trkpt>
      <trkpt lat="42.241313" lon="1.504649">
        <ele>1006.977217</ele>
        <time>2022-05-22T08:52:02.910Z</time>
      </trkpt>
      <trkpt lat="42.241278" lon="1.504506">
        <ele>1006.426385</ele>
        <time>2022-05-22T08:52:03.911Z</time>
      </trkpt>
      <trkpt lat="42.241243" lon="1.504357">
        <ele>1005.854676</ele>
        <time>2022-05-22T08:52:04.910Z</time>
      </trkpt>
      <trkpt lat="42.241218" lon="1.504218">
        <ele>1005.546791</ele>
        <time>2022-05-22T08:52:05.917Z</time>
      </trkpt>
      <trkpt lat="42.241198" lon="1.504087">
        <ele>1005.878923</ele>
        <time>2022-05-22T08:52:06.912Z</time>
      </trkpt>
      <trkpt lat="42.241171" lon="1.503956">
        <ele>1006.216581</ele>
        <time>2022-05-22T08:52:07.908Z</time>
      </trkpt>
      <trkpt lat="42.241149" lon="1.503838">
        <ele>1006.518737</ele>
        <time>2022-05-22T08:52:08.913Z</time>
      </trkpt>
      <trkpt lat="42.241130" lon="1.503717">
        <ele>1006.825877</ele>
        <time>2022-05-22T08:52:09.912Z</time>
      </trkpt>
      <trkpt lat="42.241071" lon="1.503493">
        <ele>1007.416248</ele>
        <time>2022-05-22T08:52:11.909Z</time>
      </trkpt>
      <trkpt lat="42.241026" lon="1.503381">
        <ele>1007.732675</ele>
        <time>2022-05-22T08:52:12.909Z</time>
      </trkpt>
      <trkpt lat="42.240971" lon="1.503149">
        <ele>1008.337573</ele>
        <time>2022-05-22T08:52:14.911Z</time>
      </trkpt>
      <trkpt lat="42.240948" lon="1.503028">
        <ele>1008.647776</ele>
        <time>2022-05-22T08:52:15.910Z</time>
      </trkpt>
      <trkpt lat="42.240919" lon="1.502807">
        <ele>1009.205099</ele>
        <time>2022-05-22T08:52:17.910Z</time>
      </trkpt>
      <trkpt lat="42.240886" lon="1.502589">
        <ele>1009.757619</ele>
        <time>2022-05-22T08:52:19.909Z</time>
      </trkpt>
      <trkpt lat="42.240854" lon="1.502364">
        <ele>1010.326537</ele>
        <time>2022-05-22T08:52:21.912Z</time>
      </trkpt>
      <trkpt lat="42.240828" lon="1.502145">
        <ele>1010.877288</ele>
        <time>2022-05-22T08:52:23.907Z</time>
      </trkpt>
      <trkpt lat="42.240800" lon="1.501945">
        <ele>1011.382715</ele>
        <time>2022-05-22T08:52:25.913Z</time>
      </trkpt>
      <trkpt lat="42.240719" lon="1.501767">
        <ele>1011.634431</ele>
        <time>2022-05-22T08:52:27.910Z</time>
      </trkpt>
      <trkpt lat="42.240634" lon="1.501674">
        <ele>1011.761706</ele>
        <time>2022-05-22T08:52:28.913Z</time>
      </trkpt>
      <trkpt lat="42.240553" lon="1.501592">
        <ele>1011.879484</ele>
        <time>2022-05-22T08:52:29.910Z</time>
      </trkpt>
      <trkpt lat="42.240487" lon="1.501502">
        <ele>1011.988606</ele>
        <time>2022-05-22T08:52:30.915Z</time>
      </trkpt>
      <trkpt lat="42.240367" lon="1.501349">
        <ele>1012.180607</ele>
        <time>2022-05-22T08:52:32.919Z</time>
      </trkpt>
      <trkpt lat="42.240237" lon="1.501209">
        <ele>1012.374058</ele>
        <time>2022-05-22T08:52:34.917Z</time>
      </trkpt>
      <trkpt lat="42.240104" lon="1.501113">
        <ele>1012.549517</ele>
        <time>2022-05-22T08:52:36.914Z</time>
      </trkpt>
      <trkpt lat="42.239979" lon="1.501025">
        <ele>1012.713528</ele>
        <time>2022-05-22T08:52:38.917Z</time>
      </trkpt>
      <trkpt lat="42.239849" lon="1.500951">
        <ele>1012.877671</ele>
        <time>2022-05-22T08:52:40.911Z</time>
      </trkpt>
      <trkpt lat="42.239706" lon="1.500899">
        <ele>1013.049981</ele>
        <time>2022-05-22T08:52:42.911Z</time>
      </trkpt>
      <trkpt lat="42.239569" lon="1.500847">
        <ele>1013.215559</ele>
        <time>2022-05-22T08:52:44.919Z</time>
      </trkpt>
      <trkpt lat="42.239423" lon="1.500825">
        <ele>1013.386489</ele>
        <time>2022-05-22T08:52:46.903Z</time>
      </trkpt>
      <trkpt lat="42.239272" lon="1.500834">
        <ele>1013.562354</ele>
        <time>2022-05-22T08:52:48.909Z</time>
      </trkpt>
      <trkpt lat="42.239125" lon="1.500849">
        <ele>1013.132630</ele>
        <time>2022-05-22T08:52:50.909Z</time>
      </trkpt>
      <trkpt lat="42.238994" lon="1.500801">
        <ele>1012.651283</ele>
        <time>2022-05-22T08:52:52.910Z</time>
      </trkpt>
      <trkpt lat="42.238888" lon="1.500720">
        <ele>1012.219395</ele>
        <time>2022-05-22T08:52:54.910Z</time>
      </trkpt>
      <trkpt lat="42.238802" lon="1.500608">
        <ele>1011.795748</ele>
        <time>2022-05-22T08:52:56.911Z</time>
      </trkpt>
      <trkpt lat="42.238732" lon="1.500500">
        <ele>1011.418890</ele>
        <time>2022-05-22T08:52:58.920Z</time>
      </trkpt>
      <trkpt lat="42.238678" lon="1.500400">
        <ele>1011.093925</ele>
        <time>2022-05-22T08:53:00.910Z</time>
      </trkpt>
      <trkpt lat="42.238609" lon="1.500262">
        <ele>1010.656724</ele>
        <time>2022-05-22T08:53:03.911Z</time>
      </trkpt>
      <trkpt lat="42.238544" lon="1.500132">
        <ele>1010.244867</ele>
        <time>2022-05-22T08:53:06.909Z</time>
      </trkpt>
      <trkpt lat="42.238492" lon="1.499984">
        <ele>1009.814761</ele>
        <time>2022-05-22T08:53:09.915Z</time>
      </trkpt>
      <trkpt lat="42.238451" lon="1.499821">
        <ele>1009.362784</ele>
        <time>2022-05-22T08:53:12.918Z</time>
      </trkpt>
      <trkpt lat="42.238406" lon="1.499695">
        <ele>1008.995496</ele>
        <time>2022-05-22T08:53:15.914Z</time>
      </trkpt>
      <trkpt lat="42.238363" lon="1.499537">
        <ele>1008.553531</ele>
        <time>2022-05-22T08:53:18.904Z</time>
      </trkpt>
      <trkpt lat="42.238305" lon="1.499401">
        <ele>1008.141462</ele>
        <time>2022-05-22T08:53:21.908Z</time>
      </trkpt>
      <trkpt lat="42.238238" lon="1.499272">
        <ele>1007.727745</ele>
        <time>2022-05-22T08:53:24.910Z</time>
      </trkpt>
      <trkpt lat="42.238191" lon="1.499168">
        <ele>1007.407845</ele>
        <time>2022-05-22T08:53:26.910Z</time>
      </trkpt>
      <trkpt lat="42.238169" lon="1.499009">
        <ele>1007.185864</ele>
        <time>2022-05-22T08:53:29.915Z</time>
      </trkpt>
      <trkpt lat="42.238133" lon="1.498859">
        <ele>1007.146904</ele>
        <time>2022-05-22T08:53:32.908Z</time>
      </trkpt>
      <trkpt lat="42.238069" lon="1.498731">
        <ele>1007.108743</ele>
        <time>2022-05-22T08:53:35.911Z</time>
      </trkpt>
      <trkpt lat="42.237989" lon="1.498611">
        <ele>1007.068845</ele>
        <time>2022-05-22T08:53:38.908Z</time>
      </trkpt>
      <trkpt lat="42.237947" lon="1.498449">
        <ele>1007.026436</ele>
        <time>2022-05-22T08:53:41.902Z</time>
      </trkpt>
      <trkpt lat="42.237894" lon="1.498306">
        <ele>1006.986925</ele>
        <time>2022-05-22T08:53:44.910Z</time>
      </trkpt>
      <trkpt lat="42.237832" lon="1.498171">
        <ele>1006.947674</ele>
        <time>2022-05-22T08:53:47.906Z</time>
      </trkpt>
      <trkpt lat="42.237783" lon="1.498054">
        <ele>1006.914462</ele>
        <time>2022-05-22T08:53:49.906Z</time>
      </trkpt>
      <trkpt lat="42.237717" lon="1.497908">
        <ele>1006.872197</ele>
        <time>2022-05-22T08:53:51.906Z</time>
      </trkpt>
      <trkpt lat="42.237644" lon="1.497752">
        <ele>1006.826600</ele>
        <time>2022-05-22T08:53:53.909Z</time>
      </trkpt>
      <trkpt lat="42.237580" lon="1.497561">
        <ele>1006.774801</ele>
        <time>2022-05-22T08:53:55.907Z</time>
      </trkpt>
      <trkpt lat="42.237522" lon="1.497343">
        <ele>1006.717566</ele>
        <time>2022-05-22T08:53:57.899Z</time>
      </trkpt>
      <trkpt lat="42.237463" lon="1.497145">
        <ele>1006.664832</ele>
        <time>2022-05-22T08:53:59.903Z</time>
      </trkpt>
      <trkpt lat="42.237385" lon="1.496945">
        <ele>1006.608981</ele>
        <time>2022-05-22T08:54:01.907Z</time>
      </trkpt>
      <trkpt lat="42.237340" lon="1.496830">
        <ele>1006.582519</ele>
        <time>2022-05-22T08:54:02.906Z</time>
      </trkpt>
      <trkpt lat="42.237276" lon="1.496707">
        <ele>1006.552441</ele>
        <time>2022-05-22T08:54:03.904Z</time>
      </trkpt>
      <trkpt lat="42.237203" lon="1.496578">
        <ele>1006.519957</ele>
        <time>2022-05-22T08:54:04.911Z</time>
      </trkpt>
      <trkpt lat="42.237135" lon="1.496460">
        <ele>1006.490040</ele>
        <time>2022-05-22T08:54:05.906Z</time>
      </trkpt>
      <trkpt lat="42.237070" lon="1.496339">
        <ele>1006.460130</ele>
        <time>2022-05-22T08:54:06.903Z</time>
      </trkpt>
      <trkpt lat="42.236999" lon="1.496230">
        <ele>1006.431084</ele>
        <time>2022-05-22T08:54:07.902Z</time>
      </trkpt>
      <trkpt lat="42.236927" lon="1.496126">
        <ele>1006.402597</ele>
        <time>2022-05-22T08:54:08.895Z</time>
      </trkpt>
      <trkpt lat="42.236856" lon="1.496021">
        <ele>1006.374147</ele>
        <time>2022-05-22T08:54:09.901Z</time>
      </trkpt>
      <trkpt lat="42.236791" lon="1.495914">
        <ele>1006.346456</ele>
        <time>2022-05-22T08:54:10.902Z</time>
      </trkpt>
      <trkpt lat="42.236729" lon="1.495803">
        <ele>1006.318637</ele>
        <time>2022-05-22T08:54:11.901Z</time>
      </trkpt>
      <trkpt lat="42.236663" lon="1.495708">
        <ele>1006.292573</ele>
        <time>2022-05-22T08:54:12.898Z</time>
      </trkpt>
      <trkpt lat="42.236590" lon="1.495619">
        <ele>1006.265998</ele>
        <time>2022-05-22T08:54:13.901Z</time>
      </trkpt>
      <trkpt lat="42.236524" lon="1.495518">
        <ele>1006.239046</ele>
        <time>2022-05-22T08:54:14.904Z</time>
      </trkpt>
      <trkpt lat="42.236455" lon="1.495406">
        <ele>1006.209895</ele>
        <time>2022-05-22T08:54:15.905Z</time>
      </trkpt>
      <trkpt lat="42.236395" lon="1.495290">
        <ele>1006.181584</ele>
        <time>2022-05-22T08:54:16.906Z</time>
      </trkpt>
      <trkpt lat="42.236334" lon="1.495174">
        <ele>1006.153117</ele>
        <time>2022-05-22T08:54:17.906Z</time>
      </trkpt>
      <trkpt lat="42.236281" lon="1.495061">
        <ele>1006.126354</ele>
        <time>2022-05-22T08:54:18.903Z</time>
      </trkpt>
      <trkpt lat="42.236221" lon="1.494846">
        <ele>1005.897142</ele>
        <time>2022-05-22T08:54:20.904Z</time>
      </trkpt>
      <trkpt lat="42.236206" lon="1.494721">
        <ele>1005.756459</ele>
        <time>2022-05-22T08:54:21.907Z</time>
      </trkpt>
      <trkpt lat="42.236192" lon="1.494601">
        <ele>1005.621498</ele>
        <time>2022-05-22T08:54:22.908Z</time>
      </trkpt>
      <trkpt lat="42.236171" lon="1.494477">
        <ele>1005.480180</ele>
        <time>2022-05-22T08:54:23.911Z</time>
      </trkpt>
      <trkpt lat="42.236149" lon="1.494357">
        <ele>1005.342838</ele>
        <time>2022-05-22T08:54:24.905Z</time>
      </trkpt>
      <trkpt lat="42.236128" lon="1.494233">
        <ele>1005.201520</ele>
        <time>2022-05-22T08:54:25.906Z</time>
      </trkpt>
      <trkpt lat="42.236099" lon="1.494118">
        <ele>1005.066552</ele>
        <time>2022-05-22T08:54:26.908Z</time>
      </trkpt>
      <trkpt lat="42.236061" lon="1.494000">
        <ele>1004.923594</ele>
        <time>2022-05-22T08:54:27.910Z</time>
      </trkpt>
      <trkpt lat="42.236007" lon="1.493891">
        <ele>1004.777889</ele>
        <time>2022-05-22T08:54:28.910Z</time>
      </trkpt>
      <trkpt lat="42.235951" lon="1.493785">
        <ele>1004.633220</ele>
        <time>2022-05-22T08:54:29.909Z</time>
      </trkpt>
      <trkpt lat="42.235888" lon="1.493680">
        <ele>1004.483073</ele>
        <time>2022-05-22T08:54:30.909Z</time>
      </trkpt>
      <trkpt lat="42.235825" lon="1.493576">
        <ele>1004.333787</ele>
        <time>2022-05-22T08:54:31.907Z</time>
      </trkpt>
      <trkpt lat="42.235766" lon="1.493478">
        <ele>1004.193460</ele>
        <time>2022-05-22T08:54:32.909Z</time>
      </trkpt>
      <trkpt lat="42.235707" lon="1.493383">
        <ele>1004.055703</ele>
        <time>2022-05-22T08:54:33.910Z</time>
      </trkpt>
      <trkpt lat="42.235655" lon="1.493280">
        <ele>1003.917201</ele>
        <time>2022-05-22T08:54:34.907Z</time>
      </trkpt>
      <trkpt lat="42.235561" lon="1.493090">
        <ele>1003.663327</ele>
        <time>2022-05-22T08:54:36.902Z</time>
      </trkpt>
      <trkpt lat="42.235479" lon="1.492901">
        <ele>1003.417423</ele>
        <time>2022-05-22T08:54:38.912Z</time>
      </trkpt>
      <trkpt lat="42.235399" lon="1.492724">
        <ele>1002.853660</ele>
        <time>2022-05-22T08:54:40.910Z</time>
      </trkpt>
      <trkpt lat="42.235304" lon="1.492551">
        <ele>1002.268105</ele>
        <time>2022-05-22T08:54:42.912Z</time>
      </trkpt>
      <trkpt lat="42.235225" lon="1.492373">
        <ele>1001.703916</ele>
        <time>2022-05-22T08:54:44.901Z</time>
      </trkpt>
      <trkpt lat="42.235167" lon="1.492191">
        <ele>1001.165246</ele>
        <time>2022-05-22T08:54:46.909Z</time>
      </trkpt>
      <trkpt lat="42.235132" lon="1.491974">
        <ele>1000.561476</ele>
        <time>2022-05-22T08:54:48.910Z</time>
      </trkpt>
      <trkpt lat="42.235117" lon="1.491750">
        <ele>999.950026</ele>
        <time>2022-05-22T08:54:50.910Z</time>
      </trkpt>
      <trkpt lat="42.235125" lon="1.491622">
        <ele>999.600809</ele>
        <time>2022-05-22T08:54:51.910Z</time>
      </trkpt>
      <trkpt lat="42.235139" lon="1.491498">
        <ele>999.259806</ele>
        <time>2022-05-22T08:54:52.912Z</time>
      </trkpt>
      <trkpt lat="42.235159" lon="1.491375">
        <ele>998.917451</ele>
        <time>2022-05-22T08:54:53.913Z</time>
      </trkpt>
      <trkpt lat="42.235171" lon="1.491244">
        <ele>998.558600</ele>
        <time>2022-05-22T08:54:54.915Z</time>
      </trkpt>
      <trkpt lat="42.235181" lon="1.491104">
        <ele>998.176231</ele>
        <time>2022-05-22T08:54:55.911Z</time>
      </trkpt>
      <trkpt lat="42.235188" lon="1.490969">
        <ele>997.808322</ele>
        <time>2022-05-22T08:54:56.910Z</time>
      </trkpt>
      <trkpt lat="42.235187" lon="1.490842">
        <ele>997.463042</ele>
        <time>2022-05-22T08:54:57.914Z</time>
      </trkpt>
      <trkpt lat="42.235175" lon="1.490712">
        <ele>997.106889</ele>
        <time>2022-05-22T08:54:58.909Z</time>
      </trkpt>
      <trkpt lat="42.235138" lon="1.490582">
        <ele>996.729880</ele>
        <time>2022-05-22T08:54:59.912Z</time>
      </trkpt>
      <trkpt lat="42.235092" lon="1.490466">
        <ele>996.378645</ele>
        <time>2022-05-22T08:55:00.931Z</time>
      </trkpt>
      <trkpt lat="42.235046" lon="1.490256">
        <ele>995.794106</ele>
        <time>2022-05-22T08:55:02.919Z</time>
      </trkpt>
      <trkpt lat="42.235004" lon="1.490052">
        <ele>995.228939</ele>
        <time>2022-05-22T08:55:04.923Z</time>
      </trkpt>
      <trkpt lat="42.235011" lon="1.489869">
        <ele>994.739831</ele>
        <time>2022-05-22T08:55:06.929Z</time>
      </trkpt>
      <trkpt lat="42.234997" lon="1.489689">
        <ele>994.256739</ele>
        <time>2022-05-22T08:55:08.940Z</time>
      </trkpt>
      <trkpt lat="42.234949" lon="1.489552">
        <ele>993.852188</ele>
        <time>2022-05-22T08:55:10.950Z</time>
      </trkpt>
      <trkpt lat="42.234874" lon="1.489465">
        <ele>993.495776</ele>
        <time>2022-05-22T08:55:12.912Z</time>
      </trkpt>
      <trkpt lat="42.234773" lon="1.489386">
        <ele>993.075015</ele>
        <time>2022-05-22T08:55:15.902Z</time>
      </trkpt>
      <trkpt lat="42.234663" lon="1.489308">
        <ele>992.627130</ele>
        <time>2022-05-22T08:55:18.903Z</time>
      </trkpt>
      <trkpt lat="42.234570" lon="1.489180">
        <ele>992.148451</ele>
        <time>2022-05-22T08:55:21.924Z</time>
      </trkpt>
      <trkpt lat="42.234493" lon="1.489048">
        <ele>991.699906</ele>
        <time>2022-05-22T08:55:24.936Z</time>
      </trkpt>
      <trkpt lat="42.234421" lon="1.488921">
        <ele>991.272957</ele>
        <time>2022-05-22T08:55:27.911Z</time>
      </trkpt>
      <trkpt lat="42.234364" lon="1.488787">
        <ele>990.860461</ele>
        <time>2022-05-22T08:55:30.922Z</time>
      </trkpt>
      <trkpt lat="42.234352" lon="1.488666">
        <ele>990.534605</ele>
        <time>2022-05-22T08:55:32.911Z</time>
      </trkpt>
      <trkpt lat="42.234344" lon="1.488512">
        <ele>990.427217</ele>
        <time>2022-05-22T08:55:35.910Z</time>
      </trkpt>
      <trkpt lat="42.234255" lon="1.488399">
        <ele>990.623726</ele>
        <time>2022-05-22T08:55:39.911Z</time>
      </trkpt>
      <trkpt lat="42.234183" lon="1.488287">
        <ele>990.800398</ele>
        <time>2022-05-22T08:55:42.908Z</time>
      </trkpt>
      <trkpt lat="42.234121" lon="1.488180">
        <ele>990.962236</ele>
        <time>2022-05-22T08:55:45.914Z</time>
      </trkpt>
      <trkpt lat="42.234064" lon="1.488081">
        <ele>991.111614</ele>
        <time>2022-05-22T08:55:48.911Z</time>
      </trkpt>
      <trkpt lat="42.234007" lon="1.487980">
        <ele>991.262879</ele>
        <time>2022-05-22T08:55:51.907Z</time>
      </trkpt>
      <trkpt lat="42.233934" lon="1.487898">
        <ele>991.415625</ele>
        <time>2022-05-22T08:55:54.906Z</time>
      </trkpt>
      <trkpt lat="42.233839" lon="1.487834">
        <ele>991.586412</ele>
        <time>2022-05-22T08:55:57.911Z</time>
      </trkpt>
      <trkpt lat="42.233779" lon="1.487696">
        <ele>991.777031</ele>
        <time>2022-05-22T08:56:01.904Z</time>
      </trkpt>
      <trkpt lat="42.233711" lon="1.487586">
        <ele>991.947718</ele>
        <time>2022-05-22T08:56:05.907Z</time>
      </trkpt>
      <trkpt lat="42.233721" lon="1.487421">
        <ele>992.144911</ele>
        <time>2022-05-22T08:56:08.904Z</time>
      </trkpt>
      <trkpt lat="42.233764" lon="1.487266">
        <ele>992.342068</ele>
        <time>2022-05-22T08:56:11.907Z</time>
      </trkpt>
      <trkpt lat="42.233774" lon="1.487126">
        <ele>992.509599</ele>
        <time>2022-05-22T08:56:15.907Z</time>
      </trkpt>
      <trkpt lat="42.233815" lon="1.486988">
        <ele>992.686713</ele>
        <time>2022-05-22T08:56:19.902Z</time>
      </trkpt>
      <trkpt lat="42.233866" lon="1.486856">
        <ele>992.864060</ele>
        <time>2022-05-22T08:56:22.911Z</time>
      </trkpt>
      <trkpt lat="42.233885" lon="1.486708">
        <ele>993.042976</ele>
        <time>2022-05-22T08:56:25.910Z</time>
      </trkpt>
      <trkpt lat="42.233846" lon="1.486562">
        <ele>993.228424</ele>
        <time>2022-05-22T08:56:28.906Z</time>
      </trkpt>
      <trkpt lat="42.233852" lon="1.486439">
        <ele>993.451238</ele>
        <time>2022-05-22T08:56:31.913Z</time>
      </trkpt>
      <trkpt lat="42.233890" lon="1.486313">
        <ele>993.697163</ele>
        <time>2022-05-22T08:56:34.910Z</time>
      </trkpt>
      <trkpt lat="42.233877" lon="1.486149">
        <ele>993.995300</ele>
        <time>2022-05-22T08:56:37.911Z</time>
      </trkpt>
      <trkpt lat="42.233883" lon="1.486005">
        <ele>994.256003</ele>
        <time>2022-05-22T08:56:40.907Z</time>
      </trkpt>
      <trkpt lat="42.233892" lon="1.485855">
        <ele>994.528029</ele>
        <time>2022-05-22T08:56:43.908Z</time>
      </trkpt>
      <trkpt lat="42.233886" lon="1.485689">
        <ele>994.828445</ele>
        <time>2022-05-22T08:56:46.909Z</time>
      </trkpt>
      <trkpt lat="42.233879" lon="1.485538">
        <ele>995.101924</ele>
        <time>2022-05-22T08:56:49.903Z</time>
      </trkpt>
      <trkpt lat="42.233899" lon="1.485382">
        <ele>995.388103</ele>
        <time>2022-05-22T08:56:52.908Z</time>
      </trkpt>
      <trkpt lat="42.233935" lon="1.485223">
        <ele>995.688646</ele>
        <time>2022-05-22T08:56:55.911Z</time>
      </trkpt>
      <trkpt lat="42.233946" lon="1.485073">
        <ele>995.961110</ele>
        <time>2022-05-22T08:56:58.904Z</time>
      </trkpt>
      <trkpt lat="42.233934" lon="1.484948">
        <ele>996.188948</ele>
        <time>2022-05-22T08:57:00.905Z</time>
      </trkpt>
      <trkpt lat="42.233934" lon="1.484767">
        <ele>996.516120</ele>
        <time>2022-05-22T08:57:03.906Z</time>
      </trkpt>
      <trkpt lat="42.233951" lon="1.484599">
        <ele>996.822617</ele>
        <time>2022-05-22T08:57:06.905Z</time>
      </trkpt>
      <trkpt lat="42.233961" lon="1.484439">
        <ele>997.112858</ele>
        <time>2022-05-22T08:57:09.904Z</time>
      </trkpt>
      <trkpt lat="42.233946" lon="1.484278">
        <ele>997.406173</ele>
        <time>2022-05-22T08:57:12.904Z</time>
      </trkpt>
      <trkpt lat="42.233935" lon="1.484126">
        <ele>997.702512</ele>
        <time>2022-05-22T08:57:15.909Z</time>
      </trkpt>
      <trkpt lat="42.233901" lon="1.483950">
        <ele>998.134817</ele>
        <time>2022-05-22T08:57:18.915Z</time>
      </trkpt>
      <trkpt lat="42.233851" lon="1.483847">
        <ele>998.427543</ele>
        <time>2022-05-22T08:57:20.907Z</time>
      </trkpt>
      <trkpt lat="42.233804" lon="1.483709">
        <ele>998.788566</ele>
        <time>2022-05-22T08:57:23.909Z</time>
      </trkpt>
      <trkpt lat="42.233785" lon="1.483551">
        <ele>999.169008</ele>
        <time>2022-05-22T08:57:26.908Z</time>
      </trkpt>
      <trkpt lat="42.233776" lon="1.483385">
        <ele>999.564600</ele>
        <time>2022-05-22T08:57:29.911Z</time>
      </trkpt>
      <trkpt lat="42.233768" lon="1.483248">
        <ele>999.891221</ele>
        <time>2022-05-22T08:57:32.906Z</time>
      </trkpt>
      <trkpt lat="42.233752" lon="1.483089">
        <ele>1000.272594</ele>
        <time>2022-05-22T08:57:35.909Z</time>
      </trkpt>
      <trkpt lat="42.233731" lon="1.482964">
        <ele>1000.577236</ele>
        <time>2022-05-22T08:57:37.926Z</time>
      </trkpt>
      <trkpt lat="42.233718" lon="1.482839">
        <ele>1000.877242</ele>
        <time>2022-05-22T08:57:39.906Z</time>
      </trkpt>
      <trkpt lat="42.233706" lon="1.482717">
        <ele>1001.169750</ele>
        <time>2022-05-22T08:57:41.907Z</time>
      </trkpt>
      <trkpt lat="42.233700" lon="1.482591">
        <ele>1001.469836</ele>
        <time>2022-05-22T08:57:43.907Z</time>
      </trkpt>
      <trkpt lat="42.233706" lon="1.482467">
        <ele>1001.765178</ele>
        <time>2022-05-22T08:57:45.921Z</time>
      </trkpt>
      <trkpt lat="42.233726" lon="1.482349">
        <ele>1002.052886</ele>
        <time>2022-05-22T08:57:47.911Z</time>
      </trkpt>
      <trkpt lat="42.233743" lon="1.482198">
        <ele>1002.415896</ele>
        <time>2022-05-22T08:57:49.911Z</time>
      </trkpt>
      <trkpt lat="42.233770" lon="1.482041">
        <ele>1002.798974</ele>
        <time>2022-05-22T08:57:51.908Z</time>
      </trkpt>
      <trkpt lat="42.233806" lon="1.481886">
        <ele>1003.185065</ele>
        <time>2022-05-22T08:57:53.908Z</time>
      </trkpt>
      <trkpt lat="42.233852" lon="1.481741">
        <ele>1003.491674</ele>
        <time>2022-05-22T08:57:55.908Z</time>
      </trkpt>
      <trkpt lat="42.233894" lon="1.481595">
        <ele>1003.713005</ele>
        <time>2022-05-22T08:57:57.911Z</time>
      </trkpt>
      <trkpt lat="42.233949" lon="1.481454">
        <ele>1003.938206</ele>
        <time>2022-05-22T08:57:59.904Z</time>
      </trkpt>
      <trkpt lat="42.233991" lon="1.481325">
        <ele>1004.137336</ele>
        <time>2022-05-22T08:58:01.906Z</time>
      </trkpt>
      <trkpt lat="42.234004" lon="1.481195">
        <ele>1004.322701</ele>
        <time>2022-05-22T08:58:03.904Z</time>
      </trkpt>
      <trkpt lat="42.233944" lon="1.481071">
        <ele>1004.532020</ele>
        <time>2022-05-22T08:58:05.910Z</time>
      </trkpt>
      <trkpt lat="42.233857" lon="1.480987">
        <ele>1004.736122</ele>
        <time>2022-05-22T08:58:07.904Z</time>
      </trkpt>
      <trkpt lat="42.233761" lon="1.480936">
        <ele>1004.933001</ele>
        <time>2022-05-22T08:58:09.904Z</time>
      </trkpt>
      <trkpt lat="42.233617" lon="1.480905">
        <ele>1005.211293</ele>
        <time>2022-05-22T08:58:11.917Z</time>
      </trkpt>
      <trkpt lat="42.233522" lon="1.480877">
        <ele>1005.396867</ele>
        <time>2022-05-22T08:58:12.905Z</time>
      </trkpt>
      <trkpt lat="42.233433" lon="1.480851">
        <ele>1005.570650</ele>
        <time>2022-05-22T08:58:13.906Z</time>
      </trkpt>
      <trkpt lat="42.233338" lon="1.480823">
        <ele>1005.756224</ele>
        <time>2022-05-22T08:58:14.906Z</time>
      </trkpt>
      <trkpt lat="42.233247" lon="1.480791">
        <ele>1005.935687</ele>
        <time>2022-05-22T08:58:15.909Z</time>
      </trkpt>
      <trkpt lat="42.233084" lon="1.480697">
        <ele>1006.273942</ele>
        <time>2022-05-22T08:58:17.909Z</time>
      </trkpt>
      <trkpt lat="42.233000" lon="1.480633">
        <ele>1006.458005</ele>
        <time>2022-05-22T08:58:18.908Z</time>
      </trkpt>
      <trkpt lat="42.232931" lon="1.480556">
        <ele>1006.628828</ele>
        <time>2022-05-22T08:58:19.909Z</time>
      </trkpt>
      <trkpt lat="42.232817" lon="1.480376">
        <ele>1006.691741</ele>
        <time>2022-05-22T08:58:21.907Z</time>
      </trkpt>
      <trkpt lat="42.232724" lon="1.480168">
        <ele>1006.365382</ele>
        <time>2022-05-22T08:58:23.908Z</time>
      </trkpt>
      <trkpt lat="42.232662" lon="1.480060">
        <ele>1006.181830</ele>
        <time>2022-05-22T08:58:24.908Z</time>
      </trkpt>
      <trkpt lat="42.232601" lon="1.479947">
        <ele>1005.994000</ele>
        <time>2022-05-22T08:58:25.908Z</time>
      </trkpt>
      <trkpt lat="42.232539" lon="1.479829">
        <ele>1005.799658</ele>
        <time>2022-05-22T08:58:26.911Z</time>
      </trkpt>
      <trkpt lat="42.232500" lon="1.479716">
        <ele>1005.632205</ele>
        <time>2022-05-22T08:58:27.911Z</time>
      </trkpt>
      <trkpt lat="42.232409" lon="1.479504">
        <ele>1005.303068</ele>
        <time>2022-05-22T08:58:29.907Z</time>
      </trkpt>
      <trkpt lat="42.232406" lon="1.479338">
        <ele>1005.080040</ele>
        <time>2022-05-22T08:58:31.922Z</time>
      </trkpt>
      <trkpt lat="42.232463" lon="1.479239">
        <ele>1004.911598</ele>
        <time>2022-05-22T08:58:33.917Z</time>
      </trkpt>
      <trkpt lat="42.232594" lon="1.479163">
        <ele>1004.652964</ele>
        <time>2022-05-22T08:58:35.908Z</time>
      </trkpt>
      <trkpt lat="42.232604" lon="1.478996">
        <ele>1004.427928</ele>
        <time>2022-05-22T08:58:38.904Z</time>
      </trkpt>
      <trkpt lat="42.232578" lon="1.478868">
        <ele>1004.249653</ele>
        <time>2022-05-22T08:58:40.907Z</time>
      </trkpt>
      <trkpt lat="42.232536" lon="1.478719">
        <ele>1004.035513</ele>
        <time>2022-05-22T08:58:42.908Z</time>
      </trkpt>
      <trkpt lat="42.232491" lon="1.478566">
        <ele>1003.814393</ele>
        <time>2022-05-22T08:58:44.908Z</time>
      </trkpt>
      <trkpt lat="42.232423" lon="1.478416">
        <ele>1003.578158</ele>
        <time>2022-05-22T08:58:46.906Z</time>
      </trkpt>
      <trkpt lat="42.232376" lon="1.478224">
        <ele>1003.587959</ele>
        <time>2022-05-22T08:58:48.908Z</time>
      </trkpt>
      <trkpt lat="42.232315" lon="1.478028">
        <ele>1003.617697</ele>
        <time>2022-05-22T08:58:50.911Z</time>
      </trkpt>
      <trkpt lat="42.232266" lon="1.477826">
        <ele>1003.647429</ele>
        <time>2022-05-22T08:58:52.908Z</time>
      </trkpt>
      <trkpt lat="42.232285" lon="1.477617">
        <ele>1003.676882</ele>
        <time>2022-05-22T08:58:54.912Z</time>
      </trkpt>
      <trkpt lat="42.232343" lon="1.477426">
        <ele>1003.705757</ele>
        <time>2022-05-22T08:58:56.909Z</time>
      </trkpt>
      <trkpt lat="42.232426" lon="1.477246">
        <ele>1003.735418</ele>
        <time>2022-05-22T08:58:58.910Z</time>
      </trkpt>
      <trkpt lat="42.232537" lon="1.477083">
        <ele>1003.766394</ele>
        <time>2022-05-22T08:59:00.904Z</time>
      </trkpt>
      <trkpt lat="42.232677" lon="1.476931">
        <ele>1003.800327</ele>
        <time>2022-05-22T08:59:02.903Z</time>
      </trkpt>
      <trkpt lat="42.232751" lon="1.476852">
        <ele>1003.818146</ele>
        <time>2022-05-22T08:59:03.905Z</time>
      </trkpt>
      <trkpt lat="42.232836" lon="1.476781">
        <ele>1003.837026</ele>
        <time>2022-05-22T08:59:04.902Z</time>
      </trkpt>
      <trkpt lat="42.232981" lon="1.476657">
        <ele>1003.869447</ele>
        <time>2022-05-22T08:59:06.903Z</time>
      </trkpt>
      <trkpt lat="42.233056" lon="1.476588">
        <ele>1003.886590</ele>
        <time>2022-05-22T08:59:07.904Z</time>
      </trkpt>
      <trkpt lat="42.233132" lon="1.476519">
        <ele>1003.899973</ele>
        <time>2022-05-22T08:59:08.910Z</time>
      </trkpt>
      <trkpt lat="42.233287" lon="1.476392">
        <ele>1003.884406</ele>
        <time>2022-05-22T08:59:10.903Z</time>
      </trkpt>
      <trkpt lat="42.233366" lon="1.476323">
        <ele>1003.876328</ele>
        <time>2022-05-22T08:59:11.900Z</time>
      </trkpt>
      <trkpt lat="42.233449" lon="1.476262">
        <ele>1003.868214</ele>
        <time>2022-05-22T08:59:12.906Z</time>
      </trkpt>
      <trkpt lat="42.233535" lon="1.476199">
        <ele>1003.859814</ele>
        <time>2022-05-22T08:59:13.900Z</time>
      </trkpt>
      <trkpt lat="42.233621" lon="1.476136">
        <ele>1003.851413</ele>
        <time>2022-05-22T08:59:14.904Z</time>
      </trkpt>
      <trkpt lat="42.233703" lon="1.476072">
        <ele>1003.843281</ele>
        <time>2022-05-22T08:59:15.902Z</time>
      </trkpt>
      <trkpt lat="42.233856" lon="1.475964">
        <ele>1003.828458</ele>
        <time>2022-05-22T08:59:17.907Z</time>
      </trkpt>
      <trkpt lat="42.233977" lon="1.475835">
        <ele>1003.815221</ele>
        <time>2022-05-22T08:59:19.909Z</time>
      </trkpt>
      <trkpt lat="42.234057" lon="1.475689">
        <ele>1003.803674</ele>
        <time>2022-05-22T08:59:21.910Z</time>
      </trkpt>
      <trkpt lat="42.234094" lon="1.475562">
        <ele>1003.794998</ele>
        <time>2022-05-22T08:59:23.905Z</time>
      </trkpt>
      <trkpt lat="42.234154" lon="1.475450">
        <ele>1003.786209</ele>
        <time>2022-05-22T08:59:25.907Z</time>
      </trkpt>
      <trkpt lat="42.234129" lon="1.475301">
        <ele>1003.776496</ele>
        <time>2022-05-22T08:59:28.905Z</time>
      </trkpt>
      <trkpt lat="42.234093" lon="1.475154">
        <ele>1003.766653</ele>
        <time>2022-05-22T08:59:30.910Z</time>
      </trkpt>
      <trkpt lat="42.234036" lon="1.475032">
        <ele>1003.757481</ele>
        <time>2022-05-22T08:59:31.904Z</time>
      </trkpt>
      <trkpt lat="42.233976" lon="1.474876">
        <ele>1003.728725</ele>
        <time>2022-05-22T08:59:32.905Z</time>
      </trkpt>
      <trkpt lat="42.233926" lon="1.474707">
        <ele>1003.266570</ele>
        <time>2022-05-22T08:59:33.906Z</time>
      </trkpt>
      <trkpt lat="42.233888" lon="1.474545">
        <ele>1002.835032</ele>
        <time>2022-05-22T08:59:34.900Z</time>
      </trkpt>
      <trkpt lat="42.233855" lon="1.474398">
        <ele>1002.444956</ele>
        <time>2022-05-22T08:59:35.899Z</time>
      </trkpt>
      <trkpt lat="42.233823" lon="1.474260">
        <ele>1002.077731</ele>
        <time>2022-05-22T08:59:36.908Z</time>
      </trkpt>
      <trkpt lat="42.233799" lon="1.474121">
        <ele>1001.715280</ele>
        <time>2022-05-22T08:59:37.904Z</time>
      </trkpt>
      <trkpt lat="42.233760" lon="1.473985">
        <ele>1001.344919</ele>
        <time>2022-05-22T08:59:38.903Z</time>
      </trkpt>
      <trkpt lat="42.233734" lon="1.473857">
        <ele>1001.007862</ele>
        <time>2022-05-22T08:59:39.904Z</time>
      </trkpt>
      <trkpt lat="42.233707" lon="1.473608">
        <ele>1000.368800</ele>
        <time>2022-05-22T08:59:41.903Z</time>
      </trkpt>
      <trkpt lat="42.233702" lon="1.473479">
        <ele>1000.040765</ele>
        <time>2022-05-22T08:59:42.907Z</time>
      </trkpt>
      <trkpt lat="42.233700" lon="1.473349">
        <ele>999.710568</ele>
        <time>2022-05-22T08:59:43.911Z</time>
      </trkpt>
      <trkpt lat="42.233728" lon="1.473218">
        <ele>999.364318</ele>
        <time>2022-05-22T08:59:44.909Z</time>
      </trkpt>
      <trkpt lat="42.233776" lon="1.473070">
        <ele>998.954008</ele>
        <time>2022-05-22T08:59:45.907Z</time>
      </trkpt>
      <trkpt lat="42.233815" lon="1.472909">
        <ele>998.523836</ele>
        <time>2022-05-22T08:59:46.910Z</time>
      </trkpt>
      <trkpt lat="42.233852" lon="1.472743">
        <ele>998.083604</ele>
        <time>2022-05-22T08:59:47.911Z</time>
      </trkpt>
      <trkpt lat="42.233901" lon="1.472579">
        <ele>997.634509</ele>
        <time>2022-05-22T08:59:48.912Z</time>
      </trkpt>
      <trkpt lat="42.233954" lon="1.472431">
        <ele>997.169621</ele>
        <time>2022-05-22T08:59:49.911Z</time>
      </trkpt>
      <trkpt lat="42.233997" lon="1.472269">
        <ele>996.675186</ele>
        <time>2022-05-22T08:59:50.908Z</time>
      </trkpt>
      <trkpt lat="42.234041" lon="1.472104">
        <ele>996.171327</ele>
        <time>2022-05-22T08:59:51.910Z</time>
      </trkpt>
      <trkpt lat="42.234088" lon="1.471937">
        <ele>995.658038</ele>
        <time>2022-05-22T08:59:52.909Z</time>
      </trkpt>
      <trkpt lat="42.234132" lon="1.471762">
        <ele>995.127060</ele>
        <time>2022-05-22T08:59:53.908Z</time>
      </trkpt>
      <trkpt lat="42.234175" lon="1.471586">
        <ele>994.594590</ele>
        <time>2022-05-22T08:59:54.910Z</time>
      </trkpt>
      <trkpt lat="42.234206" lon="1.471409">
        <ele>994.072031</ele>
        <time>2022-05-22T08:59:55.910Z</time>
      </trkpt>
      <trkpt lat="42.234242" lon="1.471229">
        <ele>993.536352</ele>
        <time>2022-05-22T08:59:56.906Z</time>
      </trkpt>
      <trkpt lat="42.234285" lon="1.471047">
        <ele>992.987486</ele>
        <time>2022-05-22T08:59:57.910Z</time>
      </trkpt>
      <trkpt lat="42.234319" lon="1.470869">
        <ele>992.459345</ele>
        <time>2022-05-22T08:59:58.910Z</time>
      </trkpt>
      <trkpt lat="42.234343" lon="1.470706">
        <ele>991.981874</ele>
        <time>2022-05-22T08:59:59.910Z</time>
      </trkpt>
      <trkpt lat="42.234349" lon="1.470540">
        <ele>991.504385</ele>
        <time>2022-05-22T09:00:00.911Z</time>
      </trkpt>
      <trkpt lat="42.234366" lon="1.470387">
        <ele>991.059892</ele>
        <time>2022-05-22T09:00:01.908Z</time>
      </trkpt>
      <trkpt lat="42.234375" lon="1.470244">
        <ele>990.647569</ele>
        <time>2022-05-22T09:00:02.908Z</time>
      </trkpt>
      <trkpt lat="42.234370" lon="1.470093">
        <ele>990.360414</ele>
        <time>2022-05-22T09:00:03.905Z</time>
      </trkpt>
      <trkpt lat="42.234359" lon="1.469932">
        <ele>990.073303</ele>
        <time>2022-05-22T09:00:04.905Z</time>
      </trkpt>
      <trkpt lat="42.234333" lon="1.469765">
        <ele>989.770268</ele>
        <time>2022-05-22T09:00:05.905Z</time>
      </trkpt>
      <trkpt lat="42.234315" lon="1.469604">
        <ele>989.481131</ele>
        <time>2022-05-22T09:00:06.903Z</time>
      </trkpt>
      <trkpt lat="42.234311" lon="1.469437">
        <ele>989.184425</ele>
        <time>2022-05-22T09:00:07.901Z</time>
      </trkpt>
      <trkpt lat="42.234315" lon="1.469271">
        <ele>988.889494</ele>
        <time>2022-05-22T09:00:08.902Z</time>
      </trkpt>
      <trkpt lat="42.234331" lon="1.469109">
        <ele>988.599275</ele>
        <time>2022-05-22T09:00:09.902Z</time>
      </trkpt>
      <trkpt lat="42.234347" lon="1.468934">
        <ele>988.286158</ele>
        <time>2022-05-22T09:00:10.911Z</time>
      </trkpt>
      <trkpt lat="42.234378" lon="1.468781">
        <ele>988.004479</ele>
        <time>2022-05-22T09:00:11.909Z</time>
      </trkpt>
      <trkpt lat="42.234423" lon="1.468633">
        <ele>987.720370</ele>
        <time>2022-05-22T09:00:12.904Z</time>
      </trkpt>
      <trkpt lat="42.234473" lon="1.468498">
        <ele>987.452324</ele>
        <time>2022-05-22T09:00:13.902Z</time>
      </trkpt>
      <trkpt lat="42.234525" lon="1.468372">
        <ele>987.196169</ele>
        <time>2022-05-22T09:00:14.906Z</time>
      </trkpt>
      <trkpt lat="42.234596" lon="1.468246">
        <ele>986.914997</ele>
        <time>2022-05-22T09:00:15.906Z</time>
      </trkpt>
      <trkpt lat="42.234645" lon="1.468130">
        <ele>986.677845</ele>
        <time>2022-05-22T09:00:16.903Z</time>
      </trkpt>
      <trkpt lat="42.234717" lon="1.467926">
        <ele>986.275554</ele>
        <time>2022-05-22T09:00:18.908Z</time>
      </trkpt>
      <trkpt lat="42.234766" lon="1.467717">
        <ele>985.839092</ele>
        <time>2022-05-22T09:00:20.912Z</time>
      </trkpt>
      <trkpt lat="42.234794" lon="1.467487">
        <ele>985.375034</ele>
        <time>2022-05-22T09:00:22.907Z</time>
      </trkpt>
      <trkpt lat="42.234802" lon="1.467363">
        <ele>985.127226</ele>
        <time>2022-05-22T09:00:23.907Z</time>
      </trkpt>
      <trkpt lat="42.234812" lon="1.467241">
        <ele>984.882852</ele>
        <time>2022-05-22T09:00:24.907Z</time>
      </trkpt>
      <trkpt lat="42.234826" lon="1.467007">
        <ele>984.415461</ele>
        <time>2022-05-22T09:00:26.909Z</time>
      </trkpt>
      <trkpt lat="42.234846" lon="1.466785">
        <ele>983.970220</ele>
        <time>2022-05-22T09:00:28.910Z</time>
      </trkpt>
      <trkpt lat="42.234880" lon="1.466598">
        <ele>983.586860</ele>
        <time>2022-05-22T09:00:30.904Z</time>
      </trkpt>
      <trkpt lat="42.234919" lon="1.466419">
        <ele>983.215378</ele>
        <time>2022-05-22T09:00:32.908Z</time>
      </trkpt>
      <trkpt lat="42.234960" lon="1.466244">
        <ele>982.849943</ele>
        <time>2022-05-22T09:00:34.906Z</time>
      </trkpt>
      <trkpt lat="42.235012" lon="1.466081">
        <ele>982.496584</ele>
        <time>2022-05-22T09:00:36.902Z</time>
      </trkpt>
      <trkpt lat="42.235086" lon="1.465923">
        <ele>982.124369</ele>
        <time>2022-05-22T09:00:38.905Z</time>
      </trkpt>
      <trkpt lat="42.235182" lon="1.465773">
        <ele>981.729630</ele>
        <time>2022-05-22T09:00:40.903Z</time>
      </trkpt>
      <trkpt lat="42.235253" lon="1.465642">
        <ele>981.419177</ele>
        <time>2022-05-22T09:00:42.904Z</time>
      </trkpt>
      <trkpt lat="42.235301" lon="1.465511">
        <ele>981.217117</ele>
        <time>2022-05-22T09:00:44.906Z</time>
      </trkpt>
      <trkpt lat="42.235342" lon="1.465373">
        <ele>981.011557</ele>
        <time>2022-05-22T09:00:46.910Z</time>
      </trkpt>
      <trkpt lat="42.235377" lon="1.465221">
        <ele>980.791502</ele>
        <time>2022-05-22T09:00:48.906Z</time>
      </trkpt>
      <trkpt lat="42.235408" lon="1.465106">
        <ele>980.622316</ele>
        <time>2022-05-22T09:00:50.910Z</time>
      </trkpt>
      <trkpt lat="42.235412" lon="1.464977">
        <ele>980.443828</ele>
        <time>2022-05-22T09:00:52.908Z</time>
      </trkpt>
      <trkpt lat="42.235434" lon="1.464842">
        <ele>980.252735</ele>
        <time>2022-05-22T09:00:54.906Z</time>
      </trkpt>
      <trkpt lat="42.235483" lon="1.464695">
        <ele>980.029875</ele>
        <time>2022-05-22T09:00:56.906Z</time>
      </trkpt>
      <trkpt lat="42.235543" lon="1.464542">
        <ele>979.790529</ele>
        <time>2022-05-22T09:00:58.906Z</time>
      </trkpt>
      <trkpt lat="42.235611" lon="1.464406">
        <ele>979.563665</ele>
        <time>2022-05-22T09:01:00.911Z</time>
      </trkpt>
      <trkpt lat="42.235668" lon="1.464273">
        <ele>979.351224</ele>
        <time>2022-05-22T09:01:02.908Z</time>
      </trkpt>
      <trkpt lat="42.235755" lon="1.464155">
        <ele>979.121014</ele>
        <time>2022-05-22T09:01:04.911Z</time>
      </trkpt>
      <trkpt lat="42.235842" lon="1.464050">
        <ele>978.903168</ele>
        <time>2022-05-22T09:01:06.902Z</time>
      </trkpt>
      <trkpt lat="42.235909" lon="1.463925">
        <ele>978.689839</ele>
        <time>2022-05-22T09:01:08.905Z</time>
      </trkpt>
      <trkpt lat="42.235974" lon="1.463803">
        <ele>978.482057</ele>
        <time>2022-05-22T09:01:10.905Z</time>
      </trkpt>
      <trkpt lat="42.236057" lon="1.463686">
        <ele>978.258055</ele>
        <time>2022-05-22T09:01:12.901Z</time>
      </trkpt>
      <trkpt lat="42.236157" lon="1.463554">
        <ele>978.003678</ele>
        <time>2022-05-22T09:01:14.904Z</time>
      </trkpt>
      <trkpt lat="42.236242" lon="1.463393">
        <ele>977.750033</ele>
        <time>2022-05-22T09:01:16.904Z</time>
      </trkpt>
      <trkpt lat="42.236354" lon="1.463236">
        <ele>977.470376</ele>
        <time>2022-05-22T09:01:18.906Z</time>
      </trkpt>
      <trkpt lat="42.236424" lon="1.463159">
        <ele>977.313970</ele>
        <time>2022-05-22T09:01:19.904Z</time>
      </trkpt>
      <trkpt lat="42.236499" lon="1.463088">
        <ele>977.155294</ele>
        <time>2022-05-22T09:01:20.900Z</time>
      </trkpt>
      <trkpt lat="42.236580" lon="1.463011">
        <ele>976.983688</ele>
        <time>2022-05-22T09:01:21.907Z</time>
      </trkpt>
      <trkpt lat="42.236711" lon="1.462863">
        <ele>976.687801</ele>
        <time>2022-05-22T09:01:23.908Z</time>
      </trkpt>
      <trkpt lat="42.236781" lon="1.462787">
        <ele>976.532202</ele>
        <time>2022-05-22T09:01:24.906Z</time>
      </trkpt>
      <trkpt lat="42.236889" lon="1.462601">
        <ele>976.228999</ele>
        <time>2022-05-22T09:01:26.913Z</time>
      </trkpt>
      <trkpt lat="42.236941" lon="1.462387">
        <ele>975.940096</ele>
        <time>2022-05-22T09:01:28.912Z</time>
      </trkpt>
      <trkpt lat="42.236968" lon="1.462145">
        <ele>975.626178</ele>
        <time>2022-05-22T09:01:30.908Z</time>
      </trkpt>
      <trkpt lat="42.236976" lon="1.462013">
        <ele>975.456296</ele>
        <time>2022-05-22T09:01:31.908Z</time>
      </trkpt>
      <trkpt lat="42.236987" lon="1.461889">
        <ele>975.296104</ele>
        <time>2022-05-22T09:01:32.903Z</time>
      </trkpt>
      <trkpt lat="42.236983" lon="1.461760">
        <ele>975.130491</ele>
        <time>2022-05-22T09:01:33.910Z</time>
      </trkpt>
      <trkpt lat="42.236954" lon="1.461536">
        <ele>974.714870</ele>
        <time>2022-05-22T09:01:35.907Z</time>
      </trkpt>
      <trkpt lat="42.236910" lon="1.461327">
        <ele>974.180069</ele>
        <time>2022-05-22T09:01:37.922Z</time>
      </trkpt>
      <trkpt lat="42.236848" lon="1.461143">
        <ele>973.682496</ele>
        <time>2022-05-22T09:01:39.906Z</time>
      </trkpt>
      <trkpt lat="42.236781" lon="1.460992">
        <ele>973.249209</ele>
        <time>2022-05-22T09:01:41.905Z</time>
      </trkpt>
      <trkpt lat="42.236736" lon="1.460834">
        <ele>972.832543</ele>
        <time>2022-05-22T09:01:43.907Z</time>
      </trkpt>
      <trkpt lat="42.236774" lon="1.460614">
        <ele>972.276518</ele>
        <time>2022-05-22T09:01:45.904Z</time>
      </trkpt>
      <trkpt lat="42.236815" lon="1.460499">
        <ele>971.962362</ele>
        <time>2022-05-22T09:01:46.905Z</time>
      </trkpt>
      <trkpt lat="42.236858" lon="1.460378">
        <ele>971.632016</ele>
        <time>2022-05-22T09:01:47.903Z</time>
      </trkpt>
      <trkpt lat="42.236911" lon="1.460267">
        <ele>971.306925</ele>
        <time>2022-05-22T09:01:48.907Z</time>
      </trkpt>
      <trkpt lat="42.236963" lon="1.460158">
        <ele>970.987774</ele>
        <time>2022-05-22T09:01:49.904Z</time>
      </trkpt>
      <trkpt lat="42.237026" lon="1.460055">
        <ele>970.658940</ele>
        <time>2022-05-22T09:01:50.910Z</time>
      </trkpt>
      <trkpt lat="42.237084" lon="1.459935">
        <ele>970.306220</ele>
        <time>2022-05-22T09:01:51.908Z</time>
      </trkpt>
      <trkpt lat="42.237121" lon="1.459808">
        <ele>969.970307</ele>
        <time>2022-05-22T09:01:52.908Z</time>
      </trkpt>
      <trkpt lat="42.237164" lon="1.459671">
        <ele>969.604063</ele>
        <time>2022-05-22T09:01:53.908Z</time>
      </trkpt>
      <trkpt lat="42.237197" lon="1.459544">
        <ele>969.272789</ele>
        <time>2022-05-22T09:01:54.910Z</time>
      </trkpt>
      <trkpt lat="42.237206" lon="1.459401">
        <ele>968.987950</ele>
        <time>2022-05-22T09:01:55.910Z</time>
      </trkpt>
      <trkpt lat="42.237212" lon="1.459259">
        <ele>968.958225</ele>
        <time>2022-05-22T09:01:56.908Z</time>
      </trkpt>
      <trkpt lat="42.237226" lon="1.459118">
        <ele>968.928492</ele>
        <time>2022-05-22T09:01:57.906Z</time>
      </trkpt>
      <trkpt lat="42.237246" lon="1.458988">
        <ele>968.900742</ele>
        <time>2022-05-22T09:01:58.904Z</time>
      </trkpt>
      <trkpt lat="42.237240" lon="1.458851">
        <ele>968.872060</ele>
        <time>2022-05-22T09:01:59.913Z</time>
      </trkpt>
      <trkpt lat="42.237218" lon="1.458698">
        <ele>968.839486</ele>
        <time>2022-05-22T09:02:00.908Z</time>
      </trkpt>
      <trkpt lat="42.237200" lon="1.458538">
        <ele>968.805663</ele>
        <time>2022-05-22T09:02:01.907Z</time>
      </trkpt>
      <trkpt lat="42.237185" lon="1.458370">
        <ele>968.770297</ele>
        <time>2022-05-22T09:02:02.910Z</time>
      </trkpt>
      <trkpt lat="42.237170" lon="1.458211">
        <ele>968.736798</ele>
        <time>2022-05-22T09:02:03.907Z</time>
      </trkpt>
      <trkpt lat="42.237151" lon="1.458037">
        <ele>968.700039</ele>
        <time>2022-05-22T09:02:04.911Z</time>
      </trkpt>
      <trkpt lat="42.237134" lon="1.457863">
        <ele>968.663358</ele>
        <time>2022-05-22T09:02:05.908Z</time>
      </trkpt>
      <trkpt lat="42.237135" lon="1.457690">
        <ele>968.627200</ele>
        <time>2022-05-22T09:02:06.905Z</time>
      </trkpt>
      <trkpt lat="42.237142" lon="1.457527">
        <ele>968.593077</ele>
        <time>2022-05-22T09:02:07.906Z</time>
      </trkpt>
      <trkpt lat="42.237164" lon="1.457363">
        <ele>968.558243</ele>
        <time>2022-05-22T09:02:08.902Z</time>
      </trkpt>
      <trkpt lat="42.237171" lon="1.457201">
        <ele>968.524328</ele>
        <time>2022-05-22T09:02:09.908Z</time>
      </trkpt>
      <trkpt lat="42.237180" lon="1.457041">
        <ele>968.490792</ele>
        <time>2022-05-22T09:02:10.907Z</time>
      </trkpt>
      <trkpt lat="42.237208" lon="1.456890">
        <ele>968.035638</ele>
        <time>2022-05-22T09:02:11.905Z</time>
      </trkpt>
      <trkpt lat="42.237229" lon="1.456749">
        <ele>967.556751</ele>
        <time>2022-05-22T09:02:12.906Z</time>
      </trkpt>
      <trkpt lat="42.237263" lon="1.456614">
        <ele>967.081951</ele>
        <time>2022-05-22T09:02:13.902Z</time>
      </trkpt>
      <trkpt lat="42.237281" lon="1.456472">
        <ele>966.602260</ele>
        <time>2022-05-22T09:02:14.904Z</time>
      </trkpt>
      <trkpt lat="42.237316" lon="1.456325">
        <ele>966.088113</ele>
        <time>2022-05-22T09:02:15.910Z</time>
      </trkpt>
      <trkpt lat="42.237341" lon="1.456190">
        <ele>965.624762</ele>
        <time>2022-05-22T09:02:16.905Z</time>
      </trkpt>
      <trkpt lat="42.237396" lon="1.456006">
        <ele>964.964057</ele>
        <time>2022-05-22T09:02:18.903Z</time>
      </trkpt>
      <trkpt lat="42.237513" lon="1.455837">
        <ele>964.193659</ele>
        <time>2022-05-22T09:02:20.907Z</time>
      </trkpt>
      <trkpt lat="42.237543" lon="1.455669">
        <ele>963.618238</ele>
        <time>2022-05-22T09:02:22.915Z</time>
      </trkpt>
      <trkpt lat="42.237543" lon="1.455486">
        <ele>963.008913</ele>
        <time>2022-05-22T09:02:24.906Z</time>
      </trkpt>
      <trkpt lat="42.237533" lon="1.455295">
        <ele>962.371363</ele>
        <time>2022-05-22T09:02:26.910Z</time>
      </trkpt>
      <trkpt lat="42.237633" lon="1.455181">
        <ele>961.782858</ele>
        <time>2022-05-22T09:02:28.908Z</time>
      </trkpt>
      <trkpt lat="42.237625" lon="1.455027">
        <ele>961.268833</ele>
        <time>2022-05-22T09:02:30.905Z</time>
      </trkpt>
      <trkpt lat="42.237614" lon="1.454866">
        <ele>960.730483</ele>
        <time>2022-05-22T09:02:32.909Z</time>
      </trkpt>
      <trkpt lat="42.237602" lon="1.454690">
        <ele>960.025136</ele>
        <time>2022-05-22T09:02:34.909Z</time>
      </trkpt>
      <trkpt lat="42.237648" lon="1.454481">
        <ele>958.967156</ele>
        <time>2022-05-22T09:02:36.909Z</time>
      </trkpt>
      <trkpt lat="42.237669" lon="1.454355">
        <ele>958.340474</ele>
        <time>2022-05-22T09:02:37.905Z</time>
      </trkpt>
      <trkpt lat="42.237683" lon="1.454228">
        <ele>957.717447</ele>
        <time>2022-05-22T09:02:38.910Z</time>
      </trkpt>
      <trkpt lat="42.237688" lon="1.454086">
        <ele>957.027651</ele>
        <time>2022-05-22T09:02:39.908Z</time>
      </trkpt>
      <trkpt lat="42.237698" lon="1.453939">
        <ele>956.311369</ele>
        <time>2022-05-22T09:02:40.909Z</time>
      </trkpt>
      <trkpt lat="42.237697" lon="1.453787">
        <ele>955.573800</ele>
        <time>2022-05-22T09:02:41.905Z</time>
      </trkpt>
      <trkpt lat="42.237680" lon="1.453650">
        <ele>954.899772</ele>
        <time>2022-05-22T09:02:42.906Z</time>
      </trkpt>
      <trkpt lat="42.237653" lon="1.453507">
        <ele>954.183695</ele>
        <time>2022-05-22T09:02:43.908Z</time>
      </trkpt>
      <trkpt lat="42.237622" lon="1.453369">
        <ele>953.483942</ele>
        <time>2022-05-22T09:02:44.912Z</time>
      </trkpt>
      <trkpt lat="42.237596" lon="1.453240">
        <ele>952.835224</ele>
        <time>2022-05-22T09:02:45.910Z</time>
      </trkpt>
      <trkpt lat="42.237576" lon="1.453115">
        <ele>952.214692</ele>
        <time>2022-05-22T09:02:46.912Z</time>
      </trkpt>
      <trkpt lat="42.237542" lon="1.452995">
        <ele>951.591241</ele>
        <time>2022-05-22T09:02:47.906Z</time>
      </trkpt>
      <trkpt lat="42.237502" lon="1.452777">
        <ele>950.501450</ele>
        <time>2022-05-22T09:02:49.911Z</time>
      </trkpt>
      <trkpt lat="42.237465" lon="1.452553">
        <ele>949.387825</ele>
        <time>2022-05-22T09:02:51.904Z</time>
      </trkpt>
      <trkpt lat="42.237434" lon="1.452334">
        <ele>948.434585</ele>
        <time>2022-05-22T09:02:53.904Z</time>
      </trkpt>
      <trkpt lat="42.237370" lon="1.452117">
        <ele>947.781574</ele>
        <time>2022-05-22T09:02:55.910Z</time>
      </trkpt>
      <trkpt lat="42.237307" lon="1.451909">
        <ele>947.153307</ele>
        <time>2022-05-22T09:02:57.907Z</time>
      </trkpt>
      <trkpt lat="42.237253" lon="1.451686">
        <ele>946.497385</ele>
        <time>2022-05-22T09:02:59.906Z</time>
      </trkpt>
      <trkpt lat="42.237215" lon="1.451465">
        <ele>945.863109</ele>
        <time>2022-05-22T09:03:01.909Z</time>
      </trkpt>
      <trkpt lat="42.237207" lon="1.451254">
        <ele>945.272460</ele>
        <time>2022-05-22T09:03:03.913Z</time>
      </trkpt>
      <trkpt lat="42.237233" lon="1.451030">
        <ele>944.638591</ele>
        <time>2022-05-22T09:03:05.910Z</time>
      </trkpt>
      <trkpt lat="42.237282" lon="1.450837">
        <ele>944.068194</ele>
        <time>2022-05-22T09:03:07.910Z</time>
      </trkpt>
      <trkpt lat="42.237370" lon="1.450657">
        <ele>943.465171</ele>
        <time>2022-05-22T09:03:09.905Z</time>
      </trkpt>
      <trkpt lat="42.237434" lon="1.450459">
        <ele>942.861185</ele>
        <time>2022-05-22T09:03:11.907Z</time>
      </trkpt>
      <trkpt lat="42.237479" lon="1.450253">
        <ele>942.260745</ele>
        <time>2022-05-22T09:03:13.912Z</time>
      </trkpt>
      <trkpt lat="42.237513" lon="1.450066">
        <ele>941.671952</ele>
        <time>2022-05-22T09:03:15.904Z</time>
      </trkpt>
      <trkpt lat="42.237535" lon="1.449880">
        <ele>940.866651</ele>
        <time>2022-05-22T09:03:17.903Z</time>
      </trkpt>
      <trkpt lat="42.237522" lon="1.449702">
        <ele>940.101943</ele>
        <time>2022-05-22T09:03:19.905Z</time>
      </trkpt>
      <trkpt lat="42.237494" lon="1.449516">
        <ele>939.290454</ele>
        <time>2022-05-22T09:03:21.909Z</time>
      </trkpt>
      <trkpt lat="42.237502" lon="1.449320">
        <ele>938.451210</ele>
        <time>2022-05-22T09:03:23.910Z</time>
      </trkpt>
      <trkpt lat="42.237569" lon="1.449121">
        <ele>937.516572</ele>
        <time>2022-05-22T09:03:25.909Z</time>
      </trkpt>
      <trkpt lat="42.237645" lon="1.448929">
        <ele>936.585747</ele>
        <time>2022-05-22T09:03:27.908Z</time>
      </trkpt>
      <trkpt lat="42.237702" lon="1.448732">
        <ele>935.681469</ele>
        <time>2022-05-22T09:03:29.913Z</time>
      </trkpt>
      <trkpt lat="42.237737" lon="1.448535">
        <ele>934.815315</ele>
        <time>2022-05-22T09:03:31.908Z</time>
      </trkpt>
      <trkpt lat="42.237793" lon="1.448388">
        <ele>934.108521</ele>
        <time>2022-05-22T09:03:33.909Z</time>
      </trkpt>
      <trkpt lat="42.237861" lon="1.448293">
        <ele>933.543579</ele>
        <time>2022-05-22T09:03:35.909Z</time>
      </trkpt>
      <trkpt lat="42.237975" lon="1.448272">
        <ele>932.879173</ele>
        <time>2022-05-22T09:03:37.923Z</time>
      </trkpt>
      <trkpt lat="42.238089" lon="1.448245">
        <ele>932.210817</ele>
        <time>2022-05-22T09:03:39.906Z</time>
      </trkpt>
      <trkpt lat="42.238199" lon="1.448224">
        <ele>931.569290</ele>
        <time>2022-05-22T09:03:41.910Z</time>
      </trkpt>
      <trkpt lat="42.238294" lon="1.448119">
        <ele>931.267958</ele>
        <time>2022-05-22T09:03:43.902Z</time>
      </trkpt>
      <trkpt lat="42.238349" lon="1.447905">
        <ele>930.990928</ele>
        <time>2022-05-22T09:03:45.902Z</time>
      </trkpt>
      <trkpt lat="42.238351" lon="1.447777">
        <ele>930.834357</ele>
        <time>2022-05-22T09:03:46.901Z</time>
      </trkpt>
      <trkpt lat="42.238338" lon="1.447634">
        <ele>930.658164</ele>
        <time>2022-05-22T09:03:47.902Z</time>
      </trkpt>
      <trkpt lat="42.238336" lon="1.447502">
        <ele>930.496702</ele>
        <time>2022-05-22T09:03:48.915Z</time>
      </trkpt>
      <trkpt lat="42.238346" lon="1.447371">
        <ele>930.335648</ele>
        <time>2022-05-22T09:03:49.901Z</time>
      </trkpt>
      <trkpt lat="42.238370" lon="1.447249">
        <ele>930.181273</ele>
        <time>2022-05-22T09:03:50.903Z</time>
      </trkpt>
      <trkpt lat="42.238437" lon="1.447037">
        <ele>929.899377</ele>
        <time>2022-05-22T09:03:52.902Z</time>
      </trkpt>
      <trkpt lat="42.238490" lon="1.446937">
        <ele>929.748977</ele>
        <time>2022-05-22T09:03:53.901Z</time>
      </trkpt>
      <trkpt lat="42.238539" lon="1.446829">
        <ele>929.594072</ele>
        <time>2022-05-22T09:03:54.904Z</time>
      </trkpt>
      <trkpt lat="42.238584" lon="1.446721">
        <ele>929.442515</ele>
        <time>2022-05-22T09:03:55.902Z</time>
      </trkpt>
      <trkpt lat="42.238613" lon="1.446606">
        <ele>929.293943</ele>
        <time>2022-05-22T09:03:56.907Z</time>
      </trkpt>
      <trkpt lat="42.238638" lon="1.446487">
        <ele>929.142669</ele>
        <time>2022-05-22T09:03:57.916Z</time>
      </trkpt>
      <trkpt lat="42.238663" lon="1.446368">
        <ele>928.991394</ele>
        <time>2022-05-22T09:03:58.917Z</time>
      </trkpt>
      <trkpt lat="42.238702" lon="1.446129">
        <ele>928.692098</ele>
        <time>2022-05-22T09:04:00.909Z</time>
      </trkpt>
      <trkpt lat="42.238708" lon="1.445884">
        <ele>928.463517</ele>
        <time>2022-05-22T09:04:02.907Z</time>
      </trkpt>
      <trkpt lat="42.238716" lon="1.445645">
        <ele>928.477874</ele>
        <time>2022-05-22T09:04:04.908Z</time>
      </trkpt>
      <trkpt lat="42.238743" lon="1.445416">
        <ele>928.491789</ele>
        <time>2022-05-22T09:04:06.908Z</time>
      </trkpt>
      <trkpt lat="42.238760" lon="1.445297">
        <ele>928.499062</ele>
        <time>2022-05-22T09:04:07.906Z</time>
      </trkpt>
      <trkpt lat="42.238818" lon="1.445085">
        <ele>928.512625</ele>
        <time>2022-05-22T09:04:09.905Z</time>
      </trkpt>
      <trkpt lat="42.238866" lon="1.444891">
        <ele>928.524900</ele>
        <time>2022-05-22T09:04:11.903Z</time>
      </trkpt>
      <trkpt lat="42.238892" lon="1.444719">
        <ele>928.535434</ele>
        <time>2022-05-22T09:04:13.902Z</time>
      </trkpt>
      <trkpt lat="42.238877" lon="1.444558">
        <ele>928.545172</ele>
        <time>2022-05-22T09:04:15.903Z</time>
      </trkpt>
      <trkpt lat="42.238884" lon="1.444426">
        <ele>928.553113</ele>
        <time>2022-05-22T09:04:17.903Z</time>
      </trkpt>
      <trkpt lat="42.238866" lon="1.444291">
        <ele>928.561345</ele>
        <time>2022-05-22T09:04:19.905Z</time>
      </trkpt>
      <trkpt lat="42.238859" lon="1.444165">
        <ele>928.568927</ele>
        <time>2022-05-22T09:04:21.905Z</time>
      </trkpt>
      <trkpt lat="42.238864" lon="1.444025">
        <ele>928.577339</ele>
        <time>2022-05-22T09:04:23.905Z</time>
      </trkpt>
      <trkpt lat="42.238832" lon="1.443869">
        <ele>928.587053</ele>
        <time>2022-05-22T09:04:25.909Z</time>
      </trkpt>
      <trkpt lat="42.238813" lon="1.443709">
        <ele>928.596777</ele>
        <time>2022-05-22T09:04:27.909Z</time>
      </trkpt>
      <trkpt lat="42.238795" lon="1.443519">
        <ele>928.609677</ele>
        <time>2022-05-22T09:04:29.910Z</time>
      </trkpt>
      <trkpt lat="42.238775" lon="1.443362">
        <ele>928.625091</ele>
        <time>2022-05-22T09:04:31.906Z</time>
      </trkpt>
      <trkpt lat="42.238750" lon="1.443198">
        <ele>928.641293</ele>
        <time>2022-05-22T09:04:33.909Z</time>
      </trkpt>
      <trkpt lat="42.238721" lon="1.443034">
        <ele>928.657607</ele>
        <time>2022-05-22T09:04:35.909Z</time>
      </trkpt>
      <trkpt lat="42.238736" lon="1.442867">
        <ele>928.673884</ele>
        <time>2022-05-22T09:04:37.910Z</time>
      </trkpt>
      <trkpt lat="42.238758" lon="1.442674">
        <ele>928.692778</ele>
        <time>2022-05-22T09:04:39.910Z</time>
      </trkpt>
      <trkpt lat="42.238787" lon="1.442460">
        <ele>928.713828</ele>
        <time>2022-05-22T09:04:41.906Z</time>
      </trkpt>
      <trkpt lat="42.238825" lon="1.442254">
        <ele>928.734370</ele>
        <time>2022-05-22T09:04:43.905Z</time>
      </trkpt>
      <trkpt lat="42.238899" lon="1.442038">
        <ele>928.757399</ele>
        <time>2022-05-22T09:04:45.905Z</time>
      </trkpt>
      <trkpt lat="42.238993" lon="1.441839">
        <ele>928.780238</ele>
        <time>2022-05-22T09:04:47.903Z</time>
      </trkpt>
      <trkpt lat="42.239048" lon="1.441742">
        <ele>928.792060</ele>
        <time>2022-05-22T09:04:48.907Z</time>
      </trkpt>
      <trkpt lat="42.239106" lon="1.441645">
        <ele>928.804124</ele>
        <time>2022-05-22T09:04:49.903Z</time>
      </trkpt>
      <trkpt lat="42.239162" lon="1.441550">
        <ele>928.815874</ele>
        <time>2022-05-22T09:04:50.902Z</time>
      </trkpt>
      <trkpt lat="42.239263" lon="1.441359">
        <ele>928.838585</ele>
        <time>2022-05-22T09:04:52.904Z</time>
      </trkpt>
      <trkpt lat="42.239303" lon="1.441246">
        <ele>928.828714</ele>
        <time>2022-05-22T09:04:53.904Z</time>
      </trkpt>
      <trkpt lat="42.239329" lon="1.441127">
        <ele>928.813390</ele>
        <time>2022-05-22T09:04:54.906Z</time>
      </trkpt>
      <trkpt lat="42.239345" lon="1.441004">
        <ele>928.797966</ele>
        <time>2022-05-22T09:04:55.906Z</time>
      </trkpt>
      <trkpt lat="42.239331" lon="1.440880">
        <ele>928.782475</ele>
        <time>2022-05-22T09:04:56.907Z</time>
      </trkpt>
      <trkpt lat="42.239305" lon="1.440744">
        <ele>928.765127</ele>
        <time>2022-05-22T09:04:57.909Z</time>
      </trkpt>
      <trkpt lat="42.239273" lon="1.440613">
        <ele>928.748090</ele>
        <time>2022-05-22T09:04:58.902Z</time>
      </trkpt>
      <trkpt lat="42.239251" lon="1.440487">
        <ele>928.732101</ele>
        <time>2022-05-22T09:04:59.910Z</time>
      </trkpt>
      <trkpt lat="42.239213" lon="1.440357">
        <ele>928.714839</ele>
        <time>2022-05-22T09:05:00.909Z</time>
      </trkpt>
      <trkpt lat="42.239205" lon="1.440223">
        <ele>928.698236</ele>
        <time>2022-05-22T09:05:01.904Z</time>
      </trkpt>
      <trkpt lat="42.239151" lon="1.440089">
        <ele>928.679393</ele>
        <time>2022-05-22T09:05:02.905Z</time>
      </trkpt>
      <trkpt lat="42.239107" lon="1.439956">
        <ele>928.661402</ele>
        <time>2022-05-22T09:05:03.909Z</time>
      </trkpt>
      <trkpt lat="42.239085" lon="1.439822">
        <ele>928.644450</ele>
        <time>2022-05-22T09:05:04.903Z</time>
      </trkpt>
      <trkpt lat="42.239053" lon="1.439667">
        <ele>928.624576</ele>
        <time>2022-05-22T09:05:05.907Z</time>
      </trkpt>
      <trkpt lat="42.239042" lon="1.439507">
        <ele>928.604730</ele>
        <time>2022-05-22T09:05:06.905Z</time>
      </trkpt>
      <trkpt lat="42.239020" lon="1.439343">
        <ele>928.584146</ele>
        <time>2022-05-22T09:05:07.906Z</time>
      </trkpt>
      <trkpt lat="42.239016" lon="1.439193">
        <ele>928.565608</ele>
        <time>2022-05-22T09:05:08.909Z</time>
      </trkpt>
      <trkpt lat="42.239002" lon="1.439057">
        <ele>928.548650</ele>
        <time>2022-05-22T09:05:09.906Z</time>
      </trkpt>
      <trkpt lat="42.238976" lon="1.438925">
        <ele>928.596492</ele>
        <time>2022-05-22T09:05:10.908Z</time>
      </trkpt>
      <trkpt lat="42.238938" lon="1.438785">
        <ele>928.707440</ele>
        <time>2022-05-22T09:05:11.907Z</time>
      </trkpt>
      <trkpt lat="42.238876" lon="1.438633">
        <ele>928.836566</ele>
        <time>2022-05-22T09:05:12.902Z</time>
      </trkpt>
      <trkpt lat="42.238820" lon="1.438472">
        <ele>928.968921</ele>
        <time>2022-05-22T09:05:13.902Z</time>
      </trkpt>
      <trkpt lat="42.238761" lon="1.438310">
        <ele>929.103253</ele>
        <time>2022-05-22T09:05:14.904Z</time>
      </trkpt>
      <trkpt lat="42.238722" lon="1.438161">
        <ele>929.220843</ele>
        <time>2022-05-22T09:05:15.904Z</time>
      </trkpt>
      <trkpt lat="42.238695" lon="1.438019">
        <ele>929.329928</ele>
        <time>2022-05-22T09:05:16.902Z</time>
      </trkpt>
      <trkpt lat="42.238686" lon="1.437880">
        <ele>929.433747</ele>
        <time>2022-05-22T09:05:17.901Z</time>
      </trkpt>
      <trkpt lat="42.238710" lon="1.437734">
        <ele>929.545025</ele>
        <time>2022-05-22T09:05:18.904Z</time>
      </trkpt>
      <trkpt lat="42.238772" lon="1.437584">
        <ele>929.672850</ele>
        <time>2022-05-22T09:05:19.900Z</time>
      </trkpt>
      <trkpt lat="42.238868" lon="1.437444">
        <ele>929.814835</ele>
        <time>2022-05-22T09:05:20.900Z</time>
      </trkpt>
      <trkpt lat="42.238970" lon="1.437307">
        <ele>929.959401</ele>
        <time>2022-05-22T09:05:21.904Z</time>
      </trkpt>
      <trkpt lat="42.239102" lon="1.437180">
        <ele>930.122276</ele>
        <time>2022-05-22T09:05:22.903Z</time>
      </trkpt>
      <trkpt lat="42.239249" lon="1.437072">
        <ele>930.290453</ele>
        <time>2022-05-22T09:05:23.904Z</time>
      </trkpt>
      <trkpt lat="42.239356" lon="1.436965">
        <ele>930.009953</ele>
        <time>2022-05-22T09:05:24.907Z</time>
      </trkpt>
      <trkpt lat="42.239469" lon="1.436875">
        <ele>929.419359</ele>
        <time>2022-05-22T09:05:25.900Z</time>
      </trkpt>
      <trkpt lat="42.239570" lon="1.436797">
        <ele>928.895571</ele>
        <time>2022-05-22T09:05:26.903Z</time>
      </trkpt>
      <trkpt lat="42.239664" lon="1.436710">
        <ele>928.382557</ele>
        <time>2022-05-22T09:05:27.902Z</time>
      </trkpt>
      <trkpt lat="42.239753" lon="1.436641">
        <ele>927.920559</ele>
        <time>2022-05-22T09:05:28.900Z</time>
      </trkpt>
      <trkpt lat="42.239833" lon="1.436582">
        <ele>927.510201</ele>
        <time>2022-05-22T09:05:29.903Z</time>
      </trkpt>
      <trkpt lat="42.239900" lon="1.436468">
        <ele>927.025057</ele>
        <time>2022-05-22T09:05:32.899Z</time>
      </trkpt>
      <trkpt lat="42.239921" lon="1.436304">
        <ele>926.470318</ele>
        <time>2022-05-22T09:05:35.910Z</time>
      </trkpt>
      <trkpt lat="42.239936" lon="1.436159">
        <ele>925.982327</ele>
        <time>2022-05-22T09:05:38.904Z</time>
      </trkpt>
      <trkpt lat="42.239902" lon="1.435983">
        <ele>925.376065</ele>
        <time>2022-05-22T09:05:41.907Z</time>
      </trkpt>
      <trkpt lat="42.239893" lon="1.435820">
        <ele>924.831265</ele>
        <time>2022-05-22T09:05:44.903Z</time>
      </trkpt>
      <trkpt lat="42.239872" lon="1.435641">
        <ele>924.227200</ele>
        <time>2022-05-22T09:05:47.906Z</time>
      </trkpt>
      <trkpt lat="42.239884" lon="1.435514">
        <ele>923.800466</ele>
        <time>2022-05-22T09:05:49.906Z</time>
      </trkpt>
      <trkpt lat="42.239893" lon="1.435362">
        <ele>923.292222</ele>
        <time>2022-05-22T09:05:51.913Z</time>
      </trkpt>
      <trkpt lat="42.239898" lon="1.435224">
        <ele>922.831707</ele>
        <time>2022-05-22T09:05:53.904Z</time>
      </trkpt>
      <trkpt lat="42.239888" lon="1.435086">
        <ele>922.369545</ele>
        <time>2022-05-22T09:05:55.905Z</time>
      </trkpt>
      <trkpt lat="42.239872" lon="1.434923">
        <ele>921.804947</ele>
        <time>2022-05-22T09:05:57.911Z</time>
      </trkpt>
      <trkpt lat="42.239860" lon="1.434760">
        <ele>921.237934</ele>
        <time>2022-05-22T09:05:59.911Z</time>
      </trkpt>
      <trkpt lat="42.239856" lon="1.434632">
        <ele>920.794463</ele>
        <time>2022-05-22T09:06:01.910Z</time>
      </trkpt>
      <trkpt lat="42.239836" lon="1.434501">
        <ele>920.331460</ele>
        <time>2022-05-22T09:06:03.908Z</time>
      </trkpt>
      <trkpt lat="42.239836" lon="1.434350">
        <ele>919.808768</ele>
        <time>2022-05-22T09:06:05.908Z</time>
      </trkpt>
      <trkpt lat="42.239827" lon="1.434183">
        <ele>919.229161</ele>
        <time>2022-05-22T09:06:07.909Z</time>
      </trkpt>
      <trkpt lat="42.239813" lon="1.434041">
        <ele>918.733283</ele>
        <time>2022-05-22T09:06:09.908Z</time>
      </trkpt>
      <trkpt lat="42.239852" lon="1.433908">
        <ele>918.238101</ele>
        <time>2022-05-22T09:06:12.904Z</time>
      </trkpt>
      <trkpt lat="42.239927" lon="1.433768">
        <ele>917.639919</ele>
        <time>2022-05-22T09:06:15.907Z</time>
      </trkpt>
      <trkpt lat="42.239981" lon="1.433646">
        <ele>917.147891</ele>
        <time>2022-05-22T09:06:17.902Z</time>
      </trkpt>
      <trkpt lat="42.240004" lon="1.433490">
        <ele>916.597289</ele>
        <time>2022-05-22T09:06:19.904Z</time>
      </trkpt>
      <trkpt lat="42.240022" lon="1.433319">
        <ele>915.999414</ele>
        <time>2022-05-22T09:06:21.906Z</time>
      </trkpt>
      <trkpt lat="42.240034" lon="1.433176">
        <ele>915.501246</ele>
        <time>2022-05-22T09:06:23.902Z</time>
      </trkpt>
      <trkpt lat="42.239992" lon="1.433040">
        <ele>914.991162</ele>
        <time>2022-05-22T09:06:26.902Z</time>
      </trkpt>
      <trkpt lat="42.239954" lon="1.432917">
        <ele>914.529809</ele>
        <time>2022-05-22T09:06:29.906Z</time>
      </trkpt>
      <trkpt lat="42.239966" lon="1.432775">
        <ele>914.035080</ele>
        <time>2022-05-22T09:06:32.905Z</time>
      </trkpt>
      <trkpt lat="42.239998" lon="1.432651">
        <ele>913.790223</ele>
        <time>2022-05-22T09:06:41.901Z</time>
      </trkpt>
      <trkpt lat="42.239915" lon="1.432549">
        <ele>913.687637</ele>
        <time>2022-05-22T09:06:46.903Z</time>
      </trkpt>
      <trkpt lat="42.239899" lon="1.432416">
        <ele>913.596438</ele>
        <time>2022-05-22T09:06:53.904Z</time>
      </trkpt>
      <trkpt lat="42.239995" lon="1.432401">
        <ele>913.508087</ele>
        <time>2022-05-22T09:06:58.909Z</time>
      </trkpt>
      <trkpt lat="42.240087" lon="1.432493">
        <ele>913.403437</ele>
        <time>2022-05-22T09:07:02.907Z</time>
      </trkpt>
      <trkpt lat="42.240185" lon="1.432560">
        <ele>913.303021</ele>
        <time>2022-05-22T09:07:06.910Z</time>
      </trkpt>
      <trkpt lat="42.240267" lon="1.432613">
        <ele>913.219914</ele>
        <time>2022-05-22T09:07:09.912Z</time>
      </trkpt>
      <trkpt lat="42.240366" lon="1.432625">
        <ele>913.129042</ele>
        <time>2022-05-22T09:07:14.904Z</time>
      </trkpt>
      <trkpt lat="42.240459" lon="1.432701">
        <ele>913.029670</ele>
        <time>2022-05-22T09:07:18.904Z</time>
      </trkpt>
      <trkpt lat="42.240503" lon="1.432822">
        <ele>912.938428</ele>
        <time>2022-05-22T09:07:22.905Z</time>
      </trkpt>
      <trkpt lat="42.240557" lon="1.432964">
        <ele>912.830381</ele>
        <time>2022-05-22T09:07:26.908Z</time>
      </trkpt>
      <trkpt lat="42.240643" lon="1.433042">
        <ele>912.735678</ele>
        <time>2022-05-22T09:07:31.906Z</time>
      </trkpt>
      <trkpt lat="42.240709" lon="1.433146">
        <ele>912.642966</ele>
        <time>2022-05-22T09:07:36.905Z</time>
      </trkpt>
      <trkpt lat="42.240708" lon="1.433305">
        <ele>912.535348</ele>
        <time>2022-05-22T09:07:39.909Z</time>
      </trkpt>
      <trkpt lat="42.240700" lon="1.433461">
        <ele>912.429510</ele>
        <time>2022-05-22T09:07:42.906Z</time>
      </trkpt>
      <trkpt lat="42.240685" lon="1.433631">
        <ele>912.313636</ele>
        <time>2022-05-22T09:07:45.907Z</time>
      </trkpt>
      <trkpt lat="42.240731" lon="1.433745">
        <ele>912.225761</ele>
        <time>2022-05-22T09:07:48.908Z</time>
      </trkpt>
      <trkpt lat="42.240807" lon="1.433823">
        <ele>912.374910</ele>
        <time>2022-05-22T09:07:52.904Z</time>
      </trkpt>
      <trkpt lat="42.240873" lon="1.433920">
        <ele>912.647122</ele>
        <time>2022-05-22T09:07:57.902Z</time>
      </trkpt>
      <trkpt lat="42.240859" lon="1.434059">
        <ele>912.936970</ele>
        <time>2022-05-22T09:08:01.905Z</time>
      </trkpt>
      <trkpt lat="42.240893" lon="1.434205">
        <ele>913.253208</ele>
        <time>2022-05-22T09:08:06.905Z</time>
      </trkpt>
      <trkpt lat="42.240957" lon="1.434306">
        <ele>913.527900</ele>
        <time>2022-05-22T09:08:09.907Z</time>
      </trkpt>
      <trkpt lat="42.241023" lon="1.434429">
        <ele>913.841777</ele>
        <time>2022-05-22T09:08:13.905Z</time>
      </trkpt>
      <trkpt lat="42.241054" lon="1.434548">
        <ele>914.102433</ele>
        <time>2022-05-22T09:08:18.910Z</time>
      </trkpt>
      <trkpt lat="42.241098" lon="1.434689">
        <ele>914.418590</ele>
        <time>2022-05-22T09:08:23.903Z</time>
      </trkpt>
      <trkpt lat="42.241116" lon="1.434809">
        <ele>914.671572</ele>
        <time>2022-05-22T09:08:26.905Z</time>
      </trkpt>
      <trkpt lat="42.241083" lon="1.434939">
        <ele>914.955529</ele>
        <time>2022-05-22T09:08:30.904Z</time>
      </trkpt>
      <trkpt lat="42.241008" lon="1.435032">
        <ele>915.239675</ele>
        <time>2022-05-22T09:08:33.906Z</time>
      </trkpt>
      <trkpt lat="42.240931" lon="1.435137">
        <ele>915.545046</ele>
        <time>2022-05-22T09:08:37.906Z</time>
      </trkpt>
      <trkpt lat="42.240972" lon="1.435285">
        <ele>915.871552</ele>
        <time>2022-05-22T09:08:41.903Z</time>
      </trkpt>
      <trkpt lat="42.241069" lon="1.435289">
        <ele>916.142399</ele>
        <time>2022-05-22T09:08:44.905Z</time>
      </trkpt>
      <trkpt lat="42.241148" lon="1.435184">
        <ele>916.451722</ele>
        <time>2022-05-22T09:08:47.905Z</time>
      </trkpt>
      <trkpt lat="42.241223" lon="1.435085">
        <ele>916.744395</ele>
        <time>2022-05-22T09:08:50.907Z</time>
      </trkpt>
      <trkpt lat="42.241279" lon="1.434987">
        <ele>917.000184</ele>
        <time>2022-05-22T09:08:53.904Z</time>
      </trkpt>
      <trkpt lat="42.241353" lon="1.434890">
        <ele>917.351848</ele>
        <time>2022-05-22T09:08:57.903Z</time>
      </trkpt>
      <trkpt lat="42.241394" lon="1.434750">
        <ele>917.941862</ele>
        <time>2022-05-22T09:09:01.905Z</time>
      </trkpt>
      <trkpt lat="42.241367" lon="1.434631">
        <ele>918.429621</ele>
        <time>2022-05-22T09:09:04.908Z</time>
      </trkpt>
      <trkpt lat="42.241324" lon="1.434504">
        <ele>918.976902</ele>
        <time>2022-05-22T09:09:08.905Z</time>
      </trkpt>
      <trkpt lat="42.241320" lon="1.434351">
        <ele>919.576867</ele>
        <time>2022-05-22T09:09:13.899Z</time>
      </trkpt>
      <trkpt lat="42.241292" lon="1.434198">
        <ele>920.194507</ele>
        <time>2022-05-22T09:09:17.904Z</time>
      </trkpt>
      <trkpt lat="42.241225" lon="1.434101">
        <ele>920.714401</ele>
        <time>2022-05-22T09:09:21.908Z</time>
      </trkpt>
      <trkpt lat="42.241152" lon="1.434018">
        <ele>921.219501</ele>
        <time>2022-05-22T09:09:25.901Z</time>
      </trkpt>
      <trkpt lat="42.241139" lon="1.433884">
        <ele>921.749125</ele>
        <time>2022-05-22T09:09:29.910Z</time>
      </trkpt>
      <trkpt lat="42.241080" lon="1.433767">
        <ele>922.303901</ele>
        <time>2022-05-22T09:09:33.898Z</time>
      </trkpt>
      <trkpt lat="42.241038" lon="1.433659">
        <ele>922.781985</ele>
        <time>2022-05-22T09:09:37.908Z</time>
      </trkpt>
      <trkpt lat="42.241051" lon="1.433538">
        <ele>923.261142</ele>
        <time>2022-05-22T09:09:42.909Z</time>
      </trkpt>
      <trkpt lat="42.241066" lon="1.433394">
        <ele>923.831024</ele>
        <time>2022-05-22T09:09:46.906Z</time>
      </trkpt>
      <trkpt lat="42.241021" lon="1.433276">
        <ele>924.351204</ele>
        <time>2022-05-22T09:09:49.910Z</time>
      </trkpt>
      <trkpt lat="42.240981" lon="1.433136">
        <ele>924.939294</ele>
        <time>2022-05-22T09:09:53.910Z</time>
      </trkpt>
      <trkpt lat="42.240965" lon="1.433007">
        <ele>925.451881</ele>
        <time>2022-05-22T09:09:57.906Z</time>
      </trkpt>
      <trkpt lat="42.240925" lon="1.432882">
        <ele>925.985549</ele>
        <time>2022-05-22T09:10:02.902Z</time>
      </trkpt>
      <trkpt lat="42.240909" lon="1.432751">
        <ele>926.505868</ele>
        <time>2022-05-22T09:10:07.902Z</time>
      </trkpt>
      <trkpt lat="42.240899" lon="1.432591">
        <ele>927.223350</ele>
        <time>2022-05-22T09:10:11.903Z</time>
      </trkpt>
      <trkpt lat="42.240915" lon="1.432455">
        <ele>927.882868</ele>
        <time>2022-05-22T09:10:15.905Z</time>
      </trkpt>
      <trkpt lat="42.240934" lon="1.432319">
        <ele>928.545710</ele>
        <time>2022-05-22T09:10:19.904Z</time>
      </trkpt>
      <trkpt lat="42.240983" lon="1.432184">
        <ele>929.265791</ele>
        <time>2022-05-22T09:10:23.905Z</time>
      </trkpt>
      <trkpt lat="42.241005" lon="1.432041">
        <ele>929.965292</ele>
        <time>2022-05-22T09:10:27.906Z</time>
      </trkpt>
      <trkpt lat="42.241033" lon="1.431919">
        <ele>930.577020</ele>
        <time>2022-05-22T09:10:31.905Z</time>
      </trkpt>
      <trkpt lat="42.241078" lon="1.431806">
        <ele>931.191539</ele>
        <time>2022-05-22T09:10:35.904Z</time>
      </trkpt>
      <trkpt lat="42.241133" lon="1.431688">
        <ele>931.859354</ele>
        <time>2022-05-22T09:10:39.905Z</time>
      </trkpt>
      <trkpt lat="42.241193" lon="1.431574">
        <ele>932.529245</ele>
        <time>2022-05-22T09:10:42.902Z</time>
      </trkpt>
      <trkpt lat="42.241243" lon="1.431470">
        <ele>933.123143</ele>
        <time>2022-05-22T09:10:45.905Z</time>
      </trkpt>
      <trkpt lat="42.241337" lon="1.431388">
        <ele>933.847036</ele>
        <time>2022-05-22T09:10:50.906Z</time>
      </trkpt>
      <trkpt lat="42.241446" lon="1.431356">
        <ele>934.568640</ele>
        <time>2022-05-22T09:10:54.904Z</time>
      </trkpt>
      <trkpt lat="42.241479" lon="1.431496">
        <ele>935.272303</ele>
        <time>2022-05-22T09:11:00.904Z</time>
      </trkpt>
      <trkpt lat="42.241410" lon="1.431616">
        <ele>936.000000</ele>
        <time>2022-05-22T09:11:04.906Z</time>
      </trkpt>
      <trkpt lat="42.241325" lon="1.431678">
        <ele>936.624932</ele>
        <time>2022-05-22T09:11:09.903Z</time>
      </trkpt>
      <trkpt lat="42.241263" lon="1.431771">
        <ele>937.224313</ele>
        <time>2022-05-22T09:11:13.909Z</time>
      </trkpt>
      <trkpt lat="42.241216" lon="1.431881">
        <ele>937.832579</ele>
        <time>2022-05-22T09:11:17.907Z</time>
      </trkpt>
      <trkpt lat="42.241162" lon="1.432004">
        <ele>938.537205</ele>
        <time>2022-05-22T09:11:22.912Z</time>
      </trkpt>
      <trkpt lat="42.241155" lon="1.432132">
        <ele>939.236342</ele>
        <time>2022-05-22T09:11:28.908Z</time>
      </trkpt>
      <trkpt lat="42.241130" lon="1.432275">
        <ele>940.036712</ele>
        <time>2022-05-22T09:11:34.904Z</time>
      </trkpt>
      <trkpt lat="42.241076" lon="1.432377">
        <ele>940.719772</ele>
        <time>2022-05-22T09:11:37.907Z</time>
      </trkpt>
      <trkpt lat="42.241060" lon="1.432497">
        <ele>941.383950</ele>
        <time>2022-05-22T09:11:40.904Z</time>
      </trkpt>
      <trkpt lat="42.241084" lon="1.432638">
        <ele>942.172041</ele>
        <time>2022-05-22T09:11:44.908Z</time>
      </trkpt>
      <trkpt lat="42.241117" lon="1.432770">
        <ele>942.930959</ele>
        <time>2022-05-22T09:11:48.909Z</time>
      </trkpt>
      <trkpt lat="42.241176" lon="1.432867">
        <ele>943.614797</ele>
        <time>2022-05-22T09:11:51.905Z</time>
      </trkpt>
      <trkpt lat="42.241244" lon="1.432986">
        <ele>944.433645</ele>
        <time>2022-05-22T09:11:55.906Z</time>
      </trkpt>
      <trkpt lat="42.241327" lon="1.433094">
        <ele>945.281610</ele>
        <time>2022-05-22T09:11:59.907Z</time>
      </trkpt>
      <trkpt lat="42.241426" lon="1.433176">
        <ele>946.136078</ele>
        <time>2022-05-22T09:12:03.906Z</time>
      </trkpt>
      <trkpt lat="42.241521" lon="1.433219">
        <ele>946.873273</ele>
        <time>2022-05-22T09:12:06.909Z</time>
      </trkpt>
      <trkpt lat="42.241613" lon="1.433274">
        <ele>947.613529</ele>
        <time>2022-05-22T09:12:09.904Z</time>
      </trkpt>
      <trkpt lat="42.241677" lon="1.433365">
        <ele>948.297236</ele>
        <time>2022-05-22T09:12:13.904Z</time>
      </trkpt>
      <trkpt lat="42.241699" lon="1.433484">
        <ele>948.965350</ele>
        <time>2022-05-22T09:12:17.911Z</time>
      </trkpt>
      <trkpt lat="42.241770" lon="1.433585">
        <ele>949.724022</ele>
        <time>2022-05-22T09:12:22.903Z</time>
      </trkpt>
      <trkpt lat="42.241866" lon="1.433652">
        <ele>950.519087</ele>
        <time>2022-05-22T09:12:26.902Z</time>
      </trkpt>
      <trkpt lat="42.241964" lon="1.433686">
        <ele>951.263559</ele>
        <time>2022-05-22T09:12:30.937Z</time>
      </trkpt>
      <trkpt lat="42.242011" lon="1.433569">
        <ele>951.723205</ele>
        <time>2022-05-22T09:12:35.902Z</time>
      </trkpt>
      <trkpt lat="42.242009" lon="1.433445">
        <ele>951.927926</ele>
        <time>2022-05-22T09:12:39.903Z</time>
      </trkpt>
      <trkpt lat="42.241967" lon="1.433314">
        <ele>952.163559</ele>
        <time>2022-05-22T09:12:43.905Z</time>
      </trkpt>
      <trkpt lat="42.241864" lon="1.433247">
        <ele>952.418446</ele>
        <time>2022-05-22T09:12:46.908Z</time>
      </trkpt>
      <trkpt lat="42.241776" lon="1.433178">
        <ele>952.645309</ele>
        <time>2022-05-22T09:12:49.905Z</time>
      </trkpt>
      <trkpt lat="42.241689" lon="1.433103">
        <ele>952.875419</ele>
        <time>2022-05-22T09:12:53.906Z</time>
      </trkpt>
      <trkpt lat="42.241608" lon="1.433020">
        <ele>953.102098</ele>
        <time>2022-05-22T09:12:59.905Z</time>
      </trkpt>
      <trkpt lat="42.241556" lon="1.432901">
        <ele>953.330183</ele>
        <time>2022-05-22T09:13:03.903Z</time>
      </trkpt>
      <trkpt lat="42.241581" lon="1.432763">
        <ele>953.564686</ele>
        <time>2022-05-22T09:13:07.906Z</time>
      </trkpt>
      <trkpt lat="42.241638" lon="1.432652">
        <ele>953.787663</ele>
        <time>2022-05-22T09:13:11.906Z</time>
      </trkpt>
      <trkpt lat="42.241634" lon="1.432509">
        <ele>954.023867</ele>
        <time>2022-05-22T09:13:16.904Z</time>
      </trkpt>
      <trkpt lat="42.241605" lon="1.432354">
        <ele>954.287753</ele>
        <time>2022-05-22T09:13:21.901Z</time>
      </trkpt>
      <trkpt lat="42.241560" lon="1.432205">
        <ele>954.553369</ele>
        <time>2022-05-22T09:13:25.901Z</time>
      </trkpt>
      <trkpt lat="42.241605" lon="1.432076">
        <ele>954.788750</ele>
        <time>2022-05-22T09:13:29.900Z</time>
      </trkpt>
      <trkpt lat="42.241684" lon="1.431977">
        <ele>955.029013</ele>
        <time>2022-05-22T09:13:33.903Z</time>
      </trkpt>
      <trkpt lat="42.241774" lon="1.431948">
        <ele>955.235305</ele>
        <time>2022-05-22T09:13:43.902Z</time>
      </trkpt>
      <trkpt lat="42.241864" lon="1.431869">
        <ele>955.474614</ele>
        <time>2022-05-22T09:13:48.901Z</time>
      </trkpt>
      <trkpt lat="42.241964" lon="1.431767">
        <ele>955.784194</ele>
        <time>2022-05-22T09:13:52.897Z</time>
      </trkpt>
      <trkpt lat="42.242043" lon="1.431701">
        <ele>956.037286</ele>
        <time>2022-05-22T09:13:54.902Z</time>
      </trkpt>
      <trkpt lat="42.242150" lon="1.431629">
        <ele>956.362999</ele>
        <time>2022-05-22T09:13:57.904Z</time>
      </trkpt>
      <trkpt lat="42.242245" lon="1.431583">
        <ele>956.637971</ele>
        <time>2022-05-22T09:13:59.899Z</time>
      </trkpt>
      <trkpt lat="42.242333" lon="1.431532">
        <ele>956.898880</ele>
        <time>2022-05-22T09:14:01.899Z</time>
      </trkpt>
      <trkpt lat="42.242420" lon="1.431493">
        <ele>957.148639</ele>
        <time>2022-05-22T09:14:03.900Z</time>
      </trkpt>
      <trkpt lat="42.242504" lon="1.431440">
        <ele>957.401250</ele>
        <time>2022-05-22T09:14:06.899Z</time>
      </trkpt>
      <trkpt lat="42.242589" lon="1.431375">
        <ele>957.667384</ele>
        <time>2022-05-22T09:14:09.900Z</time>
      </trkpt>
      <trkpt lat="42.242680" lon="1.431362">
        <ele>957.916713</ele>
        <time>2022-05-22T09:14:14.901Z</time>
      </trkpt>
      <trkpt lat="42.242770" lon="1.431386">
        <ele>958.166667</ele>
        <time>2022-05-22T09:14:22.899Z</time>
      </trkpt>
      <trkpt lat="42.242863" lon="1.431299">
        <ele>958.474896</ele>
        <time>2022-05-22T09:14:29.900Z</time>
      </trkpt>
      <trkpt lat="42.242958" lon="1.431225">
        <ele>958.773694</ele>
        <time>2022-05-22T09:14:33.901Z</time>
      </trkpt>
      <trkpt lat="42.243080" lon="1.431190">
        <ele>959.113519</ele>
        <time>2022-05-22T09:14:36.901Z</time>
      </trkpt>
      <trkpt lat="42.243184" lon="1.431186">
        <ele>959.397001</ele>
        <time>2022-05-22T09:14:38.902Z</time>
      </trkpt>
      <trkpt lat="42.243284" lon="1.431166">
        <ele>959.672439</ele>
        <time>2022-05-22T09:14:40.897Z</time>
      </trkpt>
      <trkpt lat="42.243385" lon="1.431144">
        <ele>959.951187</ele>
        <time>2022-05-22T09:14:47.899Z</time>
      </trkpt>
      <trkpt lat="42.243477" lon="1.431158">
        <ele>960.203443</ele>
        <time>2022-05-22T09:14:50.902Z</time>
      </trkpt>
      <trkpt lat="42.243563" lon="1.431201">
        <ele>960.453303</ele>
        <time>2022-05-22T09:14:52.895Z</time>
      </trkpt>
      <trkpt lat="42.243654" lon="1.431217">
        <ele>960.722953</ele>
        <time>2022-05-22T09:14:54.895Z</time>
      </trkpt>
      <trkpt lat="42.243737" lon="1.431282">
        <ele>961.012133</ele>
        <time>2022-05-22T09:14:59.897Z</time>
      </trkpt>
      <trkpt lat="42.243850" lon="1.431310">
        <ele>961.358418</ele>
        <time>2022-05-22T09:15:08.898Z</time>
      </trkpt>
      <trkpt lat="42.243943" lon="1.431227">
        <ele>961.694393</ele>
        <time>2022-05-22T09:15:10.900Z</time>
      </trkpt>
      <trkpt lat="42.244017" lon="1.431153">
        <ele>961.971910</ele>
        <time>2022-05-22T09:15:13.894Z</time>
      </trkpt>
      <trkpt lat="42.244031" lon="1.431025">
        <ele>962.260625</ele>
        <time>2022-05-22T09:15:18.897Z</time>
      </trkpt>
      <trkpt lat="42.244149" lon="1.430988">
        <ele>962.625755</ele>
        <time>2022-05-22T09:15:21.897Z</time>
      </trkpt>
      <trkpt lat="42.244260" lon="1.430907">
        <ele>963.006027</ele>
        <time>2022-05-22T09:15:24.898Z</time>
      </trkpt>
      <trkpt lat="42.244321" lon="1.430793">
        <ele>963.319894</ele>
        <time>2022-05-22T09:15:27.901Z</time>
      </trkpt>
      <trkpt lat="42.244305" lon="1.430623">
        <ele>963.702277</ele>
        <time>2022-05-22T09:15:30.897Z</time>
      </trkpt>
      <trkpt lat="42.244278" lon="1.430501">
        <ele>963.986407</ele>
        <time>2022-05-22T09:15:32.899Z</time>
      </trkpt>
      <trkpt lat="42.244195" lon="1.430396">
        <ele>964.329162</ele>
        <time>2022-05-22T09:15:35.898Z</time>
      </trkpt>
      <trkpt lat="42.244094" lon="1.430416">
        <ele>964.636848</ele>
        <time>2022-05-22T09:15:42.898Z</time>
      </trkpt>
      <trkpt lat="42.244012" lon="1.430352">
        <ele>964.922301</ele>
        <time>2022-05-22T09:15:45.899Z</time>
      </trkpt>
      <trkpt lat="42.243948" lon="1.430249">
        <ele>965.222360</ele>
        <time>2022-05-22T09:15:49.897Z</time>
      </trkpt>
      <trkpt lat="42.243928" lon="1.430112">
        <ele>965.533944</ele>
        <time>2022-05-22T09:15:54.901Z</time>
      </trkpt>
      <trkpt lat="42.243866" lon="1.429990">
        <ele>965.864143</ele>
        <time>2022-05-22T09:16:00.899Z</time>
      </trkpt>
      <trkpt lat="42.243776" lon="1.429909">
        <ele>965.947250</ele>
        <time>2022-05-22T09:16:04.900Z</time>
      </trkpt>
      <trkpt lat="42.243704" lon="1.429785">
        <ele>965.957198</ele>
        <time>2022-05-22T09:16:07.900Z</time>
      </trkpt>
      <trkpt lat="42.243613" lon="1.429706">
        <ele>965.966422</ele>
        <time>2022-05-22T09:16:10.897Z</time>
      </trkpt>
      <trkpt lat="42.243489" lon="1.429620">
        <ele>965.978308</ele>
        <time>2022-05-22T09:16:13.896Z</time>
      </trkpt>
      <trkpt lat="42.243402" lon="1.429559">
        <ele>965.986666</ele>
        <time>2022-05-22T09:16:15.897Z</time>
      </trkpt>
      <trkpt lat="42.243298" lon="1.429502">
        <ele>965.996236</ele>
        <time>2022-05-22T09:16:18.893Z</time>
      </trkpt>
      <trkpt lat="42.243185" lon="1.429479">
        <ele>966.005980</ele>
        <time>2022-05-22T09:16:21.897Z</time>
      </trkpt>
      <trkpt lat="42.243065" lon="1.429498">
        <ele>966.016283</ele>
        <time>2022-05-22T09:16:25.897Z</time>
      </trkpt>
      <trkpt lat="42.242973" lon="1.429557">
        <ele>966.024967</ele>
        <time>2022-05-22T09:16:29.902Z</time>
      </trkpt>
      <trkpt lat="42.242866" lon="1.429573">
        <ele>966.034147</ele>
        <time>2022-05-22T09:16:33.902Z</time>
      </trkpt>
      <trkpt lat="42.242773" lon="1.429499">
        <ele>966.043350</ele>
        <time>2022-05-22T09:16:36.904Z</time>
      </trkpt>
      <trkpt lat="42.242695" lon="1.429436">
        <ele>966.051100</ele>
        <time>2022-05-22T09:16:38.905Z</time>
      </trkpt>
      <trkpt lat="42.242579" lon="1.429404">
        <ele>966.061195</ele>
        <time>2022-05-22T09:16:41.899Z</time>
      </trkpt>
      <trkpt lat="42.242489" lon="1.429407">
        <ele>966.068872</ele>
        <time>2022-05-22T09:16:45.900Z</time>
      </trkpt>
      <trkpt lat="42.242374" lon="1.429398">
        <ele>966.078695</ele>
        <time>2022-05-22T09:16:48.902Z</time>
      </trkpt>
      <trkpt lat="42.242245" lon="1.429349">
        <ele>966.090121</ele>
        <time>2022-05-22T09:16:51.898Z</time>
      </trkpt>
      <trkpt lat="42.242156" lon="1.429317">
        <ele>966.378692</ele>
        <time>2022-05-22T09:16:53.891Z</time>
      </trkpt>
      <trkpt lat="42.242045" lon="1.429284">
        <ele>967.003323</ele>
        <time>2022-05-22T09:16:56.899Z</time>
      </trkpt>
      <trkpt lat="42.241949" lon="1.429221">
        <ele>967.589887</ele>
        <time>2022-05-22T09:16:59.901Z</time>
      </trkpt>
      <trkpt lat="42.241832" lon="1.429158">
        <ele>968.282099</ele>
        <time>2022-05-22T09:17:02.901Z</time>
      </trkpt>
      <trkpt lat="42.241727" lon="1.429114">
        <ele>968.886286</ele>
        <time>2022-05-22T09:17:06.900Z</time>
      </trkpt>
      <trkpt lat="42.241647" lon="1.429050">
        <ele>969.397272</ele>
        <time>2022-05-22T09:17:12.900Z</time>
      </trkpt>
      <trkpt lat="42.241569" lon="1.428972">
        <ele>969.930630</ele>
        <time>2022-05-22T09:17:17.900Z</time>
      </trkpt>
      <trkpt lat="42.241478" lon="1.428937">
        <ele>970.450625</ele>
        <time>2022-05-22T09:17:20.901Z</time>
      </trkpt>
      <trkpt lat="42.241391" lon="1.428894">
        <ele>970.959760</ele>
        <time>2022-05-22T09:17:22.899Z</time>
      </trkpt>
      <trkpt lat="42.241265" lon="1.428838">
        <ele>971.688749</ele>
        <time>2022-05-22T09:17:25.900Z</time>
      </trkpt>
      <trkpt lat="42.241182" lon="1.428734">
        <ele>972.310938</ele>
        <time>2022-05-22T09:17:28.903Z</time>
      </trkpt>
      <trkpt lat="42.241097" lon="1.428646">
        <ele>972.899507</ele>
        <time>2022-05-22T09:17:32.900Z</time>
      </trkpt>
      <trkpt lat="42.241096" lon="1.428517">
        <ele>973.424392</ele>
        <time>2022-05-22T09:17:35.904Z</time>
      </trkpt>
      <trkpt lat="42.241115" lon="1.428349">
        <ele>974.115855</ele>
        <time>2022-05-22T09:17:38.908Z</time>
      </trkpt>
      <trkpt lat="42.241205" lon="1.428288">
        <ele>974.669250</ele>
        <time>2022-05-22T09:17:45.899Z</time>
      </trkpt>
      <trkpt lat="42.241301" lon="1.428255">
        <ele>975.213661</ele>
        <time>2022-05-22T09:17:50.905Z</time>
      </trkpt>
      <trkpt lat="42.241365" lon="1.428136">
        <ele>975.812102</ele>
        <time>2022-05-22T09:18:01.900Z</time>
      </trkpt>
      <trkpt lat="42.241448" lon="1.428041">
        <ele>976.311296</ele>
        <time>2022-05-22T09:18:04.900Z</time>
      </trkpt>
      <trkpt lat="42.241546" lon="1.427990">
        <ele>976.756455</ele>
        <time>2022-05-22T09:18:08.900Z</time>
      </trkpt>
      <trkpt lat="42.241650" lon="1.427949">
        <ele>977.215676</ele>
        <time>2022-05-22T09:18:12.897Z</time>
      </trkpt>
      <trkpt lat="42.241755" lon="1.427902">
        <ele>977.684545</ele>
        <time>2022-05-22T09:18:16.900Z</time>
      </trkpt>
      <trkpt lat="42.241846" lon="1.427849">
        <ele>978.104599</ele>
        <time>2022-05-22T09:18:21.901Z</time>
      </trkpt>
      <trkpt lat="42.241965" lon="1.427775">
        <ele>978.659894</ele>
        <time>2022-05-22T09:18:24.895Z</time>
      </trkpt>
      <trkpt lat="42.242071" lon="1.427713">
        <ele>979.149515</ele>
        <time>2022-05-22T09:18:28.902Z</time>
      </trkpt>
      <trkpt lat="42.242154" lon="1.427769">
        <ele>979.542777</ele>
        <time>2022-05-22T09:18:33.901Z</time>
      </trkpt>
      <trkpt lat="42.242247" lon="1.427781">
        <ele>979.938775</ele>
        <time>2022-05-22T09:18:39.903Z</time>
      </trkpt>
      <trkpt lat="42.242261" lon="1.427656">
        <ele>980.335486</ele>
        <time>2022-05-22T09:18:43.906Z</time>
      </trkpt>
      <trkpt lat="42.242287" lon="1.427520">
        <ele>980.776252</ele>
        <time>2022-05-22T09:18:47.907Z</time>
      </trkpt>
      <trkpt lat="42.242242" lon="1.427399">
        <ele>981.201166</ele>
        <time>2022-05-22T09:18:52.903Z</time>
      </trkpt>
      <trkpt lat="42.242149" lon="1.427291">
        <ele>981.721023</ele>
        <time>2022-05-22T09:18:56.905Z</time>
      </trkpt>
      <trkpt lat="42.242122" lon="1.427176">
        <ele>982.099605</ele>
        <time>2022-05-22T09:19:00.906Z</time>
      </trkpt>
      <trkpt lat="42.242097" lon="1.427019">
        <ele>982.603537</ele>
        <time>2022-05-22T09:19:07.903Z</time>
      </trkpt>
      <trkpt lat="42.242043" lon="1.426888">
        <ele>983.074043</ele>
        <time>2022-05-22T09:19:10.899Z</time>
      </trkpt>
      <trkpt lat="42.241974" lon="1.426776">
        <ele>983.531275</ele>
        <time>2022-05-22T09:19:15.900Z</time>
      </trkpt>
      <trkpt lat="42.241904" lon="1.426661">
        <ele>984.527084</ele>
        <time>2022-05-22T09:19:19.901Z</time>
      </trkpt>
      <trkpt lat="42.241887" lon="1.426537">
        <ele>985.451101</ele>
        <time>2022-05-22T09:19:22.899Z</time>
      </trkpt>
      <trkpt lat="42.241843" lon="1.426415">
        <ele>986.445452</ele>
        <time>2022-05-22T09:19:26.901Z</time>
      </trkpt>
      <trkpt lat="42.241757" lon="1.426319">
        <ele>987.549665</ele>
        <time>2022-05-22T09:19:30.905Z</time>
      </trkpt>
      <trkpt lat="42.241702" lon="1.426201">
        <ele>988.571366</ele>
        <time>2022-05-22T09:19:35.900Z</time>
      </trkpt>
      <trkpt lat="42.241706" lon="1.426070">
        <ele>989.532045</ele>
        <time>2022-05-22T09:19:40.904Z</time>
      </trkpt>
      <trkpt lat="42.241702" lon="1.425934">
        <ele>990.529330</ele>
        <time>2022-05-22T09:19:43.907Z</time>
      </trkpt>
      <trkpt lat="42.241694" lon="1.425802">
        <ele>991.499755</ele>
        <time>2022-05-22T09:19:46.905Z</time>
      </trkpt>
      <trkpt lat="42.241705" lon="1.425671">
        <ele>992.465773</ele>
        <time>2022-05-22T09:19:50.902Z</time>
      </trkpt>
      <trkpt lat="42.241831" lon="1.425627">
        <ele>993.753844</ele>
        <time>2022-05-22T09:19:54.901Z</time>
      </trkpt>
      <trkpt lat="42.241938" lon="1.425597">
        <ele>994.835438</ele>
        <time>2022-05-22T09:19:57.905Z</time>
      </trkpt>
      <trkpt lat="42.242046" lon="1.425535">
        <ele>995.996886</ele>
        <time>2022-05-22T09:20:01.931Z</time>
      </trkpt>
      <trkpt lat="42.242150" lon="1.425447">
        <ele>997.211494</ele>
        <time>2022-05-22T09:20:07.906Z</time>
      </trkpt>
      <trkpt lat="42.242235" lon="1.425384">
        <ele>998.171095</ele>
        <time>2022-05-22T09:20:10.904Z</time>
      </trkpt>
      <trkpt lat="42.242342" lon="1.425368">
        <ele>999.236586</ele>
        <time>2022-05-22T09:20:13.912Z</time>
      </trkpt>
      <trkpt lat="42.242438" lon="1.425390">
        <ele>1000.200312</ele>
        <time>2022-05-22T09:20:15.908Z</time>
      </trkpt>
      <trkpt lat="42.242544" lon="1.425445">
        <ele>1001.324173</ele>
        <time>2022-05-22T09:20:18.905Z</time>
      </trkpt>
      <trkpt lat="42.242648" lon="1.425384">
        <ele>1003.690896</ele>
        <time>2022-05-22T09:20:23.897Z</time>
      </trkpt>
      <trkpt lat="42.242747" lon="1.425339">
        <ele>1005.959541</ele>
        <time>2022-05-22T09:20:27.907Z</time>
      </trkpt>
      <trkpt lat="42.242839" lon="1.425285">
        <ele>1008.138168</ele>
        <time>2022-05-22T09:20:33.900Z</time>
      </trkpt>
      <trkpt lat="42.242955" lon="1.425311">
        <ele>1010.692010</ele>
        <time>2022-05-22T09:20:38.900Z</time>
      </trkpt>
      <trkpt lat="42.243074" lon="1.425296">
        <ele>1013.287791</ele>
        <time>2022-05-22T09:20:41.903Z</time>
      </trkpt>
      <trkpt lat="42.243180" lon="1.425257">
        <ele>1015.673867</ele>
        <time>2022-05-22T09:20:45.904Z</time>
      </trkpt>
      <trkpt lat="42.243274" lon="1.425273">
        <ele>1017.731590</ele>
        <time>2022-05-22T09:20:49.903Z</time>
      </trkpt>
      <trkpt lat="42.243361" lon="1.425301">
        <ele>1019.674027</ele>
        <time>2022-05-22T09:20:54.955Z</time>
      </trkpt>
      <trkpt lat="42.243461" lon="1.425332">
        <ele>1021.902378</ele>
        <time>2022-05-22T09:20:58.896Z</time>
      </trkpt>
      <trkpt lat="42.243573" lon="1.425325">
        <ele>1024.337500</ele>
        <time>2022-05-22T09:21:02.912Z</time>
      </trkpt>
      <trkpt lat="42.243673" lon="1.425318">
        <ele>1026.512307</ele>
        <time>2022-05-22T09:21:08.908Z</time>
      </trkpt>
      <trkpt lat="42.243776" lon="1.425336">
        <ele>1028.767999</ele>
        <time>2022-05-22T09:21:13.915Z</time>
      </trkpt>
      <trkpt lat="42.243875" lon="1.425320">
        <ele>1030.933507</ele>
        <time>2022-05-22T09:21:18.906Z</time>
      </trkpt>
      <trkpt lat="42.243987" lon="1.425314">
        <ele>1033.367938</ele>
        <time>2022-05-22T09:21:23.908Z</time>
      </trkpt>
      <trkpt lat="42.244088" lon="1.425275">
        <ele>1035.649413</ele>
        <time>2022-05-22T09:21:27.916Z</time>
      </trkpt>
      <trkpt lat="42.244191" lon="1.425257">
        <ele>1037.905105</ele>
        <time>2022-05-22T09:21:32.918Z</time>
      </trkpt>
      <trkpt lat="42.244285" lon="1.425216">
        <ele>1040.050471</ele>
        <time>2022-05-22T09:21:36.938Z</time>
      </trkpt>
      <trkpt lat="42.244381" lon="1.425180">
        <ele>1041.141090</ele>
        <time>2022-05-22T09:21:41.904Z</time>
      </trkpt>
      <trkpt lat="42.244478" lon="1.425175">
        <ele>1041.952957</ele>
        <time>2022-05-22T09:21:44.901Z</time>
      </trkpt>
      <trkpt lat="42.244571" lon="1.425174">
        <ele>1042.730804</ele>
        <time>2022-05-22T09:21:46.908Z</time>
      </trkpt>
      <trkpt lat="42.244694" lon="1.425201">
        <ele>1043.773031</ele>
        <time>2022-05-22T09:21:48.903Z</time>
      </trkpt>
      <trkpt lat="42.244782" lon="1.425156">
        <ele>1044.560005</ele>
        <time>2022-05-22T09:21:53.905Z</time>
      </trkpt>
      <trkpt lat="42.244878" lon="1.425137">
        <ele>1045.371491</ele>
        <time>2022-05-22T09:21:58.903Z</time>
      </trkpt>
      <trkpt lat="42.244968" lon="1.425147">
        <ele>1046.126764</ele>
        <time>2022-05-22T09:22:02.900Z</time>
      </trkpt>
      <trkpt lat="42.244968" lon="1.424988">
        <ele>1047.111203</ele>
        <time>2022-05-22T09:22:08.900Z</time>
      </trkpt>
      <trkpt lat="42.244944" lon="1.424854">
        <ele>1047.964794</ele>
        <time>2022-05-22T09:22:11.905Z</time>
      </trkpt>
      <trkpt lat="42.244907" lon="1.424734">
        <ele>1048.769637</ele>
        <time>2022-05-22T09:22:15.903Z</time>
      </trkpt>
      <trkpt lat="42.244853" lon="1.424602">
        <ele>1049.703398</ele>
        <time>2022-05-22T09:22:19.903Z</time>
      </trkpt>
      <trkpt lat="42.244789" lon="1.424483">
        <ele>1050.614096</ele>
        <time>2022-05-22T09:22:23.907Z</time>
      </trkpt>
      <trkpt lat="42.244728" lon="1.424394">
        <ele>1051.365051</ele>
        <time>2022-05-22T09:22:26.900Z</time>
      </trkpt>
      <trkpt lat="42.244651" lon="1.424319">
        <ele>1052.159010</ele>
        <time>2022-05-22T09:22:29.907Z</time>
      </trkpt>
      <trkpt lat="42.244576" lon="1.424243">
        <ele>1052.943162</ele>
        <time>2022-05-22T09:22:32.907Z</time>
      </trkpt>
      <trkpt lat="42.244510" lon="1.424145">
        <ele>1053.763449</ele>
        <time>2022-05-22T09:22:36.907Z</time>
      </trkpt>
      <trkpt lat="42.244449" lon="1.424050">
        <ele>1054.542075</ele>
        <time>2022-05-22T09:22:39.900Z</time>
      </trkpt>
      <trkpt lat="42.244407" lon="1.423899">
        <ele>1055.514089</ele>
        <time>2022-05-22T09:22:43.912Z</time>
      </trkpt>
      <trkpt lat="42.244377" lon="1.423749">
        <ele>1055.576083</ele>
        <time>2022-05-22T09:22:46.903Z</time>
      </trkpt>
      <trkpt lat="42.244343" lon="1.423625">
        <ele>1055.628842</ele>
        <time>2022-05-22T09:22:49.904Z</time>
      </trkpt>
      <trkpt lat="42.244328" lon="1.423481">
        <ele>1055.686862</ele>
        <time>2022-05-22T09:22:52.909Z</time>
      </trkpt>
      <trkpt lat="42.244370" lon="1.423347">
        <ele>1055.744921</ele>
        <time>2022-05-22T09:22:56.901Z</time>
      </trkpt>
      <trkpt lat="42.244447" lon="1.423272">
        <ele>1055.796085</ele>
        <time>2022-05-22T09:23:00.904Z</time>
      </trkpt>
      <trkpt lat="42.244539" lon="1.423267">
        <ele>1055.845710</ele>
        <time>2022-05-22T09:23:05.907Z</time>
      </trkpt>
      <trkpt lat="42.244629" lon="1.423247">
        <ele>1055.894869</ele>
        <time>2022-05-22T09:23:09.911Z</time>
      </trkpt>
      <trkpt lat="42.244728" lon="1.423194">
        <ele>1055.952264</ele>
        <time>2022-05-22T09:23:14.905Z</time>
      </trkpt>
      <trkpt lat="42.244824" lon="1.423108">
        <ele>1056.014349</ele>
        <time>2022-05-22T09:23:18.901Z</time>
      </trkpt>
      <trkpt lat="42.244913" lon="1.423032">
        <ele>1056.071097</ele>
        <time>2022-05-22T09:23:21.905Z</time>
      </trkpt>
      <trkpt lat="42.245016" lon="1.423000">
        <ele>1056.128060</ele>
        <time>2022-05-22T09:23:25.898Z</time>
      </trkpt>
      <trkpt lat="42.245107" lon="1.422967">
        <ele>1056.178843</ele>
        <time>2022-05-22T09:23:29.902Z</time>
      </trkpt>
      <trkpt lat="42.245187" lon="1.422874">
        <ele>1056.235728</ele>
        <time>2022-05-22T09:23:33.904Z</time>
      </trkpt>
      <trkpt lat="42.245270" lon="1.422815">
        <ele>1056.286277</ele>
        <time>2022-05-22T09:23:37.904Z</time>
      </trkpt>
      <trkpt lat="42.245370" lon="1.422747">
        <ele>1056.346617</ele>
        <time>2022-05-22T09:23:42.903Z</time>
      </trkpt>
      <trkpt lat="42.245443" lon="1.422626">
        <ele>1056.408896</ele>
        <time>2022-05-22T09:23:46.906Z</time>
      </trkpt>
      <trkpt lat="42.245484" lon="1.422515">
        <ele>1056.458390</ele>
        <time>2022-05-22T09:23:50.904Z</time>
      </trkpt>
      <trkpt lat="42.245494" lon="1.422365">
        <ele>1056.692344</ele>
        <time>2022-05-22T09:23:55.901Z</time>
      </trkpt>
      <trkpt lat="42.245528" lon="1.422215">
        <ele>1057.050461</ele>
        <time>2022-05-22T09:24:00.901Z</time>
      </trkpt>
      <trkpt lat="42.245571" lon="1.422104">
        <ele>1057.336454</ele>
        <time>2022-05-22T09:24:03.901Z</time>
      </trkpt>
      <trkpt lat="42.245626" lon="1.422004">
        <ele>1057.620847</ele>
        <time>2022-05-22T09:24:07.904Z</time>
      </trkpt>
      <trkpt lat="42.245723" lon="1.421947">
        <ele>1057.947050</ele>
        <time>2022-05-22T09:24:11.904Z</time>
      </trkpt>
      <trkpt lat="42.245809" lon="1.421871">
        <ele>1058.263963</ele>
        <time>2022-05-22T09:24:15.912Z</time>
      </trkpt>
      <trkpt lat="42.245898" lon="1.421778">
        <ele>1058.610948</ele>
        <time>2022-05-22T09:24:19.907Z</time>
      </trkpt>
      <trkpt lat="42.245997" lon="1.421714">
        <ele>1058.949400</ele>
        <time>2022-05-22T09:24:23.902Z</time>
      </trkpt>
      <trkpt lat="42.246090" lon="1.421645">
        <ele>1059.276600</ele>
        <time>2022-05-22T09:24:28.903Z</time>
      </trkpt>
      <trkpt lat="42.246183" lon="1.421598">
        <ele>1059.582804</ele>
        <time>2022-05-22T09:24:31.902Z</time>
      </trkpt>
      <trkpt lat="42.246281" lon="1.421572">
        <ele>1059.890787</ele>
        <time>2022-05-22T09:24:34.906Z</time>
      </trkpt>
      <trkpt lat="42.246385" lon="1.421565">
        <ele>1060.211898</ele>
        <time>2022-05-22T09:24:37.902Z</time>
      </trkpt>
      <trkpt lat="42.246485" lon="1.421525">
        <ele>1060.533510</ele>
        <time>2022-05-22T09:24:41.906Z</time>
      </trkpt>
      <trkpt lat="42.246539" lon="1.421409">
        <ele>1060.846323</ele>
        <time>2022-05-22T09:24:45.909Z</time>
      </trkpt>
      <trkpt lat="42.246565" lon="1.421291">
        <ele>1061.127372</ele>
        <time>2022-05-22T09:24:48.909Z</time>
      </trkpt>
      <trkpt lat="42.246523" lon="1.421144">
        <ele>1061.487070</ele>
        <time>2022-05-22T09:24:52.903Z</time>
      </trkpt>
      <trkpt lat="42.246488" lon="1.421023">
        <ele>1061.783626</ele>
        <time>2022-05-22T09:24:56.903Z</time>
      </trkpt>
      <trkpt lat="42.246461" lon="1.420901">
        <ele>1062.110173</ele>
        <time>2022-05-22T09:25:01.906Z</time>
      </trkpt>
      <trkpt lat="42.246430" lon="1.420750">
        <ele>1062.746583</ele>
        <time>2022-05-22T09:25:06.900Z</time>
      </trkpt>
      <trkpt lat="42.246403" lon="1.420617">
        <ele>1063.306685</ele>
        <time>2022-05-22T09:25:10.904Z</time>
      </trkpt>
      <trkpt lat="42.246409" lon="1.420487">
        <ele>1063.835686</ele>
        <time>2022-05-22T09:25:14.906Z</time>
      </trkpt>
      <trkpt lat="42.246440" lon="1.420356">
        <ele>1064.394245</ele>
        <time>2022-05-22T09:25:18.908Z</time>
      </trkpt>
      <trkpt lat="42.246460" lon="1.420231">
        <ele>1064.913636</ele>
        <time>2022-05-22T09:25:22.908Z</time>
      </trkpt>
      <trkpt lat="42.246474" lon="1.420079">
        <ele>1065.535720</ele>
        <time>2022-05-22T09:25:26.903Z</time>
      </trkpt>
      <trkpt lat="42.246464" lon="1.419940">
        <ele>1066.102906</ele>
        <time>2022-05-22T09:25:31.906Z</time>
      </trkpt>
      <trkpt lat="42.246451" lon="1.419781">
        <ele>1066.752586</ele>
        <time>2022-05-22T09:25:36.910Z</time>
      </trkpt>
      <trkpt lat="42.246471" lon="1.419663">
        <ele>1067.244225</ele>
        <time>2022-05-22T09:25:41.911Z</time>
      </trkpt>
      <trkpt lat="42.246486" lon="1.419535">
        <ele>1067.770551</ele>
        <time>2022-05-22T09:25:45.906Z</time>
      </trkpt>
      <trkpt lat="42.246523" lon="1.419401">
        <ele>1068.351397</ele>
        <time>2022-05-22T09:25:49.906Z</time>
      </trkpt>
      <trkpt lat="42.246507" lon="1.419262">
        <ele>1068.922707</ele>
        <time>2022-05-22T09:25:52.908Z</time>
      </trkpt>
      <trkpt lat="42.246527" lon="1.419136">
        <ele>1069.446067</ele>
        <time>2022-05-22T09:25:56.905Z</time>
      </trkpt>
      <trkpt lat="42.246523" lon="1.418992">
        <ele>1070.031311</ele>
        <time>2022-05-22T09:26:00.907Z</time>
      </trkpt>
      <trkpt lat="42.246543" lon="1.418853">
        <ele>1070.606402</ele>
        <time>2022-05-22T09:26:05.911Z</time>
      </trkpt>
      <trkpt lat="42.246613" lon="1.418764">
        <ele>1071.133796</ele>
        <time>2022-05-22T09:26:09.912Z</time>
      </trkpt>
      <trkpt lat="42.246694" lon="1.418658">
        <ele>1071.752519</ele>
        <time>2022-05-22T09:26:14.907Z</time>
      </trkpt>
      <trkpt lat="42.246794" lon="1.418614">
        <ele>1072.530462</ele>
        <time>2022-05-22T09:26:19.910Z</time>
      </trkpt>
      <trkpt lat="42.246831" lon="1.418481">
        <ele>1073.375142</ele>
        <time>2022-05-22T09:26:24.901Z</time>
      </trkpt>
      <trkpt lat="42.246831" lon="1.418316">
        <ele>1074.356071</ele>
        <time>2022-05-22T09:26:28.902Z</time>
      </trkpt>
      <trkpt lat="42.246823" lon="1.418193">
        <ele>1075.090126</ele>
        <time>2022-05-22T09:26:32.900Z</time>
      </trkpt>
      <trkpt lat="42.246808" lon="1.418060">
        <ele>1075.889939</ele>
        <time>2022-05-22T09:26:35.904Z</time>
      </trkpt>
      <trkpt lat="42.246823" lon="1.417908">
        <ele>1076.801577</ele>
        <time>2022-05-22T09:26:39.909Z</time>
      </trkpt>
      <trkpt lat="42.246821" lon="1.417769">
        <ele>1077.628091</ele>
        <time>2022-05-22T09:26:45.909Z</time>
      </trkpt>
      <trkpt lat="42.246759" lon="1.417638">
        <ele>1078.552459</ele>
        <time>2022-05-22T09:26:51.906Z</time>
      </trkpt>
      <trkpt lat="42.246701" lon="1.417526">
        <ele>1079.365059</ele>
        <time>2022-05-22T09:26:55.902Z</time>
      </trkpt>
      <trkpt lat="42.246619" lon="1.417420">
        <ele>1080.276542</ele>
        <time>2022-05-22T09:26:59.905Z</time>
      </trkpt>
      <trkpt lat="42.246569" lon="1.417298">
        <ele>1081.105576</ele>
        <time>2022-05-22T09:27:03.903Z</time>
      </trkpt>
      <trkpt lat="42.246538" lon="1.417156">
        <ele>1081.985719</ele>
        <time>2022-05-22T09:27:07.910Z</time>
      </trkpt>
      <trkpt lat="42.246553" lon="1.417032">
        <ele>1082.732683</ele>
        <time>2022-05-22T09:27:11.905Z</time>
      </trkpt>
      <trkpt lat="42.246632" lon="1.416948">
        <ele>1083.540095</ele>
        <time>2022-05-22T09:27:15.904Z</time>
      </trkpt>
      <trkpt lat="42.246719" lon="1.416989">
        <ele>1084.280092</ele>
        <time>2022-05-22T09:27:20.906Z</time>
      </trkpt>
      <trkpt lat="42.246735" lon="1.417114">
        <ele>1085.034248</ele>
        <time>2022-05-22T09:27:24.907Z</time>
      </trkpt>
      <trkpt lat="42.246760" lon="1.417234">
        <ele>1085.775366</ele>
        <time>2022-05-22T09:27:28.903Z</time>
      </trkpt>
      <trkpt lat="42.246841" lon="1.417332">
        <ele>1086.711856</ele>
        <time>2022-05-22T09:27:32.905Z</time>
      </trkpt>
      <trkpt lat="42.246927" lon="1.417385">
        <ele>1087.627143</ele>
        <time>2022-05-22T09:27:36.908Z</time>
      </trkpt>
      <trkpt lat="42.247011" lon="1.417453">
        <ele>1088.575363</ele>
        <time>2022-05-22T09:27:40.905Z</time>
      </trkpt>
      <trkpt lat="42.247078" lon="1.417572">
        <ele>1089.647010</ele>
        <time>2022-05-22T09:27:44.911Z</time>
      </trkpt>
      <trkpt lat="42.247112" lon="1.417688">
        <ele>1090.541274</ele>
        <time>2022-05-22T09:27:47.906Z</time>
      </trkpt>
      <trkpt lat="42.247138" lon="1.417812">
        <ele>1091.465043</ele>
        <time>2022-05-22T09:27:51.905Z</time>
      </trkpt>
      <trkpt lat="42.247170" lon="1.417947">
        <ele>1092.481088</ele>
        <time>2022-05-22T09:27:56.908Z</time>
      </trkpt>
      <trkpt lat="42.247195" lon="1.418071">
        <ele>1093.402263</ele>
        <time>2022-05-22T09:28:00.903Z</time>
      </trkpt>
      <trkpt lat="42.247205" lon="1.418198">
        <ele>1094.317702</ele>
        <time>2022-05-22T09:28:05.905Z</time>
      </trkpt>
      <trkpt lat="42.247145" lon="1.418308">
        <ele>1095.297082</ele>
        <time>2022-05-22T09:28:09.903Z</time>
      </trkpt>
      <trkpt lat="42.247069" lon="1.418420">
        <ele>1096.386125</ele>
        <time>2022-05-22T09:28:13.905Z</time>
      </trkpt>
      <trkpt lat="42.246984" lon="1.418529">
        <ele>1097.520941</ele>
        <time>2022-05-22T09:28:17.908Z</time>
      </trkpt>
      <trkpt lat="42.246908" lon="1.418638">
        <ele>1098.594233</ele>
        <time>2022-05-22T09:28:20.906Z</time>
      </trkpt>
      <trkpt lat="42.246856" lon="1.418762">
        <ele>1099.615749</ele>
        <time>2022-05-22T09:28:23.909Z</time>
      </trkpt>
      <trkpt lat="42.246843" lon="1.418881">
        <ele>1100.477953</ele>
        <time>2022-05-22T09:28:25.906Z</time>
      </trkpt>
      <trkpt lat="42.246818" lon="1.419028">
        <ele>1101.559067</ele>
        <time>2022-05-22T09:28:28.913Z</time>
      </trkpt>
      <trkpt lat="42.246792" lon="1.419175">
        <ele>1102.642391</ele>
        <time>2022-05-22T09:28:31.902Z</time>
      </trkpt>
      <trkpt lat="42.246784" lon="1.419303">
        <ele>1103.563133</ele>
        <time>2022-05-22T09:28:34.910Z</time>
      </trkpt>
      <trkpt lat="42.246791" lon="1.419427">
        <ele>1104.607377</ele>
        <time>2022-05-22T09:28:37.910Z</time>
      </trkpt>
      <trkpt lat="42.246797" lon="1.419581">
        <ele>1105.955081</ele>
        <time>2022-05-22T09:28:41.908Z</time>
      </trkpt>
      <trkpt lat="42.246787" lon="1.419714">
        <ele>1107.123379</ele>
        <time>2022-05-22T09:28:44.909Z</time>
      </trkpt>
      <trkpt lat="42.246783" lon="1.419849">
        <ele>1108.304120</ele>
        <time>2022-05-22T09:28:47.909Z</time>
      </trkpt>
      <trkpt lat="42.246799" lon="1.419971">
        <ele>1109.386909</ele>
        <time>2022-05-22T09:28:50.910Z</time>
      </trkpt>
      <trkpt lat="42.246796" lon="1.420104">
        <ele>1110.549766</ele>
        <time>2022-05-22T09:28:53.915Z</time>
      </trkpt>
      <trkpt lat="42.246833" lon="1.420222">
        <ele>1111.669693</ele>
        <time>2022-05-22T09:28:56.910Z</time>
      </trkpt>
      <trkpt lat="42.246902" lon="1.420331">
        <ele>1112.923072</ele>
        <time>2022-05-22T09:29:00.905Z</time>
      </trkpt>
      <trkpt lat="42.246962" lon="1.420468">
        <ele>1114.314190</ele>
        <time>2022-05-22T09:29:04.908Z</time>
      </trkpt>
      <trkpt lat="42.247006" lon="1.420591">
        <ele>1115.508043</ele>
        <time>2022-05-22T09:29:07.915Z</time>
      </trkpt>
      <trkpt lat="42.247079" lon="1.420728">
        <ele>1116.983231</ele>
        <time>2022-05-22T09:29:10.906Z</time>
      </trkpt>
      <trkpt lat="42.247145" lon="1.420864">
        <ele>1118.404399</ele>
        <time>2022-05-22T09:29:13.912Z</time>
      </trkpt>
      <trkpt lat="42.247195" lon="1.421020">
        <ele>1119.890014</ele>
        <time>2022-05-22T09:29:16.906Z</time>
      </trkpt>
      <trkpt lat="42.247173" lon="1.421178">
        <ele>1121.295019</ele>
        <time>2022-05-22T09:29:19.909Z</time>
      </trkpt>
      <trkpt lat="42.247112" lon="1.421297">
        <ele>1122.559983</ele>
        <time>2022-05-22T09:29:22.907Z</time>
      </trkpt>
      <trkpt lat="42.247013" lon="1.421380">
        <ele>1123.935535</ele>
        <time>2022-05-22T09:29:25.910Z</time>
      </trkpt>
      <trkpt lat="42.246910" lon="1.421475">
        <ele>1125.414998</ele>
        <time>2022-05-22T09:29:28.909Z</time>
      </trkpt>
      <trkpt lat="42.246832" lon="1.421547">
        <ele>1126.549269</ele>
        <time>2022-05-22T09:29:30.905Z</time>
      </trkpt>
      <trkpt lat="42.246763" lon="1.421679">
        <ele>1127.985499</ele>
        <time>2022-05-22T09:29:33.902Z</time>
      </trkpt>
      <trkpt lat="42.246698" lon="1.421799">
        <ele>1129.307092</ele>
        <time>2022-05-22T09:29:36.904Z</time>
      </trkpt>
      <trkpt lat="42.246648" lon="1.421914">
        <ele>1130.492468</ele>
        <time>2022-05-22T09:29:40.901Z</time>
      </trkpt>
      <trkpt lat="42.246611" lon="1.422064">
        <ele>1131.897731</ele>
        <time>2022-05-22T09:29:43.910Z</time>
      </trkpt>
      <trkpt lat="42.246551" lon="1.422217">
        <ele>1133.436623</ele>
        <time>2022-05-22T09:29:46.905Z</time>
      </trkpt>
      <trkpt lat="42.246489" lon="1.422329">
        <ele>1134.679633</ele>
        <time>2022-05-22T09:29:49.906Z</time>
      </trkpt>
      <trkpt lat="42.246424" lon="1.422428">
        <ele>1135.855776</ele>
        <time>2022-05-22T09:29:53.905Z</time>
      </trkpt>
      <trkpt lat="42.246364" lon="1.422557">
        <ele>1137.209863</ele>
        <time>2022-05-22T09:29:57.910Z</time>
      </trkpt>
      <trkpt lat="42.246327" lon="1.422673">
        <ele>1138.332508</ele>
        <time>2022-05-22T09:30:00.910Z</time>
      </trkpt>
      <trkpt lat="42.246299" lon="1.422793">
        <ele>1139.450799</ele>
        <time>2022-05-22T09:30:03.904Z</time>
      </trkpt>
      <trkpt lat="42.246280" lon="1.422913">
        <ele>1140.541485</ele>
        <time>2022-05-22T09:30:06.904Z</time>
      </trkpt>
      <trkpt lat="42.246224" lon="1.423054">
        <ele>1141.963673</ele>
        <time>2022-05-22T09:30:09.908Z</time>
      </trkpt>
      <trkpt lat="42.246169" lon="1.423159">
        <ele>1143.106923</ele>
        <time>2022-05-22T09:30:11.907Z</time>
      </trkpt>
      <trkpt lat="42.246096" lon="1.423262">
        <ele>1144.374323</ele>
        <time>2022-05-22T09:30:14.906Z</time>
      </trkpt>
      <trkpt lat="42.246042" lon="1.423367">
        <ele>1145.510681</ele>
        <time>2022-05-22T09:30:17.903Z</time>
      </trkpt>
      <trkpt lat="42.245967" lon="1.423477">
        <ele>1146.682503</ele>
        <time>2022-05-22T09:30:21.908Z</time>
      </trkpt>
      <trkpt lat="42.245948" lon="1.423606">
        <ele>1147.123765</ele>
        <time>2022-05-22T09:30:24.908Z</time>
      </trkpt>
      <trkpt lat="42.245973" lon="1.423748">
        <ele>1147.613445</ele>
        <time>2022-05-22T09:30:27.907Z</time>
      </trkpt>
      <trkpt lat="42.246028" lon="1.423873">
        <ele>1148.101290</ele>
        <time>2022-05-22T09:30:30.905Z</time>
      </trkpt>
      <trkpt lat="42.246089" lon="1.423978">
        <ele>1148.549077</ele>
        <time>2022-05-22T09:30:34.908Z</time>
      </trkpt>
      <trkpt lat="42.246140" lon="1.424082">
        <ele>1148.967595</ele>
        <time>2022-05-22T09:30:37.907Z</time>
      </trkpt>
      <trkpt lat="42.246187" lon="1.424210">
        <ele>1149.446943</ele>
        <time>2022-05-22T09:30:40.909Z</time>
      </trkpt>
      <trkpt lat="42.246236" lon="1.424332">
        <ele>1149.912599</ele>
        <time>2022-05-22T09:30:43.907Z</time>
      </trkpt>
      <trkpt lat="42.246294" lon="1.424453">
        <ele>1150.396209</ele>
        <time>2022-05-22T09:30:46.905Z</time>
      </trkpt>
      <trkpt lat="42.246366" lon="1.424583">
        <ele>1150.940896</ele>
        <time>2022-05-22T09:30:50.902Z</time>
      </trkpt>
      <trkpt lat="42.246429" lon="1.424678">
        <ele>1151.368793</ele>
        <time>2022-05-22T09:30:53.901Z</time>
      </trkpt>
      <trkpt lat="42.246496" lon="1.424780">
        <ele>1151.826283</ele>
        <time>2022-05-22T09:30:56.913Z</time>
      </trkpt>
      <trkpt lat="42.246578" lon="1.424860">
        <ele>1152.284688</ele>
        <time>2022-05-22T09:30:59.910Z</time>
      </trkpt>
      <trkpt lat="42.246647" lon="1.424987">
        <ele>1152.813193</ele>
        <time>2022-05-22T09:31:03.908Z</time>
      </trkpt>
      <trkpt lat="42.246704" lon="1.425102">
        <ele>1153.277496</ele>
        <time>2022-05-22T09:31:06.911Z</time>
      </trkpt>
      <trkpt lat="42.246783" lon="1.425170">
        <ele>1153.702027</ele>
        <time>2022-05-22T09:31:09.912Z</time>
      </trkpt>
      <trkpt lat="42.246870" lon="1.425250">
        <ele>1154.178987</ele>
        <time>2022-05-22T09:31:13.903Z</time>
      </trkpt>
      <trkpt lat="42.246908" lon="1.425364">
        <ele>1154.598422</ele>
        <time>2022-05-22T09:31:17.906Z</time>
      </trkpt>
      <trkpt lat="42.246917" lon="1.425510">
        <ele>1155.279915</ele>
        <time>2022-05-22T09:31:21.903Z</time>
      </trkpt>
      <trkpt lat="42.246904" lon="1.425632">
        <ele>1155.916993</ele>
        <time>2022-05-22T09:31:24.904Z</time>
      </trkpt>
      <trkpt lat="42.246825" lon="1.425737">
        <ele>1156.690814</ele>
        <time>2022-05-22T09:31:28.906Z</time>
      </trkpt>
      <trkpt lat="42.246733" lon="1.425765">
        <ele>1157.349286</ele>
        <time>2022-05-22T09:31:31.910Z</time>
      </trkpt>
      <trkpt lat="42.246632" lon="1.425808">
        <ele>1158.088691</ele>
        <time>2022-05-22T09:31:34.904Z</time>
      </trkpt>
      <trkpt lat="42.246535" lon="1.425860">
        <ele>1158.817355</ele>
        <time>2022-05-22T09:31:38.907Z</time>
      </trkpt>
      <trkpt lat="42.246455" lon="1.425978">
        <ele>1159.644399</ele>
        <time>2022-05-22T09:31:42.904Z</time>
      </trkpt>
      <trkpt lat="42.246363" lon="1.426078">
        <ele>1160.468897</ele>
        <time>2022-05-22T09:31:46.900Z</time>
      </trkpt>
      <trkpt lat="42.246288" lon="1.426160">
        <ele>1161.142595</ele>
        <time>2022-05-22T09:31:49.905Z</time>
      </trkpt>
      <trkpt lat="42.246186" lon="1.426169">
        <ele>1161.856306</ele>
        <time>2022-05-22T09:31:52.906Z</time>
      </trkpt>
      <trkpt lat="42.246090" lon="1.426210">
        <ele>1162.559308</ele>
        <time>2022-05-22T09:31:56.907Z</time>
      </trkpt>
      <trkpt lat="42.245988" lon="1.426284">
        <ele>1163.367712</ele>
        <time>2022-05-22T09:32:01.907Z</time>
      </trkpt>
      <trkpt lat="42.245901" lon="1.426354">
        <ele>1164.074759</ele>
        <time>2022-05-22T09:32:05.913Z</time>
      </trkpt>
      <trkpt lat="42.245813" lon="1.426428">
        <ele>1164.798524</ele>
        <time>2022-05-22T09:32:10.911Z</time>
      </trkpt>
      <trkpt lat="42.245731" lon="1.426496">
        <ele>1165.470347</ele>
        <time>2022-05-22T09:32:14.910Z</time>
      </trkpt>
      <trkpt lat="42.245641" lon="1.426552">
        <ele>1166.162212</ele>
        <time>2022-05-22T09:32:18.904Z</time>
      </trkpt>
      <trkpt lat="42.245533" lon="1.426586">
        <ele>1166.936507</ele>
        <time>2022-05-22T09:32:22.909Z</time>
      </trkpt>
      <trkpt lat="42.245442" lon="1.426620">
        <ele>1167.627064</ele>
        <time>2022-05-22T09:32:25.904Z</time>
      </trkpt>
      <trkpt lat="42.245353" lon="1.426653">
        <ele>1168.339056</ele>
        <time>2022-05-22T09:32:28.910Z</time>
      </trkpt>
      <trkpt lat="42.245257" lon="1.426733">
        <ele>1169.209238</ele>
        <time>2022-05-22T09:32:32.913Z</time>
      </trkpt>
      <trkpt lat="42.245187" lon="1.426818">
        <ele>1169.935365</ele>
        <time>2022-05-22T09:32:35.905Z</time>
      </trkpt>
      <trkpt lat="42.245189" lon="1.426964">
        <ele>1170.769299</ele>
        <time>2022-05-22T09:32:39.906Z</time>
      </trkpt>
      <trkpt lat="42.245266" lon="1.427047">
        <ele>1171.529260</ele>
        <time>2022-05-22T09:32:43.905Z</time>
      </trkpt>
      <trkpt lat="42.245360" lon="1.427085">
        <ele>1172.286205</ele>
        <time>2022-05-22T09:32:47.904Z</time>
      </trkpt>
      <trkpt lat="42.245469" lon="1.427078">
        <ele>1173.128043</ele>
        <time>2022-05-22T09:32:52.906Z</time>
      </trkpt>
      <trkpt lat="42.245560" lon="1.427042">
        <ele>1173.859554</ele>
        <time>2022-05-22T09:32:57.912Z</time>
      </trkpt>
      <trkpt lat="42.245630" lon="1.426964">
        <ele>1174.559585</ele>
        <time>2022-05-22T09:33:01.902Z</time>
      </trkpt>
      <trkpt lat="42.245711" lon="1.426859">
        <ele>1175.425636</ele>
        <time>2022-05-22T09:33:05.907Z</time>
      </trkpt>
      <trkpt lat="42.245784" lon="1.426780">
        <ele>1176.147228</ele>
        <time>2022-05-22T09:33:09.910Z</time>
      </trkpt>
      <trkpt lat="42.245847" lon="1.426690">
        <ele>1176.854607</ele>
        <time>2022-05-22T09:33:12.909Z</time>
      </trkpt>
      <trkpt lat="42.245945" lon="1.426653">
        <ele>1177.639607</ele>
        <time>2022-05-22T09:33:16.905Z</time>
      </trkpt>
      <trkpt lat="42.246036" lon="1.426658">
        <ele>1178.342213</ele>
        <time>2022-05-22T09:33:19.903Z</time>
      </trkpt>
      <trkpt lat="42.246128" lon="1.426627">
        <ele>1179.073700</ele>
        <time>2022-05-22T09:33:23.911Z</time>
      </trkpt>
      <trkpt lat="42.246222" lon="1.426557">
        <ele>1179.901755</ele>
        <time>2022-05-22T09:33:27.902Z</time>
      </trkpt>
      <trkpt lat="42.246288" lon="1.426459">
        <ele>1180.658368</ele>
        <time>2022-05-22T09:33:32.908Z</time>
      </trkpt>
      <trkpt lat="42.246393" lon="1.426437">
        <ele>1181.167891</ele>
        <time>2022-05-22T09:33:37.910Z</time>
      </trkpt>
      <trkpt lat="42.246486" lon="1.426390">
        <ele>1181.155247</ele>
        <time>2022-05-22T09:33:41.903Z</time>
      </trkpt>
      <trkpt lat="42.246590" lon="1.426380">
        <ele>1181.141970</ele>
        <time>2022-05-22T09:33:46.902Z</time>
      </trkpt>
      <trkpt lat="42.246695" lon="1.426369">
        <ele>1181.128559</ele>
        <time>2022-05-22T09:33:52.902Z</time>
      </trkpt>
      <trkpt lat="42.246771" lon="1.426265">
        <ele>1181.114783</ele>
        <time>2022-05-22T09:33:56.906Z</time>
      </trkpt>
      <trkpt lat="42.246861" lon="1.426200">
        <ele>1181.101788</ele>
        <time>2022-05-22T09:33:59.903Z</time>
      </trkpt>
      <trkpt lat="42.246961" lon="1.426170">
        <ele>1181.088744</ele>
        <time>2022-05-22T09:34:02.904Z</time>
      </trkpt>
      <trkpt lat="42.247055" lon="1.426152">
        <ele>1181.076654</ele>
        <time>2022-05-22T09:34:07.899Z</time>
      </trkpt>
      <trkpt lat="42.247158" lon="1.426139">
        <ele>1181.063481</ele>
        <time>2022-05-22T09:34:13.900Z</time>
      </trkpt>
      <trkpt lat="42.247279" lon="1.426152">
        <ele>1181.048024</ele>
        <time>2022-05-22T09:34:17.894Z</time>
      </trkpt>
      <trkpt lat="42.247379" lon="1.426150">
        <ele>1181.035289</ele>
        <time>2022-05-22T09:34:21.901Z</time>
      </trkpt>
      <trkpt lat="42.247480" lon="1.426125">
        <ele>1181.022213</ele>
        <time>2022-05-22T09:34:24.899Z</time>
      </trkpt>
      <trkpt lat="42.247539" lon="1.426031">
        <ele>1181.010596</ele>
        <time>2022-05-22T09:34:28.901Z</time>
      </trkpt>
      <trkpt lat="42.247558" lon="1.425878">
        <ele>1180.995972</ele>
        <time>2022-05-22T09:34:32.901Z</time>
      </trkpt>
      <trkpt lat="42.247544" lon="1.425734">
        <ele>1180.982282</ele>
        <time>2022-05-22T09:34:36.902Z</time>
      </trkpt>
      <trkpt lat="42.247521" lon="1.425589">
        <ele>1180.968304</ele>
        <time>2022-05-22T09:34:41.909Z</time>
      </trkpt>
      <trkpt lat="42.247453" lon="1.425470">
        <ele>1180.954133</ele>
        <time>2022-05-22T09:34:44.902Z</time>
      </trkpt>
      <trkpt lat="42.247384" lon="1.425335">
        <ele>1181.195564</ele>
        <time>2022-05-22T09:34:47.899Z</time>
      </trkpt>
      <trkpt lat="42.247337" lon="1.425160">
        <ele>1182.041564</ele>
        <time>2022-05-22T09:34:50.906Z</time>
      </trkpt>
      <trkpt lat="42.247281" lon="1.425027">
        <ele>1182.736906</ele>
        <time>2022-05-22T09:34:53.908Z</time>
      </trkpt>
      <trkpt lat="42.247210" lon="1.424913">
        <ele>1183.413941</ele>
        <time>2022-05-22T09:34:56.907Z</time>
      </trkpt>
      <trkpt lat="42.247163" lon="1.424792">
        <ele>1184.034922</ele>
        <time>2022-05-22T09:34:59.910Z</time>
      </trkpt>
      <trkpt lat="42.247109" lon="1.424688">
        <ele>1184.612218</ele>
        <time>2022-05-22T09:35:02.906Z</time>
      </trkpt>
      <trkpt lat="42.247067" lon="1.424575">
        <ele>1185.186837</ele>
        <time>2022-05-22T09:35:05.902Z</time>
      </trkpt>
      <trkpt lat="42.247048" lon="1.424454">
        <ele>1185.748950</ele>
        <time>2022-05-22T09:35:08.906Z</time>
      </trkpt>
      <trkpt lat="42.246998" lon="1.424325">
        <ele>1186.410683</ele>
        <time>2022-05-22T09:35:11.898Z</time>
      </trkpt>
      <trkpt lat="42.246944" lon="1.424191">
        <ele>1187.104028</ele>
        <time>2022-05-22T09:35:14.906Z</time>
      </trkpt>
      <trkpt lat="42.246878" lon="1.424049">
        <ele>1187.865998</ele>
        <time>2022-05-22T09:35:17.905Z</time>
      </trkpt>
      <trkpt lat="42.246818" lon="1.423904">
        <ele>1188.620908</ele>
        <time>2022-05-22T09:35:20.897Z</time>
      </trkpt>
      <trkpt lat="42.246791" lon="1.423775">
        <ele>1189.230126</ele>
        <time>2022-05-22T09:35:22.907Z</time>
      </trkpt>
      <trkpt lat="42.246779" lon="1.423652">
        <ele>1189.793930</ele>
        <time>2022-05-22T09:35:24.907Z</time>
      </trkpt>
      <trkpt lat="42.246794" lon="1.423526">
        <ele>1190.373890</ele>
        <time>2022-05-22T09:35:26.908Z</time>
      </trkpt>
      <trkpt lat="42.246827" lon="1.423383">
        <ele>1191.054595</ele>
        <time>2022-05-22T09:35:29.910Z</time>
      </trkpt>
      <trkpt lat="42.246869" lon="1.423229">
        <ele>1191.800429</ele>
        <time>2022-05-22T09:35:32.911Z</time>
      </trkpt>
      <trkpt lat="42.246904" lon="1.423090">
        <ele>1192.374900</ele>
        <time>2022-05-22T09:35:35.909Z</time>
      </trkpt>
      <trkpt lat="42.246922" lon="1.422966">
        <ele>1192.838595</ele>
        <time>2022-05-22T09:35:38.905Z</time>
      </trkpt>
      <trkpt lat="42.246954" lon="1.422831">
        <ele>1193.358767</ele>
        <time>2022-05-22T09:35:41.906Z</time>
      </trkpt>
      <trkpt lat="42.247007" lon="1.422700">
        <ele>1193.906595</ele>
        <time>2022-05-22T09:35:44.905Z</time>
      </trkpt>
      <trkpt lat="42.247112" lon="1.422596">
        <ele>1194.552019</ele>
        <time>2022-05-22T09:35:47.906Z</time>
      </trkpt>
      <trkpt lat="42.247191" lon="1.422489">
        <ele>1195.106577</ele>
        <time>2022-05-22T09:35:50.909Z</time>
      </trkpt>
      <trkpt lat="42.247270" lon="1.422411">
        <ele>1195.591645</ele>
        <time>2022-05-22T09:35:53.909Z</time>
      </trkpt>
      <trkpt lat="42.247380" lon="1.422325">
        <ele>1196.221673</ele>
        <time>2022-05-22T09:35:56.907Z</time>
      </trkpt>
      <trkpt lat="42.247491" lon="1.422239">
        <ele>1196.855996</ele>
        <time>2022-05-22T09:35:59.910Z</time>
      </trkpt>
      <trkpt lat="42.247604" lon="1.422184">
        <ele>1197.451409</ele>
        <time>2022-05-22T09:36:02.908Z</time>
      </trkpt>
      <trkpt lat="42.247698" lon="1.422155">
        <ele>1197.929383</ele>
        <time>2022-05-22T09:36:04.902Z</time>
      </trkpt>
      <trkpt lat="42.247790" lon="1.422103">
        <ele>1198.423755</ele>
        <time>2022-05-22T09:36:06.903Z</time>
      </trkpt>
      <trkpt lat="42.247908" lon="1.422028">
        <ele>1199.070214</ele>
        <time>2022-05-22T09:36:09.904Z</time>
      </trkpt>
      <trkpt lat="42.247996" lon="1.421942">
        <ele>1199.608628</ele>
        <time>2022-05-22T09:36:11.903Z</time>
      </trkpt>
      <trkpt lat="42.248072" lon="1.421840">
        <ele>1200.139695</ele>
        <time>2022-05-22T09:36:13.900Z</time>
      </trkpt>
      <trkpt lat="42.248100" lon="1.421719">
        <ele>1200.604897</ele>
        <time>2022-05-22T09:36:15.904Z</time>
      </trkpt>
      <trkpt lat="42.248113" lon="1.421564">
        <ele>1201.063015</ele>
        <time>2022-05-22T09:36:18.900Z</time>
      </trkpt>
      <trkpt lat="42.248122" lon="1.421394">
        <ele>1201.428703</ele>
        <time>2022-05-22T09:36:21.901Z</time>
      </trkpt>
      <trkpt lat="42.248095" lon="1.421252">
        <ele>1201.743273</ele>
        <time>2022-05-22T09:36:24.906Z</time>
      </trkpt>
      <trkpt lat="42.248051" lon="1.421135">
        <ele>1202.024850</ele>
        <time>2022-05-22T09:36:27.907Z</time>
      </trkpt>
      <trkpt lat="42.247998" lon="1.420995">
        <ele>1202.362242</ele>
        <time>2022-05-22T09:36:30.904Z</time>
      </trkpt>
      <trkpt lat="42.247954" lon="1.420854">
        <ele>1202.690560</ele>
        <time>2022-05-22T09:36:33.902Z</time>
      </trkpt>
      <trkpt lat="42.247920" lon="1.420684">
        <ele>1203.068396</ele>
        <time>2022-05-22T09:36:36.909Z</time>
      </trkpt>
      <trkpt lat="42.247880" lon="1.420531">
        <ele>1203.416551</ele>
        <time>2022-05-22T09:36:39.909Z</time>
      </trkpt>
      <trkpt lat="42.247828" lon="1.420401">
        <ele>1203.733602</ele>
        <time>2022-05-22T09:36:42.902Z</time>
      </trkpt>
      <trkpt lat="42.247783" lon="1.420278">
        <ele>1204.027989</ele>
        <time>2022-05-22T09:36:45.904Z</time>
      </trkpt>
      <trkpt lat="42.247734" lon="1.420138">
        <ele>1204.360263</ele>
        <time>2022-05-22T09:36:48.900Z</time>
      </trkpt>
      <trkpt lat="42.247699" lon="1.420001">
        <ele>1204.671230</ele>
        <time>2022-05-22T09:36:51.900Z</time>
      </trkpt>
      <trkpt lat="42.247687" lon="1.419865">
        <ele>1204.965103</ele>
        <time>2022-05-22T09:36:54.908Z</time>
      </trkpt>
      <trkpt lat="42.247708" lon="1.419735">
        <ele>1205.250600</ele>
        <time>2022-05-22T09:36:57.907Z</time>
      </trkpt>
      <trkpt lat="42.247773" lon="1.419651">
        <ele>1205.511332</ele>
        <time>2022-05-22T09:37:00.909Z</time>
      </trkpt>
      <trkpt lat="42.247871" lon="1.419563">
        <ele>1205.852420</ele>
        <time>2022-05-22T09:37:04.910Z</time>
      </trkpt>
      <trkpt lat="42.247970" lon="1.419474">
        <ele>1206.158129</ele>
        <time>2022-05-22T09:37:08.910Z</time>
      </trkpt>
      <trkpt lat="42.248075" lon="1.419416">
        <ele>1206.329784</ele>
        <time>2022-05-22T09:37:12.902Z</time>
      </trkpt>
      <trkpt lat="42.248195" lon="1.419398">
        <ele>1206.512483</ele>
        <time>2022-05-22T09:37:16.907Z</time>
      </trkpt>
      <trkpt lat="42.248279" lon="1.419308">
        <ele>1206.674716</ele>
        <time>2022-05-22T09:37:19.901Z</time>
      </trkpt>
      <trkpt lat="42.248309" lon="1.419182">
        <ele>1206.822973</ele>
        <time>2022-05-22T09:37:21.905Z</time>
      </trkpt>
      <trkpt lat="42.248305" lon="1.419018">
        <ele>1207.006773</ele>
        <time>2022-05-22T09:37:24.908Z</time>
      </trkpt>
      <trkpt lat="42.248305" lon="1.418853">
        <ele>1207.191593</ele>
        <time>2022-05-22T09:37:27.905Z</time>
      </trkpt>
      <trkpt lat="42.248299" lon="1.418707">
        <ele>1207.355383</ele>
        <time>2022-05-22T09:37:29.900Z</time>
      </trkpt>
      <trkpt lat="42.248275" lon="1.418574">
        <ele>1207.508722</ele>
        <time>2022-05-22T09:37:31.902Z</time>
      </trkpt>
      <trkpt lat="42.248221" lon="1.418428">
        <ele>1207.691538</ele>
        <time>2022-05-22T09:37:34.900Z</time>
      </trkpt>
      <trkpt lat="42.248205" lon="1.418270">
        <ele>1207.870167</ele>
        <time>2022-05-22T09:37:38.906Z</time>
      </trkpt>
      <trkpt lat="42.248203" lon="1.418146">
        <ele>1208.009095</ele>
        <time>2022-05-22T09:37:42.904Z</time>
      </trkpt>
      <trkpt lat="42.248182" lon="1.418005">
        <ele>1208.170198</ele>
        <time>2022-05-22T09:37:47.902Z</time>
      </trkpt>
      <trkpt lat="42.248159" lon="1.417857">
        <ele>1208.339591</ele>
        <time>2022-05-22T09:37:50.900Z</time>
      </trkpt>
      <trkpt lat="42.248151" lon="1.417711">
        <ele>1208.503577</ele>
        <time>2022-05-22T09:37:53.900Z</time>
      </trkpt>
      <trkpt lat="42.248158" lon="1.417571">
        <ele>1208.660752</ele>
        <time>2022-05-22T09:37:56.904Z</time>
      </trkpt>
      <trkpt lat="42.248167" lon="1.417436">
        <ele>1208.812581</ele>
        <time>2022-05-22T09:37:59.908Z</time>
      </trkpt>
      <trkpt lat="42.248180" lon="1.417300">
        <ele>1209.016035</ele>
        <time>2022-05-22T09:38:02.904Z</time>
      </trkpt>
      <trkpt lat="42.248228" lon="1.417171">
        <ele>1209.240290</ele>
        <time>2022-05-22T09:38:05.906Z</time>
      </trkpt>
      <trkpt lat="42.248299" lon="1.417046">
        <ele>1209.485013</ele>
        <time>2022-05-22T09:38:08.909Z</time>
      </trkpt>
      <trkpt lat="42.248341" lon="1.416908">
        <ele>1209.716767</ele>
        <time>2022-05-22T09:38:11.909Z</time>
      </trkpt>
      <trkpt lat="42.248372" lon="1.416781">
        <ele>1209.924473</ele>
        <time>2022-05-22T09:38:14.903Z</time>
      </trkpt>
      <trkpt lat="42.248451" lon="1.416657">
        <ele>1210.178583</ele>
        <time>2022-05-22T09:38:17.906Z</time>
      </trkpt>
      <trkpt lat="42.248526" lon="1.416573">
        <ele>1210.383004</ele>
        <time>2022-05-22T09:38:20.905Z</time>
      </trkpt>
      <trkpt lat="42.248591" lon="1.416461">
        <ele>1210.604055</ele>
        <time>2022-05-22T09:38:23.903Z</time>
      </trkpt>
      <trkpt lat="42.248648" lon="1.416346">
        <ele>1210.819018</ele>
        <time>2022-05-22T09:38:26.903Z</time>
      </trkpt>
      <trkpt lat="42.248674" lon="1.416218">
        <ele>1211.025179</ele>
        <time>2022-05-22T09:38:30.904Z</time>
      </trkpt>
      <trkpt lat="42.248721" lon="1.416104">
        <ele>1211.227856</ele>
        <time>2022-05-22T09:38:33.907Z</time>
      </trkpt>
      <trkpt lat="42.248748" lon="1.415969">
        <ele>1211.445057</ele>
        <time>2022-05-22T09:38:37.904Z</time>
      </trkpt>
      <trkpt lat="42.248777" lon="1.415829">
        <ele>1211.670860</ele>
        <time>2022-05-22T09:38:41.907Z</time>
      </trkpt>
      <trkpt lat="42.248841" lon="1.415729">
        <ele>1211.876184</ele>
        <time>2022-05-22T09:38:45.902Z</time>
      </trkpt>
      <trkpt lat="42.248865" lon="1.415611">
        <ele>1212.066255</ele>
        <time>2022-05-22T09:38:49.903Z</time>
      </trkpt>
      <trkpt lat="42.248960" lon="1.415544">
        <ele>1212.291120</ele>
        <time>2022-05-22T09:38:53.895Z</time>
      </trkpt>
      <trkpt lat="42.249075" lon="1.415508">
        <ele>1212.538815</ele>
        <time>2022-05-22T09:38:57.906Z</time>
      </trkpt>
      <trkpt lat="42.249168" lon="1.415486">
        <ele>1212.687780</ele>
        <time>2022-05-22T09:39:00.904Z</time>
      </trkpt>
      <trkpt lat="42.249270" lon="1.415475">
        <ele>1212.818502</ele>
        <time>2022-05-22T09:39:05.906Z</time>
      </trkpt>
      <trkpt lat="42.249372" lon="1.415498">
        <ele>1212.950612</ele>
        <time>2022-05-22T09:39:08.899Z</time>
      </trkpt>
      <trkpt lat="42.249479" lon="1.415484">
        <ele>1213.087946</ele>
        <time>2022-05-22T09:39:13.905Z</time>
      </trkpt>
      <trkpt lat="42.249577" lon="1.415442">
        <ele>1213.219292</ele>
        <time>2022-05-22T09:39:19.905Z</time>
      </trkpt>
      <trkpt lat="42.249672" lon="1.415387">
        <ele>1213.351332</ele>
        <time>2022-05-22T09:39:24.904Z</time>
      </trkpt>
      <trkpt lat="42.249741" lon="1.415306">
        <ele>1213.468111</ele>
        <time>2022-05-22T09:39:28.908Z</time>
      </trkpt>
      <trkpt lat="42.249755" lon="1.415159">
        <ele>1213.608267</ele>
        <time>2022-05-22T09:39:33.905Z</time>
      </trkpt>
      <trkpt lat="42.249812" lon="1.415044">
        <ele>1213.739145</ele>
        <time>2022-05-22T09:39:38.905Z</time>
      </trkpt>
      <trkpt lat="42.249909" lon="1.414962">
        <ele>1213.885327</ele>
        <time>2022-05-22T09:39:42.909Z</time>
      </trkpt>
      <trkpt lat="42.249990" lon="1.414865">
        <ele>1214.023608</ele>
        <time>2022-05-22T09:39:46.903Z</time>
      </trkpt>
      <trkpt lat="42.250042" lon="1.414747">
        <ele>1214.153472</ele>
        <time>2022-05-22T09:39:50.895Z</time>
      </trkpt>
      <trkpt lat="42.250125" lon="1.414665">
        <ele>1214.284835</ele>
        <time>2022-05-22T09:39:55.900Z</time>
      </trkpt>
      <trkpt lat="42.250224" lon="1.414601">
        <ele>1214.425044</ele>
        <time>2022-05-22T09:39:59.901Z</time>
      </trkpt>
      <trkpt lat="42.250315" lon="1.414559">
        <ele>1214.547895</ele>
        <time>2022-05-22T09:40:03.909Z</time>
      </trkpt>
      <trkpt lat="42.250411" lon="1.414567">
        <ele>1214.670771</ele>
        <time>2022-05-22T09:40:08.908Z</time>
      </trkpt>
      <trkpt lat="42.250503" lon="1.414618">
        <ele>1214.797813</ele>
        <time>2022-05-22T09:40:13.905Z</time>
      </trkpt>
      <trkpt lat="42.250593" lon="1.414598">
        <ele>1214.945050</ele>
        <time>2022-05-22T09:40:17.902Z</time>
      </trkpt>
      <trkpt lat="42.250685" lon="1.414549">
        <ele>1215.811731</ele>
        <time>2022-05-22T09:40:23.905Z</time>
      </trkpt>
      <trkpt lat="42.250736" lon="1.414402">
        <ele>1216.864896</ele>
        <time>2022-05-22T09:40:27.898Z</time>
      </trkpt>
      <trkpt lat="42.250779" lon="1.414267">
        <ele>1217.818303</ele>
        <time>2022-05-22T09:40:31.906Z</time>
      </trkpt>
      <trkpt lat="42.250772" lon="1.414134">
        <ele>1218.683274</ele>
        <time>2022-05-22T09:40:35.904Z</time>
      </trkpt>
      <trkpt lat="42.250720" lon="1.414031">
        <ele>1219.492069</ele>
        <time>2022-05-22T09:40:40.902Z</time>
      </trkpt>
      <trkpt lat="42.250685" lon="1.413895">
        <ele>1220.426127</ele>
        <time>2022-05-22T09:40:45.905Z</time>
      </trkpt>
      <trkpt lat="42.250643" lon="1.413775">
        <ele>1221.287224</ele>
        <time>2022-05-22T09:40:50.903Z</time>
      </trkpt>
      <trkpt lat="42.250623" lon="1.413649">
        <ele>1222.123191</ele>
        <time>2022-05-22T09:40:53.900Z</time>
      </trkpt>
      <trkpt lat="42.250634" lon="1.413523">
        <ele>1222.946241</ele>
        <time>2022-05-22T09:40:57.898Z</time>
      </trkpt>
      <trkpt lat="42.250649" lon="1.413389">
        <ele>1223.825407</ele>
        <time>2022-05-22T09:41:04.896Z</time>
      </trkpt>
      <trkpt lat="42.250639" lon="1.413244">
        <ele>1224.770122</ele>
        <time>2022-05-22T09:41:10.905Z</time>
      </trkpt>
      <trkpt lat="42.250625" lon="1.413104">
        <ele>1225.686578</ele>
        <time>2022-05-22T09:41:14.910Z</time>
      </trkpt>
      <trkpt lat="42.250610" lon="1.412966">
        <ele>1226.591410</ele>
        <time>2022-05-22T09:41:18.905Z</time>
      </trkpt>
      <trkpt lat="42.250658" lon="1.412849">
        <ele>1227.459191</ele>
        <time>2022-05-22T09:41:22.906Z</time>
      </trkpt>
      <trkpt lat="42.250676" lon="1.412714">
        <ele>1228.349054</ele>
        <time>2022-05-22T09:41:26.901Z</time>
      </trkpt>
      <trkpt lat="42.250712" lon="1.412590">
        <ele>1229.213124</ele>
        <time>2022-05-22T09:41:31.909Z</time>
      </trkpt>
      <trkpt lat="42.250769" lon="1.412495">
        <ele>1230.006439</ele>
        <time>2022-05-22T09:41:35.912Z</time>
      </trkpt>
      <trkpt lat="42.250853" lon="1.412423">
        <ele>1231.080997</ele>
        <time>2022-05-22T09:41:39.911Z</time>
      </trkpt>
      <trkpt lat="42.250916" lon="1.412308">
        <ele>1232.922675</ele>
        <time>2022-05-22T09:41:44.905Z</time>
      </trkpt>
      <trkpt lat="42.250911" lon="1.412173">
        <ele>1234.662649</ele>
        <time>2022-05-22T09:41:49.904Z</time>
      </trkpt>
      <trkpt lat="42.250922" lon="1.412052">
        <ele>1236.231935</ele>
        <time>2022-05-22T09:41:54.905Z</time>
      </trkpt>
      <trkpt lat="42.250976" lon="1.411952">
        <ele>1237.825335</ele>
        <time>2022-05-22T09:41:58.904Z</time>
      </trkpt>
      <trkpt lat="42.251034" lon="1.411856">
        <ele>1239.420482</ele>
        <time>2022-05-22T09:42:02.902Z</time>
      </trkpt>
      <trkpt lat="42.251117" lon="1.411757">
        <ele>1241.345967</ele>
        <time>2022-05-22T09:42:06.906Z</time>
      </trkpt>
      <trkpt lat="42.251189" lon="1.411643">
        <ele>1243.275026</ele>
        <time>2022-05-22T09:42:10.904Z</time>
      </trkpt>
      <trkpt lat="42.251221" lon="1.411506">
        <ele>1245.124283</ele>
        <time>2022-05-22T09:42:15.905Z</time>
      </trkpt>
      <trkpt lat="42.251286" lon="1.411416">
        <ele>1246.742909</ele>
        <time>2022-05-22T09:42:19.917Z</time>
      </trkpt>
      <trkpt lat="42.251344" lon="1.411309">
        <ele>1248.450097</ele>
        <time>2022-05-22T09:42:22.904Z</time>
      </trkpt>
      <trkpt lat="42.251405" lon="1.411208">
        <ele>1250.128090</ele>
        <time>2022-05-22T09:42:26.905Z</time>
      </trkpt>
      <trkpt lat="42.251482" lon="1.411108">
        <ele>1251.985539</ele>
        <time>2022-05-22T09:42:31.915Z</time>
      </trkpt>
      <trkpt lat="42.251547" lon="1.411005">
        <ele>1253.727861</ele>
        <time>2022-05-22T09:42:36.928Z</time>
      </trkpt>
      <trkpt lat="42.251626" lon="1.410907">
        <ele>1255.593028</ele>
        <time>2022-05-22T09:42:43.201Z</time>
      </trkpt>
      <trkpt lat="42.251698" lon="1.410794">
        <ele>1257.512304</ele>
        <time>2022-05-22T09:42:48.930Z</time>
      </trkpt>
      <trkpt lat="42.251773" lon="1.410698">
        <ele>1259.309038</ele>
        <time>2022-05-22T09:42:54.946Z</time>
      </trkpt>
      <trkpt lat="42.251845" lon="1.410612">
        <ele>1260.980357</ele>
        <time>2022-05-22T09:43:00.926Z</time>
      </trkpt>
      <trkpt lat="42.251927" lon="1.410522">
        <ele>1262.925345</ele>
        <time>2022-05-22T09:43:06.924Z</time>
      </trkpt>
      <trkpt lat="42.251999" lon="1.410434">
        <ele>1264.823777</ele>
        <time>2022-05-22T09:43:11.922Z</time>
      </trkpt>
      <trkpt lat="42.252066" lon="1.410337">
        <ele>1266.743958</ele>
        <time>2022-05-22T09:43:16.911Z</time>
      </trkpt>
      <trkpt lat="42.252127" lon="1.410239">
        <ele>1268.597148</ele>
        <time>2022-05-22T09:43:21.916Z</time>
      </trkpt>
      <trkpt lat="42.252195" lon="1.410131">
        <ele>1270.649231</ele>
        <time>2022-05-22T09:43:27.929Z</time>
      </trkpt>
      <trkpt lat="42.252259" lon="1.410020">
        <ele>1272.685599</ele>
        <time>2022-05-22T09:43:33.909Z</time>
      </trkpt>
      <trkpt lat="42.252310" lon="1.409913">
        <ele>1274.527493</ele>
        <time>2022-05-22T09:43:38.940Z</time>
      </trkpt>
      <trkpt lat="42.252351" lon="1.409795">
        <ele>1276.414093</ele>
        <time>2022-05-22T09:43:44.913Z</time>
      </trkpt>
      <trkpt lat="42.252398" lon="1.409667">
        <ele>1278.482040</ele>
        <time>2022-05-22T09:43:49.912Z</time>
      </trkpt>
      <trkpt lat="42.252447" lon="1.409557">
        <ele>1280.340120</ele>
        <time>2022-05-22T09:43:54.908Z</time>
      </trkpt>
      <trkpt lat="42.252510" lon="1.409441">
        <ele>1282.422417</ele>
        <time>2022-05-22T09:44:00.913Z</time>
      </trkpt>
      <trkpt lat="42.252570" lon="1.409325">
        <ele>1284.470557</ele>
        <time>2022-05-22T09:44:06.913Z</time>
      </trkpt>
      <trkpt lat="42.252610" lon="1.409212">
        <ele>1286.283384</ele>
        <time>2022-05-22T09:44:11.919Z</time>
      </trkpt>
      <trkpt lat="42.252635" lon="1.409075">
        <ele>1288.325529</ele>
        <time>2022-05-22T09:44:17.907Z</time>
      </trkpt>
      <trkpt lat="42.252632" lon="1.408941">
        <ele>1290.265775</ele>
        <time>2022-05-22T09:44:22.936Z</time>
      </trkpt>
      <trkpt lat="42.252595" lon="1.408809">
        <ele>1292.308585</ele>
        <time>2022-05-22T09:44:27.907Z</time>
      </trkpt>
      <trkpt lat="42.252566" lon="1.408685">
        <ele>1294.190667</ele>
        <time>2022-05-22T09:44:32.904Z</time>
      </trkpt>
      <trkpt lat="42.252485" lon="1.408592">
        <ele>1296.269136</ele>
        <time>2022-05-22T09:44:36.911Z</time>
      </trkpt>
      <trkpt lat="42.252418" lon="1.408492">
        <ele>1297.404008</ele>
        <time>2022-05-22T09:44:41.921Z</time>
      </trkpt>
      <trkpt lat="42.252345" lon="1.408390">
        <ele>1297.932987</ele>
        <time>2022-05-22T09:44:46.910Z</time>
      </trkpt>
      <trkpt lat="42.252273" lon="1.408300">
        <ele>1298.427066</ele>
        <time>2022-05-22T09:44:50.905Z</time>
      </trkpt>
      <trkpt lat="42.252231" lon="1.408171">
        <ele>1298.952488</ele>
        <time>2022-05-22T09:44:54.907Z</time>
      </trkpt>
      <trkpt lat="42.252179" lon="1.408061">
        <ele>1299.439105</ele>
        <time>2022-05-22T09:44:58.902Z</time>
      </trkpt>
      <trkpt lat="42.252136" lon="1.407914">
        <ele>1300.028411</ele>
        <time>2022-05-22T09:45:02.904Z</time>
      </trkpt>
      <trkpt lat="42.252122" lon="1.407773">
        <ele>1300.558812</ele>
        <time>2022-05-22T09:45:05.909Z</time>
      </trkpt>
      <trkpt lat="42.252137" lon="1.407613">
        <ele>1301.160107</ele>
        <time>2022-05-22T09:45:08.905Z</time>
      </trkpt>
      <trkpt lat="42.252166" lon="1.407486">
        <ele>1301.655622</ele>
        <time>2022-05-22T09:45:11.907Z</time>
      </trkpt>
      <trkpt lat="42.252178" lon="1.407353">
        <ele>1302.155157</ele>
        <time>2022-05-22T09:45:15.903Z</time>
      </trkpt>
      <trkpt lat="42.252179" lon="1.407228">
        <ele>1302.621223</ele>
        <time>2022-05-22T09:45:19.900Z</time>
      </trkpt>
      <trkpt lat="42.252205" lon="1.407095">
        <ele>1303.134090</ele>
        <time>2022-05-22T09:45:24.900Z</time>
      </trkpt>
      <trkpt lat="42.252261" lon="1.406971">
        <ele>1303.675656</ele>
        <time>2022-05-22T09:45:32.902Z</time>
      </trkpt>
      <trkpt lat="42.252316" lon="1.406844">
        <ele>1304.224239</ele>
        <time>2022-05-22T09:45:36.901Z</time>
      </trkpt>
      <trkpt lat="42.252332" lon="1.406697">
        <ele>1304.778193</ele>
        <time>2022-05-22T09:45:41.902Z</time>
      </trkpt>
      <trkpt lat="42.252295" lon="1.406566">
        <ele>1305.300949</ele>
        <time>2022-05-22T09:45:45.902Z</time>
      </trkpt>
      <trkpt lat="42.252322" lon="1.406427">
        <ele>1305.836730</ele>
        <time>2022-05-22T09:45:49.904Z</time>
      </trkpt>
      <trkpt lat="42.252370" lon="1.406320">
        <ele>1306.234546</ele>
        <time>2022-05-22T09:45:54.908Z</time>
      </trkpt>
      <trkpt lat="42.252312" lon="1.406208">
        <ele>1306.459970</ele>
        <time>2022-05-22T09:45:59.905Z</time>
      </trkpt>
      <trkpt lat="42.252279" lon="1.406069">
        <ele>1306.700708</ele>
        <time>2022-05-22T09:46:04.901Z</time>
      </trkpt>
      <trkpt lat="42.252245" lon="1.405930">
        <ele>1306.942136</ele>
        <time>2022-05-22T09:46:08.902Z</time>
      </trkpt>
      <trkpt lat="42.252245" lon="1.405807">
        <ele>1307.144984</ele>
        <time>2022-05-22T09:46:13.903Z</time>
      </trkpt>
      <trkpt lat="42.252280" lon="1.405689">
        <ele>1307.354629</ele>
        <time>2022-05-22T09:46:17.905Z</time>
      </trkpt>
      <trkpt lat="42.252356" lon="1.405612">
        <ele>1307.566286</ele>
        <time>2022-05-22T09:46:21.906Z</time>
      </trkpt>
      <trkpt lat="42.252385" lon="1.405492">
        <ele>1307.774467</ele>
        <time>2022-05-22T09:46:25.908Z</time>
      </trkpt>
      <trkpt lat="42.252366" lon="1.405353">
        <ele>1308.007577</ele>
        <time>2022-05-22T09:46:30.910Z</time>
      </trkpt>
      <trkpt lat="42.252395" lon="1.405214">
        <ele>1308.245744</ele>
        <time>2022-05-22T09:46:36.903Z</time>
      </trkpt>
      <trkpt lat="42.252494" lon="1.405138">
        <ele>1308.499442</ele>
        <time>2022-05-22T09:46:40.903Z</time>
      </trkpt>
      <trkpt lat="42.252560" lon="1.405010">
        <ele>1308.756705</ele>
        <time>2022-05-22T09:46:44.907Z</time>
      </trkpt>
      <trkpt lat="42.252608" lon="1.404875">
        <ele>1309.003697</ele>
        <time>2022-05-22T09:46:48.910Z</time>
      </trkpt>
      <trkpt lat="42.252621" lon="1.404754">
        <ele>1309.205336</ele>
        <time>2022-05-22T09:46:53.904Z</time>
      </trkpt>
      <trkpt lat="42.252578" lon="1.404624">
        <ele>1309.440161</ele>
        <time>2022-05-22T09:46:59.907Z</time>
      </trkpt>
      <trkpt lat="42.252554" lon="1.404491">
        <ele>1309.665924</ele>
        <time>2022-05-22T09:47:05.903Z</time>
      </trkpt>
      <trkpt lat="42.252527" lon="1.404351">
        <ele>1309.904515</ele>
        <time>2022-05-22T09:47:11.900Z</time>
      </trkpt>
      <trkpt lat="42.252479" lon="1.404237">
        <ele>1310.120809</ele>
        <time>2022-05-22T09:47:17.902Z</time>
      </trkpt>
      <trkpt lat="42.252413" lon="1.404148">
        <ele>1310.800582</ele>
        <time>2022-05-22T09:47:22.902Z</time>
      </trkpt>
      <trkpt lat="42.252311" lon="1.404083">
        <ele>1311.892712</ele>
        <time>2022-05-22T09:47:28.904Z</time>
      </trkpt>
      <trkpt lat="42.252218" lon="1.404023">
        <ele>1312.890738</ele>
        <time>2022-05-22T09:47:32.902Z</time>
      </trkpt>
      <trkpt lat="42.252133" lon="1.403970">
        <ele>1313.797310</ele>
        <time>2022-05-22T09:47:36.903Z</time>
      </trkpt>
      <trkpt lat="42.252050" lon="1.403909">
        <ele>1314.712309</ele>
        <time>2022-05-22T09:47:40.899Z</time>
      </trkpt>
      <trkpt lat="42.251972" lon="1.403833">
        <ele>1315.643608</ele>
        <time>2022-05-22T09:47:44.904Z</time>
      </trkpt>
      <trkpt lat="42.251884" lon="1.403757">
        <ele>1316.655038</ele>
        <time>2022-05-22T09:47:47.901Z</time>
      </trkpt>
      <trkpt lat="42.251784" lon="1.403684">
        <ele>1317.755760</ele>
        <time>2022-05-22T09:47:51.902Z</time>
      </trkpt>
      <trkpt lat="42.251708" lon="1.403592">
        <ele>1318.743964</ele>
        <time>2022-05-22T09:47:56.911Z</time>
      </trkpt>
      <trkpt lat="42.251656" lon="1.403485">
        <ele>1319.661478</ele>
        <time>2022-05-22T09:48:02.912Z</time>
      </trkpt>
      <trkpt lat="42.251575" lon="1.403420">
        <ele>1320.573817</ele>
        <time>2022-05-22T09:48:06.910Z</time>
      </trkpt>
      <trkpt lat="42.251499" lon="1.403352">
        <ele>1321.456568</ele>
        <time>2022-05-22T09:48:11.909Z</time>
      </trkpt>
      <trkpt lat="42.251425" lon="1.403274">
        <ele>1322.365485</ele>
        <time>2022-05-22T09:48:14.913Z</time>
      </trkpt>
      <trkpt lat="42.251354" lon="1.403190">
        <ele>1323.279422</ele>
        <time>2022-05-22T09:48:16.910Z</time>
      </trkpt>
      <trkpt lat="42.251256" lon="1.403107">
        <ele>1324.399517</ele>
        <time>2022-05-22T09:48:18.913Z</time>
      </trkpt>
      <trkpt lat="42.251176" lon="1.403011">
        <ele>1325.435717</ele>
        <time>2022-05-22T09:48:20.913Z</time>
      </trkpt>
      <trkpt lat="42.251108" lon="1.402927">
        <ele>1326.328005</ele>
        <time>2022-05-22T09:48:22.913Z</time>
      </trkpt>
      <trkpt lat="42.251031" lon="1.402862">
        <ele>1327.207265</ele>
        <time>2022-05-22T09:48:25.905Z</time>
      </trkpt>
      <trkpt lat="42.250948" lon="1.402798">
        <ele>1327.825852</ele>
        <time>2022-05-22T09:48:28.908Z</time>
      </trkpt>
      <trkpt lat="42.250842" lon="1.402795">
        <ele>1328.255023</ele>
        <time>2022-05-22T09:48:31.922Z</time>
      </trkpt>
      <trkpt lat="42.250728" lon="1.402827">
        <ele>1328.726338</ele>
        <time>2022-05-22T09:48:34.906Z</time>
      </trkpt>
      <trkpt lat="42.250660" lon="1.402920">
        <ele>1329.118019</ele>
        <time>2022-05-22T09:48:37.917Z</time>
      </trkpt>
      <trkpt lat="42.250633" lon="1.403047">
        <ele>1329.513932</ele>
        <time>2022-05-22T09:48:40.918Z</time>
      </trkpt>
      <trkpt lat="42.250630" lon="1.403185">
        <ele>1329.927599</ele>
        <time>2022-05-22T09:48:43.918Z</time>
      </trkpt>
      <trkpt lat="42.250641" lon="1.403318">
        <ele>1330.328585</ele>
        <time>2022-05-22T09:48:46.910Z</time>
      </trkpt>
      <trkpt lat="42.250698" lon="1.403477">
        <ele>1330.857927</ele>
        <time>2022-05-22T09:48:49.907Z</time>
      </trkpt>
      <trkpt lat="42.250726" lon="1.403612">
        <ele>1331.278005</ele>
        <time>2022-05-22T09:48:52.912Z</time>
      </trkpt>
      <trkpt lat="42.250730" lon="1.403744">
        <ele>1331.673846</ele>
        <time>2022-05-22T09:48:57.904Z</time>
      </trkpt>
      <trkpt lat="42.250714" lon="1.403868">
        <ele>1332.050988</ele>
        <time>2022-05-22T09:49:02.913Z</time>
      </trkpt>
      <trkpt lat="42.250757" lon="1.404002">
        <ele>1332.488596</ele>
        <time>2022-05-22T09:49:06.911Z</time>
      </trkpt>
      <trkpt lat="42.250794" lon="1.404145">
        <ele>1332.942487</ele>
        <time>2022-05-22T09:49:09.907Z</time>
      </trkpt>
      <trkpt lat="42.250777" lon="1.404290">
        <ele>1333.382364</ele>
        <time>2022-05-22T09:49:12.906Z</time>
      </trkpt>
      <trkpt lat="42.250771" lon="1.404435">
        <ele>1333.817503</ele>
        <time>2022-05-22T09:49:15.913Z</time>
      </trkpt>
      <trkpt lat="42.250756" lon="1.404579">
        <ele>1334.253220</ele>
        <time>2022-05-22T09:49:18.909Z</time>
      </trkpt>
      <trkpt lat="42.250703" lon="1.404709">
        <ele>1334.697911</ele>
        <time>2022-05-22T09:49:22.910Z</time>
      </trkpt>
      <trkpt lat="42.250625" lon="1.404798">
        <ele>1335.038255</ele>
        <time>2022-05-22T09:49:25.918Z</time>
      </trkpt>
      <trkpt lat="42.250543" lon="1.404955">
        <ele>1335.427392</ele>
        <time>2022-05-22T09:49:28.916Z</time>
      </trkpt>
      <trkpt lat="42.250492" lon="1.405067">
        <ele>1335.693696</ele>
        <time>2022-05-22T09:49:30.913Z</time>
      </trkpt>
      <trkpt lat="42.250453" lon="1.405182">
        <ele>1335.949872</ele>
        <time>2022-05-22T09:49:32.910Z</time>
      </trkpt>
      <trkpt lat="42.250404" lon="1.405304">
        <ele>1336.230974</ele>
        <time>2022-05-22T09:49:35.921Z</time>
      </trkpt>
      <trkpt lat="42.250341" lon="1.405421">
        <ele>1336.523982</ele>
        <time>2022-05-22T09:49:38.911Z</time>
      </trkpt>
      <trkpt lat="42.250247" lon="1.405532">
        <ele>1336.865560</ele>
        <time>2022-05-22T09:49:41.916Z</time>
      </trkpt>
      <trkpt lat="42.250169" lon="1.405593">
        <ele>1337.112143</ele>
        <time>2022-05-22T09:49:43.919Z</time>
      </trkpt>
      <trkpt lat="42.250053" lon="1.405659">
        <ele>1337.456512</ele>
        <time>2022-05-22T09:49:46.913Z</time>
      </trkpt>
      <trkpt lat="42.249939" lon="1.405676">
        <ele>1337.770306</ele>
        <time>2022-05-22T09:49:49.906Z</time>
      </trkpt>
      <trkpt lat="42.249846" lon="1.405744">
        <ele>1338.059628</ele>
        <time>2022-05-22T09:49:52.910Z</time>
      </trkpt>
      <trkpt lat="42.249780" lon="1.405839">
        <ele>1338.323489</ele>
        <time>2022-05-22T09:49:55.913Z</time>
      </trkpt>
      <trkpt lat="42.249706" lon="1.405924">
        <ele>1338.589240</ele>
        <time>2022-05-22T09:49:58.910Z</time>
      </trkpt>
      <trkpt lat="42.249610" lon="1.405964">
        <ele>1338.864101</ele>
        <time>2022-05-22T09:50:01.915Z</time>
      </trkpt>
      <trkpt lat="42.249508" lon="1.405992">
        <ele>1339.148872</ele>
        <time>2022-05-22T09:50:04.908Z</time>
      </trkpt>
      <trkpt lat="42.249418" lon="1.406049">
        <ele>1339.420825</ele>
        <time>2022-05-22T09:50:08.911Z</time>
      </trkpt>
      <trkpt lat="42.249338" lon="1.406106">
        <ele>1339.668278</ele>
        <time>2022-05-22T09:50:13.910Z</time>
      </trkpt>
      <trkpt lat="42.249245" lon="1.406104">
        <ele>1339.878584</ele>
        <time>2022-05-22T09:50:17.913Z</time>
      </trkpt>
      <trkpt lat="42.249152" lon="1.406024">
        <ele>1340.064964</ele>
        <time>2022-05-22T09:50:21.913Z</time>
      </trkpt>
      <trkpt lat="42.249061" lon="1.405993">
        <ele>1340.223612</ele>
        <time>2022-05-22T09:50:25.912Z</time>
      </trkpt>
      <trkpt lat="42.248964" lon="1.405962">
        <ele>1340.392114</ele>
        <time>2022-05-22T09:50:29.904Z</time>
      </trkpt>
      <trkpt lat="42.248872" lon="1.405965">
        <ele>1340.547682</ele>
        <time>2022-05-22T09:50:32.918Z</time>
      </trkpt>
      <trkpt lat="42.248767" lon="1.405983">
        <ele>1340.726605</ele>
        <time>2022-05-22T09:50:35.910Z</time>
      </trkpt>
      <trkpt lat="42.248660" lon="1.405935">
        <ele>1340.917198</ele>
        <time>2022-05-22T09:50:39.913Z</time>
      </trkpt>
      <trkpt lat="42.248566" lon="1.405906">
        <ele>1341.080193</ele>
        <time>2022-05-22T09:50:44.910Z</time>
      </trkpt>
      <trkpt lat="42.248466" lon="1.405913">
        <ele>1341.249467</ele>
        <time>2022-05-22T09:50:47.917Z</time>
      </trkpt>
      <trkpt lat="42.248355" lon="1.405951">
        <ele>1341.443040</ele>
        <time>2022-05-22T09:50:50.910Z</time>
      </trkpt>
      <trkpt lat="42.248259" lon="1.406014">
        <ele>1341.623460</ele>
        <time>2022-05-22T09:50:53.913Z</time>
      </trkpt>
      <trkpt lat="42.248177" lon="1.406107">
        <ele>1341.804453</ele>
        <time>2022-05-22T09:50:56.903Z</time>
      </trkpt>
      <trkpt lat="42.248088" lon="1.406197">
        <ele>1341.992388</ele>
        <time>2022-05-22T09:51:00.907Z</time>
      </trkpt>
      <trkpt lat="42.248015" lon="1.406270">
        <ele>1342.145924</ele>
        <time>2022-05-22T09:51:03.913Z</time>
      </trkpt>
      <trkpt lat="42.247938" lon="1.406352">
        <ele>1342.311671</ele>
        <time>2022-05-22T09:51:06.918Z</time>
      </trkpt>
      <trkpt lat="42.247870" lon="1.406433">
        <ele>1342.464929</ele>
        <time>2022-05-22T09:51:09.931Z</time>
      </trkpt>
      <trkpt lat="42.247822" lon="1.406544">
        <ele>1342.625794</ele>
        <time>2022-05-22T09:51:12.912Z</time>
      </trkpt>
      <trkpt lat="42.247784" lon="1.406671">
        <ele>1342.797208</ele>
        <time>2022-05-22T09:51:15.914Z</time>
      </trkpt>
      <trkpt lat="42.247751" lon="1.406819">
        <ele>1342.823208</ele>
        <time>2022-05-22T09:51:19.914Z</time>
      </trkpt>
      <trkpt lat="42.247734" lon="1.406971">
        <ele>1342.790217</ele>
        <time>2022-05-22T09:51:23.912Z</time>
      </trkpt>
      <trkpt lat="42.247672" lon="1.407096">
        <ele>1342.757925</ele>
        <time>2022-05-22T09:51:27.906Z</time>
      </trkpt>
      <trkpt lat="42.247634" lon="1.407212">
        <ele>1342.730702</ele>
        <time>2022-05-22T09:51:30.915Z</time>
      </trkpt>
      <trkpt lat="42.247604" lon="1.407327">
        <ele>1342.704534</ele>
        <time>2022-05-22T09:51:33.913Z</time>
      </trkpt>
      <trkpt lat="42.247526" lon="1.407448">
        <ele>1342.670100</ele>
        <time>2022-05-22T09:51:37.913Z</time>
      </trkpt>
      <trkpt lat="42.247460" lon="1.407572">
        <ele>1342.637323</ele>
        <time>2022-05-22T09:51:41.908Z</time>
      </trkpt>
      <trkpt lat="42.247372" lon="1.407674">
        <ele>1342.603706</ele>
        <time>2022-05-22T09:51:45.912Z</time>
      </trkpt>
      <trkpt lat="42.247275" lon="1.407752">
        <ele>1342.570979</ele>
        <time>2022-05-22T09:51:49.909Z</time>
      </trkpt>
      <trkpt lat="42.247192" lon="1.407846">
        <ele>1342.539579</ele>
        <time>2022-05-22T09:51:53.908Z</time>
      </trkpt>
      <trkpt lat="42.247147" lon="1.407962">
        <ele>1342.511472</ele>
        <time>2022-05-22T09:51:56.912Z</time>
      </trkpt>
      <trkpt lat="42.247065" lon="1.408032">
        <ele>1342.483350</ele>
        <time>2022-05-22T09:52:00.912Z</time>
      </trkpt>
      <trkpt lat="42.246977" lon="1.408090">
        <ele>1342.454963</ele>
        <time>2022-05-22T09:52:03.917Z</time>
      </trkpt>
      <trkpt lat="42.246893" lon="1.408156">
        <ele>1342.426790</ele>
        <time>2022-05-22T09:52:07.916Z</time>
      </trkpt>
      <trkpt lat="42.246807" lon="1.408234">
        <ele>1342.396759</ele>
        <time>2022-05-22T09:52:11.912Z</time>
      </trkpt>
      <trkpt lat="42.246710" lon="1.408318">
        <ele>1342.363355</ele>
        <time>2022-05-22T09:52:15.914Z</time>
      </trkpt>
      <trkpt lat="42.246641" lon="1.408410">
        <ele>1342.335247</ele>
        <time>2022-05-22T09:52:18.918Z</time>
      </trkpt>
      <trkpt lat="42.246540" lon="1.408455">
        <ele>1342.398114</ele>
        <time>2022-05-22T09:52:23.910Z</time>
      </trkpt>
      <trkpt lat="42.246431" lon="1.408448">
        <ele>1342.502177</ele>
        <time>2022-05-22T09:52:27.906Z</time>
      </trkpt>
      <trkpt lat="42.246340" lon="1.408468">
        <ele>1342.590098</ele>
        <time>2022-05-22T09:52:30.911Z</time>
      </trkpt>
      <trkpt lat="42.246242" lon="1.408435">
        <ele>1342.686414</ele>
        <time>2022-05-22T09:52:34.903Z</time>
      </trkpt>
      <trkpt lat="42.246131" lon="1.408401">
        <ele>1342.794954</ele>
        <time>2022-05-22T09:52:37.902Z</time>
      </trkpt>
      <trkpt lat="42.246016" lon="1.408425">
        <ele>1342.905923</ele>
        <time>2022-05-22T09:52:41.910Z</time>
      </trkpt>
      <trkpt lat="42.245904" lon="1.408414">
        <ele>1343.013011</ele>
        <time>2022-05-22T09:52:47.910Z</time>
      </trkpt>
      <trkpt lat="42.245796" lon="1.408402">
        <ele>1343.116351</ele>
        <time>2022-05-22T09:52:52.909Z</time>
      </trkpt>
      <trkpt lat="42.245734" lon="1.408492">
        <ele>1343.203141</ele>
        <time>2022-05-22T09:52:57.911Z</time>
      </trkpt>
      <trkpt lat="42.245645" lon="1.408553">
        <ele>1343.298313</ele>
        <time>2022-05-22T09:53:01.909Z</time>
      </trkpt>
      <trkpt lat="42.245542" lon="1.408554">
        <ele>1343.396540</ele>
        <time>2022-05-22T09:53:05.915Z</time>
      </trkpt>
      <trkpt lat="42.245436" lon="1.408555">
        <ele>1343.497627</ele>
        <time>2022-05-22T09:53:10.911Z</time>
      </trkpt>
      <trkpt lat="42.245354" lon="1.408668">
        <ele>1343.609334</ele>
        <time>2022-05-22T09:53:22.912Z</time>
      </trkpt>
      <trkpt lat="42.245250" lon="1.408671">
        <ele>1343.708534</ele>
        <time>2022-05-22T09:53:26.905Z</time>
      </trkpt>
      <trkpt lat="42.245156" lon="1.408732">
        <ele>1343.807983</ele>
        <time>2022-05-22T09:53:31.914Z</time>
      </trkpt>
      <trkpt lat="42.245048" lon="1.408771">
        <ele>1343.914591</ele>
        <time>2022-05-22T09:53:37.904Z</time>
      </trkpt>
      <trkpt lat="42.244948" lon="1.408864">
        <ele>1344.030369</ele>
        <time>2022-05-22T09:53:41.911Z</time>
      </trkpt>
      <trkpt lat="42.244873" lon="1.408945">
        <ele>1344.459093</ele>
        <time>2022-05-22T09:53:44.912Z</time>
      </trkpt>
      <trkpt lat="42.244776" lon="1.408988">
        <ele>1344.964504</ele>
        <time>2022-05-22T09:53:47.911Z</time>
      </trkpt>
      <trkpt lat="42.244675" lon="1.409015">
        <ele>1345.474219</ele>
        <time>2022-05-22T09:53:52.909Z</time>
      </trkpt>
      <trkpt lat="42.244594" lon="1.409079">
        <ele>1345.938783</ele>
        <time>2022-05-22T09:53:57.924Z</time>
      </trkpt>
      <trkpt lat="42.244497" lon="1.409125">
        <ele>1346.447730</ele>
        <time>2022-05-22T09:54:01.903Z</time>
      </trkpt>
      <trkpt lat="42.244392" lon="1.409160">
        <ele>1346.983143</ele>
        <time>2022-05-22T09:54:05.908Z</time>
      </trkpt>
      <trkpt lat="42.244304" lon="1.409224">
        <ele>1347.477930</ele>
        <time>2022-05-22T09:54:10.916Z</time>
      </trkpt>
      <trkpt lat="42.244209" lon="1.409252">
        <ele>1347.959309</ele>
        <time>2022-05-22T09:54:14.913Z</time>
      </trkpt>
      <trkpt lat="42.244111" lon="1.409299">
        <ele>1348.474145</ele>
        <time>2022-05-22T09:54:18.910Z</time>
      </trkpt>
      <trkpt lat="42.244063" lon="1.409410">
        <ele>1348.945272</ele>
        <time>2022-05-22T09:54:23.914Z</time>
      </trkpt>
      <trkpt lat="42.243990" lon="1.409522">
        <ele>1349.492168</ele>
        <time>2022-05-22T09:54:27.910Z</time>
      </trkpt>
      <trkpt lat="42.243925" lon="1.409629">
        <ele>1349.999446</ele>
        <time>2022-05-22T09:54:31.909Z</time>
      </trkpt>
      <trkpt lat="42.243839" lon="1.409705">
        <ele>1350.508220</ele>
        <time>2022-05-22T09:54:36.918Z</time>
      </trkpt>
      <trkpt lat="42.243724" lon="1.409769">
        <ele>1351.123972</ele>
        <time>2022-05-22T09:54:40.917Z</time>
      </trkpt>
      <trkpt lat="42.243624" lon="1.409836">
        <ele>1351.676590</ele>
        <time>2022-05-22T09:54:43.921Z</time>
      </trkpt>
      <trkpt lat="42.243554" lon="1.409916">
        <ele>1352.130527</ele>
        <time>2022-05-22T09:54:46.917Z</time>
      </trkpt>
      <trkpt lat="42.243488" lon="1.410003">
        <ele>1352.587066</ele>
        <time>2022-05-22T09:54:49.917Z</time>
      </trkpt>
      <trkpt lat="42.243404" lon="1.410126">
        <ele>1352.854304</ele>
        <time>2022-05-22T09:54:53.917Z</time>
      </trkpt>
      <trkpt lat="42.243303" lon="1.410244">
        <ele>1352.616028</ele>
        <time>2022-05-22T09:54:56.914Z</time>
      </trkpt>
      <trkpt lat="42.243204" lon="1.410317">
        <ele>1352.414770</ele>
        <time>2022-05-22T09:54:58.914Z</time>
      </trkpt>
      <trkpt lat="42.243099" lon="1.410405">
        <ele>1352.194280</ele>
        <time>2022-05-22T09:55:00.917Z</time>
      </trkpt>
      <trkpt lat="42.242998" lon="1.410489">
        <ele>1351.982639</ele>
        <time>2022-05-22T09:55:02.919Z</time>
      </trkpt>
      <trkpt lat="42.242918" lon="1.410549">
        <ele>1351.819363</ele>
        <time>2022-05-22T09:55:04.911Z</time>
      </trkpt>
      <trkpt lat="42.242795" lon="1.410550">
        <ele>1351.599883</ele>
        <time>2022-05-22T09:55:07.914Z</time>
      </trkpt>
      <trkpt lat="42.242713" lon="1.410444">
        <ele>1351.397361</ele>
        <time>2022-05-22T09:55:10.919Z</time>
      </trkpt>
      <trkpt lat="42.242681" lon="1.410310">
        <ele>1351.211369</ele>
        <time>2022-05-22T09:55:12.909Z</time>
      </trkpt>
      <trkpt lat="42.242657" lon="1.410092">
        <ele>1350.920231</ele>
        <time>2022-05-22T09:55:14.910Z</time>
      </trkpt>
      <trkpt lat="42.242679" lon="1.409888">
        <ele>1350.647908</ele>
        <time>2022-05-22T09:55:16.914Z</time>
      </trkpt>
      <trkpt lat="42.242718" lon="1.409702">
        <ele>1350.392543</ele>
        <time>2022-05-22T09:55:18.912Z</time>
      </trkpt>
      <trkpt lat="42.242756" lon="1.409579">
        <ele>1350.216483</ele>
        <time>2022-05-22T09:55:19.920Z</time>
      </trkpt>
      <trkpt lat="42.242807" lon="1.409434">
        <ele>1350.004423</ele>
        <time>2022-05-22T09:55:20.914Z</time>
      </trkpt>
      <trkpt lat="42.242815" lon="1.409297">
        <ele>1349.822889</ele>
        <time>2022-05-22T09:55:21.918Z</time>
      </trkpt>
      <trkpt lat="42.242815" lon="1.409161">
        <ele>1349.483409</ele>
        <time>2022-05-22T09:55:22.916Z</time>
      </trkpt>
      <trkpt lat="42.242831" lon="1.409027">
        <ele>1348.997042</ele>
        <time>2022-05-22T09:55:23.910Z</time>
      </trkpt>
      <trkpt lat="42.242852" lon="1.408896">
        <ele>1348.516752</ele>
        <time>2022-05-22T09:55:24.917Z</time>
      </trkpt>
      <trkpt lat="42.242870" lon="1.408761">
        <ele>1348.025224</ele>
        <time>2022-05-22T09:55:25.926Z</time>
      </trkpt>
      <trkpt lat="42.242877" lon="1.408625">
        <ele>1347.536720</ele>
        <time>2022-05-22T09:55:26.917Z</time>
      </trkpt>
      <trkpt lat="42.242897" lon="1.408482">
        <ele>1347.015245</ele>
        <time>2022-05-22T09:55:27.925Z</time>
      </trkpt>
      <trkpt lat="42.242922" lon="1.408345">
        <ele>1346.509641</ele>
        <time>2022-05-22T09:55:28.908Z</time>
      </trkpt>
      <trkpt lat="42.242959" lon="1.408196">
        <ele>1345.946495</ele>
        <time>2022-05-22T09:55:29.908Z</time>
      </trkpt>
      <trkpt lat="42.242994" lon="1.408045">
        <ele>1345.379518</ele>
        <time>2022-05-22T09:55:30.912Z</time>
      </trkpt>
      <trkpt lat="42.243036" lon="1.407909">
        <ele>1344.851488</ele>
        <time>2022-05-22T09:55:31.910Z</time>
      </trkpt>
      <trkpt lat="42.243077" lon="1.407761">
        <ele>1344.285247</ele>
        <time>2022-05-22T09:55:32.911Z</time>
      </trkpt>
      <trkpt lat="42.243118" lon="1.407613">
        <ele>1343.719007</ele>
        <time>2022-05-22T09:55:33.912Z</time>
      </trkpt>
      <trkpt lat="42.243151" lon="1.407464">
        <ele>1343.161717</ele>
        <time>2022-05-22T09:55:34.914Z</time>
      </trkpt>
      <trkpt lat="42.243161" lon="1.407282">
        <ele>1342.507768</ele>
        <time>2022-05-22T09:55:35.908Z</time>
      </trkpt>
      <trkpt lat="42.243167" lon="1.407111">
        <ele>1341.894340</ele>
        <time>2022-05-22T09:55:36.903Z</time>
      </trkpt>
      <trkpt lat="42.243169" lon="1.406945">
        <ele>1341.299438</ele>
        <time>2022-05-22T09:55:37.917Z</time>
      </trkpt>
      <trkpt lat="42.243175" lon="1.406768">
        <ele>1340.882002</ele>
        <time>2022-05-22T09:55:38.909Z</time>
      </trkpt>
      <trkpt lat="42.243198" lon="1.406605">
        <ele>1340.640670</ele>
        <time>2022-05-22T09:55:39.914Z</time>
      </trkpt>
      <trkpt lat="42.243217" lon="1.406452">
        <ele>1340.415041</ele>
        <time>2022-05-22T09:55:40.910Z</time>
      </trkpt>
      <trkpt lat="42.243224" lon="1.406300">
        <ele>1340.193548</ele>
        <time>2022-05-22T09:55:41.911Z</time>
      </trkpt>
      <trkpt lat="42.243231" lon="1.406164">
        <ele>1339.995275</ele>
        <time>2022-05-22T09:55:42.910Z</time>
      </trkpt>
      <trkpt lat="42.243223" lon="1.406037">
        <ele>1339.809901</ele>
        <time>2022-05-22T09:55:43.902Z</time>
      </trkpt>
      <trkpt lat="42.243106" lon="1.405910">
        <ele>1339.515027</ele>
        <time>2022-05-22T09:55:45.907Z</time>
      </trkpt>
      <trkpt lat="42.242926" lon="1.405948">
        <ele>1339.157109</ele>
        <time>2022-05-22T09:55:47.918Z</time>
      </trkpt>
      <trkpt lat="42.242843" lon="1.406010">
        <ele>1338.970777</ele>
        <time>2022-05-22T09:55:48.909Z</time>
      </trkpt>
      <trkpt lat="42.242711" lon="1.406111">
        <ele>1338.672737</ele>
        <time>2022-05-22T09:55:50.906Z</time>
      </trkpt>
      <trkpt lat="42.242602" lon="1.406312">
        <ele>1338.310364</ele>
        <time>2022-05-22T09:55:52.907Z</time>
      </trkpt>
      <trkpt lat="42.242541" lon="1.406446">
        <ele>1338.081577</ele>
        <time>2022-05-22T09:55:53.906Z</time>
      </trkpt>
      <trkpt lat="42.242500" lon="1.406565">
        <ele>1337.890679</ele>
        <time>2022-05-22T09:55:54.910Z</time>
      </trkpt>
      <trkpt lat="42.242459" lon="1.406726">
        <ele>1337.643054</ele>
        <time>2022-05-22T09:55:55.922Z</time>
      </trkpt>
      <trkpt lat="42.242431" lon="1.406885">
        <ele>1337.538293</ele>
        <time>2022-05-22T09:55:56.913Z</time>
      </trkpt>
      <trkpt lat="42.242442" lon="1.407013">
        <ele>1337.622805</ele>
        <time>2022-05-22T09:55:57.910Z</time>
      </trkpt>
      <trkpt lat="42.242430" lon="1.407159">
        <ele>1337.719147</ele>
        <time>2022-05-22T09:55:58.911Z</time>
      </trkpt>
      <trkpt lat="42.242398" lon="1.407298">
        <ele>1337.814615</ele>
        <time>2022-05-22T09:55:59.916Z</time>
      </trkpt>
      <trkpt lat="42.242346" lon="1.407457">
        <ele>1337.928617</ele>
        <time>2022-05-22T09:56:00.908Z</time>
      </trkpt>
      <trkpt lat="42.242287" lon="1.407604">
        <ele>1338.038283</ele>
        <time>2022-05-22T09:56:01.912Z</time>
      </trkpt>
      <trkpt lat="42.242218" lon="1.407730">
        <ele>1338.141072</ele>
        <time>2022-05-22T09:56:02.909Z</time>
      </trkpt>
      <trkpt lat="42.242143" lon="1.407849">
        <ele>1338.243570</ele>
        <time>2022-05-22T09:56:03.915Z</time>
      </trkpt>
      <trkpt lat="42.242055" lon="1.407948">
        <ele>1338.345027</ele>
        <time>2022-05-22T09:56:04.913Z</time>
      </trkpt>
      <trkpt lat="42.241964" lon="1.408031">
        <ele>1338.442302</ele>
        <time>2022-05-22T09:56:05.913Z</time>
      </trkpt>
      <trkpt lat="42.241874" lon="1.408114">
        <ele>1338.538844</ele>
        <time>2022-05-22T09:56:06.913Z</time>
      </trkpt>
      <trkpt lat="42.241770" lon="1.408194">
        <ele>1338.644870</ele>
        <time>2022-05-22T09:56:07.913Z</time>
      </trkpt>
      <trkpt lat="42.241665" lon="1.408273">
        <ele>1338.751347</ele>
        <time>2022-05-22T09:56:08.914Z</time>
      </trkpt>
      <trkpt lat="42.241547" lon="1.408320">
        <ele>1338.860335</ele>
        <time>2022-05-22T09:56:09.904Z</time>
      </trkpt>
      <trkpt lat="42.241422" lon="1.408340">
        <ele>1338.971847</ele>
        <time>2022-05-22T09:56:10.914Z</time>
      </trkpt>
      <trkpt lat="42.241305" lon="1.408345">
        <ele>1339.075550</ele>
        <time>2022-05-22T09:56:11.916Z</time>
      </trkpt>
      <trkpt lat="42.241203" lon="1.408310">
        <ele>1338.857379</ele>
        <time>2022-05-22T09:56:12.906Z</time>
      </trkpt>
      <trkpt lat="42.241100" lon="1.408244">
        <ele>1338.557085</ele>
        <time>2022-05-22T09:56:13.899Z</time>
      </trkpt>
      <trkpt lat="42.240994" lon="1.408173">
        <ele>1338.245424</ele>
        <time>2022-05-22T09:56:14.903Z</time>
      </trkpt>
      <trkpt lat="42.240899" lon="1.408074">
        <ele>1337.929366</ele>
        <time>2022-05-22T09:56:15.917Z</time>
      </trkpt>
      <trkpt lat="42.240880" lon="1.407867">
        <ele>1337.522603</ele>
        <time>2022-05-22T09:56:16.909Z</time>
      </trkpt>
      <trkpt lat="42.240894" lon="1.407667">
        <ele>1337.130843</ele>
        <time>2022-05-22T09:56:17.915Z</time>
      </trkpt>
      <trkpt lat="42.240930" lon="1.407481">
        <ele>1336.755933</ele>
        <time>2022-05-22T09:56:18.918Z</time>
      </trkpt>
      <trkpt lat="42.240942" lon="1.407304">
        <ele>1336.409320</ele>
        <time>2022-05-22T09:56:19.913Z</time>
      </trkpt>
      <trkpt lat="42.240939" lon="1.407120">
        <ele>1336.050414</ele>
        <time>2022-05-22T09:56:20.910Z</time>
      </trkpt>
      <trkpt lat="42.240937" lon="1.406932">
        <ele>1335.683757</ele>
        <time>2022-05-22T09:56:21.908Z</time>
      </trkpt>
      <trkpt lat="42.240943" lon="1.406744">
        <ele>1335.316797</ele>
        <time>2022-05-22T09:56:22.911Z</time>
      </trkpt>
      <trkpt lat="42.240951" lon="1.406557">
        <ele>1334.951519</ele>
        <time>2022-05-22T09:56:23.918Z</time>
      </trkpt>
      <trkpt lat="42.240940" lon="1.406365">
        <ele>1334.575980</ele>
        <time>2022-05-22T09:56:24.906Z</time>
      </trkpt>
      <trkpt lat="42.240945" lon="1.406180">
        <ele>1334.135966</ele>
        <time>2022-05-22T09:56:25.904Z</time>
      </trkpt>
      <trkpt lat="42.240928" lon="1.406003">
        <ele>1333.588059</ele>
        <time>2022-05-22T09:56:26.910Z</time>
      </trkpt>
      <trkpt lat="42.240900" lon="1.405840">
        <ele>1333.074390</ele>
        <time>2022-05-22T09:56:27.911Z</time>
      </trkpt>
      <trkpt lat="42.240865" lon="1.405672">
        <ele>1332.538633</ele>
        <time>2022-05-22T09:56:28.904Z</time>
      </trkpt>
      <trkpt lat="42.240827" lon="1.405524">
        <ele>1332.057755</ele>
        <time>2022-05-22T09:56:29.904Z</time>
      </trkpt>
      <trkpt lat="42.240781" lon="1.405364">
        <ele>1331.530851</ele>
        <time>2022-05-22T09:56:30.908Z</time>
      </trkpt>
      <trkpt lat="42.240741" lon="1.405231">
        <ele>1331.090163</ele>
        <time>2022-05-22T09:56:31.921Z</time>
      </trkpt>
      <trkpt lat="42.240668" lon="1.405127">
        <ele>1330.650217</ele>
        <time>2022-05-22T09:56:32.907Z</time>
      </trkpt>
      <trkpt lat="42.240489" lon="1.405010">
        <ele>1329.825650</ele>
        <time>2022-05-22T09:56:34.910Z</time>
      </trkpt>
      <trkpt lat="42.240358" lon="1.404989">
        <ele>1329.278640</ele>
        <time>2022-05-22T09:56:35.908Z</time>
      </trkpt>
      <trkpt lat="42.240225" lon="1.404981">
        <ele>1328.726602</ele>
        <time>2022-05-22T09:56:36.907Z</time>
      </trkpt>
      <trkpt lat="42.240105" lon="1.405004">
        <ele>1328.224031</ele>
        <time>2022-05-22T09:56:37.908Z</time>
      </trkpt>
      <trkpt lat="42.239971" lon="1.405051">
        <ele>1327.649966</ele>
        <time>2022-05-22T09:56:38.905Z</time>
      </trkpt>
      <trkpt lat="42.239841" lon="1.405114">
        <ele>1327.077271</ele>
        <time>2022-05-22T09:56:39.909Z</time>
      </trkpt>
      <trkpt lat="42.239726" lon="1.405187">
        <ele>1326.547801</ele>
        <time>2022-05-22T09:56:40.907Z</time>
      </trkpt>
      <trkpt lat="42.239624" lon="1.405275">
        <ele>1326.042172</ele>
        <time>2022-05-22T09:56:41.910Z</time>
      </trkpt>
      <trkpt lat="42.239527" lon="1.405346">
        <ele>1325.581261</ele>
        <time>2022-05-22T09:56:42.904Z</time>
      </trkpt>
      <trkpt lat="42.239435" lon="1.405426">
        <ele>1325.124155</ele>
        <time>2022-05-22T09:56:43.909Z</time>
      </trkpt>
      <trkpt lat="42.239331" lon="1.405508">
        <ele>1324.621070</ele>
        <time>2022-05-22T09:56:44.911Z</time>
      </trkpt>
      <trkpt lat="42.239230" lon="1.405596">
        <ele>1324.118955</ele>
        <time>2022-05-22T09:56:45.925Z</time>
      </trkpt>
      <trkpt lat="42.239138" lon="1.405689">
        <ele>1323.638892</ele>
        <time>2022-05-22T09:56:46.910Z</time>
      </trkpt>
      <trkpt lat="42.239026" lon="1.405768">
        <ele>1323.111034</ele>
        <time>2022-05-22T09:56:47.910Z</time>
      </trkpt>
      <trkpt lat="42.238928" lon="1.405845">
        <ele>1322.637391</ele>
        <time>2022-05-22T09:56:48.912Z</time>
      </trkpt>
      <trkpt lat="42.238831" lon="1.405897">
        <ele>1322.201406</ele>
        <time>2022-05-22T09:56:49.907Z</time>
      </trkpt>
      <trkpt lat="42.238723" lon="1.405936">
        <ele>1321.734370</ele>
        <time>2022-05-22T09:56:50.908Z</time>
      </trkpt>
      <trkpt lat="42.238618" lon="1.405957">
        <ele>1321.290930</ele>
        <time>2022-05-22T09:56:51.908Z</time>
      </trkpt>
      <trkpt lat="42.238515" lon="1.405964">
        <ele>1320.860084</ele>
        <time>2022-05-22T09:56:52.907Z</time>
      </trkpt>
      <trkpt lat="42.238412" lon="1.405952">
        <ele>1320.428185</ele>
        <time>2022-05-22T09:56:53.906Z</time>
      </trkpt>
      <trkpt lat="42.238304" lon="1.405936">
        <ele>1319.974289</ele>
        <time>2022-05-22T09:56:54.912Z</time>
      </trkpt>
      <trkpt lat="42.238194" lon="1.405918">
        <ele>1319.511384</ele>
        <time>2022-05-22T09:56:55.917Z</time>
      </trkpt>
      <trkpt lat="42.238091" lon="1.405898">
        <ele>1319.188523</ele>
        <time>2022-05-22T09:56:56.909Z</time>
      </trkpt>
      <trkpt lat="42.237984" lon="1.405874">
        <ele>1318.902363</ele>
        <time>2022-05-22T09:56:57.913Z</time>
      </trkpt>
      <trkpt lat="42.237875" lon="1.405845">
        <ele>1318.609265</ele>
        <time>2022-05-22T09:56:58.894Z</time>
      </trkpt>
      <trkpt lat="42.237760" lon="1.405807">
        <ele>1318.296917</ele>
        <time>2022-05-22T09:56:59.913Z</time>
      </trkpt>
      <trkpt lat="42.237657" lon="1.405741">
        <ele>1317.996146</ele>
        <time>2022-05-22T09:57:00.903Z</time>
      </trkpt>
      <trkpt lat="42.237574" lon="1.405656">
        <ele>1317.721344</ele>
        <time>2022-05-22T09:57:01.915Z</time>
      </trkpt>
      <trkpt lat="42.237511" lon="1.405553">
        <ele>1317.460379</ele>
        <time>2022-05-22T09:57:02.898Z</time>
      </trkpt>
      <trkpt lat="42.237461" lon="1.405441">
        <ele>1317.204918</ele>
        <time>2022-05-22T09:57:03.905Z</time>
      </trkpt>
      <trkpt lat="42.237423" lon="1.405325">
        <ele>1316.957148</ele>
        <time>2022-05-22T09:57:04.907Z</time>
      </trkpt>
      <trkpt lat="42.237411" lon="1.405180">
        <ele>1316.672158</ele>
        <time>2022-05-22T09:57:05.911Z</time>
      </trkpt>
      <trkpt lat="42.237395" lon="1.405040">
        <ele>1316.395459</ele>
        <time>2022-05-22T09:57:06.902Z</time>
      </trkpt>
      <trkpt lat="42.237395" lon="1.404881">
        <ele>1316.084887</ele>
        <time>2022-05-22T09:57:07.909Z</time>
      </trkpt>
      <trkpt lat="42.237399" lon="1.404717">
        <ele>1315.764374</ele>
        <time>2022-05-22T09:57:08.907Z</time>
      </trkpt>
      <trkpt lat="42.237409" lon="1.404572">
        <ele>1315.479922</ele>
        <time>2022-05-22T09:57:09.919Z</time>
      </trkpt>
      <trkpt lat="42.237438" lon="1.404433">
        <ele>1315.197841</ele>
        <time>2022-05-22T09:57:10.913Z</time>
      </trkpt>
      <trkpt lat="42.237486" lon="1.404291">
        <ele>1314.892933</ele>
        <time>2022-05-22T09:57:11.908Z</time>
      </trkpt>
      <trkpt lat="42.237557" lon="1.404164">
        <ele>1314.552740</ele>
        <time>2022-05-22T09:57:12.901Z</time>
      </trkpt>
      <trkpt lat="42.237627" lon="1.404041">
        <ele>1314.081421</ele>
        <time>2022-05-22T09:57:13.908Z</time>
      </trkpt>
      <trkpt lat="42.237690" lon="1.403928">
        <ele>1313.651673</ele>
        <time>2022-05-22T09:57:14.913Z</time>
      </trkpt>
      <trkpt lat="42.237759" lon="1.403828">
        <ele>1313.236387</ele>
        <time>2022-05-22T09:57:15.915Z</time>
      </trkpt>
      <trkpt lat="42.237772" lon="1.403691">
        <ele>1312.816774</ele>
        <time>2022-05-22T09:57:17.932Z</time>
      </trkpt>
      <trkpt lat="42.237686" lon="1.403631">
        <ele>1312.419582</ele>
        <time>2022-05-22T09:57:20.922Z</time>
      </trkpt>
      <trkpt lat="42.237574" lon="1.403668">
        <ele>1311.946451</ele>
        <time>2022-05-22T09:57:22.912Z</time>
      </trkpt>
      <trkpt lat="42.237471" lon="1.403703">
        <ele>1311.510628</ele>
        <time>2022-05-22T09:57:24.911Z</time>
      </trkpt>
      <trkpt lat="42.237355" lon="1.403812">
        <ele>1310.930773</ele>
        <time>2022-05-22T09:57:26.906Z</time>
      </trkpt>
      <trkpt lat="42.237196" lon="1.403912">
        <ele>1310.211063</ele>
        <time>2022-05-22T09:57:28.908Z</time>
      </trkpt>
      <trkpt lat="42.237114" lon="1.403963">
        <ele>1309.840623</ele>
        <time>2022-05-22T09:57:29.923Z</time>
      </trkpt>
      <trkpt lat="42.236962" lon="1.404054">
        <ele>1309.158377</ele>
        <time>2022-05-22T09:57:31.917Z</time>
      </trkpt>
      <trkpt lat="42.236801" lon="1.404154">
        <ele>1308.431218</ele>
        <time>2022-05-22T09:57:33.917Z</time>
      </trkpt>
      <trkpt lat="42.236712" lon="1.404212">
        <ele>1308.025726</ele>
        <time>2022-05-22T09:57:34.914Z</time>
      </trkpt>
      <trkpt lat="42.236630" lon="1.404275">
        <ele>1307.638617</ele>
        <time>2022-05-22T09:57:35.908Z</time>
      </trkpt>
      <trkpt lat="42.236477" lon="1.404385">
        <ele>1307.013869</ele>
        <time>2022-05-22T09:57:37.910Z</time>
      </trkpt>
      <trkpt lat="42.236308" lon="1.404469">
        <ele>1306.470384</ele>
        <time>2022-05-22T09:57:39.902Z</time>
      </trkpt>
      <trkpt lat="42.236120" lon="1.404493">
        <ele>1305.900469</ele>
        <time>2022-05-22T09:57:41.908Z</time>
      </trkpt>
      <trkpt lat="42.236012" lon="1.404488">
        <ele>1305.574331</ele>
        <time>2022-05-22T09:57:42.910Z</time>
      </trkpt>
      <trkpt lat="42.235898" lon="1.404466">
        <ele>1305.226783</ele>
        <time>2022-05-22T09:57:43.904Z</time>
      </trkpt>
      <trkpt lat="42.235790" lon="1.404446">
        <ele>1304.897788</ele>
        <time>2022-05-22T09:57:44.912Z</time>
      </trkpt>
      <trkpt lat="42.235669" lon="1.404423">
        <ele>1304.529010</ele>
        <time>2022-05-22T09:57:45.899Z</time>
      </trkpt>
      <trkpt lat="42.235556" lon="1.404405">
        <ele>1304.185610</ele>
        <time>2022-05-22T09:57:46.910Z</time>
      </trkpt>
      <trkpt lat="42.235452" lon="1.404404">
        <ele>1303.871728</ele>
        <time>2022-05-22T09:57:47.914Z</time>
      </trkpt>
      <trkpt lat="42.235329" lon="1.404404">
        <ele>1303.500512</ele>
        <time>2022-05-22T09:57:48.912Z</time>
      </trkpt>
      <trkpt lat="42.235213" lon="1.404417">
        <ele>1303.149219</ele>
        <time>2022-05-22T09:57:49.912Z</time>
      </trkpt>
      <trkpt lat="42.235112" lon="1.404450">
        <ele>1302.835608</ele>
        <time>2022-05-22T09:57:50.909Z</time>
      </trkpt>
      <trkpt lat="42.235010" lon="1.404483">
        <ele>1302.519061</ele>
        <time>2022-05-22T09:57:51.905Z</time>
      </trkpt>
      <trkpt lat="42.234908" lon="1.404513">
        <ele>1302.204009</ele>
        <time>2022-05-22T09:57:52.905Z</time>
      </trkpt>
      <trkpt lat="42.234807" lon="1.404541">
        <ele>1301.892835</ele>
        <time>2022-05-22T09:57:53.904Z</time>
      </trkpt>
      <trkpt lat="42.234703" lon="1.404565">
        <ele>1301.280566</ele>
        <time>2022-05-22T09:57:54.901Z</time>
      </trkpt>
      <trkpt lat="42.234603" lon="1.404591">
        <ele>1300.614247</ele>
        <time>2022-05-22T09:57:55.911Z</time>
      </trkpt>
      <trkpt lat="42.234500" lon="1.404620">
        <ele>1299.925825</ele>
        <time>2022-05-22T09:57:56.905Z</time>
      </trkpt>
      <trkpt lat="42.234396" lon="1.404650">
        <ele>1299.230001</ele>
        <time>2022-05-22T09:57:57.910Z</time>
      </trkpt>
      <trkpt lat="42.234280" lon="1.404674">
        <ele>1298.462153</ele>
        <time>2022-05-22T09:57:58.913Z</time>
      </trkpt>
      <trkpt lat="42.234171" lon="1.404680">
        <ele>1297.748368</ele>
        <time>2022-05-22T09:57:59.909Z</time>
      </trkpt>
      <trkpt lat="42.234072" lon="1.404661">
        <ele>1297.094099</ele>
        <time>2022-05-22T09:58:00.908Z</time>
      </trkpt>
      <trkpt lat="42.233914" lon="1.404570">
        <ele>1295.970223</ele>
        <time>2022-05-22T09:58:02.903Z</time>
      </trkpt>
      <trkpt lat="42.233828" lon="1.404516">
        <ele>1295.349683</ele>
        <time>2022-05-22T09:58:03.902Z</time>
      </trkpt>
      <trkpt lat="42.233691" lon="1.404387">
        <ele>1294.256940</ele>
        <time>2022-05-22T09:58:05.903Z</time>
      </trkpt>
      <trkpt lat="42.233569" lon="1.404212">
        <ele>1293.092482</ele>
        <time>2022-05-22T09:58:07.917Z</time>
      </trkpt>
      <trkpt lat="42.233515" lon="1.404103">
        <ele>1292.457123</ele>
        <time>2022-05-22T09:58:08.903Z</time>
      </trkpt>
      <trkpt lat="42.233459" lon="1.403987">
        <ele>1291.786254</ele>
        <time>2022-05-22T09:58:09.908Z</time>
      </trkpt>
      <trkpt lat="42.233401" lon="1.403878">
        <ele>1291.135975</ele>
        <time>2022-05-22T09:58:10.909Z</time>
      </trkpt>
      <trkpt lat="42.233244" lon="1.403747">
        <ele>1289.934874</ele>
        <time>2022-05-22T09:58:12.910Z</time>
      </trkpt>
      <trkpt lat="42.233141" lon="1.403719">
        <ele>1289.281485</ele>
        <time>2022-05-22T09:58:13.910Z</time>
      </trkpt>
      <trkpt lat="42.233047" lon="1.403704">
        <ele>1288.692846</ele>
        <time>2022-05-22T09:58:14.905Z</time>
      </trkpt>
      <trkpt lat="42.232956" lon="1.403696">
        <ele>1288.125732</ele>
        <time>2022-05-22T09:58:15.908Z</time>
      </trkpt>
      <trkpt lat="42.232794" lon="1.403739">
        <ele>1287.099005</ele>
        <time>2022-05-22T09:58:17.910Z</time>
      </trkpt>
      <trkpt lat="42.232644" lon="1.403816">
        <ele>1286.101069</ele>
        <time>2022-05-22T09:58:19.906Z</time>
      </trkpt>
      <trkpt lat="42.232506" lon="1.403910">
        <ele>1285.139896</ele>
        <time>2022-05-22T09:58:21.907Z</time>
      </trkpt>
      <trkpt lat="42.232359" lon="1.403996">
        <ele>1284.143641</ele>
        <time>2022-05-22T09:58:23.912Z</time>
      </trkpt>
      <trkpt lat="42.232216" lon="1.404116">
        <ele>1283.096663</ele>
        <time>2022-05-22T09:58:25.908Z</time>
      </trkpt>
      <trkpt lat="42.232073" lon="1.404145">
        <ele>1282.197397</ele>
        <time>2022-05-22T09:58:27.916Z</time>
      </trkpt>
      <trkpt lat="42.231909" lon="1.404132">
        <ele>1281.175749</ele>
        <time>2022-05-22T09:58:29.914Z</time>
      </trkpt>
      <trkpt lat="42.231740" lon="1.404140">
        <ele>1280.124116</ele>
        <time>2022-05-22T09:58:31.906Z</time>
      </trkpt>
      <trkpt lat="42.231582" lon="1.404234">
        <ele>1279.050426</ele>
        <time>2022-05-22T09:58:33.902Z</time>
      </trkpt>
      <trkpt lat="42.231447" lon="1.404357">
        <ele>1278.392741</ele>
        <time>2022-05-22T09:58:35.917Z</time>
      </trkpt>
      <trkpt lat="42.231316" lon="1.404498">
        <ele>1277.794388</ele>
        <time>2022-05-22T09:58:37.915Z</time>
      </trkpt>
      <trkpt lat="42.231185" lon="1.404645">
        <ele>1277.186018</ele>
        <time>2022-05-22T09:58:39.912Z</time>
      </trkpt>
      <trkpt lat="42.231024" lon="1.404746">
        <ele>1276.551918</ele>
        <time>2022-05-22T09:58:41.912Z</time>
      </trkpt>
      <trkpt lat="42.230872" lon="1.404843">
        <ele>1275.951417</ele>
        <time>2022-05-22T09:58:43.911Z</time>
      </trkpt>
      <trkpt lat="42.230711" lon="1.404923">
        <ele>1275.338640</ele>
        <time>2022-05-22T09:58:45.909Z</time>
      </trkpt>
      <trkpt lat="42.230549" lon="1.404962">
        <ele>1274.750859</ele>
        <time>2022-05-22T09:58:47.912Z</time>
      </trkpt>
      <trkpt lat="42.230382" lon="1.404954">
        <ele>1274.153964</ele>
        <time>2022-05-22T09:58:49.928Z</time>
      </trkpt>
      <trkpt lat="42.230230" lon="1.404911">
        <ele>1273.599241</ele>
        <time>2022-05-22T09:58:51.914Z</time>
      </trkpt>
      <trkpt lat="42.230124" lon="1.404802">
        <ele>1273.123350</ele>
        <time>2022-05-22T09:58:53.912Z</time>
      </trkpt>
      <trkpt lat="42.230029" lon="1.404605">
        <ele>1272.501552</ele>
        <time>2022-05-22T09:58:55.903Z</time>
      </trkpt>
      <trkpt lat="42.229972" lon="1.404472">
        <ele>1272.188289</ele>
        <time>2022-05-22T09:58:56.910Z</time>
      </trkpt>
      <trkpt lat="42.229941" lon="1.404353">
        <ele>1271.942946</ele>
        <time>2022-05-22T09:58:57.906Z</time>
      </trkpt>
      <trkpt lat="42.229927" lon="1.404219">
        <ele>1271.679754</ele>
        <time>2022-05-22T09:58:58.909Z</time>
      </trkpt>
      <trkpt lat="42.229921" lon="1.404020">
        <ele>1271.292407</ele>
        <time>2022-05-22T09:58:59.912Z</time>
      </trkpt>
      <trkpt lat="42.229939" lon="1.403796">
        <ele>1270.854201</ele>
        <time>2022-05-22T09:59:00.910Z</time>
      </trkpt>
      <trkpt lat="42.229967" lon="1.403588">
        <ele>1270.443040</ele>
        <time>2022-05-22T09:59:01.912Z</time>
      </trkpt>
      <trkpt lat="42.229994" lon="1.403426">
        <ele>1270.120091</ele>
        <time>2022-05-22T09:59:02.913Z</time>
      </trkpt>
      <trkpt lat="42.230021" lon="1.403247">
        <ele>1269.764812</ele>
        <time>2022-05-22T09:59:03.919Z</time>
      </trkpt>
      <trkpt lat="42.230058" lon="1.403095">
        <ele>1269.453630</ele>
        <time>2022-05-22T09:59:04.914Z</time>
      </trkpt>
      <trkpt lat="42.230098" lon="1.402944">
        <ele>1269.141730</ele>
        <time>2022-05-22T09:59:05.912Z</time>
      </trkpt>
      <trkpt lat="42.230143" lon="1.402793">
        <ele>1268.825165</ele>
        <time>2022-05-22T09:59:06.912Z</time>
      </trkpt>
      <trkpt lat="42.230192" lon="1.402653">
        <ele>1268.524000</ele>
        <time>2022-05-22T09:59:07.912Z</time>
      </trkpt>
      <trkpt lat="42.230250" lon="1.402521">
        <ele>1268.225482</ele>
        <time>2022-05-22T09:59:08.915Z</time>
      </trkpt>
      <trkpt lat="42.230331" lon="1.402369">
        <ele>1267.861267</ele>
        <time>2022-05-22T09:59:09.906Z</time>
      </trkpt>
      <trkpt lat="42.230406" lon="1.402234">
        <ele>1267.514315</ele>
        <time>2022-05-22T09:59:10.906Z</time>
      </trkpt>
      <trkpt lat="42.230487" lon="1.402107">
        <ele>1267.156194</ele>
        <time>2022-05-22T09:59:11.936Z</time>
      </trkpt>
      <trkpt lat="42.230576" lon="1.401977">
        <ele>1266.777917</ele>
        <time>2022-05-22T09:59:12.900Z</time>
      </trkpt>
      <trkpt lat="42.230667" lon="1.401850">
        <ele>1266.400332</ele>
        <time>2022-05-22T09:59:13.899Z</time>
      </trkpt>
      <trkpt lat="42.230753" lon="1.401701">
        <ele>1265.996700</ele>
        <time>2022-05-22T09:59:14.897Z</time>
      </trkpt>
      <trkpt lat="42.230845" lon="1.401550">
        <ele>1265.578909</ele>
        <time>2022-05-22T09:59:15.900Z</time>
      </trkpt>
      <trkpt lat="42.230938" lon="1.401398">
        <ele>1265.157634</ele>
        <time>2022-05-22T09:59:16.897Z</time>
      </trkpt>
      <trkpt lat="42.231048" lon="1.401261">
        <ele>1264.725873</ele>
        <time>2022-05-22T09:59:17.901Z</time>
      </trkpt>
      <trkpt lat="42.231155" lon="1.401116">
        <ele>1264.288501</ele>
        <time>2022-05-22T09:59:18.899Z</time>
      </trkpt>
      <trkpt lat="42.231246" lon="1.400963">
        <ele>1263.869216</ele>
        <time>2022-05-22T09:59:19.901Z</time>
      </trkpt>
      <trkpt lat="42.231340" lon="1.400804">
        <ele>1263.434515</ele>
        <time>2022-05-22T09:59:20.904Z</time>
      </trkpt>
      <trkpt lat="42.231423" lon="1.400633">
        <ele>1262.997673</ele>
        <time>2022-05-22T09:59:21.899Z</time>
      </trkpt>
      <trkpt lat="42.231500" lon="1.400455">
        <ele>1262.557232</ele>
        <time>2022-05-22T09:59:22.899Z</time>
      </trkpt>
      <trkpt lat="42.231569" lon="1.400277">
        <ele>1261.909133</ele>
        <time>2022-05-22T09:59:23.901Z</time>
      </trkpt>
      <trkpt lat="42.231651" lon="1.400102">
        <ele>1261.227602</ele>
        <time>2022-05-22T09:59:24.900Z</time>
      </trkpt>
      <trkpt lat="42.231724" lon="1.399944">
        <ele>1260.614723</ele>
        <time>2022-05-22T09:59:25.899Z</time>
      </trkpt>
      <trkpt lat="42.231786" lon="1.399790">
        <ele>1260.037860</ele>
        <time>2022-05-22T09:59:26.897Z</time>
      </trkpt>
      <trkpt lat="42.231835" lon="1.399639">
        <ele>1259.495314</ele>
        <time>2022-05-22T09:59:27.897Z</time>
      </trkpt>
      <trkpt lat="42.231871" lon="1.399499">
        <ele>1259.007603</ele>
        <time>2022-05-22T09:59:28.897Z</time>
      </trkpt>
      <trkpt lat="42.231902" lon="1.399357">
        <ele>1258.520414</ele>
        <time>2022-05-22T09:59:29.916Z</time>
      </trkpt>
      <trkpt lat="42.231932" lon="1.399216">
        <ele>1258.037628</ele>
        <time>2022-05-22T09:59:30.902Z</time>
      </trkpt>
      <trkpt lat="42.231938" lon="1.399060">
        <ele>1257.523564</ele>
        <time>2022-05-22T09:59:31.905Z</time>
      </trkpt>
      <trkpt lat="42.231940" lon="1.398900">
        <ele>1256.996954</ele>
        <time>2022-05-22T09:59:32.902Z</time>
      </trkpt>
      <trkpt lat="42.231954" lon="1.398742">
        <ele>1256.473291</ele>
        <time>2022-05-22T09:59:33.899Z</time>
      </trkpt>
      <trkpt lat="42.231990" lon="1.398581">
        <ele>1255.919833</ele>
        <time>2022-05-22T09:59:34.901Z</time>
      </trkpt>
      <trkpt lat="42.232034" lon="1.398433">
        <ele>1255.394995</ele>
        <time>2022-05-22T09:59:35.902Z</time>
      </trkpt>
      <trkpt lat="42.232113" lon="1.398307">
        <ele>1254.851660</ele>
        <time>2022-05-22T09:59:36.899Z</time>
      </trkpt>
      <trkpt lat="42.232174" lon="1.398190">
        <ele>1253.758949</ele>
        <time>2022-05-22T09:59:37.899Z</time>
      </trkpt>
      <trkpt lat="42.232247" lon="1.398099">
        <ele>1251.581575</ele>
        <time>2022-05-22T09:59:38.902Z</time>
      </trkpt>
      <trkpt lat="42.232331" lon="1.397957">
        <ele>1248.631970</ele>
        <time>2022-05-22T09:59:40.898Z</time>
      </trkpt>
      <trkpt lat="42.232442" lon="1.397891">
        <ele>1245.973749</ele>
        <time>2022-05-22T09:59:43.904Z</time>
      </trkpt>
      <trkpt lat="42.232599" lon="1.397891">
        <ele>1242.532643</ele>
        <time>2022-05-22T09:59:46.098Z</time>
      </trkpt>
      <trkpt lat="42.232734" lon="1.397832">
        <ele>1239.422670</ele>
        <time>2022-05-22T09:59:47.909Z</time>
      </trkpt>
      <trkpt lat="42.232816" lon="1.397721">
        <ele>1236.878059</ele>
        <time>2022-05-22T09:59:49.905Z</time>
      </trkpt>
      <trkpt lat="42.232909" lon="1.397571">
        <ele>1233.703071</ele>
        <time>2022-05-22T09:59:51.903Z</time>
      </trkpt>
      <trkpt lat="42.233017" lon="1.397392">
        <ele>1229.955853</ele>
        <time>2022-05-22T09:59:53.903Z</time>
      </trkpt>
      <trkpt lat="42.233106" lon="1.397180">
        <ele>1226.000903</ele>
        <time>2022-05-22T09:59:55.909Z</time>
      </trkpt>
      <trkpt lat="42.233145" lon="1.397063">
        <ele>1223.918644</ele>
        <time>2022-05-22T09:59:56.905Z</time>
      </trkpt>
      <trkpt lat="42.233181" lon="1.396936">
        <ele>1221.711768</ele>
        <time>2022-05-22T09:59:57.907Z</time>
      </trkpt>
      <trkpt lat="42.233215" lon="1.396804">
        <ele>1219.443708</ele>
        <time>2022-05-22T09:59:58.903Z</time>
      </trkpt>
      <trkpt lat="42.233245" lon="1.396665">
        <ele>1217.094091</ele>
        <time>2022-05-22T09:59:59.901Z</time>
      </trkpt>
      <trkpt lat="42.233267" lon="1.396518">
        <ele>1215.084045</ele>
        <time>2022-05-22T10:00:00.910Z</time>
      </trkpt>
      <trkpt lat="42.233285" lon="1.396369">
        <ele>1214.909802</ele>
        <time>2022-05-22T10:00:01.908Z</time>
      </trkpt>
      <trkpt lat="42.233306" lon="1.396213">
        <ele>1214.726802</ele>
        <time>2022-05-22T10:00:02.909Z</time>
      </trkpt>
      <trkpt lat="42.233336" lon="1.396051">
        <ele>1214.534070</ele>
        <time>2022-05-22T10:00:03.905Z</time>
      </trkpt>
      <trkpt lat="42.233375" lon="1.395893">
        <ele>1214.341848</ele>
        <time>2022-05-22T10:00:04.910Z</time>
      </trkpt>
      <trkpt lat="42.233423" lon="1.395734">
        <ele>1214.143670</ele>
        <time>2022-05-22T10:00:05.910Z</time>
      </trkpt>
      <trkpt lat="42.233481" lon="1.395570">
        <ele>1213.933905</ele>
        <time>2022-05-22T10:00:06.911Z</time>
      </trkpt>
      <trkpt lat="42.233554" lon="1.395418">
        <ele>1213.724801</ele>
        <time>2022-05-22T10:00:07.910Z</time>
      </trkpt>
      <trkpt lat="42.233627" lon="1.395269">
        <ele>1213.518593</ele>
        <time>2022-05-22T10:00:08.909Z</time>
      </trkpt>
      <trkpt lat="42.233693" lon="1.395117">
        <ele>1213.315221</ele>
        <time>2022-05-22T10:00:09.911Z</time>
      </trkpt>
      <trkpt lat="42.233751" lon="1.394965">
        <ele>1213.117864</ele>
        <time>2022-05-22T10:00:10.909Z</time>
      </trkpt>
      <trkpt lat="42.233803" lon="1.394812">
        <ele>1212.923565</ele>
        <time>2022-05-22T10:00:11.906Z</time>
      </trkpt>
      <trkpt lat="42.233837" lon="1.394646">
        <ele>1212.724782</ele>
        <time>2022-05-22T10:00:12.906Z</time>
      </trkpt>
      <trkpt lat="42.233857" lon="1.394473">
        <ele>1212.522696</ele>
        <time>2022-05-22T10:00:13.908Z</time>
      </trkpt>
      <trkpt lat="42.233857" lon="1.394296">
        <ele>1212.318412</ele>
        <time>2022-05-22T10:00:14.906Z</time>
      </trkpt>
      <trkpt lat="42.233856" lon="1.394113">
        <ele>1212.179906</ele>
        <time>2022-05-22T10:00:15.903Z</time>
      </trkpt>
      <trkpt lat="42.233852" lon="1.393929">
        <ele>1212.042593</ele>
        <time>2022-05-22T10:00:16.906Z</time>
      </trkpt>
      <trkpt lat="42.233852" lon="1.393745">
        <ele>1211.905339</ele>
        <time>2022-05-22T10:00:17.903Z</time>
      </trkpt>
      <trkpt lat="42.233856" lon="1.393568">
        <ele>1211.773245</ele>
        <time>2022-05-22T10:00:18.903Z</time>
      </trkpt>
      <trkpt lat="42.233858" lon="1.393375">
        <ele>1211.629264</ele>
        <time>2022-05-22T10:00:19.903Z</time>
      </trkpt>
      <trkpt lat="42.233864" lon="1.393183">
        <ele>1211.485915</ele>
        <time>2022-05-22T10:00:20.904Z</time>
      </trkpt>
      <trkpt lat="42.233878" lon="1.393000">
        <ele>1211.348680</ele>
        <time>2022-05-22T10:00:21.908Z</time>
      </trkpt>
      <trkpt lat="42.233890" lon="1.392826">
        <ele>1211.218324</ele>
        <time>2022-05-22T10:00:22.904Z</time>
      </trkpt>
      <trkpt lat="42.233926" lon="1.392680">
        <ele>1211.103535</ele>
        <time>2022-05-22T10:00:23.907Z</time>
      </trkpt>
      <trkpt lat="42.233957" lon="1.392525">
        <ele>1210.983770</ele>
        <time>2022-05-22T10:00:24.902Z</time>
      </trkpt>
      <trkpt lat="42.234002" lon="1.392396">
        <ele>1210.877398</ele>
        <time>2022-05-22T10:00:25.903Z</time>
      </trkpt>
      <trkpt lat="42.234046" lon="1.392267">
        <ele>1210.771451</ele>
        <time>2022-05-22T10:00:26.905Z</time>
      </trkpt>
      <trkpt lat="42.234105" lon="1.392154">
        <ele>1210.668309</ele>
        <time>2022-05-22T10:00:27.903Z</time>
      </trkpt>
      <trkpt lat="42.234178" lon="1.392058">
        <ele>1210.565659</ele>
        <time>2022-05-22T10:00:28.904Z</time>
      </trkpt>
      <trkpt lat="42.234260" lon="1.391991">
        <ele>1210.446317</ele>
        <time>2022-05-22T10:00:29.902Z</time>
      </trkpt>
      <trkpt lat="42.234334" lon="1.391918">
        <ele>1210.287362</ele>
        <time>2022-05-22T10:00:30.910Z</time>
      </trkpt>
      <trkpt lat="42.234445" lon="1.391750">
        <ele>1209.998180</ele>
        <time>2022-05-22T10:00:32.902Z</time>
      </trkpt>
      <trkpt lat="42.234545" lon="1.391616">
        <ele>1209.753831</ele>
        <time>2022-05-22T10:00:34.904Z</time>
      </trkpt>
      <trkpt lat="42.234651" lon="1.391518">
        <ele>1209.531010</ele>
        <time>2022-05-22T10:00:36.910Z</time>
      </trkpt>
      <trkpt lat="42.234733" lon="1.391391">
        <ele>1209.314595</ele>
        <time>2022-05-22T10:00:38.903Z</time>
      </trkpt>
      <trkpt lat="42.234799" lon="1.391215">
        <ele>1209.061219</ele>
        <time>2022-05-22T10:00:40.909Z</time>
      </trkpt>
      <trkpt lat="42.234836" lon="1.391009">
        <ele>1208.788980</ele>
        <time>2022-05-22T10:00:42.901Z</time>
      </trkpt>
      <trkpt lat="42.234879" lon="1.390827">
        <ele>1208.543625</ele>
        <time>2022-05-22T10:00:44.908Z</time>
      </trkpt>
      <trkpt lat="42.234916" lon="1.390644">
        <ele>1208.299992</ele>
        <time>2022-05-22T10:00:46.899Z</time>
      </trkpt>
      <trkpt lat="42.234976" lon="1.390459">
        <ele>1208.040602</ele>
        <time>2022-05-22T10:00:48.899Z</time>
      </trkpt>
      <trkpt lat="42.235045" lon="1.390293">
        <ele>1207.796109</ele>
        <time>2022-05-22T10:00:50.906Z</time>
      </trkpt>
      <trkpt lat="42.235109" lon="1.390163">
        <ele>1207.595611</ele>
        <time>2022-05-22T10:00:52.901Z</time>
      </trkpt>
      <trkpt lat="42.235155" lon="1.390044">
        <ele>1207.423204</ele>
        <time>2022-05-22T10:00:54.903Z</time>
      </trkpt>
      <trkpt lat="42.235205" lon="1.389875">
        <ele>1206.803169</ele>
        <time>2022-05-22T10:00:57.908Z</time>
      </trkpt>
      <trkpt lat="42.235248" lon="1.389757">
        <ele>1206.293100</ele>
        <time>2022-05-22T10:00:59.902Z</time>
      </trkpt>
      <trkpt lat="42.235347" lon="1.389614">
        <ele>1205.533819</ele>
        <time>2022-05-22T10:01:02.910Z</time>
      </trkpt>
      <trkpt lat="42.235448" lon="1.389533">
        <ele>1204.918524</ele>
        <time>2022-05-22T10:01:04.904Z</time>
      </trkpt>
      <trkpt lat="42.235537" lon="1.389420">
        <ele>1204.278677</ele>
        <time>2022-05-22T10:01:06.909Z</time>
      </trkpt>
      <trkpt lat="42.235632" lon="1.389317">
        <ele>1203.640549</ele>
        <time>2022-05-22T10:01:08.908Z</time>
      </trkpt>
      <trkpt lat="42.235715" lon="1.389218">
        <ele>1203.060511</ele>
        <time>2022-05-22T10:01:10.901Z</time>
      </trkpt>
      <trkpt lat="42.235797" lon="1.389091">
        <ele>1202.406985</ele>
        <time>2022-05-22T10:01:13.905Z</time>
      </trkpt>
      <trkpt lat="42.235841" lon="1.388983">
        <ele>1201.928905</ele>
        <time>2022-05-22T10:01:15.900Z</time>
      </trkpt>
      <trkpt lat="42.235873" lon="1.388861">
        <ele>1201.426940</ele>
        <time>2022-05-22T10:01:17.900Z</time>
      </trkpt>
      <trkpt lat="42.235918" lon="1.388687">
        <ele>1200.712135</ele>
        <time>2022-05-22T10:01:20.907Z</time>
      </trkpt>
      <trkpt lat="42.235954" lon="1.388571">
        <ele>1200.224331</ele>
        <time>2022-05-22T10:01:22.904Z</time>
      </trkpt>
      <trkpt lat="42.235992" lon="1.388411">
        <ele>1199.572663</ele>
        <time>2022-05-22T10:01:25.910Z</time>
      </trkpt>
      <trkpt lat="42.236052" lon="1.388286">
        <ele>1198.994913</ele>
        <time>2022-05-22T10:01:28.910Z</time>
      </trkpt>
      <trkpt lat="42.236107" lon="1.388167">
        <ele>1198.450857</ele>
        <time>2022-05-22T10:01:31.904Z</time>
      </trkpt>
      <trkpt lat="42.236149" lon="1.388050">
        <ele>1197.950445</ele>
        <time>2022-05-22T10:01:34.910Z</time>
      </trkpt>
      <trkpt lat="42.236188" lon="1.387928">
        <ele>1197.594604</ele>
        <time>2022-05-22T10:01:37.907Z</time>
      </trkpt>
      <trkpt lat="42.236250" lon="1.387831">
        <ele>1197.251454</ele>
        <time>2022-05-22T10:01:40.908Z</time>
      </trkpt>
      <trkpt lat="42.236331" lon="1.387719">
        <ele>1196.832202</ele>
        <time>2022-05-22T10:01:43.930Z</time>
      </trkpt>
      <trkpt lat="42.236435" lon="1.387606">
        <ele>1196.349455</ele>
        <time>2022-05-22T10:01:46.934Z</time>
      </trkpt>
      <trkpt lat="42.236498" lon="1.387514">
        <ele>1196.013880</ele>
        <time>2022-05-22T10:01:48.902Z</time>
      </trkpt>
      <trkpt lat="42.236588" lon="1.387386">
        <ele>1195.541188</ele>
        <time>2022-05-22T10:01:51.912Z</time>
      </trkpt>
      <trkpt lat="42.236673" lon="1.387250">
        <ele>1195.064601</ele>
        <time>2022-05-22T10:01:54.913Z</time>
      </trkpt>
      <trkpt lat="42.236714" lon="1.387142">
        <ele>1194.739600</ele>
        <time>2022-05-22T10:01:56.911Z</time>
      </trkpt>
      <trkpt lat="42.236737" lon="1.386975">
        <ele>1194.284741</ele>
        <time>2022-05-22T10:01:59.918Z</time>
      </trkpt>
      <trkpt lat="42.236755" lon="1.386840">
        <ele>1193.917427</ele>
        <time>2022-05-22T10:02:02.899Z</time>
      </trkpt>
      <trkpt lat="42.236696" lon="1.386720">
        <ele>1193.531695</ele>
        <time>2022-05-22T10:02:10.906Z</time>
      </trkpt>
      <trkpt lat="42.236671" lon="1.386585">
        <ele>1193.159059</ele>
        <time>2022-05-22T10:02:13.903Z</time>
      </trkpt>
      <trkpt lat="42.236658" lon="1.386452">
        <ele>1192.799826</ele>
        <time>2022-05-22T10:02:17.902Z</time>
      </trkpt>
      <trkpt lat="42.236658" lon="1.386316">
        <ele>1192.435649</ele>
        <time>2022-05-22T10:02:22.901Z</time>
      </trkpt>
      <trkpt lat="42.236655" lon="1.386181">
        <ele>1192.073987</ele>
        <time>2022-05-22T10:02:26.907Z</time>
      </trkpt>
      <trkpt lat="42.236661" lon="1.386030">
        <ele>1191.669061</ele>
        <time>2022-05-22T10:02:30.906Z</time>
      </trkpt>
      <trkpt lat="42.236707" lon="1.385908">
        <ele>1191.656242</ele>
        <time>2022-05-22T10:02:34.900Z</time>
      </trkpt>
      <trkpt lat="42.236720" lon="1.385758">
        <ele>1192.197306</ele>
        <time>2022-05-22T10:02:39.902Z</time>
      </trkpt>
      <trkpt lat="42.236779" lon="1.385646">
        <ele>1192.689763</ele>
        <time>2022-05-22T10:02:43.908Z</time>
      </trkpt>
      <trkpt lat="42.236816" lon="1.385508">
        <ele>1193.215585</ele>
        <time>2022-05-22T10:02:48.905Z</time>
      </trkpt>
      <trkpt lat="42.236806" lon="1.385362">
        <ele>1193.740881</ele>
        <time>2022-05-22T10:02:54.897Z</time>
      </trkpt>
      <trkpt lat="42.236813" lon="1.385226">
        <ele>1194.229294</ele>
        <time>2022-05-22T10:02:59.908Z</time>
      </trkpt>
      <trkpt lat="42.236863" lon="1.385109">
        <ele>1194.713276</ele>
        <time>2022-05-22T10:03:04.910Z</time>
      </trkpt>
      <trkpt lat="42.236888" lon="1.384989">
        <ele>1195.159887</ele>
        <time>2022-05-22T10:03:09.903Z</time>
      </trkpt>
      <trkpt lat="42.236937" lon="1.384873">
        <ele>1195.638353</ele>
        <time>2022-05-22T10:03:15.903Z</time>
      </trkpt>
      <trkpt lat="42.237011" lon="1.384797">
        <ele>1196.088195</ele>
        <time>2022-05-22T10:03:20.905Z</time>
      </trkpt>
      <trkpt lat="42.237053" lon="1.384669">
        <ele>1196.589788</ele>
        <time>2022-05-22T10:03:25.900Z</time>
      </trkpt>
      <trkpt lat="42.237083" lon="1.384538">
        <ele>1197.081048</ele>
        <time>2022-05-22T10:03:30.904Z</time>
      </trkpt>
      <trkpt lat="42.237121" lon="1.384424">
        <ele>1197.528950</ele>
        <time>2022-05-22T10:03:35.906Z</time>
      </trkpt>
      <trkpt lat="42.237171" lon="1.384304">
        <ele>1198.022268</ele>
        <time>2022-05-22T10:03:40.905Z</time>
      </trkpt>
      <trkpt lat="42.237229" lon="1.384195">
        <ele>1198.503166</ele>
        <time>2022-05-22T10:03:45.909Z</time>
      </trkpt>
      <trkpt lat="42.237269" lon="1.384071">
        <ele>1198.987743</ele>
        <time>2022-05-22T10:03:50.910Z</time>
      </trkpt>
      <trkpt lat="42.237299" lon="1.383950">
        <ele>1199.444899</ele>
        <time>2022-05-22T10:03:56.901Z</time>
      </trkpt>
      <trkpt lat="42.237286" lon="1.383812">
        <ele>1199.943283</ele>
        <time>2022-05-22T10:04:01.901Z</time>
      </trkpt>
      <trkpt lat="42.237307" lon="1.383675">
        <ele>1200.748917</ele>
        <time>2022-05-22T10:04:06.907Z</time>
      </trkpt>
      <trkpt lat="42.237320" lon="1.383538">
        <ele>1201.768234</ele>
        <time>2022-05-22T10:04:11.904Z</time>
      </trkpt>
      <trkpt lat="42.237330" lon="1.383414">
        <ele>1202.688755</ele>
        <time>2022-05-22T10:04:15.910Z</time>
      </trkpt>
      <trkpt lat="42.237335" lon="1.383266">
        <ele>1203.782117</ele>
        <time>2022-05-22T10:04:20.912Z</time>
      </trkpt>
      <trkpt lat="42.237360" lon="1.383117">
        <ele>1204.909605</ele>
        <time>2022-05-22T10:04:25.908Z</time>
      </trkpt>
      <trkpt lat="42.237370" lon="1.382990">
        <ele>1205.852138</ele>
        <time>2022-05-22T10:04:29.903Z</time>
      </trkpt>
      <trkpt lat="42.237389" lon="1.382851">
        <ele>1206.895280</ele>
        <time>2022-05-22T10:04:35.903Z</time>
      </trkpt>
      <trkpt lat="42.237416" lon="1.382712">
        <ele>1207.955803</ele>
        <time>2022-05-22T10:04:41.930Z</time>
      </trkpt>
      <trkpt lat="42.237432" lon="1.382587">
        <ele>1208.891974</ele>
        <time>2022-05-22T10:04:46.908Z</time>
      </trkpt>
      <trkpt lat="42.237437" lon="1.382460">
        <ele>1209.830545</ele>
        <time>2022-05-22T10:04:51.910Z</time>
      </trkpt>
      <trkpt lat="42.237453" lon="1.382330">
        <ele>1210.803096</ele>
        <time>2022-05-22T10:04:56.917Z</time>
      </trkpt>
      <trkpt lat="42.237485" lon="1.382200">
        <ele>1211.814117</ele>
        <time>2022-05-22T10:05:02.919Z</time>
      </trkpt>
      <trkpt lat="42.237525" lon="1.382071">
        <ele>1212.846244</ele>
        <time>2022-05-22T10:05:08.910Z</time>
      </trkpt>
      <trkpt lat="42.237582" lon="1.381971">
        <ele>1213.777611</ele>
        <time>2022-05-22T10:05:13.914Z</time>
      </trkpt>
      <trkpt lat="42.237660" lon="1.381880">
        <ele>1214.804988</ele>
        <time>2022-05-22T10:05:19.905Z</time>
      </trkpt>
      <trkpt lat="42.237730" lon="1.381782">
        <ele>1215.809933</ele>
        <time>2022-05-22T10:05:25.910Z</time>
      </trkpt>
      <trkpt lat="42.237799" lon="1.381685">
        <ele>1216.802648</ele>
        <time>2022-05-22T10:05:30.910Z</time>
      </trkpt>
      <trkpt lat="42.237859" lon="1.381595">
        <ele>1217.696424</ele>
        <time>2022-05-22T10:05:35.920Z</time>
      </trkpt>
      <trkpt lat="42.237924" lon="1.381498">
        <ele>1218.268692</ele>
        <time>2022-05-22T10:05:40.914Z</time>
      </trkpt>
      <trkpt lat="42.237990" lon="1.381401">
        <ele>1218.577086</ele>
        <time>2022-05-22T10:05:45.912Z</time>
      </trkpt>
      <trkpt lat="42.238055" lon="1.381293">
        <ele>1218.902900</ele>
        <time>2022-05-22T10:05:50.915Z</time>
      </trkpt>
      <trkpt lat="42.238202" lon="1.381099">
        <ele>1219.552720</ele>
        <time>2022-05-22T10:06:36.922Z</time>
      </trkpt>
      <trkpt lat="42.238289" lon="1.380998">
        <ele>1219.915443</ele>
        <time>2022-05-22T10:06:39.911Z</time>
      </trkpt>
      <trkpt lat="42.238359" lon="1.380903">
        <ele>1220.229196</ele>
        <time>2022-05-22T10:06:42.912Z</time>
      </trkpt>
      <trkpt lat="42.238407" lon="1.380798">
        <ele>1220.518068</ele>
        <time>2022-05-22T10:06:45.916Z</time>
      </trkpt>
      <trkpt lat="42.238462" lon="1.380682">
        <ele>1220.840522</ele>
        <time>2022-05-22T10:06:48.915Z</time>
      </trkpt>
      <trkpt lat="42.238527" lon="1.380578">
        <ele>1221.159123</ele>
        <time>2022-05-22T10:06:51.914Z</time>
      </trkpt>
      <trkpt lat="42.238605" lon="1.380440">
        <ele>1221.565545</ele>
        <time>2022-05-22T10:06:54.917Z</time>
      </trkpt>
      <trkpt lat="42.238678" lon="1.380341">
        <ele>1221.892625</ele>
        <time>2022-05-22T10:06:56.910Z</time>
      </trkpt>
      <trkpt lat="42.238753" lon="1.380241">
        <ele>1222.225838</ele>
        <time>2022-05-22T10:06:58.909Z</time>
      </trkpt>
      <trkpt lat="42.238805" lon="1.380127">
        <ele>1222.539280</ele>
        <time>2022-05-22T10:07:00.917Z</time>
      </trkpt>
      <trkpt lat="42.238853" lon="1.380005">
        <ele>1222.862688</ele>
        <time>2022-05-22T10:07:02.917Z</time>
      </trkpt>
      <trkpt lat="42.238901" lon="1.379890">
        <ele>1223.171721</ele>
        <time>2022-05-22T10:07:04.912Z</time>
      </trkpt>
      <trkpt lat="42.238958" lon="1.379746">
        <ele>1223.553960</ele>
        <time>2022-05-22T10:07:06.914Z</time>
      </trkpt>
      <trkpt lat="42.239004" lon="1.379596">
        <ele>1223.816306</ele>
        <time>2022-05-22T10:07:08.919Z</time>
      </trkpt>
      <trkpt lat="42.239045" lon="1.379449">
        <ele>1223.915169</ele>
        <time>2022-05-22T10:07:10.907Z</time>
      </trkpt>
      <trkpt lat="42.239100" lon="1.379320">
        <ele>1224.008857</ele>
        <time>2022-05-22T10:07:12.910Z</time>
      </trkpt>
      <trkpt lat="42.239156" lon="1.379182">
        <ele>1224.107900</ele>
        <time>2022-05-22T10:07:14.907Z</time>
      </trkpt>
      <trkpt lat="42.239213" lon="1.379028">
        <ele>1224.216258</ele>
        <time>2022-05-22T10:07:16.910Z</time>
      </trkpt>
      <trkpt lat="42.239272" lon="1.378878">
        <ele>1224.323158</ele>
        <time>2022-05-22T10:07:18.912Z</time>
      </trkpt>
      <trkpt lat="42.239324" lon="1.378738">
        <ele>1224.421735</ele>
        <time>2022-05-22T10:07:20.911Z</time>
      </trkpt>
      <trkpt lat="42.239364" lon="1.378585">
        <ele>1224.523854</ele>
        <time>2022-05-22T10:07:22.918Z</time>
      </trkpt>
      <trkpt lat="42.239392" lon="1.378424">
        <ele>1224.627939</ele>
        <time>2022-05-22T10:07:24.914Z</time>
      </trkpt>
      <trkpt lat="42.239402" lon="1.378261">
        <ele>1224.730876</ele>
        <time>2022-05-22T10:07:26.914Z</time>
      </trkpt>
      <trkpt lat="42.239397" lon="1.378091">
        <ele>1224.837951</ele>
        <time>2022-05-22T10:07:28.916Z</time>
      </trkpt>
      <trkpt lat="42.239381" lon="1.377943">
        <ele>1224.932083</ele>
        <time>2022-05-22T10:07:30.913Z</time>
      </trkpt>
      <trkpt lat="42.239369" lon="1.377810">
        <ele>1225.016407</ele>
        <time>2022-05-22T10:07:32.926Z</time>
      </trkpt>
      <trkpt lat="42.239341" lon="1.377668">
        <ele>1225.108891</ele>
        <time>2022-05-22T10:07:34.913Z</time>
      </trkpt>
      <trkpt lat="42.239303" lon="1.377519">
        <ele>1225.208073</ele>
        <time>2022-05-22T10:07:36.913Z</time>
      </trkpt>
      <trkpt lat="42.239267" lon="1.377370">
        <ele>1225.268624</ele>
        <time>2022-05-22T10:07:38.911Z</time>
      </trkpt>
      <trkpt lat="42.239286" lon="1.377201">
        <ele>1224.502505</ele>
        <time>2022-05-22T10:07:40.916Z</time>
      </trkpt>
      <trkpt lat="42.239294" lon="1.377029">
        <ele>1223.730104</ele>
        <time>2022-05-22T10:07:42.915Z</time>
      </trkpt>
      <trkpt lat="42.239311" lon="1.376846">
        <ele>1222.903491</ele>
        <time>2022-05-22T10:07:44.913Z</time>
      </trkpt>
      <trkpt lat="42.239355" lon="1.376676">
        <ele>1222.096356</ele>
        <time>2022-05-22T10:07:46.917Z</time>
      </trkpt>
      <trkpt lat="42.239368" lon="1.376493">
        <ele>1221.272409</ele>
        <time>2022-05-22T10:07:48.919Z</time>
      </trkpt>
      <trkpt lat="42.239376" lon="1.376329">
        <ele>1220.535790</ele>
        <time>2022-05-22T10:07:50.911Z</time>
      </trkpt>
      <trkpt lat="42.239383" lon="1.376169">
        <ele>1219.817441</ele>
        <time>2022-05-22T10:07:52.917Z</time>
      </trkpt>
      <trkpt lat="42.239390" lon="1.375975">
        <ele>1218.946929</ele>
        <time>2022-05-22T10:07:54.919Z</time>
      </trkpt>
      <trkpt lat="42.239387" lon="1.375773">
        <ele>1218.041411</ele>
        <time>2022-05-22T10:07:56.914Z</time>
      </trkpt>
      <trkpt lat="42.239385" lon="1.375590">
        <ele>1217.221142</ele>
        <time>2022-05-22T10:07:58.913Z</time>
      </trkpt>
      <trkpt lat="42.239384" lon="1.375384">
        <ele>1216.297859</ele>
        <time>2022-05-22T10:08:00.918Z</time>
      </trkpt>
      <trkpt lat="42.239396" lon="1.375170">
        <ele>1215.335994</ele>
        <time>2022-05-22T10:08:02.912Z</time>
      </trkpt>
      <trkpt lat="42.239413" lon="1.374957">
        <ele>1214.380528</ele>
        <time>2022-05-22T10:08:04.913Z</time>
      </trkpt>
      <trkpt lat="42.239449" lon="1.374748">
        <ele>1213.538927</ele>
        <time>2022-05-22T10:08:06.918Z</time>
      </trkpt>
      <trkpt lat="42.239489" lon="1.374531">
        <ele>1212.661860</ele>
        <time>2022-05-22T10:08:08.911Z</time>
      </trkpt>
      <trkpt lat="42.239562" lon="1.374320">
        <ele>1211.748407</ele>
        <time>2022-05-22T10:08:10.920Z</time>
      </trkpt>
      <trkpt lat="42.239601" lon="1.374207">
        <ele>1211.259425</ele>
        <time>2022-05-22T10:08:11.908Z</time>
      </trkpt>
      <trkpt lat="42.239635" lon="1.374090">
        <ele>1210.766463</ele>
        <time>2022-05-22T10:08:12.917Z</time>
      </trkpt>
      <trkpt lat="42.239670" lon="1.373874">
        <ele>1209.899250</ele>
        <time>2022-05-22T10:08:14.915Z</time>
      </trkpt>
      <trkpt lat="42.239624" lon="1.373659">
        <ele>1209.021507</ele>
        <time>2022-05-22T10:08:16.911Z</time>
      </trkpt>
      <trkpt lat="42.239555" lon="1.373443">
        <ele>1208.098850</ele>
        <time>2022-05-22T10:08:18.922Z</time>
      </trkpt>
      <trkpt lat="42.239432" lon="1.373272">
        <ele>1207.163763</ele>
        <time>2022-05-22T10:08:20.914Z</time>
      </trkpt>
      <trkpt lat="42.239365" lon="1.373189">
        <ele>1206.682149</ele>
        <time>2022-05-22T10:08:21.925Z</time>
      </trkpt>
      <trkpt lat="42.239236" lon="1.373032">
        <ele>1205.762264</ele>
        <time>2022-05-22T10:08:23.918Z</time>
      </trkpt>
      <trkpt lat="42.239163" lon="1.372960">
        <ele>1205.283411</ele>
        <time>2022-05-22T10:08:24.920Z</time>
      </trkpt>
      <trkpt lat="42.239065" lon="1.372784">
        <ele>1204.414554</ele>
        <time>2022-05-22T10:08:26.929Z</time>
      </trkpt>
      <trkpt lat="42.238999" lon="1.372614">
        <ele>1203.653386</ele>
        <time>2022-05-22T10:08:28.915Z</time>
      </trkpt>
      <trkpt lat="42.238985" lon="1.372462">
        <ele>1203.046012</ele>
        <time>2022-05-22T10:08:30.915Z</time>
      </trkpt>
      <trkpt lat="42.239008" lon="1.372340">
        <ele>1202.546805</ele>
        <time>2022-05-22T10:08:32.917Z</time>
      </trkpt>
      <trkpt lat="42.239122" lon="1.372143">
        <ele>1201.555322</ele>
        <time>2022-05-22T10:08:36.919Z</time>
      </trkpt>
      <trkpt lat="42.239200" lon="1.372003">
        <ele>1200.860545</ele>
        <time>2022-05-22T10:08:37.937Z</time>
      </trkpt>
      <trkpt lat="42.239265" lon="1.371855">
        <ele>1200.178187</ele>
        <time>2022-05-22T10:08:38.930Z</time>
      </trkpt>
      <trkpt lat="42.239311" lon="1.371710">
        <ele>1199.552655</ele>
        <time>2022-05-22T10:08:39.930Z</time>
      </trkpt>
      <trkpt lat="42.239357" lon="1.371559">
        <ele>1198.905187</ele>
        <time>2022-05-22T10:08:40.929Z</time>
      </trkpt>
      <trkpt lat="42.239400" lon="1.371413">
        <ele>1198.282125</ele>
        <time>2022-05-22T10:08:41.927Z</time>
      </trkpt>
      <trkpt lat="42.239452" lon="1.371276">
        <ele>1197.671646</ele>
        <time>2022-05-22T10:08:42.923Z</time>
      </trkpt>
      <trkpt lat="42.239496" lon="1.371132">
        <ele>1197.053924</ele>
        <time>2022-05-22T10:08:43.934Z</time>
      </trkpt>
      <trkpt lat="42.239535" lon="1.370985">
        <ele>1196.434730</ele>
        <time>2022-05-22T10:08:44.933Z</time>
      </trkpt>
      <trkpt lat="42.239585" lon="1.370837">
        <ele>1195.789653</ele>
        <time>2022-05-22T10:08:46.025Z</time>
      </trkpt>
      <trkpt lat="42.239651" lon="1.370687">
        <ele>1195.166241</ele>
        <time>2022-05-22T10:08:46.936Z</time>
      </trkpt>
      <trkpt lat="42.239716" lon="1.370531">
        <ele>1194.772894</ele>
        <time>2022-05-22T10:08:47.933Z</time>
      </trkpt>
      <trkpt lat="42.239783" lon="1.370365">
        <ele>1194.357449</ele>
        <time>2022-05-22T10:08:48.931Z</time>
      </trkpt>
      <trkpt lat="42.239847" lon="1.370208">
        <ele>1193.963627</ele>
        <time>2022-05-22T10:08:49.929Z</time>
      </trkpt>
      <trkpt lat="42.239909" lon="1.370060">
        <ele>1193.589966</ele>
        <time>2022-05-22T10:08:50.932Z</time>
      </trkpt>
      <trkpt lat="42.239972" lon="1.369916">
        <ele>1193.222429</ele>
        <time>2022-05-22T10:08:51.929Z</time>
      </trkpt>
      <trkpt lat="42.240048" lon="1.369781">
        <ele>1192.849766</ele>
        <time>2022-05-22T10:08:52.930Z</time>
      </trkpt>
      <trkpt lat="42.240135" lon="1.369682">
        <ele>1192.512128</ele>
        <time>2022-05-22T10:08:53.915Z</time>
      </trkpt>
      <trkpt lat="42.240230" lon="1.369609">
        <ele>1192.187732</ele>
        <time>2022-05-22T10:08:54.913Z</time>
      </trkpt>
      <trkpt lat="42.240331" lon="1.369574">
        <ele>1191.878252</ele>
        <time>2022-05-22T10:08:55.909Z</time>
      </trkpt>
      <trkpt lat="42.240450" lon="1.369566">
        <ele>1191.524619</ele>
        <time>2022-05-22T10:08:56.921Z</time>
      </trkpt>
      <trkpt lat="42.240605" lon="1.369597">
        <ele>1191.059558</ele>
        <time>2022-05-22T10:08:57.926Z</time>
      </trkpt>
      <trkpt lat="42.240789" lon="1.369679">
        <ele>1190.484485</ele>
        <time>2022-05-22T10:08:58.928Z</time>
      </trkpt>
      <trkpt lat="42.240972" lon="1.369760">
        <ele>1189.912888</ele>
        <time>2022-05-22T10:08:59.921Z</time>
      </trkpt>
      <trkpt lat="42.241157" lon="1.369832">
        <ele>1188.695017</ele>
        <time>2022-05-22T10:09:00.929Z</time>
      </trkpt>
      <trkpt lat="42.241325" lon="1.369906">
        <ele>1187.577214</ele>
        <time>2022-05-22T10:09:01.919Z</time>
      </trkpt>
      <trkpt lat="42.241486" lon="1.369977">
        <ele>1186.505866</ele>
        <time>2022-05-22T10:09:02.923Z</time>
      </trkpt>
      <trkpt lat="42.241628" lon="1.370055">
        <ele>1185.536179</ele>
        <time>2022-05-22T10:09:03.922Z</time>
      </trkpt>
      <trkpt lat="42.241753" lon="1.370141">
        <ele>1184.648802</ele>
        <time>2022-05-22T10:09:04.929Z</time>
      </trkpt>
      <trkpt lat="42.241870" lon="1.370214">
        <ele>1183.833550</ele>
        <time>2022-05-22T10:09:05.904Z</time>
      </trkpt>
      <trkpt lat="42.241988" lon="1.370304">
        <ele>1182.976339</ele>
        <time>2022-05-22T10:09:06.903Z</time>
      </trkpt>
      <trkpt lat="42.242098" lon="1.370375">
        <ele>1182.205148</ele>
        <time>2022-05-22T10:09:07.897Z</time>
      </trkpt>
      <trkpt lat="42.242222" lon="1.370445">
        <ele>1181.355011</ele>
        <time>2022-05-22T10:09:08.905Z</time>
      </trkpt>
      <trkpt lat="42.242337" lon="1.370496">
        <ele>1180.589347</ele>
        <time>2022-05-22T10:09:09.903Z</time>
      </trkpt>
      <trkpt lat="42.242449" lon="1.370539">
        <ele>1179.852802</ele>
        <time>2022-05-22T10:09:10.904Z</time>
      </trkpt>
      <trkpt lat="42.242554" lon="1.370552">
        <ele>1179.185814</ele>
        <time>2022-05-22T10:09:12.905Z</time>
      </trkpt>
      <trkpt lat="42.242437" lon="1.370727">
        <ele>1178.254699</ele>
        <time>2022-05-22T10:09:19.953Z</time>
      </trkpt>
      <trkpt lat="42.242340" lon="1.370858">
        <ele>1177.718212</ele>
        <time>2022-05-22T10:09:21.904Z</time>
      </trkpt>
      <trkpt lat="42.242316" lon="1.370997">
        <ele>1177.304931</ele>
        <time>2022-05-22T10:09:23.901Z</time>
      </trkpt>
      <trkpt lat="42.242312" lon="1.371121">
        <ele>1176.945544</ele>
        <time>2022-05-22T10:09:26.903Z</time>
      </trkpt>
      <trkpt lat="42.242499" lon="1.371270">
        <ele>1176.096375</ele>
        <time>2022-05-22T10:10:35.907Z</time>
      </trkpt>
      <trkpt lat="42.242615" lon="1.371327">
        <ele>1175.613582</ele>
        <time>2022-05-22T10:10:38.908Z</time>
      </trkpt>
      <trkpt lat="42.242710" lon="1.371343">
        <ele>1175.239136</ele>
        <time>2022-05-22T10:10:40.904Z</time>
      </trkpt>
      <trkpt lat="42.242802" lon="1.371335">
        <ele>1174.878555</ele>
        <time>2022-05-22T10:10:42.898Z</time>
      </trkpt>
      <trkpt lat="42.242925" lon="1.371299">
        <ele>1174.386307</ele>
        <time>2022-05-22T10:10:45.907Z</time>
      </trkpt>
      <trkpt lat="42.243038" lon="1.371242">
        <ele>1173.914525</ele>
        <time>2022-05-22T10:10:48.907Z</time>
      </trkpt>
      <trkpt lat="42.243132" lon="1.371139">
        <ele>1173.441114</ele>
        <time>2022-05-22T10:10:51.908Z</time>
      </trkpt>
      <trkpt lat="42.243211" lon="1.371068">
        <ele>1173.069984</ele>
        <time>2022-05-22T10:10:53.909Z</time>
      </trkpt>
      <trkpt lat="42.243318" lon="1.371050">
        <ele>1172.648247</ele>
        <time>2022-05-22T10:10:55.911Z</time>
      </trkpt>
      <trkpt lat="42.243459" lon="1.371122">
        <ele>1172.058670</ele>
        <time>2022-05-22T10:10:57.910Z</time>
      </trkpt>
      <trkpt lat="42.243586" lon="1.371235">
        <ele>1171.507748</ele>
        <time>2022-05-22T10:10:59.913Z</time>
      </trkpt>
      <trkpt lat="42.243738" lon="1.371320">
        <ele>1171.640998</ele>
        <time>2022-05-22T10:11:01.917Z</time>
      </trkpt>
      <trkpt lat="42.243889" lon="1.371290">
        <ele>1171.764620</ele>
        <time>2022-05-22T10:11:03.907Z</time>
      </trkpt>
      <trkpt lat="42.244040" lon="1.371241">
        <ele>1171.890406</ele>
        <time>2022-05-22T10:11:05.911Z</time>
      </trkpt>
      <trkpt lat="42.244182" lon="1.371146">
        <ele>1172.018756</ele>
        <time>2022-05-22T10:11:07.916Z</time>
      </trkpt>
      <trkpt lat="42.244329" lon="1.371012">
        <ele>1172.162397</ele>
        <time>2022-05-22T10:11:09.923Z</time>
      </trkpt>
      <trkpt lat="42.244390" lon="1.370787">
        <ele>1172.306073</ele>
        <time>2022-05-22T10:11:11.912Z</time>
      </trkpt>
      <trkpt lat="42.244389" lon="1.370596">
        <ele>1172.420602</ele>
        <time>2022-05-22T10:11:13.922Z</time>
      </trkpt>
      <trkpt lat="42.244347" lon="1.370471">
        <ele>1172.502913</ele>
        <time>2022-05-22T10:11:15.918Z</time>
      </trkpt>
      <trkpt lat="42.244305" lon="1.370329">
        <ele>1172.594602</ele>
        <time>2022-05-22T10:11:18.929Z</time>
      </trkpt>
      <trkpt lat="42.244267" lon="1.370195">
        <ele>1172.680644</ele>
        <time>2022-05-22T10:11:22.915Z</time>
      </trkpt>
      <trkpt lat="42.244286" lon="1.370075">
        <ele>1172.754225</ele>
        <time>2022-05-22T10:11:26.918Z</time>
      </trkpt>
      <trkpt lat="42.244356" lon="1.369956">
        <ele>1172.845363</ele>
        <time>2022-05-22T10:11:30.913Z</time>
      </trkpt>
      <trkpt lat="42.244441" lon="1.369857">
        <ele>1172.936269</ele>
        <time>2022-05-22T10:11:34.907Z</time>
      </trkpt>
      <trkpt lat="42.244475" lon="1.369719">
        <ele>1172.906725</ele>
        <time>2022-05-22T10:11:38.918Z</time>
      </trkpt>
      <trkpt lat="42.244488" lon="1.369577">
        <ele>1172.841661</ele>
        <time>2022-05-22T10:11:42.911Z</time>
      </trkpt>
      <trkpt lat="42.244451" lon="1.369454">
        <ele>1172.781287</ele>
        <time>2022-05-22T10:11:46.901Z</time>
      </trkpt>
      <trkpt lat="42.244434" lon="1.369331">
        <ele>1172.724388</ele>
        <time>2022-05-22T10:11:49.915Z</time>
      </trkpt>
      <trkpt lat="42.244416" lon="1.369209">
        <ele>1172.667820</ele>
        <time>2022-05-22T10:11:52.907Z</time>
      </trkpt>
      <trkpt lat="42.244433" lon="1.369047">
        <ele>1172.593416</ele>
        <time>2022-05-22T10:11:56.905Z</time>
      </trkpt>
      <trkpt lat="42.244491" lon="1.368929">
        <ele>1172.529007</ele>
        <time>2022-05-22T10:11:58.911Z</time>
      </trkpt>
      <trkpt lat="42.244564" lon="1.368840">
        <ele>1172.468602</ele>
        <time>2022-05-22T10:12:00.915Z</time>
      </trkpt>
      <trkpt lat="42.244638" lon="1.368750">
        <ele>1172.407437</ele>
        <time>2022-05-22T10:12:03.920Z</time>
      </trkpt>
      <trkpt lat="42.244715" lon="1.368659">
        <ele>1172.344591</ele>
        <time>2022-05-22T10:12:06.916Z</time>
      </trkpt>
      <trkpt lat="42.244804" lon="1.368566">
        <ele>1172.275473</ele>
        <time>2022-05-22T10:12:09.910Z</time>
      </trkpt>
      <trkpt lat="42.244867" lon="1.368475">
        <ele>1172.218817</ele>
        <time>2022-05-22T10:12:11.916Z</time>
      </trkpt>
      <trkpt lat="42.244954" lon="1.368382">
        <ele>1172.150666</ele>
        <time>2022-05-22T10:12:14.916Z</time>
      </trkpt>
      <trkpt lat="42.245065" lon="1.368317">
        <ele>1172.076351</ele>
        <time>2022-05-22T10:12:17.915Z</time>
      </trkpt>
      <trkpt lat="42.245174" lon="1.368307">
        <ele>1172.009242</ele>
        <time>2022-05-22T10:12:20.915Z</time>
      </trkpt>
      <trkpt lat="42.245314" lon="1.368365">
        <ele>1171.919290</ele>
        <time>2022-05-22T10:12:23.917Z</time>
      </trkpt>
      <trkpt lat="42.245415" lon="1.368417">
        <ele>1171.852895</ele>
        <time>2022-05-22T10:12:25.916Z</time>
      </trkpt>
      <trkpt lat="42.245524" lon="1.368481">
        <ele>1171.905491</ele>
        <time>2022-05-22T10:12:27.918Z</time>
      </trkpt>
      <trkpt lat="42.245644" lon="1.368554">
        <ele>1171.965021</ele>
        <time>2022-05-22T10:12:29.906Z</time>
      </trkpt>
      <trkpt lat="42.245781" lon="1.368576">
        <ele>1172.027426</ele>
        <time>2022-05-22T10:12:31.912Z</time>
      </trkpt>
      <trkpt lat="42.245924" lon="1.368549">
        <ele>1172.092738</ele>
        <time>2022-05-22T10:12:33.917Z</time>
      </trkpt>
      <trkpt lat="42.246041" lon="1.368504">
        <ele>1172.147764</ele>
        <time>2022-05-22T10:12:35.909Z</time>
      </trkpt>
      <trkpt lat="42.246156" lon="1.368446">
        <ele>1172.203289</ele>
        <time>2022-05-22T10:12:37.912Z</time>
      </trkpt>
      <trkpt lat="42.246285" lon="1.368389">
        <ele>1172.264682</ele>
        <time>2022-05-22T10:12:39.917Z</time>
      </trkpt>
      <trkpt lat="42.246423" lon="1.368317">
        <ele>1172.331597</ele>
        <time>2022-05-22T10:12:41.914Z</time>
      </trkpt>
      <trkpt lat="42.246542" lon="1.368211">
        <ele>1172.396073</ele>
        <time>2022-05-22T10:12:43.915Z</time>
      </trkpt>
      <trkpt lat="42.246669" lon="1.368148">
        <ele>1172.457269</ele>
        <time>2022-05-22T10:12:45.913Z</time>
      </trkpt>
      <trkpt lat="42.246810" lon="1.368128">
        <ele>1172.521398</ele>
        <time>2022-05-22T10:12:47.914Z</time>
      </trkpt>
      <trkpt lat="42.246946" lon="1.368102">
        <ele>1172.583528</ele>
        <time>2022-05-22T10:12:49.922Z</time>
      </trkpt>
      <trkpt lat="42.247057" lon="1.368047">
        <ele>1172.637008</ele>
        <time>2022-05-22T10:12:51.917Z</time>
      </trkpt>
      <trkpt lat="42.247181" lon="1.367999">
        <ele>1172.549742</ele>
        <time>2022-05-22T10:12:53.915Z</time>
      </trkpt>
      <trkpt lat="42.247296" lon="1.367937">
        <ele>1172.329761</ele>
        <time>2022-05-22T10:12:55.956Z</time>
      </trkpt>
      <trkpt lat="42.247421" lon="1.367843">
        <ele>1172.075593</ele>
        <time>2022-05-22T10:12:57.910Z</time>
      </trkpt>
      <trkpt lat="42.247527" lon="1.367700">
        <ele>1171.809447</ele>
        <time>2022-05-22T10:12:59.899Z</time>
      </trkpt>
      <trkpt lat="42.247630" lon="1.367521">
        <ele>1171.511280</ele>
        <time>2022-05-22T10:13:01.905Z</time>
      </trkpt>
      <trkpt lat="42.247729" lon="1.367370">
        <ele>1171.246003</ele>
        <time>2022-05-22T10:13:03.905Z</time>
      </trkpt>
      <trkpt lat="42.247848" lon="1.367266">
        <ele>1170.994200</ele>
        <time>2022-05-22T10:13:05.902Z</time>
      </trkpt>
      <trkpt lat="42.247989" lon="1.367207">
        <ele>1170.731955</ele>
        <time>2022-05-22T10:13:07.900Z</time>
      </trkpt>
      <trkpt lat="42.248124" lon="1.367147">
        <ele>1170.479464</ele>
        <time>2022-05-22T10:13:09.904Z</time>
      </trkpt>
      <trkpt lat="42.248258" lon="1.367101">
        <ele>1170.233831</ele>
        <time>2022-05-22T10:13:11.904Z</time>
      </trkpt>
      <trkpt lat="42.248380" lon="1.367059">
        <ele>1170.010156</ele>
        <time>2022-05-22T10:13:13.906Z</time>
      </trkpt>
      <trkpt lat="42.248483" lon="1.367041">
        <ele>1169.825639</ele>
        <time>2022-05-22T10:13:15.907Z</time>
      </trkpt>
      <trkpt lat="42.248591" lon="1.366991">
        <ele>1169.622809</ele>
        <time>2022-05-22T10:13:17.904Z</time>
      </trkpt>
      <trkpt lat="42.248713" lon="1.366986">
        <ele>1169.386682</ele>
        <time>2022-05-22T10:13:19.902Z</time>
      </trkpt>
      <trkpt lat="42.248811" lon="1.366935">
        <ele>1169.144187</ele>
        <time>2022-05-22T10:13:21.909Z</time>
      </trkpt>
      <trkpt lat="42.248858" lon="1.366816">
        <ele>1168.913648</ele>
        <time>2022-05-22T10:13:23.905Z</time>
      </trkpt>
      <trkpt lat="42.248869" lon="1.366666">
        <ele>1168.656010</ele>
        <time>2022-05-22T10:13:25.908Z</time>
      </trkpt>
      <trkpt lat="42.248843" lon="1.366515">
        <ele>1168.391027</ele>
        <time>2022-05-22T10:13:27.903Z</time>
      </trkpt>
      <trkpt lat="42.248782" lon="1.366350">
        <ele>1168.075789</ele>
        <time>2022-05-22T10:13:29.898Z</time>
      </trkpt>
      <trkpt lat="42.248711" lon="1.366158">
        <ele>1167.708947</ele>
        <time>2022-05-22T10:13:31.904Z</time>
      </trkpt>
      <trkpt lat="42.248644" lon="1.365953">
        <ele>1167.325922</ele>
        <time>2022-05-22T10:13:33.906Z</time>
      </trkpt>
      <trkpt lat="42.248606" lon="1.365819">
        <ele>1167.080654</ele>
        <time>2022-05-22T10:13:34.900Z</time>
      </trkpt>
      <trkpt lat="42.248586" lon="1.365693">
        <ele>1166.860395</ele>
        <time>2022-05-22T10:13:35.905Z</time>
      </trkpt>
      <trkpt lat="42.248552" lon="1.365549">
        <ele>1166.602049</ele>
        <time>2022-05-22T10:13:36.900Z</time>
      </trkpt>
      <trkpt lat="42.248527" lon="1.365415">
        <ele>1166.365850</ele>
        <time>2022-05-22T10:13:37.904Z</time>
      </trkpt>
      <trkpt lat="42.248506" lon="1.365285">
        <ele>1166.138420</ele>
        <time>2022-05-22T10:13:38.903Z</time>
      </trkpt>
      <trkpt lat="42.248486" lon="1.365158">
        <ele>1165.916490</ele>
        <time>2022-05-22T10:13:39.901Z</time>
      </trkpt>
      <trkpt lat="42.248474" lon="1.365024">
        <ele>1165.685783</ele>
        <time>2022-05-22T10:13:40.902Z</time>
      </trkpt>
      <trkpt lat="42.248453" lon="1.364873">
        <ele>1165.423174</ele>
        <time>2022-05-22T10:13:41.904Z</time>
      </trkpt>
      <trkpt lat="42.248438" lon="1.364714">
        <ele>1165.078933</ele>
        <time>2022-05-22T10:13:42.901Z</time>
      </trkpt>
      <trkpt lat="42.248449" lon="1.364548">
        <ele>1164.674877</ele>
        <time>2022-05-22T10:13:43.907Z</time>
      </trkpt>
      <trkpt lat="42.248475" lon="1.364394">
        <ele>1164.291935</ele>
        <time>2022-05-22T10:13:44.905Z</time>
      </trkpt>
      <trkpt lat="42.248504" lon="1.364237">
        <ele>1163.899637</ele>
        <time>2022-05-22T10:13:45.900Z</time>
      </trkpt>
      <trkpt lat="42.248543" lon="1.364076">
        <ele>1163.488944</ele>
        <time>2022-05-22T10:13:46.902Z</time>
      </trkpt>
      <trkpt lat="42.248594" lon="1.363903">
        <ele>1163.037491</ele>
        <time>2022-05-22T10:13:47.901Z</time>
      </trkpt>
      <trkpt lat="42.248655" lon="1.363743">
        <ele>1162.601166</ele>
        <time>2022-05-22T10:13:48.903Z</time>
      </trkpt>
      <trkpt lat="42.248715" lon="1.363574">
        <ele>1162.146760</ele>
        <time>2022-05-22T10:13:49.900Z</time>
      </trkpt>
      <trkpt lat="42.248815" lon="1.363418">
        <ele>1161.646458</ele>
        <time>2022-05-22T10:13:50.902Z</time>
      </trkpt>
      <trkpt lat="42.248912" lon="1.363263">
        <ele>1161.154387</ele>
        <time>2022-05-22T10:13:51.900Z</time>
      </trkpt>
      <trkpt lat="42.249006" lon="1.363112">
        <ele>1160.676064</ele>
        <time>2022-05-22T10:13:52.909Z</time>
      </trkpt>
      <trkpt lat="42.249104" lon="1.362947">
        <ele>1160.163196</ele>
        <time>2022-05-22T10:13:53.901Z</time>
      </trkpt>
      <trkpt lat="42.249198" lon="1.362775">
        <ele>1159.644873</ele>
        <time>2022-05-22T10:13:54.906Z</time>
      </trkpt>
      <trkpt lat="42.249286" lon="1.362607">
        <ele>1158.885224</ele>
        <time>2022-05-22T10:13:55.905Z</time>
      </trkpt>
      <trkpt lat="42.249378" lon="1.362445">
        <ele>1157.930033</ele>
        <time>2022-05-22T10:13:56.904Z</time>
      </trkpt>
      <trkpt lat="42.249465" lon="1.362259">
        <ele>1156.900750</ele>
        <time>2022-05-22T10:13:57.898Z</time>
      </trkpt>
      <trkpt lat="42.249535" lon="1.362065">
        <ele>1155.891122</ele>
        <time>2022-05-22T10:13:58.897Z</time>
      </trkpt>
      <trkpt lat="42.249594" lon="1.361848">
        <ele>1154.809667</ele>
        <time>2022-05-22T10:13:59.899Z</time>
      </trkpt>
      <trkpt lat="42.249650" lon="1.361634">
        <ele>1153.747844</ele>
        <time>2022-05-22T10:14:00.899Z</time>
      </trkpt>
      <trkpt lat="42.249718" lon="1.361428">
        <ele>1152.692683</ele>
        <time>2022-05-22T10:14:01.903Z</time>
      </trkpt>
      <trkpt lat="42.249774" lon="1.361225">
        <ele>1151.679233</ele>
        <time>2022-05-22T10:14:02.898Z</time>
      </trkpt>
      <trkpt lat="42.249827" lon="1.361047">
        <ele>1150.781697</ele>
        <time>2022-05-22T10:14:03.901Z</time>
      </trkpt>
      <trkpt lat="42.249899" lon="1.360904">
        <ele>1149.972649</ele>
        <time>2022-05-22T10:14:04.900Z</time>
      </trkpt>
      <trkpt lat="42.249963" lon="1.360760">
        <ele>1149.186911</ele>
        <time>2022-05-22T10:14:05.899Z</time>
      </trkpt>
      <trkpt lat="42.250016" lon="1.360649">
        <ele>1148.568991</ele>
        <time>2022-05-22T10:14:06.899Z</time>
      </trkpt>
      <trkpt lat="42.250076" lon="1.360544">
        <ele>1147.886748</ele>
        <time>2022-05-22T10:14:07.902Z</time>
      </trkpt>
      <trkpt lat="42.250155" lon="1.360382">
        <ele>1146.473742</ele>
        <time>2022-05-22T10:14:09.900Z</time>
      </trkpt>
      <trkpt lat="42.250053" lon="1.360309">
        <ele>1145.337925</ele>
        <time>2022-05-22T10:14:12.902Z</time>
      </trkpt>
      <trkpt lat="42.249957" lon="1.360328">
        <ele>1144.383206</ele>
        <time>2022-05-22T10:14:13.905Z</time>
      </trkpt>
      <trkpt lat="42.249862" lon="1.360387">
        <ele>1143.354363</ele>
        <time>2022-05-22T10:14:14.898Z</time>
      </trkpt>
      <trkpt lat="42.249778" lon="1.360595">
        <ele>1141.628539</ele>
        <time>2022-05-22T10:14:16.905Z</time>
      </trkpt>
      <trkpt lat="42.249730" lon="1.360700">
        <ele>1140.729655</ele>
        <time>2022-05-22T10:14:17.905Z</time>
      </trkpt>
      <trkpt lat="42.249623" lon="1.360898">
        <ele>1138.944036</ele>
        <time>2022-05-22T10:14:19.907Z</time>
      </trkpt>
      <trkpt lat="42.249506" lon="1.361085">
        <ele>1137.160598</ele>
        <time>2022-05-22T10:14:21.903Z</time>
      </trkpt>
      <trkpt lat="42.249439" lon="1.361187">
        <ele>1136.167314</ele>
        <time>2022-05-22T10:14:22.909Z</time>
      </trkpt>
      <trkpt lat="42.249370" lon="1.361288">
        <ele>1135.166224</ele>
        <time>2022-05-22T10:14:23.901Z</time>
      </trkpt>
      <trkpt lat="42.249300" lon="1.361402">
        <ele>1134.087370</ele>
        <time>2022-05-22T10:14:24.898Z</time>
      </trkpt>
      <trkpt lat="42.249246" lon="1.361521">
        <ele>1133.070693</ele>
        <time>2022-05-22T10:14:25.907Z</time>
      </trkpt>
      <trkpt lat="42.249196" lon="1.361650">
        <ele>1132.010066</ele>
        <time>2022-05-22T10:14:26.913Z</time>
      </trkpt>
      <trkpt lat="42.249147" lon="1.361785">
        <ele>1130.914902</ele>
        <time>2022-05-22T10:14:27.905Z</time>
      </trkpt>
      <trkpt lat="42.249103" lon="1.361919">
        <ele>1129.962250</ele>
        <time>2022-05-22T10:14:28.904Z</time>
      </trkpt>
      <trkpt lat="42.249060" lon="1.362055">
        <ele>1129.126492</ele>
        <time>2022-05-22T10:14:29.898Z</time>
      </trkpt>
      <trkpt lat="42.249010" lon="1.362188">
        <ele>1128.283483</ele>
        <time>2022-05-22T10:14:30.902Z</time>
      </trkpt>
      <trkpt lat="42.248967" lon="1.362318">
        <ele>1127.478797</ele>
        <time>2022-05-22T10:14:31.906Z</time>
      </trkpt>
      <trkpt lat="42.248927" lon="1.362451">
        <ele>1126.667498</ele>
        <time>2022-05-22T10:14:32.904Z</time>
      </trkpt>
      <trkpt lat="42.248891" lon="1.362588">
        <ele>1125.845925</ele>
        <time>2022-05-22T10:14:33.904Z</time>
      </trkpt>
      <trkpt lat="42.248856" lon="1.362714">
        <ele>1125.085368</ele>
        <time>2022-05-22T10:14:34.908Z</time>
      </trkpt>
      <trkpt lat="42.248789" lon="1.362928">
        <ele>1123.772251</ele>
        <time>2022-05-22T10:14:36.912Z</time>
      </trkpt>
      <trkpt lat="42.248702" lon="1.363067">
        <ele>1122.743539</ele>
        <time>2022-05-22T10:14:38.909Z</time>
      </trkpt>
      <trkpt lat="42.248610" lon="1.363041">
        <ele>1122.025953</ele>
        <time>2022-05-22T10:14:41.908Z</time>
      </trkpt>
      <trkpt lat="42.248614" lon="1.362904">
        <ele>1121.251111</ele>
        <time>2022-05-22T10:14:43.905Z</time>
      </trkpt>
      <trkpt lat="42.248653" lon="1.362757">
        <ele>1120.368612</ele>
        <time>2022-05-22T10:14:44.905Z</time>
      </trkpt>
      <trkpt lat="42.248682" lon="1.362626">
        <ele>1119.595884</ele>
        <time>2022-05-22T10:14:45.909Z</time>
      </trkpt>
      <trkpt lat="42.248683" lon="1.362380">
        <ele>1118.205624</ele>
        <time>2022-05-22T10:14:47.909Z</time>
      </trkpt>
      <trkpt lat="42.248691" lon="1.362159">
        <ele>1116.955178</ele>
        <time>2022-05-22T10:14:49.907Z</time>
      </trkpt>
      <trkpt lat="42.248695" lon="1.362024">
        <ele>1116.297924</ele>
        <time>2022-05-22T10:14:50.901Z</time>
      </trkpt>
      <trkpt lat="42.248705" lon="1.361873">
        <ele>1115.649471</ele>
        <time>2022-05-22T10:14:51.906Z</time>
      </trkpt>
      <trkpt lat="42.248711" lon="1.361715">
        <ele>1114.972769</ele>
        <time>2022-05-22T10:14:52.902Z</time>
      </trkpt>
      <trkpt lat="42.248712" lon="1.361558">
        <ele>1114.301207</ele>
        <time>2022-05-22T10:14:53.899Z</time>
      </trkpt>
      <trkpt lat="42.248717" lon="1.361423">
        <ele>1113.723049</ele>
        <time>2022-05-22T10:14:54.901Z</time>
      </trkpt>
      <trkpt lat="42.248720" lon="1.361283">
        <ele>1113.123976</ele>
        <time>2022-05-22T10:14:55.902Z</time>
      </trkpt>
      <trkpt lat="42.248732" lon="1.361140">
        <ele>1112.508404</ele>
        <time>2022-05-22T10:14:56.901Z</time>
      </trkpt>
      <trkpt lat="42.248745" lon="1.360991">
        <ele>1111.866675</ele>
        <time>2022-05-22T10:14:57.902Z</time>
      </trkpt>
      <trkpt lat="42.248775" lon="1.360837">
        <ele>1111.185542</ele>
        <time>2022-05-22T10:14:58.903Z</time>
      </trkpt>
      <trkpt lat="42.248820" lon="1.360664">
        <ele>1110.401213</ele>
        <time>2022-05-22T10:14:59.904Z</time>
      </trkpt>
      <trkpt lat="42.248870" lon="1.360502">
        <ele>1109.650472</ele>
        <time>2022-05-22T10:15:00.903Z</time>
      </trkpt>
      <trkpt lat="42.248925" lon="1.360340">
        <ele>1108.888146</ele>
        <time>2022-05-22T10:15:01.904Z</time>
      </trkpt>
      <trkpt lat="42.248992" lon="1.360171">
        <ele>1108.068139</ele>
        <time>2022-05-22T10:15:02.901Z</time>
      </trkpt>
      <trkpt lat="42.249061" lon="1.359999">
        <ele>1107.231354</ele>
        <time>2022-05-22T10:15:03.900Z</time>
      </trkpt>
      <trkpt lat="42.249141" lon="1.359855">
        <ele>1106.461253</ele>
        <time>2022-05-22T10:15:04.901Z</time>
      </trkpt>
      <trkpt lat="42.249236" lon="1.359730">
        <ele>1105.233181</ele>
        <time>2022-05-22T10:15:05.901Z</time>
      </trkpt>
      <trkpt lat="42.249314" lon="1.359619">
        <ele>1104.019450</ele>
        <time>2022-05-22T10:15:06.903Z</time>
      </trkpt>
      <trkpt lat="42.249386" lon="1.359526">
        <ele>1102.952250</ele>
        <time>2022-05-22T10:15:07.903Z</time>
      </trkpt>
      <trkpt lat="42.249483" lon="1.359421">
        <ele>1101.620612</ele>
        <time>2022-05-22T10:15:09.908Z</time>
      </trkpt>
      <trkpt lat="42.249408" lon="1.359508">
        <ele>1100.561551</ele>
        <time>2022-05-22T10:15:14.915Z</time>
      </trkpt>
      <trkpt lat="42.249311" lon="1.359652">
        <ele>1099.017539</ele>
        <time>2022-05-22T10:15:16.908Z</time>
      </trkpt>
      <trkpt lat="42.249186" lon="1.359774">
        <ele>1097.365452</ele>
        <time>2022-05-22T10:15:18.911Z</time>
      </trkpt>
      <trkpt lat="42.249023" lon="1.359862">
        <ele>1095.484905</ele>
        <time>2022-05-22T10:15:20.913Z</time>
      </trkpt>
      <trkpt lat="42.248860" lon="1.359949">
        <ele>1093.607286</ele>
        <time>2022-05-22T10:15:22.907Z</time>
      </trkpt>
      <trkpt lat="42.248769" lon="1.359997">
        <ele>1092.560699</ele>
        <time>2022-05-22T10:15:23.910Z</time>
      </trkpt>
      <trkpt lat="42.248663" lon="1.360048">
        <ele>1091.355219</ele>
        <time>2022-05-22T10:15:24.903Z</time>
      </trkpt>
      <trkpt lat="42.248568" lon="1.360124">
        <ele>1090.172386</ele>
        <time>2022-05-22T10:15:25.908Z</time>
      </trkpt>
      <trkpt lat="42.248473" lon="1.360219">
        <ele>1088.906122</ele>
        <time>2022-05-22T10:15:26.903Z</time>
      </trkpt>
      <trkpt lat="42.248402" lon="1.360346">
        <ele>1087.644004</ele>
        <time>2022-05-22T10:15:27.908Z</time>
      </trkpt>
      <trkpt lat="42.248354" lon="1.360493">
        <ele>1086.564162</ele>
        <time>2022-05-22T10:15:28.911Z</time>
      </trkpt>
      <trkpt lat="42.248310" lon="1.360638">
        <ele>1085.726251</ele>
        <time>2022-05-22T10:15:29.904Z</time>
      </trkpt>
      <trkpt lat="42.248279" lon="1.360793">
        <ele>1084.867770</ele>
        <time>2022-05-22T10:15:30.907Z</time>
      </trkpt>
      <trkpt lat="42.248244" lon="1.360941">
        <ele>1084.037030</ele>
        <time>2022-05-22T10:15:31.905Z</time>
      </trkpt>
      <trkpt lat="42.248210" lon="1.361084">
        <ele>1083.233953</ele>
        <time>2022-05-22T10:15:32.906Z</time>
      </trkpt>
      <trkpt lat="42.248170" lon="1.361224">
        <ele>1082.431565</ele>
        <time>2022-05-22T10:15:33.910Z</time>
      </trkpt>
      <trkpt lat="42.248133" lon="1.361373">
        <ele>1081.591247</ele>
        <time>2022-05-22T10:15:34.906Z</time>
      </trkpt>
      <trkpt lat="42.248096" lon="1.361524">
        <ele>1080.740783</ele>
        <time>2022-05-22T10:15:35.903Z</time>
      </trkpt>
      <trkpt lat="42.248057" lon="1.361679">
        <ele>1079.865447</ele>
        <time>2022-05-22T10:15:36.906Z</time>
      </trkpt>
      <trkpt lat="42.248020" lon="1.361837">
        <ele>1078.979372</ele>
        <time>2022-05-22T10:15:37.906Z</time>
      </trkpt>
      <trkpt lat="42.247978" lon="1.361989">
        <ele>1078.111868</ele>
        <time>2022-05-22T10:15:38.906Z</time>
      </trkpt>
      <trkpt lat="42.247939" lon="1.362142">
        <ele>1077.246648</ele>
        <time>2022-05-22T10:15:39.902Z</time>
      </trkpt>
      <trkpt lat="42.247906" lon="1.362296">
        <ele>1076.389418</ele>
        <time>2022-05-22T10:15:40.902Z</time>
      </trkpt>
      <trkpt lat="42.247878" lon="1.362440">
        <ele>1075.593343</ele>
        <time>2022-05-22T10:15:41.906Z</time>
      </trkpt>
      <trkpt lat="42.247862" lon="1.362578">
        <ele>1074.846474</ele>
        <time>2022-05-22T10:15:42.906Z</time>
      </trkpt>
      <trkpt lat="42.247868" lon="1.362713">
        <ele>1074.123342</ele>
        <time>2022-05-22T10:15:43.907Z</time>
      </trkpt>
      <trkpt lat="42.247892" lon="1.362833">
        <ele>1073.602679</ele>
        <time>2022-05-22T10:15:44.910Z</time>
      </trkpt>
      <trkpt lat="42.247932" lon="1.363026">
        <ele>1072.830240</ele>
        <time>2022-05-22T10:15:46.908Z</time>
      </trkpt>
      <trkpt lat="42.247931" lon="1.363169">
        <ele>1072.279084</ele>
        <time>2022-05-22T10:15:48.911Z</time>
      </trkpt>
      <trkpt lat="42.247829" lon="1.363232">
        <ele>1071.695148</ele>
        <time>2022-05-22T10:15:50.905Z</time>
      </trkpt>
      <trkpt lat="42.247725" lon="1.363134">
        <ele>1071.034957</ele>
        <time>2022-05-22T10:15:52.905Z</time>
      </trkpt>
      <trkpt lat="42.247693" lon="1.362966">
        <ele>1070.366380</ele>
        <time>2022-05-22T10:15:54.903Z</time>
      </trkpt>
      <trkpt lat="42.247717" lon="1.362840">
        <ele>1069.864947</ele>
        <time>2022-05-22T10:15:55.899Z</time>
      </trkpt>
      <trkpt lat="42.247725" lon="1.362706">
        <ele>1069.346824</ele>
        <time>2022-05-22T10:15:56.905Z</time>
      </trkpt>
      <trkpt lat="42.247732" lon="1.362577">
        <ele>1068.848314</ele>
        <time>2022-05-22T10:15:57.901Z</time>
      </trkpt>
      <trkpt lat="42.247716" lon="1.362334">
        <ele>1067.908076</ele>
        <time>2022-05-22T10:15:59.900Z</time>
      </trkpt>
      <trkpt lat="42.247700" lon="1.362214">
        <ele>1067.438144</ele>
        <time>2022-05-22T10:16:00.904Z</time>
      </trkpt>
      <trkpt lat="42.247685" lon="1.362086">
        <ele>1066.938678</ele>
        <time>2022-05-22T10:16:01.904Z</time>
      </trkpt>
      <trkpt lat="42.247676" lon="1.361947">
        <ele>1066.400916</ele>
        <time>2022-05-22T10:16:02.902Z</time>
      </trkpt>
      <trkpt lat="42.247666" lon="1.361808">
        <ele>1065.862674</ele>
        <time>2022-05-22T10:16:03.902Z</time>
      </trkpt>
      <trkpt lat="42.247664" lon="1.361665">
        <ele>1065.311442</ele>
        <time>2022-05-22T10:16:04.902Z</time>
      </trkpt>
      <trkpt lat="42.247669" lon="1.361511">
        <ele>1064.717343</ele>
        <time>2022-05-22T10:16:05.900Z</time>
      </trkpt>
      <trkpt lat="42.247672" lon="1.361350">
        <ele>1064.008629</ele>
        <time>2022-05-22T10:16:06.907Z</time>
      </trkpt>
      <trkpt lat="42.247666" lon="1.361191">
        <ele>1063.289790</ele>
        <time>2022-05-22T10:16:07.902Z</time>
      </trkpt>
      <trkpt lat="42.247657" lon="1.361032">
        <ele>1062.569787</ele>
        <time>2022-05-22T10:16:08.905Z</time>
      </trkpt>
      <trkpt lat="42.247650" lon="1.360879">
        <ele>1061.877652</ele>
        <time>2022-05-22T10:16:09.902Z</time>
      </trkpt>
      <trkpt lat="42.247641" lon="1.360724">
        <ele>1061.175656</ele>
        <time>2022-05-22T10:16:10.903Z</time>
      </trkpt>
      <trkpt lat="42.247636" lon="1.360565">
        <ele>1060.457101</ele>
        <time>2022-05-22T10:16:11.905Z</time>
      </trkpt>
      <trkpt lat="42.247634" lon="1.360391">
        <ele>1059.671372</ele>
        <time>2022-05-22T10:16:12.907Z</time>
      </trkpt>
      <trkpt lat="42.247639" lon="1.360226">
        <ele>1058.925749</ele>
        <time>2022-05-22T10:16:13.904Z</time>
      </trkpt>
      <trkpt lat="42.247641" lon="1.360059">
        <ele>1058.171622</ele>
        <time>2022-05-22T10:16:14.911Z</time>
      </trkpt>
      <trkpt lat="42.247646" lon="1.359900">
        <ele>1057.453067</ele>
        <time>2022-05-22T10:16:15.905Z</time>
      </trkpt>
      <trkpt lat="42.247658" lon="1.359746">
        <ele>1056.753894</ele>
        <time>2022-05-22T10:16:16.898Z</time>
      </trkpt>
      <trkpt lat="42.247669" lon="1.359602">
        <ele>1056.100261</ele>
        <time>2022-05-22T10:16:17.912Z</time>
      </trkpt>
      <trkpt lat="42.247686" lon="1.359470">
        <ele>1055.495310</ele>
        <time>2022-05-22T10:16:18.912Z</time>
      </trkpt>
      <trkpt lat="42.247717" lon="1.359315">
        <ele>1054.770370</ele>
        <time>2022-05-22T10:16:19.903Z</time>
      </trkpt>
      <trkpt lat="42.247781" lon="1.359188">
        <ele>1054.076684</ele>
        <time>2022-05-22T10:16:20.901Z</time>
      </trkpt>
      <trkpt lat="42.247828" lon="1.359039">
        <ele>1053.230563</ele>
        <time>2022-05-22T10:16:21.904Z</time>
      </trkpt>
      <trkpt lat="42.247875" lon="1.358905">
        <ele>1052.299113</ele>
        <time>2022-05-22T10:16:22.904Z</time>
      </trkpt>
      <trkpt lat="42.247914" lon="1.358754">
        <ele>1051.294507</ele>
        <time>2022-05-22T10:16:23.904Z</time>
      </trkpt>
      <trkpt lat="42.247958" lon="1.358610">
        <ele>1050.315919</ele>
        <time>2022-05-22T10:16:24.905Z</time>
      </trkpt>
      <trkpt lat="42.247997" lon="1.358478">
        <ele>1049.423136</ele>
        <time>2022-05-22T10:16:25.901Z</time>
      </trkpt>
      <trkpt lat="42.248057" lon="1.358351">
        <ele>1048.476737</ele>
        <time>2022-05-22T10:16:26.897Z</time>
      </trkpt>
      <trkpt lat="42.248105" lon="1.358221">
        <ele>1047.564177</ele>
        <time>2022-05-22T10:16:27.897Z</time>
      </trkpt>
      <trkpt lat="42.248160" lon="1.358107">
        <ele>1046.709403</ele>
        <time>2022-05-22T10:16:28.901Z</time>
      </trkpt>
      <trkpt lat="42.248226" lon="1.357997">
        <ele>1045.819949</ele>
        <time>2022-05-22T10:16:29.901Z</time>
      </trkpt>
      <trkpt lat="42.248292" lon="1.357909">
        <ele>1045.033027</ele>
        <time>2022-05-22T10:16:30.899Z</time>
      </trkpt>
      <trkpt lat="42.248435" lon="1.357802">
        <ele>1043.645833</ele>
        <time>2022-05-22T10:16:32.899Z</time>
      </trkpt>
      <trkpt lat="42.248551" lon="1.357744">
        <ele>1042.596206</ele>
        <time>2022-05-22T10:16:34.901Z</time>
      </trkpt>
      <trkpt lat="42.248502" lon="1.357864">
        <ele>1041.735337</ele>
        <time>2022-05-22T10:16:38.906Z</time>
      </trkpt>
      <trkpt lat="42.248429" lon="1.358028">
        <ele>1040.533248</ele>
        <time>2022-05-22T10:16:40.910Z</time>
      </trkpt>
      <trkpt lat="42.248295" lon="1.358166">
        <ele>1039.103398</ele>
        <time>2022-05-22T10:16:42.904Z</time>
      </trkpt>
      <trkpt lat="42.248189" lon="1.358299">
        <ele>1038.014404</ele>
        <time>2022-05-22T10:16:44.907Z</time>
      </trkpt>
      <trkpt lat="42.248073" lon="1.358397">
        <ele>1037.175329</ele>
        <time>2022-05-22T10:16:46.906Z</time>
      </trkpt>
      <trkpt lat="42.248017" lon="1.358552">
        <ele>1036.392320</ele>
        <time>2022-05-22T10:16:48.908Z</time>
      </trkpt>
      <trkpt lat="42.247904" lon="1.358731">
        <ele>1035.324316</ele>
        <time>2022-05-22T10:16:50.908Z</time>
      </trkpt>
      <trkpt lat="42.247845" lon="1.358831">
        <ele>1034.743775</ele>
        <time>2022-05-22T10:16:51.905Z</time>
      </trkpt>
      <trkpt lat="42.247733" lon="1.359012">
        <ele>1033.672789</ele>
        <time>2022-05-22T10:16:53.907Z</time>
      </trkpt>
      <trkpt lat="42.247635" lon="1.359157">
        <ele>1032.781411</ele>
        <time>2022-05-22T10:16:55.902Z</time>
      </trkpt>
      <trkpt lat="42.247538" lon="1.359252">
        <ele>1032.046632</ele>
        <time>2022-05-22T10:16:57.897Z</time>
      </trkpt>
      <trkpt lat="42.247455" lon="1.359304">
        <ele>1031.485526</ele>
        <time>2022-05-22T10:16:59.900Z</time>
      </trkpt>
      <trkpt lat="42.247367" lon="1.359164">
        <ele>1030.651721</ele>
        <time>2022-05-22T10:17:02.898Z</time>
      </trkpt>
      <trkpt lat="42.247387" lon="1.358975">
        <ele>1029.784965</ele>
        <time>2022-05-22T10:17:03.900Z</time>
      </trkpt>
      <trkpt lat="42.247416" lon="1.358769">
        <ele>1028.832994</ele>
        <time>2022-05-22T10:17:04.899Z</time>
      </trkpt>
      <trkpt lat="42.247469" lon="1.358586">
        <ele>1027.940879</ele>
        <time>2022-05-22T10:17:05.897Z</time>
      </trkpt>
      <trkpt lat="42.247506" lon="1.358406">
        <ele>1027.090971</ele>
        <time>2022-05-22T10:17:06.898Z</time>
      </trkpt>
      <trkpt lat="42.247551" lon="1.358236">
        <ele>1026.265437</ele>
        <time>2022-05-22T10:17:07.898Z</time>
      </trkpt>
      <trkpt lat="42.247606" lon="1.358054">
        <ele>1025.366562</ele>
        <time>2022-05-22T10:17:08.906Z</time>
      </trkpt>
      <trkpt lat="42.247666" lon="1.357877">
        <ele>1024.476402</ele>
        <time>2022-05-22T10:17:09.901Z</time>
      </trkpt>
      <trkpt lat="42.247736" lon="1.357713">
        <ele>1023.610780</ele>
        <time>2022-05-22T10:17:10.896Z</time>
      </trkpt>
      <trkpt lat="42.247808" lon="1.357578">
        <ele>1022.849962</ele>
        <time>2022-05-22T10:17:11.901Z</time>
      </trkpt>
      <trkpt lat="42.247889" lon="1.357459">
        <ele>1022.110763</ele>
        <time>2022-05-22T10:17:12.898Z</time>
      </trkpt>
      <trkpt lat="42.247974" lon="1.357344">
        <ele>1021.367675</ele>
        <time>2022-05-22T10:17:13.910Z</time>
      </trkpt>
      <trkpt lat="42.248070" lon="1.357266">
        <ele>1020.675689</ele>
        <time>2022-05-22T10:17:14.903Z</time>
      </trkpt>
      <trkpt lat="42.248153" lon="1.357183">
        <ele>1020.037812</ele>
        <time>2022-05-22T10:17:15.904Z</time>
      </trkpt>
      <trkpt lat="42.248252" lon="1.357146">
        <ele>1019.403316</ele>
        <time>2022-05-22T10:17:16.896Z</time>
      </trkpt>
      <trkpt lat="42.248350" lon="1.357112">
        <ele>1018.778323</ele>
        <time>2022-05-22T10:17:17.903Z</time>
      </trkpt>
      <trkpt lat="42.248465" lon="1.357090">
        <ele>1018.060877</ele>
        <time>2022-05-22T10:17:18.900Z</time>
      </trkpt>
      <trkpt lat="42.248564" lon="1.357061">
        <ele>1017.435140</ele>
        <time>2022-05-22T10:17:19.900Z</time>
      </trkpt>
      <trkpt lat="42.248663" lon="1.357024">
        <ele>1016.800644</ele>
        <time>2022-05-22T10:17:20.906Z</time>
      </trkpt>
      <trkpt lat="42.248747" lon="1.356968">
        <ele>1016.217898</ele>
        <time>2022-05-22T10:17:21.902Z</time>
      </trkpt>
      <trkpt lat="42.248878" lon="1.356955">
        <ele>1015.140334</ele>
        <time>2022-05-22T10:17:23.902Z</time>
      </trkpt>
      <trkpt lat="42.248723" lon="1.357023">
        <ele>1013.803411</ele>
        <time>2022-05-22T10:17:26.899Z</time>
      </trkpt>
      <trkpt lat="42.248565" lon="1.357072">
        <ele>1012.473531</ele>
        <time>2022-05-22T10:17:28.906Z</time>
      </trkpt>
      <trkpt lat="42.248474" lon="1.357091">
        <ele>1011.718142</ele>
        <time>2022-05-22T10:17:29.901Z</time>
      </trkpt>
      <trkpt lat="42.248290" lon="1.357098">
        <ele>1010.208086</ele>
        <time>2022-05-22T10:17:31.903Z</time>
      </trkpt>
      <trkpt lat="42.248178" lon="1.357106">
        <ele>1009.288002</ele>
        <time>2022-05-22T10:17:32.905Z</time>
      </trkpt>
      <trkpt lat="42.248066" lon="1.357114">
        <ele>1008.367919</ele>
        <time>2022-05-22T10:17:33.906Z</time>
      </trkpt>
      <trkpt lat="42.247958" lon="1.357134">
        <ele>1007.473647</ele>
        <time>2022-05-22T10:17:34.903Z</time>
      </trkpt>
      <trkpt lat="42.247848" lon="1.357160">
        <ele>1006.557546</ele>
        <time>2022-05-22T10:17:35.901Z</time>
      </trkpt>
      <trkpt lat="42.247742" lon="1.357194">
        <ele>1005.663791</ele>
        <time>2022-05-22T10:17:36.903Z</time>
      </trkpt>
      <trkpt lat="42.247645" lon="1.357236">
        <ele>1004.828169</ele>
        <time>2022-05-22T10:17:37.897Z</time>
      </trkpt>
      <trkpt lat="42.247547" lon="1.357295">
        <ele>1003.947996</ele>
        <time>2022-05-22T10:17:38.904Z</time>
      </trkpt>
      <trkpt lat="42.247460" lon="1.357373">
        <ele>1003.091406</ele>
        <time>2022-05-22T10:17:39.900Z</time>
      </trkpt>
      <trkpt lat="42.247384" lon="1.357482">
        <ele>1002.182089</ele>
        <time>2022-05-22T10:17:40.905Z</time>
      </trkpt>
      <trkpt lat="42.247310" lon="1.357595">
        <ele>1001.254517</ele>
        <time>2022-05-22T10:17:41.902Z</time>
      </trkpt>
      <trkpt lat="42.247259" lon="1.357704">
        <ele>1000.429720</ele>
        <time>2022-05-22T10:17:42.906Z</time>
      </trkpt>
      <trkpt lat="42.247227" lon="1.357846">
        <ele>999.480283</ele>
        <time>2022-05-22T10:17:43.908Z</time>
      </trkpt>
      <trkpt lat="42.247204" lon="1.357990">
        <ele>998.538012</ele>
        <time>2022-05-22T10:17:44.906Z</time>
      </trkpt>
      <trkpt lat="42.247185" lon="1.358129">
        <ele>997.633888</ele>
        <time>2022-05-22T10:17:45.907Z</time>
      </trkpt>
      <trkpt lat="42.247174" lon="1.358265">
        <ele>996.758806</ele>
        <time>2022-05-22T10:17:46.907Z</time>
      </trkpt>
      <trkpt lat="42.247126" lon="1.358442">
        <ele>995.553070</ele>
        <time>2022-05-22T10:17:48.911Z</time>
      </trkpt>
      <trkpt lat="42.247015" lon="1.358503">
        <ele>994.517616</ele>
        <time>2022-05-22T10:17:50.909Z</time>
      </trkpt>
      <trkpt lat="42.246909" lon="1.358433">
        <ele>993.498109</ele>
        <time>2022-05-22T10:17:52.911Z</time>
      </trkpt>
      <trkpt lat="42.246879" lon="1.358255">
        <ele>992.330416</ele>
        <time>2022-05-22T10:17:54.903Z</time>
      </trkpt>
      <trkpt lat="42.246914" lon="1.358125">
        <ele>991.445597</ele>
        <time>2022-05-22T10:17:55.900Z</time>
      </trkpt>
      <trkpt lat="42.246935" lon="1.358002">
        <ele>990.638187</ele>
        <time>2022-05-22T10:17:56.902Z</time>
      </trkpt>
      <trkpt lat="42.246954" lon="1.357874">
        <ele>989.803153</ele>
        <time>2022-05-22T10:17:57.902Z</time>
      </trkpt>
      <trkpt lat="42.246987" lon="1.357630">
        <ele>988.216602</ele>
        <time>2022-05-22T10:17:59.896Z</time>
      </trkpt>
      <trkpt lat="42.247007" lon="1.357500">
        <ele>987.367305</ele>
        <time>2022-05-22T10:18:00.904Z</time>
      </trkpt>
      <trkpt lat="42.247031" lon="1.357376">
        <ele>986.547492</ele>
        <time>2022-05-22T10:18:01.903Z</time>
      </trkpt>
      <trkpt lat="42.247076" lon="1.357139">
        <ele>985.371279</ele>
        <time>2022-05-22T10:18:03.904Z</time>
      </trkpt>
      <trkpt lat="42.247105" lon="1.357004">
        <ele>984.838142</ele>
        <time>2022-05-22T10:18:04.898Z</time>
      </trkpt>
      <trkpt lat="42.247129" lon="1.356876">
        <ele>984.337346</ele>
        <time>2022-05-22T10:18:05.906Z</time>
      </trkpt>
      <trkpt lat="42.247157" lon="1.356751">
        <ele>983.842029</ele>
        <time>2022-05-22T10:18:06.899Z</time>
      </trkpt>
      <trkpt lat="42.247211" lon="1.356619">
        <ele>983.270031</ele>
        <time>2022-05-22T10:18:07.901Z</time>
      </trkpt>
      <trkpt lat="42.247263" lon="1.356493">
        <ele>982.722902</ele>
        <time>2022-05-22T10:18:08.903Z</time>
      </trkpt>
      <trkpt lat="42.247324" lon="1.356372">
        <ele>982.167672</ele>
        <time>2022-05-22T10:18:09.895Z</time>
      </trkpt>
      <trkpt lat="42.247384" lon="1.356244">
        <ele>981.593062</ele>
        <time>2022-05-22T10:18:10.897Z</time>
      </trkpt>
      <trkpt lat="42.247458" lon="1.356126">
        <ele>981.006516</ele>
        <time>2022-05-22T10:18:11.904Z</time>
      </trkpt>
      <trkpt lat="42.247542" lon="1.356030">
        <ele>980.442788</ele>
        <time>2022-05-22T10:18:12.904Z</time>
      </trkpt>
      <trkpt lat="42.247643" lon="1.355953">
        <ele>979.848594</ele>
        <time>2022-05-22T10:18:13.898Z</time>
      </trkpt>
      <trkpt lat="42.247772" lon="1.355896">
        <ele>979.153203</ele>
        <time>2022-05-22T10:18:14.903Z</time>
      </trkpt>
      <trkpt lat="42.247910" lon="1.355860">
        <ele>978.433095</ele>
        <time>2022-05-22T10:18:15.903Z</time>
      </trkpt>
      <trkpt lat="42.248041" lon="1.355819">
        <ele>977.744136</ele>
        <time>2022-05-22T10:18:16.906Z</time>
      </trkpt>
      <trkpt lat="42.248172" lon="1.355781">
        <ele>977.057656</ele>
        <time>2022-05-22T10:18:17.901Z</time>
      </trkpt>
      <trkpt lat="42.248315" lon="1.355764">
        <ele>975.993252</ele>
        <time>2022-05-22T10:18:18.901Z</time>
      </trkpt>
      <trkpt lat="42.248443" lon="1.355745">
        <ele>974.791111</ele>
        <time>2022-05-22T10:18:19.900Z</time>
      </trkpt>
      <trkpt lat="42.248580" lon="1.355713">
        <ele>973.493166</ele>
        <time>2022-05-22T10:18:21.906Z</time>
      </trkpt>
      <trkpt lat="42.248462" lon="1.355716">
        <ele>972.391378</ele>
        <time>2022-05-22T10:18:27.905Z</time>
      </trkpt>
      <trkpt lat="42.248315" lon="1.355777">
        <ele>970.955770</ele>
        <time>2022-05-22T10:18:29.907Z</time>
      </trkpt>
      <trkpt lat="42.248220" lon="1.355803">
        <ele>970.050877</ele>
        <time>2022-05-22T10:18:30.903Z</time>
      </trkpt>
      <trkpt lat="42.248113" lon="1.355827">
        <ele>969.038299</ele>
        <time>2022-05-22T10:18:31.900Z</time>
      </trkpt>
      <trkpt lat="42.248009" lon="1.355845">
        <ele>968.059467</ele>
        <time>2022-05-22T10:18:32.899Z</time>
      </trkpt>
      <trkpt lat="42.247901" lon="1.355862">
        <ele>967.044408</ele>
        <time>2022-05-22T10:18:33.904Z</time>
      </trkpt>
      <trkpt lat="42.247788" lon="1.355879">
        <ele>965.982971</ele>
        <time>2022-05-22T10:18:34.903Z</time>
      </trkpt>
      <trkpt lat="42.247684" lon="1.355906">
        <ele>964.994309</ele>
        <time>2022-05-22T10:18:35.900Z</time>
      </trkpt>
      <trkpt lat="42.247574" lon="1.355940">
        <ele>963.940863</ele>
        <time>2022-05-22T10:18:36.899Z</time>
      </trkpt>
      <trkpt lat="42.247461" lon="1.355977">
        <ele>962.855402</ele>
        <time>2022-05-22T10:18:37.907Z</time>
      </trkpt>
      <trkpt lat="42.247344" lon="1.356048">
        <ele>961.658001</ele>
        <time>2022-05-22T10:18:38.903Z</time>
      </trkpt>
      <trkpt lat="42.247248" lon="1.356159">
        <ele>960.478337</ele>
        <time>2022-05-22T10:18:39.901Z</time>
      </trkpt>
      <trkpt lat="42.247147" lon="1.356276">
        <ele>959.498526</ele>
        <time>2022-05-22T10:18:40.909Z</time>
      </trkpt>
      <trkpt lat="42.247068" lon="1.356419">
        <ele>958.730981</ele>
        <time>2022-05-22T10:18:41.899Z</time>
      </trkpt>
      <trkpt lat="42.247001" lon="1.356564">
        <ele>957.995710</ele>
        <time>2022-05-22T10:18:42.905Z</time>
      </trkpt>
      <trkpt lat="42.246950" lon="1.356725">
        <ele>957.242407</ele>
        <time>2022-05-22T10:18:43.905Z</time>
      </trkpt>
      <trkpt lat="42.246908" lon="1.356895">
        <ele>956.471482</ele>
        <time>2022-05-22T10:18:44.910Z</time>
      </trkpt>
      <trkpt lat="42.246876" lon="1.357061">
        <ele>955.733600</ele>
        <time>2022-05-22T10:18:45.906Z</time>
      </trkpt>
      <trkpt lat="42.246847" lon="1.357231">
        <ele>954.983161</ele>
        <time>2022-05-22T10:18:46.904Z</time>
      </trkpt>
      <trkpt lat="42.246812" lon="1.357399">
        <ele>954.232416</ele>
        <time>2022-05-22T10:18:47.904Z</time>
      </trkpt>
      <trkpt lat="42.246773" lon="1.357557">
        <ele>953.515973</ele>
        <time>2022-05-22T10:18:48.905Z</time>
      </trkpt>
      <trkpt lat="42.246728" lon="1.357711">
        <ele>952.803780</ele>
        <time>2022-05-22T10:18:49.901Z</time>
      </trkpt>
      <trkpt lat="42.246684" lon="1.357881">
        <ele>952.029095</ele>
        <time>2022-05-22T10:18:50.903Z</time>
      </trkpt>
      <trkpt lat="42.246634" lon="1.358049">
        <ele>951.250202</ele>
        <time>2022-05-22T10:18:51.904Z</time>
      </trkpt>
      <trkpt lat="42.246586" lon="1.358228">
        <ele>950.431248</ele>
        <time>2022-05-22T10:18:52.906Z</time>
      </trkpt>
      <trkpt lat="42.246536" lon="1.358400">
        <ele>949.636363</ele>
        <time>2022-05-22T10:18:53.909Z</time>
      </trkpt>
      <trkpt lat="42.246498" lon="1.358567">
        <ele>948.851751</ele>
        <time>2022-05-22T10:18:54.901Z</time>
      </trkpt>
      <trkpt lat="42.246460" lon="1.358747">
        <ele>948.001781</ele>
        <time>2022-05-22T10:18:55.904Z</time>
      </trkpt>
      <trkpt lat="42.246417" lon="1.358925">
        <ele>947.151531</ele>
        <time>2022-05-22T10:18:56.907Z</time>
      </trkpt>
      <trkpt lat="42.246370" lon="1.359096">
        <ele>946.323221</ele>
        <time>2022-05-22T10:18:57.901Z</time>
      </trkpt>
      <trkpt lat="42.246314" lon="1.359259">
        <ele>945.507205</ele>
        <time>2022-05-22T10:18:58.905Z</time>
      </trkpt>
      <trkpt lat="42.246252" lon="1.359425">
        <ele>944.662884</ele>
        <time>2022-05-22T10:18:59.904Z</time>
      </trkpt>
      <trkpt lat="42.246196" lon="1.359591">
        <ele>943.834490</ele>
        <time>2022-05-22T10:19:00.902Z</time>
      </trkpt>
      <trkpt lat="42.246147" lon="1.359736">
        <ele>943.110678</ele>
        <time>2022-05-22T10:19:01.903Z</time>
      </trkpt>
      <trkpt lat="42.246111" lon="1.359869">
        <ele>942.467613</ele>
        <time>2022-05-22T10:19:02.908Z</time>
      </trkpt>
      <trkpt lat="42.246097" lon="1.360089">
        <ele>941.464901</ele>
        <time>2022-05-22T10:19:04.901Z</time>
      </trkpt>
      <trkpt lat="42.246087" lon="1.360290">
        <ele>940.550095</ele>
        <time>2022-05-22T10:19:06.903Z</time>
      </trkpt>
      <trkpt lat="42.246046" lon="1.360427">
        <ele>939.879058</ele>
        <time>2022-05-22T10:19:08.895Z</time>
      </trkpt>
      <trkpt lat="42.245937" lon="1.360444">
        <ele>939.205973</ele>
        <time>2022-05-22T10:19:11.900Z</time>
      </trkpt>
      <trkpt lat="42.245823" lon="1.360274">
        <ele>938.234111</ele>
        <time>2022-05-22T10:19:13.900Z</time>
      </trkpt>
      <trkpt lat="42.245804" lon="1.360134">
        <ele>937.748111</ele>
        <time>2022-05-22T10:19:14.904Z</time>
      </trkpt>
      <trkpt lat="42.245793" lon="1.360007">
        <ele>937.311508</ele>
        <time>2022-05-22T10:19:15.904Z</time>
      </trkpt>
      <trkpt lat="42.245810" lon="1.359844">
        <ele>936.749444</ele>
        <time>2022-05-22T10:19:16.902Z</time>
      </trkpt>
      <trkpt lat="42.245841" lon="1.359670">
        <ele>936.138353</ele>
        <time>2022-05-22T10:19:17.904Z</time>
      </trkpt>
      <trkpt lat="42.245872" lon="1.359499">
        <ele>935.537217</ele>
        <time>2022-05-22T10:19:18.900Z</time>
      </trkpt>
      <trkpt lat="42.245908" lon="1.359343">
        <ele>934.979270</ele>
        <time>2022-05-22T10:19:19.898Z</time>
      </trkpt>
      <trkpt lat="42.245926" lon="1.359178">
        <ele>934.409790</ele>
        <time>2022-05-22T10:19:20.900Z</time>
      </trkpt>
      <trkpt lat="42.245960" lon="1.359005">
        <ele>933.798615</ele>
        <time>2022-05-22T10:19:21.906Z</time>
      </trkpt>
      <trkpt lat="42.245990" lon="1.358846">
        <ele>933.238350</ele>
        <time>2022-05-22T10:19:22.903Z</time>
      </trkpt>
      <trkpt lat="42.246005" lon="1.358697">
        <ele>932.724905</ele>
        <time>2022-05-22T10:19:23.905Z</time>
      </trkpt>
      <trkpt lat="42.246030" lon="1.358556">
        <ele>932.229842</ele>
        <time>2022-05-22T10:19:24.904Z</time>
      </trkpt>
      <trkpt lat="42.246058" lon="1.358403">
        <ele>931.691695</ele>
        <time>2022-05-22T10:19:25.905Z</time>
      </trkpt>
      <trkpt lat="42.246097" lon="1.358257">
        <ele>931.161713</ele>
        <time>2022-05-22T10:19:26.900Z</time>
      </trkpt>
      <trkpt lat="42.246134" lon="1.358098">
        <ele>930.592614</ele>
        <time>2022-05-22T10:19:27.902Z</time>
      </trkpt>
      <trkpt lat="42.246170" lon="1.357933">
        <ele>929.994285</ele>
        <time>2022-05-22T10:19:28.899Z</time>
      </trkpt>
      <trkpt lat="42.246207" lon="1.357770">
        <ele>929.367770</ele>
        <time>2022-05-22T10:19:29.900Z</time>
      </trkpt>
      <trkpt lat="42.246226" lon="1.357606">
        <ele>928.757773</ele>
        <time>2022-05-22T10:19:30.901Z</time>
      </trkpt>
      <trkpt lat="42.246235" lon="1.357431">
        <ele>928.113139</ele>
        <time>2022-05-22T10:19:31.900Z</time>
      </trkpt>
      <trkpt lat="42.246243" lon="1.357268">
        <ele>927.512838</ele>
        <time>2022-05-22T10:19:32.899Z</time>
      </trkpt>
      <trkpt lat="42.246242" lon="1.357108">
        <ele>926.924855</ele>
        <time>2022-05-22T10:19:33.895Z</time>
      </trkpt>
      <trkpt lat="42.246228" lon="1.356934">
        <ele>926.281680</ele>
        <time>2022-05-22T10:19:34.898Z</time>
      </trkpt>
      <trkpt lat="42.246218" lon="1.356766">
        <ele>925.662327</ele>
        <time>2022-05-22T10:19:35.899Z</time>
      </trkpt>
      <trkpt lat="42.246204" lon="1.356590">
        <ele>925.011846</ele>
        <time>2022-05-22T10:19:36.900Z</time>
      </trkpt>
      <trkpt lat="42.246182" lon="1.356410">
        <ele>924.341433</ele>
        <time>2022-05-22T10:19:37.900Z</time>
      </trkpt>
      <trkpt lat="42.246158" lon="1.356237">
        <ele>923.694631</ele>
        <time>2022-05-22T10:19:38.898Z</time>
      </trkpt>
      <trkpt lat="42.246123" lon="1.356060">
        <ele>923.021391</ele>
        <time>2022-05-22T10:19:39.905Z</time>
      </trkpt>
      <trkpt lat="42.246079" lon="1.355894">
        <ele>922.373454</ele>
        <time>2022-05-22T10:19:40.897Z</time>
      </trkpt>
      <trkpt lat="42.246039" lon="1.355730">
        <ele>921.738922</ele>
        <time>2022-05-22T10:19:41.897Z</time>
      </trkpt>
      <trkpt lat="42.246002" lon="1.355576">
        <ele>921.147091</ele>
        <time>2022-05-22T10:19:42.898Z</time>
      </trkpt>
      <trkpt lat="42.245974" lon="1.355428">
        <ele>920.608796</ele>
        <time>2022-05-22T10:19:43.902Z</time>
      </trkpt>
      <trkpt lat="42.245949" lon="1.355269">
        <ele>920.036001</ele>
        <time>2022-05-22T10:19:44.899Z</time>
      </trkpt>
      <trkpt lat="42.245943" lon="1.355130">
        <ele>919.545351</ele>
        <time>2022-05-22T10:19:45.904Z</time>
      </trkpt>
      <trkpt lat="42.245946" lon="1.354988">
        <ele>919.044758</ele>
        <time>2022-05-22T10:19:46.895Z</time>
      </trkpt>
      <trkpt lat="42.245968" lon="1.354851">
        <ele>918.550759</ele>
        <time>2022-05-22T10:19:47.903Z</time>
      </trkpt>
      <trkpt lat="42.245999" lon="1.354727">
        <ele>918.089554</ele>
        <time>2022-05-22T10:19:48.901Z</time>
      </trkpt>
      <trkpt lat="42.246053" lon="1.354618">
        <ele>917.627373</ele>
        <time>2022-05-22T10:19:49.898Z</time>
      </trkpt>
      <trkpt lat="42.246132" lon="1.354514">
        <ele>917.102271</ele>
        <time>2022-05-22T10:19:50.894Z</time>
      </trkpt>
      <trkpt lat="42.246239" lon="1.354424">
        <ele>916.502255</ele>
        <time>2022-05-22T10:19:51.901Z</time>
      </trkpt>
      <trkpt lat="42.246348" lon="1.354344">
        <ele>915.911748</ele>
        <time>2022-05-22T10:19:52.898Z</time>
      </trkpt>
      <trkpt lat="42.246463" lon="1.354281">
        <ele>915.321014</ele>
        <time>2022-05-22T10:19:53.902Z</time>
      </trkpt>
      <trkpt lat="42.246569" lon="1.354226">
        <ele>914.780483</ele>
        <time>2022-05-22T10:19:54.901Z</time>
      </trkpt>
      <trkpt lat="42.246690" lon="1.354168">
        <ele>914.169303</ele>
        <time>2022-05-22T10:19:55.902Z</time>
      </trkpt>
      <trkpt lat="42.246795" lon="1.354100">
        <ele>913.615004</ele>
        <time>2022-05-22T10:19:56.903Z</time>
      </trkpt>
      <trkpt lat="42.246904" lon="1.354028">
        <ele>913.037425</ele>
        <time>2022-05-22T10:19:57.898Z</time>
      </trkpt>
      <trkpt lat="42.247008" lon="1.353960">
        <ele>912.455649</ele>
        <time>2022-05-22T10:19:58.899Z</time>
      </trkpt>
      <trkpt lat="42.247113" lon="1.353890">
        <ele>911.794768</ele>
        <time>2022-05-22T10:19:59.901Z</time>
      </trkpt>
      <trkpt lat="42.247222" lon="1.353833">
        <ele>911.135062</ele>
        <time>2022-05-22T10:20:00.899Z</time>
      </trkpt>
      <trkpt lat="42.247328" lon="1.353791">
        <ele>910.511571</ele>
        <time>2022-05-22T10:20:01.903Z</time>
      </trkpt>
      <trkpt lat="42.247438" lon="1.353764">
        <ele>909.880542</ele>
        <time>2022-05-22T10:20:02.903Z</time>
      </trkpt>
      <trkpt lat="42.247542" lon="1.353750">
        <ele>909.290637</ele>
        <time>2022-05-22T10:20:03.906Z</time>
      </trkpt>
      <trkpt lat="42.247645" lon="1.353744">
        <ele>908.708743</ele>
        <time>2022-05-22T10:20:04.904Z</time>
      </trkpt>
      <trkpt lat="42.247763" lon="1.353755">
        <ele>908.041141</ele>
        <time>2022-05-22T10:20:05.904Z</time>
      </trkpt>
      <trkpt lat="42.247884" lon="1.353787">
        <ele>907.345228</ele>
        <time>2022-05-22T10:20:06.903Z</time>
      </trkpt>
      <trkpt lat="42.248005" lon="1.353818">
        <ele>906.650105</ele>
        <time>2022-05-22T10:20:07.900Z</time>
      </trkpt>
      <trkpt lat="42.248121" lon="1.353841">
        <ele>905.988361</ele>
        <time>2022-05-22T10:20:08.900Z</time>
      </trkpt>
      <trkpt lat="42.248238" lon="1.353853">
        <ele>905.326088</ele>
        <time>2022-05-22T10:20:09.899Z</time>
      </trkpt>
      <trkpt lat="42.248368" lon="1.353889">
        <ele>904.577082</ele>
        <time>2022-05-22T10:20:10.906Z</time>
      </trkpt>
      <trkpt lat="42.248495" lon="1.353908">
        <ele>903.855885</ele>
        <time>2022-05-22T10:20:11.899Z</time>
      </trkpt>
      <trkpt lat="42.248607" lon="1.353917">
        <ele>903.222615</ele>
        <time>2022-05-22T10:20:12.899Z</time>
      </trkpt>
      <trkpt lat="42.248711" lon="1.353934">
        <ele>902.631336</ele>
        <time>2022-05-22T10:20:13.901Z</time>
      </trkpt>
      <trkpt lat="42.248815" lon="1.353929">
        <ele>901.675620</ele>
        <time>2022-05-22T10:20:14.900Z</time>
      </trkpt>
      <trkpt lat="42.248917" lon="1.353922">
        <ele>900.640158</ele>
        <time>2022-05-22T10:20:15.901Z</time>
      </trkpt>
      <trkpt lat="42.249014" lon="1.353918">
        <ele>899.656264</ele>
        <time>2022-05-22T10:20:16.904Z</time>
      </trkpt>
      <trkpt lat="42.249163" lon="1.353933">
        <ele>898.141436</ele>
        <time>2022-05-22T10:20:18.898Z</time>
      </trkpt>
      <trkpt lat="42.249278" lon="1.353879">
        <ele>896.907084</ele>
        <time>2022-05-22T10:20:20.898Z</time>
      </trkpt>
      <trkpt lat="42.249191" lon="1.353798">
        <ele>895.835849</ele>
        <time>2022-05-22T10:20:23.902Z</time>
      </trkpt>
      <trkpt lat="42.249071" lon="1.353796">
        <ele>894.619135</ele>
        <time>2022-05-22T10:20:24.903Z</time>
      </trkpt>
      <trkpt lat="42.248974" lon="1.353780">
        <ele>893.628395</ele>
        <time>2022-05-22T10:20:25.901Z</time>
      </trkpt>
      <trkpt lat="42.248861" lon="1.353758">
        <ele>892.470907</ele>
        <time>2022-05-22T10:20:26.903Z</time>
      </trkpt>
      <trkpt lat="42.248757" lon="1.353737">
        <ele>891.404788</ele>
        <time>2022-05-22T10:20:27.901Z</time>
      </trkpt>
      <trkpt lat="42.248590" lon="1.353735">
        <ele>889.711589</ele>
        <time>2022-05-22T10:20:29.901Z</time>
      </trkpt>
      <trkpt lat="42.248496" lon="1.353730">
        <ele>888.757830</ele>
        <time>2022-05-22T10:20:30.902Z</time>
      </trkpt>
      <trkpt lat="42.248315" lon="1.353704">
        <ele>886.912414</ele>
        <time>2022-05-22T10:20:32.907Z</time>
      </trkpt>
      <trkpt lat="42.248217" lon="1.353692">
        <ele>885.914766</ele>
        <time>2022-05-22T10:20:33.899Z</time>
      </trkpt>
      <trkpt lat="42.248113" lon="1.353682">
        <ele>884.857693</ele>
        <time>2022-05-22T10:20:34.905Z</time>
      </trkpt>
      <trkpt lat="42.248008" lon="1.353668">
        <ele>883.958035</ele>
        <time>2022-05-22T10:20:35.905Z</time>
      </trkpt>
      <trkpt lat="42.247913" lon="1.353639">
        <ele>883.318255</ele>
        <time>2022-05-22T10:20:36.910Z</time>
      </trkpt>
      <trkpt lat="42.247823" lon="1.353582">
        <ele>882.665306</ele>
        <time>2022-05-22T10:20:37.904Z</time>
      </trkpt>
      <trkpt lat="42.247732" lon="1.353521">
        <ele>881.997989</ele>
        <time>2022-05-22T10:20:38.904Z</time>
      </trkpt>
      <trkpt lat="42.247628" lon="1.353455">
        <ele>881.243195</ele>
        <time>2022-05-22T10:20:39.896Z</time>
      </trkpt>
      <trkpt lat="42.247519" lon="1.353405">
        <ele>880.487031</ele>
        <time>2022-05-22T10:20:40.898Z</time>
      </trkpt>
      <trkpt lat="42.247402" lon="1.353365">
        <ele>879.694238</ele>
        <time>2022-05-22T10:20:41.899Z</time>
      </trkpt>
      <trkpt lat="42.247287" lon="1.353334">
        <ele>878.923920</ele>
        <time>2022-05-22T10:20:42.902Z</time>
      </trkpt>
      <trkpt lat="42.247169" lon="1.353324">
        <ele>878.147265</ele>
        <time>2022-05-22T10:20:43.902Z</time>
      </trkpt>
      <trkpt lat="42.247053" lon="1.353322">
        <ele>877.385209</ele>
        <time>2022-05-22T10:20:44.906Z</time>
      </trkpt>
      <trkpt lat="42.246933" lon="1.353339">
        <ele>876.592618</ele>
        <time>2022-05-22T10:20:45.909Z</time>
      </trkpt>
      <trkpt lat="42.246824" lon="1.353396">
        <ele>875.824831</ele>
        <time>2022-05-22T10:20:46.903Z</time>
      </trkpt>
      <trkpt lat="42.246717" lon="1.353492">
        <ele>874.981060</ele>
        <time>2022-05-22T10:20:47.905Z</time>
      </trkpt>
      <trkpt lat="42.246607" lon="1.353586">
        <ele>874.126043</ele>
        <time>2022-05-22T10:20:48.905Z</time>
      </trkpt>
      <trkpt lat="42.246509" lon="1.353696">
        <ele>873.289065</ele>
        <time>2022-05-22T10:20:49.906Z</time>
      </trkpt>
      <trkpt lat="42.246401" lon="1.353788">
        <ele>872.448024</ele>
        <time>2022-05-22T10:20:50.907Z</time>
      </trkpt>
      <trkpt lat="42.246291" lon="1.353865">
        <ele>871.291131</ele>
        <time>2022-05-22T10:20:51.910Z</time>
      </trkpt>
      <trkpt lat="42.246194" lon="1.353949">
        <ele>870.215210</ele>
        <time>2022-05-22T10:20:52.905Z</time>
      </trkpt>
      <trkpt lat="42.246101" lon="1.354036">
        <ele>869.158872</ele>
        <time>2022-05-22T10:20:53.913Z</time>
      </trkpt>
      <trkpt lat="42.246024" lon="1.354131">
        <ele>868.185094</ele>
        <time>2022-05-22T10:20:54.906Z</time>
      </trkpt>
      <trkpt lat="42.245965" lon="1.354231">
        <ele>867.301140</ele>
        <time>2022-05-22T10:20:55.910Z</time>
      </trkpt>
      <trkpt lat="42.245852" lon="1.354399">
        <ele>865.732037</ele>
        <time>2022-05-22T10:20:57.910Z</time>
      </trkpt>
      <trkpt lat="42.245732" lon="1.354514">
        <ele>864.358139</ele>
        <time>2022-05-22T10:20:59.901Z</time>
      </trkpt>
      <trkpt lat="42.245642" lon="1.354543">
        <ele>863.494142</ele>
        <time>2022-05-22T10:21:01.905Z</time>
      </trkpt>
      <trkpt lat="42.245596" lon="1.354427">
        <ele>862.584473</ele>
        <time>2022-05-22T10:21:04.899Z</time>
      </trkpt>
      <trkpt lat="42.245619" lon="1.354285">
        <ele>861.579658</ele>
        <time>2022-05-22T10:21:07.904Z</time>
      </trkpt>
      <trkpt lat="42.245671" lon="1.354067">
        <ele>859.996406</ele>
        <time>2022-05-22T10:21:09.898Z</time>
      </trkpt>
      <trkpt lat="42.245735" lon="1.353897">
        <ele>858.678025</ele>
        <time>2022-05-22T10:21:10.899Z</time>
      </trkpt>
      <trkpt lat="42.245807" lon="1.353743">
        <ele>857.418945</ele>
        <time>2022-05-22T10:21:11.901Z</time>
      </trkpt>
      <trkpt lat="42.245893" lon="1.353593">
        <ele>856.107435</ele>
        <time>2022-05-22T10:21:12.898Z</time>
      </trkpt>
      <trkpt lat="42.245984" lon="1.353449">
        <ele>855.382183</ele>
        <time>2022-05-22T10:21:13.896Z</time>
      </trkpt>
      <trkpt lat="42.246072" lon="1.353316">
        <ele>854.984319</ele>
        <time>2022-05-22T10:21:14.903Z</time>
      </trkpt>
      <trkpt lat="42.246166" lon="1.353195">
        <ele>854.593108</ele>
        <time>2022-05-22T10:21:15.902Z</time>
      </trkpt>
      <trkpt lat="42.246272" lon="1.353086">
        <ele>854.191732</ele>
        <time>2022-05-22T10:21:16.904Z</time>
      </trkpt>
      <trkpt lat="42.246390" lon="1.352995">
        <ele>853.782348</ele>
        <time>2022-05-22T10:21:17.901Z</time>
      </trkpt>
      <trkpt lat="42.246515" lon="1.352910">
        <ele>853.360703</ele>
        <time>2022-05-22T10:21:18.899Z</time>
      </trkpt>
      <trkpt lat="42.246649" lon="1.352814">
        <ele>852.903704</ele>
        <time>2022-05-22T10:21:19.899Z</time>
      </trkpt>
      <trkpt lat="42.246776" lon="1.352730">
        <ele>852.477654</ele>
        <time>2022-05-22T10:21:20.904Z</time>
      </trkpt>
      <trkpt lat="42.246908" lon="1.352660">
        <ele>852.050397</ele>
        <time>2022-05-22T10:21:21.900Z</time>
      </trkpt>
      <trkpt lat="42.247031" lon="1.352588">
        <ele>851.646506</ele>
        <time>2022-05-22T10:21:22.901Z</time>
      </trkpt>
      <trkpt lat="42.247151" lon="1.352518">
        <ele>851.252682</ele>
        <time>2022-05-22T10:21:23.899Z</time>
      </trkpt>
      <trkpt lat="42.247269" lon="1.352474">
        <ele>850.883857</ele>
        <time>2022-05-22T10:21:24.909Z</time>
      </trkpt>
      <trkpt lat="42.247385" lon="1.352433">
        <ele>850.522589</ele>
        <time>2022-05-22T10:21:25.902Z</time>
      </trkpt>
      <trkpt lat="42.247506" lon="1.352407">
        <ele>850.004958</ele>
        <time>2022-05-22T10:21:26.901Z</time>
      </trkpt>
      <trkpt lat="42.247627" lon="1.352397">
        <ele>849.019740</ele>
        <time>2022-05-22T10:21:27.900Z</time>
      </trkpt>
      <trkpt lat="42.247760" lon="1.352394">
        <ele>847.938686</ele>
        <time>2022-05-22T10:21:28.900Z</time>
      </trkpt>
      <trkpt lat="42.247917" lon="1.352425">
        <ele>846.649174</ele>
        <time>2022-05-22T10:21:29.901Z</time>
      </trkpt>
      <trkpt lat="42.248063" lon="1.352423">
        <ele>845.462556</ele>
        <time>2022-05-22T10:21:30.902Z</time>
      </trkpt>
      <trkpt lat="42.248202" lon="1.352421">
        <ele>844.332826</ele>
        <time>2022-05-22T10:21:31.900Z</time>
      </trkpt>
      <trkpt lat="42.248338" lon="1.352409">
        <ele>843.225185</ele>
        <time>2022-05-22T10:21:32.904Z</time>
      </trkpt>
      <trkpt lat="42.248470" lon="1.352410">
        <ele>842.152392</ele>
        <time>2022-05-22T10:21:33.903Z</time>
      </trkpt>
      <trkpt lat="42.248592" lon="1.352408">
        <ele>841.160813</ele>
        <time>2022-05-22T10:21:34.899Z</time>
      </trkpt>
      <trkpt lat="42.248745" lon="1.352388">
        <ele>839.911559</ele>
        <time>2022-05-22T10:21:36.899Z</time>
      </trkpt>
      <trkpt lat="42.248846" lon="1.352418">
        <ele>839.071115</ele>
        <time>2022-05-22T10:21:38.899Z</time>
      </trkpt>
      <trkpt lat="42.248710" lon="1.352430">
        <ele>837.963475</ele>
        <time>2022-05-22T10:21:41.902Z</time>
      </trkpt>
      <trkpt lat="42.248567" lon="1.352533">
        <ele>836.646429</ele>
        <time>2022-05-22T10:21:43.901Z</time>
      </trkpt>
      <trkpt lat="42.248414" lon="1.352643">
        <ele>835.256152</ele>
        <time>2022-05-22T10:21:45.901Z</time>
      </trkpt>
      <trkpt lat="42.248280" lon="1.352727">
        <ele>834.112596</ele>
        <time>2022-05-22T10:21:47.903Z</time>
      </trkpt>
      <trkpt lat="42.248128" lon="1.352760">
        <ele>832.920839</ele>
        <time>2022-05-22T10:21:49.908Z</time>
      </trkpt>
      <trkpt lat="42.248036" lon="1.352733">
        <ele>832.192038</ele>
        <time>2022-05-22T10:21:50.908Z</time>
      </trkpt>
      <trkpt lat="42.247955" lon="1.352674">
        <ele>831.479664</ele>
        <time>2022-05-22T10:21:51.909Z</time>
      </trkpt>
      <trkpt lat="42.247866" lon="1.352630">
        <ele>830.746012</ele>
        <time>2022-05-22T10:21:52.906Z</time>
      </trkpt>
      <trkpt lat="42.247694" lon="1.352555">
        <ele>829.346886</ele>
        <time>2022-05-22T10:21:54.907Z</time>
      </trkpt>
      <trkpt lat="42.247595" lon="1.352527">
        <ele>828.563894</ele>
        <time>2022-05-22T10:21:55.908Z</time>
      </trkpt>
      <trkpt lat="42.247478" lon="1.352502">
        <ele>827.646916</ele>
        <time>2022-05-22T10:21:56.907Z</time>
      </trkpt>
      <trkpt lat="42.247363" lon="1.352489">
        <ele>826.753570</ele>
        <time>2022-05-22T10:21:57.904Z</time>
      </trkpt>
      <trkpt lat="42.247240" lon="1.352479">
        <ele>825.799682</ele>
        <time>2022-05-22T10:21:58.907Z</time>
      </trkpt>
      <trkpt lat="42.247120" lon="1.352477">
        <ele>824.870670</ele>
        <time>2022-05-22T10:21:59.908Z</time>
      </trkpt>
      <trkpt lat="42.246994" lon="1.352481">
        <ele>823.895013</ele>
        <time>2022-05-22T10:22:00.905Z</time>
      </trkpt>
      <trkpt lat="42.246864" lon="1.352506">
        <ele>822.878514</ele>
        <time>2022-05-22T10:22:01.906Z</time>
      </trkpt>
      <trkpt lat="42.246736" lon="1.352537">
        <ele>821.871846</ele>
        <time>2022-05-22T10:22:02.910Z</time>
      </trkpt>
      <trkpt lat="42.246615" lon="1.352582">
        <ele>821.115921</ele>
        <time>2022-05-22T10:22:03.909Z</time>
      </trkpt>
      <trkpt lat="42.246495" lon="1.352632">
        <ele>820.406040</ele>
        <time>2022-05-22T10:22:04.907Z</time>
      </trkpt>
      <trkpt lat="42.246373" lon="1.352693">
        <ele>819.670664</ele>
        <time>2022-05-22T10:22:05.905Z</time>
      </trkpt>
      <trkpt lat="42.246259" lon="1.352767">
        <ele>818.955697</ele>
        <time>2022-05-22T10:22:06.903Z</time>
      </trkpt>
      <trkpt lat="42.246150" lon="1.352860">
        <ele>818.226923</ele>
        <time>2022-05-22T10:22:07.905Z</time>
      </trkpt>
      <trkpt lat="42.246040" lon="1.352947">
        <ele>817.506369</ele>
        <time>2022-05-22T10:22:08.903Z</time>
      </trkpt>
      <trkpt lat="42.245928" lon="1.353031">
        <ele>816.782212</ele>
        <time>2022-05-22T10:22:09.909Z</time>
      </trkpt>
      <trkpt lat="42.245821" lon="1.353123">
        <ele>816.065226</ele>
        <time>2022-05-22T10:22:10.899Z</time>
      </trkpt>
      <trkpt lat="42.245709" lon="1.353214">
        <ele>815.326406</ele>
        <time>2022-05-22T10:22:11.902Z</time>
      </trkpt>
      <trkpt lat="42.245594" lon="1.353300">
        <ele>814.583358</ele>
        <time>2022-05-22T10:22:12.902Z</time>
      </trkpt>
      <trkpt lat="42.245483" lon="1.353369">
        <ele>813.892641</ele>
        <time>2022-05-22T10:22:13.903Z</time>
      </trkpt>
      <trkpt lat="42.245377" lon="1.353427">
        <ele>813.246146</ele>
        <time>2022-05-22T10:22:14.903Z</time>
      </trkpt>
      <trkpt lat="42.245268" lon="1.353494">
        <ele>812.569191</ele>
        <time>2022-05-22T10:22:15.903Z</time>
      </trkpt>
      <trkpt lat="42.245164" lon="1.353567">
        <ele>811.906662</ele>
        <time>2022-05-22T10:22:16.901Z</time>
      </trkpt>
      <trkpt lat="42.245052" lon="1.353639">
        <ele>811.180426</ele>
        <time>2022-05-22T10:22:17.902Z</time>
      </trkpt>
      <trkpt lat="42.244938" lon="1.353705">
        <ele>810.425465</ele>
        <time>2022-05-22T10:22:18.902Z</time>
      </trkpt>
      <trkpt lat="42.244822" lon="1.353778">
        <ele>809.646512</ele>
        <time>2022-05-22T10:22:19.903Z</time>
      </trkpt>
      <trkpt lat="42.244721" lon="1.353848">
        <ele>808.955531</ele>
        <time>2022-05-22T10:22:20.905Z</time>
      </trkpt>
      <trkpt lat="42.244639" lon="1.353916">
        <ele>808.369850</ele>
        <time>2022-05-22T10:22:21.902Z</time>
      </trkpt>
      <trkpt lat="42.244519" lon="1.354091">
        <ele>807.294966</ele>
        <time>2022-05-22T10:22:23.909Z</time>
      </trkpt>
      <trkpt lat="42.244425" lon="1.354255">
        <ele>806.360350</ele>
        <time>2022-05-22T10:22:25.906Z</time>
      </trkpt>
      <trkpt lat="42.244341" lon="1.354382">
        <ele>805.592930</ele>
        <time>2022-05-22T10:22:27.903Z</time>
      </trkpt>
      <trkpt lat="42.244253" lon="1.354291">
        <ele>804.918340</ele>
        <time>2022-05-22T10:22:31.903Z</time>
      </trkpt>
      <trkpt lat="42.244274" lon="1.354003">
        <ele>803.614300</ele>
        <time>2022-05-22T10:22:33.905Z</time>
      </trkpt>
      <trkpt lat="42.244330" lon="1.353888">
        <ele>802.994037</ele>
        <time>2022-05-22T10:22:34.901Z</time>
      </trkpt>
      <trkpt lat="42.244393" lon="1.353797">
        <ele>802.432608</ele>
        <time>2022-05-22T10:22:35.906Z</time>
      </trkpt>
      <trkpt lat="42.244463" lon="1.353695">
        <ele>801.805867</ele>
        <time>2022-05-22T10:22:36.904Z</time>
      </trkpt>
      <trkpt lat="42.244552" lon="1.353606">
        <ele>801.131835</ele>
        <time>2022-05-22T10:22:37.898Z</time>
      </trkpt>
      <trkpt lat="42.244632" lon="1.353524">
        <ele>800.547838</ele>
        <time>2022-05-22T10:22:38.899Z</time>
      </trkpt>
      <trkpt lat="42.244701" lon="1.353433">
        <ele>800.214419</ele>
        <time>2022-05-22T10:22:39.895Z</time>
      </trkpt>
      <trkpt lat="42.244759" lon="1.353335">
        <ele>799.893272</ele>
        <time>2022-05-22T10:22:40.898Z</time>
      </trkpt>
      <trkpt lat="42.244834" lon="1.353252">
        <ele>799.558044</ele>
        <time>2022-05-22T10:22:41.900Z</time>
      </trkpt>
      <trkpt lat="42.244908" lon="1.353163">
        <ele>799.215469</ele>
        <time>2022-05-22T10:22:42.900Z</time>
      </trkpt>
      <trkpt lat="42.244990" lon="1.353074">
        <ele>798.851770</ele>
        <time>2022-05-22T10:22:43.901Z</time>
      </trkpt>
      <trkpt lat="42.245076" lon="1.352978">
        <ele>798.466032</ele>
        <time>2022-05-22T10:22:44.896Z</time>
      </trkpt>
      <trkpt lat="42.245161" lon="1.352885">
        <ele>798.087832</ele>
        <time>2022-05-22T10:22:45.905Z</time>
      </trkpt>
      <trkpt lat="42.245249" lon="1.352793">
        <ele>797.703088</ele>
        <time>2022-05-22T10:22:46.898Z</time>
      </trkpt>
      <trkpt lat="42.245345" lon="1.352704">
        <ele>797.300512</ele>
        <time>2022-05-22T10:22:47.905Z</time>
      </trkpt>
      <trkpt lat="42.245441" lon="1.352601">
        <ele>796.876629</ele>
        <time>2022-05-22T10:22:48.899Z</time>
      </trkpt>
      <trkpt lat="42.245540" lon="1.352490">
        <ele>796.431785</ele>
        <time>2022-05-22T10:22:49.901Z</time>
      </trkpt>
      <trkpt lat="42.245633" lon="1.352378">
        <ele>796.001001</ele>
        <time>2022-05-22T10:22:50.904Z</time>
      </trkpt>
      <trkpt lat="42.245729" lon="1.352268">
        <ele>795.565749</ele>
        <time>2022-05-22T10:22:51.900Z</time>
      </trkpt>
      <trkpt lat="42.245819" lon="1.352156">
        <ele>795.142652</ele>
        <time>2022-05-22T10:22:52.897Z</time>
      </trkpt>
      <trkpt lat="42.245904" lon="1.352038">
        <ele>794.721236</ele>
        <time>2022-05-22T10:22:53.908Z</time>
      </trkpt>
      <trkpt lat="42.245992" lon="1.351937">
        <ele>794.305338</ele>
        <time>2022-05-22T10:22:54.904Z</time>
      </trkpt>
      <trkpt lat="42.246080" lon="1.351837">
        <ele>793.753156</ele>
        <time>2022-05-22T10:22:55.900Z</time>
      </trkpt>
      <trkpt lat="42.246174" lon="1.351733">
        <ele>793.169724</ele>
        <time>2022-05-22T10:22:56.902Z</time>
      </trkpt>
      <trkpt lat="42.246278" lon="1.351631">
        <ele>792.552602</ele>
        <time>2022-05-22T10:22:57.906Z</time>
      </trkpt>
      <trkpt lat="42.246391" lon="1.351534">
        <ele>791.909720</ele>
        <time>2022-05-22T10:22:58.901Z</time>
      </trkpt>
      <trkpt lat="42.246504" lon="1.351442">
        <ele>791.276192</ele>
        <time>2022-05-22T10:22:59.900Z</time>
      </trkpt>
      <trkpt lat="42.246614" lon="1.351369">
        <ele>790.687702</ele>
        <time>2022-05-22T10:23:00.908Z</time>
      </trkpt>
      <trkpt lat="42.246726" lon="1.351304">
        <ele>790.102373</ele>
        <time>2022-05-22T10:23:01.901Z</time>
      </trkpt>
      <trkpt lat="42.246828" lon="1.351252">
        <ele>789.578875</ele>
        <time>2022-05-22T10:23:02.904Z</time>
      </trkpt>
      <trkpt lat="42.246927" lon="1.351206">
        <ele>789.076165</ele>
        <time>2022-05-22T10:23:03.904Z</time>
      </trkpt>
      <trkpt lat="42.247044" lon="1.351189">
        <ele>788.511117</ele>
        <time>2022-05-22T10:23:04.904Z</time>
      </trkpt>
      <trkpt lat="42.247141" lon="1.351169">
        <ele>788.039951</ele>
        <time>2022-05-22T10:23:05.906Z</time>
      </trkpt>
      <trkpt lat="42.247273" lon="1.351160">
        <ele>787.405310</ele>
        <time>2022-05-22T10:23:07.901Z</time>
      </trkpt>
      <trkpt lat="42.247150" lon="1.351178">
        <ele>786.811236</ele>
        <time>2022-05-22T10:23:11.898Z</time>
      </trkpt>
      <trkpt lat="42.247049" lon="1.351217">
        <ele>786.306833</ele>
        <time>2022-05-22T10:23:12.899Z</time>
      </trkpt>
      <trkpt lat="42.246961" lon="1.351243">
        <ele>785.874288</ele>
        <time>2022-05-22T10:23:13.903Z</time>
      </trkpt>
      <trkpt lat="42.246788" lon="1.351301">
        <ele>784.572701</ele>
        <time>2022-05-22T10:23:15.900Z</time>
      </trkpt>
      <trkpt lat="42.246630" lon="1.351377">
        <ele>783.261635</ele>
        <time>2022-05-22T10:23:17.905Z</time>
      </trkpt>
      <trkpt lat="42.246541" lon="1.351418">
        <ele>782.526571</ele>
        <time>2022-05-22T10:23:18.907Z</time>
      </trkpt>
      <trkpt lat="42.246440" lon="1.351462">
        <ele>781.697003</ele>
        <time>2022-05-22T10:23:19.904Z</time>
      </trkpt>
      <trkpt lat="42.246328" lon="1.351495">
        <ele>780.800903</ele>
        <time>2022-05-22T10:23:20.909Z</time>
      </trkpt>
      <trkpt lat="42.246212" lon="1.351529">
        <ele>779.873019</ele>
        <time>2022-05-22T10:23:21.910Z</time>
      </trkpt>
      <trkpt lat="42.246095" lon="1.351586">
        <ele>778.900757</ele>
        <time>2022-05-22T10:23:22.909Z</time>
      </trkpt>
      <trkpt lat="42.245994" lon="1.351655">
        <ele>778.016007</ele>
        <time>2022-05-22T10:23:23.905Z</time>
      </trkpt>
      <trkpt lat="42.245899" lon="1.351747">
        <ele>777.102266</ele>
        <time>2022-05-22T10:23:24.901Z</time>
      </trkpt>
      <trkpt lat="42.245806" lon="1.351828">
        <ele>776.237269</ele>
        <time>2022-05-22T10:23:25.905Z</time>
      </trkpt>
      <trkpt lat="42.245701" lon="1.351906">
        <ele>775.300551</ele>
        <time>2022-05-22T10:23:26.905Z</time>
      </trkpt>
      <trkpt lat="42.245596" lon="1.351992">
        <ele>774.340669</ele>
        <time>2022-05-22T10:23:27.909Z</time>
      </trkpt>
      <trkpt lat="42.245488" lon="1.352082">
        <ele>773.348702</ele>
        <time>2022-05-22T10:23:28.904Z</time>
      </trkpt>
      <trkpt lat="42.245378" lon="1.352152">
        <ele>772.398185</ele>
        <time>2022-05-22T10:23:29.910Z</time>
      </trkpt>
      <trkpt lat="42.245259" lon="1.352214">
        <ele>771.386044</ele>
        <time>2022-05-22T10:23:30.907Z</time>
      </trkpt>
      <trkpt lat="42.245131" lon="1.352260">
        <ele>770.291986</ele>
        <time>2022-05-22T10:23:31.902Z</time>
      </trkpt>
      <trkpt lat="42.245012" lon="1.352306">
        <ele>769.269591</ele>
        <time>2022-05-22T10:23:32.906Z</time>
      </trkpt>
      <trkpt lat="42.244890" lon="1.352328">
        <ele>768.252929</ele>
        <time>2022-05-22T10:23:33.905Z</time>
      </trkpt>
      <trkpt lat="42.244760" lon="1.352358">
        <ele>767.163570</ele>
        <time>2022-05-22T10:23:34.906Z</time>
      </trkpt>
      <trkpt lat="42.244621" lon="1.352383">
        <ele>766.005295</ele>
        <time>2022-05-22T10:23:35.905Z</time>
      </trkpt>
      <trkpt lat="42.244484" lon="1.352439">
        <ele>764.822998</ele>
        <time>2022-05-22T10:23:36.907Z</time>
      </trkpt>
      <trkpt lat="42.244370" lon="1.352537">
        <ele>763.706850</ele>
        <time>2022-05-22T10:23:37.902Z</time>
      </trkpt>
      <trkpt lat="42.244266" lon="1.352646">
        <ele>762.619565</ele>
        <time>2022-05-22T10:23:38.900Z</time>
      </trkpt>
      <trkpt lat="42.244157" lon="1.352767">
        <ele>761.454211</ele>
        <time>2022-05-22T10:23:39.903Z</time>
      </trkpt>
      <trkpt lat="42.244046" lon="1.352873">
        <ele>760.331376</ele>
        <time>2022-05-22T10:23:40.905Z</time>
      </trkpt>
      <trkpt lat="42.243941" lon="1.352970">
        <ele>759.280651</ele>
        <time>2022-05-22T10:23:41.905Z</time>
      </trkpt>
      <trkpt lat="42.243863" lon="1.353071">
        <ele>758.388170</ele>
        <time>2022-05-22T10:23:42.911Z</time>
      </trkpt>
      <trkpt lat="42.243800" lon="1.353172">
        <ele>757.580567</ele>
        <time>2022-05-22T10:23:43.904Z</time>
      </trkpt>
      <trkpt lat="42.243725" lon="1.353345">
        <ele>756.254215</ele>
        <time>2022-05-22T10:23:45.901Z</time>
      </trkpt>
      <trkpt lat="42.243625" lon="1.353432">
        <ele>755.055515</ele>
        <time>2022-05-22T10:23:47.910Z</time>
      </trkpt>
      <trkpt lat="42.243526" lon="1.353468">
        <ele>754.022303</ele>
        <time>2022-05-22T10:23:49.901Z</time>
      </trkpt>
      <trkpt lat="42.243462" lon="1.353286">
        <ele>752.519096</ele>
        <time>2022-05-22T10:23:52.908Z</time>
      </trkpt>
      <trkpt lat="42.243457" lon="1.353118">
        <ele>751.264723</ele>
        <time>2022-05-22T10:23:54.906Z</time>
      </trkpt>
      <trkpt lat="42.243515" lon="1.352989">
        <ele>750.138727</ele>
        <time>2022-05-22T10:23:56.903Z</time>
      </trkpt>
      <trkpt lat="42.243638" lon="1.352807">
        <ele>748.300211</ele>
        <time>2022-05-22T10:23:58.898Z</time>
      </trkpt>
      <trkpt lat="42.243694" lon="1.352697">
        <ele>747.304239</ele>
        <time>2022-05-22T10:23:59.897Z</time>
      </trkpt>
      <trkpt lat="42.243768" lon="1.352576">
        <ele>746.133325</ele>
        <time>2022-05-22T10:24:00.903Z</time>
      </trkpt>
      <trkpt lat="42.243847" lon="1.352441">
        <ele>744.849500</ele>
        <time>2022-05-22T10:24:01.901Z</time>
      </trkpt>
      <trkpt lat="42.243926" lon="1.352308">
        <ele>743.577347</ele>
        <time>2022-05-22T10:24:02.898Z</time>
      </trkpt>
      <trkpt lat="42.244010" lon="1.352173">
        <ele>742.261681</ele>
        <time>2022-05-22T10:24:03.900Z</time>
      </trkpt>
      <trkpt lat="42.244103" lon="1.352039">
        <ele>740.891358</ele>
        <time>2022-05-22T10:24:04.900Z</time>
      </trkpt>
      <trkpt lat="42.244211" lon="1.351918">
        <ele>739.477327</ele>
        <time>2022-05-22T10:24:05.903Z</time>
      </trkpt>
      <trkpt lat="42.244313" lon="1.351809">
        <ele>738.461449</ele>
        <time>2022-05-22T10:24:06.903Z</time>
      </trkpt>
      <trkpt lat="42.244410" lon="1.351719">
        <ele>737.950180</ele>
        <time>2022-05-22T10:24:07.907Z</time>
      </trkpt>
      <trkpt lat="42.244532" lon="1.351641">
        <ele>737.363760</ele>
        <time>2022-05-22T10:24:08.900Z</time>
      </trkpt>
      <trkpt lat="42.244656" lon="1.351567">
        <ele>736.774789</ele>
        <time>2022-05-22T10:24:09.902Z</time>
      </trkpt>
      <trkpt lat="42.244782" lon="1.351498">
        <ele>736.184089</ele>
        <time>2022-05-22T10:24:10.902Z</time>
      </trkpt>
      <trkpt lat="42.244902" lon="1.351427">
        <ele>735.614911</ele>
        <time>2022-05-22T10:24:11.904Z</time>
      </trkpt>
      <trkpt lat="42.245010" lon="1.351348">
        <ele>735.081310</ele>
        <time>2022-05-22T10:24:12.899Z</time>
      </trkpt>
      <trkpt lat="42.245126" lon="1.351263">
        <ele>734.507956</ele>
        <time>2022-05-22T10:24:13.902Z</time>
      </trkpt>
      <trkpt lat="42.245220" lon="1.351149">
        <ele>733.959117</ele>
        <time>2022-05-22T10:24:14.910Z</time>
      </trkpt>
      <trkpt lat="42.245299" lon="1.351016">
        <ele>733.410679</ele>
        <time>2022-05-22T10:24:15.901Z</time>
      </trkpt>
      <trkpt lat="42.245371" lon="1.350868">
        <ele>732.841088</ele>
        <time>2022-05-22T10:24:16.904Z</time>
      </trkpt>
      <trkpt lat="42.245434" lon="1.350715">
        <ele>732.278002</ele>
        <time>2022-05-22T10:24:17.904Z</time>
      </trkpt>
      <trkpt lat="42.245505" lon="1.350569">
        <ele>731.716173</ele>
        <time>2022-05-22T10:24:18.902Z</time>
      </trkpt>
      <trkpt lat="42.245582" lon="1.350425">
        <ele>731.144848</ele>
        <time>2022-05-22T10:24:19.900Z</time>
      </trkpt>
      <trkpt lat="42.245642" lon="1.350281">
        <ele>730.377746</ele>
        <time>2022-05-22T10:24:20.904Z</time>
      </trkpt>
      <trkpt lat="42.245696" lon="1.350125">
        <ele>729.315957</ele>
        <time>2022-05-22T10:24:21.898Z</time>
      </trkpt>
      <trkpt lat="42.245742" lon="1.349977">
        <ele>728.326286</ele>
        <time>2022-05-22T10:24:22.902Z</time>
      </trkpt>
      <trkpt lat="42.245791" lon="1.349853">
        <ele>727.459649</ele>
        <time>2022-05-22T10:24:23.903Z</time>
      </trkpt>
      <trkpt lat="42.245850" lon="1.349705">
        <ele>726.423244</ele>
        <time>2022-05-22T10:24:25.901Z</time>
      </trkpt>
      <trkpt lat="42.245764" lon="1.349748">
        <ele>725.659475</ele>
        <time>2022-05-22T10:24:30.901Z</time>
      </trkpt>
      <trkpt lat="42.245636" lon="1.349882">
        <ele>724.310724</ele>
        <time>2022-05-22T10:24:32.910Z</time>
      </trkpt>
      <trkpt lat="42.245554" lon="1.349950">
        <ele>723.509339</ele>
        <time>2022-05-22T10:24:33.905Z</time>
      </trkpt>
      <trkpt lat="42.245471" lon="1.350024">
        <ele>722.681057</ele>
        <time>2022-05-22T10:24:34.912Z</time>
      </trkpt>
      <trkpt lat="42.245396" lon="1.350099">
        <ele>721.903861</ele>
        <time>2022-05-22T10:24:35.908Z</time>
      </trkpt>
      <trkpt lat="42.245309" lon="1.350177">
        <ele>721.034184</ele>
        <time>2022-05-22T10:24:36.907Z</time>
      </trkpt>
      <trkpt lat="42.245221" lon="1.350268">
        <ele>720.111148</ele>
        <time>2022-05-22T10:24:37.911Z</time>
      </trkpt>
      <trkpt lat="42.245130" lon="1.350370">
        <ele>719.126286</ele>
        <time>2022-05-22T10:24:38.904Z</time>
      </trkpt>
      <trkpt lat="42.245048" lon="1.350481">
        <ele>718.159425</ele>
        <time>2022-05-22T10:24:39.911Z</time>
      </trkpt>
      <trkpt lat="42.244971" lon="1.350602">
        <ele>717.175621</ele>
        <time>2022-05-22T10:24:40.905Z</time>
      </trkpt>
      <trkpt lat="42.244895" lon="1.350728">
        <ele>716.173521</ele>
        <time>2022-05-22T10:24:41.908Z</time>
      </trkpt>
      <trkpt lat="42.244823" lon="1.350846">
        <ele>715.233675</ele>
        <time>2022-05-22T10:24:42.903Z</time>
      </trkpt>
      <trkpt lat="42.244735" lon="1.350952">
        <ele>714.256118</ele>
        <time>2022-05-22T10:24:43.912Z</time>
      </trkpt>
      <trkpt lat="42.244636" lon="1.351044">
        <ele>713.259828</ele>
        <time>2022-05-22T10:24:44.904Z</time>
      </trkpt>
      <trkpt lat="42.244544" lon="1.351106">
        <ele>712.407395</ele>
        <time>2022-05-22T10:24:45.904Z</time>
      </trkpt>
      <trkpt lat="42.244431" lon="1.351149">
        <ele>711.434038</ele>
        <time>2022-05-22T10:24:46.903Z</time>
      </trkpt>
      <trkpt lat="42.244314" lon="1.351172">
        <ele>710.453764</ele>
        <time>2022-05-22T10:24:47.901Z</time>
      </trkpt>
      <trkpt lat="42.244194" lon="1.351182">
        <ele>709.456942</ele>
        <time>2022-05-22T10:24:48.901Z</time>
      </trkpt>
      <trkpt lat="42.244077" lon="1.351169">
        <ele>708.483610</ele>
        <time>2022-05-22T10:24:49.902Z</time>
      </trkpt>
      <trkpt lat="42.243963" lon="1.351103">
        <ele>707.455275</ele>
        <time>2022-05-22T10:24:50.900Z</time>
      </trkpt>
      <trkpt lat="42.243859" lon="1.351062">
        <ele>706.557031</ele>
        <time>2022-05-22T10:24:51.905Z</time>
      </trkpt>
      <trkpt lat="42.243740" lon="1.351027">
        <ele>705.547276</ele>
        <time>2022-05-22T10:24:52.897Z</time>
      </trkpt>
      <trkpt lat="42.243639" lon="1.351023">
        <ele>704.709517</ele>
        <time>2022-05-22T10:24:53.899Z</time>
      </trkpt>
      <trkpt lat="42.243532" lon="1.351211">
        <ele>703.253996</ele>
        <time>2022-05-22T10:24:55.905Z</time>
      </trkpt>
      <trkpt lat="42.243508" lon="1.351360">
        <ele>702.318060</ele>
        <time>2022-05-22T10:24:56.901Z</time>
      </trkpt>
      <trkpt lat="42.243473" lon="1.351494">
        <ele>701.445898</ele>
        <time>2022-05-22T10:24:57.901Z</time>
      </trkpt>
      <trkpt lat="42.243448" lon="1.351650">
        <ele>700.777349</ele>
        <time>2022-05-22T10:24:58.898Z</time>
      </trkpt>
      <trkpt lat="42.243419" lon="1.351780">
        <ele>700.451539</ele>
        <time>2022-05-22T10:24:59.903Z</time>
      </trkpt>
      <trkpt lat="42.243359" lon="1.351973">
        <ele>699.949227</ele>
        <time>2022-05-22T10:25:01.898Z</time>
      </trkpt>
      <trkpt lat="42.243272" lon="1.352107">
        <ele>699.521529</ele>
        <time>2022-05-22T10:25:03.902Z</time>
      </trkpt>
      <trkpt lat="42.243171" lon="1.351966">
        <ele>699.050715</ele>
        <time>2022-05-22T10:25:08.898Z</time>
      </trkpt>
      <trkpt lat="42.243178" lon="1.351769">
        <ele>698.577438</ele>
        <time>2022-05-22T10:25:09.900Z</time>
      </trkpt>
      <trkpt lat="42.243226" lon="1.351613">
        <ele>698.172044</ele>
        <time>2022-05-22T10:25:10.901Z</time>
      </trkpt>
      <trkpt lat="42.243244" lon="1.351464">
        <ele>697.809765</ele>
        <time>2022-05-22T10:25:11.898Z</time>
      </trkpt>
      <trkpt lat="42.243276" lon="1.351325">
        <ele>697.460457</ele>
        <time>2022-05-22T10:25:12.898Z</time>
      </trkpt>
      <trkpt lat="42.243307" lon="1.351198">
        <ele>697.139561</ele>
        <time>2022-05-22T10:25:13.899Z</time>
      </trkpt>
      <trkpt lat="42.243339" lon="1.350960">
        <ele>696.559100</ele>
        <time>2022-05-22T10:25:15.899Z</time>
      </trkpt>
      <trkpt lat="42.243366" lon="1.350829">
        <ele>696.232790</ele>
        <time>2022-05-22T10:25:16.899Z</time>
      </trkpt>
      <trkpt lat="42.243382" lon="1.350706">
        <ele>695.933111</ele>
        <time>2022-05-22T10:25:17.897Z</time>
      </trkpt>
      <trkpt lat="42.243399" lon="1.350583">
        <ele>695.632854</ele>
        <time>2022-05-22T10:25:18.898Z</time>
      </trkpt>
      <trkpt lat="42.243418" lon="1.350462">
        <ele>695.336036</ele>
        <time>2022-05-22T10:25:19.897Z</time>
      </trkpt>
      <trkpt lat="42.243450" lon="1.350246">
        <ele>694.605075</ele>
        <time>2022-05-22T10:25:21.897Z</time>
      </trkpt>
      <trkpt lat="42.243574" lon="1.350124">
        <ele>693.811320</ele>
        <time>2022-05-22T10:25:23.900Z</time>
      </trkpt>
      <trkpt lat="42.243673" lon="1.350088">
        <ele>693.280832</ele>
        <time>2022-05-22T10:25:24.902Z</time>
      </trkpt>
      <trkpt lat="42.243785" lon="1.350082">
        <ele>692.700859</ele>
        <time>2022-05-22T10:25:25.899Z</time>
      </trkpt>
      <trkpt lat="42.243911" lon="1.350086">
        <ele>692.048723</ele>
        <time>2022-05-22T10:25:26.897Z</time>
      </trkpt>
      <trkpt lat="42.244008" lon="1.350074">
        <ele>691.544719</ele>
        <time>2022-05-22T10:25:27.901Z</time>
      </trkpt>
      <trkpt lat="42.244099" lon="1.350036">
        <ele>691.051877</ele>
        <time>2022-05-22T10:25:28.901Z</time>
      </trkpt>
      <trkpt lat="42.244190" lon="1.350004">
        <ele>690.565326</ele>
        <time>2022-05-22T10:25:29.903Z</time>
      </trkpt>
      <trkpt lat="42.244362" lon="1.349922">
        <ele>689.621554</ele>
        <time>2022-05-22T10:25:31.900Z</time>
      </trkpt>
      <trkpt lat="42.244455" lon="1.349854">
        <ele>689.074376</ele>
        <time>2022-05-22T10:25:32.899Z</time>
      </trkpt>
      <trkpt lat="42.244543" lon="1.349771">
        <ele>688.519033</ele>
        <time>2022-05-22T10:25:33.901Z</time>
      </trkpt>
      <trkpt lat="42.244638" lon="1.349688">
        <ele>687.933626</ele>
        <time>2022-05-22T10:25:34.903Z</time>
      </trkpt>
      <trkpt lat="42.244737" lon="1.349606">
        <ele>687.332747</ele>
        <time>2022-05-22T10:25:35.901Z</time>
      </trkpt>
      <trkpt lat="42.244830" lon="1.349517">
        <ele>686.743022</ele>
        <time>2022-05-22T10:25:36.900Z</time>
      </trkpt>
      <trkpt lat="42.244890" lon="1.349388">
        <ele>686.159465</ele>
        <time>2022-05-22T10:25:37.903Z</time>
      </trkpt>
      <trkpt lat="42.244941" lon="1.349235">
        <ele>685.346306</ele>
        <time>2022-05-22T10:25:38.902Z</time>
      </trkpt>
      <trkpt lat="42.244984" lon="1.349079">
        <ele>684.372673</ele>
        <time>2022-05-22T10:25:39.903Z</time>
      </trkpt>
      <trkpt lat="42.245027" lon="1.348918">
        <ele>683.371582</ele>
        <time>2022-05-22T10:25:40.905Z</time>
      </trkpt>
      <trkpt lat="42.245036" lon="1.348727">
        <ele>682.252176</ele>
        <time>2022-05-22T10:25:41.902Z</time>
      </trkpt>
      <trkpt lat="42.245083" lon="1.348599">
        <ele>681.416476</ele>
        <time>2022-05-22T10:25:42.906Z</time>
      </trkpt>
      <trkpt lat="42.245150" lon="1.348499">
        <ele>680.627597</ele>
        <time>2022-05-22T10:25:43.906Z</time>
      </trkpt>
      <trkpt lat="42.245225" lon="1.348413">
        <ele>679.850319</ele>
        <time>2022-05-22T10:25:44.905Z</time>
      </trkpt>
      <trkpt lat="42.245357" lon="1.348261">
        <ele>678.479885</ele>
        <time>2022-05-22T10:25:46.902Z</time>
      </trkpt>
      <trkpt lat="42.245466" lon="1.348131">
        <ele>677.331049</ele>
        <time>2022-05-22T10:25:48.900Z</time>
      </trkpt>
      <trkpt lat="42.245607" lon="1.348123">
        <ele>676.216025</ele>
        <time>2022-05-22T10:25:50.902Z</time>
      </trkpt>
      <trkpt lat="42.245702" lon="1.348134">
        <ele>675.462677</ele>
        <time>2022-05-22T10:25:51.898Z</time>
      </trkpt>
      <trkpt lat="42.245795" lon="1.348172">
        <ele>674.695005</ele>
        <time>2022-05-22T10:25:52.904Z</time>
      </trkpt>
      <trkpt lat="42.245886" lon="1.348216">
        <ele>673.931344</ele>
        <time>2022-05-22T10:25:53.905Z</time>
      </trkpt>
      <trkpt lat="42.246022" lon="1.348275">
        <ele>672.802756</ele>
        <time>2022-05-22T10:25:55.898Z</time>
      </trkpt>
      <trkpt lat="42.246121" lon="1.348302">
        <ele>672.004774</ele>
        <time>2022-05-22T10:25:57.898Z</time>
      </trkpt>
      <trkpt lat="42.246207" lon="1.348223">
        <ele>671.293155</ele>
        <time>2022-05-22T10:26:00.897Z</time>
      </trkpt>
      <trkpt lat="42.246272" lon="1.348081">
        <ele>670.557689</ele>
        <time>2022-05-22T10:26:03.897Z</time>
      </trkpt>
      <trkpt lat="42.246342" lon="1.347936">
        <ele>669.795113</ele>
        <time>2022-05-22T10:26:05.893Z</time>
      </trkpt>
      <trkpt lat="42.246488" lon="1.347869">
        <ele>668.877529</ele>
        <time>2022-05-22T10:26:07.892Z</time>
      </trkpt>
      <trkpt lat="42.246583" lon="1.347870">
        <ele>668.312183</ele>
        <time>2022-05-22T10:26:08.895Z</time>
      </trkpt>
      <trkpt lat="42.246681" lon="1.347841">
        <ele>667.715173</ele>
        <time>2022-05-22T10:26:09.897Z</time>
      </trkpt>
      <trkpt lat="42.246787" lon="1.347814">
        <ele>667.073270</ele>
        <time>2022-05-22T10:26:10.903Z</time>
      </trkpt>
      <trkpt lat="42.246941" lon="1.347765">
        <ele>666.131765</ele>
        <time>2022-05-22T10:26:11.903Z</time>
      </trkpt>
      <trkpt lat="42.247085" lon="1.347676">
        <ele>665.189418</ele>
        <time>2022-05-22T10:26:12.917Z</time>
      </trkpt>
      <trkpt lat="42.247248" lon="1.347653">
        <ele>664.214155</ele>
        <time>2022-05-22T10:26:13.894Z</time>
      </trkpt>
      <trkpt lat="42.247399" lon="1.347653">
        <ele>663.315580</ele>
        <time>2022-05-22T10:26:14.896Z</time>
      </trkpt>
      <trkpt lat="42.247542" lon="1.347636">
        <ele>662.461323</ele>
        <time>2022-05-22T10:26:15.900Z</time>
      </trkpt>
      <trkpt lat="42.247696" lon="1.347576">
        <ele>661.507543</ele>
        <time>2022-05-22T10:26:16.896Z</time>
      </trkpt>
      <trkpt lat="42.247866" lon="1.347550">
        <ele>660.599734</ele>
        <time>2022-05-22T10:26:17.897Z</time>
      </trkpt>
      <trkpt lat="42.248081" lon="1.347580">
        <ele>659.638718</ele>
        <time>2022-05-22T10:26:18.897Z</time>
      </trkpt>
      <trkpt lat="42.248332" lon="1.347647">
        <ele>658.501148</ele>
        <time>2022-05-22T10:26:19.896Z</time>
      </trkpt>
      <trkpt lat="42.248647" lon="1.347756">
        <ele>657.055384</ele>
        <time>2022-05-22T10:26:20.896Z</time>
      </trkpt>
      <trkpt lat="42.248853" lon="1.347768">
        <ele>656.138618</ele>
        <time>2022-05-22T10:26:21.901Z</time>
      </trkpt>
      <trkpt lat="42.249158" lon="1.347908">
        <ele>654.706389</ele>
        <time>2022-05-22T10:26:22.896Z</time>
      </trkpt>
      <trkpt lat="42.249411" lon="1.348027">
        <ele>653.515273</ele>
        <time>2022-05-22T10:26:23.915Z</time>
      </trkpt>
      <trkpt lat="42.249619" lon="1.348074">
        <ele>651.331583</ele>
        <time>2022-05-22T10:26:24.902Z</time>
      </trkpt>
      <trkpt lat="42.249805" lon="1.348075">
        <ele>647.568204</ele>
        <time>2022-05-22T10:26:25.903Z</time>
      </trkpt>
      <trkpt lat="42.249932" lon="1.348017">
        <ele>644.855750</ele>
        <time>2022-05-22T10:26:26.903Z</time>
      </trkpt>
      <trkpt lat="42.250048" lon="1.347994">
        <ele>642.483572</ele>
        <time>2022-05-22T10:26:27.899Z</time>
      </trkpt>
      <trkpt lat="42.250196" lon="1.348001">
        <ele>639.487244</ele>
        <time>2022-05-22T10:26:28.899Z</time>
      </trkpt>
      <trkpt lat="42.250309" lon="1.348013">
        <ele>637.193856</ele>
        <time>2022-05-22T10:26:29.904Z</time>
      </trkpt>
      <trkpt lat="42.250408" lon="1.348032">
        <ele>635.170672</ele>
        <time>2022-05-22T10:26:30.907Z</time>
      </trkpt>
      <trkpt lat="42.250548" lon="1.348044">
        <ele>632.332348</ele>
        <time>2022-05-22T10:26:32.907Z</time>
      </trkpt>
      <trkpt lat="42.250600" lon="1.347876">
        <ele>629.605138</ele>
        <time>2022-05-22T10:26:35.900Z</time>
      </trkpt>
      <trkpt lat="42.250495" lon="1.347633">
        <ele>625.391085</ele>
        <time>2022-05-22T10:26:37.910Z</time>
      </trkpt>
      <trkpt lat="42.250437" lon="1.347501">
        <ele>623.092083</ele>
        <time>2022-05-22T10:26:38.959Z</time>
      </trkpt>
      <trkpt lat="42.250372" lon="1.347384">
        <ele>620.901167</ele>
        <time>2022-05-22T10:26:39.964Z</time>
      </trkpt>
      <trkpt lat="42.250308" lon="1.347296">
        <ele>619.053514</ele>
        <time>2022-05-22T10:26:40.927Z</time>
      </trkpt>
      <trkpt lat="42.250174" lon="1.347213">
        <ele>616.368819</ele>
        <time>2022-05-22T10:26:42.917Z</time>
      </trkpt>
      <trkpt lat="42.250070" lon="1.347151">
        <ele>615.540508</ele>
        <time>2022-05-22T10:26:44.905Z</time>
      </trkpt>
      <trkpt lat="42.249968" lon="1.347117">
        <ele>614.774985</ele>
        <time>2022-05-22T10:26:46.903Z</time>
      </trkpt>
      <trkpt lat="42.249843" lon="1.347110">
        <ele>613.863378</ele>
        <time>2022-05-22T10:26:49.898Z</time>
      </trkpt>
      <trkpt lat="42.249732" lon="1.347109">
        <ele>613.054547</ele>
        <time>2022-05-22T10:26:52.903Z</time>
      </trkpt>
      <trkpt lat="42.249628" lon="1.347109">
        <ele>612.296740</ele>
        <time>2022-05-22T10:26:55.907Z</time>
      </trkpt>
      <trkpt lat="42.249529" lon="1.347127">
        <ele>611.568863</ele>
        <time>2022-05-22T10:26:58.901Z</time>
      </trkpt>
      <trkpt lat="42.249414" lon="1.347134">
        <ele>610.730053</ele>
        <time>2022-05-22T10:27:01.896Z</time>
      </trkpt>
      <trkpt lat="42.249304" lon="1.347148">
        <ele>609.924978</ele>
        <time>2022-05-22T10:27:04.902Z</time>
      </trkpt>
      <trkpt lat="42.249182" lon="1.347173">
        <ele>609.025844</ele>
        <time>2022-05-22T10:27:07.897Z</time>
      </trkpt>
      <trkpt lat="42.249067" lon="1.347200">
        <ele>608.175324</ele>
        <time>2022-05-22T10:27:10.898Z</time>
      </trkpt>
      <trkpt lat="42.248962" lon="1.347217">
        <ele>607.404756</ele>
        <time>2022-05-22T10:27:13.900Z</time>
      </trkpt>
      <trkpt lat="42.248860" lon="1.347240">
        <ele>606.651240</ele>
        <time>2022-05-22T10:27:16.902Z</time>
      </trkpt>
      <trkpt lat="42.248752" lon="1.347266">
        <ele>605.851890</ele>
        <time>2022-05-22T10:27:19.904Z</time>
      </trkpt>
      <trkpt lat="42.248635" lon="1.347290">
        <ele>604.989585</ele>
        <time>2022-05-22T10:27:22.936Z</time>
      </trkpt>
      <trkpt lat="42.248531" lon="1.347309">
        <ele>604.224881</ele>
        <time>2022-05-22T10:27:25.907Z</time>
      </trkpt>
      <trkpt lat="42.248430" lon="1.347321">
        <ele>603.486093</ele>
        <time>2022-05-22T10:27:28.897Z</time>
      </trkpt>
      <trkpt lat="42.248328" lon="1.347360">
        <ele>603.280090</ele>
        <time>2022-05-22T10:27:31.899Z</time>
      </trkpt>
      <trkpt lat="42.248222" lon="1.347407">
        <ele>603.109518</ele>
        <time>2022-05-22T10:27:34.899Z</time>
      </trkpt>
      <trkpt lat="42.248121" lon="1.347449">
        <ele>602.947946</ele>
        <time>2022-05-22T10:27:37.904Z</time>
      </trkpt>
      <trkpt lat="42.248015" lon="1.347495">
        <ele>602.777724</ele>
        <time>2022-05-22T10:27:40.902Z</time>
      </trkpt>
      <trkpt lat="42.247911" lon="1.347552">
        <ele>602.606128</ele>
        <time>2022-05-22T10:27:43.912Z</time>
      </trkpt>
      <trkpt lat="42.247802" lon="1.347593">
        <ele>602.433136</ele>
        <time>2022-05-22T10:27:46.976Z</time>
      </trkpt>
      <trkpt lat="42.247698" lon="1.347626">
        <ele>602.269801</ele>
        <time>2022-05-22T10:27:49.915Z</time>
      </trkpt>
      <trkpt lat="42.247594" lon="1.347633">
        <ele>602.110596</ele>
        <time>2022-05-22T10:27:52.919Z</time>
      </trkpt>
      <trkpt lat="42.247483" lon="1.347616">
        <ele>601.939799</ele>
        <time>2022-05-22T10:27:55.932Z</time>
      </trkpt>
      <trkpt lat="42.247369" lon="1.347556">
        <ele>601.752740</ele>
        <time>2022-05-22T10:27:58.918Z</time>
      </trkpt>
      <trkpt lat="42.247251" lon="1.347461">
        <ele>601.542719</ele>
        <time>2022-05-22T10:28:01.893Z</time>
      </trkpt>
      <trkpt lat="42.247188" lon="1.347368">
        <ele>601.400041</ele>
        <time>2022-05-22T10:28:03.914Z</time>
      </trkpt>
      <trkpt lat="42.247135" lon="1.347249">
        <ele>601.242861</ele>
        <time>2022-05-22T10:28:05.920Z</time>
      </trkpt>
      <trkpt lat="42.247096" lon="1.347134">
        <ele>601.099697</ele>
        <time>2022-05-22T10:28:07.915Z</time>
      </trkpt>
      <trkpt lat="42.247072" lon="1.346999">
        <ele>600.942561</ele>
        <time>2022-05-22T10:28:09.928Z</time>
      </trkpt>
      <trkpt lat="42.247069" lon="1.346855">
        <ele>600.779519</ele>
        <time>2022-05-22T10:28:11.927Z</time>
      </trkpt>
      <trkpt lat="42.247088" lon="1.346711">
        <ele>600.754350</ele>
        <time>2022-05-22T10:28:13.918Z</time>
      </trkpt>
      <trkpt lat="42.247103" lon="1.346565">
        <ele>600.939443</ele>
        <time>2022-05-22T10:28:15.956Z</time>
      </trkpt>
      <trkpt lat="42.247132" lon="1.346413">
        <ele>601.136551</ele>
        <time>2022-05-22T10:28:17.945Z</time>
      </trkpt>
      <trkpt lat="42.247178" lon="1.346279">
        <ele>601.322031</ele>
        <time>2022-05-22T10:28:19.910Z</time>
      </trkpt>
      <trkpt lat="42.247258" lon="1.346189">
        <ele>601.498635</ele>
        <time>2022-05-22T10:28:21.936Z</time>
      </trkpt>
      <trkpt lat="42.247353" lon="1.346191">
        <ele>601.659808</ele>
        <time>2022-05-22T10:28:23.916Z</time>
      </trkpt>
      <trkpt lat="42.247443" lon="1.346282">
        <ele>601.850508</ele>
        <time>2022-05-22T10:28:26.965Z</time>
      </trkpt>
      <trkpt lat="42.247507" lon="1.346373">
        <ele>602.008129</ele>
        <time>2022-05-22T10:28:29.917Z</time>
      </trkpt>
      <trkpt lat="42.247580" lon="1.346469">
        <ele>602.180949</ele>
        <time>2022-05-22T10:28:32.904Z</time>
      </trkpt>
      <trkpt lat="42.247657" lon="1.346557">
        <ele>602.352040</ele>
        <time>2022-05-22T10:28:35.900Z</time>
      </trkpt>
      <trkpt lat="42.247758" lon="1.346646">
        <ele>602.556599</ele>
        <time>2022-05-22T10:28:38.908Z</time>
      </trkpt>
      <trkpt lat="42.247859" lon="1.346731">
        <ele>602.758458</ele>
        <time>2022-05-22T10:28:41.902Z</time>
      </trkpt>
      <trkpt lat="42.247974" lon="1.346827">
        <ele>602.987779</ele>
        <time>2022-05-22T10:28:44.904Z</time>
      </trkpt>
      <trkpt lat="42.248058" lon="1.346878">
        <ele>603.144002</ele>
        <time>2022-05-22T10:28:46.908Z</time>
      </trkpt>
      <trkpt lat="42.248148" lon="1.346919">
        <ele>603.305121</ele>
        <time>2022-05-22T10:28:48.906Z</time>
      </trkpt>
      <trkpt lat="42.248254" lon="1.346960">
        <ele>603.492159</ele>
        <time>2022-05-22T10:28:50.908Z</time>
      </trkpt>
      <trkpt lat="42.248369" lon="1.347000">
        <ele>603.693602</ele>
        <time>2022-05-22T10:28:52.908Z</time>
      </trkpt>
      <trkpt lat="42.248471" lon="1.347020">
        <ele>603.801334</ele>
        <time>2022-05-22T10:28:54.905Z</time>
      </trkpt>
      <trkpt lat="42.248578" lon="1.347038">
        <ele>603.894513</ele>
        <time>2022-05-22T10:28:56.906Z</time>
      </trkpt>
      <trkpt lat="42.248694" lon="1.347045">
        <ele>603.994856</ele>
        <time>2022-05-22T10:28:58.902Z</time>
      </trkpt>
      <trkpt lat="42.248803" lon="1.347042">
        <ele>604.089069</ele>
        <time>2022-05-22T10:29:00.908Z</time>
      </trkpt>
      <trkpt lat="42.248916" lon="1.347024">
        <ele>604.187396</ele>
        <time>2022-05-22T10:29:02.902Z</time>
      </trkpt>
      <trkpt lat="42.249037" lon="1.347023">
        <ele>604.291962</ele>
        <time>2022-05-22T10:29:04.908Z</time>
      </trkpt>
      <trkpt lat="42.249173" lon="1.347025">
        <ele>604.409495</ele>
        <time>2022-05-22T10:29:06.907Z</time>
      </trkpt>
      <trkpt lat="42.249311" lon="1.347020">
        <ele>604.528792</ele>
        <time>2022-05-22T10:29:08.902Z</time>
      </trkpt>
      <trkpt lat="42.249462" lon="1.347018">
        <ele>604.659287</ele>
        <time>2022-05-22T10:29:10.907Z</time>
      </trkpt>
      <trkpt lat="42.249612" lon="1.347019">
        <ele>604.788913</ele>
        <time>2022-05-22T10:29:12.909Z</time>
      </trkpt>
      <trkpt lat="42.249765" lon="1.347031">
        <ele>604.921352</ele>
        <time>2022-05-22T10:29:14.908Z</time>
      </trkpt>
      <trkpt lat="42.249937" lon="1.347043">
        <ele>605.070186</ele>
        <time>2022-05-22T10:29:16.906Z</time>
      </trkpt>
      <trkpt lat="42.250030" lon="1.347063">
        <ele>605.151565</ele>
        <time>2022-05-22T10:29:17.905Z</time>
      </trkpt>
      <trkpt lat="42.250119" lon="1.347094">
        <ele>605.230991</ele>
        <time>2022-05-22T10:29:18.906Z</time>
      </trkpt>
      <trkpt lat="42.250282" lon="1.347165">
        <ele>605.519442</ele>
        <time>2022-05-22T10:29:20.905Z</time>
      </trkpt>
      <trkpt lat="42.250427" lon="1.347285">
        <ele>605.888252</ele>
        <time>2022-05-22T10:29:22.905Z</time>
      </trkpt>
      <trkpt lat="42.250575" lon="1.347411">
        <ele>606.267673</ele>
        <time>2022-05-22T10:29:24.903Z</time>
      </trkpt>
      <trkpt lat="42.250727" lon="1.347506">
        <ele>606.630918</ele>
        <time>2022-05-22T10:29:26.902Z</time>
      </trkpt>
      <trkpt lat="42.250861" lon="1.347599">
        <ele>606.957660</ele>
        <time>2022-05-22T10:29:28.906Z</time>
      </trkpt>
      <trkpt lat="42.251004" lon="1.347697">
        <ele>607.305438</ele>
        <time>2022-05-22T10:29:30.905Z</time>
      </trkpt>
      <trkpt lat="42.251149" lon="1.347798">
        <ele>607.659271</ele>
        <time>2022-05-22T10:29:32.904Z</time>
      </trkpt>
      <trkpt lat="42.251272" lon="1.347895">
        <ele>607.968173</ele>
        <time>2022-05-22T10:29:34.903Z</time>
      </trkpt>
      <trkpt lat="42.251391" lon="1.347967">
        <ele>608.250975</ele>
        <time>2022-05-22T10:29:36.900Z</time>
      </trkpt>
      <trkpt lat="42.251498" lon="1.348019">
        <ele>608.497607</ele>
        <time>2022-05-22T10:29:38.893Z</time>
      </trkpt>
      <trkpt lat="42.251587" lon="1.348093">
        <ele>608.724269</ele>
        <time>2022-05-22T10:29:40.898Z</time>
      </trkpt>
      <trkpt lat="42.257043" lon="1.353270">
        <ele>641.770167</ele>
        <time>2022-05-22T10:31:43.922Z</time>
      </trkpt>
      <trkpt lat="42.257091" lon="1.353389">
        <ele>640.455140</ele>
        <time>2022-05-22T10:31:45.908Z</time>
      </trkpt>
      <trkpt lat="42.257197" lon="1.353405">
        <ele>639.056826</ele>
        <time>2022-05-22T10:31:47.898Z</time>
      </trkpt>
      <trkpt lat="42.257305" lon="1.353481">
        <ele>637.460403</ele>
        <time>2022-05-22T10:31:49.900Z</time>
      </trkpt>
      <trkpt lat="42.257397" lon="1.353600">
        <ele>635.790664</ele>
        <time>2022-05-22T10:31:51.900Z</time>
      </trkpt>
      <trkpt lat="42.257492" lon="1.353690">
        <ele>634.269548</ele>
        <time>2022-05-22T10:31:53.897Z</time>
      </trkpt>
      <trkpt lat="42.257565" lon="1.353835">
        <ele>632.567945</ele>
        <time>2022-05-22T10:31:55.897Z</time>
      </trkpt>
      <trkpt lat="42.257659" lon="1.353964">
        <ele>631.220097</ele>
        <time>2022-05-22T10:31:57.899Z</time>
      </trkpt>
      <trkpt lat="42.257756" lon="1.354075">
        <ele>630.099818</ele>
        <time>2022-05-22T10:31:59.898Z</time>
      </trkpt>
      <trkpt lat="42.257854" lon="1.354189">
        <ele>628.960130</ele>
        <time>2022-05-22T10:32:01.895Z</time>
      </trkpt>
      <trkpt lat="42.257948" lon="1.354306">
        <ele>627.833754</ele>
        <time>2022-05-22T10:32:03.899Z</time>
      </trkpt>
      <trkpt lat="42.258030" lon="1.354443">
        <ele>626.684486</ele>
        <time>2022-05-22T10:32:05.896Z</time>
      </trkpt>
      <trkpt lat="42.258123" lon="1.354578">
        <ele>625.481496</ele>
        <time>2022-05-22T10:32:07.900Z</time>
      </trkpt>
      <trkpt lat="42.258214" lon="1.354694">
        <ele>624.378910</ele>
        <time>2022-05-22T10:32:09.900Z</time>
      </trkpt>
      <trkpt lat="42.258289" lon="1.354838">
        <ele>623.230373</ele>
        <time>2022-05-22T10:32:11.899Z</time>
      </trkpt>
      <trkpt lat="42.258351" lon="1.354969">
        <ele>622.216123</ele>
        <time>2022-05-22T10:32:13.897Z</time>
      </trkpt>
      <trkpt lat="42.258427" lon="1.355091">
        <ele>621.175987</ele>
        <time>2022-05-22T10:32:15.903Z</time>
      </trkpt>
      <trkpt lat="42.258508" lon="1.355248">
        <ele>619.927662</ele>
        <time>2022-05-22T10:32:17.898Z</time>
      </trkpt>
      <trkpt lat="42.258594" lon="1.355398">
        <ele>618.690028</ele>
        <time>2022-05-22T10:32:19.902Z</time>
      </trkpt>
      <trkpt lat="42.258690" lon="1.355524">
        <ele>617.510507</ele>
        <time>2022-05-22T10:32:21.899Z</time>
      </trkpt>
      <trkpt lat="42.258775" lon="1.355620">
        <ele>616.534151</ele>
        <time>2022-05-22T10:32:23.903Z</time>
      </trkpt>
      <trkpt lat="42.258849" lon="1.355728">
        <ele>615.856165</ele>
        <time>2022-05-22T10:32:25.905Z</time>
      </trkpt>
      <trkpt lat="42.258948" lon="1.355832">
        <ele>615.243687</ele>
        <time>2022-05-22T10:32:27.903Z</time>
      </trkpt>
      <trkpt lat="42.259042" lon="1.355926">
        <ele>614.672516</ele>
        <time>2022-05-22T10:32:29.901Z</time>
      </trkpt>
      <trkpt lat="42.259158" lon="1.356026">
        <ele>614.000464</ele>
        <time>2022-05-22T10:32:31.901Z</time>
      </trkpt>
      <trkpt lat="42.259277" lon="1.356097">
        <ele>613.365111</ele>
        <time>2022-05-22T10:32:33.900Z</time>
      </trkpt>
      <trkpt lat="42.259404" lon="1.356176">
        <ele>612.682250</ele>
        <time>2022-05-22T10:32:35.899Z</time>
      </trkpt>
      <trkpt lat="42.259533" lon="1.356256">
        <ele>611.989004</ele>
        <time>2022-05-22T10:32:37.896Z</time>
      </trkpt>
      <trkpt lat="42.259670" lon="1.356334">
        <ele>611.262903</ele>
        <time>2022-05-22T10:32:39.900Z</time>
      </trkpt>
      <trkpt lat="42.259824" lon="1.356417">
        <ele>610.453119</ele>
        <time>2022-05-22T10:32:41.900Z</time>
      </trkpt>
      <trkpt lat="42.259969" lon="1.356478">
        <ele>609.711390</ele>
        <time>2022-05-22T10:32:43.902Z</time>
      </trkpt>
      <trkpt lat="42.260102" lon="1.356516">
        <ele>609.047439</ele>
        <time>2022-05-22T10:32:45.908Z</time>
      </trkpt>
      <trkpt lat="42.260231" lon="1.356530">
        <ele>608.415359</ele>
        <time>2022-05-22T10:32:47.897Z</time>
      </trkpt>
      <trkpt lat="42.260343" lon="1.356525">
        <ele>607.868040</ele>
        <time>2022-05-22T10:32:49.903Z</time>
      </trkpt>
      <trkpt lat="42.260433" lon="1.356536">
        <ele>607.426675</ele>
        <time>2022-05-22T10:32:51.904Z</time>
      </trkpt>
      <trkpt lat="42.260528" lon="1.356558">
        <ele>607.296214</ele>
        <time>2022-05-22T10:32:53.908Z</time>
      </trkpt>
      <trkpt lat="42.260651" lon="1.356601">
        <ele>607.128801</ele>
        <time>2022-05-22T10:32:55.903Z</time>
      </trkpt>
      <trkpt lat="42.260779" lon="1.356657">
        <ele>606.951515</ele>
        <time>2022-05-22T10:32:57.905Z</time>
      </trkpt>
      <trkpt lat="42.260915" lon="1.356701">
        <ele>606.767244</ele>
        <time>2022-05-22T10:32:59.907Z</time>
      </trkpt>
      <trkpt lat="42.261043" lon="1.356726">
        <ele>606.596826</ele>
        <time>2022-05-22T10:33:01.897Z</time>
      </trkpt>
      <trkpt lat="42.261155" lon="1.356741">
        <ele>606.448522</ele>
        <time>2022-05-22T10:33:03.898Z</time>
      </trkpt>
      <trkpt lat="42.261250" lon="1.356753">
        <ele>606.322795</ele>
        <time>2022-05-22T10:33:05.921Z</time>
      </trkpt>
      <trkpt lat="42.261355" lon="1.356782">
        <ele>606.181577</ele>
        <time>2022-05-22T10:33:07.897Z</time>
      </trkpt>
      <trkpt lat="42.261449" lon="1.356824">
        <ele>606.051117</ele>
        <time>2022-05-22T10:33:09.897Z</time>
      </trkpt>
      <trkpt lat="42.261580" lon="1.356895">
        <ele>605.865131</ele>
        <time>2022-05-22T10:33:12.893Z</time>
      </trkpt>
      <trkpt lat="42.261695" lon="1.356940">
        <ele>605.707370</ele>
        <time>2022-05-22T10:33:14.895Z</time>
      </trkpt>
      <trkpt lat="42.261814" lon="1.356971">
        <ele>605.547677</ele>
        <time>2022-05-22T10:33:16.899Z</time>
      </trkpt>
      <trkpt lat="42.261935" lon="1.356980">
        <ele>605.387995</ele>
        <time>2022-05-22T10:33:18.909Z</time>
      </trkpt>
      <trkpt lat="42.262048" lon="1.357019">
        <ele>605.234316</ele>
        <time>2022-05-22T10:33:20.904Z</time>
      </trkpt>
      <trkpt lat="42.262147" lon="1.357050">
        <ele>605.100407</ele>
        <time>2022-05-22T10:33:22.911Z</time>
      </trkpt>
      <trkpt lat="42.262264" lon="1.357092">
        <ele>605.104076</ele>
        <time>2022-05-22T10:33:24.907Z</time>
      </trkpt>
      <trkpt lat="42.262386" lon="1.357119">
        <ele>605.180670</ele>
        <time>2022-05-22T10:33:26.907Z</time>
      </trkpt>
      <trkpt lat="42.262501" lon="1.357164">
        <ele>605.254847</ele>
        <time>2022-05-22T10:33:28.923Z</time>
      </trkpt>
      <trkpt lat="42.262608" lon="1.357212">
        <ele>605.324698</ele>
        <time>2022-05-22T10:33:30.910Z</time>
      </trkpt>
      <trkpt lat="42.262719" lon="1.357276">
        <ele>605.399468</ele>
        <time>2022-05-22T10:33:32.908Z</time>
      </trkpt>
      <trkpt lat="42.262835" lon="1.357353">
        <ele>605.479541</ele>
        <time>2022-05-22T10:33:34.908Z</time>
      </trkpt>
      <trkpt lat="42.262929" lon="1.357437">
        <ele>605.549364</ele>
        <time>2022-05-22T10:33:36.912Z</time>
      </trkpt>
      <trkpt lat="42.263014" lon="1.357491">
        <ele>605.607557</ele>
        <time>2022-05-22T10:33:38.914Z</time>
      </trkpt>
      <trkpt lat="42.263099" lon="1.357547">
        <ele>605.666146</ele>
        <time>2022-05-22T10:33:40.906Z</time>
      </trkpt>
      <trkpt lat="42.263197" lon="1.357596">
        <ele>605.730886</ele>
        <time>2022-05-22T10:33:42.912Z</time>
      </trkpt>
      <trkpt lat="42.263300" lon="1.357648">
        <ele>605.799010</ele>
        <time>2022-05-22T10:33:44.909Z</time>
      </trkpt>
      <trkpt lat="42.263409" lon="1.357682">
        <ele>605.868318</ele>
        <time>2022-05-22T10:33:46.912Z</time>
      </trkpt>
      <trkpt lat="42.263513" lon="1.357761">
        <ele>605.942236</ele>
        <time>2022-05-22T10:33:48.911Z</time>
      </trkpt>
      <trkpt lat="42.263625" lon="1.357847">
        <ele>606.022048</ele>
        <time>2022-05-22T10:33:50.908Z</time>
      </trkpt>
      <trkpt lat="42.263724" lon="1.357924">
        <ele>606.092820</ele>
        <time>2022-05-22T10:33:52.912Z</time>
      </trkpt>
      <trkpt lat="42.263811" lon="1.357989">
        <ele>606.154412</ele>
        <time>2022-05-22T10:33:54.912Z</time>
      </trkpt>
      <trkpt lat="42.263912" lon="1.358052">
        <ele>606.237055</ele>
        <time>2022-05-22T10:33:56.909Z</time>
      </trkpt>
      <trkpt lat="42.264018" lon="1.358119">
        <ele>606.326989</ele>
        <time>2022-05-22T10:33:58.910Z</time>
      </trkpt>
      <trkpt lat="42.264125" lon="1.358199">
        <ele>606.420967</ele>
        <time>2022-05-22T10:34:00.912Z</time>
      </trkpt>
      <trkpt lat="42.264206" lon="1.358270">
        <ele>606.495167</ele>
        <time>2022-05-22T10:34:02.902Z</time>
      </trkpt>
      <trkpt lat="42.264314" lon="1.358357">
        <ele>606.591795</ele>
        <time>2022-05-22T10:34:05.913Z</time>
      </trkpt>
      <trkpt lat="42.264406" lon="1.358409">
        <ele>606.668434</ele>
        <time>2022-05-22T10:34:07.905Z</time>
      </trkpt>
      <trkpt lat="42.264504" lon="1.358467">
        <ele>606.750655</ele>
        <time>2022-05-22T10:34:09.923Z</time>
      </trkpt>
      <trkpt lat="42.264611" lon="1.358504">
        <ele>606.835535</ele>
        <time>2022-05-22T10:34:11.916Z</time>
      </trkpt>
      <trkpt lat="42.264731" lon="1.358531">
        <ele>606.929026</ele>
        <time>2022-05-22T10:34:13.909Z</time>
      </trkpt>
      <trkpt lat="42.264838" lon="1.358589">
        <ele>607.017626</ele>
        <time>2022-05-22T10:34:15.907Z</time>
      </trkpt>
      <trkpt lat="42.264940" lon="1.358668">
        <ele>607.107977</ele>
        <time>2022-05-22T10:34:17.901Z</time>
      </trkpt>
      <trkpt lat="42.265046" lon="1.358746">
        <ele>607.200734</ele>
        <time>2022-05-22T10:34:19.915Z</time>
      </trkpt>
      <trkpt lat="42.265130" lon="1.358830">
        <ele>607.281043</ele>
        <time>2022-05-22T10:34:21.907Z</time>
      </trkpt>
      <trkpt lat="42.265219" lon="1.358912">
        <ele>607.363826</ele>
        <time>2022-05-22T10:34:23.908Z</time>
      </trkpt>
      <trkpt lat="42.265321" lon="1.358989">
        <ele>607.453617</ele>
        <time>2022-05-22T10:34:25.911Z</time>
      </trkpt>
      <trkpt lat="42.265416" lon="1.359066">
        <ele>607.538752</ele>
        <time>2022-05-22T10:34:27.923Z</time>
      </trkpt>
      <trkpt lat="42.265516" lon="1.359109">
        <ele>607.882562</ele>
        <time>2022-05-22T10:34:29.910Z</time>
      </trkpt>
      <trkpt lat="42.265612" lon="1.359149">
        <ele>608.246443</ele>
        <time>2022-05-22T10:34:31.911Z</time>
      </trkpt>
      <trkpt lat="42.265707" lon="1.359225">
        <ele>608.646330</ele>
        <time>2022-05-22T10:34:33.900Z</time>
      </trkpt>
      <trkpt lat="42.265795" lon="1.359296">
        <ele>609.017573</ele>
        <time>2022-05-22T10:34:35.911Z</time>
      </trkpt>
      <trkpt lat="42.265883" lon="1.359372">
        <ele>609.395862</ele>
        <time>2022-05-22T10:34:37.910Z</time>
      </trkpt>
      <trkpt lat="42.265962" lon="1.359450">
        <ele>609.750257</ele>
        <time>2022-05-22T10:34:39.910Z</time>
      </trkpt>
      <trkpt lat="42.266049" lon="1.359523">
        <ele>610.121194</ele>
        <time>2022-05-22T10:34:41.908Z</time>
      </trkpt>
      <trkpt lat="42.266142" lon="1.359595">
        <ele>610.509424</ele>
        <time>2022-05-22T10:34:43.908Z</time>
      </trkpt>
      <trkpt lat="42.266250" lon="1.359674">
        <ele>610.954253</ele>
        <time>2022-05-22T10:34:45.917Z</time>
      </trkpt>
      <trkpt lat="42.266356" lon="1.359730">
        <ele>611.366501</ele>
        <time>2022-05-22T10:34:47.915Z</time>
      </trkpt>
      <trkpt lat="42.266452" lon="1.359786">
        <ele>611.745244</ele>
        <time>2022-05-22T10:34:49.911Z</time>
      </trkpt>
      <trkpt lat="42.266548" lon="1.359821">
        <ele>612.105404</ele>
        <time>2022-05-22T10:34:51.924Z</time>
      </trkpt>
      <trkpt lat="42.266636" lon="1.359870">
        <ele>612.450153</ele>
        <time>2022-05-22T10:34:53.909Z</time>
      </trkpt>
      <trkpt lat="42.266724" lon="1.359892">
        <ele>612.774312</ele>
        <time>2022-05-22T10:34:55.910Z</time>
      </trkpt>
      <trkpt lat="42.266846" lon="1.359965">
        <ele>613.257599</ele>
        <time>2022-05-22T10:34:58.919Z</time>
      </trkpt>
      <trkpt lat="42.266978" lon="1.360034">
        <ele>613.770248</ele>
        <time>2022-05-22T10:35:01.918Z</time>
      </trkpt>
      <trkpt lat="42.267075" lon="1.360095">
        <ele>614.133557</ele>
        <time>2022-05-22T10:35:03.908Z</time>
      </trkpt>
      <trkpt lat="42.267171" lon="1.360163">
        <ele>614.425302</ele>
        <time>2022-05-22T10:35:05.908Z</time>
      </trkpt>
      <trkpt lat="42.267275" lon="1.360199">
        <ele>614.714271</ele>
        <time>2022-05-22T10:35:07.903Z</time>
      </trkpt>
      <trkpt lat="42.267367" lon="1.360244">
        <ele>614.977626</ele>
        <time>2022-05-22T10:35:09.904Z</time>
      </trkpt>
      <trkpt lat="42.267473" lon="1.360288">
        <ele>615.276097</ele>
        <time>2022-05-22T10:35:11.901Z</time>
      </trkpt>
      <trkpt lat="42.267583" lon="1.360346">
        <ele>615.593919</ele>
        <time>2022-05-22T10:35:13.896Z</time>
      </trkpt>
      <trkpt lat="42.267676" lon="1.360414">
        <ele>615.878536</ele>
        <time>2022-05-22T10:35:15.908Z</time>
      </trkpt>
      <trkpt lat="42.267760" lon="1.360471">
        <ele>616.131539</ele>
        <time>2022-05-22T10:35:17.906Z</time>
      </trkpt>
      <trkpt lat="42.267865" lon="1.360502">
        <ele>616.420829</ele>
        <time>2022-05-22T10:35:19.954Z</time>
      </trkpt>
      <trkpt lat="42.267980" lon="1.360505">
        <ele>616.730426</ele>
        <time>2022-05-22T10:35:21.909Z</time>
      </trkpt>
      <trkpt lat="42.268101" lon="1.360478">
        <ele>617.060525</ele>
        <time>2022-05-22T10:35:23.905Z</time>
      </trkpt>
      <trkpt lat="42.268219" lon="1.360450">
        <ele>617.382999</ele>
        <time>2022-05-22T10:35:25.909Z</time>
      </trkpt>
      <trkpt lat="42.268322" lon="1.360464">
        <ele>617.661637</ele>
        <time>2022-05-22T10:35:27.905Z</time>
      </trkpt>
      <trkpt lat="42.268419" lon="1.360495">
        <ele>617.929929</ele>
        <time>2022-05-22T10:35:29.910Z</time>
      </trkpt>
      <trkpt lat="42.268532" lon="1.360523">
        <ele>618.239155</ele>
        <time>2022-05-22T10:35:32.912Z</time>
      </trkpt>
      <trkpt lat="42.268651" lon="1.360541">
        <ele>618.561462</ele>
        <time>2022-05-22T10:35:35.914Z</time>
      </trkpt>
      <trkpt lat="42.268760" lon="1.360577">
        <ele>618.863486</ele>
        <time>2022-05-22T10:35:37.906Z</time>
      </trkpt>
      <trkpt lat="42.268861" lon="1.360612">
        <ele>618.921562</ele>
        <time>2022-05-22T10:35:39.907Z</time>
      </trkpt>
      <trkpt lat="42.268971" lon="1.360638">
        <ele>618.942618</ele>
        <time>2022-05-22T10:35:41.905Z</time>
      </trkpt>
      <trkpt lat="42.269083" lon="1.360665">
        <ele>618.964070</ele>
        <time>2022-05-22T10:35:43.909Z</time>
      </trkpt>
      <trkpt lat="42.269199" lon="1.360706">
        <ele>618.986678</ele>
        <time>2022-05-22T10:35:45.905Z</time>
      </trkpt>
      <trkpt lat="42.269297" lon="1.360739">
        <ele>619.005722</ele>
        <time>2022-05-22T10:35:47.908Z</time>
      </trkpt>
      <trkpt lat="42.269435" lon="1.360772">
        <ele>619.032147</ele>
        <time>2022-05-22T10:35:50.905Z</time>
      </trkpt>
      <trkpt lat="42.269539" lon="1.360799">
        <ele>619.052115</ele>
        <time>2022-05-22T10:35:52.913Z</time>
      </trkpt>
      <trkpt lat="42.269658" lon="1.360866">
        <ele>619.076423</ele>
        <time>2022-05-22T10:35:54.914Z</time>
      </trkpt>
      <trkpt lat="42.269795" lon="1.360923">
        <ele>619.103452</ele>
        <time>2022-05-22T10:35:56.912Z</time>
      </trkpt>
      <trkpt lat="42.269927" lon="1.360949">
        <ele>619.128604</ele>
        <time>2022-05-22T10:35:58.909Z</time>
      </trkpt>
      <trkpt lat="42.270042" lon="1.360964">
        <ele>619.150389</ele>
        <time>2022-05-22T10:36:00.903Z</time>
      </trkpt>
      <trkpt lat="42.270140" lon="1.360968">
        <ele>619.168876</ele>
        <time>2022-05-22T10:36:02.907Z</time>
      </trkpt>
      <trkpt lat="42.270243" lon="1.360983">
        <ele>619.188409</ele>
        <time>2022-05-22T10:36:04.905Z</time>
      </trkpt>
      <trkpt lat="42.270339" lon="1.360977">
        <ele>619.206530</ele>
        <time>2022-05-22T10:36:06.908Z</time>
      </trkpt>
      <trkpt lat="42.270428" lon="1.360954">
        <ele>619.223616</ele>
        <time>2022-05-22T10:36:08.905Z</time>
      </trkpt>
      <trkpt lat="42.270530" lon="1.360967">
        <ele>619.242934</ele>
        <time>2022-05-22T10:36:10.898Z</time>
      </trkpt>
      <trkpt lat="42.270640" lon="1.360949">
        <ele>619.375253</ele>
        <time>2022-05-22T10:36:12.909Z</time>
      </trkpt>
      <trkpt lat="42.270774" lon="1.360960">
        <ele>619.542405</ele>
        <time>2022-05-22T10:36:14.904Z</time>
      </trkpt>
      <trkpt lat="42.270901" lon="1.360940">
        <ele>619.701604</ele>
        <time>2022-05-22T10:36:16.902Z</time>
      </trkpt>
      <trkpt lat="42.271006" lon="1.360915">
        <ele>619.834354</ele>
        <time>2022-05-22T10:36:18.913Z</time>
      </trkpt>
      <trkpt lat="42.271135" lon="1.360905">
        <ele>619.995236</ele>
        <time>2022-05-22T10:36:20.906Z</time>
      </trkpt>
      <trkpt lat="42.271260" lon="1.360872">
        <ele>620.153817</ele>
        <time>2022-05-22T10:36:22.909Z</time>
      </trkpt>
      <trkpt lat="42.271376" lon="1.360861">
        <ele>620.298604</ele>
        <time>2022-05-22T10:36:24.919Z</time>
      </trkpt>
      <trkpt lat="42.271498" lon="1.360844">
        <ele>620.451313</ele>
        <time>2022-05-22T10:36:26.901Z</time>
      </trkpt>
      <trkpt lat="42.271623" lon="1.360822">
        <ele>620.608266</ele>
        <time>2022-05-22T10:36:28.905Z</time>
      </trkpt>
      <trkpt lat="42.271743" lon="1.360796">
        <ele>620.759587</ele>
        <time>2022-05-22T10:36:30.911Z</time>
      </trkpt>
      <trkpt lat="42.271848" lon="1.360776">
        <ele>620.891615</ele>
        <time>2022-05-22T10:36:32.917Z</time>
      </trkpt>
      <trkpt lat="42.271962" lon="1.360765">
        <ele>621.033919</ele>
        <time>2022-05-22T10:36:34.907Z</time>
      </trkpt>
      <trkpt lat="42.272080" lon="1.360745">
        <ele>621.181992</ele>
        <time>2022-05-22T10:36:36.908Z</time>
      </trkpt>
      <trkpt lat="42.272178" lon="1.360722">
        <ele>621.305839</ele>
        <time>2022-05-22T10:36:38.910Z</time>
      </trkpt>
      <trkpt lat="42.272281" lon="1.360725">
        <ele>621.434115</ele>
        <time>2022-05-22T10:36:40.909Z</time>
      </trkpt>
      <trkpt lat="42.272394" lon="1.360707">
        <ele>621.678343</ele>
        <time>2022-05-22T10:36:42.905Z</time>
      </trkpt>
      <trkpt lat="42.272497" lon="1.360706">
        <ele>621.949031</ele>
        <time>2022-05-22T10:36:44.908Z</time>
      </trkpt>
      <trkpt lat="42.272624" lon="1.360697">
        <ele>622.283241</ele>
        <time>2022-05-22T10:36:46.901Z</time>
      </trkpt>
      <trkpt lat="42.272738" lon="1.360674">
        <ele>622.586148</ele>
        <time>2022-05-22T10:36:48.903Z</time>
      </trkpt>
      <trkpt lat="42.272847" lon="1.360659">
        <ele>622.874078</ele>
        <time>2022-05-22T10:36:50.911Z</time>
      </trkpt>
      <trkpt lat="42.272964" lon="1.360636">
        <ele>623.184785</ele>
        <time>2022-05-22T10:36:52.912Z</time>
      </trkpt>
      <trkpt lat="42.273091" lon="1.360612">
        <ele>623.521784</ele>
        <time>2022-05-22T10:36:54.906Z</time>
      </trkpt>
      <trkpt lat="42.273210" lon="1.360599">
        <ele>623.835531</ele>
        <time>2022-05-22T10:36:56.909Z</time>
      </trkpt>
      <trkpt lat="42.273305" lon="1.360578">
        <ele>624.088505</ele>
        <time>2022-05-22T10:36:58.910Z</time>
      </trkpt>
      <trkpt lat="42.273411" lon="1.360560">
        <ele>624.369260</ele>
        <time>2022-05-22T10:37:00.923Z</time>
      </trkpt>
      <trkpt lat="42.273536" lon="1.360565">
        <ele>624.697899</ele>
        <time>2022-05-22T10:37:02.910Z</time>
      </trkpt>
      <trkpt lat="42.273655" lon="1.360561">
        <ele>625.010723</ele>
        <time>2022-05-22T10:37:04.910Z</time>
      </trkpt>
      <trkpt lat="42.273764" lon="1.360543">
        <ele>625.299302</ele>
        <time>2022-05-22T10:37:06.914Z</time>
      </trkpt>
      <trkpt lat="42.273856" lon="1.360527">
        <ele>625.543068</ele>
        <time>2022-05-22T10:37:08.908Z</time>
      </trkpt>
      <trkpt lat="42.273959" lon="1.360517">
        <ele>625.814446</ele>
        <time>2022-05-22T10:37:10.907Z</time>
      </trkpt>
      <trkpt lat="42.274065" lon="1.360488">
        <ele>626.098660</ele>
        <time>2022-05-22T10:37:12.907Z</time>
      </trkpt>
      <trkpt lat="42.274190" lon="1.360461">
        <ele>626.341545</ele>
        <time>2022-05-22T10:37:15.910Z</time>
      </trkpt>
      <trkpt lat="42.274310" lon="1.360447">
        <ele>626.529552</ele>
        <time>2022-05-22T10:37:18.913Z</time>
      </trkpt>
      <trkpt lat="42.274414" lon="1.360434">
        <ele>626.692580</ele>
        <time>2022-05-22T10:37:20.910Z</time>
      </trkpt>
      <trkpt lat="42.274512" lon="1.360406">
        <ele>626.848931</ele>
        <time>2022-05-22T10:37:22.908Z</time>
      </trkpt>
      <trkpt lat="42.274640" lon="1.360376">
        <ele>627.051710</ele>
        <time>2022-05-22T10:37:24.907Z</time>
      </trkpt>
      <trkpt lat="42.274767" lon="1.360360">
        <ele>627.250806</ele>
        <time>2022-05-22T10:37:26.919Z</time>
      </trkpt>
      <trkpt lat="42.274906" lon="1.360350">
        <ele>627.468080</ele>
        <time>2022-05-22T10:37:28.912Z</time>
      </trkpt>
      <trkpt lat="42.275036" lon="1.360345">
        <ele>627.671081</ele>
        <time>2022-05-22T10:37:30.913Z</time>
      </trkpt>
      <trkpt lat="42.275161" lon="1.360341">
        <ele>627.866250</ele>
        <time>2022-05-22T10:37:32.908Z</time>
      </trkpt>
      <trkpt lat="42.275285" lon="1.360343">
        <ele>628.059817</ele>
        <time>2022-05-22T10:37:34.926Z</time>
      </trkpt>
      <trkpt lat="42.275406" lon="1.360356">
        <ele>628.249284</ele>
        <time>2022-05-22T10:37:36.899Z</time>
      </trkpt>
      <trkpt lat="42.275537" lon="1.360392">
        <ele>628.457948</ele>
        <time>2022-05-22T10:37:38.917Z</time>
      </trkpt>
      <trkpt lat="42.275663" lon="1.360425">
        <ele>628.658282</ele>
        <time>2022-05-22T10:37:40.912Z</time>
      </trkpt>
      <trkpt lat="42.275791" lon="1.360469">
        <ele>628.864441</ele>
        <time>2022-05-22T10:37:42.908Z</time>
      </trkpt>
      <trkpt lat="42.275911" lon="1.360527">
        <ele>629.025957</ele>
        <time>2022-05-22T10:37:44.911Z</time>
      </trkpt>
      <trkpt lat="42.276022" lon="1.360596">
        <ele>629.060293</ele>
        <time>2022-05-22T10:37:46.914Z</time>
      </trkpt>
      <trkpt lat="42.276138" lon="1.360697">
        <ele>629.099073</ele>
        <time>2022-05-22T10:37:48.919Z</time>
      </trkpt>
      <trkpt lat="42.276249" lon="1.360810">
        <ele>629.138128</ele>
        <time>2022-05-22T10:37:50.917Z</time>
      </trkpt>
      <trkpt lat="42.276352" lon="1.360916">
        <ele>629.174511</ele>
        <time>2022-05-22T10:37:52.915Z</time>
      </trkpt>
      <trkpt lat="42.276445" lon="1.361016">
        <ele>629.207910</ele>
        <time>2022-05-22T10:37:54.919Z</time>
      </trkpt>
      <trkpt lat="42.276538" lon="1.361110">
        <ele>629.240547</ele>
        <time>2022-05-22T10:37:56.916Z</time>
      </trkpt>
      <trkpt lat="42.276647" lon="1.361185">
        <ele>629.274922</ele>
        <time>2022-05-22T10:37:58.913Z</time>
      </trkpt>
      <trkpt lat="42.276755" lon="1.361243">
        <ele>629.307582</ele>
        <time>2022-05-22T10:38:00.917Z</time>
      </trkpt>
      <trkpt lat="42.276861" lon="1.361310">
        <ele>629.340469</ele>
        <time>2022-05-22T10:38:02.922Z</time>
      </trkpt>
      <trkpt lat="42.276961" lon="1.361377">
        <ele>629.371836</ele>
        <time>2022-05-22T10:38:04.914Z</time>
      </trkpt>
      <trkpt lat="42.277074" lon="1.361450">
        <ele>629.407034</ele>
        <time>2022-05-22T10:38:06.917Z</time>
      </trkpt>
      <trkpt lat="42.277182" lon="1.361510">
        <ele>629.439851</ele>
        <time>2022-05-22T10:38:08.919Z</time>
      </trkpt>
      <trkpt lat="42.277283" lon="1.361570">
        <ele>629.470856</ele>
        <time>2022-05-22T10:38:10.910Z</time>
      </trkpt>
      <trkpt lat="42.277397" lon="1.361618">
        <ele>629.504413</ele>
        <time>2022-05-22T10:38:12.912Z</time>
      </trkpt>
      <trkpt lat="42.277522" lon="1.361670">
        <ele>629.606987</ele>
        <time>2022-05-22T10:38:14.918Z</time>
      </trkpt>
      <trkpt lat="42.277638" lon="1.361743">
        <ele>629.774859</ele>
        <time>2022-05-22T10:38:16.915Z</time>
      </trkpt>
      <trkpt lat="42.277752" lon="1.361819">
        <ele>629.941624</ele>
        <time>2022-05-22T10:38:18.913Z</time>
      </trkpt>
      <trkpt lat="42.277873" lon="1.361894">
        <ele>630.116265</ele>
        <time>2022-05-22T10:38:20.914Z</time>
      </trkpt>
      <trkpt lat="42.277985" lon="1.361975">
        <ele>630.282915</ele>
        <time>2022-05-22T10:38:22.916Z</time>
      </trkpt>
      <trkpt lat="42.278102" lon="1.362026">
        <ele>630.444196</ele>
        <time>2022-05-22T10:38:24.914Z</time>
      </trkpt>
      <trkpt lat="42.278204" lon="1.362083">
        <ele>630.589000</ele>
        <time>2022-05-22T10:38:26.916Z</time>
      </trkpt>
      <trkpt lat="42.278315" lon="1.362145">
        <ele>630.746569</ele>
        <time>2022-05-22T10:38:28.917Z</time>
      </trkpt>
      <trkpt lat="42.278423" lon="1.362218">
        <ele>630.904988</ele>
        <time>2022-05-22T10:38:30.916Z</time>
      </trkpt>
      <trkpt lat="42.278534" lon="1.362286">
        <ele>631.064873</ele>
        <time>2022-05-22T10:38:32.916Z</time>
      </trkpt>
      <trkpt lat="42.278656" lon="1.362350">
        <ele>631.236562</ele>
        <time>2022-05-22T10:38:34.916Z</time>
      </trkpt>
      <trkpt lat="42.278782" lon="1.362432">
        <ele>631.420029</ele>
        <time>2022-05-22T10:38:36.926Z</time>
      </trkpt>
      <trkpt lat="42.278903" lon="1.362485">
        <ele>631.586901</ele>
        <time>2022-05-22T10:38:39.450Z</time>
      </trkpt>
      <trkpt lat="42.279016" lon="1.362544">
        <ele>631.745826</ele>
        <time>2022-05-22T10:38:40.907Z</time>
      </trkpt>
      <trkpt lat="42.279155" lon="1.362612">
        <ele>631.874419</ele>
        <time>2022-05-22T10:38:42.902Z</time>
      </trkpt>
      <trkpt lat="42.279274" lon="1.362701">
        <ele>631.847748</ele>
        <time>2022-05-22T10:38:44.903Z</time>
      </trkpt>
      <trkpt lat="42.279394" lon="1.362763">
        <ele>631.822555</ele>
        <time>2022-05-22T10:38:46.903Z</time>
      </trkpt>
      <trkpt lat="42.279523" lon="1.362838">
        <ele>631.795017</ele>
        <time>2022-05-22T10:38:48.906Z</time>
      </trkpt>
      <trkpt lat="42.279638" lon="1.362902">
        <ele>631.770628</ele>
        <time>2022-05-22T10:38:50.906Z</time>
      </trkpt>
      <trkpt lat="42.279745" lon="1.362949">
        <ele>631.748564</ele>
        <time>2022-05-22T10:38:52.906Z</time>
      </trkpt>
      <trkpt lat="42.279862" lon="1.363010">
        <ele>631.723972</ele>
        <time>2022-05-22T10:38:54.903Z</time>
      </trkpt>
      <trkpt lat="42.279974" lon="1.363083">
        <ele>631.699588</ele>
        <time>2022-05-22T10:38:56.903Z</time>
      </trkpt>
      <trkpt lat="42.280084" lon="1.363163">
        <ele>631.675092</ele>
        <time>2022-05-22T10:38:58.910Z</time>
      </trkpt>
      <trkpt lat="42.280191" lon="1.363231">
        <ele>631.651906</ele>
        <time>2022-05-22T10:39:00.903Z</time>
      </trkpt>
      <trkpt lat="42.280303" lon="1.363296">
        <ele>631.628003</ele>
        <time>2022-05-22T10:39:02.910Z</time>
      </trkpt>
      <trkpt lat="42.280408" lon="1.363369">
        <ele>631.604848</ele>
        <time>2022-05-22T10:39:04.902Z</time>
      </trkpt>
      <trkpt lat="42.280525" lon="1.363454">
        <ele>631.578799</ele>
        <time>2022-05-22T10:39:06.911Z</time>
      </trkpt>
      <trkpt lat="42.280635" lon="1.363529">
        <ele>631.554638</ele>
        <time>2022-05-22T10:39:08.910Z</time>
      </trkpt>
      <trkpt lat="42.280742" lon="1.363631">
        <ele>631.531656</ele>
        <time>2022-05-22T10:39:10.909Z</time>
      </trkpt>
      <trkpt lat="42.280855" lon="1.363749">
        <ele>631.564781</ele>
        <time>2022-05-22T10:39:12.911Z</time>
      </trkpt>
      <trkpt lat="42.280966" lon="1.363869">
        <ele>631.597754</ele>
        <time>2022-05-22T10:39:14.900Z</time>
      </trkpt>
      <trkpt lat="42.281069" lon="1.363995">
        <ele>631.629980</ele>
        <time>2022-05-22T10:39:16.902Z</time>
      </trkpt>
      <trkpt lat="42.281194" lon="1.364104">
        <ele>631.664488</ele>
        <time>2022-05-22T10:39:18.903Z</time>
      </trkpt>
      <trkpt lat="42.281338" lon="1.364213">
        <ele>631.702774</ele>
        <time>2022-05-22T10:39:20.906Z</time>
      </trkpt>
      <trkpt lat="42.281464" lon="1.364334">
        <ele>631.738629</ele>
        <time>2022-05-22T10:39:22.904Z</time>
      </trkpt>
      <trkpt lat="42.281564" lon="1.364465">
        <ele>631.770934</ele>
        <time>2022-05-22T10:39:24.909Z</time>
      </trkpt>
      <trkpt lat="42.281664" lon="1.364601">
        <ele>631.803842</ele>
        <time>2022-05-22T10:39:26.905Z</time>
      </trkpt>
      <trkpt lat="42.281780" lon="1.364711">
        <ele>631.836714</ele>
        <time>2022-05-22T10:39:28.908Z</time>
      </trkpt>
      <trkpt lat="42.281893" lon="1.364823">
        <ele>631.869219</ele>
        <time>2022-05-22T10:39:30.908Z</time>
      </trkpt>
      <trkpt lat="42.282007" lon="1.364920">
        <ele>631.900468</ele>
        <time>2022-05-22T10:39:32.909Z</time>
      </trkpt>
      <trkpt lat="42.282134" lon="1.365002">
        <ele>631.933118</ele>
        <time>2022-05-22T10:39:34.905Z</time>
      </trkpt>
      <trkpt lat="42.282259" lon="1.365095">
        <ele>631.862562</ele>
        <time>2022-05-22T10:39:36.907Z</time>
      </trkpt>
      <trkpt lat="42.282384" lon="1.365163">
        <ele>631.721300</ele>
        <time>2022-05-22T10:39:38.904Z</time>
      </trkpt>
      <trkpt lat="42.282522" lon="1.365235">
        <ele>631.566221</ele>
        <time>2022-05-22T10:39:40.906Z</time>
      </trkpt>
      <trkpt lat="42.282667" lon="1.365310">
        <ele>631.403457</ele>
        <time>2022-05-22T10:39:42.900Z</time>
      </trkpt>
      <trkpt lat="42.282806" lon="1.365372">
        <ele>631.250004</ele>
        <time>2022-05-22T10:39:44.900Z</time>
      </trkpt>
      <trkpt lat="42.282940" lon="1.365433">
        <ele>631.101769</ele>
        <time>2022-05-22T10:39:46.903Z</time>
      </trkpt>
      <trkpt lat="42.283079" lon="1.365518">
        <ele>630.941826</ele>
        <time>2022-05-22T10:39:48.897Z</time>
      </trkpt>
      <trkpt lat="42.283202" lon="1.365590">
        <ele>630.801304</ele>
        <time>2022-05-22T10:39:50.900Z</time>
      </trkpt>
      <trkpt lat="42.283334" lon="1.365678">
        <ele>630.647002</ele>
        <time>2022-05-22T10:39:52.905Z</time>
      </trkpt>
      <trkpt lat="42.283454" lon="1.365758">
        <ele>630.506728</ele>
        <time>2022-05-22T10:39:54.909Z</time>
      </trkpt>
      <trkpt lat="42.283586" lon="1.365822">
        <ele>630.359710</ele>
        <time>2022-05-22T10:39:56.901Z</time>
      </trkpt>
      <trkpt lat="42.283729" lon="1.365877">
        <ele>630.203842</ele>
        <time>2022-05-22T10:39:58.904Z</time>
      </trkpt>
      <trkpt lat="42.283869" lon="1.365951">
        <ele>630.055297</ele>
        <time>2022-05-22T10:40:00.909Z</time>
      </trkpt>
      <trkpt lat="42.284016" lon="1.366036">
        <ele>629.985254</ele>
        <time>2022-05-22T10:40:02.904Z</time>
      </trkpt>
      <trkpt lat="42.284163" lon="1.366106">
        <ele>629.916977</ele>
        <time>2022-05-22T10:40:04.904Z</time>
      </trkpt>
      <trkpt lat="42.284316" lon="1.366153">
        <ele>629.848242</ele>
        <time>2022-05-22T10:40:06.908Z</time>
      </trkpt>
      <trkpt lat="42.284448" lon="1.366209">
        <ele>629.787634</ele>
        <time>2022-05-22T10:40:08.905Z</time>
      </trkpt>
      <trkpt lat="42.284563" lon="1.366271">
        <ele>629.733396</ele>
        <time>2022-05-22T10:40:10.908Z</time>
      </trkpt>
      <trkpt lat="42.284677" lon="1.366322">
        <ele>629.680790</ele>
        <time>2022-05-22T10:40:12.910Z</time>
      </trkpt>
      <trkpt lat="42.284781" lon="1.366380">
        <ele>629.631505</ele>
        <time>2022-05-22T10:40:14.901Z</time>
      </trkpt>
      <trkpt lat="42.284887" lon="1.366425">
        <ele>629.582832</ele>
        <time>2022-05-22T10:40:16.905Z</time>
      </trkpt>
      <trkpt lat="42.285012" lon="1.366476">
        <ele>629.525632</ele>
        <time>2022-05-22T10:40:18.901Z</time>
      </trkpt>
      <trkpt lat="42.285125" lon="1.366518">
        <ele>629.474292</ele>
        <time>2022-05-22T10:40:20.904Z</time>
      </trkpt>
      <trkpt lat="42.285224" lon="1.366578">
        <ele>629.426762</ele>
        <time>2022-05-22T10:40:22.908Z</time>
      </trkpt>
      <trkpt lat="42.285331" lon="1.366626">
        <ele>629.377374</ele>
        <time>2022-05-22T10:40:24.901Z</time>
      </trkpt>
      <trkpt lat="42.285452" lon="1.366653">
        <ele>629.323649</ele>
        <time>2022-05-22T10:40:26.903Z</time>
      </trkpt>
      <trkpt lat="42.285561" lon="1.366665">
        <ele>629.275740</ele>
        <time>2022-05-22T10:40:28.904Z</time>
      </trkpt>
      <trkpt lat="42.285672" lon="1.366681">
        <ele>629.404765</ele>
        <time>2022-05-22T10:40:30.904Z</time>
      </trkpt>
      <trkpt lat="42.285793" lon="1.366718">
        <ele>629.556124</ele>
        <time>2022-05-22T10:40:32.902Z</time>
      </trkpt>
      <trkpt lat="42.285917" lon="1.366749">
        <ele>629.709979</ele>
        <time>2022-05-22T10:40:34.904Z</time>
      </trkpt>
      <trkpt lat="42.286031" lon="1.366775">
        <ele>629.851033</ele>
        <time>2022-05-22T10:40:36.901Z</time>
      </trkpt>
      <trkpt lat="42.286137" lon="1.366784">
        <ele>629.980616</ele>
        <time>2022-05-22T10:40:38.946Z</time>
      </trkpt>
      <trkpt lat="42.286240" lon="1.366844">
        <ele>630.117456</ele>
        <time>2022-05-22T10:40:40.904Z</time>
      </trkpt>
      <trkpt lat="42.286345" lon="1.366865">
        <ele>630.246958</ele>
        <time>2022-05-22T10:40:42.902Z</time>
      </trkpt>
      <trkpt lat="42.286449" lon="1.366858">
        <ele>630.374003</ele>
        <time>2022-05-22T10:40:44.899Z</time>
      </trkpt>
      <trkpt lat="42.286558" lon="1.366863">
        <ele>630.507067</ele>
        <time>2022-05-22T10:40:46.905Z</time>
      </trkpt>
      <trkpt lat="42.286670" lon="1.366849">
        <ele>630.644299</ele>
        <time>2022-05-22T10:40:48.907Z</time>
      </trkpt>
      <trkpt lat="42.286783" lon="1.366834">
        <ele>630.782830</ele>
        <time>2022-05-22T10:40:50.898Z</time>
      </trkpt>
      <trkpt lat="42.286890" lon="1.366816">
        <ele>630.914385</ele>
        <time>2022-05-22T10:40:52.904Z</time>
      </trkpt>
      <trkpt lat="42.287004" lon="1.366782">
        <ele>631.056819</ele>
        <time>2022-05-22T10:40:54.904Z</time>
      </trkpt>
      <trkpt lat="42.287123" lon="1.366751">
        <ele>631.204679</ele>
        <time>2022-05-22T10:40:56.902Z</time>
      </trkpt>
      <trkpt lat="42.287237" lon="1.366734">
        <ele>631.344611</ele>
        <time>2022-05-22T10:40:58.904Z</time>
      </trkpt>
      <trkpt lat="42.287352" lon="1.366712">
        <ele>631.474744</ele>
        <time>2022-05-22T10:41:00.908Z</time>
      </trkpt>
      <trkpt lat="42.287479" lon="1.366683">
        <ele>631.530824</ele>
        <time>2022-05-22T10:41:02.907Z</time>
      </trkpt>
      <trkpt lat="42.287605" lon="1.366671">
        <ele>631.585821</ele>
        <time>2022-05-22T10:41:04.908Z</time>
      </trkpt>
      <trkpt lat="42.287728" lon="1.366656">
        <ele>631.639593</ele>
        <time>2022-05-22T10:41:06.909Z</time>
      </trkpt>
      <trkpt lat="42.287853" lon="1.366652">
        <ele>631.694034</ele>
        <time>2022-05-22T10:41:08.922Z</time>
      </trkpt>
      <trkpt lat="42.287971" lon="1.366670">
        <ele>631.745738</ele>
        <time>2022-05-22T10:41:10.937Z</time>
      </trkpt>
      <trkpt lat="42.288070" lon="1.366716">
        <ele>631.791318</ele>
        <time>2022-05-22T10:41:12.903Z</time>
      </trkpt>
      <trkpt lat="42.288184" lon="1.366791">
        <ele>631.846521</ele>
        <time>2022-05-22T10:41:14.900Z</time>
      </trkpt>
      <trkpt lat="42.288308" lon="1.366860">
        <ele>631.904907</ele>
        <time>2022-05-22T10:41:16.905Z</time>
      </trkpt>
      <trkpt lat="42.288420" lon="1.366906">
        <ele>631.955873</ele>
        <time>2022-05-22T10:41:18.905Z</time>
      </trkpt>
      <trkpt lat="42.288522" lon="1.366926">
        <ele>632.000750</ele>
        <time>2022-05-22T10:41:20.910Z</time>
      </trkpt>
      <trkpt lat="42.288630" lon="1.366950">
        <ele>632.048405</ele>
        <time>2022-05-22T10:41:22.906Z</time>
      </trkpt>
      <trkpt lat="42.288740" lon="1.366991">
        <ele>632.098086</ele>
        <time>2022-05-22T10:41:24.910Z</time>
      </trkpt>
      <trkpt lat="42.288843" lon="1.367047">
        <ele>632.146425</ele>
        <time>2022-05-22T10:41:26.903Z</time>
      </trkpt>
      <trkpt lat="42.288942" lon="1.367098">
        <ele>632.192554</ele>
        <time>2022-05-22T10:41:28.925Z</time>
      </trkpt>
      <trkpt lat="42.289066" lon="1.367178">
        <ele>632.253234</ele>
        <time>2022-05-22T10:41:30.905Z</time>
      </trkpt>
      <trkpt lat="42.289182" lon="1.367267">
        <ele>632.365491</ele>
        <time>2022-05-22T10:41:32.906Z</time>
      </trkpt>
      <trkpt lat="42.289281" lon="1.367326">
        <ele>632.456549</ele>
        <time>2022-05-22T10:41:34.902Z</time>
      </trkpt>
      <trkpt lat="42.289386" lon="1.367411">
        <ele>632.559554</ele>
        <time>2022-05-22T10:41:36.906Z</time>
      </trkpt>
      <trkpt lat="42.289493" lon="1.367471">
        <ele>632.657048</ele>
        <time>2022-05-22T10:41:38.902Z</time>
      </trkpt>
      <trkpt lat="42.289604" lon="1.367551">
        <ele>632.762916</ele>
        <time>2022-05-22T10:41:40.902Z</time>
      </trkpt>
      <trkpt lat="42.289704" lon="1.367635">
        <ele>632.862004</ele>
        <time>2022-05-22T10:41:42.921Z</time>
      </trkpt>
      <trkpt lat="42.289796" lon="1.367713">
        <ele>632.953402</ele>
        <time>2022-05-22T10:41:44.902Z</time>
      </trkpt>
      <trkpt lat="42.289890" lon="1.367791">
        <ele>633.046230</ele>
        <time>2022-05-22T10:41:46.901Z</time>
      </trkpt>
      <trkpt lat="42.289979" lon="1.367871">
        <ele>633.136182</ele>
        <time>2022-05-22T10:41:48.908Z</time>
      </trkpt>
      <trkpt lat="42.290070" lon="1.367953">
        <ele>633.228225</ele>
        <time>2022-05-22T10:41:50.904Z</time>
      </trkpt>
      <trkpt lat="42.290161" lon="1.368007">
        <ele>633.311867</ele>
        <time>2022-05-22T10:41:52.901Z</time>
      </trkpt>
      <trkpt lat="42.290242" lon="1.368087">
        <ele>633.396295</ele>
        <time>2022-05-22T10:41:54.899Z</time>
      </trkpt>
      <trkpt lat="42.290334" lon="1.368148">
        <ele>633.482537</ele>
        <time>2022-05-22T10:41:56.903Z</time>
      </trkpt>
      <trkpt lat="42.290428" lon="1.368183">
        <ele>633.564595</ele>
        <time>2022-05-22T10:41:58.900Z</time>
      </trkpt>
      <trkpt lat="42.290522" lon="1.368211">
        <ele>633.645606</ele>
        <time>2022-05-22T10:42:00.903Z</time>
      </trkpt>
      <trkpt lat="42.290631" lon="1.368222">
        <ele>633.737598</ele>
        <time>2022-05-22T10:42:02.905Z</time>
      </trkpt>
      <trkpt lat="42.290755" lon="1.368237">
        <ele>633.790568</ele>
        <time>2022-05-22T10:42:04.901Z</time>
      </trkpt>
      <trkpt lat="42.290872" lon="1.368273">
        <ele>633.823729</ele>
        <time>2022-05-22T10:42:06.903Z</time>
      </trkpt>
      <trkpt lat="42.290979" lon="1.368325">
        <ele>633.855152</ele>
        <time>2022-05-22T10:42:08.909Z</time>
      </trkpt>
      <trkpt lat="42.291066" lon="1.368365">
        <ele>633.880548</ele>
        <time>2022-05-22T10:42:10.902Z</time>
      </trkpt>
      <trkpt lat="42.291202" lon="1.368369">
        <ele>633.918141</ele>
        <time>2022-05-22T10:42:13.905Z</time>
      </trkpt>
      <trkpt lat="42.291320" lon="1.368363">
        <ele>633.950775</ele>
        <time>2022-05-22T10:42:15.903Z</time>
      </trkpt>
      <trkpt lat="42.291435" lon="1.368354">
        <ele>633.982609</ele>
        <time>2022-05-22T10:42:17.901Z</time>
      </trkpt>
      <trkpt lat="42.291537" lon="1.368347">
        <ele>634.010834</ele>
        <time>2022-05-22T10:42:19.903Z</time>
      </trkpt>
      <trkpt lat="42.291647" lon="1.368329">
        <ele>634.041455</ele>
        <time>2022-05-22T10:42:21.902Z</time>
      </trkpt>
      <trkpt lat="42.291774" lon="1.368314">
        <ele>634.076686</ele>
        <time>2022-05-22T10:42:23.905Z</time>
      </trkpt>
      <trkpt lat="42.291888" lon="1.368312">
        <ele>634.108194</ele>
        <time>2022-05-22T10:42:25.906Z</time>
      </trkpt>
      <trkpt lat="42.292023" lon="1.368308">
        <ele>634.145511</ele>
        <time>2022-05-22T10:42:27.900Z</time>
      </trkpt>
      <trkpt lat="42.292174" lon="1.368281">
        <ele>634.187605</ele>
        <time>2022-05-22T10:42:29.903Z</time>
      </trkpt>
      <trkpt lat="42.292311" lon="1.368245">
        <ele>634.226174</ele>
        <time>2022-05-22T10:42:31.906Z</time>
      </trkpt>
      <trkpt lat="42.292434" lon="1.368197">
        <ele>634.261555</ele>
        <time>2022-05-22T10:42:33.905Z</time>
      </trkpt>
      <trkpt lat="42.292542" lon="1.368156">
        <ele>634.447516</ele>
        <time>2022-05-22T10:42:35.911Z</time>
      </trkpt>
      <trkpt lat="42.292635" lon="1.368117">
        <ele>634.612287</ele>
        <time>2022-05-22T10:42:37.908Z</time>
      </trkpt>
      <trkpt lat="42.292729" lon="1.368068">
        <ele>634.782769</ele>
        <time>2022-05-22T10:42:39.908Z</time>
      </trkpt>
      <trkpt lat="42.292830" lon="1.368019">
        <ele>634.964352</ele>
        <time>2022-05-22T10:42:41.907Z</time>
      </trkpt>
      <trkpt lat="42.292929" lon="1.367979">
        <ele>635.139201</ele>
        <time>2022-05-22T10:42:43.901Z</time>
      </trkpt>
      <trkpt lat="42.293033" lon="1.367939">
        <ele>635.322173</ele>
        <time>2022-05-22T10:42:46.917Z</time>
      </trkpt>
      <trkpt lat="42.293159" lon="1.367872">
        <ele>635.551289</ele>
        <time>2022-05-22T10:42:49.897Z</time>
      </trkpt>
      <trkpt lat="42.293274" lon="1.367789">
        <ele>635.771888</ele>
        <time>2022-05-22T10:42:52.905Z</time>
      </trkpt>
      <trkpt lat="42.293370" lon="1.367699">
        <ele>635.969578</ele>
        <time>2022-05-22T10:42:55.904Z</time>
      </trkpt>
      <trkpt lat="42.293457" lon="1.367606">
        <ele>636.157262</ele>
        <time>2022-05-22T10:42:58.905Z</time>
      </trkpt>
      <trkpt lat="42.293541" lon="1.367544">
        <ele>636.319212</ele>
        <time>2022-05-22T10:43:01.904Z</time>
      </trkpt>
      <trkpt lat="42.293630" lon="1.367477">
        <ele>636.491593</ele>
        <time>2022-05-22T10:43:04.905Z</time>
      </trkpt>
      <trkpt lat="42.293732" lon="1.367384">
        <ele>636.699783</ele>
        <time>2022-05-22T10:43:07.910Z</time>
      </trkpt>
      <trkpt lat="42.293824" lon="1.367307">
        <ele>636.882885</ele>
        <time>2022-05-22T10:43:10.905Z</time>
      </trkpt>
      <trkpt lat="42.293916" lon="1.367247">
        <ele>637.055735</ele>
        <time>2022-05-22T10:43:13.903Z</time>
      </trkpt>
      <trkpt lat="42.294020" lon="1.367170">
        <ele>637.256386</ele>
        <time>2022-05-22T10:43:16.907Z</time>
      </trkpt>
      <trkpt lat="42.294119" lon="1.367102">
        <ele>637.293351</ele>
        <time>2022-05-22T10:43:20.904Z</time>
      </trkpt>
      <trkpt lat="42.294196" lon="1.367038">
        <ele>637.279419</ele>
        <time>2022-05-22T10:43:23.899Z</time>
      </trkpt>
      <trkpt lat="42.294288" lon="1.366947">
        <ele>637.261848</ele>
        <time>2022-05-22T10:43:26.908Z</time>
      </trkpt>
      <trkpt lat="42.294368" lon="1.366880">
        <ele>637.247343</ele>
        <time>2022-05-22T10:43:28.899Z</time>
      </trkpt>
      <trkpt lat="42.294482" lon="1.366798">
        <ele>637.227439</ele>
        <time>2022-05-22T10:43:31.909Z</time>
      </trkpt>
      <trkpt lat="42.294596" lon="1.366736">
        <ele>637.208499</ele>
        <time>2022-05-22T10:43:34.904Z</time>
      </trkpt>
      <trkpt lat="42.294708" lon="1.366637">
        <ele>637.187874</ele>
        <time>2022-05-22T10:43:37.905Z</time>
      </trkpt>
      <trkpt lat="42.294808" lon="1.366546">
        <ele>637.169293</ele>
        <time>2022-05-22T10:43:40.898Z</time>
      </trkpt>
      <trkpt lat="42.294909" lon="1.366455">
        <ele>637.150585</ele>
        <time>2022-05-22T10:43:43.903Z</time>
      </trkpt>
      <trkpt lat="42.294971" lon="1.366366">
        <ele>637.136646</ele>
        <time>2022-05-22T10:43:45.908Z</time>
      </trkpt>
      <trkpt lat="42.295064" lon="1.366278">
        <ele>637.119149</ele>
        <time>2022-05-22T10:43:48.908Z</time>
      </trkpt>
      <trkpt lat="42.295153" lon="1.366191">
        <ele>637.102221</ele>
        <time>2022-05-22T10:43:52.905Z</time>
      </trkpt>
      <trkpt lat="42.295219" lon="1.366062">
        <ele>637.084338</ele>
        <time>2022-05-22T10:43:55.904Z</time>
      </trkpt>
      <trkpt lat="42.295312" lon="1.365980">
        <ele>637.067224</ele>
        <time>2022-05-22T10:43:58.901Z</time>
      </trkpt>
      <trkpt lat="42.295400" lon="1.365939">
        <ele>637.052877</ele>
        <time>2022-05-22T10:44:02.904Z</time>
      </trkpt>
      <trkpt lat="42.295452" lon="1.365728">
        <ele>637.102941</ele>
        <time>2022-05-22T10:46:28.905Z</time>
      </trkpt>
      <trkpt lat="42.295585" lon="1.365934">
        <ele>639.036231</ele>
        <time>2022-05-22T10:47:13.995Z</time>
      </trkpt>
      <trkpt lat="42.295685" lon="1.366001">
        <ele>640.103043</ele>
        <time>2022-05-22T10:47:16.911Z</time>
      </trkpt>
      <trkpt lat="42.295688" lon="1.365879">
        <ele>640.966106</ele>
        <time>2022-05-22T10:47:38.986Z</time>
      </trkpt>
      <trkpt lat="42.295576" lon="1.365825">
        <ele>642.102721</ele>
        <time>2022-05-22T10:47:54.918Z</time>
      </trkpt>
      <trkpt lat="42.295640" lon="1.365992">
        <ele>643.432542</ele>
        <time>2022-05-22T10:52:34.898Z</time>
      </trkpt>
      <trkpt lat="42.295557" lon="1.365942">
        <ele>644.301111</ele>
        <time>2022-05-22T10:52:49.901Z</time>
      </trkpt>
      <trkpt lat="42.295565" lon="1.365781">
        <ele>645.442010</ele>
        <time>2022-05-22T10:53:46.902Z</time>
      </trkpt>
      <trkpt lat="42.295487" lon="1.365710">
        <ele>646.340834</ele>
        <time>2022-05-22T10:53:54.901Z</time>
      </trkpt>
      <trkpt lat="42.295390" lon="1.365631">
        <ele>647.423274</ele>
        <time>2022-05-22T10:53:59.899Z</time>
      </trkpt>
      <trkpt lat="42.295613" lon="1.365662">
        <ele>649.566097</ele>
        <time>2022-05-22T10:55:57.895Z</time>
      </trkpt>
      <trkpt lat="42.295585" lon="1.365788">
        <ele>650.496301</ele>
        <time>2022-05-22T10:56:01.879Z</time>
      </trkpt>
      <trkpt lat="42.295655" lon="1.365548">
        <ele>652.320348</ele>
        <time>2022-05-22T10:56:06.887Z</time>
      </trkpt>
      <trkpt lat="42.295564" lon="1.366086">
        <ele>652.575114</ele>
        <time>2022-05-22T10:56:52.912Z</time>
      </trkpt>
      <trkpt lat="42.295473" lon="1.366113">
        <ele>651.842471</ele>
        <time>2022-05-22T10:57:01.898Z</time>
      </trkpt>
      <trkpt lat="42.295514" lon="1.365963">
        <ele>650.912289</ele>
        <time>2022-05-22T10:58:28.891Z</time>
      </trkpt>
      <trkpt lat="42.295614" lon="1.366026">
        <ele>650.044709</ele>
        <time>2022-05-22T10:59:28.911Z</time>
      </trkpt>
      <trkpt lat="42.295532" lon="1.365957">
        <ele>649.285168</ele>
        <time>2022-05-22T11:04:51.903Z</time>
      </trkpt>
      <trkpt lat="42.295315" lon="1.365985">
        <ele>647.570955</ele>
        <time>2022-05-22T11:05:58.910Z</time>
      </trkpt>
      <trkpt lat="42.295288" lon="1.365868">
        <ele>646.858038</ele>
        <time>2022-05-22T11:06:02.904Z</time>
      </trkpt>
      <trkpt lat="42.295366" lon="1.365776">
        <ele>646.044025</ele>
        <time>2022-05-22T11:06:05.900Z</time>
      </trkpt>
      <trkpt lat="42.295462" lon="1.365659">
        <ele>645.027616</ele>
        <time>2022-05-22T11:06:08.908Z</time>
      </trkpt>
      <trkpt lat="42.295554" lon="1.365577">
        <ele>644.161058</ele>
        <time>2022-05-22T11:06:11.910Z</time>
      </trkpt>
      <trkpt lat="42.295666" lon="1.365475">
        <ele>643.099105</ele>
        <time>2022-05-22T11:06:14.910Z</time>
      </trkpt>
      <trkpt lat="42.295749" lon="1.365378">
        <ele>642.236337</ele>
        <time>2022-05-22T11:06:17.910Z</time>
      </trkpt>
      <trkpt lat="42.295833" lon="1.365265">
        <ele>641.304469</ele>
        <time>2022-05-22T11:06:20.910Z</time>
      </trkpt>
      <trkpt lat="42.295925" lon="1.365150">
        <ele>640.319137</ele>
        <time>2022-05-22T11:06:23.904Z</time>
      </trkpt>
      <trkpt lat="42.296006" lon="1.365073">
        <ele>640.083375</ele>
        <time>2022-05-22T11:06:25.905Z</time>
      </trkpt>
      <trkpt lat="42.296104" lon="1.364953">
        <ele>640.095592</ele>
        <time>2022-05-22T11:06:28.904Z</time>
      </trkpt>
      <trkpt lat="42.296180" lon="1.364886">
        <ele>640.103976</ele>
        <time>2022-05-22T11:06:30.905Z</time>
      </trkpt>
      <trkpt lat="42.296261" lon="1.364831">
        <ele>640.112351</ele>
        <time>2022-05-22T11:06:32.907Z</time>
      </trkpt>
      <trkpt lat="42.296365" lon="1.364752">
        <ele>640.123373</ele>
        <time>2022-05-22T11:06:35.908Z</time>
      </trkpt>
      <trkpt lat="42.296450" lon="1.364663">
        <ele>640.133307</ele>
        <time>2022-05-22T11:06:37.899Z</time>
      </trkpt>
      <trkpt lat="42.296563" lon="1.364571">
        <ele>640.145495</ele>
        <time>2022-05-22T11:06:40.910Z</time>
      </trkpt>
      <trkpt lat="42.296645" lon="1.364513">
        <ele>640.154046</ele>
        <time>2022-05-22T11:06:42.905Z</time>
      </trkpt>
      <trkpt lat="42.296728" lon="1.364454">
        <ele>640.162710</ele>
        <time>2022-05-22T11:06:44.904Z</time>
      </trkpt>
      <trkpt lat="42.296818" lon="1.364404">
        <ele>640.171701</ele>
        <time>2022-05-22T11:06:46.911Z</time>
      </trkpt>
      <trkpt lat="42.296903" lon="1.364356">
        <ele>640.180212</ele>
        <time>2022-05-22T11:06:48.907Z</time>
      </trkpt>
      <trkpt lat="42.296993" lon="1.364313">
        <ele>640.189032</ele>
        <time>2022-05-22T11:06:50.909Z</time>
      </trkpt>
      <trkpt lat="42.297093" lon="1.364293">
        <ele>640.198372</ele>
        <time>2022-05-22T11:06:52.903Z</time>
      </trkpt>
      <trkpt lat="42.297207" lon="1.364274">
        <ele>640.208985</ele>
        <time>2022-05-22T11:06:54.900Z</time>
      </trkpt>
      <trkpt lat="42.297325" lon="1.364239">
        <ele>640.220148</ele>
        <time>2022-05-22T11:06:56.898Z</time>
      </trkpt>
      <trkpt lat="42.297440" lon="1.364205">
        <ele>640.231024</ele>
        <time>2022-05-22T11:06:58.897Z</time>
      </trkpt>
      <trkpt lat="42.297547" lon="1.364202">
        <ele>640.240913</ele>
        <time>2022-05-22T11:07:00.907Z</time>
      </trkpt>
      <trkpt lat="42.297654" lon="1.364213">
        <ele>640.119568</ele>
        <time>2022-05-22T11:07:02.900Z</time>
      </trkpt>
      <trkpt lat="42.297777" lon="1.364244">
        <ele>639.930602</ele>
        <time>2022-05-22T11:07:04.902Z</time>
      </trkpt>
      <trkpt lat="42.297898" lon="1.364265">
        <ele>639.746357</ele>
        <time>2022-05-22T11:07:06.901Z</time>
      </trkpt>
      <trkpt lat="42.298028" lon="1.364288">
        <ele>639.548345</ele>
        <time>2022-05-22T11:07:08.904Z</time>
      </trkpt>
      <trkpt lat="42.298163" lon="1.364324">
        <ele>639.340528</ele>
        <time>2022-05-22T11:07:10.911Z</time>
      </trkpt>
      <trkpt lat="42.298268" lon="1.364364">
        <ele>639.175772</ele>
        <time>2022-05-22T11:07:12.900Z</time>
      </trkpt>
      <trkpt lat="42.298366" lon="1.364421">
        <ele>639.014648</ele>
        <time>2022-05-22T11:07:14.905Z</time>
      </trkpt>
      <trkpt lat="42.298481" lon="1.364480">
        <ele>638.828880</ele>
        <time>2022-05-22T11:07:16.902Z</time>
      </trkpt>
      <trkpt lat="42.298594" lon="1.364548">
        <ele>638.642075</ele>
        <time>2022-05-22T11:07:18.901Z</time>
      </trkpt>
      <trkpt lat="42.298717" lon="1.364628">
        <ele>638.435931</ele>
        <time>2022-05-22T11:07:20.906Z</time>
      </trkpt>
      <trkpt lat="42.298835" lon="1.364709">
        <ele>638.236062</ele>
        <time>2022-05-22T11:07:22.906Z</time>
      </trkpt>
      <trkpt lat="42.298943" lon="1.364811">
        <ele>638.037095</ele>
        <time>2022-05-22T11:07:24.906Z</time>
      </trkpt>
      <trkpt lat="42.299046" lon="1.364943">
        <ele>637.822755</ele>
        <time>2022-05-22T11:07:26.904Z</time>
      </trkpt>
      <trkpt lat="42.299138" lon="1.365076">
        <ele>637.619335</ele>
        <time>2022-05-22T11:07:28.907Z</time>
      </trkpt>
      <trkpt lat="42.299220" lon="1.365206">
        <ele>637.607185</ele>
        <time>2022-05-22T11:07:30.902Z</time>
      </trkpt>
      <trkpt lat="42.299307" lon="1.365321">
        <ele>637.757469</ele>
        <time>2022-05-22T11:07:32.903Z</time>
      </trkpt>
      <trkpt lat="42.299414" lon="1.365416">
        <ele>637.915582</ele>
        <time>2022-05-22T11:07:34.898Z</time>
      </trkpt>
      <trkpt lat="42.299520" lon="1.365496">
        <ele>638.065527</ele>
        <time>2022-05-22T11:07:36.905Z</time>
      </trkpt>
      <trkpt lat="42.299619" lon="1.365587">
        <ele>638.213392</ele>
        <time>2022-05-22T11:07:38.905Z</time>
      </trkpt>
      <trkpt lat="42.299725" lon="1.365682">
        <ele>638.370473</ele>
        <time>2022-05-22T11:07:40.908Z</time>
      </trkpt>
      <trkpt lat="42.299813" lon="1.365807">
        <ele>638.528129</ele>
        <time>2022-05-22T11:07:42.904Z</time>
      </trkpt>
      <trkpt lat="42.299904" lon="1.365927">
        <ele>638.685139</ele>
        <time>2022-05-22T11:07:44.909Z</time>
      </trkpt>
      <trkpt lat="42.300010" lon="1.366039">
        <ele>638.851306</ele>
        <time>2022-05-22T11:07:46.903Z</time>
      </trkpt>
      <trkpt lat="42.300114" lon="1.366147">
        <ele>639.013281</ele>
        <time>2022-05-22T11:07:48.910Z</time>
      </trkpt>
      <trkpt lat="42.300217" lon="1.366242">
        <ele>639.167287</ele>
        <time>2022-05-22T11:07:50.907Z</time>
      </trkpt>
      <trkpt lat="42.300333" lon="1.366329">
        <ele>639.331134</ele>
        <time>2022-05-22T11:07:52.908Z</time>
      </trkpt>
      <trkpt lat="42.300430" lon="1.366423">
        <ele>639.478543</ele>
        <time>2022-05-22T11:07:54.905Z</time>
      </trkpt>
      <trkpt lat="42.300522" lon="1.366533">
        <ele>639.630238</ele>
        <time>2022-05-22T11:07:56.903Z</time>
      </trkpt>
      <trkpt lat="42.300608" lon="1.366642">
        <ele>639.749712</ele>
        <time>2022-05-22T11:07:58.901Z</time>
      </trkpt>
      <trkpt lat="42.300697" lon="1.366731">
        <ele>639.756205</ele>
        <time>2022-05-22T11:08:00.905Z</time>
      </trkpt>
      <trkpt lat="42.300799" lon="1.366806">
        <ele>639.763016</ele>
        <time>2022-05-22T11:08:02.901Z</time>
      </trkpt>
      <trkpt lat="42.300919" lon="1.366877">
        <ele>639.770700</ele>
        <time>2022-05-22T11:08:04.905Z</time>
      </trkpt>
      <trkpt lat="42.301033" lon="1.366947">
        <ele>639.778044</ele>
        <time>2022-05-22T11:08:06.902Z</time>
      </trkpt>
      <trkpt lat="42.301149" lon="1.367022">
        <ele>639.785587</ele>
        <time>2022-05-22T11:08:08.904Z</time>
      </trkpt>
      <trkpt lat="42.301267" lon="1.367090">
        <ele>639.793111</ele>
        <time>2022-05-22T11:08:10.902Z</time>
      </trkpt>
      <trkpt lat="42.301368" lon="1.367140">
        <ele>639.799421</ele>
        <time>2022-05-22T11:08:12.909Z</time>
      </trkpt>
      <trkpt lat="42.301480" lon="1.367177">
        <ele>639.806184</ele>
        <time>2022-05-22T11:08:14.901Z</time>
      </trkpt>
      <trkpt lat="42.301595" lon="1.367208">
        <ele>639.813062</ele>
        <time>2022-05-22T11:08:16.904Z</time>
      </trkpt>
      <trkpt lat="42.301703" lon="1.367237">
        <ele>639.819521</ele>
        <time>2022-05-22T11:08:18.907Z</time>
      </trkpt>
      <trkpt lat="42.301823" lon="1.367273">
        <ele>639.826732</ele>
        <time>2022-05-22T11:08:20.900Z</time>
      </trkpt>
      <trkpt lat="42.301945" lon="1.367345">
        <ele>639.834540</ele>
        <time>2022-05-22T11:08:22.906Z</time>
      </trkpt>
      <trkpt lat="42.302055" lon="1.367433">
        <ele>639.842038</ele>
        <time>2022-05-22T11:08:24.902Z</time>
      </trkpt>
      <trkpt lat="42.302169" lon="1.367510">
        <ele>639.849513</ele>
        <time>2022-05-22T11:08:26.904Z</time>
      </trkpt>
      <trkpt lat="42.302292" lon="1.367588">
        <ele>640.021052</ele>
        <time>2022-05-22T11:08:28.904Z</time>
      </trkpt>
      <trkpt lat="42.302416" lon="1.367680">
        <ele>640.410018</ele>
        <time>2022-05-22T11:08:30.902Z</time>
      </trkpt>
      <trkpt lat="42.302535" lon="1.367761">
        <ele>640.776397</ele>
        <time>2022-05-22T11:08:32.901Z</time>
      </trkpt>
      <trkpt lat="42.302655" lon="1.367836">
        <ele>641.139947</ele>
        <time>2022-05-22T11:08:34.910Z</time>
      </trkpt>
      <trkpt lat="42.302771" lon="1.367917">
        <ele>641.498976</ele>
        <time>2022-05-22T11:08:36.901Z</time>
      </trkpt>
      <trkpt lat="42.302897" lon="1.367962">
        <ele>641.857359</ele>
        <time>2022-05-22T11:08:38.901Z</time>
      </trkpt>
      <trkpt lat="42.303027" lon="1.367999">
        <ele>642.222693</ele>
        <time>2022-05-22T11:08:40.899Z</time>
      </trkpt>
      <trkpt lat="42.303147" lon="1.368044">
        <ele>642.565150</ele>
        <time>2022-05-22T11:08:42.905Z</time>
      </trkpt>
      <trkpt lat="42.303259" lon="1.368105">
        <ele>642.897198</ele>
        <time>2022-05-22T11:08:44.905Z</time>
      </trkpt>
      <trkpt lat="42.303364" lon="1.368175">
        <ele>643.219139</ele>
        <time>2022-05-22T11:08:46.903Z</time>
      </trkpt>
      <trkpt lat="42.303473" lon="1.368253">
        <ele>643.558281</ele>
        <time>2022-05-22T11:08:48.905Z</time>
      </trkpt>
      <trkpt lat="42.303584" lon="1.368333">
        <ele>643.904188</ele>
        <time>2022-05-22T11:08:50.904Z</time>
      </trkpt>
      <trkpt lat="42.303690" lon="1.368405">
        <ele>644.230403</ele>
        <time>2022-05-22T11:08:52.909Z</time>
      </trkpt>
      <trkpt lat="42.303790" lon="1.368478">
        <ele>644.542922</ele>
        <time>2022-05-22T11:08:54.904Z</time>
      </trkpt>
      <trkpt lat="42.303884" lon="1.368559">
        <ele>644.872312</ele>
        <time>2022-05-22T11:08:56.907Z</time>
      </trkpt>
      <trkpt lat="42.303975" lon="1.368618">
        <ele>645.278580</ele>
        <time>2022-05-22T11:08:58.907Z</time>
      </trkpt>
      <trkpt lat="42.304072" lon="1.368677">
        <ele>645.706754</ele>
        <time>2022-05-22T11:09:00.900Z</time>
      </trkpt>
      <trkpt lat="42.304169" lon="1.368744">
        <ele>646.145238</ele>
        <time>2022-05-22T11:09:02.897Z</time>
      </trkpt>
      <trkpt lat="42.304268" lon="1.368803">
        <ele>646.580767</ele>
        <time>2022-05-22T11:09:04.903Z</time>
      </trkpt>
      <trkpt lat="42.304352" lon="1.368907">
        <ele>647.039263</ele>
        <time>2022-05-22T11:09:06.903Z</time>
      </trkpt>
      <trkpt lat="42.304439" lon="1.369009">
        <ele>647.502815</ele>
        <time>2022-05-22T11:09:08.900Z</time>
      </trkpt>
      <trkpt lat="42.304529" lon="1.369093">
        <ele>647.943052</ele>
        <time>2022-05-22T11:09:10.907Z</time>
      </trkpt>
      <trkpt lat="42.304617" lon="1.369175">
        <ele>648.373280</ele>
        <time>2022-05-22T11:09:12.911Z</time>
      </trkpt>
      <trkpt lat="42.304695" lon="1.369274">
        <ele>648.803942</ele>
        <time>2022-05-22T11:09:14.909Z</time>
      </trkpt>
      <trkpt lat="42.304777" lon="1.369386">
        <ele>649.273148</ele>
        <time>2022-05-22T11:09:16.903Z</time>
      </trkpt>
      <trkpt lat="42.304870" lon="1.369481">
        <ele>649.742357</ele>
        <time>2022-05-22T11:09:18.904Z</time>
      </trkpt>
      <trkpt lat="42.304954" lon="1.369574">
        <ele>650.179403</ele>
        <time>2022-05-22T11:09:20.905Z</time>
      </trkpt>
      <trkpt lat="42.305040" lon="1.369669">
        <ele>650.626451</ele>
        <time>2022-05-22T11:09:22.903Z</time>
      </trkpt>
      <trkpt lat="42.305114" lon="1.369768">
        <ele>651.045516</ele>
        <time>2022-05-22T11:09:24.906Z</time>
      </trkpt>
      <trkpt lat="42.305198" lon="1.369896">
        <ele>651.554996</ele>
        <time>2022-05-22T11:09:27.909Z</time>
      </trkpt>
      <trkpt lat="42.305277" lon="1.370019">
        <ele>652.040010</ele>
        <time>2022-05-22T11:09:30.906Z</time>
      </trkpt>
      <trkpt lat="42.305376" lon="1.370106">
        <ele>652.562093</ele>
        <time>2022-05-22T11:09:33.903Z</time>
      </trkpt>
      <trkpt lat="42.305478" lon="1.370205">
        <ele>653.117359</ele>
        <time>2022-05-22T11:09:36.906Z</time>
      </trkpt>
      <trkpt lat="42.305563" lon="1.370301">
        <ele>653.607144</ele>
        <time>2022-05-22T11:09:39.905Z</time>
      </trkpt>
      <trkpt lat="42.305658" lon="1.370402">
        <ele>654.141586</ele>
        <time>2022-05-22T11:09:42.908Z</time>
      </trkpt>
      <trkpt lat="42.305747" lon="1.370506">
        <ele>654.661793</ele>
        <time>2022-05-22T11:09:45.908Z</time>
      </trkpt>
      <trkpt lat="42.305818" lon="1.370628">
        <ele>655.169539</ele>
        <time>2022-05-22T11:09:48.910Z</time>
      </trkpt>
      <trkpt lat="42.305896" lon="1.370747">
        <ele>655.689606</ele>
        <time>2022-05-22T11:09:51.905Z</time>
      </trkpt>
      <trkpt lat="42.305980" lon="1.370845">
        <ele>656.180251</ele>
        <time>2022-05-22T11:09:54.905Z</time>
      </trkpt>
      <trkpt lat="42.306078" lon="1.370947">
        <ele>656.727172</ele>
        <time>2022-05-22T11:09:57.903Z</time>
      </trkpt>
      <trkpt lat="42.306161" lon="1.371048">
        <ele>657.220986</ele>
        <time>2022-05-22T11:10:00.903Z</time>
      </trkpt>
      <trkpt lat="42.306253" lon="1.371166">
        <ele>657.781770</ele>
        <time>2022-05-22T11:10:03.906Z</time>
      </trkpt>
      <trkpt lat="42.306338" lon="1.371269">
        <ele>658.286535</ele>
        <time>2022-05-22T11:10:06.902Z</time>
      </trkpt>
      <trkpt lat="42.306432" lon="1.371371">
        <ele>658.819546</ele>
        <time>2022-05-22T11:10:09.904Z</time>
      </trkpt>
      <trkpt lat="42.306516" lon="1.371459">
        <ele>659.289477</ele>
        <time>2022-05-22T11:10:12.902Z</time>
      </trkpt>
      <trkpt lat="42.306603" lon="1.371543">
        <ele>659.762243</ele>
        <time>2022-05-22T11:10:15.908Z</time>
      </trkpt>
      <trkpt lat="42.306694" lon="1.371640">
        <ele>660.153896</ele>
        <time>2022-05-22T11:10:18.910Z</time>
      </trkpt>
      <trkpt lat="42.306772" lon="1.371739">
        <ele>660.422596</ele>
        <time>2022-05-22T11:10:21.912Z</time>
      </trkpt>
      <trkpt lat="42.306842" lon="1.371843">
        <ele>660.683809</ele>
        <time>2022-05-22T11:10:24.904Z</time>
      </trkpt>
      <trkpt lat="42.306916" lon="1.371937">
        <ele>660.938827</ele>
        <time>2022-05-22T11:10:27.910Z</time>
      </trkpt>
      <trkpt lat="42.306978" lon="1.372036">
        <ele>661.179800</ele>
        <time>2022-05-22T11:10:30.905Z</time>
      </trkpt>
      <trkpt lat="42.307033" lon="1.372141">
        <ele>661.418807</ele>
        <time>2022-05-22T11:10:33.911Z</time>
      </trkpt>
      <trkpt lat="42.307089" lon="1.372243">
        <ele>661.654777</ele>
        <time>2022-05-22T11:10:36.905Z</time>
      </trkpt>
      <trkpt lat="42.307134" lon="1.372349">
        <ele>661.881809</ele>
        <time>2022-05-22T11:10:39.902Z</time>
      </trkpt>
      <trkpt lat="42.307181" lon="1.372499">
        <ele>662.184414</ele>
        <time>2022-05-22T11:10:43.902Z</time>
      </trkpt>
      <trkpt lat="42.307224" lon="1.372622">
        <ele>662.437130</ele>
        <time>2022-05-22T11:10:46.909Z</time>
      </trkpt>
      <trkpt lat="42.307252" lon="1.372760">
        <ele>662.702940</ele>
        <time>2022-05-22T11:10:49.903Z</time>
      </trkpt>
      <trkpt lat="42.307288" lon="1.372885">
        <ele>662.952115</ele>
        <time>2022-05-22T11:10:52.905Z</time>
      </trkpt>
      <trkpt lat="42.307328" lon="1.372995">
        <ele>663.179806</ele>
        <time>2022-05-22T11:10:55.905Z</time>
      </trkpt>
      <trkpt lat="42.307359" lon="1.373113">
        <ele>663.412412</ele>
        <time>2022-05-22T11:10:58.910Z</time>
      </trkpt>
      <trkpt lat="42.307399" lon="1.373222">
        <ele>663.638438</ele>
        <time>2022-05-22T11:11:01.907Z</time>
      </trkpt>
      <trkpt lat="42.307456" lon="1.373361">
        <ele>663.933669</ele>
        <time>2022-05-22T11:11:05.908Z</time>
      </trkpt>
      <trkpt lat="42.307493" lon="1.373480">
        <ele>664.173454</ele>
        <time>2022-05-22T11:11:08.903Z</time>
      </trkpt>
      <trkpt lat="42.307549" lon="1.373615">
        <ele>664.460972</ele>
        <time>2022-05-22T11:11:12.912Z</time>
      </trkpt>
      <trkpt lat="42.307616" lon="1.373750">
        <ele>665.195479</ele>
        <time>2022-05-22T11:11:16.913Z</time>
      </trkpt>
      <trkpt lat="42.307681" lon="1.373855">
        <ele>665.889503</ele>
        <time>2022-05-22T11:11:19.915Z</time>
      </trkpt>
      <trkpt lat="42.307756" lon="1.373937">
        <ele>666.550516</ele>
        <time>2022-05-22T11:11:22.906Z</time>
      </trkpt>
      <trkpt lat="42.307827" lon="1.374028">
        <ele>667.220967</ele>
        <time>2022-05-22T11:11:25.906Z</time>
      </trkpt>
      <trkpt lat="42.307904" lon="1.374119">
        <ele>667.921833</ele>
        <time>2022-05-22T11:11:28.909Z</time>
      </trkpt>
      <trkpt lat="42.307978" lon="1.374222">
        <ele>668.649665</ele>
        <time>2022-05-22T11:11:31.904Z</time>
      </trkpt>
      <trkpt lat="42.308044" lon="1.374326">
        <ele>669.344251</ele>
        <time>2022-05-22T11:11:34.904Z</time>
      </trkpt>
      <trkpt lat="42.308111" lon="1.374424">
        <ele>670.020683</ele>
        <time>2022-05-22T11:11:37.901Z</time>
      </trkpt>
      <trkpt lat="42.308177" lon="1.374510">
        <ele>670.648850</ele>
        <time>2022-05-22T11:11:40.902Z</time>
      </trkpt>
      <trkpt lat="42.308248" lon="1.374598">
        <ele>671.308931</ele>
        <time>2022-05-22T11:11:43.906Z</time>
      </trkpt>
      <trkpt lat="42.308313" lon="1.374693">
        <ele>671.964893</ele>
        <time>2022-05-22T11:11:46.913Z</time>
      </trkpt>
      <trkpt lat="42.308395" lon="1.374789">
        <ele>672.708244</ele>
        <time>2022-05-22T11:11:49.907Z</time>
      </trkpt>
      <trkpt lat="42.308482" lon="1.374898">
        <ele>673.521090</ele>
        <time>2022-05-22T11:11:52.923Z</time>
      </trkpt>
      <trkpt lat="42.308579" lon="1.375018">
        <ele>674.422117</ele>
        <time>2022-05-22T11:11:55.905Z</time>
      </trkpt>
      <trkpt lat="42.308655" lon="1.375107">
        <ele>675.111156</ele>
        <time>2022-05-22T11:11:57.910Z</time>
      </trkpt>
      <trkpt lat="42.308733" lon="1.375194">
        <ele>675.804120</ele>
        <time>2022-05-22T11:11:59.906Z</time>
      </trkpt>
      <trkpt lat="42.308813" lon="1.375291">
        <ele>676.540534</ele>
        <time>2022-05-22T11:12:01.907Z</time>
      </trkpt>
      <trkpt lat="42.308895" lon="1.375387">
        <ele>677.073520</ele>
        <time>2022-05-22T11:12:03.906Z</time>
      </trkpt>
      <trkpt lat="42.308984" lon="1.375488">
        <ele>677.492692</ele>
        <time>2022-05-22T11:12:05.903Z</time>
      </trkpt>
      <trkpt lat="42.309063" lon="1.375587">
        <ele>677.881269</ele>
        <time>2022-05-22T11:12:07.907Z</time>
      </trkpt>
      <trkpt lat="42.309141" lon="1.375692">
        <ele>678.278334</ele>
        <time>2022-05-22T11:12:09.905Z</time>
      </trkpt>
      <trkpt lat="42.309224" lon="1.375785">
        <ele>678.667211</ele>
        <time>2022-05-22T11:12:11.905Z</time>
      </trkpt>
      <trkpt lat="42.309304" lon="1.375877">
        <ele>679.046083</ele>
        <time>2022-05-22T11:12:13.907Z</time>
      </trkpt>
      <trkpt lat="42.309395" lon="1.375979">
        <ele>679.472504</ele>
        <time>2022-05-22T11:12:15.905Z</time>
      </trkpt>
      <trkpt lat="42.309478" lon="1.376081">
        <ele>679.877123</ele>
        <time>2022-05-22T11:12:17.906Z</time>
      </trkpt>
      <trkpt lat="42.309567" lon="1.376187">
        <ele>680.304990</ele>
        <time>2022-05-22T11:12:19.903Z</time>
      </trkpt>
      <trkpt lat="42.309657" lon="1.376290">
        <ele>680.730358</ele>
        <time>2022-05-22T11:12:21.906Z</time>
      </trkpt>
      <trkpt lat="42.309745" lon="1.376386">
        <ele>681.138265</ele>
        <time>2022-05-22T11:12:23.908Z</time>
      </trkpt>
      <trkpt lat="42.309833" lon="1.376480">
        <ele>681.542843</ele>
        <time>2022-05-22T11:12:25.901Z</time>
      </trkpt>
      <trkpt lat="42.309926" lon="1.376587">
        <ele>681.983366</ele>
        <time>2022-05-22T11:12:27.907Z</time>
      </trkpt>
      <trkpt lat="42.310016" lon="1.376680">
        <ele>682.392005</ele>
        <time>2022-05-22T11:12:29.906Z</time>
      </trkpt>
      <trkpt lat="42.310112" lon="1.376770">
        <ele>682.813434</ele>
        <time>2022-05-22T11:12:31.906Z</time>
      </trkpt>
      <trkpt lat="42.310207" lon="1.376860">
        <ele>683.231903</ele>
        <time>2022-05-22T11:12:33.902Z</time>
      </trkpt>
      <trkpt lat="42.310302" lon="1.376955">
        <ele>683.528919</ele>
        <time>2022-05-22T11:12:35.911Z</time>
      </trkpt>
      <trkpt lat="42.310399" lon="1.377052">
        <ele>683.793461</ele>
        <time>2022-05-22T11:12:37.900Z</time>
      </trkpt>
      <trkpt lat="42.310497" lon="1.377142">
        <ele>684.053227</ele>
        <time>2022-05-22T11:12:39.908Z</time>
      </trkpt>
      <trkpt lat="42.310593" lon="1.377232">
        <ele>684.309376</ele>
        <time>2022-05-22T11:12:41.902Z</time>
      </trkpt>
      <trkpt lat="42.310696" lon="1.377335">
        <ele>684.590282</ele>
        <time>2022-05-22T11:12:43.905Z</time>
      </trkpt>
      <trkpt lat="42.310797" lon="1.377421">
        <ele>684.852002</ele>
        <time>2022-05-22T11:12:45.903Z</time>
      </trkpt>
      <trkpt lat="42.310893" lon="1.377498">
        <ele>685.096754</ele>
        <time>2022-05-22T11:12:47.905Z</time>
      </trkpt>
      <trkpt lat="42.310986" lon="1.377580">
        <ele>685.340204</ele>
        <time>2022-05-22T11:12:49.904Z</time>
      </trkpt>
      <trkpt lat="42.311082" lon="1.377665">
        <ele>685.591822</ele>
        <time>2022-05-22T11:12:51.908Z</time>
      </trkpt>
      <trkpt lat="42.311176" lon="1.377754">
        <ele>685.843445</ele>
        <time>2022-05-22T11:12:53.908Z</time>
      </trkpt>
      <trkpt lat="42.311273" lon="1.377834">
        <ele>686.092584</ele>
        <time>2022-05-22T11:12:55.896Z</time>
      </trkpt>
      <trkpt lat="42.311372" lon="1.377922">
        <ele>686.352370</ele>
        <time>2022-05-22T11:12:57.910Z</time>
      </trkpt>
      <trkpt lat="42.311468" lon="1.378010">
        <ele>686.606684</ele>
        <time>2022-05-22T11:12:59.907Z</time>
      </trkpt>
      <trkpt lat="42.311557" lon="1.378078">
        <ele>686.830838</ele>
        <time>2022-05-22T11:13:01.904Z</time>
      </trkpt>
      <trkpt lat="42.311649" lon="1.378145">
        <ele>687.059970</ele>
        <time>2022-05-22T11:13:03.913Z</time>
      </trkpt>
      <trkpt lat="42.311748" lon="1.378232">
        <ele>687.336130</ele>
        <time>2022-05-22T11:13:05.900Z</time>
      </trkpt>
      <trkpt lat="42.311843" lon="1.378307">
        <ele>687.667441</ele>
        <time>2022-05-22T11:13:07.906Z</time>
      </trkpt>
      <trkpt lat="42.311936" lon="1.378385">
        <ele>687.997036</ele>
        <time>2022-05-22T11:13:09.903Z</time>
      </trkpt>
      <trkpt lat="42.312033" lon="1.378470">
        <ele>688.345154</ele>
        <time>2022-05-22T11:13:11.897Z</time>
      </trkpt>
      <trkpt lat="42.312130" lon="1.378548">
        <ele>688.685046</ele>
        <time>2022-05-22T11:13:13.905Z</time>
      </trkpt>
      <trkpt lat="42.312226" lon="1.378608">
        <ele>689.003565</ele>
        <time>2022-05-22T11:13:15.909Z</time>
      </trkpt>
      <trkpt lat="42.312328" lon="1.378685">
        <ele>689.355393</ele>
        <time>2022-05-22T11:13:17.901Z</time>
      </trkpt>
      <trkpt lat="42.312428" lon="1.378772">
        <ele>689.713518</ele>
        <time>2022-05-22T11:13:19.911Z</time>
      </trkpt>
      <trkpt lat="42.312531" lon="1.378865">
        <ele>690.086525</ele>
        <time>2022-05-22T11:13:21.905Z</time>
      </trkpt>
      <trkpt lat="42.312632" lon="1.378960">
        <ele>690.457063</ele>
        <time>2022-05-22T11:13:23.906Z</time>
      </trkpt>
      <trkpt lat="42.312729" lon="1.379044">
        <ele>690.803974</ele>
        <time>2022-05-22T11:13:25.901Z</time>
      </trkpt>
      <trkpt lat="42.312826" lon="1.379126">
        <ele>691.148503</ele>
        <time>2022-05-22T11:13:27.905Z</time>
      </trkpt>
      <trkpt lat="42.312926" lon="1.379214">
        <ele>691.507837</ele>
        <time>2022-05-22T11:13:29.911Z</time>
      </trkpt>
      <trkpt lat="42.313027" lon="1.379303">
        <ele>691.870909</ele>
        <time>2022-05-22T11:13:31.905Z</time>
      </trkpt>
      <trkpt lat="42.313125" lon="1.379392">
        <ele>692.226446</ele>
        <time>2022-05-22T11:13:33.906Z</time>
      </trkpt>
      <trkpt lat="42.313231" lon="1.379491">
        <ele>692.614434</ele>
        <time>2022-05-22T11:13:35.905Z</time>
      </trkpt>
      <trkpt lat="42.313328" lon="1.379584">
        <ele>693.074787</ele>
        <time>2022-05-22T11:13:37.904Z</time>
      </trkpt>
      <trkpt lat="42.313430" lon="1.379666">
        <ele>693.561386</ele>
        <time>2022-05-22T11:13:39.906Z</time>
      </trkpt>
      <trkpt lat="42.313536" lon="1.379748">
        <ele>694.062156</ele>
        <time>2022-05-22T11:13:41.907Z</time>
      </trkpt>
      <trkpt lat="42.313639" lon="1.379832">
        <ele>694.555389</ele>
        <time>2022-05-22T11:13:43.902Z</time>
      </trkpt>
      <trkpt lat="42.313742" lon="1.379910">
        <ele>695.039476</ele>
        <time>2022-05-22T11:13:45.901Z</time>
      </trkpt>
      <trkpt lat="42.313844" lon="1.380001">
        <ele>695.540570</ele>
        <time>2022-05-22T11:13:47.901Z</time>
      </trkpt>
      <trkpt lat="42.313947" lon="1.380088">
        <ele>696.038561</ele>
        <time>2022-05-22T11:13:49.906Z</time>
      </trkpt>
      <trkpt lat="42.314043" lon="1.380179">
        <ele>696.519308</ele>
        <time>2022-05-22T11:13:51.907Z</time>
      </trkpt>
      <trkpt lat="42.314144" lon="1.380263">
        <ele>697.005536</ele>
        <time>2022-05-22T11:13:53.895Z</time>
      </trkpt>
      <trkpt lat="42.314243" lon="1.380338">
        <ele>697.470866</ele>
        <time>2022-05-22T11:13:55.916Z</time>
      </trkpt>
      <trkpt lat="42.314338" lon="1.380403">
        <ele>697.907456</ele>
        <time>2022-05-22T11:13:57.902Z</time>
      </trkpt>
      <trkpt lat="42.314432" lon="1.380477">
        <ele>698.353477</ele>
        <time>2022-05-22T11:13:59.906Z</time>
      </trkpt>
      <trkpt lat="42.314525" lon="1.380549">
        <ele>698.792914</ele>
        <time>2022-05-22T11:14:01.903Z</time>
      </trkpt>
      <trkpt lat="42.314608" lon="1.380638">
        <ele>699.227283</ele>
        <time>2022-05-22T11:14:03.906Z</time>
      </trkpt>
      <trkpt lat="42.314694" lon="1.380720">
        <ele>699.658786</ele>
        <time>2022-05-22T11:14:05.904Z</time>
      </trkpt>
      <trkpt lat="42.314771" lon="1.380800">
        <ele>700.056966</ele>
        <time>2022-05-22T11:14:07.900Z</time>
      </trkpt>
      <trkpt lat="42.314843" lon="1.380884">
        <ele>700.374546</ele>
        <time>2022-05-22T11:14:09.900Z</time>
      </trkpt>
      <trkpt lat="42.314918" lon="1.380979">
        <ele>700.716000</ele>
        <time>2022-05-22T11:14:11.898Z</time>
      </trkpt>
      <trkpt lat="42.314982" lon="1.381070">
        <ele>701.024573</ele>
        <time>2022-05-22T11:14:13.898Z</time>
      </trkpt>
      <trkpt lat="42.315067" lon="1.381200">
        <ele>701.450952</ele>
        <time>2022-05-22T11:14:16.907Z</time>
      </trkpt>
      <trkpt lat="42.315112" lon="1.381357">
        <ele>701.864675</ele>
        <time>2022-05-22T11:14:19.905Z</time>
      </trkpt>
      <trkpt lat="42.315159" lon="1.381520">
        <ele>702.294547</ele>
        <time>2022-05-22T11:14:22.901Z</time>
      </trkpt>
      <trkpt lat="42.315199" lon="1.381655">
        <ele>702.651887</ele>
        <time>2022-05-22T11:14:25.902Z</time>
      </trkpt>
      <trkpt lat="42.315229" lon="1.381817">
        <ele>703.062222</ele>
        <time>2022-05-22T11:14:28.919Z</time>
      </trkpt>
      <trkpt lat="42.315246" lon="1.381980">
        <ele>703.466685</ele>
        <time>2022-05-22T11:14:31.905Z</time>
      </trkpt>
      <trkpt lat="42.315280" lon="1.382155">
        <ele>703.911263</ele>
        <time>2022-05-22T11:14:34.908Z</time>
      </trkpt>
      <trkpt lat="42.315303" lon="1.382290">
        <ele>704.251654</ele>
        <time>2022-05-22T11:14:37.907Z</time>
      </trkpt>
      <trkpt lat="42.315358" lon="1.382417">
        <ele>704.613277</ele>
        <time>2022-05-22T11:14:40.903Z</time>
      </trkpt>
      <trkpt lat="42.315411" lon="1.382557">
        <ele>704.999723</ele>
        <time>2022-05-22T11:14:43.901Z</time>
      </trkpt>
      <trkpt lat="42.315458" lon="1.382718">
        <ele>705.425019</ele>
        <time>2022-05-22T11:14:46.913Z</time>
      </trkpt>
      <trkpt lat="42.315499" lon="1.382872">
        <ele>705.827181</ele>
        <time>2022-05-22T11:14:49.901Z</time>
      </trkpt>
      <trkpt lat="42.315528" lon="1.382987">
        <ele>706.150469</ele>
        <time>2022-05-22T11:14:51.903Z</time>
      </trkpt>
      <trkpt lat="42.315568" lon="1.383157">
        <ele>706.718384</ele>
        <time>2022-05-22T11:14:54.903Z</time>
      </trkpt>
      <trkpt lat="42.315614" lon="1.383319">
        <ele>707.270810</ele>
        <time>2022-05-22T11:14:57.940Z</time>
      </trkpt>
      <trkpt lat="42.315645" lon="1.383435">
        <ele>707.663460</ele>
        <time>2022-05-22T11:14:59.908Z</time>
      </trkpt>
      <trkpt lat="42.315678" lon="1.383567">
        <ele>708.107034</ele>
        <time>2022-05-22T11:15:01.903Z</time>
      </trkpt>
      <trkpt lat="42.315725" lon="1.383674">
        <ele>708.503222</ele>
        <time>2022-05-22T11:15:03.903Z</time>
      </trkpt>
      <trkpt lat="42.315788" lon="1.383827">
        <ele>709.060704</ele>
        <time>2022-05-22T11:15:06.911Z</time>
      </trkpt>
      <trkpt lat="42.315836" lon="1.383988">
        <ele>709.613319</ele>
        <time>2022-05-22T11:15:09.901Z</time>
      </trkpt>
      <trkpt lat="42.315867" lon="1.384102">
        <ele>709.999986</ele>
        <time>2022-05-22T11:15:11.903Z</time>
      </trkpt>
      <trkpt lat="42.315904" lon="1.384227">
        <ele>710.428606</ele>
        <time>2022-05-22T11:15:13.900Z</time>
      </trkpt>
      <trkpt lat="42.315932" lon="1.384395">
        <ele>710.976830</ele>
        <time>2022-05-22T11:15:16.913Z</time>
      </trkpt>
      <trkpt lat="42.315939" lon="1.384525">
        <ele>711.391765</ele>
        <time>2022-05-22T11:15:18.906Z</time>
      </trkpt>
      <trkpt lat="42.315962" lon="1.384663">
        <ele>711.842092</ele>
        <time>2022-05-22T11:15:20.928Z</time>
      </trkpt>
      <trkpt lat="42.315978" lon="1.384786">
        <ele>712.239659</ele>
        <time>2022-05-22T11:15:22.904Z</time>
      </trkpt>
      <trkpt lat="42.315984" lon="1.384951">
        <ele>712.765551</ele>
        <time>2022-05-22T11:15:25.901Z</time>
      </trkpt>
      <trkpt lat="42.316042" lon="1.385087">
        <ele>713.265335</ele>
        <time>2022-05-22T11:15:28.900Z</time>
      </trkpt>
      <trkpt lat="42.316082" lon="1.385202">
        <ele>713.669902</ele>
        <time>2022-05-22T11:15:31.965Z</time>
      </trkpt>
      <trkpt lat="42.316126" lon="1.385351">
        <ele>713.844013</ele>
        <time>2022-05-22T11:15:35.928Z</time>
      </trkpt>
      <trkpt lat="42.316165" lon="1.385485">
        <ele>713.912061</ele>
        <time>2022-05-22T11:15:38.903Z</time>
      </trkpt>
      <trkpt lat="42.316197" lon="1.385633">
        <ele>713.984924</ele>
        <time>2022-05-22T11:15:41.899Z</time>
      </trkpt>
      <trkpt lat="42.316236" lon="1.385788">
        <ele>714.062291</ele>
        <time>2022-05-22T11:15:44.902Z</time>
      </trkpt>
      <trkpt lat="42.316279" lon="1.385946">
        <ele>714.141848</ele>
        <time>2022-05-22T11:15:47.906Z</time>
      </trkpt>
      <trkpt lat="42.316335" lon="1.386104">
        <ele>714.224641</ele>
        <time>2022-05-22T11:15:50.908Z</time>
      </trkpt>
      <trkpt lat="42.316372" lon="1.386216">
        <ele>714.282607</ele>
        <time>2022-05-22T11:15:52.905Z</time>
      </trkpt>
      <trkpt lat="42.316411" lon="1.386333">
        <ele>714.343251</ele>
        <time>2022-05-22T11:15:54.904Z</time>
      </trkpt>
      <trkpt lat="42.316450" lon="1.386449">
        <ele>714.403464</ele>
        <time>2022-05-22T11:15:56.897Z</time>
      </trkpt>
      <trkpt lat="42.316492" lon="1.386570">
        <ele>714.466627</ele>
        <time>2022-05-22T11:15:58.904Z</time>
      </trkpt>
      <trkpt lat="42.316534" lon="1.386697">
        <ele>714.532367</ele>
        <time>2022-05-22T11:16:00.908Z</time>
      </trkpt>
      <trkpt lat="42.316580" lon="1.386829">
        <ele>714.601321</ele>
        <time>2022-05-22T11:16:02.908Z</time>
      </trkpt>
      <trkpt lat="42.316621" lon="1.386957">
        <ele>714.667236</ele>
        <time>2022-05-22T11:16:04.911Z</time>
      </trkpt>
      <trkpt lat="42.316665" lon="1.387078">
        <ele>714.730952</ele>
        <time>2022-05-22T11:16:06.902Z</time>
      </trkpt>
      <trkpt lat="42.316722" lon="1.387201">
        <ele>714.799544</ele>
        <time>2022-05-22T11:16:08.897Z</time>
      </trkpt>
      <trkpt lat="42.316778" lon="1.387330">
        <ele>714.870229</ele>
        <time>2022-05-22T11:16:10.903Z</time>
      </trkpt>
      <trkpt lat="42.316838" lon="1.387457">
        <ele>714.913429</ele>
        <time>2022-05-22T11:16:12.905Z</time>
      </trkpt>
      <trkpt lat="42.316906" lon="1.387579">
        <ele>714.683856</ele>
        <time>2022-05-22T11:16:14.903Z</time>
      </trkpt>
      <trkpt lat="42.316975" lon="1.387694">
        <ele>714.461317</ele>
        <time>2022-05-22T11:16:16.898Z</time>
      </trkpt>
      <trkpt lat="42.317054" lon="1.387807">
        <ele>714.227638</ele>
        <time>2022-05-22T11:16:18.905Z</time>
      </trkpt>
      <trkpt lat="42.317141" lon="1.387935">
        <ele>713.966386</ele>
        <time>2022-05-22T11:16:20.902Z</time>
      </trkpt>
      <trkpt lat="42.317226" lon="1.388061">
        <ele>713.710096</ele>
        <time>2022-05-22T11:16:22.902Z</time>
      </trkpt>
      <trkpt lat="42.317324" lon="1.388192">
        <ele>713.430077</ele>
        <time>2022-05-22T11:16:24.899Z</time>
      </trkpt>
      <trkpt lat="42.317426" lon="1.388307">
        <ele>713.160211</ele>
        <time>2022-05-22T11:16:26.906Z</time>
      </trkpt>
      <trkpt lat="42.317531" lon="1.388429">
        <ele>712.878897</ele>
        <time>2022-05-22T11:16:28.902Z</time>
      </trkpt>
      <trkpt lat="42.317642" lon="1.388549">
        <ele>712.590112</ele>
        <time>2022-05-22T11:16:30.903Z</time>
      </trkpt>
      <trkpt lat="42.317759" lon="1.388651">
        <ele>712.307228</ele>
        <time>2022-05-22T11:16:32.903Z</time>
      </trkpt>
      <trkpt lat="42.317881" lon="1.388766">
        <ele>712.005022</ele>
        <time>2022-05-22T11:16:34.902Z</time>
      </trkpt>
      <trkpt lat="42.317997" lon="1.388907">
        <ele>711.688069</ele>
        <time>2022-05-22T11:16:36.916Z</time>
      </trkpt>
      <trkpt lat="42.318119" lon="1.389044">
        <ele>711.365818</ele>
        <time>2022-05-22T11:16:38.905Z</time>
      </trkpt>
      <trkpt lat="42.318255" lon="1.389182">
        <ele>710.891678</ele>
        <time>2022-05-22T11:16:40.929Z</time>
      </trkpt>
      <trkpt lat="42.318398" lon="1.389289">
        <ele>710.394812</ele>
        <time>2022-05-22T11:16:42.899Z</time>
      </trkpt>
      <trkpt lat="42.318548" lon="1.389396">
        <ele>709.879221</ele>
        <time>2022-05-22T11:16:44.899Z</time>
      </trkpt>
      <trkpt lat="42.318688" lon="1.389509">
        <ele>709.383540</ele>
        <time>2022-05-22T11:16:46.905Z</time>
      </trkpt>
      <trkpt lat="42.318772" lon="1.389571">
        <ele>709.092599</ele>
        <time>2022-05-22T11:16:47.909Z</time>
      </trkpt>
      <trkpt lat="42.318852" lon="1.389630">
        <ele>708.815563</ele>
        <time>2022-05-22T11:16:48.904Z</time>
      </trkpt>
      <trkpt lat="42.318938" lon="1.389688">
        <ele>708.523392</ele>
        <time>2022-05-22T11:16:49.912Z</time>
      </trkpt>
      <trkpt lat="42.319028" lon="1.389747">
        <ele>708.219316</ele>
        <time>2022-05-22T11:16:50.907Z</time>
      </trkpt>
      <trkpt lat="42.319116" lon="1.389803">
        <ele>707.923633</ele>
        <time>2022-05-22T11:16:51.906Z</time>
      </trkpt>
      <trkpt lat="42.319208" lon="1.389861">
        <ele>707.615030</ele>
        <time>2022-05-22T11:16:52.905Z</time>
      </trkpt>
      <trkpt lat="42.319309" lon="1.389921">
        <ele>707.279644</ele>
        <time>2022-05-22T11:16:53.905Z</time>
      </trkpt>
      <trkpt lat="42.319412" lon="1.389980">
        <ele>706.939565</ele>
        <time>2022-05-22T11:16:54.909Z</time>
      </trkpt>
      <trkpt lat="42.319522" lon="1.390038">
        <ele>706.580616</ele>
        <time>2022-05-22T11:16:55.904Z</time>
      </trkpt>
      <trkpt lat="42.319633" lon="1.390095">
        <ele>706.219637</ele>
        <time>2022-05-22T11:16:56.905Z</time>
      </trkpt>
      <trkpt lat="42.319747" lon="1.390156">
        <ele>705.846904</ele>
        <time>2022-05-22T11:16:57.903Z</time>
      </trkpt>
      <trkpt lat="42.319862" lon="1.390216">
        <ele>705.539474</ele>
        <time>2022-05-22T11:16:58.911Z</time>
      </trkpt>
      <trkpt lat="42.319978" lon="1.390275">
        <ele>705.237500</ele>
        <time>2022-05-22T11:16:59.913Z</time>
      </trkpt>
      <trkpt lat="42.320094" lon="1.390341">
        <ele>704.930859</ele>
        <time>2022-05-22T11:17:00.898Z</time>
      </trkpt>
      <trkpt lat="42.320215" lon="1.390413">
        <ele>704.608754</ele>
        <time>2022-05-22T11:17:01.905Z</time>
      </trkpt>
      <trkpt lat="42.320336" lon="1.390486">
        <ele>704.285920</ele>
        <time>2022-05-22T11:17:02.901Z</time>
      </trkpt>
      <trkpt lat="42.320453" lon="1.390565">
        <ele>703.967282</ele>
        <time>2022-05-22T11:17:03.906Z</time>
      </trkpt>
      <trkpt lat="42.320578" lon="1.390639">
        <ele>703.634805</ele>
        <time>2022-05-22T11:17:04.909Z</time>
      </trkpt>
      <trkpt lat="42.320698" lon="1.390720">
        <ele>703.308018</ele>
        <time>2022-05-22T11:17:05.904Z</time>
      </trkpt>
      <trkpt lat="42.320815" lon="1.390816">
        <ele>702.974572</ele>
        <time>2022-05-22T11:17:06.906Z</time>
      </trkpt>
      <trkpt lat="42.320930" lon="1.390927">
        <ele>702.630320</ele>
        <time>2022-05-22T11:17:07.903Z</time>
      </trkpt>
      <trkpt lat="42.321040" lon="1.391050">
        <ele>702.282550</ele>
        <time>2022-05-22T11:17:08.904Z</time>
      </trkpt>
      <trkpt lat="42.321141" lon="1.391179">
        <ele>701.944059</ele>
        <time>2022-05-22T11:17:09.907Z</time>
      </trkpt>
      <trkpt lat="42.321237" lon="1.391333">
        <ele>701.581165</ele>
        <time>2022-05-22T11:17:10.903Z</time>
      </trkpt>
      <trkpt lat="42.321322" lon="1.391493">
        <ele>701.310727</ele>
        <time>2022-05-22T11:17:11.895Z</time>
      </trkpt>
      <trkpt lat="42.321396" lon="1.391664">
        <ele>701.102833</ele>
        <time>2022-05-22T11:17:12.898Z</time>
      </trkpt>
      <trkpt lat="42.321458" lon="1.391852">
        <ele>700.886841</ele>
        <time>2022-05-22T11:17:13.897Z</time>
      </trkpt>
      <trkpt lat="42.321513" lon="1.392040">
        <ele>700.674702</ele>
        <time>2022-05-22T11:17:14.900Z</time>
      </trkpt>
      <trkpt lat="42.321556" lon="1.392237">
        <ele>700.459181</ele>
        <time>2022-05-22T11:17:15.904Z</time>
      </trkpt>
      <trkpt lat="42.321594" lon="1.392431">
        <ele>700.248604</ele>
        <time>2022-05-22T11:17:16.901Z</time>
      </trkpt>
      <trkpt lat="42.321627" lon="1.392626">
        <ele>700.038710</ele>
        <time>2022-05-22T11:17:17.898Z</time>
      </trkpt>
      <trkpt lat="42.321658" lon="1.392819">
        <ele>699.831482</ele>
        <time>2022-05-22T11:17:18.903Z</time>
      </trkpt>
      <trkpt lat="42.321683" lon="1.393019">
        <ele>699.618655</ele>
        <time>2022-05-22T11:17:19.907Z</time>
      </trkpt>
      <trkpt lat="42.321713" lon="1.393218">
        <ele>699.405558</ele>
        <time>2022-05-22T11:17:20.904Z</time>
      </trkpt>
      <trkpt lat="42.321748" lon="1.393415">
        <ele>699.192973</ele>
        <time>2022-05-22T11:17:21.900Z</time>
      </trkpt>
      <trkpt lat="42.321795" lon="1.393607">
        <ele>698.980764</ele>
        <time>2022-05-22T11:17:22.910Z</time>
      </trkpt>
      <trkpt lat="42.321840" lon="1.393789">
        <ele>698.618521</ele>
        <time>2022-05-22T11:17:23.907Z</time>
      </trkpt>
      <trkpt lat="42.321899" lon="1.393960">
        <ele>698.091210</ele>
        <time>2022-05-22T11:17:24.897Z</time>
      </trkpt>
      <trkpt lat="42.321969" lon="1.394125">
        <ele>697.559624</ele>
        <time>2022-05-22T11:17:25.899Z</time>
      </trkpt>
      <trkpt lat="42.322051" lon="1.394296">
        <ele>696.990081</ele>
        <time>2022-05-22T11:17:26.909Z</time>
      </trkpt>
      <trkpt lat="42.322133" lon="1.394459">
        <ele>696.439160</ele>
        <time>2022-05-22T11:17:27.902Z</time>
      </trkpt>
      <trkpt lat="42.322223" lon="1.394608">
        <ele>695.901517</ele>
        <time>2022-05-22T11:17:28.904Z</time>
      </trkpt>
      <trkpt lat="42.322316" lon="1.394753">
        <ele>695.365123</ele>
        <time>2022-05-22T11:17:29.899Z</time>
      </trkpt>
      <trkpt lat="42.322416" lon="1.394895">
        <ele>694.817134</ele>
        <time>2022-05-22T11:17:30.919Z</time>
      </trkpt>
      <trkpt lat="42.322518" lon="1.395039">
        <ele>694.259882</ele>
        <time>2022-05-22T11:17:31.904Z</time>
      </trkpt>
      <trkpt lat="42.322615" lon="1.395180">
        <ele>693.721700</ele>
        <time>2022-05-22T11:17:32.902Z</time>
      </trkpt>
      <trkpt lat="42.322711" lon="1.395317">
        <ele>693.194254</ele>
        <time>2022-05-22T11:17:33.902Z</time>
      </trkpt>
      <trkpt lat="42.322808" lon="1.395455">
        <ele>692.662180</ele>
        <time>2022-05-22T11:17:34.896Z</time>
      </trkpt>
      <trkpt lat="42.322904" lon="1.395591">
        <ele>692.136759</ele>
        <time>2022-05-22T11:17:35.904Z</time>
      </trkpt>
      <trkpt lat="42.322987" lon="1.395739">
        <ele>691.689607</ele>
        <time>2022-05-22T11:17:36.902Z</time>
      </trkpt>
      <trkpt lat="42.323062" lon="1.395891">
        <ele>691.258700</ele>
        <time>2022-05-22T11:17:37.901Z</time>
      </trkpt>
      <trkpt lat="42.323123" lon="1.396053">
        <ele>690.830011</ele>
        <time>2022-05-22T11:17:38.899Z</time>
      </trkpt>
      <trkpt lat="42.323177" lon="1.396218">
        <ele>690.404524</ele>
        <time>2022-05-22T11:17:39.906Z</time>
      </trkpt>
      <trkpt lat="42.323228" lon="1.396367">
        <ele>690.017354</ele>
        <time>2022-05-22T11:17:40.899Z</time>
      </trkpt>
      <trkpt lat="42.323280" lon="1.396520">
        <ele>689.620283</ele>
        <time>2022-05-22T11:17:41.903Z</time>
      </trkpt>
      <trkpt lat="42.323334" lon="1.396667">
        <ele>689.233227</ele>
        <time>2022-05-22T11:17:42.901Z</time>
      </trkpt>
      <trkpt lat="42.323390" lon="1.396807">
        <ele>688.857888</ele>
        <time>2022-05-22T11:17:43.898Z</time>
      </trkpt>
      <trkpt lat="42.323454" lon="1.396945">
        <ele>688.473762</ele>
        <time>2022-05-22T11:17:44.895Z</time>
      </trkpt>
      <trkpt lat="42.323520" lon="1.397082">
        <ele>688.088187</ele>
        <time>2022-05-22T11:17:45.903Z</time>
      </trkpt>
      <trkpt lat="42.323593" lon="1.397209">
        <ele>687.708865</ele>
        <time>2022-05-22T11:17:46.898Z</time>
      </trkpt>
      <trkpt lat="42.323675" lon="1.397328">
        <ele>687.325287</ele>
        <time>2022-05-22T11:17:47.904Z</time>
      </trkpt>
      <trkpt lat="42.323766" lon="1.397432">
        <ele>686.945326</ele>
        <time>2022-05-22T11:17:48.900Z</time>
      </trkpt>
      <trkpt lat="42.323865" lon="1.397520">
        <ele>686.567504</ele>
        <time>2022-05-22T11:17:49.908Z</time>
      </trkpt>
      <trkpt lat="42.323972" lon="1.397601">
        <ele>686.115279</ele>
        <time>2022-05-22T11:17:50.907Z</time>
      </trkpt>
      <trkpt lat="42.324080" lon="1.397680">
        <ele>685.578964</ele>
        <time>2022-05-22T11:17:51.902Z</time>
      </trkpt>
      <trkpt lat="42.324177" lon="1.397745">
        <ele>685.106118</ele>
        <time>2022-05-22T11:17:52.898Z</time>
      </trkpt>
      <trkpt lat="42.324282" lon="1.397801">
        <ele>684.613110</ele>
        <time>2022-05-22T11:17:53.906Z</time>
      </trkpt>
      <trkpt lat="42.324384" lon="1.397856">
        <ele>684.133473</ele>
        <time>2022-05-22T11:17:54.909Z</time>
      </trkpt>
      <trkpt lat="42.324488" lon="1.397907">
        <ele>683.650264</ele>
        <time>2022-05-22T11:17:55.905Z</time>
      </trkpt>
      <trkpt lat="42.324586" lon="1.397960">
        <ele>683.189249</ele>
        <time>2022-05-22T11:17:56.909Z</time>
      </trkpt>
      <trkpt lat="42.324682" lon="1.398005">
        <ele>682.745452</ele>
        <time>2022-05-22T11:17:57.905Z</time>
      </trkpt>
      <trkpt lat="42.324773" lon="1.398048">
        <ele>682.324405</ele>
        <time>2022-05-22T11:17:58.917Z</time>
      </trkpt>
      <trkpt lat="42.324861" lon="1.398081">
        <ele>681.925521</ele>
        <time>2022-05-22T11:17:59.905Z</time>
      </trkpt>
      <trkpt lat="42.324949" lon="1.398125">
        <ele>681.515713</ele>
        <time>2022-05-22T11:18:00.903Z</time>
      </trkpt>
      <trkpt lat="42.325038" lon="1.398160">
        <ele>681.110863</ele>
        <time>2022-05-22T11:18:01.905Z</time>
      </trkpt>
      <trkpt lat="42.325126" lon="1.398195">
        <ele>680.710204</ele>
        <time>2022-05-22T11:18:02.905Z</time>
      </trkpt>
      <trkpt lat="42.325288" lon="1.398271">
        <ele>679.961232</ele>
        <time>2022-05-22T11:18:04.902Z</time>
      </trkpt>
      <trkpt lat="42.325419" lon="1.398402">
        <ele>679.249617</ele>
        <time>2022-05-22T11:18:06.903Z</time>
      </trkpt>
      <trkpt lat="42.325509" lon="1.398570">
        <ele>678.579622</ele>
        <time>2022-05-22T11:18:08.909Z</time>
      </trkpt>
      <trkpt lat="42.325570" lon="1.398718">
        <ele>678.720947</ele>
        <time>2022-05-22T11:18:10.934Z</time>
      </trkpt>
      <trkpt lat="42.325640" lon="1.398891">
        <ele>679.052057</ele>
        <time>2022-05-22T11:18:12.905Z</time>
      </trkpt>
      <trkpt lat="42.325680" lon="1.399051">
        <ele>679.335628</ele>
        <time>2022-05-22T11:18:14.904Z</time>
      </trkpt>
      <trkpt lat="42.325733" lon="1.399182">
        <ele>679.586347</ele>
        <time>2022-05-22T11:18:16.970Z</time>
      </trkpt>
      <trkpt lat="42.325793" lon="1.399276">
        <ele>679.794846</ele>
        <time>2022-05-22T11:18:18.902Z</time>
      </trkpt>
      <trkpt lat="42.325888" lon="1.399320">
        <ele>680.022878</ele>
        <time>2022-05-22T11:18:20.916Z</time>
      </trkpt>
      <trkpt lat="42.325987" lon="1.399300">
        <ele>680.250190</ele>
        <time>2022-05-22T11:18:22.907Z</time>
      </trkpt>
      <trkpt lat="42.326055" lon="1.399212">
        <ele>680.463906</ele>
        <time>2022-05-22T11:18:24.922Z</time>
      </trkpt>
      <trkpt lat="42.326076" lon="1.399069">
        <ele>680.708682</ele>
        <time>2022-05-22T11:18:26.909Z</time>
      </trkpt>
      <trkpt lat="42.326061" lon="1.398901">
        <ele>680.992791</ele>
        <time>2022-05-22T11:18:28.925Z</time>
      </trkpt>
      <trkpt lat="42.326041" lon="1.398746">
        <ele>681.256958</ele>
        <time>2022-05-22T11:18:30.910Z</time>
      </trkpt>
      <trkpt lat="42.326007" lon="1.398606">
        <ele>681.504364</ele>
        <time>2022-05-22T11:18:32.908Z</time>
      </trkpt>
      <trkpt lat="42.325981" lon="1.398476">
        <ele>681.730470</ele>
        <time>2022-05-22T11:18:34.904Z</time>
      </trkpt>
      <trkpt lat="42.325955" lon="1.398358">
        <ele>681.937194</ele>
        <time>2022-05-22T11:18:36.904Z</time>
      </trkpt>
      <trkpt lat="42.325915" lon="1.398200">
        <ele>682.217586</ele>
        <time>2022-05-22T11:18:39.906Z</time>
      </trkpt>
      <trkpt lat="42.325862" lon="1.398049">
        <ele>682.498224</ele>
        <time>2022-05-22T11:18:42.902Z</time>
      </trkpt>
      <trkpt lat="42.325838" lon="1.397926">
        <ele>682.707009</ele>
        <time>2022-05-22T11:18:44.905Z</time>
      </trkpt>
      <trkpt lat="42.325804" lon="1.397794">
        <ele>682.933760</ele>
        <time>2022-05-22T11:18:46.906Z</time>
      </trkpt>
      <trkpt lat="42.325780" lon="1.397646">
        <ele>683.179551</ele>
        <time>2022-05-22T11:18:48.906Z</time>
      </trkpt>
      <trkpt lat="42.325765" lon="1.397496">
        <ele>683.425095</ele>
        <time>2022-05-22T11:18:50.901Z</time>
      </trkpt>
      <trkpt lat="42.325745" lon="1.397355">
        <ele>683.657995</ele>
        <time>2022-05-22T11:18:52.908Z</time>
      </trkpt>
      <trkpt lat="42.325725" lon="1.397187">
        <ele>683.934033</ele>
        <time>2022-05-22T11:18:54.906Z</time>
      </trkpt>
      <trkpt lat="42.325701" lon="1.397031">
        <ele>684.192515</ele>
        <time>2022-05-22T11:18:56.904Z</time>
      </trkpt>
      <trkpt lat="42.325680" lon="1.396877">
        <ele>684.446546</ele>
        <time>2022-05-22T11:18:58.907Z</time>
      </trkpt>
      <trkpt lat="42.325670" lon="1.396713">
        <ele>684.713488</ele>
        <time>2022-05-22T11:19:00.906Z</time>
      </trkpt>
      <trkpt lat="42.325649" lon="1.396541">
        <ele>684.996284</ele>
        <time>2022-05-22T11:19:02.898Z</time>
      </trkpt>
      <trkpt lat="42.325629" lon="1.396372">
        <ele>685.273924</ele>
        <time>2022-05-22T11:19:04.907Z</time>
      </trkpt>
      <trkpt lat="42.325595" lon="1.396214">
        <ele>685.540866</ele>
        <time>2022-05-22T11:19:06.907Z</time>
      </trkpt>
      <trkpt lat="42.325569" lon="1.396051">
        <ele>685.811367</ele>
        <time>2022-05-22T11:19:08.902Z</time>
      </trkpt>
      <trkpt lat="42.325551" lon="1.395874">
        <ele>686.101199</ele>
        <time>2022-05-22T11:19:10.903Z</time>
      </trkpt>
      <trkpt lat="42.325541" lon="1.395693">
        <ele>686.395635</ele>
        <time>2022-05-22T11:19:12.908Z</time>
      </trkpt>
      <trkpt lat="42.325527" lon="1.395517">
        <ele>686.405918</ele>
        <time>2022-05-22T11:19:14.911Z</time>
      </trkpt>
      <trkpt lat="42.325513" lon="1.395334">
        <ele>686.207696</ele>
        <time>2022-05-22T11:19:16.910Z</time>
      </trkpt>
      <trkpt lat="42.325509" lon="1.395161">
        <ele>686.021210</ele>
        <time>2022-05-22T11:19:18.907Z</time>
      </trkpt>
      <trkpt lat="42.325512" lon="1.394992">
        <ele>685.839072</ele>
        <time>2022-05-22T11:19:20.902Z</time>
      </trkpt>
      <trkpt lat="42.325528" lon="1.394816">
        <ele>685.648017</ele>
        <time>2022-05-22T11:19:22.908Z</time>
      </trkpt>
      <trkpt lat="42.325544" lon="1.394642">
        <ele>685.459101</ele>
        <time>2022-05-22T11:19:24.904Z</time>
      </trkpt>
      <trkpt lat="42.325579" lon="1.394475">
        <ele>685.272081</ele>
        <time>2022-05-22T11:19:26.910Z</time>
      </trkpt>
      <trkpt lat="42.325619" lon="1.394321">
        <ele>685.096216</ele>
        <time>2022-05-22T11:19:28.908Z</time>
      </trkpt>
      <trkpt lat="42.325674" lon="1.394160">
        <ele>684.905128</ele>
        <time>2022-05-22T11:19:30.906Z</time>
      </trkpt>
      <trkpt lat="42.325724" lon="1.393987">
        <ele>684.704998</ele>
        <time>2022-05-22T11:19:32.905Z</time>
      </trkpt>
      <trkpt lat="42.325773" lon="1.393818">
        <ele>684.509412</ele>
        <time>2022-05-22T11:19:34.908Z</time>
      </trkpt>
      <trkpt lat="42.325821" lon="1.393658">
        <ele>684.323373</ele>
        <time>2022-05-22T11:19:36.910Z</time>
      </trkpt>
      <trkpt lat="42.325871" lon="1.393493">
        <ele>684.131245</ele>
        <time>2022-05-22T11:19:38.910Z</time>
      </trkpt>
      <trkpt lat="42.325915" lon="1.393318">
        <ele>683.932092</ele>
        <time>2022-05-22T11:19:40.909Z</time>
      </trkpt>
      <trkpt lat="42.325967" lon="1.393147">
        <ele>683.741329</ele>
        <time>2022-05-22T11:19:42.902Z</time>
      </trkpt>
      <trkpt lat="42.326021" lon="1.392973">
        <ele>683.548593</ele>
        <time>2022-05-22T11:19:44.904Z</time>
      </trkpt>
      <trkpt lat="42.326080" lon="1.392795">
        <ele>683.349360</ele>
        <time>2022-05-22T11:19:46.900Z</time>
      </trkpt>
      <trkpt lat="42.326139" lon="1.392615">
        <ele>683.148262</ele>
        <time>2022-05-22T11:19:48.902Z</time>
      </trkpt>
      <trkpt lat="42.326192" lon="1.392431">
        <ele>682.946576</ele>
        <time>2022-05-22T11:19:50.915Z</time>
      </trkpt>
      <trkpt lat="42.326255" lon="1.392258">
        <ele>682.749614</ele>
        <time>2022-05-22T11:19:52.907Z</time>
      </trkpt>
      <trkpt lat="42.326315" lon="1.392083">
        <ele>682.552596</ele>
        <time>2022-05-22T11:19:54.904Z</time>
      </trkpt>
      <trkpt lat="42.326377" lon="1.391909">
        <ele>682.355321</ele>
        <time>2022-05-22T11:19:56.902Z</time>
      </trkpt>
      <trkpt lat="42.326446" lon="1.391746">
        <ele>682.163486</ele>
        <time>2022-05-22T11:19:58.921Z</time>
      </trkpt>
      <trkpt lat="42.326524" lon="1.391591">
        <ele>681.971987</ele>
        <time>2022-05-22T11:20:00.905Z</time>
      </trkpt>
      <trkpt lat="42.326605" lon="1.391444">
        <ele>681.784740</ele>
        <time>2022-05-22T11:20:02.913Z</time>
      </trkpt>
      <trkpt lat="42.326686" lon="1.391303">
        <ele>681.602369</ele>
        <time>2022-05-22T11:20:04.904Z</time>
      </trkpt>
      <trkpt lat="42.326767" lon="1.391168">
        <ele>681.424797</ele>
        <time>2022-05-22T11:20:06.913Z</time>
      </trkpt>
      <trkpt lat="42.326851" lon="1.391039">
        <ele>681.547162</ele>
        <time>2022-05-22T11:20:08.911Z</time>
      </trkpt>
      <trkpt lat="42.326938" lon="1.390917">
        <ele>681.693819</ele>
        <time>2022-05-22T11:20:10.907Z</time>
      </trkpt>
      <trkpt lat="42.327039" lon="1.390804">
        <ele>681.847213</ele>
        <time>2022-05-22T11:20:12.906Z</time>
      </trkpt>
      <trkpt lat="42.327137" lon="1.390703">
        <ele>681.991399</ele>
        <time>2022-05-22T11:20:14.909Z</time>
      </trkpt>
      <trkpt lat="42.327233" lon="1.390606">
        <ele>682.131632</ele>
        <time>2022-05-22T11:20:16.909Z</time>
      </trkpt>
      <trkpt lat="42.327335" lon="1.390515">
        <ele>682.274628</ele>
        <time>2022-05-22T11:20:18.904Z</time>
      </trkpt>
      <trkpt lat="42.327448" lon="1.390436">
        <ele>682.423490</ele>
        <time>2022-05-22T11:20:20.906Z</time>
      </trkpt>
      <trkpt lat="42.327554" lon="1.390355">
        <ele>682.565968</ele>
        <time>2022-05-22T11:20:22.905Z</time>
      </trkpt>
      <trkpt lat="42.327658" lon="1.390282">
        <ele>682.703089</ele>
        <time>2022-05-22T11:20:24.906Z</time>
      </trkpt>
      <trkpt lat="42.327755" lon="1.390214">
        <ele>682.830947</ele>
        <time>2022-05-22T11:20:26.906Z</time>
      </trkpt>
      <trkpt lat="42.327851" lon="1.390159">
        <ele>682.952957</ele>
        <time>2022-05-22T11:20:28.908Z</time>
      </trkpt>
      <trkpt lat="42.327948" lon="1.390110">
        <ele>683.074132</ele>
        <time>2022-05-22T11:20:30.906Z</time>
      </trkpt>
      <trkpt lat="42.328041" lon="1.390069">
        <ele>683.188604</ele>
        <time>2022-05-22T11:20:32.909Z</time>
      </trkpt>
      <trkpt lat="42.328134" lon="1.390039">
        <ele>683.300493</ele>
        <time>2022-05-22T11:20:34.902Z</time>
      </trkpt>
      <trkpt lat="42.328226" lon="1.390022">
        <ele>683.409159</ele>
        <time>2022-05-22T11:20:36.909Z</time>
      </trkpt>
      <trkpt lat="42.328346" lon="1.390006">
        <ele>683.722926</ele>
        <time>2022-05-22T11:20:39.905Z</time>
      </trkpt>
      <trkpt lat="42.328443" lon="1.390001">
        <ele>684.399712</ele>
        <time>2022-05-22T11:20:42.904Z</time>
      </trkpt>
      <trkpt lat="42.328559" lon="1.390007">
        <ele>685.209068</ele>
        <time>2022-05-22T11:20:46.901Z</time>
      </trkpt>
      <trkpt lat="42.328667" lon="1.390025">
        <ele>685.967751</ele>
        <time>2022-05-22T11:20:50.907Z</time>
      </trkpt>
      <trkpt lat="42.328770" lon="1.390034">
        <ele>686.687376</ele>
        <time>2022-05-22T11:20:54.907Z</time>
      </trkpt>
      <trkpt lat="42.328863" lon="1.390042">
        <ele>687.337092</ele>
        <time>2022-05-22T11:20:58.902Z</time>
      </trkpt>
      <trkpt lat="42.328962" lon="1.390051">
        <ele>688.028889</ele>
        <time>2022-05-22T11:21:02.912Z</time>
      </trkpt>
      <trkpt lat="42.329055" lon="1.390079">
        <ele>688.693163</ele>
        <time>2022-05-22T11:21:06.908Z</time>
      </trkpt>
      <trkpt lat="42.329153" lon="1.390119">
        <ele>689.406860</ele>
        <time>2022-05-22T11:21:10.904Z</time>
      </trkpt>
      <trkpt lat="42.329265" lon="1.390142">
        <ele>690.196685</ele>
        <time>2022-05-22T11:21:15.910Z</time>
      </trkpt>
      <trkpt lat="42.329377" lon="1.390158">
        <ele>690.981904</ele>
        <time>2022-05-22T11:21:20.907Z</time>
      </trkpt>
      <trkpt lat="42.329468" lon="1.390180">
        <ele>691.626421</ele>
        <time>2022-05-22T11:21:25.909Z</time>
      </trkpt>
      <trkpt lat="42.329562" lon="1.390151">
        <ele>692.298629</ele>
        <time>2022-05-22T11:21:30.911Z</time>
      </trkpt>
      <trkpt lat="42.329647" lon="1.390076">
        <ele>693.006197</ele>
        <time>2022-05-22T11:21:37.907Z</time>
      </trkpt>
      <trkpt lat="42.329718" lon="1.389993">
        <ele>693.660466</ele>
        <time>2022-05-22T11:21:43.908Z</time>
      </trkpt>
      <trkpt lat="42.329765" lon="1.389865">
        <ele>694.397121</ele>
        <time>2022-05-22T11:21:49.908Z</time>
      </trkpt>
      <trkpt lat="42.329813" lon="1.389751">
        <ele>695.073337</ele>
        <time>2022-05-22T11:21:54.908Z</time>
      </trkpt>
      <trkpt lat="42.329855" lon="1.389632">
        <ele>695.753019</ele>
        <time>2022-05-22T11:21:59.908Z</time>
      </trkpt>
      <trkpt lat="42.329894" lon="1.389511">
        <ele>696.055794</ele>
        <time>2022-05-22T11:22:04.909Z</time>
      </trkpt>
      <trkpt lat="42.329935" lon="1.389384">
        <ele>696.055794</ele>
        <time>2022-05-22T11:22:10.908Z</time>
      </trkpt>
      <trkpt lat="42.329957" lon="1.389250">
        <ele>696.055794</ele>
        <time>2022-05-22T11:22:16.909Z</time>
      </trkpt>
      <trkpt lat="42.329965" lon="1.389106">
        <ele>696.055794</ele>
        <time>2022-05-22T11:22:21.904Z</time>
      </trkpt>
      <trkpt lat="42.330005" lon="1.388991">
        <ele>696.055794</ele>
        <time>2022-05-22T11:22:26.920Z</time>
      </trkpt>
      <trkpt lat="42.329917" lon="1.388906">
        <ele>696.055794</ele>
        <time>2022-05-22T11:22:32.908Z</time>
      </trkpt>
      <trkpt lat="42.329820" lon="1.388894">
        <ele>696.055794</ele>
        <time>2022-05-22T11:22:36.965Z</time>
      </trkpt>
      <trkpt lat="42.329719" lon="1.388971">
        <ele>696.055794</ele>
        <time>2022-05-22T11:22:41.916Z</time>
      </trkpt>
      <trkpt lat="42.329659" lon="1.389063">
        <ele>696.055794</ele>
        <time>2022-05-22T11:22:45.905Z</time>
      </trkpt>
      <trkpt lat="42.329628" lon="1.389205">
        <ele>696.055794</ele>
        <time>2022-05-22T11:22:50.915Z</time>
      </trkpt>
      <trkpt lat="42.329591" lon="1.389338">
        <ele>696.055794</ele>
        <time>2022-05-22T11:22:56.926Z</time>
      </trkpt>
      <trkpt lat="42.329572" lon="1.389464">
        <ele>696.055794</ele>
        <time>2022-05-22T11:23:01.930Z</time>
      </trkpt>
      <trkpt lat="42.329487" lon="1.389544">
        <ele>696.055794</ele>
        <time>2022-05-22T11:23:07.920Z</time>
      </trkpt>
      <trkpt lat="42.329393" lon="1.389559">
        <ele>696.055794</ele>
        <time>2022-05-22T11:23:13.930Z</time>
      </trkpt>
      <trkpt lat="42.329313" lon="1.389492">
        <ele>696.055794</ele>
        <time>2022-05-22T11:23:19.050Z</time>
      </trkpt>
      <trkpt lat="42.329256" lon="1.389378">
        <ele>696.055794</ele>
        <time>2022-05-22T11:23:23.942Z</time>
      </trkpt>
      <trkpt lat="42.329191" lon="1.389277">
        <ele>696.055794</ele>
        <time>2022-05-22T11:23:28.960Z</time>
      </trkpt>
      <trkpt lat="42.329165" lon="1.389241">
        <ele>696.055794</ele>
        <time>2022-05-22T11:23:31.645Z</time>
      </trkpt>
      <trkpt lat="42.32927" lon="1.38957">
        <ele>695.8</ele>
        <time>2022-05-22 13:23:19</time>
      </trkpt>
      <trkpt lat="42.32926" lon="1.38956">
        <ele>696</ele>
        <time>2022-05-22 13:23:20</time>
      </trkpt>
      <trkpt lat="42.32925" lon="1.38953">
        <ele>696.2</ele>
        <time>2022-05-22 13:23:21</time>
      </trkpt>
      <trkpt lat="42.32923" lon="1.3895">
        <ele>696.4</ele>
        <time>2022-05-22 13:23:22</time>
      </trkpt>
      <trkpt lat="42.32922" lon="1.38949">
        <ele>696.4</ele>
        <time>2022-05-22 13:23:23</time>
      </trkpt>
      <trkpt lat="42.3292" lon="1.38945">
        <ele>696.8</ele>
        <time>2022-05-22 13:23:24</time>
      </trkpt>
      <trkpt lat="42.32919" lon="1.38943">
        <ele>697</ele>
        <time>2022-05-22 13:23:25</time>
      </trkpt>
      <trkpt lat="42.32918" lon="1.38941">
        <ele>697</ele>
        <time>2022-05-22 13:23:26</time>
      </trkpt>
      <trkpt lat="42.32918" lon="1.3894">
        <ele>697.2</ele>
        <time>2022-05-22 13:23:27</time>
      </trkpt>
      <trkpt lat="42.32918" lon="1.38939">
        <ele>697.2</ele>
        <time>2022-05-22 13:23:28</time>
      </trkpt>
      <trkpt lat="42.32917" lon="1.38936">
        <ele>697.4</ele>
        <time>2022-05-22 13:23:29</time>
      </trkpt>
      <trkpt lat="42.32916" lon="1.38934">
        <ele>697.6</ele>
        <time>2022-05-22 13:23:30</time>
      </trkpt>
      <trkpt lat="42.32915" lon="1.38932">
        <ele>697.6</ele>
        <time>2022-05-22 13:23:31</time>
      </trkpt>
      <trkpt lat="42.32914" lon="1.38929">
        <ele>697.8</ele>
        <time>2022-05-22 13:23:32</time>
      </trkpt>
      <trkpt lat="42.32912" lon="1.38928">
        <ele>697.8</ele>
        <time>2022-05-22 13:23:33</time>
      </trkpt>
      <trkpt lat="42.32912" lon="1.38927">
        <ele>698</ele>
        <time>2022-05-22 13:23:34</time>
      </trkpt>
      <trkpt lat="42.32911" lon="1.38926">
        <ele>698</ele>
        <time>2022-05-22 13:23:35</time>
      </trkpt>
      <trkpt lat="42.3291" lon="1.38925">
        <ele>698.2</ele>
        <time>2022-05-22 13:23:36</time>
      </trkpt>
      <trkpt lat="42.3291" lon="1.38923">
        <ele>698.2</ele>
        <time>2022-05-22 13:23:37</time>
      </trkpt>
      <trkpt lat="42.32908" lon="1.38921">
        <ele>698.4</ele>
        <time>2022-05-22 13:23:38</time>
      </trkpt>
      <trkpt lat="42.32907" lon="1.38918">
        <ele>698.6</ele>
        <time>2022-05-22 13:23:39</time>
      </trkpt>
      <trkpt lat="42.32906" lon="1.38915">
        <ele>698.6</ele>
        <time>2022-05-22 13:23:40</time>
      </trkpt>
      <trkpt lat="42.32904" lon="1.38913">
        <ele>698.8</ele>
        <time>2022-05-22 13:23:41</time>
      </trkpt>
      <trkpt lat="42.32903" lon="1.38911">
        <ele>699</ele>
        <time>2022-05-22 13:23:42</time>
      </trkpt>
      <trkpt lat="42.32902" lon="1.38909">
        <ele>699</ele>
        <time>2022-05-22 13:23:43</time>
      </trkpt>
      <trkpt lat="42.32901" lon="1.38907">
        <ele>699.2</ele>
        <time>2022-05-22 13:23:44</time>
      </trkpt>
      <trkpt lat="42.329" lon="1.38904">
        <ele>699.4</ele>
        <time>2022-05-22 13:23:45</time>
      </trkpt>
      <trkpt lat="42.32897" lon="1.389">
        <ele>699.6</ele>
        <time>2022-05-22 13:23:46</time>
      </trkpt>
      <trkpt lat="42.32897" lon="1.38899">
        <ele>699.8</ele>
        <time>2022-05-22 13:23:47</time>
      </trkpt>
      <trkpt lat="42.32897" lon="1.38899">
        <ele>699.8</ele>
        <time>2022-05-22 13:23:48</time>
      </trkpt>
      <trkpt lat="42.32893" lon="1.38895">
        <ele>700.2</ele>
        <time>2022-05-22 13:23:49</time>
      </trkpt>
      <trkpt lat="42.32892" lon="1.38893">
        <ele>700.2</ele>
        <time>2022-05-22 13:23:50</time>
      </trkpt>
      <trkpt lat="42.32891" lon="1.38892">
        <ele>700.4</ele>
        <time>2022-05-22 13:23:51</time>
      </trkpt>
      <trkpt lat="42.3289" lon="1.3889">
        <ele>700.4</ele>
        <time>2022-05-22 13:23:52</time>
      </trkpt>
      <trkpt lat="42.3289" lon="1.38889">
        <ele>700.6</ele>
        <time>2022-05-22 13:23:53</time>
      </trkpt>
      <trkpt lat="42.32889" lon="1.38888">
        <ele>700.8</ele>
        <time>2022-05-22 13:23:54</time>
      </trkpt>
      <trkpt lat="42.32886" lon="1.38884">
        <ele>701</ele>
        <time>2022-05-22 13:23:55</time>
      </trkpt>
      <trkpt lat="42.32885" lon="1.38882">
        <ele>701</ele>
        <time>2022-05-22 13:23:56</time>
      </trkpt>
      <trkpt lat="42.32884" lon="1.3888">
        <ele>701</ele>
        <time>2022-05-22 13:23:57</time>
      </trkpt>
      <trkpt lat="42.32883" lon="1.38877">
        <ele>701.2</ele>
        <time>2022-05-22 13:23:58</time>
      </trkpt>
      <trkpt lat="42.32881" lon="1.38875">
        <ele>701.2</ele>
        <time>2022-05-22 13:23:59</time>
      </trkpt>
      <trkpt lat="42.3288" lon="1.38873">
        <ele>701.4</ele>
        <time>2022-05-22 13:24:00</time>
      </trkpt>
      <trkpt lat="42.3288" lon="1.3887">
        <ele>701.6</ele>
        <time>2022-05-22 13:24:01</time>
      </trkpt>
      <trkpt lat="42.32879" lon="1.38869">
        <ele>701.8</ele>
        <time>2022-05-22 13:24:02</time>
      </trkpt>
      <trkpt lat="42.32878" lon="1.38866">
        <ele>701.8</ele>
        <time>2022-05-22 13:24:03</time>
      </trkpt>
      <trkpt lat="42.32876" lon="1.38863">
        <ele>702</ele>
        <time>2022-05-22 13:24:04</time>
      </trkpt>
      <trkpt lat="42.32875" lon="1.38861">
        <ele>702.2</ele>
        <time>2022-05-22 13:24:05</time>
      </trkpt>
      <trkpt lat="42.32874" lon="1.38858">
        <ele>702.2</ele>
        <time>2022-05-22 13:24:06</time>
      </trkpt>
      <trkpt lat="42.32873" lon="1.38856">
        <ele>702.2</ele>
        <time>2022-05-22 13:24:07</time>
      </trkpt>
      <trkpt lat="42.32873" lon="1.38855">
        <ele>702.4</ele>
        <time>2022-05-22 13:24:08</time>
      </trkpt>
      <trkpt lat="42.32871" lon="1.38852">
        <ele>702.6</ele>
        <time>2022-05-22 13:24:09</time>
      </trkpt>
      <trkpt lat="42.3287" lon="1.3885">
        <ele>702.8</ele>
        <time>2022-05-22 13:24:10</time>
      </trkpt>
      <trkpt lat="42.32869" lon="1.38848">
        <ele>702.8</ele>
        <time>2022-05-22 13:24:11</time>
      </trkpt>
      <trkpt lat="42.32869" lon="1.38845">
        <ele>703</ele>
        <time>2022-05-22 13:24:12</time>
      </trkpt>
      <trkpt lat="42.32867" lon="1.38843">
        <ele>703.2</ele>
        <time>2022-05-22 13:24:13</time>
      </trkpt>
      <trkpt lat="42.32866" lon="1.38841">
        <ele>703.4</ele>
        <time>2022-05-22 13:24:14</time>
      </trkpt>
      <trkpt lat="42.32866" lon="1.38838">
        <ele>703.6</ele>
        <time>2022-05-22 13:24:15</time>
      </trkpt>
      <trkpt lat="42.32865" lon="1.38836">
        <ele>703.6</ele>
        <time>2022-05-22 13:24:16</time>
      </trkpt>
      <trkpt lat="42.32864" lon="1.38834">
        <ele>703.8</ele>
        <time>2022-05-22 13:24:17</time>
      </trkpt>
      <trkpt lat="42.32863" lon="1.38832">
        <ele>704</ele>
        <time>2022-05-22 13:24:18</time>
      </trkpt>
      <trkpt lat="42.32862" lon="1.38829">
        <ele>704.2</ele>
        <time>2022-05-22 13:24:19</time>
      </trkpt>
      <trkpt lat="42.32861" lon="1.38827">
        <ele>704.2</ele>
        <time>2022-05-22 13:24:20</time>
      </trkpt>
      <trkpt lat="42.3286" lon="1.38825">
        <ele>704.4</ele>
        <time>2022-05-22 13:24:21</time>
      </trkpt>
      <trkpt lat="42.3286" lon="1.38823">
        <ele>704.4</ele>
        <time>2022-05-22 13:24:22</time>
      </trkpt>
      <trkpt lat="42.32859" lon="1.38821">
        <ele>704.6</ele>
        <time>2022-05-22 13:24:23</time>
      </trkpt>
      <trkpt lat="42.32859" lon="1.38818">
        <ele>704.8</ele>
        <time>2022-05-22 13:24:24</time>
      </trkpt>
      <trkpt lat="42.32858" lon="1.38815">
        <ele>705</ele>
        <time>2022-05-22 13:24:25</time>
      </trkpt>
      <trkpt lat="42.32858" lon="1.38813">
        <ele>705.2</ele>
        <time>2022-05-22 13:24:26</time>
      </trkpt>
      <trkpt lat="42.32857" lon="1.38811">
        <ele>705.2</ele>
        <time>2022-05-22 13:24:27</time>
      </trkpt>
      <trkpt lat="42.32857" lon="1.38809">
        <ele>705.4</ele>
        <time>2022-05-22 13:24:28</time>
      </trkpt>
      <trkpt lat="42.32856" lon="1.38806">
        <ele>705.6</ele>
        <time>2022-05-22 13:24:29</time>
      </trkpt>
      <trkpt lat="42.32855" lon="1.38803">
        <ele>705.8</ele>
        <time>2022-05-22 13:24:30</time>
      </trkpt>
      <trkpt lat="42.32855" lon="1.38801">
        <ele>706</ele>
        <time>2022-05-22 13:24:31</time>
      </trkpt>
      <trkpt lat="42.32855" lon="1.38798">
        <ele>706</ele>
        <time>2022-05-22 13:24:32</time>
      </trkpt>
      <trkpt lat="42.32855" lon="1.38796">
        <ele>706.2</ele>
        <time>2022-05-22 13:24:33</time>
      </trkpt>
      <trkpt lat="42.32854" lon="1.38793">
        <ele>706.4</ele>
        <time>2022-05-22 13:24:34</time>
      </trkpt>
      <trkpt lat="42.32854" lon="1.3879">
        <ele>706.6</ele>
        <time>2022-05-22 13:24:35</time>
      </trkpt>
      <trkpt lat="42.32854" lon="1.38788">
        <ele>706.8</ele>
        <time>2022-05-22 13:24:36</time>
      </trkpt>
      <trkpt lat="42.32854" lon="1.38786">
        <ele>707</ele>
        <time>2022-05-22 13:24:37</time>
      </trkpt>
      <trkpt lat="42.32854" lon="1.38784">
        <ele>707</ele>
        <time>2022-05-22 13:24:38</time>
      </trkpt>
      <trkpt lat="42.32854" lon="1.3878">
        <ele>707.2</ele>
        <time>2022-05-22 13:24:39</time>
      </trkpt>
      <trkpt lat="42.32854" lon="1.38778">
        <ele>707.4</ele>
        <time>2022-05-22 13:24:40</time>
      </trkpt>
      <trkpt lat="42.32853" lon="1.38775">
        <ele>707.6</ele>
        <time>2022-05-22 13:24:41</time>
      </trkpt>
      <trkpt lat="42.32853" lon="1.38773">
        <ele>707.8</ele>
        <time>2022-05-22 13:24:42</time>
      </trkpt>
      <trkpt lat="42.32853" lon="1.38772">
        <ele>708</ele>
        <time>2022-05-22 13:24:43</time>
      </trkpt>
      <trkpt lat="42.32853" lon="1.38769">
        <ele>708.2</ele>
        <time>2022-05-22 13:24:44</time>
      </trkpt>
      <trkpt lat="42.32852" lon="1.38766">
        <ele>708.4</ele>
        <time>2022-05-22 13:24:45</time>
      </trkpt>
      <trkpt lat="42.32852" lon="1.38764">
        <ele>708.6</ele>
        <time>2022-05-22 13:24:46</time>
      </trkpt>
      <trkpt lat="42.32852" lon="1.38762">
        <ele>708.6</ele>
        <time>2022-05-22 13:24:47</time>
      </trkpt>
      <trkpt lat="42.32852" lon="1.38759">
        <ele>708.8</ele>
        <time>2022-05-22 13:24:48</time>
      </trkpt>
      <trkpt lat="42.32852" lon="1.38757">
        <ele>709</ele>
        <time>2022-05-22 13:24:49</time>
      </trkpt>
      <trkpt lat="42.32852" lon="1.38754">
        <ele>709.2</ele>
        <time>2022-05-22 13:24:50</time>
      </trkpt>
      <trkpt lat="42.32852" lon="1.38752">
        <ele>709.4</ele>
        <time>2022-05-22 13:24:51</time>
      </trkpt>
      <trkpt lat="42.32852" lon="1.3875">
        <ele>709.6</ele>
        <time>2022-05-22 13:24:52</time>
      </trkpt>
      <trkpt lat="42.32852" lon="1.38748">
        <ele>709.8</ele>
        <time>2022-05-22 13:24:53</time>
      </trkpt>
      <trkpt lat="42.32852" lon="1.38745">
        <ele>709.8</ele>
        <time>2022-05-22 13:24:54</time>
      </trkpt>
      <trkpt lat="42.32852" lon="1.38742">
        <ele>710</ele>
        <time>2022-05-22 13:24:55</time>
      </trkpt>
      <trkpt lat="42.32852" lon="1.3874">
        <ele>710.2</ele>
        <time>2022-05-22 13:24:56</time>
      </trkpt>
      <trkpt lat="42.32852" lon="1.38737">
        <ele>710.2</ele>
        <time>2022-05-22 13:24:57</time>
      </trkpt>
      <trkpt lat="42.32853" lon="1.38735">
        <ele>710.4</ele>
        <time>2022-05-22 13:24:58</time>
      </trkpt>
      <trkpt lat="42.32853" lon="1.38734">
        <ele>710.6</ele>
        <time>2022-05-22 13:24:59</time>
      </trkpt>
      <trkpt lat="42.32853" lon="1.3873">
        <ele>710.8</ele>
        <time>2022-05-22 13:25:00</time>
      </trkpt>
      <trkpt lat="42.32853" lon="1.38727">
        <ele>711</ele>
        <time>2022-05-22 13:25:01</time>
      </trkpt>
      <trkpt lat="42.32854" lon="1.38725">
        <ele>711.2</ele>
        <time>2022-05-22 13:25:02</time>
      </trkpt>
      <trkpt lat="42.32854" lon="1.38723">
        <ele>711.4</ele>
        <time>2022-05-22 13:25:03</time>
      </trkpt>
      <trkpt lat="42.32855" lon="1.3872">
        <ele>711.6</ele>
        <time>2022-05-22 13:25:04</time>
      </trkpt>
      <trkpt lat="42.32855" lon="1.38718">
        <ele>711.8</ele>
        <time>2022-05-22 13:25:05</time>
      </trkpt>
      <trkpt lat="42.32855" lon="1.38715">
        <ele>711.8</ele>
        <time>2022-05-22 13:25:06</time>
      </trkpt>
      <trkpt lat="42.32855" lon="1.38713">
        <ele>712.2</ele>
        <time>2022-05-22 13:25:07</time>
      </trkpt>
      <trkpt lat="42.32856" lon="1.3871">
        <ele>712.4</ele>
        <time>2022-05-22 13:25:08</time>
      </trkpt>
      <trkpt lat="42.32856" lon="1.38708">
        <ele>712.6</ele>
        <time>2022-05-22 13:25:09</time>
      </trkpt>
      <trkpt lat="42.32857" lon="1.38706">
        <ele>712.8</ele>
        <time>2022-05-22 13:25:10</time>
      </trkpt>
      <trkpt lat="42.32857" lon="1.38704">
        <ele>713</ele>
        <time>2022-05-22 13:25:11</time>
      </trkpt>
      <trkpt lat="42.32858" lon="1.38701">
        <ele>713.2</ele>
        <time>2022-05-22 13:25:12</time>
      </trkpt>
      <trkpt lat="42.32858" lon="1.38699">
        <ele>713.6</ele>
        <time>2022-05-22 13:25:13</time>
      </trkpt>
      <trkpt lat="42.32859" lon="1.38697">
        <ele>713.8</ele>
        <time>2022-05-22 13:25:14</time>
      </trkpt>
      <trkpt lat="42.3286" lon="1.38695">
        <ele>714</ele>
        <time>2022-05-22 13:25:15</time>
      </trkpt>
      <trkpt lat="42.32861" lon="1.38692">
        <ele>714.4</ele>
        <time>2022-05-22 13:25:16</time>
      </trkpt>
      <trkpt lat="42.32862" lon="1.38689">
        <ele>714.6</ele>
        <time>2022-05-22 13:25:17</time>
      </trkpt>
      <trkpt lat="42.32862" lon="1.38687">
        <ele>714.8</ele>
        <time>2022-05-22 13:25:18</time>
      </trkpt>
      <trkpt lat="42.32863" lon="1.38684">
        <ele>715</ele>
        <time>2022-05-22 13:25:19</time>
      </trkpt>
      <trkpt lat="42.32864" lon="1.38682">
        <ele>715</ele>
        <time>2022-05-22 13:25:20</time>
      </trkpt>
      <trkpt lat="42.32865" lon="1.3868">
        <ele>715.2</ele>
        <time>2022-05-22 13:25:21</time>
      </trkpt>
      <trkpt lat="42.32865" lon="1.38677">
        <ele>715.4</ele>
        <time>2022-05-22 13:25:22</time>
      </trkpt>
      <trkpt lat="42.32866" lon="1.38675">
        <ele>715.6</ele>
        <time>2022-05-22 13:25:23</time>
      </trkpt>
      <trkpt lat="42.32867" lon="1.38673">
        <ele>715.6</ele>
        <time>2022-05-22 13:25:24</time>
      </trkpt>
      <trkpt lat="42.32867" lon="1.38671">
        <ele>715.8</ele>
        <time>2022-05-22 13:25:25</time>
      </trkpt>
      <trkpt lat="42.32868" lon="1.38668">
        <ele>716.2</ele>
        <time>2022-05-22 13:25:26</time>
      </trkpt>
      <trkpt lat="42.32869" lon="1.38666">
        <ele>716.4</ele>
        <time>2022-05-22 13:25:27</time>
      </trkpt>
      <trkpt lat="42.3287" lon="1.38664">
        <ele>716.6</ele>
        <time>2022-05-22 13:25:28</time>
      </trkpt>
      <trkpt lat="42.3287" lon="1.38662">
        <ele>716.8</ele>
        <time>2022-05-22 13:25:29</time>
      </trkpt>
      <trkpt lat="42.32871" lon="1.38659">
        <ele>717</ele>
        <time>2022-05-22 13:25:30</time>
      </trkpt>
      <trkpt lat="42.32871" lon="1.38657">
        <ele>717</ele>
        <time>2022-05-22 13:25:31</time>
      </trkpt>
      <trkpt lat="42.32872" lon="1.38655">
        <ele>717.2</ele>
        <time>2022-05-22 13:25:32</time>
      </trkpt>
      <trkpt lat="42.32872" lon="1.38652">
        <ele>717.4</ele>
        <time>2022-05-22 13:25:33</time>
      </trkpt>
      <trkpt lat="42.32873" lon="1.3865">
        <ele>717.6</ele>
        <time>2022-05-22 13:25:34</time>
      </trkpt>
      <trkpt lat="42.32874" lon="1.38648">
        <ele>717.8</ele>
        <time>2022-05-22 13:25:35</time>
      </trkpt>
      <trkpt lat="42.32874" lon="1.38645">
        <ele>718</ele>
        <time>2022-05-22 13:25:36</time>
      </trkpt>
      <trkpt lat="42.32874" lon="1.38642">
        <ele>718.2</ele>
        <time>2022-05-22 13:25:37</time>
      </trkpt>
      <trkpt lat="42.32875" lon="1.3864">
        <ele>718.4</ele>
        <time>2022-05-22 13:25:38</time>
      </trkpt>
      <trkpt lat="42.32875" lon="1.38637">
        <ele>718.6</ele>
        <time>2022-05-22 13:25:39</time>
      </trkpt>
      <trkpt lat="42.32876" lon="1.38635">
        <ele>718.8</ele>
        <time>2022-05-22 13:25:40</time>
      </trkpt>
      <trkpt lat="42.32876" lon="1.38632">
        <ele>719</ele>
        <time>2022-05-22 13:25:41</time>
      </trkpt>
      <trkpt lat="42.32877" lon="1.3863">
        <ele>719.2</ele>
        <time>2022-05-22 13:25:42</time>
      </trkpt>
      <trkpt lat="42.32877" lon="1.38627">
        <ele>719.4</ele>
        <time>2022-05-22 13:25:43</time>
      </trkpt>
      <trkpt lat="42.32878" lon="1.38625">
        <ele>719.6</ele>
        <time>2022-05-22 13:25:44</time>
      </trkpt>
      <trkpt lat="42.32878" lon="1.38622">
        <ele>719.6</ele>
        <time>2022-05-22 13:25:45</time>
      </trkpt>
      <trkpt lat="42.32879" lon="1.3862">
        <ele>720</ele>
        <time>2022-05-22 13:25:46</time>
      </trkpt>
      <trkpt lat="42.32879" lon="1.38617">
        <ele>720</ele>
        <time>2022-05-22 13:25:47</time>
      </trkpt>
      <trkpt lat="42.32879" lon="1.38614">
        <ele>720.2</ele>
        <time>2022-05-22 13:25:48</time>
      </trkpt>
      <trkpt lat="42.32879" lon="1.38612">
        <ele>720.4</ele>
        <time>2022-05-22 13:25:49</time>
      </trkpt>
      <trkpt lat="42.3288" lon="1.38609">
        <ele>720.6</ele>
        <time>2022-05-22 13:25:50</time>
      </trkpt>
      <trkpt lat="42.3288" lon="1.38607">
        <ele>720.8</ele>
        <time>2022-05-22 13:25:51</time>
      </trkpt>
      <trkpt lat="42.32881" lon="1.38604">
        <ele>720.8</ele>
        <time>2022-05-22 13:25:52</time>
      </trkpt>
      <trkpt lat="42.32881" lon="1.38602">
        <ele>721</ele>
        <time>2022-05-22 13:25:53</time>
      </trkpt>
      <trkpt lat="42.32881" lon="1.38599">
        <ele>721.2</ele>
        <time>2022-05-22 13:25:54</time>
      </trkpt>
      <trkpt lat="42.32881" lon="1.38597">
        <ele>721.4</ele>
        <time>2022-05-22 13:25:55</time>
      </trkpt>
      <trkpt lat="42.32882" lon="1.38595">
        <ele>721.6</ele>
        <time>2022-05-22 13:25:56</time>
      </trkpt>
      <trkpt lat="42.32882" lon="1.38592">
        <ele>721.6</ele>
        <time>2022-05-22 13:25:57</time>
      </trkpt>
      <trkpt lat="42.32882" lon="1.3859">
        <ele>721.8</ele>
        <time>2022-05-22 13:25:58</time>
      </trkpt>
      <trkpt lat="42.32883" lon="1.38587">
        <ele>722</ele>
        <time>2022-05-22 13:25:59</time>
      </trkpt>
      <trkpt lat="42.32883" lon="1.38585">
        <ele>722.2</ele>
        <time>2022-05-22 13:26:00</time>
      </trkpt>
      <trkpt lat="42.32884" lon="1.38583">
        <ele>722.4</ele>
        <time>2022-05-22 13:26:01</time>
      </trkpt>
      <trkpt lat="42.32885" lon="1.3858">
        <ele>722.6</ele>
        <time>2022-05-22 13:26:02</time>
      </trkpt>
      <trkpt lat="42.32885" lon="1.38578">
        <ele>722.8</ele>
        <time>2022-05-22 13:26:03</time>
      </trkpt>
      <trkpt lat="42.32886" lon="1.38575">
        <ele>723</ele>
        <time>2022-05-22 13:26:04</time>
      </trkpt>
      <trkpt lat="42.32886" lon="1.38573">
        <ele>723</ele>
        <time>2022-05-22 13:26:05</time>
      </trkpt>
      <trkpt lat="42.32886" lon="1.38571">
        <ele>723.2</ele>
        <time>2022-05-22 13:26:06</time>
      </trkpt>
      <trkpt lat="42.32887" lon="1.38568">
        <ele>723.4</ele>
        <time>2022-05-22 13:26:07</time>
      </trkpt>
      <trkpt lat="42.32887" lon="1.38566">
        <ele>723.6</ele>
        <time>2022-05-22 13:26:08</time>
      </trkpt>
      <trkpt lat="42.32887" lon="1.38563">
        <ele>723.8</ele>
        <time>2022-05-22 13:26:09</time>
      </trkpt>
      <trkpt lat="42.32888" lon="1.38561">
        <ele>724</ele>
        <time>2022-05-22 13:26:10</time>
      </trkpt>
      <trkpt lat="42.32889" lon="1.38558">
        <ele>724</ele>
        <time>2022-05-22 13:26:11</time>
      </trkpt>
      <trkpt lat="42.32889" lon="1.38556">
        <ele>724.2</ele>
        <time>2022-05-22 13:26:12</time>
      </trkpt>
      <trkpt lat="42.3289" lon="1.38553">
        <ele>724.4</ele>
        <time>2022-05-22 13:26:13</time>
      </trkpt>
      <trkpt lat="42.3289" lon="1.38551">
        <ele>724.6</ele>
        <time>2022-05-22 13:26:14</time>
      </trkpt>
      <trkpt lat="42.32891" lon="1.38549">
        <ele>724.8</ele>
        <time>2022-05-22 13:26:15</time>
      </trkpt>
      <trkpt lat="42.32892" lon="1.38546">
        <ele>725</ele>
        <time>2022-05-22 13:26:16</time>
      </trkpt>
      <trkpt lat="42.32892" lon="1.38543">
        <ele>725.2</ele>
        <time>2022-05-22 13:26:17</time>
      </trkpt>
      <trkpt lat="42.32893" lon="1.38541">
        <ele>725.4</ele>
        <time>2022-05-22 13:26:18</time>
      </trkpt>
      <trkpt lat="42.32894" lon="1.38539">
        <ele>725.6</ele>
        <time>2022-05-22 13:26:19</time>
      </trkpt>
      <trkpt lat="42.32895" lon="1.38537">
        <ele>725.8</ele>
        <time>2022-05-22 13:26:20</time>
      </trkpt>
      <trkpt lat="42.32896" lon="1.38535">
        <ele>726</ele>
        <time>2022-05-22 13:26:21</time>
      </trkpt>
      <trkpt lat="42.32896" lon="1.38533">
        <ele>726.2</ele>
        <time>2022-05-22 13:26:22</time>
      </trkpt>
      <trkpt lat="42.32897" lon="1.38531">
        <ele>726.2</ele>
        <time>2022-05-22 13:26:23</time>
      </trkpt>
      <trkpt lat="42.32898" lon="1.38528">
        <ele>726.4</ele>
        <time>2022-05-22 13:26:24</time>
      </trkpt>
      <trkpt lat="42.32899" lon="1.38526">
        <ele>726.6</ele>
        <time>2022-05-22 13:26:25</time>
      </trkpt>
      <trkpt lat="42.329" lon="1.38524">
        <ele>726.8</ele>
        <time>2022-05-22 13:26:26</time>
      </trkpt>
      <trkpt lat="42.32902" lon="1.38522">
        <ele>727</ele>
        <time>2022-05-22 13:26:27</time>
      </trkpt>
      <trkpt lat="42.32903" lon="1.3852">
        <ele>727</ele>
        <time>2022-05-22 13:26:28</time>
      </trkpt>
      <trkpt lat="42.32905" lon="1.38518">
        <ele>727.2</ele>
        <time>2022-05-22 13:26:29</time>
      </trkpt>
      <trkpt lat="42.32906" lon="1.38516">
        <ele>727.4</ele>
        <time>2022-05-22 13:26:30</time>
      </trkpt>
      <trkpt lat="42.32908" lon="1.38514">
        <ele>727.4</ele>
        <time>2022-05-22 13:26:31</time>
      </trkpt>
      <trkpt lat="42.3291" lon="1.38512">
        <ele>727.6</ele>
        <time>2022-05-22 13:26:32</time>
      </trkpt>
      <trkpt lat="42.32911" lon="1.3851">
        <ele>727.6</ele>
        <time>2022-05-22 13:26:33</time>
      </trkpt>
      <trkpt lat="42.32913" lon="1.38508">
        <ele>727.8</ele>
        <time>2022-05-22 13:26:34</time>
      </trkpt>
      <trkpt lat="42.32914" lon="1.38505">
        <ele>727.8</ele>
        <time>2022-05-22 13:26:35</time>
      </trkpt>
      <trkpt lat="42.32916" lon="1.38503">
        <ele>728</ele>
        <time>2022-05-22 13:26:36</time>
      </trkpt>
      <trkpt lat="42.32918" lon="1.385">
        <ele>728</ele>
        <time>2022-05-22 13:26:37</time>
      </trkpt>
      <trkpt lat="42.3292" lon="1.38498">
        <ele>728.2</ele>
        <time>2022-05-22 13:26:38</time>
      </trkpt>
      <trkpt lat="42.32922" lon="1.38497">
        <ele>728.4</ele>
        <time>2022-05-22 13:26:39</time>
      </trkpt>
      <trkpt lat="42.32924" lon="1.38495">
        <ele>728.4</ele>
        <time>2022-05-22 13:26:40</time>
      </trkpt>
      <trkpt lat="42.32926" lon="1.38493">
        <ele>728.6</ele>
        <time>2022-05-22 13:26:41</time>
      </trkpt>
      <trkpt lat="42.32927" lon="1.38491">
        <ele>728.6</ele>
        <time>2022-05-22 13:26:42</time>
      </trkpt>
      <trkpt lat="42.32929" lon="1.38489">
        <ele>728.8</ele>
        <time>2022-05-22 13:26:43</time>
      </trkpt>
      <trkpt lat="42.3293" lon="1.38488">
        <ele>728.8</ele>
        <time>2022-05-22 13:26:44</time>
      </trkpt>
      <trkpt lat="42.32932" lon="1.38486">
        <ele>729</ele>
        <time>2022-05-22 13:26:45</time>
      </trkpt>
      <trkpt lat="42.32933" lon="1.38484">
        <ele>729.2</ele>
        <time>2022-05-22 13:26:46</time>
      </trkpt>
      <trkpt lat="42.32935" lon="1.38482">
        <ele>729.2</ele>
        <time>2022-05-22 13:26:47</time>
      </trkpt>
      <trkpt lat="42.32937" lon="1.38479">
        <ele>729.4</ele>
        <time>2022-05-22 13:26:48</time>
      </trkpt>
      <trkpt lat="42.32938" lon="1.38477">
        <ele>729.4</ele>
        <time>2022-05-22 13:26:49</time>
      </trkpt>
      <trkpt lat="42.32939" lon="1.38475">
        <ele>729.6</ele>
        <time>2022-05-22 13:26:50</time>
      </trkpt>
      <trkpt lat="42.32941" lon="1.38472">
        <ele>729.6</ele>
        <time>2022-05-22 13:26:51</time>
      </trkpt>
      <trkpt lat="42.32943" lon="1.3847">
        <ele>729.8</ele>
        <time>2022-05-22 13:26:52</time>
      </trkpt>
      <trkpt lat="42.32945" lon="1.38468">
        <ele>729.8</ele>
        <time>2022-05-22 13:26:53</time>
      </trkpt>
      <trkpt lat="42.32946" lon="1.38465">
        <ele>730</ele>
        <time>2022-05-22 13:26:54</time>
      </trkpt>
      <trkpt lat="42.32948" lon="1.38463">
        <ele>730.2</ele>
        <time>2022-05-22 13:26:55</time>
      </trkpt>
      <trkpt lat="42.32949" lon="1.38461">
        <ele>730.2</ele>
        <time>2022-05-22 13:26:56</time>
      </trkpt>
      <trkpt lat="42.32951" lon="1.38459">
        <ele>730.4</ele>
        <time>2022-05-22 13:26:57</time>
      </trkpt>
      <trkpt lat="42.32953" lon="1.38458">
        <ele>730.6</ele>
        <time>2022-05-22 13:26:58</time>
      </trkpt>
      <trkpt lat="42.32954" lon="1.38456">
        <ele>730.6</ele>
        <time>2022-05-22 13:26:59</time>
      </trkpt>
      <trkpt lat="42.32956" lon="1.38454">
        <ele>730.8</ele>
        <time>2022-05-22 13:27:00</time>
      </trkpt>
      <trkpt lat="42.32957" lon="1.38452">
        <ele>730.8</ele>
        <time>2022-05-22 13:27:01</time>
      </trkpt>
      <trkpt lat="42.32959" lon="1.3845">
        <ele>731</ele>
        <time>2022-05-22 13:27:02</time>
      </trkpt>
      <trkpt lat="42.3296" lon="1.38449">
        <ele>731.2</ele>
        <time>2022-05-22 13:27:03</time>
      </trkpt>
      <trkpt lat="42.32962" lon="1.38447">
        <ele>731.2</ele>
        <time>2022-05-22 13:27:04</time>
      </trkpt>
      <trkpt lat="42.32963" lon="1.38445">
        <ele>731.4</ele>
        <time>2022-05-22 13:27:05</time>
      </trkpt>
      <trkpt lat="42.32964" lon="1.38442">
        <ele>731.6</ele>
        <time>2022-05-22 13:27:06</time>
      </trkpt>
      <trkpt lat="42.32966" lon="1.3844">
        <ele>731.6</ele>
        <time>2022-05-22 13:27:07</time>
      </trkpt>
      <trkpt lat="42.32967" lon="1.38438">
        <ele>731.8</ele>
        <time>2022-05-22 13:27:08</time>
      </trkpt>
      <trkpt lat="42.32968" lon="1.38436">
        <ele>732</ele>
        <time>2022-05-22 13:27:09</time>
      </trkpt>
      <trkpt lat="42.3297" lon="1.38434">
        <ele>732</ele>
        <time>2022-05-22 13:27:10</time>
      </trkpt>
      <trkpt lat="42.32971" lon="1.38431">
        <ele>732.2</ele>
        <time>2022-05-22 13:27:11</time>
      </trkpt>
      <trkpt lat="42.32972" lon="1.38429">
        <ele>732.4</ele>
        <time>2022-05-22 13:27:12</time>
      </trkpt>
      <trkpt lat="42.32974" lon="1.38426">
        <ele>732.6</ele>
        <time>2022-05-22 13:27:13</time>
      </trkpt>
      <trkpt lat="42.32976" lon="1.38423">
        <ele>732.6</ele>
        <time>2022-05-22 13:27:14</time>
      </trkpt>
      <trkpt lat="42.32977" lon="1.3842">
        <ele>732.8</ele>
        <time>2022-05-22 13:27:15</time>
      </trkpt>
      <trkpt lat="42.32978" lon="1.38417">
        <ele>733</ele>
        <time>2022-05-22 13:27:16</time>
      </trkpt>
      <trkpt lat="42.32979" lon="1.38414">
        <ele>733</ele>
        <time>2022-05-22 13:27:17</time>
      </trkpt>
      <trkpt lat="42.3298" lon="1.38411">
        <ele>733.2</ele>
        <time>2022-05-22 13:27:18</time>
      </trkpt>
      <trkpt lat="42.32981" lon="1.38408">
        <ele>733.2</ele>
        <time>2022-05-22 13:27:19</time>
      </trkpt>
      <trkpt lat="42.32981" lon="1.38404">
        <ele>733.4</ele>
        <time>2022-05-22 13:27:20</time>
      </trkpt>
      <trkpt lat="42.32982" lon="1.38401">
        <ele>733.6</ele>
        <time>2022-05-22 13:27:21</time>
      </trkpt>
      <trkpt lat="42.32983" lon="1.38398">
        <ele>733.6</ele>
        <time>2022-05-22 13:27:22</time>
      </trkpt>
      <trkpt lat="42.32983" lon="1.38395">
        <ele>733.8</ele>
        <time>2022-05-22 13:27:23</time>
      </trkpt>
      <trkpt lat="42.32984" lon="1.38392">
        <ele>734</ele>
        <time>2022-05-22 13:27:24</time>
      </trkpt>
      <trkpt lat="42.32985" lon="1.38389">
        <ele>734</ele>
        <time>2022-05-22 13:27:25</time>
      </trkpt>
      <trkpt lat="42.32985" lon="1.38386">
        <ele>734.2</ele>
        <time>2022-05-22 13:27:26</time>
      </trkpt>
      <trkpt lat="42.32986" lon="1.38383">
        <ele>734.4</ele>
        <time>2022-05-22 13:27:27</time>
      </trkpt>
      <trkpt lat="42.32987" lon="1.3838">
        <ele>734.4</ele>
        <time>2022-05-22 13:27:28</time>
      </trkpt>
      <trkpt lat="42.32987" lon="1.38377">
        <ele>734.6</ele>
        <time>2022-05-22 13:27:29</time>
      </trkpt>
      <trkpt lat="42.32988" lon="1.38374">
        <ele>734.8</ele>
        <time>2022-05-22 13:27:30</time>
      </trkpt>
      <trkpt lat="42.32988" lon="1.38371">
        <ele>735</ele>
        <time>2022-05-22 13:27:31</time>
      </trkpt>
      <trkpt lat="42.32989" lon="1.38368">
        <ele>735.2</ele>
        <time>2022-05-22 13:27:32</time>
      </trkpt>
      <trkpt lat="42.32989" lon="1.38365">
        <ele>735.4</ele>
        <time>2022-05-22 13:27:33</time>
      </trkpt>
      <trkpt lat="42.32989" lon="1.38362">
        <ele>735.6</ele>
        <time>2022-05-22 13:27:34</time>
      </trkpt>
      <trkpt lat="42.3299" lon="1.38359">
        <ele>735.8</ele>
        <time>2022-05-22 13:27:35</time>
      </trkpt>
      <trkpt lat="42.3299" lon="1.38356">
        <ele>736</ele>
        <time>2022-05-22 13:27:36</time>
      </trkpt>
      <trkpt lat="42.3299" lon="1.38353">
        <ele>736</ele>
        <time>2022-05-22 13:27:37</time>
      </trkpt>
      <trkpt lat="42.32991" lon="1.3835">
        <ele>736.2</ele>
        <time>2022-05-22 13:27:38</time>
      </trkpt>
      <trkpt lat="42.32991" lon="1.38348">
        <ele>736.4</ele>
        <time>2022-05-22 13:27:39</time>
      </trkpt>
      <trkpt lat="42.32991" lon="1.38345">
        <ele>736.4</ele>
        <time>2022-05-22 13:27:40</time>
      </trkpt>
      <trkpt lat="42.32992" lon="1.38342">
        <ele>736.6</ele>
        <time>2022-05-22 13:27:41</time>
      </trkpt>
      <trkpt lat="42.32993" lon="1.38339">
        <ele>736.6</ele>
        <time>2022-05-22 13:27:42</time>
      </trkpt>
      <trkpt lat="42.32993" lon="1.38336">
        <ele>736.8</ele>
        <time>2022-05-22 13:27:43</time>
      </trkpt>
      <trkpt lat="42.32993" lon="1.38334">
        <ele>736.8</ele>
        <time>2022-05-22 13:27:44</time>
      </trkpt>
      <trkpt lat="42.32994" lon="1.38331">
        <ele>737</ele>
        <time>2022-05-22 13:27:45</time>
      </trkpt>
      <trkpt lat="42.32994" lon="1.38328">
        <ele>737.2</ele>
        <time>2022-05-22 13:27:46</time>
      </trkpt>
      <trkpt lat="42.32995" lon="1.38325">
        <ele>737.4</ele>
        <time>2022-05-22 13:27:47</time>
      </trkpt>
      <trkpt lat="42.32995" lon="1.38322">
        <ele>737.6</ele>
        <time>2022-05-22 13:27:48</time>
      </trkpt>
      <trkpt lat="42.32995" lon="1.38319">
        <ele>737.6</ele>
        <time>2022-05-22 13:27:49</time>
      </trkpt>
      <trkpt lat="42.32996" lon="1.38316">
        <ele>737.8</ele>
        <time>2022-05-22 13:27:50</time>
      </trkpt>
      <trkpt lat="42.32996" lon="1.38313">
        <ele>738</ele>
        <time>2022-05-22 13:27:51</time>
      </trkpt>
      <trkpt lat="42.32996" lon="1.3831">
        <ele>738.2</ele>
        <time>2022-05-22 13:27:52</time>
      </trkpt>
      <trkpt lat="42.32997" lon="1.38308">
        <ele>738.6</ele>
        <time>2022-05-22 13:27:53</time>
      </trkpt>
      <trkpt lat="42.32997" lon="1.38305">
        <ele>738.8</ele>
        <time>2022-05-22 13:27:54</time>
      </trkpt>
      <trkpt lat="42.32998" lon="1.38303">
        <ele>739</ele>
        <time>2022-05-22 13:27:55</time>
      </trkpt>
      <trkpt lat="42.32998" lon="1.383">
        <ele>739.2</ele>
        <time>2022-05-22 13:27:56</time>
      </trkpt>
      <trkpt lat="42.32999" lon="1.38297">
        <ele>739.4</ele>
        <time>2022-05-22 13:27:57</time>
      </trkpt>
      <trkpt lat="42.32999" lon="1.38295">
        <ele>739.6</ele>
        <time>2022-05-22 13:27:58</time>
      </trkpt>
      <trkpt lat="42.32999" lon="1.38292">
        <ele>739.8</ele>
        <time>2022-05-22 13:27:59</time>
      </trkpt>
      <trkpt lat="42.32999" lon="1.3829">
        <ele>740</ele>
        <time>2022-05-22 13:28:00</time>
      </trkpt>
      <trkpt lat="42.32999" lon="1.38287">
        <ele>740.2</ele>
        <time>2022-05-22 13:28:01</time>
      </trkpt>
      <trkpt lat="42.33" lon="1.38285">
        <ele>740.6</ele>
        <time>2022-05-22 13:28:02</time>
      </trkpt>
      <trkpt lat="42.33" lon="1.38282">
        <ele>740.8</ele>
        <time>2022-05-22 13:28:03</time>
      </trkpt>
      <trkpt lat="42.33001" lon="1.3828">
        <ele>741.2</ele>
        <time>2022-05-22 13:28:04</time>
      </trkpt>
      <trkpt lat="42.33001" lon="1.38277">
        <ele>741.6</ele>
        <time>2022-05-22 13:28:05</time>
      </trkpt>
      <trkpt lat="42.33001" lon="1.38275">
        <ele>741.8</ele>
        <time>2022-05-22 13:28:06</time>
      </trkpt>
      <trkpt lat="42.33001" lon="1.38272">
        <ele>742</ele>
        <time>2022-05-22 13:28:07</time>
      </trkpt>
      <trkpt lat="42.33001" lon="1.38269">
        <ele>742.4</ele>
        <time>2022-05-22 13:28:08</time>
      </trkpt>
      <trkpt lat="42.33002" lon="1.38266">
        <ele>742.6</ele>
        <time>2022-05-22 13:28:09</time>
      </trkpt>
      <trkpt lat="42.33002" lon="1.38264">
        <ele>742.8</ele>
        <time>2022-05-22 13:28:10</time>
      </trkpt>
      <trkpt lat="42.33002" lon="1.38261">
        <ele>743</ele>
        <time>2022-05-22 13:28:11</time>
      </trkpt>
      <trkpt lat="42.33002" lon="1.38258">
        <ele>743.4</ele>
        <time>2022-05-22 13:28:12</time>
      </trkpt>
      <trkpt lat="42.33002" lon="1.38256">
        <ele>743.6</ele>
        <time>2022-05-22 13:28:13</time>
      </trkpt>
      <trkpt lat="42.33002" lon="1.38253">
        <ele>743.8</ele>
        <time>2022-05-22 13:28:14</time>
      </trkpt>
      <trkpt lat="42.33003" lon="1.38251">
        <ele>744</ele>
        <time>2022-05-22 13:28:15</time>
      </trkpt>
      <trkpt lat="42.33003" lon="1.38248">
        <ele>744.4</ele>
        <time>2022-05-22 13:28:16</time>
      </trkpt>
      <trkpt lat="42.33003" lon="1.38246">
        <ele>744.6</ele>
        <time>2022-05-22 13:28:17</time>
      </trkpt>
      <trkpt lat="42.33003" lon="1.38243">
        <ele>744.8</ele>
        <time>2022-05-22 13:28:18</time>
      </trkpt>
      <trkpt lat="42.33003" lon="1.38241">
        <ele>745</ele>
        <time>2022-05-22 13:28:19</time>
      </trkpt>
      <trkpt lat="42.33003" lon="1.38238">
        <ele>745.2</ele>
        <time>2022-05-22 13:28:20</time>
      </trkpt>
      <trkpt lat="42.33004" lon="1.38236">
        <ele>745.4</ele>
        <time>2022-05-22 13:28:21</time>
      </trkpt>
      <trkpt lat="42.33004" lon="1.38233">
        <ele>745.6</ele>
        <time>2022-05-22 13:28:22</time>
      </trkpt>
      <trkpt lat="42.33004" lon="1.3823">
        <ele>745.8</ele>
        <time>2022-05-22 13:28:23</time>
      </trkpt>
      <trkpt lat="42.33004" lon="1.38227">
        <ele>746</ele>
        <time>2022-05-22 13:28:24</time>
      </trkpt>
      <trkpt lat="42.33003" lon="1.38224">
        <ele>746.2</ele>
        <time>2022-05-22 13:28:25</time>
      </trkpt>
      <trkpt lat="42.33003" lon="1.38221">
        <ele>746.4</ele>
        <time>2022-05-22 13:28:26</time>
      </trkpt>
      <trkpt lat="42.33003" lon="1.38219">
        <ele>746.6</ele>
        <time>2022-05-22 13:28:27</time>
      </trkpt>
      <trkpt lat="42.33002" lon="1.38216">
        <ele>747</ele>
        <time>2022-05-22 13:28:28</time>
      </trkpt>
      <trkpt lat="42.33002" lon="1.38213">
        <ele>747.2</ele>
        <time>2022-05-22 13:28:29</time>
      </trkpt>
      <trkpt lat="42.33001" lon="1.38211">
        <ele>747.4</ele>
        <time>2022-05-22 13:28:30</time>
      </trkpt>
      <trkpt lat="42.33" lon="1.38208">
        <ele>747.6</ele>
        <time>2022-05-22 13:28:31</time>
      </trkpt>
      <trkpt lat="42.32999" lon="1.38206">
        <ele>747.8</ele>
        <time>2022-05-22 13:28:32</time>
      </trkpt>
      <trkpt lat="42.32998" lon="1.38204">
        <ele>748</ele>
        <time>2022-05-22 13:28:33</time>
      </trkpt>
      <trkpt lat="42.32997" lon="1.38202">
        <ele>748.2</ele>
        <time>2022-05-22 13:28:34</time>
      </trkpt>
      <trkpt lat="42.32995" lon="1.382">
        <ele>748.4</ele>
        <time>2022-05-22 13:28:35</time>
      </trkpt>
      <trkpt lat="42.32994" lon="1.38198">
        <ele>748.6</ele>
        <time>2022-05-22 13:28:36</time>
      </trkpt>
      <trkpt lat="42.32992" lon="1.38196">
        <ele>748.8</ele>
        <time>2022-05-22 13:28:37</time>
      </trkpt>
      <trkpt lat="42.3299" lon="1.38195">
        <ele>749</ele>
        <time>2022-05-22 13:28:38</time>
      </trkpt>
      <trkpt lat="42.32989" lon="1.38193">
        <ele>749.2</ele>
        <time>2022-05-22 13:28:39</time>
      </trkpt>
      <trkpt lat="42.32987" lon="1.38193">
        <ele>749.2</ele>
        <time>2022-05-22 13:28:40</time>
      </trkpt>
      <trkpt lat="42.32985" lon="1.38192">
        <ele>749.4</ele>
        <time>2022-05-22 13:28:41</time>
      </trkpt>
      <trkpt lat="42.32983" lon="1.38191">
        <ele>749.6</ele>
        <time>2022-05-22 13:28:42</time>
      </trkpt>
      <trkpt lat="42.32981" lon="1.38191">
        <ele>749.8</ele>
        <time>2022-05-22 13:28:43</time>
      </trkpt>
      <trkpt lat="42.32979" lon="1.38191">
        <ele>749.8</ele>
        <time>2022-05-22 13:28:44</time>
      </trkpt>
      <trkpt lat="42.32977" lon="1.38191">
        <ele>750</ele>
        <time>2022-05-22 13:28:45</time>
      </trkpt>
      <trkpt lat="42.32975" lon="1.38191">
        <ele>750.2</ele>
        <time>2022-05-22 13:28:46</time>
      </trkpt>
      <trkpt lat="42.32973" lon="1.38191">
        <ele>750.4</ele>
        <time>2022-05-22 13:28:47</time>
      </trkpt>
      <trkpt lat="42.32971" lon="1.38192">
        <ele>750.6</ele>
        <time>2022-05-22 13:28:48</time>
      </trkpt>
      <trkpt lat="42.3297" lon="1.38193">
        <ele>750.8</ele>
        <time>2022-05-22 13:28:49</time>
      </trkpt>
      <trkpt lat="42.32968" lon="1.38193">
        <ele>751.2</ele>
        <time>2022-05-22 13:28:50</time>
      </trkpt>
      <trkpt lat="42.32966" lon="1.38195">
        <ele>751.4</ele>
        <time>2022-05-22 13:28:51</time>
      </trkpt>
      <trkpt lat="42.32964" lon="1.38196">
        <ele>751.4</ele>
        <time>2022-05-22 13:28:52</time>
      </trkpt>
      <trkpt lat="42.32962" lon="1.38197">
        <ele>751.6</ele>
        <time>2022-05-22 13:28:53</time>
      </trkpt>
      <trkpt lat="42.3296" lon="1.38198">
        <ele>751.8</ele>
        <time>2022-05-22 13:28:54</time>
      </trkpt>
      <trkpt lat="42.32958" lon="1.38199">
        <ele>752</ele>
        <time>2022-05-22 13:28:55</time>
      </trkpt>
      <trkpt lat="42.32957" lon="1.38201">
        <ele>752.2</ele>
        <time>2022-05-22 13:28:56</time>
      </trkpt>
      <trkpt lat="42.32955" lon="1.38202">
        <ele>752.4</ele>
        <time>2022-05-22 13:28:57</time>
      </trkpt>
      <trkpt lat="42.32953" lon="1.38204">
        <ele>752.6</ele>
        <time>2022-05-22 13:28:58</time>
      </trkpt>
      <trkpt lat="42.32951" lon="1.38205">
        <ele>752.8</ele>
        <time>2022-05-22 13:28:59</time>
      </trkpt>
      <trkpt lat="42.32949" lon="1.38206">
        <ele>753</ele>
        <time>2022-05-22 13:29:00</time>
      </trkpt>
      <trkpt lat="42.32947" lon="1.38207">
        <ele>753.2</ele>
        <time>2022-05-22 13:29:01</time>
      </trkpt>
      <trkpt lat="42.32945" lon="1.38208">
        <ele>753.4</ele>
        <time>2022-05-22 13:29:02</time>
      </trkpt>
      <trkpt lat="42.32943" lon="1.38209">
        <ele>753.6</ele>
        <time>2022-05-22 13:29:03</time>
      </trkpt>
      <trkpt lat="42.32941" lon="1.3821">
        <ele>753.8</ele>
        <time>2022-05-22 13:29:04</time>
      </trkpt>
      <trkpt lat="42.3294" lon="1.38212">
        <ele>754</ele>
        <time>2022-05-22 13:29:05</time>
      </trkpt>
      <trkpt lat="42.32938" lon="1.38214">
        <ele>754.2</ele>
        <time>2022-05-22 13:29:06</time>
      </trkpt>
      <trkpt lat="42.32936" lon="1.38215">
        <ele>754.4</ele>
        <time>2022-05-22 13:29:07</time>
      </trkpt>
      <trkpt lat="42.32934" lon="1.38217">
        <ele>754.6</ele>
        <time>2022-05-22 13:29:08</time>
      </trkpt>
      <trkpt lat="42.32932" lon="1.38218">
        <ele>754.8</ele>
        <time>2022-05-22 13:29:09</time>
      </trkpt>
      <trkpt lat="42.3293" lon="1.38219">
        <ele>755</ele>
        <time>2022-05-22 13:29:10</time>
      </trkpt>
      <trkpt lat="42.32928" lon="1.38221">
        <ele>755</ele>
        <time>2022-05-22 13:29:11</time>
      </trkpt>
      <trkpt lat="42.32926" lon="1.38222">
        <ele>755.2</ele>
        <time>2022-05-22 13:29:12</time>
      </trkpt>
      <trkpt lat="42.32924" lon="1.38223">
        <ele>755.4</ele>
        <time>2022-05-22 13:29:13</time>
      </trkpt>
      <trkpt lat="42.32921" lon="1.38223">
        <ele>755.6</ele>
        <time>2022-05-22 13:29:14</time>
      </trkpt>
      <trkpt lat="42.32919" lon="1.38224">
        <ele>755.6</ele>
        <time>2022-05-22 13:29:15</time>
      </trkpt>
      <trkpt lat="42.32917" lon="1.38224">
        <ele>755.8</ele>
        <time>2022-05-22 13:29:16</time>
      </trkpt>
      <trkpt lat="42.32915" lon="1.38224">
        <ele>756</ele>
        <time>2022-05-22 13:29:17</time>
      </trkpt>
      <trkpt lat="42.32913" lon="1.38224">
        <ele>756</ele>
        <time>2022-05-22 13:29:18</time>
      </trkpt>
      <trkpt lat="42.32911" lon="1.38223">
        <ele>756.2</ele>
        <time>2022-05-22 13:29:19</time>
      </trkpt>
      <trkpt lat="42.32908" lon="1.38223">
        <ele>756.6</ele>
        <time>2022-05-22 13:29:20</time>
      </trkpt>
      <trkpt lat="42.32906" lon="1.38222">
        <ele>756.8</ele>
        <time>2022-05-22 13:29:21</time>
      </trkpt>
      <trkpt lat="42.32904" lon="1.3822">
        <ele>757</ele>
        <time>2022-05-22 13:29:22</time>
      </trkpt>
      <trkpt lat="42.32902" lon="1.38219">
        <ele>757.2</ele>
        <time>2022-05-22 13:29:23</time>
      </trkpt>
      <trkpt lat="42.32901" lon="1.38218">
        <ele>757.4</ele>
        <time>2022-05-22 13:29:24</time>
      </trkpt>
      <trkpt lat="42.32899" lon="1.38217">
        <ele>757.6</ele>
        <time>2022-05-22 13:29:25</time>
      </trkpt>
      <trkpt lat="42.32897" lon="1.38215">
        <ele>757.8</ele>
        <time>2022-05-22 13:29:26</time>
      </trkpt>
      <trkpt lat="42.32895" lon="1.38214">
        <ele>758</ele>
        <time>2022-05-22 13:29:27</time>
      </trkpt>
      <trkpt lat="42.32893" lon="1.38212">
        <ele>758</ele>
        <time>2022-05-22 13:29:28</time>
      </trkpt>
      <trkpt lat="42.32892" lon="1.38211">
        <ele>758.2</ele>
        <time>2022-05-22 13:29:29</time>
      </trkpt>
      <trkpt lat="42.3289" lon="1.38209">
        <ele>758.4</ele>
        <time>2022-05-22 13:29:30</time>
      </trkpt>
      <trkpt lat="42.32889" lon="1.38207">
        <ele>758.4</ele>
        <time>2022-05-22 13:29:31</time>
      </trkpt>
      <trkpt lat="42.32887" lon="1.38205">
        <ele>758.4</ele>
        <time>2022-05-22 13:29:32</time>
      </trkpt>
      <trkpt lat="42.32886" lon="1.38204">
        <ele>758.6</ele>
        <time>2022-05-22 13:29:33</time>
      </trkpt>
      <trkpt lat="42.32885" lon="1.38202">
        <ele>758.8</ele>
        <time>2022-05-22 13:29:34</time>
      </trkpt>
      <trkpt lat="42.32883" lon="1.382">
        <ele>759</ele>
        <time>2022-05-22 13:29:35</time>
      </trkpt>
      <trkpt lat="42.32882" lon="1.38198">
        <ele>759.2</ele>
        <time>2022-05-22 13:29:36</time>
      </trkpt>
      <trkpt lat="42.3288" lon="1.38195">
        <ele>759.4</ele>
        <time>2022-05-22 13:29:37</time>
      </trkpt>
      <trkpt lat="42.32879" lon="1.38193">
        <ele>759.4</ele>
        <time>2022-05-22 13:29:38</time>
      </trkpt>
      <trkpt lat="42.32877" lon="1.38192">
        <ele>759.4</ele>
        <time>2022-05-22 13:29:39</time>
      </trkpt>
      <trkpt lat="42.32876" lon="1.3819">
        <ele>759.6</ele>
        <time>2022-05-22 13:29:40</time>
      </trkpt>
      <trkpt lat="42.32875" lon="1.38188">
        <ele>759.6</ele>
        <time>2022-05-22 13:29:41</time>
      </trkpt>
      <trkpt lat="42.32873" lon="1.38186">
        <ele>759.8</ele>
        <time>2022-05-22 13:29:42</time>
      </trkpt>
      <trkpt lat="42.32872" lon="1.38185">
        <ele>759.8</ele>
        <time>2022-05-22 13:29:43</time>
      </trkpt>
      <trkpt lat="42.3287" lon="1.38183">
        <ele>760</ele>
        <time>2022-05-22 13:29:44</time>
      </trkpt>
      <trkpt lat="42.32869" lon="1.38181">
        <ele>760.2</ele>
        <time>2022-05-22 13:29:45</time>
      </trkpt>
      <trkpt lat="42.32868" lon="1.38179">
        <ele>760.4</ele>
        <time>2022-05-22 13:29:46</time>
      </trkpt>
      <trkpt lat="42.32866" lon="1.38177">
        <ele>760.4</ele>
        <time>2022-05-22 13:29:47</time>
      </trkpt>
      <trkpt lat="42.32865" lon="1.38175">
        <ele>760.4</ele>
        <time>2022-05-22 13:29:48</time>
      </trkpt>
      <trkpt lat="42.32863" lon="1.38173">
        <ele>760.6</ele>
        <time>2022-05-22 13:29:49</time>
      </trkpt>
      <trkpt lat="42.32862" lon="1.38171">
        <ele>760.8</ele>
        <time>2022-05-22 13:29:50</time>
      </trkpt>
      <trkpt lat="42.3286" lon="1.3817">
        <ele>760.8</ele>
        <time>2022-05-22 13:29:51</time>
      </trkpt>
      <trkpt lat="42.32858" lon="1.38168">
        <ele>761</ele>
        <time>2022-05-22 13:29:52</time>
      </trkpt>
      <trkpt lat="42.32857" lon="1.38166">
        <ele>761.2</ele>
        <time>2022-05-22 13:29:53</time>
      </trkpt>
      <trkpt lat="42.32855" lon="1.38164">
        <ele>761.4</ele>
        <time>2022-05-22 13:29:54</time>
      </trkpt>
      <trkpt lat="42.32854" lon="1.38163">
        <ele>761.6</ele>
        <time>2022-05-22 13:29:55</time>
      </trkpt>
      <trkpt lat="42.32852" lon="1.38161">
        <ele>761.8</ele>
        <time>2022-05-22 13:29:56</time>
      </trkpt>
      <trkpt lat="42.32851" lon="1.38159">
        <ele>761.8</ele>
        <time>2022-05-22 13:29:57</time>
      </trkpt>
      <trkpt lat="42.3285" lon="1.38157">
        <ele>762</ele>
        <time>2022-05-22 13:29:58</time>
      </trkpt>
      <trkpt lat="42.32848" lon="1.38155">
        <ele>762.2</ele>
        <time>2022-05-22 13:29:59</time>
      </trkpt>
      <trkpt lat="42.32847" lon="1.38153">
        <ele>762.4</ele>
        <time>2022-05-22 13:30:00</time>
      </trkpt>
      <trkpt lat="42.32845" lon="1.38151">
        <ele>762.4</ele>
        <time>2022-05-22 13:30:01</time>
      </trkpt>
      <trkpt lat="42.32843" lon="1.38149">
        <ele>762.6</ele>
        <time>2022-05-22 13:30:02</time>
      </trkpt>
      <trkpt lat="42.32842" lon="1.38147">
        <ele>762.6</ele>
        <time>2022-05-22 13:30:03</time>
      </trkpt>
      <trkpt lat="42.32841" lon="1.38145">
        <ele>762.8</ele>
        <time>2022-05-22 13:30:04</time>
      </trkpt>
      <trkpt lat="42.32839" lon="1.38143">
        <ele>762.8</ele>
        <time>2022-05-22 13:30:05</time>
      </trkpt>
      <trkpt lat="42.32838" lon="1.38141">
        <ele>762.8</ele>
        <time>2022-05-22 13:30:06</time>
      </trkpt>
      <trkpt lat="42.32837" lon="1.38138">
        <ele>763</ele>
        <time>2022-05-22 13:30:07</time>
      </trkpt>
      <trkpt lat="42.32836" lon="1.38136">
        <ele>763</ele>
        <time>2022-05-22 13:30:08</time>
      </trkpt>
      <trkpt lat="42.32835" lon="1.38134">
        <ele>763.2</ele>
        <time>2022-05-22 13:30:09</time>
      </trkpt>
      <trkpt lat="42.32834" lon="1.38131">
        <ele>763.4</ele>
        <time>2022-05-22 13:30:10</time>
      </trkpt>
      <trkpt lat="42.32834" lon="1.38128">
        <ele>763.6</ele>
        <time>2022-05-22 13:30:11</time>
      </trkpt>
      <trkpt lat="42.32833" lon="1.38126">
        <ele>764</ele>
        <time>2022-05-22 13:30:12</time>
      </trkpt>
      <trkpt lat="42.32834" lon="1.38123">
        <ele>764.2</ele>
        <time>2022-05-22 13:30:13</time>
      </trkpt>
      <trkpt lat="42.32834" lon="1.3812">
        <ele>764.2</ele>
        <time>2022-05-22 13:30:14</time>
      </trkpt>
      <trkpt lat="42.32834" lon="1.38117">
        <ele>764.4</ele>
        <time>2022-05-22 13:30:15</time>
      </trkpt>
      <trkpt lat="42.32835" lon="1.38115">
        <ele>764.6</ele>
        <time>2022-05-22 13:30:16</time>
      </trkpt>
      <trkpt lat="42.32835" lon="1.38112">
        <ele>764.8</ele>
        <time>2022-05-22 13:30:17</time>
      </trkpt>
      <trkpt lat="42.32836" lon="1.3811">
        <ele>765</ele>
        <time>2022-05-22 13:30:18</time>
      </trkpt>
      <trkpt lat="42.32837" lon="1.38107">
        <ele>765.2</ele>
        <time>2022-05-22 13:30:19</time>
      </trkpt>
      <trkpt lat="42.32838" lon="1.38104">
        <ele>765.4</ele>
        <time>2022-05-22 13:30:20</time>
      </trkpt>
      <trkpt lat="42.32839" lon="1.38102">
        <ele>765.6</ele>
        <time>2022-05-22 13:30:21</time>
      </trkpt>
      <trkpt lat="42.3284" lon="1.38099">
        <ele>765.8</ele>
        <time>2022-05-22 13:30:22</time>
      </trkpt>
      <trkpt lat="42.32841" lon="1.38096">
        <ele>766</ele>
        <time>2022-05-22 13:30:23</time>
      </trkpt>
      <trkpt lat="42.32842" lon="1.38094">
        <ele>766.2</ele>
        <time>2022-05-22 13:30:24</time>
      </trkpt>
      <trkpt lat="42.32844" lon="1.38091">
        <ele>766.4</ele>
        <time>2022-05-22 13:30:25</time>
      </trkpt>
      <trkpt lat="42.32845" lon="1.38089">
        <ele>766.4</ele>
        <time>2022-05-22 13:30:26</time>
      </trkpt>
      <trkpt lat="42.32846" lon="1.38086">
        <ele>766.6</ele>
        <time>2022-05-22 13:30:27</time>
      </trkpt>
      <trkpt lat="42.32847" lon="1.38083">
        <ele>766.8</ele>
        <time>2022-05-22 13:30:28</time>
      </trkpt>
      <trkpt lat="42.32848" lon="1.38081">
        <ele>767</ele>
        <time>2022-05-22 13:30:29</time>
      </trkpt>
      <trkpt lat="42.32849" lon="1.38078">
        <ele>767.2</ele>
        <time>2022-05-22 13:30:30</time>
      </trkpt>
      <trkpt lat="42.3285" lon="1.38075">
        <ele>767.2</ele>
        <time>2022-05-22 13:30:31</time>
      </trkpt>
      <trkpt lat="42.32851" lon="1.38072">
        <ele>767.4</ele>
        <time>2022-05-22 13:30:32</time>
      </trkpt>
      <trkpt lat="42.32851" lon="1.38069">
        <ele>767.6</ele>
        <time>2022-05-22 13:30:33</time>
      </trkpt>
      <trkpt lat="42.32852" lon="1.38066">
        <ele>767.6</ele>
        <time>2022-05-22 13:30:34</time>
      </trkpt>
      <trkpt lat="42.32852" lon="1.38063">
        <ele>767.8</ele>
        <time>2022-05-22 13:30:35</time>
      </trkpt>
      <trkpt lat="42.32853" lon="1.3806">
        <ele>768</ele>
        <time>2022-05-22 13:30:36</time>
      </trkpt>
      <trkpt lat="42.32853" lon="1.38057">
        <ele>768.2</ele>
        <time>2022-05-22 13:30:37</time>
      </trkpt>
      <trkpt lat="42.32854" lon="1.38053">
        <ele>768.4</ele>
        <time>2022-05-22 13:30:38</time>
      </trkpt>
      <trkpt lat="42.32855" lon="1.3805">
        <ele>768.6</ele>
        <time>2022-05-22 13:30:39</time>
      </trkpt>
      <trkpt lat="42.32855" lon="1.38047">
        <ele>768.6</ele>
        <time>2022-05-22 13:30:40</time>
      </trkpt>
      <trkpt lat="42.32855" lon="1.38044">
        <ele>768.8</ele>
        <time>2022-05-22 13:30:41</time>
      </trkpt>
      <trkpt lat="42.32855" lon="1.3804">
        <ele>768.8</ele>
        <time>2022-05-22 13:30:42</time>
      </trkpt>
      <trkpt lat="42.32855" lon="1.38037">
        <ele>768.8</ele>
        <time>2022-05-22 13:30:43</time>
      </trkpt>
      <trkpt lat="42.32855" lon="1.38034">
        <ele>769</ele>
        <time>2022-05-22 13:30:44</time>
      </trkpt>
      <trkpt lat="42.32854" lon="1.38031">
        <ele>769</ele>
        <time>2022-05-22 13:30:45</time>
      </trkpt>
      <trkpt lat="42.32854" lon="1.38028">
        <ele>769.2</ele>
        <time>2022-05-22 13:30:46</time>
      </trkpt>
      <trkpt lat="42.32854" lon="1.38025">
        <ele>769.2</ele>
        <time>2022-05-22 13:30:47</time>
      </trkpt>
      <trkpt lat="42.32854" lon="1.38022">
        <ele>769.2</ele>
        <time>2022-05-22 13:30:48</time>
      </trkpt>
      <trkpt lat="42.32853" lon="1.38019">
        <ele>769.4</ele>
        <time>2022-05-22 13:30:49</time>
      </trkpt>
      <trkpt lat="42.32853" lon="1.38016">
        <ele>769.4</ele>
        <time>2022-05-22 13:30:50</time>
      </trkpt>
      <trkpt lat="42.32852" lon="1.38013">
        <ele>769.6</ele>
        <time>2022-05-22 13:30:51</time>
      </trkpt>
      <trkpt lat="42.32851" lon="1.3801">
        <ele>769.6</ele>
        <time>2022-05-22 13:30:52</time>
      </trkpt>
      <trkpt lat="42.32851" lon="1.38008">
        <ele>769.6</ele>
        <time>2022-05-22 13:30:53</time>
      </trkpt>
      <trkpt lat="42.3285" lon="1.38005">
        <ele>769.8</ele>
        <time>2022-05-22 13:30:54</time>
      </trkpt>
      <trkpt lat="42.32849" lon="1.38003">
        <ele>769.8</ele>
        <time>2022-05-22 13:30:55</time>
      </trkpt>
      <trkpt lat="42.32847" lon="1.38">
        <ele>770</ele>
        <time>2022-05-22 13:30:56</time>
      </trkpt>
      <trkpt lat="42.32846" lon="1.37997">
        <ele>770</ele>
        <time>2022-05-22 13:30:57</time>
      </trkpt>
      <trkpt lat="42.32845" lon="1.37995">
        <ele>770</ele>
        <time>2022-05-22 13:30:58</time>
      </trkpt>
      <trkpt lat="42.32843" lon="1.37992">
        <ele>770</ele>
        <time>2022-05-22 13:30:59</time>
      </trkpt>
      <trkpt lat="42.32842" lon="1.3799">
        <ele>770.2</ele>
        <time>2022-05-22 13:31:00</time>
      </trkpt>
      <trkpt lat="42.3284" lon="1.37988">
        <ele>770.2</ele>
        <time>2022-05-22 13:31:01</time>
      </trkpt>
      <trkpt lat="42.32839" lon="1.37985">
        <ele>770.4</ele>
        <time>2022-05-22 13:31:02</time>
      </trkpt>
      <trkpt lat="42.32837" lon="1.37983">
        <ele>770.4</ele>
        <time>2022-05-22 13:31:03</time>
      </trkpt>
      <trkpt lat="42.32836" lon="1.37981">
        <ele>770.6</ele>
        <time>2022-05-22 13:31:04</time>
      </trkpt>
      <trkpt lat="42.32834" lon="1.37979">
        <ele>770.6</ele>
        <time>2022-05-22 13:31:05</time>
      </trkpt>
      <trkpt lat="42.32833" lon="1.37977">
        <ele>770.8</ele>
        <time>2022-05-22 13:31:06</time>
      </trkpt>
      <trkpt lat="42.32831" lon="1.37975">
        <ele>770.8</ele>
        <time>2022-05-22 13:31:07</time>
      </trkpt>
      <trkpt lat="42.3283" lon="1.37973">
        <ele>771</ele>
        <time>2022-05-22 13:31:08</time>
      </trkpt>
      <trkpt lat="42.32829" lon="1.37971">
        <ele>771</ele>
        <time>2022-05-22 13:31:09</time>
      </trkpt>
      <trkpt lat="42.32827" lon="1.37969">
        <ele>771.2</ele>
        <time>2022-05-22 13:31:10</time>
      </trkpt>
      <trkpt lat="42.32825" lon="1.37968">
        <ele>771.4</ele>
        <time>2022-05-22 13:31:11</time>
      </trkpt>
      <trkpt lat="42.32824" lon="1.37966">
        <ele>771.6</ele>
        <time>2022-05-22 13:31:12</time>
      </trkpt>
      <trkpt lat="42.32822" lon="1.37965">
        <ele>771.8</ele>
        <time>2022-05-22 13:31:13</time>
      </trkpt>
      <trkpt lat="42.3282" lon="1.37963">
        <ele>772</ele>
        <time>2022-05-22 13:31:14</time>
      </trkpt>
      <trkpt lat="42.32818" lon="1.37961">
        <ele>772.2</ele>
        <time>2022-05-22 13:31:15</time>
      </trkpt>
      <trkpt lat="42.32817" lon="1.37959">
        <ele>772.4</ele>
        <time>2022-05-22 13:31:16</time>
      </trkpt>
      <trkpt lat="42.32815" lon="1.37957">
        <ele>772.6</ele>
        <time>2022-05-22 13:31:17</time>
      </trkpt>
      <trkpt lat="42.32814" lon="1.37955">
        <ele>773</ele>
        <time>2022-05-22 13:31:18</time>
      </trkpt>
      <trkpt lat="42.32812" lon="1.37954">
        <ele>773.4</ele>
        <time>2022-05-22 13:31:19</time>
      </trkpt>
      <trkpt lat="42.32811" lon="1.37952">
        <ele>773.6</ele>
        <time>2022-05-22 13:31:20</time>
      </trkpt>
      <trkpt lat="42.32809" lon="1.37951">
        <ele>773.8</ele>
        <time>2022-05-22 13:31:21</time>
      </trkpt>
      <trkpt lat="42.32808" lon="1.37949">
        <ele>774</ele>
        <time>2022-05-22 13:31:22</time>
      </trkpt>
      <trkpt lat="42.32806" lon="1.37947">
        <ele>774.2</ele>
        <time>2022-05-22 13:31:23</time>
      </trkpt>
      <trkpt lat="42.32804" lon="1.37945">
        <ele>774.6</ele>
        <time>2022-05-22 13:31:24</time>
      </trkpt>
      <trkpt lat="42.32802" lon="1.37943">
        <ele>774.8</ele>
        <time>2022-05-22 13:31:25</time>
      </trkpt>
      <trkpt lat="42.32801" lon="1.37941">
        <ele>775.2</ele>
        <time>2022-05-22 13:31:26</time>
      </trkpt>
      <trkpt lat="42.32799" lon="1.3794">
        <ele>775.2</ele>
        <time>2022-05-22 13:31:27</time>
      </trkpt>
      <trkpt lat="42.32797" lon="1.37939">
        <ele>775.4</ele>
        <time>2022-05-22 13:31:28</time>
      </trkpt>
      <trkpt lat="42.32796" lon="1.37938">
        <ele>775.6</ele>
        <time>2022-05-22 13:31:29</time>
      </trkpt>
      <trkpt lat="42.32794" lon="1.37936">
        <ele>775.8</ele>
        <time>2022-05-22 13:31:30</time>
      </trkpt>
      <trkpt lat="42.32792" lon="1.37935">
        <ele>775.8</ele>
        <time>2022-05-22 13:31:31</time>
      </trkpt>
      <trkpt lat="42.32791" lon="1.37933">
        <ele>776</ele>
        <time>2022-05-22 13:31:32</time>
      </trkpt>
      <trkpt lat="42.32789" lon="1.37931">
        <ele>776.2</ele>
        <time>2022-05-22 13:31:33</time>
      </trkpt>
      <trkpt lat="42.32788" lon="1.3793">
        <ele>776.4</ele>
        <time>2022-05-22 13:31:34</time>
      </trkpt>
      <trkpt lat="42.32786" lon="1.37929">
        <ele>776.6</ele>
        <time>2022-05-22 13:31:35</time>
      </trkpt>
      <trkpt lat="42.32785" lon="1.37927">
        <ele>777</ele>
        <time>2022-05-22 13:31:36</time>
      </trkpt>
      <trkpt lat="42.32783" lon="1.37926">
        <ele>777.2</ele>
        <time>2022-05-22 13:31:37</time>
      </trkpt>
      <trkpt lat="42.32782" lon="1.37924">
        <ele>777.4</ele>
        <time>2022-05-22 13:31:38</time>
      </trkpt>
      <trkpt lat="42.32781" lon="1.37923">
        <ele>777.6</ele>
        <time>2022-05-22 13:31:39</time>
      </trkpt>
      <trkpt lat="42.32779" lon="1.37922">
        <ele>777.8</ele>
        <time>2022-05-22 13:31:40</time>
      </trkpt>
      <trkpt lat="42.32778" lon="1.37921">
        <ele>778</ele>
        <time>2022-05-22 13:31:41</time>
      </trkpt>
      <trkpt lat="42.32776" lon="1.37919">
        <ele>778.2</ele>
        <time>2022-05-22 13:31:42</time>
      </trkpt>
      <trkpt lat="42.32776" lon="1.37918">
        <ele>778.4</ele>
        <time>2022-05-22 13:31:43</time>
      </trkpt>
      <trkpt lat="42.32775" lon="1.37916">
        <ele>778.6</ele>
        <time>2022-05-22 13:31:44</time>
      </trkpt>
      <trkpt lat="42.32773" lon="1.37915">
        <ele>778.8</ele>
        <time>2022-05-22 13:31:45</time>
      </trkpt>
      <trkpt lat="42.32772" lon="1.37913">
        <ele>779</ele>
        <time>2022-05-22 13:31:46</time>
      </trkpt>
      <trkpt lat="42.32771" lon="1.37912">
        <ele>779</ele>
        <time>2022-05-22 13:31:47</time>
      </trkpt>
      <trkpt lat="42.32769" lon="1.3791">
        <ele>779.2</ele>
        <time>2022-05-22 13:31:48</time>
      </trkpt>
      <trkpt lat="42.32768" lon="1.37909">
        <ele>779.4</ele>
        <time>2022-05-22 13:31:49</time>
      </trkpt>
      <trkpt lat="42.32767" lon="1.37907">
        <ele>779.4</ele>
        <time>2022-05-22 13:31:50</time>
      </trkpt>
      <trkpt lat="42.32766" lon="1.37906">
        <ele>779.6</ele>
        <time>2022-05-22 13:31:51</time>
      </trkpt>
      <trkpt lat="42.32764" lon="1.37905">
        <ele>779.8</ele>
        <time>2022-05-22 13:31:52</time>
      </trkpt>
      <trkpt lat="42.32763" lon="1.37904">
        <ele>779.8</ele>
        <time>2022-05-22 13:31:53</time>
      </trkpt>
      <trkpt lat="42.32761" lon="1.37903">
        <ele>780</ele>
        <time>2022-05-22 13:31:54</time>
      </trkpt>
      <trkpt lat="42.3276" lon="1.37901">
        <ele>780.2</ele>
        <time>2022-05-22 13:31:55</time>
      </trkpt>
      <trkpt lat="42.32758" lon="1.379">
        <ele>780.6</ele>
        <time>2022-05-22 13:31:56</time>
      </trkpt>
      <trkpt lat="42.32757" lon="1.37899">
        <ele>780.6</ele>
        <time>2022-05-22 13:31:57</time>
      </trkpt>
      <trkpt lat="42.32755" lon="1.37897">
        <ele>780.8</ele>
        <time>2022-05-22 13:31:58</time>
      </trkpt>
      <trkpt lat="42.32754" lon="1.37896">
        <ele>781</ele>
        <time>2022-05-22 13:31:59</time>
      </trkpt>
      <trkpt lat="42.32752" lon="1.37895">
        <ele>781.2</ele>
        <time>2022-05-22 13:32:00</time>
      </trkpt>
      <trkpt lat="42.32751" lon="1.37893">
        <ele>781.2</ele>
        <time>2022-05-22 13:32:01</time>
      </trkpt>
      <trkpt lat="42.3275" lon="1.37892">
        <ele>781.4</ele>
        <time>2022-05-22 13:32:02</time>
      </trkpt>
      <trkpt lat="42.32748" lon="1.3789">
        <ele>781.4</ele>
        <time>2022-05-22 13:32:03</time>
      </trkpt>
      <trkpt lat="42.32747" lon="1.37889">
        <ele>781.6</ele>
        <time>2022-05-22 13:32:04</time>
      </trkpt>
      <trkpt lat="42.32745" lon="1.37888">
        <ele>781.8</ele>
        <time>2022-05-22 13:32:05</time>
      </trkpt>
      <trkpt lat="42.32744" lon="1.37886">
        <ele>782</ele>
        <time>2022-05-22 13:32:06</time>
      </trkpt>
      <trkpt lat="42.32743" lon="1.37885">
        <ele>782.2</ele>
        <time>2022-05-22 13:32:07</time>
      </trkpt>
      <trkpt lat="42.32741" lon="1.37884">
        <ele>782.4</ele>
        <time>2022-05-22 13:32:08</time>
      </trkpt>
      <trkpt lat="42.32739" lon="1.37883">
        <ele>782.6</ele>
        <time>2022-05-22 13:32:09</time>
      </trkpt>
      <trkpt lat="42.32738" lon="1.37881">
        <ele>782.8</ele>
        <time>2022-05-22 13:32:10</time>
      </trkpt>
      <trkpt lat="42.32736" lon="1.3788">
        <ele>783</ele>
        <time>2022-05-22 13:32:11</time>
      </trkpt>
      <trkpt lat="42.32735" lon="1.37878">
        <ele>783</ele>
        <time>2022-05-22 13:32:12</time>
      </trkpt>
      <trkpt lat="42.32734" lon="1.37877">
        <ele>783.2</ele>
        <time>2022-05-22 13:32:13</time>
      </trkpt>
      <trkpt lat="42.32732" lon="1.37875">
        <ele>783.4</ele>
        <time>2022-05-22 13:32:14</time>
      </trkpt>
      <trkpt lat="42.32731" lon="1.37873">
        <ele>783.4</ele>
        <time>2022-05-22 13:32:15</time>
      </trkpt>
      <trkpt lat="42.32729" lon="1.37872">
        <ele>783.6</ele>
        <time>2022-05-22 13:32:16</time>
      </trkpt>
      <trkpt lat="42.32728" lon="1.3787">
        <ele>783.6</ele>
        <time>2022-05-22 13:32:17</time>
      </trkpt>
      <trkpt lat="42.32727" lon="1.37868">
        <ele>783.6</ele>
        <time>2022-05-22 13:32:18</time>
      </trkpt>
      <trkpt lat="42.32725" lon="1.37867">
        <ele>783.8</ele>
        <time>2022-05-22 13:32:19</time>
      </trkpt>
      <trkpt lat="42.32724" lon="1.37865">
        <ele>783.8</ele>
        <time>2022-05-22 13:32:20</time>
      </trkpt>
      <trkpt lat="42.32722" lon="1.37863">
        <ele>784</ele>
        <time>2022-05-22 13:32:21</time>
      </trkpt>
      <trkpt lat="42.32721" lon="1.37861">
        <ele>784</ele>
        <time>2022-05-22 13:32:22</time>
      </trkpt>
      <trkpt lat="42.32719" lon="1.3786">
        <ele>784.2</ele>
        <time>2022-05-22 13:32:23</time>
      </trkpt>
      <trkpt lat="42.32718" lon="1.37858">
        <ele>784.2</ele>
        <time>2022-05-22 13:32:24</time>
      </trkpt>
      <trkpt lat="42.32717" lon="1.37856">
        <ele>784.4</ele>
        <time>2022-05-22 13:32:25</time>
      </trkpt>
      <trkpt lat="42.32715" lon="1.37855">
        <ele>784.6</ele>
        <time>2022-05-22 13:32:26</time>
      </trkpt>
      <trkpt lat="42.32714" lon="1.37853">
        <ele>784.6</ele>
        <time>2022-05-22 13:32:27</time>
      </trkpt>
      <trkpt lat="42.32712" lon="1.37851">
        <ele>784.8</ele>
        <time>2022-05-22 13:32:28</time>
      </trkpt>
      <trkpt lat="42.32711" lon="1.37849">
        <ele>785</ele>
        <time>2022-05-22 13:32:29</time>
      </trkpt>
      <trkpt lat="42.3271" lon="1.37848">
        <ele>785</ele>
        <time>2022-05-22 13:32:30</time>
      </trkpt>
      <trkpt lat="42.32707" lon="1.37845">
        <ele>785</ele>
        <time>2022-05-22 13:32:31</time>
      </trkpt>
      <trkpt lat="42.32706" lon="1.37843">
        <ele>785.2</ele>
        <time>2022-05-22 13:32:32</time>
      </trkpt>
      <trkpt lat="42.32705" lon="1.37841">
        <ele>785.2</ele>
        <time>2022-05-22 13:32:33</time>
      </trkpt>
      <trkpt lat="42.32703" lon="1.37838">
        <ele>785.2</ele>
        <time>2022-05-22 13:32:34</time>
      </trkpt>
      <trkpt lat="42.32702" lon="1.37836">
        <ele>785.4</ele>
        <time>2022-05-22 13:32:35</time>
      </trkpt>
      <trkpt lat="42.32701" lon="1.37834">
        <ele>785.4</ele>
        <time>2022-05-22 13:32:36</time>
      </trkpt>
      <trkpt lat="42.32699" lon="1.37832">
        <ele>785.4</ele>
        <time>2022-05-22 13:32:37</time>
      </trkpt>
      <trkpt lat="42.32697" lon="1.37829">
        <ele>785.4</ele>
        <time>2022-05-22 13:32:38</time>
      </trkpt>
      <trkpt lat="42.32696" lon="1.37826">
        <ele>785.6</ele>
        <time>2022-05-22 13:32:39</time>
      </trkpt>
      <trkpt lat="42.32695" lon="1.37823">
        <ele>785.8</ele>
        <time>2022-05-22 13:32:40</time>
      </trkpt>
      <trkpt lat="42.32695" lon="1.37821">
        <ele>785.8</ele>
        <time>2022-05-22 13:32:41</time>
      </trkpt>
      <trkpt lat="42.32694" lon="1.37817">
        <ele>785.8</ele>
        <time>2022-05-22 13:32:42</time>
      </trkpt>
      <trkpt lat="42.32693" lon="1.37814">
        <ele>786</ele>
        <time>2022-05-22 13:32:43</time>
      </trkpt>
      <trkpt lat="42.32692" lon="1.37811">
        <ele>786</ele>
        <time>2022-05-22 13:32:44</time>
      </trkpt>
      <trkpt lat="42.32691" lon="1.37809">
        <ele>786.2</ele>
        <time>2022-05-22 13:32:45</time>
      </trkpt>
      <trkpt lat="42.32689" lon="1.37805">
        <ele>786.2</ele>
        <time>2022-05-22 13:32:46</time>
      </trkpt>
      <trkpt lat="42.32687" lon="1.37802">
        <ele>786.4</ele>
        <time>2022-05-22 13:32:47</time>
      </trkpt>
      <trkpt lat="42.32686" lon="1.37799">
        <ele>786.4</ele>
        <time>2022-05-22 13:32:48</time>
      </trkpt>
      <trkpt lat="42.32684" lon="1.37797">
        <ele>786.4</ele>
        <time>2022-05-22 13:32:49</time>
      </trkpt>
      <trkpt lat="42.32682" lon="1.37794">
        <ele>786.6</ele>
        <time>2022-05-22 13:32:50</time>
      </trkpt>
      <trkpt lat="42.3268" lon="1.37792">
        <ele>786.6</ele>
        <time>2022-05-22 13:32:51</time>
      </trkpt>
      <trkpt lat="42.32679" lon="1.3779">
        <ele>786.8</ele>
        <time>2022-05-22 13:32:52</time>
      </trkpt>
      <trkpt lat="42.32677" lon="1.37788">
        <ele>786.8</ele>
        <time>2022-05-22 13:32:53</time>
      </trkpt>
      <trkpt lat="42.32676" lon="1.37785">
        <ele>787</ele>
        <time>2022-05-22 13:32:54</time>
      </trkpt>
      <trkpt lat="42.32675" lon="1.37783">
        <ele>787</ele>
        <time>2022-05-22 13:32:55</time>
      </trkpt>
      <trkpt lat="42.32673" lon="1.37782">
        <ele>787.2</ele>
        <time>2022-05-22 13:32:56</time>
      </trkpt>
      <trkpt lat="42.32671" lon="1.3778">
        <ele>787.4</ele>
        <time>2022-05-22 13:32:57</time>
      </trkpt>
      <trkpt lat="42.32669" lon="1.37778">
        <ele>787.4</ele>
        <time>2022-05-22 13:32:58</time>
      </trkpt>
      <trkpt lat="42.32667" lon="1.37776">
        <ele>787.6</ele>
        <time>2022-05-22 13:32:59</time>
      </trkpt>
      <trkpt lat="42.32666" lon="1.37775">
        <ele>787.6</ele>
        <time>2022-05-22 13:33:00</time>
      </trkpt>
      <trkpt lat="42.32664" lon="1.37773">
        <ele>787.8</ele>
        <time>2022-05-22 13:33:01</time>
      </trkpt>
      <trkpt lat="42.32662" lon="1.37772">
        <ele>788</ele>
        <time>2022-05-22 13:33:02</time>
      </trkpt>
      <trkpt lat="42.32661" lon="1.3777">
        <ele>788.2</ele>
        <time>2022-05-22 13:33:03</time>
      </trkpt>
      <trkpt lat="42.32659" lon="1.37768">
        <ele>788.4</ele>
        <time>2022-05-22 13:33:04</time>
      </trkpt>
      <trkpt lat="42.32657" lon="1.37767">
        <ele>788.6</ele>
        <time>2022-05-22 13:33:05</time>
      </trkpt>
      <trkpt lat="42.32656" lon="1.37766">
        <ele>788.8</ele>
        <time>2022-05-22 13:33:06</time>
      </trkpt>
      <trkpt lat="42.32654" lon="1.37765">
        <ele>788.8</ele>
        <time>2022-05-22 13:33:07</time>
      </trkpt>
      <trkpt lat="42.32653" lon="1.37764">
        <ele>789</ele>
        <time>2022-05-22 13:33:08</time>
      </trkpt>
      <trkpt lat="42.32651" lon="1.37762">
        <ele>789.4</ele>
        <time>2022-05-22 13:33:09</time>
      </trkpt>
      <trkpt lat="42.32649" lon="1.37761">
        <ele>789.6</ele>
        <time>2022-05-22 13:33:10</time>
      </trkpt>
      <trkpt lat="42.32647" lon="1.3776">
        <ele>789.8</ele>
        <time>2022-05-22 13:33:11</time>
      </trkpt>
      <trkpt lat="42.32646" lon="1.37758">
        <ele>790</ele>
        <time>2022-05-22 13:33:12</time>
      </trkpt>
      <trkpt lat="42.32645" lon="1.37757">
        <ele>790.2</ele>
        <time>2022-05-22 13:33:13</time>
      </trkpt>
      <trkpt lat="42.32643" lon="1.37755">
        <ele>790.4</ele>
        <time>2022-05-22 13:33:14</time>
      </trkpt>
      <trkpt lat="42.32641" lon="1.37754">
        <ele>790.8</ele>
        <time>2022-05-22 13:33:15</time>
      </trkpt>
      <trkpt lat="42.32639" lon="1.37753">
        <ele>791</ele>
        <time>2022-05-22 13:33:16</time>
      </trkpt>
      <trkpt lat="42.32638" lon="1.37752">
        <ele>791.2</ele>
        <time>2022-05-22 13:33:17</time>
      </trkpt>
      <trkpt lat="42.32637" lon="1.37751">
        <ele>791.4</ele>
        <time>2022-05-22 13:33:18</time>
      </trkpt>
      <trkpt lat="42.32635" lon="1.3775">
        <ele>791.6</ele>
        <time>2022-05-22 13:33:19</time>
      </trkpt>
      <trkpt lat="42.32633" lon="1.37749">
        <ele>791.8</ele>
        <time>2022-05-22 13:33:20</time>
      </trkpt>
      <trkpt lat="42.32631" lon="1.37748">
        <ele>792</ele>
        <time>2022-05-22 13:33:21</time>
      </trkpt>
      <trkpt lat="42.3263" lon="1.37747">
        <ele>792</ele>
        <time>2022-05-22 13:33:22</time>
      </trkpt>
      <trkpt lat="42.32629" lon="1.37746">
        <ele>792.2</ele>
        <time>2022-05-22 13:33:23</time>
      </trkpt>
      <trkpt lat="42.32627" lon="1.37746">
        <ele>792.4</ele>
        <time>2022-05-22 13:33:24</time>
      </trkpt>
      <trkpt lat="42.32626" lon="1.37745">
        <ele>792.6</ele>
        <time>2022-05-22 13:33:25</time>
      </trkpt>
      <trkpt lat="42.32624" lon="1.37744">
        <ele>792.8</ele>
        <time>2022-05-22 13:33:26</time>
      </trkpt>
      <trkpt lat="42.32622" lon="1.37742">
        <ele>793</ele>
        <time>2022-05-22 13:33:27</time>
      </trkpt>
      <trkpt lat="42.32621" lon="1.37741">
        <ele>793.2</ele>
        <time>2022-05-22 13:33:28</time>
      </trkpt>
      <trkpt lat="42.3262" lon="1.37739">
        <ele>793.4</ele>
        <time>2022-05-22 13:33:29</time>
      </trkpt>
      <trkpt lat="42.32619" lon="1.37738">
        <ele>793.4</ele>
        <time>2022-05-22 13:33:30</time>
      </trkpt>
      <trkpt lat="42.32618" lon="1.37736">
        <ele>793.6</ele>
        <time>2022-05-22 13:33:31</time>
      </trkpt>
      <trkpt lat="42.32616" lon="1.37735">
        <ele>793.8</ele>
        <time>2022-05-22 13:33:32</time>
      </trkpt>
      <trkpt lat="42.32615" lon="1.37734">
        <ele>793.8</ele>
        <time>2022-05-22 13:33:33</time>
      </trkpt>
      <trkpt lat="42.32614" lon="1.37732">
        <ele>794</ele>
        <time>2022-05-22 13:33:34</time>
      </trkpt>
      <trkpt lat="42.32613" lon="1.37731">
        <ele>794.2</ele>
        <time>2022-05-22 13:33:35</time>
      </trkpt>
      <trkpt lat="42.32612" lon="1.3773">
        <ele>794.2</ele>
        <time>2022-05-22 13:33:36</time>
      </trkpt>
      <trkpt lat="42.3261" lon="1.37728">
        <ele>794.4</ele>
        <time>2022-05-22 13:33:37</time>
      </trkpt>
      <trkpt lat="42.32609" lon="1.37726">
        <ele>794.6</ele>
        <time>2022-05-22 13:33:38</time>
      </trkpt>
      <trkpt lat="42.32608" lon="1.37725">
        <ele>794.8</ele>
        <time>2022-05-22 13:33:39</time>
      </trkpt>
      <trkpt lat="42.32606" lon="1.37723">
        <ele>795.2</ele>
        <time>2022-05-22 13:33:40</time>
      </trkpt>
      <trkpt lat="42.32605" lon="1.37721">
        <ele>795.4</ele>
        <time>2022-05-22 13:33:41</time>
      </trkpt>
      <trkpt lat="42.32605" lon="1.3772">
        <ele>795.6</ele>
        <time>2022-05-22 13:33:42</time>
      </trkpt>
      <trkpt lat="42.32603" lon="1.37717">
        <ele>795.8</ele>
        <time>2022-05-22 13:33:43</time>
      </trkpt>
      <trkpt lat="42.32603" lon="1.37716">
        <ele>796</ele>
        <time>2022-05-22 13:33:44</time>
      </trkpt>
      <trkpt lat="42.32602" lon="1.37714">
        <ele>796</ele>
        <time>2022-05-22 13:33:45</time>
      </trkpt>
      <trkpt lat="42.32601" lon="1.37712">
        <ele>796.2</ele>
        <time>2022-05-22 13:33:46</time>
      </trkpt>
      <trkpt lat="42.32601" lon="1.37711">
        <ele>796.4</ele>
        <time>2022-05-22 13:33:47</time>
      </trkpt>
      <trkpt lat="42.326" lon="1.37709">
        <ele>796.4</ele>
        <time>2022-05-22 13:33:48</time>
      </trkpt>
      <trkpt lat="42.326" lon="1.37707">
        <ele>796.6</ele>
        <time>2022-05-22 13:33:49</time>
      </trkpt>
      <trkpt lat="42.32599" lon="1.37705">
        <ele>796.8</ele>
        <time>2022-05-22 13:33:50</time>
      </trkpt>
      <trkpt lat="42.32599" lon="1.37703">
        <ele>797</ele>
        <time>2022-05-22 13:33:51</time>
      </trkpt>
      <trkpt lat="42.32598" lon="1.37701">
        <ele>797.2</ele>
        <time>2022-05-22 13:33:52</time>
      </trkpt>
      <trkpt lat="42.32598" lon="1.37699">
        <ele>797.4</ele>
        <time>2022-05-22 13:33:53</time>
      </trkpt>
      <trkpt lat="42.32597" lon="1.37698">
        <ele>797.4</ele>
        <time>2022-05-22 13:33:54</time>
      </trkpt>
      <trkpt lat="42.32596" lon="1.37696">
        <ele>797.6</ele>
        <time>2022-05-22 13:33:55</time>
      </trkpt>
      <trkpt lat="42.32595" lon="1.37694">
        <ele>797.8</ele>
        <time>2022-05-22 13:33:56</time>
      </trkpt>
      <trkpt lat="42.32595" lon="1.37692">
        <ele>798</ele>
        <time>2022-05-22 13:33:57</time>
      </trkpt>
      <trkpt lat="42.32595" lon="1.3769">
        <ele>798.2</ele>
        <time>2022-05-22 13:33:58</time>
      </trkpt>
      <trkpt lat="42.32594" lon="1.37688">
        <ele>798.4</ele>
        <time>2022-05-22 13:33:59</time>
      </trkpt>
      <trkpt lat="42.32594" lon="1.37686">
        <ele>798.4</ele>
        <time>2022-05-22 13:34:00</time>
      </trkpt>
      <trkpt lat="42.32593" lon="1.37684">
        <ele>798.6</ele>
        <time>2022-05-22 13:34:01</time>
      </trkpt>
      <trkpt lat="42.32593" lon="1.37681">
        <ele>798.8</ele>
        <time>2022-05-22 13:34:02</time>
      </trkpt>
      <trkpt lat="42.32592" lon="1.37678">
        <ele>799</ele>
        <time>2022-05-22 13:34:03</time>
      </trkpt>
      <trkpt lat="42.32591" lon="1.37676">
        <ele>799.2</ele>
        <time>2022-05-22 13:34:04</time>
      </trkpt>
      <trkpt lat="42.32591" lon="1.37674">
        <ele>799.4</ele>
        <time>2022-05-22 13:34:05</time>
      </trkpt>
      <trkpt lat="42.32591" lon="1.37672">
        <ele>799.4</ele>
        <time>2022-05-22 13:34:06</time>
      </trkpt>
      <trkpt lat="42.32591" lon="1.3767">
        <ele>799.6</ele>
        <time>2022-05-22 13:34:07</time>
      </trkpt>
      <trkpt lat="42.3259" lon="1.37667">
        <ele>799.8</ele>
        <time>2022-05-22 13:34:08</time>
      </trkpt>
      <trkpt lat="42.3259" lon="1.37665">
        <ele>800</ele>
        <time>2022-05-22 13:34:09</time>
      </trkpt>
      <trkpt lat="42.32589" lon="1.37663">
        <ele>800.2</ele>
        <time>2022-05-22 13:34:10</time>
      </trkpt>
      <trkpt lat="42.32589" lon="1.37661">
        <ele>800.2</ele>
        <time>2022-05-22 13:34:11</time>
      </trkpt>
      <trkpt lat="42.32589" lon="1.37659">
        <ele>800.4</ele>
        <time>2022-05-22 13:34:12</time>
      </trkpt>
      <trkpt lat="42.32588" lon="1.37656">
        <ele>800.6</ele>
        <time>2022-05-22 13:34:13</time>
      </trkpt>
      <trkpt lat="42.32588" lon="1.37654">
        <ele>800.6</ele>
        <time>2022-05-22 13:34:14</time>
      </trkpt>
      <trkpt lat="42.32588" lon="1.37652">
        <ele>800.8</ele>
        <time>2022-05-22 13:34:15</time>
      </trkpt>
      <trkpt lat="42.32587" lon="1.3765">
        <ele>801</ele>
        <time>2022-05-22 13:34:16</time>
      </trkpt>
      <trkpt lat="42.32586" lon="1.37648">
        <ele>801.2</ele>
        <time>2022-05-22 13:34:17</time>
      </trkpt>
      <trkpt lat="42.32586" lon="1.37646">
        <ele>801.2</ele>
        <time>2022-05-22 13:34:18</time>
      </trkpt>
      <trkpt lat="42.32585" lon="1.37644">
        <ele>801.4</ele>
        <time>2022-05-22 13:34:19</time>
      </trkpt>
      <trkpt lat="42.32585" lon="1.37642">
        <ele>801.8</ele>
        <time>2022-05-22 13:34:20</time>
      </trkpt>
      <trkpt lat="42.32584" lon="1.3764">
        <ele>802</ele>
        <time>2022-05-22 13:34:21</time>
      </trkpt>
      <trkpt lat="42.32583" lon="1.37638">
        <ele>802.4</ele>
        <time>2022-05-22 13:34:22</time>
      </trkpt>
      <trkpt lat="42.32582" lon="1.37636">
        <ele>802.6</ele>
        <time>2022-05-22 13:34:23</time>
      </trkpt>
      <trkpt lat="42.32581" lon="1.37635">
        <ele>802.8</ele>
        <time>2022-05-22 13:34:24</time>
      </trkpt>
      <trkpt lat="42.32581" lon="1.37633">
        <ele>802.8</ele>
        <time>2022-05-22 13:34:25</time>
      </trkpt>
      <trkpt lat="42.3258" lon="1.37631">
        <ele>803</ele>
        <time>2022-05-22 13:34:26</time>
      </trkpt>
      <trkpt lat="42.32579" lon="1.37629">
        <ele>803</ele>
        <time>2022-05-22 13:34:27</time>
      </trkpt>
      <trkpt lat="42.32578" lon="1.37628">
        <ele>803.2</ele>
        <time>2022-05-22 13:34:28</time>
      </trkpt>
      <trkpt lat="42.32577" lon="1.37626">
        <ele>803.2</ele>
        <time>2022-05-22 13:34:29</time>
      </trkpt>
      <trkpt lat="42.32575" lon="1.37624">
        <ele>803.4</ele>
        <time>2022-05-22 13:34:30</time>
      </trkpt>
      <trkpt lat="42.32574" lon="1.37623">
        <ele>803.6</ele>
        <time>2022-05-22 13:34:31</time>
      </trkpt>
      <trkpt lat="42.32573" lon="1.37621">
        <ele>803.8</ele>
        <time>2022-05-22 13:34:32</time>
      </trkpt>
      <trkpt lat="42.32571" lon="1.3762">
        <ele>804</ele>
        <time>2022-05-22 13:34:33</time>
      </trkpt>
      <trkpt lat="42.3257" lon="1.37618">
        <ele>804.2</ele>
        <time>2022-05-22 13:34:34</time>
      </trkpt>
      <trkpt lat="42.32568" lon="1.37617">
        <ele>804.4</ele>
        <time>2022-05-22 13:34:35</time>
      </trkpt>
      <trkpt lat="42.32566" lon="1.37615">
        <ele>804.6</ele>
        <time>2022-05-22 13:34:36</time>
      </trkpt>
      <trkpt lat="42.32564" lon="1.37614">
        <ele>804.6</ele>
        <time>2022-05-22 13:34:37</time>
      </trkpt>
      <trkpt lat="42.32563" lon="1.37613">
        <ele>804.8</ele>
        <time>2022-05-22 13:34:38</time>
      </trkpt>
      <trkpt lat="42.32561" lon="1.37612">
        <ele>805</ele>
        <time>2022-05-22 13:34:39</time>
      </trkpt>
      <trkpt lat="42.32559" lon="1.37611">
        <ele>805.2</ele>
        <time>2022-05-22 13:34:40</time>
      </trkpt>
      <trkpt lat="42.32557" lon="1.3761">
        <ele>805.4</ele>
        <time>2022-05-22 13:34:41</time>
      </trkpt>
      <trkpt lat="42.32556" lon="1.37609">
        <ele>805.4</ele>
        <time>2022-05-22 13:34:42</time>
      </trkpt>
      <trkpt lat="42.32554" lon="1.37609">
        <ele>805.6</ele>
        <time>2022-05-22 13:34:43</time>
      </trkpt>
      <trkpt lat="42.32552" lon="1.37608">
        <ele>805.8</ele>
        <time>2022-05-22 13:34:44</time>
      </trkpt>
      <trkpt lat="42.3255" lon="1.37607">
        <ele>806</ele>
        <time>2022-05-22 13:34:45</time>
      </trkpt>
      <trkpt lat="42.32549" lon="1.37605">
        <ele>806.2</ele>
        <time>2022-05-22 13:34:46</time>
      </trkpt>
      <trkpt lat="42.32547" lon="1.37604">
        <ele>806.4</ele>
        <time>2022-05-22 13:34:47</time>
      </trkpt>
      <trkpt lat="42.32546" lon="1.37603">
        <ele>806.6</ele>
        <time>2022-05-22 13:34:48</time>
      </trkpt>
      <trkpt lat="42.32544" lon="1.37602">
        <ele>807</ele>
        <time>2022-05-22 13:34:49</time>
      </trkpt>
      <trkpt lat="42.32543" lon="1.376">
        <ele>807.2</ele>
        <time>2022-05-22 13:34:50</time>
      </trkpt>
      <trkpt lat="42.32541" lon="1.37599">
        <ele>807.4</ele>
        <time>2022-05-22 13:34:51</time>
      </trkpt>
      <trkpt lat="42.3254" lon="1.37598">
        <ele>807.6</ele>
        <time>2022-05-22 13:34:52</time>
      </trkpt>
      <trkpt lat="42.32539" lon="1.37597">
        <ele>807.8</ele>
        <time>2022-05-22 13:34:53</time>
      </trkpt>
      <trkpt lat="42.32538" lon="1.37596">
        <ele>808</ele>
        <time>2022-05-22 13:34:54</time>
      </trkpt>
      <trkpt lat="42.32537" lon="1.37594">
        <ele>808.6</ele>
        <time>2022-05-22 13:34:55</time>
      </trkpt>
      <trkpt lat="42.32536" lon="1.37593">
        <ele>808.8</ele>
        <time>2022-05-22 13:34:56</time>
      </trkpt>
      <trkpt lat="42.32535" lon="1.37591">
        <ele>809</ele>
        <time>2022-05-22 13:34:57</time>
      </trkpt>
      <trkpt lat="42.32535" lon="1.3759">
        <ele>809</ele>
        <time>2022-05-22 13:34:58</time>
      </trkpt>
      <trkpt lat="42.32534" lon="1.37588">
        <ele>809.2</ele>
        <time>2022-05-22 13:34:59</time>
      </trkpt>
      <trkpt lat="42.32534" lon="1.37587">
        <ele>809.4</ele>
        <time>2022-05-22 13:35:00</time>
      </trkpt>
      <trkpt lat="42.32534" lon="1.37586">
        <ele>809.6</ele>
        <time>2022-05-22 13:35:01</time>
      </trkpt>
      <trkpt lat="42.32534" lon="1.37584">
        <ele>809.8</ele>
        <time>2022-05-22 13:35:02</time>
      </trkpt>
      <trkpt lat="42.32534" lon="1.37582">
        <ele>810</ele>
        <time>2022-05-22 13:35:03</time>
      </trkpt>
      <trkpt lat="42.32534" lon="1.3758">
        <ele>810.2</ele>
        <time>2022-05-22 13:35:04</time>
      </trkpt>
      <trkpt lat="42.32535" lon="1.37578">
        <ele>810.6</ele>
        <time>2022-05-22 13:35:05</time>
      </trkpt>
      <trkpt lat="42.32535" lon="1.37576">
        <ele>810.8</ele>
        <time>2022-05-22 13:35:06</time>
      </trkpt>
      <trkpt lat="42.32536" lon="1.37575">
        <ele>811</ele>
        <time>2022-05-22 13:35:07</time>
      </trkpt>
      <trkpt lat="42.32536" lon="1.37574">
        <ele>811.2</ele>
        <time>2022-05-22 13:35:08</time>
      </trkpt>
      <trkpt lat="42.32537" lon="1.37572">
        <ele>811.4</ele>
        <time>2022-05-22 13:35:09</time>
      </trkpt>
      <trkpt lat="42.32538" lon="1.3757">
        <ele>811.6</ele>
        <time>2022-05-22 13:35:10</time>
      </trkpt>
      <trkpt lat="42.32539" lon="1.37568">
        <ele>811.8</ele>
        <time>2022-05-22 13:35:11</time>
      </trkpt>
      <trkpt lat="42.3254" lon="1.37566">
        <ele>812</ele>
        <time>2022-05-22 13:35:12</time>
      </trkpt>
      <trkpt lat="42.32541" lon="1.37565">
        <ele>812.2</ele>
        <time>2022-05-22 13:35:13</time>
      </trkpt>
      <trkpt lat="42.32543" lon="1.37563">
        <ele>812.4</ele>
        <time>2022-05-22 13:35:14</time>
      </trkpt>
      <trkpt lat="42.32544" lon="1.37562">
        <ele>812.4</ele>
        <time>2022-05-22 13:35:15</time>
      </trkpt>
      <trkpt lat="42.32545" lon="1.37559">
        <ele>812.6</ele>
        <time>2022-05-22 13:35:16</time>
      </trkpt>
      <trkpt lat="42.32546" lon="1.37557">
        <ele>812.6</ele>
        <time>2022-05-22 13:35:17</time>
      </trkpt>
      <trkpt lat="42.32547" lon="1.37555">
        <ele>812.8</ele>
        <time>2022-05-22 13:35:18</time>
      </trkpt>
      <trkpt lat="42.32548" lon="1.37553">
        <ele>812.8</ele>
        <time>2022-05-22 13:35:19</time>
      </trkpt>
      <trkpt lat="42.32549" lon="1.3755">
        <ele>813</ele>
        <time>2022-05-22 13:35:20</time>
      </trkpt>
      <trkpt lat="42.3255" lon="1.37547">
        <ele>813</ele>
        <time>2022-05-22 13:35:21</time>
      </trkpt>
      <trkpt lat="42.3255" lon="1.37545">
        <ele>813.2</ele>
        <time>2022-05-22 13:35:22</time>
      </trkpt>
      <trkpt lat="42.3255" lon="1.37542">
        <ele>813.2</ele>
        <time>2022-05-22 13:35:23</time>
      </trkpt>
      <trkpt lat="42.3255" lon="1.37539">
        <ele>813.2</ele>
        <time>2022-05-22 13:35:24</time>
      </trkpt>
      <trkpt lat="42.32549" lon="1.37536">
        <ele>813.4</ele>
        <time>2022-05-22 13:35:25</time>
      </trkpt>
      <trkpt lat="42.32549" lon="1.37534">
        <ele>813.6</ele>
        <time>2022-05-22 13:35:26</time>
      </trkpt>
      <trkpt lat="42.32548" lon="1.37531">
        <ele>813.6</ele>
        <time>2022-05-22 13:35:27</time>
      </trkpt>
      <trkpt lat="42.32546" lon="1.37529">
        <ele>813.8</ele>
        <time>2022-05-22 13:35:28</time>
      </trkpt>
      <trkpt lat="42.32545" lon="1.37528">
        <ele>813.8</ele>
        <time>2022-05-22 13:35:29</time>
      </trkpt>
      <trkpt lat="42.32544" lon="1.37526">
        <ele>814</ele>
        <time>2022-05-22 13:35:30</time>
      </trkpt>
      <trkpt lat="42.32542" lon="1.37524">
        <ele>814.2</ele>
        <time>2022-05-22 13:35:31</time>
      </trkpt>
      <trkpt lat="42.32541" lon="1.37523">
        <ele>814.4</ele>
        <time>2022-05-22 13:35:32</time>
      </trkpt>
      <trkpt lat="42.32539" lon="1.37522">
        <ele>814.6</ele>
        <time>2022-05-22 13:35:33</time>
      </trkpt>
      <trkpt lat="42.32537" lon="1.37521">
        <ele>814.6</ele>
        <time>2022-05-22 13:35:34</time>
      </trkpt>
      <trkpt lat="42.32535" lon="1.37521">
        <ele>814.8</ele>
        <time>2022-05-22 13:35:35</time>
      </trkpt>
      <trkpt lat="42.32533" lon="1.3752">
        <ele>815</ele>
        <time>2022-05-22 13:35:36</time>
      </trkpt>
      <trkpt lat="42.32531" lon="1.37518">
        <ele>815.2</ele>
        <time>2022-05-22 13:35:37</time>
      </trkpt>
      <trkpt lat="42.32529" lon="1.37518">
        <ele>815.2</ele>
        <time>2022-05-22 13:35:38</time>
      </trkpt>
      <trkpt lat="42.32528" lon="1.37517">
        <ele>815.4</ele>
        <time>2022-05-22 13:35:39</time>
      </trkpt>
      <trkpt lat="42.32526" lon="1.37516">
        <ele>815.6</ele>
        <time>2022-05-22 13:35:40</time>
      </trkpt>
      <trkpt lat="42.32524" lon="1.37515">
        <ele>815.8</ele>
        <time>2022-05-22 13:35:41</time>
      </trkpt>
      <trkpt lat="42.32523" lon="1.37514">
        <ele>816</ele>
        <time>2022-05-22 13:35:42</time>
      </trkpt>
      <trkpt lat="42.32521" lon="1.37513">
        <ele>816.2</ele>
        <time>2022-05-22 13:35:43</time>
      </trkpt>
      <trkpt lat="42.32519" lon="1.37512">
        <ele>816.4</ele>
        <time>2022-05-22 13:35:44</time>
      </trkpt>
      <trkpt lat="42.32517" lon="1.37511">
        <ele>816.4</ele>
        <time>2022-05-22 13:35:45</time>
      </trkpt>
      <trkpt lat="42.32515" lon="1.37509">
        <ele>816.6</ele>
        <time>2022-05-22 13:35:46</time>
      </trkpt>
      <trkpt lat="42.32513" lon="1.37508">
        <ele>816.8</ele>
        <time>2022-05-22 13:35:47</time>
      </trkpt>
      <trkpt lat="42.32511" lon="1.37507">
        <ele>817</ele>
        <time>2022-05-22 13:35:48</time>
      </trkpt>
      <trkpt lat="42.32509" lon="1.37506">
        <ele>817</ele>
        <time>2022-05-22 13:35:49</time>
      </trkpt>
      <trkpt lat="42.32507" lon="1.37505">
        <ele>817.2</ele>
        <time>2022-05-22 13:35:50</time>
      </trkpt>
      <trkpt lat="42.32505" lon="1.37504">
        <ele>817.2</ele>
        <time>2022-05-22 13:35:51</time>
      </trkpt>
      <trkpt lat="42.32503" lon="1.37503">
        <ele>817.4</ele>
        <time>2022-05-22 13:35:52</time>
      </trkpt>
      <trkpt lat="42.32501" lon="1.37502">
        <ele>817.6</ele>
        <time>2022-05-22 13:35:53</time>
      </trkpt>
      <trkpt lat="42.325" lon="1.37501">
        <ele>817.8</ele>
        <time>2022-05-22 13:35:54</time>
      </trkpt>
      <trkpt lat="42.32498" lon="1.375">
        <ele>818</ele>
        <time>2022-05-22 13:35:55</time>
      </trkpt>
      <trkpt lat="42.32496" lon="1.37499">
        <ele>818</ele>
        <time>2022-05-22 13:35:56</time>
      </trkpt>
      <trkpt lat="42.32494" lon="1.37498">
        <ele>818</ele>
        <time>2022-05-22 13:35:57</time>
      </trkpt>
      <trkpt lat="42.32492" lon="1.37497">
        <ele>818.2</ele>
        <time>2022-05-22 13:35:58</time>
      </trkpt>
      <trkpt lat="42.3249" lon="1.37496">
        <ele>818.2</ele>
        <time>2022-05-22 13:35:59</time>
      </trkpt>
      <trkpt lat="42.32489" lon="1.37495">
        <ele>818.4</ele>
        <time>2022-05-22 13:36:00</time>
      </trkpt>
      <trkpt lat="42.32486" lon="1.37494">
        <ele>818.4</ele>
        <time>2022-05-22 13:36:01</time>
      </trkpt>
      <trkpt lat="42.32484" lon="1.37493">
        <ele>818.4</ele>
        <time>2022-05-22 13:36:02</time>
      </trkpt>
      <trkpt lat="42.32483" lon="1.37492">
        <ele>818.6</ele>
        <time>2022-05-22 13:36:03</time>
      </trkpt>
      <trkpt lat="42.3248" lon="1.37491">
        <ele>818.6</ele>
        <time>2022-05-22 13:36:04</time>
      </trkpt>
      <trkpt lat="42.32478" lon="1.3749">
        <ele>818.6</ele>
        <time>2022-05-22 13:36:05</time>
      </trkpt>
      <trkpt lat="42.32476" lon="1.37489">
        <ele>818.8</ele>
        <time>2022-05-22 13:36:06</time>
      </trkpt>
      <trkpt lat="42.32474" lon="1.37488">
        <ele>818.8</ele>
        <time>2022-05-22 13:36:07</time>
      </trkpt>
      <trkpt lat="42.32472" lon="1.37487">
        <ele>819</ele>
        <time>2022-05-22 13:36:08</time>
      </trkpt>
      <trkpt lat="42.3247" lon="1.37485">
        <ele>819</ele>
        <time>2022-05-22 13:36:09</time>
      </trkpt>
      <trkpt lat="42.32468" lon="1.37484">
        <ele>819.2</ele>
        <time>2022-05-22 13:36:10</time>
      </trkpt>
      <trkpt lat="42.32466" lon="1.37483">
        <ele>819.4</ele>
        <time>2022-05-22 13:36:11</time>
      </trkpt>
      <trkpt lat="42.32464" lon="1.37481">
        <ele>819.8</ele>
        <time>2022-05-22 13:36:12</time>
      </trkpt>
      <trkpt lat="42.32462" lon="1.3748">
        <ele>819.8</ele>
        <time>2022-05-22 13:36:13</time>
      </trkpt>
      <trkpt lat="42.32461" lon="1.37479">
        <ele>820</ele>
        <time>2022-05-22 13:36:14</time>
      </trkpt>
      <trkpt lat="42.32458" lon="1.37478">
        <ele>820</ele>
        <time>2022-05-22 13:36:15</time>
      </trkpt>
      <trkpt lat="42.32456" lon="1.37476">
        <ele>820</ele>
        <time>2022-05-22 13:36:16</time>
      </trkpt>
      <trkpt lat="42.32454" lon="1.37474">
        <ele>820</ele>
        <time>2022-05-22 13:36:17</time>
      </trkpt>
      <trkpt lat="42.32452" lon="1.37473">
        <ele>820.2</ele>
        <time>2022-05-22 13:36:18</time>
      </trkpt>
      <trkpt lat="42.3245" lon="1.37471">
        <ele>820.4</ele>
        <time>2022-05-22 13:36:19</time>
      </trkpt>
      <trkpt lat="42.32449" lon="1.37469">
        <ele>820.6</ele>
        <time>2022-05-22 13:36:20</time>
      </trkpt>
      <trkpt lat="42.32447" lon="1.37467">
        <ele>820.6</ele>
        <time>2022-05-22 13:36:21</time>
      </trkpt>
      <trkpt lat="42.32446" lon="1.37465">
        <ele>820.8</ele>
        <time>2022-05-22 13:36:22</time>
      </trkpt>
      <trkpt lat="42.32445" lon="1.37463">
        <ele>820.8</ele>
        <time>2022-05-22 13:36:23</time>
      </trkpt>
      <trkpt lat="42.32443" lon="1.37461">
        <ele>821</ele>
        <time>2022-05-22 13:36:24</time>
      </trkpt>
      <trkpt lat="42.32442" lon="1.37459">
        <ele>821</ele>
        <time>2022-05-22 13:36:25</time>
      </trkpt>
      <trkpt lat="42.32441" lon="1.37457">
        <ele>821.2</ele>
        <time>2022-05-22 13:36:26</time>
      </trkpt>
      <trkpt lat="42.32439" lon="1.37453">
        <ele>821</ele>
        <time>2022-05-22 13:36:27</time>
      </trkpt>
      <trkpt lat="42.32438" lon="1.37451">
        <ele>821</ele>
        <time>2022-05-22 13:36:28</time>
      </trkpt>
      <trkpt lat="42.32437" lon="1.37448">
        <ele>821</ele>
        <time>2022-05-22 13:36:29</time>
      </trkpt>
      <trkpt lat="42.32436" lon="1.37445">
        <ele>821.2</ele>
        <time>2022-05-22 13:36:30</time>
      </trkpt>
      <trkpt lat="42.32435" lon="1.37443">
        <ele>821.4</ele>
        <time>2022-05-22 13:36:31</time>
      </trkpt>
      <trkpt lat="42.32434" lon="1.37441">
        <ele>821.6</ele>
        <time>2022-05-22 13:36:32</time>
      </trkpt>
      <trkpt lat="42.32433" lon="1.37437">
        <ele>821.6</ele>
        <time>2022-05-22 13:36:33</time>
      </trkpt>
      <trkpt lat="42.32432" lon="1.37435">
        <ele>821.8</ele>
        <time>2022-05-22 13:36:34</time>
      </trkpt>
      <trkpt lat="42.32431" lon="1.37432">
        <ele>821.6</ele>
        <time>2022-05-22 13:36:35</time>
      </trkpt>
      <trkpt lat="42.3243" lon="1.37429">
        <ele>821.6</ele>
        <time>2022-05-22 13:36:36</time>
      </trkpt>
      <trkpt lat="42.32429" lon="1.37427">
        <ele>821.8</ele>
        <time>2022-05-22 13:36:37</time>
      </trkpt>
      <trkpt lat="42.32428" lon="1.37423">
        <ele>821.8</ele>
        <time>2022-05-22 13:36:38</time>
      </trkpt>
      <trkpt lat="42.32427" lon="1.3742">
        <ele>822</ele>
        <time>2022-05-22 13:36:39</time>
      </trkpt>
      <trkpt lat="42.32426" lon="1.37418">
        <ele>822.2</ele>
        <time>2022-05-22 13:36:40</time>
      </trkpt>
      <trkpt lat="42.32425" lon="1.37415">
        <ele>822.4</ele>
        <time>2022-05-22 13:36:41</time>
      </trkpt>
      <trkpt lat="42.32425" lon="1.37411">
        <ele>822.6</ele>
        <time>2022-05-22 13:36:42</time>
      </trkpt>
      <trkpt lat="42.32424" lon="1.37408">
        <ele>822.8</ele>
        <time>2022-05-22 13:36:43</time>
      </trkpt>
      <trkpt lat="42.32423" lon="1.37405">
        <ele>822.8</ele>
        <time>2022-05-22 13:36:44</time>
      </trkpt>
      <trkpt lat="42.32422" lon="1.37403">
        <ele>822.8</ele>
        <time>2022-05-22 13:36:45</time>
      </trkpt>
      <trkpt lat="42.32421" lon="1.374">
        <ele>822.8</ele>
        <time>2022-05-22 13:36:46</time>
      </trkpt>
      <trkpt lat="42.32419" lon="1.37397">
        <ele>822.8</ele>
        <time>2022-05-22 13:36:47</time>
      </trkpt>
      <trkpt lat="42.32419" lon="1.37395">
        <ele>822.8</ele>
        <time>2022-05-22 13:36:48</time>
      </trkpt>
      <trkpt lat="42.32418" lon="1.37392">
        <ele>822.8</ele>
        <time>2022-05-22 13:36:49</time>
      </trkpt>
      <trkpt lat="42.32417" lon="1.37389">
        <ele>823</ele>
        <time>2022-05-22 13:36:50</time>
      </trkpt>
      <trkpt lat="42.32416" lon="1.37387">
        <ele>823</ele>
        <time>2022-05-22 13:36:51</time>
      </trkpt>
      <trkpt lat="42.32415" lon="1.37384">
        <ele>823.2</ele>
        <time>2022-05-22 13:36:52</time>
      </trkpt>
      <trkpt lat="42.32414" lon="1.37382">
        <ele>823.2</ele>
        <time>2022-05-22 13:36:53</time>
      </trkpt>
      <trkpt lat="42.32413" lon="1.37381">
        <ele>823.4</ele>
        <time>2022-05-22 13:36:54</time>
      </trkpt>
      <trkpt lat="42.32412" lon="1.37377">
        <ele>823.4</ele>
        <time>2022-05-22 13:36:55</time>
      </trkpt>
      <trkpt lat="42.32411" lon="1.37375">
        <ele>823.6</ele>
        <time>2022-05-22 13:36:56</time>
      </trkpt>
      <trkpt lat="42.3241" lon="1.37372">
        <ele>823.6</ele>
        <time>2022-05-22 13:36:57</time>
      </trkpt>
      <trkpt lat="42.3241" lon="1.37369">
        <ele>823.8</ele>
        <time>2022-05-22 13:36:58</time>
      </trkpt>
      <trkpt lat="42.32409" lon="1.37366">
        <ele>824</ele>
        <time>2022-05-22 13:36:59</time>
      </trkpt>
      <trkpt lat="42.32408" lon="1.37364">
        <ele>824</ele>
        <time>2022-05-22 13:37:00</time>
      </trkpt>
      <trkpt lat="42.32408" lon="1.37361">
        <ele>824</ele>
        <time>2022-05-22 13:37:01</time>
      </trkpt>
      <trkpt lat="42.32407" lon="1.37358">
        <ele>824.2</ele>
        <time>2022-05-22 13:37:02</time>
      </trkpt>
      <trkpt lat="42.32407" lon="1.37356">
        <ele>824.2</ele>
        <time>2022-05-22 13:37:03</time>
      </trkpt>
      <trkpt lat="42.32406" lon="1.37354">
        <ele>824.4</ele>
        <time>2022-05-22 13:37:04</time>
      </trkpt>
      <trkpt lat="42.32405" lon="1.37351">
        <ele>824.4</ele>
        <time>2022-05-22 13:37:05</time>
      </trkpt>
      <trkpt lat="42.32404" lon="1.37348">
        <ele>824.6</ele>
        <time>2022-05-22 13:37:06</time>
      </trkpt>
      <trkpt lat="42.32403" lon="1.37346">
        <ele>824.6</ele>
        <time>2022-05-22 13:37:07</time>
      </trkpt>
      <trkpt lat="42.32402" lon="1.37344">
        <ele>824.8</ele>
        <time>2022-05-22 13:37:08</time>
      </trkpt>
      <trkpt lat="42.32401" lon="1.37341">
        <ele>824.8</ele>
        <time>2022-05-22 13:37:09</time>
      </trkpt>
      <trkpt lat="42.324" lon="1.37338">
        <ele>825</ele>
        <time>2022-05-22 13:37:10</time>
      </trkpt>
      <trkpt lat="42.324" lon="1.37335">
        <ele>825.2</ele>
        <time>2022-05-22 13:37:11</time>
      </trkpt>
      <trkpt lat="42.32399" lon="1.37332">
        <ele>825.4</ele>
        <time>2022-05-22 13:37:12</time>
      </trkpt>
      <trkpt lat="42.32399" lon="1.37329">
        <ele>825.4</ele>
        <time>2022-05-22 13:37:13</time>
      </trkpt>
      <trkpt lat="42.32398" lon="1.37327">
        <ele>825.4</ele>
        <time>2022-05-22 13:37:14</time>
      </trkpt>
      <trkpt lat="42.32398" lon="1.37324">
        <ele>825.4</ele>
        <time>2022-05-22 13:37:15</time>
      </trkpt>
      <trkpt lat="42.32397" lon="1.37321">
        <ele>825.6</ele>
        <time>2022-05-22 13:37:16</time>
      </trkpt>
      <trkpt lat="42.32396" lon="1.37319">
        <ele>825.6</ele>
        <time>2022-05-22 13:37:17</time>
      </trkpt>
      <trkpt lat="42.32396" lon="1.37316">
        <ele>825.8</ele>
        <time>2022-05-22 13:37:18</time>
      </trkpt>
      <trkpt lat="42.32396" lon="1.37314">
        <ele>826</ele>
        <time>2022-05-22 13:37:19</time>
      </trkpt>
      <trkpt lat="42.32395" lon="1.37311">
        <ele>826</ele>
        <time>2022-05-22 13:37:20</time>
      </trkpt>
      <trkpt lat="42.32395" lon="1.37309">
        <ele>826.2</ele>
        <time>2022-05-22 13:37:21</time>
      </trkpt>
      <trkpt lat="42.32394" lon="1.37306">
        <ele>826.4</ele>
        <time>2022-05-22 13:37:22</time>
      </trkpt>
      <trkpt lat="42.32394" lon="1.37304">
        <ele>826.4</ele>
        <time>2022-05-22 13:37:23</time>
      </trkpt>
      <trkpt lat="42.32394" lon="1.37302">
        <ele>826.6</ele>
        <time>2022-05-22 13:37:24</time>
      </trkpt>
      <trkpt lat="42.32393" lon="1.37299">
        <ele>827</ele>
        <time>2022-05-22 13:37:25</time>
      </trkpt>
      <trkpt lat="42.32392" lon="1.37297">
        <ele>827.2</ele>
        <time>2022-05-22 13:37:26</time>
      </trkpt>
      <trkpt lat="42.32392" lon="1.37294">
        <ele>827.4</ele>
        <time>2022-05-22 13:37:27</time>
      </trkpt>
      <trkpt lat="42.32392" lon="1.37292">
        <ele>827.6</ele>
        <time>2022-05-22 13:37:28</time>
      </trkpt>
      <trkpt lat="42.32392" lon="1.3729">
        <ele>827.6</ele>
        <time>2022-05-22 13:37:29</time>
      </trkpt>
      <trkpt lat="42.32391" lon="1.37287">
        <ele>827.8</ele>
        <time>2022-05-22 13:37:30</time>
      </trkpt>
      <trkpt lat="42.32391" lon="1.37284">
        <ele>828</ele>
        <time>2022-05-22 13:37:31</time>
      </trkpt>
      <trkpt lat="42.32391" lon="1.37282">
        <ele>828</ele>
        <time>2022-05-22 13:37:32</time>
      </trkpt>
      <trkpt lat="42.3239" lon="1.3728">
        <ele>828.2</ele>
        <time>2022-05-22 13:37:33</time>
      </trkpt>
      <trkpt lat="42.3239" lon="1.37278">
        <ele>828.4</ele>
        <time>2022-05-22 13:37:34</time>
      </trkpt>
      <trkpt lat="42.3239" lon="1.37275">
        <ele>828.6</ele>
        <time>2022-05-22 13:37:35</time>
      </trkpt>
      <trkpt lat="42.3239" lon="1.37273">
        <ele>828.8</ele>
        <time>2022-05-22 13:37:36</time>
      </trkpt>
      <trkpt lat="42.3239" lon="1.37271">
        <ele>829</ele>
        <time>2022-05-22 13:37:37</time>
      </trkpt>
      <trkpt lat="42.32389" lon="1.37269">
        <ele>829.2</ele>
        <time>2022-05-22 13:37:38</time>
      </trkpt>
      <trkpt lat="42.32389" lon="1.37267">
        <ele>829.4</ele>
        <time>2022-05-22 13:37:39</time>
      </trkpt>
      <trkpt lat="42.32389" lon="1.37265">
        <ele>829.6</ele>
        <time>2022-05-22 13:37:40</time>
      </trkpt>
      <trkpt lat="42.32389" lon="1.37263">
        <ele>829.8</ele>
        <time>2022-05-22 13:37:41</time>
      </trkpt>
      <trkpt lat="42.32389" lon="1.3726">
        <ele>830</ele>
        <time>2022-05-22 13:37:42</time>
      </trkpt>
      <trkpt lat="42.32389" lon="1.37258">
        <ele>830.2</ele>
        <time>2022-05-22 13:37:43</time>
      </trkpt>
      <trkpt lat="42.32388" lon="1.37256">
        <ele>830.4</ele>
        <time>2022-05-22 13:37:44</time>
      </trkpt>
      <trkpt lat="42.32389" lon="1.37254">
        <ele>830.6</ele>
        <time>2022-05-22 13:37:45</time>
      </trkpt>
      <trkpt lat="42.32389" lon="1.37252">
        <ele>830.8</ele>
        <time>2022-05-22 13:37:46</time>
      </trkpt>
      <trkpt lat="42.32389" lon="1.3725">
        <ele>831</ele>
        <time>2022-05-22 13:37:47</time>
      </trkpt>
      <trkpt lat="42.32388" lon="1.37247">
        <ele>831.2</ele>
        <time>2022-05-22 13:37:48</time>
      </trkpt>
      <trkpt lat="42.32388" lon="1.37245">
        <ele>831.6</ele>
        <time>2022-05-22 13:37:49</time>
      </trkpt>
      <trkpt lat="42.32388" lon="1.37243">
        <ele>831.8</ele>
        <time>2022-05-22 13:37:50</time>
      </trkpt>
      <trkpt lat="42.32388" lon="1.37241">
        <ele>831.8</ele>
        <time>2022-05-22 13:37:51</time>
      </trkpt>
      <trkpt lat="42.32388" lon="1.37239">
        <ele>832</ele>
        <time>2022-05-22 13:37:52</time>
      </trkpt>
      <trkpt lat="42.32388" lon="1.37238">
        <ele>832.2</ele>
        <time>2022-05-22 13:37:53</time>
      </trkpt>
      <trkpt lat="42.32388" lon="1.37235">
        <ele>832.4</ele>
        <time>2022-05-22 13:37:54</time>
      </trkpt>
      <trkpt lat="42.32388" lon="1.37233">
        <ele>832.6</ele>
        <time>2022-05-22 13:37:55</time>
      </trkpt>
      <trkpt lat="42.32387" lon="1.37232">
        <ele>832.8</ele>
        <time>2022-05-22 13:37:56</time>
      </trkpt>
      <trkpt lat="42.32387" lon="1.3723">
        <ele>833</ele>
        <time>2022-05-22 13:37:57</time>
      </trkpt>
      <trkpt lat="42.32386" lon="1.37228">
        <ele>833.2</ele>
        <time>2022-05-22 13:37:58</time>
      </trkpt>
      <trkpt lat="42.32386" lon="1.37226">
        <ele>833.4</ele>
        <time>2022-05-22 13:37:59</time>
      </trkpt>
      <trkpt lat="42.32386" lon="1.37225">
        <ele>833.6</ele>
        <time>2022-05-22 13:38:00</time>
      </trkpt>
      <trkpt lat="42.32387" lon="1.37222">
        <ele>833.8</ele>
        <time>2022-05-22 13:38:01</time>
      </trkpt>
      <trkpt lat="42.32387" lon="1.37221">
        <ele>834</ele>
        <time>2022-05-22 13:38:02</time>
      </trkpt>
      <trkpt lat="42.32387" lon="1.37219">
        <ele>834.2</ele>
        <time>2022-05-22 13:38:03</time>
      </trkpt>
      <trkpt lat="42.32387" lon="1.37217">
        <ele>834.4</ele>
        <time>2022-05-22 13:38:04</time>
      </trkpt>
      <trkpt lat="42.32387" lon="1.37215">
        <ele>834.6</ele>
        <time>2022-05-22 13:38:05</time>
      </trkpt>
      <trkpt lat="42.32387" lon="1.37213">
        <ele>834.8</ele>
        <time>2022-05-22 13:38:06</time>
      </trkpt>
      <trkpt lat="42.32387" lon="1.37211">
        <ele>835</ele>
        <time>2022-05-22 13:38:07</time>
      </trkpt>
      <trkpt lat="42.32386" lon="1.37208">
        <ele>835.2</ele>
        <time>2022-05-22 13:38:08</time>
      </trkpt>
      <trkpt lat="42.32386" lon="1.37206">
        <ele>835.4</ele>
        <time>2022-05-22 13:38:09</time>
      </trkpt>
      <trkpt lat="42.32386" lon="1.37205">
        <ele>835.6</ele>
        <time>2022-05-22 13:38:10</time>
      </trkpt>
      <trkpt lat="42.32386" lon="1.37203">
        <ele>835.8</ele>
        <time>2022-05-22 13:38:11</time>
      </trkpt>
      <trkpt lat="42.32386" lon="1.37201">
        <ele>836</ele>
        <time>2022-05-22 13:38:12</time>
      </trkpt>
      <trkpt lat="42.32386" lon="1.37199">
        <ele>836.2</ele>
        <time>2022-05-22 13:38:13</time>
      </trkpt>
      <trkpt lat="42.32386" lon="1.37197">
        <ele>836.4</ele>
        <time>2022-05-22 13:38:14</time>
      </trkpt>
      <trkpt lat="42.32387" lon="1.37194">
        <ele>836.6</ele>
        <time>2022-05-22 13:38:15</time>
      </trkpt>
      <trkpt lat="42.32387" lon="1.37192">
        <ele>836.6</ele>
        <time>2022-05-22 13:38:16</time>
      </trkpt>
      <trkpt lat="42.32386" lon="1.3719">
        <ele>836.8</ele>
        <time>2022-05-22 13:38:17</time>
      </trkpt>
      <trkpt lat="42.32386" lon="1.37188">
        <ele>837</ele>
        <time>2022-05-22 13:38:18</time>
      </trkpt>
      <trkpt lat="42.32385" lon="1.37186">
        <ele>837.2</ele>
        <time>2022-05-22 13:38:19</time>
      </trkpt>
      <trkpt lat="42.32384" lon="1.37184">
        <ele>837.2</ele>
        <time>2022-05-22 13:38:20</time>
      </trkpt>
      <trkpt lat="42.32383" lon="1.37181">
        <ele>837.6</ele>
        <time>2022-05-22 13:38:21</time>
      </trkpt>
      <trkpt lat="42.32382" lon="1.37179">
        <ele>837.8</ele>
        <time>2022-05-22 13:38:22</time>
      </trkpt>
      <trkpt lat="42.32381" lon="1.37177">
        <ele>838</ele>
        <time>2022-05-22 13:38:23</time>
      </trkpt>
      <trkpt lat="42.3238" lon="1.37175">
        <ele>838.2</ele>
        <time>2022-05-22 13:38:24</time>
      </trkpt>
      <trkpt lat="42.32379" lon="1.37173">
        <ele>838.4</ele>
        <time>2022-05-22 13:38:25</time>
      </trkpt>
      <trkpt lat="42.32378" lon="1.37172">
        <ele>838.6</ele>
        <time>2022-05-22 13:38:26</time>
      </trkpt>
      <trkpt lat="42.32377" lon="1.3717">
        <ele>838.8</ele>
        <time>2022-05-22 13:38:27</time>
      </trkpt>
      <trkpt lat="42.32376" lon="1.37169">
        <ele>838.8</ele>
        <time>2022-05-22 13:38:28</time>
      </trkpt>
      <trkpt lat="42.32374" lon="1.37167">
        <ele>839</ele>
        <time>2022-05-22 13:38:29</time>
      </trkpt>
      <trkpt lat="42.32373" lon="1.37166">
        <ele>839.2</ele>
        <time>2022-05-22 13:38:30</time>
      </trkpt>
      <trkpt lat="42.32372" lon="1.37164">
        <ele>839.4</ele>
        <time>2022-05-22 13:38:31</time>
      </trkpt>
      <trkpt lat="42.32371" lon="1.37163">
        <ele>839.6</ele>
        <time>2022-05-22 13:38:32</time>
      </trkpt>
      <trkpt lat="42.3237" lon="1.37162">
        <ele>839.6</ele>
        <time>2022-05-22 13:38:33</time>
      </trkpt>
      <trkpt lat="42.32368" lon="1.37161">
        <ele>839.8</ele>
        <time>2022-05-22 13:38:34</time>
      </trkpt>
      <trkpt lat="42.32366" lon="1.3716">
        <ele>840</ele>
        <time>2022-05-22 13:38:35</time>
      </trkpt>
      <trkpt lat="42.32364" lon="1.3716">
        <ele>840.2</ele>
        <time>2022-05-22 13:38:36</time>
      </trkpt>
      <trkpt lat="42.32363" lon="1.3716">
        <ele>840.2</ele>
        <time>2022-05-22 13:38:37</time>
      </trkpt>
      <trkpt lat="42.3236" lon="1.37159">
        <ele>840.4</ele>
        <time>2022-05-22 13:38:38</time>
      </trkpt>
      <trkpt lat="42.32358" lon="1.37159">
        <ele>840.6</ele>
        <time>2022-05-22 13:38:39</time>
      </trkpt>
      <trkpt lat="42.32356" lon="1.37158">
        <ele>840.8</ele>
        <time>2022-05-22 13:38:40</time>
      </trkpt>
      <trkpt lat="42.32354" lon="1.37157">
        <ele>840.8</ele>
        <time>2022-05-22 13:38:41</time>
      </trkpt>
      <trkpt lat="42.32353" lon="1.37157">
        <ele>841</ele>
        <time>2022-05-22 13:38:42</time>
      </trkpt>
      <trkpt lat="42.3235" lon="1.37156">
        <ele>841</ele>
        <time>2022-05-22 13:38:43</time>
      </trkpt>
      <trkpt lat="42.32348" lon="1.37155">
        <ele>841.2</ele>
        <time>2022-05-22 13:38:44</time>
      </trkpt>
      <trkpt lat="42.32346" lon="1.37154">
        <ele>841.4</ele>
        <time>2022-05-22 13:38:45</time>
      </trkpt>
      <trkpt lat="42.32344" lon="1.37153">
        <ele>841.4</ele>
        <time>2022-05-22 13:38:46</time>
      </trkpt>
      <trkpt lat="42.32342" lon="1.37152">
        <ele>841.6</ele>
        <time>2022-05-22 13:38:47</time>
      </trkpt>
      <trkpt lat="42.3234" lon="1.37151">
        <ele>841.6</ele>
        <time>2022-05-22 13:38:48</time>
      </trkpt>
      <trkpt lat="42.32338" lon="1.3715">
        <ele>841.8</ele>
        <time>2022-05-22 13:38:49</time>
      </trkpt>
      <trkpt lat="42.32336" lon="1.37149">
        <ele>841.8</ele>
        <time>2022-05-22 13:38:50</time>
      </trkpt>
      <trkpt lat="42.32334" lon="1.37147">
        <ele>842</ele>
        <time>2022-05-22 13:38:51</time>
      </trkpt>
      <trkpt lat="42.32333" lon="1.37146">
        <ele>842</ele>
        <time>2022-05-22 13:38:52</time>
      </trkpt>
      <trkpt lat="42.32331" lon="1.37143">
        <ele>842.2</ele>
        <time>2022-05-22 13:38:53</time>
      </trkpt>
      <trkpt lat="42.3233" lon="1.37141">
        <ele>842.4</ele>
        <time>2022-05-22 13:38:54</time>
      </trkpt>
      <trkpt lat="42.32329" lon="1.37139">
        <ele>842.4</ele>
        <time>2022-05-22 13:38:55</time>
      </trkpt>
      <trkpt lat="42.32328" lon="1.37137">
        <ele>842.6</ele>
        <time>2022-05-22 13:38:56</time>
      </trkpt>
      <trkpt lat="42.32327" lon="1.37135">
        <ele>842.8</ele>
        <time>2022-05-22 13:38:57</time>
      </trkpt>
      <trkpt lat="42.32326" lon="1.37133">
        <ele>843</ele>
        <time>2022-05-22 13:38:58</time>
      </trkpt>
      <trkpt lat="42.32325" lon="1.37131">
        <ele>843.2</ele>
        <time>2022-05-22 13:38:59</time>
      </trkpt>
      <trkpt lat="42.32324" lon="1.37128">
        <ele>843.4</ele>
        <time>2022-05-22 13:39:00</time>
      </trkpt>
      <trkpt lat="42.32323" lon="1.37126">
        <ele>843.4</ele>
        <time>2022-05-22 13:39:01</time>
      </trkpt>
      <trkpt lat="42.32323" lon="1.37124">
        <ele>843.6</ele>
        <time>2022-05-22 13:39:02</time>
      </trkpt>
      <trkpt lat="42.32322" lon="1.37122">
        <ele>843.8</ele>
        <time>2022-05-22 13:39:03</time>
      </trkpt>
      <trkpt lat="42.32321" lon="1.37119">
        <ele>844</ele>
        <time>2022-05-22 13:39:04</time>
      </trkpt>
      <trkpt lat="42.32321" lon="1.37117">
        <ele>844.2</ele>
        <time>2022-05-22 13:39:05</time>
      </trkpt>
      <trkpt lat="42.3232" lon="1.37114">
        <ele>844.2</ele>
        <time>2022-05-22 13:39:06</time>
      </trkpt>
      <trkpt lat="42.3232" lon="1.37112">
        <ele>844.4</ele>
        <time>2022-05-22 13:39:07</time>
      </trkpt>
      <trkpt lat="42.32319" lon="1.3711">
        <ele>844.6</ele>
        <time>2022-05-22 13:39:08</time>
      </trkpt>
      <trkpt lat="42.32318" lon="1.37108">
        <ele>844.8</ele>
        <time>2022-05-22 13:39:09</time>
      </trkpt>
      <trkpt lat="42.32318" lon="1.37105">
        <ele>844.8</ele>
        <time>2022-05-22 13:39:10</time>
      </trkpt>
      <trkpt lat="42.32318" lon="1.37103">
        <ele>845</ele>
        <time>2022-05-22 13:39:11</time>
      </trkpt>
      <trkpt lat="42.32317" lon="1.371">
        <ele>845.2</ele>
        <time>2022-05-22 13:39:12</time>
      </trkpt>
      <trkpt lat="42.32317" lon="1.37098">
        <ele>845.6</ele>
        <time>2022-05-22 13:39:13</time>
      </trkpt>
      <trkpt lat="42.32317" lon="1.37095">
        <ele>845.8</ele>
        <time>2022-05-22 13:39:14</time>
      </trkpt>
      <trkpt lat="42.32316" lon="1.37093">
        <ele>845.8</ele>
        <time>2022-05-22 13:39:15</time>
      </trkpt>
      <trkpt lat="42.32315" lon="1.37091">
        <ele>846</ele>
        <time>2022-05-22 13:39:16</time>
      </trkpt>
      <trkpt lat="42.32315" lon="1.37088">
        <ele>846.2</ele>
        <time>2022-05-22 13:39:17</time>
      </trkpt>
      <trkpt lat="42.32314" lon="1.37086">
        <ele>846.4</ele>
        <time>2022-05-22 13:39:18</time>
      </trkpt>
      <trkpt lat="42.32313" lon="1.37084">
        <ele>846.6</ele>
        <time>2022-05-22 13:39:19</time>
      </trkpt>
      <trkpt lat="42.32312" lon="1.37082">
        <ele>846.8</ele>
        <time>2022-05-22 13:39:20</time>
      </trkpt>
      <trkpt lat="42.32312" lon="1.37079">
        <ele>847</ele>
        <time>2022-05-22 13:39:21</time>
      </trkpt>
      <trkpt lat="42.32312" lon="1.37077">
        <ele>847.2</ele>
        <time>2022-05-22 13:39:22</time>
      </trkpt>
      <trkpt lat="42.32311" lon="1.37075">
        <ele>847.4</ele>
        <time>2022-05-22 13:39:23</time>
      </trkpt>
      <trkpt lat="42.32311" lon="1.37073">
        <ele>847.6</ele>
        <time>2022-05-22 13:39:24</time>
      </trkpt>
      <trkpt lat="42.3231" lon="1.3707">
        <ele>847.8</ele>
        <time>2022-05-22 13:39:25</time>
      </trkpt>
      <trkpt lat="42.3231" lon="1.37068">
        <ele>848</ele>
        <time>2022-05-22 13:39:26</time>
      </trkpt>
      <trkpt lat="42.32309" lon="1.37066">
        <ele>848.2</ele>
        <time>2022-05-22 13:39:27</time>
      </trkpt>
      <trkpt lat="42.32309" lon="1.37064">
        <ele>848.4</ele>
        <time>2022-05-22 13:39:28</time>
      </trkpt>
      <trkpt lat="42.32308" lon="1.37062">
        <ele>848.6</ele>
        <time>2022-05-22 13:39:29</time>
      </trkpt>
      <trkpt lat="42.32308" lon="1.3706">
        <ele>848.8</ele>
        <time>2022-05-22 13:39:30</time>
      </trkpt>
      <trkpt lat="42.32308" lon="1.37058">
        <ele>849</ele>
        <time>2022-05-22 13:39:31</time>
      </trkpt>
      <trkpt lat="42.32307" lon="1.37056">
        <ele>849</ele>
        <time>2022-05-22 13:39:32</time>
      </trkpt>
      <trkpt lat="42.32307" lon="1.37054">
        <ele>849.2</ele>
        <time>2022-05-22 13:39:33</time>
      </trkpt>
      <trkpt lat="42.32306" lon="1.37051">
        <ele>849.4</ele>
        <time>2022-05-22 13:39:34</time>
      </trkpt>
      <trkpt lat="42.32306" lon="1.37049">
        <ele>849.6</ele>
        <time>2022-05-22 13:39:35</time>
      </trkpt>
      <trkpt lat="42.32306" lon="1.37048">
        <ele>849.8</ele>
        <time>2022-05-22 13:39:36</time>
      </trkpt>
      <trkpt lat="42.32305" lon="1.37046">
        <ele>850</ele>
        <time>2022-05-22 13:39:37</time>
      </trkpt>
      <trkpt lat="42.32305" lon="1.37044">
        <ele>850</ele>
        <time>2022-05-22 13:39:38</time>
      </trkpt>
      <trkpt lat="42.32305" lon="1.37042">
        <ele>850.2</ele>
        <time>2022-05-22 13:39:39</time>
      </trkpt>
      <trkpt lat="42.32305" lon="1.3704">
        <ele>850.4</ele>
        <time>2022-05-22 13:39:40</time>
      </trkpt>
      <trkpt lat="42.32304" lon="1.37038">
        <ele>850.6</ele>
        <time>2022-05-22 13:39:41</time>
      </trkpt>
      <trkpt lat="42.32303" lon="1.37036">
        <ele>850.8</ele>
        <time>2022-05-22 13:39:42</time>
      </trkpt>
      <trkpt lat="42.32303" lon="1.37034">
        <ele>851</ele>
        <time>2022-05-22 13:39:43</time>
      </trkpt>
      <trkpt lat="42.32302" lon="1.37032">
        <ele>851</ele>
        <time>2022-05-22 13:39:44</time>
      </trkpt>
      <trkpt lat="42.32302" lon="1.3703">
        <ele>851.2</ele>
        <time>2022-05-22 13:39:45</time>
      </trkpt>
      <trkpt lat="42.32302" lon="1.37028">
        <ele>851.4</ele>
        <time>2022-05-22 13:39:46</time>
      </trkpt>
      <trkpt lat="42.32301" lon="1.37026">
        <ele>851.4</ele>
        <time>2022-05-22 13:39:47</time>
      </trkpt>
      <trkpt lat="42.32301" lon="1.37024">
        <ele>851.6</ele>
        <time>2022-05-22 13:39:48</time>
      </trkpt>
      <trkpt lat="42.32301" lon="1.37022">
        <ele>851.6</ele>
        <time>2022-05-22 13:39:49</time>
      </trkpt>
      <trkpt lat="42.32301" lon="1.3702">
        <ele>851.6</ele>
        <time>2022-05-22 13:39:50</time>
      </trkpt>
      <trkpt lat="42.323" lon="1.37017">
        <ele>851.6</ele>
        <time>2022-05-22 13:39:51</time>
      </trkpt>
      <trkpt lat="42.323" lon="1.37015">
        <ele>851.8</ele>
        <time>2022-05-22 13:39:52</time>
      </trkpt>
      <trkpt lat="42.323" lon="1.37013">
        <ele>852</ele>
        <time>2022-05-22 13:39:53</time>
      </trkpt>
      <trkpt lat="42.32299" lon="1.3701">
        <ele>852.6</ele>
        <time>2022-05-22 13:39:54</time>
      </trkpt>
      <trkpt lat="42.32299" lon="1.37008">
        <ele>852.8</ele>
        <time>2022-05-22 13:39:55</time>
      </trkpt>
      <trkpt lat="42.32299" lon="1.37006">
        <ele>853</ele>
        <time>2022-05-22 13:39:56</time>
      </trkpt>
      <trkpt lat="42.32298" lon="1.37003">
        <ele>853</ele>
        <time>2022-05-22 13:39:57</time>
      </trkpt>
      <trkpt lat="42.32298" lon="1.37001">
        <ele>853</ele>
        <time>2022-05-22 13:39:58</time>
      </trkpt>
      <trkpt lat="42.32298" lon="1.36999">
        <ele>853</ele>
        <time>2022-05-22 13:39:59</time>
      </trkpt>
      <trkpt lat="42.32297" lon="1.36997">
        <ele>853.2</ele>
        <time>2022-05-22 13:40:00</time>
      </trkpt>
      <trkpt lat="42.32297" lon="1.36994">
        <ele>853.2</ele>
        <time>2022-05-22 13:40:01</time>
      </trkpt>
      <trkpt lat="42.32296" lon="1.36992">
        <ele>853.4</ele>
        <time>2022-05-22 13:40:02</time>
      </trkpt>
      <trkpt lat="42.32295" lon="1.3699">
        <ele>853.4</ele>
        <time>2022-05-22 13:40:03</time>
      </trkpt>
      <trkpt lat="42.32294" lon="1.36988">
        <ele>853.4</ele>
        <time>2022-05-22 13:40:04</time>
      </trkpt>
      <trkpt lat="42.32293" lon="1.36986">
        <ele>853.6</ele>
        <time>2022-05-22 13:40:05</time>
      </trkpt>
      <trkpt lat="42.32292" lon="1.36984">
        <ele>853.6</ele>
        <time>2022-05-22 13:40:06</time>
      </trkpt>
      <trkpt lat="42.32291" lon="1.36982">
        <ele>853.8</ele>
        <time>2022-05-22 13:40:07</time>
      </trkpt>
      <trkpt lat="42.3229" lon="1.3698">
        <ele>854</ele>
        <time>2022-05-22 13:40:08</time>
      </trkpt>
      <trkpt lat="42.32289" lon="1.36978">
        <ele>854</ele>
        <time>2022-05-22 13:40:09</time>
      </trkpt>
      <trkpt lat="42.32287" lon="1.36976">
        <ele>854.2</ele>
        <time>2022-05-22 13:40:10</time>
      </trkpt>
      <trkpt lat="42.32286" lon="1.36974">
        <ele>854.4</ele>
        <time>2022-05-22 13:40:11</time>
      </trkpt>
      <trkpt lat="42.32286" lon="1.36972">
        <ele>854.4</ele>
        <time>2022-05-22 13:40:12</time>
      </trkpt>
      <trkpt lat="42.32285" lon="1.3697">
        <ele>854.6</ele>
        <time>2022-05-22 13:40:13</time>
      </trkpt>
      <trkpt lat="42.32284" lon="1.36968">
        <ele>854.6</ele>
        <time>2022-05-22 13:40:14</time>
      </trkpt>
      <trkpt lat="42.32283" lon="1.36966">
        <ele>854.8</ele>
        <time>2022-05-22 13:40:15</time>
      </trkpt>
      <trkpt lat="42.32283" lon="1.36963">
        <ele>855</ele>
        <time>2022-05-22 13:40:16</time>
      </trkpt>
      <trkpt lat="42.32281" lon="1.36962">
        <ele>855.2</ele>
        <time>2022-05-22 13:40:17</time>
      </trkpt>
      <trkpt lat="42.3228" lon="1.3696">
        <ele>855.4</ele>
        <time>2022-05-22 13:40:18</time>
      </trkpt>
      <trkpt lat="42.32279" lon="1.36958">
        <ele>855.6</ele>
        <time>2022-05-22 13:40:19</time>
      </trkpt>
      <trkpt lat="42.32278" lon="1.36955">
        <ele>855.6</ele>
        <time>2022-05-22 13:40:20</time>
      </trkpt>
      <trkpt lat="42.32277" lon="1.36953">
        <ele>855.8</ele>
        <time>2022-05-22 13:40:21</time>
      </trkpt>
      <trkpt lat="42.32276" lon="1.36952">
        <ele>856</ele>
        <time>2022-05-22 13:40:22</time>
      </trkpt>
      <trkpt lat="42.32274" lon="1.3695">
        <ele>856</ele>
        <time>2022-05-22 13:40:23</time>
      </trkpt>
      <trkpt lat="42.32273" lon="1.36949">
        <ele>856.2</ele>
        <time>2022-05-22 13:40:24</time>
      </trkpt>
      <trkpt lat="42.32272" lon="1.36947">
        <ele>856.4</ele>
        <time>2022-05-22 13:40:25</time>
      </trkpt>
      <trkpt lat="42.32271" lon="1.36945">
        <ele>856.6</ele>
        <time>2022-05-22 13:40:26</time>
      </trkpt>
      <trkpt lat="42.3227" lon="1.36943">
        <ele>856.6</ele>
        <time>2022-05-22 13:40:27</time>
      </trkpt>
      <trkpt lat="42.32269" lon="1.36941">
        <ele>856.8</ele>
        <time>2022-05-22 13:40:28</time>
      </trkpt>
      <trkpt lat="42.32268" lon="1.36938">
        <ele>857</ele>
        <time>2022-05-22 13:40:29</time>
      </trkpt>
      <trkpt lat="42.32267" lon="1.36936">
        <ele>857.2</ele>
        <time>2022-05-22 13:40:30</time>
      </trkpt>
      <trkpt lat="42.32266" lon="1.36934">
        <ele>857.4</ele>
        <time>2022-05-22 13:40:31</time>
      </trkpt>
      <trkpt lat="42.32265" lon="1.36932">
        <ele>857.6</ele>
        <time>2022-05-22 13:40:32</time>
      </trkpt>
      <trkpt lat="42.32263" lon="1.36931">
        <ele>857.8</ele>
        <time>2022-05-22 13:40:33</time>
      </trkpt>
      <trkpt lat="42.32262" lon="1.36929">
        <ele>858</ele>
        <time>2022-05-22 13:40:34</time>
      </trkpt>
      <trkpt lat="42.32262" lon="1.36928">
        <ele>858.2</ele>
        <time>2022-05-22 13:40:35</time>
      </trkpt>
      <trkpt lat="42.3226" lon="1.36925">
        <ele>858.4</ele>
        <time>2022-05-22 13:40:36</time>
      </trkpt>
      <trkpt lat="42.32259" lon="1.36924">
        <ele>858.4</ele>
        <time>2022-05-22 13:40:37</time>
      </trkpt>
      <trkpt lat="42.32258" lon="1.36922">
        <ele>858.6</ele>
        <time>2022-05-22 13:40:38</time>
      </trkpt>
      <trkpt lat="42.32257" lon="1.36921">
        <ele>858.8</ele>
        <time>2022-05-22 13:40:39</time>
      </trkpt>
      <trkpt lat="42.32255" lon="1.3692">
        <ele>858.8</ele>
        <time>2022-05-22 13:40:40</time>
      </trkpt>
      <trkpt lat="42.32254" lon="1.36918">
        <ele>859</ele>
        <time>2022-05-22 13:40:41</time>
      </trkpt>
      <trkpt lat="42.32254" lon="1.36916">
        <ele>859.2</ele>
        <time>2022-05-22 13:40:42</time>
      </trkpt>
      <trkpt lat="42.32253" lon="1.36914">
        <ele>859.4</ele>
        <time>2022-05-22 13:40:43</time>
      </trkpt>
      <trkpt lat="42.32252" lon="1.36912">
        <ele>859.4</ele>
        <time>2022-05-22 13:40:44</time>
      </trkpt>
      <trkpt lat="42.3225" lon="1.3691">
        <ele>859.6</ele>
        <time>2022-05-22 13:40:45</time>
      </trkpt>
      <trkpt lat="42.32249" lon="1.36909">
        <ele>859.8</ele>
        <time>2022-05-22 13:40:46</time>
      </trkpt>
      <trkpt lat="42.32248" lon="1.36907">
        <ele>860</ele>
        <time>2022-05-22 13:40:47</time>
      </trkpt>
      <trkpt lat="42.32247" lon="1.36905">
        <ele>860.2</ele>
        <time>2022-05-22 13:40:48</time>
      </trkpt>
      <trkpt lat="42.32246" lon="1.36903">
        <ele>860.4</ele>
        <time>2022-05-22 13:40:49</time>
      </trkpt>
      <trkpt lat="42.32245" lon="1.36901">
        <ele>860.6</ele>
        <time>2022-05-22 13:40:50</time>
      </trkpt>
      <trkpt lat="42.32244" lon="1.36899">
        <ele>860.8</ele>
        <time>2022-05-22 13:40:51</time>
      </trkpt>
      <trkpt lat="42.32243" lon="1.36898">
        <ele>861</ele>
        <time>2022-05-22 13:40:52</time>
      </trkpt>
      <trkpt lat="42.32242" lon="1.36896">
        <ele>861.2</ele>
        <time>2022-05-22 13:40:53</time>
      </trkpt>
      <trkpt lat="42.32241" lon="1.36895">
        <ele>861.4</ele>
        <time>2022-05-22 13:40:54</time>
      </trkpt>
      <trkpt lat="42.32239" lon="1.36893">
        <ele>861.4</ele>
        <time>2022-05-22 13:40:55</time>
      </trkpt>
      <trkpt lat="42.32239" lon="1.36891">
        <ele>861.6</ele>
        <time>2022-05-22 13:40:56</time>
      </trkpt>
      <trkpt lat="42.32238" lon="1.36889">
        <ele>861.6</ele>
        <time>2022-05-22 13:40:57</time>
      </trkpt>
      <trkpt lat="42.32237" lon="1.36887">
        <ele>861.8</ele>
        <time>2022-05-22 13:40:58</time>
      </trkpt>
      <trkpt lat="42.32236" lon="1.36885">
        <ele>862</ele>
        <time>2022-05-22 13:40:59</time>
      </trkpt>
      <trkpt lat="42.32235" lon="1.36883">
        <ele>862.2</ele>
        <time>2022-05-22 13:41:00</time>
      </trkpt>
      <trkpt lat="42.32235" lon="1.36881">
        <ele>862.4</ele>
        <time>2022-05-22 13:41:01</time>
      </trkpt>
      <trkpt lat="42.32234" lon="1.3688">
        <ele>862.4</ele>
        <time>2022-05-22 13:41:02</time>
      </trkpt>
      <trkpt lat="42.32233" lon="1.36878">
        <ele>862.6</ele>
        <time>2022-05-22 13:41:03</time>
      </trkpt>
      <trkpt lat="42.32232" lon="1.36876">
        <ele>862.8</ele>
        <time>2022-05-22 13:41:04</time>
      </trkpt>
      <trkpt lat="42.32232" lon="1.36874">
        <ele>863</ele>
        <time>2022-05-22 13:41:05</time>
      </trkpt>
      <trkpt lat="42.32231" lon="1.36872">
        <ele>863.2</ele>
        <time>2022-05-22 13:41:06</time>
      </trkpt>
      <trkpt lat="42.32229" lon="1.3687">
        <ele>863.4</ele>
        <time>2022-05-22 13:41:07</time>
      </trkpt>
      <trkpt lat="42.32229" lon="1.36868">
        <ele>863.8</ele>
        <time>2022-05-22 13:41:08</time>
      </trkpt>
      <trkpt lat="42.32228" lon="1.36867">
        <ele>864</ele>
        <time>2022-05-22 13:41:09</time>
      </trkpt>
      <trkpt lat="42.32227" lon="1.36865">
        <ele>864.2</ele>
        <time>2022-05-22 13:41:10</time>
      </trkpt>
      <trkpt lat="42.32227" lon="1.36863">
        <ele>864.4</ele>
        <time>2022-05-22 13:41:11</time>
      </trkpt>
      <trkpt lat="42.32226" lon="1.36861">
        <ele>864.4</ele>
        <time>2022-05-22 13:41:12</time>
      </trkpt>
      <trkpt lat="42.32225" lon="1.36859">
        <ele>864.6</ele>
        <time>2022-05-22 13:41:13</time>
      </trkpt>
      <trkpt lat="42.32224" lon="1.36857">
        <ele>864.8</ele>
        <time>2022-05-22 13:41:14</time>
      </trkpt>
      <trkpt lat="42.32223" lon="1.36856">
        <ele>865</ele>
        <time>2022-05-22 13:41:15</time>
      </trkpt>
      <trkpt lat="42.32222" lon="1.36854">
        <ele>865.2</ele>
        <time>2022-05-22 13:41:16</time>
      </trkpt>
      <trkpt lat="42.32221" lon="1.36851">
        <ele>865.4</ele>
        <time>2022-05-22 13:41:17</time>
      </trkpt>
      <trkpt lat="42.3222" lon="1.36849">
        <ele>865.6</ele>
        <time>2022-05-22 13:41:18</time>
      </trkpt>
      <trkpt lat="42.3222" lon="1.36847">
        <ele>865.8</ele>
        <time>2022-05-22 13:41:19</time>
      </trkpt>
      <trkpt lat="42.32219" lon="1.36846">
        <ele>866</ele>
        <time>2022-05-22 13:41:20</time>
      </trkpt>
      <trkpt lat="42.32218" lon="1.36844">
        <ele>866</ele>
        <time>2022-05-22 13:41:21</time>
      </trkpt>
      <trkpt lat="42.32217" lon="1.36843">
        <ele>866.2</ele>
        <time>2022-05-22 13:41:22</time>
      </trkpt>
      <trkpt lat="42.32217" lon="1.36841">
        <ele>866.4</ele>
        <time>2022-05-22 13:41:23</time>
      </trkpt>
      <trkpt lat="42.32217" lon="1.36838">
        <ele>866.6</ele>
        <time>2022-05-22 13:41:24</time>
      </trkpt>
      <trkpt lat="42.32216" lon="1.36836">
        <ele>866.8</ele>
        <time>2022-05-22 13:41:25</time>
      </trkpt>
      <trkpt lat="42.32215" lon="1.36835">
        <ele>866.8</ele>
        <time>2022-05-22 13:41:26</time>
      </trkpt>
      <trkpt lat="42.32214" lon="1.36833">
        <ele>866.8</ele>
        <time>2022-05-22 13:41:27</time>
      </trkpt>
      <trkpt lat="42.32214" lon="1.36831">
        <ele>867</ele>
        <time>2022-05-22 13:41:28</time>
      </trkpt>
      <trkpt lat="42.32213" lon="1.36829">
        <ele>867.2</ele>
        <time>2022-05-22 13:41:29</time>
      </trkpt>
      <trkpt lat="42.32213" lon="1.36827">
        <ele>867.4</ele>
        <time>2022-05-22 13:41:30</time>
      </trkpt>
      <trkpt lat="42.32212" lon="1.36825">
        <ele>867.6</ele>
        <time>2022-05-22 13:41:31</time>
      </trkpt>
      <trkpt lat="42.32212" lon="1.36823">
        <ele>867.8</ele>
        <time>2022-05-22 13:41:32</time>
      </trkpt>
      <trkpt lat="42.32212" lon="1.36821">
        <ele>868</ele>
        <time>2022-05-22 13:41:33</time>
      </trkpt>
      <trkpt lat="42.32212" lon="1.36819">
        <ele>868</ele>
        <time>2022-05-22 13:41:34</time>
      </trkpt>
      <trkpt lat="42.32212" lon="1.36817">
        <ele>868.2</ele>
        <time>2022-05-22 13:41:35</time>
      </trkpt>
      <trkpt lat="42.32212" lon="1.36814">
        <ele>868.4</ele>
        <time>2022-05-22 13:41:36</time>
      </trkpt>
      <trkpt lat="42.32212" lon="1.36812">
        <ele>868.6</ele>
        <time>2022-05-22 13:41:37</time>
      </trkpt>
      <trkpt lat="42.32212" lon="1.3681">
        <ele>868.8</ele>
        <time>2022-05-22 13:41:38</time>
      </trkpt>
      <trkpt lat="42.32212" lon="1.36808">
        <ele>869</ele>
        <time>2022-05-22 13:41:39</time>
      </trkpt>
      <trkpt lat="42.32212" lon="1.36806">
        <ele>869.2</ele>
        <time>2022-05-22 13:41:40</time>
      </trkpt>
      <trkpt lat="42.32211" lon="1.36804">
        <ele>869.4</ele>
        <time>2022-05-22 13:41:41</time>
      </trkpt>
      <trkpt lat="42.3221" lon="1.36802">
        <ele>869.6</ele>
        <time>2022-05-22 13:41:42</time>
      </trkpt>
      <trkpt lat="42.3221" lon="1.368">
        <ele>869.8</ele>
        <time>2022-05-22 13:41:43</time>
      </trkpt>
      <trkpt lat="42.3221" lon="1.36799">
        <ele>870</ele>
        <time>2022-05-22 13:41:44</time>
      </trkpt>
      <trkpt lat="42.3221" lon="1.36796">
        <ele>870.2</ele>
        <time>2022-05-22 13:41:45</time>
      </trkpt>
      <trkpt lat="42.3221" lon="1.36794">
        <ele>870.4</ele>
        <time>2022-05-22 13:41:46</time>
      </trkpt>
      <trkpt lat="42.3221" lon="1.36792">
        <ele>870.6</ele>
        <time>2022-05-22 13:41:47</time>
      </trkpt>
      <trkpt lat="42.32209" lon="1.3679">
        <ele>870.8</ele>
        <time>2022-05-22 13:41:48</time>
      </trkpt>
      <trkpt lat="42.32209" lon="1.36788">
        <ele>871</ele>
        <time>2022-05-22 13:41:49</time>
      </trkpt>
      <trkpt lat="42.3221" lon="1.36786">
        <ele>871.2</ele>
        <time>2022-05-22 13:41:50</time>
      </trkpt>
      <trkpt lat="42.3221" lon="1.36784">
        <ele>871.4</ele>
        <time>2022-05-22 13:41:51</time>
      </trkpt>
      <trkpt lat="42.3221" lon="1.36783">
        <ele>871.6</ele>
        <time>2022-05-22 13:41:52</time>
      </trkpt>
      <trkpt lat="42.3221" lon="1.36781">
        <ele>871.8</ele>
        <time>2022-05-22 13:41:53</time>
      </trkpt>
      <trkpt lat="42.32211" lon="1.36779">
        <ele>872</ele>
        <time>2022-05-22 13:41:54</time>
      </trkpt>
      <trkpt lat="42.32211" lon="1.36777">
        <ele>872.2</ele>
        <time>2022-05-22 13:41:55</time>
      </trkpt>
      <trkpt lat="42.32211" lon="1.36775">
        <ele>872.4</ele>
        <time>2022-05-22 13:41:56</time>
      </trkpt>
      <trkpt lat="42.32211" lon="1.36773">
        <ele>872.6</ele>
        <time>2022-05-22 13:41:57</time>
      </trkpt>
      <trkpt lat="42.32212" lon="1.36771">
        <ele>872.8</ele>
        <time>2022-05-22 13:41:58</time>
      </trkpt>
      <trkpt lat="42.32212" lon="1.36769">
        <ele>873</ele>
        <time>2022-05-22 13:41:59</time>
      </trkpt>
      <trkpt lat="42.32212" lon="1.36767">
        <ele>873.2</ele>
        <time>2022-05-22 13:42:00</time>
      </trkpt>
      <trkpt lat="42.32212" lon="1.36765">
        <ele>873.4</ele>
        <time>2022-05-22 13:42:01</time>
      </trkpt>
      <trkpt lat="42.32213" lon="1.36763">
        <ele>873.6</ele>
        <time>2022-05-22 13:42:02</time>
      </trkpt>
      <trkpt lat="42.32213" lon="1.36761">
        <ele>873.6</ele>
        <time>2022-05-22 13:42:03</time>
      </trkpt>
      <trkpt lat="42.32213" lon="1.3676">
        <ele>873.8</ele>
        <time>2022-05-22 13:42:04</time>
      </trkpt>
      <trkpt lat="42.32213" lon="1.36758">
        <ele>874</ele>
        <time>2022-05-22 13:42:05</time>
      </trkpt>
      <trkpt lat="42.32214" lon="1.36756">
        <ele>874.2</ele>
        <time>2022-05-22 13:42:06</time>
      </trkpt>
      <trkpt lat="42.32214" lon="1.36754">
        <ele>874.4</ele>
        <time>2022-05-22 13:42:07</time>
      </trkpt>
      <trkpt lat="42.32214" lon="1.36752">
        <ele>874.6</ele>
        <time>2022-05-22 13:42:08</time>
      </trkpt>
      <trkpt lat="42.32215" lon="1.3675">
        <ele>874.8</ele>
        <time>2022-05-22 13:42:09</time>
      </trkpt>
      <trkpt lat="42.32215" lon="1.36748">
        <ele>875</ele>
        <time>2022-05-22 13:42:10</time>
      </trkpt>
      <trkpt lat="42.32215" lon="1.36746">
        <ele>875.2</ele>
        <time>2022-05-22 13:42:11</time>
      </trkpt>
      <trkpt lat="42.32216" lon="1.36744">
        <ele>875.4</ele>
        <time>2022-05-22 13:42:12</time>
      </trkpt>
      <trkpt lat="42.32216" lon="1.36742">
        <ele>875.6</ele>
        <time>2022-05-22 13:42:13</time>
      </trkpt>
      <trkpt lat="42.32216" lon="1.3674">
        <ele>875.8</ele>
        <time>2022-05-22 13:42:14</time>
      </trkpt>
      <trkpt lat="42.32217" lon="1.36738">
        <ele>876</ele>
        <time>2022-05-22 13:42:15</time>
      </trkpt>
      <trkpt lat="42.32217" lon="1.36736">
        <ele>876.4</ele>
        <time>2022-05-22 13:42:16</time>
      </trkpt>
      <trkpt lat="42.32217" lon="1.36734">
        <ele>876.4</ele>
        <time>2022-05-22 13:42:17</time>
      </trkpt>
      <trkpt lat="42.32218" lon="1.36732">
        <ele>876.6</ele>
        <time>2022-05-22 13:42:18</time>
      </trkpt>
      <trkpt lat="42.32218" lon="1.3673">
        <ele>876.8</ele>
        <time>2022-05-22 13:42:19</time>
      </trkpt>
      <trkpt lat="42.32219" lon="1.36728">
        <ele>877</ele>
        <time>2022-05-22 13:42:20</time>
      </trkpt>
      <trkpt lat="42.32219" lon="1.36726">
        <ele>877.2</ele>
        <time>2022-05-22 13:42:21</time>
      </trkpt>
      <trkpt lat="42.3222" lon="1.36723">
        <ele>877.4</ele>
        <time>2022-05-22 13:42:22</time>
      </trkpt>
      <trkpt lat="42.3222" lon="1.36721">
        <ele>877.6</ele>
        <time>2022-05-22 13:42:23</time>
      </trkpt>
      <trkpt lat="42.32221" lon="1.36718">
        <ele>877.8</ele>
        <time>2022-05-22 13:42:24</time>
      </trkpt>
      <trkpt lat="42.32221" lon="1.36716">
        <ele>877.8</ele>
        <time>2022-05-22 13:42:25</time>
      </trkpt>
      <trkpt lat="42.32221" lon="1.36714">
        <ele>878</ele>
        <time>2022-05-22 13:42:26</time>
      </trkpt>
      <trkpt lat="42.32222" lon="1.36712">
        <ele>878.2</ele>
        <time>2022-05-22 13:42:27</time>
      </trkpt>
      <trkpt lat="42.32222" lon="1.3671">
        <ele>878.4</ele>
        <time>2022-05-22 13:42:28</time>
      </trkpt>
      <trkpt lat="42.32223" lon="1.36708">
        <ele>878.8</ele>
        <time>2022-05-22 13:42:29</time>
      </trkpt>
      <trkpt lat="42.32223" lon="1.36706">
        <ele>879</ele>
        <time>2022-05-22 13:42:30</time>
      </trkpt>
      <trkpt lat="42.32223" lon="1.36704">
        <ele>879.2</ele>
        <time>2022-05-22 13:42:31</time>
      </trkpt>
      <trkpt lat="42.32223" lon="1.36702">
        <ele>879.4</ele>
        <time>2022-05-22 13:42:32</time>
      </trkpt>
      <trkpt lat="42.32223" lon="1.36699">
        <ele>879.8</ele>
        <time>2022-05-22 13:42:33</time>
      </trkpt>
      <trkpt lat="42.32224" lon="1.36697">
        <ele>880</ele>
        <time>2022-05-22 13:42:34</time>
      </trkpt>
      <trkpt lat="42.32224" lon="1.36695">
        <ele>880</ele>
        <time>2022-05-22 13:42:35</time>
      </trkpt>
      <trkpt lat="42.32224" lon="1.36693">
        <ele>880.2</ele>
        <time>2022-05-22 13:42:36</time>
      </trkpt>
      <trkpt lat="42.32224" lon="1.36691">
        <ele>880.4</ele>
        <time>2022-05-22 13:42:37</time>
      </trkpt>
      <trkpt lat="42.32224" lon="1.36688">
        <ele>880.6</ele>
        <time>2022-05-22 13:42:38</time>
      </trkpt>
      <trkpt lat="42.32224" lon="1.36686">
        <ele>880.8</ele>
        <time>2022-05-22 13:42:39</time>
      </trkpt>
      <trkpt lat="42.32224" lon="1.36684">
        <ele>881</ele>
        <time>2022-05-22 13:42:40</time>
      </trkpt>
      <trkpt lat="42.32224" lon="1.36682">
        <ele>881.2</ele>
        <time>2022-05-22 13:42:41</time>
      </trkpt>
      <trkpt lat="42.32224" lon="1.36679">
        <ele>881.2</ele>
        <time>2022-05-22 13:42:42</time>
      </trkpt>
      <trkpt lat="42.32224" lon="1.36677">
        <ele>881.4</ele>
        <time>2022-05-22 13:42:43</time>
      </trkpt>
      <trkpt lat="42.32225" lon="1.36675">
        <ele>881.6</ele>
        <time>2022-05-22 13:42:44</time>
      </trkpt>
      <trkpt lat="42.32225" lon="1.36673">
        <ele>881.8</ele>
        <time>2022-05-22 13:42:45</time>
      </trkpt>
      <trkpt lat="42.32224" lon="1.3667">
        <ele>882</ele>
        <time>2022-05-22 13:42:46</time>
      </trkpt>
      <trkpt lat="42.32224" lon="1.36668">
        <ele>882.2</ele>
        <time>2022-05-22 13:42:47</time>
      </trkpt>
      <trkpt lat="42.32224" lon="1.36666">
        <ele>882.4</ele>
        <time>2022-05-22 13:42:48</time>
      </trkpt>
      <trkpt lat="42.32224" lon="1.36663">
        <ele>882.4</ele>
        <time>2022-05-22 13:42:49</time>
      </trkpt>
      <trkpt lat="42.32223" lon="1.36661">
        <ele>882.6</ele>
        <time>2022-05-22 13:42:50</time>
      </trkpt>
      <trkpt lat="42.32223" lon="1.36659">
        <ele>882.8</ele>
        <time>2022-05-22 13:42:51</time>
      </trkpt>
      <trkpt lat="42.32222" lon="1.36656">
        <ele>882.8</ele>
        <time>2022-05-22 13:42:52</time>
      </trkpt>
      <trkpt lat="42.32222" lon="1.36654">
        <ele>883</ele>
        <time>2022-05-22 13:42:53</time>
      </trkpt>
      <trkpt lat="42.32221" lon="1.36652">
        <ele>883.2</ele>
        <time>2022-05-22 13:42:54</time>
      </trkpt>
      <trkpt lat="42.32221" lon="1.3665">
        <ele>883.4</ele>
        <time>2022-05-22 13:42:55</time>
      </trkpt>
      <trkpt lat="42.32221" lon="1.36648">
        <ele>883.4</ele>
        <time>2022-05-22 13:42:56</time>
      </trkpt>
      <trkpt lat="42.32221" lon="1.36646">
        <ele>883.6</ele>
        <time>2022-05-22 13:42:57</time>
      </trkpt>
      <trkpt lat="42.3222" lon="1.36643">
        <ele>883.8</ele>
        <time>2022-05-22 13:42:58</time>
      </trkpt>
      <trkpt lat="42.3222" lon="1.36641">
        <ele>884</ele>
        <time>2022-05-22 13:42:59</time>
      </trkpt>
      <trkpt lat="42.3222" lon="1.36639">
        <ele>884</ele>
        <time>2022-05-22 13:43:00</time>
      </trkpt>
      <trkpt lat="42.3222" lon="1.36636">
        <ele>884.2</ele>
        <time>2022-05-22 13:43:01</time>
      </trkpt>
      <trkpt lat="42.32219" lon="1.36634">
        <ele>884.4</ele>
        <time>2022-05-22 13:43:02</time>
      </trkpt>
      <trkpt lat="42.32219" lon="1.36632">
        <ele>884.4</ele>
        <time>2022-05-22 13:43:03</time>
      </trkpt>
      <trkpt lat="42.32219" lon="1.3663">
        <ele>884.6</ele>
        <time>2022-05-22 13:43:04</time>
      </trkpt>
      <trkpt lat="42.32218" lon="1.36627">
        <ele>884.6</ele>
        <time>2022-05-22 13:43:05</time>
      </trkpt>
      <trkpt lat="42.32218" lon="1.36625">
        <ele>884.8</ele>
        <time>2022-05-22 13:43:06</time>
      </trkpt>
      <trkpt lat="42.32217" lon="1.36623">
        <ele>885</ele>
        <time>2022-05-22 13:43:07</time>
      </trkpt>
      <trkpt lat="42.32217" lon="1.36621">
        <ele>885.2</ele>
        <time>2022-05-22 13:43:08</time>
      </trkpt>
      <trkpt lat="42.32217" lon="1.36619">
        <ele>885.4</ele>
        <time>2022-05-22 13:43:09</time>
      </trkpt>
      <trkpt lat="42.32216" lon="1.36616">
        <ele>885.6</ele>
        <time>2022-05-22 13:43:10</time>
      </trkpt>
      <trkpt lat="42.32216" lon="1.36614">
        <ele>886</ele>
        <time>2022-05-22 13:43:11</time>
      </trkpt>
      <trkpt lat="42.32216" lon="1.36612">
        <ele>886.2</ele>
        <time>2022-05-22 13:43:12</time>
      </trkpt>
      <trkpt lat="42.32216" lon="1.3661">
        <ele>886.4</ele>
        <time>2022-05-22 13:43:13</time>
      </trkpt>
      <trkpt lat="42.32216" lon="1.36608">
        <ele>886.6</ele>
        <time>2022-05-22 13:43:14</time>
      </trkpt>
      <trkpt lat="42.32216" lon="1.36606">
        <ele>886.8</ele>
        <time>2022-05-22 13:43:15</time>
      </trkpt>
      <trkpt lat="42.32217" lon="1.36604">
        <ele>887</ele>
        <time>2022-05-22 13:43:16</time>
      </trkpt>
      <trkpt lat="42.32218" lon="1.36602">
        <ele>887</ele>
        <time>2022-05-22 13:43:17</time>
      </trkpt>
      <trkpt lat="42.32219" lon="1.36601">
        <ele>887.2</ele>
        <time>2022-05-22 13:43:18</time>
      </trkpt>
      <trkpt lat="42.32219" lon="1.36599">
        <ele>887.4</ele>
        <time>2022-05-22 13:43:19</time>
      </trkpt>
      <trkpt lat="42.3222" lon="1.36597">
        <ele>887.6</ele>
        <time>2022-05-22 13:43:20</time>
      </trkpt>
      <trkpt lat="42.32221" lon="1.36595">
        <ele>887.8</ele>
        <time>2022-05-22 13:43:21</time>
      </trkpt>
      <trkpt lat="42.32222" lon="1.36593">
        <ele>888</ele>
        <time>2022-05-22 13:43:22</time>
      </trkpt>
      <trkpt lat="42.32222" lon="1.36591">
        <ele>888.2</ele>
        <time>2022-05-22 13:43:23</time>
      </trkpt>
      <trkpt lat="42.32223" lon="1.36589">
        <ele>888.4</ele>
        <time>2022-05-22 13:43:24</time>
      </trkpt>
      <trkpt lat="42.32223" lon="1.36587">
        <ele>888.6</ele>
        <time>2022-05-22 13:43:25</time>
      </trkpt>
      <trkpt lat="42.32224" lon="1.36585">
        <ele>888.8</ele>
        <time>2022-05-22 13:43:26</time>
      </trkpt>
      <trkpt lat="42.32224" lon="1.36583">
        <ele>889</ele>
        <time>2022-05-22 13:43:27</time>
      </trkpt>
      <trkpt lat="42.32225" lon="1.36581">
        <ele>889.2</ele>
        <time>2022-05-22 13:43:28</time>
      </trkpt>
      <trkpt lat="42.32226" lon="1.36579">
        <ele>889.4</ele>
        <time>2022-05-22 13:43:29</time>
      </trkpt>
      <trkpt lat="42.32226" lon="1.36577">
        <ele>889.6</ele>
        <time>2022-05-22 13:43:30</time>
      </trkpt>
      <trkpt lat="42.32227" lon="1.36576">
        <ele>889.8</ele>
        <time>2022-05-22 13:43:31</time>
      </trkpt>
      <trkpt lat="42.32227" lon="1.36574">
        <ele>890</ele>
        <time>2022-05-22 13:43:32</time>
      </trkpt>
      <trkpt lat="42.32228" lon="1.36572">
        <ele>890.2</ele>
        <time>2022-05-22 13:43:33</time>
      </trkpt>
      <trkpt lat="42.32229" lon="1.3657">
        <ele>890.4</ele>
        <time>2022-05-22 13:43:34</time>
      </trkpt>
      <trkpt lat="42.3223" lon="1.36568">
        <ele>890.6</ele>
        <time>2022-05-22 13:43:35</time>
      </trkpt>
      <trkpt lat="42.32231" lon="1.36566">
        <ele>890.8</ele>
        <time>2022-05-22 13:43:36</time>
      </trkpt>
      <trkpt lat="42.32231" lon="1.36565">
        <ele>891</ele>
        <time>2022-05-22 13:43:37</time>
      </trkpt>
      <trkpt lat="42.32232" lon="1.36563">
        <ele>891.2</ele>
        <time>2022-05-22 13:43:38</time>
      </trkpt>
      <trkpt lat="42.32233" lon="1.36561">
        <ele>891.2</ele>
        <time>2022-05-22 13:43:39</time>
      </trkpt>
      <trkpt lat="42.32233" lon="1.36559">
        <ele>891.4</ele>
        <time>2022-05-22 13:43:40</time>
      </trkpt>
      <trkpt lat="42.32234" lon="1.36557">
        <ele>891.6</ele>
        <time>2022-05-22 13:43:41</time>
      </trkpt>
      <trkpt lat="42.32235" lon="1.36556">
        <ele>891.8</ele>
        <time>2022-05-22 13:43:42</time>
      </trkpt>
      <trkpt lat="42.32236" lon="1.36554">
        <ele>892</ele>
        <time>2022-05-22 13:43:43</time>
      </trkpt>
      <trkpt lat="42.32237" lon="1.36552">
        <ele>892</ele>
        <time>2022-05-22 13:43:44</time>
      </trkpt>
      <trkpt lat="42.32238" lon="1.3655">
        <ele>892.2</ele>
        <time>2022-05-22 13:43:45</time>
      </trkpt>
      <trkpt lat="42.32239" lon="1.36549">
        <ele>892.4</ele>
        <time>2022-05-22 13:43:46</time>
      </trkpt>
      <trkpt lat="42.32239" lon="1.36547">
        <ele>892.6</ele>
        <time>2022-05-22 13:43:47</time>
      </trkpt>
      <trkpt lat="42.3224" lon="1.36545">
        <ele>892.6</ele>
        <time>2022-05-22 13:43:48</time>
      </trkpt>
      <trkpt lat="42.3224" lon="1.36543">
        <ele>892.8</ele>
        <time>2022-05-22 13:43:49</time>
      </trkpt>
      <trkpt lat="42.32241" lon="1.36542">
        <ele>893</ele>
        <time>2022-05-22 13:43:50</time>
      </trkpt>
      <trkpt lat="42.32241" lon="1.3654">
        <ele>893.2</ele>
        <time>2022-05-22 13:43:51</time>
      </trkpt>
      <trkpt lat="42.32242" lon="1.36539">
        <ele>893.2</ele>
        <time>2022-05-22 13:43:52</time>
      </trkpt>
      <trkpt lat="42.32243" lon="1.36538">
        <ele>893.4</ele>
        <time>2022-05-22 13:43:53</time>
      </trkpt>
      <trkpt lat="42.32244" lon="1.36536">
        <ele>893.6</ele>
        <time>2022-05-22 13:43:54</time>
      </trkpt>
      <trkpt lat="42.32245" lon="1.36535">
        <ele>893.8</ele>
        <time>2022-05-22 13:43:55</time>
      </trkpt>
      <trkpt lat="42.32246" lon="1.36533">
        <ele>894</ele>
        <time>2022-05-22 13:43:56</time>
      </trkpt>
      <trkpt lat="42.32246" lon="1.36531">
        <ele>894.2</ele>
        <time>2022-05-22 13:43:57</time>
      </trkpt>
      <trkpt lat="42.32247" lon="1.3653">
        <ele>894.4</ele>
        <time>2022-05-22 13:43:58</time>
      </trkpt>
      <trkpt lat="42.32247" lon="1.36528">
        <ele>894.6</ele>
        <time>2022-05-22 13:43:59</time>
      </trkpt>
      <trkpt lat="42.32248" lon="1.36527">
        <ele>894.8</ele>
        <time>2022-05-22 13:44:00</time>
      </trkpt>
      <trkpt lat="42.32249" lon="1.36525">
        <ele>895</ele>
        <time>2022-05-22 13:44:01</time>
      </trkpt>
      <trkpt lat="42.3225" lon="1.36523">
        <ele>895.2</ele>
        <time>2022-05-22 13:44:02</time>
      </trkpt>
      <trkpt lat="42.3225" lon="1.36521">
        <ele>895.2</ele>
        <time>2022-05-22 13:44:03</time>
      </trkpt>
      <trkpt lat="42.32251" lon="1.36519">
        <ele>895.4</ele>
        <time>2022-05-22 13:44:04</time>
      </trkpt>
      <trkpt lat="42.32252" lon="1.36518">
        <ele>895.6</ele>
        <time>2022-05-22 13:44:05</time>
      </trkpt>
      <trkpt lat="42.32253" lon="1.36516">
        <ele>895.8</ele>
        <time>2022-05-22 13:44:06</time>
      </trkpt>
      <trkpt lat="42.32253" lon="1.36514">
        <ele>896</ele>
        <time>2022-05-22 13:44:07</time>
      </trkpt>
      <trkpt lat="42.32254" lon="1.36513">
        <ele>896.2</ele>
        <time>2022-05-22 13:44:08</time>
      </trkpt>
      <trkpt lat="42.32255" lon="1.36511">
        <ele>896.4</ele>
        <time>2022-05-22 13:44:09</time>
      </trkpt>
      <trkpt lat="42.32255" lon="1.36509">
        <ele>896.6</ele>
        <time>2022-05-22 13:44:10</time>
      </trkpt>
      <trkpt lat="42.32256" lon="1.36507">
        <ele>896.8</ele>
        <time>2022-05-22 13:44:11</time>
      </trkpt>
      <trkpt lat="42.32257" lon="1.36506">
        <ele>897</ele>
        <time>2022-05-22 13:44:12</time>
      </trkpt>
      <trkpt lat="42.32257" lon="1.36505">
        <ele>897.2</ele>
        <time>2022-05-22 13:44:13</time>
      </trkpt>
      <trkpt lat="42.32258" lon="1.36503">
        <ele>897.4</ele>
        <time>2022-05-22 13:44:14</time>
      </trkpt>
      <trkpt lat="42.32259" lon="1.36501">
        <ele>897.4</ele>
        <time>2022-05-22 13:44:15</time>
      </trkpt>
      <trkpt lat="42.3226" lon="1.36499">
        <ele>897.6</ele>
        <time>2022-05-22 13:44:16</time>
      </trkpt>
      <trkpt lat="42.3226" lon="1.36497">
        <ele>898</ele>
        <time>2022-05-22 13:44:17</time>
      </trkpt>
      <trkpt lat="42.32261" lon="1.36496">
        <ele>898.2</ele>
        <time>2022-05-22 13:44:18</time>
      </trkpt>
      <trkpt lat="42.32261" lon="1.36495">
        <ele>898.2</ele>
        <time>2022-05-22 13:44:19</time>
      </trkpt>
      <trkpt lat="42.32262" lon="1.36495">
        <ele>898.4</ele>
        <time>2022-05-22 13:44:20</time>
      </trkpt>
      <trkpt lat="42.32264" lon="1.36491">
        <ele>898.6</ele>
        <time>2022-05-22 13:44:21</time>
      </trkpt>
      <trkpt lat="42.32265" lon="1.3649">
        <ele>898.8</ele>
        <time>2022-05-22 13:44:22</time>
      </trkpt>
      <trkpt lat="42.32265" lon="1.36488">
        <ele>899</ele>
        <time>2022-05-22 13:44:23</time>
      </trkpt>
      <trkpt lat="42.32266" lon="1.36487">
        <ele>899.2</ele>
        <time>2022-05-22 13:44:24</time>
      </trkpt>
      <trkpt lat="42.32267" lon="1.36485">
        <ele>899.2</ele>
        <time>2022-05-22 13:44:25</time>
      </trkpt>
      <trkpt lat="42.32268" lon="1.36483">
        <ele>899.2</ele>
        <time>2022-05-22 13:44:26</time>
      </trkpt>
      <trkpt lat="42.32269" lon="1.36482">
        <ele>899.6</ele>
        <time>2022-05-22 13:44:27</time>
      </trkpt>
      <trkpt lat="42.3227" lon="1.3648">
        <ele>899.6</ele>
        <time>2022-05-22 13:44:28</time>
      </trkpt>
      <trkpt lat="42.32271" lon="1.36478">
        <ele>899.8</ele>
        <time>2022-05-22 13:44:29</time>
      </trkpt>
      <trkpt lat="42.32272" lon="1.36476">
        <ele>900</ele>
        <time>2022-05-22 13:44:30</time>
      </trkpt>
      <trkpt lat="42.32272" lon="1.36474">
        <ele>900.2</ele>
        <time>2022-05-22 13:44:31</time>
      </trkpt>
      <trkpt lat="42.32273" lon="1.36472">
        <ele>900.2</ele>
        <time>2022-05-22 13:44:32</time>
      </trkpt>
      <trkpt lat="42.32274" lon="1.3647">
        <ele>900.4</ele>
        <time>2022-05-22 13:44:33</time>
      </trkpt>
      <trkpt lat="42.32274" lon="1.36468">
        <ele>900.6</ele>
        <time>2022-05-22 13:44:34</time>
      </trkpt>
      <trkpt lat="42.32275" lon="1.36466">
        <ele>900.8</ele>
        <time>2022-05-22 13:44:35</time>
      </trkpt>
      <trkpt lat="42.32275" lon="1.36464">
        <ele>901</ele>
        <time>2022-05-22 13:44:36</time>
      </trkpt>
      <trkpt lat="42.32275" lon="1.36462">
        <ele>901.2</ele>
        <time>2022-05-22 13:44:37</time>
      </trkpt>
      <trkpt lat="42.32276" lon="1.3646">
        <ele>901.4</ele>
        <time>2022-05-22 13:44:38</time>
      </trkpt>
      <trkpt lat="42.32276" lon="1.36458">
        <ele>901.6</ele>
        <time>2022-05-22 13:44:39</time>
      </trkpt>
      <trkpt lat="42.32277" lon="1.36457">
        <ele>901.8</ele>
        <time>2022-05-22 13:44:40</time>
      </trkpt>
      <trkpt lat="42.32277" lon="1.36455">
        <ele>902</ele>
        <time>2022-05-22 13:44:41</time>
      </trkpt>
      <trkpt lat="42.32277" lon="1.36453">
        <ele>902.2</ele>
        <time>2022-05-22 13:44:42</time>
      </trkpt>
      <trkpt lat="42.32277" lon="1.36451">
        <ele>902.4</ele>
        <time>2022-05-22 13:44:43</time>
      </trkpt>
      <trkpt lat="42.32278" lon="1.36449">
        <ele>902.6</ele>
        <time>2022-05-22 13:44:44</time>
      </trkpt>
      <trkpt lat="42.32278" lon="1.36447">
        <ele>903</ele>
        <time>2022-05-22 13:44:45</time>
      </trkpt>
      <trkpt lat="42.32278" lon="1.36445">
        <ele>903.2</ele>
        <time>2022-05-22 13:44:46</time>
      </trkpt>
      <trkpt lat="42.32277" lon="1.36443">
        <ele>903.6</ele>
        <time>2022-05-22 13:44:47</time>
      </trkpt>
      <trkpt lat="42.32277" lon="1.36441">
        <ele>904</ele>
        <time>2022-05-22 13:44:48</time>
      </trkpt>
      <trkpt lat="42.32277" lon="1.36439">
        <ele>904.2</ele>
        <time>2022-05-22 13:44:49</time>
      </trkpt>
      <trkpt lat="42.32277" lon="1.36436">
        <ele>904.4</ele>
        <time>2022-05-22 13:44:50</time>
      </trkpt>
      <trkpt lat="42.32277" lon="1.36434">
        <ele>904.6</ele>
        <time>2022-05-22 13:44:51</time>
      </trkpt>
      <trkpt lat="42.32277" lon="1.36432">
        <ele>904.6</ele>
        <time>2022-05-22 13:44:52</time>
      </trkpt>
      <trkpt lat="42.32277" lon="1.36429">
        <ele>904.6</ele>
        <time>2022-05-22 13:44:53</time>
      </trkpt>
      <trkpt lat="42.32276" lon="1.36427">
        <ele>904.8</ele>
        <time>2022-05-22 13:44:54</time>
      </trkpt>
      <trkpt lat="42.32276" lon="1.36424">
        <ele>904.8</ele>
        <time>2022-05-22 13:44:55</time>
      </trkpt>
      <trkpt lat="42.32275" lon="1.36422">
        <ele>905.2</ele>
        <time>2022-05-22 13:44:56</time>
      </trkpt>
      <trkpt lat="42.32274" lon="1.3642">
        <ele>905.2</ele>
        <time>2022-05-22 13:44:57</time>
      </trkpt>
      <trkpt lat="42.32274" lon="1.36418">
        <ele>905.4</ele>
        <time>2022-05-22 13:44:58</time>
      </trkpt>
      <trkpt lat="42.32273" lon="1.36416">
        <ele>905.8</ele>
        <time>2022-05-22 13:44:59</time>
      </trkpt>
      <trkpt lat="42.32271" lon="1.36414">
        <ele>906</ele>
        <time>2022-05-22 13:45:00</time>
      </trkpt>
      <trkpt lat="42.3227" lon="1.36413">
        <ele>906.2</ele>
        <time>2022-05-22 13:45:01</time>
      </trkpt>
      <trkpt lat="42.32268" lon="1.36411">
        <ele>906.4</ele>
        <time>2022-05-22 13:45:02</time>
      </trkpt>
      <trkpt lat="42.32267" lon="1.3641">
        <ele>906.6</ele>
        <time>2022-05-22 13:45:03</time>
      </trkpt>
      <trkpt lat="42.32265" lon="1.36409">
        <ele>906.8</ele>
        <time>2022-05-22 13:45:04</time>
      </trkpt>
      <trkpt lat="42.32263" lon="1.36408">
        <ele>907</ele>
        <time>2022-05-22 13:45:05</time>
      </trkpt>
      <trkpt lat="42.32261" lon="1.36408">
        <ele>907.2</ele>
        <time>2022-05-22 13:45:06</time>
      </trkpt>
      <trkpt lat="42.3226" lon="1.36407">
        <ele>907.4</ele>
        <time>2022-05-22 13:45:07</time>
      </trkpt>
      <trkpt lat="42.32258" lon="1.36407">
        <ele>907.6</ele>
        <time>2022-05-22 13:45:08</time>
      </trkpt>
      <trkpt lat="42.32257" lon="1.36407">
        <ele>907.6</ele>
        <time>2022-05-22 13:45:09</time>
      </trkpt>
      <trkpt lat="42.32255" lon="1.36407">
        <ele>907.8</ele>
        <time>2022-05-22 13:45:10</time>
      </trkpt>
      <trkpt lat="42.32253" lon="1.36407">
        <ele>908</ele>
        <time>2022-05-22 13:45:11</time>
      </trkpt>
      <trkpt lat="42.32252" lon="1.36407">
        <ele>908</ele>
        <time>2022-05-22 13:45:12</time>
      </trkpt>
      <trkpt lat="42.3225" lon="1.36407">
        <ele>908.2</ele>
        <time>2022-05-22 13:45:13</time>
      </trkpt>
      <trkpt lat="42.32248" lon="1.36408">
        <ele>908.4</ele>
        <time>2022-05-22 13:45:14</time>
      </trkpt>
      <trkpt lat="42.32246" lon="1.36408">
        <ele>908.4</ele>
        <time>2022-05-22 13:45:15</time>
      </trkpt>
      <trkpt lat="42.32245" lon="1.36409">
        <ele>908.6</ele>
        <time>2022-05-22 13:45:16</time>
      </trkpt>
      <trkpt lat="42.32243" lon="1.36409">
        <ele>908.8</ele>
        <time>2022-05-22 13:45:17</time>
      </trkpt>
      <trkpt lat="42.32242" lon="1.3641">
        <ele>909</ele>
        <time>2022-05-22 13:45:18</time>
      </trkpt>
      <trkpt lat="42.3224" lon="1.36411">
        <ele>909</ele>
        <time>2022-05-22 13:45:19</time>
      </trkpt>
      <trkpt lat="42.32238" lon="1.36411">
        <ele>909</ele>
        <time>2022-05-22 13:45:20</time>
      </trkpt>
      <trkpt lat="42.32236" lon="1.36411">
        <ele>909</ele>
        <time>2022-05-22 13:45:21</time>
      </trkpt>
      <trkpt lat="42.32235" lon="1.36412">
        <ele>909.2</ele>
        <time>2022-05-22 13:45:22</time>
      </trkpt>
      <trkpt lat="42.32233" lon="1.36413">
        <ele>909.2</ele>
        <time>2022-05-22 13:45:23</time>
      </trkpt>
      <trkpt lat="42.32232" lon="1.36414">
        <ele>909.4</ele>
        <time>2022-05-22 13:45:24</time>
      </trkpt>
      <trkpt lat="42.32231" lon="1.36415">
        <ele>909.6</ele>
        <time>2022-05-22 13:45:25</time>
      </trkpt>
      <trkpt lat="42.32229" lon="1.36415">
        <ele>909.6</ele>
        <time>2022-05-22 13:45:26</time>
      </trkpt>
      <trkpt lat="42.32227" lon="1.36415">
        <ele>910</ele>
        <time>2022-05-22 13:45:27</time>
      </trkpt>
      <trkpt lat="42.32225" lon="1.36416">
        <ele>910.2</ele>
        <time>2022-05-22 13:45:28</time>
      </trkpt>
      <trkpt lat="42.32223" lon="1.36416">
        <ele>910.4</ele>
        <time>2022-05-22 13:45:29</time>
      </trkpt>
      <trkpt lat="42.32221" lon="1.36417">
        <ele>910.6</ele>
        <time>2022-05-22 13:45:30</time>
      </trkpt>
      <trkpt lat="42.32219" lon="1.36418">
        <ele>910.8</ele>
        <time>2022-05-22 13:45:31</time>
      </trkpt>
      <trkpt lat="42.32217" lon="1.36418">
        <ele>911</ele>
        <time>2022-05-22 13:45:32</time>
      </trkpt>
      <trkpt lat="42.32215" lon="1.36418">
        <ele>911.2</ele>
        <time>2022-05-22 13:45:33</time>
      </trkpt>
      <trkpt lat="42.32213" lon="1.36418">
        <ele>911.4</ele>
        <time>2022-05-22 13:45:34</time>
      </trkpt>
      <trkpt lat="42.32211" lon="1.36418">
        <ele>911.6</ele>
        <time>2022-05-22 13:45:35</time>
      </trkpt>
      <trkpt lat="42.32209" lon="1.36418">
        <ele>911.8</ele>
        <time>2022-05-22 13:45:36</time>
      </trkpt>
      <trkpt lat="42.32207" lon="1.36417">
        <ele>911.8</ele>
        <time>2022-05-22 13:45:37</time>
      </trkpt>
      <trkpt lat="42.32205" lon="1.36417">
        <ele>912</ele>
        <time>2022-05-22 13:45:38</time>
      </trkpt>
      <trkpt lat="42.32202" lon="1.36417">
        <ele>912.2</ele>
        <time>2022-05-22 13:45:39</time>
      </trkpt>
      <trkpt lat="42.32201" lon="1.36417">
        <ele>912.4</ele>
        <time>2022-05-22 13:45:40</time>
      </trkpt>
      <trkpt lat="42.32199" lon="1.36416">
        <ele>912.6</ele>
        <time>2022-05-22 13:45:41</time>
      </trkpt>
      <trkpt lat="42.32197" lon="1.36416">
        <ele>912.8</ele>
        <time>2022-05-22 13:45:42</time>
      </trkpt>
      <trkpt lat="42.32195" lon="1.36416">
        <ele>913</ele>
        <time>2022-05-22 13:45:43</time>
      </trkpt>
      <trkpt lat="42.32193" lon="1.36415">
        <ele>913.2</ele>
        <time>2022-05-22 13:45:44</time>
      </trkpt>
      <trkpt lat="42.32191" lon="1.36415">
        <ele>913.4</ele>
        <time>2022-05-22 13:45:45</time>
      </trkpt>
      <trkpt lat="42.32189" lon="1.36415">
        <ele>913.6</ele>
        <time>2022-05-22 13:45:46</time>
      </trkpt>
      <trkpt lat="42.32188" lon="1.36415">
        <ele>913.6</ele>
        <time>2022-05-22 13:45:47</time>
      </trkpt>
      <trkpt lat="42.32186" lon="1.36415">
        <ele>913.8</ele>
        <time>2022-05-22 13:45:48</time>
      </trkpt>
      <trkpt lat="42.32184" lon="1.36414">
        <ele>914</ele>
        <time>2022-05-22 13:45:49</time>
      </trkpt>
      <trkpt lat="42.32182" lon="1.36414">
        <ele>914.2</ele>
        <time>2022-05-22 13:45:50</time>
      </trkpt>
      <trkpt lat="42.3218" lon="1.36413">
        <ele>914.2</ele>
        <time>2022-05-22 13:45:51</time>
      </trkpt>
      <trkpt lat="42.32179" lon="1.36413">
        <ele>914.4</ele>
        <time>2022-05-22 13:45:52</time>
      </trkpt>
      <trkpt lat="42.32177" lon="1.36413">
        <ele>914.6</ele>
        <time>2022-05-22 13:45:53</time>
      </trkpt>
      <trkpt lat="42.32175" lon="1.36413">
        <ele>914.8</ele>
        <time>2022-05-22 13:45:54</time>
      </trkpt>
      <trkpt lat="42.32173" lon="1.36413">
        <ele>914.8</ele>
        <time>2022-05-22 13:45:55</time>
      </trkpt>
      <trkpt lat="42.32172" lon="1.36412">
        <ele>914.8</ele>
        <time>2022-05-22 13:45:56</time>
      </trkpt>
      <trkpt lat="42.3217" lon="1.36412">
        <ele>914.8</ele>
        <time>2022-05-22 13:45:57</time>
      </trkpt>
      <trkpt lat="42.32168" lon="1.36411">
        <ele>915</ele>
        <time>2022-05-22 13:45:58</time>
      </trkpt>
      <trkpt lat="42.32166" lon="1.3641">
        <ele>915</ele>
        <time>2022-05-22 13:45:59</time>
      </trkpt>
      <trkpt lat="42.32164" lon="1.3641">
        <ele>915</ele>
        <time>2022-05-22 13:46:00</time>
      </trkpt>
      <trkpt lat="42.32163" lon="1.36409">
        <ele>915.2</ele>
        <time>2022-05-22 13:46:01</time>
      </trkpt>
      <trkpt lat="42.32161" lon="1.36408">
        <ele>915.2</ele>
        <time>2022-05-22 13:46:02</time>
      </trkpt>
      <trkpt lat="42.32159" lon="1.36408">
        <ele>915.4</ele>
        <time>2022-05-22 13:46:03</time>
      </trkpt>
      <trkpt lat="42.32158" lon="1.36407">
        <ele>915.6</ele>
        <time>2022-05-22 13:46:04</time>
      </trkpt>
      <trkpt lat="42.32156" lon="1.36406">
        <ele>915.6</ele>
        <time>2022-05-22 13:46:05</time>
      </trkpt>
      <trkpt lat="42.32154" lon="1.36406">
        <ele>916</ele>
        <time>2022-05-22 13:46:06</time>
      </trkpt>
      <trkpt lat="42.32152" lon="1.36405">
        <ele>916</ele>
        <time>2022-05-22 13:46:07</time>
      </trkpt>
      <trkpt lat="42.3215" lon="1.36404">
        <ele>916.2</ele>
        <time>2022-05-22 13:46:08</time>
      </trkpt>
      <trkpt lat="42.32148" lon="1.36403">
        <ele>916.2</ele>
        <time>2022-05-22 13:46:09</time>
      </trkpt>
      <trkpt lat="42.32146" lon="1.36403">
        <ele>916.4</ele>
        <time>2022-05-22 13:46:10</time>
      </trkpt>
      <trkpt lat="42.32144" lon="1.36402">
        <ele>916.4</ele>
        <time>2022-05-22 13:46:11</time>
      </trkpt>
      <trkpt lat="42.32142" lon="1.36401">
        <ele>916.4</ele>
        <time>2022-05-22 13:46:12</time>
      </trkpt>
      <trkpt lat="42.3214" lon="1.364">
        <ele>916.4</ele>
        <time>2022-05-22 13:46:13</time>
      </trkpt>
      <trkpt lat="42.32138" lon="1.36398">
        <ele>916.4</ele>
        <time>2022-05-22 13:46:14</time>
      </trkpt>
      <trkpt lat="42.32136" lon="1.36396">
        <ele>916.4</ele>
        <time>2022-05-22 13:46:15</time>
      </trkpt>
      <trkpt lat="42.32134" lon="1.36394">
        <ele>916.6</ele>
        <time>2022-05-22 13:46:16</time>
      </trkpt>
      <trkpt lat="42.32132" lon="1.36393">
        <ele>916.8</ele>
        <time>2022-05-22 13:46:17</time>
      </trkpt>
      <trkpt lat="42.32131" lon="1.36391">
        <ele>916.8</ele>
        <time>2022-05-22 13:46:18</time>
      </trkpt>
      <trkpt lat="42.3213" lon="1.3639">
        <ele>917</ele>
        <time>2022-05-22 13:46:19</time>
      </trkpt>
      <trkpt lat="42.32128" lon="1.36388">
        <ele>917.2</ele>
        <time>2022-05-22 13:46:20</time>
      </trkpt>
      <trkpt lat="42.32126" lon="1.36387">
        <ele>917.4</ele>
        <time>2022-05-22 13:46:21</time>
      </trkpt>
      <trkpt lat="42.32125" lon="1.36385">
        <ele>917.6</ele>
        <time>2022-05-22 13:46:22</time>
      </trkpt>
      <trkpt lat="42.32123" lon="1.36384">
        <ele>917.8</ele>
        <time>2022-05-22 13:46:23</time>
      </trkpt>
      <trkpt lat="42.32121" lon="1.36382">
        <ele>917.8</ele>
        <time>2022-05-22 13:46:24</time>
      </trkpt>
      <trkpt lat="42.3212" lon="1.36381">
        <ele>918</ele>
        <time>2022-05-22 13:46:25</time>
      </trkpt>
      <trkpt lat="42.32118" lon="1.36379">
        <ele>918</ele>
        <time>2022-05-22 13:46:26</time>
      </trkpt>
      <trkpt lat="42.32117" lon="1.36377">
        <ele>918.2</ele>
        <time>2022-05-22 13:46:27</time>
      </trkpt>
      <trkpt lat="42.32116" lon="1.36375">
        <ele>918.4</ele>
        <time>2022-05-22 13:46:28</time>
      </trkpt>
      <trkpt lat="42.32115" lon="1.36374">
        <ele>918.6</ele>
        <time>2022-05-22 13:46:29</time>
      </trkpt>
      <trkpt lat="42.32114" lon="1.36371">
        <ele>918.6</ele>
        <time>2022-05-22 13:46:30</time>
      </trkpt>
      <trkpt lat="42.32113" lon="1.3637">
        <ele>918.6</ele>
        <time>2022-05-22 13:46:31</time>
      </trkpt>
      <trkpt lat="42.32111" lon="1.36368">
        <ele>918.8</ele>
        <time>2022-05-22 13:46:32</time>
      </trkpt>
      <trkpt lat="42.3211" lon="1.36366">
        <ele>918.8</ele>
        <time>2022-05-22 13:46:33</time>
      </trkpt>
      <trkpt lat="42.32109" lon="1.36365">
        <ele>919</ele>
        <time>2022-05-22 13:46:34</time>
      </trkpt>
      <trkpt lat="42.32107" lon="1.36363">
        <ele>919</ele>
        <time>2022-05-22 13:46:35</time>
      </trkpt>
      <trkpt lat="42.32105" lon="1.36361">
        <ele>919.2</ele>
        <time>2022-05-22 13:46:36</time>
      </trkpt>
      <trkpt lat="42.32104" lon="1.36359">
        <ele>919.2</ele>
        <time>2022-05-22 13:46:37</time>
      </trkpt>
      <trkpt lat="42.32103" lon="1.36357">
        <ele>919.4</ele>
        <time>2022-05-22 13:46:38</time>
      </trkpt>
      <trkpt lat="42.32102" lon="1.36356">
        <ele>919.4</ele>
        <time>2022-05-22 13:46:39</time>
      </trkpt>
      <trkpt lat="42.32101" lon="1.36353">
        <ele>919.4</ele>
        <time>2022-05-22 13:46:40</time>
      </trkpt>
      <trkpt lat="42.321" lon="1.36351">
        <ele>919.6</ele>
        <time>2022-05-22 13:46:41</time>
      </trkpt>
      <trkpt lat="42.32098" lon="1.36349">
        <ele>919.6</ele>
        <time>2022-05-22 13:46:42</time>
      </trkpt>
      <trkpt lat="42.32097" lon="1.36347">
        <ele>919.8</ele>
        <time>2022-05-22 13:46:43</time>
      </trkpt>
      <trkpt lat="42.32096" lon="1.36346">
        <ele>919.8</ele>
        <time>2022-05-22 13:46:44</time>
      </trkpt>
      <trkpt lat="42.32094" lon="1.36344">
        <ele>920</ele>
        <time>2022-05-22 13:46:45</time>
      </trkpt>
      <trkpt lat="42.32092" lon="1.36342">
        <ele>920.2</ele>
        <time>2022-05-22 13:46:46</time>
      </trkpt>
      <trkpt lat="42.32091" lon="1.3634">
        <ele>920.4</ele>
        <time>2022-05-22 13:46:47</time>
      </trkpt>
      <trkpt lat="42.3209" lon="1.36338">
        <ele>920.4</ele>
        <time>2022-05-22 13:46:48</time>
      </trkpt>
      <trkpt lat="42.32089" lon="1.36336">
        <ele>920.6</ele>
        <time>2022-05-22 13:46:49</time>
      </trkpt>
      <trkpt lat="42.32088" lon="1.36333">
        <ele>920.6</ele>
        <time>2022-05-22 13:46:50</time>
      </trkpt>
      <trkpt lat="42.32087" lon="1.36332">
        <ele>920.8</ele>
        <time>2022-05-22 13:46:51</time>
      </trkpt>
      <trkpt lat="42.32085" lon="1.3633">
        <ele>920.8</ele>
        <time>2022-05-22 13:46:52</time>
      </trkpt>
      <trkpt lat="42.32084" lon="1.36328">
        <ele>920.8</ele>
        <time>2022-05-22 13:46:53</time>
      </trkpt>
      <trkpt lat="42.32083" lon="1.36326">
        <ele>921</ele>
        <time>2022-05-22 13:46:54</time>
      </trkpt>
      <trkpt lat="42.32082" lon="1.36324">
        <ele>921.2</ele>
        <time>2022-05-22 13:46:55</time>
      </trkpt>
      <trkpt lat="42.32081" lon="1.36322">
        <ele>921.2</ele>
        <time>2022-05-22 13:46:56</time>
      </trkpt>
      <trkpt lat="42.3208" lon="1.36321">
        <ele>921.2</ele>
        <time>2022-05-22 13:46:57</time>
      </trkpt>
      <trkpt lat="42.32079" lon="1.36319">
        <ele>921.4</ele>
        <time>2022-05-22 13:46:58</time>
      </trkpt>
      <trkpt lat="42.32078" lon="1.36317">
        <ele>921.6</ele>
        <time>2022-05-22 13:46:59</time>
      </trkpt>
      <trkpt lat="42.32076" lon="1.36315">
        <ele>921.8</ele>
        <time>2022-05-22 13:47:00</time>
      </trkpt>
      <trkpt lat="42.32075" lon="1.36313">
        <ele>922</ele>
        <time>2022-05-22 13:47:01</time>
      </trkpt>
      <trkpt lat="42.32074" lon="1.36311">
        <ele>922.2</ele>
        <time>2022-05-22 13:47:02</time>
      </trkpt>
      <trkpt lat="42.32073" lon="1.36309">
        <ele>922.2</ele>
        <time>2022-05-22 13:47:03</time>
      </trkpt>
      <trkpt lat="42.32072" lon="1.36308">
        <ele>922.4</ele>
        <time>2022-05-22 13:47:04</time>
      </trkpt>
      <trkpt lat="42.32071" lon="1.36306">
        <ele>922.4</ele>
        <time>2022-05-22 13:47:05</time>
      </trkpt>
      <trkpt lat="42.32069" lon="1.36304">
        <ele>922.4</ele>
        <time>2022-05-22 13:47:06</time>
      </trkpt>
      <trkpt lat="42.32068" lon="1.36302">
        <ele>922.4</ele>
        <time>2022-05-22 13:47:07</time>
      </trkpt>
      <trkpt lat="42.32067" lon="1.363">
        <ele>922.6</ele>
        <time>2022-05-22 13:47:08</time>
      </trkpt>
      <trkpt lat="42.32066" lon="1.36298">
        <ele>923</ele>
        <time>2022-05-22 13:47:09</time>
      </trkpt>
      <trkpt lat="42.32065" lon="1.36297">
        <ele>923</ele>
        <time>2022-05-22 13:47:10</time>
      </trkpt>
      <trkpt lat="42.32063" lon="1.36295">
        <ele>923</ele>
        <time>2022-05-22 13:47:11</time>
      </trkpt>
      <trkpt lat="42.32062" lon="1.36293">
        <ele>923.2</ele>
        <time>2022-05-22 13:47:12</time>
      </trkpt>
      <trkpt lat="42.3206" lon="1.36291">
        <ele>923.2</ele>
        <time>2022-05-22 13:47:13</time>
      </trkpt>
      <trkpt lat="42.32059" lon="1.3629">
        <ele>923.4</ele>
        <time>2022-05-22 13:47:14</time>
      </trkpt>
      <trkpt lat="42.32058" lon="1.36288">
        <ele>923.4</ele>
        <time>2022-05-22 13:47:15</time>
      </trkpt>
      <trkpt lat="42.32058" lon="1.36286">
        <ele>923.6</ele>
        <time>2022-05-22 13:47:16</time>
      </trkpt>
      <trkpt lat="42.32056" lon="1.36284">
        <ele>923.6</ele>
        <time>2022-05-22 13:47:17</time>
      </trkpt>
      <trkpt lat="42.32055" lon="1.36282">
        <ele>923.8</ele>
        <time>2022-05-22 13:47:18</time>
      </trkpt>
      <trkpt lat="42.32054" lon="1.3628">
        <ele>923.8</ele>
        <time>2022-05-22 13:47:19</time>
      </trkpt>
      <trkpt lat="42.32053" lon="1.36278">
        <ele>924</ele>
        <time>2022-05-22 13:47:20</time>
      </trkpt>
      <trkpt lat="42.32052" lon="1.36276">
        <ele>924</ele>
        <time>2022-05-22 13:47:21</time>
      </trkpt>
      <trkpt lat="42.32051" lon="1.36275">
        <ele>924.2</ele>
        <time>2022-05-22 13:47:22</time>
      </trkpt>
      <trkpt lat="42.3205" lon="1.36273">
        <ele>924.2</ele>
        <time>2022-05-22 13:47:23</time>
      </trkpt>
      <trkpt lat="42.32049" lon="1.3627">
        <ele>924.2</ele>
        <time>2022-05-22 13:47:24</time>
      </trkpt>
      <trkpt lat="42.32048" lon="1.36268">
        <ele>924.4</ele>
        <time>2022-05-22 13:47:25</time>
      </trkpt>
      <trkpt lat="42.32048" lon="1.36267">
        <ele>924.4</ele>
        <time>2022-05-22 13:47:26</time>
      </trkpt>
      <trkpt lat="42.32046" lon="1.36265">
        <ele>924.6</ele>
        <time>2022-05-22 13:47:27</time>
      </trkpt>
      <trkpt lat="42.32045" lon="1.36263">
        <ele>924.6</ele>
        <time>2022-05-22 13:47:28</time>
      </trkpt>
      <trkpt lat="42.32045" lon="1.36261">
        <ele>924.8</ele>
        <time>2022-05-22 13:47:29</time>
      </trkpt>
      <trkpt lat="42.32044" lon="1.36259">
        <ele>924.8</ele>
        <time>2022-05-22 13:47:30</time>
      </trkpt>
      <trkpt lat="42.32043" lon="1.36257">
        <ele>925</ele>
        <time>2022-05-22 13:47:31</time>
      </trkpt>
      <trkpt lat="42.32043" lon="1.36256">
        <ele>925</ele>
        <time>2022-05-22 13:47:32</time>
      </trkpt>
      <trkpt lat="42.32043" lon="1.36254">
        <ele>925.2</ele>
        <time>2022-05-22 13:47:33</time>
      </trkpt>
      <trkpt lat="42.32042" lon="1.36252">
        <ele>925.2</ele>
        <time>2022-05-22 13:47:34</time>
      </trkpt>
      <trkpt lat="42.32042" lon="1.36249">
        <ele>925.4</ele>
        <time>2022-05-22 13:47:35</time>
      </trkpt>
      <trkpt lat="42.32042" lon="1.36247">
        <ele>925.6</ele>
        <time>2022-05-22 13:47:36</time>
      </trkpt>
      <trkpt lat="42.32041" lon="1.36245">
        <ele>925.6</ele>
        <time>2022-05-22 13:47:37</time>
      </trkpt>
      <trkpt lat="42.32041" lon="1.36243">
        <ele>925.8</ele>
        <time>2022-05-22 13:47:38</time>
      </trkpt>
      <trkpt lat="42.32041" lon="1.3624">
        <ele>926</ele>
        <time>2022-05-22 13:47:39</time>
      </trkpt>
      <trkpt lat="42.32041" lon="1.36238">
        <ele>926.2</ele>
        <time>2022-05-22 13:47:40</time>
      </trkpt>
      <trkpt lat="42.32041" lon="1.36236">
        <ele>926.2</ele>
        <time>2022-05-22 13:47:41</time>
      </trkpt>
      <trkpt lat="42.3204" lon="1.36233">
        <ele>926.4</ele>
        <time>2022-05-22 13:47:42</time>
      </trkpt>
      <trkpt lat="42.3204" lon="1.36231">
        <ele>926.4</ele>
        <time>2022-05-22 13:47:43</time>
      </trkpt>
      <trkpt lat="42.3204" lon="1.36228">
        <ele>926.6</ele>
        <time>2022-05-22 13:47:44</time>
      </trkpt>
      <trkpt lat="42.3204" lon="1.36226">
        <ele>926.8</ele>
        <time>2022-05-22 13:47:45</time>
      </trkpt>
      <trkpt lat="42.3204" lon="1.36224">
        <ele>926.8</ele>
        <time>2022-05-22 13:47:46</time>
      </trkpt>
      <trkpt lat="42.32041" lon="1.36221">
        <ele>927</ele>
        <time>2022-05-22 13:47:47</time>
      </trkpt>
      <trkpt lat="42.32041" lon="1.36219">
        <ele>927.2</ele>
        <time>2022-05-22 13:47:48</time>
      </trkpt>
      <trkpt lat="42.32041" lon="1.36216">
        <ele>927.4</ele>
        <time>2022-05-22 13:47:49</time>
      </trkpt>
      <trkpt lat="42.32041" lon="1.36214">
        <ele>927.4</ele>
        <time>2022-05-22 13:47:50</time>
      </trkpt>
      <trkpt lat="42.32041" lon="1.36212">
        <ele>927.6</ele>
        <time>2022-05-22 13:47:51</time>
      </trkpt>
      <trkpt lat="42.32041" lon="1.3621">
        <ele>927.8</ele>
        <time>2022-05-22 13:47:52</time>
      </trkpt>
      <trkpt lat="42.32041" lon="1.36207">
        <ele>928</ele>
        <time>2022-05-22 13:47:53</time>
      </trkpt>
      <trkpt lat="42.32042" lon="1.36205">
        <ele>928.2</ele>
        <time>2022-05-22 13:47:54</time>
      </trkpt>
      <trkpt lat="42.32042" lon="1.36203">
        <ele>928.4</ele>
        <time>2022-05-22 13:47:55</time>
      </trkpt>
      <trkpt lat="42.32042" lon="1.36201">
        <ele>928.6</ele>
        <time>2022-05-22 13:47:56</time>
      </trkpt>
      <trkpt lat="42.32043" lon="1.36199">
        <ele>928.6</ele>
        <time>2022-05-22 13:47:57</time>
      </trkpt>
      <trkpt lat="42.32043" lon="1.36197">
        <ele>928.6</ele>
        <time>2022-05-22 13:47:58</time>
      </trkpt>
      <trkpt lat="42.32044" lon="1.36194">
        <ele>928.6</ele>
        <time>2022-05-22 13:47:59</time>
      </trkpt>
      <trkpt lat="42.32044" lon="1.36192">
        <ele>928.8</ele>
        <time>2022-05-22 13:48:00</time>
      </trkpt>
      <trkpt lat="42.32045" lon="1.3619">
        <ele>928.8</ele>
        <time>2022-05-22 13:48:01</time>
      </trkpt>
      <trkpt lat="42.32045" lon="1.36187">
        <ele>929</ele>
        <time>2022-05-22 13:48:02</time>
      </trkpt>
      <trkpt lat="42.32046" lon="1.36185">
        <ele>929.2</ele>
        <time>2022-05-22 13:48:03</time>
      </trkpt>
      <trkpt lat="42.32046" lon="1.36183">
        <ele>929.4</ele>
        <time>2022-05-22 13:48:04</time>
      </trkpt>
      <trkpt lat="42.32047" lon="1.3618">
        <ele>929.8</ele>
        <time>2022-05-22 13:48:05</time>
      </trkpt>
      <trkpt lat="42.32047" lon="1.36178">
        <ele>930</ele>
        <time>2022-05-22 13:48:06</time>
      </trkpt>
      <trkpt lat="42.32048" lon="1.36176">
        <ele>930.2</ele>
        <time>2022-05-22 13:48:07</time>
      </trkpt>
      <trkpt lat="42.32048" lon="1.36173">
        <ele>930.2</ele>
        <time>2022-05-22 13:48:08</time>
      </trkpt>
      <trkpt lat="42.32049" lon="1.36171">
        <ele>930.4</ele>
        <time>2022-05-22 13:48:09</time>
      </trkpt>
      <trkpt lat="42.32049" lon="1.36169">
        <ele>930.6</ele>
        <time>2022-05-22 13:48:10</time>
      </trkpt>
      <trkpt lat="42.3205" lon="1.36166">
        <ele>930.6</ele>
        <time>2022-05-22 13:48:11</time>
      </trkpt>
      <trkpt lat="42.3205" lon="1.36164">
        <ele>930.8</ele>
        <time>2022-05-22 13:48:12</time>
      </trkpt>
      <trkpt lat="42.3205" lon="1.36162">
        <ele>930.8</ele>
        <time>2022-05-22 13:48:13</time>
      </trkpt>
      <trkpt lat="42.3205" lon="1.36159">
        <ele>931</ele>
        <time>2022-05-22 13:48:14</time>
      </trkpt>
      <trkpt lat="42.3205" lon="1.36157">
        <ele>931.2</ele>
        <time>2022-05-22 13:48:15</time>
      </trkpt>
      <trkpt lat="42.32051" lon="1.36154">
        <ele>931.4</ele>
        <time>2022-05-22 13:48:16</time>
      </trkpt>
      <trkpt lat="42.32051" lon="1.36152">
        <ele>931.6</ele>
        <time>2022-05-22 13:48:17</time>
      </trkpt>
      <trkpt lat="42.32052" lon="1.3615">
        <ele>931.8</ele>
        <time>2022-05-22 13:48:18</time>
      </trkpt>
      <trkpt lat="42.32052" lon="1.36148">
        <ele>931.8</ele>
        <time>2022-05-22 13:48:19</time>
      </trkpt>
      <trkpt lat="42.32053" lon="1.36146">
        <ele>932</ele>
        <time>2022-05-22 13:48:20</time>
      </trkpt>
      <trkpt lat="42.32054" lon="1.36144">
        <ele>932.2</ele>
        <time>2022-05-22 13:48:21</time>
      </trkpt>
      <trkpt lat="42.32055" lon="1.36142">
        <ele>932.2</ele>
        <time>2022-05-22 13:48:22</time>
      </trkpt>
      <trkpt lat="42.32056" lon="1.3614">
        <ele>932.4</ele>
        <time>2022-05-22 13:48:23</time>
      </trkpt>
      <trkpt lat="42.32056" lon="1.36137">
        <ele>932.4</ele>
        <time>2022-05-22 13:48:24</time>
      </trkpt>
      <trkpt lat="42.32057" lon="1.36135">
        <ele>932.6</ele>
        <time>2022-05-22 13:48:25</time>
      </trkpt>
      <trkpt lat="42.32057" lon="1.36133">
        <ele>932.8</ele>
        <time>2022-05-22 13:48:26</time>
      </trkpt>
      <trkpt lat="42.32057" lon="1.36131">
        <ele>932.8</ele>
        <time>2022-05-22 13:48:27</time>
      </trkpt>
      <trkpt lat="42.32057" lon="1.36128">
        <ele>933</ele>
        <time>2022-05-22 13:48:28</time>
      </trkpt>
      <trkpt lat="42.32057" lon="1.36126">
        <ele>933.2</ele>
        <time>2022-05-22 13:48:29</time>
      </trkpt>
      <trkpt lat="42.32057" lon="1.36124">
        <ele>933.2</ele>
        <time>2022-05-22 13:48:30</time>
      </trkpt>
      <trkpt lat="42.32058" lon="1.36122">
        <ele>933.4</ele>
        <time>2022-05-22 13:48:31</time>
      </trkpt>
      <trkpt lat="42.32058" lon="1.3612">
        <ele>933.6</ele>
        <time>2022-05-22 13:48:32</time>
      </trkpt>
      <trkpt lat="42.32058" lon="1.36118">
        <ele>933.6</ele>
        <time>2022-05-22 13:48:33</time>
      </trkpt>
      <trkpt lat="42.32059" lon="1.36116">
        <ele>933.8</ele>
        <time>2022-05-22 13:48:34</time>
      </trkpt>
      <trkpt lat="42.32059" lon="1.36114">
        <ele>934</ele>
        <time>2022-05-22 13:48:35</time>
      </trkpt>
      <trkpt lat="42.3206" lon="1.36112">
        <ele>934</ele>
        <time>2022-05-22 13:48:36</time>
      </trkpt>
      <trkpt lat="42.32061" lon="1.36109">
        <ele>934.2</ele>
        <time>2022-05-22 13:48:37</time>
      </trkpt>
      <trkpt lat="42.32062" lon="1.36107">
        <ele>934.4</ele>
        <time>2022-05-22 13:48:38</time>
      </trkpt>
      <trkpt lat="42.32062" lon="1.36105">
        <ele>934.4</ele>
        <time>2022-05-22 13:48:39</time>
      </trkpt>
      <trkpt lat="42.32063" lon="1.36103">
        <ele>934.6</ele>
        <time>2022-05-22 13:48:40</time>
      </trkpt>
      <trkpt lat="42.32063" lon="1.36101">
        <ele>934.8</ele>
        <time>2022-05-22 13:48:41</time>
      </trkpt>
      <trkpt lat="42.32064" lon="1.36098">
        <ele>935.2</ele>
        <time>2022-05-22 13:48:42</time>
      </trkpt>
      <trkpt lat="42.32064" lon="1.36097">
        <ele>935.4</ele>
        <time>2022-05-22 13:48:43</time>
      </trkpt>
      <trkpt lat="42.32065" lon="1.36095">
        <ele>935.6</ele>
        <time>2022-05-22 13:48:44</time>
      </trkpt>
      <trkpt lat="42.32066" lon="1.36093">
        <ele>935.8</ele>
        <time>2022-05-22 13:48:45</time>
      </trkpt>
      <trkpt lat="42.32067" lon="1.36091">
        <ele>936</ele>
        <time>2022-05-22 13:48:46</time>
      </trkpt>
      <trkpt lat="42.32068" lon="1.3609">
        <ele>936.2</ele>
        <time>2022-05-22 13:48:47</time>
      </trkpt>
      <trkpt lat="42.32069" lon="1.36088">
        <ele>936.4</ele>
        <time>2022-05-22 13:48:48</time>
      </trkpt>
      <trkpt lat="42.3207" lon="1.36086">
        <ele>936.6</ele>
        <time>2022-05-22 13:48:49</time>
      </trkpt>
      <trkpt lat="42.32071" lon="1.36085">
        <ele>936.8</ele>
        <time>2022-05-22 13:48:50</time>
      </trkpt>
      <trkpt lat="42.32072" lon="1.36083">
        <ele>937</ele>
        <time>2022-05-22 13:48:51</time>
      </trkpt>
      <trkpt lat="42.32073" lon="1.36081">
        <ele>937.2</ele>
        <time>2022-05-22 13:48:52</time>
      </trkpt>
      <trkpt lat="42.32074" lon="1.3608">
        <ele>937.4</ele>
        <time>2022-05-22 13:48:53</time>
      </trkpt>
      <trkpt lat="42.32074" lon="1.36078">
        <ele>937.6</ele>
        <time>2022-05-22 13:48:54</time>
      </trkpt>
      <trkpt lat="42.32075" lon="1.36077">
        <ele>937.6</ele>
        <time>2022-05-22 13:48:55</time>
      </trkpt>
      <trkpt lat="42.32076" lon="1.36075">
        <ele>937.8</ele>
        <time>2022-05-22 13:48:56</time>
      </trkpt>
      <trkpt lat="42.32077" lon="1.36074">
        <ele>938</ele>
        <time>2022-05-22 13:48:57</time>
      </trkpt>
      <trkpt lat="42.32079" lon="1.36073">
        <ele>938.2</ele>
        <time>2022-05-22 13:48:58</time>
      </trkpt>
      <trkpt lat="42.3208" lon="1.36072">
        <ele>938.4</ele>
        <time>2022-05-22 13:48:59</time>
      </trkpt>
      <trkpt lat="42.3208" lon="1.3607">
        <ele>938.6</ele>
        <time>2022-05-22 13:49:00</time>
      </trkpt>
      <trkpt lat="42.32081" lon="1.36068">
        <ele>938.8</ele>
        <time>2022-05-22 13:49:01</time>
      </trkpt>
      <trkpt lat="42.32083" lon="1.36066">
        <ele>939</ele>
        <time>2022-05-22 13:49:02</time>
      </trkpt>
      <trkpt lat="42.32084" lon="1.36065">
        <ele>939.2</ele>
        <time>2022-05-22 13:49:03</time>
      </trkpt>
      <trkpt lat="42.32085" lon="1.36063">
        <ele>939.4</ele>
        <time>2022-05-22 13:49:04</time>
      </trkpt>
      <trkpt lat="42.32086" lon="1.36062">
        <ele>939.4</ele>
        <time>2022-05-22 13:49:05</time>
      </trkpt>
      <trkpt lat="42.32087" lon="1.3606">
        <ele>939.6</ele>
        <time>2022-05-22 13:49:06</time>
      </trkpt>
      <trkpt lat="42.32089" lon="1.36058">
        <ele>939.8</ele>
        <time>2022-05-22 13:49:07</time>
      </trkpt>
      <trkpt lat="42.3209" lon="1.36056">
        <ele>940</ele>
        <time>2022-05-22 13:49:08</time>
      </trkpt>
      <trkpt lat="42.32091" lon="1.36055">
        <ele>940</ele>
        <time>2022-05-22 13:49:09</time>
      </trkpt>
      <trkpt lat="42.32092" lon="1.36053">
        <ele>940.2</ele>
        <time>2022-05-22 13:49:10</time>
      </trkpt>
      <trkpt lat="42.32093" lon="1.3605">
        <ele>940.4</ele>
        <time>2022-05-22 13:49:11</time>
      </trkpt>
      <trkpt lat="42.32094" lon="1.36048">
        <ele>940.6</ele>
        <time>2022-05-22 13:49:12</time>
      </trkpt>
      <trkpt lat="42.32094" lon="1.36046">
        <ele>940.8</ele>
        <time>2022-05-22 13:49:13</time>
      </trkpt>
      <trkpt lat="42.32094" lon="1.36044">
        <ele>940.8</ele>
        <time>2022-05-22 13:49:14</time>
      </trkpt>
      <trkpt lat="42.32094" lon="1.36042">
        <ele>941</ele>
        <time>2022-05-22 13:49:15</time>
      </trkpt>
      <trkpt lat="42.32093" lon="1.36039">
        <ele>941.2</ele>
        <time>2022-05-22 13:49:16</time>
      </trkpt>
      <trkpt lat="42.32092" lon="1.36036">
        <ele>941.4</ele>
        <time>2022-05-22 13:49:17</time>
      </trkpt>
      <trkpt lat="42.32092" lon="1.36034">
        <ele>941.4</ele>
        <time>2022-05-22 13:49:18</time>
      </trkpt>
      <trkpt lat="42.32091" lon="1.36032">
        <ele>941.6</ele>
        <time>2022-05-22 13:49:19</time>
      </trkpt>
      <trkpt lat="42.3209" lon="1.3603">
        <ele>941.8</ele>
        <time>2022-05-22 13:49:20</time>
      </trkpt>
      <trkpt lat="42.32088" lon="1.36029">
        <ele>941.8</ele>
        <time>2022-05-22 13:49:21</time>
      </trkpt>
      <trkpt lat="42.32087" lon="1.36027">
        <ele>942</ele>
        <time>2022-05-22 13:49:22</time>
      </trkpt>
      <trkpt lat="42.32085" lon="1.36025">
        <ele>942.2</ele>
        <time>2022-05-22 13:49:23</time>
      </trkpt>
      <trkpt lat="42.32084" lon="1.36023">
        <ele>942.4</ele>
        <time>2022-05-22 13:49:24</time>
      </trkpt>
      <trkpt lat="42.32082" lon="1.36022">
        <ele>942.6</ele>
        <time>2022-05-22 13:49:25</time>
      </trkpt>
      <trkpt lat="42.32081" lon="1.3602">
        <ele>942.8</ele>
        <time>2022-05-22 13:49:26</time>
      </trkpt>
      <trkpt lat="42.32079" lon="1.36019">
        <ele>943</ele>
        <time>2022-05-22 13:49:27</time>
      </trkpt>
      <trkpt lat="42.32077" lon="1.36017">
        <ele>943</ele>
        <time>2022-05-22 13:49:28</time>
      </trkpt>
      <trkpt lat="42.32075" lon="1.36016">
        <ele>943.2</ele>
        <time>2022-05-22 13:49:29</time>
      </trkpt>
      <trkpt lat="42.32074" lon="1.36014">
        <ele>943.4</ele>
        <time>2022-05-22 13:49:30</time>
      </trkpt>
      <trkpt lat="42.32072" lon="1.36013">
        <ele>943.6</ele>
        <time>2022-05-22 13:49:31</time>
      </trkpt>
      <trkpt lat="42.3207" lon="1.36011">
        <ele>943.8</ele>
        <time>2022-05-22 13:49:32</time>
      </trkpt>
      <trkpt lat="42.32068" lon="1.3601">
        <ele>943.8</ele>
        <time>2022-05-22 13:49:33</time>
      </trkpt>
      <trkpt lat="42.32067" lon="1.36009">
        <ele>944</ele>
        <time>2022-05-22 13:49:34</time>
      </trkpt>
      <trkpt lat="42.32065" lon="1.36008">
        <ele>944.2</ele>
        <time>2022-05-22 13:49:35</time>
      </trkpt>
      <trkpt lat="42.32063" lon="1.36007">
        <ele>944.4</ele>
        <time>2022-05-22 13:49:36</time>
      </trkpt>
      <trkpt lat="42.32061" lon="1.36006">
        <ele>944.6</ele>
        <time>2022-05-22 13:49:37</time>
      </trkpt>
      <trkpt lat="42.3206" lon="1.36006">
        <ele>944.8</ele>
        <time>2022-05-22 13:49:38</time>
      </trkpt>
      <trkpt lat="42.32058" lon="1.36005">
        <ele>944.8</ele>
        <time>2022-05-22 13:49:39</time>
      </trkpt>
      <trkpt lat="42.32056" lon="1.36005">
        <ele>945</ele>
        <time>2022-05-22 13:49:40</time>
      </trkpt>
      <trkpt lat="42.32054" lon="1.36004">
        <ele>945.2</ele>
        <time>2022-05-22 13:49:41</time>
      </trkpt>
      <trkpt lat="42.32053" lon="1.36003">
        <ele>945.4</ele>
        <time>2022-05-22 13:49:42</time>
      </trkpt>
      <trkpt lat="42.32051" lon="1.36003">
        <ele>945.6</ele>
        <time>2022-05-22 13:49:43</time>
      </trkpt>
      <trkpt lat="42.32049" lon="1.36002">
        <ele>945.8</ele>
        <time>2022-05-22 13:49:44</time>
      </trkpt>
      <trkpt lat="42.32047" lon="1.36002">
        <ele>946</ele>
        <time>2022-05-22 13:49:45</time>
      </trkpt>
      <trkpt lat="42.32045" lon="1.36001">
        <ele>946</ele>
        <time>2022-05-22 13:49:46</time>
      </trkpt>
      <trkpt lat="42.32043" lon="1.36001">
        <ele>946.2</ele>
        <time>2022-05-22 13:49:47</time>
      </trkpt>
      <trkpt lat="42.32041" lon="1.36">
        <ele>946.2</ele>
        <time>2022-05-22 13:49:48</time>
      </trkpt>
      <trkpt lat="42.3204" lon="1.36">
        <ele>946.4</ele>
        <time>2022-05-22 13:49:49</time>
      </trkpt>
      <trkpt lat="42.32038" lon="1.35999">
        <ele>946.4</ele>
        <time>2022-05-22 13:49:50</time>
      </trkpt>
      <trkpt lat="42.32037" lon="1.35998">
        <ele>946.6</ele>
        <time>2022-05-22 13:49:51</time>
      </trkpt>
      <trkpt lat="42.32035" lon="1.35998">
        <ele>946.8</ele>
        <time>2022-05-22 13:49:52</time>
      </trkpt>
      <trkpt lat="42.32033" lon="1.35997">
        <ele>946.8</ele>
        <time>2022-05-22 13:49:53</time>
      </trkpt>
      <trkpt lat="42.32032" lon="1.35997">
        <ele>947</ele>
        <time>2022-05-22 13:49:54</time>
      </trkpt>
      <trkpt lat="42.3203" lon="1.35996">
        <ele>947.2</ele>
        <time>2022-05-22 13:49:55</time>
      </trkpt>
      <trkpt lat="42.32028" lon="1.35996">
        <ele>947.4</ele>
        <time>2022-05-22 13:49:56</time>
      </trkpt>
      <trkpt lat="42.32026" lon="1.35996">
        <ele>947.4</ele>
        <time>2022-05-22 13:49:57</time>
      </trkpt>
      <trkpt lat="42.32024" lon="1.35996">
        <ele>947.6</ele>
        <time>2022-05-22 13:49:58</time>
      </trkpt>
      <trkpt lat="42.32023" lon="1.35996">
        <ele>947.8</ele>
        <time>2022-05-22 13:49:59</time>
      </trkpt>
      <trkpt lat="42.32021" lon="1.35996">
        <ele>948</ele>
        <time>2022-05-22 13:50:00</time>
      </trkpt>
      <trkpt lat="42.32019" lon="1.35995">
        <ele>948.2</ele>
        <time>2022-05-22 13:50:01</time>
      </trkpt>
      <trkpt lat="42.32017" lon="1.35995">
        <ele>948.4</ele>
        <time>2022-05-22 13:50:02</time>
      </trkpt>
      <trkpt lat="42.32016" lon="1.35995">
        <ele>948.8</ele>
        <time>2022-05-22 13:50:03</time>
      </trkpt>
      <trkpt lat="42.32014" lon="1.35995">
        <ele>949</ele>
        <time>2022-05-22 13:50:04</time>
      </trkpt>
      <trkpt lat="42.32012" lon="1.35995">
        <ele>949</ele>
        <time>2022-05-22 13:50:05</time>
      </trkpt>
      <trkpt lat="42.3201" lon="1.35995">
        <ele>949.2</ele>
        <time>2022-05-22 13:50:06</time>
      </trkpt>
      <trkpt lat="42.32008" lon="1.35995">
        <ele>949.4</ele>
        <time>2022-05-22 13:50:07</time>
      </trkpt>
      <trkpt lat="42.32006" lon="1.35994">
        <ele>949.4</ele>
        <time>2022-05-22 13:50:08</time>
      </trkpt>
      <trkpt lat="42.32004" lon="1.35994">
        <ele>949.4</ele>
        <time>2022-05-22 13:50:09</time>
      </trkpt>
      <trkpt lat="42.32002" lon="1.35993">
        <ele>949.6</ele>
        <time>2022-05-22 13:50:10</time>
      </trkpt>
      <trkpt lat="42.32" lon="1.35993">
        <ele>949.6</ele>
        <time>2022-05-22 13:50:11</time>
      </trkpt>
      <trkpt lat="42.31999" lon="1.35993">
        <ele>949.8</ele>
        <time>2022-05-22 13:50:12</time>
      </trkpt>
      <trkpt lat="42.31997" lon="1.35993">
        <ele>950</ele>
        <time>2022-05-22 13:50:13</time>
      </trkpt>
      <trkpt lat="42.31995" lon="1.35992">
        <ele>950.2</ele>
        <time>2022-05-22 13:50:14</time>
      </trkpt>
      <trkpt lat="42.31993" lon="1.35991">
        <ele>950.4</ele>
        <time>2022-05-22 13:50:15</time>
      </trkpt>
      <trkpt lat="42.31992" lon="1.3599">
        <ele>950.6</ele>
        <time>2022-05-22 13:50:16</time>
      </trkpt>
      <trkpt lat="42.3199" lon="1.3599">
        <ele>950.6</ele>
        <time>2022-05-22 13:50:17</time>
      </trkpt>
      <trkpt lat="42.31988" lon="1.35989">
        <ele>950.6</ele>
        <time>2022-05-22 13:50:18</time>
      </trkpt>
      <trkpt lat="42.31986" lon="1.35988">
        <ele>950.6</ele>
        <time>2022-05-22 13:50:19</time>
      </trkpt>
      <trkpt lat="42.31985" lon="1.35987">
        <ele>950.8</ele>
        <time>2022-05-22 13:50:20</time>
      </trkpt>
      <trkpt lat="42.31983" lon="1.35986">
        <ele>951</ele>
        <time>2022-05-22 13:50:21</time>
      </trkpt>
      <trkpt lat="42.31981" lon="1.35985">
        <ele>951</ele>
        <time>2022-05-22 13:50:22</time>
      </trkpt>
      <trkpt lat="42.3198" lon="1.35984">
        <ele>951.2</ele>
        <time>2022-05-22 13:50:23</time>
      </trkpt>
      <trkpt lat="42.31978" lon="1.35982">
        <ele>951.4</ele>
        <time>2022-05-22 13:50:24</time>
      </trkpt>
      <trkpt lat="42.31977" lon="1.35981">
        <ele>951.6</ele>
        <time>2022-05-22 13:50:25</time>
      </trkpt>
      <trkpt lat="42.31975" lon="1.3598">
        <ele>951.8</ele>
        <time>2022-05-22 13:50:26</time>
      </trkpt>
      <trkpt lat="42.31974" lon="1.35979">
        <ele>952</ele>
        <time>2022-05-22 13:50:27</time>
      </trkpt>
      <trkpt lat="42.31972" lon="1.35977">
        <ele>952</ele>
        <time>2022-05-22 13:50:28</time>
      </trkpt>
      <trkpt lat="42.31971" lon="1.35975">
        <ele>952.4</ele>
        <time>2022-05-22 13:50:29</time>
      </trkpt>
      <trkpt lat="42.31969" lon="1.35973">
        <ele>952.6</ele>
        <time>2022-05-22 13:50:30</time>
      </trkpt>
      <trkpt lat="42.31968" lon="1.35971">
        <ele>952.6</ele>
        <time>2022-05-22 13:50:31</time>
      </trkpt>
      <trkpt lat="42.31967" lon="1.35969">
        <ele>952.6</ele>
        <time>2022-05-22 13:50:32</time>
      </trkpt>
      <trkpt lat="42.31966" lon="1.35967">
        <ele>952.6</ele>
        <time>2022-05-22 13:50:33</time>
      </trkpt>
      <trkpt lat="42.31965" lon="1.35964">
        <ele>952.8</ele>
        <time>2022-05-22 13:50:34</time>
      </trkpt>
      <trkpt lat="42.31964" lon="1.35962">
        <ele>952.8</ele>
        <time>2022-05-22 13:50:35</time>
      </trkpt>
      <trkpt lat="42.31963" lon="1.35959">
        <ele>953</ele>
        <time>2022-05-22 13:50:36</time>
      </trkpt>
      <trkpt lat="42.31962" lon="1.35956">
        <ele>953</ele>
        <time>2022-05-22 13:50:37</time>
      </trkpt>
      <trkpt lat="42.31961" lon="1.35954">
        <ele>953</ele>
        <time>2022-05-22 13:50:38</time>
      </trkpt>
      <trkpt lat="42.3196" lon="1.35951">
        <ele>953.2</ele>
        <time>2022-05-22 13:50:39</time>
      </trkpt>
      <trkpt lat="42.3196" lon="1.35949">
        <ele>953.4</ele>
        <time>2022-05-22 13:50:40</time>
      </trkpt>
      <trkpt lat="42.31959" lon="1.35946">
        <ele>953.4</ele>
        <time>2022-05-22 13:50:41</time>
      </trkpt>
      <trkpt lat="42.31958" lon="1.35943">
        <ele>953.6</ele>
        <time>2022-05-22 13:50:42</time>
      </trkpt>
      <trkpt lat="42.31958" lon="1.35941">
        <ele>953.8</ele>
        <time>2022-05-22 13:50:43</time>
      </trkpt>
      <trkpt lat="42.31957" lon="1.35938">
        <ele>954</ele>
        <time>2022-05-22 13:50:44</time>
      </trkpt>
      <trkpt lat="42.31957" lon="1.35937">
        <ele>954.2</ele>
        <time>2022-05-22 13:50:45</time>
      </trkpt>
      <trkpt lat="42.31955" lon="1.35933">
        <ele>954.4</ele>
        <time>2022-05-22 13:50:46</time>
      </trkpt>
      <trkpt lat="42.31955" lon="1.3593">
        <ele>954.4</ele>
        <time>2022-05-22 13:50:47</time>
      </trkpt>
      <trkpt lat="42.31954" lon="1.35927">
        <ele>954.6</ele>
        <time>2022-05-22 13:50:48</time>
      </trkpt>
      <trkpt lat="42.31954" lon="1.35925">
        <ele>954.8</ele>
        <time>2022-05-22 13:50:49</time>
      </trkpt>
      <trkpt lat="42.31953" lon="1.35921">
        <ele>955</ele>
        <time>2022-05-22 13:50:50</time>
      </trkpt>
      <trkpt lat="42.31953" lon="1.35918">
        <ele>955</ele>
        <time>2022-05-22 13:50:51</time>
      </trkpt>
      <trkpt lat="42.31953" lon="1.35915">
        <ele>955.2</ele>
        <time>2022-05-22 13:50:52</time>
      </trkpt>
      <trkpt lat="42.31952" lon="1.35912">
        <ele>955.2</ele>
        <time>2022-05-22 13:50:53</time>
      </trkpt>
      <trkpt lat="42.31952" lon="1.35908">
        <ele>955.4</ele>
        <time>2022-05-22 13:50:54</time>
      </trkpt>
      <trkpt lat="42.31952" lon="1.35905">
        <ele>955.4</ele>
        <time>2022-05-22 13:50:55</time>
      </trkpt>
      <trkpt lat="42.31951" lon="1.35902">
        <ele>955.6</ele>
        <time>2022-05-22 13:50:56</time>
      </trkpt>
      <trkpt lat="42.31951" lon="1.35898">
        <ele>955.6</ele>
        <time>2022-05-22 13:50:57</time>
      </trkpt>
      <trkpt lat="42.31951" lon="1.35895">
        <ele>955.8</ele>
        <time>2022-05-22 13:50:58</time>
      </trkpt>
      <trkpt lat="42.31951" lon="1.35892">
        <ele>955.8</ele>
        <time>2022-05-22 13:50:59</time>
      </trkpt>
      <trkpt lat="42.3195" lon="1.35889">
        <ele>956</ele>
        <time>2022-05-22 13:51:00</time>
      </trkpt>
      <trkpt lat="42.3195" lon="1.35886">
        <ele>956.2</ele>
        <time>2022-05-22 13:51:01</time>
      </trkpt>
      <trkpt lat="42.31949" lon="1.35883">
        <ele>956.4</ele>
        <time>2022-05-22 13:51:02</time>
      </trkpt>
      <trkpt lat="42.31949" lon="1.3588">
        <ele>956.4</ele>
        <time>2022-05-22 13:51:03</time>
      </trkpt>
      <trkpt lat="42.31949" lon="1.35877">
        <ele>956.6</ele>
        <time>2022-05-22 13:51:04</time>
      </trkpt>
      <trkpt lat="42.31949" lon="1.35873">
        <ele>956.8</ele>
        <time>2022-05-22 13:51:05</time>
      </trkpt>
      <trkpt lat="42.31948" lon="1.3587">
        <ele>957</ele>
        <time>2022-05-22 13:51:06</time>
      </trkpt>
      <trkpt lat="42.31949" lon="1.35867">
        <ele>957.2</ele>
        <time>2022-05-22 13:51:07</time>
      </trkpt>
      <trkpt lat="42.31949" lon="1.35864">
        <ele>957.2</ele>
        <time>2022-05-22 13:51:08</time>
      </trkpt>
      <trkpt lat="42.3195" lon="1.35861">
        <ele>957.2</ele>
        <time>2022-05-22 13:51:09</time>
      </trkpt>
      <trkpt lat="42.3195" lon="1.35858">
        <ele>957.4</ele>
        <time>2022-05-22 13:51:10</time>
      </trkpt>
      <trkpt lat="42.3195" lon="1.35855">
        <ele>957.4</ele>
        <time>2022-05-22 13:51:11</time>
      </trkpt>
      <trkpt lat="42.3195" lon="1.35852">
        <ele>957.6</ele>
        <time>2022-05-22 13:51:12</time>
      </trkpt>
      <trkpt lat="42.3195" lon="1.35848">
        <ele>957.8</ele>
        <time>2022-05-22 13:51:13</time>
      </trkpt>
      <trkpt lat="42.3195" lon="1.35845">
        <ele>958</ele>
        <time>2022-05-22 13:51:14</time>
      </trkpt>
      <trkpt lat="42.3195" lon="1.35843">
        <ele>958</ele>
        <time>2022-05-22 13:51:15</time>
      </trkpt>
      <trkpt lat="42.31951" lon="1.3584">
        <ele>958.2</ele>
        <time>2022-05-22 13:51:16</time>
      </trkpt>
      <trkpt lat="42.31952" lon="1.35838">
        <ele>958.2</ele>
        <time>2022-05-22 13:51:17</time>
      </trkpt>
      <trkpt lat="42.31953" lon="1.35835">
        <ele>958.2</ele>
        <time>2022-05-22 13:51:18</time>
      </trkpt>
      <trkpt lat="42.31953" lon="1.35833">
        <ele>958.4</ele>
        <time>2022-05-22 13:51:19</time>
      </trkpt>
      <trkpt lat="42.31955" lon="1.35831">
        <ele>958.4</ele>
        <time>2022-05-22 13:51:20</time>
      </trkpt>
      <trkpt lat="42.31956" lon="1.35829">
        <ele>958.6</ele>
        <time>2022-05-22 13:51:21</time>
      </trkpt>
      <trkpt lat="42.31958" lon="1.35827">
        <ele>958.6</ele>
        <time>2022-05-22 13:51:22</time>
      </trkpt>
      <trkpt lat="42.3196" lon="1.35826">
        <ele>958.8</ele>
        <time>2022-05-22 13:51:23</time>
      </trkpt>
      <trkpt lat="42.31961" lon="1.35826">
        <ele>958.8</ele>
        <time>2022-05-22 13:51:24</time>
      </trkpt>
      <trkpt lat="42.31963" lon="1.35826">
        <ele>959</ele>
        <time>2022-05-22 13:51:25</time>
      </trkpt>
      <trkpt lat="42.31965" lon="1.35827">
        <ele>959.2</ele>
        <time>2022-05-22 13:51:26</time>
      </trkpt>
      <trkpt lat="42.31967" lon="1.35828">
        <ele>959.4</ele>
        <time>2022-05-22 13:51:27</time>
      </trkpt>
      <trkpt lat="42.31968" lon="1.35829">
        <ele>959.4</ele>
        <time>2022-05-22 13:51:28</time>
      </trkpt>
      <trkpt lat="42.31969" lon="1.35831">
        <ele>959.6</ele>
        <time>2022-05-22 13:51:29</time>
      </trkpt>
      <trkpt lat="42.3197" lon="1.35833">
        <ele>959.8</ele>
        <time>2022-05-22 13:51:30</time>
      </trkpt>
      <trkpt lat="42.3197" lon="1.35836">
        <ele>959.8</ele>
        <time>2022-05-22 13:51:31</time>
      </trkpt>
      <trkpt lat="42.3197" lon="1.35839">
        <ele>960</ele>
        <time>2022-05-22 13:51:32</time>
      </trkpt>
      <trkpt lat="42.3197" lon="1.35841">
        <ele>960.2</ele>
        <time>2022-05-22 13:51:33</time>
      </trkpt>
      <trkpt lat="42.3197" lon="1.35844">
        <ele>960.4</ele>
        <time>2022-05-22 13:51:34</time>
      </trkpt>
      <trkpt lat="42.3197" lon="1.35847">
        <ele>960.6</ele>
        <time>2022-05-22 13:51:35</time>
      </trkpt>
      <trkpt lat="42.3197" lon="1.35849">
        <ele>960.8</ele>
        <time>2022-05-22 13:51:36</time>
      </trkpt>
      <trkpt lat="42.3197" lon="1.35852">
        <ele>961</ele>
        <time>2022-05-22 13:51:37</time>
      </trkpt>
      <trkpt lat="42.31969" lon="1.35855">
        <ele>961.2</ele>
        <time>2022-05-22 13:51:38</time>
      </trkpt>
      <trkpt lat="42.31969" lon="1.35858">
        <ele>961.6</ele>
        <time>2022-05-22 13:51:39</time>
      </trkpt>
      <trkpt lat="42.3197" lon="1.35861">
        <ele>961.6</ele>
        <time>2022-05-22 13:51:40</time>
      </trkpt>
      <trkpt lat="42.3197" lon="1.35864">
        <ele>961.8</ele>
        <time>2022-05-22 13:51:41</time>
      </trkpt>
      <trkpt lat="42.3197" lon="1.35866">
        <ele>962</ele>
        <time>2022-05-22 13:51:42</time>
      </trkpt>
      <trkpt lat="42.3197" lon="1.35869">
        <ele>962.2</ele>
        <time>2022-05-22 13:51:43</time>
      </trkpt>
      <trkpt lat="42.3197" lon="1.35871">
        <ele>962.2</ele>
        <time>2022-05-22 13:51:44</time>
      </trkpt>
      <trkpt lat="42.3197" lon="1.35874">
        <ele>962.4</ele>
        <time>2022-05-22 13:51:45</time>
      </trkpt>
      <trkpt lat="42.3197" lon="1.35876">
        <ele>962.6</ele>
        <time>2022-05-22 13:51:46</time>
      </trkpt>
      <trkpt lat="42.3197" lon="1.35879">
        <ele>962.8</ele>
        <time>2022-05-22 13:51:47</time>
      </trkpt>
      <trkpt lat="42.31971" lon="1.35882">
        <ele>963</ele>
        <time>2022-05-22 13:51:48</time>
      </trkpt>
      <trkpt lat="42.31971" lon="1.35884">
        <ele>963</ele>
        <time>2022-05-22 13:51:49</time>
      </trkpt>
      <trkpt lat="42.31972" lon="1.35886">
        <ele>963.2</ele>
        <time>2022-05-22 13:51:50</time>
      </trkpt>
      <trkpt lat="42.31973" lon="1.35889">
        <ele>963.4</ele>
        <time>2022-05-22 13:51:51</time>
      </trkpt>
      <trkpt lat="42.31974" lon="1.35891">
        <ele>963.6</ele>
        <time>2022-05-22 13:51:52</time>
      </trkpt>
      <trkpt lat="42.31974" lon="1.35894">
        <ele>963.8</ele>
        <time>2022-05-22 13:51:53</time>
      </trkpt>
      <trkpt lat="42.31975" lon="1.35896">
        <ele>964</ele>
        <time>2022-05-22 13:51:54</time>
      </trkpt>
      <trkpt lat="42.31976" lon="1.35898">
        <ele>964.2</ele>
        <time>2022-05-22 13:51:55</time>
      </trkpt>
      <trkpt lat="42.31977" lon="1.35901">
        <ele>964.4</ele>
        <time>2022-05-22 13:51:56</time>
      </trkpt>
      <trkpt lat="42.31978" lon="1.35903">
        <ele>964.8</ele>
        <time>2022-05-22 13:51:57</time>
      </trkpt>
      <trkpt lat="42.31979" lon="1.35905">
        <ele>965</ele>
        <time>2022-05-22 13:51:58</time>
      </trkpt>
      <trkpt lat="42.31979" lon="1.35907">
        <ele>965.2</ele>
        <time>2022-05-22 13:51:59</time>
      </trkpt>
      <trkpt lat="42.31981" lon="1.35909">
        <ele>965.2</ele>
        <time>2022-05-22 13:52:00</time>
      </trkpt>
      <trkpt lat="42.31982" lon="1.35912">
        <ele>965.4</ele>
        <time>2022-05-22 13:52:01</time>
      </trkpt>
      <trkpt lat="42.31983" lon="1.35914">
        <ele>965.6</ele>
        <time>2022-05-22 13:52:02</time>
      </trkpt>
      <trkpt lat="42.31984" lon="1.35916">
        <ele>965.6</ele>
        <time>2022-05-22 13:52:03</time>
      </trkpt>
      <trkpt lat="42.31986" lon="1.35918">
        <ele>965.8</ele>
        <time>2022-05-22 13:52:04</time>
      </trkpt>
      <trkpt lat="42.31987" lon="1.35919">
        <ele>965.8</ele>
        <time>2022-05-22 13:52:05</time>
      </trkpt>
      <trkpt lat="42.31988" lon="1.35921">
        <ele>966</ele>
        <time>2022-05-22 13:52:06</time>
      </trkpt>
      <trkpt lat="42.3199" lon="1.35922">
        <ele>966.2</ele>
        <time>2022-05-22 13:52:07</time>
      </trkpt>
      <trkpt lat="42.31991" lon="1.35923">
        <ele>966.4</ele>
        <time>2022-05-22 13:52:08</time>
      </trkpt>
      <trkpt lat="42.31992" lon="1.35924">
        <ele>966.6</ele>
        <time>2022-05-22 13:52:09</time>
      </trkpt>
      <trkpt lat="42.31994" lon="1.35925">
        <ele>966.8</ele>
        <time>2022-05-22 13:52:10</time>
      </trkpt>
      <trkpt lat="42.31995" lon="1.35926">
        <ele>966.8</ele>
        <time>2022-05-22 13:52:11</time>
      </trkpt>
      <trkpt lat="42.31997" lon="1.35928">
        <ele>967</ele>
        <time>2022-05-22 13:52:12</time>
      </trkpt>
      <trkpt lat="42.31999" lon="1.35929">
        <ele>967.2</ele>
        <time>2022-05-22 13:52:13</time>
      </trkpt>
      <trkpt lat="42.32001" lon="1.3593">
        <ele>967.2</ele>
        <time>2022-05-22 13:52:14</time>
      </trkpt>
      <trkpt lat="42.32002" lon="1.3593">
        <ele>967.4</ele>
        <time>2022-05-22 13:52:15</time>
      </trkpt>
      <trkpt lat="42.32005" lon="1.35931">
        <ele>967.6</ele>
        <time>2022-05-22 13:52:16</time>
      </trkpt>
      <trkpt lat="42.32006" lon="1.35932">
        <ele>967.8</ele>
        <time>2022-05-22 13:52:17</time>
      </trkpt>
      <trkpt lat="42.32008" lon="1.35933">
        <ele>968</ele>
        <time>2022-05-22 13:52:18</time>
      </trkpt>
      <trkpt lat="42.3201" lon="1.35933">
        <ele>968.2</ele>
        <time>2022-05-22 13:52:19</time>
      </trkpt>
      <trkpt lat="42.32011" lon="1.35933">
        <ele>968.2</ele>
        <time>2022-05-22 13:52:20</time>
      </trkpt>
      <trkpt lat="42.32013" lon="1.35934">
        <ele>968.4</ele>
        <time>2022-05-22 13:52:21</time>
      </trkpt>
      <trkpt lat="42.32015" lon="1.35934">
        <ele>968.4</ele>
        <time>2022-05-22 13:52:22</time>
      </trkpt>
      <trkpt lat="42.32017" lon="1.35934">
        <ele>968.6</ele>
        <time>2022-05-22 13:52:23</time>
      </trkpt>
      <trkpt lat="42.32019" lon="1.35934">
        <ele>968.8</ele>
        <time>2022-05-22 13:52:24</time>
      </trkpt>
      <trkpt lat="42.3202" lon="1.35934">
        <ele>969</ele>
        <time>2022-05-22 13:52:25</time>
      </trkpt>
      <trkpt lat="42.32022" lon="1.35934">
        <ele>969.2</ele>
        <time>2022-05-22 13:52:26</time>
      </trkpt>
      <trkpt lat="42.32024" lon="1.35933">
        <ele>969.4</ele>
        <time>2022-05-22 13:52:27</time>
      </trkpt>
      <trkpt lat="42.32026" lon="1.35933">
        <ele>969.6</ele>
        <time>2022-05-22 13:52:28</time>
      </trkpt>
      <trkpt lat="42.32028" lon="1.35933">
        <ele>969.8</ele>
        <time>2022-05-22 13:52:29</time>
      </trkpt>
      <trkpt lat="42.3203" lon="1.35933">
        <ele>970</ele>
        <time>2022-05-22 13:52:30</time>
      </trkpt>
      <trkpt lat="42.32031" lon="1.35932">
        <ele>970.2</ele>
        <time>2022-05-22 13:52:31</time>
      </trkpt>
      <trkpt lat="42.32033" lon="1.35932">
        <ele>970.2</ele>
        <time>2022-05-22 13:52:32</time>
      </trkpt>
      <trkpt lat="42.32035" lon="1.35932">
        <ele>970.4</ele>
        <time>2022-05-22 13:52:33</time>
      </trkpt>
      <trkpt lat="42.32037" lon="1.35932">
        <ele>970.6</ele>
        <time>2022-05-22 13:52:34</time>
      </trkpt>
      <trkpt lat="42.32038" lon="1.35931">
        <ele>970.8</ele>
        <time>2022-05-22 13:52:35</time>
      </trkpt>
      <trkpt lat="42.3204" lon="1.35931">
        <ele>971</ele>
        <time>2022-05-22 13:52:36</time>
      </trkpt>
      <trkpt lat="42.32041" lon="1.35931">
        <ele>971.2</ele>
        <time>2022-05-22 13:52:37</time>
      </trkpt>
      <trkpt lat="42.32043" lon="1.35931">
        <ele>971.4</ele>
        <time>2022-05-22 13:52:38</time>
      </trkpt>
      <trkpt lat="42.32045" lon="1.3593">
        <ele>971.6</ele>
        <time>2022-05-22 13:52:39</time>
      </trkpt>
      <trkpt lat="42.32047" lon="1.3593">
        <ele>971.8</ele>
        <time>2022-05-22 13:52:40</time>
      </trkpt>
      <trkpt lat="42.32049" lon="1.3593">
        <ele>971.8</ele>
        <time>2022-05-22 13:52:41</time>
      </trkpt>
      <trkpt lat="42.32051" lon="1.3593">
        <ele>972</ele>
        <time>2022-05-22 13:52:42</time>
      </trkpt>
      <trkpt lat="42.32053" lon="1.3593">
        <ele>972.2</ele>
        <time>2022-05-22 13:52:43</time>
      </trkpt>
      <trkpt lat="42.32055" lon="1.3593">
        <ele>972.4</ele>
        <time>2022-05-22 13:52:44</time>
      </trkpt>
      <trkpt lat="42.32057" lon="1.35931">
        <ele>972.4</ele>
        <time>2022-05-22 13:52:45</time>
      </trkpt>
      <trkpt lat="42.32058" lon="1.35931">
        <ele>972.6</ele>
        <time>2022-05-22 13:52:46</time>
      </trkpt>
      <trkpt lat="42.3206" lon="1.3593">
        <ele>972.8</ele>
        <time>2022-05-22 13:52:47</time>
      </trkpt>
      <trkpt lat="42.32062" lon="1.3593">
        <ele>973</ele>
        <time>2022-05-22 13:52:48</time>
      </trkpt>
      <trkpt lat="42.32064" lon="1.3593">
        <ele>973</ele>
        <time>2022-05-22 13:52:49</time>
      </trkpt>
      <trkpt lat="42.32066" lon="1.3593">
        <ele>973.2</ele>
        <time>2022-05-22 13:52:50</time>
      </trkpt>
      <trkpt lat="42.32068" lon="1.3593">
        <ele>973.2</ele>
        <time>2022-05-22 13:52:51</time>
      </trkpt>
      <trkpt lat="42.3207" lon="1.35931">
        <ele>973.4</ele>
        <time>2022-05-22 13:52:52</time>
      </trkpt>
      <trkpt lat="42.32072" lon="1.35931">
        <ele>973.6</ele>
        <time>2022-05-22 13:52:53</time>
      </trkpt>
      <trkpt lat="42.32074" lon="1.35931">
        <ele>973.8</ele>
        <time>2022-05-22 13:52:54</time>
      </trkpt>
      <trkpt lat="42.32075" lon="1.35931">
        <ele>974</ele>
        <time>2022-05-22 13:52:55</time>
      </trkpt>
      <trkpt lat="42.32077" lon="1.35931">
        <ele>974.2</ele>
        <time>2022-05-22 13:52:56</time>
      </trkpt>
      <trkpt lat="42.32079" lon="1.35931">
        <ele>974.2</ele>
        <time>2022-05-22 13:52:57</time>
      </trkpt>
      <trkpt lat="42.32081" lon="1.35931">
        <ele>974.4</ele>
        <time>2022-05-22 13:52:58</time>
      </trkpt>
      <trkpt lat="42.32082" lon="1.35931">
        <ele>974.6</ele>
        <time>2022-05-22 13:52:59</time>
      </trkpt>
      <trkpt lat="42.32084" lon="1.35931">
        <ele>974.8</ele>
        <time>2022-05-22 13:53:00</time>
      </trkpt>
      <trkpt lat="42.32086" lon="1.35931">
        <ele>974.8</ele>
        <time>2022-05-22 13:53:01</time>
      </trkpt>
      <trkpt lat="42.32088" lon="1.35931">
        <ele>975</ele>
        <time>2022-05-22 13:53:02</time>
      </trkpt>
      <trkpt lat="42.32089" lon="1.35931">
        <ele>975</ele>
        <time>2022-05-22 13:53:03</time>
      </trkpt>
      <trkpt lat="42.32091" lon="1.35931">
        <ele>975.2</ele>
        <time>2022-05-22 13:53:04</time>
      </trkpt>
      <trkpt lat="42.32093" lon="1.35931">
        <ele>975.4</ele>
        <time>2022-05-22 13:53:05</time>
      </trkpt>
      <trkpt lat="42.32095" lon="1.35931">
        <ele>975.4</ele>
        <time>2022-05-22 13:53:06</time>
      </trkpt>
      <trkpt lat="42.32097" lon="1.35931">
        <ele>975.6</ele>
        <time>2022-05-22 13:53:07</time>
      </trkpt>
      <trkpt lat="42.32098" lon="1.35932">
        <ele>975.8</ele>
        <time>2022-05-22 13:53:08</time>
      </trkpt>
      <trkpt lat="42.321" lon="1.35932">
        <ele>976</ele>
        <time>2022-05-22 13:53:09</time>
      </trkpt>
      <trkpt lat="42.32102" lon="1.35932">
        <ele>976</ele>
        <time>2022-05-22 13:53:10</time>
      </trkpt>
      <trkpt lat="42.32103" lon="1.35933">
        <ele>976.2</ele>
        <time>2022-05-22 13:53:11</time>
      </trkpt>
      <trkpt lat="42.32105" lon="1.35933">
        <ele>976.2</ele>
        <time>2022-05-22 13:53:12</time>
      </trkpt>
      <trkpt lat="42.32107" lon="1.35933">
        <ele>976.4</ele>
        <time>2022-05-22 13:53:13</time>
      </trkpt>
      <trkpt lat="42.32108" lon="1.35933">
        <ele>976.6</ele>
        <time>2022-05-22 13:53:14</time>
      </trkpt>
      <trkpt lat="42.3211" lon="1.35933">
        <ele>976.8</ele>
        <time>2022-05-22 13:53:15</time>
      </trkpt>
      <trkpt lat="42.32112" lon="1.35934">
        <ele>977.2</ele>
        <time>2022-05-22 13:53:16</time>
      </trkpt>
      <trkpt lat="42.32113" lon="1.35934">
        <ele>977.4</ele>
        <time>2022-05-22 13:53:17</time>
      </trkpt>
      <trkpt lat="42.32115" lon="1.35934">
        <ele>977.6</ele>
        <time>2022-05-22 13:53:18</time>
      </trkpt>
      <trkpt lat="42.32117" lon="1.35934">
        <ele>977.6</ele>
        <time>2022-05-22 13:53:19</time>
      </trkpt>
      <trkpt lat="42.32119" lon="1.35934">
        <ele>977.8</ele>
        <time>2022-05-22 13:53:20</time>
      </trkpt>
      <trkpt lat="42.32121" lon="1.35935">
        <ele>978</ele>
        <time>2022-05-22 13:53:21</time>
      </trkpt>
      <trkpt lat="42.32122" lon="1.35935">
        <ele>978.2</ele>
        <time>2022-05-22 13:53:22</time>
      </trkpt>
      <trkpt lat="42.32124" lon="1.35935">
        <ele>978.4</ele>
        <time>2022-05-22 13:53:23</time>
      </trkpt>
      <trkpt lat="42.32126" lon="1.35936">
        <ele>978.4</ele>
        <time>2022-05-22 13:53:24</time>
      </trkpt>
      <trkpt lat="42.32128" lon="1.35936">
        <ele>978.6</ele>
        <time>2022-05-22 13:53:25</time>
      </trkpt>
      <trkpt lat="42.3213" lon="1.35936">
        <ele>978.8</ele>
        <time>2022-05-22 13:53:26</time>
      </trkpt>
      <trkpt lat="42.32132" lon="1.35937">
        <ele>979</ele>
        <time>2022-05-22 13:53:27</time>
      </trkpt>
      <trkpt lat="42.32133" lon="1.35937">
        <ele>979.2</ele>
        <time>2022-05-22 13:53:28</time>
      </trkpt>
      <trkpt lat="42.32135" lon="1.35937">
        <ele>979.4</ele>
        <time>2022-05-22 13:53:29</time>
      </trkpt>
      <trkpt lat="42.32136" lon="1.35937">
        <ele>979.4</ele>
        <time>2022-05-22 13:53:30</time>
      </trkpt>
      <trkpt lat="42.32138" lon="1.35937">
        <ele>979.6</ele>
        <time>2022-05-22 13:53:31</time>
      </trkpt>
      <trkpt lat="42.3214" lon="1.35937">
        <ele>979.8</ele>
        <time>2022-05-22 13:53:32</time>
      </trkpt>
      <trkpt lat="42.32142" lon="1.35937">
        <ele>979.8</ele>
        <time>2022-05-22 13:53:33</time>
      </trkpt>
      <trkpt lat="42.32144" lon="1.35937">
        <ele>980</ele>
        <time>2022-05-22 13:53:34</time>
      </trkpt>
      <trkpt lat="42.32145" lon="1.35937">
        <ele>980</ele>
        <time>2022-05-22 13:53:35</time>
      </trkpt>
      <trkpt lat="42.32147" lon="1.35937">
        <ele>980.2</ele>
        <time>2022-05-22 13:53:36</time>
      </trkpt>
      <trkpt lat="42.32149" lon="1.35937">
        <ele>980.4</ele>
        <time>2022-05-22 13:53:37</time>
      </trkpt>
      <trkpt lat="42.32151" lon="1.35937">
        <ele>980.6</ele>
        <time>2022-05-22 13:53:38</time>
      </trkpt>
      <trkpt lat="42.32153" lon="1.35937">
        <ele>980.8</ele>
        <time>2022-05-22 13:53:39</time>
      </trkpt>
      <trkpt lat="42.32156" lon="1.35937">
        <ele>981</ele>
        <time>2022-05-22 13:53:40</time>
      </trkpt>
      <trkpt lat="42.32157" lon="1.35937">
        <ele>981.2</ele>
        <time>2022-05-22 13:53:41</time>
      </trkpt>
      <trkpt lat="42.32159" lon="1.35937">
        <ele>981.6</ele>
        <time>2022-05-22 13:53:42</time>
      </trkpt>
      <trkpt lat="42.32161" lon="1.35937">
        <ele>981.8</ele>
        <time>2022-05-22 13:53:43</time>
      </trkpt>
      <trkpt lat="42.32163" lon="1.35937">
        <ele>982</ele>
        <time>2022-05-22 13:53:44</time>
      </trkpt>
      <trkpt lat="42.32165" lon="1.35936">
        <ele>982.2</ele>
        <time>2022-05-22 13:53:45</time>
      </trkpt>
      <trkpt lat="42.32167" lon="1.35937">
        <ele>982.2</ele>
        <time>2022-05-22 13:53:46</time>
      </trkpt>
      <trkpt lat="42.32168" lon="1.35937">
        <ele>982.4</ele>
        <time>2022-05-22 13:53:47</time>
      </trkpt>
      <trkpt lat="42.3217" lon="1.35937">
        <ele>982.6</ele>
        <time>2022-05-22 13:53:48</time>
      </trkpt>
      <trkpt lat="42.32172" lon="1.35937">
        <ele>982.6</ele>
        <time>2022-05-22 13:53:49</time>
      </trkpt>
      <trkpt lat="42.32174" lon="1.35937">
        <ele>982.8</ele>
        <time>2022-05-22 13:53:50</time>
      </trkpt>
      <trkpt lat="42.32176" lon="1.35937">
        <ele>983</ele>
        <time>2022-05-22 13:53:51</time>
      </trkpt>
      <trkpt lat="42.32178" lon="1.35937">
        <ele>983</ele>
        <time>2022-05-22 13:53:52</time>
      </trkpt>
      <trkpt lat="42.32179" lon="1.35937">
        <ele>983.2</ele>
        <time>2022-05-22 13:53:53</time>
      </trkpt>
      <trkpt lat="42.32181" lon="1.35937">
        <ele>983.4</ele>
        <time>2022-05-22 13:53:54</time>
      </trkpt>
      <trkpt lat="42.32182" lon="1.35936">
        <ele>983.6</ele>
        <time>2022-05-22 13:53:55</time>
      </trkpt>
      <trkpt lat="42.32184" lon="1.35936">
        <ele>983.8</ele>
        <time>2022-05-22 13:53:56</time>
      </trkpt>
      <trkpt lat="42.32186" lon="1.35936">
        <ele>983.8</ele>
        <time>2022-05-22 13:53:57</time>
      </trkpt>
      <trkpt lat="42.32187" lon="1.35936">
        <ele>984</ele>
        <time>2022-05-22 13:53:58</time>
      </trkpt>
      <trkpt lat="42.32189" lon="1.35935">
        <ele>984</ele>
        <time>2022-05-22 13:53:59</time>
      </trkpt>
      <trkpt lat="42.3219" lon="1.35935">
        <ele>984.2</ele>
        <time>2022-05-22 13:54:00</time>
      </trkpt>
      <trkpt lat="42.32192" lon="1.35935">
        <ele>984.4</ele>
        <time>2022-05-22 13:54:01</time>
      </trkpt>
      <trkpt lat="42.32194" lon="1.35935">
        <ele>984.4</ele>
        <time>2022-05-22 13:54:02</time>
      </trkpt>
      <trkpt lat="42.32196" lon="1.35936">
        <ele>984.6</ele>
        <time>2022-05-22 13:54:03</time>
      </trkpt>
      <trkpt lat="42.32197" lon="1.35936">
        <ele>984.8</ele>
        <time>2022-05-22 13:54:04</time>
      </trkpt>
      <trkpt lat="42.32199" lon="1.35936">
        <ele>984.8</ele>
        <time>2022-05-22 13:54:05</time>
      </trkpt>
      <trkpt lat="42.32201" lon="1.35936">
        <ele>985</ele>
        <time>2022-05-22 13:54:06</time>
      </trkpt>
      <trkpt lat="42.32202" lon="1.35937">
        <ele>985.2</ele>
        <time>2022-05-22 13:54:07</time>
      </trkpt>
      <trkpt lat="42.32204" lon="1.35938">
        <ele>985.4</ele>
        <time>2022-05-22 13:54:08</time>
      </trkpt>
      <trkpt lat="42.32205" lon="1.35939">
        <ele>985.6</ele>
        <time>2022-05-22 13:54:09</time>
      </trkpt>
      <trkpt lat="42.32206" lon="1.35941">
        <ele>985.8</ele>
        <time>2022-05-22 13:54:10</time>
      </trkpt>
      <trkpt lat="42.32207" lon="1.35942">
        <ele>985.8</ele>
        <time>2022-05-22 13:54:11</time>
      </trkpt>
      <trkpt lat="42.32208" lon="1.35944">
        <ele>986</ele>
        <time>2022-05-22 13:54:12</time>
      </trkpt>
      <trkpt lat="42.32209" lon="1.35946">
        <ele>986.2</ele>
        <time>2022-05-22 13:54:13</time>
      </trkpt>
      <trkpt lat="42.32209" lon="1.35948">
        <ele>986.2</ele>
        <time>2022-05-22 13:54:14</time>
      </trkpt>
      <trkpt lat="42.3221" lon="1.35951">
        <ele>986.2</ele>
        <time>2022-05-22 13:54:15</time>
      </trkpt>
      <trkpt lat="42.32211" lon="1.35953">
        <ele>986.4</ele>
        <time>2022-05-22 13:54:16</time>
      </trkpt>
      <trkpt lat="42.32211" lon="1.35955">
        <ele>986.6</ele>
        <time>2022-05-22 13:54:17</time>
      </trkpt>
      <trkpt lat="42.32211" lon="1.35957">
        <ele>986.6</ele>
        <time>2022-05-22 13:54:18</time>
      </trkpt>
      <trkpt lat="42.32211" lon="1.3596">
        <ele>986.8</ele>
        <time>2022-05-22 13:54:19</time>
      </trkpt>
      <trkpt lat="42.32211" lon="1.35962">
        <ele>987</ele>
        <time>2022-05-22 13:54:20</time>
      </trkpt>
      <trkpt lat="42.32212" lon="1.35965">
        <ele>987</ele>
        <time>2022-05-22 13:54:21</time>
      </trkpt>
      <trkpt lat="42.32212" lon="1.35967">
        <ele>987.2</ele>
        <time>2022-05-22 13:54:22</time>
      </trkpt>
      <trkpt lat="42.32212" lon="1.3597">
        <ele>987.4</ele>
        <time>2022-05-22 13:54:23</time>
      </trkpt>
      <trkpt lat="42.32212" lon="1.35973">
        <ele>987.6</ele>
        <time>2022-05-22 13:54:24</time>
      </trkpt>
      <trkpt lat="42.32212" lon="1.35975">
        <ele>987.8</ele>
        <time>2022-05-22 13:54:25</time>
      </trkpt>
      <trkpt lat="42.32212" lon="1.35978">
        <ele>988</ele>
        <time>2022-05-22 13:54:26</time>
      </trkpt>
      <trkpt lat="42.32212" lon="1.3598">
        <ele>988</ele>
        <time>2022-05-22 13:54:27</time>
      </trkpt>
      <trkpt lat="42.32212" lon="1.35982">
        <ele>988.2</ele>
        <time>2022-05-22 13:54:28</time>
      </trkpt>
      <trkpt lat="42.32212" lon="1.35985">
        <ele>988.2</ele>
        <time>2022-05-22 13:54:29</time>
      </trkpt>
      <trkpt lat="42.32212" lon="1.35988">
        <ele>988.6</ele>
        <time>2022-05-22 13:54:30</time>
      </trkpt>
      <trkpt lat="42.32212" lon="1.35991">
        <ele>988.8</ele>
        <time>2022-05-22 13:54:31</time>
      </trkpt>
      <trkpt lat="42.32212" lon="1.35993">
        <ele>989</ele>
        <time>2022-05-22 13:54:32</time>
      </trkpt>
      <trkpt lat="42.32212" lon="1.35996">
        <ele>989</ele>
        <time>2022-05-22 13:54:33</time>
      </trkpt>
      <trkpt lat="42.32212" lon="1.35999">
        <ele>989.2</ele>
        <time>2022-05-22 13:54:34</time>
      </trkpt>
      <trkpt lat="42.32212" lon="1.36002">
        <ele>989.4</ele>
        <time>2022-05-22 13:54:35</time>
      </trkpt>
      <trkpt lat="42.32213" lon="1.36005">
        <ele>989.4</ele>
        <time>2022-05-22 13:54:36</time>
      </trkpt>
      <trkpt lat="42.32213" lon="1.36008">
        <ele>989.6</ele>
        <time>2022-05-22 13:54:37</time>
      </trkpt>
      <trkpt lat="42.32213" lon="1.36011">
        <ele>989.8</ele>
        <time>2022-05-22 13:54:38</time>
      </trkpt>
      <trkpt lat="42.32213" lon="1.36014">
        <ele>990</ele>
        <time>2022-05-22 13:54:39</time>
      </trkpt>
      <trkpt lat="42.32213" lon="1.36017">
        <ele>990.2</ele>
        <time>2022-05-22 13:54:40</time>
      </trkpt>
      <trkpt lat="42.32213" lon="1.3602">
        <ele>990.2</ele>
        <time>2022-05-22 13:54:41</time>
      </trkpt>
      <trkpt lat="42.32213" lon="1.36023">
        <ele>990.2</ele>
        <time>2022-05-22 13:54:42</time>
      </trkpt>
      <trkpt lat="42.32213" lon="1.36025">
        <ele>990.4</ele>
        <time>2022-05-22 13:54:43</time>
      </trkpt>
      <trkpt lat="42.32213" lon="1.36029">
        <ele>990.4</ele>
        <time>2022-05-22 13:54:44</time>
      </trkpt>
      <trkpt lat="42.32214" lon="1.36032">
        <ele>990.6</ele>
        <time>2022-05-22 13:54:45</time>
      </trkpt>
      <trkpt lat="42.32214" lon="1.36035">
        <ele>990.8</ele>
        <time>2022-05-22 13:54:46</time>
      </trkpt>
      <trkpt lat="42.32214" lon="1.36038">
        <ele>991</ele>
        <time>2022-05-22 13:54:47</time>
      </trkpt>
      <trkpt lat="42.32214" lon="1.36041">
        <ele>991.2</ele>
        <time>2022-05-22 13:54:48</time>
      </trkpt>
      <trkpt lat="42.32215" lon="1.36044">
        <ele>991.4</ele>
        <time>2022-05-22 13:54:49</time>
      </trkpt>
      <trkpt lat="42.32215" lon="1.36047">
        <ele>991.6</ele>
        <time>2022-05-22 13:54:50</time>
      </trkpt>
      <trkpt lat="42.32216" lon="1.3605">
        <ele>991.6</ele>
        <time>2022-05-22 13:54:51</time>
      </trkpt>
      <trkpt lat="42.32216" lon="1.36053">
        <ele>991.8</ele>
        <time>2022-05-22 13:54:52</time>
      </trkpt>
      <trkpt lat="42.32216" lon="1.36056">
        <ele>991.8</ele>
        <time>2022-05-22 13:54:53</time>
      </trkpt>
      <trkpt lat="42.32216" lon="1.36059">
        <ele>992</ele>
        <time>2022-05-22 13:54:54</time>
      </trkpt>
      <trkpt lat="42.32217" lon="1.36062">
        <ele>992.2</ele>
        <time>2022-05-22 13:54:55</time>
      </trkpt>
      <trkpt lat="42.32218" lon="1.36065">
        <ele>992.4</ele>
        <time>2022-05-22 13:54:56</time>
      </trkpt>
      <trkpt lat="42.32218" lon="1.36067">
        <ele>992.6</ele>
        <time>2022-05-22 13:54:57</time>
      </trkpt>
      <trkpt lat="42.32219" lon="1.36071">
        <ele>992.8</ele>
        <time>2022-05-22 13:54:58</time>
      </trkpt>
      <trkpt lat="42.3222" lon="1.36074">
        <ele>993</ele>
        <time>2022-05-22 13:54:59</time>
      </trkpt>
      <trkpt lat="42.3222" lon="1.36077">
        <ele>993.2</ele>
        <time>2022-05-22 13:55:00</time>
      </trkpt>
      <trkpt lat="42.32221" lon="1.3608">
        <ele>993.2</ele>
        <time>2022-05-22 13:55:01</time>
      </trkpt>
      <trkpt lat="42.32221" lon="1.36084">
        <ele>993.4</ele>
        <time>2022-05-22 13:55:02</time>
      </trkpt>
      <trkpt lat="42.32221" lon="1.36087">
        <ele>993.4</ele>
        <time>2022-05-22 13:55:03</time>
      </trkpt>
      <trkpt lat="42.32221" lon="1.3609">
        <ele>993.6</ele>
        <time>2022-05-22 13:55:04</time>
      </trkpt>
      <trkpt lat="42.32221" lon="1.36094">
        <ele>993.8</ele>
        <time>2022-05-22 13:55:05</time>
      </trkpt>
      <trkpt lat="42.32222" lon="1.36098">
        <ele>994</ele>
        <time>2022-05-22 13:55:06</time>
      </trkpt>
      <trkpt lat="42.32223" lon="1.36101">
        <ele>994.2</ele>
        <time>2022-05-22 13:55:07</time>
      </trkpt>
      <trkpt lat="42.32224" lon="1.36105">
        <ele>994.4</ele>
        <time>2022-05-22 13:55:08</time>
      </trkpt>
      <trkpt lat="42.32224" lon="1.36108">
        <ele>994.6</ele>
        <time>2022-05-22 13:55:09</time>
      </trkpt>
      <trkpt lat="42.32225" lon="1.36112">
        <ele>994.8</ele>
        <time>2022-05-22 13:55:10</time>
      </trkpt>
      <trkpt lat="42.32225" lon="1.36115">
        <ele>994.8</ele>
        <time>2022-05-22 13:55:11</time>
      </trkpt>
      <trkpt lat="42.32225" lon="1.36118">
        <ele>995</ele>
        <time>2022-05-22 13:55:12</time>
      </trkpt>
      <trkpt lat="42.32226" lon="1.36121">
        <ele>995.4</ele>
        <time>2022-05-22 13:55:13</time>
      </trkpt>
      <trkpt lat="42.32227" lon="1.36124">
        <ele>995.4</ele>
        <time>2022-05-22 13:55:14</time>
      </trkpt>
      <trkpt lat="42.32228" lon="1.36127">
        <ele>995.6</ele>
        <time>2022-05-22 13:55:15</time>
      </trkpt>
      <trkpt lat="42.32228" lon="1.36129">
        <ele>995.8</ele>
        <time>2022-05-22 13:55:16</time>
      </trkpt>
      <trkpt lat="42.32228" lon="1.36132">
        <ele>996</ele>
        <time>2022-05-22 13:55:17</time>
      </trkpt>
      <trkpt lat="42.32229" lon="1.36135">
        <ele>996</ele>
        <time>2022-05-22 13:55:18</time>
      </trkpt>
      <trkpt lat="42.3223" lon="1.36137">
        <ele>996.2</ele>
        <time>2022-05-22 13:55:19</time>
      </trkpt>
      <trkpt lat="42.3223" lon="1.3614">
        <ele>996.6</ele>
        <time>2022-05-22 13:55:20</time>
      </trkpt>
      <trkpt lat="42.32231" lon="1.36142">
        <ele>996.8</ele>
        <time>2022-05-22 13:55:21</time>
      </trkpt>
      <trkpt lat="42.32232" lon="1.36145">
        <ele>997</ele>
        <time>2022-05-22 13:55:22</time>
      </trkpt>
      <trkpt lat="42.32233" lon="1.36147">
        <ele>997</ele>
        <time>2022-05-22 13:55:23</time>
      </trkpt>
      <trkpt lat="42.32235" lon="1.36149">
        <ele>997.2</ele>
        <time>2022-05-22 13:55:24</time>
      </trkpt>
      <trkpt lat="42.32236" lon="1.36151">
        <ele>997.4</ele>
        <time>2022-05-22 13:55:25</time>
      </trkpt>
      <trkpt lat="42.32237" lon="1.36153">
        <ele>997.4</ele>
        <time>2022-05-22 13:55:26</time>
      </trkpt>
      <trkpt lat="42.32239" lon="1.36155">
        <ele>997.4</ele>
        <time>2022-05-22 13:55:27</time>
      </trkpt>
      <trkpt lat="42.3224" lon="1.36156">
        <ele>997.6</ele>
        <time>2022-05-22 13:55:28</time>
      </trkpt>
      <trkpt lat="42.32242" lon="1.36158">
        <ele>997.8</ele>
        <time>2022-05-22 13:55:29</time>
      </trkpt>
      <trkpt lat="42.32244" lon="1.36159">
        <ele>998</ele>
        <time>2022-05-22 13:55:30</time>
      </trkpt>
      <trkpt lat="42.32246" lon="1.3616">
        <ele>998</ele>
        <time>2022-05-22 13:55:31</time>
      </trkpt>
      <trkpt lat="42.32248" lon="1.36161">
        <ele>998.2</ele>
        <time>2022-05-22 13:55:32</time>
      </trkpt>
      <trkpt lat="42.3225" lon="1.36161">
        <ele>998.4</ele>
        <time>2022-05-22 13:55:33</time>
      </trkpt>
      <trkpt lat="42.32252" lon="1.36161">
        <ele>998.6</ele>
        <time>2022-05-22 13:55:34</time>
      </trkpt>
      <trkpt lat="42.32254" lon="1.36161">
        <ele>998.6</ele>
        <time>2022-05-22 13:55:35</time>
      </trkpt>
      <trkpt lat="42.32256" lon="1.3616">
        <ele>998.8</ele>
        <time>2022-05-22 13:55:36</time>
      </trkpt>
      <trkpt lat="42.32258" lon="1.36159">
        <ele>999</ele>
        <time>2022-05-22 13:55:37</time>
      </trkpt>
      <trkpt lat="42.3226" lon="1.36158">
        <ele>999.2</ele>
        <time>2022-05-22 13:55:38</time>
      </trkpt>
      <trkpt lat="42.32262" lon="1.36157">
        <ele>999.2</ele>
        <time>2022-05-22 13:55:39</time>
      </trkpt>
      <trkpt lat="42.32263" lon="1.36155">
        <ele>999.4</ele>
        <time>2022-05-22 13:55:40</time>
      </trkpt>
      <trkpt lat="42.32265" lon="1.36153">
        <ele>999.6</ele>
        <time>2022-05-22 13:55:41</time>
      </trkpt>
      <trkpt lat="42.32267" lon="1.36151">
        <ele>999.6</ele>
        <time>2022-05-22 13:55:42</time>
      </trkpt>
      <trkpt lat="42.32269" lon="1.36149">
        <ele>999.8</ele>
        <time>2022-05-22 13:55:43</time>
      </trkpt>
      <trkpt lat="42.3227" lon="1.36146">
        <ele>999.8</ele>
        <time>2022-05-22 13:55:44</time>
      </trkpt>
      <trkpt lat="42.32271" lon="1.36144">
        <ele>1000</ele>
        <time>2022-05-22 13:55:45</time>
      </trkpt>
      <trkpt lat="42.32272" lon="1.36142">
        <ele>1000.2</ele>
        <time>2022-05-22 13:55:46</time>
      </trkpt>
      <trkpt lat="42.32272" lon="1.36139">
        <ele>1000.4</ele>
        <time>2022-05-22 13:55:47</time>
      </trkpt>
      <trkpt lat="42.32272" lon="1.36137">
        <ele>1000.4</ele>
        <time>2022-05-22 13:55:48</time>
      </trkpt>
      <trkpt lat="42.32273" lon="1.36134">
        <ele>1000.6</ele>
        <time>2022-05-22 13:55:49</time>
      </trkpt>
      <trkpt lat="42.32273" lon="1.36132">
        <ele>1000.6</ele>
        <time>2022-05-22 13:55:50</time>
      </trkpt>
      <trkpt lat="42.32273" lon="1.36129">
        <ele>1000.8</ele>
        <time>2022-05-22 13:55:51</time>
      </trkpt>
      <trkpt lat="42.32273" lon="1.36127">
        <ele>1001</ele>
        <time>2022-05-22 13:55:52</time>
      </trkpt>
      <trkpt lat="42.32273" lon="1.36125">
        <ele>1001.4</ele>
        <time>2022-05-22 13:55:53</time>
      </trkpt>
      <trkpt lat="42.32273" lon="1.36122">
        <ele>1001.6</ele>
        <time>2022-05-22 13:55:54</time>
      </trkpt>
      <trkpt lat="42.32273" lon="1.36119">
        <ele>1001.6</ele>
        <time>2022-05-22 13:55:55</time>
      </trkpt>
      <trkpt lat="42.32273" lon="1.36116">
        <ele>1001.8</ele>
        <time>2022-05-22 13:55:56</time>
      </trkpt>
      <trkpt lat="42.32273" lon="1.36114">
        <ele>1002</ele>
        <time>2022-05-22 13:55:57</time>
      </trkpt>
      <trkpt lat="42.32273" lon="1.36111">
        <ele>1002.2</ele>
        <time>2022-05-22 13:55:58</time>
      </trkpt>
      <trkpt lat="42.32272" lon="1.36109">
        <ele>1002.4</ele>
        <time>2022-05-22 13:55:59</time>
      </trkpt>
      <trkpt lat="42.32272" lon="1.36106">
        <ele>1002.6</ele>
        <time>2022-05-22 13:56:00</time>
      </trkpt>
      <trkpt lat="42.32271" lon="1.36104">
        <ele>1002.8</ele>
        <time>2022-05-22 13:56:01</time>
      </trkpt>
      <trkpt lat="42.32271" lon="1.36102">
        <ele>1003</ele>
        <time>2022-05-22 13:56:02</time>
      </trkpt>
      <trkpt lat="42.32271" lon="1.361">
        <ele>1003</ele>
        <time>2022-05-22 13:56:03</time>
      </trkpt>
      <trkpt lat="42.32271" lon="1.36097">
        <ele>1003.2</ele>
        <time>2022-05-22 13:56:04</time>
      </trkpt>
      <trkpt lat="42.32271" lon="1.36094">
        <ele>1003.4</ele>
        <time>2022-05-22 13:56:05</time>
      </trkpt>
      <trkpt lat="42.32271" lon="1.36092">
        <ele>1003.6</ele>
        <time>2022-05-22 13:56:06</time>
      </trkpt>
      <trkpt lat="42.32271" lon="1.36089">
        <ele>1003.8</ele>
        <time>2022-05-22 13:56:07</time>
      </trkpt>
      <trkpt lat="42.32271" lon="1.36087">
        <ele>1004</ele>
        <time>2022-05-22 13:56:08</time>
      </trkpt>
      <trkpt lat="42.32271" lon="1.36084">
        <ele>1004.2</ele>
        <time>2022-05-22 13:56:09</time>
      </trkpt>
      <trkpt lat="42.3227" lon="1.36081">
        <ele>1004.4</ele>
        <time>2022-05-22 13:56:10</time>
      </trkpt>
      <trkpt lat="42.3227" lon="1.36078">
        <ele>1004.6</ele>
        <time>2022-05-22 13:56:11</time>
      </trkpt>
      <trkpt lat="42.3227" lon="1.36076">
        <ele>1004.8</ele>
        <time>2022-05-22 13:56:12</time>
      </trkpt>
      <trkpt lat="42.32271" lon="1.36074">
        <ele>1005</ele>
        <time>2022-05-22 13:56:13</time>
      </trkpt>
      <trkpt lat="42.32271" lon="1.36071">
        <ele>1005.2</ele>
        <time>2022-05-22 13:56:14</time>
      </trkpt>
      <trkpt lat="42.32271" lon="1.36068">
        <ele>1005.4</ele>
        <time>2022-05-22 13:56:15</time>
      </trkpt>
      <trkpt lat="42.32271" lon="1.36065">
        <ele>1005.6</ele>
        <time>2022-05-22 13:56:16</time>
      </trkpt>
      <trkpt lat="42.32271" lon="1.36063">
        <ele>1005.8</ele>
        <time>2022-05-22 13:56:17</time>
      </trkpt>
      <trkpt lat="42.32271" lon="1.36061">
        <ele>1006</ele>
        <time>2022-05-22 13:56:18</time>
      </trkpt>
      <trkpt lat="42.32271" lon="1.36057">
        <ele>1006.2</ele>
        <time>2022-05-22 13:56:19</time>
      </trkpt>
      <trkpt lat="42.32272" lon="1.36055">
        <ele>1006.4</ele>
        <time>2022-05-22 13:56:20</time>
      </trkpt>
      <trkpt lat="42.32272" lon="1.36052">
        <ele>1006.6</ele>
        <time>2022-05-22 13:56:21</time>
      </trkpt>
      <trkpt lat="42.32272" lon="1.3605">
        <ele>1006.8</ele>
        <time>2022-05-22 13:56:22</time>
      </trkpt>
      <trkpt lat="42.32272" lon="1.36047">
        <ele>1007</ele>
        <time>2022-05-22 13:56:23</time>
      </trkpt>
      <trkpt lat="42.32271" lon="1.36045">
        <ele>1007.2</ele>
        <time>2022-05-22 13:56:24</time>
      </trkpt>
      <trkpt lat="42.32271" lon="1.36042">
        <ele>1007.4</ele>
        <time>2022-05-22 13:56:25</time>
      </trkpt>
      <trkpt lat="42.32271" lon="1.3604">
        <ele>1007.6</ele>
        <time>2022-05-22 13:56:26</time>
      </trkpt>
      <trkpt lat="42.32271" lon="1.36038">
        <ele>1007.8</ele>
        <time>2022-05-22 13:56:27</time>
      </trkpt>
      <trkpt lat="42.32271" lon="1.36035">
        <ele>1008</ele>
        <time>2022-05-22 13:56:28</time>
      </trkpt>
      <trkpt lat="42.32271" lon="1.36033">
        <ele>1008</ele>
        <time>2022-05-22 13:56:29</time>
      </trkpt>
      <trkpt lat="42.32271" lon="1.3603">
        <ele>1008.2</ele>
        <time>2022-05-22 13:56:30</time>
      </trkpt>
      <trkpt lat="42.32271" lon="1.36027">
        <ele>1008.4</ele>
        <time>2022-05-22 13:56:31</time>
      </trkpt>
      <trkpt lat="42.32271" lon="1.36025">
        <ele>1008.6</ele>
        <time>2022-05-22 13:56:32</time>
      </trkpt>
      <trkpt lat="42.32271" lon="1.36023">
        <ele>1008.8</ele>
        <time>2022-05-22 13:56:33</time>
      </trkpt>
      <trkpt lat="42.3227" lon="1.36021">
        <ele>1009</ele>
        <time>2022-05-22 13:56:34</time>
      </trkpt>
      <trkpt lat="42.32269" lon="1.36019">
        <ele>1009.4</ele>
        <time>2022-05-22 13:56:35</time>
      </trkpt>
      <trkpt lat="42.32269" lon="1.36017">
        <ele>1009.6</ele>
        <time>2022-05-22 13:56:36</time>
      </trkpt>
      <trkpt lat="42.32269" lon="1.36014">
        <ele>1009.8</ele>
        <time>2022-05-22 13:56:37</time>
      </trkpt>
      <trkpt lat="42.3227" lon="1.36012">
        <ele>1010</ele>
        <time>2022-05-22 13:56:38</time>
      </trkpt>
      <trkpt lat="42.3227" lon="1.3601">
        <ele>1010.2</ele>
        <time>2022-05-22 13:56:39</time>
      </trkpt>
      <trkpt lat="42.32271" lon="1.36008">
        <ele>1010.4</ele>
        <time>2022-05-22 13:56:40</time>
      </trkpt>
      <trkpt lat="42.32272" lon="1.36006">
        <ele>1010.4</ele>
        <time>2022-05-22 13:56:41</time>
      </trkpt>
      <trkpt lat="42.32273" lon="1.36004">
        <ele>1010.6</ele>
        <time>2022-05-22 13:56:42</time>
      </trkpt>
      <trkpt lat="42.32273" lon="1.36002">
        <ele>1010.8</ele>
        <time>2022-05-22 13:56:43</time>
      </trkpt>
      <trkpt lat="42.32273" lon="1.36">
        <ele>1010.8</ele>
        <time>2022-05-22 13:56:44</time>
      </trkpt>
      <trkpt lat="42.32274" lon="1.35998">
        <ele>1011</ele>
        <time>2022-05-22 13:56:45</time>
      </trkpt>
      <trkpt lat="42.32275" lon="1.35997">
        <ele>1011.2</ele>
        <time>2022-05-22 13:56:46</time>
      </trkpt>
      <trkpt lat="42.32276" lon="1.35995">
        <ele>1011.6</ele>
        <time>2022-05-22 13:56:47</time>
      </trkpt>
      <trkpt lat="42.32277" lon="1.35993">
        <ele>1011.8</ele>
        <time>2022-05-22 13:56:48</time>
      </trkpt>
      <trkpt lat="42.32278" lon="1.35992">
        <ele>1012</ele>
        <time>2022-05-22 13:56:49</time>
      </trkpt>
      <trkpt lat="42.3228" lon="1.35992">
        <ele>1012.2</ele>
        <time>2022-05-22 13:56:50</time>
      </trkpt>
      <trkpt lat="42.32282" lon="1.35992">
        <ele>1012.2</ele>
        <time>2022-05-22 13:56:51</time>
      </trkpt>
      <trkpt lat="42.32283" lon="1.35992">
        <ele>1012.4</ele>
        <time>2022-05-22 13:56:52</time>
      </trkpt>
      <trkpt lat="42.32285" lon="1.35992">
        <ele>1012.6</ele>
        <time>2022-05-22 13:56:53</time>
      </trkpt>
      <trkpt lat="42.32287" lon="1.35992">
        <ele>1012.6</ele>
        <time>2022-05-22 13:56:54</time>
      </trkpt>
      <trkpt lat="42.32289" lon="1.35992">
        <ele>1012.8</ele>
        <time>2022-05-22 13:56:55</time>
      </trkpt>
      <trkpt lat="42.32291" lon="1.35993">
        <ele>1013</ele>
        <time>2022-05-22 13:56:56</time>
      </trkpt>
      <trkpt lat="42.32292" lon="1.35993">
        <ele>1013.2</ele>
        <time>2022-05-22 13:56:57</time>
      </trkpt>
      <trkpt lat="42.32294" lon="1.35994">
        <ele>1013.4</ele>
        <time>2022-05-22 13:56:58</time>
      </trkpt>
      <trkpt lat="42.32295" lon="1.35995">
        <ele>1013.6</ele>
        <time>2022-05-22 13:56:59</time>
      </trkpt>
      <trkpt lat="42.32296" lon="1.35997">
        <ele>1013.6</ele>
        <time>2022-05-22 13:57:00</time>
      </trkpt>
      <trkpt lat="42.32298" lon="1.35998">
        <ele>1013.8</ele>
        <time>2022-05-22 13:57:01</time>
      </trkpt>
      <trkpt lat="42.32299" lon="1.35999">
        <ele>1014</ele>
        <time>2022-05-22 13:57:02</time>
      </trkpt>
      <trkpt lat="42.323" lon="1.36">
        <ele>1014.2</ele>
        <time>2022-05-22 13:57:03</time>
      </trkpt>
      <trkpt lat="42.32301" lon="1.36001">
        <ele>1014.4</ele>
        <time>2022-05-22 13:57:04</time>
      </trkpt>
      <trkpt lat="42.32303" lon="1.36003">
        <ele>1014.8</ele>
        <time>2022-05-22 13:57:05</time>
      </trkpt>
      <trkpt lat="42.32304" lon="1.36004">
        <ele>1015</ele>
        <time>2022-05-22 13:57:06</time>
      </trkpt>
      <trkpt lat="42.32305" lon="1.36005">
        <ele>1015.2</ele>
        <time>2022-05-22 13:57:07</time>
      </trkpt>
      <trkpt lat="42.32307" lon="1.36006">
        <ele>1015.4</ele>
        <time>2022-05-22 13:57:08</time>
      </trkpt>
      <trkpt lat="42.32308" lon="1.36008">
        <ele>1015.6</ele>
        <time>2022-05-22 13:57:09</time>
      </trkpt>
      <trkpt lat="42.3231" lon="1.36009">
        <ele>1015.6</ele>
        <time>2022-05-22 13:57:10</time>
      </trkpt>
      <trkpt lat="42.32311" lon="1.3601">
        <ele>1015.8</ele>
        <time>2022-05-22 13:57:11</time>
      </trkpt>
      <trkpt lat="42.32312" lon="1.36012">
        <ele>1016</ele>
        <time>2022-05-22 13:57:12</time>
      </trkpt>
      <trkpt lat="42.32314" lon="1.36013">
        <ele>1016.2</ele>
        <time>2022-05-22 13:57:13</time>
      </trkpt>
      <trkpt lat="42.32315" lon="1.36014">
        <ele>1016.4</ele>
        <time>2022-05-22 13:57:14</time>
      </trkpt>
      <trkpt lat="42.32317" lon="1.36015">
        <ele>1016.6</ele>
        <time>2022-05-22 13:57:15</time>
      </trkpt>
      <trkpt lat="42.32318" lon="1.36016">
        <ele>1016.8</ele>
        <time>2022-05-22 13:57:16</time>
      </trkpt>
      <trkpt lat="42.32319" lon="1.36017">
        <ele>1016.8</ele>
        <time>2022-05-22 13:57:17</time>
      </trkpt>
      <trkpt lat="42.3232" lon="1.36018">
        <ele>1017</ele>
        <time>2022-05-22 13:57:18</time>
      </trkpt>
      <trkpt lat="42.32321" lon="1.36019">
        <ele>1017.2</ele>
        <time>2022-05-22 13:57:19</time>
      </trkpt>
      <trkpt lat="42.32323" lon="1.3602">
        <ele>1017.2</ele>
        <time>2022-05-22 13:57:20</time>
      </trkpt>
      <trkpt lat="42.32324" lon="1.36021">
        <ele>1017.4</ele>
        <time>2022-05-22 13:57:21</time>
      </trkpt>
      <trkpt lat="42.32326" lon="1.36021">
        <ele>1017.6</ele>
        <time>2022-05-22 13:57:22</time>
      </trkpt>
      <trkpt lat="42.32328" lon="1.36021">
        <ele>1017.6</ele>
        <time>2022-05-22 13:57:23</time>
      </trkpt>
      <trkpt lat="42.32329" lon="1.36022">
        <ele>1017.8</ele>
        <time>2022-05-22 13:57:24</time>
      </trkpt>
      <trkpt lat="42.32331" lon="1.36022">
        <ele>1018</ele>
        <time>2022-05-22 13:57:25</time>
      </trkpt>
      <trkpt lat="42.32332" lon="1.36022">
        <ele>1018.2</ele>
        <time>2022-05-22 13:57:26</time>
      </trkpt>
      <trkpt lat="42.32334" lon="1.36022">
        <ele>1018.2</ele>
        <time>2022-05-22 13:57:27</time>
      </trkpt>
      <trkpt lat="42.32335" lon="1.36023">
        <ele>1018.4</ele>
        <time>2022-05-22 13:57:28</time>
      </trkpt>
      <trkpt lat="42.32337" lon="1.36023">
        <ele>1018.6</ele>
        <time>2022-05-22 13:57:29</time>
      </trkpt>
      <trkpt lat="42.32339" lon="1.36023">
        <ele>1018.8</ele>
        <time>2022-05-22 13:57:30</time>
      </trkpt>
      <trkpt lat="42.3234" lon="1.36024">
        <ele>1019</ele>
        <time>2022-05-22 13:57:31</time>
      </trkpt>
      <trkpt lat="42.32342" lon="1.36024">
        <ele>1019.2</ele>
        <time>2022-05-22 13:57:32</time>
      </trkpt>
      <trkpt lat="42.32343" lon="1.36024">
        <ele>1019.4</ele>
        <time>2022-05-22 13:57:33</time>
      </trkpt>
      <trkpt lat="42.32344" lon="1.36024">
        <ele>1019.6</ele>
        <time>2022-05-22 13:57:34</time>
      </trkpt>
      <trkpt lat="42.32346" lon="1.36024">
        <ele>1019.8</ele>
        <time>2022-05-22 13:57:35</time>
      </trkpt>
      <trkpt lat="42.32347" lon="1.36023">
        <ele>1019.8</ele>
        <time>2022-05-22 13:57:36</time>
      </trkpt>
      <trkpt lat="42.32348" lon="1.36023">
        <ele>1020</ele>
        <time>2022-05-22 13:57:37</time>
      </trkpt>
      <trkpt lat="42.32349" lon="1.36022">
        <ele>1020.2</ele>
        <time>2022-05-22 13:57:38</time>
      </trkpt>
      <trkpt lat="42.3235" lon="1.36021">
        <ele>1020.4</ele>
        <time>2022-05-22 13:57:39</time>
      </trkpt>
      <trkpt lat="42.32352" lon="1.3602">
        <ele>1020.6</ele>
        <time>2022-05-22 13:57:40</time>
      </trkpt>
      <trkpt lat="42.32353" lon="1.36019">
        <ele>1020.8</ele>
        <time>2022-05-22 13:57:41</time>
      </trkpt>
      <trkpt lat="42.32355" lon="1.36018">
        <ele>1021</ele>
        <time>2022-05-22 13:57:42</time>
      </trkpt>
      <trkpt lat="42.32357" lon="1.36017">
        <ele>1021.2</ele>
        <time>2022-05-22 13:57:43</time>
      </trkpt>
      <trkpt lat="42.32358" lon="1.36016">
        <ele>1021.4</ele>
        <time>2022-05-22 13:57:44</time>
      </trkpt>
      <trkpt lat="42.3236" lon="1.36015">
        <ele>1021.6</ele>
        <time>2022-05-22 13:57:45</time>
      </trkpt>
      <trkpt lat="42.32361" lon="1.36014">
        <ele>1021.8</ele>
        <time>2022-05-22 13:57:46</time>
      </trkpt>
      <trkpt lat="42.32363" lon="1.36013">
        <ele>1022</ele>
        <time>2022-05-22 13:57:47</time>
      </trkpt>
      <trkpt lat="42.32364" lon="1.36012">
        <ele>1022.2</ele>
        <time>2022-05-22 13:57:48</time>
      </trkpt>
      <trkpt lat="42.32365" lon="1.36011">
        <ele>1022.4</ele>
        <time>2022-05-22 13:57:49</time>
      </trkpt>
      <trkpt lat="42.32366" lon="1.36009">
        <ele>1022.6</ele>
        <time>2022-05-22 13:57:50</time>
      </trkpt>
      <trkpt lat="42.32368" lon="1.36008">
        <ele>1022.8</ele>
        <time>2022-05-22 13:57:51</time>
      </trkpt>
      <trkpt lat="42.32369" lon="1.36006">
        <ele>1023</ele>
        <time>2022-05-22 13:57:52</time>
      </trkpt>
      <trkpt lat="42.3237" lon="1.36005">
        <ele>1023.2</ele>
        <time>2022-05-22 13:57:53</time>
      </trkpt>
      <trkpt lat="42.3237" lon="1.36003">
        <ele>1023.4</ele>
        <time>2022-05-22 13:57:54</time>
      </trkpt>
      <trkpt lat="42.32371" lon="1.36001">
        <ele>1023.4</ele>
        <time>2022-05-22 13:57:55</time>
      </trkpt>
      <trkpt lat="42.32372" lon="1.35998">
        <ele>1023.6</ele>
        <time>2022-05-22 13:57:56</time>
      </trkpt>
      <trkpt lat="42.32372" lon="1.35996">
        <ele>1023.8</ele>
        <time>2022-05-22 13:57:57</time>
      </trkpt>
      <trkpt lat="42.32373" lon="1.35994">
        <ele>1023.8</ele>
        <time>2022-05-22 13:57:58</time>
      </trkpt>
      <trkpt lat="42.32373" lon="1.35991">
        <ele>1024</ele>
        <time>2022-05-22 13:57:59</time>
      </trkpt>
      <trkpt lat="42.32373" lon="1.35989">
        <ele>1024.2</ele>
        <time>2022-05-22 13:58:00</time>
      </trkpt>
      <trkpt lat="42.32373" lon="1.35987">
        <ele>1024.4</ele>
        <time>2022-05-22 13:58:01</time>
      </trkpt>
      <trkpt lat="42.32373" lon="1.35984">
        <ele>1024.6</ele>
        <time>2022-05-22 13:58:02</time>
      </trkpt>
      <trkpt lat="42.32373" lon="1.35982">
        <ele>1024.6</ele>
        <time>2022-05-22 13:58:03</time>
      </trkpt>
      <trkpt lat="42.32373" lon="1.3598">
        <ele>1024.8</ele>
        <time>2022-05-22 13:58:04</time>
      </trkpt>
      <trkpt lat="42.32374" lon="1.35978">
        <ele>1025</ele>
        <time>2022-05-22 13:58:05</time>
      </trkpt>
      <trkpt lat="42.32374" lon="1.35976">
        <ele>1025</ele>
        <time>2022-05-22 13:58:06</time>
      </trkpt>
      <trkpt lat="42.32374" lon="1.35974">
        <ele>1025</ele>
        <time>2022-05-22 13:58:07</time>
      </trkpt>
      <trkpt lat="42.32374" lon="1.35972">
        <ele>1025.2</ele>
        <time>2022-05-22 13:58:08</time>
      </trkpt>
      <trkpt lat="42.32374" lon="1.3597">
        <ele>1025.4</ele>
        <time>2022-05-22 13:58:09</time>
      </trkpt>
      <trkpt lat="42.32373" lon="1.35968">
        <ele>1025.6</ele>
        <time>2022-05-22 13:58:10</time>
      </trkpt>
      <trkpt lat="42.32373" lon="1.35966">
        <ele>1026</ele>
        <time>2022-05-22 13:58:11</time>
      </trkpt>
      <trkpt lat="42.32373" lon="1.35964">
        <ele>1026.2</ele>
        <time>2022-05-22 13:58:12</time>
      </trkpt>
      <trkpt lat="42.32372" lon="1.35962">
        <ele>1026.6</ele>
        <time>2022-05-22 13:58:13</time>
      </trkpt>
      <trkpt lat="42.32372" lon="1.3596">
        <ele>1026.8</ele>
        <time>2022-05-22 13:58:14</time>
      </trkpt>
      <trkpt lat="42.32372" lon="1.35958">
        <ele>1027</ele>
        <time>2022-05-22 13:58:15</time>
      </trkpt>
      <trkpt lat="42.32371" lon="1.35957">
        <ele>1027.2</ele>
        <time>2022-05-22 13:58:16</time>
      </trkpt>
      <trkpt lat="42.3237" lon="1.35955">
        <ele>1027.2</ele>
        <time>2022-05-22 13:58:17</time>
      </trkpt>
      <trkpt lat="42.3237" lon="1.35953">
        <ele>1027.4</ele>
        <time>2022-05-22 13:58:18</time>
      </trkpt>
      <trkpt lat="42.32369" lon="1.35951">
        <ele>1027.4</ele>
        <time>2022-05-22 13:58:19</time>
      </trkpt>
      <trkpt lat="42.32368" lon="1.35949">
        <ele>1027.8</ele>
        <time>2022-05-22 13:58:20</time>
      </trkpt>
      <trkpt lat="42.32367" lon="1.35947">
        <ele>1028</ele>
        <time>2022-05-22 13:58:21</time>
      </trkpt>
      <trkpt lat="42.32366" lon="1.35945">
        <ele>1028.4</ele>
        <time>2022-05-22 13:58:22</time>
      </trkpt>
      <trkpt lat="42.32365" lon="1.35943">
        <ele>1028.8</ele>
        <time>2022-05-22 13:58:23</time>
      </trkpt>
      <trkpt lat="42.32364" lon="1.35941">
        <ele>1029.2</ele>
        <time>2022-05-22 13:58:24</time>
      </trkpt>
      <trkpt lat="42.32363" lon="1.35939">
        <ele>1029.4</ele>
        <time>2022-05-22 13:58:25</time>
      </trkpt>
      <trkpt lat="42.32362" lon="1.35937">
        <ele>1029.4</ele>
        <time>2022-05-22 13:58:26</time>
      </trkpt>
      <trkpt lat="42.32362" lon="1.35935">
        <ele>1029.6</ele>
        <time>2022-05-22 13:58:27</time>
      </trkpt>
      <trkpt lat="42.32361" lon="1.35933">
        <ele>1029.8</ele>
        <time>2022-05-22 13:58:28</time>
      </trkpt>
      <trkpt lat="42.3236" lon="1.35931">
        <ele>1030</ele>
        <time>2022-05-22 13:58:29</time>
      </trkpt>
      <trkpt lat="42.32359" lon="1.3593">
        <ele>1030.4</ele>
        <time>2022-05-22 13:58:30</time>
      </trkpt>
      <trkpt lat="42.32358" lon="1.35928">
        <ele>1030.6</ele>
        <time>2022-05-22 13:58:31</time>
      </trkpt>
      <trkpt lat="42.32357" lon="1.35926">
        <ele>1030.8</ele>
        <time>2022-05-22 13:58:32</time>
      </trkpt>
      <trkpt lat="42.32356" lon="1.35924">
        <ele>1031</ele>
        <time>2022-05-22 13:58:33</time>
      </trkpt>
      <trkpt lat="42.32355" lon="1.35922">
        <ele>1031.2</ele>
        <time>2022-05-22 13:58:34</time>
      </trkpt>
      <trkpt lat="42.32354" lon="1.35921">
        <ele>1031.4</ele>
        <time>2022-05-22 13:58:35</time>
      </trkpt>
      <trkpt lat="42.32353" lon="1.35919">
        <ele>1031.6</ele>
        <time>2022-05-22 13:58:36</time>
      </trkpt>
      <trkpt lat="42.32352" lon="1.35917">
        <ele>1031.6</ele>
        <time>2022-05-22 13:58:37</time>
      </trkpt>
      <trkpt lat="42.32351" lon="1.35915">
        <ele>1031.8</ele>
        <time>2022-05-22 13:58:38</time>
      </trkpt>
      <trkpt lat="42.3235" lon="1.35913">
        <ele>1032</ele>
        <time>2022-05-22 13:58:39</time>
      </trkpt>
      <trkpt lat="42.32349" lon="1.35911">
        <ele>1032</ele>
        <time>2022-05-22 13:58:40</time>
      </trkpt>
      <trkpt lat="42.32348" lon="1.35909">
        <ele>1032.2</ele>
        <time>2022-05-22 13:58:41</time>
      </trkpt>
      <trkpt lat="42.32346" lon="1.35908">
        <ele>1032.4</ele>
        <time>2022-05-22 13:58:42</time>
      </trkpt>
      <trkpt lat="42.32344" lon="1.35906">
        <ele>1032.6</ele>
        <time>2022-05-22 13:58:43</time>
      </trkpt>
      <trkpt lat="42.32343" lon="1.35904">
        <ele>1032.8</ele>
        <time>2022-05-22 13:58:44</time>
      </trkpt>
      <trkpt lat="42.32341" lon="1.35903">
        <ele>1033</ele>
        <time>2022-05-22 13:58:45</time>
      </trkpt>
      <trkpt lat="42.32339" lon="1.35901">
        <ele>1033.2</ele>
        <time>2022-05-22 13:58:46</time>
      </trkpt>
      <trkpt lat="42.32338" lon="1.359">
        <ele>1033.2</ele>
        <time>2022-05-22 13:58:47</time>
      </trkpt>
      <trkpt lat="42.32336" lon="1.35898">
        <ele>1033.6</ele>
        <time>2022-05-22 13:58:48</time>
      </trkpt>
      <trkpt lat="42.32335" lon="1.35897">
        <ele>1033.8</ele>
        <time>2022-05-22 13:58:49</time>
      </trkpt>
      <trkpt lat="42.32333" lon="1.35896">
        <ele>1034</ele>
        <time>2022-05-22 13:58:50</time>
      </trkpt>
      <trkpt lat="42.32332" lon="1.35894">
        <ele>1034.2</ele>
        <time>2022-05-22 13:58:51</time>
      </trkpt>
      <trkpt lat="42.32331" lon="1.35893">
        <ele>1034.4</ele>
        <time>2022-05-22 13:58:52</time>
      </trkpt>
      <trkpt lat="42.32329" lon="1.35891">
        <ele>1034.6</ele>
        <time>2022-05-22 13:58:53</time>
      </trkpt>
      <trkpt lat="42.32328" lon="1.35889">
        <ele>1034.8</ele>
        <time>2022-05-22 13:58:54</time>
      </trkpt>
      <trkpt lat="42.32326" lon="1.35887">
        <ele>1035</ele>
        <time>2022-05-22 13:58:55</time>
      </trkpt>
      <trkpt lat="42.32325" lon="1.35885">
        <ele>1035.2</ele>
        <time>2022-05-22 13:58:56</time>
      </trkpt>
      <trkpt lat="42.32324" lon="1.35883">
        <ele>1035.4</ele>
        <time>2022-05-22 13:58:57</time>
      </trkpt>
      <trkpt lat="42.32322" lon="1.35882">
        <ele>1035.6</ele>
        <time>2022-05-22 13:58:58</time>
      </trkpt>
      <trkpt lat="42.32321" lon="1.3588">
        <ele>1035.8</ele>
        <time>2022-05-22 13:58:59</time>
      </trkpt>
      <trkpt lat="42.32321" lon="1.35878">
        <ele>1036</ele>
        <time>2022-05-22 13:59:00</time>
      </trkpt>
      <trkpt lat="42.3232" lon="1.35876">
        <ele>1036</ele>
        <time>2022-05-22 13:59:01</time>
      </trkpt>
      <trkpt lat="42.32318" lon="1.35874">
        <ele>1036.2</ele>
        <time>2022-05-22 13:59:02</time>
      </trkpt>
      <trkpt lat="42.32317" lon="1.35872">
        <ele>1036.4</ele>
        <time>2022-05-22 13:59:03</time>
      </trkpt>
      <trkpt lat="42.32316" lon="1.3587">
        <ele>1036.4</ele>
        <time>2022-05-22 13:59:04</time>
      </trkpt>
      <trkpt lat="42.32315" lon="1.35868">
        <ele>1036.6</ele>
        <time>2022-05-22 13:59:05</time>
      </trkpt>
      <trkpt lat="42.32314" lon="1.35866">
        <ele>1036.8</ele>
        <time>2022-05-22 13:59:06</time>
      </trkpt>
      <trkpt lat="42.32313" lon="1.35864">
        <ele>1037</ele>
        <time>2022-05-22 13:59:07</time>
      </trkpt>
      <trkpt lat="42.32312" lon="1.35862">
        <ele>1037.2</ele>
        <time>2022-05-22 13:59:08</time>
      </trkpt>
      <trkpt lat="42.32311" lon="1.3586">
        <ele>1037.4</ele>
        <time>2022-05-22 13:59:09</time>
      </trkpt>
      <trkpt lat="42.3231" lon="1.35858">
        <ele>1037.6</ele>
        <time>2022-05-22 13:59:10</time>
      </trkpt>
      <trkpt lat="42.32309" lon="1.35855">
        <ele>1037.8</ele>
        <time>2022-05-22 13:59:11</time>
      </trkpt>
      <trkpt lat="42.32309" lon="1.35854">
        <ele>1038</ele>
        <time>2022-05-22 13:59:12</time>
      </trkpt>
      <trkpt lat="42.32308" lon="1.35851">
        <ele>1038</ele>
        <time>2022-05-22 13:59:13</time>
      </trkpt>
      <trkpt lat="42.32308" lon="1.35849">
        <ele>1038.2</ele>
        <time>2022-05-22 13:59:14</time>
      </trkpt>
      <trkpt lat="42.32307" lon="1.35847">
        <ele>1038.2</ele>
        <time>2022-05-22 13:59:15</time>
      </trkpt>
      <trkpt lat="42.32306" lon="1.35845">
        <ele>1038.2</ele>
        <time>2022-05-22 13:59:16</time>
      </trkpt>
      <trkpt lat="42.32306" lon="1.35843">
        <ele>1038.4</ele>
        <time>2022-05-22 13:59:17</time>
      </trkpt>
      <trkpt lat="42.32305" lon="1.35841">
        <ele>1038.6</ele>
        <time>2022-05-22 13:59:18</time>
      </trkpt>
      <trkpt lat="42.32304" lon="1.35839">
        <ele>1038.8</ele>
        <time>2022-05-22 13:59:19</time>
      </trkpt>
      <trkpt lat="42.32304" lon="1.35837">
        <ele>1039</ele>
        <time>2022-05-22 13:59:20</time>
      </trkpt>
      <trkpt lat="42.32302" lon="1.35835">
        <ele>1039.2</ele>
        <time>2022-05-22 13:59:21</time>
      </trkpt>
      <trkpt lat="42.32301" lon="1.35833">
        <ele>1039.4</ele>
        <time>2022-05-22 13:59:22</time>
      </trkpt>
      <trkpt lat="42.323" lon="1.35831">
        <ele>1039.6</ele>
        <time>2022-05-22 13:59:23</time>
      </trkpt>
      <trkpt lat="42.32299" lon="1.35829">
        <ele>1039.8</ele>
        <time>2022-05-22 13:59:24</time>
      </trkpt>
      <trkpt lat="42.32297" lon="1.35827">
        <ele>1040</ele>
        <time>2022-05-22 13:59:25</time>
      </trkpt>
      <trkpt lat="42.32296" lon="1.35825">
        <ele>1040.4</ele>
        <time>2022-05-22 13:59:26</time>
      </trkpt>
      <trkpt lat="42.32295" lon="1.35824">
        <ele>1040.8</ele>
        <time>2022-05-22 13:59:27</time>
      </trkpt>
      <trkpt lat="42.32293" lon="1.35822">
        <ele>1041.2</ele>
        <time>2022-05-22 13:59:28</time>
      </trkpt>
      <trkpt lat="42.32292" lon="1.35821">
        <ele>1041.4</ele>
        <time>2022-05-22 13:59:29</time>
      </trkpt>
      <trkpt lat="42.3229" lon="1.35819">
        <ele>1041.6</ele>
        <time>2022-05-22 13:59:30</time>
      </trkpt>
      <trkpt lat="42.32289" lon="1.35817">
        <ele>1042</ele>
        <time>2022-05-22 13:59:31</time>
      </trkpt>
      <trkpt lat="42.32287" lon="1.35815">
        <ele>1042.2</ele>
        <time>2022-05-22 13:59:32</time>
      </trkpt>
      <trkpt lat="42.32285" lon="1.35814">
        <ele>1042.4</ele>
        <time>2022-05-22 13:59:33</time>
      </trkpt>
      <trkpt lat="42.32284" lon="1.35812">
        <ele>1042.6</ele>
        <time>2022-05-22 13:59:34</time>
      </trkpt>
      <trkpt lat="42.32282" lon="1.35811">
        <ele>1042.8</ele>
        <time>2022-05-22 13:59:35</time>
      </trkpt>
      <trkpt lat="42.3228" lon="1.3581">
        <ele>1043</ele>
        <time>2022-05-22 13:59:36</time>
      </trkpt>
      <trkpt lat="42.32279" lon="1.35808">
        <ele>1043.4</ele>
        <time>2022-05-22 13:59:37</time>
      </trkpt>
      <trkpt lat="42.32277" lon="1.35807">
        <ele>1043.6</ele>
        <time>2022-05-22 13:59:38</time>
      </trkpt>
      <trkpt lat="42.32275" lon="1.35805">
        <ele>1043.6</ele>
        <time>2022-05-22 13:59:39</time>
      </trkpt>
      <trkpt lat="42.32274" lon="1.35804">
        <ele>1043.8</ele>
        <time>2022-05-22 13:59:40</time>
      </trkpt>
      <trkpt lat="42.32272" lon="1.35802">
        <ele>1043.8</ele>
        <time>2022-05-22 13:59:41</time>
      </trkpt>
      <trkpt lat="42.3227" lon="1.35801">
        <ele>1044</ele>
        <time>2022-05-22 13:59:42</time>
      </trkpt>
      <trkpt lat="42.32268" lon="1.35799">
        <ele>1043.8</ele>
        <time>2022-05-22 13:59:43</time>
      </trkpt>
      <trkpt lat="42.32267" lon="1.35797">
        <ele>1043.8</ele>
        <time>2022-05-22 13:59:44</time>
      </trkpt>
      <trkpt lat="42.32265" lon="1.35795">
        <ele>1043.8</ele>
        <time>2022-05-22 13:59:45</time>
      </trkpt>
      <trkpt lat="42.32264" lon="1.35794">
        <ele>1043.8</ele>
        <time>2022-05-22 13:59:46</time>
      </trkpt>
      <trkpt lat="42.32262" lon="1.35792">
        <ele>1044</ele>
        <time>2022-05-22 13:59:47</time>
      </trkpt>
      <trkpt lat="42.32261" lon="1.35791">
        <ele>1044.2</ele>
        <time>2022-05-22 13:59:48</time>
      </trkpt>
      <trkpt lat="42.32259" lon="1.35789">
        <ele>1044.4</ele>
        <time>2022-05-22 13:59:49</time>
      </trkpt>
      <trkpt lat="42.32258" lon="1.35787">
        <ele>1044.6</ele>
        <time>2022-05-22 13:59:50</time>
      </trkpt>
      <trkpt lat="42.32257" lon="1.35785">
        <ele>1044.6</ele>
        <time>2022-05-22 13:59:51</time>
      </trkpt>
      <trkpt lat="42.32256" lon="1.35783">
        <ele>1044.8</ele>
        <time>2022-05-22 13:59:52</time>
      </trkpt>
      <trkpt lat="42.32255" lon="1.35781">
        <ele>1044.8</ele>
        <time>2022-05-22 13:59:53</time>
      </trkpt>
      <trkpt lat="42.32253" lon="1.35778">
        <ele>1044.8</ele>
        <time>2022-05-22 13:59:54</time>
      </trkpt>
      <trkpt lat="42.32253" lon="1.35776">
        <ele>1045</ele>
        <time>2022-05-22 13:59:55</time>
      </trkpt>
      <trkpt lat="42.32252" lon="1.35774">
        <ele>1045.2</ele>
        <time>2022-05-22 13:59:56</time>
      </trkpt>
      <trkpt lat="42.32251" lon="1.35771">
        <ele>1045.4</ele>
        <time>2022-05-22 13:59:57</time>
      </trkpt>
      <trkpt lat="42.3225" lon="1.35769">
        <ele>1045.6</ele>
        <time>2022-05-22 13:59:58</time>
      </trkpt>
      <trkpt lat="42.32249" lon="1.35766">
        <ele>1045.8</ele>
        <time>2022-05-22 13:59:59</time>
      </trkpt>
      <trkpt lat="42.32248" lon="1.35764">
        <ele>1046</ele>
        <time>2022-05-22 14:00:00</time>
      </trkpt>
      <trkpt lat="42.32247" lon="1.35761">
        <ele>1046.2</ele>
        <time>2022-05-22 14:00:01</time>
      </trkpt>
      <trkpt lat="42.32246" lon="1.35758">
        <ele>1046.2</ele>
        <time>2022-05-22 14:00:02</time>
      </trkpt>
      <trkpt lat="42.32246" lon="1.35756">
        <ele>1046.4</ele>
        <time>2022-05-22 14:00:03</time>
      </trkpt>
      <trkpt lat="42.32246" lon="1.35753">
        <ele>1046.4</ele>
        <time>2022-05-22 14:00:04</time>
      </trkpt>
      <trkpt lat="42.32246" lon="1.3575">
        <ele>1046.4</ele>
        <time>2022-05-22 14:00:05</time>
      </trkpt>
      <trkpt lat="42.32245" lon="1.35747">
        <ele>1046.6</ele>
        <time>2022-05-22 14:00:06</time>
      </trkpt>
      <trkpt lat="42.32245" lon="1.35745">
        <ele>1046.6</ele>
        <time>2022-05-22 14:00:07</time>
      </trkpt>
      <trkpt lat="42.32245" lon="1.35742">
        <ele>1046.8</ele>
        <time>2022-05-22 14:00:08</time>
      </trkpt>
      <trkpt lat="42.32245" lon="1.3574">
        <ele>1047.2</ele>
        <time>2022-05-22 14:00:09</time>
      </trkpt>
      <trkpt lat="42.32245" lon="1.35737">
        <ele>1047.4</ele>
        <time>2022-05-22 14:00:10</time>
      </trkpt>
      <trkpt lat="42.32246" lon="1.35734">
        <ele>1047.6</ele>
        <time>2022-05-22 14:00:11</time>
      </trkpt>
      <trkpt lat="42.32246" lon="1.35732">
        <ele>1048</ele>
        <time>2022-05-22 14:00:12</time>
      </trkpt>
      <trkpt lat="42.32246" lon="1.35729">
        <ele>1048.2</ele>
        <time>2022-05-22 14:00:13</time>
      </trkpt>
      <trkpt lat="42.32247" lon="1.35726">
        <ele>1048.2</ele>
        <time>2022-05-22 14:00:14</time>
      </trkpt>
      <trkpt lat="42.32247" lon="1.35724">
        <ele>1048.2</ele>
        <time>2022-05-22 14:00:15</time>
      </trkpt>
      <trkpt lat="42.32247" lon="1.35721">
        <ele>1048.4</ele>
        <time>2022-05-22 14:00:16</time>
      </trkpt>
      <trkpt lat="42.32248" lon="1.35719">
        <ele>1048.4</ele>
        <time>2022-05-22 14:00:17</time>
      </trkpt>
      <trkpt lat="42.32249" lon="1.35716">
        <ele>1048.6</ele>
        <time>2022-05-22 14:00:18</time>
      </trkpt>
      <trkpt lat="42.3225" lon="1.35714">
        <ele>1048.8</ele>
        <time>2022-05-22 14:00:19</time>
      </trkpt>
      <trkpt lat="42.32251" lon="1.35712">
        <ele>1049</ele>
        <time>2022-05-22 14:00:20</time>
      </trkpt>
      <trkpt lat="42.32252" lon="1.35709">
        <ele>1049.4</ele>
        <time>2022-05-22 14:00:21</time>
      </trkpt>
      <trkpt lat="42.32253" lon="1.35707">
        <ele>1049.6</ele>
        <time>2022-05-22 14:00:22</time>
      </trkpt>
      <trkpt lat="42.32253" lon="1.35705">
        <ele>1049.8</ele>
        <time>2022-05-22 14:00:23</time>
      </trkpt>
      <trkpt lat="42.32254" lon="1.35703">
        <ele>1050</ele>
        <time>2022-05-22 14:00:24</time>
      </trkpt>
      <trkpt lat="42.32254" lon="1.35701">
        <ele>1050</ele>
        <time>2022-05-22 14:00:25</time>
      </trkpt>
      <trkpt lat="42.32254" lon="1.35699">
        <ele>1050</ele>
        <time>2022-05-22 14:00:26</time>
      </trkpt>
      <trkpt lat="42.32255" lon="1.35698">
        <ele>1050</ele>
        <time>2022-05-22 14:00:27</time>
      </trkpt>
      <trkpt lat="42.32256" lon="1.35696">
        <ele>1050.2</ele>
        <time>2022-05-22 14:00:28</time>
      </trkpt>
      <trkpt lat="42.32256" lon="1.35694">
        <ele>1050.6</ele>
        <time>2022-05-22 14:00:29</time>
      </trkpt>
      <trkpt lat="42.32257" lon="1.35692">
        <ele>1051</ele>
        <time>2022-05-22 14:00:30</time>
      </trkpt>
      <trkpt lat="42.32258" lon="1.3569">
        <ele>1051.2</ele>
        <time>2022-05-22 14:00:31</time>
      </trkpt>
      <trkpt lat="42.32259" lon="1.35688">
        <ele>1051.4</ele>
        <time>2022-05-22 14:00:32</time>
      </trkpt>
      <trkpt lat="42.3226" lon="1.35686">
        <ele>1051.6</ele>
        <time>2022-05-22 14:00:33</time>
      </trkpt>
      <trkpt lat="42.32261" lon="1.35684">
        <ele>1051.8</ele>
        <time>2022-05-22 14:00:34</time>
      </trkpt>
      <trkpt lat="42.32261" lon="1.35682">
        <ele>1052</ele>
        <time>2022-05-22 14:00:35</time>
      </trkpt>
      <trkpt lat="42.32262" lon="1.3568">
        <ele>1052.2</ele>
        <time>2022-05-22 14:00:36</time>
      </trkpt>
      <trkpt lat="42.32262" lon="1.35678">
        <ele>1052.4</ele>
        <time>2022-05-22 14:00:37</time>
      </trkpt>
      <trkpt lat="42.32263" lon="1.35676">
        <ele>1052.4</ele>
        <time>2022-05-22 14:00:38</time>
      </trkpt>
      <trkpt lat="42.32264" lon="1.35674">
        <ele>1052.6</ele>
        <time>2022-05-22 14:00:39</time>
      </trkpt>
      <trkpt lat="42.32264" lon="1.35672">
        <ele>1052.6</ele>
        <time>2022-05-22 14:00:40</time>
      </trkpt>
      <trkpt lat="42.32265" lon="1.3567">
        <ele>1052.8</ele>
        <time>2022-05-22 14:00:41</time>
      </trkpt>
      <trkpt lat="42.32266" lon="1.35668">
        <ele>1052.8</ele>
        <time>2022-05-22 14:00:42</time>
      </trkpt>
      <trkpt lat="42.32267" lon="1.35666">
        <ele>1052.8</ele>
        <time>2022-05-22 14:00:43</time>
      </trkpt>
      <trkpt lat="42.32267" lon="1.35664">
        <ele>1053</ele>
        <time>2022-05-22 14:00:44</time>
      </trkpt>
      <trkpt lat="42.32268" lon="1.35662">
        <ele>1053</ele>
        <time>2022-05-22 14:00:45</time>
      </trkpt>
      <trkpt lat="42.32268" lon="1.35659">
        <ele>1053.2</ele>
        <time>2022-05-22 14:00:46</time>
      </trkpt>
      <trkpt lat="42.32269" lon="1.35657">
        <ele>1053.8</ele>
        <time>2022-05-22 14:00:47</time>
      </trkpt>
      <trkpt lat="42.3227" lon="1.35654">
        <ele>1054.4</ele>
        <time>2022-05-22 14:00:48</time>
      </trkpt>
      <trkpt lat="42.3227" lon="1.35652">
        <ele>1054.6</ele>
        <time>2022-05-22 14:00:49</time>
      </trkpt>
      <trkpt lat="42.32271" lon="1.35649">
        <ele>1055</ele>
        <time>2022-05-22 14:00:50</time>
      </trkpt>
      <trkpt lat="42.32272" lon="1.35646">
        <ele>1055.2</ele>
        <time>2022-05-22 14:00:51</time>
      </trkpt>
      <trkpt lat="42.32272" lon="1.35643">
        <ele>1055.4</ele>
        <time>2022-05-22 14:00:52</time>
      </trkpt>
      <trkpt lat="42.32273" lon="1.3564">
        <ele>1055.6</ele>
        <time>2022-05-22 14:00:53</time>
      </trkpt>
      <trkpt lat="42.32273" lon="1.35637">
        <ele>1055.8</ele>
        <time>2022-05-22 14:00:54</time>
      </trkpt>
      <trkpt lat="42.32273" lon="1.35635">
        <ele>1055.8</ele>
        <time>2022-05-22 14:00:55</time>
      </trkpt>
      <trkpt lat="42.32274" lon="1.35632">
        <ele>1055.8</ele>
        <time>2022-05-22 14:00:56</time>
      </trkpt>
      <trkpt lat="42.32274" lon="1.35629">
        <ele>1056</ele>
        <time>2022-05-22 14:00:57</time>
      </trkpt>
      <trkpt lat="42.32274" lon="1.35627">
        <ele>1056.2</ele>
        <time>2022-05-22 14:00:58</time>
      </trkpt>
      <trkpt lat="42.32274" lon="1.35624">
        <ele>1056.2</ele>
        <time>2022-05-22 14:00:59</time>
      </trkpt>
      <trkpt lat="42.32273" lon="1.35622">
        <ele>1056.6</ele>
        <time>2022-05-22 14:01:00</time>
      </trkpt>
      <trkpt lat="42.32273" lon="1.3562">
        <ele>1056.8</ele>
        <time>2022-05-22 14:01:01</time>
      </trkpt>
      <trkpt lat="42.32273" lon="1.35618">
        <ele>1056.8</ele>
        <time>2022-05-22 14:01:02</time>
      </trkpt>
      <trkpt lat="42.32272" lon="1.35615">
        <ele>1057</ele>
        <time>2022-05-22 14:01:03</time>
      </trkpt>
      <trkpt lat="42.32272" lon="1.35612">
        <ele>1057.2</ele>
        <time>2022-05-22 14:01:04</time>
      </trkpt>
      <trkpt lat="42.32272" lon="1.3561">
        <ele>1057.4</ele>
        <time>2022-05-22 14:01:05</time>
      </trkpt>
      <trkpt lat="42.32271" lon="1.35608">
        <ele>1057.4</ele>
        <time>2022-05-22 14:01:06</time>
      </trkpt>
      <trkpt lat="42.32271" lon="1.35605">
        <ele>1057.6</ele>
        <time>2022-05-22 14:01:07</time>
      </trkpt>
      <trkpt lat="42.3227" lon="1.35603">
        <ele>1057.8</ele>
        <time>2022-05-22 14:01:08</time>
      </trkpt>
      <trkpt lat="42.32269" lon="1.35601">
        <ele>1057.8</ele>
        <time>2022-05-22 14:01:09</time>
      </trkpt>
      <trkpt lat="42.32269" lon="1.35598">
        <ele>1057.8</ele>
        <time>2022-05-22 14:01:10</time>
      </trkpt>
      <trkpt lat="42.32269" lon="1.35596">
        <ele>1058</ele>
        <time>2022-05-22 14:01:11</time>
      </trkpt>
      <trkpt lat="42.32269" lon="1.35595">
        <ele>1058.4</ele>
        <time>2022-05-22 14:01:12</time>
      </trkpt>
      <trkpt lat="42.32269" lon="1.35593">
        <ele>1058.6</ele>
        <time>2022-05-22 14:01:13</time>
      </trkpt>
      <trkpt lat="42.32268" lon="1.35591">
        <ele>1058.8</ele>
        <time>2022-05-22 14:01:14</time>
      </trkpt>
      <trkpt lat="42.32267" lon="1.35588">
        <ele>1059</ele>
        <time>2022-05-22 14:01:15</time>
      </trkpt>
      <trkpt lat="42.32266" lon="1.35586">
        <ele>1059</ele>
        <time>2022-05-22 14:01:16</time>
      </trkpt>
      <trkpt lat="42.32266" lon="1.35583">
        <ele>1059.2</ele>
        <time>2022-05-22 14:01:17</time>
      </trkpt>
      <trkpt lat="42.32265" lon="1.35581">
        <ele>1059.4</ele>
        <time>2022-05-22 14:01:18</time>
      </trkpt>
      <trkpt lat="42.32264" lon="1.35578">
        <ele>1059.4</ele>
        <time>2022-05-22 14:01:19</time>
      </trkpt>
      <trkpt lat="42.32263" lon="1.35576">
        <ele>1059.6</ele>
        <time>2022-05-22 14:01:20</time>
      </trkpt>
      <trkpt lat="42.32262" lon="1.35574">
        <ele>1059.6</ele>
        <time>2022-05-22 14:01:21</time>
      </trkpt>
      <trkpt lat="42.32261" lon="1.35572">
        <ele>1059.8</ele>
        <time>2022-05-22 14:01:22</time>
      </trkpt>
      <trkpt lat="42.3226" lon="1.35569">
        <ele>1060</ele>
        <time>2022-05-22 14:01:23</time>
      </trkpt>
      <trkpt lat="42.32259" lon="1.35566">
        <ele>1060.2</ele>
        <time>2022-05-22 14:01:24</time>
      </trkpt>
      <trkpt lat="42.32259" lon="1.35563">
        <ele>1060.4</ele>
        <time>2022-05-22 14:01:25</time>
      </trkpt>
      <trkpt lat="42.32258" lon="1.3556">
        <ele>1060.4</ele>
        <time>2022-05-22 14:01:26</time>
      </trkpt>
      <trkpt lat="42.32257" lon="1.35557">
        <ele>1060.6</ele>
        <time>2022-05-22 14:01:27</time>
      </trkpt>
      <trkpt lat="42.32257" lon="1.35555">
        <ele>1060.8</ele>
        <time>2022-05-22 14:01:28</time>
      </trkpt>
      <trkpt lat="42.32256" lon="1.35552">
        <ele>1061</ele>
        <time>2022-05-22 14:01:29</time>
      </trkpt>
      <trkpt lat="42.32255" lon="1.3555">
        <ele>1061.2</ele>
        <time>2022-05-22 14:01:30</time>
      </trkpt>
      <trkpt lat="42.32255" lon="1.35547">
        <ele>1061.4</ele>
        <time>2022-05-22 14:01:31</time>
      </trkpt>
      <trkpt lat="42.32254" lon="1.35545">
        <ele>1061.4</ele>
        <time>2022-05-22 14:01:32</time>
      </trkpt>
      <trkpt lat="42.32253" lon="1.35542">
        <ele>1061.6</ele>
        <time>2022-05-22 14:01:33</time>
      </trkpt>
      <trkpt lat="42.32253" lon="1.3554">
        <ele>1061.6</ele>
        <time>2022-05-22 14:01:34</time>
      </trkpt>
      <trkpt lat="42.32252" lon="1.35537">
        <ele>1061.8</ele>
        <time>2022-05-22 14:01:35</time>
      </trkpt>
      <trkpt lat="42.32252" lon="1.35535">
        <ele>1062</ele>
        <time>2022-05-22 14:01:36</time>
      </trkpt>
      <trkpt lat="42.32252" lon="1.35532">
        <ele>1062</ele>
        <time>2022-05-22 14:01:37</time>
      </trkpt>
      <trkpt lat="42.32252" lon="1.3553">
        <ele>1062.2</ele>
        <time>2022-05-22 14:01:38</time>
      </trkpt>
      <trkpt lat="42.32252" lon="1.35527">
        <ele>1062.4</ele>
        <time>2022-05-22 14:01:39</time>
      </trkpt>
      <trkpt lat="42.32253" lon="1.35524">
        <ele>1062.6</ele>
        <time>2022-05-22 14:01:40</time>
      </trkpt>
      <trkpt lat="42.32253" lon="1.35522">
        <ele>1062.8</ele>
        <time>2022-05-22 14:01:41</time>
      </trkpt>
      <trkpt lat="42.32254" lon="1.3552">
        <ele>1063</ele>
        <time>2022-05-22 14:01:42</time>
      </trkpt>
      <trkpt lat="42.32254" lon="1.35517">
        <ele>1063</ele>
        <time>2022-05-22 14:01:43</time>
      </trkpt>
      <trkpt lat="42.32256" lon="1.35515">
        <ele>1063.2</ele>
        <time>2022-05-22 14:01:44</time>
      </trkpt>
      <trkpt lat="42.32256" lon="1.35512">
        <ele>1063.4</ele>
        <time>2022-05-22 14:01:45</time>
      </trkpt>
      <trkpt lat="42.32257" lon="1.3551">
        <ele>1063.6</ele>
        <time>2022-05-22 14:01:46</time>
      </trkpt>
      <trkpt lat="42.32258" lon="1.35508">
        <ele>1063.8</ele>
        <time>2022-05-22 14:01:47</time>
      </trkpt>
      <trkpt lat="42.3226" lon="1.35507">
        <ele>1063.8</ele>
        <time>2022-05-22 14:01:48</time>
      </trkpt>
      <trkpt lat="42.32261" lon="1.35505">
        <ele>1064</ele>
        <time>2022-05-22 14:01:49</time>
      </trkpt>
      <trkpt lat="42.32263" lon="1.35503">
        <ele>1064.2</ele>
        <time>2022-05-22 14:01:50</time>
      </trkpt>
      <trkpt lat="42.32265" lon="1.35502">
        <ele>1064.4</ele>
        <time>2022-05-22 14:01:51</time>
      </trkpt>
      <trkpt lat="42.32266" lon="1.355">
        <ele>1064.4</ele>
        <time>2022-05-22 14:01:52</time>
      </trkpt>
      <trkpt lat="42.32268" lon="1.35499">
        <ele>1064.6</ele>
        <time>2022-05-22 14:01:53</time>
      </trkpt>
      <trkpt lat="42.3227" lon="1.35497">
        <ele>1064.8</ele>
        <time>2022-05-22 14:01:54</time>
      </trkpt>
      <trkpt lat="42.32272" lon="1.35496">
        <ele>1065</ele>
        <time>2022-05-22 14:01:55</time>
      </trkpt>
      <trkpt lat="42.32273" lon="1.35494">
        <ele>1065</ele>
        <time>2022-05-22 14:01:56</time>
      </trkpt>
      <trkpt lat="42.32275" lon="1.35493">
        <ele>1065.2</ele>
        <time>2022-05-22 14:01:57</time>
      </trkpt>
      <trkpt lat="42.32277" lon="1.35492">
        <ele>1065.4</ele>
        <time>2022-05-22 14:01:58</time>
      </trkpt>
      <trkpt lat="42.32278" lon="1.3549">
        <ele>1065.6</ele>
        <time>2022-05-22 14:01:59</time>
      </trkpt>
      <trkpt lat="42.3228" lon="1.35489">
        <ele>1065.8</ele>
        <time>2022-05-22 14:02:00</time>
      </trkpt>
      <trkpt lat="42.32282" lon="1.35488">
        <ele>1066</ele>
        <time>2022-05-22 14:02:01</time>
      </trkpt>
      <trkpt lat="42.32283" lon="1.35487">
        <ele>1066.4</ele>
        <time>2022-05-22 14:02:02</time>
      </trkpt>
      <trkpt lat="42.32285" lon="1.35486">
        <ele>1066.6</ele>
        <time>2022-05-22 14:02:03</time>
      </trkpt>
      <trkpt lat="42.32286" lon="1.35485">
        <ele>1066.8</ele>
        <time>2022-05-22 14:02:04</time>
      </trkpt>
      <trkpt lat="42.32288" lon="1.35484">
        <ele>1067</ele>
        <time>2022-05-22 14:02:05</time>
      </trkpt>
      <trkpt lat="42.32289" lon="1.35483">
        <ele>1067.2</ele>
        <time>2022-05-22 14:02:06</time>
      </trkpt>
      <trkpt lat="42.32291" lon="1.35482">
        <ele>1067.4</ele>
        <time>2022-05-22 14:02:07</time>
      </trkpt>
      <trkpt lat="42.32292" lon="1.35481">
        <ele>1067.6</ele>
        <time>2022-05-22 14:02:08</time>
      </trkpt>
      <trkpt lat="42.32294" lon="1.3548">
        <ele>1067.8</ele>
        <time>2022-05-22 14:02:09</time>
      </trkpt>
      <trkpt lat="42.32295" lon="1.35479">
        <ele>1068</ele>
        <time>2022-05-22 14:02:10</time>
      </trkpt>
      <trkpt lat="42.32297" lon="1.35477">
        <ele>1068.2</ele>
        <time>2022-05-22 14:02:11</time>
      </trkpt>
      <trkpt lat="42.32298" lon="1.35476">
        <ele>1068.6</ele>
        <time>2022-05-22 14:02:12</time>
      </trkpt>
      <trkpt lat="42.323" lon="1.35475">
        <ele>1068.8</ele>
        <time>2022-05-22 14:02:13</time>
      </trkpt>
      <trkpt lat="42.32301" lon="1.35474">
        <ele>1069</ele>
        <time>2022-05-22 14:02:14</time>
      </trkpt>
      <trkpt lat="42.32303" lon="1.35473">
        <ele>1069.2</ele>
        <time>2022-05-22 14:02:15</time>
      </trkpt>
      <trkpt lat="42.32304" lon="1.35472">
        <ele>1069.4</ele>
        <time>2022-05-22 14:02:16</time>
      </trkpt>
      <trkpt lat="42.32305" lon="1.35471">
        <ele>1069.6</ele>
        <time>2022-05-22 14:02:17</time>
      </trkpt>
      <trkpt lat="42.32307" lon="1.35469">
        <ele>1069.8</ele>
        <time>2022-05-22 14:02:18</time>
      </trkpt>
      <trkpt lat="42.32308" lon="1.35468">
        <ele>1070</ele>
        <time>2022-05-22 14:02:19</time>
      </trkpt>
      <trkpt lat="42.32309" lon="1.35467">
        <ele>1070.2</ele>
        <time>2022-05-22 14:02:20</time>
      </trkpt>
      <trkpt lat="42.3231" lon="1.35465">
        <ele>1070.4</ele>
        <time>2022-05-22 14:02:21</time>
      </trkpt>
      <trkpt lat="42.32312" lon="1.35464">
        <ele>1070.6</ele>
        <time>2022-05-22 14:02:22</time>
      </trkpt>
      <trkpt lat="42.32313" lon="1.35462">
        <ele>1070.8</ele>
        <time>2022-05-22 14:02:23</time>
      </trkpt>
      <trkpt lat="42.32314" lon="1.35461">
        <ele>1071</ele>
        <time>2022-05-22 14:02:24</time>
      </trkpt>
      <trkpt lat="42.32316" lon="1.35459">
        <ele>1071.2</ele>
        <time>2022-05-22 14:02:25</time>
      </trkpt>
      <trkpt lat="42.32317" lon="1.35457">
        <ele>1071.2</ele>
        <time>2022-05-22 14:02:26</time>
      </trkpt>
      <trkpt lat="42.32318" lon="1.35455">
        <ele>1071.4</ele>
        <time>2022-05-22 14:02:27</time>
      </trkpt>
      <trkpt lat="42.32319" lon="1.35453">
        <ele>1071.6</ele>
        <time>2022-05-22 14:02:28</time>
      </trkpt>
      <trkpt lat="42.3232" lon="1.35451">
        <ele>1071.6</ele>
        <time>2022-05-22 14:02:29</time>
      </trkpt>
      <trkpt lat="42.32321" lon="1.35448">
        <ele>1071.8</ele>
        <time>2022-05-22 14:02:30</time>
      </trkpt>
      <trkpt lat="42.32322" lon="1.35446">
        <ele>1072</ele>
        <time>2022-05-22 14:02:31</time>
      </trkpt>
      <trkpt lat="42.32323" lon="1.35444">
        <ele>1072.2</ele>
        <time>2022-05-22 14:02:32</time>
      </trkpt>
      <trkpt lat="42.32324" lon="1.35441">
        <ele>1072.2</ele>
        <time>2022-05-22 14:02:33</time>
      </trkpt>
      <trkpt lat="42.32325" lon="1.35439">
        <ele>1072.4</ele>
        <time>2022-05-22 14:02:34</time>
      </trkpt>
      <trkpt lat="42.32326" lon="1.35437">
        <ele>1072.6</ele>
        <time>2022-05-22 14:02:35</time>
      </trkpt>
      <trkpt lat="42.32326" lon="1.35434">
        <ele>1072.6</ele>
        <time>2022-05-22 14:02:36</time>
      </trkpt>
      <trkpt lat="42.32327" lon="1.35432">
        <ele>1072.8</ele>
        <time>2022-05-22 14:02:37</time>
      </trkpt>
      <trkpt lat="42.32328" lon="1.3543">
        <ele>1072.8</ele>
        <time>2022-05-22 14:02:38</time>
      </trkpt>
      <trkpt lat="42.32328" lon="1.35427">
        <ele>1072.8</ele>
        <time>2022-05-22 14:02:39</time>
      </trkpt>
      <trkpt lat="42.32329" lon="1.35425">
        <ele>1073</ele>
        <time>2022-05-22 14:02:40</time>
      </trkpt>
      <trkpt lat="42.32329" lon="1.35422">
        <ele>1073.2</ele>
        <time>2022-05-22 14:02:41</time>
      </trkpt>
      <trkpt lat="42.3233" lon="1.3542">
        <ele>1073.2</ele>
        <time>2022-05-22 14:02:42</time>
      </trkpt>
      <trkpt lat="42.3233" lon="1.35417">
        <ele>1073.4</ele>
        <time>2022-05-22 14:02:43</time>
      </trkpt>
      <trkpt lat="42.3233" lon="1.35415">
        <ele>1073.4</ele>
        <time>2022-05-22 14:02:44</time>
      </trkpt>
      <trkpt lat="42.32331" lon="1.35412">
        <ele>1073.6</ele>
        <time>2022-05-22 14:02:45</time>
      </trkpt>
      <trkpt lat="42.32331" lon="1.3541">
        <ele>1073.8</ele>
        <time>2022-05-22 14:02:46</time>
      </trkpt>
      <trkpt lat="42.32331" lon="1.35407">
        <ele>1074</ele>
        <time>2022-05-22 14:02:47</time>
      </trkpt>
      <trkpt lat="42.32331" lon="1.35405">
        <ele>1074.2</ele>
        <time>2022-05-22 14:02:48</time>
      </trkpt>
      <trkpt lat="42.32331" lon="1.35402">
        <ele>1074.4</ele>
        <time>2022-05-22 14:02:49</time>
      </trkpt>
      <trkpt lat="42.32331" lon="1.35399">
        <ele>1074.6</ele>
        <time>2022-05-22 14:02:50</time>
      </trkpt>
      <trkpt lat="42.3233" lon="1.35397">
        <ele>1074.8</ele>
        <time>2022-05-22 14:02:51</time>
      </trkpt>
      <trkpt lat="42.3233" lon="1.35394">
        <ele>1075</ele>
        <time>2022-05-22 14:02:52</time>
      </trkpt>
      <trkpt lat="42.3233" lon="1.35392">
        <ele>1075</ele>
        <time>2022-05-22 14:02:53</time>
      </trkpt>
      <trkpt lat="42.3233" lon="1.35389">
        <ele>1075.2</ele>
        <time>2022-05-22 14:02:54</time>
      </trkpt>
      <trkpt lat="42.3233" lon="1.35387">
        <ele>1075.4</ele>
        <time>2022-05-22 14:02:55</time>
      </trkpt>
      <trkpt lat="42.32329" lon="1.35384">
        <ele>1075.6</ele>
        <time>2022-05-22 14:02:56</time>
      </trkpt>
      <trkpt lat="42.32329" lon="1.35381">
        <ele>1075.8</ele>
        <time>2022-05-22 14:02:57</time>
      </trkpt>
      <trkpt lat="42.32329" lon="1.35379">
        <ele>1075.8</ele>
        <time>2022-05-22 14:02:58</time>
      </trkpt>
      <trkpt lat="42.32329" lon="1.35376">
        <ele>1076</ele>
        <time>2022-05-22 14:02:59</time>
      </trkpt>
      <trkpt lat="42.32328" lon="1.35373">
        <ele>1076.2</ele>
        <time>2022-05-22 14:03:00</time>
      </trkpt>
      <trkpt lat="42.32327" lon="1.35371">
        <ele>1076.2</ele>
        <time>2022-05-22 14:03:01</time>
      </trkpt>
      <trkpt lat="42.32327" lon="1.35368">
        <ele>1076.4</ele>
        <time>2022-05-22 14:03:02</time>
      </trkpt>
      <trkpt lat="42.32327" lon="1.35365">
        <ele>1076.6</ele>
        <time>2022-05-22 14:03:03</time>
      </trkpt>
      <trkpt lat="42.32327" lon="1.35363">
        <ele>1076.8</ele>
        <time>2022-05-22 14:03:04</time>
      </trkpt>
      <trkpt lat="42.32326" lon="1.3536">
        <ele>1076.8</ele>
        <time>2022-05-22 14:03:05</time>
      </trkpt>
      <trkpt lat="42.32326" lon="1.35358">
        <ele>1077</ele>
        <time>2022-05-22 14:03:06</time>
      </trkpt>
      <trkpt lat="42.32326" lon="1.35355">
        <ele>1077.2</ele>
        <time>2022-05-22 14:03:07</time>
      </trkpt>
      <trkpt lat="42.32326" lon="1.35353">
        <ele>1077.4</ele>
        <time>2022-05-22 14:03:08</time>
      </trkpt>
      <trkpt lat="42.32326" lon="1.3535">
        <ele>1077.6</ele>
        <time>2022-05-22 14:03:09</time>
      </trkpt>
      <trkpt lat="42.32326" lon="1.35347">
        <ele>1077.8</ele>
        <time>2022-05-22 14:03:10</time>
      </trkpt>
      <trkpt lat="42.32326" lon="1.35344">
        <ele>1078</ele>
        <time>2022-05-22 14:03:11</time>
      </trkpt>
      <trkpt lat="42.32326" lon="1.35342">
        <ele>1078.2</ele>
        <time>2022-05-22 14:03:12</time>
      </trkpt>
      <trkpt lat="42.32326" lon="1.35339">
        <ele>1078.2</ele>
        <time>2022-05-22 14:03:13</time>
      </trkpt>
      <trkpt lat="42.32326" lon="1.35336">
        <ele>1078.4</ele>
        <time>2022-05-22 14:03:14</time>
      </trkpt>
      <trkpt lat="42.32326" lon="1.35334">
        <ele>1078.6</ele>
        <time>2022-05-22 14:03:15</time>
      </trkpt>
      <trkpt lat="42.32327" lon="1.35331">
        <ele>1078.8</ele>
        <time>2022-05-22 14:03:16</time>
      </trkpt>
      <trkpt lat="42.32327" lon="1.35329">
        <ele>1078.8</ele>
        <time>2022-05-22 14:03:17</time>
      </trkpt>
      <trkpt lat="42.32327" lon="1.35326">
        <ele>1079</ele>
        <time>2022-05-22 14:03:18</time>
      </trkpt>
      <trkpt lat="42.32328" lon="1.35324">
        <ele>1079.2</ele>
        <time>2022-05-22 14:03:19</time>
      </trkpt>
      <trkpt lat="42.32328" lon="1.35321">
        <ele>1079.4</ele>
        <time>2022-05-22 14:03:20</time>
      </trkpt>
      <trkpt lat="42.32329" lon="1.35318">
        <ele>1079.6</ele>
        <time>2022-05-22 14:03:21</time>
      </trkpt>
      <trkpt lat="42.32329" lon="1.35316">
        <ele>1079.8</ele>
        <time>2022-05-22 14:03:22</time>
      </trkpt>
      <trkpt lat="42.3233" lon="1.35313">
        <ele>1080.2</ele>
        <time>2022-05-22 14:03:23</time>
      </trkpt>
      <trkpt lat="42.32331" lon="1.35311">
        <ele>1080.4</ele>
        <time>2022-05-22 14:03:24</time>
      </trkpt>
      <trkpt lat="42.32331" lon="1.35308">
        <ele>1080.6</ele>
        <time>2022-05-22 14:03:25</time>
      </trkpt>
      <trkpt lat="42.32332" lon="1.35306">
        <ele>1080.8</ele>
        <time>2022-05-22 14:03:26</time>
      </trkpt>
      <trkpt lat="42.32334" lon="1.35303">
        <ele>1081</ele>
        <time>2022-05-22 14:03:27</time>
      </trkpt>
      <trkpt lat="42.32335" lon="1.35302">
        <ele>1081.4</ele>
        <time>2022-05-22 14:03:28</time>
      </trkpt>
      <trkpt lat="42.32336" lon="1.353">
        <ele>1081.6</ele>
        <time>2022-05-22 14:03:29</time>
      </trkpt>
      <trkpt lat="42.32338" lon="1.35299">
        <ele>1082</ele>
        <time>2022-05-22 14:03:30</time>
      </trkpt>
      <trkpt lat="42.3234" lon="1.35297">
        <ele>1082.2</ele>
        <time>2022-05-22 14:03:31</time>
      </trkpt>
      <trkpt lat="42.32341" lon="1.35296">
        <ele>1082.4</ele>
        <time>2022-05-22 14:03:32</time>
      </trkpt>
      <trkpt lat="42.32343" lon="1.35296">
        <ele>1082.6</ele>
        <time>2022-05-22 14:03:33</time>
      </trkpt>
      <trkpt lat="42.32345" lon="1.35295">
        <ele>1082.8</ele>
        <time>2022-05-22 14:03:34</time>
      </trkpt>
      <trkpt lat="42.32347" lon="1.35294">
        <ele>1083</ele>
        <time>2022-05-22 14:03:35</time>
      </trkpt>
      <trkpt lat="42.32348" lon="1.35293">
        <ele>1083</ele>
        <time>2022-05-22 14:03:36</time>
      </trkpt>
      <trkpt lat="42.3235" lon="1.35293">
        <ele>1083.2</ele>
        <time>2022-05-22 14:03:37</time>
      </trkpt>
      <trkpt lat="42.32352" lon="1.35293">
        <ele>1083.4</ele>
        <time>2022-05-22 14:03:38</time>
      </trkpt>
      <trkpt lat="42.32353" lon="1.35293">
        <ele>1083.6</ele>
        <time>2022-05-22 14:03:39</time>
      </trkpt>
      <trkpt lat="42.32355" lon="1.35293">
        <ele>1083.8</ele>
        <time>2022-05-22 14:03:40</time>
      </trkpt>
      <trkpt lat="42.32357" lon="1.35292">
        <ele>1084</ele>
        <time>2022-05-22 14:03:41</time>
      </trkpt>
      <trkpt lat="42.32358" lon="1.35292">
        <ele>1084.2</ele>
        <time>2022-05-22 14:03:42</time>
      </trkpt>
      <trkpt lat="42.3236" lon="1.35292">
        <ele>1084.4</ele>
        <time>2022-05-22 14:03:43</time>
      </trkpt>
      <trkpt lat="42.32362" lon="1.35291">
        <ele>1084.6</ele>
        <time>2022-05-22 14:03:44</time>
      </trkpt>
      <trkpt lat="42.32363" lon="1.35291">
        <ele>1084.8</ele>
        <time>2022-05-22 14:03:45</time>
      </trkpt>
      <trkpt lat="42.32365" lon="1.35291">
        <ele>1085</ele>
        <time>2022-05-22 14:03:46</time>
      </trkpt>
      <trkpt lat="42.32366" lon="1.35291">
        <ele>1085</ele>
        <time>2022-05-22 14:03:47</time>
      </trkpt>
      <trkpt lat="42.32368" lon="1.3529">
        <ele>1085.2</ele>
        <time>2022-05-22 14:03:48</time>
      </trkpt>
      <trkpt lat="42.3237" lon="1.3529">
        <ele>1085.4</ele>
        <time>2022-05-22 14:03:49</time>
      </trkpt>
      <trkpt lat="42.32371" lon="1.35289">
        <ele>1085.6</ele>
        <time>2022-05-22 14:03:50</time>
      </trkpt>
      <trkpt lat="42.32373" lon="1.35288">
        <ele>1085.8</ele>
        <time>2022-05-22 14:03:51</time>
      </trkpt>
      <trkpt lat="42.32375" lon="1.35287">
        <ele>1086</ele>
        <time>2022-05-22 14:03:52</time>
      </trkpt>
      <trkpt lat="42.32376" lon="1.35287">
        <ele>1086</ele>
        <time>2022-05-22 14:03:53</time>
      </trkpt>
      <trkpt lat="42.32378" lon="1.35286">
        <ele>1086.2</ele>
        <time>2022-05-22 14:03:54</time>
      </trkpt>
      <trkpt lat="42.3238" lon="1.35285">
        <ele>1086.6</ele>
        <time>2022-05-22 14:03:55</time>
      </trkpt>
      <trkpt lat="42.32381" lon="1.35285">
        <ele>1086.6</ele>
        <time>2022-05-22 14:03:56</time>
      </trkpt>
      <trkpt lat="42.32383" lon="1.35284">
        <ele>1086.8</ele>
        <time>2022-05-22 14:03:57</time>
      </trkpt>
      <trkpt lat="42.32384" lon="1.35283">
        <ele>1087</ele>
        <time>2022-05-22 14:03:58</time>
      </trkpt>
      <trkpt lat="42.32386" lon="1.35283">
        <ele>1087.2</ele>
        <time>2022-05-22 14:03:59</time>
      </trkpt>
      <trkpt lat="42.32388" lon="1.35282">
        <ele>1087.4</ele>
        <time>2022-05-22 14:04:00</time>
      </trkpt>
      <trkpt lat="42.32389" lon="1.35281">
        <ele>1087.6</ele>
        <time>2022-05-22 14:04:01</time>
      </trkpt>
      <trkpt lat="42.32391" lon="1.35281">
        <ele>1087.8</ele>
        <time>2022-05-22 14:04:02</time>
      </trkpt>
      <trkpt lat="42.32392" lon="1.3528">
        <ele>1088</ele>
        <time>2022-05-22 14:04:03</time>
      </trkpt>
      <trkpt lat="42.32394" lon="1.3528">
        <ele>1088.2</ele>
        <time>2022-05-22 14:04:04</time>
      </trkpt>
      <trkpt lat="42.32395" lon="1.3528">
        <ele>1088.4</ele>
        <time>2022-05-22 14:04:05</time>
      </trkpt>
      <trkpt lat="42.32397" lon="1.35279">
        <ele>1088.8</ele>
        <time>2022-05-22 14:04:06</time>
      </trkpt>
      <trkpt lat="42.32399" lon="1.35279">
        <ele>1089</ele>
        <time>2022-05-22 14:04:07</time>
      </trkpt>
      <trkpt lat="42.32401" lon="1.35278">
        <ele>1089.2</ele>
        <time>2022-05-22 14:04:08</time>
      </trkpt>
      <trkpt lat="42.32403" lon="1.35277">
        <ele>1089.4</ele>
        <time>2022-05-22 14:04:09</time>
      </trkpt>
      <trkpt lat="42.32405" lon="1.35276">
        <ele>1089.6</ele>
        <time>2022-05-22 14:04:10</time>
      </trkpt>
      <trkpt lat="42.32407" lon="1.35276">
        <ele>1089.8</ele>
        <time>2022-05-22 14:04:11</time>
      </trkpt>
      <trkpt lat="42.32409" lon="1.35275">
        <ele>1090</ele>
        <time>2022-05-22 14:04:12</time>
      </trkpt>
      <trkpt lat="42.32411" lon="1.35274">
        <ele>1090.4</ele>
        <time>2022-05-22 14:04:13</time>
      </trkpt>
      <trkpt lat="42.32413" lon="1.35273">
        <ele>1090.6</ele>
        <time>2022-05-22 14:04:14</time>
      </trkpt>
      <trkpt lat="42.32414" lon="1.35272">
        <ele>1090.8</ele>
        <time>2022-05-22 14:04:15</time>
      </trkpt>
      <trkpt lat="42.32416" lon="1.35271">
        <ele>1091</ele>
        <time>2022-05-22 14:04:16</time>
      </trkpt>
      <trkpt lat="42.32418" lon="1.3527">
        <ele>1091.2</ele>
        <time>2022-05-22 14:04:17</time>
      </trkpt>
      <trkpt lat="42.32419" lon="1.35269">
        <ele>1091.6</ele>
        <time>2022-05-22 14:04:18</time>
      </trkpt>
      <trkpt lat="42.32421" lon="1.35268">
        <ele>1091.8</ele>
        <time>2022-05-22 14:04:19</time>
      </trkpt>
      <trkpt lat="42.32423" lon="1.35267">
        <ele>1092.2</ele>
        <time>2022-05-22 14:04:20</time>
      </trkpt>
      <trkpt lat="42.32424" lon="1.35266">
        <ele>1092.4</ele>
        <time>2022-05-22 14:04:21</time>
      </trkpt>
      <trkpt lat="42.32426" lon="1.35265">
        <ele>1092.6</ele>
        <time>2022-05-22 14:04:22</time>
      </trkpt>
      <trkpt lat="42.32427" lon="1.35264">
        <ele>1092.8</ele>
        <time>2022-05-22 14:04:23</time>
      </trkpt>
      <trkpt lat="42.32429" lon="1.35262">
        <ele>1093</ele>
        <time>2022-05-22 14:04:24</time>
      </trkpt>
      <trkpt lat="42.32431" lon="1.3526">
        <ele>1093.2</ele>
        <time>2022-05-22 14:04:25</time>
      </trkpt>
      <trkpt lat="42.32432" lon="1.35258">
        <ele>1093.4</ele>
        <time>2022-05-22 14:04:26</time>
      </trkpt>
      <trkpt lat="42.32434" lon="1.35256">
        <ele>1093.6</ele>
        <time>2022-05-22 14:04:27</time>
      </trkpt>
      <trkpt lat="42.32435" lon="1.35253">
        <ele>1093.8</ele>
        <time>2022-05-22 14:04:28</time>
      </trkpt>
      <trkpt lat="42.32436" lon="1.3525">
        <ele>1094</ele>
        <time>2022-05-22 14:04:29</time>
      </trkpt>
      <trkpt lat="42.32436" lon="1.35248">
        <ele>1094.2</ele>
        <time>2022-05-22 14:04:30</time>
      </trkpt>
      <trkpt lat="42.32437" lon="1.35245">
        <ele>1094.4</ele>
        <time>2022-05-22 14:04:31</time>
      </trkpt>
      <trkpt lat="42.32438" lon="1.35241">
        <ele>1094.6</ele>
        <time>2022-05-22 14:04:32</time>
      </trkpt>
      <trkpt lat="42.32438" lon="1.35238">
        <ele>1094.8</ele>
        <time>2022-05-22 14:04:33</time>
      </trkpt>
      <trkpt lat="42.32439" lon="1.35236">
        <ele>1095</ele>
        <time>2022-05-22 14:04:34</time>
      </trkpt>
      <trkpt lat="42.32439" lon="1.35233">
        <ele>1095.2</ele>
        <time>2022-05-22 14:04:35</time>
      </trkpt>
      <trkpt lat="42.32439" lon="1.3523">
        <ele>1095.2</ele>
        <time>2022-05-22 14:04:36</time>
      </trkpt>
      <trkpt lat="42.32439" lon="1.35227">
        <ele>1095.4</ele>
        <time>2022-05-22 14:04:37</time>
      </trkpt>
      <trkpt lat="42.32439" lon="1.35224">
        <ele>1095.6</ele>
        <time>2022-05-22 14:04:38</time>
      </trkpt>
      <trkpt lat="42.32438" lon="1.35222">
        <ele>1095.6</ele>
        <time>2022-05-22 14:04:39</time>
      </trkpt>
      <trkpt lat="42.32438" lon="1.35219">
        <ele>1095.8</ele>
        <time>2022-05-22 14:04:40</time>
      </trkpt>
      <trkpt lat="42.32437" lon="1.35217">
        <ele>1096</ele>
        <time>2022-05-22 14:04:41</time>
      </trkpt>
      <trkpt lat="42.32436" lon="1.35214">
        <ele>1096</ele>
        <time>2022-05-22 14:04:42</time>
      </trkpt>
      <trkpt lat="42.32435" lon="1.35212">
        <ele>1096</ele>
        <time>2022-05-22 14:04:43</time>
      </trkpt>
      <trkpt lat="42.32434" lon="1.35209">
        <ele>1096</ele>
        <time>2022-05-22 14:04:44</time>
      </trkpt>
      <trkpt lat="42.32432" lon="1.35207">
        <ele>1096</ele>
        <time>2022-05-22 14:04:45</time>
      </trkpt>
      <trkpt lat="42.32431" lon="1.35204">
        <ele>1096</ele>
        <time>2022-05-22 14:04:46</time>
      </trkpt>
      <trkpt lat="42.32429" lon="1.35201">
        <ele>1096</ele>
        <time>2022-05-22 14:04:47</time>
      </trkpt>
      <trkpt lat="42.32427" lon="1.35198">
        <ele>1096</ele>
        <time>2022-05-22 14:04:48</time>
      </trkpt>
      <trkpt lat="42.32424" lon="1.35195">
        <ele>1096.2</ele>
        <time>2022-05-22 14:04:49</time>
      </trkpt>
      <trkpt lat="42.32421" lon="1.35192">
        <ele>1096.4</ele>
        <time>2022-05-22 14:04:50</time>
      </trkpt>
      <trkpt lat="42.32419" lon="1.3519">
        <ele>1096.4</ele>
        <time>2022-05-22 14:04:51</time>
      </trkpt>
      <trkpt lat="42.32416" lon="1.35187">
        <ele>1096.4</ele>
        <time>2022-05-22 14:04:52</time>
      </trkpt>
      <trkpt lat="42.32413" lon="1.35184">
        <ele>1096.2</ele>
        <time>2022-05-22 14:04:53</time>
      </trkpt>
      <trkpt lat="42.3241" lon="1.35181">
        <ele>1096.2</ele>
        <time>2022-05-22 14:04:54</time>
      </trkpt>
      <trkpt lat="42.32407" lon="1.35178">
        <ele>1096.2</ele>
        <time>2022-05-22 14:04:55</time>
      </trkpt>
      <trkpt lat="42.32405" lon="1.35175">
        <ele>1096.2</ele>
        <time>2022-05-22 14:04:56</time>
      </trkpt>
      <trkpt lat="42.32403" lon="1.35171">
        <ele>1096.2</ele>
        <time>2022-05-22 14:04:57</time>
      </trkpt>
      <trkpt lat="42.32401" lon="1.35167">
        <ele>1096.2</ele>
        <time>2022-05-22 14:04:58</time>
      </trkpt>
      <trkpt lat="42.32399" lon="1.35164">
        <ele>1096.2</ele>
        <time>2022-05-22 14:04:59</time>
      </trkpt>
      <trkpt lat="42.32398" lon="1.3516">
        <ele>1096.4</ele>
        <time>2022-05-22 14:05:00</time>
      </trkpt>
      <trkpt lat="42.32396" lon="1.35156">
        <ele>1096.6</ele>
        <time>2022-05-22 14:05:01</time>
      </trkpt>
      <trkpt lat="42.32395" lon="1.35151">
        <ele>1096.8</ele>
        <time>2022-05-22 14:05:02</time>
      </trkpt>
      <trkpt lat="42.32394" lon="1.35147">
        <ele>1097</ele>
        <time>2022-05-22 14:05:03</time>
      </trkpt>
      <trkpt lat="42.32393" lon="1.35142">
        <ele>1097</ele>
        <time>2022-05-22 14:05:04</time>
      </trkpt>
      <trkpt lat="42.32393" lon="1.35137">
        <ele>1097.2</ele>
        <time>2022-05-22 14:05:05</time>
      </trkpt>
      <trkpt lat="42.32393" lon="1.35133">
        <ele>1097.4</ele>
        <time>2022-05-22 14:05:06</time>
      </trkpt>
      <trkpt lat="42.32393" lon="1.35128">
        <ele>1097.4</ele>
        <time>2022-05-22 14:05:07</time>
      </trkpt>
      <trkpt lat="42.32394" lon="1.35124">
        <ele>1097.6</ele>
        <time>2022-05-22 14:05:08</time>
      </trkpt>
      <trkpt lat="42.32394" lon="1.35119">
        <ele>1097.8</ele>
        <time>2022-05-22 14:05:09</time>
      </trkpt>
      <trkpt lat="42.32395" lon="1.35115">
        <ele>1097.8</ele>
        <time>2022-05-22 14:05:10</time>
      </trkpt>
      <trkpt lat="42.32395" lon="1.35111">
        <ele>1098</ele>
        <time>2022-05-22 14:05:11</time>
      </trkpt>
      <trkpt lat="42.32396" lon="1.35108">
        <ele>1098.4</ele>
        <time>2022-05-22 14:05:12</time>
      </trkpt>
      <trkpt lat="42.32396" lon="1.35105">
        <ele>1098.6</ele>
        <time>2022-05-22 14:05:13</time>
      </trkpt>
      <trkpt lat="42.32397" lon="1.35101">
        <ele>1098.8</ele>
        <time>2022-05-22 14:05:14</time>
      </trkpt>
      <trkpt lat="42.32398" lon="1.35098">
        <ele>1098.8</ele>
        <time>2022-05-22 14:05:15</time>
      </trkpt>
      <trkpt lat="42.32399" lon="1.35094">
        <ele>1099</ele>
        <time>2022-05-22 14:05:16</time>
      </trkpt>
      <trkpt lat="42.32399" lon="1.3509">
        <ele>1099.2</ele>
        <time>2022-05-22 14:05:17</time>
      </trkpt>
      <trkpt lat="42.324" lon="1.35086">
        <ele>1099.4</ele>
        <time>2022-05-22 14:05:18</time>
      </trkpt>
      <trkpt lat="42.324" lon="1.35082">
        <ele>1099.4</ele>
        <time>2022-05-22 14:05:19</time>
      </trkpt>
      <trkpt lat="42.32401" lon="1.35078">
        <ele>1099.4</ele>
        <time>2022-05-22 14:05:20</time>
      </trkpt>
      <trkpt lat="42.32401" lon="1.35074">
        <ele>1099.4</ele>
        <time>2022-05-22 14:05:21</time>
      </trkpt>
      <trkpt lat="42.324" lon="1.3507">
        <ele>1099.6</ele>
        <time>2022-05-22 14:05:22</time>
      </trkpt>
      <trkpt lat="42.32399" lon="1.35067">
        <ele>1100</ele>
        <time>2022-05-22 14:05:23</time>
      </trkpt>
      <trkpt lat="42.32398" lon="1.35064">
        <ele>1100.2</ele>
        <time>2022-05-22 14:05:24</time>
      </trkpt>
      <trkpt lat="42.32396" lon="1.35061">
        <ele>1100.4</ele>
        <time>2022-05-22 14:05:25</time>
      </trkpt>
      <trkpt lat="42.32394" lon="1.35058">
        <ele>1100.6</ele>
        <time>2022-05-22 14:05:26</time>
      </trkpt>
      <trkpt lat="42.32392" lon="1.35055">
        <ele>1100.8</ele>
        <time>2022-05-22 14:05:27</time>
      </trkpt>
      <trkpt lat="42.3239" lon="1.35053">
        <ele>1100.8</ele>
        <time>2022-05-22 14:05:28</time>
      </trkpt>
      <trkpt lat="42.32388" lon="1.3505">
        <ele>1101</ele>
        <time>2022-05-22 14:05:29</time>
      </trkpt>
      <trkpt lat="42.32386" lon="1.35048">
        <ele>1101</ele>
        <time>2022-05-22 14:05:30</time>
      </trkpt>
      <trkpt lat="42.32384" lon="1.35046">
        <ele>1101</ele>
        <time>2022-05-22 14:05:31</time>
      </trkpt>
      <trkpt lat="42.32383" lon="1.35043">
        <ele>1101.4</ele>
        <time>2022-05-22 14:05:32</time>
      </trkpt>
      <trkpt lat="42.32381" lon="1.35041">
        <ele>1101.6</ele>
        <time>2022-05-22 14:05:33</time>
      </trkpt>
      <trkpt lat="42.32379" lon="1.35039">
        <ele>1101.6</ele>
        <time>2022-05-22 14:05:34</time>
      </trkpt>
      <trkpt lat="42.32377" lon="1.35037">
        <ele>1101.8</ele>
        <time>2022-05-22 14:05:35</time>
      </trkpt>
      <trkpt lat="42.32374" lon="1.35034">
        <ele>1102</ele>
        <time>2022-05-22 14:05:36</time>
      </trkpt>
      <trkpt lat="42.32373" lon="1.35032">
        <ele>1102.2</ele>
        <time>2022-05-22 14:05:37</time>
      </trkpt>
      <trkpt lat="42.32371" lon="1.35029">
        <ele>1102.6</ele>
        <time>2022-05-22 14:05:38</time>
      </trkpt>
      <trkpt lat="42.32369" lon="1.35026">
        <ele>1102.8</ele>
        <time>2022-05-22 14:05:39</time>
      </trkpt>
      <trkpt lat="42.32368" lon="1.35023">
        <ele>1103</ele>
        <time>2022-05-22 14:05:40</time>
      </trkpt>
      <trkpt lat="42.32367" lon="1.35019">
        <ele>1103</ele>
        <time>2022-05-22 14:05:41</time>
      </trkpt>
      <trkpt lat="42.32366" lon="1.35016">
        <ele>1103</ele>
        <time>2022-05-22 14:05:42</time>
      </trkpt>
      <trkpt lat="42.32365" lon="1.35012">
        <ele>1103.2</ele>
        <time>2022-05-22 14:05:43</time>
      </trkpt>
      <trkpt lat="42.32365" lon="1.35008">
        <ele>1103.6</ele>
        <time>2022-05-22 14:05:44</time>
      </trkpt>
      <trkpt lat="42.32364" lon="1.35004">
        <ele>1103.8</ele>
        <time>2022-05-22 14:05:45</time>
      </trkpt>
      <trkpt lat="42.32364" lon="1.35">
        <ele>1104</ele>
        <time>2022-05-22 14:05:46</time>
      </trkpt>
      <trkpt lat="42.32364" lon="1.34996">
        <ele>1104</ele>
        <time>2022-05-22 14:05:47</time>
      </trkpt>
      <trkpt lat="42.32364" lon="1.34992">
        <ele>1104.2</ele>
        <time>2022-05-22 14:05:48</time>
      </trkpt>
      <trkpt lat="42.32364" lon="1.34988">
        <ele>1104.2</ele>
        <time>2022-05-22 14:05:49</time>
      </trkpt>
      <trkpt lat="42.32364" lon="1.34984">
        <ele>1104.2</ele>
        <time>2022-05-22 14:05:50</time>
      </trkpt>
      <trkpt lat="42.32364" lon="1.34979">
        <ele>1104.2</ele>
        <time>2022-05-22 14:05:51</time>
      </trkpt>
      <trkpt lat="42.32364" lon="1.34975">
        <ele>1104.2</ele>
        <time>2022-05-22 14:05:52</time>
      </trkpt>
      <trkpt lat="42.32364" lon="1.34971">
        <ele>1104.4</ele>
        <time>2022-05-22 14:05:53</time>
      </trkpt>
      <trkpt lat="42.32364" lon="1.34967">
        <ele>1104.6</ele>
        <time>2022-05-22 14:05:54</time>
      </trkpt>
      <trkpt lat="42.32364" lon="1.34963">
        <ele>1104.8</ele>
        <time>2022-05-22 14:05:55</time>
      </trkpt>
      <trkpt lat="42.32364" lon="1.3496">
        <ele>1104.8</ele>
        <time>2022-05-22 14:05:56</time>
      </trkpt>
      <trkpt lat="42.32363" lon="1.34956">
        <ele>1105</ele>
        <time>2022-05-22 14:05:57</time>
      </trkpt>
      <trkpt lat="42.32363" lon="1.34953">
        <ele>1105.2</ele>
        <time>2022-05-22 14:05:58</time>
      </trkpt>
      <trkpt lat="42.32363" lon="1.3495">
        <ele>1105.4</ele>
        <time>2022-05-22 14:05:59</time>
      </trkpt>
      <trkpt lat="42.32362" lon="1.34947">
        <ele>1105.4</ele>
        <time>2022-05-22 14:06:00</time>
      </trkpt>
      <trkpt lat="42.32362" lon="1.34944">
        <ele>1105.6</ele>
        <time>2022-05-22 14:06:01</time>
      </trkpt>
      <trkpt lat="42.32361" lon="1.3494">
        <ele>1105.6</ele>
        <time>2022-05-22 14:06:02</time>
      </trkpt>
      <trkpt lat="42.3236" lon="1.34937">
        <ele>1105.6</ele>
        <time>2022-05-22 14:06:03</time>
      </trkpt>
      <trkpt lat="42.3236" lon="1.34934">
        <ele>1105.6</ele>
        <time>2022-05-22 14:06:04</time>
      </trkpt>
      <trkpt lat="42.32359" lon="1.3493">
        <ele>1105.6</ele>
        <time>2022-05-22 14:06:05</time>
      </trkpt>
      <trkpt lat="42.32358" lon="1.34927">
        <ele>1105.6</ele>
        <time>2022-05-22 14:06:06</time>
      </trkpt>
      <trkpt lat="42.32357" lon="1.34923">
        <ele>1105.6</ele>
        <time>2022-05-22 14:06:07</time>
      </trkpt>
      <trkpt lat="42.32356" lon="1.34919">
        <ele>1105.8</ele>
        <time>2022-05-22 14:06:08</time>
      </trkpt>
      <trkpt lat="42.32356" lon="1.34916">
        <ele>1106</ele>
        <time>2022-05-22 14:06:09</time>
      </trkpt>
      <trkpt lat="42.32355" lon="1.34912">
        <ele>1106.2</ele>
        <time>2022-05-22 14:06:10</time>
      </trkpt>
      <trkpt lat="42.32355" lon="1.34908">
        <ele>1106.4</ele>
        <time>2022-05-22 14:06:11</time>
      </trkpt>
      <trkpt lat="42.32354" lon="1.34904">
        <ele>1106.6</ele>
        <time>2022-05-22 14:06:12</time>
      </trkpt>
      <trkpt lat="42.32354" lon="1.349">
        <ele>1106.8</ele>
        <time>2022-05-22 14:06:13</time>
      </trkpt>
      <trkpt lat="42.32353" lon="1.34896">
        <ele>1106.8</ele>
        <time>2022-05-22 14:06:14</time>
      </trkpt>
      <trkpt lat="42.32353" lon="1.34892">
        <ele>1107</ele>
        <time>2022-05-22 14:06:15</time>
      </trkpt>
      <trkpt lat="42.32353" lon="1.34889">
        <ele>1107.2</ele>
        <time>2022-05-22 14:06:16</time>
      </trkpt>
      <trkpt lat="42.32354" lon="1.34885">
        <ele>1107.2</ele>
        <time>2022-05-22 14:06:17</time>
      </trkpt>
      <trkpt lat="42.32354" lon="1.34881">
        <ele>1107.4</ele>
        <time>2022-05-22 14:06:18</time>
      </trkpt>
      <trkpt lat="42.32355" lon="1.34878">
        <ele>1107.4</ele>
        <time>2022-05-22 14:06:19</time>
      </trkpt>
      <trkpt lat="42.32355" lon="1.34874">
        <ele>1107.6</ele>
        <time>2022-05-22 14:06:20</time>
      </trkpt>
      <trkpt lat="42.32356" lon="1.34871">
        <ele>1107.6</ele>
        <time>2022-05-22 14:06:21</time>
      </trkpt>
      <trkpt lat="42.32357" lon="1.34868">
        <ele>1107.8</ele>
        <time>2022-05-22 14:06:22</time>
      </trkpt>
      <trkpt lat="42.32359" lon="1.34865">
        <ele>1108</ele>
        <time>2022-05-22 14:06:23</time>
      </trkpt>
      <trkpt lat="42.3236" lon="1.34862">
        <ele>1108.2</ele>
        <time>2022-05-22 14:06:24</time>
      </trkpt>
      <trkpt lat="42.32362" lon="1.34859">
        <ele>1108.2</ele>
        <time>2022-05-22 14:06:25</time>
      </trkpt>
      <trkpt lat="42.32363" lon="1.34857">
        <ele>1108.4</ele>
        <time>2022-05-22 14:06:26</time>
      </trkpt>
      <trkpt lat="42.32365" lon="1.34854">
        <ele>1108.6</ele>
        <time>2022-05-22 14:06:27</time>
      </trkpt>
      <trkpt lat="42.32366" lon="1.34852">
        <ele>1108.8</ele>
        <time>2022-05-22 14:06:28</time>
      </trkpt>
      <trkpt lat="42.32368" lon="1.3485">
        <ele>1108.8</ele>
        <time>2022-05-22 14:06:29</time>
      </trkpt>
      <trkpt lat="42.3237" lon="1.34849">
        <ele>1109</ele>
        <time>2022-05-22 14:06:30</time>
      </trkpt>
      <trkpt lat="42.32372" lon="1.34847">
        <ele>1109.2</ele>
        <time>2022-05-22 14:06:31</time>
      </trkpt>
      <trkpt lat="42.32374" lon="1.34846">
        <ele>1109.4</ele>
        <time>2022-05-22 14:06:32</time>
      </trkpt>
      <trkpt lat="42.32376" lon="1.34844">
        <ele>1109.6</ele>
        <time>2022-05-22 14:06:33</time>
      </trkpt>
      <trkpt lat="42.32379" lon="1.34842">
        <ele>1109.6</ele>
        <time>2022-05-22 14:06:34</time>
      </trkpt>
      <trkpt lat="42.32381" lon="1.34841">
        <ele>1109.8</ele>
        <time>2022-05-22 14:06:35</time>
      </trkpt>
      <trkpt lat="42.32384" lon="1.3484">
        <ele>1110</ele>
        <time>2022-05-22 14:06:36</time>
      </trkpt>
      <trkpt lat="42.32386" lon="1.34838">
        <ele>1110.2</ele>
        <time>2022-05-22 14:06:37</time>
      </trkpt>
      <trkpt lat="42.32389" lon="1.34837">
        <ele>1110.4</ele>
        <time>2022-05-22 14:06:38</time>
      </trkpt>
      <trkpt lat="42.32391" lon="1.34835">
        <ele>1110.8</ele>
        <time>2022-05-22 14:06:39</time>
      </trkpt>
      <trkpt lat="42.32393" lon="1.34834">
        <ele>1111</ele>
        <time>2022-05-22 14:06:40</time>
      </trkpt>
      <trkpt lat="42.32396" lon="1.34832">
        <ele>1111</ele>
        <time>2022-05-22 14:06:41</time>
      </trkpt>
      <trkpt lat="42.32398" lon="1.34831">
        <ele>1111.4</ele>
        <time>2022-05-22 14:06:42</time>
      </trkpt>
      <trkpt lat="42.32401" lon="1.34829">
        <ele>1111.6</ele>
        <time>2022-05-22 14:06:43</time>
      </trkpt>
      <trkpt lat="42.32403" lon="1.34828">
        <ele>1112</ele>
        <time>2022-05-22 14:06:44</time>
      </trkpt>
      <trkpt lat="42.32405" lon="1.34827">
        <ele>1112.2</ele>
        <time>2022-05-22 14:06:45</time>
      </trkpt>
      <trkpt lat="42.32408" lon="1.34826">
        <ele>1112.4</ele>
        <time>2022-05-22 14:06:46</time>
      </trkpt>
      <trkpt lat="42.32411" lon="1.34826">
        <ele>1112.6</ele>
        <time>2022-05-22 14:06:47</time>
      </trkpt>
      <trkpt lat="42.32413" lon="1.34826">
        <ele>1113</ele>
        <time>2022-05-22 14:06:48</time>
      </trkpt>
      <trkpt lat="42.32416" lon="1.34826">
        <ele>1113.2</ele>
        <time>2022-05-22 14:06:49</time>
      </trkpt>
      <trkpt lat="42.32418" lon="1.34825">
        <ele>1113.4</ele>
        <time>2022-05-22 14:06:50</time>
      </trkpt>
      <trkpt lat="42.3242" lon="1.34825">
        <ele>1113.8</ele>
        <time>2022-05-22 14:06:51</time>
      </trkpt>
      <trkpt lat="42.32422" lon="1.34825">
        <ele>1114</ele>
        <time>2022-05-22 14:06:52</time>
      </trkpt>
      <trkpt lat="42.32425" lon="1.34825">
        <ele>1114.2</ele>
        <time>2022-05-22 14:06:53</time>
      </trkpt>
      <trkpt lat="42.32427" lon="1.34825">
        <ele>1114.6</ele>
        <time>2022-05-22 14:06:54</time>
      </trkpt>
      <trkpt lat="42.3243" lon="1.34825">
        <ele>1115</ele>
        <time>2022-05-22 14:06:55</time>
      </trkpt>
      <trkpt lat="42.32432" lon="1.34825">
        <ele>1115.4</ele>
        <time>2022-05-22 14:06:56</time>
      </trkpt>
      <trkpt lat="42.32435" lon="1.34825">
        <ele>1115.6</ele>
        <time>2022-05-22 14:06:57</time>
      </trkpt>
      <trkpt lat="42.32437" lon="1.34825">
        <ele>1115.8</ele>
        <time>2022-05-22 14:06:58</time>
      </trkpt>
      <trkpt lat="42.3244" lon="1.34825">
        <ele>1116.2</ele>
        <time>2022-05-22 14:06:59</time>
      </trkpt>
      <trkpt lat="42.32443" lon="1.34824">
        <ele>1116.4</ele>
        <time>2022-05-22 14:07:00</time>
      </trkpt>
      <trkpt lat="42.32445" lon="1.34824">
        <ele>1116.6</ele>
        <time>2022-05-22 14:07:01</time>
      </trkpt>
      <trkpt lat="42.32448" lon="1.34824">
        <ele>1116.8</ele>
        <time>2022-05-22 14:07:02</time>
      </trkpt>
      <trkpt lat="42.32451" lon="1.34825">
        <ele>1117.2</ele>
        <time>2022-05-22 14:07:03</time>
      </trkpt>
      <trkpt lat="42.32453" lon="1.34825">
        <ele>1117.4</ele>
        <time>2022-05-22 14:07:04</time>
      </trkpt>
      <trkpt lat="42.32456" lon="1.34825">
        <ele>1117.6</ele>
        <time>2022-05-22 14:07:05</time>
      </trkpt>
      <trkpt lat="42.32458" lon="1.34826">
        <ele>1117.8</ele>
        <time>2022-05-22 14:07:06</time>
      </trkpt>
      <trkpt lat="42.32461" lon="1.34827">
        <ele>1118</ele>
        <time>2022-05-22 14:07:07</time>
      </trkpt>
      <trkpt lat="42.32463" lon="1.34827">
        <ele>1118.2</ele>
        <time>2022-05-22 14:07:08</time>
      </trkpt>
      <trkpt lat="42.32466" lon="1.34827">
        <ele>1118.4</ele>
        <time>2022-05-22 14:07:09</time>
      </trkpt>
      <trkpt lat="42.32468" lon="1.34827">
        <ele>1118.8</ele>
        <time>2022-05-22 14:07:10</time>
      </trkpt>
      <trkpt lat="42.32471" lon="1.34827">
        <ele>1119</ele>
        <time>2022-05-22 14:07:11</time>
      </trkpt>
      <trkpt lat="42.32473" lon="1.34827">
        <ele>1119.2</ele>
        <time>2022-05-22 14:07:12</time>
      </trkpt>
      <trkpt lat="42.32476" lon="1.34827">
        <ele>1119.4</ele>
        <time>2022-05-22 14:07:13</time>
      </trkpt>
      <trkpt lat="42.32478" lon="1.34827">
        <ele>1119.8</ele>
        <time>2022-05-22 14:07:14</time>
      </trkpt>
      <trkpt lat="42.3248" lon="1.34827">
        <ele>1120</ele>
        <time>2022-05-22 14:07:15</time>
      </trkpt>
      <trkpt lat="42.32482" lon="1.34827">
        <ele>1120.2</ele>
        <time>2022-05-22 14:07:16</time>
      </trkpt>
      <trkpt lat="42.32484" lon="1.34826">
        <ele>1120.4</ele>
        <time>2022-05-22 14:07:17</time>
      </trkpt>
      <trkpt lat="42.32485" lon="1.34826">
        <ele>1120.8</ele>
        <time>2022-05-22 14:07:18</time>
      </trkpt>
      <trkpt lat="42.32487" lon="1.34826">
        <ele>1121</ele>
        <time>2022-05-22 14:07:19</time>
      </trkpt>
      <trkpt lat="42.32489" lon="1.34826">
        <ele>1121.2</ele>
        <time>2022-05-22 14:07:20</time>
      </trkpt>
      <trkpt lat="42.32491" lon="1.34826">
        <ele>1121.4</ele>
        <time>2022-05-22 14:07:21</time>
      </trkpt>
      <trkpt lat="42.32493" lon="1.34827">
        <ele>1121.4</ele>
        <time>2022-05-22 14:07:22</time>
      </trkpt>
      <trkpt lat="42.32494" lon="1.34827">
        <ele>1121.6</ele>
        <time>2022-05-22 14:07:23</time>
      </trkpt>
      <trkpt lat="42.32496" lon="1.34826">
        <ele>1121.8</ele>
        <time>2022-05-22 14:07:24</time>
      </trkpt>
      <trkpt lat="42.32497" lon="1.34826">
        <ele>1121.8</ele>
        <time>2022-05-22 14:07:25</time>
      </trkpt>
      <trkpt lat="42.32499" lon="1.34826">
        <ele>1121.8</ele>
        <time>2022-05-22 14:07:26</time>
      </trkpt>
      <trkpt lat="42.32501" lon="1.34826">
        <ele>1122</ele>
        <time>2022-05-22 14:07:27</time>
      </trkpt>
      <trkpt lat="42.32503" lon="1.34826">
        <ele>1122</ele>
        <time>2022-05-22 14:07:28</time>
      </trkpt>
      <trkpt lat="42.32504" lon="1.34826">
        <ele>1122.2</ele>
        <time>2022-05-22 14:07:29</time>
      </trkpt>
      <trkpt lat="42.32506" lon="1.34826">
        <ele>1122.2</ele>
        <time>2022-05-22 14:07:30</time>
      </trkpt>
      <trkpt lat="42.32508" lon="1.34825">
        <ele>1122.4</ele>
        <time>2022-05-22 14:07:31</time>
      </trkpt>
      <trkpt lat="42.32509" lon="1.34825">
        <ele>1122.6</ele>
        <time>2022-05-22 14:07:32</time>
      </trkpt>
      <trkpt lat="42.32511" lon="1.34824">
        <ele>1122.6</ele>
        <time>2022-05-22 14:07:33</time>
      </trkpt>
      <trkpt lat="42.32513" lon="1.34824">
        <ele>1122.8</ele>
        <time>2022-05-22 14:07:34</time>
      </trkpt>
      <trkpt lat="42.32515" lon="1.34823">
        <ele>1123</ele>
        <time>2022-05-22 14:07:35</time>
      </trkpt>
      <trkpt lat="42.32517" lon="1.34823">
        <ele>1123.2</ele>
        <time>2022-05-22 14:07:36</time>
      </trkpt>
      <trkpt lat="42.32519" lon="1.34822">
        <ele>1123.4</ele>
        <time>2022-05-22 14:07:37</time>
      </trkpt>
      <trkpt lat="42.32521" lon="1.34822">
        <ele>1123.6</ele>
        <time>2022-05-22 14:07:38</time>
      </trkpt>
      <trkpt lat="42.32523" lon="1.34821">
        <ele>1123.6</ele>
        <time>2022-05-22 14:07:39</time>
      </trkpt>
      <trkpt lat="42.32525" lon="1.34821">
        <ele>1123.8</ele>
        <time>2022-05-22 14:07:40</time>
      </trkpt>
      <trkpt lat="42.32527" lon="1.3482">
        <ele>1124.2</ele>
        <time>2022-05-22 14:07:41</time>
      </trkpt>
      <trkpt lat="42.32529" lon="1.3482">
        <ele>1124.4</ele>
        <time>2022-05-22 14:07:42</time>
      </trkpt>
      <trkpt lat="42.32531" lon="1.34819">
        <ele>1124.6</ele>
        <time>2022-05-22 14:07:43</time>
      </trkpt>
      <trkpt lat="42.32533" lon="1.34818">
        <ele>1124.8</ele>
        <time>2022-05-22 14:07:44</time>
      </trkpt>
      <trkpt lat="42.32535" lon="1.34818">
        <ele>1125.2</ele>
        <time>2022-05-22 14:07:45</time>
      </trkpt>
      <trkpt lat="42.32537" lon="1.34817">
        <ele>1125.4</ele>
        <time>2022-05-22 14:07:46</time>
      </trkpt>
      <trkpt lat="42.32539" lon="1.34817">
        <ele>1125.6</ele>
        <time>2022-05-22 14:07:47</time>
      </trkpt>
      <trkpt lat="42.32541" lon="1.34817">
        <ele>1125.8</ele>
        <time>2022-05-22 14:07:48</time>
      </trkpt>
      <trkpt lat="42.32543" lon="1.34817">
        <ele>1126</ele>
        <time>2022-05-22 14:07:49</time>
      </trkpt>
      <trkpt lat="42.32545" lon="1.34816">
        <ele>1126.2</ele>
        <time>2022-05-22 14:07:50</time>
      </trkpt>
      <trkpt lat="42.32546" lon="1.34816">
        <ele>1126.2</ele>
        <time>2022-05-22 14:07:51</time>
      </trkpt>
      <trkpt lat="42.32548" lon="1.34816">
        <ele>1126.4</ele>
        <time>2022-05-22 14:07:52</time>
      </trkpt>
      <trkpt lat="42.32551" lon="1.34816">
        <ele>1126.6</ele>
        <time>2022-05-22 14:07:53</time>
      </trkpt>
      <trkpt lat="42.32552" lon="1.34816">
        <ele>1126.8</ele>
        <time>2022-05-22 14:07:54</time>
      </trkpt>
      <trkpt lat="42.32554" lon="1.34815">
        <ele>1126.8</ele>
        <time>2022-05-22 14:07:55</time>
      </trkpt>
      <trkpt lat="42.32556" lon="1.34815">
        <ele>1127</ele>
        <time>2022-05-22 14:07:56</time>
      </trkpt>
      <trkpt lat="42.32558" lon="1.34815">
        <ele>1127.2</ele>
        <time>2022-05-22 14:07:57</time>
      </trkpt>
      <trkpt lat="42.3256" lon="1.34815">
        <ele>1127.4</ele>
        <time>2022-05-22 14:07:58</time>
      </trkpt>
      <trkpt lat="42.32562" lon="1.34815">
        <ele>1127.6</ele>
        <time>2022-05-22 14:07:59</time>
      </trkpt>
      <trkpt lat="42.32564" lon="1.34815">
        <ele>1127.6</ele>
        <time>2022-05-22 14:08:00</time>
      </trkpt>
      <trkpt lat="42.32566" lon="1.34816">
        <ele>1127.8</ele>
        <time>2022-05-22 14:08:01</time>
      </trkpt>
      <trkpt lat="42.32568" lon="1.34816">
        <ele>1128</ele>
        <time>2022-05-22 14:08:02</time>
      </trkpt>
      <trkpt lat="42.3257" lon="1.34817">
        <ele>1128.2</ele>
        <time>2022-05-22 14:08:03</time>
      </trkpt>
      <trkpt lat="42.32571" lon="1.34817">
        <ele>1128.2</ele>
        <time>2022-05-22 14:08:04</time>
      </trkpt>
      <trkpt lat="42.32573" lon="1.34817">
        <ele>1128.4</ele>
        <time>2022-05-22 14:08:05</time>
      </trkpt>
      <trkpt lat="42.32575" lon="1.34818">
        <ele>1128.4</ele>
        <time>2022-05-22 14:08:06</time>
      </trkpt>
      <trkpt lat="42.32577" lon="1.34818">
        <ele>1128.6</ele>
        <time>2022-05-22 14:08:07</time>
      </trkpt>
      <trkpt lat="42.32579" lon="1.34818">
        <ele>1128.8</ele>
        <time>2022-05-22 14:08:08</time>
      </trkpt>
      <trkpt lat="42.32581" lon="1.34819">
        <ele>1128.8</ele>
        <time>2022-05-22 14:08:09</time>
      </trkpt>
      <trkpt lat="42.32583" lon="1.34819">
        <ele>1129</ele>
        <time>2022-05-22 14:08:10</time>
      </trkpt>
      <trkpt lat="42.32585" lon="1.34819">
        <ele>1129.2</ele>
        <time>2022-05-22 14:08:11</time>
      </trkpt>
      <trkpt lat="42.32587" lon="1.3482">
        <ele>1129.2</ele>
        <time>2022-05-22 14:08:12</time>
      </trkpt>
      <trkpt lat="42.32589" lon="1.3482">
        <ele>1129.4</ele>
        <time>2022-05-22 14:08:13</time>
      </trkpt>
      <trkpt lat="42.32591" lon="1.3482">
        <ele>1129.4</ele>
        <time>2022-05-22 14:08:14</time>
      </trkpt>
      <trkpt lat="42.32593" lon="1.3482">
        <ele>1129.6</ele>
        <time>2022-05-22 14:08:15</time>
      </trkpt>
      <trkpt lat="42.32595" lon="1.34819">
        <ele>1129.8</ele>
        <time>2022-05-22 14:08:16</time>
      </trkpt>
      <trkpt lat="42.32597" lon="1.34819">
        <ele>1129.8</ele>
        <time>2022-05-22 14:08:17</time>
      </trkpt>
      <trkpt lat="42.32599" lon="1.34819">
        <ele>1130</ele>
        <time>2022-05-22 14:08:18</time>
      </trkpt>
      <trkpt lat="42.32601" lon="1.34819">
        <ele>1130</ele>
        <time>2022-05-22 14:08:19</time>
      </trkpt>
      <trkpt lat="42.32603" lon="1.34819">
        <ele>1130.2</ele>
        <time>2022-05-22 14:08:20</time>
      </trkpt>
      <trkpt lat="42.32605" lon="1.34819">
        <ele>1130.2</ele>
        <time>2022-05-22 14:08:21</time>
      </trkpt>
      <trkpt lat="42.32607" lon="1.34819">
        <ele>1130.4</ele>
        <time>2022-05-22 14:08:22</time>
      </trkpt>
      <trkpt lat="42.32609" lon="1.34818">
        <ele>1130.4</ele>
        <time>2022-05-22 14:08:23</time>
      </trkpt>
      <trkpt lat="42.32611" lon="1.34817">
        <ele>1130.6</ele>
        <time>2022-05-22 14:08:24</time>
      </trkpt>
      <trkpt lat="42.32614" lon="1.34816">
        <ele>1130.6</ele>
        <time>2022-05-22 14:08:25</time>
      </trkpt>
      <trkpt lat="42.32616" lon="1.34814">
        <ele>1130.6</ele>
        <time>2022-05-22 14:08:26</time>
      </trkpt>
      <trkpt lat="42.32618" lon="1.34812">
        <ele>1130.8</ele>
        <time>2022-05-22 14:08:27</time>
      </trkpt>
      <trkpt lat="42.3262" lon="1.3481">
        <ele>1130.8</ele>
        <time>2022-05-22 14:08:28</time>
      </trkpt>
      <trkpt lat="42.32622" lon="1.34808">
        <ele>1130.8</ele>
        <time>2022-05-22 14:08:29</time>
      </trkpt>
      <trkpt lat="42.32625" lon="1.34805">
        <ele>1130.8</ele>
        <time>2022-05-22 14:08:30</time>
      </trkpt>
      <trkpt lat="42.32626" lon="1.34803">
        <ele>1130.8</ele>
        <time>2022-05-22 14:08:31</time>
      </trkpt>
      <trkpt lat="42.32628" lon="1.348">
        <ele>1130.8</ele>
        <time>2022-05-22 14:08:32</time>
      </trkpt>
      <trkpt lat="42.3263" lon="1.34797">
        <ele>1130.8</ele>
        <time>2022-05-22 14:08:33</time>
      </trkpt>
      <trkpt lat="42.32632" lon="1.34793">
        <ele>1131</ele>
        <time>2022-05-22 14:08:34</time>
      </trkpt>
      <trkpt lat="42.32634" lon="1.3479">
        <ele>1131</ele>
        <time>2022-05-22 14:08:35</time>
      </trkpt>
      <trkpt lat="42.32636" lon="1.34787">
        <ele>1131</ele>
        <time>2022-05-22 14:08:36</time>
      </trkpt>
      <trkpt lat="42.32637" lon="1.34783">
        <ele>1131</ele>
        <time>2022-05-22 14:08:37</time>
      </trkpt>
      <trkpt lat="42.32639" lon="1.34779">
        <ele>1131</ele>
        <time>2022-05-22 14:08:38</time>
      </trkpt>
      <trkpt lat="42.3264" lon="1.34776">
        <ele>1131</ele>
        <time>2022-05-22 14:08:39</time>
      </trkpt>
      <trkpt lat="42.32641" lon="1.34771">
        <ele>1131.2</ele>
        <time>2022-05-22 14:08:40</time>
      </trkpt>
      <trkpt lat="42.32642" lon="1.34767">
        <ele>1131.2</ele>
        <time>2022-05-22 14:08:41</time>
      </trkpt>
      <trkpt lat="42.32643" lon="1.34763">
        <ele>1131.4</ele>
        <time>2022-05-22 14:08:42</time>
      </trkpt>
      <trkpt lat="42.32643" lon="1.34759">
        <ele>1131.4</ele>
        <time>2022-05-22 14:08:43</time>
      </trkpt>
      <trkpt lat="42.32644" lon="1.34756">
        <ele>1131.4</ele>
        <time>2022-05-22 14:08:44</time>
      </trkpt>
      <trkpt lat="42.32645" lon="1.34752">
        <ele>1131.6</ele>
        <time>2022-05-22 14:08:45</time>
      </trkpt>
      <trkpt lat="42.32645" lon="1.34748">
        <ele>1131.6</ele>
        <time>2022-05-22 14:08:46</time>
      </trkpt>
      <trkpt lat="42.32646" lon="1.34745">
        <ele>1131.4</ele>
        <time>2022-05-22 14:08:47</time>
      </trkpt>
      <trkpt lat="42.32647" lon="1.34741">
        <ele>1131.6</ele>
        <time>2022-05-22 14:08:48</time>
      </trkpt>
      <trkpt lat="42.32647" lon="1.34737">
        <ele>1131.6</ele>
        <time>2022-05-22 14:08:49</time>
      </trkpt>
      <trkpt lat="42.32648" lon="1.34734">
        <ele>1131.6</ele>
        <time>2022-05-22 14:08:50</time>
      </trkpt>
      <trkpt lat="42.32649" lon="1.3473">
        <ele>1131.8</ele>
        <time>2022-05-22 14:08:51</time>
      </trkpt>
      <trkpt lat="42.32649" lon="1.34726">
        <ele>1132</ele>
        <time>2022-05-22 14:08:52</time>
      </trkpt>
      <trkpt lat="42.3265" lon="1.34723">
        <ele>1132</ele>
        <time>2022-05-22 14:08:53</time>
      </trkpt>
      <trkpt lat="42.3265" lon="1.3472">
        <ele>1132</ele>
        <time>2022-05-22 14:08:54</time>
      </trkpt>
      <trkpt lat="42.32652" lon="1.34715">
        <ele>1132.2</ele>
        <time>2022-05-22 14:08:55</time>
      </trkpt>
      <trkpt lat="42.32652" lon="1.34711">
        <ele>1132.2</ele>
        <time>2022-05-22 14:08:56</time>
      </trkpt>
      <trkpt lat="42.32653" lon="1.34707">
        <ele>1132.2</ele>
        <time>2022-05-22 14:08:57</time>
      </trkpt>
      <trkpt lat="42.32654" lon="1.34702">
        <ele>1132.2</ele>
        <time>2022-05-22 14:08:58</time>
      </trkpt>
      <trkpt lat="42.32654" lon="1.34698">
        <ele>1132.2</ele>
        <time>2022-05-22 14:08:59</time>
      </trkpt>
      <trkpt lat="42.32655" lon="1.34694">
        <ele>1132.2</ele>
        <time>2022-05-22 14:09:00</time>
      </trkpt>
      <trkpt lat="42.32656" lon="1.34689">
        <ele>1132.4</ele>
        <time>2022-05-22 14:09:01</time>
      </trkpt>
      <trkpt lat="42.32656" lon="1.34685">
        <ele>1132.4</ele>
        <time>2022-05-22 14:09:02</time>
      </trkpt>
      <trkpt lat="42.32657" lon="1.34681">
        <ele>1132.6</ele>
        <time>2022-05-22 14:09:03</time>
      </trkpt>
      <trkpt lat="42.32658" lon="1.34676">
        <ele>1132.8</ele>
        <time>2022-05-22 14:09:04</time>
      </trkpt>
      <trkpt lat="42.32658" lon="1.34671">
        <ele>1133</ele>
        <time>2022-05-22 14:09:05</time>
      </trkpt>
      <trkpt lat="42.32659" lon="1.34667">
        <ele>1133</ele>
        <time>2022-05-22 14:09:06</time>
      </trkpt>
      <trkpt lat="42.3266" lon="1.34662">
        <ele>1133</ele>
        <time>2022-05-22 14:09:07</time>
      </trkpt>
      <trkpt lat="42.32661" lon="1.34657">
        <ele>1133.2</ele>
        <time>2022-05-22 14:09:08</time>
      </trkpt>
      <trkpt lat="42.32662" lon="1.34652">
        <ele>1133.2</ele>
        <time>2022-05-22 14:09:09</time>
      </trkpt>
      <trkpt lat="42.32663" lon="1.34647">
        <ele>1133.2</ele>
        <time>2022-05-22 14:09:10</time>
      </trkpt>
      <trkpt lat="42.32663" lon="1.34642">
        <ele>1133.2</ele>
        <time>2022-05-22 14:09:11</time>
      </trkpt>
      <trkpt lat="42.32664" lon="1.34638">
        <ele>1133.2</ele>
        <time>2022-05-22 14:09:12</time>
      </trkpt>
      <trkpt lat="42.32664" lon="1.34633">
        <ele>1133.4</ele>
        <time>2022-05-22 14:09:13</time>
      </trkpt>
      <trkpt lat="42.32665" lon="1.34627">
        <ele>1133.4</ele>
        <time>2022-05-22 14:09:14</time>
      </trkpt>
      <trkpt lat="42.32666" lon="1.34622">
        <ele>1133.4</ele>
        <time>2022-05-22 14:09:15</time>
      </trkpt>
      <trkpt lat="42.32666" lon="1.34617">
        <ele>1133.4</ele>
        <time>2022-05-22 14:09:16</time>
      </trkpt>
      <trkpt lat="42.32666" lon="1.34612">
        <ele>1133.6</ele>
        <time>2022-05-22 14:09:17</time>
      </trkpt>
      <trkpt lat="42.32666" lon="1.34607">
        <ele>1133.6</ele>
        <time>2022-05-22 14:09:18</time>
      </trkpt>
      <trkpt lat="42.32666" lon="1.34602">
        <ele>1133.6</ele>
        <time>2022-05-22 14:09:19</time>
      </trkpt>
      <trkpt lat="42.32666" lon="1.34597">
        <ele>1133.6</ele>
        <time>2022-05-22 14:09:20</time>
      </trkpt>
      <trkpt lat="42.32665" lon="1.34593">
        <ele>1133.6</ele>
        <time>2022-05-22 14:09:21</time>
      </trkpt>
      <trkpt lat="42.32664" lon="1.34588">
        <ele>1133.6</ele>
        <time>2022-05-22 14:09:22</time>
      </trkpt>
      <trkpt lat="42.32663" lon="1.34584">
        <ele>1133.6</ele>
        <time>2022-05-22 14:09:23</time>
      </trkpt>
      <trkpt lat="42.32662" lon="1.3458">
        <ele>1133.6</ele>
        <time>2022-05-22 14:09:24</time>
      </trkpt>
      <trkpt lat="42.32662" lon="1.34576">
        <ele>1133.8</ele>
        <time>2022-05-22 14:09:25</time>
      </trkpt>
      <trkpt lat="42.32661" lon="1.34571">
        <ele>1133.8</ele>
        <time>2022-05-22 14:09:26</time>
      </trkpt>
      <trkpt lat="42.3266" lon="1.34568">
        <ele>1133.8</ele>
        <time>2022-05-22 14:09:27</time>
      </trkpt>
      <trkpt lat="42.32658" lon="1.34564">
        <ele>1134</ele>
        <time>2022-05-22 14:09:28</time>
      </trkpt>
      <trkpt lat="42.32657" lon="1.3456">
        <ele>1134</ele>
        <time>2022-05-22 14:09:29</time>
      </trkpt>
      <trkpt lat="42.32655" lon="1.34557">
        <ele>1134</ele>
        <time>2022-05-22 14:09:30</time>
      </trkpt>
      <trkpt lat="42.32654" lon="1.34553">
        <ele>1134.2</ele>
        <time>2022-05-22 14:09:31</time>
      </trkpt>
      <trkpt lat="42.32653" lon="1.3455">
        <ele>1134.2</ele>
        <time>2022-05-22 14:09:32</time>
      </trkpt>
      <trkpt lat="42.32651" lon="1.34546">
        <ele>1134.2</ele>
        <time>2022-05-22 14:09:33</time>
      </trkpt>
      <trkpt lat="42.3265" lon="1.34543">
        <ele>1134.2</ele>
        <time>2022-05-22 14:09:34</time>
      </trkpt>
      <trkpt lat="42.32649" lon="1.34539">
        <ele>1134.4</ele>
        <time>2022-05-22 14:09:35</time>
      </trkpt>
      <trkpt lat="42.32647" lon="1.34535">
        <ele>1134.4</ele>
        <time>2022-05-22 14:09:36</time>
      </trkpt>
      <trkpt lat="42.32646" lon="1.34531">
        <ele>1134.6</ele>
        <time>2022-05-22 14:09:37</time>
      </trkpt>
      <trkpt lat="42.32645" lon="1.34527">
        <ele>1134.6</ele>
        <time>2022-05-22 14:09:38</time>
      </trkpt>
      <trkpt lat="42.32644" lon="1.34522">
        <ele>1134.6</ele>
        <time>2022-05-22 14:09:39</time>
      </trkpt>
      <trkpt lat="42.32643" lon="1.34518">
        <ele>1134.8</ele>
        <time>2022-05-22 14:09:40</time>
      </trkpt>
      <trkpt lat="42.32643" lon="1.34513">
        <ele>1134.8</ele>
        <time>2022-05-22 14:09:41</time>
      </trkpt>
      <trkpt lat="42.32642" lon="1.34508">
        <ele>1135</ele>
        <time>2022-05-22 14:09:42</time>
      </trkpt>
      <trkpt lat="42.32642" lon="1.34503">
        <ele>1135</ele>
        <time>2022-05-22 14:09:43</time>
      </trkpt>
      <trkpt lat="42.32641" lon="1.34499">
        <ele>1135</ele>
        <time>2022-05-22 14:09:44</time>
      </trkpt>
      <trkpt lat="42.32641" lon="1.34494">
        <ele>1135.2</ele>
        <time>2022-05-22 14:09:45</time>
      </trkpt>
      <trkpt lat="42.3264" lon="1.3449">
        <ele>1135.2</ele>
        <time>2022-05-22 14:09:46</time>
      </trkpt>
      <trkpt lat="42.3264" lon="1.34485">
        <ele>1135.4</ele>
        <time>2022-05-22 14:09:47</time>
      </trkpt>
      <trkpt lat="42.3264" lon="1.34481">
        <ele>1135.6</ele>
        <time>2022-05-22 14:09:48</time>
      </trkpt>
      <trkpt lat="42.3264" lon="1.34477">
        <ele>1135.6</ele>
        <time>2022-05-22 14:09:49</time>
      </trkpt>
      <trkpt lat="42.3264" lon="1.34472">
        <ele>1135.8</ele>
        <time>2022-05-22 14:09:50</time>
      </trkpt>
      <trkpt lat="42.3264" lon="1.34467">
        <ele>1135.8</ele>
        <time>2022-05-22 14:09:51</time>
      </trkpt>
      <trkpt lat="42.3264" lon="1.34463">
        <ele>1136</ele>
        <time>2022-05-22 14:09:52</time>
      </trkpt>
      <trkpt lat="42.32639" lon="1.34459">
        <ele>1136.2</ele>
        <time>2022-05-22 14:09:53</time>
      </trkpt>
      <trkpt lat="42.32638" lon="1.34455">
        <ele>1136.2</ele>
        <time>2022-05-22 14:09:54</time>
      </trkpt>
      <trkpt lat="42.32637" lon="1.34451">
        <ele>1136.4</ele>
        <time>2022-05-22 14:09:55</time>
      </trkpt>
      <trkpt lat="42.32636" lon="1.34448">
        <ele>1136.4</ele>
        <time>2022-05-22 14:09:56</time>
      </trkpt>
      <trkpt lat="42.32635" lon="1.34444">
        <ele>1136.6</ele>
        <time>2022-05-22 14:09:57</time>
      </trkpt>
      <trkpt lat="42.32633" lon="1.34441">
        <ele>1136.6</ele>
        <time>2022-05-22 14:09:58</time>
      </trkpt>
      <trkpt lat="42.32631" lon="1.34438">
        <ele>1136.8</ele>
        <time>2022-05-22 14:09:59</time>
      </trkpt>
      <trkpt lat="42.32629" lon="1.34435">
        <ele>1136.8</ele>
        <time>2022-05-22 14:10:00</time>
      </trkpt>
      <trkpt lat="42.32627" lon="1.34432">
        <ele>1136.6</ele>
        <time>2022-05-22 14:10:01</time>
      </trkpt>
      <trkpt lat="42.32624" lon="1.34429">
        <ele>1136.6</ele>
        <time>2022-05-22 14:10:02</time>
      </trkpt>
      <trkpt lat="42.32621" lon="1.34427">
        <ele>1136.6</ele>
        <time>2022-05-22 14:10:03</time>
      </trkpt>
      <trkpt lat="42.32618" lon="1.34424">
        <ele>1136.8</ele>
        <time>2022-05-22 14:10:04</time>
      </trkpt>
      <trkpt lat="42.32615" lon="1.34421">
        <ele>1136.8</ele>
        <time>2022-05-22 14:10:05</time>
      </trkpt>
      <trkpt lat="42.32613" lon="1.34418">
        <ele>1136.8</ele>
        <time>2022-05-22 14:10:06</time>
      </trkpt>
      <trkpt lat="42.32609" lon="1.34414">
        <ele>1136.8</ele>
        <time>2022-05-22 14:10:07</time>
      </trkpt>
      <trkpt lat="42.32607" lon="1.34411">
        <ele>1137</ele>
        <time>2022-05-22 14:10:08</time>
      </trkpt>
      <trkpt lat="42.32604" lon="1.34409">
        <ele>1137</ele>
        <time>2022-05-22 14:10:09</time>
      </trkpt>
      <trkpt lat="42.32601" lon="1.34406">
        <ele>1137</ele>
        <time>2022-05-22 14:10:10</time>
      </trkpt>
      <trkpt lat="42.32599" lon="1.34404">
        <ele>1137</ele>
        <time>2022-05-22 14:10:11</time>
      </trkpt>
      <trkpt lat="42.32597" lon="1.34401">
        <ele>1137.2</ele>
        <time>2022-05-22 14:10:12</time>
      </trkpt>
      <trkpt lat="42.32595" lon="1.34397">
        <ele>1137.2</ele>
        <time>2022-05-22 14:10:13</time>
      </trkpt>
      <trkpt lat="42.32593" lon="1.34394">
        <ele>1137.2</ele>
        <time>2022-05-22 14:10:14</time>
      </trkpt>
      <trkpt lat="42.32591" lon="1.34391">
        <ele>1137.4</ele>
        <time>2022-05-22 14:10:15</time>
      </trkpt>
      <trkpt lat="42.3259" lon="1.34387">
        <ele>1137.4</ele>
        <time>2022-05-22 14:10:16</time>
      </trkpt>
      <trkpt lat="42.32588" lon="1.34384">
        <ele>1137.6</ele>
        <time>2022-05-22 14:10:17</time>
      </trkpt>
      <trkpt lat="42.32587" lon="1.3438">
        <ele>1137.6</ele>
        <time>2022-05-22 14:10:18</time>
      </trkpt>
      <trkpt lat="42.32585" lon="1.34377">
        <ele>1137.8</ele>
        <time>2022-05-22 14:10:19</time>
      </trkpt>
      <trkpt lat="42.32584" lon="1.34373">
        <ele>1137.8</ele>
        <time>2022-05-22 14:10:20</time>
      </trkpt>
      <trkpt lat="42.32584" lon="1.34369">
        <ele>1138</ele>
        <time>2022-05-22 14:10:21</time>
      </trkpt>
      <trkpt lat="42.32583" lon="1.34364">
        <ele>1138</ele>
        <time>2022-05-22 14:10:22</time>
      </trkpt>
      <trkpt lat="42.32582" lon="1.3436">
        <ele>1138</ele>
        <time>2022-05-22 14:10:23</time>
      </trkpt>
      <trkpt lat="42.32581" lon="1.34356">
        <ele>1138</ele>
        <time>2022-05-22 14:10:24</time>
      </trkpt>
      <trkpt lat="42.32581" lon="1.34351">
        <ele>1138.2</ele>
        <time>2022-05-22 14:10:25</time>
      </trkpt>
      <trkpt lat="42.3258" lon="1.34345">
        <ele>1138.2</ele>
        <time>2022-05-22 14:10:26</time>
      </trkpt>
      <trkpt lat="42.3258" lon="1.3434">
        <ele>1138.2</ele>
        <time>2022-05-22 14:10:27</time>
      </trkpt>
      <trkpt lat="42.3258" lon="1.34335">
        <ele>1138</ele>
        <time>2022-05-22 14:10:28</time>
      </trkpt>
      <trkpt lat="42.32579" lon="1.3433">
        <ele>1138</ele>
        <time>2022-05-22 14:10:29</time>
      </trkpt>
      <trkpt lat="42.32579" lon="1.34324">
        <ele>1138</ele>
        <time>2022-05-22 14:10:30</time>
      </trkpt>
      <trkpt lat="42.32579" lon="1.34319">
        <ele>1137.8</ele>
        <time>2022-05-22 14:10:31</time>
      </trkpt>
      <trkpt lat="42.32579" lon="1.34313">
        <ele>1137.8</ele>
        <time>2022-05-22 14:10:32</time>
      </trkpt>
      <trkpt lat="42.32579" lon="1.34308">
        <ele>1137.8</ele>
        <time>2022-05-22 14:10:33</time>
      </trkpt>
      <trkpt lat="42.32578" lon="1.34303">
        <ele>1137.8</ele>
        <time>2022-05-22 14:10:34</time>
      </trkpt>
      <trkpt lat="42.32578" lon="1.34297">
        <ele>1137.8</ele>
        <time>2022-05-22 14:10:35</time>
      </trkpt>
      <trkpt lat="42.32578" lon="1.34291">
        <ele>1137.8</ele>
        <time>2022-05-22 14:10:36</time>
      </trkpt>
      <trkpt lat="42.32578" lon="1.34285">
        <ele>1137.8</ele>
        <time>2022-05-22 14:10:37</time>
      </trkpt>
      <trkpt lat="42.32578" lon="1.34279">
        <ele>1137.8</ele>
        <time>2022-05-22 14:10:38</time>
      </trkpt>
      <trkpt lat="42.32578" lon="1.34273">
        <ele>1137.8</ele>
        <time>2022-05-22 14:10:39</time>
      </trkpt>
      <trkpt lat="42.32578" lon="1.34267">
        <ele>1137.8</ele>
        <time>2022-05-22 14:10:40</time>
      </trkpt>
      <trkpt lat="42.32578" lon="1.34262">
        <ele>1137.6</ele>
        <time>2022-05-22 14:10:41</time>
      </trkpt>
      <trkpt lat="42.32578" lon="1.34256">
        <ele>1137.6</ele>
        <time>2022-05-22 14:10:42</time>
      </trkpt>
      <trkpt lat="42.32578" lon="1.34249">
        <ele>1137.6</ele>
        <time>2022-05-22 14:10:43</time>
      </trkpt>
      <trkpt lat="42.32578" lon="1.34244">
        <ele>1137.6</ele>
        <time>2022-05-22 14:10:44</time>
      </trkpt>
      <trkpt lat="42.32578" lon="1.34238">
        <ele>1137.6</ele>
        <time>2022-05-22 14:10:45</time>
      </trkpt>
      <trkpt lat="42.32578" lon="1.34232">
        <ele>1137.6</ele>
        <time>2022-05-22 14:10:46</time>
      </trkpt>
      <trkpt lat="42.32578" lon="1.34226">
        <ele>1137.4</ele>
        <time>2022-05-22 14:10:47</time>
      </trkpt>
      <trkpt lat="42.32578" lon="1.3422">
        <ele>1137.4</ele>
        <time>2022-05-22 14:10:48</time>
      </trkpt>
      <trkpt lat="42.32578" lon="1.34214">
        <ele>1137.4</ele>
        <time>2022-05-22 14:10:49</time>
      </trkpt>
      <trkpt lat="42.32578" lon="1.34208">
        <ele>1137.2</ele>
        <time>2022-05-22 14:10:50</time>
      </trkpt>
      <trkpt lat="42.32578" lon="1.34201">
        <ele>1137.2</ele>
        <time>2022-05-22 14:10:51</time>
      </trkpt>
      <trkpt lat="42.32578" lon="1.34195">
        <ele>1137.2</ele>
        <time>2022-05-22 14:10:52</time>
      </trkpt>
      <trkpt lat="42.32578" lon="1.3419">
        <ele>1137.2</ele>
        <time>2022-05-22 14:10:53</time>
      </trkpt>
      <trkpt lat="42.32578" lon="1.34184">
        <ele>1137.2</ele>
        <time>2022-05-22 14:10:54</time>
      </trkpt>
      <trkpt lat="42.32579" lon="1.34178">
        <ele>1137.2</ele>
        <time>2022-05-22 14:10:55</time>
      </trkpt>
      <trkpt lat="42.32579" lon="1.34172">
        <ele>1137.2</ele>
        <time>2022-05-22 14:10:56</time>
      </trkpt>
      <trkpt lat="42.3258" lon="1.34167">
        <ele>1137.4</ele>
        <time>2022-05-22 14:10:57</time>
      </trkpt>
      <trkpt lat="42.32581" lon="1.34161">
        <ele>1137.4</ele>
        <time>2022-05-22 14:10:58</time>
      </trkpt>
      <trkpt lat="42.32582" lon="1.34156">
        <ele>1137.6</ele>
        <time>2022-05-22 14:10:59</time>
      </trkpt>
      <trkpt lat="42.32583" lon="1.34152">
        <ele>1137.6</ele>
        <time>2022-05-22 14:11:00</time>
      </trkpt>
      <trkpt lat="42.32584" lon="1.34147">
        <ele>1137.8</ele>
        <time>2022-05-22 14:11:01</time>
      </trkpt>
      <trkpt lat="42.32586" lon="1.34143">
        <ele>1137.8</ele>
        <time>2022-05-22 14:11:02</time>
      </trkpt>
      <trkpt lat="42.32589" lon="1.34138">
        <ele>1138</ele>
        <time>2022-05-22 14:11:03</time>
      </trkpt>
      <trkpt lat="42.32591" lon="1.34133">
        <ele>1138.2</ele>
        <time>2022-05-22 14:11:04</time>
      </trkpt>
      <trkpt lat="42.32593" lon="1.34129">
        <ele>1138.2</ele>
        <time>2022-05-22 14:11:05</time>
      </trkpt>
      <trkpt lat="42.32596" lon="1.34125">
        <ele>1138.2</ele>
        <time>2022-05-22 14:11:06</time>
      </trkpt>
      <trkpt lat="42.32598" lon="1.34122">
        <ele>1138.2</ele>
        <time>2022-05-22 14:11:07</time>
      </trkpt>
      <trkpt lat="42.32601" lon="1.34119">
        <ele>1138.4</ele>
        <time>2022-05-22 14:11:08</time>
      </trkpt>
      <trkpt lat="42.32604" lon="1.34115">
        <ele>1138.4</ele>
        <time>2022-05-22 14:11:09</time>
      </trkpt>
      <trkpt lat="42.32607" lon="1.34113">
        <ele>1138.6</ele>
        <time>2022-05-22 14:11:10</time>
      </trkpt>
      <trkpt lat="42.3261" lon="1.3411">
        <ele>1138.6</ele>
        <time>2022-05-22 14:11:11</time>
      </trkpt>
      <trkpt lat="42.32613" lon="1.34108">
        <ele>1138.8</ele>
        <time>2022-05-22 14:11:12</time>
      </trkpt>
      <trkpt lat="42.32616" lon="1.34106">
        <ele>1138.8</ele>
        <time>2022-05-22 14:11:13</time>
      </trkpt>
      <trkpt lat="42.32619" lon="1.34103">
        <ele>1139</ele>
        <time>2022-05-22 14:11:14</time>
      </trkpt>
      <trkpt lat="42.32622" lon="1.34101">
        <ele>1139</ele>
        <time>2022-05-22 14:11:15</time>
      </trkpt>
      <trkpt lat="42.32625" lon="1.34099">
        <ele>1139.2</ele>
        <time>2022-05-22 14:11:16</time>
      </trkpt>
      <trkpt lat="42.32628" lon="1.34097">
        <ele>1139.4</ele>
        <time>2022-05-22 14:11:17</time>
      </trkpt>
      <trkpt lat="42.32631" lon="1.34095">
        <ele>1139.6</ele>
        <time>2022-05-22 14:11:18</time>
      </trkpt>
      <trkpt lat="42.32634" lon="1.34094">
        <ele>1139.6</ele>
        <time>2022-05-22 14:11:19</time>
      </trkpt>
      <trkpt lat="42.32637" lon="1.34092">
        <ele>1139.8</ele>
        <time>2022-05-22 14:11:20</time>
      </trkpt>
      <trkpt lat="42.3264" lon="1.3409">
        <ele>1139.8</ele>
        <time>2022-05-22 14:11:21</time>
      </trkpt>
      <trkpt lat="42.32643" lon="1.34088">
        <ele>1140</ele>
        <time>2022-05-22 14:11:22</time>
      </trkpt>
      <trkpt lat="42.32645" lon="1.34087">
        <ele>1140</ele>
        <time>2022-05-22 14:11:23</time>
      </trkpt>
      <trkpt lat="42.32649" lon="1.34085">
        <ele>1140</ele>
        <time>2022-05-22 14:11:24</time>
      </trkpt>
      <trkpt lat="42.32652" lon="1.34084">
        <ele>1140.2</ele>
        <time>2022-05-22 14:11:25</time>
      </trkpt>
      <trkpt lat="42.32655" lon="1.34082">
        <ele>1140.2</ele>
        <time>2022-05-22 14:11:26</time>
      </trkpt>
      <trkpt lat="42.32658" lon="1.3408">
        <ele>1140.4</ele>
        <time>2022-05-22 14:11:27</time>
      </trkpt>
      <trkpt lat="42.32661" lon="1.34079">
        <ele>1140.4</ele>
        <time>2022-05-22 14:11:28</time>
      </trkpt>
      <trkpt lat="42.32664" lon="1.34077">
        <ele>1140.4</ele>
        <time>2022-05-22 14:11:29</time>
      </trkpt>
      <trkpt lat="42.32668" lon="1.34076">
        <ele>1140.6</ele>
        <time>2022-05-22 14:11:30</time>
      </trkpt>
      <trkpt lat="42.32671" lon="1.34074">
        <ele>1140.6</ele>
        <time>2022-05-22 14:11:31</time>
      </trkpt>
      <trkpt lat="42.32674" lon="1.34073">
        <ele>1140.8</ele>
        <time>2022-05-22 14:11:32</time>
      </trkpt>
      <trkpt lat="42.32677" lon="1.34071">
        <ele>1140.8</ele>
        <time>2022-05-22 14:11:33</time>
      </trkpt>
      <trkpt lat="42.3268" lon="1.3407">
        <ele>1140.8</ele>
        <time>2022-05-22 14:11:34</time>
      </trkpt>
      <trkpt lat="42.32684" lon="1.34069">
        <ele>1141</ele>
        <time>2022-05-22 14:11:35</time>
      </trkpt>
      <trkpt lat="42.32687" lon="1.34067">
        <ele>1141</ele>
        <time>2022-05-22 14:11:36</time>
      </trkpt>
      <trkpt lat="42.32691" lon="1.34066">
        <ele>1141</ele>
        <time>2022-05-22 14:11:37</time>
      </trkpt>
      <trkpt lat="42.32694" lon="1.34065">
        <ele>1141</ele>
        <time>2022-05-22 14:11:38</time>
      </trkpt>
      <trkpt lat="42.32698" lon="1.34064">
        <ele>1141</ele>
        <time>2022-05-22 14:11:39</time>
      </trkpt>
      <trkpt lat="42.32701" lon="1.34064">
        <ele>1141.2</ele>
        <time>2022-05-22 14:11:40</time>
      </trkpt>
      <trkpt lat="42.32705" lon="1.34063">
        <ele>1141.2</ele>
        <time>2022-05-22 14:11:41</time>
      </trkpt>
      <trkpt lat="42.32708" lon="1.34062">
        <ele>1141.4</ele>
        <time>2022-05-22 14:11:42</time>
      </trkpt>
      <trkpt lat="42.32711" lon="1.34062">
        <ele>1141.4</ele>
        <time>2022-05-22 14:11:43</time>
      </trkpt>
      <trkpt lat="42.32714" lon="1.34061">
        <ele>1141.6</ele>
        <time>2022-05-22 14:11:44</time>
      </trkpt>
      <trkpt lat="42.32718" lon="1.3406">
        <ele>1141.6</ele>
        <time>2022-05-22 14:11:45</time>
      </trkpt>
      <trkpt lat="42.32721" lon="1.34059">
        <ele>1141.8</ele>
        <time>2022-05-22 14:11:46</time>
      </trkpt>
      <trkpt lat="42.32724" lon="1.34059">
        <ele>1141.8</ele>
        <time>2022-05-22 14:11:47</time>
      </trkpt>
      <trkpt lat="42.32727" lon="1.34058">
        <ele>1141.8</ele>
        <time>2022-05-22 14:11:48</time>
      </trkpt>
      <trkpt lat="42.3273" lon="1.34057">
        <ele>1142</ele>
        <time>2022-05-22 14:11:49</time>
      </trkpt>
      <trkpt lat="42.32733" lon="1.34057">
        <ele>1142.2</ele>
        <time>2022-05-22 14:11:50</time>
      </trkpt>
      <trkpt lat="42.32736" lon="1.34057">
        <ele>1142.4</ele>
        <time>2022-05-22 14:11:51</time>
      </trkpt>
      <trkpt lat="42.32739" lon="1.34057">
        <ele>1142.4</ele>
        <time>2022-05-22 14:11:52</time>
      </trkpt>
      <trkpt lat="42.32742" lon="1.34057">
        <ele>1142.4</ele>
        <time>2022-05-22 14:11:53</time>
      </trkpt>
      <trkpt lat="42.32744" lon="1.34056">
        <ele>1142.6</ele>
        <time>2022-05-22 14:11:54</time>
      </trkpt>
      <trkpt lat="42.32748" lon="1.34056">
        <ele>1142.6</ele>
        <time>2022-05-22 14:11:55</time>
      </trkpt>
      <trkpt lat="42.32751" lon="1.34056">
        <ele>1142.6</ele>
        <time>2022-05-22 14:11:56</time>
      </trkpt>
      <trkpt lat="42.32755" lon="1.34055">
        <ele>1142.8</ele>
        <time>2022-05-22 14:11:57</time>
      </trkpt>
      <trkpt lat="42.32758" lon="1.34054">
        <ele>1142.8</ele>
        <time>2022-05-22 14:11:58</time>
      </trkpt>
      <trkpt lat="42.32761" lon="1.34053">
        <ele>1142.8</ele>
        <time>2022-05-22 14:11:59</time>
      </trkpt>
      <trkpt lat="42.32765" lon="1.34052">
        <ele>1143</ele>
        <time>2022-05-22 14:12:00</time>
      </trkpt>
      <trkpt lat="42.32768" lon="1.34051">
        <ele>1143</ele>
        <time>2022-05-22 14:12:01</time>
      </trkpt>
      <trkpt lat="42.32772" lon="1.34049">
        <ele>1143.2</ele>
        <time>2022-05-22 14:12:02</time>
      </trkpt>
      <trkpt lat="42.32775" lon="1.34048">
        <ele>1143.4</ele>
        <time>2022-05-22 14:12:03</time>
      </trkpt>
      <trkpt lat="42.32779" lon="1.34047">
        <ele>1143.4</ele>
        <time>2022-05-22 14:12:04</time>
      </trkpt>
      <trkpt lat="42.32782" lon="1.34046">
        <ele>1143.6</ele>
        <time>2022-05-22 14:12:05</time>
      </trkpt>
      <trkpt lat="42.32786" lon="1.34044">
        <ele>1143.6</ele>
        <time>2022-05-22 14:12:06</time>
      </trkpt>
      <trkpt lat="42.32789" lon="1.34043">
        <ele>1143.8</ele>
        <time>2022-05-22 14:12:07</time>
      </trkpt>
      <trkpt lat="42.32793" lon="1.34042">
        <ele>1143.8</ele>
        <time>2022-05-22 14:12:08</time>
      </trkpt>
      <trkpt lat="42.32796" lon="1.34041">
        <ele>1143.8</ele>
        <time>2022-05-22 14:12:09</time>
      </trkpt>
      <trkpt lat="42.32799" lon="1.3404">
        <ele>1144</ele>
        <time>2022-05-22 14:12:10</time>
      </trkpt>
      <trkpt lat="42.32803" lon="1.34039">
        <ele>1144.2</ele>
        <time>2022-05-22 14:12:11</time>
      </trkpt>
      <trkpt lat="42.32806" lon="1.34038">
        <ele>1144.2</ele>
        <time>2022-05-22 14:12:12</time>
      </trkpt>
      <trkpt lat="42.32809" lon="1.34036">
        <ele>1144.4</ele>
        <time>2022-05-22 14:12:13</time>
      </trkpt>
      <trkpt lat="42.32812" lon="1.34035">
        <ele>1144.4</ele>
        <time>2022-05-22 14:12:14</time>
      </trkpt>
      <trkpt lat="42.32815" lon="1.34033">
        <ele>1144.6</ele>
        <time>2022-05-22 14:12:15</time>
      </trkpt>
      <trkpt lat="42.32819" lon="1.34032">
        <ele>1144.8</ele>
        <time>2022-05-22 14:12:16</time>
      </trkpt>
      <trkpt lat="42.32822" lon="1.34031">
        <ele>1145</ele>
        <time>2022-05-22 14:12:17</time>
      </trkpt>
      <trkpt lat="42.32826" lon="1.3403">
        <ele>1145.2</ele>
        <time>2022-05-22 14:12:18</time>
      </trkpt>
      <trkpt lat="42.32829" lon="1.34029">
        <ele>1145.4</ele>
        <time>2022-05-22 14:12:19</time>
      </trkpt>
      <trkpt lat="42.32832" lon="1.34028">
        <ele>1145.4</ele>
        <time>2022-05-22 14:12:20</time>
      </trkpt>
      <trkpt lat="42.32836" lon="1.34027">
        <ele>1145.4</ele>
        <time>2022-05-22 14:12:21</time>
      </trkpt>
      <trkpt lat="42.32839" lon="1.34026">
        <ele>1145.6</ele>
        <time>2022-05-22 14:12:22</time>
      </trkpt>
      <trkpt lat="42.32842" lon="1.34025">
        <ele>1145.8</ele>
        <time>2022-05-22 14:12:23</time>
      </trkpt>
      <trkpt lat="42.32845" lon="1.34025">
        <ele>1145.8</ele>
        <time>2022-05-22 14:12:24</time>
      </trkpt>
      <trkpt lat="42.32849" lon="1.34024">
        <ele>1146</ele>
        <time>2022-05-22 14:12:25</time>
      </trkpt>
      <trkpt lat="42.32852" lon="1.34023">
        <ele>1146.2</ele>
        <time>2022-05-22 14:12:26</time>
      </trkpt>
      <trkpt lat="42.32855" lon="1.34022">
        <ele>1146.4</ele>
        <time>2022-05-22 14:12:27</time>
      </trkpt>
      <trkpt lat="42.32859" lon="1.34022">
        <ele>1146.4</ele>
        <time>2022-05-22 14:12:28</time>
      </trkpt>
      <trkpt lat="42.32862" lon="1.34021">
        <ele>1146.6</ele>
        <time>2022-05-22 14:12:29</time>
      </trkpt>
      <trkpt lat="42.32865" lon="1.34021">
        <ele>1146.8</ele>
        <time>2022-05-22 14:12:30</time>
      </trkpt>
      <trkpt lat="42.32869" lon="1.34021">
        <ele>1146.8</ele>
        <time>2022-05-22 14:12:31</time>
      </trkpt>
      <trkpt lat="42.32872" lon="1.34021">
        <ele>1147</ele>
        <time>2022-05-22 14:12:32</time>
      </trkpt>
      <trkpt lat="42.32876" lon="1.3402">
        <ele>1147</ele>
        <time>2022-05-22 14:12:33</time>
      </trkpt>
      <trkpt lat="42.32879" lon="1.3402">
        <ele>1147.2</ele>
        <time>2022-05-22 14:12:34</time>
      </trkpt>
      <trkpt lat="42.32883" lon="1.3402">
        <ele>1147.2</ele>
        <time>2022-05-22 14:12:35</time>
      </trkpt>
      <trkpt lat="42.32886" lon="1.3402">
        <ele>1147.4</ele>
        <time>2022-05-22 14:12:36</time>
      </trkpt>
      <trkpt lat="42.3289" lon="1.3402">
        <ele>1147.4</ele>
        <time>2022-05-22 14:12:37</time>
      </trkpt>
      <trkpt lat="42.32893" lon="1.34021">
        <ele>1147.6</ele>
        <time>2022-05-22 14:12:38</time>
      </trkpt>
      <trkpt lat="42.32897" lon="1.34021">
        <ele>1147.8</ele>
        <time>2022-05-22 14:12:39</time>
      </trkpt>
      <trkpt lat="42.329" lon="1.34022">
        <ele>1148</ele>
        <time>2022-05-22 14:12:40</time>
      </trkpt>
      <trkpt lat="42.32904" lon="1.34022">
        <ele>1148.2</ele>
        <time>2022-05-22 14:12:41</time>
      </trkpt>
      <trkpt lat="42.32907" lon="1.34022">
        <ele>1148.2</ele>
        <time>2022-05-22 14:12:42</time>
      </trkpt>
      <trkpt lat="42.32911" lon="1.34023">
        <ele>1148.4</ele>
        <time>2022-05-22 14:12:43</time>
      </trkpt>
      <trkpt lat="42.32914" lon="1.34023">
        <ele>1148.6</ele>
        <time>2022-05-22 14:12:44</time>
      </trkpt>
      <trkpt lat="42.32917" lon="1.34024">
        <ele>1148.8</ele>
        <time>2022-05-22 14:12:45</time>
      </trkpt>
      <trkpt lat="42.3292" lon="1.34025">
        <ele>1149</ele>
        <time>2022-05-22 14:12:46</time>
      </trkpt>
      <trkpt lat="42.32922" lon="1.34026">
        <ele>1149.2</ele>
        <time>2022-05-22 14:12:47</time>
      </trkpt>
      <trkpt lat="42.32925" lon="1.34026">
        <ele>1149.6</ele>
        <time>2022-05-22 14:12:48</time>
      </trkpt>
      <trkpt lat="42.32928" lon="1.34027">
        <ele>1149.8</ele>
        <time>2022-05-22 14:12:49</time>
      </trkpt>
      <trkpt lat="42.32931" lon="1.34028">
        <ele>1150</ele>
        <time>2022-05-22 14:12:50</time>
      </trkpt>
      <trkpt lat="42.32933" lon="1.34028">
        <ele>1150</ele>
        <time>2022-05-22 14:12:51</time>
      </trkpt>
      <trkpt lat="42.32936" lon="1.34029">
        <ele>1150.2</ele>
        <time>2022-05-22 14:12:52</time>
      </trkpt>
      <trkpt lat="42.32938" lon="1.34029">
        <ele>1150.4</ele>
        <time>2022-05-22 14:12:53</time>
      </trkpt>
      <trkpt lat="42.32941" lon="1.34029">
        <ele>1150.6</ele>
        <time>2022-05-22 14:12:54</time>
      </trkpt>
      <trkpt lat="42.32944" lon="1.3403">
        <ele>1150.6</ele>
        <time>2022-05-22 14:12:55</time>
      </trkpt>
      <trkpt lat="42.32946" lon="1.3403">
        <ele>1150.8</ele>
        <time>2022-05-22 14:12:56</time>
      </trkpt>
      <trkpt lat="42.32949" lon="1.34031">
        <ele>1150.8</ele>
        <time>2022-05-22 14:12:57</time>
      </trkpt>
      <trkpt lat="42.32952" lon="1.34031">
        <ele>1151</ele>
        <time>2022-05-22 14:12:58</time>
      </trkpt>
      <trkpt lat="42.32955" lon="1.34031">
        <ele>1151</ele>
        <time>2022-05-22 14:12:59</time>
      </trkpt>
      <trkpt lat="42.32958" lon="1.34031">
        <ele>1151.2</ele>
        <time>2022-05-22 14:13:00</time>
      </trkpt>
      <trkpt lat="42.3296" lon="1.34031">
        <ele>1151.2</ele>
        <time>2022-05-22 14:13:01</time>
      </trkpt>
      <trkpt lat="42.32964" lon="1.34032">
        <ele>1151.4</ele>
        <time>2022-05-22 14:13:02</time>
      </trkpt>
      <trkpt lat="42.32967" lon="1.34032">
        <ele>1151.6</ele>
        <time>2022-05-22 14:13:03</time>
      </trkpt>
      <trkpt lat="42.3297" lon="1.34032">
        <ele>1151.8</ele>
        <time>2022-05-22 14:13:04</time>
      </trkpt>
      <trkpt lat="42.32972" lon="1.34032">
        <ele>1151.8</ele>
        <time>2022-05-22 14:13:05</time>
      </trkpt>
      <trkpt lat="42.32976" lon="1.34032">
        <ele>1152</ele>
        <time>2022-05-22 14:13:06</time>
      </trkpt>
      <trkpt lat="42.32979" lon="1.34033">
        <ele>1152</ele>
        <time>2022-05-22 14:13:07</time>
      </trkpt>
      <trkpt lat="42.32981" lon="1.34032">
        <ele>1152</ele>
        <time>2022-05-22 14:13:08</time>
      </trkpt>
      <trkpt lat="42.32984" lon="1.34032">
        <ele>1152.2</ele>
        <time>2022-05-22 14:13:09</time>
      </trkpt>
      <trkpt lat="42.32987" lon="1.34032">
        <ele>1152.2</ele>
        <time>2022-05-22 14:13:10</time>
      </trkpt>
      <trkpt lat="42.3299" lon="1.34032">
        <ele>1152.2</ele>
        <time>2022-05-22 14:13:11</time>
      </trkpt>
      <trkpt lat="42.32993" lon="1.34032">
        <ele>1152.2</ele>
        <time>2022-05-22 14:13:12</time>
      </trkpt>
      <trkpt lat="42.32996" lon="1.34031">
        <ele>1152.4</ele>
        <time>2022-05-22 14:13:13</time>
      </trkpt>
      <trkpt lat="42.32999" lon="1.34031">
        <ele>1152.4</ele>
        <time>2022-05-22 14:13:14</time>
      </trkpt>
      <trkpt lat="42.33002" lon="1.34031">
        <ele>1152.6</ele>
        <time>2022-05-22 14:13:15</time>
      </trkpt>
      <trkpt lat="42.33004" lon="1.34031">
        <ele>1152.8</ele>
        <time>2022-05-22 14:13:16</time>
      </trkpt>
      <trkpt lat="42.33007" lon="1.34031">
        <ele>1152.8</ele>
        <time>2022-05-22 14:13:17</time>
      </trkpt>
      <trkpt lat="42.3301" lon="1.3403">
        <ele>1153</ele>
        <time>2022-05-22 14:13:18</time>
      </trkpt>
      <trkpt lat="42.33013" lon="1.3403">
        <ele>1153</ele>
        <time>2022-05-22 14:13:19</time>
      </trkpt>
      <trkpt lat="42.33015" lon="1.34029">
        <ele>1153.2</ele>
        <time>2022-05-22 14:13:20</time>
      </trkpt>
      <trkpt lat="42.33019" lon="1.34029">
        <ele>1153.4</ele>
        <time>2022-05-22 14:13:21</time>
      </trkpt>
      <trkpt lat="42.33021" lon="1.34028">
        <ele>1153.4</ele>
        <time>2022-05-22 14:13:22</time>
      </trkpt>
      <trkpt lat="42.33024" lon="1.34028">
        <ele>1153.6</ele>
        <time>2022-05-22 14:13:23</time>
      </trkpt>
      <trkpt lat="42.33026" lon="1.34027">
        <ele>1153.6</ele>
        <time>2022-05-22 14:13:24</time>
      </trkpt>
      <trkpt lat="42.33029" lon="1.34026">
        <ele>1153.8</ele>
        <time>2022-05-22 14:13:25</time>
      </trkpt>
      <trkpt lat="42.33032" lon="1.34026">
        <ele>1154</ele>
        <time>2022-05-22 14:13:26</time>
      </trkpt>
      <trkpt lat="42.33035" lon="1.34025">
        <ele>1154</ele>
        <time>2022-05-22 14:13:27</time>
      </trkpt>
      <trkpt lat="42.33038" lon="1.34025">
        <ele>1154.2</ele>
        <time>2022-05-22 14:13:28</time>
      </trkpt>
      <trkpt lat="42.33041" lon="1.34025">
        <ele>1154.2</ele>
        <time>2022-05-22 14:13:29</time>
      </trkpt>
      <trkpt lat="42.33044" lon="1.34026">
        <ele>1154.4</ele>
        <time>2022-05-22 14:13:30</time>
      </trkpt>
      <trkpt lat="42.33046" lon="1.34027">
        <ele>1154.6</ele>
        <time>2022-05-22 14:13:31</time>
      </trkpt>
      <trkpt lat="42.33049" lon="1.34027">
        <ele>1154.6</ele>
        <time>2022-05-22 14:13:32</time>
      </trkpt>
      <trkpt lat="42.33052" lon="1.34028">
        <ele>1154.8</ele>
        <time>2022-05-22 14:13:33</time>
      </trkpt>
      <trkpt lat="42.33055" lon="1.34029">
        <ele>1155</ele>
        <time>2022-05-22 14:13:34</time>
      </trkpt>
      <trkpt lat="42.33058" lon="1.34029">
        <ele>1155.2</ele>
        <time>2022-05-22 14:13:35</time>
      </trkpt>
      <trkpt lat="42.33061" lon="1.3403">
        <ele>1155.4</ele>
        <time>2022-05-22 14:13:36</time>
      </trkpt>
      <trkpt lat="42.33064" lon="1.34032">
        <ele>1155.6</ele>
        <time>2022-05-22 14:13:37</time>
      </trkpt>
      <trkpt lat="42.33067" lon="1.34033">
        <ele>1155.8</ele>
        <time>2022-05-22 14:13:38</time>
      </trkpt>
      <trkpt lat="42.33069" lon="1.34035">
        <ele>1156</ele>
        <time>2022-05-22 14:13:39</time>
      </trkpt>
      <trkpt lat="42.33072" lon="1.34036">
        <ele>1156.2</ele>
        <time>2022-05-22 14:13:40</time>
      </trkpt>
      <trkpt lat="42.33075" lon="1.34038">
        <ele>1156.4</ele>
        <time>2022-05-22 14:13:41</time>
      </trkpt>
      <trkpt lat="42.33077" lon="1.34039">
        <ele>1156.8</ele>
        <time>2022-05-22 14:13:42</time>
      </trkpt>
      <trkpt lat="42.33079" lon="1.34041">
        <ele>1157</ele>
        <time>2022-05-22 14:13:43</time>
      </trkpt>
      <trkpt lat="42.33082" lon="1.34042">
        <ele>1157.2</ele>
        <time>2022-05-22 14:13:44</time>
      </trkpt>
      <trkpt lat="42.33084" lon="1.34044">
        <ele>1157.6</ele>
        <time>2022-05-22 14:13:45</time>
      </trkpt>
      <trkpt lat="42.33086" lon="1.34045">
        <ele>1157.8</ele>
        <time>2022-05-22 14:13:46</time>
      </trkpt>
      <trkpt lat="42.33088" lon="1.34047">
        <ele>1158</ele>
        <time>2022-05-22 14:13:47</time>
      </trkpt>
      <trkpt lat="42.33091" lon="1.34049">
        <ele>1158.2</ele>
        <time>2022-05-22 14:13:48</time>
      </trkpt>
      <trkpt lat="42.33093" lon="1.34051">
        <ele>1158.4</ele>
        <time>2022-05-22 14:13:49</time>
      </trkpt>
      <trkpt lat="42.33096" lon="1.34053">
        <ele>1158.6</ele>
        <time>2022-05-22 14:13:50</time>
      </trkpt>
      <trkpt lat="42.33099" lon="1.34054">
        <ele>1158.8</ele>
        <time>2022-05-22 14:13:51</time>
      </trkpt>
      <trkpt lat="42.33101" lon="1.34056">
        <ele>1158.8</ele>
        <time>2022-05-22 14:13:52</time>
      </trkpt>
      <trkpt lat="42.33104" lon="1.34058">
        <ele>1158.8</ele>
        <time>2022-05-22 14:13:53</time>
      </trkpt>
      <trkpt lat="42.33107" lon="1.34059">
        <ele>1159</ele>
        <time>2022-05-22 14:13:54</time>
      </trkpt>
      <trkpt lat="42.3311" lon="1.3406">
        <ele>1159</ele>
        <time>2022-05-22 14:13:55</time>
      </trkpt>
      <trkpt lat="42.33112" lon="1.34061">
        <ele>1159.2</ele>
        <time>2022-05-22 14:13:56</time>
      </trkpt>
      <trkpt lat="42.33115" lon="1.34062">
        <ele>1159.4</ele>
        <time>2022-05-22 14:13:57</time>
      </trkpt>
      <trkpt lat="42.33118" lon="1.34063">
        <ele>1159.6</ele>
        <time>2022-05-22 14:13:58</time>
      </trkpt>
      <trkpt lat="42.33121" lon="1.34064">
        <ele>1159.8</ele>
        <time>2022-05-22 14:13:59</time>
      </trkpt>
      <trkpt lat="42.33124" lon="1.34064">
        <ele>1160</ele>
        <time>2022-05-22 14:14:00</time>
      </trkpt>
      <trkpt lat="42.33127" lon="1.34065">
        <ele>1160.2</ele>
        <time>2022-05-22 14:14:01</time>
      </trkpt>
      <trkpt lat="42.33129" lon="1.34065">
        <ele>1160.4</ele>
        <time>2022-05-22 14:14:02</time>
      </trkpt>
      <trkpt lat="42.33132" lon="1.34065">
        <ele>1160.4</ele>
        <time>2022-05-22 14:14:03</time>
      </trkpt>
      <trkpt lat="42.33136" lon="1.34065">
        <ele>1160.6</ele>
        <time>2022-05-22 14:14:04</time>
      </trkpt>
      <trkpt lat="42.33139" lon="1.34065">
        <ele>1160.6</ele>
        <time>2022-05-22 14:14:05</time>
      </trkpt>
      <trkpt lat="42.33141" lon="1.34064">
        <ele>1160.8</ele>
        <time>2022-05-22 14:14:06</time>
      </trkpt>
      <trkpt lat="42.33146" lon="1.34063">
        <ele>1161</ele>
        <time>2022-05-22 14:14:07</time>
      </trkpt>
      <trkpt lat="42.33149" lon="1.34063">
        <ele>1161.2</ele>
        <time>2022-05-22 14:14:08</time>
      </trkpt>
      <trkpt lat="42.33152" lon="1.34062">
        <ele>1161.2</ele>
        <time>2022-05-22 14:14:09</time>
      </trkpt>
      <trkpt lat="42.33155" lon="1.34061">
        <ele>1161.4</ele>
        <time>2022-05-22 14:14:10</time>
      </trkpt>
      <trkpt lat="42.33159" lon="1.34061">
        <ele>1161.6</ele>
        <time>2022-05-22 14:14:11</time>
      </trkpt>
      <trkpt lat="42.33162" lon="1.3406">
        <ele>1161.8</ele>
        <time>2022-05-22 14:14:12</time>
      </trkpt>
      <trkpt lat="42.33165" lon="1.3406">
        <ele>1161.8</ele>
        <time>2022-05-22 14:14:13</time>
      </trkpt>
      <trkpt lat="42.33167" lon="1.34059">
        <ele>1162</ele>
        <time>2022-05-22 14:14:14</time>
      </trkpt>
      <trkpt lat="42.3317" lon="1.34059">
        <ele>1162.2</ele>
        <time>2022-05-22 14:14:15</time>
      </trkpt>
      <trkpt lat="42.33173" lon="1.34058">
        <ele>1162.4</ele>
        <time>2022-05-22 14:14:16</time>
      </trkpt>
      <trkpt lat="42.33176" lon="1.34058">
        <ele>1162.6</ele>
        <time>2022-05-22 14:14:17</time>
      </trkpt>
      <trkpt lat="42.33179" lon="1.34057">
        <ele>1162.8</ele>
        <time>2022-05-22 14:14:18</time>
      </trkpt>
      <trkpt lat="42.33182" lon="1.34056">
        <ele>1162.8</ele>
        <time>2022-05-22 14:14:19</time>
      </trkpt>
      <trkpt lat="42.33185" lon="1.34055">
        <ele>1163</ele>
        <time>2022-05-22 14:14:20</time>
      </trkpt>
      <trkpt lat="42.33188" lon="1.34054">
        <ele>1163.2</ele>
        <time>2022-05-22 14:14:21</time>
      </trkpt>
      <trkpt lat="42.33191" lon="1.34054">
        <ele>1163.2</ele>
        <time>2022-05-22 14:14:22</time>
      </trkpt>
      <trkpt lat="42.33194" lon="1.34053">
        <ele>1163.4</ele>
        <time>2022-05-22 14:14:23</time>
      </trkpt>
      <trkpt lat="42.33197" lon="1.34052">
        <ele>1163.4</ele>
        <time>2022-05-22 14:14:24</time>
      </trkpt>
      <trkpt lat="42.332" lon="1.34052">
        <ele>1163.6</ele>
        <time>2022-05-22 14:14:25</time>
      </trkpt>
      <trkpt lat="42.33204" lon="1.34051">
        <ele>1163.8</ele>
        <time>2022-05-22 14:14:26</time>
      </trkpt>
      <trkpt lat="42.33207" lon="1.3405">
        <ele>1163.8</ele>
        <time>2022-05-22 14:14:27</time>
      </trkpt>
      <trkpt lat="42.3321" lon="1.34049">
        <ele>1164</ele>
        <time>2022-05-22 14:14:28</time>
      </trkpt>
      <trkpt lat="42.33214" lon="1.34048">
        <ele>1164</ele>
        <time>2022-05-22 14:14:29</time>
      </trkpt>
      <trkpt lat="42.33217" lon="1.34047">
        <ele>1164.2</ele>
        <time>2022-05-22 14:14:30</time>
      </trkpt>
      <trkpt lat="42.3322" lon="1.34046">
        <ele>1164.4</ele>
        <time>2022-05-22 14:14:31</time>
      </trkpt>
      <trkpt lat="42.33223" lon="1.34046">
        <ele>1164.4</ele>
        <time>2022-05-22 14:14:32</time>
      </trkpt>
      <trkpt lat="42.33226" lon="1.34045">
        <ele>1164.6</ele>
        <time>2022-05-22 14:14:33</time>
      </trkpt>
      <trkpt lat="42.33229" lon="1.34044">
        <ele>1164.8</ele>
        <time>2022-05-22 14:14:34</time>
      </trkpt>
      <trkpt lat="42.33232" lon="1.34044">
        <ele>1165</ele>
        <time>2022-05-22 14:14:35</time>
      </trkpt>
      <trkpt lat="42.33234" lon="1.34043">
        <ele>1165.2</ele>
        <time>2022-05-22 14:14:36</time>
      </trkpt>
      <trkpt lat="42.33237" lon="1.34042">
        <ele>1165.4</ele>
        <time>2022-05-22 14:14:37</time>
      </trkpt>
      <trkpt lat="42.3324" lon="1.34041">
        <ele>1165.4</ele>
        <time>2022-05-22 14:14:38</time>
      </trkpt>
      <trkpt lat="42.33242" lon="1.3404">
        <ele>1165.6</ele>
        <time>2022-05-22 14:14:39</time>
      </trkpt>
      <trkpt lat="42.33245" lon="1.34039">
        <ele>1165.8</ele>
        <time>2022-05-22 14:14:40</time>
      </trkpt>
      <trkpt lat="42.33247" lon="1.34038">
        <ele>1166</ele>
        <time>2022-05-22 14:14:41</time>
      </trkpt>
      <trkpt lat="42.33249" lon="1.34037">
        <ele>1166.2</ele>
        <time>2022-05-22 14:14:42</time>
      </trkpt>
      <trkpt lat="42.33252" lon="1.34035">
        <ele>1166.4</ele>
        <time>2022-05-22 14:14:43</time>
      </trkpt>
      <trkpt lat="42.33254" lon="1.34033">
        <ele>1166.4</ele>
        <time>2022-05-22 14:14:44</time>
      </trkpt>
      <trkpt lat="42.33257" lon="1.34032">
        <ele>1166.6</ele>
        <time>2022-05-22 14:14:45</time>
      </trkpt>
      <trkpt lat="42.33259" lon="1.3403">
        <ele>1166.8</ele>
        <time>2022-05-22 14:14:46</time>
      </trkpt>
      <trkpt lat="42.33261" lon="1.34029">
        <ele>1167</ele>
        <time>2022-05-22 14:14:47</time>
      </trkpt>
      <trkpt lat="42.33263" lon="1.34026">
        <ele>1167.2</ele>
        <time>2022-05-22 14:14:48</time>
      </trkpt>
      <trkpt lat="42.33265" lon="1.34023">
        <ele>1167.2</ele>
        <time>2022-05-22 14:14:49</time>
      </trkpt>
      <trkpt lat="42.33267" lon="1.3402">
        <ele>1167.4</ele>
        <time>2022-05-22 14:14:50</time>
      </trkpt>
      <trkpt lat="42.33268" lon="1.34018">
        <ele>1167.6</ele>
        <time>2022-05-22 14:14:51</time>
      </trkpt>
      <trkpt lat="42.3327" lon="1.34015">
        <ele>1167.6</ele>
        <time>2022-05-22 14:14:52</time>
      </trkpt>
      <trkpt lat="42.33272" lon="1.34012">
        <ele>1167.8</ele>
        <time>2022-05-22 14:14:53</time>
      </trkpt>
      <trkpt lat="42.33274" lon="1.3401">
        <ele>1168</ele>
        <time>2022-05-22 14:14:54</time>
      </trkpt>
      <trkpt lat="42.33276" lon="1.34008">
        <ele>1168.2</ele>
        <time>2022-05-22 14:14:55</time>
      </trkpt>
      <trkpt lat="42.33278" lon="1.34005">
        <ele>1168.2</ele>
        <time>2022-05-22 14:14:56</time>
      </trkpt>
      <trkpt lat="42.3328" lon="1.34002">
        <ele>1168.4</ele>
        <time>2022-05-22 14:14:57</time>
      </trkpt>
      <trkpt lat="42.33281" lon="1.33999">
        <ele>1168.4</ele>
        <time>2022-05-22 14:14:58</time>
      </trkpt>
      <trkpt lat="42.33283" lon="1.33996">
        <ele>1168.6</ele>
        <time>2022-05-22 14:14:59</time>
      </trkpt>
      <trkpt lat="42.33284" lon="1.33994">
        <ele>1168.8</ele>
        <time>2022-05-22 14:15:00</time>
      </trkpt>
      <trkpt lat="42.33286" lon="1.33991">
        <ele>1168.8</ele>
        <time>2022-05-22 14:15:01</time>
      </trkpt>
      <trkpt lat="42.33288" lon="1.33988">
        <ele>1169</ele>
        <time>2022-05-22 14:15:02</time>
      </trkpt>
      <trkpt lat="42.3329" lon="1.33986">
        <ele>1169.4</ele>
        <time>2022-05-22 14:15:03</time>
      </trkpt>
      <trkpt lat="42.33292" lon="1.33983">
        <ele>1169.4</ele>
        <time>2022-05-22 14:15:04</time>
      </trkpt>
      <trkpt lat="42.33295" lon="1.33981">
        <ele>1169.6</ele>
        <time>2022-05-22 14:15:05</time>
      </trkpt>
      <trkpt lat="42.33297" lon="1.33978">
        <ele>1169.8</ele>
        <time>2022-05-22 14:15:06</time>
      </trkpt>
      <trkpt lat="42.333" lon="1.33976">
        <ele>1169.8</ele>
        <time>2022-05-22 14:15:07</time>
      </trkpt>
      <trkpt lat="42.33303" lon="1.33974">
        <ele>1170</ele>
        <time>2022-05-22 14:15:08</time>
      </trkpt>
      <trkpt lat="42.33306" lon="1.33972">
        <ele>1170</ele>
        <time>2022-05-22 14:15:09</time>
      </trkpt>
      <trkpt lat="42.33309" lon="1.3397">
        <ele>1170.2</ele>
        <time>2022-05-22 14:15:10</time>
      </trkpt>
      <trkpt lat="42.33311" lon="1.33968">
        <ele>1170.4</ele>
        <time>2022-05-22 14:15:11</time>
      </trkpt>
      <trkpt lat="42.33314" lon="1.33967">
        <ele>1170.4</ele>
        <time>2022-05-22 14:15:12</time>
      </trkpt>
      <trkpt lat="42.33317" lon="1.33966">
        <ele>1170.6</ele>
        <time>2022-05-22 14:15:13</time>
      </trkpt>
      <trkpt lat="42.33319" lon="1.33965">
        <ele>1170.8</ele>
        <time>2022-05-22 14:15:14</time>
      </trkpt>
      <trkpt lat="42.33322" lon="1.33965">
        <ele>1171</ele>
        <time>2022-05-22 14:15:15</time>
      </trkpt>
      <trkpt lat="42.33325" lon="1.33964">
        <ele>1171.2</ele>
        <time>2022-05-22 14:15:16</time>
      </trkpt>
      <trkpt lat="42.33327" lon="1.33964">
        <ele>1171.6</ele>
        <time>2022-05-22 14:15:17</time>
      </trkpt>
      <trkpt lat="42.3333" lon="1.33964">
        <ele>1171.8</ele>
        <time>2022-05-22 14:15:18</time>
      </trkpt>
      <trkpt lat="42.33332" lon="1.33965">
        <ele>1172</ele>
        <time>2022-05-22 14:15:19</time>
      </trkpt>
      <trkpt lat="42.33335" lon="1.33965">
        <ele>1172</ele>
        <time>2022-05-22 14:15:20</time>
      </trkpt>
      <trkpt lat="42.33338" lon="1.33966">
        <ele>1172.2</ele>
        <time>2022-05-22 14:15:21</time>
      </trkpt>
      <trkpt lat="42.33341" lon="1.33967">
        <ele>1172.4</ele>
        <time>2022-05-22 14:15:22</time>
      </trkpt>
      <trkpt lat="42.33344" lon="1.33969">
        <ele>1172.6</ele>
        <time>2022-05-22 14:15:23</time>
      </trkpt>
      <trkpt lat="42.33347" lon="1.33971">
        <ele>1172.8</ele>
        <time>2022-05-22 14:15:24</time>
      </trkpt>
      <trkpt lat="42.33349" lon="1.33973">
        <ele>1173</ele>
        <time>2022-05-22 14:15:25</time>
      </trkpt>
      <trkpt lat="42.33352" lon="1.33976">
        <ele>1173</ele>
        <time>2022-05-22 14:15:26</time>
      </trkpt>
      <trkpt lat="42.33354" lon="1.33978">
        <ele>1173.2</ele>
        <time>2022-05-22 14:15:27</time>
      </trkpt>
      <trkpt lat="42.33357" lon="1.33981">
        <ele>1173.6</ele>
        <time>2022-05-22 14:15:28</time>
      </trkpt>
      <trkpt lat="42.33359" lon="1.33984">
        <ele>1173.8</ele>
        <time>2022-05-22 14:15:29</time>
      </trkpt>
      <trkpt lat="42.33361" lon="1.33986">
        <ele>1174</ele>
        <time>2022-05-22 14:15:30</time>
      </trkpt>
      <trkpt lat="42.33362" lon="1.33989">
        <ele>1174.2</ele>
        <time>2022-05-22 14:15:31</time>
      </trkpt>
      <trkpt lat="42.33364" lon="1.33992">
        <ele>1174.4</ele>
        <time>2022-05-22 14:15:32</time>
      </trkpt>
      <trkpt lat="42.33366" lon="1.33996">
        <ele>1174.6</ele>
        <time>2022-05-22 14:15:33</time>
      </trkpt>
      <trkpt lat="42.33368" lon="1.33999">
        <ele>1174.8</ele>
        <time>2022-05-22 14:15:34</time>
      </trkpt>
      <trkpt lat="42.33369" lon="1.34002">
        <ele>1175</ele>
        <time>2022-05-22 14:15:35</time>
      </trkpt>
      <trkpt lat="42.33371" lon="1.34006">
        <ele>1175.2</ele>
        <time>2022-05-22 14:15:36</time>
      </trkpt>
      <trkpt lat="42.33372" lon="1.3401">
        <ele>1175.4</ele>
        <time>2022-05-22 14:15:37</time>
      </trkpt>
      <trkpt lat="42.33373" lon="1.34013">
        <ele>1175.6</ele>
        <time>2022-05-22 14:15:38</time>
      </trkpt>
      <trkpt lat="42.33375" lon="1.34016">
        <ele>1176</ele>
        <time>2022-05-22 14:15:39</time>
      </trkpt>
      <trkpt lat="42.33376" lon="1.34019">
        <ele>1176.2</ele>
        <time>2022-05-22 14:15:40</time>
      </trkpt>
      <trkpt lat="42.33377" lon="1.34023">
        <ele>1176.4</ele>
        <time>2022-05-22 14:15:41</time>
      </trkpt>
      <trkpt lat="42.33379" lon="1.34026">
        <ele>1176.6</ele>
        <time>2022-05-22 14:15:42</time>
      </trkpt>
      <trkpt lat="42.3338" lon="1.34029">
        <ele>1176.8</ele>
        <time>2022-05-22 14:15:43</time>
      </trkpt>
      <trkpt lat="42.33382" lon="1.34033">
        <ele>1177</ele>
        <time>2022-05-22 14:15:44</time>
      </trkpt>
      <trkpt lat="42.33383" lon="1.34036">
        <ele>1177.2</ele>
        <time>2022-05-22 14:15:45</time>
      </trkpt>
      <trkpt lat="42.33385" lon="1.34039">
        <ele>1177.4</ele>
        <time>2022-05-22 14:15:46</time>
      </trkpt>
      <trkpt lat="42.33387" lon="1.34041">
        <ele>1177.6</ele>
        <time>2022-05-22 14:15:47</time>
      </trkpt>
      <trkpt lat="42.3339" lon="1.34044">
        <ele>1177.8</ele>
        <time>2022-05-22 14:15:48</time>
      </trkpt>
      <trkpt lat="42.33392" lon="1.34046">
        <ele>1178</ele>
        <time>2022-05-22 14:15:49</time>
      </trkpt>
      <trkpt lat="42.33395" lon="1.34048">
        <ele>1178.2</ele>
        <time>2022-05-22 14:15:50</time>
      </trkpt>
      <trkpt lat="42.33397" lon="1.3405">
        <ele>1178.4</ele>
        <time>2022-05-22 14:15:51</time>
      </trkpt>
      <trkpt lat="42.334" lon="1.34052">
        <ele>1178.4</ele>
        <time>2022-05-22 14:15:52</time>
      </trkpt>
      <trkpt lat="42.33403" lon="1.34053">
        <ele>1178.6</ele>
        <time>2022-05-22 14:15:53</time>
      </trkpt>
      <trkpt lat="42.33407" lon="1.34053">
        <ele>1178.8</ele>
        <time>2022-05-22 14:15:54</time>
      </trkpt>
      <trkpt lat="42.3341" lon="1.34054">
        <ele>1178.8</ele>
        <time>2022-05-22 14:15:55</time>
      </trkpt>
      <trkpt lat="42.33414" lon="1.34054">
        <ele>1179</ele>
        <time>2022-05-22 14:15:56</time>
      </trkpt>
      <trkpt lat="42.33417" lon="1.34054">
        <ele>1179.2</ele>
        <time>2022-05-22 14:15:57</time>
      </trkpt>
      <trkpt lat="42.3342" lon="1.34054">
        <ele>1179.4</ele>
        <time>2022-05-22 14:15:58</time>
      </trkpt>
      <trkpt lat="42.33423" lon="1.34053">
        <ele>1179.4</ele>
        <time>2022-05-22 14:15:59</time>
      </trkpt>
      <trkpt lat="42.33425" lon="1.34052">
        <ele>1179.6</ele>
        <time>2022-05-22 14:16:00</time>
      </trkpt>
      <trkpt lat="42.33428" lon="1.34051">
        <ele>1179.6</ele>
        <time>2022-05-22 14:16:01</time>
      </trkpt>
      <trkpt lat="42.33431" lon="1.3405">
        <ele>1179.8</ele>
        <time>2022-05-22 14:16:02</time>
      </trkpt>
      <trkpt lat="42.33433" lon="1.34048">
        <ele>1180</ele>
        <time>2022-05-22 14:16:03</time>
      </trkpt>
      <trkpt lat="42.33436" lon="1.34046">
        <ele>1180</ele>
        <time>2022-05-22 14:16:04</time>
      </trkpt>
      <trkpt lat="42.33439" lon="1.34043">
        <ele>1180.2</ele>
        <time>2022-05-22 14:16:05</time>
      </trkpt>
      <trkpt lat="42.33441" lon="1.3404">
        <ele>1180.2</ele>
        <time>2022-05-22 14:16:06</time>
      </trkpt>
      <trkpt lat="42.33443" lon="1.34037">
        <ele>1180.2</ele>
        <time>2022-05-22 14:16:07</time>
      </trkpt>
      <trkpt lat="42.33445" lon="1.34034">
        <ele>1180.2</ele>
        <time>2022-05-22 14:16:08</time>
      </trkpt>
      <trkpt lat="42.33447" lon="1.34031">
        <ele>1180.4</ele>
        <time>2022-05-22 14:16:09</time>
      </trkpt>
      <trkpt lat="42.3345" lon="1.34028">
        <ele>1180.4</ele>
        <time>2022-05-22 14:16:10</time>
      </trkpt>
      <trkpt lat="42.33452" lon="1.34025">
        <ele>1180.4</ele>
        <time>2022-05-22 14:16:11</time>
      </trkpt>
      <trkpt lat="42.33454" lon="1.34022">
        <ele>1180.2</ele>
        <time>2022-05-22 14:16:12</time>
      </trkpt>
      <trkpt lat="42.33457" lon="1.34019">
        <ele>1180.2</ele>
        <time>2022-05-22 14:16:13</time>
      </trkpt>
      <trkpt lat="42.33459" lon="1.34017">
        <ele>1180</ele>
        <time>2022-05-22 14:16:14</time>
      </trkpt>
      <trkpt lat="42.33461" lon="1.34014">
        <ele>1180.2</ele>
        <time>2022-05-22 14:16:15</time>
      </trkpt>
      <trkpt lat="42.33463" lon="1.34011">
        <ele>1180.4</ele>
        <time>2022-05-22 14:16:16</time>
      </trkpt>
      <trkpt lat="42.33466" lon="1.34009">
        <ele>1180.4</ele>
        <time>2022-05-22 14:16:17</time>
      </trkpt>
      <trkpt lat="42.33469" lon="1.34007">
        <ele>1180.6</ele>
        <time>2022-05-22 14:16:18</time>
      </trkpt>
      <trkpt lat="42.33473" lon="1.34005">
        <ele>1180.6</ele>
        <time>2022-05-22 14:16:19</time>
      </trkpt>
      <trkpt lat="42.33476" lon="1.34003">
        <ele>1180.8</ele>
        <time>2022-05-22 14:16:20</time>
      </trkpt>
      <trkpt lat="42.33479" lon="1.34002">
        <ele>1180.8</ele>
        <time>2022-05-22 14:16:21</time>
      </trkpt>
      <trkpt lat="42.33483" lon="1.34002">
        <ele>1180.8</ele>
        <time>2022-05-22 14:16:22</time>
      </trkpt>
      <trkpt lat="42.33486" lon="1.34002">
        <ele>1181</ele>
        <time>2022-05-22 14:16:23</time>
      </trkpt>
      <trkpt lat="42.3349" lon="1.34001">
        <ele>1181</ele>
        <time>2022-05-22 14:16:24</time>
      </trkpt>
      <trkpt lat="42.33493" lon="1.34001">
        <ele>1181.2</ele>
        <time>2022-05-22 14:16:25</time>
      </trkpt>
      <trkpt lat="42.33496" lon="1.34002">
        <ele>1181.4</ele>
        <time>2022-05-22 14:16:26</time>
      </trkpt>
      <trkpt lat="42.335" lon="1.34002">
        <ele>1181.4</ele>
        <time>2022-05-22 14:16:27</time>
      </trkpt>
      <trkpt lat="42.33503" lon="1.34002">
        <ele>1181.6</ele>
        <time>2022-05-22 14:16:28</time>
      </trkpt>
      <trkpt lat="42.33506" lon="1.34002">
        <ele>1181.6</ele>
        <time>2022-05-22 14:16:29</time>
      </trkpt>
      <trkpt lat="42.33509" lon="1.34003">
        <ele>1181.8</ele>
        <time>2022-05-22 14:16:30</time>
      </trkpt>
      <trkpt lat="42.33512" lon="1.34004">
        <ele>1181.8</ele>
        <time>2022-05-22 14:16:31</time>
      </trkpt>
      <trkpt lat="42.33515" lon="1.34006">
        <ele>1181.8</ele>
        <time>2022-05-22 14:16:32</time>
      </trkpt>
      <trkpt lat="42.33518" lon="1.34007">
        <ele>1181.8</ele>
        <time>2022-05-22 14:16:33</time>
      </trkpt>
      <trkpt lat="42.33522" lon="1.34009">
        <ele>1181.8</ele>
        <time>2022-05-22 14:16:34</time>
      </trkpt>
      <trkpt lat="42.33525" lon="1.3401">
        <ele>1182</ele>
        <time>2022-05-22 14:16:35</time>
      </trkpt>
      <trkpt lat="42.33528" lon="1.34011">
        <ele>1182</ele>
        <time>2022-05-22 14:16:36</time>
      </trkpt>
      <trkpt lat="42.33531" lon="1.34011">
        <ele>1182.2</ele>
        <time>2022-05-22 14:16:37</time>
      </trkpt>
      <trkpt lat="42.33534" lon="1.34011">
        <ele>1182.2</ele>
        <time>2022-05-22 14:16:38</time>
      </trkpt>
      <trkpt lat="42.33537" lon="1.34011">
        <ele>1182.4</ele>
        <time>2022-05-22 14:16:39</time>
      </trkpt>
      <trkpt lat="42.3354" lon="1.34011">
        <ele>1182.4</ele>
        <time>2022-05-22 14:16:40</time>
      </trkpt>
      <trkpt lat="42.33543" lon="1.34011">
        <ele>1182.6</ele>
        <time>2022-05-22 14:16:41</time>
      </trkpt>
      <trkpt lat="42.33546" lon="1.34009">
        <ele>1182.6</ele>
        <time>2022-05-22 14:16:42</time>
      </trkpt>
      <trkpt lat="42.33549" lon="1.34007">
        <ele>1182.6</ele>
        <time>2022-05-22 14:16:43</time>
      </trkpt>
      <trkpt lat="42.33552" lon="1.34004">
        <ele>1182.8</ele>
        <time>2022-05-22 14:16:44</time>
      </trkpt>
      <trkpt lat="42.33554" lon="1.34002">
        <ele>1182.8</ele>
        <time>2022-05-22 14:16:45</time>
      </trkpt>
      <trkpt lat="42.33557" lon="1.33998">
        <ele>1182.8</ele>
        <time>2022-05-22 14:16:46</time>
      </trkpt>
      <trkpt lat="42.3356" lon="1.33995">
        <ele>1182.8</ele>
        <time>2022-05-22 14:16:47</time>
      </trkpt>
      <trkpt lat="42.33562" lon="1.33991">
        <ele>1182.8</ele>
        <time>2022-05-22 14:16:48</time>
      </trkpt>
      <trkpt lat="42.33565" lon="1.33987">
        <ele>1182.8</ele>
        <time>2022-05-22 14:16:49</time>
      </trkpt>
      <trkpt lat="42.33568" lon="1.33984">
        <ele>1182.8</ele>
        <time>2022-05-22 14:16:50</time>
      </trkpt>
      <trkpt lat="42.33571" lon="1.33981">
        <ele>1182.8</ele>
        <time>2022-05-22 14:16:51</time>
      </trkpt>
      <trkpt lat="42.33574" lon="1.33978">
        <ele>1183</ele>
        <time>2022-05-22 14:16:52</time>
      </trkpt>
      <trkpt lat="42.33577" lon="1.33976">
        <ele>1183</ele>
        <time>2022-05-22 14:16:53</time>
      </trkpt>
      <trkpt lat="42.33581" lon="1.33974">
        <ele>1183</ele>
        <time>2022-05-22 14:16:54</time>
      </trkpt>
      <trkpt lat="42.33584" lon="1.33973">
        <ele>1183</ele>
        <time>2022-05-22 14:16:55</time>
      </trkpt>
      <trkpt lat="42.33588" lon="1.33971">
        <ele>1183</ele>
        <time>2022-05-22 14:16:56</time>
      </trkpt>
      <trkpt lat="42.33592" lon="1.3397">
        <ele>1183.2</ele>
        <time>2022-05-22 14:16:57</time>
      </trkpt>
      <trkpt lat="42.33595" lon="1.33969">
        <ele>1183.2</ele>
        <time>2022-05-22 14:16:58</time>
      </trkpt>
      <trkpt lat="42.33599" lon="1.33969">
        <ele>1183.2</ele>
        <time>2022-05-22 14:16:59</time>
      </trkpt>
      <trkpt lat="42.33603" lon="1.3397">
        <ele>1183.4</ele>
        <time>2022-05-22 14:17:00</time>
      </trkpt>
      <trkpt lat="42.33606" lon="1.3397">
        <ele>1183.4</ele>
        <time>2022-05-22 14:17:01</time>
      </trkpt>
      <trkpt lat="42.33609" lon="1.3397">
        <ele>1183.6</ele>
        <time>2022-05-22 14:17:02</time>
      </trkpt>
      <trkpt lat="42.33612" lon="1.33971">
        <ele>1183.8</ele>
        <time>2022-05-22 14:17:03</time>
      </trkpt>
      <trkpt lat="42.33615" lon="1.33971">
        <ele>1183.8</ele>
        <time>2022-05-22 14:17:04</time>
      </trkpt>
      <trkpt lat="42.33618" lon="1.33972">
        <ele>1184</ele>
        <time>2022-05-22 14:17:05</time>
      </trkpt>
      <trkpt lat="42.33621" lon="1.33973">
        <ele>1184</ele>
        <time>2022-05-22 14:17:06</time>
      </trkpt>
      <trkpt lat="42.33623" lon="1.33974">
        <ele>1184.2</ele>
        <time>2022-05-22 14:17:07</time>
      </trkpt>
      <trkpt lat="42.33626" lon="1.33975">
        <ele>1184.2</ele>
        <time>2022-05-22 14:17:08</time>
      </trkpt>
      <trkpt lat="42.33629" lon="1.33976">
        <ele>1184.4</ele>
        <time>2022-05-22 14:17:09</time>
      </trkpt>
      <trkpt lat="42.33631" lon="1.33976">
        <ele>1184.6</ele>
        <time>2022-05-22 14:17:10</time>
      </trkpt>
      <trkpt lat="42.33633" lon="1.33975">
        <ele>1184.6</ele>
        <time>2022-05-22 14:17:11</time>
      </trkpt>
      <trkpt lat="42.33636" lon="1.33975">
        <ele>1184.8</ele>
        <time>2022-05-22 14:17:12</time>
      </trkpt>
      <trkpt lat="42.33639" lon="1.33974">
        <ele>1184.8</ele>
        <time>2022-05-22 14:17:13</time>
      </trkpt>
      <trkpt lat="42.33642" lon="1.33972">
        <ele>1184.8</ele>
        <time>2022-05-22 14:17:14</time>
      </trkpt>
      <trkpt lat="42.33645" lon="1.3397">
        <ele>1184.8</ele>
        <time>2022-05-22 14:17:15</time>
      </trkpt>
      <trkpt lat="42.33648" lon="1.33966">
        <ele>1185</ele>
        <time>2022-05-22 14:17:16</time>
      </trkpt>
      <trkpt lat="42.3365" lon="1.33962">
        <ele>1185</ele>
        <time>2022-05-22 14:17:17</time>
      </trkpt>
      <trkpt lat="42.33651" lon="1.33957">
        <ele>1185</ele>
        <time>2022-05-22 14:17:18</time>
      </trkpt>
      <trkpt lat="42.33652" lon="1.33953">
        <ele>1185.2</ele>
        <time>2022-05-22 14:17:19</time>
      </trkpt>
      <trkpt lat="42.33653" lon="1.3395">
        <ele>1185.2</ele>
        <time>2022-05-22 14:17:20</time>
      </trkpt>
      <trkpt lat="42.33654" lon="1.33941">
        <ele>1185.4</ele>
        <time>2022-05-22 14:17:21</time>
      </trkpt>
      <trkpt lat="42.33654" lon="1.33936">
        <ele>1185.6</ele>
        <time>2022-05-22 14:17:22</time>
      </trkpt>
      <trkpt lat="42.33655" lon="1.33932">
        <ele>1185.6</ele>
        <time>2022-05-22 14:17:23</time>
      </trkpt>
      <trkpt lat="42.33655" lon="1.33928">
        <ele>1185.8</ele>
        <time>2022-05-22 14:17:24</time>
      </trkpt>
      <trkpt lat="42.33656" lon="1.33922">
        <ele>1185.8</ele>
        <time>2022-05-22 14:17:25</time>
      </trkpt>
      <trkpt lat="42.33657" lon="1.33917">
        <ele>1186</ele>
        <time>2022-05-22 14:17:26</time>
      </trkpt>
      <trkpt lat="42.33657" lon="1.33912">
        <ele>1186.2</ele>
        <time>2022-05-22 14:17:27</time>
      </trkpt>
      <trkpt lat="42.33658" lon="1.33907">
        <ele>1186.2</ele>
        <time>2022-05-22 14:17:28</time>
      </trkpt>
      <trkpt lat="42.33659" lon="1.33903">
        <ele>1186.2</ele>
        <time>2022-05-22 14:17:29</time>
      </trkpt>
      <trkpt lat="42.3366" lon="1.33899">
        <ele>1186.2</ele>
        <time>2022-05-22 14:17:30</time>
      </trkpt>
      <trkpt lat="42.33661" lon="1.33893">
        <ele>1186.2</ele>
        <time>2022-05-22 14:17:31</time>
      </trkpt>
      <trkpt lat="42.33663" lon="1.33889">
        <ele>1186.2</ele>
        <time>2022-05-22 14:17:32</time>
      </trkpt>
      <trkpt lat="42.33664" lon="1.33885">
        <ele>1186.2</ele>
        <time>2022-05-22 14:17:33</time>
      </trkpt>
      <trkpt lat="42.33665" lon="1.33881">
        <ele>1186.2</ele>
        <time>2022-05-22 14:17:34</time>
      </trkpt>
      <trkpt lat="42.33666" lon="1.33876">
        <ele>1186.4</ele>
        <time>2022-05-22 14:17:35</time>
      </trkpt>
      <trkpt lat="42.33668" lon="1.33872">
        <ele>1186.6</ele>
        <time>2022-05-22 14:17:36</time>
      </trkpt>
      <trkpt lat="42.3367" lon="1.33868">
        <ele>1186.6</ele>
        <time>2022-05-22 14:17:37</time>
      </trkpt>
      <trkpt lat="42.33672" lon="1.33864">
        <ele>1186.6</ele>
        <time>2022-05-22 14:17:38</time>
      </trkpt>
      <trkpt lat="42.33674" lon="1.33861">
        <ele>1186.8</ele>
        <time>2022-05-22 14:17:39</time>
      </trkpt>
      <trkpt lat="42.33677" lon="1.33857">
        <ele>1186.8</ele>
        <time>2022-05-22 14:17:40</time>
      </trkpt>
      <trkpt lat="42.3368" lon="1.33853">
        <ele>1186.8</ele>
        <time>2022-05-22 14:17:41</time>
      </trkpt>
      <trkpt lat="42.33682" lon="1.3385">
        <ele>1186.8</ele>
        <time>2022-05-22 14:17:42</time>
      </trkpt>
      <trkpt lat="42.33686" lon="1.33846">
        <ele>1187</ele>
        <time>2022-05-22 14:17:43</time>
      </trkpt>
      <trkpt lat="42.33688" lon="1.33843">
        <ele>1187</ele>
        <time>2022-05-22 14:17:44</time>
      </trkpt>
      <trkpt lat="42.33691" lon="1.3384">
        <ele>1187</ele>
        <time>2022-05-22 14:17:45</time>
      </trkpt>
      <trkpt lat="42.33695" lon="1.33837">
        <ele>1187.2</ele>
        <time>2022-05-22 14:17:46</time>
      </trkpt>
      <trkpt lat="42.33698" lon="1.33834">
        <ele>1187.2</ele>
        <time>2022-05-22 14:17:47</time>
      </trkpt>
      <trkpt lat="42.33701" lon="1.33831">
        <ele>1187.2</ele>
        <time>2022-05-22 14:17:48</time>
      </trkpt>
      <trkpt lat="42.33705" lon="1.33828">
        <ele>1187.4</ele>
        <time>2022-05-22 14:17:49</time>
      </trkpt>
      <trkpt lat="42.33708" lon="1.33825">
        <ele>1187.4</ele>
        <time>2022-05-22 14:17:50</time>
      </trkpt>
      <trkpt lat="42.33712" lon="1.33822">
        <ele>1187.4</ele>
        <time>2022-05-22 14:17:51</time>
      </trkpt>
      <trkpt lat="42.33715" lon="1.33819">
        <ele>1187.4</ele>
        <time>2022-05-22 14:17:52</time>
      </trkpt>
      <trkpt lat="42.33718" lon="1.33816">
        <ele>1187.4</ele>
        <time>2022-05-22 14:17:53</time>
      </trkpt>
      <trkpt lat="42.33721" lon="1.33813">
        <ele>1187.4</ele>
        <time>2022-05-22 14:17:54</time>
      </trkpt>
      <trkpt lat="42.33724" lon="1.33811">
        <ele>1187.4</ele>
        <time>2022-05-22 14:17:55</time>
      </trkpt>
      <trkpt lat="42.33727" lon="1.33807">
        <ele>1187.6</ele>
        <time>2022-05-22 14:17:56</time>
      </trkpt>
      <trkpt lat="42.33731" lon="1.33803">
        <ele>1187.6</ele>
        <time>2022-05-22 14:17:57</time>
      </trkpt>
      <trkpt lat="42.33734" lon="1.338">
        <ele>1187.6</ele>
        <time>2022-05-22 14:17:58</time>
      </trkpt>
      <trkpt lat="42.33736" lon="1.33797">
        <ele>1187.6</ele>
        <time>2022-05-22 14:17:59</time>
      </trkpt>
      <trkpt lat="42.3374" lon="1.33793">
        <ele>1187.8</ele>
        <time>2022-05-22 14:18:00</time>
      </trkpt>
      <trkpt lat="42.33743" lon="1.3379">
        <ele>1187.8</ele>
        <time>2022-05-22 14:18:01</time>
      </trkpt>
      <trkpt lat="42.33746" lon="1.33787">
        <ele>1188</ele>
        <time>2022-05-22 14:18:02</time>
      </trkpt>
      <trkpt lat="42.33749" lon="1.33783">
        <ele>1188</ele>
        <time>2022-05-22 14:18:03</time>
      </trkpt>
      <trkpt lat="42.33752" lon="1.3378">
        <ele>1188</ele>
        <time>2022-05-22 14:18:04</time>
      </trkpt>
      <trkpt lat="42.33755" lon="1.33778">
        <ele>1188.2</ele>
        <time>2022-05-22 14:18:05</time>
      </trkpt>
      <trkpt lat="42.33759" lon="1.33774">
        <ele>1188.2</ele>
        <time>2022-05-22 14:18:06</time>
      </trkpt>
      <trkpt lat="42.33762" lon="1.33772">
        <ele>1188.2</ele>
        <time>2022-05-22 14:18:07</time>
      </trkpt>
      <trkpt lat="42.33764" lon="1.33769">
        <ele>1188.2</ele>
        <time>2022-05-22 14:18:08</time>
      </trkpt>
      <trkpt lat="42.33768" lon="1.33765">
        <ele>1188.4</ele>
        <time>2022-05-22 14:18:09</time>
      </trkpt>
      <trkpt lat="42.33771" lon="1.33762">
        <ele>1188.4</ele>
        <time>2022-05-22 14:18:10</time>
      </trkpt>
      <trkpt lat="42.33774" lon="1.33759">
        <ele>1188.6</ele>
        <time>2022-05-22 14:18:11</time>
      </trkpt>
      <trkpt lat="42.33778" lon="1.33756">
        <ele>1188.6</ele>
        <time>2022-05-22 14:18:12</time>
      </trkpt>
      <trkpt lat="42.33782" lon="1.33753">
        <ele>1188.8</ele>
        <time>2022-05-22 14:18:13</time>
      </trkpt>
      <trkpt lat="42.33785" lon="1.3375">
        <ele>1188.8</ele>
        <time>2022-05-22 14:18:14</time>
      </trkpt>
      <trkpt lat="42.33789" lon="1.33747">
        <ele>1188.8</ele>
        <time>2022-05-22 14:18:15</time>
      </trkpt>
      <trkpt lat="42.33792" lon="1.33744">
        <ele>1189</ele>
        <time>2022-05-22 14:18:16</time>
      </trkpt>
      <trkpt lat="42.33795" lon="1.33741">
        <ele>1189</ele>
        <time>2022-05-22 14:18:17</time>
      </trkpt>
      <trkpt lat="42.33798" lon="1.33738">
        <ele>1189.2</ele>
        <time>2022-05-22 14:18:18</time>
      </trkpt>
      <trkpt lat="42.33801" lon="1.33735">
        <ele>1189.2</ele>
        <time>2022-05-22 14:18:19</time>
      </trkpt>
      <trkpt lat="42.33805" lon="1.33733">
        <ele>1189.4</ele>
        <time>2022-05-22 14:18:20</time>
      </trkpt>
      <trkpt lat="42.33808" lon="1.3373">
        <ele>1189.4</ele>
        <time>2022-05-22 14:18:21</time>
      </trkpt>
      <trkpt lat="42.33811" lon="1.33727">
        <ele>1189.6</ele>
        <time>2022-05-22 14:18:22</time>
      </trkpt>
      <trkpt lat="42.33815" lon="1.33725">
        <ele>1189.6</ele>
        <time>2022-05-22 14:18:23</time>
      </trkpt>
      <trkpt lat="42.33818" lon="1.33723">
        <ele>1189.8</ele>
        <time>2022-05-22 14:18:24</time>
      </trkpt>
      <trkpt lat="42.33822" lon="1.33721">
        <ele>1189.8</ele>
        <time>2022-05-22 14:18:25</time>
      </trkpt>
      <trkpt lat="42.33825" lon="1.33718">
        <ele>1190</ele>
        <time>2022-05-22 14:18:26</time>
      </trkpt>
      <trkpt lat="42.33829" lon="1.33716">
        <ele>1190</ele>
        <time>2022-05-22 14:18:27</time>
      </trkpt>
      <trkpt lat="42.33832" lon="1.33714">
        <ele>1190.2</ele>
        <time>2022-05-22 14:18:28</time>
      </trkpt>
      <trkpt lat="42.33835" lon="1.33713">
        <ele>1190.2</ele>
        <time>2022-05-22 14:18:29</time>
      </trkpt>
      <trkpt lat="42.33839" lon="1.33711">
        <ele>1190.2</ele>
        <time>2022-05-22 14:18:30</time>
      </trkpt>
      <trkpt lat="42.33843" lon="1.33709">
        <ele>1190.2</ele>
        <time>2022-05-22 14:18:31</time>
      </trkpt>
      <trkpt lat="42.33847" lon="1.33707">
        <ele>1190.4</ele>
        <time>2022-05-22 14:18:32</time>
      </trkpt>
      <trkpt lat="42.3385" lon="1.33705">
        <ele>1190.4</ele>
        <time>2022-05-22 14:18:33</time>
      </trkpt>
      <trkpt lat="42.33854" lon="1.33703">
        <ele>1190.4</ele>
        <time>2022-05-22 14:18:34</time>
      </trkpt>
      <trkpt lat="42.33858" lon="1.33702">
        <ele>1190.4</ele>
        <time>2022-05-22 14:18:35</time>
      </trkpt>
      <trkpt lat="42.33862" lon="1.337">
        <ele>1190.4</ele>
        <time>2022-05-22 14:18:36</time>
      </trkpt>
      <trkpt lat="42.33866" lon="1.33699">
        <ele>1190.4</ele>
        <time>2022-05-22 14:18:37</time>
      </trkpt>
      <trkpt lat="42.33869" lon="1.33697">
        <ele>1190.6</ele>
        <time>2022-05-22 14:18:38</time>
      </trkpt>
      <trkpt lat="42.33873" lon="1.33696">
        <ele>1190.6</ele>
        <time>2022-05-22 14:18:39</time>
      </trkpt>
      <trkpt lat="42.33876" lon="1.33695">
        <ele>1190.6</ele>
        <time>2022-05-22 14:18:40</time>
      </trkpt>
      <trkpt lat="42.3388" lon="1.33694">
        <ele>1190.6</ele>
        <time>2022-05-22 14:18:41</time>
      </trkpt>
      <trkpt lat="42.33883" lon="1.33693">
        <ele>1190.8</ele>
        <time>2022-05-22 14:18:42</time>
      </trkpt>
      <trkpt lat="42.33887" lon="1.33692">
        <ele>1190.8</ele>
        <time>2022-05-22 14:18:43</time>
      </trkpt>
      <trkpt lat="42.33891" lon="1.33691">
        <ele>1191</ele>
        <time>2022-05-22 14:18:44</time>
      </trkpt>
      <trkpt lat="42.33894" lon="1.33691">
        <ele>1191</ele>
        <time>2022-05-22 14:18:45</time>
      </trkpt>
      <trkpt lat="42.33898" lon="1.3369">
        <ele>1191.2</ele>
        <time>2022-05-22 14:18:46</time>
      </trkpt>
      <trkpt lat="42.33901" lon="1.33689">
        <ele>1191.2</ele>
        <time>2022-05-22 14:18:47</time>
      </trkpt>
      <trkpt lat="42.33904" lon="1.33688">
        <ele>1191.2</ele>
        <time>2022-05-22 14:18:48</time>
      </trkpt>
      <trkpt lat="42.33907" lon="1.33687">
        <ele>1191.4</ele>
        <time>2022-05-22 14:18:49</time>
      </trkpt>
      <trkpt lat="42.3391" lon="1.33685">
        <ele>1191.4</ele>
        <time>2022-05-22 14:18:50</time>
      </trkpt>
      <trkpt lat="42.33913" lon="1.33684">
        <ele>1191.6</ele>
        <time>2022-05-22 14:18:51</time>
      </trkpt>
      <trkpt lat="42.33916" lon="1.33682">
        <ele>1191.6</ele>
        <time>2022-05-22 14:18:52</time>
      </trkpt>
      <trkpt lat="42.33918" lon="1.3368">
        <ele>1191.6</ele>
        <time>2022-05-22 14:18:53</time>
      </trkpt>
      <trkpt lat="42.33921" lon="1.33678">
        <ele>1191.6</ele>
        <time>2022-05-22 14:18:54</time>
      </trkpt>
      <trkpt lat="42.33924" lon="1.33675">
        <ele>1191.8</ele>
        <time>2022-05-22 14:18:55</time>
      </trkpt>
      <trkpt lat="42.33926" lon="1.33672">
        <ele>1191.8</ele>
        <time>2022-05-22 14:18:56</time>
      </trkpt>
      <trkpt lat="42.33929" lon="1.33669">
        <ele>1192</ele>
        <time>2022-05-22 14:18:57</time>
      </trkpt>
      <trkpt lat="42.33931" lon="1.33666">
        <ele>1192</ele>
        <time>2022-05-22 14:18:58</time>
      </trkpt>
      <trkpt lat="42.33934" lon="1.33663">
        <ele>1192.2</ele>
        <time>2022-05-22 14:18:59</time>
      </trkpt>
      <trkpt lat="42.33936" lon="1.3366">
        <ele>1192.4</ele>
        <time>2022-05-22 14:19:00</time>
      </trkpt>
      <trkpt lat="42.33938" lon="1.33657">
        <ele>1192.4</ele>
        <time>2022-05-22 14:19:01</time>
      </trkpt>
      <trkpt lat="42.33941" lon="1.33654">
        <ele>1192.6</ele>
        <time>2022-05-22 14:19:02</time>
      </trkpt>
      <trkpt lat="42.33943" lon="1.33651">
        <ele>1192.8</ele>
        <time>2022-05-22 14:19:03</time>
      </trkpt>
      <trkpt lat="42.33945" lon="1.33648">
        <ele>1192.8</ele>
        <time>2022-05-22 14:19:04</time>
      </trkpt>
      <trkpt lat="42.33947" lon="1.33645">
        <ele>1193</ele>
        <time>2022-05-22 14:19:05</time>
      </trkpt>
      <trkpt lat="42.33949" lon="1.33642">
        <ele>1193.2</ele>
        <time>2022-05-22 14:19:06</time>
      </trkpt>
      <trkpt lat="42.33951" lon="1.33639">
        <ele>1193.2</ele>
        <time>2022-05-22 14:19:07</time>
      </trkpt>
      <trkpt lat="42.33952" lon="1.33636">
        <ele>1193.4</ele>
        <time>2022-05-22 14:19:08</time>
      </trkpt>
      <trkpt lat="42.33954" lon="1.33632">
        <ele>1193.4</ele>
        <time>2022-05-22 14:19:09</time>
      </trkpt>
      <trkpt lat="42.33956" lon="1.33629">
        <ele>1193.6</ele>
        <time>2022-05-22 14:19:10</time>
      </trkpt>
      <trkpt lat="42.33958" lon="1.33625">
        <ele>1193.6</ele>
        <time>2022-05-22 14:19:11</time>
      </trkpt>
      <trkpt lat="42.3396" lon="1.33622">
        <ele>1193.6</ele>
        <time>2022-05-22 14:19:12</time>
      </trkpt>
      <trkpt lat="42.33962" lon="1.33618">
        <ele>1193.8</ele>
        <time>2022-05-22 14:19:13</time>
      </trkpt>
      <trkpt lat="42.33964" lon="1.33614">
        <ele>1193.8</ele>
        <time>2022-05-22 14:19:14</time>
      </trkpt>
      <trkpt lat="42.33966" lon="1.3361">
        <ele>1194</ele>
        <time>2022-05-22 14:19:15</time>
      </trkpt>
      <trkpt lat="42.33968" lon="1.33606">
        <ele>1194.2</ele>
        <time>2022-05-22 14:19:16</time>
      </trkpt>
      <trkpt lat="42.33971" lon="1.33603">
        <ele>1194.2</ele>
        <time>2022-05-22 14:19:17</time>
      </trkpt>
      <trkpt lat="42.33973" lon="1.33599">
        <ele>1194.4</ele>
        <time>2022-05-22 14:19:18</time>
      </trkpt>
      <trkpt lat="42.33976" lon="1.33595">
        <ele>1194.6</ele>
        <time>2022-05-22 14:19:19</time>
      </trkpt>
      <trkpt lat="42.33978" lon="1.33592">
        <ele>1194.8</ele>
        <time>2022-05-22 14:19:20</time>
      </trkpt>
      <trkpt lat="42.3398" lon="1.33589">
        <ele>1194.8</ele>
        <time>2022-05-22 14:19:21</time>
      </trkpt>
      <trkpt lat="42.33983" lon="1.33586">
        <ele>1195</ele>
        <time>2022-05-22 14:19:22</time>
      </trkpt>
      <trkpt lat="42.33986" lon="1.33583">
        <ele>1195.2</ele>
        <time>2022-05-22 14:19:23</time>
      </trkpt>
      <trkpt lat="42.33988" lon="1.3358">
        <ele>1195.4</ele>
        <time>2022-05-22 14:19:24</time>
      </trkpt>
      <trkpt lat="42.33991" lon="1.33577">
        <ele>1195.4</ele>
        <time>2022-05-22 14:19:25</time>
      </trkpt>
      <trkpt lat="42.33994" lon="1.33575">
        <ele>1195.6</ele>
        <time>2022-05-22 14:19:26</time>
      </trkpt>
      <trkpt lat="42.33997" lon="1.33572">
        <ele>1195.6</ele>
        <time>2022-05-22 14:19:27</time>
      </trkpt>
      <trkpt lat="42.34" lon="1.3357">
        <ele>1195.8</ele>
        <time>2022-05-22 14:19:28</time>
      </trkpt>
      <trkpt lat="42.34003" lon="1.33567">
        <ele>1195.8</ele>
        <time>2022-05-22 14:19:29</time>
      </trkpt>
      <trkpt lat="42.34006" lon="1.33565">
        <ele>1196</ele>
        <time>2022-05-22 14:19:30</time>
      </trkpt>
      <trkpt lat="42.34008" lon="1.33562">
        <ele>1196.2</ele>
        <time>2022-05-22 14:19:31</time>
      </trkpt>
      <trkpt lat="42.34011" lon="1.3356">
        <ele>1196.2</ele>
        <time>2022-05-22 14:19:32</time>
      </trkpt>
      <trkpt lat="42.34013" lon="1.33557">
        <ele>1196.4</ele>
        <time>2022-05-22 14:19:33</time>
      </trkpt>
      <trkpt lat="42.34015" lon="1.33555">
        <ele>1196.6</ele>
        <time>2022-05-22 14:19:34</time>
      </trkpt>
      <trkpt lat="42.34018" lon="1.33553">
        <ele>1196.8</ele>
        <time>2022-05-22 14:19:35</time>
      </trkpt>
      <trkpt lat="42.3402" lon="1.33551">
        <ele>1197</ele>
        <time>2022-05-22 14:19:36</time>
      </trkpt>
      <trkpt lat="42.34022" lon="1.33549">
        <ele>1197.2</ele>
        <time>2022-05-22 14:19:37</time>
      </trkpt>
      <trkpt lat="42.34024" lon="1.33547">
        <ele>1197.2</ele>
        <time>2022-05-22 14:19:38</time>
      </trkpt>
      <trkpt lat="42.34027" lon="1.33544">
        <ele>1197.4</ele>
        <time>2022-05-22 14:19:39</time>
      </trkpt>
      <trkpt lat="42.34029" lon="1.33541">
        <ele>1197.6</ele>
        <time>2022-05-22 14:19:40</time>
      </trkpt>
      <trkpt lat="42.34032" lon="1.33539">
        <ele>1197.6</ele>
        <time>2022-05-22 14:19:41</time>
      </trkpt>
      <trkpt lat="42.34034" lon="1.33536">
        <ele>1197.8</ele>
        <time>2022-05-22 14:19:42</time>
      </trkpt>
      <trkpt lat="42.34037" lon="1.33533">
        <ele>1197.8</ele>
        <time>2022-05-22 14:19:43</time>
      </trkpt>
      <trkpt lat="42.34039" lon="1.3353">
        <ele>1197.8</ele>
        <time>2022-05-22 14:19:44</time>
      </trkpt>
      <trkpt lat="42.34041" lon="1.33527">
        <ele>1198</ele>
        <time>2022-05-22 14:19:45</time>
      </trkpt>
      <trkpt lat="42.34043" lon="1.33524">
        <ele>1198</ele>
        <time>2022-05-22 14:19:46</time>
      </trkpt>
      <trkpt lat="42.34045" lon="1.3352">
        <ele>1198</ele>
        <time>2022-05-22 14:19:47</time>
      </trkpt>
      <trkpt lat="42.34047" lon="1.33517">
        <ele>1198.2</ele>
        <time>2022-05-22 14:19:48</time>
      </trkpt>
      <trkpt lat="42.3405" lon="1.33513">
        <ele>1198.2</ele>
        <time>2022-05-22 14:19:49</time>
      </trkpt>
      <trkpt lat="42.34052" lon="1.3351">
        <ele>1198.2</ele>
        <time>2022-05-22 14:19:50</time>
      </trkpt>
      <trkpt lat="42.34053" lon="1.33506">
        <ele>1198.4</ele>
        <time>2022-05-22 14:19:51</time>
      </trkpt>
      <trkpt lat="42.34055" lon="1.33503">
        <ele>1198.4</ele>
        <time>2022-05-22 14:19:52</time>
      </trkpt>
      <trkpt lat="42.34057" lon="1.335">
        <ele>1198.4</ele>
        <time>2022-05-22 14:19:53</time>
      </trkpt>
      <trkpt lat="42.34059" lon="1.33497">
        <ele>1198.6</ele>
        <time>2022-05-22 14:19:54</time>
      </trkpt>
      <trkpt lat="42.34061" lon="1.33493">
        <ele>1198.6</ele>
        <time>2022-05-22 14:19:55</time>
      </trkpt>
      <trkpt lat="42.34062" lon="1.33489">
        <ele>1198.6</ele>
        <time>2022-05-22 14:19:56</time>
      </trkpt>
      <trkpt lat="42.34063" lon="1.33485">
        <ele>1198.6</ele>
        <time>2022-05-22 14:19:57</time>
      </trkpt>
      <trkpt lat="42.34065" lon="1.33481">
        <ele>1198.6</ele>
        <time>2022-05-22 14:19:58</time>
      </trkpt>
      <trkpt lat="42.34066" lon="1.33477">
        <ele>1198.6</ele>
        <time>2022-05-22 14:19:59</time>
      </trkpt>
      <trkpt lat="42.34068" lon="1.33473">
        <ele>1198.6</ele>
        <time>2022-05-22 14:20:00</time>
      </trkpt>
      <trkpt lat="42.3407" lon="1.33469">
        <ele>1198.6</ele>
        <time>2022-05-22 14:20:01</time>
      </trkpt>
      <trkpt lat="42.34071" lon="1.33465">
        <ele>1198.6</ele>
        <time>2022-05-22 14:20:02</time>
      </trkpt>
      <trkpt lat="42.34073" lon="1.33461">
        <ele>1198.6</ele>
        <time>2022-05-22 14:20:03</time>
      </trkpt>
      <trkpt lat="42.34075" lon="1.33456">
        <ele>1198.6</ele>
        <time>2022-05-22 14:20:04</time>
      </trkpt>
      <trkpt lat="42.34076" lon="1.33452">
        <ele>1198.6</ele>
        <time>2022-05-22 14:20:05</time>
      </trkpt>
      <trkpt lat="42.34078" lon="1.33447">
        <ele>1198.6</ele>
        <time>2022-05-22 14:20:06</time>
      </trkpt>
      <trkpt lat="42.3408" lon="1.33443">
        <ele>1198.8</ele>
        <time>2022-05-22 14:20:07</time>
      </trkpt>
      <trkpt lat="42.34081" lon="1.33439">
        <ele>1198.8</ele>
        <time>2022-05-22 14:20:08</time>
      </trkpt>
      <trkpt lat="42.34083" lon="1.33435">
        <ele>1198.8</ele>
        <time>2022-05-22 14:20:09</time>
      </trkpt>
      <trkpt lat="42.34085" lon="1.3343">
        <ele>1198.8</ele>
        <time>2022-05-22 14:20:10</time>
      </trkpt>
      <trkpt lat="42.34086" lon="1.33427">
        <ele>1199</ele>
        <time>2022-05-22 14:20:11</time>
      </trkpt>
      <trkpt lat="42.34088" lon="1.33423">
        <ele>1199.2</ele>
        <time>2022-05-22 14:20:12</time>
      </trkpt>
      <trkpt lat="42.34091" lon="1.3342">
        <ele>1199.2</ele>
        <time>2022-05-22 14:20:13</time>
      </trkpt>
      <trkpt lat="42.34093" lon="1.33417">
        <ele>1199.4</ele>
        <time>2022-05-22 14:20:14</time>
      </trkpt>
      <trkpt lat="42.34095" lon="1.33413">
        <ele>1199.6</ele>
        <time>2022-05-22 14:20:15</time>
      </trkpt>
      <trkpt lat="42.34097" lon="1.33409">
        <ele>1199.6</ele>
        <time>2022-05-22 14:20:16</time>
      </trkpt>
      <trkpt lat="42.34099" lon="1.33405">
        <ele>1199.8</ele>
        <time>2022-05-22 14:20:17</time>
      </trkpt>
      <trkpt lat="42.34101" lon="1.33401">
        <ele>1199.8</ele>
        <time>2022-05-22 14:20:18</time>
      </trkpt>
      <trkpt lat="42.34102" lon="1.33397">
        <ele>1200</ele>
        <time>2022-05-22 14:20:19</time>
      </trkpt>
      <trkpt lat="42.34104" lon="1.33393">
        <ele>1200.2</ele>
        <time>2022-05-22 14:20:20</time>
      </trkpt>
      <trkpt lat="42.34106" lon="1.3339">
        <ele>1200.4</ele>
        <time>2022-05-22 14:20:21</time>
      </trkpt>
      <trkpt lat="42.34108" lon="1.33387">
        <ele>1200.6</ele>
        <time>2022-05-22 14:20:22</time>
      </trkpt>
      <trkpt lat="42.3411" lon="1.33384">
        <ele>1200.8</ele>
        <time>2022-05-22 14:20:23</time>
      </trkpt>
      <trkpt lat="42.34112" lon="1.33381">
        <ele>1200.8</ele>
        <time>2022-05-22 14:20:24</time>
      </trkpt>
      <trkpt lat="42.34114" lon="1.33379">
        <ele>1201</ele>
        <time>2022-05-22 14:20:25</time>
      </trkpt>
      <trkpt lat="42.34116" lon="1.33376">
        <ele>1201.2</ele>
        <time>2022-05-22 14:20:26</time>
      </trkpt>
      <trkpt lat="42.34117" lon="1.33373">
        <ele>1201.4</ele>
        <time>2022-05-22 14:20:27</time>
      </trkpt>
      <trkpt lat="42.34119" lon="1.33371">
        <ele>1201.4</ele>
        <time>2022-05-22 14:20:28</time>
      </trkpt>
      <trkpt lat="42.34121" lon="1.33369">
        <ele>1201.6</ele>
        <time>2022-05-22 14:20:29</time>
      </trkpt>
      <trkpt lat="42.34123" lon="1.33367">
        <ele>1201.8</ele>
        <time>2022-05-22 14:20:30</time>
      </trkpt>
      <trkpt lat="42.34125" lon="1.33366">
        <ele>1201.8</ele>
        <time>2022-05-22 14:20:31</time>
      </trkpt>
      <trkpt lat="42.34127" lon="1.33364">
        <ele>1202</ele>
        <time>2022-05-22 14:20:32</time>
      </trkpt>
      <trkpt lat="42.34129" lon="1.33363">
        <ele>1202</ele>
        <time>2022-05-22 14:20:33</time>
      </trkpt>
      <trkpt lat="42.34131" lon="1.33362">
        <ele>1202.2</ele>
        <time>2022-05-22 14:20:34</time>
      </trkpt>
      <trkpt lat="42.34133" lon="1.33361">
        <ele>1202.2</ele>
        <time>2022-05-22 14:20:35</time>
      </trkpt>
      <trkpt lat="42.34136" lon="1.33359">
        <ele>1202.4</ele>
        <time>2022-05-22 14:20:36</time>
      </trkpt>
      <trkpt lat="42.34137" lon="1.33358">
        <ele>1202.4</ele>
        <time>2022-05-22 14:20:37</time>
      </trkpt>
      <trkpt lat="42.34139" lon="1.33356">
        <ele>1202.6</ele>
        <time>2022-05-22 14:20:38</time>
      </trkpt>
      <trkpt lat="42.34141" lon="1.33355">
        <ele>1202.8</ele>
        <time>2022-05-22 14:20:39</time>
      </trkpt>
      <trkpt lat="42.34143" lon="1.33353">
        <ele>1202.8</ele>
        <time>2022-05-22 14:20:40</time>
      </trkpt>
      <trkpt lat="42.34145" lon="1.33352">
        <ele>1203</ele>
        <time>2022-05-22 14:20:41</time>
      </trkpt>
      <trkpt lat="42.34146" lon="1.3335">
        <ele>1203.2</ele>
        <time>2022-05-22 14:20:42</time>
      </trkpt>
      <trkpt lat="42.34148" lon="1.33348">
        <ele>1203.2</ele>
        <time>2022-05-22 14:20:43</time>
      </trkpt>
      <trkpt lat="42.34149" lon="1.33347">
        <ele>1203.4</ele>
        <time>2022-05-22 14:20:44</time>
      </trkpt>
      <trkpt lat="42.34151" lon="1.33345">
        <ele>1203.6</ele>
        <time>2022-05-22 14:20:45</time>
      </trkpt>
      <trkpt lat="42.34152" lon="1.33343">
        <ele>1203.8</ele>
        <time>2022-05-22 14:20:46</time>
      </trkpt>
      <trkpt lat="42.34154" lon="1.33342">
        <ele>1203.8</ele>
        <time>2022-05-22 14:20:47</time>
      </trkpt>
      <trkpt lat="42.34156" lon="1.3334">
        <ele>1204</ele>
        <time>2022-05-22 14:20:48</time>
      </trkpt>
      <trkpt lat="42.34157" lon="1.33339">
        <ele>1204.2</ele>
        <time>2022-05-22 14:20:49</time>
      </trkpt>
      <trkpt lat="42.34159" lon="1.33337">
        <ele>1204.4</ele>
        <time>2022-05-22 14:20:50</time>
      </trkpt>
      <trkpt lat="42.34161" lon="1.33336">
        <ele>1204.6</ele>
        <time>2022-05-22 14:20:51</time>
      </trkpt>
      <trkpt lat="42.34163" lon="1.33335">
        <ele>1204.8</ele>
        <time>2022-05-22 14:20:52</time>
      </trkpt>
      <trkpt lat="42.34165" lon="1.33334">
        <ele>1204.8</ele>
        <time>2022-05-22 14:20:53</time>
      </trkpt>
      <trkpt lat="42.34166" lon="1.33333">
        <ele>1205</ele>
        <time>2022-05-22 14:20:54</time>
      </trkpt>
      <trkpt lat="42.34168" lon="1.33331">
        <ele>1205</ele>
        <time>2022-05-22 14:20:55</time>
      </trkpt>
      <trkpt lat="42.34169" lon="1.33329">
        <ele>1205.2</ele>
        <time>2022-05-22 14:20:56</time>
      </trkpt>
      <trkpt lat="42.3417" lon="1.33327">
        <ele>1205.2</ele>
        <time>2022-05-22 14:20:57</time>
      </trkpt>
      <trkpt lat="42.34172" lon="1.33325">
        <ele>1205.4</ele>
        <time>2022-05-22 14:20:58</time>
      </trkpt>
      <trkpt lat="42.34174" lon="1.33323">
        <ele>1205.4</ele>
        <time>2022-05-22 14:20:59</time>
      </trkpt>
      <trkpt lat="42.34175" lon="1.33321">
        <ele>1205.4</ele>
        <time>2022-05-22 14:21:00</time>
      </trkpt>
      <trkpt lat="42.34177" lon="1.33319">
        <ele>1205.6</ele>
        <time>2022-05-22 14:21:01</time>
      </trkpt>
      <trkpt lat="42.34178" lon="1.33317">
        <ele>1205.6</ele>
        <time>2022-05-22 14:21:02</time>
      </trkpt>
      <trkpt lat="42.3418" lon="1.33315">
        <ele>1205.8</ele>
        <time>2022-05-22 14:21:03</time>
      </trkpt>
      <trkpt lat="42.34181" lon="1.33314">
        <ele>1206</ele>
        <time>2022-05-22 14:21:04</time>
      </trkpt>
      <trkpt lat="42.34183" lon="1.33312">
        <ele>1206</ele>
        <time>2022-05-22 14:21:05</time>
      </trkpt>
      <trkpt lat="42.34184" lon="1.33309">
        <ele>1206.2</ele>
        <time>2022-05-22 14:21:06</time>
      </trkpt>
      <trkpt lat="42.34186" lon="1.33307">
        <ele>1206.4</ele>
        <time>2022-05-22 14:21:07</time>
      </trkpt>
      <trkpt lat="42.34187" lon="1.33305">
        <ele>1206.4</ele>
        <time>2022-05-22 14:21:08</time>
      </trkpt>
      <trkpt lat="42.34189" lon="1.33303">
        <ele>1206.6</ele>
        <time>2022-05-22 14:21:09</time>
      </trkpt>
      <trkpt lat="42.3419" lon="1.33301">
        <ele>1206.6</ele>
        <time>2022-05-22 14:21:10</time>
      </trkpt>
      <trkpt lat="42.34192" lon="1.33299">
        <ele>1206.6</ele>
        <time>2022-05-22 14:21:11</time>
      </trkpt>
      <trkpt lat="42.34193" lon="1.33297">
        <ele>1206.8</ele>
        <time>2022-05-22 14:21:12</time>
      </trkpt>
      <trkpt lat="42.34195" lon="1.33295">
        <ele>1206.8</ele>
        <time>2022-05-22 14:21:13</time>
      </trkpt>
      <trkpt lat="42.34196" lon="1.33294">
        <ele>1206.8</ele>
        <time>2022-05-22 14:21:14</time>
      </trkpt>
      <trkpt lat="42.34198" lon="1.33292">
        <ele>1207</ele>
        <time>2022-05-22 14:21:15</time>
      </trkpt>
      <trkpt lat="42.34199" lon="1.33289">
        <ele>1207</ele>
        <time>2022-05-22 14:21:16</time>
      </trkpt>
      <trkpt lat="42.34201" lon="1.33287">
        <ele>1207.2</ele>
        <time>2022-05-22 14:21:17</time>
      </trkpt>
      <trkpt lat="42.34202" lon="1.33285">
        <ele>1207.2</ele>
        <time>2022-05-22 14:21:18</time>
      </trkpt>
      <trkpt lat="42.34204" lon="1.33283">
        <ele>1207.2</ele>
        <time>2022-05-22 14:21:19</time>
      </trkpt>
      <trkpt lat="42.34205" lon="1.33281">
        <ele>1207.4</ele>
        <time>2022-05-22 14:21:20</time>
      </trkpt>
      <trkpt lat="42.34207" lon="1.3328">
        <ele>1207.4</ele>
        <time>2022-05-22 14:21:21</time>
      </trkpt>
      <trkpt lat="42.34209" lon="1.33278">
        <ele>1207.6</ele>
        <time>2022-05-22 14:21:22</time>
      </trkpt>
      <trkpt lat="42.3421" lon="1.33276">
        <ele>1207.8</ele>
        <time>2022-05-22 14:21:23</time>
      </trkpt>
      <trkpt lat="42.34212" lon="1.33275">
        <ele>1208</ele>
        <time>2022-05-22 14:21:24</time>
      </trkpt>
      <trkpt lat="42.34213" lon="1.33273">
        <ele>1208</ele>
        <time>2022-05-22 14:21:25</time>
      </trkpt>
      <trkpt lat="42.34215" lon="1.33271">
        <ele>1208.2</ele>
        <time>2022-05-22 14:21:26</time>
      </trkpt>
      <trkpt lat="42.34216" lon="1.33269">
        <ele>1208.4</ele>
        <time>2022-05-22 14:21:27</time>
      </trkpt>
      <trkpt lat="42.34217" lon="1.33267">
        <ele>1208.4</ele>
        <time>2022-05-22 14:21:28</time>
      </trkpt>
      <trkpt lat="42.34218" lon="1.33265">
        <ele>1208.6</ele>
        <time>2022-05-22 14:21:29</time>
      </trkpt>
      <trkpt lat="42.3422" lon="1.33263">
        <ele>1208.8</ele>
        <time>2022-05-22 14:21:30</time>
      </trkpt>
      <trkpt lat="42.34221" lon="1.33262">
        <ele>1208.8</ele>
        <time>2022-05-22 14:21:31</time>
      </trkpt>
      <trkpt lat="42.34223" lon="1.3326">
        <ele>1209</ele>
        <time>2022-05-22 14:21:32</time>
      </trkpt>
      <trkpt lat="42.34225" lon="1.33259">
        <ele>1209</ele>
        <time>2022-05-22 14:21:33</time>
      </trkpt>
      <trkpt lat="42.34227" lon="1.33258">
        <ele>1209.2</ele>
        <time>2022-05-22 14:21:34</time>
      </trkpt>
      <trkpt lat="42.34229" lon="1.33257">
        <ele>1209.4</ele>
        <time>2022-05-22 14:21:35</time>
      </trkpt>
      <trkpt lat="42.3423" lon="1.33255">
        <ele>1209.6</ele>
        <time>2022-05-22 14:21:36</time>
      </trkpt>
      <trkpt lat="42.34232" lon="1.33254">
        <ele>1209.6</ele>
        <time>2022-05-22 14:21:37</time>
      </trkpt>
      <trkpt lat="42.34234" lon="1.33252">
        <ele>1210</ele>
        <time>2022-05-22 14:21:38</time>
      </trkpt>
      <trkpt lat="42.34235" lon="1.33251">
        <ele>1210</ele>
        <time>2022-05-22 14:21:39</time>
      </trkpt>
      <trkpt lat="42.34237" lon="1.33249">
        <ele>1210.2</ele>
        <time>2022-05-22 14:21:40</time>
      </trkpt>
      <trkpt lat="42.34238" lon="1.33247">
        <ele>1210.4</ele>
        <time>2022-05-22 14:21:41</time>
      </trkpt>
      <trkpt lat="42.3424" lon="1.33246">
        <ele>1210.4</ele>
        <time>2022-05-22 14:21:42</time>
      </trkpt>
      <trkpt lat="42.34241" lon="1.33244">
        <ele>1210.4</ele>
        <time>2022-05-22 14:21:43</time>
      </trkpt>
      <trkpt lat="42.34243" lon="1.33242">
        <ele>1210.4</ele>
        <time>2022-05-22 14:21:44</time>
      </trkpt>
      <trkpt lat="42.34244" lon="1.33241">
        <ele>1210.6</ele>
        <time>2022-05-22 14:21:45</time>
      </trkpt>
      <trkpt lat="42.34246" lon="1.3324">
        <ele>1210.6</ele>
        <time>2022-05-22 14:21:46</time>
      </trkpt>
      <trkpt lat="42.34248" lon="1.33238">
        <ele>1210.6</ele>
        <time>2022-05-22 14:21:47</time>
      </trkpt>
      <trkpt lat="42.34249" lon="1.33237">
        <ele>1210.8</ele>
        <time>2022-05-22 14:21:48</time>
      </trkpt>
      <trkpt lat="42.34251" lon="1.33235">
        <ele>1210.8</ele>
        <time>2022-05-22 14:21:49</time>
      </trkpt>
      <trkpt lat="42.34253" lon="1.33234">
        <ele>1210.8</ele>
        <time>2022-05-22 14:21:50</time>
      </trkpt>
      <trkpt lat="42.34255" lon="1.33233">
        <ele>1210.8</ele>
        <time>2022-05-22 14:21:51</time>
      </trkpt>
      <trkpt lat="42.34257" lon="1.33232">
        <ele>1210.8</ele>
        <time>2022-05-22 14:21:52</time>
      </trkpt>
      <trkpt lat="42.34259" lon="1.3323">
        <ele>1211</ele>
        <time>2022-05-22 14:21:53</time>
      </trkpt>
      <trkpt lat="42.34261" lon="1.33229">
        <ele>1211</ele>
        <time>2022-05-22 14:21:54</time>
      </trkpt>
      <trkpt lat="42.34263" lon="1.33228">
        <ele>1211</ele>
        <time>2022-05-22 14:21:55</time>
      </trkpt>
      <trkpt lat="42.34265" lon="1.33227">
        <ele>1211.2</ele>
        <time>2022-05-22 14:21:56</time>
      </trkpt>
      <trkpt lat="42.34267" lon="1.33225">
        <ele>1211.2</ele>
        <time>2022-05-22 14:21:57</time>
      </trkpt>
      <trkpt lat="42.34269" lon="1.33224">
        <ele>1211.4</ele>
        <time>2022-05-22 14:21:58</time>
      </trkpt>
      <trkpt lat="42.34271" lon="1.33223">
        <ele>1211.6</ele>
        <time>2022-05-22 14:21:59</time>
      </trkpt>
      <trkpt lat="42.34272" lon="1.33222">
        <ele>1211.8</ele>
        <time>2022-05-22 14:22:00</time>
      </trkpt>
      <trkpt lat="42.34274" lon="1.33221">
        <ele>1212</ele>
        <time>2022-05-22 14:22:01</time>
      </trkpt>
      <trkpt lat="42.34276" lon="1.3322">
        <ele>1212.2</ele>
        <time>2022-05-22 14:22:02</time>
      </trkpt>
      <trkpt lat="42.34276" lon="1.33215">
        <ele>1212.2</ele>
        <time>2022-05-22 14:22:03</time>
      </trkpt>
      <trkpt lat="42.34273" lon="1.33204">
        <ele>1212.2</ele>
        <time>2022-05-22 14:22:04</time>
      </trkpt>
      <trkpt lat="42.34271" lon="1.33194">
        <ele>1212.4</ele>
        <time>2022-05-22 14:22:05</time>
      </trkpt>
      <trkpt lat="42.34272" lon="1.33191">
        <ele>1212.4</ele>
        <time>2022-05-22 14:22:06</time>
      </trkpt>
      <trkpt lat="42.34277" lon="1.33198">
        <ele>1212.6</ele>
        <time>2022-05-22 14:22:07</time>
      </trkpt>
      <trkpt lat="42.3428" lon="1.332">
        <ele>1212.8</ele>
        <time>2022-05-22 14:22:08</time>
      </trkpt>
      <trkpt lat="42.34283" lon="1.33202">
        <ele>1213</ele>
        <time>2022-05-22 14:22:09</time>
      </trkpt>
      <trkpt lat="42.34286" lon="1.33204">
        <ele>1213</ele>
        <time>2022-05-22 14:22:10</time>
      </trkpt>
      <trkpt lat="42.34288" lon="1.33205">
        <ele>1213.2</ele>
        <time>2022-05-22 14:22:11</time>
      </trkpt>
      <trkpt lat="42.3429" lon="1.33206">
        <ele>1213.2</ele>
        <time>2022-05-22 14:22:12</time>
      </trkpt>
      <trkpt lat="42.34293" lon="1.33206">
        <ele>1213.4</ele>
        <time>2022-05-22 14:22:13</time>
      </trkpt>
      <trkpt lat="42.34295" lon="1.33206">
        <ele>1213.4</ele>
        <time>2022-05-22 14:22:14</time>
      </trkpt>
      <trkpt lat="42.34297" lon="1.33206">
        <ele>1213.6</ele>
        <time>2022-05-22 14:22:15</time>
      </trkpt>
      <trkpt lat="42.34299" lon="1.33205">
        <ele>1213.6</ele>
        <time>2022-05-22 14:22:16</time>
      </trkpt>
      <trkpt lat="42.34302" lon="1.33204">
        <ele>1213.8</ele>
        <time>2022-05-22 14:22:17</time>
      </trkpt>
      <trkpt lat="42.34304" lon="1.33204">
        <ele>1214</ele>
        <time>2022-05-22 14:22:18</time>
      </trkpt>
      <trkpt lat="42.34306" lon="1.33203">
        <ele>1214.2</ele>
        <time>2022-05-22 14:22:19</time>
      </trkpt>
      <trkpt lat="42.34308" lon="1.33203">
        <ele>1214.4</ele>
        <time>2022-05-22 14:22:20</time>
      </trkpt>
      <trkpt lat="42.3431" lon="1.33202">
        <ele>1214.6</ele>
        <time>2022-05-22 14:22:21</time>
      </trkpt>
      <trkpt lat="42.34312" lon="1.33201">
        <ele>1214.8</ele>
        <time>2022-05-22 14:22:22</time>
      </trkpt>
      <trkpt lat="42.34314" lon="1.33201">
        <ele>1215</ele>
        <time>2022-05-22 14:22:23</time>
      </trkpt>
      <trkpt lat="42.34316" lon="1.332">
        <ele>1215.2</ele>
        <time>2022-05-22 14:22:24</time>
      </trkpt>
      <trkpt lat="42.34318" lon="1.332">
        <ele>1215.4</ele>
        <time>2022-05-22 14:22:25</time>
      </trkpt>
      <trkpt lat="42.34321" lon="1.332">
        <ele>1215.6</ele>
        <time>2022-05-22 14:22:26</time>
      </trkpt>
      <trkpt lat="42.34323" lon="1.33199">
        <ele>1215.8</ele>
        <time>2022-05-22 14:22:27</time>
      </trkpt>
      <trkpt lat="42.34325" lon="1.33199">
        <ele>1216</ele>
        <time>2022-05-22 14:22:28</time>
      </trkpt>
      <trkpt lat="42.34329" lon="1.332">
        <ele>1216.2</ele>
        <time>2022-05-22 14:22:29</time>
      </trkpt>
      <trkpt lat="42.34331" lon="1.33199">
        <ele>1216.2</ele>
        <time>2022-05-22 14:22:30</time>
      </trkpt>
      <trkpt lat="42.34333" lon="1.33198">
        <ele>1216.4</ele>
        <time>2022-05-22 14:22:31</time>
      </trkpt>
      <trkpt lat="42.34335" lon="1.33197">
        <ele>1216.6</ele>
        <time>2022-05-22 14:22:32</time>
      </trkpt>
      <trkpt lat="42.34336" lon="1.33196">
        <ele>1216.8</ele>
        <time>2022-05-22 14:22:33</time>
      </trkpt>
      <trkpt lat="42.34338" lon="1.33195">
        <ele>1216.8</ele>
        <time>2022-05-22 14:22:34</time>
      </trkpt>
      <trkpt lat="42.34341" lon="1.33195">
        <ele>1217</ele>
        <time>2022-05-22 14:22:35</time>
      </trkpt>
      <trkpt lat="42.34343" lon="1.33195">
        <ele>1217.2</ele>
        <time>2022-05-22 14:22:36</time>
      </trkpt>
      <trkpt lat="42.34345" lon="1.33194">
        <ele>1217.4</ele>
        <time>2022-05-22 14:22:37</time>
      </trkpt>
      <trkpt lat="42.34347" lon="1.33194">
        <ele>1217.6</ele>
        <time>2022-05-22 14:22:38</time>
      </trkpt>
      <trkpt lat="42.3435" lon="1.33193">
        <ele>1217.6</ele>
        <time>2022-05-22 14:22:39</time>
      </trkpt>
      <trkpt lat="42.34352" lon="1.33192">
        <ele>1217.8</ele>
        <time>2022-05-22 14:22:40</time>
      </trkpt>
      <trkpt lat="42.34354" lon="1.33191">
        <ele>1218</ele>
        <time>2022-05-22 14:22:41</time>
      </trkpt>
      <trkpt lat="42.34356" lon="1.3319">
        <ele>1218</ele>
        <time>2022-05-22 14:22:42</time>
      </trkpt>
      <trkpt lat="42.34357" lon="1.33189">
        <ele>1218.2</ele>
        <time>2022-05-22 14:22:43</time>
      </trkpt>
      <trkpt lat="42.34359" lon="1.33188">
        <ele>1218.6</ele>
        <time>2022-05-22 14:22:44</time>
      </trkpt>
      <trkpt lat="42.34362" lon="1.33187">
        <ele>1218.6</ele>
        <time>2022-05-22 14:22:45</time>
      </trkpt>
      <trkpt lat="42.34363" lon="1.33186">
        <ele>1218.8</ele>
        <time>2022-05-22 14:22:46</time>
      </trkpt>
      <trkpt lat="42.34365" lon="1.33185">
        <ele>1219</ele>
        <time>2022-05-22 14:22:47</time>
      </trkpt>
      <trkpt lat="42.34367" lon="1.33184">
        <ele>1219.2</ele>
        <time>2022-05-22 14:22:48</time>
      </trkpt>
      <trkpt lat="42.34369" lon="1.33183">
        <ele>1219.2</ele>
        <time>2022-05-22 14:22:49</time>
      </trkpt>
      <trkpt lat="42.34371" lon="1.33182">
        <ele>1219.4</ele>
        <time>2022-05-22 14:22:50</time>
      </trkpt>
      <trkpt lat="42.34373" lon="1.33181">
        <ele>1219.4</ele>
        <time>2022-05-22 14:22:51</time>
      </trkpt>
      <trkpt lat="42.34375" lon="1.3318">
        <ele>1219.6</ele>
        <time>2022-05-22 14:22:52</time>
      </trkpt>
      <trkpt lat="42.34376" lon="1.33179">
        <ele>1219.8</ele>
        <time>2022-05-22 14:22:53</time>
      </trkpt>
      <trkpt lat="42.34378" lon="1.33178">
        <ele>1219.8</ele>
        <time>2022-05-22 14:22:54</time>
      </trkpt>
      <trkpt lat="42.3438" lon="1.33177">
        <ele>1220</ele>
        <time>2022-05-22 14:22:55</time>
      </trkpt>
      <trkpt lat="42.34382" lon="1.33175">
        <ele>1220</ele>
        <time>2022-05-22 14:22:56</time>
      </trkpt>
      <trkpt lat="42.34384" lon="1.33174">
        <ele>1220</ele>
        <time>2022-05-22 14:22:57</time>
      </trkpt>
      <trkpt lat="42.34386" lon="1.33173">
        <ele>1220.2</ele>
        <time>2022-05-22 14:22:58</time>
      </trkpt>
      <trkpt lat="42.34388" lon="1.33172">
        <ele>1220.2</ele>
        <time>2022-05-22 14:22:59</time>
      </trkpt>
      <trkpt lat="42.3439" lon="1.33171">
        <ele>1220.2</ele>
        <time>2022-05-22 14:23:00</time>
      </trkpt>
      <trkpt lat="42.34392" lon="1.33171">
        <ele>1220.4</ele>
        <time>2022-05-22 14:23:01</time>
      </trkpt>
      <trkpt lat="42.34394" lon="1.3317">
        <ele>1220.4</ele>
        <time>2022-05-22 14:23:02</time>
      </trkpt>
      <trkpt lat="42.34396" lon="1.33168">
        <ele>1220.4</ele>
        <time>2022-05-22 14:23:03</time>
      </trkpt>
      <trkpt lat="42.34398" lon="1.33167">
        <ele>1220.4</ele>
        <time>2022-05-22 14:23:04</time>
      </trkpt>
      <trkpt lat="42.344" lon="1.33165">
        <ele>1220.6</ele>
        <time>2022-05-22 14:23:05</time>
      </trkpt>
      <trkpt lat="42.34402" lon="1.33163">
        <ele>1220.6</ele>
        <time>2022-05-22 14:23:06</time>
      </trkpt>
      <trkpt lat="42.34404" lon="1.33162">
        <ele>1220.6</ele>
        <time>2022-05-22 14:23:07</time>
      </trkpt>
      <trkpt lat="42.34406" lon="1.33161">
        <ele>1220.8</ele>
        <time>2022-05-22 14:23:08</time>
      </trkpt>
      <trkpt lat="42.34408" lon="1.3316">
        <ele>1220.8</ele>
        <time>2022-05-22 14:23:09</time>
      </trkpt>
      <trkpt lat="42.34411" lon="1.33159">
        <ele>1220.8</ele>
        <time>2022-05-22 14:23:10</time>
      </trkpt>
      <trkpt lat="42.34413" lon="1.33158">
        <ele>1221</ele>
        <time>2022-05-22 14:23:11</time>
      </trkpt>
      <trkpt lat="42.34415" lon="1.33157">
        <ele>1221</ele>
        <time>2022-05-22 14:23:12</time>
      </trkpt>
      <trkpt lat="42.34417" lon="1.33155">
        <ele>1221</ele>
        <time>2022-05-22 14:23:13</time>
      </trkpt>
      <trkpt lat="42.3442" lon="1.33154">
        <ele>1221.2</ele>
        <time>2022-05-22 14:23:14</time>
      </trkpt>
      <trkpt lat="42.34422" lon="1.33153">
        <ele>1221.2</ele>
        <time>2022-05-22 14:23:15</time>
      </trkpt>
      <trkpt lat="42.34424" lon="1.33151">
        <ele>1221.2</ele>
        <time>2022-05-22 14:23:16</time>
      </trkpt>
      <trkpt lat="42.34426" lon="1.3315">
        <ele>1221.4</ele>
        <time>2022-05-22 14:23:17</time>
      </trkpt>
      <trkpt lat="42.34428" lon="1.33149">
        <ele>1221.4</ele>
        <time>2022-05-22 14:23:18</time>
      </trkpt>
      <trkpt lat="42.3443" lon="1.33147">
        <ele>1221.6</ele>
        <time>2022-05-22 14:23:19</time>
      </trkpt>
      <trkpt lat="42.34432" lon="1.33146">
        <ele>1221.8</ele>
        <time>2022-05-22 14:23:20</time>
      </trkpt>
      <trkpt lat="42.34434" lon="1.33144">
        <ele>1221.8</ele>
        <time>2022-05-22 14:23:21</time>
      </trkpt>
      <trkpt lat="42.34436" lon="1.33143">
        <ele>1222</ele>
        <time>2022-05-22 14:23:22</time>
      </trkpt>
      <trkpt lat="42.34439" lon="1.33141">
        <ele>1222.2</ele>
        <time>2022-05-22 14:23:23</time>
      </trkpt>
      <trkpt lat="42.34441" lon="1.3314">
        <ele>1222.2</ele>
        <time>2022-05-22 14:23:24</time>
      </trkpt>
      <trkpt lat="42.34443" lon="1.33138">
        <ele>1222.2</ele>
        <time>2022-05-22 14:23:25</time>
      </trkpt>
      <trkpt lat="42.34446" lon="1.33137">
        <ele>1222.4</ele>
        <time>2022-05-22 14:23:26</time>
      </trkpt>
      <trkpt lat="42.34448" lon="1.33135">
        <ele>1222.4</ele>
        <time>2022-05-22 14:23:27</time>
      </trkpt>
      <trkpt lat="42.34451" lon="1.33133">
        <ele>1222.6</ele>
        <time>2022-05-22 14:23:28</time>
      </trkpt>
      <trkpt lat="42.34453" lon="1.33131">
        <ele>1222.8</ele>
        <time>2022-05-22 14:23:29</time>
      </trkpt>
      <trkpt lat="42.34456" lon="1.3313">
        <ele>1223</ele>
        <time>2022-05-22 14:23:30</time>
      </trkpt>
      <trkpt lat="42.34458" lon="1.33129">
        <ele>1223</ele>
        <time>2022-05-22 14:23:31</time>
      </trkpt>
      <trkpt lat="42.34461" lon="1.33128">
        <ele>1223.2</ele>
        <time>2022-05-22 14:23:32</time>
      </trkpt>
      <trkpt lat="42.34463" lon="1.33126">
        <ele>1223.2</ele>
        <time>2022-05-22 14:23:33</time>
      </trkpt>
      <trkpt lat="42.34466" lon="1.33125">
        <ele>1223.2</ele>
        <time>2022-05-22 14:23:34</time>
      </trkpt>
      <trkpt lat="42.34468" lon="1.33123">
        <ele>1223.4</ele>
        <time>2022-05-22 14:23:35</time>
      </trkpt>
      <trkpt lat="42.3447" lon="1.33122">
        <ele>1223.4</ele>
        <time>2022-05-22 14:23:36</time>
      </trkpt>
      <trkpt lat="42.34473" lon="1.33121">
        <ele>1223.4</ele>
        <time>2022-05-22 14:23:37</time>
      </trkpt>
      <trkpt lat="42.34476" lon="1.3312">
        <ele>1223.4</ele>
        <time>2022-05-22 14:23:38</time>
      </trkpt>
      <trkpt lat="42.34478" lon="1.33118">
        <ele>1223.6</ele>
        <time>2022-05-22 14:23:39</time>
      </trkpt>
      <trkpt lat="42.34481" lon="1.33117">
        <ele>1223.6</ele>
        <time>2022-05-22 14:23:40</time>
      </trkpt>
      <trkpt lat="42.34483" lon="1.33115">
        <ele>1223.6</ele>
        <time>2022-05-22 14:23:41</time>
      </trkpt>
      <trkpt lat="42.34486" lon="1.33115">
        <ele>1223.8</ele>
        <time>2022-05-22 14:23:42</time>
      </trkpt>
      <trkpt lat="42.34488" lon="1.33114">
        <ele>1223.8</ele>
        <time>2022-05-22 14:23:43</time>
      </trkpt>
      <trkpt lat="42.34491" lon="1.33113">
        <ele>1223.8</ele>
        <time>2022-05-22 14:23:44</time>
      </trkpt>
      <trkpt lat="42.34493" lon="1.33112">
        <ele>1223.8</ele>
        <time>2022-05-22 14:23:45</time>
      </trkpt>
      <trkpt lat="42.34496" lon="1.33112">
        <ele>1224</ele>
        <time>2022-05-22 14:23:46</time>
      </trkpt>
      <trkpt lat="42.34498" lon="1.33111">
        <ele>1224</ele>
        <time>2022-05-22 14:23:47</time>
      </trkpt>
      <trkpt lat="42.34501" lon="1.3311">
        <ele>1224</ele>
        <time>2022-05-22 14:23:48</time>
      </trkpt>
      <trkpt lat="42.34504" lon="1.3311">
        <ele>1224</ele>
        <time>2022-05-22 14:23:49</time>
      </trkpt>
      <trkpt lat="42.34506" lon="1.33109">
        <ele>1224</ele>
        <time>2022-05-22 14:23:50</time>
      </trkpt>
      <trkpt lat="42.34509" lon="1.33108">
        <ele>1224.2</ele>
        <time>2022-05-22 14:23:51</time>
      </trkpt>
      <trkpt lat="42.34511" lon="1.33108">
        <ele>1224.2</ele>
        <time>2022-05-22 14:23:52</time>
      </trkpt>
      <trkpt lat="42.34514" lon="1.33107">
        <ele>1224.4</ele>
        <time>2022-05-22 14:23:53</time>
      </trkpt>
      <trkpt lat="42.34516" lon="1.33107">
        <ele>1224.4</ele>
        <time>2022-05-22 14:23:54</time>
      </trkpt>
      <trkpt lat="42.34519" lon="1.33106">
        <ele>1224.6</ele>
        <time>2022-05-22 14:23:55</time>
      </trkpt>
      <trkpt lat="42.34522" lon="1.33106">
        <ele>1224.6</ele>
        <time>2022-05-22 14:23:56</time>
      </trkpt>
      <trkpt lat="42.34524" lon="1.33105">
        <ele>1224.6</ele>
        <time>2022-05-22 14:23:57</time>
      </trkpt>
      <trkpt lat="42.34527" lon="1.33105">
        <ele>1224.8</ele>
        <time>2022-05-22 14:23:58</time>
      </trkpt>
      <trkpt lat="42.34529" lon="1.33105">
        <ele>1224.8</ele>
        <time>2022-05-22 14:23:59</time>
      </trkpt>
      <trkpt lat="42.34532" lon="1.33104">
        <ele>1225</ele>
        <time>2022-05-22 14:24:00</time>
      </trkpt>
      <trkpt lat="42.34534" lon="1.33104">
        <ele>1225</ele>
        <time>2022-05-22 14:24:01</time>
      </trkpt>
      <trkpt lat="42.34537" lon="1.33104">
        <ele>1225</ele>
        <time>2022-05-22 14:24:02</time>
      </trkpt>
      <trkpt lat="42.34539" lon="1.33103">
        <ele>1225.2</ele>
        <time>2022-05-22 14:24:03</time>
      </trkpt>
      <trkpt lat="42.34542" lon="1.33103">
        <ele>1225.2</ele>
        <time>2022-05-22 14:24:04</time>
      </trkpt>
      <trkpt lat="42.34544" lon="1.33103">
        <ele>1225.4</ele>
        <time>2022-05-22 14:24:05</time>
      </trkpt>
      <trkpt lat="42.34547" lon="1.33103">
        <ele>1225.4</ele>
        <time>2022-05-22 14:24:06</time>
      </trkpt>
      <trkpt lat="42.34549" lon="1.33103">
        <ele>1225.6</ele>
        <time>2022-05-22 14:24:07</time>
      </trkpt>
      <trkpt lat="42.34552" lon="1.33103">
        <ele>1225.6</ele>
        <time>2022-05-22 14:24:08</time>
      </trkpt>
      <trkpt lat="42.34554" lon="1.33102">
        <ele>1225.8</ele>
        <time>2022-05-22 14:24:09</time>
      </trkpt>
      <trkpt lat="42.34557" lon="1.33102">
        <ele>1225.8</ele>
        <time>2022-05-22 14:24:10</time>
      </trkpt>
      <trkpt lat="42.3456" lon="1.33101">
        <ele>1225.8</ele>
        <time>2022-05-22 14:24:11</time>
      </trkpt>
      <trkpt lat="42.34562" lon="1.33101">
        <ele>1225.8</ele>
        <time>2022-05-22 14:24:12</time>
      </trkpt>
      <trkpt lat="42.34565" lon="1.331">
        <ele>1226</ele>
        <time>2022-05-22 14:24:13</time>
      </trkpt>
      <trkpt lat="42.34568" lon="1.331">
        <ele>1226</ele>
        <time>2022-05-22 14:24:14</time>
      </trkpt>
      <trkpt lat="42.3457" lon="1.33099">
        <ele>1226</ele>
        <time>2022-05-22 14:24:15</time>
      </trkpt>
      <trkpt lat="42.34573" lon="1.33098">
        <ele>1226.2</ele>
        <time>2022-05-22 14:24:16</time>
      </trkpt>
      <trkpt lat="42.34576" lon="1.33097">
        <ele>1226.2</ele>
        <time>2022-05-22 14:24:17</time>
      </trkpt>
      <trkpt lat="42.34578" lon="1.33097">
        <ele>1226.4</ele>
        <time>2022-05-22 14:24:18</time>
      </trkpt>
      <trkpt lat="42.34581" lon="1.33096">
        <ele>1226.4</ele>
        <time>2022-05-22 14:24:19</time>
      </trkpt>
      <trkpt lat="42.34583" lon="1.33096">
        <ele>1226.6</ele>
        <time>2022-05-22 14:24:20</time>
      </trkpt>
      <trkpt lat="42.34586" lon="1.33095">
        <ele>1226.6</ele>
        <time>2022-05-22 14:24:21</time>
      </trkpt>
      <trkpt lat="42.34588" lon="1.33095">
        <ele>1226.8</ele>
        <time>2022-05-22 14:24:22</time>
      </trkpt>
      <trkpt lat="42.34589" lon="1.33094">
        <ele>1226.8</ele>
        <time>2022-05-22 14:24:23</time>
      </trkpt>
      <trkpt lat="42.34593" lon="1.33093">
        <ele>1227</ele>
        <time>2022-05-22 14:24:24</time>
      </trkpt>
      <trkpt lat="42.34595" lon="1.33092">
        <ele>1227.2</ele>
        <time>2022-05-22 14:24:25</time>
      </trkpt>
      <trkpt lat="42.34597" lon="1.33091">
        <ele>1227.4</ele>
        <time>2022-05-22 14:24:26</time>
      </trkpt>
      <trkpt lat="42.34599" lon="1.3309">
        <ele>1227.6</ele>
        <time>2022-05-22 14:24:27</time>
      </trkpt>
      <trkpt lat="42.34601" lon="1.33089">
        <ele>1227.6</ele>
        <time>2022-05-22 14:24:28</time>
      </trkpt>
      <trkpt lat="42.34603" lon="1.33088">
        <ele>1227.8</ele>
        <time>2022-05-22 14:24:29</time>
      </trkpt>
      <trkpt lat="42.34605" lon="1.33087">
        <ele>1227.8</ele>
        <time>2022-05-22 14:24:30</time>
      </trkpt>
      <trkpt lat="42.34608" lon="1.33085">
        <ele>1228</ele>
        <time>2022-05-22 14:24:31</time>
      </trkpt>
      <trkpt lat="42.3461" lon="1.33084">
        <ele>1228</ele>
        <time>2022-05-22 14:24:32</time>
      </trkpt>
      <trkpt lat="42.34613" lon="1.33083">
        <ele>1228.2</ele>
        <time>2022-05-22 14:24:33</time>
      </trkpt>
      <trkpt lat="42.34615" lon="1.33081">
        <ele>1228.2</ele>
        <time>2022-05-22 14:24:34</time>
      </trkpt>
      <trkpt lat="42.34618" lon="1.3308">
        <ele>1228.4</ele>
        <time>2022-05-22 14:24:35</time>
      </trkpt>
      <trkpt lat="42.34621" lon="1.33078">
        <ele>1228.4</ele>
        <time>2022-05-22 14:24:36</time>
      </trkpt>
      <trkpt lat="42.34624" lon="1.33076">
        <ele>1228.6</ele>
        <time>2022-05-22 14:24:37</time>
      </trkpt>
      <trkpt lat="42.34627" lon="1.33074">
        <ele>1228.8</ele>
        <time>2022-05-22 14:24:38</time>
      </trkpt>
      <trkpt lat="42.3463" lon="1.33072">
        <ele>1229</ele>
        <time>2022-05-22 14:24:39</time>
      </trkpt>
      <trkpt lat="42.34632" lon="1.3307">
        <ele>1229.2</ele>
        <time>2022-05-22 14:24:40</time>
      </trkpt>
      <trkpt lat="42.34635" lon="1.33068">
        <ele>1229.4</ele>
        <time>2022-05-22 14:24:41</time>
      </trkpt>
      <trkpt lat="42.34638" lon="1.33066">
        <ele>1229.4</ele>
        <time>2022-05-22 14:24:42</time>
      </trkpt>
      <trkpt lat="42.3464" lon="1.33063">
        <ele>1229.6</ele>
        <time>2022-05-22 14:24:43</time>
      </trkpt>
      <trkpt lat="42.34642" lon="1.33061">
        <ele>1229.8</ele>
        <time>2022-05-22 14:24:44</time>
      </trkpt>
      <trkpt lat="42.34645" lon="1.33059">
        <ele>1230</ele>
        <time>2022-05-22 14:24:45</time>
      </trkpt>
      <trkpt lat="42.34647" lon="1.33057">
        <ele>1230.2</ele>
        <time>2022-05-22 14:24:46</time>
      </trkpt>
      <trkpt lat="42.34649" lon="1.33054">
        <ele>1230.2</ele>
        <time>2022-05-22 14:24:47</time>
      </trkpt>
      <trkpt lat="42.34651" lon="1.33052">
        <ele>1230.4</ele>
        <time>2022-05-22 14:24:48</time>
      </trkpt>
      <trkpt lat="42.34653" lon="1.3305">
        <ele>1230.6</ele>
        <time>2022-05-22 14:24:49</time>
      </trkpt>
      <trkpt lat="42.34654" lon="1.33047">
        <ele>1230.8</ele>
        <time>2022-05-22 14:24:50</time>
      </trkpt>
      <trkpt lat="42.34656" lon="1.33045">
        <ele>1230.8</ele>
        <time>2022-05-22 14:24:51</time>
      </trkpt>
      <trkpt lat="42.34659" lon="1.33043">
        <ele>1231</ele>
        <time>2022-05-22 14:24:52</time>
      </trkpt>
      <trkpt lat="42.34661" lon="1.33041">
        <ele>1231.2</ele>
        <time>2022-05-22 14:24:53</time>
      </trkpt>
      <trkpt lat="42.34663" lon="1.33039">
        <ele>1231.2</ele>
        <time>2022-05-22 14:24:54</time>
      </trkpt>
      <trkpt lat="42.34665" lon="1.33037">
        <ele>1231.4</ele>
        <time>2022-05-22 14:24:55</time>
      </trkpt>
      <trkpt lat="42.34667" lon="1.33035">
        <ele>1231.4</ele>
        <time>2022-05-22 14:24:56</time>
      </trkpt>
      <trkpt lat="42.34669" lon="1.33033">
        <ele>1231.6</ele>
        <time>2022-05-22 14:24:57</time>
      </trkpt>
      <trkpt lat="42.34671" lon="1.33031">
        <ele>1231.6</ele>
        <time>2022-05-22 14:24:58</time>
      </trkpt>
      <trkpt lat="42.34673" lon="1.33029">
        <ele>1231.8</ele>
        <time>2022-05-22 14:24:59</time>
      </trkpt>
      <trkpt lat="42.34675" lon="1.33027">
        <ele>1232</ele>
        <time>2022-05-22 14:25:00</time>
      </trkpt>
      <trkpt lat="42.34677" lon="1.33024">
        <ele>1232</ele>
        <time>2022-05-22 14:25:01</time>
      </trkpt>
      <trkpt lat="42.34679" lon="1.33022">
        <ele>1232.2</ele>
        <time>2022-05-22 14:25:02</time>
      </trkpt>
      <trkpt lat="42.3468" lon="1.3302">
        <ele>1232.4</ele>
        <time>2022-05-22 14:25:03</time>
      </trkpt>
      <trkpt lat="42.34682" lon="1.33018">
        <ele>1232.6</ele>
        <time>2022-05-22 14:25:04</time>
      </trkpt>
      <trkpt lat="42.34684" lon="1.33016">
        <ele>1232.8</ele>
        <time>2022-05-22 14:25:05</time>
      </trkpt>
      <trkpt lat="42.34686" lon="1.33014">
        <ele>1232.8</ele>
        <time>2022-05-22 14:25:06</time>
      </trkpt>
      <trkpt lat="42.34688" lon="1.33012">
        <ele>1233</ele>
        <time>2022-05-22 14:25:07</time>
      </trkpt>
      <trkpt lat="42.3469" lon="1.3301">
        <ele>1233.2</ele>
        <time>2022-05-22 14:25:08</time>
      </trkpt>
      <trkpt lat="42.34692" lon="1.33008">
        <ele>1233.2</ele>
        <time>2022-05-22 14:25:09</time>
      </trkpt>
      <trkpt lat="42.34694" lon="1.33006">
        <ele>1233.4</ele>
        <time>2022-05-22 14:25:10</time>
      </trkpt>
      <trkpt lat="42.34696" lon="1.33004">
        <ele>1233.4</ele>
        <time>2022-05-22 14:25:11</time>
      </trkpt>
      <trkpt lat="42.34699" lon="1.33002">
        <ele>1233.6</ele>
        <time>2022-05-22 14:25:12</time>
      </trkpt>
      <trkpt lat="42.34701" lon="1.33">
        <ele>1233.8</ele>
        <time>2022-05-22 14:25:13</time>
      </trkpt>
      <trkpt lat="42.34703" lon="1.32999">
        <ele>1233.8</ele>
        <time>2022-05-22 14:25:14</time>
      </trkpt>
      <trkpt lat="42.34705" lon="1.32997">
        <ele>1234</ele>
        <time>2022-05-22 14:25:15</time>
      </trkpt>
      <trkpt lat="42.34707" lon="1.32995">
        <ele>1234</ele>
        <time>2022-05-22 14:25:16</time>
      </trkpt>
      <trkpt lat="42.34709" lon="1.32993">
        <ele>1234.2</ele>
        <time>2022-05-22 14:25:17</time>
      </trkpt>
      <trkpt lat="42.34712" lon="1.32992">
        <ele>1234.2</ele>
        <time>2022-05-22 14:25:18</time>
      </trkpt>
      <trkpt lat="42.34714" lon="1.3299">
        <ele>1234.4</ele>
        <time>2022-05-22 14:25:19</time>
      </trkpt>
      <trkpt lat="42.34716" lon="1.32989">
        <ele>1234.4</ele>
        <time>2022-05-22 14:25:20</time>
      </trkpt>
      <trkpt lat="42.34719" lon="1.32987">
        <ele>1234.6</ele>
        <time>2022-05-22 14:25:21</time>
      </trkpt>
      <trkpt lat="42.34721" lon="1.32986">
        <ele>1234.6</ele>
        <time>2022-05-22 14:25:22</time>
      </trkpt>
      <trkpt lat="42.34724" lon="1.32984">
        <ele>1234.8</ele>
        <time>2022-05-22 14:25:23</time>
      </trkpt>
      <trkpt lat="42.34726" lon="1.32983">
        <ele>1235</ele>
        <time>2022-05-22 14:25:24</time>
      </trkpt>
      <trkpt lat="42.34728" lon="1.32982">
        <ele>1235</ele>
        <time>2022-05-22 14:25:25</time>
      </trkpt>
      <trkpt lat="42.3473" lon="1.32981">
        <ele>1235.2</ele>
        <time>2022-05-22 14:25:26</time>
      </trkpt>
      <trkpt lat="42.34733" lon="1.3298">
        <ele>1235.4</ele>
        <time>2022-05-22 14:25:27</time>
      </trkpt>
      <trkpt lat="42.34735" lon="1.3298">
        <ele>1235.6</ele>
        <time>2022-05-22 14:25:28</time>
      </trkpt>
      <trkpt lat="42.34737" lon="1.32979">
        <ele>1235.8</ele>
        <time>2022-05-22 14:25:29</time>
      </trkpt>
      <trkpt lat="42.3474" lon="1.32978">
        <ele>1236</ele>
        <time>2022-05-22 14:25:30</time>
      </trkpt>
      <trkpt lat="42.34742" lon="1.32978">
        <ele>1236</ele>
        <time>2022-05-22 14:25:31</time>
      </trkpt>
      <trkpt lat="42.34744" lon="1.32978">
        <ele>1236.2</ele>
        <time>2022-05-22 14:25:32</time>
      </trkpt>
      <trkpt lat="42.34747" lon="1.32977">
        <ele>1236.4</ele>
        <time>2022-05-22 14:25:33</time>
      </trkpt>
      <trkpt lat="42.34749" lon="1.32977">
        <ele>1236.6</ele>
        <time>2022-05-22 14:25:34</time>
      </trkpt>
      <trkpt lat="42.34751" lon="1.32977">
        <ele>1236.8</ele>
        <time>2022-05-22 14:25:35</time>
      </trkpt>
      <trkpt lat="42.34753" lon="1.32977">
        <ele>1236.8</ele>
        <time>2022-05-22 14:25:36</time>
      </trkpt>
      <trkpt lat="42.34756" lon="1.32976">
        <ele>1237</ele>
        <time>2022-05-22 14:25:37</time>
      </trkpt>
      <trkpt lat="42.34758" lon="1.32976">
        <ele>1237.2</ele>
        <time>2022-05-22 14:25:38</time>
      </trkpt>
      <trkpt lat="42.34759" lon="1.32976">
        <ele>1237.2</ele>
        <time>2022-05-22 14:25:39</time>
      </trkpt>
      <trkpt lat="42.34761" lon="1.32976">
        <ele>1237.4</ele>
        <time>2022-05-22 14:25:40</time>
      </trkpt>
      <trkpt lat="42.34763" lon="1.32977">
        <ele>1237.6</ele>
        <time>2022-05-22 14:25:41</time>
      </trkpt>
      <trkpt lat="42.34765" lon="1.32978">
        <ele>1237.8</ele>
        <time>2022-05-22 14:25:42</time>
      </trkpt>
      <trkpt lat="42.34767" lon="1.32979">
        <ele>1237.8</ele>
        <time>2022-05-22 14:25:43</time>
      </trkpt>
      <trkpt lat="42.34769" lon="1.3298">
        <ele>1238</ele>
        <time>2022-05-22 14:25:44</time>
      </trkpt>
      <trkpt lat="42.34771" lon="1.32981">
        <ele>1238.2</ele>
        <time>2022-05-22 14:25:45</time>
      </trkpt>
      <trkpt lat="42.34773" lon="1.32982">
        <ele>1238.2</ele>
        <time>2022-05-22 14:25:46</time>
      </trkpt>
      <trkpt lat="42.34775" lon="1.32983">
        <ele>1238.4</ele>
        <time>2022-05-22 14:25:47</time>
      </trkpt>
      <trkpt lat="42.34777" lon="1.32984">
        <ele>1238.6</ele>
        <time>2022-05-22 14:25:48</time>
      </trkpt>
      <trkpt lat="42.34779" lon="1.32985">
        <ele>1238.6</ele>
        <time>2022-05-22 14:25:49</time>
      </trkpt>
      <trkpt lat="42.34781" lon="1.32986">
        <ele>1238.8</ele>
        <time>2022-05-22 14:25:50</time>
      </trkpt>
      <trkpt lat="42.34783" lon="1.32987">
        <ele>1239</ele>
        <time>2022-05-22 14:25:51</time>
      </trkpt>
      <trkpt lat="42.34785" lon="1.32988">
        <ele>1239</ele>
        <time>2022-05-22 14:25:52</time>
      </trkpt>
      <trkpt lat="42.34787" lon="1.3299">
        <ele>1239.2</ele>
        <time>2022-05-22 14:25:53</time>
      </trkpt>
      <trkpt lat="42.34789" lon="1.32992">
        <ele>1239.4</ele>
        <time>2022-05-22 14:25:54</time>
      </trkpt>
      <trkpt lat="42.3479" lon="1.32993">
        <ele>1239.4</ele>
        <time>2022-05-22 14:25:55</time>
      </trkpt>
      <trkpt lat="42.34792" lon="1.32995">
        <ele>1239.6</ele>
        <time>2022-05-22 14:25:56</time>
      </trkpt>
      <trkpt lat="42.34794" lon="1.32997">
        <ele>1239.6</ele>
        <time>2022-05-22 14:25:57</time>
      </trkpt>
      <trkpt lat="42.34796" lon="1.32998">
        <ele>1239.8</ele>
        <time>2022-05-22 14:25:58</time>
      </trkpt>
      <trkpt lat="42.34798" lon="1.32999">
        <ele>1240</ele>
        <time>2022-05-22 14:25:59</time>
      </trkpt>
      <trkpt lat="42.34799" lon="1.33001">
        <ele>1240</ele>
        <time>2022-05-22 14:26:00</time>
      </trkpt>
      <trkpt lat="42.34801" lon="1.33003">
        <ele>1240.2</ele>
        <time>2022-05-22 14:26:01</time>
      </trkpt>
      <trkpt lat="42.34802" lon="1.33005">
        <ele>1240.2</ele>
        <time>2022-05-22 14:26:02</time>
      </trkpt>
      <trkpt lat="42.34804" lon="1.33007">
        <ele>1240.4</ele>
        <time>2022-05-22 14:26:03</time>
      </trkpt>
      <trkpt lat="42.34805" lon="1.33009">
        <ele>1240.4</ele>
        <time>2022-05-22 14:26:04</time>
      </trkpt>
      <trkpt lat="42.34807" lon="1.33011">
        <ele>1240.6</ele>
        <time>2022-05-22 14:26:05</time>
      </trkpt>
      <trkpt lat="42.34809" lon="1.33013">
        <ele>1240.6</ele>
        <time>2022-05-22 14:26:06</time>
      </trkpt>
      <trkpt lat="42.34811" lon="1.33015">
        <ele>1240.8</ele>
        <time>2022-05-22 14:26:07</time>
      </trkpt>
      <trkpt lat="42.34812" lon="1.33017">
        <ele>1240.8</ele>
        <time>2022-05-22 14:26:08</time>
      </trkpt>
      <trkpt lat="42.34814" lon="1.33019">
        <ele>1241</ele>
        <time>2022-05-22 14:26:09</time>
      </trkpt>
      <trkpt lat="42.34815" lon="1.33021">
        <ele>1241</ele>
        <time>2022-05-22 14:26:10</time>
      </trkpt>
      <trkpt lat="42.34817" lon="1.33023">
        <ele>1241.2</ele>
        <time>2022-05-22 14:26:11</time>
      </trkpt>
      <trkpt lat="42.34819" lon="1.33024">
        <ele>1241.2</ele>
        <time>2022-05-22 14:26:12</time>
      </trkpt>
      <trkpt lat="42.3482" lon="1.33026">
        <ele>1241.4</ele>
        <time>2022-05-22 14:26:13</time>
      </trkpt>
      <trkpt lat="42.34822" lon="1.33028">
        <ele>1241.4</ele>
        <time>2022-05-22 14:26:14</time>
      </trkpt>
      <trkpt lat="42.34824" lon="1.33029">
        <ele>1241.6</ele>
        <time>2022-05-22 14:26:15</time>
      </trkpt>
      <trkpt lat="42.34825" lon="1.33031">
        <ele>1241.8</ele>
        <time>2022-05-22 14:26:16</time>
      </trkpt>
      <trkpt lat="42.34826" lon="1.33032">
        <ele>1241.8</ele>
        <time>2022-05-22 14:26:17</time>
      </trkpt>
      <trkpt lat="42.34827" lon="1.33034">
        <ele>1242</ele>
        <time>2022-05-22 14:26:18</time>
      </trkpt>
      <trkpt lat="42.34829" lon="1.33036">
        <ele>1242</ele>
        <time>2022-05-22 14:26:19</time>
      </trkpt>
      <trkpt lat="42.34831" lon="1.33038">
        <ele>1242.2</ele>
        <time>2022-05-22 14:26:20</time>
      </trkpt>
      <trkpt lat="42.34833" lon="1.3304">
        <ele>1242.2</ele>
        <time>2022-05-22 14:26:21</time>
      </trkpt>
      <trkpt lat="42.34835" lon="1.33042">
        <ele>1242.4</ele>
        <time>2022-05-22 14:26:22</time>
      </trkpt>
      <trkpt lat="42.34836" lon="1.33043">
        <ele>1242.4</ele>
        <time>2022-05-22 14:26:23</time>
      </trkpt>
      <trkpt lat="42.34838" lon="1.33045">
        <ele>1242.4</ele>
        <time>2022-05-22 14:26:24</time>
      </trkpt>
      <trkpt lat="42.3484" lon="1.33047">
        <ele>1242.6</ele>
        <time>2022-05-22 14:26:25</time>
      </trkpt>
      <trkpt lat="42.34842" lon="1.3305">
        <ele>1242.6</ele>
        <time>2022-05-22 14:26:26</time>
      </trkpt>
      <trkpt lat="42.34844" lon="1.33052">
        <ele>1242.8</ele>
        <time>2022-05-22 14:26:27</time>
      </trkpt>
      <trkpt lat="42.34846" lon="1.33053">
        <ele>1242.8</ele>
        <time>2022-05-22 14:26:28</time>
      </trkpt>
      <trkpt lat="42.34848" lon="1.33055">
        <ele>1243</ele>
        <time>2022-05-22 14:26:29</time>
      </trkpt>
      <trkpt lat="42.3485" lon="1.33056">
        <ele>1243</ele>
        <time>2022-05-22 14:26:30</time>
      </trkpt>
      <trkpt lat="42.34852" lon="1.33058">
        <ele>1243.2</ele>
        <time>2022-05-22 14:26:31</time>
      </trkpt>
      <trkpt lat="42.34853" lon="1.33059">
        <ele>1243.2</ele>
        <time>2022-05-22 14:26:32</time>
      </trkpt>
      <trkpt lat="42.34855" lon="1.3306">
        <ele>1243.4</ele>
        <time>2022-05-22 14:26:33</time>
      </trkpt>
      <trkpt lat="42.34858" lon="1.33061">
        <ele>1243.4</ele>
        <time>2022-05-22 14:26:34</time>
      </trkpt>
      <trkpt lat="42.3486" lon="1.33062">
        <ele>1243.6</ele>
        <time>2022-05-22 14:26:35</time>
      </trkpt>
      <trkpt lat="42.34862" lon="1.33063">
        <ele>1243.6</ele>
        <time>2022-05-22 14:26:36</time>
      </trkpt>
      <trkpt lat="42.34864" lon="1.33065">
        <ele>1243.8</ele>
        <time>2022-05-22 14:26:37</time>
      </trkpt>
      <trkpt lat="42.34866" lon="1.33066">
        <ele>1243.8</ele>
        <time>2022-05-22 14:26:38</time>
      </trkpt>
      <trkpt lat="42.34868" lon="1.33066">
        <ele>1244</ele>
        <time>2022-05-22 14:26:39</time>
      </trkpt>
      <trkpt lat="42.34871" lon="1.33067">
        <ele>1244</ele>
        <time>2022-05-22 14:26:40</time>
      </trkpt>
      <trkpt lat="42.34873" lon="1.33068">
        <ele>1244.2</ele>
        <time>2022-05-22 14:26:41</time>
      </trkpt>
      <trkpt lat="42.34875" lon="1.33068">
        <ele>1244.2</ele>
        <time>2022-05-22 14:26:42</time>
      </trkpt>
      <trkpt lat="42.34877" lon="1.33069">
        <ele>1244.4</ele>
        <time>2022-05-22 14:26:43</time>
      </trkpt>
      <trkpt lat="42.34879" lon="1.33069">
        <ele>1244.4</ele>
        <time>2022-05-22 14:26:44</time>
      </trkpt>
      <trkpt lat="42.34882" lon="1.33069">
        <ele>1244.6</ele>
        <time>2022-05-22 14:26:45</time>
      </trkpt>
      <trkpt lat="42.34884" lon="1.3307">
        <ele>1244.6</ele>
        <time>2022-05-22 14:26:46</time>
      </trkpt>
      <trkpt lat="42.34887" lon="1.3307">
        <ele>1244.8</ele>
        <time>2022-05-22 14:26:47</time>
      </trkpt>
      <trkpt lat="42.34889" lon="1.3307">
        <ele>1244.8</ele>
        <time>2022-05-22 14:26:48</time>
      </trkpt>
      <trkpt lat="42.34891" lon="1.3307">
        <ele>1245</ele>
        <time>2022-05-22 14:26:49</time>
      </trkpt>
      <trkpt lat="42.34894" lon="1.3307">
        <ele>1245</ele>
        <time>2022-05-22 14:26:50</time>
      </trkpt>
      <trkpt lat="42.34897" lon="1.33069">
        <ele>1245.2</ele>
        <time>2022-05-22 14:26:51</time>
      </trkpt>
      <trkpt lat="42.34899" lon="1.33069">
        <ele>1245.2</ele>
        <time>2022-05-22 14:26:52</time>
      </trkpt>
      <trkpt lat="42.34902" lon="1.33068">
        <ele>1245.4</ele>
        <time>2022-05-22 14:26:53</time>
      </trkpt>
      <trkpt lat="42.34904" lon="1.33068">
        <ele>1245.4</ele>
        <time>2022-05-22 14:26:54</time>
      </trkpt>
      <trkpt lat="42.34907" lon="1.33067">
        <ele>1245.6</ele>
        <time>2022-05-22 14:26:55</time>
      </trkpt>
      <trkpt lat="42.3491" lon="1.33066">
        <ele>1245.6</ele>
        <time>2022-05-22 14:26:56</time>
      </trkpt>
      <trkpt lat="42.34912" lon="1.33066">
        <ele>1245.6</ele>
        <time>2022-05-22 14:26:57</time>
      </trkpt>
      <trkpt lat="42.34915" lon="1.33065">
        <ele>1245.8</ele>
        <time>2022-05-22 14:26:58</time>
      </trkpt>
      <trkpt lat="42.34917" lon="1.33064">
        <ele>1245.8</ele>
        <time>2022-05-22 14:26:59</time>
      </trkpt>
      <trkpt lat="42.3492" lon="1.33063">
        <ele>1245.8</ele>
        <time>2022-05-22 14:27:00</time>
      </trkpt>
      <trkpt lat="42.34922" lon="1.33062">
        <ele>1246</ele>
        <time>2022-05-22 14:27:01</time>
      </trkpt>
      <trkpt lat="42.34925" lon="1.3306">
        <ele>1246</ele>
        <time>2022-05-22 14:27:02</time>
      </trkpt>
      <trkpt lat="42.34927" lon="1.33059">
        <ele>1246.2</ele>
        <time>2022-05-22 14:27:03</time>
      </trkpt>
      <trkpt lat="42.3493" lon="1.33058">
        <ele>1246.2</ele>
        <time>2022-05-22 14:27:04</time>
      </trkpt>
      <trkpt lat="42.34932" lon="1.33056">
        <ele>1246.2</ele>
        <time>2022-05-22 14:27:05</time>
      </trkpt>
      <trkpt lat="42.34935" lon="1.33055">
        <ele>1246.4</ele>
        <time>2022-05-22 14:27:06</time>
      </trkpt>
      <trkpt lat="42.34937" lon="1.33053">
        <ele>1246.4</ele>
        <time>2022-05-22 14:27:07</time>
      </trkpt>
      <trkpt lat="42.3494" lon="1.33052">
        <ele>1246.6</ele>
        <time>2022-05-22 14:27:08</time>
      </trkpt>
      <trkpt lat="42.34943" lon="1.3305">
        <ele>1246.6</ele>
        <time>2022-05-22 14:27:09</time>
      </trkpt>
      <trkpt lat="42.34945" lon="1.33048">
        <ele>1246.8</ele>
        <time>2022-05-22 14:27:10</time>
      </trkpt>
      <trkpt lat="42.34948" lon="1.33046">
        <ele>1247</ele>
        <time>2022-05-22 14:27:11</time>
      </trkpt>
      <trkpt lat="42.34951" lon="1.33043">
        <ele>1247.2</ele>
        <time>2022-05-22 14:27:12</time>
      </trkpt>
      <trkpt lat="42.34953" lon="1.3304">
        <ele>1247.2</ele>
        <time>2022-05-22 14:27:13</time>
      </trkpt>
      <trkpt lat="42.34955" lon="1.33038">
        <ele>1247.4</ele>
        <time>2022-05-22 14:27:14</time>
      </trkpt>
      <trkpt lat="42.34957" lon="1.33035">
        <ele>1247.4</ele>
        <time>2022-05-22 14:27:15</time>
      </trkpt>
      <trkpt lat="42.3496" lon="1.33032">
        <ele>1247.4</ele>
        <time>2022-05-22 14:27:16</time>
      </trkpt>
      <trkpt lat="42.34961" lon="1.33029">
        <ele>1247.6</ele>
        <time>2022-05-22 14:27:17</time>
      </trkpt>
      <trkpt lat="42.34963" lon="1.33026">
        <ele>1247.6</ele>
        <time>2022-05-22 14:27:18</time>
      </trkpt>
      <trkpt lat="42.34966" lon="1.33022">
        <ele>1247.6</ele>
        <time>2022-05-22 14:27:19</time>
      </trkpt>
      <trkpt lat="42.34968" lon="1.33019">
        <ele>1247.6</ele>
        <time>2022-05-22 14:27:20</time>
      </trkpt>
      <trkpt lat="42.34969" lon="1.33016">
        <ele>1247.8</ele>
        <time>2022-05-22 14:27:21</time>
      </trkpt>
      <trkpt lat="42.34971" lon="1.33012">
        <ele>1247.8</ele>
        <time>2022-05-22 14:27:22</time>
      </trkpt>
      <trkpt lat="42.34972" lon="1.33009">
        <ele>1248</ele>
        <time>2022-05-22 14:27:23</time>
      </trkpt>
      <trkpt lat="42.34974" lon="1.33005">
        <ele>1248.2</ele>
        <time>2022-05-22 14:27:24</time>
      </trkpt>
      <trkpt lat="42.34975" lon="1.33002">
        <ele>1248.2</ele>
        <time>2022-05-22 14:27:25</time>
      </trkpt>
      <trkpt lat="42.34976" lon="1.32998">
        <ele>1248.4</ele>
        <time>2022-05-22 14:27:26</time>
      </trkpt>
      <trkpt lat="42.34978" lon="1.32995">
        <ele>1248.6</ele>
        <time>2022-05-22 14:27:27</time>
      </trkpt>
      <trkpt lat="42.34979" lon="1.32991">
        <ele>1248.6</ele>
        <time>2022-05-22 14:27:28</time>
      </trkpt>
      <trkpt lat="42.34981" lon="1.32988">
        <ele>1248.8</ele>
        <time>2022-05-22 14:27:29</time>
      </trkpt>
      <trkpt lat="42.34982" lon="1.32985">
        <ele>1248.8</ele>
        <time>2022-05-22 14:27:30</time>
      </trkpt>
      <trkpt lat="42.34983" lon="1.32981">
        <ele>1249</ele>
        <time>2022-05-22 14:27:31</time>
      </trkpt>
      <trkpt lat="42.34984" lon="1.32978">
        <ele>1249</ele>
        <time>2022-05-22 14:27:32</time>
      </trkpt>
      <trkpt lat="42.34986" lon="1.32975">
        <ele>1249.2</ele>
        <time>2022-05-22 14:27:33</time>
      </trkpt>
      <trkpt lat="42.34987" lon="1.32971">
        <ele>1249.4</ele>
        <time>2022-05-22 14:27:34</time>
      </trkpt>
      <trkpt lat="42.34988" lon="1.32968">
        <ele>1249.6</ele>
        <time>2022-05-22 14:27:35</time>
      </trkpt>
      <trkpt lat="42.34989" lon="1.32965">
        <ele>1249.6</ele>
        <time>2022-05-22 14:27:36</time>
      </trkpt>
      <trkpt lat="42.34991" lon="1.32961">
        <ele>1249.8</ele>
        <time>2022-05-22 14:27:37</time>
      </trkpt>
      <trkpt lat="42.34992" lon="1.32958">
        <ele>1250</ele>
        <time>2022-05-22 14:27:38</time>
      </trkpt>
      <trkpt lat="42.34993" lon="1.32954">
        <ele>1250.2</ele>
        <time>2022-05-22 14:27:39</time>
      </trkpt>
      <trkpt lat="42.34995" lon="1.32951">
        <ele>1250.4</ele>
        <time>2022-05-22 14:27:40</time>
      </trkpt>
      <trkpt lat="42.34996" lon="1.32948">
        <ele>1250.6</ele>
        <time>2022-05-22 14:27:41</time>
      </trkpt>
      <trkpt lat="42.34997" lon="1.32945">
        <ele>1250.6</ele>
        <time>2022-05-22 14:27:42</time>
      </trkpt>
      <trkpt lat="42.34999" lon="1.32941">
        <ele>1250.8</ele>
        <time>2022-05-22 14:27:43</time>
      </trkpt>
      <trkpt lat="42.35" lon="1.32938">
        <ele>1251</ele>
        <time>2022-05-22 14:27:44</time>
      </trkpt>
      <trkpt lat="42.35002" lon="1.32935">
        <ele>1251.2</ele>
        <time>2022-05-22 14:27:45</time>
      </trkpt>
      <trkpt lat="42.35003" lon="1.32932">
        <ele>1251.4</ele>
        <time>2022-05-22 14:27:46</time>
      </trkpt>
      <trkpt lat="42.35005" lon="1.32929">
        <ele>1251.4</ele>
        <time>2022-05-22 14:27:47</time>
      </trkpt>
      <trkpt lat="42.35007" lon="1.32926">
        <ele>1251.6</ele>
        <time>2022-05-22 14:27:48</time>
      </trkpt>
      <trkpt lat="42.35008" lon="1.32923">
        <ele>1251.6</ele>
        <time>2022-05-22 14:27:49</time>
      </trkpt>
      <trkpt lat="42.3501" lon="1.3292">
        <ele>1251.8</ele>
        <time>2022-05-22 14:27:50</time>
      </trkpt>
      <trkpt lat="42.35012" lon="1.32918">
        <ele>1252</ele>
        <time>2022-05-22 14:27:51</time>
      </trkpt>
      <trkpt lat="42.35013" lon="1.32915">
        <ele>1252.2</ele>
        <time>2022-05-22 14:27:52</time>
      </trkpt>
      <trkpt lat="42.35015" lon="1.32913">
        <ele>1252.2</ele>
        <time>2022-05-22 14:27:53</time>
      </trkpt>
      <trkpt lat="42.35016" lon="1.32911">
        <ele>1252.4</ele>
        <time>2022-05-22 14:27:54</time>
      </trkpt>
      <trkpt lat="42.35018" lon="1.32908">
        <ele>1252.6</ele>
        <time>2022-05-22 14:27:55</time>
      </trkpt>
      <trkpt lat="42.35019" lon="1.32906">
        <ele>1252.8</ele>
        <time>2022-05-22 14:27:56</time>
      </trkpt>
      <trkpt lat="42.35021" lon="1.32903">
        <ele>1253</ele>
        <time>2022-05-22 14:27:57</time>
      </trkpt>
      <trkpt lat="42.35022" lon="1.32901">
        <ele>1253</ele>
        <time>2022-05-22 14:27:58</time>
      </trkpt>
      <trkpt lat="42.35024" lon="1.32899">
        <ele>1253.2</ele>
        <time>2022-05-22 14:27:59</time>
      </trkpt>
      <trkpt lat="42.35026" lon="1.32897">
        <ele>1253.4</ele>
        <time>2022-05-22 14:28:00</time>
      </trkpt>
      <trkpt lat="42.35027" lon="1.32895">
        <ele>1253.4</ele>
        <time>2022-05-22 14:28:01</time>
      </trkpt>
      <trkpt lat="42.35029" lon="1.32892">
        <ele>1253.6</ele>
        <time>2022-05-22 14:28:02</time>
      </trkpt>
      <trkpt lat="42.35031" lon="1.3289">
        <ele>1253.8</ele>
        <time>2022-05-22 14:28:03</time>
      </trkpt>
      <trkpt lat="42.35033" lon="1.32888">
        <ele>1253.8</ele>
        <time>2022-05-22 14:28:04</time>
      </trkpt>
      <trkpt lat="42.35035" lon="1.32886">
        <ele>1254</ele>
        <time>2022-05-22 14:28:05</time>
      </trkpt>
      <trkpt lat="42.35036" lon="1.32883">
        <ele>1254</ele>
        <time>2022-05-22 14:28:06</time>
      </trkpt>
      <trkpt lat="42.35038" lon="1.32881">
        <ele>1254.2</ele>
        <time>2022-05-22 14:28:07</time>
      </trkpt>
      <trkpt lat="42.3504" lon="1.32879">
        <ele>1254.2</ele>
        <time>2022-05-22 14:28:08</time>
      </trkpt>
      <trkpt lat="42.35042" lon="1.32877">
        <ele>1254.4</ele>
        <time>2022-05-22 14:28:09</time>
      </trkpt>
      <trkpt lat="42.35044" lon="1.32875">
        <ele>1254.6</ele>
        <time>2022-05-22 14:28:10</time>
      </trkpt>
      <trkpt lat="42.35046" lon="1.32874">
        <ele>1254.8</ele>
        <time>2022-05-22 14:28:11</time>
      </trkpt>
      <trkpt lat="42.35047" lon="1.32872">
        <ele>1254.8</ele>
        <time>2022-05-22 14:28:12</time>
      </trkpt>
      <trkpt lat="42.35049" lon="1.3287">
        <ele>1255</ele>
        <time>2022-05-22 14:28:13</time>
      </trkpt>
      <trkpt lat="42.35051" lon="1.32869">
        <ele>1255.2</ele>
        <time>2022-05-22 14:28:14</time>
      </trkpt>
      <trkpt lat="42.35053" lon="1.32867">
        <ele>1255.4</ele>
        <time>2022-05-22 14:28:15</time>
      </trkpt>
      <trkpt lat="42.35055" lon="1.32865">
        <ele>1255.4</ele>
        <time>2022-05-22 14:28:16</time>
      </trkpt>
      <trkpt lat="42.35057" lon="1.32863">
        <ele>1255.6</ele>
        <time>2022-05-22 14:28:17</time>
      </trkpt>
      <trkpt lat="42.35059" lon="1.32862">
        <ele>1255.8</ele>
        <time>2022-05-22 14:28:18</time>
      </trkpt>
      <trkpt lat="42.3506" lon="1.3286">
        <ele>1256</ele>
        <time>2022-05-22 14:28:19</time>
      </trkpt>
      <trkpt lat="42.35062" lon="1.32859">
        <ele>1256</ele>
        <time>2022-05-22 14:28:20</time>
      </trkpt>
      <trkpt lat="42.35064" lon="1.32858">
        <ele>1256.2</ele>
        <time>2022-05-22 14:28:21</time>
      </trkpt>
      <trkpt lat="42.35066" lon="1.32857">
        <ele>1256.4</ele>
        <time>2022-05-22 14:28:22</time>
      </trkpt>
      <trkpt lat="42.35067" lon="1.32855">
        <ele>1256.4</ele>
        <time>2022-05-22 14:28:23</time>
      </trkpt>
      <trkpt lat="42.3507" lon="1.32853">
        <ele>1256.6</ele>
        <time>2022-05-22 14:28:24</time>
      </trkpt>
      <trkpt lat="42.35072" lon="1.32852">
        <ele>1256.8</ele>
        <time>2022-05-22 14:28:25</time>
      </trkpt>
      <trkpt lat="42.35074" lon="1.32851">
        <ele>1257</ele>
        <time>2022-05-22 14:28:26</time>
      </trkpt>
      <trkpt lat="42.35076" lon="1.3285">
        <ele>1257</ele>
        <time>2022-05-22 14:28:27</time>
      </trkpt>
      <trkpt lat="42.35078" lon="1.32849">
        <ele>1257.2</ele>
        <time>2022-05-22 14:28:28</time>
      </trkpt>
      <trkpt lat="42.3508" lon="1.32847">
        <ele>1257.2</ele>
        <time>2022-05-22 14:28:29</time>
      </trkpt>
      <trkpt lat="42.35083" lon="1.32846">
        <ele>1257.4</ele>
        <time>2022-05-22 14:28:30</time>
      </trkpt>
      <trkpt lat="42.35085" lon="1.32845">
        <ele>1257.4</ele>
        <time>2022-05-22 14:28:31</time>
      </trkpt>
      <trkpt lat="42.35087" lon="1.32844">
        <ele>1257.6</ele>
        <time>2022-05-22 14:28:32</time>
      </trkpt>
      <trkpt lat="42.35089" lon="1.32843">
        <ele>1257.6</ele>
        <time>2022-05-22 14:28:33</time>
      </trkpt>
      <trkpt lat="42.35092" lon="1.32843">
        <ele>1257.8</ele>
        <time>2022-05-22 14:28:34</time>
      </trkpt>
      <trkpt lat="42.35094" lon="1.32842">
        <ele>1257.8</ele>
        <time>2022-05-22 14:28:35</time>
      </trkpt>
      <trkpt lat="42.35096" lon="1.32842">
        <ele>1258</ele>
        <time>2022-05-22 14:28:36</time>
      </trkpt>
      <trkpt lat="42.35099" lon="1.32842">
        <ele>1258.2</ele>
        <time>2022-05-22 14:28:37</time>
      </trkpt>
      <trkpt lat="42.35101" lon="1.32843">
        <ele>1258.2</ele>
        <time>2022-05-22 14:28:38</time>
      </trkpt>
      <trkpt lat="42.35103" lon="1.32844">
        <ele>1258.4</ele>
        <time>2022-05-22 14:28:39</time>
      </trkpt>
      <trkpt lat="42.35105" lon="1.32845">
        <ele>1258.6</ele>
        <time>2022-05-22 14:28:40</time>
      </trkpt>
      <trkpt lat="42.35107" lon="1.32847">
        <ele>1258.6</ele>
        <time>2022-05-22 14:28:41</time>
      </trkpt>
      <trkpt lat="42.35109" lon="1.32848">
        <ele>1258.8</ele>
        <time>2022-05-22 14:28:42</time>
      </trkpt>
      <trkpt lat="42.35111" lon="1.3285">
        <ele>1259</ele>
        <time>2022-05-22 14:28:43</time>
      </trkpt>
      <trkpt lat="42.35113" lon="1.32853">
        <ele>1259</ele>
        <time>2022-05-22 14:28:44</time>
      </trkpt>
      <trkpt lat="42.35115" lon="1.32855">
        <ele>1259.2</ele>
        <time>2022-05-22 14:28:45</time>
      </trkpt>
      <trkpt lat="42.35117" lon="1.32858">
        <ele>1259.4</ele>
        <time>2022-05-22 14:28:46</time>
      </trkpt>
      <trkpt lat="42.35118" lon="1.32861">
        <ele>1259.4</ele>
        <time>2022-05-22 14:28:47</time>
      </trkpt>
      <trkpt lat="42.35121" lon="1.32864">
        <ele>1259.6</ele>
        <time>2022-05-22 14:28:48</time>
      </trkpt>
      <trkpt lat="42.35123" lon="1.32867">
        <ele>1259.6</ele>
        <time>2022-05-22 14:28:49</time>
      </trkpt>
      <trkpt lat="42.35125" lon="1.32871">
        <ele>1259.8</ele>
        <time>2022-05-22 14:28:50</time>
      </trkpt>
      <trkpt lat="42.35127" lon="1.32874">
        <ele>1259.8</ele>
        <time>2022-05-22 14:28:51</time>
      </trkpt>
      <trkpt lat="42.3513" lon="1.32877">
        <ele>1259.8</ele>
        <time>2022-05-22 14:28:52</time>
      </trkpt>
      <trkpt lat="42.35132" lon="1.32879">
        <ele>1259.8</ele>
        <time>2022-05-22 14:28:53</time>
      </trkpt>
      <trkpt lat="42.35135" lon="1.32882">
        <ele>1260</ele>
        <time>2022-05-22 14:28:54</time>
      </trkpt>
      <trkpt lat="42.35137" lon="1.32884">
        <ele>1260</ele>
        <time>2022-05-22 14:28:55</time>
      </trkpt>
      <trkpt lat="42.35141" lon="1.32885">
        <ele>1260</ele>
        <time>2022-05-22 14:28:56</time>
      </trkpt>
      <trkpt lat="42.35144" lon="1.32886">
        <ele>1260</ele>
        <time>2022-05-22 14:28:57</time>
      </trkpt>
      <trkpt lat="42.35148" lon="1.32886">
        <ele>1260</ele>
        <time>2022-05-22 14:28:58</time>
      </trkpt>
      <trkpt lat="42.35151" lon="1.32886">
        <ele>1260.2</ele>
        <time>2022-05-22 14:28:59</time>
      </trkpt>
      <trkpt lat="42.35154" lon="1.32885">
        <ele>1260.2</ele>
        <time>2022-05-22 14:29:00</time>
      </trkpt>
      <trkpt lat="42.35157" lon="1.32883">
        <ele>1260.4</ele>
        <time>2022-05-22 14:29:01</time>
      </trkpt>
      <trkpt lat="42.3516" lon="1.32881">
        <ele>1260.4</ele>
        <time>2022-05-22 14:29:02</time>
      </trkpt>
      <trkpt lat="42.35162" lon="1.32878">
        <ele>1260.4</ele>
        <time>2022-05-22 14:29:03</time>
      </trkpt>
      <trkpt lat="42.35164" lon="1.32875">
        <ele>1260.6</ele>
        <time>2022-05-22 14:29:04</time>
      </trkpt>
      <trkpt lat="42.35166" lon="1.32874">
        <ele>1260.6</ele>
        <time>2022-05-22 14:29:05</time>
      </trkpt>
      <trkpt lat="42.35166" lon="1.32875">
        <ele>1261.2</ele>
        <time>2022-05-22 14:29:06</time>
      </trkpt>
      <trkpt lat="42.35166" lon="1.32877">
        <ele>1261.2</ele>
        <time>2022-05-22 14:30:48</time>
      </trkpt>
      <trkpt lat="42.35166" lon="1.32879">
        <ele>1261.2</ele>
        <time>2022-05-22 14:30:49</time>
      </trkpt>
      <trkpt lat="42.35167" lon="1.32879">
        <ele>1261</ele>
        <time>2022-05-22 14:30:50</time>
      </trkpt>
      <trkpt lat="42.35167" lon="1.32879">
        <ele>1261</ele>
        <time>2022-05-22 14:30:51</time>
      </trkpt>
      <trkpt lat="42.35167" lon="1.32879">
        <ele>1261</ele>
        <time>2022-05-22 14:30:52</time>
      </trkpt>
      <trkpt lat="42.35171" lon="1.32856">
        <ele>1260.8</ele>
        <time>2022-05-22 14:30:53</time>
      </trkpt>
      <trkpt lat="42.35172" lon="1.32852">
        <ele>1261</ele>
        <time>2022-05-22 14:43:26</time>
      </trkpt>
      <trkpt lat="42.35172" lon="1.32849">
        <ele>1261</ele>
        <time>2022-05-22 14:43:27</time>
      </trkpt>
      <trkpt lat="42.35172" lon="1.32845">
        <ele>1261</ele>
        <time>2022-05-22 14:43:28</time>
      </trkpt>
      <trkpt lat="42.35173" lon="1.32841">
        <ele>1261</ele>
        <time>2022-05-22 14:43:29</time>
      </trkpt>
      <trkpt lat="42.35173" lon="1.32837">
        <ele>1261.2</ele>
        <time>2022-05-22 14:43:30</time>
      </trkpt>
      <trkpt lat="42.35174" lon="1.32834">
        <ele>1261.4</ele>
        <time>2022-05-22 14:43:31</time>
      </trkpt>
      <trkpt lat="42.35174" lon="1.3283">
        <ele>1261.4</ele>
        <time>2022-05-22 14:43:32</time>
      </trkpt>
      <trkpt lat="42.35175" lon="1.32826">
        <ele>1261.6</ele>
        <time>2022-05-22 14:43:33</time>
      </trkpt>
      <trkpt lat="42.35176" lon="1.32822">
        <ele>1261.8</ele>
        <time>2022-05-22 14:43:34</time>
      </trkpt>
      <trkpt lat="42.35176" lon="1.32818">
        <ele>1262</ele>
        <time>2022-05-22 14:43:35</time>
      </trkpt>
      <trkpt lat="42.35177" lon="1.32814">
        <ele>1262.2</ele>
        <time>2022-05-22 14:43:36</time>
      </trkpt>
      <trkpt lat="42.35179" lon="1.3281">
        <ele>1262.2</ele>
        <time>2022-05-22 14:43:37</time>
      </trkpt>
      <trkpt lat="42.3518" lon="1.32806">
        <ele>1262.4</ele>
        <time>2022-05-22 14:43:38</time>
      </trkpt>
      <trkpt lat="42.35182" lon="1.32802">
        <ele>1262.4</ele>
        <time>2022-05-22 14:43:39</time>
      </trkpt>
      <trkpt lat="42.35183" lon="1.32797">
        <ele>1262.6</ele>
        <time>2022-05-22 14:43:40</time>
      </trkpt>
      <trkpt lat="42.35185" lon="1.32793">
        <ele>1262.6</ele>
        <time>2022-05-22 14:43:41</time>
      </trkpt>
      <trkpt lat="42.35187" lon="1.32788">
        <ele>1262.6</ele>
        <time>2022-05-22 14:43:42</time>
      </trkpt>
      <trkpt lat="42.35189" lon="1.32784">
        <ele>1262.6</ele>
        <time>2022-05-22 14:43:43</time>
      </trkpt>
      <trkpt lat="42.35191" lon="1.3278">
        <ele>1262.8</ele>
        <time>2022-05-22 14:43:44</time>
      </trkpt>
      <trkpt lat="42.35194" lon="1.32776">
        <ele>1262.8</ele>
        <time>2022-05-22 14:43:45</time>
      </trkpt>
      <trkpt lat="42.35197" lon="1.32772">
        <ele>1262.8</ele>
        <time>2022-05-22 14:43:46</time>
      </trkpt>
      <trkpt lat="42.352" lon="1.32769">
        <ele>1262.8</ele>
        <time>2022-05-22 14:43:47</time>
      </trkpt>
      <trkpt lat="42.35204" lon="1.32765">
        <ele>1262.8</ele>
        <time>2022-05-22 14:43:48</time>
      </trkpt>
      <trkpt lat="42.35208" lon="1.32762">
        <ele>1262.8</ele>
        <time>2022-05-22 14:43:49</time>
      </trkpt>
      <trkpt lat="42.35212" lon="1.3276">
        <ele>1262.6</ele>
        <time>2022-05-22 14:43:50</time>
      </trkpt>
      <trkpt lat="42.35216" lon="1.32758">
        <ele>1262.6</ele>
        <time>2022-05-22 14:43:51</time>
      </trkpt>
      <trkpt lat="42.3522" lon="1.32757">
        <ele>1262.6</ele>
        <time>2022-05-22 14:43:52</time>
      </trkpt>
      <trkpt lat="42.35225" lon="1.32758">
        <ele>1262.6</ele>
        <time>2022-05-22 14:43:53</time>
      </trkpt>
      <trkpt lat="42.35229" lon="1.32758">
        <ele>1262.6</ele>
        <time>2022-05-22 14:43:54</time>
      </trkpt>
      <trkpt lat="42.35233" lon="1.32758">
        <ele>1262.4</ele>
        <time>2022-05-22 14:43:55</time>
      </trkpt>
      <trkpt lat="42.35238" lon="1.32757">
        <ele>1262.4</ele>
        <time>2022-05-22 14:43:56</time>
      </trkpt>
      <trkpt lat="42.35242" lon="1.32754">
        <ele>1262.2</ele>
        <time>2022-05-22 14:43:57</time>
      </trkpt>
      <trkpt lat="42.35245" lon="1.3275">
        <ele>1262</ele>
        <time>2022-05-22 14:43:58</time>
      </trkpt>
      <trkpt lat="42.35247" lon="1.32745">
        <ele>1261.8</ele>
        <time>2022-05-22 14:43:59</time>
      </trkpt>
      <trkpt lat="42.35249" lon="1.32739">
        <ele>1261.6</ele>
        <time>2022-05-22 14:44:00</time>
      </trkpt>
      <trkpt lat="42.35249" lon="1.32733">
        <ele>1261.6</ele>
        <time>2022-05-22 14:44:01</time>
      </trkpt>
      <trkpt lat="42.35249" lon="1.32726">
        <ele>1261.4</ele>
        <time>2022-05-22 14:44:02</time>
      </trkpt>
      <trkpt lat="42.35248" lon="1.3272">
        <ele>1261.4</ele>
        <time>2022-05-22 14:44:03</time>
      </trkpt>
      <trkpt lat="42.35246" lon="1.32714">
        <ele>1261.2</ele>
        <time>2022-05-22 14:44:04</time>
      </trkpt>
      <trkpt lat="42.35244" lon="1.32707">
        <ele>1261.2</ele>
        <time>2022-05-22 14:44:05</time>
      </trkpt>
      <trkpt lat="42.35241" lon="1.32701">
        <ele>1260.8</ele>
        <time>2022-05-22 14:44:06</time>
      </trkpt>
      <trkpt lat="42.35238" lon="1.32694">
        <ele>1260.6</ele>
        <time>2022-05-22 14:44:07</time>
      </trkpt>
      <trkpt lat="42.35234" lon="1.32687">
        <ele>1260.2</ele>
        <time>2022-05-22 14:44:08</time>
      </trkpt>
      <trkpt lat="42.35229" lon="1.3268">
        <ele>1260</ele>
        <time>2022-05-22 14:44:09</time>
      </trkpt>
      <trkpt lat="42.35225" lon="1.32673">
        <ele>1259.8</ele>
        <time>2022-05-22 14:44:10</time>
      </trkpt>
      <trkpt lat="42.3522" lon="1.32665">
        <ele>1259.4</ele>
        <time>2022-05-22 14:44:11</time>
      </trkpt>
      <trkpt lat="42.35216" lon="1.32657">
        <ele>1259</ele>
        <time>2022-05-22 14:44:12</time>
      </trkpt>
      <trkpt lat="42.35211" lon="1.32648">
        <ele>1258.4</ele>
        <time>2022-05-22 14:44:13</time>
      </trkpt>
      <trkpt lat="42.35207" lon="1.32639">
        <ele>1257.8</ele>
        <time>2022-05-22 14:44:14</time>
      </trkpt>
      <trkpt lat="42.35203" lon="1.32628">
        <ele>1257</ele>
        <time>2022-05-22 14:44:15</time>
      </trkpt>
      <trkpt lat="42.35199" lon="1.32617">
        <ele>1256.4</ele>
        <time>2022-05-22 14:44:16</time>
      </trkpt>
      <trkpt lat="42.35196" lon="1.32604">
        <ele>1256</ele>
        <time>2022-05-22 14:44:17</time>
      </trkpt>
      <trkpt lat="42.35194" lon="1.32592">
        <ele>1255.6</ele>
        <time>2022-05-22 14:44:18</time>
      </trkpt>
      <trkpt lat="42.35192" lon="1.3258">
        <ele>1254.8</ele>
        <time>2022-05-22 14:44:19</time>
      </trkpt>
      <trkpt lat="42.35191" lon="1.32568">
        <ele>1254.4</ele>
        <time>2022-05-22 14:44:20</time>
      </trkpt>
      <trkpt lat="42.35189" lon="1.32556">
        <ele>1253.8</ele>
        <time>2022-05-22 14:44:21</time>
      </trkpt>
      <trkpt lat="42.35187" lon="1.32544">
        <ele>1253.4</ele>
        <time>2022-05-22 14:44:22</time>
      </trkpt>
      <trkpt lat="42.35185" lon="1.32532">
        <ele>1252.8</ele>
        <time>2022-05-22 14:44:23</time>
      </trkpt>
      <trkpt lat="42.35184" lon="1.3252">
        <ele>1252.2</ele>
        <time>2022-05-22 14:44:24</time>
      </trkpt>
      <trkpt lat="42.35183" lon="1.32508">
        <ele>1251.8</ele>
        <time>2022-05-22 14:44:25</time>
      </trkpt>
      <trkpt lat="42.35182" lon="1.32496">
        <ele>1251.4</ele>
        <time>2022-05-22 14:44:26</time>
      </trkpt>
      <trkpt lat="42.35182" lon="1.32483">
        <ele>1250.8</ele>
        <time>2022-05-22 14:44:27</time>
      </trkpt>
      <trkpt lat="42.35182" lon="1.32471">
        <ele>1250.6</ele>
        <time>2022-05-22 14:44:28</time>
      </trkpt>
      <trkpt lat="42.35183" lon="1.32459">
        <ele>1250.2</ele>
        <time>2022-05-22 14:44:29</time>
      </trkpt>
      <trkpt lat="42.35183" lon="1.32448">
        <ele>1250</ele>
        <time>2022-05-22 14:44:30</time>
      </trkpt>
      <trkpt lat="42.35184" lon="1.32436">
        <ele>1249.8</ele>
        <time>2022-05-22 14:44:31</time>
      </trkpt>
      <trkpt lat="42.35185" lon="1.32424">
        <ele>1249.8</ele>
        <time>2022-05-22 14:44:32</time>
      </trkpt>
      <trkpt lat="42.35186" lon="1.32413">
        <ele>1249.8</ele>
        <time>2022-05-22 14:44:33</time>
      </trkpt>
      <trkpt lat="42.35186" lon="1.32402">
        <ele>1250</ele>
        <time>2022-05-22 14:44:34</time>
      </trkpt>
      <trkpt lat="42.35186" lon="1.32391">
        <ele>1250.2</ele>
        <time>2022-05-22 14:44:35</time>
      </trkpt>
      <trkpt lat="42.35186" lon="1.3238">
        <ele>1250.2</ele>
        <time>2022-05-22 14:44:36</time>
      </trkpt>
      <trkpt lat="42.35185" lon="1.3237">
        <ele>1250</ele>
        <time>2022-05-22 14:44:37</time>
      </trkpt>
      <trkpt lat="42.35184" lon="1.32359">
        <ele>1249.8</ele>
        <time>2022-05-22 14:44:38</time>
      </trkpt>
      <trkpt lat="42.35182" lon="1.32349">
        <ele>1249.4</ele>
        <time>2022-05-22 14:44:39</time>
      </trkpt>
      <trkpt lat="42.35179" lon="1.32339">
        <ele>1249</ele>
        <time>2022-05-22 14:44:40</time>
      </trkpt>
      <trkpt lat="42.35177" lon="1.32329">
        <ele>1249</ele>
        <time>2022-05-22 14:44:41</time>
      </trkpt>
      <trkpt lat="42.35175" lon="1.32319">
        <ele>1248.6</ele>
        <time>2022-05-22 14:44:42</time>
      </trkpt>
      <trkpt lat="42.35173" lon="1.32309">
        <ele>1248.4</ele>
        <time>2022-05-22 14:44:43</time>
      </trkpt>
      <trkpt lat="42.3517" lon="1.32299">
        <ele>1248.2</ele>
        <time>2022-05-22 14:44:44</time>
      </trkpt>
      <trkpt lat="42.35168" lon="1.32289">
        <ele>1248.2</ele>
        <time>2022-05-22 14:44:45</time>
      </trkpt>
      <trkpt lat="42.35167" lon="1.32279">
        <ele>1248</ele>
        <time>2022-05-22 14:44:46</time>
      </trkpt>
      <trkpt lat="42.35165" lon="1.32269">
        <ele>1248</ele>
        <time>2022-05-22 14:44:47</time>
      </trkpt>
      <trkpt lat="42.35164" lon="1.32259">
        <ele>1248</ele>
        <time>2022-05-22 14:44:48</time>
      </trkpt>
      <trkpt lat="42.35163" lon="1.32249">
        <ele>1248</ele>
        <time>2022-05-22 14:44:49</time>
      </trkpt>
      <trkpt lat="42.35163" lon="1.32239">
        <ele>1247.6</ele>
        <time>2022-05-22 14:44:50</time>
      </trkpt>
      <trkpt lat="42.35163" lon="1.3223">
        <ele>1247.6</ele>
        <time>2022-05-22 14:44:51</time>
      </trkpt>
      <trkpt lat="42.35164" lon="1.3222">
        <ele>1247.6</ele>
        <time>2022-05-22 14:44:52</time>
      </trkpt>
      <trkpt lat="42.35165" lon="1.32211">
        <ele>1247.6</ele>
        <time>2022-05-22 14:44:53</time>
      </trkpt>
      <trkpt lat="42.35166" lon="1.32202">
        <ele>1247.4</ele>
        <time>2022-05-22 14:44:54</time>
      </trkpt>
      <trkpt lat="42.35169" lon="1.32193">
        <ele>1247.4</ele>
        <time>2022-05-22 14:44:55</time>
      </trkpt>
      <trkpt lat="42.35171" lon="1.32184">
        <ele>1247.2</ele>
        <time>2022-05-22 14:44:56</time>
      </trkpt>
      <trkpt lat="42.35174" lon="1.32176">
        <ele>1247.2</ele>
        <time>2022-05-22 14:44:57</time>
      </trkpt>
      <trkpt lat="42.35177" lon="1.32169">
        <ele>1247.2</ele>
        <time>2022-05-22 14:44:58</time>
      </trkpt>
      <trkpt lat="42.35181" lon="1.32161">
        <ele>1247.2</ele>
        <time>2022-05-22 14:44:59</time>
      </trkpt>
      <trkpt lat="42.35185" lon="1.32154">
        <ele>1247</ele>
        <time>2022-05-22 14:45:00</time>
      </trkpt>
      <trkpt lat="42.35189" lon="1.32147">
        <ele>1247</ele>
        <time>2022-05-22 14:45:01</time>
      </trkpt>
      <trkpt lat="42.35194" lon="1.32141">
        <ele>1247.2</ele>
        <time>2022-05-22 14:45:02</time>
      </trkpt>
      <trkpt lat="42.35198" lon="1.32136">
        <ele>1247.4</ele>
        <time>2022-05-22 14:45:03</time>
      </trkpt>
      <trkpt lat="42.35203" lon="1.32131">
        <ele>1247.4</ele>
        <time>2022-05-22 14:45:04</time>
      </trkpt>
      <trkpt lat="42.35208" lon="1.32126">
        <ele>1247.6</ele>
        <time>2022-05-22 14:45:05</time>
      </trkpt>
      <trkpt lat="42.35213" lon="1.32122">
        <ele>1247.6</ele>
        <time>2022-05-22 14:45:06</time>
      </trkpt>
      <trkpt lat="42.35217" lon="1.32118">
        <ele>1247.6</ele>
        <time>2022-05-22 14:45:07</time>
      </trkpt>
      <trkpt lat="42.35223" lon="1.32115">
        <ele>1247.8</ele>
        <time>2022-05-22 14:45:08</time>
      </trkpt>
      <trkpt lat="42.35227" lon="1.32111">
        <ele>1247.8</ele>
        <time>2022-05-22 14:45:09</time>
      </trkpt>
      <trkpt lat="42.35232" lon="1.32107">
        <ele>1248</ele>
        <time>2022-05-22 14:45:10</time>
      </trkpt>
      <trkpt lat="42.35237" lon="1.32103">
        <ele>1248.2</ele>
        <time>2022-05-22 14:45:11</time>
      </trkpt>
      <trkpt lat="42.35242" lon="1.32099">
        <ele>1248.2</ele>
        <time>2022-05-22 14:45:12</time>
      </trkpt>
      <trkpt lat="42.35246" lon="1.32095">
        <ele>1248.4</ele>
        <time>2022-05-22 14:45:13</time>
      </trkpt>
      <trkpt lat="42.3525" lon="1.3209">
        <ele>1248.4</ele>
        <time>2022-05-22 14:45:14</time>
      </trkpt>
      <trkpt lat="42.35254" lon="1.32085">
        <ele>1248.4</ele>
        <time>2022-05-22 14:45:15</time>
      </trkpt>
      <trkpt lat="42.35258" lon="1.3208">
        <ele>1248.4</ele>
        <time>2022-05-22 14:45:16</time>
      </trkpt>
      <trkpt lat="42.35262" lon="1.32075">
        <ele>1248.6</ele>
        <time>2022-05-22 14:45:17</time>
      </trkpt>
      <trkpt lat="42.35265" lon="1.3207">
        <ele>1248.6</ele>
        <time>2022-05-22 14:45:18</time>
      </trkpt>
      <trkpt lat="42.35268" lon="1.32065">
        <ele>1248.6</ele>
        <time>2022-05-22 14:45:19</time>
      </trkpt>
      <trkpt lat="42.35271" lon="1.32059">
        <ele>1248.6</ele>
        <time>2022-05-22 14:45:20</time>
      </trkpt>
      <trkpt lat="42.35274" lon="1.32053">
        <ele>1248.8</ele>
        <time>2022-05-22 14:45:21</time>
      </trkpt>
      <trkpt lat="42.35276" lon="1.32046">
        <ele>1248.8</ele>
        <time>2022-05-22 14:45:22</time>
      </trkpt>
      <trkpt lat="42.35278" lon="1.32039">
        <ele>1249</ele>
        <time>2022-05-22 14:45:23</time>
      </trkpt>
      <trkpt lat="42.35279" lon="1.32032">
        <ele>1249</ele>
        <time>2022-05-22 14:45:24</time>
      </trkpt>
      <trkpt lat="42.35281" lon="1.32025">
        <ele>1248.8</ele>
        <time>2022-05-22 14:45:25</time>
      </trkpt>
      <trkpt lat="42.35281" lon="1.32017">
        <ele>1248.8</ele>
        <time>2022-05-22 14:45:26</time>
      </trkpt>
      <trkpt lat="42.35282" lon="1.3201">
        <ele>1248.8</ele>
        <time>2022-05-22 14:45:27</time>
      </trkpt>
      <trkpt lat="42.35282" lon="1.32004">
        <ele>1248.8</ele>
        <time>2022-05-22 14:45:28</time>
      </trkpt>
      <trkpt lat="42.35283" lon="1.31997">
        <ele>1248.8</ele>
        <time>2022-05-22 14:45:29</time>
      </trkpt>
      <trkpt lat="42.35284" lon="1.3199">
        <ele>1248.8</ele>
        <time>2022-05-22 14:45:30</time>
      </trkpt>
      <trkpt lat="42.35284" lon="1.31984">
        <ele>1249</ele>
        <time>2022-05-22 14:45:31</time>
      </trkpt>
      <trkpt lat="42.35285" lon="1.31978">
        <ele>1249</ele>
        <time>2022-05-22 14:45:32</time>
      </trkpt>
      <trkpt lat="42.35285" lon="1.31971">
        <ele>1249.2</ele>
        <time>2022-05-22 14:45:33</time>
      </trkpt>
      <trkpt lat="42.35286" lon="1.31965">
        <ele>1249.4</ele>
        <time>2022-05-22 14:45:34</time>
      </trkpt>
      <trkpt lat="42.35286" lon="1.3196">
        <ele>1249.6</ele>
        <time>2022-05-22 14:45:35</time>
      </trkpt>
      <trkpt lat="42.35287" lon="1.31954">
        <ele>1249.8</ele>
        <time>2022-05-22 14:45:36</time>
      </trkpt>
      <trkpt lat="42.35288" lon="1.31949">
        <ele>1250</ele>
        <time>2022-05-22 14:45:37</time>
      </trkpt>
      <trkpt lat="42.35289" lon="1.31944">
        <ele>1250.4</ele>
        <time>2022-05-22 14:45:38</time>
      </trkpt>
      <trkpt lat="42.3529" lon="1.31939">
        <ele>1250.8</ele>
        <time>2022-05-22 14:45:39</time>
      </trkpt>
      <trkpt lat="42.35291" lon="1.31934">
        <ele>1251</ele>
        <time>2022-05-22 14:45:40</time>
      </trkpt>
      <trkpt lat="42.35293" lon="1.31929">
        <ele>1251.4</ele>
        <time>2022-05-22 14:45:41</time>
      </trkpt>
      <trkpt lat="42.35294" lon="1.31925">
        <ele>1251.8</ele>
        <time>2022-05-22 14:45:42</time>
      </trkpt>
      <trkpt lat="42.35295" lon="1.3192">
        <ele>1252</ele>
        <time>2022-05-22 14:45:43</time>
      </trkpt>
      <trkpt lat="42.35296" lon="1.31915">
        <ele>1252.4</ele>
        <time>2022-05-22 14:45:44</time>
      </trkpt>
      <trkpt lat="42.35297" lon="1.31912">
        <ele>1252.6</ele>
        <time>2022-05-22 14:45:45</time>
      </trkpt>
      <trkpt lat="42.35298" lon="1.31909">
        <ele>1253</ele>
        <time>2022-05-22 14:45:46</time>
      </trkpt>
      <trkpt lat="42.35299" lon="1.31906">
        <ele>1253.2</ele>
        <time>2022-05-22 14:45:47</time>
      </trkpt>
      <trkpt lat="42.35299" lon="1.31903">
        <ele>1253.6</ele>
        <time>2022-05-22 14:45:48</time>
      </trkpt>
      <trkpt lat="42.35301" lon="1.319">
        <ele>1253.8</ele>
        <time>2022-05-22 14:45:49</time>
      </trkpt>
      <trkpt lat="42.35302" lon="1.31898">
        <ele>1254.2</ele>
        <time>2022-05-22 14:45:50</time>
      </trkpt>
      <trkpt lat="42.35303" lon="1.31895">
        <ele>1254.4</ele>
        <time>2022-05-22 14:45:51</time>
      </trkpt>
      <trkpt lat="42.35304" lon="1.31893">
        <ele>1254.6</ele>
        <time>2022-05-22 14:45:52</time>
      </trkpt>
      <trkpt lat="42.35305" lon="1.3189">
        <ele>1255</ele>
        <time>2022-05-22 14:45:53</time>
      </trkpt>
      <trkpt lat="42.35306" lon="1.31888">
        <ele>1255.2</ele>
        <time>2022-05-22 14:45:54</time>
      </trkpt>
      <trkpt lat="42.35307" lon="1.31885">
        <ele>1255.4</ele>
        <time>2022-05-22 14:45:55</time>
      </trkpt>
      <trkpt lat="42.35309" lon="1.31882">
        <ele>1255.6</ele>
        <time>2022-05-22 14:45:56</time>
      </trkpt>
      <trkpt lat="42.3531" lon="1.3188">
        <ele>1255.8</ele>
        <time>2022-05-22 14:45:57</time>
      </trkpt>
      <trkpt lat="42.35311" lon="1.31877">
        <ele>1256.2</ele>
        <time>2022-05-22 14:45:58</time>
      </trkpt>
      <trkpt lat="42.35312" lon="1.31875">
        <ele>1256.4</ele>
        <time>2022-05-22 14:45:59</time>
      </trkpt>
      <trkpt lat="42.35313" lon="1.31872">
        <ele>1256.6</ele>
        <time>2022-05-22 14:46:00</time>
      </trkpt>
      <trkpt lat="42.35314" lon="1.31869">
        <ele>1256.8</ele>
        <time>2022-05-22 14:46:01</time>
      </trkpt>
      <trkpt lat="42.35315" lon="1.31866">
        <ele>1257</ele>
        <time>2022-05-22 14:46:02</time>
      </trkpt>
      <trkpt lat="42.35317" lon="1.31863">
        <ele>1257.2</ele>
        <time>2022-05-22 14:46:03</time>
      </trkpt>
      <trkpt lat="42.35318" lon="1.31861">
        <ele>1257.4</ele>
        <time>2022-05-22 14:46:04</time>
      </trkpt>
      <trkpt lat="42.35319" lon="1.31858">
        <ele>1257.6</ele>
        <time>2022-05-22 14:46:05</time>
      </trkpt>
      <trkpt lat="42.3532" lon="1.31855">
        <ele>1257.6</ele>
        <time>2022-05-22 14:46:06</time>
      </trkpt>
      <trkpt lat="42.35321" lon="1.31852">
        <ele>1257.8</ele>
        <time>2022-05-22 14:46:07</time>
      </trkpt>
      <trkpt lat="42.35322" lon="1.3185">
        <ele>1258</ele>
        <time>2022-05-22 14:46:08</time>
      </trkpt>
      <trkpt lat="42.35323" lon="1.31847">
        <ele>1258.2</ele>
        <time>2022-05-22 14:46:09</time>
      </trkpt>
      <trkpt lat="42.35325" lon="1.31844">
        <ele>1258.4</ele>
        <time>2022-05-22 14:46:10</time>
      </trkpt>
      <trkpt lat="42.35326" lon="1.31841">
        <ele>1258.6</ele>
        <time>2022-05-22 14:46:11</time>
      </trkpt>
      <trkpt lat="42.35327" lon="1.31838">
        <ele>1258.6</ele>
        <time>2022-05-22 14:46:12</time>
      </trkpt>
      <trkpt lat="42.35328" lon="1.31835">
        <ele>1258.8</ele>
        <time>2022-05-22 14:46:13</time>
      </trkpt>
      <trkpt lat="42.35329" lon="1.31833">
        <ele>1259</ele>
        <time>2022-05-22 14:46:14</time>
      </trkpt>
      <trkpt lat="42.35331" lon="1.3183">
        <ele>1259</ele>
        <time>2022-05-22 14:46:15</time>
      </trkpt>
      <trkpt lat="42.35332" lon="1.31827">
        <ele>1259.2</ele>
        <time>2022-05-22 14:46:16</time>
      </trkpt>
      <trkpt lat="42.35333" lon="1.31824">
        <ele>1259.4</ele>
        <time>2022-05-22 14:46:17</time>
      </trkpt>
      <trkpt lat="42.35334" lon="1.31822">
        <ele>1259.6</ele>
        <time>2022-05-22 14:46:18</time>
      </trkpt>
      <trkpt lat="42.35335" lon="1.31819">
        <ele>1259.6</ele>
        <time>2022-05-22 14:46:19</time>
      </trkpt>
      <trkpt lat="42.35336" lon="1.31816">
        <ele>1259.8</ele>
        <time>2022-05-22 14:46:20</time>
      </trkpt>
      <trkpt lat="42.35338" lon="1.31814">
        <ele>1260</ele>
        <time>2022-05-22 14:46:21</time>
      </trkpt>
      <trkpt lat="42.35339" lon="1.31811">
        <ele>1260.2</ele>
        <time>2022-05-22 14:46:22</time>
      </trkpt>
      <trkpt lat="42.3534" lon="1.31808">
        <ele>1260.4</ele>
        <time>2022-05-22 14:46:23</time>
      </trkpt>
      <trkpt lat="42.35341" lon="1.31805">
        <ele>1260.4</ele>
        <time>2022-05-22 14:46:24</time>
      </trkpt>
      <trkpt lat="42.35342" lon="1.31802">
        <ele>1260.6</ele>
        <time>2022-05-22 14:46:25</time>
      </trkpt>
      <trkpt lat="42.35344" lon="1.31799">
        <ele>1260.8</ele>
        <time>2022-05-22 14:46:26</time>
      </trkpt>
      <trkpt lat="42.35344" lon="1.31796">
        <ele>1260.8</ele>
        <time>2022-05-22 14:46:27</time>
      </trkpt>
      <trkpt lat="42.35346" lon="1.31794">
        <ele>1261</ele>
        <time>2022-05-22 14:46:28</time>
      </trkpt>
      <trkpt lat="42.35347" lon="1.31791">
        <ele>1261</ele>
        <time>2022-05-22 14:46:29</time>
      </trkpt>
      <trkpt lat="42.35348" lon="1.31788">
        <ele>1261.2</ele>
        <time>2022-05-22 14:46:30</time>
      </trkpt>
      <trkpt lat="42.3535" lon="1.31785">
        <ele>1261.2</ele>
        <time>2022-05-22 14:46:31</time>
      </trkpt>
      <trkpt lat="42.35351" lon="1.31782">
        <ele>1261.2</ele>
        <time>2022-05-22 14:46:32</time>
      </trkpt>
      <trkpt lat="42.35353" lon="1.31778">
        <ele>1261.2</ele>
        <time>2022-05-22 14:46:33</time>
      </trkpt>
      <trkpt lat="42.35355" lon="1.31774">
        <ele>1261.2</ele>
        <time>2022-05-22 14:46:34</time>
      </trkpt>
      <trkpt lat="42.35357" lon="1.3177">
        <ele>1261.2</ele>
        <time>2022-05-22 14:46:35</time>
      </trkpt>
      <trkpt lat="42.35359" lon="1.31766">
        <ele>1261.4</ele>
        <time>2022-05-22 14:46:36</time>
      </trkpt>
      <trkpt lat="42.35361" lon="1.31761">
        <ele>1261.2</ele>
        <time>2022-05-22 14:46:37</time>
      </trkpt>
      <trkpt lat="42.35363" lon="1.31756">
        <ele>1261.2</ele>
        <time>2022-05-22 14:46:38</time>
      </trkpt>
      <trkpt lat="42.35366" lon="1.31751">
        <ele>1261.2</ele>
        <time>2022-05-22 14:46:39</time>
      </trkpt>
      <trkpt lat="42.35368" lon="1.31746">
        <ele>1261.2</ele>
        <time>2022-05-22 14:46:40</time>
      </trkpt>
      <trkpt lat="42.35371" lon="1.31741">
        <ele>1261.2</ele>
        <time>2022-05-22 14:46:41</time>
      </trkpt>
      <trkpt lat="42.35374" lon="1.31736">
        <ele>1261.2</ele>
        <time>2022-05-22 14:46:42</time>
      </trkpt>
      <trkpt lat="42.35377" lon="1.31731">
        <ele>1261</ele>
        <time>2022-05-22 14:46:43</time>
      </trkpt>
      <trkpt lat="42.35381" lon="1.31727">
        <ele>1261</ele>
        <time>2022-05-22 14:46:44</time>
      </trkpt>
      <trkpt lat="42.35384" lon="1.31722">
        <ele>1260.8</ele>
        <time>2022-05-22 14:46:45</time>
      </trkpt>
      <trkpt lat="42.35388" lon="1.31717">
        <ele>1260.6</ele>
        <time>2022-05-22 14:46:46</time>
      </trkpt>
      <trkpt lat="42.35392" lon="1.31712">
        <ele>1260.4</ele>
        <time>2022-05-22 14:46:47</time>
      </trkpt>
      <trkpt lat="42.35396" lon="1.31707">
        <ele>1260.2</ele>
        <time>2022-05-22 14:46:48</time>
      </trkpt>
      <trkpt lat="42.354" lon="1.31702">
        <ele>1260</ele>
        <time>2022-05-22 14:46:49</time>
      </trkpt>
      <trkpt lat="42.35405" lon="1.31697">
        <ele>1259.8</ele>
        <time>2022-05-22 14:46:50</time>
      </trkpt>
      <trkpt lat="42.3541" lon="1.31692">
        <ele>1259.6</ele>
        <time>2022-05-22 14:46:51</time>
      </trkpt>
      <trkpt lat="42.35414" lon="1.31686">
        <ele>1259.6</ele>
        <time>2022-05-22 14:46:52</time>
      </trkpt>
      <trkpt lat="42.35419" lon="1.31681">
        <ele>1259.4</ele>
        <time>2022-05-22 14:46:53</time>
      </trkpt>
      <trkpt lat="42.35424" lon="1.31675">
        <ele>1259.2</ele>
        <time>2022-05-22 14:46:54</time>
      </trkpt>
      <trkpt lat="42.35428" lon="1.31668">
        <ele>1258.8</ele>
        <time>2022-05-22 14:46:55</time>
      </trkpt>
      <trkpt lat="42.35433" lon="1.31662">
        <ele>1258.4</ele>
        <time>2022-05-22 14:46:56</time>
      </trkpt>
      <trkpt lat="42.35437" lon="1.31655">
        <ele>1258.2</ele>
        <time>2022-05-22 14:46:57</time>
      </trkpt>
      <trkpt lat="42.35441" lon="1.31648">
        <ele>1257.8</ele>
        <time>2022-05-22 14:46:58</time>
      </trkpt>
      <trkpt lat="42.35445" lon="1.31641">
        <ele>1257.6</ele>
        <time>2022-05-22 14:46:59</time>
      </trkpt>
      <trkpt lat="42.35448" lon="1.31633">
        <ele>1257.4</ele>
        <time>2022-05-22 14:47:00</time>
      </trkpt>
      <trkpt lat="42.35451" lon="1.31625">
        <ele>1257.2</ele>
        <time>2022-05-22 14:47:01</time>
      </trkpt>
      <trkpt lat="42.35454" lon="1.31618">
        <ele>1257</ele>
        <time>2022-05-22 14:47:02</time>
      </trkpt>
      <trkpt lat="42.35456" lon="1.3161">
        <ele>1257</ele>
        <time>2022-05-22 14:47:03</time>
      </trkpt>
      <trkpt lat="42.35458" lon="1.31603">
        <ele>1257.2</ele>
        <time>2022-05-22 14:47:04</time>
      </trkpt>
      <trkpt lat="42.3546" lon="1.31596">
        <ele>1257.2</ele>
        <time>2022-05-22 14:47:05</time>
      </trkpt>
      <trkpt lat="42.35462" lon="1.31589">
        <ele>1257.4</ele>
        <time>2022-05-22 14:47:06</time>
      </trkpt>
      <trkpt lat="42.35464" lon="1.31583">
        <ele>1257.6</ele>
        <time>2022-05-22 14:47:07</time>
      </trkpt>
      <trkpt lat="42.35467" lon="1.31577">
        <ele>1257.8</ele>
        <time>2022-05-22 14:47:08</time>
      </trkpt>
      <trkpt lat="42.35469" lon="1.31571">
        <ele>1258</ele>
        <time>2022-05-22 14:47:09</time>
      </trkpt>
      <trkpt lat="42.35471" lon="1.31565">
        <ele>1258.2</ele>
        <time>2022-05-22 14:47:10</time>
      </trkpt>
      <trkpt lat="42.35473" lon="1.31558">
        <ele>1258.2</ele>
        <time>2022-05-22 14:47:11</time>
      </trkpt>
      <trkpt lat="42.35475" lon="1.31553">
        <ele>1258.4</ele>
        <time>2022-05-22 14:47:12</time>
      </trkpt>
      <trkpt lat="42.35478" lon="1.31547">
        <ele>1258.4</ele>
        <time>2022-05-22 14:47:13</time>
      </trkpt>
      <trkpt lat="42.3548" lon="1.31542">
        <ele>1258.6</ele>
        <time>2022-05-22 14:47:14</time>
      </trkpt>
      <trkpt lat="42.35483" lon="1.31537">
        <ele>1258.8</ele>
        <time>2022-05-22 14:47:15</time>
      </trkpt>
      <trkpt lat="42.35486" lon="1.31531">
        <ele>1259</ele>
        <time>2022-05-22 14:47:16</time>
      </trkpt>
      <trkpt lat="42.35488" lon="1.31527">
        <ele>1259</ele>
        <time>2022-05-22 14:47:17</time>
      </trkpt>
      <trkpt lat="42.35491" lon="1.31522">
        <ele>1259</ele>
        <time>2022-05-22 14:47:18</time>
      </trkpt>
      <trkpt lat="42.35495" lon="1.31517">
        <ele>1259</ele>
        <time>2022-05-22 14:47:19</time>
      </trkpt>
      <trkpt lat="42.35498" lon="1.31513">
        <ele>1259.2</ele>
        <time>2022-05-22 14:47:20</time>
      </trkpt>
      <trkpt lat="42.35501" lon="1.31509">
        <ele>1259.2</ele>
        <time>2022-05-22 14:47:21</time>
      </trkpt>
      <trkpt lat="42.35505" lon="1.31505">
        <ele>1259.4</ele>
        <time>2022-05-22 14:47:22</time>
      </trkpt>
      <trkpt lat="42.35509" lon="1.31501">
        <ele>1259.6</ele>
        <time>2022-05-22 14:47:23</time>
      </trkpt>
      <trkpt lat="42.35512" lon="1.31498">
        <ele>1259.6</ele>
        <time>2022-05-22 14:47:24</time>
      </trkpt>
      <trkpt lat="42.35516" lon="1.31494">
        <ele>1259.8</ele>
        <time>2022-05-22 14:47:25</time>
      </trkpt>
      <trkpt lat="42.35519" lon="1.31491">
        <ele>1259.8</ele>
        <time>2022-05-22 14:47:26</time>
      </trkpt>
      <trkpt lat="42.35523" lon="1.31488">
        <ele>1260</ele>
        <time>2022-05-22 14:47:27</time>
      </trkpt>
      <trkpt lat="42.35526" lon="1.31486">
        <ele>1260.2</ele>
        <time>2022-05-22 14:47:28</time>
      </trkpt>
      <trkpt lat="42.3553" lon="1.31483">
        <ele>1260.6</ele>
        <time>2022-05-22 14:47:29</time>
      </trkpt>
      <trkpt lat="42.35533" lon="1.31481">
        <ele>1260.6</ele>
        <time>2022-05-22 14:47:30</time>
      </trkpt>
      <trkpt lat="42.35536" lon="1.31478">
        <ele>1260.8</ele>
        <time>2022-05-22 14:47:31</time>
      </trkpt>
      <trkpt lat="42.35539" lon="1.31476">
        <ele>1261</ele>
        <time>2022-05-22 14:47:32</time>
      </trkpt>
      <trkpt lat="42.35542" lon="1.31473">
        <ele>1261.2</ele>
        <time>2022-05-22 14:47:33</time>
      </trkpt>
      <trkpt lat="42.35545" lon="1.31471">
        <ele>1261.4</ele>
        <time>2022-05-22 14:47:34</time>
      </trkpt>
      <trkpt lat="42.35548" lon="1.31468">
        <ele>1261.4</ele>
        <time>2022-05-22 14:47:35</time>
      </trkpt>
      <trkpt lat="42.35551" lon="1.31466">
        <ele>1261.6</ele>
        <time>2022-05-22 14:47:36</time>
      </trkpt>
      <trkpt lat="42.35554" lon="1.31463">
        <ele>1261.6</ele>
        <time>2022-05-22 14:47:37</time>
      </trkpt>
      <trkpt lat="42.35557" lon="1.3146">
        <ele>1261.8</ele>
        <time>2022-05-22 14:47:38</time>
      </trkpt>
      <trkpt lat="42.3556" lon="1.31458">
        <ele>1262</ele>
        <time>2022-05-22 14:47:39</time>
      </trkpt>
      <trkpt lat="42.35562" lon="1.31455">
        <ele>1262</ele>
        <time>2022-05-22 14:47:40</time>
      </trkpt>
      <trkpt lat="42.35565" lon="1.31451">
        <ele>1262.2</ele>
        <time>2022-05-22 14:47:41</time>
      </trkpt>
      <trkpt lat="42.35568" lon="1.31448">
        <ele>1262.2</ele>
        <time>2022-05-22 14:47:42</time>
      </trkpt>
      <trkpt lat="42.3557" lon="1.31444">
        <ele>1262.2</ele>
        <time>2022-05-22 14:47:43</time>
      </trkpt>
      <trkpt lat="42.35573" lon="1.31441">
        <ele>1262.4</ele>
        <time>2022-05-22 14:47:44</time>
      </trkpt>
      <trkpt lat="42.35576" lon="1.31437">
        <ele>1262.4</ele>
        <time>2022-05-22 14:47:45</time>
      </trkpt>
      <trkpt lat="42.35579" lon="1.31433">
        <ele>1262.4</ele>
        <time>2022-05-22 14:47:46</time>
      </trkpt>
      <trkpt lat="42.35581" lon="1.31429">
        <ele>1262.4</ele>
        <time>2022-05-22 14:47:47</time>
      </trkpt>
      <trkpt lat="42.35584" lon="1.31425">
        <ele>1262.2</ele>
        <time>2022-05-22 14:47:48</time>
      </trkpt>
      <trkpt lat="42.35587" lon="1.31421">
        <ele>1262.2</ele>
        <time>2022-05-22 14:47:49</time>
      </trkpt>
      <trkpt lat="42.3559" lon="1.31416">
        <ele>1262.2</ele>
        <time>2022-05-22 14:47:50</time>
      </trkpt>
      <trkpt lat="42.35593" lon="1.31411">
        <ele>1262</ele>
        <time>2022-05-22 14:47:51</time>
      </trkpt>
      <trkpt lat="42.35596" lon="1.31406">
        <ele>1261.8</ele>
        <time>2022-05-22 14:47:52</time>
      </trkpt>
      <trkpt lat="42.35599" lon="1.314">
        <ele>1261.8</ele>
        <time>2022-05-22 14:47:53</time>
      </trkpt>
      <trkpt lat="42.35602" lon="1.31393">
        <ele>1261.6</ele>
        <time>2022-05-22 14:47:54</time>
      </trkpt>
      <trkpt lat="42.35603" lon="1.31386">
        <ele>1261.4</ele>
        <time>2022-05-22 14:47:55</time>
      </trkpt>
      <trkpt lat="42.35605" lon="1.31378">
        <ele>1261.4</ele>
        <time>2022-05-22 14:47:56</time>
      </trkpt>
      <trkpt lat="42.35607" lon="1.3137">
        <ele>1261</ele>
        <time>2022-05-22 14:47:57</time>
      </trkpt>
      <trkpt lat="42.35608" lon="1.31362">
        <ele>1260.8</ele>
        <time>2022-05-22 14:47:58</time>
      </trkpt>
      <trkpt lat="42.35609" lon="1.31353">
        <ele>1260.2</ele>
        <time>2022-05-22 14:47:59</time>
      </trkpt>
      <trkpt lat="42.3561" lon="1.31344">
        <ele>1260</ele>
        <time>2022-05-22 14:48:00</time>
      </trkpt>
      <trkpt lat="42.35612" lon="1.31335">
        <ele>1259.8</ele>
        <time>2022-05-22 14:48:01</time>
      </trkpt>
      <trkpt lat="42.35613" lon="1.31325">
        <ele>1259.6</ele>
        <time>2022-05-22 14:48:02</time>
      </trkpt>
      <trkpt lat="42.35613" lon="1.31315">
        <ele>1259.4</ele>
        <time>2022-05-22 14:48:03</time>
      </trkpt>
      <trkpt lat="42.35613" lon="1.31306">
        <ele>1259.4</ele>
        <time>2022-05-22 14:48:04</time>
      </trkpt>
      <trkpt lat="42.35612" lon="1.31297">
        <ele>1259.4</ele>
        <time>2022-05-22 14:48:05</time>
      </trkpt>
      <trkpt lat="42.35613" lon="1.31289">
        <ele>1259.2</ele>
        <time>2022-05-22 14:48:06</time>
      </trkpt>
      <trkpt lat="42.35613" lon="1.31281">
        <ele>1259.2</ele>
        <time>2022-05-22 14:48:07</time>
      </trkpt>
      <trkpt lat="42.35613" lon="1.31274">
        <ele>1259.4</ele>
        <time>2022-05-22 14:48:08</time>
      </trkpt>
      <trkpt lat="42.35614" lon="1.31267">
        <ele>1259.6</ele>
        <time>2022-05-22 14:48:09</time>
      </trkpt>
      <trkpt lat="42.35614" lon="1.3126">
        <ele>1259.6</ele>
        <time>2022-05-22 14:48:10</time>
      </trkpt>
      <trkpt lat="42.35614" lon="1.31254">
        <ele>1259.8</ele>
        <time>2022-05-22 14:48:11</time>
      </trkpt>
      <trkpt lat="42.35615" lon="1.31247">
        <ele>1260</ele>
        <time>2022-05-22 14:48:12</time>
      </trkpt>
      <trkpt lat="42.35615" lon="1.31241">
        <ele>1260.2</ele>
        <time>2022-05-22 14:48:13</time>
      </trkpt>
      <trkpt lat="42.35615" lon="1.31236">
        <ele>1260.4</ele>
        <time>2022-05-22 14:48:14</time>
      </trkpt>
      <trkpt lat="42.35615" lon="1.3123">
        <ele>1260.6</ele>
        <time>2022-05-22 14:48:15</time>
      </trkpt>
      <trkpt lat="42.35615" lon="1.31225">
        <ele>1260.8</ele>
        <time>2022-05-22 14:48:16</time>
      </trkpt>
      <trkpt lat="42.35615" lon="1.31219">
        <ele>1260.8</ele>
        <time>2022-05-22 14:48:17</time>
      </trkpt>
      <trkpt lat="42.35616" lon="1.31214">
        <ele>1261</ele>
        <time>2022-05-22 14:48:18</time>
      </trkpt>
      <trkpt lat="42.35616" lon="1.31209">
        <ele>1261</ele>
        <time>2022-05-22 14:48:19</time>
      </trkpt>
      <trkpt lat="42.35616" lon="1.31203">
        <ele>1261.2</ele>
        <time>2022-05-22 14:48:20</time>
      </trkpt>
      <trkpt lat="42.35617" lon="1.31198">
        <ele>1261.4</ele>
        <time>2022-05-22 14:48:21</time>
      </trkpt>
      <trkpt lat="42.35617" lon="1.31193">
        <ele>1261.6</ele>
        <time>2022-05-22 14:48:22</time>
      </trkpt>
      <trkpt lat="42.35618" lon="1.31188">
        <ele>1261.8</ele>
        <time>2022-05-22 14:48:23</time>
      </trkpt>
      <trkpt lat="42.35618" lon="1.31183">
        <ele>1261.8</ele>
        <time>2022-05-22 14:48:24</time>
      </trkpt>
      <trkpt lat="42.35619" lon="1.31178">
        <ele>1262</ele>
        <time>2022-05-22 14:48:25</time>
      </trkpt>
      <trkpt lat="42.3562" lon="1.31173">
        <ele>1262</ele>
        <time>2022-05-22 14:48:26</time>
      </trkpt>
      <trkpt lat="42.3562" lon="1.31167">
        <ele>1262.2</ele>
        <time>2022-05-22 14:48:27</time>
      </trkpt>
      <trkpt lat="42.35621" lon="1.31162">
        <ele>1262.2</ele>
        <time>2022-05-22 14:48:28</time>
      </trkpt>
      <trkpt lat="42.35621" lon="1.31156">
        <ele>1262.4</ele>
        <time>2022-05-22 14:48:29</time>
      </trkpt>
      <trkpt lat="42.35622" lon="1.31151">
        <ele>1262.4</ele>
        <time>2022-05-22 14:48:30</time>
      </trkpt>
      <trkpt lat="42.35623" lon="1.31146">
        <ele>1262.6</ele>
        <time>2022-05-22 14:48:31</time>
      </trkpt>
      <trkpt lat="42.35624" lon="1.31141">
        <ele>1262.6</ele>
        <time>2022-05-22 14:48:32</time>
      </trkpt>
      <trkpt lat="42.35624" lon="1.31136">
        <ele>1262.8</ele>
        <time>2022-05-22 14:48:33</time>
      </trkpt>
      <trkpt lat="42.35625" lon="1.31131">
        <ele>1263</ele>
        <time>2022-05-22 14:48:34</time>
      </trkpt>
      <trkpt lat="42.35626" lon="1.31126">
        <ele>1263.2</ele>
        <time>2022-05-22 14:48:35</time>
      </trkpt>
      <trkpt lat="42.35627" lon="1.31122">
        <ele>1263.4</ele>
        <time>2022-05-22 14:48:36</time>
      </trkpt>
      <trkpt lat="42.35627" lon="1.31118">
        <ele>1263.6</ele>
        <time>2022-05-22 14:48:37</time>
      </trkpt>
      <trkpt lat="42.35628" lon="1.31113">
        <ele>1263.6</ele>
        <time>2022-05-22 14:48:38</time>
      </trkpt>
      <trkpt lat="42.35629" lon="1.31109">
        <ele>1263.8</ele>
        <time>2022-05-22 14:48:39</time>
      </trkpt>
      <trkpt lat="42.35629" lon="1.31105">
        <ele>1264</ele>
        <time>2022-05-22 14:48:40</time>
      </trkpt>
      <trkpt lat="42.3563" lon="1.31102">
        <ele>1264.2</ele>
        <time>2022-05-22 14:48:41</time>
      </trkpt>
      <trkpt lat="42.35631" lon="1.31098">
        <ele>1264.4</ele>
        <time>2022-05-22 14:48:42</time>
      </trkpt>
      <trkpt lat="42.35631" lon="1.31095">
        <ele>1264.4</ele>
        <time>2022-05-22 14:48:43</time>
      </trkpt>
      <trkpt lat="42.35631" lon="1.31091">
        <ele>1264.6</ele>
        <time>2022-05-22 14:48:44</time>
      </trkpt>
      <trkpt lat="42.35632" lon="1.31087">
        <ele>1264.8</ele>
        <time>2022-05-22 14:48:45</time>
      </trkpt>
      <trkpt lat="42.35632" lon="1.31083">
        <ele>1265</ele>
        <time>2022-05-22 14:48:46</time>
      </trkpt>
      <trkpt lat="42.35632" lon="1.31079">
        <ele>1265</ele>
        <time>2022-05-22 14:48:47</time>
      </trkpt>
      <trkpt lat="42.35633" lon="1.31076">
        <ele>1265.2</ele>
        <time>2022-05-22 14:48:48</time>
      </trkpt>
      <trkpt lat="42.35633" lon="1.31073">
        <ele>1265.4</ele>
        <time>2022-05-22 14:48:49</time>
      </trkpt>
      <trkpt lat="42.35634" lon="1.3107">
        <ele>1265.4</ele>
        <time>2022-05-22 14:48:50</time>
      </trkpt>
      <trkpt lat="42.35634" lon="1.31067">
        <ele>1265.6</ele>
        <time>2022-05-22 14:48:51</time>
      </trkpt>
      <trkpt lat="42.35635" lon="1.31064">
        <ele>1265.8</ele>
        <time>2022-05-22 14:48:52</time>
      </trkpt>
      <trkpt lat="42.35635" lon="1.31061">
        <ele>1266</ele>
        <time>2022-05-22 14:48:53</time>
      </trkpt>
      <trkpt lat="42.35636" lon="1.31058">
        <ele>1266</ele>
        <time>2022-05-22 14:48:54</time>
      </trkpt>
      <trkpt lat="42.35636" lon="1.31055">
        <ele>1266.2</ele>
        <time>2022-05-22 14:48:55</time>
      </trkpt>
      <trkpt lat="42.35637" lon="1.31052">
        <ele>1266.4</ele>
        <time>2022-05-22 14:48:56</time>
      </trkpt>
      <trkpt lat="42.35638" lon="1.31049">
        <ele>1266.6</ele>
        <time>2022-05-22 14:48:57</time>
      </trkpt>
      <trkpt lat="42.35639" lon="1.31046">
        <ele>1266.6</ele>
        <time>2022-05-22 14:48:58</time>
      </trkpt>
      <trkpt lat="42.3564" lon="1.31043">
        <ele>1266.8</ele>
        <time>2022-05-22 14:48:59</time>
      </trkpt>
      <trkpt lat="42.3564" lon="1.31041">
        <ele>1267</ele>
        <time>2022-05-22 14:49:00</time>
      </trkpt>
      <trkpt lat="42.35641" lon="1.31038">
        <ele>1267</ele>
        <time>2022-05-22 14:49:01</time>
      </trkpt>
      <trkpt lat="42.35642" lon="1.31035">
        <ele>1267.2</ele>
        <time>2022-05-22 14:49:02</time>
      </trkpt>
      <trkpt lat="42.35643" lon="1.31032">
        <ele>1267.4</ele>
        <time>2022-05-22 14:49:03</time>
      </trkpt>
      <trkpt lat="42.35644" lon="1.31029">
        <ele>1267.4</ele>
        <time>2022-05-22 14:49:04</time>
      </trkpt>
      <trkpt lat="42.35645" lon="1.31027">
        <ele>1267.6</ele>
        <time>2022-05-22 14:49:05</time>
      </trkpt>
      <trkpt lat="42.35646" lon="1.31024">
        <ele>1267.8</ele>
        <time>2022-05-22 14:49:06</time>
      </trkpt>
      <trkpt lat="42.35647" lon="1.31021">
        <ele>1267.8</ele>
        <time>2022-05-22 14:49:07</time>
      </trkpt>
      <trkpt lat="42.35648" lon="1.31018">
        <ele>1268</ele>
        <time>2022-05-22 14:49:08</time>
      </trkpt>
      <trkpt lat="42.35649" lon="1.31015">
        <ele>1268.2</ele>
        <time>2022-05-22 14:49:09</time>
      </trkpt>
      <trkpt lat="42.35649" lon="1.31013">
        <ele>1268.4</ele>
        <time>2022-05-22 14:49:10</time>
      </trkpt>
      <trkpt lat="42.3565" lon="1.3101">
        <ele>1268.4</ele>
        <time>2022-05-22 14:49:11</time>
      </trkpt>
      <trkpt lat="42.35651" lon="1.31007">
        <ele>1268.6</ele>
        <time>2022-05-22 14:49:12</time>
      </trkpt>
      <trkpt lat="42.35652" lon="1.31004">
        <ele>1268.8</ele>
        <time>2022-05-22 14:49:13</time>
      </trkpt>
      <trkpt lat="42.35653" lon="1.31002">
        <ele>1269</ele>
        <time>2022-05-22 14:49:14</time>
      </trkpt>
      <trkpt lat="42.35654" lon="1.31">
        <ele>1269.2</ele>
        <time>2022-05-22 14:49:15</time>
      </trkpt>
      <trkpt lat="42.35654" lon="1.30997">
        <ele>1269.4</ele>
        <time>2022-05-22 14:49:16</time>
      </trkpt>
      <trkpt lat="42.35655" lon="1.30994">
        <ele>1269.6</ele>
        <time>2022-05-22 14:49:17</time>
      </trkpt>
      <trkpt lat="42.35656" lon="1.30992">
        <ele>1269.6</ele>
        <time>2022-05-22 14:49:18</time>
      </trkpt>
      <trkpt lat="42.35658" lon="1.30989">
        <ele>1269.8</ele>
        <time>2022-05-22 14:49:19</time>
      </trkpt>
      <trkpt lat="42.35659" lon="1.30986">
        <ele>1269.8</ele>
        <time>2022-05-22 14:49:20</time>
      </trkpt>
      <trkpt lat="42.3566" lon="1.30983">
        <ele>1270</ele>
        <time>2022-05-22 14:49:21</time>
      </trkpt>
      <trkpt lat="42.35661" lon="1.3098">
        <ele>1270.2</ele>
        <time>2022-05-22 14:49:22</time>
      </trkpt>
      <trkpt lat="42.35662" lon="1.30977">
        <ele>1270.6</ele>
        <time>2022-05-22 14:49:23</time>
      </trkpt>
      <trkpt lat="42.35663" lon="1.30975">
        <ele>1270.8</ele>
        <time>2022-05-22 14:49:24</time>
      </trkpt>
      <trkpt lat="42.35665" lon="1.30972">
        <ele>1271</ele>
        <time>2022-05-22 14:49:25</time>
      </trkpt>
      <trkpt lat="42.35666" lon="1.30969">
        <ele>1271.2</ele>
        <time>2022-05-22 14:49:26</time>
      </trkpt>
      <trkpt lat="42.35667" lon="1.30967">
        <ele>1271.4</ele>
        <time>2022-05-22 14:49:27</time>
      </trkpt>
      <trkpt lat="42.35667" lon="1.30964">
        <ele>1271.6</ele>
        <time>2022-05-22 14:49:28</time>
      </trkpt>
      <trkpt lat="42.35669" lon="1.30961">
        <ele>1271.8</ele>
        <time>2022-05-22 14:49:29</time>
      </trkpt>
      <trkpt lat="42.3567" lon="1.30958">
        <ele>1272</ele>
        <time>2022-05-22 14:49:30</time>
      </trkpt>
      <trkpt lat="42.35671" lon="1.30956">
        <ele>1272.2</ele>
        <time>2022-05-22 14:49:31</time>
      </trkpt>
      <trkpt lat="42.35672" lon="1.30953">
        <ele>1272.2</ele>
        <time>2022-05-22 14:49:32</time>
      </trkpt>
      <trkpt lat="42.35673" lon="1.3095">
        <ele>1272.4</ele>
        <time>2022-05-22 14:49:33</time>
      </trkpt>
      <trkpt lat="42.35674" lon="1.30948">
        <ele>1272.6</ele>
        <time>2022-05-22 14:49:34</time>
      </trkpt>
      <trkpt lat="42.35675" lon="1.30945">
        <ele>1272.8</ele>
        <time>2022-05-22 14:49:35</time>
      </trkpt>
      <trkpt lat="42.35676" lon="1.30943">
        <ele>1272.8</ele>
        <time>2022-05-22 14:49:36</time>
      </trkpt>
      <trkpt lat="42.35677" lon="1.3094">
        <ele>1273</ele>
        <time>2022-05-22 14:49:37</time>
      </trkpt>
      <trkpt lat="42.35678" lon="1.30938">
        <ele>1273.2</ele>
        <time>2022-05-22 14:49:38</time>
      </trkpt>
      <trkpt lat="42.35679" lon="1.30936">
        <ele>1273.4</ele>
        <time>2022-05-22 14:49:39</time>
      </trkpt>
      <trkpt lat="42.35681" lon="1.30933">
        <ele>1273.6</ele>
        <time>2022-05-22 14:49:40</time>
      </trkpt>
      <trkpt lat="42.35682" lon="1.30931">
        <ele>1274</ele>
        <time>2022-05-22 14:49:41</time>
      </trkpt>
      <trkpt lat="42.35684" lon="1.30929">
        <ele>1274.2</ele>
        <time>2022-05-22 14:49:42</time>
      </trkpt>
      <trkpt lat="42.35685" lon="1.30927">
        <ele>1274.4</ele>
        <time>2022-05-22 14:49:43</time>
      </trkpt>
      <trkpt lat="42.35687" lon="1.30925">
        <ele>1274.6</ele>
        <time>2022-05-22 14:49:44</time>
      </trkpt>
      <trkpt lat="42.35688" lon="1.30923">
        <ele>1274.8</ele>
        <time>2022-05-22 14:49:45</time>
      </trkpt>
      <trkpt lat="42.3569" lon="1.30921">
        <ele>1275</ele>
        <time>2022-05-22 14:49:46</time>
      </trkpt>
      <trkpt lat="42.35691" lon="1.30919">
        <ele>1275.2</ele>
        <time>2022-05-22 14:49:47</time>
      </trkpt>
      <trkpt lat="42.35693" lon="1.30917">
        <ele>1275.4</ele>
        <time>2022-05-22 14:49:48</time>
      </trkpt>
      <trkpt lat="42.35694" lon="1.30915">
        <ele>1275.4</ele>
        <time>2022-05-22 14:49:49</time>
      </trkpt>
      <trkpt lat="42.35696" lon="1.30913">
        <ele>1275.6</ele>
        <time>2022-05-22 14:49:50</time>
      </trkpt>
      <trkpt lat="42.35698" lon="1.30911">
        <ele>1275.8</ele>
        <time>2022-05-22 14:49:51</time>
      </trkpt>
      <trkpt lat="42.35699" lon="1.3091">
        <ele>1276</ele>
        <time>2022-05-22 14:49:52</time>
      </trkpt>
      <trkpt lat="42.357" lon="1.30908">
        <ele>1276.2</ele>
        <time>2022-05-22 14:49:53</time>
      </trkpt>
      <trkpt lat="42.35702" lon="1.30906">
        <ele>1276.4</ele>
        <time>2022-05-22 14:49:54</time>
      </trkpt>
      <trkpt lat="42.35704" lon="1.30904">
        <ele>1276.6</ele>
        <time>2022-05-22 14:49:55</time>
      </trkpt>
      <trkpt lat="42.35705" lon="1.30903">
        <ele>1276.8</ele>
        <time>2022-05-22 14:49:56</time>
      </trkpt>
      <trkpt lat="42.35707" lon="1.30901">
        <ele>1276.8</ele>
        <time>2022-05-22 14:49:57</time>
      </trkpt>
      <trkpt lat="42.35709" lon="1.30899">
        <ele>1277</ele>
        <time>2022-05-22 14:49:58</time>
      </trkpt>
      <trkpt lat="42.35711" lon="1.30897">
        <ele>1277.2</ele>
        <time>2022-05-22 14:49:59</time>
      </trkpt>
      <trkpt lat="42.35712" lon="1.30896">
        <ele>1277.4</ele>
        <time>2022-05-22 14:50:00</time>
      </trkpt>
      <trkpt lat="42.35714" lon="1.30894">
        <ele>1277.6</ele>
        <time>2022-05-22 14:50:01</time>
      </trkpt>
      <trkpt lat="42.35715" lon="1.30892">
        <ele>1277.6</ele>
        <time>2022-05-22 14:50:02</time>
      </trkpt>
      <trkpt lat="42.35717" lon="1.30891">
        <ele>1277.8</ele>
        <time>2022-05-22 14:50:03</time>
      </trkpt>
      <trkpt lat="42.35719" lon="1.3089">
        <ele>1278</ele>
        <time>2022-05-22 14:50:04</time>
      </trkpt>
      <trkpt lat="42.3572" lon="1.30889">
        <ele>1278.2</ele>
        <time>2022-05-22 14:50:05</time>
      </trkpt>
      <trkpt lat="42.35722" lon="1.30887">
        <ele>1278.4</ele>
        <time>2022-05-22 14:50:06</time>
      </trkpt>
      <trkpt lat="42.35723" lon="1.30885">
        <ele>1278.6</ele>
        <time>2022-05-22 14:50:07</time>
      </trkpt>
      <trkpt lat="42.35725" lon="1.30883">
        <ele>1278.8</ele>
        <time>2022-05-22 14:50:08</time>
      </trkpt>
      <trkpt lat="42.35726" lon="1.30882">
        <ele>1279</ele>
        <time>2022-05-22 14:50:09</time>
      </trkpt>
      <trkpt lat="42.35728" lon="1.3088">
        <ele>1279</ele>
        <time>2022-05-22 14:50:10</time>
      </trkpt>
      <trkpt lat="42.3573" lon="1.30879">
        <ele>1279.2</ele>
        <time>2022-05-22 14:50:11</time>
      </trkpt>
      <trkpt lat="42.35731" lon="1.30877">
        <ele>1279.4</ele>
        <time>2022-05-22 14:50:12</time>
      </trkpt>
      <trkpt lat="42.35733" lon="1.30875">
        <ele>1279.6</ele>
        <time>2022-05-22 14:50:13</time>
      </trkpt>
      <trkpt lat="42.35735" lon="1.30873">
        <ele>1279.8</ele>
        <time>2022-05-22 14:50:14</time>
      </trkpt>
      <trkpt lat="42.35736" lon="1.3087">
        <ele>1279.8</ele>
        <time>2022-05-22 14:50:15</time>
      </trkpt>
      <trkpt lat="42.35737" lon="1.30868">
        <ele>1280</ele>
        <time>2022-05-22 14:50:16</time>
      </trkpt>
      <trkpt lat="42.35739" lon="1.30865">
        <ele>1280.2</ele>
        <time>2022-05-22 14:50:17</time>
      </trkpt>
      <trkpt lat="42.3574" lon="1.30862">
        <ele>1280.4</ele>
        <time>2022-05-22 14:50:18</time>
      </trkpt>
      <trkpt lat="42.35741" lon="1.30859">
        <ele>1280.4</ele>
        <time>2022-05-22 14:50:19</time>
      </trkpt>
      <trkpt lat="42.35742" lon="1.30856">
        <ele>1280.6</ele>
        <time>2022-05-22 14:50:20</time>
      </trkpt>
      <trkpt lat="42.35743" lon="1.30853">
        <ele>1280.8</ele>
        <time>2022-05-22 14:50:21</time>
      </trkpt>
      <trkpt lat="42.35744" lon="1.3085">
        <ele>1281</ele>
        <time>2022-05-22 14:50:22</time>
      </trkpt>
      <trkpt lat="42.35745" lon="1.30847">
        <ele>1281</ele>
        <time>2022-05-22 14:50:23</time>
      </trkpt>
      <trkpt lat="42.35745" lon="1.30845">
        <ele>1281.2</ele>
        <time>2022-05-22 14:50:24</time>
      </trkpt>
      <trkpt lat="42.35746" lon="1.30842">
        <ele>1281.4</ele>
        <time>2022-05-22 14:50:25</time>
      </trkpt>
      <trkpt lat="42.35747" lon="1.3084">
        <ele>1281.4</ele>
        <time>2022-05-22 14:50:26</time>
      </trkpt>
      <trkpt lat="42.35747" lon="1.30838">
        <ele>1281.4</ele>
        <time>2022-05-22 14:50:27</time>
      </trkpt>
      <trkpt lat="42.35748" lon="1.30834">
        <ele>1281.6</ele>
        <time>2022-05-22 14:50:28</time>
      </trkpt>
      <trkpt lat="42.35748" lon="1.30831">
        <ele>1281.8</ele>
        <time>2022-05-22 14:50:29</time>
      </trkpt>
      <trkpt lat="42.35748" lon="1.30827">
        <ele>1281.8</ele>
        <time>2022-05-22 14:50:30</time>
      </trkpt>
      <trkpt lat="42.35749" lon="1.30824">
        <ele>1282</ele>
        <time>2022-05-22 14:50:31</time>
      </trkpt>
      <trkpt lat="42.35749" lon="1.30822">
        <ele>1282.2</ele>
        <time>2022-05-22 14:50:32</time>
      </trkpt>
      <trkpt lat="42.3575" lon="1.30819">
        <ele>1282.2</ele>
        <time>2022-05-22 14:50:33</time>
      </trkpt>
      <trkpt lat="42.3575" lon="1.30817">
        <ele>1282.4</ele>
        <time>2022-05-22 14:50:34</time>
      </trkpt>
      <trkpt lat="42.3575" lon="1.30813">
        <ele>1282.4</ele>
        <time>2022-05-22 14:50:35</time>
      </trkpt>
      <trkpt lat="42.3575" lon="1.30811">
        <ele>1282.6</ele>
        <time>2022-05-22 14:50:36</time>
      </trkpt>
      <trkpt lat="42.35751" lon="1.30808">
        <ele>1282.8</ele>
        <time>2022-05-22 14:50:37</time>
      </trkpt>
      <trkpt lat="42.35751" lon="1.30806">
        <ele>1283</ele>
        <time>2022-05-22 14:50:38</time>
      </trkpt>
      <trkpt lat="42.35751" lon="1.30803">
        <ele>1283.2</ele>
        <time>2022-05-22 14:50:39</time>
      </trkpt>
      <trkpt lat="42.35751" lon="1.308">
        <ele>1283.4</ele>
        <time>2022-05-22 14:50:40</time>
      </trkpt>
      <trkpt lat="42.35751" lon="1.30797">
        <ele>1283.6</ele>
        <time>2022-05-22 14:50:41</time>
      </trkpt>
      <trkpt lat="42.35751" lon="1.30794">
        <ele>1283.8</ele>
        <time>2022-05-22 14:50:42</time>
      </trkpt>
      <trkpt lat="42.35752" lon="1.30791">
        <ele>1284</ele>
        <time>2022-05-22 14:50:43</time>
      </trkpt>
      <trkpt lat="42.35753" lon="1.30788">
        <ele>1284</ele>
        <time>2022-05-22 14:50:44</time>
      </trkpt>
      <trkpt lat="42.35753" lon="1.30785">
        <ele>1284.2</ele>
        <time>2022-05-22 14:50:45</time>
      </trkpt>
      <trkpt lat="42.35753" lon="1.30782">
        <ele>1284.4</ele>
        <time>2022-05-22 14:50:46</time>
      </trkpt>
      <trkpt lat="42.35754" lon="1.3078">
        <ele>1284.6</ele>
        <time>2022-05-22 14:50:47</time>
      </trkpt>
      <trkpt lat="42.35754" lon="1.30778">
        <ele>1284.6</ele>
        <time>2022-05-22 14:50:48</time>
      </trkpt>
      <trkpt lat="42.35755" lon="1.30773">
        <ele>1284.8</ele>
        <time>2022-05-22 14:50:49</time>
      </trkpt>
      <trkpt lat="42.35755" lon="1.3077">
        <ele>1285</ele>
        <time>2022-05-22 14:50:50</time>
      </trkpt>
      <trkpt lat="42.35755" lon="1.30767">
        <ele>1285</ele>
        <time>2022-05-22 14:50:51</time>
      </trkpt>
      <trkpt lat="42.35756" lon="1.30764">
        <ele>1285.2</ele>
        <time>2022-05-22 14:50:52</time>
      </trkpt>
      <trkpt lat="42.35756" lon="1.3076">
        <ele>1285.4</ele>
        <time>2022-05-22 14:50:53</time>
      </trkpt>
      <trkpt lat="42.35757" lon="1.30758">
        <ele>1285.4</ele>
        <time>2022-05-22 14:50:54</time>
      </trkpt>
      <trkpt lat="42.35758" lon="1.30755">
        <ele>1285.6</ele>
        <time>2022-05-22 14:50:55</time>
      </trkpt>
      <trkpt lat="42.35759" lon="1.30753">
        <ele>1285.8</ele>
        <time>2022-05-22 14:50:56</time>
      </trkpt>
      <trkpt lat="42.3576" lon="1.30751">
        <ele>1285.8</ele>
        <time>2022-05-22 14:50:57</time>
      </trkpt>
      <trkpt lat="42.35761" lon="1.30749">
        <ele>1286</ele>
        <time>2022-05-22 14:50:58</time>
      </trkpt>
      <trkpt lat="42.35762" lon="1.30747">
        <ele>1286</ele>
        <time>2022-05-22 14:50:59</time>
      </trkpt>
      <trkpt lat="42.35763" lon="1.30745">
        <ele>1286.2</ele>
        <time>2022-05-22 14:51:00</time>
      </trkpt>
      <trkpt lat="42.35764" lon="1.30742">
        <ele>1286.2</ele>
        <time>2022-05-22 14:51:01</time>
      </trkpt>
      <trkpt lat="42.35765" lon="1.3074">
        <ele>1286.4</ele>
        <time>2022-05-22 14:51:02</time>
      </trkpt>
      <trkpt lat="42.35766" lon="1.30738">
        <ele>1286.4</ele>
        <time>2022-05-22 14:51:03</time>
      </trkpt>
      <trkpt lat="42.35767" lon="1.30735">
        <ele>1286.6</ele>
        <time>2022-05-22 14:51:04</time>
      </trkpt>
      <trkpt lat="42.35767" lon="1.30733">
        <ele>1286.6</ele>
        <time>2022-05-22 14:51:05</time>
      </trkpt>
      <trkpt lat="42.35768" lon="1.3073">
        <ele>1286.6</ele>
        <time>2022-05-22 14:51:06</time>
      </trkpt>
      <trkpt lat="42.35769" lon="1.30727">
        <ele>1286.6</ele>
        <time>2022-05-22 14:51:07</time>
      </trkpt>
      <trkpt lat="42.3577" lon="1.30724">
        <ele>1286.8</ele>
        <time>2022-05-22 14:51:08</time>
      </trkpt>
      <trkpt lat="42.35771" lon="1.30721">
        <ele>1286.8</ele>
        <time>2022-05-22 14:51:09</time>
      </trkpt>
      <trkpt lat="42.35772" lon="1.30719">
        <ele>1286.8</ele>
        <time>2022-05-22 14:51:10</time>
      </trkpt>
      <trkpt lat="42.35773" lon="1.30717">
        <ele>1287</ele>
        <time>2022-05-22 14:51:11</time>
      </trkpt>
      <trkpt lat="42.35774" lon="1.30714">
        <ele>1287</ele>
        <time>2022-05-22 14:51:12</time>
      </trkpt>
      <trkpt lat="42.35775" lon="1.30711">
        <ele>1287.2</ele>
        <time>2022-05-22 14:51:13</time>
      </trkpt>
      <trkpt lat="42.35775" lon="1.30709">
        <ele>1287.4</ele>
        <time>2022-05-22 14:51:14</time>
      </trkpt>
      <trkpt lat="42.35777" lon="1.30707">
        <ele>1287.6</ele>
        <time>2022-05-22 14:51:15</time>
      </trkpt>
      <trkpt lat="42.35777" lon="1.30704">
        <ele>1287.6</ele>
        <time>2022-05-22 14:51:16</time>
      </trkpt>
      <trkpt lat="42.35778" lon="1.30701">
        <ele>1287.8</ele>
        <time>2022-05-22 14:51:17</time>
      </trkpt>
      <trkpt lat="42.35779" lon="1.30698">
        <ele>1288</ele>
        <time>2022-05-22 14:51:18</time>
      </trkpt>
      <trkpt lat="42.3578" lon="1.30696">
        <ele>1288</ele>
        <time>2022-05-22 14:51:19</time>
      </trkpt>
      <trkpt lat="42.35781" lon="1.30693">
        <ele>1288.2</ele>
        <time>2022-05-22 14:51:20</time>
      </trkpt>
      <trkpt lat="42.35782" lon="1.30691">
        <ele>1288.2</ele>
        <time>2022-05-22 14:51:21</time>
      </trkpt>
      <trkpt lat="42.35784" lon="1.30688">
        <ele>1288.4</ele>
        <time>2022-05-22 14:51:22</time>
      </trkpt>
      <trkpt lat="42.35785" lon="1.30686">
        <ele>1288.4</ele>
        <time>2022-05-22 14:51:23</time>
      </trkpt>
      <trkpt lat="42.35786" lon="1.30683">
        <ele>1288.6</ele>
        <time>2022-05-22 14:51:24</time>
      </trkpt>
      <trkpt lat="42.35786" lon="1.30681">
        <ele>1288.8</ele>
        <time>2022-05-22 14:51:25</time>
      </trkpt>
      <trkpt lat="42.35787" lon="1.30679">
        <ele>1288.8</ele>
        <time>2022-05-22 14:51:26</time>
      </trkpt>
      <trkpt lat="42.35789" lon="1.30676">
        <ele>1289</ele>
        <time>2022-05-22 14:51:27</time>
      </trkpt>
      <trkpt lat="42.3579" lon="1.30673">
        <ele>1289</ele>
        <time>2022-05-22 14:51:28</time>
      </trkpt>
      <trkpt lat="42.35791" lon="1.3067">
        <ele>1289.2</ele>
        <time>2022-05-22 14:51:29</time>
      </trkpt>
      <trkpt lat="42.35791" lon="1.30668">
        <ele>1289.2</ele>
        <time>2022-05-22 14:51:30</time>
      </trkpt>
      <trkpt lat="42.35792" lon="1.30665">
        <ele>1289.4</ele>
        <time>2022-05-22 14:51:31</time>
      </trkpt>
      <trkpt lat="42.35793" lon="1.30662">
        <ele>1289.4</ele>
        <time>2022-05-22 14:51:32</time>
      </trkpt>
      <trkpt lat="42.35794" lon="1.30659">
        <ele>1289.4</ele>
        <time>2022-05-22 14:51:33</time>
      </trkpt>
      <trkpt lat="42.35795" lon="1.30656">
        <ele>1289.6</ele>
        <time>2022-05-22 14:51:34</time>
      </trkpt>
      <trkpt lat="42.35796" lon="1.30654">
        <ele>1289.6</ele>
        <time>2022-05-22 14:51:35</time>
      </trkpt>
      <trkpt lat="42.35797" lon="1.30651">
        <ele>1289.6</ele>
        <time>2022-05-22 14:51:36</time>
      </trkpt>
      <trkpt lat="42.35798" lon="1.30648">
        <ele>1289.8</ele>
        <time>2022-05-22 14:51:37</time>
      </trkpt>
      <trkpt lat="42.358" lon="1.30646">
        <ele>1289.8</ele>
        <time>2022-05-22 14:51:38</time>
      </trkpt>
      <trkpt lat="42.35801" lon="1.30643">
        <ele>1289.8</ele>
        <time>2022-05-22 14:51:39</time>
      </trkpt>
      <trkpt lat="42.35801" lon="1.3064">
        <ele>1289.8</ele>
        <time>2022-05-22 14:51:40</time>
      </trkpt>
      <trkpt lat="42.35803" lon="1.30638">
        <ele>1290</ele>
        <time>2022-05-22 14:51:41</time>
      </trkpt>
      <trkpt lat="42.35804" lon="1.30636">
        <ele>1290.2</ele>
        <time>2022-05-22 14:51:42</time>
      </trkpt>
      <trkpt lat="42.35805" lon="1.30633">
        <ele>1290.4</ele>
        <time>2022-05-22 14:51:43</time>
      </trkpt>
      <trkpt lat="42.35806" lon="1.30631">
        <ele>1290.6</ele>
        <time>2022-05-22 14:51:44</time>
      </trkpt>
      <trkpt lat="42.35807" lon="1.30628">
        <ele>1290.6</ele>
        <time>2022-05-22 14:51:45</time>
      </trkpt>
      <trkpt lat="42.35808" lon="1.30626">
        <ele>1290.8</ele>
        <time>2022-05-22 14:51:46</time>
      </trkpt>
      <trkpt lat="42.35809" lon="1.30623">
        <ele>1290.8</ele>
        <time>2022-05-22 14:51:47</time>
      </trkpt>
      <trkpt lat="42.35811" lon="1.30621">
        <ele>1291</ele>
        <time>2022-05-22 14:51:48</time>
      </trkpt>
      <trkpt lat="42.35812" lon="1.30619">
        <ele>1291</ele>
        <time>2022-05-22 14:51:49</time>
      </trkpt>
      <trkpt lat="42.35813" lon="1.30616">
        <ele>1291</ele>
        <time>2022-05-22 14:51:50</time>
      </trkpt>
      <trkpt lat="42.35814" lon="1.30614">
        <ele>1291.2</ele>
        <time>2022-05-22 14:51:51</time>
      </trkpt>
      <trkpt lat="42.35815" lon="1.30611">
        <ele>1291.2</ele>
        <time>2022-05-22 14:51:52</time>
      </trkpt>
      <trkpt lat="42.35816" lon="1.30609">
        <ele>1291.4</ele>
        <time>2022-05-22 14:51:53</time>
      </trkpt>
      <trkpt lat="42.35818" lon="1.30607">
        <ele>1291.4</ele>
        <time>2022-05-22 14:51:54</time>
      </trkpt>
      <trkpt lat="42.35819" lon="1.30604">
        <ele>1291.6</ele>
        <time>2022-05-22 14:51:55</time>
      </trkpt>
      <trkpt lat="42.3582" lon="1.30602">
        <ele>1291.6</ele>
        <time>2022-05-22 14:51:56</time>
      </trkpt>
      <trkpt lat="42.35821" lon="1.306">
        <ele>1291.6</ele>
        <time>2022-05-22 14:51:57</time>
      </trkpt>
      <trkpt lat="42.35823" lon="1.30597">
        <ele>1291.8</ele>
        <time>2022-05-22 14:51:58</time>
      </trkpt>
      <trkpt lat="42.35824" lon="1.30595">
        <ele>1292</ele>
        <time>2022-05-22 14:51:59</time>
      </trkpt>
      <trkpt lat="42.35826" lon="1.30593">
        <ele>1292</ele>
        <time>2022-05-22 14:52:00</time>
      </trkpt>
      <trkpt lat="42.35827" lon="1.30591">
        <ele>1292</ele>
        <time>2022-05-22 14:52:01</time>
      </trkpt>
      <trkpt lat="42.35828" lon="1.30588">
        <ele>1292.2</ele>
        <time>2022-05-22 14:52:02</time>
      </trkpt>
      <trkpt lat="42.3583" lon="1.30586">
        <ele>1292.2</ele>
        <time>2022-05-22 14:52:03</time>
      </trkpt>
      <trkpt lat="42.35831" lon="1.30584">
        <ele>1292.4</ele>
        <time>2022-05-22 14:52:04</time>
      </trkpt>
      <trkpt lat="42.35832" lon="1.30582">
        <ele>1292.4</ele>
        <time>2022-05-22 14:52:05</time>
      </trkpt>
      <trkpt lat="42.35833" lon="1.3058">
        <ele>1292.4</ele>
        <time>2022-05-22 14:52:06</time>
      </trkpt>
      <trkpt lat="42.35835" lon="1.30578">
        <ele>1292.6</ele>
        <time>2022-05-22 14:52:07</time>
      </trkpt>
      <trkpt lat="42.35836" lon="1.30576">
        <ele>1292.8</ele>
        <time>2022-05-22 14:52:08</time>
      </trkpt>
      <trkpt lat="42.35838" lon="1.30574">
        <ele>1292.8</ele>
        <time>2022-05-22 14:52:09</time>
      </trkpt>
      <trkpt lat="42.35839" lon="1.30572">
        <ele>1293</ele>
        <time>2022-05-22 14:52:10</time>
      </trkpt>
      <trkpt lat="42.35841" lon="1.3057">
        <ele>1293.2</ele>
        <time>2022-05-22 14:52:11</time>
      </trkpt>
      <trkpt lat="42.35843" lon="1.30568">
        <ele>1293.4</ele>
        <time>2022-05-22 14:52:12</time>
      </trkpt>
      <trkpt lat="42.35844" lon="1.30565">
        <ele>1293.4</ele>
        <time>2022-05-22 14:52:13</time>
      </trkpt>
      <trkpt lat="42.35846" lon="1.30562">
        <ele>1293.6</ele>
        <time>2022-05-22 14:52:14</time>
      </trkpt>
      <trkpt lat="42.35848" lon="1.3056">
        <ele>1293.8</ele>
        <time>2022-05-22 14:52:15</time>
      </trkpt>
      <trkpt lat="42.3585" lon="1.30557">
        <ele>1294</ele>
        <time>2022-05-22 14:52:16</time>
      </trkpt>
      <trkpt lat="42.35851" lon="1.30554">
        <ele>1294.2</ele>
        <time>2022-05-22 14:52:17</time>
      </trkpt>
      <trkpt lat="42.35853" lon="1.30552">
        <ele>1294.4</ele>
        <time>2022-05-22 14:52:18</time>
      </trkpt>
      <trkpt lat="42.35855" lon="1.30549">
        <ele>1294.6</ele>
        <time>2022-05-22 14:52:19</time>
      </trkpt>
      <trkpt lat="42.35856" lon="1.30546">
        <ele>1294.8</ele>
        <time>2022-05-22 14:52:20</time>
      </trkpt>
      <trkpt lat="42.35858" lon="1.30543">
        <ele>1295</ele>
        <time>2022-05-22 14:52:21</time>
      </trkpt>
      <trkpt lat="42.35859" lon="1.3054">
        <ele>1295.2</ele>
        <time>2022-05-22 14:52:22</time>
      </trkpt>
      <trkpt lat="42.3586" lon="1.30537">
        <ele>1295.4</ele>
        <time>2022-05-22 14:52:23</time>
      </trkpt>
      <trkpt lat="42.35862" lon="1.30534">
        <ele>1295.6</ele>
        <time>2022-05-22 14:52:24</time>
      </trkpt>
      <trkpt lat="42.35863" lon="1.30531">
        <ele>1295.8</ele>
        <time>2022-05-22 14:52:25</time>
      </trkpt>
      <trkpt lat="42.35864" lon="1.30528">
        <ele>1296</ele>
        <time>2022-05-22 14:52:26</time>
      </trkpt>
      <trkpt lat="42.35866" lon="1.30525">
        <ele>1296</ele>
        <time>2022-05-22 14:52:27</time>
      </trkpt>
      <trkpt lat="42.35867" lon="1.30522">
        <ele>1296.2</ele>
        <time>2022-05-22 14:52:28</time>
      </trkpt>
      <trkpt lat="42.35868" lon="1.30518">
        <ele>1296.4</ele>
        <time>2022-05-22 14:52:29</time>
      </trkpt>
      <trkpt lat="42.35869" lon="1.30515">
        <ele>1296.4</ele>
        <time>2022-05-22 14:52:30</time>
      </trkpt>
      <trkpt lat="42.3587" lon="1.30512">
        <ele>1296.6</ele>
        <time>2022-05-22 14:52:31</time>
      </trkpt>
      <trkpt lat="42.35871" lon="1.30509">
        <ele>1296.8</ele>
        <time>2022-05-22 14:52:32</time>
      </trkpt>
      <trkpt lat="42.35872" lon="1.30505">
        <ele>1296.8</ele>
        <time>2022-05-22 14:52:33</time>
      </trkpt>
      <trkpt lat="42.35874" lon="1.30502">
        <ele>1297</ele>
        <time>2022-05-22 14:52:34</time>
      </trkpt>
      <trkpt lat="42.35875" lon="1.30499">
        <ele>1297</ele>
        <time>2022-05-22 14:52:35</time>
      </trkpt>
      <trkpt lat="42.35876" lon="1.30496">
        <ele>1297</ele>
        <time>2022-05-22 14:52:36</time>
      </trkpt>
      <trkpt lat="42.35877" lon="1.30493">
        <ele>1297.2</ele>
        <time>2022-05-22 14:52:37</time>
      </trkpt>
      <trkpt lat="42.35878" lon="1.30491">
        <ele>1297.4</ele>
        <time>2022-05-22 14:52:38</time>
      </trkpt>
      <trkpt lat="42.35879" lon="1.30488">
        <ele>1297.6</ele>
        <time>2022-05-22 14:52:39</time>
      </trkpt>
      <trkpt lat="42.3588" lon="1.30485">
        <ele>1297.8</ele>
        <time>2022-05-22 14:52:40</time>
      </trkpt>
      <trkpt lat="42.35882" lon="1.30483">
        <ele>1298</ele>
        <time>2022-05-22 14:52:41</time>
      </trkpt>
      <trkpt lat="42.35883" lon="1.3048">
        <ele>1298.2</ele>
        <time>2022-05-22 14:52:42</time>
      </trkpt>
      <trkpt lat="42.35884" lon="1.30477">
        <ele>1298.2</ele>
        <time>2022-05-22 14:52:43</time>
      </trkpt>
      <trkpt lat="42.35885" lon="1.30474">
        <ele>1298.4</ele>
        <time>2022-05-22 14:52:44</time>
      </trkpt>
      <trkpt lat="42.35887" lon="1.30472">
        <ele>1298.4</ele>
        <time>2022-05-22 14:52:45</time>
      </trkpt>
      <trkpt lat="42.35888" lon="1.30469">
        <ele>1298.6</ele>
        <time>2022-05-22 14:52:46</time>
      </trkpt>
      <trkpt lat="42.35889" lon="1.30466">
        <ele>1298.8</ele>
        <time>2022-05-22 14:52:47</time>
      </trkpt>
      <trkpt lat="42.3589" lon="1.30464">
        <ele>1299</ele>
        <time>2022-05-22 14:52:48</time>
      </trkpt>
      <trkpt lat="42.35891" lon="1.30461">
        <ele>1299</ele>
        <time>2022-05-22 14:52:49</time>
      </trkpt>
      <trkpt lat="42.35893" lon="1.30459">
        <ele>1299.2</ele>
        <time>2022-05-22 14:52:50</time>
      </trkpt>
      <trkpt lat="42.35894" lon="1.30456">
        <ele>1299.2</ele>
        <time>2022-05-22 14:52:51</time>
      </trkpt>
      <trkpt lat="42.35895" lon="1.30454">
        <ele>1299.4</ele>
        <time>2022-05-22 14:52:52</time>
      </trkpt>
      <trkpt lat="42.35897" lon="1.30452">
        <ele>1299.4</ele>
        <time>2022-05-22 14:52:53</time>
      </trkpt>
      <trkpt lat="42.35898" lon="1.3045">
        <ele>1299.4</ele>
        <time>2022-05-22 14:52:54</time>
      </trkpt>
      <trkpt lat="42.35899" lon="1.30448">
        <ele>1299.6</ele>
        <time>2022-05-22 14:52:55</time>
      </trkpt>
      <trkpt lat="42.35901" lon="1.30445">
        <ele>1299.6</ele>
        <time>2022-05-22 14:52:56</time>
      </trkpt>
      <trkpt lat="42.35903" lon="1.30443">
        <ele>1299.8</ele>
        <time>2022-05-22 14:52:57</time>
      </trkpt>
      <trkpt lat="42.35904" lon="1.30441">
        <ele>1299.8</ele>
        <time>2022-05-22 14:52:58</time>
      </trkpt>
      <trkpt lat="42.35906" lon="1.30439">
        <ele>1299.8</ele>
        <time>2022-05-22 14:52:59</time>
      </trkpt>
      <trkpt lat="42.35908" lon="1.30437">
        <ele>1300</ele>
        <time>2022-05-22 14:53:00</time>
      </trkpt>
      <trkpt lat="42.35909" lon="1.30435">
        <ele>1300</ele>
        <time>2022-05-22 14:53:01</time>
      </trkpt>
      <trkpt lat="42.35911" lon="1.30433">
        <ele>1300</ele>
        <time>2022-05-22 14:53:02</time>
      </trkpt>
      <trkpt lat="42.35912" lon="1.30431">
        <ele>1300.2</ele>
        <time>2022-05-22 14:53:03</time>
      </trkpt>
      <trkpt lat="42.35914" lon="1.30429">
        <ele>1300.2</ele>
        <time>2022-05-22 14:53:04</time>
      </trkpt>
      <trkpt lat="42.35915" lon="1.30427">
        <ele>1300.6</ele>
        <time>2022-05-22 14:53:05</time>
      </trkpt>
      <trkpt lat="42.35917" lon="1.30425">
        <ele>1300.6</ele>
        <time>2022-05-22 14:53:06</time>
      </trkpt>
      <trkpt lat="42.35919" lon="1.30423">
        <ele>1300.8</ele>
        <time>2022-05-22 14:53:07</time>
      </trkpt>
      <trkpt lat="42.3592" lon="1.3042">
        <ele>1300.8</ele>
        <time>2022-05-22 14:53:08</time>
      </trkpt>
      <trkpt lat="42.35922" lon="1.30418">
        <ele>1300.6</ele>
        <time>2022-05-22 14:53:09</time>
      </trkpt>
      <trkpt lat="42.35924" lon="1.30417">
        <ele>1300.8</ele>
        <time>2022-05-22 14:53:10</time>
      </trkpt>
      <trkpt lat="42.35926" lon="1.30415">
        <ele>1300.8</ele>
        <time>2022-05-22 14:53:11</time>
      </trkpt>
      <trkpt lat="42.35928" lon="1.30413">
        <ele>1301</ele>
        <time>2022-05-22 14:53:12</time>
      </trkpt>
      <trkpt lat="42.3593" lon="1.30411">
        <ele>1301.2</ele>
        <time>2022-05-22 14:53:13</time>
      </trkpt>
      <trkpt lat="42.35932" lon="1.30409">
        <ele>1301.4</ele>
        <time>2022-05-22 14:53:14</time>
      </trkpt>
      <trkpt lat="42.35934" lon="1.30407">
        <ele>1301.4</ele>
        <time>2022-05-22 14:53:15</time>
      </trkpt>
      <trkpt lat="42.35936" lon="1.30406">
        <ele>1301.6</ele>
        <time>2022-05-22 14:53:16</time>
      </trkpt>
      <trkpt lat="42.35938" lon="1.30404">
        <ele>1301.6</ele>
        <time>2022-05-22 14:53:17</time>
      </trkpt>
      <trkpt lat="42.35939" lon="1.30402">
        <ele>1301.8</ele>
        <time>2022-05-22 14:53:18</time>
      </trkpt>
      <trkpt lat="42.35941" lon="1.304">
        <ele>1302</ele>
        <time>2022-05-22 14:53:19</time>
      </trkpt>
      <trkpt lat="42.35943" lon="1.30398">
        <ele>1302.2</ele>
        <time>2022-05-22 14:53:20</time>
      </trkpt>
      <trkpt lat="42.35944" lon="1.30396">
        <ele>1302.4</ele>
        <time>2022-05-22 14:53:21</time>
      </trkpt>
      <trkpt lat="42.35946" lon="1.30394">
        <ele>1302.6</ele>
        <time>2022-05-22 14:53:22</time>
      </trkpt>
      <trkpt lat="42.35948" lon="1.30392">
        <ele>1302.6</ele>
        <time>2022-05-22 14:53:23</time>
      </trkpt>
      <trkpt lat="42.3595" lon="1.3039">
        <ele>1302.8</ele>
        <time>2022-05-22 14:53:24</time>
      </trkpt>
      <trkpt lat="42.35952" lon="1.30388">
        <ele>1302.8</ele>
        <time>2022-05-22 14:53:25</time>
      </trkpt>
      <trkpt lat="42.35954" lon="1.30386">
        <ele>1303</ele>
        <time>2022-05-22 14:53:26</time>
      </trkpt>
      <trkpt lat="42.35956" lon="1.30384">
        <ele>1303.2</ele>
        <time>2022-05-22 14:53:27</time>
      </trkpt>
      <trkpt lat="42.35958" lon="1.30383">
        <ele>1303.2</ele>
        <time>2022-05-22 14:53:28</time>
      </trkpt>
      <trkpt lat="42.35959" lon="1.30381">
        <ele>1303.4</ele>
        <time>2022-05-22 14:53:29</time>
      </trkpt>
      <trkpt lat="42.35961" lon="1.30379">
        <ele>1303.4</ele>
        <time>2022-05-22 14:53:30</time>
      </trkpt>
      <trkpt lat="42.35963" lon="1.30377">
        <ele>1303.6</ele>
        <time>2022-05-22 14:53:31</time>
      </trkpt>
      <trkpt lat="42.35965" lon="1.30375">
        <ele>1303.6</ele>
        <time>2022-05-22 14:53:32</time>
      </trkpt>
      <trkpt lat="42.35967" lon="1.30373">
        <ele>1303.8</ele>
        <time>2022-05-22 14:53:33</time>
      </trkpt>
      <trkpt lat="42.35969" lon="1.30371">
        <ele>1304</ele>
        <time>2022-05-22 14:53:34</time>
      </trkpt>
      <trkpt lat="42.35971" lon="1.3037">
        <ele>1304</ele>
        <time>2022-05-22 14:53:35</time>
      </trkpt>
      <trkpt lat="42.35973" lon="1.30368">
        <ele>1304.2</ele>
        <time>2022-05-22 14:53:36</time>
      </trkpt>
      <trkpt lat="42.35976" lon="1.30367">
        <ele>1304.4</ele>
        <time>2022-05-22 14:53:37</time>
      </trkpt>
      <trkpt lat="42.35978" lon="1.30365">
        <ele>1304.6</ele>
        <time>2022-05-22 14:53:38</time>
      </trkpt>
      <trkpt lat="42.35981" lon="1.30364">
        <ele>1304.8</ele>
        <time>2022-05-22 14:53:39</time>
      </trkpt>
      <trkpt lat="42.35983" lon="1.30362">
        <ele>1304.8</ele>
        <time>2022-05-22 14:53:40</time>
      </trkpt>
      <trkpt lat="42.35985" lon="1.30361">
        <ele>1305</ele>
        <time>2022-05-22 14:53:41</time>
      </trkpt>
      <trkpt lat="42.35987" lon="1.3036">
        <ele>1305</ele>
        <time>2022-05-22 14:53:42</time>
      </trkpt>
      <trkpt lat="42.35989" lon="1.30358">
        <ele>1305.2</ele>
        <time>2022-05-22 14:53:43</time>
      </trkpt>
      <trkpt lat="42.35991" lon="1.30357">
        <ele>1305.4</ele>
        <time>2022-05-22 14:53:44</time>
      </trkpt>
      <trkpt lat="42.35993" lon="1.30356">
        <ele>1305.4</ele>
        <time>2022-05-22 14:53:45</time>
      </trkpt>
      <trkpt lat="42.35995" lon="1.30354">
        <ele>1305.4</ele>
        <time>2022-05-22 14:53:46</time>
      </trkpt>
      <trkpt lat="42.35997" lon="1.30353">
        <ele>1305.6</ele>
        <time>2022-05-22 14:53:47</time>
      </trkpt>
      <trkpt lat="42.35999" lon="1.30352">
        <ele>1305.8</ele>
        <time>2022-05-22 14:53:48</time>
      </trkpt>
      <trkpt lat="42.36001" lon="1.30351">
        <ele>1305.8</ele>
        <time>2022-05-22 14:53:49</time>
      </trkpt>
      <trkpt lat="42.36003" lon="1.3035">
        <ele>1305.8</ele>
        <time>2022-05-22 14:53:50</time>
      </trkpt>
      <trkpt lat="42.36005" lon="1.30349">
        <ele>1305.6</ele>
        <time>2022-05-22 14:53:51</time>
      </trkpt>
      <trkpt lat="42.36007" lon="1.30348">
        <ele>1305.6</ele>
        <time>2022-05-22 14:53:52</time>
      </trkpt>
      <trkpt lat="42.36009" lon="1.30347">
        <ele>1305.6</ele>
        <time>2022-05-22 14:53:53</time>
      </trkpt>
      <trkpt lat="42.36011" lon="1.30347">
        <ele>1305.6</ele>
        <time>2022-05-22 14:53:54</time>
      </trkpt>
      <trkpt lat="42.36013" lon="1.30346">
        <ele>1305.6</ele>
        <time>2022-05-22 14:53:55</time>
      </trkpt>
      <trkpt lat="42.36015" lon="1.30345">
        <ele>1305.6</ele>
        <time>2022-05-22 14:53:56</time>
      </trkpt>
      <trkpt lat="42.36017" lon="1.30345">
        <ele>1305.8</ele>
        <time>2022-05-22 14:53:57</time>
      </trkpt>
      <trkpt lat="42.36019" lon="1.30344">
        <ele>1305.8</ele>
        <time>2022-05-22 14:53:58</time>
      </trkpt>
      <trkpt lat="42.36021" lon="1.30343">
        <ele>1305.8</ele>
        <time>2022-05-22 14:53:59</time>
      </trkpt>
      <trkpt lat="42.36023" lon="1.30342">
        <ele>1305.8</ele>
        <time>2022-05-22 14:54:00</time>
      </trkpt>
      <trkpt lat="42.36025" lon="1.30341">
        <ele>1305.8</ele>
        <time>2022-05-22 14:54:01</time>
      </trkpt>
      <trkpt lat="42.36027" lon="1.3034">
        <ele>1305.8</ele>
        <time>2022-05-22 14:54:02</time>
      </trkpt>
      <trkpt lat="42.36029" lon="1.30339">
        <ele>1306</ele>
        <time>2022-05-22 14:54:03</time>
      </trkpt>
      <trkpt lat="42.36031" lon="1.30338">
        <ele>1306</ele>
        <time>2022-05-22 14:54:04</time>
      </trkpt>
      <trkpt lat="42.36033" lon="1.30336">
        <ele>1306</ele>
        <time>2022-05-22 14:54:05</time>
      </trkpt>
      <trkpt lat="42.36034" lon="1.30335">
        <ele>1306</ele>
        <time>2022-05-22 14:54:06</time>
      </trkpt>
      <trkpt lat="42.36036" lon="1.30334">
        <ele>1306</ele>
        <time>2022-05-22 14:54:07</time>
      </trkpt>
      <trkpt lat="42.36038" lon="1.30332">
        <ele>1306</ele>
        <time>2022-05-22 14:54:08</time>
      </trkpt>
      <trkpt lat="42.3604" lon="1.30331">
        <ele>1306.2</ele>
        <time>2022-05-22 14:54:09</time>
      </trkpt>
      <trkpt lat="42.36042" lon="1.3033">
        <ele>1306.2</ele>
        <time>2022-05-22 14:54:10</time>
      </trkpt>
      <trkpt lat="42.36044" lon="1.30328">
        <ele>1306.4</ele>
        <time>2022-05-22 14:54:11</time>
      </trkpt>
      <trkpt lat="42.36045" lon="1.30327">
        <ele>1306.6</ele>
        <time>2022-05-22 14:54:12</time>
      </trkpt>
      <trkpt lat="42.36047" lon="1.30326">
        <ele>1306.6</ele>
        <time>2022-05-22 14:54:13</time>
      </trkpt>
      <trkpt lat="42.36049" lon="1.30325">
        <ele>1306.6</ele>
        <time>2022-05-22 14:54:14</time>
      </trkpt>
      <trkpt lat="42.3605" lon="1.30324">
        <ele>1306.8</ele>
        <time>2022-05-22 14:54:15</time>
      </trkpt>
      <trkpt lat="42.36053" lon="1.30322">
        <ele>1306.8</ele>
        <time>2022-05-22 14:54:16</time>
      </trkpt>
      <trkpt lat="42.36055" lon="1.30321">
        <ele>1306.8</ele>
        <time>2022-05-22 14:54:17</time>
      </trkpt>
      <trkpt lat="42.36056" lon="1.30319">
        <ele>1307</ele>
        <time>2022-05-22 14:54:18</time>
      </trkpt>
      <trkpt lat="42.36058" lon="1.30317">
        <ele>1307</ele>
        <time>2022-05-22 14:54:19</time>
      </trkpt>
      <trkpt lat="42.3606" lon="1.30315">
        <ele>1307.2</ele>
        <time>2022-05-22 14:54:20</time>
      </trkpt>
      <trkpt lat="42.36062" lon="1.30313">
        <ele>1307.4</ele>
        <time>2022-05-22 14:54:21</time>
      </trkpt>
      <trkpt lat="42.36063" lon="1.30311">
        <ele>1307.6</ele>
        <time>2022-05-22 14:54:22</time>
      </trkpt>
      <trkpt lat="42.36065" lon="1.30309">
        <ele>1307.8</ele>
        <time>2022-05-22 14:54:23</time>
      </trkpt>
      <trkpt lat="42.36066" lon="1.30308">
        <ele>1307.8</ele>
        <time>2022-05-22 14:54:24</time>
      </trkpt>
      <trkpt lat="42.36068" lon="1.30306">
        <ele>1308</ele>
        <time>2022-05-22 14:54:25</time>
      </trkpt>
      <trkpt lat="42.3607" lon="1.30305">
        <ele>1308</ele>
        <time>2022-05-22 14:54:26</time>
      </trkpt>
      <trkpt lat="42.36072" lon="1.30303">
        <ele>1308</ele>
        <time>2022-05-22 14:54:27</time>
      </trkpt>
      <trkpt lat="42.36073" lon="1.30302">
        <ele>1308.2</ele>
        <time>2022-05-22 14:54:28</time>
      </trkpt>
      <trkpt lat="42.36075" lon="1.303">
        <ele>1308.2</ele>
        <time>2022-05-22 14:54:29</time>
      </trkpt>
      <trkpt lat="42.36076" lon="1.30298">
        <ele>1308.2</ele>
        <time>2022-05-22 14:54:30</time>
      </trkpt>
      <trkpt lat="42.36078" lon="1.30297">
        <ele>1308.4</ele>
        <time>2022-05-22 14:54:31</time>
      </trkpt>
      <trkpt lat="42.3608" lon="1.30296">
        <ele>1308.4</ele>
        <time>2022-05-22 14:54:32</time>
      </trkpt>
      <trkpt lat="42.36082" lon="1.30295">
        <ele>1308.6</ele>
        <time>2022-05-22 14:54:33</time>
      </trkpt>
      <trkpt lat="42.36084" lon="1.30294">
        <ele>1308.6</ele>
        <time>2022-05-22 14:54:34</time>
      </trkpt>
      <trkpt lat="42.36086" lon="1.30293">
        <ele>1308.6</ele>
        <time>2022-05-22 14:54:35</time>
      </trkpt>
      <trkpt lat="42.36087" lon="1.30291">
        <ele>1308.6</ele>
        <time>2022-05-22 14:54:36</time>
      </trkpt>
      <trkpt lat="42.36089" lon="1.3029">
        <ele>1308.6</ele>
        <time>2022-05-22 14:54:37</time>
      </trkpt>
      <trkpt lat="42.36091" lon="1.30288">
        <ele>1308.6</ele>
        <time>2022-05-22 14:54:38</time>
      </trkpt>
      <trkpt lat="42.36093" lon="1.30286">
        <ele>1308.6</ele>
        <time>2022-05-22 14:54:39</time>
      </trkpt>
      <trkpt lat="42.36095" lon="1.30285">
        <ele>1308.4</ele>
        <time>2022-05-22 14:54:40</time>
      </trkpt>
      <trkpt lat="42.36096" lon="1.30283">
        <ele>1308.6</ele>
        <time>2022-05-22 14:54:41</time>
      </trkpt>
      <trkpt lat="42.36098" lon="1.30281">
        <ele>1308.6</ele>
        <time>2022-05-22 14:54:42</time>
      </trkpt>
      <trkpt lat="42.361" lon="1.30279">
        <ele>1308.6</ele>
        <time>2022-05-22 14:54:43</time>
      </trkpt>
      <trkpt lat="42.36102" lon="1.30278">
        <ele>1309</ele>
        <time>2022-05-22 14:54:44</time>
      </trkpt>
      <trkpt lat="42.36104" lon="1.30276">
        <ele>1309.4</ele>
        <time>2022-05-22 14:54:45</time>
      </trkpt>
      <trkpt lat="42.36105" lon="1.30275">
        <ele>1309.6</ele>
        <time>2022-05-22 14:54:46</time>
      </trkpt>
      <trkpt lat="42.36107" lon="1.30273">
        <ele>1309.8</ele>
        <time>2022-05-22 14:54:47</time>
      </trkpt>
      <trkpt lat="42.36108" lon="1.30271">
        <ele>1309.8</ele>
        <time>2022-05-22 14:54:48</time>
      </trkpt>
      <trkpt lat="42.3611" lon="1.3027">
        <ele>1310</ele>
        <time>2022-05-22 14:54:49</time>
      </trkpt>
      <trkpt lat="42.36112" lon="1.30268">
        <ele>1310</ele>
        <time>2022-05-22 14:54:50</time>
      </trkpt>
      <trkpt lat="42.36114" lon="1.30267">
        <ele>1310.2</ele>
        <time>2022-05-22 14:54:51</time>
      </trkpt>
      <trkpt lat="42.36115" lon="1.30266">
        <ele>1310.2</ele>
        <time>2022-05-22 14:54:52</time>
      </trkpt>
      <trkpt lat="42.36117" lon="1.30265">
        <ele>1310.4</ele>
        <time>2022-05-22 14:54:53</time>
      </trkpt>
      <trkpt lat="42.36119" lon="1.30264">
        <ele>1310.2</ele>
        <time>2022-05-22 14:54:54</time>
      </trkpt>
      <trkpt lat="42.36121" lon="1.30263">
        <ele>1310.2</ele>
        <time>2022-05-22 14:54:55</time>
      </trkpt>
      <trkpt lat="42.36123" lon="1.30262">
        <ele>1310.2</ele>
        <time>2022-05-22 14:54:56</time>
      </trkpt>
      <trkpt lat="42.36125" lon="1.30261">
        <ele>1310.2</ele>
        <time>2022-05-22 14:54:57</time>
      </trkpt>
      <trkpt lat="42.36126" lon="1.30259">
        <ele>1310.2</ele>
        <time>2022-05-22 14:54:58</time>
      </trkpt>
      <trkpt lat="42.36128" lon="1.30258">
        <ele>1310</ele>
        <time>2022-05-22 14:54:59</time>
      </trkpt>
      <trkpt lat="42.3613" lon="1.30257">
        <ele>1310</ele>
        <time>2022-05-22 14:55:00</time>
      </trkpt>
      <trkpt lat="42.36132" lon="1.30257">
        <ele>1310.4</ele>
        <time>2022-05-22 14:55:01</time>
      </trkpt>
      <trkpt lat="42.36134" lon="1.30256">
        <ele>1310.4</ele>
        <time>2022-05-22 14:55:02</time>
      </trkpt>
      <trkpt lat="42.36136" lon="1.30255">
        <ele>1310.4</ele>
        <time>2022-05-22 14:55:03</time>
      </trkpt>
      <trkpt lat="42.36138" lon="1.30254">
        <ele>1310.6</ele>
        <time>2022-05-22 14:55:04</time>
      </trkpt>
      <trkpt lat="42.36139" lon="1.30253">
        <ele>1310.8</ele>
        <time>2022-05-22 14:55:05</time>
      </trkpt>
      <trkpt lat="42.36141" lon="1.30252">
        <ele>1311</ele>
        <time>2022-05-22 14:55:06</time>
      </trkpt>
      <trkpt lat="42.36143" lon="1.30251">
        <ele>1311.2</ele>
        <time>2022-05-22 14:55:07</time>
      </trkpt>
      <trkpt lat="42.36145" lon="1.3025">
        <ele>1311.4</ele>
        <time>2022-05-22 14:55:08</time>
      </trkpt>
      <trkpt lat="42.36147" lon="1.30249">
        <ele>1311.6</ele>
        <time>2022-05-22 14:55:09</time>
      </trkpt>
      <trkpt lat="42.36149" lon="1.30248">
        <ele>1311.8</ele>
        <time>2022-05-22 14:55:10</time>
      </trkpt>
      <trkpt lat="42.36151" lon="1.30247">
        <ele>1312</ele>
        <time>2022-05-22 14:55:11</time>
      </trkpt>
      <trkpt lat="42.36154" lon="1.30246">
        <ele>1312.2</ele>
        <time>2022-05-22 14:55:12</time>
      </trkpt>
      <trkpt lat="42.36156" lon="1.30245">
        <ele>1312.4</ele>
        <time>2022-05-22 14:55:13</time>
      </trkpt>
      <trkpt lat="42.36158" lon="1.30245">
        <ele>1312.6</ele>
        <time>2022-05-22 14:55:14</time>
      </trkpt>
      <trkpt lat="42.3616" lon="1.30244">
        <ele>1312.8</ele>
        <time>2022-05-22 14:55:15</time>
      </trkpt>
      <trkpt lat="42.36162" lon="1.30242">
        <ele>1313</ele>
        <time>2022-05-22 14:55:16</time>
      </trkpt>
      <trkpt lat="42.36164" lon="1.30241">
        <ele>1313.4</ele>
        <time>2022-05-22 14:55:17</time>
      </trkpt>
      <trkpt lat="42.36166" lon="1.3024">
        <ele>1313.6</ele>
        <time>2022-05-22 14:55:18</time>
      </trkpt>
      <trkpt lat="42.36168" lon="1.30239">
        <ele>1313.8</ele>
        <time>2022-05-22 14:55:19</time>
      </trkpt>
      <trkpt lat="42.3617" lon="1.30238">
        <ele>1314</ele>
        <time>2022-05-22 14:55:20</time>
      </trkpt>
      <trkpt lat="42.36172" lon="1.30237">
        <ele>1314.4</ele>
        <time>2022-05-22 14:55:21</time>
      </trkpt>
      <trkpt lat="42.36174" lon="1.30236">
        <ele>1314.4</ele>
        <time>2022-05-22 14:55:22</time>
      </trkpt>
      <trkpt lat="42.36176" lon="1.30235">
        <ele>1314.6</ele>
        <time>2022-05-22 14:55:23</time>
      </trkpt>
      <trkpt lat="42.36178" lon="1.30234">
        <ele>1314.6</ele>
        <time>2022-05-22 14:55:24</time>
      </trkpt>
      <trkpt lat="42.3618" lon="1.30234">
        <ele>1314.8</ele>
        <time>2022-05-22 14:55:25</time>
      </trkpt>
      <trkpt lat="42.36182" lon="1.30233">
        <ele>1314.8</ele>
        <time>2022-05-22 14:55:26</time>
      </trkpt>
      <trkpt lat="42.36183" lon="1.30233">
        <ele>1315</ele>
        <time>2022-05-22 14:55:27</time>
      </trkpt>
      <trkpt lat="42.36185" lon="1.30232">
        <ele>1315</ele>
        <time>2022-05-22 14:55:28</time>
      </trkpt>
      <trkpt lat="42.36187" lon="1.30232">
        <ele>1315.2</ele>
        <time>2022-05-22 14:55:29</time>
      </trkpt>
      <trkpt lat="42.36189" lon="1.30231">
        <ele>1315.4</ele>
        <time>2022-05-22 14:55:30</time>
      </trkpt>
      <trkpt lat="42.36191" lon="1.3023">
        <ele>1315.6</ele>
        <time>2022-05-22 14:55:31</time>
      </trkpt>
      <trkpt lat="42.36193" lon="1.30229">
        <ele>1315.8</ele>
        <time>2022-05-22 14:55:32</time>
      </trkpt>
      <trkpt lat="42.36194" lon="1.30228">
        <ele>1316</ele>
        <time>2022-05-22 14:55:33</time>
      </trkpt>
      <trkpt lat="42.36196" lon="1.30226">
        <ele>1316.2</ele>
        <time>2022-05-22 14:55:34</time>
      </trkpt>
      <trkpt lat="42.36198" lon="1.30225">
        <ele>1316.4</ele>
        <time>2022-05-22 14:55:35</time>
      </trkpt>
      <trkpt lat="42.362" lon="1.30224">
        <ele>1316.4</ele>
        <time>2022-05-22 14:55:36</time>
      </trkpt>
      <trkpt lat="42.36202" lon="1.30223">
        <ele>1316.6</ele>
        <time>2022-05-22 14:55:37</time>
      </trkpt>
      <trkpt lat="42.36203" lon="1.30222">
        <ele>1316.6</ele>
        <time>2022-05-22 14:55:38</time>
      </trkpt>
      <trkpt lat="42.36205" lon="1.30221">
        <ele>1316.8</ele>
        <time>2022-05-22 14:55:39</time>
      </trkpt>
      <trkpt lat="42.36207" lon="1.30219">
        <ele>1317</ele>
        <time>2022-05-22 14:55:40</time>
      </trkpt>
      <trkpt lat="42.36208" lon="1.30218">
        <ele>1317.2</ele>
        <time>2022-05-22 14:55:41</time>
      </trkpt>
      <trkpt lat="42.3621" lon="1.30217">
        <ele>1317.4</ele>
        <time>2022-05-22 14:55:42</time>
      </trkpt>
      <trkpt lat="42.36211" lon="1.30216">
        <ele>1317.6</ele>
        <time>2022-05-22 14:55:43</time>
      </trkpt>
      <trkpt lat="42.36213" lon="1.30214">
        <ele>1317.8</ele>
        <time>2022-05-22 14:55:44</time>
      </trkpt>
      <trkpt lat="42.36214" lon="1.30212">
        <ele>1318</ele>
        <time>2022-05-22 14:55:45</time>
      </trkpt>
      <trkpt lat="42.36216" lon="1.3021">
        <ele>1318.2</ele>
        <time>2022-05-22 14:55:46</time>
      </trkpt>
      <trkpt lat="42.36217" lon="1.30208">
        <ele>1318.6</ele>
        <time>2022-05-22 14:55:47</time>
      </trkpt>
      <trkpt lat="42.36219" lon="1.30206">
        <ele>1318.8</ele>
        <time>2022-05-22 14:55:48</time>
      </trkpt>
      <trkpt lat="42.36221" lon="1.30203">
        <ele>1319</ele>
        <time>2022-05-22 14:55:49</time>
      </trkpt>
      <trkpt lat="42.36222" lon="1.30201">
        <ele>1319.2</ele>
        <time>2022-05-22 14:55:50</time>
      </trkpt>
      <trkpt lat="42.36223" lon="1.30198">
        <ele>1319.4</ele>
        <time>2022-05-22 14:55:51</time>
      </trkpt>
      <trkpt lat="42.36225" lon="1.30196">
        <ele>1319.6</ele>
        <time>2022-05-22 14:55:52</time>
      </trkpt>
      <trkpt lat="42.36226" lon="1.30193">
        <ele>1319.8</ele>
        <time>2022-05-22 14:55:53</time>
      </trkpt>
      <trkpt lat="42.36227" lon="1.3019">
        <ele>1319.8</ele>
        <time>2022-05-22 14:55:54</time>
      </trkpt>
      <trkpt lat="42.36228" lon="1.30188">
        <ele>1320</ele>
        <time>2022-05-22 14:55:55</time>
      </trkpt>
      <trkpt lat="42.36229" lon="1.30185">
        <ele>1320.2</ele>
        <time>2022-05-22 14:55:56</time>
      </trkpt>
      <trkpt lat="42.3623" lon="1.30183">
        <ele>1320.2</ele>
        <time>2022-05-22 14:55:57</time>
      </trkpt>
      <trkpt lat="42.3623" lon="1.3018">
        <ele>1320.4</ele>
        <time>2022-05-22 14:55:58</time>
      </trkpt>
      <trkpt lat="42.36231" lon="1.30178">
        <ele>1320.4</ele>
        <time>2022-05-22 14:55:59</time>
      </trkpt>
      <trkpt lat="42.36231" lon="1.30175">
        <ele>1320.4</ele>
        <time>2022-05-22 14:56:00</time>
      </trkpt>
      <trkpt lat="42.36231" lon="1.30172">
        <ele>1320.6</ele>
        <time>2022-05-22 14:56:01</time>
      </trkpt>
      <trkpt lat="42.36231" lon="1.3017">
        <ele>1320.6</ele>
        <time>2022-05-22 14:56:02</time>
      </trkpt>
      <trkpt lat="42.36231" lon="1.30167">
        <ele>1320.6</ele>
        <time>2022-05-22 14:56:03</time>
      </trkpt>
      <trkpt lat="42.36231" lon="1.30164">
        <ele>1320.6</ele>
        <time>2022-05-22 14:56:04</time>
      </trkpt>
      <trkpt lat="42.36231" lon="1.30162">
        <ele>1320.8</ele>
        <time>2022-05-22 14:56:05</time>
      </trkpt>
      <trkpt lat="42.36231" lon="1.30159">
        <ele>1320.8</ele>
        <time>2022-05-22 14:56:06</time>
      </trkpt>
      <trkpt lat="42.36231" lon="1.30157">
        <ele>1321</ele>
        <time>2022-05-22 14:56:07</time>
      </trkpt>
      <trkpt lat="42.3623" lon="1.30155">
        <ele>1321.2</ele>
        <time>2022-05-22 14:56:08</time>
      </trkpt>
      <trkpt lat="42.3623" lon="1.30152">
        <ele>1321.4</ele>
        <time>2022-05-22 14:56:09</time>
      </trkpt>
      <trkpt lat="42.3623" lon="1.3015">
        <ele>1321.4</ele>
        <time>2022-05-22 14:56:10</time>
      </trkpt>
      <trkpt lat="42.3623" lon="1.30147">
        <ele>1321.6</ele>
        <time>2022-05-22 14:56:11</time>
      </trkpt>
      <trkpt lat="42.3623" lon="1.30145">
        <ele>1321.6</ele>
        <time>2022-05-22 14:56:12</time>
      </trkpt>
      <trkpt lat="42.3623" lon="1.30143">
        <ele>1321.8</ele>
        <time>2022-05-22 14:56:13</time>
      </trkpt>
      <trkpt lat="42.3623" lon="1.3014">
        <ele>1321.8</ele>
        <time>2022-05-22 14:56:14</time>
      </trkpt>
      <trkpt lat="42.3623" lon="1.30137">
        <ele>1322</ele>
        <time>2022-05-22 14:56:15</time>
      </trkpt>
      <trkpt lat="42.3623" lon="1.30135">
        <ele>1322</ele>
        <time>2022-05-22 14:56:16</time>
      </trkpt>
      <trkpt lat="42.3623" lon="1.30132">
        <ele>1322.2</ele>
        <time>2022-05-22 14:56:17</time>
      </trkpt>
      <trkpt lat="42.36229" lon="1.30129">
        <ele>1322.2</ele>
        <time>2022-05-22 14:56:18</time>
      </trkpt>
      <trkpt lat="42.36229" lon="1.30126">
        <ele>1322.4</ele>
        <time>2022-05-22 14:56:19</time>
      </trkpt>
      <trkpt lat="42.36228" lon="1.30124">
        <ele>1322.6</ele>
        <time>2022-05-22 14:56:20</time>
      </trkpt>
      <trkpt lat="42.36227" lon="1.30121">
        <ele>1322.8</ele>
        <time>2022-05-22 14:56:21</time>
      </trkpt>
      <trkpt lat="42.36226" lon="1.30118">
        <ele>1323</ele>
        <time>2022-05-22 14:56:22</time>
      </trkpt>
      <trkpt lat="42.36226" lon="1.30115">
        <ele>1323</ele>
        <time>2022-05-22 14:56:23</time>
      </trkpt>
      <trkpt lat="42.36225" lon="1.30113">
        <ele>1323.2</ele>
        <time>2022-05-22 14:56:24</time>
      </trkpt>
      <trkpt lat="42.36225" lon="1.3011">
        <ele>1323.4</ele>
        <time>2022-05-22 14:56:25</time>
      </trkpt>
      <trkpt lat="42.36225" lon="1.30107">
        <ele>1323.6</ele>
        <time>2022-05-22 14:56:26</time>
      </trkpt>
      <trkpt lat="42.36224" lon="1.30105">
        <ele>1323.6</ele>
        <time>2022-05-22 14:56:27</time>
      </trkpt>
      <trkpt lat="42.36224" lon="1.30102">
        <ele>1323.8</ele>
        <time>2022-05-22 14:56:28</time>
      </trkpt>
      <trkpt lat="42.36223" lon="1.30099">
        <ele>1323.8</ele>
        <time>2022-05-22 14:56:29</time>
      </trkpt>
      <trkpt lat="42.36223" lon="1.30096">
        <ele>1324</ele>
        <time>2022-05-22 14:56:30</time>
      </trkpt>
      <trkpt lat="42.36222" lon="1.30094">
        <ele>1324</ele>
        <time>2022-05-22 14:56:31</time>
      </trkpt>
      <trkpt lat="42.36222" lon="1.30091">
        <ele>1324</ele>
        <time>2022-05-22 14:56:32</time>
      </trkpt>
      <trkpt lat="42.36222" lon="1.30088">
        <ele>1324.2</ele>
        <time>2022-05-22 14:56:33</time>
      </trkpt>
      <trkpt lat="42.36221" lon="1.30085">
        <ele>1324.2</ele>
        <time>2022-05-22 14:56:34</time>
      </trkpt>
      <trkpt lat="42.36221" lon="1.30082">
        <ele>1324.2</ele>
        <time>2022-05-22 14:56:35</time>
      </trkpt>
      <trkpt lat="42.36221" lon="1.30079">
        <ele>1324.4</ele>
        <time>2022-05-22 14:56:36</time>
      </trkpt>
      <trkpt lat="42.36221" lon="1.30076">
        <ele>1324.4</ele>
        <time>2022-05-22 14:56:37</time>
      </trkpt>
      <trkpt lat="42.36221" lon="1.30073">
        <ele>1324.6</ele>
        <time>2022-05-22 14:56:38</time>
      </trkpt>
      <trkpt lat="42.36221" lon="1.3007">
        <ele>1324.8</ele>
        <time>2022-05-22 14:56:39</time>
      </trkpt>
      <trkpt lat="42.36221" lon="1.30067">
        <ele>1325.2</ele>
        <time>2022-05-22 14:56:40</time>
      </trkpt>
      <trkpt lat="42.36221" lon="1.30065">
        <ele>1325.4</ele>
        <time>2022-05-22 14:56:41</time>
      </trkpt>
      <trkpt lat="42.36221" lon="1.30062">
        <ele>1325.4</ele>
        <time>2022-05-22 14:56:42</time>
      </trkpt>
      <trkpt lat="42.36222" lon="1.30059">
        <ele>1325.6</ele>
        <time>2022-05-22 14:56:43</time>
      </trkpt>
      <trkpt lat="42.36222" lon="1.30057">
        <ele>1325.8</ele>
        <time>2022-05-22 14:56:44</time>
      </trkpt>
      <trkpt lat="42.36222" lon="1.30054">
        <ele>1325.8</ele>
        <time>2022-05-22 14:56:45</time>
      </trkpt>
      <trkpt lat="42.36222" lon="1.30052">
        <ele>1326</ele>
        <time>2022-05-22 14:56:46</time>
      </trkpt>
      <trkpt lat="42.36223" lon="1.30049">
        <ele>1326.2</ele>
        <time>2022-05-22 14:56:47</time>
      </trkpt>
      <trkpt lat="42.36223" lon="1.30047">
        <ele>1326.2</ele>
        <time>2022-05-22 14:56:48</time>
      </trkpt>
      <trkpt lat="42.36223" lon="1.30044">
        <ele>1326.4</ele>
        <time>2022-05-22 14:56:49</time>
      </trkpt>
      <trkpt lat="42.36224" lon="1.30042">
        <ele>1326.6</ele>
        <time>2022-05-22 14:56:50</time>
      </trkpt>
      <trkpt lat="42.36224" lon="1.30039">
        <ele>1326.8</ele>
        <time>2022-05-22 14:56:51</time>
      </trkpt>
      <trkpt lat="42.36225" lon="1.30037">
        <ele>1327</ele>
        <time>2022-05-22 14:56:52</time>
      </trkpt>
      <trkpt lat="42.36225" lon="1.30035">
        <ele>1327.2</ele>
        <time>2022-05-22 14:56:53</time>
      </trkpt>
      <trkpt lat="42.36225" lon="1.30032">
        <ele>1327.4</ele>
        <time>2022-05-22 14:56:54</time>
      </trkpt>
      <trkpt lat="42.36226" lon="1.3003">
        <ele>1327.4</ele>
        <time>2022-05-22 14:56:55</time>
      </trkpt>
      <trkpt lat="42.36226" lon="1.30027">
        <ele>1327.6</ele>
        <time>2022-05-22 14:56:56</time>
      </trkpt>
      <trkpt lat="42.36227" lon="1.30024">
        <ele>1327.6</ele>
        <time>2022-05-22 14:56:57</time>
      </trkpt>
      <trkpt lat="42.36228" lon="1.30022">
        <ele>1327.8</ele>
        <time>2022-05-22 14:56:58</time>
      </trkpt>
      <trkpt lat="42.36228" lon="1.30019">
        <ele>1327.8</ele>
        <time>2022-05-22 14:56:59</time>
      </trkpt>
      <trkpt lat="42.36229" lon="1.30017">
        <ele>1328</ele>
        <time>2022-05-22 14:57:00</time>
      </trkpt>
      <trkpt lat="42.3623" lon="1.30014">
        <ele>1328</ele>
        <time>2022-05-22 14:57:01</time>
      </trkpt>
      <trkpt lat="42.36231" lon="1.30011">
        <ele>1328</ele>
        <time>2022-05-22 14:57:02</time>
      </trkpt>
      <trkpt lat="42.36232" lon="1.30008">
        <ele>1328</ele>
        <time>2022-05-22 14:57:03</time>
      </trkpt>
      <trkpt lat="42.36233" lon="1.30005">
        <ele>1328</ele>
        <time>2022-05-22 14:57:04</time>
      </trkpt>
      <trkpt lat="42.36234" lon="1.30002">
        <ele>1328</ele>
        <time>2022-05-22 14:57:05</time>
      </trkpt>
      <trkpt lat="42.36235" lon="1.29999">
        <ele>1327.8</ele>
        <time>2022-05-22 14:57:06</time>
      </trkpt>
      <trkpt lat="42.36236" lon="1.29997">
        <ele>1327.6</ele>
        <time>2022-05-22 14:57:07</time>
      </trkpt>
      <trkpt lat="42.36237" lon="1.29994">
        <ele>1327.6</ele>
        <time>2022-05-22 14:57:08</time>
      </trkpt>
      <trkpt lat="42.36238" lon="1.29992">
        <ele>1327.8</ele>
        <time>2022-05-22 14:57:09</time>
      </trkpt>
      <trkpt lat="42.3624" lon="1.29989">
        <ele>1327.8</ele>
        <time>2022-05-22 14:57:10</time>
      </trkpt>
      <trkpt lat="42.36241" lon="1.29987">
        <ele>1327.6</ele>
        <time>2022-05-22 14:57:11</time>
      </trkpt>
      <trkpt lat="42.36242" lon="1.29985">
        <ele>1327.6</ele>
        <time>2022-05-22 14:57:12</time>
      </trkpt>
      <trkpt lat="42.36243" lon="1.29982">
        <ele>1327.6</ele>
        <time>2022-05-22 14:57:13</time>
      </trkpt>
      <trkpt lat="42.36245" lon="1.2998">
        <ele>1327.6</ele>
        <time>2022-05-22 14:57:14</time>
      </trkpt>
      <trkpt lat="42.36246" lon="1.29977">
        <ele>1327.6</ele>
        <time>2022-05-22 14:57:15</time>
      </trkpt>
      <trkpt lat="42.36247" lon="1.29975">
        <ele>1327.6</ele>
        <time>2022-05-22 14:57:16</time>
      </trkpt>
      <trkpt lat="42.36249" lon="1.29973">
        <ele>1327.6</ele>
        <time>2022-05-22 14:57:17</time>
      </trkpt>
      <trkpt lat="42.3625" lon="1.29971">
        <ele>1327.6</ele>
        <time>2022-05-22 14:57:18</time>
      </trkpt>
      <trkpt lat="42.36252" lon="1.29969">
        <ele>1327.8</ele>
        <time>2022-05-22 14:57:19</time>
      </trkpt>
      <trkpt lat="42.36254" lon="1.29967">
        <ele>1328</ele>
        <time>2022-05-22 14:57:20</time>
      </trkpt>
      <trkpt lat="42.36256" lon="1.29965">
        <ele>1328</ele>
        <time>2022-05-22 14:57:21</time>
      </trkpt>
      <trkpt lat="42.36257" lon="1.29962">
        <ele>1328</ele>
        <time>2022-05-22 14:57:22</time>
      </trkpt>
      <trkpt lat="42.36259" lon="1.2996">
        <ele>1328</ele>
        <time>2022-05-22 14:57:23</time>
      </trkpt>
      <trkpt lat="42.36261" lon="1.29958">
        <ele>1328</ele>
        <time>2022-05-22 14:57:24</time>
      </trkpt>
      <trkpt lat="42.36262" lon="1.29956">
        <ele>1328</ele>
        <time>2022-05-22 14:57:25</time>
      </trkpt>
      <trkpt lat="42.36264" lon="1.29954">
        <ele>1328</ele>
        <time>2022-05-22 14:57:26</time>
      </trkpt>
      <trkpt lat="42.36266" lon="1.29952">
        <ele>1327.8</ele>
        <time>2022-05-22 14:57:27</time>
      </trkpt>
      <trkpt lat="42.36268" lon="1.2995">
        <ele>1327.8</ele>
        <time>2022-05-22 14:57:28</time>
      </trkpt>
      <trkpt lat="42.3627" lon="1.29948">
        <ele>1327.6</ele>
        <time>2022-05-22 14:57:29</time>
      </trkpt>
      <trkpt lat="42.36272" lon="1.29946">
        <ele>1327.6</ele>
        <time>2022-05-22 14:57:30</time>
      </trkpt>
      <trkpt lat="42.36274" lon="1.29944">
        <ele>1327.4</ele>
        <time>2022-05-22 14:57:31</time>
      </trkpt>
      <trkpt lat="42.36276" lon="1.29942">
        <ele>1327.4</ele>
        <time>2022-05-22 14:57:32</time>
      </trkpt>
      <trkpt lat="42.36278" lon="1.29941">
        <ele>1327.4</ele>
        <time>2022-05-22 14:57:33</time>
      </trkpt>
      <trkpt lat="42.3628" lon="1.29939">
        <ele>1327.6</ele>
        <time>2022-05-22 14:57:34</time>
      </trkpt>
      <trkpt lat="42.36282" lon="1.29937">
        <ele>1327.6</ele>
        <time>2022-05-22 14:57:35</time>
      </trkpt>
      <trkpt lat="42.36284" lon="1.29936">
        <ele>1327.8</ele>
        <time>2022-05-22 14:57:36</time>
      </trkpt>
      <trkpt lat="42.36286" lon="1.29934">
        <ele>1328</ele>
        <time>2022-05-22 14:57:37</time>
      </trkpt>
      <trkpt lat="42.36288" lon="1.29932">
        <ele>1328</ele>
        <time>2022-05-22 14:57:38</time>
      </trkpt>
      <trkpt lat="42.3629" lon="1.29931">
        <ele>1328</ele>
        <time>2022-05-22 14:57:39</time>
      </trkpt>
      <trkpt lat="42.36292" lon="1.29929">
        <ele>1328.2</ele>
        <time>2022-05-22 14:57:40</time>
      </trkpt>
      <trkpt lat="42.36293" lon="1.29927">
        <ele>1328.2</ele>
        <time>2022-05-22 14:57:41</time>
      </trkpt>
      <trkpt lat="42.36296" lon="1.29925">
        <ele>1328.2</ele>
        <time>2022-05-22 14:57:42</time>
      </trkpt>
      <trkpt lat="42.36298" lon="1.29924">
        <ele>1328.4</ele>
        <time>2022-05-22 14:57:43</time>
      </trkpt>
      <trkpt lat="42.363" lon="1.29922">
        <ele>1328.4</ele>
        <time>2022-05-22 14:57:44</time>
      </trkpt>
      <trkpt lat="42.36302" lon="1.2992">
        <ele>1328.4</ele>
        <time>2022-05-22 14:57:45</time>
      </trkpt>
      <trkpt lat="42.36304" lon="1.29918">
        <ele>1328.6</ele>
        <time>2022-05-22 14:57:46</time>
      </trkpt>
      <trkpt lat="42.36306" lon="1.29917">
        <ele>1328.6</ele>
        <time>2022-05-22 14:57:47</time>
      </trkpt>
      <trkpt lat="42.36308" lon="1.29915">
        <ele>1328.8</ele>
        <time>2022-05-22 14:57:48</time>
      </trkpt>
      <trkpt lat="42.36311" lon="1.29913">
        <ele>1328.8</ele>
        <time>2022-05-22 14:57:49</time>
      </trkpt>
      <trkpt lat="42.36313" lon="1.29911">
        <ele>1329</ele>
        <time>2022-05-22 14:57:50</time>
      </trkpt>
      <trkpt lat="42.36314" lon="1.29909">
        <ele>1329</ele>
        <time>2022-05-22 14:57:51</time>
      </trkpt>
      <trkpt lat="42.36315" lon="1.29909">
        <ele>1329</ele>
        <time>2022-05-22 14:57:52</time>
      </trkpt>
      <trkpt lat="42.36317" lon="1.29907">
        <ele>1329</ele>
        <time>2022-05-22 14:57:53</time>
      </trkpt>
      <trkpt lat="42.36321" lon="1.29904">
        <ele>1329</ele>
        <time>2022-05-22 14:57:54</time>
      </trkpt>
      <trkpt lat="42.36324" lon="1.29903">
        <ele>1329</ele>
        <time>2022-05-22 14:57:55</time>
      </trkpt>
      <trkpt lat="42.36326" lon="1.29901">
        <ele>1329</ele>
        <time>2022-05-22 14:57:56</time>
      </trkpt>
      <trkpt lat="42.36328" lon="1.29899">
        <ele>1329.2</ele>
        <time>2022-05-22 14:57:57</time>
      </trkpt>
      <trkpt lat="42.3633" lon="1.29897">
        <ele>1329.2</ele>
        <time>2022-05-22 14:57:58</time>
      </trkpt>
      <trkpt lat="42.36332" lon="1.29895">
        <ele>1329.2</ele>
        <time>2022-05-22 14:57:59</time>
      </trkpt>
      <trkpt lat="42.36334" lon="1.29894">
        <ele>1329.4</ele>
        <time>2022-05-22 14:58:00</time>
      </trkpt>
      <trkpt lat="42.36337" lon="1.29892">
        <ele>1329.4</ele>
        <time>2022-05-22 14:58:01</time>
      </trkpt>
      <trkpt lat="42.36339" lon="1.2989">
        <ele>1329.6</ele>
        <time>2022-05-22 14:58:02</time>
      </trkpt>
      <trkpt lat="42.3634" lon="1.29888">
        <ele>1330</ele>
        <time>2022-05-22 14:58:03</time>
      </trkpt>
      <trkpt lat="42.36342" lon="1.29886">
        <ele>1330</ele>
        <time>2022-05-22 14:58:04</time>
      </trkpt>
      <trkpt lat="42.36344" lon="1.29884">
        <ele>1330.2</ele>
        <time>2022-05-22 14:58:05</time>
      </trkpt>
      <trkpt lat="42.36346" lon="1.29882">
        <ele>1330.2</ele>
        <time>2022-05-22 14:58:06</time>
      </trkpt>
      <trkpt lat="42.36348" lon="1.2988">
        <ele>1330.2</ele>
        <time>2022-05-22 14:58:07</time>
      </trkpt>
      <trkpt lat="42.3635" lon="1.29878">
        <ele>1330.2</ele>
        <time>2022-05-22 14:58:08</time>
      </trkpt>
      <trkpt lat="42.36352" lon="1.29876">
        <ele>1330.4</ele>
        <time>2022-05-22 14:58:09</time>
      </trkpt>
      <trkpt lat="42.36354" lon="1.29873">
        <ele>1330.4</ele>
        <time>2022-05-22 14:58:10</time>
      </trkpt>
      <trkpt lat="42.36356" lon="1.29871">
        <ele>1330.4</ele>
        <time>2022-05-22 14:58:11</time>
      </trkpt>
      <trkpt lat="42.36358" lon="1.29869">
        <ele>1330.6</ele>
        <time>2022-05-22 14:58:12</time>
      </trkpt>
      <trkpt lat="42.3636" lon="1.29867">
        <ele>1330.6</ele>
        <time>2022-05-22 14:58:13</time>
      </trkpt>
      <trkpt lat="42.36362" lon="1.29865">
        <ele>1330.8</ele>
        <time>2022-05-22 14:58:14</time>
      </trkpt>
      <trkpt lat="42.36364" lon="1.29863">
        <ele>1330.8</ele>
        <time>2022-05-22 14:58:15</time>
      </trkpt>
      <trkpt lat="42.36366" lon="1.2986">
        <ele>1331</ele>
        <time>2022-05-22 14:58:16</time>
      </trkpt>
      <trkpt lat="42.36367" lon="1.29857">
        <ele>1331.2</ele>
        <time>2022-05-22 14:58:17</time>
      </trkpt>
      <trkpt lat="42.36369" lon="1.29855">
        <ele>1331.4</ele>
        <time>2022-05-22 14:58:18</time>
      </trkpt>
      <trkpt lat="42.36371" lon="1.29853">
        <ele>1331.4</ele>
        <time>2022-05-22 14:58:19</time>
      </trkpt>
      <trkpt lat="42.36372" lon="1.29851">
        <ele>1331.6</ele>
        <time>2022-05-22 14:58:20</time>
      </trkpt>
      <trkpt lat="42.36374" lon="1.29849">
        <ele>1331.8</ele>
        <time>2022-05-22 14:58:21</time>
      </trkpt>
      <trkpt lat="42.36376" lon="1.29846">
        <ele>1332.2</ele>
        <time>2022-05-22 14:58:22</time>
      </trkpt>
      <trkpt lat="42.36378" lon="1.29843">
        <ele>1332.4</ele>
        <time>2022-05-22 14:58:23</time>
      </trkpt>
      <trkpt lat="42.36379" lon="1.29841">
        <ele>1332.6</ele>
        <time>2022-05-22 14:58:24</time>
      </trkpt>
      <trkpt lat="42.3638" lon="1.29838">
        <ele>1332.8</ele>
        <time>2022-05-22 14:58:25</time>
      </trkpt>
      <trkpt lat="42.36382" lon="1.29836">
        <ele>1332.8</ele>
        <time>2022-05-22 14:58:26</time>
      </trkpt>
      <trkpt lat="42.36383" lon="1.29833">
        <ele>1333</ele>
        <time>2022-05-22 14:58:27</time>
      </trkpt>
      <trkpt lat="42.36384" lon="1.29829">
        <ele>1333.2</ele>
        <time>2022-05-22 14:58:28</time>
      </trkpt>
      <trkpt lat="42.36386" lon="1.29826">
        <ele>1333.4</ele>
        <time>2022-05-22 14:58:29</time>
      </trkpt>
      <trkpt lat="42.36387" lon="1.29823">
        <ele>1333.6</ele>
        <time>2022-05-22 14:58:30</time>
      </trkpt>
      <trkpt lat="42.36389" lon="1.29821">
        <ele>1333.8</ele>
        <time>2022-05-22 14:58:31</time>
      </trkpt>
      <trkpt lat="42.3639" lon="1.29818">
        <ele>1333.8</ele>
        <time>2022-05-22 14:58:32</time>
      </trkpt>
      <trkpt lat="42.3639" lon="1.29815">
        <ele>1334</ele>
        <time>2022-05-22 14:58:33</time>
      </trkpt>
      <trkpt lat="42.36391" lon="1.29812">
        <ele>1334.2</ele>
        <time>2022-05-22 14:58:34</time>
      </trkpt>
      <trkpt lat="42.36392" lon="1.29809">
        <ele>1334.4</ele>
        <time>2022-05-22 14:58:35</time>
      </trkpt>
      <trkpt lat="42.36393" lon="1.29807">
        <ele>1334.6</ele>
        <time>2022-05-22 14:58:36</time>
      </trkpt>
      <trkpt lat="42.36394" lon="1.29804">
        <ele>1334.8</ele>
        <time>2022-05-22 14:58:37</time>
      </trkpt>
      <trkpt lat="42.36395" lon="1.29801">
        <ele>1335</ele>
        <time>2022-05-22 14:58:38</time>
      </trkpt>
      <trkpt lat="42.36396" lon="1.29799">
        <ele>1335.2</ele>
        <time>2022-05-22 14:58:39</time>
      </trkpt>
      <trkpt lat="42.36397" lon="1.29796">
        <ele>1335.4</ele>
        <time>2022-05-22 14:58:40</time>
      </trkpt>
      <trkpt lat="42.36398" lon="1.29792">
        <ele>1335.6</ele>
        <time>2022-05-22 14:58:41</time>
      </trkpt>
      <trkpt lat="42.36398" lon="1.2979">
        <ele>1335.8</ele>
        <time>2022-05-22 14:58:42</time>
      </trkpt>
      <trkpt lat="42.36399" lon="1.29787">
        <ele>1336</ele>
        <time>2022-05-22 14:58:43</time>
      </trkpt>
      <trkpt lat="42.364" lon="1.29784">
        <ele>1336.2</ele>
        <time>2022-05-22 14:58:44</time>
      </trkpt>
      <trkpt lat="42.36401" lon="1.29781">
        <ele>1336.4</ele>
        <time>2022-05-22 14:58:45</time>
      </trkpt>
      <trkpt lat="42.36402" lon="1.29779">
        <ele>1336.6</ele>
        <time>2022-05-22 14:58:46</time>
      </trkpt>
      <trkpt lat="42.36403" lon="1.29776">
        <ele>1336.8</ele>
        <time>2022-05-22 14:58:47</time>
      </trkpt>
      <trkpt lat="42.36404" lon="1.29773">
        <ele>1337</ele>
        <time>2022-05-22 14:58:48</time>
      </trkpt>
      <trkpt lat="42.36406" lon="1.2977">
        <ele>1337.2</ele>
        <time>2022-05-22 14:58:49</time>
      </trkpt>
      <trkpt lat="42.36406" lon="1.29767">
        <ele>1337.4</ele>
        <time>2022-05-22 14:58:50</time>
      </trkpt>
      <trkpt lat="42.36408" lon="1.29765">
        <ele>1337.4</ele>
        <time>2022-05-22 14:58:51</time>
      </trkpt>
      <trkpt lat="42.36409" lon="1.29762">
        <ele>1337.6</ele>
        <time>2022-05-22 14:58:52</time>
      </trkpt>
      <trkpt lat="42.3641" lon="1.29759">
        <ele>1337.8</ele>
        <time>2022-05-22 14:58:53</time>
      </trkpt>
      <trkpt lat="42.3641" lon="1.29756">
        <ele>1338</ele>
        <time>2022-05-22 14:58:54</time>
      </trkpt>
      <trkpt lat="42.36411" lon="1.29753">
        <ele>1338.2</ele>
        <time>2022-05-22 14:58:55</time>
      </trkpt>
      <trkpt lat="42.36412" lon="1.2975">
        <ele>1338.2</ele>
        <time>2022-05-22 14:58:56</time>
      </trkpt>
      <trkpt lat="42.36413" lon="1.29747">
        <ele>1338.4</ele>
        <time>2022-05-22 14:58:57</time>
      </trkpt>
      <trkpt lat="42.36414" lon="1.29744">
        <ele>1338.6</ele>
        <time>2022-05-22 14:58:58</time>
      </trkpt>
      <trkpt lat="42.36415" lon="1.29741">
        <ele>1338.8</ele>
        <time>2022-05-22 14:58:59</time>
      </trkpt>
      <trkpt lat="42.36416" lon="1.29738">
        <ele>1339</ele>
        <time>2022-05-22 14:59:00</time>
      </trkpt>
      <trkpt lat="42.36416" lon="1.29735">
        <ele>1339</ele>
        <time>2022-05-22 14:59:01</time>
      </trkpt>
      <trkpt lat="42.36417" lon="1.29732">
        <ele>1339.2</ele>
        <time>2022-05-22 14:59:02</time>
      </trkpt>
      <trkpt lat="42.36418" lon="1.29729">
        <ele>1339.2</ele>
        <time>2022-05-22 14:59:03</time>
      </trkpt>
      <trkpt lat="42.36418" lon="1.29726">
        <ele>1339.4</ele>
        <time>2022-05-22 14:59:04</time>
      </trkpt>
      <trkpt lat="42.36419" lon="1.29723">
        <ele>1339.4</ele>
        <time>2022-05-22 14:59:05</time>
      </trkpt>
      <trkpt lat="42.3642" lon="1.29719">
        <ele>1339.6</ele>
        <time>2022-05-22 14:59:06</time>
      </trkpt>
      <trkpt lat="42.3642" lon="1.29715">
        <ele>1339.6</ele>
        <time>2022-05-22 14:59:07</time>
      </trkpt>
      <trkpt lat="42.36421" lon="1.29712">
        <ele>1339.6</ele>
        <time>2022-05-22 14:59:08</time>
      </trkpt>
      <trkpt lat="42.36421" lon="1.29708">
        <ele>1339.6</ele>
        <time>2022-05-22 14:59:09</time>
      </trkpt>
      <trkpt lat="42.36421" lon="1.29705">
        <ele>1339.8</ele>
        <time>2022-05-22 14:59:10</time>
      </trkpt>
      <trkpt lat="42.36422" lon="1.29701">
        <ele>1339.8</ele>
        <time>2022-05-22 14:59:11</time>
      </trkpt>
      <trkpt lat="42.36423" lon="1.29697">
        <ele>1339.6</ele>
        <time>2022-05-22 14:59:12</time>
      </trkpt>
      <trkpt lat="42.36424" lon="1.29694">
        <ele>1339.6</ele>
        <time>2022-05-22 14:59:13</time>
      </trkpt>
      <trkpt lat="42.36425" lon="1.29689">
        <ele>1339.4</ele>
        <time>2022-05-22 14:59:14</time>
      </trkpt>
      <trkpt lat="42.36427" lon="1.29685">
        <ele>1339.4</ele>
        <time>2022-05-22 14:59:15</time>
      </trkpt>
      <trkpt lat="42.36429" lon="1.2968">
        <ele>1339.2</ele>
        <time>2022-05-22 14:59:16</time>
      </trkpt>
      <trkpt lat="42.36431" lon="1.29675">
        <ele>1339</ele>
        <time>2022-05-22 14:59:17</time>
      </trkpt>
      <trkpt lat="42.36433" lon="1.29669">
        <ele>1338.8</ele>
        <time>2022-05-22 14:59:18</time>
      </trkpt>
      <trkpt lat="42.36436" lon="1.29663">
        <ele>1338.4</ele>
        <time>2022-05-22 14:59:19</time>
      </trkpt>
      <trkpt lat="42.3644" lon="1.29658">
        <ele>1338.2</ele>
        <time>2022-05-22 14:59:20</time>
      </trkpt>
      <trkpt lat="42.36443" lon="1.29652">
        <ele>1337.8</ele>
        <time>2022-05-22 14:59:21</time>
      </trkpt>
      <trkpt lat="42.36447" lon="1.29645">
        <ele>1337.6</ele>
        <time>2022-05-22 14:59:22</time>
      </trkpt>
      <trkpt lat="42.36452" lon="1.29639">
        <ele>1337</ele>
        <time>2022-05-22 14:59:23</time>
      </trkpt>
      <trkpt lat="42.36457" lon="1.29633">
        <ele>1336.6</ele>
        <time>2022-05-22 14:59:24</time>
      </trkpt>
      <trkpt lat="42.36462" lon="1.29627">
        <ele>1336.2</ele>
        <time>2022-05-22 14:59:25</time>
      </trkpt>
      <trkpt lat="42.36467" lon="1.29621">
        <ele>1335.8</ele>
        <time>2022-05-22 14:59:26</time>
      </trkpt>
      <trkpt lat="42.36474" lon="1.29615">
        <ele>1335.2</ele>
        <time>2022-05-22 14:59:27</time>
      </trkpt>
      <trkpt lat="42.36481" lon="1.2961">
        <ele>1334.8</ele>
        <time>2022-05-22 14:59:28</time>
      </trkpt>
      <trkpt lat="42.36488" lon="1.29605">
        <ele>1334.4</ele>
        <time>2022-05-22 14:59:29</time>
      </trkpt>
      <trkpt lat="42.36495" lon="1.296">
        <ele>1333.8</ele>
        <time>2022-05-22 14:59:30</time>
      </trkpt>
      <trkpt lat="42.36503" lon="1.29594">
        <ele>1333.4</ele>
        <time>2022-05-22 14:59:31</time>
      </trkpt>
      <trkpt lat="42.3651" lon="1.29588">
        <ele>1332.8</ele>
        <time>2022-05-22 14:59:32</time>
      </trkpt>
      <trkpt lat="42.36516" lon="1.29581">
        <ele>1332.2</ele>
        <time>2022-05-22 14:59:33</time>
      </trkpt>
      <trkpt lat="42.36521" lon="1.29573">
        <ele>1331.6</ele>
        <time>2022-05-22 14:59:34</time>
      </trkpt>
      <trkpt lat="42.36523" lon="1.29563">
        <ele>1330.8</ele>
        <time>2022-05-22 14:59:35</time>
      </trkpt>
      <trkpt lat="42.36522" lon="1.29551">
        <ele>1329.8</ele>
        <time>2022-05-22 14:59:36</time>
      </trkpt>
      <trkpt lat="42.36519" lon="1.2954">
        <ele>1329</ele>
        <time>2022-05-22 14:59:37</time>
      </trkpt>
      <trkpt lat="42.36515" lon="1.29529">
        <ele>1328.4</ele>
        <time>2022-05-22 14:59:38</time>
      </trkpt>
      <trkpt lat="42.3651" lon="1.29517">
        <ele>1327.4</ele>
        <time>2022-05-22 14:59:39</time>
      </trkpt>
      <trkpt lat="42.36505" lon="1.29503">
        <ele>1326.6</ele>
        <time>2022-05-22 14:59:40</time>
      </trkpt>
      <trkpt lat="42.365" lon="1.2949">
        <ele>1326</ele>
        <time>2022-05-22 14:59:41</time>
      </trkpt>
      <trkpt lat="42.36497" lon="1.29477">
        <ele>1325.2</ele>
        <time>2022-05-22 14:59:42</time>
      </trkpt>
      <trkpt lat="42.36493" lon="1.29464">
        <ele>1324.4</ele>
        <time>2022-05-22 14:59:43</time>
      </trkpt>
      <trkpt lat="42.36491" lon="1.29447">
        <ele>1323.4</ele>
        <time>2022-05-22 14:59:44</time>
      </trkpt>
      <trkpt lat="42.36492" lon="1.29432">
        <ele>1322.6</ele>
        <time>2022-05-22 14:59:45</time>
      </trkpt>
      <trkpt lat="42.36496" lon="1.29418">
        <ele>1322</ele>
        <time>2022-05-22 14:59:46</time>
      </trkpt>
      <trkpt lat="42.36501" lon="1.29406">
        <ele>1321.4</ele>
        <time>2022-05-22 14:59:47</time>
      </trkpt>
      <trkpt lat="42.36508" lon="1.29394">
        <ele>1320.8</ele>
        <time>2022-05-22 14:59:48</time>
      </trkpt>
      <trkpt lat="42.36516" lon="1.29383">
        <ele>1320.2</ele>
        <time>2022-05-22 14:59:49</time>
      </trkpt>
      <trkpt lat="42.36523" lon="1.29373">
        <ele>1319.4</ele>
        <time>2022-05-22 14:59:50</time>
      </trkpt>
      <trkpt lat="42.36533" lon="1.29362">
        <ele>1318.6</ele>
        <time>2022-05-22 14:59:51</time>
      </trkpt>
      <trkpt lat="42.36543" lon="1.29353">
        <ele>1317.8</ele>
        <time>2022-05-22 14:59:52</time>
      </trkpt>
      <trkpt lat="42.36552" lon="1.29344">
        <ele>1317</ele>
        <time>2022-05-22 14:59:53</time>
      </trkpt>
      <trkpt lat="42.3656" lon="1.29332">
        <ele>1316.6</ele>
        <time>2022-05-22 14:59:54</time>
      </trkpt>
      <trkpt lat="42.36567" lon="1.2932">
        <ele>1316</ele>
        <time>2022-05-22 14:59:55</time>
      </trkpt>
      <trkpt lat="42.36571" lon="1.29305">
        <ele>1315.2</ele>
        <time>2022-05-22 14:59:56</time>
      </trkpt>
      <trkpt lat="42.36574" lon="1.29283">
        <ele>1314</ele>
        <time>2022-05-22 14:59:57</time>
      </trkpt>
      <trkpt lat="42.36575" lon="1.29266">
        <ele>1313</ele>
        <time>2022-05-22 14:59:58</time>
      </trkpt>
      <trkpt lat="42.36573" lon="1.29253">
        <ele>1312.2</ele>
        <time>2022-05-22 14:59:59</time>
      </trkpt>
      <trkpt lat="42.36571" lon="1.29229">
        <ele>1310.6</ele>
        <time>2022-05-22 15:00:00</time>
      </trkpt>
      <trkpt lat="42.3657" lon="1.29215">
        <ele>1309.8</ele>
        <time>2022-05-22 15:00:01</time>
      </trkpt>
      <trkpt lat="42.36573" lon="1.29195">
        <ele>1308.4</ele>
        <time>2022-05-22 15:00:02</time>
      </trkpt>
      <trkpt lat="42.36579" lon="1.29181">
        <ele>1307</ele>
        <time>2022-05-22 15:00:03</time>
      </trkpt>
      <trkpt lat="42.36585" lon="1.29168">
        <ele>1306</ele>
        <time>2022-05-22 15:00:04</time>
      </trkpt>
      <trkpt lat="42.36594" lon="1.29156">
        <ele>1305.2</ele>
        <time>2022-05-22 15:00:05</time>
      </trkpt>
      <trkpt lat="42.36603" lon="1.29145">
        <ele>1305</ele>
        <time>2022-05-22 15:00:06</time>
      </trkpt>
      <trkpt lat="42.36612" lon="1.29134">
        <ele>1304.8</ele>
        <time>2022-05-22 15:00:07</time>
      </trkpt>
      <trkpt lat="42.36619" lon="1.29124">
        <ele>1304.8</ele>
        <time>2022-05-22 15:00:08</time>
      </trkpt>
      <trkpt lat="42.36625" lon="1.29115">
        <ele>1304.8</ele>
        <time>2022-05-22 15:00:09</time>
      </trkpt>
      <trkpt lat="42.3663" lon="1.29102">
        <ele>1304.8</ele>
        <time>2022-05-22 15:00:10</time>
      </trkpt>
      <trkpt lat="42.36634" lon="1.29088">
        <ele>1305</ele>
        <time>2022-05-22 15:00:11</time>
      </trkpt>
      <trkpt lat="42.36636" lon="1.29076">
        <ele>1305.2</ele>
        <time>2022-05-22 15:00:12</time>
      </trkpt>
      <trkpt lat="42.36638" lon="1.29065">
        <ele>1305.2</ele>
        <time>2022-05-22 15:00:13</time>
      </trkpt>
      <trkpt lat="42.3664" lon="1.29051">
        <ele>1305.2</ele>
        <time>2022-05-22 15:00:14</time>
      </trkpt>
      <trkpt lat="42.36641" lon="1.2904">
        <ele>1305.2</ele>
        <time>2022-05-22 15:00:15</time>
      </trkpt>
      <trkpt lat="42.36642" lon="1.29027">
        <ele>1305.2</ele>
        <time>2022-05-22 15:00:16</time>
      </trkpt>
      <trkpt lat="42.36642" lon="1.29012">
        <ele>1305.4</ele>
        <time>2022-05-22 15:00:17</time>
      </trkpt>
      <trkpt lat="42.36642" lon="1.29">
        <ele>1305.6</ele>
        <time>2022-05-22 15:00:18</time>
      </trkpt>
      <trkpt lat="42.36642" lon="1.28988">
        <ele>1305.6</ele>
        <time>2022-05-22 15:00:19</time>
      </trkpt>
      <trkpt lat="42.36641" lon="1.28982">
        <ele>1306</ele>
        <time>2022-05-22 15:00:20</time>
      </trkpt>
      <trkpt lat="42.36641" lon="1.28972">
        <ele>1306.4</ele>
        <time>2022-05-22 15:00:21</time>
      </trkpt>
      <trkpt lat="42.36641" lon="1.28967">
        <ele>1306.6</ele>
        <time>2022-05-22 15:00:22</time>
      </trkpt>
      <trkpt lat="42.36642" lon="1.28957">
        <ele>1307</ele>
        <time>2022-05-22 15:00:23</time>
      </trkpt>
      <trkpt lat="42.36643" lon="1.28953">
        <ele>1307.2</ele>
        <time>2022-05-22 15:00:24</time>
      </trkpt>
      <trkpt lat="42.36644" lon="1.28944">
        <ele>1307.6</ele>
        <time>2022-05-22 15:00:25</time>
      </trkpt>
      <trkpt lat="42.36645" lon="1.28939">
        <ele>1308</ele>
        <time>2022-05-22 15:00:26</time>
      </trkpt>
      <trkpt lat="42.36646" lon="1.28933">
        <ele>1308.2</ele>
        <time>2022-05-22 15:00:27</time>
      </trkpt>
      <trkpt lat="42.36647" lon="1.28927">
        <ele>1308.6</ele>
        <time>2022-05-22 15:00:28</time>
      </trkpt>
      <trkpt lat="42.36649" lon="1.28922">
        <ele>1308.8</ele>
        <time>2022-05-22 15:00:29</time>
      </trkpt>
      <trkpt lat="42.3665" lon="1.28917">
        <ele>1309</ele>
        <time>2022-05-22 15:00:30</time>
      </trkpt>
      <trkpt lat="42.3665" lon="1.28913">
        <ele>1309.2</ele>
        <time>2022-05-22 15:00:31</time>
      </trkpt>
      <trkpt lat="42.36651" lon="1.28908">
        <ele>1309.4</ele>
        <time>2022-05-22 15:00:32</time>
      </trkpt>
      <trkpt lat="42.36652" lon="1.28904">
        <ele>1309.8</ele>
        <time>2022-05-22 15:00:33</time>
      </trkpt>
      <trkpt lat="42.36653" lon="1.289">
        <ele>1310</ele>
        <time>2022-05-22 15:00:34</time>
      </trkpt>
      <trkpt lat="42.36653" lon="1.28896">
        <ele>1310.2</ele>
        <time>2022-05-22 15:00:35</time>
      </trkpt>
      <trkpt lat="42.36654" lon="1.28893">
        <ele>1310.4</ele>
        <time>2022-05-22 15:00:36</time>
      </trkpt>
      <trkpt lat="42.36655" lon="1.28889">
        <ele>1310.4</ele>
        <time>2022-05-22 15:00:37</time>
      </trkpt>
      <trkpt lat="42.36656" lon="1.28885">
        <ele>1310.6</ele>
        <time>2022-05-22 15:00:38</time>
      </trkpt>
      <trkpt lat="42.36657" lon="1.28881">
        <ele>1310.8</ele>
        <time>2022-05-22 15:00:39</time>
      </trkpt>
      <trkpt lat="42.36658" lon="1.28878">
        <ele>1311</ele>
        <time>2022-05-22 15:00:40</time>
      </trkpt>
      <trkpt lat="42.36658" lon="1.28874">
        <ele>1311.2</ele>
        <time>2022-05-22 15:00:41</time>
      </trkpt>
      <trkpt lat="42.36658" lon="1.2887">
        <ele>1311.2</ele>
        <time>2022-05-22 15:00:42</time>
      </trkpt>
      <trkpt lat="42.36658" lon="1.28865">
        <ele>1311.4</ele>
        <time>2022-05-22 15:00:43</time>
      </trkpt>
      <trkpt lat="42.36657" lon="1.28861">
        <ele>1311.6</ele>
        <time>2022-05-22 15:00:44</time>
      </trkpt>
      <trkpt lat="42.36655" lon="1.28857">
        <ele>1311.6</ele>
        <time>2022-05-22 15:00:45</time>
      </trkpt>
      <trkpt lat="42.36654" lon="1.28853">
        <ele>1311.6</ele>
        <time>2022-05-22 15:00:46</time>
      </trkpt>
      <trkpt lat="42.36653" lon="1.2885">
        <ele>1311.8</ele>
        <time>2022-05-22 15:00:47</time>
      </trkpt>
      <trkpt lat="42.36651" lon="1.28848">
        <ele>1311.8</ele>
        <time>2022-05-22 15:00:48</time>
      </trkpt>
      <trkpt lat="42.36648" lon="1.28845">
        <ele>1311.8</ele>
        <time>2022-05-22 15:00:49</time>
      </trkpt>
      <trkpt lat="42.36646" lon="1.28843">
        <ele>1312</ele>
        <time>2022-05-22 15:00:50</time>
      </trkpt>
      <trkpt lat="42.36643" lon="1.28842">
        <ele>1312</ele>
        <time>2022-05-22 15:00:51</time>
      </trkpt>
      <trkpt lat="42.36639" lon="1.28841">
        <ele>1312</ele>
        <time>2022-05-22 15:00:52</time>
      </trkpt>
      <trkpt lat="42.36636" lon="1.28842">
        <ele>1312</ele>
        <time>2022-05-22 15:00:53</time>
      </trkpt>
      <trkpt lat="42.36633" lon="1.28843">
        <ele>1312.2</ele>
        <time>2022-05-22 15:00:54</time>
      </trkpt>
      <trkpt lat="42.36631" lon="1.28845">
        <ele>1312.2</ele>
        <time>2022-05-22 15:00:55</time>
      </trkpt>
      <trkpt lat="42.36628" lon="1.28847">
        <ele>1312.4</ele>
        <time>2022-05-22 15:00:56</time>
      </trkpt>
      <trkpt lat="42.36626" lon="1.28849">
        <ele>1312.6</ele>
        <time>2022-05-22 15:00:57</time>
      </trkpt>
      <trkpt lat="42.36624" lon="1.28852">
        <ele>1312.8</ele>
        <time>2022-05-22 15:00:58</time>
      </trkpt>
      <trkpt lat="42.36623" lon="1.28855">
        <ele>1313</ele>
        <time>2022-05-22 15:00:59</time>
      </trkpt>
      <trkpt lat="42.36621" lon="1.28858">
        <ele>1313.2</ele>
        <time>2022-05-22 15:01:00</time>
      </trkpt>
      <trkpt lat="42.3662" lon="1.28861">
        <ele>1313.4</ele>
        <time>2022-05-22 15:01:01</time>
      </trkpt>
      <trkpt lat="42.36619" lon="1.28864">
        <ele>1313.6</ele>
        <time>2022-05-22 15:01:02</time>
      </trkpt>
      <trkpt lat="42.36618" lon="1.28867">
        <ele>1313.8</ele>
        <time>2022-05-22 15:01:03</time>
      </trkpt>
      <trkpt lat="42.36617" lon="1.2887">
        <ele>1314</ele>
        <time>2022-05-22 15:01:04</time>
      </trkpt>
      <trkpt lat="42.36616" lon="1.28873">
        <ele>1314.2</ele>
        <time>2022-05-22 15:01:05</time>
      </trkpt>
      <trkpt lat="42.36615" lon="1.28875">
        <ele>1314.4</ele>
        <time>2022-05-22 15:01:06</time>
      </trkpt>
      <trkpt lat="42.36614" lon="1.28878">
        <ele>1314.6</ele>
        <time>2022-05-22 15:01:07</time>
      </trkpt>
      <trkpt lat="42.36614" lon="1.28881">
        <ele>1314.8</ele>
        <time>2022-05-22 15:01:08</time>
      </trkpt>
      <trkpt lat="42.36613" lon="1.28884">
        <ele>1315</ele>
        <time>2022-05-22 15:01:09</time>
      </trkpt>
      <trkpt lat="42.36612" lon="1.28887">
        <ele>1315.2</ele>
        <time>2022-05-22 15:01:10</time>
      </trkpt>
      <trkpt lat="42.36612" lon="1.2889">
        <ele>1315.4</ele>
        <time>2022-05-22 15:01:11</time>
      </trkpt>
      <trkpt lat="42.36611" lon="1.28893">
        <ele>1315.6</ele>
        <time>2022-05-22 15:01:12</time>
      </trkpt>
      <trkpt lat="42.36611" lon="1.28896">
        <ele>1315.8</ele>
        <time>2022-05-22 15:01:13</time>
      </trkpt>
      <trkpt lat="42.3661" lon="1.28899">
        <ele>1315.8</ele>
        <time>2022-05-22 15:01:14</time>
      </trkpt>
      <trkpt lat="42.36609" lon="1.28901">
        <ele>1316</ele>
        <time>2022-05-22 15:01:15</time>
      </trkpt>
      <trkpt lat="42.36609" lon="1.28904">
        <ele>1316.2</ele>
        <time>2022-05-22 15:01:16</time>
      </trkpt>
      <trkpt lat="42.36608" lon="1.28907">
        <ele>1316.4</ele>
        <time>2022-05-22 15:01:17</time>
      </trkpt>
      <trkpt lat="42.36607" lon="1.2891">
        <ele>1316.6</ele>
        <time>2022-05-22 15:01:18</time>
      </trkpt>
      <trkpt lat="42.36607" lon="1.28913">
        <ele>1316.8</ele>
        <time>2022-05-22 15:01:19</time>
      </trkpt>
      <trkpt lat="42.36606" lon="1.28915">
        <ele>1317</ele>
        <time>2022-05-22 15:01:20</time>
      </trkpt>
      <trkpt lat="42.36605" lon="1.28918">
        <ele>1317.2</ele>
        <time>2022-05-22 15:01:21</time>
      </trkpt>
      <trkpt lat="42.36605" lon="1.28921">
        <ele>1317.4</ele>
        <time>2022-05-22 15:01:22</time>
      </trkpt>
      <trkpt lat="42.36604" lon="1.28924">
        <ele>1317.4</ele>
        <time>2022-05-22 15:01:23</time>
      </trkpt>
      <trkpt lat="42.36604" lon="1.28926">
        <ele>1317.6</ele>
        <time>2022-05-22 15:01:24</time>
      </trkpt>
      <trkpt lat="42.36603" lon="1.28929">
        <ele>1317.8</ele>
        <time>2022-05-22 15:01:25</time>
      </trkpt>
      <trkpt lat="42.36601" lon="1.28931">
        <ele>1318</ele>
        <time>2022-05-22 15:01:26</time>
      </trkpt>
      <trkpt lat="42.366" lon="1.28933">
        <ele>1318.2</ele>
        <time>2022-05-22 15:01:27</time>
      </trkpt>
      <trkpt lat="42.36599" lon="1.28935">
        <ele>1318.4</ele>
        <time>2022-05-22 15:01:28</time>
      </trkpt>
      <trkpt lat="42.36598" lon="1.28937">
        <ele>1318.6</ele>
        <time>2022-05-22 15:01:29</time>
      </trkpt>
      <trkpt lat="42.36597" lon="1.28939">
        <ele>1318.8</ele>
        <time>2022-05-22 15:01:30</time>
      </trkpt>
      <trkpt lat="42.36597" lon="1.28942">
        <ele>1319</ele>
        <time>2022-05-22 15:01:31</time>
      </trkpt>
      <trkpt lat="42.36596" lon="1.28944">
        <ele>1319.2</ele>
        <time>2022-05-22 15:01:32</time>
      </trkpt>
      <trkpt lat="42.36595" lon="1.28946">
        <ele>1319.4</ele>
        <time>2022-05-22 15:01:33</time>
      </trkpt>
      <trkpt lat="42.36594" lon="1.28948">
        <ele>1319.6</ele>
        <time>2022-05-22 15:01:34</time>
      </trkpt>
      <trkpt lat="42.36593" lon="1.28951">
        <ele>1319.6</ele>
        <time>2022-05-22 15:01:35</time>
      </trkpt>
      <trkpt lat="42.36591" lon="1.28953">
        <ele>1319.8</ele>
        <time>2022-05-22 15:01:36</time>
      </trkpt>
      <trkpt lat="42.3659" lon="1.28955">
        <ele>1320</ele>
        <time>2022-05-22 15:01:37</time>
      </trkpt>
      <trkpt lat="42.36589" lon="1.28957">
        <ele>1320.2</ele>
        <time>2022-05-22 15:01:38</time>
      </trkpt>
      <trkpt lat="42.36587" lon="1.28959">
        <ele>1320.4</ele>
        <time>2022-05-22 15:01:39</time>
      </trkpt>
      <trkpt lat="42.36586" lon="1.28962">
        <ele>1320.6</ele>
        <time>2022-05-22 15:01:40</time>
      </trkpt>
      <trkpt lat="42.36585" lon="1.28964">
        <ele>1320.8</ele>
        <time>2022-05-22 15:01:41</time>
      </trkpt>
      <trkpt lat="42.36584" lon="1.28966">
        <ele>1320.8</ele>
        <time>2022-05-22 15:01:42</time>
      </trkpt>
      <trkpt lat="42.36582" lon="1.28968">
        <ele>1321</ele>
        <time>2022-05-22 15:01:43</time>
      </trkpt>
      <trkpt lat="42.36581" lon="1.2897">
        <ele>1321.2</ele>
        <time>2022-05-22 15:01:44</time>
      </trkpt>
      <trkpt lat="42.3658" lon="1.28972">
        <ele>1321.4</ele>
        <time>2022-05-22 15:01:45</time>
      </trkpt>
      <trkpt lat="42.36579" lon="1.28975">
        <ele>1321.4</ele>
        <time>2022-05-22 15:01:46</time>
      </trkpt>
      <trkpt lat="42.36577" lon="1.28977">
        <ele>1321.6</ele>
        <time>2022-05-22 15:01:47</time>
      </trkpt>
      <trkpt lat="42.36576" lon="1.28979">
        <ele>1321.8</ele>
        <time>2022-05-22 15:01:48</time>
      </trkpt>
      <trkpt lat="42.36575" lon="1.28981">
        <ele>1322</ele>
        <time>2022-05-22 15:01:49</time>
      </trkpt>
      <trkpt lat="42.36573" lon="1.28983">
        <ele>1322.2</ele>
        <time>2022-05-22 15:01:50</time>
      </trkpt>
      <trkpt lat="42.36572" lon="1.28985">
        <ele>1322.4</ele>
        <time>2022-05-22 15:01:51</time>
      </trkpt>
      <trkpt lat="42.36571" lon="1.28987">
        <ele>1322.6</ele>
        <time>2022-05-22 15:01:52</time>
      </trkpt>
      <trkpt lat="42.3657" lon="1.28989">
        <ele>1322.6</ele>
        <time>2022-05-22 15:01:53</time>
      </trkpt>
      <trkpt lat="42.36569" lon="1.28992">
        <ele>1322.6</ele>
        <time>2022-05-22 15:01:54</time>
      </trkpt>
      <trkpt lat="42.36568" lon="1.28994">
        <ele>1322.8</ele>
        <time>2022-05-22 15:01:55</time>
      </trkpt>
      <trkpt lat="42.36567" lon="1.28996">
        <ele>1322.8</ele>
        <time>2022-05-22 15:01:56</time>
      </trkpt>
      <trkpt lat="42.36566" lon="1.28998">
        <ele>1323</ele>
        <time>2022-05-22 15:01:57</time>
      </trkpt>
      <trkpt lat="42.36564" lon="1.29">
        <ele>1323.2</ele>
        <time>2022-05-22 15:01:58</time>
      </trkpt>
      <trkpt lat="42.36563" lon="1.29002">
        <ele>1323.2</ele>
        <time>2022-05-22 15:01:59</time>
      </trkpt>
      <trkpt lat="42.36562" lon="1.29005">
        <ele>1323.4</ele>
        <time>2022-05-22 15:02:00</time>
      </trkpt>
      <trkpt lat="42.36561" lon="1.29007">
        <ele>1323.4</ele>
        <time>2022-05-22 15:02:01</time>
      </trkpt>
      <trkpt lat="42.3656" lon="1.29009">
        <ele>1323.6</ele>
        <time>2022-05-22 15:02:02</time>
      </trkpt>
      <trkpt lat="42.36559" lon="1.29011">
        <ele>1323.8</ele>
        <time>2022-05-22 15:02:03</time>
      </trkpt>
      <trkpt lat="42.36558" lon="1.29014">
        <ele>1324</ele>
        <time>2022-05-22 15:02:04</time>
      </trkpt>
      <trkpt lat="42.36557" lon="1.29016">
        <ele>1324.2</ele>
        <time>2022-05-22 15:02:05</time>
      </trkpt>
      <trkpt lat="42.36556" lon="1.29018">
        <ele>1324.4</ele>
        <time>2022-05-22 15:02:06</time>
      </trkpt>
      <trkpt lat="42.36555" lon="1.2902">
        <ele>1324.6</ele>
        <time>2022-05-22 15:02:07</time>
      </trkpt>
      <trkpt lat="42.36553" lon="1.29022">
        <ele>1324.8</ele>
        <time>2022-05-22 15:02:08</time>
      </trkpt>
      <trkpt lat="42.36552" lon="1.29024">
        <ele>1325</ele>
        <time>2022-05-22 15:02:09</time>
      </trkpt>
      <trkpt lat="42.36551" lon="1.29025">
        <ele>1325</ele>
        <time>2022-05-22 15:02:10</time>
      </trkpt>
      <trkpt lat="42.3655" lon="1.29027">
        <ele>1325.2</ele>
        <time>2022-05-22 15:02:11</time>
      </trkpt>
      <trkpt lat="42.36549" lon="1.29029">
        <ele>1325.4</ele>
        <time>2022-05-22 15:02:12</time>
      </trkpt>
      <trkpt lat="42.36548" lon="1.2903">
        <ele>1325.6</ele>
        <time>2022-05-22 15:02:13</time>
      </trkpt>
      <trkpt lat="42.36546" lon="1.29032">
        <ele>1325.8</ele>
        <time>2022-05-22 15:02:14</time>
      </trkpt>
      <trkpt lat="42.36545" lon="1.29034">
        <ele>1326</ele>
        <time>2022-05-22 15:02:15</time>
      </trkpt>
      <trkpt lat="42.36543" lon="1.29035">
        <ele>1326.2</ele>
        <time>2022-05-22 15:02:16</time>
      </trkpt>
      <trkpt lat="42.36542" lon="1.29037">
        <ele>1326.4</ele>
        <time>2022-05-22 15:02:17</time>
      </trkpt>
      <trkpt lat="42.36541" lon="1.29039">
        <ele>1326.6</ele>
        <time>2022-05-22 15:02:18</time>
      </trkpt>
      <trkpt lat="42.3654" lon="1.2904">
        <ele>1326.8</ele>
        <time>2022-05-22 15:02:19</time>
      </trkpt>
      <trkpt lat="42.36538" lon="1.29042">
        <ele>1327</ele>
        <time>2022-05-22 15:02:20</time>
      </trkpt>
      <trkpt lat="42.36537" lon="1.29044">
        <ele>1327.2</ele>
        <time>2022-05-22 15:02:21</time>
      </trkpt>
      <trkpt lat="42.36535" lon="1.29045">
        <ele>1327.4</ele>
        <time>2022-05-22 15:02:22</time>
      </trkpt>
      <trkpt lat="42.36534" lon="1.29047">
        <ele>1327.4</ele>
        <time>2022-05-22 15:02:23</time>
      </trkpt>
      <trkpt lat="42.36532" lon="1.29049">
        <ele>1327.6</ele>
        <time>2022-05-22 15:02:24</time>
      </trkpt>
      <trkpt lat="42.3653" lon="1.29051">
        <ele>1327.8</ele>
        <time>2022-05-22 15:02:25</time>
      </trkpt>
      <trkpt lat="42.36528" lon="1.29053">
        <ele>1328</ele>
        <time>2022-05-22 15:02:26</time>
      </trkpt>
      <trkpt lat="42.36527" lon="1.29055">
        <ele>1328.2</ele>
        <time>2022-05-22 15:02:27</time>
      </trkpt>
      <trkpt lat="42.36526" lon="1.29056">
        <ele>1328.4</ele>
        <time>2022-05-22 15:02:28</time>
      </trkpt>
      <trkpt lat="42.36524" lon="1.29058">
        <ele>1328.6</ele>
        <time>2022-05-22 15:02:29</time>
      </trkpt>
      <trkpt lat="42.36522" lon="1.2906">
        <ele>1328.8</ele>
        <time>2022-05-22 15:02:30</time>
      </trkpt>
      <trkpt lat="42.3652" lon="1.29062">
        <ele>1328.8</ele>
        <time>2022-05-22 15:02:31</time>
      </trkpt>
      <trkpt lat="42.36519" lon="1.29063">
        <ele>1329</ele>
        <time>2022-05-22 15:02:32</time>
      </trkpt>
      <trkpt lat="42.36518" lon="1.29064">
        <ele>1329.2</ele>
        <time>2022-05-22 15:02:33</time>
      </trkpt>
      <trkpt lat="42.36516" lon="1.29066">
        <ele>1329.4</ele>
        <time>2022-05-22 15:02:34</time>
      </trkpt>
      <trkpt lat="42.36514" lon="1.29068">
        <ele>1329.6</ele>
        <time>2022-05-22 15:02:35</time>
      </trkpt>
      <trkpt lat="42.36513" lon="1.2907">
        <ele>1329.8</ele>
        <time>2022-05-22 15:02:36</time>
      </trkpt>
      <trkpt lat="42.36511" lon="1.29072">
        <ele>1330</ele>
        <time>2022-05-22 15:02:37</time>
      </trkpt>
      <trkpt lat="42.3651" lon="1.29074">
        <ele>1330</ele>
        <time>2022-05-22 15:02:38</time>
      </trkpt>
      <trkpt lat="42.36508" lon="1.29076">
        <ele>1330.2</ele>
        <time>2022-05-22 15:02:39</time>
      </trkpt>
      <trkpt lat="42.36507" lon="1.29078">
        <ele>1330.4</ele>
        <time>2022-05-22 15:02:40</time>
      </trkpt>
      <trkpt lat="42.36505" lon="1.2908">
        <ele>1330.6</ele>
        <time>2022-05-22 15:02:41</time>
      </trkpt>
      <trkpt lat="42.36503" lon="1.29082">
        <ele>1330.8</ele>
        <time>2022-05-22 15:02:42</time>
      </trkpt>
      <trkpt lat="42.36501" lon="1.29083">
        <ele>1331</ele>
        <time>2022-05-22 15:02:43</time>
      </trkpt>
      <trkpt lat="42.36499" lon="1.29085">
        <ele>1331.2</ele>
        <time>2022-05-22 15:02:44</time>
      </trkpt>
      <trkpt lat="42.36497" lon="1.29087">
        <ele>1331.4</ele>
        <time>2022-05-22 15:02:45</time>
      </trkpt>
      <trkpt lat="42.36495" lon="1.29088">
        <ele>1331.6</ele>
        <time>2022-05-22 15:02:46</time>
      </trkpt>
      <trkpt lat="42.36494" lon="1.2909">
        <ele>1331.6</ele>
        <time>2022-05-22 15:02:47</time>
      </trkpt>
      <trkpt lat="42.36492" lon="1.29091">
        <ele>1331.8</ele>
        <time>2022-05-22 15:02:48</time>
      </trkpt>
      <trkpt lat="42.3649" lon="1.29092">
        <ele>1332</ele>
        <time>2022-05-22 15:02:49</time>
      </trkpt>
      <trkpt lat="42.36489" lon="1.29093">
        <ele>1332.2</ele>
        <time>2022-05-22 15:02:50</time>
      </trkpt>
      <trkpt lat="42.36487" lon="1.29095">
        <ele>1332.4</ele>
        <time>2022-05-22 15:02:51</time>
      </trkpt>
      <trkpt lat="42.36485" lon="1.29096">
        <ele>1332.4</ele>
        <time>2022-05-22 15:02:52</time>
      </trkpt>
      <trkpt lat="42.36484" lon="1.29097">
        <ele>1332.6</ele>
        <time>2022-05-22 15:02:53</time>
      </trkpt>
      <trkpt lat="42.36482" lon="1.29098">
        <ele>1332.8</ele>
        <time>2022-05-22 15:02:54</time>
      </trkpt>
      <trkpt lat="42.3648" lon="1.291">
        <ele>1333</ele>
        <time>2022-05-22 15:02:55</time>
      </trkpt>
      <trkpt lat="42.36478" lon="1.29101">
        <ele>1333.2</ele>
        <time>2022-05-22 15:02:56</time>
      </trkpt>
      <trkpt lat="42.36476" lon="1.29102">
        <ele>1333.4</ele>
        <time>2022-05-22 15:02:57</time>
      </trkpt>
      <trkpt lat="42.36475" lon="1.29103">
        <ele>1333.4</ele>
        <time>2022-05-22 15:02:58</time>
      </trkpt>
      <trkpt lat="42.36473" lon="1.29104">
        <ele>1333.6</ele>
        <time>2022-05-22 15:02:59</time>
      </trkpt>
      <trkpt lat="42.3647" lon="1.29105">
        <ele>1333.8</ele>
        <time>2022-05-22 15:03:00</time>
      </trkpt>
      <trkpt lat="42.36468" lon="1.29106">
        <ele>1334</ele>
        <time>2022-05-22 15:03:01</time>
      </trkpt>
      <trkpt lat="42.36466" lon="1.29107">
        <ele>1334.2</ele>
        <time>2022-05-22 15:03:02</time>
      </trkpt>
      <trkpt lat="42.36464" lon="1.29107">
        <ele>1334.4</ele>
        <time>2022-05-22 15:03:03</time>
      </trkpt>
      <trkpt lat="42.36462" lon="1.29108">
        <ele>1334.4</ele>
        <time>2022-05-22 15:03:04</time>
      </trkpt>
      <trkpt lat="42.36461" lon="1.29108">
        <ele>1334.6</ele>
        <time>2022-05-22 15:03:05</time>
      </trkpt>
      <trkpt lat="42.36459" lon="1.29109">
        <ele>1334.8</ele>
        <time>2022-05-22 15:03:06</time>
      </trkpt>
      <trkpt lat="42.36456" lon="1.2911">
        <ele>1335</ele>
        <time>2022-05-22 15:03:07</time>
      </trkpt>
      <trkpt lat="42.36454" lon="1.2911">
        <ele>1335.2</ele>
        <time>2022-05-22 15:03:08</time>
      </trkpt>
      <trkpt lat="42.36452" lon="1.2911">
        <ele>1335.2</ele>
        <time>2022-05-22 15:03:09</time>
      </trkpt>
      <trkpt lat="42.36449" lon="1.2911">
        <ele>1335.6</ele>
        <time>2022-05-22 15:03:10</time>
      </trkpt>
      <trkpt lat="42.36447" lon="1.2911">
        <ele>1335.8</ele>
        <time>2022-05-22 15:03:11</time>
      </trkpt>
      <trkpt lat="42.36445" lon="1.29111">
        <ele>1335.8</ele>
        <time>2022-05-22 15:03:12</time>
      </trkpt>
      <trkpt lat="42.36444" lon="1.29111">
        <ele>1336</ele>
        <time>2022-05-22 15:03:13</time>
      </trkpt>
      <trkpt lat="42.36442" lon="1.29111">
        <ele>1336.2</ele>
        <time>2022-05-22 15:03:14</time>
      </trkpt>
      <trkpt lat="42.36439" lon="1.29112">
        <ele>1336.4</ele>
        <time>2022-05-22 15:03:15</time>
      </trkpt>
      <trkpt lat="42.36438" lon="1.29112">
        <ele>1336.6</ele>
        <time>2022-05-22 15:03:16</time>
      </trkpt>
      <trkpt lat="42.36436" lon="1.29113">
        <ele>1336.6</ele>
        <time>2022-05-22 15:03:17</time>
      </trkpt>
      <trkpt lat="42.36434" lon="1.29114">
        <ele>1336.8</ele>
        <time>2022-05-22 15:03:18</time>
      </trkpt>
      <trkpt lat="42.36433" lon="1.29114">
        <ele>1337</ele>
        <time>2022-05-22 15:03:19</time>
      </trkpt>
      <trkpt lat="42.3643" lon="1.29115">
        <ele>1337.2</ele>
        <time>2022-05-22 15:03:20</time>
      </trkpt>
      <trkpt lat="42.36428" lon="1.29115">
        <ele>1337.4</ele>
        <time>2022-05-22 15:03:21</time>
      </trkpt>
      <trkpt lat="42.36426" lon="1.29116">
        <ele>1337.4</ele>
        <time>2022-05-22 15:03:22</time>
      </trkpt>
      <trkpt lat="42.36425" lon="1.29116">
        <ele>1337.6</ele>
        <time>2022-05-22 15:03:23</time>
      </trkpt>
      <trkpt lat="42.36423" lon="1.29117">
        <ele>1337.8</ele>
        <time>2022-05-22 15:03:24</time>
      </trkpt>
      <trkpt lat="42.36421" lon="1.29117">
        <ele>1338</ele>
        <time>2022-05-22 15:03:25</time>
      </trkpt>
      <trkpt lat="42.36419" lon="1.29118">
        <ele>1338.2</ele>
        <time>2022-05-22 15:03:26</time>
      </trkpt>
      <trkpt lat="42.36417" lon="1.29119">
        <ele>1338.2</ele>
        <time>2022-05-22 15:03:27</time>
      </trkpt>
      <trkpt lat="42.36416" lon="1.29119">
        <ele>1338.4</ele>
        <time>2022-05-22 15:03:28</time>
      </trkpt>
      <trkpt lat="42.36415" lon="1.2912">
        <ele>1338.6</ele>
        <time>2022-05-22 15:03:29</time>
      </trkpt>
      <trkpt lat="42.36412" lon="1.29121">
        <ele>1338.8</ele>
        <time>2022-05-22 15:03:30</time>
      </trkpt>
      <trkpt lat="42.36411" lon="1.29122">
        <ele>1339</ele>
        <time>2022-05-22 15:03:31</time>
      </trkpt>
      <trkpt lat="42.36409" lon="1.29123">
        <ele>1339.2</ele>
        <time>2022-05-22 15:03:32</time>
      </trkpt>
      <trkpt lat="42.36407" lon="1.29124">
        <ele>1339.4</ele>
        <time>2022-05-22 15:03:33</time>
      </trkpt>
      <trkpt lat="42.36406" lon="1.29125">
        <ele>1339.6</ele>
        <time>2022-05-22 15:03:34</time>
      </trkpt>
      <trkpt lat="42.36404" lon="1.29125">
        <ele>1339.8</ele>
        <time>2022-05-22 15:03:35</time>
      </trkpt>
      <trkpt lat="42.36402" lon="1.29127">
        <ele>1340</ele>
        <time>2022-05-22 15:03:36</time>
      </trkpt>
      <trkpt lat="42.364" lon="1.29128">
        <ele>1340.2</ele>
        <time>2022-05-22 15:03:37</time>
      </trkpt>
      <trkpt lat="42.36398" lon="1.29129">
        <ele>1340.2</ele>
        <time>2022-05-22 15:03:38</time>
      </trkpt>
      <trkpt lat="42.36396" lon="1.2913">
        <ele>1340.4</ele>
        <time>2022-05-22 15:03:39</time>
      </trkpt>
      <trkpt lat="42.36395" lon="1.29131">
        <ele>1340.4</ele>
        <time>2022-05-22 15:03:40</time>
      </trkpt>
      <trkpt lat="42.36393" lon="1.29132">
        <ele>1340.6</ele>
        <time>2022-05-22 15:03:41</time>
      </trkpt>
      <trkpt lat="42.36391" lon="1.29134">
        <ele>1340.8</ele>
        <time>2022-05-22 15:03:42</time>
      </trkpt>
      <trkpt lat="42.3639" lon="1.29135">
        <ele>1340.8</ele>
        <time>2022-05-22 15:03:43</time>
      </trkpt>
      <trkpt lat="42.36388" lon="1.29137">
        <ele>1341</ele>
        <time>2022-05-22 15:03:44</time>
      </trkpt>
      <trkpt lat="42.36386" lon="1.29139">
        <ele>1341.2</ele>
        <time>2022-05-22 15:03:45</time>
      </trkpt>
      <trkpt lat="42.36385" lon="1.29141">
        <ele>1341.2</ele>
        <time>2022-05-22 15:03:46</time>
      </trkpt>
      <trkpt lat="42.36383" lon="1.29144">
        <ele>1341.4</ele>
        <time>2022-05-22 15:03:47</time>
      </trkpt>
      <trkpt lat="42.36382" lon="1.29146">
        <ele>1341.6</ele>
        <time>2022-05-22 15:03:48</time>
      </trkpt>
      <trkpt lat="42.36381" lon="1.29148">
        <ele>1341.8</ele>
        <time>2022-05-22 15:03:49</time>
      </trkpt>
      <trkpt lat="42.36379" lon="1.2915">
        <ele>1341.8</ele>
        <time>2022-05-22 15:03:50</time>
      </trkpt>
      <trkpt lat="42.36378" lon="1.29153">
        <ele>1342</ele>
        <time>2022-05-22 15:03:51</time>
      </trkpt>
      <trkpt lat="42.36376" lon="1.29155">
        <ele>1342.2</ele>
        <time>2022-05-22 15:03:52</time>
      </trkpt>
      <trkpt lat="42.36375" lon="1.29157">
        <ele>1342.4</ele>
        <time>2022-05-22 15:03:53</time>
      </trkpt>
      <trkpt lat="42.36374" lon="1.29159">
        <ele>1342.6</ele>
        <time>2022-05-22 15:03:54</time>
      </trkpt>
      <trkpt lat="42.36373" lon="1.29163">
        <ele>1342.8</ele>
        <time>2022-05-22 15:03:55</time>
      </trkpt>
      <trkpt lat="42.36372" lon="1.29166">
        <ele>1343</ele>
        <time>2022-05-22 15:03:56</time>
      </trkpt>
      <trkpt lat="42.36371" lon="1.29169">
        <ele>1343.2</ele>
        <time>2022-05-22 15:03:57</time>
      </trkpt>
      <trkpt lat="42.36371" lon="1.29171">
        <ele>1343.4</ele>
        <time>2022-05-22 15:03:58</time>
      </trkpt>
      <trkpt lat="42.3637" lon="1.29173">
        <ele>1343.6</ele>
        <time>2022-05-22 15:03:59</time>
      </trkpt>
      <trkpt lat="42.36369" lon="1.29177">
        <ele>1343.8</ele>
        <time>2022-05-22 15:04:00</time>
      </trkpt>
      <trkpt lat="42.36368" lon="1.29179">
        <ele>1344</ele>
        <time>2022-05-22 15:04:01</time>
      </trkpt>
      <trkpt lat="42.36367" lon="1.29182">
        <ele>1344.2</ele>
        <time>2022-05-22 15:04:02</time>
      </trkpt>
      <trkpt lat="42.36366" lon="1.29185">
        <ele>1344.6</ele>
        <time>2022-05-22 15:04:03</time>
      </trkpt>
      <trkpt lat="42.36366" lon="1.29186">
        <ele>1344.8</ele>
        <time>2022-05-22 15:04:04</time>
      </trkpt>
      <trkpt lat="42.36365" lon="1.29191">
        <ele>1345</ele>
        <time>2022-05-22 15:04:05</time>
      </trkpt>
      <trkpt lat="42.36364" lon="1.29194">
        <ele>1345.2</ele>
        <time>2022-05-22 15:04:06</time>
      </trkpt>
      <trkpt lat="42.36364" lon="1.29196">
        <ele>1345.4</ele>
        <time>2022-05-22 15:04:07</time>
      </trkpt>
      <trkpt lat="42.36363" lon="1.29198">
        <ele>1345.8</ele>
        <time>2022-05-22 15:04:08</time>
      </trkpt>
      <trkpt lat="42.36363" lon="1.29201">
        <ele>1346</ele>
        <time>2022-05-22 15:04:09</time>
      </trkpt>
      <trkpt lat="42.36362" lon="1.29204">
        <ele>1346.2</ele>
        <time>2022-05-22 15:04:10</time>
      </trkpt>
      <trkpt lat="42.36361" lon="1.29207">
        <ele>1346.4</ele>
        <time>2022-05-22 15:04:11</time>
      </trkpt>
      <trkpt lat="42.36361" lon="1.29209">
        <ele>1346.6</ele>
        <time>2022-05-22 15:04:12</time>
      </trkpt>
      <trkpt lat="42.3636" lon="1.29212">
        <ele>1346.8</ele>
        <time>2022-05-22 15:04:13</time>
      </trkpt>
      <trkpt lat="42.3636" lon="1.29214">
        <ele>1347</ele>
        <time>2022-05-22 15:04:14</time>
      </trkpt>
      <trkpt lat="42.36359" lon="1.29217">
        <ele>1347.2</ele>
        <time>2022-05-22 15:04:15</time>
      </trkpt>
      <trkpt lat="42.36359" lon="1.29219">
        <ele>1347.4</ele>
        <time>2022-05-22 15:04:16</time>
      </trkpt>
      <trkpt lat="42.36358" lon="1.29222">
        <ele>1347.6</ele>
        <time>2022-05-22 15:04:17</time>
      </trkpt>
      <trkpt lat="42.36357" lon="1.29224">
        <ele>1347.8</ele>
        <time>2022-05-22 15:04:18</time>
      </trkpt>
      <trkpt lat="42.36356" lon="1.29226">
        <ele>1348</ele>
        <time>2022-05-22 15:04:19</time>
      </trkpt>
      <trkpt lat="42.36355" lon="1.29229">
        <ele>1348.2</ele>
        <time>2022-05-22 15:04:20</time>
      </trkpt>
      <trkpt lat="42.36354" lon="1.29231">
        <ele>1348.4</ele>
        <time>2022-05-22 15:04:21</time>
      </trkpt>
      <trkpt lat="42.36353" lon="1.29234">
        <ele>1348.4</ele>
        <time>2022-05-22 15:04:22</time>
      </trkpt>
      <trkpt lat="42.36352" lon="1.29236">
        <ele>1348.6</ele>
        <time>2022-05-22 15:04:23</time>
      </trkpt>
      <trkpt lat="42.36351" lon="1.29238">
        <ele>1348.8</ele>
        <time>2022-05-22 15:04:24</time>
      </trkpt>
      <trkpt lat="42.3635" lon="1.29241">
        <ele>1348.8</ele>
        <time>2022-05-22 15:04:25</time>
      </trkpt>
      <trkpt lat="42.36349" lon="1.29243">
        <ele>1349</ele>
        <time>2022-05-22 15:04:26</time>
      </trkpt>
      <trkpt lat="42.36348" lon="1.29245">
        <ele>1349.2</ele>
        <time>2022-05-22 15:04:27</time>
      </trkpt>
      <trkpt lat="42.36346" lon="1.29247">
        <ele>1349.2</ele>
        <time>2022-05-22 15:04:28</time>
      </trkpt>
      <trkpt lat="42.36345" lon="1.29249">
        <ele>1349.4</ele>
        <time>2022-05-22 15:04:29</time>
      </trkpt>
      <trkpt lat="42.36343" lon="1.29251">
        <ele>1349.6</ele>
        <time>2022-05-22 15:04:30</time>
      </trkpt>
      <trkpt lat="42.36342" lon="1.29254">
        <ele>1349.8</ele>
        <time>2022-05-22 15:04:31</time>
      </trkpt>
      <trkpt lat="42.36341" lon="1.29256">
        <ele>1350</ele>
        <time>2022-05-22 15:04:32</time>
      </trkpt>
      <trkpt lat="42.3634" lon="1.29258">
        <ele>1350</ele>
        <time>2022-05-22 15:04:33</time>
      </trkpt>
      <trkpt lat="42.36339" lon="1.29259">
        <ele>1350.2</ele>
        <time>2022-05-22 15:04:34</time>
      </trkpt>
      <trkpt lat="42.36338" lon="1.29262">
        <ele>1350.4</ele>
        <time>2022-05-22 15:04:35</time>
      </trkpt>
      <trkpt lat="42.36336" lon="1.29264">
        <ele>1350.6</ele>
        <time>2022-05-22 15:04:36</time>
      </trkpt>
      <trkpt lat="42.36335" lon="1.29266">
        <ele>1350.8</ele>
        <time>2022-05-22 15:04:37</time>
      </trkpt>
      <trkpt lat="42.36335" lon="1.29268">
        <ele>1351</ele>
        <time>2022-05-22 15:04:38</time>
      </trkpt>
      <trkpt lat="42.36334" lon="1.2927">
        <ele>1351</ele>
        <time>2022-05-22 15:04:39</time>
      </trkpt>
      <trkpt lat="42.36332" lon="1.29272">
        <ele>1351.2</ele>
        <time>2022-05-22 15:04:40</time>
      </trkpt>
      <trkpt lat="42.36331" lon="1.29274">
        <ele>1351.4</ele>
        <time>2022-05-22 15:04:41</time>
      </trkpt>
      <trkpt lat="42.3633" lon="1.29276">
        <ele>1351.6</ele>
        <time>2022-05-22 15:04:42</time>
      </trkpt>
      <trkpt lat="42.36329" lon="1.29278">
        <ele>1351.8</ele>
        <time>2022-05-22 15:04:43</time>
      </trkpt>
      <trkpt lat="42.36328" lon="1.2928">
        <ele>1352</ele>
        <time>2022-05-22 15:04:44</time>
      </trkpt>
      <trkpt lat="42.36327" lon="1.29281">
        <ele>1352.2</ele>
        <time>2022-05-22 15:04:45</time>
      </trkpt>
      <trkpt lat="42.36325" lon="1.29283">
        <ele>1352.4</ele>
        <time>2022-05-22 15:04:46</time>
      </trkpt>
      <trkpt lat="42.36324" lon="1.29285">
        <ele>1352.4</ele>
        <time>2022-05-22 15:04:47</time>
      </trkpt>
      <trkpt lat="42.36323" lon="1.29287">
        <ele>1352.6</ele>
        <time>2022-05-22 15:04:48</time>
      </trkpt>
      <trkpt lat="42.36322" lon="1.29288">
        <ele>1352.8</ele>
        <time>2022-05-22 15:04:49</time>
      </trkpt>
      <trkpt lat="42.3632" lon="1.29291">
        <ele>1353</ele>
        <time>2022-05-22 15:04:50</time>
      </trkpt>
      <trkpt lat="42.36319" lon="1.29293">
        <ele>1353.2</ele>
        <time>2022-05-22 15:04:51</time>
      </trkpt>
      <trkpt lat="42.36318" lon="1.29295">
        <ele>1353.4</ele>
        <time>2022-05-22 15:04:52</time>
      </trkpt>
      <trkpt lat="42.36317" lon="1.29296">
        <ele>1353.6</ele>
        <time>2022-05-22 15:04:53</time>
      </trkpt>
      <trkpt lat="42.36316" lon="1.29298">
        <ele>1353.6</ele>
        <time>2022-05-22 15:04:54</time>
      </trkpt>
      <trkpt lat="42.36315" lon="1.29299">
        <ele>1353.8</ele>
        <time>2022-05-22 15:04:55</time>
      </trkpt>
      <trkpt lat="42.36313" lon="1.29301">
        <ele>1354</ele>
        <time>2022-05-22 15:04:56</time>
      </trkpt>
      <trkpt lat="42.36312" lon="1.29303">
        <ele>1354.2</ele>
        <time>2022-05-22 15:04:57</time>
      </trkpt>
      <trkpt lat="42.36311" lon="1.29304">
        <ele>1354.4</ele>
        <time>2022-05-22 15:04:58</time>
      </trkpt>
      <trkpt lat="42.36309" lon="1.29306">
        <ele>1354.6</ele>
        <time>2022-05-22 15:04:59</time>
      </trkpt>
      <trkpt lat="42.36308" lon="1.29307">
        <ele>1354.8</ele>
        <time>2022-05-22 15:05:00</time>
      </trkpt>
      <trkpt lat="42.36307" lon="1.29308">
        <ele>1355</ele>
        <time>2022-05-22 15:05:01</time>
      </trkpt>
      <trkpt lat="42.36305" lon="1.29311">
        <ele>1355</ele>
        <time>2022-05-22 15:05:02</time>
      </trkpt>
      <trkpt lat="42.36304" lon="1.29312">
        <ele>1355.2</ele>
        <time>2022-05-22 15:05:03</time>
      </trkpt>
      <trkpt lat="42.36303" lon="1.29314">
        <ele>1355.4</ele>
        <time>2022-05-22 15:05:04</time>
      </trkpt>
      <trkpt lat="42.36302" lon="1.29315">
        <ele>1355.6</ele>
        <time>2022-05-22 15:05:05</time>
      </trkpt>
      <trkpt lat="42.36301" lon="1.29317">
        <ele>1355.8</ele>
        <time>2022-05-22 15:05:06</time>
      </trkpt>
      <trkpt lat="42.363" lon="1.29318">
        <ele>1356</ele>
        <time>2022-05-22 15:05:07</time>
      </trkpt>
      <trkpt lat="42.36298" lon="1.2932">
        <ele>1356.2</ele>
        <time>2022-05-22 15:05:08</time>
      </trkpt>
      <trkpt lat="42.36296" lon="1.29321">
        <ele>1356.4</ele>
        <time>2022-05-22 15:05:09</time>
      </trkpt>
      <trkpt lat="42.36295" lon="1.29322">
        <ele>1356.6</ele>
        <time>2022-05-22 15:05:10</time>
      </trkpt>
      <trkpt lat="42.36293" lon="1.29323">
        <ele>1356.8</ele>
        <time>2022-05-22 15:05:11</time>
      </trkpt>
      <trkpt lat="42.36292" lon="1.29325">
        <ele>1357</ele>
        <time>2022-05-22 15:05:12</time>
      </trkpt>
      <trkpt lat="42.3629" lon="1.29327">
        <ele>1357.2</ele>
        <time>2022-05-22 15:05:13</time>
      </trkpt>
      <trkpt lat="42.36289" lon="1.29328">
        <ele>1357.2</ele>
        <time>2022-05-22 15:05:14</time>
      </trkpt>
      <trkpt lat="42.36287" lon="1.29329">
        <ele>1357.4</ele>
        <time>2022-05-22 15:05:15</time>
      </trkpt>
      <trkpt lat="42.36285" lon="1.2933">
        <ele>1357.6</ele>
        <time>2022-05-22 15:05:16</time>
      </trkpt>
      <trkpt lat="42.36284" lon="1.29331">
        <ele>1357.6</ele>
        <time>2022-05-22 15:05:17</time>
      </trkpt>
      <trkpt lat="42.36282" lon="1.29332">
        <ele>1357.8</ele>
        <time>2022-05-22 15:05:18</time>
      </trkpt>
      <trkpt lat="42.36281" lon="1.29333">
        <ele>1357.8</ele>
        <time>2022-05-22 15:05:19</time>
      </trkpt>
      <trkpt lat="42.36279" lon="1.29334">
        <ele>1358</ele>
        <time>2022-05-22 15:05:20</time>
      </trkpt>
      <trkpt lat="42.36278" lon="1.29335">
        <ele>1358.2</ele>
        <time>2022-05-22 15:05:21</time>
      </trkpt>
      <trkpt lat="42.36276" lon="1.29336">
        <ele>1358.2</ele>
        <time>2022-05-22 15:05:22</time>
      </trkpt>
      <trkpt lat="42.36275" lon="1.29337">
        <ele>1358.4</ele>
        <time>2022-05-22 15:05:23</time>
      </trkpt>
      <trkpt lat="42.36274" lon="1.29338">
        <ele>1358.6</ele>
        <time>2022-05-22 15:05:24</time>
      </trkpt>
      <trkpt lat="42.36272" lon="1.29339">
        <ele>1358.6</ele>
        <time>2022-05-22 15:05:25</time>
      </trkpt>
      <trkpt lat="42.3627" lon="1.2934">
        <ele>1358.8</ele>
        <time>2022-05-22 15:05:26</time>
      </trkpt>
      <trkpt lat="42.36268" lon="1.29341">
        <ele>1359</ele>
        <time>2022-05-22 15:05:27</time>
      </trkpt>
      <trkpt lat="42.36267" lon="1.29342">
        <ele>1359.2</ele>
        <time>2022-05-22 15:05:28</time>
      </trkpt>
      <trkpt lat="42.36265" lon="1.29343">
        <ele>1359.4</ele>
        <time>2022-05-22 15:05:29</time>
      </trkpt>
      <trkpt lat="42.36263" lon="1.29344">
        <ele>1359.4</ele>
        <time>2022-05-22 15:05:30</time>
      </trkpt>
      <trkpt lat="42.36262" lon="1.29345">
        <ele>1359.6</ele>
        <time>2022-05-22 15:05:31</time>
      </trkpt>
      <trkpt lat="42.3626" lon="1.29346">
        <ele>1359.8</ele>
        <time>2022-05-22 15:05:32</time>
      </trkpt>
      <trkpt lat="42.36259" lon="1.29347">
        <ele>1360</ele>
        <time>2022-05-22 15:05:33</time>
      </trkpt>
      <trkpt lat="42.36257" lon="1.29349">
        <ele>1360</ele>
        <time>2022-05-22 15:05:34</time>
      </trkpt>
      <trkpt lat="42.36256" lon="1.2935">
        <ele>1360.2</ele>
        <time>2022-05-22 15:05:35</time>
      </trkpt>
      <trkpt lat="42.36254" lon="1.29351">
        <ele>1360.4</ele>
        <time>2022-05-22 15:05:36</time>
      </trkpt>
      <trkpt lat="42.36253" lon="1.29351">
        <ele>1360.6</ele>
        <time>2022-05-22 15:05:37</time>
      </trkpt>
      <trkpt lat="42.36251" lon="1.29353">
        <ele>1360.8</ele>
        <time>2022-05-22 15:05:38</time>
      </trkpt>
      <trkpt lat="42.3625" lon="1.29354">
        <ele>1360.8</ele>
        <time>2022-05-22 15:05:39</time>
      </trkpt>
      <trkpt lat="42.36249" lon="1.29354">
        <ele>1361</ele>
        <time>2022-05-22 15:05:40</time>
      </trkpt>
      <trkpt lat="42.36247" lon="1.29355">
        <ele>1361.2</ele>
        <time>2022-05-22 15:05:41</time>
      </trkpt>
      <trkpt lat="42.36246" lon="1.29356">
        <ele>1361.4</ele>
        <time>2022-05-22 15:05:42</time>
      </trkpt>
      <trkpt lat="42.36245" lon="1.29357">
        <ele>1361.4</ele>
        <time>2022-05-22 15:05:43</time>
      </trkpt>
      <trkpt lat="42.36243" lon="1.29358">
        <ele>1361.6</ele>
        <time>2022-05-22 15:05:44</time>
      </trkpt>
      <trkpt lat="42.36242" lon="1.29359">
        <ele>1361.8</ele>
        <time>2022-05-22 15:05:45</time>
      </trkpt>
      <trkpt lat="42.36241" lon="1.29359">
        <ele>1362</ele>
        <time>2022-05-22 15:05:46</time>
      </trkpt>
      <trkpt lat="42.36239" lon="1.2936">
        <ele>1362</ele>
        <time>2022-05-22 15:05:47</time>
      </trkpt>
      <trkpt lat="42.36238" lon="1.29361">
        <ele>1362.2</ele>
        <time>2022-05-22 15:05:48</time>
      </trkpt>
      <trkpt lat="42.36236" lon="1.29361">
        <ele>1362.4</ele>
        <time>2022-05-22 15:05:49</time>
      </trkpt>
      <trkpt lat="42.36234" lon="1.29362">
        <ele>1362.6</ele>
        <time>2022-05-22 15:05:50</time>
      </trkpt>
      <trkpt lat="42.36233" lon="1.29363">
        <ele>1362.6</ele>
        <time>2022-05-22 15:05:51</time>
      </trkpt>
      <trkpt lat="42.36231" lon="1.29364">
        <ele>1362.8</ele>
        <time>2022-05-22 15:05:52</time>
      </trkpt>
      <trkpt lat="42.36229" lon="1.29366">
        <ele>1363</ele>
        <time>2022-05-22 15:05:53</time>
      </trkpt>
      <trkpt lat="42.36228" lon="1.29367">
        <ele>1363.2</ele>
        <time>2022-05-22 15:05:54</time>
      </trkpt>
      <trkpt lat="42.36226" lon="1.29368">
        <ele>1363.4</ele>
        <time>2022-05-22 15:05:55</time>
      </trkpt>
      <trkpt lat="42.36225" lon="1.29369">
        <ele>1363.4</ele>
        <time>2022-05-22 15:05:56</time>
      </trkpt>
      <trkpt lat="42.36223" lon="1.2937">
        <ele>1363.6</ele>
        <time>2022-05-22 15:05:57</time>
      </trkpt>
      <trkpt lat="42.36222" lon="1.29372">
        <ele>1363.8</ele>
        <time>2022-05-22 15:05:58</time>
      </trkpt>
      <trkpt lat="42.3622" lon="1.29374">
        <ele>1363.8</ele>
        <time>2022-05-22 15:05:59</time>
      </trkpt>
      <trkpt lat="42.36218" lon="1.29374">
        <ele>1364</ele>
        <time>2022-05-22 15:06:00</time>
      </trkpt>
      <trkpt lat="42.36216" lon="1.29375">
        <ele>1364</ele>
        <time>2022-05-22 15:06:01</time>
      </trkpt>
      <trkpt lat="42.36215" lon="1.29376">
        <ele>1364.2</ele>
        <time>2022-05-22 15:06:02</time>
      </trkpt>
      <trkpt lat="42.36214" lon="1.29377">
        <ele>1364.2</ele>
        <time>2022-05-22 15:06:03</time>
      </trkpt>
      <trkpt lat="42.36213" lon="1.29378">
        <ele>1364.4</ele>
        <time>2022-05-22 15:06:04</time>
      </trkpt>
      <trkpt lat="42.36212" lon="1.29379">
        <ele>1364.6</ele>
        <time>2022-05-22 15:06:05</time>
      </trkpt>
      <trkpt lat="42.3621" lon="1.29381">
        <ele>1364.6</ele>
        <time>2022-05-22 15:06:06</time>
      </trkpt>
      <trkpt lat="42.36209" lon="1.29382">
        <ele>1364.8</ele>
        <time>2022-05-22 15:06:07</time>
      </trkpt>
      <trkpt lat="42.36207" lon="1.29384">
        <ele>1364.8</ele>
        <time>2022-05-22 15:06:08</time>
      </trkpt>
      <trkpt lat="42.36206" lon="1.29385">
        <ele>1365</ele>
        <time>2022-05-22 15:06:09</time>
      </trkpt>
      <trkpt lat="42.36204" lon="1.29386">
        <ele>1365.2</ele>
        <time>2022-05-22 15:06:10</time>
      </trkpt>
      <trkpt lat="42.36203" lon="1.29387">
        <ele>1365.2</ele>
        <time>2022-05-22 15:06:11</time>
      </trkpt>
      <trkpt lat="42.36202" lon="1.29387">
        <ele>1365.4</ele>
        <time>2022-05-22 15:06:12</time>
      </trkpt>
      <trkpt lat="42.362" lon="1.2939">
        <ele>1365.6</ele>
        <time>2022-05-22 15:06:13</time>
      </trkpt>
      <trkpt lat="42.36199" lon="1.29391">
        <ele>1365.8</ele>
        <time>2022-05-22 15:06:14</time>
      </trkpt>
      <trkpt lat="42.36197" lon="1.29393">
        <ele>1366</ele>
        <time>2022-05-22 15:06:15</time>
      </trkpt>
      <trkpt lat="42.36195" lon="1.29394">
        <ele>1366</ele>
        <time>2022-05-22 15:06:16</time>
      </trkpt>
      <trkpt lat="42.36194" lon="1.29395">
        <ele>1366.2</ele>
        <time>2022-05-22 15:06:17</time>
      </trkpt>
      <trkpt lat="42.36192" lon="1.29397">
        <ele>1366.4</ele>
        <time>2022-05-22 15:06:18</time>
      </trkpt>
      <trkpt lat="42.36191" lon="1.29398">
        <ele>1366.6</ele>
        <time>2022-05-22 15:06:19</time>
      </trkpt>
      <trkpt lat="42.36189" lon="1.29399">
        <ele>1366.8</ele>
        <time>2022-05-22 15:06:20</time>
      </trkpt>
      <trkpt lat="42.36188" lon="1.29401">
        <ele>1366.8</ele>
        <time>2022-05-22 15:06:21</time>
      </trkpt>
      <trkpt lat="42.36186" lon="1.29402">
        <ele>1367</ele>
        <time>2022-05-22 15:06:22</time>
      </trkpt>
      <trkpt lat="42.36185" lon="1.29403">
        <ele>1367.2</ele>
        <time>2022-05-22 15:06:23</time>
      </trkpt>
      <trkpt lat="42.36184" lon="1.29405">
        <ele>1367.4</ele>
        <time>2022-05-22 15:06:24</time>
      </trkpt>
      <trkpt lat="42.36182" lon="1.29407">
        <ele>1367.6</ele>
        <time>2022-05-22 15:06:25</time>
      </trkpt>
      <trkpt lat="42.36181" lon="1.29409">
        <ele>1367.8</ele>
        <time>2022-05-22 15:06:26</time>
      </trkpt>
      <trkpt lat="42.3618" lon="1.29411">
        <ele>1367.8</ele>
        <time>2022-05-22 15:06:27</time>
      </trkpt>
      <trkpt lat="42.36178" lon="1.29413">
        <ele>1368.2</ele>
        <time>2022-05-22 15:06:28</time>
      </trkpt>
      <trkpt lat="42.36176" lon="1.29415">
        <ele>1368.2</ele>
        <time>2022-05-22 15:06:29</time>
      </trkpt>
      <trkpt lat="42.36175" lon="1.29416">
        <ele>1368.4</ele>
        <time>2022-05-22 15:06:30</time>
      </trkpt>
      <trkpt lat="42.36174" lon="1.29418">
        <ele>1368.6</ele>
        <time>2022-05-22 15:06:31</time>
      </trkpt>
      <trkpt lat="42.36172" lon="1.29419">
        <ele>1368.8</ele>
        <time>2022-05-22 15:06:32</time>
      </trkpt>
      <trkpt lat="42.36171" lon="1.2942">
        <ele>1369</ele>
        <time>2022-05-22 15:06:33</time>
      </trkpt>
      <trkpt lat="42.36169" lon="1.29422">
        <ele>1369.2</ele>
        <time>2022-05-22 15:06:34</time>
      </trkpt>
      <trkpt lat="42.36168" lon="1.29423">
        <ele>1369.4</ele>
        <time>2022-05-22 15:06:35</time>
      </trkpt>
      <trkpt lat="42.36167" lon="1.29424">
        <ele>1369.4</ele>
        <time>2022-05-22 15:06:36</time>
      </trkpt>
      <trkpt lat="42.36166" lon="1.29426">
        <ele>1369.6</ele>
        <time>2022-05-22 15:06:37</time>
      </trkpt>
      <trkpt lat="42.36165" lon="1.29427">
        <ele>1369.8</ele>
        <time>2022-05-22 15:06:38</time>
      </trkpt>
      <trkpt lat="42.36164" lon="1.29428">
        <ele>1370</ele>
        <time>2022-05-22 15:06:39</time>
      </trkpt>
      <trkpt lat="42.36162" lon="1.29429">
        <ele>1370.2</ele>
        <time>2022-05-22 15:06:40</time>
      </trkpt>
      <trkpt lat="42.36161" lon="1.29431">
        <ele>1370.4</ele>
        <time>2022-05-22 15:06:41</time>
      </trkpt>
      <trkpt lat="42.3616" lon="1.29432">
        <ele>1370.4</ele>
        <time>2022-05-22 15:06:42</time>
      </trkpt>
      <trkpt lat="42.36159" lon="1.29433">
        <ele>1370.6</ele>
        <time>2022-05-22 15:06:43</time>
      </trkpt>
      <trkpt lat="42.36158" lon="1.29434">
        <ele>1370.8</ele>
        <time>2022-05-22 15:06:44</time>
      </trkpt>
      <trkpt lat="42.36157" lon="1.29435">
        <ele>1370.8</ele>
        <time>2022-05-22 15:06:45</time>
      </trkpt>
      <trkpt lat="42.36156" lon="1.29436">
        <ele>1371</ele>
        <time>2022-05-22 15:06:46</time>
      </trkpt>
      <trkpt lat="42.36154" lon="1.29438">
        <ele>1371.2</ele>
        <time>2022-05-22 15:06:47</time>
      </trkpt>
      <trkpt lat="42.36153" lon="1.29439">
        <ele>1371.4</ele>
        <time>2022-05-22 15:06:48</time>
      </trkpt>
      <trkpt lat="42.36152" lon="1.2944">
        <ele>1371.4</ele>
        <time>2022-05-22 15:06:49</time>
      </trkpt>
      <trkpt lat="42.36151" lon="1.29441">
        <ele>1371.6</ele>
        <time>2022-05-22 15:06:50</time>
      </trkpt>
      <trkpt lat="42.36149" lon="1.29442">
        <ele>1371.8</ele>
        <time>2022-05-22 15:06:51</time>
      </trkpt>
      <trkpt lat="42.36147" lon="1.29442">
        <ele>1371.8</ele>
        <time>2022-05-22 15:06:52</time>
      </trkpt>
      <trkpt lat="42.36146" lon="1.29443">
        <ele>1372</ele>
        <time>2022-05-22 15:06:53</time>
      </trkpt>
      <trkpt lat="42.36145" lon="1.29444">
        <ele>1372.2</ele>
        <time>2022-05-22 15:06:54</time>
      </trkpt>
      <trkpt lat="42.36143" lon="1.29445">
        <ele>1372.2</ele>
        <time>2022-05-22 15:06:55</time>
      </trkpt>
      <trkpt lat="42.36142" lon="1.29446">
        <ele>1372.4</ele>
        <time>2022-05-22 15:06:56</time>
      </trkpt>
      <trkpt lat="42.36141" lon="1.29447">
        <ele>1372.6</ele>
        <time>2022-05-22 15:06:57</time>
      </trkpt>
      <trkpt lat="42.36139" lon="1.29448">
        <ele>1372.6</ele>
        <time>2022-05-22 15:06:58</time>
      </trkpt>
      <trkpt lat="42.36138" lon="1.2945">
        <ele>1372.8</ele>
        <time>2022-05-22 15:06:59</time>
      </trkpt>
      <trkpt lat="42.36136" lon="1.29451">
        <ele>1373</ele>
        <time>2022-05-22 15:07:00</time>
      </trkpt>
      <trkpt lat="42.36135" lon="1.29452">
        <ele>1373.2</ele>
        <time>2022-05-22 15:07:01</time>
      </trkpt>
      <trkpt lat="42.36133" lon="1.29453">
        <ele>1373.2</ele>
        <time>2022-05-22 15:07:02</time>
      </trkpt>
      <trkpt lat="42.36132" lon="1.29455">
        <ele>1373.4</ele>
        <time>2022-05-22 15:07:03</time>
      </trkpt>
      <trkpt lat="42.3613" lon="1.29456">
        <ele>1373.6</ele>
        <time>2022-05-22 15:07:04</time>
      </trkpt>
      <trkpt lat="42.36129" lon="1.29457">
        <ele>1373.8</ele>
        <time>2022-05-22 15:07:05</time>
      </trkpt>
      <trkpt lat="42.36127" lon="1.29457">
        <ele>1373.8</ele>
        <time>2022-05-22 15:07:06</time>
      </trkpt>
      <trkpt lat="42.36125" lon="1.29458">
        <ele>1374</ele>
        <time>2022-05-22 15:07:07</time>
      </trkpt>
      <trkpt lat="42.36124" lon="1.29459">
        <ele>1374</ele>
        <time>2022-05-22 15:07:08</time>
      </trkpt>
      <trkpt lat="42.36122" lon="1.2946">
        <ele>1374.2</ele>
        <time>2022-05-22 15:07:09</time>
      </trkpt>
      <trkpt lat="42.36121" lon="1.29461">
        <ele>1374.4</ele>
        <time>2022-05-22 15:07:10</time>
      </trkpt>
      <trkpt lat="42.36119" lon="1.29462">
        <ele>1374.4</ele>
        <time>2022-05-22 15:07:11</time>
      </trkpt>
      <trkpt lat="42.36118" lon="1.29463">
        <ele>1374.6</ele>
        <time>2022-05-22 15:07:12</time>
      </trkpt>
      <trkpt lat="42.36116" lon="1.29463">
        <ele>1374.6</ele>
        <time>2022-05-22 15:07:13</time>
      </trkpt>
      <trkpt lat="42.36115" lon="1.29464">
        <ele>1374.8</ele>
        <time>2022-05-22 15:07:14</time>
      </trkpt>
      <trkpt lat="42.36114" lon="1.29465">
        <ele>1374.8</ele>
        <time>2022-05-22 15:07:15</time>
      </trkpt>
      <trkpt lat="42.36112" lon="1.29466">
        <ele>1375</ele>
        <time>2022-05-22 15:07:16</time>
      </trkpt>
      <trkpt lat="42.3611" lon="1.29467">
        <ele>1375</ele>
        <time>2022-05-22 15:07:17</time>
      </trkpt>
      <trkpt lat="42.36109" lon="1.29467">
        <ele>1375.2</ele>
        <time>2022-05-22 15:07:18</time>
      </trkpt>
      <trkpt lat="42.36108" lon="1.29468">
        <ele>1375.2</ele>
        <time>2022-05-22 15:07:19</time>
      </trkpt>
      <trkpt lat="42.36106" lon="1.29468">
        <ele>1375.4</ele>
        <time>2022-05-22 15:07:20</time>
      </trkpt>
      <trkpt lat="42.36105" lon="1.29469">
        <ele>1375.4</ele>
        <time>2022-05-22 15:07:21</time>
      </trkpt>
      <trkpt lat="42.36104" lon="1.2947">
        <ele>1375.6</ele>
        <time>2022-05-22 15:07:22</time>
      </trkpt>
      <trkpt lat="42.36103" lon="1.29471">
        <ele>1375.6</ele>
        <time>2022-05-22 15:07:23</time>
      </trkpt>
      <trkpt lat="42.36102" lon="1.29471">
        <ele>1375.8</ele>
        <time>2022-05-22 15:07:24</time>
      </trkpt>
      <trkpt lat="42.361" lon="1.29472">
        <ele>1375.8</ele>
        <time>2022-05-22 15:07:25</time>
      </trkpt>
      <trkpt lat="42.36098" lon="1.29472">
        <ele>1376</ele>
        <time>2022-05-22 15:07:26</time>
      </trkpt>
      <trkpt lat="42.36097" lon="1.29473">
        <ele>1376</ele>
        <time>2022-05-22 15:07:27</time>
      </trkpt>
      <trkpt lat="42.36095" lon="1.29473">
        <ele>1376.2</ele>
        <time>2022-05-22 15:07:28</time>
      </trkpt>
      <trkpt lat="42.36094" lon="1.29474">
        <ele>1376.4</ele>
        <time>2022-05-22 15:07:29</time>
      </trkpt>
      <trkpt lat="42.36093" lon="1.29475">
        <ele>1376.4</ele>
        <time>2022-05-22 15:07:30</time>
      </trkpt>
      <trkpt lat="42.36091" lon="1.29475">
        <ele>1376.6</ele>
        <time>2022-05-22 15:07:31</time>
      </trkpt>
      <trkpt lat="42.3609" lon="1.29476">
        <ele>1376.6</ele>
        <time>2022-05-22 15:07:32</time>
      </trkpt>
      <trkpt lat="42.36088" lon="1.29476">
        <ele>1376.8</ele>
        <time>2022-05-22 15:07:33</time>
      </trkpt>
      <trkpt lat="42.36087" lon="1.29477">
        <ele>1376.8</ele>
        <time>2022-05-22 15:07:34</time>
      </trkpt>
      <trkpt lat="42.36085" lon="1.29478">
        <ele>1377</ele>
        <time>2022-05-22 15:07:35</time>
      </trkpt>
      <trkpt lat="42.36084" lon="1.29478">
        <ele>1377.2</ele>
        <time>2022-05-22 15:07:36</time>
      </trkpt>
      <trkpt lat="42.36083" lon="1.29479">
        <ele>1377.2</ele>
        <time>2022-05-22 15:07:37</time>
      </trkpt>
      <trkpt lat="42.36081" lon="1.29479">
        <ele>1377.4</ele>
        <time>2022-05-22 15:07:38</time>
      </trkpt>
      <trkpt lat="42.3608" lon="1.29479">
        <ele>1377.4</ele>
        <time>2022-05-22 15:07:39</time>
      </trkpt>
      <trkpt lat="42.36078" lon="1.2948">
        <ele>1377.6</ele>
        <time>2022-05-22 15:07:40</time>
      </trkpt>
      <trkpt lat="42.36077" lon="1.2948">
        <ele>1377.6</ele>
        <time>2022-05-22 15:07:41</time>
      </trkpt>
      <trkpt lat="42.36075" lon="1.29481">
        <ele>1377.8</ele>
        <time>2022-05-22 15:07:42</time>
      </trkpt>
      <trkpt lat="42.36074" lon="1.29481">
        <ele>1377.8</ele>
        <time>2022-05-22 15:07:43</time>
      </trkpt>
      <trkpt lat="42.36072" lon="1.29482">
        <ele>1378</ele>
        <time>2022-05-22 15:07:44</time>
      </trkpt>
      <trkpt lat="42.36071" lon="1.29482">
        <ele>1378.2</ele>
        <time>2022-05-22 15:07:45</time>
      </trkpt>
      <trkpt lat="42.36069" lon="1.29483">
        <ele>1378.2</ele>
        <time>2022-05-22 15:07:46</time>
      </trkpt>
      <trkpt lat="42.36068" lon="1.29483">
        <ele>1378.4</ele>
        <time>2022-05-22 15:07:47</time>
      </trkpt>
      <trkpt lat="42.36066" lon="1.29484">
        <ele>1378.4</ele>
        <time>2022-05-22 15:07:48</time>
      </trkpt>
      <trkpt lat="42.36065" lon="1.29484">
        <ele>1378.6</ele>
        <time>2022-05-22 15:07:49</time>
      </trkpt>
      <trkpt lat="42.36064" lon="1.29485">
        <ele>1378.8</ele>
        <time>2022-05-22 15:07:50</time>
      </trkpt>
      <trkpt lat="42.36062" lon="1.29486">
        <ele>1378.8</ele>
        <time>2022-05-22 15:07:51</time>
      </trkpt>
      <trkpt lat="42.3606" lon="1.29487">
        <ele>1379</ele>
        <time>2022-05-22 15:07:52</time>
      </trkpt>
      <trkpt lat="42.36059" lon="1.29487">
        <ele>1379.2</ele>
        <time>2022-05-22 15:07:53</time>
      </trkpt>
      <trkpt lat="42.36058" lon="1.29488">
        <ele>1379.2</ele>
        <time>2022-05-22 15:07:54</time>
      </trkpt>
      <trkpt lat="42.36056" lon="1.29489">
        <ele>1379.4</ele>
        <time>2022-05-22 15:07:55</time>
      </trkpt>
      <trkpt lat="42.36054" lon="1.2949">
        <ele>1379.4</ele>
        <time>2022-05-22 15:07:56</time>
      </trkpt>
      <trkpt lat="42.36053" lon="1.2949">
        <ele>1379.6</ele>
        <time>2022-05-22 15:07:57</time>
      </trkpt>
      <trkpt lat="42.36051" lon="1.29491">
        <ele>1379.8</ele>
        <time>2022-05-22 15:07:58</time>
      </trkpt>
      <trkpt lat="42.36049" lon="1.29492">
        <ele>1379.8</ele>
        <time>2022-05-22 15:07:59</time>
      </trkpt>
      <trkpt lat="42.36048" lon="1.29493">
        <ele>1380</ele>
        <time>2022-05-22 15:08:00</time>
      </trkpt>
      <trkpt lat="42.36046" lon="1.29494">
        <ele>1380.2</ele>
        <time>2022-05-22 15:08:01</time>
      </trkpt>
      <trkpt lat="42.36045" lon="1.29495">
        <ele>1380.2</ele>
        <time>2022-05-22 15:08:02</time>
      </trkpt>
      <trkpt lat="42.36043" lon="1.29495">
        <ele>1380.4</ele>
        <time>2022-05-22 15:08:03</time>
      </trkpt>
      <trkpt lat="42.36042" lon="1.29495">
        <ele>1380.6</ele>
        <time>2022-05-22 15:08:04</time>
      </trkpt>
      <trkpt lat="42.3604" lon="1.29496">
        <ele>1380.6</ele>
        <time>2022-05-22 15:08:05</time>
      </trkpt>
      <trkpt lat="42.36039" lon="1.29497">
        <ele>1380.8</ele>
        <time>2022-05-22 15:08:06</time>
      </trkpt>
      <trkpt lat="42.36037" lon="1.29497">
        <ele>1381</ele>
        <time>2022-05-22 15:08:07</time>
      </trkpt>
      <trkpt lat="42.36036" lon="1.29498">
        <ele>1381</ele>
        <time>2022-05-22 15:08:08</time>
      </trkpt>
      <trkpt lat="42.36035" lon="1.29498">
        <ele>1381.2</ele>
        <time>2022-05-22 15:08:09</time>
      </trkpt>
      <trkpt lat="42.36033" lon="1.29499">
        <ele>1381.4</ele>
        <time>2022-05-22 15:08:10</time>
      </trkpt>
      <trkpt lat="42.36032" lon="1.295">
        <ele>1381.4</ele>
        <time>2022-05-22 15:08:11</time>
      </trkpt>
      <trkpt lat="42.3603" lon="1.295">
        <ele>1381.6</ele>
        <time>2022-05-22 15:08:12</time>
      </trkpt>
      <trkpt lat="42.36029" lon="1.29501">
        <ele>1381.8</ele>
        <time>2022-05-22 15:08:13</time>
      </trkpt>
      <trkpt lat="42.36027" lon="1.29501">
        <ele>1382</ele>
        <time>2022-05-22 15:08:14</time>
      </trkpt>
      <trkpt lat="42.36025" lon="1.29502">
        <ele>1382</ele>
        <time>2022-05-22 15:08:15</time>
      </trkpt>
      <trkpt lat="42.36024" lon="1.29502">
        <ele>1382.2</ele>
        <time>2022-05-22 15:08:16</time>
      </trkpt>
      <trkpt lat="42.36022" lon="1.29502">
        <ele>1382.2</ele>
        <time>2022-05-22 15:08:17</time>
      </trkpt>
      <trkpt lat="42.3602" lon="1.29503">
        <ele>1382.4</ele>
        <time>2022-05-22 15:08:18</time>
      </trkpt>
      <trkpt lat="42.36019" lon="1.29503">
        <ele>1382.6</ele>
        <time>2022-05-22 15:08:19</time>
      </trkpt>
      <trkpt lat="42.36017" lon="1.29504">
        <ele>1382.8</ele>
        <time>2022-05-22 15:08:20</time>
      </trkpt>
      <trkpt lat="42.36015" lon="1.29504">
        <ele>1383</ele>
        <time>2022-05-22 15:08:21</time>
      </trkpt>
      <trkpt lat="42.36014" lon="1.29504">
        <ele>1383.2</ele>
        <time>2022-05-22 15:08:22</time>
      </trkpt>
      <trkpt lat="42.36012" lon="1.29504">
        <ele>1383.4</ele>
        <time>2022-05-22 15:08:23</time>
      </trkpt>
      <trkpt lat="42.3601" lon="1.29505">
        <ele>1383.6</ele>
        <time>2022-05-22 15:08:24</time>
      </trkpt>
      <trkpt lat="42.36008" lon="1.29505">
        <ele>1383.6</ele>
        <time>2022-05-22 15:08:25</time>
      </trkpt>
      <trkpt lat="42.36007" lon="1.29505">
        <ele>1383.8</ele>
        <time>2022-05-22 15:08:26</time>
      </trkpt>
      <trkpt lat="42.36005" lon="1.29505">
        <ele>1384</ele>
        <time>2022-05-22 15:08:27</time>
      </trkpt>
      <trkpt lat="42.36003" lon="1.29505">
        <ele>1384.2</ele>
        <time>2022-05-22 15:08:28</time>
      </trkpt>
      <trkpt lat="42.36002" lon="1.29506">
        <ele>1384.4</ele>
        <time>2022-05-22 15:08:29</time>
      </trkpt>
      <trkpt lat="42.36" lon="1.29506">
        <ele>1384.4</ele>
        <time>2022-05-22 15:08:30</time>
      </trkpt>
      <trkpt lat="42.35998" lon="1.29506">
        <ele>1384.6</ele>
        <time>2022-05-22 15:08:31</time>
      </trkpt>
      <trkpt lat="42.35997" lon="1.29505">
        <ele>1384.8</ele>
        <time>2022-05-22 15:08:32</time>
      </trkpt>
      <trkpt lat="42.35995" lon="1.29505">
        <ele>1385</ele>
        <time>2022-05-22 15:08:33</time>
      </trkpt>
      <trkpt lat="42.35993" lon="1.29505">
        <ele>1385.2</ele>
        <time>2022-05-22 15:08:34</time>
      </trkpt>
      <trkpt lat="42.35991" lon="1.29505">
        <ele>1385.2</ele>
        <time>2022-05-22 15:08:35</time>
      </trkpt>
      <trkpt lat="42.3599" lon="1.29505">
        <ele>1385.4</ele>
        <time>2022-05-22 15:08:36</time>
      </trkpt>
      <trkpt lat="42.35987" lon="1.29505">
        <ele>1385.6</ele>
        <time>2022-05-22 15:08:37</time>
      </trkpt>
      <trkpt lat="42.35986" lon="1.29505">
        <ele>1385.8</ele>
        <time>2022-05-22 15:08:38</time>
      </trkpt>
      <trkpt lat="42.35984" lon="1.29505">
        <ele>1385.8</ele>
        <time>2022-05-22 15:08:39</time>
      </trkpt>
      <trkpt lat="42.35983" lon="1.29504">
        <ele>1386</ele>
        <time>2022-05-22 15:08:40</time>
      </trkpt>
      <trkpt lat="42.35981" lon="1.29503">
        <ele>1386.2</ele>
        <time>2022-05-22 15:08:41</time>
      </trkpt>
      <trkpt lat="42.3598" lon="1.29502">
        <ele>1386.2</ele>
        <time>2022-05-22 15:08:42</time>
      </trkpt>
      <trkpt lat="42.35978" lon="1.29502">
        <ele>1386.4</ele>
        <time>2022-05-22 15:08:43</time>
      </trkpt>
      <trkpt lat="42.35976" lon="1.29502">
        <ele>1386.6</ele>
        <time>2022-05-22 15:08:44</time>
      </trkpt>
      <trkpt lat="42.35975" lon="1.29502">
        <ele>1386.6</ele>
        <time>2022-05-22 15:08:45</time>
      </trkpt>
      <trkpt lat="42.35973" lon="1.29501">
        <ele>1386.8</ele>
        <time>2022-05-22 15:08:46</time>
      </trkpt>
      <trkpt lat="42.35972" lon="1.29501">
        <ele>1386.8</ele>
        <time>2022-05-22 15:08:47</time>
      </trkpt>
      <trkpt lat="42.3597" lon="1.295">
        <ele>1387</ele>
        <time>2022-05-22 15:08:48</time>
      </trkpt>
      <trkpt lat="42.35968" lon="1.295">
        <ele>1387.2</ele>
        <time>2022-05-22 15:08:49</time>
      </trkpt>
      <trkpt lat="42.35967" lon="1.295">
        <ele>1387.2</ele>
        <time>2022-05-22 15:08:50</time>
      </trkpt>
      <trkpt lat="42.35965" lon="1.295">
        <ele>1387.4</ele>
        <time>2022-05-22 15:08:51</time>
      </trkpt>
      <trkpt lat="42.35964" lon="1.295">
        <ele>1387.6</ele>
        <time>2022-05-22 15:08:52</time>
      </trkpt>
      <trkpt lat="42.35962" lon="1.295">
        <ele>1387.6</ele>
        <time>2022-05-22 15:08:53</time>
      </trkpt>
      <trkpt lat="42.3596" lon="1.29499">
        <ele>1387.8</ele>
        <time>2022-05-22 15:08:54</time>
      </trkpt>
      <trkpt lat="42.35959" lon="1.29499">
        <ele>1388</ele>
        <time>2022-05-22 15:08:55</time>
      </trkpt>
      <trkpt lat="42.35957" lon="1.29499">
        <ele>1388</ele>
        <time>2022-05-22 15:08:56</time>
      </trkpt>
      <trkpt lat="42.35955" lon="1.29498">
        <ele>1388.2</ele>
        <time>2022-05-22 15:08:57</time>
      </trkpt>
      <trkpt lat="42.35953" lon="1.29498">
        <ele>1388.4</ele>
        <time>2022-05-22 15:08:58</time>
      </trkpt>
      <trkpt lat="42.35952" lon="1.29498">
        <ele>1388.6</ele>
        <time>2022-05-22 15:08:59</time>
      </trkpt>
      <trkpt lat="42.3595" lon="1.29497">
        <ele>1388.6</ele>
        <time>2022-05-22 15:09:00</time>
      </trkpt>
      <trkpt lat="42.35948" lon="1.29497">
        <ele>1388.8</ele>
        <time>2022-05-22 15:09:01</time>
      </trkpt>
      <trkpt lat="42.35947" lon="1.29498">
        <ele>1388.8</ele>
        <time>2022-05-22 15:09:02</time>
      </trkpt>
      <trkpt lat="42.35945" lon="1.29498">
        <ele>1389</ele>
        <time>2022-05-22 15:09:03</time>
      </trkpt>
      <trkpt lat="42.35943" lon="1.29497">
        <ele>1389.2</ele>
        <time>2022-05-22 15:09:04</time>
      </trkpt>
      <trkpt lat="42.35941" lon="1.29497">
        <ele>1389.4</ele>
        <time>2022-05-22 15:09:05</time>
      </trkpt>
      <trkpt lat="42.3594" lon="1.29497">
        <ele>1389.4</ele>
        <time>2022-05-22 15:09:06</time>
      </trkpt>
      <trkpt lat="42.35938" lon="1.29496">
        <ele>1389.6</ele>
        <time>2022-05-22 15:09:07</time>
      </trkpt>
      <trkpt lat="42.35937" lon="1.29496">
        <ele>1389.8</ele>
        <time>2022-05-22 15:09:08</time>
      </trkpt>
      <trkpt lat="42.35935" lon="1.29495">
        <ele>1390</ele>
        <time>2022-05-22 15:09:09</time>
      </trkpt>
      <trkpt lat="42.35933" lon="1.29494">
        <ele>1390</ele>
        <time>2022-05-22 15:09:10</time>
      </trkpt>
      <trkpt lat="42.35931" lon="1.29494">
        <ele>1390.2</ele>
        <time>2022-05-22 15:09:11</time>
      </trkpt>
      <trkpt lat="42.3593" lon="1.29493">
        <ele>1390.2</ele>
        <time>2022-05-22 15:09:12</time>
      </trkpt>
      <trkpt lat="42.35928" lon="1.29493">
        <ele>1390.4</ele>
        <time>2022-05-22 15:09:13</time>
      </trkpt>
      <trkpt lat="42.35926" lon="1.29493">
        <ele>1390.6</ele>
        <time>2022-05-22 15:09:14</time>
      </trkpt>
      <trkpt lat="42.35924" lon="1.29493">
        <ele>1390.6</ele>
        <time>2022-05-22 15:09:15</time>
      </trkpt>
      <trkpt lat="42.35923" lon="1.29493">
        <ele>1390.8</ele>
        <time>2022-05-22 15:09:16</time>
      </trkpt>
      <trkpt lat="42.35921" lon="1.29492">
        <ele>1391</ele>
        <time>2022-05-22 15:09:17</time>
      </trkpt>
      <trkpt lat="42.35919" lon="1.29492">
        <ele>1391</ele>
        <time>2022-05-22 15:09:18</time>
      </trkpt>
      <trkpt lat="42.35917" lon="1.29491">
        <ele>1391.2</ele>
        <time>2022-05-22 15:09:19</time>
      </trkpt>
      <trkpt lat="42.35916" lon="1.29491">
        <ele>1391.4</ele>
        <time>2022-05-22 15:09:20</time>
      </trkpt>
      <trkpt lat="42.35914" lon="1.29491">
        <ele>1391.4</ele>
        <time>2022-05-22 15:09:21</time>
      </trkpt>
      <trkpt lat="42.35912" lon="1.2949">
        <ele>1391.6</ele>
        <time>2022-05-22 15:09:22</time>
      </trkpt>
      <trkpt lat="42.3591" lon="1.2949">
        <ele>1391.8</ele>
        <time>2022-05-22 15:09:23</time>
      </trkpt>
      <trkpt lat="42.35908" lon="1.29489">
        <ele>1391.8</ele>
        <time>2022-05-22 15:09:24</time>
      </trkpt>
      <trkpt lat="42.35906" lon="1.29489">
        <ele>1392</ele>
        <time>2022-05-22 15:09:25</time>
      </trkpt>
      <trkpt lat="42.35904" lon="1.29489">
        <ele>1392.2</ele>
        <time>2022-05-22 15:09:26</time>
      </trkpt>
      <trkpt lat="42.35902" lon="1.29489">
        <ele>1392.4</ele>
        <time>2022-05-22 15:09:27</time>
      </trkpt>
      <trkpt lat="42.359" lon="1.29489">
        <ele>1392.4</ele>
        <time>2022-05-22 15:09:28</time>
      </trkpt>
      <trkpt lat="42.35898" lon="1.29489">
        <ele>1392.6</ele>
        <time>2022-05-22 15:09:29</time>
      </trkpt>
      <trkpt lat="42.35896" lon="1.2949">
        <ele>1392.8</ele>
        <time>2022-05-22 15:09:30</time>
      </trkpt>
      <trkpt lat="42.35894" lon="1.2949">
        <ele>1392.8</ele>
        <time>2022-05-22 15:09:31</time>
      </trkpt>
      <trkpt lat="42.35892" lon="1.2949">
        <ele>1393</ele>
        <time>2022-05-22 15:09:32</time>
      </trkpt>
      <trkpt lat="42.3589" lon="1.2949">
        <ele>1393.2</ele>
        <time>2022-05-22 15:09:33</time>
      </trkpt>
      <trkpt lat="42.35887" lon="1.2949">
        <ele>1393.4</ele>
        <time>2022-05-22 15:09:34</time>
      </trkpt>
      <trkpt lat="42.35885" lon="1.2949">
        <ele>1393.4</ele>
        <time>2022-05-22 15:09:35</time>
      </trkpt>
      <trkpt lat="42.35882" lon="1.2949">
        <ele>1393.6</ele>
        <time>2022-05-22 15:09:36</time>
      </trkpt>
      <trkpt lat="42.3588" lon="1.2949">
        <ele>1393.8</ele>
        <time>2022-05-22 15:09:37</time>
      </trkpt>
      <trkpt lat="42.35878" lon="1.2949">
        <ele>1393.8</ele>
        <time>2022-05-22 15:09:38</time>
      </trkpt>
      <trkpt lat="42.35876" lon="1.2949">
        <ele>1394</ele>
        <time>2022-05-22 15:09:39</time>
      </trkpt>
      <trkpt lat="42.35874" lon="1.2949">
        <ele>1394.2</ele>
        <time>2022-05-22 15:09:40</time>
      </trkpt>
      <trkpt lat="42.35872" lon="1.29491">
        <ele>1394.4</ele>
        <time>2022-05-22 15:09:41</time>
      </trkpt>
      <trkpt lat="42.3587" lon="1.29491">
        <ele>1394.4</ele>
        <time>2022-05-22 15:09:42</time>
      </trkpt>
      <trkpt lat="42.35868" lon="1.29491">
        <ele>1394.6</ele>
        <time>2022-05-22 15:09:43</time>
      </trkpt>
      <trkpt lat="42.35866" lon="1.29491">
        <ele>1394.8</ele>
        <time>2022-05-22 15:09:44</time>
      </trkpt>
      <trkpt lat="42.35864" lon="1.29492">
        <ele>1395</ele>
        <time>2022-05-22 15:09:45</time>
      </trkpt>
      <trkpt lat="42.35861" lon="1.29492">
        <ele>1395.2</ele>
        <time>2022-05-22 15:09:46</time>
      </trkpt>
      <trkpt lat="42.35859" lon="1.29492">
        <ele>1395.2</ele>
        <time>2022-05-22 15:09:47</time>
      </trkpt>
      <trkpt lat="42.35857" lon="1.29492">
        <ele>1395.4</ele>
        <time>2022-05-22 15:09:48</time>
      </trkpt>
      <trkpt lat="42.35855" lon="1.29492">
        <ele>1395.6</ele>
        <time>2022-05-22 15:09:49</time>
      </trkpt>
      <trkpt lat="42.35853" lon="1.29492">
        <ele>1395.6</ele>
        <time>2022-05-22 15:09:50</time>
      </trkpt>
      <trkpt lat="42.35851" lon="1.29492">
        <ele>1395.8</ele>
        <time>2022-05-22 15:09:51</time>
      </trkpt>
      <trkpt lat="42.35849" lon="1.29491">
        <ele>1395.8</ele>
        <time>2022-05-22 15:09:52</time>
      </trkpt>
      <trkpt lat="42.35847" lon="1.29491">
        <ele>1396</ele>
        <time>2022-05-22 15:09:53</time>
      </trkpt>
      <trkpt lat="42.35845" lon="1.29491">
        <ele>1396</ele>
        <time>2022-05-22 15:09:54</time>
      </trkpt>
      <trkpt lat="42.35843" lon="1.2949">
        <ele>1396.2</ele>
        <time>2022-05-22 15:09:55</time>
      </trkpt>
      <trkpt lat="42.3584" lon="1.2949">
        <ele>1396.2</ele>
        <time>2022-05-22 15:09:56</time>
      </trkpt>
      <trkpt lat="42.35839" lon="1.29489">
        <ele>1396.4</ele>
        <time>2022-05-22 15:09:57</time>
      </trkpt>
      <trkpt lat="42.35837" lon="1.29488">
        <ele>1396.6</ele>
        <time>2022-05-22 15:09:58</time>
      </trkpt>
      <trkpt lat="42.35835" lon="1.29486">
        <ele>1396.6</ele>
        <time>2022-05-22 15:09:59</time>
      </trkpt>
      <trkpt lat="42.35833" lon="1.29484">
        <ele>1396.8</ele>
        <time>2022-05-22 15:10:00</time>
      </trkpt>
      <trkpt lat="42.35832" lon="1.29482">
        <ele>1396.8</ele>
        <time>2022-05-22 15:10:01</time>
      </trkpt>
      <trkpt lat="42.35831" lon="1.2948">
        <ele>1397</ele>
        <time>2022-05-22 15:10:02</time>
      </trkpt>
      <trkpt lat="42.3583" lon="1.29478">
        <ele>1397</ele>
        <time>2022-05-22 15:10:03</time>
      </trkpt>
      <trkpt lat="42.35829" lon="1.29475">
        <ele>1397.2</ele>
        <time>2022-05-22 15:10:04</time>
      </trkpt>
      <trkpt lat="42.35829" lon="1.29473">
        <ele>1397.2</ele>
        <time>2022-05-22 15:10:05</time>
      </trkpt>
      <trkpt lat="42.35829" lon="1.2947">
        <ele>1397.4</ele>
        <time>2022-05-22 15:10:06</time>
      </trkpt>
      <trkpt lat="42.35829" lon="1.29468">
        <ele>1397.4</ele>
        <time>2022-05-22 15:10:07</time>
      </trkpt>
      <trkpt lat="42.3583" lon="1.29465">
        <ele>1397.6</ele>
        <time>2022-05-22 15:10:08</time>
      </trkpt>
      <trkpt lat="42.35831" lon="1.29463">
        <ele>1397.6</ele>
        <time>2022-05-22 15:10:09</time>
      </trkpt>
      <trkpt lat="42.35832" lon="1.29461">
        <ele>1397.8</ele>
        <time>2022-05-22 15:10:10</time>
      </trkpt>
      <trkpt lat="42.35834" lon="1.29459">
        <ele>1398</ele>
        <time>2022-05-22 15:10:11</time>
      </trkpt>
      <trkpt lat="42.35835" lon="1.29457">
        <ele>1398</ele>
        <time>2022-05-22 15:10:12</time>
      </trkpt>
      <trkpt lat="42.35837" lon="1.29456">
        <ele>1398.2</ele>
        <time>2022-05-22 15:10:13</time>
      </trkpt>
      <trkpt lat="42.35839" lon="1.29455">
        <ele>1398.4</ele>
        <time>2022-05-22 15:10:14</time>
      </trkpt>
      <trkpt lat="42.35841" lon="1.29454">
        <ele>1398.6</ele>
        <time>2022-05-22 15:10:15</time>
      </trkpt>
      <trkpt lat="42.35842" lon="1.29453">
        <ele>1398.6</ele>
        <time>2022-05-22 15:10:16</time>
      </trkpt>
      <trkpt lat="42.35844" lon="1.29452">
        <ele>1398.8</ele>
        <time>2022-05-22 15:10:17</time>
      </trkpt>
      <trkpt lat="42.35846" lon="1.29451">
        <ele>1399</ele>
        <time>2022-05-22 15:10:18</time>
      </trkpt>
      <trkpt lat="42.35848" lon="1.29451">
        <ele>1399</ele>
        <time>2022-05-22 15:10:19</time>
      </trkpt>
      <trkpt lat="42.3585" lon="1.29451">
        <ele>1399.2</ele>
        <time>2022-05-22 15:10:20</time>
      </trkpt>
      <trkpt lat="42.35852" lon="1.29451">
        <ele>1399.2</ele>
        <time>2022-05-22 15:10:21</time>
      </trkpt>
      <trkpt lat="42.35854" lon="1.29451">
        <ele>1399.4</ele>
        <time>2022-05-22 15:10:22</time>
      </trkpt>
      <trkpt lat="42.35856" lon="1.29451">
        <ele>1399.4</ele>
        <time>2022-05-22 15:10:23</time>
      </trkpt>
      <trkpt lat="42.35857" lon="1.29451">
        <ele>1399.6</ele>
        <time>2022-05-22 15:10:24</time>
      </trkpt>
      <trkpt lat="42.35859" lon="1.2945">
        <ele>1399.6</ele>
        <time>2022-05-22 15:10:25</time>
      </trkpt>
      <trkpt lat="42.35861" lon="1.2945">
        <ele>1399.8</ele>
        <time>2022-05-22 15:10:26</time>
      </trkpt>
      <trkpt lat="42.35863" lon="1.2945">
        <ele>1400</ele>
        <time>2022-05-22 15:10:27</time>
      </trkpt>
      <trkpt lat="42.35864" lon="1.29449">
        <ele>1400</ele>
        <time>2022-05-22 15:10:28</time>
      </trkpt>
      <trkpt lat="42.35867" lon="1.29449">
        <ele>1400.2</ele>
        <time>2022-05-22 15:10:29</time>
      </trkpt>
      <trkpt lat="42.35868" lon="1.29449">
        <ele>1400.2</ele>
        <time>2022-05-22 15:10:30</time>
      </trkpt>
      <trkpt lat="42.3587" lon="1.29449">
        <ele>1400.4</ele>
        <time>2022-05-22 15:10:31</time>
      </trkpt>
      <trkpt lat="42.35872" lon="1.29448">
        <ele>1400.4</ele>
        <time>2022-05-22 15:10:32</time>
      </trkpt>
      <trkpt lat="42.35874" lon="1.29448">
        <ele>1400.4</ele>
        <time>2022-05-22 15:10:33</time>
      </trkpt>
      <trkpt lat="42.35875" lon="1.29448">
        <ele>1400.6</ele>
        <time>2022-05-22 15:10:34</time>
      </trkpt>
      <trkpt lat="42.35877" lon="1.29447">
        <ele>1400.8</ele>
        <time>2022-05-22 15:10:35</time>
      </trkpt>
      <trkpt lat="42.35879" lon="1.29447">
        <ele>1400.8</ele>
        <time>2022-05-22 15:10:36</time>
      </trkpt>
      <trkpt lat="42.35881" lon="1.29447">
        <ele>1401</ele>
        <time>2022-05-22 15:10:37</time>
      </trkpt>
      <trkpt lat="42.35883" lon="1.29447">
        <ele>1401</ele>
        <time>2022-05-22 15:10:38</time>
      </trkpt>
      <trkpt lat="42.35885" lon="1.29447">
        <ele>1401.2</ele>
        <time>2022-05-22 15:10:39</time>
      </trkpt>
      <trkpt lat="42.35886" lon="1.29446">
        <ele>1401.4</ele>
        <time>2022-05-22 15:10:40</time>
      </trkpt>
      <trkpt lat="42.35887" lon="1.29446">
        <ele>1401.4</ele>
        <time>2022-05-22 15:10:41</time>
      </trkpt>
      <trkpt lat="42.35889" lon="1.29445">
        <ele>1401.6</ele>
        <time>2022-05-22 15:10:42</time>
      </trkpt>
      <trkpt lat="42.35891" lon="1.29445">
        <ele>1402</ele>
        <time>2022-05-22 15:10:43</time>
      </trkpt>
      <trkpt lat="42.35893" lon="1.29445">
        <ele>1402</ele>
        <time>2022-05-22 15:10:44</time>
      </trkpt>
      <trkpt lat="42.35895" lon="1.29444">
        <ele>1402.2</ele>
        <time>2022-05-22 15:10:45</time>
      </trkpt>
      <trkpt lat="42.35897" lon="1.29444">
        <ele>1402.4</ele>
        <time>2022-05-22 15:10:46</time>
      </trkpt>
      <trkpt lat="42.35899" lon="1.29443">
        <ele>1402.6</ele>
        <time>2022-05-22 15:10:47</time>
      </trkpt>
      <trkpt lat="42.359" lon="1.29443">
        <ele>1402.6</ele>
        <time>2022-05-22 15:10:48</time>
      </trkpt>
      <trkpt lat="42.35901" lon="1.29443">
        <ele>1402.8</ele>
        <time>2022-05-22 15:10:49</time>
      </trkpt>
      <trkpt lat="42.35903" lon="1.29442">
        <ele>1402.8</ele>
        <time>2022-05-22 15:10:50</time>
      </trkpt>
      <trkpt lat="42.35905" lon="1.29442">
        <ele>1403</ele>
        <time>2022-05-22 15:10:51</time>
      </trkpt>
      <trkpt lat="42.35907" lon="1.29441">
        <ele>1403.2</ele>
        <time>2022-05-22 15:10:52</time>
      </trkpt>
      <trkpt lat="42.35908" lon="1.2944">
        <ele>1403.4</ele>
        <time>2022-05-22 15:10:53</time>
      </trkpt>
      <trkpt lat="42.35909" lon="1.29438">
        <ele>1403.4</ele>
        <time>2022-05-22 15:10:54</time>
      </trkpt>
      <trkpt lat="42.35911" lon="1.29437">
        <ele>1403.4</ele>
        <time>2022-05-22 15:10:55</time>
      </trkpt>
      <trkpt lat="42.35913" lon="1.29435">
        <ele>1403.4</ele>
        <time>2022-05-22 15:10:56</time>
      </trkpt>
      <trkpt lat="42.35915" lon="1.29434">
        <ele>1403.4</ele>
        <time>2022-05-22 15:10:57</time>
      </trkpt>
      <trkpt lat="42.35916" lon="1.29432">
        <ele>1403.4</ele>
        <time>2022-05-22 15:10:58</time>
      </trkpt>
      <trkpt lat="42.35918" lon="1.29431">
        <ele>1403.6</ele>
        <time>2022-05-22 15:10:59</time>
      </trkpt>
      <trkpt lat="42.3592" lon="1.29429">
        <ele>1403.6</ele>
        <time>2022-05-22 15:11:00</time>
      </trkpt>
      <trkpt lat="42.35922" lon="1.29428">
        <ele>1403.8</ele>
        <time>2022-05-22 15:11:01</time>
      </trkpt>
      <trkpt lat="42.35924" lon="1.29426">
        <ele>1404</ele>
        <time>2022-05-22 15:11:02</time>
      </trkpt>
      <trkpt lat="42.35927" lon="1.29425">
        <ele>1404</ele>
        <time>2022-05-22 15:11:03</time>
      </trkpt>
      <trkpt lat="42.35928" lon="1.29424">
        <ele>1404.2</ele>
        <time>2022-05-22 15:11:04</time>
      </trkpt>
      <trkpt lat="42.3593" lon="1.29423">
        <ele>1404.4</ele>
        <time>2022-05-22 15:11:05</time>
      </trkpt>
      <trkpt lat="42.35932" lon="1.29422">
        <ele>1404.6</ele>
        <time>2022-05-22 15:11:06</time>
      </trkpt>
      <trkpt lat="42.35935" lon="1.29421">
        <ele>1404.8</ele>
        <time>2022-05-22 15:11:07</time>
      </trkpt>
      <trkpt lat="42.35936" lon="1.29419">
        <ele>1404.8</ele>
        <time>2022-05-22 15:11:08</time>
      </trkpt>
      <trkpt lat="42.35938" lon="1.29417">
        <ele>1405</ele>
        <time>2022-05-22 15:11:09</time>
      </trkpt>
      <trkpt lat="42.3594" lon="1.29416">
        <ele>1405.2</ele>
        <time>2022-05-22 15:11:10</time>
      </trkpt>
      <trkpt lat="42.35941" lon="1.29414">
        <ele>1405.4</ele>
        <time>2022-05-22 15:11:11</time>
      </trkpt>
      <trkpt lat="42.35943" lon="1.29413">
        <ele>1405.6</ele>
        <time>2022-05-22 15:11:12</time>
      </trkpt>
      <trkpt lat="42.35945" lon="1.29411">
        <ele>1405.8</ele>
        <time>2022-05-22 15:11:13</time>
      </trkpt>
      <trkpt lat="42.35947" lon="1.2941">
        <ele>1406</ele>
        <time>2022-05-22 15:11:14</time>
      </trkpt>
      <trkpt lat="42.35949" lon="1.29409">
        <ele>1406</ele>
        <time>2022-05-22 15:11:15</time>
      </trkpt>
      <trkpt lat="42.35951" lon="1.29408">
        <ele>1406.2</ele>
        <time>2022-05-22 15:11:16</time>
      </trkpt>
      <trkpt lat="42.35953" lon="1.29406">
        <ele>1406.4</ele>
        <time>2022-05-22 15:11:17</time>
      </trkpt>
      <trkpt lat="42.35955" lon="1.29405">
        <ele>1406.4</ele>
        <time>2022-05-22 15:11:18</time>
      </trkpt>
      <trkpt lat="42.35957" lon="1.29404">
        <ele>1406.6</ele>
        <time>2022-05-22 15:11:19</time>
      </trkpt>
      <trkpt lat="42.35959" lon="1.29402">
        <ele>1406.8</ele>
        <time>2022-05-22 15:11:20</time>
      </trkpt>
      <trkpt lat="42.35961" lon="1.29401">
        <ele>1406.8</ele>
        <time>2022-05-22 15:11:21</time>
      </trkpt>
      <trkpt lat="42.35963" lon="1.294">
        <ele>1407</ele>
        <time>2022-05-22 15:11:22</time>
      </trkpt>
      <trkpt lat="42.35964" lon="1.29399">
        <ele>1407.2</ele>
        <time>2022-05-22 15:11:23</time>
      </trkpt>
      <trkpt lat="42.35966" lon="1.29397">
        <ele>1407.2</ele>
        <time>2022-05-22 15:11:24</time>
      </trkpt>
      <trkpt lat="42.35968" lon="1.29396">
        <ele>1407.4</ele>
        <time>2022-05-22 15:11:25</time>
      </trkpt>
      <trkpt lat="42.35971" lon="1.29395">
        <ele>1407.6</ele>
        <time>2022-05-22 15:11:26</time>
      </trkpt>
      <trkpt lat="42.35973" lon="1.29393">
        <ele>1407.6</ele>
        <time>2022-05-22 15:11:27</time>
      </trkpt>
      <trkpt lat="42.35975" lon="1.29392">
        <ele>1407.8</ele>
        <time>2022-05-22 15:11:28</time>
      </trkpt>
      <trkpt lat="42.35977" lon="1.2939">
        <ele>1408</ele>
        <time>2022-05-22 15:11:29</time>
      </trkpt>
      <trkpt lat="42.35978" lon="1.29389">
        <ele>1408</ele>
        <time>2022-05-22 15:11:30</time>
      </trkpt>
      <trkpt lat="42.3598" lon="1.29388">
        <ele>1408.2</ele>
        <time>2022-05-22 15:11:31</time>
      </trkpt>
      <trkpt lat="42.35982" lon="1.29387">
        <ele>1408.4</ele>
        <time>2022-05-22 15:11:32</time>
      </trkpt>
      <trkpt lat="42.35984" lon="1.29386">
        <ele>1408.6</ele>
        <time>2022-05-22 15:11:33</time>
      </trkpt>
      <trkpt lat="42.35986" lon="1.29386">
        <ele>1408.8</ele>
        <time>2022-05-22 15:11:34</time>
      </trkpt>
      <trkpt lat="42.35989" lon="1.29385">
        <ele>1409</ele>
        <time>2022-05-22 15:11:35</time>
      </trkpt>
      <trkpt lat="42.35991" lon="1.29384">
        <ele>1409.2</ele>
        <time>2022-05-22 15:11:36</time>
      </trkpt>
      <trkpt lat="42.35993" lon="1.29383">
        <ele>1409.4</ele>
        <time>2022-05-22 15:11:37</time>
      </trkpt>
      <trkpt lat="42.35995" lon="1.29383">
        <ele>1409.6</ele>
        <time>2022-05-22 15:11:38</time>
      </trkpt>
      <trkpt lat="42.35997" lon="1.29382">
        <ele>1409.6</ele>
        <time>2022-05-22 15:11:39</time>
      </trkpt>
      <trkpt lat="42.35999" lon="1.29382">
        <ele>1409.8</ele>
        <time>2022-05-22 15:11:40</time>
      </trkpt>
      <trkpt lat="42.36001" lon="1.29381">
        <ele>1410</ele>
        <time>2022-05-22 15:11:41</time>
      </trkpt>
      <trkpt lat="42.36003" lon="1.29381">
        <ele>1410.2</ele>
        <time>2022-05-22 15:11:42</time>
      </trkpt>
      <trkpt lat="42.36005" lon="1.29381">
        <ele>1410.2</ele>
        <time>2022-05-22 15:11:43</time>
      </trkpt>
      <trkpt lat="42.36006" lon="1.29381">
        <ele>1410.4</ele>
        <time>2022-05-22 15:11:44</time>
      </trkpt>
      <trkpt lat="42.36008" lon="1.2938">
        <ele>1410.6</ele>
        <time>2022-05-22 15:11:45</time>
      </trkpt>
      <trkpt lat="42.3601" lon="1.2938">
        <ele>1410.8</ele>
        <time>2022-05-22 15:11:46</time>
      </trkpt>
      <trkpt lat="42.36011" lon="1.29379">
        <ele>1411</ele>
        <time>2022-05-22 15:11:47</time>
      </trkpt>
      <trkpt lat="42.36013" lon="1.29379">
        <ele>1411</ele>
        <time>2022-05-22 15:11:48</time>
      </trkpt>
      <trkpt lat="42.36014" lon="1.29379">
        <ele>1411.2</ele>
        <time>2022-05-22 15:11:49</time>
      </trkpt>
      <trkpt lat="42.36016" lon="1.29379">
        <ele>1411.4</ele>
        <time>2022-05-22 15:11:50</time>
      </trkpt>
      <trkpt lat="42.36018" lon="1.29379">
        <ele>1411.6</ele>
        <time>2022-05-22 15:11:51</time>
      </trkpt>
      <trkpt lat="42.3602" lon="1.2938">
        <ele>1411.6</ele>
        <time>2022-05-22 15:11:52</time>
      </trkpt>
      <trkpt lat="42.36022" lon="1.2938">
        <ele>1411.8</ele>
        <time>2022-05-22 15:11:53</time>
      </trkpt>
      <trkpt lat="42.36024" lon="1.2938">
        <ele>1412</ele>
        <time>2022-05-22 15:11:54</time>
      </trkpt>
      <trkpt lat="42.36026" lon="1.2938">
        <ele>1412.2</ele>
        <time>2022-05-22 15:11:55</time>
      </trkpt>
      <trkpt lat="42.36028" lon="1.2938">
        <ele>1412.2</ele>
        <time>2022-05-22 15:11:56</time>
      </trkpt>
      <trkpt lat="42.3603" lon="1.2938">
        <ele>1412.4</ele>
        <time>2022-05-22 15:11:57</time>
      </trkpt>
      <trkpt lat="42.36032" lon="1.2938">
        <ele>1412.6</ele>
        <time>2022-05-22 15:11:58</time>
      </trkpt>
      <trkpt lat="42.36034" lon="1.29381">
        <ele>1412.8</ele>
        <time>2022-05-22 15:11:59</time>
      </trkpt>
      <trkpt lat="42.36036" lon="1.2938">
        <ele>1412.8</ele>
        <time>2022-05-22 15:12:00</time>
      </trkpt>
      <trkpt lat="42.36038" lon="1.2938">
        <ele>1413</ele>
        <time>2022-05-22 15:12:01</time>
      </trkpt>
      <trkpt lat="42.36039" lon="1.2938">
        <ele>1413.2</ele>
        <time>2022-05-22 15:12:02</time>
      </trkpt>
      <trkpt lat="42.36041" lon="1.2938">
        <ele>1413.2</ele>
        <time>2022-05-22 15:12:03</time>
      </trkpt>
      <trkpt lat="42.36043" lon="1.2938">
        <ele>1413.4</ele>
        <time>2022-05-22 15:12:04</time>
      </trkpt>
      <trkpt lat="42.36045" lon="1.2938">
        <ele>1413.6</ele>
        <time>2022-05-22 15:12:05</time>
      </trkpt>
      <trkpt lat="42.36047" lon="1.2938">
        <ele>1413.6</ele>
        <time>2022-05-22 15:12:06</time>
      </trkpt>
      <trkpt lat="42.36048" lon="1.29379">
        <ele>1413.8</ele>
        <time>2022-05-22 15:12:07</time>
      </trkpt>
      <trkpt lat="42.3605" lon="1.29379">
        <ele>1414</ele>
        <time>2022-05-22 15:12:08</time>
      </trkpt>
      <trkpt lat="42.36052" lon="1.29379">
        <ele>1414.2</ele>
        <time>2022-05-22 15:12:09</time>
      </trkpt>
      <trkpt lat="42.36054" lon="1.29379">
        <ele>1414.2</ele>
        <time>2022-05-22 15:12:10</time>
      </trkpt>
      <trkpt lat="42.36056" lon="1.29378">
        <ele>1414.4</ele>
        <time>2022-05-22 15:12:11</time>
      </trkpt>
      <trkpt lat="42.36057" lon="1.29378">
        <ele>1414.6</ele>
        <time>2022-05-22 15:12:12</time>
      </trkpt>
      <trkpt lat="42.36059" lon="1.29378">
        <ele>1414.6</ele>
        <time>2022-05-22 15:12:13</time>
      </trkpt>
      <trkpt lat="42.36061" lon="1.29378">
        <ele>1414.8</ele>
        <time>2022-05-22 15:12:14</time>
      </trkpt>
      <trkpt lat="42.36063" lon="1.29378">
        <ele>1414.8</ele>
        <time>2022-05-22 15:12:15</time>
      </trkpt>
      <trkpt lat="42.36065" lon="1.29378">
        <ele>1415</ele>
        <time>2022-05-22 15:12:16</time>
      </trkpt>
      <trkpt lat="42.36067" lon="1.29377">
        <ele>1415</ele>
        <time>2022-05-22 15:12:17</time>
      </trkpt>
      <trkpt lat="42.36069" lon="1.29377">
        <ele>1415.2</ele>
        <time>2022-05-22 15:12:18</time>
      </trkpt>
      <trkpt lat="42.36071" lon="1.29376">
        <ele>1415.4</ele>
        <time>2022-05-22 15:12:19</time>
      </trkpt>
      <trkpt lat="42.36072" lon="1.29375">
        <ele>1415.4</ele>
        <time>2022-05-22 15:12:20</time>
      </trkpt>
      <trkpt lat="42.36074" lon="1.29375">
        <ele>1415.6</ele>
        <time>2022-05-22 15:12:21</time>
      </trkpt>
      <trkpt lat="42.36076" lon="1.29374">
        <ele>1415.6</ele>
        <time>2022-05-22 15:12:22</time>
      </trkpt>
      <trkpt lat="42.36078" lon="1.29373">
        <ele>1415.8</ele>
        <time>2022-05-22 15:12:23</time>
      </trkpt>
      <trkpt lat="42.36079" lon="1.29372">
        <ele>1415.8</ele>
        <time>2022-05-22 15:12:24</time>
      </trkpt>
      <trkpt lat="42.36081" lon="1.29371">
        <ele>1416</ele>
        <time>2022-05-22 15:12:25</time>
      </trkpt>
      <trkpt lat="42.36083" lon="1.2937">
        <ele>1416</ele>
        <time>2022-05-22 15:12:26</time>
      </trkpt>
      <trkpt lat="42.36085" lon="1.29369">
        <ele>1416.2</ele>
        <time>2022-05-22 15:12:27</time>
      </trkpt>
      <trkpt lat="42.36086" lon="1.29368">
        <ele>1416.2</ele>
        <time>2022-05-22 15:12:28</time>
      </trkpt>
      <trkpt lat="42.36088" lon="1.29367">
        <ele>1416.2</ele>
        <time>2022-05-22 15:12:29</time>
      </trkpt>
      <trkpt lat="42.3609" lon="1.29366">
        <ele>1416.4</ele>
        <time>2022-05-22 15:12:30</time>
      </trkpt>
      <trkpt lat="42.36091" lon="1.29365">
        <ele>1416.4</ele>
        <time>2022-05-22 15:12:31</time>
      </trkpt>
      <trkpt lat="42.36093" lon="1.29364">
        <ele>1416.6</ele>
        <time>2022-05-22 15:12:32</time>
      </trkpt>
      <trkpt lat="42.36094" lon="1.29362">
        <ele>1416.6</ele>
        <time>2022-05-22 15:12:33</time>
      </trkpt>
      <trkpt lat="42.36096" lon="1.29361">
        <ele>1416.8</ele>
        <time>2022-05-22 15:12:34</time>
      </trkpt>
      <trkpt lat="42.36097" lon="1.29359">
        <ele>1416.8</ele>
        <time>2022-05-22 15:12:35</time>
      </trkpt>
      <trkpt lat="42.36099" lon="1.29357">
        <ele>1417</ele>
        <time>2022-05-22 15:12:36</time>
      </trkpt>
      <trkpt lat="42.361" lon="1.29355">
        <ele>1417</ele>
        <time>2022-05-22 15:12:37</time>
      </trkpt>
      <trkpt lat="42.361" lon="1.29353">
        <ele>1417</ele>
        <time>2022-05-22 15:12:38</time>
      </trkpt>
      <trkpt lat="42.36101" lon="1.29351">
        <ele>1417.2</ele>
        <time>2022-05-22 15:12:39</time>
      </trkpt>
      <trkpt lat="42.36101" lon="1.29348">
        <ele>1417.2</ele>
        <time>2022-05-22 15:12:40</time>
      </trkpt>
      <trkpt lat="42.36102" lon="1.29345">
        <ele>1417.2</ele>
        <time>2022-05-22 15:12:41</time>
      </trkpt>
      <trkpt lat="42.36102" lon="1.29343">
        <ele>1417.4</ele>
        <time>2022-05-22 15:12:42</time>
      </trkpt>
      <trkpt lat="42.36101" lon="1.2934">
        <ele>1417.4</ele>
        <time>2022-05-22 15:12:43</time>
      </trkpt>
      <trkpt lat="42.36101" lon="1.29337">
        <ele>1417.6</ele>
        <time>2022-05-22 15:12:44</time>
      </trkpt>
      <trkpt lat="42.361" lon="1.29335">
        <ele>1417.6</ele>
        <time>2022-05-22 15:12:45</time>
      </trkpt>
      <trkpt lat="42.36099" lon="1.29332">
        <ele>1417.8</ele>
        <time>2022-05-22 15:12:46</time>
      </trkpt>
      <trkpt lat="42.36098" lon="1.2933">
        <ele>1417.8</ele>
        <time>2022-05-22 15:12:47</time>
      </trkpt>
      <trkpt lat="42.36097" lon="1.29328">
        <ele>1417.8</ele>
        <time>2022-05-22 15:12:48</time>
      </trkpt>
      <trkpt lat="42.36095" lon="1.29326">
        <ele>1418</ele>
        <time>2022-05-22 15:12:49</time>
      </trkpt>
      <trkpt lat="42.36094" lon="1.29325">
        <ele>1418</ele>
        <time>2022-05-22 15:12:50</time>
      </trkpt>
      <trkpt lat="42.36092" lon="1.29324">
        <ele>1418.2</ele>
        <time>2022-05-22 15:12:51</time>
      </trkpt>
      <trkpt lat="42.3609" lon="1.29323">
        <ele>1418.2</ele>
        <time>2022-05-22 15:12:52</time>
      </trkpt>
      <trkpt lat="42.36088" lon="1.29322">
        <ele>1418.2</ele>
        <time>2022-05-22 15:12:53</time>
      </trkpt>
      <trkpt lat="42.36086" lon="1.29321">
        <ele>1418.4</ele>
        <time>2022-05-22 15:12:54</time>
      </trkpt>
      <trkpt lat="42.36084" lon="1.29321">
        <ele>1418.4</ele>
        <time>2022-05-22 15:12:55</time>
      </trkpt>
      <trkpt lat="42.36082" lon="1.29321">
        <ele>1418.4</ele>
        <time>2022-05-22 15:12:56</time>
      </trkpt>
      <trkpt lat="42.3608" lon="1.29321">
        <ele>1418.6</ele>
        <time>2022-05-22 15:12:57</time>
      </trkpt>
      <trkpt lat="42.36078" lon="1.29321">
        <ele>1418.6</ele>
        <time>2022-05-22 15:12:58</time>
      </trkpt>
      <trkpt lat="42.36076" lon="1.29321">
        <ele>1418.8</ele>
        <time>2022-05-22 15:12:59</time>
      </trkpt>
      <trkpt lat="42.36074" lon="1.29321">
        <ele>1418.8</ele>
        <time>2022-05-22 15:13:00</time>
      </trkpt>
      <trkpt lat="42.36072" lon="1.29322">
        <ele>1419</ele>
        <time>2022-05-22 15:13:01</time>
      </trkpt>
      <trkpt lat="42.3607" lon="1.29322">
        <ele>1419</ele>
        <time>2022-05-22 15:13:02</time>
      </trkpt>
      <trkpt lat="42.36068" lon="1.29323">
        <ele>1419</ele>
        <time>2022-05-22 15:13:03</time>
      </trkpt>
      <trkpt lat="42.36066" lon="1.29324">
        <ele>1419.2</ele>
        <time>2022-05-22 15:13:04</time>
      </trkpt>
      <trkpt lat="42.36064" lon="1.29324">
        <ele>1419.2</ele>
        <time>2022-05-22 15:13:05</time>
      </trkpt>
      <trkpt lat="42.36062" lon="1.29325">
        <ele>1419.2</ele>
        <time>2022-05-22 15:13:06</time>
      </trkpt>
      <trkpt lat="42.3606" lon="1.29326">
        <ele>1419.2</ele>
        <time>2022-05-22 15:13:07</time>
      </trkpt>
      <trkpt lat="42.36058" lon="1.29327">
        <ele>1419.4</ele>
        <time>2022-05-22 15:13:08</time>
      </trkpt>
      <trkpt lat="42.36057" lon="1.29328">
        <ele>1419.4</ele>
        <time>2022-05-22 15:13:09</time>
      </trkpt>
      <trkpt lat="42.36055" lon="1.29329">
        <ele>1419.6</ele>
        <time>2022-05-22 15:13:10</time>
      </trkpt>
      <trkpt lat="42.36053" lon="1.29331">
        <ele>1419.6</ele>
        <time>2022-05-22 15:13:11</time>
      </trkpt>
      <trkpt lat="42.36051" lon="1.29332">
        <ele>1419.8</ele>
        <time>2022-05-22 15:13:12</time>
      </trkpt>
      <trkpt lat="42.3605" lon="1.29333">
        <ele>1419.8</ele>
        <time>2022-05-22 15:13:13</time>
      </trkpt>
      <trkpt lat="42.36048" lon="1.29333">
        <ele>1419.8</ele>
        <time>2022-05-22 15:13:14</time>
      </trkpt>
      <trkpt lat="42.36046" lon="1.29334">
        <ele>1420</ele>
        <time>2022-05-22 15:13:15</time>
      </trkpt>
      <trkpt lat="42.36044" lon="1.29335">
        <ele>1420</ele>
        <time>2022-05-22 15:13:16</time>
      </trkpt>
      <trkpt lat="42.36042" lon="1.29335">
        <ele>1420</ele>
        <time>2022-05-22 15:13:17</time>
      </trkpt>
      <trkpt lat="42.3604" lon="1.29336">
        <ele>1420.2</ele>
        <time>2022-05-22 15:13:18</time>
      </trkpt>
      <trkpt lat="42.36038" lon="1.29336">
        <ele>1420.2</ele>
        <time>2022-05-22 15:13:19</time>
      </trkpt>
      <trkpt lat="42.36036" lon="1.29337">
        <ele>1420.2</ele>
        <time>2022-05-22 15:13:20</time>
      </trkpt>
      <trkpt lat="42.36034" lon="1.29337">
        <ele>1420.4</ele>
        <time>2022-05-22 15:13:21</time>
      </trkpt>
      <trkpt lat="42.36032" lon="1.29338">
        <ele>1420.4</ele>
        <time>2022-05-22 15:13:22</time>
      </trkpt>
      <trkpt lat="42.3603" lon="1.29339">
        <ele>1420.6</ele>
        <time>2022-05-22 15:13:23</time>
      </trkpt>
      <trkpt lat="42.36029" lon="1.2934">
        <ele>1420.6</ele>
        <time>2022-05-22 15:13:24</time>
      </trkpt>
      <trkpt lat="42.36027" lon="1.2934">
        <ele>1420.8</ele>
        <time>2022-05-22 15:13:25</time>
      </trkpt>
      <trkpt lat="42.36025" lon="1.2934">
        <ele>1420.8</ele>
        <time>2022-05-22 15:13:26</time>
      </trkpt>
      <trkpt lat="42.36023" lon="1.2934">
        <ele>1421</ele>
        <time>2022-05-22 15:13:27</time>
      </trkpt>
      <trkpt lat="42.36021" lon="1.2934">
        <ele>1421</ele>
        <time>2022-05-22 15:13:28</time>
      </trkpt>
      <trkpt lat="42.36019" lon="1.2934">
        <ele>1421.2</ele>
        <time>2022-05-22 15:13:29</time>
      </trkpt>
      <trkpt lat="42.36017" lon="1.2934">
        <ele>1421.2</ele>
        <time>2022-05-22 15:13:30</time>
      </trkpt>
      <trkpt lat="42.36015" lon="1.2934">
        <ele>1421.2</ele>
        <time>2022-05-22 15:13:31</time>
      </trkpt>
      <trkpt lat="42.36013" lon="1.2934">
        <ele>1421.4</ele>
        <time>2022-05-22 15:13:32</time>
      </trkpt>
      <trkpt lat="42.36011" lon="1.29339">
        <ele>1421.4</ele>
        <time>2022-05-22 15:13:33</time>
      </trkpt>
      <trkpt lat="42.36009" lon="1.29339">
        <ele>1421.6</ele>
        <time>2022-05-22 15:13:34</time>
      </trkpt>
      <trkpt lat="42.36007" lon="1.29339">
        <ele>1421.6</ele>
        <time>2022-05-22 15:13:35</time>
      </trkpt>
      <trkpt lat="42.36005" lon="1.29338">
        <ele>1421.6</ele>
        <time>2022-05-22 15:13:36</time>
      </trkpt>
      <trkpt lat="42.36003" lon="1.29338">
        <ele>1421.8</ele>
        <time>2022-05-22 15:13:37</time>
      </trkpt>
      <trkpt lat="42.36001" lon="1.29337">
        <ele>1421.8</ele>
        <time>2022-05-22 15:13:38</time>
      </trkpt>
      <trkpt lat="42.35998" lon="1.29337">
        <ele>1422</ele>
        <time>2022-05-22 15:13:39</time>
      </trkpt>
      <trkpt lat="42.35996" lon="1.29336">
        <ele>1422</ele>
        <time>2022-05-22 15:13:40</time>
      </trkpt>
      <trkpt lat="42.35994" lon="1.29335">
        <ele>1422</ele>
        <time>2022-05-22 15:13:41</time>
      </trkpt>
      <trkpt lat="42.35992" lon="1.29334">
        <ele>1422.2</ele>
        <time>2022-05-22 15:13:42</time>
      </trkpt>
      <trkpt lat="42.3599" lon="1.29333">
        <ele>1422.4</ele>
        <time>2022-05-22 15:13:43</time>
      </trkpt>
      <trkpt lat="42.35988" lon="1.29332">
        <ele>1422.4</ele>
        <time>2022-05-22 15:13:44</time>
      </trkpt>
      <trkpt lat="42.35985" lon="1.29331">
        <ele>1422.4</ele>
        <time>2022-05-22 15:13:45</time>
      </trkpt>
      <trkpt lat="42.35983" lon="1.29331">
        <ele>1422.6</ele>
        <time>2022-05-22 15:13:46</time>
      </trkpt>
      <trkpt lat="42.35981" lon="1.2933">
        <ele>1422.6</ele>
        <time>2022-05-22 15:13:47</time>
      </trkpt>
      <trkpt lat="42.35979" lon="1.29329">
        <ele>1422.8</ele>
        <time>2022-05-22 15:13:48</time>
      </trkpt>
      <trkpt lat="42.35976" lon="1.29328">
        <ele>1422.8</ele>
        <time>2022-05-22 15:13:49</time>
      </trkpt>
      <trkpt lat="42.35974" lon="1.29327">
        <ele>1423</ele>
        <time>2022-05-22 15:13:50</time>
      </trkpt>
      <trkpt lat="42.35972" lon="1.29326">
        <ele>1423</ele>
        <time>2022-05-22 15:13:51</time>
      </trkpt>
      <trkpt lat="42.3597" lon="1.29325">
        <ele>1423.2</ele>
        <time>2022-05-22 15:13:52</time>
      </trkpt>
      <trkpt lat="42.35968" lon="1.29325">
        <ele>1423.4</ele>
        <time>2022-05-22 15:13:53</time>
      </trkpt>
      <trkpt lat="42.35965" lon="1.29324">
        <ele>1423.4</ele>
        <time>2022-05-22 15:13:54</time>
      </trkpt>
      <trkpt lat="42.35963" lon="1.29323">
        <ele>1423.6</ele>
        <time>2022-05-22 15:13:55</time>
      </trkpt>
      <trkpt lat="42.35961" lon="1.29322">
        <ele>1423.6</ele>
        <time>2022-05-22 15:13:56</time>
      </trkpt>
      <trkpt lat="42.35959" lon="1.29321">
        <ele>1423.8</ele>
        <time>2022-05-22 15:13:57</time>
      </trkpt>
      <trkpt lat="42.35956" lon="1.2932">
        <ele>1424</ele>
        <time>2022-05-22 15:13:58</time>
      </trkpt>
      <trkpt lat="42.35954" lon="1.29319">
        <ele>1424</ele>
        <time>2022-05-22 15:13:59</time>
      </trkpt>
      <trkpt lat="42.35952" lon="1.29318">
        <ele>1424.2</ele>
        <time>2022-05-22 15:14:00</time>
      </trkpt>
      <trkpt lat="42.35949" lon="1.29317">
        <ele>1424.4</ele>
        <time>2022-05-22 15:14:01</time>
      </trkpt>
      <trkpt lat="42.35947" lon="1.29317">
        <ele>1424.4</ele>
        <time>2022-05-22 15:14:02</time>
      </trkpt>
      <trkpt lat="42.35944" lon="1.29316">
        <ele>1424.6</ele>
        <time>2022-05-22 15:14:03</time>
      </trkpt>
      <trkpt lat="42.35942" lon="1.29315">
        <ele>1424.8</ele>
        <time>2022-05-22 15:14:04</time>
      </trkpt>
      <trkpt lat="42.35939" lon="1.29315">
        <ele>1424.8</ele>
        <time>2022-05-22 15:14:05</time>
      </trkpt>
      <trkpt lat="42.35937" lon="1.29314">
        <ele>1425</ele>
        <time>2022-05-22 15:14:06</time>
      </trkpt>
      <trkpt lat="42.35935" lon="1.29313">
        <ele>1425</ele>
        <time>2022-05-22 15:14:07</time>
      </trkpt>
      <trkpt lat="42.35933" lon="1.29313">
        <ele>1425.2</ele>
        <time>2022-05-22 15:14:08</time>
      </trkpt>
      <trkpt lat="42.35931" lon="1.29312">
        <ele>1425.4</ele>
        <time>2022-05-22 15:14:09</time>
      </trkpt>
      <trkpt lat="42.35928" lon="1.29312">
        <ele>1425.4</ele>
        <time>2022-05-22 15:14:10</time>
      </trkpt>
      <trkpt lat="42.35926" lon="1.29311">
        <ele>1425.6</ele>
        <time>2022-05-22 15:14:11</time>
      </trkpt>
      <trkpt lat="42.35924" lon="1.2931">
        <ele>1425.6</ele>
        <time>2022-05-22 15:14:12</time>
      </trkpt>
      <trkpt lat="42.35922" lon="1.29309">
        <ele>1425.8</ele>
        <time>2022-05-22 15:14:13</time>
      </trkpt>
      <trkpt lat="42.3592" lon="1.29309">
        <ele>1425.8</ele>
        <time>2022-05-22 15:14:14</time>
      </trkpt>
      <trkpt lat="42.35918" lon="1.29309">
        <ele>1426</ele>
        <time>2022-05-22 15:14:15</time>
      </trkpt>
      <trkpt lat="42.35916" lon="1.29309">
        <ele>1426</ele>
        <time>2022-05-22 15:14:16</time>
      </trkpt>
      <trkpt lat="42.35914" lon="1.29309">
        <ele>1426.2</ele>
        <time>2022-05-22 15:14:17</time>
      </trkpt>
      <trkpt lat="42.35911" lon="1.29308">
        <ele>1426.2</ele>
        <time>2022-05-22 15:14:18</time>
      </trkpt>
      <trkpt lat="42.3591" lon="1.29308">
        <ele>1426.4</ele>
        <time>2022-05-22 15:14:19</time>
      </trkpt>
      <trkpt lat="42.35908" lon="1.29308">
        <ele>1426.6</ele>
        <time>2022-05-22 15:14:20</time>
      </trkpt>
      <trkpt lat="42.35906" lon="1.29309">
        <ele>1426.6</ele>
        <time>2022-05-22 15:14:21</time>
      </trkpt>
      <trkpt lat="42.35904" lon="1.29309">
        <ele>1426.8</ele>
        <time>2022-05-22 15:14:22</time>
      </trkpt>
      <trkpt lat="42.35902" lon="1.2931">
        <ele>1426.8</ele>
        <time>2022-05-22 15:14:23</time>
      </trkpt>
      <trkpt lat="42.359" lon="1.29311">
        <ele>1427</ele>
        <time>2022-05-22 15:14:24</time>
      </trkpt>
      <trkpt lat="42.35898" lon="1.29312">
        <ele>1427</ele>
        <time>2022-05-22 15:14:25</time>
      </trkpt>
      <trkpt lat="42.35896" lon="1.29312">
        <ele>1427.2</ele>
        <time>2022-05-22 15:14:26</time>
      </trkpt>
      <trkpt lat="42.35894" lon="1.29313">
        <ele>1427.2</ele>
        <time>2022-05-22 15:14:27</time>
      </trkpt>
      <trkpt lat="42.35892" lon="1.29314">
        <ele>1427.4</ele>
        <time>2022-05-22 15:14:28</time>
      </trkpt>
      <trkpt lat="42.3589" lon="1.29314">
        <ele>1427.4</ele>
        <time>2022-05-22 15:14:29</time>
      </trkpt>
      <trkpt lat="42.35888" lon="1.29314">
        <ele>1427.6</ele>
        <time>2022-05-22 15:14:30</time>
      </trkpt>
      <trkpt lat="42.35886" lon="1.29315">
        <ele>1427.8</ele>
        <time>2022-05-22 15:14:31</time>
      </trkpt>
      <trkpt lat="42.35884" lon="1.29316">
        <ele>1427.8</ele>
        <time>2022-05-22 15:14:32</time>
      </trkpt>
      <trkpt lat="42.35882" lon="1.29316">
        <ele>1428</ele>
        <time>2022-05-22 15:14:33</time>
      </trkpt>
      <trkpt lat="42.3588" lon="1.29317">
        <ele>1428</ele>
        <time>2022-05-22 15:14:34</time>
      </trkpt>
      <trkpt lat="42.35878" lon="1.29318">
        <ele>1428.2</ele>
        <time>2022-05-22 15:14:35</time>
      </trkpt>
      <trkpt lat="42.35876" lon="1.29319">
        <ele>1428.2</ele>
        <time>2022-05-22 15:14:36</time>
      </trkpt>
      <trkpt lat="42.35874" lon="1.29319">
        <ele>1428.4</ele>
        <time>2022-05-22 15:14:37</time>
      </trkpt>
      <trkpt lat="42.35871" lon="1.29319">
        <ele>1428.4</ele>
        <time>2022-05-22 15:14:38</time>
      </trkpt>
      <trkpt lat="42.35869" lon="1.29319">
        <ele>1428.6</ele>
        <time>2022-05-22 15:14:39</time>
      </trkpt>
      <trkpt lat="42.35867" lon="1.29319">
        <ele>1428.6</ele>
        <time>2022-05-22 15:14:40</time>
      </trkpt>
      <trkpt lat="42.35865" lon="1.2932">
        <ele>1428.8</ele>
        <time>2022-05-22 15:14:41</time>
      </trkpt>
      <trkpt lat="42.35863" lon="1.29321">
        <ele>1428.8</ele>
        <time>2022-05-22 15:14:42</time>
      </trkpt>
      <trkpt lat="42.35861" lon="1.29322">
        <ele>1429</ele>
        <time>2022-05-22 15:14:43</time>
      </trkpt>
      <trkpt lat="42.35859" lon="1.29322">
        <ele>1429</ele>
        <time>2022-05-22 15:14:44</time>
      </trkpt>
      <trkpt lat="42.35857" lon="1.29323">
        <ele>1429.2</ele>
        <time>2022-05-22 15:14:45</time>
      </trkpt>
      <trkpt lat="42.35855" lon="1.29324">
        <ele>1429.2</ele>
        <time>2022-05-22 15:14:46</time>
      </trkpt>
      <trkpt lat="42.35853" lon="1.29326">
        <ele>1429.4</ele>
        <time>2022-05-22 15:14:47</time>
      </trkpt>
      <trkpt lat="42.35851" lon="1.29327">
        <ele>1429.4</ele>
        <time>2022-05-22 15:14:48</time>
      </trkpt>
      <trkpt lat="42.35849" lon="1.29327">
        <ele>1429.6</ele>
        <time>2022-05-22 15:14:49</time>
      </trkpt>
      <trkpt lat="42.35848" lon="1.29328">
        <ele>1429.8</ele>
        <time>2022-05-22 15:14:50</time>
      </trkpt>
      <trkpt lat="42.35846" lon="1.29329">
        <ele>1429.8</ele>
        <time>2022-05-22 15:14:51</time>
      </trkpt>
      <trkpt lat="42.35844" lon="1.29329">
        <ele>1430</ele>
        <time>2022-05-22 15:14:52</time>
      </trkpt>
      <trkpt lat="42.35843" lon="1.2933">
        <ele>1430.2</ele>
        <time>2022-05-22 15:14:53</time>
      </trkpt>
      <trkpt lat="42.35841" lon="1.2933">
        <ele>1430.2</ele>
        <time>2022-05-22 15:14:54</time>
      </trkpt>
      <trkpt lat="42.35839" lon="1.29331">
        <ele>1430.4</ele>
        <time>2022-05-22 15:14:55</time>
      </trkpt>
      <trkpt lat="42.35837" lon="1.29332">
        <ele>1430.6</ele>
        <time>2022-05-22 15:14:56</time>
      </trkpt>
      <trkpt lat="42.35835" lon="1.29332">
        <ele>1430.8</ele>
        <time>2022-05-22 15:14:57</time>
      </trkpt>
      <trkpt lat="42.35833" lon="1.29333">
        <ele>1430.8</ele>
        <time>2022-05-22 15:14:58</time>
      </trkpt>
      <trkpt lat="42.35832" lon="1.29334">
        <ele>1431</ele>
        <time>2022-05-22 15:14:59</time>
      </trkpt>
      <trkpt lat="42.3583" lon="1.29334">
        <ele>1431.2</ele>
        <time>2022-05-22 15:15:00</time>
      </trkpt>
      <trkpt lat="42.35828" lon="1.29334">
        <ele>1431.2</ele>
        <time>2022-05-22 15:15:01</time>
      </trkpt>
      <trkpt lat="42.35826" lon="1.29335">
        <ele>1431.4</ele>
        <time>2022-05-22 15:15:02</time>
      </trkpt>
      <trkpt lat="42.35824" lon="1.29335">
        <ele>1431.4</ele>
        <time>2022-05-22 15:15:03</time>
      </trkpt>
      <trkpt lat="42.35822" lon="1.29336">
        <ele>1431.6</ele>
        <time>2022-05-22 15:15:04</time>
      </trkpt>
      <trkpt lat="42.3582" lon="1.29336">
        <ele>1431.8</ele>
        <time>2022-05-22 15:15:05</time>
      </trkpt>
      <trkpt lat="42.35819" lon="1.29337">
        <ele>1432</ele>
        <time>2022-05-22 15:15:06</time>
      </trkpt>
      <trkpt lat="42.35817" lon="1.29337">
        <ele>1432.2</ele>
        <time>2022-05-22 15:15:07</time>
      </trkpt>
      <trkpt lat="42.35816" lon="1.29337">
        <ele>1432.2</ele>
        <time>2022-05-22 15:15:08</time>
      </trkpt>
      <trkpt lat="42.35814" lon="1.29338">
        <ele>1432.4</ele>
        <time>2022-05-22 15:15:09</time>
      </trkpt>
      <trkpt lat="42.35813" lon="1.29338">
        <ele>1432.4</ele>
        <time>2022-05-22 15:15:10</time>
      </trkpt>
      <trkpt lat="42.35811" lon="1.29339">
        <ele>1432.6</ele>
        <time>2022-05-22 15:15:11</time>
      </trkpt>
      <trkpt lat="42.35809" lon="1.2934">
        <ele>1432.6</ele>
        <time>2022-05-22 15:15:12</time>
      </trkpt>
      <trkpt lat="42.35807" lon="1.2934">
        <ele>1432.8</ele>
        <time>2022-05-22 15:15:13</time>
      </trkpt>
      <trkpt lat="42.35805" lon="1.29341">
        <ele>1432.8</ele>
        <time>2022-05-22 15:15:14</time>
      </trkpt>
      <trkpt lat="42.35803" lon="1.29341">
        <ele>1433</ele>
        <time>2022-05-22 15:15:15</time>
      </trkpt>
      <trkpt lat="42.35802" lon="1.29341">
        <ele>1433.2</ele>
        <time>2022-05-22 15:15:16</time>
      </trkpt>
      <trkpt lat="42.358" lon="1.29342">
        <ele>1433.4</ele>
        <time>2022-05-22 15:15:17</time>
      </trkpt>
      <trkpt lat="42.35798" lon="1.29342">
        <ele>1433.6</ele>
        <time>2022-05-22 15:15:18</time>
      </trkpt>
      <trkpt lat="42.35796" lon="1.29343">
        <ele>1433.8</ele>
        <time>2022-05-22 15:15:19</time>
      </trkpt>
      <trkpt lat="42.35794" lon="1.29344">
        <ele>1433.8</ele>
        <time>2022-05-22 15:15:20</time>
      </trkpt>
      <trkpt lat="42.35791" lon="1.29344">
        <ele>1434</ele>
        <time>2022-05-22 15:15:21</time>
      </trkpt>
      <trkpt lat="42.35789" lon="1.29345">
        <ele>1434.2</ele>
        <time>2022-05-22 15:15:22</time>
      </trkpt>
      <trkpt lat="42.35787" lon="1.29346">
        <ele>1434.4</ele>
        <time>2022-05-22 15:15:23</time>
      </trkpt>
      <trkpt lat="42.35785" lon="1.29346">
        <ele>1434.6</ele>
        <time>2022-05-22 15:15:24</time>
      </trkpt>
      <trkpt lat="42.35783" lon="1.29347">
        <ele>1434.8</ele>
        <time>2022-05-22 15:15:25</time>
      </trkpt>
      <trkpt lat="42.35781" lon="1.29348">
        <ele>1434.8</ele>
        <time>2022-05-22 15:15:26</time>
      </trkpt>
      <trkpt lat="42.3578" lon="1.29348">
        <ele>1435</ele>
        <time>2022-05-22 15:15:27</time>
      </trkpt>
      <trkpt lat="42.35778" lon="1.29349">
        <ele>1435.2</ele>
        <time>2022-05-22 15:15:28</time>
      </trkpt>
      <trkpt lat="42.35776" lon="1.2935">
        <ele>1435.4</ele>
        <time>2022-05-22 15:15:29</time>
      </trkpt>
      <trkpt lat="42.35774" lon="1.29351">
        <ele>1435.6</ele>
        <time>2022-05-22 15:15:30</time>
      </trkpt>
      <trkpt lat="42.35773" lon="1.29352">
        <ele>1435.6</ele>
        <time>2022-05-22 15:15:31</time>
      </trkpt>
      <trkpt lat="42.35771" lon="1.29352">
        <ele>1435.8</ele>
        <time>2022-05-22 15:15:32</time>
      </trkpt>
      <trkpt lat="42.35769" lon="1.29353">
        <ele>1436</ele>
        <time>2022-05-22 15:15:33</time>
      </trkpt>
      <trkpt lat="42.35767" lon="1.29354">
        <ele>1436.2</ele>
        <time>2022-05-22 15:15:34</time>
      </trkpt>
      <trkpt lat="42.35765" lon="1.29355">
        <ele>1436.2</ele>
        <time>2022-05-22 15:15:35</time>
      </trkpt>
      <trkpt lat="42.35764" lon="1.29355">
        <ele>1436.4</ele>
        <time>2022-05-22 15:15:36</time>
      </trkpt>
      <trkpt lat="42.35762" lon="1.29355">
        <ele>1436.4</ele>
        <time>2022-05-22 15:15:37</time>
      </trkpt>
      <trkpt lat="42.35761" lon="1.29356">
        <ele>1436.6</ele>
        <time>2022-05-22 15:15:38</time>
      </trkpt>
      <trkpt lat="42.35759" lon="1.29357">
        <ele>1436.8</ele>
        <time>2022-05-22 15:15:39</time>
      </trkpt>
      <trkpt lat="42.35758" lon="1.29358">
        <ele>1437</ele>
        <time>2022-05-22 15:15:40</time>
      </trkpt>
      <trkpt lat="42.35756" lon="1.29359">
        <ele>1437.2</ele>
        <time>2022-05-22 15:15:41</time>
      </trkpt>
      <trkpt lat="42.35754" lon="1.29361">
        <ele>1437.4</ele>
        <time>2022-05-22 15:15:42</time>
      </trkpt>
      <trkpt lat="42.35752" lon="1.29362">
        <ele>1437.6</ele>
        <time>2022-05-22 15:15:43</time>
      </trkpt>
      <trkpt lat="42.35751" lon="1.29363">
        <ele>1437.8</ele>
        <time>2022-05-22 15:15:44</time>
      </trkpt>
      <trkpt lat="42.35749" lon="1.29364">
        <ele>1438</ele>
        <time>2022-05-22 15:15:45</time>
      </trkpt>
      <trkpt lat="42.35747" lon="1.29365">
        <ele>1438.2</ele>
        <time>2022-05-22 15:15:46</time>
      </trkpt>
      <trkpt lat="42.35746" lon="1.29367">
        <ele>1438.4</ele>
        <time>2022-05-22 15:15:47</time>
      </trkpt>
      <trkpt lat="42.35744" lon="1.29369">
        <ele>1438.6</ele>
        <time>2022-05-22 15:15:48</time>
      </trkpt>
      <trkpt lat="42.35742" lon="1.2937">
        <ele>1438.8</ele>
        <time>2022-05-22 15:15:49</time>
      </trkpt>
      <trkpt lat="42.35739" lon="1.29371">
        <ele>1439</ele>
        <time>2022-05-22 15:15:50</time>
      </trkpt>
      <trkpt lat="42.35737" lon="1.29372">
        <ele>1439.2</ele>
        <time>2022-05-22 15:15:51</time>
      </trkpt>
      <trkpt lat="42.35736" lon="1.29373">
        <ele>1439.4</ele>
        <time>2022-05-22 15:15:52</time>
      </trkpt>
      <trkpt lat="42.35734" lon="1.29375">
        <ele>1439.6</ele>
        <time>2022-05-22 15:15:53</time>
      </trkpt>
      <trkpt lat="42.35732" lon="1.29376">
        <ele>1439.6</ele>
        <time>2022-05-22 15:15:54</time>
      </trkpt>
      <trkpt lat="42.3573" lon="1.29376">
        <ele>1439.8</ele>
        <time>2022-05-22 15:15:55</time>
      </trkpt>
      <trkpt lat="42.35728" lon="1.29377">
        <ele>1440</ele>
        <time>2022-05-22 15:15:56</time>
      </trkpt>
      <trkpt lat="42.35726" lon="1.29378">
        <ele>1440.2</ele>
        <time>2022-05-22 15:15:57</time>
      </trkpt>
      <trkpt lat="42.35724" lon="1.29378">
        <ele>1440.4</ele>
        <time>2022-05-22 15:15:58</time>
      </trkpt>
      <trkpt lat="42.35722" lon="1.29379">
        <ele>1440.6</ele>
        <time>2022-05-22 15:15:59</time>
      </trkpt>
      <trkpt lat="42.3572" lon="1.2938">
        <ele>1440.8</ele>
        <time>2022-05-22 15:16:00</time>
      </trkpt>
      <trkpt lat="42.35718" lon="1.29381">
        <ele>1441</ele>
        <time>2022-05-22 15:16:01</time>
      </trkpt>
      <trkpt lat="42.35717" lon="1.29382">
        <ele>1441</ele>
        <time>2022-05-22 15:16:02</time>
      </trkpt>
      <trkpt lat="42.35715" lon="1.29382">
        <ele>1441.2</ele>
        <time>2022-05-22 15:16:03</time>
      </trkpt>
      <trkpt lat="42.35713" lon="1.29383">
        <ele>1441.4</ele>
        <time>2022-05-22 15:16:04</time>
      </trkpt>
      <trkpt lat="42.35712" lon="1.29383">
        <ele>1441.6</ele>
        <time>2022-05-22 15:16:05</time>
      </trkpt>
      <trkpt lat="42.3571" lon="1.29384">
        <ele>1441.8</ele>
        <time>2022-05-22 15:16:06</time>
      </trkpt>
      <trkpt lat="42.35708" lon="1.29384">
        <ele>1442</ele>
        <time>2022-05-22 15:16:07</time>
      </trkpt>
      <trkpt lat="42.35706" lon="1.29385">
        <ele>1442.2</ele>
        <time>2022-05-22 15:16:08</time>
      </trkpt>
      <trkpt lat="42.35704" lon="1.29385">
        <ele>1442.4</ele>
        <time>2022-05-22 15:16:09</time>
      </trkpt>
      <trkpt lat="42.35702" lon="1.29386">
        <ele>1442.6</ele>
        <time>2022-05-22 15:16:10</time>
      </trkpt>
      <trkpt lat="42.357" lon="1.29386">
        <ele>1442.8</ele>
        <time>2022-05-22 15:16:11</time>
      </trkpt>
      <trkpt lat="42.35698" lon="1.29386">
        <ele>1443</ele>
        <time>2022-05-22 15:16:12</time>
      </trkpt>
      <trkpt lat="42.35696" lon="1.29386">
        <ele>1443</ele>
        <time>2022-05-22 15:16:13</time>
      </trkpt>
      <trkpt lat="42.35694" lon="1.29386">
        <ele>1443.2</ele>
        <time>2022-05-22 15:16:14</time>
      </trkpt>
      <trkpt lat="42.35692" lon="1.29386">
        <ele>1443.4</ele>
        <time>2022-05-22 15:16:15</time>
      </trkpt>
      <trkpt lat="42.35691" lon="1.29387">
        <ele>1443.6</ele>
        <time>2022-05-22 15:16:16</time>
      </trkpt>
      <trkpt lat="42.35689" lon="1.29387">
        <ele>1443.6</ele>
        <time>2022-05-22 15:16:17</time>
      </trkpt>
      <trkpt lat="42.35687" lon="1.29388">
        <ele>1443.8</ele>
        <time>2022-05-22 15:16:18</time>
      </trkpt>
      <trkpt lat="42.35685" lon="1.29388">
        <ele>1444</ele>
        <time>2022-05-22 15:16:19</time>
      </trkpt>
      <trkpt lat="42.35683" lon="1.29388">
        <ele>1444.2</ele>
        <time>2022-05-22 15:16:20</time>
      </trkpt>
      <trkpt lat="42.35681" lon="1.29389">
        <ele>1444.4</ele>
        <time>2022-05-22 15:16:21</time>
      </trkpt>
      <trkpt lat="42.3568" lon="1.29389">
        <ele>1444.6</ele>
        <time>2022-05-22 15:16:22</time>
      </trkpt>
      <trkpt lat="42.35678" lon="1.2939">
        <ele>1444.6</ele>
        <time>2022-05-22 15:16:23</time>
      </trkpt>
      <trkpt lat="42.35676" lon="1.29391">
        <ele>1444.8</ele>
        <time>2022-05-22 15:16:24</time>
      </trkpt>
      <trkpt lat="42.35675" lon="1.29391">
        <ele>1445</ele>
        <time>2022-05-22 15:16:25</time>
      </trkpt>
      <trkpt lat="42.35673" lon="1.29392">
        <ele>1445.2</ele>
        <time>2022-05-22 15:16:26</time>
      </trkpt>
      <trkpt lat="42.35671" lon="1.29392">
        <ele>1445.2</ele>
        <time>2022-05-22 15:16:27</time>
      </trkpt>
      <trkpt lat="42.35669" lon="1.29392">
        <ele>1445.4</ele>
        <time>2022-05-22 15:16:28</time>
      </trkpt>
      <trkpt lat="42.35667" lon="1.29392">
        <ele>1445.6</ele>
        <time>2022-05-22 15:16:29</time>
      </trkpt>
      <trkpt lat="42.35666" lon="1.29392">
        <ele>1445.8</ele>
        <time>2022-05-22 15:16:30</time>
      </trkpt>
      <trkpt lat="42.35664" lon="1.29392">
        <ele>1446</ele>
        <time>2022-05-22 15:16:31</time>
      </trkpt>
      <trkpt lat="42.35662" lon="1.29393">
        <ele>1446</ele>
        <time>2022-05-22 15:16:32</time>
      </trkpt>
      <trkpt lat="42.3566" lon="1.29393">
        <ele>1446.2</ele>
        <time>2022-05-22 15:16:33</time>
      </trkpt>
      <trkpt lat="42.35658" lon="1.29394">
        <ele>1446.4</ele>
        <time>2022-05-22 15:16:34</time>
      </trkpt>
      <trkpt lat="42.35656" lon="1.29394">
        <ele>1446.6</ele>
        <time>2022-05-22 15:16:35</time>
      </trkpt>
      <trkpt lat="42.35654" lon="1.29394">
        <ele>1446.8</ele>
        <time>2022-05-22 15:16:36</time>
      </trkpt>
      <trkpt lat="42.35652" lon="1.29395">
        <ele>1447</ele>
        <time>2022-05-22 15:16:37</time>
      </trkpt>
      <trkpt lat="42.35651" lon="1.29395">
        <ele>1447</ele>
        <time>2022-05-22 15:16:38</time>
      </trkpt>
      <trkpt lat="42.35649" lon="1.29395">
        <ele>1447.2</ele>
        <time>2022-05-22 15:16:39</time>
      </trkpt>
      <trkpt lat="42.35647" lon="1.29395">
        <ele>1447.4</ele>
        <time>2022-05-22 15:16:40</time>
      </trkpt>
      <trkpt lat="42.35644" lon="1.29396">
        <ele>1447.6</ele>
        <time>2022-05-22 15:16:41</time>
      </trkpt>
      <trkpt lat="42.35643" lon="1.29396">
        <ele>1447.8</ele>
        <time>2022-05-22 15:16:42</time>
      </trkpt>
      <trkpt lat="42.35641" lon="1.29397">
        <ele>1448</ele>
        <time>2022-05-22 15:16:43</time>
      </trkpt>
      <trkpt lat="42.35639" lon="1.29397">
        <ele>1448</ele>
        <time>2022-05-22 15:16:44</time>
      </trkpt>
      <trkpt lat="42.35637" lon="1.29398">
        <ele>1448.2</ele>
        <time>2022-05-22 15:16:45</time>
      </trkpt>
      <trkpt lat="42.35635" lon="1.29398">
        <ele>1448.4</ele>
        <time>2022-05-22 15:16:46</time>
      </trkpt>
      <trkpt lat="42.35633" lon="1.29399">
        <ele>1448.6</ele>
        <time>2022-05-22 15:16:47</time>
      </trkpt>
      <trkpt lat="42.35631" lon="1.29399">
        <ele>1448.8</ele>
        <time>2022-05-22 15:16:48</time>
      </trkpt>
      <trkpt lat="42.35629" lon="1.29399">
        <ele>1449</ele>
        <time>2022-05-22 15:16:49</time>
      </trkpt>
      <trkpt lat="42.35627" lon="1.29399">
        <ele>1449</ele>
        <time>2022-05-22 15:16:50</time>
      </trkpt>
      <trkpt lat="42.35625" lon="1.294">
        <ele>1449.2</ele>
        <time>2022-05-22 15:16:51</time>
      </trkpt>
      <trkpt lat="42.35623" lon="1.29401">
        <ele>1449.4</ele>
        <time>2022-05-22 15:16:52</time>
      </trkpt>
      <trkpt lat="42.35621" lon="1.29401">
        <ele>1449.6</ele>
        <time>2022-05-22 15:16:53</time>
      </trkpt>
      <trkpt lat="42.35619" lon="1.29402">
        <ele>1449.8</ele>
        <time>2022-05-22 15:16:54</time>
      </trkpt>
      <trkpt lat="42.35618" lon="1.29402">
        <ele>1450</ele>
        <time>2022-05-22 15:16:55</time>
      </trkpt>
      <trkpt lat="42.35616" lon="1.29402">
        <ele>1450.2</ele>
        <time>2022-05-22 15:16:56</time>
      </trkpt>
      <trkpt lat="42.35614" lon="1.29401">
        <ele>1450.4</ele>
        <time>2022-05-22 15:16:57</time>
      </trkpt>
      <trkpt lat="42.35612" lon="1.29401">
        <ele>1450.4</ele>
        <time>2022-05-22 15:16:58</time>
      </trkpt>
      <trkpt lat="42.3561" lon="1.29402">
        <ele>1450.6</ele>
        <time>2022-05-22 15:16:59</time>
      </trkpt>
      <trkpt lat="42.35608" lon="1.29402">
        <ele>1450.8</ele>
        <time>2022-05-22 15:17:00</time>
      </trkpt>
      <trkpt lat="42.35606" lon="1.29403">
        <ele>1451</ele>
        <time>2022-05-22 15:17:01</time>
      </trkpt>
      <trkpt lat="42.35604" lon="1.29403">
        <ele>1451.2</ele>
        <time>2022-05-22 15:17:02</time>
      </trkpt>
      <trkpt lat="42.35602" lon="1.29403">
        <ele>1451.2</ele>
        <time>2022-05-22 15:17:03</time>
      </trkpt>
      <trkpt lat="42.35601" lon="1.29403">
        <ele>1451.4</ele>
        <time>2022-05-22 15:17:04</time>
      </trkpt>
      <trkpt lat="42.35598" lon="1.29403">
        <ele>1451.6</ele>
        <time>2022-05-22 15:17:05</time>
      </trkpt>
      <trkpt lat="42.35597" lon="1.29403">
        <ele>1451.8</ele>
        <time>2022-05-22 15:17:06</time>
      </trkpt>
      <trkpt lat="42.35595" lon="1.29404">
        <ele>1452</ele>
        <time>2022-05-22 15:17:07</time>
      </trkpt>
      <trkpt lat="42.35593" lon="1.29404">
        <ele>1452.2</ele>
        <time>2022-05-22 15:17:08</time>
      </trkpt>
      <trkpt lat="42.35591" lon="1.29404">
        <ele>1452.4</ele>
        <time>2022-05-22 15:17:09</time>
      </trkpt>
      <trkpt lat="42.35589" lon="1.29404">
        <ele>1452.6</ele>
        <time>2022-05-22 15:17:10</time>
      </trkpt>
      <trkpt lat="42.35587" lon="1.29404">
        <ele>1452.6</ele>
        <time>2022-05-22 15:17:11</time>
      </trkpt>
      <trkpt lat="42.35585" lon="1.29404">
        <ele>1452.8</ele>
        <time>2022-05-22 15:17:12</time>
      </trkpt>
      <trkpt lat="42.35583" lon="1.29404">
        <ele>1453</ele>
        <time>2022-05-22 15:17:13</time>
      </trkpt>
      <trkpt lat="42.35581" lon="1.29404">
        <ele>1453.2</ele>
        <time>2022-05-22 15:17:14</time>
      </trkpt>
      <trkpt lat="42.35579" lon="1.29404">
        <ele>1453.4</ele>
        <time>2022-05-22 15:17:15</time>
      </trkpt>
      <trkpt lat="42.35577" lon="1.29405">
        <ele>1453.6</ele>
        <time>2022-05-22 15:17:16</time>
      </trkpt>
      <trkpt lat="42.35575" lon="1.29405">
        <ele>1453.8</ele>
        <time>2022-05-22 15:17:17</time>
      </trkpt>
      <trkpt lat="42.35573" lon="1.29405">
        <ele>1453.8</ele>
        <time>2022-05-22 15:17:18</time>
      </trkpt>
      <trkpt lat="42.35572" lon="1.29404">
        <ele>1454</ele>
        <time>2022-05-22 15:17:19</time>
      </trkpt>
      <trkpt lat="42.3557" lon="1.29404">
        <ele>1454.2</ele>
        <time>2022-05-22 15:17:20</time>
      </trkpt>
      <trkpt lat="42.35568" lon="1.29404">
        <ele>1454.4</ele>
        <time>2022-05-22 15:17:21</time>
      </trkpt>
      <trkpt lat="42.35566" lon="1.29403">
        <ele>1454.4</ele>
        <time>2022-05-22 15:17:22</time>
      </trkpt>
      <trkpt lat="42.35564" lon="1.29403">
        <ele>1454.6</ele>
        <time>2022-05-22 15:17:23</time>
      </trkpt>
      <trkpt lat="42.35562" lon="1.29402">
        <ele>1454.8</ele>
        <time>2022-05-22 15:17:24</time>
      </trkpt>
      <trkpt lat="42.3556" lon="1.29401">
        <ele>1455</ele>
        <time>2022-05-22 15:17:25</time>
      </trkpt>
      <trkpt lat="42.35558" lon="1.29401">
        <ele>1455.2</ele>
        <time>2022-05-22 15:17:26</time>
      </trkpt>
      <trkpt lat="42.35557" lon="1.294">
        <ele>1455.4</ele>
        <time>2022-05-22 15:17:27</time>
      </trkpt>
      <trkpt lat="42.35555" lon="1.29399">
        <ele>1455.6</ele>
        <time>2022-05-22 15:17:28</time>
      </trkpt>
      <trkpt lat="42.35553" lon="1.29397">
        <ele>1455.8</ele>
        <time>2022-05-22 15:17:29</time>
      </trkpt>
      <trkpt lat="42.35552" lon="1.29396">
        <ele>1456</ele>
        <time>2022-05-22 15:17:30</time>
      </trkpt>
      <trkpt lat="42.3555" lon="1.29395">
        <ele>1456</ele>
        <time>2022-05-22 15:17:31</time>
      </trkpt>
      <trkpt lat="42.35548" lon="1.29394">
        <ele>1456.2</ele>
        <time>2022-05-22 15:17:32</time>
      </trkpt>
      <trkpt lat="42.35547" lon="1.29393">
        <ele>1456.4</ele>
        <time>2022-05-22 15:17:33</time>
      </trkpt>
      <trkpt lat="42.35545" lon="1.29392">
        <ele>1456.6</ele>
        <time>2022-05-22 15:17:34</time>
      </trkpt>
      <trkpt lat="42.35543" lon="1.29391">
        <ele>1456.6</ele>
        <time>2022-05-22 15:17:35</time>
      </trkpt>
      <trkpt lat="42.35542" lon="1.2939">
        <ele>1456.8</ele>
        <time>2022-05-22 15:17:36</time>
      </trkpt>
      <trkpt lat="42.3554" lon="1.29389">
        <ele>1457</ele>
        <time>2022-05-22 15:17:37</time>
      </trkpt>
      <trkpt lat="42.35538" lon="1.29389">
        <ele>1457.2</ele>
        <time>2022-05-22 15:17:38</time>
      </trkpt>
      <trkpt lat="42.35537" lon="1.29388">
        <ele>1457.4</ele>
        <time>2022-05-22 15:17:39</time>
      </trkpt>
      <trkpt lat="42.35535" lon="1.29387">
        <ele>1457.6</ele>
        <time>2022-05-22 15:17:40</time>
      </trkpt>
      <trkpt lat="42.35532" lon="1.29386">
        <ele>1457.8</ele>
        <time>2022-05-22 15:17:41</time>
      </trkpt>
      <trkpt lat="42.35531" lon="1.29386">
        <ele>1458</ele>
        <time>2022-05-22 15:17:42</time>
      </trkpt>
      <trkpt lat="42.35529" lon="1.29385">
        <ele>1458.2</ele>
        <time>2022-05-22 15:17:43</time>
      </trkpt>
      <trkpt lat="42.35527" lon="1.29384">
        <ele>1458.2</ele>
        <time>2022-05-22 15:17:44</time>
      </trkpt>
      <trkpt lat="42.35525" lon="1.29383">
        <ele>1458.4</ele>
        <time>2022-05-22 15:17:45</time>
      </trkpt>
      <trkpt lat="42.35523" lon="1.29382">
        <ele>1458.6</ele>
        <time>2022-05-22 15:17:46</time>
      </trkpt>
      <trkpt lat="42.35522" lon="1.29381">
        <ele>1458.8</ele>
        <time>2022-05-22 15:17:47</time>
      </trkpt>
      <trkpt lat="42.3552" lon="1.29381">
        <ele>1459</ele>
        <time>2022-05-22 15:17:48</time>
      </trkpt>
      <trkpt lat="42.35518" lon="1.2938">
        <ele>1459</ele>
        <time>2022-05-22 15:17:49</time>
      </trkpt>
      <trkpt lat="42.35517" lon="1.29379">
        <ele>1459.2</ele>
        <time>2022-05-22 15:17:50</time>
      </trkpt>
      <trkpt lat="42.35515" lon="1.29378">
        <ele>1459.4</ele>
        <time>2022-05-22 15:17:51</time>
      </trkpt>
      <trkpt lat="42.35514" lon="1.29377">
        <ele>1459.6</ele>
        <time>2022-05-22 15:17:52</time>
      </trkpt>
      <trkpt lat="42.35512" lon="1.29377">
        <ele>1459.8</ele>
        <time>2022-05-22 15:17:53</time>
      </trkpt>
      <trkpt lat="42.3551" lon="1.29376">
        <ele>1459.8</ele>
        <time>2022-05-22 15:17:54</time>
      </trkpt>
      <trkpt lat="42.35509" lon="1.29374">
        <ele>1460</ele>
        <time>2022-05-22 15:17:55</time>
      </trkpt>
      <trkpt lat="42.35507" lon="1.29373">
        <ele>1460.2</ele>
        <time>2022-05-22 15:17:56</time>
      </trkpt>
      <trkpt lat="42.35506" lon="1.29372">
        <ele>1460.4</ele>
        <time>2022-05-22 15:17:57</time>
      </trkpt>
      <trkpt lat="42.35503" lon="1.29371">
        <ele>1460.4</ele>
        <time>2022-05-22 15:17:58</time>
      </trkpt>
      <trkpt lat="42.35501" lon="1.29371">
        <ele>1460.6</ele>
        <time>2022-05-22 15:17:59</time>
      </trkpt>
      <trkpt lat="42.355" lon="1.29371">
        <ele>1460.8</ele>
        <time>2022-05-22 15:18:00</time>
      </trkpt>
      <trkpt lat="42.35498" lon="1.2937">
        <ele>1460.8</ele>
        <time>2022-05-22 15:18:01</time>
      </trkpt>
      <trkpt lat="42.35497" lon="1.29369">
        <ele>1461</ele>
        <time>2022-05-22 15:18:02</time>
      </trkpt>
      <trkpt lat="42.35495" lon="1.29368">
        <ele>1461.2</ele>
        <time>2022-05-22 15:18:03</time>
      </trkpt>
      <trkpt lat="42.35493" lon="1.29368">
        <ele>1461.2</ele>
        <time>2022-05-22 15:18:04</time>
      </trkpt>
      <trkpt lat="42.35492" lon="1.29367">
        <ele>1461.4</ele>
        <time>2022-05-22 15:18:05</time>
      </trkpt>
      <trkpt lat="42.3549" lon="1.29366">
        <ele>1461.6</ele>
        <time>2022-05-22 15:18:06</time>
      </trkpt>
      <trkpt lat="42.35489" lon="1.29365">
        <ele>1461.6</ele>
        <time>2022-05-22 15:18:07</time>
      </trkpt>
      <trkpt lat="42.35487" lon="1.29364">
        <ele>1461.8</ele>
        <time>2022-05-22 15:18:08</time>
      </trkpt>
      <trkpt lat="42.35486" lon="1.29363">
        <ele>1461.8</ele>
        <time>2022-05-22 15:18:09</time>
      </trkpt>
      <trkpt lat="42.35484" lon="1.29363">
        <ele>1462</ele>
        <time>2022-05-22 15:18:10</time>
      </trkpt>
      <trkpt lat="42.35482" lon="1.29362">
        <ele>1462.2</ele>
        <time>2022-05-22 15:18:11</time>
      </trkpt>
      <trkpt lat="42.3548" lon="1.29362">
        <ele>1462.2</ele>
        <time>2022-05-22 15:18:12</time>
      </trkpt>
      <trkpt lat="42.35479" lon="1.29362">
        <ele>1462.4</ele>
        <time>2022-05-22 15:18:13</time>
      </trkpt>
      <trkpt lat="42.35477" lon="1.29362">
        <ele>1462.4</ele>
        <time>2022-05-22 15:18:14</time>
      </trkpt>
      <trkpt lat="42.35475" lon="1.29361">
        <ele>1462.6</ele>
        <time>2022-05-22 15:18:15</time>
      </trkpt>
      <trkpt lat="42.35473" lon="1.29361">
        <ele>1462.6</ele>
        <time>2022-05-22 15:18:16</time>
      </trkpt>
      <trkpt lat="42.35471" lon="1.29361">
        <ele>1462.8</ele>
        <time>2022-05-22 15:18:17</time>
      </trkpt>
      <trkpt lat="42.35469" lon="1.2936">
        <ele>1462.8</ele>
        <time>2022-05-22 15:18:18</time>
      </trkpt>
      <trkpt lat="42.35468" lon="1.29359">
        <ele>1463</ele>
        <time>2022-05-22 15:18:19</time>
      </trkpt>
      <trkpt lat="42.35466" lon="1.29358">
        <ele>1463</ele>
        <time>2022-05-22 15:18:20</time>
      </trkpt>
      <trkpt lat="42.35465" lon="1.29358">
        <ele>1463.2</ele>
        <time>2022-05-22 15:18:21</time>
      </trkpt>
      <trkpt lat="42.35463" lon="1.29357">
        <ele>1463.2</ele>
        <time>2022-05-22 15:18:22</time>
      </trkpt>
      <trkpt lat="42.35462" lon="1.29356">
        <ele>1463.4</ele>
        <time>2022-05-22 15:18:23</time>
      </trkpt>
      <trkpt lat="42.3546" lon="1.29356">
        <ele>1463.4</ele>
        <time>2022-05-22 15:18:24</time>
      </trkpt>
      <trkpt lat="42.35459" lon="1.29355">
        <ele>1463.6</ele>
        <time>2022-05-22 15:18:25</time>
      </trkpt>
      <trkpt lat="42.35457" lon="1.29355">
        <ele>1463.8</ele>
        <time>2022-05-22 15:18:26</time>
      </trkpt>
      <trkpt lat="42.35455" lon="1.29355">
        <ele>1463.8</ele>
        <time>2022-05-22 15:18:27</time>
      </trkpt>
      <trkpt lat="42.35454" lon="1.29356">
        <ele>1464</ele>
        <time>2022-05-22 15:18:28</time>
      </trkpt>
      <trkpt lat="42.35452" lon="1.29356">
        <ele>1464</ele>
        <time>2022-05-22 15:18:29</time>
      </trkpt>
      <trkpt lat="42.3545" lon="1.29355">
        <ele>1464.2</ele>
        <time>2022-05-22 15:18:30</time>
      </trkpt>
      <trkpt lat="42.35449" lon="1.29354">
        <ele>1464.2</ele>
        <time>2022-05-22 15:18:31</time>
      </trkpt>
      <trkpt lat="42.35447" lon="1.29352">
        <ele>1464.4</ele>
        <time>2022-05-22 15:18:32</time>
      </trkpt>
      <trkpt lat="42.35446" lon="1.29351">
        <ele>1464.6</ele>
        <time>2022-05-22 15:18:33</time>
      </trkpt>
      <trkpt lat="42.35444" lon="1.2935">
        <ele>1464.6</ele>
        <time>2022-05-22 15:18:34</time>
      </trkpt>
      <trkpt lat="42.35442" lon="1.2935">
        <ele>1464.8</ele>
        <time>2022-05-22 15:18:35</time>
      </trkpt>
      <trkpt lat="42.3544" lon="1.2935">
        <ele>1464.8</ele>
        <time>2022-05-22 15:18:36</time>
      </trkpt>
      <trkpt lat="42.35438" lon="1.2935">
        <ele>1465</ele>
        <time>2022-05-22 15:18:37</time>
      </trkpt>
      <trkpt lat="42.35437" lon="1.2935">
        <ele>1465.2</ele>
        <time>2022-05-22 15:18:38</time>
      </trkpt>
      <trkpt lat="42.35435" lon="1.2935">
        <ele>1465.2</ele>
        <time>2022-05-22 15:18:39</time>
      </trkpt>
      <trkpt lat="42.35433" lon="1.2935">
        <ele>1465.4</ele>
        <time>2022-05-22 15:18:40</time>
      </trkpt>
      <trkpt lat="42.35431" lon="1.29351">
        <ele>1465.6</ele>
        <time>2022-05-22 15:18:41</time>
      </trkpt>
      <trkpt lat="42.3543" lon="1.29351">
        <ele>1465.6</ele>
        <time>2022-05-22 15:18:42</time>
      </trkpt>
      <trkpt lat="42.35428" lon="1.2935">
        <ele>1465.8</ele>
        <time>2022-05-22 15:18:43</time>
      </trkpt>
      <trkpt lat="42.35427" lon="1.2935">
        <ele>1465.8</ele>
        <time>2022-05-22 15:18:44</time>
      </trkpt>
      <trkpt lat="42.35425" lon="1.29349">
        <ele>1466</ele>
        <time>2022-05-22 15:18:45</time>
      </trkpt>
      <trkpt lat="42.35424" lon="1.29348">
        <ele>1466</ele>
        <time>2022-05-22 15:18:46</time>
      </trkpt>
      <trkpt lat="42.35422" lon="1.29348">
        <ele>1466.2</ele>
        <time>2022-05-22 15:18:47</time>
      </trkpt>
      <trkpt lat="42.35421" lon="1.29347">
        <ele>1466.4</ele>
        <time>2022-05-22 15:18:48</time>
      </trkpt>
      <trkpt lat="42.35419" lon="1.29347">
        <ele>1466.6</ele>
        <time>2022-05-22 15:18:49</time>
      </trkpt>
      <trkpt lat="42.35418" lon="1.29347">
        <ele>1466.6</ele>
        <time>2022-05-22 15:18:50</time>
      </trkpt>
      <trkpt lat="42.35416" lon="1.29346">
        <ele>1466.8</ele>
        <time>2022-05-22 15:18:51</time>
      </trkpt>
      <trkpt lat="42.35414" lon="1.29346">
        <ele>1466.8</ele>
        <time>2022-05-22 15:18:52</time>
      </trkpt>
      <trkpt lat="42.35413" lon="1.29346">
        <ele>1467</ele>
        <time>2022-05-22 15:18:53</time>
      </trkpt>
      <trkpt lat="42.35411" lon="1.29346">
        <ele>1467.2</ele>
        <time>2022-05-22 15:18:54</time>
      </trkpt>
      <trkpt lat="42.35409" lon="1.29346">
        <ele>1467.2</ele>
        <time>2022-05-22 15:18:55</time>
      </trkpt>
      <trkpt lat="42.35407" lon="1.29346">
        <ele>1467.4</ele>
        <time>2022-05-22 15:18:56</time>
      </trkpt>
      <trkpt lat="42.35405" lon="1.29347">
        <ele>1467.4</ele>
        <time>2022-05-22 15:18:57</time>
      </trkpt>
      <trkpt lat="42.35403" lon="1.29347">
        <ele>1467.6</ele>
        <time>2022-05-22 15:18:58</time>
      </trkpt>
      <trkpt lat="42.35401" lon="1.29347">
        <ele>1467.8</ele>
        <time>2022-05-22 15:18:59</time>
      </trkpt>
      <trkpt lat="42.35399" lon="1.29347">
        <ele>1468</ele>
        <time>2022-05-22 15:19:00</time>
      </trkpt>
      <trkpt lat="42.35397" lon="1.29348">
        <ele>1468</ele>
        <time>2022-05-22 15:19:01</time>
      </trkpt>
      <trkpt lat="42.35395" lon="1.29348">
        <ele>1468.2</ele>
        <time>2022-05-22 15:19:02</time>
      </trkpt>
      <trkpt lat="42.35394" lon="1.29348">
        <ele>1468.4</ele>
        <time>2022-05-22 15:19:03</time>
      </trkpt>
      <trkpt lat="42.35392" lon="1.29348">
        <ele>1468.6</ele>
        <time>2022-05-22 15:19:04</time>
      </trkpt>
      <trkpt lat="42.3539" lon="1.29348">
        <ele>1468.8</ele>
        <time>2022-05-22 15:19:05</time>
      </trkpt>
      <trkpt lat="42.35388" lon="1.29348">
        <ele>1469</ele>
        <time>2022-05-22 15:19:06</time>
      </trkpt>
      <trkpt lat="42.35387" lon="1.29348">
        <ele>1469.2</ele>
        <time>2022-05-22 15:19:07</time>
      </trkpt>
      <trkpt lat="42.35385" lon="1.29348">
        <ele>1469.2</ele>
        <time>2022-05-22 15:19:08</time>
      </trkpt>
      <trkpt lat="42.35383" lon="1.29348">
        <ele>1469.4</ele>
        <time>2022-05-22 15:19:09</time>
      </trkpt>
      <trkpt lat="42.3538" lon="1.29348">
        <ele>1469.6</ele>
        <time>2022-05-22 15:19:10</time>
      </trkpt>
      <trkpt lat="42.35379" lon="1.29348">
        <ele>1469.8</ele>
        <time>2022-05-22 15:19:11</time>
      </trkpt>
      <trkpt lat="42.35377" lon="1.29349">
        <ele>1470</ele>
        <time>2022-05-22 15:19:12</time>
      </trkpt>
      <trkpt lat="42.35375" lon="1.29349">
        <ele>1470</ele>
        <time>2022-05-22 15:19:13</time>
      </trkpt>
      <trkpt lat="42.35374" lon="1.29349">
        <ele>1470.2</ele>
        <time>2022-05-22 15:19:14</time>
      </trkpt>
      <trkpt lat="42.35372" lon="1.29349">
        <ele>1470.4</ele>
        <time>2022-05-22 15:19:15</time>
      </trkpt>
      <trkpt lat="42.35371" lon="1.29348">
        <ele>1470.6</ele>
        <time>2022-05-22 15:19:16</time>
      </trkpt>
      <trkpt lat="42.35369" lon="1.29348">
        <ele>1470.8</ele>
        <time>2022-05-22 15:19:17</time>
      </trkpt>
      <trkpt lat="42.35368" lon="1.29348">
        <ele>1471</ele>
        <time>2022-05-22 15:19:18</time>
      </trkpt>
      <trkpt lat="42.35366" lon="1.29348">
        <ele>1471.2</ele>
        <time>2022-05-22 15:19:19</time>
      </trkpt>
      <trkpt lat="42.35365" lon="1.29348">
        <ele>1471.2</ele>
        <time>2022-05-22 15:19:20</time>
      </trkpt>
      <trkpt lat="42.35363" lon="1.29348">
        <ele>1471.4</ele>
        <time>2022-05-22 15:19:21</time>
      </trkpt>
      <trkpt lat="42.35361" lon="1.29348">
        <ele>1471.4</ele>
        <time>2022-05-22 15:19:22</time>
      </trkpt>
      <trkpt lat="42.3536" lon="1.29348">
        <ele>1471.6</ele>
        <time>2022-05-22 15:19:23</time>
      </trkpt>
      <trkpt lat="42.35358" lon="1.29348">
        <ele>1471.8</ele>
        <time>2022-05-22 15:19:24</time>
      </trkpt>
      <trkpt lat="42.35356" lon="1.29348">
        <ele>1472</ele>
        <time>2022-05-22 15:19:25</time>
      </trkpt>
      <trkpt lat="42.35355" lon="1.29348">
        <ele>1472.2</ele>
        <time>2022-05-22 15:19:26</time>
      </trkpt>
      <trkpt lat="42.35353" lon="1.29348">
        <ele>1472.2</ele>
        <time>2022-05-22 15:19:27</time>
      </trkpt>
      <trkpt lat="42.35352" lon="1.29348">
        <ele>1472.4</ele>
        <time>2022-05-22 15:19:28</time>
      </trkpt>
      <trkpt lat="42.3535" lon="1.29347">
        <ele>1472.6</ele>
        <time>2022-05-22 15:19:29</time>
      </trkpt>
      <trkpt lat="42.35348" lon="1.29347">
        <ele>1472.8</ele>
        <time>2022-05-22 15:19:30</time>
      </trkpt>
      <trkpt lat="42.35347" lon="1.29347">
        <ele>1473</ele>
        <time>2022-05-22 15:19:31</time>
      </trkpt>
      <trkpt lat="42.35345" lon="1.29348">
        <ele>1473.2</ele>
        <time>2022-05-22 15:19:32</time>
      </trkpt>
      <trkpt lat="42.35344" lon="1.29349">
        <ele>1473.2</ele>
        <time>2022-05-22 15:19:33</time>
      </trkpt>
      <trkpt lat="42.35342" lon="1.29349">
        <ele>1473.4</ele>
        <time>2022-05-22 15:19:34</time>
      </trkpt>
      <trkpt lat="42.35341" lon="1.2935">
        <ele>1473.6</ele>
        <time>2022-05-22 15:19:35</time>
      </trkpt>
      <trkpt lat="42.35339" lon="1.2935">
        <ele>1473.6</ele>
        <time>2022-05-22 15:19:36</time>
      </trkpt>
      <trkpt lat="42.35337" lon="1.2935">
        <ele>1473.8</ele>
        <time>2022-05-22 15:19:37</time>
      </trkpt>
      <trkpt lat="42.35336" lon="1.29349">
        <ele>1473.8</ele>
        <time>2022-05-22 15:19:38</time>
      </trkpt>
      <trkpt lat="42.35334" lon="1.29349">
        <ele>1474</ele>
        <time>2022-05-22 15:19:39</time>
      </trkpt>
      <trkpt lat="42.35333" lon="1.29348">
        <ele>1474.2</ele>
        <time>2022-05-22 15:19:40</time>
      </trkpt>
      <trkpt lat="42.35331" lon="1.29348">
        <ele>1474.4</ele>
        <time>2022-05-22 15:19:41</time>
      </trkpt>
      <trkpt lat="42.3533" lon="1.29348">
        <ele>1474.4</ele>
        <time>2022-05-22 15:19:42</time>
      </trkpt>
      <trkpt lat="42.35328" lon="1.29348">
        <ele>1474.6</ele>
        <time>2022-05-22 15:19:43</time>
      </trkpt>
      <trkpt lat="42.35326" lon="1.29348">
        <ele>1474.8</ele>
        <time>2022-05-22 15:19:44</time>
      </trkpt>
      <trkpt lat="42.35325" lon="1.29348">
        <ele>1474.8</ele>
        <time>2022-05-22 15:19:45</time>
      </trkpt>
      <trkpt lat="42.35323" lon="1.29348">
        <ele>1475</ele>
        <time>2022-05-22 15:19:46</time>
      </trkpt>
      <trkpt lat="42.35321" lon="1.29348">
        <ele>1475.2</ele>
        <time>2022-05-22 15:19:47</time>
      </trkpt>
      <trkpt lat="42.3532" lon="1.29348">
        <ele>1475.4</ele>
        <time>2022-05-22 15:19:48</time>
      </trkpt>
      <trkpt lat="42.35318" lon="1.29349">
        <ele>1475.6</ele>
        <time>2022-05-22 15:19:49</time>
      </trkpt>
      <trkpt lat="42.35316" lon="1.29349">
        <ele>1475.6</ele>
        <time>2022-05-22 15:19:50</time>
      </trkpt>
      <trkpt lat="42.35315" lon="1.29349">
        <ele>1475.8</ele>
        <time>2022-05-22 15:19:51</time>
      </trkpt>
      <trkpt lat="42.35313" lon="1.29349">
        <ele>1476</ele>
        <time>2022-05-22 15:19:52</time>
      </trkpt>
      <trkpt lat="42.35311" lon="1.29349">
        <ele>1476</ele>
        <time>2022-05-22 15:19:53</time>
      </trkpt>
      <trkpt lat="42.3531" lon="1.29349">
        <ele>1476.2</ele>
        <time>2022-05-22 15:19:54</time>
      </trkpt>
      <trkpt lat="42.35308" lon="1.29348">
        <ele>1476.4</ele>
        <time>2022-05-22 15:19:55</time>
      </trkpt>
      <trkpt lat="42.35307" lon="1.29348">
        <ele>1476.6</ele>
        <time>2022-05-22 15:19:56</time>
      </trkpt>
      <trkpt lat="42.35305" lon="1.29348">
        <ele>1476.8</ele>
        <time>2022-05-22 15:19:57</time>
      </trkpt>
      <trkpt lat="42.35304" lon="1.29349">
        <ele>1476.8</ele>
        <time>2022-05-22 15:19:58</time>
      </trkpt>
      <trkpt lat="42.35302" lon="1.29349">
        <ele>1477</ele>
        <time>2022-05-22 15:19:59</time>
      </trkpt>
      <trkpt lat="42.353" lon="1.29349">
        <ele>1477.2</ele>
        <time>2022-05-22 15:20:00</time>
      </trkpt>
      <trkpt lat="42.35299" lon="1.29349">
        <ele>1477.2</ele>
        <time>2022-05-22 15:20:01</time>
      </trkpt>
      <trkpt lat="42.35297" lon="1.29349">
        <ele>1477.4</ele>
        <time>2022-05-22 15:20:02</time>
      </trkpt>
      <trkpt lat="42.35296" lon="1.2935">
        <ele>1477.6</ele>
        <time>2022-05-22 15:20:03</time>
      </trkpt>
      <trkpt lat="42.35295" lon="1.2935">
        <ele>1477.6</ele>
        <time>2022-05-22 15:20:04</time>
      </trkpt>
      <trkpt lat="42.35293" lon="1.29351">
        <ele>1477.8</ele>
        <time>2022-05-22 15:20:05</time>
      </trkpt>
      <trkpt lat="42.35292" lon="1.29351">
        <ele>1478</ele>
        <time>2022-05-22 15:20:06</time>
      </trkpt>
      <trkpt lat="42.3529" lon="1.29351">
        <ele>1478</ele>
        <time>2022-05-22 15:20:07</time>
      </trkpt>
      <trkpt lat="42.35288" lon="1.29351">
        <ele>1478.2</ele>
        <time>2022-05-22 15:20:08</time>
      </trkpt>
      <trkpt lat="42.35287" lon="1.29351">
        <ele>1478.4</ele>
        <time>2022-05-22 15:20:09</time>
      </trkpt>
      <trkpt lat="42.35285" lon="1.29351">
        <ele>1478.6</ele>
        <time>2022-05-22 15:20:10</time>
      </trkpt>
      <trkpt lat="42.35284" lon="1.29351">
        <ele>1478.6</ele>
        <time>2022-05-22 15:20:11</time>
      </trkpt>
      <trkpt lat="42.35282" lon="1.29351">
        <ele>1478.8</ele>
        <time>2022-05-22 15:20:12</time>
      </trkpt>
      <trkpt lat="42.3528" lon="1.29351">
        <ele>1479</ele>
        <time>2022-05-22 15:20:13</time>
      </trkpt>
      <trkpt lat="42.35279" lon="1.29351">
        <ele>1479.2</ele>
        <time>2022-05-22 15:20:14</time>
      </trkpt>
      <trkpt lat="42.35277" lon="1.29351">
        <ele>1479.2</ele>
        <time>2022-05-22 15:20:15</time>
      </trkpt>
      <trkpt lat="42.35275" lon="1.29351">
        <ele>1479.4</ele>
        <time>2022-05-22 15:20:16</time>
      </trkpt>
      <trkpt lat="42.35274" lon="1.29351">
        <ele>1479.6</ele>
        <time>2022-05-22 15:20:17</time>
      </trkpt>
      <trkpt lat="42.35272" lon="1.29351">
        <ele>1479.8</ele>
        <time>2022-05-22 15:20:18</time>
      </trkpt>
      <trkpt lat="42.3527" lon="1.29351">
        <ele>1479.8</ele>
        <time>2022-05-22 15:20:19</time>
      </trkpt>
      <trkpt lat="42.35268" lon="1.29351">
        <ele>1480</ele>
        <time>2022-05-22 15:20:20</time>
      </trkpt>
      <trkpt lat="42.35267" lon="1.29351">
        <ele>1480.2</ele>
        <time>2022-05-22 15:20:21</time>
      </trkpt>
      <trkpt lat="42.35265" lon="1.29351">
        <ele>1480.2</ele>
        <time>2022-05-22 15:20:22</time>
      </trkpt>
      <trkpt lat="42.35263" lon="1.29352">
        <ele>1480.4</ele>
        <time>2022-05-22 15:20:23</time>
      </trkpt>
      <trkpt lat="42.35261" lon="1.29352">
        <ele>1480.6</ele>
        <time>2022-05-22 15:20:24</time>
      </trkpt>
      <trkpt lat="42.35259" lon="1.29352">
        <ele>1480.6</ele>
        <time>2022-05-22 15:20:25</time>
      </trkpt>
      <trkpt lat="42.35258" lon="1.29352">
        <ele>1480.8</ele>
        <time>2022-05-22 15:20:26</time>
      </trkpt>
      <trkpt lat="42.35256" lon="1.29353">
        <ele>1480.8</ele>
        <time>2022-05-22 15:20:27</time>
      </trkpt>
      <trkpt lat="42.35254" lon="1.29353">
        <ele>1481</ele>
        <time>2022-05-22 15:20:28</time>
      </trkpt>
      <trkpt lat="42.35252" lon="1.29353">
        <ele>1481.2</ele>
        <time>2022-05-22 15:20:29</time>
      </trkpt>
      <trkpt lat="42.35251" lon="1.29353">
        <ele>1481.2</ele>
        <time>2022-05-22 15:20:30</time>
      </trkpt>
      <trkpt lat="42.35249" lon="1.29354">
        <ele>1481.4</ele>
        <time>2022-05-22 15:20:31</time>
      </trkpt>
      <trkpt lat="42.35247" lon="1.29354">
        <ele>1481.6</ele>
        <time>2022-05-22 15:20:32</time>
      </trkpt>
      <trkpt lat="42.35246" lon="1.29354">
        <ele>1481.6</ele>
        <time>2022-05-22 15:20:33</time>
      </trkpt>
      <trkpt lat="42.35244" lon="1.29355">
        <ele>1481.8</ele>
        <time>2022-05-22 15:20:34</time>
      </trkpt>
      <trkpt lat="42.35242" lon="1.29355">
        <ele>1482</ele>
        <time>2022-05-22 15:20:35</time>
      </trkpt>
      <trkpt lat="42.35241" lon="1.29355">
        <ele>1482</ele>
        <time>2022-05-22 15:20:36</time>
      </trkpt>
      <trkpt lat="42.35239" lon="1.29355">
        <ele>1482.2</ele>
        <time>2022-05-22 15:20:37</time>
      </trkpt>
      <trkpt lat="42.35238" lon="1.29356">
        <ele>1482.4</ele>
        <time>2022-05-22 15:20:38</time>
      </trkpt>
      <trkpt lat="42.35236" lon="1.29356">
        <ele>1482.4</ele>
        <time>2022-05-22 15:20:39</time>
      </trkpt>
      <trkpt lat="42.35235" lon="1.29356">
        <ele>1482.6</ele>
        <time>2022-05-22 15:20:40</time>
      </trkpt>
      <trkpt lat="42.35234" lon="1.29357">
        <ele>1482.6</ele>
        <time>2022-05-22 15:20:41</time>
      </trkpt>
      <trkpt lat="42.35232" lon="1.29357">
        <ele>1482.8</ele>
        <time>2022-05-22 15:20:42</time>
      </trkpt>
      <trkpt lat="42.35231" lon="1.29357">
        <ele>1483</ele>
        <time>2022-05-22 15:20:43</time>
      </trkpt>
      <trkpt lat="42.35229" lon="1.29357">
        <ele>1483</ele>
        <time>2022-05-22 15:20:44</time>
      </trkpt>
      <trkpt lat="42.35228" lon="1.29357">
        <ele>1483.2</ele>
        <time>2022-05-22 15:20:45</time>
      </trkpt>
      <trkpt lat="42.35226" lon="1.29357">
        <ele>1483.2</ele>
        <time>2022-05-22 15:20:46</time>
      </trkpt>
      <trkpt lat="42.35225" lon="1.29358">
        <ele>1483.4</ele>
        <time>2022-05-22 15:20:47</time>
      </trkpt>
      <trkpt lat="42.35223" lon="1.29359">
        <ele>1483.6</ele>
        <time>2022-05-22 15:20:48</time>
      </trkpt>
      <trkpt lat="42.35221" lon="1.29359">
        <ele>1483.6</ele>
        <time>2022-05-22 15:20:49</time>
      </trkpt>
      <trkpt lat="42.35219" lon="1.29359">
        <ele>1483.8</ele>
        <time>2022-05-22 15:20:50</time>
      </trkpt>
      <trkpt lat="42.35217" lon="1.2936">
        <ele>1484</ele>
        <time>2022-05-22 15:20:51</time>
      </trkpt>
      <trkpt lat="42.35216" lon="1.2936">
        <ele>1484</ele>
        <time>2022-05-22 15:20:52</time>
      </trkpt>
      <trkpt lat="42.35214" lon="1.2936">
        <ele>1484.2</ele>
        <time>2022-05-22 15:20:53</time>
      </trkpt>
      <trkpt lat="42.35213" lon="1.2936">
        <ele>1484.2</ele>
        <time>2022-05-22 15:20:54</time>
      </trkpt>
      <trkpt lat="42.35211" lon="1.2936">
        <ele>1484.4</ele>
        <time>2022-05-22 15:20:55</time>
      </trkpt>
      <trkpt lat="42.3521" lon="1.2936">
        <ele>1484.6</ele>
        <time>2022-05-22 15:20:56</time>
      </trkpt>
      <trkpt lat="42.35208" lon="1.2936">
        <ele>1484.6</ele>
        <time>2022-05-22 15:20:57</time>
      </trkpt>
      <trkpt lat="42.35207" lon="1.29361">
        <ele>1484.8</ele>
        <time>2022-05-22 15:20:58</time>
      </trkpt>
      <trkpt lat="42.35205" lon="1.29361">
        <ele>1485</ele>
        <time>2022-05-22 15:20:59</time>
      </trkpt>
      <trkpt lat="42.35203" lon="1.29362">
        <ele>1485</ele>
        <time>2022-05-22 15:21:00</time>
      </trkpt>
      <trkpt lat="42.35202" lon="1.29362">
        <ele>1485.2</ele>
        <time>2022-05-22 15:21:01</time>
      </trkpt>
      <trkpt lat="42.352" lon="1.29362">
        <ele>1485.2</ele>
        <time>2022-05-22 15:21:02</time>
      </trkpt>
      <trkpt lat="42.35198" lon="1.29363">
        <ele>1485.4</ele>
        <time>2022-05-22 15:21:03</time>
      </trkpt>
      <trkpt lat="42.35197" lon="1.29363">
        <ele>1485.4</ele>
        <time>2022-05-22 15:21:04</time>
      </trkpt>
      <trkpt lat="42.35195" lon="1.29363">
        <ele>1485.6</ele>
        <time>2022-05-22 15:21:05</time>
      </trkpt>
      <trkpt lat="42.35193" lon="1.29364">
        <ele>1485.8</ele>
        <time>2022-05-22 15:21:06</time>
      </trkpt>
      <trkpt lat="42.35192" lon="1.29364">
        <ele>1485.8</ele>
        <time>2022-05-22 15:21:07</time>
      </trkpt>
      <trkpt lat="42.3519" lon="1.29365">
        <ele>1486</ele>
        <time>2022-05-22 15:21:08</time>
      </trkpt>
      <trkpt lat="42.35188" lon="1.29366">
        <ele>1486</ele>
        <time>2022-05-22 15:21:09</time>
      </trkpt>
      <trkpt lat="42.35187" lon="1.29367">
        <ele>1486.2</ele>
        <time>2022-05-22 15:21:10</time>
      </trkpt>
      <trkpt lat="42.35185" lon="1.29367">
        <ele>1486.4</ele>
        <time>2022-05-22 15:21:11</time>
      </trkpt>
      <trkpt lat="42.35184" lon="1.29368">
        <ele>1486.4</ele>
        <time>2022-05-22 15:21:12</time>
      </trkpt>
      <trkpt lat="42.35182" lon="1.29368">
        <ele>1486.6</ele>
        <time>2022-05-22 15:21:13</time>
      </trkpt>
      <trkpt lat="42.3518" lon="1.29369">
        <ele>1486.8</ele>
        <time>2022-05-22 15:21:14</time>
      </trkpt>
      <trkpt lat="42.35179" lon="1.2937">
        <ele>1486.8</ele>
        <time>2022-05-22 15:21:15</time>
      </trkpt>
      <trkpt lat="42.35177" lon="1.29371">
        <ele>1487</ele>
        <time>2022-05-22 15:21:16</time>
      </trkpt>
      <trkpt lat="42.35176" lon="1.29371">
        <ele>1487.2</ele>
        <time>2022-05-22 15:21:17</time>
      </trkpt>
      <trkpt lat="42.35174" lon="1.29371">
        <ele>1487.2</ele>
        <time>2022-05-22 15:21:18</time>
      </trkpt>
      <trkpt lat="42.35172" lon="1.29371">
        <ele>1487.4</ele>
        <time>2022-05-22 15:21:19</time>
      </trkpt>
      <trkpt lat="42.35171" lon="1.29371">
        <ele>1487.6</ele>
        <time>2022-05-22 15:21:20</time>
      </trkpt>
      <trkpt lat="42.35169" lon="1.29371">
        <ele>1487.6</ele>
        <time>2022-05-22 15:21:21</time>
      </trkpt>
      <trkpt lat="42.35168" lon="1.29372">
        <ele>1487.8</ele>
        <time>2022-05-22 15:21:22</time>
      </trkpt>
      <trkpt lat="42.35166" lon="1.29372">
        <ele>1487.8</ele>
        <time>2022-05-22 15:21:23</time>
      </trkpt>
      <trkpt lat="42.35164" lon="1.29373">
        <ele>1488</ele>
        <time>2022-05-22 15:21:24</time>
      </trkpt>
      <trkpt lat="42.35163" lon="1.29373">
        <ele>1488.2</ele>
        <time>2022-05-22 15:21:25</time>
      </trkpt>
      <trkpt lat="42.35161" lon="1.29373">
        <ele>1488.2</ele>
        <time>2022-05-22 15:21:26</time>
      </trkpt>
      <trkpt lat="42.3516" lon="1.29373">
        <ele>1488.4</ele>
        <time>2022-05-22 15:21:27</time>
      </trkpt>
      <trkpt lat="42.35158" lon="1.29374">
        <ele>1488.4</ele>
        <time>2022-05-22 15:21:28</time>
      </trkpt>
      <trkpt lat="42.35157" lon="1.29374">
        <ele>1488.6</ele>
        <time>2022-05-22 15:21:29</time>
      </trkpt>
      <trkpt lat="42.35155" lon="1.29374">
        <ele>1488.8</ele>
        <time>2022-05-22 15:21:30</time>
      </trkpt>
      <trkpt lat="42.35153" lon="1.29375">
        <ele>1488.8</ele>
        <time>2022-05-22 15:21:31</time>
      </trkpt>
      <trkpt lat="42.35151" lon="1.29375">
        <ele>1489</ele>
        <time>2022-05-22 15:21:32</time>
      </trkpt>
      <trkpt lat="42.35149" lon="1.29376">
        <ele>1489</ele>
        <time>2022-05-22 15:21:33</time>
      </trkpt>
      <trkpt lat="42.35148" lon="1.29376">
        <ele>1489.2</ele>
        <time>2022-05-22 15:21:34</time>
      </trkpt>
      <trkpt lat="42.35146" lon="1.29377">
        <ele>1489.4</ele>
        <time>2022-05-22 15:21:35</time>
      </trkpt>
      <trkpt lat="42.35144" lon="1.29377">
        <ele>1489.4</ele>
        <time>2022-05-22 15:21:36</time>
      </trkpt>
      <trkpt lat="42.35142" lon="1.29377">
        <ele>1489.6</ele>
        <time>2022-05-22 15:21:37</time>
      </trkpt>
      <trkpt lat="42.3514" lon="1.29377">
        <ele>1489.8</ele>
        <time>2022-05-22 15:21:38</time>
      </trkpt>
      <trkpt lat="42.35139" lon="1.29378">
        <ele>1489.8</ele>
        <time>2022-05-22 15:21:39</time>
      </trkpt>
      <trkpt lat="42.35137" lon="1.29378">
        <ele>1490</ele>
        <time>2022-05-22 15:21:40</time>
      </trkpt>
      <trkpt lat="42.35135" lon="1.29378">
        <ele>1490.2</ele>
        <time>2022-05-22 15:21:41</time>
      </trkpt>
      <trkpt lat="42.35134" lon="1.29378">
        <ele>1490.2</ele>
        <time>2022-05-22 15:21:42</time>
      </trkpt>
      <trkpt lat="42.35132" lon="1.29379">
        <ele>1490.4</ele>
        <time>2022-05-22 15:21:43</time>
      </trkpt>
      <trkpt lat="42.3513" lon="1.29379">
        <ele>1490.6</ele>
        <time>2022-05-22 15:21:44</time>
      </trkpt>
      <trkpt lat="42.35128" lon="1.29379">
        <ele>1490.6</ele>
        <time>2022-05-22 15:21:45</time>
      </trkpt>
      <trkpt lat="42.35126" lon="1.2938">
        <ele>1490.8</ele>
        <time>2022-05-22 15:21:46</time>
      </trkpt>
      <trkpt lat="42.35124" lon="1.2938">
        <ele>1491</ele>
        <time>2022-05-22 15:21:47</time>
      </trkpt>
      <trkpt lat="42.35122" lon="1.29381">
        <ele>1491</ele>
        <time>2022-05-22 15:21:48</time>
      </trkpt>
      <trkpt lat="42.35121" lon="1.29381">
        <ele>1491.2</ele>
        <time>2022-05-22 15:21:49</time>
      </trkpt>
      <trkpt lat="42.35119" lon="1.29381">
        <ele>1491.4</ele>
        <time>2022-05-22 15:21:50</time>
      </trkpt>
      <trkpt lat="42.35117" lon="1.29382">
        <ele>1491.4</ele>
        <time>2022-05-22 15:21:51</time>
      </trkpt>
      <trkpt lat="42.35115" lon="1.29382">
        <ele>1491.6</ele>
        <time>2022-05-22 15:21:52</time>
      </trkpt>
      <trkpt lat="42.35114" lon="1.29383">
        <ele>1491.8</ele>
        <time>2022-05-22 15:21:53</time>
      </trkpt>
      <trkpt lat="42.35112" lon="1.29383">
        <ele>1492</ele>
        <time>2022-05-22 15:21:54</time>
      </trkpt>
      <trkpt lat="42.3511" lon="1.29384">
        <ele>1492.2</ele>
        <time>2022-05-22 15:21:55</time>
      </trkpt>
      <trkpt lat="42.35108" lon="1.29385">
        <ele>1492.2</ele>
        <time>2022-05-22 15:21:56</time>
      </trkpt>
      <trkpt lat="42.35106" lon="1.29385">
        <ele>1492.4</ele>
        <time>2022-05-22 15:21:57</time>
      </trkpt>
      <trkpt lat="42.35104" lon="1.29385">
        <ele>1492.6</ele>
        <time>2022-05-22 15:21:58</time>
      </trkpt>
      <trkpt lat="42.35103" lon="1.29385">
        <ele>1492.8</ele>
        <time>2022-05-22 15:21:59</time>
      </trkpt>
      <trkpt lat="42.35102" lon="1.29386">
        <ele>1493</ele>
        <time>2022-05-22 15:22:00</time>
      </trkpt>
      <trkpt lat="42.351" lon="1.29387">
        <ele>1493</ele>
        <time>2022-05-22 15:22:01</time>
      </trkpt>
      <trkpt lat="42.35099" lon="1.29388">
        <ele>1493.2</ele>
        <time>2022-05-22 15:22:02</time>
      </trkpt>
      <trkpt lat="42.35097" lon="1.29388">
        <ele>1493.4</ele>
        <time>2022-05-22 15:22:03</time>
      </trkpt>
      <trkpt lat="42.35095" lon="1.29388">
        <ele>1493.4</ele>
        <time>2022-05-22 15:22:04</time>
      </trkpt>
      <trkpt lat="42.35094" lon="1.29389">
        <ele>1493.6</ele>
        <time>2022-05-22 15:22:05</time>
      </trkpt>
      <trkpt lat="42.35092" lon="1.29389">
        <ele>1493.8</ele>
        <time>2022-05-22 15:22:06</time>
      </trkpt>
      <trkpt lat="42.3509" lon="1.2939">
        <ele>1493.8</ele>
        <time>2022-05-22 15:22:07</time>
      </trkpt>
      <trkpt lat="42.35089" lon="1.2939">
        <ele>1494</ele>
        <time>2022-05-22 15:22:08</time>
      </trkpt>
      <trkpt lat="42.35087" lon="1.2939">
        <ele>1494.2</ele>
        <time>2022-05-22 15:22:09</time>
      </trkpt>
      <trkpt lat="42.35085" lon="1.2939">
        <ele>1494.2</ele>
        <time>2022-05-22 15:22:10</time>
      </trkpt>
      <trkpt lat="42.35084" lon="1.29391">
        <ele>1494.4</ele>
        <time>2022-05-22 15:22:11</time>
      </trkpt>
      <trkpt lat="42.35083" lon="1.29391">
        <ele>1494.6</ele>
        <time>2022-05-22 15:22:12</time>
      </trkpt>
      <trkpt lat="42.35081" lon="1.29392">
        <ele>1494.6</ele>
        <time>2022-05-22 15:22:13</time>
      </trkpt>
      <trkpt lat="42.3508" lon="1.29392">
        <ele>1494.8</ele>
        <time>2022-05-22 15:22:14</time>
      </trkpt>
      <trkpt lat="42.35078" lon="1.29392">
        <ele>1495</ele>
        <time>2022-05-22 15:22:15</time>
      </trkpt>
      <trkpt lat="42.35076" lon="1.29392">
        <ele>1495</ele>
        <time>2022-05-22 15:22:16</time>
      </trkpt>
      <trkpt lat="42.35073" lon="1.29391">
        <ele>1495.2</ele>
        <time>2022-05-22 15:22:17</time>
      </trkpt>
      <trkpt lat="42.35071" lon="1.2939">
        <ele>1495.4</ele>
        <time>2022-05-22 15:22:18</time>
      </trkpt>
      <trkpt lat="42.35068" lon="1.29391">
        <ele>1495.4</ele>
        <time>2022-05-22 15:22:19</time>
      </trkpt>
      <trkpt lat="42.35067" lon="1.29392">
        <ele>1495.6</ele>
        <time>2022-05-22 15:22:20</time>
      </trkpt>
      <trkpt lat="42.35066" lon="1.29393">
        <ele>1495.8</ele>
        <time>2022-05-22 15:22:21</time>
      </trkpt>
      <trkpt lat="42.35064" lon="1.29394">
        <ele>1495.8</ele>
        <time>2022-05-22 15:22:22</time>
      </trkpt>
      <trkpt lat="42.35062" lon="1.29396">
        <ele>1496</ele>
        <time>2022-05-22 15:22:23</time>
      </trkpt>
      <trkpt lat="42.35061" lon="1.29396">
        <ele>1496.2</ele>
        <time>2022-05-22 15:22:24</time>
      </trkpt>
      <trkpt lat="42.35059" lon="1.29396">
        <ele>1496.2</ele>
        <time>2022-05-22 15:22:25</time>
      </trkpt>
      <trkpt lat="42.35058" lon="1.29396">
        <ele>1496.4</ele>
        <time>2022-05-22 15:22:26</time>
      </trkpt>
      <trkpt lat="42.35057" lon="1.29396">
        <ele>1496.6</ele>
        <time>2022-05-22 15:22:27</time>
      </trkpt>
      <trkpt lat="42.35056" lon="1.29397">
        <ele>1496.6</ele>
        <time>2022-05-22 15:22:28</time>
      </trkpt>
      <trkpt lat="42.35054" lon="1.29397">
        <ele>1496.8</ele>
        <time>2022-05-22 15:22:29</time>
      </trkpt>
      <trkpt lat="42.35053" lon="1.29398">
        <ele>1497</ele>
        <time>2022-05-22 15:22:30</time>
      </trkpt>
      <trkpt lat="42.35052" lon="1.29399">
        <ele>1497</ele>
        <time>2022-05-22 15:22:31</time>
      </trkpt>
      <trkpt lat="42.35051" lon="1.294">
        <ele>1497.2</ele>
        <time>2022-05-22 15:22:32</time>
      </trkpt>
      <trkpt lat="42.3505" lon="1.29401">
        <ele>1497.2</ele>
        <time>2022-05-22 15:22:33</time>
      </trkpt>
      <trkpt lat="42.35049" lon="1.29401">
        <ele>1497.4</ele>
        <time>2022-05-22 15:22:34</time>
      </trkpt>
      <trkpt lat="42.35048" lon="1.29402">
        <ele>1497.6</ele>
        <time>2022-05-22 15:22:35</time>
      </trkpt>
      <trkpt lat="42.35046" lon="1.29402">
        <ele>1497.6</ele>
        <time>2022-05-22 15:22:36</time>
      </trkpt>
      <trkpt lat="42.35045" lon="1.29403">
        <ele>1497.8</ele>
        <time>2022-05-22 15:22:37</time>
      </trkpt>
      <trkpt lat="42.35043" lon="1.29404">
        <ele>1498</ele>
        <time>2022-05-22 15:22:38</time>
      </trkpt>
      <trkpt lat="42.35042" lon="1.29404">
        <ele>1498</ele>
        <time>2022-05-22 15:22:39</time>
      </trkpt>
      <trkpt lat="42.3504" lon="1.29405">
        <ele>1498.2</ele>
        <time>2022-05-22 15:22:40</time>
      </trkpt>
      <trkpt lat="42.35039" lon="1.29405">
        <ele>1498.4</ele>
        <time>2022-05-22 15:22:41</time>
      </trkpt>
      <trkpt lat="42.35037" lon="1.29406">
        <ele>1498.4</ele>
        <time>2022-05-22 15:22:42</time>
      </trkpt>
      <trkpt lat="42.35036" lon="1.29407">
        <ele>1498.6</ele>
        <time>2022-05-22 15:22:43</time>
      </trkpt>
      <trkpt lat="42.35035" lon="1.29408">
        <ele>1498.6</ele>
        <time>2022-05-22 15:22:44</time>
      </trkpt>
      <trkpt lat="42.35033" lon="1.29408">
        <ele>1498.8</ele>
        <time>2022-05-22 15:22:45</time>
      </trkpt>
      <trkpt lat="42.35032" lon="1.29409">
        <ele>1499</ele>
        <time>2022-05-22 15:22:46</time>
      </trkpt>
      <trkpt lat="42.3503" lon="1.2941">
        <ele>1499</ele>
        <time>2022-05-22 15:22:47</time>
      </trkpt>
      <trkpt lat="42.35029" lon="1.29411">
        <ele>1499.2</ele>
        <time>2022-05-22 15:22:48</time>
      </trkpt>
      <trkpt lat="42.35027" lon="1.29412">
        <ele>1499.4</ele>
        <time>2022-05-22 15:22:49</time>
      </trkpt>
      <trkpt lat="42.35026" lon="1.29413">
        <ele>1499.4</ele>
        <time>2022-05-22 15:22:50</time>
      </trkpt>
      <trkpt lat="42.35024" lon="1.29413">
        <ele>1499.6</ele>
        <time>2022-05-22 15:22:51</time>
      </trkpt>
      <trkpt lat="42.35022" lon="1.29414">
        <ele>1499.6</ele>
        <time>2022-05-22 15:22:52</time>
      </trkpt>
      <trkpt lat="42.3502" lon="1.29414">
        <ele>1499.8</ele>
        <time>2022-05-22 15:22:53</time>
      </trkpt>
      <trkpt lat="42.35018" lon="1.29414">
        <ele>1500</ele>
        <time>2022-05-22 15:22:54</time>
      </trkpt>
      <trkpt lat="42.35017" lon="1.29415">
        <ele>1500</ele>
        <time>2022-05-22 15:22:55</time>
      </trkpt>
      <trkpt lat="42.35015" lon="1.29416">
        <ele>1500.2</ele>
        <time>2022-05-22 15:22:56</time>
      </trkpt>
      <trkpt lat="42.35014" lon="1.29417">
        <ele>1500.4</ele>
        <time>2022-05-22 15:22:57</time>
      </trkpt>
      <trkpt lat="42.35012" lon="1.29418">
        <ele>1500.6</ele>
        <time>2022-05-22 15:22:58</time>
      </trkpt>
      <trkpt lat="42.3501" lon="1.29418">
        <ele>1500.8</ele>
        <time>2022-05-22 15:22:59</time>
      </trkpt>
      <trkpt lat="42.35008" lon="1.29419">
        <ele>1500.8</ele>
        <time>2022-05-22 15:23:00</time>
      </trkpt>
      <trkpt lat="42.35007" lon="1.29419">
        <ele>1501</ele>
        <time>2022-05-22 15:23:01</time>
      </trkpt>
      <trkpt lat="42.35005" lon="1.2942">
        <ele>1501.2</ele>
        <time>2022-05-22 15:23:02</time>
      </trkpt>
      <trkpt lat="42.35003" lon="1.29421">
        <ele>1501.4</ele>
        <time>2022-05-22 15:23:03</time>
      </trkpt>
      <trkpt lat="42.35001" lon="1.29422">
        <ele>1501.4</ele>
        <time>2022-05-22 15:23:04</time>
      </trkpt>
      <trkpt lat="42.35" lon="1.29423">
        <ele>1501.6</ele>
        <time>2022-05-22 15:23:05</time>
      </trkpt>
      <trkpt lat="42.34998" lon="1.29424">
        <ele>1501.8</ele>
        <time>2022-05-22 15:23:06</time>
      </trkpt>
      <trkpt lat="42.34997" lon="1.29425">
        <ele>1502</ele>
        <time>2022-05-22 15:23:07</time>
      </trkpt>
      <trkpt lat="42.34995" lon="1.29426">
        <ele>1502</ele>
        <time>2022-05-22 15:23:08</time>
      </trkpt>
      <trkpt lat="42.34993" lon="1.29426">
        <ele>1502.2</ele>
        <time>2022-05-22 15:23:09</time>
      </trkpt>
      <trkpt lat="42.34992" lon="1.29427">
        <ele>1502.4</ele>
        <time>2022-05-22 15:23:10</time>
      </trkpt>
      <trkpt lat="42.3499" lon="1.29427">
        <ele>1502.6</ele>
        <time>2022-05-22 15:23:11</time>
      </trkpt>
      <trkpt lat="42.34988" lon="1.29428">
        <ele>1502.6</ele>
        <time>2022-05-22 15:23:12</time>
      </trkpt>
      <trkpt lat="42.34987" lon="1.29429">
        <ele>1502.8</ele>
        <time>2022-05-22 15:23:13</time>
      </trkpt>
      <trkpt lat="42.34985" lon="1.2943">
        <ele>1503</ele>
        <time>2022-05-22 15:23:14</time>
      </trkpt>
      <trkpt lat="42.34984" lon="1.29431">
        <ele>1503.2</ele>
        <time>2022-05-22 15:23:15</time>
      </trkpt>
      <trkpt lat="42.34982" lon="1.29431">
        <ele>1503.2</ele>
        <time>2022-05-22 15:23:16</time>
      </trkpt>
      <trkpt lat="42.3498" lon="1.29431">
        <ele>1503.4</ele>
        <time>2022-05-22 15:23:17</time>
      </trkpt>
      <trkpt lat="42.34978" lon="1.29431">
        <ele>1503.6</ele>
        <time>2022-05-22 15:23:18</time>
      </trkpt>
      <trkpt lat="42.34977" lon="1.29431">
        <ele>1503.6</ele>
        <time>2022-05-22 15:23:19</time>
      </trkpt>
      <trkpt lat="42.34975" lon="1.29431">
        <ele>1503.8</ele>
        <time>2022-05-22 15:23:20</time>
      </trkpt>
      <trkpt lat="42.34973" lon="1.29432">
        <ele>1504</ele>
        <time>2022-05-22 15:23:21</time>
      </trkpt>
      <trkpt lat="42.34971" lon="1.29432">
        <ele>1504</ele>
        <time>2022-05-22 15:23:22</time>
      </trkpt>
      <trkpt lat="42.3497" lon="1.29432">
        <ele>1504.2</ele>
        <time>2022-05-22 15:23:23</time>
      </trkpt>
      <trkpt lat="42.34968" lon="1.29432">
        <ele>1504.4</ele>
        <time>2022-05-22 15:23:24</time>
      </trkpt>
      <trkpt lat="42.34967" lon="1.29433">
        <ele>1504.6</ele>
        <time>2022-05-22 15:23:25</time>
      </trkpt>
      <trkpt lat="42.34965" lon="1.29433">
        <ele>1504.6</ele>
        <time>2022-05-22 15:23:26</time>
      </trkpt>
      <trkpt lat="42.34964" lon="1.29433">
        <ele>1504.8</ele>
        <time>2022-05-22 15:23:27</time>
      </trkpt>
      <trkpt lat="42.34962" lon="1.29433">
        <ele>1505</ele>
        <time>2022-05-22 15:23:28</time>
      </trkpt>
      <trkpt lat="42.3496" lon="1.29433">
        <ele>1505.2</ele>
        <time>2022-05-22 15:23:29</time>
      </trkpt>
      <trkpt lat="42.34959" lon="1.29433">
        <ele>1505.2</ele>
        <time>2022-05-22 15:23:30</time>
      </trkpt>
      <trkpt lat="42.34957" lon="1.29432">
        <ele>1505.4</ele>
        <time>2022-05-22 15:23:31</time>
      </trkpt>
      <trkpt lat="42.34956" lon="1.29432">
        <ele>1505.6</ele>
        <time>2022-05-22 15:23:32</time>
      </trkpt>
      <trkpt lat="42.34955" lon="1.29432">
        <ele>1505.6</ele>
        <time>2022-05-22 15:23:33</time>
      </trkpt>
      <trkpt lat="42.34952" lon="1.29432">
        <ele>1505.8</ele>
        <time>2022-05-22 15:23:34</time>
      </trkpt>
      <trkpt lat="42.3495" lon="1.29432">
        <ele>1506</ele>
        <time>2022-05-22 15:23:35</time>
      </trkpt>
      <trkpt lat="42.34949" lon="1.29432">
        <ele>1506</ele>
        <time>2022-05-22 15:23:36</time>
      </trkpt>
      <trkpt lat="42.34948" lon="1.29432">
        <ele>1506.2</ele>
        <time>2022-05-22 15:23:37</time>
      </trkpt>
      <trkpt lat="42.34946" lon="1.29431">
        <ele>1506.4</ele>
        <time>2022-05-22 15:23:38</time>
      </trkpt>
      <trkpt lat="42.34944" lon="1.29431">
        <ele>1506.4</ele>
        <time>2022-05-22 15:23:39</time>
      </trkpt>
      <trkpt lat="42.34943" lon="1.2943">
        <ele>1506.6</ele>
        <time>2022-05-22 15:23:40</time>
      </trkpt>
      <trkpt lat="42.34941" lon="1.2943">
        <ele>1506.8</ele>
        <time>2022-05-22 15:23:41</time>
      </trkpt>
      <trkpt lat="42.3494" lon="1.29429">
        <ele>1507</ele>
        <time>2022-05-22 15:23:42</time>
      </trkpt>
      <trkpt lat="42.34938" lon="1.29429">
        <ele>1507</ele>
        <time>2022-05-22 15:23:43</time>
      </trkpt>
      <trkpt lat="42.34936" lon="1.29429">
        <ele>1507.2</ele>
        <time>2022-05-22 15:23:44</time>
      </trkpt>
      <trkpt lat="42.34934" lon="1.29428">
        <ele>1507.4</ele>
        <time>2022-05-22 15:23:45</time>
      </trkpt>
      <trkpt lat="42.34933" lon="1.29428">
        <ele>1507.4</ele>
        <time>2022-05-22 15:23:46</time>
      </trkpt>
      <trkpt lat="42.34931" lon="1.29428">
        <ele>1507.6</ele>
        <time>2022-05-22 15:23:47</time>
      </trkpt>
      <trkpt lat="42.34929" lon="1.29427">
        <ele>1507.8</ele>
        <time>2022-05-22 15:23:48</time>
      </trkpt>
      <trkpt lat="42.34928" lon="1.29427">
        <ele>1507.8</ele>
        <time>2022-05-22 15:23:49</time>
      </trkpt>
      <trkpt lat="42.34926" lon="1.29427">
        <ele>1508</ele>
        <time>2022-05-22 15:23:50</time>
      </trkpt>
      <trkpt lat="42.34924" lon="1.29426">
        <ele>1508.2</ele>
        <time>2022-05-22 15:23:51</time>
      </trkpt>
      <trkpt lat="42.34923" lon="1.29426">
        <ele>1508.4</ele>
        <time>2022-05-22 15:23:52</time>
      </trkpt>
      <trkpt lat="42.34921" lon="1.29426">
        <ele>1508.6</ele>
        <time>2022-05-22 15:23:53</time>
      </trkpt>
      <trkpt lat="42.3492" lon="1.29425">
        <ele>1508.6</ele>
        <time>2022-05-22 15:23:54</time>
      </trkpt>
      <trkpt lat="42.34919" lon="1.29425">
        <ele>1508.8</ele>
        <time>2022-05-22 15:23:55</time>
      </trkpt>
      <trkpt lat="42.34917" lon="1.29425">
        <ele>1509</ele>
        <time>2022-05-22 15:23:56</time>
      </trkpt>
      <trkpt lat="42.34916" lon="1.29424">
        <ele>1509</ele>
        <time>2022-05-22 15:23:57</time>
      </trkpt>
      <trkpt lat="42.34913" lon="1.29424">
        <ele>1509.2</ele>
        <time>2022-05-22 15:23:58</time>
      </trkpt>
      <trkpt lat="42.34912" lon="1.29424">
        <ele>1509.4</ele>
        <time>2022-05-22 15:23:59</time>
      </trkpt>
      <trkpt lat="42.3491" lon="1.29423">
        <ele>1509.6</ele>
        <time>2022-05-22 15:24:00</time>
      </trkpt>
      <trkpt lat="42.34909" lon="1.29423">
        <ele>1509.8</ele>
        <time>2022-05-22 15:24:01</time>
      </trkpt>
      <trkpt lat="42.34906" lon="1.29423">
        <ele>1510</ele>
        <time>2022-05-22 15:24:02</time>
      </trkpt>
      <trkpt lat="42.34905" lon="1.29423">
        <ele>1510.2</ele>
        <time>2022-05-22 15:24:03</time>
      </trkpt>
      <trkpt lat="42.34903" lon="1.29423">
        <ele>1510.4</ele>
        <time>2022-05-22 15:24:04</time>
      </trkpt>
      <trkpt lat="42.34902" lon="1.29423">
        <ele>1510.6</ele>
        <time>2022-05-22 15:24:05</time>
      </trkpt>
      <trkpt lat="42.349" lon="1.29423">
        <ele>1510.6</ele>
        <time>2022-05-22 15:24:06</time>
      </trkpt>
      <trkpt lat="42.34899" lon="1.29422">
        <ele>1510.8</ele>
        <time>2022-05-22 15:24:07</time>
      </trkpt>
      <trkpt lat="42.34897" lon="1.29422">
        <ele>1511</ele>
        <time>2022-05-22 15:24:08</time>
      </trkpt>
      <trkpt lat="42.34895" lon="1.29422">
        <ele>1511.2</ele>
        <time>2022-05-22 15:24:09</time>
      </trkpt>
      <trkpt lat="42.34893" lon="1.29422">
        <ele>1511.2</ele>
        <time>2022-05-22 15:24:10</time>
      </trkpt>
      <trkpt lat="42.34891" lon="1.29422">
        <ele>1511.4</ele>
        <time>2022-05-22 15:24:11</time>
      </trkpt>
      <trkpt lat="42.3489" lon="1.29422">
        <ele>1511.6</ele>
        <time>2022-05-22 15:24:12</time>
      </trkpt>
      <trkpt lat="42.34888" lon="1.29423">
        <ele>1511.6</ele>
        <time>2022-05-22 15:24:13</time>
      </trkpt>
      <trkpt lat="42.34887" lon="1.29424">
        <ele>1511.8</ele>
        <time>2022-05-22 15:24:14</time>
      </trkpt>
      <trkpt lat="42.34885" lon="1.29425">
        <ele>1511.8</ele>
        <time>2022-05-22 15:24:15</time>
      </trkpt>
      <trkpt lat="42.34883" lon="1.29426">
        <ele>1512</ele>
        <time>2022-05-22 15:24:16</time>
      </trkpt>
      <trkpt lat="42.34882" lon="1.29426">
        <ele>1512</ele>
        <time>2022-05-22 15:24:17</time>
      </trkpt>
      <trkpt lat="42.3488" lon="1.29426">
        <ele>1512.2</ele>
        <time>2022-05-22 15:24:18</time>
      </trkpt>
      <trkpt lat="42.34879" lon="1.29426">
        <ele>1512.4</ele>
        <time>2022-05-22 15:24:19</time>
      </trkpt>
      <trkpt lat="42.34877" lon="1.29426">
        <ele>1512.4</ele>
        <time>2022-05-22 15:24:20</time>
      </trkpt>
      <trkpt lat="42.34875" lon="1.29426">
        <ele>1512.6</ele>
        <time>2022-05-22 15:24:21</time>
      </trkpt>
      <trkpt lat="42.34873" lon="1.29427">
        <ele>1512.8</ele>
        <time>2022-05-22 15:24:22</time>
      </trkpt>
      <trkpt lat="42.34872" lon="1.29428">
        <ele>1513</ele>
        <time>2022-05-22 15:24:23</time>
      </trkpt>
      <trkpt lat="42.3487" lon="1.29428">
        <ele>1513.2</ele>
        <time>2022-05-22 15:24:24</time>
      </trkpt>
      <trkpt lat="42.34869" lon="1.29429">
        <ele>1513.2</ele>
        <time>2022-05-22 15:24:25</time>
      </trkpt>
      <trkpt lat="42.34867" lon="1.29429">
        <ele>1513.4</ele>
        <time>2022-05-22 15:24:26</time>
      </trkpt>
      <trkpt lat="42.34865" lon="1.2943">
        <ele>1513.6</ele>
        <time>2022-05-22 15:24:27</time>
      </trkpt>
      <trkpt lat="42.34863" lon="1.2943">
        <ele>1513.6</ele>
        <time>2022-05-22 15:24:28</time>
      </trkpt>
      <trkpt lat="42.34862" lon="1.29431">
        <ele>1513.8</ele>
        <time>2022-05-22 15:24:29</time>
      </trkpt>
      <trkpt lat="42.34861" lon="1.29432">
        <ele>1514</ele>
        <time>2022-05-22 15:24:30</time>
      </trkpt>
      <trkpt lat="42.34859" lon="1.29432">
        <ele>1514</ele>
        <time>2022-05-22 15:24:31</time>
      </trkpt>
      <trkpt lat="42.34858" lon="1.29434">
        <ele>1514.2</ele>
        <time>2022-05-22 15:24:32</time>
      </trkpt>
      <trkpt lat="42.34856" lon="1.29434">
        <ele>1514.4</ele>
        <time>2022-05-22 15:24:33</time>
      </trkpt>
      <trkpt lat="42.34854" lon="1.29435">
        <ele>1514.6</ele>
        <time>2022-05-22 15:24:34</time>
      </trkpt>
      <trkpt lat="42.34852" lon="1.29436">
        <ele>1514.6</ele>
        <time>2022-05-22 15:24:35</time>
      </trkpt>
      <trkpt lat="42.34851" lon="1.29437">
        <ele>1514.8</ele>
        <time>2022-05-22 15:24:36</time>
      </trkpt>
      <trkpt lat="42.34849" lon="1.29438">
        <ele>1515</ele>
        <time>2022-05-22 15:24:37</time>
      </trkpt>
      <trkpt lat="42.34847" lon="1.29439">
        <ele>1515.2</ele>
        <time>2022-05-22 15:24:38</time>
      </trkpt>
      <trkpt lat="42.34845" lon="1.2944">
        <ele>1515.2</ele>
        <time>2022-05-22 15:24:39</time>
      </trkpt>
      <trkpt lat="42.34843" lon="1.29441">
        <ele>1515.4</ele>
        <time>2022-05-22 15:24:40</time>
      </trkpt>
      <trkpt lat="42.34842" lon="1.29442">
        <ele>1515.6</ele>
        <time>2022-05-22 15:24:41</time>
      </trkpt>
      <trkpt lat="42.3484" lon="1.29442">
        <ele>1515.8</ele>
        <time>2022-05-22 15:24:42</time>
      </trkpt>
      <trkpt lat="42.34838" lon="1.29444">
        <ele>1516</ele>
        <time>2022-05-22 15:24:43</time>
      </trkpt>
      <trkpt lat="42.34837" lon="1.29445">
        <ele>1516</ele>
        <time>2022-05-22 15:24:44</time>
      </trkpt>
      <trkpt lat="42.34836" lon="1.29446">
        <ele>1516.2</ele>
        <time>2022-05-22 15:24:45</time>
      </trkpt>
      <trkpt lat="42.34834" lon="1.29447">
        <ele>1516.4</ele>
        <time>2022-05-22 15:24:46</time>
      </trkpt>
      <trkpt lat="42.34833" lon="1.29447">
        <ele>1516.6</ele>
        <time>2022-05-22 15:24:47</time>
      </trkpt>
      <trkpt lat="42.34831" lon="1.29448">
        <ele>1516.6</ele>
        <time>2022-05-22 15:24:48</time>
      </trkpt>
      <trkpt lat="42.34829" lon="1.29449">
        <ele>1516.8</ele>
        <time>2022-05-22 15:24:49</time>
      </trkpt>
      <trkpt lat="42.34828" lon="1.2945">
        <ele>1517</ele>
        <time>2022-05-22 15:24:50</time>
      </trkpt>
      <trkpt lat="42.34826" lon="1.29451">
        <ele>1517.2</ele>
        <time>2022-05-22 15:24:51</time>
      </trkpt>
      <trkpt lat="42.34825" lon="1.29452">
        <ele>1517.2</ele>
        <time>2022-05-22 15:24:52</time>
      </trkpt>
      <trkpt lat="42.34823" lon="1.29452">
        <ele>1517.4</ele>
        <time>2022-05-22 15:24:53</time>
      </trkpt>
      <trkpt lat="42.34822" lon="1.29453">
        <ele>1517.6</ele>
        <time>2022-05-22 15:24:54</time>
      </trkpt>
      <trkpt lat="42.34821" lon="1.29454">
        <ele>1517.6</ele>
        <time>2022-05-22 15:24:55</time>
      </trkpt>
      <trkpt lat="42.34819" lon="1.29455">
        <ele>1517.8</ele>
        <time>2022-05-22 15:24:56</time>
      </trkpt>
      <trkpt lat="42.34818" lon="1.29456">
        <ele>1518</ele>
        <time>2022-05-22 15:24:57</time>
      </trkpt>
      <trkpt lat="42.34817" lon="1.29457">
        <ele>1518.2</ele>
        <time>2022-05-22 15:24:58</time>
      </trkpt>
      <trkpt lat="42.34815" lon="1.29458">
        <ele>1518.2</ele>
        <time>2022-05-22 15:24:59</time>
      </trkpt>
      <trkpt lat="42.34814" lon="1.29459">
        <ele>1518.4</ele>
        <time>2022-05-22 15:25:00</time>
      </trkpt>
      <trkpt lat="42.34812" lon="1.29459">
        <ele>1518.6</ele>
        <time>2022-05-22 15:25:01</time>
      </trkpt>
      <trkpt lat="42.34811" lon="1.2946">
        <ele>1518.8</ele>
        <time>2022-05-22 15:25:02</time>
      </trkpt>
      <trkpt lat="42.34809" lon="1.2946">
        <ele>1518.8</ele>
        <time>2022-05-22 15:25:03</time>
      </trkpt>
      <trkpt lat="42.34808" lon="1.2946">
        <ele>1519</ele>
        <time>2022-05-22 15:25:04</time>
      </trkpt>
      <trkpt lat="42.34806" lon="1.29461">
        <ele>1519</ele>
        <time>2022-05-22 15:25:05</time>
      </trkpt>
      <trkpt lat="42.34805" lon="1.29461">
        <ele>1519.2</ele>
        <time>2022-05-22 15:25:06</time>
      </trkpt>
      <trkpt lat="42.34803" lon="1.29462">
        <ele>1519.4</ele>
        <time>2022-05-22 15:25:07</time>
      </trkpt>
      <trkpt lat="42.34801" lon="1.29463">
        <ele>1519.4</ele>
        <time>2022-05-22 15:25:08</time>
      </trkpt>
      <trkpt lat="42.348" lon="1.29464">
        <ele>1519.6</ele>
        <time>2022-05-22 15:25:09</time>
      </trkpt>
      <trkpt lat="42.34798" lon="1.29464">
        <ele>1519.8</ele>
        <time>2022-05-22 15:25:10</time>
      </trkpt>
      <trkpt lat="42.34797" lon="1.29465">
        <ele>1519.8</ele>
        <time>2022-05-22 15:25:11</time>
      </trkpt>
      <trkpt lat="42.34796" lon="1.29466">
        <ele>1520</ele>
        <time>2022-05-22 15:25:12</time>
      </trkpt>
      <trkpt lat="42.34794" lon="1.29467">
        <ele>1520.2</ele>
        <time>2022-05-22 15:25:13</time>
      </trkpt>
      <trkpt lat="42.34792" lon="1.29468">
        <ele>1520.2</ele>
        <time>2022-05-22 15:25:14</time>
      </trkpt>
      <trkpt lat="42.34791" lon="1.29469">
        <ele>1520.4</ele>
        <time>2022-05-22 15:25:15</time>
      </trkpt>
      <trkpt lat="42.34789" lon="1.29469">
        <ele>1520.4</ele>
        <time>2022-05-22 15:25:16</time>
      </trkpt>
      <trkpt lat="42.34788" lon="1.2947">
        <ele>1520.6</ele>
        <time>2022-05-22 15:25:17</time>
      </trkpt>
      <trkpt lat="42.34786" lon="1.29471">
        <ele>1520.8</ele>
        <time>2022-05-22 15:25:18</time>
      </trkpt>
      <trkpt lat="42.34784" lon="1.29472">
        <ele>1520.8</ele>
        <time>2022-05-22 15:25:19</time>
      </trkpt>
      <trkpt lat="42.34783" lon="1.29472">
        <ele>1521</ele>
        <time>2022-05-22 15:25:20</time>
      </trkpt>
      <trkpt lat="42.34781" lon="1.29473">
        <ele>1521</ele>
        <time>2022-05-22 15:25:21</time>
      </trkpt>
      <trkpt lat="42.34779" lon="1.29473">
        <ele>1521.2</ele>
        <time>2022-05-22 15:25:22</time>
      </trkpt>
      <trkpt lat="42.34778" lon="1.29474">
        <ele>1521.2</ele>
        <time>2022-05-22 15:25:23</time>
      </trkpt>
      <trkpt lat="42.34776" lon="1.29475">
        <ele>1521.4</ele>
        <time>2022-05-22 15:25:24</time>
      </trkpt>
      <trkpt lat="42.34775" lon="1.29476">
        <ele>1521.6</ele>
        <time>2022-05-22 15:25:25</time>
      </trkpt>
      <trkpt lat="42.34773" lon="1.29476">
        <ele>1521.6</ele>
        <time>2022-05-22 15:25:26</time>
      </trkpt>
      <trkpt lat="42.34772" lon="1.29477">
        <ele>1521.8</ele>
        <time>2022-05-22 15:25:27</time>
      </trkpt>
      <trkpt lat="42.3477" lon="1.29478">
        <ele>1521.8</ele>
        <time>2022-05-22 15:25:28</time>
      </trkpt>
      <trkpt lat="42.34769" lon="1.29479">
        <ele>1522</ele>
        <time>2022-05-22 15:25:29</time>
      </trkpt>
      <trkpt lat="42.34768" lon="1.29479">
        <ele>1522</ele>
        <time>2022-05-22 15:25:30</time>
      </trkpt>
      <trkpt lat="42.34766" lon="1.29481">
        <ele>1522.2</ele>
        <time>2022-05-22 15:25:31</time>
      </trkpt>
      <trkpt lat="42.34764" lon="1.29481">
        <ele>1522.4</ele>
        <time>2022-05-22 15:25:32</time>
      </trkpt>
      <trkpt lat="42.34763" lon="1.29483">
        <ele>1522.4</ele>
        <time>2022-05-22 15:25:33</time>
      </trkpt>
      <trkpt lat="42.34761" lon="1.29484">
        <ele>1522.6</ele>
        <time>2022-05-22 15:25:34</time>
      </trkpt>
      <trkpt lat="42.3476" lon="1.29485">
        <ele>1522.8</ele>
        <time>2022-05-22 15:25:35</time>
      </trkpt>
      <trkpt lat="42.34759" lon="1.29485">
        <ele>1522.8</ele>
        <time>2022-05-22 15:25:36</time>
      </trkpt>
      <trkpt lat="42.34757" lon="1.29486">
        <ele>1523</ele>
        <time>2022-05-22 15:25:37</time>
      </trkpt>
      <trkpt lat="42.34755" lon="1.29487">
        <ele>1523.2</ele>
        <time>2022-05-22 15:25:38</time>
      </trkpt>
      <trkpt lat="42.34754" lon="1.29488">
        <ele>1523.4</ele>
        <time>2022-05-22 15:25:39</time>
      </trkpt>
      <trkpt lat="42.34752" lon="1.29489">
        <ele>1523.4</ele>
        <time>2022-05-22 15:25:40</time>
      </trkpt>
      <trkpt lat="42.34751" lon="1.2949">
        <ele>1523.6</ele>
        <time>2022-05-22 15:25:41</time>
      </trkpt>
      <trkpt lat="42.34749" lon="1.29492">
        <ele>1523.8</ele>
        <time>2022-05-22 15:25:42</time>
      </trkpt>
      <trkpt lat="42.34747" lon="1.29493">
        <ele>1524</ele>
        <time>2022-05-22 15:25:43</time>
      </trkpt>
      <trkpt lat="42.34746" lon="1.29494">
        <ele>1524</ele>
        <time>2022-05-22 15:25:44</time>
      </trkpt>
      <trkpt lat="42.34744" lon="1.29495">
        <ele>1524.2</ele>
        <time>2022-05-22 15:25:45</time>
      </trkpt>
      <trkpt lat="42.34743" lon="1.29496">
        <ele>1524.4</ele>
        <time>2022-05-22 15:25:46</time>
      </trkpt>
      <trkpt lat="42.34741" lon="1.29497">
        <ele>1524.4</ele>
        <time>2022-05-22 15:25:47</time>
      </trkpt>
      <trkpt lat="42.3474" lon="1.29498">
        <ele>1524.6</ele>
        <time>2022-05-22 15:25:48</time>
      </trkpt>
      <trkpt lat="42.34738" lon="1.29498">
        <ele>1524.6</ele>
        <time>2022-05-22 15:25:49</time>
      </trkpt>
      <trkpt lat="42.34737" lon="1.29499">
        <ele>1524.6</ele>
        <time>2022-05-22 15:25:50</time>
      </trkpt>
      <trkpt lat="42.34736" lon="1.29499">
        <ele>1524.8</ele>
        <time>2022-05-22 15:25:51</time>
      </trkpt>
      <trkpt lat="42.34734" lon="1.295">
        <ele>1525</ele>
        <time>2022-05-22 15:25:52</time>
      </trkpt>
      <trkpt lat="42.34733" lon="1.29501">
        <ele>1525.2</ele>
        <time>2022-05-22 15:25:53</time>
      </trkpt>
      <trkpt lat="42.34731" lon="1.29501">
        <ele>1525.4</ele>
        <time>2022-05-22 15:25:54</time>
      </trkpt>
      <trkpt lat="42.34729" lon="1.29502">
        <ele>1525.6</ele>
        <time>2022-05-22 15:25:55</time>
      </trkpt>
      <trkpt lat="42.34728" lon="1.29503">
        <ele>1525.8</ele>
        <time>2022-05-22 15:25:56</time>
      </trkpt>
      <trkpt lat="42.34727" lon="1.29503">
        <ele>1525.8</ele>
        <time>2022-05-22 15:25:57</time>
      </trkpt>
      <trkpt lat="42.34725" lon="1.29504">
        <ele>1526</ele>
        <time>2022-05-22 15:25:58</time>
      </trkpt>
      <trkpt lat="42.34724" lon="1.29505">
        <ele>1526.2</ele>
        <time>2022-05-22 15:25:59</time>
      </trkpt>
      <trkpt lat="42.34722" lon="1.29505">
        <ele>1526.2</ele>
        <time>2022-05-22 15:26:00</time>
      </trkpt>
      <trkpt lat="42.3472" lon="1.29506">
        <ele>1526.4</ele>
        <time>2022-05-22 15:26:01</time>
      </trkpt>
      <trkpt lat="42.34719" lon="1.29507">
        <ele>1526.6</ele>
        <time>2022-05-22 15:26:02</time>
      </trkpt>
      <trkpt lat="42.34717" lon="1.29508">
        <ele>1526.8</ele>
        <time>2022-05-22 15:26:03</time>
      </trkpt>
      <trkpt lat="42.34716" lon="1.29508">
        <ele>1526.8</ele>
        <time>2022-05-22 15:26:04</time>
      </trkpt>
      <trkpt lat="42.34713" lon="1.29509">
        <ele>1527</ele>
        <time>2022-05-22 15:26:05</time>
      </trkpt>
      <trkpt lat="42.34711" lon="1.2951">
        <ele>1527.2</ele>
        <time>2022-05-22 15:26:06</time>
      </trkpt>
      <trkpt lat="42.34709" lon="1.2951">
        <ele>1527.4</ele>
        <time>2022-05-22 15:26:07</time>
      </trkpt>
      <trkpt lat="42.34708" lon="1.29511">
        <ele>1527.6</ele>
        <time>2022-05-22 15:26:08</time>
      </trkpt>
      <trkpt lat="42.34705" lon="1.29512">
        <ele>1527.8</ele>
        <time>2022-05-22 15:26:09</time>
      </trkpt>
      <trkpt lat="42.34703" lon="1.29513">
        <ele>1528</ele>
        <time>2022-05-22 15:26:10</time>
      </trkpt>
      <trkpt lat="42.34701" lon="1.29513">
        <ele>1528</ele>
        <time>2022-05-22 15:26:11</time>
      </trkpt>
      <trkpt lat="42.34699" lon="1.29514">
        <ele>1528.2</ele>
        <time>2022-05-22 15:26:12</time>
      </trkpt>
      <trkpt lat="42.34697" lon="1.29515">
        <ele>1528.4</ele>
        <time>2022-05-22 15:26:13</time>
      </trkpt>
      <trkpt lat="42.34695" lon="1.29515">
        <ele>1528.6</ele>
        <time>2022-05-22 15:26:14</time>
      </trkpt>
      <trkpt lat="42.34692" lon="1.29516">
        <ele>1528.8</ele>
        <time>2022-05-22 15:26:15</time>
      </trkpt>
      <trkpt lat="42.3469" lon="1.29516">
        <ele>1529</ele>
        <time>2022-05-22 15:26:16</time>
      </trkpt>
      <trkpt lat="42.34688" lon="1.29517">
        <ele>1529.2</ele>
        <time>2022-05-22 15:26:17</time>
      </trkpt>
      <trkpt lat="42.34686" lon="1.29518">
        <ele>1529.4</ele>
        <time>2022-05-22 15:26:18</time>
      </trkpt>
      <trkpt lat="42.34684" lon="1.29519">
        <ele>1529.6</ele>
        <time>2022-05-22 15:26:19</time>
      </trkpt>
      <trkpt lat="42.34682" lon="1.29519">
        <ele>1529.8</ele>
        <time>2022-05-22 15:26:20</time>
      </trkpt>
      <trkpt lat="42.3468" lon="1.2952">
        <ele>1530</ele>
        <time>2022-05-22 15:26:21</time>
      </trkpt>
      <trkpt lat="42.34679" lon="1.29522">
        <ele>1530</ele>
        <time>2022-05-22 15:26:22</time>
      </trkpt>
      <trkpt lat="42.34677" lon="1.29523">
        <ele>1530.2</ele>
        <time>2022-05-22 15:26:23</time>
      </trkpt>
      <trkpt lat="42.34674" lon="1.29523">
        <ele>1530.4</ele>
        <time>2022-05-22 15:26:24</time>
      </trkpt>
      <trkpt lat="42.34673" lon="1.29524">
        <ele>1530.6</ele>
        <time>2022-05-22 15:26:25</time>
      </trkpt>
      <trkpt lat="42.3467" lon="1.29526">
        <ele>1530.8</ele>
        <time>2022-05-22 15:26:26</time>
      </trkpt>
      <trkpt lat="42.34668" lon="1.29527">
        <ele>1531</ele>
        <time>2022-05-22 15:26:27</time>
      </trkpt>
      <trkpt lat="42.34666" lon="1.29528">
        <ele>1531.2</ele>
        <time>2022-05-22 15:26:28</time>
      </trkpt>
      <trkpt lat="42.34664" lon="1.29528">
        <ele>1531.4</ele>
        <time>2022-05-22 15:26:29</time>
      </trkpt>
      <trkpt lat="42.34663" lon="1.29529">
        <ele>1531.4</ele>
        <time>2022-05-22 15:26:30</time>
      </trkpt>
      <trkpt lat="42.34659" lon="1.2953">
        <ele>1531.8</ele>
        <time>2022-05-22 15:26:31</time>
      </trkpt>
      <trkpt lat="42.34658" lon="1.29531">
        <ele>1532</ele>
        <time>2022-05-22 15:26:32</time>
      </trkpt>
      <trkpt lat="42.34656" lon="1.29532">
        <ele>1532</ele>
        <time>2022-05-22 15:26:33</time>
      </trkpt>
      <trkpt lat="42.34654" lon="1.29534">
        <ele>1532.2</ele>
        <time>2022-05-22 15:26:34</time>
      </trkpt>
      <trkpt lat="42.34652" lon="1.29534">
        <ele>1532.4</ele>
        <time>2022-05-22 15:26:35</time>
      </trkpt>
      <trkpt lat="42.3465" lon="1.29536">
        <ele>1532.6</ele>
        <time>2022-05-22 15:26:36</time>
      </trkpt>
      <trkpt lat="42.34648" lon="1.29537">
        <ele>1532.8</ele>
        <time>2022-05-22 15:26:37</time>
      </trkpt>
      <trkpt lat="42.34646" lon="1.29538">
        <ele>1533</ele>
        <time>2022-05-22 15:26:38</time>
      </trkpt>
      <trkpt lat="42.34645" lon="1.2954">
        <ele>1533.2</ele>
        <time>2022-05-22 15:26:39</time>
      </trkpt>
      <trkpt lat="42.34643" lon="1.29541">
        <ele>1533.2</ele>
        <time>2022-05-22 15:26:40</time>
      </trkpt>
      <trkpt lat="42.34641" lon="1.29543">
        <ele>1533.4</ele>
        <time>2022-05-22 15:26:41</time>
      </trkpt>
      <trkpt lat="42.34639" lon="1.29544">
        <ele>1533.6</ele>
        <time>2022-05-22 15:26:42</time>
      </trkpt>
      <trkpt lat="42.34637" lon="1.29545">
        <ele>1533.8</ele>
        <time>2022-05-22 15:26:43</time>
      </trkpt>
      <trkpt lat="42.34635" lon="1.29546">
        <ele>1534</ele>
        <time>2022-05-22 15:26:44</time>
      </trkpt>
      <trkpt lat="42.34634" lon="1.29547">
        <ele>1534</ele>
        <time>2022-05-22 15:26:45</time>
      </trkpt>
      <trkpt lat="42.34631" lon="1.29549">
        <ele>1534.2</ele>
        <time>2022-05-22 15:26:46</time>
      </trkpt>
      <trkpt lat="42.34629" lon="1.2955">
        <ele>1534.4</ele>
        <time>2022-05-22 15:26:47</time>
      </trkpt>
      <trkpt lat="42.34628" lon="1.29551">
        <ele>1534.4</ele>
        <time>2022-05-22 15:26:48</time>
      </trkpt>
      <trkpt lat="42.34626" lon="1.29552">
        <ele>1534.6</ele>
        <time>2022-05-22 15:26:49</time>
      </trkpt>
      <trkpt lat="42.34625" lon="1.29554">
        <ele>1534.8</ele>
        <time>2022-05-22 15:26:50</time>
      </trkpt>
      <trkpt lat="42.34623" lon="1.29555">
        <ele>1535</ele>
        <time>2022-05-22 15:26:51</time>
      </trkpt>
      <trkpt lat="42.34621" lon="1.29557">
        <ele>1535.2</ele>
        <time>2022-05-22 15:26:52</time>
      </trkpt>
      <trkpt lat="42.34619" lon="1.29558">
        <ele>1535.2</ele>
        <time>2022-05-22 15:26:53</time>
      </trkpt>
      <trkpt lat="42.34617" lon="1.29559">
        <ele>1535.4</ele>
        <time>2022-05-22 15:26:54</time>
      </trkpt>
      <trkpt lat="42.34615" lon="1.29561">
        <ele>1535.6</ele>
        <time>2022-05-22 15:26:55</time>
      </trkpt>
      <trkpt lat="42.34613" lon="1.29562">
        <ele>1535.8</ele>
        <time>2022-05-22 15:26:56</time>
      </trkpt>
      <trkpt lat="42.34611" lon="1.29563">
        <ele>1536</ele>
        <time>2022-05-22 15:26:57</time>
      </trkpt>
      <trkpt lat="42.34609" lon="1.29564">
        <ele>1536.2</ele>
        <time>2022-05-22 15:26:58</time>
      </trkpt>
      <trkpt lat="42.34608" lon="1.29565">
        <ele>1536.2</ele>
        <time>2022-05-22 15:26:59</time>
      </trkpt>
      <trkpt lat="42.34606" lon="1.29566">
        <ele>1536.4</ele>
        <time>2022-05-22 15:27:00</time>
      </trkpt>
      <trkpt lat="42.34603" lon="1.29568">
        <ele>1536.6</ele>
        <time>2022-05-22 15:27:01</time>
      </trkpt>
      <trkpt lat="42.34602" lon="1.29569">
        <ele>1536.8</ele>
        <time>2022-05-22 15:27:02</time>
      </trkpt>
      <trkpt lat="42.346" lon="1.2957">
        <ele>1537</ele>
        <time>2022-05-22 15:27:03</time>
      </trkpt>
      <trkpt lat="42.34598" lon="1.29571">
        <ele>1537.2</ele>
        <time>2022-05-22 15:27:04</time>
      </trkpt>
      <trkpt lat="42.34597" lon="1.29572">
        <ele>1537.2</ele>
        <time>2022-05-22 15:27:05</time>
      </trkpt>
      <trkpt lat="42.34595" lon="1.29574">
        <ele>1537.4</ele>
        <time>2022-05-22 15:27:06</time>
      </trkpt>
      <trkpt lat="42.34593" lon="1.29575">
        <ele>1537.6</ele>
        <time>2022-05-22 15:27:07</time>
      </trkpt>
      <trkpt lat="42.34591" lon="1.29576">
        <ele>1537.8</ele>
        <time>2022-05-22 15:27:08</time>
      </trkpt>
      <trkpt lat="42.34589" lon="1.29576">
        <ele>1537.8</ele>
        <time>2022-05-22 15:27:09</time>
      </trkpt>
      <trkpt lat="42.34588" lon="1.29577">
        <ele>1538</ele>
        <time>2022-05-22 15:27:10</time>
      </trkpt>
      <trkpt lat="42.34586" lon="1.29579">
        <ele>1538.2</ele>
        <time>2022-05-22 15:27:11</time>
      </trkpt>
      <trkpt lat="42.34585" lon="1.2958">
        <ele>1538.4</ele>
        <time>2022-05-22 15:27:12</time>
      </trkpt>
      <trkpt lat="42.34583" lon="1.2958">
        <ele>1538.6</ele>
        <time>2022-05-22 15:27:13</time>
      </trkpt>
      <trkpt lat="42.34581" lon="1.29581">
        <ele>1538.8</ele>
        <time>2022-05-22 15:27:14</time>
      </trkpt>
      <trkpt lat="42.34579" lon="1.29582">
        <ele>1539</ele>
        <time>2022-05-22 15:27:15</time>
      </trkpt>
      <trkpt lat="42.34577" lon="1.29583">
        <ele>1539.2</ele>
        <time>2022-05-22 15:27:16</time>
      </trkpt>
      <trkpt lat="42.34575" lon="1.29584">
        <ele>1539.4</ele>
        <time>2022-05-22 15:27:17</time>
      </trkpt>
      <trkpt lat="42.34574" lon="1.29585">
        <ele>1539.6</ele>
        <time>2022-05-22 15:27:18</time>
      </trkpt>
      <trkpt lat="42.34572" lon="1.29586">
        <ele>1539.8</ele>
        <time>2022-05-22 15:27:19</time>
      </trkpt>
      <trkpt lat="42.3457" lon="1.29587">
        <ele>1539.8</ele>
        <time>2022-05-22 15:27:20</time>
      </trkpt>
      <trkpt lat="42.34569" lon="1.29588">
        <ele>1540</ele>
        <time>2022-05-22 15:27:21</time>
      </trkpt>
      <trkpt lat="42.34566" lon="1.29589">
        <ele>1540.4</ele>
        <time>2022-05-22 15:27:22</time>
      </trkpt>
      <trkpt lat="42.34564" lon="1.29591">
        <ele>1540.6</ele>
        <time>2022-05-22 15:27:23</time>
      </trkpt>
      <trkpt lat="42.34563" lon="1.29592">
        <ele>1540.6</ele>
        <time>2022-05-22 15:27:24</time>
      </trkpt>
      <trkpt lat="42.34561" lon="1.29593">
        <ele>1540.8</ele>
        <time>2022-05-22 15:27:25</time>
      </trkpt>
      <trkpt lat="42.34558" lon="1.29594">
        <ele>1541</ele>
        <time>2022-05-22 15:27:26</time>
      </trkpt>
      <trkpt lat="42.34557" lon="1.29595">
        <ele>1541.2</ele>
        <time>2022-05-22 15:27:27</time>
      </trkpt>
      <trkpt lat="42.34555" lon="1.29596">
        <ele>1541.4</ele>
        <time>2022-05-22 15:27:28</time>
      </trkpt>
      <trkpt lat="42.34553" lon="1.29598">
        <ele>1541.6</ele>
        <time>2022-05-22 15:27:29</time>
      </trkpt>
      <trkpt lat="42.34552" lon="1.29599">
        <ele>1541.8</ele>
        <time>2022-05-22 15:27:30</time>
      </trkpt>
      <trkpt lat="42.3455" lon="1.296">
        <ele>1541.8</ele>
        <time>2022-05-22 15:27:31</time>
      </trkpt>
      <trkpt lat="42.34549" lon="1.29601">
        <ele>1542</ele>
        <time>2022-05-22 15:27:32</time>
      </trkpt>
      <trkpt lat="42.34547" lon="1.29602">
        <ele>1542.2</ele>
        <time>2022-05-22 15:27:33</time>
      </trkpt>
      <trkpt lat="42.34545" lon="1.29603">
        <ele>1542.4</ele>
        <time>2022-05-22 15:27:34</time>
      </trkpt>
      <trkpt lat="42.34544" lon="1.29604">
        <ele>1542.4</ele>
        <time>2022-05-22 15:27:35</time>
      </trkpt>
      <trkpt lat="42.34543" lon="1.29604">
        <ele>1542.6</ele>
        <time>2022-05-22 15:27:36</time>
      </trkpt>
      <trkpt lat="42.34541" lon="1.29605">
        <ele>1542.8</ele>
        <time>2022-05-22 15:27:37</time>
      </trkpt>
      <trkpt lat="42.34539" lon="1.29606">
        <ele>1543</ele>
        <time>2022-05-22 15:27:38</time>
      </trkpt>
      <trkpt lat="42.34537" lon="1.29607">
        <ele>1543</ele>
        <time>2022-05-22 15:27:39</time>
      </trkpt>
      <trkpt lat="42.34536" lon="1.29608">
        <ele>1543.2</ele>
        <time>2022-05-22 15:27:40</time>
      </trkpt>
      <trkpt lat="42.34534" lon="1.29609">
        <ele>1543.4</ele>
        <time>2022-05-22 15:27:41</time>
      </trkpt>
      <trkpt lat="42.34532" lon="1.2961">
        <ele>1543.4</ele>
        <time>2022-05-22 15:27:42</time>
      </trkpt>
      <trkpt lat="42.34531" lon="1.29611">
        <ele>1543.6</ele>
        <time>2022-05-22 15:27:43</time>
      </trkpt>
      <trkpt lat="42.34529" lon="1.29612">
        <ele>1543.6</ele>
        <time>2022-05-22 15:27:44</time>
      </trkpt>
      <trkpt lat="42.34528" lon="1.29612">
        <ele>1543.8</ele>
        <time>2022-05-22 15:27:45</time>
      </trkpt>
      <trkpt lat="42.34526" lon="1.29613">
        <ele>1543.8</ele>
        <time>2022-05-22 15:27:46</time>
      </trkpt>
      <trkpt lat="42.34525" lon="1.29615">
        <ele>1544</ele>
        <time>2022-05-22 15:27:47</time>
      </trkpt>
      <trkpt lat="42.34523" lon="1.29616">
        <ele>1544</ele>
        <time>2022-05-22 15:27:48</time>
      </trkpt>
      <trkpt lat="42.34521" lon="1.29617">
        <ele>1544.2</ele>
        <time>2022-05-22 15:27:49</time>
      </trkpt>
      <trkpt lat="42.3452" lon="1.29617">
        <ele>1544.4</ele>
        <time>2022-05-22 15:27:50</time>
      </trkpt>
      <trkpt lat="42.34518" lon="1.29618">
        <ele>1544.4</ele>
        <time>2022-05-22 15:27:51</time>
      </trkpt>
      <trkpt lat="42.34516" lon="1.29618">
        <ele>1544.6</ele>
        <time>2022-05-22 15:27:52</time>
      </trkpt>
      <trkpt lat="42.34514" lon="1.29619">
        <ele>1544.6</ele>
        <time>2022-05-22 15:27:53</time>
      </trkpt>
      <trkpt lat="42.34512" lon="1.29619">
        <ele>1544.8</ele>
        <time>2022-05-22 15:27:54</time>
      </trkpt>
      <trkpt lat="42.3451" lon="1.2962">
        <ele>1544.8</ele>
        <time>2022-05-22 15:27:55</time>
      </trkpt>
      <trkpt lat="42.34508" lon="1.29621">
        <ele>1545</ele>
        <time>2022-05-22 15:27:56</time>
      </trkpt>
      <trkpt lat="42.34506" lon="1.29621">
        <ele>1545</ele>
        <time>2022-05-22 15:27:57</time>
      </trkpt>
      <trkpt lat="42.34504" lon="1.29622">
        <ele>1545.2</ele>
        <time>2022-05-22 15:27:58</time>
      </trkpt>
      <trkpt lat="42.34502" lon="1.29623">
        <ele>1545.4</ele>
        <time>2022-05-22 15:27:59</time>
      </trkpt>
      <trkpt lat="42.345" lon="1.29624">
        <ele>1545.6</ele>
        <time>2022-05-22 15:28:00</time>
      </trkpt>
      <trkpt lat="42.34498" lon="1.29626">
        <ele>1545.6</ele>
        <time>2022-05-22 15:28:01</time>
      </trkpt>
      <trkpt lat="42.34496" lon="1.29627">
        <ele>1545.8</ele>
        <time>2022-05-22 15:28:02</time>
      </trkpt>
      <trkpt lat="42.34494" lon="1.29628">
        <ele>1545.8</ele>
        <time>2022-05-22 15:28:03</time>
      </trkpt>
      <trkpt lat="42.34492" lon="1.29629">
        <ele>1546</ele>
        <time>2022-05-22 15:28:04</time>
      </trkpt>
      <trkpt lat="42.3449" lon="1.29631">
        <ele>1546</ele>
        <time>2022-05-22 15:28:05</time>
      </trkpt>
      <trkpt lat="42.34488" lon="1.29632">
        <ele>1546.2</ele>
        <time>2022-05-22 15:28:06</time>
      </trkpt>
      <trkpt lat="42.34486" lon="1.29633">
        <ele>1546.2</ele>
        <time>2022-05-22 15:28:07</time>
      </trkpt>
      <trkpt lat="42.34484" lon="1.29634">
        <ele>1546.4</ele>
        <time>2022-05-22 15:28:08</time>
      </trkpt>
      <trkpt lat="42.34482" lon="1.29636">
        <ele>1546.4</ele>
        <time>2022-05-22 15:28:09</time>
      </trkpt>
      <trkpt lat="42.3448" lon="1.29637">
        <ele>1546.6</ele>
        <time>2022-05-22 15:28:10</time>
      </trkpt>
      <trkpt lat="42.34477" lon="1.29638">
        <ele>1546.8</ele>
        <time>2022-05-22 15:28:11</time>
      </trkpt>
      <trkpt lat="42.34475" lon="1.29639">
        <ele>1547</ele>
        <time>2022-05-22 15:28:12</time>
      </trkpt>
      <trkpt lat="42.34474" lon="1.29641">
        <ele>1547.4</ele>
        <time>2022-05-22 15:28:13</time>
      </trkpt>
      <trkpt lat="42.34472" lon="1.29642">
        <ele>1547.6</ele>
        <time>2022-05-22 15:28:14</time>
      </trkpt>
      <trkpt lat="42.3447" lon="1.29644">
        <ele>1547.8</ele>
        <time>2022-05-22 15:28:15</time>
      </trkpt>
      <trkpt lat="42.34469" lon="1.29645">
        <ele>1548</ele>
        <time>2022-05-22 15:28:16</time>
      </trkpt>
      <trkpt lat="42.34467" lon="1.29646">
        <ele>1548</ele>
        <time>2022-05-22 15:28:17</time>
      </trkpt>
      <trkpt lat="42.34466" lon="1.29647">
        <ele>1548.2</ele>
        <time>2022-05-22 15:28:18</time>
      </trkpt>
      <trkpt lat="42.34464" lon="1.29648">
        <ele>1548.4</ele>
        <time>2022-05-22 15:28:19</time>
      </trkpt>
      <trkpt lat="42.34461" lon="1.29649">
        <ele>1548.4</ele>
        <time>2022-05-22 15:28:20</time>
      </trkpt>
      <trkpt lat="42.3446" lon="1.29649">
        <ele>1548.6</ele>
        <time>2022-05-22 15:28:21</time>
      </trkpt>
      <trkpt lat="42.34458" lon="1.29651">
        <ele>1548.8</ele>
        <time>2022-05-22 15:28:22</time>
      </trkpt>
      <trkpt lat="42.34456" lon="1.29652">
        <ele>1548.8</ele>
        <time>2022-05-22 15:28:23</time>
      </trkpt>
      <trkpt lat="42.34454" lon="1.29653">
        <ele>1549</ele>
        <time>2022-05-22 15:28:24</time>
      </trkpt>
      <trkpt lat="42.34452" lon="1.29654">
        <ele>1549</ele>
        <time>2022-05-22 15:28:25</time>
      </trkpt>
      <trkpt lat="42.34451" lon="1.29655">
        <ele>1549.2</ele>
        <time>2022-05-22 15:28:26</time>
      </trkpt>
      <trkpt lat="42.34449" lon="1.29656">
        <ele>1549.2</ele>
        <time>2022-05-22 15:28:27</time>
      </trkpt>
      <trkpt lat="42.34448" lon="1.29657">
        <ele>1549.4</ele>
        <time>2022-05-22 15:28:28</time>
      </trkpt>
      <trkpt lat="42.34446" lon="1.29658">
        <ele>1549.6</ele>
        <time>2022-05-22 15:28:29</time>
      </trkpt>
      <trkpt lat="42.34444" lon="1.29659">
        <ele>1549.6</ele>
        <time>2022-05-22 15:28:30</time>
      </trkpt>
      <trkpt lat="42.34442" lon="1.2966">
        <ele>1549.8</ele>
        <time>2022-05-22 15:28:31</time>
      </trkpt>
      <trkpt lat="42.34441" lon="1.29661">
        <ele>1550</ele>
        <time>2022-05-22 15:28:32</time>
      </trkpt>
      <trkpt lat="42.34439" lon="1.29663">
        <ele>1550</ele>
        <time>2022-05-22 15:28:33</time>
      </trkpt>
      <trkpt lat="42.34437" lon="1.29664">
        <ele>1550.4</ele>
        <time>2022-05-22 15:28:34</time>
      </trkpt>
      <trkpt lat="42.34436" lon="1.29665">
        <ele>1550.6</ele>
        <time>2022-05-22 15:28:35</time>
      </trkpt>
      <trkpt lat="42.34434" lon="1.29667">
        <ele>1550.8</ele>
        <time>2022-05-22 15:28:36</time>
      </trkpt>
      <trkpt lat="42.34432" lon="1.29668">
        <ele>1551</ele>
        <time>2022-05-22 15:28:37</time>
      </trkpt>
      <trkpt lat="42.34431" lon="1.29669">
        <ele>1551.2</ele>
        <time>2022-05-22 15:28:38</time>
      </trkpt>
      <trkpt lat="42.34429" lon="1.2967">
        <ele>1551.4</ele>
        <time>2022-05-22 15:28:39</time>
      </trkpt>
      <trkpt lat="42.34427" lon="1.29671">
        <ele>1551.4</ele>
        <time>2022-05-22 15:28:40</time>
      </trkpt>
      <trkpt lat="42.34425" lon="1.29673">
        <ele>1551.6</ele>
        <time>2022-05-22 15:28:41</time>
      </trkpt>
      <trkpt lat="42.34423" lon="1.29674">
        <ele>1551.8</ele>
        <time>2022-05-22 15:28:42</time>
      </trkpt>
      <trkpt lat="42.34422" lon="1.29675">
        <ele>1552</ele>
        <time>2022-05-22 15:28:43</time>
      </trkpt>
      <trkpt lat="42.3442" lon="1.29676">
        <ele>1552.2</ele>
        <time>2022-05-22 15:28:44</time>
      </trkpt>
      <trkpt lat="42.34418" lon="1.29678">
        <ele>1552.4</ele>
        <time>2022-05-22 15:28:45</time>
      </trkpt>
      <trkpt lat="42.34416" lon="1.29679">
        <ele>1552.6</ele>
        <time>2022-05-22 15:28:46</time>
      </trkpt>
      <trkpt lat="42.34415" lon="1.2968">
        <ele>1552.6</ele>
        <time>2022-05-22 15:28:47</time>
      </trkpt>
      <trkpt lat="42.34413" lon="1.29681">
        <ele>1552.8</ele>
        <time>2022-05-22 15:28:48</time>
      </trkpt>
      <trkpt lat="42.34411" lon="1.29682">
        <ele>1553</ele>
        <time>2022-05-22 15:28:49</time>
      </trkpt>
      <trkpt lat="42.34409" lon="1.29683">
        <ele>1553.2</ele>
        <time>2022-05-22 15:28:50</time>
      </trkpt>
      <trkpt lat="42.34408" lon="1.29685">
        <ele>1553.4</ele>
        <time>2022-05-22 15:28:51</time>
      </trkpt>
      <trkpt lat="42.34406" lon="1.29686">
        <ele>1553.6</ele>
        <time>2022-05-22 15:28:52</time>
      </trkpt>
      <trkpt lat="42.34404" lon="1.29688">
        <ele>1553.8</ele>
        <time>2022-05-22 15:28:53</time>
      </trkpt>
      <trkpt lat="42.34402" lon="1.29689">
        <ele>1553.8</ele>
        <time>2022-05-22 15:28:54</time>
      </trkpt>
      <trkpt lat="42.344" lon="1.2969">
        <ele>1554</ele>
        <time>2022-05-22 15:28:55</time>
      </trkpt>
      <trkpt lat="42.34399" lon="1.29691">
        <ele>1554.2</ele>
        <time>2022-05-22 15:28:56</time>
      </trkpt>
      <trkpt lat="42.34397" lon="1.29692">
        <ele>1554.4</ele>
        <time>2022-05-22 15:28:57</time>
      </trkpt>
      <trkpt lat="42.34395" lon="1.29693">
        <ele>1554.6</ele>
        <time>2022-05-22 15:28:58</time>
      </trkpt>
      <trkpt lat="42.34393" lon="1.29694">
        <ele>1554.6</ele>
        <time>2022-05-22 15:28:59</time>
      </trkpt>
      <trkpt lat="42.34391" lon="1.29696">
        <ele>1554.8</ele>
        <time>2022-05-22 15:29:00</time>
      </trkpt>
      <trkpt lat="42.34389" lon="1.29697">
        <ele>1555</ele>
        <time>2022-05-22 15:29:01</time>
      </trkpt>
      <trkpt lat="42.34388" lon="1.29699">
        <ele>1555</ele>
        <time>2022-05-22 15:29:02</time>
      </trkpt>
      <trkpt lat="42.34386" lon="1.297">
        <ele>1555.2</ele>
        <time>2022-05-22 15:29:03</time>
      </trkpt>
      <trkpt lat="42.34385" lon="1.29702">
        <ele>1555.4</ele>
        <time>2022-05-22 15:29:04</time>
      </trkpt>
      <trkpt lat="42.34383" lon="1.29703">
        <ele>1555.6</ele>
        <time>2022-05-22 15:29:05</time>
      </trkpt>
      <trkpt lat="42.34381" lon="1.29704">
        <ele>1555.8</ele>
        <time>2022-05-22 15:29:06</time>
      </trkpt>
      <trkpt lat="42.3438" lon="1.29705">
        <ele>1556</ele>
        <time>2022-05-22 15:29:07</time>
      </trkpt>
      <trkpt lat="42.34378" lon="1.29706">
        <ele>1556</ele>
        <time>2022-05-22 15:29:08</time>
      </trkpt>
      <trkpt lat="42.34376" lon="1.29707">
        <ele>1556.2</ele>
        <time>2022-05-22 15:29:09</time>
      </trkpt>
      <trkpt lat="42.34374" lon="1.29708">
        <ele>1556.4</ele>
        <time>2022-05-22 15:29:10</time>
      </trkpt>
      <trkpt lat="42.34372" lon="1.29709">
        <ele>1556.4</ele>
        <time>2022-05-22 15:29:11</time>
      </trkpt>
      <trkpt lat="42.3437" lon="1.2971">
        <ele>1556.6</ele>
        <time>2022-05-22 15:29:12</time>
      </trkpt>
      <trkpt lat="42.34368" lon="1.29711">
        <ele>1556.6</ele>
        <time>2022-05-22 15:29:13</time>
      </trkpt>
      <trkpt lat="42.34367" lon="1.29712">
        <ele>1556.8</ele>
        <time>2022-05-22 15:29:14</time>
      </trkpt>
      <trkpt lat="42.34365" lon="1.29714">
        <ele>1557</ele>
        <time>2022-05-22 15:29:15</time>
      </trkpt>
      <trkpt lat="42.34363" lon="1.29715">
        <ele>1557</ele>
        <time>2022-05-22 15:29:16</time>
      </trkpt>
      <trkpt lat="42.34362" lon="1.29716">
        <ele>1557.2</ele>
        <time>2022-05-22 15:29:17</time>
      </trkpt>
      <trkpt lat="42.3436" lon="1.29717">
        <ele>1557.4</ele>
        <time>2022-05-22 15:29:18</time>
      </trkpt>
      <trkpt lat="42.34358" lon="1.29718">
        <ele>1557.4</ele>
        <time>2022-05-22 15:29:19</time>
      </trkpt>
      <trkpt lat="42.34356" lon="1.29719">
        <ele>1557.6</ele>
        <time>2022-05-22 15:29:20</time>
      </trkpt>
      <trkpt lat="42.34354" lon="1.29719">
        <ele>1557.8</ele>
        <time>2022-05-22 15:29:21</time>
      </trkpt>
      <trkpt lat="42.34352" lon="1.2972">
        <ele>1558</ele>
        <time>2022-05-22 15:29:22</time>
      </trkpt>
      <trkpt lat="42.34351" lon="1.29721">
        <ele>1558.2</ele>
        <time>2022-05-22 15:29:23</time>
      </trkpt>
      <trkpt lat="42.34349" lon="1.29722">
        <ele>1558.2</ele>
        <time>2022-05-22 15:29:24</time>
      </trkpt>
      <trkpt lat="42.34348" lon="1.29723">
        <ele>1558.4</ele>
        <time>2022-05-22 15:29:25</time>
      </trkpt>
      <trkpt lat="42.34346" lon="1.29725">
        <ele>1558.6</ele>
        <time>2022-05-22 15:29:26</time>
      </trkpt>
      <trkpt lat="42.34344" lon="1.29726">
        <ele>1558.8</ele>
        <time>2022-05-22 15:29:27</time>
      </trkpt>
      <trkpt lat="42.34342" lon="1.29727">
        <ele>1558.8</ele>
        <time>2022-05-22 15:29:28</time>
      </trkpt>
      <trkpt lat="42.34341" lon="1.29728">
        <ele>1559</ele>
        <time>2022-05-22 15:29:29</time>
      </trkpt>
      <trkpt lat="42.34339" lon="1.2973">
        <ele>1559.2</ele>
        <time>2022-05-22 15:29:30</time>
      </trkpt>
      <trkpt lat="42.34337" lon="1.29731">
        <ele>1559.4</ele>
        <time>2022-05-22 15:29:31</time>
      </trkpt>
      <trkpt lat="42.34335" lon="1.29732">
        <ele>1559.6</ele>
        <time>2022-05-22 15:29:32</time>
      </trkpt>
      <trkpt lat="42.34333" lon="1.29733">
        <ele>1559.6</ele>
        <time>2022-05-22 15:29:33</time>
      </trkpt>
      <trkpt lat="42.34331" lon="1.29735">
        <ele>1559.8</ele>
        <time>2022-05-22 15:29:34</time>
      </trkpt>
      <trkpt lat="42.34329" lon="1.29736">
        <ele>1560</ele>
        <time>2022-05-22 15:29:35</time>
      </trkpt>
      <trkpt lat="42.34327" lon="1.29737">
        <ele>1560.2</ele>
        <time>2022-05-22 15:29:36</time>
      </trkpt>
      <trkpt lat="42.34325" lon="1.29738">
        <ele>1560.4</ele>
        <time>2022-05-22 15:29:37</time>
      </trkpt>
      <trkpt lat="42.34323" lon="1.2974">
        <ele>1560.4</ele>
        <time>2022-05-22 15:29:38</time>
      </trkpt>
      <trkpt lat="42.34321" lon="1.29741">
        <ele>1560.6</ele>
        <time>2022-05-22 15:29:39</time>
      </trkpt>
      <trkpt lat="42.3432" lon="1.29742">
        <ele>1560.8</ele>
        <time>2022-05-22 15:29:40</time>
      </trkpt>
      <trkpt lat="42.34318" lon="1.29744">
        <ele>1561</ele>
        <time>2022-05-22 15:29:41</time>
      </trkpt>
      <trkpt lat="42.34316" lon="1.29745">
        <ele>1561.2</ele>
        <time>2022-05-22 15:29:42</time>
      </trkpt>
      <trkpt lat="42.34314" lon="1.29746">
        <ele>1561.4</ele>
        <time>2022-05-22 15:29:43</time>
      </trkpt>
      <trkpt lat="42.34312" lon="1.29747">
        <ele>1561.6</ele>
        <time>2022-05-22 15:29:44</time>
      </trkpt>
      <trkpt lat="42.3431" lon="1.29749">
        <ele>1561.6</ele>
        <time>2022-05-22 15:29:45</time>
      </trkpt>
      <trkpt lat="42.34309" lon="1.2975">
        <ele>1561.8</ele>
        <time>2022-05-22 15:29:46</time>
      </trkpt>
      <trkpt lat="42.34307" lon="1.29751">
        <ele>1562</ele>
        <time>2022-05-22 15:29:47</time>
      </trkpt>
      <trkpt lat="42.34305" lon="1.29753">
        <ele>1562.2</ele>
        <time>2022-05-22 15:29:48</time>
      </trkpt>
      <trkpt lat="42.34303" lon="1.29754">
        <ele>1562.4</ele>
        <time>2022-05-22 15:29:49</time>
      </trkpt>
      <trkpt lat="42.34302" lon="1.29756">
        <ele>1562.6</ele>
        <time>2022-05-22 15:29:50</time>
      </trkpt>
      <trkpt lat="42.343" lon="1.29757">
        <ele>1562.8</ele>
        <time>2022-05-22 15:29:51</time>
      </trkpt>
      <trkpt lat="42.34297" lon="1.29759">
        <ele>1562.8</ele>
        <time>2022-05-22 15:29:52</time>
      </trkpt>
      <trkpt lat="42.34296" lon="1.2976">
        <ele>1563</ele>
        <time>2022-05-22 15:29:53</time>
      </trkpt>
      <trkpt lat="42.34294" lon="1.29761">
        <ele>1563</ele>
        <time>2022-05-22 15:29:54</time>
      </trkpt>
      <trkpt lat="42.34292" lon="1.29762">
        <ele>1563.2</ele>
        <time>2022-05-22 15:29:55</time>
      </trkpt>
      <trkpt lat="42.34291" lon="1.29764">
        <ele>1563.4</ele>
        <time>2022-05-22 15:29:56</time>
      </trkpt>
      <trkpt lat="42.34289" lon="1.29765">
        <ele>1563.4</ele>
        <time>2022-05-22 15:29:57</time>
      </trkpt>
      <trkpt lat="42.34288" lon="1.29767">
        <ele>1563.6</ele>
        <time>2022-05-22 15:29:58</time>
      </trkpt>
      <trkpt lat="42.34286" lon="1.29769">
        <ele>1563.8</ele>
        <time>2022-05-22 15:29:59</time>
      </trkpt>
      <trkpt lat="42.34284" lon="1.29771">
        <ele>1563.8</ele>
        <time>2022-05-22 15:30:00</time>
      </trkpt>
      <trkpt lat="42.34283" lon="1.29772">
        <ele>1564</ele>
        <time>2022-05-22 15:30:01</time>
      </trkpt>
      <trkpt lat="42.34281" lon="1.29774">
        <ele>1564.2</ele>
        <time>2022-05-22 15:30:02</time>
      </trkpt>
      <trkpt lat="42.3428" lon="1.29776">
        <ele>1564.2</ele>
        <time>2022-05-22 15:30:03</time>
      </trkpt>
      <trkpt lat="42.34278" lon="1.29777">
        <ele>1564.4</ele>
        <time>2022-05-22 15:30:04</time>
      </trkpt>
      <trkpt lat="42.34277" lon="1.29779">
        <ele>1564.6</ele>
        <time>2022-05-22 15:30:05</time>
      </trkpt>
      <trkpt lat="42.34276" lon="1.29781">
        <ele>1564.8</ele>
        <time>2022-05-22 15:30:06</time>
      </trkpt>
      <trkpt lat="42.34274" lon="1.29783">
        <ele>1565</ele>
        <time>2022-05-22 15:30:07</time>
      </trkpt>
      <trkpt lat="42.34272" lon="1.29784">
        <ele>1565</ele>
        <time>2022-05-22 15:30:08</time>
      </trkpt>
      <trkpt lat="42.3427" lon="1.29786">
        <ele>1565.2</ele>
        <time>2022-05-22 15:30:09</time>
      </trkpt>
      <trkpt lat="42.34269" lon="1.29788">
        <ele>1565.4</ele>
        <time>2022-05-22 15:30:10</time>
      </trkpt>
      <trkpt lat="42.34268" lon="1.2979">
        <ele>1565.4</ele>
        <time>2022-05-22 15:30:11</time>
      </trkpt>
      <trkpt lat="42.34266" lon="1.29792">
        <ele>1565.6</ele>
        <time>2022-05-22 15:30:12</time>
      </trkpt>
      <trkpt lat="42.34265" lon="1.29794">
        <ele>1565.8</ele>
        <time>2022-05-22 15:30:13</time>
      </trkpt>
      <trkpt lat="42.34263" lon="1.29795">
        <ele>1565.8</ele>
        <time>2022-05-22 15:30:14</time>
      </trkpt>
      <trkpt lat="42.34262" lon="1.29797">
        <ele>1566</ele>
        <time>2022-05-22 15:30:15</time>
      </trkpt>
      <trkpt lat="42.3426" lon="1.29799">
        <ele>1566.2</ele>
        <time>2022-05-22 15:30:16</time>
      </trkpt>
      <trkpt lat="42.34258" lon="1.298">
        <ele>1566.4</ele>
        <time>2022-05-22 15:30:17</time>
      </trkpt>
      <trkpt lat="42.34257" lon="1.29802">
        <ele>1566.4</ele>
        <time>2022-05-22 15:30:18</time>
      </trkpt>
      <trkpt lat="42.34255" lon="1.29803">
        <ele>1566.6</ele>
        <time>2022-05-22 15:30:19</time>
      </trkpt>
      <trkpt lat="42.34254" lon="1.29805">
        <ele>1566.8</ele>
        <time>2022-05-22 15:30:20</time>
      </trkpt>
      <trkpt lat="42.34252" lon="1.29807">
        <ele>1566.8</ele>
        <time>2022-05-22 15:30:21</time>
      </trkpt>
      <trkpt lat="42.3425" lon="1.29808">
        <ele>1567</ele>
        <time>2022-05-22 15:30:22</time>
      </trkpt>
      <trkpt lat="42.34249" lon="1.2981">
        <ele>1567.2</ele>
        <time>2022-05-22 15:30:23</time>
      </trkpt>
      <trkpt lat="42.34248" lon="1.29811">
        <ele>1567.2</ele>
        <time>2022-05-22 15:30:24</time>
      </trkpt>
      <trkpt lat="42.34246" lon="1.29813">
        <ele>1567.4</ele>
        <time>2022-05-22 15:30:25</time>
      </trkpt>
      <trkpt lat="42.34245" lon="1.29815">
        <ele>1567.6</ele>
        <time>2022-05-22 15:30:26</time>
      </trkpt>
      <trkpt lat="42.34244" lon="1.29816">
        <ele>1567.6</ele>
        <time>2022-05-22 15:30:27</time>
      </trkpt>
      <trkpt lat="42.34242" lon="1.29818">
        <ele>1567.6</ele>
        <time>2022-05-22 15:30:28</time>
      </trkpt>
      <trkpt lat="42.34241" lon="1.2982">
        <ele>1567.8</ele>
        <time>2022-05-22 15:30:29</time>
      </trkpt>
      <trkpt lat="42.3424" lon="1.29821">
        <ele>1568</ele>
        <time>2022-05-22 15:30:30</time>
      </trkpt>
      <trkpt lat="42.34239" lon="1.29823">
        <ele>1568.2</ele>
        <time>2022-05-22 15:30:31</time>
      </trkpt>
      <trkpt lat="42.34237" lon="1.29825">
        <ele>1568.4</ele>
        <time>2022-05-22 15:30:32</time>
      </trkpt>
      <trkpt lat="42.34236" lon="1.29827">
        <ele>1568.6</ele>
        <time>2022-05-22 15:30:33</time>
      </trkpt>
      <trkpt lat="42.34235" lon="1.29829">
        <ele>1568.8</ele>
        <time>2022-05-22 15:30:34</time>
      </trkpt>
      <trkpt lat="42.34234" lon="1.2983">
        <ele>1568.8</ele>
        <time>2022-05-22 15:30:35</time>
      </trkpt>
      <trkpt lat="42.34233" lon="1.29832">
        <ele>1569</ele>
        <time>2022-05-22 15:30:36</time>
      </trkpt>
      <trkpt lat="42.34231" lon="1.29834">
        <ele>1569.2</ele>
        <time>2022-05-22 15:30:37</time>
      </trkpt>
      <trkpt lat="42.3423" lon="1.29835">
        <ele>1569.4</ele>
        <time>2022-05-22 15:30:38</time>
      </trkpt>
      <trkpt lat="42.34228" lon="1.29836">
        <ele>1569.4</ele>
        <time>2022-05-22 15:30:39</time>
      </trkpt>
      <trkpt lat="42.34227" lon="1.29837">
        <ele>1569.6</ele>
        <time>2022-05-22 15:30:40</time>
      </trkpt>
      <trkpt lat="42.34224" lon="1.29839">
        <ele>1569.8</ele>
        <time>2022-05-22 15:30:41</time>
      </trkpt>
      <trkpt lat="42.34223" lon="1.2984">
        <ele>1569.8</ele>
        <time>2022-05-22 15:30:42</time>
      </trkpt>
      <trkpt lat="42.34221" lon="1.29842">
        <ele>1570</ele>
        <time>2022-05-22 15:30:43</time>
      </trkpt>
      <trkpt lat="42.34219" lon="1.29843">
        <ele>1570</ele>
        <time>2022-05-22 15:30:44</time>
      </trkpt>
      <trkpt lat="42.34218" lon="1.29845">
        <ele>1570.2</ele>
        <time>2022-05-22 15:30:45</time>
      </trkpt>
      <trkpt lat="42.34216" lon="1.29846">
        <ele>1570.2</ele>
        <time>2022-05-22 15:30:46</time>
      </trkpt>
      <trkpt lat="42.34214" lon="1.29847">
        <ele>1570.4</ele>
        <time>2022-05-22 15:30:47</time>
      </trkpt>
      <trkpt lat="42.34212" lon="1.29848">
        <ele>1570.6</ele>
        <time>2022-05-22 15:30:48</time>
      </trkpt>
      <trkpt lat="42.3421" lon="1.29849">
        <ele>1570.6</ele>
        <time>2022-05-22 15:30:49</time>
      </trkpt>
      <trkpt lat="42.34208" lon="1.29849">
        <ele>1570.8</ele>
        <time>2022-05-22 15:30:50</time>
      </trkpt>
      <trkpt lat="42.34205" lon="1.29849">
        <ele>1571</ele>
        <time>2022-05-22 15:30:51</time>
      </trkpt>
      <trkpt lat="42.34203" lon="1.2985">
        <ele>1571</ele>
        <time>2022-05-22 15:30:52</time>
      </trkpt>
      <trkpt lat="42.34201" lon="1.2985">
        <ele>1571.2</ele>
        <time>2022-05-22 15:30:53</time>
      </trkpt>
      <trkpt lat="42.34199" lon="1.2985">
        <ele>1571.2</ele>
        <time>2022-05-22 15:30:54</time>
      </trkpt>
      <trkpt lat="42.34198" lon="1.2985">
        <ele>1571.4</ele>
        <time>2022-05-22 15:30:55</time>
      </trkpt>
      <trkpt lat="42.34195" lon="1.29851">
        <ele>1571.6</ele>
        <time>2022-05-22 15:30:56</time>
      </trkpt>
      <trkpt lat="42.34193" lon="1.29851">
        <ele>1571.8</ele>
        <time>2022-05-22 15:30:57</time>
      </trkpt>
      <trkpt lat="42.34191" lon="1.29851">
        <ele>1571.8</ele>
        <time>2022-05-22 15:30:58</time>
      </trkpt>
      <trkpt lat="42.3419" lon="1.2985">
        <ele>1572</ele>
        <time>2022-05-22 15:30:59</time>
      </trkpt>
      <trkpt lat="42.34189" lon="1.2985">
        <ele>1572.2</ele>
        <time>2022-05-22 15:31:00</time>
      </trkpt>
      <trkpt lat="42.34187" lon="1.2985">
        <ele>1572.2</ele>
        <time>2022-05-22 15:31:01</time>
      </trkpt>
      <trkpt lat="42.34185" lon="1.2985">
        <ele>1572.4</ele>
        <time>2022-05-22 15:31:02</time>
      </trkpt>
      <trkpt lat="42.34183" lon="1.2985">
        <ele>1572.6</ele>
        <time>2022-05-22 15:31:03</time>
      </trkpt>
      <trkpt lat="42.34181" lon="1.29849">
        <ele>1572.6</ele>
        <time>2022-05-22 15:31:04</time>
      </trkpt>
      <trkpt lat="42.34179" lon="1.29849">
        <ele>1572.8</ele>
        <time>2022-05-22 15:31:05</time>
      </trkpt>
      <trkpt lat="42.34178" lon="1.29848">
        <ele>1572.8</ele>
        <time>2022-05-22 15:31:06</time>
      </trkpt>
      <trkpt lat="42.34176" lon="1.29847">
        <ele>1573</ele>
        <time>2022-05-22 15:31:07</time>
      </trkpt>
      <trkpt lat="42.34174" lon="1.29847">
        <ele>1573</ele>
        <time>2022-05-22 15:31:08</time>
      </trkpt>
      <trkpt lat="42.34173" lon="1.29846">
        <ele>1573.2</ele>
        <time>2022-05-22 15:31:09</time>
      </trkpt>
      <trkpt lat="42.34171" lon="1.29846">
        <ele>1573.2</ele>
        <time>2022-05-22 15:31:10</time>
      </trkpt>
      <trkpt lat="42.34169" lon="1.29845">
        <ele>1573.4</ele>
        <time>2022-05-22 15:31:11</time>
      </trkpt>
      <trkpt lat="42.34168" lon="1.29845">
        <ele>1573.4</ele>
        <time>2022-05-22 15:31:12</time>
      </trkpt>
      <trkpt lat="42.34165" lon="1.29843">
        <ele>1573.6</ele>
        <time>2022-05-22 15:31:13</time>
      </trkpt>
      <trkpt lat="42.34163" lon="1.29841">
        <ele>1573.6</ele>
        <time>2022-05-22 15:31:14</time>
      </trkpt>
      <trkpt lat="42.34162" lon="1.29839">
        <ele>1573.6</ele>
        <time>2022-05-22 15:31:15</time>
      </trkpt>
      <trkpt lat="42.3416" lon="1.29838">
        <ele>1573.8</ele>
        <time>2022-05-22 15:31:16</time>
      </trkpt>
      <trkpt lat="42.34159" lon="1.29836">
        <ele>1573.8</ele>
        <time>2022-05-22 15:31:17</time>
      </trkpt>
      <trkpt lat="42.34156" lon="1.29834">
        <ele>1573.8</ele>
        <time>2022-05-22 15:31:18</time>
      </trkpt>
      <trkpt lat="42.34155" lon="1.29832">
        <ele>1573.8</ele>
        <time>2022-05-22 15:31:19</time>
      </trkpt>
      <trkpt lat="42.34153" lon="1.2983">
        <ele>1574</ele>
        <time>2022-05-22 15:31:20</time>
      </trkpt>
      <trkpt lat="42.34151" lon="1.29828">
        <ele>1574</ele>
        <time>2022-05-22 15:31:21</time>
      </trkpt>
      <trkpt lat="42.34151" lon="1.29827">
        <ele>1574.2</ele>
        <time>2022-05-22 15:31:22</time>
      </trkpt>
      <trkpt lat="42.34149" lon="1.29823">
        <ele>1574.2</ele>
        <time>2022-05-22 15:31:23</time>
      </trkpt>
      <trkpt lat="42.34147" lon="1.29821">
        <ele>1574.2</ele>
        <time>2022-05-22 15:31:24</time>
      </trkpt>
      <trkpt lat="42.34146" lon="1.29818">
        <ele>1574.4</ele>
        <time>2022-05-22 15:31:25</time>
      </trkpt>
      <trkpt lat="42.34145" lon="1.29816">
        <ele>1574.4</ele>
        <time>2022-05-22 15:31:26</time>
      </trkpt>
      <trkpt lat="42.34144" lon="1.29814">
        <ele>1574.4</ele>
        <time>2022-05-22 15:31:27</time>
      </trkpt>
      <trkpt lat="42.34142" lon="1.2981">
        <ele>1574.4</ele>
        <time>2022-05-22 15:31:28</time>
      </trkpt>
      <trkpt lat="42.3414" lon="1.29807">
        <ele>1574.4</ele>
        <time>2022-05-22 15:31:29</time>
      </trkpt>
      <trkpt lat="42.34139" lon="1.29805">
        <ele>1574.6</ele>
        <time>2022-05-22 15:31:30</time>
      </trkpt>
      <trkpt lat="42.34138" lon="1.29803">
        <ele>1574.6</ele>
        <time>2022-05-22 15:31:31</time>
      </trkpt>
      <trkpt lat="42.34137" lon="1.29798">
        <ele>1574.6</ele>
        <time>2022-05-22 15:31:32</time>
      </trkpt>
      <trkpt lat="42.34136" lon="1.29795">
        <ele>1574.6</ele>
        <time>2022-05-22 15:31:33</time>
      </trkpt>
      <trkpt lat="42.34135" lon="1.29791">
        <ele>1574.6</ele>
        <time>2022-05-22 15:31:34</time>
      </trkpt>
      <trkpt lat="42.34134" lon="1.29788">
        <ele>1574.6</ele>
        <time>2022-05-22 15:31:35</time>
      </trkpt>
      <trkpt lat="42.34133" lon="1.29782">
        <ele>1574.8</ele>
        <time>2022-05-22 15:31:36</time>
      </trkpt>
      <trkpt lat="42.34132" lon="1.29779">
        <ele>1574.8</ele>
        <time>2022-05-22 15:31:37</time>
      </trkpt>
      <trkpt lat="42.34132" lon="1.29776">
        <ele>1574.8</ele>
        <time>2022-05-22 15:31:38</time>
      </trkpt>
      <trkpt lat="42.34132" lon="1.29768">
        <ele>1574.6</ele>
        <time>2022-05-22 15:31:39</time>
      </trkpt>
      <trkpt lat="42.34131" lon="1.29763">
        <ele>1574.6</ele>
        <time>2022-05-22 15:31:40</time>
      </trkpt>
      <trkpt lat="42.34131" lon="1.29759">
        <ele>1574.4</ele>
        <time>2022-05-22 15:31:41</time>
      </trkpt>
      <trkpt lat="42.34131" lon="1.29753">
        <ele>1574.4</ele>
        <time>2022-05-22 15:31:42</time>
      </trkpt>
      <trkpt lat="42.34132" lon="1.29748">
        <ele>1574.2</ele>
        <time>2022-05-22 15:31:43</time>
      </trkpt>
      <trkpt lat="42.34132" lon="1.29744">
        <ele>1574.2</ele>
        <time>2022-05-22 15:31:44</time>
      </trkpt>
      <trkpt lat="42.34133" lon="1.29737">
        <ele>1574.2</ele>
        <time>2022-05-22 15:31:45</time>
      </trkpt>
      <trkpt lat="42.34134" lon="1.29732">
        <ele>1574</ele>
        <time>2022-05-22 15:31:46</time>
      </trkpt>
      <trkpt lat="42.34135" lon="1.29727">
        <ele>1574</ele>
        <time>2022-05-22 15:31:47</time>
      </trkpt>
      <trkpt lat="42.34137" lon="1.2972">
        <ele>1573.8</ele>
        <time>2022-05-22 15:31:48</time>
      </trkpt>
      <trkpt lat="42.34138" lon="1.29715">
        <ele>1573.6</ele>
        <time>2022-05-22 15:31:49</time>
      </trkpt>
      <trkpt lat="42.34139" lon="1.2971">
        <ele>1573.4</ele>
        <time>2022-05-22 15:31:50</time>
      </trkpt>
      <trkpt lat="42.34141" lon="1.29703">
        <ele>1573.4</ele>
        <time>2022-05-22 15:31:51</time>
      </trkpt>
      <trkpt lat="42.34143" lon="1.29698">
        <ele>1573.4</ele>
        <time>2022-05-22 15:31:52</time>
      </trkpt>
      <trkpt lat="42.34144" lon="1.29693">
        <ele>1573.4</ele>
        <time>2022-05-22 15:31:53</time>
      </trkpt>
      <trkpt lat="42.34146" lon="1.29687">
        <ele>1573.2</ele>
        <time>2022-05-22 15:31:54</time>
      </trkpt>
      <trkpt lat="42.34148" lon="1.29682">
        <ele>1573.2</ele>
        <time>2022-05-22 15:31:55</time>
      </trkpt>
      <trkpt lat="42.3415" lon="1.29676">
        <ele>1573.2</ele>
        <time>2022-05-22 15:31:56</time>
      </trkpt>
      <trkpt lat="42.34152" lon="1.29672">
        <ele>1573.2</ele>
        <time>2022-05-22 15:31:57</time>
      </trkpt>
      <trkpt lat="42.34154" lon="1.29664">
        <ele>1573.2</ele>
        <time>2022-05-22 15:31:58</time>
      </trkpt>
      <trkpt lat="42.34156" lon="1.29659">
        <ele>1573.2</ele>
        <time>2022-05-22 15:31:59</time>
      </trkpt>
      <trkpt lat="42.34158" lon="1.29655">
        <ele>1573</ele>
        <time>2022-05-22 15:32:00</time>
      </trkpt>
      <trkpt lat="42.34161" lon="1.29648">
        <ele>1573</ele>
        <time>2022-05-22 15:32:01</time>
      </trkpt>
      <trkpt lat="42.34162" lon="1.29643">
        <ele>1573</ele>
        <time>2022-05-22 15:32:02</time>
      </trkpt>
      <trkpt lat="42.34164" lon="1.29637">
        <ele>1573</ele>
        <time>2022-05-22 15:32:03</time>
      </trkpt>
      <trkpt lat="42.34166" lon="1.29633">
        <ele>1573</ele>
        <time>2022-05-22 15:32:04</time>
      </trkpt>
      <trkpt lat="42.34169" lon="1.29626">
        <ele>1573</ele>
        <time>2022-05-22 15:32:05</time>
      </trkpt>
      <trkpt lat="42.34171" lon="1.29621">
        <ele>1573</ele>
        <time>2022-05-22 15:32:06</time>
      </trkpt>
      <trkpt lat="42.34173" lon="1.29614">
        <ele>1572.8</ele>
        <time>2022-05-22 15:32:07</time>
      </trkpt>
      <trkpt lat="42.34175" lon="1.29608">
        <ele>1572.6</ele>
        <time>2022-05-22 15:32:08</time>
      </trkpt>
      <trkpt lat="42.34177" lon="1.29602">
        <ele>1572.4</ele>
        <time>2022-05-22 15:32:09</time>
      </trkpt>
      <trkpt lat="42.34179" lon="1.29597">
        <ele>1572.2</ele>
        <time>2022-05-22 15:32:10</time>
      </trkpt>
      <trkpt lat="42.34181" lon="1.29589">
        <ele>1572.2</ele>
        <time>2022-05-22 15:32:11</time>
      </trkpt>
      <trkpt lat="42.34183" lon="1.29584">
        <ele>1572.4</ele>
        <time>2022-05-22 15:32:12</time>
      </trkpt>
      <trkpt lat="42.34186" lon="1.29578">
        <ele>1572.2</ele>
        <time>2022-05-22 15:32:13</time>
      </trkpt>
      <trkpt lat="42.34187" lon="1.29574">
        <ele>1572.2</ele>
        <time>2022-05-22 15:32:14</time>
      </trkpt>
      <trkpt lat="42.3419" lon="1.29565">
        <ele>1572.2</ele>
        <time>2022-05-22 15:32:15</time>
      </trkpt>
      <trkpt lat="42.34192" lon="1.29559">
        <ele>1572</ele>
        <time>2022-05-22 15:32:16</time>
      </trkpt>
      <trkpt lat="42.34194" lon="1.29553">
        <ele>1572</ele>
        <time>2022-05-22 15:32:17</time>
      </trkpt>
      <trkpt lat="42.34196" lon="1.29548">
        <ele>1572</ele>
        <time>2022-05-22 15:32:18</time>
      </trkpt>
      <trkpt lat="42.34198" lon="1.29541">
        <ele>1572</ele>
        <time>2022-05-22 15:32:19</time>
      </trkpt>
      <trkpt lat="42.342" lon="1.29536">
        <ele>1571.8</ele>
        <time>2022-05-22 15:32:20</time>
      </trkpt>
      <trkpt lat="42.34202" lon="1.29529">
        <ele>1571.8</ele>
        <time>2022-05-22 15:32:21</time>
      </trkpt>
      <trkpt lat="42.34204" lon="1.29524">
        <ele>1571.8</ele>
        <time>2022-05-22 15:32:22</time>
      </trkpt>
      <trkpt lat="42.34206" lon="1.29517">
        <ele>1571.8</ele>
        <time>2022-05-22 15:32:23</time>
      </trkpt>
      <trkpt lat="42.34208" lon="1.29512">
        <ele>1571.8</ele>
        <time>2022-05-22 15:32:24</time>
      </trkpt>
      <trkpt lat="42.3421" lon="1.29505">
        <ele>1571.8</ele>
        <time>2022-05-22 15:32:25</time>
      </trkpt>
      <trkpt lat="42.34212" lon="1.295">
        <ele>1571.8</ele>
        <time>2022-05-22 15:32:26</time>
      </trkpt>
      <trkpt lat="42.34215" lon="1.29494">
        <ele>1571.8</ele>
        <time>2022-05-22 15:32:27</time>
      </trkpt>
      <trkpt lat="42.34216" lon="1.29488">
        <ele>1571.6</ele>
        <time>2022-05-22 15:32:28</time>
      </trkpt>
      <trkpt lat="42.34219" lon="1.29481">
        <ele>1571.4</ele>
        <time>2022-05-22 15:32:29</time>
      </trkpt>
      <trkpt lat="42.34221" lon="1.29476">
        <ele>1571.4</ele>
        <time>2022-05-22 15:32:30</time>
      </trkpt>
      <trkpt lat="42.34223" lon="1.29469">
        <ele>1571.4</ele>
        <time>2022-05-22 15:32:31</time>
      </trkpt>
      <trkpt lat="42.34225" lon="1.29464">
        <ele>1571.2</ele>
        <time>2022-05-22 15:32:32</time>
      </trkpt>
      <trkpt lat="42.34226" lon="1.29458">
        <ele>1571.2</ele>
        <time>2022-05-22 15:32:33</time>
      </trkpt>
      <trkpt lat="42.34228" lon="1.29454">
        <ele>1571.2</ele>
        <time>2022-05-22 15:32:34</time>
      </trkpt>
      <trkpt lat="42.3423" lon="1.29447">
        <ele>1571.2</ele>
        <time>2022-05-22 15:32:35</time>
      </trkpt>
      <trkpt lat="42.34232" lon="1.29442">
        <ele>1571.2</ele>
        <time>2022-05-22 15:32:36</time>
      </trkpt>
      <trkpt lat="42.34235" lon="1.29436">
        <ele>1571.2</ele>
        <time>2022-05-22 15:32:37</time>
      </trkpt>
      <trkpt lat="42.34236" lon="1.29432">
        <ele>1571.2</ele>
        <time>2022-05-22 15:32:38</time>
      </trkpt>
      <trkpt lat="42.34238" lon="1.29428">
        <ele>1571.2</ele>
        <time>2022-05-22 15:32:39</time>
      </trkpt>
      <trkpt lat="42.3424" lon="1.2942">
        <ele>1571.2</ele>
        <time>2022-05-22 15:32:40</time>
      </trkpt>
      <trkpt lat="42.34241" lon="1.29416">
        <ele>1571.2</ele>
        <time>2022-05-22 15:32:41</time>
      </trkpt>
      <trkpt lat="42.34243" lon="1.29411">
        <ele>1571.2</ele>
        <time>2022-05-22 15:32:42</time>
      </trkpt>
      <trkpt lat="42.34245" lon="1.29404">
        <ele>1571.2</ele>
        <time>2022-05-22 15:32:43</time>
      </trkpt>
      <trkpt lat="42.34246" lon="1.29399">
        <ele>1571.2</ele>
        <time>2022-05-22 15:32:44</time>
      </trkpt>
      <trkpt lat="42.34248" lon="1.29395">
        <ele>1571.2</ele>
        <time>2022-05-22 15:32:45</time>
      </trkpt>
      <trkpt lat="42.3425" lon="1.29388">
        <ele>1571.4</ele>
        <time>2022-05-22 15:32:46</time>
      </trkpt>
      <trkpt lat="42.34252" lon="1.29383">
        <ele>1571.4</ele>
        <time>2022-05-22 15:32:47</time>
      </trkpt>
      <trkpt lat="42.34254" lon="1.29378">
        <ele>1571.4</ele>
        <time>2022-05-22 15:32:48</time>
      </trkpt>
      <trkpt lat="42.34256" lon="1.29372">
        <ele>1571.2</ele>
        <time>2022-05-22 15:32:49</time>
      </trkpt>
      <trkpt lat="42.34258" lon="1.29367">
        <ele>1571.2</ele>
        <time>2022-05-22 15:32:50</time>
      </trkpt>
      <trkpt lat="42.3426" lon="1.29361">
        <ele>1571.2</ele>
        <time>2022-05-22 15:32:51</time>
      </trkpt>
      <trkpt lat="42.34261" lon="1.29356">
        <ele>1571.2</ele>
        <time>2022-05-22 15:32:52</time>
      </trkpt>
      <trkpt lat="42.34264" lon="1.29349">
        <ele>1571.2</ele>
        <time>2022-05-22 15:32:53</time>
      </trkpt>
      <trkpt lat="42.34265" lon="1.29345">
        <ele>1571.4</ele>
        <time>2022-05-22 15:32:54</time>
      </trkpt>
      <trkpt lat="42.34266" lon="1.29341">
        <ele>1571.4</ele>
        <time>2022-05-22 15:32:55</time>
      </trkpt>
      <trkpt lat="42.34269" lon="1.29334">
        <ele>1571.4</ele>
        <time>2022-05-22 15:32:56</time>
      </trkpt>
      <trkpt lat="42.34271" lon="1.2933">
        <ele>1571.4</ele>
        <time>2022-05-22 15:32:57</time>
      </trkpt>
      <trkpt lat="42.34272" lon="1.29326">
        <ele>1571.4</ele>
        <time>2022-05-22 15:32:58</time>
      </trkpt>
      <trkpt lat="42.34274" lon="1.29318">
        <ele>1571.2</ele>
        <time>2022-05-22 15:32:59</time>
      </trkpt>
      <trkpt lat="42.34276" lon="1.29313">
        <ele>1571.2</ele>
        <time>2022-05-22 15:33:00</time>
      </trkpt>
      <trkpt lat="42.34278" lon="1.29308">
        <ele>1571.2</ele>
        <time>2022-05-22 15:33:01</time>
      </trkpt>
      <trkpt lat="42.34281" lon="1.29302">
        <ele>1571</ele>
        <time>2022-05-22 15:33:02</time>
      </trkpt>
      <trkpt lat="42.34283" lon="1.29298">
        <ele>1571</ele>
        <time>2022-05-22 15:33:03</time>
      </trkpt>
      <trkpt lat="42.34284" lon="1.29293">
        <ele>1571</ele>
        <time>2022-05-22 15:33:04</time>
      </trkpt>
      <trkpt lat="42.34286" lon="1.29286">
        <ele>1570.8</ele>
        <time>2022-05-22 15:33:05</time>
      </trkpt>
      <trkpt lat="42.34287" lon="1.29281">
        <ele>1570.8</ele>
        <time>2022-05-22 15:33:06</time>
      </trkpt>
      <trkpt lat="42.34289" lon="1.29276">
        <ele>1570.6</ele>
        <time>2022-05-22 15:33:07</time>
      </trkpt>
      <trkpt lat="42.34291" lon="1.2927">
        <ele>1570.6</ele>
        <time>2022-05-22 15:33:08</time>
      </trkpt>
      <trkpt lat="42.34292" lon="1.29266">
        <ele>1570.6</ele>
        <time>2022-05-22 15:33:09</time>
      </trkpt>
      <trkpt lat="42.34294" lon="1.29262">
        <ele>1570.4</ele>
        <time>2022-05-22 15:33:10</time>
      </trkpt>
      <trkpt lat="42.34296" lon="1.29256">
        <ele>1570.4</ele>
        <time>2022-05-22 15:33:11</time>
      </trkpt>
      <trkpt lat="42.34297" lon="1.29251">
        <ele>1570.6</ele>
        <time>2022-05-22 15:33:12</time>
      </trkpt>
      <trkpt lat="42.34299" lon="1.29247">
        <ele>1570.6</ele>
        <time>2022-05-22 15:33:13</time>
      </trkpt>
      <trkpt lat="42.343" lon="1.29241">
        <ele>1570.6</ele>
        <time>2022-05-22 15:33:14</time>
      </trkpt>
      <trkpt lat="42.34302" lon="1.29237">
        <ele>1570.8</ele>
        <time>2022-05-22 15:33:15</time>
      </trkpt>
      <trkpt lat="42.34303" lon="1.29233">
        <ele>1570.8</ele>
        <time>2022-05-22 15:33:16</time>
      </trkpt>
      <trkpt lat="42.34305" lon="1.29227">
        <ele>1570.8</ele>
        <time>2022-05-22 15:33:17</time>
      </trkpt>
      <trkpt lat="42.34306" lon="1.29222">
        <ele>1570.6</ele>
        <time>2022-05-22 15:33:18</time>
      </trkpt>
      <trkpt lat="42.34308" lon="1.29218">
        <ele>1570.6</ele>
        <time>2022-05-22 15:33:19</time>
      </trkpt>
      <trkpt lat="42.3431" lon="1.29211">
        <ele>1570.6</ele>
        <time>2022-05-22 15:33:20</time>
      </trkpt>
      <trkpt lat="42.34312" lon="1.29207">
        <ele>1570.6</ele>
        <time>2022-05-22 15:33:21</time>
      </trkpt>
      <trkpt lat="42.34313" lon="1.29202">
        <ele>1570.6</ele>
        <time>2022-05-22 15:33:22</time>
      </trkpt>
      <trkpt lat="42.34315" lon="1.29195">
        <ele>1570.6</ele>
        <time>2022-05-22 15:33:23</time>
      </trkpt>
      <trkpt lat="42.34317" lon="1.2919">
        <ele>1570.8</ele>
        <time>2022-05-22 15:33:24</time>
      </trkpt>
      <trkpt lat="42.34318" lon="1.29186">
        <ele>1570.8</ele>
        <time>2022-05-22 15:33:25</time>
      </trkpt>
      <trkpt lat="42.34321" lon="1.29179">
        <ele>1570.6</ele>
        <time>2022-05-22 15:33:26</time>
      </trkpt>
      <trkpt lat="42.34323" lon="1.29175">
        <ele>1570.6</ele>
        <time>2022-05-22 15:33:27</time>
      </trkpt>
      <trkpt lat="42.34325" lon="1.29168">
        <ele>1570.8</ele>
        <time>2022-05-22 15:33:28</time>
      </trkpt>
      <trkpt lat="42.34327" lon="1.29164">
        <ele>1570.8</ele>
        <time>2022-05-22 15:33:29</time>
      </trkpt>
      <trkpt lat="42.34329" lon="1.2916">
        <ele>1570.8</ele>
        <time>2022-05-22 15:33:30</time>
      </trkpt>
      <trkpt lat="42.34332" lon="1.29153">
        <ele>1570.8</ele>
        <time>2022-05-22 15:33:31</time>
      </trkpt>
      <trkpt lat="42.34334" lon="1.29149">
        <ele>1570.8</ele>
        <time>2022-05-22 15:33:32</time>
      </trkpt>
      <trkpt lat="42.34335" lon="1.29144">
        <ele>1570.6</ele>
        <time>2022-05-22 15:33:33</time>
      </trkpt>
      <trkpt lat="42.34338" lon="1.29137">
        <ele>1570.4</ele>
        <time>2022-05-22 15:33:34</time>
      </trkpt>
      <trkpt lat="42.34339" lon="1.29133">
        <ele>1570.4</ele>
        <time>2022-05-22 15:33:35</time>
      </trkpt>
      <trkpt lat="42.34341" lon="1.29128">
        <ele>1570.2</ele>
        <time>2022-05-22 15:33:36</time>
      </trkpt>
      <trkpt lat="42.34343" lon="1.29121">
        <ele>1570.2</ele>
        <time>2022-05-22 15:33:37</time>
      </trkpt>
      <trkpt lat="42.34345" lon="1.29116">
        <ele>1570.4</ele>
        <time>2022-05-22 15:33:38</time>
      </trkpt>
      <trkpt lat="42.34347" lon="1.29112">
        <ele>1570.4</ele>
        <time>2022-05-22 15:33:39</time>
      </trkpt>
      <trkpt lat="42.3435" lon="1.29106">
        <ele>1570.4</ele>
        <time>2022-05-22 15:33:40</time>
      </trkpt>
      <trkpt lat="42.34352" lon="1.29101">
        <ele>1570.2</ele>
        <time>2022-05-22 15:33:41</time>
      </trkpt>
      <trkpt lat="42.34355" lon="1.29095">
        <ele>1570.2</ele>
        <time>2022-05-22 15:33:42</time>
      </trkpt>
      <trkpt lat="42.34357" lon="1.2909">
        <ele>1570.2</ele>
        <time>2022-05-22 15:33:43</time>
      </trkpt>
      <trkpt lat="42.34359" lon="1.29086">
        <ele>1570.2</ele>
        <time>2022-05-22 15:33:44</time>
      </trkpt>
      <trkpt lat="42.34362" lon="1.2908">
        <ele>1570</ele>
        <time>2022-05-22 15:33:45</time>
      </trkpt>
      <trkpt lat="42.34364" lon="1.29077">
        <ele>1569.8</ele>
        <time>2022-05-22 15:33:46</time>
      </trkpt>
      <trkpt lat="42.34368" lon="1.2907">
        <ele>1570</ele>
        <time>2022-05-22 15:33:47</time>
      </trkpt>
      <trkpt lat="42.3437" lon="1.29066">
        <ele>1570</ele>
        <time>2022-05-22 15:33:48</time>
      </trkpt>
      <trkpt lat="42.34372" lon="1.29063">
        <ele>1570</ele>
        <time>2022-05-22 15:33:49</time>
      </trkpt>
      <trkpt lat="42.34376" lon="1.29056">
        <ele>1570.2</ele>
        <time>2022-05-22 15:33:50</time>
      </trkpt>
      <trkpt lat="42.34379" lon="1.29052">
        <ele>1570.2</ele>
        <time>2022-05-22 15:33:51</time>
      </trkpt>
      <trkpt lat="42.34381" lon="1.29048">
        <ele>1570.2</ele>
        <time>2022-05-22 15:33:52</time>
      </trkpt>
      <trkpt lat="42.34385" lon="1.29043">
        <ele>1570.2</ele>
        <time>2022-05-22 15:33:53</time>
      </trkpt>
      <trkpt lat="42.34387" lon="1.29039">
        <ele>1570.2</ele>
        <time>2022-05-22 15:33:54</time>
      </trkpt>
      <trkpt lat="42.34391" lon="1.29034">
        <ele>1570</ele>
        <time>2022-05-22 15:33:55</time>
      </trkpt>
      <trkpt lat="42.34394" lon="1.29031">
        <ele>1570</ele>
        <time>2022-05-22 15:33:56</time>
      </trkpt>
      <trkpt lat="42.34397" lon="1.29028">
        <ele>1570</ele>
        <time>2022-05-22 15:33:57</time>
      </trkpt>
      <trkpt lat="42.34401" lon="1.29022">
        <ele>1570</ele>
        <time>2022-05-22 15:33:58</time>
      </trkpt>
      <trkpt lat="42.34405" lon="1.29019">
        <ele>1569.8</ele>
        <time>2022-05-22 15:33:59</time>
      </trkpt>
      <trkpt lat="42.34408" lon="1.29015">
        <ele>1569.6</ele>
        <time>2022-05-22 15:34:00</time>
      </trkpt>
      <trkpt lat="42.34412" lon="1.29011">
        <ele>1569.4</ele>
        <time>2022-05-22 15:34:01</time>
      </trkpt>
      <trkpt lat="42.34415" lon="1.29008">
        <ele>1569.4</ele>
        <time>2022-05-22 15:34:02</time>
      </trkpt>
      <trkpt lat="42.34419" lon="1.29004">
        <ele>1569.2</ele>
        <time>2022-05-22 15:34:03</time>
      </trkpt>
      <trkpt lat="42.34422" lon="1.29001">
        <ele>1569.2</ele>
        <time>2022-05-22 15:34:04</time>
      </trkpt>
      <trkpt lat="42.34426" lon="1.28998">
        <ele>1569.2</ele>
        <time>2022-05-22 15:34:05</time>
      </trkpt>
      <trkpt lat="42.34431" lon="1.28995">
        <ele>1569</ele>
        <time>2022-05-22 15:34:06</time>
      </trkpt>
      <trkpt lat="42.34434" lon="1.28992">
        <ele>1568.8</ele>
        <time>2022-05-22 15:34:07</time>
      </trkpt>
      <trkpt lat="42.34438" lon="1.28989">
        <ele>1568.8</ele>
        <time>2022-05-22 15:34:08</time>
      </trkpt>
      <trkpt lat="42.34443" lon="1.28986">
        <ele>1568.6</ele>
        <time>2022-05-22 15:34:09</time>
      </trkpt>
      <trkpt lat="42.34447" lon="1.28984">
        <ele>1568.4</ele>
        <time>2022-05-22 15:34:10</time>
      </trkpt>
      <trkpt lat="42.34451" lon="1.28981">
        <ele>1568.4</ele>
        <time>2022-05-22 15:34:11</time>
      </trkpt>
      <trkpt lat="42.34455" lon="1.28978">
        <ele>1568.4</ele>
        <time>2022-05-22 15:34:12</time>
      </trkpt>
      <trkpt lat="42.3446" lon="1.28975">
        <ele>1568.4</ele>
        <time>2022-05-22 15:34:13</time>
      </trkpt>
      <trkpt lat="42.34463" lon="1.28972">
        <ele>1568.4</ele>
        <time>2022-05-22 15:34:14</time>
      </trkpt>
      <trkpt lat="42.34468" lon="1.28969">
        <ele>1568.2</ele>
        <time>2022-05-22 15:34:15</time>
      </trkpt>
      <trkpt lat="42.34471" lon="1.28966">
        <ele>1568</ele>
        <time>2022-05-22 15:34:16</time>
      </trkpt>
      <trkpt lat="42.34476" lon="1.28962">
        <ele>1568</ele>
        <time>2022-05-22 15:34:17</time>
      </trkpt>
      <trkpt lat="42.3448" lon="1.28959">
        <ele>1568</ele>
        <time>2022-05-22 15:34:18</time>
      </trkpt>
      <trkpt lat="42.34485" lon="1.28955">
        <ele>1568</ele>
        <time>2022-05-22 15:34:19</time>
      </trkpt>
      <trkpt lat="42.34488" lon="1.28952">
        <ele>1568</ele>
        <time>2022-05-22 15:34:20</time>
      </trkpt>
      <trkpt lat="42.34493" lon="1.28949">
        <ele>1568</ele>
        <time>2022-05-22 15:34:21</time>
      </trkpt>
      <trkpt lat="42.34497" lon="1.28946">
        <ele>1568</ele>
        <time>2022-05-22 15:34:22</time>
      </trkpt>
      <trkpt lat="42.34502" lon="1.28942">
        <ele>1568</ele>
        <time>2022-05-22 15:34:23</time>
      </trkpt>
      <trkpt lat="42.34506" lon="1.28939">
        <ele>1568.2</ele>
        <time>2022-05-22 15:34:24</time>
      </trkpt>
      <trkpt lat="42.34511" lon="1.28935">
        <ele>1568.2</ele>
        <time>2022-05-22 15:34:25</time>
      </trkpt>
      <trkpt lat="42.34514" lon="1.28933">
        <ele>1568.2</ele>
        <time>2022-05-22 15:34:26</time>
      </trkpt>
      <trkpt lat="42.34519" lon="1.28929">
        <ele>1568.2</ele>
        <time>2022-05-22 15:34:27</time>
      </trkpt>
      <trkpt lat="42.34523" lon="1.28926">
        <ele>1568.2</ele>
        <time>2022-05-22 15:34:28</time>
      </trkpt>
      <trkpt lat="42.34528" lon="1.28922">
        <ele>1568.2</ele>
        <time>2022-05-22 15:34:29</time>
      </trkpt>
      <trkpt lat="42.34533" lon="1.28919">
        <ele>1568.2</ele>
        <time>2022-05-22 15:34:30</time>
      </trkpt>
      <trkpt lat="42.34537" lon="1.28916">
        <ele>1568</ele>
        <time>2022-05-22 15:34:31</time>
      </trkpt>
      <trkpt lat="42.34541" lon="1.28913">
        <ele>1568</ele>
        <time>2022-05-22 15:34:32</time>
      </trkpt>
      <trkpt lat="42.34546" lon="1.2891">
        <ele>1568</ele>
        <time>2022-05-22 15:34:33</time>
      </trkpt>
      <trkpt lat="42.34551" lon="1.28907">
        <ele>1568</ele>
        <time>2022-05-22 15:34:34</time>
      </trkpt>
      <trkpt lat="42.34555" lon="1.28905">
        <ele>1567.8</ele>
        <time>2022-05-22 15:34:35</time>
      </trkpt>
      <trkpt lat="42.3456" lon="1.28902">
        <ele>1567.8</ele>
        <time>2022-05-22 15:34:36</time>
      </trkpt>
      <trkpt lat="42.34565" lon="1.289">
        <ele>1567.8</ele>
        <time>2022-05-22 15:34:37</time>
      </trkpt>
      <trkpt lat="42.3457" lon="1.28898">
        <ele>1567.8</ele>
        <time>2022-05-22 15:34:38</time>
      </trkpt>
      <trkpt lat="42.34574" lon="1.28896">
        <ele>1567.8</ele>
        <time>2022-05-22 15:34:39</time>
      </trkpt>
      <trkpt lat="42.34579" lon="1.28895">
        <ele>1567.8</ele>
        <time>2022-05-22 15:34:40</time>
      </trkpt>
      <trkpt lat="42.34584" lon="1.28894">
        <ele>1568</ele>
        <time>2022-05-22 15:34:41</time>
      </trkpt>
      <trkpt lat="42.34588" lon="1.28893">
        <ele>1568</ele>
        <time>2022-05-22 15:34:42</time>
      </trkpt>
      <trkpt lat="42.34592" lon="1.28892">
        <ele>1568.2</ele>
        <time>2022-05-22 15:34:43</time>
      </trkpt>
      <trkpt lat="42.34597" lon="1.28892">
        <ele>1568.4</ele>
        <time>2022-05-22 15:34:44</time>
      </trkpt>
      <trkpt lat="42.34601" lon="1.28891">
        <ele>1568.4</ele>
        <time>2022-05-22 15:34:45</time>
      </trkpt>
      <trkpt lat="42.34605" lon="1.28891">
        <ele>1568.4</ele>
        <time>2022-05-22 15:34:46</time>
      </trkpt>
      <trkpt lat="42.3461" lon="1.28891">
        <ele>1568.6</ele>
        <time>2022-05-22 15:34:47</time>
      </trkpt>
      <trkpt lat="42.34614" lon="1.28891">
        <ele>1568.6</ele>
        <time>2022-05-22 15:34:48</time>
      </trkpt>
      <trkpt lat="42.34618" lon="1.28891">
        <ele>1568.8</ele>
        <time>2022-05-22 15:34:49</time>
      </trkpt>
      <trkpt lat="42.34622" lon="1.28891">
        <ele>1568.8</ele>
        <time>2022-05-22 15:34:50</time>
      </trkpt>
      <trkpt lat="42.34626" lon="1.28891">
        <ele>1568.8</ele>
        <time>2022-05-22 15:34:51</time>
      </trkpt>
      <trkpt lat="42.3463" lon="1.28891">
        <ele>1569</ele>
        <time>2022-05-22 15:34:52</time>
      </trkpt>
      <trkpt lat="42.34635" lon="1.2889">
        <ele>1569</ele>
        <time>2022-05-22 15:34:53</time>
      </trkpt>
      <trkpt lat="42.34639" lon="1.2889">
        <ele>1569</ele>
        <time>2022-05-22 15:34:54</time>
      </trkpt>
      <trkpt lat="42.34643" lon="1.2889">
        <ele>1569</ele>
        <time>2022-05-22 15:34:55</time>
      </trkpt>
      <trkpt lat="42.34648" lon="1.2889">
        <ele>1569.2</ele>
        <time>2022-05-22 15:34:56</time>
      </trkpt>
      <trkpt lat="42.34653" lon="1.2889">
        <ele>1569.2</ele>
        <time>2022-05-22 15:34:57</time>
      </trkpt>
      <trkpt lat="42.34657" lon="1.2889">
        <ele>1569.2</ele>
        <time>2022-05-22 15:34:58</time>
      </trkpt>
      <trkpt lat="42.34662" lon="1.28891">
        <ele>1569.2</ele>
        <time>2022-05-22 15:34:59</time>
      </trkpt>
      <trkpt lat="42.34666" lon="1.28892">
        <ele>1569.4</ele>
        <time>2022-05-22 15:35:00</time>
      </trkpt>
      <trkpt lat="42.3467" lon="1.28892">
        <ele>1569.4</ele>
        <time>2022-05-22 15:35:01</time>
      </trkpt>
      <trkpt lat="42.34675" lon="1.28893">
        <ele>1569.4</ele>
        <time>2022-05-22 15:35:02</time>
      </trkpt>
      <trkpt lat="42.34679" lon="1.28892">
        <ele>1569.4</ele>
        <time>2022-05-22 15:35:03</time>
      </trkpt>
      <trkpt lat="42.34684" lon="1.28892">
        <ele>1569.6</ele>
        <time>2022-05-22 15:35:04</time>
      </trkpt>
      <trkpt lat="42.34688" lon="1.28892">
        <ele>1569.6</ele>
        <time>2022-05-22 15:35:05</time>
      </trkpt>
      <trkpt lat="42.34692" lon="1.28891">
        <ele>1569.6</ele>
        <time>2022-05-22 15:35:06</time>
      </trkpt>
      <trkpt lat="42.34697" lon="1.28891">
        <ele>1569.6</ele>
        <time>2022-05-22 15:35:07</time>
      </trkpt>
      <trkpt lat="42.34701" lon="1.2889">
        <ele>1569.6</ele>
        <time>2022-05-22 15:35:08</time>
      </trkpt>
      <trkpt lat="42.34706" lon="1.28888">
        <ele>1569.6</ele>
        <time>2022-05-22 15:35:09</time>
      </trkpt>
      <trkpt lat="42.34711" lon="1.28886">
        <ele>1569.6</ele>
        <time>2022-05-22 15:35:10</time>
      </trkpt>
      <trkpt lat="42.34715" lon="1.28884">
        <ele>1569.6</ele>
        <time>2022-05-22 15:35:11</time>
      </trkpt>
      <trkpt lat="42.34719" lon="1.28882">
        <ele>1569.6</ele>
        <time>2022-05-22 15:35:12</time>
      </trkpt>
      <trkpt lat="42.34724" lon="1.28879">
        <ele>1569.4</ele>
        <time>2022-05-22 15:35:13</time>
      </trkpt>
      <trkpt lat="42.34728" lon="1.28877">
        <ele>1569.4</ele>
        <time>2022-05-22 15:35:14</time>
      </trkpt>
      <trkpt lat="42.34733" lon="1.28874">
        <ele>1569.4</ele>
        <time>2022-05-22 15:35:15</time>
      </trkpt>
      <trkpt lat="42.34737" lon="1.2887">
        <ele>1569.4</ele>
        <time>2022-05-22 15:35:16</time>
      </trkpt>
      <trkpt lat="42.34742" lon="1.28867">
        <ele>1569.6</ele>
        <time>2022-05-22 15:35:17</time>
      </trkpt>
      <trkpt lat="42.34746" lon="1.28863">
        <ele>1569.6</ele>
        <time>2022-05-22 15:35:18</time>
      </trkpt>
      <trkpt lat="42.34749" lon="1.28859">
        <ele>1569.4</ele>
        <time>2022-05-22 15:35:19</time>
      </trkpt>
      <trkpt lat="42.34753" lon="1.28855">
        <ele>1569.4</ele>
        <time>2022-05-22 15:35:20</time>
      </trkpt>
      <trkpt lat="42.34757" lon="1.2885">
        <ele>1569.4</ele>
        <time>2022-05-22 15:35:21</time>
      </trkpt>
      <trkpt lat="42.3476" lon="1.28846">
        <ele>1569.4</ele>
        <time>2022-05-22 15:35:22</time>
      </trkpt>
      <trkpt lat="42.34764" lon="1.28842">
        <ele>1569.4</ele>
        <time>2022-05-22 15:35:23</time>
      </trkpt>
      <trkpt lat="42.34768" lon="1.28838">
        <ele>1569.4</ele>
        <time>2022-05-22 15:35:24</time>
      </trkpt>
      <trkpt lat="42.34771" lon="1.28834">
        <ele>1569.4</ele>
        <time>2022-05-22 15:35:25</time>
      </trkpt>
      <trkpt lat="42.34775" lon="1.2883">
        <ele>1569.4</ele>
        <time>2022-05-22 15:35:26</time>
      </trkpt>
      <trkpt lat="42.34778" lon="1.28825">
        <ele>1569.4</ele>
        <time>2022-05-22 15:35:27</time>
      </trkpt>
      <trkpt lat="42.34781" lon="1.2882">
        <ele>1569.4</ele>
        <time>2022-05-22 15:35:28</time>
      </trkpt>
      <trkpt lat="42.34784" lon="1.28816">
        <ele>1569.4</ele>
        <time>2022-05-22 15:35:29</time>
      </trkpt>
      <trkpt lat="42.34787" lon="1.28811">
        <ele>1569.2</ele>
        <time>2022-05-22 15:35:30</time>
      </trkpt>
      <trkpt lat="42.3479" lon="1.28806">
        <ele>1569.2</ele>
        <time>2022-05-22 15:35:31</time>
      </trkpt>
      <trkpt lat="42.34794" lon="1.28801">
        <ele>1569.2</ele>
        <time>2022-05-22 15:35:32</time>
      </trkpt>
      <trkpt lat="42.34797" lon="1.28797">
        <ele>1569.2</ele>
        <time>2022-05-22 15:35:33</time>
      </trkpt>
      <trkpt lat="42.34801" lon="1.28792">
        <ele>1569.2</ele>
        <time>2022-05-22 15:35:34</time>
      </trkpt>
      <trkpt lat="42.34804" lon="1.28788">
        <ele>1569</ele>
        <time>2022-05-22 15:35:35</time>
      </trkpt>
      <trkpt lat="42.34807" lon="1.28783">
        <ele>1569</ele>
        <time>2022-05-22 15:35:36</time>
      </trkpt>
      <trkpt lat="42.3481" lon="1.28779">
        <ele>1569</ele>
        <time>2022-05-22 15:35:37</time>
      </trkpt>
      <trkpt lat="42.34814" lon="1.28774">
        <ele>1569</ele>
        <time>2022-05-22 15:35:38</time>
      </trkpt>
      <trkpt lat="42.34817" lon="1.2877">
        <ele>1569</ele>
        <time>2022-05-22 15:35:39</time>
      </trkpt>
      <trkpt lat="42.3482" lon="1.28765">
        <ele>1569</ele>
        <time>2022-05-22 15:35:40</time>
      </trkpt>
      <trkpt lat="42.34824" lon="1.2876">
        <ele>1569</ele>
        <time>2022-05-22 15:35:41</time>
      </trkpt>
      <trkpt lat="42.34827" lon="1.28756">
        <ele>1569</ele>
        <time>2022-05-22 15:35:42</time>
      </trkpt>
      <trkpt lat="42.3483" lon="1.28751">
        <ele>1569</ele>
        <time>2022-05-22 15:35:43</time>
      </trkpt>
      <trkpt lat="42.34833" lon="1.28746">
        <ele>1569</ele>
        <time>2022-05-22 15:35:44</time>
      </trkpt>
      <trkpt lat="42.34836" lon="1.28741">
        <ele>1569.2</ele>
        <time>2022-05-22 15:35:45</time>
      </trkpt>
      <trkpt lat="42.34839" lon="1.28736">
        <ele>1569.2</ele>
        <time>2022-05-22 15:35:46</time>
      </trkpt>
      <trkpt lat="42.34843" lon="1.28731">
        <ele>1569.4</ele>
        <time>2022-05-22 15:35:47</time>
      </trkpt>
      <trkpt lat="42.34847" lon="1.28726">
        <ele>1569.4</ele>
        <time>2022-05-22 15:35:48</time>
      </trkpt>
      <trkpt lat="42.3485" lon="1.28721">
        <ele>1569.6</ele>
        <time>2022-05-22 15:35:49</time>
      </trkpt>
      <trkpt lat="42.34854" lon="1.28716">
        <ele>1569.6</ele>
        <time>2022-05-22 15:35:50</time>
      </trkpt>
      <trkpt lat="42.34857" lon="1.28711">
        <ele>1569.6</ele>
        <time>2022-05-22 15:35:51</time>
      </trkpt>
      <trkpt lat="42.3486" lon="1.28706">
        <ele>1569.8</ele>
        <time>2022-05-22 15:35:52</time>
      </trkpt>
      <trkpt lat="42.34864" lon="1.28701">
        <ele>1569.8</ele>
        <time>2022-05-22 15:35:53</time>
      </trkpt>
      <trkpt lat="42.34867" lon="1.28696">
        <ele>1569.8</ele>
        <time>2022-05-22 15:35:54</time>
      </trkpt>
      <trkpt lat="42.3487" lon="1.28691">
        <ele>1569.8</ele>
        <time>2022-05-22 15:35:55</time>
      </trkpt>
      <trkpt lat="42.34874" lon="1.28686">
        <ele>1569.8</ele>
        <time>2022-05-22 15:35:56</time>
      </trkpt>
      <trkpt lat="42.34877" lon="1.28681">
        <ele>1569.8</ele>
        <time>2022-05-22 15:35:57</time>
      </trkpt>
      <trkpt lat="42.3488" lon="1.28676">
        <ele>1569.8</ele>
        <time>2022-05-22 15:35:58</time>
      </trkpt>
      <trkpt lat="42.34884" lon="1.2867">
        <ele>1569.8</ele>
        <time>2022-05-22 15:35:59</time>
      </trkpt>
      <trkpt lat="42.34888" lon="1.28665">
        <ele>1570</ele>
        <time>2022-05-22 15:36:00</time>
      </trkpt>
      <trkpt lat="42.34891" lon="1.28659">
        <ele>1570</ele>
        <time>2022-05-22 15:36:01</time>
      </trkpt>
      <trkpt lat="42.34895" lon="1.28654">
        <ele>1570</ele>
        <time>2022-05-22 15:36:02</time>
      </trkpt>
      <trkpt lat="42.34899" lon="1.28648">
        <ele>1570</ele>
        <time>2022-05-22 15:36:03</time>
      </trkpt>
      <trkpt lat="42.34903" lon="1.28642">
        <ele>1570</ele>
        <time>2022-05-22 15:36:04</time>
      </trkpt>
      <trkpt lat="42.34907" lon="1.28637">
        <ele>1570</ele>
        <time>2022-05-22 15:36:05</time>
      </trkpt>
      <trkpt lat="42.34911" lon="1.28631">
        <ele>1570</ele>
        <time>2022-05-22 15:36:06</time>
      </trkpt>
      <trkpt lat="42.34915" lon="1.28626">
        <ele>1570.2</ele>
        <time>2022-05-22 15:36:07</time>
      </trkpt>
      <trkpt lat="42.34919" lon="1.28621">
        <ele>1570.2</ele>
        <time>2022-05-22 15:36:08</time>
      </trkpt>
      <trkpt lat="42.34923" lon="1.28616">
        <ele>1570.4</ele>
        <time>2022-05-22 15:36:09</time>
      </trkpt>
      <trkpt lat="42.34927" lon="1.28611">
        <ele>1570.4</ele>
        <time>2022-05-22 15:36:10</time>
      </trkpt>
      <trkpt lat="42.3493" lon="1.28607">
        <ele>1570.6</ele>
        <time>2022-05-22 15:36:11</time>
      </trkpt>
      <trkpt lat="42.34934" lon="1.28602">
        <ele>1570.6</ele>
        <time>2022-05-22 15:36:12</time>
      </trkpt>
      <trkpt lat="42.34937" lon="1.28598">
        <ele>1570.6</ele>
        <time>2022-05-22 15:36:13</time>
      </trkpt>
      <trkpt lat="42.3494" lon="1.28593">
        <ele>1570.8</ele>
        <time>2022-05-22 15:36:14</time>
      </trkpt>
      <trkpt lat="42.34944" lon="1.28588">
        <ele>1570.8</ele>
        <time>2022-05-22 15:36:15</time>
      </trkpt>
      <trkpt lat="42.34947" lon="1.28583">
        <ele>1570.8</ele>
        <time>2022-05-22 15:36:16</time>
      </trkpt>
      <trkpt lat="42.3495" lon="1.28579">
        <ele>1570.8</ele>
        <time>2022-05-22 15:36:17</time>
      </trkpt>
      <trkpt lat="42.34954" lon="1.28574">
        <ele>1570.8</ele>
        <time>2022-05-22 15:36:18</time>
      </trkpt>
      <trkpt lat="42.34957" lon="1.28568">
        <ele>1570.8</ele>
        <time>2022-05-22 15:36:19</time>
      </trkpt>
      <trkpt lat="42.3496" lon="1.28563">
        <ele>1570.8</ele>
        <time>2022-05-22 15:36:20</time>
      </trkpt>
      <trkpt lat="42.34963" lon="1.28558">
        <ele>1571</ele>
        <time>2022-05-22 15:36:21</time>
      </trkpt>
      <trkpt lat="42.34967" lon="1.28553">
        <ele>1571</ele>
        <time>2022-05-22 15:36:22</time>
      </trkpt>
      <trkpt lat="42.3497" lon="1.28548">
        <ele>1571</ele>
        <time>2022-05-22 15:36:23</time>
      </trkpt>
      <trkpt lat="42.34973" lon="1.28543">
        <ele>1571</ele>
        <time>2022-05-22 15:36:24</time>
      </trkpt>
      <trkpt lat="42.34976" lon="1.28538">
        <ele>1571</ele>
        <time>2022-05-22 15:36:25</time>
      </trkpt>
      <trkpt lat="42.3498" lon="1.28533">
        <ele>1571</ele>
        <time>2022-05-22 15:36:26</time>
      </trkpt>
      <trkpt lat="42.34983" lon="1.28528">
        <ele>1571</ele>
        <time>2022-05-22 15:36:27</time>
      </trkpt>
      <trkpt lat="42.34986" lon="1.28523">
        <ele>1571</ele>
        <time>2022-05-22 15:36:28</time>
      </trkpt>
      <trkpt lat="42.34989" lon="1.28518">
        <ele>1571</ele>
        <time>2022-05-22 15:36:29</time>
      </trkpt>
      <trkpt lat="42.34992" lon="1.28514">
        <ele>1571</ele>
        <time>2022-05-22 15:36:30</time>
      </trkpt>
      <trkpt lat="42.34994" lon="1.28509">
        <ele>1571</ele>
        <time>2022-05-22 15:36:31</time>
      </trkpt>
      <trkpt lat="42.34997" lon="1.28505">
        <ele>1571</ele>
        <time>2022-05-22 15:36:32</time>
      </trkpt>
      <trkpt lat="42.35" lon="1.285">
        <ele>1571</ele>
        <time>2022-05-22 15:36:33</time>
      </trkpt>
      <trkpt lat="42.35003" lon="1.28496">
        <ele>1571.2</ele>
        <time>2022-05-22 15:36:34</time>
      </trkpt>
      <trkpt lat="42.35005" lon="1.28492">
        <ele>1571.2</ele>
        <time>2022-05-22 15:36:35</time>
      </trkpt>
      <trkpt lat="42.35008" lon="1.28487">
        <ele>1571.2</ele>
        <time>2022-05-22 15:36:36</time>
      </trkpt>
      <trkpt lat="42.3501" lon="1.28482">
        <ele>1571.2</ele>
        <time>2022-05-22 15:36:37</time>
      </trkpt>
      <trkpt lat="42.35013" lon="1.28478">
        <ele>1571.4</ele>
        <time>2022-05-22 15:36:38</time>
      </trkpt>
      <trkpt lat="42.35016" lon="1.28474">
        <ele>1571.6</ele>
        <time>2022-05-22 15:36:39</time>
      </trkpt>
      <trkpt lat="42.35018" lon="1.28469">
        <ele>1571.6</ele>
        <time>2022-05-22 15:36:40</time>
      </trkpt>
      <trkpt lat="42.35021" lon="1.28464">
        <ele>1571.8</ele>
        <time>2022-05-22 15:36:41</time>
      </trkpt>
      <trkpt lat="42.35024" lon="1.2846">
        <ele>1572</ele>
        <time>2022-05-22 15:36:42</time>
      </trkpt>
      <trkpt lat="42.35026" lon="1.28455">
        <ele>1572</ele>
        <time>2022-05-22 15:36:43</time>
      </trkpt>
      <trkpt lat="42.35029" lon="1.2845">
        <ele>1572</ele>
        <time>2022-05-22 15:36:44</time>
      </trkpt>
      <trkpt lat="42.35031" lon="1.28446">
        <ele>1572</ele>
        <time>2022-05-22 15:36:45</time>
      </trkpt>
      <trkpt lat="42.35034" lon="1.28441">
        <ele>1572.2</ele>
        <time>2022-05-22 15:36:46</time>
      </trkpt>
      <trkpt lat="42.35037" lon="1.28436">
        <ele>1572.4</ele>
        <time>2022-05-22 15:36:47</time>
      </trkpt>
      <trkpt lat="42.35039" lon="1.28432">
        <ele>1572.4</ele>
        <time>2022-05-22 15:36:48</time>
      </trkpt>
      <trkpt lat="42.35041" lon="1.28428">
        <ele>1572.6</ele>
        <time>2022-05-22 15:36:49</time>
      </trkpt>
      <trkpt lat="42.35044" lon="1.28424">
        <ele>1572.6</ele>
        <time>2022-05-22 15:36:50</time>
      </trkpt>
      <trkpt lat="42.35046" lon="1.2842">
        <ele>1572.6</ele>
        <time>2022-05-22 15:36:51</time>
      </trkpt>
      <trkpt lat="42.35048" lon="1.28415">
        <ele>1572.6</ele>
        <time>2022-05-22 15:36:52</time>
      </trkpt>
      <trkpt lat="42.35051" lon="1.28411">
        <ele>1572.6</ele>
        <time>2022-05-22 15:36:53</time>
      </trkpt>
      <trkpt lat="42.35054" lon="1.28407">
        <ele>1572.6</ele>
        <time>2022-05-22 15:36:54</time>
      </trkpt>
      <trkpt lat="42.35056" lon="1.28403">
        <ele>1572.8</ele>
        <time>2022-05-22 15:36:55</time>
      </trkpt>
      <trkpt lat="42.35059" lon="1.28398">
        <ele>1572.8</ele>
        <time>2022-05-22 15:36:56</time>
      </trkpt>
      <trkpt lat="42.35061" lon="1.28394">
        <ele>1572.8</ele>
        <time>2022-05-22 15:36:57</time>
      </trkpt>
      <trkpt lat="42.35064" lon="1.28389">
        <ele>1572.8</ele>
        <time>2022-05-22 15:36:58</time>
      </trkpt>
      <trkpt lat="42.35066" lon="1.28385">
        <ele>1572.8</ele>
        <time>2022-05-22 15:36:59</time>
      </trkpt>
      <trkpt lat="42.35069" lon="1.28381">
        <ele>1572.8</ele>
        <time>2022-05-22 15:37:00</time>
      </trkpt>
      <trkpt lat="42.35071" lon="1.28376">
        <ele>1572.8</ele>
        <time>2022-05-22 15:37:01</time>
      </trkpt>
      <trkpt lat="42.35074" lon="1.28372">
        <ele>1572.8</ele>
        <time>2022-05-22 15:37:02</time>
      </trkpt>
      <trkpt lat="42.35076" lon="1.28367">
        <ele>1572.8</ele>
        <time>2022-05-22 15:37:03</time>
      </trkpt>
      <trkpt lat="42.35079" lon="1.28363">
        <ele>1572.8</ele>
        <time>2022-05-22 15:37:04</time>
      </trkpt>
      <trkpt lat="42.35082" lon="1.28358">
        <ele>1572.8</ele>
        <time>2022-05-22 15:37:05</time>
      </trkpt>
      <trkpt lat="42.35084" lon="1.28353">
        <ele>1572.8</ele>
        <time>2022-05-22 15:37:06</time>
      </trkpt>
      <trkpt lat="42.35087" lon="1.28349">
        <ele>1572.8</ele>
        <time>2022-05-22 15:37:07</time>
      </trkpt>
      <trkpt lat="42.35089" lon="1.28344">
        <ele>1572.6</ele>
        <time>2022-05-22 15:37:08</time>
      </trkpt>
      <trkpt lat="42.35092" lon="1.2834">
        <ele>1572.6</ele>
        <time>2022-05-22 15:37:09</time>
      </trkpt>
      <trkpt lat="42.35095" lon="1.28335">
        <ele>1572.6</ele>
        <time>2022-05-22 15:37:10</time>
      </trkpt>
      <trkpt lat="42.35097" lon="1.28331">
        <ele>1572.6</ele>
        <time>2022-05-22 15:37:11</time>
      </trkpt>
      <trkpt lat="42.351" lon="1.28326">
        <ele>1572.8</ele>
        <time>2022-05-22 15:37:12</time>
      </trkpt>
      <trkpt lat="42.35102" lon="1.28322">
        <ele>1572.8</ele>
        <time>2022-05-22 15:37:13</time>
      </trkpt>
      <trkpt lat="42.35105" lon="1.28317">
        <ele>1572.8</ele>
        <time>2022-05-22 15:37:14</time>
      </trkpt>
      <trkpt lat="42.35107" lon="1.28313">
        <ele>1572.8</ele>
        <time>2022-05-22 15:37:15</time>
      </trkpt>
      <trkpt lat="42.3511" lon="1.28309">
        <ele>1572.8</ele>
        <time>2022-05-22 15:37:16</time>
      </trkpt>
      <trkpt lat="42.35112" lon="1.28304">
        <ele>1572.8</ele>
        <time>2022-05-22 15:37:17</time>
      </trkpt>
      <trkpt lat="42.35115" lon="1.283">
        <ele>1572.8</ele>
        <time>2022-05-22 15:37:18</time>
      </trkpt>
      <trkpt lat="42.35117" lon="1.28295">
        <ele>1572.8</ele>
        <time>2022-05-22 15:37:19</time>
      </trkpt>
      <trkpt lat="42.3512" lon="1.28291">
        <ele>1572.8</ele>
        <time>2022-05-22 15:37:20</time>
      </trkpt>
      <trkpt lat="42.35123" lon="1.28286">
        <ele>1572.8</ele>
        <time>2022-05-22 15:37:21</time>
      </trkpt>
      <trkpt lat="42.35125" lon="1.28282">
        <ele>1572.8</ele>
        <time>2022-05-22 15:37:22</time>
      </trkpt>
      <trkpt lat="42.35128" lon="1.28277">
        <ele>1572.8</ele>
        <time>2022-05-22 15:37:23</time>
      </trkpt>
      <trkpt lat="42.3513" lon="1.28273">
        <ele>1573</ele>
        <time>2022-05-22 15:37:24</time>
      </trkpt>
      <trkpt lat="42.35133" lon="1.28268">
        <ele>1572.8</ele>
        <time>2022-05-22 15:37:25</time>
      </trkpt>
      <trkpt lat="42.35136" lon="1.28264">
        <ele>1572.8</ele>
        <time>2022-05-22 15:37:26</time>
      </trkpt>
      <trkpt lat="42.35138" lon="1.28259">
        <ele>1572.8</ele>
        <time>2022-05-22 15:37:27</time>
      </trkpt>
      <trkpt lat="42.35141" lon="1.28255">
        <ele>1572.8</ele>
        <time>2022-05-22 15:37:28</time>
      </trkpt>
      <trkpt lat="42.35144" lon="1.2825">
        <ele>1573</ele>
        <time>2022-05-22 15:37:29</time>
      </trkpt>
      <trkpt lat="42.35146" lon="1.28245">
        <ele>1573</ele>
        <time>2022-05-22 15:37:30</time>
      </trkpt>
      <trkpt lat="42.35149" lon="1.28241">
        <ele>1573</ele>
        <time>2022-05-22 15:37:31</time>
      </trkpt>
      <trkpt lat="42.35152" lon="1.28236">
        <ele>1573.2</ele>
        <time>2022-05-22 15:37:32</time>
      </trkpt>
      <trkpt lat="42.35154" lon="1.28231">
        <ele>1573.2</ele>
        <time>2022-05-22 15:37:33</time>
      </trkpt>
      <trkpt lat="42.35157" lon="1.28227">
        <ele>1573.4</ele>
        <time>2022-05-22 15:37:34</time>
      </trkpt>
      <trkpt lat="42.3516" lon="1.28222">
        <ele>1573.6</ele>
        <time>2022-05-22 15:37:35</time>
      </trkpt>
      <trkpt lat="42.35163" lon="1.28217">
        <ele>1573.6</ele>
        <time>2022-05-22 15:37:36</time>
      </trkpt>
      <trkpt lat="42.35166" lon="1.28213">
        <ele>1573.8</ele>
        <time>2022-05-22 15:37:37</time>
      </trkpt>
      <trkpt lat="42.35169" lon="1.28208">
        <ele>1574</ele>
        <time>2022-05-22 15:37:38</time>
      </trkpt>
      <trkpt lat="42.35172" lon="1.28203">
        <ele>1574</ele>
        <time>2022-05-22 15:37:39</time>
      </trkpt>
      <trkpt lat="42.35175" lon="1.28199">
        <ele>1574.2</ele>
        <time>2022-05-22 15:37:40</time>
      </trkpt>
      <trkpt lat="42.35178" lon="1.28194">
        <ele>1574.2</ele>
        <time>2022-05-22 15:37:41</time>
      </trkpt>
      <trkpt lat="42.35181" lon="1.2819">
        <ele>1574.2</ele>
        <time>2022-05-22 15:37:42</time>
      </trkpt>
      <trkpt lat="42.35184" lon="1.28186">
        <ele>1574.4</ele>
        <time>2022-05-22 15:37:43</time>
      </trkpt>
      <trkpt lat="42.35188" lon="1.28181">
        <ele>1574.4</ele>
        <time>2022-05-22 15:37:44</time>
      </trkpt>
      <trkpt lat="42.35191" lon="1.28177">
        <ele>1574.4</ele>
        <time>2022-05-22 15:37:45</time>
      </trkpt>
      <trkpt lat="42.35194" lon="1.28173">
        <ele>1574.4</ele>
        <time>2022-05-22 15:37:46</time>
      </trkpt>
      <trkpt lat="42.35197" lon="1.28169">
        <ele>1574.6</ele>
        <time>2022-05-22 15:37:47</time>
      </trkpt>
      <trkpt lat="42.35201" lon="1.28165">
        <ele>1574.6</ele>
        <time>2022-05-22 15:37:48</time>
      </trkpt>
      <trkpt lat="42.35204" lon="1.2816">
        <ele>1574.4</ele>
        <time>2022-05-22 15:37:49</time>
      </trkpt>
      <trkpt lat="42.35207" lon="1.28156">
        <ele>1574.6</ele>
        <time>2022-05-22 15:37:50</time>
      </trkpt>
      <trkpt lat="42.35211" lon="1.28152">
        <ele>1574.6</ele>
        <time>2022-05-22 15:37:51</time>
      </trkpt>
      <trkpt lat="42.35214" lon="1.28148">
        <ele>1574.4</ele>
        <time>2022-05-22 15:37:52</time>
      </trkpt>
      <trkpt lat="42.35217" lon="1.28143">
        <ele>1574.4</ele>
        <time>2022-05-22 15:37:53</time>
      </trkpt>
      <trkpt lat="42.35221" lon="1.28139">
        <ele>1574.4</ele>
        <time>2022-05-22 15:37:54</time>
      </trkpt>
      <trkpt lat="42.35224" lon="1.28135">
        <ele>1574.4</ele>
        <time>2022-05-22 15:37:55</time>
      </trkpt>
      <trkpt lat="42.35228" lon="1.28131">
        <ele>1574.4</ele>
        <time>2022-05-22 15:37:56</time>
      </trkpt>
      <trkpt lat="42.35231" lon="1.28127">
        <ele>1574.2</ele>
        <time>2022-05-22 15:37:57</time>
      </trkpt>
      <trkpt lat="42.35234" lon="1.28123">
        <ele>1574.2</ele>
        <time>2022-05-22 15:37:58</time>
      </trkpt>
      <trkpt lat="42.35237" lon="1.28119">
        <ele>1574.2</ele>
        <time>2022-05-22 15:37:59</time>
      </trkpt>
      <trkpt lat="42.3524" lon="1.28115">
        <ele>1574.2</ele>
        <time>2022-05-22 15:38:00</time>
      </trkpt>
      <trkpt lat="42.35244" lon="1.2811">
        <ele>1574.2</ele>
        <time>2022-05-22 15:38:01</time>
      </trkpt>
      <trkpt lat="42.35247" lon="1.28106">
        <ele>1574.2</ele>
        <time>2022-05-22 15:38:02</time>
      </trkpt>
      <trkpt lat="42.3525" lon="1.28102">
        <ele>1574.2</ele>
        <time>2022-05-22 15:38:03</time>
      </trkpt>
      <trkpt lat="42.35253" lon="1.28099">
        <ele>1574.2</ele>
        <time>2022-05-22 15:38:04</time>
      </trkpt>
      <trkpt lat="42.35256" lon="1.28095">
        <ele>1574</ele>
        <time>2022-05-22 15:38:05</time>
      </trkpt>
      <trkpt lat="42.35259" lon="1.2809">
        <ele>1573.8</ele>
        <time>2022-05-22 15:38:06</time>
      </trkpt>
      <trkpt lat="42.35262" lon="1.28086">
        <ele>1573.8</ele>
        <time>2022-05-22 15:38:07</time>
      </trkpt>
      <trkpt lat="42.35266" lon="1.28082">
        <ele>1573.6</ele>
        <time>2022-05-22 15:38:08</time>
      </trkpt>
      <trkpt lat="42.35269" lon="1.28077">
        <ele>1573.6</ele>
        <time>2022-05-22 15:38:09</time>
      </trkpt>
      <trkpt lat="42.35272" lon="1.28072">
        <ele>1573.8</ele>
        <time>2022-05-22 15:38:10</time>
      </trkpt>
      <trkpt lat="42.35275" lon="1.28067">
        <ele>1574</ele>
        <time>2022-05-22 15:38:11</time>
      </trkpt>
      <trkpt lat="42.35278" lon="1.28062">
        <ele>1574</ele>
        <time>2022-05-22 15:38:12</time>
      </trkpt>
      <trkpt lat="42.35281" lon="1.28057">
        <ele>1574</ele>
        <time>2022-05-22 15:38:13</time>
      </trkpt>
      <trkpt lat="42.35284" lon="1.28052">
        <ele>1574.2</ele>
        <time>2022-05-22 15:38:14</time>
      </trkpt>
      <trkpt lat="42.35287" lon="1.28047">
        <ele>1574.2</ele>
        <time>2022-05-22 15:38:15</time>
      </trkpt>
      <trkpt lat="42.35289" lon="1.28042">
        <ele>1574.2</ele>
        <time>2022-05-22 15:38:16</time>
      </trkpt>
      <trkpt lat="42.35292" lon="1.28038">
        <ele>1574.4</ele>
        <time>2022-05-22 15:38:17</time>
      </trkpt>
      <trkpt lat="42.35294" lon="1.28033">
        <ele>1574.4</ele>
        <time>2022-05-22 15:38:18</time>
      </trkpt>
      <trkpt lat="42.35297" lon="1.28028">
        <ele>1574.2</ele>
        <time>2022-05-22 15:38:19</time>
      </trkpt>
      <trkpt lat="42.35299" lon="1.28023">
        <ele>1574.2</ele>
        <time>2022-05-22 15:38:20</time>
      </trkpt>
      <trkpt lat="42.35302" lon="1.28018">
        <ele>1574.2</ele>
        <time>2022-05-22 15:38:21</time>
      </trkpt>
      <trkpt lat="42.35305" lon="1.28013">
        <ele>1574.2</ele>
        <time>2022-05-22 15:38:22</time>
      </trkpt>
      <trkpt lat="42.35307" lon="1.28008">
        <ele>1574.2</ele>
        <time>2022-05-22 15:38:23</time>
      </trkpt>
      <trkpt lat="42.35309" lon="1.28003">
        <ele>1574.4</ele>
        <time>2022-05-22 15:38:24</time>
      </trkpt>
      <trkpt lat="42.35311" lon="1.27997">
        <ele>1574.4</ele>
        <time>2022-05-22 15:38:25</time>
      </trkpt>
      <trkpt lat="42.35314" lon="1.27992">
        <ele>1574.6</ele>
        <time>2022-05-22 15:38:26</time>
      </trkpt>
      <trkpt lat="42.35316" lon="1.27987">
        <ele>1574.6</ele>
        <time>2022-05-22 15:38:27</time>
      </trkpt>
      <trkpt lat="42.35319" lon="1.27982">
        <ele>1574.8</ele>
        <time>2022-05-22 15:38:28</time>
      </trkpt>
      <trkpt lat="42.35321" lon="1.27977">
        <ele>1574.8</ele>
        <time>2022-05-22 15:38:29</time>
      </trkpt>
      <trkpt lat="42.35324" lon="1.27972">
        <ele>1575</ele>
        <time>2022-05-22 15:38:30</time>
      </trkpt>
      <trkpt lat="42.35326" lon="1.27967">
        <ele>1575</ele>
        <time>2022-05-22 15:38:31</time>
      </trkpt>
      <trkpt lat="42.35329" lon="1.27961">
        <ele>1575</ele>
        <time>2022-05-22 15:38:32</time>
      </trkpt>
      <trkpt lat="42.35331" lon="1.27956">
        <ele>1575.2</ele>
        <time>2022-05-22 15:38:33</time>
      </trkpt>
      <trkpt lat="42.35334" lon="1.27951">
        <ele>1575.2</ele>
        <time>2022-05-22 15:38:34</time>
      </trkpt>
      <trkpt lat="42.35336" lon="1.27946">
        <ele>1575.2</ele>
        <time>2022-05-22 15:38:35</time>
      </trkpt>
      <trkpt lat="42.35338" lon="1.27941">
        <ele>1575.2</ele>
        <time>2022-05-22 15:38:36</time>
      </trkpt>
      <trkpt lat="42.3534" lon="1.27937">
        <ele>1575.4</ele>
        <time>2022-05-22 15:38:37</time>
      </trkpt>
      <trkpt lat="42.35343" lon="1.27932">
        <ele>1575.4</ele>
        <time>2022-05-22 15:38:38</time>
      </trkpt>
      <trkpt lat="42.35345" lon="1.27927">
        <ele>1575.4</ele>
        <time>2022-05-22 15:38:39</time>
      </trkpt>
      <trkpt lat="42.35347" lon="1.27922">
        <ele>1575.4</ele>
        <time>2022-05-22 15:38:40</time>
      </trkpt>
      <trkpt lat="42.35349" lon="1.27918">
        <ele>1575.4</ele>
        <time>2022-05-22 15:38:41</time>
      </trkpt>
      <trkpt lat="42.35351" lon="1.27913">
        <ele>1575.4</ele>
        <time>2022-05-22 15:38:42</time>
      </trkpt>
      <trkpt lat="42.35353" lon="1.27908">
        <ele>1575.4</ele>
        <time>2022-05-22 15:38:43</time>
      </trkpt>
      <trkpt lat="42.35356" lon="1.27904">
        <ele>1575.4</ele>
        <time>2022-05-22 15:38:44</time>
      </trkpt>
      <trkpt lat="42.35358" lon="1.27899">
        <ele>1575.4</ele>
        <time>2022-05-22 15:38:45</time>
      </trkpt>
      <trkpt lat="42.3536" lon="1.27894">
        <ele>1575.2</ele>
        <time>2022-05-22 15:38:46</time>
      </trkpt>
      <trkpt lat="42.35362" lon="1.2789">
        <ele>1575.2</ele>
        <time>2022-05-22 15:38:47</time>
      </trkpt>
      <trkpt lat="42.35364" lon="1.27886">
        <ele>1575.2</ele>
        <time>2022-05-22 15:38:48</time>
      </trkpt>
      <trkpt lat="42.35366" lon="1.27881">
        <ele>1575.2</ele>
        <time>2022-05-22 15:38:49</time>
      </trkpt>
      <trkpt lat="42.35368" lon="1.27876">
        <ele>1575.2</ele>
        <time>2022-05-22 15:38:50</time>
      </trkpt>
      <trkpt lat="42.35371" lon="1.27872">
        <ele>1575</ele>
        <time>2022-05-22 15:38:51</time>
      </trkpt>
      <trkpt lat="42.35373" lon="1.27867">
        <ele>1575.2</ele>
        <time>2022-05-22 15:38:52</time>
      </trkpt>
      <trkpt lat="42.35375" lon="1.27862">
        <ele>1575.2</ele>
        <time>2022-05-22 15:38:53</time>
      </trkpt>
      <trkpt lat="42.35377" lon="1.27858">
        <ele>1575.2</ele>
        <time>2022-05-22 15:38:54</time>
      </trkpt>
      <trkpt lat="42.35379" lon="1.27853">
        <ele>1575.2</ele>
        <time>2022-05-22 15:38:55</time>
      </trkpt>
      <trkpt lat="42.35381" lon="1.27848">
        <ele>1575.2</ele>
        <time>2022-05-22 15:38:56</time>
      </trkpt>
      <trkpt lat="42.35384" lon="1.27843">
        <ele>1575.2</ele>
        <time>2022-05-22 15:38:57</time>
      </trkpt>
      <trkpt lat="42.35386" lon="1.27838">
        <ele>1575.2</ele>
        <time>2022-05-22 15:38:58</time>
      </trkpt>
      <trkpt lat="42.35388" lon="1.27833">
        <ele>1575.4</ele>
        <time>2022-05-22 15:38:59</time>
      </trkpt>
      <trkpt lat="42.35391" lon="1.27828">
        <ele>1575.4</ele>
        <time>2022-05-22 15:39:00</time>
      </trkpt>
      <trkpt lat="42.35393" lon="1.27824">
        <ele>1575.6</ele>
        <time>2022-05-22 15:39:01</time>
      </trkpt>
      <trkpt lat="42.35396" lon="1.27819">
        <ele>1575.8</ele>
        <time>2022-05-22 15:39:02</time>
      </trkpt>
      <trkpt lat="42.35399" lon="1.27815">
        <ele>1575.8</ele>
        <time>2022-05-22 15:39:03</time>
      </trkpt>
      <trkpt lat="42.35401" lon="1.2781">
        <ele>1575.8</ele>
        <time>2022-05-22 15:39:04</time>
      </trkpt>
      <trkpt lat="42.35404" lon="1.27805">
        <ele>1576</ele>
        <time>2022-05-22 15:39:05</time>
      </trkpt>
      <trkpt lat="42.35407" lon="1.27801">
        <ele>1576</ele>
        <time>2022-05-22 15:39:06</time>
      </trkpt>
      <trkpt lat="42.3541" lon="1.27796">
        <ele>1576.2</ele>
        <time>2022-05-22 15:39:07</time>
      </trkpt>
      <trkpt lat="42.35412" lon="1.27792">
        <ele>1576.2</ele>
        <time>2022-05-22 15:39:08</time>
      </trkpt>
      <trkpt lat="42.35416" lon="1.27787">
        <ele>1576.2</ele>
        <time>2022-05-22 15:39:09</time>
      </trkpt>
      <trkpt lat="42.35418" lon="1.27783">
        <ele>1576.2</ele>
        <time>2022-05-22 15:39:10</time>
      </trkpt>
      <trkpt lat="42.35421" lon="1.27779">
        <ele>1576.4</ele>
        <time>2022-05-22 15:39:11</time>
      </trkpt>
      <trkpt lat="42.35424" lon="1.27775">
        <ele>1576.4</ele>
        <time>2022-05-22 15:39:12</time>
      </trkpt>
      <trkpt lat="42.35427" lon="1.2777">
        <ele>1576.4</ele>
        <time>2022-05-22 15:39:13</time>
      </trkpt>
      <trkpt lat="42.3543" lon="1.27766">
        <ele>1576.6</ele>
        <time>2022-05-22 15:39:14</time>
      </trkpt>
      <trkpt lat="42.35433" lon="1.27762">
        <ele>1576.6</ele>
        <time>2022-05-22 15:39:15</time>
      </trkpt>
      <trkpt lat="42.35437" lon="1.27758">
        <ele>1576.6</ele>
        <time>2022-05-22 15:39:16</time>
      </trkpt>
      <trkpt lat="42.35439" lon="1.27753">
        <ele>1576.8</ele>
        <time>2022-05-22 15:39:17</time>
      </trkpt>
      <trkpt lat="42.35442" lon="1.27749">
        <ele>1576.8</ele>
        <time>2022-05-22 15:39:18</time>
      </trkpt>
      <trkpt lat="42.35445" lon="1.27745">
        <ele>1576.8</ele>
        <time>2022-05-22 15:39:19</time>
      </trkpt>
      <trkpt lat="42.35448" lon="1.27741">
        <ele>1576.8</ele>
        <time>2022-05-22 15:39:20</time>
      </trkpt>
      <trkpt lat="42.3545" lon="1.27737">
        <ele>1576.8</ele>
        <time>2022-05-22 15:39:21</time>
      </trkpt>
      <trkpt lat="42.35453" lon="1.27733">
        <ele>1577</ele>
        <time>2022-05-22 15:39:22</time>
      </trkpt>
      <trkpt lat="42.35456" lon="1.27729">
        <ele>1577</ele>
        <time>2022-05-22 15:39:23</time>
      </trkpt>
      <trkpt lat="42.35459" lon="1.27725">
        <ele>1577</ele>
        <time>2022-05-22 15:39:24</time>
      </trkpt>
      <trkpt lat="42.35461" lon="1.27721">
        <ele>1577.2</ele>
        <time>2022-05-22 15:39:25</time>
      </trkpt>
      <trkpt lat="42.35464" lon="1.27717">
        <ele>1577.2</ele>
        <time>2022-05-22 15:39:26</time>
      </trkpt>
      <trkpt lat="42.35466" lon="1.27713">
        <ele>1577.4</ele>
        <time>2022-05-22 15:39:27</time>
      </trkpt>
      <trkpt lat="42.35469" lon="1.27709">
        <ele>1577.4</ele>
        <time>2022-05-22 15:39:28</time>
      </trkpt>
      <trkpt lat="42.35471" lon="1.27705">
        <ele>1577.6</ele>
        <time>2022-05-22 15:39:29</time>
      </trkpt>
      <trkpt lat="42.35474" lon="1.27701">
        <ele>1577.6</ele>
        <time>2022-05-22 15:39:30</time>
      </trkpt>
      <trkpt lat="42.35476" lon="1.27697">
        <ele>1577.6</ele>
        <time>2022-05-22 15:39:31</time>
      </trkpt>
      <trkpt lat="42.35478" lon="1.27693">
        <ele>1577.6</ele>
        <time>2022-05-22 15:39:32</time>
      </trkpt>
      <trkpt lat="42.35481" lon="1.27689">
        <ele>1577.6</ele>
        <time>2022-05-22 15:39:33</time>
      </trkpt>
      <trkpt lat="42.35483" lon="1.27685">
        <ele>1577.6</ele>
        <time>2022-05-22 15:39:34</time>
      </trkpt>
      <trkpt lat="42.35485" lon="1.27681">
        <ele>1577.6</ele>
        <time>2022-05-22 15:39:35</time>
      </trkpt>
      <trkpt lat="42.35488" lon="1.27677">
        <ele>1577.8</ele>
        <time>2022-05-22 15:39:36</time>
      </trkpt>
      <trkpt lat="42.3549" lon="1.27673">
        <ele>1577.8</ele>
        <time>2022-05-22 15:39:37</time>
      </trkpt>
      <trkpt lat="42.35492" lon="1.27668">
        <ele>1578</ele>
        <time>2022-05-22 15:39:38</time>
      </trkpt>
      <trkpt lat="42.35495" lon="1.27664">
        <ele>1578.2</ele>
        <time>2022-05-22 15:39:39</time>
      </trkpt>
      <trkpt lat="42.35497" lon="1.2766">
        <ele>1578.2</ele>
        <time>2022-05-22 15:39:40</time>
      </trkpt>
      <trkpt lat="42.35499" lon="1.27656">
        <ele>1578.4</ele>
        <time>2022-05-22 15:39:41</time>
      </trkpt>
      <trkpt lat="42.35502" lon="1.27652">
        <ele>1578.4</ele>
        <time>2022-05-22 15:39:42</time>
      </trkpt>
      <trkpt lat="42.35504" lon="1.27648">
        <ele>1578.6</ele>
        <time>2022-05-22 15:39:43</time>
      </trkpt>
      <trkpt lat="42.35506" lon="1.27644">
        <ele>1578.8</ele>
        <time>2022-05-22 15:39:44</time>
      </trkpt>
      <trkpt lat="42.35509" lon="1.2764">
        <ele>1578.8</ele>
        <time>2022-05-22 15:39:45</time>
      </trkpt>
      <trkpt lat="42.35511" lon="1.27637">
        <ele>1579</ele>
        <time>2022-05-22 15:39:46</time>
      </trkpt>
      <trkpt lat="42.35514" lon="1.27633">
        <ele>1579</ele>
        <time>2022-05-22 15:39:47</time>
      </trkpt>
      <trkpt lat="42.35516" lon="1.27629">
        <ele>1579.2</ele>
        <time>2022-05-22 15:39:48</time>
      </trkpt>
      <trkpt lat="42.35519" lon="1.27625">
        <ele>1579.2</ele>
        <time>2022-05-22 15:39:49</time>
      </trkpt>
      <trkpt lat="42.35521" lon="1.27621">
        <ele>1579.2</ele>
        <time>2022-05-22 15:39:50</time>
      </trkpt>
      <trkpt lat="42.35524" lon="1.27618">
        <ele>1579.4</ele>
        <time>2022-05-22 15:39:51</time>
      </trkpt>
      <trkpt lat="42.35526" lon="1.27614">
        <ele>1579.4</ele>
        <time>2022-05-22 15:39:52</time>
      </trkpt>
      <trkpt lat="42.35529" lon="1.2761">
        <ele>1579.4</ele>
        <time>2022-05-22 15:39:53</time>
      </trkpt>
      <trkpt lat="42.35532" lon="1.27607">
        <ele>1579.6</ele>
        <time>2022-05-22 15:39:54</time>
      </trkpt>
      <trkpt lat="42.35534" lon="1.27603">
        <ele>1579.6</ele>
        <time>2022-05-22 15:39:55</time>
      </trkpt>
      <trkpt lat="42.35536" lon="1.276">
        <ele>1579.8</ele>
        <time>2022-05-22 15:39:56</time>
      </trkpt>
      <trkpt lat="42.35539" lon="1.27597">
        <ele>1579.8</ele>
        <time>2022-05-22 15:39:57</time>
      </trkpt>
      <trkpt lat="42.35542" lon="1.27593">
        <ele>1580</ele>
        <time>2022-05-22 15:39:58</time>
      </trkpt>
      <trkpt lat="42.35544" lon="1.2759">
        <ele>1580</ele>
        <time>2022-05-22 15:39:59</time>
      </trkpt>
      <trkpt lat="42.35547" lon="1.27587">
        <ele>1580.2</ele>
        <time>2022-05-22 15:40:00</time>
      </trkpt>
      <trkpt lat="42.35549" lon="1.27583">
        <ele>1580.2</ele>
        <time>2022-05-22 15:40:01</time>
      </trkpt>
      <trkpt lat="42.35552" lon="1.2758">
        <ele>1580.4</ele>
        <time>2022-05-22 15:40:02</time>
      </trkpt>
      <trkpt lat="42.35555" lon="1.27577">
        <ele>1580.4</ele>
        <time>2022-05-22 15:40:03</time>
      </trkpt>
      <trkpt lat="42.35557" lon="1.27574">
        <ele>1580.4</ele>
        <time>2022-05-22 15:40:04</time>
      </trkpt>
      <trkpt lat="42.3556" lon="1.2757">
        <ele>1580.4</ele>
        <time>2022-05-22 15:40:05</time>
      </trkpt>
      <trkpt lat="42.35563" lon="1.27567">
        <ele>1580.6</ele>
        <time>2022-05-22 15:40:06</time>
      </trkpt>
      <trkpt lat="42.35566" lon="1.27563">
        <ele>1580.6</ele>
        <time>2022-05-22 15:40:07</time>
      </trkpt>
      <trkpt lat="42.35569" lon="1.2756">
        <ele>1580.8</ele>
        <time>2022-05-22 15:40:08</time>
      </trkpt>
      <trkpt lat="42.35571" lon="1.27557">
        <ele>1580.8</ele>
        <time>2022-05-22 15:40:09</time>
      </trkpt>
      <trkpt lat="42.35574" lon="1.27553">
        <ele>1581</ele>
        <time>2022-05-22 15:40:10</time>
      </trkpt>
      <trkpt lat="42.35577" lon="1.27549">
        <ele>1581.2</ele>
        <time>2022-05-22 15:40:11</time>
      </trkpt>
      <trkpt lat="42.3558" lon="1.27546">
        <ele>1581.4</ele>
        <time>2022-05-22 15:40:12</time>
      </trkpt>
      <trkpt lat="42.35582" lon="1.27543">
        <ele>1581.6</ele>
        <time>2022-05-22 15:40:13</time>
      </trkpt>
      <trkpt lat="42.35585" lon="1.2754">
        <ele>1581.6</ele>
        <time>2022-05-22 15:40:14</time>
      </trkpt>
      <trkpt lat="42.35588" lon="1.27536">
        <ele>1581.8</ele>
        <time>2022-05-22 15:40:15</time>
      </trkpt>
      <trkpt lat="42.35591" lon="1.27532">
        <ele>1582</ele>
        <time>2022-05-22 15:40:16</time>
      </trkpt>
      <trkpt lat="42.35594" lon="1.27529">
        <ele>1582</ele>
        <time>2022-05-22 15:40:17</time>
      </trkpt>
      <trkpt lat="42.35596" lon="1.27525">
        <ele>1582.2</ele>
        <time>2022-05-22 15:40:18</time>
      </trkpt>
      <trkpt lat="42.35598" lon="1.27522">
        <ele>1582.2</ele>
        <time>2022-05-22 15:40:19</time>
      </trkpt>
      <trkpt lat="42.35602" lon="1.27518">
        <ele>1582.2</ele>
        <time>2022-05-22 15:40:20</time>
      </trkpt>
      <trkpt lat="42.35605" lon="1.27515">
        <ele>1582.4</ele>
        <time>2022-05-22 15:40:21</time>
      </trkpt>
      <trkpt lat="42.35607" lon="1.27512">
        <ele>1582.4</ele>
        <time>2022-05-22 15:40:22</time>
      </trkpt>
      <trkpt lat="42.3561" lon="1.27508">
        <ele>1582.4</ele>
        <time>2022-05-22 15:40:23</time>
      </trkpt>
      <trkpt lat="42.35613" lon="1.27505">
        <ele>1582.6</ele>
        <time>2022-05-22 15:40:24</time>
      </trkpt>
      <trkpt lat="42.35615" lon="1.27501">
        <ele>1582.6</ele>
        <time>2022-05-22 15:40:25</time>
      </trkpt>
      <trkpt lat="42.35618" lon="1.27498">
        <ele>1582.8</ele>
        <time>2022-05-22 15:40:26</time>
      </trkpt>
      <trkpt lat="42.3562" lon="1.27494">
        <ele>1582.8</ele>
        <time>2022-05-22 15:40:27</time>
      </trkpt>
      <trkpt lat="42.35622" lon="1.27491">
        <ele>1583</ele>
        <time>2022-05-22 15:40:28</time>
      </trkpt>
      <trkpt lat="42.35624" lon="1.27487">
        <ele>1583</ele>
        <time>2022-05-22 15:40:29</time>
      </trkpt>
      <trkpt lat="42.35627" lon="1.27484">
        <ele>1583.2</ele>
        <time>2022-05-22 15:40:30</time>
      </trkpt>
      <trkpt lat="42.3563" lon="1.27481">
        <ele>1583.2</ele>
        <time>2022-05-22 15:40:31</time>
      </trkpt>
      <trkpt lat="42.35633" lon="1.27477">
        <ele>1583.4</ele>
        <time>2022-05-22 15:40:32</time>
      </trkpt>
      <trkpt lat="42.35636" lon="1.27474">
        <ele>1583.4</ele>
        <time>2022-05-22 15:40:33</time>
      </trkpt>
      <trkpt lat="42.35639" lon="1.27471">
        <ele>1583.4</ele>
        <time>2022-05-22 15:40:34</time>
      </trkpt>
      <trkpt lat="42.35641" lon="1.27467">
        <ele>1583.2</ele>
        <time>2022-05-22 15:40:35</time>
      </trkpt>
      <trkpt lat="42.35644" lon="1.27463">
        <ele>1583.4</ele>
        <time>2022-05-22 15:40:36</time>
      </trkpt>
      <trkpt lat="42.35647" lon="1.2746">
        <ele>1583.4</ele>
        <time>2022-05-22 15:40:37</time>
      </trkpt>
      <trkpt lat="42.3565" lon="1.27457">
        <ele>1583.6</ele>
        <time>2022-05-22 15:40:38</time>
      </trkpt>
      <trkpt lat="42.35652" lon="1.27454">
        <ele>1583.6</ele>
        <time>2022-05-22 15:40:39</time>
      </trkpt>
      <trkpt lat="42.35655" lon="1.27451">
        <ele>1583.6</ele>
        <time>2022-05-22 15:40:40</time>
      </trkpt>
      <trkpt lat="42.35658" lon="1.27448">
        <ele>1583.6</ele>
        <time>2022-05-22 15:40:41</time>
      </trkpt>
      <trkpt lat="42.3566" lon="1.27445">
        <ele>1583.6</ele>
        <time>2022-05-22 15:40:42</time>
      </trkpt>
      <trkpt lat="42.35663" lon="1.27441">
        <ele>1583.6</ele>
        <time>2022-05-22 15:40:43</time>
      </trkpt>
      <trkpt lat="42.35668" lon="1.27438">
        <ele>1583.6</ele>
        <time>2022-05-22 15:40:44</time>
      </trkpt>
      <trkpt lat="42.35672" lon="1.27436">
        <ele>1583.6</ele>
        <time>2022-05-22 15:40:45</time>
      </trkpt>
      <trkpt lat="42.35676" lon="1.27433">
        <ele>1583.4</ele>
        <time>2022-05-22 15:40:46</time>
      </trkpt>
      <trkpt lat="42.3568" lon="1.2743">
        <ele>1583.4</ele>
        <time>2022-05-22 15:40:47</time>
      </trkpt>
      <trkpt lat="42.35683" lon="1.27427">
        <ele>1583.4</ele>
        <time>2022-05-22 15:40:48</time>
      </trkpt>
      <trkpt lat="42.35687" lon="1.27425">
        <ele>1583.4</ele>
        <time>2022-05-22 15:40:49</time>
      </trkpt>
      <trkpt lat="42.35691" lon="1.27422">
        <ele>1583.2</ele>
        <time>2022-05-22 15:40:50</time>
      </trkpt>
      <trkpt lat="42.35694" lon="1.27419">
        <ele>1583.2</ele>
        <time>2022-05-22 15:40:51</time>
      </trkpt>
      <trkpt lat="42.35698" lon="1.27415">
        <ele>1583.2</ele>
        <time>2022-05-22 15:40:52</time>
      </trkpt>
      <trkpt lat="42.35701" lon="1.27412">
        <ele>1583.2</ele>
        <time>2022-05-22 15:40:53</time>
      </trkpt>
      <trkpt lat="42.35705" lon="1.27409">
        <ele>1583.2</ele>
        <time>2022-05-22 15:40:54</time>
      </trkpt>
      <trkpt lat="42.35708" lon="1.27406">
        <ele>1583.2</ele>
        <time>2022-05-22 15:40:55</time>
      </trkpt>
      <trkpt lat="42.35712" lon="1.27402">
        <ele>1583.2</ele>
        <time>2022-05-22 15:40:56</time>
      </trkpt>
      <trkpt lat="42.35716" lon="1.27399">
        <ele>1583.2</ele>
        <time>2022-05-22 15:40:57</time>
      </trkpt>
      <trkpt lat="42.35719" lon="1.27396">
        <ele>1583.4</ele>
        <time>2022-05-22 15:40:58</time>
      </trkpt>
      <trkpt lat="42.35723" lon="1.27392">
        <ele>1583.4</ele>
        <time>2022-05-22 15:40:59</time>
      </trkpt>
      <trkpt lat="42.35726" lon="1.27389">
        <ele>1583.4</ele>
        <time>2022-05-22 15:41:00</time>
      </trkpt>
      <trkpt lat="42.35729" lon="1.27386">
        <ele>1583.4</ele>
        <time>2022-05-22 15:41:01</time>
      </trkpt>
      <trkpt lat="42.3573" lon="1.27384">
        <ele>1583.4</ele>
        <time>2022-05-22 15:41:02</time>
      </trkpt>
      <trkpt lat="42.35735" lon="1.27378">
        <ele>1583.4</ele>
        <time>2022-05-22 15:41:03</time>
      </trkpt>
      <trkpt lat="42.35738" lon="1.27376">
        <ele>1583.4</ele>
        <time>2022-05-22 15:41:04</time>
      </trkpt>
      <trkpt lat="42.35742" lon="1.27371">
        <ele>1583.4</ele>
        <time>2022-05-22 15:41:05</time>
      </trkpt>
      <trkpt lat="42.35745" lon="1.27368">
        <ele>1583.6</ele>
        <time>2022-05-22 15:41:06</time>
      </trkpt>
      <trkpt lat="42.35747" lon="1.27366">
        <ele>1583.6</ele>
        <time>2022-05-22 15:41:07</time>
      </trkpt>
      <trkpt lat="42.35751" lon="1.27361">
        <ele>1583.6</ele>
        <time>2022-05-22 15:41:08</time>
      </trkpt>
      <trkpt lat="42.35755" lon="1.27357">
        <ele>1583.6</ele>
        <time>2022-05-22 15:41:09</time>
      </trkpt>
      <trkpt lat="42.35758" lon="1.27354">
        <ele>1583.6</ele>
        <time>2022-05-22 15:41:10</time>
      </trkpt>
      <trkpt lat="42.35761" lon="1.2735">
        <ele>1583.6</ele>
        <time>2022-05-22 15:41:11</time>
      </trkpt>
      <trkpt lat="42.35765" lon="1.27347">
        <ele>1583.6</ele>
        <time>2022-05-22 15:41:12</time>
      </trkpt>
      <trkpt lat="42.35768" lon="1.27343">
        <ele>1583.8</ele>
        <time>2022-05-22 15:41:13</time>
      </trkpt>
      <trkpt lat="42.35772" lon="1.27339">
        <ele>1584</ele>
        <time>2022-05-22 15:41:14</time>
      </trkpt>
      <trkpt lat="42.35775" lon="1.27336">
        <ele>1584</ele>
        <time>2022-05-22 15:41:15</time>
      </trkpt>
      <trkpt lat="42.35779" lon="1.27332">
        <ele>1584</ele>
        <time>2022-05-22 15:41:16</time>
      </trkpt>
      <trkpt lat="42.35782" lon="1.27328">
        <ele>1584.2</ele>
        <time>2022-05-22 15:41:17</time>
      </trkpt>
      <trkpt lat="42.35785" lon="1.27324">
        <ele>1584.2</ele>
        <time>2022-05-22 15:41:18</time>
      </trkpt>
      <trkpt lat="42.35788" lon="1.27321">
        <ele>1584.2</ele>
        <time>2022-05-22 15:41:19</time>
      </trkpt>
      <trkpt lat="42.3579" lon="1.27318">
        <ele>1584.2</ele>
        <time>2022-05-22 15:41:20</time>
      </trkpt>
      <trkpt lat="42.35795" lon="1.27312">
        <ele>1584.2</ele>
        <time>2022-05-22 15:41:21</time>
      </trkpt>
      <trkpt lat="42.35798" lon="1.27308">
        <ele>1584.4</ele>
        <time>2022-05-22 15:41:22</time>
      </trkpt>
      <trkpt lat="42.35801" lon="1.27304">
        <ele>1584.4</ele>
        <time>2022-05-22 15:41:23</time>
      </trkpt>
      <trkpt lat="42.35805" lon="1.273">
        <ele>1584.4</ele>
        <time>2022-05-22 15:41:24</time>
      </trkpt>
      <trkpt lat="42.35808" lon="1.27296">
        <ele>1584.6</ele>
        <time>2022-05-22 15:41:25</time>
      </trkpt>
      <trkpt lat="42.35811" lon="1.27293">
        <ele>1584.8</ele>
        <time>2022-05-22 15:41:26</time>
      </trkpt>
      <trkpt lat="42.35814" lon="1.27289">
        <ele>1584.8</ele>
        <time>2022-05-22 15:41:27</time>
      </trkpt>
      <trkpt lat="42.35816" lon="1.27285">
        <ele>1585</ele>
        <time>2022-05-22 15:41:28</time>
      </trkpt>
      <trkpt lat="42.35819" lon="1.27281">
        <ele>1585.2</ele>
        <time>2022-05-22 15:41:29</time>
      </trkpt>
      <trkpt lat="42.35822" lon="1.27276">
        <ele>1585.4</ele>
        <time>2022-05-22 15:41:30</time>
      </trkpt>
      <trkpt lat="42.35824" lon="1.27272">
        <ele>1585.4</ele>
        <time>2022-05-22 15:41:31</time>
      </trkpt>
      <trkpt lat="42.35827" lon="1.27268">
        <ele>1585.6</ele>
        <time>2022-05-22 15:41:32</time>
      </trkpt>
      <trkpt lat="42.3583" lon="1.27264">
        <ele>1585.6</ele>
        <time>2022-05-22 15:41:33</time>
      </trkpt>
      <trkpt lat="42.35832" lon="1.2726">
        <ele>1585.8</ele>
        <time>2022-05-22 15:41:34</time>
      </trkpt>
      <trkpt lat="42.35835" lon="1.27256">
        <ele>1585.8</ele>
        <time>2022-05-22 15:41:35</time>
      </trkpt>
      <trkpt lat="42.35837" lon="1.27252">
        <ele>1586</ele>
        <time>2022-05-22 15:41:36</time>
      </trkpt>
      <trkpt lat="42.35839" lon="1.27248">
        <ele>1586</ele>
        <time>2022-05-22 15:41:37</time>
      </trkpt>
      <trkpt lat="42.35842" lon="1.27243">
        <ele>1586.2</ele>
        <time>2022-05-22 15:41:38</time>
      </trkpt>
      <trkpt lat="42.35845" lon="1.27239">
        <ele>1586.2</ele>
        <time>2022-05-22 15:41:39</time>
      </trkpt>
      <trkpt lat="42.35847" lon="1.27235">
        <ele>1586.4</ele>
        <time>2022-05-22 15:41:40</time>
      </trkpt>
      <trkpt lat="42.35849" lon="1.27232">
        <ele>1586.4</ele>
        <time>2022-05-22 15:41:41</time>
      </trkpt>
      <trkpt lat="42.35851" lon="1.27227">
        <ele>1586.6</ele>
        <time>2022-05-22 15:41:42</time>
      </trkpt>
      <trkpt lat="42.35854" lon="1.27222">
        <ele>1586.8</ele>
        <time>2022-05-22 15:41:43</time>
      </trkpt>
      <trkpt lat="42.35856" lon="1.27217">
        <ele>1586.8</ele>
        <time>2022-05-22 15:41:44</time>
      </trkpt>
      <trkpt lat="42.35858" lon="1.27213">
        <ele>1587</ele>
        <time>2022-05-22 15:41:45</time>
      </trkpt>
      <trkpt lat="42.3586" lon="1.27209">
        <ele>1587</ele>
        <time>2022-05-22 15:41:46</time>
      </trkpt>
      <trkpt lat="42.35862" lon="1.27205">
        <ele>1587.2</ele>
        <time>2022-05-22 15:41:47</time>
      </trkpt>
      <trkpt lat="42.35864" lon="1.27201">
        <ele>1587.2</ele>
        <time>2022-05-22 15:41:48</time>
      </trkpt>
      <trkpt lat="42.35866" lon="1.27197">
        <ele>1587.4</ele>
        <time>2022-05-22 15:41:49</time>
      </trkpt>
      <trkpt lat="42.35868" lon="1.27194">
        <ele>1587.4</ele>
        <time>2022-05-22 15:41:50</time>
      </trkpt>
      <trkpt lat="42.3587" lon="1.2719">
        <ele>1587.6</ele>
        <time>2022-05-22 15:41:51</time>
      </trkpt>
      <trkpt lat="42.35872" lon="1.27186">
        <ele>1587.8</ele>
        <time>2022-05-22 15:41:52</time>
      </trkpt>
      <trkpt lat="42.35874" lon="1.27182">
        <ele>1587.8</ele>
        <time>2022-05-22 15:41:53</time>
      </trkpt>
      <trkpt lat="42.35876" lon="1.27178">
        <ele>1587.8</ele>
        <time>2022-05-22 15:41:54</time>
      </trkpt>
      <trkpt lat="42.35878" lon="1.27175">
        <ele>1588</ele>
        <time>2022-05-22 15:41:55</time>
      </trkpt>
      <trkpt lat="42.35879" lon="1.27171">
        <ele>1588</ele>
        <time>2022-05-22 15:41:56</time>
      </trkpt>
      <trkpt lat="42.35881" lon="1.27168">
        <ele>1588</ele>
        <time>2022-05-22 15:41:57</time>
      </trkpt>
      <trkpt lat="42.35884" lon="1.27164">
        <ele>1588.2</ele>
        <time>2022-05-22 15:41:58</time>
      </trkpt>
      <trkpt lat="42.35886" lon="1.2716">
        <ele>1588.2</ele>
        <time>2022-05-22 15:41:59</time>
      </trkpt>
      <trkpt lat="42.35888" lon="1.27157">
        <ele>1588.4</ele>
        <time>2022-05-22 15:42:00</time>
      </trkpt>
      <trkpt lat="42.3589" lon="1.27153">
        <ele>1588.4</ele>
        <time>2022-05-22 15:42:01</time>
      </trkpt>
      <trkpt lat="42.35892" lon="1.2715">
        <ele>1588.4</ele>
        <time>2022-05-22 15:42:02</time>
      </trkpt>
      <trkpt lat="42.35893" lon="1.27147">
        <ele>1588.6</ele>
        <time>2022-05-22 15:42:03</time>
      </trkpt>
      <trkpt lat="42.35895" lon="1.27143">
        <ele>1588.8</ele>
        <time>2022-05-22 15:42:04</time>
      </trkpt>
      <trkpt lat="42.35897" lon="1.2714">
        <ele>1588.8</ele>
        <time>2022-05-22 15:42:05</time>
      </trkpt>
      <trkpt lat="42.35898" lon="1.27137">
        <ele>1588.8</ele>
        <time>2022-05-22 15:42:06</time>
      </trkpt>
      <trkpt lat="42.359" lon="1.27134">
        <ele>1589</ele>
        <time>2022-05-22 15:42:07</time>
      </trkpt>
      <trkpt lat="42.35902" lon="1.27131">
        <ele>1589</ele>
        <time>2022-05-22 15:42:08</time>
      </trkpt>
      <trkpt lat="42.35904" lon="1.27128">
        <ele>1589</ele>
        <time>2022-05-22 15:42:09</time>
      </trkpt>
      <trkpt lat="42.35905" lon="1.27124">
        <ele>1589.2</ele>
        <time>2022-05-22 15:42:10</time>
      </trkpt>
      <trkpt lat="42.35907" lon="1.27121">
        <ele>1589.2</ele>
        <time>2022-05-22 15:42:11</time>
      </trkpt>
      <trkpt lat="42.35909" lon="1.27118">
        <ele>1589.2</ele>
        <time>2022-05-22 15:42:12</time>
      </trkpt>
      <trkpt lat="42.35911" lon="1.27115">
        <ele>1589.4</ele>
        <time>2022-05-22 15:42:13</time>
      </trkpt>
      <trkpt lat="42.35912" lon="1.27112">
        <ele>1589.6</ele>
        <time>2022-05-22 15:42:14</time>
      </trkpt>
      <trkpt lat="42.35914" lon="1.27109">
        <ele>1589.6</ele>
        <time>2022-05-22 15:42:15</time>
      </trkpt>
      <trkpt lat="42.35916" lon="1.27105">
        <ele>1589.6</ele>
        <time>2022-05-22 15:42:16</time>
      </trkpt>
      <trkpt lat="42.35917" lon="1.27102">
        <ele>1589.8</ele>
        <time>2022-05-22 15:42:17</time>
      </trkpt>
      <trkpt lat="42.35919" lon="1.27098">
        <ele>1589.8</ele>
        <time>2022-05-22 15:42:18</time>
      </trkpt>
      <trkpt lat="42.35921" lon="1.27095">
        <ele>1589.8</ele>
        <time>2022-05-22 15:42:19</time>
      </trkpt>
      <trkpt lat="42.35923" lon="1.27092">
        <ele>1590</ele>
        <time>2022-05-22 15:42:20</time>
      </trkpt>
      <trkpt lat="42.35924" lon="1.27089">
        <ele>1590</ele>
        <time>2022-05-22 15:42:21</time>
      </trkpt>
      <trkpt lat="42.35926" lon="1.27085">
        <ele>1590.2</ele>
        <time>2022-05-22 15:42:22</time>
      </trkpt>
      <trkpt lat="42.35928" lon="1.27082">
        <ele>1590.2</ele>
        <time>2022-05-22 15:42:23</time>
      </trkpt>
      <trkpt lat="42.3593" lon="1.27078">
        <ele>1590.4</ele>
        <time>2022-05-22 15:42:24</time>
      </trkpt>
      <trkpt lat="42.35932" lon="1.27075">
        <ele>1590.4</ele>
        <time>2022-05-22 15:42:25</time>
      </trkpt>
      <trkpt lat="42.35933" lon="1.27071">
        <ele>1590.6</ele>
        <time>2022-05-22 15:42:26</time>
      </trkpt>
      <trkpt lat="42.35935" lon="1.27068">
        <ele>1590.6</ele>
        <time>2022-05-22 15:42:27</time>
      </trkpt>
      <trkpt lat="42.35937" lon="1.27064">
        <ele>1590.8</ele>
        <time>2022-05-22 15:42:28</time>
      </trkpt>
      <trkpt lat="42.35938" lon="1.27061">
        <ele>1590.8</ele>
        <time>2022-05-22 15:42:29</time>
      </trkpt>
      <trkpt lat="42.3594" lon="1.27058">
        <ele>1590.8</ele>
        <time>2022-05-22 15:42:30</time>
      </trkpt>
      <trkpt lat="42.35942" lon="1.27055">
        <ele>1591</ele>
        <time>2022-05-22 15:42:31</time>
      </trkpt>
      <trkpt lat="42.35944" lon="1.27051">
        <ele>1591</ele>
        <time>2022-05-22 15:42:32</time>
      </trkpt>
      <trkpt lat="42.35945" lon="1.27048">
        <ele>1591</ele>
        <time>2022-05-22 15:42:33</time>
      </trkpt>
      <trkpt lat="42.35947" lon="1.27045">
        <ele>1591</ele>
        <time>2022-05-22 15:42:34</time>
      </trkpt>
      <trkpt lat="42.35949" lon="1.27042">
        <ele>1591.2</ele>
        <time>2022-05-22 15:42:35</time>
      </trkpt>
      <trkpt lat="42.3595" lon="1.27038">
        <ele>1591.2</ele>
        <time>2022-05-22 15:42:36</time>
      </trkpt>
      <trkpt lat="42.35952" lon="1.27035">
        <ele>1591.2</ele>
        <time>2022-05-22 15:42:37</time>
      </trkpt>
      <trkpt lat="42.35954" lon="1.27032">
        <ele>1591.2</ele>
        <time>2022-05-22 15:42:38</time>
      </trkpt>
      <trkpt lat="42.35955" lon="1.27029">
        <ele>1591.2</ele>
        <time>2022-05-22 15:42:39</time>
      </trkpt>
      <trkpt lat="42.35957" lon="1.27026">
        <ele>1591.4</ele>
        <time>2022-05-22 15:42:40</time>
      </trkpt>
      <trkpt lat="42.35959" lon="1.27024">
        <ele>1591.4</ele>
        <time>2022-05-22 15:42:41</time>
      </trkpt>
      <trkpt lat="42.35962" lon="1.2702">
        <ele>1591.6</ele>
        <time>2022-05-22 15:42:42</time>
      </trkpt>
      <trkpt lat="42.35965" lon="1.27018">
        <ele>1591.6</ele>
        <time>2022-05-22 15:42:43</time>
      </trkpt>
      <trkpt lat="42.35967" lon="1.27015">
        <ele>1591.6</ele>
        <time>2022-05-22 15:42:44</time>
      </trkpt>
      <trkpt lat="42.35969" lon="1.27012">
        <ele>1591.6</ele>
        <time>2022-05-22 15:42:45</time>
      </trkpt>
      <trkpt lat="42.3597" lon="1.27009">
        <ele>1591.8</ele>
        <time>2022-05-22 15:42:46</time>
      </trkpt>
      <trkpt lat="42.35972" lon="1.27007">
        <ele>1591.8</ele>
        <time>2022-05-22 15:42:47</time>
      </trkpt>
      <trkpt lat="42.35974" lon="1.27004">
        <ele>1591.8</ele>
        <time>2022-05-22 15:42:48</time>
      </trkpt>
      <trkpt lat="42.35976" lon="1.27001">
        <ele>1592</ele>
        <time>2022-05-22 15:42:49</time>
      </trkpt>
      <trkpt lat="42.35978" lon="1.26999">
        <ele>1592</ele>
        <time>2022-05-22 15:42:50</time>
      </trkpt>
      <trkpt lat="42.3598" lon="1.26997">
        <ele>1592.2</ele>
        <time>2022-05-22 15:42:51</time>
      </trkpt>
      <trkpt lat="42.35982" lon="1.26994">
        <ele>1592.2</ele>
        <time>2022-05-22 15:42:52</time>
      </trkpt>
      <trkpt lat="42.35984" lon="1.26992">
        <ele>1592.4</ele>
        <time>2022-05-22 15:42:53</time>
      </trkpt>
      <trkpt lat="42.35986" lon="1.26989">
        <ele>1592.4</ele>
        <time>2022-05-22 15:42:54</time>
      </trkpt>
      <trkpt lat="42.35987" lon="1.26987">
        <ele>1592.4</ele>
        <time>2022-05-22 15:42:55</time>
      </trkpt>
      <trkpt lat="42.35989" lon="1.26984">
        <ele>1592.6</ele>
        <time>2022-05-22 15:42:56</time>
      </trkpt>
      <trkpt lat="42.35991" lon="1.26981">
        <ele>1592.6</ele>
        <time>2022-05-22 15:42:57</time>
      </trkpt>
      <trkpt lat="42.35993" lon="1.26979">
        <ele>1592.8</ele>
        <time>2022-05-22 15:42:58</time>
      </trkpt>
      <trkpt lat="42.35995" lon="1.26976">
        <ele>1592.8</ele>
        <time>2022-05-22 15:42:59</time>
      </trkpt>
      <trkpt lat="42.35997" lon="1.26974">
        <ele>1593</ele>
        <time>2022-05-22 15:43:00</time>
      </trkpt>
      <trkpt lat="42.35999" lon="1.26971">
        <ele>1593.2</ele>
        <time>2022-05-22 15:43:01</time>
      </trkpt>
      <trkpt lat="42.36001" lon="1.26969">
        <ele>1593.2</ele>
        <time>2022-05-22 15:43:02</time>
      </trkpt>
      <trkpt lat="42.36003" lon="1.26966">
        <ele>1593.2</ele>
        <time>2022-05-22 15:43:03</time>
      </trkpt>
      <trkpt lat="42.36004" lon="1.26964">
        <ele>1593.4</ele>
        <time>2022-05-22 15:43:04</time>
      </trkpt>
      <trkpt lat="42.36006" lon="1.26962">
        <ele>1593.4</ele>
        <time>2022-05-22 15:43:05</time>
      </trkpt>
      <trkpt lat="42.36008" lon="1.2696">
        <ele>1593.4</ele>
        <time>2022-05-22 15:43:06</time>
      </trkpt>
      <trkpt lat="42.3601" lon="1.26958">
        <ele>1593.6</ele>
        <time>2022-05-22 15:43:07</time>
      </trkpt>
      <trkpt lat="42.36012" lon="1.26956">
        <ele>1593.6</ele>
        <time>2022-05-22 15:43:08</time>
      </trkpt>
      <trkpt lat="42.36014" lon="1.26954">
        <ele>1593.8</ele>
        <time>2022-05-22 15:43:09</time>
      </trkpt>
      <trkpt lat="42.36016" lon="1.26951">
        <ele>1593.8</ele>
        <time>2022-05-22 15:43:10</time>
      </trkpt>
      <trkpt lat="42.36018" lon="1.26949">
        <ele>1594</ele>
        <time>2022-05-22 15:43:11</time>
      </trkpt>
      <trkpt lat="42.36019" lon="1.26946">
        <ele>1594</ele>
        <time>2022-05-22 15:43:12</time>
      </trkpt>
      <trkpt lat="42.36021" lon="1.26943">
        <ele>1594</ele>
        <time>2022-05-22 15:43:13</time>
      </trkpt>
      <trkpt lat="42.36023" lon="1.2694">
        <ele>1594</ele>
        <time>2022-05-22 15:43:14</time>
      </trkpt>
      <trkpt lat="42.36026" lon="1.26938">
        <ele>1594.2</ele>
        <time>2022-05-22 15:43:15</time>
      </trkpt>
      <trkpt lat="42.36028" lon="1.26936">
        <ele>1594.2</ele>
        <time>2022-05-22 15:43:16</time>
      </trkpt>
      <trkpt lat="42.3603" lon="1.26934">
        <ele>1594.2</ele>
        <time>2022-05-22 15:43:17</time>
      </trkpt>
      <trkpt lat="42.36033" lon="1.26931">
        <ele>1594.2</ele>
        <time>2022-05-22 15:43:18</time>
      </trkpt>
      <trkpt lat="42.36035" lon="1.26928">
        <ele>1594.2</ele>
        <time>2022-05-22 15:43:19</time>
      </trkpt>
      <trkpt lat="42.36037" lon="1.26925">
        <ele>1594.2</ele>
        <time>2022-05-22 15:43:20</time>
      </trkpt>
      <trkpt lat="42.36039" lon="1.26922">
        <ele>1594.2</ele>
        <time>2022-05-22 15:43:21</time>
      </trkpt>
      <trkpt lat="42.36041" lon="1.26919">
        <ele>1594.4</ele>
        <time>2022-05-22 15:43:22</time>
      </trkpt>
      <trkpt lat="42.36043" lon="1.26916">
        <ele>1594.4</ele>
        <time>2022-05-22 15:43:23</time>
      </trkpt>
      <trkpt lat="42.36045" lon="1.26913">
        <ele>1594.6</ele>
        <time>2022-05-22 15:43:24</time>
      </trkpt>
      <trkpt lat="42.36047" lon="1.2691">
        <ele>1594.6</ele>
        <time>2022-05-22 15:43:25</time>
      </trkpt>
      <trkpt lat="42.36049" lon="1.26907">
        <ele>1594.8</ele>
        <time>2022-05-22 15:43:26</time>
      </trkpt>
      <trkpt lat="42.36051" lon="1.26904">
        <ele>1594.8</ele>
        <time>2022-05-22 15:43:27</time>
      </trkpt>
      <trkpt lat="42.36052" lon="1.26901">
        <ele>1595</ele>
        <time>2022-05-22 15:43:28</time>
      </trkpt>
      <trkpt lat="42.36054" lon="1.26898">
        <ele>1595.2</ele>
        <time>2022-05-22 15:43:29</time>
      </trkpt>
      <trkpt lat="42.36056" lon="1.26895">
        <ele>1595.2</ele>
        <time>2022-05-22 15:43:30</time>
      </trkpt>
      <trkpt lat="42.36057" lon="1.26893">
        <ele>1595.4</ele>
        <time>2022-05-22 15:43:31</time>
      </trkpt>
      <trkpt lat="42.36059" lon="1.26889">
        <ele>1595.4</ele>
        <time>2022-05-22 15:43:32</time>
      </trkpt>
      <trkpt lat="42.3606" lon="1.26886">
        <ele>1595.4</ele>
        <time>2022-05-22 15:43:33</time>
      </trkpt>
      <trkpt lat="42.36062" lon="1.26883">
        <ele>1595.4</ele>
        <time>2022-05-22 15:43:34</time>
      </trkpt>
      <trkpt lat="42.36063" lon="1.2688">
        <ele>1595.6</ele>
        <time>2022-05-22 15:43:35</time>
      </trkpt>
      <trkpt lat="42.36066" lon="1.26876">
        <ele>1595.6</ele>
        <time>2022-05-22 15:43:36</time>
      </trkpt>
      <trkpt lat="42.36068" lon="1.26873">
        <ele>1595.8</ele>
        <time>2022-05-22 15:43:37</time>
      </trkpt>
      <trkpt lat="42.36069" lon="1.2687">
        <ele>1595.8</ele>
        <time>2022-05-22 15:43:38</time>
      </trkpt>
      <trkpt lat="42.3607" lon="1.26867">
        <ele>1596</ele>
        <time>2022-05-22 15:43:39</time>
      </trkpt>
      <trkpt lat="42.36072" lon="1.26864">
        <ele>1596</ele>
        <time>2022-05-22 15:43:40</time>
      </trkpt>
      <trkpt lat="42.36074" lon="1.26861">
        <ele>1596.2</ele>
        <time>2022-05-22 15:43:41</time>
      </trkpt>
      <trkpt lat="42.36075" lon="1.26858">
        <ele>1596.2</ele>
        <time>2022-05-22 15:43:42</time>
      </trkpt>
      <trkpt lat="42.36077" lon="1.26854">
        <ele>1596.2</ele>
        <time>2022-05-22 15:43:43</time>
      </trkpt>
      <trkpt lat="42.36078" lon="1.26851">
        <ele>1596.4</ele>
        <time>2022-05-22 15:43:44</time>
      </trkpt>
      <trkpt lat="42.3608" lon="1.26848">
        <ele>1596.4</ele>
        <time>2022-05-22 15:43:45</time>
      </trkpt>
      <trkpt lat="42.36081" lon="1.26846">
        <ele>1596.4</ele>
        <time>2022-05-22 15:43:46</time>
      </trkpt>
      <trkpt lat="42.36083" lon="1.26843">
        <ele>1596.4</ele>
        <time>2022-05-22 15:43:47</time>
      </trkpt>
      <trkpt lat="42.36085" lon="1.26839">
        <ele>1596.6</ele>
        <time>2022-05-22 15:43:48</time>
      </trkpt>
      <trkpt lat="42.36086" lon="1.26836">
        <ele>1596.6</ele>
        <time>2022-05-22 15:43:49</time>
      </trkpt>
      <trkpt lat="42.36088" lon="1.26834">
        <ele>1596.6</ele>
        <time>2022-05-22 15:43:50</time>
      </trkpt>
      <trkpt lat="42.3609" lon="1.26831">
        <ele>1596.8</ele>
        <time>2022-05-22 15:43:51</time>
      </trkpt>
      <trkpt lat="42.36091" lon="1.26828">
        <ele>1597</ele>
        <time>2022-05-22 15:43:52</time>
      </trkpt>
      <trkpt lat="42.36093" lon="1.26825">
        <ele>1597</ele>
        <time>2022-05-22 15:43:53</time>
      </trkpt>
      <trkpt lat="42.36094" lon="1.26822">
        <ele>1597.2</ele>
        <time>2022-05-22 15:43:54</time>
      </trkpt>
      <trkpt lat="42.36095" lon="1.26821">
        <ele>1597.2</ele>
        <time>2022-05-22 15:43:55</time>
      </trkpt>
      <trkpt lat="42.36097" lon="1.26816">
        <ele>1597.4</ele>
        <time>2022-05-22 15:43:56</time>
      </trkpt>
      <trkpt lat="42.36099" lon="1.26813">
        <ele>1597.4</ele>
        <time>2022-05-22 15:43:57</time>
      </trkpt>
      <trkpt lat="42.361" lon="1.26811">
        <ele>1597.6</ele>
        <time>2022-05-22 15:43:58</time>
      </trkpt>
      <trkpt lat="42.36101" lon="1.26808">
        <ele>1597.6</ele>
        <time>2022-05-22 15:43:59</time>
      </trkpt>
      <trkpt lat="42.36103" lon="1.26804">
        <ele>1597.8</ele>
        <time>2022-05-22 15:44:00</time>
      </trkpt>
      <trkpt lat="42.36105" lon="1.26801">
        <ele>1597.8</ele>
        <time>2022-05-22 15:44:01</time>
      </trkpt>
      <trkpt lat="42.36106" lon="1.26799">
        <ele>1598</ele>
        <time>2022-05-22 15:44:02</time>
      </trkpt>
      <trkpt lat="42.36107" lon="1.26797">
        <ele>1598</ele>
        <time>2022-05-22 15:44:03</time>
      </trkpt>
      <trkpt lat="42.36109" lon="1.26792">
        <ele>1598.2</ele>
        <time>2022-05-22 15:44:04</time>
      </trkpt>
      <trkpt lat="42.36111" lon="1.26789">
        <ele>1598.4</ele>
        <time>2022-05-22 15:44:05</time>
      </trkpt>
      <trkpt lat="42.36112" lon="1.26786">
        <ele>1598.4</ele>
        <time>2022-05-22 15:44:06</time>
      </trkpt>
      <trkpt lat="42.36113" lon="1.26784">
        <ele>1598.6</ele>
        <time>2022-05-22 15:44:07</time>
      </trkpt>
      <trkpt lat="42.36115" lon="1.2678">
        <ele>1598.6</ele>
        <time>2022-05-22 15:44:08</time>
      </trkpt>
      <trkpt lat="42.36116" lon="1.26777">
        <ele>1598.8</ele>
        <time>2022-05-22 15:44:09</time>
      </trkpt>
      <trkpt lat="42.36118" lon="1.26774">
        <ele>1598.8</ele>
        <time>2022-05-22 15:44:10</time>
      </trkpt>
      <trkpt lat="42.36119" lon="1.26771">
        <ele>1599</ele>
        <time>2022-05-22 15:44:11</time>
      </trkpt>
      <trkpt lat="42.36121" lon="1.26768">
        <ele>1599</ele>
        <time>2022-05-22 15:44:12</time>
      </trkpt>
      <trkpt lat="42.36122" lon="1.26764">
        <ele>1599</ele>
        <time>2022-05-22 15:44:13</time>
      </trkpt>
      <trkpt lat="42.36124" lon="1.26761">
        <ele>1599.2</ele>
        <time>2022-05-22 15:44:14</time>
      </trkpt>
      <trkpt lat="42.36125" lon="1.26758">
        <ele>1599.2</ele>
        <time>2022-05-22 15:44:15</time>
      </trkpt>
      <trkpt lat="42.36127" lon="1.26755">
        <ele>1599.4</ele>
        <time>2022-05-22 15:44:16</time>
      </trkpt>
      <trkpt lat="42.36129" lon="1.26752">
        <ele>1599.6</ele>
        <time>2022-05-22 15:44:17</time>
      </trkpt>
      <trkpt lat="42.3613" lon="1.26749">
        <ele>1599.8</ele>
        <time>2022-05-22 15:44:18</time>
      </trkpt>
      <trkpt lat="42.36132" lon="1.26746">
        <ele>1600</ele>
        <time>2022-05-22 15:44:19</time>
      </trkpt>
      <trkpt lat="42.36134" lon="1.26743">
        <ele>1600.2</ele>
        <time>2022-05-22 15:44:20</time>
      </trkpt>
      <trkpt lat="42.36135" lon="1.2674">
        <ele>1600.2</ele>
        <time>2022-05-22 15:44:21</time>
      </trkpt>
      <trkpt lat="42.36137" lon="1.26736">
        <ele>1600.4</ele>
        <time>2022-05-22 15:44:22</time>
      </trkpt>
      <trkpt lat="42.36139" lon="1.26733">
        <ele>1600.6</ele>
        <time>2022-05-22 15:44:23</time>
      </trkpt>
      <trkpt lat="42.3614" lon="1.2673">
        <ele>1600.6</ele>
        <time>2022-05-22 15:44:24</time>
      </trkpt>
      <trkpt lat="42.36142" lon="1.26727">
        <ele>1600.8</ele>
        <time>2022-05-22 15:44:25</time>
      </trkpt>
      <trkpt lat="42.36143" lon="1.26723">
        <ele>1600.8</ele>
        <time>2022-05-22 15:44:26</time>
      </trkpt>
      <trkpt lat="42.36145" lon="1.2672">
        <ele>1601</ele>
        <time>2022-05-22 15:44:27</time>
      </trkpt>
      <trkpt lat="42.36146" lon="1.26717">
        <ele>1601.2</ele>
        <time>2022-05-22 15:44:28</time>
      </trkpt>
      <trkpt lat="42.36148" lon="1.26714">
        <ele>1601.2</ele>
        <time>2022-05-22 15:44:29</time>
      </trkpt>
      <trkpt lat="42.3615" lon="1.26711">
        <ele>1601.4</ele>
        <time>2022-05-22 15:44:30</time>
      </trkpt>
      <trkpt lat="42.36151" lon="1.26707">
        <ele>1601.4</ele>
        <time>2022-05-22 15:44:31</time>
      </trkpt>
      <trkpt lat="42.36153" lon="1.26704">
        <ele>1601.6</ele>
        <time>2022-05-22 15:44:32</time>
      </trkpt>
      <trkpt lat="42.36155" lon="1.26701">
        <ele>1601.6</ele>
        <time>2022-05-22 15:44:33</time>
      </trkpt>
      <trkpt lat="42.36156" lon="1.26698">
        <ele>1601.6</ele>
        <time>2022-05-22 15:44:34</time>
      </trkpt>
      <trkpt lat="42.36158" lon="1.26695">
        <ele>1601.8</ele>
        <time>2022-05-22 15:44:35</time>
      </trkpt>
      <trkpt lat="42.36159" lon="1.26692">
        <ele>1601.8</ele>
        <time>2022-05-22 15:44:36</time>
      </trkpt>
      <trkpt lat="42.36161" lon="1.26688">
        <ele>1602</ele>
        <time>2022-05-22 15:44:37</time>
      </trkpt>
      <trkpt lat="42.36162" lon="1.26685">
        <ele>1602.2</ele>
        <time>2022-05-22 15:44:38</time>
      </trkpt>
      <trkpt lat="42.36164" lon="1.26682">
        <ele>1602.4</ele>
        <time>2022-05-22 15:44:39</time>
      </trkpt>
      <trkpt lat="42.36166" lon="1.26679">
        <ele>1602.6</ele>
        <time>2022-05-22 15:44:40</time>
      </trkpt>
      <trkpt lat="42.36168" lon="1.26676">
        <ele>1602.6</ele>
        <time>2022-05-22 15:44:41</time>
      </trkpt>
      <trkpt lat="42.36169" lon="1.26672">
        <ele>1602.8</ele>
        <time>2022-05-22 15:44:42</time>
      </trkpt>
      <trkpt lat="42.36171" lon="1.26669">
        <ele>1603</ele>
        <time>2022-05-22 15:44:43</time>
      </trkpt>
      <trkpt lat="42.36172" lon="1.26666">
        <ele>1603</ele>
        <time>2022-05-22 15:44:44</time>
      </trkpt>
      <trkpt lat="42.36174" lon="1.26662">
        <ele>1603.2</ele>
        <time>2022-05-22 15:44:45</time>
      </trkpt>
      <trkpt lat="42.36176" lon="1.26659">
        <ele>1603.2</ele>
        <time>2022-05-22 15:44:46</time>
      </trkpt>
      <trkpt lat="42.36178" lon="1.26656">
        <ele>1603.4</ele>
        <time>2022-05-22 15:44:47</time>
      </trkpt>
      <trkpt lat="42.36179" lon="1.26652">
        <ele>1603.6</ele>
        <time>2022-05-22 15:44:48</time>
      </trkpt>
      <trkpt lat="42.36181" lon="1.26649">
        <ele>1603.8</ele>
        <time>2022-05-22 15:44:49</time>
      </trkpt>
      <trkpt lat="42.36182" lon="1.26646">
        <ele>1603.8</ele>
        <time>2022-05-22 15:44:50</time>
      </trkpt>
      <trkpt lat="42.36184" lon="1.26642">
        <ele>1604</ele>
        <time>2022-05-22 15:44:51</time>
      </trkpt>
      <trkpt lat="42.36186" lon="1.26639">
        <ele>1604</ele>
        <time>2022-05-22 15:44:52</time>
      </trkpt>
      <trkpt lat="42.36187" lon="1.26636">
        <ele>1604</ele>
        <time>2022-05-22 15:44:53</time>
      </trkpt>
      <trkpt lat="42.36189" lon="1.26633">
        <ele>1604.2</ele>
        <time>2022-05-22 15:44:54</time>
      </trkpt>
      <trkpt lat="42.36191" lon="1.2663">
        <ele>1604.4</ele>
        <time>2022-05-22 15:44:55</time>
      </trkpt>
      <trkpt lat="42.36192" lon="1.26626">
        <ele>1604.4</ele>
        <time>2022-05-22 15:44:56</time>
      </trkpt>
      <trkpt lat="42.36194" lon="1.26623">
        <ele>1604.6</ele>
        <time>2022-05-22 15:44:57</time>
      </trkpt>
      <trkpt lat="42.36196" lon="1.2662">
        <ele>1604.6</ele>
        <time>2022-05-22 15:44:58</time>
      </trkpt>
      <trkpt lat="42.36198" lon="1.26617">
        <ele>1604.8</ele>
        <time>2022-05-22 15:44:59</time>
      </trkpt>
      <trkpt lat="42.36199" lon="1.26614">
        <ele>1604.8</ele>
        <time>2022-05-22 15:45:00</time>
      </trkpt>
      <trkpt lat="42.36201" lon="1.2661">
        <ele>1605</ele>
        <time>2022-05-22 15:45:01</time>
      </trkpt>
      <trkpt lat="42.36202" lon="1.26607">
        <ele>1605</ele>
        <time>2022-05-22 15:45:02</time>
      </trkpt>
      <trkpt lat="42.36204" lon="1.26604">
        <ele>1605.2</ele>
        <time>2022-05-22 15:45:03</time>
      </trkpt>
      <trkpt lat="42.36206" lon="1.26601">
        <ele>1605.4</ele>
        <time>2022-05-22 15:45:04</time>
      </trkpt>
      <trkpt lat="42.36208" lon="1.26598">
        <ele>1605.6</ele>
        <time>2022-05-22 15:45:05</time>
      </trkpt>
      <trkpt lat="42.3621" lon="1.26595">
        <ele>1605.6</ele>
        <time>2022-05-22 15:45:06</time>
      </trkpt>
      <trkpt lat="42.36212" lon="1.26592">
        <ele>1605.8</ele>
        <time>2022-05-22 15:45:07</time>
      </trkpt>
      <trkpt lat="42.36214" lon="1.26589">
        <ele>1606</ele>
        <time>2022-05-22 15:45:08</time>
      </trkpt>
      <trkpt lat="42.36216" lon="1.26586">
        <ele>1606.2</ele>
        <time>2022-05-22 15:45:09</time>
      </trkpt>
      <trkpt lat="42.36218" lon="1.26583">
        <ele>1606.2</ele>
        <time>2022-05-22 15:45:10</time>
      </trkpt>
      <trkpt lat="42.3622" lon="1.26581">
        <ele>1606.4</ele>
        <time>2022-05-22 15:45:11</time>
      </trkpt>
      <trkpt lat="42.36222" lon="1.26578">
        <ele>1606.4</ele>
        <time>2022-05-22 15:45:12</time>
      </trkpt>
      <trkpt lat="42.36224" lon="1.26575">
        <ele>1606.4</ele>
        <time>2022-05-22 15:45:13</time>
      </trkpt>
      <trkpt lat="42.36226" lon="1.26573">
        <ele>1606.6</ele>
        <time>2022-05-22 15:45:14</time>
      </trkpt>
      <trkpt lat="42.36228" lon="1.2657">
        <ele>1606.6</ele>
        <time>2022-05-22 15:45:15</time>
      </trkpt>
      <trkpt lat="42.3623" lon="1.26568">
        <ele>1606.8</ele>
        <time>2022-05-22 15:45:16</time>
      </trkpt>
      <trkpt lat="42.36232" lon="1.26565">
        <ele>1606.8</ele>
        <time>2022-05-22 15:45:17</time>
      </trkpt>
      <trkpt lat="42.36234" lon="1.26563">
        <ele>1606.8</ele>
        <time>2022-05-22 15:45:18</time>
      </trkpt>
      <trkpt lat="42.36236" lon="1.2656">
        <ele>1607</ele>
        <time>2022-05-22 15:45:19</time>
      </trkpt>
      <trkpt lat="42.36238" lon="1.26558">
        <ele>1607</ele>
        <time>2022-05-22 15:45:20</time>
      </trkpt>
      <trkpt lat="42.3624" lon="1.26556">
        <ele>1607</ele>
        <time>2022-05-22 15:45:21</time>
      </trkpt>
      <trkpt lat="42.36242" lon="1.26553">
        <ele>1607.2</ele>
        <time>2022-05-22 15:45:22</time>
      </trkpt>
      <trkpt lat="42.36244" lon="1.26551">
        <ele>1607.2</ele>
        <time>2022-05-22 15:45:23</time>
      </trkpt>
      <trkpt lat="42.36246" lon="1.26549">
        <ele>1607.4</ele>
        <time>2022-05-22 15:45:24</time>
      </trkpt>
      <trkpt lat="42.36248" lon="1.26547">
        <ele>1607.4</ele>
        <time>2022-05-22 15:45:25</time>
      </trkpt>
      <trkpt lat="42.3625" lon="1.26545">
        <ele>1607.6</ele>
        <time>2022-05-22 15:45:26</time>
      </trkpt>
      <trkpt lat="42.36252" lon="1.26543">
        <ele>1607.6</ele>
        <time>2022-05-22 15:45:27</time>
      </trkpt>
      <trkpt lat="42.36254" lon="1.26541">
        <ele>1607.8</ele>
        <time>2022-05-22 15:45:28</time>
      </trkpt>
      <trkpt lat="42.36256" lon="1.26538">
        <ele>1607.8</ele>
        <time>2022-05-22 15:45:29</time>
      </trkpt>
      <trkpt lat="42.36258" lon="1.26536">
        <ele>1608</ele>
        <time>2022-05-22 15:45:30</time>
      </trkpt>
      <trkpt lat="42.3626" lon="1.26534">
        <ele>1608.2</ele>
        <time>2022-05-22 15:45:31</time>
      </trkpt>
      <trkpt lat="42.36263" lon="1.26532">
        <ele>1608.2</ele>
        <time>2022-05-22 15:45:32</time>
      </trkpt>
      <trkpt lat="42.36265" lon="1.2653">
        <ele>1608.4</ele>
        <time>2022-05-22 15:45:33</time>
      </trkpt>
      <trkpt lat="42.36267" lon="1.26528">
        <ele>1608.4</ele>
        <time>2022-05-22 15:45:34</time>
      </trkpt>
      <trkpt lat="42.36269" lon="1.26526">
        <ele>1608.6</ele>
        <time>2022-05-22 15:45:35</time>
      </trkpt>
      <trkpt lat="42.36271" lon="1.26524">
        <ele>1608.6</ele>
        <time>2022-05-22 15:45:36</time>
      </trkpt>
      <trkpt lat="42.36273" lon="1.26522">
        <ele>1608.6</ele>
        <time>2022-05-22 15:45:37</time>
      </trkpt>
      <trkpt lat="42.36275" lon="1.2652">
        <ele>1608.6</ele>
        <time>2022-05-22 15:45:38</time>
      </trkpt>
      <trkpt lat="42.36277" lon="1.26517">
        <ele>1608.8</ele>
        <time>2022-05-22 15:45:39</time>
      </trkpt>
      <trkpt lat="42.36279" lon="1.26515">
        <ele>1608.8</ele>
        <time>2022-05-22 15:45:40</time>
      </trkpt>
      <trkpt lat="42.3628" lon="1.26513">
        <ele>1609</ele>
        <time>2022-05-22 15:45:41</time>
      </trkpt>
      <trkpt lat="42.36282" lon="1.26511">
        <ele>1609.2</ele>
        <time>2022-05-22 15:45:42</time>
      </trkpt>
      <trkpt lat="42.36284" lon="1.26509">
        <ele>1609.4</ele>
        <time>2022-05-22 15:45:43</time>
      </trkpt>
      <trkpt lat="42.36286" lon="1.26506">
        <ele>1609.4</ele>
        <time>2022-05-22 15:45:44</time>
      </trkpt>
      <trkpt lat="42.36288" lon="1.26504">
        <ele>1609.6</ele>
        <time>2022-05-22 15:45:45</time>
      </trkpt>
      <trkpt lat="42.3629" lon="1.26501">
        <ele>1609.8</ele>
        <time>2022-05-22 15:45:46</time>
      </trkpt>
      <trkpt lat="42.36293" lon="1.26499">
        <ele>1609.8</ele>
        <time>2022-05-22 15:45:47</time>
      </trkpt>
      <trkpt lat="42.36295" lon="1.26496">
        <ele>1610</ele>
        <time>2022-05-22 15:45:48</time>
      </trkpt>
      <trkpt lat="42.36297" lon="1.26494">
        <ele>1610</ele>
        <time>2022-05-22 15:45:49</time>
      </trkpt>
      <trkpt lat="42.36299" lon="1.26491">
        <ele>1610</ele>
        <time>2022-05-22 15:45:50</time>
      </trkpt>
      <trkpt lat="42.36302" lon="1.26489">
        <ele>1610.2</ele>
        <time>2022-05-22 15:45:51</time>
      </trkpt>
      <trkpt lat="42.36304" lon="1.26486">
        <ele>1610.2</ele>
        <time>2022-05-22 15:45:52</time>
      </trkpt>
      <trkpt lat="42.36306" lon="1.26483">
        <ele>1610.4</ele>
        <time>2022-05-22 15:45:53</time>
      </trkpt>
      <trkpt lat="42.36309" lon="1.26481">
        <ele>1610.4</ele>
        <time>2022-05-22 15:45:54</time>
      </trkpt>
      <trkpt lat="42.36311" lon="1.26478">
        <ele>1610.4</ele>
        <time>2022-05-22 15:45:55</time>
      </trkpt>
      <trkpt lat="42.36313" lon="1.26476">
        <ele>1610.6</ele>
        <time>2022-05-22 15:45:56</time>
      </trkpt>
      <trkpt lat="42.36316" lon="1.26474">
        <ele>1610.6</ele>
        <time>2022-05-22 15:45:57</time>
      </trkpt>
      <trkpt lat="42.36318" lon="1.26471">
        <ele>1610.8</ele>
        <time>2022-05-22 15:45:58</time>
      </trkpt>
      <trkpt lat="42.36321" lon="1.26469">
        <ele>1610.8</ele>
        <time>2022-05-22 15:45:59</time>
      </trkpt>
      <trkpt lat="42.36323" lon="1.26467">
        <ele>1610.8</ele>
        <time>2022-05-22 15:46:00</time>
      </trkpt>
      <trkpt lat="42.36326" lon="1.26465">
        <ele>1611</ele>
        <time>2022-05-22 15:46:01</time>
      </trkpt>
      <trkpt lat="42.36328" lon="1.26462">
        <ele>1611.2</ele>
        <time>2022-05-22 15:46:02</time>
      </trkpt>
      <trkpt lat="42.3633" lon="1.2646">
        <ele>1611.2</ele>
        <time>2022-05-22 15:46:03</time>
      </trkpt>
      <trkpt lat="42.36332" lon="1.26457">
        <ele>1611.4</ele>
        <time>2022-05-22 15:46:04</time>
      </trkpt>
      <trkpt lat="42.36334" lon="1.26455">
        <ele>1611.6</ele>
        <time>2022-05-22 15:46:05</time>
      </trkpt>
      <trkpt lat="42.36336" lon="1.26452">
        <ele>1611.6</ele>
        <time>2022-05-22 15:46:06</time>
      </trkpt>
      <trkpt lat="42.36339" lon="1.2645">
        <ele>1611.8</ele>
        <time>2022-05-22 15:46:07</time>
      </trkpt>
      <trkpt lat="42.36341" lon="1.26448">
        <ele>1611.8</ele>
        <time>2022-05-22 15:46:08</time>
      </trkpt>
      <trkpt lat="42.36344" lon="1.26446">
        <ele>1612</ele>
        <time>2022-05-22 15:46:09</time>
      </trkpt>
      <trkpt lat="42.36346" lon="1.26443">
        <ele>1612.2</ele>
        <time>2022-05-22 15:46:10</time>
      </trkpt>
      <trkpt lat="42.36348" lon="1.26441">
        <ele>1612.2</ele>
        <time>2022-05-22 15:46:11</time>
      </trkpt>
      <trkpt lat="42.3635" lon="1.26439">
        <ele>1612.4</ele>
        <time>2022-05-22 15:46:12</time>
      </trkpt>
      <trkpt lat="42.36352" lon="1.26437">
        <ele>1612.4</ele>
        <time>2022-05-22 15:46:13</time>
      </trkpt>
      <trkpt lat="42.36355" lon="1.26434">
        <ele>1612.6</ele>
        <time>2022-05-22 15:46:14</time>
      </trkpt>
      <trkpt lat="42.36356" lon="1.26432">
        <ele>1612.8</ele>
        <time>2022-05-22 15:46:15</time>
      </trkpt>
      <trkpt lat="42.36359" lon="1.2643">
        <ele>1612.8</ele>
        <time>2022-05-22 15:46:16</time>
      </trkpt>
      <trkpt lat="42.36361" lon="1.26427">
        <ele>1613</ele>
        <time>2022-05-22 15:46:17</time>
      </trkpt>
      <trkpt lat="42.36364" lon="1.26425">
        <ele>1613</ele>
        <time>2022-05-22 15:46:18</time>
      </trkpt>
      <trkpt lat="42.36366" lon="1.26422">
        <ele>1613.2</ele>
        <time>2022-05-22 15:46:19</time>
      </trkpt>
      <trkpt lat="42.36369" lon="1.26419">
        <ele>1613.2</ele>
        <time>2022-05-22 15:46:20</time>
      </trkpt>
      <trkpt lat="42.36372" lon="1.26416">
        <ele>1613.2</ele>
        <time>2022-05-22 15:46:21</time>
      </trkpt>
      <trkpt lat="42.36375" lon="1.26413">
        <ele>1613.4</ele>
        <time>2022-05-22 15:46:22</time>
      </trkpt>
      <trkpt lat="42.36378" lon="1.2641">
        <ele>1613.4</ele>
        <time>2022-05-22 15:46:23</time>
      </trkpt>
      <trkpt lat="42.36381" lon="1.26407">
        <ele>1613.4</ele>
        <time>2022-05-22 15:46:24</time>
      </trkpt>
      <trkpt lat="42.36384" lon="1.26404">
        <ele>1613.6</ele>
        <time>2022-05-22 15:46:25</time>
      </trkpt>
      <trkpt lat="42.36387" lon="1.26401">
        <ele>1613.8</ele>
        <time>2022-05-22 15:46:26</time>
      </trkpt>
      <trkpt lat="42.3639" lon="1.26399">
        <ele>1613.8</ele>
        <time>2022-05-22 15:46:27</time>
      </trkpt>
      <trkpt lat="42.36393" lon="1.26396">
        <ele>1614</ele>
        <time>2022-05-22 15:46:28</time>
      </trkpt>
      <trkpt lat="42.36395" lon="1.26393">
        <ele>1614</ele>
        <time>2022-05-22 15:46:29</time>
      </trkpt>
      <trkpt lat="42.36398" lon="1.26391">
        <ele>1614</ele>
        <time>2022-05-22 15:46:30</time>
      </trkpt>
      <trkpt lat="42.36401" lon="1.26388">
        <ele>1614.2</ele>
        <time>2022-05-22 15:46:31</time>
      </trkpt>
      <trkpt lat="42.36404" lon="1.26385">
        <ele>1614.2</ele>
        <time>2022-05-22 15:46:32</time>
      </trkpt>
      <trkpt lat="42.36406" lon="1.26383">
        <ele>1614.4</ele>
        <time>2022-05-22 15:46:33</time>
      </trkpt>
      <trkpt lat="42.36409" lon="1.26381">
        <ele>1614.6</ele>
        <time>2022-05-22 15:46:34</time>
      </trkpt>
      <trkpt lat="42.36412" lon="1.26378">
        <ele>1614.6</ele>
        <time>2022-05-22 15:46:35</time>
      </trkpt>
      <trkpt lat="42.36414" lon="1.26376">
        <ele>1614.8</ele>
        <time>2022-05-22 15:46:36</time>
      </trkpt>
      <trkpt lat="42.36417" lon="1.26373">
        <ele>1614.8</ele>
        <time>2022-05-22 15:46:37</time>
      </trkpt>
      <trkpt lat="42.3642" lon="1.2637">
        <ele>1615</ele>
        <time>2022-05-22 15:46:38</time>
      </trkpt>
      <trkpt lat="42.36422" lon="1.26368">
        <ele>1615</ele>
        <time>2022-05-22 15:46:39</time>
      </trkpt>
      <trkpt lat="42.36425" lon="1.26365">
        <ele>1615.2</ele>
        <time>2022-05-22 15:46:40</time>
      </trkpt>
      <trkpt lat="42.36427" lon="1.26362">
        <ele>1615.4</ele>
        <time>2022-05-22 15:46:41</time>
      </trkpt>
      <trkpt lat="42.3643" lon="1.2636">
        <ele>1615.4</ele>
        <time>2022-05-22 15:46:42</time>
      </trkpt>
      <trkpt lat="42.36432" lon="1.26357">
        <ele>1615.6</ele>
        <time>2022-05-22 15:46:43</time>
      </trkpt>
      <trkpt lat="42.36434" lon="1.26354">
        <ele>1615.6</ele>
        <time>2022-05-22 15:46:44</time>
      </trkpt>
      <trkpt lat="42.36436" lon="1.26351">
        <ele>1615.8</ele>
        <time>2022-05-22 15:46:45</time>
      </trkpt>
      <trkpt lat="42.36438" lon="1.26349">
        <ele>1615.8</ele>
        <time>2022-05-22 15:46:46</time>
      </trkpt>
      <trkpt lat="42.3644" lon="1.26347">
        <ele>1616</ele>
        <time>2022-05-22 15:46:47</time>
      </trkpt>
      <trkpt lat="42.36442" lon="1.26346">
        <ele>1616</ele>
        <time>2022-05-22 15:46:48</time>
      </trkpt>
      <trkpt lat="42.36442" lon="1.26345">
        <ele>1616.2</ele>
        <time>2022-05-22 15:46:49</time>
      </trkpt>
      <trkpt lat="42.36442" lon="1.26343">
        <ele>1616.4</ele>
        <time>2022-05-22 15:46:50</time>
      </trkpt>
      <trkpt lat="42.36442" lon="1.26341">
        <ele>1616.4</ele>
        <time>2022-05-22 15:46:51</time>
      </trkpt>
      <trkpt lat="42.36441" lon="1.2634">
        <ele>1616.4</ele>
        <time>2022-05-22 15:46:52</time>
      </trkpt>
      <trkpt lat="42.3644" lon="1.2634">
        <ele>1616.2</ele>
        <time>2022-05-22 15:46:53</time>
      </trkpt>
      <trkpt lat="42.36438" lon="1.26342">
        <ele>1616</ele>
        <time>2022-05-22 15:46:54</time>
      </trkpt>
      <trkpt lat="42.36436" lon="1.26345">
        <ele>1616</ele>
        <time>2022-05-22 15:46:55</time>
      </trkpt>
      <trkpt lat="42.36434" lon="1.26349">
        <ele>1615.8</ele>
        <time>2022-05-22 15:46:56</time>
      </trkpt>
      <trkpt lat="42.36434" lon="1.26352">
        <ele>1615.8</ele>
        <time>2022-05-22 15:46:57</time>
      </trkpt>
      <trkpt lat="42.36434" lon="1.26355">
        <ele>1615.8</ele>
        <time>2022-05-22 15:46:58</time>
      </trkpt>
      <trkpt lat="42.36435" lon="1.26358">
        <ele>1615.8</ele>
        <time>2022-05-22 15:46:59</time>
      </trkpt>
      <trkpt lat="42.36437" lon="1.26359">
        <ele>1615.8</ele>
        <time>2022-05-22 15:47:00</time>
      </trkpt>
      <trkpt lat="42.36439" lon="1.2636">
        <ele>1615.8</ele>
        <time>2022-05-22 15:47:01</time>
      </trkpt>
      <trkpt lat="42.36441" lon="1.26361">
        <ele>1616</ele>
        <time>2022-05-22 15:47:02</time>
      </trkpt>
      <trkpt lat="42.36444" lon="1.26361">
        <ele>1616</ele>
        <time>2022-05-22 15:47:03</time>
      </trkpt>
      <trkpt lat="42.36447" lon="1.26361">
        <ele>1616</ele>
        <time>2022-05-22 15:47:04</time>
      </trkpt>
      <trkpt lat="42.3645" lon="1.26361">
        <ele>1616</ele>
        <time>2022-05-22 15:47:05</time>
      </trkpt>
      <trkpt lat="42.36452" lon="1.26361">
        <ele>1616</ele>
        <time>2022-05-22 15:47:06</time>
      </trkpt>
      <trkpt lat="42.36454" lon="1.26361">
        <ele>1616.2</ele>
        <time>2022-05-22 15:47:07</time>
      </trkpt>
      <trkpt lat="42.36455" lon="1.2636">
        <ele>1616.2</ele>
        <time>2022-05-22 15:47:08</time>
      </trkpt>
      <trkpt lat="42.36456" lon="1.2636">
        <ele>1616.2</ele>
        <time>2022-05-22 15:47:09</time>
      </trkpt>
      <trkpt lat="42.36457" lon="1.26361">
        <ele>1616.4</ele>
        <time>2022-05-22 15:47:10</time>
      </trkpt>
      <trkpt lat="42.36458" lon="1.26362">
        <ele>1616.4</ele>
        <time>2022-05-22 15:47:11</time>
      </trkpt>
      <trkpt lat="42.36457" lon="1.26363">
        <ele>1616.4</ele>
        <time>2022-05-22 15:47:12</time>
      </trkpt>
      <trkpt lat="42.36457" lon="1.26364">
        <ele>1616.4</ele>
        <time>2022-05-22 15:47:13</time>
      </trkpt>
      <trkpt lat="42.36455" lon="1.26364">
        <ele>1616.4</ele>
        <time>2022-05-22 15:47:14</time>
      </trkpt>
      <trkpt lat="42.36453" lon="1.26364">
        <ele>1616.4</ele>
        <time>2022-05-22 15:47:15</time>
      </trkpt>
      <trkpt lat="42.3645" lon="1.26363">
        <ele>1616.4</ele>
        <time>2022-05-22 15:47:16</time>
      </trkpt>
      <trkpt lat="42.36447" lon="1.26362">
        <ele>1616.2</ele>
        <time>2022-05-22 15:47:17</time>
      </trkpt>
      <trkpt lat="42.36443" lon="1.26361">
        <ele>1616.2</ele>
        <time>2022-05-22 15:47:18</time>
      </trkpt>
      <trkpt lat="42.3644" lon="1.2636">
        <ele>1616</ele>
        <time>2022-05-22 15:47:19</time>
      </trkpt>
      <trkpt lat="42.36437" lon="1.2636">
        <ele>1616</ele>
        <time>2022-05-22 15:47:20</time>
      </trkpt>
      <trkpt lat="42.36434" lon="1.26359">
        <ele>1616</ele>
        <time>2022-05-22 15:47:21</time>
      </trkpt>
      <trkpt lat="42.36432" lon="1.26356">
        <ele>1616.2</ele>
        <time>2022-05-22 15:47:22</time>
      </trkpt>
      <trkpt lat="42.36433" lon="1.26353">
        <ele>1616.2</ele>
        <time>2022-05-22 15:47:23</time>
      </trkpt>
      <trkpt lat="42.36434" lon="1.2635">
        <ele>1616.2</ele>
        <time>2022-05-22 15:47:24</time>
      </trkpt>
      <trkpt lat="42.36437" lon="1.26347">
        <ele>1616.4</ele>
        <time>2022-05-22 15:47:25</time>
      </trkpt>
      <trkpt lat="42.36439" lon="1.26344">
        <ele>1616.6</ele>
        <time>2022-05-22 15:47:26</time>
      </trkpt>
      <trkpt lat="42.36441" lon="1.26342">
        <ele>1616.6</ele>
        <time>2022-05-22 15:47:27</time>
      </trkpt>
      <trkpt lat="42.36443" lon="1.26339">
        <ele>1616.8</ele>
        <time>2022-05-22 15:47:28</time>
      </trkpt>
      <trkpt lat="42.36445" lon="1.26336">
        <ele>1617</ele>
        <time>2022-05-22 15:47:29</time>
      </trkpt>
      <trkpt lat="42.36447" lon="1.26333">
        <ele>1617.2</ele>
        <time>2022-05-22 15:47:30</time>
      </trkpt>
      <trkpt lat="42.36449" lon="1.26331">
        <ele>1617.4</ele>
        <time>2022-05-22 15:47:31</time>
      </trkpt>
      <trkpt lat="42.36451" lon="1.26328">
        <ele>1617.6</ele>
        <time>2022-05-22 15:47:32</time>
      </trkpt>
      <trkpt lat="42.36453" lon="1.26325">
        <ele>1617.8</ele>
        <time>2022-05-22 15:47:33</time>
      </trkpt>
      <trkpt lat="42.36455" lon="1.26322">
        <ele>1618</ele>
        <time>2022-05-22 15:47:34</time>
      </trkpt>
      <trkpt lat="42.36456" lon="1.26318">
        <ele>1618.2</ele>
        <time>2022-05-22 15:47:35</time>
      </trkpt>
      <trkpt lat="42.36458" lon="1.26315">
        <ele>1618.6</ele>
        <time>2022-05-22 15:47:36</time>
      </trkpt>
      <trkpt lat="42.3646" lon="1.26312">
        <ele>1618.8</ele>
        <time>2022-05-22 15:47:37</time>
      </trkpt>
      <trkpt lat="42.36461" lon="1.26308">
        <ele>1619</ele>
        <time>2022-05-22 15:47:38</time>
      </trkpt>
      <trkpt lat="42.36463" lon="1.26305">
        <ele>1619.2</ele>
        <time>2022-05-22 15:47:39</time>
      </trkpt>
      <trkpt lat="42.36464" lon="1.26302">
        <ele>1619.4</ele>
        <time>2022-05-22 15:47:40</time>
      </trkpt>
      <trkpt lat="42.36465" lon="1.26299">
        <ele>1619.6</ele>
        <time>2022-05-22 15:47:41</time>
      </trkpt>
      <trkpt lat="42.36466" lon="1.26295">
        <ele>1619.8</ele>
        <time>2022-05-22 15:47:42</time>
      </trkpt>
      <trkpt lat="42.36467" lon="1.26292">
        <ele>1620</ele>
        <time>2022-05-22 15:47:43</time>
      </trkpt>
      <trkpt lat="42.36468" lon="1.26288">
        <ele>1620.2</ele>
        <time>2022-05-22 15:47:44</time>
      </trkpt>
      <trkpt lat="42.36469" lon="1.26285">
        <ele>1620.4</ele>
        <time>2022-05-22 15:47:45</time>
      </trkpt>
      <trkpt lat="42.36471" lon="1.26282">
        <ele>1620.6</ele>
        <time>2022-05-22 15:47:46</time>
      </trkpt>
      <trkpt lat="42.36472" lon="1.26279">
        <ele>1620.8</ele>
        <time>2022-05-22 15:47:47</time>
      </trkpt>
      <trkpt lat="42.36473" lon="1.26276">
        <ele>1621</ele>
        <time>2022-05-22 15:47:48</time>
      </trkpt>
      <trkpt lat="42.36473" lon="1.26272">
        <ele>1621.2</ele>
        <time>2022-05-22 15:47:49</time>
      </trkpt>
      <trkpt lat="42.36474" lon="1.26269">
        <ele>1621.4</ele>
        <time>2022-05-22 15:47:50</time>
      </trkpt>
      <trkpt lat="42.36475" lon="1.26265">
        <ele>1621.4</ele>
        <time>2022-05-22 15:47:51</time>
      </trkpt>
      <trkpt lat="42.36475" lon="1.26262">
        <ele>1621.6</ele>
        <time>2022-05-22 15:47:52</time>
      </trkpt>
      <trkpt lat="42.36476" lon="1.26258">
        <ele>1621.6</ele>
        <time>2022-05-22 15:47:53</time>
      </trkpt>
      <trkpt lat="42.36477" lon="1.26255">
        <ele>1621.8</ele>
        <time>2022-05-22 15:47:54</time>
      </trkpt>
      <trkpt lat="42.36477" lon="1.26252">
        <ele>1621.8</ele>
        <time>2022-05-22 15:47:55</time>
      </trkpt>
      <trkpt lat="42.36477" lon="1.26249">
        <ele>1622</ele>
        <time>2022-05-22 15:47:56</time>
      </trkpt>
      <trkpt lat="42.36478" lon="1.26246">
        <ele>1622.2</ele>
        <time>2022-05-22 15:47:57</time>
      </trkpt>
      <trkpt lat="42.36479" lon="1.26243">
        <ele>1622.2</ele>
        <time>2022-05-22 15:47:58</time>
      </trkpt>
      <trkpt lat="42.36479" lon="1.2624">
        <ele>1622.4</ele>
        <time>2022-05-22 15:47:59</time>
      </trkpt>
      <trkpt lat="42.36479" lon="1.26236">
        <ele>1622.6</ele>
        <time>2022-05-22 15:48:00</time>
      </trkpt>
      <trkpt lat="42.36479" lon="1.26233">
        <ele>1622.6</ele>
        <time>2022-05-22 15:48:01</time>
      </trkpt>
      <trkpt lat="42.3648" lon="1.2623">
        <ele>1622.8</ele>
        <time>2022-05-22 15:48:02</time>
      </trkpt>
      <trkpt lat="42.3648" lon="1.26227">
        <ele>1622.8</ele>
        <time>2022-05-22 15:48:03</time>
      </trkpt>
      <trkpt lat="42.3648" lon="1.26224">
        <ele>1623</ele>
        <time>2022-05-22 15:48:04</time>
      </trkpt>
      <trkpt lat="42.36481" lon="1.26221">
        <ele>1623</ele>
        <time>2022-05-22 15:48:05</time>
      </trkpt>
      <trkpt lat="42.36481" lon="1.26218">
        <ele>1623.2</ele>
        <time>2022-05-22 15:48:06</time>
      </trkpt>
      <trkpt lat="42.36481" lon="1.26214">
        <ele>1623.2</ele>
        <time>2022-05-22 15:48:07</time>
      </trkpt>
      <trkpt lat="42.36481" lon="1.26211">
        <ele>1623.4</ele>
        <time>2022-05-22 15:48:08</time>
      </trkpt>
      <trkpt lat="42.36481" lon="1.26207">
        <ele>1623.4</ele>
        <time>2022-05-22 15:48:09</time>
      </trkpt>
      <trkpt lat="42.36482" lon="1.26204">
        <ele>1623.4</ele>
        <time>2022-05-22 15:48:10</time>
      </trkpt>
      <trkpt lat="42.36482" lon="1.262">
        <ele>1623.6</ele>
        <time>2022-05-22 15:48:11</time>
      </trkpt>
      <trkpt lat="42.36482" lon="1.26197">
        <ele>1623.6</ele>
        <time>2022-05-22 15:48:12</time>
      </trkpt>
      <trkpt lat="42.36482" lon="1.26194">
        <ele>1623.8</ele>
        <time>2022-05-22 15:48:13</time>
      </trkpt>
      <trkpt lat="42.36483" lon="1.26191">
        <ele>1624</ele>
        <time>2022-05-22 15:48:14</time>
      </trkpt>
      <trkpt lat="42.36483" lon="1.26187">
        <ele>1624</ele>
        <time>2022-05-22 15:48:15</time>
      </trkpt>
      <trkpt lat="42.36483" lon="1.26184">
        <ele>1624.2</ele>
        <time>2022-05-22 15:48:16</time>
      </trkpt>
      <trkpt lat="42.36483" lon="1.26181">
        <ele>1624.4</ele>
        <time>2022-05-22 15:48:17</time>
      </trkpt>
      <trkpt lat="42.36483" lon="1.26178">
        <ele>1624.4</ele>
        <time>2022-05-22 15:48:18</time>
      </trkpt>
      <trkpt lat="42.36483" lon="1.26175">
        <ele>1624.6</ele>
        <time>2022-05-22 15:48:19</time>
      </trkpt>
      <trkpt lat="42.36483" lon="1.26171">
        <ele>1624.8</ele>
        <time>2022-05-22 15:48:20</time>
      </trkpt>
      <trkpt lat="42.36483" lon="1.26168">
        <ele>1625</ele>
        <time>2022-05-22 15:48:21</time>
      </trkpt>
      <trkpt lat="42.36483" lon="1.26165">
        <ele>1625.2</ele>
        <time>2022-05-22 15:48:22</time>
      </trkpt>
      <trkpt lat="42.36483" lon="1.26162">
        <ele>1625.4</ele>
        <time>2022-05-22 15:48:23</time>
      </trkpt>
      <trkpt lat="42.36483" lon="1.26159">
        <ele>1625.4</ele>
        <time>2022-05-22 15:48:24</time>
      </trkpt>
      <trkpt lat="42.36483" lon="1.26156">
        <ele>1625.4</ele>
        <time>2022-05-22 15:48:25</time>
      </trkpt>
      <trkpt lat="42.36484" lon="1.26153">
        <ele>1625.6</ele>
        <time>2022-05-22 15:48:26</time>
      </trkpt>
      <trkpt lat="42.36484" lon="1.2615">
        <ele>1625.6</ele>
        <time>2022-05-22 15:48:27</time>
      </trkpt>
      <trkpt lat="42.36484" lon="1.26147">
        <ele>1625.8</ele>
        <time>2022-05-22 15:48:28</time>
      </trkpt>
      <trkpt lat="42.36484" lon="1.26143">
        <ele>1625.8</ele>
        <time>2022-05-22 15:48:29</time>
      </trkpt>
      <trkpt lat="42.36484" lon="1.2614">
        <ele>1626</ele>
        <time>2022-05-22 15:48:30</time>
      </trkpt>
      <trkpt lat="42.36484" lon="1.26137">
        <ele>1626</ele>
        <time>2022-05-22 15:48:31</time>
      </trkpt>
      <trkpt lat="42.36484" lon="1.26134">
        <ele>1626.2</ele>
        <time>2022-05-22 15:48:32</time>
      </trkpt>
      <trkpt lat="42.36484" lon="1.26131">
        <ele>1626.4</ele>
        <time>2022-05-22 15:48:33</time>
      </trkpt>
      <trkpt lat="42.36485" lon="1.26128">
        <ele>1626.6</ele>
        <time>2022-05-22 15:48:34</time>
      </trkpt>
      <trkpt lat="42.36485" lon="1.26125">
        <ele>1626.8</ele>
        <time>2022-05-22 15:48:35</time>
      </trkpt>
      <trkpt lat="42.36485" lon="1.26122">
        <ele>1627</ele>
        <time>2022-05-22 15:48:36</time>
      </trkpt>
      <trkpt lat="42.36485" lon="1.26119">
        <ele>1627.2</ele>
        <time>2022-05-22 15:48:37</time>
      </trkpt>
      <trkpt lat="42.36486" lon="1.26117">
        <ele>1627.4</ele>
        <time>2022-05-22 15:48:38</time>
      </trkpt>
      <trkpt lat="42.36486" lon="1.26114">
        <ele>1627.6</ele>
        <time>2022-05-22 15:48:39</time>
      </trkpt>
      <trkpt lat="42.36486" lon="1.26111">
        <ele>1627.8</ele>
        <time>2022-05-22 15:48:40</time>
      </trkpt>
      <trkpt lat="42.36486" lon="1.26107">
        <ele>1628</ele>
        <time>2022-05-22 15:48:41</time>
      </trkpt>
      <trkpt lat="42.36486" lon="1.26104">
        <ele>1628</ele>
        <time>2022-05-22 15:48:42</time>
      </trkpt>
      <trkpt lat="42.36487" lon="1.26101">
        <ele>1628.2</ele>
        <time>2022-05-22 15:48:43</time>
      </trkpt>
      <trkpt lat="42.36487" lon="1.26098">
        <ele>1628.4</ele>
        <time>2022-05-22 15:48:44</time>
      </trkpt>
      <trkpt lat="42.36487" lon="1.26095">
        <ele>1628.6</ele>
        <time>2022-05-22 15:48:45</time>
      </trkpt>
      <trkpt lat="42.36488" lon="1.26091">
        <ele>1628.8</ele>
        <time>2022-05-22 15:48:46</time>
      </trkpt>
      <trkpt lat="42.36488" lon="1.26088">
        <ele>1629</ele>
        <time>2022-05-22 15:48:47</time>
      </trkpt>
      <trkpt lat="42.36488" lon="1.26085">
        <ele>1629.2</ele>
        <time>2022-05-22 15:48:48</time>
      </trkpt>
      <trkpt lat="42.36489" lon="1.26082">
        <ele>1629.4</ele>
        <time>2022-05-22 15:48:49</time>
      </trkpt>
      <trkpt lat="42.3649" lon="1.26079">
        <ele>1629.6</ele>
        <time>2022-05-22 15:48:50</time>
      </trkpt>
      <trkpt lat="42.36491" lon="1.26076">
        <ele>1629.6</ele>
        <time>2022-05-22 15:48:51</time>
      </trkpt>
      <trkpt lat="42.36491" lon="1.26072">
        <ele>1629.8</ele>
        <time>2022-05-22 15:48:52</time>
      </trkpt>
      <trkpt lat="42.36492" lon="1.26069">
        <ele>1629.8</ele>
        <time>2022-05-22 15:48:53</time>
      </trkpt>
      <trkpt lat="42.36493" lon="1.26066">
        <ele>1629.8</ele>
        <time>2022-05-22 15:48:54</time>
      </trkpt>
      <trkpt lat="42.36493" lon="1.26063">
        <ele>1630</ele>
        <time>2022-05-22 15:48:55</time>
      </trkpt>
      <trkpt lat="42.36494" lon="1.2606">
        <ele>1630</ele>
        <time>2022-05-22 15:48:56</time>
      </trkpt>
      <trkpt lat="42.36494" lon="1.26057">
        <ele>1630.2</ele>
        <time>2022-05-22 15:48:57</time>
      </trkpt>
      <trkpt lat="42.36495" lon="1.26054">
        <ele>1630.2</ele>
        <time>2022-05-22 15:48:58</time>
      </trkpt>
      <trkpt lat="42.36496" lon="1.26051">
        <ele>1630.4</ele>
        <time>2022-05-22 15:48:59</time>
      </trkpt>
      <trkpt lat="42.36497" lon="1.26048">
        <ele>1630.6</ele>
        <time>2022-05-22 15:49:00</time>
      </trkpt>
      <trkpt lat="42.36498" lon="1.26045">
        <ele>1630.8</ele>
        <time>2022-05-22 15:49:01</time>
      </trkpt>
      <trkpt lat="42.36499" lon="1.26042">
        <ele>1630.8</ele>
        <time>2022-05-22 15:49:02</time>
      </trkpt>
      <trkpt lat="42.36499" lon="1.2604">
        <ele>1631</ele>
        <time>2022-05-22 15:49:03</time>
      </trkpt>
      <trkpt lat="42.365" lon="1.26038">
        <ele>1631.2</ele>
        <time>2022-05-22 15:49:04</time>
      </trkpt>
      <trkpt lat="42.36501" lon="1.26035">
        <ele>1631.4</ele>
        <time>2022-05-22 15:49:05</time>
      </trkpt>
      <trkpt lat="42.36502" lon="1.26033">
        <ele>1631.6</ele>
        <time>2022-05-22 15:49:06</time>
      </trkpt>
      <trkpt lat="42.36503" lon="1.2603">
        <ele>1631.8</ele>
        <time>2022-05-22 15:49:07</time>
      </trkpt>
      <trkpt lat="42.36504" lon="1.26028">
        <ele>1632</ele>
        <time>2022-05-22 15:49:08</time>
      </trkpt>
      <trkpt lat="42.36504" lon="1.26026">
        <ele>1632.2</ele>
        <time>2022-05-22 15:49:09</time>
      </trkpt>
      <trkpt lat="42.36505" lon="1.26023">
        <ele>1632.4</ele>
        <time>2022-05-22 15:49:10</time>
      </trkpt>
      <trkpt lat="42.36506" lon="1.26021">
        <ele>1632.4</ele>
        <time>2022-05-22 15:49:11</time>
      </trkpt>
      <trkpt lat="42.36507" lon="1.26018">
        <ele>1632.6</ele>
        <time>2022-05-22 15:49:12</time>
      </trkpt>
      <trkpt lat="42.36508" lon="1.26016">
        <ele>1632.6</ele>
        <time>2022-05-22 15:49:13</time>
      </trkpt>
      <trkpt lat="42.36509" lon="1.26014">
        <ele>1632.8</ele>
        <time>2022-05-22 15:49:14</time>
      </trkpt>
      <trkpt lat="42.3651" lon="1.26011">
        <ele>1633</ele>
        <time>2022-05-22 15:49:15</time>
      </trkpt>
      <trkpt lat="42.36511" lon="1.26009">
        <ele>1633.2</ele>
        <time>2022-05-22 15:49:16</time>
      </trkpt>
      <trkpt lat="42.36512" lon="1.26007">
        <ele>1633.2</ele>
        <time>2022-05-22 15:49:17</time>
      </trkpt>
      <trkpt lat="42.36512" lon="1.26005">
        <ele>1633.4</ele>
        <time>2022-05-22 15:49:18</time>
      </trkpt>
      <trkpt lat="42.36513" lon="1.26002">
        <ele>1633.4</ele>
        <time>2022-05-22 15:49:19</time>
      </trkpt>
      <trkpt lat="42.36514" lon="1.26">
        <ele>1633.6</ele>
        <time>2022-05-22 15:49:20</time>
      </trkpt>
      <trkpt lat="42.36515" lon="1.25998">
        <ele>1633.8</ele>
        <time>2022-05-22 15:49:21</time>
      </trkpt>
      <trkpt lat="42.36516" lon="1.25995">
        <ele>1633.8</ele>
        <time>2022-05-22 15:49:22</time>
      </trkpt>
      <trkpt lat="42.36517" lon="1.25993">
        <ele>1634</ele>
        <time>2022-05-22 15:49:23</time>
      </trkpt>
      <trkpt lat="42.36517" lon="1.2599">
        <ele>1634</ele>
        <time>2022-05-22 15:49:24</time>
      </trkpt>
      <trkpt lat="42.36518" lon="1.25988">
        <ele>1634.2</ele>
        <time>2022-05-22 15:49:25</time>
      </trkpt>
      <trkpt lat="42.36519" lon="1.25986">
        <ele>1634.2</ele>
        <time>2022-05-22 15:49:26</time>
      </trkpt>
      <trkpt lat="42.3652" lon="1.25984">
        <ele>1634.4</ele>
        <time>2022-05-22 15:49:27</time>
      </trkpt>
      <trkpt lat="42.36521" lon="1.25981">
        <ele>1634.6</ele>
        <time>2022-05-22 15:49:28</time>
      </trkpt>
      <trkpt lat="42.36522" lon="1.25979">
        <ele>1634.6</ele>
        <time>2022-05-22 15:49:29</time>
      </trkpt>
      <trkpt lat="42.36523" lon="1.25976">
        <ele>1634.8</ele>
        <time>2022-05-22 15:49:30</time>
      </trkpt>
      <trkpt lat="42.36524" lon="1.25974">
        <ele>1635</ele>
        <time>2022-05-22 15:49:31</time>
      </trkpt>
      <trkpt lat="42.36525" lon="1.25972">
        <ele>1635.2</ele>
        <time>2022-05-22 15:49:32</time>
      </trkpt>
      <trkpt lat="42.36526" lon="1.25969">
        <ele>1635.2</ele>
        <time>2022-05-22 15:49:33</time>
      </trkpt>
      <trkpt lat="42.36527" lon="1.25967">
        <ele>1635.2</ele>
        <time>2022-05-22 15:49:34</time>
      </trkpt>
      <trkpt lat="42.36528" lon="1.25964">
        <ele>1635.4</ele>
        <time>2022-05-22 15:49:35</time>
      </trkpt>
      <trkpt lat="42.36529" lon="1.25962">
        <ele>1635.4</ele>
        <time>2022-05-22 15:49:36</time>
      </trkpt>
      <trkpt lat="42.3653" lon="1.2596">
        <ele>1635.4</ele>
        <time>2022-05-22 15:49:37</time>
      </trkpt>
      <trkpt lat="42.36531" lon="1.25957">
        <ele>1635.4</ele>
        <time>2022-05-22 15:49:38</time>
      </trkpt>
      <trkpt lat="42.36532" lon="1.25955">
        <ele>1635.4</ele>
        <time>2022-05-22 15:49:39</time>
      </trkpt>
      <trkpt lat="42.36533" lon="1.25952">
        <ele>1635.4</ele>
        <time>2022-05-22 15:49:40</time>
      </trkpt>
      <trkpt lat="42.36534" lon="1.2595">
        <ele>1635.6</ele>
        <time>2022-05-22 15:49:41</time>
      </trkpt>
      <trkpt lat="42.36535" lon="1.25947">
        <ele>1635.6</ele>
        <time>2022-05-22 15:49:42</time>
      </trkpt>
      <trkpt lat="42.36536" lon="1.25945">
        <ele>1635.8</ele>
        <time>2022-05-22 15:49:43</time>
      </trkpt>
      <trkpt lat="42.36537" lon="1.25943">
        <ele>1635.8</ele>
        <time>2022-05-22 15:49:44</time>
      </trkpt>
      <trkpt lat="42.36538" lon="1.2594">
        <ele>1636</ele>
        <time>2022-05-22 15:49:45</time>
      </trkpt>
      <trkpt lat="42.36539" lon="1.25938">
        <ele>1636</ele>
        <time>2022-05-22 15:49:46</time>
      </trkpt>
      <trkpt lat="42.3654" lon="1.25936">
        <ele>1636.2</ele>
        <time>2022-05-22 15:49:47</time>
      </trkpt>
      <trkpt lat="42.36541" lon="1.25933">
        <ele>1636.4</ele>
        <time>2022-05-22 15:49:48</time>
      </trkpt>
      <trkpt lat="42.36542" lon="1.25931">
        <ele>1636.8</ele>
        <time>2022-05-22 15:49:49</time>
      </trkpt>
      <trkpt lat="42.36543" lon="1.25928">
        <ele>1637</ele>
        <time>2022-05-22 15:49:50</time>
      </trkpt>
      <trkpt lat="42.36544" lon="1.25926">
        <ele>1637.2</ele>
        <time>2022-05-22 15:49:51</time>
      </trkpt>
      <trkpt lat="42.36545" lon="1.25923">
        <ele>1637.6</ele>
        <time>2022-05-22 15:49:52</time>
      </trkpt>
      <trkpt lat="42.36546" lon="1.25921">
        <ele>1638</ele>
        <time>2022-05-22 15:49:53</time>
      </trkpt>
      <trkpt lat="42.36547" lon="1.25919">
        <ele>1638.2</ele>
        <time>2022-05-22 15:49:54</time>
      </trkpt>
      <trkpt lat="42.36548" lon="1.25916">
        <ele>1638.4</ele>
        <time>2022-05-22 15:49:55</time>
      </trkpt>
      <trkpt lat="42.36549" lon="1.25914">
        <ele>1638.6</ele>
        <time>2022-05-22 15:49:56</time>
      </trkpt>
      <trkpt lat="42.3655" lon="1.25911">
        <ele>1638.8</ele>
        <time>2022-05-22 15:49:57</time>
      </trkpt>
      <trkpt lat="42.36551" lon="1.25909">
        <ele>1638.8</ele>
        <time>2022-05-22 15:49:58</time>
      </trkpt>
      <trkpt lat="42.36552" lon="1.25907">
        <ele>1639</ele>
        <time>2022-05-22 15:49:59</time>
      </trkpt>
      <trkpt lat="42.36553" lon="1.25904">
        <ele>1639</ele>
        <time>2022-05-22 15:50:00</time>
      </trkpt>
      <trkpt lat="42.36554" lon="1.25902">
        <ele>1639.2</ele>
        <time>2022-05-22 15:50:01</time>
      </trkpt>
      <trkpt lat="42.36555" lon="1.25899">
        <ele>1639.2</ele>
        <time>2022-05-22 15:50:02</time>
      </trkpt>
      <trkpt lat="42.36556" lon="1.25897">
        <ele>1639</ele>
        <time>2022-05-22 15:50:03</time>
      </trkpt>
      <trkpt lat="42.36558" lon="1.25894">
        <ele>1639.2</ele>
        <time>2022-05-22 15:50:04</time>
      </trkpt>
      <trkpt lat="42.36559" lon="1.25892">
        <ele>1639.4</ele>
        <time>2022-05-22 15:50:05</time>
      </trkpt>
      <trkpt lat="42.3656" lon="1.25889">
        <ele>1639.6</ele>
        <time>2022-05-22 15:50:06</time>
      </trkpt>
      <trkpt lat="42.36561" lon="1.25886">
        <ele>1639.8</ele>
        <time>2022-05-22 15:50:07</time>
      </trkpt>
      <trkpt lat="42.36562" lon="1.25883">
        <ele>1639.8</ele>
        <time>2022-05-22 15:50:08</time>
      </trkpt>
      <trkpt lat="42.36563" lon="1.2588">
        <ele>1639.8</ele>
        <time>2022-05-22 15:50:09</time>
      </trkpt>
      <trkpt lat="42.36564" lon="1.25877">
        <ele>1639.6</ele>
        <time>2022-05-22 15:50:10</time>
      </trkpt>
      <trkpt lat="42.36566" lon="1.25874">
        <ele>1639.6</ele>
        <time>2022-05-22 15:50:11</time>
      </trkpt>
      <trkpt lat="42.36567" lon="1.25871">
        <ele>1639.6</ele>
        <time>2022-05-22 15:50:12</time>
      </trkpt>
      <trkpt lat="42.36568" lon="1.25869">
        <ele>1639.6</ele>
        <time>2022-05-22 15:50:13</time>
      </trkpt>
      <trkpt lat="42.36569" lon="1.25866">
        <ele>1639.6</ele>
        <time>2022-05-22 15:50:14</time>
      </trkpt>
      <trkpt lat="42.3657" lon="1.25864">
        <ele>1639.6</ele>
        <time>2022-05-22 15:50:15</time>
      </trkpt>
      <trkpt lat="42.36571" lon="1.25861">
        <ele>1639.8</ele>
        <time>2022-05-22 15:50:16</time>
      </trkpt>
      <trkpt lat="42.36572" lon="1.25859">
        <ele>1640</ele>
        <time>2022-05-22 15:50:17</time>
      </trkpt>
      <trkpt lat="42.36573" lon="1.25857">
        <ele>1640</ele>
        <time>2022-05-22 15:50:18</time>
      </trkpt>
      <trkpt lat="42.36574" lon="1.25854">
        <ele>1640</ele>
        <time>2022-05-22 15:50:19</time>
      </trkpt>
      <trkpt lat="42.36575" lon="1.25852">
        <ele>1639.8</ele>
        <time>2022-05-22 15:50:20</time>
      </trkpt>
      <trkpt lat="42.36576" lon="1.25849">
        <ele>1639.6</ele>
        <time>2022-05-22 15:50:21</time>
      </trkpt>
      <trkpt lat="42.36577" lon="1.25847">
        <ele>1639.2</ele>
        <time>2022-05-22 15:50:22</time>
      </trkpt>
      <trkpt lat="42.36578" lon="1.25845">
        <ele>1639.4</ele>
        <time>2022-05-22 15:50:23</time>
      </trkpt>
      <trkpt lat="42.36579" lon="1.25843">
        <ele>1639.8</ele>
        <time>2022-05-22 15:50:24</time>
      </trkpt>
      <trkpt lat="42.3658" lon="1.2584">
        <ele>1640</ele>
        <time>2022-05-22 15:50:25</time>
      </trkpt>
      <trkpt lat="42.36581" lon="1.25838">
        <ele>1640</ele>
        <time>2022-05-22 15:50:26</time>
      </trkpt>
      <trkpt lat="42.36582" lon="1.25836">
        <ele>1640.4</ele>
        <time>2022-05-22 15:50:27</time>
      </trkpt>
      <trkpt lat="42.36583" lon="1.25833">
        <ele>1640.4</ele>
        <time>2022-05-22 15:50:28</time>
      </trkpt>
      <trkpt lat="42.36584" lon="1.25831">
        <ele>1640.4</ele>
        <time>2022-05-22 15:50:29</time>
      </trkpt>
      <trkpt lat="42.36585" lon="1.25829">
        <ele>1640.4</ele>
        <time>2022-05-22 15:50:30</time>
      </trkpt>
      <trkpt lat="42.36586" lon="1.25826">
        <ele>1640.4</ele>
        <time>2022-05-22 15:50:31</time>
      </trkpt>
      <trkpt lat="42.36587" lon="1.25824">
        <ele>1640.6</ele>
        <time>2022-05-22 15:50:32</time>
      </trkpt>
      <trkpt lat="42.36588" lon="1.25822">
        <ele>1640.8</ele>
        <time>2022-05-22 15:50:33</time>
      </trkpt>
      <trkpt lat="42.36589" lon="1.2582">
        <ele>1640.8</ele>
        <time>2022-05-22 15:50:34</time>
      </trkpt>
      <trkpt lat="42.3659" lon="1.25818">
        <ele>1641</ele>
        <time>2022-05-22 15:50:35</time>
      </trkpt>
      <trkpt lat="42.3659" lon="1.25816">
        <ele>1641</ele>
        <time>2022-05-22 15:50:36</time>
      </trkpt>
      <trkpt lat="42.36591" lon="1.25815">
        <ele>1641</ele>
        <time>2022-05-22 15:50:37</time>
      </trkpt>
      <trkpt lat="42.36592" lon="1.25811">
        <ele>1641.2</ele>
        <time>2022-05-22 15:50:38</time>
      </trkpt>
      <trkpt lat="42.36593" lon="1.25809">
        <ele>1641.4</ele>
        <time>2022-05-22 15:50:39</time>
      </trkpt>
      <trkpt lat="42.36594" lon="1.25807">
        <ele>1641.4</ele>
        <time>2022-05-22 15:50:40</time>
      </trkpt>
      <trkpt lat="42.36595" lon="1.25805">
        <ele>1641.4</ele>
        <time>2022-05-22 15:50:41</time>
      </trkpt>
      <trkpt lat="42.36596" lon="1.25802">
        <ele>1641.6</ele>
        <time>2022-05-22 15:50:42</time>
      </trkpt>
      <trkpt lat="42.36597" lon="1.258">
        <ele>1641.8</ele>
        <time>2022-05-22 15:50:43</time>
      </trkpt>
      <trkpt lat="42.36598" lon="1.25798">
        <ele>1642</ele>
        <time>2022-05-22 15:50:44</time>
      </trkpt>
      <trkpt lat="42.36599" lon="1.25797">
        <ele>1642.2</ele>
        <time>2022-05-22 15:50:45</time>
      </trkpt>
      <trkpt lat="42.366" lon="1.25794">
        <ele>1642.4</ele>
        <time>2022-05-22 15:50:46</time>
      </trkpt>
      <trkpt lat="42.36601" lon="1.25792">
        <ele>1642.6</ele>
        <time>2022-05-22 15:50:47</time>
      </trkpt>
      <trkpt lat="42.36602" lon="1.2579">
        <ele>1642.8</ele>
        <time>2022-05-22 15:50:48</time>
      </trkpt>
      <trkpt lat="42.36603" lon="1.25788">
        <ele>1643</ele>
        <time>2022-05-22 15:50:49</time>
      </trkpt>
      <trkpt lat="42.36603" lon="1.25786">
        <ele>1643.2</ele>
        <time>2022-05-22 15:50:50</time>
      </trkpt>
      <trkpt lat="42.36604" lon="1.25785">
        <ele>1643.2</ele>
        <time>2022-05-22 15:50:51</time>
      </trkpt>
      <trkpt lat="42.36605" lon="1.25782">
        <ele>1643.4</ele>
        <time>2022-05-22 15:50:52</time>
      </trkpt>
      <trkpt lat="42.36606" lon="1.2578">
        <ele>1643.6</ele>
        <time>2022-05-22 15:50:53</time>
      </trkpt>
      <trkpt lat="42.36608" lon="1.25778">
        <ele>1643.6</ele>
        <time>2022-05-22 15:50:54</time>
      </trkpt>
      <trkpt lat="42.36609" lon="1.25776">
        <ele>1643.6</ele>
        <time>2022-05-22 15:50:55</time>
      </trkpt>
      <trkpt lat="42.3661" lon="1.25774">
        <ele>1643.6</ele>
        <time>2022-05-22 15:50:56</time>
      </trkpt>
      <trkpt lat="42.36611" lon="1.25772">
        <ele>1643.4</ele>
        <time>2022-05-22 15:50:57</time>
      </trkpt>
      <trkpt lat="42.36612" lon="1.2577">
        <ele>1643.4</ele>
        <time>2022-05-22 15:50:58</time>
      </trkpt>
      <trkpt lat="42.36613" lon="1.25768">
        <ele>1643.6</ele>
        <time>2022-05-22 15:50:59</time>
      </trkpt>
      <trkpt lat="42.36614" lon="1.25766">
        <ele>1643.8</ele>
        <time>2022-05-22 15:51:00</time>
      </trkpt>
      <trkpt lat="42.36615" lon="1.25764">
        <ele>1644</ele>
        <time>2022-05-22 15:51:01</time>
      </trkpt>
      <trkpt lat="42.36616" lon="1.25761">
        <ele>1644.2</ele>
        <time>2022-05-22 15:51:02</time>
      </trkpt>
      <trkpt lat="42.36617" lon="1.25759">
        <ele>1644.6</ele>
        <time>2022-05-22 15:51:03</time>
      </trkpt>
      <trkpt lat="42.36618" lon="1.25757">
        <ele>1645</ele>
        <time>2022-05-22 15:51:04</time>
      </trkpt>
      <trkpt lat="42.36619" lon="1.25756">
        <ele>1645.4</ele>
        <time>2022-05-22 15:51:05</time>
      </trkpt>
      <trkpt lat="42.36621" lon="1.25753">
        <ele>1646</ele>
        <time>2022-05-22 15:51:06</time>
      </trkpt>
      <trkpt lat="42.36622" lon="1.25751">
        <ele>1646.2</ele>
        <time>2022-05-22 15:51:07</time>
      </trkpt>
      <trkpt lat="42.36623" lon="1.2575">
        <ele>1646.2</ele>
        <time>2022-05-22 15:51:08</time>
      </trkpt>
      <trkpt lat="42.36625" lon="1.25747">
        <ele>1646.4</ele>
        <time>2022-05-22 15:51:09</time>
      </trkpt>
      <trkpt lat="42.36626" lon="1.25745">
        <ele>1646.4</ele>
        <time>2022-05-22 15:51:10</time>
      </trkpt>
      <trkpt lat="42.36627" lon="1.25744">
        <ele>1646.4</ele>
        <time>2022-05-22 15:51:11</time>
      </trkpt>
      <trkpt lat="42.36629" lon="1.25741">
        <ele>1646.4</ele>
        <time>2022-05-22 15:51:12</time>
      </trkpt>
      <trkpt lat="42.3663" lon="1.25739">
        <ele>1646.4</ele>
        <time>2022-05-22 15:51:13</time>
      </trkpt>
      <trkpt lat="42.36631" lon="1.25736">
        <ele>1646.4</ele>
        <time>2022-05-22 15:51:14</time>
      </trkpt>
      <trkpt lat="42.36633" lon="1.25734">
        <ele>1646.4</ele>
        <time>2022-05-22 15:51:15</time>
      </trkpt>
      <trkpt lat="42.36634" lon="1.25732">
        <ele>1646.4</ele>
        <time>2022-05-22 15:51:16</time>
      </trkpt>
      <trkpt lat="42.36635" lon="1.2573">
        <ele>1646.4</ele>
        <time>2022-05-22 15:51:17</time>
      </trkpt>
      <trkpt lat="42.36637" lon="1.25727">
        <ele>1646.6</ele>
        <time>2022-05-22 15:51:18</time>
      </trkpt>
      <trkpt lat="42.36638" lon="1.25725">
        <ele>1646.6</ele>
        <time>2022-05-22 15:51:19</time>
      </trkpt>
      <trkpt lat="42.3664" lon="1.25722">
        <ele>1646.6</ele>
        <time>2022-05-22 15:51:20</time>
      </trkpt>
      <trkpt lat="42.36641" lon="1.25719">
        <ele>1646.8</ele>
        <time>2022-05-22 15:51:21</time>
      </trkpt>
      <trkpt lat="42.36642" lon="1.25717">
        <ele>1647</ele>
        <time>2022-05-22 15:51:22</time>
      </trkpt>
      <trkpt lat="42.36643" lon="1.25714">
        <ele>1647.2</ele>
        <time>2022-05-22 15:51:23</time>
      </trkpt>
      <trkpt lat="42.36645" lon="1.25712">
        <ele>1647.4</ele>
        <time>2022-05-22 15:51:24</time>
      </trkpt>
      <trkpt lat="42.36646" lon="1.2571">
        <ele>1647.6</ele>
        <time>2022-05-22 15:51:25</time>
      </trkpt>
      <trkpt lat="42.36647" lon="1.25707">
        <ele>1647.6</ele>
        <time>2022-05-22 15:51:26</time>
      </trkpt>
      <trkpt lat="42.36648" lon="1.25705">
        <ele>1647.8</ele>
        <time>2022-05-22 15:51:27</time>
      </trkpt>
      <trkpt lat="42.36649" lon="1.25703">
        <ele>1647.8</ele>
        <time>2022-05-22 15:51:28</time>
      </trkpt>
      <trkpt lat="42.3665" lon="1.257">
        <ele>1648</ele>
        <time>2022-05-22 15:51:29</time>
      </trkpt>
      <trkpt lat="42.36651" lon="1.25698">
        <ele>1648</ele>
        <time>2022-05-22 15:51:30</time>
      </trkpt>
      <trkpt lat="42.36653" lon="1.25696">
        <ele>1648.2</ele>
        <time>2022-05-22 15:51:31</time>
      </trkpt>
      <trkpt lat="42.36654" lon="1.25694">
        <ele>1648.4</ele>
        <time>2022-05-22 15:51:32</time>
      </trkpt>
      <trkpt lat="42.36655" lon="1.25691">
        <ele>1648.6</ele>
        <time>2022-05-22 15:51:33</time>
      </trkpt>
      <trkpt lat="42.36656" lon="1.25689">
        <ele>1648.8</ele>
        <time>2022-05-22 15:51:34</time>
      </trkpt>
      <trkpt lat="42.36657" lon="1.25687">
        <ele>1649</ele>
        <time>2022-05-22 15:51:35</time>
      </trkpt>
      <trkpt lat="42.36658" lon="1.25684">
        <ele>1649.2</ele>
        <time>2022-05-22 15:51:36</time>
      </trkpt>
      <trkpt lat="42.36659" lon="1.25682">
        <ele>1649.4</ele>
        <time>2022-05-22 15:51:37</time>
      </trkpt>
      <trkpt lat="42.3666" lon="1.25679">
        <ele>1649.6</ele>
        <time>2022-05-22 15:51:38</time>
      </trkpt>
      <trkpt lat="42.36661" lon="1.25677">
        <ele>1649.8</ele>
        <time>2022-05-22 15:51:39</time>
      </trkpt>
      <trkpt lat="42.36662" lon="1.25675">
        <ele>1650</ele>
        <time>2022-05-22 15:51:40</time>
      </trkpt>
      <trkpt lat="42.36664" lon="1.25673">
        <ele>1650.2</ele>
        <time>2022-05-22 15:51:41</time>
      </trkpt>
      <trkpt lat="42.36665" lon="1.2567">
        <ele>1650.4</ele>
        <time>2022-05-22 15:51:42</time>
      </trkpt>
      <trkpt lat="42.36666" lon="1.25668">
        <ele>1650.6</ele>
        <time>2022-05-22 15:51:43</time>
      </trkpt>
      <trkpt lat="42.36667" lon="1.25666">
        <ele>1650.8</ele>
        <time>2022-05-22 15:51:44</time>
      </trkpt>
      <trkpt lat="42.36668" lon="1.25664">
        <ele>1651</ele>
        <time>2022-05-22 15:51:45</time>
      </trkpt>
      <trkpt lat="42.36669" lon="1.25661">
        <ele>1651.2</ele>
        <time>2022-05-22 15:51:46</time>
      </trkpt>
      <trkpt lat="42.3667" lon="1.25659">
        <ele>1651.4</ele>
        <time>2022-05-22 15:51:47</time>
      </trkpt>
      <trkpt lat="42.36672" lon="1.25656">
        <ele>1651.6</ele>
        <time>2022-05-22 15:51:48</time>
      </trkpt>
      <trkpt lat="42.36673" lon="1.25654">
        <ele>1651.8</ele>
        <time>2022-05-22 15:51:49</time>
      </trkpt>
      <trkpt lat="42.36674" lon="1.25652">
        <ele>1651.8</ele>
        <time>2022-05-22 15:51:50</time>
      </trkpt>
      <trkpt lat="42.36675" lon="1.25649">
        <ele>1652</ele>
        <time>2022-05-22 15:51:51</time>
      </trkpt>
      <trkpt lat="42.36676" lon="1.25647">
        <ele>1652.2</ele>
        <time>2022-05-22 15:51:52</time>
      </trkpt>
      <trkpt lat="42.36678" lon="1.25645">
        <ele>1652.4</ele>
        <time>2022-05-22 15:51:53</time>
      </trkpt>
      <trkpt lat="42.36679" lon="1.25643">
        <ele>1652.6</ele>
        <time>2022-05-22 15:51:54</time>
      </trkpt>
      <trkpt lat="42.3668" lon="1.2564">
        <ele>1652.6</ele>
        <time>2022-05-22 15:51:55</time>
      </trkpt>
      <trkpt lat="42.36682" lon="1.25638">
        <ele>1652.8</ele>
        <time>2022-05-22 15:51:56</time>
      </trkpt>
      <trkpt lat="42.36683" lon="1.25636">
        <ele>1653</ele>
        <time>2022-05-22 15:51:57</time>
      </trkpt>
      <trkpt lat="42.36684" lon="1.25634">
        <ele>1653.2</ele>
        <time>2022-05-22 15:51:58</time>
      </trkpt>
      <trkpt lat="42.36686" lon="1.25632">
        <ele>1653.4</ele>
        <time>2022-05-22 15:51:59</time>
      </trkpt>
      <trkpt lat="42.36687" lon="1.2563">
        <ele>1653.4</ele>
        <time>2022-05-22 15:52:00</time>
      </trkpt>
      <trkpt lat="42.36688" lon="1.25628">
        <ele>1653.6</ele>
        <time>2022-05-22 15:52:01</time>
      </trkpt>
      <trkpt lat="42.3669" lon="1.25626">
        <ele>1653.8</ele>
        <time>2022-05-22 15:52:02</time>
      </trkpt>
      <trkpt lat="42.36691" lon="1.25624">
        <ele>1654</ele>
        <time>2022-05-22 15:52:03</time>
      </trkpt>
      <trkpt lat="42.36693" lon="1.25622">
        <ele>1654</ele>
        <time>2022-05-22 15:52:04</time>
      </trkpt>
      <trkpt lat="42.36695" lon="1.2562">
        <ele>1654.2</ele>
        <time>2022-05-22 15:52:05</time>
      </trkpt>
      <trkpt lat="42.36696" lon="1.25618">
        <ele>1654.4</ele>
        <time>2022-05-22 15:52:06</time>
      </trkpt>
      <trkpt lat="42.36698" lon="1.25616">
        <ele>1654.4</ele>
        <time>2022-05-22 15:52:07</time>
      </trkpt>
      <trkpt lat="42.367" lon="1.25615">
        <ele>1654.6</ele>
        <time>2022-05-22 15:52:08</time>
      </trkpt>
      <trkpt lat="42.36701" lon="1.25613">
        <ele>1654.6</ele>
        <time>2022-05-22 15:52:09</time>
      </trkpt>
      <trkpt lat="42.36703" lon="1.25611">
        <ele>1654.8</ele>
        <time>2022-05-22 15:52:10</time>
      </trkpt>
      <trkpt lat="42.36704" lon="1.2561">
        <ele>1654.8</ele>
        <time>2022-05-22 15:52:11</time>
      </trkpt>
      <trkpt lat="42.36706" lon="1.25608">
        <ele>1655</ele>
        <time>2022-05-22 15:52:12</time>
      </trkpt>
      <trkpt lat="42.36707" lon="1.25606">
        <ele>1655</ele>
        <time>2022-05-22 15:52:13</time>
      </trkpt>
      <trkpt lat="42.36708" lon="1.25604">
        <ele>1655</ele>
        <time>2022-05-22 15:52:14</time>
      </trkpt>
      <trkpt lat="42.3671" lon="1.25603">
        <ele>1655</ele>
        <time>2022-05-22 15:52:15</time>
      </trkpt>
      <trkpt lat="42.36711" lon="1.25601">
        <ele>1655.2</ele>
        <time>2022-05-22 15:52:16</time>
      </trkpt>
      <trkpt lat="42.36713" lon="1.25599">
        <ele>1655.2</ele>
        <time>2022-05-22 15:52:17</time>
      </trkpt>
      <trkpt lat="42.36714" lon="1.25597">
        <ele>1655.4</ele>
        <time>2022-05-22 15:52:18</time>
      </trkpt>
      <trkpt lat="42.36715" lon="1.25595">
        <ele>1655.6</ele>
        <time>2022-05-22 15:52:19</time>
      </trkpt>
      <trkpt lat="42.36717" lon="1.25594">
        <ele>1655.6</ele>
        <time>2022-05-22 15:52:20</time>
      </trkpt>
      <trkpt lat="42.36719" lon="1.25592">
        <ele>1655.8</ele>
        <time>2022-05-22 15:52:21</time>
      </trkpt>
      <trkpt lat="42.3672" lon="1.2559">
        <ele>1656</ele>
        <time>2022-05-22 15:52:22</time>
      </trkpt>
      <trkpt lat="42.36721" lon="1.25589">
        <ele>1656</ele>
        <time>2022-05-22 15:52:23</time>
      </trkpt>
      <trkpt lat="42.36723" lon="1.25587">
        <ele>1656</ele>
        <time>2022-05-22 15:52:24</time>
      </trkpt>
      <trkpt lat="42.36725" lon="1.25585">
        <ele>1656.2</ele>
        <time>2022-05-22 15:52:25</time>
      </trkpt>
      <trkpt lat="42.36727" lon="1.25583">
        <ele>1656.2</ele>
        <time>2022-05-22 15:52:26</time>
      </trkpt>
      <trkpt lat="42.36728" lon="1.25581">
        <ele>1656.4</ele>
        <time>2022-05-22 15:52:27</time>
      </trkpt>
      <trkpt lat="42.3673" lon="1.25579">
        <ele>1656.4</ele>
        <time>2022-05-22 15:52:28</time>
      </trkpt>
      <trkpt lat="42.36732" lon="1.25577">
        <ele>1656.4</ele>
        <time>2022-05-22 15:52:29</time>
      </trkpt>
      <trkpt lat="42.36735" lon="1.25575">
        <ele>1656.4</ele>
        <time>2022-05-22 15:52:30</time>
      </trkpt>
      <trkpt lat="42.36737" lon="1.25573">
        <ele>1656.6</ele>
        <time>2022-05-22 15:52:31</time>
      </trkpt>
      <trkpt lat="42.36739" lon="1.2557">
        <ele>1656.8</ele>
        <time>2022-05-22 15:52:32</time>
      </trkpt>
      <trkpt lat="42.36741" lon="1.25568">
        <ele>1657</ele>
        <time>2022-05-22 15:52:33</time>
      </trkpt>
      <trkpt lat="42.36743" lon="1.25565">
        <ele>1657.2</ele>
        <time>2022-05-22 15:52:34</time>
      </trkpt>
      <trkpt lat="42.36746" lon="1.25563">
        <ele>1657.6</ele>
        <time>2022-05-22 15:52:35</time>
      </trkpt>
      <trkpt lat="42.36748" lon="1.25561">
        <ele>1657.8</ele>
        <time>2022-05-22 15:52:36</time>
      </trkpt>
      <trkpt lat="42.3675" lon="1.25558">
        <ele>1657.8</ele>
        <time>2022-05-22 15:52:37</time>
      </trkpt>
      <trkpt lat="42.36753" lon="1.25556">
        <ele>1657.8</ele>
        <time>2022-05-22 15:52:38</time>
      </trkpt>
      <trkpt lat="42.36755" lon="1.25553">
        <ele>1658</ele>
        <time>2022-05-22 15:52:39</time>
      </trkpt>
      <trkpt lat="42.36757" lon="1.25551">
        <ele>1658.2</ele>
        <time>2022-05-22 15:52:40</time>
      </trkpt>
      <trkpt lat="42.36759" lon="1.2555">
        <ele>1658.4</ele>
        <time>2022-05-22 15:52:41</time>
      </trkpt>
      <trkpt lat="42.36761" lon="1.25548">
        <ele>1658.4</ele>
        <time>2022-05-22 15:52:42</time>
      </trkpt>
      <trkpt lat="42.36763" lon="1.25546">
        <ele>1658.6</ele>
        <time>2022-05-22 15:52:43</time>
      </trkpt>
      <trkpt lat="42.36766" lon="1.25544">
        <ele>1658.8</ele>
        <time>2022-05-22 15:52:44</time>
      </trkpt>
      <trkpt lat="42.36768" lon="1.25542">
        <ele>1659</ele>
        <time>2022-05-22 15:52:45</time>
      </trkpt>
      <trkpt lat="42.3677" lon="1.2554">
        <ele>1659.2</ele>
        <time>2022-05-22 15:52:46</time>
      </trkpt>
      <trkpt lat="42.36772" lon="1.25537">
        <ele>1659.4</ele>
        <time>2022-05-22 15:52:47</time>
      </trkpt>
      <trkpt lat="42.36774" lon="1.25535">
        <ele>1659.4</ele>
        <time>2022-05-22 15:52:48</time>
      </trkpt>
      <trkpt lat="42.36776" lon="1.25532">
        <ele>1659.6</ele>
        <time>2022-05-22 15:52:49</time>
      </trkpt>
      <trkpt lat="42.36778" lon="1.2553">
        <ele>1659.8</ele>
        <time>2022-05-22 15:52:50</time>
      </trkpt>
      <trkpt lat="42.3678" lon="1.25528">
        <ele>1660</ele>
        <time>2022-05-22 15:52:51</time>
      </trkpt>
      <trkpt lat="42.36782" lon="1.25526">
        <ele>1660</ele>
        <time>2022-05-22 15:52:52</time>
      </trkpt>
      <trkpt lat="42.36784" lon="1.25524">
        <ele>1660.2</ele>
        <time>2022-05-22 15:52:53</time>
      </trkpt>
      <trkpt lat="42.36786" lon="1.25522">
        <ele>1660.2</ele>
        <time>2022-05-22 15:52:54</time>
      </trkpt>
      <trkpt lat="42.36788" lon="1.2552">
        <ele>1660.4</ele>
        <time>2022-05-22 15:52:55</time>
      </trkpt>
      <trkpt lat="42.3679" lon="1.25518">
        <ele>1660.4</ele>
        <time>2022-05-22 15:52:56</time>
      </trkpt>
      <trkpt lat="42.36792" lon="1.25516">
        <ele>1660.4</ele>
        <time>2022-05-22 15:52:57</time>
      </trkpt>
      <trkpt lat="42.36794" lon="1.25514">
        <ele>1660.6</ele>
        <time>2022-05-22 15:52:58</time>
      </trkpt>
      <trkpt lat="42.36795" lon="1.25512">
        <ele>1660.6</ele>
        <time>2022-05-22 15:52:59</time>
      </trkpt>
      <trkpt lat="42.36797" lon="1.25511">
        <ele>1660.8</ele>
        <time>2022-05-22 15:53:00</time>
      </trkpt>
      <trkpt lat="42.36799" lon="1.25509">
        <ele>1661</ele>
        <time>2022-05-22 15:53:01</time>
      </trkpt>
      <trkpt lat="42.36801" lon="1.25507">
        <ele>1661</ele>
        <time>2022-05-22 15:53:02</time>
      </trkpt>
      <trkpt lat="42.36803" lon="1.25505">
        <ele>1661.2</ele>
        <time>2022-05-22 15:53:03</time>
      </trkpt>
      <trkpt lat="42.36805" lon="1.25503">
        <ele>1661.4</ele>
        <time>2022-05-22 15:53:04</time>
      </trkpt>
      <trkpt lat="42.36807" lon="1.25501">
        <ele>1661.6</ele>
        <time>2022-05-22 15:53:05</time>
      </trkpt>
      <trkpt lat="42.36808" lon="1.25499">
        <ele>1661.8</ele>
        <time>2022-05-22 15:53:06</time>
      </trkpt>
      <trkpt lat="42.3681" lon="1.25496">
        <ele>1662</ele>
        <time>2022-05-22 15:53:07</time>
      </trkpt>
      <trkpt lat="42.36811" lon="1.25494">
        <ele>1662.4</ele>
        <time>2022-05-22 15:53:08</time>
      </trkpt>
      <trkpt lat="42.36813" lon="1.25492">
        <ele>1662.6</ele>
        <time>2022-05-22 15:53:09</time>
      </trkpt>
      <trkpt lat="42.36815" lon="1.2549">
        <ele>1662.8</ele>
        <time>2022-05-22 15:53:10</time>
      </trkpt>
      <trkpt lat="42.36817" lon="1.25487">
        <ele>1663</ele>
        <time>2022-05-22 15:53:11</time>
      </trkpt>
      <trkpt lat="42.36819" lon="1.25485">
        <ele>1663.4</ele>
        <time>2022-05-22 15:53:12</time>
      </trkpt>
      <trkpt lat="42.36821" lon="1.25482">
        <ele>1663.6</ele>
        <time>2022-05-22 15:53:13</time>
      </trkpt>
      <trkpt lat="42.36822" lon="1.2548">
        <ele>1663.8</ele>
        <time>2022-05-22 15:53:14</time>
      </trkpt>
      <trkpt lat="42.36824" lon="1.25477">
        <ele>1664</ele>
        <time>2022-05-22 15:53:15</time>
      </trkpt>
      <trkpt lat="42.36826" lon="1.25474">
        <ele>1664.4</ele>
        <time>2022-05-22 15:53:16</time>
      </trkpt>
      <trkpt lat="42.36827" lon="1.25472">
        <ele>1664.6</ele>
        <time>2022-05-22 15:53:17</time>
      </trkpt>
      <trkpt lat="42.36829" lon="1.25469">
        <ele>1664.8</ele>
        <time>2022-05-22 15:53:18</time>
      </trkpt>
      <trkpt lat="42.3683" lon="1.25466">
        <ele>1665</ele>
        <time>2022-05-22 15:53:19</time>
      </trkpt>
      <trkpt lat="42.36832" lon="1.25463">
        <ele>1665.2</ele>
        <time>2022-05-22 15:53:20</time>
      </trkpt>
      <trkpt lat="42.36834" lon="1.2546">
        <ele>1665.4</ele>
        <time>2022-05-22 15:53:21</time>
      </trkpt>
      <trkpt lat="42.36835" lon="1.25458">
        <ele>1665.6</ele>
        <time>2022-05-22 15:53:22</time>
      </trkpt>
      <trkpt lat="42.36837" lon="1.25455">
        <ele>1665.6</ele>
        <time>2022-05-22 15:53:23</time>
      </trkpt>
      <trkpt lat="42.36838" lon="1.25451">
        <ele>1665.8</ele>
        <time>2022-05-22 15:53:24</time>
      </trkpt>
      <trkpt lat="42.36839" lon="1.25448">
        <ele>1666</ele>
        <time>2022-05-22 15:53:25</time>
      </trkpt>
      <trkpt lat="42.36841" lon="1.25445">
        <ele>1666.2</ele>
        <time>2022-05-22 15:53:26</time>
      </trkpt>
      <trkpt lat="42.36842" lon="1.25442">
        <ele>1666.4</ele>
        <time>2022-05-22 15:53:27</time>
      </trkpt>
      <trkpt lat="42.36843" lon="1.25439">
        <ele>1666.4</ele>
        <time>2022-05-22 15:53:28</time>
      </trkpt>
      <trkpt lat="42.36844" lon="1.25436">
        <ele>1666.6</ele>
        <time>2022-05-22 15:53:29</time>
      </trkpt>
      <trkpt lat="42.36846" lon="1.25433">
        <ele>1666.8</ele>
        <time>2022-05-22 15:53:30</time>
      </trkpt>
      <trkpt lat="42.36847" lon="1.2543">
        <ele>1667</ele>
        <time>2022-05-22 15:53:31</time>
      </trkpt>
      <trkpt lat="42.36848" lon="1.25427">
        <ele>1667.2</ele>
        <time>2022-05-22 15:53:32</time>
      </trkpt>
      <trkpt lat="42.36849" lon="1.25424">
        <ele>1667.4</ele>
        <time>2022-05-22 15:53:33</time>
      </trkpt>
      <trkpt lat="42.3685" lon="1.25421">
        <ele>1667.6</ele>
        <time>2022-05-22 15:53:34</time>
      </trkpt>
      <trkpt lat="42.36851" lon="1.25418">
        <ele>1667.6</ele>
        <time>2022-05-22 15:53:35</time>
      </trkpt>
      <trkpt lat="42.36852" lon="1.25415">
        <ele>1667.8</ele>
        <time>2022-05-22 15:53:36</time>
      </trkpt>
      <trkpt lat="42.36853" lon="1.25412">
        <ele>1668</ele>
        <time>2022-05-22 15:53:37</time>
      </trkpt>
      <trkpt lat="42.36854" lon="1.25408">
        <ele>1668.2</ele>
        <time>2022-05-22 15:53:38</time>
      </trkpt>
      <trkpt lat="42.36854" lon="1.25405">
        <ele>1668.2</ele>
        <time>2022-05-22 15:53:39</time>
      </trkpt>
      <trkpt lat="42.36855" lon="1.25402">
        <ele>1668.4</ele>
        <time>2022-05-22 15:53:40</time>
      </trkpt>
      <trkpt lat="42.36855" lon="1.25399">
        <ele>1668.4</ele>
        <time>2022-05-22 15:53:41</time>
      </trkpt>
      <trkpt lat="42.36856" lon="1.25397">
        <ele>1668.6</ele>
        <time>2022-05-22 15:53:42</time>
      </trkpt>
      <trkpt lat="42.36857" lon="1.25392">
        <ele>1668.8</ele>
        <time>2022-05-22 15:53:43</time>
      </trkpt>
      <trkpt lat="42.36858" lon="1.25389">
        <ele>1668.8</ele>
        <time>2022-05-22 15:53:44</time>
      </trkpt>
      <trkpt lat="42.36859" lon="1.25385">
        <ele>1669</ele>
        <time>2022-05-22 15:53:45</time>
      </trkpt>
      <trkpt lat="42.36859" lon="1.25382">
        <ele>1669</ele>
        <time>2022-05-22 15:53:46</time>
      </trkpt>
      <trkpt lat="42.3686" lon="1.25378">
        <ele>1669.2</ele>
        <time>2022-05-22 15:53:47</time>
      </trkpt>
      <trkpt lat="42.3686" lon="1.25375">
        <ele>1669.2</ele>
        <time>2022-05-22 15:53:48</time>
      </trkpt>
      <trkpt lat="42.36862" lon="1.2537">
        <ele>1669.2</ele>
        <time>2022-05-22 15:53:49</time>
      </trkpt>
      <trkpt lat="42.36863" lon="1.25366">
        <ele>1669.2</ele>
        <time>2022-05-22 15:53:50</time>
      </trkpt>
      <trkpt lat="42.36863" lon="1.25362">
        <ele>1669.2</ele>
        <time>2022-05-22 15:53:51</time>
      </trkpt>
      <trkpt lat="42.36864" lon="1.25356">
        <ele>1669.4</ele>
        <time>2022-05-22 15:53:52</time>
      </trkpt>
      <trkpt lat="42.36865" lon="1.25352">
        <ele>1669.4</ele>
        <time>2022-05-22 15:53:53</time>
      </trkpt>
      <trkpt lat="42.36865" lon="1.25347">
        <ele>1669.6</ele>
        <time>2022-05-22 15:53:54</time>
      </trkpt>
      <trkpt lat="42.36866" lon="1.25341">
        <ele>1669.8</ele>
        <time>2022-05-22 15:53:55</time>
      </trkpt>
      <trkpt lat="42.36866" lon="1.25337">
        <ele>1669.8</ele>
        <time>2022-05-22 15:53:56</time>
      </trkpt>
      <trkpt lat="42.36867" lon="1.25333">
        <ele>1670</ele>
        <time>2022-05-22 15:53:57</time>
      </trkpt>
      <trkpt lat="42.36867" lon="1.25326">
        <ele>1670.2</ele>
        <time>2022-05-22 15:53:58</time>
      </trkpt>
      <trkpt lat="42.36868" lon="1.25322">
        <ele>1670.4</ele>
        <time>2022-05-22 15:53:59</time>
      </trkpt>
      <trkpt lat="42.36868" lon="1.25317">
        <ele>1670.6</ele>
        <time>2022-05-22 15:54:00</time>
      </trkpt>
      <trkpt lat="42.36869" lon="1.25312">
        <ele>1670.8</ele>
        <time>2022-05-22 15:54:01</time>
      </trkpt>
      <trkpt lat="42.3687" lon="1.25307">
        <ele>1671</ele>
        <time>2022-05-22 15:54:02</time>
      </trkpt>
      <trkpt lat="42.3687" lon="1.25303">
        <ele>1671.4</ele>
        <time>2022-05-22 15:54:03</time>
      </trkpt>
      <trkpt lat="42.36871" lon="1.25297">
        <ele>1671.6</ele>
        <time>2022-05-22 15:54:04</time>
      </trkpt>
      <trkpt lat="42.36871" lon="1.25293">
        <ele>1671.8</ele>
        <time>2022-05-22 15:54:05</time>
      </trkpt>
      <trkpt lat="42.36872" lon="1.25288">
        <ele>1671.8</ele>
        <time>2022-05-22 15:54:06</time>
      </trkpt>
      <trkpt lat="42.36873" lon="1.25283">
        <ele>1672</ele>
        <time>2022-05-22 15:54:07</time>
      </trkpt>
      <trkpt lat="42.36873" lon="1.25279">
        <ele>1672.2</ele>
        <time>2022-05-22 15:54:08</time>
      </trkpt>
      <trkpt lat="42.36873" lon="1.25275">
        <ele>1672.2</ele>
        <time>2022-05-22 15:54:09</time>
      </trkpt>
      <trkpt lat="42.36874" lon="1.25268">
        <ele>1672.4</ele>
        <time>2022-05-22 15:54:10</time>
      </trkpt>
      <trkpt lat="42.36875" lon="1.25264">
        <ele>1672.6</ele>
        <time>2022-05-22 15:54:11</time>
      </trkpt>
      <trkpt lat="42.36875" lon="1.2526">
        <ele>1672.6</ele>
        <time>2022-05-22 15:54:12</time>
      </trkpt>
      <trkpt lat="42.36876" lon="1.25255">
        <ele>1672.8</ele>
        <time>2022-05-22 15:54:13</time>
      </trkpt>
      <trkpt lat="42.36877" lon="1.25251">
        <ele>1672.8</ele>
        <time>2022-05-22 15:54:14</time>
      </trkpt>
      <trkpt lat="42.36877" lon="1.25248">
        <ele>1673</ele>
        <time>2022-05-22 15:54:15</time>
      </trkpt>
      <trkpt lat="42.36879" lon="1.2524">
        <ele>1673.2</ele>
        <time>2022-05-22 15:54:16</time>
      </trkpt>
      <trkpt lat="42.3688" lon="1.25236">
        <ele>1673.2</ele>
        <time>2022-05-22 15:54:17</time>
      </trkpt>
      <trkpt lat="42.36881" lon="1.25232">
        <ele>1673.4</ele>
        <time>2022-05-22 15:54:18</time>
      </trkpt>
      <trkpt lat="42.36882" lon="1.25226">
        <ele>1673.6</ele>
        <time>2022-05-22 15:54:19</time>
      </trkpt>
      <trkpt lat="42.36882" lon="1.25222">
        <ele>1673.6</ele>
        <time>2022-05-22 15:54:20</time>
      </trkpt>
      <trkpt lat="42.36883" lon="1.25218">
        <ele>1673.8</ele>
        <time>2022-05-22 15:54:21</time>
      </trkpt>
      <trkpt lat="42.36884" lon="1.25213">
        <ele>1674</ele>
        <time>2022-05-22 15:54:22</time>
      </trkpt>
      <trkpt lat="42.36885" lon="1.25209">
        <ele>1674.2</ele>
        <time>2022-05-22 15:54:23</time>
      </trkpt>
      <trkpt lat="42.36886" lon="1.25204">
        <ele>1674.6</ele>
        <time>2022-05-22 15:54:24</time>
      </trkpt>
      <trkpt lat="42.36887" lon="1.25199">
        <ele>1674.6</ele>
        <time>2022-05-22 15:54:25</time>
      </trkpt>
      <trkpt lat="42.36888" lon="1.25195">
        <ele>1674.8</ele>
        <time>2022-05-22 15:54:26</time>
      </trkpt>
      <trkpt lat="42.36889" lon="1.25191">
        <ele>1675</ele>
        <time>2022-05-22 15:54:27</time>
      </trkpt>
      <trkpt lat="42.3689" lon="1.25185">
        <ele>1675.2</ele>
        <time>2022-05-22 15:54:28</time>
      </trkpt>
      <trkpt lat="42.36891" lon="1.25181">
        <ele>1675.4</ele>
        <time>2022-05-22 15:54:29</time>
      </trkpt>
      <trkpt lat="42.36892" lon="1.25176">
        <ele>1675.4</ele>
        <time>2022-05-22 15:54:30</time>
      </trkpt>
      <trkpt lat="42.36893" lon="1.25171">
        <ele>1675.6</ele>
        <time>2022-05-22 15:54:31</time>
      </trkpt>
      <trkpt lat="42.36894" lon="1.25168">
        <ele>1675.8</ele>
        <time>2022-05-22 15:54:32</time>
      </trkpt>
      <trkpt lat="42.36895" lon="1.25165">
        <ele>1676</ele>
        <time>2022-05-22 15:54:33</time>
      </trkpt>
      <trkpt lat="42.36896" lon="1.25159">
        <ele>1676.2</ele>
        <time>2022-05-22 15:54:34</time>
      </trkpt>
      <trkpt lat="42.36897" lon="1.25155">
        <ele>1676.2</ele>
        <time>2022-05-22 15:54:35</time>
      </trkpt>
      <trkpt lat="42.36899" lon="1.25151">
        <ele>1676.4</ele>
        <time>2022-05-22 15:54:36</time>
      </trkpt>
      <trkpt lat="42.369" lon="1.25146">
        <ele>1676.4</ele>
        <time>2022-05-22 15:54:37</time>
      </trkpt>
      <trkpt lat="42.36902" lon="1.25142">
        <ele>1676.6</ele>
        <time>2022-05-22 15:54:38</time>
      </trkpt>
      <trkpt lat="42.36903" lon="1.25138">
        <ele>1676.6</ele>
        <time>2022-05-22 15:54:39</time>
      </trkpt>
      <trkpt lat="42.36905" lon="1.25133">
        <ele>1676.8</ele>
        <time>2022-05-22 15:54:40</time>
      </trkpt>
      <trkpt lat="42.36906" lon="1.25129">
        <ele>1676.8</ele>
        <time>2022-05-22 15:54:41</time>
      </trkpt>
      <trkpt lat="42.36908" lon="1.25125">
        <ele>1677</ele>
        <time>2022-05-22 15:54:42</time>
      </trkpt>
      <trkpt lat="42.3691" lon="1.2512">
        <ele>1677.2</ele>
        <time>2022-05-22 15:54:43</time>
      </trkpt>
      <trkpt lat="42.36911" lon="1.25117">
        <ele>1677.4</ele>
        <time>2022-05-22 15:54:44</time>
      </trkpt>
      <trkpt lat="42.36912" lon="1.25114">
        <ele>1677.6</ele>
        <time>2022-05-22 15:54:45</time>
      </trkpt>
      <trkpt lat="42.36915" lon="1.25108">
        <ele>1677.8</ele>
        <time>2022-05-22 15:54:46</time>
      </trkpt>
      <trkpt lat="42.36916" lon="1.25105">
        <ele>1678</ele>
        <time>2022-05-22 15:54:47</time>
      </trkpt>
      <trkpt lat="42.36918" lon="1.25101">
        <ele>1678</ele>
        <time>2022-05-22 15:54:48</time>
      </trkpt>
      <trkpt lat="42.3692" lon="1.25097">
        <ele>1678.2</ele>
        <time>2022-05-22 15:54:49</time>
      </trkpt>
      <trkpt lat="42.36922" lon="1.25094">
        <ele>1678.6</ele>
        <time>2022-05-22 15:54:50</time>
      </trkpt>
      <trkpt lat="42.36923" lon="1.25091">
        <ele>1678.8</ele>
        <time>2022-05-22 15:54:51</time>
      </trkpt>
      <trkpt lat="42.36926" lon="1.25086">
        <ele>1679</ele>
        <time>2022-05-22 15:54:52</time>
      </trkpt>
      <trkpt lat="42.36928" lon="1.25083">
        <ele>1679</ele>
        <time>2022-05-22 15:54:53</time>
      </trkpt>
      <trkpt lat="42.3693" lon="1.2508">
        <ele>1679.2</ele>
        <time>2022-05-22 15:54:54</time>
      </trkpt>
      <trkpt lat="42.36932" lon="1.25076">
        <ele>1679.4</ele>
        <time>2022-05-22 15:54:55</time>
      </trkpt>
      <trkpt lat="42.36934" lon="1.25074">
        <ele>1679.4</ele>
        <time>2022-05-22 15:54:56</time>
      </trkpt>
      <trkpt lat="42.36935" lon="1.25072">
        <ele>1679.6</ele>
        <time>2022-05-22 15:54:57</time>
      </trkpt>
      <trkpt lat="42.36938" lon="1.25067">
        <ele>1679.8</ele>
        <time>2022-05-22 15:54:58</time>
      </trkpt>
      <trkpt lat="42.3694" lon="1.25065">
        <ele>1679.8</ele>
        <time>2022-05-22 15:54:59</time>
      </trkpt>
      <trkpt lat="42.36942" lon="1.25062">
        <ele>1680</ele>
        <time>2022-05-22 15:55:00</time>
      </trkpt>
      <trkpt lat="42.36945" lon="1.25059">
        <ele>1680</ele>
        <time>2022-05-22 15:55:01</time>
      </trkpt>
      <trkpt lat="42.36947" lon="1.25057">
        <ele>1680.2</ele>
        <time>2022-05-22 15:55:02</time>
      </trkpt>
      <trkpt lat="42.36948" lon="1.25055">
        <ele>1680.2</ele>
        <time>2022-05-22 15:55:03</time>
      </trkpt>
      <trkpt lat="42.3695" lon="1.25053">
        <ele>1680.4</ele>
        <time>2022-05-22 15:55:04</time>
      </trkpt>
      <trkpt lat="42.36952" lon="1.2505">
        <ele>1680.6</ele>
        <time>2022-05-22 15:55:05</time>
      </trkpt>
      <trkpt lat="42.36954" lon="1.25047">
        <ele>1680.8</ele>
        <time>2022-05-22 15:55:06</time>
      </trkpt>
      <trkpt lat="42.36956" lon="1.25045">
        <ele>1681</ele>
        <time>2022-05-22 15:55:07</time>
      </trkpt>
      <trkpt lat="42.36957" lon="1.25043">
        <ele>1681.2</ele>
        <time>2022-05-22 15:55:08</time>
      </trkpt>
      <trkpt lat="42.3696" lon="1.2504">
        <ele>1681.4</ele>
        <time>2022-05-22 15:55:09</time>
      </trkpt>
      <trkpt lat="42.36962" lon="1.25037">
        <ele>1681.6</ele>
        <time>2022-05-22 15:55:10</time>
      </trkpt>
      <trkpt lat="42.36963" lon="1.25035">
        <ele>1681.6</ele>
        <time>2022-05-22 15:55:11</time>
      </trkpt>
      <trkpt lat="42.36965" lon="1.25033">
        <ele>1681.8</ele>
        <time>2022-05-22 15:55:12</time>
      </trkpt>
      <trkpt lat="42.36968" lon="1.25029">
        <ele>1682</ele>
        <time>2022-05-22 15:55:13</time>
      </trkpt>
      <trkpt lat="42.3697" lon="1.25027">
        <ele>1682.2</ele>
        <time>2022-05-22 15:55:14</time>
      </trkpt>
      <trkpt lat="42.36971" lon="1.25024">
        <ele>1682.2</ele>
        <time>2022-05-22 15:55:15</time>
      </trkpt>
      <trkpt lat="42.36973" lon="1.25022">
        <ele>1682.4</ele>
        <time>2022-05-22 15:55:16</time>
      </trkpt>
      <trkpt lat="42.36975" lon="1.25019">
        <ele>1682.6</ele>
        <time>2022-05-22 15:55:17</time>
      </trkpt>
      <trkpt lat="42.36977" lon="1.25017">
        <ele>1682.6</ele>
        <time>2022-05-22 15:55:18</time>
      </trkpt>
      <trkpt lat="42.36979" lon="1.25015">
        <ele>1682.8</ele>
        <time>2022-05-22 15:55:19</time>
      </trkpt>
      <trkpt lat="42.3698" lon="1.25013">
        <ele>1683</ele>
        <time>2022-05-22 15:55:20</time>
      </trkpt>
      <trkpt lat="42.36983" lon="1.2501">
        <ele>1683</ele>
        <time>2022-05-22 15:55:21</time>
      </trkpt>
      <trkpt lat="42.36985" lon="1.25008">
        <ele>1683.2</ele>
        <time>2022-05-22 15:55:22</time>
      </trkpt>
      <trkpt lat="42.36987" lon="1.25006">
        <ele>1683.4</ele>
        <time>2022-05-22 15:55:23</time>
      </trkpt>
      <trkpt lat="42.36989" lon="1.25003">
        <ele>1683.6</ele>
        <time>2022-05-22 15:55:24</time>
      </trkpt>
      <trkpt lat="42.36991" lon="1.25001">
        <ele>1683.6</ele>
        <time>2022-05-22 15:55:25</time>
      </trkpt>
      <trkpt lat="42.36992" lon="1.24998">
        <ele>1683.8</ele>
        <time>2022-05-22 15:55:26</time>
      </trkpt>
      <trkpt lat="42.36994" lon="1.24996">
        <ele>1684</ele>
        <time>2022-05-22 15:55:27</time>
      </trkpt>
      <trkpt lat="42.36996" lon="1.24993">
        <ele>1684</ele>
        <time>2022-05-22 15:55:28</time>
      </trkpt>
      <trkpt lat="42.36998" lon="1.2499">
        <ele>1684.2</ele>
        <time>2022-05-22 15:55:29</time>
      </trkpt>
      <trkpt lat="42.37" lon="1.24988">
        <ele>1684.4</ele>
        <time>2022-05-22 15:55:30</time>
      </trkpt>
      <trkpt lat="42.37001" lon="1.24986">
        <ele>1684.4</ele>
        <time>2022-05-22 15:55:31</time>
      </trkpt>
      <trkpt lat="42.37002" lon="1.24984">
        <ele>1684.6</ele>
        <time>2022-05-22 15:55:32</time>
      </trkpt>
      <trkpt lat="42.37004" lon="1.24982">
        <ele>1684.6</ele>
        <time>2022-05-22 15:55:33</time>
      </trkpt>
      <trkpt lat="42.37005" lon="1.2498">
        <ele>1684.8</ele>
        <time>2022-05-22 15:55:34</time>
      </trkpt>
      <trkpt lat="42.37007" lon="1.24977">
        <ele>1685</ele>
        <time>2022-05-22 15:55:35</time>
      </trkpt>
      <trkpt lat="42.37009" lon="1.24975">
        <ele>1685</ele>
        <time>2022-05-22 15:55:36</time>
      </trkpt>
      <trkpt lat="42.37011" lon="1.24972">
        <ele>1685.2</ele>
        <time>2022-05-22 15:55:37</time>
      </trkpt>
      <trkpt lat="42.37013" lon="1.2497">
        <ele>1685.2</ele>
        <time>2022-05-22 15:55:38</time>
      </trkpt>
      <trkpt lat="42.37015" lon="1.24967">
        <ele>1685.4</ele>
        <time>2022-05-22 15:55:39</time>
      </trkpt>
      <trkpt lat="42.37017" lon="1.24964">
        <ele>1685.4</ele>
        <time>2022-05-22 15:55:40</time>
      </trkpt>
      <trkpt lat="42.37019" lon="1.24961">
        <ele>1685.6</ele>
        <time>2022-05-22 15:55:41</time>
      </trkpt>
      <trkpt lat="42.37021" lon="1.24958">
        <ele>1685.6</ele>
        <time>2022-05-22 15:55:42</time>
      </trkpt>
      <trkpt lat="42.37023" lon="1.24955">
        <ele>1685.8</ele>
        <time>2022-05-22 15:55:43</time>
      </trkpt>
      <trkpt lat="42.37024" lon="1.24952">
        <ele>1685.8</ele>
        <time>2022-05-22 15:55:44</time>
      </trkpt>
      <trkpt lat="42.37026" lon="1.2495">
        <ele>1686</ele>
        <time>2022-05-22 15:55:45</time>
      </trkpt>
      <trkpt lat="42.37028" lon="1.24946">
        <ele>1686.2</ele>
        <time>2022-05-22 15:55:46</time>
      </trkpt>
      <trkpt lat="42.3703" lon="1.24943">
        <ele>1686.2</ele>
        <time>2022-05-22 15:55:47</time>
      </trkpt>
      <trkpt lat="42.37032" lon="1.24941">
        <ele>1686.4</ele>
        <time>2022-05-22 15:55:48</time>
      </trkpt>
      <trkpt lat="42.37034" lon="1.24938">
        <ele>1686.6</ele>
        <time>2022-05-22 15:55:49</time>
      </trkpt>
      <trkpt lat="42.37036" lon="1.24935">
        <ele>1686.8</ele>
        <time>2022-05-22 15:55:50</time>
      </trkpt>
      <trkpt lat="42.37038" lon="1.24933">
        <ele>1687</ele>
        <time>2022-05-22 15:55:51</time>
      </trkpt>
      <trkpt lat="42.3704" lon="1.2493">
        <ele>1687</ele>
        <time>2022-05-22 15:55:52</time>
      </trkpt>
      <trkpt lat="42.37041" lon="1.24928">
        <ele>1687</ele>
        <time>2022-05-22 15:55:53</time>
      </trkpt>
      <trkpt lat="42.37043" lon="1.24925">
        <ele>1687.2</ele>
        <time>2022-05-22 15:55:54</time>
      </trkpt>
      <trkpt lat="42.37045" lon="1.24922">
        <ele>1687.2</ele>
        <time>2022-05-22 15:55:55</time>
      </trkpt>
      <trkpt lat="42.37046" lon="1.2492">
        <ele>1687.2</ele>
        <time>2022-05-22 15:55:56</time>
      </trkpt>
      <trkpt lat="42.37048" lon="1.24917">
        <ele>1687.2</ele>
        <time>2022-05-22 15:55:57</time>
      </trkpt>
      <trkpt lat="42.3705" lon="1.24915">
        <ele>1687.4</ele>
        <time>2022-05-22 15:55:58</time>
      </trkpt>
      <trkpt lat="42.37052" lon="1.24912">
        <ele>1687.4</ele>
        <time>2022-05-22 15:55:59</time>
      </trkpt>
      <trkpt lat="42.37053" lon="1.2491">
        <ele>1687.4</ele>
        <time>2022-05-22 15:56:00</time>
      </trkpt>
      <trkpt lat="42.37055" lon="1.24908">
        <ele>1687.6</ele>
        <time>2022-05-22 15:56:01</time>
      </trkpt>
      <trkpt lat="42.37057" lon="1.24905">
        <ele>1687.6</ele>
        <time>2022-05-22 15:56:02</time>
      </trkpt>
      <trkpt lat="42.37058" lon="1.24902">
        <ele>1687.6</ele>
        <time>2022-05-22 15:56:03</time>
      </trkpt>
      <trkpt lat="42.3706" lon="1.249">
        <ele>1687.8</ele>
        <time>2022-05-22 15:56:04</time>
      </trkpt>
      <trkpt lat="42.37061" lon="1.24897">
        <ele>1687.8</ele>
        <time>2022-05-22 15:56:05</time>
      </trkpt>
      <trkpt lat="42.37063" lon="1.24895">
        <ele>1688</ele>
        <time>2022-05-22 15:56:06</time>
      </trkpt>
      <trkpt lat="42.37065" lon="1.24892">
        <ele>1688.2</ele>
        <time>2022-05-22 15:56:07</time>
      </trkpt>
      <trkpt lat="42.37066" lon="1.24889">
        <ele>1688.4</ele>
        <time>2022-05-22 15:56:08</time>
      </trkpt>
      <trkpt lat="42.37068" lon="1.24887">
        <ele>1688.6</ele>
        <time>2022-05-22 15:56:09</time>
      </trkpt>
      <trkpt lat="42.3707" lon="1.24884">
        <ele>1688.8</ele>
        <time>2022-05-22 15:56:10</time>
      </trkpt>
      <trkpt lat="42.37072" lon="1.24881">
        <ele>1689</ele>
        <time>2022-05-22 15:56:11</time>
      </trkpt>
      <trkpt lat="42.37073" lon="1.24878">
        <ele>1689.2</ele>
        <time>2022-05-22 15:56:12</time>
      </trkpt>
      <trkpt lat="42.37075" lon="1.24875">
        <ele>1689.4</ele>
        <time>2022-05-22 15:56:13</time>
      </trkpt>
      <trkpt lat="42.37077" lon="1.24872">
        <ele>1689.6</ele>
        <time>2022-05-22 15:56:14</time>
      </trkpt>
      <trkpt lat="42.37078" lon="1.2487">
        <ele>1689.8</ele>
        <time>2022-05-22 15:56:15</time>
      </trkpt>
      <trkpt lat="42.3708" lon="1.24867">
        <ele>1689.8</ele>
        <time>2022-05-22 15:56:16</time>
      </trkpt>
      <trkpt lat="42.37081" lon="1.24864">
        <ele>1690</ele>
        <time>2022-05-22 15:56:17</time>
      </trkpt>
      <trkpt lat="42.37083" lon="1.24862">
        <ele>1690.2</ele>
        <time>2022-05-22 15:56:18</time>
      </trkpt>
      <trkpt lat="42.37085" lon="1.24859">
        <ele>1690.4</ele>
        <time>2022-05-22 15:56:19</time>
      </trkpt>
      <trkpt lat="42.37086" lon="1.24856">
        <ele>1690.6</ele>
        <time>2022-05-22 15:56:20</time>
      </trkpt>
      <trkpt lat="42.37087" lon="1.24854">
        <ele>1690.8</ele>
        <time>2022-05-22 15:56:21</time>
      </trkpt>
      <trkpt lat="42.37089" lon="1.24851">
        <ele>1690.8</ele>
        <time>2022-05-22 15:56:22</time>
      </trkpt>
      <trkpt lat="42.3709" lon="1.24848">
        <ele>1691</ele>
        <time>2022-05-22 15:56:23</time>
      </trkpt>
      <trkpt lat="42.37092" lon="1.24846">
        <ele>1691.2</ele>
        <time>2022-05-22 15:56:24</time>
      </trkpt>
      <trkpt lat="42.37093" lon="1.24843">
        <ele>1691.2</ele>
        <time>2022-05-22 15:56:25</time>
      </trkpt>
      <trkpt lat="42.37094" lon="1.2484">
        <ele>1691.4</ele>
        <time>2022-05-22 15:56:26</time>
      </trkpt>
      <trkpt lat="42.37096" lon="1.24838">
        <ele>1691.6</ele>
        <time>2022-05-22 15:56:27</time>
      </trkpt>
      <trkpt lat="42.37097" lon="1.24835">
        <ele>1691.8</ele>
        <time>2022-05-22 15:56:28</time>
      </trkpt>
      <trkpt lat="42.37099" lon="1.24832">
        <ele>1691.8</ele>
        <time>2022-05-22 15:56:29</time>
      </trkpt>
      <trkpt lat="42.371" lon="1.24829">
        <ele>1692</ele>
        <time>2022-05-22 15:56:30</time>
      </trkpt>
      <trkpt lat="42.37101" lon="1.24827">
        <ele>1692.2</ele>
        <time>2022-05-22 15:56:31</time>
      </trkpt>
      <trkpt lat="42.37103" lon="1.24824">
        <ele>1692.4</ele>
        <time>2022-05-22 15:56:32</time>
      </trkpt>
      <trkpt lat="42.37104" lon="1.24822">
        <ele>1692.4</ele>
        <time>2022-05-22 15:56:33</time>
      </trkpt>
      <trkpt lat="42.37105" lon="1.24819">
        <ele>1692.6</ele>
        <time>2022-05-22 15:56:34</time>
      </trkpt>
      <trkpt lat="42.37106" lon="1.24817">
        <ele>1692.8</ele>
        <time>2022-05-22 15:56:35</time>
      </trkpt>
      <trkpt lat="42.37107" lon="1.24814">
        <ele>1692.8</ele>
        <time>2022-05-22 15:56:36</time>
      </trkpt>
      <trkpt lat="42.37109" lon="1.24812">
        <ele>1693</ele>
        <time>2022-05-22 15:56:37</time>
      </trkpt>
      <trkpt lat="42.3711" lon="1.24809">
        <ele>1693.2</ele>
        <time>2022-05-22 15:56:38</time>
      </trkpt>
      <trkpt lat="42.37111" lon="1.24806">
        <ele>1693.2</ele>
        <time>2022-05-22 15:56:39</time>
      </trkpt>
      <trkpt lat="42.37112" lon="1.24804">
        <ele>1693.4</ele>
        <time>2022-05-22 15:56:40</time>
      </trkpt>
      <trkpt lat="42.37113" lon="1.24801">
        <ele>1693.6</ele>
        <time>2022-05-22 15:56:41</time>
      </trkpt>
      <trkpt lat="42.37115" lon="1.24799">
        <ele>1693.6</ele>
        <time>2022-05-22 15:56:42</time>
      </trkpt>
      <trkpt lat="42.37116" lon="1.24797">
        <ele>1693.8</ele>
        <time>2022-05-22 15:56:43</time>
      </trkpt>
      <trkpt lat="42.37117" lon="1.24794">
        <ele>1693.8</ele>
        <time>2022-05-22 15:56:44</time>
      </trkpt>
      <trkpt lat="42.37118" lon="1.24791">
        <ele>1694</ele>
        <time>2022-05-22 15:56:45</time>
      </trkpt>
      <trkpt lat="42.37119" lon="1.24789">
        <ele>1694</ele>
        <time>2022-05-22 15:56:46</time>
      </trkpt>
      <trkpt lat="42.37121" lon="1.24786">
        <ele>1694.2</ele>
        <time>2022-05-22 15:56:47</time>
      </trkpt>
      <trkpt lat="42.37122" lon="1.24784">
        <ele>1694.4</ele>
        <time>2022-05-22 15:56:48</time>
      </trkpt>
      <trkpt lat="42.37123" lon="1.2478">
        <ele>1694.4</ele>
        <time>2022-05-22 15:56:49</time>
      </trkpt>
      <trkpt lat="42.37124" lon="1.24777">
        <ele>1694.6</ele>
        <time>2022-05-22 15:56:50</time>
      </trkpt>
      <trkpt lat="42.37126" lon="1.24774">
        <ele>1694.6</ele>
        <time>2022-05-22 15:56:51</time>
      </trkpt>
      <trkpt lat="42.37127" lon="1.24771">
        <ele>1694.8</ele>
        <time>2022-05-22 15:56:52</time>
      </trkpt>
      <trkpt lat="42.37128" lon="1.24768">
        <ele>1694.8</ele>
        <time>2022-05-22 15:56:53</time>
      </trkpt>
      <trkpt lat="42.3713" lon="1.24765">
        <ele>1695</ele>
        <time>2022-05-22 15:56:54</time>
      </trkpt>
      <trkpt lat="42.37131" lon="1.24762">
        <ele>1695</ele>
        <time>2022-05-22 15:56:55</time>
      </trkpt>
      <trkpt lat="42.37132" lon="1.24759">
        <ele>1695.2</ele>
        <time>2022-05-22 15:56:56</time>
      </trkpt>
      <trkpt lat="42.37134" lon="1.24755">
        <ele>1695.2</ele>
        <time>2022-05-22 15:56:57</time>
      </trkpt>
      <trkpt lat="42.37135" lon="1.24752">
        <ele>1695.4</ele>
        <time>2022-05-22 15:56:58</time>
      </trkpt>
      <trkpt lat="42.37136" lon="1.24749">
        <ele>1695.6</ele>
        <time>2022-05-22 15:56:59</time>
      </trkpt>
      <trkpt lat="42.37137" lon="1.24746">
        <ele>1695.6</ele>
        <time>2022-05-22 15:57:00</time>
      </trkpt>
      <trkpt lat="42.37139" lon="1.24742">
        <ele>1695.8</ele>
        <time>2022-05-22 15:57:01</time>
      </trkpt>
      <trkpt lat="42.3714" lon="1.24739">
        <ele>1696</ele>
        <time>2022-05-22 15:57:02</time>
      </trkpt>
      <trkpt lat="42.37141" lon="1.24736">
        <ele>1696.2</ele>
        <time>2022-05-22 15:57:03</time>
      </trkpt>
      <trkpt lat="42.37143" lon="1.24733">
        <ele>1696.2</ele>
        <time>2022-05-22 15:57:04</time>
      </trkpt>
      <trkpt lat="42.37144" lon="1.2473">
        <ele>1696.4</ele>
        <time>2022-05-22 15:57:05</time>
      </trkpt>
      <trkpt lat="42.37145" lon="1.24727">
        <ele>1696.6</ele>
        <time>2022-05-22 15:57:06</time>
      </trkpt>
      <trkpt lat="42.37146" lon="1.24724">
        <ele>1696.8</ele>
        <time>2022-05-22 15:57:07</time>
      </trkpt>
      <trkpt lat="42.37147" lon="1.24722">
        <ele>1697</ele>
        <time>2022-05-22 15:57:08</time>
      </trkpt>
      <trkpt lat="42.37148" lon="1.24718">
        <ele>1697.2</ele>
        <time>2022-05-22 15:57:09</time>
      </trkpt>
      <trkpt lat="42.3715" lon="1.24715">
        <ele>1697.4</ele>
        <time>2022-05-22 15:57:10</time>
      </trkpt>
      <trkpt lat="42.37151" lon="1.24713">
        <ele>1697.6</ele>
        <time>2022-05-22 15:57:11</time>
      </trkpt>
      <trkpt lat="42.37152" lon="1.2471">
        <ele>1697.8</ele>
        <time>2022-05-22 15:57:12</time>
      </trkpt>
      <trkpt lat="42.37153" lon="1.24706">
        <ele>1697.8</ele>
        <time>2022-05-22 15:57:13</time>
      </trkpt>
      <trkpt lat="42.37154" lon="1.24703">
        <ele>1698</ele>
        <time>2022-05-22 15:57:14</time>
      </trkpt>
      <trkpt lat="42.37155" lon="1.24701">
        <ele>1698.2</ele>
        <time>2022-05-22 15:57:15</time>
      </trkpt>
      <trkpt lat="42.37156" lon="1.24698">
        <ele>1698.4</ele>
        <time>2022-05-22 15:57:16</time>
      </trkpt>
      <trkpt lat="42.37157" lon="1.24694">
        <ele>1698.4</ele>
        <time>2022-05-22 15:57:17</time>
      </trkpt>
      <trkpt lat="42.37158" lon="1.24691">
        <ele>1698.6</ele>
        <time>2022-05-22 15:57:18</time>
      </trkpt>
      <trkpt lat="42.37159" lon="1.24689">
        <ele>1698.6</ele>
        <time>2022-05-22 15:57:19</time>
      </trkpt>
      <trkpt lat="42.3716" lon="1.24686">
        <ele>1698.8</ele>
        <time>2022-05-22 15:57:20</time>
      </trkpt>
      <trkpt lat="42.37162" lon="1.24683">
        <ele>1698.8</ele>
        <time>2022-05-22 15:57:21</time>
      </trkpt>
      <trkpt lat="42.37163" lon="1.2468">
        <ele>1698.8</ele>
        <time>2022-05-22 15:57:22</time>
      </trkpt>
      <trkpt lat="42.37164" lon="1.24677">
        <ele>1699</ele>
        <time>2022-05-22 15:57:23</time>
      </trkpt>
      <trkpt lat="42.37165" lon="1.24674">
        <ele>1699</ele>
        <time>2022-05-22 15:57:24</time>
      </trkpt>
      <trkpt lat="42.37166" lon="1.24671">
        <ele>1699.2</ele>
        <time>2022-05-22 15:57:25</time>
      </trkpt>
      <trkpt lat="42.37168" lon="1.24668">
        <ele>1699.2</ele>
        <time>2022-05-22 15:57:26</time>
      </trkpt>
      <trkpt lat="42.37168" lon="1.24665">
        <ele>1699.4</ele>
        <time>2022-05-22 15:57:27</time>
      </trkpt>
      <trkpt lat="42.3717" lon="1.24662">
        <ele>1699.6</ele>
        <time>2022-05-22 15:57:28</time>
      </trkpt>
      <trkpt lat="42.37171" lon="1.24659">
        <ele>1699.8</ele>
        <time>2022-05-22 15:57:29</time>
      </trkpt>
      <trkpt lat="42.37172" lon="1.24657">
        <ele>1700</ele>
        <time>2022-05-22 15:57:30</time>
      </trkpt>
      <trkpt lat="42.37173" lon="1.24654">
        <ele>1700</ele>
        <time>2022-05-22 15:57:31</time>
      </trkpt>
      <trkpt lat="42.37174" lon="1.2465">
        <ele>1700.2</ele>
        <time>2022-05-22 15:57:32</time>
      </trkpt>
      <trkpt lat="42.37175" lon="1.24647">
        <ele>1700.4</ele>
        <time>2022-05-22 15:57:33</time>
      </trkpt>
      <trkpt lat="42.37176" lon="1.24644">
        <ele>1700.6</ele>
        <time>2022-05-22 15:57:34</time>
      </trkpt>
      <trkpt lat="42.37177" lon="1.24641">
        <ele>1700.8</ele>
        <time>2022-05-22 15:57:35</time>
      </trkpt>
      <trkpt lat="42.37178" lon="1.24639">
        <ele>1701</ele>
        <time>2022-05-22 15:57:36</time>
      </trkpt>
      <trkpt lat="42.37179" lon="1.24635">
        <ele>1701</ele>
        <time>2022-05-22 15:57:37</time>
      </trkpt>
      <trkpt lat="42.3718" lon="1.24632">
        <ele>1701.2</ele>
        <time>2022-05-22 15:57:38</time>
      </trkpt>
      <trkpt lat="42.37181" lon="1.2463">
        <ele>1701.4</ele>
        <time>2022-05-22 15:57:39</time>
      </trkpt>
      <trkpt lat="42.37182" lon="1.24626">
        <ele>1701.4</ele>
        <time>2022-05-22 15:57:40</time>
      </trkpt>
      <trkpt lat="42.37183" lon="1.24623">
        <ele>1701.6</ele>
        <time>2022-05-22 15:57:41</time>
      </trkpt>
      <trkpt lat="42.37184" lon="1.2462">
        <ele>1701.8</ele>
        <time>2022-05-22 15:57:42</time>
      </trkpt>
      <trkpt lat="42.37185" lon="1.24617">
        <ele>1701.8</ele>
        <time>2022-05-22 15:57:43</time>
      </trkpt>
      <trkpt lat="42.37187" lon="1.24614">
        <ele>1702</ele>
        <time>2022-05-22 15:57:44</time>
      </trkpt>
      <trkpt lat="42.37188" lon="1.24611">
        <ele>1702.2</ele>
        <time>2022-05-22 15:57:45</time>
      </trkpt>
      <trkpt lat="42.37189" lon="1.24608">
        <ele>1702.2</ele>
        <time>2022-05-22 15:57:46</time>
      </trkpt>
      <trkpt lat="42.3719" lon="1.24605">
        <ele>1702.4</ele>
        <time>2022-05-22 15:57:47</time>
      </trkpt>
      <trkpt lat="42.37191" lon="1.24602">
        <ele>1702.4</ele>
        <time>2022-05-22 15:57:48</time>
      </trkpt>
      <trkpt lat="42.37193" lon="1.24598">
        <ele>1702.6</ele>
        <time>2022-05-22 15:57:49</time>
      </trkpt>
      <trkpt lat="42.37193" lon="1.24595">
        <ele>1702.8</ele>
        <time>2022-05-22 15:57:50</time>
      </trkpt>
      <trkpt lat="42.37194" lon="1.24592">
        <ele>1703</ele>
        <time>2022-05-22 15:57:51</time>
      </trkpt>
      <trkpt lat="42.37195" lon="1.24588">
        <ele>1703.2</ele>
        <time>2022-05-22 15:57:52</time>
      </trkpt>
      <trkpt lat="42.37196" lon="1.24585">
        <ele>1703.4</ele>
        <time>2022-05-22 15:57:53</time>
      </trkpt>
      <trkpt lat="42.37197" lon="1.24582">
        <ele>1703.6</ele>
        <time>2022-05-22 15:57:54</time>
      </trkpt>
      <trkpt lat="42.37198" lon="1.24579">
        <ele>1703.6</ele>
        <time>2022-05-22 15:57:55</time>
      </trkpt>
      <trkpt lat="42.37199" lon="1.24577">
        <ele>1703.8</ele>
        <time>2022-05-22 15:57:56</time>
      </trkpt>
      <trkpt lat="42.37199" lon="1.24574">
        <ele>1703.8</ele>
        <time>2022-05-22 15:57:57</time>
      </trkpt>
      <trkpt lat="42.37201" lon="1.24571">
        <ele>1704</ele>
        <time>2022-05-22 15:57:58</time>
      </trkpt>
      <trkpt lat="42.37201" lon="1.24568">
        <ele>1704</ele>
        <time>2022-05-22 15:57:59</time>
      </trkpt>
      <trkpt lat="42.37202" lon="1.24565">
        <ele>1704.2</ele>
        <time>2022-05-22 15:58:00</time>
      </trkpt>
      <trkpt lat="42.37203" lon="1.24562">
        <ele>1704.2</ele>
        <time>2022-05-22 15:58:01</time>
      </trkpt>
      <trkpt lat="42.37205" lon="1.24559">
        <ele>1704.4</ele>
        <time>2022-05-22 15:58:02</time>
      </trkpt>
      <trkpt lat="42.37206" lon="1.24557">
        <ele>1704.4</ele>
        <time>2022-05-22 15:58:03</time>
      </trkpt>
      <trkpt lat="42.37207" lon="1.24554">
        <ele>1704.6</ele>
        <time>2022-05-22 15:58:04</time>
      </trkpt>
      <trkpt lat="42.37208" lon="1.24551">
        <ele>1704.8</ele>
        <time>2022-05-22 15:58:05</time>
      </trkpt>
      <trkpt lat="42.37209" lon="1.24547">
        <ele>1704.8</ele>
        <time>2022-05-22 15:58:06</time>
      </trkpt>
      <trkpt lat="42.3721" lon="1.24545">
        <ele>1705</ele>
        <time>2022-05-22 15:58:07</time>
      </trkpt>
      <trkpt lat="42.37211" lon="1.24542">
        <ele>1705</ele>
        <time>2022-05-22 15:58:08</time>
      </trkpt>
      <trkpt lat="42.37212" lon="1.24539">
        <ele>1705.2</ele>
        <time>2022-05-22 15:58:09</time>
      </trkpt>
      <trkpt lat="42.37213" lon="1.24536">
        <ele>1705.4</ele>
        <time>2022-05-22 15:58:10</time>
      </trkpt>
      <trkpt lat="42.37214" lon="1.24533">
        <ele>1705.4</ele>
        <time>2022-05-22 15:58:11</time>
      </trkpt>
      <trkpt lat="42.37215" lon="1.2453">
        <ele>1705.6</ele>
        <time>2022-05-22 15:58:12</time>
      </trkpt>
      <trkpt lat="42.37216" lon="1.24527">
        <ele>1705.6</ele>
        <time>2022-05-22 15:58:13</time>
      </trkpt>
      <trkpt lat="42.37217" lon="1.24524">
        <ele>1705.6</ele>
        <time>2022-05-22 15:58:14</time>
      </trkpt>
      <trkpt lat="42.37219" lon="1.24521">
        <ele>1705.8</ele>
        <time>2022-05-22 15:58:15</time>
      </trkpt>
      <trkpt lat="42.3722" lon="1.24518">
        <ele>1706</ele>
        <time>2022-05-22 15:58:16</time>
      </trkpt>
      <trkpt lat="42.37221" lon="1.24515">
        <ele>1706</ele>
        <time>2022-05-22 15:58:17</time>
      </trkpt>
      <trkpt lat="42.37223" lon="1.24511">
        <ele>1706.2</ele>
        <time>2022-05-22 15:58:18</time>
      </trkpt>
      <trkpt lat="42.37225" lon="1.24508">
        <ele>1706.4</ele>
        <time>2022-05-22 15:58:19</time>
      </trkpt>
      <trkpt lat="42.37226" lon="1.24505">
        <ele>1706.6</ele>
        <time>2022-05-22 15:58:20</time>
      </trkpt>
      <trkpt lat="42.37227" lon="1.24501">
        <ele>1706.6</ele>
        <time>2022-05-22 15:58:21</time>
      </trkpt>
      <trkpt lat="42.37229" lon="1.24497">
        <ele>1706.8</ele>
        <time>2022-05-22 15:58:22</time>
      </trkpt>
      <trkpt lat="42.3723" lon="1.24494">
        <ele>1707</ele>
        <time>2022-05-22 15:58:23</time>
      </trkpt>
      <trkpt lat="42.37231" lon="1.24491">
        <ele>1707.2</ele>
        <time>2022-05-22 15:58:24</time>
      </trkpt>
      <trkpt lat="42.37232" lon="1.24487">
        <ele>1707.2</ele>
        <time>2022-05-22 15:58:25</time>
      </trkpt>
      <trkpt lat="42.37233" lon="1.24484">
        <ele>1707.4</ele>
        <time>2022-05-22 15:58:26</time>
      </trkpt>
      <trkpt lat="42.37234" lon="1.24481">
        <ele>1707.6</ele>
        <time>2022-05-22 15:58:27</time>
      </trkpt>
      <trkpt lat="42.37235" lon="1.24478">
        <ele>1707.6</ele>
        <time>2022-05-22 15:58:28</time>
      </trkpt>
      <trkpt lat="42.37236" lon="1.24474">
        <ele>1707.8</ele>
        <time>2022-05-22 15:58:29</time>
      </trkpt>
      <trkpt lat="42.37236" lon="1.24471">
        <ele>1707.8</ele>
        <time>2022-05-22 15:58:30</time>
      </trkpt>
      <trkpt lat="42.37237" lon="1.24467">
        <ele>1708</ele>
        <time>2022-05-22 15:58:31</time>
      </trkpt>
      <trkpt lat="42.37237" lon="1.24464">
        <ele>1708</ele>
        <time>2022-05-22 15:58:32</time>
      </trkpt>
      <trkpt lat="42.37238" lon="1.2446">
        <ele>1708</ele>
        <time>2022-05-22 15:58:33</time>
      </trkpt>
      <trkpt lat="42.37239" lon="1.24457">
        <ele>1708.2</ele>
        <time>2022-05-22 15:58:34</time>
      </trkpt>
      <trkpt lat="42.3724" lon="1.24454">
        <ele>1708.2</ele>
        <time>2022-05-22 15:58:35</time>
      </trkpt>
      <trkpt lat="42.3724" lon="1.2445">
        <ele>1708.4</ele>
        <time>2022-05-22 15:58:36</time>
      </trkpt>
      <trkpt lat="42.37241" lon="1.24447">
        <ele>1708.4</ele>
        <time>2022-05-22 15:58:37</time>
      </trkpt>
      <trkpt lat="42.37241" lon="1.24443">
        <ele>1708.6</ele>
        <time>2022-05-22 15:58:38</time>
      </trkpt>
      <trkpt lat="42.37241" lon="1.2444">
        <ele>1708.6</ele>
        <time>2022-05-22 15:58:39</time>
      </trkpt>
      <trkpt lat="42.37242" lon="1.24436">
        <ele>1708.8</ele>
        <time>2022-05-22 15:58:40</time>
      </trkpt>
      <trkpt lat="42.37242" lon="1.24433">
        <ele>1709</ele>
        <time>2022-05-22 15:58:41</time>
      </trkpt>
      <trkpt lat="42.37242" lon="1.24429">
        <ele>1709.2</ele>
        <time>2022-05-22 15:58:42</time>
      </trkpt>
      <trkpt lat="42.37243" lon="1.24426">
        <ele>1709.4</ele>
        <time>2022-05-22 15:58:43</time>
      </trkpt>
      <trkpt lat="42.37243" lon="1.24422">
        <ele>1709.6</ele>
        <time>2022-05-22 15:58:44</time>
      </trkpt>
      <trkpt lat="42.37244" lon="1.24418">
        <ele>1709.8</ele>
        <time>2022-05-22 15:58:45</time>
      </trkpt>
      <trkpt lat="42.37244" lon="1.24415">
        <ele>1709.8</ele>
        <time>2022-05-22 15:58:46</time>
      </trkpt>
      <trkpt lat="42.37244" lon="1.24411">
        <ele>1710</ele>
        <time>2022-05-22 15:58:47</time>
      </trkpt>
      <trkpt lat="42.37245" lon="1.24408">
        <ele>1710</ele>
        <time>2022-05-22 15:58:48</time>
      </trkpt>
      <trkpt lat="42.37245" lon="1.24404">
        <ele>1710.2</ele>
        <time>2022-05-22 15:58:49</time>
      </trkpt>
      <trkpt lat="42.37245" lon="1.244">
        <ele>1710.2</ele>
        <time>2022-05-22 15:58:50</time>
      </trkpt>
      <trkpt lat="42.37245" lon="1.24397">
        <ele>1710.4</ele>
        <time>2022-05-22 15:58:51</time>
      </trkpt>
      <trkpt lat="42.37244" lon="1.24394">
        <ele>1710.4</ele>
        <time>2022-05-22 15:58:52</time>
      </trkpt>
      <trkpt lat="42.37244" lon="1.2439">
        <ele>1710.6</ele>
        <time>2022-05-22 15:58:53</time>
      </trkpt>
      <trkpt lat="42.37244" lon="1.24388">
        <ele>1710.6</ele>
        <time>2022-05-22 15:58:54</time>
      </trkpt>
      <trkpt lat="42.37244" lon="1.24386">
        <ele>1710.6</ele>
        <time>2022-05-22 15:58:55</time>
      </trkpt>
      <trkpt lat="42.37244" lon="1.24382">
        <ele>1710.8</ele>
        <time>2022-05-22 15:58:56</time>
      </trkpt>
      <trkpt lat="42.37244" lon="1.24378">
        <ele>1710.8</ele>
        <time>2022-05-22 15:58:57</time>
      </trkpt>
      <trkpt lat="42.37243" lon="1.24374">
        <ele>1711</ele>
        <time>2022-05-22 15:58:58</time>
      </trkpt>
      <trkpt lat="42.37243" lon="1.2437">
        <ele>1711</ele>
        <time>2022-05-22 15:58:59</time>
      </trkpt>
      <trkpt lat="42.37242" lon="1.24367">
        <ele>1711</ele>
        <time>2022-05-22 15:59:00</time>
      </trkpt>
      <trkpt lat="42.37242" lon="1.24363">
        <ele>1711.2</ele>
        <time>2022-05-22 15:59:01</time>
      </trkpt>
      <trkpt lat="42.37241" lon="1.2436">
        <ele>1711.2</ele>
        <time>2022-05-22 15:59:02</time>
      </trkpt>
      <trkpt lat="42.37241" lon="1.24356">
        <ele>1711.2</ele>
        <time>2022-05-22 15:59:03</time>
      </trkpt>
      <trkpt lat="42.3724" lon="1.24353">
        <ele>1711.2</ele>
        <time>2022-05-22 15:59:04</time>
      </trkpt>
      <trkpt lat="42.37239" lon="1.2435">
        <ele>1711.4</ele>
        <time>2022-05-22 15:59:05</time>
      </trkpt>
      <trkpt lat="42.37238" lon="1.24346">
        <ele>1711.4</ele>
        <time>2022-05-22 15:59:06</time>
      </trkpt>
      <trkpt lat="42.37238" lon="1.24343">
        <ele>1711.4</ele>
        <time>2022-05-22 15:59:07</time>
      </trkpt>
      <trkpt lat="42.37237" lon="1.2434">
        <ele>1711.4</ele>
        <time>2022-05-22 15:59:08</time>
      </trkpt>
      <trkpt lat="42.37236" lon="1.24337">
        <ele>1711.6</ele>
        <time>2022-05-22 15:59:09</time>
      </trkpt>
      <trkpt lat="42.37235" lon="1.24333">
        <ele>1711.6</ele>
        <time>2022-05-22 15:59:10</time>
      </trkpt>
      <trkpt lat="42.37234" lon="1.2433">
        <ele>1711.6</ele>
        <time>2022-05-22 15:59:11</time>
      </trkpt>
      <trkpt lat="42.37233" lon="1.24327">
        <ele>1711.6</ele>
        <time>2022-05-22 15:59:12</time>
      </trkpt>
      <trkpt lat="42.37232" lon="1.24324">
        <ele>1711.8</ele>
        <time>2022-05-22 15:59:13</time>
      </trkpt>
      <trkpt lat="42.37231" lon="1.24321">
        <ele>1711.8</ele>
        <time>2022-05-22 15:59:14</time>
      </trkpt>
      <trkpt lat="42.37231" lon="1.24318">
        <ele>1712</ele>
        <time>2022-05-22 15:59:15</time>
      </trkpt>
      <trkpt lat="42.3723" lon="1.24316">
        <ele>1712.2</ele>
        <time>2022-05-22 15:59:16</time>
      </trkpt>
      <trkpt lat="42.37228" lon="1.24313">
        <ele>1712.4</ele>
        <time>2022-05-22 15:59:17</time>
      </trkpt>
      <trkpt lat="42.37227" lon="1.2431">
        <ele>1712.6</ele>
        <time>2022-05-22 15:59:18</time>
      </trkpt>
      <trkpt lat="42.37226" lon="1.24307">
        <ele>1712.8</ele>
        <time>2022-05-22 15:59:19</time>
      </trkpt>
      <trkpt lat="42.37224" lon="1.24304">
        <ele>1712.8</ele>
        <time>2022-05-22 15:59:20</time>
      </trkpt>
      <trkpt lat="42.37223" lon="1.243">
        <ele>1712.8</ele>
        <time>2022-05-22 15:59:21</time>
      </trkpt>
      <trkpt lat="42.37223" lon="1.24297">
        <ele>1713</ele>
        <time>2022-05-22 15:59:22</time>
      </trkpt>
      <trkpt lat="42.37222" lon="1.24294">
        <ele>1713</ele>
        <time>2022-05-22 15:59:23</time>
      </trkpt>
      <trkpt lat="42.37221" lon="1.24291">
        <ele>1713</ele>
        <time>2022-05-22 15:59:24</time>
      </trkpt>
      <trkpt lat="42.3722" lon="1.24288">
        <ele>1713.2</ele>
        <time>2022-05-22 15:59:25</time>
      </trkpt>
      <trkpt lat="42.37218" lon="1.24285">
        <ele>1713.2</ele>
        <time>2022-05-22 15:59:26</time>
      </trkpt>
      <trkpt lat="42.37217" lon="1.24282">
        <ele>1713.2</ele>
        <time>2022-05-22 15:59:27</time>
      </trkpt>
      <trkpt lat="42.37215" lon="1.24279">
        <ele>1713.4</ele>
        <time>2022-05-22 15:59:28</time>
      </trkpt>
      <trkpt lat="42.37214" lon="1.24276">
        <ele>1713.4</ele>
        <time>2022-05-22 15:59:29</time>
      </trkpt>
      <trkpt lat="42.37212" lon="1.24273">
        <ele>1713.4</ele>
        <time>2022-05-22 15:59:30</time>
      </trkpt>
      <trkpt lat="42.37211" lon="1.2427">
        <ele>1713.4</ele>
        <time>2022-05-22 15:59:31</time>
      </trkpt>
      <trkpt lat="42.37209" lon="1.24268">
        <ele>1713.6</ele>
        <time>2022-05-22 15:59:32</time>
      </trkpt>
      <trkpt lat="42.37207" lon="1.24265">
        <ele>1713.6</ele>
        <time>2022-05-22 15:59:33</time>
      </trkpt>
      <trkpt lat="42.37205" lon="1.24262">
        <ele>1713.8</ele>
        <time>2022-05-22 15:59:34</time>
      </trkpt>
      <trkpt lat="42.37203" lon="1.24259">
        <ele>1713.8</ele>
        <time>2022-05-22 15:59:35</time>
      </trkpt>
      <trkpt lat="42.37202" lon="1.24257">
        <ele>1714</ele>
        <time>2022-05-22 15:59:36</time>
      </trkpt>
      <trkpt lat="42.372" lon="1.24254">
        <ele>1714</ele>
        <time>2022-05-22 15:59:37</time>
      </trkpt>
      <trkpt lat="42.37198" lon="1.24251">
        <ele>1714.2</ele>
        <time>2022-05-22 15:59:38</time>
      </trkpt>
      <trkpt lat="42.37197" lon="1.24248">
        <ele>1714.4</ele>
        <time>2022-05-22 15:59:39</time>
      </trkpt>
      <trkpt lat="42.37195" lon="1.24246">
        <ele>1714.6</ele>
        <time>2022-05-22 15:59:40</time>
      </trkpt>
      <trkpt lat="42.37193" lon="1.24243">
        <ele>1714.6</ele>
        <time>2022-05-22 15:59:41</time>
      </trkpt>
      <trkpt lat="42.37191" lon="1.2424">
        <ele>1714.8</ele>
        <time>2022-05-22 15:59:42</time>
      </trkpt>
      <trkpt lat="42.37189" lon="1.24238">
        <ele>1715</ele>
        <time>2022-05-22 15:59:43</time>
      </trkpt>
      <trkpt lat="42.37187" lon="1.24235">
        <ele>1715.2</ele>
        <time>2022-05-22 15:59:44</time>
      </trkpt>
      <trkpt lat="42.37185" lon="1.24232">
        <ele>1715.2</ele>
        <time>2022-05-22 15:59:45</time>
      </trkpt>
      <trkpt lat="42.37183" lon="1.24229">
        <ele>1715.4</ele>
        <time>2022-05-22 15:59:46</time>
      </trkpt>
      <trkpt lat="42.37182" lon="1.24226">
        <ele>1715.4</ele>
        <time>2022-05-22 15:59:47</time>
      </trkpt>
      <trkpt lat="42.3718" lon="1.24223">
        <ele>1715.4</ele>
        <time>2022-05-22 15:59:48</time>
      </trkpt>
      <trkpt lat="42.37178" lon="1.2422">
        <ele>1715.6</ele>
        <time>2022-05-22 15:59:49</time>
      </trkpt>
      <trkpt lat="42.37177" lon="1.24217">
        <ele>1715.6</ele>
        <time>2022-05-22 15:59:50</time>
      </trkpt>
      <trkpt lat="42.37175" lon="1.24214">
        <ele>1715.8</ele>
        <time>2022-05-22 15:59:51</time>
      </trkpt>
      <trkpt lat="42.37174" lon="1.24211">
        <ele>1715.8</ele>
        <time>2022-05-22 15:59:52</time>
      </trkpt>
      <trkpt lat="42.37172" lon="1.24209">
        <ele>1715.8</ele>
        <time>2022-05-22 15:59:53</time>
      </trkpt>
      <trkpt lat="42.3717" lon="1.24206">
        <ele>1715.8</ele>
        <time>2022-05-22 15:59:54</time>
      </trkpt>
      <trkpt lat="42.37169" lon="1.24203">
        <ele>1716</ele>
        <time>2022-05-22 15:59:55</time>
      </trkpt>
      <trkpt lat="42.37167" lon="1.242">
        <ele>1716</ele>
        <time>2022-05-22 15:59:56</time>
      </trkpt>
      <trkpt lat="42.37166" lon="1.24198">
        <ele>1716</ele>
        <time>2022-05-22 15:59:57</time>
      </trkpt>
      <trkpt lat="42.37164" lon="1.24195">
        <ele>1716.2</ele>
        <time>2022-05-22 15:59:58</time>
      </trkpt>
      <trkpt lat="42.37163" lon="1.24192">
        <ele>1716.2</ele>
        <time>2022-05-22 15:59:59</time>
      </trkpt>
      <trkpt lat="42.37161" lon="1.2419">
        <ele>1716.4</ele>
        <time>2022-05-22 16:00:00</time>
      </trkpt>
      <trkpt lat="42.3716" lon="1.24187">
        <ele>1716.4</ele>
        <time>2022-05-22 16:00:01</time>
      </trkpt>
      <trkpt lat="42.37158" lon="1.24184">
        <ele>1716.4</ele>
        <time>2022-05-22 16:00:02</time>
      </trkpt>
      <trkpt lat="42.37157" lon="1.24182">
        <ele>1716.4</ele>
        <time>2022-05-22 16:00:03</time>
      </trkpt>
      <trkpt lat="42.37156" lon="1.24179">
        <ele>1716.6</ele>
        <time>2022-05-22 16:00:04</time>
      </trkpt>
      <trkpt lat="42.37154" lon="1.24176">
        <ele>1716.6</ele>
        <time>2022-05-22 16:00:05</time>
      </trkpt>
      <trkpt lat="42.37153" lon="1.24173">
        <ele>1716.6</ele>
        <time>2022-05-22 16:00:06</time>
      </trkpt>
      <trkpt lat="42.37151" lon="1.24171">
        <ele>1716.6</ele>
        <time>2022-05-22 16:00:07</time>
      </trkpt>
      <trkpt lat="42.3715" lon="1.24168">
        <ele>1716.8</ele>
        <time>2022-05-22 16:00:08</time>
      </trkpt>
      <trkpt lat="42.37149" lon="1.24165">
        <ele>1716.8</ele>
        <time>2022-05-22 16:00:09</time>
      </trkpt>
      <trkpt lat="42.37147" lon="1.24162">
        <ele>1716.8</ele>
        <time>2022-05-22 16:00:10</time>
      </trkpt>
      <trkpt lat="42.37146" lon="1.24159">
        <ele>1716.8</ele>
        <time>2022-05-22 16:00:11</time>
      </trkpt>
      <trkpt lat="42.37145" lon="1.24156">
        <ele>1717</ele>
        <time>2022-05-22 16:00:12</time>
      </trkpt>
      <trkpt lat="42.37144" lon="1.24152">
        <ele>1717</ele>
        <time>2022-05-22 16:00:13</time>
      </trkpt>
      <trkpt lat="42.37142" lon="1.24149">
        <ele>1717</ele>
        <time>2022-05-22 16:00:14</time>
      </trkpt>
      <trkpt lat="42.37141" lon="1.24146">
        <ele>1717</ele>
        <time>2022-05-22 16:00:15</time>
      </trkpt>
      <trkpt lat="42.3714" lon="1.24143">
        <ele>1717</ele>
        <time>2022-05-22 16:00:16</time>
      </trkpt>
      <trkpt lat="42.37139" lon="1.2414">
        <ele>1717.2</ele>
        <time>2022-05-22 16:00:17</time>
      </trkpt>
      <trkpt lat="42.37138" lon="1.24137">
        <ele>1717.4</ele>
        <time>2022-05-22 16:00:18</time>
      </trkpt>
      <trkpt lat="42.37137" lon="1.24134">
        <ele>1717.4</ele>
        <time>2022-05-22 16:00:19</time>
      </trkpt>
      <trkpt lat="42.37136" lon="1.2413">
        <ele>1717.6</ele>
        <time>2022-05-22 16:00:20</time>
      </trkpt>
      <trkpt lat="42.37136" lon="1.24127">
        <ele>1717.6</ele>
        <time>2022-05-22 16:00:21</time>
      </trkpt>
      <trkpt lat="42.37135" lon="1.24124">
        <ele>1717.6</ele>
        <time>2022-05-22 16:00:22</time>
      </trkpt>
      <trkpt lat="42.37134" lon="1.24121">
        <ele>1717.8</ele>
        <time>2022-05-22 16:00:23</time>
      </trkpt>
      <trkpt lat="42.37133" lon="1.24117">
        <ele>1717.8</ele>
        <time>2022-05-22 16:00:24</time>
      </trkpt>
      <trkpt lat="42.37133" lon="1.24114">
        <ele>1718</ele>
        <time>2022-05-22 16:00:25</time>
      </trkpt>
      <trkpt lat="42.37132" lon="1.2411">
        <ele>1718</ele>
        <time>2022-05-22 16:00:26</time>
      </trkpt>
      <trkpt lat="42.37131" lon="1.24107">
        <ele>1718</ele>
        <time>2022-05-22 16:00:27</time>
      </trkpt>
      <trkpt lat="42.3713" lon="1.24104">
        <ele>1718.2</ele>
        <time>2022-05-22 16:00:28</time>
      </trkpt>
      <trkpt lat="42.37129" lon="1.241">
        <ele>1718.2</ele>
        <time>2022-05-22 16:00:29</time>
      </trkpt>
      <trkpt lat="42.37129" lon="1.24096">
        <ele>1718.4</ele>
        <time>2022-05-22 16:00:30</time>
      </trkpt>
      <trkpt lat="42.3713" lon="1.24091">
        <ele>1718.4</ele>
        <time>2022-05-22 16:00:31</time>
      </trkpt>
      <trkpt lat="42.3713" lon="1.24086">
        <ele>1718.6</ele>
        <time>2022-05-22 16:00:32</time>
      </trkpt>
      <trkpt lat="42.37129" lon="1.24082">
        <ele>1718.6</ele>
        <time>2022-05-22 16:00:33</time>
      </trkpt>
      <trkpt lat="42.37128" lon="1.24079">
        <ele>1718.6</ele>
        <time>2022-05-22 16:00:34</time>
      </trkpt>
      <trkpt lat="42.37127" lon="1.24074">
        <ele>1718.6</ele>
        <time>2022-05-22 16:00:35</time>
      </trkpt>
      <trkpt lat="42.37127" lon="1.2407">
        <ele>1718.8</ele>
        <time>2022-05-22 16:00:36</time>
      </trkpt>
      <trkpt lat="42.37126" lon="1.24066">
        <ele>1718.8</ele>
        <time>2022-05-22 16:00:37</time>
      </trkpt>
      <trkpt lat="42.37124" lon="1.24062">
        <ele>1718.8</ele>
        <time>2022-05-22 16:00:38</time>
      </trkpt>
      <trkpt lat="42.37123" lon="1.24057">
        <ele>1719</ele>
        <time>2022-05-22 16:00:39</time>
      </trkpt>
      <trkpt lat="42.37122" lon="1.24052">
        <ele>1719.2</ele>
        <time>2022-05-22 16:00:40</time>
      </trkpt>
      <trkpt lat="42.37121" lon="1.24047">
        <ele>1719.2</ele>
        <time>2022-05-22 16:00:41</time>
      </trkpt>
      <trkpt lat="42.3712" lon="1.24041">
        <ele>1719.4</ele>
        <time>2022-05-22 16:00:42</time>
      </trkpt>
      <trkpt lat="42.37119" lon="1.24036">
        <ele>1719.4</ele>
        <time>2022-05-22 16:00:43</time>
      </trkpt>
      <trkpt lat="42.37119" lon="1.24031">
        <ele>1719.6</ele>
        <time>2022-05-22 16:00:44</time>
      </trkpt>
      <trkpt lat="42.37118" lon="1.24026">
        <ele>1719.8</ele>
        <time>2022-05-22 16:00:45</time>
      </trkpt>
      <trkpt lat="42.37117" lon="1.24021">
        <ele>1720</ele>
        <time>2022-05-22 16:00:46</time>
      </trkpt>
      <trkpt lat="42.37116" lon="1.24016">
        <ele>1720.2</ele>
        <time>2022-05-22 16:00:47</time>
      </trkpt>
      <trkpt lat="42.37116" lon="1.24011">
        <ele>1720.4</ele>
        <time>2022-05-22 16:00:48</time>
      </trkpt>
      <trkpt lat="42.37115" lon="1.24006">
        <ele>1720.4</ele>
        <time>2022-05-22 16:00:49</time>
      </trkpt>
      <trkpt lat="42.37115" lon="1.24002">
        <ele>1720.6</ele>
        <time>2022-05-22 16:00:50</time>
      </trkpt>
      <trkpt lat="42.37114" lon="1.23997">
        <ele>1721</ele>
        <time>2022-05-22 16:00:51</time>
      </trkpt>
      <trkpt lat="42.37114" lon="1.23993">
        <ele>1721</ele>
        <time>2022-05-22 16:00:52</time>
      </trkpt>
      <trkpt lat="42.37113" lon="1.23989">
        <ele>1721.2</ele>
        <time>2022-05-22 16:00:53</time>
      </trkpt>
      <trkpt lat="42.37112" lon="1.23984">
        <ele>1721.2</ele>
        <time>2022-05-22 16:00:54</time>
      </trkpt>
      <trkpt lat="42.37111" lon="1.2398">
        <ele>1721.2</ele>
        <time>2022-05-22 16:00:55</time>
      </trkpt>
      <trkpt lat="42.3711" lon="1.23976">
        <ele>1721.4</ele>
        <time>2022-05-22 16:00:56</time>
      </trkpt>
      <trkpt lat="42.3711" lon="1.23972">
        <ele>1721.4</ele>
        <time>2022-05-22 16:00:57</time>
      </trkpt>
      <trkpt lat="42.3711" lon="1.23968">
        <ele>1721.6</ele>
        <time>2022-05-22 16:00:58</time>
      </trkpt>
      <trkpt lat="42.37109" lon="1.23964">
        <ele>1721.8</ele>
        <time>2022-05-22 16:00:59</time>
      </trkpt>
      <trkpt lat="42.37108" lon="1.2396">
        <ele>1722</ele>
        <time>2022-05-22 16:01:00</time>
      </trkpt>
      <trkpt lat="42.37108" lon="1.23957">
        <ele>1722</ele>
        <time>2022-05-22 16:01:01</time>
      </trkpt>
      <trkpt lat="42.37107" lon="1.23953">
        <ele>1722.2</ele>
        <time>2022-05-22 16:01:02</time>
      </trkpt>
      <trkpt lat="42.37106" lon="1.23949">
        <ele>1722.4</ele>
        <time>2022-05-22 16:01:03</time>
      </trkpt>
      <trkpt lat="42.37105" lon="1.23946">
        <ele>1722.6</ele>
        <time>2022-05-22 16:01:04</time>
      </trkpt>
      <trkpt lat="42.37104" lon="1.23942">
        <ele>1722.8</ele>
        <time>2022-05-22 16:01:05</time>
      </trkpt>
      <trkpt lat="42.37103" lon="1.23938">
        <ele>1722.8</ele>
        <time>2022-05-22 16:01:06</time>
      </trkpt>
      <trkpt lat="42.37102" lon="1.23935">
        <ele>1723</ele>
        <time>2022-05-22 16:01:07</time>
      </trkpt>
      <trkpt lat="42.37101" lon="1.23931">
        <ele>1723</ele>
        <time>2022-05-22 16:01:08</time>
      </trkpt>
      <trkpt lat="42.37101" lon="1.23927">
        <ele>1723.2</ele>
        <time>2022-05-22 16:01:09</time>
      </trkpt>
      <trkpt lat="42.371" lon="1.23923">
        <ele>1723.2</ele>
        <time>2022-05-22 16:01:10</time>
      </trkpt>
      <trkpt lat="42.37099" lon="1.2392">
        <ele>1723.4</ele>
        <time>2022-05-22 16:01:11</time>
      </trkpt>
      <trkpt lat="42.37098" lon="1.23916">
        <ele>1723.4</ele>
        <time>2022-05-22 16:01:12</time>
      </trkpt>
      <trkpt lat="42.37096" lon="1.23912">
        <ele>1723.4</ele>
        <time>2022-05-22 16:01:13</time>
      </trkpt>
      <trkpt lat="42.37095" lon="1.23908">
        <ele>1723.4</ele>
        <time>2022-05-22 16:01:14</time>
      </trkpt>
      <trkpt lat="42.37094" lon="1.23905">
        <ele>1723.6</ele>
        <time>2022-05-22 16:01:15</time>
      </trkpt>
      <trkpt lat="42.37093" lon="1.23901">
        <ele>1723.6</ele>
        <time>2022-05-22 16:01:16</time>
      </trkpt>
      <trkpt lat="42.37092" lon="1.23898">
        <ele>1723.8</ele>
        <time>2022-05-22 16:01:17</time>
      </trkpt>
      <trkpt lat="42.3709" lon="1.23894">
        <ele>1723.8</ele>
        <time>2022-05-22 16:01:18</time>
      </trkpt>
      <trkpt lat="42.37089" lon="1.2389">
        <ele>1724.2</ele>
        <time>2022-05-22 16:01:19</time>
      </trkpt>
      <trkpt lat="42.37087" lon="1.23887">
        <ele>1724.4</ele>
        <time>2022-05-22 16:01:20</time>
      </trkpt>
      <trkpt lat="42.37086" lon="1.23883">
        <ele>1724.6</ele>
        <time>2022-05-22 16:01:21</time>
      </trkpt>
      <trkpt lat="42.37085" lon="1.2388">
        <ele>1724.6</ele>
        <time>2022-05-22 16:01:22</time>
      </trkpt>
      <trkpt lat="42.37083" lon="1.23876">
        <ele>1724.8</ele>
        <time>2022-05-22 16:01:23</time>
      </trkpt>
      <trkpt lat="42.37082" lon="1.23872">
        <ele>1725</ele>
        <time>2022-05-22 16:01:24</time>
      </trkpt>
      <trkpt lat="42.3708" lon="1.23869">
        <ele>1725</ele>
        <time>2022-05-22 16:01:25</time>
      </trkpt>
      <trkpt lat="42.37079" lon="1.23865">
        <ele>1725.2</ele>
        <time>2022-05-22 16:01:26</time>
      </trkpt>
      <trkpt lat="42.37077" lon="1.23862">
        <ele>1725.2</ele>
        <time>2022-05-22 16:01:27</time>
      </trkpt>
      <trkpt lat="42.37075" lon="1.23858">
        <ele>1725.2</ele>
        <time>2022-05-22 16:01:28</time>
      </trkpt>
      <trkpt lat="42.37074" lon="1.23854">
        <ele>1725.2</ele>
        <time>2022-05-22 16:01:29</time>
      </trkpt>
      <trkpt lat="42.37073" lon="1.23851">
        <ele>1725.2</ele>
        <time>2022-05-22 16:01:30</time>
      </trkpt>
      <trkpt lat="42.37072" lon="1.23849">
        <ele>1725.2</ele>
        <time>2022-05-22 16:01:31</time>
      </trkpt>
      <trkpt lat="42.3707" lon="1.23844">
        <ele>1725.2</ele>
        <time>2022-05-22 16:01:32</time>
      </trkpt>
      <trkpt lat="42.37068" lon="1.23841">
        <ele>1725.2</ele>
        <time>2022-05-22 16:01:33</time>
      </trkpt>
      <trkpt lat="42.37067" lon="1.23837">
        <ele>1725.2</ele>
        <time>2022-05-22 16:01:34</time>
      </trkpt>
      <trkpt lat="42.37066" lon="1.23834">
        <ele>1725.2</ele>
        <time>2022-05-22 16:01:35</time>
      </trkpt>
      <trkpt lat="42.37064" lon="1.23831">
        <ele>1725.2</ele>
        <time>2022-05-22 16:01:36</time>
      </trkpt>
      <trkpt lat="42.37063" lon="1.23827">
        <ele>1725.2</ele>
        <time>2022-05-22 16:01:37</time>
      </trkpt>
      <trkpt lat="42.37061" lon="1.23823">
        <ele>1725.2</ele>
        <time>2022-05-22 16:01:38</time>
      </trkpt>
      <trkpt lat="42.3706" lon="1.2382">
        <ele>1725.2</ele>
        <time>2022-05-22 16:01:39</time>
      </trkpt>
      <trkpt lat="42.37058" lon="1.23816">
        <ele>1725.4</ele>
        <time>2022-05-22 16:01:40</time>
      </trkpt>
      <trkpt lat="42.37057" lon="1.23813">
        <ele>1725.4</ele>
        <time>2022-05-22 16:01:41</time>
      </trkpt>
      <trkpt lat="42.37056" lon="1.2381">
        <ele>1725.4</ele>
        <time>2022-05-22 16:01:42</time>
      </trkpt>
      <trkpt lat="42.37055" lon="1.23808">
        <ele>1725.6</ele>
        <time>2022-05-22 16:01:43</time>
      </trkpt>
      <trkpt lat="42.37053" lon="1.23803">
        <ele>1725.6</ele>
        <time>2022-05-22 16:01:44</time>
      </trkpt>
      <trkpt lat="42.37052" lon="1.238">
        <ele>1725.6</ele>
        <time>2022-05-22 16:01:45</time>
      </trkpt>
      <trkpt lat="42.37051" lon="1.23797">
        <ele>1725.8</ele>
        <time>2022-05-22 16:01:46</time>
      </trkpt>
      <trkpt lat="42.37049" lon="1.23794">
        <ele>1725.8</ele>
        <time>2022-05-22 16:01:47</time>
      </trkpt>
      <trkpt lat="42.37047" lon="1.23789">
        <ele>1725.8</ele>
        <time>2022-05-22 16:01:48</time>
      </trkpt>
      <trkpt lat="42.37046" lon="1.23785">
        <ele>1725.8</ele>
        <time>2022-05-22 16:01:49</time>
      </trkpt>
      <trkpt lat="42.37044" lon="1.23782">
        <ele>1726</ele>
        <time>2022-05-22 16:01:50</time>
      </trkpt>
      <trkpt lat="42.37043" lon="1.23779">
        <ele>1726</ele>
        <time>2022-05-22 16:01:51</time>
      </trkpt>
      <trkpt lat="42.3704" lon="1.23775">
        <ele>1726</ele>
        <time>2022-05-22 16:01:52</time>
      </trkpt>
      <trkpt lat="42.37039" lon="1.23771">
        <ele>1726.2</ele>
        <time>2022-05-22 16:01:53</time>
      </trkpt>
      <trkpt lat="42.37038" lon="1.23767">
        <ele>1726.2</ele>
        <time>2022-05-22 16:01:54</time>
      </trkpt>
      <trkpt lat="42.37038" lon="1.23764">
        <ele>1726.2</ele>
        <time>2022-05-22 16:01:55</time>
      </trkpt>
      <trkpt lat="42.37037" lon="1.2376">
        <ele>1726</ele>
        <time>2022-05-22 16:01:56</time>
      </trkpt>
      <trkpt lat="42.37036" lon="1.23756">
        <ele>1726.2</ele>
        <time>2022-05-22 16:01:57</time>
      </trkpt>
      <trkpt lat="42.37035" lon="1.23752">
        <ele>1726.2</ele>
        <time>2022-05-22 16:01:58</time>
      </trkpt>
      <trkpt lat="42.37034" lon="1.23749">
        <ele>1726.2</ele>
        <time>2022-05-22 16:01:59</time>
      </trkpt>
      <trkpt lat="42.37033" lon="1.23745">
        <ele>1726.2</ele>
        <time>2022-05-22 16:02:00</time>
      </trkpt>
      <trkpt lat="42.37033" lon="1.23741">
        <ele>1726.4</ele>
        <time>2022-05-22 16:02:01</time>
      </trkpt>
      <trkpt lat="42.37032" lon="1.23737">
        <ele>1726.4</ele>
        <time>2022-05-22 16:02:02</time>
      </trkpt>
      <trkpt lat="42.37031" lon="1.23733">
        <ele>1726.4</ele>
        <time>2022-05-22 16:02:03</time>
      </trkpt>
      <trkpt lat="42.37031" lon="1.2373">
        <ele>1726.6</ele>
        <time>2022-05-22 16:02:04</time>
      </trkpt>
      <trkpt lat="42.3703" lon="1.23726">
        <ele>1726.6</ele>
        <time>2022-05-22 16:02:05</time>
      </trkpt>
      <trkpt lat="42.37029" lon="1.23722">
        <ele>1726.6</ele>
        <time>2022-05-22 16:02:06</time>
      </trkpt>
      <trkpt lat="42.37028" lon="1.23718">
        <ele>1726.6</ele>
        <time>2022-05-22 16:02:07</time>
      </trkpt>
      <trkpt lat="42.37027" lon="1.23714">
        <ele>1726.8</ele>
        <time>2022-05-22 16:02:08</time>
      </trkpt>
      <trkpt lat="42.37026" lon="1.23709">
        <ele>1726.8</ele>
        <time>2022-05-22 16:02:09</time>
      </trkpt>
      <trkpt lat="42.37025" lon="1.23705">
        <ele>1727</ele>
        <time>2022-05-22 16:02:10</time>
      </trkpt>
      <trkpt lat="42.37025" lon="1.23701">
        <ele>1727.2</ele>
        <time>2022-05-22 16:02:11</time>
      </trkpt>
      <trkpt lat="42.37024" lon="1.23697">
        <ele>1727.4</ele>
        <time>2022-05-22 16:02:12</time>
      </trkpt>
      <trkpt lat="42.37024" lon="1.23693">
        <ele>1727.4</ele>
        <time>2022-05-22 16:02:13</time>
      </trkpt>
      <trkpt lat="42.37023" lon="1.23688">
        <ele>1727.6</ele>
        <time>2022-05-22 16:02:14</time>
      </trkpt>
      <trkpt lat="42.37023" lon="1.23684">
        <ele>1727.8</ele>
        <time>2022-05-22 16:02:15</time>
      </trkpt>
      <trkpt lat="42.37022" lon="1.23679">
        <ele>1727.8</ele>
        <time>2022-05-22 16:02:16</time>
      </trkpt>
      <trkpt lat="42.37022" lon="1.23675">
        <ele>1728</ele>
        <time>2022-05-22 16:02:17</time>
      </trkpt>
      <trkpt lat="42.37021" lon="1.23671">
        <ele>1728</ele>
        <time>2022-05-22 16:02:18</time>
      </trkpt>
      <trkpt lat="42.3702" lon="1.23667">
        <ele>1728.2</ele>
        <time>2022-05-22 16:02:19</time>
      </trkpt>
      <trkpt lat="42.37019" lon="1.23663">
        <ele>1728.4</ele>
        <time>2022-05-22 16:02:20</time>
      </trkpt>
      <trkpt lat="42.37019" lon="1.23659">
        <ele>1728.6</ele>
        <time>2022-05-22 16:02:21</time>
      </trkpt>
      <trkpt lat="42.37019" lon="1.23655">
        <ele>1728.6</ele>
        <time>2022-05-22 16:02:22</time>
      </trkpt>
      <trkpt lat="42.37019" lon="1.23651">
        <ele>1728.8</ele>
        <time>2022-05-22 16:02:23</time>
      </trkpt>
      <trkpt lat="42.3702" lon="1.23646">
        <ele>1728.8</ele>
        <time>2022-05-22 16:02:24</time>
      </trkpt>
      <trkpt lat="42.3702" lon="1.2364">
        <ele>1728.8</ele>
        <time>2022-05-22 16:02:25</time>
      </trkpt>
      <trkpt lat="42.3702" lon="1.23635">
        <ele>1728.6</ele>
        <time>2022-05-22 16:02:26</time>
      </trkpt>
      <trkpt lat="42.3702" lon="1.23628">
        <ele>1728.6</ele>
        <time>2022-05-22 16:02:27</time>
      </trkpt>
      <trkpt lat="42.3702" lon="1.23622">
        <ele>1728.4</ele>
        <time>2022-05-22 16:02:28</time>
      </trkpt>
      <trkpt lat="42.3702" lon="1.23614">
        <ele>1728.2</ele>
        <time>2022-05-22 16:02:29</time>
      </trkpt>
      <trkpt lat="42.37021" lon="1.23606">
        <ele>1727.8</ele>
        <time>2022-05-22 16:02:30</time>
      </trkpt>
      <trkpt lat="42.37022" lon="1.23597">
        <ele>1727.2</ele>
        <time>2022-05-22 16:02:31</time>
      </trkpt>
      <trkpt lat="42.37022" lon="1.23589">
        <ele>1726.8</ele>
        <time>2022-05-22 16:02:32</time>
      </trkpt>
      <trkpt lat="42.37023" lon="1.23579">
        <ele>1726</ele>
        <time>2022-05-22 16:02:33</time>
      </trkpt>
      <trkpt lat="42.37024" lon="1.23569">
        <ele>1725.4</ele>
        <time>2022-05-22 16:02:34</time>
      </trkpt>
      <trkpt lat="42.37025" lon="1.23558">
        <ele>1724.6</ele>
        <time>2022-05-22 16:02:35</time>
      </trkpt>
      <trkpt lat="42.37026" lon="1.23548">
        <ele>1723.6</ele>
        <time>2022-05-22 16:02:36</time>
      </trkpt>
      <trkpt lat="42.37027" lon="1.23537">
        <ele>1722.8</ele>
        <time>2022-05-22 16:02:37</time>
      </trkpt>
      <trkpt lat="42.37028" lon="1.23526">
        <ele>1722</ele>
        <time>2022-05-22 16:02:38</time>
      </trkpt>
      <trkpt lat="42.3703" lon="1.23515">
        <ele>1721.4</ele>
        <time>2022-05-22 16:02:39</time>
      </trkpt>
      <trkpt lat="42.37033" lon="1.23503">
        <ele>1720.8</ele>
        <time>2022-05-22 16:02:40</time>
      </trkpt>
      <trkpt lat="42.37035" lon="1.23491">
        <ele>1720.2</ele>
        <time>2022-05-22 16:02:41</time>
      </trkpt>
      <trkpt lat="42.37039" lon="1.23478">
        <ele>1719.4</ele>
        <time>2022-05-22 16:02:42</time>
      </trkpt>
      <trkpt lat="42.37042" lon="1.23466">
        <ele>1718.8</ele>
        <time>2022-05-22 16:02:43</time>
      </trkpt>
      <trkpt lat="42.37046" lon="1.23454">
        <ele>1718</ele>
        <time>2022-05-22 16:02:44</time>
      </trkpt>
      <trkpt lat="42.3705" lon="1.23441">
        <ele>1717.2</ele>
        <time>2022-05-22 16:02:45</time>
      </trkpt>
      <trkpt lat="42.37055" lon="1.23428">
        <ele>1716.4</ele>
        <time>2022-05-22 16:02:46</time>
      </trkpt>
      <trkpt lat="42.3706" lon="1.23416">
        <ele>1715.4</ele>
        <time>2022-05-22 16:02:47</time>
      </trkpt>
      <trkpt lat="42.37066" lon="1.23404">
        <ele>1714.8</ele>
        <time>2022-05-22 16:02:48</time>
      </trkpt>
      <trkpt lat="42.37072" lon="1.23393">
        <ele>1714.2</ele>
        <time>2022-05-22 16:02:49</time>
      </trkpt>
      <trkpt lat="42.3708" lon="1.23382">
        <ele>1713.4</ele>
        <time>2022-05-22 16:02:50</time>
      </trkpt>
      <trkpt lat="42.3709" lon="1.23374">
        <ele>1712.6</ele>
        <time>2022-05-22 16:02:51</time>
      </trkpt>
      <trkpt lat="42.37101" lon="1.23367">
        <ele>1711.8</ele>
        <time>2022-05-22 16:02:52</time>
      </trkpt>
      <trkpt lat="42.37112" lon="1.23361">
        <ele>1710.6</ele>
        <time>2022-05-22 16:02:53</time>
      </trkpt>
      <trkpt lat="42.37123" lon="1.23357">
        <ele>1709.6</ele>
        <time>2022-05-22 16:02:54</time>
      </trkpt>
      <trkpt lat="42.37135" lon="1.23353">
        <ele>1708.8</ele>
        <time>2022-05-22 16:02:55</time>
      </trkpt>
      <trkpt lat="42.37146" lon="1.23349">
        <ele>1708</ele>
        <time>2022-05-22 16:02:56</time>
      </trkpt>
      <trkpt lat="42.37158" lon="1.23344">
        <ele>1707.2</ele>
        <time>2022-05-22 16:02:57</time>
      </trkpt>
      <trkpt lat="42.37169" lon="1.2334">
        <ele>1706.4</ele>
        <time>2022-05-22 16:02:58</time>
      </trkpt>
      <trkpt lat="42.37181" lon="1.23335">
        <ele>1705.8</ele>
        <time>2022-05-22 16:02:59</time>
      </trkpt>
      <trkpt lat="42.37192" lon="1.23329">
        <ele>1705</ele>
        <time>2022-05-22 16:03:00</time>
      </trkpt>
      <trkpt lat="42.37204" lon="1.2332">
        <ele>1704</ele>
        <time>2022-05-22 16:03:01</time>
      </trkpt>
      <trkpt lat="42.37215" lon="1.2331">
        <ele>1703.2</ele>
        <time>2022-05-22 16:03:02</time>
      </trkpt>
      <trkpt lat="42.37225" lon="1.23299">
        <ele>1702.4</ele>
        <time>2022-05-22 16:03:03</time>
      </trkpt>
      <trkpt lat="42.37235" lon="1.23287">
        <ele>1701</ele>
        <time>2022-05-22 16:03:04</time>
      </trkpt>
      <trkpt lat="42.37244" lon="1.23273">
        <ele>1700.2</ele>
        <time>2022-05-22 16:03:05</time>
      </trkpt>
      <trkpt lat="42.37252" lon="1.23258">
        <ele>1699</ele>
        <time>2022-05-22 16:03:06</time>
      </trkpt>
      <trkpt lat="42.3726" lon="1.23244">
        <ele>1698</ele>
        <time>2022-05-22 16:03:07</time>
      </trkpt>
      <trkpt lat="42.37267" lon="1.23229">
        <ele>1697</ele>
        <time>2022-05-22 16:03:08</time>
      </trkpt>
      <trkpt lat="42.37275" lon="1.23214">
        <ele>1696</ele>
        <time>2022-05-22 16:03:09</time>
      </trkpt>
      <trkpt lat="42.37282" lon="1.23199">
        <ele>1695</ele>
        <time>2022-05-22 16:03:10</time>
      </trkpt>
      <trkpt lat="42.3729" lon="1.23185">
        <ele>1694</ele>
        <time>2022-05-22 16:03:11</time>
      </trkpt>
      <trkpt lat="42.37298" lon="1.23171">
        <ele>1693.2</ele>
        <time>2022-05-22 16:03:12</time>
      </trkpt>
      <trkpt lat="42.37306" lon="1.23156">
        <ele>1692.4</ele>
        <time>2022-05-22 16:03:13</time>
      </trkpt>
      <trkpt lat="42.37314" lon="1.23141">
        <ele>1691.6</ele>
        <time>2022-05-22 16:03:14</time>
      </trkpt>
      <trkpt lat="42.37323" lon="1.23125">
        <ele>1690.6</ele>
        <time>2022-05-22 16:03:15</time>
      </trkpt>
      <trkpt lat="42.3733" lon="1.2311">
        <ele>1689.8</ele>
        <time>2022-05-22 16:03:16</time>
      </trkpt>
      <trkpt lat="42.37337" lon="1.23094">
        <ele>1688.8</ele>
        <time>2022-05-22 16:03:17</time>
      </trkpt>
      <trkpt lat="42.37344" lon="1.23079">
        <ele>1687.8</ele>
        <time>2022-05-22 16:03:18</time>
      </trkpt>
      <trkpt lat="42.37349" lon="1.23062">
        <ele>1686.8</ele>
        <time>2022-05-22 16:03:19</time>
      </trkpt>
      <trkpt lat="42.37354" lon="1.23045">
        <ele>1686</ele>
        <time>2022-05-22 16:03:20</time>
      </trkpt>
      <trkpt lat="42.37358" lon="1.23027">
        <ele>1685.2</ele>
        <time>2022-05-22 16:03:21</time>
      </trkpt>
      <trkpt lat="42.37362" lon="1.23009">
        <ele>1684.2</ele>
        <time>2022-05-22 16:03:22</time>
      </trkpt>
      <trkpt lat="42.37366" lon="1.22992">
        <ele>1683.4</ele>
        <time>2022-05-22 16:03:23</time>
      </trkpt>
      <trkpt lat="42.3737" lon="1.22976">
        <ele>1682.6</ele>
        <time>2022-05-22 16:03:24</time>
      </trkpt>
      <trkpt lat="42.37374" lon="1.2296">
        <ele>1682</ele>
        <time>2022-05-22 16:03:25</time>
      </trkpt>
      <trkpt lat="42.37378" lon="1.22944">
        <ele>1681.2</ele>
        <time>2022-05-22 16:03:26</time>
      </trkpt>
      <trkpt lat="42.37382" lon="1.22928">
        <ele>1680.2</ele>
        <time>2022-05-22 16:03:27</time>
      </trkpt>
      <trkpt lat="42.37386" lon="1.22911">
        <ele>1679.2</ele>
        <time>2022-05-22 16:03:28</time>
      </trkpt>
      <trkpt lat="42.3739" lon="1.22897">
        <ele>1678.6</ele>
        <time>2022-05-22 16:03:29</time>
      </trkpt>
      <trkpt lat="42.37393" lon="1.22887">
        <ele>1678</ele>
        <time>2022-05-22 16:03:30</time>
      </trkpt>
      <trkpt lat="42.374" lon="1.2286">
        <ele>1677</ele>
        <time>2022-05-22 16:03:31</time>
      </trkpt>
      <trkpt lat="42.37406" lon="1.22843">
        <ele>1676.2</ele>
        <time>2022-05-22 16:03:32</time>
      </trkpt>
      <trkpt lat="42.37411" lon="1.22826">
        <ele>1675.8</ele>
        <time>2022-05-22 16:03:33</time>
      </trkpt>
      <trkpt lat="42.37416" lon="1.22809">
        <ele>1675.4</ele>
        <time>2022-05-22 16:03:34</time>
      </trkpt>
      <trkpt lat="42.37422" lon="1.22793">
        <ele>1673.8</ele>
        <time>2022-05-22 16:03:35</time>
      </trkpt>
      <trkpt lat="42.37427" lon="1.22777">
        <ele>1672.2</ele>
        <time>2022-05-22 16:03:36</time>
      </trkpt>
      <trkpt lat="42.37432" lon="1.2276">
        <ele>1671</ele>
        <time>2022-05-22 16:03:37</time>
      </trkpt>
      <trkpt lat="42.37438" lon="1.22743">
        <ele>1669.6</ele>
        <time>2022-05-22 16:03:38</time>
      </trkpt>
      <trkpt lat="42.37443" lon="1.22727">
        <ele>1668.4</ele>
        <time>2022-05-22 16:03:39</time>
      </trkpt>
      <trkpt lat="42.3745" lon="1.22712">
        <ele>1667.2</ele>
        <time>2022-05-22 16:03:40</time>
      </trkpt>
      <trkpt lat="42.37457" lon="1.22697">
        <ele>1666.2</ele>
        <time>2022-05-22 16:03:41</time>
      </trkpt>
      <trkpt lat="42.37465" lon="1.22683">
        <ele>1665.2</ele>
        <time>2022-05-22 16:03:42</time>
      </trkpt>
      <trkpt lat="42.37474" lon="1.2267">
        <ele>1664.4</ele>
        <time>2022-05-22 16:03:43</time>
      </trkpt>
      <trkpt lat="42.37483" lon="1.22657">
        <ele>1663.6</ele>
        <time>2022-05-22 16:03:44</time>
      </trkpt>
      <trkpt lat="42.37493" lon="1.22645">
        <ele>1662.4</ele>
        <time>2022-05-22 16:03:45</time>
      </trkpt>
      <trkpt lat="42.37503" lon="1.22633">
        <ele>1661.6</ele>
        <time>2022-05-22 16:03:46</time>
      </trkpt>
      <trkpt lat="42.37513" lon="1.22622">
        <ele>1660.8</ele>
        <time>2022-05-22 16:03:47</time>
      </trkpt>
      <trkpt lat="42.37522" lon="1.2261">
        <ele>1660</ele>
        <time>2022-05-22 16:03:48</time>
      </trkpt>
      <trkpt lat="42.37531" lon="1.22597">
        <ele>1659</ele>
        <time>2022-05-22 16:03:49</time>
      </trkpt>
      <trkpt lat="42.3754" lon="1.22583">
        <ele>1658</ele>
        <time>2022-05-22 16:03:50</time>
      </trkpt>
      <trkpt lat="42.37548" lon="1.2257">
        <ele>1657.2</ele>
        <time>2022-05-22 16:03:51</time>
      </trkpt>
      <trkpt lat="42.37558" lon="1.22556">
        <ele>1656.2</ele>
        <time>2022-05-22 16:03:52</time>
      </trkpt>
      <trkpt lat="42.37568" lon="1.22544">
        <ele>1655.2</ele>
        <time>2022-05-22 16:03:53</time>
      </trkpt>
      <trkpt lat="42.37579" lon="1.22533">
        <ele>1654.4</ele>
        <time>2022-05-22 16:03:54</time>
      </trkpt>
      <trkpt lat="42.37591" lon="1.22523">
        <ele>1653.4</ele>
        <time>2022-05-22 16:03:55</time>
      </trkpt>
      <trkpt lat="42.37604" lon="1.22514">
        <ele>1652.4</ele>
        <time>2022-05-22 16:03:56</time>
      </trkpt>
      <trkpt lat="42.37617" lon="1.22506">
        <ele>1651.6</ele>
        <time>2022-05-22 16:03:57</time>
      </trkpt>
      <trkpt lat="42.37631" lon="1.22497">
        <ele>1650.6</ele>
        <time>2022-05-22 16:03:58</time>
      </trkpt>
      <trkpt lat="42.37646" lon="1.22491">
        <ele>1649.4</ele>
        <time>2022-05-22 16:03:59</time>
      </trkpt>
      <trkpt lat="42.3766" lon="1.22486">
        <ele>1648.6</ele>
        <time>2022-05-22 16:04:00</time>
      </trkpt>
      <trkpt lat="42.37674" lon="1.22483">
        <ele>1647.6</ele>
        <time>2022-05-22 16:04:01</time>
      </trkpt>
      <trkpt lat="42.37687" lon="1.22482">
        <ele>1646.8</ele>
        <time>2022-05-22 16:04:02</time>
      </trkpt>
      <trkpt lat="42.377" lon="1.22481">
        <ele>1645.8</ele>
        <time>2022-05-22 16:04:03</time>
      </trkpt>
      <trkpt lat="42.37712" lon="1.22481">
        <ele>1645.2</ele>
        <time>2022-05-22 16:04:04</time>
      </trkpt>
      <trkpt lat="42.37724" lon="1.22481">
        <ele>1644.4</ele>
        <time>2022-05-22 16:04:05</time>
      </trkpt>
      <trkpt lat="42.37736" lon="1.2248">
        <ele>1643.8</ele>
        <time>2022-05-22 16:04:06</time>
      </trkpt>
      <trkpt lat="42.37748" lon="1.22478">
        <ele>1643.2</ele>
        <time>2022-05-22 16:04:07</time>
      </trkpt>
      <trkpt lat="42.37758" lon="1.22472">
        <ele>1642.8</ele>
        <time>2022-05-22 16:04:08</time>
      </trkpt>
      <trkpt lat="42.37767" lon="1.22463">
        <ele>1641.8</ele>
        <time>2022-05-22 16:04:09</time>
      </trkpt>
      <trkpt lat="42.37775" lon="1.22452">
        <ele>1641</ele>
        <time>2022-05-22 16:04:10</time>
      </trkpt>
      <trkpt lat="42.37782" lon="1.22439">
        <ele>1640.6</ele>
        <time>2022-05-22 16:04:11</time>
      </trkpt>
      <trkpt lat="42.37788" lon="1.22424">
        <ele>1640</ele>
        <time>2022-05-22 16:04:12</time>
      </trkpt>
      <trkpt lat="42.37792" lon="1.22408">
        <ele>1639.4</ele>
        <time>2022-05-22 16:04:13</time>
      </trkpt>
      <trkpt lat="42.37792" lon="1.22393">
        <ele>1639</ele>
        <time>2022-05-22 16:04:14</time>
      </trkpt>
      <trkpt lat="42.37789" lon="1.22378">
        <ele>1638.6</ele>
        <time>2022-05-22 16:04:15</time>
      </trkpt>
      <trkpt lat="42.37784" lon="1.22366">
        <ele>1638.6</ele>
        <time>2022-05-22 16:04:16</time>
      </trkpt>
      <trkpt lat="42.37777" lon="1.22355">
        <ele>1638.8</ele>
        <time>2022-05-22 16:04:17</time>
      </trkpt>
      <trkpt lat="42.3777" lon="1.22346">
        <ele>1639</ele>
        <time>2022-05-22 16:04:18</time>
      </trkpt>
      <trkpt lat="42.37762" lon="1.2234">
        <ele>1639.2</ele>
        <time>2022-05-22 16:04:19</time>
      </trkpt>
      <trkpt lat="42.37754" lon="1.22334">
        <ele>1639.8</ele>
        <time>2022-05-22 16:04:20</time>
      </trkpt>
      <trkpt lat="42.37747" lon="1.22329">
        <ele>1640.2</ele>
        <time>2022-05-22 16:04:21</time>
      </trkpt>
      <trkpt lat="42.3774" lon="1.22325">
        <ele>1640.6</ele>
        <time>2022-05-22 16:04:22</time>
      </trkpt>
      <trkpt lat="42.37734" lon="1.22321">
        <ele>1641.2</ele>
        <time>2022-05-22 16:04:23</time>
      </trkpt>
      <trkpt lat="42.37729" lon="1.22317">
        <ele>1641.6</ele>
        <time>2022-05-22 16:04:24</time>
      </trkpt>
      <trkpt lat="42.37724" lon="1.22313">
        <ele>1642</ele>
        <time>2022-05-22 16:04:25</time>
      </trkpt>
      <trkpt lat="42.3772" lon="1.2231">
        <ele>1642.4</ele>
        <time>2022-05-22 16:04:26</time>
      </trkpt>
      <trkpt lat="42.37716" lon="1.22307">
        <ele>1642.8</ele>
        <time>2022-05-22 16:04:27</time>
      </trkpt>
      <trkpt lat="42.37712" lon="1.22304">
        <ele>1643.2</ele>
        <time>2022-05-22 16:04:28</time>
      </trkpt>
      <trkpt lat="42.37708" lon="1.22301">
        <ele>1643.8</ele>
        <time>2022-05-22 16:04:29</time>
      </trkpt>
      <trkpt lat="42.37705" lon="1.22299">
        <ele>1644.2</ele>
        <time>2022-05-22 16:04:30</time>
      </trkpt>
      <trkpt lat="42.37701" lon="1.22296">
        <ele>1644.8</ele>
        <time>2022-05-22 16:04:31</time>
      </trkpt>
      <trkpt lat="42.37698" lon="1.22295">
        <ele>1645.2</ele>
        <time>2022-05-22 16:04:32</time>
      </trkpt>
      <trkpt lat="42.37695" lon="1.22293">
        <ele>1645.4</ele>
        <time>2022-05-22 16:04:33</time>
      </trkpt>
      <trkpt lat="42.37692" lon="1.22293">
        <ele>1645.8</ele>
        <time>2022-05-22 16:04:34</time>
      </trkpt>
      <trkpt lat="42.37689" lon="1.22292">
        <ele>1646</ele>
        <time>2022-05-22 16:04:35</time>
      </trkpt>
      <trkpt lat="42.37686" lon="1.22292">
        <ele>1646.4</ele>
        <time>2022-05-22 16:04:36</time>
      </trkpt>
      <trkpt lat="42.37683" lon="1.22291">
        <ele>1646.6</ele>
        <time>2022-05-22 16:04:37</time>
      </trkpt>
      <trkpt lat="42.37681" lon="1.22292">
        <ele>1646.8</ele>
        <time>2022-05-22 16:04:38</time>
      </trkpt>
      <trkpt lat="42.37678" lon="1.22292">
        <ele>1647</ele>
        <time>2022-05-22 16:04:39</time>
      </trkpt>
      <trkpt lat="42.37676" lon="1.22292">
        <ele>1647.4</ele>
        <time>2022-05-22 16:04:40</time>
      </trkpt>
      <trkpt lat="42.37674" lon="1.22292">
        <ele>1647.6</ele>
        <time>2022-05-22 16:04:41</time>
      </trkpt>
      <trkpt lat="42.37672" lon="1.22293">
        <ele>1647.8</ele>
        <time>2022-05-22 16:04:42</time>
      </trkpt>
      <trkpt lat="42.3767" lon="1.22294">
        <ele>1648</ele>
        <time>2022-05-22 16:04:43</time>
      </trkpt>
      <trkpt lat="42.37668" lon="1.22294">
        <ele>1648.2</ele>
        <time>2022-05-22 16:04:44</time>
      </trkpt>
      <trkpt lat="42.37666" lon="1.22295">
        <ele>1648.4</ele>
        <time>2022-05-22 16:04:45</time>
      </trkpt>
      <trkpt lat="42.37664" lon="1.22295">
        <ele>1648.6</ele>
        <time>2022-05-22 16:04:46</time>
      </trkpt>
      <trkpt lat="42.37662" lon="1.22295">
        <ele>1648.8</ele>
        <time>2022-05-22 16:04:47</time>
      </trkpt>
      <trkpt lat="42.3766" lon="1.22296">
        <ele>1648.8</ele>
        <time>2022-05-22 16:04:48</time>
      </trkpt>
      <trkpt lat="42.37658" lon="1.22297">
        <ele>1649</ele>
        <time>2022-05-22 16:04:49</time>
      </trkpt>
      <trkpt lat="42.37656" lon="1.22298">
        <ele>1649.2</ele>
        <time>2022-05-22 16:04:50</time>
      </trkpt>
      <trkpt lat="42.37654" lon="1.22299">
        <ele>1649.2</ele>
        <time>2022-05-22 16:04:51</time>
      </trkpt>
      <trkpt lat="42.37652" lon="1.22299">
        <ele>1649.4</ele>
        <time>2022-05-22 16:04:52</time>
      </trkpt>
      <trkpt lat="42.3765" lon="1.223">
        <ele>1649.6</ele>
        <time>2022-05-22 16:04:53</time>
      </trkpt>
      <trkpt lat="42.37648" lon="1.22301">
        <ele>1649.6</ele>
        <time>2022-05-22 16:04:54</time>
      </trkpt>
      <trkpt lat="42.37646" lon="1.22301">
        <ele>1649.8</ele>
        <time>2022-05-22 16:04:55</time>
      </trkpt>
      <trkpt lat="42.37644" lon="1.22302">
        <ele>1650</ele>
        <time>2022-05-22 16:04:56</time>
      </trkpt>
      <trkpt lat="42.37643" lon="1.22302">
        <ele>1650</ele>
        <time>2022-05-22 16:04:57</time>
      </trkpt>
      <trkpt lat="42.37641" lon="1.22303">
        <ele>1650.2</ele>
        <time>2022-05-22 16:04:58</time>
      </trkpt>
      <trkpt lat="42.37639" lon="1.22303">
        <ele>1650.2</ele>
        <time>2022-05-22 16:04:59</time>
      </trkpt>
      <trkpt lat="42.37637" lon="1.22303">
        <ele>1650.4</ele>
        <time>2022-05-22 16:05:00</time>
      </trkpt>
      <trkpt lat="42.37636" lon="1.22304">
        <ele>1650.4</ele>
        <time>2022-05-22 16:05:01</time>
      </trkpt>
      <trkpt lat="42.37634" lon="1.22304">
        <ele>1650.4</ele>
        <time>2022-05-22 16:05:02</time>
      </trkpt>
      <trkpt lat="42.37632" lon="1.22304">
        <ele>1650.6</ele>
        <time>2022-05-22 16:05:03</time>
      </trkpt>
      <trkpt lat="42.3763" lon="1.22305">
        <ele>1650.6</ele>
        <time>2022-05-22 16:05:04</time>
      </trkpt>
      <trkpt lat="42.37628" lon="1.22305">
        <ele>1650.8</ele>
        <time>2022-05-22 16:05:05</time>
      </trkpt>
      <trkpt lat="42.37626" lon="1.22306">
        <ele>1651</ele>
        <time>2022-05-22 16:05:06</time>
      </trkpt>
      <trkpt lat="42.37624" lon="1.22305">
        <ele>1651</ele>
        <time>2022-05-22 16:05:07</time>
      </trkpt>
      <trkpt lat="42.37622" lon="1.22305">
        <ele>1651.2</ele>
        <time>2022-05-22 16:05:08</time>
      </trkpt>
      <trkpt lat="42.3762" lon="1.22305">
        <ele>1651.2</ele>
        <time>2022-05-22 16:05:09</time>
      </trkpt>
      <trkpt lat="42.37618" lon="1.22304">
        <ele>1651.4</ele>
        <time>2022-05-22 16:05:10</time>
      </trkpt>
      <trkpt lat="42.37616" lon="1.22304">
        <ele>1651.4</ele>
        <time>2022-05-22 16:05:11</time>
      </trkpt>
      <trkpt lat="42.37614" lon="1.22303">
        <ele>1651.4</ele>
        <time>2022-05-22 16:05:12</time>
      </trkpt>
      <trkpt lat="42.37612" lon="1.22302">
        <ele>1651.6</ele>
        <time>2022-05-22 16:05:13</time>
      </trkpt>
      <trkpt lat="42.3761" lon="1.22302">
        <ele>1651.6</ele>
        <time>2022-05-22 16:05:14</time>
      </trkpt>
      <trkpt lat="42.37609" lon="1.22301">
        <ele>1651.8</ele>
        <time>2022-05-22 16:05:15</time>
      </trkpt>
      <trkpt lat="42.37607" lon="1.223">
        <ele>1651.8</ele>
        <time>2022-05-22 16:05:16</time>
      </trkpt>
      <trkpt lat="42.37605" lon="1.22299">
        <ele>1652</ele>
        <time>2022-05-22 16:05:17</time>
      </trkpt>
      <trkpt lat="42.37603" lon="1.22298">
        <ele>1652.2</ele>
        <time>2022-05-22 16:05:18</time>
      </trkpt>
      <trkpt lat="42.37601" lon="1.22296">
        <ele>1652.2</ele>
        <time>2022-05-22 16:05:19</time>
      </trkpt>
      <trkpt lat="42.37599" lon="1.22295">
        <ele>1652.4</ele>
        <time>2022-05-22 16:05:20</time>
      </trkpt>
      <trkpt lat="42.37598" lon="1.22293">
        <ele>1652.4</ele>
        <time>2022-05-22 16:05:21</time>
      </trkpt>
      <trkpt lat="42.37596" lon="1.22291">
        <ele>1652.6</ele>
        <time>2022-05-22 16:05:22</time>
      </trkpt>
      <trkpt lat="42.37594" lon="1.22288">
        <ele>1652.6</ele>
        <time>2022-05-22 16:05:23</time>
      </trkpt>
      <trkpt lat="42.37592" lon="1.22286">
        <ele>1652.8</ele>
        <time>2022-05-22 16:05:24</time>
      </trkpt>
      <trkpt lat="42.3759" lon="1.22284">
        <ele>1653</ele>
        <time>2022-05-22 16:05:25</time>
      </trkpt>
      <trkpt lat="42.37588" lon="1.22282">
        <ele>1653</ele>
        <time>2022-05-22 16:05:26</time>
      </trkpt>
      <trkpt lat="42.37586" lon="1.2228">
        <ele>1653.2</ele>
        <time>2022-05-22 16:05:27</time>
      </trkpt>
      <trkpt lat="42.37584" lon="1.22278">
        <ele>1653.2</ele>
        <time>2022-05-22 16:05:28</time>
      </trkpt>
      <trkpt lat="42.37582" lon="1.22276">
        <ele>1653.4</ele>
        <time>2022-05-22 16:05:29</time>
      </trkpt>
      <trkpt lat="42.37581" lon="1.22275">
        <ele>1653.6</ele>
        <time>2022-05-22 16:05:30</time>
      </trkpt>
      <trkpt lat="42.37579" lon="1.22273">
        <ele>1653.6</ele>
        <time>2022-05-22 16:05:31</time>
      </trkpt>
      <trkpt lat="42.37577" lon="1.22271">
        <ele>1653.8</ele>
        <time>2022-05-22 16:05:32</time>
      </trkpt>
      <trkpt lat="42.37576" lon="1.22269">
        <ele>1654</ele>
        <time>2022-05-22 16:05:33</time>
      </trkpt>
      <trkpt lat="42.37575" lon="1.22268">
        <ele>1654</ele>
        <time>2022-05-22 16:05:34</time>
      </trkpt>
      <trkpt lat="42.37573" lon="1.22266">
        <ele>1654</ele>
        <time>2022-05-22 16:05:35</time>
      </trkpt>
      <trkpt lat="42.37572" lon="1.22264">
        <ele>1654.2</ele>
        <time>2022-05-22 16:05:36</time>
      </trkpt>
      <trkpt lat="42.37571" lon="1.22263">
        <ele>1654.4</ele>
        <time>2022-05-22 16:05:37</time>
      </trkpt>
      <trkpt lat="42.3757" lon="1.22261">
        <ele>1654.4</ele>
        <time>2022-05-22 16:05:38</time>
      </trkpt>
      <trkpt lat="42.37568" lon="1.2226">
        <ele>1654.6</ele>
        <time>2022-05-22 16:05:39</time>
      </trkpt>
      <trkpt lat="42.37567" lon="1.22259">
        <ele>1654.6</ele>
        <time>2022-05-22 16:05:40</time>
      </trkpt>
      <trkpt lat="42.37565" lon="1.22258">
        <ele>1654.8</ele>
        <time>2022-05-22 16:05:41</time>
      </trkpt>
      <trkpt lat="42.37564" lon="1.22256">
        <ele>1654.8</ele>
        <time>2022-05-22 16:05:42</time>
      </trkpt>
      <trkpt lat="42.37563" lon="1.22255">
        <ele>1655</ele>
        <time>2022-05-22 16:05:43</time>
      </trkpt>
      <trkpt lat="42.37561" lon="1.22252">
        <ele>1655</ele>
        <time>2022-05-22 16:05:44</time>
      </trkpt>
      <trkpt lat="42.3756" lon="1.2225">
        <ele>1655.2</ele>
        <time>2022-05-22 16:05:45</time>
      </trkpt>
      <trkpt lat="42.37559" lon="1.22248">
        <ele>1655.2</ele>
        <time>2022-05-22 16:05:46</time>
      </trkpt>
      <trkpt lat="42.37557" lon="1.22246">
        <ele>1655.4</ele>
        <time>2022-05-22 16:05:47</time>
      </trkpt>
      <trkpt lat="42.37557" lon="1.22244">
        <ele>1655.6</ele>
        <time>2022-05-22 16:05:48</time>
      </trkpt>
      <trkpt lat="42.37556" lon="1.22242">
        <ele>1655.6</ele>
        <time>2022-05-22 16:05:49</time>
      </trkpt>
      <trkpt lat="42.37554" lon="1.2224">
        <ele>1655.8</ele>
        <time>2022-05-22 16:05:50</time>
      </trkpt>
      <trkpt lat="42.37553" lon="1.22238">
        <ele>1656</ele>
        <time>2022-05-22 16:05:51</time>
      </trkpt>
      <trkpt lat="42.37552" lon="1.22236">
        <ele>1656.2</ele>
        <time>2022-05-22 16:05:52</time>
      </trkpt>
      <trkpt lat="42.37551" lon="1.22234">
        <ele>1656.2</ele>
        <time>2022-05-22 16:05:53</time>
      </trkpt>
      <trkpt lat="42.3755" lon="1.22232">
        <ele>1656.4</ele>
        <time>2022-05-22 16:05:54</time>
      </trkpt>
      <trkpt lat="42.37549" lon="1.2223">
        <ele>1656.4</ele>
        <time>2022-05-22 16:05:55</time>
      </trkpt>
      <trkpt lat="42.37548" lon="1.22228">
        <ele>1656.6</ele>
        <time>2022-05-22 16:05:56</time>
      </trkpt>
      <trkpt lat="42.37547" lon="1.22225">
        <ele>1656.6</ele>
        <time>2022-05-22 16:05:57</time>
      </trkpt>
      <trkpt lat="42.37546" lon="1.22223">
        <ele>1656.6</ele>
        <time>2022-05-22 16:05:58</time>
      </trkpt>
      <trkpt lat="42.37544" lon="1.2222">
        <ele>1656.8</ele>
        <time>2022-05-22 16:05:59</time>
      </trkpt>
      <trkpt lat="42.37544" lon="1.22218">
        <ele>1656.8</ele>
        <time>2022-05-22 16:06:00</time>
      </trkpt>
      <trkpt lat="42.37543" lon="1.22215">
        <ele>1657</ele>
        <time>2022-05-22 16:06:01</time>
      </trkpt>
      <trkpt lat="42.37542" lon="1.22212">
        <ele>1657</ele>
        <time>2022-05-22 16:06:02</time>
      </trkpt>
      <trkpt lat="42.37541" lon="1.2221">
        <ele>1657</ele>
        <time>2022-05-22 16:06:03</time>
      </trkpt>
      <trkpt lat="42.37541" lon="1.22207">
        <ele>1657.2</ele>
        <time>2022-05-22 16:06:04</time>
      </trkpt>
      <trkpt lat="42.37541" lon="1.22204">
        <ele>1657.2</ele>
        <time>2022-05-22 16:06:05</time>
      </trkpt>
      <trkpt lat="42.37541" lon="1.22202">
        <ele>1657.2</ele>
        <time>2022-05-22 16:06:06</time>
      </trkpt>
      <trkpt lat="42.3754" lon="1.22199">
        <ele>1657.4</ele>
        <time>2022-05-22 16:06:07</time>
      </trkpt>
      <trkpt lat="42.3754" lon="1.22196">
        <ele>1657.4</ele>
        <time>2022-05-22 16:06:08</time>
      </trkpt>
      <trkpt lat="42.3754" lon="1.22194">
        <ele>1657.4</ele>
        <time>2022-05-22 16:06:09</time>
      </trkpt>
      <trkpt lat="42.3754" lon="1.22191">
        <ele>1657.6</ele>
        <time>2022-05-22 16:06:10</time>
      </trkpt>
      <trkpt lat="42.37541" lon="1.22188">
        <ele>1657.6</ele>
        <time>2022-05-22 16:06:11</time>
      </trkpt>
      <trkpt lat="42.37541" lon="1.22186">
        <ele>1657.8</ele>
        <time>2022-05-22 16:06:12</time>
      </trkpt>
      <trkpt lat="42.37541" lon="1.22183">
        <ele>1658</ele>
        <time>2022-05-22 16:06:13</time>
      </trkpt>
      <trkpt lat="42.3754" lon="1.2218">
        <ele>1658</ele>
        <time>2022-05-22 16:06:14</time>
      </trkpt>
      <trkpt lat="42.37541" lon="1.22177">
        <ele>1658</ele>
        <time>2022-05-22 16:06:15</time>
      </trkpt>
      <trkpt lat="42.37541" lon="1.22174">
        <ele>1658.2</ele>
        <time>2022-05-22 16:06:16</time>
      </trkpt>
      <trkpt lat="42.37541" lon="1.22172">
        <ele>1658.2</ele>
        <time>2022-05-22 16:06:17</time>
      </trkpt>
      <trkpt lat="42.37541" lon="1.22169">
        <ele>1658.4</ele>
        <time>2022-05-22 16:06:18</time>
      </trkpt>
      <trkpt lat="42.37541" lon="1.22167">
        <ele>1658.4</ele>
        <time>2022-05-22 16:06:19</time>
      </trkpt>
      <trkpt lat="42.37541" lon="1.22164">
        <ele>1658.6</ele>
        <time>2022-05-22 16:06:20</time>
      </trkpt>
      <trkpt lat="42.37541" lon="1.22161">
        <ele>1658.8</ele>
        <time>2022-05-22 16:06:21</time>
      </trkpt>
      <trkpt lat="42.37542" lon="1.22158">
        <ele>1659</ele>
        <time>2022-05-22 16:06:22</time>
      </trkpt>
      <trkpt lat="42.37542" lon="1.22155">
        <ele>1659.2</ele>
        <time>2022-05-22 16:06:23</time>
      </trkpt>
      <trkpt lat="42.37542" lon="1.22153">
        <ele>1659.4</ele>
        <time>2022-05-22 16:06:24</time>
      </trkpt>
      <trkpt lat="42.37543" lon="1.2215">
        <ele>1659.8</ele>
        <time>2022-05-22 16:06:25</time>
      </trkpt>
      <trkpt lat="42.37543" lon="1.22147">
        <ele>1660.2</ele>
        <time>2022-05-22 16:06:26</time>
      </trkpt>
      <trkpt lat="42.37543" lon="1.22145">
        <ele>1660.4</ele>
        <time>2022-05-22 16:06:27</time>
      </trkpt>
      <trkpt lat="42.37544" lon="1.22142">
        <ele>1660.8</ele>
        <time>2022-05-22 16:06:28</time>
      </trkpt>
      <trkpt lat="42.37544" lon="1.22139">
        <ele>1660.8</ele>
        <time>2022-05-22 16:06:29</time>
      </trkpt>
      <trkpt lat="42.37544" lon="1.22137">
        <ele>1661</ele>
        <time>2022-05-22 16:06:30</time>
      </trkpt>
      <trkpt lat="42.37545" lon="1.22133">
        <ele>1661.2</ele>
        <time>2022-05-22 16:06:31</time>
      </trkpt>
      <trkpt lat="42.37545" lon="1.22131">
        <ele>1661.2</ele>
        <time>2022-05-22 16:06:32</time>
      </trkpt>
      <trkpt lat="42.37545" lon="1.22128">
        <ele>1661.4</ele>
        <time>2022-05-22 16:06:33</time>
      </trkpt>
      <trkpt lat="42.37545" lon="1.22126">
        <ele>1661.4</ele>
        <time>2022-05-22 16:06:34</time>
      </trkpt>
      <trkpt lat="42.37545" lon="1.22123">
        <ele>1661.4</ele>
        <time>2022-05-22 16:06:35</time>
      </trkpt>
      <trkpt lat="42.37545" lon="1.2212">
        <ele>1661.4</ele>
        <time>2022-05-22 16:06:36</time>
      </trkpt>
      <trkpt lat="42.37545" lon="1.22117">
        <ele>1661.4</ele>
        <time>2022-05-22 16:06:37</time>
      </trkpt>
      <trkpt lat="42.37545" lon="1.22114">
        <ele>1661.4</ele>
        <time>2022-05-22 16:06:38</time>
      </trkpt>
      <trkpt lat="42.37545" lon="1.22112">
        <ele>1661.4</ele>
        <time>2022-05-22 16:06:39</time>
      </trkpt>
      <trkpt lat="42.37545" lon="1.22109">
        <ele>1661.4</ele>
        <time>2022-05-22 16:06:40</time>
      </trkpt>
      <trkpt lat="42.37545" lon="1.22106">
        <ele>1661.6</ele>
        <time>2022-05-22 16:06:41</time>
      </trkpt>
      <trkpt lat="42.37545" lon="1.22103">
        <ele>1661.6</ele>
        <time>2022-05-22 16:06:42</time>
      </trkpt>
      <trkpt lat="42.37544" lon="1.221">
        <ele>1661.8</ele>
        <time>2022-05-22 16:06:43</time>
      </trkpt>
      <trkpt lat="42.37544" lon="1.22098">
        <ele>1661.8</ele>
        <time>2022-05-22 16:06:44</time>
      </trkpt>
      <trkpt lat="42.37544" lon="1.22095">
        <ele>1662</ele>
        <time>2022-05-22 16:06:45</time>
      </trkpt>
      <trkpt lat="42.37544" lon="1.22091">
        <ele>1662.2</ele>
        <time>2022-05-22 16:06:46</time>
      </trkpt>
      <trkpt lat="42.37544" lon="1.22088">
        <ele>1662.4</ele>
        <time>2022-05-22 16:06:47</time>
      </trkpt>
      <trkpt lat="42.37544" lon="1.22086">
        <ele>1662.6</ele>
        <time>2022-05-22 16:06:48</time>
      </trkpt>
      <trkpt lat="42.37544" lon="1.22083">
        <ele>1662.8</ele>
        <time>2022-05-22 16:06:49</time>
      </trkpt>
      <trkpt lat="42.37544" lon="1.2208">
        <ele>1662.8</ele>
        <time>2022-05-22 16:06:50</time>
      </trkpt>
      <trkpt lat="42.37544" lon="1.22077">
        <ele>1662.6</ele>
        <time>2022-05-22 16:06:51</time>
      </trkpt>
      <trkpt lat="42.37543" lon="1.22074">
        <ele>1662.6</ele>
        <time>2022-05-22 16:06:52</time>
      </trkpt>
      <trkpt lat="42.37543" lon="1.22071">
        <ele>1662.6</ele>
        <time>2022-05-22 16:06:53</time>
      </trkpt>
      <trkpt lat="42.37543" lon="1.22068">
        <ele>1662.6</ele>
        <time>2022-05-22 16:06:54</time>
      </trkpt>
      <trkpt lat="42.37543" lon="1.22065">
        <ele>1662.6</ele>
        <time>2022-05-22 16:06:55</time>
      </trkpt>
      <trkpt lat="42.37542" lon="1.22062">
        <ele>1662.6</ele>
        <time>2022-05-22 16:06:56</time>
      </trkpt>
      <trkpt lat="42.37542" lon="1.22059">
        <ele>1662.6</ele>
        <time>2022-05-22 16:06:57</time>
      </trkpt>
      <trkpt lat="42.37542" lon="1.22057">
        <ele>1662.6</ele>
        <time>2022-05-22 16:06:58</time>
      </trkpt>
      <trkpt lat="42.37541" lon="1.22054">
        <ele>1662.6</ele>
        <time>2022-05-22 16:06:59</time>
      </trkpt>
      <trkpt lat="42.37541" lon="1.22051">
        <ele>1662.4</ele>
        <time>2022-05-22 16:07:00</time>
      </trkpt>
      <trkpt lat="42.3754" lon="1.22048">
        <ele>1662.2</ele>
        <time>2022-05-22 16:07:01</time>
      </trkpt>
      <trkpt lat="42.3754" lon="1.22045">
        <ele>1662.4</ele>
        <time>2022-05-22 16:07:02</time>
      </trkpt>
      <trkpt lat="42.3754" lon="1.22042">
        <ele>1662.4</ele>
        <time>2022-05-22 16:07:03</time>
      </trkpt>
      <trkpt lat="42.3754" lon="1.22039">
        <ele>1662.6</ele>
        <time>2022-05-22 16:07:04</time>
      </trkpt>
      <trkpt lat="42.3754" lon="1.22037">
        <ele>1662.6</ele>
        <time>2022-05-22 16:07:05</time>
      </trkpt>
      <trkpt lat="42.3754" lon="1.22034">
        <ele>1662.6</ele>
        <time>2022-05-22 16:07:06</time>
      </trkpt>
      <trkpt lat="42.37539" lon="1.22031">
        <ele>1662.8</ele>
        <time>2022-05-22 16:07:07</time>
      </trkpt>
      <trkpt lat="42.37539" lon="1.22028">
        <ele>1662.8</ele>
        <time>2022-05-22 16:07:08</time>
      </trkpt>
      <trkpt lat="42.37538" lon="1.22026">
        <ele>1663</ele>
        <time>2022-05-22 16:07:09</time>
      </trkpt>
      <trkpt lat="42.37538" lon="1.22023">
        <ele>1663</ele>
        <time>2022-05-22 16:07:10</time>
      </trkpt>
      <trkpt lat="42.37537" lon="1.2202">
        <ele>1663</ele>
        <time>2022-05-22 16:07:11</time>
      </trkpt>
      <trkpt lat="42.37537" lon="1.22018">
        <ele>1663.2</ele>
        <time>2022-05-22 16:07:12</time>
      </trkpt>
      <trkpt lat="42.37536" lon="1.22015">
        <ele>1663.4</ele>
        <time>2022-05-22 16:07:13</time>
      </trkpt>
      <trkpt lat="42.37536" lon="1.22013">
        <ele>1663.8</ele>
        <time>2022-05-22 16:07:14</time>
      </trkpt>
      <trkpt lat="42.37535" lon="1.22011">
        <ele>1664</ele>
        <time>2022-05-22 16:07:15</time>
      </trkpt>
      <trkpt lat="42.37534" lon="1.22008">
        <ele>1664.2</ele>
        <time>2022-05-22 16:07:16</time>
      </trkpt>
      <trkpt lat="42.37534" lon="1.22005">
        <ele>1664</ele>
        <time>2022-05-22 16:07:17</time>
      </trkpt>
      <trkpt lat="42.37533" lon="1.22003">
        <ele>1664</ele>
        <time>2022-05-22 16:07:18</time>
      </trkpt>
      <trkpt lat="42.37533" lon="1.22">
        <ele>1663.8</ele>
        <time>2022-05-22 16:07:19</time>
      </trkpt>
      <trkpt lat="42.37533" lon="1.21997">
        <ele>1663.8</ele>
        <time>2022-05-22 16:07:20</time>
      </trkpt>
      <trkpt lat="42.37532" lon="1.21994">
        <ele>1663.8</ele>
        <time>2022-05-22 16:07:21</time>
      </trkpt>
      <trkpt lat="42.37531" lon="1.21992">
        <ele>1664</ele>
        <time>2022-05-22 16:07:22</time>
      </trkpt>
      <trkpt lat="42.37531" lon="1.21989">
        <ele>1664</ele>
        <time>2022-05-22 16:07:23</time>
      </trkpt>
      <trkpt lat="42.37531" lon="1.21987">
        <ele>1664</ele>
        <time>2022-05-22 16:07:24</time>
      </trkpt>
      <trkpt lat="42.3753" lon="1.21984">
        <ele>1664.4</ele>
        <time>2022-05-22 16:07:25</time>
      </trkpt>
      <trkpt lat="42.37529" lon="1.21981">
        <ele>1664.8</ele>
        <time>2022-05-22 16:07:26</time>
      </trkpt>
      <trkpt lat="42.37529" lon="1.21978">
        <ele>1664.8</ele>
        <time>2022-05-22 16:07:27</time>
      </trkpt>
      <trkpt lat="42.37529" lon="1.21975">
        <ele>1664.8</ele>
        <time>2022-05-22 16:07:28</time>
      </trkpt>
      <trkpt lat="42.37528" lon="1.21972">
        <ele>1664.8</ele>
        <time>2022-05-22 16:07:29</time>
      </trkpt>
      <trkpt lat="42.37528" lon="1.2197">
        <ele>1664.8</ele>
        <time>2022-05-22 16:07:30</time>
      </trkpt>
      <trkpt lat="42.37527" lon="1.21966">
        <ele>1665</ele>
        <time>2022-05-22 16:07:31</time>
      </trkpt>
      <trkpt lat="42.37528" lon="1.21963">
        <ele>1665</ele>
        <time>2022-05-22 16:07:32</time>
      </trkpt>
      <trkpt lat="42.37527" lon="1.2196">
        <ele>1665.2</ele>
        <time>2022-05-22 16:07:33</time>
      </trkpt>
      <trkpt lat="42.37527" lon="1.21957">
        <ele>1665</ele>
        <time>2022-05-22 16:07:34</time>
      </trkpt>
      <trkpt lat="42.37527" lon="1.21954">
        <ele>1665</ele>
        <time>2022-05-22 16:07:35</time>
      </trkpt>
      <trkpt lat="42.37527" lon="1.2195">
        <ele>1665.2</ele>
        <time>2022-05-22 16:07:36</time>
      </trkpt>
      <trkpt lat="42.37527" lon="1.21946">
        <ele>1665.2</ele>
        <time>2022-05-22 16:07:37</time>
      </trkpt>
      <trkpt lat="42.37527" lon="1.21942">
        <ele>1665.2</ele>
        <time>2022-05-22 16:07:38</time>
      </trkpt>
      <trkpt lat="42.37527" lon="1.21938">
        <ele>1665.2</ele>
        <time>2022-05-22 16:07:39</time>
      </trkpt>
      <trkpt lat="42.37527" lon="1.21932">
        <ele>1665.2</ele>
        <time>2022-05-22 16:07:40</time>
      </trkpt>
      <trkpt lat="42.37527" lon="1.21928">
        <ele>1665</ele>
        <time>2022-05-22 16:07:41</time>
      </trkpt>
      <trkpt lat="42.37527" lon="1.21922">
        <ele>1664.8</ele>
        <time>2022-05-22 16:07:42</time>
      </trkpt>
      <trkpt lat="42.37528" lon="1.21916">
        <ele>1664.8</ele>
        <time>2022-05-22 16:07:43</time>
      </trkpt>
      <trkpt lat="42.37528" lon="1.2191">
        <ele>1664.8</ele>
        <time>2022-05-22 16:07:44</time>
      </trkpt>
      <trkpt lat="42.37528" lon="1.21904">
        <ele>1664.6</ele>
        <time>2022-05-22 16:07:45</time>
      </trkpt>
      <trkpt lat="42.37529" lon="1.21897">
        <ele>1664.4</ele>
        <time>2022-05-22 16:07:46</time>
      </trkpt>
      <trkpt lat="42.37529" lon="1.2189">
        <ele>1664.2</ele>
        <time>2022-05-22 16:07:47</time>
      </trkpt>
      <trkpt lat="42.3753" lon="1.21883">
        <ele>1663.8</ele>
        <time>2022-05-22 16:07:48</time>
      </trkpt>
      <trkpt lat="42.37531" lon="1.21876">
        <ele>1663.6</ele>
        <time>2022-05-22 16:07:49</time>
      </trkpt>
      <trkpt lat="42.37531" lon="1.21868">
        <ele>1663.4</ele>
        <time>2022-05-22 16:07:50</time>
      </trkpt>
      <trkpt lat="42.37532" lon="1.21861">
        <ele>1663</ele>
        <time>2022-05-22 16:07:51</time>
      </trkpt>
      <trkpt lat="42.37532" lon="1.21851">
        <ele>1662.6</ele>
        <time>2022-05-22 16:07:52</time>
      </trkpt>
      <trkpt lat="42.37533" lon="1.21844">
        <ele>1662.2</ele>
        <time>2022-05-22 16:07:53</time>
      </trkpt>
      <trkpt lat="42.37535" lon="1.21833">
        <ele>1661.6</ele>
        <time>2022-05-22 16:07:54</time>
      </trkpt>
      <trkpt lat="42.37535" lon="1.21825">
        <ele>1661</ele>
        <time>2022-05-22 16:07:55</time>
      </trkpt>
      <trkpt lat="42.37536" lon="1.21816">
        <ele>1660.4</ele>
        <time>2022-05-22 16:07:56</time>
      </trkpt>
      <trkpt lat="42.37537" lon="1.2181">
        <ele>1660.2</ele>
        <time>2022-05-22 16:07:57</time>
      </trkpt>
      <trkpt lat="42.37538" lon="1.21797">
        <ele>1660</ele>
        <time>2022-05-22 16:07:58</time>
      </trkpt>
      <trkpt lat="42.37538" lon="1.2179">
        <ele>1659.6</ele>
        <time>2022-05-22 16:07:59</time>
      </trkpt>
      <trkpt lat="42.37539" lon="1.21777">
        <ele>1659.4</ele>
        <time>2022-05-22 16:08:00</time>
      </trkpt>
      <trkpt lat="42.37539" lon="1.21767">
        <ele>1659</ele>
        <time>2022-05-22 16:08:01</time>
      </trkpt>
      <trkpt lat="42.37538" lon="1.21756">
        <ele>1658.6</ele>
        <time>2022-05-22 16:08:02</time>
      </trkpt>
      <trkpt lat="42.37537" lon="1.21747">
        <ele>1658.6</ele>
        <time>2022-05-22 16:08:03</time>
      </trkpt>
      <trkpt lat="42.37534" lon="1.21735">
        <ele>1658.6</ele>
        <time>2022-05-22 16:08:04</time>
      </trkpt>
      <trkpt lat="42.37531" lon="1.21727">
        <ele>1658.6</ele>
        <time>2022-05-22 16:08:05</time>
      </trkpt>
      <trkpt lat="42.37526" lon="1.21717">
        <ele>1658.6</ele>
        <time>2022-05-22 16:08:06</time>
      </trkpt>
      <trkpt lat="42.37522" lon="1.21709">
        <ele>1658.8</ele>
        <time>2022-05-22 16:08:07</time>
      </trkpt>
      <trkpt lat="42.37517" lon="1.21699">
        <ele>1658.8</ele>
        <time>2022-05-22 16:08:08</time>
      </trkpt>
      <trkpt lat="42.37512" lon="1.21691">
        <ele>1658.6</ele>
        <time>2022-05-22 16:08:09</time>
      </trkpt>
      <trkpt lat="42.37507" lon="1.21682">
        <ele>1658.4</ele>
        <time>2022-05-22 16:08:10</time>
      </trkpt>
      <trkpt lat="42.37503" lon="1.21676">
        <ele>1658</ele>
        <time>2022-05-22 16:08:11</time>
      </trkpt>
      <trkpt lat="42.37498" lon="1.21666">
        <ele>1657.4</ele>
        <time>2022-05-22 16:08:12</time>
      </trkpt>
      <trkpt lat="42.37494" lon="1.2166">
        <ele>1657.2</ele>
        <time>2022-05-22 16:08:13</time>
      </trkpt>
      <trkpt lat="42.37488" lon="1.2165">
        <ele>1657.2</ele>
        <time>2022-05-22 16:08:14</time>
      </trkpt>
      <trkpt lat="42.37485" lon="1.21644">
        <ele>1657.2</ele>
        <time>2022-05-22 16:08:15</time>
      </trkpt>
      <trkpt lat="42.37479" lon="1.21634">
        <ele>1657.2</ele>
        <time>2022-05-22 16:08:16</time>
      </trkpt>
      <trkpt lat="42.37475" lon="1.21627">
        <ele>1657.2</ele>
        <time>2022-05-22 16:08:17</time>
      </trkpt>
      <trkpt lat="42.3747" lon="1.21619">
        <ele>1657.2</ele>
        <time>2022-05-22 16:08:18</time>
      </trkpt>
      <trkpt lat="42.37465" lon="1.21611">
        <ele>1656.8</ele>
        <time>2022-05-22 16:08:19</time>
      </trkpt>
      <trkpt lat="42.37461" lon="1.21602">
        <ele>1656.6</ele>
        <time>2022-05-22 16:08:20</time>
      </trkpt>
      <trkpt lat="42.37457" lon="1.21595">
        <ele>1656.2</ele>
        <time>2022-05-22 16:08:21</time>
      </trkpt>
      <trkpt lat="42.37452" lon="1.21586">
        <ele>1655.8</ele>
        <time>2022-05-22 16:08:22</time>
      </trkpt>
      <trkpt lat="42.3745" lon="1.21578">
        <ele>1655.4</ele>
        <time>2022-05-22 16:08:23</time>
      </trkpt>
      <trkpt lat="42.37448" lon="1.2157">
        <ele>1655</ele>
        <time>2022-05-22 16:08:24</time>
      </trkpt>
      <trkpt lat="42.37447" lon="1.21562">
        <ele>1655</ele>
        <time>2022-05-22 16:08:25</time>
      </trkpt>
      <trkpt lat="42.37446" lon="1.21551">
        <ele>1655</ele>
        <time>2022-05-22 16:08:26</time>
      </trkpt>
      <trkpt lat="42.37447" lon="1.21543">
        <ele>1655</ele>
        <time>2022-05-22 16:08:27</time>
      </trkpt>
      <trkpt lat="42.37449" lon="1.21534">
        <ele>1654.6</ele>
        <time>2022-05-22 16:08:28</time>
      </trkpt>
      <trkpt lat="42.3745" lon="1.21527">
        <ele>1654.6</ele>
        <time>2022-05-22 16:08:29</time>
      </trkpt>
      <trkpt lat="42.37452" lon="1.21518">
        <ele>1654.4</ele>
        <time>2022-05-22 16:08:30</time>
      </trkpt>
      <trkpt lat="42.37454" lon="1.21512">
        <ele>1654.4</ele>
        <time>2022-05-22 16:08:31</time>
      </trkpt>
      <trkpt lat="42.37457" lon="1.21503">
        <ele>1654.4</ele>
        <time>2022-05-22 16:08:32</time>
      </trkpt>
      <trkpt lat="42.37459" lon="1.21498">
        <ele>1654.4</ele>
        <time>2022-05-22 16:08:33</time>
      </trkpt>
      <trkpt lat="42.37463" lon="1.2149">
        <ele>1654.4</ele>
        <time>2022-05-22 16:08:34</time>
      </trkpt>
      <trkpt lat="42.37465" lon="1.21484">
        <ele>1654.4</ele>
        <time>2022-05-22 16:08:35</time>
      </trkpt>
      <trkpt lat="42.37469" lon="1.21475">
        <ele>1654.2</ele>
        <time>2022-05-22 16:08:36</time>
      </trkpt>
      <trkpt lat="42.37471" lon="1.2147">
        <ele>1654.4</ele>
        <time>2022-05-22 16:08:37</time>
      </trkpt>
      <trkpt lat="42.37474" lon="1.21461">
        <ele>1654.2</ele>
        <time>2022-05-22 16:08:38</time>
      </trkpt>
      <trkpt lat="42.37476" lon="1.21455">
        <ele>1654.2</ele>
        <time>2022-05-22 16:08:39</time>
      </trkpt>
      <trkpt lat="42.37478" lon="1.21444">
        <ele>1654</ele>
        <time>2022-05-22 16:08:40</time>
      </trkpt>
      <trkpt lat="42.37479" lon="1.21436">
        <ele>1653.6</ele>
        <time>2022-05-22 16:08:41</time>
      </trkpt>
      <trkpt lat="42.3748" lon="1.21426">
        <ele>1653.2</ele>
        <time>2022-05-22 16:08:42</time>
      </trkpt>
      <trkpt lat="42.3748" lon="1.21418">
        <ele>1652.4</ele>
        <time>2022-05-22 16:08:43</time>
      </trkpt>
      <trkpt lat="42.3748" lon="1.21405">
        <ele>1651.8</ele>
        <time>2022-05-22 16:08:44</time>
      </trkpt>
      <trkpt lat="42.37481" lon="1.21397">
        <ele>1651.4</ele>
        <time>2022-05-22 16:08:45</time>
      </trkpt>
      <trkpt lat="42.37481" lon="1.21382">
        <ele>1650.4</ele>
        <time>2022-05-22 16:08:46</time>
      </trkpt>
      <trkpt lat="42.37482" lon="1.21372">
        <ele>1649.8</ele>
        <time>2022-05-22 16:08:47</time>
      </trkpt>
      <trkpt lat="42.37482" lon="1.21358">
        <ele>1649.2</ele>
        <time>2022-05-22 16:08:48</time>
      </trkpt>
      <trkpt lat="42.37482" lon="1.21349">
        <ele>1648.4</ele>
        <time>2022-05-22 16:08:49</time>
      </trkpt>
      <trkpt lat="42.37482" lon="1.21337">
        <ele>1647.8</ele>
        <time>2022-05-22 16:08:50</time>
      </trkpt>
      <trkpt lat="42.37483" lon="1.21321">
        <ele>1647</ele>
        <time>2022-05-22 16:08:51</time>
      </trkpt>
      <trkpt lat="42.37483" lon="1.21311">
        <ele>1646.4</ele>
        <time>2022-05-22 16:08:52</time>
      </trkpt>
      <trkpt lat="42.37483" lon="1.21296">
        <ele>1645.8</ele>
        <time>2022-05-22 16:08:53</time>
      </trkpt>
      <trkpt lat="42.37483" lon="1.2128">
        <ele>1645.2</ele>
        <time>2022-05-22 16:08:54</time>
      </trkpt>
      <trkpt lat="42.37484" lon="1.21267">
        <ele>1644.8</ele>
        <time>2022-05-22 16:08:55</time>
      </trkpt>
      <trkpt lat="42.37484" lon="1.21252">
        <ele>1643.8</ele>
        <time>2022-05-22 16:08:56</time>
      </trkpt>
      <trkpt lat="42.37485" lon="1.21239">
        <ele>1643</ele>
        <time>2022-05-22 16:08:57</time>
      </trkpt>
      <trkpt lat="42.37486" lon="1.21221">
        <ele>1641.8</ele>
        <time>2022-05-22 16:08:58</time>
      </trkpt>
      <trkpt lat="42.37487" lon="1.21207">
        <ele>1641</ele>
        <time>2022-05-22 16:08:59</time>
      </trkpt>
      <trkpt lat="42.37488" lon="1.21192">
        <ele>1640.2</ele>
        <time>2022-05-22 16:09:00</time>
      </trkpt>
      <trkpt lat="42.3749" lon="1.2117">
        <ele>1639.4</ele>
        <time>2022-05-22 16:09:01</time>
      </trkpt>
      <trkpt lat="42.37491" lon="1.2115">
        <ele>1638.4</ele>
        <time>2022-05-22 16:09:02</time>
      </trkpt>
      <trkpt lat="42.37493" lon="1.21134">
        <ele>1637.4</ele>
        <time>2022-05-22 16:09:03</time>
      </trkpt>
      <trkpt lat="42.37494" lon="1.21117">
        <ele>1636.4</ele>
        <time>2022-05-22 16:09:04</time>
      </trkpt>
      <trkpt lat="42.37495" lon="1.21101">
        <ele>1635.4</ele>
        <time>2022-05-22 16:09:05</time>
      </trkpt>
      <trkpt lat="42.37496" lon="1.21085">
        <ele>1634.8</ele>
        <time>2022-05-22 16:09:06</time>
      </trkpt>
      <trkpt lat="42.37498" lon="1.21069">
        <ele>1634</ele>
        <time>2022-05-22 16:09:07</time>
      </trkpt>
      <trkpt lat="42.375" lon="1.21052">
        <ele>1633.4</ele>
        <time>2022-05-22 16:09:08</time>
      </trkpt>
      <trkpt lat="42.37501" lon="1.21036">
        <ele>1632.8</ele>
        <time>2022-05-22 16:09:09</time>
      </trkpt>
      <trkpt lat="42.37502" lon="1.21019">
        <ele>1632</ele>
        <time>2022-05-22 16:09:10</time>
      </trkpt>
      <trkpt lat="42.37503" lon="1.21005">
        <ele>1631.2</ele>
        <time>2022-05-22 16:09:11</time>
      </trkpt>
      <trkpt lat="42.37505" lon="1.20993">
        <ele>1630.2</ele>
        <time>2022-05-22 16:09:12</time>
      </trkpt>
      <trkpt lat="42.37505" lon="1.20976">
        <ele>1629.2</ele>
        <time>2022-05-22 16:09:13</time>
      </trkpt>
      <trkpt lat="42.37507" lon="1.20955">
        <ele>1628.4</ele>
        <time>2022-05-22 16:09:14</time>
      </trkpt>
      <trkpt lat="42.37508" lon="1.20935">
        <ele>1627.6</ele>
        <time>2022-05-22 16:09:15</time>
      </trkpt>
      <trkpt lat="42.37508" lon="1.20918">
        <ele>1626.8</ele>
        <time>2022-05-22 16:09:16</time>
      </trkpt>
      <trkpt lat="42.37509" lon="1.20901">
        <ele>1626.2</ele>
        <time>2022-05-22 16:09:17</time>
      </trkpt>
      <trkpt lat="42.3751" lon="1.20883">
        <ele>1625.6</ele>
        <time>2022-05-22 16:09:18</time>
      </trkpt>
      <trkpt lat="42.37511" lon="1.20865">
        <ele>1624.4</ele>
        <time>2022-05-22 16:09:19</time>
      </trkpt>
      <trkpt lat="42.37512" lon="1.20847">
        <ele>1623.4</ele>
        <time>2022-05-22 16:09:20</time>
      </trkpt>
      <trkpt lat="42.37513" lon="1.20829">
        <ele>1622.4</ele>
        <time>2022-05-22 16:09:21</time>
      </trkpt>
      <trkpt lat="42.37515" lon="1.2081">
        <ele>1621.6</ele>
        <time>2022-05-22 16:09:22</time>
      </trkpt>
      <trkpt lat="42.37516" lon="1.20792">
        <ele>1620.8</ele>
        <time>2022-05-22 16:09:23</time>
      </trkpt>
      <trkpt lat="42.37518" lon="1.20774">
        <ele>1620.2</ele>
        <time>2022-05-22 16:09:24</time>
      </trkpt>
      <trkpt lat="42.37519" lon="1.20756">
        <ele>1619.6</ele>
        <time>2022-05-22 16:09:25</time>
      </trkpt>
      <trkpt lat="42.3752" lon="1.20738">
        <ele>1618.8</ele>
        <time>2022-05-22 16:09:26</time>
      </trkpt>
      <trkpt lat="42.37521" lon="1.20721">
        <ele>1618.2</ele>
        <time>2022-05-22 16:09:27</time>
      </trkpt>
      <trkpt lat="42.37522" lon="1.20703">
        <ele>1617.6</ele>
        <time>2022-05-22 16:09:28</time>
      </trkpt>
      <trkpt lat="42.37523" lon="1.20687">
        <ele>1617</ele>
        <time>2022-05-22 16:09:29</time>
      </trkpt>
      <trkpt lat="42.37523" lon="1.20671">
        <ele>1616.4</ele>
        <time>2022-05-22 16:09:30</time>
      </trkpt>
      <trkpt lat="42.37522" lon="1.20656">
        <ele>1615.8</ele>
        <time>2022-05-22 16:09:31</time>
      </trkpt>
      <trkpt lat="42.37518" lon="1.20641">
        <ele>1615</ele>
        <time>2022-05-22 16:09:32</time>
      </trkpt>
      <trkpt lat="42.3751" lon="1.20628">
        <ele>1614.4</ele>
        <time>2022-05-22 16:09:33</time>
      </trkpt>
      <trkpt lat="42.37499" lon="1.20617">
        <ele>1613.6</ele>
        <time>2022-05-22 16:09:34</time>
      </trkpt>
      <trkpt lat="42.37488" lon="1.20608">
        <ele>1613.2</ele>
        <time>2022-05-22 16:09:35</time>
      </trkpt>
      <trkpt lat="42.37477" lon="1.20601">
        <ele>1612.6</ele>
        <time>2022-05-22 16:09:36</time>
      </trkpt>
      <trkpt lat="42.37466" lon="1.20597">
        <ele>1612</ele>
        <time>2022-05-22 16:09:37</time>
      </trkpt>
      <trkpt lat="42.37455" lon="1.20597">
        <ele>1611.4</ele>
        <time>2022-05-22 16:09:38</time>
      </trkpt>
      <trkpt lat="42.37443" lon="1.20599">
        <ele>1610.8</ele>
        <time>2022-05-22 16:09:39</time>
      </trkpt>
      <trkpt lat="42.37431" lon="1.20602">
        <ele>1610</ele>
        <time>2022-05-22 16:09:40</time>
      </trkpt>
      <trkpt lat="42.37419" lon="1.20603">
        <ele>1609.4</ele>
        <time>2022-05-22 16:09:41</time>
      </trkpt>
      <trkpt lat="42.37406" lon="1.20604">
        <ele>1608.8</ele>
        <time>2022-05-22 16:09:42</time>
      </trkpt>
      <trkpt lat="42.37394" lon="1.20604">
        <ele>1608.2</ele>
        <time>2022-05-22 16:09:43</time>
      </trkpt>
      <trkpt lat="42.37382" lon="1.20604">
        <ele>1607.4</ele>
        <time>2022-05-22 16:09:44</time>
      </trkpt>
      <trkpt lat="42.37369" lon="1.20603">
        <ele>1606.4</ele>
        <time>2022-05-22 16:09:45</time>
      </trkpt>
      <trkpt lat="42.37356" lon="1.20602">
        <ele>1605.6</ele>
        <time>2022-05-22 16:09:46</time>
      </trkpt>
      <trkpt lat="42.37345" lon="1.20598">
        <ele>1605</ele>
        <time>2022-05-22 16:09:47</time>
      </trkpt>
      <trkpt lat="42.37334" lon="1.20591">
        <ele>1604.6</ele>
        <time>2022-05-22 16:09:48</time>
      </trkpt>
      <trkpt lat="42.37325" lon="1.20581">
        <ele>1604</ele>
        <time>2022-05-22 16:09:49</time>
      </trkpt>
      <trkpt lat="42.37317" lon="1.20569">
        <ele>1603.6</ele>
        <time>2022-05-22 16:09:50</time>
      </trkpt>
      <trkpt lat="42.3731" lon="1.20557">
        <ele>1603</ele>
        <time>2022-05-22 16:09:51</time>
      </trkpt>
      <trkpt lat="42.37306" lon="1.20544">
        <ele>1602.8</ele>
        <time>2022-05-22 16:09:52</time>
      </trkpt>
      <trkpt lat="42.37303" lon="1.20529">
        <ele>1602.4</ele>
        <time>2022-05-22 16:09:53</time>
      </trkpt>
      <trkpt lat="42.37302" lon="1.20512">
        <ele>1602</ele>
        <time>2022-05-22 16:09:54</time>
      </trkpt>
      <trkpt lat="42.37301" lon="1.20496">
        <ele>1601.4</ele>
        <time>2022-05-22 16:09:55</time>
      </trkpt>
      <trkpt lat="42.37301" lon="1.2048">
        <ele>1600.8</ele>
        <time>2022-05-22 16:09:56</time>
      </trkpt>
      <trkpt lat="42.373" lon="1.20462">
        <ele>1600.2</ele>
        <time>2022-05-22 16:09:57</time>
      </trkpt>
      <trkpt lat="42.37299" lon="1.20446">
        <ele>1599.4</ele>
        <time>2022-05-22 16:09:58</time>
      </trkpt>
      <trkpt lat="42.37298" lon="1.20429">
        <ele>1598.8</ele>
        <time>2022-05-22 16:09:59</time>
      </trkpt>
      <trkpt lat="42.37298" lon="1.20412">
        <ele>1597.8</ele>
        <time>2022-05-22 16:10:00</time>
      </trkpt>
      <trkpt lat="42.373" lon="1.20395">
        <ele>1596.8</ele>
        <time>2022-05-22 16:10:01</time>
      </trkpt>
      <trkpt lat="42.37303" lon="1.20378">
        <ele>1595.8</ele>
        <time>2022-05-22 16:10:02</time>
      </trkpt>
      <trkpt lat="42.37308" lon="1.20361">
        <ele>1594.8</ele>
        <time>2022-05-22 16:10:03</time>
      </trkpt>
      <trkpt lat="42.37313" lon="1.20345">
        <ele>1594</ele>
        <time>2022-05-22 16:10:04</time>
      </trkpt>
      <trkpt lat="42.37317" lon="1.2033">
        <ele>1593</ele>
        <time>2022-05-22 16:10:05</time>
      </trkpt>
      <trkpt lat="42.37321" lon="1.20314">
        <ele>1592.4</ele>
        <time>2022-05-22 16:10:06</time>
      </trkpt>
      <trkpt lat="42.37323" lon="1.20298">
        <ele>1591.4</ele>
        <time>2022-05-22 16:10:07</time>
      </trkpt>
      <trkpt lat="42.37325" lon="1.20283">
        <ele>1590.6</ele>
        <time>2022-05-22 16:10:08</time>
      </trkpt>
      <trkpt lat="42.37323" lon="1.20268">
        <ele>1589.8</ele>
        <time>2022-05-22 16:10:09</time>
      </trkpt>
      <trkpt lat="42.37317" lon="1.20254">
        <ele>1589</ele>
        <time>2022-05-22 16:10:10</time>
      </trkpt>
      <trkpt lat="42.37309" lon="1.20241">
        <ele>1588.2</ele>
        <time>2022-05-22 16:10:11</time>
      </trkpt>
      <trkpt lat="42.37299" lon="1.2023">
        <ele>1587.4</ele>
        <time>2022-05-22 16:10:12</time>
      </trkpt>
      <trkpt lat="42.37287" lon="1.20223">
        <ele>1586.8</ele>
        <time>2022-05-22 16:10:13</time>
      </trkpt>
      <trkpt lat="42.37274" lon="1.20221">
        <ele>1586.2</ele>
        <time>2022-05-22 16:10:14</time>
      </trkpt>
      <trkpt lat="42.37262" lon="1.20224">
        <ele>1585.6</ele>
        <time>2022-05-22 16:10:15</time>
      </trkpt>
      <trkpt lat="42.37249" lon="1.20229">
        <ele>1585</ele>
        <time>2022-05-22 16:10:16</time>
      </trkpt>
      <trkpt lat="42.37238" lon="1.20238">
        <ele>1584.2</ele>
        <time>2022-05-22 16:10:17</time>
      </trkpt>
      <trkpt lat="42.37229" lon="1.20251">
        <ele>1583.4</ele>
        <time>2022-05-22 16:10:18</time>
      </trkpt>
      <trkpt lat="42.37221" lon="1.20267">
        <ele>1582.4</ele>
        <time>2022-05-22 16:10:19</time>
      </trkpt>
      <trkpt lat="42.37217" lon="1.20284">
        <ele>1581.4</ele>
        <time>2022-05-22 16:10:20</time>
      </trkpt>
      <trkpt lat="42.37215" lon="1.20302">
        <ele>1580.6</ele>
        <time>2022-05-22 16:10:21</time>
      </trkpt>
      <trkpt lat="42.37214" lon="1.20322">
        <ele>1579.6</ele>
        <time>2022-05-22 16:10:22</time>
      </trkpt>
      <trkpt lat="42.37215" lon="1.20341">
        <ele>1578.8</ele>
        <time>2022-05-22 16:10:23</time>
      </trkpt>
      <trkpt lat="42.37216" lon="1.2036">
        <ele>1577.8</ele>
        <time>2022-05-22 16:10:24</time>
      </trkpt>
      <trkpt lat="42.37216" lon="1.20379">
        <ele>1576.8</ele>
        <time>2022-05-22 16:10:25</time>
      </trkpt>
      <trkpt lat="42.37216" lon="1.20398">
        <ele>1576</ele>
        <time>2022-05-22 16:10:26</time>
      </trkpt>
      <trkpt lat="42.37215" lon="1.20417">
        <ele>1575</ele>
        <time>2022-05-22 16:10:27</time>
      </trkpt>
      <trkpt lat="42.37213" lon="1.20436">
        <ele>1573.8</ele>
        <time>2022-05-22 16:10:28</time>
      </trkpt>
      <trkpt lat="42.37212" lon="1.20455">
        <ele>1572.8</ele>
        <time>2022-05-22 16:10:29</time>
      </trkpt>
      <trkpt lat="42.3721" lon="1.20475">
        <ele>1571.8</ele>
        <time>2022-05-22 16:10:30</time>
      </trkpt>
      <trkpt lat="42.37209" lon="1.20495">
        <ele>1571</ele>
        <time>2022-05-22 16:10:31</time>
      </trkpt>
      <trkpt lat="42.37208" lon="1.20514">
        <ele>1570</ele>
        <time>2022-05-22 16:10:32</time>
      </trkpt>
      <trkpt lat="42.37206" lon="1.20535">
        <ele>1569</ele>
        <time>2022-05-22 16:10:33</time>
      </trkpt>
      <trkpt lat="42.37204" lon="1.20554">
        <ele>1568.4</ele>
        <time>2022-05-22 16:10:34</time>
      </trkpt>
      <trkpt lat="42.37203" lon="1.20573">
        <ele>1567.8</ele>
        <time>2022-05-22 16:10:35</time>
      </trkpt>
      <trkpt lat="42.37201" lon="1.20592">
        <ele>1567.2</ele>
        <time>2022-05-22 16:10:36</time>
      </trkpt>
      <trkpt lat="42.37201" lon="1.20611">
        <ele>1567</ele>
        <time>2022-05-22 16:10:37</time>
      </trkpt>
      <trkpt lat="42.372" lon="1.20631">
        <ele>1566.6</ele>
        <time>2022-05-22 16:10:38</time>
      </trkpt>
      <trkpt lat="42.37202" lon="1.2065">
        <ele>1566</ele>
        <time>2022-05-22 16:10:39</time>
      </trkpt>
      <trkpt lat="42.37205" lon="1.20669">
        <ele>1565.6</ele>
        <time>2022-05-22 16:10:40</time>
      </trkpt>
      <trkpt lat="42.37211" lon="1.20686">
        <ele>1565</ele>
        <time>2022-05-22 16:10:41</time>
      </trkpt>
      <trkpt lat="42.37219" lon="1.20701">
        <ele>1564.2</ele>
        <time>2022-05-22 16:10:42</time>
      </trkpt>
      <trkpt lat="42.37228" lon="1.20715">
        <ele>1563.4</ele>
        <time>2022-05-22 16:10:43</time>
      </trkpt>
      <trkpt lat="42.37238" lon="1.20728">
        <ele>1562.4</ele>
        <time>2022-05-22 16:10:44</time>
      </trkpt>
      <trkpt lat="42.37248" lon="1.20743">
        <ele>1561.4</ele>
        <time>2022-05-22 16:10:45</time>
      </trkpt>
      <trkpt lat="42.37258" lon="1.20758">
        <ele>1560.2</ele>
        <time>2022-05-22 16:10:46</time>
      </trkpt>
      <trkpt lat="42.37268" lon="1.20773">
        <ele>1559.4</ele>
        <time>2022-05-22 16:10:47</time>
      </trkpt>
      <trkpt lat="42.37277" lon="1.20789">
        <ele>1558.2</ele>
        <time>2022-05-22 16:10:48</time>
      </trkpt>
      <trkpt lat="42.37286" lon="1.20804">
        <ele>1557.4</ele>
        <time>2022-05-22 16:10:49</time>
      </trkpt>
      <trkpt lat="42.37294" lon="1.20819">
        <ele>1556.4</ele>
        <time>2022-05-22 16:10:50</time>
      </trkpt>
      <trkpt lat="42.373" lon="1.20835">
        <ele>1555.4</ele>
        <time>2022-05-22 16:10:51</time>
      </trkpt>
      <trkpt lat="42.37303" lon="1.20852">
        <ele>1554.4</ele>
        <time>2022-05-22 16:10:52</time>
      </trkpt>
      <trkpt lat="42.37304" lon="1.20869">
        <ele>1553.4</ele>
        <time>2022-05-22 16:10:53</time>
      </trkpt>
      <trkpt lat="42.373" lon="1.20888">
        <ele>1552.4</ele>
        <time>2022-05-22 16:10:54</time>
      </trkpt>
      <trkpt lat="42.37294" lon="1.20906">
        <ele>1551.6</ele>
        <time>2022-05-22 16:10:55</time>
      </trkpt>
      <trkpt lat="42.37288" lon="1.20923">
        <ele>1550.8</ele>
        <time>2022-05-22 16:10:56</time>
      </trkpt>
      <trkpt lat="42.37281" lon="1.20941">
        <ele>1549.8</ele>
        <time>2022-05-22 16:10:57</time>
      </trkpt>
      <trkpt lat="42.37275" lon="1.20959">
        <ele>1548.4</ele>
        <time>2022-05-22 16:10:58</time>
      </trkpt>
      <trkpt lat="42.37268" lon="1.20977">
        <ele>1547</ele>
        <time>2022-05-22 16:10:59</time>
      </trkpt>
      <trkpt lat="42.37261" lon="1.20995">
        <ele>1545.8</ele>
        <time>2022-05-22 16:11:00</time>
      </trkpt>
      <trkpt lat="42.37254" lon="1.21013">
        <ele>1544.4</ele>
        <time>2022-05-22 16:11:01</time>
      </trkpt>
      <trkpt lat="42.37246" lon="1.21031">
        <ele>1543.2</ele>
        <time>2022-05-22 16:11:02</time>
      </trkpt>
      <trkpt lat="42.3724" lon="1.21049">
        <ele>1542</ele>
        <time>2022-05-22 16:11:03</time>
      </trkpt>
      <trkpt lat="42.37233" lon="1.21068">
        <ele>1540.6</ele>
        <time>2022-05-22 16:11:04</time>
      </trkpt>
      <trkpt lat="42.37227" lon="1.21087">
        <ele>1539.4</ele>
        <time>2022-05-22 16:11:05</time>
      </trkpt>
      <trkpt lat="42.37223" lon="1.21105">
        <ele>1538.4</ele>
        <time>2022-05-22 16:11:06</time>
      </trkpt>
      <trkpt lat="42.3722" lon="1.21125">
        <ele>1537.4</ele>
        <time>2022-05-22 16:11:07</time>
      </trkpt>
      <trkpt lat="42.37217" lon="1.21144">
        <ele>1536.8</ele>
        <time>2022-05-22 16:11:08</time>
      </trkpt>
      <trkpt lat="42.37214" lon="1.21162">
        <ele>1536.2</ele>
        <time>2022-05-22 16:11:09</time>
      </trkpt>
      <trkpt lat="42.3721" lon="1.21178">
        <ele>1535.2</ele>
        <time>2022-05-22 16:11:10</time>
      </trkpt>
      <trkpt lat="42.37205" lon="1.21191">
        <ele>1534.6</ele>
        <time>2022-05-22 16:11:11</time>
      </trkpt>
      <trkpt lat="42.37197" lon="1.21201">
        <ele>1533.8</ele>
        <time>2022-05-22 16:11:12</time>
      </trkpt>
      <trkpt lat="42.37187" lon="1.21207">
        <ele>1533</ele>
        <time>2022-05-22 16:11:13</time>
      </trkpt>
      <trkpt lat="42.37177" lon="1.21211">
        <ele>1532</ele>
        <time>2022-05-22 16:11:14</time>
      </trkpt>
      <trkpt lat="42.37166" lon="1.21213">
        <ele>1531</ele>
        <time>2022-05-22 16:11:15</time>
      </trkpt>
      <trkpt lat="42.37155" lon="1.21212">
        <ele>1529.6</ele>
        <time>2022-05-22 16:11:16</time>
      </trkpt>
      <trkpt lat="42.37143" lon="1.21207">
        <ele>1528.6</ele>
        <time>2022-05-22 16:11:17</time>
      </trkpt>
      <trkpt lat="42.37134" lon="1.21198">
        <ele>1527.4</ele>
        <time>2022-05-22 16:11:18</time>
      </trkpt>
      <trkpt lat="42.37125" lon="1.21185">
        <ele>1526.2</ele>
        <time>2022-05-22 16:11:19</time>
      </trkpt>
      <trkpt lat="42.37118" lon="1.21169">
        <ele>1525.4</ele>
        <time>2022-05-22 16:11:20</time>
      </trkpt>
      <trkpt lat="42.37115" lon="1.2115">
        <ele>1524.2</ele>
        <time>2022-05-22 16:11:21</time>
      </trkpt>
      <trkpt lat="42.37116" lon="1.21131">
        <ele>1523.2</ele>
        <time>2022-05-22 16:11:22</time>
      </trkpt>
      <trkpt lat="42.3712" lon="1.21113">
        <ele>1522</ele>
        <time>2022-05-22 16:11:23</time>
      </trkpt>
      <trkpt lat="42.37125" lon="1.21095">
        <ele>1520.8</ele>
        <time>2022-05-22 16:11:24</time>
      </trkpt>
      <trkpt lat="42.3713" lon="1.21077">
        <ele>1519.4</ele>
        <time>2022-05-22 16:11:25</time>
      </trkpt>
      <trkpt lat="42.37136" lon="1.2106">
        <ele>1518.2</ele>
        <time>2022-05-22 16:11:26</time>
      </trkpt>
      <trkpt lat="42.37141" lon="1.21044">
        <ele>1517.2</ele>
        <time>2022-05-22 16:11:27</time>
      </trkpt>
      <trkpt lat="42.37145" lon="1.21027">
        <ele>1516.4</ele>
        <time>2022-05-22 16:11:28</time>
      </trkpt>
      <trkpt lat="42.3715" lon="1.21011">
        <ele>1515.6</ele>
        <time>2022-05-22 16:11:29</time>
      </trkpt>
      <trkpt lat="42.37154" lon="1.20993">
        <ele>1515.2</ele>
        <time>2022-05-22 16:11:30</time>
      </trkpt>
      <trkpt lat="42.37156" lon="1.20975">
        <ele>1514.6</ele>
        <time>2022-05-22 16:11:31</time>
      </trkpt>
      <trkpt lat="42.37155" lon="1.20957">
        <ele>1514</ele>
        <time>2022-05-22 16:11:32</time>
      </trkpt>
      <trkpt lat="42.37152" lon="1.2094">
        <ele>1513.6</ele>
        <time>2022-05-22 16:11:33</time>
      </trkpt>
      <trkpt lat="42.37148" lon="1.20924">
        <ele>1512.8</ele>
        <time>2022-05-22 16:11:34</time>
      </trkpt>
      <trkpt lat="42.37144" lon="1.20907">
        <ele>1512</ele>
        <time>2022-05-22 16:11:35</time>
      </trkpt>
      <trkpt lat="42.37138" lon="1.20891">
        <ele>1511.2</ele>
        <time>2022-05-22 16:11:36</time>
      </trkpt>
      <trkpt lat="42.37131" lon="1.20877">
        <ele>1510.4</ele>
        <time>2022-05-22 16:11:37</time>
      </trkpt>
      <trkpt lat="42.37124" lon="1.20864">
        <ele>1509.4</ele>
        <time>2022-05-22 16:11:38</time>
      </trkpt>
      <trkpt lat="42.37116" lon="1.2085">
        <ele>1508.6</ele>
        <time>2022-05-22 16:11:39</time>
      </trkpt>
      <trkpt lat="42.37106" lon="1.20836">
        <ele>1507.8</ele>
        <time>2022-05-22 16:11:40</time>
      </trkpt>
      <trkpt lat="42.37096" lon="1.20822">
        <ele>1506.8</ele>
        <time>2022-05-22 16:11:41</time>
      </trkpt>
      <trkpt lat="42.37085" lon="1.20808">
        <ele>1505.8</ele>
        <time>2022-05-22 16:11:42</time>
      </trkpt>
      <trkpt lat="42.37076" lon="1.20795">
        <ele>1504.8</ele>
        <time>2022-05-22 16:11:43</time>
      </trkpt>
      <trkpt lat="42.37066" lon="1.20782">
        <ele>1504</ele>
        <time>2022-05-22 16:11:44</time>
      </trkpt>
      <trkpt lat="42.37056" lon="1.20769">
        <ele>1502.8</ele>
        <time>2022-05-22 16:11:45</time>
      </trkpt>
      <trkpt lat="42.37045" lon="1.20756">
        <ele>1501.8</ele>
        <time>2022-05-22 16:11:46</time>
      </trkpt>
      <trkpt lat="42.37035" lon="1.20743">
        <ele>1500.6</ele>
        <time>2022-05-22 16:11:47</time>
      </trkpt>
      <trkpt lat="42.37025" lon="1.20729">
        <ele>1499.2</ele>
        <time>2022-05-22 16:11:48</time>
      </trkpt>
      <trkpt lat="42.37014" lon="1.20716">
        <ele>1497.8</ele>
        <time>2022-05-22 16:11:49</time>
      </trkpt>
      <trkpt lat="42.37003" lon="1.20702">
        <ele>1496.2</ele>
        <time>2022-05-22 16:11:50</time>
      </trkpt>
      <trkpt lat="42.36991" lon="1.20687">
        <ele>1494.8</ele>
        <time>2022-05-22 16:11:51</time>
      </trkpt>
      <trkpt lat="42.36981" lon="1.20673">
        <ele>1493.6</ele>
        <time>2022-05-22 16:11:52</time>
      </trkpt>
      <trkpt lat="42.36971" lon="1.20658">
        <ele>1492.2</ele>
        <time>2022-05-22 16:11:53</time>
      </trkpt>
      <trkpt lat="42.36962" lon="1.20641">
        <ele>1490.6</ele>
        <time>2022-05-22 16:11:54</time>
      </trkpt>
      <trkpt lat="42.36957" lon="1.20623">
        <ele>1489.4</ele>
        <time>2022-05-22 16:11:55</time>
      </trkpt>
      <trkpt lat="42.36952" lon="1.20605">
        <ele>1487.6</ele>
        <time>2022-05-22 16:11:56</time>
      </trkpt>
      <trkpt lat="42.36949" lon="1.20586">
        <ele>1486</ele>
        <time>2022-05-22 16:11:57</time>
      </trkpt>
      <trkpt lat="42.36948" lon="1.20565">
        <ele>1484.6</ele>
        <time>2022-05-22 16:11:58</time>
      </trkpt>
      <trkpt lat="42.36949" lon="1.20545">
        <ele>1483.2</ele>
        <time>2022-05-22 16:11:59</time>
      </trkpt>
      <trkpt lat="42.36951" lon="1.20525">
        <ele>1482</ele>
        <time>2022-05-22 16:12:00</time>
      </trkpt>
      <trkpt lat="42.36955" lon="1.20504">
        <ele>1480.8</ele>
        <time>2022-05-22 16:12:01</time>
      </trkpt>
      <trkpt lat="42.36961" lon="1.20485">
        <ele>1479.8</ele>
        <time>2022-05-22 16:12:02</time>
      </trkpt>
      <trkpt lat="42.36967" lon="1.20467">
        <ele>1478.8</ele>
        <time>2022-05-22 16:12:03</time>
      </trkpt>
      <trkpt lat="42.36973" lon="1.2045">
        <ele>1477.8</ele>
        <time>2022-05-22 16:12:04</time>
      </trkpt>
      <trkpt lat="42.36979" lon="1.20432">
        <ele>1477</ele>
        <time>2022-05-22 16:12:05</time>
      </trkpt>
      <trkpt lat="42.36985" lon="1.20415">
        <ele>1475.4</ele>
        <time>2022-05-22 16:12:06</time>
      </trkpt>
      <trkpt lat="42.3699" lon="1.20398">
        <ele>1474</ele>
        <time>2022-05-22 16:12:07</time>
      </trkpt>
      <trkpt lat="42.36994" lon="1.2038">
        <ele>1472.8</ele>
        <time>2022-05-22 16:12:08</time>
      </trkpt>
      <trkpt lat="42.36997" lon="1.20361">
        <ele>1471.4</ele>
        <time>2022-05-22 16:12:09</time>
      </trkpt>
      <trkpt lat="42.37" lon="1.20343">
        <ele>1469.8</ele>
        <time>2022-05-22 16:12:10</time>
      </trkpt>
      <trkpt lat="42.37001" lon="1.20324">
        <ele>1468.2</ele>
        <time>2022-05-22 16:12:11</time>
      </trkpt>
      <trkpt lat="42.37002" lon="1.20306">
        <ele>1467</ele>
        <time>2022-05-22 16:12:12</time>
      </trkpt>
      <trkpt lat="42.37002" lon="1.20289">
        <ele>1465.8</ele>
        <time>2022-05-22 16:12:13</time>
      </trkpt>
      <trkpt lat="42.37003" lon="1.20271">
        <ele>1464.8</ele>
        <time>2022-05-22 16:12:14</time>
      </trkpt>
      <trkpt lat="42.37003" lon="1.20254">
        <ele>1463.8</ele>
        <time>2022-05-22 16:12:15</time>
      </trkpt>
      <trkpt lat="42.37003" lon="1.20236">
        <ele>1463.2</ele>
        <time>2022-05-22 16:12:16</time>
      </trkpt>
      <trkpt lat="42.37003" lon="1.20219">
        <ele>1462.4</ele>
        <time>2022-05-22 16:12:17</time>
      </trkpt>
      <trkpt lat="42.37004" lon="1.20202">
        <ele>1461.2</ele>
        <time>2022-05-22 16:12:18</time>
      </trkpt>
      <trkpt lat="42.37004" lon="1.20183">
        <ele>1459.8</ele>
        <time>2022-05-22 16:12:19</time>
      </trkpt>
      <trkpt lat="42.37005" lon="1.20166">
        <ele>1458.4</ele>
        <time>2022-05-22 16:12:20</time>
      </trkpt>
      <trkpt lat="42.37005" lon="1.20149">
        <ele>1457.4</ele>
        <time>2022-05-22 16:12:21</time>
      </trkpt>
      <trkpt lat="42.37006" lon="1.20132">
        <ele>1456.6</ele>
        <time>2022-05-22 16:12:22</time>
      </trkpt>
      <trkpt lat="42.37007" lon="1.20116">
        <ele>1455.8</ele>
        <time>2022-05-22 16:12:23</time>
      </trkpt>
      <trkpt lat="42.37008" lon="1.201">
        <ele>1455</ele>
        <time>2022-05-22 16:12:24</time>
      </trkpt>
      <trkpt lat="42.37011" lon="1.20084">
        <ele>1454.2</ele>
        <time>2022-05-22 16:12:25</time>
      </trkpt>
      <trkpt lat="42.37014" lon="1.20068">
        <ele>1453.2</ele>
        <time>2022-05-22 16:12:26</time>
      </trkpt>
      <trkpt lat="42.37018" lon="1.20053">
        <ele>1452.2</ele>
        <time>2022-05-22 16:12:27</time>
      </trkpt>
      <trkpt lat="42.37021" lon="1.20039">
        <ele>1451.6</ele>
        <time>2022-05-22 16:12:28</time>
      </trkpt>
      <trkpt lat="42.37026" lon="1.20023">
        <ele>1450.8</ele>
        <time>2022-05-22 16:12:29</time>
      </trkpt>
      <trkpt lat="42.3703" lon="1.20008">
        <ele>1449.8</ele>
        <time>2022-05-22 16:12:30</time>
      </trkpt>
      <trkpt lat="42.37035" lon="1.19993">
        <ele>1448.8</ele>
        <time>2022-05-22 16:12:31</time>
      </trkpt>
      <trkpt lat="42.37039" lon="1.19978">
        <ele>1448.2</ele>
        <time>2022-05-22 16:12:32</time>
      </trkpt>
      <trkpt lat="42.37043" lon="1.19964">
        <ele>1447.6</ele>
        <time>2022-05-22 16:12:33</time>
      </trkpt>
      <trkpt lat="42.37049" lon="1.19947">
        <ele>1447</ele>
        <time>2022-05-22 16:12:34</time>
      </trkpt>
      <trkpt lat="42.37054" lon="1.19931">
        <ele>1446.2</ele>
        <time>2022-05-22 16:12:35</time>
      </trkpt>
      <trkpt lat="42.37059" lon="1.19915">
        <ele>1445.4</ele>
        <time>2022-05-22 16:12:36</time>
      </trkpt>
      <trkpt lat="42.37064" lon="1.199">
        <ele>1444.6</ele>
        <time>2022-05-22 16:12:37</time>
      </trkpt>
      <trkpt lat="42.37069" lon="1.19886">
        <ele>1444.2</ele>
        <time>2022-05-22 16:12:38</time>
      </trkpt>
      <trkpt lat="42.37073" lon="1.1987">
        <ele>1443.6</ele>
        <time>2022-05-22 16:12:39</time>
      </trkpt>
      <trkpt lat="42.37078" lon="1.19853">
        <ele>1443</ele>
        <time>2022-05-22 16:12:40</time>
      </trkpt>
      <trkpt lat="42.37083" lon="1.19839">
        <ele>1442.4</ele>
        <time>2022-05-22 16:12:41</time>
      </trkpt>
      <trkpt lat="42.37088" lon="1.19821">
        <ele>1441.8</ele>
        <time>2022-05-22 16:12:42</time>
      </trkpt>
      <trkpt lat="42.37093" lon="1.19803">
        <ele>1440.8</ele>
        <time>2022-05-22 16:12:43</time>
      </trkpt>
      <trkpt lat="42.37097" lon="1.19788">
        <ele>1440.2</ele>
        <time>2022-05-22 16:12:44</time>
      </trkpt>
      <trkpt lat="42.371" lon="1.19769">
        <ele>1439</ele>
        <time>2022-05-22 16:12:45</time>
      </trkpt>
      <trkpt lat="42.37102" lon="1.19749">
        <ele>1437.8</ele>
        <time>2022-05-22 16:12:46</time>
      </trkpt>
      <trkpt lat="42.37103" lon="1.19732">
        <ele>1436.8</ele>
        <time>2022-05-22 16:12:47</time>
      </trkpt>
      <trkpt lat="42.37104" lon="1.19716">
        <ele>1436</ele>
        <time>2022-05-22 16:12:48</time>
      </trkpt>
      <trkpt lat="42.37106" lon="1.19697">
        <ele>1434.8</ele>
        <time>2022-05-22 16:12:49</time>
      </trkpt>
      <trkpt lat="42.37108" lon="1.19676">
        <ele>1433.8</ele>
        <time>2022-05-22 16:12:50</time>
      </trkpt>
      <trkpt lat="42.37109" lon="1.19657">
        <ele>1433</ele>
        <time>2022-05-22 16:12:51</time>
      </trkpt>
      <trkpt lat="42.3711" lon="1.19641">
        <ele>1432.4</ele>
        <time>2022-05-22 16:12:52</time>
      </trkpt>
      <trkpt lat="42.37111" lon="1.19625">
        <ele>1431.6</ele>
        <time>2022-05-22 16:12:53</time>
      </trkpt>
      <trkpt lat="42.37113" lon="1.19607">
        <ele>1430.6</ele>
        <time>2022-05-22 16:12:54</time>
      </trkpt>
      <trkpt lat="42.37117" lon="1.19587">
        <ele>1429.2</ele>
        <time>2022-05-22 16:12:55</time>
      </trkpt>
      <trkpt lat="42.3712" lon="1.19571">
        <ele>1428</ele>
        <time>2022-05-22 16:12:56</time>
      </trkpt>
      <trkpt lat="42.37124" lon="1.19557">
        <ele>1427</ele>
        <time>2022-05-22 16:12:57</time>
      </trkpt>
      <trkpt lat="42.37133" lon="1.19533">
        <ele>1425.8</ele>
        <time>2022-05-22 16:12:58</time>
      </trkpt>
      <trkpt lat="42.3714" lon="1.19519">
        <ele>1425</ele>
        <time>2022-05-22 16:12:59</time>
      </trkpt>
      <trkpt lat="42.37148" lon="1.19504">
        <ele>1423.8</ele>
        <time>2022-05-22 16:13:00</time>
      </trkpt>
      <trkpt lat="42.37158" lon="1.19488">
        <ele>1422.8</ele>
        <time>2022-05-22 16:13:01</time>
      </trkpt>
      <trkpt lat="42.37167" lon="1.19473">
        <ele>1421.8</ele>
        <time>2022-05-22 16:13:02</time>
      </trkpt>
      <trkpt lat="42.37175" lon="1.19458">
        <ele>1421</ele>
        <time>2022-05-22 16:13:03</time>
      </trkpt>
      <trkpt lat="42.37183" lon="1.19442">
        <ele>1420.2</ele>
        <time>2022-05-22 16:13:04</time>
      </trkpt>
      <trkpt lat="42.37189" lon="1.19423">
        <ele>1419</ele>
        <time>2022-05-22 16:13:05</time>
      </trkpt>
      <trkpt lat="42.37194" lon="1.19405">
        <ele>1418</ele>
        <time>2022-05-22 16:13:06</time>
      </trkpt>
      <trkpt lat="42.37198" lon="1.19386">
        <ele>1417</ele>
        <time>2022-05-22 16:13:07</time>
      </trkpt>
      <trkpt lat="42.37201" lon="1.19371">
        <ele>1415.8</ele>
        <time>2022-05-22 16:13:08</time>
      </trkpt>
      <trkpt lat="42.37202" lon="1.19356">
        <ele>1414.6</ele>
        <time>2022-05-22 16:13:09</time>
      </trkpt>
      <trkpt lat="42.37206" lon="1.19335">
        <ele>1413.4</ele>
        <time>2022-05-22 16:13:10</time>
      </trkpt>
      <trkpt lat="42.37209" lon="1.19316">
        <ele>1412.4</ele>
        <time>2022-05-22 16:13:11</time>
      </trkpt>
      <trkpt lat="42.37214" lon="1.19298">
        <ele>1411.4</ele>
        <time>2022-05-22 16:13:12</time>
      </trkpt>
      <trkpt lat="42.37219" lon="1.19283">
        <ele>1410.4</ele>
        <time>2022-05-22 16:13:13</time>
      </trkpt>
      <trkpt lat="42.37226" lon="1.19267">
        <ele>1409.4</ele>
        <time>2022-05-22 16:13:14</time>
      </trkpt>
      <trkpt lat="42.37235" lon="1.19251">
        <ele>1408.6</ele>
        <time>2022-05-22 16:13:15</time>
      </trkpt>
      <trkpt lat="42.37243" lon="1.19239">
        <ele>1407.8</ele>
        <time>2022-05-22 16:13:16</time>
      </trkpt>
      <trkpt lat="42.37252" lon="1.19227">
        <ele>1406.8</ele>
        <time>2022-05-22 16:13:17</time>
      </trkpt>
      <trkpt lat="42.37263" lon="1.19211">
        <ele>1405.4</ele>
        <time>2022-05-22 16:13:18</time>
      </trkpt>
      <trkpt lat="42.37272" lon="1.19196">
        <ele>1404.8</ele>
        <time>2022-05-22 16:13:19</time>
      </trkpt>
      <trkpt lat="42.37283" lon="1.19184">
        <ele>1404</ele>
        <time>2022-05-22 16:13:20</time>
      </trkpt>
      <trkpt lat="42.37293" lon="1.19173">
        <ele>1403.4</ele>
        <time>2022-05-22 16:13:21</time>
      </trkpt>
      <trkpt lat="42.37305" lon="1.19164">
        <ele>1403</ele>
        <time>2022-05-22 16:13:22</time>
      </trkpt>
      <trkpt lat="42.37317" lon="1.19158">
        <ele>1402.4</ele>
        <time>2022-05-22 16:13:23</time>
      </trkpt>
      <trkpt lat="42.37328" lon="1.19157">
        <ele>1401.6</ele>
        <time>2022-05-22 16:13:24</time>
      </trkpt>
      <trkpt lat="42.37341" lon="1.19161">
        <ele>1401.2</ele>
        <time>2022-05-22 16:13:25</time>
      </trkpt>
      <trkpt lat="42.37355" lon="1.19169">
        <ele>1400.6</ele>
        <time>2022-05-22 16:13:26</time>
      </trkpt>
      <trkpt lat="42.37366" lon="1.19177">
        <ele>1400.2</ele>
        <time>2022-05-22 16:13:27</time>
      </trkpt>
      <trkpt lat="42.37378" lon="1.19187">
        <ele>1399.8</ele>
        <time>2022-05-22 16:13:28</time>
      </trkpt>
      <trkpt lat="42.37388" lon="1.19198">
        <ele>1399.2</ele>
        <time>2022-05-22 16:13:29</time>
      </trkpt>
      <trkpt lat="42.37398" lon="1.19207">
        <ele>1399</ele>
        <time>2022-05-22 16:13:30</time>
      </trkpt>
      <trkpt lat="42.37408" lon="1.19218">
        <ele>1398.8</ele>
        <time>2022-05-22 16:13:31</time>
      </trkpt>
      <trkpt lat="42.37418" lon="1.19228">
        <ele>1398.6</ele>
        <time>2022-05-22 16:13:32</time>
      </trkpt>
      <trkpt lat="42.37427" lon="1.19238">
        <ele>1398.2</ele>
        <time>2022-05-22 16:13:33</time>
      </trkpt>
      <trkpt lat="42.37437" lon="1.19248">
        <ele>1398</ele>
        <time>2022-05-22 16:13:34</time>
      </trkpt>
      <trkpt lat="42.37446" lon="1.19257">
        <ele>1397.8</ele>
        <time>2022-05-22 16:13:35</time>
      </trkpt>
      <trkpt lat="42.37457" lon="1.19268">
        <ele>1397.6</ele>
        <time>2022-05-22 16:13:36</time>
      </trkpt>
      <trkpt lat="42.37467" lon="1.19277">
        <ele>1397.2</ele>
        <time>2022-05-22 16:13:37</time>
      </trkpt>
      <trkpt lat="42.37476" lon="1.19287">
        <ele>1396.8</ele>
        <time>2022-05-22 16:13:38</time>
      </trkpt>
      <trkpt lat="42.37485" lon="1.19294">
        <ele>1396.6</ele>
        <time>2022-05-22 16:13:39</time>
      </trkpt>
      <trkpt lat="42.37496" lon="1.19302">
        <ele>1396.4</ele>
        <time>2022-05-22 16:13:40</time>
      </trkpt>
      <trkpt lat="42.37507" lon="1.19308">
        <ele>1396</ele>
        <time>2022-05-22 16:13:41</time>
      </trkpt>
      <trkpt lat="42.37518" lon="1.19311">
        <ele>1395.4</ele>
        <time>2022-05-22 16:13:42</time>
      </trkpt>
      <trkpt lat="42.37529" lon="1.19312">
        <ele>1394.8</ele>
        <time>2022-05-22 16:13:43</time>
      </trkpt>
      <trkpt lat="42.37543" lon="1.19308">
        <ele>1394.2</ele>
        <time>2022-05-22 16:13:44</time>
      </trkpt>
      <trkpt lat="42.37553" lon="1.19302">
        <ele>1394</ele>
        <time>2022-05-22 16:13:45</time>
      </trkpt>
      <trkpt lat="42.37564" lon="1.19293">
        <ele>1393.8</ele>
        <time>2022-05-22 16:13:46</time>
      </trkpt>
      <trkpt lat="42.37574" lon="1.19281">
        <ele>1393.8</ele>
        <time>2022-05-22 16:13:47</time>
      </trkpt>
      <trkpt lat="42.37581" lon="1.19269">
        <ele>1393.8</ele>
        <time>2022-05-22 16:13:48</time>
      </trkpt>
      <trkpt lat="42.37587" lon="1.19256">
        <ele>1393.6</ele>
        <time>2022-05-22 16:13:49</time>
      </trkpt>
      <trkpt lat="42.37592" lon="1.19244">
        <ele>1393.4</ele>
        <time>2022-05-22 16:13:50</time>
      </trkpt>
      <trkpt lat="42.37596" lon="1.19228">
        <ele>1393</ele>
        <time>2022-05-22 16:13:51</time>
      </trkpt>
      <trkpt lat="42.37598" lon="1.19212">
        <ele>1392.4</ele>
        <time>2022-05-22 16:13:52</time>
      </trkpt>
      <trkpt lat="42.37597" lon="1.19198">
        <ele>1392</ele>
        <time>2022-05-22 16:13:53</time>
      </trkpt>
      <trkpt lat="42.37596" lon="1.19183">
        <ele>1391.6</ele>
        <time>2022-05-22 16:13:54</time>
      </trkpt>
      <trkpt lat="42.37593" lon="1.19169">
        <ele>1391.4</ele>
        <time>2022-05-22 16:13:55</time>
      </trkpt>
      <trkpt lat="42.37589" lon="1.19155">
        <ele>1391</ele>
        <time>2022-05-22 16:13:56</time>
      </trkpt>
      <trkpt lat="42.37583" lon="1.19141">
        <ele>1390.6</ele>
        <time>2022-05-22 16:13:57</time>
      </trkpt>
      <trkpt lat="42.37576" lon="1.19128">
        <ele>1390.2</ele>
        <time>2022-05-22 16:13:58</time>
      </trkpt>
      <trkpt lat="42.37571" lon="1.19116">
        <ele>1389.8</ele>
        <time>2022-05-22 16:13:59</time>
      </trkpt>
      <trkpt lat="42.37565" lon="1.19103">
        <ele>1389.2</ele>
        <time>2022-05-22 16:14:00</time>
      </trkpt>
      <trkpt lat="42.37559" lon="1.1909">
        <ele>1388.8</ele>
        <time>2022-05-22 16:14:01</time>
      </trkpt>
      <trkpt lat="42.37554" lon="1.19077">
        <ele>1388.4</ele>
        <time>2022-05-22 16:14:02</time>
      </trkpt>
      <trkpt lat="42.37548" lon="1.19063">
        <ele>1388.2</ele>
        <time>2022-05-22 16:14:03</time>
      </trkpt>
      <trkpt lat="42.37543" lon="1.19052">
        <ele>1388</ele>
        <time>2022-05-22 16:14:04</time>
      </trkpt>
      <trkpt lat="42.37535" lon="1.1904">
        <ele>1387.8</ele>
        <time>2022-05-22 16:14:05</time>
      </trkpt>
      <trkpt lat="42.37528" lon="1.19031">
        <ele>1387.4</ele>
        <time>2022-05-22 16:14:06</time>
      </trkpt>
      <trkpt lat="42.37517" lon="1.19021">
        <ele>1387</ele>
        <time>2022-05-22 16:14:07</time>
      </trkpt>
      <trkpt lat="42.37507" lon="1.19014">
        <ele>1386.6</ele>
        <time>2022-05-22 16:14:08</time>
      </trkpt>
      <trkpt lat="42.37494" lon="1.19007">
        <ele>1385.8</ele>
        <time>2022-05-22 16:14:09</time>
      </trkpt>
      <trkpt lat="42.37483" lon="1.19003">
        <ele>1385.2</ele>
        <time>2022-05-22 16:14:10</time>
      </trkpt>
      <trkpt lat="42.37473" lon="1.19">
        <ele>1384.6</ele>
        <time>2022-05-22 16:14:11</time>
      </trkpt>
      <trkpt lat="42.3746" lon="1.18996">
        <ele>1383.6</ele>
        <time>2022-05-22 16:14:12</time>
      </trkpt>
      <trkpt lat="42.37449" lon="1.18992">
        <ele>1382.8</ele>
        <time>2022-05-22 16:14:13</time>
      </trkpt>
      <trkpt lat="42.37437" lon="1.18989">
        <ele>1381.6</ele>
        <time>2022-05-22 16:14:14</time>
      </trkpt>
      <trkpt lat="42.37426" lon="1.18985">
        <ele>1380.4</ele>
        <time>2022-05-22 16:14:15</time>
      </trkpt>
      <trkpt lat="42.37413" lon="1.18982">
        <ele>1379.4</ele>
        <time>2022-05-22 16:14:16</time>
      </trkpt>
      <trkpt lat="42.374" lon="1.18977">
        <ele>1378.6</ele>
        <time>2022-05-22 16:14:17</time>
      </trkpt>
      <trkpt lat="42.37387" lon="1.18971">
        <ele>1378</ele>
        <time>2022-05-22 16:14:18</time>
      </trkpt>
      <trkpt lat="42.37374" lon="1.18964">
        <ele>1377.2</ele>
        <time>2022-05-22 16:14:19</time>
      </trkpt>
      <trkpt lat="42.37363" lon="1.18956">
        <ele>1376.2</ele>
        <time>2022-05-22 16:14:20</time>
      </trkpt>
      <trkpt lat="42.37352" lon="1.18945">
        <ele>1374.8</ele>
        <time>2022-05-22 16:14:21</time>
      </trkpt>
      <trkpt lat="42.37345" lon="1.18933">
        <ele>1373.6</ele>
        <time>2022-05-22 16:14:22</time>
      </trkpt>
      <trkpt lat="42.37339" lon="1.18917">
        <ele>1372.4</ele>
        <time>2022-05-22 16:14:23</time>
      </trkpt>
      <trkpt lat="42.37336" lon="1.18899">
        <ele>1371.2</ele>
        <time>2022-05-22 16:14:24</time>
      </trkpt>
      <trkpt lat="42.37335" lon="1.1888">
        <ele>1370</ele>
        <time>2022-05-22 16:14:25</time>
      </trkpt>
      <trkpt lat="42.37336" lon="1.1886">
        <ele>1368.6</ele>
        <time>2022-05-22 16:14:26</time>
      </trkpt>
      <trkpt lat="42.37337" lon="1.18841">
        <ele>1367.4</ele>
        <time>2022-05-22 16:14:27</time>
      </trkpt>
      <trkpt lat="42.37338" lon="1.18822">
        <ele>1366.2</ele>
        <time>2022-05-22 16:14:28</time>
      </trkpt>
      <trkpt lat="42.37339" lon="1.18804">
        <ele>1365</ele>
        <time>2022-05-22 16:14:29</time>
      </trkpt>
      <trkpt lat="42.37339" lon="1.18783">
        <ele>1364</ele>
        <time>2022-05-22 16:14:30</time>
      </trkpt>
      <trkpt lat="42.3734" lon="1.18762">
        <ele>1362.8</ele>
        <time>2022-05-22 16:14:31</time>
      </trkpt>
      <trkpt lat="42.3734" lon="1.18744">
        <ele>1361.4</ele>
        <time>2022-05-22 16:14:32</time>
      </trkpt>
      <trkpt lat="42.3734" lon="1.18726">
        <ele>1360.4</ele>
        <time>2022-05-22 16:14:33</time>
      </trkpt>
      <trkpt lat="42.3734" lon="1.18709">
        <ele>1359.4</ele>
        <time>2022-05-22 16:14:34</time>
      </trkpt>
      <trkpt lat="42.3734" lon="1.1869">
        <ele>1358.6</ele>
        <time>2022-05-22 16:14:35</time>
      </trkpt>
      <trkpt lat="42.3734" lon="1.18672">
        <ele>1357.8</ele>
        <time>2022-05-22 16:14:36</time>
      </trkpt>
      <trkpt lat="42.3734" lon="1.18656">
        <ele>1357.2</ele>
        <time>2022-05-22 16:14:37</time>
      </trkpt>
      <trkpt lat="42.3734" lon="1.18637">
        <ele>1356.6</ele>
        <time>2022-05-22 16:14:38</time>
      </trkpt>
      <trkpt lat="42.37341" lon="1.18621">
        <ele>1356.2</ele>
        <time>2022-05-22 16:14:39</time>
      </trkpt>
      <trkpt lat="42.37341" lon="1.18605">
        <ele>1355.6</ele>
        <time>2022-05-22 16:14:40</time>
      </trkpt>
      <trkpt lat="42.37343" lon="1.18588">
        <ele>1355.2</ele>
        <time>2022-05-22 16:14:41</time>
      </trkpt>
      <trkpt lat="42.37345" lon="1.18573">
        <ele>1355</ele>
        <time>2022-05-22 16:14:42</time>
      </trkpt>
      <trkpt lat="42.37347" lon="1.18559">
        <ele>1354.6</ele>
        <time>2022-05-22 16:14:43</time>
      </trkpt>
      <trkpt lat="42.37349" lon="1.18544">
        <ele>1354.4</ele>
        <time>2022-05-22 16:14:44</time>
      </trkpt>
      <trkpt lat="42.37352" lon="1.18527">
        <ele>1354</ele>
        <time>2022-05-22 16:14:45</time>
      </trkpt>
      <trkpt lat="42.37354" lon="1.18513">
        <ele>1353.6</ele>
        <time>2022-05-22 16:14:46</time>
      </trkpt>
      <trkpt lat="42.37356" lon="1.18498">
        <ele>1353.4</ele>
        <time>2022-05-22 16:14:47</time>
      </trkpt>
      <trkpt lat="42.3736" lon="1.18485">
        <ele>1353</ele>
        <time>2022-05-22 16:14:48</time>
      </trkpt>
      <trkpt lat="42.37364" lon="1.18471">
        <ele>1352.8</ele>
        <time>2022-05-22 16:14:49</time>
      </trkpt>
      <trkpt lat="42.37369" lon="1.18457">
        <ele>1352.4</ele>
        <time>2022-05-22 16:14:50</time>
      </trkpt>
      <trkpt lat="42.37374" lon="1.18443">
        <ele>1352</ele>
        <time>2022-05-22 16:14:51</time>
      </trkpt>
      <trkpt lat="42.37379" lon="1.18432">
        <ele>1351.6</ele>
        <time>2022-05-22 16:14:52</time>
      </trkpt>
      <trkpt lat="42.37385" lon="1.1842">
        <ele>1351.2</ele>
        <time>2022-05-22 16:14:53</time>
      </trkpt>
      <trkpt lat="42.37391" lon="1.18409">
        <ele>1351</ele>
        <time>2022-05-22 16:14:54</time>
      </trkpt>
      <trkpt lat="42.37397" lon="1.18399">
        <ele>1350.8</ele>
        <time>2022-05-22 16:14:55</time>
      </trkpt>
      <trkpt lat="42.37402" lon="1.18388">
        <ele>1350.4</ele>
        <time>2022-05-22 16:14:56</time>
      </trkpt>
      <trkpt lat="42.37408" lon="1.18378">
        <ele>1350.2</ele>
        <time>2022-05-22 16:14:57</time>
      </trkpt>
      <trkpt lat="42.37414" lon="1.18369">
        <ele>1350</ele>
        <time>2022-05-22 16:14:58</time>
      </trkpt>
      <trkpt lat="42.37421" lon="1.18359">
        <ele>1349.8</ele>
        <time>2022-05-22 16:14:59</time>
      </trkpt>
      <trkpt lat="42.37428" lon="1.18349">
        <ele>1349.6</ele>
        <time>2022-05-22 16:15:00</time>
      </trkpt>
      <trkpt lat="42.37434" lon="1.18338">
        <ele>1349.2</ele>
        <time>2022-05-22 16:15:01</time>
      </trkpt>
      <trkpt lat="42.3744" lon="1.18328">
        <ele>1348.8</ele>
        <time>2022-05-22 16:15:02</time>
      </trkpt>
      <trkpt lat="42.37446" lon="1.18317">
        <ele>1348.6</ele>
        <time>2022-05-22 16:15:03</time>
      </trkpt>
      <trkpt lat="42.37451" lon="1.18306">
        <ele>1348.2</ele>
        <time>2022-05-22 16:15:04</time>
      </trkpt>
      <trkpt lat="42.37456" lon="1.18295">
        <ele>1348</ele>
        <time>2022-05-22 16:15:05</time>
      </trkpt>
      <trkpt lat="42.3746" lon="1.18285">
        <ele>1347.8</ele>
        <time>2022-05-22 16:15:06</time>
      </trkpt>
      <trkpt lat="42.37463" lon="1.18273">
        <ele>1347.8</ele>
        <time>2022-05-22 16:15:07</time>
      </trkpt>
      <trkpt lat="42.37465" lon="1.1826">
        <ele>1347.6</ele>
        <time>2022-05-22 16:15:08</time>
      </trkpt>
      <trkpt lat="42.37466" lon="1.18246">
        <ele>1347.4</ele>
        <time>2022-05-22 16:15:09</time>
      </trkpt>
      <trkpt lat="42.37466" lon="1.18232">
        <ele>1347</ele>
        <time>2022-05-22 16:15:10</time>
      </trkpt>
      <trkpt lat="42.37466" lon="1.18217">
        <ele>1346.6</ele>
        <time>2022-05-22 16:15:11</time>
      </trkpt>
      <trkpt lat="42.37463" lon="1.18202">
        <ele>1346</ele>
        <time>2022-05-22 16:15:12</time>
      </trkpt>
      <trkpt lat="42.3746" lon="1.18188">
        <ele>1345.4</ele>
        <time>2022-05-22 16:15:13</time>
      </trkpt>
      <trkpt lat="42.37457" lon="1.18174">
        <ele>1344.8</ele>
        <time>2022-05-22 16:15:14</time>
      </trkpt>
      <trkpt lat="42.37453" lon="1.18162">
        <ele>1344.2</ele>
        <time>2022-05-22 16:15:15</time>
      </trkpt>
      <trkpt lat="42.3745" lon="1.1815">
        <ele>1343.8</ele>
        <time>2022-05-22 16:15:16</time>
      </trkpt>
      <trkpt lat="42.37447" lon="1.18137">
        <ele>1343.6</ele>
        <time>2022-05-22 16:15:17</time>
      </trkpt>
      <trkpt lat="42.37444" lon="1.18126">
        <ele>1343.4</ele>
        <time>2022-05-22 16:15:18</time>
      </trkpt>
      <trkpt lat="42.37439" lon="1.18109">
        <ele>1342.8</ele>
        <time>2022-05-22 16:15:19</time>
      </trkpt>
      <trkpt lat="42.37435" lon="1.18097">
        <ele>1342.6</ele>
        <time>2022-05-22 16:15:20</time>
      </trkpt>
      <trkpt lat="42.37431" lon="1.18084">
        <ele>1342</ele>
        <time>2022-05-22 16:15:21</time>
      </trkpt>
      <trkpt lat="42.37427" lon="1.18072">
        <ele>1341.6</ele>
        <time>2022-05-22 16:15:22</time>
      </trkpt>
      <trkpt lat="42.37424" lon="1.18059">
        <ele>1341</ele>
        <time>2022-05-22 16:15:23</time>
      </trkpt>
      <trkpt lat="42.37422" lon="1.18048">
        <ele>1340.8</ele>
        <time>2022-05-22 16:15:24</time>
      </trkpt>
      <trkpt lat="42.3742" lon="1.18036">
        <ele>1340.6</ele>
        <time>2022-05-22 16:15:25</time>
      </trkpt>
      <trkpt lat="42.3742" lon="1.18024">
        <ele>1340.2</ele>
        <time>2022-05-22 16:15:26</time>
      </trkpt>
      <trkpt lat="42.37419" lon="1.18013">
        <ele>1339.8</ele>
        <time>2022-05-22 16:15:27</time>
      </trkpt>
      <trkpt lat="42.37418" lon="1.18001">
        <ele>1339.4</ele>
        <time>2022-05-22 16:15:28</time>
      </trkpt>
      <trkpt lat="42.37418" lon="1.17988">
        <ele>1339.4</ele>
        <time>2022-05-22 16:15:29</time>
      </trkpt>
      <trkpt lat="42.37418" lon="1.17975">
        <ele>1339</ele>
        <time>2022-05-22 16:15:30</time>
      </trkpt>
      <trkpt lat="42.37419" lon="1.17964">
        <ele>1338.4</ele>
        <time>2022-05-22 16:15:31</time>
      </trkpt>
      <trkpt lat="42.37419" lon="1.17952">
        <ele>1338.2</ele>
        <time>2022-05-22 16:15:32</time>
      </trkpt>
      <trkpt lat="42.3742" lon="1.1794">
        <ele>1337.8</ele>
        <time>2022-05-22 16:15:33</time>
      </trkpt>
      <trkpt lat="42.37422" lon="1.17928">
        <ele>1337.4</ele>
        <time>2022-05-22 16:15:34</time>
      </trkpt>
      <trkpt lat="42.37423" lon="1.17917">
        <ele>1337.2</ele>
        <time>2022-05-22 16:15:35</time>
      </trkpt>
      <trkpt lat="42.37425" lon="1.17906">
        <ele>1336.6</ele>
        <time>2022-05-22 16:15:36</time>
      </trkpt>
      <trkpt lat="42.37428" lon="1.17896">
        <ele>1336.2</ele>
        <time>2022-05-22 16:15:37</time>
      </trkpt>
      <trkpt lat="42.3743" lon="1.17885">
        <ele>1336</ele>
        <time>2022-05-22 16:15:38</time>
      </trkpt>
      <trkpt lat="42.37433" lon="1.17875">
        <ele>1335.8</ele>
        <time>2022-05-22 16:15:39</time>
      </trkpt>
      <trkpt lat="42.37436" lon="1.17865">
        <ele>1335.2</ele>
        <time>2022-05-22 16:15:40</time>
      </trkpt>
      <trkpt lat="42.37439" lon="1.17856">
        <ele>1335</ele>
        <time>2022-05-22 16:15:41</time>
      </trkpt>
      <trkpt lat="42.37443" lon="1.17846">
        <ele>1334.6</ele>
        <time>2022-05-22 16:15:42</time>
      </trkpt>
      <trkpt lat="42.37447" lon="1.17837">
        <ele>1334.4</ele>
        <time>2022-05-22 16:15:43</time>
      </trkpt>
      <trkpt lat="42.3745" lon="1.17828">
        <ele>1334</ele>
        <time>2022-05-22 16:15:44</time>
      </trkpt>
      <trkpt lat="42.37453" lon="1.17818">
        <ele>1333.6</ele>
        <time>2022-05-22 16:15:45</time>
      </trkpt>
      <trkpt lat="42.37457" lon="1.17809">
        <ele>1333.2</ele>
        <time>2022-05-22 16:15:46</time>
      </trkpt>
      <trkpt lat="42.37461" lon="1.17801">
        <ele>1332.8</ele>
        <time>2022-05-22 16:15:47</time>
      </trkpt>
      <trkpt lat="42.37464" lon="1.17791">
        <ele>1332.4</ele>
        <time>2022-05-22 16:15:48</time>
      </trkpt>
      <trkpt lat="42.37468" lon="1.17782">
        <ele>1332</ele>
        <time>2022-05-22 16:15:49</time>
      </trkpt>
      <trkpt lat="42.37471" lon="1.17773">
        <ele>1331.8</ele>
        <time>2022-05-22 16:15:50</time>
      </trkpt>
      <trkpt lat="42.37475" lon="1.17764">
        <ele>1331.2</ele>
        <time>2022-05-22 16:15:51</time>
      </trkpt>
      <trkpt lat="42.37478" lon="1.17754">
        <ele>1330.8</ele>
        <time>2022-05-22 16:15:52</time>
      </trkpt>
      <trkpt lat="42.37482" lon="1.17745">
        <ele>1330.4</ele>
        <time>2022-05-22 16:15:53</time>
      </trkpt>
      <trkpt lat="42.37485" lon="1.17736">
        <ele>1330.4</ele>
        <time>2022-05-22 16:15:54</time>
      </trkpt>
      <trkpt lat="42.37488" lon="1.17726">
        <ele>1330.2</ele>
        <time>2022-05-22 16:15:55</time>
      </trkpt>
      <trkpt lat="42.37491" lon="1.17718">
        <ele>1330.2</ele>
        <time>2022-05-22 16:15:56</time>
      </trkpt>
      <trkpt lat="42.37494" lon="1.17709">
        <ele>1330</ele>
        <time>2022-05-22 16:15:57</time>
      </trkpt>
      <trkpt lat="42.37497" lon="1.177">
        <ele>1330</ele>
        <time>2022-05-22 16:15:58</time>
      </trkpt>
      <trkpt lat="42.37499" lon="1.1769">
        <ele>1330</ele>
        <time>2022-05-22 16:15:59</time>
      </trkpt>
      <trkpt lat="42.37501" lon="1.17681">
        <ele>1330</ele>
        <time>2022-05-22 16:16:00</time>
      </trkpt>
      <trkpt lat="42.37503" lon="1.17671">
        <ele>1330</ele>
        <time>2022-05-22 16:16:01</time>
      </trkpt>
      <trkpt lat="42.37504" lon="1.17662">
        <ele>1330</ele>
        <time>2022-05-22 16:16:02</time>
      </trkpt>
      <trkpt lat="42.37506" lon="1.17652">
        <ele>1330</ele>
        <time>2022-05-22 16:16:03</time>
      </trkpt>
      <trkpt lat="42.37507" lon="1.17643">
        <ele>1330.2</ele>
        <time>2022-05-22 16:16:04</time>
      </trkpt>
      <trkpt lat="42.37508" lon="1.17633">
        <ele>1330</ele>
        <time>2022-05-22 16:16:05</time>
      </trkpt>
      <trkpt lat="42.37509" lon="1.17623">
        <ele>1330</ele>
        <time>2022-05-22 16:16:06</time>
      </trkpt>
      <trkpt lat="42.37509" lon="1.17614">
        <ele>1329.8</ele>
        <time>2022-05-22 16:16:07</time>
      </trkpt>
      <trkpt lat="42.3751" lon="1.17604">
        <ele>1329.6</ele>
        <time>2022-05-22 16:16:08</time>
      </trkpt>
      <trkpt lat="42.3751" lon="1.17594">
        <ele>1329.6</ele>
        <time>2022-05-22 16:16:09</time>
      </trkpt>
      <trkpt lat="42.37511" lon="1.17584">
        <ele>1329.4</ele>
        <time>2022-05-22 16:16:10</time>
      </trkpt>
      <trkpt lat="42.37511" lon="1.17574">
        <ele>1329.2</ele>
        <time>2022-05-22 16:16:11</time>
      </trkpt>
      <trkpt lat="42.37512" lon="1.17564">
        <ele>1329</ele>
        <time>2022-05-22 16:16:12</time>
      </trkpt>
      <trkpt lat="42.37512" lon="1.17554">
        <ele>1329</ele>
        <time>2022-05-22 16:16:13</time>
      </trkpt>
      <trkpt lat="42.37513" lon="1.17545">
        <ele>1328.8</ele>
        <time>2022-05-22 16:16:14</time>
      </trkpt>
      <trkpt lat="42.37513" lon="1.17535">
        <ele>1328.6</ele>
        <time>2022-05-22 16:16:15</time>
      </trkpt>
      <trkpt lat="42.37514" lon="1.17525">
        <ele>1328.4</ele>
        <time>2022-05-22 16:16:16</time>
      </trkpt>
      <trkpt lat="42.37514" lon="1.17515">
        <ele>1328.2</ele>
        <time>2022-05-22 16:16:17</time>
      </trkpt>
      <trkpt lat="42.37516" lon="1.17506">
        <ele>1328</ele>
        <time>2022-05-22 16:16:18</time>
      </trkpt>
      <trkpt lat="42.37517" lon="1.17497">
        <ele>1327.8</ele>
        <time>2022-05-22 16:16:19</time>
      </trkpt>
      <trkpt lat="42.37518" lon="1.17487">
        <ele>1327.6</ele>
        <time>2022-05-22 16:16:20</time>
      </trkpt>
      <trkpt lat="42.37519" lon="1.17478">
        <ele>1327.6</ele>
        <time>2022-05-22 16:16:21</time>
      </trkpt>
      <trkpt lat="42.37521" lon="1.17468">
        <ele>1327.4</ele>
        <time>2022-05-22 16:16:22</time>
      </trkpt>
      <trkpt lat="42.37523" lon="1.17459">
        <ele>1327.2</ele>
        <time>2022-05-22 16:16:23</time>
      </trkpt>
      <trkpt lat="42.37525" lon="1.1745">
        <ele>1327</ele>
        <time>2022-05-22 16:16:24</time>
      </trkpt>
      <trkpt lat="42.37528" lon="1.17441">
        <ele>1326.8</ele>
        <time>2022-05-22 16:16:25</time>
      </trkpt>
      <trkpt lat="42.3753" lon="1.17431">
        <ele>1326.6</ele>
        <time>2022-05-22 16:16:26</time>
      </trkpt>
      <trkpt lat="42.37533" lon="1.17422">
        <ele>1326.4</ele>
        <time>2022-05-22 16:16:27</time>
      </trkpt>
      <trkpt lat="42.37536" lon="1.17414">
        <ele>1326.2</ele>
        <time>2022-05-22 16:16:28</time>
      </trkpt>
      <trkpt lat="42.37538" lon="1.17406">
        <ele>1326</ele>
        <time>2022-05-22 16:16:29</time>
      </trkpt>
      <trkpt lat="42.37541" lon="1.174">
        <ele>1325.8</ele>
        <time>2022-05-22 16:16:30</time>
      </trkpt>
      <trkpt lat="42.37545" lon="1.17388">
        <ele>1325.6</ele>
        <time>2022-05-22 16:16:31</time>
      </trkpt>
      <trkpt lat="42.37549" lon="1.1738">
        <ele>1325.6</ele>
        <time>2022-05-22 16:16:32</time>
      </trkpt>
      <trkpt lat="42.37552" lon="1.17372">
        <ele>1325.4</ele>
        <time>2022-05-22 16:16:33</time>
      </trkpt>
      <trkpt lat="42.37556" lon="1.17364">
        <ele>1325.2</ele>
        <time>2022-05-22 16:16:34</time>
      </trkpt>
      <trkpt lat="42.3756" lon="1.17357">
        <ele>1325.2</ele>
        <time>2022-05-22 16:16:35</time>
      </trkpt>
      <trkpt lat="42.37563" lon="1.17349">
        <ele>1325</ele>
        <time>2022-05-22 16:16:36</time>
      </trkpt>
      <trkpt lat="42.37567" lon="1.17342">
        <ele>1325</ele>
        <time>2022-05-22 16:16:37</time>
      </trkpt>
      <trkpt lat="42.3757" lon="1.17335">
        <ele>1325</ele>
        <time>2022-05-22 16:16:38</time>
      </trkpt>
      <trkpt lat="42.37574" lon="1.17328">
        <ele>1325</ele>
        <time>2022-05-22 16:16:39</time>
      </trkpt>
      <trkpt lat="42.37578" lon="1.17321">
        <ele>1325</ele>
        <time>2022-05-22 16:16:40</time>
      </trkpt>
      <trkpt lat="42.37581" lon="1.17314">
        <ele>1325</ele>
        <time>2022-05-22 16:16:41</time>
      </trkpt>
      <trkpt lat="42.37585" lon="1.17307">
        <ele>1324.8</ele>
        <time>2022-05-22 16:16:42</time>
      </trkpt>
      <trkpt lat="42.37588" lon="1.17301">
        <ele>1324.8</ele>
        <time>2022-05-22 16:16:43</time>
      </trkpt>
      <trkpt lat="42.3759" lon="1.17294">
        <ele>1324.8</ele>
        <time>2022-05-22 16:16:44</time>
      </trkpt>
      <trkpt lat="42.37593" lon="1.17287">
        <ele>1324.8</ele>
        <time>2022-05-22 16:16:45</time>
      </trkpt>
      <trkpt lat="42.37595" lon="1.1728">
        <ele>1324.8</ele>
        <time>2022-05-22 16:16:46</time>
      </trkpt>
      <trkpt lat="42.37597" lon="1.17273">
        <ele>1324.8</ele>
        <time>2022-05-22 16:16:47</time>
      </trkpt>
      <trkpt lat="42.37599" lon="1.17265">
        <ele>1324.8</ele>
        <time>2022-05-22 16:16:48</time>
      </trkpt>
      <trkpt lat="42.37602" lon="1.17257">
        <ele>1324.8</ele>
        <time>2022-05-22 16:16:49</time>
      </trkpt>
      <trkpt lat="42.37604" lon="1.1725">
        <ele>1324.6</ele>
        <time>2022-05-22 16:16:50</time>
      </trkpt>
      <trkpt lat="42.37606" lon="1.17243">
        <ele>1324.6</ele>
        <time>2022-05-22 16:16:51</time>
      </trkpt>
      <trkpt lat="42.37608" lon="1.17235">
        <ele>1324.4</ele>
        <time>2022-05-22 16:16:52</time>
      </trkpt>
      <trkpt lat="42.3761" lon="1.17227">
        <ele>1324.4</ele>
        <time>2022-05-22 16:16:53</time>
      </trkpt>
      <trkpt lat="42.37612" lon="1.17219">
        <ele>1324.2</ele>
        <time>2022-05-22 16:16:54</time>
      </trkpt>
      <trkpt lat="42.37614" lon="1.1721">
        <ele>1324.2</ele>
        <time>2022-05-22 16:16:55</time>
      </trkpt>
      <trkpt lat="42.37616" lon="1.17203">
        <ele>1324.2</ele>
        <time>2022-05-22 16:16:56</time>
      </trkpt>
      <trkpt lat="42.37618" lon="1.17195">
        <ele>1324.2</ele>
        <time>2022-05-22 16:16:57</time>
      </trkpt>
      <trkpt lat="42.3762" lon="1.17187">
        <ele>1324.2</ele>
        <time>2022-05-22 16:16:58</time>
      </trkpt>
      <trkpt lat="42.37621" lon="1.17179">
        <ele>1324.2</ele>
        <time>2022-05-22 16:16:59</time>
      </trkpt>
      <trkpt lat="42.37622" lon="1.17171">
        <ele>1324</ele>
        <time>2022-05-22 16:17:00</time>
      </trkpt>
      <trkpt lat="42.37623" lon="1.17162">
        <ele>1324</ele>
        <time>2022-05-22 16:17:01</time>
      </trkpt>
      <trkpt lat="42.37624" lon="1.17154">
        <ele>1324</ele>
        <time>2022-05-22 16:17:02</time>
      </trkpt>
      <trkpt lat="42.37625" lon="1.17146">
        <ele>1323.8</ele>
        <time>2022-05-22 16:17:03</time>
      </trkpt>
      <trkpt lat="42.37626" lon="1.17138">
        <ele>1323.8</ele>
        <time>2022-05-22 16:17:04</time>
      </trkpt>
      <trkpt lat="42.37627" lon="1.1713">
        <ele>1323.8</ele>
        <time>2022-05-22 16:17:05</time>
      </trkpt>
      <trkpt lat="42.37627" lon="1.17122">
        <ele>1323.8</ele>
        <time>2022-05-22 16:17:06</time>
      </trkpt>
      <trkpt lat="42.37628" lon="1.17113">
        <ele>1323.6</ele>
        <time>2022-05-22 16:17:07</time>
      </trkpt>
      <trkpt lat="42.37628" lon="1.17104">
        <ele>1323.6</ele>
        <time>2022-05-22 16:17:08</time>
      </trkpt>
      <trkpt lat="42.37628" lon="1.17095">
        <ele>1323.6</ele>
        <time>2022-05-22 16:17:09</time>
      </trkpt>
      <trkpt lat="42.37628" lon="1.17086">
        <ele>1323.6</ele>
        <time>2022-05-22 16:17:10</time>
      </trkpt>
      <trkpt lat="42.37628" lon="1.17077">
        <ele>1323.6</ele>
        <time>2022-05-22 16:17:11</time>
      </trkpt>
      <trkpt lat="42.37628" lon="1.17069">
        <ele>1323.4</ele>
        <time>2022-05-22 16:17:12</time>
      </trkpt>
      <trkpt lat="42.37628" lon="1.1706">
        <ele>1323.4</ele>
        <time>2022-05-22 16:17:13</time>
      </trkpt>
      <trkpt lat="42.37628" lon="1.17052">
        <ele>1323.2</ele>
        <time>2022-05-22 16:17:14</time>
      </trkpt>
      <trkpt lat="42.37627" lon="1.17044">
        <ele>1323.2</ele>
        <time>2022-05-22 16:17:15</time>
      </trkpt>
      <trkpt lat="42.37627" lon="1.17035">
        <ele>1323.2</ele>
        <time>2022-05-22 16:17:16</time>
      </trkpt>
      <trkpt lat="42.37627" lon="1.17028">
        <ele>1323.2</ele>
        <time>2022-05-22 16:17:17</time>
      </trkpt>
      <trkpt lat="42.37626" lon="1.17019">
        <ele>1323.4</ele>
        <time>2022-05-22 16:17:18</time>
      </trkpt>
      <trkpt lat="42.37626" lon="1.17011">
        <ele>1323.4</ele>
        <time>2022-05-22 16:17:19</time>
      </trkpt>
      <trkpt lat="42.37626" lon="1.17003">
        <ele>1323.4</ele>
        <time>2022-05-22 16:17:20</time>
      </trkpt>
      <trkpt lat="42.37626" lon="1.16995">
        <ele>1323.4</ele>
        <time>2022-05-22 16:17:21</time>
      </trkpt>
      <trkpt lat="42.37626" lon="1.16987">
        <ele>1323.4</ele>
        <time>2022-05-22 16:17:22</time>
      </trkpt>
      <trkpt lat="42.37626" lon="1.16979">
        <ele>1323.2</ele>
        <time>2022-05-22 16:17:23</time>
      </trkpt>
      <trkpt lat="42.37626" lon="1.16971">
        <ele>1323.2</ele>
        <time>2022-05-22 16:17:24</time>
      </trkpt>
      <trkpt lat="42.37625" lon="1.16963">
        <ele>1323.2</ele>
        <time>2022-05-22 16:17:25</time>
      </trkpt>
      <trkpt lat="42.37625" lon="1.16955">
        <ele>1323.2</ele>
        <time>2022-05-22 16:17:26</time>
      </trkpt>
      <trkpt lat="42.37624" lon="1.16948">
        <ele>1323.2</ele>
        <time>2022-05-22 16:17:27</time>
      </trkpt>
      <trkpt lat="42.37624" lon="1.16941">
        <ele>1323.2</ele>
        <time>2022-05-22 16:17:28</time>
      </trkpt>
      <trkpt lat="42.37623" lon="1.16933">
        <ele>1323.2</ele>
        <time>2022-05-22 16:17:29</time>
      </trkpt>
      <trkpt lat="42.37623" lon="1.16925">
        <ele>1323.4</ele>
        <time>2022-05-22 16:17:30</time>
      </trkpt>
      <trkpt lat="42.37623" lon="1.16917">
        <ele>1323.6</ele>
        <time>2022-05-22 16:17:31</time>
      </trkpt>
      <trkpt lat="42.37622" lon="1.1691">
        <ele>1323.8</ele>
        <time>2022-05-22 16:17:32</time>
      </trkpt>
      <trkpt lat="42.37622" lon="1.16903">
        <ele>1323.6</ele>
        <time>2022-05-22 16:17:33</time>
      </trkpt>
      <trkpt lat="42.37622" lon="1.16895">
        <ele>1323.6</ele>
        <time>2022-05-22 16:17:34</time>
      </trkpt>
      <trkpt lat="42.37622" lon="1.16887">
        <ele>1323.2</ele>
        <time>2022-05-22 16:17:35</time>
      </trkpt>
      <trkpt lat="42.37621" lon="1.16879">
        <ele>1323.2</ele>
        <time>2022-05-22 16:17:36</time>
      </trkpt>
      <trkpt lat="42.37621" lon="1.16872">
        <ele>1323</ele>
        <time>2022-05-22 16:17:37</time>
      </trkpt>
      <trkpt lat="42.37622" lon="1.16864">
        <ele>1322.8</ele>
        <time>2022-05-22 16:17:38</time>
      </trkpt>
      <trkpt lat="42.37622" lon="1.16857">
        <ele>1322.8</ele>
        <time>2022-05-22 16:17:39</time>
      </trkpt>
      <trkpt lat="42.37622" lon="1.16849">
        <ele>1322.6</ele>
        <time>2022-05-22 16:17:40</time>
      </trkpt>
      <trkpt lat="42.37622" lon="1.16841">
        <ele>1322.6</ele>
        <time>2022-05-22 16:17:41</time>
      </trkpt>
      <trkpt lat="42.37622" lon="1.16834">
        <ele>1322.4</ele>
        <time>2022-05-22 16:17:42</time>
      </trkpt>
      <trkpt lat="42.37623" lon="1.16827">
        <ele>1322.4</ele>
        <time>2022-05-22 16:17:43</time>
      </trkpt>
      <trkpt lat="42.37623" lon="1.16819">
        <ele>1322.4</ele>
        <time>2022-05-22 16:17:44</time>
      </trkpt>
      <trkpt lat="42.37624" lon="1.16812">
        <ele>1322.2</ele>
        <time>2022-05-22 16:17:45</time>
      </trkpt>
      <trkpt lat="42.37625" lon="1.16805">
        <ele>1322.2</ele>
        <time>2022-05-22 16:17:46</time>
      </trkpt>
      <trkpt lat="42.37626" lon="1.16799">
        <ele>1322</ele>
        <time>2022-05-22 16:17:47</time>
      </trkpt>
      <trkpt lat="42.37627" lon="1.16792">
        <ele>1321.8</ele>
        <time>2022-05-22 16:17:48</time>
      </trkpt>
      <trkpt lat="42.37628" lon="1.16785">
        <ele>1321.8</ele>
        <time>2022-05-22 16:17:49</time>
      </trkpt>
      <trkpt lat="42.3763" lon="1.16778">
        <ele>1321.8</ele>
        <time>2022-05-22 16:17:50</time>
      </trkpt>
      <trkpt lat="42.37632" lon="1.16772">
        <ele>1321.6</ele>
        <time>2022-05-22 16:17:51</time>
      </trkpt>
      <trkpt lat="42.37634" lon="1.16765">
        <ele>1321.6</ele>
        <time>2022-05-22 16:17:52</time>
      </trkpt>
      <trkpt lat="42.37636" lon="1.16759">
        <ele>1321.4</ele>
        <time>2022-05-22 16:17:53</time>
      </trkpt>
      <trkpt lat="42.37639" lon="1.16752">
        <ele>1321.4</ele>
        <time>2022-05-22 16:17:54</time>
      </trkpt>
      <trkpt lat="42.37641" lon="1.16747">
        <ele>1321.4</ele>
        <time>2022-05-22 16:17:55</time>
      </trkpt>
      <trkpt lat="42.37644" lon="1.1674">
        <ele>1321.4</ele>
        <time>2022-05-22 16:17:56</time>
      </trkpt>
      <trkpt lat="42.37647" lon="1.16734">
        <ele>1321.4</ele>
        <time>2022-05-22 16:17:57</time>
      </trkpt>
      <trkpt lat="42.3765" lon="1.16728">
        <ele>1321.4</ele>
        <time>2022-05-22 16:17:58</time>
      </trkpt>
      <trkpt lat="42.37653" lon="1.16723">
        <ele>1321.4</ele>
        <time>2022-05-22 16:17:59</time>
      </trkpt>
      <trkpt lat="42.37657" lon="1.16717">
        <ele>1321.4</ele>
        <time>2022-05-22 16:18:00</time>
      </trkpt>
      <trkpt lat="42.37661" lon="1.16712">
        <ele>1321.4</ele>
        <time>2022-05-22 16:18:01</time>
      </trkpt>
      <trkpt lat="42.37664" lon="1.16707">
        <ele>1321.4</ele>
        <time>2022-05-22 16:18:02</time>
      </trkpt>
      <trkpt lat="42.37668" lon="1.16703">
        <ele>1321.4</ele>
        <time>2022-05-22 16:18:03</time>
      </trkpt>
      <trkpt lat="42.37673" lon="1.16698">
        <ele>1321.4</ele>
        <time>2022-05-22 16:18:04</time>
      </trkpt>
      <trkpt lat="42.37677" lon="1.16694">
        <ele>1321.4</ele>
        <time>2022-05-22 16:18:05</time>
      </trkpt>
      <trkpt lat="42.37682" lon="1.1669">
        <ele>1321.2</ele>
        <time>2022-05-22 16:18:06</time>
      </trkpt>
      <trkpt lat="42.37687" lon="1.16686">
        <ele>1321.2</ele>
        <time>2022-05-22 16:18:07</time>
      </trkpt>
      <trkpt lat="42.37691" lon="1.16682">
        <ele>1321.4</ele>
        <time>2022-05-22 16:18:08</time>
      </trkpt>
      <trkpt lat="42.37696" lon="1.16678">
        <ele>1321.4</ele>
        <time>2022-05-22 16:18:09</time>
      </trkpt>
      <trkpt lat="42.37699" lon="1.16674">
        <ele>1321.6</ele>
        <time>2022-05-22 16:18:10</time>
      </trkpt>
      <trkpt lat="42.37703" lon="1.1667">
        <ele>1321.6</ele>
        <time>2022-05-22 16:18:11</time>
      </trkpt>
      <trkpt lat="42.37707" lon="1.16666">
        <ele>1321.4</ele>
        <time>2022-05-22 16:18:12</time>
      </trkpt>
      <trkpt lat="42.37711" lon="1.16663">
        <ele>1321.4</ele>
        <time>2022-05-22 16:18:13</time>
      </trkpt>
      <trkpt lat="42.37716" lon="1.16659">
        <ele>1321.4</ele>
        <time>2022-05-22 16:18:14</time>
      </trkpt>
      <trkpt lat="42.3772" lon="1.16655">
        <ele>1321.4</ele>
        <time>2022-05-22 16:18:15</time>
      </trkpt>
      <trkpt lat="42.37725" lon="1.1665">
        <ele>1321.4</ele>
        <time>2022-05-22 16:18:16</time>
      </trkpt>
      <trkpt lat="42.37729" lon="1.16646">
        <ele>1321.4</ele>
        <time>2022-05-22 16:18:17</time>
      </trkpt>
      <trkpt lat="42.37734" lon="1.16642">
        <ele>1321.4</ele>
        <time>2022-05-22 16:18:18</time>
      </trkpt>
      <trkpt lat="42.37739" lon="1.16638">
        <ele>1321.2</ele>
        <time>2022-05-22 16:18:19</time>
      </trkpt>
      <trkpt lat="42.37744" lon="1.16634">
        <ele>1321.2</ele>
        <time>2022-05-22 16:18:20</time>
      </trkpt>
      <trkpt lat="42.37748" lon="1.1663">
        <ele>1321.2</ele>
        <time>2022-05-22 16:18:21</time>
      </trkpt>
      <trkpt lat="42.37753" lon="1.16625">
        <ele>1321.2</ele>
        <time>2022-05-22 16:18:22</time>
      </trkpt>
      <trkpt lat="42.37757" lon="1.16621">
        <ele>1321.2</ele>
        <time>2022-05-22 16:18:23</time>
      </trkpt>
      <trkpt lat="42.37762" lon="1.16617">
        <ele>1321</ele>
        <time>2022-05-22 16:18:24</time>
      </trkpt>
      <trkpt lat="42.37766" lon="1.16613">
        <ele>1321</ele>
        <time>2022-05-22 16:18:25</time>
      </trkpt>
      <trkpt lat="42.37771" lon="1.16609">
        <ele>1320.8</ele>
        <time>2022-05-22 16:18:26</time>
      </trkpt>
      <trkpt lat="42.37776" lon="1.16604">
        <ele>1320.8</ele>
        <time>2022-05-22 16:18:27</time>
      </trkpt>
      <trkpt lat="42.37781" lon="1.16599">
        <ele>1320.6</ele>
        <time>2022-05-22 16:18:28</time>
      </trkpt>
      <trkpt lat="42.37786" lon="1.16595">
        <ele>1320.6</ele>
        <time>2022-05-22 16:18:29</time>
      </trkpt>
      <trkpt lat="42.37791" lon="1.1659">
        <ele>1320.4</ele>
        <time>2022-05-22 16:18:30</time>
      </trkpt>
      <trkpt lat="42.37796" lon="1.16586">
        <ele>1320</ele>
        <time>2022-05-22 16:18:31</time>
      </trkpt>
      <trkpt lat="42.37802" lon="1.16581">
        <ele>1320</ele>
        <time>2022-05-22 16:18:32</time>
      </trkpt>
      <trkpt lat="42.37807" lon="1.16576">
        <ele>1319.8</ele>
        <time>2022-05-22 16:18:33</time>
      </trkpt>
      <trkpt lat="42.37813" lon="1.16571">
        <ele>1319.4</ele>
        <time>2022-05-22 16:18:34</time>
      </trkpt>
      <trkpt lat="42.37818" lon="1.16566">
        <ele>1319.2</ele>
        <time>2022-05-22 16:18:35</time>
      </trkpt>
      <trkpt lat="42.37824" lon="1.16561">
        <ele>1319</ele>
        <time>2022-05-22 16:18:36</time>
      </trkpt>
      <trkpt lat="42.37829" lon="1.16556">
        <ele>1318.6</ele>
        <time>2022-05-22 16:18:37</time>
      </trkpt>
      <trkpt lat="42.37835" lon="1.16551">
        <ele>1318.4</ele>
        <time>2022-05-22 16:18:38</time>
      </trkpt>
      <trkpt lat="42.37841" lon="1.16545">
        <ele>1318</ele>
        <time>2022-05-22 16:18:39</time>
      </trkpt>
      <trkpt lat="42.37847" lon="1.1654">
        <ele>1317.8</ele>
        <time>2022-05-22 16:18:40</time>
      </trkpt>
      <trkpt lat="42.37853" lon="1.16534">
        <ele>1317.4</ele>
        <time>2022-05-22 16:18:41</time>
      </trkpt>
      <trkpt lat="42.3786" lon="1.16528">
        <ele>1317</ele>
        <time>2022-05-22 16:18:42</time>
      </trkpt>
      <trkpt lat="42.37866" lon="1.16523">
        <ele>1316.8</ele>
        <time>2022-05-22 16:18:43</time>
      </trkpt>
      <trkpt lat="42.37873" lon="1.16517">
        <ele>1316.4</ele>
        <time>2022-05-22 16:18:44</time>
      </trkpt>
      <trkpt lat="42.3788" lon="1.1651">
        <ele>1316</ele>
        <time>2022-05-22 16:18:45</time>
      </trkpt>
      <trkpt lat="42.37886" lon="1.16504">
        <ele>1315.6</ele>
        <time>2022-05-22 16:18:46</time>
      </trkpt>
      <trkpt lat="42.37893" lon="1.16498">
        <ele>1315.2</ele>
        <time>2022-05-22 16:18:47</time>
      </trkpt>
      <trkpt lat="42.379" lon="1.1649">
        <ele>1314.8</ele>
        <time>2022-05-22 16:18:48</time>
      </trkpt>
      <trkpt lat="42.37907" lon="1.16484">
        <ele>1314.4</ele>
        <time>2022-05-22 16:18:49</time>
      </trkpt>
      <trkpt lat="42.37914" lon="1.16477">
        <ele>1314</ele>
        <time>2022-05-22 16:18:50</time>
      </trkpt>
      <trkpt lat="42.37921" lon="1.1647">
        <ele>1313.6</ele>
        <time>2022-05-22 16:18:51</time>
      </trkpt>
      <trkpt lat="42.37929" lon="1.16461">
        <ele>1313.2</ele>
        <time>2022-05-22 16:18:52</time>
      </trkpt>
      <trkpt lat="42.37935" lon="1.16454">
        <ele>1312.8</ele>
        <time>2022-05-22 16:18:53</time>
      </trkpt>
      <trkpt lat="42.37943" lon="1.16445">
        <ele>1312.4</ele>
        <time>2022-05-22 16:18:54</time>
      </trkpt>
      <trkpt lat="42.3795" lon="1.16435">
        <ele>1311.8</ele>
        <time>2022-05-22 16:18:55</time>
      </trkpt>
      <trkpt lat="42.37955" lon="1.16426">
        <ele>1311.4</ele>
        <time>2022-05-22 16:18:56</time>
      </trkpt>
      <trkpt lat="42.3796" lon="1.16416">
        <ele>1311</ele>
        <time>2022-05-22 16:18:57</time>
      </trkpt>
      <trkpt lat="42.37964" lon="1.16403">
        <ele>1310.6</ele>
        <time>2022-05-22 16:18:58</time>
      </trkpt>
      <trkpt lat="42.37967" lon="1.1639">
        <ele>1310</ele>
        <time>2022-05-22 16:18:59</time>
      </trkpt>
      <trkpt lat="42.3797" lon="1.16377">
        <ele>1309.4</ele>
        <time>2022-05-22 16:19:00</time>
      </trkpt>
      <trkpt lat="42.37974" lon="1.16364">
        <ele>1308.8</ele>
        <time>2022-05-22 16:19:01</time>
      </trkpt>
      <trkpt lat="42.37976" lon="1.16353">
        <ele>1308.4</ele>
        <time>2022-05-22 16:19:02</time>
      </trkpt>
      <trkpt lat="42.37979" lon="1.1634">
        <ele>1308.2</ele>
        <time>2022-05-22 16:19:03</time>
      </trkpt>
      <trkpt lat="42.37982" lon="1.1633">
        <ele>1307.8</ele>
        <time>2022-05-22 16:19:04</time>
      </trkpt>
      <trkpt lat="42.37985" lon="1.16319">
        <ele>1307.2</ele>
        <time>2022-05-22 16:19:05</time>
      </trkpt>
      <trkpt lat="42.37988" lon="1.16311">
        <ele>1306.8</ele>
        <time>2022-05-22 16:19:06</time>
      </trkpt>
      <trkpt lat="42.37991" lon="1.16302">
        <ele>1306.4</ele>
        <time>2022-05-22 16:19:07</time>
      </trkpt>
      <trkpt lat="42.37993" lon="1.16294">
        <ele>1306</ele>
        <time>2022-05-22 16:19:08</time>
      </trkpt>
      <trkpt lat="42.37996" lon="1.16287">
        <ele>1305.6</ele>
        <time>2022-05-22 16:19:09</time>
      </trkpt>
      <trkpt lat="42.37998" lon="1.1628">
        <ele>1305.2</ele>
        <time>2022-05-22 16:19:10</time>
      </trkpt>
      <trkpt lat="42.38001" lon="1.16274">
        <ele>1305</ele>
        <time>2022-05-22 16:19:11</time>
      </trkpt>
      <trkpt lat="42.38002" lon="1.16269">
        <ele>1304.6</ele>
        <time>2022-05-22 16:19:12</time>
      </trkpt>
      <trkpt lat="42.38005" lon="1.16262">
        <ele>1304.4</ele>
        <time>2022-05-22 16:19:13</time>
      </trkpt>
      <trkpt lat="42.38005" lon="1.16256">
        <ele>1304.2</ele>
        <time>2022-05-22 16:19:14</time>
      </trkpt>
      <trkpt lat="42.38004" lon="1.16251">
        <ele>1304</ele>
        <time>2022-05-22 16:19:15</time>
      </trkpt>
      <trkpt lat="42.38001" lon="1.16247">
        <ele>1304</ele>
        <time>2022-05-22 16:19:16</time>
      </trkpt>
      <trkpt lat="42.37998" lon="1.16246">
        <ele>1303.8</ele>
        <time>2022-05-22 16:19:17</time>
      </trkpt>
      <trkpt lat="42.37995" lon="1.16247">
        <ele>1303.8</ele>
        <time>2022-05-22 16:19:18</time>
      </trkpt>
      <trkpt lat="42.37992" lon="1.16249">
        <ele>1303.8</ele>
        <time>2022-05-22 16:19:19</time>
      </trkpt>
      <trkpt lat="42.37989" lon="1.1625">
        <ele>1303.8</ele>
        <time>2022-05-22 16:19:20</time>
      </trkpt>
      <trkpt lat="42.37985" lon="1.1625">
        <ele>1303.6</ele>
        <time>2022-05-22 16:19:21</time>
      </trkpt>
      <trkpt lat="42.37982" lon="1.16251">
        <ele>1303.6</ele>
        <time>2022-05-22 16:19:22</time>
      </trkpt>
      <trkpt lat="42.37979" lon="1.16253">
        <ele>1303.6</ele>
        <time>2022-05-22 16:19:23</time>
      </trkpt>
      <trkpt lat="42.37976" lon="1.16256">
        <ele>1303.6</ele>
        <time>2022-05-22 16:19:24</time>
      </trkpt>
      <trkpt lat="42.37974" lon="1.16259">
        <ele>1303.4</ele>
        <time>2022-05-22 16:19:25</time>
      </trkpt>
      <trkpt lat="42.37972" lon="1.16261">
        <ele>1303.4</ele>
        <time>2022-05-22 16:19:26</time>
      </trkpt>
      <trkpt lat="42.3797" lon="1.16264">
        <ele>1303.2</ele>
        <time>2022-05-22 16:19:27</time>
      </trkpt>
      <trkpt lat="42.37969" lon="1.16267">
        <ele>1303.2</ele>
        <time>2022-05-22 16:19:28</time>
      </trkpt>
      <trkpt lat="42.37968" lon="1.16269">
        <ele>1303.2</ele>
        <time>2022-05-22 16:19:29</time>
      </trkpt>
      <trkpt lat="42.37967" lon="1.1627">
        <ele>1303</ele>
        <time>2022-05-22 16:19:30</time>
      </trkpt>
      <trkpt lat="42.37966" lon="1.16271">
        <ele>1303</ele>
        <time>2022-05-22 16:19:31</time>
      </trkpt>
      <trkpt lat="42.37965" lon="1.16272">
        <ele>1303</ele>
        <time>2022-05-22 16:19:32</time>
      </trkpt>
      <trkpt lat="42.37967" lon="1.16263">
        <ele>1302.8</ele>
        <time>2022-05-22 16:19:33</time>
      </trkpt>
      <trkpt lat="42.37967" lon="1.16262">
        <ele>1302.8</ele>
        <time>2022-05-22 16:51:29</time>
      </trkpt>
      <trkpt lat="42.37967" lon="1.16261">
        <ele>1302.8</ele>
        <time>2022-05-22 16:51:30</time>
      </trkpt>
      <trkpt lat="42.37968" lon="1.1626">
        <ele>1302.8</ele>
        <time>2022-05-22 16:51:31</time>
      </trkpt>
      <trkpt lat="42.37969" lon="1.16259">
        <ele>1302.8</ele>
        <time>2022-05-22 16:51:32</time>
      </trkpt>
      <trkpt lat="42.3797" lon="1.16258">
        <ele>1302.8</ele>
        <time>2022-05-22 16:51:33</time>
      </trkpt>
      <trkpt lat="42.37971" lon="1.16256">
        <ele>1302.8</ele>
        <time>2022-05-22 16:51:34</time>
      </trkpt>
      <trkpt lat="42.37972" lon="1.16255">
        <ele>1302.8</ele>
        <time>2022-05-22 16:51:35</time>
      </trkpt>
      <trkpt lat="42.37974" lon="1.16254">
        <ele>1302.8</ele>
        <time>2022-05-22 16:51:36</time>
      </trkpt>
      <trkpt lat="42.37975" lon="1.16253">
        <ele>1303</ele>
        <time>2022-05-22 16:51:37</time>
      </trkpt>
      <trkpt lat="42.37976" lon="1.16252">
        <ele>1303</ele>
        <time>2022-05-22 16:51:38</time>
      </trkpt>
      <trkpt lat="42.37977" lon="1.16251">
        <ele>1303</ele>
        <time>2022-05-22 16:51:39</time>
      </trkpt>
      <trkpt lat="42.37979" lon="1.16249">
        <ele>1303</ele>
        <time>2022-05-22 16:51:40</time>
      </trkpt>
      <trkpt lat="42.37981" lon="1.16248">
        <ele>1303</ele>
        <time>2022-05-22 16:51:41</time>
      </trkpt>
      <trkpt lat="42.37983" lon="1.16248">
        <ele>1303</ele>
        <time>2022-05-22 16:51:42</time>
      </trkpt>
      <trkpt lat="42.37985" lon="1.16248">
        <ele>1303</ele>
        <time>2022-05-22 16:51:43</time>
      </trkpt>
      <trkpt lat="42.37988" lon="1.16249">
        <ele>1303.2</ele>
        <time>2022-05-22 16:51:44</time>
      </trkpt>
      <trkpt lat="42.37989" lon="1.16251">
        <ele>1303.2</ele>
        <time>2022-05-22 16:51:45</time>
      </trkpt>
      <trkpt lat="42.3799" lon="1.16253">
        <ele>1303.2</ele>
        <time>2022-05-22 16:51:46</time>
      </trkpt>
      <trkpt lat="42.37991" lon="1.16255">
        <ele>1303.4</ele>
        <time>2022-05-22 16:51:47</time>
      </trkpt>
      <trkpt lat="42.37992" lon="1.16257">
        <ele>1303.6</ele>
        <time>2022-05-22 16:51:48</time>
      </trkpt>
      <trkpt lat="42.37993" lon="1.16259">
        <ele>1303.6</ele>
        <time>2022-05-22 16:51:49</time>
      </trkpt>
      <trkpt lat="42.37994" lon="1.16261">
        <ele>1303.8</ele>
        <time>2022-05-22 16:51:50</time>
      </trkpt>
      <trkpt lat="42.37996" lon="1.16262">
        <ele>1303.8</ele>
        <time>2022-05-22 16:51:51</time>
      </trkpt>
      <trkpt lat="42.37998" lon="1.16263">
        <ele>1303.8</ele>
        <time>2022-05-22 16:51:52</time>
      </trkpt>
      <trkpt lat="42.38" lon="1.16263">
        <ele>1303.8</ele>
        <time>2022-05-22 16:51:53</time>
      </trkpt>
      <trkpt lat="42.38003" lon="1.16263">
        <ele>1303.8</ele>
        <time>2022-05-22 16:51:54</time>
      </trkpt>
      <trkpt lat="42.38006" lon="1.16262">
        <ele>1303.6</ele>
        <time>2022-05-22 16:51:55</time>
      </trkpt>
      <trkpt lat="42.38009" lon="1.1626">
        <ele>1303.4</ele>
        <time>2022-05-22 16:51:56</time>
      </trkpt>
      <trkpt lat="42.38013" lon="1.16258">
        <ele>1303.2</ele>
        <time>2022-05-22 16:51:57</time>
      </trkpt>
      <trkpt lat="42.38016" lon="1.16254">
        <ele>1303</ele>
        <time>2022-05-22 16:51:58</time>
      </trkpt>
      <trkpt lat="42.3802" lon="1.1625">
        <ele>1302.6</ele>
        <time>2022-05-22 16:51:59</time>
      </trkpt>
      <trkpt lat="42.38024" lon="1.16246">
        <ele>1302.2</ele>
        <time>2022-05-22 16:52:00</time>
      </trkpt>
      <trkpt lat="42.38029" lon="1.16241">
        <ele>1301.8</ele>
        <time>2022-05-22 16:52:01</time>
      </trkpt>
      <trkpt lat="42.38034" lon="1.16237">
        <ele>1301.4</ele>
        <time>2022-05-22 16:52:02</time>
      </trkpt>
      <trkpt lat="42.38039" lon="1.16232">
        <ele>1300.8</ele>
        <time>2022-05-22 16:52:03</time>
      </trkpt>
      <trkpt lat="42.38045" lon="1.16227">
        <ele>1300.4</ele>
        <time>2022-05-22 16:52:04</time>
      </trkpt>
      <trkpt lat="42.38051" lon="1.16221">
        <ele>1299.8</ele>
        <time>2022-05-22 16:52:05</time>
      </trkpt>
      <trkpt lat="42.38058" lon="1.16216">
        <ele>1299.4</ele>
        <time>2022-05-22 16:52:06</time>
      </trkpt>
      <trkpt lat="42.38066" lon="1.16211">
        <ele>1298.6</ele>
        <time>2022-05-22 16:52:07</time>
      </trkpt>
      <trkpt lat="42.38073" lon="1.16206">
        <ele>1298</ele>
        <time>2022-05-22 16:52:08</time>
      </trkpt>
      <trkpt lat="42.38081" lon="1.16202">
        <ele>1297.6</ele>
        <time>2022-05-22 16:52:09</time>
      </trkpt>
      <trkpt lat="42.3809" lon="1.16199">
        <ele>1296.6</ele>
        <time>2022-05-22 16:52:10</time>
      </trkpt>
      <trkpt lat="42.38099" lon="1.16197">
        <ele>1296</ele>
        <time>2022-05-22 16:52:11</time>
      </trkpt>
      <trkpt lat="42.38109" lon="1.16195">
        <ele>1295.2</ele>
        <time>2022-05-22 16:52:12</time>
      </trkpt>
      <trkpt lat="42.3812" lon="1.16195">
        <ele>1294.6</ele>
        <time>2022-05-22 16:52:13</time>
      </trkpt>
      <trkpt lat="42.3813" lon="1.16196">
        <ele>1293.8</ele>
        <time>2022-05-22 16:52:14</time>
      </trkpt>
      <trkpt lat="42.38139" lon="1.16197">
        <ele>1293.2</ele>
        <time>2022-05-22 16:52:15</time>
      </trkpt>
      <trkpt lat="42.38149" lon="1.16197">
        <ele>1292.6</ele>
        <time>2022-05-22 16:52:16</time>
      </trkpt>
      <trkpt lat="42.3816" lon="1.16197">
        <ele>1291.8</ele>
        <time>2022-05-22 16:52:17</time>
      </trkpt>
      <trkpt lat="42.3817" lon="1.16194">
        <ele>1291.2</ele>
        <time>2022-05-22 16:52:18</time>
      </trkpt>
      <trkpt lat="42.3818" lon="1.1619">
        <ele>1290.6</ele>
        <time>2022-05-22 16:52:19</time>
      </trkpt>
      <trkpt lat="42.3819" lon="1.16184">
        <ele>1290</ele>
        <time>2022-05-22 16:52:20</time>
      </trkpt>
      <trkpt lat="42.382" lon="1.16176">
        <ele>1289.2</ele>
        <time>2022-05-22 16:52:21</time>
      </trkpt>
      <trkpt lat="42.38209" lon="1.16165">
        <ele>1288.2</ele>
        <time>2022-05-22 16:52:22</time>
      </trkpt>
      <trkpt lat="42.38216" lon="1.16152">
        <ele>1287.4</ele>
        <time>2022-05-22 16:52:23</time>
      </trkpt>
      <trkpt lat="42.3822" lon="1.16137">
        <ele>1286.4</ele>
        <time>2022-05-22 16:52:24</time>
      </trkpt>
      <trkpt lat="42.38223" lon="1.16121">
        <ele>1285.4</ele>
        <time>2022-05-22 16:52:25</time>
      </trkpt>
      <trkpt lat="42.38225" lon="1.16104">
        <ele>1284.6</ele>
        <time>2022-05-22 16:52:26</time>
      </trkpt>
      <trkpt lat="42.38227" lon="1.16086">
        <ele>1283.8</ele>
        <time>2022-05-22 16:52:27</time>
      </trkpt>
      <trkpt lat="42.38229" lon="1.16068">
        <ele>1282.8</ele>
        <time>2022-05-22 16:52:28</time>
      </trkpt>
      <trkpt lat="42.38231" lon="1.1605">
        <ele>1281.8</ele>
        <time>2022-05-22 16:52:29</time>
      </trkpt>
      <trkpt lat="42.38233" lon="1.16033">
        <ele>1280.8</ele>
        <time>2022-05-22 16:52:30</time>
      </trkpt>
      <trkpt lat="42.38235" lon="1.16015">
        <ele>1279.8</ele>
        <time>2022-05-22 16:52:31</time>
      </trkpt>
      <trkpt lat="42.38237" lon="1.15998">
        <ele>1278.6</ele>
        <time>2022-05-22 16:52:32</time>
      </trkpt>
      <trkpt lat="42.3824" lon="1.15981">
        <ele>1277.6</ele>
        <time>2022-05-22 16:52:33</time>
      </trkpt>
      <trkpt lat="42.38243" lon="1.15963">
        <ele>1276.6</ele>
        <time>2022-05-22 16:52:34</time>
      </trkpt>
      <trkpt lat="42.38247" lon="1.15946">
        <ele>1275.6</ele>
        <time>2022-05-22 16:52:35</time>
      </trkpt>
      <trkpt lat="42.38252" lon="1.1593">
        <ele>1274.6</ele>
        <time>2022-05-22 16:52:36</time>
      </trkpt>
      <trkpt lat="42.38258" lon="1.15914">
        <ele>1273.8</ele>
        <time>2022-05-22 16:52:37</time>
      </trkpt>
      <trkpt lat="42.38265" lon="1.15898">
        <ele>1273</ele>
        <time>2022-05-22 16:52:38</time>
      </trkpt>
      <trkpt lat="42.38271" lon="1.15882">
        <ele>1272.4</ele>
        <time>2022-05-22 16:52:39</time>
      </trkpt>
      <trkpt lat="42.38277" lon="1.15866">
        <ele>1271.8</ele>
        <time>2022-05-22 16:52:40</time>
      </trkpt>
      <trkpt lat="42.38283" lon="1.1585">
        <ele>1271</ele>
        <time>2022-05-22 16:52:41</time>
      </trkpt>
      <trkpt lat="42.38289" lon="1.15834">
        <ele>1270.2</ele>
        <time>2022-05-22 16:52:42</time>
      </trkpt>
      <trkpt lat="42.38297" lon="1.15818">
        <ele>1269.6</ele>
        <time>2022-05-22 16:52:43</time>
      </trkpt>
      <trkpt lat="42.38305" lon="1.15803">
        <ele>1268.8</ele>
        <time>2022-05-22 16:52:44</time>
      </trkpt>
      <trkpt lat="42.38312" lon="1.15789">
        <ele>1268</ele>
        <time>2022-05-22 16:52:45</time>
      </trkpt>
      <trkpt lat="42.38319" lon="1.15775">
        <ele>1267.6</ele>
        <time>2022-05-22 16:52:46</time>
      </trkpt>
      <trkpt lat="42.38325" lon="1.15762">
        <ele>1267.2</ele>
        <time>2022-05-22 16:52:47</time>
      </trkpt>
      <trkpt lat="42.38333" lon="1.15749">
        <ele>1266.6</ele>
        <time>2022-05-22 16:52:48</time>
      </trkpt>
      <trkpt lat="42.38341" lon="1.15738">
        <ele>1266</ele>
        <time>2022-05-22 16:52:49</time>
      </trkpt>
      <trkpt lat="42.38349" lon="1.15726">
        <ele>1265.4</ele>
        <time>2022-05-22 16:52:50</time>
      </trkpt>
      <trkpt lat="42.38358" lon="1.15714">
        <ele>1265</ele>
        <time>2022-05-22 16:52:51</time>
      </trkpt>
      <trkpt lat="42.38367" lon="1.15701">
        <ele>1264.4</ele>
        <time>2022-05-22 16:52:52</time>
      </trkpt>
      <trkpt lat="42.38377" lon="1.15691">
        <ele>1263.8</ele>
        <time>2022-05-22 16:52:53</time>
      </trkpt>
      <trkpt lat="42.38387" lon="1.15682">
        <ele>1263</ele>
        <time>2022-05-22 16:52:54</time>
      </trkpt>
      <trkpt lat="42.38398" lon="1.15676">
        <ele>1262.4</ele>
        <time>2022-05-22 16:52:55</time>
      </trkpt>
      <trkpt lat="42.38409" lon="1.15671">
        <ele>1261.8</ele>
        <time>2022-05-22 16:52:56</time>
      </trkpt>
      <trkpt lat="42.38421" lon="1.1567">
        <ele>1261</ele>
        <time>2022-05-22 16:52:57</time>
      </trkpt>
      <trkpt lat="42.38433" lon="1.15671">
        <ele>1260.6</ele>
        <time>2022-05-22 16:52:58</time>
      </trkpt>
      <trkpt lat="42.38445" lon="1.15675">
        <ele>1260.2</ele>
        <time>2022-05-22 16:52:59</time>
      </trkpt>
      <trkpt lat="42.38456" lon="1.15682">
        <ele>1259.8</ele>
        <time>2022-05-22 16:53:00</time>
      </trkpt>
      <trkpt lat="42.38466" lon="1.1569">
        <ele>1259.4</ele>
        <time>2022-05-22 16:53:01</time>
      </trkpt>
      <trkpt lat="42.38476" lon="1.157">
        <ele>1259</ele>
        <time>2022-05-22 16:53:02</time>
      </trkpt>
      <trkpt lat="42.38484" lon="1.1571">
        <ele>1258.6</ele>
        <time>2022-05-22 16:53:03</time>
      </trkpt>
      <trkpt lat="42.38491" lon="1.15723">
        <ele>1258.4</ele>
        <time>2022-05-22 16:53:04</time>
      </trkpt>
      <trkpt lat="42.38499" lon="1.15737">
        <ele>1258</ele>
        <time>2022-05-22 16:53:05</time>
      </trkpt>
      <trkpt lat="42.38504" lon="1.1575">
        <ele>1257.6</ele>
        <time>2022-05-22 16:53:06</time>
      </trkpt>
      <trkpt lat="42.3851" lon="1.15764">
        <ele>1257.2</ele>
        <time>2022-05-22 16:53:07</time>
      </trkpt>
      <trkpt lat="42.38515" lon="1.15778">
        <ele>1256.8</ele>
        <time>2022-05-22 16:53:08</time>
      </trkpt>
      <trkpt lat="42.38519" lon="1.15792">
        <ele>1256.2</ele>
        <time>2022-05-22 16:53:09</time>
      </trkpt>
      <trkpt lat="42.38524" lon="1.15805">
        <ele>1255.8</ele>
        <time>2022-05-22 16:53:10</time>
      </trkpt>
      <trkpt lat="42.38529" lon="1.15817">
        <ele>1255.2</ele>
        <time>2022-05-22 16:53:11</time>
      </trkpt>
      <trkpt lat="42.38533" lon="1.15831">
        <ele>1254.8</ele>
        <time>2022-05-22 16:53:12</time>
      </trkpt>
      <trkpt lat="42.38539" lon="1.15844">
        <ele>1254.2</ele>
        <time>2022-05-22 16:53:13</time>
      </trkpt>
      <trkpt lat="42.38545" lon="1.15856">
        <ele>1253.8</ele>
        <time>2022-05-22 16:53:14</time>
      </trkpt>
      <trkpt lat="42.38552" lon="1.15868">
        <ele>1253.2</ele>
        <time>2022-05-22 16:53:15</time>
      </trkpt>
      <trkpt lat="42.3856" lon="1.1588">
        <ele>1252.6</ele>
        <time>2022-05-22 16:53:16</time>
      </trkpt>
      <trkpt lat="42.38568" lon="1.15892">
        <ele>1252</ele>
        <time>2022-05-22 16:53:17</time>
      </trkpt>
      <trkpt lat="42.38576" lon="1.15902">
        <ele>1251.4</ele>
        <time>2022-05-22 16:53:18</time>
      </trkpt>
      <trkpt lat="42.38584" lon="1.15912">
        <ele>1250.8</ele>
        <time>2022-05-22 16:53:19</time>
      </trkpt>
      <trkpt lat="42.38592" lon="1.1592">
        <ele>1250.2</ele>
        <time>2022-05-22 16:53:20</time>
      </trkpt>
      <trkpt lat="42.386" lon="1.15928">
        <ele>1249.6</ele>
        <time>2022-05-22 16:53:21</time>
      </trkpt>
      <trkpt lat="42.38608" lon="1.15936">
        <ele>1249.2</ele>
        <time>2022-05-22 16:53:22</time>
      </trkpt>
      <trkpt lat="42.38616" lon="1.15945">
        <ele>1248.8</ele>
        <time>2022-05-22 16:53:23</time>
      </trkpt>
      <trkpt lat="42.38623" lon="1.15953">
        <ele>1248.4</ele>
        <time>2022-05-22 16:53:24</time>
      </trkpt>
      <trkpt lat="42.38631" lon="1.15961">
        <ele>1248</ele>
        <time>2022-05-22 16:53:25</time>
      </trkpt>
      <trkpt lat="42.38639" lon="1.15969">
        <ele>1247.8</ele>
        <time>2022-05-22 16:53:26</time>
      </trkpt>
      <trkpt lat="42.38647" lon="1.15977">
        <ele>1247.4</ele>
        <time>2022-05-22 16:53:27</time>
      </trkpt>
      <trkpt lat="42.38655" lon="1.15984">
        <ele>1247</ele>
        <time>2022-05-22 16:53:28</time>
      </trkpt>
      <trkpt lat="42.38663" lon="1.15992">
        <ele>1246.6</ele>
        <time>2022-05-22 16:53:29</time>
      </trkpt>
      <trkpt lat="42.38671" lon="1.15999">
        <ele>1246.4</ele>
        <time>2022-05-22 16:53:30</time>
      </trkpt>
      <trkpt lat="42.38679" lon="1.16007">
        <ele>1246</ele>
        <time>2022-05-22 16:53:31</time>
      </trkpt>
      <trkpt lat="42.38687" lon="1.16013">
        <ele>1245.8</ele>
        <time>2022-05-22 16:53:32</time>
      </trkpt>
      <trkpt lat="42.38696" lon="1.1602">
        <ele>1245.4</ele>
        <time>2022-05-22 16:53:33</time>
      </trkpt>
      <trkpt lat="42.38705" lon="1.16026">
        <ele>1245.2</ele>
        <time>2022-05-22 16:53:34</time>
      </trkpt>
      <trkpt lat="42.38714" lon="1.1603">
        <ele>1244.8</ele>
        <time>2022-05-22 16:53:35</time>
      </trkpt>
      <trkpt lat="42.38724" lon="1.16033">
        <ele>1244.4</ele>
        <time>2022-05-22 16:53:36</time>
      </trkpt>
      <trkpt lat="42.38734" lon="1.16035">
        <ele>1244</ele>
        <time>2022-05-22 16:53:37</time>
      </trkpt>
      <trkpt lat="42.38745" lon="1.16035">
        <ele>1243.8</ele>
        <time>2022-05-22 16:53:38</time>
      </trkpt>
      <trkpt lat="42.38756" lon="1.16036">
        <ele>1243.2</ele>
        <time>2022-05-22 16:53:39</time>
      </trkpt>
      <trkpt lat="42.38766" lon="1.16037">
        <ele>1242.8</ele>
        <time>2022-05-22 16:53:40</time>
      </trkpt>
      <trkpt lat="42.38777" lon="1.16039">
        <ele>1242.4</ele>
        <time>2022-05-22 16:53:41</time>
      </trkpt>
      <trkpt lat="42.38787" lon="1.16041">
        <ele>1242</ele>
        <time>2022-05-22 16:53:42</time>
      </trkpt>
      <trkpt lat="42.38797" lon="1.16043">
        <ele>1241.6</ele>
        <time>2022-05-22 16:53:43</time>
      </trkpt>
      <trkpt lat="42.38808" lon="1.16045">
        <ele>1241.2</ele>
        <time>2022-05-22 16:53:44</time>
      </trkpt>
      <trkpt lat="42.38818" lon="1.16046">
        <ele>1240.8</ele>
        <time>2022-05-22 16:53:45</time>
      </trkpt>
      <trkpt lat="42.38827" lon="1.16047">
        <ele>1240.2</ele>
        <time>2022-05-22 16:53:46</time>
      </trkpt>
      <trkpt lat="42.38838" lon="1.16047">
        <ele>1239.8</ele>
        <time>2022-05-22 16:53:47</time>
      </trkpt>
      <trkpt lat="42.38849" lon="1.16045">
        <ele>1239.4</ele>
        <time>2022-05-22 16:53:48</time>
      </trkpt>
      <trkpt lat="42.3886" lon="1.16041">
        <ele>1239</ele>
        <time>2022-05-22 16:53:49</time>
      </trkpt>
      <trkpt lat="42.38871" lon="1.16039">
        <ele>1238.8</ele>
        <time>2022-05-22 16:53:50</time>
      </trkpt>
      <trkpt lat="42.38882" lon="1.16036">
        <ele>1238.2</ele>
        <time>2022-05-22 16:53:51</time>
      </trkpt>
      <trkpt lat="42.38893" lon="1.16033">
        <ele>1237.6</ele>
        <time>2022-05-22 16:53:52</time>
      </trkpt>
      <trkpt lat="42.38904" lon="1.16031">
        <ele>1237</ele>
        <time>2022-05-22 16:53:53</time>
      </trkpt>
      <trkpt lat="42.38914" lon="1.16029">
        <ele>1236.4</ele>
        <time>2022-05-22 16:53:54</time>
      </trkpt>
      <trkpt lat="42.38925" lon="1.16027">
        <ele>1236</ele>
        <time>2022-05-22 16:53:55</time>
      </trkpt>
      <trkpt lat="42.38935" lon="1.16025">
        <ele>1235.6</ele>
        <time>2022-05-22 16:53:56</time>
      </trkpt>
      <trkpt lat="42.38945" lon="1.16023">
        <ele>1235.4</ele>
        <time>2022-05-22 16:53:57</time>
      </trkpt>
      <trkpt lat="42.38956" lon="1.16021">
        <ele>1235</ele>
        <time>2022-05-22 16:53:58</time>
      </trkpt>
      <trkpt lat="42.38967" lon="1.16018">
        <ele>1234.4</ele>
        <time>2022-05-22 16:53:59</time>
      </trkpt>
      <trkpt lat="42.38978" lon="1.16015">
        <ele>1234.2</ele>
        <time>2022-05-22 16:54:00</time>
      </trkpt>
      <trkpt lat="42.38988" lon="1.16013">
        <ele>1233.8</ele>
        <time>2022-05-22 16:54:01</time>
      </trkpt>
      <trkpt lat="42.38998" lon="1.16012">
        <ele>1233.6</ele>
        <time>2022-05-22 16:54:02</time>
      </trkpt>
      <trkpt lat="42.39009" lon="1.16009">
        <ele>1233.2</ele>
        <time>2022-05-22 16:54:03</time>
      </trkpt>
      <trkpt lat="42.39019" lon="1.16008">
        <ele>1233</ele>
        <time>2022-05-22 16:54:04</time>
      </trkpt>
      <trkpt lat="42.3903" lon="1.16007">
        <ele>1232.8</ele>
        <time>2022-05-22 16:54:05</time>
      </trkpt>
      <trkpt lat="42.3904" lon="1.16006">
        <ele>1232.4</ele>
        <time>2022-05-22 16:54:06</time>
      </trkpt>
      <trkpt lat="42.39051" lon="1.16005">
        <ele>1232.2</ele>
        <time>2022-05-22 16:54:07</time>
      </trkpt>
      <trkpt lat="42.39062" lon="1.16003">
        <ele>1232</ele>
        <time>2022-05-22 16:54:08</time>
      </trkpt>
      <trkpt lat="42.39071" lon="1.16">
        <ele>1231.8</ele>
        <time>2022-05-22 16:54:09</time>
      </trkpt>
      <trkpt lat="42.39082" lon="1.15995">
        <ele>1231.8</ele>
        <time>2022-05-22 16:54:10</time>
      </trkpt>
      <trkpt lat="42.39092" lon="1.15989">
        <ele>1231.4</ele>
        <time>2022-05-22 16:54:11</time>
      </trkpt>
      <trkpt lat="42.39099" lon="1.1598">
        <ele>1231.2</ele>
        <time>2022-05-22 16:54:12</time>
      </trkpt>
      <trkpt lat="42.39104" lon="1.15969">
        <ele>1230.8</ele>
        <time>2022-05-22 16:54:13</time>
      </trkpt>
      <trkpt lat="42.39108" lon="1.15952">
        <ele>1230.6</ele>
        <time>2022-05-22 16:54:14</time>
      </trkpt>
      <trkpt lat="42.39112" lon="1.15938">
        <ele>1230</ele>
        <time>2022-05-22 16:54:15</time>
      </trkpt>
      <trkpt lat="42.39115" lon="1.15926">
        <ele>1229.6</ele>
        <time>2022-05-22 16:54:16</time>
      </trkpt>
      <trkpt lat="42.39118" lon="1.15912">
        <ele>1229.2</ele>
        <time>2022-05-22 16:54:17</time>
      </trkpt>
      <trkpt lat="42.39122" lon="1.15898">
        <ele>1228.6</ele>
        <time>2022-05-22 16:54:18</time>
      </trkpt>
      <trkpt lat="42.39125" lon="1.15885">
        <ele>1228.2</ele>
        <time>2022-05-22 16:54:19</time>
      </trkpt>
      <trkpt lat="42.39129" lon="1.15871">
        <ele>1227.6</ele>
        <time>2022-05-22 16:54:20</time>
      </trkpt>
      <trkpt lat="42.39131" lon="1.15855">
        <ele>1226.8</ele>
        <time>2022-05-22 16:54:21</time>
      </trkpt>
      <trkpt lat="42.39133" lon="1.15842">
        <ele>1226</ele>
        <time>2022-05-22 16:54:22</time>
      </trkpt>
      <trkpt lat="42.39133" lon="1.15824">
        <ele>1225.4</ele>
        <time>2022-05-22 16:54:23</time>
      </trkpt>
      <trkpt lat="42.39132" lon="1.15809">
        <ele>1224.8</ele>
        <time>2022-05-22 16:54:24</time>
      </trkpt>
      <trkpt lat="42.39132" lon="1.15791">
        <ele>1224</ele>
        <time>2022-05-22 16:54:25</time>
      </trkpt>
      <trkpt lat="42.39131" lon="1.15775">
        <ele>1223</ele>
        <time>2022-05-22 16:54:26</time>
      </trkpt>
      <trkpt lat="42.3913" lon="1.15755">
        <ele>1221.6</ele>
        <time>2022-05-22 16:54:27</time>
      </trkpt>
      <trkpt lat="42.3913" lon="1.15738">
        <ele>1220.4</ele>
        <time>2022-05-22 16:54:28</time>
      </trkpt>
      <trkpt lat="42.3913" lon="1.15723">
        <ele>1219.2</ele>
        <time>2022-05-22 16:54:29</time>
      </trkpt>
      <trkpt lat="42.39131" lon="1.15706">
        <ele>1218</ele>
        <time>2022-05-22 16:54:30</time>
      </trkpt>
      <trkpt lat="42.39132" lon="1.15683">
        <ele>1216.6</ele>
        <time>2022-05-22 16:54:31</time>
      </trkpt>
      <trkpt lat="42.39134" lon="1.15665">
        <ele>1215.4</ele>
        <time>2022-05-22 16:54:32</time>
      </trkpt>
      <trkpt lat="42.39136" lon="1.15647">
        <ele>1214.2</ele>
        <time>2022-05-22 16:54:33</time>
      </trkpt>
      <trkpt lat="42.39139" lon="1.15628">
        <ele>1213</ele>
        <time>2022-05-22 16:54:34</time>
      </trkpt>
      <trkpt lat="42.39141" lon="1.15612">
        <ele>1211.8</ele>
        <time>2022-05-22 16:54:35</time>
      </trkpt>
      <trkpt lat="42.39144" lon="1.15594">
        <ele>1210.2</ele>
        <time>2022-05-22 16:54:36</time>
      </trkpt>
      <trkpt lat="42.39148" lon="1.15576">
        <ele>1208.8</ele>
        <time>2022-05-22 16:54:37</time>
      </trkpt>
      <trkpt lat="42.39151" lon="1.15556">
        <ele>1207.4</ele>
        <time>2022-05-22 16:54:38</time>
      </trkpt>
      <trkpt lat="42.39155" lon="1.15534">
        <ele>1205.8</ele>
        <time>2022-05-22 16:54:39</time>
      </trkpt>
      <trkpt lat="42.39159" lon="1.15516">
        <ele>1204.2</ele>
        <time>2022-05-22 16:54:40</time>
      </trkpt>
      <trkpt lat="42.39164" lon="1.15498">
        <ele>1202.6</ele>
        <time>2022-05-22 16:54:41</time>
      </trkpt>
      <trkpt lat="42.39168" lon="1.15481">
        <ele>1201.6</ele>
        <time>2022-05-22 16:54:42</time>
      </trkpt>
      <trkpt lat="42.39173" lon="1.1546">
        <ele>1200.6</ele>
        <time>2022-05-22 16:54:43</time>
      </trkpt>
      <trkpt lat="42.39177" lon="1.15443">
        <ele>1199.4</ele>
        <time>2022-05-22 16:54:44</time>
      </trkpt>
      <trkpt lat="42.39181" lon="1.15427">
        <ele>1198.6</ele>
        <time>2022-05-22 16:54:45</time>
      </trkpt>
      <trkpt lat="42.39187" lon="1.15402">
        <ele>1197.8</ele>
        <time>2022-05-22 16:54:46</time>
      </trkpt>
      <trkpt lat="42.3919" lon="1.15386">
        <ele>1196.8</ele>
        <time>2022-05-22 16:54:47</time>
      </trkpt>
      <trkpt lat="42.39194" lon="1.15363">
        <ele>1195.4</ele>
        <time>2022-05-22 16:54:48</time>
      </trkpt>
      <trkpt lat="42.39196" lon="1.15347">
        <ele>1194.4</ele>
        <time>2022-05-22 16:54:49</time>
      </trkpt>
      <trkpt lat="42.39196" lon="1.15325">
        <ele>1193</ele>
        <time>2022-05-22 16:54:50</time>
      </trkpt>
      <trkpt lat="42.39197" lon="1.15306">
        <ele>1192</ele>
        <time>2022-05-22 16:54:51</time>
      </trkpt>
      <trkpt lat="42.39196" lon="1.15284">
        <ele>1191</ele>
        <time>2022-05-22 16:54:52</time>
      </trkpt>
      <trkpt lat="42.39195" lon="1.15267">
        <ele>1190.2</ele>
        <time>2022-05-22 16:54:53</time>
      </trkpt>
      <trkpt lat="42.39193" lon="1.15249">
        <ele>1189.2</ele>
        <time>2022-05-22 16:54:54</time>
      </trkpt>
      <trkpt lat="42.3919" lon="1.15226">
        <ele>1188.2</ele>
        <time>2022-05-22 16:54:55</time>
      </trkpt>
      <trkpt lat="42.39188" lon="1.15212">
        <ele>1187.4</ele>
        <time>2022-05-22 16:54:56</time>
      </trkpt>
      <trkpt lat="42.39185" lon="1.15191">
        <ele>1187</ele>
        <time>2022-05-22 16:54:57</time>
      </trkpt>
      <trkpt lat="42.39183" lon="1.15177">
        <ele>1186.6</ele>
        <time>2022-05-22 16:54:58</time>
      </trkpt>
      <trkpt lat="42.39181" lon="1.15159">
        <ele>1185.6</ele>
        <time>2022-05-22 16:54:59</time>
      </trkpt>
      <trkpt lat="42.39179" lon="1.15137">
        <ele>1184.4</ele>
        <time>2022-05-22 16:55:00</time>
      </trkpt>
      <trkpt lat="42.39178" lon="1.1512">
        <ele>1183.4</ele>
        <time>2022-05-22 16:55:01</time>
      </trkpt>
      <trkpt lat="42.39178" lon="1.15103">
        <ele>1182.4</ele>
        <time>2022-05-22 16:55:02</time>
      </trkpt>
      <trkpt lat="42.39179" lon="1.15088">
        <ele>1181.4</ele>
        <time>2022-05-22 16:55:03</time>
      </trkpt>
      <trkpt lat="42.39181" lon="1.1507">
        <ele>1180.6</ele>
        <time>2022-05-22 16:55:04</time>
      </trkpt>
      <trkpt lat="42.39184" lon="1.15051">
        <ele>1179.6</ele>
        <time>2022-05-22 16:55:05</time>
      </trkpt>
      <trkpt lat="42.39188" lon="1.15029">
        <ele>1178.6</ele>
        <time>2022-05-22 16:55:06</time>
      </trkpt>
      <trkpt lat="42.39191" lon="1.15012">
        <ele>1177.4</ele>
        <time>2022-05-22 16:55:07</time>
      </trkpt>
      <trkpt lat="42.39195" lon="1.14997">
        <ele>1176.4</ele>
        <time>2022-05-22 16:55:08</time>
      </trkpt>
      <trkpt lat="42.392" lon="1.14979">
        <ele>1175.4</ele>
        <time>2022-05-22 16:55:09</time>
      </trkpt>
      <trkpt lat="42.39206" lon="1.14963">
        <ele>1174.6</ele>
        <time>2022-05-22 16:55:10</time>
      </trkpt>
      <trkpt lat="42.39213" lon="1.14947">
        <ele>1173.6</ele>
        <time>2022-05-22 16:55:11</time>
      </trkpt>
      <trkpt lat="42.39219" lon="1.14934">
        <ele>1172.8</ele>
        <time>2022-05-22 16:55:12</time>
      </trkpt>
      <trkpt lat="42.39228" lon="1.14912">
        <ele>1171.8</ele>
        <time>2022-05-22 16:55:13</time>
      </trkpt>
      <trkpt lat="42.39236" lon="1.14892">
        <ele>1170.4</ele>
        <time>2022-05-22 16:55:14</time>
      </trkpt>
      <trkpt lat="42.39242" lon="1.14876">
        <ele>1169.4</ele>
        <time>2022-05-22 16:55:15</time>
      </trkpt>
      <trkpt lat="42.39247" lon="1.14859">
        <ele>1168.2</ele>
        <time>2022-05-22 16:55:16</time>
      </trkpt>
      <trkpt lat="42.39252" lon="1.14842">
        <ele>1167.2</ele>
        <time>2022-05-22 16:55:17</time>
      </trkpt>
      <trkpt lat="42.39257" lon="1.14825">
        <ele>1166.2</ele>
        <time>2022-05-22 16:55:18</time>
      </trkpt>
      <trkpt lat="42.39262" lon="1.14808">
        <ele>1165.2</ele>
        <time>2022-05-22 16:55:19</time>
      </trkpt>
      <trkpt lat="42.39266" lon="1.14791">
        <ele>1164.2</ele>
        <time>2022-05-22 16:55:20</time>
      </trkpt>
      <trkpt lat="42.39272" lon="1.14775">
        <ele>1163.2</ele>
        <time>2022-05-22 16:55:21</time>
      </trkpt>
      <trkpt lat="42.3928" lon="1.14757">
        <ele>1162.4</ele>
        <time>2022-05-22 16:55:22</time>
      </trkpt>
      <trkpt lat="42.39291" lon="1.14746">
        <ele>1161</ele>
        <time>2022-05-22 16:55:23</time>
      </trkpt>
      <trkpt lat="42.39303" lon="1.1474">
        <ele>1160</ele>
        <time>2022-05-22 16:55:24</time>
      </trkpt>
      <trkpt lat="42.39315" lon="1.14737">
        <ele>1159</ele>
        <time>2022-05-22 16:55:25</time>
      </trkpt>
      <trkpt lat="42.39329" lon="1.1474">
        <ele>1158.2</ele>
        <time>2022-05-22 16:55:26</time>
      </trkpt>
      <trkpt lat="42.39342" lon="1.14748">
        <ele>1157.2</ele>
        <time>2022-05-22 16:55:27</time>
      </trkpt>
      <trkpt lat="42.39354" lon="1.1476">
        <ele>1156.4</ele>
        <time>2022-05-22 16:55:28</time>
      </trkpt>
      <trkpt lat="42.39364" lon="1.14773">
        <ele>1155.6</ele>
        <time>2022-05-22 16:55:29</time>
      </trkpt>
      <trkpt lat="42.39374" lon="1.14787">
        <ele>1155</ele>
        <time>2022-05-22 16:55:30</time>
      </trkpt>
      <trkpt lat="42.39383" lon="1.148">
        <ele>1154.4</ele>
        <time>2022-05-22 16:55:31</time>
      </trkpt>
      <trkpt lat="42.39392" lon="1.14812">
        <ele>1153.8</ele>
        <time>2022-05-22 16:55:32</time>
      </trkpt>
      <trkpt lat="42.39403" lon="1.14823">
        <ele>1153.2</ele>
        <time>2022-05-22 16:55:33</time>
      </trkpt>
      <trkpt lat="42.39414" lon="1.14832">
        <ele>1152.6</ele>
        <time>2022-05-22 16:55:34</time>
      </trkpt>
      <trkpt lat="42.39426" lon="1.14838">
        <ele>1152</ele>
        <time>2022-05-22 16:55:35</time>
      </trkpt>
      <trkpt lat="42.39439" lon="1.14842">
        <ele>1151.4</ele>
        <time>2022-05-22 16:55:36</time>
      </trkpt>
      <trkpt lat="42.39451" lon="1.14844">
        <ele>1151</ele>
        <time>2022-05-22 16:55:37</time>
      </trkpt>
      <trkpt lat="42.39463" lon="1.14847">
        <ele>1150.6</ele>
        <time>2022-05-22 16:55:38</time>
      </trkpt>
      <trkpt lat="42.39475" lon="1.1485">
        <ele>1150.2</ele>
        <time>2022-05-22 16:55:39</time>
      </trkpt>
      <trkpt lat="42.39486" lon="1.14852">
        <ele>1149.8</ele>
        <time>2022-05-22 16:55:40</time>
      </trkpt>
      <trkpt lat="42.39497" lon="1.14851">
        <ele>1149.4</ele>
        <time>2022-05-22 16:55:41</time>
      </trkpt>
      <trkpt lat="42.39506" lon="1.14844">
        <ele>1149.2</ele>
        <time>2022-05-22 16:55:42</time>
      </trkpt>
      <trkpt lat="42.39512" lon="1.14832">
        <ele>1148.8</ele>
        <time>2022-05-22 16:55:43</time>
      </trkpt>
      <trkpt lat="42.39514" lon="1.14817">
        <ele>1148.4</ele>
        <time>2022-05-22 16:55:44</time>
      </trkpt>
      <trkpt lat="42.39512" lon="1.14802">
        <ele>1148</ele>
        <time>2022-05-22 16:55:45</time>
      </trkpt>
      <trkpt lat="42.39507" lon="1.14789">
        <ele>1147.6</ele>
        <time>2022-05-22 16:55:46</time>
      </trkpt>
      <trkpt lat="42.39498" lon="1.1478">
        <ele>1147.2</ele>
        <time>2022-05-22 16:55:47</time>
      </trkpt>
      <trkpt lat="42.39487" lon="1.14775">
        <ele>1146.8</ele>
        <time>2022-05-22 16:55:48</time>
      </trkpt>
      <trkpt lat="42.39476" lon="1.14776">
        <ele>1146.4</ele>
        <time>2022-05-22 16:55:49</time>
      </trkpt>
      <trkpt lat="42.39465" lon="1.1478">
        <ele>1145.8</ele>
        <time>2022-05-22 16:55:50</time>
      </trkpt>
      <trkpt lat="42.39454" lon="1.14783">
        <ele>1145.2</ele>
        <time>2022-05-22 16:55:51</time>
      </trkpt>
      <trkpt lat="42.39443" lon="1.14785">
        <ele>1144.6</ele>
        <time>2022-05-22 16:55:52</time>
      </trkpt>
      <trkpt lat="42.39432" lon="1.14786">
        <ele>1144</ele>
        <time>2022-05-22 16:55:53</time>
      </trkpt>
      <trkpt lat="42.39421" lon="1.14785">
        <ele>1143.4</ele>
        <time>2022-05-22 16:55:54</time>
      </trkpt>
      <trkpt lat="42.3941" lon="1.14782">
        <ele>1142.6</ele>
        <time>2022-05-22 16:55:55</time>
      </trkpt>
      <trkpt lat="42.394" lon="1.14776">
        <ele>1142</ele>
        <time>2022-05-22 16:55:56</time>
      </trkpt>
      <trkpt lat="42.39391" lon="1.14769">
        <ele>1141</ele>
        <time>2022-05-22 16:55:57</time>
      </trkpt>
      <trkpt lat="42.39382" lon="1.1476">
        <ele>1140.4</ele>
        <time>2022-05-22 16:55:58</time>
      </trkpt>
      <trkpt lat="42.39374" lon="1.14748">
        <ele>1139.8</ele>
        <time>2022-05-22 16:55:59</time>
      </trkpt>
      <trkpt lat="42.39367" lon="1.14737">
        <ele>1139.4</ele>
        <time>2022-05-22 16:56:00</time>
      </trkpt>
      <trkpt lat="42.39361" lon="1.14724">
        <ele>1138.8</ele>
        <time>2022-05-22 16:56:01</time>
      </trkpt>
      <trkpt lat="42.39356" lon="1.14711">
        <ele>1138.4</ele>
        <time>2022-05-22 16:56:02</time>
      </trkpt>
      <trkpt lat="42.39351" lon="1.14697">
        <ele>1138</ele>
        <time>2022-05-22 16:56:03</time>
      </trkpt>
      <trkpt lat="42.39346" lon="1.14683">
        <ele>1137.6</ele>
        <time>2022-05-22 16:56:04</time>
      </trkpt>
      <trkpt lat="42.39342" lon="1.14669">
        <ele>1137.2</ele>
        <time>2022-05-22 16:56:05</time>
      </trkpt>
      <trkpt lat="42.39338" lon="1.14653">
        <ele>1136.6</ele>
        <time>2022-05-22 16:56:06</time>
      </trkpt>
      <trkpt lat="42.39334" lon="1.14639">
        <ele>1135.8</ele>
        <time>2022-05-22 16:56:07</time>
      </trkpt>
      <trkpt lat="42.39329" lon="1.14626">
        <ele>1135</ele>
        <time>2022-05-22 16:56:08</time>
      </trkpt>
      <trkpt lat="42.39321" lon="1.14614">
        <ele>1134.2</ele>
        <time>2022-05-22 16:56:09</time>
      </trkpt>
      <trkpt lat="42.39312" lon="1.14604">
        <ele>1133.4</ele>
        <time>2022-05-22 16:56:10</time>
      </trkpt>
      <trkpt lat="42.393" lon="1.14598">
        <ele>1132.6</ele>
        <time>2022-05-22 16:56:11</time>
      </trkpt>
      <trkpt lat="42.39288" lon="1.14595">
        <ele>1131.6</ele>
        <time>2022-05-22 16:56:12</time>
      </trkpt>
      <trkpt lat="42.39276" lon="1.14594">
        <ele>1130.8</ele>
        <time>2022-05-22 16:56:13</time>
      </trkpt>
      <trkpt lat="42.39264" lon="1.14598">
        <ele>1130.2</ele>
        <time>2022-05-22 16:56:14</time>
      </trkpt>
      <trkpt lat="42.39253" lon="1.14606">
        <ele>1129.4</ele>
        <time>2022-05-22 16:56:15</time>
      </trkpt>
      <trkpt lat="42.39242" lon="1.14617">
        <ele>1129</ele>
        <time>2022-05-22 16:56:16</time>
      </trkpt>
      <trkpt lat="42.39233" lon="1.14629">
        <ele>1128.2</ele>
        <time>2022-05-22 16:56:17</time>
      </trkpt>
      <trkpt lat="42.39225" lon="1.14643">
        <ele>1127.2</ele>
        <time>2022-05-22 16:56:18</time>
      </trkpt>
      <trkpt lat="42.39217" lon="1.14658">
        <ele>1126.6</ele>
        <time>2022-05-22 16:56:19</time>
      </trkpt>
      <trkpt lat="42.39209" lon="1.14673">
        <ele>1125.4</ele>
        <time>2022-05-22 16:56:20</time>
      </trkpt>
      <trkpt lat="42.39201" lon="1.14688">
        <ele>1124.6</ele>
        <time>2022-05-22 16:56:21</time>
      </trkpt>
      <trkpt lat="42.39193" lon="1.14702">
        <ele>1123.6</ele>
        <time>2022-05-22 16:56:22</time>
      </trkpt>
      <trkpt lat="42.39185" lon="1.14717">
        <ele>1122.6</ele>
        <time>2022-05-22 16:56:23</time>
      </trkpt>
      <trkpt lat="42.39177" lon="1.14732">
        <ele>1121.6</ele>
        <time>2022-05-22 16:56:24</time>
      </trkpt>
      <trkpt lat="42.39168" lon="1.14747">
        <ele>1120.6</ele>
        <time>2022-05-22 16:56:25</time>
      </trkpt>
      <trkpt lat="42.3916" lon="1.14761">
        <ele>1119.4</ele>
        <time>2022-05-22 16:56:26</time>
      </trkpt>
      <trkpt lat="42.39152" lon="1.14776">
        <ele>1118.6</ele>
        <time>2022-05-22 16:56:27</time>
      </trkpt>
      <trkpt lat="42.39143" lon="1.14789">
        <ele>1117.6</ele>
        <time>2022-05-22 16:56:28</time>
      </trkpt>
      <trkpt lat="42.39134" lon="1.14803">
        <ele>1117</ele>
        <time>2022-05-22 16:56:29</time>
      </trkpt>
      <trkpt lat="42.39124" lon="1.14819">
        <ele>1116.2</ele>
        <time>2022-05-22 16:56:30</time>
      </trkpt>
      <trkpt lat="42.39114" lon="1.14832">
        <ele>1115</ele>
        <time>2022-05-22 16:56:31</time>
      </trkpt>
      <trkpt lat="42.39103" lon="1.14845">
        <ele>1114</ele>
        <time>2022-05-22 16:56:32</time>
      </trkpt>
      <trkpt lat="42.39092" lon="1.14858">
        <ele>1113</ele>
        <time>2022-05-22 16:56:33</time>
      </trkpt>
      <trkpt lat="42.3908" lon="1.1487">
        <ele>1111.8</ele>
        <time>2022-05-22 16:56:34</time>
      </trkpt>
      <trkpt lat="42.39069" lon="1.14883">
        <ele>1110.8</ele>
        <time>2022-05-22 16:56:35</time>
      </trkpt>
      <trkpt lat="42.39057" lon="1.14895">
        <ele>1109.6</ele>
        <time>2022-05-22 16:56:36</time>
      </trkpt>
      <trkpt lat="42.39046" lon="1.14908">
        <ele>1108.4</ele>
        <time>2022-05-22 16:56:37</time>
      </trkpt>
      <trkpt lat="42.39035" lon="1.14921">
        <ele>1107.2</ele>
        <time>2022-05-22 16:56:38</time>
      </trkpt>
      <trkpt lat="42.39024" lon="1.14934">
        <ele>1106.2</ele>
        <time>2022-05-22 16:56:39</time>
      </trkpt>
      <trkpt lat="42.39013" lon="1.14948">
        <ele>1105.6</ele>
        <time>2022-05-22 16:56:40</time>
      </trkpt>
      <trkpt lat="42.39003" lon="1.14964">
        <ele>1104.2</ele>
        <time>2022-05-22 16:56:41</time>
      </trkpt>
      <trkpt lat="42.38994" lon="1.14982">
        <ele>1102.8</ele>
        <time>2022-05-22 16:56:42</time>
      </trkpt>
      <trkpt lat="42.38988" lon="1.15002">
        <ele>1101.6</ele>
        <time>2022-05-22 16:56:43</time>
      </trkpt>
      <trkpt lat="42.38984" lon="1.15022">
        <ele>1100.4</ele>
        <time>2022-05-22 16:56:44</time>
      </trkpt>
      <trkpt lat="42.38983" lon="1.15043">
        <ele>1099</ele>
        <time>2022-05-22 16:56:45</time>
      </trkpt>
      <trkpt lat="42.38985" lon="1.15065">
        <ele>1097.8</ele>
        <time>2022-05-22 16:56:46</time>
      </trkpt>
      <trkpt lat="42.38988" lon="1.15086">
        <ele>1096.4</ele>
        <time>2022-05-22 16:56:47</time>
      </trkpt>
      <trkpt lat="42.38994" lon="1.15108">
        <ele>1095.2</ele>
        <time>2022-05-22 16:56:48</time>
      </trkpt>
      <trkpt lat="42.38999" lon="1.15128">
        <ele>1094.2</ele>
        <time>2022-05-22 16:56:49</time>
      </trkpt>
      <trkpt lat="42.39003" lon="1.15148">
        <ele>1092.8</ele>
        <time>2022-05-22 16:56:50</time>
      </trkpt>
      <trkpt lat="42.39007" lon="1.15169">
        <ele>1091.8</ele>
        <time>2022-05-22 16:56:51</time>
      </trkpt>
      <trkpt lat="42.39011" lon="1.15188">
        <ele>1090.8</ele>
        <time>2022-05-22 16:56:52</time>
      </trkpt>
      <trkpt lat="42.39012" lon="1.15208">
        <ele>1089.8</ele>
        <time>2022-05-22 16:56:53</time>
      </trkpt>
      <trkpt lat="42.39012" lon="1.15228">
        <ele>1088.6</ele>
        <time>2022-05-22 16:56:54</time>
      </trkpt>
      <trkpt lat="42.39009" lon="1.15247">
        <ele>1087.8</ele>
        <time>2022-05-22 16:56:55</time>
      </trkpt>
      <trkpt lat="42.39005" lon="1.15265">
        <ele>1087</ele>
        <time>2022-05-22 16:56:56</time>
      </trkpt>
      <trkpt lat="42.38999" lon="1.15283">
        <ele>1086.2</ele>
        <time>2022-05-22 16:56:57</time>
      </trkpt>
      <trkpt lat="42.38992" lon="1.153">
        <ele>1085.6</ele>
        <time>2022-05-22 16:56:58</time>
      </trkpt>
      <trkpt lat="42.38984" lon="1.15316">
        <ele>1085</ele>
        <time>2022-05-22 16:56:59</time>
      </trkpt>
      <trkpt lat="42.38978" lon="1.15333">
        <ele>1084.6</ele>
        <time>2022-05-22 16:57:00</time>
      </trkpt>
      <trkpt lat="42.38972" lon="1.1535">
        <ele>1084.2</ele>
        <time>2022-05-22 16:57:01</time>
      </trkpt>
      <trkpt lat="42.38967" lon="1.15366">
        <ele>1083.8</ele>
        <time>2022-05-22 16:57:02</time>
      </trkpt>
      <trkpt lat="42.3896" lon="1.15381">
        <ele>1083.4</ele>
        <time>2022-05-22 16:57:03</time>
      </trkpt>
      <trkpt lat="42.38955" lon="1.15393">
        <ele>1083</ele>
        <time>2022-05-22 16:57:04</time>
      </trkpt>
      <trkpt lat="42.38949" lon="1.15402">
        <ele>1082.6</ele>
        <time>2022-05-22 16:57:05</time>
      </trkpt>
      <trkpt lat="42.38941" lon="1.15409">
        <ele>1082.2</ele>
        <time>2022-05-22 16:57:06</time>
      </trkpt>
      <trkpt lat="42.38933" lon="1.15409">
        <ele>1081.8</ele>
        <time>2022-05-22 16:57:07</time>
      </trkpt>
      <trkpt lat="42.38927" lon="1.15401">
        <ele>1081.2</ele>
        <time>2022-05-22 16:57:08</time>
      </trkpt>
      <trkpt lat="42.38923" lon="1.1539">
        <ele>1080.4</ele>
        <time>2022-05-22 16:57:09</time>
      </trkpt>
      <trkpt lat="42.38921" lon="1.15377">
        <ele>1079.8</ele>
        <time>2022-05-22 16:57:10</time>
      </trkpt>
      <trkpt lat="42.38921" lon="1.15365">
        <ele>1079</ele>
        <time>2022-05-22 16:57:11</time>
      </trkpt>
      <trkpt lat="42.38925" lon="1.15354">
        <ele>1078.2</ele>
        <time>2022-05-22 16:57:12</time>
      </trkpt>
      <trkpt lat="42.38934" lon="1.15344">
        <ele>1077.4</ele>
        <time>2022-05-22 16:57:13</time>
      </trkpt>
      <trkpt lat="42.38942" lon="1.15334">
        <ele>1076.6</ele>
        <time>2022-05-22 16:57:14</time>
      </trkpt>
      <trkpt lat="42.3895" lon="1.15323">
        <ele>1075.8</ele>
        <time>2022-05-22 16:57:15</time>
      </trkpt>
      <trkpt lat="42.38957" lon="1.1531">
        <ele>1074.8</ele>
        <time>2022-05-22 16:57:16</time>
      </trkpt>
      <trkpt lat="42.38963" lon="1.15296">
        <ele>1073.8</ele>
        <time>2022-05-22 16:57:17</time>
      </trkpt>
      <trkpt lat="42.38966" lon="1.15279">
        <ele>1072.8</ele>
        <time>2022-05-22 16:57:18</time>
      </trkpt>
      <trkpt lat="42.38969" lon="1.15259">
        <ele>1071.6</ele>
        <time>2022-05-22 16:57:19</time>
      </trkpt>
      <trkpt lat="42.38972" lon="1.15242">
        <ele>1070.6</ele>
        <time>2022-05-22 16:57:20</time>
      </trkpt>
      <trkpt lat="42.38973" lon="1.15225">
        <ele>1069.4</ele>
        <time>2022-05-22 16:57:21</time>
      </trkpt>
      <trkpt lat="42.38973" lon="1.15207">
        <ele>1068.2</ele>
        <time>2022-05-22 16:57:22</time>
      </trkpt>
      <trkpt lat="42.38971" lon="1.15191">
        <ele>1067</ele>
        <time>2022-05-22 16:57:23</time>
      </trkpt>
      <trkpt lat="42.38967" lon="1.15175">
        <ele>1065.8</ele>
        <time>2022-05-22 16:57:24</time>
      </trkpt>
      <trkpt lat="42.38962" lon="1.15161">
        <ele>1064.6</ele>
        <time>2022-05-22 16:57:25</time>
      </trkpt>
      <trkpt lat="42.38956" lon="1.15147">
        <ele>1063.6</ele>
        <time>2022-05-22 16:57:26</time>
      </trkpt>
      <trkpt lat="42.38949" lon="1.15132">
        <ele>1062.6</ele>
        <time>2022-05-22 16:57:27</time>
      </trkpt>
      <trkpt lat="42.38943" lon="1.15118">
        <ele>1061.4</ele>
        <time>2022-05-22 16:57:28</time>
      </trkpt>
      <trkpt lat="42.38936" lon="1.15103">
        <ele>1060.4</ele>
        <time>2022-05-22 16:57:29</time>
      </trkpt>
      <trkpt lat="42.38931" lon="1.15088">
        <ele>1059.6</ele>
        <time>2022-05-22 16:57:30</time>
      </trkpt>
      <trkpt lat="42.38926" lon="1.15071">
        <ele>1058.6</ele>
        <time>2022-05-22 16:57:31</time>
      </trkpt>
      <trkpt lat="42.38922" lon="1.15054">
        <ele>1057.6</ele>
        <time>2022-05-22 16:57:32</time>
      </trkpt>
      <trkpt lat="42.38919" lon="1.15037">
        <ele>1056.6</ele>
        <time>2022-05-22 16:57:33</time>
      </trkpt>
      <trkpt lat="42.38917" lon="1.1502">
        <ele>1055.8</ele>
        <time>2022-05-22 16:57:34</time>
      </trkpt>
      <trkpt lat="42.38916" lon="1.15002">
        <ele>1054.8</ele>
        <time>2022-05-22 16:57:35</time>
      </trkpt>
      <trkpt lat="42.38916" lon="1.14984">
        <ele>1054</ele>
        <time>2022-05-22 16:57:36</time>
      </trkpt>
      <trkpt lat="42.38917" lon="1.14967">
        <ele>1053.2</ele>
        <time>2022-05-22 16:57:37</time>
      </trkpt>
      <trkpt lat="42.38919" lon="1.14949">
        <ele>1052</ele>
        <time>2022-05-22 16:57:38</time>
      </trkpt>
      <trkpt lat="42.38921" lon="1.1493">
        <ele>1050.6</ele>
        <time>2022-05-22 16:57:39</time>
      </trkpt>
      <trkpt lat="42.38922" lon="1.14912">
        <ele>1049.2</ele>
        <time>2022-05-22 16:57:40</time>
      </trkpt>
      <trkpt lat="42.38925" lon="1.14893">
        <ele>1048.2</ele>
        <time>2022-05-22 16:57:41</time>
      </trkpt>
      <trkpt lat="42.38927" lon="1.14875">
        <ele>1047.2</ele>
        <time>2022-05-22 16:57:42</time>
      </trkpt>
      <trkpt lat="42.3893" lon="1.14856">
        <ele>1046</ele>
        <time>2022-05-22 16:57:43</time>
      </trkpt>
      <trkpt lat="42.38933" lon="1.14837">
        <ele>1045.2</ele>
        <time>2022-05-22 16:57:44</time>
      </trkpt>
      <trkpt lat="42.38936" lon="1.14819">
        <ele>1044.2</ele>
        <time>2022-05-22 16:57:45</time>
      </trkpt>
      <trkpt lat="42.38939" lon="1.14801">
        <ele>1043.4</ele>
        <time>2022-05-22 16:57:46</time>
      </trkpt>
      <trkpt lat="42.38942" lon="1.14782">
        <ele>1042.4</ele>
        <time>2022-05-22 16:57:47</time>
      </trkpt>
      <trkpt lat="42.38945" lon="1.14764">
        <ele>1041.6</ele>
        <time>2022-05-22 16:57:48</time>
      </trkpt>
      <trkpt lat="42.38949" lon="1.14747">
        <ele>1040.2</ele>
        <time>2022-05-22 16:57:49</time>
      </trkpt>
      <trkpt lat="42.38953" lon="1.1473">
        <ele>1038.8</ele>
        <time>2022-05-22 16:57:50</time>
      </trkpt>
      <trkpt lat="42.38958" lon="1.14714">
        <ele>1037.8</ele>
        <time>2022-05-22 16:57:51</time>
      </trkpt>
      <trkpt lat="42.38963" lon="1.14697">
        <ele>1036.8</ele>
        <time>2022-05-22 16:57:52</time>
      </trkpt>
      <trkpt lat="42.38969" lon="1.14679">
        <ele>1035.8</ele>
        <time>2022-05-22 16:57:53</time>
      </trkpt>
      <trkpt lat="42.38975" lon="1.14662">
        <ele>1035</ele>
        <time>2022-05-22 16:57:54</time>
      </trkpt>
      <trkpt lat="42.38981" lon="1.14644">
        <ele>1033.8</ele>
        <time>2022-05-22 16:57:55</time>
      </trkpt>
      <trkpt lat="42.38988" lon="1.14626">
        <ele>1032.8</ele>
        <time>2022-05-22 16:57:56</time>
      </trkpt>
      <trkpt lat="42.38994" lon="1.1461">
        <ele>1031.8</ele>
        <time>2022-05-22 16:57:57</time>
      </trkpt>
      <trkpt lat="42.39" lon="1.14593">
        <ele>1031</ele>
        <time>2022-05-22 16:57:58</time>
      </trkpt>
      <trkpt lat="42.39007" lon="1.14574">
        <ele>1030.2</ele>
        <time>2022-05-22 16:57:59</time>
      </trkpt>
      <trkpt lat="42.39014" lon="1.14556">
        <ele>1029</ele>
        <time>2022-05-22 16:58:00</time>
      </trkpt>
      <trkpt lat="42.3902" lon="1.14539">
        <ele>1027.6</ele>
        <time>2022-05-22 16:58:01</time>
      </trkpt>
      <trkpt lat="42.39027" lon="1.14522">
        <ele>1026.4</ele>
        <time>2022-05-22 16:58:02</time>
      </trkpt>
      <trkpt lat="42.39034" lon="1.14504">
        <ele>1025.2</ele>
        <time>2022-05-22 16:58:03</time>
      </trkpt>
      <trkpt lat="42.3904" lon="1.14487">
        <ele>1024</ele>
        <time>2022-05-22 16:58:04</time>
      </trkpt>
      <trkpt lat="42.39047" lon="1.14469">
        <ele>1022.8</ele>
        <time>2022-05-22 16:58:05</time>
      </trkpt>
      <trkpt lat="42.39054" lon="1.14451">
        <ele>1021.4</ele>
        <time>2022-05-22 16:58:06</time>
      </trkpt>
      <trkpt lat="42.39061" lon="1.14434">
        <ele>1020.2</ele>
        <time>2022-05-22 16:58:07</time>
      </trkpt>
      <trkpt lat="42.39068" lon="1.14417">
        <ele>1019.2</ele>
        <time>2022-05-22 16:58:08</time>
      </trkpt>
      <trkpt lat="42.39075" lon="1.14399">
        <ele>1017.8</ele>
        <time>2022-05-22 16:58:09</time>
      </trkpt>
      <trkpt lat="42.39081" lon="1.14382">
        <ele>1016.8</ele>
        <time>2022-05-22 16:58:10</time>
      </trkpt>
      <trkpt lat="42.39089" lon="1.14365">
        <ele>1015.8</ele>
        <time>2022-05-22 16:58:11</time>
      </trkpt>
      <trkpt lat="42.39096" lon="1.14348">
        <ele>1014.6</ele>
        <time>2022-05-22 16:58:12</time>
      </trkpt>
      <trkpt lat="42.39103" lon="1.14331">
        <ele>1013.4</ele>
        <time>2022-05-22 16:58:13</time>
      </trkpt>
      <trkpt lat="42.39109" lon="1.14315">
        <ele>1012.4</ele>
        <time>2022-05-22 16:58:14</time>
      </trkpt>
      <trkpt lat="42.39116" lon="1.14298">
        <ele>1011</ele>
        <time>2022-05-22 16:58:15</time>
      </trkpt>
      <trkpt lat="42.39123" lon="1.14282">
        <ele>1010</ele>
        <time>2022-05-22 16:58:16</time>
      </trkpt>
      <trkpt lat="42.3913" lon="1.14265">
        <ele>1009</ele>
        <time>2022-05-22 16:58:17</time>
      </trkpt>
      <trkpt lat="42.39136" lon="1.14248">
        <ele>1008</ele>
        <time>2022-05-22 16:58:18</time>
      </trkpt>
      <trkpt lat="42.39143" lon="1.14233">
        <ele>1006.8</ele>
        <time>2022-05-22 16:58:19</time>
      </trkpt>
      <trkpt lat="42.39151" lon="1.14217">
        <ele>1005.8</ele>
        <time>2022-05-22 16:58:20</time>
      </trkpt>
      <trkpt lat="42.39158" lon="1.142">
        <ele>1004.6</ele>
        <time>2022-05-22 16:58:21</time>
      </trkpt>
      <trkpt lat="42.39166" lon="1.14183">
        <ele>1003.4</ele>
        <time>2022-05-22 16:58:22</time>
      </trkpt>
      <trkpt lat="42.39174" lon="1.14167">
        <ele>1002.4</ele>
        <time>2022-05-22 16:58:23</time>
      </trkpt>
      <trkpt lat="42.39181" lon="1.1415">
        <ele>1001.2</ele>
        <time>2022-05-22 16:58:24</time>
      </trkpt>
      <trkpt lat="42.39188" lon="1.14135">
        <ele>1000</ele>
        <time>2022-05-22 16:58:25</time>
      </trkpt>
      <trkpt lat="42.39196" lon="1.14118">
        <ele>999</ele>
        <time>2022-05-22 16:58:26</time>
      </trkpt>
      <trkpt lat="42.39205" lon="1.14102">
        <ele>997.6</ele>
        <time>2022-05-22 16:58:27</time>
      </trkpt>
      <trkpt lat="42.39214" lon="1.14088">
        <ele>996.4</ele>
        <time>2022-05-22 16:58:28</time>
      </trkpt>
      <trkpt lat="42.39224" lon="1.14075">
        <ele>995.2</ele>
        <time>2022-05-22 16:58:29</time>
      </trkpt>
      <trkpt lat="42.39236" lon="1.14062">
        <ele>994</ele>
        <time>2022-05-22 16:58:30</time>
      </trkpt>
      <trkpt lat="42.39248" lon="1.14053">
        <ele>992.8</ele>
        <time>2022-05-22 16:58:31</time>
      </trkpt>
      <trkpt lat="42.39258" lon="1.14045">
        <ele>991.8</ele>
        <time>2022-05-22 16:58:32</time>
      </trkpt>
      <trkpt lat="42.39271" lon="1.14039">
        <ele>990.6</ele>
        <time>2022-05-22 16:58:33</time>
      </trkpt>
      <trkpt lat="42.39287" lon="1.14034">
        <ele>989.4</ele>
        <time>2022-05-22 16:58:34</time>
      </trkpt>
      <trkpt lat="42.39301" lon="1.14032">
        <ele>988.4</ele>
        <time>2022-05-22 16:58:35</time>
      </trkpt>
      <trkpt lat="42.39316" lon="1.14033">
        <ele>987.4</ele>
        <time>2022-05-22 16:58:36</time>
      </trkpt>
      <trkpt lat="42.3933" lon="1.14035">
        <ele>986</ele>
        <time>2022-05-22 16:58:37</time>
      </trkpt>
      <trkpt lat="42.39344" lon="1.14039">
        <ele>984.6</ele>
        <time>2022-05-22 16:58:38</time>
      </trkpt>
      <trkpt lat="42.39361" lon="1.14048">
        <ele>982.8</ele>
        <time>2022-05-22 16:58:39</time>
      </trkpt>
      <trkpt lat="42.39373" lon="1.14057">
        <ele>981.4</ele>
        <time>2022-05-22 16:58:40</time>
      </trkpt>
      <trkpt lat="42.39386" lon="1.14069">
        <ele>979.8</ele>
        <time>2022-05-22 16:58:41</time>
      </trkpt>
      <trkpt lat="42.394" lon="1.14087">
        <ele>978.6</ele>
        <time>2022-05-22 16:58:42</time>
      </trkpt>
      <trkpt lat="42.39409" lon="1.14102">
        <ele>977.4</ele>
        <time>2022-05-22 16:58:43</time>
      </trkpt>
      <trkpt lat="42.39419" lon="1.1412">
        <ele>976.4</ele>
        <time>2022-05-22 16:58:44</time>
      </trkpt>
      <trkpt lat="42.39426" lon="1.14136">
        <ele>975.6</ele>
        <time>2022-05-22 16:58:45</time>
      </trkpt>
      <trkpt lat="42.39433" lon="1.14152">
        <ele>974.6</ele>
        <time>2022-05-22 16:58:46</time>
      </trkpt>
      <trkpt lat="42.3944" lon="1.14171">
        <ele>973.4</ele>
        <time>2022-05-22 16:58:47</time>
      </trkpt>
      <trkpt lat="42.39446" lon="1.14186">
        <ele>972.4</ele>
        <time>2022-05-22 16:58:48</time>
      </trkpt>
      <trkpt lat="42.39454" lon="1.14204">
        <ele>971.4</ele>
        <time>2022-05-22 16:58:49</time>
      </trkpt>
      <trkpt lat="42.39462" lon="1.14223">
        <ele>970</ele>
        <time>2022-05-22 16:58:50</time>
      </trkpt>
      <trkpt lat="42.39469" lon="1.14237">
        <ele>969</ele>
        <time>2022-05-22 16:58:51</time>
      </trkpt>
      <trkpt lat="42.39478" lon="1.14254">
        <ele>967.8</ele>
        <time>2022-05-22 16:58:52</time>
      </trkpt>
      <trkpt lat="42.39488" lon="1.14268">
        <ele>966.8</ele>
        <time>2022-05-22 16:58:53</time>
      </trkpt>
      <trkpt lat="42.39502" lon="1.14281">
        <ele>965.8</ele>
        <time>2022-05-22 16:58:54</time>
      </trkpt>
      <trkpt lat="42.39514" lon="1.14289">
        <ele>965</ele>
        <time>2022-05-22 16:58:55</time>
      </trkpt>
      <trkpt lat="42.39527" lon="1.14296">
        <ele>964</ele>
        <time>2022-05-22 16:58:56</time>
      </trkpt>
      <trkpt lat="42.39544" lon="1.14302">
        <ele>963.2</ele>
        <time>2022-05-22 16:58:57</time>
      </trkpt>
      <trkpt lat="42.39556" lon="1.14304">
        <ele>962.4</ele>
        <time>2022-05-22 16:58:58</time>
      </trkpt>
      <trkpt lat="42.39572" lon="1.14305">
        <ele>961</ele>
        <time>2022-05-22 16:58:59</time>
      </trkpt>
      <trkpt lat="42.39586" lon="1.14305">
        <ele>959.6</ele>
        <time>2022-05-22 16:59:00</time>
      </trkpt>
      <trkpt lat="42.39604" lon="1.14307">
        <ele>958.4</ele>
        <time>2022-05-22 16:59:01</time>
      </trkpt>
      <trkpt lat="42.39619" lon="1.14307">
        <ele>957.2</ele>
        <time>2022-05-22 16:59:02</time>
      </trkpt>
      <trkpt lat="42.39632" lon="1.14307">
        <ele>956.2</ele>
        <time>2022-05-22 16:59:03</time>
      </trkpt>
      <trkpt lat="42.39646" lon="1.14308">
        <ele>955</ele>
        <time>2022-05-22 16:59:04</time>
      </trkpt>
      <trkpt lat="42.39664" lon="1.14308">
        <ele>953.8</ele>
        <time>2022-05-22 16:59:05</time>
      </trkpt>
      <trkpt lat="42.39677" lon="1.14309">
        <ele>952.8</ele>
        <time>2022-05-22 16:59:06</time>
      </trkpt>
      <trkpt lat="42.39694" lon="1.1431">
        <ele>951.6</ele>
        <time>2022-05-22 16:59:07</time>
      </trkpt>
      <trkpt lat="42.39707" lon="1.14311">
        <ele>950.6</ele>
        <time>2022-05-22 16:59:08</time>
      </trkpt>
      <trkpt lat="42.39727" lon="1.14312">
        <ele>949.6</ele>
        <time>2022-05-22 16:59:09</time>
      </trkpt>
      <trkpt lat="42.39742" lon="1.14314">
        <ele>948.4</ele>
        <time>2022-05-22 16:59:10</time>
      </trkpt>
      <trkpt lat="42.39755" lon="1.14314">
        <ele>947.4</ele>
        <time>2022-05-22 16:59:11</time>
      </trkpt>
      <trkpt lat="42.39772" lon="1.14314">
        <ele>945.8</ele>
        <time>2022-05-22 16:59:12</time>
      </trkpt>
      <trkpt lat="42.39786" lon="1.14315">
        <ele>944.4</ele>
        <time>2022-05-22 16:59:13</time>
      </trkpt>
      <trkpt lat="42.39801" lon="1.14316">
        <ele>943.2</ele>
        <time>2022-05-22 16:59:14</time>
      </trkpt>
      <trkpt lat="42.39818" lon="1.14316">
        <ele>942</ele>
        <time>2022-05-22 16:59:15</time>
      </trkpt>
      <trkpt lat="42.39831" lon="1.14313">
        <ele>940.8</ele>
        <time>2022-05-22 16:59:16</time>
      </trkpt>
      <trkpt lat="42.39845" lon="1.14309">
        <ele>939.6</ele>
        <time>2022-05-22 16:59:17</time>
      </trkpt>
      <trkpt lat="42.39861" lon="1.14302">
        <ele>938.4</ele>
        <time>2022-05-22 16:59:18</time>
      </trkpt>
      <trkpt lat="42.39874" lon="1.14296">
        <ele>937.4</ele>
        <time>2022-05-22 16:59:19</time>
      </trkpt>
      <trkpt lat="42.3989" lon="1.14284">
        <ele>936.4</ele>
        <time>2022-05-22 16:59:20</time>
      </trkpt>
      <trkpt lat="42.39902" lon="1.14273">
        <ele>935</ele>
        <time>2022-05-22 16:59:21</time>
      </trkpt>
      <trkpt lat="42.39916" lon="1.14259">
        <ele>933.4</ele>
        <time>2022-05-22 16:59:22</time>
      </trkpt>
      <trkpt lat="42.39929" lon="1.14247">
        <ele>932</ele>
        <time>2022-05-22 16:59:23</time>
      </trkpt>
      <trkpt lat="42.3994" lon="1.14237">
        <ele>930.6</ele>
        <time>2022-05-22 16:59:24</time>
      </trkpt>
      <trkpt lat="42.39952" lon="1.14226">
        <ele>929.2</ele>
        <time>2022-05-22 16:59:25</time>
      </trkpt>
      <trkpt lat="42.39968" lon="1.14214">
        <ele>928</ele>
        <time>2022-05-22 16:59:26</time>
      </trkpt>
      <trkpt lat="42.39984" lon="1.14205">
        <ele>927</ele>
        <time>2022-05-22 16:59:27</time>
      </trkpt>
      <trkpt lat="42.39999" lon="1.14199">
        <ele>925.8</ele>
        <time>2022-05-22 16:59:28</time>
      </trkpt>
      <trkpt lat="42.40011" lon="1.14196">
        <ele>924.4</ele>
        <time>2022-05-22 16:59:29</time>
      </trkpt>
      <trkpt lat="42.40026" lon="1.14195">
        <ele>923.4</ele>
        <time>2022-05-22 16:59:30</time>
      </trkpt>
      <trkpt lat="42.40046" lon="1.14197">
        <ele>922.4</ele>
        <time>2022-05-22 16:59:31</time>
      </trkpt>
      <trkpt lat="42.40059" lon="1.14198">
        <ele>921.4</ele>
        <time>2022-05-22 16:59:32</time>
      </trkpt>
      <trkpt lat="42.40077" lon="1.14201">
        <ele>920.2</ele>
        <time>2022-05-22 16:59:33</time>
      </trkpt>
      <trkpt lat="42.40092" lon="1.14203">
        <ele>919.2</ele>
        <time>2022-05-22 16:59:34</time>
      </trkpt>
      <trkpt lat="42.40106" lon="1.14206">
        <ele>918</ele>
        <time>2022-05-22 16:59:35</time>
      </trkpt>
      <trkpt lat="42.40124" lon="1.14208">
        <ele>916.8</ele>
        <time>2022-05-22 16:59:36</time>
      </trkpt>
      <trkpt lat="42.40136" lon="1.14209">
        <ele>915.8</ele>
        <time>2022-05-22 16:59:37</time>
      </trkpt>
      <trkpt lat="42.4015" lon="1.14211">
        <ele>914.8</ele>
        <time>2022-05-22 16:59:38</time>
      </trkpt>
      <trkpt lat="42.40169" lon="1.14212">
        <ele>914.2</ele>
        <time>2022-05-22 16:59:39</time>
      </trkpt>
      <trkpt lat="42.40183" lon="1.14213">
        <ele>913.4</ele>
        <time>2022-05-22 16:59:40</time>
      </trkpt>
      <trkpt lat="42.40195" lon="1.14212">
        <ele>912.6</ele>
        <time>2022-05-22 16:59:41</time>
      </trkpt>
      <trkpt lat="42.40206" lon="1.14211">
        <ele>912</ele>
        <time>2022-05-22 16:59:42</time>
      </trkpt>
      <trkpt lat="42.40219" lon="1.14204">
        <ele>911.2</ele>
        <time>2022-05-22 16:59:43</time>
      </trkpt>
      <trkpt lat="42.40227" lon="1.14196">
        <ele>910.6</ele>
        <time>2022-05-22 16:59:44</time>
      </trkpt>
      <trkpt lat="42.40231" lon="1.1418">
        <ele>909.6</ele>
        <time>2022-05-22 16:59:45</time>
      </trkpt>
      <trkpt lat="42.40234" lon="1.14162">
        <ele>908.2</ele>
        <time>2022-05-22 16:59:46</time>
      </trkpt>
      <trkpt lat="42.40234" lon="1.14147">
        <ele>907.2</ele>
        <time>2022-05-22 16:59:47</time>
      </trkpt>
      <trkpt lat="42.40228" lon="1.14132">
        <ele>906</ele>
        <time>2022-05-22 16:59:48</time>
      </trkpt>
      <trkpt lat="42.40213" lon="1.14118">
        <ele>904.8</ele>
        <time>2022-05-22 16:59:49</time>
      </trkpt>
      <trkpt lat="42.40201" lon="1.14111">
        <ele>903.6</ele>
        <time>2022-05-22 16:59:50</time>
      </trkpt>
      <trkpt lat="42.40189" lon="1.14107">
        <ele>902.6</ele>
        <time>2022-05-22 16:59:51</time>
      </trkpt>
      <trkpt lat="42.40174" lon="1.14108">
        <ele>901.4</ele>
        <time>2022-05-22 16:59:52</time>
      </trkpt>
      <trkpt lat="42.40163" lon="1.14113">
        <ele>900.6</ele>
        <time>2022-05-22 16:59:53</time>
      </trkpt>
      <trkpt lat="42.40146" lon="1.14122">
        <ele>899.8</ele>
        <time>2022-05-22 16:59:54</time>
      </trkpt>
      <trkpt lat="42.40131" lon="1.1413">
        <ele>898.4</ele>
        <time>2022-05-22 16:59:55</time>
      </trkpt>
      <trkpt lat="42.40119" lon="1.14135">
        <ele>897</ele>
        <time>2022-05-22 16:59:56</time>
      </trkpt>
      <trkpt lat="42.40106" lon="1.14137">
        <ele>895.8</ele>
        <time>2022-05-22 16:59:57</time>
      </trkpt>
      <trkpt lat="42.40093" lon="1.14135">
        <ele>894.6</ele>
        <time>2022-05-22 16:59:58</time>
      </trkpt>
      <trkpt lat="42.40081" lon="1.1413">
        <ele>893.4</ele>
        <time>2022-05-22 16:59:59</time>
      </trkpt>
      <trkpt lat="42.40069" lon="1.14123">
        <ele>892.2</ele>
        <time>2022-05-22 17:00:00</time>
      </trkpt>
      <trkpt lat="42.40057" lon="1.14113">
        <ele>891</ele>
        <time>2022-05-22 17:00:01</time>
      </trkpt>
      <trkpt lat="42.40044" lon="1.14105">
        <ele>889.8</ele>
        <time>2022-05-22 17:00:02</time>
      </trkpt>
      <trkpt lat="42.40031" lon="1.14098">
        <ele>888.8</ele>
        <time>2022-05-22 17:00:03</time>
      </trkpt>
      <trkpt lat="42.40017" lon="1.14095">
        <ele>887.8</ele>
        <time>2022-05-22 17:00:04</time>
      </trkpt>
      <trkpt lat="42.40003" lon="1.14093">
        <ele>886.8</ele>
        <time>2022-05-22 17:00:05</time>
      </trkpt>
      <trkpt lat="42.39989" lon="1.14093">
        <ele>886</ele>
        <time>2022-05-22 17:00:06</time>
      </trkpt>
      <trkpt lat="42.39974" lon="1.14092">
        <ele>885</ele>
        <time>2022-05-22 17:00:07</time>
      </trkpt>
      <trkpt lat="42.3996" lon="1.14091">
        <ele>883.6</ele>
        <time>2022-05-22 17:00:08</time>
      </trkpt>
      <trkpt lat="42.39947" lon="1.14088">
        <ele>882.4</ele>
        <time>2022-05-22 17:00:09</time>
      </trkpt>
      <trkpt lat="42.39933" lon="1.14084">
        <ele>881.2</ele>
        <time>2022-05-22 17:00:10</time>
      </trkpt>
      <trkpt lat="42.39919" lon="1.14078">
        <ele>880</ele>
        <time>2022-05-22 17:00:11</time>
      </trkpt>
      <trkpt lat="42.39906" lon="1.14072">
        <ele>878.8</ele>
        <time>2022-05-22 17:00:12</time>
      </trkpt>
      <trkpt lat="42.39892" lon="1.14066">
        <ele>877.8</ele>
        <time>2022-05-22 17:00:13</time>
      </trkpt>
      <trkpt lat="42.39879" lon="1.14058">
        <ele>876.8</ele>
        <time>2022-05-22 17:00:14</time>
      </trkpt>
      <trkpt lat="42.39866" lon="1.14051">
        <ele>875.8</ele>
        <time>2022-05-22 17:00:15</time>
      </trkpt>
      <trkpt lat="42.39853" lon="1.14043">
        <ele>874.8</ele>
        <time>2022-05-22 17:00:16</time>
      </trkpt>
      <trkpt lat="42.3984" lon="1.14033">
        <ele>873.8</ele>
        <time>2022-05-22 17:00:17</time>
      </trkpt>
      <trkpt lat="42.39829" lon="1.14021">
        <ele>872.4</ele>
        <time>2022-05-22 17:00:18</time>
      </trkpt>
      <trkpt lat="42.39818" lon="1.14007">
        <ele>871.2</ele>
        <time>2022-05-22 17:00:19</time>
      </trkpt>
      <trkpt lat="42.39808" lon="1.13993">
        <ele>870</ele>
        <time>2022-05-22 17:00:20</time>
      </trkpt>
      <trkpt lat="42.39798" lon="1.13978">
        <ele>868.8</ele>
        <time>2022-05-22 17:00:21</time>
      </trkpt>
      <trkpt lat="42.39787" lon="1.13964">
        <ele>867.6</ele>
        <time>2022-05-22 17:00:22</time>
      </trkpt>
      <trkpt lat="42.39777" lon="1.13951">
        <ele>866.4</ele>
        <time>2022-05-22 17:00:23</time>
      </trkpt>
      <trkpt lat="42.39765" lon="1.1394">
        <ele>865.2</ele>
        <time>2022-05-22 17:00:24</time>
      </trkpt>
      <trkpt lat="42.39754" lon="1.13931">
        <ele>864.2</ele>
        <time>2022-05-22 17:00:25</time>
      </trkpt>
      <trkpt lat="42.39741" lon="1.13923">
        <ele>863</ele>
        <time>2022-05-22 17:00:26</time>
      </trkpt>
      <trkpt lat="42.39728" lon="1.13918">
        <ele>862.2</ele>
        <time>2022-05-22 17:00:27</time>
      </trkpt>
      <trkpt lat="42.39715" lon="1.13915">
        <ele>861.4</ele>
        <time>2022-05-22 17:00:28</time>
      </trkpt>
      <trkpt lat="42.39701" lon="1.13913">
        <ele>860.4</ele>
        <time>2022-05-22 17:00:29</time>
      </trkpt>
      <trkpt lat="42.39685" lon="1.13913">
        <ele>859.2</ele>
        <time>2022-05-22 17:00:30</time>
      </trkpt>
      <trkpt lat="42.3967" lon="1.13915">
        <ele>858</ele>
        <time>2022-05-22 17:00:31</time>
      </trkpt>
      <trkpt lat="42.39654" lon="1.13917">
        <ele>856.8</ele>
        <time>2022-05-22 17:00:32</time>
      </trkpt>
      <trkpt lat="42.3964" lon="1.13919">
        <ele>855.8</ele>
        <time>2022-05-22 17:00:33</time>
      </trkpt>
      <trkpt lat="42.39626" lon="1.13918">
        <ele>855.2</ele>
        <time>2022-05-22 17:00:34</time>
      </trkpt>
      <trkpt lat="42.39613" lon="1.13914">
        <ele>854.6</ele>
        <time>2022-05-22 17:00:35</time>
      </trkpt>
      <trkpt lat="42.39605" lon="1.13905">
        <ele>854.2</ele>
        <time>2022-05-22 17:00:36</time>
      </trkpt>
      <trkpt lat="42.396" lon="1.13891">
        <ele>853.8</ele>
        <time>2022-05-22 17:00:37</time>
      </trkpt>
      <trkpt lat="42.39597" lon="1.13876">
        <ele>853.4</ele>
        <time>2022-05-22 17:00:38</time>
      </trkpt>
      <trkpt lat="42.39599" lon="1.1386">
        <ele>852.8</ele>
        <time>2022-05-22 17:00:39</time>
      </trkpt>
      <trkpt lat="42.39604" lon="1.13845">
        <ele>852.2</ele>
        <time>2022-05-22 17:00:40</time>
      </trkpt>
      <trkpt lat="42.39612" lon="1.13833">
        <ele>851.4</ele>
        <time>2022-05-22 17:00:41</time>
      </trkpt>
      <trkpt lat="42.39622" lon="1.13826">
        <ele>850.6</ele>
        <time>2022-05-22 17:00:42</time>
      </trkpt>
      <trkpt lat="42.39633" lon="1.13824">
        <ele>849.4</ele>
        <time>2022-05-22 17:00:43</time>
      </trkpt>
      <trkpt lat="42.39645" lon="1.13825">
        <ele>848.4</ele>
        <time>2022-05-22 17:00:44</time>
      </trkpt>
      <trkpt lat="42.39658" lon="1.13828">
        <ele>847.4</ele>
        <time>2022-05-22 17:00:45</time>
      </trkpt>
      <trkpt lat="42.3967" lon="1.13832">
        <ele>846.6</ele>
        <time>2022-05-22 17:00:46</time>
      </trkpt>
      <trkpt lat="42.39683" lon="1.13835">
        <ele>846</ele>
        <time>2022-05-22 17:00:47</time>
      </trkpt>
      <trkpt lat="42.39696" lon="1.13835">
        <ele>845.2</ele>
        <time>2022-05-22 17:00:48</time>
      </trkpt>
      <trkpt lat="42.39709" lon="1.13834">
        <ele>844.6</ele>
        <time>2022-05-22 17:00:49</time>
      </trkpt>
      <trkpt lat="42.39722" lon="1.1383">
        <ele>844.2</ele>
        <time>2022-05-22 17:00:50</time>
      </trkpt>
      <trkpt lat="42.39735" lon="1.13826">
        <ele>843.2</ele>
        <time>2022-05-22 17:00:51</time>
      </trkpt>
      <trkpt lat="42.39747" lon="1.13821">
        <ele>842.2</ele>
        <time>2022-05-22 17:00:52</time>
      </trkpt>
      <trkpt lat="42.3976" lon="1.13817">
        <ele>841.4</ele>
        <time>2022-05-22 17:00:53</time>
      </trkpt>
      <trkpt lat="42.39773" lon="1.13815">
        <ele>840.4</ele>
        <time>2022-05-22 17:00:54</time>
      </trkpt>
      <trkpt lat="42.39786" lon="1.13814">
        <ele>839.6</ele>
        <time>2022-05-22 17:00:55</time>
      </trkpt>
      <trkpt lat="42.39799" lon="1.13814">
        <ele>838.8</ele>
        <time>2022-05-22 17:00:56</time>
      </trkpt>
      <trkpt lat="42.39812" lon="1.13815">
        <ele>838</ele>
        <time>2022-05-22 17:00:57</time>
      </trkpt>
      <trkpt lat="42.39826" lon="1.13816">
        <ele>837</ele>
        <time>2022-05-22 17:00:58</time>
      </trkpt>
      <trkpt lat="42.39839" lon="1.13818">
        <ele>836.2</ele>
        <time>2022-05-22 17:00:59</time>
      </trkpt>
      <trkpt lat="42.39851" lon="1.1382">
        <ele>835.2</ele>
        <time>2022-05-22 17:01:00</time>
      </trkpt>
      <trkpt lat="42.39865" lon="1.13823">
        <ele>834.4</ele>
        <time>2022-05-22 17:01:01</time>
      </trkpt>
      <trkpt lat="42.39878" lon="1.13827">
        <ele>833.4</ele>
        <time>2022-05-22 17:01:02</time>
      </trkpt>
      <trkpt lat="42.39892" lon="1.13832">
        <ele>832.6</ele>
        <time>2022-05-22 17:01:03</time>
      </trkpt>
      <trkpt lat="42.39905" lon="1.13839">
        <ele>831.2</ele>
        <time>2022-05-22 17:01:04</time>
      </trkpt>
      <trkpt lat="42.39918" lon="1.13846">
        <ele>830.2</ele>
        <time>2022-05-22 17:01:05</time>
      </trkpt>
      <trkpt lat="42.39931" lon="1.13854">
        <ele>829.2</ele>
        <time>2022-05-22 17:01:06</time>
      </trkpt>
      <trkpt lat="42.39944" lon="1.13863">
        <ele>828.2</ele>
        <time>2022-05-22 17:01:07</time>
      </trkpt>
      <trkpt lat="42.39957" lon="1.13873">
        <ele>827.2</ele>
        <time>2022-05-22 17:01:08</time>
      </trkpt>
      <trkpt lat="42.39969" lon="1.13882">
        <ele>826.4</ele>
        <time>2022-05-22 17:01:09</time>
      </trkpt>
      <trkpt lat="42.39981" lon="1.1389">
        <ele>825.4</ele>
        <time>2022-05-22 17:01:10</time>
      </trkpt>
      <trkpt lat="42.39995" lon="1.13897">
        <ele>824.2</ele>
        <time>2022-05-22 17:01:11</time>
      </trkpt>
      <trkpt lat="42.40009" lon="1.13903">
        <ele>823</ele>
        <time>2022-05-22 17:01:12</time>
      </trkpt>
      <trkpt lat="42.40023" lon="1.13908">
        <ele>822</ele>
        <time>2022-05-22 17:01:13</time>
      </trkpt>
      <trkpt lat="42.40038" lon="1.1391">
        <ele>821</ele>
        <time>2022-05-22 17:01:14</time>
      </trkpt>
      <trkpt lat="42.40054" lon="1.13911">
        <ele>819.6</ele>
        <time>2022-05-22 17:01:15</time>
      </trkpt>
      <trkpt lat="42.40069" lon="1.13909">
        <ele>818.4</ele>
        <time>2022-05-22 17:01:16</time>
      </trkpt>
      <trkpt lat="42.40086" lon="1.13906">
        <ele>817.2</ele>
        <time>2022-05-22 17:01:17</time>
      </trkpt>
      <trkpt lat="42.40101" lon="1.13902">
        <ele>816</ele>
        <time>2022-05-22 17:01:18</time>
      </trkpt>
      <trkpt lat="42.40115" lon="1.13895">
        <ele>814.8</ele>
        <time>2022-05-22 17:01:19</time>
      </trkpt>
      <trkpt lat="42.40129" lon="1.13887">
        <ele>813.6</ele>
        <time>2022-05-22 17:01:20</time>
      </trkpt>
      <trkpt lat="42.40144" lon="1.1388">
        <ele>812.2</ele>
        <time>2022-05-22 17:01:21</time>
      </trkpt>
      <trkpt lat="42.40158" lon="1.13872">
        <ele>811</ele>
        <time>2022-05-22 17:01:22</time>
      </trkpt>
      <trkpt lat="42.40174" lon="1.13865">
        <ele>809.8</ele>
        <time>2022-05-22 17:01:23</time>
      </trkpt>
      <trkpt lat="42.40189" lon="1.13858">
        <ele>808.8</ele>
        <time>2022-05-22 17:01:24</time>
      </trkpt>
      <trkpt lat="42.40203" lon="1.13851">
        <ele>807.8</ele>
        <time>2022-05-22 17:01:25</time>
      </trkpt>
      <trkpt lat="42.40218" lon="1.13844">
        <ele>806.2</ele>
        <time>2022-05-22 17:01:26</time>
      </trkpt>
      <trkpt lat="42.40234" lon="1.13837">
        <ele>805</ele>
        <time>2022-05-22 17:01:27</time>
      </trkpt>
      <trkpt lat="42.40249" lon="1.13832">
        <ele>803.6</ele>
        <time>2022-05-22 17:01:28</time>
      </trkpt>
      <trkpt lat="42.40264" lon="1.13826">
        <ele>802.6</ele>
        <time>2022-05-22 17:01:29</time>
      </trkpt>
      <trkpt lat="42.40279" lon="1.13821">
        <ele>801.6</ele>
        <time>2022-05-22 17:01:30</time>
      </trkpt>
      <trkpt lat="42.40295" lon="1.13816">
        <ele>800.6</ele>
        <time>2022-05-22 17:01:31</time>
      </trkpt>
      <trkpt lat="42.40311" lon="1.13812">
        <ele>799.6</ele>
        <time>2022-05-22 17:01:32</time>
      </trkpt>
      <trkpt lat="42.40326" lon="1.13806">
        <ele>798.8</ele>
        <time>2022-05-22 17:01:33</time>
      </trkpt>
      <trkpt lat="42.40341" lon="1.13798">
        <ele>797.8</ele>
        <time>2022-05-22 17:01:34</time>
      </trkpt>
      <trkpt lat="42.40356" lon="1.13788">
        <ele>797</ele>
        <time>2022-05-22 17:01:35</time>
      </trkpt>
      <trkpt lat="42.4037" lon="1.13778">
        <ele>795.8</ele>
        <time>2022-05-22 17:01:36</time>
      </trkpt>
      <trkpt lat="42.40383" lon="1.13766">
        <ele>794.6</ele>
        <time>2022-05-22 17:01:37</time>
      </trkpt>
      <trkpt lat="42.40395" lon="1.13752">
        <ele>793.4</ele>
        <time>2022-05-22 17:01:38</time>
      </trkpt>
      <trkpt lat="42.40407" lon="1.13737">
        <ele>792.2</ele>
        <time>2022-05-22 17:01:39</time>
      </trkpt>
      <trkpt lat="42.40419" lon="1.1372">
        <ele>790.8</ele>
        <time>2022-05-22 17:01:40</time>
      </trkpt>
      <trkpt lat="42.40429" lon="1.13703">
        <ele>789.6</ele>
        <time>2022-05-22 17:01:41</time>
      </trkpt>
      <trkpt lat="42.4044" lon="1.13686">
        <ele>788.2</ele>
        <time>2022-05-22 17:01:42</time>
      </trkpt>
      <trkpt lat="42.40451" lon="1.13671">
        <ele>786.8</ele>
        <time>2022-05-22 17:01:43</time>
      </trkpt>
      <trkpt lat="42.40463" lon="1.13657">
        <ele>785.4</ele>
        <time>2022-05-22 17:01:44</time>
      </trkpt>
      <trkpt lat="42.40477" lon="1.13645">
        <ele>784</ele>
        <time>2022-05-22 17:01:45</time>
      </trkpt>
      <trkpt lat="42.40492" lon="1.13634">
        <ele>782.6</ele>
        <time>2022-05-22 17:01:46</time>
      </trkpt>
      <trkpt lat="42.40508" lon="1.13624">
        <ele>781</ele>
        <time>2022-05-22 17:01:47</time>
      </trkpt>
      <trkpt lat="42.40524" lon="1.13617">
        <ele>779.8</ele>
        <time>2022-05-22 17:01:48</time>
      </trkpt>
      <trkpt lat="42.40541" lon="1.13611">
        <ele>778.4</ele>
        <time>2022-05-22 17:01:49</time>
      </trkpt>
      <trkpt lat="42.40557" lon="1.13606">
        <ele>776.8</ele>
        <time>2022-05-22 17:01:50</time>
      </trkpt>
      <trkpt lat="42.40573" lon="1.13601">
        <ele>775.4</ele>
        <time>2022-05-22 17:01:51</time>
      </trkpt>
      <trkpt lat="42.40589" lon="1.13596">
        <ele>774.2</ele>
        <time>2022-05-22 17:01:52</time>
      </trkpt>
      <trkpt lat="42.40605" lon="1.13589">
        <ele>773.2</ele>
        <time>2022-05-22 17:01:53</time>
      </trkpt>
      <trkpt lat="42.4062" lon="1.13582">
        <ele>772.2</ele>
        <time>2022-05-22 17:01:54</time>
      </trkpt>
      <trkpt lat="42.40635" lon="1.13572">
        <ele>771.2</ele>
        <time>2022-05-22 17:01:55</time>
      </trkpt>
      <trkpt lat="42.40649" lon="1.13561">
        <ele>770</ele>
        <time>2022-05-22 17:01:56</time>
      </trkpt>
      <trkpt lat="42.40662" lon="1.13549">
        <ele>768.8</ele>
        <time>2022-05-22 17:01:57</time>
      </trkpt>
      <trkpt lat="42.40675" lon="1.13535">
        <ele>767.6</ele>
        <time>2022-05-22 17:01:58</time>
      </trkpt>
      <trkpt lat="42.40686" lon="1.1352">
        <ele>766.8</ele>
        <time>2022-05-22 17:01:59</time>
      </trkpt>
      <trkpt lat="42.40696" lon="1.13505">
        <ele>765.6</ele>
        <time>2022-05-22 17:02:00</time>
      </trkpt>
      <trkpt lat="42.40706" lon="1.13488">
        <ele>764.4</ele>
        <time>2022-05-22 17:02:01</time>
      </trkpt>
      <trkpt lat="42.40716" lon="1.13471">
        <ele>763.4</ele>
        <time>2022-05-22 17:02:02</time>
      </trkpt>
      <trkpt lat="42.40725" lon="1.13455">
        <ele>762.4</ele>
        <time>2022-05-22 17:02:03</time>
      </trkpt>
      <trkpt lat="42.40734" lon="1.13439">
        <ele>761.4</ele>
        <time>2022-05-22 17:02:04</time>
      </trkpt>
      <trkpt lat="42.40744" lon="1.13422">
        <ele>760.4</ele>
        <time>2022-05-22 17:02:05</time>
      </trkpt>
      <trkpt lat="42.40755" lon="1.13406">
        <ele>759.4</ele>
        <time>2022-05-22 17:02:06</time>
      </trkpt>
      <trkpt lat="42.40766" lon="1.1339">
        <ele>758.4</ele>
        <time>2022-05-22 17:02:07</time>
      </trkpt>
      <trkpt lat="42.40777" lon="1.13377">
        <ele>757.2</ele>
        <time>2022-05-22 17:02:08</time>
      </trkpt>
      <trkpt lat="42.40789" lon="1.13364">
        <ele>756.2</ele>
        <time>2022-05-22 17:02:09</time>
      </trkpt>
      <trkpt lat="42.40801" lon="1.13352">
        <ele>755</ele>
        <time>2022-05-22 17:02:10</time>
      </trkpt>
      <trkpt lat="42.40814" lon="1.13339">
        <ele>754</ele>
        <time>2022-05-22 17:02:11</time>
      </trkpt>
      <trkpt lat="42.40826" lon="1.13328">
        <ele>753</ele>
        <time>2022-05-22 17:02:12</time>
      </trkpt>
      <trkpt lat="42.40838" lon="1.13318">
        <ele>751.8</ele>
        <time>2022-05-22 17:02:13</time>
      </trkpt>
      <trkpt lat="42.4085" lon="1.13307">
        <ele>751</ele>
        <time>2022-05-22 17:02:14</time>
      </trkpt>
      <trkpt lat="42.40862" lon="1.13296">
        <ele>750.2</ele>
        <time>2022-05-22 17:02:15</time>
      </trkpt>
      <trkpt lat="42.40874" lon="1.13285">
        <ele>749.4</ele>
        <time>2022-05-22 17:02:16</time>
      </trkpt>
      <trkpt lat="42.40886" lon="1.13271">
        <ele>748.6</ele>
        <time>2022-05-22 17:02:17</time>
      </trkpt>
      <trkpt lat="42.40895" lon="1.13256">
        <ele>747.8</ele>
        <time>2022-05-22 17:02:18</time>
      </trkpt>
      <trkpt lat="42.40902" lon="1.13239">
        <ele>747.2</ele>
        <time>2022-05-22 17:02:19</time>
      </trkpt>
      <trkpt lat="42.40907" lon="1.13221">
        <ele>746.6</ele>
        <time>2022-05-22 17:02:20</time>
      </trkpt>
      <trkpt lat="42.4091" lon="1.13204">
        <ele>746</ele>
        <time>2022-05-22 17:02:21</time>
      </trkpt>
      <trkpt lat="42.40913" lon="1.13188">
        <ele>745.2</ele>
        <time>2022-05-22 17:02:22</time>
      </trkpt>
      <trkpt lat="42.40916" lon="1.13173">
        <ele>744.6</ele>
        <time>2022-05-22 17:02:23</time>
      </trkpt>
      <trkpt lat="42.40919" lon="1.13159">
        <ele>744</ele>
        <time>2022-05-22 17:02:24</time>
      </trkpt>
      <trkpt lat="42.40922" lon="1.13145">
        <ele>743.4</ele>
        <time>2022-05-22 17:02:25</time>
      </trkpt>
      <trkpt lat="42.40925" lon="1.13131">
        <ele>742.8</ele>
        <time>2022-05-22 17:02:26</time>
      </trkpt>
      <trkpt lat="42.40929" lon="1.13117">
        <ele>742.2</ele>
        <time>2022-05-22 17:02:27</time>
      </trkpt>
      <trkpt lat="42.40932" lon="1.13101">
        <ele>741.4</ele>
        <time>2022-05-22 17:02:28</time>
      </trkpt>
      <trkpt lat="42.40935" lon="1.13086">
        <ele>740.6</ele>
        <time>2022-05-22 17:02:29</time>
      </trkpt>
      <trkpt lat="42.40938" lon="1.13073">
        <ele>740</ele>
        <time>2022-05-22 17:02:30</time>
      </trkpt>
      <trkpt lat="42.40941" lon="1.13059">
        <ele>739.6</ele>
        <time>2022-05-22 17:02:31</time>
      </trkpt>
      <trkpt lat="42.40944" lon="1.13045">
        <ele>739.2</ele>
        <time>2022-05-22 17:02:32</time>
      </trkpt>
      <trkpt lat="42.40948" lon="1.13032">
        <ele>738.8</ele>
        <time>2022-05-22 17:02:33</time>
      </trkpt>
      <trkpt lat="42.40951" lon="1.1302">
        <ele>738.6</ele>
        <time>2022-05-22 17:02:34</time>
      </trkpt>
      <trkpt lat="42.40954" lon="1.1301">
        <ele>738.4</ele>
        <time>2022-05-22 17:02:35</time>
      </trkpt>
      <trkpt lat="42.40957" lon="1.13002">
        <ele>738.6</ele>
        <time>2022-05-22 17:02:36</time>
      </trkpt>
      <trkpt lat="42.4096" lon="1.12997">
        <ele>738.6</ele>
        <time>2022-05-22 17:02:37</time>
      </trkpt>
      <trkpt lat="42.40963" lon="1.12995">
        <ele>738.8</ele>
        <time>2022-05-22 17:02:38</time>
      </trkpt>
      <trkpt lat="42.40966" lon="1.12997">
        <ele>738.8</ele>
        <time>2022-05-22 17:02:39</time>
      </trkpt>
      <trkpt lat="42.4097" lon="1.13002">
        <ele>739</ele>
        <time>2022-05-22 17:02:40</time>
      </trkpt>
      <trkpt lat="42.40974" lon="1.13006">
        <ele>739</ele>
        <time>2022-05-22 17:02:41</time>
      </trkpt>
      <trkpt lat="42.40978" lon="1.1301">
        <ele>739</ele>
        <time>2022-05-22 17:02:42</time>
      </trkpt>
      <trkpt lat="42.40983" lon="1.13013">
        <ele>739</ele>
        <time>2022-05-22 17:02:43</time>
      </trkpt>
      <trkpt lat="42.40988" lon="1.13017">
        <ele>739</ele>
        <time>2022-05-22 17:02:44</time>
      </trkpt>
      <trkpt lat="42.40992" lon="1.1302">
        <ele>738.8</ele>
        <time>2022-05-22 17:02:45</time>
      </trkpt>
      <trkpt lat="42.40996" lon="1.13024">
        <ele>738.8</ele>
        <time>2022-05-22 17:02:46</time>
      </trkpt>
      <trkpt lat="42.41001" lon="1.13027">
        <ele>738.8</ele>
        <time>2022-05-22 17:02:47</time>
      </trkpt>
      <trkpt lat="42.41005" lon="1.13031">
        <ele>738.8</ele>
        <time>2022-05-22 17:02:48</time>
      </trkpt>
      <trkpt lat="42.4101" lon="1.13035">
        <ele>738.8</ele>
        <time>2022-05-22 17:02:49</time>
      </trkpt>
      <trkpt lat="42.41014" lon="1.13039">
        <ele>738.8</ele>
        <time>2022-05-22 17:02:50</time>
      </trkpt>
      <trkpt lat="42.41019" lon="1.13044">
        <ele>738.8</ele>
        <time>2022-05-22 17:02:51</time>
      </trkpt>
      <trkpt lat="42.41023" lon="1.13047">
        <ele>738.8</ele>
        <time>2022-05-22 17:02:52</time>
      </trkpt>
      <trkpt lat="42.41029" lon="1.13052">
        <ele>738.8</ele>
        <time>2022-05-22 17:02:53</time>
      </trkpt>
      <trkpt lat="42.41034" lon="1.13057">
        <ele>738.6</ele>
        <time>2022-05-22 17:02:54</time>
      </trkpt>
      <trkpt lat="42.41039" lon="1.13061">
        <ele>738.6</ele>
        <time>2022-05-22 17:02:55</time>
      </trkpt>
      <trkpt lat="42.41044" lon="1.13066">
        <ele>738.4</ele>
        <time>2022-05-22 17:02:56</time>
      </trkpt>
      <trkpt lat="42.41049" lon="1.1307">
        <ele>738.4</ele>
        <time>2022-05-22 17:02:57</time>
      </trkpt>
      <trkpt lat="42.41055" lon="1.13075">
        <ele>738.4</ele>
        <time>2022-05-22 17:02:58</time>
      </trkpt>
      <trkpt lat="42.4106" lon="1.1308">
        <ele>738.2</ele>
        <time>2022-05-22 17:02:59</time>
      </trkpt>
      <trkpt lat="42.41065" lon="1.13086">
        <ele>738.2</ele>
        <time>2022-05-22 17:03:00</time>
      </trkpt>
      <trkpt lat="42.4107" lon="1.13091">
        <ele>738.2</ele>
        <time>2022-05-22 17:03:01</time>
      </trkpt>
      <trkpt lat="42.41075" lon="1.13097">
        <ele>738</ele>
        <time>2022-05-22 17:03:02</time>
      </trkpt>
      <trkpt lat="42.41081" lon="1.13103">
        <ele>738</ele>
        <time>2022-05-22 17:03:03</time>
      </trkpt>
      <trkpt lat="42.41086" lon="1.13109">
        <ele>738</ele>
        <time>2022-05-22 17:03:04</time>
      </trkpt>
      <trkpt lat="42.41091" lon="1.13115">
        <ele>738</ele>
        <time>2022-05-22 17:03:05</time>
      </trkpt>
      <trkpt lat="42.41097" lon="1.13121">
        <ele>738</ele>
        <time>2022-05-22 17:03:06</time>
      </trkpt>
      <trkpt lat="42.41102" lon="1.13127">
        <ele>737.8</ele>
        <time>2022-05-22 17:03:07</time>
      </trkpt>
      <trkpt lat="42.41108" lon="1.13133">
        <ele>737.8</ele>
        <time>2022-05-22 17:03:08</time>
      </trkpt>
      <trkpt lat="42.41113" lon="1.13138">
        <ele>737.6</ele>
        <time>2022-05-22 17:03:09</time>
      </trkpt>
      <trkpt lat="42.41118" lon="1.13143">
        <ele>737.6</ele>
        <time>2022-05-22 17:03:10</time>
      </trkpt>
      <trkpt lat="42.41125" lon="1.13148">
        <ele>737.4</ele>
        <time>2022-05-22 17:03:11</time>
      </trkpt>
      <trkpt lat="42.41131" lon="1.13154">
        <ele>737.2</ele>
        <time>2022-05-22 17:03:12</time>
      </trkpt>
      <trkpt lat="42.41137" lon="1.13159">
        <ele>737.2</ele>
        <time>2022-05-22 17:03:13</time>
      </trkpt>
      <trkpt lat="42.41144" lon="1.13165">
        <ele>737</ele>
        <time>2022-05-22 17:03:14</time>
      </trkpt>
      <trkpt lat="42.41151" lon="1.1317">
        <ele>737</ele>
        <time>2022-05-22 17:03:15</time>
      </trkpt>
      <trkpt lat="42.41158" lon="1.13175">
        <ele>736.8</ele>
        <time>2022-05-22 17:03:16</time>
      </trkpt>
      <trkpt lat="42.41165" lon="1.13179">
        <ele>736.6</ele>
        <time>2022-05-22 17:03:17</time>
      </trkpt>
      <trkpt lat="42.41172" lon="1.13183">
        <ele>736.4</ele>
        <time>2022-05-22 17:03:18</time>
      </trkpt>
      <trkpt lat="42.41179" lon="1.13186">
        <ele>736.4</ele>
        <time>2022-05-22 17:03:19</time>
      </trkpt>
      <trkpt lat="42.41187" lon="1.13189">
        <ele>736.4</ele>
        <time>2022-05-22 17:03:20</time>
      </trkpt>
      <trkpt lat="42.41194" lon="1.13192">
        <ele>736.4</ele>
        <time>2022-05-22 17:03:21</time>
      </trkpt>
      <trkpt lat="42.41201" lon="1.13195">
        <ele>736.4</ele>
        <time>2022-05-22 17:03:22</time>
      </trkpt>
      <trkpt lat="42.41208" lon="1.13198">
        <ele>736.4</ele>
        <time>2022-05-22 17:03:23</time>
      </trkpt>
      <trkpt lat="42.41215" lon="1.13201">
        <ele>736.4</ele>
        <time>2022-05-22 17:03:24</time>
      </trkpt>
      <trkpt lat="42.41222" lon="1.13203">
        <ele>736.6</ele>
        <time>2022-05-22 17:03:25</time>
      </trkpt>
      <trkpt lat="42.41228" lon="1.13206">
        <ele>736.6</ele>
        <time>2022-05-22 17:03:26</time>
      </trkpt>
      <trkpt lat="42.41234" lon="1.13209">
        <ele>736.6</ele>
        <time>2022-05-22 17:03:27</time>
      </trkpt>
      <trkpt lat="42.41241" lon="1.13212">
        <ele>736.6</ele>
        <time>2022-05-22 17:03:28</time>
      </trkpt>
      <trkpt lat="42.41247" lon="1.13215">
        <ele>736.6</ele>
        <time>2022-05-22 17:03:29</time>
      </trkpt>
      <trkpt lat="42.41253" lon="1.13217">
        <ele>736.8</ele>
        <time>2022-05-22 17:03:30</time>
      </trkpt>
      <trkpt lat="42.4126" lon="1.13219">
        <ele>736.6</ele>
        <time>2022-05-22 17:03:31</time>
      </trkpt>
      <trkpt lat="42.41266" lon="1.13221">
        <ele>736.6</ele>
        <time>2022-05-22 17:03:32</time>
      </trkpt>
      <trkpt lat="42.41273" lon="1.13224">
        <ele>736.6</ele>
        <time>2022-05-22 17:03:33</time>
      </trkpt>
      <trkpt lat="42.41279" lon="1.13226">
        <ele>736.6</ele>
        <time>2022-05-22 17:03:34</time>
      </trkpt>
      <trkpt lat="42.41286" lon="1.13228">
        <ele>736.6</ele>
        <time>2022-05-22 17:03:35</time>
      </trkpt>
      <trkpt lat="42.41292" lon="1.13231">
        <ele>736.6</ele>
        <time>2022-05-22 17:03:36</time>
      </trkpt>
      <trkpt lat="42.41299" lon="1.13234">
        <ele>736.6</ele>
        <time>2022-05-22 17:03:37</time>
      </trkpt>
      <trkpt lat="42.41305" lon="1.13236">
        <ele>736.8</ele>
        <time>2022-05-22 17:03:38</time>
      </trkpt>
      <trkpt lat="42.41312" lon="1.13238">
        <ele>736.8</ele>
        <time>2022-05-22 17:03:39</time>
      </trkpt>
      <trkpt lat="42.41318" lon="1.1324">
        <ele>737</ele>
        <time>2022-05-22 17:03:40</time>
      </trkpt>
      <trkpt lat="42.41324" lon="1.13242">
        <ele>737.2</ele>
        <time>2022-05-22 17:03:41</time>
      </trkpt>
      <trkpt lat="42.41331" lon="1.13244">
        <ele>737.2</ele>
        <time>2022-05-22 17:03:42</time>
      </trkpt>
      <trkpt lat="42.41337" lon="1.13246">
        <ele>737.4</ele>
        <time>2022-05-22 17:03:43</time>
      </trkpt>
      <trkpt lat="42.41343" lon="1.13249">
        <ele>737.4</ele>
        <time>2022-05-22 17:03:44</time>
      </trkpt>
      <trkpt lat="42.41349" lon="1.1325">
        <ele>737.4</ele>
        <time>2022-05-22 17:03:45</time>
      </trkpt>
      <trkpt lat="42.41356" lon="1.13253">
        <ele>737.6</ele>
        <time>2022-05-22 17:03:46</time>
      </trkpt>
      <trkpt lat="42.41363" lon="1.13255">
        <ele>737.6</ele>
        <time>2022-05-22 17:03:47</time>
      </trkpt>
      <trkpt lat="42.41369" lon="1.13257">
        <ele>737.6</ele>
        <time>2022-05-22 17:03:48</time>
      </trkpt>
      <trkpt lat="42.41375" lon="1.13259">
        <ele>737.8</ele>
        <time>2022-05-22 17:03:49</time>
      </trkpt>
      <trkpt lat="42.41381" lon="1.13261">
        <ele>737.8</ele>
        <time>2022-05-22 17:03:50</time>
      </trkpt>
      <trkpt lat="42.41387" lon="1.13262">
        <ele>737.8</ele>
        <time>2022-05-22 17:03:51</time>
      </trkpt>
      <trkpt lat="42.41393" lon="1.13263">
        <ele>737.8</ele>
        <time>2022-05-22 17:03:52</time>
      </trkpt>
      <trkpt lat="42.41399" lon="1.13264">
        <ele>737.8</ele>
        <time>2022-05-22 17:03:53</time>
      </trkpt>
      <trkpt lat="42.41405" lon="1.13265">
        <ele>738</ele>
        <time>2022-05-22 17:03:54</time>
      </trkpt>
      <trkpt lat="42.4141" lon="1.13265">
        <ele>738.2</ele>
        <time>2022-05-22 17:03:55</time>
      </trkpt>
      <trkpt lat="42.41416" lon="1.13266">
        <ele>738.2</ele>
        <time>2022-05-22 17:03:56</time>
      </trkpt>
      <trkpt lat="42.41422" lon="1.13266">
        <ele>738.4</ele>
        <time>2022-05-22 17:03:57</time>
      </trkpt>
      <trkpt lat="42.41427" lon="1.13266">
        <ele>738.6</ele>
        <time>2022-05-22 17:03:58</time>
      </trkpt>
      <trkpt lat="42.41432" lon="1.13265">
        <ele>738.6</ele>
        <time>2022-05-22 17:03:59</time>
      </trkpt>
      <trkpt lat="42.41437" lon="1.13264">
        <ele>738.6</ele>
        <time>2022-05-22 17:04:00</time>
      </trkpt>
      <trkpt lat="42.41442" lon="1.13263">
        <ele>738.6</ele>
        <time>2022-05-22 17:04:01</time>
      </trkpt>
      <trkpt lat="42.41446" lon="1.13261">
        <ele>738.8</ele>
        <time>2022-05-22 17:04:02</time>
      </trkpt>
      <trkpt lat="42.41452" lon="1.13259">
        <ele>738.8</ele>
        <time>2022-05-22 17:04:03</time>
      </trkpt>
      <trkpt lat="42.41457" lon="1.13258">
        <ele>739</ele>
        <time>2022-05-22 17:04:04</time>
      </trkpt>
      <trkpt lat="42.41462" lon="1.13256">
        <ele>739</ele>
        <time>2022-05-22 17:04:05</time>
      </trkpt>
      <trkpt lat="42.41467" lon="1.13254">
        <ele>739.2</ele>
        <time>2022-05-22 17:04:06</time>
      </trkpt>
      <trkpt lat="42.41471" lon="1.13251">
        <ele>739.4</ele>
        <time>2022-05-22 17:04:07</time>
      </trkpt>
      <trkpt lat="42.41476" lon="1.13249">
        <ele>739.6</ele>
        <time>2022-05-22 17:04:08</time>
      </trkpt>
      <trkpt lat="42.41481" lon="1.13247">
        <ele>739.8</ele>
        <time>2022-05-22 17:04:09</time>
      </trkpt>
      <trkpt lat="42.41485" lon="1.13245">
        <ele>740</ele>
        <time>2022-05-22 17:04:10</time>
      </trkpt>
      <trkpt lat="42.41489" lon="1.13243">
        <ele>740</ele>
        <time>2022-05-22 17:04:11</time>
      </trkpt>
      <trkpt lat="42.41494" lon="1.1324">
        <ele>740.2</ele>
        <time>2022-05-22 17:04:12</time>
      </trkpt>
      <trkpt lat="42.41499" lon="1.13238">
        <ele>740.4</ele>
        <time>2022-05-22 17:04:13</time>
      </trkpt>
      <trkpt lat="42.41503" lon="1.13237">
        <ele>740.6</ele>
        <time>2022-05-22 17:04:14</time>
      </trkpt>
      <trkpt lat="42.41507" lon="1.13235">
        <ele>740.8</ele>
        <time>2022-05-22 17:04:15</time>
      </trkpt>
      <trkpt lat="42.41512" lon="1.13234">
        <ele>741</ele>
        <time>2022-05-22 17:04:16</time>
      </trkpt>
      <trkpt lat="42.41516" lon="1.13232">
        <ele>741.2</ele>
        <time>2022-05-22 17:04:17</time>
      </trkpt>
      <trkpt lat="42.4152" lon="1.13231">
        <ele>741.6</ele>
        <time>2022-05-22 17:04:18</time>
      </trkpt>
      <trkpt lat="42.41524" lon="1.1323">
        <ele>741.8</ele>
        <time>2022-05-22 17:04:19</time>
      </trkpt>
      <trkpt lat="42.41528" lon="1.13228">
        <ele>742</ele>
        <time>2022-05-22 17:04:20</time>
      </trkpt>
      <trkpt lat="42.41532" lon="1.13227">
        <ele>742.2</ele>
        <time>2022-05-22 17:04:21</time>
      </trkpt>
      <trkpt lat="42.41535" lon="1.13227">
        <ele>742.2</ele>
        <time>2022-05-22 17:04:22</time>
      </trkpt>
      <trkpt lat="42.41539" lon="1.13226">
        <ele>742.4</ele>
        <time>2022-05-22 17:04:23</time>
      </trkpt>
      <trkpt lat="42.41543" lon="1.13225">
        <ele>742.6</ele>
        <time>2022-05-22 17:04:24</time>
      </trkpt>
      <trkpt lat="42.41547" lon="1.13224">
        <ele>742.8</ele>
        <time>2022-05-22 17:04:25</time>
      </trkpt>
      <trkpt lat="42.41551" lon="1.13224">
        <ele>743</ele>
        <time>2022-05-22 17:04:26</time>
      </trkpt>
      <trkpt lat="42.41554" lon="1.13223">
        <ele>743.2</ele>
        <time>2022-05-22 17:04:27</time>
      </trkpt>
      <trkpt lat="42.41558" lon="1.13222">
        <ele>743.4</ele>
        <time>2022-05-22 17:04:28</time>
      </trkpt>
      <trkpt lat="42.41562" lon="1.13221">
        <ele>743.6</ele>
        <time>2022-05-22 17:04:29</time>
      </trkpt>
      <trkpt lat="42.41565" lon="1.13221">
        <ele>743.8</ele>
        <time>2022-05-22 17:04:30</time>
      </trkpt>
      <trkpt lat="42.41569" lon="1.1322">
        <ele>744</ele>
        <time>2022-05-22 17:04:31</time>
      </trkpt>
      <trkpt lat="42.41573" lon="1.13219">
        <ele>744.2</ele>
        <time>2022-05-22 17:04:32</time>
      </trkpt>
      <trkpt lat="42.41576" lon="1.13219">
        <ele>744.2</ele>
        <time>2022-05-22 17:04:33</time>
      </trkpt>
      <trkpt lat="42.4158" lon="1.13219">
        <ele>744.4</ele>
        <time>2022-05-22 17:04:34</time>
      </trkpt>
      <trkpt lat="42.41584" lon="1.13218">
        <ele>744.6</ele>
        <time>2022-05-22 17:04:35</time>
      </trkpt>
      <trkpt lat="42.41588" lon="1.13218">
        <ele>744.6</ele>
        <time>2022-05-22 17:04:36</time>
      </trkpt>
      <trkpt lat="42.41592" lon="1.13218">
        <ele>744.8</ele>
        <time>2022-05-22 17:04:37</time>
      </trkpt>
      <trkpt lat="42.41595" lon="1.13218">
        <ele>745</ele>
        <time>2022-05-22 17:04:38</time>
      </trkpt>
      <trkpt lat="42.41599" lon="1.13218">
        <ele>745.2</ele>
        <time>2022-05-22 17:04:39</time>
      </trkpt>
      <trkpt lat="42.41603" lon="1.13218">
        <ele>745.4</ele>
        <time>2022-05-22 17:04:40</time>
      </trkpt>
      <trkpt lat="42.41607" lon="1.13218">
        <ele>745.6</ele>
        <time>2022-05-22 17:04:41</time>
      </trkpt>
      <trkpt lat="42.4161" lon="1.13217">
        <ele>745.8</ele>
        <time>2022-05-22 17:04:42</time>
      </trkpt>
      <trkpt lat="42.41614" lon="1.13217">
        <ele>745.8</ele>
        <time>2022-05-22 17:04:43</time>
      </trkpt>
      <trkpt lat="42.41618" lon="1.13217">
        <ele>746</ele>
        <time>2022-05-22 17:04:44</time>
      </trkpt>
      <trkpt lat="42.41621" lon="1.13217">
        <ele>746</ele>
        <time>2022-05-22 17:04:45</time>
      </trkpt>
      <trkpt lat="42.41625" lon="1.13217">
        <ele>746.2</ele>
        <time>2022-05-22 17:04:46</time>
      </trkpt>
      <trkpt lat="42.41629" lon="1.13218">
        <ele>746.2</ele>
        <time>2022-05-22 17:04:47</time>
      </trkpt>
      <trkpt lat="42.41633" lon="1.13219">
        <ele>746.4</ele>
        <time>2022-05-22 17:04:48</time>
      </trkpt>
      <trkpt lat="42.41637" lon="1.13219">
        <ele>746.4</ele>
        <time>2022-05-22 17:04:49</time>
      </trkpt>
      <trkpt lat="42.41641" lon="1.1322">
        <ele>746.6</ele>
        <time>2022-05-22 17:04:50</time>
      </trkpt>
      <trkpt lat="42.41644" lon="1.13221">
        <ele>746.6</ele>
        <time>2022-05-22 17:04:51</time>
      </trkpt>
      <trkpt lat="42.41648" lon="1.13222">
        <ele>746.8</ele>
        <time>2022-05-22 17:04:52</time>
      </trkpt>
      <trkpt lat="42.41652" lon="1.13223">
        <ele>747</ele>
        <time>2022-05-22 17:04:53</time>
      </trkpt>
      <trkpt lat="42.41656" lon="1.13224">
        <ele>747</ele>
        <time>2022-05-22 17:04:54</time>
      </trkpt>
      <trkpt lat="42.41659" lon="1.13225">
        <ele>747</ele>
        <time>2022-05-22 17:04:55</time>
      </trkpt>
      <trkpt lat="42.41663" lon="1.13226">
        <ele>747.2</ele>
        <time>2022-05-22 17:04:56</time>
      </trkpt>
      <trkpt lat="42.41666" lon="1.13226">
        <ele>747.2</ele>
        <time>2022-05-22 17:04:57</time>
      </trkpt>
      <trkpt lat="42.4167" lon="1.13227">
        <ele>747.2</ele>
        <time>2022-05-22 17:04:58</time>
      </trkpt>
      <trkpt lat="42.41674" lon="1.13227">
        <ele>747.4</ele>
        <time>2022-05-22 17:04:59</time>
      </trkpt>
      <trkpt lat="42.41677" lon="1.13228">
        <ele>747.6</ele>
        <time>2022-05-22 17:05:00</time>
      </trkpt>
      <trkpt lat="42.4168" lon="1.13228">
        <ele>747.6</ele>
        <time>2022-05-22 17:05:01</time>
      </trkpt>
      <trkpt lat="42.41685" lon="1.13229">
        <ele>747.8</ele>
        <time>2022-05-22 17:05:02</time>
      </trkpt>
      <trkpt lat="42.41688" lon="1.1323">
        <ele>748</ele>
        <time>2022-05-22 17:05:03</time>
      </trkpt>
      <trkpt lat="42.41692" lon="1.1323">
        <ele>748</ele>
        <time>2022-05-22 17:05:04</time>
      </trkpt>
      <trkpt lat="42.41696" lon="1.13231">
        <ele>748</ele>
        <time>2022-05-22 17:05:05</time>
      </trkpt>
      <trkpt lat="42.41699" lon="1.13232">
        <ele>748.2</ele>
        <time>2022-05-22 17:05:06</time>
      </trkpt>
      <trkpt lat="42.41703" lon="1.13232">
        <ele>748.2</ele>
        <time>2022-05-22 17:05:07</time>
      </trkpt>
      <trkpt lat="42.41707" lon="1.13232">
        <ele>748.2</ele>
        <time>2022-05-22 17:05:08</time>
      </trkpt>
      <trkpt lat="42.41711" lon="1.13233">
        <ele>748.2</ele>
        <time>2022-05-22 17:05:09</time>
      </trkpt>
      <trkpt lat="42.41716" lon="1.13233">
        <ele>748.2</ele>
        <time>2022-05-22 17:05:10</time>
      </trkpt>
      <trkpt lat="42.4172" lon="1.13235">
        <ele>748.4</ele>
        <time>2022-05-22 17:05:11</time>
      </trkpt>
      <trkpt lat="42.41723" lon="1.13237">
        <ele>748.4</ele>
        <time>2022-05-22 17:05:12</time>
      </trkpt>
      <trkpt lat="42.41727" lon="1.1324">
        <ele>748.4</ele>
        <time>2022-05-22 17:05:13</time>
      </trkpt>
      <trkpt lat="42.41731" lon="1.13243">
        <ele>748.4</ele>
        <time>2022-05-22 17:05:14</time>
      </trkpt>
      <trkpt lat="42.41735" lon="1.13245">
        <ele>748.4</ele>
        <time>2022-05-22 17:05:15</time>
      </trkpt>
      <trkpt lat="42.41739" lon="1.13247">
        <ele>748.4</ele>
        <time>2022-05-22 17:05:16</time>
      </trkpt>
      <trkpt lat="42.41744" lon="1.13249">
        <ele>748.4</ele>
        <time>2022-05-22 17:05:17</time>
      </trkpt>
      <trkpt lat="42.41749" lon="1.13249">
        <ele>748.4</ele>
        <time>2022-05-22 17:05:18</time>
      </trkpt>
      <trkpt lat="42.41754" lon="1.1325">
        <ele>748.4</ele>
        <time>2022-05-22 17:05:19</time>
      </trkpt>
      <trkpt lat="42.41759" lon="1.1325">
        <ele>748.4</ele>
        <time>2022-05-22 17:05:20</time>
      </trkpt>
      <trkpt lat="42.41763" lon="1.1325">
        <ele>748.4</ele>
        <time>2022-05-22 17:05:21</time>
      </trkpt>
      <trkpt lat="42.41768" lon="1.13251">
        <ele>748.4</ele>
        <time>2022-05-22 17:05:22</time>
      </trkpt>
      <trkpt lat="42.41774" lon="1.13252">
        <ele>748.2</ele>
        <time>2022-05-22 17:05:23</time>
      </trkpt>
      <trkpt lat="42.41779" lon="1.13254">
        <ele>748.2</ele>
        <time>2022-05-22 17:05:24</time>
      </trkpt>
      <trkpt lat="42.41784" lon="1.13255">
        <ele>748.2</ele>
        <time>2022-05-22 17:05:25</time>
      </trkpt>
      <trkpt lat="42.4179" lon="1.13255">
        <ele>748</ele>
        <time>2022-05-22 17:05:26</time>
      </trkpt>
      <trkpt lat="42.41795" lon="1.13256">
        <ele>747.8</ele>
        <time>2022-05-22 17:05:27</time>
      </trkpt>
      <trkpt lat="42.41801" lon="1.13256">
        <ele>747.8</ele>
        <time>2022-05-22 17:05:28</time>
      </trkpt>
      <trkpt lat="42.41806" lon="1.13256">
        <ele>747.6</ele>
        <time>2022-05-22 17:05:29</time>
      </trkpt>
      <trkpt lat="42.41812" lon="1.13257">
        <ele>747.6</ele>
        <time>2022-05-22 17:05:30</time>
      </trkpt>
      <trkpt lat="42.41818" lon="1.13257">
        <ele>747.4</ele>
        <time>2022-05-22 17:05:31</time>
      </trkpt>
      <trkpt lat="42.41823" lon="1.13257">
        <ele>747.4</ele>
        <time>2022-05-22 17:05:32</time>
      </trkpt>
      <trkpt lat="42.41828" lon="1.13257">
        <ele>747.2</ele>
        <time>2022-05-22 17:05:33</time>
      </trkpt>
      <trkpt lat="42.41834" lon="1.13258">
        <ele>747.2</ele>
        <time>2022-05-22 17:05:34</time>
      </trkpt>
      <trkpt lat="42.41839" lon="1.13258">
        <ele>747.2</ele>
        <time>2022-05-22 17:05:35</time>
      </trkpt>
      <trkpt lat="42.41845" lon="1.13259">
        <ele>747</ele>
        <time>2022-05-22 17:05:36</time>
      </trkpt>
      <trkpt lat="42.41851" lon="1.13261">
        <ele>747</ele>
        <time>2022-05-22 17:05:37</time>
      </trkpt>
      <trkpt lat="42.41857" lon="1.13263">
        <ele>746.8</ele>
        <time>2022-05-22 17:05:38</time>
      </trkpt>
      <trkpt lat="42.41862" lon="1.13265">
        <ele>746.8</ele>
        <time>2022-05-22 17:05:39</time>
      </trkpt>
      <trkpt lat="42.41868" lon="1.13268">
        <ele>746.6</ele>
        <time>2022-05-22 17:05:40</time>
      </trkpt>
      <trkpt lat="42.41874" lon="1.1327">
        <ele>746.6</ele>
        <time>2022-05-22 17:05:41</time>
      </trkpt>
      <trkpt lat="42.4188" lon="1.13273">
        <ele>746.6</ele>
        <time>2022-05-22 17:05:42</time>
      </trkpt>
      <trkpt lat="42.41885" lon="1.13276">
        <ele>746.4</ele>
        <time>2022-05-22 17:05:43</time>
      </trkpt>
      <trkpt lat="42.41891" lon="1.13279">
        <ele>746.4</ele>
        <time>2022-05-22 17:05:44</time>
      </trkpt>
      <trkpt lat="42.41896" lon="1.13282">
        <ele>746.4</ele>
        <time>2022-05-22 17:05:45</time>
      </trkpt>
      <trkpt lat="42.41902" lon="1.13285">
        <ele>746.4</ele>
        <time>2022-05-22 17:05:46</time>
      </trkpt>
      <trkpt lat="42.41907" lon="1.13288">
        <ele>746.4</ele>
        <time>2022-05-22 17:05:47</time>
      </trkpt>
      <trkpt lat="42.41912" lon="1.13292">
        <ele>746.2</ele>
        <time>2022-05-22 17:05:48</time>
      </trkpt>
      <trkpt lat="42.41918" lon="1.13295">
        <ele>746.2</ele>
        <time>2022-05-22 17:05:49</time>
      </trkpt>
      <trkpt lat="42.41923" lon="1.13298">
        <ele>746.2</ele>
        <time>2022-05-22 17:05:50</time>
      </trkpt>
      <trkpt lat="42.41928" lon="1.13301">
        <ele>746.4</ele>
        <time>2022-05-22 17:05:51</time>
      </trkpt>
      <trkpt lat="42.41933" lon="1.13304">
        <ele>746.4</ele>
        <time>2022-05-22 17:05:52</time>
      </trkpt>
      <trkpt lat="42.41938" lon="1.13307">
        <ele>746.4</ele>
        <time>2022-05-22 17:05:53</time>
      </trkpt>
      <trkpt lat="42.41944" lon="1.13311">
        <ele>746.4</ele>
        <time>2022-05-22 17:05:54</time>
      </trkpt>
      <trkpt lat="42.41949" lon="1.13314">
        <ele>746.6</ele>
        <time>2022-05-22 17:05:55</time>
      </trkpt>
      <trkpt lat="42.41953" lon="1.13318">
        <ele>746.8</ele>
        <time>2022-05-22 17:05:56</time>
      </trkpt>
      <trkpt lat="42.41959" lon="1.13321">
        <ele>747</ele>
        <time>2022-05-22 17:05:57</time>
      </trkpt>
      <trkpt lat="42.41964" lon="1.13324">
        <ele>747</ele>
        <time>2022-05-22 17:05:58</time>
      </trkpt>
      <trkpt lat="42.41969" lon="1.13327">
        <ele>747</ele>
        <time>2022-05-22 17:05:59</time>
      </trkpt>
      <trkpt lat="42.41974" lon="1.13331">
        <ele>747.2</ele>
        <time>2022-05-22 17:06:00</time>
      </trkpt>
      <trkpt lat="42.41978" lon="1.13333">
        <ele>747.2</ele>
        <time>2022-05-22 17:06:01</time>
      </trkpt>
      <trkpt lat="42.41983" lon="1.13336">
        <ele>747.2</ele>
        <time>2022-05-22 17:06:02</time>
      </trkpt>
      <trkpt lat="42.41988" lon="1.13339">
        <ele>747.4</ele>
        <time>2022-05-22 17:06:03</time>
      </trkpt>
      <trkpt lat="42.41993" lon="1.13341">
        <ele>747.4</ele>
        <time>2022-05-22 17:06:04</time>
      </trkpt>
      <trkpt lat="42.41998" lon="1.13344">
        <ele>747.6</ele>
        <time>2022-05-22 17:06:05</time>
      </trkpt>
      <trkpt lat="42.42003" lon="1.13346">
        <ele>747.6</ele>
        <time>2022-05-22 17:06:06</time>
      </trkpt>
      <trkpt lat="42.42009" lon="1.13348">
        <ele>747.6</ele>
        <time>2022-05-22 17:06:07</time>
      </trkpt>
      <trkpt lat="42.42014" lon="1.13351">
        <ele>747.6</ele>
        <time>2022-05-22 17:06:08</time>
      </trkpt>
      <trkpt lat="42.42019" lon="1.13353">
        <ele>747.6</ele>
        <time>2022-05-22 17:06:09</time>
      </trkpt>
      <trkpt lat="42.42025" lon="1.13354">
        <ele>747.8</ele>
        <time>2022-05-22 17:06:10</time>
      </trkpt>
      <trkpt lat="42.4203" lon="1.13356">
        <ele>747.8</ele>
        <time>2022-05-22 17:06:11</time>
      </trkpt>
      <trkpt lat="42.42035" lon="1.13357">
        <ele>747.8</ele>
        <time>2022-05-22 17:06:12</time>
      </trkpt>
      <trkpt lat="42.42041" lon="1.13358">
        <ele>747.8</ele>
        <time>2022-05-22 17:06:13</time>
      </trkpt>
      <trkpt lat="42.42047" lon="1.13359">
        <ele>747.8</ele>
        <time>2022-05-22 17:06:14</time>
      </trkpt>
      <trkpt lat="42.42052" lon="1.1336">
        <ele>747.6</ele>
        <time>2022-05-22 17:06:15</time>
      </trkpt>
      <trkpt lat="42.42057" lon="1.13361">
        <ele>747.6</ele>
        <time>2022-05-22 17:06:16</time>
      </trkpt>
      <trkpt lat="42.42064" lon="1.13361">
        <ele>747.4</ele>
        <time>2022-05-22 17:06:17</time>
      </trkpt>
      <trkpt lat="42.4207" lon="1.13362">
        <ele>747.4</ele>
        <time>2022-05-22 17:06:18</time>
      </trkpt>
      <trkpt lat="42.42076" lon="1.13362">
        <ele>747.4</ele>
        <time>2022-05-22 17:06:19</time>
      </trkpt>
      <trkpt lat="42.42082" lon="1.13363">
        <ele>747.4</ele>
        <time>2022-05-22 17:06:20</time>
      </trkpt>
      <trkpt lat="42.42088" lon="1.13363">
        <ele>747.4</ele>
        <time>2022-05-22 17:06:21</time>
      </trkpt>
      <trkpt lat="42.42093" lon="1.13363">
        <ele>747.4</ele>
        <time>2022-05-22 17:06:22</time>
      </trkpt>
      <trkpt lat="42.42099" lon="1.13363">
        <ele>747.2</ele>
        <time>2022-05-22 17:06:23</time>
      </trkpt>
      <trkpt lat="42.42105" lon="1.13362">
        <ele>747.2</ele>
        <time>2022-05-22 17:06:24</time>
      </trkpt>
      <trkpt lat="42.42111" lon="1.13362">
        <ele>747.2</ele>
        <time>2022-05-22 17:06:25</time>
      </trkpt>
      <trkpt lat="42.42117" lon="1.13361">
        <ele>747.2</ele>
        <time>2022-05-22 17:06:26</time>
      </trkpt>
      <trkpt lat="42.42122" lon="1.1336">
        <ele>747.2</ele>
        <time>2022-05-22 17:06:27</time>
      </trkpt>
      <trkpt lat="42.42128" lon="1.13359">
        <ele>747.2</ele>
        <time>2022-05-22 17:06:28</time>
      </trkpt>
      <trkpt lat="42.42134" lon="1.13359">
        <ele>747.2</ele>
        <time>2022-05-22 17:06:29</time>
      </trkpt>
      <trkpt lat="42.42139" lon="1.13358">
        <ele>747.2</ele>
        <time>2022-05-22 17:06:30</time>
      </trkpt>
      <trkpt lat="42.42145" lon="1.13357">
        <ele>747.2</ele>
        <time>2022-05-22 17:06:31</time>
      </trkpt>
      <trkpt lat="42.4215" lon="1.13356">
        <ele>747.4</ele>
        <time>2022-05-22 17:06:32</time>
      </trkpt>
      <trkpt lat="42.42155" lon="1.13354">
        <ele>747.4</ele>
        <time>2022-05-22 17:06:33</time>
      </trkpt>
      <trkpt lat="42.4216" lon="1.13353">
        <ele>747.4</ele>
        <time>2022-05-22 17:06:34</time>
      </trkpt>
      <trkpt lat="42.42166" lon="1.13351">
        <ele>747.4</ele>
        <time>2022-05-22 17:06:35</time>
      </trkpt>
      <trkpt lat="42.42171" lon="1.1335">
        <ele>747.4</ele>
        <time>2022-05-22 17:06:36</time>
      </trkpt>
      <trkpt lat="42.42176" lon="1.13348">
        <ele>747.4</ele>
        <time>2022-05-22 17:06:37</time>
      </trkpt>
      <trkpt lat="42.42182" lon="1.13346">
        <ele>747.4</ele>
        <time>2022-05-22 17:06:38</time>
      </trkpt>
      <trkpt lat="42.42188" lon="1.13345">
        <ele>747.4</ele>
        <time>2022-05-22 17:06:39</time>
      </trkpt>
      <trkpt lat="42.42193" lon="1.13343">
        <ele>747.4</ele>
        <time>2022-05-22 17:06:40</time>
      </trkpt>
      <trkpt lat="42.42198" lon="1.13341">
        <ele>747.4</ele>
        <time>2022-05-22 17:06:41</time>
      </trkpt>
      <trkpt lat="42.42204" lon="1.13339">
        <ele>747.4</ele>
        <time>2022-05-22 17:06:42</time>
      </trkpt>
      <trkpt lat="42.42209" lon="1.13337">
        <ele>747.6</ele>
        <time>2022-05-22 17:06:43</time>
      </trkpt>
      <trkpt lat="42.42214" lon="1.13334">
        <ele>747.6</ele>
        <time>2022-05-22 17:06:44</time>
      </trkpt>
      <trkpt lat="42.4222" lon="1.13331">
        <ele>747.6</ele>
        <time>2022-05-22 17:06:45</time>
      </trkpt>
      <trkpt lat="42.42225" lon="1.13329">
        <ele>747.6</ele>
        <time>2022-05-22 17:06:46</time>
      </trkpt>
      <trkpt lat="42.4223" lon="1.13326">
        <ele>747.4</ele>
        <time>2022-05-22 17:06:47</time>
      </trkpt>
      <trkpt lat="42.42236" lon="1.13324">
        <ele>747.4</ele>
        <time>2022-05-22 17:06:48</time>
      </trkpt>
      <trkpt lat="42.42242" lon="1.13321">
        <ele>747.4</ele>
        <time>2022-05-22 17:06:49</time>
      </trkpt>
      <trkpt lat="42.42248" lon="1.13319">
        <ele>747.6</ele>
        <time>2022-05-22 17:06:50</time>
      </trkpt>
      <trkpt lat="42.42254" lon="1.13316">
        <ele>747.6</ele>
        <time>2022-05-22 17:06:51</time>
      </trkpt>
      <trkpt lat="42.4226" lon="1.13314">
        <ele>747.4</ele>
        <time>2022-05-22 17:06:52</time>
      </trkpt>
      <trkpt lat="42.42267" lon="1.13311">
        <ele>747.4</ele>
        <time>2022-05-22 17:06:53</time>
      </trkpt>
      <trkpt lat="42.42273" lon="1.13309">
        <ele>747.4</ele>
        <time>2022-05-22 17:06:54</time>
      </trkpt>
      <trkpt lat="42.42279" lon="1.13306">
        <ele>747.4</ele>
        <time>2022-05-22 17:06:55</time>
      </trkpt>
      <trkpt lat="42.42285" lon="1.13303">
        <ele>747.2</ele>
        <time>2022-05-22 17:06:56</time>
      </trkpt>
      <trkpt lat="42.42292" lon="1.13299">
        <ele>747.2</ele>
        <time>2022-05-22 17:06:57</time>
      </trkpt>
      <trkpt lat="42.42298" lon="1.13296">
        <ele>747</ele>
        <time>2022-05-22 17:06:58</time>
      </trkpt>
      <trkpt lat="42.42306" lon="1.13292">
        <ele>746.8</ele>
        <time>2022-05-22 17:06:59</time>
      </trkpt>
      <trkpt lat="42.42312" lon="1.13289">
        <ele>746.8</ele>
        <time>2022-05-22 17:07:00</time>
      </trkpt>
      <trkpt lat="42.42319" lon="1.13286">
        <ele>746.6</ele>
        <time>2022-05-22 17:07:01</time>
      </trkpt>
      <trkpt lat="42.42325" lon="1.13282">
        <ele>746.6</ele>
        <time>2022-05-22 17:07:02</time>
      </trkpt>
      <trkpt lat="42.42332" lon="1.13278">
        <ele>746.4</ele>
        <time>2022-05-22 17:07:03</time>
      </trkpt>
      <trkpt lat="42.42337" lon="1.13275">
        <ele>746.4</ele>
        <time>2022-05-22 17:07:04</time>
      </trkpt>
      <trkpt lat="42.42344" lon="1.1327">
        <ele>746.4</ele>
        <time>2022-05-22 17:07:05</time>
      </trkpt>
      <trkpt lat="42.42349" lon="1.13267">
        <ele>746.4</ele>
        <time>2022-05-22 17:07:06</time>
      </trkpt>
      <trkpt lat="42.42356" lon="1.13263">
        <ele>746.4</ele>
        <time>2022-05-22 17:07:07</time>
      </trkpt>
      <trkpt lat="42.42362" lon="1.13259">
        <ele>746.2</ele>
        <time>2022-05-22 17:07:08</time>
      </trkpt>
      <trkpt lat="42.42368" lon="1.13255">
        <ele>746.2</ele>
        <time>2022-05-22 17:07:09</time>
      </trkpt>
      <trkpt lat="42.42374" lon="1.1325">
        <ele>746.2</ele>
        <time>2022-05-22 17:07:10</time>
      </trkpt>
      <trkpt lat="42.4238" lon="1.13246">
        <ele>746.2</ele>
        <time>2022-05-22 17:07:11</time>
      </trkpt>
      <trkpt lat="42.42386" lon="1.13241">
        <ele>746.2</ele>
        <time>2022-05-22 17:07:12</time>
      </trkpt>
      <trkpt lat="42.42392" lon="1.13238">
        <ele>746.4</ele>
        <time>2022-05-22 17:07:13</time>
      </trkpt>
      <trkpt lat="42.42398" lon="1.13235">
        <ele>746.4</ele>
        <time>2022-05-22 17:07:14</time>
      </trkpt>
      <trkpt lat="42.42405" lon="1.13231">
        <ele>746.4</ele>
        <time>2022-05-22 17:07:15</time>
      </trkpt>
      <trkpt lat="42.42411" lon="1.13228">
        <ele>746.4</ele>
        <time>2022-05-22 17:07:16</time>
      </trkpt>
      <trkpt lat="42.42417" lon="1.13225">
        <ele>746.4</ele>
        <time>2022-05-22 17:07:17</time>
      </trkpt>
      <trkpt lat="42.42423" lon="1.13222">
        <ele>746.4</ele>
        <time>2022-05-22 17:07:18</time>
      </trkpt>
      <trkpt lat="42.4243" lon="1.13219">
        <ele>746.6</ele>
        <time>2022-05-22 17:07:19</time>
      </trkpt>
      <trkpt lat="42.42436" lon="1.13217">
        <ele>746.6</ele>
        <time>2022-05-22 17:07:20</time>
      </trkpt>
      <trkpt lat="42.42443" lon="1.13215">
        <ele>746.6</ele>
        <time>2022-05-22 17:07:21</time>
      </trkpt>
      <trkpt lat="42.42449" lon="1.13214">
        <ele>746.6</ele>
        <time>2022-05-22 17:07:22</time>
      </trkpt>
      <trkpt lat="42.42455" lon="1.13213">
        <ele>746.6</ele>
        <time>2022-05-22 17:07:23</time>
      </trkpt>
      <trkpt lat="42.42462" lon="1.13213">
        <ele>746.6</ele>
        <time>2022-05-22 17:07:24</time>
      </trkpt>
      <trkpt lat="42.42468" lon="1.13213">
        <ele>746.6</ele>
        <time>2022-05-22 17:07:25</time>
      </trkpt>
      <trkpt lat="42.42475" lon="1.13214">
        <ele>746.6</ele>
        <time>2022-05-22 17:07:26</time>
      </trkpt>
      <trkpt lat="42.42481" lon="1.13215">
        <ele>746.8</ele>
        <time>2022-05-22 17:07:27</time>
      </trkpt>
      <trkpt lat="42.42487" lon="1.13215">
        <ele>747</ele>
        <time>2022-05-22 17:07:28</time>
      </trkpt>
      <trkpt lat="42.42493" lon="1.13216">
        <ele>747.2</ele>
        <time>2022-05-22 17:07:29</time>
      </trkpt>
      <trkpt lat="42.42499" lon="1.13217">
        <ele>747</ele>
        <time>2022-05-22 17:07:30</time>
      </trkpt>
      <trkpt lat="42.42506" lon="1.13219">
        <ele>746.8</ele>
        <time>2022-05-22 17:07:31</time>
      </trkpt>
      <trkpt lat="42.42511" lon="1.1322">
        <ele>746.8</ele>
        <time>2022-05-22 17:07:32</time>
      </trkpt>
      <trkpt lat="42.42517" lon="1.13222">
        <ele>746.8</ele>
        <time>2022-05-22 17:07:33</time>
      </trkpt>
      <trkpt lat="42.42523" lon="1.13223">
        <ele>747</ele>
        <time>2022-05-22 17:07:34</time>
      </trkpt>
      <trkpt lat="42.42529" lon="1.13225">
        <ele>747</ele>
        <time>2022-05-22 17:07:35</time>
      </trkpt>
      <trkpt lat="42.42534" lon="1.13226">
        <ele>747</ele>
        <time>2022-05-22 17:07:36</time>
      </trkpt>
      <trkpt lat="42.42541" lon="1.13227">
        <ele>747</ele>
        <time>2022-05-22 17:07:37</time>
      </trkpt>
      <trkpt lat="42.42546" lon="1.13228">
        <ele>747.2</ele>
        <time>2022-05-22 17:07:38</time>
      </trkpt>
      <trkpt lat="42.42552" lon="1.13228">
        <ele>747.4</ele>
        <time>2022-05-22 17:07:39</time>
      </trkpt>
      <trkpt lat="42.42557" lon="1.13229">
        <ele>747.4</ele>
        <time>2022-05-22 17:07:40</time>
      </trkpt>
      <trkpt lat="42.42564" lon="1.13228">
        <ele>747.6</ele>
        <time>2022-05-22 17:07:41</time>
      </trkpt>
      <trkpt lat="42.4257" lon="1.13228">
        <ele>747.8</ele>
        <time>2022-05-22 17:07:42</time>
      </trkpt>
      <trkpt lat="42.42576" lon="1.13227">
        <ele>747.8</ele>
        <time>2022-05-22 17:07:43</time>
      </trkpt>
      <trkpt lat="42.42581" lon="1.13225">
        <ele>747.8</ele>
        <time>2022-05-22 17:07:44</time>
      </trkpt>
      <trkpt lat="42.42587" lon="1.13223">
        <ele>748</ele>
        <time>2022-05-22 17:07:45</time>
      </trkpt>
      <trkpt lat="42.42591" lon="1.13222">
        <ele>748</ele>
        <time>2022-05-22 17:07:46</time>
      </trkpt>
      <trkpt lat="42.42598" lon="1.13219">
        <ele>748</ele>
        <time>2022-05-22 17:07:47</time>
      </trkpt>
      <trkpt lat="42.42604" lon="1.13216">
        <ele>748</ele>
        <time>2022-05-22 17:07:48</time>
      </trkpt>
      <trkpt lat="42.42609" lon="1.13214">
        <ele>748.2</ele>
        <time>2022-05-22 17:07:49</time>
      </trkpt>
      <trkpt lat="42.42615" lon="1.13211">
        <ele>748.2</ele>
        <time>2022-05-22 17:07:50</time>
      </trkpt>
      <trkpt lat="42.4262" lon="1.13207">
        <ele>748.2</ele>
        <time>2022-05-22 17:07:51</time>
      </trkpt>
      <trkpt lat="42.42625" lon="1.13204">
        <ele>748.2</ele>
        <time>2022-05-22 17:07:52</time>
      </trkpt>
      <trkpt lat="42.4263" lon="1.13199">
        <ele>748.2</ele>
        <time>2022-05-22 17:07:53</time>
      </trkpt>
      <trkpt lat="42.42635" lon="1.13195">
        <ele>748</ele>
        <time>2022-05-22 17:07:54</time>
      </trkpt>
      <trkpt lat="42.4264" lon="1.1319">
        <ele>748</ele>
        <time>2022-05-22 17:07:55</time>
      </trkpt>
      <trkpt lat="42.42645" lon="1.13184">
        <ele>748</ele>
        <time>2022-05-22 17:07:56</time>
      </trkpt>
      <trkpt lat="42.4265" lon="1.13179">
        <ele>747.8</ele>
        <time>2022-05-22 17:07:57</time>
      </trkpt>
      <trkpt lat="42.42655" lon="1.13173">
        <ele>747.8</ele>
        <time>2022-05-22 17:07:58</time>
      </trkpt>
      <trkpt lat="42.4266" lon="1.13168">
        <ele>747.8</ele>
        <time>2022-05-22 17:07:59</time>
      </trkpt>
      <trkpt lat="42.42665" lon="1.13163">
        <ele>747.8</ele>
        <time>2022-05-22 17:08:00</time>
      </trkpt>
      <trkpt lat="42.42671" lon="1.13157">
        <ele>747.6</ele>
        <time>2022-05-22 17:08:01</time>
      </trkpt>
      <trkpt lat="42.42677" lon="1.13152">
        <ele>747.6</ele>
        <time>2022-05-22 17:08:02</time>
      </trkpt>
      <trkpt lat="42.42682" lon="1.13147">
        <ele>747.6</ele>
        <time>2022-05-22 17:08:03</time>
      </trkpt>
      <trkpt lat="42.42687" lon="1.13143">
        <ele>747.6</ele>
        <time>2022-05-22 17:08:04</time>
      </trkpt>
      <trkpt lat="42.42693" lon="1.13137">
        <ele>747.6</ele>
        <time>2022-05-22 17:08:05</time>
      </trkpt>
      <trkpt lat="42.42698" lon="1.13133">
        <ele>747.6</ele>
        <time>2022-05-22 17:08:06</time>
      </trkpt>
      <trkpt lat="42.42704" lon="1.13129">
        <ele>747.8</ele>
        <time>2022-05-22 17:08:07</time>
      </trkpt>
      <trkpt lat="42.4271" lon="1.13125">
        <ele>747.8</ele>
        <time>2022-05-22 17:08:08</time>
      </trkpt>
      <trkpt lat="42.42716" lon="1.1312">
        <ele>747.8</ele>
        <time>2022-05-22 17:08:09</time>
      </trkpt>
      <trkpt lat="42.42722" lon="1.13116">
        <ele>747.6</ele>
        <time>2022-05-22 17:08:10</time>
      </trkpt>
      <trkpt lat="42.42728" lon="1.13112">
        <ele>747.6</ele>
        <time>2022-05-22 17:08:11</time>
      </trkpt>
      <trkpt lat="42.42734" lon="1.13109">
        <ele>747.6</ele>
        <time>2022-05-22 17:08:12</time>
      </trkpt>
      <trkpt lat="42.42741" lon="1.13105">
        <ele>747.6</ele>
        <time>2022-05-22 17:08:13</time>
      </trkpt>
      <trkpt lat="42.42747" lon="1.13102">
        <ele>747.6</ele>
        <time>2022-05-22 17:08:14</time>
      </trkpt>
      <trkpt lat="42.42754" lon="1.13098">
        <ele>747.6</ele>
        <time>2022-05-22 17:08:15</time>
      </trkpt>
      <trkpt lat="42.4276" lon="1.13095">
        <ele>747.6</ele>
        <time>2022-05-22 17:08:16</time>
      </trkpt>
      <trkpt lat="42.42767" lon="1.13092">
        <ele>747.4</ele>
        <time>2022-05-22 17:08:17</time>
      </trkpt>
      <trkpt lat="42.42773" lon="1.13089">
        <ele>747.4</ele>
        <time>2022-05-22 17:08:18</time>
      </trkpt>
      <trkpt lat="42.4278" lon="1.13087">
        <ele>747.4</ele>
        <time>2022-05-22 17:08:19</time>
      </trkpt>
      <trkpt lat="42.42786" lon="1.13085">
        <ele>747.2</ele>
        <time>2022-05-22 17:08:20</time>
      </trkpt>
      <trkpt lat="42.42795" lon="1.13084">
        <ele>747.2</ele>
        <time>2022-05-22 17:08:21</time>
      </trkpt>
      <trkpt lat="42.42802" lon="1.13083">
        <ele>747.2</ele>
        <time>2022-05-22 17:08:22</time>
      </trkpt>
      <trkpt lat="42.4281" lon="1.13083">
        <ele>747.2</ele>
        <time>2022-05-22 17:08:23</time>
      </trkpt>
      <trkpt lat="42.42816" lon="1.13083">
        <ele>747</ele>
        <time>2022-05-22 17:08:24</time>
      </trkpt>
      <trkpt lat="42.42825" lon="1.13084">
        <ele>747</ele>
        <time>2022-05-22 17:08:25</time>
      </trkpt>
      <trkpt lat="42.42832" lon="1.13084">
        <ele>747</ele>
        <time>2022-05-22 17:08:26</time>
      </trkpt>
      <trkpt lat="42.4284" lon="1.13086">
        <ele>746.8</ele>
        <time>2022-05-22 17:08:27</time>
      </trkpt>
      <trkpt lat="42.42847" lon="1.13088">
        <ele>746.8</ele>
        <time>2022-05-22 17:08:28</time>
      </trkpt>
      <trkpt lat="42.42854" lon="1.13091">
        <ele>746.6</ele>
        <time>2022-05-22 17:08:29</time>
      </trkpt>
      <trkpt lat="42.4286" lon="1.13094">
        <ele>746.6</ele>
        <time>2022-05-22 17:08:30</time>
      </trkpt>
      <trkpt lat="42.42867" lon="1.13098">
        <ele>746.6</ele>
        <time>2022-05-22 17:08:31</time>
      </trkpt>
      <trkpt lat="42.42873" lon="1.13102">
        <ele>746.4</ele>
        <time>2022-05-22 17:08:32</time>
      </trkpt>
      <trkpt lat="42.4288" lon="1.13107">
        <ele>746.4</ele>
        <time>2022-05-22 17:08:33</time>
      </trkpt>
      <trkpt lat="42.42886" lon="1.13111">
        <ele>746.4</ele>
        <time>2022-05-22 17:08:34</time>
      </trkpt>
      <trkpt lat="42.42892" lon="1.13117">
        <ele>746.6</ele>
        <time>2022-05-22 17:08:35</time>
      </trkpt>
      <trkpt lat="42.42898" lon="1.13122">
        <ele>746.6</ele>
        <time>2022-05-22 17:08:36</time>
      </trkpt>
      <trkpt lat="42.42904" lon="1.13128">
        <ele>746.8</ele>
        <time>2022-05-22 17:08:37</time>
      </trkpt>
      <trkpt lat="42.42909" lon="1.13133">
        <ele>746.8</ele>
        <time>2022-05-22 17:08:38</time>
      </trkpt>
      <trkpt lat="42.42914" lon="1.13139">
        <ele>747</ele>
        <time>2022-05-22 17:08:39</time>
      </trkpt>
      <trkpt lat="42.42919" lon="1.13144">
        <ele>747</ele>
        <time>2022-05-22 17:08:40</time>
      </trkpt>
      <trkpt lat="42.42924" lon="1.1315">
        <ele>747.2</ele>
        <time>2022-05-22 17:08:41</time>
      </trkpt>
      <trkpt lat="42.42928" lon="1.13155">
        <ele>747.4</ele>
        <time>2022-05-22 17:08:42</time>
      </trkpt>
      <trkpt lat="42.42933" lon="1.13161">
        <ele>747.4</ele>
        <time>2022-05-22 17:08:43</time>
      </trkpt>
      <trkpt lat="42.42937" lon="1.13166">
        <ele>747.6</ele>
        <time>2022-05-22 17:08:44</time>
      </trkpt>
      <trkpt lat="42.42942" lon="1.13172">
        <ele>747.6</ele>
        <time>2022-05-22 17:08:45</time>
      </trkpt>
      <trkpt lat="42.42946" lon="1.13178">
        <ele>747.6</ele>
        <time>2022-05-22 17:08:46</time>
      </trkpt>
      <trkpt lat="42.4295" lon="1.13183">
        <ele>747.8</ele>
        <time>2022-05-22 17:08:47</time>
      </trkpt>
      <trkpt lat="42.42953" lon="1.13188">
        <ele>748</ele>
        <time>2022-05-22 17:08:48</time>
      </trkpt>
      <trkpt lat="42.42959" lon="1.13195">
        <ele>748.2</ele>
        <time>2022-05-22 17:08:49</time>
      </trkpt>
      <trkpt lat="42.42963" lon="1.132">
        <ele>748.2</ele>
        <time>2022-05-22 17:08:50</time>
      </trkpt>
      <trkpt lat="42.42967" lon="1.13204">
        <ele>748.6</ele>
        <time>2022-05-22 17:08:51</time>
      </trkpt>
      <trkpt lat="42.42972" lon="1.1321">
        <ele>748.8</ele>
        <time>2022-05-22 17:08:52</time>
      </trkpt>
      <trkpt lat="42.42976" lon="1.13215">
        <ele>749</ele>
        <time>2022-05-22 17:08:53</time>
      </trkpt>
      <trkpt lat="42.4298" lon="1.13219">
        <ele>749.2</ele>
        <time>2022-05-22 17:08:54</time>
      </trkpt>
      <trkpt lat="42.42984" lon="1.13224">
        <ele>749.2</ele>
        <time>2022-05-22 17:08:55</time>
      </trkpt>
      <trkpt lat="42.42988" lon="1.13228">
        <ele>749.4</ele>
        <time>2022-05-22 17:08:56</time>
      </trkpt>
      <trkpt lat="42.42993" lon="1.13233">
        <ele>749.4</ele>
        <time>2022-05-22 17:08:57</time>
      </trkpt>
      <trkpt lat="42.42997" lon="1.13237">
        <ele>749.6</ele>
        <time>2022-05-22 17:08:58</time>
      </trkpt>
      <trkpt lat="42.43001" lon="1.13241">
        <ele>749.8</ele>
        <time>2022-05-22 17:08:59</time>
      </trkpt>
      <trkpt lat="42.43005" lon="1.13244">
        <ele>750</ele>
        <time>2022-05-22 17:09:00</time>
      </trkpt>
      <trkpt lat="42.4301" lon="1.13247">
        <ele>750.2</ele>
        <time>2022-05-22 17:09:01</time>
      </trkpt>
      <trkpt lat="42.43013" lon="1.1325">
        <ele>750.2</ele>
        <time>2022-05-22 17:09:02</time>
      </trkpt>
      <trkpt lat="42.43019" lon="1.13254">
        <ele>750.4</ele>
        <time>2022-05-22 17:09:03</time>
      </trkpt>
      <trkpt lat="42.43023" lon="1.13256">
        <ele>750.4</ele>
        <time>2022-05-22 17:09:04</time>
      </trkpt>
      <trkpt lat="42.43028" lon="1.13259">
        <ele>750.6</ele>
        <time>2022-05-22 17:09:05</time>
      </trkpt>
      <trkpt lat="42.43032" lon="1.13261">
        <ele>750.8</ele>
        <time>2022-05-22 17:09:06</time>
      </trkpt>
      <trkpt lat="42.43038" lon="1.13263">
        <ele>750.8</ele>
        <time>2022-05-22 17:09:07</time>
      </trkpt>
      <trkpt lat="42.43042" lon="1.13265">
        <ele>751</ele>
        <time>2022-05-22 17:09:08</time>
      </trkpt>
      <trkpt lat="42.43047" lon="1.13267">
        <ele>751</ele>
        <time>2022-05-22 17:09:09</time>
      </trkpt>
      <trkpt lat="42.43052" lon="1.13268">
        <ele>751</ele>
        <time>2022-05-22 17:09:10</time>
      </trkpt>
      <trkpt lat="42.43057" lon="1.13269">
        <ele>751.2</ele>
        <time>2022-05-22 17:09:11</time>
      </trkpt>
      <trkpt lat="42.43061" lon="1.1327">
        <ele>751.2</ele>
        <time>2022-05-22 17:09:12</time>
      </trkpt>
      <trkpt lat="42.43067" lon="1.13272">
        <ele>751.4</ele>
        <time>2022-05-22 17:09:13</time>
      </trkpt>
      <trkpt lat="42.43071" lon="1.13273">
        <ele>751.4</ele>
        <time>2022-05-22 17:09:14</time>
      </trkpt>
      <trkpt lat="42.43077" lon="1.13274">
        <ele>751.4</ele>
        <time>2022-05-22 17:09:15</time>
      </trkpt>
      <trkpt lat="42.43082" lon="1.13275">
        <ele>751.4</ele>
        <time>2022-05-22 17:09:16</time>
      </trkpt>
      <trkpt lat="42.43087" lon="1.13276">
        <ele>751.6</ele>
        <time>2022-05-22 17:09:17</time>
      </trkpt>
      <trkpt lat="42.43092" lon="1.13277">
        <ele>751.6</ele>
        <time>2022-05-22 17:09:18</time>
      </trkpt>
      <trkpt lat="42.43098" lon="1.13278">
        <ele>751.8</ele>
        <time>2022-05-22 17:09:19</time>
      </trkpt>
      <trkpt lat="42.43102" lon="1.13279">
        <ele>751.8</ele>
        <time>2022-05-22 17:09:20</time>
      </trkpt>
      <trkpt lat="42.43108" lon="1.1328">
        <ele>752</ele>
        <time>2022-05-22 17:09:21</time>
      </trkpt>
      <trkpt lat="42.43113" lon="1.13281">
        <ele>752</ele>
        <time>2022-05-22 17:09:22</time>
      </trkpt>
      <trkpt lat="42.43118" lon="1.13283">
        <ele>752</ele>
        <time>2022-05-22 17:09:23</time>
      </trkpt>
      <trkpt lat="42.43123" lon="1.13284">
        <ele>752.2</ele>
        <time>2022-05-22 17:09:24</time>
      </trkpt>
      <trkpt lat="42.43128" lon="1.13285">
        <ele>752.2</ele>
        <time>2022-05-22 17:09:25</time>
      </trkpt>
      <trkpt lat="42.43133" lon="1.13286">
        <ele>752.4</ele>
        <time>2022-05-22 17:09:26</time>
      </trkpt>
      <trkpt lat="42.43138" lon="1.13287">
        <ele>752.4</ele>
        <time>2022-05-22 17:09:27</time>
      </trkpt>
      <trkpt lat="42.43143" lon="1.13289">
        <ele>752.6</ele>
        <time>2022-05-22 17:09:28</time>
      </trkpt>
      <trkpt lat="42.43148" lon="1.13291">
        <ele>752.6</ele>
        <time>2022-05-22 17:09:29</time>
      </trkpt>
      <trkpt lat="42.43153" lon="1.13292">
        <ele>752.6</ele>
        <time>2022-05-22 17:09:30</time>
      </trkpt>
      <trkpt lat="42.43158" lon="1.13294">
        <ele>752.8</ele>
        <time>2022-05-22 17:09:31</time>
      </trkpt>
      <trkpt lat="42.43162" lon="1.13296">
        <ele>752.8</ele>
        <time>2022-05-22 17:09:32</time>
      </trkpt>
      <trkpt lat="42.43167" lon="1.13298">
        <ele>753</ele>
        <time>2022-05-22 17:09:33</time>
      </trkpt>
      <trkpt lat="42.43171" lon="1.13299">
        <ele>753</ele>
        <time>2022-05-22 17:09:34</time>
      </trkpt>
      <trkpt lat="42.43176" lon="1.13301">
        <ele>753.2</ele>
        <time>2022-05-22 17:09:35</time>
      </trkpt>
      <trkpt lat="42.43181" lon="1.13303">
        <ele>753.4</ele>
        <time>2022-05-22 17:09:36</time>
      </trkpt>
      <trkpt lat="42.43185" lon="1.13305">
        <ele>753.4</ele>
        <time>2022-05-22 17:09:37</time>
      </trkpt>
      <trkpt lat="42.43189" lon="1.13306">
        <ele>753.6</ele>
        <time>2022-05-22 17:09:38</time>
      </trkpt>
      <trkpt lat="42.43195" lon="1.13308">
        <ele>753.8</ele>
        <time>2022-05-22 17:09:39</time>
      </trkpt>
      <trkpt lat="42.43199" lon="1.1331">
        <ele>753.8</ele>
        <time>2022-05-22 17:09:40</time>
      </trkpt>
      <trkpt lat="42.43203" lon="1.13311">
        <ele>753.8</ele>
        <time>2022-05-22 17:09:41</time>
      </trkpt>
      <trkpt lat="42.43207" lon="1.13312">
        <ele>754</ele>
        <time>2022-05-22 17:09:42</time>
      </trkpt>
      <trkpt lat="42.43213" lon="1.13313">
        <ele>754</ele>
        <time>2022-05-22 17:09:43</time>
      </trkpt>
      <trkpt lat="42.43217" lon="1.13314">
        <ele>754</ele>
        <time>2022-05-22 17:09:44</time>
      </trkpt>
      <trkpt lat="42.43222" lon="1.13315">
        <ele>754.2</ele>
        <time>2022-05-22 17:09:45</time>
      </trkpt>
      <trkpt lat="42.43227" lon="1.13316">
        <ele>754.4</ele>
        <time>2022-05-22 17:09:46</time>
      </trkpt>
      <trkpt lat="42.43232" lon="1.13316">
        <ele>754.6</ele>
        <time>2022-05-22 17:09:47</time>
      </trkpt>
      <trkpt lat="42.43236" lon="1.13316">
        <ele>754.6</ele>
        <time>2022-05-22 17:09:48</time>
      </trkpt>
      <trkpt lat="42.43242" lon="1.13316">
        <ele>754.6</ele>
        <time>2022-05-22 17:09:49</time>
      </trkpt>
      <trkpt lat="42.43247" lon="1.13315">
        <ele>754.8</ele>
        <time>2022-05-22 17:09:50</time>
      </trkpt>
      <trkpt lat="42.43252" lon="1.13315">
        <ele>754.8</ele>
        <time>2022-05-22 17:09:51</time>
      </trkpt>
      <trkpt lat="42.43255" lon="1.13314">
        <ele>755</ele>
        <time>2022-05-22 17:09:52</time>
      </trkpt>
      <trkpt lat="42.43263" lon="1.13312">
        <ele>755</ele>
        <time>2022-05-22 17:09:53</time>
      </trkpt>
      <trkpt lat="42.43267" lon="1.13311">
        <ele>755</ele>
        <time>2022-05-22 17:09:54</time>
      </trkpt>
      <trkpt lat="42.43273" lon="1.13309">
        <ele>755</ele>
        <time>2022-05-22 17:09:55</time>
      </trkpt>
      <trkpt lat="42.43278" lon="1.13308">
        <ele>755</ele>
        <time>2022-05-22 17:09:56</time>
      </trkpt>
      <trkpt lat="42.43284" lon="1.13305">
        <ele>755</ele>
        <time>2022-05-22 17:09:57</time>
      </trkpt>
      <trkpt lat="42.43287" lon="1.13303">
        <ele>755</ele>
        <time>2022-05-22 17:09:58</time>
      </trkpt>
      <trkpt lat="42.43294" lon="1.13299">
        <ele>755</ele>
        <time>2022-05-22 17:09:59</time>
      </trkpt>
      <trkpt lat="42.43299" lon="1.13296">
        <ele>755</ele>
        <time>2022-05-22 17:10:00</time>
      </trkpt>
      <trkpt lat="42.43304" lon="1.13292">
        <ele>755</ele>
        <time>2022-05-22 17:10:01</time>
      </trkpt>
      <trkpt lat="42.43308" lon="1.13289">
        <ele>755</ele>
        <time>2022-05-22 17:10:02</time>
      </trkpt>
      <trkpt lat="42.43314" lon="1.13284">
        <ele>755</ele>
        <time>2022-05-22 17:10:03</time>
      </trkpt>
      <trkpt lat="42.43319" lon="1.13279">
        <ele>755</ele>
        <time>2022-05-22 17:10:04</time>
      </trkpt>
      <trkpt lat="42.43324" lon="1.13274">
        <ele>755</ele>
        <time>2022-05-22 17:10:05</time>
      </trkpt>
      <trkpt lat="42.43327" lon="1.13269">
        <ele>754.8</ele>
        <time>2022-05-22 17:10:06</time>
      </trkpt>
      <trkpt lat="42.43333" lon="1.13262">
        <ele>754.8</ele>
        <time>2022-05-22 17:10:07</time>
      </trkpt>
      <trkpt lat="42.43337" lon="1.13257">
        <ele>754.8</ele>
        <time>2022-05-22 17:10:08</time>
      </trkpt>
      <trkpt lat="42.43342" lon="1.1325">
        <ele>754.6</ele>
        <time>2022-05-22 17:10:09</time>
      </trkpt>
      <trkpt lat="42.43346" lon="1.13244">
        <ele>754.4</ele>
        <time>2022-05-22 17:10:10</time>
      </trkpt>
      <trkpt lat="42.43352" lon="1.13236">
        <ele>754.2</ele>
        <time>2022-05-22 17:10:11</time>
      </trkpt>
      <trkpt lat="42.43356" lon="1.13229">
        <ele>754</ele>
        <time>2022-05-22 17:10:12</time>
      </trkpt>
      <trkpt lat="42.43361" lon="1.13221">
        <ele>754</ele>
        <time>2022-05-22 17:10:13</time>
      </trkpt>
      <trkpt lat="42.43366" lon="1.13214">
        <ele>753.8</ele>
        <time>2022-05-22 17:10:14</time>
      </trkpt>
      <trkpt lat="42.43371" lon="1.13207">
        <ele>753.6</ele>
        <time>2022-05-22 17:10:15</time>
      </trkpt>
      <trkpt lat="42.43376" lon="1.132">
        <ele>753.2</ele>
        <time>2022-05-22 17:10:16</time>
      </trkpt>
      <trkpt lat="42.43382" lon="1.13191">
        <ele>753</ele>
        <time>2022-05-22 17:10:17</time>
      </trkpt>
      <trkpt lat="42.43387" lon="1.13185">
        <ele>752.8</ele>
        <time>2022-05-22 17:10:18</time>
      </trkpt>
      <trkpt lat="42.43394" lon="1.13177">
        <ele>752.4</ele>
        <time>2022-05-22 17:10:19</time>
      </trkpt>
      <trkpt lat="42.43399" lon="1.13172">
        <ele>752.2</ele>
        <time>2022-05-22 17:10:20</time>
      </trkpt>
      <trkpt lat="42.43408" lon="1.13164">
        <ele>751.8</ele>
        <time>2022-05-22 17:10:21</time>
      </trkpt>
      <trkpt lat="42.43416" lon="1.13158">
        <ele>751.4</ele>
        <time>2022-05-22 17:10:22</time>
      </trkpt>
      <trkpt lat="42.43424" lon="1.13153">
        <ele>751</ele>
        <time>2022-05-22 17:10:23</time>
      </trkpt>
      <trkpt lat="42.43431" lon="1.13149">
        <ele>750.8</ele>
        <time>2022-05-22 17:10:24</time>
      </trkpt>
      <trkpt lat="42.4344" lon="1.13143">
        <ele>750.4</ele>
        <time>2022-05-22 17:10:25</time>
      </trkpt>
      <trkpt lat="42.43447" lon="1.13138">
        <ele>750.2</ele>
        <time>2022-05-22 17:10:26</time>
      </trkpt>
      <trkpt lat="42.43457" lon="1.13133">
        <ele>750</ele>
        <time>2022-05-22 17:10:27</time>
      </trkpt>
      <trkpt lat="42.43465" lon="1.13128">
        <ele>749.8</ele>
        <time>2022-05-22 17:10:28</time>
      </trkpt>
      <trkpt lat="42.43473" lon="1.13123">
        <ele>749.4</ele>
        <time>2022-05-22 17:10:29</time>
      </trkpt>
      <trkpt lat="42.43481" lon="1.13117">
        <ele>749.2</ele>
        <time>2022-05-22 17:10:30</time>
      </trkpt>
      <trkpt lat="42.43491" lon="1.13112">
        <ele>748.8</ele>
        <time>2022-05-22 17:10:31</time>
      </trkpt>
      <trkpt lat="42.43499" lon="1.13107">
        <ele>748.4</ele>
        <time>2022-05-22 17:10:32</time>
      </trkpt>
      <trkpt lat="42.43508" lon="1.13101">
        <ele>748</ele>
        <time>2022-05-22 17:10:33</time>
      </trkpt>
      <trkpt lat="42.43517" lon="1.13095">
        <ele>747.4</ele>
        <time>2022-05-22 17:10:34</time>
      </trkpt>
      <trkpt lat="42.43526" lon="1.1309">
        <ele>747</ele>
        <time>2022-05-22 17:10:35</time>
      </trkpt>
      <trkpt lat="42.43534" lon="1.13085">
        <ele>746.6</ele>
        <time>2022-05-22 17:10:36</time>
      </trkpt>
      <trkpt lat="42.43544" lon="1.13079">
        <ele>746.4</ele>
        <time>2022-05-22 17:10:37</time>
      </trkpt>
      <trkpt lat="42.43553" lon="1.13075">
        <ele>746</ele>
        <time>2022-05-22 17:10:38</time>
      </trkpt>
      <trkpt lat="42.43564" lon="1.13071">
        <ele>745.6</ele>
        <time>2022-05-22 17:10:39</time>
      </trkpt>
      <trkpt lat="42.43572" lon="1.13068">
        <ele>745.2</ele>
        <time>2022-05-22 17:10:40</time>
      </trkpt>
      <trkpt lat="42.43583" lon="1.13066">
        <ele>744.6</ele>
        <time>2022-05-22 17:10:41</time>
      </trkpt>
      <trkpt lat="42.43594" lon="1.13063">
        <ele>744.2</ele>
        <time>2022-05-22 17:10:42</time>
      </trkpt>
      <trkpt lat="42.43603" lon="1.13061">
        <ele>743.8</ele>
        <time>2022-05-22 17:10:43</time>
      </trkpt>
      <trkpt lat="42.43614" lon="1.13059">
        <ele>743.6</ele>
        <time>2022-05-22 17:10:44</time>
      </trkpt>
      <trkpt lat="42.43623" lon="1.13059">
        <ele>743.2</ele>
        <time>2022-05-22 17:10:45</time>
      </trkpt>
      <trkpt lat="42.43633" lon="1.13059">
        <ele>743</ele>
        <time>2022-05-22 17:10:46</time>
      </trkpt>
      <trkpt lat="42.43643" lon="1.13061">
        <ele>743</ele>
        <time>2022-05-22 17:10:47</time>
      </trkpt>
      <trkpt lat="42.43652" lon="1.13064">
        <ele>743</ele>
        <time>2022-05-22 17:10:48</time>
      </trkpt>
      <trkpt lat="42.43661" lon="1.13067">
        <ele>743</ele>
        <time>2022-05-22 17:10:49</time>
      </trkpt>
      <trkpt lat="42.43671" lon="1.13071">
        <ele>743</ele>
        <time>2022-05-22 17:10:50</time>
      </trkpt>
      <trkpt lat="42.43681" lon="1.13075">
        <ele>743</ele>
        <time>2022-05-22 17:10:51</time>
      </trkpt>
      <trkpt lat="42.4369" lon="1.13079">
        <ele>743</ele>
        <time>2022-05-22 17:10:52</time>
      </trkpt>
      <trkpt lat="42.43699" lon="1.13083">
        <ele>743</ele>
        <time>2022-05-22 17:10:53</time>
      </trkpt>
      <trkpt lat="42.43705" lon="1.13086">
        <ele>743</ele>
        <time>2022-05-22 17:10:54</time>
      </trkpt>
      <trkpt lat="42.43715" lon="1.13092">
        <ele>743</ele>
        <time>2022-05-22 17:10:55</time>
      </trkpt>
      <trkpt lat="42.43721" lon="1.13096">
        <ele>743</ele>
        <time>2022-05-22 17:10:56</time>
      </trkpt>
      <trkpt lat="42.4373" lon="1.13103">
        <ele>743</ele>
        <time>2022-05-22 17:10:57</time>
      </trkpt>
      <trkpt lat="42.43738" lon="1.13109">
        <ele>743</ele>
        <time>2022-05-22 17:10:58</time>
      </trkpt>
      <trkpt lat="42.43745" lon="1.13114">
        <ele>743.2</ele>
        <time>2022-05-22 17:10:59</time>
      </trkpt>
      <trkpt lat="42.43752" lon="1.13119">
        <ele>743.2</ele>
        <time>2022-05-22 17:11:00</time>
      </trkpt>
      <trkpt lat="42.43757" lon="1.13123">
        <ele>743.2</ele>
        <time>2022-05-22 17:11:01</time>
      </trkpt>
      <trkpt lat="42.43767" lon="1.13129">
        <ele>743.2</ele>
        <time>2022-05-22 17:11:02</time>
      </trkpt>
      <trkpt lat="42.43773" lon="1.13133">
        <ele>743.2</ele>
        <time>2022-05-22 17:11:03</time>
      </trkpt>
      <trkpt lat="42.43781" lon="1.13138">
        <ele>743.2</ele>
        <time>2022-05-22 17:11:04</time>
      </trkpt>
      <trkpt lat="42.43786" lon="1.13142">
        <ele>743.2</ele>
        <time>2022-05-22 17:11:05</time>
      </trkpt>
      <trkpt lat="42.43795" lon="1.13147">
        <ele>743.2</ele>
        <time>2022-05-22 17:11:06</time>
      </trkpt>
      <trkpt lat="42.438" lon="1.13151">
        <ele>743.2</ele>
        <time>2022-05-22 17:11:07</time>
      </trkpt>
      <trkpt lat="42.43809" lon="1.13157">
        <ele>743.2</ele>
        <time>2022-05-22 17:11:08</time>
      </trkpt>
      <trkpt lat="42.43815" lon="1.13161">
        <ele>743.2</ele>
        <time>2022-05-22 17:11:09</time>
      </trkpt>
      <trkpt lat="42.43822" lon="1.13167">
        <ele>743.2</ele>
        <time>2022-05-22 17:11:10</time>
      </trkpt>
      <trkpt lat="42.43828" lon="1.1317">
        <ele>743.2</ele>
        <time>2022-05-22 17:11:11</time>
      </trkpt>
      <trkpt lat="42.43836" lon="1.13176">
        <ele>743.2</ele>
        <time>2022-05-22 17:11:12</time>
      </trkpt>
      <trkpt lat="42.43841" lon="1.13179">
        <ele>743.2</ele>
        <time>2022-05-22 17:11:13</time>
      </trkpt>
      <trkpt lat="42.4385" lon="1.13185">
        <ele>743.4</ele>
        <time>2022-05-22 17:11:14</time>
      </trkpt>
      <trkpt lat="42.43856" lon="1.13189">
        <ele>743.4</ele>
        <time>2022-05-22 17:11:15</time>
      </trkpt>
      <trkpt lat="42.43864" lon="1.13195">
        <ele>743.4</ele>
        <time>2022-05-22 17:11:16</time>
      </trkpt>
      <trkpt lat="42.4387" lon="1.13198">
        <ele>743.4</ele>
        <time>2022-05-22 17:11:17</time>
      </trkpt>
      <trkpt lat="42.43878" lon="1.13204">
        <ele>743.6</ele>
        <time>2022-05-22 17:11:18</time>
      </trkpt>
      <trkpt lat="42.43883" lon="1.13208">
        <ele>743.6</ele>
        <time>2022-05-22 17:11:19</time>
      </trkpt>
      <trkpt lat="42.43892" lon="1.13213">
        <ele>743.6</ele>
        <time>2022-05-22 17:11:20</time>
      </trkpt>
      <trkpt lat="42.43899" lon="1.13217">
        <ele>743.6</ele>
        <time>2022-05-22 17:11:21</time>
      </trkpt>
      <trkpt lat="42.43907" lon="1.13222">
        <ele>743.6</ele>
        <time>2022-05-22 17:11:22</time>
      </trkpt>
      <trkpt lat="42.43911" lon="1.13225">
        <ele>743.6</ele>
        <time>2022-05-22 17:11:23</time>
      </trkpt>
      <trkpt lat="42.43921" lon="1.13231">
        <ele>743.6</ele>
        <time>2022-05-22 17:11:24</time>
      </trkpt>
      <trkpt lat="42.43927" lon="1.13235">
        <ele>743.6</ele>
        <time>2022-05-22 17:11:25</time>
      </trkpt>
      <trkpt lat="42.43934" lon="1.1324">
        <ele>743.6</ele>
        <time>2022-05-22 17:11:26</time>
      </trkpt>
      <trkpt lat="42.43939" lon="1.13243">
        <ele>743.6</ele>
        <time>2022-05-22 17:11:27</time>
      </trkpt>
      <trkpt lat="42.43947" lon="1.13249">
        <ele>743.8</ele>
        <time>2022-05-22 17:11:28</time>
      </trkpt>
      <trkpt lat="42.43952" lon="1.13252">
        <ele>743.8</ele>
        <time>2022-05-22 17:11:29</time>
      </trkpt>
      <trkpt lat="42.43959" lon="1.13258">
        <ele>744</ele>
        <time>2022-05-22 17:11:30</time>
      </trkpt>
      <trkpt lat="42.43964" lon="1.13261">
        <ele>744</ele>
        <time>2022-05-22 17:11:31</time>
      </trkpt>
      <trkpt lat="42.43972" lon="1.13266">
        <ele>744</ele>
        <time>2022-05-22 17:11:32</time>
      </trkpt>
      <trkpt lat="42.43977" lon="1.13269">
        <ele>744.2</ele>
        <time>2022-05-22 17:11:33</time>
      </trkpt>
      <trkpt lat="42.43984" lon="1.13274">
        <ele>744.2</ele>
        <time>2022-05-22 17:11:34</time>
      </trkpt>
      <trkpt lat="42.43988" lon="1.13277">
        <ele>744.2</ele>
        <time>2022-05-22 17:11:35</time>
      </trkpt>
      <trkpt lat="42.43995" lon="1.13281">
        <ele>744.4</ele>
        <time>2022-05-22 17:11:36</time>
      </trkpt>
      <trkpt lat="42.44" lon="1.13284">
        <ele>744.4</ele>
        <time>2022-05-22 17:11:37</time>
      </trkpt>
      <trkpt lat="42.44007" lon="1.13289">
        <ele>744.4</ele>
        <time>2022-05-22 17:11:38</time>
      </trkpt>
      <trkpt lat="42.4401" lon="1.13291">
        <ele>744.6</ele>
        <time>2022-05-22 17:11:39</time>
      </trkpt>
      <trkpt lat="42.44018" lon="1.13296">
        <ele>744.8</ele>
        <time>2022-05-22 17:11:40</time>
      </trkpt>
      <trkpt lat="42.44021" lon="1.13299">
        <ele>745</ele>
        <time>2022-05-22 17:11:41</time>
      </trkpt>
      <trkpt lat="42.44029" lon="1.13304">
        <ele>745.2</ele>
        <time>2022-05-22 17:11:42</time>
      </trkpt>
      <trkpt lat="42.44034" lon="1.13307">
        <ele>745.2</ele>
        <time>2022-05-22 17:11:43</time>
      </trkpt>
      <trkpt lat="42.4404" lon="1.13311">
        <ele>745.4</ele>
        <time>2022-05-22 17:11:44</time>
      </trkpt>
      <trkpt lat="42.44044" lon="1.13313">
        <ele>745.4</ele>
        <time>2022-05-22 17:11:45</time>
      </trkpt>
      <trkpt lat="42.44051" lon="1.13318">
        <ele>745.6</ele>
        <time>2022-05-22 17:11:46</time>
      </trkpt>
      <trkpt lat="42.44055" lon="1.13321">
        <ele>745.6</ele>
        <time>2022-05-22 17:11:47</time>
      </trkpt>
      <trkpt lat="42.44061" lon="1.13325">
        <ele>745.8</ele>
        <time>2022-05-22 17:11:48</time>
      </trkpt>
      <trkpt lat="42.44066" lon="1.13328">
        <ele>745.8</ele>
        <time>2022-05-22 17:11:49</time>
      </trkpt>
      <trkpt lat="42.44071" lon="1.13332">
        <ele>746</ele>
        <time>2022-05-22 17:11:50</time>
      </trkpt>
      <trkpt lat="42.44075" lon="1.13335">
        <ele>746</ele>
        <time>2022-05-22 17:11:51</time>
      </trkpt>
      <trkpt lat="42.44082" lon="1.1334">
        <ele>746.2</ele>
        <time>2022-05-22 17:11:52</time>
      </trkpt>
      <trkpt lat="42.44085" lon="1.13342">
        <ele>746.4</ele>
        <time>2022-05-22 17:11:53</time>
      </trkpt>
      <trkpt lat="42.44092" lon="1.13346">
        <ele>746.4</ele>
        <time>2022-05-22 17:11:54</time>
      </trkpt>
      <trkpt lat="42.44096" lon="1.13349">
        <ele>746.6</ele>
        <time>2022-05-22 17:11:55</time>
      </trkpt>
      <trkpt lat="42.44102" lon="1.13353">
        <ele>746.8</ele>
        <time>2022-05-22 17:11:56</time>
      </trkpt>
      <trkpt lat="42.44106" lon="1.13356">
        <ele>746.8</ele>
        <time>2022-05-22 17:11:57</time>
      </trkpt>
      <trkpt lat="42.44112" lon="1.1336">
        <ele>747</ele>
        <time>2022-05-22 17:11:58</time>
      </trkpt>
      <trkpt lat="42.44117" lon="1.13362">
        <ele>747</ele>
        <time>2022-05-22 17:11:59</time>
      </trkpt>
      <trkpt lat="42.44123" lon="1.13366">
        <ele>747</ele>
        <time>2022-05-22 17:12:00</time>
      </trkpt>
      <trkpt lat="42.44127" lon="1.13369">
        <ele>747.2</ele>
        <time>2022-05-22 17:12:01</time>
      </trkpt>
      <trkpt lat="42.44133" lon="1.13373">
        <ele>747.4</ele>
        <time>2022-05-22 17:12:02</time>
      </trkpt>
      <trkpt lat="42.44137" lon="1.13375">
        <ele>747.6</ele>
        <time>2022-05-22 17:12:03</time>
      </trkpt>
      <trkpt lat="42.44143" lon="1.1338">
        <ele>747.6</ele>
        <time>2022-05-22 17:12:04</time>
      </trkpt>
      <trkpt lat="42.44147" lon="1.13383">
        <ele>747.8</ele>
        <time>2022-05-22 17:12:05</time>
      </trkpt>
      <trkpt lat="42.44153" lon="1.13386">
        <ele>748</ele>
        <time>2022-05-22 17:12:06</time>
      </trkpt>
      <trkpt lat="42.44157" lon="1.13389">
        <ele>748</ele>
        <time>2022-05-22 17:12:07</time>
      </trkpt>
      <trkpt lat="42.44163" lon="1.13392">
        <ele>748.2</ele>
        <time>2022-05-22 17:12:08</time>
      </trkpt>
      <trkpt lat="42.44166" lon="1.13394">
        <ele>748.4</ele>
        <time>2022-05-22 17:12:09</time>
      </trkpt>
      <trkpt lat="42.44172" lon="1.134">
        <ele>748.6</ele>
        <time>2022-05-22 17:12:10</time>
      </trkpt>
      <trkpt lat="42.44176" lon="1.13404">
        <ele>748.8</ele>
        <time>2022-05-22 17:12:11</time>
      </trkpt>
      <trkpt lat="42.44182" lon="1.13408">
        <ele>748.8</ele>
        <time>2022-05-22 17:12:12</time>
      </trkpt>
      <trkpt lat="42.44186" lon="1.1341">
        <ele>749</ele>
        <time>2022-05-22 17:12:13</time>
      </trkpt>
      <trkpt lat="42.44191" lon="1.13413">
        <ele>749.2</ele>
        <time>2022-05-22 17:12:14</time>
      </trkpt>
      <trkpt lat="42.44194" lon="1.13415">
        <ele>749.4</ele>
        <time>2022-05-22 17:12:15</time>
      </trkpt>
      <trkpt lat="42.442" lon="1.13419">
        <ele>749.4</ele>
        <time>2022-05-22 17:12:16</time>
      </trkpt>
      <trkpt lat="42.44204" lon="1.13421">
        <ele>749.4</ele>
        <time>2022-05-22 17:12:17</time>
      </trkpt>
      <trkpt lat="42.44209" lon="1.13425">
        <ele>749.4</ele>
        <time>2022-05-22 17:12:18</time>
      </trkpt>
      <trkpt lat="42.44213" lon="1.13427">
        <ele>749.4</ele>
        <time>2022-05-22 17:12:19</time>
      </trkpt>
      <trkpt lat="42.44218" lon="1.13431">
        <ele>749.6</ele>
        <time>2022-05-22 17:12:20</time>
      </trkpt>
      <trkpt lat="42.44221" lon="1.13433">
        <ele>749.6</ele>
        <time>2022-05-22 17:12:21</time>
      </trkpt>
      <trkpt lat="42.44227" lon="1.13437">
        <ele>749.6</ele>
        <time>2022-05-22 17:12:22</time>
      </trkpt>
      <trkpt lat="42.4423" lon="1.13439">
        <ele>749.6</ele>
        <time>2022-05-22 17:12:23</time>
      </trkpt>
      <trkpt lat="42.44237" lon="1.13444">
        <ele>749.6</ele>
        <time>2022-05-22 17:12:24</time>
      </trkpt>
      <trkpt lat="42.4424" lon="1.13447">
        <ele>749.6</ele>
        <time>2022-05-22 17:12:25</time>
      </trkpt>
      <trkpt lat="42.44247" lon="1.13451">
        <ele>749.6</ele>
        <time>2022-05-22 17:12:26</time>
      </trkpt>
      <trkpt lat="42.4425" lon="1.13454">
        <ele>749.6</ele>
        <time>2022-05-22 17:12:27</time>
      </trkpt>
      <trkpt lat="42.44258" lon="1.13459">
        <ele>749.6</ele>
        <time>2022-05-22 17:12:28</time>
      </trkpt>
      <trkpt lat="42.44262" lon="1.13461">
        <ele>749.6</ele>
        <time>2022-05-22 17:12:29</time>
      </trkpt>
      <trkpt lat="42.44268" lon="1.13466">
        <ele>749.6</ele>
        <time>2022-05-22 17:12:30</time>
      </trkpt>
      <trkpt lat="42.44272" lon="1.13468">
        <ele>749.4</ele>
        <time>2022-05-22 17:12:31</time>
      </trkpt>
      <trkpt lat="42.44279" lon="1.13473">
        <ele>749.4</ele>
        <time>2022-05-22 17:12:32</time>
      </trkpt>
      <trkpt lat="42.44284" lon="1.13476">
        <ele>749.4</ele>
        <time>2022-05-22 17:12:33</time>
      </trkpt>
      <trkpt lat="42.4429" lon="1.1348">
        <ele>749.4</ele>
        <time>2022-05-22 17:12:34</time>
      </trkpt>
      <trkpt lat="42.44295" lon="1.13483">
        <ele>749.4</ele>
        <time>2022-05-22 17:12:35</time>
      </trkpt>
      <trkpt lat="42.44302" lon="1.13488">
        <ele>749.4</ele>
        <time>2022-05-22 17:12:36</time>
      </trkpt>
      <trkpt lat="42.44307" lon="1.13491">
        <ele>749.6</ele>
        <time>2022-05-22 17:12:37</time>
      </trkpt>
      <trkpt lat="42.44314" lon="1.13495">
        <ele>749.6</ele>
        <time>2022-05-22 17:12:38</time>
      </trkpt>
      <trkpt lat="42.44319" lon="1.13498">
        <ele>749.6</ele>
        <time>2022-05-22 17:12:39</time>
      </trkpt>
      <trkpt lat="42.44325" lon="1.13503">
        <ele>749.8</ele>
        <time>2022-05-22 17:12:40</time>
      </trkpt>
      <trkpt lat="42.44329" lon="1.13505">
        <ele>749.6</ele>
        <time>2022-05-22 17:12:41</time>
      </trkpt>
      <trkpt lat="42.44337" lon="1.1351">
        <ele>749.8</ele>
        <time>2022-05-22 17:12:42</time>
      </trkpt>
      <trkpt lat="42.44341" lon="1.13512">
        <ele>749.8</ele>
        <time>2022-05-22 17:12:43</time>
      </trkpt>
      <trkpt lat="42.44349" lon="1.13516">
        <ele>749.8</ele>
        <time>2022-05-22 17:12:44</time>
      </trkpt>
      <trkpt lat="42.44354" lon="1.13519">
        <ele>749.8</ele>
        <time>2022-05-22 17:12:45</time>
      </trkpt>
      <trkpt lat="42.44361" lon="1.13523">
        <ele>749.8</ele>
        <time>2022-05-22 17:12:46</time>
      </trkpt>
      <trkpt lat="42.44365" lon="1.13526">
        <ele>749.8</ele>
        <time>2022-05-22 17:12:47</time>
      </trkpt>
      <trkpt lat="42.44372" lon="1.1353">
        <ele>750</ele>
        <time>2022-05-22 17:12:48</time>
      </trkpt>
      <trkpt lat="42.44375" lon="1.13533">
        <ele>750</ele>
        <time>2022-05-22 17:12:49</time>
      </trkpt>
      <trkpt lat="42.44381" lon="1.13537">
        <ele>750.2</ele>
        <time>2022-05-22 17:12:50</time>
      </trkpt>
      <trkpt lat="42.44385" lon="1.13538">
        <ele>750</ele>
        <time>2022-05-22 17:12:51</time>
      </trkpt>
      <trkpt lat="42.44391" lon="1.13541">
        <ele>750.2</ele>
        <time>2022-05-22 17:12:52</time>
      </trkpt>
      <trkpt lat="42.44395" lon="1.13541">
        <ele>750.2</ele>
        <time>2022-05-22 17:12:53</time>
      </trkpt>
      <trkpt lat="42.44403" lon="1.13542">
        <ele>750.4</ele>
        <time>2022-05-22 17:12:54</time>
      </trkpt>
      <trkpt lat="42.44407" lon="1.13543">
        <ele>750.2</ele>
        <time>2022-05-22 17:12:55</time>
      </trkpt>
      <trkpt lat="42.44414" lon="1.13543">
        <ele>750.4</ele>
        <time>2022-05-22 17:12:56</time>
      </trkpt>
      <trkpt lat="42.44418" lon="1.13543">
        <ele>750.2</ele>
        <time>2022-05-22 17:12:57</time>
      </trkpt>
      <trkpt lat="42.44426" lon="1.13542">
        <ele>750.2</ele>
        <time>2022-05-22 17:12:58</time>
      </trkpt>
      <trkpt lat="42.4443" lon="1.13542">
        <ele>750.2</ele>
        <time>2022-05-22 17:12:59</time>
      </trkpt>
      <trkpt lat="42.44437" lon="1.13542">
        <ele>750</ele>
        <time>2022-05-22 17:13:00</time>
      </trkpt>
      <trkpt lat="42.4444" lon="1.13542">
        <ele>750</ele>
        <time>2022-05-22 17:13:01</time>
      </trkpt>
      <trkpt lat="42.44447" lon="1.13542">
        <ele>749.8</ele>
        <time>2022-05-22 17:13:02</time>
      </trkpt>
      <trkpt lat="42.44451" lon="1.13542">
        <ele>749.8</ele>
        <time>2022-05-22 17:13:03</time>
      </trkpt>
      <trkpt lat="42.44458" lon="1.13542">
        <ele>749.6</ele>
        <time>2022-05-22 17:13:04</time>
      </trkpt>
      <trkpt lat="42.44463" lon="1.13543">
        <ele>749.6</ele>
        <time>2022-05-22 17:13:05</time>
      </trkpt>
      <trkpt lat="42.4447" lon="1.13544">
        <ele>749.6</ele>
        <time>2022-05-22 17:13:06</time>
      </trkpt>
      <trkpt lat="42.44473" lon="1.13544">
        <ele>749.4</ele>
        <time>2022-05-22 17:13:07</time>
      </trkpt>
      <trkpt lat="42.44481" lon="1.13544">
        <ele>749.4</ele>
        <time>2022-05-22 17:13:08</time>
      </trkpt>
      <trkpt lat="42.44484" lon="1.13545">
        <ele>749.4</ele>
        <time>2022-05-22 17:13:09</time>
      </trkpt>
      <trkpt lat="42.44491" lon="1.13545">
        <ele>749.2</ele>
        <time>2022-05-22 17:13:10</time>
      </trkpt>
      <trkpt lat="42.44495" lon="1.13544">
        <ele>749.2</ele>
        <time>2022-05-22 17:13:11</time>
      </trkpt>
      <trkpt lat="42.44502" lon="1.13544">
        <ele>749</ele>
        <time>2022-05-22 17:13:12</time>
      </trkpt>
      <trkpt lat="42.44506" lon="1.13544">
        <ele>749</ele>
        <time>2022-05-22 17:13:13</time>
      </trkpt>
      <trkpt lat="42.44514" lon="1.13543">
        <ele>748.8</ele>
        <time>2022-05-22 17:13:14</time>
      </trkpt>
      <trkpt lat="42.44518" lon="1.13543">
        <ele>748.6</ele>
        <time>2022-05-22 17:13:15</time>
      </trkpt>
      <trkpt lat="42.44526" lon="1.13542">
        <ele>748.6</ele>
        <time>2022-05-22 17:13:16</time>
      </trkpt>
      <trkpt lat="42.4453" lon="1.13542">
        <ele>748.4</ele>
        <time>2022-05-22 17:13:17</time>
      </trkpt>
      <trkpt lat="42.44538" lon="1.13542">
        <ele>748.4</ele>
        <time>2022-05-22 17:13:18</time>
      </trkpt>
      <trkpt lat="42.44542" lon="1.13542">
        <ele>748.4</ele>
        <time>2022-05-22 17:13:19</time>
      </trkpt>
      <trkpt lat="42.44549" lon="1.13542">
        <ele>748.4</ele>
        <time>2022-05-22 17:13:20</time>
      </trkpt>
      <trkpt lat="42.44554" lon="1.13542">
        <ele>748.2</ele>
        <time>2022-05-22 17:13:21</time>
      </trkpt>
      <trkpt lat="42.44561" lon="1.13541">
        <ele>748.2</ele>
        <time>2022-05-22 17:13:22</time>
      </trkpt>
      <trkpt lat="42.44565" lon="1.13541">
        <ele>748</ele>
        <time>2022-05-22 17:13:23</time>
      </trkpt>
      <trkpt lat="42.44572" lon="1.13541">
        <ele>748</ele>
        <time>2022-05-22 17:13:24</time>
      </trkpt>
      <trkpt lat="42.44576" lon="1.1354">
        <ele>748</ele>
        <time>2022-05-22 17:13:25</time>
      </trkpt>
      <trkpt lat="42.44584" lon="1.13541">
        <ele>748</ele>
        <time>2022-05-22 17:13:26</time>
      </trkpt>
      <trkpt lat="42.44588" lon="1.13541">
        <ele>747.8</ele>
        <time>2022-05-22 17:13:27</time>
      </trkpt>
      <trkpt lat="42.44594" lon="1.13542">
        <ele>747.8</ele>
        <time>2022-05-22 17:13:28</time>
      </trkpt>
      <trkpt lat="42.44599" lon="1.13542">
        <ele>748</ele>
        <time>2022-05-22 17:13:29</time>
      </trkpt>
      <trkpt lat="42.44605" lon="1.13543">
        <ele>748</ele>
        <time>2022-05-22 17:13:30</time>
      </trkpt>
      <trkpt lat="42.44609" lon="1.13543">
        <ele>748.2</ele>
        <time>2022-05-22 17:13:31</time>
      </trkpt>
      <trkpt lat="42.44616" lon="1.13544">
        <ele>748.4</ele>
        <time>2022-05-22 17:13:32</time>
      </trkpt>
      <trkpt lat="42.4462" lon="1.13544">
        <ele>748.6</ele>
        <time>2022-05-22 17:13:33</time>
      </trkpt>
      <trkpt lat="42.44626" lon="1.13546">
        <ele>748.8</ele>
        <time>2022-05-22 17:13:34</time>
      </trkpt>
      <trkpt lat="42.4463" lon="1.13547">
        <ele>748.8</ele>
        <time>2022-05-22 17:13:35</time>
      </trkpt>
      <trkpt lat="42.44635" lon="1.13549">
        <ele>749</ele>
        <time>2022-05-22 17:13:36</time>
      </trkpt>
      <trkpt lat="42.44639" lon="1.13551">
        <ele>749</ele>
        <time>2022-05-22 17:13:37</time>
      </trkpt>
      <trkpt lat="42.44644" lon="1.13554">
        <ele>749.2</ele>
        <time>2022-05-22 17:13:38</time>
      </trkpt>
      <trkpt lat="42.44648" lon="1.13556">
        <ele>749.4</ele>
        <time>2022-05-22 17:13:39</time>
      </trkpt>
      <trkpt lat="42.44654" lon="1.1356">
        <ele>749.6</ele>
        <time>2022-05-22 17:13:40</time>
      </trkpt>
      <trkpt lat="42.44656" lon="1.13561">
        <ele>749.8</ele>
        <time>2022-05-22 17:13:41</time>
      </trkpt>
      <trkpt lat="42.44662" lon="1.13564">
        <ele>750</ele>
        <time>2022-05-22 17:13:42</time>
      </trkpt>
      <trkpt lat="42.44664" lon="1.13566">
        <ele>750</ele>
        <time>2022-05-22 17:13:43</time>
      </trkpt>
      <trkpt lat="42.4467" lon="1.1357">
        <ele>750.2</ele>
        <time>2022-05-22 17:13:44</time>
      </trkpt>
      <trkpt lat="42.44674" lon="1.13572">
        <ele>750.4</ele>
        <time>2022-05-22 17:13:45</time>
      </trkpt>
      <trkpt lat="42.44678" lon="1.13575">
        <ele>750.6</ele>
        <time>2022-05-22 17:13:46</time>
      </trkpt>
      <trkpt lat="42.44682" lon="1.13577">
        <ele>750.8</ele>
        <time>2022-05-22 17:13:47</time>
      </trkpt>
      <trkpt lat="42.44685" lon="1.1358">
        <ele>751</ele>
        <time>2022-05-22 17:13:48</time>
      </trkpt>
      <trkpt lat="42.44689" lon="1.13583">
        <ele>751.2</ele>
        <time>2022-05-22 17:13:49</time>
      </trkpt>
      <trkpt lat="42.44692" lon="1.13586">
        <ele>751.4</ele>
        <time>2022-05-22 17:13:50</time>
      </trkpt>
      <trkpt lat="42.44696" lon="1.13589">
        <ele>751.4</ele>
        <time>2022-05-22 17:13:51</time>
      </trkpt>
      <trkpt lat="42.447" lon="1.13593">
        <ele>751.6</ele>
        <time>2022-05-22 17:13:52</time>
      </trkpt>
      <trkpt lat="42.44703" lon="1.13596">
        <ele>751.8</ele>
        <time>2022-05-22 17:13:53</time>
      </trkpt>
      <trkpt lat="42.44704" lon="1.13598">
        <ele>752</ele>
        <time>2022-05-22 17:13:54</time>
      </trkpt>
      <trkpt lat="42.44709" lon="1.13603">
        <ele>752.2</ele>
        <time>2022-05-22 17:13:55</time>
      </trkpt>
      <trkpt lat="42.44712" lon="1.13607">
        <ele>752.4</ele>
        <time>2022-05-22 17:13:56</time>
      </trkpt>
      <trkpt lat="42.44715" lon="1.1361">
        <ele>752.4</ele>
        <time>2022-05-22 17:13:57</time>
      </trkpt>
      <trkpt lat="42.44718" lon="1.13615">
        <ele>752.6</ele>
        <time>2022-05-22 17:13:58</time>
      </trkpt>
      <trkpt lat="42.4472" lon="1.13619">
        <ele>752.6</ele>
        <time>2022-05-22 17:13:59</time>
      </trkpt>
      <trkpt lat="42.44722" lon="1.13622">
        <ele>752.8</ele>
        <time>2022-05-22 17:14:00</time>
      </trkpt>
      <trkpt lat="42.44726" lon="1.13628">
        <ele>752.8</ele>
        <time>2022-05-22 17:14:01</time>
      </trkpt>
      <trkpt lat="42.44728" lon="1.13632">
        <ele>753</ele>
        <time>2022-05-22 17:14:02</time>
      </trkpt>
      <trkpt lat="42.44731" lon="1.13636">
        <ele>753.2</ele>
        <time>2022-05-22 17:14:03</time>
      </trkpt>
      <trkpt lat="42.44733" lon="1.13641">
        <ele>753.4</ele>
        <time>2022-05-22 17:14:04</time>
      </trkpt>
      <trkpt lat="42.44735" lon="1.13645">
        <ele>753.6</ele>
        <time>2022-05-22 17:14:05</time>
      </trkpt>
      <trkpt lat="42.44737" lon="1.13648">
        <ele>753.8</ele>
        <time>2022-05-22 17:14:06</time>
      </trkpt>
      <trkpt lat="42.44739" lon="1.13654">
        <ele>753.8</ele>
        <time>2022-05-22 17:14:07</time>
      </trkpt>
      <trkpt lat="42.44741" lon="1.13658">
        <ele>753.8</ele>
        <time>2022-05-22 17:14:08</time>
      </trkpt>
      <trkpt lat="42.44743" lon="1.13662">
        <ele>754</ele>
        <time>2022-05-22 17:14:09</time>
      </trkpt>
      <trkpt lat="42.44745" lon="1.13668">
        <ele>754.2</ele>
        <time>2022-05-22 17:14:10</time>
      </trkpt>
      <trkpt lat="42.44747" lon="1.13671">
        <ele>754.2</ele>
        <time>2022-05-22 17:14:11</time>
      </trkpt>
      <trkpt lat="42.44748" lon="1.13674">
        <ele>754.4</ele>
        <time>2022-05-22 17:14:12</time>
      </trkpt>
      <trkpt lat="42.4475" lon="1.13682">
        <ele>754.6</ele>
        <time>2022-05-22 17:14:13</time>
      </trkpt>
      <trkpt lat="42.44752" lon="1.13686">
        <ele>754.6</ele>
        <time>2022-05-22 17:14:14</time>
      </trkpt>
      <trkpt lat="42.44753" lon="1.1369">
        <ele>754.8</ele>
        <time>2022-05-22 17:14:15</time>
      </trkpt>
      <trkpt lat="42.44755" lon="1.13696">
        <ele>755</ele>
        <time>2022-05-22 17:14:16</time>
      </trkpt>
      <trkpt lat="42.44757" lon="1.137">
        <ele>755.2</ele>
        <time>2022-05-22 17:14:17</time>
      </trkpt>
      <trkpt lat="42.44758" lon="1.13703">
        <ele>755.2</ele>
        <time>2022-05-22 17:14:18</time>
      </trkpt>
      <trkpt lat="42.4476" lon="1.1371">
        <ele>755.4</ele>
        <time>2022-05-22 17:14:19</time>
      </trkpt>
      <trkpt lat="42.44761" lon="1.13714">
        <ele>755.4</ele>
        <time>2022-05-22 17:14:20</time>
      </trkpt>
      <trkpt lat="42.44762" lon="1.13718">
        <ele>755.6</ele>
        <time>2022-05-22 17:14:21</time>
      </trkpt>
      <trkpt lat="42.44764" lon="1.13724">
        <ele>755.6</ele>
        <time>2022-05-22 17:14:22</time>
      </trkpt>
      <trkpt lat="42.44765" lon="1.13728">
        <ele>755.8</ele>
        <time>2022-05-22 17:14:23</time>
      </trkpt>
      <trkpt lat="42.44766" lon="1.13731">
        <ele>756</ele>
        <time>2022-05-22 17:14:24</time>
      </trkpt>
      <trkpt lat="42.44767" lon="1.13738">
        <ele>756.2</ele>
        <time>2022-05-22 17:14:25</time>
      </trkpt>
      <trkpt lat="42.44768" lon="1.13743">
        <ele>756.2</ele>
        <time>2022-05-22 17:14:26</time>
      </trkpt>
      <trkpt lat="42.44769" lon="1.13747">
        <ele>756.4</ele>
        <time>2022-05-22 17:14:27</time>
      </trkpt>
      <trkpt lat="42.4477" lon="1.13753">
        <ele>756.6</ele>
        <time>2022-05-22 17:14:28</time>
      </trkpt>
      <trkpt lat="42.44771" lon="1.13758">
        <ele>756.8</ele>
        <time>2022-05-22 17:14:29</time>
      </trkpt>
      <trkpt lat="42.44772" lon="1.13762">
        <ele>756.8</ele>
        <time>2022-05-22 17:14:30</time>
      </trkpt>
      <trkpt lat="42.44773" lon="1.13769">
        <ele>757</ele>
        <time>2022-05-22 17:14:31</time>
      </trkpt>
      <trkpt lat="42.44774" lon="1.13773">
        <ele>757</ele>
        <time>2022-05-22 17:14:32</time>
      </trkpt>
      <trkpt lat="42.44775" lon="1.13778">
        <ele>757.2</ele>
        <time>2022-05-22 17:14:33</time>
      </trkpt>
      <trkpt lat="42.44776" lon="1.13785">
        <ele>757.4</ele>
        <time>2022-05-22 17:14:34</time>
      </trkpt>
      <trkpt lat="42.44776" lon="1.13789">
        <ele>757.4</ele>
        <time>2022-05-22 17:14:35</time>
      </trkpt>
      <trkpt lat="42.44776" lon="1.13792">
        <ele>757.6</ele>
        <time>2022-05-22 17:14:36</time>
      </trkpt>
      <trkpt lat="42.44777" lon="1.138">
        <ele>757.8</ele>
        <time>2022-05-22 17:14:37</time>
      </trkpt>
      <trkpt lat="42.44777" lon="1.13805">
        <ele>758</ele>
        <time>2022-05-22 17:14:38</time>
      </trkpt>
      <trkpt lat="42.44778" lon="1.1381">
        <ele>758.2</ele>
        <time>2022-05-22 17:14:39</time>
      </trkpt>
      <trkpt lat="42.44778" lon="1.13816">
        <ele>758.4</ele>
        <time>2022-05-22 17:14:40</time>
      </trkpt>
      <trkpt lat="42.44778" lon="1.1382">
        <ele>758.4</ele>
        <time>2022-05-22 17:14:41</time>
      </trkpt>
      <trkpt lat="42.44778" lon="1.13823">
        <ele>758.6</ele>
        <time>2022-05-22 17:14:42</time>
      </trkpt>
      <trkpt lat="42.44779" lon="1.13831">
        <ele>758.8</ele>
        <time>2022-05-22 17:14:43</time>
      </trkpt>
      <trkpt lat="42.4478" lon="1.13836">
        <ele>759</ele>
        <time>2022-05-22 17:14:44</time>
      </trkpt>
      <trkpt lat="42.4478" lon="1.13842">
        <ele>759</ele>
        <time>2022-05-22 17:14:45</time>
      </trkpt>
      <trkpt lat="42.4478" lon="1.13847">
        <ele>759.2</ele>
        <time>2022-05-22 17:14:46</time>
      </trkpt>
      <trkpt lat="42.4478" lon="1.13852">
        <ele>759.4</ele>
        <time>2022-05-22 17:14:47</time>
      </trkpt>
      <trkpt lat="42.44781" lon="1.13857">
        <ele>759.4</ele>
        <time>2022-05-22 17:14:48</time>
      </trkpt>
      <trkpt lat="42.44781" lon="1.13863">
        <ele>759.6</ele>
        <time>2022-05-22 17:14:49</time>
      </trkpt>
      <trkpt lat="42.44781" lon="1.13868">
        <ele>759.8</ele>
        <time>2022-05-22 17:14:50</time>
      </trkpt>
      <trkpt lat="42.44781" lon="1.13873">
        <ele>760</ele>
        <time>2022-05-22 17:14:51</time>
      </trkpt>
      <trkpt lat="42.44781" lon="1.13878">
        <ele>760</ele>
        <time>2022-05-22 17:14:52</time>
      </trkpt>
      <trkpt lat="42.44781" lon="1.13884">
        <ele>760.2</ele>
        <time>2022-05-22 17:14:53</time>
      </trkpt>
      <trkpt lat="42.44781" lon="1.13889">
        <ele>760.4</ele>
        <time>2022-05-22 17:14:54</time>
      </trkpt>
      <trkpt lat="42.44781" lon="1.13894">
        <ele>760.6</ele>
        <time>2022-05-22 17:14:55</time>
      </trkpt>
      <trkpt lat="42.44781" lon="1.139">
        <ele>760.6</ele>
        <time>2022-05-22 17:14:56</time>
      </trkpt>
      <trkpt lat="42.44781" lon="1.13905">
        <ele>760.8</ele>
        <time>2022-05-22 17:14:57</time>
      </trkpt>
      <trkpt lat="42.44781" lon="1.13911">
        <ele>761</ele>
        <time>2022-05-22 17:14:58</time>
      </trkpt>
      <trkpt lat="42.44781" lon="1.13916">
        <ele>761.2</ele>
        <time>2022-05-22 17:14:59</time>
      </trkpt>
      <trkpt lat="42.44781" lon="1.13921">
        <ele>761.4</ele>
        <time>2022-05-22 17:15:00</time>
      </trkpt>
      <trkpt lat="42.44781" lon="1.13927">
        <ele>761.6</ele>
        <time>2022-05-22 17:15:01</time>
      </trkpt>
      <trkpt lat="42.44781" lon="1.13932">
        <ele>761.6</ele>
        <time>2022-05-22 17:15:02</time>
      </trkpt>
      <trkpt lat="42.44781" lon="1.13938">
        <ele>761.8</ele>
        <time>2022-05-22 17:15:03</time>
      </trkpt>
      <trkpt lat="42.4478" lon="1.13944">
        <ele>761.8</ele>
        <time>2022-05-22 17:15:04</time>
      </trkpt>
      <trkpt lat="42.4478" lon="1.13949">
        <ele>762</ele>
        <time>2022-05-22 17:15:05</time>
      </trkpt>
      <trkpt lat="42.4478" lon="1.13955">
        <ele>762</ele>
        <time>2022-05-22 17:15:06</time>
      </trkpt>
      <trkpt lat="42.4478" lon="1.1396">
        <ele>762.2</ele>
        <time>2022-05-22 17:15:07</time>
      </trkpt>
      <trkpt lat="42.44779" lon="1.13966">
        <ele>762.2</ele>
        <time>2022-05-22 17:15:08</time>
      </trkpt>
      <trkpt lat="42.44779" lon="1.13972">
        <ele>762.4</ele>
        <time>2022-05-22 17:15:09</time>
      </trkpt>
      <trkpt lat="42.44779" lon="1.13978">
        <ele>762.4</ele>
        <time>2022-05-22 17:15:10</time>
      </trkpt>
      <trkpt lat="42.44778" lon="1.13984">
        <ele>762.6</ele>
        <time>2022-05-22 17:15:11</time>
      </trkpt>
      <trkpt lat="42.44778" lon="1.13989">
        <ele>762.8</ele>
        <time>2022-05-22 17:15:12</time>
      </trkpt>
      <trkpt lat="42.44778" lon="1.13996">
        <ele>762.8</ele>
        <time>2022-05-22 17:15:13</time>
      </trkpt>
      <trkpt lat="42.44777" lon="1.14002">
        <ele>763</ele>
        <time>2022-05-22 17:15:14</time>
      </trkpt>
      <trkpt lat="42.44777" lon="1.14008">
        <ele>763</ele>
        <time>2022-05-22 17:15:15</time>
      </trkpt>
      <trkpt lat="42.44776" lon="1.14014">
        <ele>763.2</ele>
        <time>2022-05-22 17:15:16</time>
      </trkpt>
      <trkpt lat="42.44776" lon="1.1402">
        <ele>763.4</ele>
        <time>2022-05-22 17:15:17</time>
      </trkpt>
      <trkpt lat="42.44775" lon="1.14027">
        <ele>763.4</ele>
        <time>2022-05-22 17:15:18</time>
      </trkpt>
      <trkpt lat="42.44775" lon="1.14034">
        <ele>763.4</ele>
        <time>2022-05-22 17:15:19</time>
      </trkpt>
      <trkpt lat="42.44774" lon="1.1404">
        <ele>763.4</ele>
        <time>2022-05-22 17:15:20</time>
      </trkpt>
      <trkpt lat="42.44774" lon="1.14048">
        <ele>763.6</ele>
        <time>2022-05-22 17:15:21</time>
      </trkpt>
      <trkpt lat="42.44773" lon="1.14055">
        <ele>763.6</ele>
        <time>2022-05-22 17:15:22</time>
      </trkpt>
      <trkpt lat="42.44773" lon="1.14061">
        <ele>763.8</ele>
        <time>2022-05-22 17:15:23</time>
      </trkpt>
      <trkpt lat="42.44772" lon="1.14068">
        <ele>763.8</ele>
        <time>2022-05-22 17:15:24</time>
      </trkpt>
      <trkpt lat="42.44772" lon="1.14075">
        <ele>763.8</ele>
        <time>2022-05-22 17:15:25</time>
      </trkpt>
      <trkpt lat="42.44771" lon="1.14083">
        <ele>764</ele>
        <time>2022-05-22 17:15:26</time>
      </trkpt>
      <trkpt lat="42.4477" lon="1.1409">
        <ele>764</ele>
        <time>2022-05-22 17:15:27</time>
      </trkpt>
      <trkpt lat="42.4477" lon="1.14098">
        <ele>764</ele>
        <time>2022-05-22 17:15:28</time>
      </trkpt>
      <trkpt lat="42.44769" lon="1.14105">
        <ele>764</ele>
        <time>2022-05-22 17:15:29</time>
      </trkpt>
      <trkpt lat="42.44769" lon="1.14112">
        <ele>764</ele>
        <time>2022-05-22 17:15:30</time>
      </trkpt>
      <trkpt lat="42.44769" lon="1.1412">
        <ele>764</ele>
        <time>2022-05-22 17:15:31</time>
      </trkpt>
      <trkpt lat="42.44769" lon="1.14127">
        <ele>764</ele>
        <time>2022-05-22 17:15:32</time>
      </trkpt>
      <trkpt lat="42.44769" lon="1.14135">
        <ele>764.2</ele>
        <time>2022-05-22 17:15:33</time>
      </trkpt>
      <trkpt lat="42.44769" lon="1.14143">
        <ele>764.2</ele>
        <time>2022-05-22 17:15:34</time>
      </trkpt>
      <trkpt lat="42.44769" lon="1.14151">
        <ele>764.2</ele>
        <time>2022-05-22 17:15:35</time>
      </trkpt>
      <trkpt lat="42.4477" lon="1.14159">
        <ele>764.2</ele>
        <time>2022-05-22 17:15:36</time>
      </trkpt>
      <trkpt lat="42.4477" lon="1.14167">
        <ele>764.2</ele>
        <time>2022-05-22 17:15:37</time>
      </trkpt>
      <trkpt lat="42.44771" lon="1.14176">
        <ele>764.2</ele>
        <time>2022-05-22 17:15:38</time>
      </trkpt>
      <trkpt lat="42.44772" lon="1.14184">
        <ele>764.2</ele>
        <time>2022-05-22 17:15:39</time>
      </trkpt>
      <trkpt lat="42.44774" lon="1.14192">
        <ele>764</ele>
        <time>2022-05-22 17:15:40</time>
      </trkpt>
      <trkpt lat="42.44775" lon="1.14201">
        <ele>763.8</ele>
        <time>2022-05-22 17:15:41</time>
      </trkpt>
      <trkpt lat="42.44777" lon="1.1421">
        <ele>763.6</ele>
        <time>2022-05-22 17:15:42</time>
      </trkpt>
      <trkpt lat="42.44778" lon="1.14219">
        <ele>763.6</ele>
        <time>2022-05-22 17:15:43</time>
      </trkpt>
      <trkpt lat="42.4478" lon="1.14228">
        <ele>763.4</ele>
        <time>2022-05-22 17:15:44</time>
      </trkpt>
      <trkpt lat="42.44782" lon="1.14237">
        <ele>763.4</ele>
        <time>2022-05-22 17:15:45</time>
      </trkpt>
      <trkpt lat="42.44784" lon="1.14246">
        <ele>763.2</ele>
        <time>2022-05-22 17:15:46</time>
      </trkpt>
      <trkpt lat="42.44787" lon="1.14255">
        <ele>763</ele>
        <time>2022-05-22 17:15:47</time>
      </trkpt>
      <trkpt lat="42.44789" lon="1.14265">
        <ele>762.8</ele>
        <time>2022-05-22 17:15:48</time>
      </trkpt>
      <trkpt lat="42.44792" lon="1.14274">
        <ele>762.6</ele>
        <time>2022-05-22 17:15:49</time>
      </trkpt>
      <trkpt lat="42.44795" lon="1.14283">
        <ele>762.2</ele>
        <time>2022-05-22 17:15:50</time>
      </trkpt>
      <trkpt lat="42.44798" lon="1.14292">
        <ele>762</ele>
        <time>2022-05-22 17:15:51</time>
      </trkpt>
      <trkpt lat="42.44802" lon="1.14301">
        <ele>761.6</ele>
        <time>2022-05-22 17:15:52</time>
      </trkpt>
      <trkpt lat="42.44806" lon="1.1431">
        <ele>761.2</ele>
        <time>2022-05-22 17:15:53</time>
      </trkpt>
      <trkpt lat="42.4481" lon="1.14319">
        <ele>761</ele>
        <time>2022-05-22 17:15:54</time>
      </trkpt>
      <trkpt lat="42.44815" lon="1.14328">
        <ele>760.8</ele>
        <time>2022-05-22 17:15:55</time>
      </trkpt>
      <trkpt lat="42.4482" lon="1.14336">
        <ele>760.6</ele>
        <time>2022-05-22 17:15:56</time>
      </trkpt>
      <trkpt lat="42.44826" lon="1.14345">
        <ele>760.4</ele>
        <time>2022-05-22 17:15:57</time>
      </trkpt>
      <trkpt lat="42.44831" lon="1.14353">
        <ele>760.2</ele>
        <time>2022-05-22 17:15:58</time>
      </trkpt>
      <trkpt lat="42.44837" lon="1.14362">
        <ele>760</ele>
        <time>2022-05-22 17:15:59</time>
      </trkpt>
      <trkpt lat="42.44844" lon="1.1437">
        <ele>759.6</ele>
        <time>2022-05-22 17:16:00</time>
      </trkpt>
      <trkpt lat="42.4485" lon="1.14378">
        <ele>759.4</ele>
        <time>2022-05-22 17:16:01</time>
      </trkpt>
      <trkpt lat="42.44857" lon="1.14387">
        <ele>759</ele>
        <time>2022-05-22 17:16:02</time>
      </trkpt>
      <trkpt lat="42.44864" lon="1.14395">
        <ele>758.6</ele>
        <time>2022-05-22 17:16:03</time>
      </trkpt>
      <trkpt lat="42.4487" lon="1.14403">
        <ele>758.2</ele>
        <time>2022-05-22 17:16:04</time>
      </trkpt>
      <trkpt lat="42.44877" lon="1.14412">
        <ele>757.6</ele>
        <time>2022-05-22 17:16:05</time>
      </trkpt>
      <trkpt lat="42.44885" lon="1.1442">
        <ele>757.2</ele>
        <time>2022-05-22 17:16:06</time>
      </trkpt>
      <trkpt lat="42.44891" lon="1.14428">
        <ele>756.8</ele>
        <time>2022-05-22 17:16:07</time>
      </trkpt>
      <trkpt lat="42.44898" lon="1.14436">
        <ele>756.4</ele>
        <time>2022-05-22 17:16:08</time>
      </trkpt>
      <trkpt lat="42.44905" lon="1.14444">
        <ele>756</ele>
        <time>2022-05-22 17:16:09</time>
      </trkpt>
      <trkpt lat="42.44914" lon="1.14454">
        <ele>755.6</ele>
        <time>2022-05-22 17:16:10</time>
      </trkpt>
      <trkpt lat="42.44921" lon="1.14462">
        <ele>755.2</ele>
        <time>2022-05-22 17:16:11</time>
      </trkpt>
      <trkpt lat="42.44928" lon="1.1447">
        <ele>755</ele>
        <time>2022-05-22 17:16:12</time>
      </trkpt>
      <trkpt lat="42.44935" lon="1.14478">
        <ele>754.6</ele>
        <time>2022-05-22 17:16:13</time>
      </trkpt>
      <trkpt lat="42.44942" lon="1.14487">
        <ele>754.4</ele>
        <time>2022-05-22 17:16:14</time>
      </trkpt>
      <trkpt lat="42.44948" lon="1.14496">
        <ele>754.2</ele>
        <time>2022-05-22 17:16:15</time>
      </trkpt>
      <trkpt lat="42.44954" lon="1.14504">
        <ele>754</ele>
        <time>2022-05-22 17:16:16</time>
      </trkpt>
      <trkpt lat="42.4496" lon="1.14514">
        <ele>753.8</ele>
        <time>2022-05-22 17:16:17</time>
      </trkpt>
      <trkpt lat="42.44965" lon="1.14524">
        <ele>753.6</ele>
        <time>2022-05-22 17:16:18</time>
      </trkpt>
      <trkpt lat="42.44968" lon="1.14534">
        <ele>753.6</ele>
        <time>2022-05-22 17:16:19</time>
      </trkpt>
      <trkpt lat="42.44971" lon="1.14545">
        <ele>753.6</ele>
        <time>2022-05-22 17:16:20</time>
      </trkpt>
      <trkpt lat="42.44974" lon="1.14555">
        <ele>753.6</ele>
        <time>2022-05-22 17:16:21</time>
      </trkpt>
      <trkpt lat="42.44976" lon="1.14566">
        <ele>753.6</ele>
        <time>2022-05-22 17:16:22</time>
      </trkpt>
      <trkpt lat="42.44977" lon="1.14576">
        <ele>753.8</ele>
        <time>2022-05-22 17:16:23</time>
      </trkpt>
      <trkpt lat="42.44978" lon="1.14587">
        <ele>753.8</ele>
        <time>2022-05-22 17:16:24</time>
      </trkpt>
      <trkpt lat="42.44978" lon="1.14597">
        <ele>754</ele>
        <time>2022-05-22 17:16:25</time>
      </trkpt>
      <trkpt lat="42.44978" lon="1.14607">
        <ele>754.2</ele>
        <time>2022-05-22 17:16:26</time>
      </trkpt>
      <trkpt lat="42.44978" lon="1.14616">
        <ele>754.2</ele>
        <time>2022-05-22 17:16:27</time>
      </trkpt>
      <trkpt lat="42.44978" lon="1.14625">
        <ele>754.4</ele>
        <time>2022-05-22 17:16:28</time>
      </trkpt>
      <trkpt lat="42.44978" lon="1.14634">
        <ele>754.4</ele>
        <time>2022-05-22 17:16:29</time>
      </trkpt>
      <trkpt lat="42.44979" lon="1.14644">
        <ele>754.6</ele>
        <time>2022-05-22 17:16:30</time>
      </trkpt>
      <trkpt lat="42.44979" lon="1.14653">
        <ele>754.6</ele>
        <time>2022-05-22 17:16:31</time>
      </trkpt>
      <trkpt lat="42.44979" lon="1.14662">
        <ele>754.6</ele>
        <time>2022-05-22 17:16:32</time>
      </trkpt>
      <trkpt lat="42.44979" lon="1.14671">
        <ele>754.8</ele>
        <time>2022-05-22 17:16:33</time>
      </trkpt>
      <trkpt lat="42.44979" lon="1.1468">
        <ele>755</ele>
        <time>2022-05-22 17:16:34</time>
      </trkpt>
      <trkpt lat="42.44979" lon="1.14689">
        <ele>755</ele>
        <time>2022-05-22 17:16:35</time>
      </trkpt>
      <trkpt lat="42.44979" lon="1.14698">
        <ele>755.2</ele>
        <time>2022-05-22 17:16:36</time>
      </trkpt>
      <trkpt lat="42.44979" lon="1.14707">
        <ele>755.2</ele>
        <time>2022-05-22 17:16:37</time>
      </trkpt>
      <trkpt lat="42.44979" lon="1.14715">
        <ele>755.2</ele>
        <time>2022-05-22 17:16:38</time>
      </trkpt>
      <trkpt lat="42.44979" lon="1.14724">
        <ele>755.4</ele>
        <time>2022-05-22 17:16:39</time>
      </trkpt>
      <trkpt lat="42.4498" lon="1.14734">
        <ele>755.4</ele>
        <time>2022-05-22 17:16:40</time>
      </trkpt>
      <trkpt lat="42.4498" lon="1.14742">
        <ele>755.4</ele>
        <time>2022-05-22 17:16:41</time>
      </trkpt>
      <trkpt lat="42.4498" lon="1.14751">
        <ele>755.6</ele>
        <time>2022-05-22 17:16:42</time>
      </trkpt>
      <trkpt lat="42.4498" lon="1.1476">
        <ele>755.6</ele>
        <time>2022-05-22 17:16:43</time>
      </trkpt>
      <trkpt lat="42.44981" lon="1.14768">
        <ele>755.6</ele>
        <time>2022-05-22 17:16:44</time>
      </trkpt>
      <trkpt lat="42.44981" lon="1.14777">
        <ele>755.6</ele>
        <time>2022-05-22 17:16:45</time>
      </trkpt>
      <trkpt lat="42.44981" lon="1.14785">
        <ele>755.8</ele>
        <time>2022-05-22 17:16:46</time>
      </trkpt>
      <trkpt lat="42.44981" lon="1.14793">
        <ele>755.8</ele>
        <time>2022-05-22 17:16:47</time>
      </trkpt>
      <trkpt lat="42.44981" lon="1.14802">
        <ele>755.8</ele>
        <time>2022-05-22 17:16:48</time>
      </trkpt>
      <trkpt lat="42.44981" lon="1.14809">
        <ele>755.8</ele>
        <time>2022-05-22 17:16:49</time>
      </trkpt>
      <trkpt lat="42.44981" lon="1.14819">
        <ele>756</ele>
        <time>2022-05-22 17:16:50</time>
      </trkpt>
      <trkpt lat="42.44982" lon="1.14828">
        <ele>756.2</ele>
        <time>2022-05-22 17:16:51</time>
      </trkpt>
      <trkpt lat="42.44982" lon="1.14837">
        <ele>756.2</ele>
        <time>2022-05-22 17:16:52</time>
      </trkpt>
      <trkpt lat="42.44982" lon="1.14846">
        <ele>756.2</ele>
        <time>2022-05-22 17:16:53</time>
      </trkpt>
      <trkpt lat="42.44983" lon="1.14854">
        <ele>756.4</ele>
        <time>2022-05-22 17:16:54</time>
      </trkpt>
      <trkpt lat="42.44983" lon="1.14863">
        <ele>756.4</ele>
        <time>2022-05-22 17:16:55</time>
      </trkpt>
      <trkpt lat="42.44983" lon="1.14871">
        <ele>756.4</ele>
        <time>2022-05-22 17:16:56</time>
      </trkpt>
      <trkpt lat="42.44983" lon="1.14878">
        <ele>756.4</ele>
        <time>2022-05-22 17:16:57</time>
      </trkpt>
      <trkpt lat="42.44983" lon="1.14889">
        <ele>756.6</ele>
        <time>2022-05-22 17:16:58</time>
      </trkpt>
      <trkpt lat="42.44984" lon="1.14896">
        <ele>756.8</ele>
        <time>2022-05-22 17:16:59</time>
      </trkpt>
      <trkpt lat="42.44984" lon="1.14907">
        <ele>756.8</ele>
        <time>2022-05-22 17:17:00</time>
      </trkpt>
      <trkpt lat="42.44985" lon="1.14915">
        <ele>756.8</ele>
        <time>2022-05-22 17:17:01</time>
      </trkpt>
      <trkpt lat="42.44987" lon="1.14923">
        <ele>757</ele>
        <time>2022-05-22 17:17:02</time>
      </trkpt>
      <trkpt lat="42.4499" lon="1.14931">
        <ele>757</ele>
        <time>2022-05-22 17:17:03</time>
      </trkpt>
      <trkpt lat="42.44993" lon="1.14938">
        <ele>757</ele>
        <time>2022-05-22 17:17:04</time>
      </trkpt>
      <trkpt lat="42.44996" lon="1.14945">
        <ele>757.2</ele>
        <time>2022-05-22 17:17:05</time>
      </trkpt>
      <trkpt lat="42.44999" lon="1.14952">
        <ele>757.2</ele>
        <time>2022-05-22 17:17:06</time>
      </trkpt>
      <trkpt lat="42.45002" lon="1.14958">
        <ele>757.4</ele>
        <time>2022-05-22 17:17:07</time>
      </trkpt>
      <trkpt lat="42.45006" lon="1.14965">
        <ele>757.6</ele>
        <time>2022-05-22 17:17:08</time>
      </trkpt>
      <trkpt lat="42.4501" lon="1.1497">
        <ele>757.6</ele>
        <time>2022-05-22 17:17:09</time>
      </trkpt>
      <trkpt lat="42.45014" lon="1.14977">
        <ele>757.8</ele>
        <time>2022-05-22 17:17:10</time>
      </trkpt>
      <trkpt lat="42.45017" lon="1.14982">
        <ele>758</ele>
        <time>2022-05-22 17:17:11</time>
      </trkpt>
      <trkpt lat="42.45021" lon="1.1499">
        <ele>758</ele>
        <time>2022-05-22 17:17:12</time>
      </trkpt>
      <trkpt lat="42.45025" lon="1.14995">
        <ele>758</ele>
        <time>2022-05-22 17:17:13</time>
      </trkpt>
      <trkpt lat="42.4503" lon="1.15003">
        <ele>758.2</ele>
        <time>2022-05-22 17:17:14</time>
      </trkpt>
      <trkpt lat="42.45033" lon="1.15009">
        <ele>758.4</ele>
        <time>2022-05-22 17:17:15</time>
      </trkpt>
      <trkpt lat="42.45036" lon="1.15016">
        <ele>758.6</ele>
        <time>2022-05-22 17:17:16</time>
      </trkpt>
      <trkpt lat="42.45039" lon="1.15021">
        <ele>758.8</ele>
        <time>2022-05-22 17:17:17</time>
      </trkpt>
      <trkpt lat="42.45042" lon="1.15027">
        <ele>759</ele>
        <time>2022-05-22 17:17:18</time>
      </trkpt>
      <trkpt lat="42.45044" lon="1.15033">
        <ele>759.2</ele>
        <time>2022-05-22 17:17:19</time>
      </trkpt>
      <trkpt lat="42.45046" lon="1.1504">
        <ele>759.4</ele>
        <time>2022-05-22 17:17:20</time>
      </trkpt>
      <trkpt lat="42.45048" lon="1.15046">
        <ele>759.6</ele>
        <time>2022-05-22 17:17:21</time>
      </trkpt>
      <trkpt lat="42.4505" lon="1.15053">
        <ele>759.8</ele>
        <time>2022-05-22 17:17:22</time>
      </trkpt>
      <trkpt lat="42.45051" lon="1.15058">
        <ele>759.8</ele>
        <time>2022-05-22 17:17:23</time>
      </trkpt>
      <trkpt lat="42.45052" lon="1.15066">
        <ele>760</ele>
        <time>2022-05-22 17:17:24</time>
      </trkpt>
      <trkpt lat="42.45052" lon="1.15072">
        <ele>760.2</ele>
        <time>2022-05-22 17:17:25</time>
      </trkpt>
      <trkpt lat="42.45053" lon="1.1508">
        <ele>760.4</ele>
        <time>2022-05-22 17:17:26</time>
      </trkpt>
      <trkpt lat="42.45053" lon="1.15085">
        <ele>760.4</ele>
        <time>2022-05-22 17:17:27</time>
      </trkpt>
      <trkpt lat="42.45053" lon="1.15093">
        <ele>760.8</ele>
        <time>2022-05-22 17:17:28</time>
      </trkpt>
      <trkpt lat="42.45053" lon="1.15099">
        <ele>760.8</ele>
        <time>2022-05-22 17:17:29</time>
      </trkpt>
      <trkpt lat="42.45052" lon="1.15105">
        <ele>761.2</ele>
        <time>2022-05-22 17:17:30</time>
      </trkpt>
      <trkpt lat="42.45052" lon="1.1511">
        <ele>761.4</ele>
        <time>2022-05-22 17:17:31</time>
      </trkpt>
      <trkpt lat="42.45053" lon="1.15119">
        <ele>761.4</ele>
        <time>2022-05-22 17:17:32</time>
      </trkpt>
      <trkpt lat="42.45052" lon="1.15125">
        <ele>761.6</ele>
        <time>2022-05-22 17:17:33</time>
      </trkpt>
      <trkpt lat="42.45052" lon="1.15132">
        <ele>761.8</ele>
        <time>2022-05-22 17:17:34</time>
      </trkpt>
      <trkpt lat="42.45052" lon="1.15138">
        <ele>761.8</ele>
        <time>2022-05-22 17:17:35</time>
      </trkpt>
      <trkpt lat="42.45052" lon="1.15145">
        <ele>762.2</ele>
        <time>2022-05-22 17:17:36</time>
      </trkpt>
      <trkpt lat="42.45052" lon="1.1515">
        <ele>762.2</ele>
        <time>2022-05-22 17:17:37</time>
      </trkpt>
      <trkpt lat="42.45052" lon="1.15156">
        <ele>762.4</ele>
        <time>2022-05-22 17:17:38</time>
      </trkpt>
      <trkpt lat="42.45053" lon="1.15161">
        <ele>762.6</ele>
        <time>2022-05-22 17:17:39</time>
      </trkpt>
      <trkpt lat="42.45054" lon="1.15169">
        <ele>762.8</ele>
        <time>2022-05-22 17:17:40</time>
      </trkpt>
      <trkpt lat="42.45054" lon="1.15173">
        <ele>762.8</ele>
        <time>2022-05-22 17:17:41</time>
      </trkpt>
      <trkpt lat="42.45056" lon="1.15181">
        <ele>763</ele>
        <time>2022-05-22 17:17:42</time>
      </trkpt>
      <trkpt lat="42.45057" lon="1.15186">
        <ele>763</ele>
        <time>2022-05-22 17:17:43</time>
      </trkpt>
      <trkpt lat="42.45058" lon="1.15189">
        <ele>763.2</ele>
        <time>2022-05-22 17:17:44</time>
      </trkpt>
      <trkpt lat="42.45061" lon="1.15197">
        <ele>763.4</ele>
        <time>2022-05-22 17:17:45</time>
      </trkpt>
      <trkpt lat="42.45063" lon="1.15201">
        <ele>763.6</ele>
        <time>2022-05-22 17:17:46</time>
      </trkpt>
      <trkpt lat="42.45066" lon="1.15206">
        <ele>763.6</ele>
        <time>2022-05-22 17:17:47</time>
      </trkpt>
      <trkpt lat="42.45068" lon="1.15211">
        <ele>763.8</ele>
        <time>2022-05-22 17:17:48</time>
      </trkpt>
      <trkpt lat="42.45071" lon="1.15216">
        <ele>764</ele>
        <time>2022-05-22 17:17:49</time>
      </trkpt>
      <trkpt lat="42.45074" lon="1.15221">
        <ele>764</ele>
        <time>2022-05-22 17:17:50</time>
      </trkpt>
      <trkpt lat="42.45077" lon="1.15225">
        <ele>764.2</ele>
        <time>2022-05-22 17:17:51</time>
      </trkpt>
      <trkpt lat="42.45079" lon="1.15228">
        <ele>764.2</ele>
        <time>2022-05-22 17:17:52</time>
      </trkpt>
      <trkpt lat="42.45084" lon="1.15233">
        <ele>764.4</ele>
        <time>2022-05-22 17:17:53</time>
      </trkpt>
      <trkpt lat="42.45087" lon="1.15237">
        <ele>764.4</ele>
        <time>2022-05-22 17:17:54</time>
      </trkpt>
      <trkpt lat="42.45091" lon="1.15241">
        <ele>764.4</ele>
        <time>2022-05-22 17:17:55</time>
      </trkpt>
      <trkpt lat="42.45094" lon="1.15244">
        <ele>764.6</ele>
        <time>2022-05-22 17:17:56</time>
      </trkpt>
      <trkpt lat="42.45098" lon="1.15248">
        <ele>764.6</ele>
        <time>2022-05-22 17:17:57</time>
      </trkpt>
      <trkpt lat="42.45102" lon="1.15252">
        <ele>764.6</ele>
        <time>2022-05-22 17:17:58</time>
      </trkpt>
      <trkpt lat="42.45106" lon="1.15255">
        <ele>764.8</ele>
        <time>2022-05-22 17:17:59</time>
      </trkpt>
      <trkpt lat="42.4511" lon="1.15258">
        <ele>764.8</ele>
        <time>2022-05-22 17:18:00</time>
      </trkpt>
      <trkpt lat="42.45114" lon="1.15262">
        <ele>765</ele>
        <time>2022-05-22 17:18:01</time>
      </trkpt>
      <trkpt lat="42.45118" lon="1.15265">
        <ele>765</ele>
        <time>2022-05-22 17:18:02</time>
      </trkpt>
      <trkpt lat="42.45122" lon="1.15268">
        <ele>765.2</ele>
        <time>2022-05-22 17:18:03</time>
      </trkpt>
      <trkpt lat="42.45126" lon="1.15272">
        <ele>765.2</ele>
        <time>2022-05-22 17:18:04</time>
      </trkpt>
      <trkpt lat="42.4513" lon="1.15276">
        <ele>765.4</ele>
        <time>2022-05-22 17:18:05</time>
      </trkpt>
      <trkpt lat="42.45134" lon="1.1528">
        <ele>765.6</ele>
        <time>2022-05-22 17:18:06</time>
      </trkpt>
      <trkpt lat="42.45138" lon="1.15285">
        <ele>765.6</ele>
        <time>2022-05-22 17:18:07</time>
      </trkpt>
      <trkpt lat="42.45141" lon="1.15288">
        <ele>765.8</ele>
        <time>2022-05-22 17:18:08</time>
      </trkpt>
      <trkpt lat="42.45146" lon="1.15295">
        <ele>765.8</ele>
        <time>2022-05-22 17:18:09</time>
      </trkpt>
      <trkpt lat="42.4515" lon="1.153">
        <ele>766</ele>
        <time>2022-05-22 17:18:10</time>
      </trkpt>
      <trkpt lat="42.45154" lon="1.15306">
        <ele>766</ele>
        <time>2022-05-22 17:18:11</time>
      </trkpt>
      <trkpt lat="42.45157" lon="1.15311">
        <ele>766</ele>
        <time>2022-05-22 17:18:12</time>
      </trkpt>
      <trkpt lat="42.45162" lon="1.15319">
        <ele>766.2</ele>
        <time>2022-05-22 17:18:13</time>
      </trkpt>
      <trkpt lat="42.45165" lon="1.15324">
        <ele>766.2</ele>
        <time>2022-05-22 17:18:14</time>
      </trkpt>
      <trkpt lat="42.45169" lon="1.15333">
        <ele>766.4</ele>
        <time>2022-05-22 17:18:15</time>
      </trkpt>
      <trkpt lat="42.45172" lon="1.1534">
        <ele>766.4</ele>
        <time>2022-05-22 17:18:16</time>
      </trkpt>
      <trkpt lat="42.45174" lon="1.15347">
        <ele>766.4</ele>
        <time>2022-05-22 17:18:17</time>
      </trkpt>
      <trkpt lat="42.45176" lon="1.15355">
        <ele>766.4</ele>
        <time>2022-05-22 17:18:18</time>
      </trkpt>
      <trkpt lat="42.45178" lon="1.15362">
        <ele>766.6</ele>
        <time>2022-05-22 17:18:19</time>
      </trkpt>
      <trkpt lat="42.4518" lon="1.1537">
        <ele>766.6</ele>
        <time>2022-05-22 17:18:20</time>
      </trkpt>
      <trkpt lat="42.45181" lon="1.15378">
        <ele>766.8</ele>
        <time>2022-05-22 17:18:21</time>
      </trkpt>
      <trkpt lat="42.45182" lon="1.15386">
        <ele>766.8</ele>
        <time>2022-05-22 17:18:22</time>
      </trkpt>
      <trkpt lat="42.45183" lon="1.15394">
        <ele>767</ele>
        <time>2022-05-22 17:18:23</time>
      </trkpt>
      <trkpt lat="42.45184" lon="1.15402">
        <ele>767</ele>
        <time>2022-05-22 17:18:24</time>
      </trkpt>
      <trkpt lat="42.45184" lon="1.1541">
        <ele>767.2</ele>
        <time>2022-05-22 17:18:25</time>
      </trkpt>
      <trkpt lat="42.45185" lon="1.15417">
        <ele>767.4</ele>
        <time>2022-05-22 17:18:26</time>
      </trkpt>
      <trkpt lat="42.45185" lon="1.15424">
        <ele>767.4</ele>
        <time>2022-05-22 17:18:27</time>
      </trkpt>
      <trkpt lat="42.45186" lon="1.15431">
        <ele>767.6</ele>
        <time>2022-05-22 17:18:28</time>
      </trkpt>
      <trkpt lat="42.45187" lon="1.15438">
        <ele>767.8</ele>
        <time>2022-05-22 17:18:29</time>
      </trkpt>
      <trkpt lat="42.45187" lon="1.15445">
        <ele>768</ele>
        <time>2022-05-22 17:18:30</time>
      </trkpt>
      <trkpt lat="42.45187" lon="1.15452">
        <ele>768</ele>
        <time>2022-05-22 17:18:31</time>
      </trkpt>
      <trkpt lat="42.45187" lon="1.15459">
        <ele>768.2</ele>
        <time>2022-05-22 17:18:32</time>
      </trkpt>
      <trkpt lat="42.45188" lon="1.15466">
        <ele>768.2</ele>
        <time>2022-05-22 17:18:33</time>
      </trkpt>
      <trkpt lat="42.45188" lon="1.15473">
        <ele>768.2</ele>
        <time>2022-05-22 17:18:34</time>
      </trkpt>
      <trkpt lat="42.45189" lon="1.1548">
        <ele>768.2</ele>
        <time>2022-05-22 17:18:35</time>
      </trkpt>
      <trkpt lat="42.45189" lon="1.15487">
        <ele>768.4</ele>
        <time>2022-05-22 17:18:36</time>
      </trkpt>
      <trkpt lat="42.45189" lon="1.15495">
        <ele>768.4</ele>
        <time>2022-05-22 17:18:37</time>
      </trkpt>
      <trkpt lat="42.45189" lon="1.15503">
        <ele>768.4</ele>
        <time>2022-05-22 17:18:38</time>
      </trkpt>
      <trkpt lat="42.45189" lon="1.1551">
        <ele>768.6</ele>
        <time>2022-05-22 17:18:39</time>
      </trkpt>
      <trkpt lat="42.45189" lon="1.15517">
        <ele>768.6</ele>
        <time>2022-05-22 17:18:40</time>
      </trkpt>
      <trkpt lat="42.45189" lon="1.15524">
        <ele>768.8</ele>
        <time>2022-05-22 17:18:41</time>
      </trkpt>
      <trkpt lat="42.4519" lon="1.1553">
        <ele>769</ele>
        <time>2022-05-22 17:18:42</time>
      </trkpt>
      <trkpt lat="42.45191" lon="1.15537">
        <ele>769</ele>
        <time>2022-05-22 17:18:43</time>
      </trkpt>
      <trkpt lat="42.45192" lon="1.15544">
        <ele>769.2</ele>
        <time>2022-05-22 17:18:44</time>
      </trkpt>
      <trkpt lat="42.45193" lon="1.15551">
        <ele>769.2</ele>
        <time>2022-05-22 17:18:45</time>
      </trkpt>
      <trkpt lat="42.45194" lon="1.15557">
        <ele>769.4</ele>
        <time>2022-05-22 17:18:46</time>
      </trkpt>
      <trkpt lat="42.45195" lon="1.15564">
        <ele>769.4</ele>
        <time>2022-05-22 17:18:47</time>
      </trkpt>
      <trkpt lat="42.45196" lon="1.1557">
        <ele>769.6</ele>
        <time>2022-05-22 17:18:48</time>
      </trkpt>
      <trkpt lat="42.45197" lon="1.15576">
        <ele>769.8</ele>
        <time>2022-05-22 17:18:49</time>
      </trkpt>
      <trkpt lat="42.45199" lon="1.15582">
        <ele>769.8</ele>
        <time>2022-05-22 17:18:50</time>
      </trkpt>
      <trkpt lat="42.452" lon="1.15588">
        <ele>769.8</ele>
        <time>2022-05-22 17:18:51</time>
      </trkpt>
      <trkpt lat="42.45202" lon="1.15594">
        <ele>770</ele>
        <time>2022-05-22 17:18:52</time>
      </trkpt>
      <trkpt lat="42.45204" lon="1.156">
        <ele>770</ele>
        <time>2022-05-22 17:18:53</time>
      </trkpt>
      <trkpt lat="42.45206" lon="1.15607">
        <ele>770</ele>
        <time>2022-05-22 17:18:54</time>
      </trkpt>
      <trkpt lat="42.45208" lon="1.15613">
        <ele>770</ele>
        <time>2022-05-22 17:18:55</time>
      </trkpt>
      <trkpt lat="42.4521" lon="1.15619">
        <ele>770.2</ele>
        <time>2022-05-22 17:18:56</time>
      </trkpt>
      <trkpt lat="42.45212" lon="1.15625">
        <ele>770.2</ele>
        <time>2022-05-22 17:18:57</time>
      </trkpt>
      <trkpt lat="42.45214" lon="1.15631">
        <ele>770.4</ele>
        <time>2022-05-22 17:18:58</time>
      </trkpt>
      <trkpt lat="42.45216" lon="1.15636">
        <ele>770.4</ele>
        <time>2022-05-22 17:18:59</time>
      </trkpt>
      <trkpt lat="42.45219" lon="1.15642">
        <ele>770.4</ele>
        <time>2022-05-22 17:19:00</time>
      </trkpt>
      <trkpt lat="42.45222" lon="1.15648">
        <ele>770.6</ele>
        <time>2022-05-22 17:19:01</time>
      </trkpt>
      <trkpt lat="42.45226" lon="1.15654">
        <ele>770.6</ele>
        <time>2022-05-22 17:19:02</time>
      </trkpt>
      <trkpt lat="42.45229" lon="1.1566">
        <ele>770.6</ele>
        <time>2022-05-22 17:19:03</time>
      </trkpt>
      <trkpt lat="42.45232" lon="1.15665">
        <ele>770.6</ele>
        <time>2022-05-22 17:19:04</time>
      </trkpt>
      <trkpt lat="42.45235" lon="1.15671">
        <ele>770.6</ele>
        <time>2022-05-22 17:19:05</time>
      </trkpt>
      <trkpt lat="42.45239" lon="1.15677">
        <ele>770.6</ele>
        <time>2022-05-22 17:19:06</time>
      </trkpt>
      <trkpt lat="42.45242" lon="1.15683">
        <ele>770.6</ele>
        <time>2022-05-22 17:19:07</time>
      </trkpt>
      <trkpt lat="42.45246" lon="1.15689">
        <ele>770.6</ele>
        <time>2022-05-22 17:19:08</time>
      </trkpt>
      <trkpt lat="42.45249" lon="1.15695">
        <ele>770.6</ele>
        <time>2022-05-22 17:19:09</time>
      </trkpt>
      <trkpt lat="42.45253" lon="1.15701">
        <ele>770.6</ele>
        <time>2022-05-22 17:19:10</time>
      </trkpt>
      <trkpt lat="42.45257" lon="1.15707">
        <ele>770.6</ele>
        <time>2022-05-22 17:19:11</time>
      </trkpt>
      <trkpt lat="42.45261" lon="1.15714">
        <ele>770.6</ele>
        <time>2022-05-22 17:19:12</time>
      </trkpt>
      <trkpt lat="42.45265" lon="1.1572">
        <ele>770.4</ele>
        <time>2022-05-22 17:19:13</time>
      </trkpt>
      <trkpt lat="42.45269" lon="1.15726">
        <ele>770.4</ele>
        <time>2022-05-22 17:19:14</time>
      </trkpt>
      <trkpt lat="42.45273" lon="1.15733">
        <ele>770.4</ele>
        <time>2022-05-22 17:19:15</time>
      </trkpt>
      <trkpt lat="42.45278" lon="1.15739">
        <ele>770.4</ele>
        <time>2022-05-22 17:19:16</time>
      </trkpt>
      <trkpt lat="42.45283" lon="1.15745">
        <ele>770.2</ele>
        <time>2022-05-22 17:19:17</time>
      </trkpt>
      <trkpt lat="42.45288" lon="1.15751">
        <ele>770</ele>
        <time>2022-05-22 17:19:18</time>
      </trkpt>
      <trkpt lat="42.45292" lon="1.15757">
        <ele>770</ele>
        <time>2022-05-22 17:19:19</time>
      </trkpt>
      <trkpt lat="42.45297" lon="1.15762">
        <ele>769.8</ele>
        <time>2022-05-22 17:19:20</time>
      </trkpt>
      <trkpt lat="42.45303" lon="1.15769">
        <ele>769.8</ele>
        <time>2022-05-22 17:19:21</time>
      </trkpt>
      <trkpt lat="42.45308" lon="1.15775">
        <ele>769.8</ele>
        <time>2022-05-22 17:19:22</time>
      </trkpt>
      <trkpt lat="42.45313" lon="1.15781">
        <ele>769.8</ele>
        <time>2022-05-22 17:19:23</time>
      </trkpt>
      <trkpt lat="42.45319" lon="1.15787">
        <ele>769.8</ele>
        <time>2022-05-22 17:19:24</time>
      </trkpt>
      <trkpt lat="42.45324" lon="1.15792">
        <ele>769.6</ele>
        <time>2022-05-22 17:19:25</time>
      </trkpt>
      <trkpt lat="42.45329" lon="1.15798">
        <ele>769.8</ele>
        <time>2022-05-22 17:19:26</time>
      </trkpt>
      <trkpt lat="42.45334" lon="1.15803">
        <ele>769.8</ele>
        <time>2022-05-22 17:19:27</time>
      </trkpt>
      <trkpt lat="42.4534" lon="1.15809">
        <ele>769.8</ele>
        <time>2022-05-22 17:19:28</time>
      </trkpt>
      <trkpt lat="42.45345" lon="1.15814">
        <ele>769.8</ele>
        <time>2022-05-22 17:19:29</time>
      </trkpt>
      <trkpt lat="42.4535" lon="1.1582">
        <ele>769.8</ele>
        <time>2022-05-22 17:19:30</time>
      </trkpt>
      <trkpt lat="42.45356" lon="1.15825">
        <ele>770</ele>
        <time>2022-05-22 17:19:31</time>
      </trkpt>
      <trkpt lat="42.45361" lon="1.15831">
        <ele>770</ele>
        <time>2022-05-22 17:19:32</time>
      </trkpt>
      <trkpt lat="42.45366" lon="1.15837">
        <ele>770</ele>
        <time>2022-05-22 17:19:33</time>
      </trkpt>
      <trkpt lat="42.45372" lon="1.15843">
        <ele>770</ele>
        <time>2022-05-22 17:19:34</time>
      </trkpt>
      <trkpt lat="42.45377" lon="1.15848">
        <ele>770.2</ele>
        <time>2022-05-22 17:19:35</time>
      </trkpt>
      <trkpt lat="42.45382" lon="1.15854">
        <ele>770.2</ele>
        <time>2022-05-22 17:19:36</time>
      </trkpt>
      <trkpt lat="42.45388" lon="1.1586">
        <ele>770.2</ele>
        <time>2022-05-22 17:19:37</time>
      </trkpt>
      <trkpt lat="42.45393" lon="1.15866">
        <ele>770.2</ele>
        <time>2022-05-22 17:19:38</time>
      </trkpt>
      <trkpt lat="42.45398" lon="1.15872">
        <ele>770.2</ele>
        <time>2022-05-22 17:19:39</time>
      </trkpt>
      <trkpt lat="42.45403" lon="1.15878">
        <ele>770.4</ele>
        <time>2022-05-22 17:19:40</time>
      </trkpt>
      <trkpt lat="42.45409" lon="1.15884">
        <ele>770.2</ele>
        <time>2022-05-22 17:19:41</time>
      </trkpt>
      <trkpt lat="42.45414" lon="1.15891">
        <ele>770.2</ele>
        <time>2022-05-22 17:19:42</time>
      </trkpt>
      <trkpt lat="42.45419" lon="1.15897">
        <ele>770.4</ele>
        <time>2022-05-22 17:19:43</time>
      </trkpt>
      <trkpt lat="42.45425" lon="1.15904">
        <ele>770.4</ele>
        <time>2022-05-22 17:19:44</time>
      </trkpt>
      <trkpt lat="42.4543" lon="1.15911">
        <ele>770.4</ele>
        <time>2022-05-22 17:19:45</time>
      </trkpt>
      <trkpt lat="42.45434" lon="1.15918">
        <ele>770.4</ele>
        <time>2022-05-22 17:19:46</time>
      </trkpt>
      <trkpt lat="42.45439" lon="1.15926">
        <ele>770.4</ele>
        <time>2022-05-22 17:19:47</time>
      </trkpt>
      <trkpt lat="42.45444" lon="1.15934">
        <ele>770.6</ele>
        <time>2022-05-22 17:19:48</time>
      </trkpt>
      <trkpt lat="42.45448" lon="1.15942">
        <ele>770.6</ele>
        <time>2022-05-22 17:19:49</time>
      </trkpt>
      <trkpt lat="42.45452" lon="1.1595">
        <ele>770.6</ele>
        <time>2022-05-22 17:19:50</time>
      </trkpt>
      <trkpt lat="42.45456" lon="1.15959">
        <ele>770.6</ele>
        <time>2022-05-22 17:19:51</time>
      </trkpt>
      <trkpt lat="42.4546" lon="1.15968">
        <ele>770.6</ele>
        <time>2022-05-22 17:19:52</time>
      </trkpt>
      <trkpt lat="42.45463" lon="1.15977">
        <ele>770.4</ele>
        <time>2022-05-22 17:19:53</time>
      </trkpt>
      <trkpt lat="42.45466" lon="1.15987">
        <ele>770.4</ele>
        <time>2022-05-22 17:19:54</time>
      </trkpt>
      <trkpt lat="42.45469" lon="1.15996">
        <ele>770.2</ele>
        <time>2022-05-22 17:19:55</time>
      </trkpt>
      <trkpt lat="42.45472" lon="1.16006">
        <ele>770.2</ele>
        <time>2022-05-22 17:19:56</time>
      </trkpt>
      <trkpt lat="42.45474" lon="1.16016">
        <ele>770.2</ele>
        <time>2022-05-22 17:19:57</time>
      </trkpt>
      <trkpt lat="42.45477" lon="1.16026">
        <ele>770.2</ele>
        <time>2022-05-22 17:19:58</time>
      </trkpt>
      <trkpt lat="42.45479" lon="1.16036">
        <ele>770</ele>
        <time>2022-05-22 17:19:59</time>
      </trkpt>
      <trkpt lat="42.45482" lon="1.16047">
        <ele>769.8</ele>
        <time>2022-05-22 17:20:00</time>
      </trkpt>
      <trkpt lat="42.45484" lon="1.16057">
        <ele>769.8</ele>
        <time>2022-05-22 17:20:01</time>
      </trkpt>
      <trkpt lat="42.45486" lon="1.16068">
        <ele>769.6</ele>
        <time>2022-05-22 17:20:02</time>
      </trkpt>
      <trkpt lat="42.45489" lon="1.16079">
        <ele>769.6</ele>
        <time>2022-05-22 17:20:03</time>
      </trkpt>
      <trkpt lat="42.45491" lon="1.16089">
        <ele>769.4</ele>
        <time>2022-05-22 17:20:04</time>
      </trkpt>
      <trkpt lat="42.45494" lon="1.161">
        <ele>769.2</ele>
        <time>2022-05-22 17:20:05</time>
      </trkpt>
      <trkpt lat="42.45496" lon="1.16111">
        <ele>769.2</ele>
        <time>2022-05-22 17:20:06</time>
      </trkpt>
      <trkpt lat="42.45499" lon="1.16121">
        <ele>769.2</ele>
        <time>2022-05-22 17:20:07</time>
      </trkpt>
      <trkpt lat="42.45502" lon="1.16132">
        <ele>769.2</ele>
        <time>2022-05-22 17:20:08</time>
      </trkpt>
      <trkpt lat="42.45505" lon="1.16142">
        <ele>769</ele>
        <time>2022-05-22 17:20:09</time>
      </trkpt>
      <trkpt lat="42.45509" lon="1.16151">
        <ele>769</ele>
        <time>2022-05-22 17:20:10</time>
      </trkpt>
      <trkpt lat="42.45513" lon="1.16161">
        <ele>769</ele>
        <time>2022-05-22 17:20:11</time>
      </trkpt>
      <trkpt lat="42.45517" lon="1.1617">
        <ele>769</ele>
        <time>2022-05-22 17:20:12</time>
      </trkpt>
      <trkpt lat="42.45521" lon="1.1618">
        <ele>768.8</ele>
        <time>2022-05-22 17:20:13</time>
      </trkpt>
      <trkpt lat="42.45526" lon="1.16189">
        <ele>768.8</ele>
        <time>2022-05-22 17:20:14</time>
      </trkpt>
      <trkpt lat="42.4553" lon="1.16197">
        <ele>768.6</ele>
        <time>2022-05-22 17:20:15</time>
      </trkpt>
      <trkpt lat="42.45534" lon="1.16206">
        <ele>768.4</ele>
        <time>2022-05-22 17:20:16</time>
      </trkpt>
      <trkpt lat="42.45538" lon="1.16215">
        <ele>768.4</ele>
        <time>2022-05-22 17:20:17</time>
      </trkpt>
      <trkpt lat="42.45542" lon="1.16225">
        <ele>768.2</ele>
        <time>2022-05-22 17:20:18</time>
      </trkpt>
      <trkpt lat="42.45546" lon="1.16235">
        <ele>768.2</ele>
        <time>2022-05-22 17:20:19</time>
      </trkpt>
      <trkpt lat="42.45549" lon="1.16245">
        <ele>768</ele>
        <time>2022-05-22 17:20:20</time>
      </trkpt>
      <trkpt lat="42.45551" lon="1.16255">
        <ele>768</ele>
        <time>2022-05-22 17:20:21</time>
      </trkpt>
      <trkpt lat="42.45554" lon="1.16265">
        <ele>767.8</ele>
        <time>2022-05-22 17:20:22</time>
      </trkpt>
      <trkpt lat="42.45556" lon="1.16275">
        <ele>767.8</ele>
        <time>2022-05-22 17:20:23</time>
      </trkpt>
      <trkpt lat="42.45558" lon="1.16285">
        <ele>767.8</ele>
        <time>2022-05-22 17:20:24</time>
      </trkpt>
      <trkpt lat="42.4556" lon="1.16295">
        <ele>767.6</ele>
        <time>2022-05-22 17:20:25</time>
      </trkpt>
      <trkpt lat="42.45561" lon="1.16305">
        <ele>767.6</ele>
        <time>2022-05-22 17:20:26</time>
      </trkpt>
      <trkpt lat="42.45562" lon="1.16315">
        <ele>767.8</ele>
        <time>2022-05-22 17:20:27</time>
      </trkpt>
      <trkpt lat="42.45563" lon="1.16324">
        <ele>767.8</ele>
        <time>2022-05-22 17:20:28</time>
      </trkpt>
      <trkpt lat="42.45563" lon="1.16334">
        <ele>767.8</ele>
        <time>2022-05-22 17:20:29</time>
      </trkpt>
      <trkpt lat="42.45564" lon="1.16344">
        <ele>768</ele>
        <time>2022-05-22 17:20:30</time>
      </trkpt>
      <trkpt lat="42.45564" lon="1.16353">
        <ele>768</ele>
        <time>2022-05-22 17:20:31</time>
      </trkpt>
      <trkpt lat="42.45565" lon="1.16362">
        <ele>768</ele>
        <time>2022-05-22 17:20:32</time>
      </trkpt>
      <trkpt lat="42.45565" lon="1.16372">
        <ele>768</ele>
        <time>2022-05-22 17:20:33</time>
      </trkpt>
      <trkpt lat="42.45566" lon="1.16381">
        <ele>768</ele>
        <time>2022-05-22 17:20:34</time>
      </trkpt>
      <trkpt lat="42.45566" lon="1.1639">
        <ele>768.2</ele>
        <time>2022-05-22 17:20:35</time>
      </trkpt>
      <trkpt lat="42.45567" lon="1.164">
        <ele>768.2</ele>
        <time>2022-05-22 17:20:36</time>
      </trkpt>
      <trkpt lat="42.45567" lon="1.16409">
        <ele>768.4</ele>
        <time>2022-05-22 17:20:37</time>
      </trkpt>
      <trkpt lat="42.45568" lon="1.16418">
        <ele>768.4</ele>
        <time>2022-05-22 17:20:38</time>
      </trkpt>
      <trkpt lat="42.45568" lon="1.16428">
        <ele>768.6</ele>
        <time>2022-05-22 17:20:39</time>
      </trkpt>
      <trkpt lat="42.45569" lon="1.16437">
        <ele>768.8</ele>
        <time>2022-05-22 17:20:40</time>
      </trkpt>
      <trkpt lat="42.4557" lon="1.16446">
        <ele>768.8</ele>
        <time>2022-05-22 17:20:41</time>
      </trkpt>
      <trkpt lat="42.45571" lon="1.16455">
        <ele>769</ele>
        <time>2022-05-22 17:20:42</time>
      </trkpt>
      <trkpt lat="42.45572" lon="1.16464">
        <ele>769</ele>
        <time>2022-05-22 17:20:43</time>
      </trkpt>
      <trkpt lat="42.45573" lon="1.16473">
        <ele>769</ele>
        <time>2022-05-22 17:20:44</time>
      </trkpt>
      <trkpt lat="42.45573" lon="1.16482">
        <ele>769.2</ele>
        <time>2022-05-22 17:20:45</time>
      </trkpt>
      <trkpt lat="42.45574" lon="1.1649">
        <ele>769.2</ele>
        <time>2022-05-22 17:20:46</time>
      </trkpt>
      <trkpt lat="42.45574" lon="1.16499">
        <ele>769.2</ele>
        <time>2022-05-22 17:20:47</time>
      </trkpt>
      <trkpt lat="42.45575" lon="1.16508">
        <ele>769.4</ele>
        <time>2022-05-22 17:20:48</time>
      </trkpt>
      <trkpt lat="42.45576" lon="1.16516">
        <ele>769.4</ele>
        <time>2022-05-22 17:20:49</time>
      </trkpt>
      <trkpt lat="42.45577" lon="1.16524">
        <ele>769.4</ele>
        <time>2022-05-22 17:20:50</time>
      </trkpt>
      <trkpt lat="42.45578" lon="1.16533">
        <ele>769.6</ele>
        <time>2022-05-22 17:20:51</time>
      </trkpt>
      <trkpt lat="42.45579" lon="1.16541">
        <ele>769.8</ele>
        <time>2022-05-22 17:20:52</time>
      </trkpt>
      <trkpt lat="42.4558" lon="1.16549">
        <ele>769.8</ele>
        <time>2022-05-22 17:20:53</time>
      </trkpt>
      <trkpt lat="42.45581" lon="1.16557">
        <ele>770</ele>
        <time>2022-05-22 17:20:54</time>
      </trkpt>
      <trkpt lat="42.45582" lon="1.16565">
        <ele>770.2</ele>
        <time>2022-05-22 17:20:55</time>
      </trkpt>
      <trkpt lat="42.45583" lon="1.16573">
        <ele>770.4</ele>
        <time>2022-05-22 17:20:56</time>
      </trkpt>
      <trkpt lat="42.45585" lon="1.1658">
        <ele>770.6</ele>
        <time>2022-05-22 17:20:57</time>
      </trkpt>
      <trkpt lat="42.45586" lon="1.16588">
        <ele>770.6</ele>
        <time>2022-05-22 17:20:58</time>
      </trkpt>
      <trkpt lat="42.45588" lon="1.16595">
        <ele>770.8</ele>
        <time>2022-05-22 17:20:59</time>
      </trkpt>
      <trkpt lat="42.45589" lon="1.16602">
        <ele>771</ele>
        <time>2022-05-22 17:21:00</time>
      </trkpt>
      <trkpt lat="42.4559" lon="1.16609">
        <ele>771.2</ele>
        <time>2022-05-22 17:21:01</time>
      </trkpt>
      <trkpt lat="42.45592" lon="1.16615">
        <ele>771.4</ele>
        <time>2022-05-22 17:21:02</time>
      </trkpt>
      <trkpt lat="42.45593" lon="1.16622">
        <ele>771.6</ele>
        <time>2022-05-22 17:21:03</time>
      </trkpt>
      <trkpt lat="42.45595" lon="1.16628">
        <ele>771.8</ele>
        <time>2022-05-22 17:21:04</time>
      </trkpt>
      <trkpt lat="42.45596" lon="1.16634">
        <ele>772</ele>
        <time>2022-05-22 17:21:05</time>
      </trkpt>
      <trkpt lat="42.45598" lon="1.16639">
        <ele>772.2</ele>
        <time>2022-05-22 17:21:06</time>
      </trkpt>
      <trkpt lat="42.45599" lon="1.16645">
        <ele>772.4</ele>
        <time>2022-05-22 17:21:07</time>
      </trkpt>
      <trkpt lat="42.45602" lon="1.16651">
        <ele>772.6</ele>
        <time>2022-05-22 17:21:08</time>
      </trkpt>
      <trkpt lat="42.45604" lon="1.16657">
        <ele>772.6</ele>
        <time>2022-05-22 17:21:09</time>
      </trkpt>
      <trkpt lat="42.45606" lon="1.16662">
        <ele>772.8</ele>
        <time>2022-05-22 17:21:10</time>
      </trkpt>
      <trkpt lat="42.45607" lon="1.16668">
        <ele>773</ele>
        <time>2022-05-22 17:21:11</time>
      </trkpt>
      <trkpt lat="42.45609" lon="1.16673">
        <ele>773.2</ele>
        <time>2022-05-22 17:21:12</time>
      </trkpt>
      <trkpt lat="42.45611" lon="1.16678">
        <ele>773.4</ele>
        <time>2022-05-22 17:21:13</time>
      </trkpt>
      <trkpt lat="42.45613" lon="1.16684">
        <ele>773.6</ele>
        <time>2022-05-22 17:21:14</time>
      </trkpt>
      <trkpt lat="42.45615" lon="1.16689">
        <ele>773.6</ele>
        <time>2022-05-22 17:21:15</time>
      </trkpt>
      <trkpt lat="42.45617" lon="1.16694">
        <ele>773.8</ele>
        <time>2022-05-22 17:21:16</time>
      </trkpt>
      <trkpt lat="42.45619" lon="1.167">
        <ele>774</ele>
        <time>2022-05-22 17:21:17</time>
      </trkpt>
      <trkpt lat="42.45621" lon="1.16705">
        <ele>774.2</ele>
        <time>2022-05-22 17:21:18</time>
      </trkpt>
      <trkpt lat="42.45624" lon="1.1671">
        <ele>774.4</ele>
        <time>2022-05-22 17:21:19</time>
      </trkpt>
      <trkpt lat="42.45627" lon="1.16715">
        <ele>774.6</ele>
        <time>2022-05-22 17:21:20</time>
      </trkpt>
      <trkpt lat="42.45629" lon="1.1672">
        <ele>774.8</ele>
        <time>2022-05-22 17:21:21</time>
      </trkpt>
      <trkpt lat="42.45631" lon="1.16725">
        <ele>775</ele>
        <time>2022-05-22 17:21:22</time>
      </trkpt>
      <trkpt lat="42.45634" lon="1.1673">
        <ele>775.2</ele>
        <time>2022-05-22 17:21:23</time>
      </trkpt>
      <trkpt lat="42.45636" lon="1.16734">
        <ele>775.4</ele>
        <time>2022-05-22 17:21:24</time>
      </trkpt>
      <trkpt lat="42.45639" lon="1.16739">
        <ele>775.6</ele>
        <time>2022-05-22 17:21:25</time>
      </trkpt>
      <trkpt lat="42.45642" lon="1.16743">
        <ele>775.8</ele>
        <time>2022-05-22 17:21:26</time>
      </trkpt>
      <trkpt lat="42.45645" lon="1.16748">
        <ele>776</ele>
        <time>2022-05-22 17:21:27</time>
      </trkpt>
      <trkpt lat="42.45648" lon="1.16752">
        <ele>776</ele>
        <time>2022-05-22 17:21:28</time>
      </trkpt>
      <trkpt lat="42.45651" lon="1.16756">
        <ele>776.2</ele>
        <time>2022-05-22 17:21:29</time>
      </trkpt>
      <trkpt lat="42.45654" lon="1.1676">
        <ele>776.4</ele>
        <time>2022-05-22 17:21:30</time>
      </trkpt>
      <trkpt lat="42.45657" lon="1.16763">
        <ele>776.6</ele>
        <time>2022-05-22 17:21:31</time>
      </trkpt>
      <trkpt lat="42.45661" lon="1.16767">
        <ele>776.8</ele>
        <time>2022-05-22 17:21:32</time>
      </trkpt>
      <trkpt lat="42.45664" lon="1.16771">
        <ele>776.8</ele>
        <time>2022-05-22 17:21:33</time>
      </trkpt>
      <trkpt lat="42.45667" lon="1.16774">
        <ele>777</ele>
        <time>2022-05-22 17:21:34</time>
      </trkpt>
      <trkpt lat="42.45671" lon="1.16778">
        <ele>777.2</ele>
        <time>2022-05-22 17:21:35</time>
      </trkpt>
      <trkpt lat="42.45675" lon="1.16781">
        <ele>777.2</ele>
        <time>2022-05-22 17:21:36</time>
      </trkpt>
      <trkpt lat="42.45679" lon="1.16784">
        <ele>777.4</ele>
        <time>2022-05-22 17:21:37</time>
      </trkpt>
      <trkpt lat="42.45682" lon="1.16787">
        <ele>777.4</ele>
        <time>2022-05-22 17:21:38</time>
      </trkpt>
      <trkpt lat="42.45686" lon="1.1679">
        <ele>777.6</ele>
        <time>2022-05-22 17:21:39</time>
      </trkpt>
      <trkpt lat="42.4569" lon="1.16793">
        <ele>777.8</ele>
        <time>2022-05-22 17:21:40</time>
      </trkpt>
      <trkpt lat="42.45694" lon="1.16796">
        <ele>778</ele>
        <time>2022-05-22 17:21:41</time>
      </trkpt>
      <trkpt lat="42.45699" lon="1.16799">
        <ele>778</ele>
        <time>2022-05-22 17:21:42</time>
      </trkpt>
      <trkpt lat="42.45703" lon="1.16802">
        <ele>778.2</ele>
        <time>2022-05-22 17:21:43</time>
      </trkpt>
      <trkpt lat="42.45708" lon="1.16806">
        <ele>778.2</ele>
        <time>2022-05-22 17:21:44</time>
      </trkpt>
      <trkpt lat="42.45712" lon="1.16809">
        <ele>778.2</ele>
        <time>2022-05-22 17:21:45</time>
      </trkpt>
      <trkpt lat="42.45717" lon="1.16813">
        <ele>778.4</ele>
        <time>2022-05-22 17:21:46</time>
      </trkpt>
      <trkpt lat="42.45721" lon="1.16816">
        <ele>778.4</ele>
        <time>2022-05-22 17:21:47</time>
      </trkpt>
      <trkpt lat="42.45726" lon="1.16821">
        <ele>778.4</ele>
        <time>2022-05-22 17:21:48</time>
      </trkpt>
      <trkpt lat="42.45732" lon="1.16825">
        <ele>778.4</ele>
        <time>2022-05-22 17:21:49</time>
      </trkpt>
      <trkpt lat="42.45737" lon="1.1683">
        <ele>778.2</ele>
        <time>2022-05-22 17:21:50</time>
      </trkpt>
      <trkpt lat="42.45742" lon="1.16836">
        <ele>778.2</ele>
        <time>2022-05-22 17:21:51</time>
      </trkpt>
      <trkpt lat="42.45747" lon="1.16842">
        <ele>778.2</ele>
        <time>2022-05-22 17:21:52</time>
      </trkpt>
      <trkpt lat="42.45752" lon="1.16847">
        <ele>778.4</ele>
        <time>2022-05-22 17:21:53</time>
      </trkpt>
      <trkpt lat="42.45758" lon="1.16854">
        <ele>778.2</ele>
        <time>2022-05-22 17:21:54</time>
      </trkpt>
      <trkpt lat="42.45763" lon="1.1686">
        <ele>778.2</ele>
        <time>2022-05-22 17:21:55</time>
      </trkpt>
      <trkpt lat="42.45768" lon="1.16867">
        <ele>778</ele>
        <time>2022-05-22 17:21:56</time>
      </trkpt>
      <trkpt lat="42.45773" lon="1.16873">
        <ele>777.8</ele>
        <time>2022-05-22 17:21:57</time>
      </trkpt>
      <trkpt lat="42.45778" lon="1.16879">
        <ele>777.4</ele>
        <time>2022-05-22 17:21:58</time>
      </trkpt>
      <trkpt lat="42.45784" lon="1.16885">
        <ele>777.2</ele>
        <time>2022-05-22 17:21:59</time>
      </trkpt>
      <trkpt lat="42.4579" lon="1.16891">
        <ele>776.8</ele>
        <time>2022-05-22 17:22:00</time>
      </trkpt>
      <trkpt lat="42.45797" lon="1.16897">
        <ele>776.6</ele>
        <time>2022-05-22 17:22:01</time>
      </trkpt>
      <trkpt lat="42.45803" lon="1.16903">
        <ele>776.2</ele>
        <time>2022-05-22 17:22:02</time>
      </trkpt>
      <trkpt lat="42.4581" lon="1.16908">
        <ele>775.8</ele>
        <time>2022-05-22 17:22:03</time>
      </trkpt>
      <trkpt lat="42.45816" lon="1.16913">
        <ele>775.4</ele>
        <time>2022-05-22 17:22:04</time>
      </trkpt>
      <trkpt lat="42.45823" lon="1.16917">
        <ele>775</ele>
        <time>2022-05-22 17:22:05</time>
      </trkpt>
      <trkpt lat="42.45831" lon="1.16922">
        <ele>774.8</ele>
        <time>2022-05-22 17:22:06</time>
      </trkpt>
      <trkpt lat="42.45837" lon="1.16926">
        <ele>774.4</ele>
        <time>2022-05-22 17:22:07</time>
      </trkpt>
      <trkpt lat="42.45844" lon="1.16931">
        <ele>774.2</ele>
        <time>2022-05-22 17:22:08</time>
      </trkpt>
      <trkpt lat="42.45853" lon="1.16936">
        <ele>773.8</ele>
        <time>2022-05-22 17:22:09</time>
      </trkpt>
      <trkpt lat="42.45862" lon="1.1694">
        <ele>773.6</ele>
        <time>2022-05-22 17:22:10</time>
      </trkpt>
      <trkpt lat="42.4587" lon="1.16946">
        <ele>773.4</ele>
        <time>2022-05-22 17:22:11</time>
      </trkpt>
      <trkpt lat="42.45878" lon="1.16952">
        <ele>773.2</ele>
        <time>2022-05-22 17:22:12</time>
      </trkpt>
      <trkpt lat="42.45885" lon="1.16957">
        <ele>773.2</ele>
        <time>2022-05-22 17:22:13</time>
      </trkpt>
      <trkpt lat="42.45892" lon="1.16965">
        <ele>773</ele>
        <time>2022-05-22 17:22:14</time>
      </trkpt>
      <trkpt lat="42.45898" lon="1.16973">
        <ele>773</ele>
        <time>2022-05-22 17:22:15</time>
      </trkpt>
      <trkpt lat="42.45905" lon="1.16981">
        <ele>773</ele>
        <time>2022-05-22 17:22:16</time>
      </trkpt>
      <trkpt lat="42.45913" lon="1.16988">
        <ele>773.2</ele>
        <time>2022-05-22 17:22:17</time>
      </trkpt>
      <trkpt lat="42.45919" lon="1.16996">
        <ele>773.2</ele>
        <time>2022-05-22 17:22:18</time>
      </trkpt>
      <trkpt lat="42.45926" lon="1.17005">
        <ele>773.2</ele>
        <time>2022-05-22 17:22:19</time>
      </trkpt>
      <trkpt lat="42.45932" lon="1.17013">
        <ele>773.2</ele>
        <time>2022-05-22 17:22:20</time>
      </trkpt>
      <trkpt lat="42.45938" lon="1.17021">
        <ele>773.4</ele>
        <time>2022-05-22 17:22:21</time>
      </trkpt>
      <trkpt lat="42.45944" lon="1.17028">
        <ele>773.4</ele>
        <time>2022-05-22 17:22:22</time>
      </trkpt>
      <trkpt lat="42.45949" lon="1.17036">
        <ele>773.4</ele>
        <time>2022-05-22 17:22:23</time>
      </trkpt>
      <trkpt lat="42.45955" lon="1.17043">
        <ele>773.6</ele>
        <time>2022-05-22 17:22:24</time>
      </trkpt>
      <trkpt lat="42.4596" lon="1.1705">
        <ele>773.8</ele>
        <time>2022-05-22 17:22:25</time>
      </trkpt>
      <trkpt lat="42.45966" lon="1.17058">
        <ele>774</ele>
        <time>2022-05-22 17:22:26</time>
      </trkpt>
      <trkpt lat="42.45971" lon="1.17065">
        <ele>774.2</ele>
        <time>2022-05-22 17:22:27</time>
      </trkpt>
      <trkpt lat="42.45977" lon="1.17072">
        <ele>774.2</ele>
        <time>2022-05-22 17:22:28</time>
      </trkpt>
      <trkpt lat="42.45982" lon="1.17079">
        <ele>774.2</ele>
        <time>2022-05-22 17:22:29</time>
      </trkpt>
      <trkpt lat="42.45987" lon="1.17086">
        <ele>774.2</ele>
        <time>2022-05-22 17:22:30</time>
      </trkpt>
      <trkpt lat="42.45992" lon="1.17093">
        <ele>774.4</ele>
        <time>2022-05-22 17:22:31</time>
      </trkpt>
      <trkpt lat="42.45997" lon="1.171">
        <ele>774.6</ele>
        <time>2022-05-22 17:22:32</time>
      </trkpt>
      <trkpt lat="42.46001" lon="1.17107">
        <ele>774.8</ele>
        <time>2022-05-22 17:22:33</time>
      </trkpt>
      <trkpt lat="42.46005" lon="1.17114">
        <ele>775</ele>
        <time>2022-05-22 17:22:34</time>
      </trkpt>
      <trkpt lat="42.4601" lon="1.17121">
        <ele>775.2</ele>
        <time>2022-05-22 17:22:35</time>
      </trkpt>
      <trkpt lat="42.46014" lon="1.17128">
        <ele>775.4</ele>
        <time>2022-05-22 17:22:36</time>
      </trkpt>
      <trkpt lat="42.46018" lon="1.17136">
        <ele>775.4</ele>
        <time>2022-05-22 17:22:37</time>
      </trkpt>
      <trkpt lat="42.46021" lon="1.17143">
        <ele>775.6</ele>
        <time>2022-05-22 17:22:38</time>
      </trkpt>
      <trkpt lat="42.46025" lon="1.17151">
        <ele>775.8</ele>
        <time>2022-05-22 17:22:39</time>
      </trkpt>
      <trkpt lat="42.46032" lon="1.1716">
        <ele>775.8</ele>
        <time>2022-05-22 17:22:40</time>
      </trkpt>
      <trkpt lat="42.46044" lon="1.17171">
        <ele>775.8</ele>
        <time>2022-05-22 17:22:41</time>
      </trkpt>
      <trkpt lat="42.46056" lon="1.17182">
        <ele>775.8</ele>
        <time>2022-05-22 17:22:42</time>
      </trkpt>
      <trkpt lat="42.46063" lon="1.17191">
        <ele>775.8</ele>
        <time>2022-05-22 17:22:43</time>
      </trkpt>
      <trkpt lat="42.46057" lon="1.17197">
        <ele>775.8</ele>
        <time>2022-05-22 17:22:44</time>
      </trkpt>
      <trkpt lat="42.46056" lon="1.17204">
        <ele>775.8</ele>
        <time>2022-05-22 17:22:45</time>
      </trkpt>
      <trkpt lat="42.46055" lon="1.17211">
        <ele>775.8</ele>
        <time>2022-05-22 17:22:46</time>
      </trkpt>
      <trkpt lat="42.46056" lon="1.17219">
        <ele>775.8</ele>
        <time>2022-05-22 17:22:47</time>
      </trkpt>
      <trkpt lat="42.46057" lon="1.17227">
        <ele>775.8</ele>
        <time>2022-05-22 17:22:48</time>
      </trkpt>
      <trkpt lat="42.46058" lon="1.17235">
        <ele>776</ele>
        <time>2022-05-22 17:22:49</time>
      </trkpt>
      <trkpt lat="42.46058" lon="1.17243">
        <ele>775.8</ele>
        <time>2022-05-22 17:22:50</time>
      </trkpt>
      <trkpt lat="42.4606" lon="1.17251">
        <ele>775.8</ele>
        <time>2022-05-22 17:22:51</time>
      </trkpt>
      <trkpt lat="42.46062" lon="1.17259">
        <ele>775.8</ele>
        <time>2022-05-22 17:22:52</time>
      </trkpt>
      <trkpt lat="42.46064" lon="1.17267">
        <ele>775.8</ele>
        <time>2022-05-22 17:22:53</time>
      </trkpt>
      <trkpt lat="42.46065" lon="1.17275">
        <ele>775.8</ele>
        <time>2022-05-22 17:22:54</time>
      </trkpt>
      <trkpt lat="42.46067" lon="1.17283">
        <ele>776</ele>
        <time>2022-05-22 17:22:55</time>
      </trkpt>
      <trkpt lat="42.46069" lon="1.17291">
        <ele>776</ele>
        <time>2022-05-22 17:22:56</time>
      </trkpt>
      <trkpt lat="42.46071" lon="1.17298">
        <ele>776</ele>
        <time>2022-05-22 17:22:57</time>
      </trkpt>
      <trkpt lat="42.46073" lon="1.17305">
        <ele>776</ele>
        <time>2022-05-22 17:22:58</time>
      </trkpt>
      <trkpt lat="42.46076" lon="1.17312">
        <ele>776.2</ele>
        <time>2022-05-22 17:22:59</time>
      </trkpt>
      <trkpt lat="42.46079" lon="1.17319">
        <ele>776.2</ele>
        <time>2022-05-22 17:23:00</time>
      </trkpt>
      <trkpt lat="42.46082" lon="1.17326">
        <ele>776.2</ele>
        <time>2022-05-22 17:23:01</time>
      </trkpt>
      <trkpt lat="42.46085" lon="1.17333">
        <ele>776.2</ele>
        <time>2022-05-22 17:23:02</time>
      </trkpt>
      <trkpt lat="42.46089" lon="1.1734">
        <ele>776.4</ele>
        <time>2022-05-22 17:23:03</time>
      </trkpt>
      <trkpt lat="42.46092" lon="1.17347">
        <ele>776.4</ele>
        <time>2022-05-22 17:23:04</time>
      </trkpt>
      <trkpt lat="42.46095" lon="1.17354">
        <ele>776.6</ele>
        <time>2022-05-22 17:23:05</time>
      </trkpt>
      <trkpt lat="42.46099" lon="1.17361">
        <ele>776.6</ele>
        <time>2022-05-22 17:23:06</time>
      </trkpt>
      <trkpt lat="42.46103" lon="1.17368">
        <ele>776.8</ele>
        <time>2022-05-22 17:23:07</time>
      </trkpt>
      <trkpt lat="42.46107" lon="1.17374">
        <ele>776.8</ele>
        <time>2022-05-22 17:23:08</time>
      </trkpt>
      <trkpt lat="42.46111" lon="1.17381">
        <ele>777</ele>
        <time>2022-05-22 17:23:09</time>
      </trkpt>
      <trkpt lat="42.46115" lon="1.17387">
        <ele>777</ele>
        <time>2022-05-22 17:23:10</time>
      </trkpt>
      <trkpt lat="42.46119" lon="1.17394">
        <ele>777</ele>
        <time>2022-05-22 17:23:11</time>
      </trkpt>
      <trkpt lat="42.46123" lon="1.174">
        <ele>777.2</ele>
        <time>2022-05-22 17:23:12</time>
      </trkpt>
      <trkpt lat="42.46126" lon="1.17407">
        <ele>777.2</ele>
        <time>2022-05-22 17:23:13</time>
      </trkpt>
      <trkpt lat="42.4613" lon="1.17413">
        <ele>777.4</ele>
        <time>2022-05-22 17:23:14</time>
      </trkpt>
      <trkpt lat="42.46134" lon="1.17419">
        <ele>777.4</ele>
        <time>2022-05-22 17:23:15</time>
      </trkpt>
      <trkpt lat="42.46137" lon="1.17425">
        <ele>777.6</ele>
        <time>2022-05-22 17:23:16</time>
      </trkpt>
      <trkpt lat="42.46141" lon="1.17432">
        <ele>777.6</ele>
        <time>2022-05-22 17:23:17</time>
      </trkpt>
      <trkpt lat="42.46145" lon="1.17438">
        <ele>777.6</ele>
        <time>2022-05-22 17:23:18</time>
      </trkpt>
      <trkpt lat="42.46149" lon="1.17444">
        <ele>777.6</ele>
        <time>2022-05-22 17:23:19</time>
      </trkpt>
      <trkpt lat="42.46153" lon="1.17451">
        <ele>777.6</ele>
        <time>2022-05-22 17:23:20</time>
      </trkpt>
      <trkpt lat="42.46157" lon="1.17457">
        <ele>777.8</ele>
        <time>2022-05-22 17:23:21</time>
      </trkpt>
      <trkpt lat="42.46161" lon="1.17463">
        <ele>777.8</ele>
        <time>2022-05-22 17:23:22</time>
      </trkpt>
      <trkpt lat="42.46164" lon="1.1747">
        <ele>778</ele>
        <time>2022-05-22 17:23:23</time>
      </trkpt>
      <trkpt lat="42.46168" lon="1.17476">
        <ele>778</ele>
        <time>2022-05-22 17:23:24</time>
      </trkpt>
      <trkpt lat="42.46171" lon="1.17483">
        <ele>778.2</ele>
        <time>2022-05-22 17:23:25</time>
      </trkpt>
      <trkpt lat="42.46176" lon="1.17492">
        <ele>778.2</ele>
        <time>2022-05-22 17:23:26</time>
      </trkpt>
      <trkpt lat="42.4618" lon="1.17503">
        <ele>778.4</ele>
        <time>2022-05-22 17:23:27</time>
      </trkpt>
      <trkpt lat="42.46183" lon="1.1751">
        <ele>778.6</ele>
        <time>2022-05-22 17:23:28</time>
      </trkpt>
      <trkpt lat="42.46186" lon="1.17518">
        <ele>778.6</ele>
        <time>2022-05-22 17:23:29</time>
      </trkpt>
      <trkpt lat="42.46189" lon="1.17525">
        <ele>778.6</ele>
        <time>2022-05-22 17:23:30</time>
      </trkpt>
      <trkpt lat="42.46193" lon="1.17532">
        <ele>778.6</ele>
        <time>2022-05-22 17:23:31</time>
      </trkpt>
      <trkpt lat="42.46196" lon="1.17538">
        <ele>778.8</ele>
        <time>2022-05-22 17:23:32</time>
      </trkpt>
      <trkpt lat="42.46199" lon="1.17545">
        <ele>778.8</ele>
        <time>2022-05-22 17:23:33</time>
      </trkpt>
      <trkpt lat="42.46203" lon="1.17552">
        <ele>778.8</ele>
        <time>2022-05-22 17:23:34</time>
      </trkpt>
      <trkpt lat="42.46206" lon="1.1756">
        <ele>779</ele>
        <time>2022-05-22 17:23:35</time>
      </trkpt>
      <trkpt lat="42.46208" lon="1.17567">
        <ele>779.2</ele>
        <time>2022-05-22 17:23:36</time>
      </trkpt>
      <trkpt lat="42.46211" lon="1.17573">
        <ele>779.2</ele>
        <time>2022-05-22 17:23:37</time>
      </trkpt>
      <trkpt lat="42.46214" lon="1.1758">
        <ele>779.4</ele>
        <time>2022-05-22 17:23:38</time>
      </trkpt>
      <trkpt lat="42.46217" lon="1.17587">
        <ele>779.6</ele>
        <time>2022-05-22 17:23:39</time>
      </trkpt>
      <trkpt lat="42.4622" lon="1.17594">
        <ele>779.8</ele>
        <time>2022-05-22 17:23:40</time>
      </trkpt>
      <trkpt lat="42.46222" lon="1.176">
        <ele>779.8</ele>
        <time>2022-05-22 17:23:41</time>
      </trkpt>
      <trkpt lat="42.46225" lon="1.17607">
        <ele>779.8</ele>
        <time>2022-05-22 17:23:42</time>
      </trkpt>
      <trkpt lat="42.46228" lon="1.17614">
        <ele>780</ele>
        <time>2022-05-22 17:23:43</time>
      </trkpt>
      <trkpt lat="42.4623" lon="1.17621">
        <ele>780.2</ele>
        <time>2022-05-22 17:23:44</time>
      </trkpt>
      <trkpt lat="42.46233" lon="1.17628">
        <ele>780.2</ele>
        <time>2022-05-22 17:23:45</time>
      </trkpt>
      <trkpt lat="42.46236" lon="1.17635">
        <ele>780.2</ele>
        <time>2022-05-22 17:23:46</time>
      </trkpt>
      <trkpt lat="42.46238" lon="1.17642">
        <ele>780.4</ele>
        <time>2022-05-22 17:23:47</time>
      </trkpt>
      <trkpt lat="42.46241" lon="1.17649">
        <ele>780.4</ele>
        <time>2022-05-22 17:23:48</time>
      </trkpt>
      <trkpt lat="42.46243" lon="1.17656">
        <ele>780.4</ele>
        <time>2022-05-22 17:23:49</time>
      </trkpt>
      <trkpt lat="42.46245" lon="1.17664">
        <ele>780.6</ele>
        <time>2022-05-22 17:23:50</time>
      </trkpt>
      <trkpt lat="42.46247" lon="1.17671">
        <ele>780.8</ele>
        <time>2022-05-22 17:23:51</time>
      </trkpt>
      <trkpt lat="42.46248" lon="1.17679">
        <ele>780.8</ele>
        <time>2022-05-22 17:23:52</time>
      </trkpt>
      <trkpt lat="42.4625" lon="1.17688">
        <ele>780.6</ele>
        <time>2022-05-22 17:23:53</time>
      </trkpt>
      <trkpt lat="42.46252" lon="1.17696">
        <ele>780.6</ele>
        <time>2022-05-22 17:23:54</time>
      </trkpt>
      <trkpt lat="42.46253" lon="1.17705">
        <ele>780.6</ele>
        <time>2022-05-22 17:23:55</time>
      </trkpt>
      <trkpt lat="42.46255" lon="1.17713">
        <ele>780.6</ele>
        <time>2022-05-22 17:23:56</time>
      </trkpt>
      <trkpt lat="42.46256" lon="1.17721">
        <ele>780.8</ele>
        <time>2022-05-22 17:23:57</time>
      </trkpt>
      <trkpt lat="42.46258" lon="1.1773">
        <ele>780.8</ele>
        <time>2022-05-22 17:23:58</time>
      </trkpt>
      <trkpt lat="42.4626" lon="1.17738">
        <ele>780.8</ele>
        <time>2022-05-22 17:23:59</time>
      </trkpt>
      <trkpt lat="42.46262" lon="1.17746">
        <ele>780.8</ele>
        <time>2022-05-22 17:24:00</time>
      </trkpt>
      <trkpt lat="42.46264" lon="1.17754">
        <ele>780.8</ele>
        <time>2022-05-22 17:24:01</time>
      </trkpt>
      <trkpt lat="42.46266" lon="1.17762">
        <ele>780.8</ele>
        <time>2022-05-22 17:24:02</time>
      </trkpt>
      <trkpt lat="42.46269" lon="1.1777">
        <ele>780.6</ele>
        <time>2022-05-22 17:24:03</time>
      </trkpt>
      <trkpt lat="42.46272" lon="1.17778">
        <ele>780.6</ele>
        <time>2022-05-22 17:24:04</time>
      </trkpt>
      <trkpt lat="42.46276" lon="1.17785">
        <ele>780.6</ele>
        <time>2022-05-22 17:24:05</time>
      </trkpt>
      <trkpt lat="42.4628" lon="1.17793">
        <ele>780.4</ele>
        <time>2022-05-22 17:24:06</time>
      </trkpt>
      <trkpt lat="42.46284" lon="1.17801">
        <ele>780.2</ele>
        <time>2022-05-22 17:24:07</time>
      </trkpt>
      <trkpt lat="42.46288" lon="1.17808">
        <ele>780.2</ele>
        <time>2022-05-22 17:24:08</time>
      </trkpt>
      <trkpt lat="42.46292" lon="1.17817">
        <ele>780.2</ele>
        <time>2022-05-22 17:24:09</time>
      </trkpt>
      <trkpt lat="42.46296" lon="1.17824">
        <ele>780</ele>
        <time>2022-05-22 17:24:10</time>
      </trkpt>
      <trkpt lat="42.463" lon="1.17832">
        <ele>780</ele>
        <time>2022-05-22 17:24:11</time>
      </trkpt>
      <trkpt lat="42.46304" lon="1.1784">
        <ele>780</ele>
        <time>2022-05-22 17:24:12</time>
      </trkpt>
      <trkpt lat="42.46308" lon="1.17848">
        <ele>780</ele>
        <time>2022-05-22 17:24:13</time>
      </trkpt>
      <trkpt lat="42.46311" lon="1.17856">
        <ele>780.2</ele>
        <time>2022-05-22 17:24:14</time>
      </trkpt>
      <trkpt lat="42.46315" lon="1.17863">
        <ele>780.2</ele>
        <time>2022-05-22 17:24:15</time>
      </trkpt>
      <trkpt lat="42.4632" lon="1.17871">
        <ele>780.2</ele>
        <time>2022-05-22 17:24:16</time>
      </trkpt>
      <trkpt lat="42.46324" lon="1.17879">
        <ele>780.2</ele>
        <time>2022-05-22 17:24:17</time>
      </trkpt>
      <trkpt lat="42.46328" lon="1.17886">
        <ele>780.2</ele>
        <time>2022-05-22 17:24:18</time>
      </trkpt>
      <trkpt lat="42.46331" lon="1.17893">
        <ele>780.2</ele>
        <time>2022-05-22 17:24:19</time>
      </trkpt>
      <trkpt lat="42.46335" lon="1.179">
        <ele>780.2</ele>
        <time>2022-05-22 17:24:20</time>
      </trkpt>
      <trkpt lat="42.46339" lon="1.17907">
        <ele>780.4</ele>
        <time>2022-05-22 17:24:21</time>
      </trkpt>
      <trkpt lat="42.46343" lon="1.17914">
        <ele>780.4</ele>
        <time>2022-05-22 17:24:22</time>
      </trkpt>
      <trkpt lat="42.46347" lon="1.17921">
        <ele>780.4</ele>
        <time>2022-05-22 17:24:23</time>
      </trkpt>
      <trkpt lat="42.46351" lon="1.17928">
        <ele>780.4</ele>
        <time>2022-05-22 17:24:24</time>
      </trkpt>
      <trkpt lat="42.46356" lon="1.17935">
        <ele>780.6</ele>
        <time>2022-05-22 17:24:25</time>
      </trkpt>
      <trkpt lat="42.4636" lon="1.17942">
        <ele>780.8</ele>
        <time>2022-05-22 17:24:26</time>
      </trkpt>
      <trkpt lat="42.46364" lon="1.17949">
        <ele>780.8</ele>
        <time>2022-05-22 17:24:27</time>
      </trkpt>
      <trkpt lat="42.46369" lon="1.17956">
        <ele>781</ele>
        <time>2022-05-22 17:24:28</time>
      </trkpt>
      <trkpt lat="42.46374" lon="1.17962">
        <ele>781.2</ele>
        <time>2022-05-22 17:24:29</time>
      </trkpt>
      <trkpt lat="42.46378" lon="1.17969">
        <ele>781.2</ele>
        <time>2022-05-22 17:24:30</time>
      </trkpt>
      <trkpt lat="42.46382" lon="1.17976">
        <ele>781.4</ele>
        <time>2022-05-22 17:24:31</time>
      </trkpt>
      <trkpt lat="42.46386" lon="1.17983">
        <ele>781.6</ele>
        <time>2022-05-22 17:24:32</time>
      </trkpt>
      <trkpt lat="42.4639" lon="1.1799">
        <ele>781.6</ele>
        <time>2022-05-22 17:24:33</time>
      </trkpt>
      <trkpt lat="42.46394" lon="1.17996">
        <ele>781.8</ele>
        <time>2022-05-22 17:24:34</time>
      </trkpt>
      <trkpt lat="42.46398" lon="1.18002">
        <ele>782</ele>
        <time>2022-05-22 17:24:35</time>
      </trkpt>
      <trkpt lat="42.46402" lon="1.18008">
        <ele>782.2</ele>
        <time>2022-05-22 17:24:36</time>
      </trkpt>
      <trkpt lat="42.46405" lon="1.18014">
        <ele>782.4</ele>
        <time>2022-05-22 17:24:37</time>
      </trkpt>
      <trkpt lat="42.46408" lon="1.18019">
        <ele>782.6</ele>
        <time>2022-05-22 17:24:38</time>
      </trkpt>
      <trkpt lat="42.46412" lon="1.18024">
        <ele>783</ele>
        <time>2022-05-22 17:24:39</time>
      </trkpt>
      <trkpt lat="42.46415" lon="1.18029">
        <ele>783.2</ele>
        <time>2022-05-22 17:24:40</time>
      </trkpt>
      <trkpt lat="42.46418" lon="1.18035">
        <ele>783.4</ele>
        <time>2022-05-22 17:24:41</time>
      </trkpt>
      <trkpt lat="42.46421" lon="1.1804">
        <ele>783.6</ele>
        <time>2022-05-22 17:24:42</time>
      </trkpt>
      <trkpt lat="42.46424" lon="1.18045">
        <ele>784</ele>
        <time>2022-05-22 17:24:43</time>
      </trkpt>
      <trkpt lat="42.46426" lon="1.18049">
        <ele>784.2</ele>
        <time>2022-05-22 17:24:44</time>
      </trkpt>
      <trkpt lat="42.46429" lon="1.18054">
        <ele>784.4</ele>
        <time>2022-05-22 17:24:45</time>
      </trkpt>
      <trkpt lat="42.46432" lon="1.18058">
        <ele>784.6</ele>
        <time>2022-05-22 17:24:46</time>
      </trkpt>
      <trkpt lat="42.46435" lon="1.18062">
        <ele>784.8</ele>
        <time>2022-05-22 17:24:47</time>
      </trkpt>
      <trkpt lat="42.46437" lon="1.18066">
        <ele>785.2</ele>
        <time>2022-05-22 17:24:48</time>
      </trkpt>
      <trkpt lat="42.4644" lon="1.1807">
        <ele>785.4</ele>
        <time>2022-05-22 17:24:49</time>
      </trkpt>
      <trkpt lat="42.46443" lon="1.18075">
        <ele>785.6</ele>
        <time>2022-05-22 17:24:50</time>
      </trkpt>
      <trkpt lat="42.46447" lon="1.18078">
        <ele>785.8</ele>
        <time>2022-05-22 17:24:51</time>
      </trkpt>
      <trkpt lat="42.4645" lon="1.18082">
        <ele>786</ele>
        <time>2022-05-22 17:24:52</time>
      </trkpt>
      <trkpt lat="42.46453" lon="1.18085">
        <ele>786.2</ele>
        <time>2022-05-22 17:24:53</time>
      </trkpt>
      <trkpt lat="42.46457" lon="1.18089">
        <ele>786.4</ele>
        <time>2022-05-22 17:24:54</time>
      </trkpt>
      <trkpt lat="42.4646" lon="1.18092">
        <ele>786.6</ele>
        <time>2022-05-22 17:24:55</time>
      </trkpt>
      <trkpt lat="42.46463" lon="1.18095">
        <ele>786.8</ele>
        <time>2022-05-22 17:24:56</time>
      </trkpt>
      <trkpt lat="42.46467" lon="1.18098">
        <ele>787</ele>
        <time>2022-05-22 17:24:57</time>
      </trkpt>
      <trkpt lat="42.46471" lon="1.18102">
        <ele>787.2</ele>
        <time>2022-05-22 17:24:58</time>
      </trkpt>
      <trkpt lat="42.46474" lon="1.18105">
        <ele>787.4</ele>
        <time>2022-05-22 17:24:59</time>
      </trkpt>
      <trkpt lat="42.46477" lon="1.18109">
        <ele>787.6</ele>
        <time>2022-05-22 17:25:00</time>
      </trkpt>
      <trkpt lat="42.46481" lon="1.18112">
        <ele>787.8</ele>
        <time>2022-05-22 17:25:01</time>
      </trkpt>
      <trkpt lat="42.46484" lon="1.18115">
        <ele>788</ele>
        <time>2022-05-22 17:25:02</time>
      </trkpt>
      <trkpt lat="42.46487" lon="1.18118">
        <ele>788.2</ele>
        <time>2022-05-22 17:25:03</time>
      </trkpt>
      <trkpt lat="42.4649" lon="1.18121">
        <ele>788.4</ele>
        <time>2022-05-22 17:25:04</time>
      </trkpt>
      <trkpt lat="42.46493" lon="1.18125">
        <ele>788.6</ele>
        <time>2022-05-22 17:25:05</time>
      </trkpt>
      <trkpt lat="42.46496" lon="1.18128">
        <ele>788.8</ele>
        <time>2022-05-22 17:25:06</time>
      </trkpt>
      <trkpt lat="42.46499" lon="1.18132">
        <ele>789</ele>
        <time>2022-05-22 17:25:07</time>
      </trkpt>
      <trkpt lat="42.46502" lon="1.18135">
        <ele>789.2</ele>
        <time>2022-05-22 17:25:08</time>
      </trkpt>
      <trkpt lat="42.46505" lon="1.18138">
        <ele>789.4</ele>
        <time>2022-05-22 17:25:09</time>
      </trkpt>
      <trkpt lat="42.46508" lon="1.18142">
        <ele>789.6</ele>
        <time>2022-05-22 17:25:10</time>
      </trkpt>
      <trkpt lat="42.46511" lon="1.18145">
        <ele>789.8</ele>
        <time>2022-05-22 17:25:11</time>
      </trkpt>
      <trkpt lat="42.46513" lon="1.18149">
        <ele>790</ele>
        <time>2022-05-22 17:25:12</time>
      </trkpt>
      <trkpt lat="42.46516" lon="1.18152">
        <ele>790.2</ele>
        <time>2022-05-22 17:25:13</time>
      </trkpt>
      <trkpt lat="42.46518" lon="1.18156">
        <ele>790.4</ele>
        <time>2022-05-22 17:25:14</time>
      </trkpt>
      <trkpt lat="42.46521" lon="1.1816">
        <ele>790.6</ele>
        <time>2022-05-22 17:25:15</time>
      </trkpt>
      <trkpt lat="42.46524" lon="1.18163">
        <ele>790.6</ele>
        <time>2022-05-22 17:25:16</time>
      </trkpt>
      <trkpt lat="42.46526" lon="1.18167">
        <ele>790.8</ele>
        <time>2022-05-22 17:25:17</time>
      </trkpt>
      <trkpt lat="42.46529" lon="1.18171">
        <ele>791</ele>
        <time>2022-05-22 17:25:18</time>
      </trkpt>
      <trkpt lat="42.46532" lon="1.18174">
        <ele>791.2</ele>
        <time>2022-05-22 17:25:19</time>
      </trkpt>
      <trkpt lat="42.46535" lon="1.18178">
        <ele>791.4</ele>
        <time>2022-05-22 17:25:20</time>
      </trkpt>
      <trkpt lat="42.46538" lon="1.18181">
        <ele>791.4</ele>
        <time>2022-05-22 17:25:21</time>
      </trkpt>
      <trkpt lat="42.4654" lon="1.18185">
        <ele>791.6</ele>
        <time>2022-05-22 17:25:22</time>
      </trkpt>
      <trkpt lat="42.46543" lon="1.18189">
        <ele>791.8</ele>
        <time>2022-05-22 17:25:23</time>
      </trkpt>
      <trkpt lat="42.46546" lon="1.18193">
        <ele>792</ele>
        <time>2022-05-22 17:25:24</time>
      </trkpt>
      <trkpt lat="42.46548" lon="1.18197">
        <ele>792</ele>
        <time>2022-05-22 17:25:25</time>
      </trkpt>
      <trkpt lat="42.46551" lon="1.18201">
        <ele>792.2</ele>
        <time>2022-05-22 17:25:26</time>
      </trkpt>
      <trkpt lat="42.46553" lon="1.18205">
        <ele>792.2</ele>
        <time>2022-05-22 17:25:27</time>
      </trkpt>
      <trkpt lat="42.46556" lon="1.18209">
        <ele>792.4</ele>
        <time>2022-05-22 17:25:28</time>
      </trkpt>
      <trkpt lat="42.46558" lon="1.18214">
        <ele>792.6</ele>
        <time>2022-05-22 17:25:29</time>
      </trkpt>
      <trkpt lat="42.46561" lon="1.18218">
        <ele>792.8</ele>
        <time>2022-05-22 17:25:30</time>
      </trkpt>
      <trkpt lat="42.46563" lon="1.18222">
        <ele>792.8</ele>
        <time>2022-05-22 17:25:31</time>
      </trkpt>
      <trkpt lat="42.46566" lon="1.18226">
        <ele>793</ele>
        <time>2022-05-22 17:25:32</time>
      </trkpt>
      <trkpt lat="42.46568" lon="1.1823">
        <ele>793</ele>
        <time>2022-05-22 17:25:33</time>
      </trkpt>
      <trkpt lat="42.4657" lon="1.18234">
        <ele>793.2</ele>
        <time>2022-05-22 17:25:34</time>
      </trkpt>
      <trkpt lat="42.46573" lon="1.18238">
        <ele>793.2</ele>
        <time>2022-05-22 17:25:35</time>
      </trkpt>
      <trkpt lat="42.46575" lon="1.18243">
        <ele>793.2</ele>
        <time>2022-05-22 17:25:36</time>
      </trkpt>
      <trkpt lat="42.46578" lon="1.18247">
        <ele>793.4</ele>
        <time>2022-05-22 17:25:37</time>
      </trkpt>
      <trkpt lat="42.46579" lon="1.18252">
        <ele>793.4</ele>
        <time>2022-05-22 17:25:38</time>
      </trkpt>
      <trkpt lat="42.46582" lon="1.18256">
        <ele>793.6</ele>
        <time>2022-05-22 17:25:39</time>
      </trkpt>
      <trkpt lat="42.46584" lon="1.1826">
        <ele>793.8</ele>
        <time>2022-05-22 17:25:40</time>
      </trkpt>
      <trkpt lat="42.46586" lon="1.18265">
        <ele>794</ele>
        <time>2022-05-22 17:25:41</time>
      </trkpt>
      <trkpt lat="42.46587" lon="1.18269">
        <ele>794</ele>
        <time>2022-05-22 17:25:42</time>
      </trkpt>
      <trkpt lat="42.4659" lon="1.18274">
        <ele>794.2</ele>
        <time>2022-05-22 17:25:43</time>
      </trkpt>
      <trkpt lat="42.46592" lon="1.18278">
        <ele>794.4</ele>
        <time>2022-05-22 17:25:44</time>
      </trkpt>
      <trkpt lat="42.46593" lon="1.18283">
        <ele>794.6</ele>
        <time>2022-05-22 17:25:45</time>
      </trkpt>
      <trkpt lat="42.46594" lon="1.18287">
        <ele>794.8</ele>
        <time>2022-05-22 17:25:46</time>
      </trkpt>
      <trkpt lat="42.46596" lon="1.18292">
        <ele>795</ele>
        <time>2022-05-22 17:25:47</time>
      </trkpt>
      <trkpt lat="42.46597" lon="1.18296">
        <ele>795</ele>
        <time>2022-05-22 17:25:48</time>
      </trkpt>
      <trkpt lat="42.46598" lon="1.183">
        <ele>795.2</ele>
        <time>2022-05-22 17:25:49</time>
      </trkpt>
      <trkpt lat="42.466" lon="1.18304">
        <ele>795.4</ele>
        <time>2022-05-22 17:25:50</time>
      </trkpt>
      <trkpt lat="42.46601" lon="1.18308">
        <ele>795.6</ele>
        <time>2022-05-22 17:25:51</time>
      </trkpt>
      <trkpt lat="42.46602" lon="1.18313">
        <ele>795.8</ele>
        <time>2022-05-22 17:25:52</time>
      </trkpt>
      <trkpt lat="42.46604" lon="1.18317">
        <ele>796</ele>
        <time>2022-05-22 17:25:53</time>
      </trkpt>
      <trkpt lat="42.46605" lon="1.18321">
        <ele>796.2</ele>
        <time>2022-05-22 17:25:54</time>
      </trkpt>
      <trkpt lat="42.46606" lon="1.18326">
        <ele>796.4</ele>
        <time>2022-05-22 17:25:55</time>
      </trkpt>
      <trkpt lat="42.46607" lon="1.1833">
        <ele>796.4</ele>
        <time>2022-05-22 17:25:56</time>
      </trkpt>
      <trkpt lat="42.46608" lon="1.18335">
        <ele>796.6</ele>
        <time>2022-05-22 17:25:57</time>
      </trkpt>
      <trkpt lat="42.46608" lon="1.1834">
        <ele>796.8</ele>
        <time>2022-05-22 17:25:58</time>
      </trkpt>
      <trkpt lat="42.46609" lon="1.18344">
        <ele>797</ele>
        <time>2022-05-22 17:25:59</time>
      </trkpt>
      <trkpt lat="42.46609" lon="1.18349">
        <ele>797</ele>
        <time>2022-05-22 17:26:00</time>
      </trkpt>
      <trkpt lat="42.4661" lon="1.18353">
        <ele>797.2</ele>
        <time>2022-05-22 17:26:01</time>
      </trkpt>
      <trkpt lat="42.4661" lon="1.18358">
        <ele>797.4</ele>
        <time>2022-05-22 17:26:02</time>
      </trkpt>
      <trkpt lat="42.46611" lon="1.18362">
        <ele>797.6</ele>
        <time>2022-05-22 17:26:03</time>
      </trkpt>
      <trkpt lat="42.46611" lon="1.18367">
        <ele>797.6</ele>
        <time>2022-05-22 17:26:04</time>
      </trkpt>
      <trkpt lat="42.46611" lon="1.18371">
        <ele>797.8</ele>
        <time>2022-05-22 17:26:05</time>
      </trkpt>
      <trkpt lat="42.46612" lon="1.18376">
        <ele>798</ele>
        <time>2022-05-22 17:26:06</time>
      </trkpt>
      <trkpt lat="42.46612" lon="1.18381">
        <ele>798.4</ele>
        <time>2022-05-22 17:26:07</time>
      </trkpt>
      <trkpt lat="42.46612" lon="1.18386">
        <ele>798.4</ele>
        <time>2022-05-22 17:26:08</time>
      </trkpt>
      <trkpt lat="42.46613" lon="1.18391">
        <ele>798.6</ele>
        <time>2022-05-22 17:26:09</time>
      </trkpt>
      <trkpt lat="42.46613" lon="1.18396">
        <ele>798.6</ele>
        <time>2022-05-22 17:26:10</time>
      </trkpt>
      <trkpt lat="42.46614" lon="1.18401">
        <ele>798.8</ele>
        <time>2022-05-22 17:26:11</time>
      </trkpt>
      <trkpt lat="42.46614" lon="1.18406">
        <ele>798.8</ele>
        <time>2022-05-22 17:26:12</time>
      </trkpt>
      <trkpt lat="42.46615" lon="1.18411">
        <ele>799</ele>
        <time>2022-05-22 17:26:13</time>
      </trkpt>
      <trkpt lat="42.46615" lon="1.18417">
        <ele>799</ele>
        <time>2022-05-22 17:26:14</time>
      </trkpt>
      <trkpt lat="42.46615" lon="1.18422">
        <ele>799.2</ele>
        <time>2022-05-22 17:26:15</time>
      </trkpt>
      <trkpt lat="42.46615" lon="1.18427">
        <ele>799.2</ele>
        <time>2022-05-22 17:26:16</time>
      </trkpt>
      <trkpt lat="42.46615" lon="1.18432">
        <ele>799.4</ele>
        <time>2022-05-22 17:26:17</time>
      </trkpt>
      <trkpt lat="42.46615" lon="1.18438">
        <ele>799.6</ele>
        <time>2022-05-22 17:26:18</time>
      </trkpt>
      <trkpt lat="42.46615" lon="1.18444">
        <ele>799.6</ele>
        <time>2022-05-22 17:26:19</time>
      </trkpt>
      <trkpt lat="42.46616" lon="1.18451">
        <ele>799.8</ele>
        <time>2022-05-22 17:26:20</time>
      </trkpt>
      <trkpt lat="42.46616" lon="1.18457">
        <ele>799.8</ele>
        <time>2022-05-22 17:26:21</time>
      </trkpt>
      <trkpt lat="42.46616" lon="1.18463">
        <ele>799.8</ele>
        <time>2022-05-22 17:26:22</time>
      </trkpt>
      <trkpt lat="42.46616" lon="1.18469">
        <ele>800</ele>
        <time>2022-05-22 17:26:23</time>
      </trkpt>
      <trkpt lat="42.46615" lon="1.18475">
        <ele>800</ele>
        <time>2022-05-22 17:26:24</time>
      </trkpt>
      <trkpt lat="42.46615" lon="1.18481">
        <ele>800.2</ele>
        <time>2022-05-22 17:26:25</time>
      </trkpt>
      <trkpt lat="42.46615" lon="1.18488">
        <ele>800.2</ele>
        <time>2022-05-22 17:26:26</time>
      </trkpt>
      <trkpt lat="42.46615" lon="1.18495">
        <ele>800.4</ele>
        <time>2022-05-22 17:26:27</time>
      </trkpt>
      <trkpt lat="42.46614" lon="1.18501">
        <ele>800.4</ele>
        <time>2022-05-22 17:26:28</time>
      </trkpt>
      <trkpt lat="42.46614" lon="1.18508">
        <ele>800.4</ele>
        <time>2022-05-22 17:26:29</time>
      </trkpt>
      <trkpt lat="42.46613" lon="1.18514">
        <ele>800.4</ele>
        <time>2022-05-22 17:26:30</time>
      </trkpt>
      <trkpt lat="42.46612" lon="1.18521">
        <ele>800.6</ele>
        <time>2022-05-22 17:26:31</time>
      </trkpt>
      <trkpt lat="42.46611" lon="1.18528">
        <ele>800.6</ele>
        <time>2022-05-22 17:26:32</time>
      </trkpt>
      <trkpt lat="42.4661" lon="1.18536">
        <ele>800.6</ele>
        <time>2022-05-22 17:26:33</time>
      </trkpt>
      <trkpt lat="42.46609" lon="1.18543">
        <ele>800.4</ele>
        <time>2022-05-22 17:26:34</time>
      </trkpt>
      <trkpt lat="42.46608" lon="1.1855">
        <ele>800.4</ele>
        <time>2022-05-22 17:26:35</time>
      </trkpt>
      <trkpt lat="42.46606" lon="1.18558">
        <ele>800.4</ele>
        <time>2022-05-22 17:26:36</time>
      </trkpt>
      <trkpt lat="42.46605" lon="1.18565">
        <ele>800.4</ele>
        <time>2022-05-22 17:26:37</time>
      </trkpt>
      <trkpt lat="42.46603" lon="1.18572">
        <ele>800.4</ele>
        <time>2022-05-22 17:26:38</time>
      </trkpt>
      <trkpt lat="42.46602" lon="1.1858">
        <ele>800.2</ele>
        <time>2022-05-22 17:26:39</time>
      </trkpt>
      <trkpt lat="42.466" lon="1.18588">
        <ele>800.2</ele>
        <time>2022-05-22 17:26:40</time>
      </trkpt>
      <trkpt lat="42.46599" lon="1.18597">
        <ele>800.2</ele>
        <time>2022-05-22 17:26:41</time>
      </trkpt>
      <trkpt lat="42.46597" lon="1.18605">
        <ele>800.2</ele>
        <time>2022-05-22 17:26:42</time>
      </trkpt>
      <trkpt lat="42.46596" lon="1.18614">
        <ele>800.2</ele>
        <time>2022-05-22 17:26:43</time>
      </trkpt>
      <trkpt lat="42.46595" lon="1.18623">
        <ele>800</ele>
        <time>2022-05-22 17:26:44</time>
      </trkpt>
      <trkpt lat="42.46594" lon="1.18632">
        <ele>799.8</ele>
        <time>2022-05-22 17:26:45</time>
      </trkpt>
      <trkpt lat="42.46593" lon="1.18641">
        <ele>799.6</ele>
        <time>2022-05-22 17:26:46</time>
      </trkpt>
      <trkpt lat="42.46591" lon="1.1865">
        <ele>799.4</ele>
        <time>2022-05-22 17:26:47</time>
      </trkpt>
      <trkpt lat="42.46589" lon="1.18658">
        <ele>799.4</ele>
        <time>2022-05-22 17:26:48</time>
      </trkpt>
      <trkpt lat="42.46588" lon="1.18668">
        <ele>799.2</ele>
        <time>2022-05-22 17:26:49</time>
      </trkpt>
      <trkpt lat="42.46587" lon="1.18677">
        <ele>799</ele>
        <time>2022-05-22 17:26:50</time>
      </trkpt>
      <trkpt lat="42.46586" lon="1.18685">
        <ele>799</ele>
        <time>2022-05-22 17:26:51</time>
      </trkpt>
      <trkpt lat="42.46586" lon="1.18694">
        <ele>799</ele>
        <time>2022-05-22 17:26:52</time>
      </trkpt>
      <trkpt lat="42.46585" lon="1.18703">
        <ele>798.8</ele>
        <time>2022-05-22 17:26:53</time>
      </trkpt>
      <trkpt lat="42.46585" lon="1.18713">
        <ele>798.8</ele>
        <time>2022-05-22 17:26:54</time>
      </trkpt>
      <trkpt lat="42.46585" lon="1.18722">
        <ele>798.6</ele>
        <time>2022-05-22 17:26:55</time>
      </trkpt>
      <trkpt lat="42.46585" lon="1.18732">
        <ele>798.4</ele>
        <time>2022-05-22 17:26:56</time>
      </trkpt>
      <trkpt lat="42.46586" lon="1.18742">
        <ele>798.2</ele>
        <time>2022-05-22 17:26:57</time>
      </trkpt>
      <trkpt lat="42.46586" lon="1.18752">
        <ele>798</ele>
        <time>2022-05-22 17:26:58</time>
      </trkpt>
      <trkpt lat="42.46587" lon="1.18761">
        <ele>797.8</ele>
        <time>2022-05-22 17:26:59</time>
      </trkpt>
      <trkpt lat="42.46587" lon="1.18772">
        <ele>797.8</ele>
        <time>2022-05-22 17:27:00</time>
      </trkpt>
      <trkpt lat="42.46588" lon="1.18782">
        <ele>797.6</ele>
        <time>2022-05-22 17:27:01</time>
      </trkpt>
      <trkpt lat="42.46588" lon="1.18791">
        <ele>797.4</ele>
        <time>2022-05-22 17:27:02</time>
      </trkpt>
      <trkpt lat="42.46589" lon="1.18801">
        <ele>797.4</ele>
        <time>2022-05-22 17:27:03</time>
      </trkpt>
      <trkpt lat="42.4659" lon="1.18811">
        <ele>797.2</ele>
        <time>2022-05-22 17:27:04</time>
      </trkpt>
      <trkpt lat="42.46591" lon="1.18821">
        <ele>797</ele>
        <time>2022-05-22 17:27:05</time>
      </trkpt>
      <trkpt lat="42.46592" lon="1.18831">
        <ele>797</ele>
        <time>2022-05-22 17:27:06</time>
      </trkpt>
      <trkpt lat="42.46594" lon="1.1884">
        <ele>796.8</ele>
        <time>2022-05-22 17:27:07</time>
      </trkpt>
      <trkpt lat="42.46596" lon="1.18849">
        <ele>796.6</ele>
        <time>2022-05-22 17:27:08</time>
      </trkpt>
      <trkpt lat="42.46599" lon="1.18858">
        <ele>796.6</ele>
        <time>2022-05-22 17:27:09</time>
      </trkpt>
      <trkpt lat="42.46601" lon="1.18867">
        <ele>796.4</ele>
        <time>2022-05-22 17:27:10</time>
      </trkpt>
      <trkpt lat="42.46603" lon="1.18876">
        <ele>796.2</ele>
        <time>2022-05-22 17:27:11</time>
      </trkpt>
      <trkpt lat="42.46606" lon="1.18886">
        <ele>796</ele>
        <time>2022-05-22 17:27:12</time>
      </trkpt>
      <trkpt lat="42.46608" lon="1.18895">
        <ele>796</ele>
        <time>2022-05-22 17:27:13</time>
      </trkpt>
      <trkpt lat="42.46611" lon="1.18905">
        <ele>795.8</ele>
        <time>2022-05-22 17:27:14</time>
      </trkpt>
      <trkpt lat="42.46614" lon="1.18914">
        <ele>795.8</ele>
        <time>2022-05-22 17:27:15</time>
      </trkpt>
      <trkpt lat="42.46616" lon="1.18924">
        <ele>795.8</ele>
        <time>2022-05-22 17:27:16</time>
      </trkpt>
      <trkpt lat="42.46619" lon="1.18934">
        <ele>795.8</ele>
        <time>2022-05-22 17:27:17</time>
      </trkpt>
      <trkpt lat="42.46622" lon="1.18943">
        <ele>795.8</ele>
        <time>2022-05-22 17:27:18</time>
      </trkpt>
      <trkpt lat="42.46625" lon="1.18952">
        <ele>795.6</ele>
        <time>2022-05-22 17:27:19</time>
      </trkpt>
      <trkpt lat="42.46628" lon="1.18962">
        <ele>795.8</ele>
        <time>2022-05-22 17:27:20</time>
      </trkpt>
      <trkpt lat="42.46631" lon="1.18971">
        <ele>795.8</ele>
        <time>2022-05-22 17:27:21</time>
      </trkpt>
      <trkpt lat="42.46634" lon="1.1898">
        <ele>795.8</ele>
        <time>2022-05-22 17:27:22</time>
      </trkpt>
      <trkpt lat="42.46637" lon="1.18989">
        <ele>795.8</ele>
        <time>2022-05-22 17:27:23</time>
      </trkpt>
      <trkpt lat="42.46639" lon="1.18997">
        <ele>796</ele>
        <time>2022-05-22 17:27:24</time>
      </trkpt>
      <trkpt lat="42.46642" lon="1.19006">
        <ele>796</ele>
        <time>2022-05-22 17:27:25</time>
      </trkpt>
      <trkpt lat="42.46645" lon="1.19015">
        <ele>796</ele>
        <time>2022-05-22 17:27:26</time>
      </trkpt>
      <trkpt lat="42.46648" lon="1.19024">
        <ele>796</ele>
        <time>2022-05-22 17:27:27</time>
      </trkpt>
      <trkpt lat="42.46651" lon="1.19033">
        <ele>796.2</ele>
        <time>2022-05-22 17:27:28</time>
      </trkpt>
      <trkpt lat="42.46653" lon="1.19041">
        <ele>796.2</ele>
        <time>2022-05-22 17:27:29</time>
      </trkpt>
      <trkpt lat="42.46655" lon="1.1905">
        <ele>796.4</ele>
        <time>2022-05-22 17:27:30</time>
      </trkpt>
      <trkpt lat="42.46657" lon="1.19059">
        <ele>796.4</ele>
        <time>2022-05-22 17:27:31</time>
      </trkpt>
      <trkpt lat="42.46659" lon="1.19068">
        <ele>796.6</ele>
        <time>2022-05-22 17:27:32</time>
      </trkpt>
      <trkpt lat="42.46662" lon="1.19076">
        <ele>796.6</ele>
        <time>2022-05-22 17:27:33</time>
      </trkpt>
      <trkpt lat="42.46665" lon="1.19083">
        <ele>796.6</ele>
        <time>2022-05-22 17:27:34</time>
      </trkpt>
      <trkpt lat="42.46667" lon="1.19091">
        <ele>796.8</ele>
        <time>2022-05-22 17:27:35</time>
      </trkpt>
      <trkpt lat="42.4667" lon="1.19099">
        <ele>797</ele>
        <time>2022-05-22 17:27:36</time>
      </trkpt>
      <trkpt lat="42.46673" lon="1.19106">
        <ele>797</ele>
        <time>2022-05-22 17:27:37</time>
      </trkpt>
      <trkpt lat="42.46676" lon="1.19114">
        <ele>797.2</ele>
        <time>2022-05-22 17:27:38</time>
      </trkpt>
      <trkpt lat="42.4668" lon="1.19121">
        <ele>797.2</ele>
        <time>2022-05-22 17:27:39</time>
      </trkpt>
      <trkpt lat="42.46683" lon="1.19128">
        <ele>797.4</ele>
        <time>2022-05-22 17:27:40</time>
      </trkpt>
      <trkpt lat="42.46686" lon="1.19135">
        <ele>797.4</ele>
        <time>2022-05-22 17:27:41</time>
      </trkpt>
      <trkpt lat="42.4669" lon="1.19141">
        <ele>797.4</ele>
        <time>2022-05-22 17:27:42</time>
      </trkpt>
      <trkpt lat="42.46694" lon="1.19147">
        <ele>797.6</ele>
        <time>2022-05-22 17:27:43</time>
      </trkpt>
      <trkpt lat="42.46698" lon="1.19154">
        <ele>797.8</ele>
        <time>2022-05-22 17:27:44</time>
      </trkpt>
      <trkpt lat="42.46701" lon="1.1916">
        <ele>797.8</ele>
        <time>2022-05-22 17:27:45</time>
      </trkpt>
      <trkpt lat="42.46705" lon="1.19167">
        <ele>798</ele>
        <time>2022-05-22 17:27:46</time>
      </trkpt>
      <trkpt lat="42.46708" lon="1.19173">
        <ele>798.2</ele>
        <time>2022-05-22 17:27:47</time>
      </trkpt>
      <trkpt lat="42.46712" lon="1.1918">
        <ele>798.2</ele>
        <time>2022-05-22 17:27:48</time>
      </trkpt>
      <trkpt lat="42.46715" lon="1.19186">
        <ele>798.4</ele>
        <time>2022-05-22 17:27:49</time>
      </trkpt>
      <trkpt lat="42.46717" lon="1.19192">
        <ele>798.6</ele>
        <time>2022-05-22 17:27:50</time>
      </trkpt>
      <trkpt lat="42.4672" lon="1.19198">
        <ele>798.8</ele>
        <time>2022-05-22 17:27:51</time>
      </trkpt>
      <trkpt lat="42.46722" lon="1.19204">
        <ele>799</ele>
        <time>2022-05-22 17:27:52</time>
      </trkpt>
      <trkpt lat="42.46724" lon="1.19211">
        <ele>799</ele>
        <time>2022-05-22 17:27:53</time>
      </trkpt>
      <trkpt lat="42.46726" lon="1.19218">
        <ele>799.2</ele>
        <time>2022-05-22 17:27:54</time>
      </trkpt>
      <trkpt lat="42.46727" lon="1.19225">
        <ele>799.4</ele>
        <time>2022-05-22 17:27:55</time>
      </trkpt>
      <trkpt lat="42.46728" lon="1.19232">
        <ele>799.4</ele>
        <time>2022-05-22 17:27:56</time>
      </trkpt>
      <trkpt lat="42.46729" lon="1.19239">
        <ele>799.6</ele>
        <time>2022-05-22 17:27:57</time>
      </trkpt>
      <trkpt lat="42.46729" lon="1.19247">
        <ele>799.6</ele>
        <time>2022-05-22 17:27:58</time>
      </trkpt>
      <trkpt lat="42.46729" lon="1.19255">
        <ele>799.8</ele>
        <time>2022-05-22 17:27:59</time>
      </trkpt>
      <trkpt lat="42.46728" lon="1.19263">
        <ele>799.8</ele>
        <time>2022-05-22 17:28:00</time>
      </trkpt>
      <trkpt lat="42.46727" lon="1.19271">
        <ele>800</ele>
        <time>2022-05-22 17:28:01</time>
      </trkpt>
      <trkpt lat="42.46725" lon="1.1928">
        <ele>800.2</ele>
        <time>2022-05-22 17:28:02</time>
      </trkpt>
      <trkpt lat="42.46725" lon="1.19287">
        <ele>800.2</ele>
        <time>2022-05-22 17:28:03</time>
      </trkpt>
      <trkpt lat="42.46724" lon="1.19295">
        <ele>800.2</ele>
        <time>2022-05-22 17:28:04</time>
      </trkpt>
      <trkpt lat="42.46722" lon="1.19304">
        <ele>800.2</ele>
        <time>2022-05-22 17:28:05</time>
      </trkpt>
      <trkpt lat="42.4672" lon="1.19312">
        <ele>800.4</ele>
        <time>2022-05-22 17:28:06</time>
      </trkpt>
      <trkpt lat="42.46719" lon="1.19321">
        <ele>800.2</ele>
        <time>2022-05-22 17:28:07</time>
      </trkpt>
      <trkpt lat="42.46718" lon="1.1933">
        <ele>800.2</ele>
        <time>2022-05-22 17:28:08</time>
      </trkpt>
      <trkpt lat="42.46716" lon="1.19338">
        <ele>800.2</ele>
        <time>2022-05-22 17:28:09</time>
      </trkpt>
      <trkpt lat="42.46714" lon="1.19347">
        <ele>800</ele>
        <time>2022-05-22 17:28:10</time>
      </trkpt>
      <trkpt lat="42.46713" lon="1.19355">
        <ele>800</ele>
        <time>2022-05-22 17:28:11</time>
      </trkpt>
      <trkpt lat="42.46711" lon="1.19363">
        <ele>800</ele>
        <time>2022-05-22 17:28:12</time>
      </trkpt>
      <trkpt lat="42.4671" lon="1.19371">
        <ele>800</ele>
        <time>2022-05-22 17:28:13</time>
      </trkpt>
      <trkpt lat="42.46708" lon="1.1938">
        <ele>800</ele>
        <time>2022-05-22 17:28:14</time>
      </trkpt>
      <trkpt lat="42.46706" lon="1.19388">
        <ele>800</ele>
        <time>2022-05-22 17:28:15</time>
      </trkpt>
      <trkpt lat="42.46705" lon="1.19397">
        <ele>800</ele>
        <time>2022-05-22 17:28:16</time>
      </trkpt>
      <trkpt lat="42.46704" lon="1.19405">
        <ele>799.8</ele>
        <time>2022-05-22 17:28:17</time>
      </trkpt>
      <trkpt lat="42.46703" lon="1.19415">
        <ele>799.6</ele>
        <time>2022-05-22 17:28:18</time>
      </trkpt>
      <trkpt lat="42.46702" lon="1.19424">
        <ele>799.6</ele>
        <time>2022-05-22 17:28:19</time>
      </trkpt>
      <trkpt lat="42.46702" lon="1.19433">
        <ele>799.4</ele>
        <time>2022-05-22 17:28:20</time>
      </trkpt>
      <trkpt lat="42.46701" lon="1.19442">
        <ele>799.2</ele>
        <time>2022-05-22 17:28:21</time>
      </trkpt>
      <trkpt lat="42.46701" lon="1.19452">
        <ele>799.2</ele>
        <time>2022-05-22 17:28:22</time>
      </trkpt>
      <trkpt lat="42.467" lon="1.19462">
        <ele>799</ele>
        <time>2022-05-22 17:28:23</time>
      </trkpt>
      <trkpt lat="42.467" lon="1.19471">
        <ele>798.8</ele>
        <time>2022-05-22 17:28:24</time>
      </trkpt>
      <trkpt lat="42.46699" lon="1.19481">
        <ele>798.8</ele>
        <time>2022-05-22 17:28:25</time>
      </trkpt>
      <trkpt lat="42.46698" lon="1.19491">
        <ele>798.8</ele>
        <time>2022-05-22 17:28:26</time>
      </trkpt>
      <trkpt lat="42.46697" lon="1.19502">
        <ele>798.8</ele>
        <time>2022-05-22 17:28:27</time>
      </trkpt>
      <trkpt lat="42.46695" lon="1.19512">
        <ele>798.8</ele>
        <time>2022-05-22 17:28:28</time>
      </trkpt>
      <trkpt lat="42.46694" lon="1.19523">
        <ele>798.6</ele>
        <time>2022-05-22 17:28:29</time>
      </trkpt>
      <trkpt lat="42.46692" lon="1.19533">
        <ele>798.6</ele>
        <time>2022-05-22 17:28:30</time>
      </trkpt>
      <trkpt lat="42.4669" lon="1.19543">
        <ele>798.6</ele>
        <time>2022-05-22 17:28:31</time>
      </trkpt>
      <trkpt lat="42.46688" lon="1.19553">
        <ele>798.6</ele>
        <time>2022-05-22 17:28:32</time>
      </trkpt>
      <trkpt lat="42.46686" lon="1.19563">
        <ele>798.6</ele>
        <time>2022-05-22 17:28:33</time>
      </trkpt>
      <trkpt lat="42.46684" lon="1.19572">
        <ele>798.6</ele>
        <time>2022-05-22 17:28:34</time>
      </trkpt>
      <trkpt lat="42.46682" lon="1.19582">
        <ele>798.6</ele>
        <time>2022-05-22 17:28:35</time>
      </trkpt>
      <trkpt lat="42.46681" lon="1.19592">
        <ele>798.6</ele>
        <time>2022-05-22 17:28:36</time>
      </trkpt>
      <trkpt lat="42.46679" lon="1.19601">
        <ele>798.6</ele>
        <time>2022-05-22 17:28:37</time>
      </trkpt>
      <trkpt lat="42.46677" lon="1.19611">
        <ele>798.6</ele>
        <time>2022-05-22 17:28:38</time>
      </trkpt>
      <trkpt lat="42.46675" lon="1.19621">
        <ele>798.6</ele>
        <time>2022-05-22 17:28:39</time>
      </trkpt>
      <trkpt lat="42.46674" lon="1.1963">
        <ele>798.8</ele>
        <time>2022-05-22 17:28:40</time>
      </trkpt>
      <trkpt lat="42.46673" lon="1.1964">
        <ele>798.8</ele>
        <time>2022-05-22 17:28:41</time>
      </trkpt>
      <trkpt lat="42.46673" lon="1.19649">
        <ele>799</ele>
        <time>2022-05-22 17:28:42</time>
      </trkpt>
      <trkpt lat="42.46673" lon="1.19658">
        <ele>799</ele>
        <time>2022-05-22 17:28:43</time>
      </trkpt>
      <trkpt lat="42.46674" lon="1.19667">
        <ele>799.2</ele>
        <time>2022-05-22 17:28:44</time>
      </trkpt>
      <trkpt lat="42.46673" lon="1.19675">
        <ele>799.2</ele>
        <time>2022-05-22 17:28:45</time>
      </trkpt>
      <trkpt lat="42.46673" lon="1.19684">
        <ele>799.2</ele>
        <time>2022-05-22 17:28:46</time>
      </trkpt>
      <trkpt lat="42.46673" lon="1.19692">
        <ele>799.4</ele>
        <time>2022-05-22 17:28:47</time>
      </trkpt>
      <trkpt lat="42.46673" lon="1.19701">
        <ele>799.4</ele>
        <time>2022-05-22 17:28:48</time>
      </trkpt>
      <trkpt lat="42.46673" lon="1.1971">
        <ele>799.6</ele>
        <time>2022-05-22 17:28:49</time>
      </trkpt>
      <trkpt lat="42.46673" lon="1.19718">
        <ele>799.6</ele>
        <time>2022-05-22 17:28:50</time>
      </trkpt>
      <trkpt lat="42.46673" lon="1.19727">
        <ele>799.6</ele>
        <time>2022-05-22 17:28:51</time>
      </trkpt>
      <trkpt lat="42.46673" lon="1.19736">
        <ele>799.8</ele>
        <time>2022-05-22 17:28:52</time>
      </trkpt>
      <trkpt lat="42.46673" lon="1.19744">
        <ele>800.2</ele>
        <time>2022-05-22 17:28:53</time>
      </trkpt>
      <trkpt lat="42.46673" lon="1.19751">
        <ele>800.4</ele>
        <time>2022-05-22 17:28:54</time>
      </trkpt>
      <trkpt lat="42.46673" lon="1.19759">
        <ele>800.6</ele>
        <time>2022-05-22 17:28:55</time>
      </trkpt>
      <trkpt lat="42.46673" lon="1.19767">
        <ele>800.8</ele>
        <time>2022-05-22 17:28:56</time>
      </trkpt>
      <trkpt lat="42.46673" lon="1.19775">
        <ele>801</ele>
        <time>2022-05-22 17:28:57</time>
      </trkpt>
      <trkpt lat="42.46672" lon="1.19782">
        <ele>801.2</ele>
        <time>2022-05-22 17:28:58</time>
      </trkpt>
      <trkpt lat="42.46672" lon="1.1979">
        <ele>801.2</ele>
        <time>2022-05-22 17:28:59</time>
      </trkpt>
      <trkpt lat="42.46671" lon="1.19798">
        <ele>801.4</ele>
        <time>2022-05-22 17:29:00</time>
      </trkpt>
      <trkpt lat="42.46671" lon="1.19805">
        <ele>801.6</ele>
        <time>2022-05-22 17:29:01</time>
      </trkpt>
      <trkpt lat="42.4667" lon="1.19813">
        <ele>801.6</ele>
        <time>2022-05-22 17:29:02</time>
      </trkpt>
      <trkpt lat="42.46669" lon="1.19821">
        <ele>801.6</ele>
        <time>2022-05-22 17:29:03</time>
      </trkpt>
      <trkpt lat="42.46668" lon="1.19829">
        <ele>801.8</ele>
        <time>2022-05-22 17:29:04</time>
      </trkpt>
      <trkpt lat="42.46667" lon="1.19837">
        <ele>801.8</ele>
        <time>2022-05-22 17:29:05</time>
      </trkpt>
      <trkpt lat="42.46666" lon="1.19844">
        <ele>802</ele>
        <time>2022-05-22 17:29:06</time>
      </trkpt>
      <trkpt lat="42.46665" lon="1.19852">
        <ele>802</ele>
        <time>2022-05-22 17:29:07</time>
      </trkpt>
      <trkpt lat="42.46663" lon="1.1986">
        <ele>802</ele>
        <time>2022-05-22 17:29:08</time>
      </trkpt>
      <trkpt lat="42.46663" lon="1.19869">
        <ele>802</ele>
        <time>2022-05-22 17:29:09</time>
      </trkpt>
      <trkpt lat="42.46662" lon="1.19878">
        <ele>802</ele>
        <time>2022-05-22 17:29:10</time>
      </trkpt>
      <trkpt lat="42.46662" lon="1.19886">
        <ele>802</ele>
        <time>2022-05-22 17:29:11</time>
      </trkpt>
      <trkpt lat="42.46661" lon="1.19894">
        <ele>801.8</ele>
        <time>2022-05-22 17:29:12</time>
      </trkpt>
      <trkpt lat="42.46661" lon="1.19902">
        <ele>801.8</ele>
        <time>2022-05-22 17:29:13</time>
      </trkpt>
      <trkpt lat="42.46661" lon="1.19911">
        <ele>801.6</ele>
        <time>2022-05-22 17:29:14</time>
      </trkpt>
      <trkpt lat="42.46661" lon="1.19919">
        <ele>801.6</ele>
        <time>2022-05-22 17:29:15</time>
      </trkpt>
      <trkpt lat="42.46661" lon="1.19928">
        <ele>801.4</ele>
        <time>2022-05-22 17:29:16</time>
      </trkpt>
      <trkpt lat="42.46662" lon="1.19936">
        <ele>801.2</ele>
        <time>2022-05-22 17:29:17</time>
      </trkpt>
      <trkpt lat="42.46663" lon="1.19945">
        <ele>801</ele>
        <time>2022-05-22 17:29:18</time>
      </trkpt>
      <trkpt lat="42.46665" lon="1.19953">
        <ele>800.8</ele>
        <time>2022-05-22 17:29:19</time>
      </trkpt>
      <trkpt lat="42.46666" lon="1.19961">
        <ele>800.8</ele>
        <time>2022-05-22 17:29:20</time>
      </trkpt>
      <trkpt lat="42.46669" lon="1.19969">
        <ele>800.6</ele>
        <time>2022-05-22 17:29:21</time>
      </trkpt>
      <trkpt lat="42.46671" lon="1.19976">
        <ele>800.4</ele>
        <time>2022-05-22 17:29:22</time>
      </trkpt>
      <trkpt lat="42.46675" lon="1.19984">
        <ele>800.4</ele>
        <time>2022-05-22 17:29:23</time>
      </trkpt>
      <trkpt lat="42.46678" lon="1.19992">
        <ele>800.2</ele>
        <time>2022-05-22 17:29:24</time>
      </trkpt>
      <trkpt lat="42.46681" lon="1.19999">
        <ele>800.2</ele>
        <time>2022-05-22 17:29:25</time>
      </trkpt>
      <trkpt lat="42.46686" lon="1.20006">
        <ele>800</ele>
        <time>2022-05-22 17:29:26</time>
      </trkpt>
      <trkpt lat="42.4669" lon="1.20013">
        <ele>799.8</ele>
        <time>2022-05-22 17:29:27</time>
      </trkpt>
      <trkpt lat="42.46695" lon="1.2002">
        <ele>799.6</ele>
        <time>2022-05-22 17:29:28</time>
      </trkpt>
      <trkpt lat="42.467" lon="1.20027">
        <ele>799.4</ele>
        <time>2022-05-22 17:29:29</time>
      </trkpt>
      <trkpt lat="42.46705" lon="1.20033">
        <ele>799.4</ele>
        <time>2022-05-22 17:29:30</time>
      </trkpt>
      <trkpt lat="42.4671" lon="1.20039">
        <ele>799.2</ele>
        <time>2022-05-22 17:29:31</time>
      </trkpt>
      <trkpt lat="42.46716" lon="1.20045">
        <ele>799.2</ele>
        <time>2022-05-22 17:29:32</time>
      </trkpt>
      <trkpt lat="42.46722" lon="1.20051">
        <ele>799.2</ele>
        <time>2022-05-22 17:29:33</time>
      </trkpt>
      <trkpt lat="42.46729" lon="1.20057">
        <ele>799.2</ele>
        <time>2022-05-22 17:29:34</time>
      </trkpt>
      <trkpt lat="42.46735" lon="1.20063">
        <ele>798.8</ele>
        <time>2022-05-22 17:29:35</time>
      </trkpt>
      <trkpt lat="42.46741" lon="1.20069">
        <ele>798.6</ele>
        <time>2022-05-22 17:29:36</time>
      </trkpt>
      <trkpt lat="42.46747" lon="1.20074">
        <ele>798.4</ele>
        <time>2022-05-22 17:29:37</time>
      </trkpt>
      <trkpt lat="42.46753" lon="1.2008">
        <ele>798.4</ele>
        <time>2022-05-22 17:29:38</time>
      </trkpt>
      <trkpt lat="42.46759" lon="1.20086">
        <ele>798.2</ele>
        <time>2022-05-22 17:29:39</time>
      </trkpt>
      <trkpt lat="42.46765" lon="1.20092">
        <ele>798</ele>
        <time>2022-05-22 17:29:40</time>
      </trkpt>
      <trkpt lat="42.46771" lon="1.20098">
        <ele>797.8</ele>
        <time>2022-05-22 17:29:41</time>
      </trkpt>
      <trkpt lat="42.46776" lon="1.20103">
        <ele>797.6</ele>
        <time>2022-05-22 17:29:42</time>
      </trkpt>
      <trkpt lat="42.46782" lon="1.20109">
        <ele>797.4</ele>
        <time>2022-05-22 17:29:43</time>
      </trkpt>
      <trkpt lat="42.46788" lon="1.20114">
        <ele>797.4</ele>
        <time>2022-05-22 17:29:44</time>
      </trkpt>
      <trkpt lat="42.46795" lon="1.20119">
        <ele>797.2</ele>
        <time>2022-05-22 17:29:45</time>
      </trkpt>
      <trkpt lat="42.468" lon="1.20123">
        <ele>797</ele>
        <time>2022-05-22 17:29:46</time>
      </trkpt>
      <trkpt lat="42.46806" lon="1.20127">
        <ele>797</ele>
        <time>2022-05-22 17:29:47</time>
      </trkpt>
      <trkpt lat="42.46812" lon="1.20131">
        <ele>797.2</ele>
        <time>2022-05-22 17:29:48</time>
      </trkpt>
      <trkpt lat="42.46819" lon="1.20135">
        <ele>797.4</ele>
        <time>2022-05-22 17:29:49</time>
      </trkpt>
      <trkpt lat="42.46825" lon="1.20138">
        <ele>797.2</ele>
        <time>2022-05-22 17:29:50</time>
      </trkpt>
      <trkpt lat="42.46832" lon="1.20142">
        <ele>797.2</ele>
        <time>2022-05-22 17:29:51</time>
      </trkpt>
      <trkpt lat="42.46838" lon="1.20145">
        <ele>797</ele>
        <time>2022-05-22 17:29:52</time>
      </trkpt>
      <trkpt lat="42.46846" lon="1.20149">
        <ele>797</ele>
        <time>2022-05-22 17:29:53</time>
      </trkpt>
      <trkpt lat="42.46854" lon="1.20154">
        <ele>797</ele>
        <time>2022-05-22 17:29:54</time>
      </trkpt>
      <trkpt lat="42.46861" lon="1.20158">
        <ele>797.2</ele>
        <time>2022-05-22 17:29:55</time>
      </trkpt>
      <trkpt lat="42.46867" lon="1.20161">
        <ele>797.2</ele>
        <time>2022-05-22 17:29:56</time>
      </trkpt>
      <trkpt lat="42.46873" lon="1.20165">
        <ele>797.4</ele>
        <time>2022-05-22 17:29:57</time>
      </trkpt>
      <trkpt lat="42.46879" lon="1.20169">
        <ele>797.6</ele>
        <time>2022-05-22 17:29:58</time>
      </trkpt>
      <trkpt lat="42.46885" lon="1.20173">
        <ele>797.8</ele>
        <time>2022-05-22 17:29:59</time>
      </trkpt>
      <trkpt lat="42.46891" lon="1.20177">
        <ele>798</ele>
        <time>2022-05-22 17:30:00</time>
      </trkpt>
      <trkpt lat="42.46896" lon="1.2018">
        <ele>798</ele>
        <time>2022-05-22 17:30:01</time>
      </trkpt>
      <trkpt lat="42.46902" lon="1.20184">
        <ele>798.2</ele>
        <time>2022-05-22 17:30:02</time>
      </trkpt>
      <trkpt lat="42.46908" lon="1.20188">
        <ele>798.2</ele>
        <time>2022-05-22 17:30:03</time>
      </trkpt>
      <trkpt lat="42.46914" lon="1.20193">
        <ele>798.2</ele>
        <time>2022-05-22 17:30:04</time>
      </trkpt>
      <trkpt lat="42.4692" lon="1.20197">
        <ele>798.2</ele>
        <time>2022-05-22 17:30:05</time>
      </trkpt>
      <trkpt lat="42.46925" lon="1.20202">
        <ele>798.2</ele>
        <time>2022-05-22 17:30:06</time>
      </trkpt>
      <trkpt lat="42.46931" lon="1.20206">
        <ele>798.4</ele>
        <time>2022-05-22 17:30:07</time>
      </trkpt>
      <trkpt lat="42.46937" lon="1.2021">
        <ele>798.4</ele>
        <time>2022-05-22 17:30:08</time>
      </trkpt>
      <trkpt lat="42.46943" lon="1.20215">
        <ele>798.4</ele>
        <time>2022-05-22 17:30:09</time>
      </trkpt>
      <trkpt lat="42.46948" lon="1.2022">
        <ele>798.4</ele>
        <time>2022-05-22 17:30:10</time>
      </trkpt>
      <trkpt lat="42.46954" lon="1.20224">
        <ele>798.6</ele>
        <time>2022-05-22 17:30:11</time>
      </trkpt>
      <trkpt lat="42.4696" lon="1.20228">
        <ele>798.8</ele>
        <time>2022-05-22 17:30:12</time>
      </trkpt>
      <trkpt lat="42.46965" lon="1.20232">
        <ele>799</ele>
        <time>2022-05-22 17:30:13</time>
      </trkpt>
      <trkpt lat="42.46971" lon="1.20236">
        <ele>799.2</ele>
        <time>2022-05-22 17:30:14</time>
      </trkpt>
      <trkpt lat="42.46977" lon="1.20239">
        <ele>799.4</ele>
        <time>2022-05-22 17:30:15</time>
      </trkpt>
      <trkpt lat="42.46983" lon="1.20243">
        <ele>799.6</ele>
        <time>2022-05-22 17:30:16</time>
      </trkpt>
      <trkpt lat="42.46988" lon="1.20246">
        <ele>799.8</ele>
        <time>2022-05-22 17:30:17</time>
      </trkpt>
      <trkpt lat="42.46994" lon="1.20249">
        <ele>800</ele>
        <time>2022-05-22 17:30:18</time>
      </trkpt>
      <trkpt lat="42.47" lon="1.20252">
        <ele>800.2</ele>
        <time>2022-05-22 17:30:19</time>
      </trkpt>
      <trkpt lat="42.47007" lon="1.20255">
        <ele>800.4</ele>
        <time>2022-05-22 17:30:20</time>
      </trkpt>
      <trkpt lat="42.47013" lon="1.20257">
        <ele>800.6</ele>
        <time>2022-05-22 17:30:21</time>
      </trkpt>
      <trkpt lat="42.47019" lon="1.2026">
        <ele>800.8</ele>
        <time>2022-05-22 17:30:22</time>
      </trkpt>
      <trkpt lat="42.47025" lon="1.20262">
        <ele>800.8</ele>
        <time>2022-05-22 17:30:23</time>
      </trkpt>
      <trkpt lat="42.47032" lon="1.20263">
        <ele>800.8</ele>
        <time>2022-05-22 17:30:24</time>
      </trkpt>
      <trkpt lat="42.47038" lon="1.20265">
        <ele>801</ele>
        <time>2022-05-22 17:30:25</time>
      </trkpt>
      <trkpt lat="42.47045" lon="1.20266">
        <ele>801</ele>
        <time>2022-05-22 17:30:26</time>
      </trkpt>
      <trkpt lat="42.47051" lon="1.20267">
        <ele>801.2</ele>
        <time>2022-05-22 17:30:27</time>
      </trkpt>
      <trkpt lat="42.47058" lon="1.20268">
        <ele>801.2</ele>
        <time>2022-05-22 17:30:28</time>
      </trkpt>
      <trkpt lat="42.47064" lon="1.20269">
        <ele>801.2</ele>
        <time>2022-05-22 17:30:29</time>
      </trkpt>
      <trkpt lat="42.47071" lon="1.20269">
        <ele>801.4</ele>
        <time>2022-05-22 17:30:30</time>
      </trkpt>
      <trkpt lat="42.47078" lon="1.20269">
        <ele>801.2</ele>
        <time>2022-05-22 17:30:31</time>
      </trkpt>
      <trkpt lat="42.47084" lon="1.20268">
        <ele>801.2</ele>
        <time>2022-05-22 17:30:32</time>
      </trkpt>
      <trkpt lat="42.47091" lon="1.20268">
        <ele>801.2</ele>
        <time>2022-05-22 17:30:33</time>
      </trkpt>
      <trkpt lat="42.47098" lon="1.20268">
        <ele>801</ele>
        <time>2022-05-22 17:30:34</time>
      </trkpt>
      <trkpt lat="42.47106" lon="1.20268">
        <ele>801</ele>
        <time>2022-05-22 17:30:35</time>
      </trkpt>
      <trkpt lat="42.47113" lon="1.20268">
        <ele>801</ele>
        <time>2022-05-22 17:30:36</time>
      </trkpt>
      <trkpt lat="42.4712" lon="1.20267">
        <ele>800.8</ele>
        <time>2022-05-22 17:30:37</time>
      </trkpt>
      <trkpt lat="42.47126" lon="1.20266">
        <ele>800.8</ele>
        <time>2022-05-22 17:30:38</time>
      </trkpt>
      <trkpt lat="42.47134" lon="1.20264">
        <ele>800.8</ele>
        <time>2022-05-22 17:30:39</time>
      </trkpt>
      <trkpt lat="42.47141" lon="1.20261">
        <ele>800.8</ele>
        <time>2022-05-22 17:30:40</time>
      </trkpt>
      <trkpt lat="42.47148" lon="1.20259">
        <ele>800.8</ele>
        <time>2022-05-22 17:30:41</time>
      </trkpt>
      <trkpt lat="42.47155" lon="1.20256">
        <ele>800.6</ele>
        <time>2022-05-22 17:30:42</time>
      </trkpt>
      <trkpt lat="42.47163" lon="1.20253">
        <ele>800.6</ele>
        <time>2022-05-22 17:30:43</time>
      </trkpt>
      <trkpt lat="42.4717" lon="1.2025">
        <ele>800.4</ele>
        <time>2022-05-22 17:30:44</time>
      </trkpt>
      <trkpt lat="42.47178" lon="1.20247">
        <ele>800.4</ele>
        <time>2022-05-22 17:30:45</time>
      </trkpt>
      <trkpt lat="42.47186" lon="1.20243">
        <ele>800.4</ele>
        <time>2022-05-22 17:30:46</time>
      </trkpt>
      <trkpt lat="42.47194" lon="1.20238">
        <ele>800.4</ele>
        <time>2022-05-22 17:30:47</time>
      </trkpt>
      <trkpt lat="42.47201" lon="1.20234">
        <ele>800.2</ele>
        <time>2022-05-22 17:30:48</time>
      </trkpt>
      <trkpt lat="42.47209" lon="1.2023">
        <ele>800.2</ele>
        <time>2022-05-22 17:30:49</time>
      </trkpt>
      <trkpt lat="42.47217" lon="1.20225">
        <ele>800.2</ele>
        <time>2022-05-22 17:30:50</time>
      </trkpt>
      <trkpt lat="42.47224" lon="1.2022">
        <ele>800.2</ele>
        <time>2022-05-22 17:30:51</time>
      </trkpt>
      <trkpt lat="42.47232" lon="1.20215">
        <ele>800.4</ele>
        <time>2022-05-22 17:30:52</time>
      </trkpt>
      <trkpt lat="42.4724" lon="1.2021">
        <ele>800.4</ele>
        <time>2022-05-22 17:30:53</time>
      </trkpt>
      <trkpt lat="42.47247" lon="1.20205">
        <ele>800.6</ele>
        <time>2022-05-22 17:30:54</time>
      </trkpt>
      <trkpt lat="42.47254" lon="1.20201">
        <ele>800.8</ele>
        <time>2022-05-22 17:30:55</time>
      </trkpt>
      <trkpt lat="42.47262" lon="1.20197">
        <ele>801</ele>
        <time>2022-05-22 17:30:56</time>
      </trkpt>
      <trkpt lat="42.47271" lon="1.20194">
        <ele>801.2</ele>
        <time>2022-05-22 17:30:57</time>
      </trkpt>
      <trkpt lat="42.4728" lon="1.20191">
        <ele>801.2</ele>
        <time>2022-05-22 17:30:58</time>
      </trkpt>
      <trkpt lat="42.47288" lon="1.20189">
        <ele>801.4</ele>
        <time>2022-05-22 17:30:59</time>
      </trkpt>
      <trkpt lat="42.47296" lon="1.20187">
        <ele>801.6</ele>
        <time>2022-05-22 17:31:00</time>
      </trkpt>
      <trkpt lat="42.47305" lon="1.20187">
        <ele>801.8</ele>
        <time>2022-05-22 17:31:01</time>
      </trkpt>
      <trkpt lat="42.47313" lon="1.20188">
        <ele>801.8</ele>
        <time>2022-05-22 17:31:02</time>
      </trkpt>
      <trkpt lat="42.47321" lon="1.20188">
        <ele>802</ele>
        <time>2022-05-22 17:31:03</time>
      </trkpt>
      <trkpt lat="42.47329" lon="1.20188">
        <ele>802</ele>
        <time>2022-05-22 17:31:04</time>
      </trkpt>
      <trkpt lat="42.47336" lon="1.20189">
        <ele>802.2</ele>
        <time>2022-05-22 17:31:05</time>
      </trkpt>
      <trkpt lat="42.47343" lon="1.20189">
        <ele>802.6</ele>
        <time>2022-05-22 17:31:06</time>
      </trkpt>
      <trkpt lat="42.47349" lon="1.2019">
        <ele>802.8</ele>
        <time>2022-05-22 17:31:07</time>
      </trkpt>
      <trkpt lat="42.47355" lon="1.20191">
        <ele>802.8</ele>
        <time>2022-05-22 17:31:08</time>
      </trkpt>
      <trkpt lat="42.47361" lon="1.20192">
        <ele>803</ele>
        <time>2022-05-22 17:31:09</time>
      </trkpt>
      <trkpt lat="42.47367" lon="1.20194">
        <ele>803.2</ele>
        <time>2022-05-22 17:31:10</time>
      </trkpt>
      <trkpt lat="42.47373" lon="1.20196">
        <ele>803.6</ele>
        <time>2022-05-22 17:31:11</time>
      </trkpt>
      <trkpt lat="42.47378" lon="1.20197">
        <ele>803.8</ele>
        <time>2022-05-22 17:31:12</time>
      </trkpt>
      <trkpt lat="42.47383" lon="1.20198">
        <ele>804.2</ele>
        <time>2022-05-22 17:31:13</time>
      </trkpt>
      <trkpt lat="42.47388" lon="1.202">
        <ele>804.4</ele>
        <time>2022-05-22 17:31:14</time>
      </trkpt>
      <trkpt lat="42.47392" lon="1.20201">
        <ele>804.6</ele>
        <time>2022-05-22 17:31:15</time>
      </trkpt>
      <trkpt lat="42.47396" lon="1.20203">
        <ele>804.8</ele>
        <time>2022-05-22 17:31:16</time>
      </trkpt>
      <trkpt lat="42.474" lon="1.20204">
        <ele>805.2</ele>
        <time>2022-05-22 17:31:17</time>
      </trkpt>
      <trkpt lat="42.47404" lon="1.20206">
        <ele>805.4</ele>
        <time>2022-05-22 17:31:18</time>
      </trkpt>
      <trkpt lat="42.47408" lon="1.20207">
        <ele>805.6</ele>
        <time>2022-05-22 17:31:19</time>
      </trkpt>
      <trkpt lat="42.47411" lon="1.20209">
        <ele>805.8</ele>
        <time>2022-05-22 17:31:20</time>
      </trkpt>
      <trkpt lat="42.47415" lon="1.20211">
        <ele>806</ele>
        <time>2022-05-22 17:31:21</time>
      </trkpt>
      <trkpt lat="42.47419" lon="1.20213">
        <ele>806.4</ele>
        <time>2022-05-22 17:31:22</time>
      </trkpt>
      <trkpt lat="42.47422" lon="1.20215">
        <ele>806.6</ele>
        <time>2022-05-22 17:31:23</time>
      </trkpt>
      <trkpt lat="42.47426" lon="1.20216">
        <ele>806.8</ele>
        <time>2022-05-22 17:31:24</time>
      </trkpt>
      <trkpt lat="42.47429" lon="1.20218">
        <ele>806.8</ele>
        <time>2022-05-22 17:31:25</time>
      </trkpt>
      <trkpt lat="42.47433" lon="1.20219">
        <ele>807</ele>
        <time>2022-05-22 17:31:26</time>
      </trkpt>
      <trkpt lat="42.47436" lon="1.20221">
        <ele>807.2</ele>
        <time>2022-05-22 17:31:27</time>
      </trkpt>
      <trkpt lat="42.47439" lon="1.20223">
        <ele>807.4</ele>
        <time>2022-05-22 17:31:28</time>
      </trkpt>
      <trkpt lat="42.47443" lon="1.20225">
        <ele>807.8</ele>
        <time>2022-05-22 17:31:29</time>
      </trkpt>
      <trkpt lat="42.47445" lon="1.20226">
        <ele>807.8</ele>
        <time>2022-05-22 17:31:30</time>
      </trkpt>
      <trkpt lat="42.47449" lon="1.20228">
        <ele>808</ele>
        <time>2022-05-22 17:31:31</time>
      </trkpt>
      <trkpt lat="42.47451" lon="1.20229">
        <ele>808.2</ele>
        <time>2022-05-22 17:31:32</time>
      </trkpt>
      <trkpt lat="42.47454" lon="1.20231">
        <ele>808.4</ele>
        <time>2022-05-22 17:31:33</time>
      </trkpt>
      <trkpt lat="42.47457" lon="1.20233">
        <ele>808.6</ele>
        <time>2022-05-22 17:31:34</time>
      </trkpt>
      <trkpt lat="42.4746" lon="1.20235">
        <ele>808.8</ele>
        <time>2022-05-22 17:31:35</time>
      </trkpt>
      <trkpt lat="42.47463" lon="1.20237">
        <ele>809</ele>
        <time>2022-05-22 17:31:36</time>
      </trkpt>
      <trkpt lat="42.47466" lon="1.20238">
        <ele>809.2</ele>
        <time>2022-05-22 17:31:37</time>
      </trkpt>
      <trkpt lat="42.47469" lon="1.2024">
        <ele>809.4</ele>
        <time>2022-05-22 17:31:38</time>
      </trkpt>
      <trkpt lat="42.47472" lon="1.20241">
        <ele>809.4</ele>
        <time>2022-05-22 17:31:39</time>
      </trkpt>
      <trkpt lat="42.47474" lon="1.20243">
        <ele>809.6</ele>
        <time>2022-05-22 17:31:40</time>
      </trkpt>
      <trkpt lat="42.47477" lon="1.20245">
        <ele>809.8</ele>
        <time>2022-05-22 17:31:41</time>
      </trkpt>
      <trkpt lat="42.4748" lon="1.20246">
        <ele>810</ele>
        <time>2022-05-22 17:31:42</time>
      </trkpt>
      <trkpt lat="42.47482" lon="1.20247">
        <ele>810.2</ele>
        <time>2022-05-22 17:31:43</time>
      </trkpt>
      <trkpt lat="42.47485" lon="1.20249">
        <ele>810.2</ele>
        <time>2022-05-22 17:31:44</time>
      </trkpt>
      <trkpt lat="42.47487" lon="1.2025">
        <ele>810.4</ele>
        <time>2022-05-22 17:31:45</time>
      </trkpt>
      <trkpt lat="42.4749" lon="1.20251">
        <ele>810.4</ele>
        <time>2022-05-22 17:31:46</time>
      </trkpt>
      <trkpt lat="42.47492" lon="1.20253">
        <ele>810.6</ele>
        <time>2022-05-22 17:31:47</time>
      </trkpt>
      <trkpt lat="42.47494" lon="1.20254">
        <ele>810.8</ele>
        <time>2022-05-22 17:31:48</time>
      </trkpt>
      <trkpt lat="42.47496" lon="1.20255">
        <ele>810.8</ele>
        <time>2022-05-22 17:31:49</time>
      </trkpt>
      <trkpt lat="42.47499" lon="1.20256">
        <ele>811</ele>
        <time>2022-05-22 17:31:50</time>
      </trkpt>
      <trkpt lat="42.47501" lon="1.20258">
        <ele>811.2</ele>
        <time>2022-05-22 17:31:51</time>
      </trkpt>
      <trkpt lat="42.47504" lon="1.20259">
        <ele>811.2</ele>
        <time>2022-05-22 17:31:52</time>
      </trkpt>
      <trkpt lat="42.47506" lon="1.2026">
        <ele>811.4</ele>
        <time>2022-05-22 17:31:53</time>
      </trkpt>
      <trkpt lat="42.47509" lon="1.20261">
        <ele>811.6</ele>
        <time>2022-05-22 17:31:54</time>
      </trkpt>
      <trkpt lat="42.47511" lon="1.20263">
        <ele>811.6</ele>
        <time>2022-05-22 17:31:55</time>
      </trkpt>
      <trkpt lat="42.47513" lon="1.20264">
        <ele>811.8</ele>
        <time>2022-05-22 17:31:56</time>
      </trkpt>
      <trkpt lat="42.47516" lon="1.20265">
        <ele>812</ele>
        <time>2022-05-22 17:31:57</time>
      </trkpt>
      <trkpt lat="42.47518" lon="1.20266">
        <ele>812.2</ele>
        <time>2022-05-22 17:31:58</time>
      </trkpt>
      <trkpt lat="42.47521" lon="1.20267">
        <ele>812.4</ele>
        <time>2022-05-22 17:31:59</time>
      </trkpt>
      <trkpt lat="42.47523" lon="1.20269">
        <ele>812.4</ele>
        <time>2022-05-22 17:32:00</time>
      </trkpt>
      <trkpt lat="42.47526" lon="1.2027">
        <ele>812.6</ele>
        <time>2022-05-22 17:32:01</time>
      </trkpt>
      <trkpt lat="42.47529" lon="1.20272">
        <ele>812.8</ele>
        <time>2022-05-22 17:32:02</time>
      </trkpt>
      <trkpt lat="42.47532" lon="1.20274">
        <ele>813</ele>
        <time>2022-05-22 17:32:03</time>
      </trkpt>
      <trkpt lat="42.47535" lon="1.20275">
        <ele>813</ele>
        <time>2022-05-22 17:32:04</time>
      </trkpt>
      <trkpt lat="42.47538" lon="1.20276">
        <ele>813.2</ele>
        <time>2022-05-22 17:32:05</time>
      </trkpt>
      <trkpt lat="42.47541" lon="1.20278">
        <ele>813.2</ele>
        <time>2022-05-22 17:32:06</time>
      </trkpt>
      <trkpt lat="42.47544" lon="1.20279">
        <ele>813.4</ele>
        <time>2022-05-22 17:32:07</time>
      </trkpt>
      <trkpt lat="42.47548" lon="1.20281">
        <ele>813.4</ele>
        <time>2022-05-22 17:32:08</time>
      </trkpt>
      <trkpt lat="42.47553" lon="1.20284">
        <ele>813.6</ele>
        <time>2022-05-22 17:32:09</time>
      </trkpt>
      <trkpt lat="42.47557" lon="1.20286">
        <ele>813.6</ele>
        <time>2022-05-22 17:32:10</time>
      </trkpt>
      <trkpt lat="42.4756" lon="1.20288">
        <ele>813.8</ele>
        <time>2022-05-22 17:32:11</time>
      </trkpt>
      <trkpt lat="42.47563" lon="1.2029">
        <ele>813.8</ele>
        <time>2022-05-22 17:32:12</time>
      </trkpt>
      <trkpt lat="42.47567" lon="1.20292">
        <ele>814</ele>
        <time>2022-05-22 17:32:13</time>
      </trkpt>
      <trkpt lat="42.47572" lon="1.20294">
        <ele>814.2</ele>
        <time>2022-05-22 17:32:14</time>
      </trkpt>
      <trkpt lat="42.47577" lon="1.20297">
        <ele>814.2</ele>
        <time>2022-05-22 17:32:15</time>
      </trkpt>
      <trkpt lat="42.47582" lon="1.20298">
        <ele>814.2</ele>
        <time>2022-05-22 17:32:16</time>
      </trkpt>
      <trkpt lat="42.47586" lon="1.203">
        <ele>814.4</ele>
        <time>2022-05-22 17:32:17</time>
      </trkpt>
      <trkpt lat="42.47591" lon="1.20302">
        <ele>814.4</ele>
        <time>2022-05-22 17:32:18</time>
      </trkpt>
      <trkpt lat="42.47596" lon="1.20304">
        <ele>814.6</ele>
        <time>2022-05-22 17:32:19</time>
      </trkpt>
      <trkpt lat="42.476" lon="1.20306">
        <ele>814.6</ele>
        <time>2022-05-22 17:32:20</time>
      </trkpt>
      <trkpt lat="42.47603" lon="1.20308">
        <ele>814.8</ele>
        <time>2022-05-22 17:32:21</time>
      </trkpt>
      <trkpt lat="42.47608" lon="1.2031">
        <ele>814.8</ele>
        <time>2022-05-22 17:32:22</time>
      </trkpt>
      <trkpt lat="42.47612" lon="1.20312">
        <ele>814.8</ele>
        <time>2022-05-22 17:32:23</time>
      </trkpt>
      <trkpt lat="42.47616" lon="1.20313">
        <ele>815</ele>
        <time>2022-05-22 17:32:24</time>
      </trkpt>
      <trkpt lat="42.4762" lon="1.20315">
        <ele>815</ele>
        <time>2022-05-22 17:32:25</time>
      </trkpt>
      <trkpt lat="42.47625" lon="1.20317">
        <ele>815</ele>
        <time>2022-05-22 17:32:26</time>
      </trkpt>
      <trkpt lat="42.47629" lon="1.2032">
        <ele>815</ele>
        <time>2022-05-22 17:32:27</time>
      </trkpt>
      <trkpt lat="42.47635" lon="1.20322">
        <ele>815.2</ele>
        <time>2022-05-22 17:32:28</time>
      </trkpt>
      <trkpt lat="42.47641" lon="1.20325">
        <ele>815</ele>
        <time>2022-05-22 17:32:29</time>
      </trkpt>
      <trkpt lat="42.47646" lon="1.20327">
        <ele>815</ele>
        <time>2022-05-22 17:32:30</time>
      </trkpt>
      <trkpt lat="42.47652" lon="1.20329">
        <ele>815</ele>
        <time>2022-05-22 17:32:31</time>
      </trkpt>
      <trkpt lat="42.47657" lon="1.20331">
        <ele>815</ele>
        <time>2022-05-22 17:32:32</time>
      </trkpt>
      <trkpt lat="42.47662" lon="1.20332">
        <ele>814.8</ele>
        <time>2022-05-22 17:32:33</time>
      </trkpt>
      <trkpt lat="42.47668" lon="1.20333">
        <ele>814.6</ele>
        <time>2022-05-22 17:32:34</time>
      </trkpt>
      <trkpt lat="42.47674" lon="1.20334">
        <ele>814.4</ele>
        <time>2022-05-22 17:32:35</time>
      </trkpt>
      <trkpt lat="42.4768" lon="1.20335">
        <ele>814.2</ele>
        <time>2022-05-22 17:32:36</time>
      </trkpt>
      <trkpt lat="42.47686" lon="1.20335">
        <ele>814</ele>
        <time>2022-05-22 17:32:37</time>
      </trkpt>
      <trkpt lat="42.47693" lon="1.20336">
        <ele>813.8</ele>
        <time>2022-05-22 17:32:38</time>
      </trkpt>
      <trkpt lat="42.477" lon="1.20335">
        <ele>813.6</ele>
        <time>2022-05-22 17:32:39</time>
      </trkpt>
      <trkpt lat="42.47707" lon="1.20334">
        <ele>813.4</ele>
        <time>2022-05-22 17:32:40</time>
      </trkpt>
      <trkpt lat="42.47715" lon="1.20333">
        <ele>813</ele>
        <time>2022-05-22 17:32:41</time>
      </trkpt>
      <trkpt lat="42.47722" lon="1.20332">
        <ele>812.8</ele>
        <time>2022-05-22 17:32:42</time>
      </trkpt>
      <trkpt lat="42.4773" lon="1.2033">
        <ele>812.6</ele>
        <time>2022-05-22 17:32:43</time>
      </trkpt>
      <trkpt lat="42.47738" lon="1.20327">
        <ele>812.2</ele>
        <time>2022-05-22 17:32:44</time>
      </trkpt>
      <trkpt lat="42.47746" lon="1.20325">
        <ele>812</ele>
        <time>2022-05-22 17:32:45</time>
      </trkpt>
      <trkpt lat="42.47754" lon="1.20322">
        <ele>811.8</ele>
        <time>2022-05-22 17:32:46</time>
      </trkpt>
      <trkpt lat="42.47762" lon="1.20321">
        <ele>811.4</ele>
        <time>2022-05-22 17:32:47</time>
      </trkpt>
      <trkpt lat="42.47771" lon="1.20319">
        <ele>811.2</ele>
        <time>2022-05-22 17:32:48</time>
      </trkpt>
      <trkpt lat="42.4778" lon="1.20318">
        <ele>810.8</ele>
        <time>2022-05-22 17:32:49</time>
      </trkpt>
      <trkpt lat="42.4779" lon="1.20319">
        <ele>810.6</ele>
        <time>2022-05-22 17:32:50</time>
      </trkpt>
      <trkpt lat="42.478" lon="1.20321">
        <ele>810.2</ele>
        <time>2022-05-22 17:32:51</time>
      </trkpt>
      <trkpt lat="42.4781" lon="1.20323">
        <ele>809.8</ele>
        <time>2022-05-22 17:32:52</time>
      </trkpt>
      <trkpt lat="42.47819" lon="1.20328">
        <ele>809.8</ele>
        <time>2022-05-22 17:32:53</time>
      </trkpt>
      <trkpt lat="42.47829" lon="1.20333">
        <ele>809.6</ele>
        <time>2022-05-22 17:32:54</time>
      </trkpt>
      <trkpt lat="42.47839" lon="1.20341">
        <ele>809.6</ele>
        <time>2022-05-22 17:32:55</time>
      </trkpt>
      <trkpt lat="42.47849" lon="1.20349">
        <ele>809.4</ele>
        <time>2022-05-22 17:32:56</time>
      </trkpt>
      <trkpt lat="42.47857" lon="1.20356">
        <ele>809.2</ele>
        <time>2022-05-22 17:32:57</time>
      </trkpt>
      <trkpt lat="42.47864" lon="1.20364">
        <ele>809.2</ele>
        <time>2022-05-22 17:32:58</time>
      </trkpt>
      <trkpt lat="42.47871" lon="1.20374">
        <ele>809.2</ele>
        <time>2022-05-22 17:32:59</time>
      </trkpt>
      <trkpt lat="42.47877" lon="1.20383">
        <ele>809.2</ele>
        <time>2022-05-22 17:33:00</time>
      </trkpt>
      <trkpt lat="42.47883" lon="1.20392">
        <ele>809.2</ele>
        <time>2022-05-22 17:33:01</time>
      </trkpt>
      <trkpt lat="42.47889" lon="1.20402">
        <ele>809.2</ele>
        <time>2022-05-22 17:33:02</time>
      </trkpt>
      <trkpt lat="42.47893" lon="1.20411">
        <ele>809.4</ele>
        <time>2022-05-22 17:33:03</time>
      </trkpt>
      <trkpt lat="42.47898" lon="1.20422">
        <ele>809.6</ele>
        <time>2022-05-22 17:33:04</time>
      </trkpt>
      <trkpt lat="42.47901" lon="1.20432">
        <ele>809.6</ele>
        <time>2022-05-22 17:33:05</time>
      </trkpt>
      <trkpt lat="42.47905" lon="1.20442">
        <ele>809.6</ele>
        <time>2022-05-22 17:33:06</time>
      </trkpt>
      <trkpt lat="42.47908" lon="1.20452">
        <ele>809.6</ele>
        <time>2022-05-22 17:33:07</time>
      </trkpt>
      <trkpt lat="42.47912" lon="1.20462">
        <ele>809.8</ele>
        <time>2022-05-22 17:33:08</time>
      </trkpt>
      <trkpt lat="42.47915" lon="1.20472">
        <ele>809.8</ele>
        <time>2022-05-22 17:33:09</time>
      </trkpt>
      <trkpt lat="42.47919" lon="1.20482">
        <ele>809.8</ele>
        <time>2022-05-22 17:33:10</time>
      </trkpt>
      <trkpt lat="42.47922" lon="1.20491">
        <ele>810</ele>
        <time>2022-05-22 17:33:11</time>
      </trkpt>
      <trkpt lat="42.47925" lon="1.205">
        <ele>810</ele>
        <time>2022-05-22 17:33:12</time>
      </trkpt>
      <trkpt lat="42.47928" lon="1.20508">
        <ele>810.2</ele>
        <time>2022-05-22 17:33:13</time>
      </trkpt>
      <trkpt lat="42.47931" lon="1.20516">
        <ele>810.4</ele>
        <time>2022-05-22 17:33:14</time>
      </trkpt>
      <trkpt lat="42.47935" lon="1.20524">
        <ele>810.6</ele>
        <time>2022-05-22 17:33:15</time>
      </trkpt>
      <trkpt lat="42.47938" lon="1.20531">
        <ele>810.8</ele>
        <time>2022-05-22 17:33:16</time>
      </trkpt>
      <trkpt lat="42.47942" lon="1.20537">
        <ele>811</ele>
        <time>2022-05-22 17:33:17</time>
      </trkpt>
      <trkpt lat="42.47945" lon="1.20543">
        <ele>811.2</ele>
        <time>2022-05-22 17:33:18</time>
      </trkpt>
      <trkpt lat="42.47949" lon="1.20549">
        <ele>811.4</ele>
        <time>2022-05-22 17:33:19</time>
      </trkpt>
      <trkpt lat="42.47953" lon="1.20554">
        <ele>811.6</ele>
        <time>2022-05-22 17:33:20</time>
      </trkpt>
      <trkpt lat="42.47957" lon="1.20559">
        <ele>812</ele>
        <time>2022-05-22 17:33:21</time>
      </trkpt>
      <trkpt lat="42.4796" lon="1.20563">
        <ele>812</ele>
        <time>2022-05-22 17:33:22</time>
      </trkpt>
      <trkpt lat="42.47964" lon="1.20567">
        <ele>812.2</ele>
        <time>2022-05-22 17:33:23</time>
      </trkpt>
      <trkpt lat="42.47969" lon="1.20571">
        <ele>812.4</ele>
        <time>2022-05-22 17:33:24</time>
      </trkpt>
      <trkpt lat="42.47973" lon="1.20575">
        <ele>812.4</ele>
        <time>2022-05-22 17:33:25</time>
      </trkpt>
      <trkpt lat="42.47977" lon="1.20578">
        <ele>812.6</ele>
        <time>2022-05-22 17:33:26</time>
      </trkpt>
      <trkpt lat="42.47981" lon="1.20582">
        <ele>812.8</ele>
        <time>2022-05-22 17:33:27</time>
      </trkpt>
      <trkpt lat="42.47986" lon="1.20585">
        <ele>813</ele>
        <time>2022-05-22 17:33:28</time>
      </trkpt>
      <trkpt lat="42.4799" lon="1.20589">
        <ele>813</ele>
        <time>2022-05-22 17:33:29</time>
      </trkpt>
      <trkpt lat="42.47994" lon="1.20592">
        <ele>813</ele>
        <time>2022-05-22 17:33:30</time>
      </trkpt>
      <trkpt lat="42.47998" lon="1.20595">
        <ele>813.2</ele>
        <time>2022-05-22 17:33:31</time>
      </trkpt>
      <trkpt lat="42.48002" lon="1.20599">
        <ele>813.2</ele>
        <time>2022-05-22 17:33:32</time>
      </trkpt>
      <trkpt lat="42.48006" lon="1.20602">
        <ele>813.2</ele>
        <time>2022-05-22 17:33:33</time>
      </trkpt>
      <trkpt lat="42.4801" lon="1.20606">
        <ele>813.2</ele>
        <time>2022-05-22 17:33:34</time>
      </trkpt>
      <trkpt lat="42.48014" lon="1.20609">
        <ele>813.4</ele>
        <time>2022-05-22 17:33:35</time>
      </trkpt>
      <trkpt lat="42.48019" lon="1.20612">
        <ele>813.4</ele>
        <time>2022-05-22 17:33:36</time>
      </trkpt>
      <trkpt lat="42.48023" lon="1.20616">
        <ele>813.4</ele>
        <time>2022-05-22 17:33:37</time>
      </trkpt>
      <trkpt lat="42.48027" lon="1.20619">
        <ele>813.6</ele>
        <time>2022-05-22 17:33:38</time>
      </trkpt>
      <trkpt lat="42.48032" lon="1.20622">
        <ele>813.6</ele>
        <time>2022-05-22 17:33:39</time>
      </trkpt>
      <trkpt lat="42.48037" lon="1.20625">
        <ele>813.6</ele>
        <time>2022-05-22 17:33:40</time>
      </trkpt>
      <trkpt lat="42.48041" lon="1.20628">
        <ele>813.6</ele>
        <time>2022-05-22 17:33:41</time>
      </trkpt>
      <trkpt lat="42.48046" lon="1.20631">
        <ele>813.6</ele>
        <time>2022-05-22 17:33:42</time>
      </trkpt>
      <trkpt lat="42.4805" lon="1.20635">
        <ele>813.6</ele>
        <time>2022-05-22 17:33:43</time>
      </trkpt>
      <trkpt lat="42.48054" lon="1.20638">
        <ele>813.6</ele>
        <time>2022-05-22 17:33:44</time>
      </trkpt>
      <trkpt lat="42.48059" lon="1.2064">
        <ele>813.6</ele>
        <time>2022-05-22 17:33:45</time>
      </trkpt>
      <trkpt lat="42.48064" lon="1.20643">
        <ele>813.6</ele>
        <time>2022-05-22 17:33:46</time>
      </trkpt>
      <trkpt lat="42.48069" lon="1.20646">
        <ele>813.6</ele>
        <time>2022-05-22 17:33:47</time>
      </trkpt>
      <trkpt lat="42.48074" lon="1.20649">
        <ele>813.4</ele>
        <time>2022-05-22 17:33:48</time>
      </trkpt>
      <trkpt lat="42.48078" lon="1.20652">
        <ele>813.4</ele>
        <time>2022-05-22 17:33:49</time>
      </trkpt>
      <trkpt lat="42.48083" lon="1.20655">
        <ele>813.4</ele>
        <time>2022-05-22 17:33:50</time>
      </trkpt>
      <trkpt lat="42.48087" lon="1.20657">
        <ele>813.2</ele>
        <time>2022-05-22 17:33:51</time>
      </trkpt>
      <trkpt lat="42.48092" lon="1.2066">
        <ele>813.4</ele>
        <time>2022-05-22 17:33:52</time>
      </trkpt>
      <trkpt lat="42.48097" lon="1.20663">
        <ele>813.4</ele>
        <time>2022-05-22 17:33:53</time>
      </trkpt>
      <trkpt lat="42.48102" lon="1.20665">
        <ele>813.4</ele>
        <time>2022-05-22 17:33:54</time>
      </trkpt>
      <trkpt lat="42.48107" lon="1.20668">
        <ele>813.6</ele>
        <time>2022-05-22 17:33:55</time>
      </trkpt>
      <trkpt lat="42.48112" lon="1.2067">
        <ele>813.6</ele>
        <time>2022-05-22 17:33:56</time>
      </trkpt>
      <trkpt lat="42.48116" lon="1.20673">
        <ele>813.8</ele>
        <time>2022-05-22 17:33:57</time>
      </trkpt>
      <trkpt lat="42.4812" lon="1.20675">
        <ele>814</ele>
        <time>2022-05-22 17:33:58</time>
      </trkpt>
      <trkpt lat="42.48125" lon="1.20677">
        <ele>814.2</ele>
        <time>2022-05-22 17:33:59</time>
      </trkpt>
      <trkpt lat="42.48129" lon="1.20679">
        <ele>814.4</ele>
        <time>2022-05-22 17:34:00</time>
      </trkpt>
      <trkpt lat="42.48133" lon="1.20681">
        <ele>814.6</ele>
        <time>2022-05-22 17:34:01</time>
      </trkpt>
      <trkpt lat="42.48137" lon="1.20682">
        <ele>814.8</ele>
        <time>2022-05-22 17:34:02</time>
      </trkpt>
      <trkpt lat="42.48141" lon="1.20684">
        <ele>815</ele>
        <time>2022-05-22 17:34:03</time>
      </trkpt>
      <trkpt lat="42.48145" lon="1.20686">
        <ele>815.2</ele>
        <time>2022-05-22 17:34:04</time>
      </trkpt>
      <trkpt lat="42.48149" lon="1.20688">
        <ele>815.2</ele>
        <time>2022-05-22 17:34:05</time>
      </trkpt>
      <trkpt lat="42.48153" lon="1.20691">
        <ele>815.4</ele>
        <time>2022-05-22 17:34:06</time>
      </trkpt>
      <trkpt lat="42.48157" lon="1.20693">
        <ele>815.4</ele>
        <time>2022-05-22 17:34:07</time>
      </trkpt>
      <trkpt lat="42.48161" lon="1.20695">
        <ele>815.6</ele>
        <time>2022-05-22 17:34:08</time>
      </trkpt>
      <trkpt lat="42.48165" lon="1.20696">
        <ele>815.8</ele>
        <time>2022-05-22 17:34:09</time>
      </trkpt>
      <trkpt lat="42.48169" lon="1.20698">
        <ele>816</ele>
        <time>2022-05-22 17:34:10</time>
      </trkpt>
      <trkpt lat="42.48173" lon="1.207">
        <ele>816.2</ele>
        <time>2022-05-22 17:34:11</time>
      </trkpt>
      <trkpt lat="42.48177" lon="1.20701">
        <ele>816.4</ele>
        <time>2022-05-22 17:34:12</time>
      </trkpt>
      <trkpt lat="42.48181" lon="1.20703">
        <ele>816.6</ele>
        <time>2022-05-22 17:34:13</time>
      </trkpt>
      <trkpt lat="42.48184" lon="1.20704">
        <ele>816.8</ele>
        <time>2022-05-22 17:34:14</time>
      </trkpt>
      <trkpt lat="42.48188" lon="1.20705">
        <ele>817</ele>
        <time>2022-05-22 17:34:15</time>
      </trkpt>
      <trkpt lat="42.48191" lon="1.20706">
        <ele>817.2</ele>
        <time>2022-05-22 17:34:16</time>
      </trkpt>
      <trkpt lat="42.48194" lon="1.20707">
        <ele>817.4</ele>
        <time>2022-05-22 17:34:17</time>
      </trkpt>
      <trkpt lat="42.48197" lon="1.20708">
        <ele>817.6</ele>
        <time>2022-05-22 17:34:18</time>
      </trkpt>
      <trkpt lat="42.482" lon="1.20709">
        <ele>817.8</ele>
        <time>2022-05-22 17:34:19</time>
      </trkpt>
      <trkpt lat="42.48203" lon="1.20709">
        <ele>818</ele>
        <time>2022-05-22 17:34:20</time>
      </trkpt>
      <trkpt lat="42.48206" lon="1.2071">
        <ele>818.2</ele>
        <time>2022-05-22 17:34:21</time>
      </trkpt>
      <trkpt lat="42.48209" lon="1.20711">
        <ele>818.4</ele>
        <time>2022-05-22 17:34:22</time>
      </trkpt>
      <trkpt lat="42.48212" lon="1.20711">
        <ele>818.6</ele>
        <time>2022-05-22 17:34:23</time>
      </trkpt>
      <trkpt lat="42.48214" lon="1.20712">
        <ele>818.8</ele>
        <time>2022-05-22 17:34:24</time>
      </trkpt>
      <trkpt lat="42.48218" lon="1.20712">
        <ele>819</ele>
        <time>2022-05-22 17:34:25</time>
      </trkpt>
      <trkpt lat="42.4822" lon="1.20713">
        <ele>819.2</ele>
        <time>2022-05-22 17:34:26</time>
      </trkpt>
      <trkpt lat="42.48223" lon="1.20713">
        <ele>819.4</ele>
        <time>2022-05-22 17:34:27</time>
      </trkpt>
      <trkpt lat="42.48226" lon="1.20714">
        <ele>819.6</ele>
        <time>2022-05-22 17:34:28</time>
      </trkpt>
      <trkpt lat="42.48229" lon="1.20715">
        <ele>819.8</ele>
        <time>2022-05-22 17:34:29</time>
      </trkpt>
      <trkpt lat="42.48232" lon="1.20716">
        <ele>819.8</ele>
        <time>2022-05-22 17:34:30</time>
      </trkpt>
      <trkpt lat="42.48234" lon="1.20717">
        <ele>820</ele>
        <time>2022-05-22 17:34:31</time>
      </trkpt>
      <trkpt lat="42.48237" lon="1.20717">
        <ele>820.2</ele>
        <time>2022-05-22 17:34:32</time>
      </trkpt>
      <trkpt lat="42.4824" lon="1.20718">
        <ele>820.4</ele>
        <time>2022-05-22 17:34:33</time>
      </trkpt>
      <trkpt lat="42.48243" lon="1.20719">
        <ele>820.4</ele>
        <time>2022-05-22 17:34:34</time>
      </trkpt>
      <trkpt lat="42.48245" lon="1.20719">
        <ele>820.6</ele>
        <time>2022-05-22 17:34:35</time>
      </trkpt>
      <trkpt lat="42.48248" lon="1.2072">
        <ele>820.8</ele>
        <time>2022-05-22 17:34:36</time>
      </trkpt>
      <trkpt lat="42.48251" lon="1.2072">
        <ele>820.8</ele>
        <time>2022-05-22 17:34:37</time>
      </trkpt>
      <trkpt lat="42.48253" lon="1.2072">
        <ele>821</ele>
        <time>2022-05-22 17:34:38</time>
      </trkpt>
      <trkpt lat="42.48256" lon="1.20721">
        <ele>821</ele>
        <time>2022-05-22 17:34:39</time>
      </trkpt>
      <trkpt lat="42.48259" lon="1.20721">
        <ele>821.2</ele>
        <time>2022-05-22 17:34:40</time>
      </trkpt>
      <trkpt lat="42.48261" lon="1.20722">
        <ele>821.4</ele>
        <time>2022-05-22 17:34:41</time>
      </trkpt>
      <trkpt lat="42.48264" lon="1.20722">
        <ele>821.6</ele>
        <time>2022-05-22 17:34:42</time>
      </trkpt>
      <trkpt lat="42.48266" lon="1.20723">
        <ele>821.8</ele>
        <time>2022-05-22 17:34:43</time>
      </trkpt>
      <trkpt lat="42.48269" lon="1.20724">
        <ele>821.8</ele>
        <time>2022-05-22 17:34:44</time>
      </trkpt>
      <trkpt lat="42.48272" lon="1.20725">
        <ele>822</ele>
        <time>2022-05-22 17:34:45</time>
      </trkpt>
      <trkpt lat="42.48275" lon="1.20726">
        <ele>822.2</ele>
        <time>2022-05-22 17:34:46</time>
      </trkpt>
      <trkpt lat="42.48278" lon="1.20727">
        <ele>822.2</ele>
        <time>2022-05-22 17:34:47</time>
      </trkpt>
      <trkpt lat="42.4828" lon="1.20727">
        <ele>822.4</ele>
        <time>2022-05-22 17:34:48</time>
      </trkpt>
      <trkpt lat="42.48283" lon="1.20729">
        <ele>822.6</ele>
        <time>2022-05-22 17:34:49</time>
      </trkpt>
      <trkpt lat="42.48286" lon="1.2073">
        <ele>822.8</ele>
        <time>2022-05-22 17:34:50</time>
      </trkpt>
      <trkpt lat="42.48289" lon="1.20731">
        <ele>823</ele>
        <time>2022-05-22 17:34:51</time>
      </trkpt>
      <trkpt lat="42.48291" lon="1.20732">
        <ele>823</ele>
        <time>2022-05-22 17:34:52</time>
      </trkpt>
      <trkpt lat="42.48294" lon="1.20734">
        <ele>823.2</ele>
        <time>2022-05-22 17:34:53</time>
      </trkpt>
      <trkpt lat="42.48297" lon="1.20736">
        <ele>823.4</ele>
        <time>2022-05-22 17:34:54</time>
      </trkpt>
      <trkpt lat="42.48299" lon="1.20738">
        <ele>823.6</ele>
        <time>2022-05-22 17:34:55</time>
      </trkpt>
      <trkpt lat="42.48302" lon="1.2074">
        <ele>823.6</ele>
        <time>2022-05-22 17:34:56</time>
      </trkpt>
      <trkpt lat="42.48305" lon="1.20742">
        <ele>823.8</ele>
        <time>2022-05-22 17:34:57</time>
      </trkpt>
      <trkpt lat="42.48308" lon="1.20744">
        <ele>824</ele>
        <time>2022-05-22 17:34:58</time>
      </trkpt>
      <trkpt lat="42.4831" lon="1.20746">
        <ele>824</ele>
        <time>2022-05-22 17:34:59</time>
      </trkpt>
      <trkpt lat="42.48313" lon="1.20748">
        <ele>824.2</ele>
        <time>2022-05-22 17:35:00</time>
      </trkpt>
      <trkpt lat="42.48316" lon="1.20751">
        <ele>824.4</ele>
        <time>2022-05-22 17:35:01</time>
      </trkpt>
      <trkpt lat="42.48318" lon="1.20753">
        <ele>824.4</ele>
        <time>2022-05-22 17:35:02</time>
      </trkpt>
      <trkpt lat="42.48321" lon="1.20756">
        <ele>824.6</ele>
        <time>2022-05-22 17:35:03</time>
      </trkpt>
      <trkpt lat="42.48323" lon="1.20759">
        <ele>824.8</ele>
        <time>2022-05-22 17:35:04</time>
      </trkpt>
      <trkpt lat="42.48326" lon="1.20761">
        <ele>825</ele>
        <time>2022-05-22 17:35:05</time>
      </trkpt>
      <trkpt lat="42.48328" lon="1.20764">
        <ele>825.2</ele>
        <time>2022-05-22 17:35:06</time>
      </trkpt>
      <trkpt lat="42.4833" lon="1.20767">
        <ele>825.2</ele>
        <time>2022-05-22 17:35:07</time>
      </trkpt>
      <trkpt lat="42.48333" lon="1.2077">
        <ele>825.4</ele>
        <time>2022-05-22 17:35:08</time>
      </trkpt>
      <trkpt lat="42.48335" lon="1.20773">
        <ele>825.4</ele>
        <time>2022-05-22 17:35:09</time>
      </trkpt>
      <trkpt lat="42.48338" lon="1.20776">
        <ele>825.6</ele>
        <time>2022-05-22 17:35:10</time>
      </trkpt>
      <trkpt lat="42.4834" lon="1.20779">
        <ele>825.6</ele>
        <time>2022-05-22 17:35:11</time>
      </trkpt>
      <trkpt lat="42.48342" lon="1.20783">
        <ele>825.6</ele>
        <time>2022-05-22 17:35:12</time>
      </trkpt>
      <trkpt lat="42.48344" lon="1.20786">
        <ele>825.6</ele>
        <time>2022-05-22 17:35:13</time>
      </trkpt>
      <trkpt lat="42.48346" lon="1.2079">
        <ele>825.6</ele>
        <time>2022-05-22 17:35:14</time>
      </trkpt>
      <trkpt lat="42.48348" lon="1.20794">
        <ele>825.8</ele>
        <time>2022-05-22 17:35:15</time>
      </trkpt>
      <trkpt lat="42.4835" lon="1.20798">
        <ele>825.8</ele>
        <time>2022-05-22 17:35:16</time>
      </trkpt>
      <trkpt lat="42.48352" lon="1.20802">
        <ele>825.8</ele>
        <time>2022-05-22 17:35:17</time>
      </trkpt>
      <trkpt lat="42.48354" lon="1.20805">
        <ele>826</ele>
        <time>2022-05-22 17:35:18</time>
      </trkpt>
      <trkpt lat="42.48356" lon="1.20809">
        <ele>826</ele>
        <time>2022-05-22 17:35:19</time>
      </trkpt>
      <trkpt lat="42.48358" lon="1.20813">
        <ele>826.2</ele>
        <time>2022-05-22 17:35:20</time>
      </trkpt>
      <trkpt lat="42.48359" lon="1.20817">
        <ele>826.2</ele>
        <time>2022-05-22 17:35:21</time>
      </trkpt>
      <trkpt lat="42.48361" lon="1.20821">
        <ele>826.4</ele>
        <time>2022-05-22 17:35:22</time>
      </trkpt>
      <trkpt lat="42.48363" lon="1.20824">
        <ele>826.4</ele>
        <time>2022-05-22 17:35:23</time>
      </trkpt>
      <trkpt lat="42.48365" lon="1.20828">
        <ele>826.4</ele>
        <time>2022-05-22 17:35:24</time>
      </trkpt>
      <trkpt lat="42.48366" lon="1.20832">
        <ele>826.6</ele>
        <time>2022-05-22 17:35:25</time>
      </trkpt>
      <trkpt lat="42.48368" lon="1.20836">
        <ele>826.6</ele>
        <time>2022-05-22 17:35:26</time>
      </trkpt>
      <trkpt lat="42.48369" lon="1.2084">
        <ele>826.6</ele>
        <time>2022-05-22 17:35:27</time>
      </trkpt>
      <trkpt lat="42.48371" lon="1.20844">
        <ele>826.8</ele>
        <time>2022-05-22 17:35:28</time>
      </trkpt>
      <trkpt lat="42.48372" lon="1.20848">
        <ele>826.8</ele>
        <time>2022-05-22 17:35:29</time>
      </trkpt>
      <trkpt lat="42.48374" lon="1.20852">
        <ele>827</ele>
        <time>2022-05-22 17:35:30</time>
      </trkpt>
      <trkpt lat="42.48376" lon="1.20857">
        <ele>827</ele>
        <time>2022-05-22 17:35:31</time>
      </trkpt>
      <trkpt lat="42.48378" lon="1.20861">
        <ele>827</ele>
        <time>2022-05-22 17:35:32</time>
      </trkpt>
      <trkpt lat="42.48379" lon="1.20866">
        <ele>827.2</ele>
        <time>2022-05-22 17:35:33</time>
      </trkpt>
      <trkpt lat="42.48381" lon="1.20871">
        <ele>827.2</ele>
        <time>2022-05-22 17:35:34</time>
      </trkpt>
      <trkpt lat="42.48384" lon="1.20876">
        <ele>827.2</ele>
        <time>2022-05-22 17:35:35</time>
      </trkpt>
      <trkpt lat="42.48385" lon="1.20882">
        <ele>827.4</ele>
        <time>2022-05-22 17:35:36</time>
      </trkpt>
      <trkpt lat="42.48387" lon="1.20887">
        <ele>827.4</ele>
        <time>2022-05-22 17:35:37</time>
      </trkpt>
      <trkpt lat="42.48389" lon="1.20892">
        <ele>827.4</ele>
        <time>2022-05-22 17:35:38</time>
      </trkpt>
      <trkpt lat="42.48391" lon="1.20898">
        <ele>827.4</ele>
        <time>2022-05-22 17:35:39</time>
      </trkpt>
      <trkpt lat="42.48393" lon="1.20903">
        <ele>827.4</ele>
        <time>2022-05-22 17:35:40</time>
      </trkpt>
      <trkpt lat="42.48396" lon="1.20908">
        <ele>827.4</ele>
        <time>2022-05-22 17:35:41</time>
      </trkpt>
      <trkpt lat="42.48399" lon="1.20914">
        <ele>827.6</ele>
        <time>2022-05-22 17:35:42</time>
      </trkpt>
      <trkpt lat="42.48402" lon="1.20919">
        <ele>827.4</ele>
        <time>2022-05-22 17:35:43</time>
      </trkpt>
      <trkpt lat="42.48405" lon="1.20925">
        <ele>827.4</ele>
        <time>2022-05-22 17:35:44</time>
      </trkpt>
      <trkpt lat="42.48408" lon="1.20931">
        <ele>827.4</ele>
        <time>2022-05-22 17:35:45</time>
      </trkpt>
      <trkpt lat="42.48411" lon="1.20936">
        <ele>827.4</ele>
        <time>2022-05-22 17:35:46</time>
      </trkpt>
      <trkpt lat="42.48414" lon="1.20942">
        <ele>827.2</ele>
        <time>2022-05-22 17:35:47</time>
      </trkpt>
      <trkpt lat="42.48418" lon="1.20947">
        <ele>827.2</ele>
        <time>2022-05-22 17:35:48</time>
      </trkpt>
      <trkpt lat="42.48422" lon="1.20953">
        <ele>827</ele>
        <time>2022-05-22 17:35:49</time>
      </trkpt>
      <trkpt lat="42.48426" lon="1.20958">
        <ele>826.8</ele>
        <time>2022-05-22 17:35:50</time>
      </trkpt>
      <trkpt lat="42.4843" lon="1.20964">
        <ele>826.8</ele>
        <time>2022-05-22 17:35:51</time>
      </trkpt>
      <trkpt lat="42.48436" lon="1.20971">
        <ele>826.6</ele>
        <time>2022-05-22 17:35:52</time>
      </trkpt>
      <trkpt lat="42.48441" lon="1.20977">
        <ele>826.4</ele>
        <time>2022-05-22 17:35:53</time>
      </trkpt>
      <trkpt lat="42.48446" lon="1.20984">
        <ele>826.2</ele>
        <time>2022-05-22 17:35:54</time>
      </trkpt>
      <trkpt lat="42.48452" lon="1.2099">
        <ele>826</ele>
        <time>2022-05-22 17:35:55</time>
      </trkpt>
      <trkpt lat="42.48457" lon="1.20997">
        <ele>825.8</ele>
        <time>2022-05-22 17:35:56</time>
      </trkpt>
      <trkpt lat="42.48463" lon="1.21005">
        <ele>825.4</ele>
        <time>2022-05-22 17:35:57</time>
      </trkpt>
      <trkpt lat="42.48468" lon="1.21014">
        <ele>825.2</ele>
        <time>2022-05-22 17:35:58</time>
      </trkpt>
      <trkpt lat="42.48474" lon="1.21023">
        <ele>824.8</ele>
        <time>2022-05-22 17:35:59</time>
      </trkpt>
      <trkpt lat="42.48479" lon="1.21032">
        <ele>824.6</ele>
        <time>2022-05-22 17:36:00</time>
      </trkpt>
      <trkpt lat="42.48485" lon="1.21041">
        <ele>824.4</ele>
        <time>2022-05-22 17:36:01</time>
      </trkpt>
      <trkpt lat="42.48491" lon="1.21049">
        <ele>824</ele>
        <time>2022-05-22 17:36:02</time>
      </trkpt>
      <trkpt lat="42.48496" lon="1.21058">
        <ele>823.6</ele>
        <time>2022-05-22 17:36:03</time>
      </trkpt>
      <trkpt lat="42.48503" lon="1.21066">
        <ele>823.2</ele>
        <time>2022-05-22 17:36:04</time>
      </trkpt>
      <trkpt lat="42.48509" lon="1.21074">
        <ele>822.8</ele>
        <time>2022-05-22 17:36:05</time>
      </trkpt>
      <trkpt lat="42.48516" lon="1.21082">
        <ele>822.4</ele>
        <time>2022-05-22 17:36:06</time>
      </trkpt>
      <trkpt lat="42.48523" lon="1.21089">
        <ele>822</ele>
        <time>2022-05-22 17:36:07</time>
      </trkpt>
      <trkpt lat="42.4853" lon="1.21096">
        <ele>821.6</ele>
        <time>2022-05-22 17:36:08</time>
      </trkpt>
      <trkpt lat="42.48537" lon="1.21103">
        <ele>821.2</ele>
        <time>2022-05-22 17:36:09</time>
      </trkpt>
      <trkpt lat="42.48545" lon="1.21111">
        <ele>820.8</ele>
        <time>2022-05-22 17:36:10</time>
      </trkpt>
      <trkpt lat="42.48552" lon="1.21119">
        <ele>820.4</ele>
        <time>2022-05-22 17:36:11</time>
      </trkpt>
      <trkpt lat="42.48559" lon="1.21128">
        <ele>820.2</ele>
        <time>2022-05-22 17:36:12</time>
      </trkpt>
      <trkpt lat="42.48565" lon="1.21138">
        <ele>820</ele>
        <time>2022-05-22 17:36:13</time>
      </trkpt>
      <trkpt lat="42.48571" lon="1.21148">
        <ele>819.8</ele>
        <time>2022-05-22 17:36:14</time>
      </trkpt>
      <trkpt lat="42.48577" lon="1.21159">
        <ele>819.6</ele>
        <time>2022-05-22 17:36:15</time>
      </trkpt>
      <trkpt lat="42.48583" lon="1.21169">
        <ele>819.2</ele>
        <time>2022-05-22 17:36:16</time>
      </trkpt>
      <trkpt lat="42.48588" lon="1.21179">
        <ele>819</ele>
        <time>2022-05-22 17:36:17</time>
      </trkpt>
      <trkpt lat="42.48595" lon="1.21189">
        <ele>818.8</ele>
        <time>2022-05-22 17:36:18</time>
      </trkpt>
      <trkpt lat="42.48601" lon="1.21197">
        <ele>818.6</ele>
        <time>2022-05-22 17:36:19</time>
      </trkpt>
      <trkpt lat="42.48608" lon="1.21204">
        <ele>818.6</ele>
        <time>2022-05-22 17:36:20</time>
      </trkpt>
      <trkpt lat="42.48616" lon="1.2121">
        <ele>818.4</ele>
        <time>2022-05-22 17:36:21</time>
      </trkpt>
      <trkpt lat="42.48624" lon="1.21216">
        <ele>818.2</ele>
        <time>2022-05-22 17:36:22</time>
      </trkpt>
      <trkpt lat="42.48632" lon="1.21221">
        <ele>818.2</ele>
        <time>2022-05-22 17:36:23</time>
      </trkpt>
      <trkpt lat="42.4864" lon="1.21226">
        <ele>818</ele>
        <time>2022-05-22 17:36:24</time>
      </trkpt>
      <trkpt lat="42.48647" lon="1.21231">
        <ele>818</ele>
        <time>2022-05-22 17:36:25</time>
      </trkpt>
      <trkpt lat="42.48655" lon="1.21236">
        <ele>818.2</ele>
        <time>2022-05-22 17:36:26</time>
      </trkpt>
      <trkpt lat="42.48663" lon="1.2124">
        <ele>818.2</ele>
        <time>2022-05-22 17:36:27</time>
      </trkpt>
      <trkpt lat="42.4867" lon="1.21243">
        <ele>818.2</ele>
        <time>2022-05-22 17:36:28</time>
      </trkpt>
      <trkpt lat="42.48677" lon="1.21246">
        <ele>818.2</ele>
        <time>2022-05-22 17:36:29</time>
      </trkpt>
      <trkpt lat="42.48684" lon="1.21249">
        <ele>818.2</ele>
        <time>2022-05-22 17:36:30</time>
      </trkpt>
      <trkpt lat="42.48691" lon="1.21251">
        <ele>818.4</ele>
        <time>2022-05-22 17:36:31</time>
      </trkpt>
      <trkpt lat="42.48699" lon="1.21252">
        <ele>818.4</ele>
        <time>2022-05-22 17:36:32</time>
      </trkpt>
      <trkpt lat="42.48707" lon="1.21253">
        <ele>818.6</ele>
        <time>2022-05-22 17:36:33</time>
      </trkpt>
      <trkpt lat="42.48714" lon="1.21253">
        <ele>818.6</ele>
        <time>2022-05-22 17:36:34</time>
      </trkpt>
      <trkpt lat="42.48721" lon="1.21252">
        <ele>818.8</ele>
        <time>2022-05-22 17:36:35</time>
      </trkpt>
      <trkpt lat="42.48729" lon="1.21251">
        <ele>819</ele>
        <time>2022-05-22 17:36:36</time>
      </trkpt>
      <trkpt lat="42.48736" lon="1.21249">
        <ele>819</ele>
        <time>2022-05-22 17:36:37</time>
      </trkpt>
      <trkpt lat="42.48742" lon="1.21245">
        <ele>819.2</ele>
        <time>2022-05-22 17:36:38</time>
      </trkpt>
      <trkpt lat="42.48749" lon="1.21241">
        <ele>819.2</ele>
        <time>2022-05-22 17:36:39</time>
      </trkpt>
      <trkpt lat="42.48755" lon="1.21237">
        <ele>819.4</ele>
        <time>2022-05-22 17:36:40</time>
      </trkpt>
      <trkpt lat="42.48761" lon="1.21233">
        <ele>819.6</ele>
        <time>2022-05-22 17:36:41</time>
      </trkpt>
      <trkpt lat="42.48767" lon="1.21228">
        <ele>819.8</ele>
        <time>2022-05-22 17:36:42</time>
      </trkpt>
      <trkpt lat="42.48772" lon="1.21221">
        <ele>819.8</ele>
        <time>2022-05-22 17:36:43</time>
      </trkpt>
      <trkpt lat="42.48777" lon="1.21214">
        <ele>820</ele>
        <time>2022-05-22 17:36:44</time>
      </trkpt>
      <trkpt lat="42.48782" lon="1.21207">
        <ele>820</ele>
        <time>2022-05-22 17:36:45</time>
      </trkpt>
      <trkpt lat="42.48786" lon="1.21201">
        <ele>820.2</ele>
        <time>2022-05-22 17:36:46</time>
      </trkpt>
      <trkpt lat="42.48791" lon="1.21193">
        <ele>820.2</ele>
        <time>2022-05-22 17:36:47</time>
      </trkpt>
      <trkpt lat="42.48796" lon="1.21185">
        <ele>820.4</ele>
        <time>2022-05-22 17:36:48</time>
      </trkpt>
      <trkpt lat="42.488" lon="1.21177">
        <ele>820.6</ele>
        <time>2022-05-22 17:36:49</time>
      </trkpt>
      <trkpt lat="42.48804" lon="1.21169">
        <ele>820.6</ele>
        <time>2022-05-22 17:36:50</time>
      </trkpt>
      <trkpt lat="42.48808" lon="1.21161">
        <ele>820.6</ele>
        <time>2022-05-22 17:36:51</time>
      </trkpt>
      <trkpt lat="42.48813" lon="1.21153">
        <ele>820.6</ele>
        <time>2022-05-22 17:36:52</time>
      </trkpt>
      <trkpt lat="42.48817" lon="1.21145">
        <ele>820.6</ele>
        <time>2022-05-22 17:36:53</time>
      </trkpt>
      <trkpt lat="42.48822" lon="1.21138">
        <ele>820.6</ele>
        <time>2022-05-22 17:36:54</time>
      </trkpt>
      <trkpt lat="42.48827" lon="1.2113">
        <ele>820.8</ele>
        <time>2022-05-22 17:36:55</time>
      </trkpt>
      <trkpt lat="42.48832" lon="1.21123">
        <ele>820.6</ele>
        <time>2022-05-22 17:36:56</time>
      </trkpt>
      <trkpt lat="42.48837" lon="1.21116">
        <ele>820.6</ele>
        <time>2022-05-22 17:36:57</time>
      </trkpt>
      <trkpt lat="42.48843" lon="1.21109">
        <ele>820.6</ele>
        <time>2022-05-22 17:36:58</time>
      </trkpt>
      <trkpt lat="42.48848" lon="1.21103">
        <ele>820.4</ele>
        <time>2022-05-22 17:36:59</time>
      </trkpt>
      <trkpt lat="42.48855" lon="1.21098">
        <ele>820.4</ele>
        <time>2022-05-22 17:37:00</time>
      </trkpt>
      <trkpt lat="42.48862" lon="1.21093">
        <ele>820.4</ele>
        <time>2022-05-22 17:37:01</time>
      </trkpt>
      <trkpt lat="42.48869" lon="1.21089">
        <ele>820.4</ele>
        <time>2022-05-22 17:37:02</time>
      </trkpt>
      <trkpt lat="42.48877" lon="1.21084">
        <ele>820.4</ele>
        <time>2022-05-22 17:37:03</time>
      </trkpt>
      <trkpt lat="42.48883" lon="1.2108">
        <ele>820.2</ele>
        <time>2022-05-22 17:37:04</time>
      </trkpt>
      <trkpt lat="42.48891" lon="1.21076">
        <ele>820</ele>
        <time>2022-05-22 17:37:05</time>
      </trkpt>
      <trkpt lat="42.48899" lon="1.21073">
        <ele>819.8</ele>
        <time>2022-05-22 17:37:06</time>
      </trkpt>
      <trkpt lat="42.48909" lon="1.21072">
        <ele>819.4</ele>
        <time>2022-05-22 17:37:07</time>
      </trkpt>
      <trkpt lat="42.48918" lon="1.2107">
        <ele>819.2</ele>
        <time>2022-05-22 17:37:08</time>
      </trkpt>
      <trkpt lat="42.48928" lon="1.21069">
        <ele>819</ele>
        <time>2022-05-22 17:37:09</time>
      </trkpt>
      <trkpt lat="42.48937" lon="1.21069">
        <ele>818.8</ele>
        <time>2022-05-22 17:37:10</time>
      </trkpt>
      <trkpt lat="42.48946" lon="1.21068">
        <ele>818.6</ele>
        <time>2022-05-22 17:37:11</time>
      </trkpt>
      <trkpt lat="42.48956" lon="1.21069">
        <ele>818</ele>
        <time>2022-05-22 17:37:12</time>
      </trkpt>
      <trkpt lat="42.48967" lon="1.21069">
        <ele>817.4</ele>
        <time>2022-05-22 17:37:13</time>
      </trkpt>
      <trkpt lat="42.48977" lon="1.2107">
        <ele>817</ele>
        <time>2022-05-22 17:37:14</time>
      </trkpt>
      <trkpt lat="42.48987" lon="1.2107">
        <ele>816.4</ele>
        <time>2022-05-22 17:37:15</time>
      </trkpt>
      <trkpt lat="42.48997" lon="1.2107">
        <ele>816</ele>
        <time>2022-05-22 17:37:16</time>
      </trkpt>
      <trkpt lat="42.49007" lon="1.2107">
        <ele>815.6</ele>
        <time>2022-05-22 17:37:17</time>
      </trkpt>
      <trkpt lat="42.49017" lon="1.21071">
        <ele>815.4</ele>
        <time>2022-05-22 17:37:18</time>
      </trkpt>
      <trkpt lat="42.49027" lon="1.21072">
        <ele>815.2</ele>
        <time>2022-05-22 17:37:19</time>
      </trkpt>
      <trkpt lat="42.49037" lon="1.21073">
        <ele>815.2</ele>
        <time>2022-05-22 17:37:20</time>
      </trkpt>
      <trkpt lat="42.49046" lon="1.21074">
        <ele>815</ele>
        <time>2022-05-22 17:37:21</time>
      </trkpt>
      <trkpt lat="42.49055" lon="1.21076">
        <ele>815</ele>
        <time>2022-05-22 17:37:22</time>
      </trkpt>
      <trkpt lat="42.49064" lon="1.21078">
        <ele>815</ele>
        <time>2022-05-22 17:37:23</time>
      </trkpt>
      <trkpt lat="42.49073" lon="1.2108">
        <ele>815.2</ele>
        <time>2022-05-22 17:37:24</time>
      </trkpt>
      <trkpt lat="42.49082" lon="1.21083">
        <ele>815.2</ele>
        <time>2022-05-22 17:37:25</time>
      </trkpt>
      <trkpt lat="42.49091" lon="1.21086">
        <ele>815.4</ele>
        <time>2022-05-22 17:37:26</time>
      </trkpt>
      <trkpt lat="42.49098" lon="1.2109">
        <ele>815.6</ele>
        <time>2022-05-22 17:37:27</time>
      </trkpt>
      <trkpt lat="42.49106" lon="1.21094">
        <ele>816</ele>
        <time>2022-05-22 17:37:28</time>
      </trkpt>
      <trkpt lat="42.49113" lon="1.21098">
        <ele>816.4</ele>
        <time>2022-05-22 17:37:29</time>
      </trkpt>
      <trkpt lat="42.49119" lon="1.21103">
        <ele>816.6</ele>
        <time>2022-05-22 17:37:30</time>
      </trkpt>
      <trkpt lat="42.49125" lon="1.21107">
        <ele>817</ele>
        <time>2022-05-22 17:37:31</time>
      </trkpt>
      <trkpt lat="42.4913" lon="1.21112">
        <ele>817.2</ele>
        <time>2022-05-22 17:37:32</time>
      </trkpt>
      <trkpt lat="42.49134" lon="1.21117">
        <ele>817.6</ele>
        <time>2022-05-22 17:37:33</time>
      </trkpt>
      <trkpt lat="42.49138" lon="1.21122">
        <ele>817.8</ele>
        <time>2022-05-22 17:37:34</time>
      </trkpt>
      <trkpt lat="42.49142" lon="1.21126">
        <ele>818.2</ele>
        <time>2022-05-22 17:37:35</time>
      </trkpt>
      <trkpt lat="42.49146" lon="1.21131">
        <ele>818.6</ele>
        <time>2022-05-22 17:37:36</time>
      </trkpt>
      <trkpt lat="42.49149" lon="1.21136">
        <ele>818.8</ele>
        <time>2022-05-22 17:37:37</time>
      </trkpt>
      <trkpt lat="42.49151" lon="1.21142">
        <ele>819.2</ele>
        <time>2022-05-22 17:37:38</time>
      </trkpt>
      <trkpt lat="42.49155" lon="1.21147">
        <ele>819.4</ele>
        <time>2022-05-22 17:37:39</time>
      </trkpt>
      <trkpt lat="42.49157" lon="1.21153">
        <ele>819.8</ele>
        <time>2022-05-22 17:37:40</time>
      </trkpt>
      <trkpt lat="42.4916" lon="1.21159">
        <ele>820</ele>
        <time>2022-05-22 17:37:41</time>
      </trkpt>
      <trkpt lat="42.49163" lon="1.21165">
        <ele>820.2</ele>
        <time>2022-05-22 17:37:42</time>
      </trkpt>
      <trkpt lat="42.49166" lon="1.2117">
        <ele>820.4</ele>
        <time>2022-05-22 17:37:43</time>
      </trkpt>
      <trkpt lat="42.49168" lon="1.21175">
        <ele>820.6</ele>
        <time>2022-05-22 17:37:44</time>
      </trkpt>
      <trkpt lat="42.4917" lon="1.21179">
        <ele>820.8</ele>
        <time>2022-05-22 17:37:45</time>
      </trkpt>
      <trkpt lat="42.49172" lon="1.21183">
        <ele>821</ele>
        <time>2022-05-22 17:37:46</time>
      </trkpt>
      <trkpt lat="42.49175" lon="1.21186">
        <ele>821</ele>
        <time>2022-05-22 17:37:47</time>
      </trkpt>
      <trkpt lat="42.49177" lon="1.2119">
        <ele>821.2</ele>
        <time>2022-05-22 17:37:48</time>
      </trkpt>
      <trkpt lat="42.4918" lon="1.21193">
        <ele>821.4</ele>
        <time>2022-05-22 17:37:49</time>
      </trkpt>
      <trkpt lat="42.49182" lon="1.21197">
        <ele>821.6</ele>
        <time>2022-05-22 17:37:50</time>
      </trkpt>
      <trkpt lat="42.49185" lon="1.212">
        <ele>821.8</ele>
        <time>2022-05-22 17:37:51</time>
      </trkpt>
      <trkpt lat="42.49188" lon="1.21204">
        <ele>822</ele>
        <time>2022-05-22 17:37:52</time>
      </trkpt>
      <trkpt lat="42.49191" lon="1.21208">
        <ele>822</ele>
        <time>2022-05-22 17:37:53</time>
      </trkpt>
      <trkpt lat="42.49194" lon="1.21212">
        <ele>822</ele>
        <time>2022-05-22 17:37:54</time>
      </trkpt>
      <trkpt lat="42.49196" lon="1.21216">
        <ele>822.4</ele>
        <time>2022-05-22 17:37:55</time>
      </trkpt>
      <trkpt lat="42.49199" lon="1.21219">
        <ele>822.4</ele>
        <time>2022-05-22 17:37:56</time>
      </trkpt>
      <trkpt lat="42.49202" lon="1.21223">
        <ele>822.6</ele>
        <time>2022-05-22 17:37:57</time>
      </trkpt>
      <trkpt lat="42.49204" lon="1.21227">
        <ele>822.8</ele>
        <time>2022-05-22 17:37:58</time>
      </trkpt>
      <trkpt lat="42.49207" lon="1.21231">
        <ele>822.8</ele>
        <time>2022-05-22 17:37:59</time>
      </trkpt>
      <trkpt lat="42.49209" lon="1.21234">
        <ele>823</ele>
        <time>2022-05-22 17:38:00</time>
      </trkpt>
      <trkpt lat="42.49213" lon="1.21237">
        <ele>823</ele>
        <time>2022-05-22 17:38:01</time>
      </trkpt>
      <trkpt lat="42.49219" lon="1.2124">
        <ele>823.2</ele>
        <time>2022-05-22 17:38:02</time>
      </trkpt>
      <trkpt lat="42.49224" lon="1.21242">
        <ele>823.2</ele>
        <time>2022-05-22 17:38:03</time>
      </trkpt>
      <trkpt lat="42.4923" lon="1.21244">
        <ele>823.4</ele>
        <time>2022-05-22 17:38:04</time>
      </trkpt>
      <trkpt lat="42.49235" lon="1.21247">
        <ele>823.6</ele>
        <time>2022-05-22 17:38:05</time>
      </trkpt>
      <trkpt lat="42.49241" lon="1.21249">
        <ele>823.6</ele>
        <time>2022-05-22 17:38:06</time>
      </trkpt>
      <trkpt lat="42.49247" lon="1.21251">
        <ele>823.8</ele>
        <time>2022-05-22 17:38:07</time>
      </trkpt>
      <trkpt lat="42.49252" lon="1.21254">
        <ele>823.8</ele>
        <time>2022-05-22 17:38:08</time>
      </trkpt>
      <trkpt lat="42.49258" lon="1.21256">
        <ele>824</ele>
        <time>2022-05-22 17:38:09</time>
      </trkpt>
      <trkpt lat="42.49263" lon="1.21259">
        <ele>824</ele>
        <time>2022-05-22 17:38:10</time>
      </trkpt>
      <trkpt lat="42.49269" lon="1.21261">
        <ele>824.2</ele>
        <time>2022-05-22 17:38:11</time>
      </trkpt>
      <trkpt lat="42.49275" lon="1.21263">
        <ele>824.2</ele>
        <time>2022-05-22 17:38:12</time>
      </trkpt>
      <trkpt lat="42.4928" lon="1.21266">
        <ele>824.4</ele>
        <time>2022-05-22 17:38:13</time>
      </trkpt>
      <trkpt lat="42.49286" lon="1.21268">
        <ele>824.4</ele>
        <time>2022-05-22 17:38:14</time>
      </trkpt>
      <trkpt lat="42.49292" lon="1.21268">
        <ele>824.4</ele>
        <time>2022-05-22 17:38:15</time>
      </trkpt>
      <trkpt lat="42.49298" lon="1.21266">
        <ele>824.6</ele>
        <time>2022-05-22 17:38:16</time>
      </trkpt>
      <trkpt lat="42.49305" lon="1.21265">
        <ele>824.6</ele>
        <time>2022-05-22 17:38:17</time>
      </trkpt>
      <trkpt lat="42.4931" lon="1.21264">
        <ele>824.6</ele>
        <time>2022-05-22 17:38:18</time>
      </trkpt>
      <trkpt lat="42.49315" lon="1.21262">
        <ele>824.6</ele>
        <time>2022-05-22 17:38:19</time>
      </trkpt>
      <trkpt lat="42.4932" lon="1.21259">
        <ele>824.6</ele>
        <time>2022-05-22 17:38:20</time>
      </trkpt>
      <trkpt lat="42.49324" lon="1.21254">
        <ele>824.6</ele>
        <time>2022-05-22 17:38:21</time>
      </trkpt>
      <trkpt lat="42.49331" lon="1.21249">
        <ele>824.4</ele>
        <time>2022-05-22 17:38:22</time>
      </trkpt>
      <trkpt lat="42.49337" lon="1.21244">
        <ele>824.4</ele>
        <time>2022-05-22 17:38:23</time>
      </trkpt>
      <trkpt lat="42.49342" lon="1.2124">
        <ele>824.2</ele>
        <time>2022-05-22 17:38:24</time>
      </trkpt>
      <trkpt lat="42.49347" lon="1.21236">
        <ele>824</ele>
        <time>2022-05-22 17:38:25</time>
      </trkpt>
      <trkpt lat="42.49351" lon="1.21231">
        <ele>824</ele>
        <time>2022-05-22 17:38:26</time>
      </trkpt>
      <trkpt lat="42.49354" lon="1.21225">
        <ele>823.8</ele>
        <time>2022-05-22 17:38:27</time>
      </trkpt>
      <trkpt lat="42.49358" lon="1.2122">
        <ele>823.8</ele>
        <time>2022-05-22 17:38:28</time>
      </trkpt>
      <trkpt lat="42.49361" lon="1.21214">
        <ele>823.6</ele>
        <time>2022-05-22 17:38:29</time>
      </trkpt>
      <trkpt lat="42.49365" lon="1.21208">
        <ele>823.6</ele>
        <time>2022-05-22 17:38:30</time>
      </trkpt>
      <trkpt lat="42.49369" lon="1.21202">
        <ele>823.4</ele>
        <time>2022-05-22 17:38:31</time>
      </trkpt>
      <trkpt lat="42.49373" lon="1.21196">
        <ele>823.4</ele>
        <time>2022-05-22 17:38:32</time>
      </trkpt>
      <trkpt lat="42.49377" lon="1.2119">
        <ele>823.2</ele>
        <time>2022-05-22 17:38:33</time>
      </trkpt>
      <trkpt lat="42.49381" lon="1.21184">
        <ele>823.2</ele>
        <time>2022-05-22 17:38:34</time>
      </trkpt>
      <trkpt lat="42.49385" lon="1.21178">
        <ele>823</ele>
        <time>2022-05-22 17:38:35</time>
      </trkpt>
      <trkpt lat="42.49389" lon="1.21174">
        <ele>823</ele>
        <time>2022-05-22 17:38:36</time>
      </trkpt>
      <trkpt lat="42.49396" lon="1.21167">
        <ele>822.6</ele>
        <time>2022-05-22 17:38:37</time>
      </trkpt>
      <trkpt lat="42.49402" lon="1.21163">
        <ele>822.6</ele>
        <time>2022-05-22 17:38:38</time>
      </trkpt>
      <trkpt lat="42.49408" lon="1.21159">
        <ele>822.4</ele>
        <time>2022-05-22 17:38:39</time>
      </trkpt>
      <trkpt lat="42.49414" lon="1.21157">
        <ele>822.2</ele>
        <time>2022-05-22 17:38:40</time>
      </trkpt>
      <trkpt lat="42.49421" lon="1.21156">
        <ele>822.2</ele>
        <time>2022-05-22 17:38:41</time>
      </trkpt>
      <trkpt lat="42.49427" lon="1.21156">
        <ele>822</ele>
        <time>2022-05-22 17:38:42</time>
      </trkpt>
      <trkpt lat="42.49434" lon="1.21157">
        <ele>821.8</ele>
        <time>2022-05-22 17:38:43</time>
      </trkpt>
      <trkpt lat="42.49441" lon="1.21159">
        <ele>821.8</ele>
        <time>2022-05-22 17:38:44</time>
      </trkpt>
      <trkpt lat="42.49448" lon="1.21161">
        <ele>821.6</ele>
        <time>2022-05-22 17:38:45</time>
      </trkpt>
      <trkpt lat="42.49454" lon="1.21163">
        <ele>821.6</ele>
        <time>2022-05-22 17:38:46</time>
      </trkpt>
      <trkpt lat="42.49462" lon="1.21166">
        <ele>821.6</ele>
        <time>2022-05-22 17:38:47</time>
      </trkpt>
      <trkpt lat="42.49469" lon="1.21169">
        <ele>821.6</ele>
        <time>2022-05-22 17:38:48</time>
      </trkpt>
      <trkpt lat="42.49476" lon="1.21172">
        <ele>821.6</ele>
        <time>2022-05-22 17:38:49</time>
      </trkpt>
      <trkpt lat="42.49482" lon="1.21174">
        <ele>821.6</ele>
        <time>2022-05-22 17:38:50</time>
      </trkpt>
      <trkpt lat="42.4949" lon="1.21176">
        <ele>821.6</ele>
        <time>2022-05-22 17:38:51</time>
      </trkpt>
      <trkpt lat="42.49497" lon="1.21178">
        <ele>821.6</ele>
        <time>2022-05-22 17:38:52</time>
      </trkpt>
      <trkpt lat="42.49505" lon="1.21181">
        <ele>821.4</ele>
        <time>2022-05-22 17:38:53</time>
      </trkpt>
      <trkpt lat="42.49512" lon="1.21183">
        <ele>821.4</ele>
        <time>2022-05-22 17:38:54</time>
      </trkpt>
      <trkpt lat="42.4952" lon="1.21185">
        <ele>821.4</ele>
        <time>2022-05-22 17:38:55</time>
      </trkpt>
      <trkpt lat="42.49527" lon="1.21187">
        <ele>821.4</ele>
        <time>2022-05-22 17:38:56</time>
      </trkpt>
      <trkpt lat="42.49533" lon="1.2119">
        <ele>821.2</ele>
        <time>2022-05-22 17:38:57</time>
      </trkpt>
      <trkpt lat="42.49539" lon="1.21193">
        <ele>821.2</ele>
        <time>2022-05-22 17:38:58</time>
      </trkpt>
      <trkpt lat="42.49547" lon="1.21199">
        <ele>820.8</ele>
        <time>2022-05-22 17:38:59</time>
      </trkpt>
      <trkpt lat="42.49554" lon="1.21202">
        <ele>820.4</ele>
        <time>2022-05-22 17:39:00</time>
      </trkpt>
      <trkpt lat="42.49562" lon="1.21203">
        <ele>820.2</ele>
        <time>2022-05-22 17:39:01</time>
      </trkpt>
      <trkpt lat="42.49569" lon="1.21201">
        <ele>820</ele>
        <time>2022-05-22 17:39:02</time>
      </trkpt>
      <trkpt lat="42.49576" lon="1.21195">
        <ele>819.8</ele>
        <time>2022-05-22 17:39:03</time>
      </trkpt>
      <trkpt lat="42.49582" lon="1.21187">
        <ele>819.6</ele>
        <time>2022-05-22 17:39:04</time>
      </trkpt>
      <trkpt lat="42.49588" lon="1.21179">
        <ele>819.4</ele>
        <time>2022-05-22 17:39:05</time>
      </trkpt>
      <trkpt lat="42.49593" lon="1.21171">
        <ele>819.4</ele>
        <time>2022-05-22 17:39:06</time>
      </trkpt>
      <trkpt lat="42.49598" lon="1.21163">
        <ele>819.4</ele>
        <time>2022-05-22 17:39:07</time>
      </trkpt>
      <trkpt lat="42.49603" lon="1.21155">
        <ele>819.4</ele>
        <time>2022-05-22 17:39:08</time>
      </trkpt>
      <trkpt lat="42.49607" lon="1.21147">
        <ele>819.4</ele>
        <time>2022-05-22 17:39:09</time>
      </trkpt>
      <trkpt lat="42.49611" lon="1.2114">
        <ele>819.4</ele>
        <time>2022-05-22 17:39:10</time>
      </trkpt>
      <trkpt lat="42.49614" lon="1.21132">
        <ele>819.6</ele>
        <time>2022-05-22 17:39:11</time>
      </trkpt>
      <trkpt lat="42.49616" lon="1.21124">
        <ele>819.6</ele>
        <time>2022-05-22 17:39:12</time>
      </trkpt>
      <trkpt lat="42.49619" lon="1.21116">
        <ele>819.8</ele>
        <time>2022-05-22 17:39:13</time>
      </trkpt>
      <trkpt lat="42.49621" lon="1.2111">
        <ele>820</ele>
        <time>2022-05-22 17:39:14</time>
      </trkpt>
      <trkpt lat="42.49623" lon="1.21103">
        <ele>820.2</ele>
        <time>2022-05-22 17:39:15</time>
      </trkpt>
      <trkpt lat="42.49625" lon="1.21096">
        <ele>820.4</ele>
        <time>2022-05-22 17:39:16</time>
      </trkpt>
      <trkpt lat="42.49627" lon="1.2109">
        <ele>820.6</ele>
        <time>2022-05-22 17:39:17</time>
      </trkpt>
      <trkpt lat="42.4963" lon="1.21084">
        <ele>821</ele>
        <time>2022-05-22 17:39:18</time>
      </trkpt>
      <trkpt lat="42.49632" lon="1.21078">
        <ele>821.2</ele>
        <time>2022-05-22 17:39:19</time>
      </trkpt>
      <trkpt lat="42.49634" lon="1.21072">
        <ele>821.4</ele>
        <time>2022-05-22 17:39:20</time>
      </trkpt>
      <trkpt lat="42.49637" lon="1.21066">
        <ele>821.4</ele>
        <time>2022-05-22 17:39:21</time>
      </trkpt>
      <trkpt lat="42.49638" lon="1.21061">
        <ele>821.6</ele>
        <time>2022-05-22 17:39:22</time>
      </trkpt>
      <trkpt lat="42.4964" lon="1.21055">
        <ele>821.8</ele>
        <time>2022-05-22 17:39:23</time>
      </trkpt>
      <trkpt lat="42.49642" lon="1.2105">
        <ele>822</ele>
        <time>2022-05-22 17:39:24</time>
      </trkpt>
      <trkpt lat="42.49645" lon="1.21044">
        <ele>822.2</ele>
        <time>2022-05-22 17:39:25</time>
      </trkpt>
      <trkpt lat="42.49646" lon="1.21039">
        <ele>822.2</ele>
        <time>2022-05-22 17:39:26</time>
      </trkpt>
      <trkpt lat="42.49649" lon="1.21035">
        <ele>822.4</ele>
        <time>2022-05-22 17:39:27</time>
      </trkpt>
      <trkpt lat="42.49651" lon="1.21029">
        <ele>822.6</ele>
        <time>2022-05-22 17:39:28</time>
      </trkpt>
      <trkpt lat="42.49654" lon="1.21024">
        <ele>822.8</ele>
        <time>2022-05-22 17:39:29</time>
      </trkpt>
      <trkpt lat="42.49656" lon="1.2102">
        <ele>822.8</ele>
        <time>2022-05-22 17:39:30</time>
      </trkpt>
      <trkpt lat="42.49658" lon="1.21015">
        <ele>823</ele>
        <time>2022-05-22 17:39:31</time>
      </trkpt>
      <trkpt lat="42.49661" lon="1.21011">
        <ele>823.2</ele>
        <time>2022-05-22 17:39:32</time>
      </trkpt>
      <trkpt lat="42.49664" lon="1.21006">
        <ele>823.2</ele>
        <time>2022-05-22 17:39:33</time>
      </trkpt>
      <trkpt lat="42.49667" lon="1.21001">
        <ele>823.2</ele>
        <time>2022-05-22 17:39:34</time>
      </trkpt>
      <trkpt lat="42.4967" lon="1.20996">
        <ele>823.4</ele>
        <time>2022-05-22 17:39:35</time>
      </trkpt>
      <trkpt lat="42.49672" lon="1.20992">
        <ele>823.6</ele>
        <time>2022-05-22 17:39:36</time>
      </trkpt>
      <trkpt lat="42.49675" lon="1.20987">
        <ele>823.6</ele>
        <time>2022-05-22 17:39:37</time>
      </trkpt>
      <trkpt lat="42.49678" lon="1.20983">
        <ele>823.8</ele>
        <time>2022-05-22 17:39:38</time>
      </trkpt>
      <trkpt lat="42.49681" lon="1.20979">
        <ele>824</ele>
        <time>2022-05-22 17:39:39</time>
      </trkpt>
      <trkpt lat="42.49684" lon="1.20975">
        <ele>824</ele>
        <time>2022-05-22 17:39:40</time>
      </trkpt>
      <trkpt lat="42.49688" lon="1.2097">
        <ele>824.2</ele>
        <time>2022-05-22 17:39:41</time>
      </trkpt>
      <trkpt lat="42.49691" lon="1.20966">
        <ele>824.4</ele>
        <time>2022-05-22 17:39:42</time>
      </trkpt>
      <trkpt lat="42.49694" lon="1.20962">
        <ele>824.4</ele>
        <time>2022-05-22 17:39:43</time>
      </trkpt>
      <trkpt lat="42.49697" lon="1.20958">
        <ele>824.6</ele>
        <time>2022-05-22 17:39:44</time>
      </trkpt>
      <trkpt lat="42.49701" lon="1.20954">
        <ele>824.8</ele>
        <time>2022-05-22 17:39:45</time>
      </trkpt>
      <trkpt lat="42.49705" lon="1.2095">
        <ele>825</ele>
        <time>2022-05-22 17:39:46</time>
      </trkpt>
      <trkpt lat="42.49708" lon="1.20946">
        <ele>825.2</ele>
        <time>2022-05-22 17:39:47</time>
      </trkpt>
      <trkpt lat="42.49711" lon="1.20943">
        <ele>825.4</ele>
        <time>2022-05-22 17:39:48</time>
      </trkpt>
      <trkpt lat="42.49715" lon="1.2094">
        <ele>825.6</ele>
        <time>2022-05-22 17:39:49</time>
      </trkpt>
      <trkpt lat="42.49718" lon="1.20937">
        <ele>825.8</ele>
        <time>2022-05-22 17:39:50</time>
      </trkpt>
      <trkpt lat="42.49721" lon="1.20934">
        <ele>826</ele>
        <time>2022-05-22 17:39:51</time>
      </trkpt>
      <trkpt lat="42.49725" lon="1.20931">
        <ele>826.2</ele>
        <time>2022-05-22 17:39:52</time>
      </trkpt>
      <trkpt lat="42.49729" lon="1.20928">
        <ele>826.4</ele>
        <time>2022-05-22 17:39:53</time>
      </trkpt>
      <trkpt lat="42.49732" lon="1.20925">
        <ele>826.6</ele>
        <time>2022-05-22 17:39:54</time>
      </trkpt>
      <trkpt lat="42.49736" lon="1.20923">
        <ele>826.8</ele>
        <time>2022-05-22 17:39:55</time>
      </trkpt>
      <trkpt lat="42.4974" lon="1.20921">
        <ele>826.8</ele>
        <time>2022-05-22 17:39:56</time>
      </trkpt>
      <trkpt lat="42.49745" lon="1.20918">
        <ele>827</ele>
        <time>2022-05-22 17:39:57</time>
      </trkpt>
      <trkpt lat="42.49749" lon="1.20916">
        <ele>827.2</ele>
        <time>2022-05-22 17:39:58</time>
      </trkpt>
      <trkpt lat="42.49753" lon="1.20914">
        <ele>827.4</ele>
        <time>2022-05-22 17:39:59</time>
      </trkpt>
      <trkpt lat="42.49757" lon="1.20912">
        <ele>827.4</ele>
        <time>2022-05-22 17:40:00</time>
      </trkpt>
      <trkpt lat="42.49762" lon="1.2091">
        <ele>827.6</ele>
        <time>2022-05-22 17:40:01</time>
      </trkpt>
      <trkpt lat="42.49766" lon="1.20909">
        <ele>827.6</ele>
        <time>2022-05-22 17:40:02</time>
      </trkpt>
      <trkpt lat="42.49771" lon="1.20907">
        <ele>827.8</ele>
        <time>2022-05-22 17:40:03</time>
      </trkpt>
      <trkpt lat="42.49776" lon="1.20907">
        <ele>827.8</ele>
        <time>2022-05-22 17:40:04</time>
      </trkpt>
      <trkpt lat="42.4978" lon="1.20906">
        <ele>828</ele>
        <time>2022-05-22 17:40:05</time>
      </trkpt>
      <trkpt lat="42.49786" lon="1.20906">
        <ele>828</ele>
        <time>2022-05-22 17:40:06</time>
      </trkpt>
      <trkpt lat="42.49791" lon="1.20907">
        <ele>828</ele>
        <time>2022-05-22 17:40:07</time>
      </trkpt>
      <trkpt lat="42.49795" lon="1.20907">
        <ele>828.2</ele>
        <time>2022-05-22 17:40:08</time>
      </trkpt>
      <trkpt lat="42.498" lon="1.20907">
        <ele>828.2</ele>
        <time>2022-05-22 17:40:09</time>
      </trkpt>
      <trkpt lat="42.49805" lon="1.20907">
        <ele>828.4</ele>
        <time>2022-05-22 17:40:10</time>
      </trkpt>
      <trkpt lat="42.4981" lon="1.20907">
        <ele>828.4</ele>
        <time>2022-05-22 17:40:11</time>
      </trkpt>
      <trkpt lat="42.49815" lon="1.20906">
        <ele>828.6</ele>
        <time>2022-05-22 17:40:12</time>
      </trkpt>
      <trkpt lat="42.49819" lon="1.20906">
        <ele>828.6</ele>
        <time>2022-05-22 17:40:13</time>
      </trkpt>
      <trkpt lat="42.49824" lon="1.20906">
        <ele>828.6</ele>
        <time>2022-05-22 17:40:14</time>
      </trkpt>
      <trkpt lat="42.49829" lon="1.20906">
        <ele>828.6</ele>
        <time>2022-05-22 17:40:15</time>
      </trkpt>
      <trkpt lat="42.49834" lon="1.20905">
        <ele>828.8</ele>
        <time>2022-05-22 17:40:16</time>
      </trkpt>
      <trkpt lat="42.49839" lon="1.20904">
        <ele>828.8</ele>
        <time>2022-05-22 17:40:17</time>
      </trkpt>
      <trkpt lat="42.49843" lon="1.20904">
        <ele>828.8</ele>
        <time>2022-05-22 17:40:18</time>
      </trkpt>
      <trkpt lat="42.49848" lon="1.20903">
        <ele>828.8</ele>
        <time>2022-05-22 17:40:19</time>
      </trkpt>
      <trkpt lat="42.49853" lon="1.20902">
        <ele>828.8</ele>
        <time>2022-05-22 17:40:20</time>
      </trkpt>
      <trkpt lat="42.49858" lon="1.20901">
        <ele>828.8</ele>
        <time>2022-05-22 17:40:21</time>
      </trkpt>
      <trkpt lat="42.49862" lon="1.209">
        <ele>828.8</ele>
        <time>2022-05-22 17:40:22</time>
      </trkpt>
      <trkpt lat="42.49867" lon="1.20899">
        <ele>828.6</ele>
        <time>2022-05-22 17:40:23</time>
      </trkpt>
      <trkpt lat="42.49872" lon="1.20898">
        <ele>828.6</ele>
        <time>2022-05-22 17:40:24</time>
      </trkpt>
      <trkpt lat="42.49877" lon="1.20898">
        <ele>828.6</ele>
        <time>2022-05-22 17:40:25</time>
      </trkpt>
      <trkpt lat="42.49881" lon="1.20897">
        <ele>828.6</ele>
        <time>2022-05-22 17:40:26</time>
      </trkpt>
      <trkpt lat="42.49886" lon="1.20896">
        <ele>828.8</ele>
        <time>2022-05-22 17:40:27</time>
      </trkpt>
      <trkpt lat="42.49891" lon="1.20894">
        <ele>828.8</ele>
        <time>2022-05-22 17:40:28</time>
      </trkpt>
      <trkpt lat="42.49895" lon="1.20894">
        <ele>828.6</ele>
        <time>2022-05-22 17:40:29</time>
      </trkpt>
      <trkpt lat="42.499" lon="1.20892">
        <ele>828.6</ele>
        <time>2022-05-22 17:40:30</time>
      </trkpt>
      <trkpt lat="42.49904" lon="1.20891">
        <ele>828.6</ele>
        <time>2022-05-22 17:40:31</time>
      </trkpt>
      <trkpt lat="42.49908" lon="1.2089">
        <ele>828.6</ele>
        <time>2022-05-22 17:40:32</time>
      </trkpt>
      <trkpt lat="42.49912" lon="1.20888">
        <ele>828.6</ele>
        <time>2022-05-22 17:40:33</time>
      </trkpt>
      <trkpt lat="42.49917" lon="1.20886">
        <ele>828.6</ele>
        <time>2022-05-22 17:40:34</time>
      </trkpt>
      <trkpt lat="42.49921" lon="1.20885">
        <ele>828.6</ele>
        <time>2022-05-22 17:40:35</time>
      </trkpt>
      <trkpt lat="42.49925" lon="1.20883">
        <ele>828.8</ele>
        <time>2022-05-22 17:40:36</time>
      </trkpt>
      <trkpt lat="42.49929" lon="1.20881">
        <ele>828.8</ele>
        <time>2022-05-22 17:40:37</time>
      </trkpt>
      <trkpt lat="42.49933" lon="1.20878">
        <ele>828.8</ele>
        <time>2022-05-22 17:40:38</time>
      </trkpt>
      <trkpt lat="42.49937" lon="1.20876">
        <ele>828.8</ele>
        <time>2022-05-22 17:40:39</time>
      </trkpt>
      <trkpt lat="42.49941" lon="1.20874">
        <ele>828.8</ele>
        <time>2022-05-22 17:40:40</time>
      </trkpt>
      <trkpt lat="42.49944" lon="1.20872">
        <ele>829</ele>
        <time>2022-05-22 17:40:41</time>
      </trkpt>
      <trkpt lat="42.49948" lon="1.20869">
        <ele>829</ele>
        <time>2022-05-22 17:40:42</time>
      </trkpt>
      <trkpt lat="42.49951" lon="1.20866">
        <ele>829.2</ele>
        <time>2022-05-22 17:40:43</time>
      </trkpt>
      <trkpt lat="42.49954" lon="1.20863">
        <ele>829.4</ele>
        <time>2022-05-22 17:40:44</time>
      </trkpt>
      <trkpt lat="42.49957" lon="1.20861">
        <ele>829.6</ele>
        <time>2022-05-22 17:40:45</time>
      </trkpt>
      <trkpt lat="42.49959" lon="1.20859">
        <ele>829.8</ele>
        <time>2022-05-22 17:40:46</time>
      </trkpt>
      <trkpt lat="42.49962" lon="1.20856">
        <ele>830</ele>
        <time>2022-05-22 17:40:47</time>
      </trkpt>
      <trkpt lat="42.49964" lon="1.20854">
        <ele>830</ele>
        <time>2022-05-22 17:40:48</time>
      </trkpt>
      <trkpt lat="42.49967" lon="1.20851">
        <ele>830.2</ele>
        <time>2022-05-22 17:40:49</time>
      </trkpt>
      <trkpt lat="42.49969" lon="1.20848">
        <ele>830.4</ele>
        <time>2022-05-22 17:40:50</time>
      </trkpt>
      <trkpt lat="42.49971" lon="1.20846">
        <ele>830.6</ele>
        <time>2022-05-22 17:40:51</time>
      </trkpt>
      <trkpt lat="42.49974" lon="1.20844">
        <ele>830.6</ele>
        <time>2022-05-22 17:40:52</time>
      </trkpt>
      <trkpt lat="42.49976" lon="1.20841">
        <ele>830.8</ele>
        <time>2022-05-22 17:40:53</time>
      </trkpt>
      <trkpt lat="42.49978" lon="1.20838">
        <ele>830.8</ele>
        <time>2022-05-22 17:40:54</time>
      </trkpt>
      <trkpt lat="42.4998" lon="1.20835">
        <ele>831</ele>
        <time>2022-05-22 17:40:55</time>
      </trkpt>
      <trkpt lat="42.49982" lon="1.20833">
        <ele>831.2</ele>
        <time>2022-05-22 17:40:56</time>
      </trkpt>
      <trkpt lat="42.49984" lon="1.2083">
        <ele>831.2</ele>
        <time>2022-05-22 17:40:57</time>
      </trkpt>
      <trkpt lat="42.49987" lon="1.20827">
        <ele>831.4</ele>
        <time>2022-05-22 17:40:58</time>
      </trkpt>
      <trkpt lat="42.49989" lon="1.20825">
        <ele>831.4</ele>
        <time>2022-05-22 17:40:59</time>
      </trkpt>
      <trkpt lat="42.49991" lon="1.20822">
        <ele>831.6</ele>
        <time>2022-05-22 17:41:00</time>
      </trkpt>
      <trkpt lat="42.49992" lon="1.20819">
        <ele>831.8</ele>
        <time>2022-05-22 17:41:01</time>
      </trkpt>
      <trkpt lat="42.49994" lon="1.20817">
        <ele>831.8</ele>
        <time>2022-05-22 17:41:02</time>
      </trkpt>
      <trkpt lat="42.49996" lon="1.20814">
        <ele>832</ele>
        <time>2022-05-22 17:41:03</time>
      </trkpt>
      <trkpt lat="42.49998" lon="1.20811">
        <ele>832.2</ele>
        <time>2022-05-22 17:41:04</time>
      </trkpt>
      <trkpt lat="42.49999" lon="1.20808">
        <ele>832.4</ele>
        <time>2022-05-22 17:41:05</time>
      </trkpt>
      <trkpt lat="42.50001" lon="1.20806">
        <ele>832.6</ele>
        <time>2022-05-22 17:41:06</time>
      </trkpt>
      <trkpt lat="42.50002" lon="1.20803">
        <ele>832.6</ele>
        <time>2022-05-22 17:41:07</time>
      </trkpt>
      <trkpt lat="42.50004" lon="1.20801">
        <ele>832.8</ele>
        <time>2022-05-22 17:41:08</time>
      </trkpt>
      <trkpt lat="42.50005" lon="1.20798">
        <ele>833</ele>
        <time>2022-05-22 17:41:09</time>
      </trkpt>
      <trkpt lat="42.50006" lon="1.20795">
        <ele>833.2</ele>
        <time>2022-05-22 17:41:10</time>
      </trkpt>
      <trkpt lat="42.50007" lon="1.20793">
        <ele>833.4</ele>
        <time>2022-05-22 17:41:11</time>
      </trkpt>
      <trkpt lat="42.50009" lon="1.2079">
        <ele>833.6</ele>
        <time>2022-05-22 17:41:12</time>
      </trkpt>
      <trkpt lat="42.5001" lon="1.20788">
        <ele>833.8</ele>
        <time>2022-05-22 17:41:13</time>
      </trkpt>
      <trkpt lat="42.50012" lon="1.20786">
        <ele>834</ele>
        <time>2022-05-22 17:41:14</time>
      </trkpt>
      <trkpt lat="42.50013" lon="1.20784">
        <ele>834.2</ele>
        <time>2022-05-22 17:41:15</time>
      </trkpt>
      <trkpt lat="42.50015" lon="1.20781">
        <ele>834.2</ele>
        <time>2022-05-22 17:41:16</time>
      </trkpt>
      <trkpt lat="42.50017" lon="1.20779">
        <ele>834.4</ele>
        <time>2022-05-22 17:41:17</time>
      </trkpt>
      <trkpt lat="42.50018" lon="1.20777">
        <ele>834.6</ele>
        <time>2022-05-22 17:41:18</time>
      </trkpt>
      <trkpt lat="42.50019" lon="1.20774">
        <ele>834.8</ele>
        <time>2022-05-22 17:41:19</time>
      </trkpt>
      <trkpt lat="42.50021" lon="1.20772">
        <ele>835</ele>
        <time>2022-05-22 17:41:20</time>
      </trkpt>
      <trkpt lat="42.50022" lon="1.20769">
        <ele>835.2</ele>
        <time>2022-05-22 17:41:21</time>
      </trkpt>
      <trkpt lat="42.50023" lon="1.20767">
        <ele>835.4</ele>
        <time>2022-05-22 17:41:22</time>
      </trkpt>
      <trkpt lat="42.50024" lon="1.20764">
        <ele>835.6</ele>
        <time>2022-05-22 17:41:23</time>
      </trkpt>
      <trkpt lat="42.50025" lon="1.20762">
        <ele>835.6</ele>
        <time>2022-05-22 17:41:24</time>
      </trkpt>
      <trkpt lat="42.50027" lon="1.20759">
        <ele>836</ele>
        <time>2022-05-22 17:41:25</time>
      </trkpt>
      <trkpt lat="42.50028" lon="1.20756">
        <ele>836.2</ele>
        <time>2022-05-22 17:41:26</time>
      </trkpt>
      <trkpt lat="42.50029" lon="1.20753">
        <ele>836.2</ele>
        <time>2022-05-22 17:41:27</time>
      </trkpt>
      <trkpt lat="42.5003" lon="1.20751">
        <ele>836.4</ele>
        <time>2022-05-22 17:41:28</time>
      </trkpt>
      <trkpt lat="42.50031" lon="1.20748">
        <ele>836.6</ele>
        <time>2022-05-22 17:41:29</time>
      </trkpt>
      <trkpt lat="42.50033" lon="1.20745">
        <ele>836.8</ele>
        <time>2022-05-22 17:41:30</time>
      </trkpt>
      <trkpt lat="42.50034" lon="1.20742">
        <ele>837</ele>
        <time>2022-05-22 17:41:31</time>
      </trkpt>
      <trkpt lat="42.50035" lon="1.2074">
        <ele>837.2</ele>
        <time>2022-05-22 17:41:32</time>
      </trkpt>
      <trkpt lat="42.50036" lon="1.20736">
        <ele>837.4</ele>
        <time>2022-05-22 17:41:33</time>
      </trkpt>
      <trkpt lat="42.50037" lon="1.20733">
        <ele>837.6</ele>
        <time>2022-05-22 17:41:34</time>
      </trkpt>
      <trkpt lat="42.50038" lon="1.20731">
        <ele>837.8</ele>
        <time>2022-05-22 17:41:35</time>
      </trkpt>
      <trkpt lat="42.50038" lon="1.20728">
        <ele>837.8</ele>
        <time>2022-05-22 17:41:36</time>
      </trkpt>
      <trkpt lat="42.5004" lon="1.20725">
        <ele>838.2</ele>
        <time>2022-05-22 17:41:37</time>
      </trkpt>
      <trkpt lat="42.5004" lon="1.20722">
        <ele>838.2</ele>
        <time>2022-05-22 17:41:38</time>
      </trkpt>
      <trkpt lat="42.50041" lon="1.20719">
        <ele>838.4</ele>
        <time>2022-05-22 17:41:39</time>
      </trkpt>
      <trkpt lat="42.50041" lon="1.20717">
        <ele>838.6</ele>
        <time>2022-05-22 17:41:40</time>
      </trkpt>
      <trkpt lat="42.50042" lon="1.20713">
        <ele>838.8</ele>
        <time>2022-05-22 17:41:41</time>
      </trkpt>
      <trkpt lat="42.50043" lon="1.2071">
        <ele>839</ele>
        <time>2022-05-22 17:41:42</time>
      </trkpt>
      <trkpt lat="42.50043" lon="1.20707">
        <ele>839.2</ele>
        <time>2022-05-22 17:41:43</time>
      </trkpt>
      <trkpt lat="42.50044" lon="1.20705">
        <ele>839.4</ele>
        <time>2022-05-22 17:41:44</time>
      </trkpt>
      <trkpt lat="42.50045" lon="1.20701">
        <ele>839.6</ele>
        <time>2022-05-22 17:41:45</time>
      </trkpt>
      <trkpt lat="42.50045" lon="1.20698">
        <ele>839.8</ele>
        <time>2022-05-22 17:41:46</time>
      </trkpt>
      <trkpt lat="42.50046" lon="1.20696">
        <ele>840</ele>
        <time>2022-05-22 17:41:47</time>
      </trkpt>
      <trkpt lat="42.50046" lon="1.20693">
        <ele>840.2</ele>
        <time>2022-05-22 17:41:48</time>
      </trkpt>
      <trkpt lat="42.50047" lon="1.20691">
        <ele>840.4</ele>
        <time>2022-05-22 17:41:49</time>
      </trkpt>
      <trkpt lat="42.50047" lon="1.20688">
        <ele>840.6</ele>
        <time>2022-05-22 17:41:50</time>
      </trkpt>
      <trkpt lat="42.50047" lon="1.20685">
        <ele>840.8</ele>
        <time>2022-05-22 17:41:51</time>
      </trkpt>
      <trkpt lat="42.50048" lon="1.20682">
        <ele>840.8</ele>
        <time>2022-05-22 17:41:52</time>
      </trkpt>
      <trkpt lat="42.50048" lon="1.2068">
        <ele>841</ele>
        <time>2022-05-22 17:41:53</time>
      </trkpt>
      <trkpt lat="42.50049" lon="1.20678">
        <ele>841.2</ele>
        <time>2022-05-22 17:41:54</time>
      </trkpt>
      <trkpt lat="42.50049" lon="1.20675">
        <ele>841.4</ele>
        <time>2022-05-22 17:41:55</time>
      </trkpt>
      <trkpt lat="42.50049" lon="1.20672">
        <ele>841.6</ele>
        <time>2022-05-22 17:41:56</time>
      </trkpt>
      <trkpt lat="42.50049" lon="1.2067">
        <ele>841.8</ele>
        <time>2022-05-22 17:41:57</time>
      </trkpt>
      <trkpt lat="42.5005" lon="1.20668">
        <ele>841.8</ele>
        <time>2022-05-22 17:41:58</time>
      </trkpt>
      <trkpt lat="42.50051" lon="1.20665">
        <ele>842</ele>
        <time>2022-05-22 17:41:59</time>
      </trkpt>
      <trkpt lat="42.50051" lon="1.20662">
        <ele>842.2</ele>
        <time>2022-05-22 17:42:00</time>
      </trkpt>
      <trkpt lat="42.50052" lon="1.20659">
        <ele>842.4</ele>
        <time>2022-05-22 17:42:01</time>
      </trkpt>
      <trkpt lat="42.50052" lon="1.20657">
        <ele>842.6</ele>
        <time>2022-05-22 17:42:02</time>
      </trkpt>
      <trkpt lat="42.50052" lon="1.20654">
        <ele>842.8</ele>
        <time>2022-05-22 17:42:03</time>
      </trkpt>
      <trkpt lat="42.50052" lon="1.20652">
        <ele>843</ele>
        <time>2022-05-22 17:42:04</time>
      </trkpt>
      <trkpt lat="42.50052" lon="1.20648">
        <ele>843</ele>
        <time>2022-05-22 17:42:05</time>
      </trkpt>
      <trkpt lat="42.50052" lon="1.20645">
        <ele>843.2</ele>
        <time>2022-05-22 17:42:06</time>
      </trkpt>
      <trkpt lat="42.50053" lon="1.20642">
        <ele>843.4</ele>
        <time>2022-05-22 17:42:07</time>
      </trkpt>
      <trkpt lat="42.50053" lon="1.2064">
        <ele>843.6</ele>
        <time>2022-05-22 17:42:08</time>
      </trkpt>
      <trkpt lat="42.50053" lon="1.20637">
        <ele>843.8</ele>
        <time>2022-05-22 17:42:09</time>
      </trkpt>
      <trkpt lat="42.50052" lon="1.20633">
        <ele>844</ele>
        <time>2022-05-22 17:42:10</time>
      </trkpt>
      <trkpt lat="42.50052" lon="1.2063">
        <ele>844</ele>
        <time>2022-05-22 17:42:11</time>
      </trkpt>
      <trkpt lat="42.50051" lon="1.20627">
        <ele>844.2</ele>
        <time>2022-05-22 17:42:12</time>
      </trkpt>
      <trkpt lat="42.50051" lon="1.20623">
        <ele>844.2</ele>
        <time>2022-05-22 17:42:13</time>
      </trkpt>
      <trkpt lat="42.5005" lon="1.2062">
        <ele>844.4</ele>
        <time>2022-05-22 17:42:14</time>
      </trkpt>
      <trkpt lat="42.50049" lon="1.20616">
        <ele>844.6</ele>
        <time>2022-05-22 17:42:15</time>
      </trkpt>
      <trkpt lat="42.50048" lon="1.20613">
        <ele>844.6</ele>
        <time>2022-05-22 17:42:16</time>
      </trkpt>
      <trkpt lat="42.50048" lon="1.20609">
        <ele>844.8</ele>
        <time>2022-05-22 17:42:17</time>
      </trkpt>
      <trkpt lat="42.50047" lon="1.20605">
        <ele>845</ele>
        <time>2022-05-22 17:42:18</time>
      </trkpt>
      <trkpt lat="42.50047" lon="1.20602">
        <ele>845.2</ele>
        <time>2022-05-22 17:42:19</time>
      </trkpt>
      <trkpt lat="42.50046" lon="1.20599">
        <ele>845.2</ele>
        <time>2022-05-22 17:42:20</time>
      </trkpt>
      <trkpt lat="42.50045" lon="1.20596">
        <ele>845.4</ele>
        <time>2022-05-22 17:42:21</time>
      </trkpt>
      <trkpt lat="42.50045" lon="1.20593">
        <ele>845.6</ele>
        <time>2022-05-22 17:42:22</time>
      </trkpt>
      <trkpt lat="42.50044" lon="1.20589">
        <ele>845.6</ele>
        <time>2022-05-22 17:42:23</time>
      </trkpt>
      <trkpt lat="42.50043" lon="1.20586">
        <ele>845.8</ele>
        <time>2022-05-22 17:42:24</time>
      </trkpt>
      <trkpt lat="42.50042" lon="1.20582">
        <ele>846</ele>
        <time>2022-05-22 17:42:25</time>
      </trkpt>
      <trkpt lat="42.50042" lon="1.20578">
        <ele>846</ele>
        <time>2022-05-22 17:42:26</time>
      </trkpt>
      <trkpt lat="42.50041" lon="1.20575">
        <ele>846.2</ele>
        <time>2022-05-22 17:42:27</time>
      </trkpt>
      <trkpt lat="42.50041" lon="1.20571">
        <ele>846.2</ele>
        <time>2022-05-22 17:42:28</time>
      </trkpt>
      <trkpt lat="42.5004" lon="1.20567">
        <ele>846.4</ele>
        <time>2022-05-22 17:42:29</time>
      </trkpt>
      <trkpt lat="42.5004" lon="1.20563">
        <ele>846.4</ele>
        <time>2022-05-22 17:42:30</time>
      </trkpt>
      <trkpt lat="42.50039" lon="1.2056">
        <ele>846.4</ele>
        <time>2022-05-22 17:42:31</time>
      </trkpt>
      <trkpt lat="42.50039" lon="1.20556">
        <ele>846.6</ele>
        <time>2022-05-22 17:42:32</time>
      </trkpt>
      <trkpt lat="42.50039" lon="1.20553">
        <ele>846.6</ele>
        <time>2022-05-22 17:42:33</time>
      </trkpt>
      <trkpt lat="42.50039" lon="1.20549">
        <ele>846.8</ele>
        <time>2022-05-22 17:42:34</time>
      </trkpt>
      <trkpt lat="42.50039" lon="1.20546">
        <ele>846.8</ele>
        <time>2022-05-22 17:42:35</time>
      </trkpt>
      <trkpt lat="42.50039" lon="1.20542">
        <ele>846.8</ele>
        <time>2022-05-22 17:42:36</time>
      </trkpt>
      <trkpt lat="42.50039" lon="1.20539">
        <ele>847</ele>
        <time>2022-05-22 17:42:37</time>
      </trkpt>
      <trkpt lat="42.50039" lon="1.20536">
        <ele>847</ele>
        <time>2022-05-22 17:42:38</time>
      </trkpt>
      <trkpt lat="42.50039" lon="1.20532">
        <ele>847.2</ele>
        <time>2022-05-22 17:42:39</time>
      </trkpt>
      <trkpt lat="42.50039" lon="1.20528">
        <ele>847.2</ele>
        <time>2022-05-22 17:42:40</time>
      </trkpt>
      <trkpt lat="42.50039" lon="1.20525">
        <ele>847.2</ele>
        <time>2022-05-22 17:42:41</time>
      </trkpt>
      <trkpt lat="42.5004" lon="1.20521">
        <ele>847.4</ele>
        <time>2022-05-22 17:42:42</time>
      </trkpt>
      <trkpt lat="42.5004" lon="1.20518">
        <ele>847.4</ele>
        <time>2022-05-22 17:42:43</time>
      </trkpt>
      <trkpt lat="42.50041" lon="1.20514">
        <ele>847.6</ele>
        <time>2022-05-22 17:42:44</time>
      </trkpt>
      <trkpt lat="42.50042" lon="1.2051">
        <ele>847.6</ele>
        <time>2022-05-22 17:42:45</time>
      </trkpt>
      <trkpt lat="42.50042" lon="1.20506">
        <ele>847.6</ele>
        <time>2022-05-22 17:42:46</time>
      </trkpt>
      <trkpt lat="42.50043" lon="1.20502">
        <ele>847.6</ele>
        <time>2022-05-22 17:42:47</time>
      </trkpt>
      <trkpt lat="42.50044" lon="1.20498">
        <ele>847.8</ele>
        <time>2022-05-22 17:42:48</time>
      </trkpt>
      <trkpt lat="42.50044" lon="1.20493">
        <ele>847.8</ele>
        <time>2022-05-22 17:42:49</time>
      </trkpt>
      <trkpt lat="42.50045" lon="1.20488">
        <ele>847.8</ele>
        <time>2022-05-22 17:42:50</time>
      </trkpt>
      <trkpt lat="42.50046" lon="1.20483">
        <ele>847.8</ele>
        <time>2022-05-22 17:42:51</time>
      </trkpt>
      <trkpt lat="42.50047" lon="1.20478">
        <ele>847.8</ele>
        <time>2022-05-22 17:42:52</time>
      </trkpt>
      <trkpt lat="42.50048" lon="1.20473">
        <ele>848</ele>
        <time>2022-05-22 17:42:53</time>
      </trkpt>
      <trkpt lat="42.5005" lon="1.20468">
        <ele>848</ele>
        <time>2022-05-22 17:42:54</time>
      </trkpt>
      <trkpt lat="42.50051" lon="1.20464">
        <ele>848</ele>
        <time>2022-05-22 17:42:55</time>
      </trkpt>
      <trkpt lat="42.50054" lon="1.20459">
        <ele>848</ele>
        <time>2022-05-22 17:42:56</time>
      </trkpt>
      <trkpt lat="42.50055" lon="1.20454">
        <ele>848</ele>
        <time>2022-05-22 17:42:57</time>
      </trkpt>
      <trkpt lat="42.50057" lon="1.2045">
        <ele>848</ele>
        <time>2022-05-22 17:42:58</time>
      </trkpt>
      <trkpt lat="42.50059" lon="1.20445">
        <ele>848</ele>
        <time>2022-05-22 17:42:59</time>
      </trkpt>
      <trkpt lat="42.50061" lon="1.2044">
        <ele>848</ele>
        <time>2022-05-22 17:43:00</time>
      </trkpt>
      <trkpt lat="42.50064" lon="1.20435">
        <ele>848</ele>
        <time>2022-05-22 17:43:01</time>
      </trkpt>
      <trkpt lat="42.50066" lon="1.20429">
        <ele>848</ele>
        <time>2022-05-22 17:43:02</time>
      </trkpt>
      <trkpt lat="42.50069" lon="1.20425">
        <ele>848</ele>
        <time>2022-05-22 17:43:03</time>
      </trkpt>
      <trkpt lat="42.50071" lon="1.2042">
        <ele>848</ele>
        <time>2022-05-22 17:43:04</time>
      </trkpt>
      <trkpt lat="42.50073" lon="1.20415">
        <ele>847.8</ele>
        <time>2022-05-22 17:43:05</time>
      </trkpt>
      <trkpt lat="42.50076" lon="1.20411">
        <ele>847.8</ele>
        <time>2022-05-22 17:43:06</time>
      </trkpt>
      <trkpt lat="42.50079" lon="1.20406">
        <ele>847.8</ele>
        <time>2022-05-22 17:43:07</time>
      </trkpt>
      <trkpt lat="42.50083" lon="1.20402">
        <ele>847.6</ele>
        <time>2022-05-22 17:43:08</time>
      </trkpt>
      <trkpt lat="42.50087" lon="1.20398">
        <ele>847.6</ele>
        <time>2022-05-22 17:43:09</time>
      </trkpt>
      <trkpt lat="42.50091" lon="1.20394">
        <ele>847.4</ele>
        <time>2022-05-22 17:43:10</time>
      </trkpt>
      <trkpt lat="42.50095" lon="1.2039">
        <ele>847.4</ele>
        <time>2022-05-22 17:43:11</time>
      </trkpt>
      <trkpt lat="42.50099" lon="1.20386">
        <ele>847.2</ele>
        <time>2022-05-22 17:43:12</time>
      </trkpt>
      <trkpt lat="42.50104" lon="1.20383">
        <ele>847.2</ele>
        <time>2022-05-22 17:43:13</time>
      </trkpt>
      <trkpt lat="42.50108" lon="1.2038">
        <ele>847</ele>
        <time>2022-05-22 17:43:14</time>
      </trkpt>
      <trkpt lat="42.50113" lon="1.20376">
        <ele>847</ele>
        <time>2022-05-22 17:43:15</time>
      </trkpt>
      <trkpt lat="42.50118" lon="1.20373">
        <ele>847</ele>
        <time>2022-05-22 17:43:16</time>
      </trkpt>
      <trkpt lat="42.50123" lon="1.2037">
        <ele>847</ele>
        <time>2022-05-22 17:43:17</time>
      </trkpt>
      <trkpt lat="42.50129" lon="1.20367">
        <ele>846.8</ele>
        <time>2022-05-22 17:43:18</time>
      </trkpt>
      <trkpt lat="42.50134" lon="1.20365">
        <ele>846.8</ele>
        <time>2022-05-22 17:43:19</time>
      </trkpt>
      <trkpt lat="42.5014" lon="1.20363">
        <ele>846.8</ele>
        <time>2022-05-22 17:43:20</time>
      </trkpt>
      <trkpt lat="42.50145" lon="1.20361">
        <ele>846.8</ele>
        <time>2022-05-22 17:43:21</time>
      </trkpt>
      <trkpt lat="42.50151" lon="1.20359">
        <ele>846.8</ele>
        <time>2022-05-22 17:43:22</time>
      </trkpt>
      <trkpt lat="42.50157" lon="1.20359">
        <ele>846.6</ele>
        <time>2022-05-22 17:43:23</time>
      </trkpt>
      <trkpt lat="42.50163" lon="1.20358">
        <ele>846.6</ele>
        <time>2022-05-22 17:43:24</time>
      </trkpt>
      <trkpt lat="42.50169" lon="1.20358">
        <ele>846.6</ele>
        <time>2022-05-22 17:43:25</time>
      </trkpt>
      <trkpt lat="42.50175" lon="1.20357">
        <ele>846.4</ele>
        <time>2022-05-22 17:43:26</time>
      </trkpt>
      <trkpt lat="42.50181" lon="1.20357">
        <ele>846.4</ele>
        <time>2022-05-22 17:43:27</time>
      </trkpt>
      <trkpt lat="42.50186" lon="1.20357">
        <ele>846.4</ele>
        <time>2022-05-22 17:43:28</time>
      </trkpt>
      <trkpt lat="42.50192" lon="1.20356">
        <ele>846.2</ele>
        <time>2022-05-22 17:43:29</time>
      </trkpt>
      <trkpt lat="42.50198" lon="1.20356">
        <ele>846.2</ele>
        <time>2022-05-22 17:43:30</time>
      </trkpt>
      <trkpt lat="42.50204" lon="1.20355">
        <ele>846</ele>
        <time>2022-05-22 17:43:31</time>
      </trkpt>
      <trkpt lat="42.5021" lon="1.20355">
        <ele>846</ele>
        <time>2022-05-22 17:43:32</time>
      </trkpt>
      <trkpt lat="42.50216" lon="1.20354">
        <ele>846</ele>
        <time>2022-05-22 17:43:33</time>
      </trkpt>
      <trkpt lat="42.50222" lon="1.20354">
        <ele>845.8</ele>
        <time>2022-05-22 17:43:34</time>
      </trkpt>
      <trkpt lat="42.50228" lon="1.20353">
        <ele>845.8</ele>
        <time>2022-05-22 17:43:35</time>
      </trkpt>
      <trkpt lat="42.50234" lon="1.20353">
        <ele>845.8</ele>
        <time>2022-05-22 17:43:36</time>
      </trkpt>
      <trkpt lat="42.50239" lon="1.20353">
        <ele>845.8</ele>
        <time>2022-05-22 17:43:37</time>
      </trkpt>
      <trkpt lat="42.50245" lon="1.20352">
        <ele>845.8</ele>
        <time>2022-05-22 17:43:38</time>
      </trkpt>
      <trkpt lat="42.50251" lon="1.20351">
        <ele>845.8</ele>
        <time>2022-05-22 17:43:39</time>
      </trkpt>
      <trkpt lat="42.50256" lon="1.2035">
        <ele>845.8</ele>
        <time>2022-05-22 17:43:40</time>
      </trkpt>
      <trkpt lat="42.50262" lon="1.2035">
        <ele>845.8</ele>
        <time>2022-05-22 17:43:41</time>
      </trkpt>
      <trkpt lat="42.50268" lon="1.20348">
        <ele>845.8</ele>
        <time>2022-05-22 17:43:42</time>
      </trkpt>
      <trkpt lat="42.50274" lon="1.20347">
        <ele>845.8</ele>
        <time>2022-05-22 17:43:43</time>
      </trkpt>
      <trkpt lat="42.5028" lon="1.20346">
        <ele>845.6</ele>
        <time>2022-05-22 17:43:44</time>
      </trkpt>
      <trkpt lat="42.50285" lon="1.20345">
        <ele>845.6</ele>
        <time>2022-05-22 17:43:45</time>
      </trkpt>
      <trkpt lat="42.50291" lon="1.20344">
        <ele>845.6</ele>
        <time>2022-05-22 17:43:46</time>
      </trkpt>
      <trkpt lat="42.50296" lon="1.20342">
        <ele>845.6</ele>
        <time>2022-05-22 17:43:47</time>
      </trkpt>
      <trkpt lat="42.50302" lon="1.2034">
        <ele>845.4</ele>
        <time>2022-05-22 17:43:48</time>
      </trkpt>
      <trkpt lat="42.50308" lon="1.20339">
        <ele>845.4</ele>
        <time>2022-05-22 17:43:49</time>
      </trkpt>
      <trkpt lat="42.50313" lon="1.20336">
        <ele>845.2</ele>
        <time>2022-05-22 17:43:50</time>
      </trkpt>
      <trkpt lat="42.50319" lon="1.20334">
        <ele>845.2</ele>
        <time>2022-05-22 17:43:51</time>
      </trkpt>
      <trkpt lat="42.50325" lon="1.20332">
        <ele>845</ele>
        <time>2022-05-22 17:43:52</time>
      </trkpt>
      <trkpt lat="42.5033" lon="1.20329">
        <ele>845</ele>
        <time>2022-05-22 17:43:53</time>
      </trkpt>
      <trkpt lat="42.50336" lon="1.20326">
        <ele>844.8</ele>
        <time>2022-05-22 17:43:54</time>
      </trkpt>
      <trkpt lat="42.50342" lon="1.20323">
        <ele>844.6</ele>
        <time>2022-05-22 17:43:55</time>
      </trkpt>
      <trkpt lat="42.50349" lon="1.2032">
        <ele>844.4</ele>
        <time>2022-05-22 17:43:56</time>
      </trkpt>
      <trkpt lat="42.50356" lon="1.20316">
        <ele>844.2</ele>
        <time>2022-05-22 17:43:57</time>
      </trkpt>
      <trkpt lat="42.50363" lon="1.20312">
        <ele>843.8</ele>
        <time>2022-05-22 17:43:58</time>
      </trkpt>
      <trkpt lat="42.5037" lon="1.20309">
        <ele>843.6</ele>
        <time>2022-05-22 17:43:59</time>
      </trkpt>
      <trkpt lat="42.50377" lon="1.20304">
        <ele>843.2</ele>
        <time>2022-05-22 17:44:00</time>
      </trkpt>
      <trkpt lat="42.50384" lon="1.203">
        <ele>842.8</ele>
        <time>2022-05-22 17:44:01</time>
      </trkpt>
      <trkpt lat="42.50392" lon="1.20296">
        <ele>842.4</ele>
        <time>2022-05-22 17:44:02</time>
      </trkpt>
      <trkpt lat="42.50399" lon="1.20292">
        <ele>842</ele>
        <time>2022-05-22 17:44:03</time>
      </trkpt>
      <trkpt lat="42.50406" lon="1.20288">
        <ele>841.8</ele>
        <time>2022-05-22 17:44:04</time>
      </trkpt>
      <trkpt lat="42.50413" lon="1.20285">
        <ele>841.8</ele>
        <time>2022-05-22 17:44:05</time>
      </trkpt>
      <trkpt lat="42.5042" lon="1.20281">
        <ele>841.4</ele>
        <time>2022-05-22 17:44:06</time>
      </trkpt>
      <trkpt lat="42.50428" lon="1.20278">
        <ele>841.2</ele>
        <time>2022-05-22 17:44:07</time>
      </trkpt>
      <trkpt lat="42.50436" lon="1.20274">
        <ele>841</ele>
        <time>2022-05-22 17:44:08</time>
      </trkpt>
      <trkpt lat="42.50444" lon="1.20272">
        <ele>841</ele>
        <time>2022-05-22 17:44:09</time>
      </trkpt>
      <trkpt lat="42.50451" lon="1.2027">
        <ele>840.8</ele>
        <time>2022-05-22 17:44:10</time>
      </trkpt>
      <trkpt lat="42.50459" lon="1.20269">
        <ele>840.8</ele>
        <time>2022-05-22 17:44:11</time>
      </trkpt>
      <trkpt lat="42.50466" lon="1.20268">
        <ele>840.8</ele>
        <time>2022-05-22 17:44:12</time>
      </trkpt>
      <trkpt lat="42.50474" lon="1.20267">
        <ele>840.8</ele>
        <time>2022-05-22 17:44:13</time>
      </trkpt>
      <trkpt lat="42.50481" lon="1.20267">
        <ele>840.6</ele>
        <time>2022-05-22 17:44:14</time>
      </trkpt>
      <trkpt lat="42.50489" lon="1.20267">
        <ele>840.6</ele>
        <time>2022-05-22 17:44:15</time>
      </trkpt>
      <trkpt lat="42.50496" lon="1.20269">
        <ele>840.6</ele>
        <time>2022-05-22 17:44:16</time>
      </trkpt>
      <trkpt lat="42.50503" lon="1.2027">
        <ele>840.6</ele>
        <time>2022-05-22 17:44:17</time>
      </trkpt>
      <trkpt lat="42.50509" lon="1.20272">
        <ele>840.6</ele>
        <time>2022-05-22 17:44:18</time>
      </trkpt>
      <trkpt lat="42.50516" lon="1.20275">
        <ele>840.8</ele>
        <time>2022-05-22 17:44:19</time>
      </trkpt>
      <trkpt lat="42.50522" lon="1.20277">
        <ele>840.8</ele>
        <time>2022-05-22 17:44:20</time>
      </trkpt>
      <trkpt lat="42.50528" lon="1.20279">
        <ele>841</ele>
        <time>2022-05-22 17:44:21</time>
      </trkpt>
      <trkpt lat="42.50534" lon="1.20282">
        <ele>841</ele>
        <time>2022-05-22 17:44:22</time>
      </trkpt>
      <trkpt lat="42.5054" lon="1.20284">
        <ele>841</ele>
        <time>2022-05-22 17:44:23</time>
      </trkpt>
      <trkpt lat="42.50547" lon="1.20286">
        <ele>841</ele>
        <time>2022-05-22 17:44:24</time>
      </trkpt>
      <trkpt lat="42.50554" lon="1.20289">
        <ele>841</ele>
        <time>2022-05-22 17:44:25</time>
      </trkpt>
      <trkpt lat="42.5056" lon="1.20291">
        <ele>841</ele>
        <time>2022-05-22 17:44:26</time>
      </trkpt>
      <trkpt lat="42.50566" lon="1.20294">
        <ele>841</ele>
        <time>2022-05-22 17:44:27</time>
      </trkpt>
      <trkpt lat="42.50573" lon="1.20296">
        <ele>841.2</ele>
        <time>2022-05-22 17:44:28</time>
      </trkpt>
      <trkpt lat="42.5058" lon="1.20297">
        <ele>841.2</ele>
        <time>2022-05-22 17:44:29</time>
      </trkpt>
      <trkpt lat="42.50587" lon="1.20299">
        <ele>841.2</ele>
        <time>2022-05-22 17:44:30</time>
      </trkpt>
      <trkpt lat="42.50594" lon="1.20301">
        <ele>841.2</ele>
        <time>2022-05-22 17:44:31</time>
      </trkpt>
      <trkpt lat="42.50601" lon="1.20301">
        <ele>841.2</ele>
        <time>2022-05-22 17:44:32</time>
      </trkpt>
      <trkpt lat="42.50608" lon="1.20302">
        <ele>841.2</ele>
        <time>2022-05-22 17:44:33</time>
      </trkpt>
      <trkpt lat="42.50614" lon="1.20303">
        <ele>841.4</ele>
        <time>2022-05-22 17:44:34</time>
      </trkpt>
      <trkpt lat="42.50622" lon="1.20304">
        <ele>841.4</ele>
        <time>2022-05-22 17:44:35</time>
      </trkpt>
      <trkpt lat="42.50628" lon="1.20304">
        <ele>841.6</ele>
        <time>2022-05-22 17:44:36</time>
      </trkpt>
      <trkpt lat="42.50635" lon="1.20303">
        <ele>841.6</ele>
        <time>2022-05-22 17:44:37</time>
      </trkpt>
      <trkpt lat="42.50642" lon="1.20303">
        <ele>841.8</ele>
        <time>2022-05-22 17:44:38</time>
      </trkpt>
      <trkpt lat="42.50649" lon="1.20302">
        <ele>841.8</ele>
        <time>2022-05-22 17:44:39</time>
      </trkpt>
      <trkpt lat="42.50655" lon="1.20302">
        <ele>842</ele>
        <time>2022-05-22 17:44:40</time>
      </trkpt>
      <trkpt lat="42.50661" lon="1.20301">
        <ele>842.2</ele>
        <time>2022-05-22 17:44:41</time>
      </trkpt>
      <trkpt lat="42.50668" lon="1.203">
        <ele>842.2</ele>
        <time>2022-05-22 17:44:42</time>
      </trkpt>
      <trkpt lat="42.50674" lon="1.20299">
        <ele>842.4</ele>
        <time>2022-05-22 17:44:43</time>
      </trkpt>
      <trkpt lat="42.5068" lon="1.20299">
        <ele>842.6</ele>
        <time>2022-05-22 17:44:44</time>
      </trkpt>
      <trkpt lat="42.50685" lon="1.20298">
        <ele>842.8</ele>
        <time>2022-05-22 17:44:45</time>
      </trkpt>
      <trkpt lat="42.50691" lon="1.20297">
        <ele>843</ele>
        <time>2022-05-22 17:44:46</time>
      </trkpt>
      <trkpt lat="42.50696" lon="1.20296">
        <ele>843.2</ele>
        <time>2022-05-22 17:44:47</time>
      </trkpt>
      <trkpt lat="42.50702" lon="1.20295">
        <ele>843.2</ele>
        <time>2022-05-22 17:44:48</time>
      </trkpt>
      <trkpt lat="42.50707" lon="1.20294">
        <ele>843.4</ele>
        <time>2022-05-22 17:44:49</time>
      </trkpt>
      <trkpt lat="42.50712" lon="1.20292">
        <ele>843.4</ele>
        <time>2022-05-22 17:44:50</time>
      </trkpt>
      <trkpt lat="42.50717" lon="1.2029">
        <ele>843.6</ele>
        <time>2022-05-22 17:44:51</time>
      </trkpt>
      <trkpt lat="42.50722" lon="1.20288">
        <ele>843.8</ele>
        <time>2022-05-22 17:44:52</time>
      </trkpt>
      <trkpt lat="42.50726" lon="1.20285">
        <ele>844</ele>
        <time>2022-05-22 17:44:53</time>
      </trkpt>
      <trkpt lat="42.50731" lon="1.20283">
        <ele>844</ele>
        <time>2022-05-22 17:44:54</time>
      </trkpt>
      <trkpt lat="42.50734" lon="1.2028">
        <ele>844.2</ele>
        <time>2022-05-22 17:44:55</time>
      </trkpt>
      <trkpt lat="42.50738" lon="1.20276">
        <ele>844.2</ele>
        <time>2022-05-22 17:44:56</time>
      </trkpt>
      <trkpt lat="42.50742" lon="1.20273">
        <ele>844.4</ele>
        <time>2022-05-22 17:44:57</time>
      </trkpt>
      <trkpt lat="42.50746" lon="1.2027">
        <ele>844.4</ele>
        <time>2022-05-22 17:44:58</time>
      </trkpt>
      <trkpt lat="42.5075" lon="1.20266">
        <ele>844.4</ele>
        <time>2022-05-22 17:44:59</time>
      </trkpt>
      <trkpt lat="42.50753" lon="1.20263">
        <ele>844.6</ele>
        <time>2022-05-22 17:45:00</time>
      </trkpt>
      <trkpt lat="42.50757" lon="1.2026">
        <ele>844.6</ele>
        <time>2022-05-22 17:45:01</time>
      </trkpt>
      <trkpt lat="42.50762" lon="1.20256">
        <ele>844.6</ele>
        <time>2022-05-22 17:45:02</time>
      </trkpt>
      <trkpt lat="42.50765" lon="1.20252">
        <ele>844.6</ele>
        <time>2022-05-22 17:45:03</time>
      </trkpt>
      <trkpt lat="42.50769" lon="1.20248">
        <ele>844.6</ele>
        <time>2022-05-22 17:45:04</time>
      </trkpt>
      <trkpt lat="42.50773" lon="1.20243">
        <ele>844.6</ele>
        <time>2022-05-22 17:45:05</time>
      </trkpt>
      <trkpt lat="42.50777" lon="1.20239">
        <ele>844.6</ele>
        <time>2022-05-22 17:45:06</time>
      </trkpt>
      <trkpt lat="42.5078" lon="1.20234">
        <ele>844.6</ele>
        <time>2022-05-22 17:45:07</time>
      </trkpt>
      <trkpt lat="42.50784" lon="1.20229">
        <ele>844.6</ele>
        <time>2022-05-22 17:45:08</time>
      </trkpt>
      <trkpt lat="42.50788" lon="1.20223">
        <ele>844.6</ele>
        <time>2022-05-22 17:45:09</time>
      </trkpt>
      <trkpt lat="42.50792" lon="1.20218">
        <ele>844.6</ele>
        <time>2022-05-22 17:45:10</time>
      </trkpt>
      <trkpt lat="42.50796" lon="1.20213">
        <ele>844.6</ele>
        <time>2022-05-22 17:45:11</time>
      </trkpt>
      <trkpt lat="42.50799" lon="1.20207">
        <ele>844.4</ele>
        <time>2022-05-22 17:45:12</time>
      </trkpt>
      <trkpt lat="42.50803" lon="1.20202">
        <ele>844.4</ele>
        <time>2022-05-22 17:45:13</time>
      </trkpt>
      <trkpt lat="42.50807" lon="1.20196">
        <ele>844.4</ele>
        <time>2022-05-22 17:45:14</time>
      </trkpt>
      <trkpt lat="42.50811" lon="1.20191">
        <ele>844.4</ele>
        <time>2022-05-22 17:45:15</time>
      </trkpt>
      <trkpt lat="42.50816" lon="1.20184">
        <ele>844.4</ele>
        <time>2022-05-22 17:45:16</time>
      </trkpt>
      <trkpt lat="42.5082" lon="1.20179">
        <ele>844.2</ele>
        <time>2022-05-22 17:45:17</time>
      </trkpt>
      <trkpt lat="42.50824" lon="1.20173">
        <ele>844.2</ele>
        <time>2022-05-22 17:45:18</time>
      </trkpt>
      <trkpt lat="42.50829" lon="1.20168">
        <ele>844.2</ele>
        <time>2022-05-22 17:45:19</time>
      </trkpt>
      <trkpt lat="42.50834" lon="1.20163">
        <ele>844.2</ele>
        <time>2022-05-22 17:45:20</time>
      </trkpt>
      <trkpt lat="42.50839" lon="1.20158">
        <ele>844.2</ele>
        <time>2022-05-22 17:45:21</time>
      </trkpt>
      <trkpt lat="42.50843" lon="1.20154">
        <ele>844.2</ele>
        <time>2022-05-22 17:45:22</time>
      </trkpt>
      <trkpt lat="42.50848" lon="1.2015">
        <ele>844.2</ele>
        <time>2022-05-22 17:45:23</time>
      </trkpt>
      <trkpt lat="42.50852" lon="1.20145">
        <ele>844.2</ele>
        <time>2022-05-22 17:45:24</time>
      </trkpt>
      <trkpt lat="42.50857" lon="1.20142">
        <ele>844.2</ele>
        <time>2022-05-22 17:45:25</time>
      </trkpt>
      <trkpt lat="42.50862" lon="1.20137">
        <ele>844.2</ele>
        <time>2022-05-22 17:45:26</time>
      </trkpt>
      <trkpt lat="42.50867" lon="1.20133">
        <ele>844</ele>
        <time>2022-05-22 17:45:27</time>
      </trkpt>
      <trkpt lat="42.50873" lon="1.20129">
        <ele>844</ele>
        <time>2022-05-22 17:45:28</time>
      </trkpt>
      <trkpt lat="42.50878" lon="1.20125">
        <ele>844</ele>
        <time>2022-05-22 17:45:29</time>
      </trkpt>
      <trkpt lat="42.50884" lon="1.20121">
        <ele>844</ele>
        <time>2022-05-22 17:45:30</time>
      </trkpt>
      <trkpt lat="42.50889" lon="1.20118">
        <ele>844</ele>
        <time>2022-05-22 17:45:31</time>
      </trkpt>
      <trkpt lat="42.50896" lon="1.20114">
        <ele>844</ele>
        <time>2022-05-22 17:45:32</time>
      </trkpt>
      <trkpt lat="42.50901" lon="1.20111">
        <ele>844</ele>
        <time>2022-05-22 17:45:33</time>
      </trkpt>
      <trkpt lat="42.50907" lon="1.20107">
        <ele>844</ele>
        <time>2022-05-22 17:45:34</time>
      </trkpt>
      <trkpt lat="42.50912" lon="1.20104">
        <ele>844</ele>
        <time>2022-05-22 17:45:35</time>
      </trkpt>
      <trkpt lat="42.50917" lon="1.201">
        <ele>844</ele>
        <time>2022-05-22 17:45:36</time>
      </trkpt>
      <trkpt lat="42.50922" lon="1.20097">
        <ele>844</ele>
        <time>2022-05-22 17:45:37</time>
      </trkpt>
      <trkpt lat="42.50928" lon="1.20093">
        <ele>844</ele>
        <time>2022-05-22 17:45:38</time>
      </trkpt>
      <trkpt lat="42.50933" lon="1.2009">
        <ele>844</ele>
        <time>2022-05-22 17:45:39</time>
      </trkpt>
      <trkpt lat="42.50938" lon="1.20086">
        <ele>844</ele>
        <time>2022-05-22 17:45:40</time>
      </trkpt>
      <trkpt lat="42.50943" lon="1.20082">
        <ele>844</ele>
        <time>2022-05-22 17:45:41</time>
      </trkpt>
      <trkpt lat="42.50948" lon="1.20079">
        <ele>844</ele>
        <time>2022-05-22 17:45:42</time>
      </trkpt>
      <trkpt lat="42.50952" lon="1.20075">
        <ele>844.2</ele>
        <time>2022-05-22 17:45:43</time>
      </trkpt>
      <trkpt lat="42.50958" lon="1.20071">
        <ele>844.2</ele>
        <time>2022-05-22 17:45:44</time>
      </trkpt>
      <trkpt lat="42.50963" lon="1.20067">
        <ele>844.2</ele>
        <time>2022-05-22 17:45:45</time>
      </trkpt>
      <trkpt lat="42.50968" lon="1.20063">
        <ele>844.2</ele>
        <time>2022-05-22 17:45:46</time>
      </trkpt>
      <trkpt lat="42.50972" lon="1.20059">
        <ele>844.4</ele>
        <time>2022-05-22 17:45:47</time>
      </trkpt>
      <trkpt lat="42.50977" lon="1.20053">
        <ele>844.4</ele>
        <time>2022-05-22 17:45:48</time>
      </trkpt>
      <trkpt lat="42.50981" lon="1.20048">
        <ele>844.4</ele>
        <time>2022-05-22 17:45:49</time>
      </trkpt>
      <trkpt lat="42.50986" lon="1.20042">
        <ele>844.4</ele>
        <time>2022-05-22 17:45:50</time>
      </trkpt>
      <trkpt lat="42.50989" lon="1.20036">
        <ele>844.4</ele>
        <time>2022-05-22 17:45:51</time>
      </trkpt>
      <trkpt lat="42.50993" lon="1.2003">
        <ele>844.4</ele>
        <time>2022-05-22 17:45:52</time>
      </trkpt>
      <trkpt lat="42.50996" lon="1.20023">
        <ele>844.4</ele>
        <time>2022-05-22 17:45:53</time>
      </trkpt>
      <trkpt lat="42.51" lon="1.20016">
        <ele>844.4</ele>
        <time>2022-05-22 17:45:54</time>
      </trkpt>
      <trkpt lat="42.51003" lon="1.20009">
        <ele>844.4</ele>
        <time>2022-05-22 17:45:55</time>
      </trkpt>
      <trkpt lat="42.51006" lon="1.20001">
        <ele>844.4</ele>
        <time>2022-05-22 17:45:56</time>
      </trkpt>
      <trkpt lat="42.51009" lon="1.19995">
        <ele>844.4</ele>
        <time>2022-05-22 17:45:57</time>
      </trkpt>
      <trkpt lat="42.51011" lon="1.19986">
        <ele>844.2</ele>
        <time>2022-05-22 17:45:58</time>
      </trkpt>
      <trkpt lat="42.51014" lon="1.19979">
        <ele>844.2</ele>
        <time>2022-05-22 17:45:59</time>
      </trkpt>
      <trkpt lat="42.51016" lon="1.19971">
        <ele>844</ele>
        <time>2022-05-22 17:46:00</time>
      </trkpt>
      <trkpt lat="42.51018" lon="1.19963">
        <ele>844</ele>
        <time>2022-05-22 17:46:01</time>
      </trkpt>
      <trkpt lat="42.51021" lon="1.19956">
        <ele>844</ele>
        <time>2022-05-22 17:46:02</time>
      </trkpt>
      <trkpt lat="42.51023" lon="1.1995">
        <ele>844</ele>
        <time>2022-05-22 17:46:03</time>
      </trkpt>
      <trkpt lat="42.51026" lon="1.19941">
        <ele>843.8</ele>
        <time>2022-05-22 17:46:04</time>
      </trkpt>
      <trkpt lat="42.51029" lon="1.19935">
        <ele>843.8</ele>
        <time>2022-05-22 17:46:05</time>
      </trkpt>
      <trkpt lat="42.51031" lon="1.19927">
        <ele>843.8</ele>
        <time>2022-05-22 17:46:06</time>
      </trkpt>
      <trkpt lat="42.51034" lon="1.19921">
        <ele>843.8</ele>
        <time>2022-05-22 17:46:07</time>
      </trkpt>
      <trkpt lat="42.51037" lon="1.19912">
        <ele>843.6</ele>
        <time>2022-05-22 17:46:08</time>
      </trkpt>
      <trkpt lat="42.51039" lon="1.19906">
        <ele>843.6</ele>
        <time>2022-05-22 17:46:09</time>
      </trkpt>
      <trkpt lat="42.51041" lon="1.19898">
        <ele>843.6</ele>
        <time>2022-05-22 17:46:10</time>
      </trkpt>
      <trkpt lat="42.51043" lon="1.19892">
        <ele>843.6</ele>
        <time>2022-05-22 17:46:11</time>
      </trkpt>
      <trkpt lat="42.51046" lon="1.19884">
        <ele>843.6</ele>
        <time>2022-05-22 17:46:12</time>
      </trkpt>
      <trkpt lat="42.51049" lon="1.19877">
        <ele>843.6</ele>
        <time>2022-05-22 17:46:13</time>
      </trkpt>
      <trkpt lat="42.51052" lon="1.1987">
        <ele>843.6</ele>
        <time>2022-05-22 17:46:14</time>
      </trkpt>
      <trkpt lat="42.51054" lon="1.19863">
        <ele>843.8</ele>
        <time>2022-05-22 17:46:15</time>
      </trkpt>
      <trkpt lat="42.51057" lon="1.19856">
        <ele>843.8</ele>
        <time>2022-05-22 17:46:16</time>
      </trkpt>
      <trkpt lat="42.51059" lon="1.1985">
        <ele>843.8</ele>
        <time>2022-05-22 17:46:17</time>
      </trkpt>
      <trkpt lat="42.51062" lon="1.19842">
        <ele>843.8</ele>
        <time>2022-05-22 17:46:18</time>
      </trkpt>
      <trkpt lat="42.51065" lon="1.19835">
        <ele>843.8</ele>
        <time>2022-05-22 17:46:19</time>
      </trkpt>
      <trkpt lat="42.51068" lon="1.19827">
        <ele>843.8</ele>
        <time>2022-05-22 17:46:20</time>
      </trkpt>
      <trkpt lat="42.5107" lon="1.1982">
        <ele>844</ele>
        <time>2022-05-22 17:46:21</time>
      </trkpt>
      <trkpt lat="42.51072" lon="1.19813">
        <ele>844</ele>
        <time>2022-05-22 17:46:22</time>
      </trkpt>
      <trkpt lat="42.51075" lon="1.19806">
        <ele>844.2</ele>
        <time>2022-05-22 17:46:23</time>
      </trkpt>
      <trkpt lat="42.51077" lon="1.19798">
        <ele>844.2</ele>
        <time>2022-05-22 17:46:24</time>
      </trkpt>
      <trkpt lat="42.51079" lon="1.1979">
        <ele>844.2</ele>
        <time>2022-05-22 17:46:25</time>
      </trkpt>
      <trkpt lat="42.51081" lon="1.19785">
        <ele>844.2</ele>
        <time>2022-05-22 17:46:26</time>
      </trkpt>
      <trkpt lat="42.51082" lon="1.19781">
        <ele>844.2</ele>
        <time>2022-05-22 17:46:27</time>
      </trkpt>
      <trkpt lat="42.51085" lon="1.1977">
        <ele>844.2</ele>
        <time>2022-05-22 17:46:28</time>
      </trkpt>
      <trkpt lat="42.51087" lon="1.19765">
        <ele>844.2</ele>
        <time>2022-05-22 17:46:29</time>
      </trkpt>
      <trkpt lat="42.5109" lon="1.19756">
        <ele>844.2</ele>
        <time>2022-05-22 17:46:30</time>
      </trkpt>
      <trkpt lat="42.51092" lon="1.19751">
        <ele>844.2</ele>
        <time>2022-05-22 17:46:31</time>
      </trkpt>
      <trkpt lat="42.51095" lon="1.19741">
        <ele>844.2</ele>
        <time>2022-05-22 17:46:32</time>
      </trkpt>
      <trkpt lat="42.51097" lon="1.19736">
        <ele>844.2</ele>
        <time>2022-05-22 17:46:33</time>
      </trkpt>
      <trkpt lat="42.511" lon="1.19728">
        <ele>844.4</ele>
        <time>2022-05-22 17:46:34</time>
      </trkpt>
      <trkpt lat="42.51102" lon="1.19723">
        <ele>844.4</ele>
        <time>2022-05-22 17:46:35</time>
      </trkpt>
      <trkpt lat="42.51106" lon="1.19714">
        <ele>844.4</ele>
        <time>2022-05-22 17:46:36</time>
      </trkpt>
      <trkpt lat="42.51108" lon="1.1971">
        <ele>844.4</ele>
        <time>2022-05-22 17:46:37</time>
      </trkpt>
      <trkpt lat="42.51112" lon="1.19701">
        <ele>844.4</ele>
        <time>2022-05-22 17:46:38</time>
      </trkpt>
      <trkpt lat="42.51114" lon="1.19696">
        <ele>844.4</ele>
        <time>2022-05-22 17:46:39</time>
      </trkpt>
      <trkpt lat="42.51117" lon="1.19688">
        <ele>844.6</ele>
        <time>2022-05-22 17:46:40</time>
      </trkpt>
      <trkpt lat="42.51119" lon="1.19683">
        <ele>844.6</ele>
        <time>2022-05-22 17:46:41</time>
      </trkpt>
      <trkpt lat="42.51123" lon="1.19674">
        <ele>844.6</ele>
        <time>2022-05-22 17:46:42</time>
      </trkpt>
      <trkpt lat="42.51125" lon="1.19669">
        <ele>844.6</ele>
        <time>2022-05-22 17:46:43</time>
      </trkpt>
      <trkpt lat="42.51129" lon="1.19662">
        <ele>844.6</ele>
        <time>2022-05-22 17:46:44</time>
      </trkpt>
      <trkpt lat="42.51131" lon="1.19658">
        <ele>844.6</ele>
        <time>2022-05-22 17:46:45</time>
      </trkpt>
      <trkpt lat="42.51135" lon="1.1965">
        <ele>844.8</ele>
        <time>2022-05-22 17:46:46</time>
      </trkpt>
      <trkpt lat="42.51138" lon="1.19646">
        <ele>844.8</ele>
        <time>2022-05-22 17:46:47</time>
      </trkpt>
      <trkpt lat="42.51142" lon="1.19638">
        <ele>844.8</ele>
        <time>2022-05-22 17:46:48</time>
      </trkpt>
      <trkpt lat="42.51144" lon="1.19633">
        <ele>844.8</ele>
        <time>2022-05-22 17:46:49</time>
      </trkpt>
      <trkpt lat="42.51148" lon="1.19626">
        <ele>845</ele>
        <time>2022-05-22 17:46:50</time>
      </trkpt>
      <trkpt lat="42.5115" lon="1.19622">
        <ele>845</ele>
        <time>2022-05-22 17:46:51</time>
      </trkpt>
      <trkpt lat="42.51155" lon="1.19614">
        <ele>845.2</ele>
        <time>2022-05-22 17:46:52</time>
      </trkpt>
      <trkpt lat="42.51159" lon="1.19607">
        <ele>845.2</ele>
        <time>2022-05-22 17:46:53</time>
      </trkpt>
      <trkpt lat="42.51162" lon="1.19601">
        <ele>845.4</ele>
        <time>2022-05-22 17:46:54</time>
      </trkpt>
      <trkpt lat="42.51166" lon="1.19595">
        <ele>845.4</ele>
        <time>2022-05-22 17:46:55</time>
      </trkpt>
      <trkpt lat="42.51169" lon="1.1959">
        <ele>845.6</ele>
        <time>2022-05-22 17:46:56</time>
      </trkpt>
      <trkpt lat="42.51172" lon="1.19584">
        <ele>845.8</ele>
        <time>2022-05-22 17:46:57</time>
      </trkpt>
      <trkpt lat="42.51176" lon="1.19579">
        <ele>845.8</ele>
        <time>2022-05-22 17:46:58</time>
      </trkpt>
      <trkpt lat="42.51179" lon="1.19574">
        <ele>846</ele>
        <time>2022-05-22 17:46:59</time>
      </trkpt>
      <trkpt lat="42.51183" lon="1.19568">
        <ele>846.2</ele>
        <time>2022-05-22 17:47:00</time>
      </trkpt>
      <trkpt lat="42.51187" lon="1.19563">
        <ele>846.2</ele>
        <time>2022-05-22 17:47:01</time>
      </trkpt>
      <trkpt lat="42.5119" lon="1.19558">
        <ele>846.4</ele>
        <time>2022-05-22 17:47:02</time>
      </trkpt>
      <trkpt lat="42.51194" lon="1.19553">
        <ele>846.6</ele>
        <time>2022-05-22 17:47:03</time>
      </trkpt>
      <trkpt lat="42.51198" lon="1.19548">
        <ele>846.6</ele>
        <time>2022-05-22 17:47:04</time>
      </trkpt>
      <trkpt lat="42.51201" lon="1.19544">
        <ele>846.8</ele>
        <time>2022-05-22 17:47:05</time>
      </trkpt>
      <trkpt lat="42.51205" lon="1.1954">
        <ele>847</ele>
        <time>2022-05-22 17:47:06</time>
      </trkpt>
      <trkpt lat="42.51208" lon="1.19536">
        <ele>847.2</ele>
        <time>2022-05-22 17:47:07</time>
      </trkpt>
      <trkpt lat="42.51211" lon="1.19531">
        <ele>847.4</ele>
        <time>2022-05-22 17:47:08</time>
      </trkpt>
      <trkpt lat="42.51215" lon="1.19528">
        <ele>847.4</ele>
        <time>2022-05-22 17:47:09</time>
      </trkpt>
      <trkpt lat="42.51218" lon="1.19524">
        <ele>847.6</ele>
        <time>2022-05-22 17:47:10</time>
      </trkpt>
      <trkpt lat="42.51221" lon="1.1952">
        <ele>847.8</ele>
        <time>2022-05-22 17:47:11</time>
      </trkpt>
      <trkpt lat="42.51224" lon="1.19517">
        <ele>848</ele>
        <time>2022-05-22 17:47:12</time>
      </trkpt>
      <trkpt lat="42.51228" lon="1.19513">
        <ele>848</ele>
        <time>2022-05-22 17:47:13</time>
      </trkpt>
      <trkpt lat="42.51231" lon="1.1951">
        <ele>848.2</ele>
        <time>2022-05-22 17:47:14</time>
      </trkpt>
      <trkpt lat="42.51235" lon="1.19506">
        <ele>848.4</ele>
        <time>2022-05-22 17:47:15</time>
      </trkpt>
      <trkpt lat="42.51238" lon="1.19503">
        <ele>848.6</ele>
        <time>2022-05-22 17:47:16</time>
      </trkpt>
      <trkpt lat="42.51242" lon="1.195">
        <ele>848.6</ele>
        <time>2022-05-22 17:47:17</time>
      </trkpt>
      <trkpt lat="42.51245" lon="1.19497">
        <ele>848.8</ele>
        <time>2022-05-22 17:47:18</time>
      </trkpt>
      <trkpt lat="42.51249" lon="1.19494">
        <ele>849</ele>
        <time>2022-05-22 17:47:19</time>
      </trkpt>
      <trkpt lat="42.51252" lon="1.19491">
        <ele>849</ele>
        <time>2022-05-22 17:47:20</time>
      </trkpt>
      <trkpt lat="42.51256" lon="1.19488">
        <ele>849.2</ele>
        <time>2022-05-22 17:47:21</time>
      </trkpt>
      <trkpt lat="42.5126" lon="1.19485">
        <ele>849.2</ele>
        <time>2022-05-22 17:47:22</time>
      </trkpt>
      <trkpt lat="42.51264" lon="1.19482">
        <ele>849.4</ele>
        <time>2022-05-22 17:47:23</time>
      </trkpt>
      <trkpt lat="42.51268" lon="1.1948">
        <ele>849.6</ele>
        <time>2022-05-22 17:47:24</time>
      </trkpt>
      <trkpt lat="42.51271" lon="1.19477">
        <ele>849.6</ele>
        <time>2022-05-22 17:47:25</time>
      </trkpt>
      <trkpt lat="42.51275" lon="1.19475">
        <ele>849.8</ele>
        <time>2022-05-22 17:47:26</time>
      </trkpt>
      <trkpt lat="42.51279" lon="1.19472">
        <ele>849.8</ele>
        <time>2022-05-22 17:47:27</time>
      </trkpt>
      <trkpt lat="42.51283" lon="1.1947">
        <ele>850</ele>
        <time>2022-05-22 17:47:28</time>
      </trkpt>
      <trkpt lat="42.51287" lon="1.19468">
        <ele>850.2</ele>
        <time>2022-05-22 17:47:29</time>
      </trkpt>
      <trkpt lat="42.51291" lon="1.19466">
        <ele>850.4</ele>
        <time>2022-05-22 17:47:30</time>
      </trkpt>
      <trkpt lat="42.51295" lon="1.19464">
        <ele>850.4</ele>
        <time>2022-05-22 17:47:31</time>
      </trkpt>
      <trkpt lat="42.513" lon="1.19462">
        <ele>850.6</ele>
        <time>2022-05-22 17:47:32</time>
      </trkpt>
      <trkpt lat="42.51304" lon="1.19461">
        <ele>850.8</ele>
        <time>2022-05-22 17:47:33</time>
      </trkpt>
      <trkpt lat="42.51308" lon="1.1946">
        <ele>851</ele>
        <time>2022-05-22 17:47:34</time>
      </trkpt>
      <trkpt lat="42.51312" lon="1.19459">
        <ele>851</ele>
        <time>2022-05-22 17:47:35</time>
      </trkpt>
      <trkpt lat="42.51317" lon="1.19459">
        <ele>851.2</ele>
        <time>2022-05-22 17:47:36</time>
      </trkpt>
      <trkpt lat="42.51322" lon="1.19458">
        <ele>851.4</ele>
        <time>2022-05-22 17:47:37</time>
      </trkpt>
      <trkpt lat="42.51326" lon="1.19458">
        <ele>851.4</ele>
        <time>2022-05-22 17:47:38</time>
      </trkpt>
      <trkpt lat="42.5133" lon="1.19457">
        <ele>851.6</ele>
        <time>2022-05-22 17:47:39</time>
      </trkpt>
      <trkpt lat="42.51335" lon="1.19457">
        <ele>851.8</ele>
        <time>2022-05-22 17:47:40</time>
      </trkpt>
      <trkpt lat="42.5134" lon="1.19457">
        <ele>852</ele>
        <time>2022-05-22 17:47:41</time>
      </trkpt>
      <trkpt lat="42.51344" lon="1.19457">
        <ele>852</ele>
        <time>2022-05-22 17:47:42</time>
      </trkpt>
      <trkpt lat="42.51349" lon="1.19457">
        <ele>852.2</ele>
        <time>2022-05-22 17:47:43</time>
      </trkpt>
      <trkpt lat="42.51353" lon="1.19457">
        <ele>852.4</ele>
        <time>2022-05-22 17:47:44</time>
      </trkpt>
      <trkpt lat="42.51358" lon="1.19457">
        <ele>852.4</ele>
        <time>2022-05-22 17:47:45</time>
      </trkpt>
      <trkpt lat="42.51363" lon="1.19457">
        <ele>852.6</ele>
        <time>2022-05-22 17:47:46</time>
      </trkpt>
      <trkpt lat="42.51367" lon="1.19457">
        <ele>852.8</ele>
        <time>2022-05-22 17:47:47</time>
      </trkpt>
      <trkpt lat="42.51372" lon="1.19457">
        <ele>852.8</ele>
        <time>2022-05-22 17:47:48</time>
      </trkpt>
      <trkpt lat="42.51376" lon="1.19457">
        <ele>853</ele>
        <time>2022-05-22 17:47:49</time>
      </trkpt>
      <trkpt lat="42.5138" lon="1.19457">
        <ele>853</ele>
        <time>2022-05-22 17:47:50</time>
      </trkpt>
      <trkpt lat="42.51385" lon="1.19457">
        <ele>853.2</ele>
        <time>2022-05-22 17:47:51</time>
      </trkpt>
      <trkpt lat="42.51389" lon="1.19458">
        <ele>853.2</ele>
        <time>2022-05-22 17:47:52</time>
      </trkpt>
      <trkpt lat="42.51394" lon="1.19458">
        <ele>853.2</ele>
        <time>2022-05-22 17:47:53</time>
      </trkpt>
      <trkpt lat="42.51398" lon="1.19459">
        <ele>853.2</ele>
        <time>2022-05-22 17:47:54</time>
      </trkpt>
      <trkpt lat="42.51403" lon="1.19459">
        <ele>853.2</ele>
        <time>2022-05-22 17:47:55</time>
      </trkpt>
      <trkpt lat="42.51407" lon="1.1946">
        <ele>853.2</ele>
        <time>2022-05-22 17:47:56</time>
      </trkpt>
      <trkpt lat="42.51412" lon="1.1946">
        <ele>853.2</ele>
        <time>2022-05-22 17:47:57</time>
      </trkpt>
      <trkpt lat="42.51416" lon="1.1946">
        <ele>853.2</ele>
        <time>2022-05-22 17:47:58</time>
      </trkpt>
      <trkpt lat="42.51421" lon="1.19461">
        <ele>853.2</ele>
        <time>2022-05-22 17:47:59</time>
      </trkpt>
      <trkpt lat="42.51426" lon="1.19461">
        <ele>853.2</ele>
        <time>2022-05-22 17:48:00</time>
      </trkpt>
      <trkpt lat="42.5143" lon="1.19463">
        <ele>853.2</ele>
        <time>2022-05-22 17:48:01</time>
      </trkpt>
      <trkpt lat="42.51435" lon="1.19465">
        <ele>853.2</ele>
        <time>2022-05-22 17:48:02</time>
      </trkpt>
      <trkpt lat="42.5144" lon="1.19466">
        <ele>853.2</ele>
        <time>2022-05-22 17:48:03</time>
      </trkpt>
      <trkpt lat="42.51445" lon="1.19468">
        <ele>853.2</ele>
        <time>2022-05-22 17:48:04</time>
      </trkpt>
      <trkpt lat="42.5145" lon="1.19471">
        <ele>853.2</ele>
        <time>2022-05-22 17:48:05</time>
      </trkpt>
      <trkpt lat="42.51455" lon="1.19474">
        <ele>853.2</ele>
        <time>2022-05-22 17:48:06</time>
      </trkpt>
      <trkpt lat="42.5146" lon="1.19476">
        <ele>853</ele>
        <time>2022-05-22 17:48:07</time>
      </trkpt>
      <trkpt lat="42.51465" lon="1.19479">
        <ele>853</ele>
        <time>2022-05-22 17:48:08</time>
      </trkpt>
      <trkpt lat="42.5147" lon="1.19482">
        <ele>853</ele>
        <time>2022-05-22 17:48:09</time>
      </trkpt>
      <trkpt lat="42.51475" lon="1.19484">
        <ele>853</ele>
        <time>2022-05-22 17:48:10</time>
      </trkpt>
      <trkpt lat="42.5148" lon="1.19487">
        <ele>853</ele>
        <time>2022-05-22 17:48:11</time>
      </trkpt>
      <trkpt lat="42.51486" lon="1.1949">
        <ele>852.8</ele>
        <time>2022-05-22 17:48:12</time>
      </trkpt>
      <trkpt lat="42.51491" lon="1.19494">
        <ele>852.8</ele>
        <time>2022-05-22 17:48:13</time>
      </trkpt>
      <trkpt lat="42.51497" lon="1.19497">
        <ele>852.8</ele>
        <time>2022-05-22 17:48:14</time>
      </trkpt>
      <trkpt lat="42.51502" lon="1.195">
        <ele>852.6</ele>
        <time>2022-05-22 17:48:15</time>
      </trkpt>
      <trkpt lat="42.51508" lon="1.19502">
        <ele>852.6</ele>
        <time>2022-05-22 17:48:16</time>
      </trkpt>
      <trkpt lat="42.51514" lon="1.19505">
        <ele>852.4</ele>
        <time>2022-05-22 17:48:17</time>
      </trkpt>
      <trkpt lat="42.5152" lon="1.19507">
        <ele>852.4</ele>
        <time>2022-05-22 17:48:18</time>
      </trkpt>
      <trkpt lat="42.51526" lon="1.1951">
        <ele>852.2</ele>
        <time>2022-05-22 17:48:19</time>
      </trkpt>
      <trkpt lat="42.51532" lon="1.19512">
        <ele>852.2</ele>
        <time>2022-05-22 17:48:20</time>
      </trkpt>
      <trkpt lat="42.51538" lon="1.19513">
        <ele>852</ele>
        <time>2022-05-22 17:48:21</time>
      </trkpt>
      <trkpt lat="42.51544" lon="1.19514">
        <ele>852</ele>
        <time>2022-05-22 17:48:22</time>
      </trkpt>
      <trkpt lat="42.5155" lon="1.19513">
        <ele>851.8</ele>
        <time>2022-05-22 17:48:23</time>
      </trkpt>
      <trkpt lat="42.51557" lon="1.19513">
        <ele>851.6</ele>
        <time>2022-05-22 17:48:24</time>
      </trkpt>
      <trkpt lat="42.51563" lon="1.19512">
        <ele>851.6</ele>
        <time>2022-05-22 17:48:25</time>
      </trkpt>
      <trkpt lat="42.5157" lon="1.19512">
        <ele>851.4</ele>
        <time>2022-05-22 17:48:26</time>
      </trkpt>
      <trkpt lat="42.51576" lon="1.19512">
        <ele>851.4</ele>
        <time>2022-05-22 17:48:27</time>
      </trkpt>
      <trkpt lat="42.51583" lon="1.1951">
        <ele>851.2</ele>
        <time>2022-05-22 17:48:28</time>
      </trkpt>
      <trkpt lat="42.5159" lon="1.19509">
        <ele>851.2</ele>
        <time>2022-05-22 17:48:29</time>
      </trkpt>
      <trkpt lat="42.51597" lon="1.19506">
        <ele>851</ele>
        <time>2022-05-22 17:48:30</time>
      </trkpt>
      <trkpt lat="42.51604" lon="1.19504">
        <ele>850.8</ele>
        <time>2022-05-22 17:48:31</time>
      </trkpt>
      <trkpt lat="42.51611" lon="1.19501">
        <ele>850.6</ele>
        <time>2022-05-22 17:48:32</time>
      </trkpt>
      <trkpt lat="42.51618" lon="1.19499">
        <ele>850.6</ele>
        <time>2022-05-22 17:48:33</time>
      </trkpt>
      <trkpt lat="42.51625" lon="1.19496">
        <ele>850.4</ele>
        <time>2022-05-22 17:48:34</time>
      </trkpt>
      <trkpt lat="42.51631" lon="1.19493">
        <ele>850.4</ele>
        <time>2022-05-22 17:48:35</time>
      </trkpt>
      <trkpt lat="42.51638" lon="1.19491">
        <ele>850.4</ele>
        <time>2022-05-22 17:48:36</time>
      </trkpt>
      <trkpt lat="42.51644" lon="1.19488">
        <ele>850.4</ele>
        <time>2022-05-22 17:48:37</time>
      </trkpt>
      <trkpt lat="42.5165" lon="1.19485">
        <ele>850.4</ele>
        <time>2022-05-22 17:48:38</time>
      </trkpt>
      <trkpt lat="42.51656" lon="1.19482">
        <ele>850.4</ele>
        <time>2022-05-22 17:48:39</time>
      </trkpt>
      <trkpt lat="42.51662" lon="1.19479">
        <ele>850.6</ele>
        <time>2022-05-22 17:48:40</time>
      </trkpt>
      <trkpt lat="42.51668" lon="1.19476">
        <ele>850.6</ele>
        <time>2022-05-22 17:48:41</time>
      </trkpt>
      <trkpt lat="42.51673" lon="1.19473">
        <ele>850.8</ele>
        <time>2022-05-22 17:48:42</time>
      </trkpt>
      <trkpt lat="42.51678" lon="1.1947">
        <ele>850.8</ele>
        <time>2022-05-22 17:48:43</time>
      </trkpt>
      <trkpt lat="42.51684" lon="1.19466">
        <ele>850.8</ele>
        <time>2022-05-22 17:48:44</time>
      </trkpt>
      <trkpt lat="42.51689" lon="1.19462">
        <ele>850.8</ele>
        <time>2022-05-22 17:48:45</time>
      </trkpt>
      <trkpt lat="42.51694" lon="1.19458">
        <ele>850.8</ele>
        <time>2022-05-22 17:48:46</time>
      </trkpt>
      <trkpt lat="42.51699" lon="1.19455">
        <ele>851</ele>
        <time>2022-05-22 17:48:47</time>
      </trkpt>
      <trkpt lat="42.51705" lon="1.19451">
        <ele>851</ele>
        <time>2022-05-22 17:48:48</time>
      </trkpt>
      <trkpt lat="42.5171" lon="1.19447">
        <ele>851.2</ele>
        <time>2022-05-22 17:48:49</time>
      </trkpt>
      <trkpt lat="42.51715" lon="1.19442">
        <ele>851.2</ele>
        <time>2022-05-22 17:48:50</time>
      </trkpt>
      <trkpt lat="42.51721" lon="1.19438">
        <ele>851.2</ele>
        <time>2022-05-22 17:48:51</time>
      </trkpt>
      <trkpt lat="42.51726" lon="1.19434">
        <ele>851.2</ele>
        <time>2022-05-22 17:48:52</time>
      </trkpt>
      <trkpt lat="42.51731" lon="1.19429">
        <ele>851.2</ele>
        <time>2022-05-22 17:48:53</time>
      </trkpt>
      <trkpt lat="42.51736" lon="1.19424">
        <ele>851.2</ele>
        <time>2022-05-22 17:48:54</time>
      </trkpt>
      <trkpt lat="42.5174" lon="1.1942">
        <ele>851.4</ele>
        <time>2022-05-22 17:48:55</time>
      </trkpt>
      <trkpt lat="42.51745" lon="1.19415">
        <ele>851.4</ele>
        <time>2022-05-22 17:48:56</time>
      </trkpt>
      <trkpt lat="42.5175" lon="1.1941">
        <ele>851.4</ele>
        <time>2022-05-22 17:48:57</time>
      </trkpt>
      <trkpt lat="42.51755" lon="1.19406">
        <ele>851.6</ele>
        <time>2022-05-22 17:48:58</time>
      </trkpt>
      <trkpt lat="42.5176" lon="1.19401">
        <ele>851.6</ele>
        <time>2022-05-22 17:48:59</time>
      </trkpt>
      <trkpt lat="42.51764" lon="1.19396">
        <ele>851.6</ele>
        <time>2022-05-22 17:49:00</time>
      </trkpt>
      <trkpt lat="42.51769" lon="1.19391">
        <ele>851.6</ele>
        <time>2022-05-22 17:49:01</time>
      </trkpt>
      <trkpt lat="42.51774" lon="1.19387">
        <ele>851.8</ele>
        <time>2022-05-22 17:49:02</time>
      </trkpt>
      <trkpt lat="42.51778" lon="1.19382">
        <ele>851.8</ele>
        <time>2022-05-22 17:49:03</time>
      </trkpt>
      <trkpt lat="42.51782" lon="1.19378">
        <ele>851.8</ele>
        <time>2022-05-22 17:49:04</time>
      </trkpt>
      <trkpt lat="42.51786" lon="1.19373">
        <ele>851.8</ele>
        <time>2022-05-22 17:49:05</time>
      </trkpt>
      <trkpt lat="42.51791" lon="1.19369">
        <ele>851.8</ele>
        <time>2022-05-22 17:49:06</time>
      </trkpt>
      <trkpt lat="42.51796" lon="1.19364">
        <ele>851.8</ele>
        <time>2022-05-22 17:49:07</time>
      </trkpt>
      <trkpt lat="42.518" lon="1.19359">
        <ele>851.8</ele>
        <time>2022-05-22 17:49:08</time>
      </trkpt>
      <trkpt lat="42.51804" lon="1.19355">
        <ele>852</ele>
        <time>2022-05-22 17:49:09</time>
      </trkpt>
      <trkpt lat="42.51809" lon="1.19351">
        <ele>852</ele>
        <time>2022-05-22 17:49:10</time>
      </trkpt>
      <trkpt lat="42.51813" lon="1.19348">
        <ele>852</ele>
        <time>2022-05-22 17:49:11</time>
      </trkpt>
      <trkpt lat="42.51818" lon="1.19344">
        <ele>852</ele>
        <time>2022-05-22 17:49:12</time>
      </trkpt>
      <trkpt lat="42.51822" lon="1.19341">
        <ele>852</ele>
        <time>2022-05-22 17:49:13</time>
      </trkpt>
      <trkpt lat="42.51827" lon="1.19338">
        <ele>852</ele>
        <time>2022-05-22 17:49:14</time>
      </trkpt>
      <trkpt lat="42.51831" lon="1.19335">
        <ele>852.2</ele>
        <time>2022-05-22 17:49:15</time>
      </trkpt>
      <trkpt lat="42.51836" lon="1.19331">
        <ele>852.2</ele>
        <time>2022-05-22 17:49:16</time>
      </trkpt>
      <trkpt lat="42.51841" lon="1.19328">
        <ele>852.2</ele>
        <time>2022-05-22 17:49:17</time>
      </trkpt>
      <trkpt lat="42.51845" lon="1.19325">
        <ele>852.4</ele>
        <time>2022-05-22 17:49:18</time>
      </trkpt>
      <trkpt lat="42.5185" lon="1.19322">
        <ele>852.4</ele>
        <time>2022-05-22 17:49:19</time>
      </trkpt>
      <trkpt lat="42.51855" lon="1.19319">
        <ele>852.4</ele>
        <time>2022-05-22 17:49:20</time>
      </trkpt>
      <trkpt lat="42.51859" lon="1.19316">
        <ele>852.6</ele>
        <time>2022-05-22 17:49:21</time>
      </trkpt>
      <trkpt lat="42.51864" lon="1.19313">
        <ele>852.6</ele>
        <time>2022-05-22 17:49:22</time>
      </trkpt>
      <trkpt lat="42.51869" lon="1.19311">
        <ele>852.6</ele>
        <time>2022-05-22 17:49:23</time>
      </trkpt>
      <trkpt lat="42.51873" lon="1.19308">
        <ele>852.6</ele>
        <time>2022-05-22 17:49:24</time>
      </trkpt>
      <trkpt lat="42.51878" lon="1.19305">
        <ele>852.8</ele>
        <time>2022-05-22 17:49:25</time>
      </trkpt>
      <trkpt lat="42.51882" lon="1.19302">
        <ele>852.8</ele>
        <time>2022-05-22 17:49:26</time>
      </trkpt>
      <trkpt lat="42.51887" lon="1.193">
        <ele>852.8</ele>
        <time>2022-05-22 17:49:27</time>
      </trkpt>
      <trkpt lat="42.51892" lon="1.19297">
        <ele>852.8</ele>
        <time>2022-05-22 17:49:28</time>
      </trkpt>
      <trkpt lat="42.51897" lon="1.19294">
        <ele>852.8</ele>
        <time>2022-05-22 17:49:29</time>
      </trkpt>
      <trkpt lat="42.51902" lon="1.19291">
        <ele>852.8</ele>
        <time>2022-05-22 17:49:30</time>
      </trkpt>
      <trkpt lat="42.51907" lon="1.19288">
        <ele>852.8</ele>
        <time>2022-05-22 17:49:31</time>
      </trkpt>
      <trkpt lat="42.51911" lon="1.19286">
        <ele>852.8</ele>
        <time>2022-05-22 17:49:32</time>
      </trkpt>
      <trkpt lat="42.51916" lon="1.19283">
        <ele>853</ele>
        <time>2022-05-22 17:49:33</time>
      </trkpt>
      <trkpt lat="42.51921" lon="1.19281">
        <ele>853</ele>
        <time>2022-05-22 17:49:34</time>
      </trkpt>
      <trkpt lat="42.51926" lon="1.19278">
        <ele>853</ele>
        <time>2022-05-22 17:49:35</time>
      </trkpt>
      <trkpt lat="42.51931" lon="1.19276">
        <ele>853</ele>
        <time>2022-05-22 17:49:36</time>
      </trkpt>
      <trkpt lat="42.51935" lon="1.19274">
        <ele>853</ele>
        <time>2022-05-22 17:49:37</time>
      </trkpt>
      <trkpt lat="42.5194" lon="1.19272">
        <ele>853</ele>
        <time>2022-05-22 17:49:38</time>
      </trkpt>
      <trkpt lat="42.51945" lon="1.19271">
        <ele>853</ele>
        <time>2022-05-22 17:49:39</time>
      </trkpt>
      <trkpt lat="42.51951" lon="1.19269">
        <ele>853</ele>
        <time>2022-05-22 17:49:40</time>
      </trkpt>
      <trkpt lat="42.51956" lon="1.19267">
        <ele>853</ele>
        <time>2022-05-22 17:49:41</time>
      </trkpt>
      <trkpt lat="42.51961" lon="1.19266">
        <ele>853</ele>
        <time>2022-05-22 17:49:42</time>
      </trkpt>
      <trkpt lat="42.51966" lon="1.19265">
        <ele>853</ele>
        <time>2022-05-22 17:49:43</time>
      </trkpt>
      <trkpt lat="42.5197" lon="1.19265">
        <ele>853.2</ele>
        <time>2022-05-22 17:49:44</time>
      </trkpt>
      <trkpt lat="42.51975" lon="1.19264">
        <ele>853.2</ele>
        <time>2022-05-22 17:49:45</time>
      </trkpt>
      <trkpt lat="42.51981" lon="1.19265">
        <ele>853.2</ele>
        <time>2022-05-22 17:49:46</time>
      </trkpt>
      <trkpt lat="42.51986" lon="1.19265">
        <ele>853.2</ele>
        <time>2022-05-22 17:49:47</time>
      </trkpt>
      <trkpt lat="42.51991" lon="1.19266">
        <ele>853.4</ele>
        <time>2022-05-22 17:49:48</time>
      </trkpt>
      <trkpt lat="42.51997" lon="1.19266">
        <ele>853.4</ele>
        <time>2022-05-22 17:49:49</time>
      </trkpt>
      <trkpt lat="42.52002" lon="1.19267">
        <ele>853.4</ele>
        <time>2022-05-22 17:49:50</time>
      </trkpt>
      <trkpt lat="42.52006" lon="1.19268">
        <ele>853.4</ele>
        <time>2022-05-22 17:49:51</time>
      </trkpt>
      <trkpt lat="42.52011" lon="1.1927">
        <ele>853.4</ele>
        <time>2022-05-22 17:49:52</time>
      </trkpt>
      <trkpt lat="42.52016" lon="1.19272">
        <ele>853.6</ele>
        <time>2022-05-22 17:49:53</time>
      </trkpt>
      <trkpt lat="42.52021" lon="1.19273">
        <ele>853.6</ele>
        <time>2022-05-22 17:49:54</time>
      </trkpt>
      <trkpt lat="42.52026" lon="1.19276">
        <ele>853.6</ele>
        <time>2022-05-22 17:49:55</time>
      </trkpt>
      <trkpt lat="42.5203" lon="1.19278">
        <ele>853.6</ele>
        <time>2022-05-22 17:49:56</time>
      </trkpt>
      <trkpt lat="42.52035" lon="1.1928">
        <ele>853.6</ele>
        <time>2022-05-22 17:49:57</time>
      </trkpt>
      <trkpt lat="42.52039" lon="1.19283">
        <ele>853.8</ele>
        <time>2022-05-22 17:49:58</time>
      </trkpt>
      <trkpt lat="42.52043" lon="1.19286">
        <ele>853.8</ele>
        <time>2022-05-22 17:49:59</time>
      </trkpt>
      <trkpt lat="42.52048" lon="1.19289">
        <ele>853.8</ele>
        <time>2022-05-22 17:50:00</time>
      </trkpt>
      <trkpt lat="42.52053" lon="1.19292">
        <ele>853.8</ele>
        <time>2022-05-22 17:50:01</time>
      </trkpt>
      <trkpt lat="42.52057" lon="1.19295">
        <ele>853.8</ele>
        <time>2022-05-22 17:50:02</time>
      </trkpt>
      <trkpt lat="42.52062" lon="1.19298">
        <ele>854</ele>
        <time>2022-05-22 17:50:03</time>
      </trkpt>
      <trkpt lat="42.52066" lon="1.19301">
        <ele>854</ele>
        <time>2022-05-22 17:50:04</time>
      </trkpt>
      <trkpt lat="42.52071" lon="1.19304">
        <ele>854</ele>
        <time>2022-05-22 17:50:05</time>
      </trkpt>
      <trkpt lat="42.52075" lon="1.19307">
        <ele>854</ele>
        <time>2022-05-22 17:50:06</time>
      </trkpt>
      <trkpt lat="42.5208" lon="1.19311">
        <ele>854</ele>
        <time>2022-05-22 17:50:07</time>
      </trkpt>
      <trkpt lat="42.52085" lon="1.19314">
        <ele>854</ele>
        <time>2022-05-22 17:50:08</time>
      </trkpt>
      <trkpt lat="42.52089" lon="1.19317">
        <ele>854</ele>
        <time>2022-05-22 17:50:09</time>
      </trkpt>
      <trkpt lat="42.52093" lon="1.1932">
        <ele>854</ele>
        <time>2022-05-22 17:50:10</time>
      </trkpt>
      <trkpt lat="42.52098" lon="1.19324">
        <ele>854</ele>
        <time>2022-05-22 17:50:11</time>
      </trkpt>
      <trkpt lat="42.52102" lon="1.19327">
        <ele>854</ele>
        <time>2022-05-22 17:50:12</time>
      </trkpt>
      <trkpt lat="42.52107" lon="1.1933">
        <ele>854</ele>
        <time>2022-05-22 17:50:13</time>
      </trkpt>
      <trkpt lat="42.52111" lon="1.19333">
        <ele>854.2</ele>
        <time>2022-05-22 17:50:14</time>
      </trkpt>
      <trkpt lat="42.52116" lon="1.19336">
        <ele>854.2</ele>
        <time>2022-05-22 17:50:15</time>
      </trkpt>
      <trkpt lat="42.52121" lon="1.19339">
        <ele>854.2</ele>
        <time>2022-05-22 17:50:16</time>
      </trkpt>
      <trkpt lat="42.52125" lon="1.19342">
        <ele>854.2</ele>
        <time>2022-05-22 17:50:17</time>
      </trkpt>
      <trkpt lat="42.5213" lon="1.19344">
        <ele>854.2</ele>
        <time>2022-05-22 17:50:18</time>
      </trkpt>
      <trkpt lat="42.52135" lon="1.19347">
        <ele>854.2</ele>
        <time>2022-05-22 17:50:19</time>
      </trkpt>
      <trkpt lat="42.5214" lon="1.19349">
        <ele>854.4</ele>
        <time>2022-05-22 17:50:20</time>
      </trkpt>
      <trkpt lat="42.52144" lon="1.1935">
        <ele>854.4</ele>
        <time>2022-05-22 17:50:21</time>
      </trkpt>
      <trkpt lat="42.52149" lon="1.19352">
        <ele>854.4</ele>
        <time>2022-05-22 17:50:22</time>
      </trkpt>
      <trkpt lat="42.52154" lon="1.19354">
        <ele>854.4</ele>
        <time>2022-05-22 17:50:23</time>
      </trkpt>
      <trkpt lat="42.52159" lon="1.19355">
        <ele>854.4</ele>
        <time>2022-05-22 17:50:24</time>
      </trkpt>
      <trkpt lat="42.52164" lon="1.19356">
        <ele>854.4</ele>
        <time>2022-05-22 17:50:25</time>
      </trkpt>
      <trkpt lat="42.52169" lon="1.19356">
        <ele>854.4</ele>
        <time>2022-05-22 17:50:26</time>
      </trkpt>
      <trkpt lat="42.52174" lon="1.19357">
        <ele>854.6</ele>
        <time>2022-05-22 17:50:27</time>
      </trkpt>
      <trkpt lat="42.52179" lon="1.19357">
        <ele>854.6</ele>
        <time>2022-05-22 17:50:28</time>
      </trkpt>
      <trkpt lat="42.52184" lon="1.19357">
        <ele>854.6</ele>
        <time>2022-05-22 17:50:29</time>
      </trkpt>
      <trkpt lat="42.52189" lon="1.19357">
        <ele>854.6</ele>
        <time>2022-05-22 17:50:30</time>
      </trkpt>
      <trkpt lat="42.52193" lon="1.19356">
        <ele>854.6</ele>
        <time>2022-05-22 17:50:31</time>
      </trkpt>
      <trkpt lat="42.52198" lon="1.19355">
        <ele>854.6</ele>
        <time>2022-05-22 17:50:32</time>
      </trkpt>
      <trkpt lat="42.52203" lon="1.19354">
        <ele>854.6</ele>
        <time>2022-05-22 17:50:33</time>
      </trkpt>
      <trkpt lat="42.52208" lon="1.19353">
        <ele>854.6</ele>
        <time>2022-05-22 17:50:34</time>
      </trkpt>
      <trkpt lat="42.52212" lon="1.19352">
        <ele>854.8</ele>
        <time>2022-05-22 17:50:35</time>
      </trkpt>
      <trkpt lat="42.52217" lon="1.19351">
        <ele>854.8</ele>
        <time>2022-05-22 17:50:36</time>
      </trkpt>
      <trkpt lat="42.52221" lon="1.19349">
        <ele>854.8</ele>
        <time>2022-05-22 17:50:37</time>
      </trkpt>
      <trkpt lat="42.52226" lon="1.19347">
        <ele>854.8</ele>
        <time>2022-05-22 17:50:38</time>
      </trkpt>
      <trkpt lat="42.5223" lon="1.19344">
        <ele>854.8</ele>
        <time>2022-05-22 17:50:39</time>
      </trkpt>
      <trkpt lat="42.52234" lon="1.19342">
        <ele>854.8</ele>
        <time>2022-05-22 17:50:40</time>
      </trkpt>
      <trkpt lat="42.52238" lon="1.19339">
        <ele>854.8</ele>
        <time>2022-05-22 17:50:41</time>
      </trkpt>
      <trkpt lat="42.52242" lon="1.19336">
        <ele>854.8</ele>
        <time>2022-05-22 17:50:42</time>
      </trkpt>
      <trkpt lat="42.52246" lon="1.19334">
        <ele>854.6</ele>
        <time>2022-05-22 17:50:43</time>
      </trkpt>
      <trkpt lat="42.52251" lon="1.19332">
        <ele>854.6</ele>
        <time>2022-05-22 17:50:44</time>
      </trkpt>
      <trkpt lat="42.52255" lon="1.19329">
        <ele>854.6</ele>
        <time>2022-05-22 17:50:45</time>
      </trkpt>
      <trkpt lat="42.5226" lon="1.19326">
        <ele>854.6</ele>
        <time>2022-05-22 17:50:46</time>
      </trkpt>
      <trkpt lat="42.52264" lon="1.19324">
        <ele>854.6</ele>
        <time>2022-05-22 17:50:47</time>
      </trkpt>
      <trkpt lat="42.52268" lon="1.19321">
        <ele>854.6</ele>
        <time>2022-05-22 17:50:48</time>
      </trkpt>
      <trkpt lat="42.52273" lon="1.19318">
        <ele>854.6</ele>
        <time>2022-05-22 17:50:49</time>
      </trkpt>
      <trkpt lat="42.52277" lon="1.19315">
        <ele>854.6</ele>
        <time>2022-05-22 17:50:50</time>
      </trkpt>
      <trkpt lat="42.52281" lon="1.19313">
        <ele>854.6</ele>
        <time>2022-05-22 17:50:51</time>
      </trkpt>
      <trkpt lat="42.52286" lon="1.1931">
        <ele>854.4</ele>
        <time>2022-05-22 17:50:52</time>
      </trkpt>
      <trkpt lat="42.52291" lon="1.19308">
        <ele>854.4</ele>
        <time>2022-05-22 17:50:53</time>
      </trkpt>
      <trkpt lat="42.52295" lon="1.19306">
        <ele>854.4</ele>
        <time>2022-05-22 17:50:54</time>
      </trkpt>
      <trkpt lat="42.523" lon="1.19304">
        <ele>854.4</ele>
        <time>2022-05-22 17:50:55</time>
      </trkpt>
      <trkpt lat="42.52305" lon="1.19302">
        <ele>854.6</ele>
        <time>2022-05-22 17:50:56</time>
      </trkpt>
      <trkpt lat="42.5231" lon="1.193">
        <ele>854.6</ele>
        <time>2022-05-22 17:50:57</time>
      </trkpt>
      <trkpt lat="42.52314" lon="1.19297">
        <ele>854.6</ele>
        <time>2022-05-22 17:50:58</time>
      </trkpt>
      <trkpt lat="42.52318" lon="1.19295">
        <ele>854.8</ele>
        <time>2022-05-22 17:50:59</time>
      </trkpt>
      <trkpt lat="42.52323" lon="1.19292">
        <ele>854.8</ele>
        <time>2022-05-22 17:51:00</time>
      </trkpt>
      <trkpt lat="42.52328" lon="1.1929">
        <ele>854.8</ele>
        <time>2022-05-22 17:51:01</time>
      </trkpt>
      <trkpt lat="42.52332" lon="1.19287">
        <ele>855</ele>
        <time>2022-05-22 17:51:02</time>
      </trkpt>
      <trkpt lat="42.52336" lon="1.19284">
        <ele>855</ele>
        <time>2022-05-22 17:51:03</time>
      </trkpt>
      <trkpt lat="42.5234" lon="1.19281">
        <ele>855</ele>
        <time>2022-05-22 17:51:04</time>
      </trkpt>
      <trkpt lat="42.52344" lon="1.19278">
        <ele>855</ele>
        <time>2022-05-22 17:51:05</time>
      </trkpt>
      <trkpt lat="42.52348" lon="1.19274">
        <ele>855</ele>
        <time>2022-05-22 17:51:06</time>
      </trkpt>
      <trkpt lat="42.52351" lon="1.19271">
        <ele>855.2</ele>
        <time>2022-05-22 17:51:07</time>
      </trkpt>
      <trkpt lat="42.52355" lon="1.19268">
        <ele>855.2</ele>
        <time>2022-05-22 17:51:08</time>
      </trkpt>
      <trkpt lat="42.52358" lon="1.19264">
        <ele>855.2</ele>
        <time>2022-05-22 17:51:09</time>
      </trkpt>
      <trkpt lat="42.52361" lon="1.1926">
        <ele>855.4</ele>
        <time>2022-05-22 17:51:10</time>
      </trkpt>
      <trkpt lat="42.52364" lon="1.19256">
        <ele>855.4</ele>
        <time>2022-05-22 17:51:11</time>
      </trkpt>
      <trkpt lat="42.52367" lon="1.19252">
        <ele>855.4</ele>
        <time>2022-05-22 17:51:12</time>
      </trkpt>
      <trkpt lat="42.5237" lon="1.19248">
        <ele>855.6</ele>
        <time>2022-05-22 17:51:13</time>
      </trkpt>
      <trkpt lat="42.52374" lon="1.19243">
        <ele>855.6</ele>
        <time>2022-05-22 17:51:14</time>
      </trkpt>
      <trkpt lat="42.52378" lon="1.19238">
        <ele>855.8</ele>
        <time>2022-05-22 17:51:15</time>
      </trkpt>
      <trkpt lat="42.52381" lon="1.19233">
        <ele>855.8</ele>
        <time>2022-05-22 17:51:16</time>
      </trkpt>
      <trkpt lat="42.52384" lon="1.19228">
        <ele>856</ele>
        <time>2022-05-22 17:51:17</time>
      </trkpt>
      <trkpt lat="42.52388" lon="1.19223">
        <ele>856</ele>
        <time>2022-05-22 17:51:18</time>
      </trkpt>
      <trkpt lat="42.5239" lon="1.19217">
        <ele>856.2</ele>
        <time>2022-05-22 17:51:19</time>
      </trkpt>
      <trkpt lat="42.52393" lon="1.19212">
        <ele>856.4</ele>
        <time>2022-05-22 17:51:20</time>
      </trkpt>
      <trkpt lat="42.52395" lon="1.19206">
        <ele>856.4</ele>
        <time>2022-05-22 17:51:21</time>
      </trkpt>
      <trkpt lat="42.52398" lon="1.19201">
        <ele>856.6</ele>
        <time>2022-05-22 17:51:22</time>
      </trkpt>
      <trkpt lat="42.52399" lon="1.19195">
        <ele>856.6</ele>
        <time>2022-05-22 17:51:23</time>
      </trkpt>
      <trkpt lat="42.52401" lon="1.19189">
        <ele>856.8</ele>
        <time>2022-05-22 17:51:24</time>
      </trkpt>
      <trkpt lat="42.52402" lon="1.19184">
        <ele>856.8</ele>
        <time>2022-05-22 17:51:25</time>
      </trkpt>
      <trkpt lat="42.52403" lon="1.19179">
        <ele>857</ele>
        <time>2022-05-22 17:51:26</time>
      </trkpt>
      <trkpt lat="42.52405" lon="1.19173">
        <ele>857</ele>
        <time>2022-05-22 17:51:27</time>
      </trkpt>
      <trkpt lat="42.52406" lon="1.19167">
        <ele>857.2</ele>
        <time>2022-05-22 17:51:28</time>
      </trkpt>
      <trkpt lat="42.52408" lon="1.19161">
        <ele>857.2</ele>
        <time>2022-05-22 17:51:29</time>
      </trkpt>
      <trkpt lat="42.52409" lon="1.19156">
        <ele>857.4</ele>
        <time>2022-05-22 17:51:30</time>
      </trkpt>
      <trkpt lat="42.5241" lon="1.1915">
        <ele>857.4</ele>
        <time>2022-05-22 17:51:31</time>
      </trkpt>
      <trkpt lat="42.52411" lon="1.19145">
        <ele>857.6</ele>
        <time>2022-05-22 17:51:32</time>
      </trkpt>
      <trkpt lat="42.52412" lon="1.1914">
        <ele>857.6</ele>
        <time>2022-05-22 17:51:33</time>
      </trkpt>
      <trkpt lat="42.52413" lon="1.19135">
        <ele>857.8</ele>
        <time>2022-05-22 17:51:34</time>
      </trkpt>
      <trkpt lat="42.52414" lon="1.19129">
        <ele>857.8</ele>
        <time>2022-05-22 17:51:35</time>
      </trkpt>
      <trkpt lat="42.52415" lon="1.19124">
        <ele>857.8</ele>
        <time>2022-05-22 17:51:36</time>
      </trkpt>
      <trkpt lat="42.52416" lon="1.19118">
        <ele>857.8</ele>
        <time>2022-05-22 17:51:37</time>
      </trkpt>
      <trkpt lat="42.52418" lon="1.19112">
        <ele>858</ele>
        <time>2022-05-22 17:51:38</time>
      </trkpt>
      <trkpt lat="42.52419" lon="1.19107">
        <ele>858</ele>
        <time>2022-05-22 17:51:39</time>
      </trkpt>
      <trkpt lat="42.52421" lon="1.19101">
        <ele>858</ele>
        <time>2022-05-22 17:51:40</time>
      </trkpt>
      <trkpt lat="42.52423" lon="1.19096">
        <ele>858</ele>
        <time>2022-05-22 17:51:41</time>
      </trkpt>
      <trkpt lat="42.52425" lon="1.19091">
        <ele>858.2</ele>
        <time>2022-05-22 17:51:42</time>
      </trkpt>
      <trkpt lat="42.52427" lon="1.19086">
        <ele>858.2</ele>
        <time>2022-05-22 17:51:43</time>
      </trkpt>
      <trkpt lat="42.5243" lon="1.19081">
        <ele>858.2</ele>
        <time>2022-05-22 17:51:44</time>
      </trkpt>
      <trkpt lat="42.52433" lon="1.19076">
        <ele>858.2</ele>
        <time>2022-05-22 17:51:45</time>
      </trkpt>
      <trkpt lat="42.52436" lon="1.19071">
        <ele>858.4</ele>
        <time>2022-05-22 17:51:46</time>
      </trkpt>
      <trkpt lat="42.52438" lon="1.19066">
        <ele>858.4</ele>
        <time>2022-05-22 17:51:47</time>
      </trkpt>
      <trkpt lat="42.52441" lon="1.19062">
        <ele>858.4</ele>
        <time>2022-05-22 17:51:48</time>
      </trkpt>
      <trkpt lat="42.52444" lon="1.19058">
        <ele>858.6</ele>
        <time>2022-05-22 17:51:49</time>
      </trkpt>
      <trkpt lat="42.52447" lon="1.19053">
        <ele>858.6</ele>
        <time>2022-05-22 17:51:50</time>
      </trkpt>
      <trkpt lat="42.5245" lon="1.19048">
        <ele>858.6</ele>
        <time>2022-05-22 17:51:51</time>
      </trkpt>
      <trkpt lat="42.52454" lon="1.19043">
        <ele>858.6</ele>
        <time>2022-05-22 17:51:52</time>
      </trkpt>
      <trkpt lat="42.52457" lon="1.19038">
        <ele>858.6</ele>
        <time>2022-05-22 17:51:53</time>
      </trkpt>
      <trkpt lat="42.5246" lon="1.19034">
        <ele>858.8</ele>
        <time>2022-05-22 17:51:54</time>
      </trkpt>
      <trkpt lat="42.52464" lon="1.1903">
        <ele>858.8</ele>
        <time>2022-05-22 17:51:55</time>
      </trkpt>
      <trkpt lat="42.52467" lon="1.19025">
        <ele>858.8</ele>
        <time>2022-05-22 17:51:56</time>
      </trkpt>
      <trkpt lat="42.5247" lon="1.1902">
        <ele>858.8</ele>
        <time>2022-05-22 17:51:57</time>
      </trkpt>
      <trkpt lat="42.52474" lon="1.19016">
        <ele>858.8</ele>
        <time>2022-05-22 17:51:58</time>
      </trkpt>
      <trkpt lat="42.52477" lon="1.19012">
        <ele>858.8</ele>
        <time>2022-05-22 17:51:59</time>
      </trkpt>
      <trkpt lat="42.5248" lon="1.19007">
        <ele>859</ele>
        <time>2022-05-22 17:52:00</time>
      </trkpt>
      <trkpt lat="42.52484" lon="1.19003">
        <ele>858.8</ele>
        <time>2022-05-22 17:52:01</time>
      </trkpt>
      <trkpt lat="42.52487" lon="1.18999">
        <ele>858.8</ele>
        <time>2022-05-22 17:52:02</time>
      </trkpt>
      <trkpt lat="42.52491" lon="1.18994">
        <ele>858.8</ele>
        <time>2022-05-22 17:52:03</time>
      </trkpt>
      <trkpt lat="42.52495" lon="1.1899">
        <ele>858.8</ele>
        <time>2022-05-22 17:52:04</time>
      </trkpt>
      <trkpt lat="42.52499" lon="1.18985">
        <ele>858.8</ele>
        <time>2022-05-22 17:52:05</time>
      </trkpt>
      <trkpt lat="42.52502" lon="1.1898">
        <ele>858.6</ele>
        <time>2022-05-22 17:52:06</time>
      </trkpt>
      <trkpt lat="42.52506" lon="1.18975">
        <ele>858.6</ele>
        <time>2022-05-22 17:52:07</time>
      </trkpt>
      <trkpt lat="42.5251" lon="1.18971">
        <ele>858.6</ele>
        <time>2022-05-22 17:52:08</time>
      </trkpt>
      <trkpt lat="42.52513" lon="1.18966">
        <ele>858.6</ele>
        <time>2022-05-22 17:52:09</time>
      </trkpt>
      <trkpt lat="42.52517" lon="1.18961">
        <ele>858.6</ele>
        <time>2022-05-22 17:52:10</time>
      </trkpt>
      <trkpt lat="42.5252" lon="1.18956">
        <ele>858.6</ele>
        <time>2022-05-22 17:52:11</time>
      </trkpt>
      <trkpt lat="42.52524" lon="1.18951">
        <ele>858.6</ele>
        <time>2022-05-22 17:52:12</time>
      </trkpt>
      <trkpt lat="42.52527" lon="1.18946">
        <ele>858.8</ele>
        <time>2022-05-22 17:52:13</time>
      </trkpt>
      <trkpt lat="42.52529" lon="1.18941">
        <ele>858.8</ele>
        <time>2022-05-22 17:52:14</time>
      </trkpt>
      <trkpt lat="42.52531" lon="1.18936">
        <ele>858.8</ele>
        <time>2022-05-22 17:52:15</time>
      </trkpt>
      <trkpt lat="42.52533" lon="1.1893">
        <ele>858.8</ele>
        <time>2022-05-22 17:52:16</time>
      </trkpt>
      <trkpt lat="42.52534" lon="1.18925">
        <ele>858.8</ele>
        <time>2022-05-22 17:52:17</time>
      </trkpt>
      <trkpt lat="42.52536" lon="1.18919">
        <ele>859</ele>
        <time>2022-05-22 17:52:18</time>
      </trkpt>
      <trkpt lat="42.52537" lon="1.18915">
        <ele>859.2</ele>
        <time>2022-05-22 17:52:19</time>
      </trkpt>
      <trkpt lat="42.52539" lon="1.1891">
        <ele>859.2</ele>
        <time>2022-05-22 17:52:20</time>
      </trkpt>
      <trkpt lat="42.5254" lon="1.18905">
        <ele>859.4</ele>
        <time>2022-05-22 17:52:21</time>
      </trkpt>
      <trkpt lat="42.52541" lon="1.189">
        <ele>859.6</ele>
        <time>2022-05-22 17:52:22</time>
      </trkpt>
      <trkpt lat="42.52542" lon="1.18896">
        <ele>859.6</ele>
        <time>2022-05-22 17:52:23</time>
      </trkpt>
      <trkpt lat="42.52543" lon="1.18892">
        <ele>859.8</ele>
        <time>2022-05-22 17:52:24</time>
      </trkpt>
      <trkpt lat="42.52545" lon="1.18886">
        <ele>859.8</ele>
        <time>2022-05-22 17:52:25</time>
      </trkpt>
      <trkpt lat="42.52546" lon="1.18881">
        <ele>860</ele>
        <time>2022-05-22 17:52:26</time>
      </trkpt>
      <trkpt lat="42.52546" lon="1.18877">
        <ele>860</ele>
        <time>2022-05-22 17:52:27</time>
      </trkpt>
      <trkpt lat="42.52548" lon="1.18872">
        <ele>860.2</ele>
        <time>2022-05-22 17:52:28</time>
      </trkpt>
      <trkpt lat="42.52549" lon="1.18868">
        <ele>860.4</ele>
        <time>2022-05-22 17:52:29</time>
      </trkpt>
      <trkpt lat="42.5255" lon="1.18863">
        <ele>860.6</ele>
        <time>2022-05-22 17:52:30</time>
      </trkpt>
      <trkpt lat="42.52551" lon="1.18858">
        <ele>860.6</ele>
        <time>2022-05-22 17:52:31</time>
      </trkpt>
      <trkpt lat="42.52552" lon="1.18853">
        <ele>860.8</ele>
        <time>2022-05-22 17:52:32</time>
      </trkpt>
      <trkpt lat="42.52554" lon="1.18848">
        <ele>860.8</ele>
        <time>2022-05-22 17:52:33</time>
      </trkpt>
      <trkpt lat="42.52555" lon="1.18843">
        <ele>861</ele>
        <time>2022-05-22 17:52:34</time>
      </trkpt>
      <trkpt lat="42.52556" lon="1.18838">
        <ele>861.2</ele>
        <time>2022-05-22 17:52:35</time>
      </trkpt>
      <trkpt lat="42.52559" lon="1.1883">
        <ele>861.6</ele>
        <time>2022-05-22 17:52:36</time>
      </trkpt>
      <trkpt lat="42.52562" lon="1.18822">
        <ele>861.6</ele>
        <time>2022-05-22 17:52:37</time>
      </trkpt>
      <trkpt lat="42.52564" lon="1.18817">
        <ele>861.8</ele>
        <time>2022-05-22 17:52:38</time>
      </trkpt>
      <trkpt lat="42.52565" lon="1.18815">
        <ele>862</ele>
        <time>2022-05-22 17:52:39</time>
      </trkpt>
      <trkpt lat="42.52564" lon="1.18812">
        <ele>862.2</ele>
        <time>2022-05-22 17:52:40</time>
      </trkpt>
      <trkpt lat="42.5256" lon="1.18809">
        <ele>862.2</ele>
        <time>2022-05-22 17:52:41</time>
      </trkpt>
      <trkpt lat="42.52558" lon="1.18809">
        <ele>862.4</ele>
        <time>2022-05-22 17:52:42</time>
      </trkpt>
      <trkpt lat="42.5256" lon="1.18808">
        <ele>862.6</ele>
        <time>2022-05-22 17:52:43</time>
      </trkpt>
      <trkpt lat="42.52565" lon="1.18806">
        <ele>862.8</ele>
        <time>2022-05-22 17:52:44</time>
      </trkpt>
      <trkpt lat="42.52571" lon="1.188">
        <ele>863</ele>
        <time>2022-05-22 17:52:45</time>
      </trkpt>
      <trkpt lat="42.52575" lon="1.18795">
        <ele>863</ele>
        <time>2022-05-22 17:52:46</time>
      </trkpt>
      <trkpt lat="42.52574" lon="1.18789">
        <ele>863.2</ele>
        <time>2022-05-22 17:52:47</time>
      </trkpt>
      <trkpt lat="42.52574" lon="1.18783">
        <ele>863.4</ele>
        <time>2022-05-22 17:52:48</time>
      </trkpt>
      <trkpt lat="42.52574" lon="1.18777">
        <ele>863.4</ele>
        <time>2022-05-22 17:52:49</time>
      </trkpt>
      <trkpt lat="42.52574" lon="1.18772">
        <ele>863.6</ele>
        <time>2022-05-22 17:52:50</time>
      </trkpt>
      <trkpt lat="42.52574" lon="1.18768">
        <ele>863.8</ele>
        <time>2022-05-22 17:52:51</time>
      </trkpt>
      <trkpt lat="42.52573" lon="1.18763">
        <ele>863.8</ele>
        <time>2022-05-22 17:52:52</time>
      </trkpt>
      <trkpt lat="42.52574" lon="1.18758">
        <ele>864</ele>
        <time>2022-05-22 17:52:53</time>
      </trkpt>
      <trkpt lat="42.52574" lon="1.18754">
        <ele>864</ele>
        <time>2022-05-22 17:52:54</time>
      </trkpt>
      <trkpt lat="42.52574" lon="1.18749">
        <ele>864.2</ele>
        <time>2022-05-22 17:52:55</time>
      </trkpt>
      <trkpt lat="42.52573" lon="1.18745">
        <ele>864.4</ele>
        <time>2022-05-22 17:52:56</time>
      </trkpt>
      <trkpt lat="42.52573" lon="1.1874">
        <ele>864.4</ele>
        <time>2022-05-22 17:52:57</time>
      </trkpt>
      <trkpt lat="42.52573" lon="1.18735">
        <ele>864.6</ele>
        <time>2022-05-22 17:52:58</time>
      </trkpt>
      <trkpt lat="42.52572" lon="1.1873">
        <ele>864.6</ele>
        <time>2022-05-22 17:52:59</time>
      </trkpt>
      <trkpt lat="42.52571" lon="1.18725">
        <ele>864.8</ele>
        <time>2022-05-22 17:53:00</time>
      </trkpt>
      <trkpt lat="42.52571" lon="1.18721">
        <ele>864.8</ele>
        <time>2022-05-22 17:53:01</time>
      </trkpt>
      <trkpt lat="42.5257" lon="1.18717">
        <ele>865</ele>
        <time>2022-05-22 17:53:02</time>
      </trkpt>
      <trkpt lat="42.52569" lon="1.18714">
        <ele>865</ele>
        <time>2022-05-22 17:53:03</time>
      </trkpt>
      <trkpt lat="42.52569" lon="1.18709">
        <ele>865.2</ele>
        <time>2022-05-22 17:53:04</time>
      </trkpt>
      <trkpt lat="42.52568" lon="1.18705">
        <ele>865.2</ele>
        <time>2022-05-22 17:53:05</time>
      </trkpt>
      <trkpt lat="42.52568" lon="1.18702">
        <ele>865.4</ele>
        <time>2022-05-22 17:53:06</time>
      </trkpt>
      <trkpt lat="42.52567" lon="1.18698">
        <ele>865.4</ele>
        <time>2022-05-22 17:53:07</time>
      </trkpt>
      <trkpt lat="42.52567" lon="1.18694">
        <ele>865.6</ele>
        <time>2022-05-22 17:53:08</time>
      </trkpt>
      <trkpt lat="42.52566" lon="1.18689">
        <ele>865.6</ele>
        <time>2022-05-22 17:53:09</time>
      </trkpt>
      <trkpt lat="42.52565" lon="1.18684">
        <ele>865.8</ele>
        <time>2022-05-22 17:53:10</time>
      </trkpt>
      <trkpt lat="42.52564" lon="1.18679">
        <ele>865.8</ele>
        <time>2022-05-22 17:53:11</time>
      </trkpt>
      <trkpt lat="42.52563" lon="1.18673">
        <ele>866</ele>
        <time>2022-05-22 17:53:12</time>
      </trkpt>
      <trkpt lat="42.52563" lon="1.18669">
        <ele>866</ele>
        <time>2022-05-22 17:53:13</time>
      </trkpt>
      <trkpt lat="42.52562" lon="1.18663">
        <ele>866.2</ele>
        <time>2022-05-22 17:53:14</time>
      </trkpt>
      <trkpt lat="42.52562" lon="1.18659">
        <ele>866.2</ele>
        <time>2022-05-22 17:53:15</time>
      </trkpt>
      <trkpt lat="42.52562" lon="1.18654">
        <ele>866.2</ele>
        <time>2022-05-22 17:53:16</time>
      </trkpt>
      <trkpt lat="42.52562" lon="1.1865">
        <ele>866.4</ele>
        <time>2022-05-22 17:53:17</time>
      </trkpt>
      <trkpt lat="42.52562" lon="1.18645">
        <ele>866.4</ele>
        <time>2022-05-22 17:53:18</time>
      </trkpt>
      <trkpt lat="42.52563" lon="1.18641">
        <ele>866.4</ele>
        <time>2022-05-22 17:53:19</time>
      </trkpt>
      <trkpt lat="42.52563" lon="1.18636">
        <ele>866.4</ele>
        <time>2022-05-22 17:53:20</time>
      </trkpt>
      <trkpt lat="42.52563" lon="1.18631">
        <ele>866.4</ele>
        <time>2022-05-22 17:53:21</time>
      </trkpt>
      <trkpt lat="42.52564" lon="1.18627">
        <ele>866.6</ele>
        <time>2022-05-22 17:53:22</time>
      </trkpt>
      <trkpt lat="42.52565" lon="1.18622">
        <ele>866.6</ele>
        <time>2022-05-22 17:53:23</time>
      </trkpt>
      <trkpt lat="42.52566" lon="1.18617">
        <ele>866.6</ele>
        <time>2022-05-22 17:53:24</time>
      </trkpt>
      <trkpt lat="42.52567" lon="1.18611">
        <ele>866.6</ele>
        <time>2022-05-22 17:53:25</time>
      </trkpt>
      <trkpt lat="42.52568" lon="1.18606">
        <ele>866.6</ele>
        <time>2022-05-22 17:53:26</time>
      </trkpt>
      <trkpt lat="42.52569" lon="1.18601">
        <ele>866.8</ele>
        <time>2022-05-22 17:53:27</time>
      </trkpt>
      <trkpt lat="42.5257" lon="1.18598">
        <ele>866.8</ele>
        <time>2022-05-22 17:53:28</time>
      </trkpt>
      <trkpt lat="42.52573" lon="1.18591">
        <ele>866.8</ele>
        <time>2022-05-22 17:53:29</time>
      </trkpt>
      <trkpt lat="42.52575" lon="1.18586">
        <ele>866.8</ele>
        <time>2022-05-22 17:53:30</time>
      </trkpt>
      <trkpt lat="42.52577" lon="1.18581">
        <ele>866.8</ele>
        <time>2022-05-22 17:53:31</time>
      </trkpt>
      <trkpt lat="42.52579" lon="1.18575">
        <ele>866.8</ele>
        <time>2022-05-22 17:53:32</time>
      </trkpt>
      <trkpt lat="42.52582" lon="1.18571">
        <ele>866.8</ele>
        <time>2022-05-22 17:53:33</time>
      </trkpt>
      <trkpt lat="42.52584" lon="1.18567">
        <ele>866.8</ele>
        <time>2022-05-22 17:53:34</time>
      </trkpt>
      <trkpt lat="42.52588" lon="1.18561">
        <ele>866.6</ele>
        <time>2022-05-22 17:53:35</time>
      </trkpt>
      <trkpt lat="42.52591" lon="1.18557">
        <ele>866.6</ele>
        <time>2022-05-22 17:53:36</time>
      </trkpt>
      <trkpt lat="42.52595" lon="1.18552">
        <ele>866.6</ele>
        <time>2022-05-22 17:53:37</time>
      </trkpt>
      <trkpt lat="42.52598" lon="1.18549">
        <ele>866.6</ele>
        <time>2022-05-22 17:53:38</time>
      </trkpt>
      <trkpt lat="42.52603" lon="1.18544">
        <ele>866.4</ele>
        <time>2022-05-22 17:53:39</time>
      </trkpt>
      <trkpt lat="42.52607" lon="1.1854">
        <ele>866.4</ele>
        <time>2022-05-22 17:53:40</time>
      </trkpt>
      <trkpt lat="42.52611" lon="1.18536">
        <ele>866.2</ele>
        <time>2022-05-22 17:53:41</time>
      </trkpt>
      <trkpt lat="42.52615" lon="1.18533">
        <ele>866</ele>
        <time>2022-05-22 17:53:42</time>
      </trkpt>
      <trkpt lat="42.5262" lon="1.18529">
        <ele>866</ele>
        <time>2022-05-22 17:53:43</time>
      </trkpt>
      <trkpt lat="42.52624" lon="1.18526">
        <ele>865.8</ele>
        <time>2022-05-22 17:53:44</time>
      </trkpt>
      <trkpt lat="42.52629" lon="1.18522">
        <ele>865.8</ele>
        <time>2022-05-22 17:53:45</time>
      </trkpt>
      <trkpt lat="42.52633" lon="1.18519">
        <ele>865.6</ele>
        <time>2022-05-22 17:53:46</time>
      </trkpt>
      <trkpt lat="42.52638" lon="1.18515">
        <ele>865.4</ele>
        <time>2022-05-22 17:53:47</time>
      </trkpt>
      <trkpt lat="42.52642" lon="1.18513">
        <ele>865.4</ele>
        <time>2022-05-22 17:53:48</time>
      </trkpt>
      <trkpt lat="42.52648" lon="1.18509">
        <ele>865.2</ele>
        <time>2022-05-22 17:53:49</time>
      </trkpt>
      <trkpt lat="42.52653" lon="1.18506">
        <ele>865.2</ele>
        <time>2022-05-22 17:53:50</time>
      </trkpt>
      <trkpt lat="42.52658" lon="1.18502">
        <ele>865</ele>
        <time>2022-05-22 17:53:51</time>
      </trkpt>
      <trkpt lat="42.52663" lon="1.185">
        <ele>865</ele>
        <time>2022-05-22 17:53:52</time>
      </trkpt>
      <trkpt lat="42.52668" lon="1.18496">
        <ele>864.8</ele>
        <time>2022-05-22 17:53:53</time>
      </trkpt>
      <trkpt lat="42.52673" lon="1.18494">
        <ele>864.8</ele>
        <time>2022-05-22 17:53:54</time>
      </trkpt>
      <trkpt lat="42.52678" lon="1.1849">
        <ele>864.8</ele>
        <time>2022-05-22 17:53:55</time>
      </trkpt>
      <trkpt lat="42.52682" lon="1.18488">
        <ele>864.6</ele>
        <time>2022-05-22 17:53:56</time>
      </trkpt>
      <trkpt lat="42.52688" lon="1.18485">
        <ele>864.6</ele>
        <time>2022-05-22 17:53:57</time>
      </trkpt>
      <trkpt lat="42.52692" lon="1.18482">
        <ele>864.8</ele>
        <time>2022-05-22 17:53:58</time>
      </trkpt>
      <trkpt lat="42.52697" lon="1.18479">
        <ele>864.8</ele>
        <time>2022-05-22 17:53:59</time>
      </trkpt>
      <trkpt lat="42.52701" lon="1.18477">
        <ele>864.8</ele>
        <time>2022-05-22 17:54:00</time>
      </trkpt>
      <trkpt lat="42.52707" lon="1.18474">
        <ele>864.8</ele>
        <time>2022-05-22 17:54:01</time>
      </trkpt>
      <trkpt lat="42.52711" lon="1.18471">
        <ele>864.8</ele>
        <time>2022-05-22 17:54:02</time>
      </trkpt>
      <trkpt lat="42.52716" lon="1.18468">
        <ele>864.8</ele>
        <time>2022-05-22 17:54:03</time>
      </trkpt>
      <trkpt lat="42.5272" lon="1.18466">
        <ele>864.8</ele>
        <time>2022-05-22 17:54:04</time>
      </trkpt>
      <trkpt lat="42.52726" lon="1.18463">
        <ele>864.8</ele>
        <time>2022-05-22 17:54:05</time>
      </trkpt>
      <trkpt lat="42.5273" lon="1.1846">
        <ele>864.8</ele>
        <time>2022-05-22 17:54:06</time>
      </trkpt>
      <trkpt lat="42.52735" lon="1.18457">
        <ele>864.8</ele>
        <time>2022-05-22 17:54:07</time>
      </trkpt>
      <trkpt lat="42.52739" lon="1.18454">
        <ele>864.8</ele>
        <time>2022-05-22 17:54:08</time>
      </trkpt>
      <trkpt lat="42.52745" lon="1.18451">
        <ele>864.8</ele>
        <time>2022-05-22 17:54:09</time>
      </trkpt>
      <trkpt lat="42.52749" lon="1.18449">
        <ele>864.8</ele>
        <time>2022-05-22 17:54:10</time>
      </trkpt>
      <trkpt lat="42.52755" lon="1.18446">
        <ele>864.8</ele>
        <time>2022-05-22 17:54:11</time>
      </trkpt>
      <trkpt lat="42.52759" lon="1.18443">
        <ele>865</ele>
        <time>2022-05-22 17:54:12</time>
      </trkpt>
      <trkpt lat="42.52764" lon="1.18439">
        <ele>865</ele>
        <time>2022-05-22 17:54:13</time>
      </trkpt>
      <trkpt lat="42.52768" lon="1.18436">
        <ele>865</ele>
        <time>2022-05-22 17:54:14</time>
      </trkpt>
      <trkpt lat="42.52773" lon="1.18432">
        <ele>865</ele>
        <time>2022-05-22 17:54:15</time>
      </trkpt>
      <trkpt lat="42.52776" lon="1.18429">
        <ele>865</ele>
        <time>2022-05-22 17:54:16</time>
      </trkpt>
      <trkpt lat="42.52781" lon="1.18425">
        <ele>865</ele>
        <time>2022-05-22 17:54:17</time>
      </trkpt>
      <trkpt lat="42.52784" lon="1.18421">
        <ele>865</ele>
        <time>2022-05-22 17:54:18</time>
      </trkpt>
      <trkpt lat="42.52789" lon="1.18416">
        <ele>865</ele>
        <time>2022-05-22 17:54:19</time>
      </trkpt>
      <trkpt lat="42.52792" lon="1.18412">
        <ele>865</ele>
        <time>2022-05-22 17:54:20</time>
      </trkpt>
      <trkpt lat="42.52796" lon="1.18407">
        <ele>865</ele>
        <time>2022-05-22 17:54:21</time>
      </trkpt>
      <trkpt lat="42.528" lon="1.18402">
        <ele>865</ele>
        <time>2022-05-22 17:54:22</time>
      </trkpt>
      <trkpt lat="42.52804" lon="1.18397">
        <ele>865</ele>
        <time>2022-05-22 17:54:23</time>
      </trkpt>
      <trkpt lat="42.52807" lon="1.18392">
        <ele>865.2</ele>
        <time>2022-05-22 17:54:24</time>
      </trkpt>
      <trkpt lat="42.5281" lon="1.18386">
        <ele>865.2</ele>
        <time>2022-05-22 17:54:25</time>
      </trkpt>
      <trkpt lat="42.52813" lon="1.18381">
        <ele>865.2</ele>
        <time>2022-05-22 17:54:26</time>
      </trkpt>
      <trkpt lat="42.52815" lon="1.18375">
        <ele>865.2</ele>
        <time>2022-05-22 17:54:27</time>
      </trkpt>
      <trkpt lat="42.52818" lon="1.18369">
        <ele>865.2</ele>
        <time>2022-05-22 17:54:28</time>
      </trkpt>
      <trkpt lat="42.52821" lon="1.18362">
        <ele>865.2</ele>
        <time>2022-05-22 17:54:29</time>
      </trkpt>
      <trkpt lat="42.52823" lon="1.18357">
        <ele>865.2</ele>
        <time>2022-05-22 17:54:30</time>
      </trkpt>
      <trkpt lat="42.52825" lon="1.1835">
        <ele>865.2</ele>
        <time>2022-05-22 17:54:31</time>
      </trkpt>
      <trkpt lat="42.52827" lon="1.18344">
        <ele>865.2</ele>
        <time>2022-05-22 17:54:32</time>
      </trkpt>
      <trkpt lat="42.5283" lon="1.18336">
        <ele>865.2</ele>
        <time>2022-05-22 17:54:33</time>
      </trkpt>
      <trkpt lat="42.52832" lon="1.1833">
        <ele>865.2</ele>
        <time>2022-05-22 17:54:34</time>
      </trkpt>
      <trkpt lat="42.52834" lon="1.18323">
        <ele>865.2</ele>
        <time>2022-05-22 17:54:35</time>
      </trkpt>
      <trkpt lat="42.52836" lon="1.18317">
        <ele>865.2</ele>
        <time>2022-05-22 17:54:36</time>
      </trkpt>
      <trkpt lat="42.52837" lon="1.18308">
        <ele>865.2</ele>
        <time>2022-05-22 17:54:37</time>
      </trkpt>
      <trkpt lat="42.52838" lon="1.18302">
        <ele>865.2</ele>
        <time>2022-05-22 17:54:38</time>
      </trkpt>
      <trkpt lat="42.5284" lon="1.18295">
        <ele>865.2</ele>
        <time>2022-05-22 17:54:39</time>
      </trkpt>
      <trkpt lat="42.52841" lon="1.18289">
        <ele>865.2</ele>
        <time>2022-05-22 17:54:40</time>
      </trkpt>
      <trkpt lat="42.52843" lon="1.18281">
        <ele>865.2</ele>
        <time>2022-05-22 17:54:41</time>
      </trkpt>
      <trkpt lat="42.52844" lon="1.18275">
        <ele>865.2</ele>
        <time>2022-05-22 17:54:42</time>
      </trkpt>
      <trkpt lat="42.52846" lon="1.18267">
        <ele>865.2</ele>
        <time>2022-05-22 17:54:43</time>
      </trkpt>
      <trkpt lat="42.52846" lon="1.18261">
        <ele>865.2</ele>
        <time>2022-05-22 17:54:44</time>
      </trkpt>
      <trkpt lat="42.52847" lon="1.18253">
        <ele>865.2</ele>
        <time>2022-05-22 17:54:45</time>
      </trkpt>
      <trkpt lat="42.52848" lon="1.18247">
        <ele>865.2</ele>
        <time>2022-05-22 17:54:46</time>
      </trkpt>
      <trkpt lat="42.5285" lon="1.1824">
        <ele>865.2</ele>
        <time>2022-05-22 17:54:47</time>
      </trkpt>
      <trkpt lat="42.52851" lon="1.18234">
        <ele>865.2</ele>
        <time>2022-05-22 17:54:48</time>
      </trkpt>
      <trkpt lat="42.52852" lon="1.18226">
        <ele>865.2</ele>
        <time>2022-05-22 17:54:49</time>
      </trkpt>
      <trkpt lat="42.52853" lon="1.1822">
        <ele>865.4</ele>
        <time>2022-05-22 17:54:50</time>
      </trkpt>
      <trkpt lat="42.52854" lon="1.18212">
        <ele>865.4</ele>
        <time>2022-05-22 17:54:51</time>
      </trkpt>
      <trkpt lat="42.52855" lon="1.18206">
        <ele>865.4</ele>
        <time>2022-05-22 17:54:52</time>
      </trkpt>
      <trkpt lat="42.52856" lon="1.18197">
        <ele>865.6</ele>
        <time>2022-05-22 17:54:53</time>
      </trkpt>
      <trkpt lat="42.52857" lon="1.18191">
        <ele>865.6</ele>
        <time>2022-05-22 17:54:54</time>
      </trkpt>
      <trkpt lat="42.52859" lon="1.18183">
        <ele>865.6</ele>
        <time>2022-05-22 17:54:55</time>
      </trkpt>
      <trkpt lat="42.5286" lon="1.18177">
        <ele>865.6</ele>
        <time>2022-05-22 17:54:56</time>
      </trkpt>
      <trkpt lat="42.52862" lon="1.18167">
        <ele>865.6</ele>
        <time>2022-05-22 17:54:57</time>
      </trkpt>
      <trkpt lat="42.52864" lon="1.1816">
        <ele>865.6</ele>
        <time>2022-05-22 17:54:58</time>
      </trkpt>
      <trkpt lat="42.52866" lon="1.18151">
        <ele>865.6</ele>
        <time>2022-05-22 17:54:59</time>
      </trkpt>
      <trkpt lat="42.52868" lon="1.18144">
        <ele>865.6</ele>
        <time>2022-05-22 17:55:00</time>
      </trkpt>
      <trkpt lat="42.52871" lon="1.18135">
        <ele>865.6</ele>
        <time>2022-05-22 17:55:01</time>
      </trkpt>
      <trkpt lat="42.52874" lon="1.18128">
        <ele>865.4</ele>
        <time>2022-05-22 17:55:02</time>
      </trkpt>
      <trkpt lat="42.52877" lon="1.18119">
        <ele>865.4</ele>
        <time>2022-05-22 17:55:03</time>
      </trkpt>
      <trkpt lat="42.5288" lon="1.18113">
        <ele>865.4</ele>
        <time>2022-05-22 17:55:04</time>
      </trkpt>
      <trkpt lat="42.52884" lon="1.18104">
        <ele>865.2</ele>
        <time>2022-05-22 17:55:05</time>
      </trkpt>
      <trkpt lat="42.52887" lon="1.18098">
        <ele>865.2</ele>
        <time>2022-05-22 17:55:06</time>
      </trkpt>
      <trkpt lat="42.52892" lon="1.18091">
        <ele>865.2</ele>
        <time>2022-05-22 17:55:07</time>
      </trkpt>
      <trkpt lat="42.52896" lon="1.18085">
        <ele>865.2</ele>
        <time>2022-05-22 17:55:08</time>
      </trkpt>
      <trkpt lat="42.529" lon="1.18079">
        <ele>865.2</ele>
        <time>2022-05-22 17:55:09</time>
      </trkpt>
      <trkpt lat="42.52904" lon="1.18073">
        <ele>865.2</ele>
        <time>2022-05-22 17:55:10</time>
      </trkpt>
      <trkpt lat="42.52909" lon="1.18068">
        <ele>865.2</ele>
        <time>2022-05-22 17:55:11</time>
      </trkpt>
      <trkpt lat="42.52914" lon="1.18063">
        <ele>865.2</ele>
        <time>2022-05-22 17:55:12</time>
      </trkpt>
      <trkpt lat="42.52919" lon="1.18059">
        <ele>865.2</ele>
        <time>2022-05-22 17:55:13</time>
      </trkpt>
      <trkpt lat="42.52923" lon="1.18054">
        <ele>865.4</ele>
        <time>2022-05-22 17:55:14</time>
      </trkpt>
      <trkpt lat="42.52928" lon="1.1805">
        <ele>865.4</ele>
        <time>2022-05-22 17:55:15</time>
      </trkpt>
      <trkpt lat="42.52933" lon="1.18046">
        <ele>865.6</ele>
        <time>2022-05-22 17:55:16</time>
      </trkpt>
      <trkpt lat="42.52938" lon="1.18041">
        <ele>865.6</ele>
        <time>2022-05-22 17:55:17</time>
      </trkpt>
      <trkpt lat="42.52943" lon="1.18037">
        <ele>865.8</ele>
        <time>2022-05-22 17:55:18</time>
      </trkpt>
      <trkpt lat="42.52947" lon="1.18032">
        <ele>865.8</ele>
        <time>2022-05-22 17:55:19</time>
      </trkpt>
      <trkpt lat="42.52952" lon="1.18027">
        <ele>865.8</ele>
        <time>2022-05-22 17:55:20</time>
      </trkpt>
      <trkpt lat="42.52956" lon="1.18023">
        <ele>865.8</ele>
        <time>2022-05-22 17:55:21</time>
      </trkpt>
      <trkpt lat="42.52961" lon="1.18018">
        <ele>865.8</ele>
        <time>2022-05-22 17:55:22</time>
      </trkpt>
      <trkpt lat="42.52965" lon="1.18013">
        <ele>866</ele>
        <time>2022-05-22 17:55:23</time>
      </trkpt>
      <trkpt lat="42.52969" lon="1.18008">
        <ele>866</ele>
        <time>2022-05-22 17:55:24</time>
      </trkpt>
      <trkpt lat="42.52974" lon="1.18003">
        <ele>866</ele>
        <time>2022-05-22 17:55:25</time>
      </trkpt>
      <trkpt lat="42.52978" lon="1.17997">
        <ele>866</ele>
        <time>2022-05-22 17:55:26</time>
      </trkpt>
      <trkpt lat="42.52982" lon="1.17992">
        <ele>866</ele>
        <time>2022-05-22 17:55:27</time>
      </trkpt>
      <trkpt lat="42.52986" lon="1.17986">
        <ele>866</ele>
        <time>2022-05-22 17:55:28</time>
      </trkpt>
      <trkpt lat="42.52989" lon="1.17981">
        <ele>866</ele>
        <time>2022-05-22 17:55:29</time>
      </trkpt>
      <trkpt lat="42.52993" lon="1.17976">
        <ele>866</ele>
        <time>2022-05-22 17:55:30</time>
      </trkpt>
      <trkpt lat="42.52997" lon="1.17971">
        <ele>866</ele>
        <time>2022-05-22 17:55:31</time>
      </trkpt>
      <trkpt lat="42.53001" lon="1.17965">
        <ele>866</ele>
        <time>2022-05-22 17:55:32</time>
      </trkpt>
      <trkpt lat="42.53005" lon="1.1796">
        <ele>866</ele>
        <time>2022-05-22 17:55:33</time>
      </trkpt>
      <trkpt lat="42.5301" lon="1.17955">
        <ele>865.8</ele>
        <time>2022-05-22 17:55:34</time>
      </trkpt>
      <trkpt lat="42.53014" lon="1.17949">
        <ele>865.8</ele>
        <time>2022-05-22 17:55:35</time>
      </trkpt>
      <trkpt lat="42.53019" lon="1.17944">
        <ele>865.6</ele>
        <time>2022-05-22 17:55:36</time>
      </trkpt>
      <trkpt lat="42.53024" lon="1.17939">
        <ele>865.6</ele>
        <time>2022-05-22 17:55:37</time>
      </trkpt>
      <trkpt lat="42.5303" lon="1.17934">
        <ele>865.4</ele>
        <time>2022-05-22 17:55:38</time>
      </trkpt>
      <trkpt lat="42.53036" lon="1.1793">
        <ele>865.4</ele>
        <time>2022-05-22 17:55:39</time>
      </trkpt>
      <trkpt lat="42.53041" lon="1.17927">
        <ele>865.2</ele>
        <time>2022-05-22 17:55:40</time>
      </trkpt>
      <trkpt lat="42.53047" lon="1.17924">
        <ele>865.2</ele>
        <time>2022-05-22 17:55:41</time>
      </trkpt>
      <trkpt lat="42.53053" lon="1.17922">
        <ele>865.2</ele>
        <time>2022-05-22 17:55:42</time>
      </trkpt>
      <trkpt lat="42.53059" lon="1.1792">
        <ele>865.2</ele>
        <time>2022-05-22 17:55:43</time>
      </trkpt>
      <trkpt lat="42.53065" lon="1.1792">
        <ele>865.2</ele>
        <time>2022-05-22 17:55:44</time>
      </trkpt>
      <trkpt lat="42.53071" lon="1.17919">
        <ele>865.2</ele>
        <time>2022-05-22 17:55:45</time>
      </trkpt>
      <trkpt lat="42.53077" lon="1.17918">
        <ele>865.4</ele>
        <time>2022-05-22 17:55:46</time>
      </trkpt>
      <trkpt lat="42.53082" lon="1.17917">
        <ele>865.4</ele>
        <time>2022-05-22 17:55:47</time>
      </trkpt>
      <trkpt lat="42.53088" lon="1.17916">
        <ele>865.4</ele>
        <time>2022-05-22 17:55:48</time>
      </trkpt>
      <trkpt lat="42.53093" lon="1.17916">
        <ele>865.4</ele>
        <time>2022-05-22 17:55:49</time>
      </trkpt>
      <trkpt lat="42.53099" lon="1.17915">
        <ele>865.6</ele>
        <time>2022-05-22 17:55:50</time>
      </trkpt>
      <trkpt lat="42.53104" lon="1.17914">
        <ele>865.6</ele>
        <time>2022-05-22 17:55:51</time>
      </trkpt>
      <trkpt lat="42.53109" lon="1.17914">
        <ele>865.6</ele>
        <time>2022-05-22 17:55:52</time>
      </trkpt>
      <trkpt lat="42.53114" lon="1.17913">
        <ele>865.6</ele>
        <time>2022-05-22 17:55:53</time>
      </trkpt>
      <trkpt lat="42.5312" lon="1.17912">
        <ele>865.8</ele>
        <time>2022-05-22 17:55:54</time>
      </trkpt>
      <trkpt lat="42.53125" lon="1.17911">
        <ele>865.8</ele>
        <time>2022-05-22 17:55:55</time>
      </trkpt>
      <trkpt lat="42.5313" lon="1.17909">
        <ele>865.8</ele>
        <time>2022-05-22 17:55:56</time>
      </trkpt>
      <trkpt lat="42.53135" lon="1.17907">
        <ele>865.8</ele>
        <time>2022-05-22 17:55:57</time>
      </trkpt>
      <trkpt lat="42.53141" lon="1.17905">
        <ele>866</ele>
        <time>2022-05-22 17:55:58</time>
      </trkpt>
      <trkpt lat="42.53146" lon="1.17902">
        <ele>866</ele>
        <time>2022-05-22 17:55:59</time>
      </trkpt>
      <trkpt lat="42.53151" lon="1.17899">
        <ele>866</ele>
        <time>2022-05-22 17:56:00</time>
      </trkpt>
      <trkpt lat="42.53157" lon="1.17896">
        <ele>866</ele>
        <time>2022-05-22 17:56:01</time>
      </trkpt>
      <trkpt lat="42.53162" lon="1.17893">
        <ele>866.2</ele>
        <time>2022-05-22 17:56:02</time>
      </trkpt>
      <trkpt lat="42.53167" lon="1.1789">
        <ele>866.2</ele>
        <time>2022-05-22 17:56:03</time>
      </trkpt>
      <trkpt lat="42.53171" lon="1.17887">
        <ele>866.4</ele>
        <time>2022-05-22 17:56:04</time>
      </trkpt>
      <trkpt lat="42.53176" lon="1.17883">
        <ele>866.4</ele>
        <time>2022-05-22 17:56:05</time>
      </trkpt>
      <trkpt lat="42.5318" lon="1.17879">
        <ele>866.6</ele>
        <time>2022-05-22 17:56:06</time>
      </trkpt>
      <trkpt lat="42.53184" lon="1.17875">
        <ele>866.6</ele>
        <time>2022-05-22 17:56:07</time>
      </trkpt>
      <trkpt lat="42.53188" lon="1.17871">
        <ele>866.8</ele>
        <time>2022-05-22 17:56:08</time>
      </trkpt>
      <trkpt lat="42.53191" lon="1.17867">
        <ele>866.8</ele>
        <time>2022-05-22 17:56:09</time>
      </trkpt>
      <trkpt lat="42.53195" lon="1.17862">
        <ele>867</ele>
        <time>2022-05-22 17:56:10</time>
      </trkpt>
      <trkpt lat="42.53198" lon="1.17857">
        <ele>867</ele>
        <time>2022-05-22 17:56:11</time>
      </trkpt>
      <trkpt lat="42.53201" lon="1.17852">
        <ele>867</ele>
        <time>2022-05-22 17:56:12</time>
      </trkpt>
      <trkpt lat="42.53204" lon="1.17847">
        <ele>867</ele>
        <time>2022-05-22 17:56:13</time>
      </trkpt>
      <trkpt lat="42.53207" lon="1.17842">
        <ele>867.2</ele>
        <time>2022-05-22 17:56:14</time>
      </trkpt>
      <trkpt lat="42.5321" lon="1.17838">
        <ele>867.2</ele>
        <time>2022-05-22 17:56:15</time>
      </trkpt>
      <trkpt lat="42.53213" lon="1.17834">
        <ele>867.2</ele>
        <time>2022-05-22 17:56:16</time>
      </trkpt>
      <trkpt lat="42.53216" lon="1.17829">
        <ele>867.4</ele>
        <time>2022-05-22 17:56:17</time>
      </trkpt>
      <trkpt lat="42.53219" lon="1.17825">
        <ele>867.4</ele>
        <time>2022-05-22 17:56:18</time>
      </trkpt>
      <trkpt lat="42.53221" lon="1.1782">
        <ele>867.4</ele>
        <time>2022-05-22 17:56:19</time>
      </trkpt>
      <trkpt lat="42.53223" lon="1.17815">
        <ele>867.6</ele>
        <time>2022-05-22 17:56:20</time>
      </trkpt>
      <trkpt lat="42.53226" lon="1.1781">
        <ele>867.6</ele>
        <time>2022-05-22 17:56:21</time>
      </trkpt>
      <trkpt lat="42.53229" lon="1.17805">
        <ele>867.8</ele>
        <time>2022-05-22 17:56:22</time>
      </trkpt>
      <trkpt lat="42.53231" lon="1.17799">
        <ele>867.8</ele>
        <time>2022-05-22 17:56:23</time>
      </trkpt>
      <trkpt lat="42.53234" lon="1.17794">
        <ele>868</ele>
        <time>2022-05-22 17:56:24</time>
      </trkpt>
      <trkpt lat="42.53236" lon="1.17788">
        <ele>868</ele>
        <time>2022-05-22 17:56:25</time>
      </trkpt>
      <trkpt lat="42.53238" lon="1.17782">
        <ele>868.2</ele>
        <time>2022-05-22 17:56:26</time>
      </trkpt>
      <trkpt lat="42.5324" lon="1.17776">
        <ele>868.2</ele>
        <time>2022-05-22 17:56:27</time>
      </trkpt>
      <trkpt lat="42.53241" lon="1.17769">
        <ele>868.4</ele>
        <time>2022-05-22 17:56:28</time>
      </trkpt>
      <trkpt lat="42.53244" lon="1.17763">
        <ele>868.4</ele>
        <time>2022-05-22 17:56:29</time>
      </trkpt>
      <trkpt lat="42.53246" lon="1.17757">
        <ele>868.6</ele>
        <time>2022-05-22 17:56:30</time>
      </trkpt>
      <trkpt lat="42.53248" lon="1.17751">
        <ele>868.8</ele>
        <time>2022-05-22 17:56:31</time>
      </trkpt>
      <trkpt lat="42.5325" lon="1.17744">
        <ele>868.8</ele>
        <time>2022-05-22 17:56:32</time>
      </trkpt>
      <trkpt lat="42.53252" lon="1.17738">
        <ele>869</ele>
        <time>2022-05-22 17:56:33</time>
      </trkpt>
      <trkpt lat="42.53254" lon="1.17732">
        <ele>869</ele>
        <time>2022-05-22 17:56:34</time>
      </trkpt>
      <trkpt lat="42.53256" lon="1.17726">
        <ele>869.2</ele>
        <time>2022-05-22 17:56:35</time>
      </trkpt>
      <trkpt lat="42.53258" lon="1.1772">
        <ele>869.2</ele>
        <time>2022-05-22 17:56:36</time>
      </trkpt>
      <trkpt lat="42.5326" lon="1.17713">
        <ele>869.4</ele>
        <time>2022-05-22 17:56:37</time>
      </trkpt>
      <trkpt lat="42.53262" lon="1.17706">
        <ele>869.4</ele>
        <time>2022-05-22 17:56:38</time>
      </trkpt>
      <trkpt lat="42.53263" lon="1.17699">
        <ele>869.4</ele>
        <time>2022-05-22 17:56:39</time>
      </trkpt>
      <trkpt lat="42.53265" lon="1.17693">
        <ele>869.6</ele>
        <time>2022-05-22 17:56:40</time>
      </trkpt>
      <trkpt lat="42.53267" lon="1.17686">
        <ele>869.6</ele>
        <time>2022-05-22 17:56:41</time>
      </trkpt>
      <trkpt lat="42.53269" lon="1.1768">
        <ele>869.6</ele>
        <time>2022-05-22 17:56:42</time>
      </trkpt>
      <trkpt lat="42.53272" lon="1.17673">
        <ele>869.6</ele>
        <time>2022-05-22 17:56:43</time>
      </trkpt>
      <trkpt lat="42.53274" lon="1.17667">
        <ele>869.8</ele>
        <time>2022-05-22 17:56:44</time>
      </trkpt>
      <trkpt lat="42.53276" lon="1.17661">
        <ele>869.8</ele>
        <time>2022-05-22 17:56:45</time>
      </trkpt>
      <trkpt lat="42.53279" lon="1.17655">
        <ele>869.8</ele>
        <time>2022-05-22 17:56:46</time>
      </trkpt>
      <trkpt lat="42.53282" lon="1.17649">
        <ele>869.8</ele>
        <time>2022-05-22 17:56:47</time>
      </trkpt>
      <trkpt lat="42.53285" lon="1.17643">
        <ele>869.8</ele>
        <time>2022-05-22 17:56:48</time>
      </trkpt>
      <trkpt lat="42.53287" lon="1.17638">
        <ele>869.8</ele>
        <time>2022-05-22 17:56:49</time>
      </trkpt>
      <trkpt lat="42.5329" lon="1.17632">
        <ele>869.8</ele>
        <time>2022-05-22 17:56:50</time>
      </trkpt>
      <trkpt lat="42.53294" lon="1.17626">
        <ele>869.8</ele>
        <time>2022-05-22 17:56:51</time>
      </trkpt>
      <trkpt lat="42.53297" lon="1.17621">
        <ele>869.8</ele>
        <time>2022-05-22 17:56:52</time>
      </trkpt>
      <trkpt lat="42.533" lon="1.17616">
        <ele>870</ele>
        <time>2022-05-22 17:56:53</time>
      </trkpt>
      <trkpt lat="42.53304" lon="1.17612">
        <ele>870</ele>
        <time>2022-05-22 17:56:54</time>
      </trkpt>
      <trkpt lat="42.53307" lon="1.17607">
        <ele>870</ele>
        <time>2022-05-22 17:56:55</time>
      </trkpt>
      <trkpt lat="42.53311" lon="1.17603">
        <ele>870</ele>
        <time>2022-05-22 17:56:56</time>
      </trkpt>
      <trkpt lat="42.53315" lon="1.17598">
        <ele>870</ele>
        <time>2022-05-22 17:56:57</time>
      </trkpt>
      <trkpt lat="42.53319" lon="1.17594">
        <ele>870</ele>
        <time>2022-05-22 17:56:58</time>
      </trkpt>
      <trkpt lat="42.53323" lon="1.1759">
        <ele>870.2</ele>
        <time>2022-05-22 17:56:59</time>
      </trkpt>
      <trkpt lat="42.53328" lon="1.17586">
        <ele>870.2</ele>
        <time>2022-05-22 17:57:00</time>
      </trkpt>
      <trkpt lat="42.53333" lon="1.17582">
        <ele>870.2</ele>
        <time>2022-05-22 17:57:01</time>
      </trkpt>
      <trkpt lat="42.53338" lon="1.17579">
        <ele>870.2</ele>
        <time>2022-05-22 17:57:02</time>
      </trkpt>
      <trkpt lat="42.53342" lon="1.17575">
        <ele>870.2</ele>
        <time>2022-05-22 17:57:03</time>
      </trkpt>
      <trkpt lat="42.53347" lon="1.17572">
        <ele>870.2</ele>
        <time>2022-05-22 17:57:04</time>
      </trkpt>
      <trkpt lat="42.53351" lon="1.1757">
        <ele>870.2</ele>
        <time>2022-05-22 17:57:05</time>
      </trkpt>
      <trkpt lat="42.53355" lon="1.17567">
        <ele>870.2</ele>
        <time>2022-05-22 17:57:06</time>
      </trkpt>
      <trkpt lat="42.5336" lon="1.17565">
        <ele>870.2</ele>
        <time>2022-05-22 17:57:07</time>
      </trkpt>
      <trkpt lat="42.53364" lon="1.17563">
        <ele>870.4</ele>
        <time>2022-05-22 17:57:08</time>
      </trkpt>
      <trkpt lat="42.53369" lon="1.17561">
        <ele>870.4</ele>
        <time>2022-05-22 17:57:09</time>
      </trkpt>
      <trkpt lat="42.53374" lon="1.1756">
        <ele>870.4</ele>
        <time>2022-05-22 17:57:10</time>
      </trkpt>
      <trkpt lat="42.53378" lon="1.17558">
        <ele>870.4</ele>
        <time>2022-05-22 17:57:11</time>
      </trkpt>
      <trkpt lat="42.53383" lon="1.17557">
        <ele>870.4</ele>
        <time>2022-05-22 17:57:12</time>
      </trkpt>
      <trkpt lat="42.53388" lon="1.17556">
        <ele>870.4</ele>
        <time>2022-05-22 17:57:13</time>
      </trkpt>
      <trkpt lat="42.53392" lon="1.17554">
        <ele>870.4</ele>
        <time>2022-05-22 17:57:14</time>
      </trkpt>
      <trkpt lat="42.53397" lon="1.17553">
        <ele>870.4</ele>
        <time>2022-05-22 17:57:15</time>
      </trkpt>
      <trkpt lat="42.53402" lon="1.17552">
        <ele>870.6</ele>
        <time>2022-05-22 17:57:16</time>
      </trkpt>
      <trkpt lat="42.53407" lon="1.1755">
        <ele>870.6</ele>
        <time>2022-05-22 17:57:17</time>
      </trkpt>
      <trkpt lat="42.53412" lon="1.17549">
        <ele>870.6</ele>
        <time>2022-05-22 17:57:18</time>
      </trkpt>
      <trkpt lat="42.53417" lon="1.17547">
        <ele>870.6</ele>
        <time>2022-05-22 17:57:19</time>
      </trkpt>
      <trkpt lat="42.53421" lon="1.17545">
        <ele>870.6</ele>
        <time>2022-05-22 17:57:20</time>
      </trkpt>
      <trkpt lat="42.53426" lon="1.17544">
        <ele>870.6</ele>
        <time>2022-05-22 17:57:21</time>
      </trkpt>
      <trkpt lat="42.5343" lon="1.17542">
        <ele>870.6</ele>
        <time>2022-05-22 17:57:22</time>
      </trkpt>
      <trkpt lat="42.53435" lon="1.17541">
        <ele>870.8</ele>
        <time>2022-05-22 17:57:23</time>
      </trkpt>
      <trkpt lat="42.53439" lon="1.17539">
        <ele>870.8</ele>
        <time>2022-05-22 17:57:24</time>
      </trkpt>
      <trkpt lat="42.53444" lon="1.17537">
        <ele>870.8</ele>
        <time>2022-05-22 17:57:25</time>
      </trkpt>
      <trkpt lat="42.53448" lon="1.17536">
        <ele>870.8</ele>
        <time>2022-05-22 17:57:26</time>
      </trkpt>
      <trkpt lat="42.53453" lon="1.17535">
        <ele>870.8</ele>
        <time>2022-05-22 17:57:27</time>
      </trkpt>
      <trkpt lat="42.53457" lon="1.17533">
        <ele>871</ele>
        <time>2022-05-22 17:57:28</time>
      </trkpt>
      <trkpt lat="42.53462" lon="1.17532">
        <ele>871</ele>
        <time>2022-05-22 17:57:29</time>
      </trkpt>
      <trkpt lat="42.53466" lon="1.17531">
        <ele>871</ele>
        <time>2022-05-22 17:57:30</time>
      </trkpt>
      <trkpt lat="42.5347" lon="1.1753">
        <ele>871.2</ele>
        <time>2022-05-22 17:57:31</time>
      </trkpt>
      <trkpt lat="42.53475" lon="1.17529">
        <ele>871.2</ele>
        <time>2022-05-22 17:57:32</time>
      </trkpt>
      <trkpt lat="42.53479" lon="1.17528">
        <ele>871.2</ele>
        <time>2022-05-22 17:57:33</time>
      </trkpt>
      <trkpt lat="42.53484" lon="1.17527">
        <ele>871.2</ele>
        <time>2022-05-22 17:57:34</time>
      </trkpt>
      <trkpt lat="42.53488" lon="1.17525">
        <ele>871.2</ele>
        <time>2022-05-22 17:57:35</time>
      </trkpt>
      <trkpt lat="42.53492" lon="1.17523">
        <ele>871.4</ele>
        <time>2022-05-22 17:57:36</time>
      </trkpt>
      <trkpt lat="42.53496" lon="1.17521">
        <ele>871.4</ele>
        <time>2022-05-22 17:57:37</time>
      </trkpt>
      <trkpt lat="42.53501" lon="1.17519">
        <ele>871.4</ele>
        <time>2022-05-22 17:57:38</time>
      </trkpt>
      <trkpt lat="42.53505" lon="1.17517">
        <ele>871.4</ele>
        <time>2022-05-22 17:57:39</time>
      </trkpt>
      <trkpt lat="42.5351" lon="1.17516">
        <ele>871.4</ele>
        <time>2022-05-22 17:57:40</time>
      </trkpt>
      <trkpt lat="42.53514" lon="1.17514">
        <ele>871.4</ele>
        <time>2022-05-22 17:57:41</time>
      </trkpt>
      <trkpt lat="42.53518" lon="1.17512">
        <ele>871.4</ele>
        <time>2022-05-22 17:57:42</time>
      </trkpt>
      <trkpt lat="42.53522" lon="1.1751">
        <ele>871.4</ele>
        <time>2022-05-22 17:57:43</time>
      </trkpt>
      <trkpt lat="42.53526" lon="1.17508">
        <ele>871.6</ele>
        <time>2022-05-22 17:57:44</time>
      </trkpt>
      <trkpt lat="42.5353" lon="1.17506">
        <ele>871.6</ele>
        <time>2022-05-22 17:57:45</time>
      </trkpt>
      <trkpt lat="42.53534" lon="1.17505">
        <ele>871.6</ele>
        <time>2022-05-22 17:57:46</time>
      </trkpt>
      <trkpt lat="42.53538" lon="1.17503">
        <ele>871.6</ele>
        <time>2022-05-22 17:57:47</time>
      </trkpt>
      <trkpt lat="42.53542" lon="1.17501">
        <ele>871.6</ele>
        <time>2022-05-22 17:57:48</time>
      </trkpt>
      <trkpt lat="42.53546" lon="1.17499">
        <ele>871.8</ele>
        <time>2022-05-22 17:57:49</time>
      </trkpt>
      <trkpt lat="42.5355" lon="1.17497">
        <ele>871.8</ele>
        <time>2022-05-22 17:57:50</time>
      </trkpt>
      <trkpt lat="42.53554" lon="1.17495">
        <ele>871.8</ele>
        <time>2022-05-22 17:57:51</time>
      </trkpt>
      <trkpt lat="42.53557" lon="1.17493">
        <ele>872</ele>
        <time>2022-05-22 17:57:52</time>
      </trkpt>
      <trkpt lat="42.53561" lon="1.17491">
        <ele>872</ele>
        <time>2022-05-22 17:57:53</time>
      </trkpt>
      <trkpt lat="42.53566" lon="1.17489">
        <ele>872</ele>
        <time>2022-05-22 17:57:54</time>
      </trkpt>
      <trkpt lat="42.5357" lon="1.17488">
        <ele>872.2</ele>
        <time>2022-05-22 17:57:55</time>
      </trkpt>
      <trkpt lat="42.53574" lon="1.17487">
        <ele>872.2</ele>
        <time>2022-05-22 17:57:56</time>
      </trkpt>
      <trkpt lat="42.53578" lon="1.17485">
        <ele>872.2</ele>
        <time>2022-05-22 17:57:57</time>
      </trkpt>
      <trkpt lat="42.53582" lon="1.17482">
        <ele>872.2</ele>
        <time>2022-05-22 17:57:58</time>
      </trkpt>
      <trkpt lat="42.53586" lon="1.1748">
        <ele>872.4</ele>
        <time>2022-05-22 17:57:59</time>
      </trkpt>
      <trkpt lat="42.5359" lon="1.17478">
        <ele>872.4</ele>
        <time>2022-05-22 17:58:00</time>
      </trkpt>
      <trkpt lat="42.53594" lon="1.17476">
        <ele>872.6</ele>
        <time>2022-05-22 17:58:01</time>
      </trkpt>
      <trkpt lat="42.53598" lon="1.17475">
        <ele>872.6</ele>
        <time>2022-05-22 17:58:02</time>
      </trkpt>
      <trkpt lat="42.53602" lon="1.17473">
        <ele>872.8</ele>
        <time>2022-05-22 17:58:03</time>
      </trkpt>
      <trkpt lat="42.53605" lon="1.17471">
        <ele>872.8</ele>
        <time>2022-05-22 17:58:04</time>
      </trkpt>
      <trkpt lat="42.53609" lon="1.17469">
        <ele>872.8</ele>
        <time>2022-05-22 17:58:05</time>
      </trkpt>
      <trkpt lat="42.53613" lon="1.17466">
        <ele>873</ele>
        <time>2022-05-22 17:58:06</time>
      </trkpt>
      <trkpt lat="42.53617" lon="1.17463">
        <ele>873</ele>
        <time>2022-05-22 17:58:07</time>
      </trkpt>
      <trkpt lat="42.5362" lon="1.17461">
        <ele>873.2</ele>
        <time>2022-05-22 17:58:08</time>
      </trkpt>
      <trkpt lat="42.53624" lon="1.17457">
        <ele>873.2</ele>
        <time>2022-05-22 17:58:09</time>
      </trkpt>
      <trkpt lat="42.53628" lon="1.17454">
        <ele>873.2</ele>
        <time>2022-05-22 17:58:10</time>
      </trkpt>
      <trkpt lat="42.53631" lon="1.1745">
        <ele>873.4</ele>
        <time>2022-05-22 17:58:11</time>
      </trkpt>
      <trkpt lat="42.53635" lon="1.17447">
        <ele>873.4</ele>
        <time>2022-05-22 17:58:12</time>
      </trkpt>
      <trkpt lat="42.53638" lon="1.17443">
        <ele>873.4</ele>
        <time>2022-05-22 17:58:13</time>
      </trkpt>
      <trkpt lat="42.53642" lon="1.17439">
        <ele>873.4</ele>
        <time>2022-05-22 17:58:14</time>
      </trkpt>
      <trkpt lat="42.53645" lon="1.17436">
        <ele>873.6</ele>
        <time>2022-05-22 17:58:15</time>
      </trkpt>
      <trkpt lat="42.53648" lon="1.17432">
        <ele>873.6</ele>
        <time>2022-05-22 17:58:16</time>
      </trkpt>
      <trkpt lat="42.5365" lon="1.17428">
        <ele>873.6</ele>
        <time>2022-05-22 17:58:17</time>
      </trkpt>
      <trkpt lat="42.53653" lon="1.17423">
        <ele>873.6</ele>
        <time>2022-05-22 17:58:18</time>
      </trkpt>
      <trkpt lat="42.53656" lon="1.17419">
        <ele>873.6</ele>
        <time>2022-05-22 17:58:19</time>
      </trkpt>
      <trkpt lat="42.53659" lon="1.17415">
        <ele>873.6</ele>
        <time>2022-05-22 17:58:20</time>
      </trkpt>
      <trkpt lat="42.53662" lon="1.17411">
        <ele>873.8</ele>
        <time>2022-05-22 17:58:21</time>
      </trkpt>
      <trkpt lat="42.53665" lon="1.17407">
        <ele>873.8</ele>
        <time>2022-05-22 17:58:22</time>
      </trkpt>
      <trkpt lat="42.53668" lon="1.17402">
        <ele>873.8</ele>
        <time>2022-05-22 17:58:23</time>
      </trkpt>
      <trkpt lat="42.5367" lon="1.17398">
        <ele>873.8</ele>
        <time>2022-05-22 17:58:24</time>
      </trkpt>
      <trkpt lat="42.53673" lon="1.17394">
        <ele>874</ele>
        <time>2022-05-22 17:58:25</time>
      </trkpt>
      <trkpt lat="42.53676" lon="1.17389">
        <ele>874</ele>
        <time>2022-05-22 17:58:26</time>
      </trkpt>
      <trkpt lat="42.53679" lon="1.17385">
        <ele>874</ele>
        <time>2022-05-22 17:58:27</time>
      </trkpt>
      <trkpt lat="42.53682" lon="1.17381">
        <ele>874</ele>
        <time>2022-05-22 17:58:28</time>
      </trkpt>
      <trkpt lat="42.53685" lon="1.17377">
        <ele>874.2</ele>
        <time>2022-05-22 17:58:29</time>
      </trkpt>
      <trkpt lat="42.53688" lon="1.17373">
        <ele>874.2</ele>
        <time>2022-05-22 17:58:30</time>
      </trkpt>
      <trkpt lat="42.53691" lon="1.1737">
        <ele>874.2</ele>
        <time>2022-05-22 17:58:31</time>
      </trkpt>
      <trkpt lat="42.53694" lon="1.17366">
        <ele>874.4</ele>
        <time>2022-05-22 17:58:32</time>
      </trkpt>
      <trkpt lat="42.53698" lon="1.17363">
        <ele>874.4</ele>
        <time>2022-05-22 17:58:33</time>
      </trkpt>
      <trkpt lat="42.53701" lon="1.1736">
        <ele>874.4</ele>
        <time>2022-05-22 17:58:34</time>
      </trkpt>
      <trkpt lat="42.53705" lon="1.17357">
        <ele>874.4</ele>
        <time>2022-05-22 17:58:35</time>
      </trkpt>
      <trkpt lat="42.53708" lon="1.17354">
        <ele>874.4</ele>
        <time>2022-05-22 17:58:36</time>
      </trkpt>
      <trkpt lat="42.53712" lon="1.1735">
        <ele>874.6</ele>
        <time>2022-05-22 17:58:37</time>
      </trkpt>
      <trkpt lat="42.53716" lon="1.17347">
        <ele>874.6</ele>
        <time>2022-05-22 17:58:38</time>
      </trkpt>
      <trkpt lat="42.5372" lon="1.17344">
        <ele>874.6</ele>
        <time>2022-05-22 17:58:39</time>
      </trkpt>
      <trkpt lat="42.53724" lon="1.17341">
        <ele>874.6</ele>
        <time>2022-05-22 17:58:40</time>
      </trkpt>
      <trkpt lat="42.53727" lon="1.17338">
        <ele>874.8</ele>
        <time>2022-05-22 17:58:41</time>
      </trkpt>
      <trkpt lat="42.53731" lon="1.17335">
        <ele>874.8</ele>
        <time>2022-05-22 17:58:42</time>
      </trkpt>
      <trkpt lat="42.53735" lon="1.17332">
        <ele>874.8</ele>
        <time>2022-05-22 17:58:43</time>
      </trkpt>
      <trkpt lat="42.53739" lon="1.17328">
        <ele>874.8</ele>
        <time>2022-05-22 17:58:44</time>
      </trkpt>
      <trkpt lat="42.53743" lon="1.17325">
        <ele>874.8</ele>
        <time>2022-05-22 17:58:45</time>
      </trkpt>
      <trkpt lat="42.53747" lon="1.17322">
        <ele>874.8</ele>
        <time>2022-05-22 17:58:46</time>
      </trkpt>
      <trkpt lat="42.5375" lon="1.17319">
        <ele>874.8</ele>
        <time>2022-05-22 17:58:47</time>
      </trkpt>
      <trkpt lat="42.53754" lon="1.17316">
        <ele>874.8</ele>
        <time>2022-05-22 17:58:48</time>
      </trkpt>
      <trkpt lat="42.53758" lon="1.17312">
        <ele>874.8</ele>
        <time>2022-05-22 17:58:49</time>
      </trkpt>
      <trkpt lat="42.53762" lon="1.17309">
        <ele>874.8</ele>
        <time>2022-05-22 17:58:50</time>
      </trkpt>
      <trkpt lat="42.53766" lon="1.17306">
        <ele>874.8</ele>
        <time>2022-05-22 17:58:51</time>
      </trkpt>
      <trkpt lat="42.5377" lon="1.17302">
        <ele>874.8</ele>
        <time>2022-05-22 17:58:52</time>
      </trkpt>
      <trkpt lat="42.53775" lon="1.17299">
        <ele>874.8</ele>
        <time>2022-05-22 17:58:53</time>
      </trkpt>
      <trkpt lat="42.53779" lon="1.17295">
        <ele>874.8</ele>
        <time>2022-05-22 17:58:54</time>
      </trkpt>
      <trkpt lat="42.53782" lon="1.17292">
        <ele>874.8</ele>
        <time>2022-05-22 17:58:55</time>
      </trkpt>
      <trkpt lat="42.53786" lon="1.17288">
        <ele>874.8</ele>
        <time>2022-05-22 17:58:56</time>
      </trkpt>
      <trkpt lat="42.5379" lon="1.17285">
        <ele>874.8</ele>
        <time>2022-05-22 17:58:57</time>
      </trkpt>
      <trkpt lat="42.53794" lon="1.17281">
        <ele>874.8</ele>
        <time>2022-05-22 17:58:58</time>
      </trkpt>
      <trkpt lat="42.53798" lon="1.17278">
        <ele>874.8</ele>
        <time>2022-05-22 17:58:59</time>
      </trkpt>
      <trkpt lat="42.53802" lon="1.17274">
        <ele>874.8</ele>
        <time>2022-05-22 17:59:00</time>
      </trkpt>
      <trkpt lat="42.53806" lon="1.17271">
        <ele>874.8</ele>
        <time>2022-05-22 17:59:01</time>
      </trkpt>
      <trkpt lat="42.5381" lon="1.17267">
        <ele>874.8</ele>
        <time>2022-05-22 17:59:02</time>
      </trkpt>
      <trkpt lat="42.53813" lon="1.17263">
        <ele>874.8</ele>
        <time>2022-05-22 17:59:03</time>
      </trkpt>
      <trkpt lat="42.53817" lon="1.17259">
        <ele>874.8</ele>
        <time>2022-05-22 17:59:04</time>
      </trkpt>
      <trkpt lat="42.5382" lon="1.17256">
        <ele>874.8</ele>
        <time>2022-05-22 17:59:05</time>
      </trkpt>
      <trkpt lat="42.53824" lon="1.17252">
        <ele>874.8</ele>
        <time>2022-05-22 17:59:06</time>
      </trkpt>
      <trkpt lat="42.53828" lon="1.17248">
        <ele>875</ele>
        <time>2022-05-22 17:59:07</time>
      </trkpt>
      <trkpt lat="42.53832" lon="1.17245">
        <ele>875</ele>
        <time>2022-05-22 17:59:08</time>
      </trkpt>
      <trkpt lat="42.53836" lon="1.17241">
        <ele>875</ele>
        <time>2022-05-22 17:59:09</time>
      </trkpt>
      <trkpt lat="42.5384" lon="1.17237">
        <ele>875</ele>
        <time>2022-05-22 17:59:10</time>
      </trkpt>
      <trkpt lat="42.53843" lon="1.17233">
        <ele>875</ele>
        <time>2022-05-22 17:59:11</time>
      </trkpt>
      <trkpt lat="42.53847" lon="1.17229">
        <ele>875</ele>
        <time>2022-05-22 17:59:12</time>
      </trkpt>
      <trkpt lat="42.53851" lon="1.17225">
        <ele>874.8</ele>
        <time>2022-05-22 17:59:13</time>
      </trkpt>
      <trkpt lat="42.53854" lon="1.17221">
        <ele>874.8</ele>
        <time>2022-05-22 17:59:14</time>
      </trkpt>
      <trkpt lat="42.53858" lon="1.17216">
        <ele>874.8</ele>
        <time>2022-05-22 17:59:15</time>
      </trkpt>
      <trkpt lat="42.53861" lon="1.17212">
        <ele>874.8</ele>
        <time>2022-05-22 17:59:16</time>
      </trkpt>
      <trkpt lat="42.53865" lon="1.17207">
        <ele>874.8</ele>
        <time>2022-05-22 17:59:17</time>
      </trkpt>
      <trkpt lat="42.53868" lon="1.17202">
        <ele>874.8</ele>
        <time>2022-05-22 17:59:18</time>
      </trkpt>
      <trkpt lat="42.53872" lon="1.17198">
        <ele>874.8</ele>
        <time>2022-05-22 17:59:19</time>
      </trkpt>
      <trkpt lat="42.53875" lon="1.17193">
        <ele>874.6</ele>
        <time>2022-05-22 17:59:20</time>
      </trkpt>
      <trkpt lat="42.53878" lon="1.17188">
        <ele>874.6</ele>
        <time>2022-05-22 17:59:21</time>
      </trkpt>
      <trkpt lat="42.53881" lon="1.17182">
        <ele>874.6</ele>
        <time>2022-05-22 17:59:22</time>
      </trkpt>
      <trkpt lat="42.53884" lon="1.17176">
        <ele>874.4</ele>
        <time>2022-05-22 17:59:23</time>
      </trkpt>
      <trkpt lat="42.53887" lon="1.1717">
        <ele>874.4</ele>
        <time>2022-05-22 17:59:24</time>
      </trkpt>
      <trkpt lat="42.5389" lon="1.17164">
        <ele>874.2</ele>
        <time>2022-05-22 17:59:25</time>
      </trkpt>
      <trkpt lat="42.53893" lon="1.17158">
        <ele>874.2</ele>
        <time>2022-05-22 17:59:26</time>
      </trkpt>
      <trkpt lat="42.53896" lon="1.1715">
        <ele>874</ele>
        <time>2022-05-22 17:59:27</time>
      </trkpt>
      <trkpt lat="42.53899" lon="1.17143">
        <ele>873.8</ele>
        <time>2022-05-22 17:59:28</time>
      </trkpt>
      <trkpt lat="42.53901" lon="1.17137">
        <ele>873.6</ele>
        <time>2022-05-22 17:59:29</time>
      </trkpt>
      <trkpt lat="42.53904" lon="1.1713">
        <ele>873.4</ele>
        <time>2022-05-22 17:59:30</time>
      </trkpt>
      <trkpt lat="42.53908" lon="1.17122">
        <ele>873.2</ele>
        <time>2022-05-22 17:59:31</time>
      </trkpt>
      <trkpt lat="42.53911" lon="1.17115">
        <ele>872.8</ele>
        <time>2022-05-22 17:59:32</time>
      </trkpt>
      <trkpt lat="42.53915" lon="1.17107">
        <ele>872.6</ele>
        <time>2022-05-22 17:59:33</time>
      </trkpt>
      <trkpt lat="42.53919" lon="1.17099">
        <ele>872.2</ele>
        <time>2022-05-22 17:59:34</time>
      </trkpt>
      <trkpt lat="42.53924" lon="1.17091">
        <ele>872</ele>
        <time>2022-05-22 17:59:35</time>
      </trkpt>
      <trkpt lat="42.53928" lon="1.17083">
        <ele>871.6</ele>
        <time>2022-05-22 17:59:36</time>
      </trkpt>
      <trkpt lat="42.53933" lon="1.17075">
        <ele>871.2</ele>
        <time>2022-05-22 17:59:37</time>
      </trkpt>
      <trkpt lat="42.53938" lon="1.17068">
        <ele>871</ele>
        <time>2022-05-22 17:59:38</time>
      </trkpt>
      <trkpt lat="42.53943" lon="1.1706">
        <ele>870.6</ele>
        <time>2022-05-22 17:59:39</time>
      </trkpt>
      <trkpt lat="42.53949" lon="1.17054">
        <ele>870.4</ele>
        <time>2022-05-22 17:59:40</time>
      </trkpt>
      <trkpt lat="42.53955" lon="1.17047">
        <ele>870.2</ele>
        <time>2022-05-22 17:59:41</time>
      </trkpt>
      <trkpt lat="42.5396" lon="1.17041">
        <ele>870</ele>
        <time>2022-05-22 17:59:42</time>
      </trkpt>
      <trkpt lat="42.53967" lon="1.17035">
        <ele>869.8</ele>
        <time>2022-05-22 17:59:43</time>
      </trkpt>
      <trkpt lat="42.53973" lon="1.1703">
        <ele>869.8</ele>
        <time>2022-05-22 17:59:44</time>
      </trkpt>
      <trkpt lat="42.53978" lon="1.17025">
        <ele>869.8</ele>
        <time>2022-05-22 17:59:45</time>
      </trkpt>
      <trkpt lat="42.53984" lon="1.1702">
        <ele>869.6</ele>
        <time>2022-05-22 17:59:46</time>
      </trkpt>
      <trkpt lat="42.5399" lon="1.17015">
        <ele>869.6</ele>
        <time>2022-05-22 17:59:47</time>
      </trkpt>
      <trkpt lat="42.53995" lon="1.17011">
        <ele>869.6</ele>
        <time>2022-05-22 17:59:48</time>
      </trkpt>
      <trkpt lat="42.54001" lon="1.17005">
        <ele>869.6</ele>
        <time>2022-05-22 17:59:49</time>
      </trkpt>
      <trkpt lat="42.54006" lon="1.17001">
        <ele>869.8</ele>
        <time>2022-05-22 17:59:50</time>
      </trkpt>
      <trkpt lat="42.54011" lon="1.16997">
        <ele>869.8</ele>
        <time>2022-05-22 17:59:51</time>
      </trkpt>
      <trkpt lat="42.54015" lon="1.16993">
        <ele>869.8</ele>
        <time>2022-05-22 17:59:52</time>
      </trkpt>
      <trkpt lat="42.54021" lon="1.16988">
        <ele>870</ele>
        <time>2022-05-22 17:59:53</time>
      </trkpt>
      <trkpt lat="42.54025" lon="1.16984">
        <ele>870</ele>
        <time>2022-05-22 17:59:54</time>
      </trkpt>
      <trkpt lat="42.54031" lon="1.1698">
        <ele>870</ele>
        <time>2022-05-22 17:59:55</time>
      </trkpt>
      <trkpt lat="42.54035" lon="1.16976">
        <ele>870.2</ele>
        <time>2022-05-22 17:59:56</time>
      </trkpt>
      <trkpt lat="42.5404" lon="1.16971">
        <ele>870.2</ele>
        <time>2022-05-22 17:59:57</time>
      </trkpt>
      <trkpt lat="42.54044" lon="1.16968">
        <ele>870.2</ele>
        <time>2022-05-22 17:59:58</time>
      </trkpt>
      <trkpt lat="42.54049" lon="1.16963">
        <ele>870.4</ele>
        <time>2022-05-22 17:59:59</time>
      </trkpt>
      <trkpt lat="42.54053" lon="1.1696">
        <ele>870.4</ele>
        <time>2022-05-22 18:00:00</time>
      </trkpt>
      <trkpt lat="42.54057" lon="1.16956">
        <ele>870.4</ele>
        <time>2022-05-22 18:00:01</time>
      </trkpt>
      <trkpt lat="42.54061" lon="1.16953">
        <ele>870.6</ele>
        <time>2022-05-22 18:00:02</time>
      </trkpt>
      <trkpt lat="42.54066" lon="1.16948">
        <ele>870.6</ele>
        <time>2022-05-22 18:00:03</time>
      </trkpt>
      <trkpt lat="42.54071" lon="1.16944">
        <ele>870.6</ele>
        <time>2022-05-22 18:00:04</time>
      </trkpt>
      <trkpt lat="42.54075" lon="1.16941">
        <ele>870.6</ele>
        <time>2022-05-22 18:00:05</time>
      </trkpt>
      <trkpt lat="42.54079" lon="1.16937">
        <ele>870.8</ele>
        <time>2022-05-22 18:00:06</time>
      </trkpt>
      <trkpt lat="42.54084" lon="1.16933">
        <ele>870.8</ele>
        <time>2022-05-22 18:00:07</time>
      </trkpt>
      <trkpt lat="42.54088" lon="1.16929">
        <ele>870.8</ele>
        <time>2022-05-22 18:00:08</time>
      </trkpt>
      <trkpt lat="42.54092" lon="1.16925">
        <ele>870.8</ele>
        <time>2022-05-22 18:00:09</time>
      </trkpt>
      <trkpt lat="42.54095" lon="1.16922">
        <ele>870.8</ele>
        <time>2022-05-22 18:00:10</time>
      </trkpt>
      <trkpt lat="42.54099" lon="1.16917">
        <ele>871</ele>
        <time>2022-05-22 18:00:11</time>
      </trkpt>
      <trkpt lat="42.54102" lon="1.16914">
        <ele>871</ele>
        <time>2022-05-22 18:00:12</time>
      </trkpt>
      <trkpt lat="42.54106" lon="1.16909">
        <ele>871</ele>
        <time>2022-05-22 18:00:13</time>
      </trkpt>
      <trkpt lat="42.5411" lon="1.16905">
        <ele>871</ele>
        <time>2022-05-22 18:00:14</time>
      </trkpt>
      <trkpt lat="42.54114" lon="1.16901">
        <ele>871</ele>
        <time>2022-05-22 18:00:15</time>
      </trkpt>
      <trkpt lat="42.54117" lon="1.16898">
        <ele>871</ele>
        <time>2022-05-22 18:00:16</time>
      </trkpt>
      <trkpt lat="42.54121" lon="1.16893">
        <ele>871</ele>
        <time>2022-05-22 18:00:17</time>
      </trkpt>
      <trkpt lat="42.54124" lon="1.1689">
        <ele>871.2</ele>
        <time>2022-05-22 18:00:18</time>
      </trkpt>
      <trkpt lat="42.54128" lon="1.16884">
        <ele>871.2</ele>
        <time>2022-05-22 18:00:19</time>
      </trkpt>
      <trkpt lat="42.54131" lon="1.1688">
        <ele>871.2</ele>
        <time>2022-05-22 18:00:20</time>
      </trkpt>
      <trkpt lat="42.54135" lon="1.16875">
        <ele>871.2</ele>
        <time>2022-05-22 18:00:21</time>
      </trkpt>
      <trkpt lat="42.54138" lon="1.16871">
        <ele>871.2</ele>
        <time>2022-05-22 18:00:22</time>
      </trkpt>
      <trkpt lat="42.54142" lon="1.16866">
        <ele>871.2</ele>
        <time>2022-05-22 18:00:23</time>
      </trkpt>
      <trkpt lat="42.54145" lon="1.16861">
        <ele>871.4</ele>
        <time>2022-05-22 18:00:24</time>
      </trkpt>
      <trkpt lat="42.54148" lon="1.16856">
        <ele>871.4</ele>
        <time>2022-05-22 18:00:25</time>
      </trkpt>
      <trkpt lat="42.5415" lon="1.16851">
        <ele>871.4</ele>
        <time>2022-05-22 18:00:26</time>
      </trkpt>
      <trkpt lat="42.54153" lon="1.16845">
        <ele>871.4</ele>
        <time>2022-05-22 18:00:27</time>
      </trkpt>
      <trkpt lat="42.54156" lon="1.16841">
        <ele>871.4</ele>
        <time>2022-05-22 18:00:28</time>
      </trkpt>
      <trkpt lat="42.5416" lon="1.16835">
        <ele>871.4</ele>
        <time>2022-05-22 18:00:29</time>
      </trkpt>
      <trkpt lat="42.54163" lon="1.1683">
        <ele>871.4</ele>
        <time>2022-05-22 18:00:30</time>
      </trkpt>
      <trkpt lat="42.54166" lon="1.16825">
        <ele>871.4</ele>
        <time>2022-05-22 18:00:31</time>
      </trkpt>
      <trkpt lat="42.54169" lon="1.1682">
        <ele>871.4</ele>
        <time>2022-05-22 18:00:32</time>
      </trkpt>
      <trkpt lat="42.54172" lon="1.16815">
        <ele>871.4</ele>
        <time>2022-05-22 18:00:33</time>
      </trkpt>
      <trkpt lat="42.54174" lon="1.16811">
        <ele>871.4</ele>
        <time>2022-05-22 18:00:34</time>
      </trkpt>
      <trkpt lat="42.54177" lon="1.16806">
        <ele>871.4</ele>
        <time>2022-05-22 18:00:35</time>
      </trkpt>
      <trkpt lat="42.54179" lon="1.168">
        <ele>871.4</ele>
        <time>2022-05-22 18:00:36</time>
      </trkpt>
      <trkpt lat="42.54182" lon="1.16795">
        <ele>871.6</ele>
        <time>2022-05-22 18:00:37</time>
      </trkpt>
      <trkpt lat="42.54184" lon="1.1679">
        <ele>871.6</ele>
        <time>2022-05-22 18:00:38</time>
      </trkpt>
      <trkpt lat="42.54187" lon="1.16784">
        <ele>871.6</ele>
        <time>2022-05-22 18:00:39</time>
      </trkpt>
      <trkpt lat="42.54189" lon="1.16779">
        <ele>871.6</ele>
        <time>2022-05-22 18:00:40</time>
      </trkpt>
      <trkpt lat="42.54192" lon="1.16774">
        <ele>871.6</ele>
        <time>2022-05-22 18:00:41</time>
      </trkpt>
      <trkpt lat="42.54194" lon="1.16769">
        <ele>871.6</ele>
        <time>2022-05-22 18:00:42</time>
      </trkpt>
      <trkpt lat="42.54197" lon="1.16763">
        <ele>871.6</ele>
        <time>2022-05-22 18:00:43</time>
      </trkpt>
      <trkpt lat="42.54199" lon="1.16758">
        <ele>871.8</ele>
        <time>2022-05-22 18:00:44</time>
      </trkpt>
      <trkpt lat="42.54202" lon="1.16752">
        <ele>871.6</ele>
        <time>2022-05-22 18:00:45</time>
      </trkpt>
      <trkpt lat="42.54205" lon="1.16747">
        <ele>871.6</ele>
        <time>2022-05-22 18:00:46</time>
      </trkpt>
      <trkpt lat="42.54207" lon="1.16742">
        <ele>871.6</ele>
        <time>2022-05-22 18:00:47</time>
      </trkpt>
      <trkpt lat="42.5421" lon="1.16738">
        <ele>871.8</ele>
        <time>2022-05-22 18:00:48</time>
      </trkpt>
      <trkpt lat="42.54213" lon="1.16733">
        <ele>871.8</ele>
        <time>2022-05-22 18:00:49</time>
      </trkpt>
      <trkpt lat="42.54216" lon="1.16728">
        <ele>871.8</ele>
        <time>2022-05-22 18:00:50</time>
      </trkpt>
      <trkpt lat="42.54219" lon="1.16723">
        <ele>871.8</ele>
        <time>2022-05-22 18:00:51</time>
      </trkpt>
      <trkpt lat="42.54222" lon="1.16718">
        <ele>871.8</ele>
        <time>2022-05-22 18:00:52</time>
      </trkpt>
      <trkpt lat="42.54225" lon="1.16712">
        <ele>872</ele>
        <time>2022-05-22 18:00:53</time>
      </trkpt>
      <trkpt lat="42.54228" lon="1.16707">
        <ele>872</ele>
        <time>2022-05-22 18:00:54</time>
      </trkpt>
      <trkpt lat="42.5423" lon="1.16702">
        <ele>872</ele>
        <time>2022-05-22 18:00:55</time>
      </trkpt>
      <trkpt lat="42.54233" lon="1.16697">
        <ele>872</ele>
        <time>2022-05-22 18:00:56</time>
      </trkpt>
      <trkpt lat="42.54236" lon="1.16692">
        <ele>872</ele>
        <time>2022-05-22 18:00:57</time>
      </trkpt>
      <trkpt lat="42.54239" lon="1.16687">
        <ele>872.2</ele>
        <time>2022-05-22 18:00:58</time>
      </trkpt>
      <trkpt lat="42.54241" lon="1.16682">
        <ele>872.2</ele>
        <time>2022-05-22 18:00:59</time>
      </trkpt>
      <trkpt lat="42.54244" lon="1.16677">
        <ele>872.2</ele>
        <time>2022-05-22 18:01:00</time>
      </trkpt>
      <trkpt lat="42.54246" lon="1.16673">
        <ele>872.2</ele>
        <time>2022-05-22 18:01:01</time>
      </trkpt>
      <trkpt lat="42.54249" lon="1.16668">
        <ele>872.2</ele>
        <time>2022-05-22 18:01:02</time>
      </trkpt>
      <trkpt lat="42.54252" lon="1.16663">
        <ele>872.2</ele>
        <time>2022-05-22 18:01:03</time>
      </trkpt>
      <trkpt lat="42.54255" lon="1.16658">
        <ele>872.2</ele>
        <time>2022-05-22 18:01:04</time>
      </trkpt>
      <trkpt lat="42.54258" lon="1.16652">
        <ele>872.2</ele>
        <time>2022-05-22 18:01:05</time>
      </trkpt>
      <trkpt lat="42.54262" lon="1.16646">
        <ele>872.2</ele>
        <time>2022-05-22 18:01:06</time>
      </trkpt>
      <trkpt lat="42.54265" lon="1.1664">
        <ele>872.2</ele>
        <time>2022-05-22 18:01:07</time>
      </trkpt>
      <trkpt lat="42.54268" lon="1.16634">
        <ele>872.2</ele>
        <time>2022-05-22 18:01:08</time>
      </trkpt>
      <trkpt lat="42.54271" lon="1.16629">
        <ele>872.2</ele>
        <time>2022-05-22 18:01:09</time>
      </trkpt>
      <trkpt lat="42.54274" lon="1.16623">
        <ele>872.2</ele>
        <time>2022-05-22 18:01:10</time>
      </trkpt>
      <trkpt lat="42.54277" lon="1.16617">
        <ele>872.4</ele>
        <time>2022-05-22 18:01:11</time>
      </trkpt>
      <trkpt lat="42.5428" lon="1.16611">
        <ele>872.4</ele>
        <time>2022-05-22 18:01:12</time>
      </trkpt>
      <trkpt lat="42.54283" lon="1.16606">
        <ele>872.4</ele>
        <time>2022-05-22 18:01:13</time>
      </trkpt>
      <trkpt lat="42.54286" lon="1.166">
        <ele>872.4</ele>
        <time>2022-05-22 18:01:14</time>
      </trkpt>
      <trkpt lat="42.54289" lon="1.16594">
        <ele>872.4</ele>
        <time>2022-05-22 18:01:15</time>
      </trkpt>
      <trkpt lat="42.54291" lon="1.16588">
        <ele>872.4</ele>
        <time>2022-05-22 18:01:16</time>
      </trkpt>
      <trkpt lat="42.54294" lon="1.16582">
        <ele>872.6</ele>
        <time>2022-05-22 18:01:17</time>
      </trkpt>
      <trkpt lat="42.54296" lon="1.16577">
        <ele>872.6</ele>
        <time>2022-05-22 18:01:18</time>
      </trkpt>
      <trkpt lat="42.54299" lon="1.16571">
        <ele>872.6</ele>
        <time>2022-05-22 18:01:19</time>
      </trkpt>
      <trkpt lat="42.54302" lon="1.16566">
        <ele>872.6</ele>
        <time>2022-05-22 18:01:20</time>
      </trkpt>
      <trkpt lat="42.54305" lon="1.1656">
        <ele>872.6</ele>
        <time>2022-05-22 18:01:21</time>
      </trkpt>
      <trkpt lat="42.54308" lon="1.16554">
        <ele>872.6</ele>
        <time>2022-05-22 18:01:22</time>
      </trkpt>
      <trkpt lat="42.54311" lon="1.16548">
        <ele>872.8</ele>
        <time>2022-05-22 18:01:23</time>
      </trkpt>
      <trkpt lat="42.54314" lon="1.16543">
        <ele>872.8</ele>
        <time>2022-05-22 18:01:24</time>
      </trkpt>
      <trkpt lat="42.54316" lon="1.16537">
        <ele>872.8</ele>
        <time>2022-05-22 18:01:25</time>
      </trkpt>
      <trkpt lat="42.54319" lon="1.16532">
        <ele>872.8</ele>
        <time>2022-05-22 18:01:26</time>
      </trkpt>
      <trkpt lat="42.54321" lon="1.16526">
        <ele>872.8</ele>
        <time>2022-05-22 18:01:27</time>
      </trkpt>
      <trkpt lat="42.54324" lon="1.1652">
        <ele>872.8</ele>
        <time>2022-05-22 18:01:28</time>
      </trkpt>
      <trkpt lat="42.54326" lon="1.16515">
        <ele>873</ele>
        <time>2022-05-22 18:01:29</time>
      </trkpt>
      <trkpt lat="42.54329" lon="1.16509">
        <ele>873</ele>
        <time>2022-05-22 18:01:30</time>
      </trkpt>
      <trkpt lat="42.54331" lon="1.16504">
        <ele>873</ele>
        <time>2022-05-22 18:01:31</time>
      </trkpt>
      <trkpt lat="42.54334" lon="1.16498">
        <ele>873</ele>
        <time>2022-05-22 18:01:32</time>
      </trkpt>
      <trkpt lat="42.54337" lon="1.16493">
        <ele>873</ele>
        <time>2022-05-22 18:01:33</time>
      </trkpt>
      <trkpt lat="42.54339" lon="1.16488">
        <ele>873</ele>
        <time>2022-05-22 18:01:34</time>
      </trkpt>
      <trkpt lat="42.54342" lon="1.16483">
        <ele>873</ele>
        <time>2022-05-22 18:01:35</time>
      </trkpt>
      <trkpt lat="42.54345" lon="1.16477">
        <ele>873</ele>
        <time>2022-05-22 18:01:36</time>
      </trkpt>
      <trkpt lat="42.54348" lon="1.16471">
        <ele>873</ele>
        <time>2022-05-22 18:01:37</time>
      </trkpt>
      <trkpt lat="42.5435" lon="1.16465">
        <ele>873</ele>
        <time>2022-05-22 18:01:38</time>
      </trkpt>
      <trkpt lat="42.54353" lon="1.1646">
        <ele>873.2</ele>
        <time>2022-05-22 18:01:39</time>
      </trkpt>
      <trkpt lat="42.54356" lon="1.16454">
        <ele>873.2</ele>
        <time>2022-05-22 18:01:40</time>
      </trkpt>
      <trkpt lat="42.54359" lon="1.16449">
        <ele>873.2</ele>
        <time>2022-05-22 18:01:41</time>
      </trkpt>
      <trkpt lat="42.54363" lon="1.16444">
        <ele>873.2</ele>
        <time>2022-05-22 18:01:42</time>
      </trkpt>
      <trkpt lat="42.54366" lon="1.16439">
        <ele>873.2</ele>
        <time>2022-05-22 18:01:43</time>
      </trkpt>
      <trkpt lat="42.54369" lon="1.16433">
        <ele>873.2</ele>
        <time>2022-05-22 18:01:44</time>
      </trkpt>
      <trkpt lat="42.54372" lon="1.16428">
        <ele>873.2</ele>
        <time>2022-05-22 18:01:45</time>
      </trkpt>
      <trkpt lat="42.54376" lon="1.16423">
        <ele>873.2</ele>
        <time>2022-05-22 18:01:46</time>
      </trkpt>
      <trkpt lat="42.54379" lon="1.16418">
        <ele>873.4</ele>
        <time>2022-05-22 18:01:47</time>
      </trkpt>
      <trkpt lat="42.54383" lon="1.16413">
        <ele>873.4</ele>
        <time>2022-05-22 18:01:48</time>
      </trkpt>
      <trkpt lat="42.54387" lon="1.16408">
        <ele>873.4</ele>
        <time>2022-05-22 18:01:49</time>
      </trkpt>
      <trkpt lat="42.5439" lon="1.16403">
        <ele>873.4</ele>
        <time>2022-05-22 18:01:50</time>
      </trkpt>
      <trkpt lat="42.54394" lon="1.16398">
        <ele>873.4</ele>
        <time>2022-05-22 18:01:51</time>
      </trkpt>
      <trkpt lat="42.54398" lon="1.16393">
        <ele>873.4</ele>
        <time>2022-05-22 18:01:52</time>
      </trkpt>
      <trkpt lat="42.54402" lon="1.16388">
        <ele>873.4</ele>
        <time>2022-05-22 18:01:53</time>
      </trkpt>
      <trkpt lat="42.54405" lon="1.16384">
        <ele>873.4</ele>
        <time>2022-05-22 18:01:54</time>
      </trkpt>
      <trkpt lat="42.54409" lon="1.16379">
        <ele>873.4</ele>
        <time>2022-05-22 18:01:55</time>
      </trkpt>
      <trkpt lat="42.54413" lon="1.16373">
        <ele>873.4</ele>
        <time>2022-05-22 18:01:56</time>
      </trkpt>
      <trkpt lat="42.54416" lon="1.16369">
        <ele>873.4</ele>
        <time>2022-05-22 18:01:57</time>
      </trkpt>
      <trkpt lat="42.5442" lon="1.16364">
        <ele>873.6</ele>
        <time>2022-05-22 18:01:58</time>
      </trkpt>
      <trkpt lat="42.54423" lon="1.16359">
        <ele>873.6</ele>
        <time>2022-05-22 18:01:59</time>
      </trkpt>
      <trkpt lat="42.54427" lon="1.16354">
        <ele>873.6</ele>
        <time>2022-05-22 18:02:00</time>
      </trkpt>
      <trkpt lat="42.5443" lon="1.16349">
        <ele>873.6</ele>
        <time>2022-05-22 18:02:01</time>
      </trkpt>
      <trkpt lat="42.54434" lon="1.16344">
        <ele>873.6</ele>
        <time>2022-05-22 18:02:02</time>
      </trkpt>
      <trkpt lat="42.54437" lon="1.16339">
        <ele>873.6</ele>
        <time>2022-05-22 18:02:03</time>
      </trkpt>
      <trkpt lat="42.54441" lon="1.16334">
        <ele>873.6</ele>
        <time>2022-05-22 18:02:04</time>
      </trkpt>
      <trkpt lat="42.54444" lon="1.1633">
        <ele>873.6</ele>
        <time>2022-05-22 18:02:05</time>
      </trkpt>
      <trkpt lat="42.54448" lon="1.16326">
        <ele>873.6</ele>
        <time>2022-05-22 18:02:06</time>
      </trkpt>
      <trkpt lat="42.54452" lon="1.16322">
        <ele>873.6</ele>
        <time>2022-05-22 18:02:07</time>
      </trkpt>
      <trkpt lat="42.54456" lon="1.16318">
        <ele>873.6</ele>
        <time>2022-05-22 18:02:08</time>
      </trkpt>
      <trkpt lat="42.5446" lon="1.16313">
        <ele>873.6</ele>
        <time>2022-05-22 18:02:09</time>
      </trkpt>
      <trkpt lat="42.54463" lon="1.16308">
        <ele>873.6</ele>
        <time>2022-05-22 18:02:10</time>
      </trkpt>
      <trkpt lat="42.54467" lon="1.16303">
        <ele>873.6</ele>
        <time>2022-05-22 18:02:11</time>
      </trkpt>
      <trkpt lat="42.54471" lon="1.16297">
        <ele>873.6</ele>
        <time>2022-05-22 18:02:12</time>
      </trkpt>
      <trkpt lat="42.54475" lon="1.16293">
        <ele>873.6</ele>
        <time>2022-05-22 18:02:13</time>
      </trkpt>
      <trkpt lat="42.5448" lon="1.16288">
        <ele>873.6</ele>
        <time>2022-05-22 18:02:14</time>
      </trkpt>
      <trkpt lat="42.54484" lon="1.16283">
        <ele>873.6</ele>
        <time>2022-05-22 18:02:15</time>
      </trkpt>
      <trkpt lat="42.54489" lon="1.16279">
        <ele>873.8</ele>
        <time>2022-05-22 18:02:16</time>
      </trkpt>
      <trkpt lat="42.54493" lon="1.16274">
        <ele>873.8</ele>
        <time>2022-05-22 18:02:17</time>
      </trkpt>
      <trkpt lat="42.54496" lon="1.16269">
        <ele>873.8</ele>
        <time>2022-05-22 18:02:18</time>
      </trkpt>
      <trkpt lat="42.545" lon="1.16264">
        <ele>873.8</ele>
        <time>2022-05-22 18:02:19</time>
      </trkpt>
      <trkpt lat="42.54504" lon="1.1626">
        <ele>873.8</ele>
        <time>2022-05-22 18:02:20</time>
      </trkpt>
      <trkpt lat="42.54508" lon="1.16255">
        <ele>873.8</ele>
        <time>2022-05-22 18:02:21</time>
      </trkpt>
      <trkpt lat="42.54511" lon="1.1625">
        <ele>873.8</ele>
        <time>2022-05-22 18:02:22</time>
      </trkpt>
      <trkpt lat="42.54515" lon="1.16245">
        <ele>873.8</ele>
        <time>2022-05-22 18:02:23</time>
      </trkpt>
      <trkpt lat="42.54519" lon="1.1624">
        <ele>874</ele>
        <time>2022-05-22 18:02:24</time>
      </trkpt>
      <trkpt lat="42.54522" lon="1.16236">
        <ele>874</ele>
        <time>2022-05-22 18:02:25</time>
      </trkpt>
      <trkpt lat="42.54526" lon="1.16231">
        <ele>874</ele>
        <time>2022-05-22 18:02:26</time>
      </trkpt>
      <trkpt lat="42.54529" lon="1.16226">
        <ele>874</ele>
        <time>2022-05-22 18:02:27</time>
      </trkpt>
      <trkpt lat="42.54533" lon="1.16221">
        <ele>874</ele>
        <time>2022-05-22 18:02:28</time>
      </trkpt>
      <trkpt lat="42.54537" lon="1.16216">
        <ele>874</ele>
        <time>2022-05-22 18:02:29</time>
      </trkpt>
      <trkpt lat="42.54541" lon="1.16212">
        <ele>874</ele>
        <time>2022-05-22 18:02:30</time>
      </trkpt>
      <trkpt lat="42.54544" lon="1.16207">
        <ele>874</ele>
        <time>2022-05-22 18:02:31</time>
      </trkpt>
      <trkpt lat="42.54548" lon="1.16203">
        <ele>874</ele>
        <time>2022-05-22 18:02:32</time>
      </trkpt>
      <trkpt lat="42.54552" lon="1.16198">
        <ele>874</ele>
        <time>2022-05-22 18:02:33</time>
      </trkpt>
      <trkpt lat="42.54556" lon="1.16194">
        <ele>874</ele>
        <time>2022-05-22 18:02:34</time>
      </trkpt>
      <trkpt lat="42.5456" lon="1.16189">
        <ele>874</ele>
        <time>2022-05-22 18:02:35</time>
      </trkpt>
      <trkpt lat="42.54564" lon="1.16185">
        <ele>874</ele>
        <time>2022-05-22 18:02:36</time>
      </trkpt>
      <trkpt lat="42.54568" lon="1.1618">
        <ele>874</ele>
        <time>2022-05-22 18:02:37</time>
      </trkpt>
      <trkpt lat="42.54571" lon="1.16176">
        <ele>874</ele>
        <time>2022-05-22 18:02:38</time>
      </trkpt>
      <trkpt lat="42.54575" lon="1.16171">
        <ele>874</ele>
        <time>2022-05-22 18:02:39</time>
      </trkpt>
      <trkpt lat="42.54579" lon="1.16167">
        <ele>874</ele>
        <time>2022-05-22 18:02:40</time>
      </trkpt>
      <trkpt lat="42.54582" lon="1.16162">
        <ele>874</ele>
        <time>2022-05-22 18:02:41</time>
      </trkpt>
      <trkpt lat="42.54586" lon="1.16158">
        <ele>874</ele>
        <time>2022-05-22 18:02:42</time>
      </trkpt>
      <trkpt lat="42.54589" lon="1.16153">
        <ele>874.2</ele>
        <time>2022-05-22 18:02:43</time>
      </trkpt>
      <trkpt lat="42.54593" lon="1.16149">
        <ele>874.2</ele>
        <time>2022-05-22 18:02:44</time>
      </trkpt>
      <trkpt lat="42.54597" lon="1.16144">
        <ele>874.2</ele>
        <time>2022-05-22 18:02:45</time>
      </trkpt>
      <trkpt lat="42.546" lon="1.16139">
        <ele>874.2</ele>
        <time>2022-05-22 18:02:46</time>
      </trkpt>
      <trkpt lat="42.54603" lon="1.16134">
        <ele>874.2</ele>
        <time>2022-05-22 18:02:47</time>
      </trkpt>
      <trkpt lat="42.54607" lon="1.16129">
        <ele>874.2</ele>
        <time>2022-05-22 18:02:48</time>
      </trkpt>
      <trkpt lat="42.5461" lon="1.16125">
        <ele>874.2</ele>
        <time>2022-05-22 18:02:49</time>
      </trkpt>
      <trkpt lat="42.54614" lon="1.1612">
        <ele>874.2</ele>
        <time>2022-05-22 18:02:50</time>
      </trkpt>
      <trkpt lat="42.54617" lon="1.16116">
        <ele>874.2</ele>
        <time>2022-05-22 18:02:51</time>
      </trkpt>
      <trkpt lat="42.5462" lon="1.16111">
        <ele>874.2</ele>
        <time>2022-05-22 18:02:52</time>
      </trkpt>
      <trkpt lat="42.54624" lon="1.16106">
        <ele>874.2</ele>
        <time>2022-05-22 18:02:53</time>
      </trkpt>
      <trkpt lat="42.54627" lon="1.16101">
        <ele>874.4</ele>
        <time>2022-05-22 18:02:54</time>
      </trkpt>
      <trkpt lat="42.54631" lon="1.16095">
        <ele>874.4</ele>
        <time>2022-05-22 18:02:55</time>
      </trkpt>
      <trkpt lat="42.54634" lon="1.1609">
        <ele>874.4</ele>
        <time>2022-05-22 18:02:56</time>
      </trkpt>
      <trkpt lat="42.54638" lon="1.16086">
        <ele>874.4</ele>
        <time>2022-05-22 18:02:57</time>
      </trkpt>
      <trkpt lat="42.54641" lon="1.16081">
        <ele>874.4</ele>
        <time>2022-05-22 18:02:58</time>
      </trkpt>
      <trkpt lat="42.54644" lon="1.16077">
        <ele>874.4</ele>
        <time>2022-05-22 18:02:59</time>
      </trkpt>
      <trkpt lat="42.54647" lon="1.16072">
        <ele>874.4</ele>
        <time>2022-05-22 18:03:00</time>
      </trkpt>
      <trkpt lat="42.54651" lon="1.16068">
        <ele>874.4</ele>
        <time>2022-05-22 18:03:01</time>
      </trkpt>
      <trkpt lat="42.54655" lon="1.16063">
        <ele>874.4</ele>
        <time>2022-05-22 18:03:02</time>
      </trkpt>
      <trkpt lat="42.54659" lon="1.16058">
        <ele>874.6</ele>
        <time>2022-05-22 18:03:03</time>
      </trkpt>
      <trkpt lat="42.54663" lon="1.16054">
        <ele>874.6</ele>
        <time>2022-05-22 18:03:04</time>
      </trkpt>
      <trkpt lat="42.54666" lon="1.16049">
        <ele>874.6</ele>
        <time>2022-05-22 18:03:05</time>
      </trkpt>
      <trkpt lat="42.5467" lon="1.16045">
        <ele>874.6</ele>
        <time>2022-05-22 18:03:06</time>
      </trkpt>
      <trkpt lat="42.54673" lon="1.1604">
        <ele>874.6</ele>
        <time>2022-05-22 18:03:07</time>
      </trkpt>
      <trkpt lat="42.54677" lon="1.16035">
        <ele>874.6</ele>
        <time>2022-05-22 18:03:08</time>
      </trkpt>
      <trkpt lat="42.5468" lon="1.1603">
        <ele>874.6</ele>
        <time>2022-05-22 18:03:09</time>
      </trkpt>
      <trkpt lat="42.54683" lon="1.16025">
        <ele>874.8</ele>
        <time>2022-05-22 18:03:10</time>
      </trkpt>
      <trkpt lat="42.54686" lon="1.1602">
        <ele>874.8</ele>
        <time>2022-05-22 18:03:11</time>
      </trkpt>
      <trkpt lat="42.5469" lon="1.16015">
        <ele>874.8</ele>
        <time>2022-05-22 18:03:12</time>
      </trkpt>
      <trkpt lat="42.54693" lon="1.1601">
        <ele>874.8</ele>
        <time>2022-05-22 18:03:13</time>
      </trkpt>
      <trkpt lat="42.54696" lon="1.16006">
        <ele>874.8</ele>
        <time>2022-05-22 18:03:14</time>
      </trkpt>
      <trkpt lat="42.54699" lon="1.16001">
        <ele>874.8</ele>
        <time>2022-05-22 18:03:15</time>
      </trkpt>
      <trkpt lat="42.54703" lon="1.15997">
        <ele>874.8</ele>
        <time>2022-05-22 18:03:16</time>
      </trkpt>
      <trkpt lat="42.54706" lon="1.15992">
        <ele>874.8</ele>
        <time>2022-05-22 18:03:17</time>
      </trkpt>
      <trkpt lat="42.5471" lon="1.15988">
        <ele>874.8</ele>
        <time>2022-05-22 18:03:18</time>
      </trkpt>
      <trkpt lat="42.54713" lon="1.15983">
        <ele>874.8</ele>
        <time>2022-05-22 18:03:19</time>
      </trkpt>
      <trkpt lat="42.54717" lon="1.15978">
        <ele>874.8</ele>
        <time>2022-05-22 18:03:20</time>
      </trkpt>
      <trkpt lat="42.5472" lon="1.15974">
        <ele>874.8</ele>
        <time>2022-05-22 18:03:21</time>
      </trkpt>
      <trkpt lat="42.54723" lon="1.15969">
        <ele>875</ele>
        <time>2022-05-22 18:03:22</time>
      </trkpt>
      <trkpt lat="42.54727" lon="1.15965">
        <ele>875</ele>
        <time>2022-05-22 18:03:23</time>
      </trkpt>
      <trkpt lat="42.5473" lon="1.15961">
        <ele>875</ele>
        <time>2022-05-22 18:03:24</time>
      </trkpt>
      <trkpt lat="42.54733" lon="1.15956">
        <ele>875.2</ele>
        <time>2022-05-22 18:03:25</time>
      </trkpt>
      <trkpt lat="42.54737" lon="1.15952">
        <ele>875.2</ele>
        <time>2022-05-22 18:03:26</time>
      </trkpt>
      <trkpt lat="42.5474" lon="1.15948">
        <ele>875.2</ele>
        <time>2022-05-22 18:03:27</time>
      </trkpt>
      <trkpt lat="42.54744" lon="1.15943">
        <ele>875.4</ele>
        <time>2022-05-22 18:03:28</time>
      </trkpt>
      <trkpt lat="42.54747" lon="1.15939">
        <ele>875.4</ele>
        <time>2022-05-22 18:03:29</time>
      </trkpt>
      <trkpt lat="42.54751" lon="1.15935">
        <ele>875.6</ele>
        <time>2022-05-22 18:03:30</time>
      </trkpt>
      <trkpt lat="42.54754" lon="1.15931">
        <ele>875.8</ele>
        <time>2022-05-22 18:03:31</time>
      </trkpt>
      <trkpt lat="42.54757" lon="1.15927">
        <ele>876</ele>
        <time>2022-05-22 18:03:32</time>
      </trkpt>
      <trkpt lat="42.5476" lon="1.15923">
        <ele>876.2</ele>
        <time>2022-05-22 18:03:33</time>
      </trkpt>
      <trkpt lat="42.54762" lon="1.15919">
        <ele>876.2</ele>
        <time>2022-05-22 18:03:34</time>
      </trkpt>
      <trkpt lat="42.54765" lon="1.15916">
        <ele>876.4</ele>
        <time>2022-05-22 18:03:35</time>
      </trkpt>
      <trkpt lat="42.54767" lon="1.15912">
        <ele>876.6</ele>
        <time>2022-05-22 18:03:36</time>
      </trkpt>
      <trkpt lat="42.5477" lon="1.15909">
        <ele>876.8</ele>
        <time>2022-05-22 18:03:37</time>
      </trkpt>
      <trkpt lat="42.54773" lon="1.15905">
        <ele>876.8</ele>
        <time>2022-05-22 18:03:38</time>
      </trkpt>
      <trkpt lat="42.54776" lon="1.15902">
        <ele>877</ele>
        <time>2022-05-22 18:03:39</time>
      </trkpt>
      <trkpt lat="42.54778" lon="1.15898">
        <ele>877.2</ele>
        <time>2022-05-22 18:03:40</time>
      </trkpt>
      <trkpt lat="42.54781" lon="1.15895">
        <ele>877.4</ele>
        <time>2022-05-22 18:03:41</time>
      </trkpt>
      <trkpt lat="42.54784" lon="1.15891">
        <ele>877.6</ele>
        <time>2022-05-22 18:03:42</time>
      </trkpt>
      <trkpt lat="42.54787" lon="1.15888">
        <ele>877.8</ele>
        <time>2022-05-22 18:03:43</time>
      </trkpt>
      <trkpt lat="42.54789" lon="1.15884">
        <ele>878</ele>
        <time>2022-05-22 18:03:44</time>
      </trkpt>
      <trkpt lat="42.54792" lon="1.15881">
        <ele>878.2</ele>
        <time>2022-05-22 18:03:45</time>
      </trkpt>
      <trkpt lat="42.54794" lon="1.15878">
        <ele>878.4</ele>
        <time>2022-05-22 18:03:46</time>
      </trkpt>
      <trkpt lat="42.54797" lon="1.15874">
        <ele>878.6</ele>
        <time>2022-05-22 18:03:47</time>
      </trkpt>
      <trkpt lat="42.548" lon="1.15871">
        <ele>878.8</ele>
        <time>2022-05-22 18:03:48</time>
      </trkpt>
      <trkpt lat="42.54802" lon="1.15867">
        <ele>879</ele>
        <time>2022-05-22 18:03:49</time>
      </trkpt>
      <trkpt lat="42.54805" lon="1.15864">
        <ele>879.2</ele>
        <time>2022-05-22 18:03:50</time>
      </trkpt>
      <trkpt lat="42.54807" lon="1.1586">
        <ele>879.4</ele>
        <time>2022-05-22 18:03:51</time>
      </trkpt>
      <trkpt lat="42.54809" lon="1.15857">
        <ele>879.6</ele>
        <time>2022-05-22 18:03:52</time>
      </trkpt>
      <trkpt lat="42.54812" lon="1.15853">
        <ele>879.8</ele>
        <time>2022-05-22 18:03:53</time>
      </trkpt>
      <trkpt lat="42.54815" lon="1.1585">
        <ele>880</ele>
        <time>2022-05-22 18:03:54</time>
      </trkpt>
      <trkpt lat="42.54817" lon="1.15846">
        <ele>880</ele>
        <time>2022-05-22 18:03:55</time>
      </trkpt>
      <trkpt lat="42.5482" lon="1.15843">
        <ele>880.2</ele>
        <time>2022-05-22 18:03:56</time>
      </trkpt>
      <trkpt lat="42.54822" lon="1.15839">
        <ele>880.4</ele>
        <time>2022-05-22 18:03:57</time>
      </trkpt>
      <trkpt lat="42.54825" lon="1.15836">
        <ele>880.4</ele>
        <time>2022-05-22 18:03:58</time>
      </trkpt>
      <trkpt lat="42.54828" lon="1.15832">
        <ele>880.6</ele>
        <time>2022-05-22 18:03:59</time>
      </trkpt>
      <trkpt lat="42.5483" lon="1.15829">
        <ele>880.8</ele>
        <time>2022-05-22 18:04:00</time>
      </trkpt>
      <trkpt lat="42.54833" lon="1.15825">
        <ele>880.8</ele>
        <time>2022-05-22 18:04:01</time>
      </trkpt>
      <trkpt lat="42.54835" lon="1.15821">
        <ele>881</ele>
        <time>2022-05-22 18:04:02</time>
      </trkpt>
      <trkpt lat="42.54838" lon="1.15818">
        <ele>881.2</ele>
        <time>2022-05-22 18:04:03</time>
      </trkpt>
      <trkpt lat="42.54841" lon="1.15814">
        <ele>881.2</ele>
        <time>2022-05-22 18:04:04</time>
      </trkpt>
      <trkpt lat="42.54844" lon="1.15811">
        <ele>881.4</ele>
        <time>2022-05-22 18:04:05</time>
      </trkpt>
      <trkpt lat="42.54847" lon="1.15807">
        <ele>881.4</ele>
        <time>2022-05-22 18:04:06</time>
      </trkpt>
      <trkpt lat="42.5485" lon="1.15804">
        <ele>881.6</ele>
        <time>2022-05-22 18:04:07</time>
      </trkpt>
      <trkpt lat="42.54852" lon="1.158">
        <ele>881.6</ele>
        <time>2022-05-22 18:04:08</time>
      </trkpt>
      <trkpt lat="42.54855" lon="1.15797">
        <ele>881.8</ele>
        <time>2022-05-22 18:04:09</time>
      </trkpt>
      <trkpt lat="42.54858" lon="1.15793">
        <ele>881.8</ele>
        <time>2022-05-22 18:04:10</time>
      </trkpt>
      <trkpt lat="42.54861" lon="1.15789">
        <ele>881.8</ele>
        <time>2022-05-22 18:04:11</time>
      </trkpt>
      <trkpt lat="42.54863" lon="1.15786">
        <ele>882</ele>
        <time>2022-05-22 18:04:12</time>
      </trkpt>
      <trkpt lat="42.54866" lon="1.15782">
        <ele>882</ele>
        <time>2022-05-22 18:04:13</time>
      </trkpt>
      <trkpt lat="42.54869" lon="1.15778">
        <ele>882</ele>
        <time>2022-05-22 18:04:14</time>
      </trkpt>
      <trkpt lat="42.54872" lon="1.15774">
        <ele>882.2</ele>
        <time>2022-05-22 18:04:15</time>
      </trkpt>
      <trkpt lat="42.54875" lon="1.15771">
        <ele>882.2</ele>
        <time>2022-05-22 18:04:16</time>
      </trkpt>
      <trkpt lat="42.54878" lon="1.15767">
        <ele>882.2</ele>
        <time>2022-05-22 18:04:17</time>
      </trkpt>
      <trkpt lat="42.54882" lon="1.15763">
        <ele>882.2</ele>
        <time>2022-05-22 18:04:18</time>
      </trkpt>
      <trkpt lat="42.54885" lon="1.15759">
        <ele>882.2</ele>
        <time>2022-05-22 18:04:19</time>
      </trkpt>
      <trkpt lat="42.54888" lon="1.15755">
        <ele>882</ele>
        <time>2022-05-22 18:04:20</time>
      </trkpt>
      <trkpt lat="42.54891" lon="1.15751">
        <ele>882</ele>
        <time>2022-05-22 18:04:21</time>
      </trkpt>
      <trkpt lat="42.54895" lon="1.15746">
        <ele>882</ele>
        <time>2022-05-22 18:04:22</time>
      </trkpt>
      <trkpt lat="42.54897" lon="1.15742">
        <ele>882</ele>
        <time>2022-05-22 18:04:23</time>
      </trkpt>
      <trkpt lat="42.54901" lon="1.15737">
        <ele>881.8</ele>
        <time>2022-05-22 18:04:24</time>
      </trkpt>
      <trkpt lat="42.54904" lon="1.15733">
        <ele>881.8</ele>
        <time>2022-05-22 18:04:25</time>
      </trkpt>
      <trkpt lat="42.54908" lon="1.15728">
        <ele>881.6</ele>
        <time>2022-05-22 18:04:26</time>
      </trkpt>
      <trkpt lat="42.54912" lon="1.15723">
        <ele>881.4</ele>
        <time>2022-05-22 18:04:27</time>
      </trkpt>
      <trkpt lat="42.54916" lon="1.15718">
        <ele>881.2</ele>
        <time>2022-05-22 18:04:28</time>
      </trkpt>
      <trkpt lat="42.5492" lon="1.15713">
        <ele>881</ele>
        <time>2022-05-22 18:04:29</time>
      </trkpt>
      <trkpt lat="42.54924" lon="1.15707">
        <ele>880.8</ele>
        <time>2022-05-22 18:04:30</time>
      </trkpt>
      <trkpt lat="42.54929" lon="1.15701">
        <ele>880.6</ele>
        <time>2022-05-22 18:04:31</time>
      </trkpt>
      <trkpt lat="42.54933" lon="1.15695">
        <ele>880.4</ele>
        <time>2022-05-22 18:04:32</time>
      </trkpt>
      <trkpt lat="42.54938" lon="1.15689">
        <ele>880.2</ele>
        <time>2022-05-22 18:04:33</time>
      </trkpt>
      <trkpt lat="42.54943" lon="1.15682">
        <ele>880</ele>
        <time>2022-05-22 18:04:34</time>
      </trkpt>
      <trkpt lat="42.54948" lon="1.15676">
        <ele>879.8</ele>
        <time>2022-05-22 18:04:35</time>
      </trkpt>
      <trkpt lat="42.54953" lon="1.15669">
        <ele>879.4</ele>
        <time>2022-05-22 18:04:36</time>
      </trkpt>
      <trkpt lat="42.54958" lon="1.15662">
        <ele>879.2</ele>
        <time>2022-05-22 18:04:37</time>
      </trkpt>
      <trkpt lat="42.54963" lon="1.15655">
        <ele>878.8</ele>
        <time>2022-05-22 18:04:38</time>
      </trkpt>
      <trkpt lat="42.54968" lon="1.15648">
        <ele>878.6</ele>
        <time>2022-05-22 18:04:39</time>
      </trkpt>
      <trkpt lat="42.54972" lon="1.15641">
        <ele>878.4</ele>
        <time>2022-05-22 18:04:40</time>
      </trkpt>
      <trkpt lat="42.54977" lon="1.15634">
        <ele>878.2</ele>
        <time>2022-05-22 18:04:41</time>
      </trkpt>
      <trkpt lat="42.54981" lon="1.15628">
        <ele>878.2</ele>
        <time>2022-05-22 18:04:42</time>
      </trkpt>
      <trkpt lat="42.54986" lon="1.15622">
        <ele>878.2</ele>
        <time>2022-05-22 18:04:43</time>
      </trkpt>
      <trkpt lat="42.54991" lon="1.15617">
        <ele>878.2</ele>
        <time>2022-05-22 18:04:44</time>
      </trkpt>
      <trkpt lat="42.54996" lon="1.15611">
        <ele>878.2</ele>
        <time>2022-05-22 18:04:45</time>
      </trkpt>
      <trkpt lat="42.55001" lon="1.15606">
        <ele>878.4</ele>
        <time>2022-05-22 18:04:46</time>
      </trkpt>
      <trkpt lat="42.55005" lon="1.15601">
        <ele>878.4</ele>
        <time>2022-05-22 18:04:47</time>
      </trkpt>
      <trkpt lat="42.55009" lon="1.15595">
        <ele>878.4</ele>
        <time>2022-05-22 18:04:48</time>
      </trkpt>
      <trkpt lat="42.55013" lon="1.1559">
        <ele>878.4</ele>
        <time>2022-05-22 18:04:49</time>
      </trkpt>
      <trkpt lat="42.55017" lon="1.15584">
        <ele>878.6</ele>
        <time>2022-05-22 18:04:50</time>
      </trkpt>
      <trkpt lat="42.55021" lon="1.15578">
        <ele>878.6</ele>
        <time>2022-05-22 18:04:51</time>
      </trkpt>
      <trkpt lat="42.55025" lon="1.15574">
        <ele>878.6</ele>
        <time>2022-05-22 18:04:52</time>
      </trkpt>
      <trkpt lat="42.55029" lon="1.15569">
        <ele>878.8</ele>
        <time>2022-05-22 18:04:53</time>
      </trkpt>
      <trkpt lat="42.55034" lon="1.15566">
        <ele>878.8</ele>
        <time>2022-05-22 18:04:54</time>
      </trkpt>
      <trkpt lat="42.55038" lon="1.15562">
        <ele>878.8</ele>
        <time>2022-05-22 18:04:55</time>
      </trkpt>
      <trkpt lat="42.55043" lon="1.15559">
        <ele>878.8</ele>
        <time>2022-05-22 18:04:56</time>
      </trkpt>
      <trkpt lat="42.55048" lon="1.15556">
        <ele>878.8</ele>
        <time>2022-05-22 18:04:57</time>
      </trkpt>
      <trkpt lat="42.55052" lon="1.15552">
        <ele>878.8</ele>
        <time>2022-05-22 18:04:58</time>
      </trkpt>
      <trkpt lat="42.55056" lon="1.15548">
        <ele>878.8</ele>
        <time>2022-05-22 18:04:59</time>
      </trkpt>
      <trkpt lat="42.5506" lon="1.15545">
        <ele>879</ele>
        <time>2022-05-22 18:05:00</time>
      </trkpt>
      <trkpt lat="42.55064" lon="1.15542">
        <ele>879</ele>
        <time>2022-05-22 18:05:01</time>
      </trkpt>
      <trkpt lat="42.55069" lon="1.15538">
        <ele>879.2</ele>
        <time>2022-05-22 18:05:02</time>
      </trkpt>
      <trkpt lat="42.55073" lon="1.15536">
        <ele>879.2</ele>
        <time>2022-05-22 18:05:03</time>
      </trkpt>
      <trkpt lat="42.55077" lon="1.15533">
        <ele>879.2</ele>
        <time>2022-05-22 18:05:04</time>
      </trkpt>
      <trkpt lat="42.55081" lon="1.1553">
        <ele>879.2</ele>
        <time>2022-05-22 18:05:05</time>
      </trkpt>
      <trkpt lat="42.55085" lon="1.15527">
        <ele>879.2</ele>
        <time>2022-05-22 18:05:06</time>
      </trkpt>
      <trkpt lat="42.5509" lon="1.15524">
        <ele>879.2</ele>
        <time>2022-05-22 18:05:07</time>
      </trkpt>
      <trkpt lat="42.55093" lon="1.15522">
        <ele>879.2</ele>
        <time>2022-05-22 18:05:08</time>
      </trkpt>
      <trkpt lat="42.55096" lon="1.15521">
        <ele>879.4</ele>
        <time>2022-05-22 18:05:09</time>
      </trkpt>
      <trkpt lat="42.55101" lon="1.15518">
        <ele>879.4</ele>
        <time>2022-05-22 18:05:10</time>
      </trkpt>
      <trkpt lat="42.55108" lon="1.15514">
        <ele>879.4</ele>
        <time>2022-05-22 18:05:11</time>
      </trkpt>
      <trkpt lat="42.55112" lon="1.15511">
        <ele>879.4</ele>
        <time>2022-05-22 18:05:12</time>
      </trkpt>
      <trkpt lat="42.55117" lon="1.15508">
        <ele>879.4</ele>
        <time>2022-05-22 18:05:13</time>
      </trkpt>
      <trkpt lat="42.55121" lon="1.15505">
        <ele>879.4</ele>
        <time>2022-05-22 18:05:14</time>
      </trkpt>
      <trkpt lat="42.55125" lon="1.15503">
        <ele>879.6</ele>
        <time>2022-05-22 18:05:15</time>
      </trkpt>
      <trkpt lat="42.55129" lon="1.155">
        <ele>879.6</ele>
        <time>2022-05-22 18:05:16</time>
      </trkpt>
      <trkpt lat="42.55133" lon="1.15497">
        <ele>879.6</ele>
        <time>2022-05-22 18:05:17</time>
      </trkpt>
      <trkpt lat="42.55137" lon="1.15495">
        <ele>879.6</ele>
        <time>2022-05-22 18:05:18</time>
      </trkpt>
      <trkpt lat="42.55141" lon="1.15491">
        <ele>879.8</ele>
        <time>2022-05-22 18:05:19</time>
      </trkpt>
      <trkpt lat="42.55145" lon="1.15488">
        <ele>879.8</ele>
        <time>2022-05-22 18:05:20</time>
      </trkpt>
      <trkpt lat="42.55149" lon="1.15486">
        <ele>879.8</ele>
        <time>2022-05-22 18:05:21</time>
      </trkpt>
      <trkpt lat="42.55154" lon="1.15484">
        <ele>879.8</ele>
        <time>2022-05-22 18:05:22</time>
      </trkpt>
      <trkpt lat="42.55158" lon="1.15481">
        <ele>880</ele>
        <time>2022-05-22 18:05:23</time>
      </trkpt>
      <trkpt lat="42.55162" lon="1.15479">
        <ele>880</ele>
        <time>2022-05-22 18:05:24</time>
      </trkpt>
      <trkpt lat="42.55167" lon="1.15477">
        <ele>880</ele>
        <time>2022-05-22 18:05:25</time>
      </trkpt>
      <trkpt lat="42.55171" lon="1.15475">
        <ele>880</ele>
        <time>2022-05-22 18:05:26</time>
      </trkpt>
      <trkpt lat="42.55176" lon="1.15473">
        <ele>879.8</ele>
        <time>2022-05-22 18:05:27</time>
      </trkpt>
      <trkpt lat="42.55181" lon="1.15471">
        <ele>880</ele>
        <time>2022-05-22 18:05:28</time>
      </trkpt>
      <trkpt lat="42.55186" lon="1.15469">
        <ele>880</ele>
        <time>2022-05-22 18:05:29</time>
      </trkpt>
      <trkpt lat="42.5519" lon="1.15466">
        <ele>880</ele>
        <time>2022-05-22 18:05:30</time>
      </trkpt>
      <trkpt lat="42.55194" lon="1.15464">
        <ele>880</ele>
        <time>2022-05-22 18:05:31</time>
      </trkpt>
      <trkpt lat="42.55199" lon="1.15461">
        <ele>880.2</ele>
        <time>2022-05-22 18:05:32</time>
      </trkpt>
      <trkpt lat="42.55204" lon="1.15458">
        <ele>880.4</ele>
        <time>2022-05-22 18:05:33</time>
      </trkpt>
      <trkpt lat="42.55209" lon="1.15456">
        <ele>880.4</ele>
        <time>2022-05-22 18:05:34</time>
      </trkpt>
      <trkpt lat="42.55213" lon="1.15453">
        <ele>880.6</ele>
        <time>2022-05-22 18:05:35</time>
      </trkpt>
      <trkpt lat="42.55218" lon="1.15451">
        <ele>880.6</ele>
        <time>2022-05-22 18:05:36</time>
      </trkpt>
      <trkpt lat="42.55222" lon="1.15448">
        <ele>880.8</ele>
        <time>2022-05-22 18:05:37</time>
      </trkpt>
      <trkpt lat="42.55226" lon="1.15446">
        <ele>880.8</ele>
        <time>2022-05-22 18:05:38</time>
      </trkpt>
      <trkpt lat="42.55231" lon="1.15443">
        <ele>880.8</ele>
        <time>2022-05-22 18:05:39</time>
      </trkpt>
      <trkpt lat="42.55235" lon="1.15441">
        <ele>881</ele>
        <time>2022-05-22 18:05:40</time>
      </trkpt>
      <trkpt lat="42.55239" lon="1.15439">
        <ele>881.2</ele>
        <time>2022-05-22 18:05:41</time>
      </trkpt>
      <trkpt lat="42.55244" lon="1.15436">
        <ele>881.2</ele>
        <time>2022-05-22 18:05:42</time>
      </trkpt>
      <trkpt lat="42.55248" lon="1.15434">
        <ele>881.4</ele>
        <time>2022-05-22 18:05:43</time>
      </trkpt>
      <trkpt lat="42.55252" lon="1.15431">
        <ele>881.4</ele>
        <time>2022-05-22 18:05:44</time>
      </trkpt>
      <trkpt lat="42.55257" lon="1.15429">
        <ele>881.6</ele>
        <time>2022-05-22 18:05:45</time>
      </trkpt>
      <trkpt lat="42.55261" lon="1.15426">
        <ele>881.8</ele>
        <time>2022-05-22 18:05:46</time>
      </trkpt>
      <trkpt lat="42.55264" lon="1.15424">
        <ele>881.8</ele>
        <time>2022-05-22 18:05:47</time>
      </trkpt>
      <trkpt lat="42.55268" lon="1.15421">
        <ele>882</ele>
        <time>2022-05-22 18:05:48</time>
      </trkpt>
      <trkpt lat="42.55272" lon="1.15418">
        <ele>882.2</ele>
        <time>2022-05-22 18:05:49</time>
      </trkpt>
      <trkpt lat="42.55275" lon="1.15415">
        <ele>882.4</ele>
        <time>2022-05-22 18:05:50</time>
      </trkpt>
      <trkpt lat="42.55278" lon="1.15412">
        <ele>882.6</ele>
        <time>2022-05-22 18:05:51</time>
      </trkpt>
      <trkpt lat="42.55282" lon="1.15409">
        <ele>882.6</ele>
        <time>2022-05-22 18:05:52</time>
      </trkpt>
      <trkpt lat="42.55285" lon="1.15405">
        <ele>882.8</ele>
        <time>2022-05-22 18:05:53</time>
      </trkpt>
      <trkpt lat="42.55289" lon="1.15401">
        <ele>882.8</ele>
        <time>2022-05-22 18:05:54</time>
      </trkpt>
      <trkpt lat="42.55292" lon="1.15397">
        <ele>883</ele>
        <time>2022-05-22 18:05:55</time>
      </trkpt>
      <trkpt lat="42.55295" lon="1.15393">
        <ele>883.2</ele>
        <time>2022-05-22 18:05:56</time>
      </trkpt>
      <trkpt lat="42.55298" lon="1.15389">
        <ele>883.4</ele>
        <time>2022-05-22 18:05:57</time>
      </trkpt>
      <trkpt lat="42.55301" lon="1.15386">
        <ele>883.4</ele>
        <time>2022-05-22 18:05:58</time>
      </trkpt>
      <trkpt lat="42.55304" lon="1.15382">
        <ele>883.6</ele>
        <time>2022-05-22 18:05:59</time>
      </trkpt>
      <trkpt lat="42.55308" lon="1.15377">
        <ele>883.6</ele>
        <time>2022-05-22 18:06:00</time>
      </trkpt>
      <trkpt lat="42.55311" lon="1.15373">
        <ele>883.8</ele>
        <time>2022-05-22 18:06:01</time>
      </trkpt>
      <trkpt lat="42.55313" lon="1.15368">
        <ele>883.8</ele>
        <time>2022-05-22 18:06:02</time>
      </trkpt>
      <trkpt lat="42.55316" lon="1.15364">
        <ele>883.8</ele>
        <time>2022-05-22 18:06:03</time>
      </trkpt>
      <trkpt lat="42.55319" lon="1.15359">
        <ele>884</ele>
        <time>2022-05-22 18:06:04</time>
      </trkpt>
      <trkpt lat="42.55321" lon="1.15354">
        <ele>884</ele>
        <time>2022-05-22 18:06:05</time>
      </trkpt>
      <trkpt lat="42.55324" lon="1.15349">
        <ele>884.2</ele>
        <time>2022-05-22 18:06:06</time>
      </trkpt>
      <trkpt lat="42.55326" lon="1.15344">
        <ele>884.2</ele>
        <time>2022-05-22 18:06:07</time>
      </trkpt>
      <trkpt lat="42.55328" lon="1.15338">
        <ele>884.4</ele>
        <time>2022-05-22 18:06:08</time>
      </trkpt>
      <trkpt lat="42.5533" lon="1.15332">
        <ele>884.4</ele>
        <time>2022-05-22 18:06:09</time>
      </trkpt>
      <trkpt lat="42.55332" lon="1.15326">
        <ele>884.4</ele>
        <time>2022-05-22 18:06:10</time>
      </trkpt>
      <trkpt lat="42.55334" lon="1.1532">
        <ele>884.6</ele>
        <time>2022-05-22 18:06:11</time>
      </trkpt>
      <trkpt lat="42.55336" lon="1.15314">
        <ele>884.6</ele>
        <time>2022-05-22 18:06:12</time>
      </trkpt>
      <trkpt lat="42.55338" lon="1.15309">
        <ele>884.8</ele>
        <time>2022-05-22 18:06:13</time>
      </trkpt>
      <trkpt lat="42.55339" lon="1.15304">
        <ele>884.8</ele>
        <time>2022-05-22 18:06:14</time>
      </trkpt>
      <trkpt lat="42.55342" lon="1.15296">
        <ele>884.8</ele>
        <time>2022-05-22 18:06:15</time>
      </trkpt>
      <trkpt lat="42.55344" lon="1.15291">
        <ele>884.8</ele>
        <time>2022-05-22 18:06:16</time>
      </trkpt>
      <trkpt lat="42.55348" lon="1.15284">
        <ele>884.8</ele>
        <time>2022-05-22 18:06:17</time>
      </trkpt>
      <trkpt lat="42.5535" lon="1.15279">
        <ele>884.8</ele>
        <time>2022-05-22 18:06:18</time>
      </trkpt>
      <trkpt lat="42.55353" lon="1.15273">
        <ele>884.8</ele>
        <time>2022-05-22 18:06:19</time>
      </trkpt>
      <trkpt lat="42.55356" lon="1.15268">
        <ele>884.8</ele>
        <time>2022-05-22 18:06:20</time>
      </trkpt>
      <trkpt lat="42.55359" lon="1.15262">
        <ele>884.8</ele>
        <time>2022-05-22 18:06:21</time>
      </trkpt>
      <trkpt lat="42.55361" lon="1.15259">
        <ele>884.8</ele>
        <time>2022-05-22 18:06:22</time>
      </trkpt>
      <trkpt lat="42.55366" lon="1.15252">
        <ele>884.8</ele>
        <time>2022-05-22 18:06:23</time>
      </trkpt>
      <trkpt lat="42.55369" lon="1.15249">
        <ele>884.8</ele>
        <time>2022-05-22 18:06:24</time>
      </trkpt>
      <trkpt lat="42.55374" lon="1.15244">
        <ele>884.8</ele>
        <time>2022-05-22 18:06:25</time>
      </trkpt>
      <trkpt lat="42.55377" lon="1.1524">
        <ele>884.8</ele>
        <time>2022-05-22 18:06:26</time>
      </trkpt>
      <trkpt lat="42.5538" lon="1.15235">
        <ele>884.8</ele>
        <time>2022-05-22 18:06:27</time>
      </trkpt>
      <trkpt lat="42.55383" lon="1.15231">
        <ele>884.8</ele>
        <time>2022-05-22 18:06:28</time>
      </trkpt>
      <trkpt lat="42.55387" lon="1.15226">
        <ele>884.6</ele>
        <time>2022-05-22 18:06:29</time>
      </trkpt>
      <trkpt lat="42.5539" lon="1.15223">
        <ele>884.6</ele>
        <time>2022-05-22 18:06:30</time>
      </trkpt>
      <trkpt lat="42.55395" lon="1.15219">
        <ele>884.6</ele>
        <time>2022-05-22 18:06:31</time>
      </trkpt>
      <trkpt lat="42.55399" lon="1.15216">
        <ele>884.6</ele>
        <time>2022-05-22 18:06:32</time>
      </trkpt>
      <trkpt lat="42.55403" lon="1.15211">
        <ele>884.6</ele>
        <time>2022-05-22 18:06:33</time>
      </trkpt>
      <trkpt lat="42.55407" lon="1.15208">
        <ele>884.6</ele>
        <time>2022-05-22 18:06:34</time>
      </trkpt>
      <trkpt lat="42.55411" lon="1.15204">
        <ele>884.6</ele>
        <time>2022-05-22 18:06:35</time>
      </trkpt>
      <trkpt lat="42.55415" lon="1.152">
        <ele>884.6</ele>
        <time>2022-05-22 18:06:36</time>
      </trkpt>
      <trkpt lat="42.55419" lon="1.15196">
        <ele>884.8</ele>
        <time>2022-05-22 18:06:37</time>
      </trkpt>
      <trkpt lat="42.55423" lon="1.15192">
        <ele>884.8</ele>
        <time>2022-05-22 18:06:38</time>
      </trkpt>
      <trkpt lat="42.55427" lon="1.15189">
        <ele>885</ele>
        <time>2022-05-22 18:06:39</time>
      </trkpt>
      <trkpt lat="42.5543" lon="1.15186">
        <ele>885</ele>
        <time>2022-05-22 18:06:40</time>
      </trkpt>
      <trkpt lat="42.55434" lon="1.15183">
        <ele>885.2</ele>
        <time>2022-05-22 18:06:41</time>
      </trkpt>
      <trkpt lat="42.55438" lon="1.15178">
        <ele>885.2</ele>
        <time>2022-05-22 18:06:42</time>
      </trkpt>
      <trkpt lat="42.55442" lon="1.15174">
        <ele>885.4</ele>
        <time>2022-05-22 18:06:43</time>
      </trkpt>
      <trkpt lat="42.55446" lon="1.1517">
        <ele>885.4</ele>
        <time>2022-05-22 18:06:44</time>
      </trkpt>
      <trkpt lat="42.55449" lon="1.15167">
        <ele>885.4</ele>
        <time>2022-05-22 18:06:45</time>
      </trkpt>
      <trkpt lat="42.55453" lon="1.15163">
        <ele>885.6</ele>
        <time>2022-05-22 18:06:46</time>
      </trkpt>
      <trkpt lat="42.55457" lon="1.15159">
        <ele>885.6</ele>
        <time>2022-05-22 18:06:47</time>
      </trkpt>
      <trkpt lat="42.55461" lon="1.15155">
        <ele>885.6</ele>
        <time>2022-05-22 18:06:48</time>
      </trkpt>
      <trkpt lat="42.55465" lon="1.15151">
        <ele>885.6</ele>
        <time>2022-05-22 18:06:49</time>
      </trkpt>
      <trkpt lat="42.55469" lon="1.15147">
        <ele>885.6</ele>
        <time>2022-05-22 18:06:50</time>
      </trkpt>
      <trkpt lat="42.55472" lon="1.15142">
        <ele>885.6</ele>
        <time>2022-05-22 18:06:51</time>
      </trkpt>
      <trkpt lat="42.55475" lon="1.15137">
        <ele>885.6</ele>
        <time>2022-05-22 18:06:52</time>
      </trkpt>
      <trkpt lat="42.55478" lon="1.15132">
        <ele>885.6</ele>
        <time>2022-05-22 18:06:53</time>
      </trkpt>
      <trkpt lat="42.55482" lon="1.15127">
        <ele>885.6</ele>
        <time>2022-05-22 18:06:54</time>
      </trkpt>
      <trkpt lat="42.55485" lon="1.15122">
        <ele>885.6</ele>
        <time>2022-05-22 18:06:55</time>
      </trkpt>
      <trkpt lat="42.55489" lon="1.15117">
        <ele>885.4</ele>
        <time>2022-05-22 18:06:56</time>
      </trkpt>
      <trkpt lat="42.55492" lon="1.15112">
        <ele>885.4</ele>
        <time>2022-05-22 18:06:57</time>
      </trkpt>
      <trkpt lat="42.55495" lon="1.15106">
        <ele>885.4</ele>
        <time>2022-05-22 18:06:58</time>
      </trkpt>
      <trkpt lat="42.55498" lon="1.151">
        <ele>885.2</ele>
        <time>2022-05-22 18:06:59</time>
      </trkpt>
      <trkpt lat="42.55501" lon="1.15093">
        <ele>885.2</ele>
        <time>2022-05-22 18:07:00</time>
      </trkpt>
      <trkpt lat="42.55504" lon="1.15087">
        <ele>885</ele>
        <time>2022-05-22 18:07:01</time>
      </trkpt>
      <trkpt lat="42.55508" lon="1.15081">
        <ele>885</ele>
        <time>2022-05-22 18:07:02</time>
      </trkpt>
      <trkpt lat="42.55512" lon="1.15075">
        <ele>884.8</ele>
        <time>2022-05-22 18:07:03</time>
      </trkpt>
      <trkpt lat="42.55515" lon="1.15068">
        <ele>884.8</ele>
        <time>2022-05-22 18:07:04</time>
      </trkpt>
      <trkpt lat="42.55518" lon="1.15062">
        <ele>884.8</ele>
        <time>2022-05-22 18:07:05</time>
      </trkpt>
      <trkpt lat="42.5552" lon="1.15055">
        <ele>884.6</ele>
        <time>2022-05-22 18:07:06</time>
      </trkpt>
      <trkpt lat="42.55523" lon="1.15047">
        <ele>884.6</ele>
        <time>2022-05-22 18:07:07</time>
      </trkpt>
      <trkpt lat="42.55525" lon="1.1504">
        <ele>884.6</ele>
        <time>2022-05-22 18:07:08</time>
      </trkpt>
      <trkpt lat="42.55528" lon="1.15034">
        <ele>884.6</ele>
        <time>2022-05-22 18:07:09</time>
      </trkpt>
      <trkpt lat="42.5553" lon="1.15028">
        <ele>884.4</ele>
        <time>2022-05-22 18:07:10</time>
      </trkpt>
      <trkpt lat="42.55533" lon="1.15022">
        <ele>884.4</ele>
        <time>2022-05-22 18:07:11</time>
      </trkpt>
      <trkpt lat="42.55535" lon="1.15016">
        <ele>884.2</ele>
        <time>2022-05-22 18:07:12</time>
      </trkpt>
      <trkpt lat="42.55538" lon="1.15009">
        <ele>884.2</ele>
        <time>2022-05-22 18:07:13</time>
      </trkpt>
      <trkpt lat="42.5554" lon="1.15004">
        <ele>884.2</ele>
        <time>2022-05-22 18:07:14</time>
      </trkpt>
      <trkpt lat="42.55542" lon="1.14998">
        <ele>884.2</ele>
        <time>2022-05-22 18:07:15</time>
      </trkpt>
      <trkpt lat="42.55544" lon="1.14991">
        <ele>884.2</ele>
        <time>2022-05-22 18:07:16</time>
      </trkpt>
      <trkpt lat="42.55546" lon="1.14985">
        <ele>884.2</ele>
        <time>2022-05-22 18:07:17</time>
      </trkpt>
      <trkpt lat="42.55548" lon="1.14979">
        <ele>884.2</ele>
        <time>2022-05-22 18:07:18</time>
      </trkpt>
      <trkpt lat="42.55551" lon="1.14974">
        <ele>884.2</ele>
        <time>2022-05-22 18:07:19</time>
      </trkpt>
      <trkpt lat="42.55553" lon="1.14968">
        <ele>884.2</ele>
        <time>2022-05-22 18:07:20</time>
      </trkpt>
      <trkpt lat="42.55555" lon="1.14961">
        <ele>884.4</ele>
        <time>2022-05-22 18:07:21</time>
      </trkpt>
      <trkpt lat="42.55557" lon="1.14956">
        <ele>884.4</ele>
        <time>2022-05-22 18:07:22</time>
      </trkpt>
      <trkpt lat="42.5556" lon="1.14951">
        <ele>884.4</ele>
        <time>2022-05-22 18:07:23</time>
      </trkpt>
      <trkpt lat="42.55563" lon="1.14946">
        <ele>884.6</ele>
        <time>2022-05-22 18:07:24</time>
      </trkpt>
      <trkpt lat="42.55566" lon="1.1494">
        <ele>884.6</ele>
        <time>2022-05-22 18:07:25</time>
      </trkpt>
      <trkpt lat="42.5557" lon="1.14935">
        <ele>884.8</ele>
        <time>2022-05-22 18:07:26</time>
      </trkpt>
      <trkpt lat="42.55573" lon="1.1493">
        <ele>884.8</ele>
        <time>2022-05-22 18:07:27</time>
      </trkpt>
      <trkpt lat="42.55577" lon="1.14926">
        <ele>884.8</ele>
        <time>2022-05-22 18:07:28</time>
      </trkpt>
      <trkpt lat="42.5558" lon="1.14921">
        <ele>885</ele>
        <time>2022-05-22 18:07:29</time>
      </trkpt>
      <trkpt lat="42.55583" lon="1.14917">
        <ele>885</ele>
        <time>2022-05-22 18:07:30</time>
      </trkpt>
      <trkpt lat="42.55587" lon="1.14913">
        <ele>885</ele>
        <time>2022-05-22 18:07:31</time>
      </trkpt>
      <trkpt lat="42.55591" lon="1.14909">
        <ele>885.2</ele>
        <time>2022-05-22 18:07:32</time>
      </trkpt>
      <trkpt lat="42.55595" lon="1.14905">
        <ele>885.2</ele>
        <time>2022-05-22 18:07:33</time>
      </trkpt>
      <trkpt lat="42.55598" lon="1.14901">
        <ele>885.2</ele>
        <time>2022-05-22 18:07:34</time>
      </trkpt>
      <trkpt lat="42.55603" lon="1.14897">
        <ele>885.2</ele>
        <time>2022-05-22 18:07:35</time>
      </trkpt>
      <trkpt lat="42.55606" lon="1.14893">
        <ele>885.4</ele>
        <time>2022-05-22 18:07:36</time>
      </trkpt>
      <trkpt lat="42.5561" lon="1.14889">
        <ele>885.4</ele>
        <time>2022-05-22 18:07:37</time>
      </trkpt>
      <trkpt lat="42.55614" lon="1.14885">
        <ele>885.6</ele>
        <time>2022-05-22 18:07:38</time>
      </trkpt>
      <trkpt lat="42.55619" lon="1.14882">
        <ele>885.6</ele>
        <time>2022-05-22 18:07:39</time>
      </trkpt>
      <trkpt lat="42.55623" lon="1.14879">
        <ele>885.6</ele>
        <time>2022-05-22 18:07:40</time>
      </trkpt>
      <trkpt lat="42.55627" lon="1.14876">
        <ele>885.8</ele>
        <time>2022-05-22 18:07:41</time>
      </trkpt>
      <trkpt lat="42.55631" lon="1.14874">
        <ele>885.8</ele>
        <time>2022-05-22 18:07:42</time>
      </trkpt>
      <trkpt lat="42.55635" lon="1.14872">
        <ele>885.8</ele>
        <time>2022-05-22 18:07:43</time>
      </trkpt>
      <trkpt lat="42.55639" lon="1.14869">
        <ele>885.8</ele>
        <time>2022-05-22 18:07:44</time>
      </trkpt>
      <trkpt lat="42.55643" lon="1.14866">
        <ele>885.8</ele>
        <time>2022-05-22 18:07:45</time>
      </trkpt>
      <trkpt lat="42.55647" lon="1.14864">
        <ele>885.8</ele>
        <time>2022-05-22 18:07:46</time>
      </trkpt>
      <trkpt lat="42.55651" lon="1.14862">
        <ele>885.8</ele>
        <time>2022-05-22 18:07:47</time>
      </trkpt>
      <trkpt lat="42.55655" lon="1.1486">
        <ele>886</ele>
        <time>2022-05-22 18:07:48</time>
      </trkpt>
      <trkpt lat="42.55659" lon="1.14858">
        <ele>886</ele>
        <time>2022-05-22 18:07:49</time>
      </trkpt>
      <trkpt lat="42.55664" lon="1.14856">
        <ele>886</ele>
        <time>2022-05-22 18:07:50</time>
      </trkpt>
      <trkpt lat="42.55668" lon="1.14854">
        <ele>886.2</ele>
        <time>2022-05-22 18:07:51</time>
      </trkpt>
      <trkpt lat="42.55673" lon="1.14853">
        <ele>886.4</ele>
        <time>2022-05-22 18:07:52</time>
      </trkpt>
      <trkpt lat="42.55677" lon="1.14851">
        <ele>886.4</ele>
        <time>2022-05-22 18:07:53</time>
      </trkpt>
      <trkpt lat="42.55681" lon="1.14849">
        <ele>886.6</ele>
        <time>2022-05-22 18:07:54</time>
      </trkpt>
      <trkpt lat="42.55686" lon="1.14847">
        <ele>886.6</ele>
        <time>2022-05-22 18:07:55</time>
      </trkpt>
      <trkpt lat="42.5569" lon="1.14845">
        <ele>886.6</ele>
        <time>2022-05-22 18:07:56</time>
      </trkpt>
      <trkpt lat="42.55694" lon="1.14843">
        <ele>886.6</ele>
        <time>2022-05-22 18:07:57</time>
      </trkpt>
      <trkpt lat="42.55698" lon="1.14841">
        <ele>886.6</ele>
        <time>2022-05-22 18:07:58</time>
      </trkpt>
      <trkpt lat="42.55702" lon="1.14839">
        <ele>886.4</ele>
        <time>2022-05-22 18:07:59</time>
      </trkpt>
      <trkpt lat="42.55706" lon="1.14837">
        <ele>886.4</ele>
        <time>2022-05-22 18:08:00</time>
      </trkpt>
      <trkpt lat="42.55709" lon="1.14835">
        <ele>886.6</ele>
        <time>2022-05-22 18:08:01</time>
      </trkpt>
      <trkpt lat="42.55713" lon="1.14833">
        <ele>886.6</ele>
        <time>2022-05-22 18:08:02</time>
      </trkpt>
      <trkpt lat="42.55717" lon="1.1483">
        <ele>886.6</ele>
        <time>2022-05-22 18:08:03</time>
      </trkpt>
      <trkpt lat="42.55721" lon="1.14828">
        <ele>886.8</ele>
        <time>2022-05-22 18:08:04</time>
      </trkpt>
      <trkpt lat="42.55724" lon="1.14826">
        <ele>886.8</ele>
        <time>2022-05-22 18:08:05</time>
      </trkpt>
      <trkpt lat="42.55728" lon="1.14823">
        <ele>887</ele>
        <time>2022-05-22 18:08:06</time>
      </trkpt>
      <trkpt lat="42.55731" lon="1.14822">
        <ele>887</ele>
        <time>2022-05-22 18:08:07</time>
      </trkpt>
      <trkpt lat="42.55735" lon="1.1482">
        <ele>887.2</ele>
        <time>2022-05-22 18:08:08</time>
      </trkpt>
      <trkpt lat="42.55739" lon="1.14818">
        <ele>887.2</ele>
        <time>2022-05-22 18:08:09</time>
      </trkpt>
      <trkpt lat="42.55743" lon="1.14816">
        <ele>887.4</ele>
        <time>2022-05-22 18:08:10</time>
      </trkpt>
      <trkpt lat="42.55747" lon="1.14814">
        <ele>887.4</ele>
        <time>2022-05-22 18:08:11</time>
      </trkpt>
      <trkpt lat="42.55751" lon="1.14813">
        <ele>887.6</ele>
        <time>2022-05-22 18:08:12</time>
      </trkpt>
      <trkpt lat="42.55754" lon="1.14811">
        <ele>887.6</ele>
        <time>2022-05-22 18:08:13</time>
      </trkpt>
      <trkpt lat="42.55758" lon="1.14809">
        <ele>887.8</ele>
        <time>2022-05-22 18:08:14</time>
      </trkpt>
      <trkpt lat="42.55761" lon="1.14807">
        <ele>887.8</ele>
        <time>2022-05-22 18:08:15</time>
      </trkpt>
      <trkpt lat="42.55765" lon="1.14806">
        <ele>888</ele>
        <time>2022-05-22 18:08:16</time>
      </trkpt>
      <trkpt lat="42.55769" lon="1.14804">
        <ele>888</ele>
        <time>2022-05-22 18:08:17</time>
      </trkpt>
      <trkpt lat="42.55772" lon="1.14802">
        <ele>888.2</ele>
        <time>2022-05-22 18:08:18</time>
      </trkpt>
      <trkpt lat="42.55776" lon="1.14802">
        <ele>888.2</ele>
        <time>2022-05-22 18:08:19</time>
      </trkpt>
      <trkpt lat="42.55779" lon="1.14801">
        <ele>888.4</ele>
        <time>2022-05-22 18:08:20</time>
      </trkpt>
      <trkpt lat="42.55783" lon="1.14799">
        <ele>888.4</ele>
        <time>2022-05-22 18:08:21</time>
      </trkpt>
      <trkpt lat="42.55786" lon="1.14798">
        <ele>888.6</ele>
        <time>2022-05-22 18:08:22</time>
      </trkpt>
      <trkpt lat="42.55789" lon="1.14796">
        <ele>888.6</ele>
        <time>2022-05-22 18:08:23</time>
      </trkpt>
      <trkpt lat="42.55792" lon="1.14794">
        <ele>888.8</ele>
        <time>2022-05-22 18:08:24</time>
      </trkpt>
      <trkpt lat="42.55795" lon="1.14793">
        <ele>889</ele>
        <time>2022-05-22 18:08:25</time>
      </trkpt>
      <trkpt lat="42.55799" lon="1.14791">
        <ele>889</ele>
        <time>2022-05-22 18:08:26</time>
      </trkpt>
      <trkpt lat="42.55802" lon="1.14789">
        <ele>889.2</ele>
        <time>2022-05-22 18:08:27</time>
      </trkpt>
      <trkpt lat="42.55806" lon="1.14788">
        <ele>889.2</ele>
        <time>2022-05-22 18:08:28</time>
      </trkpt>
      <trkpt lat="42.55809" lon="1.14786">
        <ele>889.4</ele>
        <time>2022-05-22 18:08:29</time>
      </trkpt>
      <trkpt lat="42.55813" lon="1.14785">
        <ele>889.4</ele>
        <time>2022-05-22 18:08:30</time>
      </trkpt>
      <trkpt lat="42.55816" lon="1.14783">
        <ele>889.4</ele>
        <time>2022-05-22 18:08:31</time>
      </trkpt>
      <trkpt lat="42.55819" lon="1.14782">
        <ele>889.6</ele>
        <time>2022-05-22 18:08:32</time>
      </trkpt>
      <trkpt lat="42.55822" lon="1.1478">
        <ele>889.6</ele>
        <time>2022-05-22 18:08:33</time>
      </trkpt>
      <trkpt lat="42.55826" lon="1.14778">
        <ele>889.6</ele>
        <time>2022-05-22 18:08:34</time>
      </trkpt>
      <trkpt lat="42.55829" lon="1.14776">
        <ele>889.8</ele>
        <time>2022-05-22 18:08:35</time>
      </trkpt>
      <trkpt lat="42.55832" lon="1.14774">
        <ele>889.8</ele>
        <time>2022-05-22 18:08:36</time>
      </trkpt>
      <trkpt lat="42.55835" lon="1.14772">
        <ele>890</ele>
        <time>2022-05-22 18:08:37</time>
      </trkpt>
      <trkpt lat="42.55838" lon="1.14771">
        <ele>890</ele>
        <time>2022-05-22 18:08:38</time>
      </trkpt>
      <trkpt lat="42.55842" lon="1.14768">
        <ele>890.2</ele>
        <time>2022-05-22 18:08:39</time>
      </trkpt>
      <trkpt lat="42.55845" lon="1.14766">
        <ele>890.2</ele>
        <time>2022-05-22 18:08:40</time>
      </trkpt>
      <trkpt lat="42.55849" lon="1.14765">
        <ele>890.2</ele>
        <time>2022-05-22 18:08:41</time>
      </trkpt>
      <trkpt lat="42.55852" lon="1.14764">
        <ele>890.2</ele>
        <time>2022-05-22 18:08:42</time>
      </trkpt>
      <trkpt lat="42.55855" lon="1.14762">
        <ele>890.4</ele>
        <time>2022-05-22 18:08:43</time>
      </trkpt>
      <trkpt lat="42.55858" lon="1.14761">
        <ele>890.4</ele>
        <time>2022-05-22 18:08:44</time>
      </trkpt>
      <trkpt lat="42.55862" lon="1.14759">
        <ele>890.6</ele>
        <time>2022-05-22 18:08:45</time>
      </trkpt>
      <trkpt lat="42.55865" lon="1.14757">
        <ele>890.6</ele>
        <time>2022-05-22 18:08:46</time>
      </trkpt>
      <trkpt lat="42.55869" lon="1.14755">
        <ele>890.8</ele>
        <time>2022-05-22 18:08:47</time>
      </trkpt>
      <trkpt lat="42.55873" lon="1.14752">
        <ele>890.8</ele>
        <time>2022-05-22 18:08:48</time>
      </trkpt>
      <trkpt lat="42.55876" lon="1.14749">
        <ele>890.8</ele>
        <time>2022-05-22 18:08:49</time>
      </trkpt>
      <trkpt lat="42.5588" lon="1.14746">
        <ele>890.8</ele>
        <time>2022-05-22 18:08:50</time>
      </trkpt>
      <trkpt lat="42.55884" lon="1.14743">
        <ele>891</ele>
        <time>2022-05-22 18:08:51</time>
      </trkpt>
      <trkpt lat="42.55888" lon="1.14741">
        <ele>891</ele>
        <time>2022-05-22 18:08:52</time>
      </trkpt>
      <trkpt lat="42.55892" lon="1.14739">
        <ele>891</ele>
        <time>2022-05-22 18:08:53</time>
      </trkpt>
      <trkpt lat="42.55897" lon="1.14736">
        <ele>891</ele>
        <time>2022-05-22 18:08:54</time>
      </trkpt>
      <trkpt lat="42.55901" lon="1.14734">
        <ele>891.2</ele>
        <time>2022-05-22 18:08:55</time>
      </trkpt>
      <trkpt lat="42.55905" lon="1.14731">
        <ele>891.2</ele>
        <time>2022-05-22 18:08:56</time>
      </trkpt>
      <trkpt lat="42.55909" lon="1.14729">
        <ele>891.2</ele>
        <time>2022-05-22 18:08:57</time>
      </trkpt>
      <trkpt lat="42.55914" lon="1.14727">
        <ele>891.2</ele>
        <time>2022-05-22 18:08:58</time>
      </trkpt>
      <trkpt lat="42.55918" lon="1.14724">
        <ele>891.4</ele>
        <time>2022-05-22 18:08:59</time>
      </trkpt>
      <trkpt lat="42.55922" lon="1.14721">
        <ele>891.4</ele>
        <time>2022-05-22 18:09:00</time>
      </trkpt>
      <trkpt lat="42.55925" lon="1.14719">
        <ele>891.4</ele>
        <time>2022-05-22 18:09:01</time>
      </trkpt>
      <trkpt lat="42.55929" lon="1.14716">
        <ele>891.4</ele>
        <time>2022-05-22 18:09:02</time>
      </trkpt>
      <trkpt lat="42.55933" lon="1.14714">
        <ele>891.4</ele>
        <time>2022-05-22 18:09:03</time>
      </trkpt>
      <trkpt lat="42.55936" lon="1.14712">
        <ele>891.4</ele>
        <time>2022-05-22 18:09:04</time>
      </trkpt>
      <trkpt lat="42.5594" lon="1.1471">
        <ele>891.4</ele>
        <time>2022-05-22 18:09:05</time>
      </trkpt>
      <trkpt lat="42.55944" lon="1.14708">
        <ele>891.4</ele>
        <time>2022-05-22 18:09:06</time>
      </trkpt>
      <trkpt lat="42.55948" lon="1.14706">
        <ele>891.6</ele>
        <time>2022-05-22 18:09:07</time>
      </trkpt>
      <trkpt lat="42.55952" lon="1.14704">
        <ele>891.6</ele>
        <time>2022-05-22 18:09:08</time>
      </trkpt>
      <trkpt lat="42.55955" lon="1.14701">
        <ele>891.6</ele>
        <time>2022-05-22 18:09:09</time>
      </trkpt>
      <trkpt lat="42.55958" lon="1.14699">
        <ele>891.6</ele>
        <time>2022-05-22 18:09:10</time>
      </trkpt>
      <trkpt lat="42.55961" lon="1.14697">
        <ele>891.8</ele>
        <time>2022-05-22 18:09:11</time>
      </trkpt>
      <trkpt lat="42.55966" lon="1.14695">
        <ele>891.8</ele>
        <time>2022-05-22 18:09:12</time>
      </trkpt>
      <trkpt lat="42.5597" lon="1.14693">
        <ele>891.8</ele>
        <time>2022-05-22 18:09:13</time>
      </trkpt>
      <trkpt lat="42.55973" lon="1.1469">
        <ele>892</ele>
        <time>2022-05-22 18:09:14</time>
      </trkpt>
      <trkpt lat="42.55977" lon="1.14688">
        <ele>892</ele>
        <time>2022-05-22 18:09:15</time>
      </trkpt>
      <trkpt lat="42.5598" lon="1.14686">
        <ele>892</ele>
        <time>2022-05-22 18:09:16</time>
      </trkpt>
      <trkpt lat="42.55983" lon="1.14685">
        <ele>892</ele>
        <time>2022-05-22 18:09:17</time>
      </trkpt>
      <trkpt lat="42.55987" lon="1.14682">
        <ele>892</ele>
        <time>2022-05-22 18:09:18</time>
      </trkpt>
      <trkpt lat="42.55991" lon="1.1468">
        <ele>892.2</ele>
        <time>2022-05-22 18:09:19</time>
      </trkpt>
      <trkpt lat="42.55994" lon="1.14679">
        <ele>892.2</ele>
        <time>2022-05-22 18:09:20</time>
      </trkpt>
      <trkpt lat="42.55998" lon="1.14677">
        <ele>892.2</ele>
        <time>2022-05-22 18:09:21</time>
      </trkpt>
      <trkpt lat="42.56001" lon="1.14676">
        <ele>892.2</ele>
        <time>2022-05-22 18:09:22</time>
      </trkpt>
      <trkpt lat="42.56005" lon="1.14675">
        <ele>892.2</ele>
        <time>2022-05-22 18:09:23</time>
      </trkpt>
      <trkpt lat="42.56009" lon="1.14674">
        <ele>892.2</ele>
        <time>2022-05-22 18:09:24</time>
      </trkpt>
      <trkpt lat="42.56012" lon="1.14672">
        <ele>892.2</ele>
        <time>2022-05-22 18:09:25</time>
      </trkpt>
      <trkpt lat="42.56016" lon="1.1467">
        <ele>892.2</ele>
        <time>2022-05-22 18:09:26</time>
      </trkpt>
      <trkpt lat="42.56019" lon="1.14669">
        <ele>892.2</ele>
        <time>2022-05-22 18:09:27</time>
      </trkpt>
      <trkpt lat="42.56022" lon="1.14667">
        <ele>892.2</ele>
        <time>2022-05-22 18:09:28</time>
      </trkpt>
      <trkpt lat="42.56024" lon="1.14666">
        <ele>892.2</ele>
        <time>2022-05-22 18:09:29</time>
      </trkpt>
      <trkpt lat="42.56029" lon="1.14664">
        <ele>892.2</ele>
        <time>2022-05-22 18:09:30</time>
      </trkpt>
      <trkpt lat="42.56032" lon="1.14662">
        <ele>892.4</ele>
        <time>2022-05-22 18:09:31</time>
      </trkpt>
      <trkpt lat="42.56036" lon="1.14661">
        <ele>892.4</ele>
        <time>2022-05-22 18:09:32</time>
      </trkpt>
      <trkpt lat="42.56039" lon="1.1466">
        <ele>892.4</ele>
        <time>2022-05-22 18:09:33</time>
      </trkpt>
      <trkpt lat="42.56042" lon="1.14658">
        <ele>892.6</ele>
        <time>2022-05-22 18:09:34</time>
      </trkpt>
      <trkpt lat="42.56045" lon="1.14657">
        <ele>892.6</ele>
        <time>2022-05-22 18:09:35</time>
      </trkpt>
      <trkpt lat="42.56049" lon="1.14656">
        <ele>892.6</ele>
        <time>2022-05-22 18:09:36</time>
      </trkpt>
      <trkpt lat="42.56053" lon="1.14654">
        <ele>892.8</ele>
        <time>2022-05-22 18:09:37</time>
      </trkpt>
      <trkpt lat="42.56056" lon="1.14653">
        <ele>892.8</ele>
        <time>2022-05-22 18:09:38</time>
      </trkpt>
      <trkpt lat="42.56059" lon="1.14652">
        <ele>893</ele>
        <time>2022-05-22 18:09:39</time>
      </trkpt>
      <trkpt lat="42.56062" lon="1.1465">
        <ele>893</ele>
        <time>2022-05-22 18:09:40</time>
      </trkpt>
      <trkpt lat="42.56065" lon="1.14649">
        <ele>893.2</ele>
        <time>2022-05-22 18:09:41</time>
      </trkpt>
      <trkpt lat="42.56069" lon="1.14648">
        <ele>893.4</ele>
        <time>2022-05-22 18:09:42</time>
      </trkpt>
      <trkpt lat="42.56072" lon="1.14647">
        <ele>893.4</ele>
        <time>2022-05-22 18:09:43</time>
      </trkpt>
      <trkpt lat="42.56076" lon="1.14646">
        <ele>893.6</ele>
        <time>2022-05-22 18:09:44</time>
      </trkpt>
      <trkpt lat="42.56079" lon="1.14646">
        <ele>893.6</ele>
        <time>2022-05-22 18:09:45</time>
      </trkpt>
      <trkpt lat="42.56083" lon="1.14645">
        <ele>893.8</ele>
        <time>2022-05-22 18:09:46</time>
      </trkpt>
      <trkpt lat="42.56085" lon="1.14645">
        <ele>894</ele>
        <time>2022-05-22 18:09:47</time>
      </trkpt>
      <trkpt lat="42.56089" lon="1.14644">
        <ele>894</ele>
        <time>2022-05-22 18:09:48</time>
      </trkpt>
      <trkpt lat="42.56092" lon="1.14643">
        <ele>894.2</ele>
        <time>2022-05-22 18:09:49</time>
      </trkpt>
      <trkpt lat="42.56095" lon="1.14643">
        <ele>894.4</ele>
        <time>2022-05-22 18:09:50</time>
      </trkpt>
      <trkpt lat="42.56099" lon="1.14642">
        <ele>894.4</ele>
        <time>2022-05-22 18:09:51</time>
      </trkpt>
      <trkpt lat="42.56102" lon="1.14641">
        <ele>894.6</ele>
        <time>2022-05-22 18:09:52</time>
      </trkpt>
      <trkpt lat="42.56104" lon="1.14641">
        <ele>894.6</ele>
        <time>2022-05-22 18:09:53</time>
      </trkpt>
      <trkpt lat="42.56108" lon="1.1464">
        <ele>895</ele>
        <time>2022-05-22 18:09:54</time>
      </trkpt>
      <trkpt lat="42.56111" lon="1.14639">
        <ele>895.2</ele>
        <time>2022-05-22 18:09:55</time>
      </trkpt>
      <trkpt lat="42.56114" lon="1.14638">
        <ele>895.2</ele>
        <time>2022-05-22 18:09:56</time>
      </trkpt>
      <trkpt lat="42.56117" lon="1.14637">
        <ele>895.4</ele>
        <time>2022-05-22 18:09:57</time>
      </trkpt>
      <trkpt lat="42.5612" lon="1.14637">
        <ele>895.6</ele>
        <time>2022-05-22 18:09:58</time>
      </trkpt>
      <trkpt lat="42.56122" lon="1.14636">
        <ele>895.8</ele>
        <time>2022-05-22 18:09:59</time>
      </trkpt>
      <trkpt lat="42.56125" lon="1.14635">
        <ele>896</ele>
        <time>2022-05-22 18:10:00</time>
      </trkpt>
      <trkpt lat="42.56128" lon="1.14635">
        <ele>896.2</ele>
        <time>2022-05-22 18:10:01</time>
      </trkpt>
      <trkpt lat="42.56131" lon="1.14635">
        <ele>896.4</ele>
        <time>2022-05-22 18:10:02</time>
      </trkpt>
      <trkpt lat="42.56134" lon="1.14634">
        <ele>896.6</ele>
        <time>2022-05-22 18:10:03</time>
      </trkpt>
      <trkpt lat="42.56136" lon="1.14633">
        <ele>896.8</ele>
        <time>2022-05-22 18:10:04</time>
      </trkpt>
      <trkpt lat="42.5614" lon="1.14633">
        <ele>897</ele>
        <time>2022-05-22 18:10:05</time>
      </trkpt>
      <trkpt lat="42.56143" lon="1.14633">
        <ele>897.2</ele>
        <time>2022-05-22 18:10:06</time>
      </trkpt>
      <trkpt lat="42.56145" lon="1.14633">
        <ele>897.4</ele>
        <time>2022-05-22 18:10:07</time>
      </trkpt>
      <trkpt lat="42.56149" lon="1.14632">
        <ele>897.6</ele>
        <time>2022-05-22 18:10:08</time>
      </trkpt>
      <trkpt lat="42.56151" lon="1.14631">
        <ele>897.8</ele>
        <time>2022-05-22 18:10:09</time>
      </trkpt>
      <trkpt lat="42.56154" lon="1.14631">
        <ele>898</ele>
        <time>2022-05-22 18:10:10</time>
      </trkpt>
      <trkpt lat="42.56156" lon="1.14631">
        <ele>898.2</ele>
        <time>2022-05-22 18:10:11</time>
      </trkpt>
      <trkpt lat="42.56159" lon="1.14631">
        <ele>898.4</ele>
        <time>2022-05-22 18:10:12</time>
      </trkpt>
      <trkpt lat="42.56161" lon="1.1463">
        <ele>898.4</ele>
        <time>2022-05-22 18:10:13</time>
      </trkpt>
      <trkpt lat="42.56163" lon="1.1463">
        <ele>898.6</ele>
        <time>2022-05-22 18:10:14</time>
      </trkpt>
      <trkpt lat="42.56165" lon="1.14629">
        <ele>898.8</ele>
        <time>2022-05-22 18:10:15</time>
      </trkpt>
      <trkpt lat="42.56167" lon="1.14629">
        <ele>899</ele>
        <time>2022-05-22 18:10:16</time>
      </trkpt>
      <trkpt lat="42.56169" lon="1.14629">
        <ele>899.2</ele>
        <time>2022-05-22 18:10:17</time>
      </trkpt>
      <trkpt lat="42.56171" lon="1.14628">
        <ele>899.2</ele>
        <time>2022-05-22 18:10:18</time>
      </trkpt>
      <trkpt lat="42.56173" lon="1.14628">
        <ele>899.4</ele>
        <time>2022-05-22 18:10:19</time>
      </trkpt>
      <trkpt lat="42.56175" lon="1.14627">
        <ele>899.6</ele>
        <time>2022-05-22 18:10:20</time>
      </trkpt>
      <trkpt lat="42.56177" lon="1.14627">
        <ele>899.8</ele>
        <time>2022-05-22 18:10:21</time>
      </trkpt>
      <trkpt lat="42.56179" lon="1.14626">
        <ele>899.8</ele>
        <time>2022-05-22 18:10:22</time>
      </trkpt>
      <trkpt lat="42.5618" lon="1.14626">
        <ele>900</ele>
        <time>2022-05-22 18:10:23</time>
      </trkpt>
      <trkpt lat="42.56182" lon="1.14626">
        <ele>900.2</ele>
        <time>2022-05-22 18:10:24</time>
      </trkpt>
      <trkpt lat="42.56183" lon="1.14626">
        <ele>900.4</ele>
        <time>2022-05-22 18:10:25</time>
      </trkpt>
      <trkpt lat="42.56186" lon="1.14626">
        <ele>900.6</ele>
        <time>2022-05-22 18:10:26</time>
      </trkpt>
      <trkpt lat="42.56188" lon="1.14625">
        <ele>900.6</ele>
        <time>2022-05-22 18:10:27</time>
      </trkpt>
      <trkpt lat="42.5619" lon="1.14625">
        <ele>900.8</ele>
        <time>2022-05-22 18:10:28</time>
      </trkpt>
      <trkpt lat="42.56191" lon="1.14625">
        <ele>901</ele>
        <time>2022-05-22 18:10:29</time>
      </trkpt>
      <trkpt lat="42.56193" lon="1.14625">
        <ele>901.2</ele>
        <time>2022-05-22 18:10:30</time>
      </trkpt>
      <trkpt lat="42.56195" lon="1.14625">
        <ele>901.2</ele>
        <time>2022-05-22 18:10:31</time>
      </trkpt>
      <trkpt lat="42.56197" lon="1.14624">
        <ele>901.4</ele>
        <time>2022-05-22 18:10:32</time>
      </trkpt>
      <trkpt lat="42.56199" lon="1.14624">
        <ele>901.6</ele>
        <time>2022-05-22 18:10:33</time>
      </trkpt>
      <trkpt lat="42.562" lon="1.14624">
        <ele>901.6</ele>
        <time>2022-05-22 18:10:34</time>
      </trkpt>
      <trkpt lat="42.56202" lon="1.14623">
        <ele>901.8</ele>
        <time>2022-05-22 18:10:35</time>
      </trkpt>
      <trkpt lat="42.56204" lon="1.14623">
        <ele>902</ele>
        <time>2022-05-22 18:10:36</time>
      </trkpt>
      <trkpt lat="42.56206" lon="1.14622">
        <ele>902.2</ele>
        <time>2022-05-22 18:10:37</time>
      </trkpt>
      <trkpt lat="42.56208" lon="1.14622">
        <ele>902.4</ele>
        <time>2022-05-22 18:10:38</time>
      </trkpt>
      <trkpt lat="42.5621" lon="1.14622">
        <ele>902.4</ele>
        <time>2022-05-22 18:10:39</time>
      </trkpt>
      <trkpt lat="42.56211" lon="1.14621">
        <ele>902.6</ele>
        <time>2022-05-22 18:10:40</time>
      </trkpt>
      <trkpt lat="42.56214" lon="1.14621">
        <ele>902.8</ele>
        <time>2022-05-22 18:10:41</time>
      </trkpt>
      <trkpt lat="42.56215" lon="1.14621">
        <ele>902.8</ele>
        <time>2022-05-22 18:10:42</time>
      </trkpt>
      <trkpt lat="42.56217" lon="1.14621">
        <ele>903</ele>
        <time>2022-05-22 18:10:43</time>
      </trkpt>
      <trkpt lat="42.56219" lon="1.14621">
        <ele>903.2</ele>
        <time>2022-05-22 18:10:44</time>
      </trkpt>
      <trkpt lat="42.5622" lon="1.14621">
        <ele>903.2</ele>
        <time>2022-05-22 18:10:45</time>
      </trkpt>
      <trkpt lat="42.56222" lon="1.14621">
        <ele>903.4</ele>
        <time>2022-05-22 18:10:46</time>
      </trkpt>
      <trkpt lat="42.56224" lon="1.14621">
        <ele>903.6</ele>
        <time>2022-05-22 18:10:47</time>
      </trkpt>
      <trkpt lat="42.56226" lon="1.14621">
        <ele>903.8</ele>
        <time>2022-05-22 18:10:48</time>
      </trkpt>
      <trkpt lat="42.56228" lon="1.1462">
        <ele>903.8</ele>
        <time>2022-05-22 18:10:49</time>
      </trkpt>
      <trkpt lat="42.56229" lon="1.1462">
        <ele>904</ele>
        <time>2022-05-22 18:10:50</time>
      </trkpt>
      <trkpt lat="42.56231" lon="1.1462">
        <ele>904.2</ele>
        <time>2022-05-22 18:10:51</time>
      </trkpt>
      <trkpt lat="42.56233" lon="1.1462">
        <ele>904.4</ele>
        <time>2022-05-22 18:10:52</time>
      </trkpt>
      <trkpt lat="42.56235" lon="1.14619">
        <ele>904.6</ele>
        <time>2022-05-22 18:10:53</time>
      </trkpt>
      <trkpt lat="42.56237" lon="1.14619">
        <ele>904.6</ele>
        <time>2022-05-22 18:10:54</time>
      </trkpt>
      <trkpt lat="42.56239" lon="1.14619">
        <ele>904.8</ele>
        <time>2022-05-22 18:10:55</time>
      </trkpt>
      <trkpt lat="42.56241" lon="1.14619">
        <ele>905</ele>
        <time>2022-05-22 18:10:56</time>
      </trkpt>
      <trkpt lat="42.56242" lon="1.14618">
        <ele>905.2</ele>
        <time>2022-05-22 18:10:57</time>
      </trkpt>
      <trkpt lat="42.56244" lon="1.14618">
        <ele>905.4</ele>
        <time>2022-05-22 18:10:58</time>
      </trkpt>
      <trkpt lat="42.56246" lon="1.14618">
        <ele>905.4</ele>
        <time>2022-05-22 18:10:59</time>
      </trkpt>
      <trkpt lat="42.56247" lon="1.14617">
        <ele>905.6</ele>
        <time>2022-05-22 18:11:00</time>
      </trkpt>
      <trkpt lat="42.56249" lon="1.14617">
        <ele>905.8</ele>
        <time>2022-05-22 18:11:01</time>
      </trkpt>
      <trkpt lat="42.56251" lon="1.14617">
        <ele>906</ele>
        <time>2022-05-22 18:11:02</time>
      </trkpt>
      <trkpt lat="42.56252" lon="1.14616">
        <ele>906</ele>
        <time>2022-05-22 18:11:03</time>
      </trkpt>
      <trkpt lat="42.56254" lon="1.14616">
        <ele>906.2</ele>
        <time>2022-05-22 18:11:04</time>
      </trkpt>
      <trkpt lat="42.56255" lon="1.14615">
        <ele>906.4</ele>
        <time>2022-05-22 18:11:05</time>
      </trkpt>
      <trkpt lat="42.56257" lon="1.14615">
        <ele>906.4</ele>
        <time>2022-05-22 18:11:06</time>
      </trkpt>
      <trkpt lat="42.56258" lon="1.14614">
        <ele>906.6</ele>
        <time>2022-05-22 18:11:07</time>
      </trkpt>
      <trkpt lat="42.5626" lon="1.14614">
        <ele>906.8</ele>
        <time>2022-05-22 18:11:08</time>
      </trkpt>
      <trkpt lat="42.56262" lon="1.14614">
        <ele>906.8</ele>
        <time>2022-05-22 18:11:09</time>
      </trkpt>
      <trkpt lat="42.56264" lon="1.14614">
        <ele>907</ele>
        <time>2022-05-22 18:11:10</time>
      </trkpt>
      <trkpt lat="42.56266" lon="1.14614">
        <ele>907</ele>
        <time>2022-05-22 18:11:11</time>
      </trkpt>
      <trkpt lat="42.56268" lon="1.14614">
        <ele>907.2</ele>
        <time>2022-05-22 18:11:12</time>
      </trkpt>
      <trkpt lat="42.5627" lon="1.14614">
        <ele>907.4</ele>
        <time>2022-05-22 18:11:13</time>
      </trkpt>
      <trkpt lat="42.56272" lon="1.14613">
        <ele>907.6</ele>
        <time>2022-05-22 18:11:14</time>
      </trkpt>
      <trkpt lat="42.56274" lon="1.14613">
        <ele>907.6</ele>
        <time>2022-05-22 18:11:15</time>
      </trkpt>
      <trkpt lat="42.56276" lon="1.14613">
        <ele>907.8</ele>
        <time>2022-05-22 18:11:16</time>
      </trkpt>
      <trkpt lat="42.56278" lon="1.14612">
        <ele>907.8</ele>
        <time>2022-05-22 18:11:17</time>
      </trkpt>
      <trkpt lat="42.5628" lon="1.14612">
        <ele>908</ele>
        <time>2022-05-22 18:11:18</time>
      </trkpt>
      <trkpt lat="42.56283" lon="1.14612">
        <ele>908.2</ele>
        <time>2022-05-22 18:11:19</time>
      </trkpt>
      <trkpt lat="42.56285" lon="1.14612">
        <ele>908.2</ele>
        <time>2022-05-22 18:11:20</time>
      </trkpt>
      <trkpt lat="42.56287" lon="1.14612">
        <ele>908.4</ele>
        <time>2022-05-22 18:11:21</time>
      </trkpt>
      <trkpt lat="42.5629" lon="1.14612">
        <ele>908.6</ele>
        <time>2022-05-22 18:11:22</time>
      </trkpt>
      <trkpt lat="42.56293" lon="1.14611">
        <ele>908.8</ele>
        <time>2022-05-22 18:11:23</time>
      </trkpt>
      <trkpt lat="42.56295" lon="1.14611">
        <ele>908.8</ele>
        <time>2022-05-22 18:11:24</time>
      </trkpt>
      <trkpt lat="42.56298" lon="1.14611">
        <ele>909</ele>
        <time>2022-05-22 18:11:25</time>
      </trkpt>
      <trkpt lat="42.563" lon="1.14611">
        <ele>909.2</ele>
        <time>2022-05-22 18:11:26</time>
      </trkpt>
      <trkpt lat="42.56304" lon="1.14611">
        <ele>909.2</ele>
        <time>2022-05-22 18:11:27</time>
      </trkpt>
      <trkpt lat="42.56306" lon="1.14611">
        <ele>909.4</ele>
        <time>2022-05-22 18:11:28</time>
      </trkpt>
      <trkpt lat="42.56308" lon="1.1461">
        <ele>909.6</ele>
        <time>2022-05-22 18:11:29</time>
      </trkpt>
      <trkpt lat="42.56309" lon="1.1461">
        <ele>909.8</ele>
        <time>2022-05-22 18:11:30</time>
      </trkpt>
      <trkpt lat="42.56313" lon="1.1461">
        <ele>910</ele>
        <time>2022-05-22 18:11:31</time>
      </trkpt>
      <trkpt lat="42.56314" lon="1.14609">
        <ele>910</ele>
        <time>2022-05-22 18:11:32</time>
      </trkpt>
      <trkpt lat="42.56316" lon="1.14609">
        <ele>910.2</ele>
        <time>2022-05-22 18:11:33</time>
      </trkpt>
      <trkpt lat="42.56318" lon="1.14609">
        <ele>910.4</ele>
        <time>2022-05-22 18:11:34</time>
      </trkpt>
      <trkpt lat="42.56319" lon="1.14609">
        <ele>910.4</ele>
        <time>2022-05-22 18:11:35</time>
      </trkpt>
      <trkpt lat="42.56322" lon="1.14609">
        <ele>910.6</ele>
        <time>2022-05-22 18:11:36</time>
      </trkpt>
      <trkpt lat="42.56324" lon="1.14608">
        <ele>910.8</ele>
        <time>2022-05-22 18:11:37</time>
      </trkpt>
      <trkpt lat="42.56326" lon="1.14608">
        <ele>910.8</ele>
        <time>2022-05-22 18:11:38</time>
      </trkpt>
      <trkpt lat="42.56328" lon="1.14608">
        <ele>911</ele>
        <time>2022-05-22 18:11:39</time>
      </trkpt>
      <trkpt lat="42.5633" lon="1.14607">
        <ele>911</ele>
        <time>2022-05-22 18:11:40</time>
      </trkpt>
      <trkpt lat="42.56332" lon="1.14607">
        <ele>911.2</ele>
        <time>2022-05-22 18:11:41</time>
      </trkpt>
      <trkpt lat="42.56334" lon="1.14607">
        <ele>911.2</ele>
        <time>2022-05-22 18:11:42</time>
      </trkpt>
      <trkpt lat="42.56336" lon="1.14606">
        <ele>911.4</ele>
        <time>2022-05-22 18:11:43</time>
      </trkpt>
      <trkpt lat="42.56338" lon="1.14606">
        <ele>911.4</ele>
        <time>2022-05-22 18:11:44</time>
      </trkpt>
      <trkpt lat="42.56339" lon="1.14606">
        <ele>911.4</ele>
        <time>2022-05-22 18:11:45</time>
      </trkpt>
      <trkpt lat="42.56342" lon="1.14605">
        <ele>911.6</ele>
        <time>2022-05-22 18:11:46</time>
      </trkpt>
      <trkpt lat="42.56343" lon="1.14605">
        <ele>911.8</ele>
        <time>2022-05-22 18:11:47</time>
      </trkpt>
      <trkpt lat="42.56345" lon="1.14604">
        <ele>911.8</ele>
        <time>2022-05-22 18:11:48</time>
      </trkpt>
      <trkpt lat="42.56347" lon="1.14604">
        <ele>912</ele>
        <time>2022-05-22 18:11:49</time>
      </trkpt>
      <trkpt lat="42.56349" lon="1.14604">
        <ele>912.2</ele>
        <time>2022-05-22 18:11:50</time>
      </trkpt>
      <trkpt lat="42.56351" lon="1.14603">
        <ele>912.2</ele>
        <time>2022-05-22 18:11:51</time>
      </trkpt>
      <trkpt lat="42.56353" lon="1.14602">
        <ele>912.4</ele>
        <time>2022-05-22 18:11:52</time>
      </trkpt>
      <trkpt lat="42.56355" lon="1.14602">
        <ele>912.4</ele>
        <time>2022-05-22 18:11:53</time>
      </trkpt>
      <trkpt lat="42.56356" lon="1.14602">
        <ele>912.6</ele>
        <time>2022-05-22 18:11:54</time>
      </trkpt>
      <trkpt lat="42.56358" lon="1.14601">
        <ele>912.6</ele>
        <time>2022-05-22 18:11:55</time>
      </trkpt>
      <trkpt lat="42.5636" lon="1.14601">
        <ele>912.8</ele>
        <time>2022-05-22 18:11:56</time>
      </trkpt>
      <trkpt lat="42.56363" lon="1.14601">
        <ele>912.8</ele>
        <time>2022-05-22 18:11:57</time>
      </trkpt>
      <trkpt lat="42.56365" lon="1.146">
        <ele>913</ele>
        <time>2022-05-22 18:11:58</time>
      </trkpt>
      <trkpt lat="42.56367" lon="1.146">
        <ele>913</ele>
        <time>2022-05-22 18:11:59</time>
      </trkpt>
      <trkpt lat="42.56368" lon="1.146">
        <ele>913.2</ele>
        <time>2022-05-22 18:12:00</time>
      </trkpt>
      <trkpt lat="42.56371" lon="1.146">
        <ele>913.2</ele>
        <time>2022-05-22 18:12:01</time>
      </trkpt>
      <trkpt lat="42.56373" lon="1.146">
        <ele>913.4</ele>
        <time>2022-05-22 18:12:02</time>
      </trkpt>
      <trkpt lat="42.56374" lon="1.14599">
        <ele>913.4</ele>
        <time>2022-05-22 18:12:03</time>
      </trkpt>
      <trkpt lat="42.56377" lon="1.14599">
        <ele>913.6</ele>
        <time>2022-05-22 18:12:04</time>
      </trkpt>
      <trkpt lat="42.56379" lon="1.14599">
        <ele>913.6</ele>
        <time>2022-05-22 18:12:05</time>
      </trkpt>
      <trkpt lat="42.56382" lon="1.14599">
        <ele>913.8</ele>
        <time>2022-05-22 18:12:06</time>
      </trkpt>
      <trkpt lat="42.56384" lon="1.14599">
        <ele>913.8</ele>
        <time>2022-05-22 18:12:07</time>
      </trkpt>
      <trkpt lat="42.56386" lon="1.14598">
        <ele>914</ele>
        <time>2022-05-22 18:12:08</time>
      </trkpt>
      <trkpt lat="42.56388" lon="1.14598">
        <ele>914</ele>
        <time>2022-05-22 18:12:09</time>
      </trkpt>
      <trkpt lat="42.56391" lon="1.14598">
        <ele>914.2</ele>
        <time>2022-05-22 18:12:10</time>
      </trkpt>
      <trkpt lat="42.56393" lon="1.14598">
        <ele>914.2</ele>
        <time>2022-05-22 18:12:11</time>
      </trkpt>
      <trkpt lat="42.56396" lon="1.14598">
        <ele>914.4</ele>
        <time>2022-05-22 18:12:12</time>
      </trkpt>
      <trkpt lat="42.56398" lon="1.14598">
        <ele>914.4</ele>
        <time>2022-05-22 18:12:13</time>
      </trkpt>
      <trkpt lat="42.56399" lon="1.14598">
        <ele>914.6</ele>
        <time>2022-05-22 18:12:14</time>
      </trkpt>
      <trkpt lat="42.56402" lon="1.14598">
        <ele>914.6</ele>
        <time>2022-05-22 18:12:15</time>
      </trkpt>
      <trkpt lat="42.56405" lon="1.14598">
        <ele>914.8</ele>
        <time>2022-05-22 18:12:16</time>
      </trkpt>
      <trkpt lat="42.56407" lon="1.14598">
        <ele>914.8</ele>
        <time>2022-05-22 18:12:17</time>
      </trkpt>
      <trkpt lat="42.56408" lon="1.14598">
        <ele>915</ele>
        <time>2022-05-22 18:12:18</time>
      </trkpt>
      <trkpt lat="42.56411" lon="1.14598">
        <ele>915</ele>
        <time>2022-05-22 18:12:19</time>
      </trkpt>
      <trkpt lat="42.56414" lon="1.14599">
        <ele>915.2</ele>
        <time>2022-05-22 18:12:20</time>
      </trkpt>
      <trkpt lat="42.56416" lon="1.14599">
        <ele>915.2</ele>
        <time>2022-05-22 18:12:21</time>
      </trkpt>
      <trkpt lat="42.56417" lon="1.14599">
        <ele>915.4</ele>
        <time>2022-05-22 18:12:22</time>
      </trkpt>
      <trkpt lat="42.56421" lon="1.14599">
        <ele>915.4</ele>
        <time>2022-05-22 18:12:23</time>
      </trkpt>
      <trkpt lat="42.56423" lon="1.14599">
        <ele>915.6</ele>
        <time>2022-05-22 18:12:24</time>
      </trkpt>
      <trkpt lat="42.56425" lon="1.14599">
        <ele>915.6</ele>
        <time>2022-05-22 18:12:25</time>
      </trkpt>
      <trkpt lat="42.56427" lon="1.14599">
        <ele>915.8</ele>
        <time>2022-05-22 18:12:26</time>
      </trkpt>
      <trkpt lat="42.56431" lon="1.14599">
        <ele>915.8</ele>
        <time>2022-05-22 18:12:27</time>
      </trkpt>
      <trkpt lat="42.56433" lon="1.14599">
        <ele>916</ele>
        <time>2022-05-22 18:12:28</time>
      </trkpt>
      <trkpt lat="42.56435" lon="1.14599">
        <ele>916</ele>
        <time>2022-05-22 18:12:29</time>
      </trkpt>
      <trkpt lat="42.56436" lon="1.14599">
        <ele>916.2</ele>
        <time>2022-05-22 18:12:30</time>
      </trkpt>
      <trkpt lat="42.5644" lon="1.14599">
        <ele>916.2</ele>
        <time>2022-05-22 18:12:31</time>
      </trkpt>
      <trkpt lat="42.56442" lon="1.14599">
        <ele>916.4</ele>
        <time>2022-05-22 18:12:32</time>
      </trkpt>
      <trkpt lat="42.56444" lon="1.14599">
        <ele>916.4</ele>
        <time>2022-05-22 18:12:33</time>
      </trkpt>
      <trkpt lat="42.56446" lon="1.146">
        <ele>916.4</ele>
        <time>2022-05-22 18:12:34</time>
      </trkpt>
      <trkpt lat="42.5645" lon="1.146">
        <ele>916.6</ele>
        <time>2022-05-22 18:12:35</time>
      </trkpt>
      <trkpt lat="42.56452" lon="1.146">
        <ele>916.8</ele>
        <time>2022-05-22 18:12:36</time>
      </trkpt>
      <trkpt lat="42.56454" lon="1.14601">
        <ele>916.8</ele>
        <time>2022-05-22 18:12:37</time>
      </trkpt>
      <trkpt lat="42.56456" lon="1.14601">
        <ele>917</ele>
        <time>2022-05-22 18:12:38</time>
      </trkpt>
      <trkpt lat="42.5646" lon="1.14601">
        <ele>917</ele>
        <time>2022-05-22 18:12:39</time>
      </trkpt>
      <trkpt lat="42.56462" lon="1.14601">
        <ele>917.2</ele>
        <time>2022-05-22 18:12:40</time>
      </trkpt>
      <trkpt lat="42.56464" lon="1.14601">
        <ele>917.2</ele>
        <time>2022-05-22 18:12:41</time>
      </trkpt>
      <trkpt lat="42.56465" lon="1.14601">
        <ele>917.4</ele>
        <time>2022-05-22 18:12:42</time>
      </trkpt>
      <trkpt lat="42.56469" lon="1.14601">
        <ele>917.4</ele>
        <time>2022-05-22 18:12:43</time>
      </trkpt>
      <trkpt lat="42.56472" lon="1.14601">
        <ele>917.6</ele>
        <time>2022-05-22 18:12:44</time>
      </trkpt>
      <trkpt lat="42.56474" lon="1.14601">
        <ele>917.6</ele>
        <time>2022-05-22 18:12:45</time>
      </trkpt>
      <trkpt lat="42.56475" lon="1.14601">
        <ele>917.6</ele>
        <time>2022-05-22 18:12:46</time>
      </trkpt>
      <trkpt lat="42.5648" lon="1.14601">
        <ele>917.8</ele>
        <time>2022-05-22 18:12:47</time>
      </trkpt>
      <trkpt lat="42.56483" lon="1.14601">
        <ele>918</ele>
        <time>2022-05-22 18:12:48</time>
      </trkpt>
      <trkpt lat="42.56485" lon="1.146">
        <ele>918</ele>
        <time>2022-05-22 18:12:49</time>
      </trkpt>
      <trkpt lat="42.56486" lon="1.146">
        <ele>918.2</ele>
        <time>2022-05-22 18:12:50</time>
      </trkpt>
      <trkpt lat="42.56491" lon="1.14599">
        <ele>918.2</ele>
        <time>2022-05-22 18:12:51</time>
      </trkpt>
      <trkpt lat="42.56493" lon="1.14599">
        <ele>918.4</ele>
        <time>2022-05-22 18:12:52</time>
      </trkpt>
      <trkpt lat="42.56495" lon="1.14599">
        <ele>918.4</ele>
        <time>2022-05-22 18:12:53</time>
      </trkpt>
      <trkpt lat="42.56497" lon="1.14599">
        <ele>918.4</ele>
        <time>2022-05-22 18:12:54</time>
      </trkpt>
      <trkpt lat="42.56501" lon="1.14598">
        <ele>918.6</ele>
        <time>2022-05-22 18:12:55</time>
      </trkpt>
      <trkpt lat="42.56503" lon="1.14597">
        <ele>918.6</ele>
        <time>2022-05-22 18:12:56</time>
      </trkpt>
      <trkpt lat="42.56506" lon="1.14597">
        <ele>918.8</ele>
        <time>2022-05-22 18:12:57</time>
      </trkpt>
      <trkpt lat="42.56509" lon="1.14596">
        <ele>918.8</ele>
        <time>2022-05-22 18:12:58</time>
      </trkpt>
      <trkpt lat="42.56511" lon="1.14595">
        <ele>919</ele>
        <time>2022-05-22 18:12:59</time>
      </trkpt>
      <trkpt lat="42.56514" lon="1.14595">
        <ele>919</ele>
        <time>2022-05-22 18:13:00</time>
      </trkpt>
      <trkpt lat="42.56517" lon="1.14594">
        <ele>919</ele>
        <time>2022-05-22 18:13:01</time>
      </trkpt>
      <trkpt lat="42.56519" lon="1.14592">
        <ele>919</ele>
        <time>2022-05-22 18:13:02</time>
      </trkpt>
      <trkpt lat="42.56522" lon="1.14591">
        <ele>919</ele>
        <time>2022-05-22 18:13:03</time>
      </trkpt>
      <trkpt lat="42.56525" lon="1.14589">
        <ele>919.2</ele>
        <time>2022-05-22 18:13:04</time>
      </trkpt>
      <trkpt lat="42.56527" lon="1.14588">
        <ele>919.2</ele>
        <time>2022-05-22 18:13:05</time>
      </trkpt>
      <trkpt lat="42.5653" lon="1.14587">
        <ele>919.4</ele>
        <time>2022-05-22 18:13:06</time>
      </trkpt>
      <trkpt lat="42.56532" lon="1.14585">
        <ele>919.4</ele>
        <time>2022-05-22 18:13:07</time>
      </trkpt>
      <trkpt lat="42.56535" lon="1.14584">
        <ele>919.4</ele>
        <time>2022-05-22 18:13:08</time>
      </trkpt>
      <trkpt lat="42.56537" lon="1.14582">
        <ele>919.6</ele>
        <time>2022-05-22 18:13:09</time>
      </trkpt>
      <trkpt lat="42.5654" lon="1.1458">
        <ele>919.6</ele>
        <time>2022-05-22 18:13:10</time>
      </trkpt>
      <trkpt lat="42.56543" lon="1.14578">
        <ele>919.8</ele>
        <time>2022-05-22 18:13:11</time>
      </trkpt>
      <trkpt lat="42.56545" lon="1.14576">
        <ele>919.8</ele>
        <time>2022-05-22 18:13:12</time>
      </trkpt>
      <trkpt lat="42.56547" lon="1.14574">
        <ele>919.8</ele>
        <time>2022-05-22 18:13:13</time>
      </trkpt>
      <trkpt lat="42.5655" lon="1.14572">
        <ele>920</ele>
        <time>2022-05-22 18:13:14</time>
      </trkpt>
      <trkpt lat="42.56552" lon="1.1457">
        <ele>920</ele>
        <time>2022-05-22 18:13:15</time>
      </trkpt>
      <trkpt lat="42.56554" lon="1.14568">
        <ele>920</ele>
        <time>2022-05-22 18:13:16</time>
      </trkpt>
      <trkpt lat="42.56556" lon="1.14566">
        <ele>920.2</ele>
        <time>2022-05-22 18:13:17</time>
      </trkpt>
      <trkpt lat="42.56559" lon="1.14563">
        <ele>920.2</ele>
        <time>2022-05-22 18:13:18</time>
      </trkpt>
      <trkpt lat="42.56561" lon="1.14561">
        <ele>920.2</ele>
        <time>2022-05-22 18:13:19</time>
      </trkpt>
      <trkpt lat="42.56564" lon="1.14558">
        <ele>920.2</ele>
        <time>2022-05-22 18:13:20</time>
      </trkpt>
      <trkpt lat="42.56566" lon="1.14556">
        <ele>920.4</ele>
        <time>2022-05-22 18:13:21</time>
      </trkpt>
      <trkpt lat="42.56568" lon="1.14553">
        <ele>920.4</ele>
        <time>2022-05-22 18:13:22</time>
      </trkpt>
      <trkpt lat="42.56571" lon="1.1455">
        <ele>920.4</ele>
        <time>2022-05-22 18:13:23</time>
      </trkpt>
      <trkpt lat="42.56574" lon="1.14548">
        <ele>920.6</ele>
        <time>2022-05-22 18:13:24</time>
      </trkpt>
      <trkpt lat="42.56576" lon="1.14545">
        <ele>920.6</ele>
        <time>2022-05-22 18:13:25</time>
      </trkpt>
      <trkpt lat="42.56578" lon="1.14543">
        <ele>920.6</ele>
        <time>2022-05-22 18:13:26</time>
      </trkpt>
      <trkpt lat="42.56581" lon="1.1454">
        <ele>920.6</ele>
        <time>2022-05-22 18:13:27</time>
      </trkpt>
      <trkpt lat="42.56583" lon="1.14537">
        <ele>920.8</ele>
        <time>2022-05-22 18:13:28</time>
      </trkpt>
      <trkpt lat="42.56585" lon="1.14534">
        <ele>920.8</ele>
        <time>2022-05-22 18:13:29</time>
      </trkpt>
      <trkpt lat="42.56588" lon="1.14532">
        <ele>920.8</ele>
        <time>2022-05-22 18:13:30</time>
      </trkpt>
      <trkpt lat="42.5659" lon="1.14529">
        <ele>921</ele>
        <time>2022-05-22 18:13:31</time>
      </trkpt>
      <trkpt lat="42.56592" lon="1.14526">
        <ele>921</ele>
        <time>2022-05-22 18:13:32</time>
      </trkpt>
      <trkpt lat="42.56594" lon="1.14523">
        <ele>921</ele>
        <time>2022-05-22 18:13:33</time>
      </trkpt>
      <trkpt lat="42.56597" lon="1.14521">
        <ele>921</ele>
        <time>2022-05-22 18:13:34</time>
      </trkpt>
      <trkpt lat="42.56599" lon="1.14518">
        <ele>921.2</ele>
        <time>2022-05-22 18:13:35</time>
      </trkpt>
      <trkpt lat="42.56602" lon="1.14516">
        <ele>921.2</ele>
        <time>2022-05-22 18:13:36</time>
      </trkpt>
      <trkpt lat="42.56605" lon="1.14514">
        <ele>921.2</ele>
        <time>2022-05-22 18:13:37</time>
      </trkpt>
      <trkpt lat="42.56608" lon="1.14512">
        <ele>921.4</ele>
        <time>2022-05-22 18:13:38</time>
      </trkpt>
      <trkpt lat="42.56611" lon="1.1451">
        <ele>921.4</ele>
        <time>2022-05-22 18:13:39</time>
      </trkpt>
      <trkpt lat="42.56613" lon="1.14508">
        <ele>921.4</ele>
        <time>2022-05-22 18:13:40</time>
      </trkpt>
      <trkpt lat="42.56616" lon="1.14506">
        <ele>921.6</ele>
        <time>2022-05-22 18:13:41</time>
      </trkpt>
      <trkpt lat="42.56619" lon="1.14505">
        <ele>921.6</ele>
        <time>2022-05-22 18:13:42</time>
      </trkpt>
      <trkpt lat="42.56621" lon="1.14503">
        <ele>921.8</ele>
        <time>2022-05-22 18:13:43</time>
      </trkpt>
      <trkpt lat="42.56624" lon="1.14501">
        <ele>922</ele>
        <time>2022-05-22 18:13:44</time>
      </trkpt>
      <trkpt lat="42.56627" lon="1.14499">
        <ele>922</ele>
        <time>2022-05-22 18:13:45</time>
      </trkpt>
      <trkpt lat="42.5663" lon="1.14497">
        <ele>922</ele>
        <time>2022-05-22 18:13:46</time>
      </trkpt>
      <trkpt lat="42.56633" lon="1.14495">
        <ele>922.2</ele>
        <time>2022-05-22 18:13:47</time>
      </trkpt>
      <trkpt lat="42.56636" lon="1.14493">
        <ele>922.2</ele>
        <time>2022-05-22 18:13:48</time>
      </trkpt>
      <trkpt lat="42.56639" lon="1.14491">
        <ele>922.4</ele>
        <time>2022-05-22 18:13:49</time>
      </trkpt>
      <trkpt lat="42.56642" lon="1.14489">
        <ele>922.4</ele>
        <time>2022-05-22 18:13:50</time>
      </trkpt>
      <trkpt lat="42.56645" lon="1.14487">
        <ele>922.6</ele>
        <time>2022-05-22 18:13:51</time>
      </trkpt>
      <trkpt lat="42.56648" lon="1.14485">
        <ele>922.6</ele>
        <time>2022-05-22 18:13:52</time>
      </trkpt>
      <trkpt lat="42.5665" lon="1.14483">
        <ele>922.6</ele>
        <time>2022-05-22 18:13:53</time>
      </trkpt>
      <trkpt lat="42.56652" lon="1.1448">
        <ele>922.8</ele>
        <time>2022-05-22 18:13:54</time>
      </trkpt>
      <trkpt lat="42.56654" lon="1.14477">
        <ele>922.8</ele>
        <time>2022-05-22 18:13:55</time>
      </trkpt>
      <trkpt lat="42.56657" lon="1.14474">
        <ele>923</ele>
        <time>2022-05-22 18:13:56</time>
      </trkpt>
      <trkpt lat="42.56659" lon="1.14471">
        <ele>923</ele>
        <time>2022-05-22 18:13:57</time>
      </trkpt>
      <trkpt lat="42.56661" lon="1.14468">
        <ele>923</ele>
        <time>2022-05-22 18:13:58</time>
      </trkpt>
      <trkpt lat="42.56663" lon="1.14465">
        <ele>923.2</ele>
        <time>2022-05-22 18:13:59</time>
      </trkpt>
      <trkpt lat="42.56666" lon="1.14463">
        <ele>923.2</ele>
        <time>2022-05-22 18:14:00</time>
      </trkpt>
      <trkpt lat="42.56669" lon="1.1446">
        <ele>923.4</ele>
        <time>2022-05-22 18:14:01</time>
      </trkpt>
      <trkpt lat="42.56671" lon="1.14457">
        <ele>923.4</ele>
        <time>2022-05-22 18:14:02</time>
      </trkpt>
      <trkpt lat="42.56674" lon="1.14454">
        <ele>923.4</ele>
        <time>2022-05-22 18:14:03</time>
      </trkpt>
      <trkpt lat="42.56677" lon="1.14451">
        <ele>923.6</ele>
        <time>2022-05-22 18:14:04</time>
      </trkpt>
      <trkpt lat="42.56679" lon="1.14448">
        <ele>923.6</ele>
        <time>2022-05-22 18:14:05</time>
      </trkpt>
      <trkpt lat="42.56681" lon="1.14444">
        <ele>923.6</ele>
        <time>2022-05-22 18:14:06</time>
      </trkpt>
      <trkpt lat="42.56683" lon="1.14441">
        <ele>923.8</ele>
        <time>2022-05-22 18:14:07</time>
      </trkpt>
      <trkpt lat="42.56685" lon="1.14438">
        <ele>923.8</ele>
        <time>2022-05-22 18:14:08</time>
      </trkpt>
      <trkpt lat="42.56686" lon="1.14436">
        <ele>923.8</ele>
        <time>2022-05-22 18:14:09</time>
      </trkpt>
      <trkpt lat="42.56689" lon="1.1443">
        <ele>923.8</ele>
        <time>2022-05-22 18:14:10</time>
      </trkpt>
      <trkpt lat="42.5669" lon="1.14427">
        <ele>923.8</ele>
        <time>2022-05-22 18:14:11</time>
      </trkpt>
      <trkpt lat="42.56692" lon="1.14422">
        <ele>923.8</ele>
        <time>2022-05-22 18:14:12</time>
      </trkpt>
      <trkpt lat="42.56693" lon="1.14418">
        <ele>923.8</ele>
        <time>2022-05-22 18:14:13</time>
      </trkpt>
      <trkpt lat="42.56695" lon="1.14413">
        <ele>924</ele>
        <time>2022-05-22 18:14:14</time>
      </trkpt>
      <trkpt lat="42.56697" lon="1.14409">
        <ele>924</ele>
        <time>2022-05-22 18:14:15</time>
      </trkpt>
      <trkpt lat="42.56699" lon="1.14404">
        <ele>924</ele>
        <time>2022-05-22 18:14:16</time>
      </trkpt>
      <trkpt lat="42.567" lon="1.14399">
        <ele>924</ele>
        <time>2022-05-22 18:14:17</time>
      </trkpt>
      <trkpt lat="42.56701" lon="1.14393">
        <ele>924.2</ele>
        <time>2022-05-22 18:14:18</time>
      </trkpt>
      <trkpt lat="42.56702" lon="1.14388">
        <ele>924.2</ele>
        <time>2022-05-22 18:14:19</time>
      </trkpt>
      <trkpt lat="42.56703" lon="1.14384">
        <ele>924.2</ele>
        <time>2022-05-22 18:14:20</time>
      </trkpt>
      <trkpt lat="42.56705" lon="1.14377">
        <ele>924.2</ele>
        <time>2022-05-22 18:14:21</time>
      </trkpt>
      <trkpt lat="42.56707" lon="1.14373">
        <ele>924.2</ele>
        <time>2022-05-22 18:14:22</time>
      </trkpt>
      <trkpt lat="42.56708" lon="1.14369">
        <ele>924</ele>
        <time>2022-05-22 18:14:23</time>
      </trkpt>
      <trkpt lat="42.56711" lon="1.14363">
        <ele>924</ele>
        <time>2022-05-22 18:14:24</time>
      </trkpt>
      <trkpt lat="42.56713" lon="1.14358">
        <ele>924</ele>
        <time>2022-05-22 18:14:25</time>
      </trkpt>
      <trkpt lat="42.56716" lon="1.14353">
        <ele>923.8</ele>
        <time>2022-05-22 18:14:26</time>
      </trkpt>
      <trkpt lat="42.56718" lon="1.14349">
        <ele>923.8</ele>
        <time>2022-05-22 18:14:27</time>
      </trkpt>
      <trkpt lat="42.56721" lon="1.14343">
        <ele>923.8</ele>
        <time>2022-05-22 18:14:28</time>
      </trkpt>
      <trkpt lat="42.56723" lon="1.14338">
        <ele>923.8</ele>
        <time>2022-05-22 18:14:29</time>
      </trkpt>
      <trkpt lat="42.56726" lon="1.14333">
        <ele>923.6</ele>
        <time>2022-05-22 18:14:30</time>
      </trkpt>
      <trkpt lat="42.5673" lon="1.14328">
        <ele>923.6</ele>
        <time>2022-05-22 18:14:31</time>
      </trkpt>
      <trkpt lat="42.56734" lon="1.14324">
        <ele>923.6</ele>
        <time>2022-05-22 18:14:32</time>
      </trkpt>
      <trkpt lat="42.56738" lon="1.14319">
        <ele>923.6</ele>
        <time>2022-05-22 18:14:33</time>
      </trkpt>
      <trkpt lat="42.56743" lon="1.14315">
        <ele>923.6</ele>
        <time>2022-05-22 18:14:34</time>
      </trkpt>
      <trkpt lat="42.56747" lon="1.1431">
        <ele>923.6</ele>
        <time>2022-05-22 18:14:35</time>
      </trkpt>
      <trkpt lat="42.56751" lon="1.14306">
        <ele>923.6</ele>
        <time>2022-05-22 18:14:36</time>
      </trkpt>
      <trkpt lat="42.56756" lon="1.14302">
        <ele>923.8</ele>
        <time>2022-05-22 18:14:37</time>
      </trkpt>
      <trkpt lat="42.5676" lon="1.14298">
        <ele>923.8</ele>
        <time>2022-05-22 18:14:38</time>
      </trkpt>
      <trkpt lat="42.56764" lon="1.14295">
        <ele>923.8</ele>
        <time>2022-05-22 18:14:39</time>
      </trkpt>
      <trkpt lat="42.56769" lon="1.14292">
        <ele>923.8</ele>
        <time>2022-05-22 18:14:40</time>
      </trkpt>
      <trkpt lat="42.56774" lon="1.14289">
        <ele>923.8</ele>
        <time>2022-05-22 18:14:41</time>
      </trkpt>
      <trkpt lat="42.56778" lon="1.14286">
        <ele>924</ele>
        <time>2022-05-22 18:14:42</time>
      </trkpt>
      <trkpt lat="42.56782" lon="1.14283">
        <ele>924</ele>
        <time>2022-05-22 18:14:43</time>
      </trkpt>
      <trkpt lat="42.56787" lon="1.1428">
        <ele>924</ele>
        <time>2022-05-22 18:14:44</time>
      </trkpt>
      <trkpt lat="42.56792" lon="1.14277">
        <ele>924.2</ele>
        <time>2022-05-22 18:14:45</time>
      </trkpt>
      <trkpt lat="42.56796" lon="1.14274">
        <ele>924.2</ele>
        <time>2022-05-22 18:14:46</time>
      </trkpt>
      <trkpt lat="42.56801" lon="1.14271">
        <ele>924.4</ele>
        <time>2022-05-22 18:14:47</time>
      </trkpt>
      <trkpt lat="42.56805" lon="1.14269">
        <ele>924.4</ele>
        <time>2022-05-22 18:14:48</time>
      </trkpt>
      <trkpt lat="42.5681" lon="1.14267">
        <ele>924.4</ele>
        <time>2022-05-22 18:14:49</time>
      </trkpt>
      <trkpt lat="42.56814" lon="1.14265">
        <ele>924.4</ele>
        <time>2022-05-22 18:14:50</time>
      </trkpt>
      <trkpt lat="42.56818" lon="1.14262">
        <ele>924.4</ele>
        <time>2022-05-22 18:14:51</time>
      </trkpt>
      <trkpt lat="42.56823" lon="1.1426">
        <ele>924.4</ele>
        <time>2022-05-22 18:14:52</time>
      </trkpt>
      <trkpt lat="42.56827" lon="1.14258">
        <ele>924.6</ele>
        <time>2022-05-22 18:14:53</time>
      </trkpt>
      <trkpt lat="42.56832" lon="1.14256">
        <ele>924.6</ele>
        <time>2022-05-22 18:14:54</time>
      </trkpt>
      <trkpt lat="42.56836" lon="1.14254">
        <ele>924.8</ele>
        <time>2022-05-22 18:14:55</time>
      </trkpt>
      <trkpt lat="42.5684" lon="1.14252">
        <ele>924.8</ele>
        <time>2022-05-22 18:14:56</time>
      </trkpt>
      <trkpt lat="42.56845" lon="1.1425">
        <ele>924.8</ele>
        <time>2022-05-22 18:14:57</time>
      </trkpt>
      <trkpt lat="42.56849" lon="1.14247">
        <ele>925</ele>
        <time>2022-05-22 18:14:58</time>
      </trkpt>
      <trkpt lat="42.56853" lon="1.14245">
        <ele>925</ele>
        <time>2022-05-22 18:14:59</time>
      </trkpt>
      <trkpt lat="42.56857" lon="1.14243">
        <ele>925</ele>
        <time>2022-05-22 18:15:00</time>
      </trkpt>
      <trkpt lat="42.56861" lon="1.1424">
        <ele>925</ele>
        <time>2022-05-22 18:15:01</time>
      </trkpt>
      <trkpt lat="42.56865" lon="1.14238">
        <ele>925.2</ele>
        <time>2022-05-22 18:15:02</time>
      </trkpt>
      <trkpt lat="42.56869" lon="1.14235">
        <ele>925.2</ele>
        <time>2022-05-22 18:15:03</time>
      </trkpt>
      <trkpt lat="42.56874" lon="1.14232">
        <ele>925.2</ele>
        <time>2022-05-22 18:15:04</time>
      </trkpt>
      <trkpt lat="42.56878" lon="1.14229">
        <ele>925.2</ele>
        <time>2022-05-22 18:15:05</time>
      </trkpt>
      <trkpt lat="42.56882" lon="1.14226">
        <ele>925.2</ele>
        <time>2022-05-22 18:15:06</time>
      </trkpt>
      <trkpt lat="42.56886" lon="1.14223">
        <ele>925.2</ele>
        <time>2022-05-22 18:15:07</time>
      </trkpt>
      <trkpt lat="42.5689" lon="1.14219">
        <ele>925.2</ele>
        <time>2022-05-22 18:15:08</time>
      </trkpt>
      <trkpt lat="42.56894" lon="1.14215">
        <ele>925.2</ele>
        <time>2022-05-22 18:15:09</time>
      </trkpt>
      <trkpt lat="42.56898" lon="1.14211">
        <ele>925.2</ele>
        <time>2022-05-22 18:15:10</time>
      </trkpt>
      <trkpt lat="42.56902" lon="1.14207">
        <ele>925.2</ele>
        <time>2022-05-22 18:15:11</time>
      </trkpt>
      <trkpt lat="42.56905" lon="1.14203">
        <ele>925.2</ele>
        <time>2022-05-22 18:15:12</time>
      </trkpt>
      <trkpt lat="42.56909" lon="1.14199">
        <ele>925.2</ele>
        <time>2022-05-22 18:15:13</time>
      </trkpt>
      <trkpt lat="42.56913" lon="1.14194">
        <ele>925.2</ele>
        <time>2022-05-22 18:15:14</time>
      </trkpt>
      <trkpt lat="42.56916" lon="1.14189">
        <ele>925.2</ele>
        <time>2022-05-22 18:15:15</time>
      </trkpt>
      <trkpt lat="42.5692" lon="1.14184">
        <ele>925</ele>
        <time>2022-05-22 18:15:16</time>
      </trkpt>
      <trkpt lat="42.56924" lon="1.14179">
        <ele>925</ele>
        <time>2022-05-22 18:15:17</time>
      </trkpt>
      <trkpt lat="42.56928" lon="1.14174">
        <ele>925</ele>
        <time>2022-05-22 18:15:18</time>
      </trkpt>
      <trkpt lat="42.56932" lon="1.14169">
        <ele>924.8</ele>
        <time>2022-05-22 18:15:19</time>
      </trkpt>
      <trkpt lat="42.56936" lon="1.14163">
        <ele>924.8</ele>
        <time>2022-05-22 18:15:20</time>
      </trkpt>
      <trkpt lat="42.56941" lon="1.14158">
        <ele>924.6</ele>
        <time>2022-05-22 18:15:21</time>
      </trkpt>
      <trkpt lat="42.56946" lon="1.14153">
        <ele>924.4</ele>
        <time>2022-05-22 18:15:22</time>
      </trkpt>
      <trkpt lat="42.56951" lon="1.14149">
        <ele>924.2</ele>
        <time>2022-05-22 18:15:23</time>
      </trkpt>
      <trkpt lat="42.56957" lon="1.14145">
        <ele>924</ele>
        <time>2022-05-22 18:15:24</time>
      </trkpt>
      <trkpt lat="42.56962" lon="1.14141">
        <ele>923.8</ele>
        <time>2022-05-22 18:15:25</time>
      </trkpt>
      <trkpt lat="42.56968" lon="1.14138">
        <ele>923.6</ele>
        <time>2022-05-22 18:15:26</time>
      </trkpt>
      <trkpt lat="42.56974" lon="1.14135">
        <ele>923.4</ele>
        <time>2022-05-22 18:15:27</time>
      </trkpt>
      <trkpt lat="42.5698" lon="1.14133">
        <ele>923.2</ele>
        <time>2022-05-22 18:15:28</time>
      </trkpt>
      <trkpt lat="42.56986" lon="1.14131">
        <ele>923</ele>
        <time>2022-05-22 18:15:29</time>
      </trkpt>
      <trkpt lat="42.56993" lon="1.1413">
        <ele>922.8</ele>
        <time>2022-05-22 18:15:30</time>
      </trkpt>
      <trkpt lat="42.56999" lon="1.14129">
        <ele>922.6</ele>
        <time>2022-05-22 18:15:31</time>
      </trkpt>
      <trkpt lat="42.57006" lon="1.14129">
        <ele>922.6</ele>
        <time>2022-05-22 18:15:32</time>
      </trkpt>
      <trkpt lat="42.57012" lon="1.1413">
        <ele>922.4</ele>
        <time>2022-05-22 18:15:33</time>
      </trkpt>
      <trkpt lat="42.57018" lon="1.14131">
        <ele>922.2</ele>
        <time>2022-05-22 18:15:34</time>
      </trkpt>
      <trkpt lat="42.57024" lon="1.14133">
        <ele>922</ele>
        <time>2022-05-22 18:15:35</time>
      </trkpt>
      <trkpt lat="42.5703" lon="1.14135">
        <ele>921.8</ele>
        <time>2022-05-22 18:15:36</time>
      </trkpt>
      <trkpt lat="42.57037" lon="1.14137">
        <ele>921.6</ele>
        <time>2022-05-22 18:15:37</time>
      </trkpt>
      <trkpt lat="42.57042" lon="1.14139">
        <ele>921.4</ele>
        <time>2022-05-22 18:15:38</time>
      </trkpt>
      <trkpt lat="42.57048" lon="1.14142">
        <ele>921.4</ele>
        <time>2022-05-22 18:15:39</time>
      </trkpt>
      <trkpt lat="42.57053" lon="1.14144">
        <ele>921.2</ele>
        <time>2022-05-22 18:15:40</time>
      </trkpt>
      <trkpt lat="42.57059" lon="1.14146">
        <ele>921.2</ele>
        <time>2022-05-22 18:15:41</time>
      </trkpt>
      <trkpt lat="42.57064" lon="1.14149">
        <ele>921.2</ele>
        <time>2022-05-22 18:15:42</time>
      </trkpt>
      <trkpt lat="42.5707" lon="1.14151">
        <ele>921.2</ele>
        <time>2022-05-22 18:15:43</time>
      </trkpt>
      <trkpt lat="42.57075" lon="1.14153">
        <ele>921.2</ele>
        <time>2022-05-22 18:15:44</time>
      </trkpt>
      <trkpt lat="42.5708" lon="1.14155">
        <ele>921.2</ele>
        <time>2022-05-22 18:15:45</time>
      </trkpt>
      <trkpt lat="42.57085" lon="1.14157">
        <ele>921.2</ele>
        <time>2022-05-22 18:15:46</time>
      </trkpt>
      <trkpt lat="42.5709" lon="1.14159">
        <ele>921.2</ele>
        <time>2022-05-22 18:15:47</time>
      </trkpt>
      <trkpt lat="42.57095" lon="1.14161">
        <ele>921.2</ele>
        <time>2022-05-22 18:15:48</time>
      </trkpt>
      <trkpt lat="42.571" lon="1.14162">
        <ele>921.2</ele>
        <time>2022-05-22 18:15:49</time>
      </trkpt>
      <trkpt lat="42.57104" lon="1.14163">
        <ele>921.2</ele>
        <time>2022-05-22 18:15:50</time>
      </trkpt>
      <trkpt lat="42.5711" lon="1.14164">
        <ele>921.4</ele>
        <time>2022-05-22 18:15:51</time>
      </trkpt>
      <trkpt lat="42.57115" lon="1.14165">
        <ele>921.4</ele>
        <time>2022-05-22 18:15:52</time>
      </trkpt>
      <trkpt lat="42.5712" lon="1.14166">
        <ele>921.6</ele>
        <time>2022-05-22 18:15:53</time>
      </trkpt>
      <trkpt lat="42.57125" lon="1.14167">
        <ele>921.6</ele>
        <time>2022-05-22 18:15:54</time>
      </trkpt>
      <trkpt lat="42.5713" lon="1.14167">
        <ele>921.6</ele>
        <time>2022-05-22 18:15:55</time>
      </trkpt>
      <trkpt lat="42.57136" lon="1.14168">
        <ele>921.6</ele>
        <time>2022-05-22 18:15:56</time>
      </trkpt>
      <trkpt lat="42.57141" lon="1.14168">
        <ele>921.6</ele>
        <time>2022-05-22 18:15:57</time>
      </trkpt>
      <trkpt lat="42.57146" lon="1.14169">
        <ele>921.6</ele>
        <time>2022-05-22 18:15:58</time>
      </trkpt>
      <trkpt lat="42.57151" lon="1.14169">
        <ele>921.8</ele>
        <time>2022-05-22 18:15:59</time>
      </trkpt>
      <trkpt lat="42.57156" lon="1.14169">
        <ele>921.8</ele>
        <time>2022-05-22 18:16:00</time>
      </trkpt>
      <trkpt lat="42.57161" lon="1.1417">
        <ele>921.8</ele>
        <time>2022-05-22 18:16:01</time>
      </trkpt>
      <trkpt lat="42.57166" lon="1.1417">
        <ele>921.8</ele>
        <time>2022-05-22 18:16:02</time>
      </trkpt>
      <trkpt lat="42.57171" lon="1.14171">
        <ele>921.8</ele>
        <time>2022-05-22 18:16:03</time>
      </trkpt>
      <trkpt lat="42.57176" lon="1.14172">
        <ele>922</ele>
        <time>2022-05-22 18:16:04</time>
      </trkpt>
      <trkpt lat="42.57181" lon="1.14172">
        <ele>922</ele>
        <time>2022-05-22 18:16:05</time>
      </trkpt>
      <trkpt lat="42.57186" lon="1.14172">
        <ele>922.2</ele>
        <time>2022-05-22 18:16:06</time>
      </trkpt>
      <trkpt lat="42.5719" lon="1.14173">
        <ele>922.2</ele>
        <time>2022-05-22 18:16:07</time>
      </trkpt>
      <trkpt lat="42.57195" lon="1.14173">
        <ele>922.4</ele>
        <time>2022-05-22 18:16:08</time>
      </trkpt>
      <trkpt lat="42.572" lon="1.14174">
        <ele>922.4</ele>
        <time>2022-05-22 18:16:09</time>
      </trkpt>
      <trkpt lat="42.57204" lon="1.14174">
        <ele>922.6</ele>
        <time>2022-05-22 18:16:10</time>
      </trkpt>
      <trkpt lat="42.57209" lon="1.14174">
        <ele>922.6</ele>
        <time>2022-05-22 18:16:11</time>
      </trkpt>
      <trkpt lat="42.57213" lon="1.14174">
        <ele>922.8</ele>
        <time>2022-05-22 18:16:12</time>
      </trkpt>
      <trkpt lat="42.57217" lon="1.14175">
        <ele>922.8</ele>
        <time>2022-05-22 18:16:13</time>
      </trkpt>
      <trkpt lat="42.57221" lon="1.14175">
        <ele>923</ele>
        <time>2022-05-22 18:16:14</time>
      </trkpt>
      <trkpt lat="42.57225" lon="1.14175">
        <ele>923</ele>
        <time>2022-05-22 18:16:15</time>
      </trkpt>
      <trkpt lat="42.57228" lon="1.14176">
        <ele>923.2</ele>
        <time>2022-05-22 18:16:16</time>
      </trkpt>
      <trkpt lat="42.57231" lon="1.14177">
        <ele>923.2</ele>
        <time>2022-05-22 18:16:17</time>
      </trkpt>
      <trkpt lat="42.57235" lon="1.14178">
        <ele>923.4</ele>
        <time>2022-05-22 18:16:18</time>
      </trkpt>
      <trkpt lat="42.57239" lon="1.14178">
        <ele>923.6</ele>
        <time>2022-05-22 18:16:19</time>
      </trkpt>
      <trkpt lat="42.57242" lon="1.14179">
        <ele>923.6</ele>
        <time>2022-05-22 18:16:20</time>
      </trkpt>
      <trkpt lat="42.57246" lon="1.1418">
        <ele>923.8</ele>
        <time>2022-05-22 18:16:21</time>
      </trkpt>
      <trkpt lat="42.5725" lon="1.14181">
        <ele>923.8</ele>
        <time>2022-05-22 18:16:22</time>
      </trkpt>
      <trkpt lat="42.57253" lon="1.14182">
        <ele>924</ele>
        <time>2022-05-22 18:16:23</time>
      </trkpt>
      <trkpt lat="42.57257" lon="1.14183">
        <ele>924</ele>
        <time>2022-05-22 18:16:24</time>
      </trkpt>
      <trkpt lat="42.5726" lon="1.14183">
        <ele>924.2</ele>
        <time>2022-05-22 18:16:25</time>
      </trkpt>
      <trkpt lat="42.57264" lon="1.14184">
        <ele>924.2</ele>
        <time>2022-05-22 18:16:26</time>
      </trkpt>
      <trkpt lat="42.57267" lon="1.14185">
        <ele>924.4</ele>
        <time>2022-05-22 18:16:27</time>
      </trkpt>
      <trkpt lat="42.5727" lon="1.14186">
        <ele>924.6</ele>
        <time>2022-05-22 18:16:28</time>
      </trkpt>
      <trkpt lat="42.57274" lon="1.14187">
        <ele>924.6</ele>
        <time>2022-05-22 18:16:29</time>
      </trkpt>
      <trkpt lat="42.57277" lon="1.14188">
        <ele>924.8</ele>
        <time>2022-05-22 18:16:30</time>
      </trkpt>
      <trkpt lat="42.5728" lon="1.14189">
        <ele>925</ele>
        <time>2022-05-22 18:16:31</time>
      </trkpt>
      <trkpt lat="42.57283" lon="1.14191">
        <ele>925.2</ele>
        <time>2022-05-22 18:16:32</time>
      </trkpt>
      <trkpt lat="42.57285" lon="1.14192">
        <ele>925.4</ele>
        <time>2022-05-22 18:16:33</time>
      </trkpt>
      <trkpt lat="42.57288" lon="1.14193">
        <ele>925.6</ele>
        <time>2022-05-22 18:16:34</time>
      </trkpt>
      <trkpt lat="42.57291" lon="1.14194">
        <ele>925.8</ele>
        <time>2022-05-22 18:16:35</time>
      </trkpt>
      <trkpt lat="42.57293" lon="1.14195">
        <ele>926</ele>
        <time>2022-05-22 18:16:36</time>
      </trkpt>
      <trkpt lat="42.57296" lon="1.14195">
        <ele>926.2</ele>
        <time>2022-05-22 18:16:37</time>
      </trkpt>
      <trkpt lat="42.57298" lon="1.14197">
        <ele>926.4</ele>
        <time>2022-05-22 18:16:38</time>
      </trkpt>
      <trkpt lat="42.573" lon="1.14198">
        <ele>926.6</ele>
        <time>2022-05-22 18:16:39</time>
      </trkpt>
      <trkpt lat="42.57302" lon="1.14199">
        <ele>926.8</ele>
        <time>2022-05-22 18:16:40</time>
      </trkpt>
      <trkpt lat="42.57304" lon="1.142">
        <ele>927</ele>
        <time>2022-05-22 18:16:41</time>
      </trkpt>
      <trkpt lat="42.57306" lon="1.14201">
        <ele>927.2</ele>
        <time>2022-05-22 18:16:42</time>
      </trkpt>
      <trkpt lat="42.57309" lon="1.14201">
        <ele>927.2</ele>
        <time>2022-05-22 18:16:43</time>
      </trkpt>
      <trkpt lat="42.57311" lon="1.14201">
        <ele>927.4</ele>
        <time>2022-05-22 18:16:44</time>
      </trkpt>
      <trkpt lat="42.57313" lon="1.14202">
        <ele>927.6</ele>
        <time>2022-05-22 18:16:45</time>
      </trkpt>
      <trkpt lat="42.57315" lon="1.14202">
        <ele>927.6</ele>
        <time>2022-05-22 18:16:46</time>
      </trkpt>
      <trkpt lat="42.57317" lon="1.14203">
        <ele>927.8</ele>
        <time>2022-05-22 18:16:47</time>
      </trkpt>
      <trkpt lat="42.57319" lon="1.14204">
        <ele>928</ele>
        <time>2022-05-22 18:16:48</time>
      </trkpt>
      <trkpt lat="42.57321" lon="1.14205">
        <ele>928</ele>
        <time>2022-05-22 18:16:49</time>
      </trkpt>
      <trkpt lat="42.57323" lon="1.14206">
        <ele>928</ele>
        <time>2022-05-22 18:16:50</time>
      </trkpt>
      <trkpt lat="42.57325" lon="1.14207">
        <ele>928.2</ele>
        <time>2022-05-22 18:16:51</time>
      </trkpt>
      <trkpt lat="42.57328" lon="1.14209">
        <ele>928.2</ele>
        <time>2022-05-22 18:16:52</time>
      </trkpt>
      <trkpt lat="42.5733" lon="1.1421">
        <ele>928.2</ele>
        <time>2022-05-22 18:16:53</time>
      </trkpt>
      <trkpt lat="42.57333" lon="1.14212">
        <ele>928.2</ele>
        <time>2022-05-22 18:16:54</time>
      </trkpt>
      <trkpt lat="42.57336" lon="1.14213">
        <ele>928.2</ele>
        <time>2022-05-22 18:16:55</time>
      </trkpt>
      <trkpt lat="42.57338" lon="1.14214">
        <ele>928.2</ele>
        <time>2022-05-22 18:16:56</time>
      </trkpt>
      <trkpt lat="42.57341" lon="1.14215">
        <ele>928.4</ele>
        <time>2022-05-22 18:16:57</time>
      </trkpt>
      <trkpt lat="42.57344" lon="1.14216">
        <ele>928.6</ele>
        <time>2022-05-22 18:16:58</time>
      </trkpt>
      <trkpt lat="42.57347" lon="1.14218">
        <ele>928.8</ele>
        <time>2022-05-22 18:16:59</time>
      </trkpt>
      <trkpt lat="42.5735" lon="1.14219">
        <ele>929</ele>
        <time>2022-05-22 18:17:00</time>
      </trkpt>
      <trkpt lat="42.57353" lon="1.14221">
        <ele>929.2</ele>
        <time>2022-05-22 18:17:01</time>
      </trkpt>
      <trkpt lat="42.57355" lon="1.14222">
        <ele>929.6</ele>
        <time>2022-05-22 18:17:02</time>
      </trkpt>
      <trkpt lat="42.57358" lon="1.14223">
        <ele>930</ele>
        <time>2022-05-22 18:17:03</time>
      </trkpt>
      <trkpt lat="42.5736" lon="1.14225">
        <ele>930.2</ele>
        <time>2022-05-22 18:17:04</time>
      </trkpt>
      <trkpt lat="42.57363" lon="1.14226">
        <ele>930.6</ele>
        <time>2022-05-22 18:17:05</time>
      </trkpt>
      <trkpt lat="42.57366" lon="1.14227">
        <ele>931</ele>
        <time>2022-05-22 18:17:06</time>
      </trkpt>
      <trkpt lat="42.57368" lon="1.14228">
        <ele>931.4</ele>
        <time>2022-05-22 18:17:07</time>
      </trkpt>
      <trkpt lat="42.57371" lon="1.14229">
        <ele>931.6</ele>
        <time>2022-05-22 18:17:08</time>
      </trkpt>
      <trkpt lat="42.57373" lon="1.1423">
        <ele>932</ele>
        <time>2022-05-22 18:17:09</time>
      </trkpt>
      <trkpt lat="42.57376" lon="1.14231">
        <ele>932.2</ele>
        <time>2022-05-22 18:17:10</time>
      </trkpt>
      <trkpt lat="42.57378" lon="1.14232">
        <ele>932.4</ele>
        <time>2022-05-22 18:17:11</time>
      </trkpt>
      <trkpt lat="42.5738" lon="1.14233">
        <ele>932.6</ele>
        <time>2022-05-22 18:17:12</time>
      </trkpt>
      <trkpt lat="42.57382" lon="1.14234">
        <ele>932.6</ele>
        <time>2022-05-22 18:17:13</time>
      </trkpt>
      <trkpt lat="42.57384" lon="1.14235">
        <ele>932.8</ele>
        <time>2022-05-22 18:17:14</time>
      </trkpt>
      <trkpt lat="42.57387" lon="1.14236">
        <ele>933</ele>
        <time>2022-05-22 18:17:15</time>
      </trkpt>
      <trkpt lat="42.57389" lon="1.14237">
        <ele>933.2</ele>
        <time>2022-05-22 18:17:16</time>
      </trkpt>
      <trkpt lat="42.57391" lon="1.14237">
        <ele>933.2</ele>
        <time>2022-05-22 18:17:17</time>
      </trkpt>
      <trkpt lat="42.57393" lon="1.14238">
        <ele>933.4</ele>
        <time>2022-05-22 18:17:18</time>
      </trkpt>
      <trkpt lat="42.57395" lon="1.14239">
        <ele>933.6</ele>
        <time>2022-05-22 18:17:19</time>
      </trkpt>
      <trkpt lat="42.57398" lon="1.14239">
        <ele>933.6</ele>
        <time>2022-05-22 18:17:20</time>
      </trkpt>
      <trkpt lat="42.574" lon="1.14239">
        <ele>933.8</ele>
        <time>2022-05-22 18:17:21</time>
      </trkpt>
      <trkpt lat="42.57402" lon="1.1424">
        <ele>933.8</ele>
        <time>2022-05-22 18:17:22</time>
      </trkpt>
      <trkpt lat="42.57405" lon="1.1424">
        <ele>934</ele>
        <time>2022-05-22 18:17:23</time>
      </trkpt>
      <trkpt lat="42.57407" lon="1.14241">
        <ele>934</ele>
        <time>2022-05-22 18:17:24</time>
      </trkpt>
      <trkpt lat="42.57409" lon="1.14242">
        <ele>934</ele>
        <time>2022-05-22 18:17:25</time>
      </trkpt>
      <trkpt lat="42.57412" lon="1.14242">
        <ele>934.2</ele>
        <time>2022-05-22 18:17:26</time>
      </trkpt>
      <trkpt lat="42.57415" lon="1.14243">
        <ele>934.4</ele>
        <time>2022-05-22 18:17:27</time>
      </trkpt>
      <trkpt lat="42.57417" lon="1.14244">
        <ele>934.4</ele>
        <time>2022-05-22 18:17:28</time>
      </trkpt>
      <trkpt lat="42.57419" lon="1.14245">
        <ele>934.6</ele>
        <time>2022-05-22 18:17:29</time>
      </trkpt>
      <trkpt lat="42.57422" lon="1.14246">
        <ele>934.8</ele>
        <time>2022-05-22 18:17:30</time>
      </trkpt>
      <trkpt lat="42.57424" lon="1.14247">
        <ele>934.8</ele>
        <time>2022-05-22 18:17:31</time>
      </trkpt>
      <trkpt lat="42.57427" lon="1.14247">
        <ele>935</ele>
        <time>2022-05-22 18:17:32</time>
      </trkpt>
      <trkpt lat="42.5743" lon="1.14247">
        <ele>935.2</ele>
        <time>2022-05-22 18:17:33</time>
      </trkpt>
      <trkpt lat="42.57432" lon="1.14248">
        <ele>935.2</ele>
        <time>2022-05-22 18:17:34</time>
      </trkpt>
      <trkpt lat="42.57435" lon="1.14249">
        <ele>935.4</ele>
        <time>2022-05-22 18:17:35</time>
      </trkpt>
      <trkpt lat="42.57438" lon="1.14249">
        <ele>935.6</ele>
        <time>2022-05-22 18:17:36</time>
      </trkpt>
      <trkpt lat="42.57441" lon="1.1425">
        <ele>935.8</ele>
        <time>2022-05-22 18:17:37</time>
      </trkpt>
      <trkpt lat="42.57444" lon="1.1425">
        <ele>935.8</ele>
        <time>2022-05-22 18:17:38</time>
      </trkpt>
      <trkpt lat="42.57446" lon="1.14249">
        <ele>936</ele>
        <time>2022-05-22 18:17:39</time>
      </trkpt>
      <trkpt lat="42.57448" lon="1.14249">
        <ele>936.2</ele>
        <time>2022-05-22 18:17:40</time>
      </trkpt>
      <trkpt lat="42.5745" lon="1.14249">
        <ele>936.2</ele>
        <time>2022-05-22 18:17:41</time>
      </trkpt>
      <trkpt lat="42.57453" lon="1.14248">
        <ele>936.4</ele>
        <time>2022-05-22 18:17:42</time>
      </trkpt>
      <trkpt lat="42.57455" lon="1.14247">
        <ele>936.4</ele>
        <time>2022-05-22 18:17:43</time>
      </trkpt>
      <trkpt lat="42.57457" lon="1.14247">
        <ele>936.6</ele>
        <time>2022-05-22 18:17:44</time>
      </trkpt>
      <trkpt lat="42.57459" lon="1.14246">
        <ele>936.8</ele>
        <time>2022-05-22 18:17:45</time>
      </trkpt>
      <trkpt lat="42.57461" lon="1.14245">
        <ele>936.8</ele>
        <time>2022-05-22 18:17:46</time>
      </trkpt>
      <trkpt lat="42.57464" lon="1.14245">
        <ele>937</ele>
        <time>2022-05-22 18:17:47</time>
      </trkpt>
      <trkpt lat="42.57466" lon="1.14245">
        <ele>937</ele>
        <time>2022-05-22 18:17:48</time>
      </trkpt>
      <trkpt lat="42.57468" lon="1.14244">
        <ele>937.2</ele>
        <time>2022-05-22 18:17:49</time>
      </trkpt>
      <trkpt lat="42.5747" lon="1.14242">
        <ele>937.2</ele>
        <time>2022-05-22 18:17:50</time>
      </trkpt>
      <trkpt lat="42.57471" lon="1.1424">
        <ele>937.2</ele>
        <time>2022-05-22 18:17:51</time>
      </trkpt>
      <trkpt lat="42.57472" lon="1.14239">
        <ele>937.4</ele>
        <time>2022-05-22 18:17:52</time>
      </trkpt>
      <trkpt lat="42.57475" lon="1.14236">
        <ele>937.6</ele>
        <time>2022-05-22 18:17:53</time>
      </trkpt>
      <trkpt lat="42.57477" lon="1.14234">
        <ele>937.6</ele>
        <time>2022-05-22 18:17:54</time>
      </trkpt>
      <trkpt lat="42.57479" lon="1.14232">
        <ele>937.6</ele>
        <time>2022-05-22 18:17:55</time>
      </trkpt>
      <trkpt lat="42.57481" lon="1.14231">
        <ele>937.8</ele>
        <time>2022-05-22 18:17:56</time>
      </trkpt>
      <trkpt lat="42.57484" lon="1.14229">
        <ele>937.8</ele>
        <time>2022-05-22 18:17:57</time>
      </trkpt>
      <trkpt lat="42.57486" lon="1.14227">
        <ele>938</ele>
        <time>2022-05-22 18:17:58</time>
      </trkpt>
      <trkpt lat="42.57488" lon="1.14224">
        <ele>938</ele>
        <time>2022-05-22 18:17:59</time>
      </trkpt>
      <trkpt lat="42.57491" lon="1.14222">
        <ele>938</ele>
        <time>2022-05-22 18:18:00</time>
      </trkpt>
      <trkpt lat="42.57493" lon="1.1422">
        <ele>938.2</ele>
        <time>2022-05-22 18:18:01</time>
      </trkpt>
      <trkpt lat="42.57495" lon="1.14218">
        <ele>938.2</ele>
        <time>2022-05-22 18:18:02</time>
      </trkpt>
      <trkpt lat="42.57497" lon="1.14215">
        <ele>938.2</ele>
        <time>2022-05-22 18:18:03</time>
      </trkpt>
      <trkpt lat="42.57499" lon="1.14213">
        <ele>938.4</ele>
        <time>2022-05-22 18:18:04</time>
      </trkpt>
      <trkpt lat="42.57501" lon="1.1421">
        <ele>938.4</ele>
        <time>2022-05-22 18:18:05</time>
      </trkpt>
      <trkpt lat="42.57503" lon="1.14207">
        <ele>938.4</ele>
        <time>2022-05-22 18:18:06</time>
      </trkpt>
      <trkpt lat="42.57505" lon="1.14203">
        <ele>938.4</ele>
        <time>2022-05-22 18:18:07</time>
      </trkpt>
      <trkpt lat="42.57506" lon="1.14199">
        <ele>938.6</ele>
        <time>2022-05-22 18:18:08</time>
      </trkpt>
      <trkpt lat="42.57508" lon="1.14195">
        <ele>938.6</ele>
        <time>2022-05-22 18:18:09</time>
      </trkpt>
      <trkpt lat="42.57509" lon="1.14192">
        <ele>938.6</ele>
        <time>2022-05-22 18:18:10</time>
      </trkpt>
      <trkpt lat="42.57511" lon="1.14189">
        <ele>938.8</ele>
        <time>2022-05-22 18:18:11</time>
      </trkpt>
      <trkpt lat="42.57514" lon="1.14187">
        <ele>938.8</ele>
        <time>2022-05-22 18:18:12</time>
      </trkpt>
      <trkpt lat="42.57516" lon="1.14185">
        <ele>939</ele>
        <time>2022-05-22 18:18:13</time>
      </trkpt>
      <trkpt lat="42.57518" lon="1.14183">
        <ele>939</ele>
        <time>2022-05-22 18:18:14</time>
      </trkpt>
      <trkpt lat="42.5752" lon="1.14181">
        <ele>939.2</ele>
        <time>2022-05-22 18:18:15</time>
      </trkpt>
      <trkpt lat="42.57523" lon="1.14179">
        <ele>939.2</ele>
        <time>2022-05-22 18:18:16</time>
      </trkpt>
      <trkpt lat="42.57526" lon="1.14176">
        <ele>939.4</ele>
        <time>2022-05-22 18:18:17</time>
      </trkpt>
      <trkpt lat="42.57528" lon="1.14174">
        <ele>939.4</ele>
        <time>2022-05-22 18:18:18</time>
      </trkpt>
      <trkpt lat="42.5753" lon="1.14172">
        <ele>939.4</ele>
        <time>2022-05-22 18:18:19</time>
      </trkpt>
      <trkpt lat="42.57533" lon="1.14171">
        <ele>939.6</ele>
        <time>2022-05-22 18:18:20</time>
      </trkpt>
      <trkpt lat="42.57536" lon="1.14169">
        <ele>939.8</ele>
        <time>2022-05-22 18:18:21</time>
      </trkpt>
      <trkpt lat="42.57539" lon="1.14168">
        <ele>939.8</ele>
        <time>2022-05-22 18:18:22</time>
      </trkpt>
      <trkpt lat="42.57542" lon="1.14167">
        <ele>939.8</ele>
        <time>2022-05-22 18:18:23</time>
      </trkpt>
      <trkpt lat="42.57545" lon="1.14166">
        <ele>940</ele>
        <time>2022-05-22 18:18:24</time>
      </trkpt>
      <trkpt lat="42.57548" lon="1.14165">
        <ele>940.2</ele>
        <time>2022-05-22 18:18:25</time>
      </trkpt>
      <trkpt lat="42.57551" lon="1.14164">
        <ele>940.2</ele>
        <time>2022-05-22 18:18:26</time>
      </trkpt>
      <trkpt lat="42.57554" lon="1.14164">
        <ele>940.4</ele>
        <time>2022-05-22 18:18:27</time>
      </trkpt>
      <trkpt lat="42.57557" lon="1.14164">
        <ele>940.4</ele>
        <time>2022-05-22 18:18:28</time>
      </trkpt>
      <trkpt lat="42.57559" lon="1.14163">
        <ele>940.6</ele>
        <time>2022-05-22 18:18:29</time>
      </trkpt>
      <trkpt lat="42.57563" lon="1.14163">
        <ele>940.6</ele>
        <time>2022-05-22 18:18:30</time>
      </trkpt>
      <trkpt lat="42.57566" lon="1.14163">
        <ele>940.8</ele>
        <time>2022-05-22 18:18:31</time>
      </trkpt>
      <trkpt lat="42.57569" lon="1.14163">
        <ele>940.8</ele>
        <time>2022-05-22 18:18:32</time>
      </trkpt>
      <trkpt lat="42.57572" lon="1.14163">
        <ele>941</ele>
        <time>2022-05-22 18:18:33</time>
      </trkpt>
      <trkpt lat="42.57575" lon="1.14163">
        <ele>941</ele>
        <time>2022-05-22 18:18:34</time>
      </trkpt>
      <trkpt lat="42.57579" lon="1.14163">
        <ele>941</ele>
        <time>2022-05-22 18:18:35</time>
      </trkpt>
      <trkpt lat="42.57582" lon="1.14163">
        <ele>941.2</ele>
        <time>2022-05-22 18:18:36</time>
      </trkpt>
      <trkpt lat="42.57585" lon="1.14163">
        <ele>941.2</ele>
        <time>2022-05-22 18:18:37</time>
      </trkpt>
      <trkpt lat="42.57588" lon="1.14163">
        <ele>941.4</ele>
        <time>2022-05-22 18:18:38</time>
      </trkpt>
      <trkpt lat="42.57591" lon="1.14162">
        <ele>941.4</ele>
        <time>2022-05-22 18:18:39</time>
      </trkpt>
      <trkpt lat="42.57593" lon="1.14162">
        <ele>941.6</ele>
        <time>2022-05-22 18:18:40</time>
      </trkpt>
      <trkpt lat="42.57596" lon="1.14161">
        <ele>941.8</ele>
        <time>2022-05-22 18:18:41</time>
      </trkpt>
      <trkpt lat="42.57599" lon="1.14161">
        <ele>941.8</ele>
        <time>2022-05-22 18:18:42</time>
      </trkpt>
      <trkpt lat="42.57602" lon="1.1416">
        <ele>942</ele>
        <time>2022-05-22 18:18:43</time>
      </trkpt>
      <trkpt lat="42.57605" lon="1.1416">
        <ele>942</ele>
        <time>2022-05-22 18:18:44</time>
      </trkpt>
      <trkpt lat="42.57608" lon="1.1416">
        <ele>942.2</ele>
        <time>2022-05-22 18:18:45</time>
      </trkpt>
      <trkpt lat="42.5761" lon="1.14159">
        <ele>942.4</ele>
        <time>2022-05-22 18:18:46</time>
      </trkpt>
      <trkpt lat="42.57612" lon="1.14159">
        <ele>942.4</ele>
        <time>2022-05-22 18:18:47</time>
      </trkpt>
      <trkpt lat="42.57616" lon="1.14157">
        <ele>942.6</ele>
        <time>2022-05-22 18:18:48</time>
      </trkpt>
      <trkpt lat="42.57619" lon="1.14156">
        <ele>942.8</ele>
        <time>2022-05-22 18:18:49</time>
      </trkpt>
      <trkpt lat="42.57622" lon="1.14155">
        <ele>942.8</ele>
        <time>2022-05-22 18:18:50</time>
      </trkpt>
      <trkpt lat="42.57624" lon="1.14154">
        <ele>942.8</ele>
        <time>2022-05-22 18:18:51</time>
      </trkpt>
      <trkpt lat="42.57628" lon="1.14152">
        <ele>943</ele>
        <time>2022-05-22 18:18:52</time>
      </trkpt>
      <trkpt lat="42.57631" lon="1.14151">
        <ele>943.2</ele>
        <time>2022-05-22 18:18:53</time>
      </trkpt>
      <trkpt lat="42.57633" lon="1.14149">
        <ele>943.4</ele>
        <time>2022-05-22 18:18:54</time>
      </trkpt>
      <trkpt lat="42.57636" lon="1.14147">
        <ele>943.4</ele>
        <time>2022-05-22 18:18:55</time>
      </trkpt>
      <trkpt lat="42.57639" lon="1.14146">
        <ele>943.6</ele>
        <time>2022-05-22 18:18:56</time>
      </trkpt>
      <trkpt lat="42.57642" lon="1.14144">
        <ele>943.6</ele>
        <time>2022-05-22 18:18:57</time>
      </trkpt>
      <trkpt lat="42.57645" lon="1.14142">
        <ele>943.8</ele>
        <time>2022-05-22 18:18:58</time>
      </trkpt>
      <trkpt lat="42.57648" lon="1.1414">
        <ele>944</ele>
        <time>2022-05-22 18:18:59</time>
      </trkpt>
      <trkpt lat="42.5765" lon="1.14139">
        <ele>944.2</ele>
        <time>2022-05-22 18:19:00</time>
      </trkpt>
      <trkpt lat="42.57653" lon="1.14137">
        <ele>944.6</ele>
        <time>2022-05-22 18:19:01</time>
      </trkpt>
      <trkpt lat="42.57655" lon="1.14135">
        <ele>944.8</ele>
        <time>2022-05-22 18:19:02</time>
      </trkpt>
      <trkpt lat="42.57658" lon="1.14133">
        <ele>945</ele>
        <time>2022-05-22 18:19:03</time>
      </trkpt>
      <trkpt lat="42.57661" lon="1.14131">
        <ele>945.2</ele>
        <time>2022-05-22 18:19:04</time>
      </trkpt>
      <trkpt lat="42.57664" lon="1.14128">
        <ele>945.4</ele>
        <time>2022-05-22 18:19:05</time>
      </trkpt>
      <trkpt lat="42.57666" lon="1.14126">
        <ele>945.6</ele>
        <time>2022-05-22 18:19:06</time>
      </trkpt>
      <trkpt lat="42.57669" lon="1.14123">
        <ele>945.8</ele>
        <time>2022-05-22 18:19:07</time>
      </trkpt>
      <trkpt lat="42.57671" lon="1.14121">
        <ele>946</ele>
        <time>2022-05-22 18:19:08</time>
      </trkpt>
      <trkpt lat="42.57674" lon="1.14119">
        <ele>946.2</ele>
        <time>2022-05-22 18:19:09</time>
      </trkpt>
      <trkpt lat="42.57676" lon="1.14116">
        <ele>946.4</ele>
        <time>2022-05-22 18:19:10</time>
      </trkpt>
      <trkpt lat="42.57677" lon="1.14114">
        <ele>946.6</ele>
        <time>2022-05-22 18:19:11</time>
      </trkpt>
      <trkpt lat="42.57679" lon="1.14112">
        <ele>946.8</ele>
        <time>2022-05-22 18:19:12</time>
      </trkpt>
      <trkpt lat="42.57681" lon="1.1411">
        <ele>946.8</ele>
        <time>2022-05-22 18:19:13</time>
      </trkpt>
      <trkpt lat="42.57683" lon="1.14108">
        <ele>947</ele>
        <time>2022-05-22 18:19:14</time>
      </trkpt>
      <trkpt lat="42.57685" lon="1.14106">
        <ele>947.2</ele>
        <time>2022-05-22 18:19:15</time>
      </trkpt>
      <trkpt lat="42.57688" lon="1.14104">
        <ele>947.2</ele>
        <time>2022-05-22 18:19:16</time>
      </trkpt>
      <trkpt lat="42.5769" lon="1.14102">
        <ele>947.4</ele>
        <time>2022-05-22 18:19:17</time>
      </trkpt>
      <trkpt lat="42.57692" lon="1.141">
        <ele>947.6</ele>
        <time>2022-05-22 18:19:18</time>
      </trkpt>
      <trkpt lat="42.57694" lon="1.14098">
        <ele>947.8</ele>
        <time>2022-05-22 18:19:19</time>
      </trkpt>
      <trkpt lat="42.57696" lon="1.14095">
        <ele>947.8</ele>
        <time>2022-05-22 18:19:20</time>
      </trkpt>
      <trkpt lat="42.57698" lon="1.14093">
        <ele>948</ele>
        <time>2022-05-22 18:19:21</time>
      </trkpt>
      <trkpt lat="42.577" lon="1.14091">
        <ele>948.2</ele>
        <time>2022-05-22 18:19:22</time>
      </trkpt>
      <trkpt lat="42.57702" lon="1.14089">
        <ele>948.2</ele>
        <time>2022-05-22 18:19:23</time>
      </trkpt>
      <trkpt lat="42.57704" lon="1.14087">
        <ele>948.4</ele>
        <time>2022-05-22 18:19:24</time>
      </trkpt>
      <trkpt lat="42.57706" lon="1.14084">
        <ele>948.4</ele>
        <time>2022-05-22 18:19:25</time>
      </trkpt>
      <trkpt lat="42.57708" lon="1.14081">
        <ele>948.6</ele>
        <time>2022-05-22 18:19:26</time>
      </trkpt>
      <trkpt lat="42.57709" lon="1.14078">
        <ele>948.6</ele>
        <time>2022-05-22 18:19:27</time>
      </trkpt>
      <trkpt lat="42.5771" lon="1.14074">
        <ele>948.6</ele>
        <time>2022-05-22 18:19:28</time>
      </trkpt>
      <trkpt lat="42.57712" lon="1.14071">
        <ele>948.8</ele>
        <time>2022-05-22 18:19:29</time>
      </trkpt>
      <trkpt lat="42.57713" lon="1.14068">
        <ele>948.8</ele>
        <time>2022-05-22 18:19:30</time>
      </trkpt>
      <trkpt lat="42.57714" lon="1.14065">
        <ele>948.8</ele>
        <time>2022-05-22 18:19:31</time>
      </trkpt>
      <trkpt lat="42.57714" lon="1.14061">
        <ele>948.8</ele>
        <time>2022-05-22 18:19:32</time>
      </trkpt>
      <trkpt lat="42.57714" lon="1.14057">
        <ele>948.8</ele>
        <time>2022-05-22 18:19:33</time>
      </trkpt>
      <trkpt lat="42.57713" lon="1.14052">
        <ele>948.8</ele>
        <time>2022-05-22 18:19:34</time>
      </trkpt>
      <trkpt lat="42.57712" lon="1.14047">
        <ele>948.8</ele>
        <time>2022-05-22 18:19:35</time>
      </trkpt>
      <trkpt lat="42.57711" lon="1.14042">
        <ele>948.8</ele>
        <time>2022-05-22 18:19:36</time>
      </trkpt>
      <trkpt lat="42.5771" lon="1.14037">
        <ele>948.8</ele>
        <time>2022-05-22 18:19:37</time>
      </trkpt>
      <trkpt lat="42.57709" lon="1.14033">
        <ele>949</ele>
        <time>2022-05-22 18:19:38</time>
      </trkpt>
      <trkpt lat="42.57708" lon="1.14028">
        <ele>949.2</ele>
        <time>2022-05-22 18:19:39</time>
      </trkpt>
      <trkpt lat="42.57707" lon="1.14022">
        <ele>949.4</ele>
        <time>2022-05-22 18:19:40</time>
      </trkpt>
      <trkpt lat="42.57706" lon="1.14017">
        <ele>949.4</ele>
        <time>2022-05-22 18:19:41</time>
      </trkpt>
      <trkpt lat="42.57705" lon="1.14013">
        <ele>949.6</ele>
        <time>2022-05-22 18:19:42</time>
      </trkpt>
      <trkpt lat="42.57704" lon="1.14008">
        <ele>950</ele>
        <time>2022-05-22 18:19:43</time>
      </trkpt>
      <trkpt lat="42.57702" lon="1.14004">
        <ele>950.2</ele>
        <time>2022-05-22 18:19:44</time>
      </trkpt>
      <trkpt lat="42.57701" lon="1.14">
        <ele>950.6</ele>
        <time>2022-05-22 18:19:45</time>
      </trkpt>
      <trkpt lat="42.57701" lon="1.13995">
        <ele>950.8</ele>
        <time>2022-05-22 18:19:46</time>
      </trkpt>
      <trkpt lat="42.577" lon="1.13991">
        <ele>951.2</ele>
        <time>2022-05-22 18:19:47</time>
      </trkpt>
      <trkpt lat="42.57699" lon="1.13987">
        <ele>951.6</ele>
        <time>2022-05-22 18:19:48</time>
      </trkpt>
      <trkpt lat="42.57699" lon="1.13983">
        <ele>951.8</ele>
        <time>2022-05-22 18:19:49</time>
      </trkpt>
      <trkpt lat="42.57699" lon="1.13979">
        <ele>952.2</ele>
        <time>2022-05-22 18:19:50</time>
      </trkpt>
      <trkpt lat="42.57698" lon="1.13975">
        <ele>952.4</ele>
        <time>2022-05-22 18:19:51</time>
      </trkpt>
      <trkpt lat="42.57699" lon="1.13972">
        <ele>952.6</ele>
        <time>2022-05-22 18:19:52</time>
      </trkpt>
      <trkpt lat="42.57699" lon="1.13968">
        <ele>953</ele>
        <time>2022-05-22 18:19:53</time>
      </trkpt>
      <trkpt lat="42.577" lon="1.13964">
        <ele>953.2</ele>
        <time>2022-05-22 18:19:54</time>
      </trkpt>
      <trkpt lat="42.57702" lon="1.1396">
        <ele>953.2</ele>
        <time>2022-05-22 18:19:55</time>
      </trkpt>
      <trkpt lat="42.57703" lon="1.13957">
        <ele>953.4</ele>
        <time>2022-05-22 18:19:56</time>
      </trkpt>
      <trkpt lat="42.57705" lon="1.13953">
        <ele>953.4</ele>
        <time>2022-05-22 18:19:57</time>
      </trkpt>
      <trkpt lat="42.57707" lon="1.13949">
        <ele>953.4</ele>
        <time>2022-05-22 18:19:58</time>
      </trkpt>
      <trkpt lat="42.57709" lon="1.13945">
        <ele>953.4</ele>
        <time>2022-05-22 18:19:59</time>
      </trkpt>
      <trkpt lat="42.5771" lon="1.13942">
        <ele>953.4</ele>
        <time>2022-05-22 18:20:00</time>
      </trkpt>
      <trkpt lat="42.57711" lon="1.13939">
        <ele>953.4</ele>
        <time>2022-05-22 18:20:01</time>
      </trkpt>
      <trkpt lat="42.57712" lon="1.13938">
        <ele>953.6</ele>
        <time>2022-05-22 18:20:02</time>
      </trkpt>
      <trkpt lat="42.57705" lon="1.13953">
        <ele>953.8</ele>
        <time>2022-05-22 18:20:03</time>
      </trkpt>
      <trkpt lat="42.57703" lon="1.13956">
        <ele>953.8</ele>
        <time>2022-05-22 18:47:53</time>
      </trkpt>
      <trkpt lat="42.57701" lon="1.1396">
        <ele>953.8</ele>
        <time>2022-05-22 18:47:54</time>
      </trkpt>
      <trkpt lat="42.577" lon="1.13964">
        <ele>953.8</ele>
        <time>2022-05-22 18:47:55</time>
      </trkpt>
      <trkpt lat="42.57699" lon="1.13967">
        <ele>953.8</ele>
        <time>2022-05-22 18:47:56</time>
      </trkpt>
      <trkpt lat="42.57698" lon="1.1397">
        <ele>953.8</ele>
        <time>2022-05-22 18:47:57</time>
      </trkpt>
      <trkpt lat="42.57698" lon="1.13974">
        <ele>953.6</ele>
        <time>2022-05-22 18:47:58</time>
      </trkpt>
      <trkpt lat="42.57698" lon="1.13977">
        <ele>953.4</ele>
        <time>2022-05-22 18:47:59</time>
      </trkpt>
      <trkpt lat="42.57698" lon="1.13981">
        <ele>953.2</ele>
        <time>2022-05-22 18:48:00</time>
      </trkpt>
      <trkpt lat="42.57698" lon="1.13984">
        <ele>953</ele>
        <time>2022-05-22 18:48:01</time>
      </trkpt>
      <trkpt lat="42.57698" lon="1.1399">
        <ele>952.6</ele>
        <time>2022-05-22 18:48:02</time>
      </trkpt>
      <trkpt lat="42.57697" lon="1.13994">
        <ele>952.4</ele>
        <time>2022-05-22 18:48:03</time>
      </trkpt>
      <trkpt lat="42.57696" lon="1.13998">
        <ele>952.2</ele>
        <time>2022-05-22 18:48:04</time>
      </trkpt>
      <trkpt lat="42.57695" lon="1.14007">
        <ele>951.8</ele>
        <time>2022-05-22 18:48:05</time>
      </trkpt>
      <trkpt lat="42.57695" lon="1.14013">
        <ele>951.4</ele>
        <time>2022-05-22 18:48:06</time>
      </trkpt>
      <trkpt lat="42.57695" lon="1.14017">
        <ele>951</ele>
        <time>2022-05-22 18:48:07</time>
      </trkpt>
      <trkpt lat="42.57697" lon="1.14028">
        <ele>950.4</ele>
        <time>2022-05-22 18:48:08</time>
      </trkpt>
      <trkpt lat="42.57698" lon="1.14035">
        <ele>949.8</ele>
        <time>2022-05-22 18:48:09</time>
      </trkpt>
      <trkpt lat="42.57699" lon="1.14042">
        <ele>949.6</ele>
        <time>2022-05-22 18:48:10</time>
      </trkpt>
      <trkpt lat="42.57701" lon="1.14048">
        <ele>949.2</ele>
        <time>2022-05-22 18:48:11</time>
      </trkpt>
      <trkpt lat="42.57703" lon="1.14052">
        <ele>949</ele>
        <time>2022-05-22 18:48:12</time>
      </trkpt>
      <trkpt lat="42.57705" lon="1.14056">
        <ele>949</ele>
        <time>2022-05-22 18:48:13</time>
      </trkpt>
      <trkpt lat="42.57707" lon="1.14058">
        <ele>949</ele>
        <time>2022-05-22 18:48:14</time>
      </trkpt>
      <trkpt lat="42.57708" lon="1.14058">
        <ele>949</ele>
        <time>2022-05-22 18:48:15</time>
      </trkpt>
      <trkpt lat="42.57708" lon="1.14058">
        <ele>949</ele>
        <time>2022-05-22 18:48:16</time>
      </trkpt>
      <trkpt lat="42.57709" lon="1.14058">
        <ele>949</ele>
        <time>2022-05-22 18:48:17</time>
      </trkpt>
      <trkpt lat="42.5771" lon="1.14058">
        <ele>949</ele>
        <time>2022-05-22 18:48:18</time>
      </trkpt>
      <trkpt lat="42.57711" lon="1.14058">
        <ele>949</ele>
        <time>2022-05-22 18:48:19</time>
      </trkpt>
      <trkpt lat="42.57713" lon="1.14058">
        <ele>949</ele>
        <time>2022-05-22 18:48:20</time>
      </trkpt>
      <trkpt lat="42.57715" lon="1.14058">
        <ele>949</ele>
        <time>2022-05-22 18:48:21</time>
      </trkpt>
      <trkpt lat="42.57717" lon="1.14057">
        <ele>949</ele>
        <time>2022-05-22 18:48:22</time>
      </trkpt>
      <trkpt lat="42.57719" lon="1.14055">
        <ele>949.2</ele>
        <time>2022-05-22 18:48:23</time>
      </trkpt>
      <trkpt lat="42.57721" lon="1.14052">
        <ele>949.2</ele>
        <time>2022-05-22 18:48:24</time>
      </trkpt>
      <trkpt lat="42.57722" lon="1.14049">
        <ele>949.4</ele>
        <time>2022-05-22 18:48:25</time>
      </trkpt>
      <trkpt lat="42.57724" lon="1.14046">
        <ele>949.4</ele>
        <time>2022-05-22 18:48:26</time>
      </trkpt>
      <trkpt lat="42.57725" lon="1.14043">
        <ele>949.4</ele>
        <time>2022-05-22 18:48:27</time>
      </trkpt>
      <trkpt lat="42.57727" lon="1.1404">
        <ele>949.4</ele>
        <time>2022-05-22 18:48:28</time>
      </trkpt>
      <trkpt lat="42.57729" lon="1.14038">
        <ele>949.6</ele>
        <time>2022-05-22 18:48:29</time>
      </trkpt>
      <trkpt lat="42.57731" lon="1.14035">
        <ele>949.6</ele>
        <time>2022-05-22 18:48:30</time>
      </trkpt>
      <trkpt lat="42.57732" lon="1.14032">
        <ele>949.6</ele>
        <time>2022-05-22 18:48:31</time>
      </trkpt>
      <trkpt lat="42.57734" lon="1.14028">
        <ele>949.8</ele>
        <time>2022-05-22 18:48:32</time>
      </trkpt>
      <trkpt lat="42.57735" lon="1.14024">
        <ele>949.8</ele>
        <time>2022-05-22 18:48:33</time>
      </trkpt>
      <trkpt lat="42.57737" lon="1.1402">
        <ele>949.8</ele>
        <time>2022-05-22 18:48:34</time>
      </trkpt>
      <trkpt lat="42.57738" lon="1.14015">
        <ele>949.8</ele>
        <time>2022-05-22 18:48:35</time>
      </trkpt>
      <trkpt lat="42.5774" lon="1.14011">
        <ele>950</ele>
        <time>2022-05-22 18:48:36</time>
      </trkpt>
      <trkpt lat="42.57741" lon="1.14007">
        <ele>950</ele>
        <time>2022-05-22 18:48:37</time>
      </trkpt>
      <trkpt lat="42.57742" lon="1.14003">
        <ele>950</ele>
        <time>2022-05-22 18:48:38</time>
      </trkpt>
      <trkpt lat="42.57744" lon="1.13998">
        <ele>950</ele>
        <time>2022-05-22 18:48:39</time>
      </trkpt>
      <trkpt lat="42.57745" lon="1.13994">
        <ele>950</ele>
        <time>2022-05-22 18:48:40</time>
      </trkpt>
      <trkpt lat="42.57746" lon="1.13989">
        <ele>950</ele>
        <time>2022-05-22 18:48:41</time>
      </trkpt>
      <trkpt lat="42.57747" lon="1.13985">
        <ele>950</ele>
        <time>2022-05-22 18:48:42</time>
      </trkpt>
      <trkpt lat="42.57748" lon="1.13981">
        <ele>950</ele>
        <time>2022-05-22 18:48:43</time>
      </trkpt>
      <trkpt lat="42.57749" lon="1.13977">
        <ele>950</ele>
        <time>2022-05-22 18:48:44</time>
      </trkpt>
      <trkpt lat="42.57751" lon="1.13972">
        <ele>950</ele>
        <time>2022-05-22 18:48:45</time>
      </trkpt>
      <trkpt lat="42.57752" lon="1.13967">
        <ele>950.2</ele>
        <time>2022-05-22 18:48:46</time>
      </trkpt>
      <trkpt lat="42.57754" lon="1.13962">
        <ele>950.2</ele>
        <time>2022-05-22 18:48:47</time>
      </trkpt>
      <trkpt lat="42.57755" lon="1.13957">
        <ele>950.2</ele>
        <time>2022-05-22 18:48:48</time>
      </trkpt>
      <trkpt lat="42.57756" lon="1.13953">
        <ele>950.2</ele>
        <time>2022-05-22 18:48:49</time>
      </trkpt>
      <trkpt lat="42.57757" lon="1.13948">
        <ele>950.2</ele>
        <time>2022-05-22 18:48:50</time>
      </trkpt>
      <trkpt lat="42.57759" lon="1.13943">
        <ele>950.2</ele>
        <time>2022-05-22 18:48:51</time>
      </trkpt>
      <trkpt lat="42.5776" lon="1.13938">
        <ele>950.2</ele>
        <time>2022-05-22 18:48:52</time>
      </trkpt>
      <trkpt lat="42.57762" lon="1.13933">
        <ele>950.4</ele>
        <time>2022-05-22 18:48:53</time>
      </trkpt>
      <trkpt lat="42.57763" lon="1.13929">
        <ele>950.4</ele>
        <time>2022-05-22 18:48:54</time>
      </trkpt>
      <trkpt lat="42.57765" lon="1.13924">
        <ele>950.4</ele>
        <time>2022-05-22 18:48:55</time>
      </trkpt>
      <trkpt lat="42.57767" lon="1.1392">
        <ele>950.4</ele>
        <time>2022-05-22 18:48:56</time>
      </trkpt>
      <trkpt lat="42.57768" lon="1.13916">
        <ele>950.4</ele>
        <time>2022-05-22 18:48:57</time>
      </trkpt>
      <trkpt lat="42.5777" lon="1.13912">
        <ele>950.6</ele>
        <time>2022-05-22 18:48:58</time>
      </trkpt>
      <trkpt lat="42.57772" lon="1.13908">
        <ele>950.6</ele>
        <time>2022-05-22 18:48:59</time>
      </trkpt>
      <trkpt lat="42.57774" lon="1.13904">
        <ele>950.6</ele>
        <time>2022-05-22 18:49:00</time>
      </trkpt>
      <trkpt lat="42.57776" lon="1.139">
        <ele>950.8</ele>
        <time>2022-05-22 18:49:01</time>
      </trkpt>
      <trkpt lat="42.57778" lon="1.13896">
        <ele>950.8</ele>
        <time>2022-05-22 18:49:02</time>
      </trkpt>
      <trkpt lat="42.5778" lon="1.13892">
        <ele>950.8</ele>
        <time>2022-05-22 18:49:03</time>
      </trkpt>
      <trkpt lat="42.57782" lon="1.13889">
        <ele>951</ele>
        <time>2022-05-22 18:49:04</time>
      </trkpt>
      <trkpt lat="42.57785" lon="1.13885">
        <ele>951</ele>
        <time>2022-05-22 18:49:05</time>
      </trkpt>
      <trkpt lat="42.57788" lon="1.13882">
        <ele>951</ele>
        <time>2022-05-22 18:49:06</time>
      </trkpt>
      <trkpt lat="42.57791" lon="1.13878">
        <ele>951</ele>
        <time>2022-05-22 18:49:07</time>
      </trkpt>
      <trkpt lat="42.57794" lon="1.13875">
        <ele>951</ele>
        <time>2022-05-22 18:49:08</time>
      </trkpt>
      <trkpt lat="42.57796" lon="1.13871">
        <ele>951.2</ele>
        <time>2022-05-22 18:49:09</time>
      </trkpt>
      <trkpt lat="42.57799" lon="1.13868">
        <ele>951.2</ele>
        <time>2022-05-22 18:49:10</time>
      </trkpt>
      <trkpt lat="42.57802" lon="1.13865">
        <ele>951.2</ele>
        <time>2022-05-22 18:49:11</time>
      </trkpt>
      <trkpt lat="42.57805" lon="1.13862">
        <ele>951.4</ele>
        <time>2022-05-22 18:49:12</time>
      </trkpt>
      <trkpt lat="42.57807" lon="1.13859">
        <ele>951.4</ele>
        <time>2022-05-22 18:49:13</time>
      </trkpt>
      <trkpt lat="42.5781" lon="1.13857">
        <ele>951.4</ele>
        <time>2022-05-22 18:49:14</time>
      </trkpt>
      <trkpt lat="42.57813" lon="1.13854">
        <ele>951.4</ele>
        <time>2022-05-22 18:49:15</time>
      </trkpt>
      <trkpt lat="42.57816" lon="1.13851">
        <ele>951.4</ele>
        <time>2022-05-22 18:49:16</time>
      </trkpt>
      <trkpt lat="42.57819" lon="1.13849">
        <ele>951.4</ele>
        <time>2022-05-22 18:49:17</time>
      </trkpt>
      <trkpt lat="42.57821" lon="1.13846">
        <ele>951.4</ele>
        <time>2022-05-22 18:49:18</time>
      </trkpt>
      <trkpt lat="42.57824" lon="1.13844">
        <ele>951.6</ele>
        <time>2022-05-22 18:49:19</time>
      </trkpt>
      <trkpt lat="42.57827" lon="1.13841">
        <ele>951.6</ele>
        <time>2022-05-22 18:49:20</time>
      </trkpt>
      <trkpt lat="42.5783" lon="1.13838">
        <ele>951.6</ele>
        <time>2022-05-22 18:49:21</time>
      </trkpt>
      <trkpt lat="42.57832" lon="1.13835">
        <ele>951.6</ele>
        <time>2022-05-22 18:49:22</time>
      </trkpt>
      <trkpt lat="42.57835" lon="1.13832">
        <ele>951.6</ele>
        <time>2022-05-22 18:49:23</time>
      </trkpt>
      <trkpt lat="42.57837" lon="1.13829">
        <ele>951.8</ele>
        <time>2022-05-22 18:49:24</time>
      </trkpt>
      <trkpt lat="42.5784" lon="1.13826">
        <ele>951.8</ele>
        <time>2022-05-22 18:49:25</time>
      </trkpt>
      <trkpt lat="42.57843" lon="1.13823">
        <ele>951.8</ele>
        <time>2022-05-22 18:49:26</time>
      </trkpt>
      <trkpt lat="42.57845" lon="1.1382">
        <ele>952</ele>
        <time>2022-05-22 18:49:27</time>
      </trkpt>
      <trkpt lat="42.57848" lon="1.13817">
        <ele>952</ele>
        <time>2022-05-22 18:49:28</time>
      </trkpt>
      <trkpt lat="42.57851" lon="1.13814">
        <ele>952</ele>
        <time>2022-05-22 18:49:29</time>
      </trkpt>
      <trkpt lat="42.57854" lon="1.13811">
        <ele>951.8</ele>
        <time>2022-05-22 18:49:30</time>
      </trkpt>
      <trkpt lat="42.57857" lon="1.13807">
        <ele>951.8</ele>
        <time>2022-05-22 18:49:31</time>
      </trkpt>
      <trkpt lat="42.57859" lon="1.13804">
        <ele>951.8</ele>
        <time>2022-05-22 18:49:32</time>
      </trkpt>
      <trkpt lat="42.57862" lon="1.138">
        <ele>951.8</ele>
        <time>2022-05-22 18:49:33</time>
      </trkpt>
      <trkpt lat="42.57865" lon="1.13796">
        <ele>951.6</ele>
        <time>2022-05-22 18:49:34</time>
      </trkpt>
      <trkpt lat="42.57868" lon="1.13792">
        <ele>951.6</ele>
        <time>2022-05-22 18:49:35</time>
      </trkpt>
      <trkpt lat="42.57871" lon="1.13789">
        <ele>951.4</ele>
        <time>2022-05-22 18:49:36</time>
      </trkpt>
      <trkpt lat="42.57874" lon="1.13785">
        <ele>951.4</ele>
        <time>2022-05-22 18:49:37</time>
      </trkpt>
      <trkpt lat="42.57877" lon="1.13782">
        <ele>951.4</ele>
        <time>2022-05-22 18:49:38</time>
      </trkpt>
      <trkpt lat="42.57881" lon="1.13779">
        <ele>951.2</ele>
        <time>2022-05-22 18:49:39</time>
      </trkpt>
      <trkpt lat="42.57884" lon="1.13776">
        <ele>951.2</ele>
        <time>2022-05-22 18:49:40</time>
      </trkpt>
      <trkpt lat="42.57888" lon="1.13772">
        <ele>951</ele>
        <time>2022-05-22 18:49:41</time>
      </trkpt>
      <trkpt lat="42.57892" lon="1.13769">
        <ele>951</ele>
        <time>2022-05-22 18:49:42</time>
      </trkpt>
      <trkpt lat="42.57896" lon="1.13766">
        <ele>951</ele>
        <time>2022-05-22 18:49:43</time>
      </trkpt>
      <trkpt lat="42.579" lon="1.13763">
        <ele>950.8</ele>
        <time>2022-05-22 18:49:44</time>
      </trkpt>
      <trkpt lat="42.57904" lon="1.13759">
        <ele>950.8</ele>
        <time>2022-05-22 18:49:45</time>
      </trkpt>
      <trkpt lat="42.57909" lon="1.13756">
        <ele>950.8</ele>
        <time>2022-05-22 18:49:46</time>
      </trkpt>
      <trkpt lat="42.57914" lon="1.13753">
        <ele>950.6</ele>
        <time>2022-05-22 18:49:47</time>
      </trkpt>
      <trkpt lat="42.57918" lon="1.13751">
        <ele>950.6</ele>
        <time>2022-05-22 18:49:48</time>
      </trkpt>
      <trkpt lat="42.57923" lon="1.13748">
        <ele>950.4</ele>
        <time>2022-05-22 18:49:49</time>
      </trkpt>
      <trkpt lat="42.57928" lon="1.13745">
        <ele>950.4</ele>
        <time>2022-05-22 18:49:50</time>
      </trkpt>
      <trkpt lat="42.57933" lon="1.13743">
        <ele>950.4</ele>
        <time>2022-05-22 18:49:51</time>
      </trkpt>
      <trkpt lat="42.57938" lon="1.1374">
        <ele>950.4</ele>
        <time>2022-05-22 18:49:52</time>
      </trkpt>
      <trkpt lat="42.57943" lon="1.13738">
        <ele>950.4</ele>
        <time>2022-05-22 18:49:53</time>
      </trkpt>
      <trkpt lat="42.57949" lon="1.13735">
        <ele>950.4</ele>
        <time>2022-05-22 18:49:54</time>
      </trkpt>
      <trkpt lat="42.57955" lon="1.13733">
        <ele>950.4</ele>
        <time>2022-05-22 18:49:55</time>
      </trkpt>
      <trkpt lat="42.5796" lon="1.13731">
        <ele>950.2</ele>
        <time>2022-05-22 18:49:56</time>
      </trkpt>
      <trkpt lat="42.57966" lon="1.13729">
        <ele>950.2</ele>
        <time>2022-05-22 18:49:57</time>
      </trkpt>
      <trkpt lat="42.57972" lon="1.13727">
        <ele>950.2</ele>
        <time>2022-05-22 18:49:58</time>
      </trkpt>
      <trkpt lat="42.57978" lon="1.13724">
        <ele>950.2</ele>
        <time>2022-05-22 18:49:59</time>
      </trkpt>
      <trkpt lat="42.57983" lon="1.13723">
        <ele>950.2</ele>
        <time>2022-05-22 18:50:00</time>
      </trkpt>
      <trkpt lat="42.57989" lon="1.13721">
        <ele>950.2</ele>
        <time>2022-05-22 18:50:01</time>
      </trkpt>
      <trkpt lat="42.57994" lon="1.1372">
        <ele>950.2</ele>
        <time>2022-05-22 18:50:02</time>
      </trkpt>
      <trkpt lat="42.58" lon="1.13718">
        <ele>950.2</ele>
        <time>2022-05-22 18:50:03</time>
      </trkpt>
      <trkpt lat="42.58005" lon="1.13716">
        <ele>950.4</ele>
        <time>2022-05-22 18:50:04</time>
      </trkpt>
      <trkpt lat="42.58011" lon="1.13713">
        <ele>950.4</ele>
        <time>2022-05-22 18:50:05</time>
      </trkpt>
      <trkpt lat="42.58016" lon="1.1371">
        <ele>950.6</ele>
        <time>2022-05-22 18:50:06</time>
      </trkpt>
      <trkpt lat="42.58021" lon="1.13707">
        <ele>950.6</ele>
        <time>2022-05-22 18:50:07</time>
      </trkpt>
      <trkpt lat="42.58026" lon="1.13704">
        <ele>950.6</ele>
        <time>2022-05-22 18:50:08</time>
      </trkpt>
      <trkpt lat="42.58031" lon="1.137">
        <ele>950.8</ele>
        <time>2022-05-22 18:50:09</time>
      </trkpt>
      <trkpt lat="42.58036" lon="1.13696">
        <ele>950.8</ele>
        <time>2022-05-22 18:50:10</time>
      </trkpt>
      <trkpt lat="42.58041" lon="1.13692">
        <ele>950.8</ele>
        <time>2022-05-22 18:50:11</time>
      </trkpt>
      <trkpt lat="42.58045" lon="1.13688">
        <ele>950.6</ele>
        <time>2022-05-22 18:50:12</time>
      </trkpt>
      <trkpt lat="42.5805" lon="1.13684">
        <ele>950.6</ele>
        <time>2022-05-22 18:50:13</time>
      </trkpt>
      <trkpt lat="42.58054" lon="1.1368">
        <ele>950.6</ele>
        <time>2022-05-22 18:50:14</time>
      </trkpt>
      <trkpt lat="42.58058" lon="1.13675">
        <ele>950.6</ele>
        <time>2022-05-22 18:50:15</time>
      </trkpt>
      <trkpt lat="42.58062" lon="1.13671">
        <ele>950.4</ele>
        <time>2022-05-22 18:50:16</time>
      </trkpt>
      <trkpt lat="42.58067" lon="1.13666">
        <ele>950.4</ele>
        <time>2022-05-22 18:50:17</time>
      </trkpt>
      <trkpt lat="42.5807" lon="1.13661">
        <ele>950.4</ele>
        <time>2022-05-22 18:50:18</time>
      </trkpt>
      <trkpt lat="42.58074" lon="1.13656">
        <ele>950.2</ele>
        <time>2022-05-22 18:50:19</time>
      </trkpt>
      <trkpt lat="42.58078" lon="1.13651">
        <ele>950.2</ele>
        <time>2022-05-22 18:50:20</time>
      </trkpt>
      <trkpt lat="42.58082" lon="1.13647">
        <ele>950.2</ele>
        <time>2022-05-22 18:50:21</time>
      </trkpt>
      <trkpt lat="42.58086" lon="1.13642">
        <ele>950.2</ele>
        <time>2022-05-22 18:50:22</time>
      </trkpt>
      <trkpt lat="42.5809" lon="1.13638">
        <ele>950.2</ele>
        <time>2022-05-22 18:50:23</time>
      </trkpt>
      <trkpt lat="42.58094" lon="1.13633">
        <ele>950.2</ele>
        <time>2022-05-22 18:50:24</time>
      </trkpt>
      <trkpt lat="42.58098" lon="1.13629">
        <ele>950.2</ele>
        <time>2022-05-22 18:50:25</time>
      </trkpt>
      <trkpt lat="42.58103" lon="1.13626">
        <ele>950.2</ele>
        <time>2022-05-22 18:50:26</time>
      </trkpt>
      <trkpt lat="42.58107" lon="1.13623">
        <ele>950.2</ele>
        <time>2022-05-22 18:50:27</time>
      </trkpt>
      <trkpt lat="42.58111" lon="1.13619">
        <ele>950.2</ele>
        <time>2022-05-22 18:50:28</time>
      </trkpt>
      <trkpt lat="42.58115" lon="1.13616">
        <ele>950.2</ele>
        <time>2022-05-22 18:50:29</time>
      </trkpt>
      <trkpt lat="42.58119" lon="1.13613">
        <ele>950.2</ele>
        <time>2022-05-22 18:50:30</time>
      </trkpt>
      <trkpt lat="42.58123" lon="1.1361">
        <ele>950.4</ele>
        <time>2022-05-22 18:50:31</time>
      </trkpt>
      <trkpt lat="42.58128" lon="1.13606">
        <ele>950.4</ele>
        <time>2022-05-22 18:50:32</time>
      </trkpt>
      <trkpt lat="42.58132" lon="1.13603">
        <ele>950.4</ele>
        <time>2022-05-22 18:50:33</time>
      </trkpt>
      <trkpt lat="42.58136" lon="1.136">
        <ele>950.4</ele>
        <time>2022-05-22 18:50:34</time>
      </trkpt>
      <trkpt lat="42.58141" lon="1.13597">
        <ele>950.6</ele>
        <time>2022-05-22 18:50:35</time>
      </trkpt>
      <trkpt lat="42.58145" lon="1.13594">
        <ele>950.6</ele>
        <time>2022-05-22 18:50:36</time>
      </trkpt>
      <trkpt lat="42.58149" lon="1.13591">
        <ele>950.6</ele>
        <time>2022-05-22 18:50:37</time>
      </trkpt>
      <trkpt lat="42.58153" lon="1.13588">
        <ele>950.8</ele>
        <time>2022-05-22 18:50:38</time>
      </trkpt>
      <trkpt lat="42.58158" lon="1.13585">
        <ele>950.8</ele>
        <time>2022-05-22 18:50:39</time>
      </trkpt>
      <trkpt lat="42.58162" lon="1.13582">
        <ele>950.8</ele>
        <time>2022-05-22 18:50:40</time>
      </trkpt>
      <trkpt lat="42.58167" lon="1.13579">
        <ele>950.8</ele>
        <time>2022-05-22 18:50:41</time>
      </trkpt>
      <trkpt lat="42.58171" lon="1.13576">
        <ele>950.8</ele>
        <time>2022-05-22 18:50:42</time>
      </trkpt>
      <trkpt lat="42.58176" lon="1.13573">
        <ele>950.8</ele>
        <time>2022-05-22 18:50:43</time>
      </trkpt>
      <trkpt lat="42.58181" lon="1.13571">
        <ele>951</ele>
        <time>2022-05-22 18:50:44</time>
      </trkpt>
      <trkpt lat="42.58185" lon="1.13568">
        <ele>951</ele>
        <time>2022-05-22 18:50:45</time>
      </trkpt>
      <trkpt lat="42.5819" lon="1.13566">
        <ele>951</ele>
        <time>2022-05-22 18:50:46</time>
      </trkpt>
      <trkpt lat="42.58195" lon="1.13564">
        <ele>951</ele>
        <time>2022-05-22 18:50:47</time>
      </trkpt>
      <trkpt lat="42.582" lon="1.13561">
        <ele>951</ele>
        <time>2022-05-22 18:50:48</time>
      </trkpt>
      <trkpt lat="42.58205" lon="1.13559">
        <ele>951.2</ele>
        <time>2022-05-22 18:50:49</time>
      </trkpt>
      <trkpt lat="42.5821" lon="1.13557">
        <ele>951.2</ele>
        <time>2022-05-22 18:50:50</time>
      </trkpt>
      <trkpt lat="42.58215" lon="1.13555">
        <ele>951.2</ele>
        <time>2022-05-22 18:50:51</time>
      </trkpt>
      <trkpt lat="42.58219" lon="1.13553">
        <ele>951.2</ele>
        <time>2022-05-22 18:50:52</time>
      </trkpt>
      <trkpt lat="42.58224" lon="1.13551">
        <ele>951.2</ele>
        <time>2022-05-22 18:50:53</time>
      </trkpt>
      <trkpt lat="42.58229" lon="1.13549">
        <ele>951.4</ele>
        <time>2022-05-22 18:50:54</time>
      </trkpt>
      <trkpt lat="42.58234" lon="1.13547">
        <ele>951.4</ele>
        <time>2022-05-22 18:50:55</time>
      </trkpt>
      <trkpt lat="42.58239" lon="1.13545">
        <ele>951.4</ele>
        <time>2022-05-22 18:50:56</time>
      </trkpt>
      <trkpt lat="42.58244" lon="1.13544">
        <ele>951.4</ele>
        <time>2022-05-22 18:50:57</time>
      </trkpt>
      <trkpt lat="42.58249" lon="1.13542">
        <ele>951.4</ele>
        <time>2022-05-22 18:50:58</time>
      </trkpt>
      <trkpt lat="42.58254" lon="1.1354">
        <ele>951.4</ele>
        <time>2022-05-22 18:50:59</time>
      </trkpt>
      <trkpt lat="42.58259" lon="1.13539">
        <ele>951.2</ele>
        <time>2022-05-22 18:51:00</time>
      </trkpt>
      <trkpt lat="42.58264" lon="1.13536">
        <ele>951.2</ele>
        <time>2022-05-22 18:51:01</time>
      </trkpt>
      <trkpt lat="42.58269" lon="1.13534">
        <ele>951.2</ele>
        <time>2022-05-22 18:51:02</time>
      </trkpt>
      <trkpt lat="42.58274" lon="1.13531">
        <ele>951.2</ele>
        <time>2022-05-22 18:51:03</time>
      </trkpt>
      <trkpt lat="42.5828" lon="1.13528">
        <ele>951.2</ele>
        <time>2022-05-22 18:51:04</time>
      </trkpt>
      <trkpt lat="42.58285" lon="1.13524">
        <ele>951</ele>
        <time>2022-05-22 18:51:05</time>
      </trkpt>
      <trkpt lat="42.5829" lon="1.13521">
        <ele>951</ele>
        <time>2022-05-22 18:51:06</time>
      </trkpt>
      <trkpt lat="42.58295" lon="1.13516">
        <ele>951</ele>
        <time>2022-05-22 18:51:07</time>
      </trkpt>
      <trkpt lat="42.58301" lon="1.13512">
        <ele>950.8</ele>
        <time>2022-05-22 18:51:08</time>
      </trkpt>
      <trkpt lat="42.58305" lon="1.13508">
        <ele>950.8</ele>
        <time>2022-05-22 18:51:09</time>
      </trkpt>
      <trkpt lat="42.5831" lon="1.13504">
        <ele>950.6</ele>
        <time>2022-05-22 18:51:10</time>
      </trkpt>
      <trkpt lat="42.58316" lon="1.13498">
        <ele>950.6</ele>
        <time>2022-05-22 18:51:11</time>
      </trkpt>
      <trkpt lat="42.58321" lon="1.13493">
        <ele>950.4</ele>
        <time>2022-05-22 18:51:12</time>
      </trkpt>
      <trkpt lat="42.58326" lon="1.13487">
        <ele>950.4</ele>
        <time>2022-05-22 18:51:13</time>
      </trkpt>
      <trkpt lat="42.5833" lon="1.13481">
        <ele>950.2</ele>
        <time>2022-05-22 18:51:14</time>
      </trkpt>
      <trkpt lat="42.58335" lon="1.13476">
        <ele>950.2</ele>
        <time>2022-05-22 18:51:15</time>
      </trkpt>
      <trkpt lat="42.58339" lon="1.1347">
        <ele>950</ele>
        <time>2022-05-22 18:51:16</time>
      </trkpt>
      <trkpt lat="42.58343" lon="1.13463">
        <ele>950</ele>
        <time>2022-05-22 18:51:17</time>
      </trkpt>
      <trkpt lat="42.58346" lon="1.13457">
        <ele>950</ele>
        <time>2022-05-22 18:51:18</time>
      </trkpt>
      <trkpt lat="42.5835" lon="1.13452">
        <ele>950</ele>
        <time>2022-05-22 18:51:19</time>
      </trkpt>
      <trkpt lat="42.58353" lon="1.13446">
        <ele>949.8</ele>
        <time>2022-05-22 18:51:20</time>
      </trkpt>
      <trkpt lat="42.58356" lon="1.1344">
        <ele>949.8</ele>
        <time>2022-05-22 18:51:21</time>
      </trkpt>
      <trkpt lat="42.58359" lon="1.13434">
        <ele>949.8</ele>
        <time>2022-05-22 18:51:22</time>
      </trkpt>
      <trkpt lat="42.58362" lon="1.13428">
        <ele>949.8</ele>
        <time>2022-05-22 18:51:23</time>
      </trkpt>
      <trkpt lat="42.58365" lon="1.13423">
        <ele>949.8</ele>
        <time>2022-05-22 18:51:24</time>
      </trkpt>
      <trkpt lat="42.58368" lon="1.13417">
        <ele>949.8</ele>
        <time>2022-05-22 18:51:25</time>
      </trkpt>
      <trkpt lat="42.58371" lon="1.13411">
        <ele>949.8</ele>
        <time>2022-05-22 18:51:26</time>
      </trkpt>
      <trkpt lat="42.58374" lon="1.13405">
        <ele>949.8</ele>
        <time>2022-05-22 18:51:27</time>
      </trkpt>
      <trkpt lat="42.58377" lon="1.134">
        <ele>949.8</ele>
        <time>2022-05-22 18:51:28</time>
      </trkpt>
      <trkpt lat="42.5838" lon="1.13395">
        <ele>949.8</ele>
        <time>2022-05-22 18:51:29</time>
      </trkpt>
      <trkpt lat="42.58384" lon="1.1339">
        <ele>949.8</ele>
        <time>2022-05-22 18:51:30</time>
      </trkpt>
      <trkpt lat="42.58387" lon="1.13384">
        <ele>949.8</ele>
        <time>2022-05-22 18:51:31</time>
      </trkpt>
      <trkpt lat="42.5839" lon="1.13379">
        <ele>949.8</ele>
        <time>2022-05-22 18:51:32</time>
      </trkpt>
      <trkpt lat="42.58393" lon="1.13375">
        <ele>949.8</ele>
        <time>2022-05-22 18:51:33</time>
      </trkpt>
      <trkpt lat="42.58397" lon="1.1337">
        <ele>949.8</ele>
        <time>2022-05-22 18:51:34</time>
      </trkpt>
      <trkpt lat="42.584" lon="1.13367">
        <ele>950</ele>
        <time>2022-05-22 18:51:35</time>
      </trkpt>
      <trkpt lat="42.58404" lon="1.13363">
        <ele>950</ele>
        <time>2022-05-22 18:51:36</time>
      </trkpt>
      <trkpt lat="42.58407" lon="1.13359">
        <ele>950</ele>
        <time>2022-05-22 18:51:37</time>
      </trkpt>
      <trkpt lat="42.58411" lon="1.13356">
        <ele>950.2</ele>
        <time>2022-05-22 18:51:38</time>
      </trkpt>
      <trkpt lat="42.58415" lon="1.13352">
        <ele>950.2</ele>
        <time>2022-05-22 18:51:39</time>
      </trkpt>
      <trkpt lat="42.58419" lon="1.13349">
        <ele>950.2</ele>
        <time>2022-05-22 18:51:40</time>
      </trkpt>
      <trkpt lat="42.58423" lon="1.13346">
        <ele>950.2</ele>
        <time>2022-05-22 18:51:41</time>
      </trkpt>
      <trkpt lat="42.58427" lon="1.13344">
        <ele>950.2</ele>
        <time>2022-05-22 18:51:42</time>
      </trkpt>
      <trkpt lat="42.58431" lon="1.13342">
        <ele>950.2</ele>
        <time>2022-05-22 18:51:43</time>
      </trkpt>
      <trkpt lat="42.58435" lon="1.13339">
        <ele>950.2</ele>
        <time>2022-05-22 18:51:44</time>
      </trkpt>
      <trkpt lat="42.5844" lon="1.13337">
        <ele>950.4</ele>
        <time>2022-05-22 18:51:45</time>
      </trkpt>
      <trkpt lat="42.58445" lon="1.13335">
        <ele>950.4</ele>
        <time>2022-05-22 18:51:46</time>
      </trkpt>
      <trkpt lat="42.58449" lon="1.13334">
        <ele>950.4</ele>
        <time>2022-05-22 18:51:47</time>
      </trkpt>
      <trkpt lat="42.58453" lon="1.13333">
        <ele>950.4</ele>
        <time>2022-05-22 18:51:48</time>
      </trkpt>
      <trkpt lat="42.58458" lon="1.13331">
        <ele>950.4</ele>
        <time>2022-05-22 18:51:49</time>
      </trkpt>
      <trkpt lat="42.58463" lon="1.1333">
        <ele>950.2</ele>
        <time>2022-05-22 18:51:50</time>
      </trkpt>
      <trkpt lat="42.58467" lon="1.13329">
        <ele>950.4</ele>
        <time>2022-05-22 18:51:51</time>
      </trkpt>
      <trkpt lat="42.58471" lon="1.13329">
        <ele>950.4</ele>
        <time>2022-05-22 18:51:52</time>
      </trkpt>
      <trkpt lat="42.58476" lon="1.13329">
        <ele>950.4</ele>
        <time>2022-05-22 18:51:53</time>
      </trkpt>
      <trkpt lat="42.58481" lon="1.13329">
        <ele>950.4</ele>
        <time>2022-05-22 18:51:54</time>
      </trkpt>
      <trkpt lat="42.58485" lon="1.13329">
        <ele>950.4</ele>
        <time>2022-05-22 18:51:55</time>
      </trkpt>
      <trkpt lat="42.58489" lon="1.13329">
        <ele>950.4</ele>
        <time>2022-05-22 18:51:56</time>
      </trkpt>
      <trkpt lat="42.58494" lon="1.1333">
        <ele>950.4</ele>
        <time>2022-05-22 18:51:57</time>
      </trkpt>
      <trkpt lat="42.58498" lon="1.13331">
        <ele>950.4</ele>
        <time>2022-05-22 18:51:58</time>
      </trkpt>
      <trkpt lat="42.58503" lon="1.13332">
        <ele>950.6</ele>
        <time>2022-05-22 18:51:59</time>
      </trkpt>
      <trkpt lat="42.58507" lon="1.13334">
        <ele>950.6</ele>
        <time>2022-05-22 18:52:00</time>
      </trkpt>
      <trkpt lat="42.58511" lon="1.13335">
        <ele>950.8</ele>
        <time>2022-05-22 18:52:01</time>
      </trkpt>
      <trkpt lat="42.58516" lon="1.13337">
        <ele>950.8</ele>
        <time>2022-05-22 18:52:02</time>
      </trkpt>
      <trkpt lat="42.5852" lon="1.13339">
        <ele>951</ele>
        <time>2022-05-22 18:52:03</time>
      </trkpt>
      <trkpt lat="42.58524" lon="1.1334">
        <ele>951</ele>
        <time>2022-05-22 18:52:04</time>
      </trkpt>
      <trkpt lat="42.58529" lon="1.13342">
        <ele>951.2</ele>
        <time>2022-05-22 18:52:05</time>
      </trkpt>
      <trkpt lat="42.58533" lon="1.13344">
        <ele>951.2</ele>
        <time>2022-05-22 18:52:06</time>
      </trkpt>
      <trkpt lat="42.58537" lon="1.13346">
        <ele>951.4</ele>
        <time>2022-05-22 18:52:07</time>
      </trkpt>
      <trkpt lat="42.58541" lon="1.13347">
        <ele>951.4</ele>
        <time>2022-05-22 18:52:08</time>
      </trkpt>
      <trkpt lat="42.58546" lon="1.13349">
        <ele>951.6</ele>
        <time>2022-05-22 18:52:09</time>
      </trkpt>
      <trkpt lat="42.5855" lon="1.13351">
        <ele>951.8</ele>
        <time>2022-05-22 18:52:10</time>
      </trkpt>
      <trkpt lat="42.58555" lon="1.13353">
        <ele>952</ele>
        <time>2022-05-22 18:52:11</time>
      </trkpt>
      <trkpt lat="42.58559" lon="1.13355">
        <ele>952</ele>
        <time>2022-05-22 18:52:12</time>
      </trkpt>
      <trkpt lat="42.58564" lon="1.13356">
        <ele>952.2</ele>
        <time>2022-05-22 18:52:13</time>
      </trkpt>
      <trkpt lat="42.58568" lon="1.13358">
        <ele>952.4</ele>
        <time>2022-05-22 18:52:14</time>
      </trkpt>
      <trkpt lat="42.58572" lon="1.13359">
        <ele>952.4</ele>
        <time>2022-05-22 18:52:15</time>
      </trkpt>
      <trkpt lat="42.58576" lon="1.1336">
        <ele>952.4</ele>
        <time>2022-05-22 18:52:16</time>
      </trkpt>
      <trkpt lat="42.5858" lon="1.13362">
        <ele>952.6</ele>
        <time>2022-05-22 18:52:17</time>
      </trkpt>
      <trkpt lat="42.58584" lon="1.13363">
        <ele>952.6</ele>
        <time>2022-05-22 18:52:18</time>
      </trkpt>
      <trkpt lat="42.58588" lon="1.13364">
        <ele>952.8</ele>
        <time>2022-05-22 18:52:19</time>
      </trkpt>
      <trkpt lat="42.58592" lon="1.13365">
        <ele>953</ele>
        <time>2022-05-22 18:52:20</time>
      </trkpt>
      <trkpt lat="42.58595" lon="1.13366">
        <ele>953</ele>
        <time>2022-05-22 18:52:21</time>
      </trkpt>
      <trkpt lat="42.58599" lon="1.13367">
        <ele>953</ele>
        <time>2022-05-22 18:52:22</time>
      </trkpt>
      <trkpt lat="42.58602" lon="1.13367">
        <ele>953.2</ele>
        <time>2022-05-22 18:52:23</time>
      </trkpt>
      <trkpt lat="42.58606" lon="1.13368">
        <ele>953.2</ele>
        <time>2022-05-22 18:52:24</time>
      </trkpt>
      <trkpt lat="42.5861" lon="1.13368">
        <ele>953.4</ele>
        <time>2022-05-22 18:52:25</time>
      </trkpt>
      <trkpt lat="42.58614" lon="1.13368">
        <ele>953.4</ele>
        <time>2022-05-22 18:52:26</time>
      </trkpt>
      <trkpt lat="42.58618" lon="1.13368">
        <ele>953.4</ele>
        <time>2022-05-22 18:52:27</time>
      </trkpt>
      <trkpt lat="42.58622" lon="1.13368">
        <ele>953.6</ele>
        <time>2022-05-22 18:52:28</time>
      </trkpt>
      <trkpt lat="42.58626" lon="1.13368">
        <ele>953.6</ele>
        <time>2022-05-22 18:52:29</time>
      </trkpt>
      <trkpt lat="42.5863" lon="1.13369">
        <ele>953.6</ele>
        <time>2022-05-22 18:52:30</time>
      </trkpt>
      <trkpt lat="42.58634" lon="1.13369">
        <ele>953.6</ele>
        <time>2022-05-22 18:52:31</time>
      </trkpt>
      <trkpt lat="42.58638" lon="1.13368">
        <ele>953.8</ele>
        <time>2022-05-22 18:52:32</time>
      </trkpt>
      <trkpt lat="42.58643" lon="1.13368">
        <ele>953.8</ele>
        <time>2022-05-22 18:52:33</time>
      </trkpt>
      <trkpt lat="42.58647" lon="1.13367">
        <ele>953.8</ele>
        <time>2022-05-22 18:52:34</time>
      </trkpt>
      <trkpt lat="42.5865" lon="1.13367">
        <ele>953.8</ele>
        <time>2022-05-22 18:52:35</time>
      </trkpt>
      <trkpt lat="42.58654" lon="1.13367">
        <ele>954</ele>
        <time>2022-05-22 18:52:36</time>
      </trkpt>
      <trkpt lat="42.58659" lon="1.13366">
        <ele>954</ele>
        <time>2022-05-22 18:52:37</time>
      </trkpt>
      <trkpt lat="42.58663" lon="1.13366">
        <ele>954</ele>
        <time>2022-05-22 18:52:38</time>
      </trkpt>
      <trkpt lat="42.58667" lon="1.13365">
        <ele>954</ele>
        <time>2022-05-22 18:52:39</time>
      </trkpt>
      <trkpt lat="42.58671" lon="1.13365">
        <ele>954</ele>
        <time>2022-05-22 18:52:40</time>
      </trkpt>
      <trkpt lat="42.58675" lon="1.13364">
        <ele>954.2</ele>
        <time>2022-05-22 18:52:41</time>
      </trkpt>
      <trkpt lat="42.58679" lon="1.13363">
        <ele>954.2</ele>
        <time>2022-05-22 18:52:42</time>
      </trkpt>
      <trkpt lat="42.58683" lon="1.13363">
        <ele>954.2</ele>
        <time>2022-05-22 18:52:43</time>
      </trkpt>
      <trkpt lat="42.58687" lon="1.13362">
        <ele>954.2</ele>
        <time>2022-05-22 18:52:44</time>
      </trkpt>
      <trkpt lat="42.58691" lon="1.13361">
        <ele>954.4</ele>
        <time>2022-05-22 18:52:45</time>
      </trkpt>
      <trkpt lat="42.58695" lon="1.13361">
        <ele>954.4</ele>
        <time>2022-05-22 18:52:46</time>
      </trkpt>
      <trkpt lat="42.58699" lon="1.1336">
        <ele>954.4</ele>
        <time>2022-05-22 18:52:47</time>
      </trkpt>
      <trkpt lat="42.58703" lon="1.1336">
        <ele>954.4</ele>
        <time>2022-05-22 18:52:48</time>
      </trkpt>
      <trkpt lat="42.58707" lon="1.13359">
        <ele>954.6</ele>
        <time>2022-05-22 18:52:49</time>
      </trkpt>
      <trkpt lat="42.58711" lon="1.13358">
        <ele>954.6</ele>
        <time>2022-05-22 18:52:50</time>
      </trkpt>
      <trkpt lat="42.58715" lon="1.13358">
        <ele>954.6</ele>
        <time>2022-05-22 18:52:51</time>
      </trkpt>
      <trkpt lat="42.58719" lon="1.13357">
        <ele>954.8</ele>
        <time>2022-05-22 18:52:52</time>
      </trkpt>
      <trkpt lat="42.58723" lon="1.13356">
        <ele>954.8</ele>
        <time>2022-05-22 18:52:53</time>
      </trkpt>
      <trkpt lat="42.58727" lon="1.13356">
        <ele>954.8</ele>
        <time>2022-05-22 18:52:54</time>
      </trkpt>
      <trkpt lat="42.58731" lon="1.13355">
        <ele>955</ele>
        <time>2022-05-22 18:52:55</time>
      </trkpt>
      <trkpt lat="42.58735" lon="1.13354">
        <ele>955</ele>
        <time>2022-05-22 18:52:56</time>
      </trkpt>
      <trkpt lat="42.58739" lon="1.13353">
        <ele>955</ele>
        <time>2022-05-22 18:52:57</time>
      </trkpt>
      <trkpt lat="42.58743" lon="1.13352">
        <ele>955</ele>
        <time>2022-05-22 18:52:58</time>
      </trkpt>
      <trkpt lat="42.58747" lon="1.13352">
        <ele>955.2</ele>
        <time>2022-05-22 18:52:59</time>
      </trkpt>
      <trkpt lat="42.58751" lon="1.13351">
        <ele>955.2</ele>
        <time>2022-05-22 18:53:00</time>
      </trkpt>
      <trkpt lat="42.58755" lon="1.1335">
        <ele>955.2</ele>
        <time>2022-05-22 18:53:01</time>
      </trkpt>
      <trkpt lat="42.58758" lon="1.13349">
        <ele>955.4</ele>
        <time>2022-05-22 18:53:02</time>
      </trkpt>
      <trkpt lat="42.58763" lon="1.13347">
        <ele>955.4</ele>
        <time>2022-05-22 18:53:03</time>
      </trkpt>
      <trkpt lat="42.58767" lon="1.13346">
        <ele>955.4</ele>
        <time>2022-05-22 18:53:04</time>
      </trkpt>
      <trkpt lat="42.58771" lon="1.13345">
        <ele>955.4</ele>
        <time>2022-05-22 18:53:05</time>
      </trkpt>
      <trkpt lat="42.58775" lon="1.13344">
        <ele>955.6</ele>
        <time>2022-05-22 18:53:06</time>
      </trkpt>
      <trkpt lat="42.58779" lon="1.13343">
        <ele>955.6</ele>
        <time>2022-05-22 18:53:07</time>
      </trkpt>
      <trkpt lat="42.58783" lon="1.13342">
        <ele>955.6</ele>
        <time>2022-05-22 18:53:08</time>
      </trkpt>
      <trkpt lat="42.58787" lon="1.13341">
        <ele>955.6</ele>
        <time>2022-05-22 18:53:09</time>
      </trkpt>
      <trkpt lat="42.58791" lon="1.1334">
        <ele>955.6</ele>
        <time>2022-05-22 18:53:10</time>
      </trkpt>
      <trkpt lat="42.58795" lon="1.13338">
        <ele>955.8</ele>
        <time>2022-05-22 18:53:11</time>
      </trkpt>
      <trkpt lat="42.58799" lon="1.13337">
        <ele>955.8</ele>
        <time>2022-05-22 18:53:12</time>
      </trkpt>
      <trkpt lat="42.58803" lon="1.13336">
        <ele>955.8</ele>
        <time>2022-05-22 18:53:13</time>
      </trkpt>
      <trkpt lat="42.58807" lon="1.13335">
        <ele>955.8</ele>
        <time>2022-05-22 18:53:14</time>
      </trkpt>
      <trkpt lat="42.58812" lon="1.13333">
        <ele>955.8</ele>
        <time>2022-05-22 18:53:15</time>
      </trkpt>
      <trkpt lat="42.58816" lon="1.13332">
        <ele>955.8</ele>
        <time>2022-05-22 18:53:16</time>
      </trkpt>
      <trkpt lat="42.5882" lon="1.1333">
        <ele>955.8</ele>
        <time>2022-05-22 18:53:17</time>
      </trkpt>
      <trkpt lat="42.58824" lon="1.13329">
        <ele>955.6</ele>
        <time>2022-05-22 18:53:18</time>
      </trkpt>
      <trkpt lat="42.58829" lon="1.13328">
        <ele>955.6</ele>
        <time>2022-05-22 18:53:19</time>
      </trkpt>
      <trkpt lat="42.58833" lon="1.13326">
        <ele>955.6</ele>
        <time>2022-05-22 18:53:20</time>
      </trkpt>
      <trkpt lat="42.58838" lon="1.13324">
        <ele>955.6</ele>
        <time>2022-05-22 18:53:21</time>
      </trkpt>
      <trkpt lat="42.58842" lon="1.13323">
        <ele>955.6</ele>
        <time>2022-05-22 18:53:22</time>
      </trkpt>
      <trkpt lat="42.58847" lon="1.13321">
        <ele>955.4</ele>
        <time>2022-05-22 18:53:23</time>
      </trkpt>
      <trkpt lat="42.58851" lon="1.1332">
        <ele>955.4</ele>
        <time>2022-05-22 18:53:24</time>
      </trkpt>
      <trkpt lat="42.58856" lon="1.13318">
        <ele>955.4</ele>
        <time>2022-05-22 18:53:25</time>
      </trkpt>
      <trkpt lat="42.58861" lon="1.13317">
        <ele>955.4</ele>
        <time>2022-05-22 18:53:26</time>
      </trkpt>
      <trkpt lat="42.58866" lon="1.13315">
        <ele>955.2</ele>
        <time>2022-05-22 18:53:27</time>
      </trkpt>
      <trkpt lat="42.58871" lon="1.13313">
        <ele>955.2</ele>
        <time>2022-05-22 18:53:28</time>
      </trkpt>
      <trkpt lat="42.58877" lon="1.13311">
        <ele>955</ele>
        <time>2022-05-22 18:53:29</time>
      </trkpt>
      <trkpt lat="42.58882" lon="1.13309">
        <ele>954.8</ele>
        <time>2022-05-22 18:53:30</time>
      </trkpt>
      <trkpt lat="42.58887" lon="1.13308">
        <ele>954.6</ele>
        <time>2022-05-22 18:53:31</time>
      </trkpt>
      <trkpt lat="42.58892" lon="1.13306">
        <ele>954.4</ele>
        <time>2022-05-22 18:53:32</time>
      </trkpt>
      <trkpt lat="42.58898" lon="1.13305">
        <ele>954.4</ele>
        <time>2022-05-22 18:53:33</time>
      </trkpt>
      <trkpt lat="42.58904" lon="1.13304">
        <ele>954.2</ele>
        <time>2022-05-22 18:53:34</time>
      </trkpt>
      <trkpt lat="42.58911" lon="1.13302">
        <ele>954</ele>
        <time>2022-05-22 18:53:35</time>
      </trkpt>
      <trkpt lat="42.58917" lon="1.133">
        <ele>953.8</ele>
        <time>2022-05-22 18:53:36</time>
      </trkpt>
      <trkpt lat="42.58923" lon="1.13299">
        <ele>953.4</ele>
        <time>2022-05-22 18:53:37</time>
      </trkpt>
      <trkpt lat="42.58928" lon="1.13297">
        <ele>953.2</ele>
        <time>2022-05-22 18:53:38</time>
      </trkpt>
      <trkpt lat="42.58934" lon="1.13296">
        <ele>952.8</ele>
        <time>2022-05-22 18:53:39</time>
      </trkpt>
      <trkpt lat="42.5894" lon="1.13294">
        <ele>952.6</ele>
        <time>2022-05-22 18:53:40</time>
      </trkpt>
      <trkpt lat="42.58948" lon="1.13292">
        <ele>952.2</ele>
        <time>2022-05-22 18:53:41</time>
      </trkpt>
      <trkpt lat="42.58955" lon="1.1329">
        <ele>952</ele>
        <time>2022-05-22 18:53:42</time>
      </trkpt>
      <trkpt lat="42.58963" lon="1.13287">
        <ele>951.6</ele>
        <time>2022-05-22 18:53:43</time>
      </trkpt>
      <trkpt lat="42.58971" lon="1.13285">
        <ele>951.2</ele>
        <time>2022-05-22 18:53:44</time>
      </trkpt>
      <trkpt lat="42.58979" lon="1.13283">
        <ele>951</ele>
        <time>2022-05-22 18:53:45</time>
      </trkpt>
      <trkpt lat="42.58987" lon="1.13281">
        <ele>950.6</ele>
        <time>2022-05-22 18:53:46</time>
      </trkpt>
      <trkpt lat="42.58995" lon="1.13279">
        <ele>950.2</ele>
        <time>2022-05-22 18:53:47</time>
      </trkpt>
      <trkpt lat="42.59002" lon="1.13277">
        <ele>950</ele>
        <time>2022-05-22 18:53:48</time>
      </trkpt>
      <trkpt lat="42.59011" lon="1.13275">
        <ele>949.6</ele>
        <time>2022-05-22 18:53:49</time>
      </trkpt>
      <trkpt lat="42.59019" lon="1.13274">
        <ele>949.4</ele>
        <time>2022-05-22 18:53:50</time>
      </trkpt>
      <trkpt lat="42.59026" lon="1.13272">
        <ele>949.4</ele>
        <time>2022-05-22 18:53:51</time>
      </trkpt>
      <trkpt lat="42.59033" lon="1.1327">
        <ele>949.2</ele>
        <time>2022-05-22 18:53:52</time>
      </trkpt>
      <trkpt lat="42.5904" lon="1.13268">
        <ele>949</ele>
        <time>2022-05-22 18:53:53</time>
      </trkpt>
      <trkpt lat="42.59047" lon="1.13267">
        <ele>949</ele>
        <time>2022-05-22 18:53:54</time>
      </trkpt>
      <trkpt lat="42.59054" lon="1.13265">
        <ele>949</ele>
        <time>2022-05-22 18:53:55</time>
      </trkpt>
      <trkpt lat="42.59061" lon="1.13264">
        <ele>949</ele>
        <time>2022-05-22 18:53:56</time>
      </trkpt>
      <trkpt lat="42.59068" lon="1.13263">
        <ele>949</ele>
        <time>2022-05-22 18:53:57</time>
      </trkpt>
      <trkpt lat="42.59075" lon="1.13261">
        <ele>949</ele>
        <time>2022-05-22 18:53:58</time>
      </trkpt>
      <trkpt lat="42.59082" lon="1.1326">
        <ele>949</ele>
        <time>2022-05-22 18:53:59</time>
      </trkpt>
      <trkpt lat="42.59088" lon="1.13258">
        <ele>949</ele>
        <time>2022-05-22 18:54:00</time>
      </trkpt>
      <trkpt lat="42.59094" lon="1.13257">
        <ele>949</ele>
        <time>2022-05-22 18:54:01</time>
      </trkpt>
      <trkpt lat="42.59099" lon="1.13256">
        <ele>949</ele>
        <time>2022-05-22 18:54:02</time>
      </trkpt>
      <trkpt lat="42.59106" lon="1.13254">
        <ele>949.2</ele>
        <time>2022-05-22 18:54:03</time>
      </trkpt>
      <trkpt lat="42.59111" lon="1.13253">
        <ele>949.2</ele>
        <time>2022-05-22 18:54:04</time>
      </trkpt>
      <trkpt lat="42.59118" lon="1.13252">
        <ele>949.2</ele>
        <time>2022-05-22 18:54:05</time>
      </trkpt>
      <trkpt lat="42.59123" lon="1.13251">
        <ele>949.2</ele>
        <time>2022-05-22 18:54:06</time>
      </trkpt>
      <trkpt lat="42.59129" lon="1.1325">
        <ele>949.2</ele>
        <time>2022-05-22 18:54:07</time>
      </trkpt>
      <trkpt lat="42.59135" lon="1.13248">
        <ele>949.4</ele>
        <time>2022-05-22 18:54:08</time>
      </trkpt>
      <trkpt lat="42.59141" lon="1.13247">
        <ele>949.4</ele>
        <time>2022-05-22 18:54:09</time>
      </trkpt>
      <trkpt lat="42.59146" lon="1.13246">
        <ele>949.4</ele>
        <time>2022-05-22 18:54:10</time>
      </trkpt>
      <trkpt lat="42.59151" lon="1.13245">
        <ele>949.4</ele>
        <time>2022-05-22 18:54:11</time>
      </trkpt>
      <trkpt lat="42.59157" lon="1.13244">
        <ele>949.4</ele>
        <time>2022-05-22 18:54:12</time>
      </trkpt>
      <trkpt lat="42.59162" lon="1.13243">
        <ele>949.4</ele>
        <time>2022-05-22 18:54:13</time>
      </trkpt>
      <trkpt lat="42.59167" lon="1.13241">
        <ele>949.4</ele>
        <time>2022-05-22 18:54:14</time>
      </trkpt>
      <trkpt lat="42.59173" lon="1.1324">
        <ele>949.4</ele>
        <time>2022-05-22 18:54:15</time>
      </trkpt>
      <trkpt lat="42.59179" lon="1.13239">
        <ele>949.4</ele>
        <time>2022-05-22 18:54:16</time>
      </trkpt>
      <trkpt lat="42.59184" lon="1.13238">
        <ele>949.4</ele>
        <time>2022-05-22 18:54:17</time>
      </trkpt>
      <trkpt lat="42.5919" lon="1.13236">
        <ele>949.4</ele>
        <time>2022-05-22 18:54:18</time>
      </trkpt>
      <trkpt lat="42.59195" lon="1.13235">
        <ele>949.4</ele>
        <time>2022-05-22 18:54:19</time>
      </trkpt>
      <trkpt lat="42.59201" lon="1.13234">
        <ele>949.4</ele>
        <time>2022-05-22 18:54:20</time>
      </trkpt>
      <trkpt lat="42.59206" lon="1.13233">
        <ele>949.4</ele>
        <time>2022-05-22 18:54:21</time>
      </trkpt>
      <trkpt lat="42.59212" lon="1.13232">
        <ele>949.6</ele>
        <time>2022-05-22 18:54:22</time>
      </trkpt>
      <trkpt lat="42.59217" lon="1.13231">
        <ele>949.6</ele>
        <time>2022-05-22 18:54:23</time>
      </trkpt>
      <trkpt lat="42.59223" lon="1.1323">
        <ele>949.6</ele>
        <time>2022-05-22 18:54:24</time>
      </trkpt>
      <trkpt lat="42.59228" lon="1.13228">
        <ele>949.6</ele>
        <time>2022-05-22 18:54:25</time>
      </trkpt>
      <trkpt lat="42.59234" lon="1.13227">
        <ele>949.8</ele>
        <time>2022-05-22 18:54:26</time>
      </trkpt>
      <trkpt lat="42.59239" lon="1.13226">
        <ele>949.8</ele>
        <time>2022-05-22 18:54:27</time>
      </trkpt>
      <trkpt lat="42.59244" lon="1.13224">
        <ele>949.8</ele>
        <time>2022-05-22 18:54:28</time>
      </trkpt>
      <trkpt lat="42.59249" lon="1.13223">
        <ele>949.8</ele>
        <time>2022-05-22 18:54:29</time>
      </trkpt>
      <trkpt lat="42.59254" lon="1.13223">
        <ele>949.8</ele>
        <time>2022-05-22 18:54:30</time>
      </trkpt>
      <trkpt lat="42.59259" lon="1.13222">
        <ele>950</ele>
        <time>2022-05-22 18:54:31</time>
      </trkpt>
      <trkpt lat="42.59264" lon="1.13221">
        <ele>950</ele>
        <time>2022-05-22 18:54:32</time>
      </trkpt>
      <trkpt lat="42.59269" lon="1.13221">
        <ele>950.2</ele>
        <time>2022-05-22 18:54:33</time>
      </trkpt>
      <trkpt lat="42.59274" lon="1.1322">
        <ele>950.2</ele>
        <time>2022-05-22 18:54:34</time>
      </trkpt>
      <trkpt lat="42.59279" lon="1.13219">
        <ele>950.4</ele>
        <time>2022-05-22 18:54:35</time>
      </trkpt>
      <trkpt lat="42.59283" lon="1.13218">
        <ele>950.6</ele>
        <time>2022-05-22 18:54:36</time>
      </trkpt>
      <trkpt lat="42.59289" lon="1.13217">
        <ele>950.6</ele>
        <time>2022-05-22 18:54:37</time>
      </trkpt>
      <trkpt lat="42.59293" lon="1.13216">
        <ele>950.8</ele>
        <time>2022-05-22 18:54:38</time>
      </trkpt>
      <trkpt lat="42.59298" lon="1.13215">
        <ele>951</ele>
        <time>2022-05-22 18:54:39</time>
      </trkpt>
      <trkpt lat="42.59303" lon="1.13215">
        <ele>951</ele>
        <time>2022-05-22 18:54:40</time>
      </trkpt>
      <trkpt lat="42.59307" lon="1.13213">
        <ele>951.2</ele>
        <time>2022-05-22 18:54:41</time>
      </trkpt>
      <trkpt lat="42.59312" lon="1.13212">
        <ele>951.4</ele>
        <time>2022-05-22 18:54:42</time>
      </trkpt>
      <trkpt lat="42.59316" lon="1.13211">
        <ele>951.4</ele>
        <time>2022-05-22 18:54:43</time>
      </trkpt>
      <trkpt lat="42.59321" lon="1.13211">
        <ele>951.6</ele>
        <time>2022-05-22 18:54:44</time>
      </trkpt>
      <trkpt lat="42.59325" lon="1.1321">
        <ele>951.8</ele>
        <time>2022-05-22 18:54:45</time>
      </trkpt>
      <trkpt lat="42.5933" lon="1.13209">
        <ele>952</ele>
        <time>2022-05-22 18:54:46</time>
      </trkpt>
      <trkpt lat="42.59335" lon="1.13208">
        <ele>952.2</ele>
        <time>2022-05-22 18:54:47</time>
      </trkpt>
      <trkpt lat="42.59339" lon="1.13207">
        <ele>952.4</ele>
        <time>2022-05-22 18:54:48</time>
      </trkpt>
      <trkpt lat="42.59343" lon="1.13205">
        <ele>952.4</ele>
        <time>2022-05-22 18:54:49</time>
      </trkpt>
      <trkpt lat="42.59348" lon="1.13204">
        <ele>952.6</ele>
        <time>2022-05-22 18:54:50</time>
      </trkpt>
      <trkpt lat="42.59353" lon="1.13203">
        <ele>952.8</ele>
        <time>2022-05-22 18:54:51</time>
      </trkpt>
      <trkpt lat="42.59358" lon="1.13202">
        <ele>952.8</ele>
        <time>2022-05-22 18:54:52</time>
      </trkpt>
      <trkpt lat="42.59362" lon="1.13201">
        <ele>953</ele>
        <time>2022-05-22 18:54:53</time>
      </trkpt>
      <trkpt lat="42.59367" lon="1.132">
        <ele>953.2</ele>
        <time>2022-05-22 18:54:54</time>
      </trkpt>
      <trkpt lat="42.59371" lon="1.13199">
        <ele>953.4</ele>
        <time>2022-05-22 18:54:55</time>
      </trkpt>
      <trkpt lat="42.59376" lon="1.13198">
        <ele>953.4</ele>
        <time>2022-05-22 18:54:56</time>
      </trkpt>
      <trkpt lat="42.5938" lon="1.13197">
        <ele>953.6</ele>
        <time>2022-05-22 18:54:57</time>
      </trkpt>
      <trkpt lat="42.59385" lon="1.13196">
        <ele>953.6</ele>
        <time>2022-05-22 18:54:58</time>
      </trkpt>
      <trkpt lat="42.59389" lon="1.13196">
        <ele>953.8</ele>
        <time>2022-05-22 18:54:59</time>
      </trkpt>
      <trkpt lat="42.59393" lon="1.13195">
        <ele>953.8</ele>
        <time>2022-05-22 18:55:00</time>
      </trkpt>
      <trkpt lat="42.59398" lon="1.13194">
        <ele>953.8</ele>
        <time>2022-05-22 18:55:01</time>
      </trkpt>
      <trkpt lat="42.59403" lon="1.13193">
        <ele>954</ele>
        <time>2022-05-22 18:55:02</time>
      </trkpt>
      <trkpt lat="42.59407" lon="1.13191">
        <ele>954</ele>
        <time>2022-05-22 18:55:03</time>
      </trkpt>
      <trkpt lat="42.59412" lon="1.1319">
        <ele>954</ele>
        <time>2022-05-22 18:55:04</time>
      </trkpt>
      <trkpt lat="42.59417" lon="1.13188">
        <ele>954</ele>
        <time>2022-05-22 18:55:05</time>
      </trkpt>
      <trkpt lat="42.59422" lon="1.13186">
        <ele>954</ele>
        <time>2022-05-22 18:55:06</time>
      </trkpt>
      <trkpt lat="42.59427" lon="1.13185">
        <ele>954</ele>
        <time>2022-05-22 18:55:07</time>
      </trkpt>
      <trkpt lat="42.59432" lon="1.13183">
        <ele>954</ele>
        <time>2022-05-22 18:55:08</time>
      </trkpt>
      <trkpt lat="42.59436" lon="1.13181">
        <ele>954</ele>
        <time>2022-05-22 18:55:09</time>
      </trkpt>
      <trkpt lat="42.59442" lon="1.1318">
        <ele>953.8</ele>
        <time>2022-05-22 18:55:10</time>
      </trkpt>
      <trkpt lat="42.59447" lon="1.13178">
        <ele>953.8</ele>
        <time>2022-05-22 18:55:11</time>
      </trkpt>
      <trkpt lat="42.59452" lon="1.13177">
        <ele>953.6</ele>
        <time>2022-05-22 18:55:12</time>
      </trkpt>
      <trkpt lat="42.59457" lon="1.13175">
        <ele>953.6</ele>
        <time>2022-05-22 18:55:13</time>
      </trkpt>
      <trkpt lat="42.59463" lon="1.13173">
        <ele>953.6</ele>
        <time>2022-05-22 18:55:14</time>
      </trkpt>
      <trkpt lat="42.59468" lon="1.13171">
        <ele>953.4</ele>
        <time>2022-05-22 18:55:15</time>
      </trkpt>
      <trkpt lat="42.59472" lon="1.13168">
        <ele>953.4</ele>
        <time>2022-05-22 18:55:16</time>
      </trkpt>
      <trkpt lat="42.59477" lon="1.13166">
        <ele>953.2</ele>
        <time>2022-05-22 18:55:17</time>
      </trkpt>
      <trkpt lat="42.59483" lon="1.13164">
        <ele>953</ele>
        <time>2022-05-22 18:55:18</time>
      </trkpt>
      <trkpt lat="42.59488" lon="1.13162">
        <ele>952.8</ele>
        <time>2022-05-22 18:55:19</time>
      </trkpt>
      <trkpt lat="42.59495" lon="1.13159">
        <ele>952.8</ele>
        <time>2022-05-22 18:55:20</time>
      </trkpt>
      <trkpt lat="42.59502" lon="1.13157">
        <ele>952.6</ele>
        <time>2022-05-22 18:55:21</time>
      </trkpt>
      <trkpt lat="42.59508" lon="1.13156">
        <ele>952.4</ele>
        <time>2022-05-22 18:55:22</time>
      </trkpt>
      <trkpt lat="42.59514" lon="1.13154">
        <ele>952.2</ele>
        <time>2022-05-22 18:55:23</time>
      </trkpt>
      <trkpt lat="42.59521" lon="1.13151">
        <ele>952.2</ele>
        <time>2022-05-22 18:55:24</time>
      </trkpt>
      <trkpt lat="42.59527" lon="1.13149">
        <ele>952</ele>
        <time>2022-05-22 18:55:25</time>
      </trkpt>
      <trkpt lat="42.59534" lon="1.13147">
        <ele>951.8</ele>
        <time>2022-05-22 18:55:26</time>
      </trkpt>
      <trkpt lat="42.5954" lon="1.13144">
        <ele>951.6</ele>
        <time>2022-05-22 18:55:27</time>
      </trkpt>
      <trkpt lat="42.59548" lon="1.13142">
        <ele>951.4</ele>
        <time>2022-05-22 18:55:28</time>
      </trkpt>
      <trkpt lat="42.59555" lon="1.13139">
        <ele>951.2</ele>
        <time>2022-05-22 18:55:29</time>
      </trkpt>
      <trkpt lat="42.59562" lon="1.13136">
        <ele>951</ele>
        <time>2022-05-22 18:55:30</time>
      </trkpt>
      <trkpt lat="42.59568" lon="1.13134">
        <ele>950.8</ele>
        <time>2022-05-22 18:55:31</time>
      </trkpt>
      <trkpt lat="42.59576" lon="1.13131">
        <ele>950.8</ele>
        <time>2022-05-22 18:55:32</time>
      </trkpt>
      <trkpt lat="42.59582" lon="1.13128">
        <ele>950.6</ele>
        <time>2022-05-22 18:55:33</time>
      </trkpt>
      <trkpt lat="42.5959" lon="1.13125">
        <ele>950.4</ele>
        <time>2022-05-22 18:55:34</time>
      </trkpt>
      <trkpt lat="42.59596" lon="1.13122">
        <ele>950.2</ele>
        <time>2022-05-22 18:55:35</time>
      </trkpt>
      <trkpt lat="42.59603" lon="1.1312">
        <ele>950.2</ele>
        <time>2022-05-22 18:55:36</time>
      </trkpt>
      <trkpt lat="42.59609" lon="1.13117">
        <ele>950</ele>
        <time>2022-05-22 18:55:37</time>
      </trkpt>
      <trkpt lat="42.59616" lon="1.13114">
        <ele>950</ele>
        <time>2022-05-22 18:55:38</time>
      </trkpt>
      <trkpt lat="42.59622" lon="1.13111">
        <ele>950</ele>
        <time>2022-05-22 18:55:39</time>
      </trkpt>
      <trkpt lat="42.59628" lon="1.13108">
        <ele>949.8</ele>
        <time>2022-05-22 18:55:40</time>
      </trkpt>
      <trkpt lat="42.59634" lon="1.13106">
        <ele>949.8</ele>
        <time>2022-05-22 18:55:41</time>
      </trkpt>
      <trkpt lat="42.59641" lon="1.13103">
        <ele>949.8</ele>
        <time>2022-05-22 18:55:42</time>
      </trkpt>
      <trkpt lat="42.59647" lon="1.13101">
        <ele>949.8</ele>
        <time>2022-05-22 18:55:43</time>
      </trkpt>
      <trkpt lat="42.59653" lon="1.13098">
        <ele>949.8</ele>
        <time>2022-05-22 18:55:44</time>
      </trkpt>
      <trkpt lat="42.59659" lon="1.13096">
        <ele>949.8</ele>
        <time>2022-05-22 18:55:45</time>
      </trkpt>
      <trkpt lat="42.59666" lon="1.13093">
        <ele>949.8</ele>
        <time>2022-05-22 18:55:46</time>
      </trkpt>
      <trkpt lat="42.59671" lon="1.13091">
        <ele>949.8</ele>
        <time>2022-05-22 18:55:47</time>
      </trkpt>
      <trkpt lat="42.59678" lon="1.13088">
        <ele>949.8</ele>
        <time>2022-05-22 18:55:48</time>
      </trkpt>
      <trkpt lat="42.59683" lon="1.13086">
        <ele>949.8</ele>
        <time>2022-05-22 18:55:49</time>
      </trkpt>
      <trkpt lat="42.59689" lon="1.13083">
        <ele>949.8</ele>
        <time>2022-05-22 18:55:50</time>
      </trkpt>
      <trkpt lat="42.59695" lon="1.1308">
        <ele>949.8</ele>
        <time>2022-05-22 18:55:51</time>
      </trkpt>
      <trkpt lat="42.59701" lon="1.13078">
        <ele>950</ele>
        <time>2022-05-22 18:55:52</time>
      </trkpt>
      <trkpt lat="42.59706" lon="1.13076">
        <ele>950</ele>
        <time>2022-05-22 18:55:53</time>
      </trkpt>
      <trkpt lat="42.59712" lon="1.13073">
        <ele>950</ele>
        <time>2022-05-22 18:55:54</time>
      </trkpt>
      <trkpt lat="42.59718" lon="1.13071">
        <ele>950</ele>
        <time>2022-05-22 18:55:55</time>
      </trkpt>
      <trkpt lat="42.59724" lon="1.13069">
        <ele>950</ele>
        <time>2022-05-22 18:55:56</time>
      </trkpt>
      <trkpt lat="42.59729" lon="1.13066">
        <ele>950</ele>
        <time>2022-05-22 18:55:57</time>
      </trkpt>
      <trkpt lat="42.59735" lon="1.13064">
        <ele>950</ele>
        <time>2022-05-22 18:55:58</time>
      </trkpt>
      <trkpt lat="42.5974" lon="1.13062">
        <ele>950</ele>
        <time>2022-05-22 18:55:59</time>
      </trkpt>
      <trkpt lat="42.59746" lon="1.13059">
        <ele>950</ele>
        <time>2022-05-22 18:56:00</time>
      </trkpt>
      <trkpt lat="42.59752" lon="1.13057">
        <ele>950</ele>
        <time>2022-05-22 18:56:01</time>
      </trkpt>
      <trkpt lat="42.59758" lon="1.13055">
        <ele>950</ele>
        <time>2022-05-22 18:56:02</time>
      </trkpt>
      <trkpt lat="42.59763" lon="1.13053">
        <ele>950</ele>
        <time>2022-05-22 18:56:03</time>
      </trkpt>
      <trkpt lat="42.59769" lon="1.1305">
        <ele>950</ele>
        <time>2022-05-22 18:56:04</time>
      </trkpt>
      <trkpt lat="42.59774" lon="1.13048">
        <ele>950</ele>
        <time>2022-05-22 18:56:05</time>
      </trkpt>
      <trkpt lat="42.59781" lon="1.13045">
        <ele>950</ele>
        <time>2022-05-22 18:56:06</time>
      </trkpt>
      <trkpt lat="42.59786" lon="1.13043">
        <ele>950</ele>
        <time>2022-05-22 18:56:07</time>
      </trkpt>
      <trkpt lat="42.59792" lon="1.13041">
        <ele>949.8</ele>
        <time>2022-05-22 18:56:08</time>
      </trkpt>
      <trkpt lat="42.59797" lon="1.1304">
        <ele>949.8</ele>
        <time>2022-05-22 18:56:09</time>
      </trkpt>
      <trkpt lat="42.59803" lon="1.13039">
        <ele>949.8</ele>
        <time>2022-05-22 18:56:10</time>
      </trkpt>
      <trkpt lat="42.59809" lon="1.13038">
        <ele>949.8</ele>
        <time>2022-05-22 18:56:11</time>
      </trkpt>
      <trkpt lat="42.59815" lon="1.13037">
        <ele>949.8</ele>
        <time>2022-05-22 18:56:12</time>
      </trkpt>
      <trkpt lat="42.59821" lon="1.13037">
        <ele>949.6</ele>
        <time>2022-05-22 18:56:13</time>
      </trkpt>
      <trkpt lat="42.59827" lon="1.13038">
        <ele>949.4</ele>
        <time>2022-05-22 18:56:14</time>
      </trkpt>
      <trkpt lat="42.59833" lon="1.13039">
        <ele>949.2</ele>
        <time>2022-05-22 18:56:15</time>
      </trkpt>
      <trkpt lat="42.59838" lon="1.13041">
        <ele>949.2</ele>
        <time>2022-05-22 18:56:16</time>
      </trkpt>
      <trkpt lat="42.59844" lon="1.13042">
        <ele>949.2</ele>
        <time>2022-05-22 18:56:17</time>
      </trkpt>
      <trkpt lat="42.5985" lon="1.13044">
        <ele>949.4</ele>
        <time>2022-05-22 18:56:18</time>
      </trkpt>
      <trkpt lat="42.59855" lon="1.13046">
        <ele>949.4</ele>
        <time>2022-05-22 18:56:19</time>
      </trkpt>
      <trkpt lat="42.59861" lon="1.13048">
        <ele>949.4</ele>
        <time>2022-05-22 18:56:20</time>
      </trkpt>
      <trkpt lat="42.59866" lon="1.1305">
        <ele>949.4</ele>
        <time>2022-05-22 18:56:21</time>
      </trkpt>
      <trkpt lat="42.59871" lon="1.13052">
        <ele>949.4</ele>
        <time>2022-05-22 18:56:22</time>
      </trkpt>
      <trkpt lat="42.59876" lon="1.13054">
        <ele>949.4</ele>
        <time>2022-05-22 18:56:23</time>
      </trkpt>
      <trkpt lat="42.59881" lon="1.13056">
        <ele>949.4</ele>
        <time>2022-05-22 18:56:24</time>
      </trkpt>
      <trkpt lat="42.59887" lon="1.13057">
        <ele>949.6</ele>
        <time>2022-05-22 18:56:25</time>
      </trkpt>
      <trkpt lat="42.59892" lon="1.13059">
        <ele>949.6</ele>
        <time>2022-05-22 18:56:26</time>
      </trkpt>
      <trkpt lat="42.59897" lon="1.13061">
        <ele>949.6</ele>
        <time>2022-05-22 18:56:27</time>
      </trkpt>
      <trkpt lat="42.59902" lon="1.13063">
        <ele>949.8</ele>
        <time>2022-05-22 18:56:28</time>
      </trkpt>
      <trkpt lat="42.59907" lon="1.13064">
        <ele>949.8</ele>
        <time>2022-05-22 18:56:29</time>
      </trkpt>
      <trkpt lat="42.59913" lon="1.13066">
        <ele>949.8</ele>
        <time>2022-05-22 18:56:30</time>
      </trkpt>
      <trkpt lat="42.59918" lon="1.13068">
        <ele>950</ele>
        <time>2022-05-22 18:56:31</time>
      </trkpt>
      <trkpt lat="42.59924" lon="1.13068">
        <ele>950</ele>
        <time>2022-05-22 18:56:32</time>
      </trkpt>
      <trkpt lat="42.5993" lon="1.13069">
        <ele>950</ele>
        <time>2022-05-22 18:56:33</time>
      </trkpt>
      <trkpt lat="42.59935" lon="1.1307">
        <ele>950</ele>
        <time>2022-05-22 18:56:34</time>
      </trkpt>
      <trkpt lat="42.59941" lon="1.13069">
        <ele>950</ele>
        <time>2022-05-22 18:56:35</time>
      </trkpt>
      <trkpt lat="42.59947" lon="1.13069">
        <ele>950</ele>
        <time>2022-05-22 18:56:36</time>
      </trkpt>
      <trkpt lat="42.59953" lon="1.13068">
        <ele>950.2</ele>
        <time>2022-05-22 18:56:37</time>
      </trkpt>
      <trkpt lat="42.59958" lon="1.13067">
        <ele>950.2</ele>
        <time>2022-05-22 18:56:38</time>
      </trkpt>
      <trkpt lat="42.59964" lon="1.13066">
        <ele>950.2</ele>
        <time>2022-05-22 18:56:39</time>
      </trkpt>
      <trkpt lat="42.59969" lon="1.13064">
        <ele>950.2</ele>
        <time>2022-05-22 18:56:40</time>
      </trkpt>
      <trkpt lat="42.59974" lon="1.13062">
        <ele>950.2</ele>
        <time>2022-05-22 18:56:41</time>
      </trkpt>
      <trkpt lat="42.5998" lon="1.13061">
        <ele>950.2</ele>
        <time>2022-05-22 18:56:42</time>
      </trkpt>
      <trkpt lat="42.59985" lon="1.13058">
        <ele>950.2</ele>
        <time>2022-05-22 18:56:43</time>
      </trkpt>
      <trkpt lat="42.5999" lon="1.13055">
        <ele>950</ele>
        <time>2022-05-22 18:56:44</time>
      </trkpt>
      <trkpt lat="42.59995" lon="1.13052">
        <ele>950</ele>
        <time>2022-05-22 18:56:45</time>
      </trkpt>
      <trkpt lat="42.60001" lon="1.13049">
        <ele>950</ele>
        <time>2022-05-22 18:56:46</time>
      </trkpt>
      <trkpt lat="42.60006" lon="1.13046">
        <ele>950</ele>
        <time>2022-05-22 18:56:47</time>
      </trkpt>
      <trkpt lat="42.60012" lon="1.13043">
        <ele>949.8</ele>
        <time>2022-05-22 18:56:48</time>
      </trkpt>
      <trkpt lat="42.60017" lon="1.13039">
        <ele>949.8</ele>
        <time>2022-05-22 18:56:49</time>
      </trkpt>
      <trkpt lat="42.60022" lon="1.13035">
        <ele>949.8</ele>
        <time>2022-05-22 18:56:50</time>
      </trkpt>
      <trkpt lat="42.60027" lon="1.13031">
        <ele>949.8</ele>
        <time>2022-05-22 18:56:51</time>
      </trkpt>
      <trkpt lat="42.60032" lon="1.13027">
        <ele>949.8</ele>
        <time>2022-05-22 18:56:52</time>
      </trkpt>
      <trkpt lat="42.60037" lon="1.13023">
        <ele>949.8</ele>
        <time>2022-05-22 18:56:53</time>
      </trkpt>
      <trkpt lat="42.60042" lon="1.1302">
        <ele>949.8</ele>
        <time>2022-05-22 18:56:54</time>
      </trkpt>
      <trkpt lat="42.60048" lon="1.13016">
        <ele>949.8</ele>
        <time>2022-05-22 18:56:55</time>
      </trkpt>
      <trkpt lat="42.60053" lon="1.13013">
        <ele>949.8</ele>
        <time>2022-05-22 18:56:56</time>
      </trkpt>
      <trkpt lat="42.60058" lon="1.13009">
        <ele>949.8</ele>
        <time>2022-05-22 18:56:57</time>
      </trkpt>
      <trkpt lat="42.60063" lon="1.13006">
        <ele>949.8</ele>
        <time>2022-05-22 18:56:58</time>
      </trkpt>
      <trkpt lat="42.60069" lon="1.13003">
        <ele>949.6</ele>
        <time>2022-05-22 18:56:59</time>
      </trkpt>
      <trkpt lat="42.60074" lon="1.13001">
        <ele>949.6</ele>
        <time>2022-05-22 18:57:00</time>
      </trkpt>
      <trkpt lat="42.60079" lon="1.12999">
        <ele>949.6</ele>
        <time>2022-05-22 18:57:01</time>
      </trkpt>
      <trkpt lat="42.60084" lon="1.12996">
        <ele>949.6</ele>
        <time>2022-05-22 18:57:02</time>
      </trkpt>
      <trkpt lat="42.60089" lon="1.12995">
        <ele>949.6</ele>
        <time>2022-05-22 18:57:03</time>
      </trkpt>
      <trkpt lat="42.60095" lon="1.12994">
        <ele>949.6</ele>
        <time>2022-05-22 18:57:04</time>
      </trkpt>
      <trkpt lat="42.601" lon="1.12993">
        <ele>949.6</ele>
        <time>2022-05-22 18:57:05</time>
      </trkpt>
      <trkpt lat="42.60105" lon="1.12993">
        <ele>949.8</ele>
        <time>2022-05-22 18:57:06</time>
      </trkpt>
      <trkpt lat="42.6011" lon="1.12992">
        <ele>949.8</ele>
        <time>2022-05-22 18:57:07</time>
      </trkpt>
      <trkpt lat="42.60116" lon="1.12993">
        <ele>949.8</ele>
        <time>2022-05-22 18:57:08</time>
      </trkpt>
      <trkpt lat="42.60121" lon="1.12993">
        <ele>949.8</ele>
        <time>2022-05-22 18:57:09</time>
      </trkpt>
      <trkpt lat="42.60126" lon="1.12993">
        <ele>949.8</ele>
        <time>2022-05-22 18:57:10</time>
      </trkpt>
      <trkpt lat="42.60131" lon="1.12994">
        <ele>949.8</ele>
        <time>2022-05-22 18:57:11</time>
      </trkpt>
      <trkpt lat="42.60136" lon="1.12994">
        <ele>950</ele>
        <time>2022-05-22 18:57:12</time>
      </trkpt>
      <trkpt lat="42.60141" lon="1.12995">
        <ele>950</ele>
        <time>2022-05-22 18:57:13</time>
      </trkpt>
      <trkpt lat="42.60146" lon="1.12996">
        <ele>950</ele>
        <time>2022-05-22 18:57:14</time>
      </trkpt>
      <trkpt lat="42.60151" lon="1.12997">
        <ele>950.2</ele>
        <time>2022-05-22 18:57:15</time>
      </trkpt>
      <trkpt lat="42.60155" lon="1.12999">
        <ele>950.2</ele>
        <time>2022-05-22 18:57:16</time>
      </trkpt>
      <trkpt lat="42.6016" lon="1.13">
        <ele>950.2</ele>
        <time>2022-05-22 18:57:17</time>
      </trkpt>
      <trkpt lat="42.60165" lon="1.13001">
        <ele>950.2</ele>
        <time>2022-05-22 18:57:18</time>
      </trkpt>
      <trkpt lat="42.6017" lon="1.13003">
        <ele>950.4</ele>
        <time>2022-05-22 18:57:19</time>
      </trkpt>
      <trkpt lat="42.60174" lon="1.13005">
        <ele>950.4</ele>
        <time>2022-05-22 18:57:20</time>
      </trkpt>
      <trkpt lat="42.60178" lon="1.13006">
        <ele>950.4</ele>
        <time>2022-05-22 18:57:21</time>
      </trkpt>
      <trkpt lat="42.60183" lon="1.13008">
        <ele>950.6</ele>
        <time>2022-05-22 18:57:22</time>
      </trkpt>
      <trkpt lat="42.60188" lon="1.1301">
        <ele>950.6</ele>
        <time>2022-05-22 18:57:23</time>
      </trkpt>
      <trkpt lat="42.60192" lon="1.13012">
        <ele>950.6</ele>
        <time>2022-05-22 18:57:24</time>
      </trkpt>
      <trkpt lat="42.60196" lon="1.13013">
        <ele>950.8</ele>
        <time>2022-05-22 18:57:25</time>
      </trkpt>
      <trkpt lat="42.60201" lon="1.13015">
        <ele>950.8</ele>
        <time>2022-05-22 18:57:26</time>
      </trkpt>
      <trkpt lat="42.60205" lon="1.13016">
        <ele>950.8</ele>
        <time>2022-05-22 18:57:27</time>
      </trkpt>
      <trkpt lat="42.60209" lon="1.13017">
        <ele>950.8</ele>
        <time>2022-05-22 18:57:28</time>
      </trkpt>
      <trkpt lat="42.60213" lon="1.13018">
        <ele>951</ele>
        <time>2022-05-22 18:57:29</time>
      </trkpt>
      <trkpt lat="42.60218" lon="1.13019">
        <ele>951</ele>
        <time>2022-05-22 18:57:30</time>
      </trkpt>
      <trkpt lat="42.60222" lon="1.13019">
        <ele>951</ele>
        <time>2022-05-22 18:57:31</time>
      </trkpt>
      <trkpt lat="42.60226" lon="1.1302">
        <ele>951</ele>
        <time>2022-05-22 18:57:32</time>
      </trkpt>
      <trkpt lat="42.60231" lon="1.13021">
        <ele>951</ele>
        <time>2022-05-22 18:57:33</time>
      </trkpt>
      <trkpt lat="42.60235" lon="1.13021">
        <ele>951</ele>
        <time>2022-05-22 18:57:34</time>
      </trkpt>
      <trkpt lat="42.60239" lon="1.13021">
        <ele>951</ele>
        <time>2022-05-22 18:57:35</time>
      </trkpt>
      <trkpt lat="42.60244" lon="1.13021">
        <ele>951.2</ele>
        <time>2022-05-22 18:57:36</time>
      </trkpt>
      <trkpt lat="42.60248" lon="1.1302">
        <ele>951.2</ele>
        <time>2022-05-22 18:57:37</time>
      </trkpt>
      <trkpt lat="42.60252" lon="1.1302">
        <ele>951.2</ele>
        <time>2022-05-22 18:57:38</time>
      </trkpt>
      <trkpt lat="42.60257" lon="1.13019">
        <ele>951.2</ele>
        <time>2022-05-22 18:57:39</time>
      </trkpt>
      <trkpt lat="42.60261" lon="1.13018">
        <ele>951.2</ele>
        <time>2022-05-22 18:57:40</time>
      </trkpt>
      <trkpt lat="42.60265" lon="1.13017">
        <ele>951.4</ele>
        <time>2022-05-22 18:57:41</time>
      </trkpt>
      <trkpt lat="42.6027" lon="1.13015">
        <ele>951.4</ele>
        <time>2022-05-22 18:57:42</time>
      </trkpt>
      <trkpt lat="42.60274" lon="1.13013">
        <ele>951.4</ele>
        <time>2022-05-22 18:57:43</time>
      </trkpt>
      <trkpt lat="42.60278" lon="1.13011">
        <ele>951.4</ele>
        <time>2022-05-22 18:57:44</time>
      </trkpt>
      <trkpt lat="42.60283" lon="1.13008">
        <ele>951.4</ele>
        <time>2022-05-22 18:57:45</time>
      </trkpt>
      <trkpt lat="42.60286" lon="1.13006">
        <ele>951.4</ele>
        <time>2022-05-22 18:57:46</time>
      </trkpt>
      <trkpt lat="42.6029" lon="1.13003">
        <ele>951.4</ele>
        <time>2022-05-22 18:57:47</time>
      </trkpt>
      <trkpt lat="42.60294" lon="1.12999">
        <ele>951.4</ele>
        <time>2022-05-22 18:57:48</time>
      </trkpt>
      <trkpt lat="42.60298" lon="1.12996">
        <ele>951.4</ele>
        <time>2022-05-22 18:57:49</time>
      </trkpt>
      <trkpt lat="42.60302" lon="1.12992">
        <ele>951.2</ele>
        <time>2022-05-22 18:57:50</time>
      </trkpt>
      <trkpt lat="42.60306" lon="1.12988">
        <ele>951.2</ele>
        <time>2022-05-22 18:57:51</time>
      </trkpt>
      <trkpt lat="42.6031" lon="1.12985">
        <ele>951.2</ele>
        <time>2022-05-22 18:57:52</time>
      </trkpt>
      <trkpt lat="42.60315" lon="1.1298">
        <ele>951.2</ele>
        <time>2022-05-22 18:57:53</time>
      </trkpt>
      <trkpt lat="42.60319" lon="1.12976">
        <ele>951.2</ele>
        <time>2022-05-22 18:57:54</time>
      </trkpt>
      <trkpt lat="42.60323" lon="1.12972">
        <ele>951.2</ele>
        <time>2022-05-22 18:57:55</time>
      </trkpt>
      <trkpt lat="42.60327" lon="1.12968">
        <ele>951.2</ele>
        <time>2022-05-22 18:57:56</time>
      </trkpt>
      <trkpt lat="42.6033" lon="1.12964">
        <ele>951.2</ele>
        <time>2022-05-22 18:57:57</time>
      </trkpt>
      <trkpt lat="42.60334" lon="1.1296">
        <ele>951.2</ele>
        <time>2022-05-22 18:57:58</time>
      </trkpt>
      <trkpt lat="42.60338" lon="1.12956">
        <ele>951</ele>
        <time>2022-05-22 18:57:59</time>
      </trkpt>
      <trkpt lat="42.60342" lon="1.12952">
        <ele>951</ele>
        <time>2022-05-22 18:58:00</time>
      </trkpt>
      <trkpt lat="42.60346" lon="1.12947">
        <ele>951</ele>
        <time>2022-05-22 18:58:01</time>
      </trkpt>
      <trkpt lat="42.6035" lon="1.12943">
        <ele>951</ele>
        <time>2022-05-22 18:58:02</time>
      </trkpt>
      <trkpt lat="42.60353" lon="1.12939">
        <ele>951</ele>
        <time>2022-05-22 18:58:03</time>
      </trkpt>
      <trkpt lat="42.60357" lon="1.12935">
        <ele>951</ele>
        <time>2022-05-22 18:58:04</time>
      </trkpt>
      <trkpt lat="42.60361" lon="1.12931">
        <ele>951</ele>
        <time>2022-05-22 18:58:05</time>
      </trkpt>
      <trkpt lat="42.60365" lon="1.12927">
        <ele>951</ele>
        <time>2022-05-22 18:58:06</time>
      </trkpt>
      <trkpt lat="42.60369" lon="1.12923">
        <ele>951</ele>
        <time>2022-05-22 18:58:07</time>
      </trkpt>
      <trkpt lat="42.60374" lon="1.12919">
        <ele>951</ele>
        <time>2022-05-22 18:58:08</time>
      </trkpt>
      <trkpt lat="42.60378" lon="1.12916">
        <ele>951</ele>
        <time>2022-05-22 18:58:09</time>
      </trkpt>
      <trkpt lat="42.60381" lon="1.12913">
        <ele>951</ele>
        <time>2022-05-22 18:58:10</time>
      </trkpt>
      <trkpt lat="42.60386" lon="1.1291">
        <ele>951</ele>
        <time>2022-05-22 18:58:11</time>
      </trkpt>
      <trkpt lat="42.60391" lon="1.12907">
        <ele>951</ele>
        <time>2022-05-22 18:58:12</time>
      </trkpt>
      <trkpt lat="42.60395" lon="1.12905">
        <ele>951</ele>
        <time>2022-05-22 18:58:13</time>
      </trkpt>
      <trkpt lat="42.60399" lon="1.12903">
        <ele>951</ele>
        <time>2022-05-22 18:58:14</time>
      </trkpt>
      <trkpt lat="42.60403" lon="1.12901">
        <ele>951.2</ele>
        <time>2022-05-22 18:58:15</time>
      </trkpt>
      <trkpt lat="42.60408" lon="1.12899">
        <ele>951.2</ele>
        <time>2022-05-22 18:58:16</time>
      </trkpt>
      <trkpt lat="42.60412" lon="1.12897">
        <ele>951.2</ele>
        <time>2022-05-22 18:58:17</time>
      </trkpt>
      <trkpt lat="42.60417" lon="1.12896">
        <ele>951.2</ele>
        <time>2022-05-22 18:58:18</time>
      </trkpt>
      <trkpt lat="42.60422" lon="1.12895">
        <ele>951.2</ele>
        <time>2022-05-22 18:58:19</time>
      </trkpt>
      <trkpt lat="42.60427" lon="1.12894">
        <ele>951.2</ele>
        <time>2022-05-22 18:58:20</time>
      </trkpt>
      <trkpt lat="42.60431" lon="1.12893">
        <ele>951.4</ele>
        <time>2022-05-22 18:58:21</time>
      </trkpt>
      <trkpt lat="42.60435" lon="1.12892">
        <ele>951.4</ele>
        <time>2022-05-22 18:58:22</time>
      </trkpt>
      <trkpt lat="42.6044" lon="1.12891">
        <ele>951.4</ele>
        <time>2022-05-22 18:58:23</time>
      </trkpt>
      <trkpt lat="42.60444" lon="1.12891">
        <ele>951.4</ele>
        <time>2022-05-22 18:58:24</time>
      </trkpt>
      <trkpt lat="42.60449" lon="1.1289">
        <ele>951.4</ele>
        <time>2022-05-22 18:58:25</time>
      </trkpt>
      <trkpt lat="42.60453" lon="1.12889">
        <ele>951.6</ele>
        <time>2022-05-22 18:58:26</time>
      </trkpt>
      <trkpt lat="42.60457" lon="1.12888">
        <ele>951.6</ele>
        <time>2022-05-22 18:58:27</time>
      </trkpt>
      <trkpt lat="42.60462" lon="1.12887">
        <ele>951.6</ele>
        <time>2022-05-22 18:58:28</time>
      </trkpt>
      <trkpt lat="42.60466" lon="1.12886">
        <ele>951.6</ele>
        <time>2022-05-22 18:58:29</time>
      </trkpt>
      <trkpt lat="42.60471" lon="1.12886">
        <ele>951.8</ele>
        <time>2022-05-22 18:58:30</time>
      </trkpt>
      <trkpt lat="42.60475" lon="1.12885">
        <ele>951.8</ele>
        <time>2022-05-22 18:58:31</time>
      </trkpt>
      <trkpt lat="42.60479" lon="1.12884">
        <ele>951.8</ele>
        <time>2022-05-22 18:58:32</time>
      </trkpt>
      <trkpt lat="42.60484" lon="1.12883">
        <ele>951.8</ele>
        <time>2022-05-22 18:58:33</time>
      </trkpt>
      <trkpt lat="42.60488" lon="1.12881">
        <ele>951.8</ele>
        <time>2022-05-22 18:58:34</time>
      </trkpt>
      <trkpt lat="42.60492" lon="1.1288">
        <ele>952</ele>
        <time>2022-05-22 18:58:35</time>
      </trkpt>
      <trkpt lat="42.60497" lon="1.12878">
        <ele>952</ele>
        <time>2022-05-22 18:58:36</time>
      </trkpt>
      <trkpt lat="42.60501" lon="1.12876">
        <ele>952</ele>
        <time>2022-05-22 18:58:37</time>
      </trkpt>
      <trkpt lat="42.60506" lon="1.12874">
        <ele>952</ele>
        <time>2022-05-22 18:58:38</time>
      </trkpt>
      <trkpt lat="42.60509" lon="1.12873">
        <ele>952</ele>
        <time>2022-05-22 18:58:39</time>
      </trkpt>
      <trkpt lat="42.60514" lon="1.12871">
        <ele>952</ele>
        <time>2022-05-22 18:58:40</time>
      </trkpt>
      <trkpt lat="42.60518" lon="1.12869">
        <ele>952.2</ele>
        <time>2022-05-22 18:58:41</time>
      </trkpt>
      <trkpt lat="42.60523" lon="1.12866">
        <ele>952</ele>
        <time>2022-05-22 18:58:42</time>
      </trkpt>
      <trkpt lat="42.60527" lon="1.12864">
        <ele>952.2</ele>
        <time>2022-05-22 18:58:43</time>
      </trkpt>
      <trkpt lat="42.60532" lon="1.12862">
        <ele>952.2</ele>
        <time>2022-05-22 18:58:44</time>
      </trkpt>
      <trkpt lat="42.60536" lon="1.12859">
        <ele>952.2</ele>
        <time>2022-05-22 18:58:45</time>
      </trkpt>
      <trkpt lat="42.6054" lon="1.12857">
        <ele>952.2</ele>
        <time>2022-05-22 18:58:46</time>
      </trkpt>
      <trkpt lat="42.60544" lon="1.12854">
        <ele>952.2</ele>
        <time>2022-05-22 18:58:47</time>
      </trkpt>
      <trkpt lat="42.60548" lon="1.12851">
        <ele>952.2</ele>
        <time>2022-05-22 18:58:48</time>
      </trkpt>
      <trkpt lat="42.60552" lon="1.12848">
        <ele>952.2</ele>
        <time>2022-05-22 18:58:49</time>
      </trkpt>
      <trkpt lat="42.60556" lon="1.12846">
        <ele>952.2</ele>
        <time>2022-05-22 18:58:50</time>
      </trkpt>
      <trkpt lat="42.6056" lon="1.12843">
        <ele>952.4</ele>
        <time>2022-05-22 18:58:51</time>
      </trkpt>
      <trkpt lat="42.60565" lon="1.1284">
        <ele>952.4</ele>
        <time>2022-05-22 18:58:52</time>
      </trkpt>
      <trkpt lat="42.60569" lon="1.12837">
        <ele>952.4</ele>
        <time>2022-05-22 18:58:53</time>
      </trkpt>
      <trkpt lat="42.60573" lon="1.12834">
        <ele>952.4</ele>
        <time>2022-05-22 18:58:54</time>
      </trkpt>
      <trkpt lat="42.60577" lon="1.12831">
        <ele>952.6</ele>
        <time>2022-05-22 18:58:55</time>
      </trkpt>
      <trkpt lat="42.6058" lon="1.12828">
        <ele>952.6</ele>
        <time>2022-05-22 18:58:56</time>
      </trkpt>
      <trkpt lat="42.60584" lon="1.12824">
        <ele>952.6</ele>
        <time>2022-05-22 18:58:57</time>
      </trkpt>
      <trkpt lat="42.60587" lon="1.12821">
        <ele>952.6</ele>
        <time>2022-05-22 18:58:58</time>
      </trkpt>
      <trkpt lat="42.6059" lon="1.12818">
        <ele>952.6</ele>
        <time>2022-05-22 18:58:59</time>
      </trkpt>
      <trkpt lat="42.60595" lon="1.12814">
        <ele>952.8</ele>
        <time>2022-05-22 18:59:00</time>
      </trkpt>
      <trkpt lat="42.60598" lon="1.12811">
        <ele>952.8</ele>
        <time>2022-05-22 18:59:01</time>
      </trkpt>
      <trkpt lat="42.60602" lon="1.12807">
        <ele>952.8</ele>
        <time>2022-05-22 18:59:02</time>
      </trkpt>
      <trkpt lat="42.60605" lon="1.12803">
        <ele>952.8</ele>
        <time>2022-05-22 18:59:03</time>
      </trkpt>
      <trkpt lat="42.60608" lon="1.128">
        <ele>952.8</ele>
        <time>2022-05-22 18:59:04</time>
      </trkpt>
      <trkpt lat="42.60611" lon="1.12796">
        <ele>953</ele>
        <time>2022-05-22 18:59:05</time>
      </trkpt>
      <trkpt lat="42.60616" lon="1.12791">
        <ele>953</ele>
        <time>2022-05-22 18:59:06</time>
      </trkpt>
      <trkpt lat="42.60619" lon="1.12788">
        <ele>953</ele>
        <time>2022-05-22 18:59:07</time>
      </trkpt>
      <trkpt lat="42.60622" lon="1.12784">
        <ele>953</ele>
        <time>2022-05-22 18:59:08</time>
      </trkpt>
      <trkpt lat="42.60625" lon="1.12779">
        <ele>953</ele>
        <time>2022-05-22 18:59:09</time>
      </trkpt>
      <trkpt lat="42.60628" lon="1.12775">
        <ele>953</ele>
        <time>2022-05-22 18:59:10</time>
      </trkpt>
      <trkpt lat="42.60632" lon="1.12771">
        <ele>953.2</ele>
        <time>2022-05-22 18:59:11</time>
      </trkpt>
      <trkpt lat="42.60635" lon="1.12767">
        <ele>953.2</ele>
        <time>2022-05-22 18:59:12</time>
      </trkpt>
      <trkpt lat="42.60637" lon="1.12763">
        <ele>953.2</ele>
        <time>2022-05-22 18:59:13</time>
      </trkpt>
      <trkpt lat="42.6064" lon="1.1276">
        <ele>953.2</ele>
        <time>2022-05-22 18:59:14</time>
      </trkpt>
      <trkpt lat="42.60644" lon="1.12754">
        <ele>953.2</ele>
        <time>2022-05-22 18:59:15</time>
      </trkpt>
      <trkpt lat="42.60647" lon="1.1275">
        <ele>953.2</ele>
        <time>2022-05-22 18:59:16</time>
      </trkpt>
      <trkpt lat="42.6065" lon="1.12745">
        <ele>953.2</ele>
        <time>2022-05-22 18:59:17</time>
      </trkpt>
      <trkpt lat="42.60653" lon="1.12741">
        <ele>953.2</ele>
        <time>2022-05-22 18:59:18</time>
      </trkpt>
      <trkpt lat="42.60655" lon="1.12737">
        <ele>953.2</ele>
        <time>2022-05-22 18:59:19</time>
      </trkpt>
      <trkpt lat="42.60658" lon="1.12733">
        <ele>953.2</ele>
        <time>2022-05-22 18:59:20</time>
      </trkpt>
      <trkpt lat="42.60662" lon="1.12728">
        <ele>953.2</ele>
        <time>2022-05-22 18:59:21</time>
      </trkpt>
      <trkpt lat="42.60665" lon="1.12724">
        <ele>953.2</ele>
        <time>2022-05-22 18:59:22</time>
      </trkpt>
      <trkpt lat="42.60668" lon="1.1272">
        <ele>953.4</ele>
        <time>2022-05-22 18:59:23</time>
      </trkpt>
      <trkpt lat="42.60671" lon="1.12715">
        <ele>953.4</ele>
        <time>2022-05-22 18:59:24</time>
      </trkpt>
      <trkpt lat="42.60674" lon="1.12712">
        <ele>953.4</ele>
        <time>2022-05-22 18:59:25</time>
      </trkpt>
      <trkpt lat="42.60676" lon="1.12709">
        <ele>953.4</ele>
        <time>2022-05-22 18:59:26</time>
      </trkpt>
      <trkpt lat="42.6068" lon="1.12702">
        <ele>953.4</ele>
        <time>2022-05-22 18:59:27</time>
      </trkpt>
      <trkpt lat="42.60683" lon="1.12698">
        <ele>953.4</ele>
        <time>2022-05-22 18:59:28</time>
      </trkpt>
      <trkpt lat="42.60686" lon="1.12694">
        <ele>953.4</ele>
        <time>2022-05-22 18:59:29</time>
      </trkpt>
      <trkpt lat="42.60689" lon="1.12689">
        <ele>953.4</ele>
        <time>2022-05-22 18:59:30</time>
      </trkpt>
      <trkpt lat="42.60692" lon="1.12685">
        <ele>953.6</ele>
        <time>2022-05-22 18:59:31</time>
      </trkpt>
      <trkpt lat="42.60695" lon="1.12681">
        <ele>953.6</ele>
        <time>2022-05-22 18:59:32</time>
      </trkpt>
      <trkpt lat="42.60699" lon="1.12676">
        <ele>953.6</ele>
        <time>2022-05-22 18:59:33</time>
      </trkpt>
      <trkpt lat="42.60701" lon="1.12672">
        <ele>953.6</ele>
        <time>2022-05-22 18:59:34</time>
      </trkpt>
      <trkpt lat="42.60704" lon="1.12668">
        <ele>953.6</ele>
        <time>2022-05-22 18:59:35</time>
      </trkpt>
      <trkpt lat="42.60708" lon="1.12663">
        <ele>953.6</ele>
        <time>2022-05-22 18:59:36</time>
      </trkpt>
      <trkpt lat="42.60711" lon="1.1266">
        <ele>953.6</ele>
        <time>2022-05-22 18:59:37</time>
      </trkpt>
      <trkpt lat="42.60714" lon="1.12656">
        <ele>953.6</ele>
        <time>2022-05-22 18:59:38</time>
      </trkpt>
      <trkpt lat="42.60718" lon="1.12651">
        <ele>953.6</ele>
        <time>2022-05-22 18:59:39</time>
      </trkpt>
      <trkpt lat="42.60721" lon="1.12648">
        <ele>953.6</ele>
        <time>2022-05-22 18:59:40</time>
      </trkpt>
      <trkpt lat="42.60724" lon="1.12645">
        <ele>953.8</ele>
        <time>2022-05-22 18:59:41</time>
      </trkpt>
      <trkpt lat="42.60729" lon="1.12641">
        <ele>953.8</ele>
        <time>2022-05-22 18:59:42</time>
      </trkpt>
      <trkpt lat="42.60732" lon="1.12639">
        <ele>953.8</ele>
        <time>2022-05-22 18:59:43</time>
      </trkpt>
      <trkpt lat="42.60735" lon="1.12637">
        <ele>953.8</ele>
        <time>2022-05-22 18:59:44</time>
      </trkpt>
      <trkpt lat="42.60741" lon="1.12634">
        <ele>954</ele>
        <time>2022-05-22 18:59:45</time>
      </trkpt>
      <trkpt lat="42.60745" lon="1.12633">
        <ele>954</ele>
        <time>2022-05-22 18:59:46</time>
      </trkpt>
      <trkpt lat="42.60749" lon="1.12631">
        <ele>954</ele>
        <time>2022-05-22 18:59:47</time>
      </trkpt>
      <trkpt lat="42.60754" lon="1.1263">
        <ele>954.2</ele>
        <time>2022-05-22 18:59:48</time>
      </trkpt>
      <trkpt lat="42.60758" lon="1.12629">
        <ele>954.2</ele>
        <time>2022-05-22 18:59:49</time>
      </trkpt>
      <trkpt lat="42.60763" lon="1.12627">
        <ele>954.2</ele>
        <time>2022-05-22 18:59:50</time>
      </trkpt>
      <trkpt lat="42.60767" lon="1.12627">
        <ele>954.2</ele>
        <time>2022-05-22 18:59:51</time>
      </trkpt>
      <trkpt lat="42.60772" lon="1.12626">
        <ele>954.2</ele>
        <time>2022-05-22 18:59:52</time>
      </trkpt>
      <trkpt lat="42.60776" lon="1.12625">
        <ele>954.4</ele>
        <time>2022-05-22 18:59:53</time>
      </trkpt>
      <trkpt lat="42.60781" lon="1.12624">
        <ele>954.4</ele>
        <time>2022-05-22 18:59:54</time>
      </trkpt>
      <trkpt lat="42.60785" lon="1.12623">
        <ele>954.6</ele>
        <time>2022-05-22 18:59:55</time>
      </trkpt>
      <trkpt lat="42.6079" lon="1.12622">
        <ele>954.6</ele>
        <time>2022-05-22 18:59:56</time>
      </trkpt>
      <trkpt lat="42.60794" lon="1.12621">
        <ele>954.8</ele>
        <time>2022-05-22 18:59:57</time>
      </trkpt>
      <trkpt lat="42.608" lon="1.12621">
        <ele>954.8</ele>
        <time>2022-05-22 18:59:58</time>
      </trkpt>
      <trkpt lat="42.60804" lon="1.1262">
        <ele>954.8</ele>
        <time>2022-05-22 18:59:59</time>
      </trkpt>
      <trkpt lat="42.60809" lon="1.12619">
        <ele>954.8</ele>
        <time>2022-05-22 19:00:00</time>
      </trkpt>
      <trkpt lat="42.60813" lon="1.12618">
        <ele>955</ele>
        <time>2022-05-22 19:00:01</time>
      </trkpt>
      <trkpt lat="42.60817" lon="1.12617">
        <ele>955</ele>
        <time>2022-05-22 19:00:02</time>
      </trkpt>
      <trkpt lat="42.60822" lon="1.12617">
        <ele>955</ele>
        <time>2022-05-22 19:00:03</time>
      </trkpt>
      <trkpt lat="42.60827" lon="1.12616">
        <ele>955</ele>
        <time>2022-05-22 19:00:04</time>
      </trkpt>
      <trkpt lat="42.60831" lon="1.12616">
        <ele>955</ele>
        <time>2022-05-22 19:00:05</time>
      </trkpt>
      <trkpt lat="42.60836" lon="1.12615">
        <ele>955</ele>
        <time>2022-05-22 19:00:06</time>
      </trkpt>
      <trkpt lat="42.6084" lon="1.12614">
        <ele>955.2</ele>
        <time>2022-05-22 19:00:07</time>
      </trkpt>
      <trkpt lat="42.60845" lon="1.12613">
        <ele>955.2</ele>
        <time>2022-05-22 19:00:08</time>
      </trkpt>
      <trkpt lat="42.60849" lon="1.12613">
        <ele>955.4</ele>
        <time>2022-05-22 19:00:09</time>
      </trkpt>
      <trkpt lat="42.60854" lon="1.12612">
        <ele>955.4</ele>
        <time>2022-05-22 19:00:10</time>
      </trkpt>
      <trkpt lat="42.60859" lon="1.12611">
        <ele>955.6</ele>
        <time>2022-05-22 19:00:11</time>
      </trkpt>
      <trkpt lat="42.60865" lon="1.12609">
        <ele>955.8</ele>
        <time>2022-05-22 19:00:12</time>
      </trkpt>
      <trkpt lat="42.60869" lon="1.12609">
        <ele>955.8</ele>
        <time>2022-05-22 19:00:13</time>
      </trkpt>
      <trkpt lat="42.60875" lon="1.12608">
        <ele>956</ele>
        <time>2022-05-22 19:00:14</time>
      </trkpt>
      <trkpt lat="42.60879" lon="1.12607">
        <ele>956</ele>
        <time>2022-05-22 19:00:15</time>
      </trkpt>
      <trkpt lat="42.60884" lon="1.12607">
        <ele>956.2</ele>
        <time>2022-05-22 19:00:16</time>
      </trkpt>
      <trkpt lat="42.60887" lon="1.12606">
        <ele>956.4</ele>
        <time>2022-05-22 19:00:17</time>
      </trkpt>
      <trkpt lat="42.60893" lon="1.12605">
        <ele>956.4</ele>
        <time>2022-05-22 19:00:18</time>
      </trkpt>
      <trkpt lat="42.60897" lon="1.12605">
        <ele>956.6</ele>
        <time>2022-05-22 19:00:19</time>
      </trkpt>
      <trkpt lat="42.60902" lon="1.12604">
        <ele>956.6</ele>
        <time>2022-05-22 19:00:20</time>
      </trkpt>
      <trkpt lat="42.60906" lon="1.12603">
        <ele>956.8</ele>
        <time>2022-05-22 19:00:21</time>
      </trkpt>
      <trkpt lat="42.60911" lon="1.12602">
        <ele>956.8</ele>
        <time>2022-05-22 19:00:22</time>
      </trkpt>
      <trkpt lat="42.60915" lon="1.12602">
        <ele>957</ele>
        <time>2022-05-22 19:00:23</time>
      </trkpt>
      <trkpt lat="42.60919" lon="1.12601">
        <ele>957</ele>
        <time>2022-05-22 19:00:24</time>
      </trkpt>
      <trkpt lat="42.60924" lon="1.126">
        <ele>957.2</ele>
        <time>2022-05-22 19:00:25</time>
      </trkpt>
      <trkpt lat="42.60928" lon="1.126">
        <ele>957.2</ele>
        <time>2022-05-22 19:00:26</time>
      </trkpt>
      <trkpt lat="42.60932" lon="1.12599">
        <ele>957.4</ele>
        <time>2022-05-22 19:00:27</time>
      </trkpt>
      <trkpt lat="42.60937" lon="1.12598">
        <ele>957.4</ele>
        <time>2022-05-22 19:00:28</time>
      </trkpt>
      <trkpt lat="42.60941" lon="1.12598">
        <ele>957.6</ele>
        <time>2022-05-22 19:00:29</time>
      </trkpt>
      <trkpt lat="42.60944" lon="1.12597">
        <ele>957.6</ele>
        <time>2022-05-22 19:00:30</time>
      </trkpt>
      <trkpt lat="42.6095" lon="1.12596">
        <ele>957.6</ele>
        <time>2022-05-22 19:00:31</time>
      </trkpt>
      <trkpt lat="42.60954" lon="1.12595">
        <ele>957.8</ele>
        <time>2022-05-22 19:00:32</time>
      </trkpt>
      <trkpt lat="42.60958" lon="1.12595">
        <ele>957.8</ele>
        <time>2022-05-22 19:00:33</time>
      </trkpt>
      <trkpt lat="42.60963" lon="1.12594">
        <ele>958</ele>
        <time>2022-05-22 19:00:34</time>
      </trkpt>
      <trkpt lat="42.60966" lon="1.12594">
        <ele>958</ele>
        <time>2022-05-22 19:00:35</time>
      </trkpt>
      <trkpt lat="42.6097" lon="1.12593">
        <ele>958</ele>
        <time>2022-05-22 19:00:36</time>
      </trkpt>
      <trkpt lat="42.60975" lon="1.12592">
        <ele>958.2</ele>
        <time>2022-05-22 19:00:37</time>
      </trkpt>
      <trkpt lat="42.6098" lon="1.12591">
        <ele>958.2</ele>
        <time>2022-05-22 19:00:38</time>
      </trkpt>
      <trkpt lat="42.60984" lon="1.1259">
        <ele>958.4</ele>
        <time>2022-05-22 19:00:39</time>
      </trkpt>
      <trkpt lat="42.60988" lon="1.1259">
        <ele>958.4</ele>
        <time>2022-05-22 19:00:40</time>
      </trkpt>
      <trkpt lat="42.60992" lon="1.12589">
        <ele>958.6</ele>
        <time>2022-05-22 19:00:41</time>
      </trkpt>
      <trkpt lat="42.60996" lon="1.12589">
        <ele>958.6</ele>
        <time>2022-05-22 19:00:42</time>
      </trkpt>
      <trkpt lat="42.61001" lon="1.12588">
        <ele>958.6</ele>
        <time>2022-05-22 19:00:43</time>
      </trkpt>
      <trkpt lat="42.61005" lon="1.12587">
        <ele>958.8</ele>
        <time>2022-05-22 19:00:44</time>
      </trkpt>
      <trkpt lat="42.61011" lon="1.12586">
        <ele>958.8</ele>
        <time>2022-05-22 19:00:45</time>
      </trkpt>
      <trkpt lat="42.61014" lon="1.12585">
        <ele>958.8</ele>
        <time>2022-05-22 19:00:46</time>
      </trkpt>
      <trkpt lat="42.6102" lon="1.12584">
        <ele>959</ele>
        <time>2022-05-22 19:00:47</time>
      </trkpt>
      <trkpt lat="42.61025" lon="1.12584">
        <ele>959</ele>
        <time>2022-05-22 19:00:48</time>
      </trkpt>
      <trkpt lat="42.6103" lon="1.12583">
        <ele>959.2</ele>
        <time>2022-05-22 19:00:49</time>
      </trkpt>
      <trkpt lat="42.61034" lon="1.12582">
        <ele>959.2</ele>
        <time>2022-05-22 19:00:50</time>
      </trkpt>
      <trkpt lat="42.61038" lon="1.12582">
        <ele>959.4</ele>
        <time>2022-05-22 19:00:51</time>
      </trkpt>
      <trkpt lat="42.61042" lon="1.12581">
        <ele>959.6</ele>
        <time>2022-05-22 19:00:52</time>
      </trkpt>
      <trkpt lat="42.61046" lon="1.12581">
        <ele>959.6</ele>
        <time>2022-05-22 19:00:53</time>
      </trkpt>
      <trkpt lat="42.61051" lon="1.1258">
        <ele>959.8</ele>
        <time>2022-05-22 19:00:54</time>
      </trkpt>
      <trkpt lat="42.61054" lon="1.12579">
        <ele>960</ele>
        <time>2022-05-22 19:00:55</time>
      </trkpt>
      <trkpt lat="42.61058" lon="1.12579">
        <ele>960</ele>
        <time>2022-05-22 19:00:56</time>
      </trkpt>
      <trkpt lat="42.61062" lon="1.12578">
        <ele>960.2</ele>
        <time>2022-05-22 19:00:57</time>
      </trkpt>
      <trkpt lat="42.61065" lon="1.12577">
        <ele>960.4</ele>
        <time>2022-05-22 19:00:58</time>
      </trkpt>
      <trkpt lat="42.61068" lon="1.12577">
        <ele>960.4</ele>
        <time>2022-05-22 19:00:59</time>
      </trkpt>
      <trkpt lat="42.61072" lon="1.12576">
        <ele>960.6</ele>
        <time>2022-05-22 19:01:00</time>
      </trkpt>
      <trkpt lat="42.61075" lon="1.12576">
        <ele>960.8</ele>
        <time>2022-05-22 19:01:01</time>
      </trkpt>
      <trkpt lat="42.61077" lon="1.12575">
        <ele>960.8</ele>
        <time>2022-05-22 19:01:02</time>
      </trkpt>
      <trkpt lat="42.61082" lon="1.12575">
        <ele>961</ele>
        <time>2022-05-22 19:01:03</time>
      </trkpt>
      <trkpt lat="42.61085" lon="1.12574">
        <ele>961.2</ele>
        <time>2022-05-22 19:01:04</time>
      </trkpt>
      <trkpt lat="42.61089" lon="1.12574">
        <ele>961.2</ele>
        <time>2022-05-22 19:01:05</time>
      </trkpt>
      <trkpt lat="42.61092" lon="1.12573">
        <ele>961.4</ele>
        <time>2022-05-22 19:01:06</time>
      </trkpt>
      <trkpt lat="42.61095" lon="1.12572">
        <ele>961.4</ele>
        <time>2022-05-22 19:01:07</time>
      </trkpt>
      <trkpt lat="42.61098" lon="1.12572">
        <ele>961.4</ele>
        <time>2022-05-22 19:01:08</time>
      </trkpt>
      <trkpt lat="42.61103" lon="1.12571">
        <ele>961.6</ele>
        <time>2022-05-22 19:01:09</time>
      </trkpt>
      <trkpt lat="42.61106" lon="1.12571">
        <ele>961.6</ele>
        <time>2022-05-22 19:01:10</time>
      </trkpt>
      <trkpt lat="42.61109" lon="1.1257">
        <ele>961.8</ele>
        <time>2022-05-22 19:01:11</time>
      </trkpt>
      <trkpt lat="42.61113" lon="1.1257">
        <ele>961.8</ele>
        <time>2022-05-22 19:01:12</time>
      </trkpt>
      <trkpt lat="42.61116" lon="1.12569">
        <ele>962</ele>
        <time>2022-05-22 19:01:13</time>
      </trkpt>
      <trkpt lat="42.61119" lon="1.12569">
        <ele>962</ele>
        <time>2022-05-22 19:01:14</time>
      </trkpt>
      <trkpt lat="42.61123" lon="1.12568">
        <ele>962</ele>
        <time>2022-05-22 19:01:15</time>
      </trkpt>
      <trkpt lat="42.61126" lon="1.12567">
        <ele>962.2</ele>
        <time>2022-05-22 19:01:16</time>
      </trkpt>
      <trkpt lat="42.6113" lon="1.12567">
        <ele>962.2</ele>
        <time>2022-05-22 19:01:17</time>
      </trkpt>
      <trkpt lat="42.61133" lon="1.12567">
        <ele>962.2</ele>
        <time>2022-05-22 19:01:18</time>
      </trkpt>
      <trkpt lat="42.61136" lon="1.12566">
        <ele>962.4</ele>
        <time>2022-05-22 19:01:19</time>
      </trkpt>
      <trkpt lat="42.61139" lon="1.12565">
        <ele>962.4</ele>
        <time>2022-05-22 19:01:20</time>
      </trkpt>
      <trkpt lat="42.61144" lon="1.12565">
        <ele>962.4</ele>
        <time>2022-05-22 19:01:21</time>
      </trkpt>
      <trkpt lat="42.61148" lon="1.12564">
        <ele>962.4</ele>
        <time>2022-05-22 19:01:22</time>
      </trkpt>
      <trkpt lat="42.61151" lon="1.12564">
        <ele>962.4</ele>
        <time>2022-05-22 19:01:23</time>
      </trkpt>
      <trkpt lat="42.61155" lon="1.12563">
        <ele>962.6</ele>
        <time>2022-05-22 19:01:24</time>
      </trkpt>
      <trkpt lat="42.61158" lon="1.12563">
        <ele>962.6</ele>
        <time>2022-05-22 19:01:25</time>
      </trkpt>
      <trkpt lat="42.61161" lon="1.12562">
        <ele>962.6</ele>
        <time>2022-05-22 19:01:26</time>
      </trkpt>
      <trkpt lat="42.61167" lon="1.12561">
        <ele>962.6</ele>
        <time>2022-05-22 19:01:27</time>
      </trkpt>
      <trkpt lat="42.6117" lon="1.1256">
        <ele>962.6</ele>
        <time>2022-05-22 19:01:28</time>
      </trkpt>
      <trkpt lat="42.61174" lon="1.1256">
        <ele>962.6</ele>
        <time>2022-05-22 19:01:29</time>
      </trkpt>
      <trkpt lat="42.61178" lon="1.12559">
        <ele>962.6</ele>
        <time>2022-05-22 19:01:30</time>
      </trkpt>
      <trkpt lat="42.61182" lon="1.12558">
        <ele>962.6</ele>
        <time>2022-05-22 19:01:31</time>
      </trkpt>
      <trkpt lat="42.61185" lon="1.12557">
        <ele>962.6</ele>
        <time>2022-05-22 19:01:32</time>
      </trkpt>
      <trkpt lat="42.6119" lon="1.12557">
        <ele>962.6</ele>
        <time>2022-05-22 19:01:33</time>
      </trkpt>
      <trkpt lat="42.61194" lon="1.12556">
        <ele>962.6</ele>
        <time>2022-05-22 19:01:34</time>
      </trkpt>
      <trkpt lat="42.61199" lon="1.12556">
        <ele>962.6</ele>
        <time>2022-05-22 19:01:35</time>
      </trkpt>
      <trkpt lat="42.61203" lon="1.12555">
        <ele>962.6</ele>
        <time>2022-05-22 19:01:36</time>
      </trkpt>
      <trkpt lat="42.61207" lon="1.12554">
        <ele>962.6</ele>
        <time>2022-05-22 19:01:37</time>
      </trkpt>
      <trkpt lat="42.61211" lon="1.12554">
        <ele>962.4</ele>
        <time>2022-05-22 19:01:38</time>
      </trkpt>
      <trkpt lat="42.61217" lon="1.12553">
        <ele>962.4</ele>
        <time>2022-05-22 19:01:39</time>
      </trkpt>
      <trkpt lat="42.61221" lon="1.12552">
        <ele>962.4</ele>
        <time>2022-05-22 19:01:40</time>
      </trkpt>
      <trkpt lat="42.61227" lon="1.12551">
        <ele>962.4</ele>
        <time>2022-05-22 19:01:41</time>
      </trkpt>
      <trkpt lat="42.61231" lon="1.1255">
        <ele>962.2</ele>
        <time>2022-05-22 19:01:42</time>
      </trkpt>
      <trkpt lat="42.61238" lon="1.12549">
        <ele>962.2</ele>
        <time>2022-05-22 19:01:43</time>
      </trkpt>
      <trkpt lat="42.61243" lon="1.12548">
        <ele>962</ele>
        <time>2022-05-22 19:01:44</time>
      </trkpt>
      <trkpt lat="42.61248" lon="1.12547">
        <ele>962</ele>
        <time>2022-05-22 19:01:45</time>
      </trkpt>
      <trkpt lat="42.61253" lon="1.12547">
        <ele>961.8</ele>
        <time>2022-05-22 19:01:46</time>
      </trkpt>
      <trkpt lat="42.61259" lon="1.12545">
        <ele>961.8</ele>
        <time>2022-05-22 19:01:47</time>
      </trkpt>
      <trkpt lat="42.61265" lon="1.12545">
        <ele>961.8</ele>
        <time>2022-05-22 19:01:48</time>
      </trkpt>
      <trkpt lat="42.6127" lon="1.12544">
        <ele>961.8</ele>
        <time>2022-05-22 19:01:49</time>
      </trkpt>
      <trkpt lat="42.61275" lon="1.12543">
        <ele>961.6</ele>
        <time>2022-05-22 19:01:50</time>
      </trkpt>
      <trkpt lat="42.61281" lon="1.12542">
        <ele>961.6</ele>
        <time>2022-05-22 19:01:51</time>
      </trkpt>
      <trkpt lat="42.61286" lon="1.12541">
        <ele>961.4</ele>
        <time>2022-05-22 19:01:52</time>
      </trkpt>
      <trkpt lat="42.61293" lon="1.1254">
        <ele>961.4</ele>
        <time>2022-05-22 19:01:53</time>
      </trkpt>
      <trkpt lat="42.61298" lon="1.12539">
        <ele>961.2</ele>
        <time>2022-05-22 19:01:54</time>
      </trkpt>
      <trkpt lat="42.61304" lon="1.12538">
        <ele>961.2</ele>
        <time>2022-05-22 19:01:55</time>
      </trkpt>
      <trkpt lat="42.61309" lon="1.12537">
        <ele>961</ele>
        <time>2022-05-22 19:01:56</time>
      </trkpt>
      <trkpt lat="42.61316" lon="1.12536">
        <ele>960.8</ele>
        <time>2022-05-22 19:01:57</time>
      </trkpt>
      <trkpt lat="42.61322" lon="1.12535">
        <ele>960.6</ele>
        <time>2022-05-22 19:01:58</time>
      </trkpt>
      <trkpt lat="42.61329" lon="1.12534">
        <ele>960.6</ele>
        <time>2022-05-22 19:01:59</time>
      </trkpt>
      <trkpt lat="42.61334" lon="1.12533">
        <ele>960.4</ele>
        <time>2022-05-22 19:02:00</time>
      </trkpt>
      <trkpt lat="42.61342" lon="1.12532">
        <ele>960.2</ele>
        <time>2022-05-22 19:02:01</time>
      </trkpt>
      <trkpt lat="42.61349" lon="1.12531">
        <ele>960</ele>
        <time>2022-05-22 19:02:02</time>
      </trkpt>
      <trkpt lat="42.61356" lon="1.12529">
        <ele>959.6</ele>
        <time>2022-05-22 19:02:03</time>
      </trkpt>
      <trkpt lat="42.61362" lon="1.12528">
        <ele>959.4</ele>
        <time>2022-05-22 19:02:04</time>
      </trkpt>
      <trkpt lat="42.61369" lon="1.12527">
        <ele>959.2</ele>
        <time>2022-05-22 19:02:05</time>
      </trkpt>
      <trkpt lat="42.61376" lon="1.12526">
        <ele>959</ele>
        <time>2022-05-22 19:02:06</time>
      </trkpt>
      <trkpt lat="42.61384" lon="1.12525">
        <ele>958.8</ele>
        <time>2022-05-22 19:02:07</time>
      </trkpt>
      <trkpt lat="42.6139" lon="1.12524">
        <ele>958.6</ele>
        <time>2022-05-22 19:02:08</time>
      </trkpt>
      <trkpt lat="42.61398" lon="1.12523">
        <ele>958.4</ele>
        <time>2022-05-22 19:02:09</time>
      </trkpt>
      <trkpt lat="42.61405" lon="1.12522">
        <ele>958.2</ele>
        <time>2022-05-22 19:02:10</time>
      </trkpt>
      <trkpt lat="42.61413" lon="1.1252">
        <ele>958</ele>
        <time>2022-05-22 19:02:11</time>
      </trkpt>
      <trkpt lat="42.6142" lon="1.12519">
        <ele>957.8</ele>
        <time>2022-05-22 19:02:12</time>
      </trkpt>
      <trkpt lat="42.61428" lon="1.12518">
        <ele>957.6</ele>
        <time>2022-05-22 19:02:13</time>
      </trkpt>
      <trkpt lat="42.61435" lon="1.12517">
        <ele>957.2</ele>
        <time>2022-05-22 19:02:14</time>
      </trkpt>
      <trkpt lat="42.61443" lon="1.12516">
        <ele>957</ele>
        <time>2022-05-22 19:02:15</time>
      </trkpt>
      <trkpt lat="42.6145" lon="1.12514">
        <ele>956.8</ele>
        <time>2022-05-22 19:02:16</time>
      </trkpt>
      <trkpt lat="42.61459" lon="1.12513">
        <ele>956.6</ele>
        <time>2022-05-22 19:02:17</time>
      </trkpt>
      <trkpt lat="42.61466" lon="1.12512">
        <ele>956.6</ele>
        <time>2022-05-22 19:02:18</time>
      </trkpt>
      <trkpt lat="42.61474" lon="1.1251">
        <ele>956.4</ele>
        <time>2022-05-22 19:02:19</time>
      </trkpt>
      <trkpt lat="42.61481" lon="1.12509">
        <ele>956.2</ele>
        <time>2022-05-22 19:02:20</time>
      </trkpt>
      <trkpt lat="42.61489" lon="1.12508">
        <ele>956.2</ele>
        <time>2022-05-22 19:02:21</time>
      </trkpt>
      <trkpt lat="42.61494" lon="1.12507">
        <ele>956.2</ele>
        <time>2022-05-22 19:02:22</time>
      </trkpt>
      <trkpt lat="42.61503" lon="1.12506">
        <ele>956</ele>
        <time>2022-05-22 19:02:23</time>
      </trkpt>
      <trkpt lat="42.61509" lon="1.12505">
        <ele>956</ele>
        <time>2022-05-22 19:02:24</time>
      </trkpt>
      <trkpt lat="42.61516" lon="1.12504">
        <ele>956</ele>
        <time>2022-05-22 19:02:25</time>
      </trkpt>
      <trkpt lat="42.61521" lon="1.12503">
        <ele>956</ele>
        <time>2022-05-22 19:02:26</time>
      </trkpt>
      <trkpt lat="42.61529" lon="1.12502">
        <ele>956</ele>
        <time>2022-05-22 19:02:27</time>
      </trkpt>
      <trkpt lat="42.61534" lon="1.12501">
        <ele>956</ele>
        <time>2022-05-22 19:02:28</time>
      </trkpt>
      <trkpt lat="42.6154" lon="1.125">
        <ele>956</ele>
        <time>2022-05-22 19:02:29</time>
      </trkpt>
      <trkpt lat="42.61546" lon="1.12499">
        <ele>956</ele>
        <time>2022-05-22 19:02:30</time>
      </trkpt>
      <trkpt lat="42.61552" lon="1.12498">
        <ele>956</ele>
        <time>2022-05-22 19:02:31</time>
      </trkpt>
      <trkpt lat="42.61557" lon="1.12497">
        <ele>956</ele>
        <time>2022-05-22 19:02:32</time>
      </trkpt>
      <trkpt lat="42.61564" lon="1.12496">
        <ele>956.2</ele>
        <time>2022-05-22 19:02:33</time>
      </trkpt>
      <trkpt lat="42.61568" lon="1.12495">
        <ele>956.2</ele>
        <time>2022-05-22 19:02:34</time>
      </trkpt>
      <trkpt lat="42.61574" lon="1.12494">
        <ele>956.2</ele>
        <time>2022-05-22 19:02:35</time>
      </trkpt>
      <trkpt lat="42.61579" lon="1.12493">
        <ele>956.2</ele>
        <time>2022-05-22 19:02:36</time>
      </trkpt>
      <trkpt lat="42.61586" lon="1.12492">
        <ele>956.4</ele>
        <time>2022-05-22 19:02:37</time>
      </trkpt>
      <trkpt lat="42.61591" lon="1.12491">
        <ele>956.4</ele>
        <time>2022-05-22 19:02:38</time>
      </trkpt>
      <trkpt lat="42.61597" lon="1.1249">
        <ele>956.4</ele>
        <time>2022-05-22 19:02:39</time>
      </trkpt>
      <trkpt lat="42.61602" lon="1.1249">
        <ele>956.4</ele>
        <time>2022-05-22 19:02:40</time>
      </trkpt>
      <trkpt lat="42.61608" lon="1.12489">
        <ele>956.4</ele>
        <time>2022-05-22 19:02:41</time>
      </trkpt>
      <trkpt lat="42.61612" lon="1.12488">
        <ele>956.4</ele>
        <time>2022-05-22 19:02:42</time>
      </trkpt>
      <trkpt lat="42.61618" lon="1.12487">
        <ele>956.4</ele>
        <time>2022-05-22 19:02:43</time>
      </trkpt>
      <trkpt lat="42.61623" lon="1.12487">
        <ele>956.6</ele>
        <time>2022-05-22 19:02:44</time>
      </trkpt>
      <trkpt lat="42.61629" lon="1.12486">
        <ele>956.6</ele>
        <time>2022-05-22 19:02:45</time>
      </trkpt>
      <trkpt lat="42.61634" lon="1.12485">
        <ele>956.6</ele>
        <time>2022-05-22 19:02:46</time>
      </trkpt>
      <trkpt lat="42.6164" lon="1.12484">
        <ele>956.6</ele>
        <time>2022-05-22 19:02:47</time>
      </trkpt>
      <trkpt lat="42.61644" lon="1.12483">
        <ele>956.6</ele>
        <time>2022-05-22 19:02:48</time>
      </trkpt>
      <trkpt lat="42.6165" lon="1.12482">
        <ele>956.8</ele>
        <time>2022-05-22 19:02:49</time>
      </trkpt>
      <trkpt lat="42.61655" lon="1.12481">
        <ele>956.8</ele>
        <time>2022-05-22 19:02:50</time>
      </trkpt>
      <trkpt lat="42.61661" lon="1.1248">
        <ele>956.8</ele>
        <time>2022-05-22 19:02:51</time>
      </trkpt>
      <trkpt lat="42.61664" lon="1.1248">
        <ele>956.8</ele>
        <time>2022-05-22 19:02:52</time>
      </trkpt>
      <trkpt lat="42.61671" lon="1.12478">
        <ele>956.8</ele>
        <time>2022-05-22 19:02:53</time>
      </trkpt>
      <trkpt lat="42.61676" lon="1.12478">
        <ele>956.8</ele>
        <time>2022-05-22 19:02:54</time>
      </trkpt>
      <trkpt lat="42.61682" lon="1.12477">
        <ele>957</ele>
        <time>2022-05-22 19:02:55</time>
      </trkpt>
      <trkpt lat="42.61687" lon="1.12476">
        <ele>957</ele>
        <time>2022-05-22 19:02:56</time>
      </trkpt>
      <trkpt lat="42.61692" lon="1.12475">
        <ele>957</ele>
        <time>2022-05-22 19:02:57</time>
      </trkpt>
      <trkpt lat="42.61696" lon="1.12474">
        <ele>957</ele>
        <time>2022-05-22 19:02:58</time>
      </trkpt>
      <trkpt lat="42.61703" lon="1.12473">
        <ele>957</ele>
        <time>2022-05-22 19:02:59</time>
      </trkpt>
      <trkpt lat="42.61707" lon="1.12472">
        <ele>957</ele>
        <time>2022-05-22 19:03:00</time>
      </trkpt>
      <trkpt lat="42.61713" lon="1.12472">
        <ele>957</ele>
        <time>2022-05-22 19:03:01</time>
      </trkpt>
      <trkpt lat="42.61717" lon="1.12471">
        <ele>957</ele>
        <time>2022-05-22 19:03:02</time>
      </trkpt>
      <trkpt lat="42.61724" lon="1.1247">
        <ele>957</ele>
        <time>2022-05-22 19:03:03</time>
      </trkpt>
      <trkpt lat="42.61728" lon="1.12469">
        <ele>957.2</ele>
        <time>2022-05-22 19:03:04</time>
      </trkpt>
      <trkpt lat="42.61734" lon="1.12468">
        <ele>957.2</ele>
        <time>2022-05-22 19:03:05</time>
      </trkpt>
      <trkpt lat="42.61738" lon="1.12467">
        <ele>957.2</ele>
        <time>2022-05-22 19:03:06</time>
      </trkpt>
      <trkpt lat="42.61744" lon="1.12466">
        <ele>957.2</ele>
        <time>2022-05-22 19:03:07</time>
      </trkpt>
      <trkpt lat="42.61748" lon="1.12465">
        <ele>957.2</ele>
        <time>2022-05-22 19:03:08</time>
      </trkpt>
      <trkpt lat="42.61754" lon="1.12464">
        <ele>957.2</ele>
        <time>2022-05-22 19:03:09</time>
      </trkpt>
      <trkpt lat="42.61759" lon="1.12464">
        <ele>957.4</ele>
        <time>2022-05-22 19:03:10</time>
      </trkpt>
      <trkpt lat="42.61766" lon="1.12463">
        <ele>957.4</ele>
        <time>2022-05-22 19:03:11</time>
      </trkpt>
      <trkpt lat="42.6177" lon="1.12462">
        <ele>957.4</ele>
        <time>2022-05-22 19:03:12</time>
      </trkpt>
      <trkpt lat="42.61776" lon="1.12461">
        <ele>957.4</ele>
        <time>2022-05-22 19:03:13</time>
      </trkpt>
      <trkpt lat="42.6178" lon="1.12461">
        <ele>957.6</ele>
        <time>2022-05-22 19:03:14</time>
      </trkpt>
      <trkpt lat="42.61787" lon="1.1246">
        <ele>957.6</ele>
        <time>2022-05-22 19:03:15</time>
      </trkpt>
      <trkpt lat="42.61791" lon="1.12459">
        <ele>957.6</ele>
        <time>2022-05-22 19:03:16</time>
      </trkpt>
      <trkpt lat="42.61798" lon="1.12458">
        <ele>957.6</ele>
        <time>2022-05-22 19:03:17</time>
      </trkpt>
      <trkpt lat="42.61802" lon="1.12457">
        <ele>957.6</ele>
        <time>2022-05-22 19:03:18</time>
      </trkpt>
      <trkpt lat="42.61808" lon="1.12456">
        <ele>957.6</ele>
        <time>2022-05-22 19:03:19</time>
      </trkpt>
      <trkpt lat="42.61813" lon="1.12455">
        <ele>957.6</ele>
        <time>2022-05-22 19:03:20</time>
      </trkpt>
      <trkpt lat="42.61819" lon="1.12455">
        <ele>957.6</ele>
        <time>2022-05-22 19:03:21</time>
      </trkpt>
      <trkpt lat="42.61824" lon="1.12454">
        <ele>957.6</ele>
        <time>2022-05-22 19:03:22</time>
      </trkpt>
      <trkpt lat="42.6183" lon="1.12453">
        <ele>957.6</ele>
        <time>2022-05-22 19:03:23</time>
      </trkpt>
      <trkpt lat="42.61835" lon="1.12452">
        <ele>957.8</ele>
        <time>2022-05-22 19:03:24</time>
      </trkpt>
      <trkpt lat="42.61841" lon="1.12451">
        <ele>957.8</ele>
        <time>2022-05-22 19:03:25</time>
      </trkpt>
      <trkpt lat="42.61845" lon="1.12451">
        <ele>957.8</ele>
        <time>2022-05-22 19:03:26</time>
      </trkpt>
      <trkpt lat="42.61852" lon="1.1245">
        <ele>957.8</ele>
        <time>2022-05-22 19:03:27</time>
      </trkpt>
      <trkpt lat="42.61856" lon="1.12449">
        <ele>957.8</ele>
        <time>2022-05-22 19:03:28</time>
      </trkpt>
      <trkpt lat="42.61862" lon="1.12448">
        <ele>957.8</ele>
        <time>2022-05-22 19:03:29</time>
      </trkpt>
      <trkpt lat="42.61866" lon="1.12447">
        <ele>957.8</ele>
        <time>2022-05-22 19:03:30</time>
      </trkpt>
      <trkpt lat="42.61873" lon="1.12447">
        <ele>957.8</ele>
        <time>2022-05-22 19:03:31</time>
      </trkpt>
      <trkpt lat="42.61878" lon="1.12446">
        <ele>957.8</ele>
        <time>2022-05-22 19:03:32</time>
      </trkpt>
      <trkpt lat="42.61883" lon="1.12445">
        <ele>957.8</ele>
        <time>2022-05-22 19:03:33</time>
      </trkpt>
      <trkpt lat="42.61888" lon="1.12445">
        <ele>957.8</ele>
        <time>2022-05-22 19:03:34</time>
      </trkpt>
      <trkpt lat="42.61894" lon="1.12444">
        <ele>958</ele>
        <time>2022-05-22 19:03:35</time>
      </trkpt>
      <trkpt lat="42.61899" lon="1.12443">
        <ele>958</ele>
        <time>2022-05-22 19:03:36</time>
      </trkpt>
      <trkpt lat="42.61904" lon="1.12442">
        <ele>958</ele>
        <time>2022-05-22 19:03:37</time>
      </trkpt>
      <trkpt lat="42.61908" lon="1.12441">
        <ele>958</ele>
        <time>2022-05-22 19:03:38</time>
      </trkpt>
      <trkpt lat="42.61915" lon="1.1244">
        <ele>958</ele>
        <time>2022-05-22 19:03:39</time>
      </trkpt>
      <trkpt lat="42.6192" lon="1.12439">
        <ele>958.2</ele>
        <time>2022-05-22 19:03:40</time>
      </trkpt>
      <trkpt lat="42.61926" lon="1.12438">
        <ele>958.2</ele>
        <time>2022-05-22 19:03:41</time>
      </trkpt>
      <trkpt lat="42.6193" lon="1.12437">
        <ele>958.2</ele>
        <time>2022-05-22 19:03:42</time>
      </trkpt>
      <trkpt lat="42.61937" lon="1.12437">
        <ele>958.2</ele>
        <time>2022-05-22 19:03:43</time>
      </trkpt>
      <trkpt lat="42.61941" lon="1.12436">
        <ele>958.2</ele>
        <time>2022-05-22 19:03:44</time>
      </trkpt>
      <trkpt lat="42.61947" lon="1.12435">
        <ele>958.2</ele>
        <time>2022-05-22 19:03:45</time>
      </trkpt>
      <trkpt lat="42.61951" lon="1.12434">
        <ele>958.4</ele>
        <time>2022-05-22 19:03:46</time>
      </trkpt>
      <trkpt lat="42.61957" lon="1.12434">
        <ele>958.4</ele>
        <time>2022-05-22 19:03:47</time>
      </trkpt>
      <trkpt lat="42.61962" lon="1.12433">
        <ele>958.4</ele>
        <time>2022-05-22 19:03:48</time>
      </trkpt>
      <trkpt lat="42.61967" lon="1.12432">
        <ele>958.4</ele>
        <time>2022-05-22 19:03:49</time>
      </trkpt>
      <trkpt lat="42.61971" lon="1.12431">
        <ele>958.4</ele>
        <time>2022-05-22 19:03:50</time>
      </trkpt>
      <trkpt lat="42.61976" lon="1.12431">
        <ele>958.4</ele>
        <time>2022-05-22 19:03:51</time>
      </trkpt>
      <trkpt lat="42.6198" lon="1.1243">
        <ele>958.4</ele>
        <time>2022-05-22 19:03:52</time>
      </trkpt>
      <trkpt lat="42.61986" lon="1.12429">
        <ele>958.4</ele>
        <time>2022-05-22 19:03:53</time>
      </trkpt>
      <trkpt lat="42.6199" lon="1.12428">
        <ele>958.6</ele>
        <time>2022-05-22 19:03:54</time>
      </trkpt>
      <trkpt lat="42.61996" lon="1.12427">
        <ele>958.6</ele>
        <time>2022-05-22 19:03:55</time>
      </trkpt>
      <trkpt lat="42.62" lon="1.12426">
        <ele>958.6</ele>
        <time>2022-05-22 19:03:56</time>
      </trkpt>
      <trkpt lat="42.62006" lon="1.12425">
        <ele>958.8</ele>
        <time>2022-05-22 19:03:57</time>
      </trkpt>
      <trkpt lat="42.62011" lon="1.12424">
        <ele>958.8</ele>
        <time>2022-05-22 19:03:58</time>
      </trkpt>
      <trkpt lat="42.62017" lon="1.12423">
        <ele>958.8</ele>
        <time>2022-05-22 19:03:59</time>
      </trkpt>
      <trkpt lat="42.62021" lon="1.12422">
        <ele>958.8</ele>
        <time>2022-05-22 19:04:00</time>
      </trkpt>
      <trkpt lat="42.62027" lon="1.12421">
        <ele>959</ele>
        <time>2022-05-22 19:04:01</time>
      </trkpt>
      <trkpt lat="42.62033" lon="1.1242">
        <ele>959</ele>
        <time>2022-05-22 19:04:02</time>
      </trkpt>
      <trkpt lat="42.62038" lon="1.12419">
        <ele>959</ele>
        <time>2022-05-22 19:04:03</time>
      </trkpt>
      <trkpt lat="42.62044" lon="1.12419">
        <ele>959.2</ele>
        <time>2022-05-22 19:04:04</time>
      </trkpt>
      <trkpt lat="42.62049" lon="1.12418">
        <ele>959.2</ele>
        <time>2022-05-22 19:04:05</time>
      </trkpt>
      <trkpt lat="42.62054" lon="1.12417">
        <ele>959.2</ele>
        <time>2022-05-22 19:04:06</time>
      </trkpt>
      <trkpt lat="42.62059" lon="1.12416">
        <ele>959.4</ele>
        <time>2022-05-22 19:04:07</time>
      </trkpt>
      <trkpt lat="42.62064" lon="1.12415">
        <ele>959.4</ele>
        <time>2022-05-22 19:04:08</time>
      </trkpt>
      <trkpt lat="42.62069" lon="1.12414">
        <ele>959.4</ele>
        <time>2022-05-22 19:04:09</time>
      </trkpt>
      <trkpt lat="42.62075" lon="1.12414">
        <ele>959.6</ele>
        <time>2022-05-22 19:04:10</time>
      </trkpt>
      <trkpt lat="42.6208" lon="1.12413">
        <ele>959.6</ele>
        <time>2022-05-22 19:04:11</time>
      </trkpt>
      <trkpt lat="42.62085" lon="1.12412">
        <ele>959.6</ele>
        <time>2022-05-22 19:04:12</time>
      </trkpt>
      <trkpt lat="42.6209" lon="1.12411">
        <ele>959.8</ele>
        <time>2022-05-22 19:04:13</time>
      </trkpt>
      <trkpt lat="42.62096" lon="1.1241">
        <ele>959.8</ele>
        <time>2022-05-22 19:04:14</time>
      </trkpt>
      <trkpt lat="42.62101" lon="1.12409">
        <ele>959.8</ele>
        <time>2022-05-22 19:04:15</time>
      </trkpt>
      <trkpt lat="42.62106" lon="1.12408">
        <ele>959.8</ele>
        <time>2022-05-22 19:04:16</time>
      </trkpt>
      <trkpt lat="42.62111" lon="1.12407">
        <ele>959.8</ele>
        <time>2022-05-22 19:04:17</time>
      </trkpt>
      <trkpt lat="42.62116" lon="1.12406">
        <ele>959.8</ele>
        <time>2022-05-22 19:04:18</time>
      </trkpt>
      <trkpt lat="42.62121" lon="1.12406">
        <ele>960</ele>
        <time>2022-05-22 19:04:19</time>
      </trkpt>
      <trkpt lat="42.62126" lon="1.12405">
        <ele>960</ele>
        <time>2022-05-22 19:04:20</time>
      </trkpt>
      <trkpt lat="42.62131" lon="1.12404">
        <ele>960</ele>
        <time>2022-05-22 19:04:21</time>
      </trkpt>
      <trkpt lat="42.62136" lon="1.12403">
        <ele>960.2</ele>
        <time>2022-05-22 19:04:22</time>
      </trkpt>
      <trkpt lat="42.62142" lon="1.12403">
        <ele>960.2</ele>
        <time>2022-05-22 19:04:23</time>
      </trkpt>
      <trkpt lat="42.62147" lon="1.12402">
        <ele>960.2</ele>
        <time>2022-05-22 19:04:24</time>
      </trkpt>
      <trkpt lat="42.62152" lon="1.12401">
        <ele>960.2</ele>
        <time>2022-05-22 19:04:25</time>
      </trkpt>
      <trkpt lat="42.62157" lon="1.124">
        <ele>960.4</ele>
        <time>2022-05-22 19:04:26</time>
      </trkpt>
      <trkpt lat="42.62162" lon="1.12399">
        <ele>960.4</ele>
        <time>2022-05-22 19:04:27</time>
      </trkpt>
      <trkpt lat="42.62167" lon="1.12399">
        <ele>960.4</ele>
        <time>2022-05-22 19:04:28</time>
      </trkpt>
      <trkpt lat="42.62173" lon="1.12398">
        <ele>960.4</ele>
        <time>2022-05-22 19:04:29</time>
      </trkpt>
      <trkpt lat="42.62178" lon="1.12397">
        <ele>960.4</ele>
        <time>2022-05-22 19:04:30</time>
      </trkpt>
      <trkpt lat="42.62183" lon="1.12396">
        <ele>960.4</ele>
        <time>2022-05-22 19:04:31</time>
      </trkpt>
      <trkpt lat="42.62188" lon="1.12396">
        <ele>960.6</ele>
        <time>2022-05-22 19:04:32</time>
      </trkpt>
      <trkpt lat="42.62193" lon="1.12395">
        <ele>960.6</ele>
        <time>2022-05-22 19:04:33</time>
      </trkpt>
      <trkpt lat="42.62198" lon="1.12394">
        <ele>960.6</ele>
        <time>2022-05-22 19:04:34</time>
      </trkpt>
      <trkpt lat="42.62203" lon="1.12393">
        <ele>960.8</ele>
        <time>2022-05-22 19:04:35</time>
      </trkpt>
      <trkpt lat="42.62208" lon="1.12392">
        <ele>960.8</ele>
        <time>2022-05-22 19:04:36</time>
      </trkpt>
      <trkpt lat="42.62213" lon="1.12391">
        <ele>960.8</ele>
        <time>2022-05-22 19:04:37</time>
      </trkpt>
      <trkpt lat="42.62218" lon="1.1239">
        <ele>961</ele>
        <time>2022-05-22 19:04:38</time>
      </trkpt>
      <trkpt lat="42.62223" lon="1.1239">
        <ele>961</ele>
        <time>2022-05-22 19:04:39</time>
      </trkpt>
      <trkpt lat="42.62228" lon="1.12389">
        <ele>961</ele>
        <time>2022-05-22 19:04:40</time>
      </trkpt>
      <trkpt lat="42.62233" lon="1.12388">
        <ele>961</ele>
        <time>2022-05-22 19:04:41</time>
      </trkpt>
      <trkpt lat="42.62238" lon="1.12388">
        <ele>961</ele>
        <time>2022-05-22 19:04:42</time>
      </trkpt>
      <trkpt lat="42.62243" lon="1.12387">
        <ele>961.2</ele>
        <time>2022-05-22 19:04:43</time>
      </trkpt>
      <trkpt lat="42.62248" lon="1.12386">
        <ele>961.2</ele>
        <time>2022-05-22 19:04:44</time>
      </trkpt>
      <trkpt lat="42.62253" lon="1.12385">
        <ele>961.2</ele>
        <time>2022-05-22 19:04:45</time>
      </trkpt>
      <trkpt lat="42.62258" lon="1.12384">
        <ele>961.4</ele>
        <time>2022-05-22 19:04:46</time>
      </trkpt>
      <trkpt lat="42.62263" lon="1.12383">
        <ele>961.4</ele>
        <time>2022-05-22 19:04:47</time>
      </trkpt>
      <trkpt lat="42.62267" lon="1.12383">
        <ele>961.4</ele>
        <time>2022-05-22 19:04:48</time>
      </trkpt>
      <trkpt lat="42.62272" lon="1.12382">
        <ele>961.6</ele>
        <time>2022-05-22 19:04:49</time>
      </trkpt>
      <trkpt lat="42.62277" lon="1.12381">
        <ele>961.6</ele>
        <time>2022-05-22 19:04:50</time>
      </trkpt>
      <trkpt lat="42.62282" lon="1.1238">
        <ele>961.6</ele>
        <time>2022-05-22 19:04:51</time>
      </trkpt>
      <trkpt lat="42.62287" lon="1.12379">
        <ele>961.8</ele>
        <time>2022-05-22 19:04:52</time>
      </trkpt>
      <trkpt lat="42.62292" lon="1.12378">
        <ele>961.8</ele>
        <time>2022-05-22 19:04:53</time>
      </trkpt>
      <trkpt lat="42.62297" lon="1.12377">
        <ele>961.8</ele>
        <time>2022-05-22 19:04:54</time>
      </trkpt>
      <trkpt lat="42.62302" lon="1.12376">
        <ele>962</ele>
        <time>2022-05-22 19:04:55</time>
      </trkpt>
      <trkpt lat="42.62307" lon="1.12376">
        <ele>962</ele>
        <time>2022-05-22 19:04:56</time>
      </trkpt>
      <trkpt lat="42.62311" lon="1.12376">
        <ele>962</ele>
        <time>2022-05-22 19:04:57</time>
      </trkpt>
      <trkpt lat="42.62316" lon="1.12375">
        <ele>962.2</ele>
        <time>2022-05-22 19:04:58</time>
      </trkpt>
      <trkpt lat="42.62322" lon="1.12374">
        <ele>962.2</ele>
        <time>2022-05-22 19:04:59</time>
      </trkpt>
      <trkpt lat="42.62327" lon="1.12373">
        <ele>962.2</ele>
        <time>2022-05-22 19:05:00</time>
      </trkpt>
      <trkpt lat="42.62332" lon="1.12371">
        <ele>962.2</ele>
        <time>2022-05-22 19:05:01</time>
      </trkpt>
      <trkpt lat="42.62338" lon="1.1237">
        <ele>962.2</ele>
        <time>2022-05-22 19:05:02</time>
      </trkpt>
      <trkpt lat="42.62343" lon="1.1237">
        <ele>962.2</ele>
        <time>2022-05-22 19:05:03</time>
      </trkpt>
      <trkpt lat="42.62348" lon="1.12369">
        <ele>962.2</ele>
        <time>2022-05-22 19:05:04</time>
      </trkpt>
      <trkpt lat="42.62353" lon="1.12368">
        <ele>962.2</ele>
        <time>2022-05-22 19:05:05</time>
      </trkpt>
      <trkpt lat="42.62358" lon="1.12367">
        <ele>962.4</ele>
        <time>2022-05-22 19:05:06</time>
      </trkpt>
      <trkpt lat="42.62363" lon="1.12367">
        <ele>962.4</ele>
        <time>2022-05-22 19:05:07</time>
      </trkpt>
      <trkpt lat="42.62368" lon="1.12366">
        <ele>962.6</ele>
        <time>2022-05-22 19:05:08</time>
      </trkpt>
      <trkpt lat="42.62373" lon="1.12365">
        <ele>962.6</ele>
        <time>2022-05-22 19:05:09</time>
      </trkpt>
      <trkpt lat="42.62378" lon="1.12364">
        <ele>962.8</ele>
        <time>2022-05-22 19:05:10</time>
      </trkpt>
      <trkpt lat="42.62382" lon="1.12363">
        <ele>962.8</ele>
        <time>2022-05-22 19:05:11</time>
      </trkpt>
      <trkpt lat="42.62387" lon="1.12362">
        <ele>963</ele>
        <time>2022-05-22 19:05:12</time>
      </trkpt>
      <trkpt lat="42.62392" lon="1.12361">
        <ele>963</ele>
        <time>2022-05-22 19:05:13</time>
      </trkpt>
      <trkpt lat="42.62396" lon="1.1236">
        <ele>963.2</ele>
        <time>2022-05-22 19:05:14</time>
      </trkpt>
      <trkpt lat="42.624" lon="1.12359">
        <ele>963.2</ele>
        <time>2022-05-22 19:05:15</time>
      </trkpt>
      <trkpt lat="42.62405" lon="1.12359">
        <ele>963.2</ele>
        <time>2022-05-22 19:05:16</time>
      </trkpt>
      <trkpt lat="42.6241" lon="1.12358">
        <ele>963.4</ele>
        <time>2022-05-22 19:05:17</time>
      </trkpt>
      <trkpt lat="42.62414" lon="1.12357">
        <ele>963.4</ele>
        <time>2022-05-22 19:05:18</time>
      </trkpt>
      <trkpt lat="42.62419" lon="1.12357">
        <ele>963.4</ele>
        <time>2022-05-22 19:05:19</time>
      </trkpt>
      <trkpt lat="42.62423" lon="1.12356">
        <ele>963.6</ele>
        <time>2022-05-22 19:05:20</time>
      </trkpt>
      <trkpt lat="42.62428" lon="1.12356">
        <ele>963.6</ele>
        <time>2022-05-22 19:05:21</time>
      </trkpt>
      <trkpt lat="42.62433" lon="1.12355">
        <ele>963.8</ele>
        <time>2022-05-22 19:05:22</time>
      </trkpt>
      <trkpt lat="42.62437" lon="1.12355">
        <ele>963.8</ele>
        <time>2022-05-22 19:05:23</time>
      </trkpt>
      <trkpt lat="42.62442" lon="1.12355">
        <ele>963.8</ele>
        <time>2022-05-22 19:05:24</time>
      </trkpt>
      <trkpt lat="42.62447" lon="1.12356">
        <ele>964</ele>
        <time>2022-05-22 19:05:25</time>
      </trkpt>
      <trkpt lat="42.62451" lon="1.12356">
        <ele>964</ele>
        <time>2022-05-22 19:05:26</time>
      </trkpt>
      <trkpt lat="42.62455" lon="1.12355">
        <ele>964</ele>
        <time>2022-05-22 19:05:27</time>
      </trkpt>
      <trkpt lat="42.6246" lon="1.12353">
        <ele>964.2</ele>
        <time>2022-05-22 19:05:28</time>
      </trkpt>
      <trkpt lat="42.62465" lon="1.12352">
        <ele>964.2</ele>
        <time>2022-05-22 19:05:29</time>
      </trkpt>
      <trkpt lat="42.62469" lon="1.12351">
        <ele>964.4</ele>
        <time>2022-05-22 19:05:30</time>
      </trkpt>
      <trkpt lat="42.62473" lon="1.12351">
        <ele>964.4</ele>
        <time>2022-05-22 19:05:31</time>
      </trkpt>
      <trkpt lat="42.62477" lon="1.1235">
        <ele>964.6</ele>
        <time>2022-05-22 19:05:32</time>
      </trkpt>
      <trkpt lat="42.62481" lon="1.12349">
        <ele>964.6</ele>
        <time>2022-05-22 19:05:33</time>
      </trkpt>
      <trkpt lat="42.62486" lon="1.12348">
        <ele>964.6</ele>
        <time>2022-05-22 19:05:34</time>
      </trkpt>
      <trkpt lat="42.62491" lon="1.12348">
        <ele>964.6</ele>
        <time>2022-05-22 19:05:35</time>
      </trkpt>
      <trkpt lat="42.62496" lon="1.12347">
        <ele>964.8</ele>
        <time>2022-05-22 19:05:36</time>
      </trkpt>
      <trkpt lat="42.625" lon="1.12347">
        <ele>964.8</ele>
        <time>2022-05-22 19:05:37</time>
      </trkpt>
      <trkpt lat="42.62505" lon="1.12346">
        <ele>964.8</ele>
        <time>2022-05-22 19:05:38</time>
      </trkpt>
      <trkpt lat="42.62509" lon="1.12345">
        <ele>965</ele>
        <time>2022-05-22 19:05:39</time>
      </trkpt>
      <trkpt lat="42.62514" lon="1.12345">
        <ele>965</ele>
        <time>2022-05-22 19:05:40</time>
      </trkpt>
      <trkpt lat="42.62518" lon="1.12344">
        <ele>965</ele>
        <time>2022-05-22 19:05:41</time>
      </trkpt>
      <trkpt lat="42.62522" lon="1.12344">
        <ele>965.2</ele>
        <time>2022-05-22 19:05:42</time>
      </trkpt>
      <trkpt lat="42.62527" lon="1.12343">
        <ele>965.2</ele>
        <time>2022-05-22 19:05:43</time>
      </trkpt>
      <trkpt lat="42.62531" lon="1.12342">
        <ele>965.2</ele>
        <time>2022-05-22 19:05:44</time>
      </trkpt>
      <trkpt lat="42.62535" lon="1.12342">
        <ele>965.2</ele>
        <time>2022-05-22 19:05:45</time>
      </trkpt>
      <trkpt lat="42.6254" lon="1.12341">
        <ele>965.4</ele>
        <time>2022-05-22 19:05:46</time>
      </trkpt>
      <trkpt lat="42.62544" lon="1.1234">
        <ele>965.4</ele>
        <time>2022-05-22 19:05:47</time>
      </trkpt>
      <trkpt lat="42.62548" lon="1.1234">
        <ele>965.4</ele>
        <time>2022-05-22 19:05:48</time>
      </trkpt>
      <trkpt lat="42.62552" lon="1.12339">
        <ele>965.6</ele>
        <time>2022-05-22 19:05:49</time>
      </trkpt>
      <trkpt lat="42.62556" lon="1.12338">
        <ele>965.6</ele>
        <time>2022-05-22 19:05:50</time>
      </trkpt>
      <trkpt lat="42.6256" lon="1.12337">
        <ele>965.8</ele>
        <time>2022-05-22 19:05:51</time>
      </trkpt>
      <trkpt lat="42.62564" lon="1.12337">
        <ele>965.8</ele>
        <time>2022-05-22 19:05:52</time>
      </trkpt>
      <trkpt lat="42.62568" lon="1.12336">
        <ele>965.8</ele>
        <time>2022-05-22 19:05:53</time>
      </trkpt>
      <trkpt lat="42.62572" lon="1.12336">
        <ele>966</ele>
        <time>2022-05-22 19:05:54</time>
      </trkpt>
      <trkpt lat="42.62575" lon="1.12336">
        <ele>966</ele>
        <time>2022-05-22 19:05:55</time>
      </trkpt>
      <trkpt lat="42.62581" lon="1.12334">
        <ele>966.2</ele>
        <time>2022-05-22 19:05:56</time>
      </trkpt>
      <trkpt lat="42.62585" lon="1.12334">
        <ele>966.2</ele>
        <time>2022-05-22 19:05:57</time>
      </trkpt>
      <trkpt lat="42.62589" lon="1.12333">
        <ele>966.4</ele>
        <time>2022-05-22 19:05:58</time>
      </trkpt>
      <trkpt lat="42.62593" lon="1.12332">
        <ele>966.4</ele>
        <time>2022-05-22 19:05:59</time>
      </trkpt>
      <trkpt lat="42.62596" lon="1.12331">
        <ele>966.4</ele>
        <time>2022-05-22 19:06:00</time>
      </trkpt>
      <trkpt lat="42.62599" lon="1.12331">
        <ele>966.6</ele>
        <time>2022-05-22 19:06:01</time>
      </trkpt>
      <trkpt lat="42.62604" lon="1.1233">
        <ele>966.6</ele>
        <time>2022-05-22 19:06:02</time>
      </trkpt>
      <trkpt lat="42.62608" lon="1.1233">
        <ele>966.8</ele>
        <time>2022-05-22 19:06:03</time>
      </trkpt>
      <trkpt lat="42.62612" lon="1.12329">
        <ele>966.8</ele>
        <time>2022-05-22 19:06:04</time>
      </trkpt>
      <trkpt lat="42.62616" lon="1.12329">
        <ele>967</ele>
        <time>2022-05-22 19:06:05</time>
      </trkpt>
      <trkpt lat="42.62619" lon="1.12329">
        <ele>967</ele>
        <time>2022-05-22 19:06:06</time>
      </trkpt>
      <trkpt lat="42.62623" lon="1.12329">
        <ele>967.2</ele>
        <time>2022-05-22 19:06:07</time>
      </trkpt>
      <trkpt lat="42.62627" lon="1.12328">
        <ele>967.2</ele>
        <time>2022-05-22 19:06:08</time>
      </trkpt>
      <trkpt lat="42.6263" lon="1.12328">
        <ele>967.2</ele>
        <time>2022-05-22 19:06:09</time>
      </trkpt>
      <trkpt lat="42.62634" lon="1.12328">
        <ele>967.4</ele>
        <time>2022-05-22 19:06:10</time>
      </trkpt>
      <trkpt lat="42.62638" lon="1.12328">
        <ele>967.4</ele>
        <time>2022-05-22 19:06:11</time>
      </trkpt>
      <trkpt lat="42.62642" lon="1.12328">
        <ele>967.6</ele>
        <time>2022-05-22 19:06:12</time>
      </trkpt>
      <trkpt lat="42.62645" lon="1.12328">
        <ele>967.6</ele>
        <time>2022-05-22 19:06:13</time>
      </trkpt>
      <trkpt lat="42.6265" lon="1.12328">
        <ele>967.8</ele>
        <time>2022-05-22 19:06:14</time>
      </trkpt>
      <trkpt lat="42.62653" lon="1.12327">
        <ele>967.8</ele>
        <time>2022-05-22 19:06:15</time>
      </trkpt>
      <trkpt lat="42.62657" lon="1.12326">
        <ele>968</ele>
        <time>2022-05-22 19:06:16</time>
      </trkpt>
      <trkpt lat="42.62661" lon="1.12325">
        <ele>968</ele>
        <time>2022-05-22 19:06:17</time>
      </trkpt>
      <trkpt lat="42.62665" lon="1.12323">
        <ele>968</ele>
        <time>2022-05-22 19:06:18</time>
      </trkpt>
      <trkpt lat="42.62668" lon="1.12322">
        <ele>968.2</ele>
        <time>2022-05-22 19:06:19</time>
      </trkpt>
      <trkpt lat="42.62674" lon="1.12321">
        <ele>968.2</ele>
        <time>2022-05-22 19:06:20</time>
      </trkpt>
      <trkpt lat="42.62678" lon="1.1232">
        <ele>968.2</ele>
        <time>2022-05-22 19:06:21</time>
      </trkpt>
      <trkpt lat="42.62682" lon="1.12319">
        <ele>968.2</ele>
        <time>2022-05-22 19:06:22</time>
      </trkpt>
      <trkpt lat="42.62686" lon="1.12318">
        <ele>968.4</ele>
        <time>2022-05-22 19:06:23</time>
      </trkpt>
      <trkpt lat="42.62691" lon="1.12317">
        <ele>968.4</ele>
        <time>2022-05-22 19:06:24</time>
      </trkpt>
      <trkpt lat="42.62695" lon="1.12316">
        <ele>968.6</ele>
        <time>2022-05-22 19:06:25</time>
      </trkpt>
      <trkpt lat="42.62699" lon="1.12314">
        <ele>968.6</ele>
        <time>2022-05-22 19:06:26</time>
      </trkpt>
      <trkpt lat="42.62702" lon="1.12313">
        <ele>968.6</ele>
        <time>2022-05-22 19:06:27</time>
      </trkpt>
      <trkpt lat="42.62705" lon="1.12312">
        <ele>968.8</ele>
        <time>2022-05-22 19:06:28</time>
      </trkpt>
      <trkpt lat="42.62711" lon="1.12311">
        <ele>968.8</ele>
        <time>2022-05-22 19:06:29</time>
      </trkpt>
      <trkpt lat="42.62714" lon="1.1231">
        <ele>969</ele>
        <time>2022-05-22 19:06:30</time>
      </trkpt>
      <trkpt lat="42.62716" lon="1.1231">
        <ele>969</ele>
        <time>2022-05-22 19:06:31</time>
      </trkpt>
      <trkpt lat="42.62721" lon="1.1231">
        <ele>969</ele>
        <time>2022-05-22 19:06:32</time>
      </trkpt>
      <trkpt lat="42.62725" lon="1.1231">
        <ele>969</ele>
        <time>2022-05-22 19:06:33</time>
      </trkpt>
      <trkpt lat="42.62728" lon="1.1231">
        <ele>969.2</ele>
        <time>2022-05-22 19:06:34</time>
      </trkpt>
      <trkpt lat="42.62732" lon="1.1231">
        <ele>969.2</ele>
        <time>2022-05-22 19:06:35</time>
      </trkpt>
      <trkpt lat="42.62736" lon="1.12311">
        <ele>969.2</ele>
        <time>2022-05-22 19:06:36</time>
      </trkpt>
      <trkpt lat="42.62738" lon="1.12311">
        <ele>969.2</ele>
        <time>2022-05-22 19:06:37</time>
      </trkpt>
      <trkpt lat="42.62742" lon="1.12311">
        <ele>969.2</ele>
        <time>2022-05-22 19:06:38</time>
      </trkpt>
      <trkpt lat="42.62745" lon="1.12311">
        <ele>969.2</ele>
        <time>2022-05-22 19:06:39</time>
      </trkpt>
      <trkpt lat="42.62748" lon="1.12312">
        <ele>969.2</ele>
        <time>2022-05-22 19:06:40</time>
      </trkpt>
      <trkpt lat="42.62752" lon="1.12312">
        <ele>969.2</ele>
        <time>2022-05-22 19:06:41</time>
      </trkpt>
      <trkpt lat="42.62754" lon="1.12314">
        <ele>969.2</ele>
        <time>2022-05-22 19:06:42</time>
      </trkpt>
      <trkpt lat="42.62756" lon="1.12314">
        <ele>969.2</ele>
        <time>2022-05-22 19:06:43</time>
      </trkpt>
      <trkpt lat="42.62759" lon="1.12314">
        <ele>969.2</ele>
        <time>2022-05-22 19:06:44</time>
      </trkpt>
      <trkpt lat="42.62761" lon="1.12315">
        <ele>969.2</ele>
        <time>2022-05-22 19:06:45</time>
      </trkpt>
      <trkpt lat="42.62763" lon="1.12314">
        <ele>969.2</ele>
        <time>2022-05-22 19:06:46</time>
      </trkpt>
      <trkpt lat="42.62765" lon="1.12314">
        <ele>969.2</ele>
        <time>2022-05-22 19:06:47</time>
      </trkpt>
      <trkpt lat="42.62768" lon="1.12313">
        <ele>969.4</ele>
        <time>2022-05-22 19:06:48</time>
      </trkpt>
      <trkpt lat="42.62772" lon="1.12312">
        <ele>969.4</ele>
        <time>2022-05-22 19:06:49</time>
      </trkpt>
      <trkpt lat="42.62776" lon="1.12312">
        <ele>969.4</ele>
        <time>2022-05-22 19:06:50</time>
      </trkpt>
      <trkpt lat="42.62779" lon="1.12313">
        <ele>969.4</ele>
        <time>2022-05-22 19:06:51</time>
      </trkpt>
      <trkpt lat="42.62784" lon="1.12314">
        <ele>969.4</ele>
        <time>2022-05-22 19:06:52</time>
      </trkpt>
      <trkpt lat="42.62788" lon="1.12315">
        <ele>969.4</ele>
        <time>2022-05-22 19:06:53</time>
      </trkpt>
      <trkpt lat="42.62792" lon="1.12315">
        <ele>969.6</ele>
        <time>2022-05-22 19:06:54</time>
      </trkpt>
      <trkpt lat="42.62795" lon="1.12315">
        <ele>969.6</ele>
        <time>2022-05-22 19:06:55</time>
      </trkpt>
      <trkpt lat="42.62798" lon="1.12315">
        <ele>969.6</ele>
        <time>2022-05-22 19:06:56</time>
      </trkpt>
      <trkpt lat="42.628" lon="1.12315">
        <ele>969.6</ele>
        <time>2022-05-22 19:06:57</time>
      </trkpt>
      <trkpt lat="42.62805" lon="1.12314">
        <ele>969.6</ele>
        <time>2022-05-22 19:06:58</time>
      </trkpt>
      <trkpt lat="42.62808" lon="1.12314">
        <ele>969.6</ele>
        <time>2022-05-22 19:06:59</time>
      </trkpt>
      <trkpt lat="42.62811" lon="1.12313">
        <ele>969.8</ele>
        <time>2022-05-22 19:07:00</time>
      </trkpt>
      <trkpt lat="42.62815" lon="1.12314">
        <ele>969.8</ele>
        <time>2022-05-22 19:07:01</time>
      </trkpt>
      <trkpt lat="42.62818" lon="1.12314">
        <ele>969.8</ele>
        <time>2022-05-22 19:07:02</time>
      </trkpt>
      <trkpt lat="42.62819" lon="1.12314">
        <ele>969.8</ele>
        <time>2022-05-22 19:07:03</time>
      </trkpt>
      <trkpt lat="42.62824" lon="1.12314">
        <ele>970</ele>
        <time>2022-05-22 19:07:04</time>
      </trkpt>
      <trkpt lat="42.62827" lon="1.12315">
        <ele>970</ele>
        <time>2022-05-22 19:07:05</time>
      </trkpt>
      <trkpt lat="42.62831" lon="1.12315">
        <ele>970</ele>
        <time>2022-05-22 19:07:06</time>
      </trkpt>
      <trkpt lat="42.62834" lon="1.12315">
        <ele>970</ele>
        <time>2022-05-22 19:07:07</time>
      </trkpt>
      <trkpt lat="42.62839" lon="1.12315">
        <ele>970.2</ele>
        <time>2022-05-22 19:07:08</time>
      </trkpt>
      <trkpt lat="42.62842" lon="1.12314">
        <ele>970.2</ele>
        <time>2022-05-22 19:07:09</time>
      </trkpt>
      <trkpt lat="42.62845" lon="1.12314">
        <ele>970.2</ele>
        <time>2022-05-22 19:07:10</time>
      </trkpt>
      <trkpt lat="42.6285" lon="1.12314">
        <ele>970.4</ele>
        <time>2022-05-22 19:07:11</time>
      </trkpt>
      <trkpt lat="42.62853" lon="1.12314">
        <ele>970.4</ele>
        <time>2022-05-22 19:07:12</time>
      </trkpt>
      <trkpt lat="42.62855" lon="1.12314">
        <ele>970.4</ele>
        <time>2022-05-22 19:07:13</time>
      </trkpt>
      <trkpt lat="42.62861" lon="1.12314">
        <ele>970.6</ele>
        <time>2022-05-22 19:07:14</time>
      </trkpt>
      <trkpt lat="42.62864" lon="1.12314">
        <ele>970.6</ele>
        <time>2022-05-22 19:07:15</time>
      </trkpt>
      <trkpt lat="42.62867" lon="1.12314">
        <ele>970.6</ele>
        <time>2022-05-22 19:07:16</time>
      </trkpt>
      <trkpt lat="42.62871" lon="1.12312">
        <ele>970.8</ele>
        <time>2022-05-22 19:07:17</time>
      </trkpt>
      <trkpt lat="42.62873" lon="1.12312">
        <ele>970.8</ele>
        <time>2022-05-22 19:07:18</time>
      </trkpt>
      <trkpt lat="42.62875" lon="1.12311">
        <ele>971</ele>
        <time>2022-05-22 19:07:19</time>
      </trkpt>
      <trkpt lat="42.62878" lon="1.12311">
        <ele>971</ele>
        <time>2022-05-22 19:07:20</time>
      </trkpt>
      <trkpt lat="42.6288" lon="1.12311">
        <ele>971.2</ele>
        <time>2022-05-22 19:07:21</time>
      </trkpt>
      <trkpt lat="42.62882" lon="1.12312">
        <ele>971.2</ele>
        <time>2022-05-22 19:07:22</time>
      </trkpt>
      <trkpt lat="42.62884" lon="1.12312">
        <ele>971.4</ele>
        <time>2022-05-22 19:07:23</time>
      </trkpt>
      <trkpt lat="42.62886" lon="1.12312">
        <ele>971.4</ele>
        <time>2022-05-22 19:07:24</time>
      </trkpt>
      <trkpt lat="42.62889" lon="1.1231">
        <ele>971.6</ele>
        <time>2022-05-22 19:07:25</time>
      </trkpt>
      <trkpt lat="42.62892" lon="1.1231">
        <ele>971.8</ele>
        <time>2022-05-22 19:07:26</time>
      </trkpt>
      <trkpt lat="42.62894" lon="1.1231">
        <ele>972</ele>
        <time>2022-05-22 19:07:27</time>
      </trkpt>
      <trkpt lat="42.62896" lon="1.1231">
        <ele>972.2</ele>
        <time>2022-05-22 19:07:28</time>
      </trkpt>
      <trkpt lat="42.629" lon="1.12308">
        <ele>972.4</ele>
        <time>2022-05-22 19:07:29</time>
      </trkpt>
      <trkpt lat="42.62902" lon="1.12308">
        <ele>972.6</ele>
        <time>2022-05-22 19:07:30</time>
      </trkpt>
      <trkpt lat="42.62904" lon="1.12309">
        <ele>973</ele>
        <time>2022-05-22 19:07:31</time>
      </trkpt>
      <trkpt lat="42.62907" lon="1.1231">
        <ele>973.2</ele>
        <time>2022-05-22 19:07:32</time>
      </trkpt>
      <trkpt lat="42.6291" lon="1.12312">
        <ele>973.2</ele>
        <time>2022-05-22 19:07:33</time>
      </trkpt>
      <trkpt lat="42.62913" lon="1.12314">
        <ele>973.4</ele>
        <time>2022-05-22 19:07:34</time>
      </trkpt>
      <trkpt lat="42.62916" lon="1.12315">
        <ele>973.4</ele>
        <time>2022-05-22 19:07:35</time>
      </trkpt>
      <trkpt lat="42.62921" lon="1.12317">
        <ele>973.4</ele>
        <time>2022-05-22 19:07:36</time>
      </trkpt>
      <trkpt lat="42.62924" lon="1.12319">
        <ele>973.4</ele>
        <time>2022-05-22 19:07:37</time>
      </trkpt>
      <trkpt lat="42.62927" lon="1.1232">
        <ele>973.4</ele>
        <time>2022-05-22 19:07:38</time>
      </trkpt>
      <trkpt lat="42.62933" lon="1.12321">
        <ele>973.4</ele>
        <time>2022-05-22 19:07:39</time>
      </trkpt>
      <trkpt lat="42.62936" lon="1.12323">
        <ele>973.4</ele>
        <time>2022-05-22 19:07:40</time>
      </trkpt>
      <trkpt lat="42.62939" lon="1.12324">
        <ele>973.4</ele>
        <time>2022-05-22 19:07:41</time>
      </trkpt>
      <trkpt lat="42.62942" lon="1.12327">
        <ele>973.6</ele>
        <time>2022-05-22 19:07:42</time>
      </trkpt>
      <trkpt lat="42.62945" lon="1.12329">
        <ele>973.6</ele>
        <time>2022-05-22 19:07:43</time>
      </trkpt>
      <trkpt lat="42.62947" lon="1.12332">
        <ele>973.6</ele>
        <time>2022-05-22 19:07:44</time>
      </trkpt>
      <trkpt lat="42.62951" lon="1.12336">
        <ele>973.6</ele>
        <time>2022-05-22 19:07:45</time>
      </trkpt>
      <trkpt lat="42.62953" lon="1.1234">
        <ele>973.6</ele>
        <time>2022-05-22 19:07:46</time>
      </trkpt>
      <trkpt lat="42.62957" lon="1.12343">
        <ele>973.6</ele>
        <time>2022-05-22 19:07:47</time>
      </trkpt>
      <trkpt lat="42.6296" lon="1.12347">
        <ele>973.8</ele>
        <time>2022-05-22 19:07:48</time>
      </trkpt>
      <trkpt lat="42.62963" lon="1.12349">
        <ele>973.8</ele>
        <time>2022-05-22 19:07:49</time>
      </trkpt>
      <trkpt lat="42.62965" lon="1.12352">
        <ele>974</ele>
        <time>2022-05-22 19:07:50</time>
      </trkpt>
      <trkpt lat="42.62969" lon="1.12355">
        <ele>974</ele>
        <time>2022-05-22 19:07:51</time>
      </trkpt>
      <trkpt lat="42.62971" lon="1.12357">
        <ele>974.2</ele>
        <time>2022-05-22 19:07:52</time>
      </trkpt>
      <trkpt lat="42.62974" lon="1.1236">
        <ele>974.2</ele>
        <time>2022-05-22 19:07:53</time>
      </trkpt>
      <trkpt lat="42.62977" lon="1.12361">
        <ele>974.4</ele>
        <time>2022-05-22 19:07:54</time>
      </trkpt>
      <trkpt lat="42.6298" lon="1.12363">
        <ele>974.4</ele>
        <time>2022-05-22 19:07:55</time>
      </trkpt>
      <trkpt lat="42.62982" lon="1.12364">
        <ele>974.4</ele>
        <time>2022-05-22 19:07:56</time>
      </trkpt>
      <trkpt lat="42.62987" lon="1.12366">
        <ele>974.4</ele>
        <time>2022-05-22 19:07:57</time>
      </trkpt>
      <trkpt lat="42.6299" lon="1.12368">
        <ele>974.4</ele>
        <time>2022-05-22 19:07:58</time>
      </trkpt>
      <trkpt lat="42.62993" lon="1.12369">
        <ele>974.4</ele>
        <time>2022-05-22 19:07:59</time>
      </trkpt>
      <trkpt lat="42.62998" lon="1.12371">
        <ele>974.6</ele>
        <time>2022-05-22 19:08:00</time>
      </trkpt>
      <trkpt lat="42.63001" lon="1.12372">
        <ele>974.6</ele>
        <time>2022-05-22 19:08:01</time>
      </trkpt>
      <trkpt lat="42.63003" lon="1.12373">
        <ele>974.6</ele>
        <time>2022-05-22 19:08:02</time>
      </trkpt>
      <trkpt lat="42.63009" lon="1.12376">
        <ele>974.6</ele>
        <time>2022-05-22 19:08:03</time>
      </trkpt>
      <trkpt lat="42.63012" lon="1.12376">
        <ele>974.6</ele>
        <time>2022-05-22 19:08:04</time>
      </trkpt>
      <trkpt lat="42.63015" lon="1.12377">
        <ele>974.8</ele>
        <time>2022-05-22 19:08:05</time>
      </trkpt>
      <trkpt lat="42.63019" lon="1.12377">
        <ele>974.8</ele>
        <time>2022-05-22 19:08:06</time>
      </trkpt>
      <trkpt lat="42.63022" lon="1.12378">
        <ele>974.8</ele>
        <time>2022-05-22 19:08:07</time>
      </trkpt>
      <trkpt lat="42.63024" lon="1.12378">
        <ele>974.8</ele>
        <time>2022-05-22 19:08:08</time>
      </trkpt>
      <trkpt lat="42.63029" lon="1.12378">
        <ele>975</ele>
        <time>2022-05-22 19:08:09</time>
      </trkpt>
      <trkpt lat="42.63033" lon="1.12377">
        <ele>975</ele>
        <time>2022-05-22 19:08:10</time>
      </trkpt>
      <trkpt lat="42.63036" lon="1.12376">
        <ele>975.2</ele>
        <time>2022-05-22 19:08:11</time>
      </trkpt>
      <trkpt lat="42.6304" lon="1.12374">
        <ele>975.2</ele>
        <time>2022-05-22 19:08:12</time>
      </trkpt>
      <trkpt lat="42.63044" lon="1.12373">
        <ele>975.4</ele>
        <time>2022-05-22 19:08:13</time>
      </trkpt>
      <trkpt lat="42.63046" lon="1.12372">
        <ele>975.4</ele>
        <time>2022-05-22 19:08:14</time>
      </trkpt>
      <trkpt lat="42.63051" lon="1.1237">
        <ele>975.6</ele>
        <time>2022-05-22 19:08:15</time>
      </trkpt>
      <trkpt lat="42.63054" lon="1.12369">
        <ele>975.8</ele>
        <time>2022-05-22 19:08:16</time>
      </trkpt>
      <trkpt lat="42.63058" lon="1.12368">
        <ele>975.8</ele>
        <time>2022-05-22 19:08:17</time>
      </trkpt>
      <trkpt lat="42.63062" lon="1.12366">
        <ele>976</ele>
        <time>2022-05-22 19:08:18</time>
      </trkpt>
      <trkpt lat="42.63064" lon="1.12365">
        <ele>976</ele>
        <time>2022-05-22 19:08:19</time>
      </trkpt>
      <trkpt lat="42.63066" lon="1.12363">
        <ele>976.2</ele>
        <time>2022-05-22 19:08:20</time>
      </trkpt>
      <trkpt lat="42.6307" lon="1.12361">
        <ele>976.2</ele>
        <time>2022-05-22 19:08:21</time>
      </trkpt>
      <trkpt lat="42.63073" lon="1.1236">
        <ele>976.4</ele>
        <time>2022-05-22 19:08:22</time>
      </trkpt>
      <trkpt lat="42.63075" lon="1.12358">
        <ele>976.4</ele>
        <time>2022-05-22 19:08:23</time>
      </trkpt>
      <trkpt lat="42.63078" lon="1.12356">
        <ele>976.6</ele>
        <time>2022-05-22 19:08:24</time>
      </trkpt>
      <trkpt lat="42.6308" lon="1.12354">
        <ele>976.6</ele>
        <time>2022-05-22 19:08:25</time>
      </trkpt>
      <trkpt lat="42.63082" lon="1.12352">
        <ele>976.8</ele>
        <time>2022-05-22 19:08:26</time>
      </trkpt>
      <trkpt lat="42.63084" lon="1.1235">
        <ele>977</ele>
        <time>2022-05-22 19:08:27</time>
      </trkpt>
      <trkpt lat="42.63086" lon="1.12347">
        <ele>977</ele>
        <time>2022-05-22 19:08:28</time>
      </trkpt>
      <trkpt lat="42.63088" lon="1.12345">
        <ele>977.2</ele>
        <time>2022-05-22 19:08:29</time>
      </trkpt>
      <trkpt lat="42.6309" lon="1.12343">
        <ele>977.2</ele>
        <time>2022-05-22 19:08:30</time>
      </trkpt>
      <trkpt lat="42.63091" lon="1.12341">
        <ele>977.4</ele>
        <time>2022-05-22 19:08:31</time>
      </trkpt>
      <trkpt lat="42.63093" lon="1.12339">
        <ele>977.4</ele>
        <time>2022-05-22 19:08:32</time>
      </trkpt>
      <trkpt lat="42.63095" lon="1.12336">
        <ele>977.6</ele>
        <time>2022-05-22 19:08:33</time>
      </trkpt>
      <trkpt lat="42.63096" lon="1.12333">
        <ele>977.6</ele>
        <time>2022-05-22 19:08:34</time>
      </trkpt>
      <trkpt lat="42.63098" lon="1.1233">
        <ele>977.8</ele>
        <time>2022-05-22 19:08:35</time>
      </trkpt>
      <trkpt lat="42.631" lon="1.12327">
        <ele>977.8</ele>
        <time>2022-05-22 19:08:36</time>
      </trkpt>
      <trkpt lat="42.63102" lon="1.12324">
        <ele>978</ele>
        <time>2022-05-22 19:08:37</time>
      </trkpt>
      <trkpt lat="42.63104" lon="1.12321">
        <ele>978</ele>
        <time>2022-05-22 19:08:38</time>
      </trkpt>
      <trkpt lat="42.63107" lon="1.12318">
        <ele>978.2</ele>
        <time>2022-05-22 19:08:39</time>
      </trkpt>
      <trkpt lat="42.63109" lon="1.12314">
        <ele>978.2</ele>
        <time>2022-05-22 19:08:40</time>
      </trkpt>
      <trkpt lat="42.63111" lon="1.12312">
        <ele>978.4</ele>
        <time>2022-05-22 19:08:41</time>
      </trkpt>
      <trkpt lat="42.63112" lon="1.12311">
        <ele>978.4</ele>
        <time>2022-05-22 19:08:42</time>
      </trkpt>
      <trkpt lat="42.63115" lon="1.12306">
        <ele>978.6</ele>
        <time>2022-05-22 19:08:43</time>
      </trkpt>
      <trkpt lat="42.63117" lon="1.12303">
        <ele>978.6</ele>
        <time>2022-05-22 19:08:44</time>
      </trkpt>
      <trkpt lat="42.63119" lon="1.123">
        <ele>978.8</ele>
        <time>2022-05-22 19:08:45</time>
      </trkpt>
      <trkpt lat="42.6312" lon="1.12297">
        <ele>979</ele>
        <time>2022-05-22 19:08:46</time>
      </trkpt>
      <trkpt lat="42.63121" lon="1.12294">
        <ele>979</ele>
        <time>2022-05-22 19:08:47</time>
      </trkpt>
      <trkpt lat="42.63123" lon="1.12291">
        <ele>979.2</ele>
        <time>2022-05-22 19:08:48</time>
      </trkpt>
      <trkpt lat="42.63124" lon="1.12287">
        <ele>979.2</ele>
        <time>2022-05-22 19:08:49</time>
      </trkpt>
      <trkpt lat="42.63124" lon="1.12284">
        <ele>979.4</ele>
        <time>2022-05-22 19:08:50</time>
      </trkpt>
      <trkpt lat="42.63125" lon="1.12281">
        <ele>979.6</ele>
        <time>2022-05-22 19:08:51</time>
      </trkpt>
      <trkpt lat="42.63126" lon="1.12279">
        <ele>979.6</ele>
        <time>2022-05-22 19:08:52</time>
      </trkpt>
      <trkpt lat="42.63127" lon="1.12276">
        <ele>979.8</ele>
        <time>2022-05-22 19:08:53</time>
      </trkpt>
      <trkpt lat="42.63128" lon="1.12274">
        <ele>980</ele>
        <time>2022-05-22 19:08:54</time>
      </trkpt>
      <trkpt lat="42.63129" lon="1.12271">
        <ele>980.2</ele>
        <time>2022-05-22 19:08:55</time>
      </trkpt>
      <trkpt lat="42.63129" lon="1.12269">
        <ele>980.2</ele>
        <time>2022-05-22 19:08:56</time>
      </trkpt>
      <trkpt lat="42.6313" lon="1.12266">
        <ele>980.4</ele>
        <time>2022-05-22 19:08:57</time>
      </trkpt>
      <trkpt lat="42.6313" lon="1.12264">
        <ele>980.6</ele>
        <time>2022-05-22 19:08:58</time>
      </trkpt>
      <trkpt lat="42.63131" lon="1.12261">
        <ele>980.8</ele>
        <time>2022-05-22 19:08:59</time>
      </trkpt>
      <trkpt lat="42.63132" lon="1.12258">
        <ele>980.8</ele>
        <time>2022-05-22 19:09:00</time>
      </trkpt>
      <trkpt lat="42.63133" lon="1.12256">
        <ele>981</ele>
        <time>2022-05-22 19:09:01</time>
      </trkpt>
      <trkpt lat="42.63134" lon="1.12253">
        <ele>981</ele>
        <time>2022-05-22 19:09:02</time>
      </trkpt>
      <trkpt lat="42.63136" lon="1.12251">
        <ele>981.2</ele>
        <time>2022-05-22 19:09:03</time>
      </trkpt>
      <trkpt lat="42.63137" lon="1.12248">
        <ele>981.4</ele>
        <time>2022-05-22 19:09:04</time>
      </trkpt>
      <trkpt lat="42.63137" lon="1.12246">
        <ele>981.4</ele>
        <time>2022-05-22 19:09:05</time>
      </trkpt>
      <trkpt lat="42.63139" lon="1.12243">
        <ele>981.6</ele>
        <time>2022-05-22 19:09:06</time>
      </trkpt>
      <trkpt lat="42.6314" lon="1.12241">
        <ele>981.6</ele>
        <time>2022-05-22 19:09:07</time>
      </trkpt>
      <trkpt lat="42.63141" lon="1.12238">
        <ele>981.8</ele>
        <time>2022-05-22 19:09:08</time>
      </trkpt>
      <trkpt lat="42.63142" lon="1.12236">
        <ele>982</ele>
        <time>2022-05-22 19:09:09</time>
      </trkpt>
      <trkpt lat="42.63143" lon="1.12234">
        <ele>982</ele>
        <time>2022-05-22 19:09:10</time>
      </trkpt>
      <trkpt lat="42.63145" lon="1.12232">
        <ele>982.2</ele>
        <time>2022-05-22 19:09:11</time>
      </trkpt>
      <trkpt lat="42.63147" lon="1.1223">
        <ele>982.2</ele>
        <time>2022-05-22 19:09:12</time>
      </trkpt>
      <trkpt lat="42.63148" lon="1.12227">
        <ele>982.4</ele>
        <time>2022-05-22 19:09:13</time>
      </trkpt>
      <trkpt lat="42.63149" lon="1.12225">
        <ele>982.6</ele>
        <time>2022-05-22 19:09:14</time>
      </trkpt>
      <trkpt lat="42.6315" lon="1.12222">
        <ele>982.6</ele>
        <time>2022-05-22 19:09:15</time>
      </trkpt>
      <trkpt lat="42.63151" lon="1.12219">
        <ele>982.8</ele>
        <time>2022-05-22 19:09:16</time>
      </trkpt>
      <trkpt lat="42.63152" lon="1.12217">
        <ele>982.8</ele>
        <time>2022-05-22 19:09:17</time>
      </trkpt>
      <trkpt lat="42.63154" lon="1.12214">
        <ele>983</ele>
        <time>2022-05-22 19:09:18</time>
      </trkpt>
      <trkpt lat="42.63155" lon="1.12211">
        <ele>983</ele>
        <time>2022-05-22 19:09:19</time>
      </trkpt>
      <trkpt lat="42.63156" lon="1.12209">
        <ele>983.2</ele>
        <time>2022-05-22 19:09:20</time>
      </trkpt>
      <trkpt lat="42.63158" lon="1.12207">
        <ele>983.4</ele>
        <time>2022-05-22 19:09:21</time>
      </trkpt>
      <trkpt lat="42.63159" lon="1.12204">
        <ele>983.4</ele>
        <time>2022-05-22 19:09:22</time>
      </trkpt>
      <trkpt lat="42.6316" lon="1.12202">
        <ele>983.6</ele>
        <time>2022-05-22 19:09:23</time>
      </trkpt>
      <trkpt lat="42.63162" lon="1.12199">
        <ele>983.6</ele>
        <time>2022-05-22 19:09:24</time>
      </trkpt>
      <trkpt lat="42.63163" lon="1.12196">
        <ele>983.8</ele>
        <time>2022-05-22 19:09:25</time>
      </trkpt>
      <trkpt lat="42.63164" lon="1.12193">
        <ele>984</ele>
        <time>2022-05-22 19:09:26</time>
      </trkpt>
      <trkpt lat="42.63165" lon="1.12191">
        <ele>984</ele>
        <time>2022-05-22 19:09:27</time>
      </trkpt>
      <trkpt lat="42.63167" lon="1.12189">
        <ele>984.2</ele>
        <time>2022-05-22 19:09:28</time>
      </trkpt>
      <trkpt lat="42.63167" lon="1.12187">
        <ele>984.4</ele>
        <time>2022-05-22 19:09:29</time>
      </trkpt>
      <trkpt lat="42.63168" lon="1.12184">
        <ele>984.4</ele>
        <time>2022-05-22 19:09:30</time>
      </trkpt>
      <trkpt lat="42.63169" lon="1.12182">
        <ele>984.6</ele>
        <time>2022-05-22 19:09:31</time>
      </trkpt>
      <trkpt lat="42.63169" lon="1.1218">
        <ele>984.8</ele>
        <time>2022-05-22 19:09:32</time>
      </trkpt>
      <trkpt lat="42.6317" lon="1.12177">
        <ele>984.8</ele>
        <time>2022-05-22 19:09:33</time>
      </trkpt>
      <trkpt lat="42.63171" lon="1.12175">
        <ele>985</ele>
        <time>2022-05-22 19:09:34</time>
      </trkpt>
      <trkpt lat="42.63172" lon="1.12172">
        <ele>985</ele>
        <time>2022-05-22 19:09:35</time>
      </trkpt>
      <trkpt lat="42.63174" lon="1.12169">
        <ele>985.2</ele>
        <time>2022-05-22 19:09:36</time>
      </trkpt>
      <trkpt lat="42.63175" lon="1.12165">
        <ele>985.2</ele>
        <time>2022-05-22 19:09:37</time>
      </trkpt>
      <trkpt lat="42.63176" lon="1.12161">
        <ele>985.4</ele>
        <time>2022-05-22 19:09:38</time>
      </trkpt>
      <trkpt lat="42.63177" lon="1.12158">
        <ele>985.4</ele>
        <time>2022-05-22 19:09:39</time>
      </trkpt>
      <trkpt lat="42.63178" lon="1.12154">
        <ele>985.6</ele>
        <time>2022-05-22 19:09:40</time>
      </trkpt>
      <trkpt lat="42.63178" lon="1.12151">
        <ele>985.6</ele>
        <time>2022-05-22 19:09:41</time>
      </trkpt>
      <trkpt lat="42.63179" lon="1.12148">
        <ele>985.8</ele>
        <time>2022-05-22 19:09:42</time>
      </trkpt>
      <trkpt lat="42.6318" lon="1.12145">
        <ele>985.8</ele>
        <time>2022-05-22 19:09:43</time>
      </trkpt>
      <trkpt lat="42.63181" lon="1.12142">
        <ele>986</ele>
        <time>2022-05-22 19:09:44</time>
      </trkpt>
      <trkpt lat="42.63182" lon="1.12139">
        <ele>986</ele>
        <time>2022-05-22 19:09:45</time>
      </trkpt>
      <trkpt lat="42.63182" lon="1.12136">
        <ele>986.2</ele>
        <time>2022-05-22 19:09:46</time>
      </trkpt>
      <trkpt lat="42.63183" lon="1.12133">
        <ele>986.2</ele>
        <time>2022-05-22 19:09:47</time>
      </trkpt>
      <trkpt lat="42.63184" lon="1.12131">
        <ele>986.4</ele>
        <time>2022-05-22 19:09:48</time>
      </trkpt>
      <trkpt lat="42.63185" lon="1.12128">
        <ele>986.4</ele>
        <time>2022-05-22 19:09:49</time>
      </trkpt>
      <trkpt lat="42.63185" lon="1.12125">
        <ele>986.6</ele>
        <time>2022-05-22 19:09:50</time>
      </trkpt>
      <trkpt lat="42.63186" lon="1.12123">
        <ele>986.8</ele>
        <time>2022-05-22 19:09:51</time>
      </trkpt>
      <trkpt lat="42.63186" lon="1.1212">
        <ele>986.8</ele>
        <time>2022-05-22 19:09:52</time>
      </trkpt>
      <trkpt lat="42.63187" lon="1.12118">
        <ele>987</ele>
        <time>2022-05-22 19:09:53</time>
      </trkpt>
      <trkpt lat="42.63188" lon="1.12115">
        <ele>987.2</ele>
        <time>2022-05-22 19:09:54</time>
      </trkpt>
      <trkpt lat="42.63188" lon="1.12113">
        <ele>987.4</ele>
        <time>2022-05-22 19:09:55</time>
      </trkpt>
      <trkpt lat="42.63189" lon="1.12111">
        <ele>987.4</ele>
        <time>2022-05-22 19:09:56</time>
      </trkpt>
      <trkpt lat="42.6319" lon="1.12108">
        <ele>987.6</ele>
        <time>2022-05-22 19:09:57</time>
      </trkpt>
      <trkpt lat="42.63191" lon="1.12106">
        <ele>987.8</ele>
        <time>2022-05-22 19:09:58</time>
      </trkpt>
      <trkpt lat="42.63192" lon="1.12103">
        <ele>987.8</ele>
        <time>2022-05-22 19:09:59</time>
      </trkpt>
      <trkpt lat="42.63194" lon="1.121">
        <ele>988</ele>
        <time>2022-05-22 19:10:00</time>
      </trkpt>
      <trkpt lat="42.63195" lon="1.12098">
        <ele>988.2</ele>
        <time>2022-05-22 19:10:01</time>
      </trkpt>
      <trkpt lat="42.63196" lon="1.12095">
        <ele>988.2</ele>
        <time>2022-05-22 19:10:02</time>
      </trkpt>
      <trkpt lat="42.63197" lon="1.12092">
        <ele>988.4</ele>
        <time>2022-05-22 19:10:03</time>
      </trkpt>
      <trkpt lat="42.63199" lon="1.12089">
        <ele>988.4</ele>
        <time>2022-05-22 19:10:04</time>
      </trkpt>
      <trkpt lat="42.632" lon="1.12087">
        <ele>988.6</ele>
        <time>2022-05-22 19:10:05</time>
      </trkpt>
      <trkpt lat="42.63201" lon="1.12083">
        <ele>988.8</ele>
        <time>2022-05-22 19:10:06</time>
      </trkpt>
      <trkpt lat="42.63203" lon="1.1208">
        <ele>988.8</ele>
        <time>2022-05-22 19:10:07</time>
      </trkpt>
      <trkpt lat="42.63204" lon="1.12077">
        <ele>989</ele>
        <time>2022-05-22 19:10:08</time>
      </trkpt>
      <trkpt lat="42.63206" lon="1.12075">
        <ele>989.2</ele>
        <time>2022-05-22 19:10:09</time>
      </trkpt>
      <trkpt lat="42.63208" lon="1.12072">
        <ele>989.4</ele>
        <time>2022-05-22 19:10:10</time>
      </trkpt>
      <trkpt lat="42.6321" lon="1.1207">
        <ele>989.6</ele>
        <time>2022-05-22 19:10:11</time>
      </trkpt>
      <trkpt lat="42.63211" lon="1.12068">
        <ele>989.6</ele>
        <time>2022-05-22 19:10:12</time>
      </trkpt>
      <trkpt lat="42.63213" lon="1.12065">
        <ele>989.8</ele>
        <time>2022-05-22 19:10:13</time>
      </trkpt>
      <trkpt lat="42.63213" lon="1.12063">
        <ele>990</ele>
        <time>2022-05-22 19:10:14</time>
      </trkpt>
      <trkpt lat="42.63214" lon="1.1206">
        <ele>990</ele>
        <time>2022-05-22 19:10:15</time>
      </trkpt>
      <trkpt lat="42.63216" lon="1.12058">
        <ele>990.2</ele>
        <time>2022-05-22 19:10:16</time>
      </trkpt>
      <trkpt lat="42.63217" lon="1.12055">
        <ele>990.4</ele>
        <time>2022-05-22 19:10:17</time>
      </trkpt>
      <trkpt lat="42.63218" lon="1.12053">
        <ele>990.6</ele>
        <time>2022-05-22 19:10:18</time>
      </trkpt>
      <trkpt lat="42.6322" lon="1.1205">
        <ele>990.6</ele>
        <time>2022-05-22 19:10:19</time>
      </trkpt>
      <trkpt lat="42.63221" lon="1.12048">
        <ele>990.8</ele>
        <time>2022-05-22 19:10:20</time>
      </trkpt>
      <trkpt lat="42.63222" lon="1.12046">
        <ele>991</ele>
        <time>2022-05-22 19:10:21</time>
      </trkpt>
      <trkpt lat="42.63224" lon="1.12043">
        <ele>991</ele>
        <time>2022-05-22 19:10:22</time>
      </trkpt>
      <trkpt lat="42.63226" lon="1.12041">
        <ele>991.2</ele>
        <time>2022-05-22 19:10:23</time>
      </trkpt>
      <trkpt lat="42.63227" lon="1.12038">
        <ele>991.2</ele>
        <time>2022-05-22 19:10:24</time>
      </trkpt>
      <trkpt lat="42.63229" lon="1.12036">
        <ele>991.4</ele>
        <time>2022-05-22 19:10:25</time>
      </trkpt>
      <trkpt lat="42.6323" lon="1.12034">
        <ele>991.6</ele>
        <time>2022-05-22 19:10:26</time>
      </trkpt>
      <trkpt lat="42.63231" lon="1.12031">
        <ele>991.6</ele>
        <time>2022-05-22 19:10:27</time>
      </trkpt>
      <trkpt lat="42.63232" lon="1.12029">
        <ele>991.8</ele>
        <time>2022-05-22 19:10:28</time>
      </trkpt>
      <trkpt lat="42.63234" lon="1.12028">
        <ele>992</ele>
        <time>2022-05-22 19:10:29</time>
      </trkpt>
      <trkpt lat="42.63235" lon="1.12026">
        <ele>992</ele>
        <time>2022-05-22 19:10:30</time>
      </trkpt>
      <trkpt lat="42.63236" lon="1.12025">
        <ele>992.2</ele>
        <time>2022-05-22 19:10:31</time>
      </trkpt>
      <trkpt lat="42.63238" lon="1.12023">
        <ele>992.4</ele>
        <time>2022-05-22 19:10:32</time>
      </trkpt>
      <trkpt lat="42.63239" lon="1.12021">
        <ele>992.4</ele>
        <time>2022-05-22 19:10:33</time>
      </trkpt>
      <trkpt lat="42.63241" lon="1.12019">
        <ele>992.6</ele>
        <time>2022-05-22 19:10:34</time>
      </trkpt>
      <trkpt lat="42.63242" lon="1.12017">
        <ele>992.8</ele>
        <time>2022-05-22 19:10:35</time>
      </trkpt>
      <trkpt lat="42.63243" lon="1.12015">
        <ele>992.8</ele>
        <time>2022-05-22 19:10:36</time>
      </trkpt>
      <trkpt lat="42.63245" lon="1.12012">
        <ele>993</ele>
        <time>2022-05-22 19:10:37</time>
      </trkpt>
      <trkpt lat="42.63246" lon="1.1201">
        <ele>993.2</ele>
        <time>2022-05-22 19:10:38</time>
      </trkpt>
      <trkpt lat="42.63248" lon="1.12008">
        <ele>993.4</ele>
        <time>2022-05-22 19:10:39</time>
      </trkpt>
      <trkpt lat="42.6325" lon="1.12006">
        <ele>993.4</ele>
        <time>2022-05-22 19:10:40</time>
      </trkpt>
      <trkpt lat="42.63251" lon="1.12004">
        <ele>993.6</ele>
        <time>2022-05-22 19:10:41</time>
      </trkpt>
      <trkpt lat="42.63253" lon="1.12002">
        <ele>993.8</ele>
        <time>2022-05-22 19:10:42</time>
      </trkpt>
      <trkpt lat="42.63254" lon="1.12">
        <ele>993.8</ele>
        <time>2022-05-22 19:10:43</time>
      </trkpt>
      <trkpt lat="42.63256" lon="1.11997">
        <ele>994</ele>
        <time>2022-05-22 19:10:44</time>
      </trkpt>
      <trkpt lat="42.63257" lon="1.11995">
        <ele>994.2</ele>
        <time>2022-05-22 19:10:45</time>
      </trkpt>
      <trkpt lat="42.63259" lon="1.11993">
        <ele>994.4</ele>
        <time>2022-05-22 19:10:46</time>
      </trkpt>
      <trkpt lat="42.63261" lon="1.11992">
        <ele>994.4</ele>
        <time>2022-05-22 19:10:47</time>
      </trkpt>
      <trkpt lat="42.63263" lon="1.1199">
        <ele>994.6</ele>
        <time>2022-05-22 19:10:48</time>
      </trkpt>
      <trkpt lat="42.63265" lon="1.11988">
        <ele>994.8</ele>
        <time>2022-05-22 19:10:49</time>
      </trkpt>
      <trkpt lat="42.63267" lon="1.11986">
        <ele>995</ele>
        <time>2022-05-22 19:10:50</time>
      </trkpt>
      <trkpt lat="42.63269" lon="1.11985">
        <ele>995</ele>
        <time>2022-05-22 19:10:51</time>
      </trkpt>
      <trkpt lat="42.6327" lon="1.11983">
        <ele>995.2</ele>
        <time>2022-05-22 19:10:52</time>
      </trkpt>
      <trkpt lat="42.63272" lon="1.11982">
        <ele>995.4</ele>
        <time>2022-05-22 19:10:53</time>
      </trkpt>
      <trkpt lat="42.63274" lon="1.11981">
        <ele>995.4</ele>
        <time>2022-05-22 19:10:54</time>
      </trkpt>
      <trkpt lat="42.63276" lon="1.11979">
        <ele>995.6</ele>
        <time>2022-05-22 19:10:55</time>
      </trkpt>
      <trkpt lat="42.63277" lon="1.11977">
        <ele>995.8</ele>
        <time>2022-05-22 19:10:56</time>
      </trkpt>
      <trkpt lat="42.63279" lon="1.11976">
        <ele>995.8</ele>
        <time>2022-05-22 19:10:57</time>
      </trkpt>
      <trkpt lat="42.63281" lon="1.11974">
        <ele>996</ele>
        <time>2022-05-22 19:10:58</time>
      </trkpt>
      <trkpt lat="42.63283" lon="1.11972">
        <ele>996</ele>
        <time>2022-05-22 19:10:59</time>
      </trkpt>
      <trkpt lat="42.63285" lon="1.11971">
        <ele>996.2</ele>
        <time>2022-05-22 19:11:00</time>
      </trkpt>
      <trkpt lat="42.63287" lon="1.11969">
        <ele>996.2</ele>
        <time>2022-05-22 19:11:01</time>
      </trkpt>
      <trkpt lat="42.6329" lon="1.11968">
        <ele>996.4</ele>
        <time>2022-05-22 19:11:02</time>
      </trkpt>
      <trkpt lat="42.63292" lon="1.11967">
        <ele>996.4</ele>
        <time>2022-05-22 19:11:03</time>
      </trkpt>
      <trkpt lat="42.63294" lon="1.11965">
        <ele>996.6</ele>
        <time>2022-05-22 19:11:04</time>
      </trkpt>
      <trkpt lat="42.63296" lon="1.11964">
        <ele>996.6</ele>
        <time>2022-05-22 19:11:05</time>
      </trkpt>
      <trkpt lat="42.63298" lon="1.11962">
        <ele>996.6</ele>
        <time>2022-05-22 19:11:06</time>
      </trkpt>
      <trkpt lat="42.633" lon="1.1196">
        <ele>996.8</ele>
        <time>2022-05-22 19:11:07</time>
      </trkpt>
      <trkpt lat="42.63301" lon="1.11957">
        <ele>996.8</ele>
        <time>2022-05-22 19:11:08</time>
      </trkpt>
      <trkpt lat="42.63303" lon="1.11955">
        <ele>996.8</ele>
        <time>2022-05-22 19:11:09</time>
      </trkpt>
      <trkpt lat="42.63304" lon="1.11952">
        <ele>996.8</ele>
        <time>2022-05-22 19:11:10</time>
      </trkpt>
      <trkpt lat="42.63306" lon="1.1195">
        <ele>996.8</ele>
        <time>2022-05-22 19:11:11</time>
      </trkpt>
      <trkpt lat="42.63308" lon="1.11947">
        <ele>997</ele>
        <time>2022-05-22 19:11:12</time>
      </trkpt>
      <trkpt lat="42.63309" lon="1.11943">
        <ele>997</ele>
        <time>2022-05-22 19:11:13</time>
      </trkpt>
      <trkpt lat="42.63311" lon="1.1194">
        <ele>997</ele>
        <time>2022-05-22 19:11:14</time>
      </trkpt>
      <trkpt lat="42.63312" lon="1.11937">
        <ele>997</ele>
        <time>2022-05-22 19:11:15</time>
      </trkpt>
      <trkpt lat="42.63313" lon="1.11934">
        <ele>997</ele>
        <time>2022-05-22 19:11:16</time>
      </trkpt>
      <trkpt lat="42.63314" lon="1.11931">
        <ele>997</ele>
        <time>2022-05-22 19:11:17</time>
      </trkpt>
      <trkpt lat="42.63315" lon="1.11928">
        <ele>997.2</ele>
        <time>2022-05-22 19:11:18</time>
      </trkpt>
      <trkpt lat="42.63316" lon="1.11926">
        <ele>997.2</ele>
        <time>2022-05-22 19:11:19</time>
      </trkpt>
      <trkpt lat="42.63318" lon="1.11923">
        <ele>997.2</ele>
        <time>2022-05-22 19:11:20</time>
      </trkpt>
      <trkpt lat="42.63319" lon="1.1192">
        <ele>997.2</ele>
        <time>2022-05-22 19:11:21</time>
      </trkpt>
      <trkpt lat="42.6332" lon="1.11918">
        <ele>997.2</ele>
        <time>2022-05-22 19:11:22</time>
      </trkpt>
      <trkpt lat="42.63322" lon="1.11916">
        <ele>997.4</ele>
        <time>2022-05-22 19:11:23</time>
      </trkpt>
      <trkpt lat="42.63324" lon="1.11913">
        <ele>997.4</ele>
        <time>2022-05-22 19:11:24</time>
      </trkpt>
      <trkpt lat="42.63326" lon="1.11911">
        <ele>997.4</ele>
        <time>2022-05-22 19:11:25</time>
      </trkpt>
      <trkpt lat="42.63328" lon="1.11909">
        <ele>997.4</ele>
        <time>2022-05-22 19:11:26</time>
      </trkpt>
      <trkpt lat="42.6333" lon="1.11908">
        <ele>997.6</ele>
        <time>2022-05-22 19:11:27</time>
      </trkpt>
      <trkpt lat="42.63333" lon="1.11906">
        <ele>997.6</ele>
        <time>2022-05-22 19:11:28</time>
      </trkpt>
      <trkpt lat="42.63336" lon="1.11904">
        <ele>997.6</ele>
        <time>2022-05-22 19:11:29</time>
      </trkpt>
      <trkpt lat="42.63338" lon="1.11903">
        <ele>997.6</ele>
        <time>2022-05-22 19:11:30</time>
      </trkpt>
      <trkpt lat="42.63341" lon="1.11902">
        <ele>997.8</ele>
        <time>2022-05-22 19:11:31</time>
      </trkpt>
      <trkpt lat="42.63344" lon="1.11902">
        <ele>997.8</ele>
        <time>2022-05-22 19:11:32</time>
      </trkpt>
      <trkpt lat="42.63346" lon="1.11901">
        <ele>997.8</ele>
        <time>2022-05-22 19:11:33</time>
      </trkpt>
      <trkpt lat="42.63349" lon="1.11901">
        <ele>997.8</ele>
        <time>2022-05-22 19:11:34</time>
      </trkpt>
      <trkpt lat="42.63352" lon="1.11902">
        <ele>997.8</ele>
        <time>2022-05-22 19:11:35</time>
      </trkpt>
      <trkpt lat="42.63355" lon="1.11903">
        <ele>997.8</ele>
        <time>2022-05-22 19:11:36</time>
      </trkpt>
      <trkpt lat="42.63358" lon="1.11904">
        <ele>997.8</ele>
        <time>2022-05-22 19:11:37</time>
      </trkpt>
      <trkpt lat="42.6336" lon="1.11905">
        <ele>997.8</ele>
        <time>2022-05-22 19:11:38</time>
      </trkpt>
      <trkpt lat="42.63363" lon="1.11906">
        <ele>998</ele>
        <time>2022-05-22 19:11:39</time>
      </trkpt>
      <trkpt lat="42.63365" lon="1.11908">
        <ele>998</ele>
        <time>2022-05-22 19:11:40</time>
      </trkpt>
      <trkpt lat="42.63368" lon="1.1191">
        <ele>998</ele>
        <time>2022-05-22 19:11:41</time>
      </trkpt>
      <trkpt lat="42.63371" lon="1.11912">
        <ele>998</ele>
        <time>2022-05-22 19:11:42</time>
      </trkpt>
      <trkpt lat="42.63373" lon="1.11914">
        <ele>998</ele>
        <time>2022-05-22 19:11:43</time>
      </trkpt>
      <trkpt lat="42.63376" lon="1.11916">
        <ele>997.8</ele>
        <time>2022-05-22 19:11:44</time>
      </trkpt>
      <trkpt lat="42.63379" lon="1.11919">
        <ele>997.8</ele>
        <time>2022-05-22 19:11:45</time>
      </trkpt>
      <trkpt lat="42.63382" lon="1.11921">
        <ele>997.8</ele>
        <time>2022-05-22 19:11:46</time>
      </trkpt>
      <trkpt lat="42.63385" lon="1.11924">
        <ele>997.8</ele>
        <time>2022-05-22 19:11:47</time>
      </trkpt>
      <trkpt lat="42.63387" lon="1.11926">
        <ele>997.8</ele>
        <time>2022-05-22 19:11:48</time>
      </trkpt>
      <trkpt lat="42.6339" lon="1.11928">
        <ele>997.8</ele>
        <time>2022-05-22 19:11:49</time>
      </trkpt>
      <trkpt lat="42.63393" lon="1.1193">
        <ele>997.8</ele>
        <time>2022-05-22 19:11:50</time>
      </trkpt>
      <trkpt lat="42.63395" lon="1.11932">
        <ele>997.8</ele>
        <time>2022-05-22 19:11:51</time>
      </trkpt>
      <trkpt lat="42.63398" lon="1.11935">
        <ele>997.8</ele>
        <time>2022-05-22 19:11:52</time>
      </trkpt>
      <trkpt lat="42.63401" lon="1.11937">
        <ele>997.8</ele>
        <time>2022-05-22 19:11:53</time>
      </trkpt>
      <trkpt lat="42.63403" lon="1.11939">
        <ele>997.8</ele>
        <time>2022-05-22 19:11:54</time>
      </trkpt>
      <trkpt lat="42.63405" lon="1.11941">
        <ele>997.8</ele>
        <time>2022-05-22 19:11:55</time>
      </trkpt>
      <trkpt lat="42.63408" lon="1.11943">
        <ele>997.8</ele>
        <time>2022-05-22 19:11:56</time>
      </trkpt>
      <trkpt lat="42.63411" lon="1.11945">
        <ele>997.8</ele>
        <time>2022-05-22 19:11:57</time>
      </trkpt>
      <trkpt lat="42.63413" lon="1.11947">
        <ele>997.8</ele>
        <time>2022-05-22 19:11:58</time>
      </trkpt>
      <trkpt lat="42.63415" lon="1.1195">
        <ele>997.8</ele>
        <time>2022-05-22 19:11:59</time>
      </trkpt>
      <trkpt lat="42.63418" lon="1.11953">
        <ele>997.8</ele>
        <time>2022-05-22 19:12:00</time>
      </trkpt>
      <trkpt lat="42.6342" lon="1.11956">
        <ele>997.8</ele>
        <time>2022-05-22 19:12:01</time>
      </trkpt>
      <trkpt lat="42.63422" lon="1.1196">
        <ele>998</ele>
        <time>2022-05-22 19:12:02</time>
      </trkpt>
      <trkpt lat="42.63424" lon="1.11964">
        <ele>998</ele>
        <time>2022-05-22 19:12:03</time>
      </trkpt>
      <trkpt lat="42.63425" lon="1.11967">
        <ele>998</ele>
        <time>2022-05-22 19:12:04</time>
      </trkpt>
      <trkpt lat="42.63427" lon="1.11971">
        <ele>998</ele>
        <time>2022-05-22 19:12:05</time>
      </trkpt>
      <trkpt lat="42.63428" lon="1.11976">
        <ele>998</ele>
        <time>2022-05-22 19:12:06</time>
      </trkpt>
      <trkpt lat="42.63429" lon="1.1198">
        <ele>998</ele>
        <time>2022-05-22 19:12:07</time>
      </trkpt>
      <trkpt lat="42.6343" lon="1.11984">
        <ele>998</ele>
        <time>2022-05-22 19:12:08</time>
      </trkpt>
      <trkpt lat="42.6343" lon="1.11989">
        <ele>998</ele>
        <time>2022-05-22 19:12:09</time>
      </trkpt>
      <trkpt lat="42.6343" lon="1.11993">
        <ele>998</ele>
        <time>2022-05-22 19:12:10</time>
      </trkpt>
      <trkpt lat="42.6343" lon="1.11998">
        <ele>998</ele>
        <time>2022-05-22 19:12:11</time>
      </trkpt>
      <trkpt lat="42.6343" lon="1.12002">
        <ele>998</ele>
        <time>2022-05-22 19:12:12</time>
      </trkpt>
      <trkpt lat="42.6343" lon="1.12006">
        <ele>998</ele>
        <time>2022-05-22 19:12:13</time>
      </trkpt>
      <trkpt lat="42.63431" lon="1.12011">
        <ele>998</ele>
        <time>2022-05-22 19:12:14</time>
      </trkpt>
      <trkpt lat="42.63431" lon="1.12016">
        <ele>998</ele>
        <time>2022-05-22 19:12:15</time>
      </trkpt>
      <trkpt lat="42.63431" lon="1.1202">
        <ele>998</ele>
        <time>2022-05-22 19:12:16</time>
      </trkpt>
      <trkpt lat="42.63431" lon="1.12025">
        <ele>998</ele>
        <time>2022-05-22 19:12:17</time>
      </trkpt>
      <trkpt lat="42.63431" lon="1.1203">
        <ele>998</ele>
        <time>2022-05-22 19:12:18</time>
      </trkpt>
      <trkpt lat="42.63431" lon="1.12035">
        <ele>998</ele>
        <time>2022-05-22 19:12:19</time>
      </trkpt>
      <trkpt lat="42.63432" lon="1.1204">
        <ele>998</ele>
        <time>2022-05-22 19:12:20</time>
      </trkpt>
      <trkpt lat="42.63432" lon="1.12045">
        <ele>998</ele>
        <time>2022-05-22 19:12:21</time>
      </trkpt>
      <trkpt lat="42.63431" lon="1.1205">
        <ele>998</ele>
        <time>2022-05-22 19:12:22</time>
      </trkpt>
      <trkpt lat="42.63431" lon="1.12054">
        <ele>998</ele>
        <time>2022-05-22 19:12:23</time>
      </trkpt>
      <trkpt lat="42.63431" lon="1.12059">
        <ele>998</ele>
        <time>2022-05-22 19:12:24</time>
      </trkpt>
      <trkpt lat="42.6343" lon="1.12064">
        <ele>998</ele>
        <time>2022-05-22 19:12:25</time>
      </trkpt>
      <trkpt lat="42.63431" lon="1.12069">
        <ele>998</ele>
        <time>2022-05-22 19:12:26</time>
      </trkpt>
      <trkpt lat="42.63431" lon="1.12074">
        <ele>998</ele>
        <time>2022-05-22 19:12:27</time>
      </trkpt>
      <trkpt lat="42.63432" lon="1.12078">
        <ele>998</ele>
        <time>2022-05-22 19:12:28</time>
      </trkpt>
      <trkpt lat="42.63433" lon="1.12083">
        <ele>998</ele>
        <time>2022-05-22 19:12:29</time>
      </trkpt>
      <trkpt lat="42.63435" lon="1.12087">
        <ele>998</ele>
        <time>2022-05-22 19:12:30</time>
      </trkpt>
      <trkpt lat="42.63437" lon="1.1209">
        <ele>998</ele>
        <time>2022-05-22 19:12:31</time>
      </trkpt>
      <trkpt lat="42.6344" lon="1.12093">
        <ele>998</ele>
        <time>2022-05-22 19:12:32</time>
      </trkpt>
      <trkpt lat="42.63443" lon="1.12096">
        <ele>998</ele>
        <time>2022-05-22 19:12:33</time>
      </trkpt>
      <trkpt lat="42.63446" lon="1.12097">
        <ele>998</ele>
        <time>2022-05-22 19:12:34</time>
      </trkpt>
      <trkpt lat="42.63449" lon="1.12098">
        <ele>998</ele>
        <time>2022-05-22 19:12:35</time>
      </trkpt>
      <trkpt lat="42.63453" lon="1.12099">
        <ele>998</ele>
        <time>2022-05-22 19:12:36</time>
      </trkpt>
      <trkpt lat="42.63456" lon="1.12098">
        <ele>998.2</ele>
        <time>2022-05-22 19:12:37</time>
      </trkpt>
      <trkpt lat="42.6346" lon="1.12095">
        <ele>998.2</ele>
        <time>2022-05-22 19:12:38</time>
      </trkpt>
      <trkpt lat="42.63463" lon="1.12092">
        <ele>998.2</ele>
        <time>2022-05-22 19:12:39</time>
      </trkpt>
      <trkpt lat="42.63466" lon="1.12089">
        <ele>998.2</ele>
        <time>2022-05-22 19:12:40</time>
      </trkpt>
      <trkpt lat="42.63469" lon="1.12084">
        <ele>998.2</ele>
        <time>2022-05-22 19:12:41</time>
      </trkpt>
      <trkpt lat="42.63472" lon="1.1208">
        <ele>998.2</ele>
        <time>2022-05-22 19:12:42</time>
      </trkpt>
      <trkpt lat="42.63475" lon="1.12076">
        <ele>998.2</ele>
        <time>2022-05-22 19:12:43</time>
      </trkpt>
      <trkpt lat="42.63477" lon="1.12072">
        <ele>998.2</ele>
        <time>2022-05-22 19:12:44</time>
      </trkpt>
      <trkpt lat="42.6348" lon="1.12068">
        <ele>998.2</ele>
        <time>2022-05-22 19:12:45</time>
      </trkpt>
      <trkpt lat="42.63482" lon="1.12064">
        <ele>998.2</ele>
        <time>2022-05-22 19:12:46</time>
      </trkpt>
      <trkpt lat="42.63485" lon="1.12059">
        <ele>998.2</ele>
        <time>2022-05-22 19:12:47</time>
      </trkpt>
      <trkpt lat="42.63487" lon="1.12053">
        <ele>998.2</ele>
        <time>2022-05-22 19:12:48</time>
      </trkpt>
      <trkpt lat="42.6349" lon="1.12048">
        <ele>998.2</ele>
        <time>2022-05-22 19:12:49</time>
      </trkpt>
      <trkpt lat="42.63492" lon="1.12043">
        <ele>998.4</ele>
        <time>2022-05-22 19:12:50</time>
      </trkpt>
      <trkpt lat="42.63495" lon="1.12039">
        <ele>998.4</ele>
        <time>2022-05-22 19:12:51</time>
      </trkpt>
      <trkpt lat="42.63498" lon="1.12035">
        <ele>998.6</ele>
        <time>2022-05-22 19:12:52</time>
      </trkpt>
      <trkpt lat="42.635" lon="1.12031">
        <ele>998.6</ele>
        <time>2022-05-22 19:12:53</time>
      </trkpt>
      <trkpt lat="42.63503" lon="1.12027">
        <ele>998.6</ele>
        <time>2022-05-22 19:12:54</time>
      </trkpt>
      <trkpt lat="42.63506" lon="1.12022">
        <ele>998.6</ele>
        <time>2022-05-22 19:12:55</time>
      </trkpt>
      <trkpt lat="42.63509" lon="1.12017">
        <ele>998.8</ele>
        <time>2022-05-22 19:12:56</time>
      </trkpt>
      <trkpt lat="42.63511" lon="1.12012">
        <ele>998.8</ele>
        <time>2022-05-22 19:12:57</time>
      </trkpt>
      <trkpt lat="42.63513" lon="1.12007">
        <ele>998.8</ele>
        <time>2022-05-22 19:12:58</time>
      </trkpt>
      <trkpt lat="42.63514" lon="1.12002">
        <ele>998.8</ele>
        <time>2022-05-22 19:12:59</time>
      </trkpt>
      <trkpt lat="42.63516" lon="1.11997">
        <ele>998.8</ele>
        <time>2022-05-22 19:13:00</time>
      </trkpt>
      <trkpt lat="42.63519" lon="1.11992">
        <ele>999</ele>
        <time>2022-05-22 19:13:01</time>
      </trkpt>
      <trkpt lat="42.6352" lon="1.11987">
        <ele>999</ele>
        <time>2022-05-22 19:13:02</time>
      </trkpt>
      <trkpt lat="42.63522" lon="1.11982">
        <ele>999.2</ele>
        <time>2022-05-22 19:13:03</time>
      </trkpt>
      <trkpt lat="42.63523" lon="1.11978">
        <ele>999.4</ele>
        <time>2022-05-22 19:13:04</time>
      </trkpt>
      <trkpt lat="42.63524" lon="1.11974">
        <ele>999.6</ele>
        <time>2022-05-22 19:13:05</time>
      </trkpt>
      <trkpt lat="42.63525" lon="1.11969">
        <ele>999.6</ele>
        <time>2022-05-22 19:13:06</time>
      </trkpt>
      <trkpt lat="42.63527" lon="1.11966">
        <ele>999.8</ele>
        <time>2022-05-22 19:13:07</time>
      </trkpt>
      <trkpt lat="42.63528" lon="1.11962">
        <ele>1000</ele>
        <time>2022-05-22 19:13:08</time>
      </trkpt>
      <trkpt lat="42.6353" lon="1.11959">
        <ele>1000.2</ele>
        <time>2022-05-22 19:13:09</time>
      </trkpt>
      <trkpt lat="42.63532" lon="1.11957">
        <ele>1000.4</ele>
        <time>2022-05-22 19:13:10</time>
      </trkpt>
      <trkpt lat="42.63535" lon="1.11954">
        <ele>1000.6</ele>
        <time>2022-05-22 19:13:11</time>
      </trkpt>
      <trkpt lat="42.63537" lon="1.11952">
        <ele>1000.6</ele>
        <time>2022-05-22 19:13:12</time>
      </trkpt>
      <trkpt lat="42.6354" lon="1.11951">
        <ele>1001</ele>
        <time>2022-05-22 19:13:13</time>
      </trkpt>
      <trkpt lat="42.63543" lon="1.11951">
        <ele>1001.2</ele>
        <time>2022-05-22 19:13:14</time>
      </trkpt>
      <trkpt lat="42.63545" lon="1.11952">
        <ele>1001.4</ele>
        <time>2022-05-22 19:13:15</time>
      </trkpt>
      <trkpt lat="42.63547" lon="1.11954">
        <ele>1001.6</ele>
        <time>2022-05-22 19:13:16</time>
      </trkpt>
      <trkpt lat="42.63549" lon="1.11956">
        <ele>1001.8</ele>
        <time>2022-05-22 19:13:17</time>
      </trkpt>
      <trkpt lat="42.63551" lon="1.1196">
        <ele>1002.2</ele>
        <time>2022-05-22 19:13:18</time>
      </trkpt>
      <trkpt lat="42.63551" lon="1.11963">
        <ele>1002.4</ele>
        <time>2022-05-22 19:13:19</time>
      </trkpt>
      <trkpt lat="42.63551" lon="1.11966">
        <ele>1002.6</ele>
        <time>2022-05-22 19:13:20</time>
      </trkpt>
      <trkpt lat="42.63551" lon="1.1197">
        <ele>1002.8</ele>
        <time>2022-05-22 19:13:21</time>
      </trkpt>
      <trkpt lat="42.63551" lon="1.11973">
        <ele>1003</ele>
        <time>2022-05-22 19:13:22</time>
      </trkpt>
      <trkpt lat="42.6355" lon="1.11977">
        <ele>1003.2</ele>
        <time>2022-05-22 19:13:23</time>
      </trkpt>
      <trkpt lat="42.63549" lon="1.11981">
        <ele>1003.4</ele>
        <time>2022-05-22 19:13:24</time>
      </trkpt>
      <trkpt lat="42.63548" lon="1.11984">
        <ele>1003.6</ele>
        <time>2022-05-22 19:13:25</time>
      </trkpt>
      <trkpt lat="42.63547" lon="1.11988">
        <ele>1003.8</ele>
        <time>2022-05-22 19:13:26</time>
      </trkpt>
      <trkpt lat="42.63545" lon="1.11991">
        <ele>1003.8</ele>
        <time>2022-05-22 19:13:27</time>
      </trkpt>
      <trkpt lat="42.63544" lon="1.11995">
        <ele>1004</ele>
        <time>2022-05-22 19:13:28</time>
      </trkpt>
      <trkpt lat="42.63543" lon="1.11999">
        <ele>1004.2</ele>
        <time>2022-05-22 19:13:29</time>
      </trkpt>
      <trkpt lat="42.63541" lon="1.12003">
        <ele>1004.4</ele>
        <time>2022-05-22 19:13:30</time>
      </trkpt>
      <trkpt lat="42.6354" lon="1.12006">
        <ele>1004.4</ele>
        <time>2022-05-22 19:13:31</time>
      </trkpt>
      <trkpt lat="42.63539" lon="1.1201">
        <ele>1004.6</ele>
        <time>2022-05-22 19:13:32</time>
      </trkpt>
      <trkpt lat="42.63538" lon="1.12015">
        <ele>1004.8</ele>
        <time>2022-05-22 19:13:33</time>
      </trkpt>
      <trkpt lat="42.63537" lon="1.12019">
        <ele>1005</ele>
        <time>2022-05-22 19:13:34</time>
      </trkpt>
      <trkpt lat="42.63536" lon="1.12022">
        <ele>1005</ele>
        <time>2022-05-22 19:13:35</time>
      </trkpt>
      <trkpt lat="42.63534" lon="1.12026">
        <ele>1005.2</ele>
        <time>2022-05-22 19:13:36</time>
      </trkpt>
      <trkpt lat="42.63533" lon="1.12029">
        <ele>1005.4</ele>
        <time>2022-05-22 19:13:37</time>
      </trkpt>
      <trkpt lat="42.63532" lon="1.12031">
        <ele>1005.6</ele>
        <time>2022-05-22 19:13:38</time>
      </trkpt>
      <trkpt lat="42.6353" lon="1.12034">
        <ele>1005.6</ele>
        <time>2022-05-22 19:13:39</time>
      </trkpt>
      <trkpt lat="42.63529" lon="1.12037">
        <ele>1005.8</ele>
        <time>2022-05-22 19:13:40</time>
      </trkpt>
      <trkpt lat="42.63528" lon="1.1204">
        <ele>1006</ele>
        <time>2022-05-22 19:13:41</time>
      </trkpt>
      <trkpt lat="42.63527" lon="1.12043">
        <ele>1006.2</ele>
        <time>2022-05-22 19:13:42</time>
      </trkpt>
      <trkpt lat="42.63526" lon="1.12046">
        <ele>1006.2</ele>
        <time>2022-05-22 19:13:43</time>
      </trkpt>
      <trkpt lat="42.63525" lon="1.12049">
        <ele>1006.4</ele>
        <time>2022-05-22 19:13:44</time>
      </trkpt>
      <trkpt lat="42.63524" lon="1.12052">
        <ele>1006.6</ele>
        <time>2022-05-22 19:13:45</time>
      </trkpt>
      <trkpt lat="42.63523" lon="1.12055">
        <ele>1006.8</ele>
        <time>2022-05-22 19:13:46</time>
      </trkpt>
      <trkpt lat="42.63522" lon="1.12058">
        <ele>1006.8</ele>
        <time>2022-05-22 19:13:47</time>
      </trkpt>
      <trkpt lat="42.6352" lon="1.12061">
        <ele>1007</ele>
        <time>2022-05-22 19:13:48</time>
      </trkpt>
      <trkpt lat="42.63519" lon="1.12063">
        <ele>1007.2</ele>
        <time>2022-05-22 19:13:49</time>
      </trkpt>
      <trkpt lat="42.63518" lon="1.12066">
        <ele>1007.4</ele>
        <time>2022-05-22 19:13:50</time>
      </trkpt>
      <trkpt lat="42.63517" lon="1.12069">
        <ele>1007.4</ele>
        <time>2022-05-22 19:13:51</time>
      </trkpt>
      <trkpt lat="42.63516" lon="1.12072">
        <ele>1007.6</ele>
        <time>2022-05-22 19:13:52</time>
      </trkpt>
      <trkpt lat="42.63515" lon="1.12074">
        <ele>1007.8</ele>
        <time>2022-05-22 19:13:53</time>
      </trkpt>
      <trkpt lat="42.63513" lon="1.12077">
        <ele>1007.8</ele>
        <time>2022-05-22 19:13:54</time>
      </trkpt>
      <trkpt lat="42.63512" lon="1.1208">
        <ele>1008</ele>
        <time>2022-05-22 19:13:55</time>
      </trkpt>
      <trkpt lat="42.63511" lon="1.12082">
        <ele>1008.2</ele>
        <time>2022-05-22 19:13:56</time>
      </trkpt>
      <trkpt lat="42.6351" lon="1.12085">
        <ele>1008.4</ele>
        <time>2022-05-22 19:13:57</time>
      </trkpt>
      <trkpt lat="42.63509" lon="1.12088">
        <ele>1008.4</ele>
        <time>2022-05-22 19:13:58</time>
      </trkpt>
      <trkpt lat="42.63509" lon="1.1209">
        <ele>1008.6</ele>
        <time>2022-05-22 19:13:59</time>
      </trkpt>
      <trkpt lat="42.63508" lon="1.12092">
        <ele>1008.6</ele>
        <time>2022-05-22 19:14:00</time>
      </trkpt>
      <trkpt lat="42.63507" lon="1.12096">
        <ele>1008.8</ele>
        <time>2022-05-22 19:14:01</time>
      </trkpt>
      <trkpt lat="42.63506" lon="1.12099">
        <ele>1009</ele>
        <time>2022-05-22 19:14:02</time>
      </trkpt>
      <trkpt lat="42.63506" lon="1.12102">
        <ele>1009</ele>
        <time>2022-05-22 19:14:03</time>
      </trkpt>
      <trkpt lat="42.63505" lon="1.12105">
        <ele>1009.2</ele>
        <time>2022-05-22 19:14:04</time>
      </trkpt>
      <trkpt lat="42.63504" lon="1.12108">
        <ele>1009.2</ele>
        <time>2022-05-22 19:14:05</time>
      </trkpt>
      <trkpt lat="42.63503" lon="1.12111">
        <ele>1009.4</ele>
        <time>2022-05-22 19:14:06</time>
      </trkpt>
      <trkpt lat="42.63502" lon="1.12113">
        <ele>1009.4</ele>
        <time>2022-05-22 19:14:07</time>
      </trkpt>
      <trkpt lat="42.63501" lon="1.12115">
        <ele>1009.6</ele>
        <time>2022-05-22 19:14:08</time>
      </trkpt>
      <trkpt lat="42.63499" lon="1.12118">
        <ele>1009.8</ele>
        <time>2022-05-22 19:14:09</time>
      </trkpt>
      <trkpt lat="42.63498" lon="1.1212">
        <ele>1010</ele>
        <time>2022-05-22 19:14:10</time>
      </trkpt>
      <trkpt lat="42.63497" lon="1.12123">
        <ele>1010</ele>
        <time>2022-05-22 19:14:11</time>
      </trkpt>
      <trkpt lat="42.63496" lon="1.12125">
        <ele>1010.2</ele>
        <time>2022-05-22 19:14:12</time>
      </trkpt>
      <trkpt lat="42.63495" lon="1.12128">
        <ele>1010.4</ele>
        <time>2022-05-22 19:14:13</time>
      </trkpt>
      <trkpt lat="42.63493" lon="1.12132">
        <ele>1010.6</ele>
        <time>2022-05-22 19:14:14</time>
      </trkpt>
      <trkpt lat="42.63492" lon="1.12135">
        <ele>1010.6</ele>
        <time>2022-05-22 19:14:15</time>
      </trkpt>
      <trkpt lat="42.63491" lon="1.12137">
        <ele>1010.8</ele>
        <time>2022-05-22 19:14:16</time>
      </trkpt>
      <trkpt lat="42.6349" lon="1.12139">
        <ele>1011</ele>
        <time>2022-05-22 19:14:17</time>
      </trkpt>
      <trkpt lat="42.63488" lon="1.12143">
        <ele>1011.2</ele>
        <time>2022-05-22 19:14:18</time>
      </trkpt>
      <trkpt lat="42.63487" lon="1.12145">
        <ele>1011.4</ele>
        <time>2022-05-22 19:14:19</time>
      </trkpt>
      <trkpt lat="42.63486" lon="1.12147">
        <ele>1011.4</ele>
        <time>2022-05-22 19:14:20</time>
      </trkpt>
      <trkpt lat="42.63485" lon="1.12149">
        <ele>1011.6</ele>
        <time>2022-05-22 19:14:21</time>
      </trkpt>
      <trkpt lat="42.63482" lon="1.12152">
        <ele>1011.8</ele>
        <time>2022-05-22 19:14:22</time>
      </trkpt>
      <trkpt lat="42.63481" lon="1.12154">
        <ele>1012</ele>
        <time>2022-05-22 19:14:23</time>
      </trkpt>
      <trkpt lat="42.63479" lon="1.12156">
        <ele>1012.2</ele>
        <time>2022-05-22 19:14:24</time>
      </trkpt>
      <trkpt lat="42.63477" lon="1.12158">
        <ele>1012.4</ele>
        <time>2022-05-22 19:14:25</time>
      </trkpt>
      <trkpt lat="42.63476" lon="1.12159">
        <ele>1012.6</ele>
        <time>2022-05-22 19:14:26</time>
      </trkpt>
      <trkpt lat="42.63474" lon="1.12162">
        <ele>1012.8</ele>
        <time>2022-05-22 19:14:27</time>
      </trkpt>
      <trkpt lat="42.63472" lon="1.12164">
        <ele>1013</ele>
        <time>2022-05-22 19:14:28</time>
      </trkpt>
      <trkpt lat="42.6347" lon="1.12165">
        <ele>1013.2</ele>
        <time>2022-05-22 19:14:29</time>
      </trkpt>
      <trkpt lat="42.63468" lon="1.12167">
        <ele>1013.4</ele>
        <time>2022-05-22 19:14:30</time>
      </trkpt>
      <trkpt lat="42.63465" lon="1.1217">
        <ele>1013.6</ele>
        <time>2022-05-22 19:14:31</time>
      </trkpt>
      <trkpt lat="42.63463" lon="1.12172">
        <ele>1013.8</ele>
        <time>2022-05-22 19:14:32</time>
      </trkpt>
      <trkpt lat="42.63462" lon="1.12173">
        <ele>1014</ele>
        <time>2022-05-22 19:14:33</time>
      </trkpt>
      <trkpt lat="42.63461" lon="1.12175">
        <ele>1014</ele>
        <time>2022-05-22 19:14:34</time>
      </trkpt>
      <trkpt lat="42.63458" lon="1.12176">
        <ele>1014.2</ele>
        <time>2022-05-22 19:14:35</time>
      </trkpt>
      <trkpt lat="42.63456" lon="1.12178">
        <ele>1014.4</ele>
        <time>2022-05-22 19:14:36</time>
      </trkpt>
      <trkpt lat="42.63454" lon="1.12179">
        <ele>1014.6</ele>
        <time>2022-05-22 19:14:37</time>
      </trkpt>
      <trkpt lat="42.63453" lon="1.12181">
        <ele>1014.8</ele>
        <time>2022-05-22 19:14:38</time>
      </trkpt>
      <trkpt lat="42.63452" lon="1.12181">
        <ele>1015</ele>
        <time>2022-05-22 19:14:39</time>
      </trkpt>
      <trkpt lat="42.63449" lon="1.12183">
        <ele>1015</ele>
        <time>2022-05-22 19:14:40</time>
      </trkpt>
      <trkpt lat="42.63447" lon="1.12184">
        <ele>1015.2</ele>
        <time>2022-05-22 19:14:41</time>
      </trkpt>
      <trkpt lat="42.63445" lon="1.12184">
        <ele>1015.4</ele>
        <time>2022-05-22 19:14:42</time>
      </trkpt>
      <trkpt lat="42.63443" lon="1.12185">
        <ele>1015.4</ele>
        <time>2022-05-22 19:14:43</time>
      </trkpt>
      <trkpt lat="42.63441" lon="1.12185">
        <ele>1015.6</ele>
        <time>2022-05-22 19:14:44</time>
      </trkpt>
      <trkpt lat="42.63438" lon="1.12185">
        <ele>1015.8</ele>
        <time>2022-05-22 19:14:45</time>
      </trkpt>
      <trkpt lat="42.63436" lon="1.12186">
        <ele>1015.8</ele>
        <time>2022-05-22 19:14:46</time>
      </trkpt>
      <trkpt lat="42.63434" lon="1.12186">
        <ele>1016</ele>
        <time>2022-05-22 19:14:47</time>
      </trkpt>
      <trkpt lat="42.63432" lon="1.12186">
        <ele>1016.2</ele>
        <time>2022-05-22 19:14:48</time>
      </trkpt>
      <trkpt lat="42.6343" lon="1.12186">
        <ele>1016.2</ele>
        <time>2022-05-22 19:14:49</time>
      </trkpt>
      <trkpt lat="42.63428" lon="1.12187">
        <ele>1016.4</ele>
        <time>2022-05-22 19:14:50</time>
      </trkpt>
      <trkpt lat="42.63426" lon="1.12188">
        <ele>1016.6</ele>
        <time>2022-05-22 19:14:51</time>
      </trkpt>
      <trkpt lat="42.63424" lon="1.12189">
        <ele>1016.6</ele>
        <time>2022-05-22 19:14:52</time>
      </trkpt>
      <trkpt lat="42.63422" lon="1.1219">
        <ele>1016.8</ele>
        <time>2022-05-22 19:14:53</time>
      </trkpt>
      <trkpt lat="42.63421" lon="1.1219">
        <ele>1016.8</ele>
        <time>2022-05-22 19:14:54</time>
      </trkpt>
      <trkpt lat="42.63418" lon="1.12192">
        <ele>1017.2</ele>
        <time>2022-05-22 19:14:55</time>
      </trkpt>
      <trkpt lat="42.63416" lon="1.12193">
        <ele>1017.2</ele>
        <time>2022-05-22 19:14:56</time>
      </trkpt>
      <trkpt lat="42.63415" lon="1.12194">
        <ele>1017.4</ele>
        <time>2022-05-22 19:14:57</time>
      </trkpt>
      <trkpt lat="42.63414" lon="1.12196">
        <ele>1017.6</ele>
        <time>2022-05-22 19:14:58</time>
      </trkpt>
      <trkpt lat="42.63413" lon="1.12198">
        <ele>1017.8</ele>
        <time>2022-05-22 19:14:59</time>
      </trkpt>
      <trkpt lat="42.63411" lon="1.12201">
        <ele>1018</ele>
        <time>2022-05-22 19:15:00</time>
      </trkpt>
      <trkpt lat="42.63411" lon="1.12203">
        <ele>1018</ele>
        <time>2022-05-22 19:15:01</time>
      </trkpt>
      <trkpt lat="42.63411" lon="1.12206">
        <ele>1018.2</ele>
        <time>2022-05-22 19:15:02</time>
      </trkpt>
      <trkpt lat="42.63411" lon="1.12209">
        <ele>1018.4</ele>
        <time>2022-05-22 19:15:03</time>
      </trkpt>
      <trkpt lat="42.63411" lon="1.12212">
        <ele>1018.6</ele>
        <time>2022-05-22 19:15:04</time>
      </trkpt>
      <trkpt lat="42.63412" lon="1.12215">
        <ele>1018.8</ele>
        <time>2022-05-22 19:15:05</time>
      </trkpt>
      <trkpt lat="42.63413" lon="1.12217">
        <ele>1019</ele>
        <time>2022-05-22 19:15:06</time>
      </trkpt>
      <trkpt lat="42.63415" lon="1.12219">
        <ele>1019.2</ele>
        <time>2022-05-22 19:15:07</time>
      </trkpt>
      <trkpt lat="42.63417" lon="1.12221">
        <ele>1019.4</ele>
        <time>2022-05-22 19:15:08</time>
      </trkpt>
      <trkpt lat="42.63418" lon="1.12222">
        <ele>1019.6</ele>
        <time>2022-05-22 19:15:09</time>
      </trkpt>
      <trkpt lat="42.63421" lon="1.12222">
        <ele>1019.8</ele>
        <time>2022-05-22 19:15:10</time>
      </trkpt>
      <trkpt lat="42.63423" lon="1.12223">
        <ele>1020</ele>
        <time>2022-05-22 19:15:11</time>
      </trkpt>
      <trkpt lat="42.63426" lon="1.12223">
        <ele>1020</ele>
        <time>2022-05-22 19:15:12</time>
      </trkpt>
      <trkpt lat="42.63428" lon="1.12222">
        <ele>1020.2</ele>
        <time>2022-05-22 19:15:13</time>
      </trkpt>
      <trkpt lat="42.63431" lon="1.12222">
        <ele>1020.2</ele>
        <time>2022-05-22 19:15:14</time>
      </trkpt>
      <trkpt lat="42.63434" lon="1.1222">
        <ele>1020.4</ele>
        <time>2022-05-22 19:15:15</time>
      </trkpt>
      <trkpt lat="42.63436" lon="1.12219">
        <ele>1020.4</ele>
        <time>2022-05-22 19:15:16</time>
      </trkpt>
      <trkpt lat="42.63438" lon="1.12218">
        <ele>1020.4</ele>
        <time>2022-05-22 19:15:17</time>
      </trkpt>
      <trkpt lat="42.6344" lon="1.12216">
        <ele>1020.6</ele>
        <time>2022-05-22 19:15:18</time>
      </trkpt>
      <trkpt lat="42.63443" lon="1.12214">
        <ele>1020.6</ele>
        <time>2022-05-22 19:15:19</time>
      </trkpt>
      <trkpt lat="42.63445" lon="1.12212">
        <ele>1020.6</ele>
        <time>2022-05-22 19:15:20</time>
      </trkpt>
      <trkpt lat="42.63447" lon="1.1221">
        <ele>1020.6</ele>
        <time>2022-05-22 19:15:21</time>
      </trkpt>
      <trkpt lat="42.6345" lon="1.12208">
        <ele>1020.8</ele>
        <time>2022-05-22 19:15:22</time>
      </trkpt>
      <trkpt lat="42.63453" lon="1.12205">
        <ele>1020.8</ele>
        <time>2022-05-22 19:15:23</time>
      </trkpt>
      <trkpt lat="42.63456" lon="1.12203">
        <ele>1020.8</ele>
        <time>2022-05-22 19:15:24</time>
      </trkpt>
      <trkpt lat="42.63458" lon="1.12201">
        <ele>1020.8</ele>
        <time>2022-05-22 19:15:25</time>
      </trkpt>
      <trkpt lat="42.63461" lon="1.12198">
        <ele>1020.8</ele>
        <time>2022-05-22 19:15:26</time>
      </trkpt>
      <trkpt lat="42.63464" lon="1.12196">
        <ele>1021</ele>
        <time>2022-05-22 19:15:27</time>
      </trkpt>
      <trkpt lat="42.63466" lon="1.12194">
        <ele>1021</ele>
        <time>2022-05-22 19:15:28</time>
      </trkpt>
      <trkpt lat="42.63469" lon="1.12191">
        <ele>1021</ele>
        <time>2022-05-22 19:15:29</time>
      </trkpt>
      <trkpt lat="42.63471" lon="1.12189">
        <ele>1021.2</ele>
        <time>2022-05-22 19:15:30</time>
      </trkpt>
      <trkpt lat="42.63474" lon="1.12188">
        <ele>1021.2</ele>
        <time>2022-05-22 19:15:31</time>
      </trkpt>
      <trkpt lat="42.63476" lon="1.12186">
        <ele>1021.2</ele>
        <time>2022-05-22 19:15:32</time>
      </trkpt>
      <trkpt lat="42.63479" lon="1.12184">
        <ele>1021.4</ele>
        <time>2022-05-22 19:15:33</time>
      </trkpt>
      <trkpt lat="42.63481" lon="1.12182">
        <ele>1021.4</ele>
        <time>2022-05-22 19:15:34</time>
      </trkpt>
      <trkpt lat="42.63484" lon="1.1218">
        <ele>1021.4</ele>
        <time>2022-05-22 19:15:35</time>
      </trkpt>
      <trkpt lat="42.63486" lon="1.12178">
        <ele>1021.6</ele>
        <time>2022-05-22 19:15:36</time>
      </trkpt>
      <trkpt lat="42.63489" lon="1.12176">
        <ele>1021.6</ele>
        <time>2022-05-22 19:15:37</time>
      </trkpt>
      <trkpt lat="42.63491" lon="1.12174">
        <ele>1021.6</ele>
        <time>2022-05-22 19:15:38</time>
      </trkpt>
      <trkpt lat="42.63493" lon="1.12172">
        <ele>1021.8</ele>
        <time>2022-05-22 19:15:39</time>
      </trkpt>
      <trkpt lat="42.63496" lon="1.1217">
        <ele>1021.8</ele>
        <time>2022-05-22 19:15:40</time>
      </trkpt>
      <trkpt lat="42.63499" lon="1.12167">
        <ele>1021.8</ele>
        <time>2022-05-22 19:15:41</time>
      </trkpt>
      <trkpt lat="42.63501" lon="1.12165">
        <ele>1022</ele>
        <time>2022-05-22 19:15:42</time>
      </trkpt>
      <trkpt lat="42.63503" lon="1.12164">
        <ele>1022</ele>
        <time>2022-05-22 19:15:43</time>
      </trkpt>
      <trkpt lat="42.63505" lon="1.12162">
        <ele>1022</ele>
        <time>2022-05-22 19:15:44</time>
      </trkpt>
      <trkpt lat="42.63508" lon="1.1216">
        <ele>1022.2</ele>
        <time>2022-05-22 19:15:45</time>
      </trkpt>
      <trkpt lat="42.63511" lon="1.12158">
        <ele>1022.2</ele>
        <time>2022-05-22 19:15:46</time>
      </trkpt>
      <trkpt lat="42.63513" lon="1.12156">
        <ele>1022.2</ele>
        <time>2022-05-22 19:15:47</time>
      </trkpt>
      <trkpt lat="42.63515" lon="1.12154">
        <ele>1022.4</ele>
        <time>2022-05-22 19:15:48</time>
      </trkpt>
      <trkpt lat="42.63518" lon="1.12152">
        <ele>1022.4</ele>
        <time>2022-05-22 19:15:49</time>
      </trkpt>
      <trkpt lat="42.6352" lon="1.1215">
        <ele>1022.4</ele>
        <time>2022-05-22 19:15:50</time>
      </trkpt>
      <trkpt lat="42.63523" lon="1.12148">
        <ele>1022.6</ele>
        <time>2022-05-22 19:15:51</time>
      </trkpt>
      <trkpt lat="42.63525" lon="1.12147">
        <ele>1022.6</ele>
        <time>2022-05-22 19:15:52</time>
      </trkpt>
      <trkpt lat="42.63528" lon="1.12145">
        <ele>1022.6</ele>
        <time>2022-05-22 19:15:53</time>
      </trkpt>
      <trkpt lat="42.6353" lon="1.12142">
        <ele>1022.8</ele>
        <time>2022-05-22 19:15:54</time>
      </trkpt>
      <trkpt lat="42.63533" lon="1.1214">
        <ele>1022.8</ele>
        <time>2022-05-22 19:15:55</time>
      </trkpt>
      <trkpt lat="42.63535" lon="1.12138">
        <ele>1023</ele>
        <time>2022-05-22 19:15:56</time>
      </trkpt>
      <trkpt lat="42.63538" lon="1.12135">
        <ele>1023</ele>
        <time>2022-05-22 19:15:57</time>
      </trkpt>
      <trkpt lat="42.6354" lon="1.12133">
        <ele>1023</ele>
        <time>2022-05-22 19:15:58</time>
      </trkpt>
      <trkpt lat="42.63541" lon="1.12131">
        <ele>1023.2</ele>
        <time>2022-05-22 19:15:59</time>
      </trkpt>
      <trkpt lat="42.63544" lon="1.12126">
        <ele>1023.2</ele>
        <time>2022-05-22 19:16:00</time>
      </trkpt>
      <trkpt lat="42.63546" lon="1.12124">
        <ele>1023.4</ele>
        <time>2022-05-22 19:16:01</time>
      </trkpt>
      <trkpt lat="42.63547" lon="1.12121">
        <ele>1023.6</ele>
        <time>2022-05-22 19:16:02</time>
      </trkpt>
      <trkpt lat="42.63548" lon="1.1212">
        <ele>1023.6</ele>
        <time>2022-05-22 19:16:03</time>
      </trkpt>
      <trkpt lat="42.6355" lon="1.12115">
        <ele>1023.8</ele>
        <time>2022-05-22 19:16:04</time>
      </trkpt>
      <trkpt lat="42.63551" lon="1.12112">
        <ele>1023.8</ele>
        <time>2022-05-22 19:16:05</time>
      </trkpt>
      <trkpt lat="42.63552" lon="1.12109">
        <ele>1024</ele>
        <time>2022-05-22 19:16:06</time>
      </trkpt>
      <trkpt lat="42.63553" lon="1.12107">
        <ele>1024.2</ele>
        <time>2022-05-22 19:16:07</time>
      </trkpt>
      <trkpt lat="42.63555" lon="1.12102">
        <ele>1024.2</ele>
        <time>2022-05-22 19:16:08</time>
      </trkpt>
      <trkpt lat="42.63556" lon="1.12098">
        <ele>1024.4</ele>
        <time>2022-05-22 19:16:09</time>
      </trkpt>
      <trkpt lat="42.63557" lon="1.12095">
        <ele>1024.6</ele>
        <time>2022-05-22 19:16:10</time>
      </trkpt>
      <trkpt lat="42.63557" lon="1.12093">
        <ele>1024.8</ele>
        <time>2022-05-22 19:16:11</time>
      </trkpt>
      <trkpt lat="42.63559" lon="1.12088">
        <ele>1025</ele>
        <time>2022-05-22 19:16:12</time>
      </trkpt>
      <trkpt lat="42.6356" lon="1.12084">
        <ele>1025</ele>
        <time>2022-05-22 19:16:13</time>
      </trkpt>
      <trkpt lat="42.6356" lon="1.12081">
        <ele>1025.2</ele>
        <time>2022-05-22 19:16:14</time>
      </trkpt>
      <trkpt lat="42.6356" lon="1.12079">
        <ele>1025.4</ele>
        <time>2022-05-22 19:16:15</time>
      </trkpt>
      <trkpt lat="42.63561" lon="1.12074">
        <ele>1025.6</ele>
        <time>2022-05-22 19:16:16</time>
      </trkpt>
      <trkpt lat="42.63561" lon="1.1207">
        <ele>1025.8</ele>
        <time>2022-05-22 19:16:17</time>
      </trkpt>
      <trkpt lat="42.63562" lon="1.12067">
        <ele>1026</ele>
        <time>2022-05-22 19:16:18</time>
      </trkpt>
      <trkpt lat="42.63562" lon="1.12065">
        <ele>1026</ele>
        <time>2022-05-22 19:16:19</time>
      </trkpt>
      <trkpt lat="42.63563" lon="1.1206">
        <ele>1026.2</ele>
        <time>2022-05-22 19:16:20</time>
      </trkpt>
      <trkpt lat="42.63563" lon="1.12057">
        <ele>1026.4</ele>
        <time>2022-05-22 19:16:21</time>
      </trkpt>
      <trkpt lat="42.63563" lon="1.12054">
        <ele>1026.4</ele>
        <time>2022-05-22 19:16:22</time>
      </trkpt>
      <trkpt lat="42.63564" lon="1.12051">
        <ele>1026.6</ele>
        <time>2022-05-22 19:16:23</time>
      </trkpt>
      <trkpt lat="42.63564" lon="1.12047">
        <ele>1026.8</ele>
        <time>2022-05-22 19:16:24</time>
      </trkpt>
      <trkpt lat="42.63565" lon="1.12044">
        <ele>1026.8</ele>
        <time>2022-05-22 19:16:25</time>
      </trkpt>
      <trkpt lat="42.63566" lon="1.12041">
        <ele>1027</ele>
        <time>2022-05-22 19:16:26</time>
      </trkpt>
      <trkpt lat="42.63566" lon="1.1204">
        <ele>1027.2</ele>
        <time>2022-05-22 19:16:27</time>
      </trkpt>
      <trkpt lat="42.63568" lon="1.12036">
        <ele>1027.2</ele>
        <time>2022-05-22 19:16:28</time>
      </trkpt>
      <trkpt lat="42.6357" lon="1.12033">
        <ele>1027.4</ele>
        <time>2022-05-22 19:16:29</time>
      </trkpt>
      <trkpt lat="42.63571" lon="1.12031">
        <ele>1027.6</ele>
        <time>2022-05-22 19:16:30</time>
      </trkpt>
      <trkpt lat="42.63572" lon="1.12029">
        <ele>1027.6</ele>
        <time>2022-05-22 19:16:31</time>
      </trkpt>
      <trkpt lat="42.63574" lon="1.12025">
        <ele>1027.8</ele>
        <time>2022-05-22 19:16:32</time>
      </trkpt>
      <trkpt lat="42.63576" lon="1.12023">
        <ele>1028</ele>
        <time>2022-05-22 19:16:33</time>
      </trkpt>
      <trkpt lat="42.63577" lon="1.1202">
        <ele>1028.2</ele>
        <time>2022-05-22 19:16:34</time>
      </trkpt>
      <trkpt lat="42.63578" lon="1.12017">
        <ele>1028.2</ele>
        <time>2022-05-22 19:16:35</time>
      </trkpt>
      <trkpt lat="42.6358" lon="1.12014">
        <ele>1028.4</ele>
        <time>2022-05-22 19:16:36</time>
      </trkpt>
      <trkpt lat="42.63582" lon="1.12011">
        <ele>1028.4</ele>
        <time>2022-05-22 19:16:37</time>
      </trkpt>
      <trkpt lat="42.63583" lon="1.12009">
        <ele>1028.6</ele>
        <time>2022-05-22 19:16:38</time>
      </trkpt>
      <trkpt lat="42.63585" lon="1.12006">
        <ele>1028.8</ele>
        <time>2022-05-22 19:16:39</time>
      </trkpt>
      <trkpt lat="42.63587" lon="1.12002">
        <ele>1028.8</ele>
        <time>2022-05-22 19:16:40</time>
      </trkpt>
      <trkpt lat="42.63588" lon="1.11998">
        <ele>1029</ele>
        <time>2022-05-22 19:16:41</time>
      </trkpt>
      <trkpt lat="42.63589" lon="1.11995">
        <ele>1029</ele>
        <time>2022-05-22 19:16:42</time>
      </trkpt>
      <trkpt lat="42.63589" lon="1.11992">
        <ele>1029.2</ele>
        <time>2022-05-22 19:16:43</time>
      </trkpt>
      <trkpt lat="42.6359" lon="1.11987">
        <ele>1029.2</ele>
        <time>2022-05-22 19:16:44</time>
      </trkpt>
      <trkpt lat="42.63591" lon="1.11983">
        <ele>1029.4</ele>
        <time>2022-05-22 19:16:45</time>
      </trkpt>
      <trkpt lat="42.63592" lon="1.1198">
        <ele>1029.4</ele>
        <time>2022-05-22 19:16:46</time>
      </trkpt>
      <trkpt lat="42.63592" lon="1.11977">
        <ele>1029.6</ele>
        <time>2022-05-22 19:16:47</time>
      </trkpt>
      <trkpt lat="42.63593" lon="1.11973">
        <ele>1029.6</ele>
        <time>2022-05-22 19:16:48</time>
      </trkpt>
      <trkpt lat="42.63593" lon="1.11969">
        <ele>1029.8</ele>
        <time>2022-05-22 19:16:49</time>
      </trkpt>
      <trkpt lat="42.63593" lon="1.11966">
        <ele>1029.8</ele>
        <time>2022-05-22 19:16:50</time>
      </trkpt>
      <trkpt lat="42.63593" lon="1.11963">
        <ele>1030</ele>
        <time>2022-05-22 19:16:51</time>
      </trkpt>
      <trkpt lat="42.63593" lon="1.11959">
        <ele>1030.2</ele>
        <time>2022-05-22 19:16:52</time>
      </trkpt>
      <trkpt lat="42.63592" lon="1.11956">
        <ele>1030.2</ele>
        <time>2022-05-22 19:16:53</time>
      </trkpt>
      <trkpt lat="42.63592" lon="1.11953">
        <ele>1030.4</ele>
        <time>2022-05-22 19:16:54</time>
      </trkpt>
      <trkpt lat="42.63592" lon="1.1195">
        <ele>1030.4</ele>
        <time>2022-05-22 19:16:55</time>
      </trkpt>
      <trkpt lat="42.63593" lon="1.11946">
        <ele>1030.6</ele>
        <time>2022-05-22 19:16:56</time>
      </trkpt>
      <trkpt lat="42.63594" lon="1.11943">
        <ele>1030.6</ele>
        <time>2022-05-22 19:16:57</time>
      </trkpt>
      <trkpt lat="42.63595" lon="1.1194">
        <ele>1030.8</ele>
        <time>2022-05-22 19:16:58</time>
      </trkpt>
      <trkpt lat="42.63595" lon="1.11937">
        <ele>1031</ele>
        <time>2022-05-22 19:16:59</time>
      </trkpt>
      <trkpt lat="42.63596" lon="1.11934">
        <ele>1031</ele>
        <time>2022-05-22 19:17:00</time>
      </trkpt>
      <trkpt lat="42.63597" lon="1.1193">
        <ele>1031.2</ele>
        <time>2022-05-22 19:17:01</time>
      </trkpt>
      <trkpt lat="42.63598" lon="1.11926">
        <ele>1031.4</ele>
        <time>2022-05-22 19:17:02</time>
      </trkpt>
      <trkpt lat="42.63599" lon="1.11923">
        <ele>1031.6</ele>
        <time>2022-05-22 19:17:03</time>
      </trkpt>
      <trkpt lat="42.63599" lon="1.1192">
        <ele>1031.6</ele>
        <time>2022-05-22 19:17:04</time>
      </trkpt>
      <trkpt lat="42.636" lon="1.11917">
        <ele>1031.8</ele>
        <time>2022-05-22 19:17:05</time>
      </trkpt>
      <trkpt lat="42.63601" lon="1.11913">
        <ele>1032</ele>
        <time>2022-05-22 19:17:06</time>
      </trkpt>
      <trkpt lat="42.63601" lon="1.11909">
        <ele>1032</ele>
        <time>2022-05-22 19:17:07</time>
      </trkpt>
      <trkpt lat="42.63601" lon="1.11906">
        <ele>1032.2</ele>
        <time>2022-05-22 19:17:08</time>
      </trkpt>
      <trkpt lat="42.63602" lon="1.11902">
        <ele>1032.2</ele>
        <time>2022-05-22 19:17:09</time>
      </trkpt>
      <trkpt lat="42.63602" lon="1.11899">
        <ele>1032.4</ele>
        <time>2022-05-22 19:17:10</time>
      </trkpt>
      <trkpt lat="42.63603" lon="1.11895">
        <ele>1032.4</ele>
        <time>2022-05-22 19:17:11</time>
      </trkpt>
      <trkpt lat="42.63603" lon="1.11892">
        <ele>1032.6</ele>
        <time>2022-05-22 19:17:12</time>
      </trkpt>
      <trkpt lat="42.63603" lon="1.11889">
        <ele>1032.6</ele>
        <time>2022-05-22 19:17:13</time>
      </trkpt>
      <trkpt lat="42.63604" lon="1.11885">
        <ele>1032.8</ele>
        <time>2022-05-22 19:17:14</time>
      </trkpt>
      <trkpt lat="42.63604" lon="1.11882">
        <ele>1033</ele>
        <time>2022-05-22 19:17:15</time>
      </trkpt>
      <trkpt lat="42.63604" lon="1.11879">
        <ele>1033</ele>
        <time>2022-05-22 19:17:16</time>
      </trkpt>
      <trkpt lat="42.63604" lon="1.11876">
        <ele>1033.2</ele>
        <time>2022-05-22 19:17:17</time>
      </trkpt>
      <trkpt lat="42.63604" lon="1.11873">
        <ele>1033.4</ele>
        <time>2022-05-22 19:17:18</time>
      </trkpt>
      <trkpt lat="42.63604" lon="1.1187">
        <ele>1033.4</ele>
        <time>2022-05-22 19:17:19</time>
      </trkpt>
      <trkpt lat="42.63604" lon="1.11868">
        <ele>1033.6</ele>
        <time>2022-05-22 19:17:20</time>
      </trkpt>
      <trkpt lat="42.63604" lon="1.11865">
        <ele>1033.8</ele>
        <time>2022-05-22 19:17:21</time>
      </trkpt>
      <trkpt lat="42.63604" lon="1.11862">
        <ele>1034</ele>
        <time>2022-05-22 19:17:22</time>
      </trkpt>
      <trkpt lat="42.63604" lon="1.1186">
        <ele>1034.2</ele>
        <time>2022-05-22 19:17:23</time>
      </trkpt>
      <trkpt lat="42.63604" lon="1.11857">
        <ele>1034.2</ele>
        <time>2022-05-22 19:17:24</time>
      </trkpt>
      <trkpt lat="42.63604" lon="1.11855">
        <ele>1034.4</ele>
        <time>2022-05-22 19:17:25</time>
      </trkpt>
      <trkpt lat="42.63604" lon="1.11852">
        <ele>1034.4</ele>
        <time>2022-05-22 19:17:26</time>
      </trkpt>
      <trkpt lat="42.63605" lon="1.1185">
        <ele>1034.6</ele>
        <time>2022-05-22 19:17:27</time>
      </trkpt>
      <trkpt lat="42.63605" lon="1.11847">
        <ele>1034.8</ele>
        <time>2022-05-22 19:17:28</time>
      </trkpt>
      <trkpt lat="42.63605" lon="1.11844">
        <ele>1034.8</ele>
        <time>2022-05-22 19:17:29</time>
      </trkpt>
      <trkpt lat="42.63606" lon="1.11842">
        <ele>1035</ele>
        <time>2022-05-22 19:17:30</time>
      </trkpt>
      <trkpt lat="42.63607" lon="1.11839">
        <ele>1035.2</ele>
        <time>2022-05-22 19:17:31</time>
      </trkpt>
      <trkpt lat="42.63608" lon="1.11837">
        <ele>1035.2</ele>
        <time>2022-05-22 19:17:32</time>
      </trkpt>
      <trkpt lat="42.63609" lon="1.11835">
        <ele>1035.4</ele>
        <time>2022-05-22 19:17:33</time>
      </trkpt>
      <trkpt lat="42.63609" lon="1.11833">
        <ele>1035.6</ele>
        <time>2022-05-22 19:17:34</time>
      </trkpt>
      <trkpt lat="42.63611" lon="1.11832">
        <ele>1035.8</ele>
        <time>2022-05-22 19:17:35</time>
      </trkpt>
      <trkpt lat="42.63612" lon="1.1183">
        <ele>1035.8</ele>
        <time>2022-05-22 19:17:36</time>
      </trkpt>
      <trkpt lat="42.63613" lon="1.11828">
        <ele>1036</ele>
        <time>2022-05-22 19:17:37</time>
      </trkpt>
      <trkpt lat="42.63615" lon="1.11827">
        <ele>1036.2</ele>
        <time>2022-05-22 19:17:38</time>
      </trkpt>
      <trkpt lat="42.63616" lon="1.11825">
        <ele>1036.2</ele>
        <time>2022-05-22 19:17:39</time>
      </trkpt>
      <trkpt lat="42.63617" lon="1.11822">
        <ele>1036.4</ele>
        <time>2022-05-22 19:17:40</time>
      </trkpt>
      <trkpt lat="42.63619" lon="1.11821">
        <ele>1036.6</ele>
        <time>2022-05-22 19:17:41</time>
      </trkpt>
      <trkpt lat="42.6362" lon="1.11819">
        <ele>1036.8</ele>
        <time>2022-05-22 19:17:42</time>
      </trkpt>
      <trkpt lat="42.63622" lon="1.11817">
        <ele>1037</ele>
        <time>2022-05-22 19:17:43</time>
      </trkpt>
      <trkpt lat="42.63623" lon="1.11816">
        <ele>1037</ele>
        <time>2022-05-22 19:17:44</time>
      </trkpt>
      <trkpt lat="42.63625" lon="1.11814">
        <ele>1037.2</ele>
        <time>2022-05-22 19:17:45</time>
      </trkpt>
      <trkpt lat="42.63627" lon="1.11812">
        <ele>1037.4</ele>
        <time>2022-05-22 19:17:46</time>
      </trkpt>
      <trkpt lat="42.63628" lon="1.11811">
        <ele>1037.6</ele>
        <time>2022-05-22 19:17:47</time>
      </trkpt>
      <trkpt lat="42.63629" lon="1.11809">
        <ele>1037.8</ele>
        <time>2022-05-22 19:17:48</time>
      </trkpt>
      <trkpt lat="42.63631" lon="1.11808">
        <ele>1037.8</ele>
        <time>2022-05-22 19:17:49</time>
      </trkpt>
      <trkpt lat="42.63632" lon="1.11807">
        <ele>1038</ele>
        <time>2022-05-22 19:17:50</time>
      </trkpt>
      <trkpt lat="42.63633" lon="1.11805">
        <ele>1038.2</ele>
        <time>2022-05-22 19:17:51</time>
      </trkpt>
      <trkpt lat="42.63634" lon="1.11803">
        <ele>1038.4</ele>
        <time>2022-05-22 19:17:52</time>
      </trkpt>
      <trkpt lat="42.63635" lon="1.11802">
        <ele>1038.4</ele>
        <time>2022-05-22 19:17:53</time>
      </trkpt>
      <trkpt lat="42.63636" lon="1.118">
        <ele>1038.6</ele>
        <time>2022-05-22 19:17:54</time>
      </trkpt>
      <trkpt lat="42.63638" lon="1.11799">
        <ele>1038.8</ele>
        <time>2022-05-22 19:17:55</time>
      </trkpt>
      <trkpt lat="42.63639" lon="1.11797">
        <ele>1038.8</ele>
        <time>2022-05-22 19:17:56</time>
      </trkpt>
      <trkpt lat="42.63641" lon="1.11796">
        <ele>1039</ele>
        <time>2022-05-22 19:17:57</time>
      </trkpt>
      <trkpt lat="42.63642" lon="1.11795">
        <ele>1039.2</ele>
        <time>2022-05-22 19:17:58</time>
      </trkpt>
      <trkpt lat="42.63644" lon="1.11795">
        <ele>1039.4</ele>
        <time>2022-05-22 19:17:59</time>
      </trkpt>
      <trkpt lat="42.63645" lon="1.11794">
        <ele>1039.4</ele>
        <time>2022-05-22 19:18:00</time>
      </trkpt>
      <trkpt lat="42.63647" lon="1.11793">
        <ele>1039.6</ele>
        <time>2022-05-22 19:18:01</time>
      </trkpt>
      <trkpt lat="42.63648" lon="1.11792">
        <ele>1039.8</ele>
        <time>2022-05-22 19:18:02</time>
      </trkpt>
      <trkpt lat="42.6365" lon="1.11791">
        <ele>1039.8</ele>
        <time>2022-05-22 19:18:03</time>
      </trkpt>
      <trkpt lat="42.63651" lon="1.11789">
        <ele>1040</ele>
        <time>2022-05-22 19:18:04</time>
      </trkpt>
      <trkpt lat="42.63653" lon="1.11788">
        <ele>1040.2</ele>
        <time>2022-05-22 19:18:05</time>
      </trkpt>
      <trkpt lat="42.63654" lon="1.11787">
        <ele>1040.2</ele>
        <time>2022-05-22 19:18:06</time>
      </trkpt>
      <trkpt lat="42.63656" lon="1.11786">
        <ele>1040.4</ele>
        <time>2022-05-22 19:18:07</time>
      </trkpt>
      <trkpt lat="42.63657" lon="1.11784">
        <ele>1040.6</ele>
        <time>2022-05-22 19:18:08</time>
      </trkpt>
      <trkpt lat="42.63658" lon="1.11782">
        <ele>1040.6</ele>
        <time>2022-05-22 19:18:09</time>
      </trkpt>
      <trkpt lat="42.63659" lon="1.11781">
        <ele>1040.8</ele>
        <time>2022-05-22 19:18:10</time>
      </trkpt>
      <trkpt lat="42.6366" lon="1.11779">
        <ele>1041</ele>
        <time>2022-05-22 19:18:11</time>
      </trkpt>
      <trkpt lat="42.63662" lon="1.11778">
        <ele>1041</ele>
        <time>2022-05-22 19:18:12</time>
      </trkpt>
      <trkpt lat="42.63663" lon="1.11777">
        <ele>1041.2</ele>
        <time>2022-05-22 19:18:13</time>
      </trkpt>
      <trkpt lat="42.63665" lon="1.11776">
        <ele>1041.4</ele>
        <time>2022-05-22 19:18:14</time>
      </trkpt>
      <trkpt lat="42.63666" lon="1.11775">
        <ele>1041.4</ele>
        <time>2022-05-22 19:18:15</time>
      </trkpt>
      <trkpt lat="42.63667" lon="1.11773">
        <ele>1041.6</ele>
        <time>2022-05-22 19:18:16</time>
      </trkpt>
      <trkpt lat="42.63669" lon="1.11772">
        <ele>1041.6</ele>
        <time>2022-05-22 19:18:17</time>
      </trkpt>
      <trkpt lat="42.6367" lon="1.1177">
        <ele>1041.8</ele>
        <time>2022-05-22 19:18:18</time>
      </trkpt>
      <trkpt lat="42.63672" lon="1.11769">
        <ele>1042</ele>
        <time>2022-05-22 19:18:19</time>
      </trkpt>
      <trkpt lat="42.63673" lon="1.11768">
        <ele>1042</ele>
        <time>2022-05-22 19:18:20</time>
      </trkpt>
      <trkpt lat="42.63675" lon="1.11767">
        <ele>1042.2</ele>
        <time>2022-05-22 19:18:21</time>
      </trkpt>
      <trkpt lat="42.63676" lon="1.11766">
        <ele>1042.2</ele>
        <time>2022-05-22 19:18:22</time>
      </trkpt>
      <trkpt lat="42.63677" lon="1.11764">
        <ele>1042.4</ele>
        <time>2022-05-22 19:18:23</time>
      </trkpt>
      <trkpt lat="42.63678" lon="1.11763">
        <ele>1042.4</ele>
        <time>2022-05-22 19:18:24</time>
      </trkpt>
      <trkpt lat="42.63679" lon="1.11762">
        <ele>1042.6</ele>
        <time>2022-05-22 19:18:25</time>
      </trkpt>
      <trkpt lat="42.63681" lon="1.11761">
        <ele>1042.8</ele>
        <time>2022-05-22 19:18:26</time>
      </trkpt>
      <trkpt lat="42.63683" lon="1.1176">
        <ele>1042.8</ele>
        <time>2022-05-22 19:18:27</time>
      </trkpt>
      <trkpt lat="42.63684" lon="1.11758">
        <ele>1043</ele>
        <time>2022-05-22 19:18:28</time>
      </trkpt>
      <trkpt lat="42.63686" lon="1.11757">
        <ele>1043</ele>
        <time>2022-05-22 19:18:29</time>
      </trkpt>
      <trkpt lat="42.63688" lon="1.11756">
        <ele>1043.2</ele>
        <time>2022-05-22 19:18:30</time>
      </trkpt>
      <trkpt lat="42.63689" lon="1.11756">
        <ele>1043.4</ele>
        <time>2022-05-22 19:18:31</time>
      </trkpt>
      <trkpt lat="42.63691" lon="1.11756">
        <ele>1043.4</ele>
        <time>2022-05-22 19:18:32</time>
      </trkpt>
      <trkpt lat="42.63694" lon="1.11756">
        <ele>1043.6</ele>
        <time>2022-05-22 19:18:33</time>
      </trkpt>
      <trkpt lat="42.63695" lon="1.11755">
        <ele>1043.6</ele>
        <time>2022-05-22 19:18:34</time>
      </trkpt>
      <trkpt lat="42.63697" lon="1.11755">
        <ele>1043.8</ele>
        <time>2022-05-22 19:18:35</time>
      </trkpt>
      <trkpt lat="42.63699" lon="1.11754">
        <ele>1044</ele>
        <time>2022-05-22 19:18:36</time>
      </trkpt>
      <trkpt lat="42.637" lon="1.11753">
        <ele>1044</ele>
        <time>2022-05-22 19:18:37</time>
      </trkpt>
      <trkpt lat="42.63702" lon="1.11752">
        <ele>1044.2</ele>
        <time>2022-05-22 19:18:38</time>
      </trkpt>
      <trkpt lat="42.63703" lon="1.11751">
        <ele>1044.4</ele>
        <time>2022-05-22 19:18:39</time>
      </trkpt>
      <trkpt lat="42.63705" lon="1.1175">
        <ele>1044.4</ele>
        <time>2022-05-22 19:18:40</time>
      </trkpt>
      <trkpt lat="42.63706" lon="1.11748">
        <ele>1044.6</ele>
        <time>2022-05-22 19:18:41</time>
      </trkpt>
      <trkpt lat="42.63708" lon="1.11747">
        <ele>1044.8</ele>
        <time>2022-05-22 19:18:42</time>
      </trkpt>
      <trkpt lat="42.63709" lon="1.11746">
        <ele>1045</ele>
        <time>2022-05-22 19:18:43</time>
      </trkpt>
      <trkpt lat="42.63711" lon="1.11745">
        <ele>1045</ele>
        <time>2022-05-22 19:18:44</time>
      </trkpt>
      <trkpt lat="42.63712" lon="1.11744">
        <ele>1045.2</ele>
        <time>2022-05-22 19:18:45</time>
      </trkpt>
      <trkpt lat="42.63713" lon="1.11743">
        <ele>1045.4</ele>
        <time>2022-05-22 19:18:46</time>
      </trkpt>
      <trkpt lat="42.63715" lon="1.11741">
        <ele>1045.4</ele>
        <time>2022-05-22 19:18:47</time>
      </trkpt>
      <trkpt lat="42.63716" lon="1.1174">
        <ele>1045.6</ele>
        <time>2022-05-22 19:18:48</time>
      </trkpt>
      <trkpt lat="42.63718" lon="1.11738">
        <ele>1045.8</ele>
        <time>2022-05-22 19:18:49</time>
      </trkpt>
      <trkpt lat="42.63719" lon="1.11736">
        <ele>1045.8</ele>
        <time>2022-05-22 19:18:50</time>
      </trkpt>
      <trkpt lat="42.6372" lon="1.11734">
        <ele>1046</ele>
        <time>2022-05-22 19:18:51</time>
      </trkpt>
      <trkpt lat="42.63721" lon="1.11732">
        <ele>1046.2</ele>
        <time>2022-05-22 19:18:52</time>
      </trkpt>
      <trkpt lat="42.63722" lon="1.11729">
        <ele>1046.2</ele>
        <time>2022-05-22 19:18:53</time>
      </trkpt>
      <trkpt lat="42.63723" lon="1.11728">
        <ele>1046.4</ele>
        <time>2022-05-22 19:18:54</time>
      </trkpt>
      <trkpt lat="42.63724" lon="1.11726">
        <ele>1046.4</ele>
        <time>2022-05-22 19:18:55</time>
      </trkpt>
      <trkpt lat="42.63725" lon="1.11724">
        <ele>1046.6</ele>
        <time>2022-05-22 19:18:56</time>
      </trkpt>
      <trkpt lat="42.63727" lon="1.11722">
        <ele>1046.8</ele>
        <time>2022-05-22 19:18:57</time>
      </trkpt>
      <trkpt lat="42.63728" lon="1.1172">
        <ele>1046.8</ele>
        <time>2022-05-22 19:18:58</time>
      </trkpt>
      <trkpt lat="42.63729" lon="1.11718">
        <ele>1047</ele>
        <time>2022-05-22 19:18:59</time>
      </trkpt>
      <trkpt lat="42.6373" lon="1.11717">
        <ele>1047</ele>
        <time>2022-05-22 19:19:00</time>
      </trkpt>
      <trkpt lat="42.63732" lon="1.11715">
        <ele>1047.2</ele>
        <time>2022-05-22 19:19:01</time>
      </trkpt>
      <trkpt lat="42.63734" lon="1.11713">
        <ele>1047.2</ele>
        <time>2022-05-22 19:19:02</time>
      </trkpt>
      <trkpt lat="42.63735" lon="1.11711">
        <ele>1047.4</ele>
        <time>2022-05-22 19:19:03</time>
      </trkpt>
      <trkpt lat="42.63737" lon="1.11709">
        <ele>1047.4</ele>
        <time>2022-05-22 19:19:04</time>
      </trkpt>
      <trkpt lat="42.63738" lon="1.11707">
        <ele>1047.4</ele>
        <time>2022-05-22 19:19:05</time>
      </trkpt>
      <trkpt lat="42.6374" lon="1.11705">
        <ele>1047.4</ele>
        <time>2022-05-22 19:19:06</time>
      </trkpt>
      <trkpt lat="42.63741" lon="1.11703">
        <ele>1047.6</ele>
        <time>2022-05-22 19:19:07</time>
      </trkpt>
      <trkpt lat="42.63743" lon="1.11701">
        <ele>1047.6</ele>
        <time>2022-05-22 19:19:08</time>
      </trkpt>
      <trkpt lat="42.63745" lon="1.11699">
        <ele>1047.6</ele>
        <time>2022-05-22 19:19:09</time>
      </trkpt>
      <trkpt lat="42.63747" lon="1.11697">
        <ele>1047.8</ele>
        <time>2022-05-22 19:19:10</time>
      </trkpt>
      <trkpt lat="42.6375" lon="1.11695">
        <ele>1047.8</ele>
        <time>2022-05-22 19:19:11</time>
      </trkpt>
      <trkpt lat="42.63752" lon="1.11694">
        <ele>1047.8</ele>
        <time>2022-05-22 19:19:12</time>
      </trkpt>
      <trkpt lat="42.63754" lon="1.11692">
        <ele>1047.8</ele>
        <time>2022-05-22 19:19:13</time>
      </trkpt>
      <trkpt lat="42.63757" lon="1.11691">
        <ele>1047.8</ele>
        <time>2022-05-22 19:19:14</time>
      </trkpt>
      <trkpt lat="42.6376" lon="1.1169">
        <ele>1047.8</ele>
        <time>2022-05-22 19:19:15</time>
      </trkpt>
      <trkpt lat="42.63763" lon="1.11689">
        <ele>1047.8</ele>
        <time>2022-05-22 19:19:16</time>
      </trkpt>
      <trkpt lat="42.63765" lon="1.11687">
        <ele>1048</ele>
        <time>2022-05-22 19:19:17</time>
      </trkpt>
      <trkpt lat="42.63768" lon="1.11685">
        <ele>1048</ele>
        <time>2022-05-22 19:19:18</time>
      </trkpt>
      <trkpt lat="42.6377" lon="1.11683">
        <ele>1048</ele>
        <time>2022-05-22 19:19:19</time>
      </trkpt>
      <trkpt lat="42.63772" lon="1.11682">
        <ele>1048</ele>
        <time>2022-05-22 19:19:20</time>
      </trkpt>
      <trkpt lat="42.63775" lon="1.1168">
        <ele>1048</ele>
        <time>2022-05-22 19:19:21</time>
      </trkpt>
      <trkpt lat="42.63777" lon="1.11678">
        <ele>1048</ele>
        <time>2022-05-22 19:19:22</time>
      </trkpt>
      <trkpt lat="42.6378" lon="1.11677">
        <ele>1048</ele>
        <time>2022-05-22 19:19:23</time>
      </trkpt>
      <trkpt lat="42.63782" lon="1.11675">
        <ele>1048</ele>
        <time>2022-05-22 19:19:24</time>
      </trkpt>
      <trkpt lat="42.63784" lon="1.11673">
        <ele>1048.2</ele>
        <time>2022-05-22 19:19:25</time>
      </trkpt>
      <trkpt lat="42.63787" lon="1.11672">
        <ele>1048.2</ele>
        <time>2022-05-22 19:19:26</time>
      </trkpt>
      <trkpt lat="42.63789" lon="1.11671">
        <ele>1048.2</ele>
        <time>2022-05-22 19:19:27</time>
      </trkpt>
      <trkpt lat="42.63791" lon="1.1167">
        <ele>1048.2</ele>
        <time>2022-05-22 19:19:28</time>
      </trkpt>
      <trkpt lat="42.63794" lon="1.11669">
        <ele>1048.4</ele>
        <time>2022-05-22 19:19:29</time>
      </trkpt>
      <trkpt lat="42.63797" lon="1.11668">
        <ele>1048.4</ele>
        <time>2022-05-22 19:19:30</time>
      </trkpt>
      <trkpt lat="42.63799" lon="1.11667">
        <ele>1048.4</ele>
        <time>2022-05-22 19:19:31</time>
      </trkpt>
      <trkpt lat="42.63802" lon="1.11665">
        <ele>1048.4</ele>
        <time>2022-05-22 19:19:32</time>
      </trkpt>
      <trkpt lat="42.63804" lon="1.11664">
        <ele>1048.4</ele>
        <time>2022-05-22 19:19:33</time>
      </trkpt>
      <trkpt lat="42.63807" lon="1.11663">
        <ele>1048.4</ele>
        <time>2022-05-22 19:19:34</time>
      </trkpt>
      <trkpt lat="42.6381" lon="1.11662">
        <ele>1048.6</ele>
        <time>2022-05-22 19:19:35</time>
      </trkpt>
      <trkpt lat="42.63812" lon="1.1166">
        <ele>1048.6</ele>
        <time>2022-05-22 19:19:36</time>
      </trkpt>
      <trkpt lat="42.63814" lon="1.11659">
        <ele>1048.6</ele>
        <time>2022-05-22 19:19:37</time>
      </trkpt>
      <trkpt lat="42.63817" lon="1.11658">
        <ele>1048.6</ele>
        <time>2022-05-22 19:19:38</time>
      </trkpt>
      <trkpt lat="42.63819" lon="1.11656">
        <ele>1048.8</ele>
        <time>2022-05-22 19:19:39</time>
      </trkpt>
      <trkpt lat="42.63821" lon="1.11655">
        <ele>1048.8</ele>
        <time>2022-05-22 19:19:40</time>
      </trkpt>
      <trkpt lat="42.63824" lon="1.11654">
        <ele>1048.8</ele>
        <time>2022-05-22 19:19:41</time>
      </trkpt>
      <trkpt lat="42.63827" lon="1.11653">
        <ele>1049</ele>
        <time>2022-05-22 19:19:42</time>
      </trkpt>
      <trkpt lat="42.63829" lon="1.11651">
        <ele>1049</ele>
        <time>2022-05-22 19:19:43</time>
      </trkpt>
      <trkpt lat="42.63832" lon="1.1165">
        <ele>1049</ele>
        <time>2022-05-22 19:19:44</time>
      </trkpt>
      <trkpt lat="42.63834" lon="1.11649">
        <ele>1049.2</ele>
        <time>2022-05-22 19:19:45</time>
      </trkpt>
      <trkpt lat="42.63837" lon="1.11647">
        <ele>1049.2</ele>
        <time>2022-05-22 19:19:46</time>
      </trkpt>
      <trkpt lat="42.63839" lon="1.11645">
        <ele>1049.2</ele>
        <time>2022-05-22 19:19:47</time>
      </trkpt>
      <trkpt lat="42.63841" lon="1.11643">
        <ele>1049.4</ele>
        <time>2022-05-22 19:19:48</time>
      </trkpt>
      <trkpt lat="42.63843" lon="1.11641">
        <ele>1049.4</ele>
        <time>2022-05-22 19:19:49</time>
      </trkpt>
      <trkpt lat="42.63845" lon="1.11638">
        <ele>1049.4</ele>
        <time>2022-05-22 19:19:50</time>
      </trkpt>
      <trkpt lat="42.63847" lon="1.11635">
        <ele>1049.4</ele>
        <time>2022-05-22 19:19:51</time>
      </trkpt>
      <trkpt lat="42.63848" lon="1.11632">
        <ele>1049.4</ele>
        <time>2022-05-22 19:19:52</time>
      </trkpt>
      <trkpt lat="42.63849" lon="1.11629">
        <ele>1049.4</ele>
        <time>2022-05-22 19:19:53</time>
      </trkpt>
      <trkpt lat="42.6385" lon="1.11625">
        <ele>1049.4</ele>
        <time>2022-05-22 19:19:54</time>
      </trkpt>
      <trkpt lat="42.63852" lon="1.11622">
        <ele>1049.6</ele>
        <time>2022-05-22 19:19:55</time>
      </trkpt>
      <trkpt lat="42.63852" lon="1.11619">
        <ele>1049.6</ele>
        <time>2022-05-22 19:19:56</time>
      </trkpt>
      <trkpt lat="42.63853" lon="1.11617">
        <ele>1049.6</ele>
        <time>2022-05-22 19:19:57</time>
      </trkpt>
      <trkpt lat="42.63853" lon="1.11611">
        <ele>1049.6</ele>
        <time>2022-05-22 19:19:58</time>
      </trkpt>
      <trkpt lat="42.63852" lon="1.11608">
        <ele>1049.6</ele>
        <time>2022-05-22 19:19:59</time>
      </trkpt>
      <trkpt lat="42.63852" lon="1.11604">
        <ele>1049.8</ele>
        <time>2022-05-22 19:20:00</time>
      </trkpt>
      <trkpt lat="42.63851" lon="1.11601">
        <ele>1049.8</ele>
        <time>2022-05-22 19:20:01</time>
      </trkpt>
      <trkpt lat="42.63851" lon="1.11597">
        <ele>1049.8</ele>
        <time>2022-05-22 19:20:02</time>
      </trkpt>
      <trkpt lat="42.6385" lon="1.11594">
        <ele>1049.8</ele>
        <time>2022-05-22 19:20:03</time>
      </trkpt>
      <trkpt lat="42.6385" lon="1.1159">
        <ele>1050</ele>
        <time>2022-05-22 19:20:04</time>
      </trkpt>
      <trkpt lat="42.6385" lon="1.11586">
        <ele>1050</ele>
        <time>2022-05-22 19:20:05</time>
      </trkpt>
      <trkpt lat="42.63849" lon="1.11582">
        <ele>1050</ele>
        <time>2022-05-22 19:20:06</time>
      </trkpt>
      <trkpt lat="42.63849" lon="1.11579">
        <ele>1050.2</ele>
        <time>2022-05-22 19:20:07</time>
      </trkpt>
      <trkpt lat="42.63849" lon="1.11575">
        <ele>1050.2</ele>
        <time>2022-05-22 19:20:08</time>
      </trkpt>
      <trkpt lat="42.63848" lon="1.11572">
        <ele>1050.4</ele>
        <time>2022-05-22 19:20:09</time>
      </trkpt>
      <trkpt lat="42.63848" lon="1.11569">
        <ele>1050.4</ele>
        <time>2022-05-22 19:20:10</time>
      </trkpt>
      <trkpt lat="42.63848" lon="1.11565">
        <ele>1050.6</ele>
        <time>2022-05-22 19:20:11</time>
      </trkpt>
      <trkpt lat="42.63848" lon="1.11562">
        <ele>1050.8</ele>
        <time>2022-05-22 19:20:12</time>
      </trkpt>
      <trkpt lat="42.63849" lon="1.11559">
        <ele>1050.8</ele>
        <time>2022-05-22 19:20:13</time>
      </trkpt>
      <trkpt lat="42.63849" lon="1.11555">
        <ele>1051</ele>
        <time>2022-05-22 19:20:14</time>
      </trkpt>
      <trkpt lat="42.6385" lon="1.11552">
        <ele>1051.2</ele>
        <time>2022-05-22 19:20:15</time>
      </trkpt>
      <trkpt lat="42.6385" lon="1.11549">
        <ele>1051.4</ele>
        <time>2022-05-22 19:20:16</time>
      </trkpt>
      <trkpt lat="42.6385" lon="1.11546">
        <ele>1051.6</ele>
        <time>2022-05-22 19:20:17</time>
      </trkpt>
      <trkpt lat="42.63851" lon="1.11542">
        <ele>1051.8</ele>
        <time>2022-05-22 19:20:18</time>
      </trkpt>
      <trkpt lat="42.63851" lon="1.11538">
        <ele>1052</ele>
        <time>2022-05-22 19:20:19</time>
      </trkpt>
      <trkpt lat="42.63851" lon="1.11535">
        <ele>1052.2</ele>
        <time>2022-05-22 19:20:20</time>
      </trkpt>
      <trkpt lat="42.63852" lon="1.11532">
        <ele>1052.4</ele>
        <time>2022-05-22 19:20:21</time>
      </trkpt>
      <trkpt lat="42.63852" lon="1.11528">
        <ele>1052.4</ele>
        <time>2022-05-22 19:20:22</time>
      </trkpt>
      <trkpt lat="42.63853" lon="1.11526">
        <ele>1052.6</ele>
        <time>2022-05-22 19:20:23</time>
      </trkpt>
      <trkpt lat="42.63853" lon="1.11523">
        <ele>1052.8</ele>
        <time>2022-05-22 19:20:24</time>
      </trkpt>
      <trkpt lat="42.63854" lon="1.11519">
        <ele>1053</ele>
        <time>2022-05-22 19:20:25</time>
      </trkpt>
      <trkpt lat="42.63854" lon="1.11516">
        <ele>1053.2</ele>
        <time>2022-05-22 19:20:26</time>
      </trkpt>
      <trkpt lat="42.63855" lon="1.11513">
        <ele>1053.4</ele>
        <time>2022-05-22 19:20:27</time>
      </trkpt>
      <trkpt lat="42.63855" lon="1.1151">
        <ele>1053.6</ele>
        <time>2022-05-22 19:20:28</time>
      </trkpt>
      <trkpt lat="42.63856" lon="1.11507">
        <ele>1053.6</ele>
        <time>2022-05-22 19:20:29</time>
      </trkpt>
      <trkpt lat="42.63856" lon="1.11504">
        <ele>1053.8</ele>
        <time>2022-05-22 19:20:30</time>
      </trkpt>
      <trkpt lat="42.63857" lon="1.11501">
        <ele>1054</ele>
        <time>2022-05-22 19:20:31</time>
      </trkpt>
      <trkpt lat="42.63858" lon="1.11499">
        <ele>1054.2</ele>
        <time>2022-05-22 19:20:32</time>
      </trkpt>
      <trkpt lat="42.63859" lon="1.11496">
        <ele>1054.2</ele>
        <time>2022-05-22 19:20:33</time>
      </trkpt>
      <trkpt lat="42.6386" lon="1.11493">
        <ele>1054.4</ele>
        <time>2022-05-22 19:20:34</time>
      </trkpt>
      <trkpt lat="42.6386" lon="1.11491">
        <ele>1054.6</ele>
        <time>2022-05-22 19:20:35</time>
      </trkpt>
      <trkpt lat="42.63862" lon="1.11489">
        <ele>1054.8</ele>
        <time>2022-05-22 19:20:36</time>
      </trkpt>
      <trkpt lat="42.63863" lon="1.11486">
        <ele>1054.8</ele>
        <time>2022-05-22 19:20:37</time>
      </trkpt>
      <trkpt lat="42.63864" lon="1.11484">
        <ele>1055</ele>
        <time>2022-05-22 19:20:38</time>
      </trkpt>
      <trkpt lat="42.63865" lon="1.11482">
        <ele>1055.2</ele>
        <time>2022-05-22 19:20:39</time>
      </trkpt>
      <trkpt lat="42.63867" lon="1.11479">
        <ele>1055.4</ele>
        <time>2022-05-22 19:20:40</time>
      </trkpt>
      <trkpt lat="42.63868" lon="1.11477">
        <ele>1055.4</ele>
        <time>2022-05-22 19:20:41</time>
      </trkpt>
      <trkpt lat="42.63869" lon="1.11475">
        <ele>1055.6</ele>
        <time>2022-05-22 19:20:42</time>
      </trkpt>
      <trkpt lat="42.63871" lon="1.11473">
        <ele>1055.8</ele>
        <time>2022-05-22 19:20:43</time>
      </trkpt>
      <trkpt lat="42.63872" lon="1.11471">
        <ele>1055.8</ele>
        <time>2022-05-22 19:20:44</time>
      </trkpt>
      <trkpt lat="42.63873" lon="1.11468">
        <ele>1056</ele>
        <time>2022-05-22 19:20:45</time>
      </trkpt>
      <trkpt lat="42.63874" lon="1.11466">
        <ele>1056.2</ele>
        <time>2022-05-22 19:20:46</time>
      </trkpt>
      <trkpt lat="42.63875" lon="1.11464">
        <ele>1056.2</ele>
        <time>2022-05-22 19:20:47</time>
      </trkpt>
      <trkpt lat="42.63876" lon="1.11462">
        <ele>1056.4</ele>
        <time>2022-05-22 19:20:48</time>
      </trkpt>
      <trkpt lat="42.63878" lon="1.11459">
        <ele>1056.6</ele>
        <time>2022-05-22 19:20:49</time>
      </trkpt>
      <trkpt lat="42.63879" lon="1.11457">
        <ele>1056.6</ele>
        <time>2022-05-22 19:20:50</time>
      </trkpt>
      <trkpt lat="42.63881" lon="1.11455">
        <ele>1056.8</ele>
        <time>2022-05-22 19:20:51</time>
      </trkpt>
      <trkpt lat="42.63882" lon="1.11453">
        <ele>1057</ele>
        <time>2022-05-22 19:20:52</time>
      </trkpt>
      <trkpt lat="42.63883" lon="1.11451">
        <ele>1057</ele>
        <time>2022-05-22 19:20:53</time>
      </trkpt>
      <trkpt lat="42.63885" lon="1.11448">
        <ele>1057.2</ele>
        <time>2022-05-22 19:20:54</time>
      </trkpt>
      <trkpt lat="42.63886" lon="1.11446">
        <ele>1057.4</ele>
        <time>2022-05-22 19:20:55</time>
      </trkpt>
      <trkpt lat="42.63888" lon="1.11444">
        <ele>1057.4</ele>
        <time>2022-05-22 19:20:56</time>
      </trkpt>
      <trkpt lat="42.63889" lon="1.11442">
        <ele>1057.6</ele>
        <time>2022-05-22 19:20:57</time>
      </trkpt>
      <trkpt lat="42.6389" lon="1.1144">
        <ele>1057.8</ele>
        <time>2022-05-22 19:20:58</time>
      </trkpt>
      <trkpt lat="42.63891" lon="1.11438">
        <ele>1058</ele>
        <time>2022-05-22 19:20:59</time>
      </trkpt>
      <trkpt lat="42.63893" lon="1.11436">
        <ele>1058</ele>
        <time>2022-05-22 19:21:00</time>
      </trkpt>
      <trkpt lat="42.63894" lon="1.11433">
        <ele>1058.2</ele>
        <time>2022-05-22 19:21:01</time>
      </trkpt>
      <trkpt lat="42.63896" lon="1.11431">
        <ele>1058.4</ele>
        <time>2022-05-22 19:21:02</time>
      </trkpt>
      <trkpt lat="42.63897" lon="1.11428">
        <ele>1058.6</ele>
        <time>2022-05-22 19:21:03</time>
      </trkpt>
      <trkpt lat="42.63898" lon="1.11426">
        <ele>1058.8</ele>
        <time>2022-05-22 19:21:04</time>
      </trkpt>
      <trkpt lat="42.63899" lon="1.11424">
        <ele>1059</ele>
        <time>2022-05-22 19:21:05</time>
      </trkpt>
      <trkpt lat="42.63901" lon="1.11422">
        <ele>1059.2</ele>
        <time>2022-05-22 19:21:06</time>
      </trkpt>
      <trkpt lat="42.63902" lon="1.1142">
        <ele>1059.4</ele>
        <time>2022-05-22 19:21:07</time>
      </trkpt>
      <trkpt lat="42.63903" lon="1.11419">
        <ele>1059.4</ele>
        <time>2022-05-22 19:21:08</time>
      </trkpt>
      <trkpt lat="42.63905" lon="1.11417">
        <ele>1059.6</ele>
        <time>2022-05-22 19:21:09</time>
      </trkpt>
      <trkpt lat="42.63906" lon="1.11415">
        <ele>1059.8</ele>
        <time>2022-05-22 19:21:10</time>
      </trkpt>
      <trkpt lat="42.63907" lon="1.11414">
        <ele>1060</ele>
        <time>2022-05-22 19:21:11</time>
      </trkpt>
      <trkpt lat="42.63909" lon="1.11412">
        <ele>1060.2</ele>
        <time>2022-05-22 19:21:12</time>
      </trkpt>
      <trkpt lat="42.6391" lon="1.11411">
        <ele>1060.4</ele>
        <time>2022-05-22 19:21:13</time>
      </trkpt>
      <trkpt lat="42.63912" lon="1.1141">
        <ele>1060.4</ele>
        <time>2022-05-22 19:21:14</time>
      </trkpt>
      <trkpt lat="42.63914" lon="1.11409">
        <ele>1060.6</ele>
        <time>2022-05-22 19:21:15</time>
      </trkpt>
      <trkpt lat="42.63915" lon="1.11407">
        <ele>1060.8</ele>
        <time>2022-05-22 19:21:16</time>
      </trkpt>
      <trkpt lat="42.63916" lon="1.11406">
        <ele>1061</ele>
        <time>2022-05-22 19:21:17</time>
      </trkpt>
      <trkpt lat="42.63918" lon="1.11404">
        <ele>1061</ele>
        <time>2022-05-22 19:21:18</time>
      </trkpt>
      <trkpt lat="42.63919" lon="1.11403">
        <ele>1061.2</ele>
        <time>2022-05-22 19:21:19</time>
      </trkpt>
      <trkpt lat="42.63921" lon="1.11402">
        <ele>1061.4</ele>
        <time>2022-05-22 19:21:20</time>
      </trkpt>
      <trkpt lat="42.63922" lon="1.114">
        <ele>1061.4</ele>
        <time>2022-05-22 19:21:21</time>
      </trkpt>
      <trkpt lat="42.63924" lon="1.11399">
        <ele>1061.6</ele>
        <time>2022-05-22 19:21:22</time>
      </trkpt>
      <trkpt lat="42.63925" lon="1.11397">
        <ele>1061.8</ele>
        <time>2022-05-22 19:21:23</time>
      </trkpt>
      <trkpt lat="42.63927" lon="1.11396">
        <ele>1061.8</ele>
        <time>2022-05-22 19:21:24</time>
      </trkpt>
      <trkpt lat="42.63928" lon="1.11394">
        <ele>1062</ele>
        <time>2022-05-22 19:21:25</time>
      </trkpt>
      <trkpt lat="42.6393" lon="1.11393">
        <ele>1062.2</ele>
        <time>2022-05-22 19:21:26</time>
      </trkpt>
      <trkpt lat="42.63931" lon="1.11392">
        <ele>1062.4</ele>
        <time>2022-05-22 19:21:27</time>
      </trkpt>
      <trkpt lat="42.63933" lon="1.1139">
        <ele>1062.4</ele>
        <time>2022-05-22 19:21:28</time>
      </trkpt>
      <trkpt lat="42.63934" lon="1.11389">
        <ele>1062.6</ele>
        <time>2022-05-22 19:21:29</time>
      </trkpt>
      <trkpt lat="42.63935" lon="1.11387">
        <ele>1062.8</ele>
        <time>2022-05-22 19:21:30</time>
      </trkpt>
      <trkpt lat="42.63936" lon="1.11385">
        <ele>1063</ele>
        <time>2022-05-22 19:21:31</time>
      </trkpt>
      <trkpt lat="42.63937" lon="1.11383">
        <ele>1063</ele>
        <time>2022-05-22 19:21:32</time>
      </trkpt>
      <trkpt lat="42.63938" lon="1.11382">
        <ele>1063.2</ele>
        <time>2022-05-22 19:21:33</time>
      </trkpt>
      <trkpt lat="42.6394" lon="1.1138">
        <ele>1063.4</ele>
        <time>2022-05-22 19:21:34</time>
      </trkpt>
      <trkpt lat="42.63941" lon="1.11379">
        <ele>1063.6</ele>
        <time>2022-05-22 19:21:35</time>
      </trkpt>
      <trkpt lat="42.63943" lon="1.11378">
        <ele>1063.8</ele>
        <time>2022-05-22 19:21:36</time>
      </trkpt>
      <trkpt lat="42.63944" lon="1.11376">
        <ele>1064</ele>
        <time>2022-05-22 19:21:37</time>
      </trkpt>
      <trkpt lat="42.63945" lon="1.11375">
        <ele>1064</ele>
        <time>2022-05-22 19:21:38</time>
      </trkpt>
      <trkpt lat="42.63947" lon="1.11374">
        <ele>1064.2</ele>
        <time>2022-05-22 19:21:39</time>
      </trkpt>
      <trkpt lat="42.63948" lon="1.11373">
        <ele>1064.4</ele>
        <time>2022-05-22 19:21:40</time>
      </trkpt>
      <trkpt lat="42.6395" lon="1.11371">
        <ele>1064.6</ele>
        <time>2022-05-22 19:21:41</time>
      </trkpt>
      <trkpt lat="42.63951" lon="1.1137">
        <ele>1064.8</ele>
        <time>2022-05-22 19:21:42</time>
      </trkpt>
      <trkpt lat="42.63953" lon="1.11369">
        <ele>1065</ele>
        <time>2022-05-22 19:21:43</time>
      </trkpt>
      <trkpt lat="42.63954" lon="1.11367">
        <ele>1065</ele>
        <time>2022-05-22 19:21:44</time>
      </trkpt>
      <trkpt lat="42.63956" lon="1.11365">
        <ele>1065.2</ele>
        <time>2022-05-22 19:21:45</time>
      </trkpt>
      <trkpt lat="42.63957" lon="1.11364">
        <ele>1065.4</ele>
        <time>2022-05-22 19:21:46</time>
      </trkpt>
      <trkpt lat="42.63959" lon="1.11363">
        <ele>1065.6</ele>
        <time>2022-05-22 19:21:47</time>
      </trkpt>
      <trkpt lat="42.6396" lon="1.11361">
        <ele>1065.8</ele>
        <time>2022-05-22 19:21:48</time>
      </trkpt>
      <trkpt lat="42.63962" lon="1.11359">
        <ele>1066</ele>
        <time>2022-05-22 19:21:49</time>
      </trkpt>
      <trkpt lat="42.63963" lon="1.11358">
        <ele>1066.2</ele>
        <time>2022-05-22 19:21:50</time>
      </trkpt>
      <trkpt lat="42.63965" lon="1.11356">
        <ele>1066.2</ele>
        <time>2022-05-22 19:21:51</time>
      </trkpt>
      <trkpt lat="42.63967" lon="1.11355">
        <ele>1066.4</ele>
        <time>2022-05-22 19:21:52</time>
      </trkpt>
      <trkpt lat="42.63968" lon="1.11353">
        <ele>1066.6</ele>
        <time>2022-05-22 19:21:53</time>
      </trkpt>
      <trkpt lat="42.6397" lon="1.11352">
        <ele>1066.8</ele>
        <time>2022-05-22 19:21:54</time>
      </trkpt>
      <trkpt lat="42.63972" lon="1.1135">
        <ele>1066.8</ele>
        <time>2022-05-22 19:21:55</time>
      </trkpt>
      <trkpt lat="42.63974" lon="1.11349">
        <ele>1067</ele>
        <time>2022-05-22 19:21:56</time>
      </trkpt>
      <trkpt lat="42.63976" lon="1.11348">
        <ele>1067.2</ele>
        <time>2022-05-22 19:21:57</time>
      </trkpt>
      <trkpt lat="42.63978" lon="1.11347">
        <ele>1067.2</ele>
        <time>2022-05-22 19:21:58</time>
      </trkpt>
      <trkpt lat="42.6398" lon="1.11346">
        <ele>1067.4</ele>
        <time>2022-05-22 19:21:59</time>
      </trkpt>
      <trkpt lat="42.63983" lon="1.11345">
        <ele>1067.4</ele>
        <time>2022-05-22 19:22:00</time>
      </trkpt>
      <trkpt lat="42.63985" lon="1.11343">
        <ele>1067.6</ele>
        <time>2022-05-22 19:22:01</time>
      </trkpt>
      <trkpt lat="42.63988" lon="1.11342">
        <ele>1067.6</ele>
        <time>2022-05-22 19:22:02</time>
      </trkpt>
      <trkpt lat="42.6399" lon="1.1134">
        <ele>1067.8</ele>
        <time>2022-05-22 19:22:03</time>
      </trkpt>
      <trkpt lat="42.63993" lon="1.11338">
        <ele>1067.8</ele>
        <time>2022-05-22 19:22:04</time>
      </trkpt>
      <trkpt lat="42.63995" lon="1.11337">
        <ele>1067.8</ele>
        <time>2022-05-22 19:22:05</time>
      </trkpt>
      <trkpt lat="42.63998" lon="1.11335">
        <ele>1068</ele>
        <time>2022-05-22 19:22:06</time>
      </trkpt>
      <trkpt lat="42.64" lon="1.11333">
        <ele>1068</ele>
        <time>2022-05-22 19:22:07</time>
      </trkpt>
      <trkpt lat="42.64003" lon="1.1133">
        <ele>1068</ele>
        <time>2022-05-22 19:22:08</time>
      </trkpt>
      <trkpt lat="42.64006" lon="1.11329">
        <ele>1068</ele>
        <time>2022-05-22 19:22:09</time>
      </trkpt>
      <trkpt lat="42.64008" lon="1.11327">
        <ele>1068.2</ele>
        <time>2022-05-22 19:22:10</time>
      </trkpt>
      <trkpt lat="42.6401" lon="1.11325">
        <ele>1068.2</ele>
        <time>2022-05-22 19:22:11</time>
      </trkpt>
      <trkpt lat="42.64012" lon="1.11323">
        <ele>1068.2</ele>
        <time>2022-05-22 19:22:12</time>
      </trkpt>
      <trkpt lat="42.64015" lon="1.11321">
        <ele>1068.4</ele>
        <time>2022-05-22 19:22:13</time>
      </trkpt>
      <trkpt lat="42.64018" lon="1.1132">
        <ele>1068.4</ele>
        <time>2022-05-22 19:22:14</time>
      </trkpt>
      <trkpt lat="42.6402" lon="1.11318">
        <ele>1068.4</ele>
        <time>2022-05-22 19:22:15</time>
      </trkpt>
      <trkpt lat="42.64023" lon="1.11316">
        <ele>1068.4</ele>
        <time>2022-05-22 19:22:16</time>
      </trkpt>
      <trkpt lat="42.64025" lon="1.11315">
        <ele>1068.4</ele>
        <time>2022-05-22 19:22:17</time>
      </trkpt>
      <trkpt lat="42.64028" lon="1.11313">
        <ele>1068.6</ele>
        <time>2022-05-22 19:22:18</time>
      </trkpt>
      <trkpt lat="42.64031" lon="1.11312">
        <ele>1068.6</ele>
        <time>2022-05-22 19:22:19</time>
      </trkpt>
      <trkpt lat="42.64033" lon="1.11311">
        <ele>1068.6</ele>
        <time>2022-05-22 19:22:20</time>
      </trkpt>
      <trkpt lat="42.64036" lon="1.1131">
        <ele>1068.8</ele>
        <time>2022-05-22 19:22:21</time>
      </trkpt>
      <trkpt lat="42.64039" lon="1.11309">
        <ele>1068.8</ele>
        <time>2022-05-22 19:22:22</time>
      </trkpt>
      <trkpt lat="42.64041" lon="1.11308">
        <ele>1068.8</ele>
        <time>2022-05-22 19:22:23</time>
      </trkpt>
      <trkpt lat="42.64044" lon="1.11307">
        <ele>1069</ele>
        <time>2022-05-22 19:22:24</time>
      </trkpt>
      <trkpt lat="42.64047" lon="1.11307">
        <ele>1069</ele>
        <time>2022-05-22 19:22:25</time>
      </trkpt>
      <trkpt lat="42.6405" lon="1.11307">
        <ele>1069</ele>
        <time>2022-05-22 19:22:26</time>
      </trkpt>
      <trkpt lat="42.64053" lon="1.11307">
        <ele>1069</ele>
        <time>2022-05-22 19:22:27</time>
      </trkpt>
      <trkpt lat="42.64056" lon="1.11307">
        <ele>1069</ele>
        <time>2022-05-22 19:22:28</time>
      </trkpt>
      <trkpt lat="42.6406" lon="1.11308">
        <ele>1069</ele>
        <time>2022-05-22 19:22:29</time>
      </trkpt>
      <trkpt lat="42.64063" lon="1.11308">
        <ele>1069</ele>
        <time>2022-05-22 19:22:30</time>
      </trkpt>
      <trkpt lat="42.64066" lon="1.11309">
        <ele>1069</ele>
        <time>2022-05-22 19:22:31</time>
      </trkpt>
      <trkpt lat="42.64069" lon="1.11309">
        <ele>1069</ele>
        <time>2022-05-22 19:22:32</time>
      </trkpt>
      <trkpt lat="42.64072" lon="1.11309">
        <ele>1069.2</ele>
        <time>2022-05-22 19:22:33</time>
      </trkpt>
      <trkpt lat="42.64075" lon="1.11309">
        <ele>1069.2</ele>
        <time>2022-05-22 19:22:34</time>
      </trkpt>
      <trkpt lat="42.64079" lon="1.11309">
        <ele>1069</ele>
        <time>2022-05-22 19:22:35</time>
      </trkpt>
      <trkpt lat="42.64082" lon="1.11308">
        <ele>1069</ele>
        <time>2022-05-22 19:22:36</time>
      </trkpt>
      <trkpt lat="42.64086" lon="1.11307">
        <ele>1069</ele>
        <time>2022-05-22 19:22:37</time>
      </trkpt>
      <trkpt lat="42.64089" lon="1.11307">
        <ele>1069</ele>
        <time>2022-05-22 19:22:38</time>
      </trkpt>
      <trkpt lat="42.64093" lon="1.11306">
        <ele>1069</ele>
        <time>2022-05-22 19:22:39</time>
      </trkpt>
      <trkpt lat="42.64097" lon="1.11305">
        <ele>1069</ele>
        <time>2022-05-22 19:22:40</time>
      </trkpt>
      <trkpt lat="42.641" lon="1.11304">
        <ele>1069</ele>
        <time>2022-05-22 19:22:41</time>
      </trkpt>
      <trkpt lat="42.64104" lon="1.11303">
        <ele>1069</ele>
        <time>2022-05-22 19:22:42</time>
      </trkpt>
      <trkpt lat="42.64107" lon="1.11302">
        <ele>1069</ele>
        <time>2022-05-22 19:22:43</time>
      </trkpt>
      <trkpt lat="42.64111" lon="1.11301">
        <ele>1069</ele>
        <time>2022-05-22 19:22:44</time>
      </trkpt>
      <trkpt lat="42.64114" lon="1.113">
        <ele>1069</ele>
        <time>2022-05-22 19:22:45</time>
      </trkpt>
      <trkpt lat="42.64118" lon="1.11299">
        <ele>1069</ele>
        <time>2022-05-22 19:22:46</time>
      </trkpt>
      <trkpt lat="42.64121" lon="1.11298">
        <ele>1069</ele>
        <time>2022-05-22 19:22:47</time>
      </trkpt>
      <trkpt lat="42.64124" lon="1.11297">
        <ele>1069</ele>
        <time>2022-05-22 19:22:48</time>
      </trkpt>
      <trkpt lat="42.64128" lon="1.11296">
        <ele>1069</ele>
        <time>2022-05-22 19:22:49</time>
      </trkpt>
      <trkpt lat="42.64131" lon="1.11295">
        <ele>1069</ele>
        <time>2022-05-22 19:22:50</time>
      </trkpt>
      <trkpt lat="42.64135" lon="1.11294">
        <ele>1069</ele>
        <time>2022-05-22 19:22:51</time>
      </trkpt>
      <trkpt lat="42.64139" lon="1.11294">
        <ele>1069</ele>
        <time>2022-05-22 19:22:52</time>
      </trkpt>
      <trkpt lat="42.64142" lon="1.11293">
        <ele>1069</ele>
        <time>2022-05-22 19:22:53</time>
      </trkpt>
      <trkpt lat="42.64148" lon="1.11293">
        <ele>1069</ele>
        <time>2022-05-22 19:22:54</time>
      </trkpt>
      <trkpt lat="42.64152" lon="1.11292">
        <ele>1068.8</ele>
        <time>2022-05-22 19:22:55</time>
      </trkpt>
      <trkpt lat="42.64156" lon="1.11291">
        <ele>1068.8</ele>
        <time>2022-05-22 19:22:56</time>
      </trkpt>
      <trkpt lat="42.6416" lon="1.1129">
        <ele>1068.8</ele>
        <time>2022-05-22 19:22:57</time>
      </trkpt>
      <trkpt lat="42.64165" lon="1.11287">
        <ele>1068.8</ele>
        <time>2022-05-22 19:22:58</time>
      </trkpt>
      <trkpt lat="42.6417" lon="1.11285">
        <ele>1068.8</ele>
        <time>2022-05-22 19:22:59</time>
      </trkpt>
      <trkpt lat="42.64176" lon="1.11282">
        <ele>1068.6</ele>
        <time>2022-05-22 19:23:00</time>
      </trkpt>
      <trkpt lat="42.64179" lon="1.11279">
        <ele>1068.6</ele>
        <time>2022-05-22 19:23:01</time>
      </trkpt>
      <trkpt lat="42.64182" lon="1.11276">
        <ele>1068.4</ele>
        <time>2022-05-22 19:23:02</time>
      </trkpt>
      <trkpt lat="42.64186" lon="1.11274">
        <ele>1068.4</ele>
        <time>2022-05-22 19:23:03</time>
      </trkpt>
      <trkpt lat="42.6419" lon="1.11271">
        <ele>1068.2</ele>
        <time>2022-05-22 19:23:04</time>
      </trkpt>
      <trkpt lat="42.64195" lon="1.11271">
        <ele>1068</ele>
        <time>2022-05-22 19:23:05</time>
      </trkpt>
      <trkpt lat="42.642" lon="1.11274">
        <ele>1067.8</ele>
        <time>2022-05-22 19:23:06</time>
      </trkpt>
      <trkpt lat="42.64204" lon="1.11279">
        <ele>1067.4</ele>
        <time>2022-05-22 19:23:07</time>
      </trkpt>
      <trkpt lat="42.64208" lon="1.11285">
        <ele>1067</ele>
        <time>2022-05-22 19:23:08</time>
      </trkpt>
      <trkpt lat="42.64213" lon="1.11292">
        <ele>1066.6</ele>
        <time>2022-05-22 19:23:09</time>
      </trkpt>
      <trkpt lat="42.64217" lon="1.11299">
        <ele>1066.4</ele>
        <time>2022-05-22 19:23:10</time>
      </trkpt>
      <trkpt lat="42.64222" lon="1.11307">
        <ele>1066.2</ele>
        <time>2022-05-22 19:23:11</time>
      </trkpt>
      <trkpt lat="42.64226" lon="1.11314">
        <ele>1066</ele>
        <time>2022-05-22 19:23:12</time>
      </trkpt>
      <trkpt lat="42.64229" lon="1.11323">
        <ele>1065.8</ele>
        <time>2022-05-22 19:23:13</time>
      </trkpt>
      <trkpt lat="42.64232" lon="1.1133">
        <ele>1065.8</ele>
        <time>2022-05-22 19:23:14</time>
      </trkpt>
      <trkpt lat="42.64237" lon="1.11336">
        <ele>1065.6</ele>
        <time>2022-05-22 19:23:15</time>
      </trkpt>
      <trkpt lat="42.64241" lon="1.11339">
        <ele>1065.6</ele>
        <time>2022-05-22 19:23:16</time>
      </trkpt>
      <trkpt lat="42.64249" lon="1.11337">
        <ele>1065.4</ele>
        <time>2022-05-22 19:23:17</time>
      </trkpt>
      <trkpt lat="42.64255" lon="1.11332">
        <ele>1065.2</ele>
        <time>2022-05-22 19:23:18</time>
      </trkpt>
      <trkpt lat="42.6426" lon="1.11324">
        <ele>1065</ele>
        <time>2022-05-22 19:23:19</time>
      </trkpt>
      <trkpt lat="42.64263" lon="1.11316">
        <ele>1064.8</ele>
        <time>2022-05-22 19:23:20</time>
      </trkpt>
      <trkpt lat="42.64265" lon="1.11307">
        <ele>1064.8</ele>
        <time>2022-05-22 19:23:21</time>
      </trkpt>
      <trkpt lat="42.64266" lon="1.11298">
        <ele>1064.6</ele>
        <time>2022-05-22 19:23:22</time>
      </trkpt>
      <trkpt lat="42.64267" lon="1.11289">
        <ele>1064.8</ele>
        <time>2022-05-22 19:23:23</time>
      </trkpt>
      <trkpt lat="42.64267" lon="1.11281">
        <ele>1064.8</ele>
        <time>2022-05-22 19:23:24</time>
      </trkpt>
      <trkpt lat="42.64268" lon="1.11274">
        <ele>1065</ele>
        <time>2022-05-22 19:23:25</time>
      </trkpt>
      <trkpt lat="42.64268" lon="1.11267">
        <ele>1065.2</ele>
        <time>2022-05-22 19:23:26</time>
      </trkpt>
      <trkpt lat="42.64268" lon="1.1126">
        <ele>1065.2</ele>
        <time>2022-05-22 19:23:27</time>
      </trkpt>
      <trkpt lat="42.64269" lon="1.11254">
        <ele>1065.4</ele>
        <time>2022-05-22 19:23:28</time>
      </trkpt>
      <trkpt lat="42.64271" lon="1.11248">
        <ele>1065.4</ele>
        <time>2022-05-22 19:23:29</time>
      </trkpt>
      <trkpt lat="42.64273" lon="1.11242">
        <ele>1065.6</ele>
        <time>2022-05-22 19:23:30</time>
      </trkpt>
      <trkpt lat="42.64276" lon="1.11237">
        <ele>1065.6</ele>
        <time>2022-05-22 19:23:31</time>
      </trkpt>
      <trkpt lat="42.64279" lon="1.11233">
        <ele>1065.8</ele>
        <time>2022-05-22 19:23:32</time>
      </trkpt>
      <trkpt lat="42.64283" lon="1.1123">
        <ele>1065.8</ele>
        <time>2022-05-22 19:23:33</time>
      </trkpt>
      <trkpt lat="42.64286" lon="1.11227">
        <ele>1065.8</ele>
        <time>2022-05-22 19:23:34</time>
      </trkpt>
      <trkpt lat="42.64291" lon="1.11223">
        <ele>1066</ele>
        <time>2022-05-22 19:23:35</time>
      </trkpt>
      <trkpt lat="42.64295" lon="1.1122">
        <ele>1066</ele>
        <time>2022-05-22 19:23:36</time>
      </trkpt>
      <trkpt lat="42.64299" lon="1.11217">
        <ele>1066</ele>
        <time>2022-05-22 19:23:37</time>
      </trkpt>
      <trkpt lat="42.64303" lon="1.11215">
        <ele>1066</ele>
        <time>2022-05-22 19:23:38</time>
      </trkpt>
      <trkpt lat="42.64305" lon="1.11213">
        <ele>1066</ele>
        <time>2022-05-22 19:23:39</time>
      </trkpt>
      <trkpt lat="42.64312" lon="1.1121">
        <ele>1066</ele>
        <time>2022-05-22 19:23:40</time>
      </trkpt>
      <trkpt lat="42.64315" lon="1.11208">
        <ele>1066</ele>
        <time>2022-05-22 19:23:41</time>
      </trkpt>
      <trkpt lat="42.6432" lon="1.11206">
        <ele>1066</ele>
        <time>2022-05-22 19:23:42</time>
      </trkpt>
      <trkpt lat="42.64324" lon="1.11204">
        <ele>1066</ele>
        <time>2022-05-22 19:23:43</time>
      </trkpt>
      <trkpt lat="42.6433" lon="1.11203">
        <ele>1066</ele>
        <time>2022-05-22 19:23:44</time>
      </trkpt>
      <trkpt lat="42.64334" lon="1.11203">
        <ele>1066</ele>
        <time>2022-05-22 19:23:45</time>
      </trkpt>
      <trkpt lat="42.64339" lon="1.11202">
        <ele>1066</ele>
        <time>2022-05-22 19:23:46</time>
      </trkpt>
      <trkpt lat="42.64342" lon="1.11202">
        <ele>1066</ele>
        <time>2022-05-22 19:23:47</time>
      </trkpt>
      <trkpt lat="42.64345" lon="1.11201">
        <ele>1066</ele>
        <time>2022-05-22 19:23:48</time>
      </trkpt>
      <trkpt lat="42.64352" lon="1.11199">
        <ele>1066</ele>
        <time>2022-05-22 19:23:49</time>
      </trkpt>
      <trkpt lat="42.64356" lon="1.11198">
        <ele>1066</ele>
        <time>2022-05-22 19:23:50</time>
      </trkpt>
      <trkpt lat="42.6436" lon="1.11195">
        <ele>1066</ele>
        <time>2022-05-22 19:23:51</time>
      </trkpt>
      <trkpt lat="42.64363" lon="1.11192">
        <ele>1066.2</ele>
        <time>2022-05-22 19:23:52</time>
      </trkpt>
      <trkpt lat="42.64366" lon="1.11189">
        <ele>1066.2</ele>
        <time>2022-05-22 19:23:53</time>
      </trkpt>
      <trkpt lat="42.64369" lon="1.11184">
        <ele>1066.2</ele>
        <time>2022-05-22 19:23:54</time>
      </trkpt>
      <trkpt lat="42.64372" lon="1.11179">
        <ele>1066.4</ele>
        <time>2022-05-22 19:23:55</time>
      </trkpt>
      <trkpt lat="42.64374" lon="1.11175">
        <ele>1066.4</ele>
        <time>2022-05-22 19:23:56</time>
      </trkpt>
      <trkpt lat="42.64376" lon="1.1117">
        <ele>1066.4</ele>
        <time>2022-05-22 19:23:57</time>
      </trkpt>
      <trkpt lat="42.64378" lon="1.11165">
        <ele>1066.6</ele>
        <time>2022-05-22 19:23:58</time>
      </trkpt>
      <trkpt lat="42.6438" lon="1.11161">
        <ele>1066.6</ele>
        <time>2022-05-22 19:23:59</time>
      </trkpt>
      <trkpt lat="42.64382" lon="1.11157">
        <ele>1066.6</ele>
        <time>2022-05-22 19:24:00</time>
      </trkpt>
      <trkpt lat="42.64385" lon="1.11151">
        <ele>1066.6</ele>
        <time>2022-05-22 19:24:01</time>
      </trkpt>
      <trkpt lat="42.64387" lon="1.11146">
        <ele>1066.6</ele>
        <time>2022-05-22 19:24:02</time>
      </trkpt>
      <trkpt lat="42.6439" lon="1.11141">
        <ele>1066.6</ele>
        <time>2022-05-22 19:24:03</time>
      </trkpt>
      <trkpt lat="42.64392" lon="1.11137">
        <ele>1066.6</ele>
        <time>2022-05-22 19:24:04</time>
      </trkpt>
      <trkpt lat="42.64395" lon="1.11133">
        <ele>1066.8</ele>
        <time>2022-05-22 19:24:05</time>
      </trkpt>
      <trkpt lat="42.64397" lon="1.11129">
        <ele>1066.8</ele>
        <time>2022-05-22 19:24:06</time>
      </trkpt>
      <trkpt lat="42.64401" lon="1.11125">
        <ele>1066.8</ele>
        <time>2022-05-22 19:24:07</time>
      </trkpt>
      <trkpt lat="42.64403" lon="1.11121">
        <ele>1067</ele>
        <time>2022-05-22 19:24:08</time>
      </trkpt>
      <trkpt lat="42.64406" lon="1.11118">
        <ele>1067</ele>
        <time>2022-05-22 19:24:09</time>
      </trkpt>
      <trkpt lat="42.64409" lon="1.11115">
        <ele>1067.2</ele>
        <time>2022-05-22 19:24:10</time>
      </trkpt>
      <trkpt lat="42.64412" lon="1.11113">
        <ele>1067.2</ele>
        <time>2022-05-22 19:24:11</time>
      </trkpt>
      <trkpt lat="42.64415" lon="1.11111">
        <ele>1067.2</ele>
        <time>2022-05-22 19:24:12</time>
      </trkpt>
      <trkpt lat="42.64419" lon="1.11109">
        <ele>1067.4</ele>
        <time>2022-05-22 19:24:13</time>
      </trkpt>
      <trkpt lat="42.64422" lon="1.11108">
        <ele>1067.6</ele>
        <time>2022-05-22 19:24:14</time>
      </trkpt>
      <trkpt lat="42.64425" lon="1.11106">
        <ele>1067.6</ele>
        <time>2022-05-22 19:24:15</time>
      </trkpt>
      <trkpt lat="42.64429" lon="1.11105">
        <ele>1067.8</ele>
        <time>2022-05-22 19:24:16</time>
      </trkpt>
      <trkpt lat="42.64432" lon="1.11103">
        <ele>1067.8</ele>
        <time>2022-05-22 19:24:17</time>
      </trkpt>
      <trkpt lat="42.64435" lon="1.11102">
        <ele>1067.8</ele>
        <time>2022-05-22 19:24:18</time>
      </trkpt>
      <trkpt lat="42.6444" lon="1.111">
        <ele>1067.8</ele>
        <time>2022-05-22 19:24:19</time>
      </trkpt>
      <trkpt lat="42.64443" lon="1.11097">
        <ele>1068</ele>
        <time>2022-05-22 19:24:20</time>
      </trkpt>
      <trkpt lat="42.64447" lon="1.11095">
        <ele>1068</ele>
        <time>2022-05-22 19:24:21</time>
      </trkpt>
      <trkpt lat="42.6445" lon="1.11092">
        <ele>1068.2</ele>
        <time>2022-05-22 19:24:22</time>
      </trkpt>
      <trkpt lat="42.64452" lon="1.11089">
        <ele>1068.4</ele>
        <time>2022-05-22 19:24:23</time>
      </trkpt>
      <trkpt lat="42.64454" lon="1.11085">
        <ele>1068.6</ele>
        <time>2022-05-22 19:24:24</time>
      </trkpt>
      <trkpt lat="42.64456" lon="1.11081">
        <ele>1068.8</ele>
        <time>2022-05-22 19:24:25</time>
      </trkpt>
      <trkpt lat="42.64458" lon="1.11077">
        <ele>1069</ele>
        <time>2022-05-22 19:24:26</time>
      </trkpt>
      <trkpt lat="42.6446" lon="1.11074">
        <ele>1069.2</ele>
        <time>2022-05-22 19:24:27</time>
      </trkpt>
      <trkpt lat="42.64463" lon="1.11071">
        <ele>1069.4</ele>
        <time>2022-05-22 19:24:28</time>
      </trkpt>
      <trkpt lat="42.64465" lon="1.11068">
        <ele>1069.6</ele>
        <time>2022-05-22 19:24:29</time>
      </trkpt>
      <trkpt lat="42.64467" lon="1.11065">
        <ele>1069.8</ele>
        <time>2022-05-22 19:24:30</time>
      </trkpt>
      <trkpt lat="42.64469" lon="1.11061">
        <ele>1070</ele>
        <time>2022-05-22 19:24:31</time>
      </trkpt>
      <trkpt lat="42.64471" lon="1.11058">
        <ele>1070.2</ele>
        <time>2022-05-22 19:24:32</time>
      </trkpt>
      <trkpt lat="42.64473" lon="1.11055">
        <ele>1070.4</ele>
        <time>2022-05-22 19:24:33</time>
      </trkpt>
      <trkpt lat="42.64474" lon="1.11052">
        <ele>1070.6</ele>
        <time>2022-05-22 19:24:34</time>
      </trkpt>
      <trkpt lat="42.64476" lon="1.11048">
        <ele>1070.8</ele>
        <time>2022-05-22 19:24:35</time>
      </trkpt>
      <trkpt lat="42.64478" lon="1.11046">
        <ele>1071</ele>
        <time>2022-05-22 19:24:36</time>
      </trkpt>
      <trkpt lat="42.64479" lon="1.11042">
        <ele>1071</ele>
        <time>2022-05-22 19:24:37</time>
      </trkpt>
      <trkpt lat="42.64481" lon="1.11038">
        <ele>1071.2</ele>
        <time>2022-05-22 19:24:38</time>
      </trkpt>
      <trkpt lat="42.64482" lon="1.11034">
        <ele>1071.4</ele>
        <time>2022-05-22 19:24:39</time>
      </trkpt>
      <trkpt lat="42.64483" lon="1.1103">
        <ele>1071.6</ele>
        <time>2022-05-22 19:24:40</time>
      </trkpt>
      <trkpt lat="42.64484" lon="1.11025">
        <ele>1071.8</ele>
        <time>2022-05-22 19:24:41</time>
      </trkpt>
      <trkpt lat="42.64484" lon="1.11021">
        <ele>1071.8</ele>
        <time>2022-05-22 19:24:42</time>
      </trkpt>
      <trkpt lat="42.64485" lon="1.11017">
        <ele>1072</ele>
        <time>2022-05-22 19:24:43</time>
      </trkpt>
      <trkpt lat="42.64486" lon="1.11012">
        <ele>1072</ele>
        <time>2022-05-22 19:24:44</time>
      </trkpt>
      <trkpt lat="42.64486" lon="1.11009">
        <ele>1072.2</ele>
        <time>2022-05-22 19:24:45</time>
      </trkpt>
      <trkpt lat="42.64487" lon="1.11005">
        <ele>1072.2</ele>
        <time>2022-05-22 19:24:46</time>
      </trkpt>
      <trkpt lat="42.64487" lon="1.11">
        <ele>1072.4</ele>
        <time>2022-05-22 19:24:47</time>
      </trkpt>
      <trkpt lat="42.64488" lon="1.10996">
        <ele>1072.6</ele>
        <time>2022-05-22 19:24:48</time>
      </trkpt>
      <trkpt lat="42.64488" lon="1.10992">
        <ele>1072.6</ele>
        <time>2022-05-22 19:24:49</time>
      </trkpt>
      <trkpt lat="42.64489" lon="1.10988">
        <ele>1072.8</ele>
        <time>2022-05-22 19:24:50</time>
      </trkpt>
      <trkpt lat="42.6449" lon="1.10984">
        <ele>1072.8</ele>
        <time>2022-05-22 19:24:51</time>
      </trkpt>
      <trkpt lat="42.6449" lon="1.10981">
        <ele>1073</ele>
        <time>2022-05-22 19:24:52</time>
      </trkpt>
      <trkpt lat="42.64491" lon="1.10977">
        <ele>1073</ele>
        <time>2022-05-22 19:24:53</time>
      </trkpt>
      <trkpt lat="42.64492" lon="1.10972">
        <ele>1073.2</ele>
        <time>2022-05-22 19:24:54</time>
      </trkpt>
      <trkpt lat="42.64493" lon="1.10967">
        <ele>1073.2</ele>
        <time>2022-05-22 19:24:55</time>
      </trkpt>
      <trkpt lat="42.64493" lon="1.10963">
        <ele>1073.4</ele>
        <time>2022-05-22 19:24:56</time>
      </trkpt>
      <trkpt lat="42.64493" lon="1.10959">
        <ele>1073.4</ele>
        <time>2022-05-22 19:24:57</time>
      </trkpt>
      <trkpt lat="42.64494" lon="1.10955">
        <ele>1073.6</ele>
        <time>2022-05-22 19:24:58</time>
      </trkpt>
      <trkpt lat="42.64494" lon="1.10951">
        <ele>1073.8</ele>
        <time>2022-05-22 19:24:59</time>
      </trkpt>
      <trkpt lat="42.64494" lon="1.10947">
        <ele>1073.8</ele>
        <time>2022-05-22 19:25:00</time>
      </trkpt>
      <trkpt lat="42.64495" lon="1.10943">
        <ele>1074</ele>
        <time>2022-05-22 19:25:01</time>
      </trkpt>
      <trkpt lat="42.64496" lon="1.10939">
        <ele>1074.2</ele>
        <time>2022-05-22 19:25:02</time>
      </trkpt>
      <trkpt lat="42.64496" lon="1.10935">
        <ele>1074.2</ele>
        <time>2022-05-22 19:25:03</time>
      </trkpt>
      <trkpt lat="42.64498" lon="1.10931">
        <ele>1074.4</ele>
        <time>2022-05-22 19:25:04</time>
      </trkpt>
      <trkpt lat="42.64499" lon="1.10927">
        <ele>1074.4</ele>
        <time>2022-05-22 19:25:05</time>
      </trkpt>
      <trkpt lat="42.645" lon="1.10923">
        <ele>1074.6</ele>
        <time>2022-05-22 19:25:06</time>
      </trkpt>
      <trkpt lat="42.64501" lon="1.10919">
        <ele>1074.6</ele>
        <time>2022-05-22 19:25:07</time>
      </trkpt>
      <trkpt lat="42.64503" lon="1.10915">
        <ele>1074.6</ele>
        <time>2022-05-22 19:25:08</time>
      </trkpt>
      <trkpt lat="42.64505" lon="1.10911">
        <ele>1074.8</ele>
        <time>2022-05-22 19:25:09</time>
      </trkpt>
      <trkpt lat="42.64506" lon="1.10907">
        <ele>1074.8</ele>
        <time>2022-05-22 19:25:10</time>
      </trkpt>
      <trkpt lat="42.64508" lon="1.10902">
        <ele>1075</ele>
        <time>2022-05-22 19:25:11</time>
      </trkpt>
      <trkpt lat="42.6451" lon="1.10899">
        <ele>1075</ele>
        <time>2022-05-22 19:25:12</time>
      </trkpt>
      <trkpt lat="42.64511" lon="1.10895">
        <ele>1075</ele>
        <time>2022-05-22 19:25:13</time>
      </trkpt>
      <trkpt lat="42.64513" lon="1.1089">
        <ele>1075</ele>
        <time>2022-05-22 19:25:14</time>
      </trkpt>
      <trkpt lat="42.64515" lon="1.10887">
        <ele>1075</ele>
        <time>2022-05-22 19:25:15</time>
      </trkpt>
      <trkpt lat="42.64516" lon="1.10882">
        <ele>1075</ele>
        <time>2022-05-22 19:25:16</time>
      </trkpt>
      <trkpt lat="42.64517" lon="1.10876">
        <ele>1075</ele>
        <time>2022-05-22 19:25:17</time>
      </trkpt>
      <trkpt lat="42.64518" lon="1.10871">
        <ele>1074.8</ele>
        <time>2022-05-22 19:25:18</time>
      </trkpt>
      <trkpt lat="42.64519" lon="1.10865">
        <ele>1074.8</ele>
        <time>2022-05-22 19:25:19</time>
      </trkpt>
      <trkpt lat="42.64519" lon="1.10859">
        <ele>1074.6</ele>
        <time>2022-05-22 19:25:20</time>
      </trkpt>
      <trkpt lat="42.6452" lon="1.10853">
        <ele>1074.4</ele>
        <time>2022-05-22 19:25:21</time>
      </trkpt>
      <trkpt lat="42.64521" lon="1.10848">
        <ele>1074.2</ele>
        <time>2022-05-22 19:25:22</time>
      </trkpt>
      <trkpt lat="42.64523" lon="1.10838">
        <ele>1073.8</ele>
        <time>2022-05-22 19:25:23</time>
      </trkpt>
      <trkpt lat="42.64525" lon="1.10832">
        <ele>1073.6</ele>
        <time>2022-05-22 19:25:24</time>
      </trkpt>
      <trkpt lat="42.64527" lon="1.10823">
        <ele>1073.2</ele>
        <time>2022-05-22 19:25:25</time>
      </trkpt>
      <trkpt lat="42.6453" lon="1.10816">
        <ele>1072.8</ele>
        <time>2022-05-22 19:25:26</time>
      </trkpt>
      <trkpt lat="42.64533" lon="1.10806">
        <ele>1072.4</ele>
        <time>2022-05-22 19:25:27</time>
      </trkpt>
      <trkpt lat="42.64536" lon="1.10798">
        <ele>1071.8</ele>
        <time>2022-05-22 19:25:28</time>
      </trkpt>
      <trkpt lat="42.64539" lon="1.10788">
        <ele>1071.4</ele>
        <time>2022-05-22 19:25:29</time>
      </trkpt>
      <trkpt lat="42.64541" lon="1.10779">
        <ele>1070.8</ele>
        <time>2022-05-22 19:25:30</time>
      </trkpt>
      <trkpt lat="42.64543" lon="1.10767">
        <ele>1070.2</ele>
        <time>2022-05-22 19:25:31</time>
      </trkpt>
      <trkpt lat="42.64545" lon="1.10757">
        <ele>1069.8</ele>
        <time>2022-05-22 19:25:32</time>
      </trkpt>
      <trkpt lat="42.64548" lon="1.10743">
        <ele>1069</ele>
        <time>2022-05-22 19:25:33</time>
      </trkpt>
      <trkpt lat="42.64549" lon="1.10733">
        <ele>1068.4</ele>
        <time>2022-05-22 19:25:34</time>
      </trkpt>
      <trkpt lat="42.6455" lon="1.10722">
        <ele>1068.2</ele>
        <time>2022-05-22 19:25:35</time>
      </trkpt>
      <trkpt lat="42.64552" lon="1.1071">
        <ele>1068</ele>
        <time>2022-05-22 19:25:36</time>
      </trkpt>
      <trkpt lat="42.64554" lon="1.10697">
        <ele>1067.8</ele>
        <time>2022-05-22 19:25:37</time>
      </trkpt>
      <trkpt lat="42.64555" lon="1.10689">
        <ele>1067.6</ele>
        <time>2022-05-22 19:25:38</time>
      </trkpt>
      <trkpt lat="42.64557" lon="1.10676">
        <ele>1067.6</ele>
        <time>2022-05-22 19:25:39</time>
      </trkpt>
      <trkpt lat="42.64558" lon="1.10669">
        <ele>1067.6</ele>
        <time>2022-05-22 19:25:40</time>
      </trkpt>
      <trkpt lat="42.64561" lon="1.10657">
        <ele>1067.8</ele>
        <time>2022-05-22 19:25:41</time>
      </trkpt>
      <trkpt lat="42.64562" lon="1.10649">
        <ele>1067.8</ele>
        <time>2022-05-22 19:25:42</time>
      </trkpt>
      <trkpt lat="42.64565" lon="1.1064">
        <ele>1068</ele>
        <time>2022-05-22 19:25:43</time>
      </trkpt>
      <trkpt lat="42.64567" lon="1.10633">
        <ele>1068.2</ele>
        <time>2022-05-22 19:25:44</time>
      </trkpt>
      <trkpt lat="42.64569" lon="1.10626">
        <ele>1068.6</ele>
        <time>2022-05-22 19:25:45</time>
      </trkpt>
      <trkpt lat="42.64571" lon="1.10621">
        <ele>1068.8</ele>
        <time>2022-05-22 19:25:46</time>
      </trkpt>
      <trkpt lat="42.64575" lon="1.10614">
        <ele>1069.2</ele>
        <time>2022-05-22 19:25:47</time>
      </trkpt>
      <trkpt lat="42.64577" lon="1.1061">
        <ele>1069.6</ele>
        <time>2022-05-22 19:25:48</time>
      </trkpt>
      <trkpt lat="42.6458" lon="1.10604">
        <ele>1070</ele>
        <time>2022-05-22 19:25:49</time>
      </trkpt>
      <trkpt lat="42.64582" lon="1.10601">
        <ele>1070.2</ele>
        <time>2022-05-22 19:25:50</time>
      </trkpt>
      <trkpt lat="42.64583" lon="1.10598">
        <ele>1070.6</ele>
        <time>2022-05-22 19:25:51</time>
      </trkpt>
      <trkpt lat="42.64586" lon="1.10592">
        <ele>1071</ele>
        <time>2022-05-22 19:25:52</time>
      </trkpt>
      <trkpt lat="42.64588" lon="1.10588">
        <ele>1071.2</ele>
        <time>2022-05-22 19:25:53</time>
      </trkpt>
      <trkpt lat="42.6459" lon="1.10584">
        <ele>1071.6</ele>
        <time>2022-05-22 19:25:54</time>
      </trkpt>
      <trkpt lat="42.64591" lon="1.1058">
        <ele>1071.8</ele>
        <time>2022-05-22 19:25:55</time>
      </trkpt>
      <trkpt lat="42.64593" lon="1.10577">
        <ele>1072</ele>
        <time>2022-05-22 19:25:56</time>
      </trkpt>
      <trkpt lat="42.64594" lon="1.10574">
        <ele>1072.4</ele>
        <time>2022-05-22 19:25:57</time>
      </trkpt>
      <trkpt lat="42.64596" lon="1.10571">
        <ele>1072.6</ele>
        <time>2022-05-22 19:25:58</time>
      </trkpt>
      <trkpt lat="42.64598" lon="1.10568">
        <ele>1072.8</ele>
        <time>2022-05-22 19:25:59</time>
      </trkpt>
      <trkpt lat="42.64599" lon="1.10565">
        <ele>1073</ele>
        <time>2022-05-22 19:26:00</time>
      </trkpt>
      <trkpt lat="42.646" lon="1.10563">
        <ele>1073.2</ele>
        <time>2022-05-22 19:26:01</time>
      </trkpt>
      <trkpt lat="42.64602" lon="1.10559">
        <ele>1073.6</ele>
        <time>2022-05-22 19:26:02</time>
      </trkpt>
      <trkpt lat="42.64604" lon="1.10556">
        <ele>1073.8</ele>
        <time>2022-05-22 19:26:03</time>
      </trkpt>
      <trkpt lat="42.64605" lon="1.10553">
        <ele>1074</ele>
        <time>2022-05-22 19:26:04</time>
      </trkpt>
      <trkpt lat="42.64607" lon="1.10551">
        <ele>1074.2</ele>
        <time>2022-05-22 19:26:05</time>
      </trkpt>
      <trkpt lat="42.64609" lon="1.10548">
        <ele>1074.6</ele>
        <time>2022-05-22 19:26:06</time>
      </trkpt>
      <trkpt lat="42.6461" lon="1.10545">
        <ele>1074.8</ele>
        <time>2022-05-22 19:26:07</time>
      </trkpt>
      <trkpt lat="42.64612" lon="1.10543">
        <ele>1075</ele>
        <time>2022-05-22 19:26:08</time>
      </trkpt>
      <trkpt lat="42.64613" lon="1.10541">
        <ele>1075.2</ele>
        <time>2022-05-22 19:26:09</time>
      </trkpt>
      <trkpt lat="42.64615" lon="1.10537">
        <ele>1075.6</ele>
        <time>2022-05-22 19:26:10</time>
      </trkpt>
      <trkpt lat="42.64616" lon="1.10534">
        <ele>1075.8</ele>
        <time>2022-05-22 19:26:11</time>
      </trkpt>
      <trkpt lat="42.64618" lon="1.10532">
        <ele>1076</ele>
        <time>2022-05-22 19:26:12</time>
      </trkpt>
      <trkpt lat="42.64618" lon="1.1053">
        <ele>1076.4</ele>
        <time>2022-05-22 19:26:13</time>
      </trkpt>
      <trkpt lat="42.6462" lon="1.10526">
        <ele>1076.6</ele>
        <time>2022-05-22 19:26:14</time>
      </trkpt>
      <trkpt lat="42.64622" lon="1.10524">
        <ele>1076.8</ele>
        <time>2022-05-22 19:26:15</time>
      </trkpt>
      <trkpt lat="42.64623" lon="1.10522">
        <ele>1077</ele>
        <time>2022-05-22 19:26:16</time>
      </trkpt>
      <trkpt lat="42.64624" lon="1.1052">
        <ele>1077.2</ele>
        <time>2022-05-22 19:26:17</time>
      </trkpt>
      <trkpt lat="42.64626" lon="1.10516">
        <ele>1077.4</ele>
        <time>2022-05-22 19:26:18</time>
      </trkpt>
      <trkpt lat="42.64627" lon="1.10513">
        <ele>1077.6</ele>
        <time>2022-05-22 19:26:19</time>
      </trkpt>
      <trkpt lat="42.64628" lon="1.10511">
        <ele>1078</ele>
        <time>2022-05-22 19:26:20</time>
      </trkpt>
      <trkpt lat="42.64629" lon="1.10508">
        <ele>1078.2</ele>
        <time>2022-05-22 19:26:21</time>
      </trkpt>
      <trkpt lat="42.6463" lon="1.10504">
        <ele>1078.4</ele>
        <time>2022-05-22 19:26:22</time>
      </trkpt>
      <trkpt lat="42.6463" lon="1.105">
        <ele>1078.6</ele>
        <time>2022-05-22 19:26:23</time>
      </trkpt>
      <trkpt lat="42.64631" lon="1.10497">
        <ele>1078.8</ele>
        <time>2022-05-22 19:26:24</time>
      </trkpt>
      <trkpt lat="42.64631" lon="1.10494">
        <ele>1079</ele>
        <time>2022-05-22 19:26:25</time>
      </trkpt>
      <trkpt lat="42.64633" lon="1.1049">
        <ele>1079.2</ele>
        <time>2022-05-22 19:26:26</time>
      </trkpt>
      <trkpt lat="42.64634" lon="1.10487">
        <ele>1079.4</ele>
        <time>2022-05-22 19:26:27</time>
      </trkpt>
      <trkpt lat="42.64635" lon="1.10484">
        <ele>1079.6</ele>
        <time>2022-05-22 19:26:28</time>
      </trkpt>
      <trkpt lat="42.64636" lon="1.10482">
        <ele>1079.8</ele>
        <time>2022-05-22 19:26:29</time>
      </trkpt>
      <trkpt lat="42.64638" lon="1.10477">
        <ele>1080.2</ele>
        <time>2022-05-22 19:26:30</time>
      </trkpt>
      <trkpt lat="42.6464" lon="1.10474">
        <ele>1080.2</ele>
        <time>2022-05-22 19:26:31</time>
      </trkpt>
      <trkpt lat="42.64641" lon="1.10472">
        <ele>1080.4</ele>
        <time>2022-05-22 19:26:32</time>
      </trkpt>
      <trkpt lat="42.64642" lon="1.1047">
        <ele>1080.6</ele>
        <time>2022-05-22 19:26:33</time>
      </trkpt>
      <trkpt lat="42.64644" lon="1.10466">
        <ele>1080.8</ele>
        <time>2022-05-22 19:26:34</time>
      </trkpt>
      <trkpt lat="42.64646" lon="1.10463">
        <ele>1081</ele>
        <time>2022-05-22 19:26:35</time>
      </trkpt>
      <trkpt lat="42.64648" lon="1.10461">
        <ele>1081</ele>
        <time>2022-05-22 19:26:36</time>
      </trkpt>
      <trkpt lat="42.64649" lon="1.10459">
        <ele>1081.2</ele>
        <time>2022-05-22 19:26:37</time>
      </trkpt>
      <trkpt lat="42.64651" lon="1.10456">
        <ele>1081.4</ele>
        <time>2022-05-22 19:26:38</time>
      </trkpt>
      <trkpt lat="42.64653" lon="1.10454">
        <ele>1081.4</ele>
        <time>2022-05-22 19:26:39</time>
      </trkpt>
      <trkpt lat="42.64655" lon="1.10452">
        <ele>1081.6</ele>
        <time>2022-05-22 19:26:40</time>
      </trkpt>
      <trkpt lat="42.64657" lon="1.1045">
        <ele>1081.6</ele>
        <time>2022-05-22 19:26:41</time>
      </trkpt>
      <trkpt lat="42.6466" lon="1.10447">
        <ele>1081.8</ele>
        <time>2022-05-22 19:26:42</time>
      </trkpt>
      <trkpt lat="42.64663" lon="1.10444">
        <ele>1081.8</ele>
        <time>2022-05-22 19:26:43</time>
      </trkpt>
      <trkpt lat="42.64665" lon="1.10441">
        <ele>1081.8</ele>
        <time>2022-05-22 19:26:44</time>
      </trkpt>
      <trkpt lat="42.64666" lon="1.1044">
        <ele>1082</ele>
        <time>2022-05-22 19:26:45</time>
      </trkpt>
      <trkpt lat="42.6467" lon="1.10436">
        <ele>1082</ele>
        <time>2022-05-22 19:26:46</time>
      </trkpt>
      <trkpt lat="42.64672" lon="1.10433">
        <ele>1082</ele>
        <time>2022-05-22 19:26:47</time>
      </trkpt>
      <trkpt lat="42.64674" lon="1.1043">
        <ele>1082.2</ele>
        <time>2022-05-22 19:26:48</time>
      </trkpt>
      <trkpt lat="42.64677" lon="1.10427">
        <ele>1082.2</ele>
        <time>2022-05-22 19:26:49</time>
      </trkpt>
      <trkpt lat="42.64679" lon="1.10425">
        <ele>1082.2</ele>
        <time>2022-05-22 19:26:50</time>
      </trkpt>
      <trkpt lat="42.64681" lon="1.10423">
        <ele>1082.4</ele>
        <time>2022-05-22 19:26:51</time>
      </trkpt>
      <trkpt lat="42.64684" lon="1.1042">
        <ele>1082.4</ele>
        <time>2022-05-22 19:26:52</time>
      </trkpt>
      <trkpt lat="42.64686" lon="1.10418">
        <ele>1082.6</ele>
        <time>2022-05-22 19:26:53</time>
      </trkpt>
      <trkpt lat="42.64689" lon="1.10416">
        <ele>1082.6</ele>
        <time>2022-05-22 19:26:54</time>
      </trkpt>
      <trkpt lat="42.64691" lon="1.10414">
        <ele>1082.6</ele>
        <time>2022-05-22 19:26:55</time>
      </trkpt>
      <trkpt lat="42.64694" lon="1.1041">
        <ele>1082.8</ele>
        <time>2022-05-22 19:26:56</time>
      </trkpt>
      <trkpt lat="42.64696" lon="1.10408">
        <ele>1082.8</ele>
        <time>2022-05-22 19:26:57</time>
      </trkpt>
      <trkpt lat="42.64699" lon="1.10406">
        <ele>1083</ele>
        <time>2022-05-22 19:26:58</time>
      </trkpt>
      <trkpt lat="42.64702" lon="1.10404">
        <ele>1083</ele>
        <time>2022-05-22 19:26:59</time>
      </trkpt>
      <trkpt lat="42.64705" lon="1.10402">
        <ele>1083.2</ele>
        <time>2022-05-22 19:27:00</time>
      </trkpt>
      <trkpt lat="42.64708" lon="1.10401">
        <ele>1083.2</ele>
        <time>2022-05-22 19:27:01</time>
      </trkpt>
      <trkpt lat="42.64711" lon="1.10398">
        <ele>1083.2</ele>
        <time>2022-05-22 19:27:02</time>
      </trkpt>
      <trkpt lat="42.64714" lon="1.10397">
        <ele>1083.4</ele>
        <time>2022-05-22 19:27:03</time>
      </trkpt>
      <trkpt lat="42.64717" lon="1.10395">
        <ele>1083.4</ele>
        <time>2022-05-22 19:27:04</time>
      </trkpt>
      <trkpt lat="42.6472" lon="1.10393">
        <ele>1083.4</ele>
        <time>2022-05-22 19:27:05</time>
      </trkpt>
      <trkpt lat="42.64723" lon="1.1039">
        <ele>1083.4</ele>
        <time>2022-05-22 19:27:06</time>
      </trkpt>
      <trkpt lat="42.64726" lon="1.10388">
        <ele>1083.6</ele>
        <time>2022-05-22 19:27:07</time>
      </trkpt>
      <trkpt lat="42.64729" lon="1.10385">
        <ele>1083.6</ele>
        <time>2022-05-22 19:27:08</time>
      </trkpt>
      <trkpt lat="42.64732" lon="1.10382">
        <ele>1083.6</ele>
        <time>2022-05-22 19:27:09</time>
      </trkpt>
      <trkpt lat="42.64735" lon="1.10379">
        <ele>1083.6</ele>
        <time>2022-05-22 19:27:10</time>
      </trkpt>
      <trkpt lat="42.64738" lon="1.10375">
        <ele>1083.6</ele>
        <time>2022-05-22 19:27:11</time>
      </trkpt>
      <trkpt lat="42.64741" lon="1.10372">
        <ele>1083.6</ele>
        <time>2022-05-22 19:27:12</time>
      </trkpt>
      <trkpt lat="42.64743" lon="1.10369">
        <ele>1083.6</ele>
        <time>2022-05-22 19:27:13</time>
      </trkpt>
      <trkpt lat="42.64747" lon="1.10364">
        <ele>1083.8</ele>
        <time>2022-05-22 19:27:14</time>
      </trkpt>
      <trkpt lat="42.64749" lon="1.10361">
        <ele>1083.8</ele>
        <time>2022-05-22 19:27:15</time>
      </trkpt>
      <trkpt lat="42.64752" lon="1.10358">
        <ele>1083.8</ele>
        <time>2022-05-22 19:27:16</time>
      </trkpt>
      <trkpt lat="42.64756" lon="1.10354">
        <ele>1083.8</ele>
        <time>2022-05-22 19:27:17</time>
      </trkpt>
      <trkpt lat="42.64758" lon="1.10351">
        <ele>1083.8</ele>
        <time>2022-05-22 19:27:18</time>
      </trkpt>
      <trkpt lat="42.64761" lon="1.10348">
        <ele>1083.8</ele>
        <time>2022-05-22 19:27:19</time>
      </trkpt>
      <trkpt lat="42.64764" lon="1.10344">
        <ele>1083.8</ele>
        <time>2022-05-22 19:27:20</time>
      </trkpt>
      <trkpt lat="42.64767" lon="1.10341">
        <ele>1083.8</ele>
        <time>2022-05-22 19:27:21</time>
      </trkpt>
      <trkpt lat="42.64769" lon="1.10337">
        <ele>1083.8</ele>
        <time>2022-05-22 19:27:22</time>
      </trkpt>
      <trkpt lat="42.64772" lon="1.10333">
        <ele>1084</ele>
        <time>2022-05-22 19:27:23</time>
      </trkpt>
      <trkpt lat="42.64774" lon="1.1033">
        <ele>1084</ele>
        <time>2022-05-22 19:27:24</time>
      </trkpt>
      <trkpt lat="42.64775" lon="1.10326">
        <ele>1084</ele>
        <time>2022-05-22 19:27:25</time>
      </trkpt>
      <trkpt lat="42.64778" lon="1.10319">
        <ele>1084</ele>
        <time>2022-05-22 19:27:26</time>
      </trkpt>
      <trkpt lat="42.64779" lon="1.10315">
        <ele>1084</ele>
        <time>2022-05-22 19:27:27</time>
      </trkpt>
      <trkpt lat="42.64781" lon="1.1031">
        <ele>1084</ele>
        <time>2022-05-22 19:27:28</time>
      </trkpt>
      <trkpt lat="42.64783" lon="1.10305">
        <ele>1084.2</ele>
        <time>2022-05-22 19:27:29</time>
      </trkpt>
      <trkpt lat="42.64785" lon="1.10301">
        <ele>1084.2</ele>
        <time>2022-05-22 19:27:30</time>
      </trkpt>
      <trkpt lat="42.64786" lon="1.10298">
        <ele>1084.2</ele>
        <time>2022-05-22 19:27:31</time>
      </trkpt>
      <trkpt lat="42.6479" lon="1.10293">
        <ele>1084.2</ele>
        <time>2022-05-22 19:27:32</time>
      </trkpt>
      <trkpt lat="42.64792" lon="1.1029">
        <ele>1084.4</ele>
        <time>2022-05-22 19:27:33</time>
      </trkpt>
      <trkpt lat="42.64794" lon="1.10287">
        <ele>1084.4</ele>
        <time>2022-05-22 19:27:34</time>
      </trkpt>
      <trkpt lat="42.64797" lon="1.10283">
        <ele>1084.4</ele>
        <time>2022-05-22 19:27:35</time>
      </trkpt>
      <trkpt lat="42.648" lon="1.1028">
        <ele>1084.4</ele>
        <time>2022-05-22 19:27:36</time>
      </trkpt>
      <trkpt lat="42.64803" lon="1.10277">
        <ele>1084.4</ele>
        <time>2022-05-22 19:27:37</time>
      </trkpt>
      <trkpt lat="42.64807" lon="1.10273">
        <ele>1084.4</ele>
        <time>2022-05-22 19:27:38</time>
      </trkpt>
      <trkpt lat="42.64809" lon="1.1027">
        <ele>1084.4</ele>
        <time>2022-05-22 19:27:39</time>
      </trkpt>
      <trkpt lat="42.64812" lon="1.10266">
        <ele>1084.4</ele>
        <time>2022-05-22 19:27:40</time>
      </trkpt>
      <trkpt lat="42.64816" lon="1.10262">
        <ele>1084.4</ele>
        <time>2022-05-22 19:27:41</time>
      </trkpt>
      <trkpt lat="42.64819" lon="1.10259">
        <ele>1084.4</ele>
        <time>2022-05-22 19:27:42</time>
      </trkpt>
      <trkpt lat="42.64821" lon="1.10256">
        <ele>1084.4</ele>
        <time>2022-05-22 19:27:43</time>
      </trkpt>
      <trkpt lat="42.64825" lon="1.10251">
        <ele>1084.4</ele>
        <time>2022-05-22 19:27:44</time>
      </trkpt>
      <trkpt lat="42.64827" lon="1.10248">
        <ele>1084.4</ele>
        <time>2022-05-22 19:27:45</time>
      </trkpt>
      <trkpt lat="42.64831" lon="1.10245">
        <ele>1084.4</ele>
        <time>2022-05-22 19:27:46</time>
      </trkpt>
      <trkpt lat="42.64834" lon="1.10241">
        <ele>1084.4</ele>
        <time>2022-05-22 19:27:47</time>
      </trkpt>
      <trkpt lat="42.64836" lon="1.10238">
        <ele>1084.4</ele>
        <time>2022-05-22 19:27:48</time>
      </trkpt>
      <trkpt lat="42.64838" lon="1.10235">
        <ele>1084.4</ele>
        <time>2022-05-22 19:27:49</time>
      </trkpt>
      <trkpt lat="42.64841" lon="1.1023">
        <ele>1084.6</ele>
        <time>2022-05-22 19:27:50</time>
      </trkpt>
      <trkpt lat="42.64843" lon="1.10226">
        <ele>1084.6</ele>
        <time>2022-05-22 19:27:51</time>
      </trkpt>
      <trkpt lat="42.64844" lon="1.10222">
        <ele>1084.8</ele>
        <time>2022-05-22 19:27:52</time>
      </trkpt>
      <trkpt lat="42.64846" lon="1.10217">
        <ele>1084.8</ele>
        <time>2022-05-22 19:27:53</time>
      </trkpt>
      <trkpt lat="42.64847" lon="1.10213">
        <ele>1085</ele>
        <time>2022-05-22 19:27:54</time>
      </trkpt>
      <trkpt lat="42.64848" lon="1.1021">
        <ele>1085</ele>
        <time>2022-05-22 19:27:55</time>
      </trkpt>
      <trkpt lat="42.64848" lon="1.10204">
        <ele>1085.2</ele>
        <time>2022-05-22 19:27:56</time>
      </trkpt>
      <trkpt lat="42.64849" lon="1.10201">
        <ele>1085.2</ele>
        <time>2022-05-22 19:27:57</time>
      </trkpt>
      <trkpt lat="42.6485" lon="1.10195">
        <ele>1085.4</ele>
        <time>2022-05-22 19:27:58</time>
      </trkpt>
      <trkpt lat="42.6485" lon="1.1019">
        <ele>1085.4</ele>
        <time>2022-05-22 19:27:59</time>
      </trkpt>
      <trkpt lat="42.6485" lon="1.10186">
        <ele>1085.6</ele>
        <time>2022-05-22 19:28:00</time>
      </trkpt>
      <trkpt lat="42.6485" lon="1.10182">
        <ele>1085.8</ele>
        <time>2022-05-22 19:28:01</time>
      </trkpt>
      <trkpt lat="42.6485" lon="1.10176">
        <ele>1085.8</ele>
        <time>2022-05-22 19:28:02</time>
      </trkpt>
      <trkpt lat="42.6485" lon="1.10171">
        <ele>1086</ele>
        <time>2022-05-22 19:28:03</time>
      </trkpt>
      <trkpt lat="42.64849" lon="1.10166">
        <ele>1086</ele>
        <time>2022-05-22 19:28:04</time>
      </trkpt>
      <trkpt lat="42.64849" lon="1.1016">
        <ele>1086.2</ele>
        <time>2022-05-22 19:28:05</time>
      </trkpt>
      <trkpt lat="42.64849" lon="1.10156">
        <ele>1086.4</ele>
        <time>2022-05-22 19:28:06</time>
      </trkpt>
      <trkpt lat="42.64849" lon="1.10152">
        <ele>1086.4</ele>
        <time>2022-05-22 19:28:07</time>
      </trkpt>
      <trkpt lat="42.64849" lon="1.10146">
        <ele>1086.6</ele>
        <time>2022-05-22 19:28:08</time>
      </trkpt>
      <trkpt lat="42.64849" lon="1.10142">
        <ele>1086.6</ele>
        <time>2022-05-22 19:28:09</time>
      </trkpt>
      <trkpt lat="42.64849" lon="1.10138">
        <ele>1086.8</ele>
        <time>2022-05-22 19:28:10</time>
      </trkpt>
      <trkpt lat="42.6485" lon="1.10133">
        <ele>1086.8</ele>
        <time>2022-05-22 19:28:11</time>
      </trkpt>
      <trkpt lat="42.6485" lon="1.1013">
        <ele>1086.8</ele>
        <time>2022-05-22 19:28:12</time>
      </trkpt>
      <trkpt lat="42.6485" lon="1.10126">
        <ele>1086.8</ele>
        <time>2022-05-22 19:28:13</time>
      </trkpt>
      <trkpt lat="42.64851" lon="1.1012">
        <ele>1086.8</ele>
        <time>2022-05-22 19:28:14</time>
      </trkpt>
      <trkpt lat="42.64852" lon="1.10116">
        <ele>1086.8</ele>
        <time>2022-05-22 19:28:15</time>
      </trkpt>
      <trkpt lat="42.64854" lon="1.10112">
        <ele>1086.8</ele>
        <time>2022-05-22 19:28:16</time>
      </trkpt>
      <trkpt lat="42.64856" lon="1.10106">
        <ele>1086.8</ele>
        <time>2022-05-22 19:28:17</time>
      </trkpt>
      <trkpt lat="42.64857" lon="1.10102">
        <ele>1086.6</ele>
        <time>2022-05-22 19:28:18</time>
      </trkpt>
      <trkpt lat="42.64859" lon="1.10097">
        <ele>1086.4</ele>
        <time>2022-05-22 19:28:19</time>
      </trkpt>
      <trkpt lat="42.64862" lon="1.10089">
        <ele>1086.2</ele>
        <time>2022-05-22 19:28:20</time>
      </trkpt>
      <trkpt lat="42.64865" lon="1.10083">
        <ele>1085.8</ele>
        <time>2022-05-22 19:28:21</time>
      </trkpt>
      <trkpt lat="42.64869" lon="1.10076">
        <ele>1085.4</ele>
        <time>2022-05-22 19:28:22</time>
      </trkpt>
      <trkpt lat="42.64872" lon="1.10069">
        <ele>1085</ele>
        <time>2022-05-22 19:28:23</time>
      </trkpt>
      <trkpt lat="42.64876" lon="1.1006">
        <ele>1084.4</ele>
        <time>2022-05-22 19:28:24</time>
      </trkpt>
      <trkpt lat="42.64879" lon="1.10055">
        <ele>1084</ele>
        <time>2022-05-22 19:28:25</time>
      </trkpt>
      <trkpt lat="42.64885" lon="1.10042">
        <ele>1083.2</ele>
        <time>2022-05-22 19:28:26</time>
      </trkpt>
      <trkpt lat="42.64889" lon="1.10034">
        <ele>1082.6</ele>
        <time>2022-05-22 19:28:27</time>
      </trkpt>
      <trkpt lat="42.64893" lon="1.10024">
        <ele>1082</ele>
        <time>2022-05-22 19:28:28</time>
      </trkpt>
      <trkpt lat="42.64898" lon="1.10015">
        <ele>1081.4</ele>
        <time>2022-05-22 19:28:29</time>
      </trkpt>
      <trkpt lat="42.64905" lon="1.10002">
        <ele>1080.8</ele>
        <time>2022-05-22 19:28:30</time>
      </trkpt>
      <trkpt lat="42.64909" lon="1.09994">
        <ele>1080.2</ele>
        <time>2022-05-22 19:28:31</time>
      </trkpt>
      <trkpt lat="42.64914" lon="1.09984">
        <ele>1079.8</ele>
        <time>2022-05-22 19:28:32</time>
      </trkpt>
      <trkpt lat="42.64919" lon="1.09972">
        <ele>1079.6</ele>
        <time>2022-05-22 19:28:33</time>
      </trkpt>
      <trkpt lat="42.64923" lon="1.09961">
        <ele>1079.4</ele>
        <time>2022-05-22 19:28:34</time>
      </trkpt>
      <trkpt lat="42.64927" lon="1.0995">
        <ele>1079.2</ele>
        <time>2022-05-22 19:28:35</time>
      </trkpt>
      <trkpt lat="42.6493" lon="1.09942">
        <ele>1079.2</ele>
        <time>2022-05-22 19:28:36</time>
      </trkpt>
      <trkpt lat="42.64935" lon="1.09932">
        <ele>1079.4</ele>
        <time>2022-05-22 19:28:37</time>
      </trkpt>
      <trkpt lat="42.6494" lon="1.09926">
        <ele>1079.6</ele>
        <time>2022-05-22 19:28:38</time>
      </trkpt>
      <trkpt lat="42.64946" lon="1.09923">
        <ele>1079.8</ele>
        <time>2022-05-22 19:28:39</time>
      </trkpt>
      <trkpt lat="42.64951" lon="1.09923">
        <ele>1080.4</ele>
        <time>2022-05-22 19:28:40</time>
      </trkpt>
      <trkpt lat="42.64956" lon="1.09925">
        <ele>1080.8</ele>
        <time>2022-05-22 19:28:41</time>
      </trkpt>
      <trkpt lat="42.64959" lon="1.09928">
        <ele>1081.2</ele>
        <time>2022-05-22 19:28:42</time>
      </trkpt>
      <trkpt lat="42.64962" lon="1.09934">
        <ele>1081.8</ele>
        <time>2022-05-22 19:28:43</time>
      </trkpt>
      <trkpt lat="42.64963" lon="1.09938">
        <ele>1082</ele>
        <time>2022-05-22 19:28:44</time>
      </trkpt>
      <trkpt lat="42.64965" lon="1.09941">
        <ele>1082.4</ele>
        <time>2022-05-22 19:28:45</time>
      </trkpt>
      <trkpt lat="42.64966" lon="1.09948">
        <ele>1082.8</ele>
        <time>2022-05-22 19:28:46</time>
      </trkpt>
      <trkpt lat="42.64967" lon="1.09952">
        <ele>1083.2</ele>
        <time>2022-05-22 19:28:47</time>
      </trkpt>
      <trkpt lat="42.64968" lon="1.09956">
        <ele>1083.4</ele>
        <time>2022-05-22 19:28:48</time>
      </trkpt>
      <trkpt lat="42.64969" lon="1.09961">
        <ele>1083.8</ele>
        <time>2022-05-22 19:28:49</time>
      </trkpt>
      <trkpt lat="42.64969" lon="1.09964">
        <ele>1084</ele>
        <time>2022-05-22 19:28:50</time>
      </trkpt>
      <trkpt lat="42.6497" lon="1.09968">
        <ele>1084.2</ele>
        <time>2022-05-22 19:28:51</time>
      </trkpt>
      <trkpt lat="42.6497" lon="1.09971">
        <ele>1084.6</ele>
        <time>2022-05-22 19:28:52</time>
      </trkpt>
      <trkpt lat="42.6497" lon="1.09975">
        <ele>1084.8</ele>
        <time>2022-05-22 19:28:53</time>
      </trkpt>
      <trkpt lat="42.6497" lon="1.09978">
        <ele>1085</ele>
        <time>2022-05-22 19:28:54</time>
      </trkpt>
      <trkpt lat="42.6497" lon="1.09983">
        <ele>1085.2</ele>
        <time>2022-05-22 19:28:55</time>
      </trkpt>
      <trkpt lat="42.6497" lon="1.09987">
        <ele>1085.4</ele>
        <time>2022-05-22 19:28:56</time>
      </trkpt>
      <trkpt lat="42.64971" lon="1.09992">
        <ele>1085.6</ele>
        <time>2022-05-22 19:28:57</time>
      </trkpt>
      <trkpt lat="42.64972" lon="1.09996">
        <ele>1085.6</ele>
        <time>2022-05-22 19:28:58</time>
      </trkpt>
      <trkpt lat="42.64973" lon="1.1">
        <ele>1085.8</ele>
        <time>2022-05-22 19:28:59</time>
      </trkpt>
      <trkpt lat="42.64975" lon="1.10005">
        <ele>1086</ele>
        <time>2022-05-22 19:29:00</time>
      </trkpt>
      <trkpt lat="42.64976" lon="1.10009">
        <ele>1086</ele>
        <time>2022-05-22 19:29:01</time>
      </trkpt>
      <trkpt lat="42.64977" lon="1.10012">
        <ele>1086</ele>
        <time>2022-05-22 19:29:02</time>
      </trkpt>
      <trkpt lat="42.6498" lon="1.10017">
        <ele>1086</ele>
        <time>2022-05-22 19:29:03</time>
      </trkpt>
      <trkpt lat="42.64983" lon="1.10019">
        <ele>1086</ele>
        <time>2022-05-22 19:29:04</time>
      </trkpt>
      <trkpt lat="42.64984" lon="1.10019">
        <ele>1086</ele>
        <time>2022-05-22 19:29:05</time>
      </trkpt>
      <trkpt lat="42.64989" lon="1.10018">
        <ele>1086</ele>
        <time>2022-05-22 19:29:06</time>
      </trkpt>
      <trkpt lat="42.64991" lon="1.10015">
        <ele>1086</ele>
        <time>2022-05-22 19:29:07</time>
      </trkpt>
      <trkpt lat="42.64993" lon="1.1001">
        <ele>1086</ele>
        <time>2022-05-22 19:29:08</time>
      </trkpt>
      <trkpt lat="42.64995" lon="1.10005">
        <ele>1086</ele>
        <time>2022-05-22 19:29:09</time>
      </trkpt>
      <trkpt lat="42.64995" lon="1.09998">
        <ele>1086.2</ele>
        <time>2022-05-22 19:29:10</time>
      </trkpt>
      <trkpt lat="42.64995" lon="1.09993">
        <ele>1086.2</ele>
        <time>2022-05-22 19:29:11</time>
      </trkpt>
      <trkpt lat="42.64995" lon="1.09989">
        <ele>1086.2</ele>
        <time>2022-05-22 19:29:12</time>
      </trkpt>
      <trkpt lat="42.64995" lon="1.09982">
        <ele>1086.2</ele>
        <time>2022-05-22 19:29:13</time>
      </trkpt>
      <trkpt lat="42.64995" lon="1.09976">
        <ele>1086.2</ele>
        <time>2022-05-22 19:29:14</time>
      </trkpt>
      <trkpt lat="42.64994" lon="1.09971">
        <ele>1086.2</ele>
        <time>2022-05-22 19:29:15</time>
      </trkpt>
      <trkpt lat="42.64994" lon="1.09964">
        <ele>1086.2</ele>
        <time>2022-05-22 19:29:16</time>
      </trkpt>
      <trkpt lat="42.64994" lon="1.09959">
        <ele>1086.2</ele>
        <time>2022-05-22 19:29:17</time>
      </trkpt>
      <trkpt lat="42.64994" lon="1.09955">
        <ele>1086.2</ele>
        <time>2022-05-22 19:29:18</time>
      </trkpt>
      <trkpt lat="42.64994" lon="1.09947">
        <ele>1086.4</ele>
        <time>2022-05-22 19:29:19</time>
      </trkpt>
      <trkpt lat="42.64994" lon="1.09942">
        <ele>1086.4</ele>
        <time>2022-05-22 19:29:20</time>
      </trkpt>
      <trkpt lat="42.64994" lon="1.09936">
        <ele>1086.4</ele>
        <time>2022-05-22 19:29:21</time>
      </trkpt>
      <trkpt lat="42.64995" lon="1.09929">
        <ele>1086.4</ele>
        <time>2022-05-22 19:29:22</time>
      </trkpt>
      <trkpt lat="42.64995" lon="1.09924">
        <ele>1086.2</ele>
        <time>2022-05-22 19:29:23</time>
      </trkpt>
      <trkpt lat="42.64996" lon="1.0992">
        <ele>1086.2</ele>
        <time>2022-05-22 19:29:24</time>
      </trkpt>
      <trkpt lat="42.64995" lon="1.09912">
        <ele>1086.2</ele>
        <time>2022-05-22 19:29:25</time>
      </trkpt>
      <trkpt lat="42.64995" lon="1.09907">
        <ele>1086.4</ele>
        <time>2022-05-22 19:29:26</time>
      </trkpt>
      <trkpt lat="42.64996" lon="1.09901">
        <ele>1086.2</ele>
        <time>2022-05-22 19:29:27</time>
      </trkpt>
      <trkpt lat="42.64997" lon="1.09895">
        <ele>1086.4</ele>
        <time>2022-05-22 19:29:28</time>
      </trkpt>
      <trkpt lat="42.64997" lon="1.09889">
        <ele>1086.4</ele>
        <time>2022-05-22 19:29:29</time>
      </trkpt>
      <trkpt lat="42.64998" lon="1.09884">
        <ele>1086.4</ele>
        <time>2022-05-22 19:29:30</time>
      </trkpt>
      <trkpt lat="42.65" lon="1.09878">
        <ele>1086.4</ele>
        <time>2022-05-22 19:29:31</time>
      </trkpt>
      <trkpt lat="42.65002" lon="1.09874">
        <ele>1086.6</ele>
        <time>2022-05-22 19:29:32</time>
      </trkpt>
      <trkpt lat="42.65003" lon="1.0987">
        <ele>1086.6</ele>
        <time>2022-05-22 19:29:33</time>
      </trkpt>
      <trkpt lat="42.65006" lon="1.09865">
        <ele>1086.6</ele>
        <time>2022-05-22 19:29:34</time>
      </trkpt>
      <trkpt lat="42.65008" lon="1.09862">
        <ele>1086.6</ele>
        <time>2022-05-22 19:29:35</time>
      </trkpt>
      <trkpt lat="42.65009" lon="1.09859">
        <ele>1086.8</ele>
        <time>2022-05-22 19:29:36</time>
      </trkpt>
      <trkpt lat="42.65013" lon="1.09855">
        <ele>1087</ele>
        <time>2022-05-22 19:29:37</time>
      </trkpt>
      <trkpt lat="42.65016" lon="1.09852">
        <ele>1087</ele>
        <time>2022-05-22 19:29:38</time>
      </trkpt>
      <trkpt lat="42.65018" lon="1.0985">
        <ele>1087</ele>
        <time>2022-05-22 19:29:39</time>
      </trkpt>
      <trkpt lat="42.65022" lon="1.09846">
        <ele>1087.2</ele>
        <time>2022-05-22 19:29:40</time>
      </trkpt>
      <trkpt lat="42.65024" lon="1.09844">
        <ele>1087.2</ele>
        <time>2022-05-22 19:29:41</time>
      </trkpt>
      <trkpt lat="42.65026" lon="1.09842">
        <ele>1087.4</ele>
        <time>2022-05-22 19:29:42</time>
      </trkpt>
      <trkpt lat="42.65031" lon="1.09838">
        <ele>1087.4</ele>
        <time>2022-05-22 19:29:43</time>
      </trkpt>
      <trkpt lat="42.65033" lon="1.09837">
        <ele>1087.6</ele>
        <time>2022-05-22 19:29:44</time>
      </trkpt>
      <trkpt lat="42.65037" lon="1.09834">
        <ele>1087.8</ele>
        <time>2022-05-22 19:29:45</time>
      </trkpt>
      <trkpt lat="42.65041" lon="1.09831">
        <ele>1088</ele>
        <time>2022-05-22 19:29:46</time>
      </trkpt>
      <trkpt lat="42.65044" lon="1.0983">
        <ele>1088</ele>
        <time>2022-05-22 19:29:47</time>
      </trkpt>
      <trkpt lat="42.65046" lon="1.09828">
        <ele>1088.2</ele>
        <time>2022-05-22 19:29:48</time>
      </trkpt>
      <trkpt lat="42.65051" lon="1.09825">
        <ele>1088.4</ele>
        <time>2022-05-22 19:29:49</time>
      </trkpt>
      <trkpt lat="42.65053" lon="1.09823">
        <ele>1088.6</ele>
        <time>2022-05-22 19:29:50</time>
      </trkpt>
      <trkpt lat="42.65056" lon="1.09821">
        <ele>1088.6</ele>
        <time>2022-05-22 19:29:51</time>
      </trkpt>
      <trkpt lat="42.6506" lon="1.09817">
        <ele>1088.8</ele>
        <time>2022-05-22 19:29:52</time>
      </trkpt>
      <trkpt lat="42.65063" lon="1.09815">
        <ele>1089</ele>
        <time>2022-05-22 19:29:53</time>
      </trkpt>
      <trkpt lat="42.65066" lon="1.09814">
        <ele>1089</ele>
        <time>2022-05-22 19:29:54</time>
      </trkpt>
      <trkpt lat="42.6507" lon="1.09811">
        <ele>1089.2</ele>
        <time>2022-05-22 19:29:55</time>
      </trkpt>
      <trkpt lat="42.65073" lon="1.0981">
        <ele>1089.4</ele>
        <time>2022-05-22 19:29:56</time>
      </trkpt>
      <trkpt lat="42.65076" lon="1.09808">
        <ele>1089.6</ele>
        <time>2022-05-22 19:29:57</time>
      </trkpt>
      <trkpt lat="42.6508" lon="1.09806">
        <ele>1089.6</ele>
        <time>2022-05-22 19:29:58</time>
      </trkpt>
      <trkpt lat="42.65082" lon="1.09805">
        <ele>1089.8</ele>
        <time>2022-05-22 19:29:59</time>
      </trkpt>
      <trkpt lat="42.65084" lon="1.09804">
        <ele>1089.8</ele>
        <time>2022-05-22 19:30:00</time>
      </trkpt>
      <trkpt lat="42.65089" lon="1.09801">
        <ele>1090</ele>
        <time>2022-05-22 19:30:01</time>
      </trkpt>
      <trkpt lat="42.65092" lon="1.098">
        <ele>1090.2</ele>
        <time>2022-05-22 19:30:02</time>
      </trkpt>
      <trkpt lat="42.65095" lon="1.09799">
        <ele>1090.2</ele>
        <time>2022-05-22 19:30:03</time>
      </trkpt>
      <trkpt lat="42.65098" lon="1.09797">
        <ele>1090.4</ele>
        <time>2022-05-22 19:30:04</time>
      </trkpt>
      <trkpt lat="42.65101" lon="1.09796">
        <ele>1090.6</ele>
        <time>2022-05-22 19:30:05</time>
      </trkpt>
      <trkpt lat="42.65103" lon="1.09795">
        <ele>1090.6</ele>
        <time>2022-05-22 19:30:06</time>
      </trkpt>
      <trkpt lat="42.65107" lon="1.09792">
        <ele>1090.8</ele>
        <time>2022-05-22 19:30:07</time>
      </trkpt>
      <trkpt lat="42.6511" lon="1.09791">
        <ele>1090.8</ele>
        <time>2022-05-22 19:30:08</time>
      </trkpt>
      <trkpt lat="42.65113" lon="1.09789">
        <ele>1091</ele>
        <time>2022-05-22 19:30:09</time>
      </trkpt>
      <trkpt lat="42.65116" lon="1.09787">
        <ele>1091.2</ele>
        <time>2022-05-22 19:30:10</time>
      </trkpt>
      <trkpt lat="42.65118" lon="1.09786">
        <ele>1091.2</ele>
        <time>2022-05-22 19:30:11</time>
      </trkpt>
      <trkpt lat="42.6512" lon="1.09785">
        <ele>1091.4</ele>
        <time>2022-05-22 19:30:12</time>
      </trkpt>
      <trkpt lat="42.65125" lon="1.09783">
        <ele>1091.4</ele>
        <time>2022-05-22 19:30:13</time>
      </trkpt>
      <trkpt lat="42.65127" lon="1.09781">
        <ele>1091.6</ele>
        <time>2022-05-22 19:30:14</time>
      </trkpt>
      <trkpt lat="42.65129" lon="1.0978">
        <ele>1091.6</ele>
        <time>2022-05-22 19:30:15</time>
      </trkpt>
      <trkpt lat="42.65131" lon="1.09779">
        <ele>1091.8</ele>
        <time>2022-05-22 19:30:16</time>
      </trkpt>
      <trkpt lat="42.65135" lon="1.09776">
        <ele>1092</ele>
        <time>2022-05-22 19:30:17</time>
      </trkpt>
      <trkpt lat="42.65138" lon="1.09775">
        <ele>1092</ele>
        <time>2022-05-22 19:30:18</time>
      </trkpt>
      <trkpt lat="42.6514" lon="1.09773">
        <ele>1092.2</ele>
        <time>2022-05-22 19:30:19</time>
      </trkpt>
      <trkpt lat="42.65141" lon="1.09773">
        <ele>1092.2</ele>
        <time>2022-05-22 19:30:20</time>
      </trkpt>
      <trkpt lat="42.65146" lon="1.0977">
        <ele>1092.4</ele>
        <time>2022-05-22 19:30:21</time>
      </trkpt>
      <trkpt lat="42.65148" lon="1.09769">
        <ele>1092.4</ele>
        <time>2022-05-22 19:30:22</time>
      </trkpt>
      <trkpt lat="42.6515" lon="1.09767">
        <ele>1092.6</ele>
        <time>2022-05-22 19:30:23</time>
      </trkpt>
      <trkpt lat="42.65152" lon="1.09766">
        <ele>1092.6</ele>
        <time>2022-05-22 19:30:24</time>
      </trkpt>
      <trkpt lat="42.65156" lon="1.09764">
        <ele>1092.8</ele>
        <time>2022-05-22 19:30:25</time>
      </trkpt>
      <trkpt lat="42.65158" lon="1.09763">
        <ele>1092.8</ele>
        <time>2022-05-22 19:30:26</time>
      </trkpt>
      <trkpt lat="42.65161" lon="1.09761">
        <ele>1093</ele>
        <time>2022-05-22 19:30:27</time>
      </trkpt>
      <trkpt lat="42.65163" lon="1.0976">
        <ele>1093</ele>
        <time>2022-05-22 19:30:28</time>
      </trkpt>
      <trkpt lat="42.65166" lon="1.09758">
        <ele>1093.2</ele>
        <time>2022-05-22 19:30:29</time>
      </trkpt>
      <trkpt lat="42.65169" lon="1.09756">
        <ele>1093.2</ele>
        <time>2022-05-22 19:30:30</time>
      </trkpt>
      <trkpt lat="42.65171" lon="1.09755">
        <ele>1093.4</ele>
        <time>2022-05-22 19:30:31</time>
      </trkpt>
      <trkpt lat="42.65172" lon="1.09754">
        <ele>1093.4</ele>
        <time>2022-05-22 19:30:32</time>
      </trkpt>
      <trkpt lat="42.65176" lon="1.09752">
        <ele>1093.6</ele>
        <time>2022-05-22 19:30:33</time>
      </trkpt>
      <trkpt lat="42.65179" lon="1.09751">
        <ele>1093.8</ele>
        <time>2022-05-22 19:30:34</time>
      </trkpt>
      <trkpt lat="42.65181" lon="1.09749">
        <ele>1093.8</ele>
        <time>2022-05-22 19:30:35</time>
      </trkpt>
      <trkpt lat="42.65183" lon="1.09748">
        <ele>1094</ele>
        <time>2022-05-22 19:30:36</time>
      </trkpt>
      <trkpt lat="42.65186" lon="1.09746">
        <ele>1094</ele>
        <time>2022-05-22 19:30:37</time>
      </trkpt>
      <trkpt lat="42.65189" lon="1.09744">
        <ele>1094.2</ele>
        <time>2022-05-22 19:30:38</time>
      </trkpt>
      <trkpt lat="42.65191" lon="1.09742">
        <ele>1094.2</ele>
        <time>2022-05-22 19:30:39</time>
      </trkpt>
      <trkpt lat="42.65192" lon="1.09741">
        <ele>1094.4</ele>
        <time>2022-05-22 19:30:40</time>
      </trkpt>
      <trkpt lat="42.65196" lon="1.09738">
        <ele>1094.6</ele>
        <time>2022-05-22 19:30:41</time>
      </trkpt>
      <trkpt lat="42.65198" lon="1.09736">
        <ele>1094.6</ele>
        <time>2022-05-22 19:30:42</time>
      </trkpt>
      <trkpt lat="42.652" lon="1.09735">
        <ele>1094.8</ele>
        <time>2022-05-22 19:30:43</time>
      </trkpt>
      <trkpt lat="42.65202" lon="1.09733">
        <ele>1094.8</ele>
        <time>2022-05-22 19:30:44</time>
      </trkpt>
      <trkpt lat="42.65205" lon="1.0973">
        <ele>1095</ele>
        <time>2022-05-22 19:30:45</time>
      </trkpt>
      <trkpt lat="42.65207" lon="1.09727">
        <ele>1095</ele>
        <time>2022-05-22 19:30:46</time>
      </trkpt>
      <trkpt lat="42.6521" lon="1.09724">
        <ele>1095</ele>
        <time>2022-05-22 19:30:47</time>
      </trkpt>
      <trkpt lat="42.65212" lon="1.09721">
        <ele>1095.2</ele>
        <time>2022-05-22 19:30:48</time>
      </trkpt>
      <trkpt lat="42.65214" lon="1.09718">
        <ele>1095.2</ele>
        <time>2022-05-22 19:30:49</time>
      </trkpt>
      <trkpt lat="42.65217" lon="1.09715">
        <ele>1095.4</ele>
        <time>2022-05-22 19:30:50</time>
      </trkpt>
      <trkpt lat="42.65219" lon="1.09713">
        <ele>1095.4</ele>
        <time>2022-05-22 19:30:51</time>
      </trkpt>
      <trkpt lat="42.65221" lon="1.0971">
        <ele>1095.6</ele>
        <time>2022-05-22 19:30:52</time>
      </trkpt>
      <trkpt lat="42.65223" lon="1.09707">
        <ele>1095.6</ele>
        <time>2022-05-22 19:30:53</time>
      </trkpt>
      <trkpt lat="42.65225" lon="1.09704">
        <ele>1095.8</ele>
        <time>2022-05-22 19:30:54</time>
      </trkpt>
      <trkpt lat="42.65227" lon="1.09701">
        <ele>1095.8</ele>
        <time>2022-05-22 19:30:55</time>
      </trkpt>
      <trkpt lat="42.65229" lon="1.09698">
        <ele>1096</ele>
        <time>2022-05-22 19:30:56</time>
      </trkpt>
      <trkpt lat="42.65231" lon="1.09696">
        <ele>1096</ele>
        <time>2022-05-22 19:30:57</time>
      </trkpt>
      <trkpt lat="42.65233" lon="1.09693">
        <ele>1096.2</ele>
        <time>2022-05-22 19:30:58</time>
      </trkpt>
      <trkpt lat="42.65235" lon="1.0969">
        <ele>1096.2</ele>
        <time>2022-05-22 19:30:59</time>
      </trkpt>
      <trkpt lat="42.65237" lon="1.09687">
        <ele>1096.2</ele>
        <time>2022-05-22 19:31:00</time>
      </trkpt>
      <trkpt lat="42.65239" lon="1.09684">
        <ele>1096.4</ele>
        <time>2022-05-22 19:31:01</time>
      </trkpt>
      <trkpt lat="42.65241" lon="1.0968">
        <ele>1096.4</ele>
        <time>2022-05-22 19:31:02</time>
      </trkpt>
      <trkpt lat="42.65243" lon="1.09676">
        <ele>1096.6</ele>
        <time>2022-05-22 19:31:03</time>
      </trkpt>
      <trkpt lat="42.65244" lon="1.09673">
        <ele>1096.8</ele>
        <time>2022-05-22 19:31:04</time>
      </trkpt>
      <trkpt lat="42.65245" lon="1.09669">
        <ele>1096.8</ele>
        <time>2022-05-22 19:31:05</time>
      </trkpt>
      <trkpt lat="42.65247" lon="1.09666">
        <ele>1097</ele>
        <time>2022-05-22 19:31:06</time>
      </trkpt>
      <trkpt lat="42.65248" lon="1.09662">
        <ele>1097</ele>
        <time>2022-05-22 19:31:07</time>
      </trkpt>
      <trkpt lat="42.65249" lon="1.09658">
        <ele>1097.2</ele>
        <time>2022-05-22 19:31:08</time>
      </trkpt>
      <trkpt lat="42.6525" lon="1.09655">
        <ele>1097.2</ele>
        <time>2022-05-22 19:31:09</time>
      </trkpt>
      <trkpt lat="42.65251" lon="1.09652">
        <ele>1097.4</ele>
        <time>2022-05-22 19:31:10</time>
      </trkpt>
      <trkpt lat="42.65253" lon="1.09649">
        <ele>1097.4</ele>
        <time>2022-05-22 19:31:11</time>
      </trkpt>
      <trkpt lat="42.65254" lon="1.09645">
        <ele>1097.6</ele>
        <time>2022-05-22 19:31:12</time>
      </trkpt>
      <trkpt lat="42.65255" lon="1.09642">
        <ele>1097.6</ele>
        <time>2022-05-22 19:31:13</time>
      </trkpt>
      <trkpt lat="42.65256" lon="1.09639">
        <ele>1097.6</ele>
        <time>2022-05-22 19:31:14</time>
      </trkpt>
      <trkpt lat="42.65258" lon="1.09635">
        <ele>1097.8</ele>
        <time>2022-05-22 19:31:15</time>
      </trkpt>
      <trkpt lat="42.65259" lon="1.09631">
        <ele>1097.8</ele>
        <time>2022-05-22 19:31:16</time>
      </trkpt>
      <trkpt lat="42.6526" lon="1.09628">
        <ele>1098</ele>
        <time>2022-05-22 19:31:17</time>
      </trkpt>
      <trkpt lat="42.65261" lon="1.09624">
        <ele>1098</ele>
        <time>2022-05-22 19:31:18</time>
      </trkpt>
      <trkpt lat="42.65262" lon="1.09621">
        <ele>1098</ele>
        <time>2022-05-22 19:31:19</time>
      </trkpt>
      <trkpt lat="42.65263" lon="1.09617">
        <ele>1098.2</ele>
        <time>2022-05-22 19:31:20</time>
      </trkpt>
      <trkpt lat="42.65264" lon="1.09614">
        <ele>1098.2</ele>
        <time>2022-05-22 19:31:21</time>
      </trkpt>
      <trkpt lat="42.65265" lon="1.0961">
        <ele>1098.4</ele>
        <time>2022-05-22 19:31:22</time>
      </trkpt>
      <trkpt lat="42.65266" lon="1.09607">
        <ele>1098.4</ele>
        <time>2022-05-22 19:31:23</time>
      </trkpt>
      <trkpt lat="42.65268" lon="1.09603">
        <ele>1098.6</ele>
        <time>2022-05-22 19:31:24</time>
      </trkpt>
      <trkpt lat="42.65268" lon="1.096">
        <ele>1098.8</ele>
        <time>2022-05-22 19:31:25</time>
      </trkpt>
      <trkpt lat="42.65269" lon="1.09596">
        <ele>1098.8</ele>
        <time>2022-05-22 19:31:26</time>
      </trkpt>
      <trkpt lat="42.6527" lon="1.09593">
        <ele>1099</ele>
        <time>2022-05-22 19:31:27</time>
      </trkpt>
      <trkpt lat="42.65272" lon="1.0959">
        <ele>1099.2</ele>
        <time>2022-05-22 19:31:28</time>
      </trkpt>
      <trkpt lat="42.65273" lon="1.09586">
        <ele>1099.2</ele>
        <time>2022-05-22 19:31:29</time>
      </trkpt>
      <trkpt lat="42.65274" lon="1.09583">
        <ele>1099.4</ele>
        <time>2022-05-22 19:31:30</time>
      </trkpt>
      <trkpt lat="42.65276" lon="1.0958">
        <ele>1099.6</ele>
        <time>2022-05-22 19:31:31</time>
      </trkpt>
      <trkpt lat="42.65277" lon="1.09577">
        <ele>1099.8</ele>
        <time>2022-05-22 19:31:32</time>
      </trkpt>
      <trkpt lat="42.65279" lon="1.09574">
        <ele>1100</ele>
        <time>2022-05-22 19:31:33</time>
      </trkpt>
      <trkpt lat="42.6528" lon="1.09571">
        <ele>1100</ele>
        <time>2022-05-22 19:31:34</time>
      </trkpt>
      <trkpt lat="42.65281" lon="1.09568">
        <ele>1100.4</ele>
        <time>2022-05-22 19:31:35</time>
      </trkpt>
      <trkpt lat="42.65282" lon="1.09565">
        <ele>1100.4</ele>
        <time>2022-05-22 19:31:36</time>
      </trkpt>
      <trkpt lat="42.65282" lon="1.09562">
        <ele>1100.8</ele>
        <time>2022-05-22 19:31:37</time>
      </trkpt>
      <trkpt lat="42.65283" lon="1.09559">
        <ele>1101</ele>
        <time>2022-05-22 19:31:38</time>
      </trkpt>
      <trkpt lat="42.65284" lon="1.09556">
        <ele>1101.2</ele>
        <time>2022-05-22 19:31:39</time>
      </trkpt>
      <trkpt lat="42.65285" lon="1.09553">
        <ele>1101.4</ele>
        <time>2022-05-22 19:31:40</time>
      </trkpt>
      <trkpt lat="42.65286" lon="1.0955">
        <ele>1101.6</ele>
        <time>2022-05-22 19:31:41</time>
      </trkpt>
      <trkpt lat="42.65287" lon="1.09547">
        <ele>1101.8</ele>
        <time>2022-05-22 19:31:42</time>
      </trkpt>
      <trkpt lat="42.65288" lon="1.09544">
        <ele>1101.8</ele>
        <time>2022-05-22 19:31:43</time>
      </trkpt>
      <trkpt lat="42.65289" lon="1.09542">
        <ele>1102</ele>
        <time>2022-05-22 19:31:44</time>
      </trkpt>
      <trkpt lat="42.6529" lon="1.09539">
        <ele>1102.2</ele>
        <time>2022-05-22 19:31:45</time>
      </trkpt>
      <trkpt lat="42.65292" lon="1.09535">
        <ele>1102.4</ele>
        <time>2022-05-22 19:31:46</time>
      </trkpt>
      <trkpt lat="42.65292" lon="1.09532">
        <ele>1102.6</ele>
        <time>2022-05-22 19:31:47</time>
      </trkpt>
      <trkpt lat="42.65292" lon="1.09528">
        <ele>1102.8</ele>
        <time>2022-05-22 19:31:48</time>
      </trkpt>
      <trkpt lat="42.65293" lon="1.09524">
        <ele>1102.8</ele>
        <time>2022-05-22 19:31:49</time>
      </trkpt>
      <trkpt lat="42.65293" lon="1.09521">
        <ele>1103</ele>
        <time>2022-05-22 19:31:50</time>
      </trkpt>
      <trkpt lat="42.65293" lon="1.09517">
        <ele>1103.2</ele>
        <time>2022-05-22 19:31:51</time>
      </trkpt>
      <trkpt lat="42.65294" lon="1.09514">
        <ele>1103.4</ele>
        <time>2022-05-22 19:31:52</time>
      </trkpt>
      <trkpt lat="42.65294" lon="1.09511">
        <ele>1103.4</ele>
        <time>2022-05-22 19:31:53</time>
      </trkpt>
      <trkpt lat="42.65294" lon="1.09507">
        <ele>1103.6</ele>
        <time>2022-05-22 19:31:54</time>
      </trkpt>
      <trkpt lat="42.65294" lon="1.09504">
        <ele>1103.8</ele>
        <time>2022-05-22 19:31:55</time>
      </trkpt>
      <trkpt lat="42.65294" lon="1.09501">
        <ele>1104</ele>
        <time>2022-05-22 19:31:56</time>
      </trkpt>
      <trkpt lat="42.65295" lon="1.09498">
        <ele>1104</ele>
        <time>2022-05-22 19:31:57</time>
      </trkpt>
      <trkpt lat="42.65296" lon="1.09495">
        <ele>1104.2</ele>
        <time>2022-05-22 19:31:58</time>
      </trkpt>
      <trkpt lat="42.65297" lon="1.09492">
        <ele>1104.4</ele>
        <time>2022-05-22 19:31:59</time>
      </trkpt>
      <trkpt lat="42.65297" lon="1.09488">
        <ele>1104.6</ele>
        <time>2022-05-22 19:32:00</time>
      </trkpt>
      <trkpt lat="42.65297" lon="1.09485">
        <ele>1104.8</ele>
        <time>2022-05-22 19:32:01</time>
      </trkpt>
      <trkpt lat="42.65297" lon="1.09482">
        <ele>1104.8</ele>
        <time>2022-05-22 19:32:02</time>
      </trkpt>
      <trkpt lat="42.65297" lon="1.09479">
        <ele>1105</ele>
        <time>2022-05-22 19:32:03</time>
      </trkpt>
      <trkpt lat="42.65297" lon="1.09476">
        <ele>1105.2</ele>
        <time>2022-05-22 19:32:04</time>
      </trkpt>
      <trkpt lat="42.65298" lon="1.09472">
        <ele>1105.4</ele>
        <time>2022-05-22 19:32:05</time>
      </trkpt>
      <trkpt lat="42.65298" lon="1.09469">
        <ele>1105.6</ele>
        <time>2022-05-22 19:32:06</time>
      </trkpt>
      <trkpt lat="42.65298" lon="1.09466">
        <ele>1105.6</ele>
        <time>2022-05-22 19:32:07</time>
      </trkpt>
      <trkpt lat="42.65298" lon="1.09463">
        <ele>1105.8</ele>
        <time>2022-05-22 19:32:08</time>
      </trkpt>
      <trkpt lat="42.65299" lon="1.0946">
        <ele>1106</ele>
        <time>2022-05-22 19:32:09</time>
      </trkpt>
      <trkpt lat="42.65299" lon="1.09457">
        <ele>1106.2</ele>
        <time>2022-05-22 19:32:10</time>
      </trkpt>
      <trkpt lat="42.65299" lon="1.09454">
        <ele>1106.2</ele>
        <time>2022-05-22 19:32:11</time>
      </trkpt>
      <trkpt lat="42.653" lon="1.09451">
        <ele>1106.4</ele>
        <time>2022-05-22 19:32:12</time>
      </trkpt>
      <trkpt lat="42.653" lon="1.09447">
        <ele>1106.6</ele>
        <time>2022-05-22 19:32:13</time>
      </trkpt>
      <trkpt lat="42.653" lon="1.09444">
        <ele>1106.8</ele>
        <time>2022-05-22 19:32:14</time>
      </trkpt>
      <trkpt lat="42.65301" lon="1.09441">
        <ele>1107</ele>
        <time>2022-05-22 19:32:15</time>
      </trkpt>
      <trkpt lat="42.65301" lon="1.09437">
        <ele>1107</ele>
        <time>2022-05-22 19:32:16</time>
      </trkpt>
      <trkpt lat="42.65301" lon="1.09434">
        <ele>1107.2</ele>
        <time>2022-05-22 19:32:17</time>
      </trkpt>
      <trkpt lat="42.65302" lon="1.0943">
        <ele>1107.4</ele>
        <time>2022-05-22 19:32:18</time>
      </trkpt>
      <trkpt lat="42.65302" lon="1.09427">
        <ele>1107.4</ele>
        <time>2022-05-22 19:32:19</time>
      </trkpt>
      <trkpt lat="42.65303" lon="1.09424">
        <ele>1107.6</ele>
        <time>2022-05-22 19:32:20</time>
      </trkpt>
      <trkpt lat="42.65303" lon="1.09419">
        <ele>1107.8</ele>
        <time>2022-05-22 19:32:21</time>
      </trkpt>
      <trkpt lat="42.65304" lon="1.09415">
        <ele>1108</ele>
        <time>2022-05-22 19:32:22</time>
      </trkpt>
      <trkpt lat="42.65304" lon="1.09412">
        <ele>1108.2</ele>
        <time>2022-05-22 19:32:23</time>
      </trkpt>
      <trkpt lat="42.65305" lon="1.09408">
        <ele>1108.2</ele>
        <time>2022-05-22 19:32:24</time>
      </trkpt>
      <trkpt lat="42.65305" lon="1.09405">
        <ele>1108.4</ele>
        <time>2022-05-22 19:32:25</time>
      </trkpt>
      <trkpt lat="42.65306" lon="1.09402">
        <ele>1108.6</ele>
        <time>2022-05-22 19:32:26</time>
      </trkpt>
      <trkpt lat="42.65307" lon="1.09398">
        <ele>1108.8</ele>
        <time>2022-05-22 19:32:27</time>
      </trkpt>
      <trkpt lat="42.65308" lon="1.09395">
        <ele>1108.8</ele>
        <time>2022-05-22 19:32:28</time>
      </trkpt>
      <trkpt lat="42.65309" lon="1.09393">
        <ele>1109</ele>
        <time>2022-05-22 19:32:29</time>
      </trkpt>
      <trkpt lat="42.6531" lon="1.0939">
        <ele>1109.2</ele>
        <time>2022-05-22 19:32:30</time>
      </trkpt>
      <trkpt lat="42.65312" lon="1.09387">
        <ele>1109.4</ele>
        <time>2022-05-22 19:32:31</time>
      </trkpt>
      <trkpt lat="42.65313" lon="1.09384">
        <ele>1109.4</ele>
        <time>2022-05-22 19:32:32</time>
      </trkpt>
      <trkpt lat="42.65314" lon="1.09381">
        <ele>1109.6</ele>
        <time>2022-05-22 19:32:33</time>
      </trkpt>
      <trkpt lat="42.65315" lon="1.09378">
        <ele>1109.6</ele>
        <time>2022-05-22 19:32:34</time>
      </trkpt>
      <trkpt lat="42.65317" lon="1.09375">
        <ele>1109.8</ele>
        <time>2022-05-22 19:32:35</time>
      </trkpt>
      <trkpt lat="42.65318" lon="1.09372">
        <ele>1109.8</ele>
        <time>2022-05-22 19:32:36</time>
      </trkpt>
      <trkpt lat="42.65319" lon="1.09368">
        <ele>1110</ele>
        <time>2022-05-22 19:32:37</time>
      </trkpt>
      <trkpt lat="42.6532" lon="1.09365">
        <ele>1110</ele>
        <time>2022-05-22 19:32:38</time>
      </trkpt>
      <trkpt lat="42.65322" lon="1.09361">
        <ele>1110.2</ele>
        <time>2022-05-22 19:32:39</time>
      </trkpt>
      <trkpt lat="42.65323" lon="1.09358">
        <ele>1110.2</ele>
        <time>2022-05-22 19:32:40</time>
      </trkpt>
      <trkpt lat="42.65324" lon="1.09354">
        <ele>1110.2</ele>
        <time>2022-05-22 19:32:41</time>
      </trkpt>
      <trkpt lat="42.65325" lon="1.0935">
        <ele>1110.4</ele>
        <time>2022-05-22 19:32:42</time>
      </trkpt>
      <trkpt lat="42.65327" lon="1.09346">
        <ele>1110.4</ele>
        <time>2022-05-22 19:32:43</time>
      </trkpt>
      <trkpt lat="42.65328" lon="1.09342">
        <ele>1110.4</ele>
        <time>2022-05-22 19:32:44</time>
      </trkpt>
      <trkpt lat="42.6533" lon="1.09338">
        <ele>1110.4</ele>
        <time>2022-05-22 19:32:45</time>
      </trkpt>
      <trkpt lat="42.65331" lon="1.09334">
        <ele>1110.4</ele>
        <time>2022-05-22 19:32:46</time>
      </trkpt>
      <trkpt lat="42.65332" lon="1.09331">
        <ele>1110.4</ele>
        <time>2022-05-22 19:32:47</time>
      </trkpt>
      <trkpt lat="42.65334" lon="1.09327">
        <ele>1110.4</ele>
        <time>2022-05-22 19:32:48</time>
      </trkpt>
      <trkpt lat="42.65336" lon="1.09323">
        <ele>1110.4</ele>
        <time>2022-05-22 19:32:49</time>
      </trkpt>
      <trkpt lat="42.65337" lon="1.09318">
        <ele>1110.4</ele>
        <time>2022-05-22 19:32:50</time>
      </trkpt>
      <trkpt lat="42.65339" lon="1.09313">
        <ele>1110.4</ele>
        <time>2022-05-22 19:32:51</time>
      </trkpt>
      <trkpt lat="42.6534" lon="1.09308">
        <ele>1110.2</ele>
        <time>2022-05-22 19:32:52</time>
      </trkpt>
      <trkpt lat="42.65342" lon="1.09303">
        <ele>1110.2</ele>
        <time>2022-05-22 19:32:53</time>
      </trkpt>
      <trkpt lat="42.65344" lon="1.09298">
        <ele>1110</ele>
        <time>2022-05-22 19:32:54</time>
      </trkpt>
      <trkpt lat="42.65347" lon="1.09293">
        <ele>1109.8</ele>
        <time>2022-05-22 19:32:55</time>
      </trkpt>
      <trkpt lat="42.6535" lon="1.09287">
        <ele>1109.8</ele>
        <time>2022-05-22 19:32:56</time>
      </trkpt>
      <trkpt lat="42.65353" lon="1.0928">
        <ele>1109.4</ele>
        <time>2022-05-22 19:32:57</time>
      </trkpt>
      <trkpt lat="42.65355" lon="1.09273">
        <ele>1109</ele>
        <time>2022-05-22 19:32:58</time>
      </trkpt>
      <trkpt lat="42.65358" lon="1.09265">
        <ele>1108.8</ele>
        <time>2022-05-22 19:32:59</time>
      </trkpt>
      <trkpt lat="42.6536" lon="1.09257">
        <ele>1108.4</ele>
        <time>2022-05-22 19:33:00</time>
      </trkpt>
      <trkpt lat="42.65362" lon="1.09248">
        <ele>1108.2</ele>
        <time>2022-05-22 19:33:01</time>
      </trkpt>
      <trkpt lat="42.65363" lon="1.09239">
        <ele>1108</ele>
        <time>2022-05-22 19:33:02</time>
      </trkpt>
      <trkpt lat="42.65364" lon="1.0923">
        <ele>1107.6</ele>
        <time>2022-05-22 19:33:03</time>
      </trkpt>
      <trkpt lat="42.65365" lon="1.09221">
        <ele>1107.6</ele>
        <time>2022-05-22 19:33:04</time>
      </trkpt>
      <trkpt lat="42.65366" lon="1.09212">
        <ele>1107.4</ele>
        <time>2022-05-22 19:33:05</time>
      </trkpt>
      <trkpt lat="42.65366" lon="1.09203">
        <ele>1107.4</ele>
        <time>2022-05-22 19:33:06</time>
      </trkpt>
      <trkpt lat="42.65367" lon="1.09194">
        <ele>1107.2</ele>
        <time>2022-05-22 19:33:07</time>
      </trkpt>
      <trkpt lat="42.65367" lon="1.09186">
        <ele>1107.2</ele>
        <time>2022-05-22 19:33:08</time>
      </trkpt>
      <trkpt lat="42.65368" lon="1.09178">
        <ele>1107.2</ele>
        <time>2022-05-22 19:33:09</time>
      </trkpt>
      <trkpt lat="42.65369" lon="1.09171">
        <ele>1107.2</ele>
        <time>2022-05-22 19:33:10</time>
      </trkpt>
      <trkpt lat="42.65369" lon="1.09163">
        <ele>1107.2</ele>
        <time>2022-05-22 19:33:11</time>
      </trkpt>
      <trkpt lat="42.65369" lon="1.09155">
        <ele>1107.2</ele>
        <time>2022-05-22 19:33:12</time>
      </trkpt>
      <trkpt lat="42.65368" lon="1.09148">
        <ele>1107.2</ele>
        <time>2022-05-22 19:33:13</time>
      </trkpt>
      <trkpt lat="42.65368" lon="1.0914">
        <ele>1107.4</ele>
        <time>2022-05-22 19:33:14</time>
      </trkpt>
      <trkpt lat="42.65368" lon="1.09133">
        <ele>1107.4</ele>
        <time>2022-05-22 19:33:15</time>
      </trkpt>
      <trkpt lat="42.65368" lon="1.09126">
        <ele>1107.4</ele>
        <time>2022-05-22 19:33:16</time>
      </trkpt>
      <trkpt lat="42.65368" lon="1.09118">
        <ele>1107.4</ele>
        <time>2022-05-22 19:33:17</time>
      </trkpt>
      <trkpt lat="42.65368" lon="1.09111">
        <ele>1107.4</ele>
        <time>2022-05-22 19:33:18</time>
      </trkpt>
      <trkpt lat="42.65369" lon="1.09104">
        <ele>1107.2</ele>
        <time>2022-05-22 19:33:19</time>
      </trkpt>
      <trkpt lat="42.65369" lon="1.09096">
        <ele>1107</ele>
        <time>2022-05-22 19:33:20</time>
      </trkpt>
      <trkpt lat="42.65368" lon="1.09088">
        <ele>1106.8</ele>
        <time>2022-05-22 19:33:21</time>
      </trkpt>
      <trkpt lat="42.65368" lon="1.09079">
        <ele>1106.6</ele>
        <time>2022-05-22 19:33:22</time>
      </trkpt>
      <trkpt lat="42.65368" lon="1.0907">
        <ele>1106.2</ele>
        <time>2022-05-22 19:33:23</time>
      </trkpt>
      <trkpt lat="42.65367" lon="1.09061">
        <ele>1105.6</ele>
        <time>2022-05-22 19:33:24</time>
      </trkpt>
      <trkpt lat="42.65367" lon="1.09051">
        <ele>1105.2</ele>
        <time>2022-05-22 19:33:25</time>
      </trkpt>
      <trkpt lat="42.65367" lon="1.09041">
        <ele>1104.6</ele>
        <time>2022-05-22 19:33:26</time>
      </trkpt>
      <trkpt lat="42.65368" lon="1.0903">
        <ele>1104.2</ele>
        <time>2022-05-22 19:33:27</time>
      </trkpt>
      <trkpt lat="42.65371" lon="1.09019">
        <ele>1103.8</ele>
        <time>2022-05-22 19:33:28</time>
      </trkpt>
      <trkpt lat="42.65374" lon="1.09008">
        <ele>1103.6</ele>
        <time>2022-05-22 19:33:29</time>
      </trkpt>
      <trkpt lat="42.65377" lon="1.08997">
        <ele>1103.2</ele>
        <time>2022-05-22 19:33:30</time>
      </trkpt>
      <trkpt lat="42.65381" lon="1.08987">
        <ele>1102.8</ele>
        <time>2022-05-22 19:33:31</time>
      </trkpt>
      <trkpt lat="42.65387" lon="1.08978">
        <ele>1102.8</ele>
        <time>2022-05-22 19:33:32</time>
      </trkpt>
      <trkpt lat="42.65392" lon="1.08969">
        <ele>1102.6</ele>
        <time>2022-05-22 19:33:33</time>
      </trkpt>
      <trkpt lat="42.65397" lon="1.08961">
        <ele>1102.8</ele>
        <time>2022-05-22 19:33:34</time>
      </trkpt>
      <trkpt lat="42.65401" lon="1.08954">
        <ele>1102.8</ele>
        <time>2022-05-22 19:33:35</time>
      </trkpt>
      <trkpt lat="42.65406" lon="1.08948">
        <ele>1103</ele>
        <time>2022-05-22 19:33:36</time>
      </trkpt>
      <trkpt lat="42.6541" lon="1.08943">
        <ele>1103.2</ele>
        <time>2022-05-22 19:33:37</time>
      </trkpt>
      <trkpt lat="42.65414" lon="1.08938">
        <ele>1103.4</ele>
        <time>2022-05-22 19:33:38</time>
      </trkpt>
      <trkpt lat="42.65418" lon="1.08934">
        <ele>1103.6</ele>
        <time>2022-05-22 19:33:39</time>
      </trkpt>
      <trkpt lat="42.65423" lon="1.08931">
        <ele>1103.8</ele>
        <time>2022-05-22 19:33:40</time>
      </trkpt>
      <trkpt lat="42.65428" lon="1.08929">
        <ele>1104</ele>
        <time>2022-05-22 19:33:41</time>
      </trkpt>
      <trkpt lat="42.65433" lon="1.08928">
        <ele>1104.2</ele>
        <time>2022-05-22 19:33:42</time>
      </trkpt>
      <trkpt lat="42.65438" lon="1.08928">
        <ele>1104.2</ele>
        <time>2022-05-22 19:33:43</time>
      </trkpt>
      <trkpt lat="42.65442" lon="1.08928">
        <ele>1104.4</ele>
        <time>2022-05-22 19:33:44</time>
      </trkpt>
      <trkpt lat="42.65447" lon="1.08927">
        <ele>1104.4</ele>
        <time>2022-05-22 19:33:45</time>
      </trkpt>
      <trkpt lat="42.65452" lon="1.08927">
        <ele>1104.4</ele>
        <time>2022-05-22 19:33:46</time>
      </trkpt>
      <trkpt lat="42.65457" lon="1.08927">
        <ele>1104.6</ele>
        <time>2022-05-22 19:33:47</time>
      </trkpt>
      <trkpt lat="42.65462" lon="1.08927">
        <ele>1104.6</ele>
        <time>2022-05-22 19:33:48</time>
      </trkpt>
      <trkpt lat="42.65467" lon="1.08926">
        <ele>1104.6</ele>
        <time>2022-05-22 19:33:49</time>
      </trkpt>
      <trkpt lat="42.65471" lon="1.08926">
        <ele>1104.6</ele>
        <time>2022-05-22 19:33:50</time>
      </trkpt>
      <trkpt lat="42.65476" lon="1.08926">
        <ele>1104.6</ele>
        <time>2022-05-22 19:33:51</time>
      </trkpt>
      <trkpt lat="42.65481" lon="1.08926">
        <ele>1104.8</ele>
        <time>2022-05-22 19:33:52</time>
      </trkpt>
      <trkpt lat="42.65485" lon="1.08926">
        <ele>1104.8</ele>
        <time>2022-05-22 19:33:53</time>
      </trkpt>
      <trkpt lat="42.6549" lon="1.08926">
        <ele>1105</ele>
        <time>2022-05-22 19:33:54</time>
      </trkpt>
      <trkpt lat="42.65494" lon="1.08926">
        <ele>1105</ele>
        <time>2022-05-22 19:33:55</time>
      </trkpt>
      <trkpt lat="42.65499" lon="1.08925">
        <ele>1105.2</ele>
        <time>2022-05-22 19:33:56</time>
      </trkpt>
      <trkpt lat="42.65503" lon="1.08924">
        <ele>1105.2</ele>
        <time>2022-05-22 19:33:57</time>
      </trkpt>
      <trkpt lat="42.65507" lon="1.08923">
        <ele>1105.2</ele>
        <time>2022-05-22 19:33:58</time>
      </trkpt>
      <trkpt lat="42.65511" lon="1.08922">
        <ele>1105.4</ele>
        <time>2022-05-22 19:33:59</time>
      </trkpt>
      <trkpt lat="42.65515" lon="1.0892">
        <ele>1105.4</ele>
        <time>2022-05-22 19:34:00</time>
      </trkpt>
      <trkpt lat="42.65519" lon="1.08918">
        <ele>1105.4</ele>
        <time>2022-05-22 19:34:01</time>
      </trkpt>
      <trkpt lat="42.65523" lon="1.08915">
        <ele>1105.6</ele>
        <time>2022-05-22 19:34:02</time>
      </trkpt>
      <trkpt lat="42.65526" lon="1.08913">
        <ele>1105.6</ele>
        <time>2022-05-22 19:34:03</time>
      </trkpt>
      <trkpt lat="42.6553" lon="1.08911">
        <ele>1105.8</ele>
        <time>2022-05-22 19:34:04</time>
      </trkpt>
      <trkpt lat="42.65534" lon="1.08909">
        <ele>1105.8</ele>
        <time>2022-05-22 19:34:05</time>
      </trkpt>
      <trkpt lat="42.65538" lon="1.08906">
        <ele>1105.8</ele>
        <time>2022-05-22 19:34:06</time>
      </trkpt>
      <trkpt lat="42.65542" lon="1.08904">
        <ele>1105.8</ele>
        <time>2022-05-22 19:34:07</time>
      </trkpt>
      <trkpt lat="42.65545" lon="1.08901">
        <ele>1106</ele>
        <time>2022-05-22 19:34:08</time>
      </trkpt>
      <trkpt lat="42.65549" lon="1.08899">
        <ele>1106</ele>
        <time>2022-05-22 19:34:09</time>
      </trkpt>
      <trkpt lat="42.65553" lon="1.08896">
        <ele>1106</ele>
        <time>2022-05-22 19:34:10</time>
      </trkpt>
      <trkpt lat="42.65557" lon="1.08893">
        <ele>1106</ele>
        <time>2022-05-22 19:34:11</time>
      </trkpt>
      <trkpt lat="42.65562" lon="1.08891">
        <ele>1106</ele>
        <time>2022-05-22 19:34:12</time>
      </trkpt>
      <trkpt lat="42.65565" lon="1.08887">
        <ele>1106</ele>
        <time>2022-05-22 19:34:13</time>
      </trkpt>
      <trkpt lat="42.65569" lon="1.08884">
        <ele>1106</ele>
        <time>2022-05-22 19:34:14</time>
      </trkpt>
      <trkpt lat="42.65573" lon="1.08882">
        <ele>1106</ele>
        <time>2022-05-22 19:34:15</time>
      </trkpt>
      <trkpt lat="42.65577" lon="1.08879">
        <ele>1106</ele>
        <time>2022-05-22 19:34:16</time>
      </trkpt>
      <trkpt lat="42.65582" lon="1.08877">
        <ele>1106.2</ele>
        <time>2022-05-22 19:34:17</time>
      </trkpt>
      <trkpt lat="42.65586" lon="1.08875">
        <ele>1106.2</ele>
        <time>2022-05-22 19:34:18</time>
      </trkpt>
      <trkpt lat="42.6559" lon="1.08872">
        <ele>1106.2</ele>
        <time>2022-05-22 19:34:19</time>
      </trkpt>
      <trkpt lat="42.65594" lon="1.0887">
        <ele>1106.2</ele>
        <time>2022-05-22 19:34:20</time>
      </trkpt>
      <trkpt lat="42.65598" lon="1.08866">
        <ele>1106.4</ele>
        <time>2022-05-22 19:34:21</time>
      </trkpt>
      <trkpt lat="42.65601" lon="1.08863">
        <ele>1106.4</ele>
        <time>2022-05-22 19:34:22</time>
      </trkpt>
      <trkpt lat="42.65604" lon="1.08859">
        <ele>1106.4</ele>
        <time>2022-05-22 19:34:23</time>
      </trkpt>
      <trkpt lat="42.65607" lon="1.08856">
        <ele>1106.6</ele>
        <time>2022-05-22 19:34:24</time>
      </trkpt>
      <trkpt lat="42.6561" lon="1.08852">
        <ele>1106.6</ele>
        <time>2022-05-22 19:34:25</time>
      </trkpt>
      <trkpt lat="42.65613" lon="1.08849">
        <ele>1106.6</ele>
        <time>2022-05-22 19:34:26</time>
      </trkpt>
      <trkpt lat="42.65616" lon="1.08845">
        <ele>1106.8</ele>
        <time>2022-05-22 19:34:27</time>
      </trkpt>
      <trkpt lat="42.6562" lon="1.08841">
        <ele>1106.8</ele>
        <time>2022-05-22 19:34:28</time>
      </trkpt>
      <trkpt lat="42.65622" lon="1.08837">
        <ele>1106.8</ele>
        <time>2022-05-22 19:34:29</time>
      </trkpt>
      <trkpt lat="42.65625" lon="1.08833">
        <ele>1106.8</ele>
        <time>2022-05-22 19:34:30</time>
      </trkpt>
      <trkpt lat="42.65628" lon="1.08829">
        <ele>1107</ele>
        <time>2022-05-22 19:34:31</time>
      </trkpt>
      <trkpt lat="42.65631" lon="1.08825">
        <ele>1107</ele>
        <time>2022-05-22 19:34:32</time>
      </trkpt>
      <trkpt lat="42.65634" lon="1.08821">
        <ele>1107</ele>
        <time>2022-05-22 19:34:33</time>
      </trkpt>
      <trkpt lat="42.65637" lon="1.08817">
        <ele>1107.2</ele>
        <time>2022-05-22 19:34:34</time>
      </trkpt>
      <trkpt lat="42.6564" lon="1.08813">
        <ele>1107.2</ele>
        <time>2022-05-22 19:34:35</time>
      </trkpt>
      <trkpt lat="42.65643" lon="1.08809">
        <ele>1107.2</ele>
        <time>2022-05-22 19:34:36</time>
      </trkpt>
      <trkpt lat="42.65646" lon="1.08805">
        <ele>1107.2</ele>
        <time>2022-05-22 19:34:37</time>
      </trkpt>
      <trkpt lat="42.65648" lon="1.088">
        <ele>1107.4</ele>
        <time>2022-05-22 19:34:38</time>
      </trkpt>
      <trkpt lat="42.65651" lon="1.08796">
        <ele>1107.4</ele>
        <time>2022-05-22 19:34:39</time>
      </trkpt>
      <trkpt lat="42.65654" lon="1.08792">
        <ele>1107.4</ele>
        <time>2022-05-22 19:34:40</time>
      </trkpt>
      <trkpt lat="42.65657" lon="1.08788">
        <ele>1107.4</ele>
        <time>2022-05-22 19:34:41</time>
      </trkpt>
      <trkpt lat="42.65659" lon="1.08784">
        <ele>1107.4</ele>
        <time>2022-05-22 19:34:42</time>
      </trkpt>
      <trkpt lat="42.65662" lon="1.0878">
        <ele>1107.6</ele>
        <time>2022-05-22 19:34:43</time>
      </trkpt>
      <trkpt lat="42.65665" lon="1.08776">
        <ele>1107.6</ele>
        <time>2022-05-22 19:34:44</time>
      </trkpt>
      <trkpt lat="42.65668" lon="1.08772">
        <ele>1107.6</ele>
        <time>2022-05-22 19:34:45</time>
      </trkpt>
      <trkpt lat="42.65671" lon="1.08768">
        <ele>1107.6</ele>
        <time>2022-05-22 19:34:46</time>
      </trkpt>
      <trkpt lat="42.65674" lon="1.08764">
        <ele>1107.8</ele>
        <time>2022-05-22 19:34:47</time>
      </trkpt>
      <trkpt lat="42.65677" lon="1.08761">
        <ele>1107.8</ele>
        <time>2022-05-22 19:34:48</time>
      </trkpt>
      <trkpt lat="42.6568" lon="1.08758">
        <ele>1107.8</ele>
        <time>2022-05-22 19:34:49</time>
      </trkpt>
      <trkpt lat="42.65683" lon="1.08755">
        <ele>1108</ele>
        <time>2022-05-22 19:34:50</time>
      </trkpt>
      <trkpt lat="42.65686" lon="1.08752">
        <ele>1108</ele>
        <time>2022-05-22 19:34:51</time>
      </trkpt>
      <trkpt lat="42.6569" lon="1.0875">
        <ele>1108</ele>
        <time>2022-05-22 19:34:52</time>
      </trkpt>
      <trkpt lat="42.65693" lon="1.08748">
        <ele>1108.2</ele>
        <time>2022-05-22 19:34:53</time>
      </trkpt>
      <trkpt lat="42.65696" lon="1.08746">
        <ele>1108.2</ele>
        <time>2022-05-22 19:34:54</time>
      </trkpt>
      <trkpt lat="42.657" lon="1.08744">
        <ele>1108.2</ele>
        <time>2022-05-22 19:34:55</time>
      </trkpt>
      <trkpt lat="42.65703" lon="1.08743">
        <ele>1108.4</ele>
        <time>2022-05-22 19:34:56</time>
      </trkpt>
      <trkpt lat="42.65707" lon="1.08742">
        <ele>1108.4</ele>
        <time>2022-05-22 19:34:57</time>
      </trkpt>
      <trkpt lat="42.65711" lon="1.08741">
        <ele>1108.4</ele>
        <time>2022-05-22 19:34:58</time>
      </trkpt>
      <trkpt lat="42.65715" lon="1.08741">
        <ele>1108.6</ele>
        <time>2022-05-22 19:34:59</time>
      </trkpt>
      <trkpt lat="42.65719" lon="1.08741">
        <ele>1108.6</ele>
        <time>2022-05-22 19:35:00</time>
      </trkpt>
      <trkpt lat="42.65722" lon="1.08741">
        <ele>1108.6</ele>
        <time>2022-05-22 19:35:01</time>
      </trkpt>
      <trkpt lat="42.65726" lon="1.0874">
        <ele>1108.6</ele>
        <time>2022-05-22 19:35:02</time>
      </trkpt>
      <trkpt lat="42.6573" lon="1.0874">
        <ele>1108.8</ele>
        <time>2022-05-22 19:35:03</time>
      </trkpt>
      <trkpt lat="42.65735" lon="1.0874">
        <ele>1108.8</ele>
        <time>2022-05-22 19:35:04</time>
      </trkpt>
      <trkpt lat="42.65739" lon="1.08739">
        <ele>1108.8</ele>
        <time>2022-05-22 19:35:05</time>
      </trkpt>
      <trkpt lat="42.65743" lon="1.08738">
        <ele>1108.8</ele>
        <time>2022-05-22 19:35:06</time>
      </trkpt>
      <trkpt lat="42.65747" lon="1.08737">
        <ele>1108.8</ele>
        <time>2022-05-22 19:35:07</time>
      </trkpt>
      <trkpt lat="42.65751" lon="1.08736">
        <ele>1108.8</ele>
        <time>2022-05-22 19:35:08</time>
      </trkpt>
      <trkpt lat="42.65754" lon="1.08735">
        <ele>1109</ele>
        <time>2022-05-22 19:35:09</time>
      </trkpt>
      <trkpt lat="42.65759" lon="1.08734">
        <ele>1109</ele>
        <time>2022-05-22 19:35:10</time>
      </trkpt>
      <trkpt lat="42.65763" lon="1.08733">
        <ele>1109</ele>
        <time>2022-05-22 19:35:11</time>
      </trkpt>
      <trkpt lat="42.65768" lon="1.08732">
        <ele>1109</ele>
        <time>2022-05-22 19:35:12</time>
      </trkpt>
      <trkpt lat="42.65772" lon="1.08731">
        <ele>1108.8</ele>
        <time>2022-05-22 19:35:13</time>
      </trkpt>
      <trkpt lat="42.65776" lon="1.0873">
        <ele>1108.8</ele>
        <time>2022-05-22 19:35:14</time>
      </trkpt>
      <trkpt lat="42.65781" lon="1.08729">
        <ele>1108.8</ele>
        <time>2022-05-22 19:35:15</time>
      </trkpt>
      <trkpt lat="42.65785" lon="1.08728">
        <ele>1108.8</ele>
        <time>2022-05-22 19:35:16</time>
      </trkpt>
      <trkpt lat="42.65789" lon="1.08726">
        <ele>1108.8</ele>
        <time>2022-05-22 19:35:17</time>
      </trkpt>
      <trkpt lat="42.65794" lon="1.08724">
        <ele>1108.8</ele>
        <time>2022-05-22 19:35:18</time>
      </trkpt>
      <trkpt lat="42.65798" lon="1.08723">
        <ele>1108.8</ele>
        <time>2022-05-22 19:35:19</time>
      </trkpt>
      <trkpt lat="42.65802" lon="1.0872">
        <ele>1108.8</ele>
        <time>2022-05-22 19:35:20</time>
      </trkpt>
      <trkpt lat="42.65806" lon="1.08718">
        <ele>1108.8</ele>
        <time>2022-05-22 19:35:21</time>
      </trkpt>
      <trkpt lat="42.6581" lon="1.08716">
        <ele>1108.6</ele>
        <time>2022-05-22 19:35:22</time>
      </trkpt>
      <trkpt lat="42.65814" lon="1.08713">
        <ele>1108.6</ele>
        <time>2022-05-22 19:35:23</time>
      </trkpt>
      <trkpt lat="42.65817" lon="1.0871">
        <ele>1108.6</ele>
        <time>2022-05-22 19:35:24</time>
      </trkpt>
      <trkpt lat="42.65821" lon="1.08707">
        <ele>1108.6</ele>
        <time>2022-05-22 19:35:25</time>
      </trkpt>
      <trkpt lat="42.65825" lon="1.08704">
        <ele>1108.6</ele>
        <time>2022-05-22 19:35:26</time>
      </trkpt>
      <trkpt lat="42.65829" lon="1.08701">
        <ele>1108.6</ele>
        <time>2022-05-22 19:35:27</time>
      </trkpt>
      <trkpt lat="42.65832" lon="1.08698">
        <ele>1108.6</ele>
        <time>2022-05-22 19:35:28</time>
      </trkpt>
      <trkpt lat="42.65836" lon="1.08694">
        <ele>1108.6</ele>
        <time>2022-05-22 19:35:29</time>
      </trkpt>
      <trkpt lat="42.6584" lon="1.08691">
        <ele>1108.6</ele>
        <time>2022-05-22 19:35:30</time>
      </trkpt>
      <trkpt lat="42.65843" lon="1.08688">
        <ele>1108.6</ele>
        <time>2022-05-22 19:35:31</time>
      </trkpt>
      <trkpt lat="42.65846" lon="1.08684">
        <ele>1108.6</ele>
        <time>2022-05-22 19:35:32</time>
      </trkpt>
      <trkpt lat="42.6585" lon="1.0868">
        <ele>1108.6</ele>
        <time>2022-05-22 19:35:33</time>
      </trkpt>
      <trkpt lat="42.65853" lon="1.08676">
        <ele>1108.6</ele>
        <time>2022-05-22 19:35:34</time>
      </trkpt>
      <trkpt lat="42.65856" lon="1.08672">
        <ele>1108.6</ele>
        <time>2022-05-22 19:35:35</time>
      </trkpt>
      <trkpt lat="42.65859" lon="1.08668">
        <ele>1108.6</ele>
        <time>2022-05-22 19:35:36</time>
      </trkpt>
      <trkpt lat="42.65863" lon="1.08664">
        <ele>1108.6</ele>
        <time>2022-05-22 19:35:37</time>
      </trkpt>
      <trkpt lat="42.65867" lon="1.0866">
        <ele>1108.6</ele>
        <time>2022-05-22 19:35:38</time>
      </trkpt>
      <trkpt lat="42.6587" lon="1.08656">
        <ele>1108.6</ele>
        <time>2022-05-22 19:35:39</time>
      </trkpt>
      <trkpt lat="42.65874" lon="1.08651">
        <ele>1108.4</ele>
        <time>2022-05-22 19:35:40</time>
      </trkpt>
      <trkpt lat="42.65877" lon="1.08647">
        <ele>1108.4</ele>
        <time>2022-05-22 19:35:41</time>
      </trkpt>
      <trkpt lat="42.65881" lon="1.08643">
        <ele>1108.4</ele>
        <time>2022-05-22 19:35:42</time>
      </trkpt>
      <trkpt lat="42.65884" lon="1.08639">
        <ele>1108.4</ele>
        <time>2022-05-22 19:35:43</time>
      </trkpt>
      <trkpt lat="42.65888" lon="1.08634">
        <ele>1108.4</ele>
        <time>2022-05-22 19:35:44</time>
      </trkpt>
      <trkpt lat="42.65891" lon="1.0863">
        <ele>1108.4</ele>
        <time>2022-05-22 19:35:45</time>
      </trkpt>
      <trkpt lat="42.65894" lon="1.08626">
        <ele>1108.4</ele>
        <time>2022-05-22 19:35:46</time>
      </trkpt>
      <trkpt lat="42.65897" lon="1.08621">
        <ele>1108.4</ele>
        <time>2022-05-22 19:35:47</time>
      </trkpt>
      <trkpt lat="42.659" lon="1.08616">
        <ele>1108.4</ele>
        <time>2022-05-22 19:35:48</time>
      </trkpt>
      <trkpt lat="42.65904" lon="1.08611">
        <ele>1108.4</ele>
        <time>2022-05-22 19:35:49</time>
      </trkpt>
      <trkpt lat="42.65906" lon="1.08606">
        <ele>1108.4</ele>
        <time>2022-05-22 19:35:50</time>
      </trkpt>
      <trkpt lat="42.65909" lon="1.08601">
        <ele>1108.2</ele>
        <time>2022-05-22 19:35:51</time>
      </trkpt>
      <trkpt lat="42.65911" lon="1.08596">
        <ele>1108.2</ele>
        <time>2022-05-22 19:35:52</time>
      </trkpt>
      <trkpt lat="42.65914" lon="1.0859">
        <ele>1108.2</ele>
        <time>2022-05-22 19:35:53</time>
      </trkpt>
      <trkpt lat="42.65916" lon="1.08585">
        <ele>1108.2</ele>
        <time>2022-05-22 19:35:54</time>
      </trkpt>
      <trkpt lat="42.65918" lon="1.0858">
        <ele>1108.4</ele>
        <time>2022-05-22 19:35:55</time>
      </trkpt>
      <trkpt lat="42.6592" lon="1.08574">
        <ele>1108.4</ele>
        <time>2022-05-22 19:35:56</time>
      </trkpt>
      <trkpt lat="42.65922" lon="1.08569">
        <ele>1108.4</ele>
        <time>2022-05-22 19:35:57</time>
      </trkpt>
      <trkpt lat="42.65924" lon="1.08564">
        <ele>1108.4</ele>
        <time>2022-05-22 19:35:58</time>
      </trkpt>
      <trkpt lat="42.65926" lon="1.08558">
        <ele>1108.4</ele>
        <time>2022-05-22 19:35:59</time>
      </trkpt>
      <trkpt lat="42.65927" lon="1.08553">
        <ele>1108.4</ele>
        <time>2022-05-22 19:36:00</time>
      </trkpt>
      <trkpt lat="42.6593" lon="1.08547">
        <ele>1108.2</ele>
        <time>2022-05-22 19:36:01</time>
      </trkpt>
      <trkpt lat="42.65931" lon="1.08542">
        <ele>1108.2</ele>
        <time>2022-05-22 19:36:02</time>
      </trkpt>
      <trkpt lat="42.65933" lon="1.08536">
        <ele>1108.2</ele>
        <time>2022-05-22 19:36:03</time>
      </trkpt>
      <trkpt lat="42.65935" lon="1.08531">
        <ele>1108.2</ele>
        <time>2022-05-22 19:36:04</time>
      </trkpt>
      <trkpt lat="42.65937" lon="1.08525">
        <ele>1108.2</ele>
        <time>2022-05-22 19:36:05</time>
      </trkpt>
      <trkpt lat="42.65939" lon="1.08519">
        <ele>1108.2</ele>
        <time>2022-05-22 19:36:06</time>
      </trkpt>
      <trkpt lat="42.6594" lon="1.08514">
        <ele>1108.2</ele>
        <time>2022-05-22 19:36:07</time>
      </trkpt>
      <trkpt lat="42.65942" lon="1.08508">
        <ele>1108</ele>
        <time>2022-05-22 19:36:08</time>
      </trkpt>
      <trkpt lat="42.65943" lon="1.08502">
        <ele>1108</ele>
        <time>2022-05-22 19:36:09</time>
      </trkpt>
      <trkpt lat="42.65944" lon="1.08496">
        <ele>1108</ele>
        <time>2022-05-22 19:36:10</time>
      </trkpt>
      <trkpt lat="42.65945" lon="1.08491">
        <ele>1108</ele>
        <time>2022-05-22 19:36:11</time>
      </trkpt>
      <trkpt lat="42.65946" lon="1.08485">
        <ele>1108</ele>
        <time>2022-05-22 19:36:12</time>
      </trkpt>
      <trkpt lat="42.65947" lon="1.08478">
        <ele>1108</ele>
        <time>2022-05-22 19:36:13</time>
      </trkpt>
      <trkpt lat="42.65948" lon="1.08472">
        <ele>1108</ele>
        <time>2022-05-22 19:36:14</time>
      </trkpt>
      <trkpt lat="42.65948" lon="1.08466">
        <ele>1107.8</ele>
        <time>2022-05-22 19:36:15</time>
      </trkpt>
      <trkpt lat="42.65948" lon="1.08459">
        <ele>1107.8</ele>
        <time>2022-05-22 19:36:16</time>
      </trkpt>
      <trkpt lat="42.65948" lon="1.08453">
        <ele>1107.8</ele>
        <time>2022-05-22 19:36:17</time>
      </trkpt>
      <trkpt lat="42.65948" lon="1.08446">
        <ele>1107.8</ele>
        <time>2022-05-22 19:36:18</time>
      </trkpt>
      <trkpt lat="42.65948" lon="1.0844">
        <ele>1107.8</ele>
        <time>2022-05-22 19:36:19</time>
      </trkpt>
      <trkpt lat="42.65948" lon="1.08434">
        <ele>1107.8</ele>
        <time>2022-05-22 19:36:20</time>
      </trkpt>
      <trkpt lat="42.65948" lon="1.08427">
        <ele>1107.8</ele>
        <time>2022-05-22 19:36:21</time>
      </trkpt>
      <trkpt lat="42.65948" lon="1.08421">
        <ele>1107.6</ele>
        <time>2022-05-22 19:36:22</time>
      </trkpt>
      <trkpt lat="42.65948" lon="1.08414">
        <ele>1107.6</ele>
        <time>2022-05-22 19:36:23</time>
      </trkpt>
      <trkpt lat="42.65949" lon="1.08408">
        <ele>1107.6</ele>
        <time>2022-05-22 19:36:24</time>
      </trkpt>
      <trkpt lat="42.65949" lon="1.08401">
        <ele>1107.6</ele>
        <time>2022-05-22 19:36:25</time>
      </trkpt>
      <trkpt lat="42.6595" lon="1.08395">
        <ele>1107.6</ele>
        <time>2022-05-22 19:36:26</time>
      </trkpt>
      <trkpt lat="42.65951" lon="1.08389">
        <ele>1107.6</ele>
        <time>2022-05-22 19:36:27</time>
      </trkpt>
      <trkpt lat="42.65952" lon="1.08383">
        <ele>1107.6</ele>
        <time>2022-05-22 19:36:28</time>
      </trkpt>
      <trkpt lat="42.65953" lon="1.08378">
        <ele>1107.8</ele>
        <time>2022-05-22 19:36:29</time>
      </trkpt>
      <trkpt lat="42.65954" lon="1.08372">
        <ele>1107.6</ele>
        <time>2022-05-22 19:36:30</time>
      </trkpt>
      <trkpt lat="42.65955" lon="1.08367">
        <ele>1107.6</ele>
        <time>2022-05-22 19:36:31</time>
      </trkpt>
      <trkpt lat="42.65957" lon="1.0836">
        <ele>1107.6</ele>
        <time>2022-05-22 19:36:32</time>
      </trkpt>
      <trkpt lat="42.65959" lon="1.08355">
        <ele>1107.8</ele>
        <time>2022-05-22 19:36:33</time>
      </trkpt>
      <trkpt lat="42.65961" lon="1.0835">
        <ele>1107.8</ele>
        <time>2022-05-22 19:36:34</time>
      </trkpt>
      <trkpt lat="42.65964" lon="1.08345">
        <ele>1107.8</ele>
        <time>2022-05-22 19:36:35</time>
      </trkpt>
      <trkpt lat="42.65967" lon="1.08341">
        <ele>1107.8</ele>
        <time>2022-05-22 19:36:36</time>
      </trkpt>
      <trkpt lat="42.6597" lon="1.08337">
        <ele>1107.8</ele>
        <time>2022-05-22 19:36:37</time>
      </trkpt>
      <trkpt lat="42.65974" lon="1.08333">
        <ele>1107.8</ele>
        <time>2022-05-22 19:36:38</time>
      </trkpt>
      <trkpt lat="42.65977" lon="1.0833">
        <ele>1107.8</ele>
        <time>2022-05-22 19:36:39</time>
      </trkpt>
      <trkpt lat="42.6598" lon="1.08326">
        <ele>1107.8</ele>
        <time>2022-05-22 19:36:40</time>
      </trkpt>
      <trkpt lat="42.65983" lon="1.08322">
        <ele>1107.8</ele>
        <time>2022-05-22 19:36:41</time>
      </trkpt>
      <trkpt lat="42.65987" lon="1.08319">
        <ele>1108</ele>
        <time>2022-05-22 19:36:42</time>
      </trkpt>
      <trkpt lat="42.65989" lon="1.08315">
        <ele>1108</ele>
        <time>2022-05-22 19:36:43</time>
      </trkpt>
      <trkpt lat="42.65992" lon="1.08311">
        <ele>1108.2</ele>
        <time>2022-05-22 19:36:44</time>
      </trkpt>
      <trkpt lat="42.65994" lon="1.08308">
        <ele>1108.2</ele>
        <time>2022-05-22 19:36:45</time>
      </trkpt>
      <trkpt lat="42.65997" lon="1.08302">
        <ele>1108.4</ele>
        <time>2022-05-22 19:36:46</time>
      </trkpt>
      <trkpt lat="42.65999" lon="1.08298">
        <ele>1108.6</ele>
        <time>2022-05-22 19:36:47</time>
      </trkpt>
      <trkpt lat="42.66001" lon="1.08294">
        <ele>1108.6</ele>
        <time>2022-05-22 19:36:48</time>
      </trkpt>
      <trkpt lat="42.66003" lon="1.0829">
        <ele>1108.8</ele>
        <time>2022-05-22 19:36:49</time>
      </trkpt>
      <trkpt lat="42.66005" lon="1.08286">
        <ele>1109</ele>
        <time>2022-05-22 19:36:50</time>
      </trkpt>
      <trkpt lat="42.66007" lon="1.08282">
        <ele>1109</ele>
        <time>2022-05-22 19:36:51</time>
      </trkpt>
      <trkpt lat="42.66009" lon="1.08278">
        <ele>1109.2</ele>
        <time>2022-05-22 19:36:52</time>
      </trkpt>
      <trkpt lat="42.66011" lon="1.08275">
        <ele>1109.2</ele>
        <time>2022-05-22 19:36:53</time>
      </trkpt>
      <trkpt lat="42.66012" lon="1.08272">
        <ele>1109.4</ele>
        <time>2022-05-22 19:36:54</time>
      </trkpt>
      <trkpt lat="42.66015" lon="1.08267">
        <ele>1109.4</ele>
        <time>2022-05-22 19:36:55</time>
      </trkpt>
      <trkpt lat="42.66016" lon="1.08263">
        <ele>1109.6</ele>
        <time>2022-05-22 19:36:56</time>
      </trkpt>
      <trkpt lat="42.66018" lon="1.08258">
        <ele>1109.6</ele>
        <time>2022-05-22 19:36:57</time>
      </trkpt>
      <trkpt lat="42.66019" lon="1.08253">
        <ele>1109.8</ele>
        <time>2022-05-22 19:36:58</time>
      </trkpt>
      <trkpt lat="42.6602" lon="1.08249">
        <ele>1109.8</ele>
        <time>2022-05-22 19:36:59</time>
      </trkpt>
      <trkpt lat="42.66022" lon="1.08245">
        <ele>1110</ele>
        <time>2022-05-22 19:37:00</time>
      </trkpt>
      <trkpt lat="42.66024" lon="1.0824">
        <ele>1110</ele>
        <time>2022-05-22 19:37:01</time>
      </trkpt>
      <trkpt lat="42.66027" lon="1.08236">
        <ele>1110.2</ele>
        <time>2022-05-22 19:37:02</time>
      </trkpt>
      <trkpt lat="42.66029" lon="1.08232">
        <ele>1110.4</ele>
        <time>2022-05-22 19:37:03</time>
      </trkpt>
      <trkpt lat="42.6603" lon="1.08228">
        <ele>1110.4</ele>
        <time>2022-05-22 19:37:04</time>
      </trkpt>
      <trkpt lat="42.66032" lon="1.08224">
        <ele>1110.6</ele>
        <time>2022-05-22 19:37:05</time>
      </trkpt>
      <trkpt lat="42.66034" lon="1.08219">
        <ele>1110.6</ele>
        <time>2022-05-22 19:37:06</time>
      </trkpt>
      <trkpt lat="42.66036" lon="1.08215">
        <ele>1110.8</ele>
        <time>2022-05-22 19:37:07</time>
      </trkpt>
      <trkpt lat="42.66037" lon="1.08212">
        <ele>1110.8</ele>
        <time>2022-05-22 19:37:08</time>
      </trkpt>
      <trkpt lat="42.66039" lon="1.08209">
        <ele>1111</ele>
        <time>2022-05-22 19:37:09</time>
      </trkpt>
      <trkpt lat="42.66042" lon="1.08204">
        <ele>1111.2</ele>
        <time>2022-05-22 19:37:10</time>
      </trkpt>
      <trkpt lat="42.66044" lon="1.08201">
        <ele>1111.2</ele>
        <time>2022-05-22 19:37:11</time>
      </trkpt>
      <trkpt lat="42.66046" lon="1.08197">
        <ele>1111.4</ele>
        <time>2022-05-22 19:37:12</time>
      </trkpt>
      <trkpt lat="42.66049" lon="1.08193">
        <ele>1111.6</ele>
        <time>2022-05-22 19:37:13</time>
      </trkpt>
      <trkpt lat="42.6605" lon="1.0819">
        <ele>1111.8</ele>
        <time>2022-05-22 19:37:14</time>
      </trkpt>
      <trkpt lat="42.66052" lon="1.08186">
        <ele>1111.8</ele>
        <time>2022-05-22 19:37:15</time>
      </trkpt>
      <trkpt lat="42.66055" lon="1.08182">
        <ele>1112</ele>
        <time>2022-05-22 19:37:16</time>
      </trkpt>
      <trkpt lat="42.66057" lon="1.08178">
        <ele>1112.2</ele>
        <time>2022-05-22 19:37:17</time>
      </trkpt>
      <trkpt lat="42.66059" lon="1.08175">
        <ele>1112.4</ele>
        <time>2022-05-22 19:37:18</time>
      </trkpt>
      <trkpt lat="42.66061" lon="1.08172">
        <ele>1112.6</ele>
        <time>2022-05-22 19:37:19</time>
      </trkpt>
      <trkpt lat="42.66062" lon="1.08169">
        <ele>1112.8</ele>
        <time>2022-05-22 19:37:20</time>
      </trkpt>
      <trkpt lat="42.66064" lon="1.08167">
        <ele>1113</ele>
        <time>2022-05-22 19:37:21</time>
      </trkpt>
      <trkpt lat="42.66066" lon="1.08164">
        <ele>1113.2</ele>
        <time>2022-05-22 19:37:22</time>
      </trkpt>
      <trkpt lat="42.66068" lon="1.08161">
        <ele>1113.4</ele>
        <time>2022-05-22 19:37:23</time>
      </trkpt>
      <trkpt lat="42.6607" lon="1.08159">
        <ele>1113.6</ele>
        <time>2022-05-22 19:37:24</time>
      </trkpt>
      <trkpt lat="42.66071" lon="1.08157">
        <ele>1113.8</ele>
        <time>2022-05-22 19:37:25</time>
      </trkpt>
      <trkpt lat="42.66073" lon="1.08155">
        <ele>1113.8</ele>
        <time>2022-05-22 19:37:26</time>
      </trkpt>
      <trkpt lat="42.66075" lon="1.08152">
        <ele>1114</ele>
        <time>2022-05-22 19:37:27</time>
      </trkpt>
      <trkpt lat="42.66077" lon="1.0815">
        <ele>1114.2</ele>
        <time>2022-05-22 19:37:28</time>
      </trkpt>
      <trkpt lat="42.66078" lon="1.08148">
        <ele>1114.4</ele>
        <time>2022-05-22 19:37:29</time>
      </trkpt>
      <trkpt lat="42.66081" lon="1.08146">
        <ele>1114.4</ele>
        <time>2022-05-22 19:37:30</time>
      </trkpt>
      <trkpt lat="42.66083" lon="1.08144">
        <ele>1114.6</ele>
        <time>2022-05-22 19:37:31</time>
      </trkpt>
      <trkpt lat="42.66084" lon="1.08142">
        <ele>1114.8</ele>
        <time>2022-05-22 19:37:32</time>
      </trkpt>
      <trkpt lat="42.66086" lon="1.0814">
        <ele>1115</ele>
        <time>2022-05-22 19:37:33</time>
      </trkpt>
      <trkpt lat="42.66089" lon="1.08138">
        <ele>1115</ele>
        <time>2022-05-22 19:37:34</time>
      </trkpt>
      <trkpt lat="42.66091" lon="1.08136">
        <ele>1115.2</ele>
        <time>2022-05-22 19:37:35</time>
      </trkpt>
      <trkpt lat="42.66093" lon="1.08134">
        <ele>1115.4</ele>
        <time>2022-05-22 19:37:36</time>
      </trkpt>
      <trkpt lat="42.66094" lon="1.08133">
        <ele>1115.6</ele>
        <time>2022-05-22 19:37:37</time>
      </trkpt>
      <trkpt lat="42.66097" lon="1.08132">
        <ele>1115.8</ele>
        <time>2022-05-22 19:37:38</time>
      </trkpt>
      <trkpt lat="42.66099" lon="1.08131">
        <ele>1115.8</ele>
        <time>2022-05-22 19:37:39</time>
      </trkpt>
      <trkpt lat="42.66102" lon="1.0813">
        <ele>1116</ele>
        <time>2022-05-22 19:37:40</time>
      </trkpt>
      <trkpt lat="42.66104" lon="1.08129">
        <ele>1116.2</ele>
        <time>2022-05-22 19:37:41</time>
      </trkpt>
      <trkpt lat="42.66106" lon="1.08128">
        <ele>1116.4</ele>
        <time>2022-05-22 19:37:42</time>
      </trkpt>
      <trkpt lat="42.66109" lon="1.08127">
        <ele>1116.6</ele>
        <time>2022-05-22 19:37:43</time>
      </trkpt>
      <trkpt lat="42.66111" lon="1.08126">
        <ele>1116.6</ele>
        <time>2022-05-22 19:37:44</time>
      </trkpt>
      <trkpt lat="42.66113" lon="1.08126">
        <ele>1116.8</ele>
        <time>2022-05-22 19:37:45</time>
      </trkpt>
      <trkpt lat="42.66117" lon="1.08124">
        <ele>1117</ele>
        <time>2022-05-22 19:37:46</time>
      </trkpt>
      <trkpt lat="42.66119" lon="1.08123">
        <ele>1117</ele>
        <time>2022-05-22 19:37:47</time>
      </trkpt>
      <trkpt lat="42.66122" lon="1.08123">
        <ele>1117.2</ele>
        <time>2022-05-22 19:37:48</time>
      </trkpt>
      <trkpt lat="42.66124" lon="1.08122">
        <ele>1117.4</ele>
        <time>2022-05-22 19:37:49</time>
      </trkpt>
      <trkpt lat="42.66128" lon="1.08121">
        <ele>1117.6</ele>
        <time>2022-05-22 19:37:50</time>
      </trkpt>
      <trkpt lat="42.6613" lon="1.0812">
        <ele>1117.8</ele>
        <time>2022-05-22 19:37:51</time>
      </trkpt>
      <trkpt lat="42.66133" lon="1.08118">
        <ele>1117.8</ele>
        <time>2022-05-22 19:37:52</time>
      </trkpt>
      <trkpt lat="42.66135" lon="1.08117">
        <ele>1118</ele>
        <time>2022-05-22 19:37:53</time>
      </trkpt>
      <trkpt lat="42.66137" lon="1.08114">
        <ele>1118.2</ele>
        <time>2022-05-22 19:37:54</time>
      </trkpt>
      <trkpt lat="42.66138" lon="1.08111">
        <ele>1118.2</ele>
        <time>2022-05-22 19:37:55</time>
      </trkpt>
      <trkpt lat="42.66139" lon="1.08109">
        <ele>1118.4</ele>
        <time>2022-05-22 19:37:56</time>
      </trkpt>
      <trkpt lat="42.66141" lon="1.08107">
        <ele>1118.4</ele>
        <time>2022-05-22 19:37:57</time>
      </trkpt>
      <trkpt lat="42.66143" lon="1.08101">
        <ele>1118.4</ele>
        <time>2022-05-22 19:37:58</time>
      </trkpt>
      <trkpt lat="42.66144" lon="1.08098">
        <ele>1118.4</ele>
        <time>2022-05-22 19:37:59</time>
      </trkpt>
      <trkpt lat="42.66144" lon="1.08094">
        <ele>1118.4</ele>
        <time>2022-05-22 19:38:00</time>
      </trkpt>
      <trkpt lat="42.66144" lon="1.08091">
        <ele>1118.4</ele>
        <time>2022-05-22 19:38:01</time>
      </trkpt>
      <trkpt lat="42.66143" lon="1.08084">
        <ele>1118.4</ele>
        <time>2022-05-22 19:38:02</time>
      </trkpt>
      <trkpt lat="42.66143" lon="1.0808">
        <ele>1118.6</ele>
        <time>2022-05-22 19:38:03</time>
      </trkpt>
      <trkpt lat="42.66142" lon="1.08075">
        <ele>1118.6</ele>
        <time>2022-05-22 19:38:04</time>
      </trkpt>
      <trkpt lat="42.66141" lon="1.08071">
        <ele>1118.6</ele>
        <time>2022-05-22 19:38:05</time>
      </trkpt>
      <trkpt lat="42.6614" lon="1.08068">
        <ele>1118.6</ele>
        <time>2022-05-22 19:38:06</time>
      </trkpt>
      <trkpt lat="42.66139" lon="1.08064">
        <ele>1118.8</ele>
        <time>2022-05-22 19:38:07</time>
      </trkpt>
      <trkpt lat="42.66137" lon="1.0806">
        <ele>1118.8</ele>
        <time>2022-05-22 19:38:08</time>
      </trkpt>
      <trkpt lat="42.66136" lon="1.08057">
        <ele>1119</ele>
        <time>2022-05-22 19:38:09</time>
      </trkpt>
      <trkpt lat="42.66135" lon="1.08054">
        <ele>1119</ele>
        <time>2022-05-22 19:38:10</time>
      </trkpt>
      <trkpt lat="42.66134" lon="1.08052">
        <ele>1119.2</ele>
        <time>2022-05-22 19:38:11</time>
      </trkpt>
      <trkpt lat="42.66132" lon="1.08047">
        <ele>1119.4</ele>
        <time>2022-05-22 19:38:12</time>
      </trkpt>
      <trkpt lat="42.66131" lon="1.08044">
        <ele>1119.4</ele>
        <time>2022-05-22 19:38:13</time>
      </trkpt>
      <trkpt lat="42.6613" lon="1.08041">
        <ele>1119.6</ele>
        <time>2022-05-22 19:38:14</time>
      </trkpt>
      <trkpt lat="42.66129" lon="1.08039">
        <ele>1119.6</ele>
        <time>2022-05-22 19:38:15</time>
      </trkpt>
      <trkpt lat="42.66127" lon="1.08035">
        <ele>1119.8</ele>
        <time>2022-05-22 19:38:16</time>
      </trkpt>
      <trkpt lat="42.66126" lon="1.08032">
        <ele>1119.8</ele>
        <time>2022-05-22 19:38:17</time>
      </trkpt>
      <trkpt lat="42.66124" lon="1.08029">
        <ele>1120</ele>
        <time>2022-05-22 19:38:18</time>
      </trkpt>
      <trkpt lat="42.66123" lon="1.08025">
        <ele>1120</ele>
        <time>2022-05-22 19:38:19</time>
      </trkpt>
      <trkpt lat="42.66121" lon="1.08022">
        <ele>1120.2</ele>
        <time>2022-05-22 19:38:20</time>
      </trkpt>
      <trkpt lat="42.6612" lon="1.08018">
        <ele>1120.2</ele>
        <time>2022-05-22 19:38:21</time>
      </trkpt>
      <trkpt lat="42.66119" lon="1.08015">
        <ele>1120.4</ele>
        <time>2022-05-22 19:38:22</time>
      </trkpt>
      <trkpt lat="42.66117" lon="1.08012">
        <ele>1120.4</ele>
        <time>2022-05-22 19:38:23</time>
      </trkpt>
      <trkpt lat="42.66116" lon="1.08009">
        <ele>1120.6</ele>
        <time>2022-05-22 19:38:24</time>
      </trkpt>
      <trkpt lat="42.66116" lon="1.08005">
        <ele>1120.6</ele>
        <time>2022-05-22 19:38:25</time>
      </trkpt>
      <trkpt lat="42.66115" lon="1.08003">
        <ele>1120.8</ele>
        <time>2022-05-22 19:38:26</time>
      </trkpt>
      <trkpt lat="42.66114" lon="1.07999">
        <ele>1121</ele>
        <time>2022-05-22 19:38:27</time>
      </trkpt>
      <trkpt lat="42.66113" lon="1.07996">
        <ele>1121.2</ele>
        <time>2022-05-22 19:38:28</time>
      </trkpt>
      <trkpt lat="42.66113" lon="1.07994">
        <ele>1121.2</ele>
        <time>2022-05-22 19:38:29</time>
      </trkpt>
      <trkpt lat="42.66112" lon="1.07991">
        <ele>1121.4</ele>
        <time>2022-05-22 19:38:30</time>
      </trkpt>
      <trkpt lat="42.66111" lon="1.07989">
        <ele>1121.6</ele>
        <time>2022-05-22 19:38:31</time>
      </trkpt>
      <trkpt lat="42.6611" lon="1.07986">
        <ele>1121.8</ele>
        <time>2022-05-22 19:38:32</time>
      </trkpt>
      <trkpt lat="42.66109" lon="1.07983">
        <ele>1122</ele>
        <time>2022-05-22 19:38:33</time>
      </trkpt>
      <trkpt lat="42.66109" lon="1.0798">
        <ele>1122.2</ele>
        <time>2022-05-22 19:38:34</time>
      </trkpt>
      <trkpt lat="42.66108" lon="1.07977">
        <ele>1122.4</ele>
        <time>2022-05-22 19:38:35</time>
      </trkpt>
      <trkpt lat="42.66107" lon="1.07975">
        <ele>1122.6</ele>
        <time>2022-05-22 19:38:36</time>
      </trkpt>
      <trkpt lat="42.66107" lon="1.07972">
        <ele>1122.8</ele>
        <time>2022-05-22 19:38:37</time>
      </trkpt>
      <trkpt lat="42.66106" lon="1.07969">
        <ele>1123</ele>
        <time>2022-05-22 19:38:38</time>
      </trkpt>
      <trkpt lat="42.66106" lon="1.07966">
        <ele>1123.2</ele>
        <time>2022-05-22 19:38:39</time>
      </trkpt>
      <trkpt lat="42.66105" lon="1.07964">
        <ele>1123.4</ele>
        <time>2022-05-22 19:38:40</time>
      </trkpt>
      <trkpt lat="42.66105" lon="1.07962">
        <ele>1123.6</ele>
        <time>2022-05-22 19:38:41</time>
      </trkpt>
      <trkpt lat="42.66104" lon="1.07958">
        <ele>1124</ele>
        <time>2022-05-22 19:38:42</time>
      </trkpt>
      <trkpt lat="42.66103" lon="1.07956">
        <ele>1124.2</ele>
        <time>2022-05-22 19:38:43</time>
      </trkpt>
      <trkpt lat="42.66102" lon="1.07953">
        <ele>1124.4</ele>
        <time>2022-05-22 19:38:44</time>
      </trkpt>
      <trkpt lat="42.66102" lon="1.07951">
        <ele>1124.6</ele>
        <time>2022-05-22 19:38:45</time>
      </trkpt>
      <trkpt lat="42.66101" lon="1.07949">
        <ele>1124.8</ele>
        <time>2022-05-22 19:38:46</time>
      </trkpt>
      <trkpt lat="42.66101" lon="1.07946">
        <ele>1125</ele>
        <time>2022-05-22 19:38:47</time>
      </trkpt>
      <trkpt lat="42.66101" lon="1.07944">
        <ele>1125.2</ele>
        <time>2022-05-22 19:38:48</time>
      </trkpt>
      <trkpt lat="42.661" lon="1.07941">
        <ele>1125.4</ele>
        <time>2022-05-22 19:38:49</time>
      </trkpt>
      <trkpt lat="42.661" lon="1.07939">
        <ele>1125.6</ele>
        <time>2022-05-22 19:38:50</time>
      </trkpt>
      <trkpt lat="42.661" lon="1.07937">
        <ele>1125.8</ele>
        <time>2022-05-22 19:38:51</time>
      </trkpt>
      <trkpt lat="42.66099" lon="1.07934">
        <ele>1126</ele>
        <time>2022-05-22 19:38:52</time>
      </trkpt>
      <trkpt lat="42.66099" lon="1.07932">
        <ele>1126.2</ele>
        <time>2022-05-22 19:38:53</time>
      </trkpt>
      <trkpt lat="42.66098" lon="1.0793">
        <ele>1126.4</ele>
        <time>2022-05-22 19:38:54</time>
      </trkpt>
      <trkpt lat="42.66098" lon="1.07928">
        <ele>1126.6</ele>
        <time>2022-05-22 19:38:55</time>
      </trkpt>
      <trkpt lat="42.66097" lon="1.07927">
        <ele>1126.8</ele>
        <time>2022-05-22 19:38:56</time>
      </trkpt>
      <trkpt lat="42.66096" lon="1.07925">
        <ele>1127</ele>
        <time>2022-05-22 19:38:57</time>
      </trkpt>
      <trkpt lat="42.66096" lon="1.07922">
        <ele>1127.2</ele>
        <time>2022-05-22 19:38:58</time>
      </trkpt>
      <trkpt lat="42.66095" lon="1.07919">
        <ele>1127.4</ele>
        <time>2022-05-22 19:38:59</time>
      </trkpt>
      <trkpt lat="42.66094" lon="1.07917">
        <ele>1127.6</ele>
        <time>2022-05-22 19:39:00</time>
      </trkpt>
      <trkpt lat="42.66094" lon="1.07915">
        <ele>1127.8</ele>
        <time>2022-05-22 19:39:01</time>
      </trkpt>
      <trkpt lat="42.66093" lon="1.07913">
        <ele>1128</ele>
        <time>2022-05-22 19:39:02</time>
      </trkpt>
      <trkpt lat="42.66092" lon="1.07911">
        <ele>1128.2</ele>
        <time>2022-05-22 19:39:03</time>
      </trkpt>
      <trkpt lat="42.66091" lon="1.07909">
        <ele>1128.4</ele>
        <time>2022-05-22 19:39:04</time>
      </trkpt>
      <trkpt lat="42.6609" lon="1.07908">
        <ele>1128.4</ele>
        <time>2022-05-22 19:39:05</time>
      </trkpt>
      <trkpt lat="42.6609" lon="1.07906">
        <ele>1128.6</ele>
        <time>2022-05-22 19:39:06</time>
      </trkpt>
      <trkpt lat="42.6609" lon="1.07904">
        <ele>1128.8</ele>
        <time>2022-05-22 19:39:07</time>
      </trkpt>
      <trkpt lat="42.6609" lon="1.07902">
        <ele>1129</ele>
        <time>2022-05-22 19:39:08</time>
      </trkpt>
      <trkpt lat="42.66089" lon="1.079">
        <ele>1129.2</ele>
        <time>2022-05-22 19:39:09</time>
      </trkpt>
      <trkpt lat="42.66089" lon="1.07898">
        <ele>1129.4</ele>
        <time>2022-05-22 19:39:10</time>
      </trkpt>
      <trkpt lat="42.66088" lon="1.07896">
        <ele>1129.4</ele>
        <time>2022-05-22 19:39:11</time>
      </trkpt>
      <trkpt lat="42.66088" lon="1.07894">
        <ele>1129.6</ele>
        <time>2022-05-22 19:39:12</time>
      </trkpt>
      <trkpt lat="42.66087" lon="1.07893">
        <ele>1129.8</ele>
        <time>2022-05-22 19:39:13</time>
      </trkpt>
      <trkpt lat="42.66086" lon="1.07891">
        <ele>1129.8</ele>
        <time>2022-05-22 19:39:14</time>
      </trkpt>
      <trkpt lat="42.66085" lon="1.07889">
        <ele>1130.2</ele>
        <time>2022-05-22 19:39:15</time>
      </trkpt>
      <trkpt lat="42.66084" lon="1.07887">
        <ele>1130.2</ele>
        <time>2022-05-22 19:39:16</time>
      </trkpt>
      <trkpt lat="42.66083" lon="1.07885">
        <ele>1130.4</ele>
        <time>2022-05-22 19:39:17</time>
      </trkpt>
      <trkpt lat="42.66082" lon="1.07883">
        <ele>1130.6</ele>
        <time>2022-05-22 19:39:18</time>
      </trkpt>
      <trkpt lat="42.66082" lon="1.07882">
        <ele>1130.8</ele>
        <time>2022-05-22 19:39:19</time>
      </trkpt>
      <trkpt lat="42.66081" lon="1.0788">
        <ele>1131</ele>
        <time>2022-05-22 19:39:20</time>
      </trkpt>
      <trkpt lat="42.66079" lon="1.07878">
        <ele>1131.2</ele>
        <time>2022-05-22 19:39:21</time>
      </trkpt>
      <trkpt lat="42.66078" lon="1.07876">
        <ele>1131.2</ele>
        <time>2022-05-22 19:39:22</time>
      </trkpt>
      <trkpt lat="42.66077" lon="1.07874">
        <ele>1131.4</ele>
        <time>2022-05-22 19:39:23</time>
      </trkpt>
      <trkpt lat="42.66076" lon="1.07873">
        <ele>1131.6</ele>
        <time>2022-05-22 19:39:24</time>
      </trkpt>
      <trkpt lat="42.66075" lon="1.07871">
        <ele>1131.8</ele>
        <time>2022-05-22 19:39:25</time>
      </trkpt>
      <trkpt lat="42.66074" lon="1.0787">
        <ele>1132</ele>
        <time>2022-05-22 19:39:26</time>
      </trkpt>
      <trkpt lat="42.66073" lon="1.07869">
        <ele>1132.2</ele>
        <time>2022-05-22 19:39:27</time>
      </trkpt>
      <trkpt lat="42.66072" lon="1.07867">
        <ele>1132.4</ele>
        <time>2022-05-22 19:39:28</time>
      </trkpt>
      <trkpt lat="42.66071" lon="1.07865">
        <ele>1132.6</ele>
        <time>2022-05-22 19:39:29</time>
      </trkpt>
      <trkpt lat="42.66069" lon="1.07863">
        <ele>1132.8</ele>
        <time>2022-05-22 19:39:30</time>
      </trkpt>
      <trkpt lat="42.66068" lon="1.07861">
        <ele>1132.8</ele>
        <time>2022-05-22 19:39:31</time>
      </trkpt>
      <trkpt lat="42.66067" lon="1.07859">
        <ele>1133</ele>
        <time>2022-05-22 19:39:32</time>
      </trkpt>
      <trkpt lat="42.66066" lon="1.07858">
        <ele>1133.2</ele>
        <time>2022-05-22 19:39:33</time>
      </trkpt>
      <trkpt lat="42.66065" lon="1.07857">
        <ele>1133.4</ele>
        <time>2022-05-22 19:39:34</time>
      </trkpt>
      <trkpt lat="42.66063" lon="1.07856">
        <ele>1133.6</ele>
        <time>2022-05-22 19:39:35</time>
      </trkpt>
      <trkpt lat="42.66062" lon="1.07855">
        <ele>1133.8</ele>
        <time>2022-05-22 19:39:36</time>
      </trkpt>
      <trkpt lat="42.6606" lon="1.07853">
        <ele>1134</ele>
        <time>2022-05-22 19:39:37</time>
      </trkpt>
      <trkpt lat="42.66059" lon="1.07852">
        <ele>1134</ele>
        <time>2022-05-22 19:39:38</time>
      </trkpt>
      <trkpt lat="42.66058" lon="1.07852">
        <ele>1134.2</ele>
        <time>2022-05-22 19:39:39</time>
      </trkpt>
      <trkpt lat="42.66056" lon="1.0785">
        <ele>1134.4</ele>
        <time>2022-05-22 19:39:40</time>
      </trkpt>
      <trkpt lat="42.66055" lon="1.07849">
        <ele>1134.6</ele>
        <time>2022-05-22 19:39:41</time>
      </trkpt>
      <trkpt lat="42.66053" lon="1.07848">
        <ele>1134.8</ele>
        <time>2022-05-22 19:39:42</time>
      </trkpt>
      <trkpt lat="42.66052" lon="1.07847">
        <ele>1134.8</ele>
        <time>2022-05-22 19:39:43</time>
      </trkpt>
      <trkpt lat="42.66051" lon="1.07846">
        <ele>1135</ele>
        <time>2022-05-22 19:39:44</time>
      </trkpt>
      <trkpt lat="42.66049" lon="1.07845">
        <ele>1135.2</ele>
        <time>2022-05-22 19:39:45</time>
      </trkpt>
      <trkpt lat="42.66048" lon="1.07844">
        <ele>1135.4</ele>
        <time>2022-05-22 19:39:46</time>
      </trkpt>
      <trkpt lat="42.66046" lon="1.07844">
        <ele>1135.6</ele>
        <time>2022-05-22 19:39:47</time>
      </trkpt>
      <trkpt lat="42.66045" lon="1.07843">
        <ele>1135.8</ele>
        <time>2022-05-22 19:39:48</time>
      </trkpt>
      <trkpt lat="42.66044" lon="1.07842">
        <ele>1135.8</ele>
        <time>2022-05-22 19:39:49</time>
      </trkpt>
      <trkpt lat="42.66042" lon="1.07841">
        <ele>1136</ele>
        <time>2022-05-22 19:39:50</time>
      </trkpt>
      <trkpt lat="42.66041" lon="1.0784">
        <ele>1136.2</ele>
        <time>2022-05-22 19:39:51</time>
      </trkpt>
      <trkpt lat="42.6604" lon="1.07839">
        <ele>1136.4</ele>
        <time>2022-05-22 19:39:52</time>
      </trkpt>
      <trkpt lat="42.66038" lon="1.07838">
        <ele>1136.6</ele>
        <time>2022-05-22 19:39:53</time>
      </trkpt>
      <trkpt lat="42.66037" lon="1.07837">
        <ele>1136.8</ele>
        <time>2022-05-22 19:39:54</time>
      </trkpt>
      <trkpt lat="42.66036" lon="1.07837">
        <ele>1136.8</ele>
        <time>2022-05-22 19:39:55</time>
      </trkpt>
      <trkpt lat="42.66034" lon="1.07836">
        <ele>1137</ele>
        <time>2022-05-22 19:39:56</time>
      </trkpt>
      <trkpt lat="42.66032" lon="1.07836">
        <ele>1137.2</ele>
        <time>2022-05-22 19:39:57</time>
      </trkpt>
      <trkpt lat="42.66031" lon="1.07836">
        <ele>1137.2</ele>
        <time>2022-05-22 19:39:58</time>
      </trkpt>
      <trkpt lat="42.66029" lon="1.07834">
        <ele>1137.6</ele>
        <time>2022-05-22 19:39:59</time>
      </trkpt>
      <trkpt lat="42.66028" lon="1.07833">
        <ele>1137.8</ele>
        <time>2022-05-22 19:40:00</time>
      </trkpt>
      <trkpt lat="42.66026" lon="1.07833">
        <ele>1137.8</ele>
        <time>2022-05-22 19:40:01</time>
      </trkpt>
      <trkpt lat="42.66025" lon="1.07832">
        <ele>1138</ele>
        <time>2022-05-22 19:40:02</time>
      </trkpt>
      <trkpt lat="42.66023" lon="1.07832">
        <ele>1138.2</ele>
        <time>2022-05-22 19:40:03</time>
      </trkpt>
      <trkpt lat="42.66022" lon="1.07832">
        <ele>1138.4</ele>
        <time>2022-05-22 19:40:04</time>
      </trkpt>
      <trkpt lat="42.6602" lon="1.07831">
        <ele>1138.6</ele>
        <time>2022-05-22 19:40:05</time>
      </trkpt>
      <trkpt lat="42.66018" lon="1.07831">
        <ele>1138.8</ele>
        <time>2022-05-22 19:40:06</time>
      </trkpt>
      <trkpt lat="42.66017" lon="1.07831">
        <ele>1139</ele>
        <time>2022-05-22 19:40:07</time>
      </trkpt>
      <trkpt lat="42.66015" lon="1.0783">
        <ele>1139</ele>
        <time>2022-05-22 19:40:08</time>
      </trkpt>
      <trkpt lat="42.66014" lon="1.0783">
        <ele>1139.2</ele>
        <time>2022-05-22 19:40:09</time>
      </trkpt>
      <trkpt lat="42.66013" lon="1.0783">
        <ele>1139.4</ele>
        <time>2022-05-22 19:40:10</time>
      </trkpt>
      <trkpt lat="42.6601" lon="1.0783">
        <ele>1139.6</ele>
        <time>2022-05-22 19:40:11</time>
      </trkpt>
      <trkpt lat="42.66008" lon="1.0783">
        <ele>1139.8</ele>
        <time>2022-05-22 19:40:12</time>
      </trkpt>
      <trkpt lat="42.66007" lon="1.0783">
        <ele>1140</ele>
        <time>2022-05-22 19:40:13</time>
      </trkpt>
      <trkpt lat="42.66005" lon="1.0783">
        <ele>1140.2</ele>
        <time>2022-05-22 19:40:14</time>
      </trkpt>
      <trkpt lat="42.66004" lon="1.0783">
        <ele>1140.4</ele>
        <time>2022-05-22 19:40:15</time>
      </trkpt>
      <trkpt lat="42.66003" lon="1.07831">
        <ele>1140.6</ele>
        <time>2022-05-22 19:40:16</time>
      </trkpt>
      <trkpt lat="42.66001" lon="1.07831">
        <ele>1140.8</ele>
        <time>2022-05-22 19:40:17</time>
      </trkpt>
      <trkpt lat="42.65999" lon="1.07831">
        <ele>1141</ele>
        <time>2022-05-22 19:40:18</time>
      </trkpt>
      <trkpt lat="42.65998" lon="1.07831">
        <ele>1141.2</ele>
        <time>2022-05-22 19:40:19</time>
      </trkpt>
      <trkpt lat="42.65996" lon="1.07831">
        <ele>1141.4</ele>
        <time>2022-05-22 19:40:20</time>
      </trkpt>
      <trkpt lat="42.65995" lon="1.07832">
        <ele>1141.4</ele>
        <time>2022-05-22 19:40:21</time>
      </trkpt>
      <trkpt lat="42.65994" lon="1.07832">
        <ele>1141.6</ele>
        <time>2022-05-22 19:40:22</time>
      </trkpt>
      <trkpt lat="42.65991" lon="1.07833">
        <ele>1141.8</ele>
        <time>2022-05-22 19:40:23</time>
      </trkpt>
      <trkpt lat="42.65989" lon="1.07833">
        <ele>1142</ele>
        <time>2022-05-22 19:40:24</time>
      </trkpt>
      <trkpt lat="42.65988" lon="1.07834">
        <ele>1142.2</ele>
        <time>2022-05-22 19:40:25</time>
      </trkpt>
      <trkpt lat="42.65986" lon="1.07835">
        <ele>1142.4</ele>
        <time>2022-05-22 19:40:26</time>
      </trkpt>
      <trkpt lat="42.65985" lon="1.07836">
        <ele>1142.6</ele>
        <time>2022-05-22 19:40:27</time>
      </trkpt>
      <trkpt lat="42.65984" lon="1.07836">
        <ele>1142.6</ele>
        <time>2022-05-22 19:40:28</time>
      </trkpt>
      <trkpt lat="42.65982" lon="1.07837">
        <ele>1142.8</ele>
        <time>2022-05-22 19:40:29</time>
      </trkpt>
      <trkpt lat="42.6598" lon="1.07838">
        <ele>1143.2</ele>
        <time>2022-05-22 19:40:30</time>
      </trkpt>
      <trkpt lat="42.65979" lon="1.07838">
        <ele>1143.2</ele>
        <time>2022-05-22 19:40:31</time>
      </trkpt>
      <trkpt lat="42.65978" lon="1.07839">
        <ele>1143.4</ele>
        <time>2022-05-22 19:40:32</time>
      </trkpt>
      <trkpt lat="42.65977" lon="1.0784">
        <ele>1143.6</ele>
        <time>2022-05-22 19:40:33</time>
      </trkpt>
      <trkpt lat="42.65976" lon="1.07841">
        <ele>1143.8</ele>
        <time>2022-05-22 19:40:34</time>
      </trkpt>
      <trkpt lat="42.65975" lon="1.07842">
        <ele>1144</ele>
        <time>2022-05-22 19:40:35</time>
      </trkpt>
      <trkpt lat="42.65973" lon="1.07844">
        <ele>1144.2</ele>
        <time>2022-05-22 19:40:36</time>
      </trkpt>
      <trkpt lat="42.65972" lon="1.07845">
        <ele>1144.4</ele>
        <time>2022-05-22 19:40:37</time>
      </trkpt>
      <trkpt lat="42.6597" lon="1.07846">
        <ele>1144.6</ele>
        <time>2022-05-22 19:40:38</time>
      </trkpt>
      <trkpt lat="42.65968" lon="1.07847">
        <ele>1144.8</ele>
        <time>2022-05-22 19:40:39</time>
      </trkpt>
      <trkpt lat="42.65967" lon="1.07848">
        <ele>1145</ele>
        <time>2022-05-22 19:40:40</time>
      </trkpt>
      <trkpt lat="42.65966" lon="1.07849">
        <ele>1145.2</ele>
        <time>2022-05-22 19:40:41</time>
      </trkpt>
      <trkpt lat="42.65964" lon="1.0785">
        <ele>1145.4</ele>
        <time>2022-05-22 19:40:42</time>
      </trkpt>
      <trkpt lat="42.65962" lon="1.07851">
        <ele>1145.6</ele>
        <time>2022-05-22 19:40:43</time>
      </trkpt>
      <trkpt lat="42.6596" lon="1.07852">
        <ele>1145.6</ele>
        <time>2022-05-22 19:40:44</time>
      </trkpt>
      <trkpt lat="42.65959" lon="1.07853">
        <ele>1145.8</ele>
        <time>2022-05-22 19:40:45</time>
      </trkpt>
      <trkpt lat="42.65957" lon="1.07854">
        <ele>1146</ele>
        <time>2022-05-22 19:40:46</time>
      </trkpt>
      <trkpt lat="42.65955" lon="1.07855">
        <ele>1146.2</ele>
        <time>2022-05-22 19:40:47</time>
      </trkpt>
      <trkpt lat="42.65954" lon="1.07856">
        <ele>1146.4</ele>
        <time>2022-05-22 19:40:48</time>
      </trkpt>
      <trkpt lat="42.65952" lon="1.07857">
        <ele>1146.6</ele>
        <time>2022-05-22 19:40:49</time>
      </trkpt>
      <trkpt lat="42.65951" lon="1.07858">
        <ele>1146.8</ele>
        <time>2022-05-22 19:40:50</time>
      </trkpt>
      <trkpt lat="42.6595" lon="1.07859">
        <ele>1146.8</ele>
        <time>2022-05-22 19:40:51</time>
      </trkpt>
      <trkpt lat="42.65948" lon="1.0786">
        <ele>1147</ele>
        <time>2022-05-22 19:40:52</time>
      </trkpt>
      <trkpt lat="42.65947" lon="1.07861">
        <ele>1147.2</ele>
        <time>2022-05-22 19:40:53</time>
      </trkpt>
      <trkpt lat="42.65945" lon="1.07862">
        <ele>1147.4</ele>
        <time>2022-05-22 19:40:54</time>
      </trkpt>
      <trkpt lat="42.65944" lon="1.07863">
        <ele>1147.6</ele>
        <time>2022-05-22 19:40:55</time>
      </trkpt>
      <trkpt lat="42.65942" lon="1.07864">
        <ele>1147.8</ele>
        <time>2022-05-22 19:40:56</time>
      </trkpt>
      <trkpt lat="42.65941" lon="1.07865">
        <ele>1148</ele>
        <time>2022-05-22 19:40:57</time>
      </trkpt>
      <trkpt lat="42.6594" lon="1.07867">
        <ele>1148</ele>
        <time>2022-05-22 19:40:58</time>
      </trkpt>
      <trkpt lat="42.65938" lon="1.07867">
        <ele>1148.2</ele>
        <time>2022-05-22 19:40:59</time>
      </trkpt>
      <trkpt lat="42.65936" lon="1.07868">
        <ele>1148.4</ele>
        <time>2022-05-22 19:41:00</time>
      </trkpt>
      <trkpt lat="42.65935" lon="1.07868">
        <ele>1148.6</ele>
        <time>2022-05-22 19:41:01</time>
      </trkpt>
      <trkpt lat="42.65933" lon="1.07869">
        <ele>1148.8</ele>
        <time>2022-05-22 19:41:02</time>
      </trkpt>
      <trkpt lat="42.65931" lon="1.0787">
        <ele>1149</ele>
        <time>2022-05-22 19:41:03</time>
      </trkpt>
      <trkpt lat="42.6593" lon="1.07871">
        <ele>1149</ele>
        <time>2022-05-22 19:41:04</time>
      </trkpt>
      <trkpt lat="42.65928" lon="1.07871">
        <ele>1149.2</ele>
        <time>2022-05-22 19:41:05</time>
      </trkpt>
      <trkpt lat="42.65927" lon="1.07871">
        <ele>1149.4</ele>
        <time>2022-05-22 19:41:06</time>
      </trkpt>
      <trkpt lat="42.65925" lon="1.07871">
        <ele>1149.6</ele>
        <time>2022-05-22 19:41:07</time>
      </trkpt>
      <trkpt lat="42.65924" lon="1.07871">
        <ele>1149.6</ele>
        <time>2022-05-22 19:41:08</time>
      </trkpt>
      <trkpt lat="42.65922" lon="1.0787">
        <ele>1149.8</ele>
        <time>2022-05-22 19:41:09</time>
      </trkpt>
      <trkpt lat="42.65921" lon="1.07869">
        <ele>1150</ele>
        <time>2022-05-22 19:41:10</time>
      </trkpt>
      <trkpt lat="42.65919" lon="1.07868">
        <ele>1150</ele>
        <time>2022-05-22 19:41:11</time>
      </trkpt>
      <trkpt lat="42.65918" lon="1.07867">
        <ele>1150.2</ele>
        <time>2022-05-22 19:41:12</time>
      </trkpt>
      <trkpt lat="42.65917" lon="1.07865">
        <ele>1150.4</ele>
        <time>2022-05-22 19:41:13</time>
      </trkpt>
      <trkpt lat="42.65917" lon="1.07863">
        <ele>1150.6</ele>
        <time>2022-05-22 19:41:14</time>
      </trkpt>
      <trkpt lat="42.65916" lon="1.07862">
        <ele>1150.6</ele>
        <time>2022-05-22 19:41:15</time>
      </trkpt>
      <trkpt lat="42.65916" lon="1.07859">
        <ele>1150.8</ele>
        <time>2022-05-22 19:41:16</time>
      </trkpt>
      <trkpt lat="42.65916" lon="1.07857">
        <ele>1151</ele>
        <time>2022-05-22 19:41:17</time>
      </trkpt>
      <trkpt lat="42.65916" lon="1.07854">
        <ele>1151</ele>
        <time>2022-05-22 19:41:18</time>
      </trkpt>
      <trkpt lat="42.65916" lon="1.07852">
        <ele>1151.2</ele>
        <time>2022-05-22 19:41:19</time>
      </trkpt>
      <trkpt lat="42.65917" lon="1.07849">
        <ele>1151.4</ele>
        <time>2022-05-22 19:41:20</time>
      </trkpt>
      <trkpt lat="42.65917" lon="1.07847">
        <ele>1151.4</ele>
        <time>2022-05-22 19:41:21</time>
      </trkpt>
      <trkpt lat="42.65918" lon="1.07845">
        <ele>1151.6</ele>
        <time>2022-05-22 19:41:22</time>
      </trkpt>
      <trkpt lat="42.65919" lon="1.07842">
        <ele>1151.8</ele>
        <time>2022-05-22 19:41:23</time>
      </trkpt>
      <trkpt lat="42.6592" lon="1.0784">
        <ele>1151.8</ele>
        <time>2022-05-22 19:41:24</time>
      </trkpt>
      <trkpt lat="42.65922" lon="1.07838">
        <ele>1152</ele>
        <time>2022-05-22 19:41:25</time>
      </trkpt>
      <trkpt lat="42.65923" lon="1.07837">
        <ele>1152</ele>
        <time>2022-05-22 19:41:26</time>
      </trkpt>
      <trkpt lat="42.65923" lon="1.07836">
        <ele>1152.2</ele>
        <time>2022-05-22 19:41:27</time>
      </trkpt>
      <trkpt lat="42.65925" lon="1.07833">
        <ele>1152.2</ele>
        <time>2022-05-22 19:41:28</time>
      </trkpt>
      <trkpt lat="42.65926" lon="1.07831">
        <ele>1152.4</ele>
        <time>2022-05-22 19:41:29</time>
      </trkpt>
      <trkpt lat="42.65928" lon="1.0783">
        <ele>1152.6</ele>
        <time>2022-05-22 19:41:30</time>
      </trkpt>
      <trkpt lat="42.65929" lon="1.07828">
        <ele>1152.6</ele>
        <time>2022-05-22 19:41:31</time>
      </trkpt>
      <trkpt lat="42.6593" lon="1.07826">
        <ele>1152.8</ele>
        <time>2022-05-22 19:41:32</time>
      </trkpt>
      <trkpt lat="42.65931" lon="1.07824">
        <ele>1152.8</ele>
        <time>2022-05-22 19:41:33</time>
      </trkpt>
      <trkpt lat="42.65932" lon="1.07822">
        <ele>1153</ele>
        <time>2022-05-22 19:41:34</time>
      </trkpt>
      <trkpt lat="42.65933" lon="1.0782">
        <ele>1153.2</ele>
        <time>2022-05-22 19:41:35</time>
      </trkpt>
      <trkpt lat="42.65935" lon="1.07818">
        <ele>1153.2</ele>
        <time>2022-05-22 19:41:36</time>
      </trkpt>
      <trkpt lat="42.65936" lon="1.07817">
        <ele>1153.4</ele>
        <time>2022-05-22 19:41:37</time>
      </trkpt>
      <trkpt lat="42.65937" lon="1.07815">
        <ele>1153.6</ele>
        <time>2022-05-22 19:41:38</time>
      </trkpt>
      <trkpt lat="42.65939" lon="1.07814">
        <ele>1153.6</ele>
        <time>2022-05-22 19:41:39</time>
      </trkpt>
      <trkpt lat="42.6594" lon="1.07813">
        <ele>1153.8</ele>
        <time>2022-05-22 19:41:40</time>
      </trkpt>
      <trkpt lat="42.65942" lon="1.07811">
        <ele>1153.8</ele>
        <time>2022-05-22 19:41:41</time>
      </trkpt>
      <trkpt lat="42.65943" lon="1.0781">
        <ele>1154</ele>
        <time>2022-05-22 19:41:42</time>
      </trkpt>
      <trkpt lat="42.65944" lon="1.07808">
        <ele>1154.2</ele>
        <time>2022-05-22 19:41:43</time>
      </trkpt>
      <trkpt lat="42.65946" lon="1.07807">
        <ele>1154.2</ele>
        <time>2022-05-22 19:41:44</time>
      </trkpt>
      <trkpt lat="42.65947" lon="1.07805">
        <ele>1154.4</ele>
        <time>2022-05-22 19:41:45</time>
      </trkpt>
      <trkpt lat="42.65949" lon="1.07804">
        <ele>1154.6</ele>
        <time>2022-05-22 19:41:46</time>
      </trkpt>
      <trkpt lat="42.6595" lon="1.07802">
        <ele>1154.6</ele>
        <time>2022-05-22 19:41:47</time>
      </trkpt>
      <trkpt lat="42.65951" lon="1.078">
        <ele>1154.8</ele>
        <time>2022-05-22 19:41:48</time>
      </trkpt>
      <trkpt lat="42.65952" lon="1.07798">
        <ele>1155</ele>
        <time>2022-05-22 19:41:49</time>
      </trkpt>
      <trkpt lat="42.65953" lon="1.07797">
        <ele>1155</ele>
        <time>2022-05-22 19:41:50</time>
      </trkpt>
      <trkpt lat="42.65954" lon="1.07795">
        <ele>1155.2</ele>
        <time>2022-05-22 19:41:51</time>
      </trkpt>
      <trkpt lat="42.65955" lon="1.07794">
        <ele>1155.4</ele>
        <time>2022-05-22 19:41:52</time>
      </trkpt>
      <trkpt lat="42.65957" lon="1.07793">
        <ele>1155.6</ele>
        <time>2022-05-22 19:41:53</time>
      </trkpt>
      <trkpt lat="42.65958" lon="1.07791">
        <ele>1155.6</ele>
        <time>2022-05-22 19:41:54</time>
      </trkpt>
      <trkpt lat="42.65958" lon="1.07791">
        <ele>1155.8</ele>
        <time>2022-05-22 19:41:55</time>
      </trkpt>
      <trkpt lat="42.6596" lon="1.07789">
        <ele>1156</ele>
        <time>2022-05-22 19:41:56</time>
      </trkpt>
      <trkpt lat="42.65961" lon="1.07788">
        <ele>1156.2</ele>
        <time>2022-05-22 19:41:57</time>
      </trkpt>
      <trkpt lat="42.65962" lon="1.07787">
        <ele>1156.2</ele>
        <time>2022-05-22 19:41:58</time>
      </trkpt>
      <trkpt lat="42.65964" lon="1.07786">
        <ele>1156.4</ele>
        <time>2022-05-22 19:41:59</time>
      </trkpt>
      <trkpt lat="42.65965" lon="1.07785">
        <ele>1156.6</ele>
        <time>2022-05-22 19:42:00</time>
      </trkpt>
      <trkpt lat="42.65966" lon="1.07784">
        <ele>1156.6</ele>
        <time>2022-05-22 19:42:01</time>
      </trkpt>
      <trkpt lat="42.65967" lon="1.07783">
        <ele>1156.8</ele>
        <time>2022-05-22 19:42:02</time>
      </trkpt>
      <trkpt lat="42.65969" lon="1.07781">
        <ele>1157</ele>
        <time>2022-05-22 19:42:03</time>
      </trkpt>
      <trkpt lat="42.6597" lon="1.0778">
        <ele>1157.2</ele>
        <time>2022-05-22 19:42:04</time>
      </trkpt>
      <trkpt lat="42.65971" lon="1.07778">
        <ele>1157.4</ele>
        <time>2022-05-22 19:42:05</time>
      </trkpt>
      <trkpt lat="42.65973" lon="1.07776">
        <ele>1157.4</ele>
        <time>2022-05-22 19:42:06</time>
      </trkpt>
      <trkpt lat="42.65974" lon="1.07775">
        <ele>1157.6</ele>
        <time>2022-05-22 19:42:07</time>
      </trkpt>
      <trkpt lat="42.65975" lon="1.07774">
        <ele>1157.8</ele>
        <time>2022-05-22 19:42:08</time>
      </trkpt>
      <trkpt lat="42.65976" lon="1.07772">
        <ele>1158</ele>
        <time>2022-05-22 19:42:09</time>
      </trkpt>
      <trkpt lat="42.65978" lon="1.07771">
        <ele>1158.2</ele>
        <time>2022-05-22 19:42:10</time>
      </trkpt>
      <trkpt lat="42.65979" lon="1.0777">
        <ele>1158.4</ele>
        <time>2022-05-22 19:42:11</time>
      </trkpt>
      <trkpt lat="42.6598" lon="1.07768">
        <ele>1158.6</ele>
        <time>2022-05-22 19:42:12</time>
      </trkpt>
      <trkpt lat="42.65982" lon="1.07768">
        <ele>1158.8</ele>
        <time>2022-05-22 19:42:13</time>
      </trkpt>
      <trkpt lat="42.65983" lon="1.07767">
        <ele>1158.8</ele>
        <time>2022-05-22 19:42:14</time>
      </trkpt>
      <trkpt lat="42.65985" lon="1.07766">
        <ele>1159</ele>
        <time>2022-05-22 19:42:15</time>
      </trkpt>
      <trkpt lat="42.65986" lon="1.07764">
        <ele>1159.2</ele>
        <time>2022-05-22 19:42:16</time>
      </trkpt>
      <trkpt lat="42.65988" lon="1.07763">
        <ele>1159.4</ele>
        <time>2022-05-22 19:42:17</time>
      </trkpt>
      <trkpt lat="42.65989" lon="1.07761">
        <ele>1159.6</ele>
        <time>2022-05-22 19:42:18</time>
      </trkpt>
      <trkpt lat="42.6599" lon="1.0776">
        <ele>1159.8</ele>
        <time>2022-05-22 19:42:19</time>
      </trkpt>
      <trkpt lat="42.65992" lon="1.0776">
        <ele>1160</ele>
        <time>2022-05-22 19:42:20</time>
      </trkpt>
      <trkpt lat="42.65994" lon="1.07759">
        <ele>1160.2</ele>
        <time>2022-05-22 19:42:21</time>
      </trkpt>
      <trkpt lat="42.65995" lon="1.07759">
        <ele>1160.4</ele>
        <time>2022-05-22 19:42:22</time>
      </trkpt>
      <trkpt lat="42.65997" lon="1.0776">
        <ele>1160.6</ele>
        <time>2022-05-22 19:42:23</time>
      </trkpt>
      <trkpt lat="42.65999" lon="1.0776">
        <ele>1160.8</ele>
        <time>2022-05-22 19:42:24</time>
      </trkpt>
      <trkpt lat="42.66" lon="1.0776">
        <ele>1161</ele>
        <time>2022-05-22 19:42:25</time>
      </trkpt>
      <trkpt lat="42.66001" lon="1.0776">
        <ele>1161</ele>
        <time>2022-05-22 19:42:26</time>
      </trkpt>
      <trkpt lat="42.66004" lon="1.0776">
        <ele>1161.4</ele>
        <time>2022-05-22 19:42:27</time>
      </trkpt>
      <trkpt lat="42.66005" lon="1.0776">
        <ele>1161.6</ele>
        <time>2022-05-22 19:42:28</time>
      </trkpt>
      <trkpt lat="42.66007" lon="1.07761">
        <ele>1161.8</ele>
        <time>2022-05-22 19:42:29</time>
      </trkpt>
      <trkpt lat="42.66009" lon="1.07761">
        <ele>1162</ele>
        <time>2022-05-22 19:42:30</time>
      </trkpt>
      <trkpt lat="42.6601" lon="1.07761">
        <ele>1162</ele>
        <time>2022-05-22 19:42:31</time>
      </trkpt>
      <trkpt lat="42.66011" lon="1.07761">
        <ele>1162.2</ele>
        <time>2022-05-22 19:42:32</time>
      </trkpt>
      <trkpt lat="42.66013" lon="1.07762">
        <ele>1162.6</ele>
        <time>2022-05-22 19:42:33</time>
      </trkpt>
      <trkpt lat="42.66015" lon="1.07763">
        <ele>1162.8</ele>
        <time>2022-05-22 19:42:34</time>
      </trkpt>
      <trkpt lat="42.66016" lon="1.07763">
        <ele>1163</ele>
        <time>2022-05-22 19:42:35</time>
      </trkpt>
      <trkpt lat="42.66018" lon="1.07764">
        <ele>1163.2</ele>
        <time>2022-05-22 19:42:36</time>
      </trkpt>
      <trkpt lat="42.66019" lon="1.07764">
        <ele>1163.4</ele>
        <time>2022-05-22 19:42:37</time>
      </trkpt>
      <trkpt lat="42.66021" lon="1.07764">
        <ele>1163.6</ele>
        <time>2022-05-22 19:42:38</time>
      </trkpt>
      <trkpt lat="42.66022" lon="1.07763">
        <ele>1163.6</ele>
        <time>2022-05-22 19:42:39</time>
      </trkpt>
      <trkpt lat="42.66023" lon="1.07762">
        <ele>1163.8</ele>
        <time>2022-05-22 19:42:40</time>
      </trkpt>
      <trkpt lat="42.66025" lon="1.07762">
        <ele>1164</ele>
        <time>2022-05-22 19:42:41</time>
      </trkpt>
      <trkpt lat="42.66027" lon="1.07761">
        <ele>1164.2</ele>
        <time>2022-05-22 19:42:42</time>
      </trkpt>
      <trkpt lat="42.66028" lon="1.0776">
        <ele>1164.4</ele>
        <time>2022-05-22 19:42:43</time>
      </trkpt>
      <trkpt lat="42.6603" lon="1.07759">
        <ele>1164.4</ele>
        <time>2022-05-22 19:42:44</time>
      </trkpt>
      <trkpt lat="42.66031" lon="1.07758">
        <ele>1164.6</ele>
        <time>2022-05-22 19:42:45</time>
      </trkpt>
      <trkpt lat="42.66033" lon="1.07756">
        <ele>1164.6</ele>
        <time>2022-05-22 19:42:46</time>
      </trkpt>
      <trkpt lat="42.66034" lon="1.07754">
        <ele>1164.8</ele>
        <time>2022-05-22 19:42:47</time>
      </trkpt>
      <trkpt lat="42.66034" lon="1.07752">
        <ele>1164.8</ele>
        <time>2022-05-22 19:42:48</time>
      </trkpt>
      <trkpt lat="42.66035" lon="1.07751">
        <ele>1165</ele>
        <time>2022-05-22 19:42:49</time>
      </trkpt>
      <trkpt lat="42.66036" lon="1.07748">
        <ele>1165</ele>
        <time>2022-05-22 19:42:50</time>
      </trkpt>
      <trkpt lat="42.66036" lon="1.07746">
        <ele>1165.2</ele>
        <time>2022-05-22 19:42:51</time>
      </trkpt>
      <trkpt lat="42.66037" lon="1.07743">
        <ele>1165.4</ele>
        <time>2022-05-22 19:42:52</time>
      </trkpt>
      <trkpt lat="42.66037" lon="1.07741">
        <ele>1165.6</ele>
        <time>2022-05-22 19:42:53</time>
      </trkpt>
      <trkpt lat="42.66038" lon="1.07739">
        <ele>1165.6</ele>
        <time>2022-05-22 19:42:54</time>
      </trkpt>
      <trkpt lat="42.66038" lon="1.07737">
        <ele>1165.8</ele>
        <time>2022-05-22 19:42:55</time>
      </trkpt>
      <trkpt lat="42.66038" lon="1.07735">
        <ele>1166</ele>
        <time>2022-05-22 19:42:56</time>
      </trkpt>
      <trkpt lat="42.66037" lon="1.07732">
        <ele>1166.2</ele>
        <time>2022-05-22 19:42:57</time>
      </trkpt>
      <trkpt lat="42.66037" lon="1.0773">
        <ele>1166.4</ele>
        <time>2022-05-22 19:42:58</time>
      </trkpt>
      <trkpt lat="42.66036" lon="1.07727">
        <ele>1166.4</ele>
        <time>2022-05-22 19:42:59</time>
      </trkpt>
      <trkpt lat="42.66035" lon="1.07725">
        <ele>1166.6</ele>
        <time>2022-05-22 19:43:00</time>
      </trkpt>
      <trkpt lat="42.66035" lon="1.07724">
        <ele>1166.8</ele>
        <time>2022-05-22 19:43:01</time>
      </trkpt>
      <trkpt lat="42.66033" lon="1.07721">
        <ele>1166.8</ele>
        <time>2022-05-22 19:43:02</time>
      </trkpt>
      <trkpt lat="42.66032" lon="1.0772">
        <ele>1167</ele>
        <time>2022-05-22 19:43:03</time>
      </trkpt>
      <trkpt lat="42.6603" lon="1.07719">
        <ele>1167</ele>
        <time>2022-05-22 19:43:04</time>
      </trkpt>
      <trkpt lat="42.66029" lon="1.07718">
        <ele>1167.2</ele>
        <time>2022-05-22 19:43:05</time>
      </trkpt>
      <trkpt lat="42.66028" lon="1.07716">
        <ele>1167.4</ele>
        <time>2022-05-22 19:43:06</time>
      </trkpt>
      <trkpt lat="42.66027" lon="1.07716">
        <ele>1167.4</ele>
        <time>2022-05-22 19:43:07</time>
      </trkpt>
      <trkpt lat="42.66026" lon="1.07714">
        <ele>1167.6</ele>
        <time>2022-05-22 19:43:08</time>
      </trkpt>
      <trkpt lat="42.66024" lon="1.07713">
        <ele>1167.6</ele>
        <time>2022-05-22 19:43:09</time>
      </trkpt>
      <trkpt lat="42.66023" lon="1.07712">
        <ele>1167.8</ele>
        <time>2022-05-22 19:43:10</time>
      </trkpt>
      <trkpt lat="42.66021" lon="1.07711">
        <ele>1168</ele>
        <time>2022-05-22 19:43:11</time>
      </trkpt>
      <trkpt lat="42.6602" lon="1.0771">
        <ele>1168</ele>
        <time>2022-05-22 19:43:12</time>
      </trkpt>
      <trkpt lat="42.66019" lon="1.07709">
        <ele>1168.2</ele>
        <time>2022-05-22 19:43:13</time>
      </trkpt>
      <trkpt lat="42.66017" lon="1.07708">
        <ele>1168.2</ele>
        <time>2022-05-22 19:43:14</time>
      </trkpt>
      <trkpt lat="42.66016" lon="1.07707">
        <ele>1168.4</ele>
        <time>2022-05-22 19:43:15</time>
      </trkpt>
      <trkpt lat="42.66015" lon="1.07707">
        <ele>1168.4</ele>
        <time>2022-05-22 19:43:16</time>
      </trkpt>
      <trkpt lat="42.66013" lon="1.07706">
        <ele>1168.6</ele>
        <time>2022-05-22 19:43:17</time>
      </trkpt>
      <trkpt lat="42.66012" lon="1.07705">
        <ele>1168.6</ele>
        <time>2022-05-22 19:43:18</time>
      </trkpt>
      <trkpt lat="42.66011" lon="1.07704">
        <ele>1168.8</ele>
        <time>2022-05-22 19:43:19</time>
      </trkpt>
      <trkpt lat="42.66009" lon="1.07704">
        <ele>1169</ele>
        <time>2022-05-22 19:43:20</time>
      </trkpt>
      <trkpt lat="42.66008" lon="1.07702">
        <ele>1169</ele>
        <time>2022-05-22 19:43:21</time>
      </trkpt>
      <trkpt lat="42.66007" lon="1.07701">
        <ele>1169.2</ele>
        <time>2022-05-22 19:43:22</time>
      </trkpt>
      <trkpt lat="42.66005" lon="1.07701">
        <ele>1169.4</ele>
        <time>2022-05-22 19:43:23</time>
      </trkpt>
      <trkpt lat="42.66004" lon="1.077">
        <ele>1169.6</ele>
        <time>2022-05-22 19:43:24</time>
      </trkpt>
      <trkpt lat="42.66002" lon="1.077">
        <ele>1169.8</ele>
        <time>2022-05-22 19:43:25</time>
      </trkpt>
      <trkpt lat="42.66" lon="1.077">
        <ele>1169.8</ele>
        <time>2022-05-22 19:43:26</time>
      </trkpt>
      <trkpt lat="42.65998" lon="1.077">
        <ele>1170</ele>
        <time>2022-05-22 19:43:27</time>
      </trkpt>
      <trkpt lat="42.65996" lon="1.07701">
        <ele>1170.2</ele>
        <time>2022-05-22 19:43:28</time>
      </trkpt>
      <trkpt lat="42.65994" lon="1.07701">
        <ele>1170.4</ele>
        <time>2022-05-22 19:43:29</time>
      </trkpt>
      <trkpt lat="42.65993" lon="1.07701">
        <ele>1170.4</ele>
        <time>2022-05-22 19:43:30</time>
      </trkpt>
      <trkpt lat="42.65992" lon="1.07701">
        <ele>1170.6</ele>
        <time>2022-05-22 19:43:31</time>
      </trkpt>
      <trkpt lat="42.65989" lon="1.077">
        <ele>1170.6</ele>
        <time>2022-05-22 19:43:32</time>
      </trkpt>
      <trkpt lat="42.65987" lon="1.07699">
        <ele>1170.8</ele>
        <time>2022-05-22 19:43:33</time>
      </trkpt>
      <trkpt lat="42.65986" lon="1.07699">
        <ele>1171</ele>
        <time>2022-05-22 19:43:34</time>
      </trkpt>
      <trkpt lat="42.65984" lon="1.07698">
        <ele>1171</ele>
        <time>2022-05-22 19:43:35</time>
      </trkpt>
      <trkpt lat="42.65982" lon="1.07698">
        <ele>1171.2</ele>
        <time>2022-05-22 19:43:36</time>
      </trkpt>
      <trkpt lat="42.6598" lon="1.07697">
        <ele>1171.2</ele>
        <time>2022-05-22 19:43:37</time>
      </trkpt>
      <trkpt lat="42.65979" lon="1.07697">
        <ele>1171.4</ele>
        <time>2022-05-22 19:43:38</time>
      </trkpt>
      <trkpt lat="42.65977" lon="1.07697">
        <ele>1171.6</ele>
        <time>2022-05-22 19:43:39</time>
      </trkpt>
      <trkpt lat="42.65976" lon="1.07696">
        <ele>1171.8</ele>
        <time>2022-05-22 19:43:40</time>
      </trkpt>
      <trkpt lat="42.65975" lon="1.07696">
        <ele>1172</ele>
        <time>2022-05-22 19:43:41</time>
      </trkpt>
      <trkpt lat="42.65973" lon="1.07696">
        <ele>1172</ele>
        <time>2022-05-22 19:43:42</time>
      </trkpt>
      <trkpt lat="42.65971" lon="1.07696">
        <ele>1172.2</ele>
        <time>2022-05-22 19:43:43</time>
      </trkpt>
      <trkpt lat="42.6597" lon="1.07695">
        <ele>1172.4</ele>
        <time>2022-05-22 19:43:44</time>
      </trkpt>
      <trkpt lat="42.65968" lon="1.07696">
        <ele>1172.6</ele>
        <time>2022-05-22 19:43:45</time>
      </trkpt>
      <trkpt lat="42.65967" lon="1.07696">
        <ele>1172.6</ele>
        <time>2022-05-22 19:43:46</time>
      </trkpt>
      <trkpt lat="42.65965" lon="1.07695">
        <ele>1172.8</ele>
        <time>2022-05-22 19:43:47</time>
      </trkpt>
      <trkpt lat="42.65964" lon="1.07695">
        <ele>1173</ele>
        <time>2022-05-22 19:43:48</time>
      </trkpt>
      <trkpt lat="42.65962" lon="1.07696">
        <ele>1173</ele>
        <time>2022-05-22 19:43:49</time>
      </trkpt>
      <trkpt lat="42.6596" lon="1.07696">
        <ele>1173.2</ele>
        <time>2022-05-22 19:43:50</time>
      </trkpt>
      <trkpt lat="42.65959" lon="1.07695">
        <ele>1173.4</ele>
        <time>2022-05-22 19:43:51</time>
      </trkpt>
      <trkpt lat="42.65957" lon="1.07695">
        <ele>1173.4</ele>
        <time>2022-05-22 19:43:52</time>
      </trkpt>
      <trkpt lat="42.65955" lon="1.07695">
        <ele>1173.6</ele>
        <time>2022-05-22 19:43:53</time>
      </trkpt>
      <trkpt lat="42.65954" lon="1.07695">
        <ele>1173.8</ele>
        <time>2022-05-22 19:43:54</time>
      </trkpt>
      <trkpt lat="42.65952" lon="1.07695">
        <ele>1173.8</ele>
        <time>2022-05-22 19:43:55</time>
      </trkpt>
      <trkpt lat="42.65951" lon="1.07695">
        <ele>1174</ele>
        <time>2022-05-22 19:43:56</time>
      </trkpt>
      <trkpt lat="42.65949" lon="1.07695">
        <ele>1174.2</ele>
        <time>2022-05-22 19:43:57</time>
      </trkpt>
      <trkpt lat="42.65947" lon="1.07695">
        <ele>1174.2</ele>
        <time>2022-05-22 19:43:58</time>
      </trkpt>
      <trkpt lat="42.65946" lon="1.07694">
        <ele>1174.4</ele>
        <time>2022-05-22 19:43:59</time>
      </trkpt>
      <trkpt lat="42.65944" lon="1.07694">
        <ele>1174.6</ele>
        <time>2022-05-22 19:44:00</time>
      </trkpt>
      <trkpt lat="42.65942" lon="1.07694">
        <ele>1174.8</ele>
        <time>2022-05-22 19:44:01</time>
      </trkpt>
      <trkpt lat="42.6594" lon="1.07693">
        <ele>1174.8</ele>
        <time>2022-05-22 19:44:02</time>
      </trkpt>
      <trkpt lat="42.65939" lon="1.07693">
        <ele>1175</ele>
        <time>2022-05-22 19:44:03</time>
      </trkpt>
      <trkpt lat="42.65937" lon="1.07693">
        <ele>1175.2</ele>
        <time>2022-05-22 19:44:04</time>
      </trkpt>
      <trkpt lat="42.65935" lon="1.07694">
        <ele>1175.4</ele>
        <time>2022-05-22 19:44:05</time>
      </trkpt>
      <trkpt lat="42.65933" lon="1.07694">
        <ele>1175.4</ele>
        <time>2022-05-22 19:44:06</time>
      </trkpt>
      <trkpt lat="42.65931" lon="1.07694">
        <ele>1175.6</ele>
        <time>2022-05-22 19:44:07</time>
      </trkpt>
      <trkpt lat="42.65929" lon="1.07694">
        <ele>1175.8</ele>
        <time>2022-05-22 19:44:08</time>
      </trkpt>
      <trkpt lat="42.65928" lon="1.07694">
        <ele>1176</ele>
        <time>2022-05-22 19:44:09</time>
      </trkpt>
      <trkpt lat="42.65926" lon="1.07694">
        <ele>1176</ele>
        <time>2022-05-22 19:44:10</time>
      </trkpt>
      <trkpt lat="42.65925" lon="1.07693">
        <ele>1176.2</ele>
        <time>2022-05-22 19:44:11</time>
      </trkpt>
      <trkpt lat="42.65923" lon="1.07693">
        <ele>1176.4</ele>
        <time>2022-05-22 19:44:12</time>
      </trkpt>
      <trkpt lat="42.65921" lon="1.07693">
        <ele>1176.6</ele>
        <time>2022-05-22 19:44:13</time>
      </trkpt>
      <trkpt lat="42.65919" lon="1.07693">
        <ele>1176.8</ele>
        <time>2022-05-22 19:44:14</time>
      </trkpt>
      <trkpt lat="42.65918" lon="1.07693">
        <ele>1176.8</ele>
        <time>2022-05-22 19:44:15</time>
      </trkpt>
      <trkpt lat="42.65916" lon="1.07693">
        <ele>1177</ele>
        <time>2022-05-22 19:44:16</time>
      </trkpt>
      <trkpt lat="42.65914" lon="1.07693">
        <ele>1177.2</ele>
        <time>2022-05-22 19:44:17</time>
      </trkpt>
      <trkpt lat="42.65913" lon="1.07693">
        <ele>1177.4</ele>
        <time>2022-05-22 19:44:18</time>
      </trkpt>
      <trkpt lat="42.65911" lon="1.07694">
        <ele>1177.6</ele>
        <time>2022-05-22 19:44:19</time>
      </trkpt>
      <trkpt lat="42.65909" lon="1.07694">
        <ele>1177.8</ele>
        <time>2022-05-22 19:44:20</time>
      </trkpt>
      <trkpt lat="42.65907" lon="1.07694">
        <ele>1177.8</ele>
        <time>2022-05-22 19:44:21</time>
      </trkpt>
      <trkpt lat="42.65906" lon="1.07694">
        <ele>1178</ele>
        <time>2022-05-22 19:44:22</time>
      </trkpt>
      <trkpt lat="42.65904" lon="1.07694">
        <ele>1178.2</ele>
        <time>2022-05-22 19:44:23</time>
      </trkpt>
      <trkpt lat="42.65902" lon="1.07694">
        <ele>1178.2</ele>
        <time>2022-05-22 19:44:24</time>
      </trkpt>
      <trkpt lat="42.65901" lon="1.07694">
        <ele>1178.4</ele>
        <time>2022-05-22 19:44:25</time>
      </trkpt>
      <trkpt lat="42.65899" lon="1.07694">
        <ele>1178.6</ele>
        <time>2022-05-22 19:44:26</time>
      </trkpt>
      <trkpt lat="42.65898" lon="1.07694">
        <ele>1178.8</ele>
        <time>2022-05-22 19:44:27</time>
      </trkpt>
      <trkpt lat="42.65896" lon="1.07695">
        <ele>1178.8</ele>
        <time>2022-05-22 19:44:28</time>
      </trkpt>
      <trkpt lat="42.65895" lon="1.07695">
        <ele>1179</ele>
        <time>2022-05-22 19:44:29</time>
      </trkpt>
      <trkpt lat="42.65893" lon="1.07696">
        <ele>1179</ele>
        <time>2022-05-22 19:44:30</time>
      </trkpt>
      <trkpt lat="42.65891" lon="1.07696">
        <ele>1179.2</ele>
        <time>2022-05-22 19:44:31</time>
      </trkpt>
      <trkpt lat="42.6589" lon="1.07696">
        <ele>1179.4</ele>
        <time>2022-05-22 19:44:32</time>
      </trkpt>
      <trkpt lat="42.65888" lon="1.07696">
        <ele>1179.4</ele>
        <time>2022-05-22 19:44:33</time>
      </trkpt>
      <trkpt lat="42.65886" lon="1.07696">
        <ele>1179.6</ele>
        <time>2022-05-22 19:44:34</time>
      </trkpt>
      <trkpt lat="42.65884" lon="1.07697">
        <ele>1179.6</ele>
        <time>2022-05-22 19:44:35</time>
      </trkpt>
      <trkpt lat="42.65883" lon="1.07698">
        <ele>1179.8</ele>
        <time>2022-05-22 19:44:36</time>
      </trkpt>
      <trkpt lat="42.65881" lon="1.07698">
        <ele>1179.8</ele>
        <time>2022-05-22 19:44:37</time>
      </trkpt>
      <trkpt lat="42.65879" lon="1.07699">
        <ele>1180</ele>
        <time>2022-05-22 19:44:38</time>
      </trkpt>
      <trkpt lat="42.65877" lon="1.07699">
        <ele>1180.2</ele>
        <time>2022-05-22 19:44:39</time>
      </trkpt>
      <trkpt lat="42.65876" lon="1.07699">
        <ele>1180.4</ele>
        <time>2022-05-22 19:44:40</time>
      </trkpt>
      <trkpt lat="42.65874" lon="1.07699">
        <ele>1180.6</ele>
        <time>2022-05-22 19:44:41</time>
      </trkpt>
      <trkpt lat="42.65872" lon="1.077">
        <ele>1180.8</ele>
        <time>2022-05-22 19:44:42</time>
      </trkpt>
      <trkpt lat="42.6587" lon="1.077">
        <ele>1180.8</ele>
        <time>2022-05-22 19:44:43</time>
      </trkpt>
      <trkpt lat="42.65869" lon="1.077">
        <ele>1181</ele>
        <time>2022-05-22 19:44:44</time>
      </trkpt>
      <trkpt lat="42.65867" lon="1.077">
        <ele>1181.2</ele>
        <time>2022-05-22 19:44:45</time>
      </trkpt>
      <trkpt lat="42.65865" lon="1.077">
        <ele>1181.4</ele>
        <time>2022-05-22 19:44:46</time>
      </trkpt>
      <trkpt lat="42.65863" lon="1.07701">
        <ele>1181.6</ele>
        <time>2022-05-22 19:44:47</time>
      </trkpt>
      <trkpt lat="42.65862" lon="1.07701">
        <ele>1181.8</ele>
        <time>2022-05-22 19:44:48</time>
      </trkpt>
      <trkpt lat="42.6586" lon="1.07702">
        <ele>1181.8</ele>
        <time>2022-05-22 19:44:49</time>
      </trkpt>
      <trkpt lat="42.65858" lon="1.07702">
        <ele>1182</ele>
        <time>2022-05-22 19:44:50</time>
      </trkpt>
      <trkpt lat="42.65857" lon="1.07702">
        <ele>1182.2</ele>
        <time>2022-05-22 19:44:51</time>
      </trkpt>
      <trkpt lat="42.65855" lon="1.07702">
        <ele>1182.2</ele>
        <time>2022-05-22 19:44:52</time>
      </trkpt>
      <trkpt lat="42.65853" lon="1.07702">
        <ele>1182.4</ele>
        <time>2022-05-22 19:44:53</time>
      </trkpt>
      <trkpt lat="42.65851" lon="1.07702">
        <ele>1182.4</ele>
        <time>2022-05-22 19:44:54</time>
      </trkpt>
      <trkpt lat="42.65849" lon="1.07703">
        <ele>1182.6</ele>
        <time>2022-05-22 19:44:55</time>
      </trkpt>
      <trkpt lat="42.65847" lon="1.07704">
        <ele>1182.6</ele>
        <time>2022-05-22 19:44:56</time>
      </trkpt>
      <trkpt lat="42.65846" lon="1.07705">
        <ele>1182.8</ele>
        <time>2022-05-22 19:44:57</time>
      </trkpt>
      <trkpt lat="42.65844" lon="1.07705">
        <ele>1183</ele>
        <time>2022-05-22 19:44:58</time>
      </trkpt>
      <trkpt lat="42.65842" lon="1.07706">
        <ele>1183</ele>
        <time>2022-05-22 19:44:59</time>
      </trkpt>
      <trkpt lat="42.6584" lon="1.07707">
        <ele>1183.2</ele>
        <time>2022-05-22 19:45:00</time>
      </trkpt>
      <trkpt lat="42.65838" lon="1.07708">
        <ele>1183.4</ele>
        <time>2022-05-22 19:45:01</time>
      </trkpt>
      <trkpt lat="42.65837" lon="1.07709">
        <ele>1183.4</ele>
        <time>2022-05-22 19:45:02</time>
      </trkpt>
      <trkpt lat="42.65835" lon="1.0771">
        <ele>1183.6</ele>
        <time>2022-05-22 19:45:03</time>
      </trkpt>
      <trkpt lat="42.65834" lon="1.0771">
        <ele>1183.8</ele>
        <time>2022-05-22 19:45:04</time>
      </trkpt>
      <trkpt lat="42.65832" lon="1.07711">
        <ele>1184</ele>
        <time>2022-05-22 19:45:05</time>
      </trkpt>
      <trkpt lat="42.65831" lon="1.07712">
        <ele>1184</ele>
        <time>2022-05-22 19:45:06</time>
      </trkpt>
      <trkpt lat="42.65829" lon="1.07712">
        <ele>1184.2</ele>
        <time>2022-05-22 19:45:07</time>
      </trkpt>
      <trkpt lat="42.65827" lon="1.07712">
        <ele>1184.4</ele>
        <time>2022-05-22 19:45:08</time>
      </trkpt>
      <trkpt lat="42.65825" lon="1.07713">
        <ele>1184.6</ele>
        <time>2022-05-22 19:45:09</time>
      </trkpt>
      <trkpt lat="42.65823" lon="1.07713">
        <ele>1184.8</ele>
        <time>2022-05-22 19:45:10</time>
      </trkpt>
      <trkpt lat="42.65821" lon="1.07714">
        <ele>1184.8</ele>
        <time>2022-05-22 19:45:11</time>
      </trkpt>
      <trkpt lat="42.65819" lon="1.07715">
        <ele>1185</ele>
        <time>2022-05-22 19:45:12</time>
      </trkpt>
      <trkpt lat="42.65816" lon="1.07716">
        <ele>1185.2</ele>
        <time>2022-05-22 19:45:13</time>
      </trkpt>
      <trkpt lat="42.65815" lon="1.07717">
        <ele>1185.4</ele>
        <time>2022-05-22 19:45:14</time>
      </trkpt>
      <trkpt lat="42.65813" lon="1.07718">
        <ele>1185.6</ele>
        <time>2022-05-22 19:45:15</time>
      </trkpt>
      <trkpt lat="42.65811" lon="1.07719">
        <ele>1185.6</ele>
        <time>2022-05-22 19:45:16</time>
      </trkpt>
      <trkpt lat="42.65809" lon="1.0772">
        <ele>1185.8</ele>
        <time>2022-05-22 19:45:17</time>
      </trkpt>
      <trkpt lat="42.65807" lon="1.07722">
        <ele>1186</ele>
        <time>2022-05-22 19:45:18</time>
      </trkpt>
      <trkpt lat="42.65806" lon="1.07723">
        <ele>1186.2</ele>
        <time>2022-05-22 19:45:19</time>
      </trkpt>
      <trkpt lat="42.65804" lon="1.07723">
        <ele>1186.2</ele>
        <time>2022-05-22 19:45:20</time>
      </trkpt>
      <trkpt lat="42.65802" lon="1.07725">
        <ele>1186.4</ele>
        <time>2022-05-22 19:45:21</time>
      </trkpt>
      <trkpt lat="42.65801" lon="1.07726">
        <ele>1186.4</ele>
        <time>2022-05-22 19:45:22</time>
      </trkpt>
      <trkpt lat="42.65799" lon="1.07726">
        <ele>1186.6</ele>
        <time>2022-05-22 19:45:23</time>
      </trkpt>
      <trkpt lat="42.65797" lon="1.07727">
        <ele>1186.8</ele>
        <time>2022-05-22 19:45:24</time>
      </trkpt>
      <trkpt lat="42.65796" lon="1.07728">
        <ele>1186.8</ele>
        <time>2022-05-22 19:45:25</time>
      </trkpt>
      <trkpt lat="42.65794" lon="1.07729">
        <ele>1187</ele>
        <time>2022-05-22 19:45:26</time>
      </trkpt>
      <trkpt lat="42.65792" lon="1.0773">
        <ele>1187.2</ele>
        <time>2022-05-22 19:45:27</time>
      </trkpt>
      <trkpt lat="42.65791" lon="1.07731">
        <ele>1187.2</ele>
        <time>2022-05-22 19:45:28</time>
      </trkpt>
      <trkpt lat="42.65789" lon="1.07732">
        <ele>1187.4</ele>
        <time>2022-05-22 19:45:29</time>
      </trkpt>
      <trkpt lat="42.65787" lon="1.07734">
        <ele>1187.4</ele>
        <time>2022-05-22 19:45:30</time>
      </trkpt>
      <trkpt lat="42.65786" lon="1.07735">
        <ele>1187.6</ele>
        <time>2022-05-22 19:45:31</time>
      </trkpt>
      <trkpt lat="42.65785" lon="1.07736">
        <ele>1187.6</ele>
        <time>2022-05-22 19:45:32</time>
      </trkpt>
      <trkpt lat="42.65784" lon="1.07737">
        <ele>1187.8</ele>
        <time>2022-05-22 19:45:33</time>
      </trkpt>
      <trkpt lat="42.65782" lon="1.07739">
        <ele>1187.8</ele>
        <time>2022-05-22 19:45:34</time>
      </trkpt>
      <trkpt lat="42.6578" lon="1.0774">
        <ele>1188</ele>
        <time>2022-05-22 19:45:35</time>
      </trkpt>
      <trkpt lat="42.65779" lon="1.07741">
        <ele>1188</ele>
        <time>2022-05-22 19:45:36</time>
      </trkpt>
      <trkpt lat="42.65777" lon="1.07743">
        <ele>1188.2</ele>
        <time>2022-05-22 19:45:37</time>
      </trkpt>
      <trkpt lat="42.65776" lon="1.07744">
        <ele>1188.2</ele>
        <time>2022-05-22 19:45:38</time>
      </trkpt>
      <trkpt lat="42.65774" lon="1.07745">
        <ele>1188.4</ele>
        <time>2022-05-22 19:45:39</time>
      </trkpt>
      <trkpt lat="42.65772" lon="1.07747">
        <ele>1188.6</ele>
        <time>2022-05-22 19:45:40</time>
      </trkpt>
      <trkpt lat="42.65771" lon="1.07749">
        <ele>1188.6</ele>
        <time>2022-05-22 19:45:41</time>
      </trkpt>
      <trkpt lat="42.65769" lon="1.0775">
        <ele>1188.8</ele>
        <time>2022-05-22 19:45:42</time>
      </trkpt>
      <trkpt lat="42.65767" lon="1.07752">
        <ele>1189</ele>
        <time>2022-05-22 19:45:43</time>
      </trkpt>
      <trkpt lat="42.65765" lon="1.07754">
        <ele>1189.2</ele>
        <time>2022-05-22 19:45:44</time>
      </trkpt>
      <trkpt lat="42.65764" lon="1.07755">
        <ele>1189.2</ele>
        <time>2022-05-22 19:45:45</time>
      </trkpt>
      <trkpt lat="42.65762" lon="1.07757">
        <ele>1189.4</ele>
        <time>2022-05-22 19:45:46</time>
      </trkpt>
      <trkpt lat="42.6576" lon="1.07758">
        <ele>1189.6</ele>
        <time>2022-05-22 19:45:47</time>
      </trkpt>
      <trkpt lat="42.65758" lon="1.07759">
        <ele>1189.8</ele>
        <time>2022-05-22 19:45:48</time>
      </trkpt>
      <trkpt lat="42.65757" lon="1.07761">
        <ele>1190</ele>
        <time>2022-05-22 19:45:49</time>
      </trkpt>
      <trkpt lat="42.65755" lon="1.07762">
        <ele>1190</ele>
        <time>2022-05-22 19:45:50</time>
      </trkpt>
      <trkpt lat="42.65754" lon="1.07763">
        <ele>1190.2</ele>
        <time>2022-05-22 19:45:51</time>
      </trkpt>
      <trkpt lat="42.65752" lon="1.07765">
        <ele>1190.4</ele>
        <time>2022-05-22 19:45:52</time>
      </trkpt>
      <trkpt lat="42.65751" lon="1.07766">
        <ele>1190.4</ele>
        <time>2022-05-22 19:45:53</time>
      </trkpt>
      <trkpt lat="42.65749" lon="1.07768">
        <ele>1190.6</ele>
        <time>2022-05-22 19:45:54</time>
      </trkpt>
      <trkpt lat="42.65748" lon="1.0777">
        <ele>1190.8</ele>
        <time>2022-05-22 19:45:55</time>
      </trkpt>
      <trkpt lat="42.65746" lon="1.07771">
        <ele>1190.8</ele>
        <time>2022-05-22 19:45:56</time>
      </trkpt>
      <trkpt lat="42.65745" lon="1.07773">
        <ele>1191</ele>
        <time>2022-05-22 19:45:57</time>
      </trkpt>
      <trkpt lat="42.65743" lon="1.07775">
        <ele>1191.2</ele>
        <time>2022-05-22 19:45:58</time>
      </trkpt>
      <trkpt lat="42.65742" lon="1.07776">
        <ele>1191.2</ele>
        <time>2022-05-22 19:45:59</time>
      </trkpt>
      <trkpt lat="42.6574" lon="1.07778">
        <ele>1191.4</ele>
        <time>2022-05-22 19:46:00</time>
      </trkpt>
      <trkpt lat="42.65738" lon="1.07779">
        <ele>1191.6</ele>
        <time>2022-05-22 19:46:01</time>
      </trkpt>
      <trkpt lat="42.65737" lon="1.0778">
        <ele>1191.6</ele>
        <time>2022-05-22 19:46:02</time>
      </trkpt>
      <trkpt lat="42.65735" lon="1.07782">
        <ele>1191.8</ele>
        <time>2022-05-22 19:46:03</time>
      </trkpt>
      <trkpt lat="42.65734" lon="1.07783">
        <ele>1192</ele>
        <time>2022-05-22 19:46:04</time>
      </trkpt>
      <trkpt lat="42.65732" lon="1.07785">
        <ele>1192.2</ele>
        <time>2022-05-22 19:46:05</time>
      </trkpt>
      <trkpt lat="42.65731" lon="1.07787">
        <ele>1192.4</ele>
        <time>2022-05-22 19:46:06</time>
      </trkpt>
      <trkpt lat="42.65729" lon="1.07789">
        <ele>1192.6</ele>
        <time>2022-05-22 19:46:07</time>
      </trkpt>
      <trkpt lat="42.65727" lon="1.07791">
        <ele>1192.8</ele>
        <time>2022-05-22 19:46:08</time>
      </trkpt>
      <trkpt lat="42.65725" lon="1.07793">
        <ele>1193</ele>
        <time>2022-05-22 19:46:09</time>
      </trkpt>
      <trkpt lat="42.65723" lon="1.07795">
        <ele>1193.2</ele>
        <time>2022-05-22 19:46:10</time>
      </trkpt>
      <trkpt lat="42.65722" lon="1.07797">
        <ele>1193.2</ele>
        <time>2022-05-22 19:46:11</time>
      </trkpt>
      <trkpt lat="42.6572" lon="1.07799">
        <ele>1193.4</ele>
        <time>2022-05-22 19:46:12</time>
      </trkpt>
      <trkpt lat="42.65718" lon="1.07801">
        <ele>1193.6</ele>
        <time>2022-05-22 19:46:13</time>
      </trkpt>
      <trkpt lat="42.65717" lon="1.07803">
        <ele>1193.8</ele>
        <time>2022-05-22 19:46:14</time>
      </trkpt>
      <trkpt lat="42.65715" lon="1.07804">
        <ele>1194</ele>
        <time>2022-05-22 19:46:15</time>
      </trkpt>
      <trkpt lat="42.65714" lon="1.07805">
        <ele>1194</ele>
        <time>2022-05-22 19:46:16</time>
      </trkpt>
      <trkpt lat="42.65713" lon="1.07807">
        <ele>1194.2</ele>
        <time>2022-05-22 19:46:17</time>
      </trkpt>
      <trkpt lat="42.65711" lon="1.07809">
        <ele>1194.4</ele>
        <time>2022-05-22 19:46:18</time>
      </trkpt>
      <trkpt lat="42.6571" lon="1.07811">
        <ele>1194.6</ele>
        <time>2022-05-22 19:46:19</time>
      </trkpt>
      <trkpt lat="42.65708" lon="1.07813">
        <ele>1194.8</ele>
        <time>2022-05-22 19:46:20</time>
      </trkpt>
      <trkpt lat="42.65707" lon="1.07815">
        <ele>1195</ele>
        <time>2022-05-22 19:46:21</time>
      </trkpt>
      <trkpt lat="42.65705" lon="1.07816">
        <ele>1195.2</ele>
        <time>2022-05-22 19:46:22</time>
      </trkpt>
      <trkpt lat="42.65704" lon="1.07818">
        <ele>1195.4</ele>
        <time>2022-05-22 19:46:23</time>
      </trkpt>
      <trkpt lat="42.65702" lon="1.0782">
        <ele>1195.6</ele>
        <time>2022-05-22 19:46:24</time>
      </trkpt>
      <trkpt lat="42.65701" lon="1.07822">
        <ele>1195.6</ele>
        <time>2022-05-22 19:46:25</time>
      </trkpt>
      <trkpt lat="42.657" lon="1.07824">
        <ele>1195.8</ele>
        <time>2022-05-22 19:46:26</time>
      </trkpt>
      <trkpt lat="42.65699" lon="1.07826">
        <ele>1196</ele>
        <time>2022-05-22 19:46:27</time>
      </trkpt>
      <trkpt lat="42.65698" lon="1.07828">
        <ele>1196</ele>
        <time>2022-05-22 19:46:28</time>
      </trkpt>
      <trkpt lat="42.65696" lon="1.0783">
        <ele>1196.2</ele>
        <time>2022-05-22 19:46:29</time>
      </trkpt>
      <trkpt lat="42.65695" lon="1.07831">
        <ele>1196.4</ele>
        <time>2022-05-22 19:46:30</time>
      </trkpt>
      <trkpt lat="42.65694" lon="1.07833">
        <ele>1196.4</ele>
        <time>2022-05-22 19:46:31</time>
      </trkpt>
      <trkpt lat="42.65693" lon="1.07835">
        <ele>1196.6</ele>
        <time>2022-05-22 19:46:32</time>
      </trkpt>
      <trkpt lat="42.65691" lon="1.07837">
        <ele>1196.8</ele>
        <time>2022-05-22 19:46:33</time>
      </trkpt>
      <trkpt lat="42.6569" lon="1.07839">
        <ele>1196.8</ele>
        <time>2022-05-22 19:46:34</time>
      </trkpt>
      <trkpt lat="42.65689" lon="1.07841">
        <ele>1197</ele>
        <time>2022-05-22 19:46:35</time>
      </trkpt>
      <trkpt lat="42.65688" lon="1.07844">
        <ele>1197.2</ele>
        <time>2022-05-22 19:46:36</time>
      </trkpt>
      <trkpt lat="42.65686" lon="1.07846">
        <ele>1197.4</ele>
        <time>2022-05-22 19:46:37</time>
      </trkpt>
      <trkpt lat="42.65685" lon="1.07847">
        <ele>1197.6</ele>
        <time>2022-05-22 19:46:38</time>
      </trkpt>
      <trkpt lat="42.65684" lon="1.07849">
        <ele>1197.8</ele>
        <time>2022-05-22 19:46:39</time>
      </trkpt>
      <trkpt lat="42.65683" lon="1.07851">
        <ele>1197.8</ele>
        <time>2022-05-22 19:46:40</time>
      </trkpt>
      <trkpt lat="42.65682" lon="1.07853">
        <ele>1198</ele>
        <time>2022-05-22 19:46:41</time>
      </trkpt>
      <trkpt lat="42.6568" lon="1.07855">
        <ele>1198.2</ele>
        <time>2022-05-22 19:46:42</time>
      </trkpt>
      <trkpt lat="42.65679" lon="1.07857">
        <ele>1198.4</ele>
        <time>2022-05-22 19:46:43</time>
      </trkpt>
      <trkpt lat="42.65678" lon="1.07859">
        <ele>1198.6</ele>
        <time>2022-05-22 19:46:44</time>
      </trkpt>
      <trkpt lat="42.65677" lon="1.07861">
        <ele>1198.8</ele>
        <time>2022-05-22 19:46:45</time>
      </trkpt>
      <trkpt lat="42.65676" lon="1.07863">
        <ele>1199</ele>
        <time>2022-05-22 19:46:46</time>
      </trkpt>
      <trkpt lat="42.65675" lon="1.07865">
        <ele>1199.2</ele>
        <time>2022-05-22 19:46:47</time>
      </trkpt>
      <trkpt lat="42.65674" lon="1.07867">
        <ele>1199.2</ele>
        <time>2022-05-22 19:46:48</time>
      </trkpt>
      <trkpt lat="42.65673" lon="1.07869">
        <ele>1199.4</ele>
        <time>2022-05-22 19:46:49</time>
      </trkpt>
      <trkpt lat="42.65673" lon="1.07871">
        <ele>1199.6</ele>
        <time>2022-05-22 19:46:50</time>
      </trkpt>
      <trkpt lat="42.65672" lon="1.07873">
        <ele>1199.8</ele>
        <time>2022-05-22 19:46:51</time>
      </trkpt>
      <trkpt lat="42.65671" lon="1.07874">
        <ele>1200</ele>
        <time>2022-05-22 19:46:52</time>
      </trkpt>
      <trkpt lat="42.65671" lon="1.07876">
        <ele>1200.2</ele>
        <time>2022-05-22 19:46:53</time>
      </trkpt>
      <trkpt lat="42.6567" lon="1.07879">
        <ele>1200.2</ele>
        <time>2022-05-22 19:46:54</time>
      </trkpt>
      <trkpt lat="42.65669" lon="1.0788">
        <ele>1200.4</ele>
        <time>2022-05-22 19:46:55</time>
      </trkpt>
      <trkpt lat="42.65668" lon="1.07882">
        <ele>1200.6</ele>
        <time>2022-05-22 19:46:56</time>
      </trkpt>
      <trkpt lat="42.65667" lon="1.07884">
        <ele>1200.6</ele>
        <time>2022-05-22 19:46:57</time>
      </trkpt>
      <trkpt lat="42.65666" lon="1.07886">
        <ele>1200.8</ele>
        <time>2022-05-22 19:46:58</time>
      </trkpt>
      <trkpt lat="42.65665" lon="1.07888">
        <ele>1201</ele>
        <time>2022-05-22 19:46:59</time>
      </trkpt>
      <trkpt lat="42.65664" lon="1.0789">
        <ele>1201.2</ele>
        <time>2022-05-22 19:47:00</time>
      </trkpt>
      <trkpt lat="42.65663" lon="1.07893">
        <ele>1201.2</ele>
        <time>2022-05-22 19:47:01</time>
      </trkpt>
      <trkpt lat="42.65662" lon="1.07895">
        <ele>1201.4</ele>
        <time>2022-05-22 19:47:02</time>
      </trkpt>
      <trkpt lat="42.65661" lon="1.07897">
        <ele>1201.6</ele>
        <time>2022-05-22 19:47:03</time>
      </trkpt>
      <trkpt lat="42.6566" lon="1.079">
        <ele>1201.6</ele>
        <time>2022-05-22 19:47:04</time>
      </trkpt>
      <trkpt lat="42.65659" lon="1.07902">
        <ele>1201.8</ele>
        <time>2022-05-22 19:47:05</time>
      </trkpt>
      <trkpt lat="42.65659" lon="1.07905">
        <ele>1201.8</ele>
        <time>2022-05-22 19:47:06</time>
      </trkpt>
      <trkpt lat="42.65658" lon="1.07907">
        <ele>1202</ele>
        <time>2022-05-22 19:47:07</time>
      </trkpt>
      <trkpt lat="42.65657" lon="1.0791">
        <ele>1202</ele>
        <time>2022-05-22 19:47:08</time>
      </trkpt>
      <trkpt lat="42.65656" lon="1.07912">
        <ele>1202.2</ele>
        <time>2022-05-22 19:47:09</time>
      </trkpt>
      <trkpt lat="42.65655" lon="1.07914">
        <ele>1202.4</ele>
        <time>2022-05-22 19:47:10</time>
      </trkpt>
      <trkpt lat="42.65654" lon="1.07916">
        <ele>1202.4</ele>
        <time>2022-05-22 19:47:11</time>
      </trkpt>
      <trkpt lat="42.65653" lon="1.07919">
        <ele>1202.6</ele>
        <time>2022-05-22 19:47:12</time>
      </trkpt>
      <trkpt lat="42.65652" lon="1.07921">
        <ele>1202.8</ele>
        <time>2022-05-22 19:47:13</time>
      </trkpt>
      <trkpt lat="42.6565" lon="1.07923">
        <ele>1202.8</ele>
        <time>2022-05-22 19:47:14</time>
      </trkpt>
      <trkpt lat="42.65649" lon="1.07925">
        <ele>1203</ele>
        <time>2022-05-22 19:47:15</time>
      </trkpt>
      <trkpt lat="42.65648" lon="1.07927">
        <ele>1203</ele>
        <time>2022-05-22 19:47:16</time>
      </trkpt>
      <trkpt lat="42.65647" lon="1.0793">
        <ele>1203.2</ele>
        <time>2022-05-22 19:47:17</time>
      </trkpt>
      <trkpt lat="42.65646" lon="1.07932">
        <ele>1203.2</ele>
        <time>2022-05-22 19:47:18</time>
      </trkpt>
      <trkpt lat="42.65645" lon="1.07935">
        <ele>1203.4</ele>
        <time>2022-05-22 19:47:19</time>
      </trkpt>
      <trkpt lat="42.65643" lon="1.07937">
        <ele>1203.6</ele>
        <time>2022-05-22 19:47:20</time>
      </trkpt>
      <trkpt lat="42.65642" lon="1.0794">
        <ele>1203.6</ele>
        <time>2022-05-22 19:47:21</time>
      </trkpt>
      <trkpt lat="42.65641" lon="1.07942">
        <ele>1203.8</ele>
        <time>2022-05-22 19:47:22</time>
      </trkpt>
      <trkpt lat="42.6564" lon="1.07945">
        <ele>1203.8</ele>
        <time>2022-05-22 19:47:23</time>
      </trkpt>
      <trkpt lat="42.65639" lon="1.07948">
        <ele>1203.8</ele>
        <time>2022-05-22 19:47:24</time>
      </trkpt>
      <trkpt lat="42.65638" lon="1.0795">
        <ele>1204</ele>
        <time>2022-05-22 19:47:25</time>
      </trkpt>
      <trkpt lat="42.65637" lon="1.07953">
        <ele>1204</ele>
        <time>2022-05-22 19:47:26</time>
      </trkpt>
      <trkpt lat="42.65636" lon="1.07955">
        <ele>1204.2</ele>
        <time>2022-05-22 19:47:27</time>
      </trkpt>
      <trkpt lat="42.65635" lon="1.07958">
        <ele>1204.2</ele>
        <time>2022-05-22 19:47:28</time>
      </trkpt>
      <trkpt lat="42.65634" lon="1.0796">
        <ele>1204.4</ele>
        <time>2022-05-22 19:47:29</time>
      </trkpt>
      <trkpt lat="42.65632" lon="1.07963">
        <ele>1204.4</ele>
        <time>2022-05-22 19:47:30</time>
      </trkpt>
      <trkpt lat="42.65631" lon="1.07965">
        <ele>1204.6</ele>
        <time>2022-05-22 19:47:31</time>
      </trkpt>
      <trkpt lat="42.6563" lon="1.07968">
        <ele>1204.6</ele>
        <time>2022-05-22 19:47:32</time>
      </trkpt>
      <trkpt lat="42.65629" lon="1.07971">
        <ele>1204.8</ele>
        <time>2022-05-22 19:47:33</time>
      </trkpt>
      <trkpt lat="42.65628" lon="1.07973">
        <ele>1205</ele>
        <time>2022-05-22 19:47:34</time>
      </trkpt>
      <trkpt lat="42.65627" lon="1.07976">
        <ele>1205</ele>
        <time>2022-05-22 19:47:35</time>
      </trkpt>
      <trkpt lat="42.65626" lon="1.07979">
        <ele>1205.2</ele>
        <time>2022-05-22 19:47:36</time>
      </trkpt>
      <trkpt lat="42.65625" lon="1.07981">
        <ele>1205.4</ele>
        <time>2022-05-22 19:47:37</time>
      </trkpt>
      <trkpt lat="42.65624" lon="1.07984">
        <ele>1205.4</ele>
        <time>2022-05-22 19:47:38</time>
      </trkpt>
      <trkpt lat="42.65622" lon="1.07986">
        <ele>1205.6</ele>
        <time>2022-05-22 19:47:39</time>
      </trkpt>
      <trkpt lat="42.65621" lon="1.07988">
        <ele>1205.6</ele>
        <time>2022-05-22 19:47:40</time>
      </trkpt>
      <trkpt lat="42.6562" lon="1.07991">
        <ele>1205.8</ele>
        <time>2022-05-22 19:47:41</time>
      </trkpt>
      <trkpt lat="42.6562" lon="1.07993">
        <ele>1206</ele>
        <time>2022-05-22 19:47:42</time>
      </trkpt>
      <trkpt lat="42.65618" lon="1.07996">
        <ele>1206</ele>
        <time>2022-05-22 19:47:43</time>
      </trkpt>
      <trkpt lat="42.65617" lon="1.07998">
        <ele>1206.2</ele>
        <time>2022-05-22 19:47:44</time>
      </trkpt>
      <trkpt lat="42.65616" lon="1.08">
        <ele>1206.2</ele>
        <time>2022-05-22 19:47:45</time>
      </trkpt>
      <trkpt lat="42.65615" lon="1.08002">
        <ele>1206.4</ele>
        <time>2022-05-22 19:47:46</time>
      </trkpt>
      <trkpt lat="42.65614" lon="1.08005">
        <ele>1206.4</ele>
        <time>2022-05-22 19:47:47</time>
      </trkpt>
      <trkpt lat="42.65612" lon="1.08008">
        <ele>1206.4</ele>
        <time>2022-05-22 19:47:48</time>
      </trkpt>
      <trkpt lat="42.65611" lon="1.0801">
        <ele>1206.6</ele>
        <time>2022-05-22 19:47:49</time>
      </trkpt>
      <trkpt lat="42.6561" lon="1.08013">
        <ele>1206.6</ele>
        <time>2022-05-22 19:47:50</time>
      </trkpt>
      <trkpt lat="42.65609" lon="1.08016">
        <ele>1206.8</ele>
        <time>2022-05-22 19:47:51</time>
      </trkpt>
      <trkpt lat="42.65609" lon="1.08018">
        <ele>1207</ele>
        <time>2022-05-22 19:47:52</time>
      </trkpt>
      <trkpt lat="42.65607" lon="1.08021">
        <ele>1207</ele>
        <time>2022-05-22 19:47:53</time>
      </trkpt>
      <trkpt lat="42.65606" lon="1.08024">
        <ele>1207.2</ele>
        <time>2022-05-22 19:47:54</time>
      </trkpt>
      <trkpt lat="42.65605" lon="1.08027">
        <ele>1207.2</ele>
        <time>2022-05-22 19:47:55</time>
      </trkpt>
      <trkpt lat="42.65604" lon="1.08029">
        <ele>1207.4</ele>
        <time>2022-05-22 19:47:56</time>
      </trkpt>
      <trkpt lat="42.65603" lon="1.08032">
        <ele>1207.8</ele>
        <time>2022-05-22 19:47:57</time>
      </trkpt>
      <trkpt lat="42.65602" lon="1.08035">
        <ele>1208</ele>
        <time>2022-05-22 19:47:58</time>
      </trkpt>
      <trkpt lat="42.65601" lon="1.08038">
        <ele>1208.2</ele>
        <time>2022-05-22 19:47:59</time>
      </trkpt>
      <trkpt lat="42.65599" lon="1.08041">
        <ele>1208.4</ele>
        <time>2022-05-22 19:48:00</time>
      </trkpt>
      <trkpt lat="42.65598" lon="1.08044">
        <ele>1208.6</ele>
        <time>2022-05-22 19:48:01</time>
      </trkpt>
      <trkpt lat="42.65596" lon="1.08047">
        <ele>1208.6</ele>
        <time>2022-05-22 19:48:02</time>
      </trkpt>
      <trkpt lat="42.65595" lon="1.0805">
        <ele>1208.8</ele>
        <time>2022-05-22 19:48:03</time>
      </trkpt>
      <trkpt lat="42.65594" lon="1.08053">
        <ele>1209</ele>
        <time>2022-05-22 19:48:04</time>
      </trkpt>
      <trkpt lat="42.65592" lon="1.08056">
        <ele>1209</ele>
        <time>2022-05-22 19:48:05</time>
      </trkpt>
      <trkpt lat="42.65591" lon="1.08059">
        <ele>1209.2</ele>
        <time>2022-05-22 19:48:06</time>
      </trkpt>
      <trkpt lat="42.6559" lon="1.08062">
        <ele>1209.2</ele>
        <time>2022-05-22 19:48:07</time>
      </trkpt>
      <trkpt lat="42.65589" lon="1.08065">
        <ele>1209.2</ele>
        <time>2022-05-22 19:48:08</time>
      </trkpt>
      <trkpt lat="42.65588" lon="1.08067">
        <ele>1209.4</ele>
        <time>2022-05-22 19:48:09</time>
      </trkpt>
      <trkpt lat="42.65587" lon="1.08069">
        <ele>1209.4</ele>
        <time>2022-05-22 19:48:10</time>
      </trkpt>
      <trkpt lat="42.65586" lon="1.08072">
        <ele>1209.6</ele>
        <time>2022-05-22 19:48:11</time>
      </trkpt>
      <trkpt lat="42.65584" lon="1.08074">
        <ele>1209.6</ele>
        <time>2022-05-22 19:48:12</time>
      </trkpt>
      <trkpt lat="42.65583" lon="1.08077">
        <ele>1210</ele>
        <time>2022-05-22 19:48:13</time>
      </trkpt>
      <trkpt lat="42.65582" lon="1.0808">
        <ele>1210</ele>
        <time>2022-05-22 19:48:14</time>
      </trkpt>
      <trkpt lat="42.6558" lon="1.08083">
        <ele>1210.2</ele>
        <time>2022-05-22 19:48:15</time>
      </trkpt>
      <trkpt lat="42.65579" lon="1.08085">
        <ele>1210.4</ele>
        <time>2022-05-22 19:48:16</time>
      </trkpt>
      <trkpt lat="42.65577" lon="1.08088">
        <ele>1210.6</ele>
        <time>2022-05-22 19:48:17</time>
      </trkpt>
      <trkpt lat="42.65575" lon="1.08091">
        <ele>1210.8</ele>
        <time>2022-05-22 19:48:18</time>
      </trkpt>
      <trkpt lat="42.65574" lon="1.08093">
        <ele>1211</ele>
        <time>2022-05-22 19:48:19</time>
      </trkpt>
      <trkpt lat="42.65573" lon="1.08095">
        <ele>1211</ele>
        <time>2022-05-22 19:48:20</time>
      </trkpt>
      <trkpt lat="42.65571" lon="1.08098">
        <ele>1211.2</ele>
        <time>2022-05-22 19:48:21</time>
      </trkpt>
      <trkpt lat="42.65569" lon="1.08101">
        <ele>1211.2</ele>
        <time>2022-05-22 19:48:22</time>
      </trkpt>
      <trkpt lat="42.65568" lon="1.08104">
        <ele>1211.4</ele>
        <time>2022-05-22 19:48:23</time>
      </trkpt>
      <trkpt lat="42.65567" lon="1.08106">
        <ele>1211.4</ele>
        <time>2022-05-22 19:48:24</time>
      </trkpt>
      <trkpt lat="42.65566" lon="1.08109">
        <ele>1211.6</ele>
        <time>2022-05-22 19:48:25</time>
      </trkpt>
      <trkpt lat="42.65564" lon="1.08112">
        <ele>1211.8</ele>
        <time>2022-05-22 19:48:26</time>
      </trkpt>
      <trkpt lat="42.65563" lon="1.08114">
        <ele>1211.8</ele>
        <time>2022-05-22 19:48:27</time>
      </trkpt>
      <trkpt lat="42.65562" lon="1.08116">
        <ele>1212</ele>
        <time>2022-05-22 19:48:28</time>
      </trkpt>
      <trkpt lat="42.6556" lon="1.08119">
        <ele>1212.2</ele>
        <time>2022-05-22 19:48:29</time>
      </trkpt>
      <trkpt lat="42.65559" lon="1.08121">
        <ele>1212.2</ele>
        <time>2022-05-22 19:48:30</time>
      </trkpt>
      <trkpt lat="42.65558" lon="1.08124">
        <ele>1212.4</ele>
        <time>2022-05-22 19:48:31</time>
      </trkpt>
      <trkpt lat="42.65557" lon="1.08126">
        <ele>1212.4</ele>
        <time>2022-05-22 19:48:32</time>
      </trkpt>
      <trkpt lat="42.65556" lon="1.08129">
        <ele>1212.6</ele>
        <time>2022-05-22 19:48:33</time>
      </trkpt>
      <trkpt lat="42.65554" lon="1.08132">
        <ele>1212.6</ele>
        <time>2022-05-22 19:48:34</time>
      </trkpt>
      <trkpt lat="42.65554" lon="1.08134">
        <ele>1212.8</ele>
        <time>2022-05-22 19:48:35</time>
      </trkpt>
      <trkpt lat="42.65553" lon="1.08137">
        <ele>1213</ele>
        <time>2022-05-22 19:48:36</time>
      </trkpt>
      <trkpt lat="42.65552" lon="1.0814">
        <ele>1213</ele>
        <time>2022-05-22 19:48:37</time>
      </trkpt>
      <trkpt lat="42.6555" lon="1.08141">
        <ele>1213.2</ele>
        <time>2022-05-22 19:48:38</time>
      </trkpt>
      <trkpt lat="42.65549" lon="1.08143">
        <ele>1213.2</ele>
        <time>2022-05-22 19:48:39</time>
      </trkpt>
      <trkpt lat="42.65547" lon="1.08145">
        <ele>1213.4</ele>
        <time>2022-05-22 19:48:40</time>
      </trkpt>
      <trkpt lat="42.65546" lon="1.08147">
        <ele>1213.4</ele>
        <time>2022-05-22 19:48:41</time>
      </trkpt>
      <trkpt lat="42.65544" lon="1.08149">
        <ele>1213.6</ele>
        <time>2022-05-22 19:48:42</time>
      </trkpt>
      <trkpt lat="42.65543" lon="1.08152">
        <ele>1213.8</ele>
        <time>2022-05-22 19:48:43</time>
      </trkpt>
      <trkpt lat="42.65542" lon="1.08154">
        <ele>1213.8</ele>
        <time>2022-05-22 19:48:44</time>
      </trkpt>
      <trkpt lat="42.65541" lon="1.08155">
        <ele>1214</ele>
        <time>2022-05-22 19:48:45</time>
      </trkpt>
      <trkpt lat="42.65539" lon="1.08157">
        <ele>1214.2</ele>
        <time>2022-05-22 19:48:46</time>
      </trkpt>
      <trkpt lat="42.65538" lon="1.08159">
        <ele>1214.2</ele>
        <time>2022-05-22 19:48:47</time>
      </trkpt>
      <trkpt lat="42.65536" lon="1.08161">
        <ele>1214.4</ele>
        <time>2022-05-22 19:48:48</time>
      </trkpt>
      <trkpt lat="42.65535" lon="1.08163">
        <ele>1214.4</ele>
        <time>2022-05-22 19:48:49</time>
      </trkpt>
      <trkpt lat="42.65534" lon="1.08165">
        <ele>1214.6</ele>
        <time>2022-05-22 19:48:50</time>
      </trkpt>
      <trkpt lat="42.65533" lon="1.08167">
        <ele>1214.6</ele>
        <time>2022-05-22 19:48:51</time>
      </trkpt>
      <trkpt lat="42.65531" lon="1.08169">
        <ele>1214.8</ele>
        <time>2022-05-22 19:48:52</time>
      </trkpt>
      <trkpt lat="42.6553" lon="1.0817">
        <ele>1214.8</ele>
        <time>2022-05-22 19:48:53</time>
      </trkpt>
      <trkpt lat="42.65528" lon="1.08172">
        <ele>1215</ele>
        <time>2022-05-22 19:48:54</time>
      </trkpt>
      <trkpt lat="42.65527" lon="1.08173">
        <ele>1215</ele>
        <time>2022-05-22 19:48:55</time>
      </trkpt>
      <trkpt lat="42.65525" lon="1.08175">
        <ele>1215.2</ele>
        <time>2022-05-22 19:48:56</time>
      </trkpt>
      <trkpt lat="42.65524" lon="1.08176">
        <ele>1215.2</ele>
        <time>2022-05-22 19:48:57</time>
      </trkpt>
      <trkpt lat="42.65522" lon="1.08178">
        <ele>1215.2</ele>
        <time>2022-05-22 19:48:58</time>
      </trkpt>
      <trkpt lat="42.65521" lon="1.0818">
        <ele>1215.4</ele>
        <time>2022-05-22 19:48:59</time>
      </trkpt>
      <trkpt lat="42.65519" lon="1.08182">
        <ele>1215.4</ele>
        <time>2022-05-22 19:49:00</time>
      </trkpt>
      <trkpt lat="42.65518" lon="1.08184">
        <ele>1215.6</ele>
        <time>2022-05-22 19:49:01</time>
      </trkpt>
      <trkpt lat="42.65517" lon="1.08185">
        <ele>1215.6</ele>
        <time>2022-05-22 19:49:02</time>
      </trkpt>
      <trkpt lat="42.65515" lon="1.08186">
        <ele>1215.8</ele>
        <time>2022-05-22 19:49:03</time>
      </trkpt>
      <trkpt lat="42.65513" lon="1.08188">
        <ele>1215.8</ele>
        <time>2022-05-22 19:49:04</time>
      </trkpt>
      <trkpt lat="42.65512" lon="1.0819">
        <ele>1216</ele>
        <time>2022-05-22 19:49:05</time>
      </trkpt>
      <trkpt lat="42.65511" lon="1.08192">
        <ele>1216</ele>
        <time>2022-05-22 19:49:06</time>
      </trkpt>
      <trkpt lat="42.6551" lon="1.08193">
        <ele>1216.2</ele>
        <time>2022-05-22 19:49:07</time>
      </trkpt>
      <trkpt lat="42.65508" lon="1.08194">
        <ele>1216.4</ele>
        <time>2022-05-22 19:49:08</time>
      </trkpt>
      <trkpt lat="42.65506" lon="1.08195">
        <ele>1216.6</ele>
        <time>2022-05-22 19:49:09</time>
      </trkpt>
      <trkpt lat="42.65505" lon="1.08196">
        <ele>1216.8</ele>
        <time>2022-05-22 19:49:10</time>
      </trkpt>
      <trkpt lat="42.65503" lon="1.08196">
        <ele>1216.8</ele>
        <time>2022-05-22 19:49:11</time>
      </trkpt>
      <trkpt lat="42.65502" lon="1.08197">
        <ele>1217</ele>
        <time>2022-05-22 19:49:12</time>
      </trkpt>
      <trkpt lat="42.655" lon="1.08198">
        <ele>1217.2</ele>
        <time>2022-05-22 19:49:13</time>
      </trkpt>
      <trkpt lat="42.65499" lon="1.08199">
        <ele>1217.4</ele>
        <time>2022-05-22 19:49:14</time>
      </trkpt>
      <trkpt lat="42.65497" lon="1.082">
        <ele>1217.6</ele>
        <time>2022-05-22 19:49:15</time>
      </trkpt>
      <trkpt lat="42.65496" lon="1.08201">
        <ele>1217.8</ele>
        <time>2022-05-22 19:49:16</time>
      </trkpt>
      <trkpt lat="42.65495" lon="1.08202">
        <ele>1218</ele>
        <time>2022-05-22 19:49:17</time>
      </trkpt>
      <trkpt lat="42.65493" lon="1.08203">
        <ele>1218.2</ele>
        <time>2022-05-22 19:49:18</time>
      </trkpt>
      <trkpt lat="42.65492" lon="1.08204">
        <ele>1218.4</ele>
        <time>2022-05-22 19:49:19</time>
      </trkpt>
      <trkpt lat="42.6549" lon="1.08206">
        <ele>1218.6</ele>
        <time>2022-05-22 19:49:20</time>
      </trkpt>
      <trkpt lat="42.65488" lon="1.08207">
        <ele>1218.8</ele>
        <time>2022-05-22 19:49:21</time>
      </trkpt>
      <trkpt lat="42.65487" lon="1.08208">
        <ele>1219</ele>
        <time>2022-05-22 19:49:22</time>
      </trkpt>
      <trkpt lat="42.65485" lon="1.08209">
        <ele>1219.2</ele>
        <time>2022-05-22 19:49:23</time>
      </trkpt>
      <trkpt lat="42.65483" lon="1.0821">
        <ele>1219.4</ele>
        <time>2022-05-22 19:49:24</time>
      </trkpt>
      <trkpt lat="42.65482" lon="1.08211">
        <ele>1219.6</ele>
        <time>2022-05-22 19:49:25</time>
      </trkpt>
      <trkpt lat="42.6548" lon="1.08212">
        <ele>1219.6</ele>
        <time>2022-05-22 19:49:26</time>
      </trkpt>
      <trkpt lat="42.65479" lon="1.08213">
        <ele>1219.8</ele>
        <time>2022-05-22 19:49:27</time>
      </trkpt>
      <trkpt lat="42.65477" lon="1.08213">
        <ele>1220</ele>
        <time>2022-05-22 19:49:28</time>
      </trkpt>
      <trkpt lat="42.65476" lon="1.08214">
        <ele>1220.2</ele>
        <time>2022-05-22 19:49:29</time>
      </trkpt>
      <trkpt lat="42.65474" lon="1.08215">
        <ele>1220.4</ele>
        <time>2022-05-22 19:49:30</time>
      </trkpt>
      <trkpt lat="42.65473" lon="1.08215">
        <ele>1220.6</ele>
        <time>2022-05-22 19:49:31</time>
      </trkpt>
      <trkpt lat="42.65471" lon="1.08216">
        <ele>1220.8</ele>
        <time>2022-05-22 19:49:32</time>
      </trkpt>
      <trkpt lat="42.6547" lon="1.08217">
        <ele>1220.8</ele>
        <time>2022-05-22 19:49:33</time>
      </trkpt>
      <trkpt lat="42.65468" lon="1.08218">
        <ele>1221</ele>
        <time>2022-05-22 19:49:34</time>
      </trkpt>
      <trkpt lat="42.65467" lon="1.08219">
        <ele>1221.2</ele>
        <time>2022-05-22 19:49:35</time>
      </trkpt>
      <trkpt lat="42.65465" lon="1.0822">
        <ele>1221.4</ele>
        <time>2022-05-22 19:49:36</time>
      </trkpt>
      <trkpt lat="42.65464" lon="1.08221">
        <ele>1221.6</ele>
        <time>2022-05-22 19:49:37</time>
      </trkpt>
      <trkpt lat="42.65463" lon="1.08222">
        <ele>1221.8</ele>
        <time>2022-05-22 19:49:38</time>
      </trkpt>
      <trkpt lat="42.65461" lon="1.08223">
        <ele>1222.2</ele>
        <time>2022-05-22 19:49:39</time>
      </trkpt>
      <trkpt lat="42.65459" lon="1.08224">
        <ele>1222.4</ele>
        <time>2022-05-22 19:49:40</time>
      </trkpt>
      <trkpt lat="42.65458" lon="1.08225">
        <ele>1222.6</ele>
        <time>2022-05-22 19:49:41</time>
      </trkpt>
      <trkpt lat="42.65456" lon="1.08226">
        <ele>1222.8</ele>
        <time>2022-05-22 19:49:42</time>
      </trkpt>
      <trkpt lat="42.65455" lon="1.08227">
        <ele>1222.8</ele>
        <time>2022-05-22 19:49:43</time>
      </trkpt>
      <trkpt lat="42.65453" lon="1.08227">
        <ele>1223</ele>
        <time>2022-05-22 19:49:44</time>
      </trkpt>
      <trkpt lat="42.65451" lon="1.08227">
        <ele>1223.2</ele>
        <time>2022-05-22 19:49:45</time>
      </trkpt>
      <trkpt lat="42.6545" lon="1.08228">
        <ele>1223.4</ele>
        <time>2022-05-22 19:49:46</time>
      </trkpt>
      <trkpt lat="42.65448" lon="1.08228">
        <ele>1223.6</ele>
        <time>2022-05-22 19:49:47</time>
      </trkpt>
      <trkpt lat="42.65447" lon="1.08229">
        <ele>1223.8</ele>
        <time>2022-05-22 19:49:48</time>
      </trkpt>
      <trkpt lat="42.65445" lon="1.0823">
        <ele>1224</ele>
        <time>2022-05-22 19:49:49</time>
      </trkpt>
      <trkpt lat="42.65443" lon="1.0823">
        <ele>1224.2</ele>
        <time>2022-05-22 19:49:50</time>
      </trkpt>
      <trkpt lat="42.65442" lon="1.08231">
        <ele>1224.2</ele>
        <time>2022-05-22 19:49:51</time>
      </trkpt>
      <trkpt lat="42.65441" lon="1.08232">
        <ele>1224.4</ele>
        <time>2022-05-22 19:49:52</time>
      </trkpt>
      <trkpt lat="42.65439" lon="1.08233">
        <ele>1224.6</ele>
        <time>2022-05-22 19:49:53</time>
      </trkpt>
      <trkpt lat="42.65438" lon="1.08234">
        <ele>1224.8</ele>
        <time>2022-05-22 19:49:54</time>
      </trkpt>
      <trkpt lat="42.65436" lon="1.08235">
        <ele>1225</ele>
        <time>2022-05-22 19:49:55</time>
      </trkpt>
      <trkpt lat="42.65435" lon="1.08237">
        <ele>1225.2</ele>
        <time>2022-05-22 19:49:56</time>
      </trkpt>
      <trkpt lat="42.65433" lon="1.08238">
        <ele>1225.4</ele>
        <time>2022-05-22 19:49:57</time>
      </trkpt>
      <trkpt lat="42.65432" lon="1.08239">
        <ele>1225.6</ele>
        <time>2022-05-22 19:49:58</time>
      </trkpt>
      <trkpt lat="42.6543" lon="1.08239">
        <ele>1225.8</ele>
        <time>2022-05-22 19:49:59</time>
      </trkpt>
      <trkpt lat="42.65428" lon="1.0824">
        <ele>1226</ele>
        <time>2022-05-22 19:50:00</time>
      </trkpt>
      <trkpt lat="42.65427" lon="1.0824">
        <ele>1226.2</ele>
        <time>2022-05-22 19:50:01</time>
      </trkpt>
      <trkpt lat="42.65425" lon="1.08241">
        <ele>1226.4</ele>
        <time>2022-05-22 19:50:02</time>
      </trkpt>
      <trkpt lat="42.65424" lon="1.08242">
        <ele>1226.6</ele>
        <time>2022-05-22 19:50:03</time>
      </trkpt>
      <trkpt lat="42.65422" lon="1.08242">
        <ele>1226.6</ele>
        <time>2022-05-22 19:50:04</time>
      </trkpt>
      <trkpt lat="42.65421" lon="1.08243">
        <ele>1226.8</ele>
        <time>2022-05-22 19:50:05</time>
      </trkpt>
      <trkpt lat="42.65419" lon="1.08243">
        <ele>1227</ele>
        <time>2022-05-22 19:50:06</time>
      </trkpt>
      <trkpt lat="42.65418" lon="1.08244">
        <ele>1227.2</ele>
        <time>2022-05-22 19:50:07</time>
      </trkpt>
      <trkpt lat="42.65416" lon="1.08244">
        <ele>1227.4</ele>
        <time>2022-05-22 19:50:08</time>
      </trkpt>
      <trkpt lat="42.65415" lon="1.08244">
        <ele>1227.4</ele>
        <time>2022-05-22 19:50:09</time>
      </trkpt>
      <trkpt lat="42.65413" lon="1.08244">
        <ele>1227.6</ele>
        <time>2022-05-22 19:50:10</time>
      </trkpt>
      <trkpt lat="42.65412" lon="1.08244">
        <ele>1227.8</ele>
        <time>2022-05-22 19:50:11</time>
      </trkpt>
      <trkpt lat="42.6541" lon="1.08244">
        <ele>1228</ele>
        <time>2022-05-22 19:50:12</time>
      </trkpt>
      <trkpt lat="42.65409" lon="1.08244">
        <ele>1228</ele>
        <time>2022-05-22 19:50:13</time>
      </trkpt>
      <trkpt lat="42.65407" lon="1.08244">
        <ele>1228.2</ele>
        <time>2022-05-22 19:50:14</time>
      </trkpt>
      <trkpt lat="42.65406" lon="1.08244">
        <ele>1228.4</ele>
        <time>2022-05-22 19:50:15</time>
      </trkpt>
      <trkpt lat="42.65404" lon="1.08244">
        <ele>1228.6</ele>
        <time>2022-05-22 19:50:16</time>
      </trkpt>
      <trkpt lat="42.65402" lon="1.08244">
        <ele>1228.8</ele>
        <time>2022-05-22 19:50:17</time>
      </trkpt>
      <trkpt lat="42.65401" lon="1.08245">
        <ele>1229</ele>
        <time>2022-05-22 19:50:18</time>
      </trkpt>
      <trkpt lat="42.65399" lon="1.08245">
        <ele>1229.2</ele>
        <time>2022-05-22 19:50:19</time>
      </trkpt>
      <trkpt lat="42.65398" lon="1.08245">
        <ele>1229.4</ele>
        <time>2022-05-22 19:50:20</time>
      </trkpt>
      <trkpt lat="42.65396" lon="1.08245">
        <ele>1229.6</ele>
        <time>2022-05-22 19:50:21</time>
      </trkpt>
      <trkpt lat="42.65395" lon="1.08246">
        <ele>1229.8</ele>
        <time>2022-05-22 19:50:22</time>
      </trkpt>
      <trkpt lat="42.65393" lon="1.08246">
        <ele>1229.8</ele>
        <time>2022-05-22 19:50:23</time>
      </trkpt>
      <trkpt lat="42.65391" lon="1.08247">
        <ele>1230</ele>
        <time>2022-05-22 19:50:24</time>
      </trkpt>
      <trkpt lat="42.65389" lon="1.08247">
        <ele>1230.2</ele>
        <time>2022-05-22 19:50:25</time>
      </trkpt>
      <trkpt lat="42.65388" lon="1.08247">
        <ele>1230.4</ele>
        <time>2022-05-22 19:50:26</time>
      </trkpt>
      <trkpt lat="42.65386" lon="1.08247">
        <ele>1230.6</ele>
        <time>2022-05-22 19:50:27</time>
      </trkpt>
      <trkpt lat="42.65384" lon="1.08247">
        <ele>1230.8</ele>
        <time>2022-05-22 19:50:28</time>
      </trkpt>
      <trkpt lat="42.65382" lon="1.08247">
        <ele>1230.8</ele>
        <time>2022-05-22 19:50:29</time>
      </trkpt>
      <trkpt lat="42.65381" lon="1.08247">
        <ele>1231</ele>
        <time>2022-05-22 19:50:30</time>
      </trkpt>
      <trkpt lat="42.65379" lon="1.08247">
        <ele>1231.2</ele>
        <time>2022-05-22 19:50:31</time>
      </trkpt>
      <trkpt lat="42.65378" lon="1.08247">
        <ele>1231.4</ele>
        <time>2022-05-22 19:50:32</time>
      </trkpt>
      <trkpt lat="42.65376" lon="1.08248">
        <ele>1231.6</ele>
        <time>2022-05-22 19:50:33</time>
      </trkpt>
      <trkpt lat="42.65374" lon="1.08248">
        <ele>1231.6</ele>
        <time>2022-05-22 19:50:34</time>
      </trkpt>
      <trkpt lat="42.65373" lon="1.08248">
        <ele>1231.8</ele>
        <time>2022-05-22 19:50:35</time>
      </trkpt>
      <trkpt lat="42.65371" lon="1.08248">
        <ele>1232</ele>
        <time>2022-05-22 19:50:36</time>
      </trkpt>
      <trkpt lat="42.65369" lon="1.08247">
        <ele>1232</ele>
        <time>2022-05-22 19:50:37</time>
      </trkpt>
      <trkpt lat="42.65368" lon="1.08247">
        <ele>1232.2</ele>
        <time>2022-05-22 19:50:38</time>
      </trkpt>
      <trkpt lat="42.65367" lon="1.08248">
        <ele>1232.4</ele>
        <time>2022-05-22 19:50:39</time>
      </trkpt>
      <trkpt lat="42.65365" lon="1.08248">
        <ele>1232.6</ele>
        <time>2022-05-22 19:50:40</time>
      </trkpt>
      <trkpt lat="42.65363" lon="1.08248">
        <ele>1232.8</ele>
        <time>2022-05-22 19:50:41</time>
      </trkpt>
      <trkpt lat="42.65361" lon="1.08248">
        <ele>1232.8</ele>
        <time>2022-05-22 19:50:42</time>
      </trkpt>
      <trkpt lat="42.6536" lon="1.08248">
        <ele>1233</ele>
        <time>2022-05-22 19:50:43</time>
      </trkpt>
      <trkpt lat="42.65358" lon="1.08249">
        <ele>1233.2</ele>
        <time>2022-05-22 19:50:44</time>
      </trkpt>
      <trkpt lat="42.65356" lon="1.08249">
        <ele>1233.2</ele>
        <time>2022-05-22 19:50:45</time>
      </trkpt>
      <trkpt lat="42.65355" lon="1.08249">
        <ele>1233.4</ele>
        <time>2022-05-22 19:50:46</time>
      </trkpt>
      <trkpt lat="42.65353" lon="1.08249">
        <ele>1233.6</ele>
        <time>2022-05-22 19:50:47</time>
      </trkpt>
      <trkpt lat="42.65352" lon="1.08249">
        <ele>1233.8</ele>
        <time>2022-05-22 19:50:48</time>
      </trkpt>
      <trkpt lat="42.6535" lon="1.08249">
        <ele>1233.8</ele>
        <time>2022-05-22 19:50:49</time>
      </trkpt>
      <trkpt lat="42.65348" lon="1.08249">
        <ele>1234</ele>
        <time>2022-05-22 19:50:50</time>
      </trkpt>
      <trkpt lat="42.65347" lon="1.08249">
        <ele>1234.2</ele>
        <time>2022-05-22 19:50:51</time>
      </trkpt>
      <trkpt lat="42.65345" lon="1.08249">
        <ele>1234.4</ele>
        <time>2022-05-22 19:50:52</time>
      </trkpt>
      <trkpt lat="42.65344" lon="1.08249">
        <ele>1234.6</ele>
        <time>2022-05-22 19:50:53</time>
      </trkpt>
      <trkpt lat="42.65342" lon="1.08249">
        <ele>1234.6</ele>
        <time>2022-05-22 19:50:54</time>
      </trkpt>
      <trkpt lat="42.65341" lon="1.08249">
        <ele>1234.8</ele>
        <time>2022-05-22 19:50:55</time>
      </trkpt>
      <trkpt lat="42.65339" lon="1.08249">
        <ele>1235</ele>
        <time>2022-05-22 19:50:56</time>
      </trkpt>
      <trkpt lat="42.65338" lon="1.08249">
        <ele>1235.2</ele>
        <time>2022-05-22 19:50:57</time>
      </trkpt>
      <trkpt lat="42.65336" lon="1.08249">
        <ele>1235.4</ele>
        <time>2022-05-22 19:50:58</time>
      </trkpt>
      <trkpt lat="42.65334" lon="1.08249">
        <ele>1235.4</ele>
        <time>2022-05-22 19:50:59</time>
      </trkpt>
      <trkpt lat="42.65333" lon="1.0825">
        <ele>1235.6</ele>
        <time>2022-05-22 19:51:00</time>
      </trkpt>
      <trkpt lat="42.65331" lon="1.0825">
        <ele>1235.8</ele>
        <time>2022-05-22 19:51:01</time>
      </trkpt>
      <trkpt lat="42.6533" lon="1.0825">
        <ele>1236</ele>
        <time>2022-05-22 19:51:02</time>
      </trkpt>
      <trkpt lat="42.65328" lon="1.0825">
        <ele>1236.2</ele>
        <time>2022-05-22 19:51:03</time>
      </trkpt>
      <trkpt lat="42.65327" lon="1.0825">
        <ele>1236.2</ele>
        <time>2022-05-22 19:51:04</time>
      </trkpt>
      <trkpt lat="42.65325" lon="1.0825">
        <ele>1236.4</ele>
        <time>2022-05-22 19:51:05</time>
      </trkpt>
      <trkpt lat="42.65323" lon="1.0825">
        <ele>1236.6</ele>
        <time>2022-05-22 19:51:06</time>
      </trkpt>
      <trkpt lat="42.65322" lon="1.0825">
        <ele>1236.8</ele>
        <time>2022-05-22 19:51:07</time>
      </trkpt>
      <trkpt lat="42.6532" lon="1.0825">
        <ele>1236.8</ele>
        <time>2022-05-22 19:51:08</time>
      </trkpt>
      <trkpt lat="42.65319" lon="1.0825">
        <ele>1237</ele>
        <time>2022-05-22 19:51:09</time>
      </trkpt>
      <trkpt lat="42.65317" lon="1.0825">
        <ele>1237.2</ele>
        <time>2022-05-22 19:51:10</time>
      </trkpt>
      <trkpt lat="42.65316" lon="1.0825">
        <ele>1237.4</ele>
        <time>2022-05-22 19:51:11</time>
      </trkpt>
      <trkpt lat="42.65314" lon="1.08251">
        <ele>1237.6</ele>
        <time>2022-05-22 19:51:12</time>
      </trkpt>
      <trkpt lat="42.65313" lon="1.08251">
        <ele>1237.6</ele>
        <time>2022-05-22 19:51:13</time>
      </trkpt>
      <trkpt lat="42.65311" lon="1.08252">
        <ele>1237.8</ele>
        <time>2022-05-22 19:51:14</time>
      </trkpt>
      <trkpt lat="42.6531" lon="1.08252">
        <ele>1238</ele>
        <time>2022-05-22 19:51:15</time>
      </trkpt>
      <trkpt lat="42.65308" lon="1.08252">
        <ele>1238.2</ele>
        <time>2022-05-22 19:51:16</time>
      </trkpt>
      <trkpt lat="42.65307" lon="1.08252">
        <ele>1238.4</ele>
        <time>2022-05-22 19:51:17</time>
      </trkpt>
      <trkpt lat="42.65305" lon="1.08252">
        <ele>1238.6</ele>
        <time>2022-05-22 19:51:18</time>
      </trkpt>
      <trkpt lat="42.65303" lon="1.08252">
        <ele>1238.8</ele>
        <time>2022-05-22 19:51:19</time>
      </trkpt>
      <trkpt lat="42.65302" lon="1.08252">
        <ele>1238.8</ele>
        <time>2022-05-22 19:51:20</time>
      </trkpt>
      <trkpt lat="42.653" lon="1.08253">
        <ele>1239</ele>
        <time>2022-05-22 19:51:21</time>
      </trkpt>
      <trkpt lat="42.65299" lon="1.08253">
        <ele>1239.2</ele>
        <time>2022-05-22 19:51:22</time>
      </trkpt>
      <trkpt lat="42.65297" lon="1.08253">
        <ele>1239.4</ele>
        <time>2022-05-22 19:51:23</time>
      </trkpt>
      <trkpt lat="42.65296" lon="1.08253">
        <ele>1239.6</ele>
        <time>2022-05-22 19:51:24</time>
      </trkpt>
      <trkpt lat="42.65294" lon="1.08253">
        <ele>1239.6</ele>
        <time>2022-05-22 19:51:25</time>
      </trkpt>
      <trkpt lat="42.65293" lon="1.08253">
        <ele>1239.8</ele>
        <time>2022-05-22 19:51:26</time>
      </trkpt>
      <trkpt lat="42.65291" lon="1.08253">
        <ele>1240</ele>
        <time>2022-05-22 19:51:27</time>
      </trkpt>
      <trkpt lat="42.6529" lon="1.08253">
        <ele>1240.2</ele>
        <time>2022-05-22 19:51:28</time>
      </trkpt>
      <trkpt lat="42.65289" lon="1.08253">
        <ele>1240.4</ele>
        <time>2022-05-22 19:51:29</time>
      </trkpt>
      <trkpt lat="42.65287" lon="1.08252">
        <ele>1240.4</ele>
        <time>2022-05-22 19:51:30</time>
      </trkpt>
      <trkpt lat="42.65286" lon="1.08252">
        <ele>1240.6</ele>
        <time>2022-05-22 19:51:31</time>
      </trkpt>
      <trkpt lat="42.65284" lon="1.08252">
        <ele>1240.8</ele>
        <time>2022-05-22 19:51:32</time>
      </trkpt>
      <trkpt lat="42.65282" lon="1.08252">
        <ele>1241</ele>
        <time>2022-05-22 19:51:33</time>
      </trkpt>
      <trkpt lat="42.65281" lon="1.08252">
        <ele>1241.2</ele>
        <time>2022-05-22 19:51:34</time>
      </trkpt>
      <trkpt lat="42.65279" lon="1.08252">
        <ele>1241.2</ele>
        <time>2022-05-22 19:51:35</time>
      </trkpt>
      <trkpt lat="42.65278" lon="1.08253">
        <ele>1241.4</ele>
        <time>2022-05-22 19:51:36</time>
      </trkpt>
      <trkpt lat="42.65276" lon="1.08253">
        <ele>1241.6</ele>
        <time>2022-05-22 19:51:37</time>
      </trkpt>
      <trkpt lat="42.65274" lon="1.08253">
        <ele>1241.8</ele>
        <time>2022-05-22 19:51:38</time>
      </trkpt>
      <trkpt lat="42.65273" lon="1.08252">
        <ele>1241.8</ele>
        <time>2022-05-22 19:51:39</time>
      </trkpt>
      <trkpt lat="42.65271" lon="1.08252">
        <ele>1242</ele>
        <time>2022-05-22 19:51:40</time>
      </trkpt>
      <trkpt lat="42.6527" lon="1.08252">
        <ele>1242.2</ele>
        <time>2022-05-22 19:51:41</time>
      </trkpt>
      <trkpt lat="42.65268" lon="1.08251">
        <ele>1242.2</ele>
        <time>2022-05-22 19:51:42</time>
      </trkpt>
      <trkpt lat="42.65267" lon="1.08251">
        <ele>1242.4</ele>
        <time>2022-05-22 19:51:43</time>
      </trkpt>
      <trkpt lat="42.65265" lon="1.08251">
        <ele>1242.6</ele>
        <time>2022-05-22 19:51:44</time>
      </trkpt>
      <trkpt lat="42.65263" lon="1.08251">
        <ele>1242.8</ele>
        <time>2022-05-22 19:51:45</time>
      </trkpt>
      <trkpt lat="42.65262" lon="1.08251">
        <ele>1242.8</ele>
        <time>2022-05-22 19:51:46</time>
      </trkpt>
      <trkpt lat="42.6526" lon="1.08251">
        <ele>1243</ele>
        <time>2022-05-22 19:51:47</time>
      </trkpt>
      <trkpt lat="42.65259" lon="1.0825">
        <ele>1243.2</ele>
        <time>2022-05-22 19:51:48</time>
      </trkpt>
      <trkpt lat="42.65257" lon="1.0825">
        <ele>1243.2</ele>
        <time>2022-05-22 19:51:49</time>
      </trkpt>
      <trkpt lat="42.65255" lon="1.08249">
        <ele>1243.4</ele>
        <time>2022-05-22 19:51:50</time>
      </trkpt>
      <trkpt lat="42.65253" lon="1.08249">
        <ele>1243.6</ele>
        <time>2022-05-22 19:51:51</time>
      </trkpt>
      <trkpt lat="42.65252" lon="1.08248">
        <ele>1243.8</ele>
        <time>2022-05-22 19:51:52</time>
      </trkpt>
      <trkpt lat="42.6525" lon="1.08248">
        <ele>1243.8</ele>
        <time>2022-05-22 19:51:53</time>
      </trkpt>
      <trkpt lat="42.65249" lon="1.08247">
        <ele>1244</ele>
        <time>2022-05-22 19:51:54</time>
      </trkpt>
      <trkpt lat="42.65247" lon="1.08247">
        <ele>1244.2</ele>
        <time>2022-05-22 19:51:55</time>
      </trkpt>
      <trkpt lat="42.65245" lon="1.08247">
        <ele>1244.2</ele>
        <time>2022-05-22 19:51:56</time>
      </trkpt>
      <trkpt lat="42.65244" lon="1.08246">
        <ele>1244.4</ele>
        <time>2022-05-22 19:51:57</time>
      </trkpt>
      <trkpt lat="42.65242" lon="1.08246">
        <ele>1244.6</ele>
        <time>2022-05-22 19:51:58</time>
      </trkpt>
      <trkpt lat="42.6524" lon="1.08246">
        <ele>1244.8</ele>
        <time>2022-05-22 19:51:59</time>
      </trkpt>
      <trkpt lat="42.65239" lon="1.08245">
        <ele>1244.8</ele>
        <time>2022-05-22 19:52:00</time>
      </trkpt>
      <trkpt lat="42.65237" lon="1.08245">
        <ele>1245</ele>
        <time>2022-05-22 19:52:01</time>
      </trkpt>
      <trkpt lat="42.65236" lon="1.08245">
        <ele>1245.2</ele>
        <time>2022-05-22 19:52:02</time>
      </trkpt>
      <trkpt lat="42.65234" lon="1.08245">
        <ele>1245.4</ele>
        <time>2022-05-22 19:52:03</time>
      </trkpt>
      <trkpt lat="42.65232" lon="1.08245">
        <ele>1245.6</ele>
        <time>2022-05-22 19:52:04</time>
      </trkpt>
      <trkpt lat="42.65231" lon="1.08244">
        <ele>1245.6</ele>
        <time>2022-05-22 19:52:05</time>
      </trkpt>
      <trkpt lat="42.65229" lon="1.08243">
        <ele>1245.8</ele>
        <time>2022-05-22 19:52:06</time>
      </trkpt>
      <trkpt lat="42.65227" lon="1.08242">
        <ele>1245.8</ele>
        <time>2022-05-22 19:52:07</time>
      </trkpt>
      <trkpt lat="42.65225" lon="1.08241">
        <ele>1246</ele>
        <time>2022-05-22 19:52:08</time>
      </trkpt>
      <trkpt lat="42.65224" lon="1.0824">
        <ele>1246.2</ele>
        <time>2022-05-22 19:52:09</time>
      </trkpt>
      <trkpt lat="42.65222" lon="1.08239">
        <ele>1246.2</ele>
        <time>2022-05-22 19:52:10</time>
      </trkpt>
      <trkpt lat="42.6522" lon="1.08238">
        <ele>1246.4</ele>
        <time>2022-05-22 19:52:11</time>
      </trkpt>
      <trkpt lat="42.65218" lon="1.08238">
        <ele>1246.6</ele>
        <time>2022-05-22 19:52:12</time>
      </trkpt>
      <trkpt lat="42.65216" lon="1.08238">
        <ele>1246.8</ele>
        <time>2022-05-22 19:52:13</time>
      </trkpt>
      <trkpt lat="42.65215" lon="1.08237">
        <ele>1246.8</ele>
        <time>2022-05-22 19:52:14</time>
      </trkpt>
      <trkpt lat="42.65213" lon="1.08237">
        <ele>1247</ele>
        <time>2022-05-22 19:52:15</time>
      </trkpt>
      <trkpt lat="42.65212" lon="1.08236">
        <ele>1247.2</ele>
        <time>2022-05-22 19:52:16</time>
      </trkpt>
      <trkpt lat="42.6521" lon="1.08235">
        <ele>1247.4</ele>
        <time>2022-05-22 19:52:17</time>
      </trkpt>
      <trkpt lat="42.65209" lon="1.08234">
        <ele>1247.4</ele>
        <time>2022-05-22 19:52:18</time>
      </trkpt>
      <trkpt lat="42.65207" lon="1.08233">
        <ele>1247.6</ele>
        <time>2022-05-22 19:52:19</time>
      </trkpt>
      <trkpt lat="42.65206" lon="1.08232">
        <ele>1247.8</ele>
        <time>2022-05-22 19:52:20</time>
      </trkpt>
      <trkpt lat="42.65205" lon="1.08232">
        <ele>1248</ele>
        <time>2022-05-22 19:52:21</time>
      </trkpt>
      <trkpt lat="42.65203" lon="1.08231">
        <ele>1248</ele>
        <time>2022-05-22 19:52:22</time>
      </trkpt>
      <trkpt lat="42.65202" lon="1.0823">
        <ele>1248.2</ele>
        <time>2022-05-22 19:52:23</time>
      </trkpt>
      <trkpt lat="42.652" lon="1.08229">
        <ele>1248.4</ele>
        <time>2022-05-22 19:52:24</time>
      </trkpt>
      <trkpt lat="42.65198" lon="1.08228">
        <ele>1248.6</ele>
        <time>2022-05-22 19:52:25</time>
      </trkpt>
      <trkpt lat="42.65197" lon="1.08227">
        <ele>1248.6</ele>
        <time>2022-05-22 19:52:26</time>
      </trkpt>
      <trkpt lat="42.65195" lon="1.08226">
        <ele>1248.8</ele>
        <time>2022-05-22 19:52:27</time>
      </trkpt>
      <trkpt lat="42.65194" lon="1.08225">
        <ele>1248.8</ele>
        <time>2022-05-22 19:52:28</time>
      </trkpt>
      <trkpt lat="42.65192" lon="1.08224">
        <ele>1249</ele>
        <time>2022-05-22 19:52:29</time>
      </trkpt>
      <trkpt lat="42.65191" lon="1.08223">
        <ele>1249.2</ele>
        <time>2022-05-22 19:52:30</time>
      </trkpt>
      <trkpt lat="42.65189" lon="1.08222">
        <ele>1249.2</ele>
        <time>2022-05-22 19:52:31</time>
      </trkpt>
      <trkpt lat="42.65188" lon="1.08221">
        <ele>1249.4</ele>
        <time>2022-05-22 19:52:32</time>
      </trkpt>
      <trkpt lat="42.65186" lon="1.0822">
        <ele>1249.6</ele>
        <time>2022-05-22 19:52:33</time>
      </trkpt>
      <trkpt lat="42.65185" lon="1.08218">
        <ele>1249.8</ele>
        <time>2022-05-22 19:52:34</time>
      </trkpt>
      <trkpt lat="42.65184" lon="1.08217">
        <ele>1250</ele>
        <time>2022-05-22 19:52:35</time>
      </trkpt>
      <trkpt lat="42.65182" lon="1.08216">
        <ele>1250</ele>
        <time>2022-05-22 19:52:36</time>
      </trkpt>
      <trkpt lat="42.65181" lon="1.08215">
        <ele>1250.2</ele>
        <time>2022-05-22 19:52:37</time>
      </trkpt>
      <trkpt lat="42.65179" lon="1.08214">
        <ele>1250.4</ele>
        <time>2022-05-22 19:52:38</time>
      </trkpt>
      <trkpt lat="42.65178" lon="1.08213">
        <ele>1250.6</ele>
        <time>2022-05-22 19:52:39</time>
      </trkpt>
      <trkpt lat="42.65176" lon="1.08212">
        <ele>1250.6</ele>
        <time>2022-05-22 19:52:40</time>
      </trkpt>
      <trkpt lat="42.65175" lon="1.08211">
        <ele>1250.8</ele>
        <time>2022-05-22 19:52:41</time>
      </trkpt>
      <trkpt lat="42.65174" lon="1.0821">
        <ele>1251</ele>
        <time>2022-05-22 19:52:42</time>
      </trkpt>
      <trkpt lat="42.65172" lon="1.08209">
        <ele>1251</ele>
        <time>2022-05-22 19:52:43</time>
      </trkpt>
      <trkpt lat="42.65171" lon="1.08208">
        <ele>1251.2</ele>
        <time>2022-05-22 19:52:44</time>
      </trkpt>
      <trkpt lat="42.65169" lon="1.08207">
        <ele>1251.4</ele>
        <time>2022-05-22 19:52:45</time>
      </trkpt>
      <trkpt lat="42.65168" lon="1.08206">
        <ele>1251.6</ele>
        <time>2022-05-22 19:52:46</time>
      </trkpt>
      <trkpt lat="42.65166" lon="1.08205">
        <ele>1251.6</ele>
        <time>2022-05-22 19:52:47</time>
      </trkpt>
      <trkpt lat="42.65165" lon="1.08204">
        <ele>1251.8</ele>
        <time>2022-05-22 19:52:48</time>
      </trkpt>
      <trkpt lat="42.65163" lon="1.08203">
        <ele>1252</ele>
        <time>2022-05-22 19:52:49</time>
      </trkpt>
      <trkpt lat="42.65162" lon="1.08202">
        <ele>1252.2</ele>
        <time>2022-05-22 19:52:50</time>
      </trkpt>
      <trkpt lat="42.6516" lon="1.082">
        <ele>1252.2</ele>
        <time>2022-05-22 19:52:51</time>
      </trkpt>
      <trkpt lat="42.65159" lon="1.08199">
        <ele>1252.4</ele>
        <time>2022-05-22 19:52:52</time>
      </trkpt>
      <trkpt lat="42.65157" lon="1.08198">
        <ele>1252.6</ele>
        <time>2022-05-22 19:52:53</time>
      </trkpt>
      <trkpt lat="42.65156" lon="1.08197">
        <ele>1252.6</ele>
        <time>2022-05-22 19:52:54</time>
      </trkpt>
      <trkpt lat="42.65154" lon="1.08196">
        <ele>1252.8</ele>
        <time>2022-05-22 19:52:55</time>
      </trkpt>
      <trkpt lat="42.65153" lon="1.08195">
        <ele>1253</ele>
        <time>2022-05-22 19:52:56</time>
      </trkpt>
      <trkpt lat="42.65152" lon="1.08194">
        <ele>1253.2</ele>
        <time>2022-05-22 19:52:57</time>
      </trkpt>
      <trkpt lat="42.6515" lon="1.08193">
        <ele>1253.2</ele>
        <time>2022-05-22 19:52:58</time>
      </trkpt>
      <trkpt lat="42.65149" lon="1.08192">
        <ele>1253.4</ele>
        <time>2022-05-22 19:52:59</time>
      </trkpt>
      <trkpt lat="42.65147" lon="1.08191">
        <ele>1253.6</ele>
        <time>2022-05-22 19:53:00</time>
      </trkpt>
      <trkpt lat="42.65146" lon="1.0819">
        <ele>1253.6</ele>
        <time>2022-05-22 19:53:01</time>
      </trkpt>
      <trkpt lat="42.65144" lon="1.08189">
        <ele>1253.8</ele>
        <time>2022-05-22 19:53:02</time>
      </trkpt>
      <trkpt lat="42.65143" lon="1.08188">
        <ele>1254</ele>
        <time>2022-05-22 19:53:03</time>
      </trkpt>
      <trkpt lat="42.65141" lon="1.08186">
        <ele>1254</ele>
        <time>2022-05-22 19:53:04</time>
      </trkpt>
      <trkpt lat="42.6514" lon="1.08185">
        <ele>1254.2</ele>
        <time>2022-05-22 19:53:05</time>
      </trkpt>
      <trkpt lat="42.65138" lon="1.08184">
        <ele>1254.4</ele>
        <time>2022-05-22 19:53:06</time>
      </trkpt>
      <trkpt lat="42.65137" lon="1.08183">
        <ele>1254.6</ele>
        <time>2022-05-22 19:53:07</time>
      </trkpt>
      <trkpt lat="42.65136" lon="1.08182">
        <ele>1254.8</ele>
        <time>2022-05-22 19:53:08</time>
      </trkpt>
      <trkpt lat="42.65134" lon="1.08181">
        <ele>1254.8</ele>
        <time>2022-05-22 19:53:09</time>
      </trkpt>
      <trkpt lat="42.65133" lon="1.0818">
        <ele>1255</ele>
        <time>2022-05-22 19:53:10</time>
      </trkpt>
      <trkpt lat="42.65132" lon="1.08179">
        <ele>1255.2</ele>
        <time>2022-05-22 19:53:11</time>
      </trkpt>
      <trkpt lat="42.6513" lon="1.08178">
        <ele>1255.2</ele>
        <time>2022-05-22 19:53:12</time>
      </trkpt>
      <trkpt lat="42.65129" lon="1.08176">
        <ele>1255.4</ele>
        <time>2022-05-22 19:53:13</time>
      </trkpt>
      <trkpt lat="42.65127" lon="1.08175">
        <ele>1255.6</ele>
        <time>2022-05-22 19:53:14</time>
      </trkpt>
      <trkpt lat="42.65125" lon="1.08174">
        <ele>1255.8</ele>
        <time>2022-05-22 19:53:15</time>
      </trkpt>
      <trkpt lat="42.65124" lon="1.08174">
        <ele>1256</ele>
        <time>2022-05-22 19:53:16</time>
      </trkpt>
      <trkpt lat="42.65122" lon="1.08173">
        <ele>1256</ele>
        <time>2022-05-22 19:53:17</time>
      </trkpt>
      <trkpt lat="42.65121" lon="1.08172">
        <ele>1256.2</ele>
        <time>2022-05-22 19:53:18</time>
      </trkpt>
      <trkpt lat="42.65119" lon="1.08171">
        <ele>1256.4</ele>
        <time>2022-05-22 19:53:19</time>
      </trkpt>
      <trkpt lat="42.65118" lon="1.0817">
        <ele>1256.6</ele>
        <time>2022-05-22 19:53:20</time>
      </trkpt>
      <trkpt lat="42.65117" lon="1.08168">
        <ele>1256.6</ele>
        <time>2022-05-22 19:53:21</time>
      </trkpt>
      <trkpt lat="42.65115" lon="1.08167">
        <ele>1256.8</ele>
        <time>2022-05-22 19:53:22</time>
      </trkpt>
      <trkpt lat="42.65114" lon="1.08166">
        <ele>1257</ele>
        <time>2022-05-22 19:53:23</time>
      </trkpt>
      <trkpt lat="42.65112" lon="1.08164">
        <ele>1257</ele>
        <time>2022-05-22 19:53:24</time>
      </trkpt>
      <trkpt lat="42.6511" lon="1.08163">
        <ele>1257.2</ele>
        <time>2022-05-22 19:53:25</time>
      </trkpt>
      <trkpt lat="42.65109" lon="1.08162">
        <ele>1257.4</ele>
        <time>2022-05-22 19:53:26</time>
      </trkpt>
      <trkpt lat="42.65107" lon="1.08161">
        <ele>1257.6</ele>
        <time>2022-05-22 19:53:27</time>
      </trkpt>
      <trkpt lat="42.65105" lon="1.0816">
        <ele>1257.8</ele>
        <time>2022-05-22 19:53:28</time>
      </trkpt>
      <trkpt lat="42.65104" lon="1.08158">
        <ele>1258</ele>
        <time>2022-05-22 19:53:29</time>
      </trkpt>
      <trkpt lat="42.65102" lon="1.08157">
        <ele>1258</ele>
        <time>2022-05-22 19:53:30</time>
      </trkpt>
      <trkpt lat="42.65101" lon="1.08156">
        <ele>1258.2</ele>
        <time>2022-05-22 19:53:31</time>
      </trkpt>
      <trkpt lat="42.651" lon="1.08155">
        <ele>1258.4</ele>
        <time>2022-05-22 19:53:32</time>
      </trkpt>
      <trkpt lat="42.65098" lon="1.08154">
        <ele>1258.6</ele>
        <time>2022-05-22 19:53:33</time>
      </trkpt>
      <trkpt lat="42.65097" lon="1.08153">
        <ele>1259</ele>
        <time>2022-05-22 19:53:34</time>
      </trkpt>
      <trkpt lat="42.65095" lon="1.08153">
        <ele>1259.2</ele>
        <time>2022-05-22 19:53:35</time>
      </trkpt>
      <trkpt lat="42.65094" lon="1.08152">
        <ele>1259.4</ele>
        <time>2022-05-22 19:53:36</time>
      </trkpt>
      <trkpt lat="42.65092" lon="1.08151">
        <ele>1259.4</ele>
        <time>2022-05-22 19:53:37</time>
      </trkpt>
      <trkpt lat="42.65091" lon="1.0815">
        <ele>1259.6</ele>
        <time>2022-05-22 19:53:38</time>
      </trkpt>
      <trkpt lat="42.6509" lon="1.08148">
        <ele>1259.8</ele>
        <time>2022-05-22 19:53:39</time>
      </trkpt>
      <trkpt lat="42.65088" lon="1.08147">
        <ele>1260</ele>
        <time>2022-05-22 19:53:40</time>
      </trkpt>
      <trkpt lat="42.65087" lon="1.08146">
        <ele>1260.2</ele>
        <time>2022-05-22 19:53:41</time>
      </trkpt>
      <trkpt lat="42.65086" lon="1.08145">
        <ele>1260.4</ele>
        <time>2022-05-22 19:53:42</time>
      </trkpt>
      <trkpt lat="42.65085" lon="1.08144">
        <ele>1260.6</ele>
        <time>2022-05-22 19:53:43</time>
      </trkpt>
      <trkpt lat="42.65084" lon="1.08143">
        <ele>1260.8</ele>
        <time>2022-05-22 19:53:44</time>
      </trkpt>
      <trkpt lat="42.65082" lon="1.08142">
        <ele>1261</ele>
        <time>2022-05-22 19:53:45</time>
      </trkpt>
      <trkpt lat="42.65081" lon="1.08141">
        <ele>1261.2</ele>
        <time>2022-05-22 19:53:46</time>
      </trkpt>
      <trkpt lat="42.6508" lon="1.0814">
        <ele>1261.4</ele>
        <time>2022-05-22 19:53:47</time>
      </trkpt>
      <trkpt lat="42.65078" lon="1.08139">
        <ele>1261.6</ele>
        <time>2022-05-22 19:53:48</time>
      </trkpt>
      <trkpt lat="42.65077" lon="1.08138">
        <ele>1261.6</ele>
        <time>2022-05-22 19:53:49</time>
      </trkpt>
      <trkpt lat="42.65076" lon="1.08137">
        <ele>1262</ele>
        <time>2022-05-22 19:53:50</time>
      </trkpt>
      <trkpt lat="42.65074" lon="1.08135">
        <ele>1262.2</ele>
        <time>2022-05-22 19:53:51</time>
      </trkpt>
      <trkpt lat="42.65073" lon="1.08134">
        <ele>1262.4</ele>
        <time>2022-05-22 19:53:52</time>
      </trkpt>
      <trkpt lat="42.65072" lon="1.08133">
        <ele>1262.6</ele>
        <time>2022-05-22 19:53:53</time>
      </trkpt>
      <trkpt lat="42.6507" lon="1.08132">
        <ele>1262.8</ele>
        <time>2022-05-22 19:53:54</time>
      </trkpt>
      <trkpt lat="42.65069" lon="1.08132">
        <ele>1263</ele>
        <time>2022-05-22 19:53:55</time>
      </trkpt>
      <trkpt lat="42.65067" lon="1.08131">
        <ele>1263.2</ele>
        <time>2022-05-22 19:53:56</time>
      </trkpt>
      <trkpt lat="42.65066" lon="1.08131">
        <ele>1263.4</ele>
        <time>2022-05-22 19:53:57</time>
      </trkpt>
      <trkpt lat="42.65065" lon="1.0813">
        <ele>1263.4</ele>
        <time>2022-05-22 19:53:58</time>
      </trkpt>
      <trkpt lat="42.65063" lon="1.08129">
        <ele>1263.6</ele>
        <time>2022-05-22 19:53:59</time>
      </trkpt>
      <trkpt lat="42.65062" lon="1.08127">
        <ele>1263.8</ele>
        <time>2022-05-22 19:54:00</time>
      </trkpt>
      <trkpt lat="42.65061" lon="1.08126">
        <ele>1264</ele>
        <time>2022-05-22 19:54:01</time>
      </trkpt>
      <trkpt lat="42.6506" lon="1.08126">
        <ele>1264.2</ele>
        <time>2022-05-22 19:54:02</time>
      </trkpt>
      <trkpt lat="42.65059" lon="1.08125">
        <ele>1264.4</ele>
        <time>2022-05-22 19:54:03</time>
      </trkpt>
      <trkpt lat="42.65057" lon="1.08124">
        <ele>1264.6</ele>
        <time>2022-05-22 19:54:04</time>
      </trkpt>
      <trkpt lat="42.65056" lon="1.08122">
        <ele>1264.8</ele>
        <time>2022-05-22 19:54:05</time>
      </trkpt>
      <trkpt lat="42.65054" lon="1.08121">
        <ele>1265</ele>
        <time>2022-05-22 19:54:06</time>
      </trkpt>
      <trkpt lat="42.65053" lon="1.0812">
        <ele>1265.2</ele>
        <time>2022-05-22 19:54:07</time>
      </trkpt>
      <trkpt lat="42.65052" lon="1.08119">
        <ele>1265.4</ele>
        <time>2022-05-22 19:54:08</time>
      </trkpt>
      <trkpt lat="42.6505" lon="1.08118">
        <ele>1265.6</ele>
        <time>2022-05-22 19:54:09</time>
      </trkpt>
      <trkpt lat="42.65049" lon="1.08117">
        <ele>1265.6</ele>
        <time>2022-05-22 19:54:10</time>
      </trkpt>
      <trkpt lat="42.65048" lon="1.08116">
        <ele>1265.8</ele>
        <time>2022-05-22 19:54:11</time>
      </trkpt>
      <trkpt lat="42.65046" lon="1.08115">
        <ele>1266</ele>
        <time>2022-05-22 19:54:12</time>
      </trkpt>
      <trkpt lat="42.65044" lon="1.08114">
        <ele>1266.2</ele>
        <time>2022-05-22 19:54:13</time>
      </trkpt>
      <trkpt lat="42.65043" lon="1.08113">
        <ele>1266.4</ele>
        <time>2022-05-22 19:54:14</time>
      </trkpt>
      <trkpt lat="42.65042" lon="1.08112">
        <ele>1266.6</ele>
        <time>2022-05-22 19:54:15</time>
      </trkpt>
      <trkpt lat="42.6504" lon="1.08111">
        <ele>1266.8</ele>
        <time>2022-05-22 19:54:16</time>
      </trkpt>
      <trkpt lat="42.65039" lon="1.0811">
        <ele>1266.8</ele>
        <time>2022-05-22 19:54:17</time>
      </trkpt>
      <trkpt lat="42.65037" lon="1.08109">
        <ele>1267</ele>
        <time>2022-05-22 19:54:18</time>
      </trkpt>
      <trkpt lat="42.65036" lon="1.08108">
        <ele>1267.2</ele>
        <time>2022-05-22 19:54:19</time>
      </trkpt>
      <trkpt lat="42.65034" lon="1.08107">
        <ele>1267.4</ele>
        <time>2022-05-22 19:54:20</time>
      </trkpt>
      <trkpt lat="42.65033" lon="1.08107">
        <ele>1267.6</ele>
        <time>2022-05-22 19:54:21</time>
      </trkpt>
      <trkpt lat="42.65031" lon="1.08106">
        <ele>1267.8</ele>
        <time>2022-05-22 19:54:22</time>
      </trkpt>
      <trkpt lat="42.6503" lon="1.08105">
        <ele>1268</ele>
        <time>2022-05-22 19:54:23</time>
      </trkpt>
      <trkpt lat="42.65029" lon="1.08104">
        <ele>1268.2</ele>
        <time>2022-05-22 19:54:24</time>
      </trkpt>
      <trkpt lat="42.65027" lon="1.08103">
        <ele>1268.4</ele>
        <time>2022-05-22 19:54:25</time>
      </trkpt>
      <trkpt lat="42.65026" lon="1.08103">
        <ele>1268.6</ele>
        <time>2022-05-22 19:54:26</time>
      </trkpt>
      <trkpt lat="42.65025" lon="1.08102">
        <ele>1268.8</ele>
        <time>2022-05-22 19:54:27</time>
      </trkpt>
      <trkpt lat="42.65023" lon="1.08102">
        <ele>1269</ele>
        <time>2022-05-22 19:54:28</time>
      </trkpt>
      <trkpt lat="42.65022" lon="1.08102">
        <ele>1269</ele>
        <time>2022-05-22 19:54:29</time>
      </trkpt>
      <trkpt lat="42.6502" lon="1.08101">
        <ele>1269.2</ele>
        <time>2022-05-22 19:54:30</time>
      </trkpt>
      <trkpt lat="42.65019" lon="1.08101">
        <ele>1269.4</ele>
        <time>2022-05-22 19:54:31</time>
      </trkpt>
      <trkpt lat="42.65017" lon="1.081">
        <ele>1269.8</ele>
        <time>2022-05-22 19:54:32</time>
      </trkpt>
      <trkpt lat="42.65016" lon="1.081">
        <ele>1269.8</ele>
        <time>2022-05-22 19:54:33</time>
      </trkpt>
      <trkpt lat="42.65014" lon="1.08099">
        <ele>1270</ele>
        <time>2022-05-22 19:54:34</time>
      </trkpt>
      <trkpt lat="42.65013" lon="1.08099">
        <ele>1270.4</ele>
        <time>2022-05-22 19:54:35</time>
      </trkpt>
      <trkpt lat="42.65011" lon="1.08098">
        <ele>1270.6</ele>
        <time>2022-05-22 19:54:36</time>
      </trkpt>
      <trkpt lat="42.6501" lon="1.08097">
        <ele>1270.8</ele>
        <time>2022-05-22 19:54:37</time>
      </trkpt>
      <trkpt lat="42.65008" lon="1.08097">
        <ele>1271</ele>
        <time>2022-05-22 19:54:38</time>
      </trkpt>
      <trkpt lat="42.65007" lon="1.08096">
        <ele>1271.2</ele>
        <time>2022-05-22 19:54:39</time>
      </trkpt>
      <trkpt lat="42.65006" lon="1.08096">
        <ele>1271.4</ele>
        <time>2022-05-22 19:54:40</time>
      </trkpt>
      <trkpt lat="42.65004" lon="1.08096">
        <ele>1271.6</ele>
        <time>2022-05-22 19:54:41</time>
      </trkpt>
      <trkpt lat="42.65002" lon="1.08096">
        <ele>1271.8</ele>
        <time>2022-05-22 19:54:42</time>
      </trkpt>
      <trkpt lat="42.65001" lon="1.08096">
        <ele>1272</ele>
        <time>2022-05-22 19:54:43</time>
      </trkpt>
      <trkpt lat="42.65" lon="1.08095">
        <ele>1272.2</ele>
        <time>2022-05-22 19:54:44</time>
      </trkpt>
      <trkpt lat="42.64998" lon="1.08095">
        <ele>1272.4</ele>
        <time>2022-05-22 19:54:45</time>
      </trkpt>
      <trkpt lat="42.64997" lon="1.08094">
        <ele>1272.4</ele>
        <time>2022-05-22 19:54:46</time>
      </trkpt>
      <trkpt lat="42.64996" lon="1.08094">
        <ele>1272.6</ele>
        <time>2022-05-22 19:54:47</time>
      </trkpt>
      <trkpt lat="42.64994" lon="1.08095">
        <ele>1272.8</ele>
        <time>2022-05-22 19:54:48</time>
      </trkpt>
      <trkpt lat="42.64992" lon="1.08095">
        <ele>1273</ele>
        <time>2022-05-22 19:54:49</time>
      </trkpt>
      <trkpt lat="42.64991" lon="1.08095">
        <ele>1273.2</ele>
        <time>2022-05-22 19:54:50</time>
      </trkpt>
      <trkpt lat="42.64989" lon="1.08095">
        <ele>1273.4</ele>
        <time>2022-05-22 19:54:51</time>
      </trkpt>
      <trkpt lat="42.64988" lon="1.08095">
        <ele>1273.6</ele>
        <time>2022-05-22 19:54:52</time>
      </trkpt>
      <trkpt lat="42.64987" lon="1.08095">
        <ele>1273.8</ele>
        <time>2022-05-22 19:54:53</time>
      </trkpt>
      <trkpt lat="42.64984" lon="1.08094">
        <ele>1273.8</ele>
        <time>2022-05-22 19:54:54</time>
      </trkpt>
      <trkpt lat="42.64983" lon="1.08094">
        <ele>1274</ele>
        <time>2022-05-22 19:54:55</time>
      </trkpt>
      <trkpt lat="42.64981" lon="1.08094">
        <ele>1274.2</ele>
        <time>2022-05-22 19:54:56</time>
      </trkpt>
      <trkpt lat="42.64979" lon="1.08094">
        <ele>1274.4</ele>
        <time>2022-05-22 19:54:57</time>
      </trkpt>
      <trkpt lat="42.64977" lon="1.08094">
        <ele>1274.4</ele>
        <time>2022-05-22 19:54:58</time>
      </trkpt>
      <trkpt lat="42.64976" lon="1.08094">
        <ele>1274.6</ele>
        <time>2022-05-22 19:54:59</time>
      </trkpt>
      <trkpt lat="42.64974" lon="1.08095">
        <ele>1274.8</ele>
        <time>2022-05-22 19:55:00</time>
      </trkpt>
      <trkpt lat="42.64972" lon="1.08096">
        <ele>1275</ele>
        <time>2022-05-22 19:55:01</time>
      </trkpt>
      <trkpt lat="42.6497" lon="1.08097">
        <ele>1275</ele>
        <time>2022-05-22 19:55:02</time>
      </trkpt>
      <trkpt lat="42.64969" lon="1.08098">
        <ele>1275.2</ele>
        <time>2022-05-22 19:55:03</time>
      </trkpt>
      <trkpt lat="42.64967" lon="1.08099">
        <ele>1275.4</ele>
        <time>2022-05-22 19:55:04</time>
      </trkpt>
      <trkpt lat="42.64965" lon="1.081">
        <ele>1275.6</ele>
        <time>2022-05-22 19:55:05</time>
      </trkpt>
      <trkpt lat="42.64963" lon="1.08101">
        <ele>1275.8</ele>
        <time>2022-05-22 19:55:06</time>
      </trkpt>
      <trkpt lat="42.64962" lon="1.08102">
        <ele>1276</ele>
        <time>2022-05-22 19:55:07</time>
      </trkpt>
      <trkpt lat="42.6496" lon="1.08104">
        <ele>1276.2</ele>
        <time>2022-05-22 19:55:08</time>
      </trkpt>
      <trkpt lat="42.64959" lon="1.08105">
        <ele>1276.2</ele>
        <time>2022-05-22 19:55:09</time>
      </trkpt>
      <trkpt lat="42.64957" lon="1.08106">
        <ele>1276.4</ele>
        <time>2022-05-22 19:55:10</time>
      </trkpt>
      <trkpt lat="42.64955" lon="1.08107">
        <ele>1276.6</ele>
        <time>2022-05-22 19:55:11</time>
      </trkpt>
      <trkpt lat="42.64953" lon="1.08107">
        <ele>1276.8</ele>
        <time>2022-05-22 19:55:12</time>
      </trkpt>
      <trkpt lat="42.64951" lon="1.08107">
        <ele>1277</ele>
        <time>2022-05-22 19:55:13</time>
      </trkpt>
      <trkpt lat="42.64949" lon="1.08108">
        <ele>1277.2</ele>
        <time>2022-05-22 19:55:14</time>
      </trkpt>
      <trkpt lat="42.64947" lon="1.08109">
        <ele>1277.2</ele>
        <time>2022-05-22 19:55:15</time>
      </trkpt>
      <trkpt lat="42.64945" lon="1.0811">
        <ele>1277.4</ele>
        <time>2022-05-22 19:55:16</time>
      </trkpt>
      <trkpt lat="42.64943" lon="1.0811">
        <ele>1277.6</ele>
        <time>2022-05-22 19:55:17</time>
      </trkpt>
      <trkpt lat="42.64942" lon="1.08111">
        <ele>1277.6</ele>
        <time>2022-05-22 19:55:18</time>
      </trkpt>
      <trkpt lat="42.64941" lon="1.08111">
        <ele>1277.8</ele>
        <time>2022-05-22 19:55:19</time>
      </trkpt>
      <trkpt lat="42.64938" lon="1.08112">
        <ele>1278</ele>
        <time>2022-05-22 19:55:20</time>
      </trkpt>
      <trkpt lat="42.64937" lon="1.08112">
        <ele>1278.2</ele>
        <time>2022-05-22 19:55:21</time>
      </trkpt>
      <trkpt lat="42.64935" lon="1.08113">
        <ele>1278.2</ele>
        <time>2022-05-22 19:55:22</time>
      </trkpt>
      <trkpt lat="42.64933" lon="1.08114">
        <ele>1278.4</ele>
        <time>2022-05-22 19:55:23</time>
      </trkpt>
      <trkpt lat="42.64932" lon="1.08115">
        <ele>1278.6</ele>
        <time>2022-05-22 19:55:24</time>
      </trkpt>
      <trkpt lat="42.64931" lon="1.08115">
        <ele>1278.8</ele>
        <time>2022-05-22 19:55:25</time>
      </trkpt>
      <trkpt lat="42.64928" lon="1.08117">
        <ele>1278.8</ele>
        <time>2022-05-22 19:55:26</time>
      </trkpt>
      <trkpt lat="42.64926" lon="1.08118">
        <ele>1279</ele>
        <time>2022-05-22 19:55:27</time>
      </trkpt>
      <trkpt lat="42.64925" lon="1.08119">
        <ele>1279.2</ele>
        <time>2022-05-22 19:55:28</time>
      </trkpt>
      <trkpt lat="42.64923" lon="1.0812">
        <ele>1279.2</ele>
        <time>2022-05-22 19:55:29</time>
      </trkpt>
      <trkpt lat="42.64921" lon="1.08121">
        <ele>1279.2</ele>
        <time>2022-05-22 19:55:30</time>
      </trkpt>
      <trkpt lat="42.64919" lon="1.08122">
        <ele>1279.4</ele>
        <time>2022-05-22 19:55:31</time>
      </trkpt>
      <trkpt lat="42.64918" lon="1.08123">
        <ele>1279.6</ele>
        <time>2022-05-22 19:55:32</time>
      </trkpt>
      <trkpt lat="42.64916" lon="1.08124">
        <ele>1279.6</ele>
        <time>2022-05-22 19:55:33</time>
      </trkpt>
      <trkpt lat="42.64915" lon="1.08125">
        <ele>1279.8</ele>
        <time>2022-05-22 19:55:34</time>
      </trkpt>
      <trkpt lat="42.64913" lon="1.08126">
        <ele>1279.8</ele>
        <time>2022-05-22 19:55:35</time>
      </trkpt>
      <trkpt lat="42.64912" lon="1.08127">
        <ele>1279.8</ele>
        <time>2022-05-22 19:55:36</time>
      </trkpt>
      <trkpt lat="42.64909" lon="1.08129">
        <ele>1280</ele>
        <time>2022-05-22 19:55:37</time>
      </trkpt>
      <trkpt lat="42.64907" lon="1.0813">
        <ele>1280</ele>
        <time>2022-05-22 19:55:38</time>
      </trkpt>
      <trkpt lat="42.64905" lon="1.0813">
        <ele>1280</ele>
        <time>2022-05-22 19:55:39</time>
      </trkpt>
      <trkpt lat="42.64903" lon="1.08131">
        <ele>1280</ele>
        <time>2022-05-22 19:55:40</time>
      </trkpt>
      <trkpt lat="42.64901" lon="1.08132">
        <ele>1280.2</ele>
        <time>2022-05-22 19:55:41</time>
      </trkpt>
      <trkpt lat="42.64898" lon="1.08132">
        <ele>1280.2</ele>
        <time>2022-05-22 19:55:42</time>
      </trkpt>
      <trkpt lat="42.64896" lon="1.08132">
        <ele>1280.2</ele>
        <time>2022-05-22 19:55:43</time>
      </trkpt>
      <trkpt lat="42.64894" lon="1.08132">
        <ele>1280.2</ele>
        <time>2022-05-22 19:55:44</time>
      </trkpt>
      <trkpt lat="42.64891" lon="1.08133">
        <ele>1280.4</ele>
        <time>2022-05-22 19:55:45</time>
      </trkpt>
      <trkpt lat="42.64889" lon="1.08133">
        <ele>1280.4</ele>
        <time>2022-05-22 19:55:46</time>
      </trkpt>
      <trkpt lat="42.64887" lon="1.08132">
        <ele>1280.4</ele>
        <time>2022-05-22 19:55:47</time>
      </trkpt>
      <trkpt lat="42.64885" lon="1.08132">
        <ele>1280.4</ele>
        <time>2022-05-22 19:55:48</time>
      </trkpt>
      <trkpt lat="42.64883" lon="1.08132">
        <ele>1280.4</ele>
        <time>2022-05-22 19:55:49</time>
      </trkpt>
      <trkpt lat="42.64881" lon="1.08132">
        <ele>1280.4</ele>
        <time>2022-05-22 19:55:50</time>
      </trkpt>
      <trkpt lat="42.64879" lon="1.08133">
        <ele>1280.4</ele>
        <time>2022-05-22 19:55:51</time>
      </trkpt>
      <trkpt lat="42.64876" lon="1.08134">
        <ele>1280.4</ele>
        <time>2022-05-22 19:55:52</time>
      </trkpt>
      <trkpt lat="42.64874" lon="1.08134">
        <ele>1280.4</ele>
        <time>2022-05-22 19:55:53</time>
      </trkpt>
      <trkpt lat="42.6487" lon="1.08134">
        <ele>1280.4</ele>
        <time>2022-05-22 19:55:54</time>
      </trkpt>
      <trkpt lat="42.64867" lon="1.08134">
        <ele>1280.6</ele>
        <time>2022-05-22 19:55:55</time>
      </trkpt>
      <trkpt lat="42.64864" lon="1.08134">
        <ele>1280.6</ele>
        <time>2022-05-22 19:55:56</time>
      </trkpt>
      <trkpt lat="42.64861" lon="1.08133">
        <ele>1280.6</ele>
        <time>2022-05-22 19:55:57</time>
      </trkpt>
      <trkpt lat="42.64857" lon="1.08133">
        <ele>1280.6</ele>
        <time>2022-05-22 19:55:58</time>
      </trkpt>
      <trkpt lat="42.64854" lon="1.08133">
        <ele>1280.6</ele>
        <time>2022-05-22 19:55:59</time>
      </trkpt>
      <trkpt lat="42.64851" lon="1.08133">
        <ele>1280.6</ele>
        <time>2022-05-22 19:56:00</time>
      </trkpt>
      <trkpt lat="42.64847" lon="1.08133">
        <ele>1280.8</ele>
        <time>2022-05-22 19:56:01</time>
      </trkpt>
      <trkpt lat="42.64844" lon="1.08133">
        <ele>1280.8</ele>
        <time>2022-05-22 19:56:02</time>
      </trkpt>
      <trkpt lat="42.64841" lon="1.08132">
        <ele>1281</ele>
        <time>2022-05-22 19:56:03</time>
      </trkpt>
      <trkpt lat="42.64838" lon="1.08132">
        <ele>1281</ele>
        <time>2022-05-22 19:56:04</time>
      </trkpt>
      <trkpt lat="42.64834" lon="1.08131">
        <ele>1281</ele>
        <time>2022-05-22 19:56:05</time>
      </trkpt>
      <trkpt lat="42.64831" lon="1.08131">
        <ele>1281</ele>
        <time>2022-05-22 19:56:06</time>
      </trkpt>
      <trkpt lat="42.64828" lon="1.08132">
        <ele>1281</ele>
        <time>2022-05-22 19:56:07</time>
      </trkpt>
      <trkpt lat="42.64824" lon="1.08132">
        <ele>1281</ele>
        <time>2022-05-22 19:56:08</time>
      </trkpt>
      <trkpt lat="42.64821" lon="1.08132">
        <ele>1281</ele>
        <time>2022-05-22 19:56:09</time>
      </trkpt>
      <trkpt lat="42.64818" lon="1.08132">
        <ele>1281</ele>
        <time>2022-05-22 19:56:10</time>
      </trkpt>
      <trkpt lat="42.64816" lon="1.08133">
        <ele>1281.2</ele>
        <time>2022-05-22 19:56:11</time>
      </trkpt>
      <trkpt lat="42.64813" lon="1.08133">
        <ele>1281.4</ele>
        <time>2022-05-22 19:56:12</time>
      </trkpt>
      <trkpt lat="42.6481" lon="1.08133">
        <ele>1281.4</ele>
        <time>2022-05-22 19:56:13</time>
      </trkpt>
      <trkpt lat="42.64807" lon="1.08134">
        <ele>1281.6</ele>
        <time>2022-05-22 19:56:14</time>
      </trkpt>
      <trkpt lat="42.64804" lon="1.08134">
        <ele>1281.8</ele>
        <time>2022-05-22 19:56:15</time>
      </trkpt>
      <trkpt lat="42.64801" lon="1.08135">
        <ele>1281.8</ele>
        <time>2022-05-22 19:56:16</time>
      </trkpt>
      <trkpt lat="42.64799" lon="1.08136">
        <ele>1282</ele>
        <time>2022-05-22 19:56:17</time>
      </trkpt>
      <trkpt lat="42.64796" lon="1.08137">
        <ele>1282.2</ele>
        <time>2022-05-22 19:56:18</time>
      </trkpt>
      <trkpt lat="42.64793" lon="1.08138">
        <ele>1282.2</ele>
        <time>2022-05-22 19:56:19</time>
      </trkpt>
      <trkpt lat="42.64791" lon="1.08139">
        <ele>1282.4</ele>
        <time>2022-05-22 19:56:20</time>
      </trkpt>
      <trkpt lat="42.64789" lon="1.0814">
        <ele>1282.6</ele>
        <time>2022-05-22 19:56:21</time>
      </trkpt>
      <trkpt lat="42.64786" lon="1.08141">
        <ele>1282.8</ele>
        <time>2022-05-22 19:56:22</time>
      </trkpt>
      <trkpt lat="42.64784" lon="1.08142">
        <ele>1282.8</ele>
        <time>2022-05-22 19:56:23</time>
      </trkpt>
      <trkpt lat="42.64781" lon="1.08143">
        <ele>1283</ele>
        <time>2022-05-22 19:56:24</time>
      </trkpt>
      <trkpt lat="42.64779" lon="1.08145">
        <ele>1283.2</ele>
        <time>2022-05-22 19:56:25</time>
      </trkpt>
      <trkpt lat="42.64776" lon="1.08146">
        <ele>1283.2</ele>
        <time>2022-05-22 19:56:26</time>
      </trkpt>
      <trkpt lat="42.64774" lon="1.08148">
        <ele>1283.4</ele>
        <time>2022-05-22 19:56:27</time>
      </trkpt>
      <trkpt lat="42.64772" lon="1.0815">
        <ele>1283.6</ele>
        <time>2022-05-22 19:56:28</time>
      </trkpt>
      <trkpt lat="42.6477" lon="1.08152">
        <ele>1283.8</ele>
        <time>2022-05-22 19:56:29</time>
      </trkpt>
      <trkpt lat="42.64767" lon="1.08153">
        <ele>1284</ele>
        <time>2022-05-22 19:56:30</time>
      </trkpt>
      <trkpt lat="42.64765" lon="1.08155">
        <ele>1284.2</ele>
        <time>2022-05-22 19:56:31</time>
      </trkpt>
      <trkpt lat="42.64763" lon="1.08157">
        <ele>1284.2</ele>
        <time>2022-05-22 19:56:32</time>
      </trkpt>
      <trkpt lat="42.6476" lon="1.08159">
        <ele>1284.4</ele>
        <time>2022-05-22 19:56:33</time>
      </trkpt>
      <trkpt lat="42.64758" lon="1.08161">
        <ele>1284.4</ele>
        <time>2022-05-22 19:56:34</time>
      </trkpt>
      <trkpt lat="42.64756" lon="1.08163">
        <ele>1284.6</ele>
        <time>2022-05-22 19:56:35</time>
      </trkpt>
      <trkpt lat="42.64754" lon="1.08165">
        <ele>1284.8</ele>
        <time>2022-05-22 19:56:36</time>
      </trkpt>
      <trkpt lat="42.64752" lon="1.08167">
        <ele>1284.8</ele>
        <time>2022-05-22 19:56:37</time>
      </trkpt>
      <trkpt lat="42.6475" lon="1.08169">
        <ele>1285</ele>
        <time>2022-05-22 19:56:38</time>
      </trkpt>
      <trkpt lat="42.64748" lon="1.08171">
        <ele>1285.2</ele>
        <time>2022-05-22 19:56:39</time>
      </trkpt>
      <trkpt lat="42.64746" lon="1.08173">
        <ele>1285.4</ele>
        <time>2022-05-22 19:56:40</time>
      </trkpt>
      <trkpt lat="42.64744" lon="1.08176">
        <ele>1285.4</ele>
        <time>2022-05-22 19:56:41</time>
      </trkpt>
      <trkpt lat="42.64742" lon="1.08178">
        <ele>1285.6</ele>
        <time>2022-05-22 19:56:42</time>
      </trkpt>
      <trkpt lat="42.6474" lon="1.08181">
        <ele>1285.8</ele>
        <time>2022-05-22 19:56:43</time>
      </trkpt>
      <trkpt lat="42.64738" lon="1.08183">
        <ele>1286</ele>
        <time>2022-05-22 19:56:44</time>
      </trkpt>
      <trkpt lat="42.64737" lon="1.08186">
        <ele>1286.2</ele>
        <time>2022-05-22 19:56:45</time>
      </trkpt>
      <trkpt lat="42.64735" lon="1.08188">
        <ele>1286.4</ele>
        <time>2022-05-22 19:56:46</time>
      </trkpt>
      <trkpt lat="42.64734" lon="1.08191">
        <ele>1286.6</ele>
        <time>2022-05-22 19:56:47</time>
      </trkpt>
      <trkpt lat="42.64732" lon="1.08193">
        <ele>1286.8</ele>
        <time>2022-05-22 19:56:48</time>
      </trkpt>
      <trkpt lat="42.64731" lon="1.08195">
        <ele>1287</ele>
        <time>2022-05-22 19:56:49</time>
      </trkpt>
      <trkpt lat="42.64729" lon="1.08197">
        <ele>1287.2</ele>
        <time>2022-05-22 19:56:50</time>
      </trkpt>
      <trkpt lat="42.64727" lon="1.08199">
        <ele>1287.2</ele>
        <time>2022-05-22 19:56:51</time>
      </trkpt>
      <trkpt lat="42.64726" lon="1.08201">
        <ele>1287.4</ele>
        <time>2022-05-22 19:56:52</time>
      </trkpt>
      <trkpt lat="42.64724" lon="1.08203">
        <ele>1287.6</ele>
        <time>2022-05-22 19:56:53</time>
      </trkpt>
      <trkpt lat="42.64723" lon="1.08205">
        <ele>1287.8</ele>
        <time>2022-05-22 19:56:54</time>
      </trkpt>
      <trkpt lat="42.64721" lon="1.08207">
        <ele>1287.8</ele>
        <time>2022-05-22 19:56:55</time>
      </trkpt>
      <trkpt lat="42.64719" lon="1.08209">
        <ele>1288</ele>
        <time>2022-05-22 19:56:56</time>
      </trkpt>
      <trkpt lat="42.64716" lon="1.08211">
        <ele>1288</ele>
        <time>2022-05-22 19:56:57</time>
      </trkpt>
      <trkpt lat="42.64714" lon="1.08212">
        <ele>1288</ele>
        <time>2022-05-22 19:56:58</time>
      </trkpt>
      <trkpt lat="42.64711" lon="1.08213">
        <ele>1288</ele>
        <time>2022-05-22 19:56:59</time>
      </trkpt>
      <trkpt lat="42.64709" lon="1.08213">
        <ele>1288.2</ele>
        <time>2022-05-22 19:57:00</time>
      </trkpt>
      <trkpt lat="42.64707" lon="1.08213">
        <ele>1288.2</ele>
        <time>2022-05-22 19:57:01</time>
      </trkpt>
      <trkpt lat="42.64704" lon="1.08213">
        <ele>1288</ele>
        <time>2022-05-22 19:57:02</time>
      </trkpt>
      <trkpt lat="42.64702" lon="1.08212">
        <ele>1288</ele>
        <time>2022-05-22 19:57:03</time>
      </trkpt>
      <trkpt lat="42.64699" lon="1.08211">
        <ele>1288.2</ele>
        <time>2022-05-22 19:57:04</time>
      </trkpt>
      <trkpt lat="42.64697" lon="1.08209">
        <ele>1288.2</ele>
        <time>2022-05-22 19:57:05</time>
      </trkpt>
      <trkpt lat="42.64695" lon="1.08208">
        <ele>1288.4</ele>
        <time>2022-05-22 19:57:06</time>
      </trkpt>
      <trkpt lat="42.64694" lon="1.08206">
        <ele>1288.4</ele>
        <time>2022-05-22 19:57:07</time>
      </trkpt>
      <trkpt lat="42.64693" lon="1.08203">
        <ele>1288.6</ele>
        <time>2022-05-22 19:57:08</time>
      </trkpt>
      <trkpt lat="42.64692" lon="1.08201">
        <ele>1288.6</ele>
        <time>2022-05-22 19:57:09</time>
      </trkpt>
      <trkpt lat="42.64691" lon="1.08198">
        <ele>1288.8</ele>
        <time>2022-05-22 19:57:10</time>
      </trkpt>
      <trkpt lat="42.6469" lon="1.08195">
        <ele>1289</ele>
        <time>2022-05-22 19:57:11</time>
      </trkpt>
      <trkpt lat="42.6469" lon="1.08193">
        <ele>1289</ele>
        <time>2022-05-22 19:57:12</time>
      </trkpt>
      <trkpt lat="42.64689" lon="1.0819">
        <ele>1289.2</ele>
        <time>2022-05-22 19:57:13</time>
      </trkpt>
      <trkpt lat="42.64689" lon="1.08188">
        <ele>1289.2</ele>
        <time>2022-05-22 19:57:14</time>
      </trkpt>
      <trkpt lat="42.64688" lon="1.08185">
        <ele>1289.4</ele>
        <time>2022-05-22 19:57:15</time>
      </trkpt>
      <trkpt lat="42.64687" lon="1.08183">
        <ele>1289.4</ele>
        <time>2022-05-22 19:57:16</time>
      </trkpt>
      <trkpt lat="42.64686" lon="1.0818">
        <ele>1289.6</ele>
        <time>2022-05-22 19:57:17</time>
      </trkpt>
      <trkpt lat="42.64685" lon="1.08178">
        <ele>1289.8</ele>
        <time>2022-05-22 19:57:18</time>
      </trkpt>
      <trkpt lat="42.64684" lon="1.08176">
        <ele>1290</ele>
        <time>2022-05-22 19:57:19</time>
      </trkpt>
      <trkpt lat="42.64683" lon="1.08174">
        <ele>1290.2</ele>
        <time>2022-05-22 19:57:20</time>
      </trkpt>
      <trkpt lat="42.64682" lon="1.08172">
        <ele>1290.4</ele>
        <time>2022-05-22 19:57:21</time>
      </trkpt>
      <trkpt lat="42.64681" lon="1.0817">
        <ele>1290.6</ele>
        <time>2022-05-22 19:57:22</time>
      </trkpt>
      <trkpt lat="42.6468" lon="1.08167">
        <ele>1290.6</ele>
        <time>2022-05-22 19:57:23</time>
      </trkpt>
      <trkpt lat="42.64679" lon="1.08165">
        <ele>1290.8</ele>
        <time>2022-05-22 19:57:24</time>
      </trkpt>
      <trkpt lat="42.64678" lon="1.08163">
        <ele>1290.8</ele>
        <time>2022-05-22 19:57:25</time>
      </trkpt>
      <trkpt lat="42.64676" lon="1.08161">
        <ele>1291</ele>
        <time>2022-05-22 19:57:26</time>
      </trkpt>
      <trkpt lat="42.64675" lon="1.0816">
        <ele>1291.2</ele>
        <time>2022-05-22 19:57:27</time>
      </trkpt>
      <trkpt lat="42.64674" lon="1.08158">
        <ele>1291.4</ele>
        <time>2022-05-22 19:57:28</time>
      </trkpt>
      <trkpt lat="42.64672" lon="1.08157">
        <ele>1291.4</ele>
        <time>2022-05-22 19:57:29</time>
      </trkpt>
      <trkpt lat="42.64671" lon="1.08155">
        <ele>1291.6</ele>
        <time>2022-05-22 19:57:30</time>
      </trkpt>
      <trkpt lat="42.6467" lon="1.08153">
        <ele>1291.8</ele>
        <time>2022-05-22 19:57:31</time>
      </trkpt>
      <trkpt lat="42.64668" lon="1.08152">
        <ele>1292</ele>
        <time>2022-05-22 19:57:32</time>
      </trkpt>
      <trkpt lat="42.64667" lon="1.08151">
        <ele>1292.2</ele>
        <time>2022-05-22 19:57:33</time>
      </trkpt>
      <trkpt lat="42.64665" lon="1.08151">
        <ele>1292.2</ele>
        <time>2022-05-22 19:57:34</time>
      </trkpt>
      <trkpt lat="42.64663" lon="1.0815">
        <ele>1292.4</ele>
        <time>2022-05-22 19:57:35</time>
      </trkpt>
      <trkpt lat="42.64661" lon="1.08149">
        <ele>1292.6</ele>
        <time>2022-05-22 19:57:36</time>
      </trkpt>
      <trkpt lat="42.64659" lon="1.08148">
        <ele>1292.8</ele>
        <time>2022-05-22 19:57:37</time>
      </trkpt>
      <trkpt lat="42.64658" lon="1.08147">
        <ele>1292.8</ele>
        <time>2022-05-22 19:57:38</time>
      </trkpt>
      <trkpt lat="42.64656" lon="1.08146">
        <ele>1293</ele>
        <time>2022-05-22 19:57:39</time>
      </trkpt>
      <trkpt lat="42.64654" lon="1.08145">
        <ele>1293.2</ele>
        <time>2022-05-22 19:57:40</time>
      </trkpt>
      <trkpt lat="42.64652" lon="1.08145">
        <ele>1293.2</ele>
        <time>2022-05-22 19:57:41</time>
      </trkpt>
      <trkpt lat="42.6465" lon="1.08144">
        <ele>1293.4</ele>
        <time>2022-05-22 19:57:42</time>
      </trkpt>
      <trkpt lat="42.64649" lon="1.08144">
        <ele>1293.4</ele>
        <time>2022-05-22 19:57:43</time>
      </trkpt>
      <trkpt lat="42.64647" lon="1.08143">
        <ele>1293.6</ele>
        <time>2022-05-22 19:57:44</time>
      </trkpt>
      <trkpt lat="42.64645" lon="1.08143">
        <ele>1293.8</ele>
        <time>2022-05-22 19:57:45</time>
      </trkpt>
      <trkpt lat="42.64643" lon="1.08142">
        <ele>1294</ele>
        <time>2022-05-22 19:57:46</time>
      </trkpt>
      <trkpt lat="42.64642" lon="1.08142">
        <ele>1294</ele>
        <time>2022-05-22 19:57:47</time>
      </trkpt>
      <trkpt lat="42.6464" lon="1.08141">
        <ele>1294.2</ele>
        <time>2022-05-22 19:57:48</time>
      </trkpt>
      <trkpt lat="42.64638" lon="1.08141">
        <ele>1294.4</ele>
        <time>2022-05-22 19:57:49</time>
      </trkpt>
      <trkpt lat="42.64636" lon="1.08141">
        <ele>1294.4</ele>
        <time>2022-05-22 19:57:50</time>
      </trkpt>
      <trkpt lat="42.64634" lon="1.0814">
        <ele>1294.6</ele>
        <time>2022-05-22 19:57:51</time>
      </trkpt>
      <trkpt lat="42.64632" lon="1.08139">
        <ele>1294.6</ele>
        <time>2022-05-22 19:57:52</time>
      </trkpt>
      <trkpt lat="42.64631" lon="1.08139">
        <ele>1294.8</ele>
        <time>2022-05-22 19:57:53</time>
      </trkpt>
      <trkpt lat="42.64629" lon="1.08138">
        <ele>1294.8</ele>
        <time>2022-05-22 19:57:54</time>
      </trkpt>
      <trkpt lat="42.64627" lon="1.08138">
        <ele>1295</ele>
        <time>2022-05-22 19:57:55</time>
      </trkpt>
      <trkpt lat="42.64625" lon="1.08137">
        <ele>1295</ele>
        <time>2022-05-22 19:57:56</time>
      </trkpt>
      <trkpt lat="42.64624" lon="1.08137">
        <ele>1295.2</ele>
        <time>2022-05-22 19:57:57</time>
      </trkpt>
      <trkpt lat="42.64622" lon="1.08136">
        <ele>1295.4</ele>
        <time>2022-05-22 19:57:58</time>
      </trkpt>
      <trkpt lat="42.6462" lon="1.08136">
        <ele>1295.6</ele>
        <time>2022-05-22 19:57:59</time>
      </trkpt>
      <trkpt lat="42.64618" lon="1.08135">
        <ele>1295.8</ele>
        <time>2022-05-22 19:58:00</time>
      </trkpt>
      <trkpt lat="42.64616" lon="1.08135">
        <ele>1296</ele>
        <time>2022-05-22 19:58:01</time>
      </trkpt>
      <trkpt lat="42.64614" lon="1.08134">
        <ele>1296.2</ele>
        <time>2022-05-22 19:58:02</time>
      </trkpt>
      <trkpt lat="42.64612" lon="1.08133">
        <ele>1296.4</ele>
        <time>2022-05-22 19:58:03</time>
      </trkpt>
      <trkpt lat="42.6461" lon="1.08133">
        <ele>1296.4</ele>
        <time>2022-05-22 19:58:04</time>
      </trkpt>
      <trkpt lat="42.64608" lon="1.08132">
        <ele>1296.6</ele>
        <time>2022-05-22 19:58:05</time>
      </trkpt>
      <trkpt lat="42.64607" lon="1.08131">
        <ele>1296.8</ele>
        <time>2022-05-22 19:58:06</time>
      </trkpt>
      <trkpt lat="42.64605" lon="1.0813">
        <ele>1296.8</ele>
        <time>2022-05-22 19:58:07</time>
      </trkpt>
      <trkpt lat="42.64603" lon="1.08129">
        <ele>1297</ele>
        <time>2022-05-22 19:58:08</time>
      </trkpt>
      <trkpt lat="42.64602" lon="1.08128">
        <ele>1297</ele>
        <time>2022-05-22 19:58:09</time>
      </trkpt>
      <trkpt lat="42.646" lon="1.08127">
        <ele>1297.2</ele>
        <time>2022-05-22 19:58:10</time>
      </trkpt>
      <trkpt lat="42.64599" lon="1.08126">
        <ele>1297.2</ele>
        <time>2022-05-22 19:58:11</time>
      </trkpt>
      <trkpt lat="42.64598" lon="1.08124">
        <ele>1297.4</ele>
        <time>2022-05-22 19:58:12</time>
      </trkpt>
      <trkpt lat="42.64597" lon="1.08122">
        <ele>1297.6</ele>
        <time>2022-05-22 19:58:13</time>
      </trkpt>
      <trkpt lat="42.64595" lon="1.0812">
        <ele>1297.6</ele>
        <time>2022-05-22 19:58:14</time>
      </trkpt>
      <trkpt lat="42.64594" lon="1.08119">
        <ele>1297.8</ele>
        <time>2022-05-22 19:58:15</time>
      </trkpt>
      <trkpt lat="42.64593" lon="1.08117">
        <ele>1298</ele>
        <time>2022-05-22 19:58:16</time>
      </trkpt>
      <trkpt lat="42.64591" lon="1.08116">
        <ele>1298.2</ele>
        <time>2022-05-22 19:58:17</time>
      </trkpt>
      <trkpt lat="42.6459" lon="1.08115">
        <ele>1298.4</ele>
        <time>2022-05-22 19:58:18</time>
      </trkpt>
      <trkpt lat="42.64588" lon="1.08115">
        <ele>1298.4</ele>
        <time>2022-05-22 19:58:19</time>
      </trkpt>
      <trkpt lat="42.64587" lon="1.08114">
        <ele>1298.6</ele>
        <time>2022-05-22 19:58:20</time>
      </trkpt>
      <trkpt lat="42.64585" lon="1.08112">
        <ele>1298.8</ele>
        <time>2022-05-22 19:58:21</time>
      </trkpt>
      <trkpt lat="42.64584" lon="1.08111">
        <ele>1298.8</ele>
        <time>2022-05-22 19:58:22</time>
      </trkpt>
      <trkpt lat="42.64582" lon="1.0811">
        <ele>1299</ele>
        <time>2022-05-22 19:58:23</time>
      </trkpt>
      <trkpt lat="42.64581" lon="1.08108">
        <ele>1299.2</ele>
        <time>2022-05-22 19:58:24</time>
      </trkpt>
      <trkpt lat="42.6458" lon="1.08107">
        <ele>1299.2</ele>
        <time>2022-05-22 19:58:25</time>
      </trkpt>
      <trkpt lat="42.64579" lon="1.08105">
        <ele>1299.4</ele>
        <time>2022-05-22 19:58:26</time>
      </trkpt>
      <trkpt lat="42.64578" lon="1.08104">
        <ele>1299.4</ele>
        <time>2022-05-22 19:58:27</time>
      </trkpt>
      <trkpt lat="42.64577" lon="1.08102">
        <ele>1299.6</ele>
        <time>2022-05-22 19:58:28</time>
      </trkpt>
      <trkpt lat="42.64576" lon="1.081">
        <ele>1299.6</ele>
        <time>2022-05-22 19:58:29</time>
      </trkpt>
      <trkpt lat="42.64575" lon="1.08098">
        <ele>1299.6</ele>
        <time>2022-05-22 19:58:30</time>
      </trkpt>
      <trkpt lat="42.64574" lon="1.08096">
        <ele>1299.8</ele>
        <time>2022-05-22 19:58:31</time>
      </trkpt>
      <trkpt lat="42.64572" lon="1.08095">
        <ele>1300</ele>
        <time>2022-05-22 19:58:32</time>
      </trkpt>
      <trkpt lat="42.64571" lon="1.08093">
        <ele>1300</ele>
        <time>2022-05-22 19:58:33</time>
      </trkpt>
      <trkpt lat="42.6457" lon="1.08091">
        <ele>1300.2</ele>
        <time>2022-05-22 19:58:34</time>
      </trkpt>
      <trkpt lat="42.64569" lon="1.08089">
        <ele>1300.4</ele>
        <time>2022-05-22 19:58:35</time>
      </trkpt>
      <trkpt lat="42.64568" lon="1.08087">
        <ele>1300.6</ele>
        <time>2022-05-22 19:58:36</time>
      </trkpt>
      <trkpt lat="42.64568" lon="1.08085">
        <ele>1300.6</ele>
        <time>2022-05-22 19:58:37</time>
      </trkpt>
      <trkpt lat="42.64567" lon="1.08083">
        <ele>1300.8</ele>
        <time>2022-05-22 19:58:38</time>
      </trkpt>
      <trkpt lat="42.64566" lon="1.08081">
        <ele>1300.8</ele>
        <time>2022-05-22 19:58:39</time>
      </trkpt>
      <trkpt lat="42.64565" lon="1.08079">
        <ele>1301</ele>
        <time>2022-05-22 19:58:40</time>
      </trkpt>
      <trkpt lat="42.64565" lon="1.08076">
        <ele>1301</ele>
        <time>2022-05-22 19:58:41</time>
      </trkpt>
      <trkpt lat="42.64564" lon="1.08074">
        <ele>1301.2</ele>
        <time>2022-05-22 19:58:42</time>
      </trkpt>
      <trkpt lat="42.64563" lon="1.08072">
        <ele>1301.2</ele>
        <time>2022-05-22 19:58:43</time>
      </trkpt>
      <trkpt lat="42.64562" lon="1.0807">
        <ele>1301.4</ele>
        <time>2022-05-22 19:58:44</time>
      </trkpt>
      <trkpt lat="42.64561" lon="1.08068">
        <ele>1301.4</ele>
        <time>2022-05-22 19:58:45</time>
      </trkpt>
      <trkpt lat="42.6456" lon="1.08066">
        <ele>1301.6</ele>
        <time>2022-05-22 19:58:46</time>
      </trkpt>
      <trkpt lat="42.64559" lon="1.08064">
        <ele>1301.6</ele>
        <time>2022-05-22 19:58:47</time>
      </trkpt>
      <trkpt lat="42.64558" lon="1.08062">
        <ele>1301.8</ele>
        <time>2022-05-22 19:58:48</time>
      </trkpt>
      <trkpt lat="42.64557" lon="1.08059">
        <ele>1301.8</ele>
        <time>2022-05-22 19:58:49</time>
      </trkpt>
      <trkpt lat="42.64556" lon="1.08057">
        <ele>1302</ele>
        <time>2022-05-22 19:58:50</time>
      </trkpt>
      <trkpt lat="42.64555" lon="1.08055">
        <ele>1302</ele>
        <time>2022-05-22 19:58:51</time>
      </trkpt>
      <trkpt lat="42.64554" lon="1.08053">
        <ele>1302.2</ele>
        <time>2022-05-22 19:58:52</time>
      </trkpt>
      <trkpt lat="42.64553" lon="1.08051">
        <ele>1302.4</ele>
        <time>2022-05-22 19:58:53</time>
      </trkpt>
      <trkpt lat="42.64552" lon="1.08049">
        <ele>1302.4</ele>
        <time>2022-05-22 19:58:54</time>
      </trkpt>
      <trkpt lat="42.64551" lon="1.08047">
        <ele>1302.6</ele>
        <time>2022-05-22 19:58:55</time>
      </trkpt>
      <trkpt lat="42.6455" lon="1.08044">
        <ele>1302.6</ele>
        <time>2022-05-22 19:58:56</time>
      </trkpt>
      <trkpt lat="42.64549" lon="1.08042">
        <ele>1302.8</ele>
        <time>2022-05-22 19:58:57</time>
      </trkpt>
      <trkpt lat="42.64549" lon="1.0804">
        <ele>1303</ele>
        <time>2022-05-22 19:58:58</time>
      </trkpt>
      <trkpt lat="42.64548" lon="1.08038">
        <ele>1303</ele>
        <time>2022-05-22 19:58:59</time>
      </trkpt>
      <trkpt lat="42.64547" lon="1.08036">
        <ele>1303.2</ele>
        <time>2022-05-22 19:59:00</time>
      </trkpt>
      <trkpt lat="42.64546" lon="1.08034">
        <ele>1303.2</ele>
        <time>2022-05-22 19:59:01</time>
      </trkpt>
      <trkpt lat="42.64545" lon="1.08032">
        <ele>1303.4</ele>
        <time>2022-05-22 19:59:02</time>
      </trkpt>
      <trkpt lat="42.64544" lon="1.0803">
        <ele>1303.4</ele>
        <time>2022-05-22 19:59:03</time>
      </trkpt>
      <trkpt lat="42.64543" lon="1.08028">
        <ele>1303.6</ele>
        <time>2022-05-22 19:59:04</time>
      </trkpt>
      <trkpt lat="42.64542" lon="1.08026">
        <ele>1303.6</ele>
        <time>2022-05-22 19:59:05</time>
      </trkpt>
      <trkpt lat="42.64542" lon="1.08024">
        <ele>1303.8</ele>
        <time>2022-05-22 19:59:06</time>
      </trkpt>
      <trkpt lat="42.64541" lon="1.08022">
        <ele>1303.8</ele>
        <time>2022-05-22 19:59:07</time>
      </trkpt>
      <trkpt lat="42.64541" lon="1.08019">
        <ele>1304</ele>
        <time>2022-05-22 19:59:08</time>
      </trkpt>
      <trkpt lat="42.6454" lon="1.08018">
        <ele>1304</ele>
        <time>2022-05-22 19:59:09</time>
      </trkpt>
      <trkpt lat="42.64539" lon="1.08016">
        <ele>1304.2</ele>
        <time>2022-05-22 19:59:10</time>
      </trkpt>
      <trkpt lat="42.64537" lon="1.08014">
        <ele>1304.4</ele>
        <time>2022-05-22 19:59:11</time>
      </trkpt>
      <trkpt lat="42.64536" lon="1.08012">
        <ele>1304.4</ele>
        <time>2022-05-22 19:59:12</time>
      </trkpt>
      <trkpt lat="42.64535" lon="1.0801">
        <ele>1304.6</ele>
        <time>2022-05-22 19:59:13</time>
      </trkpt>
      <trkpt lat="42.64534" lon="1.08008">
        <ele>1304.6</ele>
        <time>2022-05-22 19:59:14</time>
      </trkpt>
      <trkpt lat="42.64533" lon="1.08005">
        <ele>1304.8</ele>
        <time>2022-05-22 19:59:15</time>
      </trkpt>
      <trkpt lat="42.64532" lon="1.08003">
        <ele>1304.8</ele>
        <time>2022-05-22 19:59:16</time>
      </trkpt>
      <trkpt lat="42.64531" lon="1.08001">
        <ele>1305</ele>
        <time>2022-05-22 19:59:17</time>
      </trkpt>
      <trkpt lat="42.6453" lon="1.07999">
        <ele>1305.2</ele>
        <time>2022-05-22 19:59:18</time>
      </trkpt>
      <trkpt lat="42.64529" lon="1.07997">
        <ele>1305.2</ele>
        <time>2022-05-22 19:59:19</time>
      </trkpt>
      <trkpt lat="42.64528" lon="1.07995">
        <ele>1305.4</ele>
        <time>2022-05-22 19:59:20</time>
      </trkpt>
      <trkpt lat="42.64527" lon="1.07992">
        <ele>1305.6</ele>
        <time>2022-05-22 19:59:21</time>
      </trkpt>
      <trkpt lat="42.64525" lon="1.0799">
        <ele>1305.6</ele>
        <time>2022-05-22 19:59:22</time>
      </trkpt>
      <trkpt lat="42.64524" lon="1.07988">
        <ele>1305.8</ele>
        <time>2022-05-22 19:59:23</time>
      </trkpt>
      <trkpt lat="42.64524" lon="1.07986">
        <ele>1305.8</ele>
        <time>2022-05-22 19:59:24</time>
      </trkpt>
      <trkpt lat="42.64522" lon="1.07983">
        <ele>1306</ele>
        <time>2022-05-22 19:59:25</time>
      </trkpt>
      <trkpt lat="42.64521" lon="1.07981">
        <ele>1306.2</ele>
        <time>2022-05-22 19:59:26</time>
      </trkpt>
      <trkpt lat="42.6452" lon="1.07979">
        <ele>1306.2</ele>
        <time>2022-05-22 19:59:27</time>
      </trkpt>
      <trkpt lat="42.6452" lon="1.07978">
        <ele>1306.4</ele>
        <time>2022-05-22 19:59:28</time>
      </trkpt>
      <trkpt lat="42.64518" lon="1.07974">
        <ele>1306.6</ele>
        <time>2022-05-22 19:59:29</time>
      </trkpt>
      <trkpt lat="42.64517" lon="1.07973">
        <ele>1306.6</ele>
        <time>2022-05-22 19:59:30</time>
      </trkpt>
      <trkpt lat="42.64515" lon="1.07971">
        <ele>1306.8</ele>
        <time>2022-05-22 19:59:31</time>
      </trkpt>
      <trkpt lat="42.64514" lon="1.07969">
        <ele>1306.8</ele>
        <time>2022-05-22 19:59:32</time>
      </trkpt>
      <trkpt lat="42.64512" lon="1.07967">
        <ele>1307</ele>
        <time>2022-05-22 19:59:33</time>
      </trkpt>
      <trkpt lat="42.64511" lon="1.07965">
        <ele>1307.2</ele>
        <time>2022-05-22 19:59:34</time>
      </trkpt>
      <trkpt lat="42.64509" lon="1.07963">
        <ele>1307.2</ele>
        <time>2022-05-22 19:59:35</time>
      </trkpt>
      <trkpt lat="42.64508" lon="1.07961">
        <ele>1307.4</ele>
        <time>2022-05-22 19:59:36</time>
      </trkpt>
      <trkpt lat="42.64507" lon="1.07959">
        <ele>1307.4</ele>
        <time>2022-05-22 19:59:37</time>
      </trkpt>
      <trkpt lat="42.64505" lon="1.07957">
        <ele>1307.6</ele>
        <time>2022-05-22 19:59:38</time>
      </trkpt>
      <trkpt lat="42.64504" lon="1.07955">
        <ele>1307.8</ele>
        <time>2022-05-22 19:59:39</time>
      </trkpt>
      <trkpt lat="42.64503" lon="1.07953">
        <ele>1307.8</ele>
        <time>2022-05-22 19:59:40</time>
      </trkpt>
      <trkpt lat="42.64502" lon="1.07951">
        <ele>1308</ele>
        <time>2022-05-22 19:59:41</time>
      </trkpt>
      <trkpt lat="42.64501" lon="1.0795">
        <ele>1308</ele>
        <time>2022-05-22 19:59:42</time>
      </trkpt>
      <trkpt lat="42.645" lon="1.07949">
        <ele>1308.2</ele>
        <time>2022-05-22 19:59:43</time>
      </trkpt>
      <trkpt lat="42.64497" lon="1.07946">
        <ele>1308.4</ele>
        <time>2022-05-22 19:59:44</time>
      </trkpt>
      <trkpt lat="42.64496" lon="1.07945">
        <ele>1308.4</ele>
        <time>2022-05-22 19:59:45</time>
      </trkpt>
      <trkpt lat="42.64494" lon="1.07943">
        <ele>1308.6</ele>
        <time>2022-05-22 19:59:46</time>
      </trkpt>
      <trkpt lat="42.64492" lon="1.07941">
        <ele>1308.8</ele>
        <time>2022-05-22 19:59:47</time>
      </trkpt>
      <trkpt lat="42.64491" lon="1.07939">
        <ele>1308.8</ele>
        <time>2022-05-22 19:59:48</time>
      </trkpt>
      <trkpt lat="42.64489" lon="1.07937">
        <ele>1309</ele>
        <time>2022-05-22 19:59:49</time>
      </trkpt>
      <trkpt lat="42.64488" lon="1.07935">
        <ele>1309</ele>
        <time>2022-05-22 19:59:50</time>
      </trkpt>
      <trkpt lat="42.64487" lon="1.07933">
        <ele>1309.2</ele>
        <time>2022-05-22 19:59:51</time>
      </trkpt>
      <trkpt lat="42.64485" lon="1.07931">
        <ele>1309.4</ele>
        <time>2022-05-22 19:59:52</time>
      </trkpt>
      <trkpt lat="42.64484" lon="1.0793">
        <ele>1309.4</ele>
        <time>2022-05-22 19:59:53</time>
      </trkpt>
      <trkpt lat="42.64482" lon="1.07928">
        <ele>1309.6</ele>
        <time>2022-05-22 19:59:54</time>
      </trkpt>
      <trkpt lat="42.6448" lon="1.07926">
        <ele>1309.6</ele>
        <time>2022-05-22 19:59:55</time>
      </trkpt>
      <trkpt lat="42.64479" lon="1.07924">
        <ele>1309.8</ele>
        <time>2022-05-22 19:59:56</time>
      </trkpt>
      <trkpt lat="42.64477" lon="1.07922">
        <ele>1310</ele>
        <time>2022-05-22 19:59:57</time>
      </trkpt>
      <trkpt lat="42.64476" lon="1.07921">
        <ele>1310</ele>
        <time>2022-05-22 19:59:58</time>
      </trkpt>
      <trkpt lat="42.64474" lon="1.07918">
        <ele>1310.2</ele>
        <time>2022-05-22 19:59:59</time>
      </trkpt>
      <trkpt lat="42.64472" lon="1.07917">
        <ele>1310.2</ele>
        <time>2022-05-22 20:00:00</time>
      </trkpt>
      <trkpt lat="42.64471" lon="1.07916">
        <ele>1310.4</ele>
        <time>2022-05-22 20:00:01</time>
      </trkpt>
      <trkpt lat="42.64469" lon="1.07914">
        <ele>1310.4</ele>
        <time>2022-05-22 20:00:02</time>
      </trkpt>
      <trkpt lat="42.64467" lon="1.07913">
        <ele>1310.6</ele>
        <time>2022-05-22 20:00:03</time>
      </trkpt>
      <trkpt lat="42.64466" lon="1.07911">
        <ele>1310.6</ele>
        <time>2022-05-22 20:00:04</time>
      </trkpt>
      <trkpt lat="42.64464" lon="1.0791">
        <ele>1310.8</ele>
        <time>2022-05-22 20:00:05</time>
      </trkpt>
      <trkpt lat="42.64462" lon="1.07909">
        <ele>1310.8</ele>
        <time>2022-05-22 20:00:06</time>
      </trkpt>
      <trkpt lat="42.64461" lon="1.07907">
        <ele>1311</ele>
        <time>2022-05-22 20:00:07</time>
      </trkpt>
      <trkpt lat="42.64459" lon="1.07906">
        <ele>1311</ele>
        <time>2022-05-22 20:00:08</time>
      </trkpt>
      <trkpt lat="42.64457" lon="1.07904">
        <ele>1311.2</ele>
        <time>2022-05-22 20:00:09</time>
      </trkpt>
      <trkpt lat="42.64456" lon="1.07903">
        <ele>1311.2</ele>
        <time>2022-05-22 20:00:10</time>
      </trkpt>
      <trkpt lat="42.64454" lon="1.07901">
        <ele>1311.4</ele>
        <time>2022-05-22 20:00:11</time>
      </trkpt>
      <trkpt lat="42.64453" lon="1.079">
        <ele>1311.4</ele>
        <time>2022-05-22 20:00:12</time>
      </trkpt>
      <trkpt lat="42.64452" lon="1.07898">
        <ele>1311.6</ele>
        <time>2022-05-22 20:00:13</time>
      </trkpt>
      <trkpt lat="42.6445" lon="1.07896">
        <ele>1311.6</ele>
        <time>2022-05-22 20:00:14</time>
      </trkpt>
      <trkpt lat="42.64448" lon="1.07894">
        <ele>1311.8</ele>
        <time>2022-05-22 20:00:15</time>
      </trkpt>
      <trkpt lat="42.64447" lon="1.07893">
        <ele>1312</ele>
        <time>2022-05-22 20:00:16</time>
      </trkpt>
      <trkpt lat="42.64445" lon="1.07891">
        <ele>1312</ele>
        <time>2022-05-22 20:00:17</time>
      </trkpt>
      <trkpt lat="42.64444" lon="1.0789">
        <ele>1312</ele>
        <time>2022-05-22 20:00:18</time>
      </trkpt>
      <trkpt lat="42.64442" lon="1.07888">
        <ele>1312.2</ele>
        <time>2022-05-22 20:00:19</time>
      </trkpt>
      <trkpt lat="42.6444" lon="1.07887">
        <ele>1312.4</ele>
        <time>2022-05-22 20:00:20</time>
      </trkpt>
      <trkpt lat="42.64439" lon="1.07885">
        <ele>1312.6</ele>
        <time>2022-05-22 20:00:21</time>
      </trkpt>
      <trkpt lat="42.64437" lon="1.07884">
        <ele>1312.6</ele>
        <time>2022-05-22 20:00:22</time>
      </trkpt>
      <trkpt lat="42.64435" lon="1.07882">
        <ele>1312.8</ele>
        <time>2022-05-22 20:00:23</time>
      </trkpt>
      <trkpt lat="42.64433" lon="1.0788">
        <ele>1313</ele>
        <time>2022-05-22 20:00:24</time>
      </trkpt>
      <trkpt lat="42.64432" lon="1.07878">
        <ele>1313</ele>
        <time>2022-05-22 20:00:25</time>
      </trkpt>
      <trkpt lat="42.6443" lon="1.07876">
        <ele>1313.2</ele>
        <time>2022-05-22 20:00:26</time>
      </trkpt>
      <trkpt lat="42.64429" lon="1.07875">
        <ele>1313.4</ele>
        <time>2022-05-22 20:00:27</time>
      </trkpt>
      <trkpt lat="42.64427" lon="1.07873">
        <ele>1313.4</ele>
        <time>2022-05-22 20:00:28</time>
      </trkpt>
      <trkpt lat="42.64425" lon="1.0787">
        <ele>1313.6</ele>
        <time>2022-05-22 20:00:29</time>
      </trkpt>
      <trkpt lat="42.64424" lon="1.07868">
        <ele>1313.8</ele>
        <time>2022-05-22 20:00:30</time>
      </trkpt>
      <trkpt lat="42.64422" lon="1.07866">
        <ele>1314</ele>
        <time>2022-05-22 20:00:31</time>
      </trkpt>
      <trkpt lat="42.64421" lon="1.07864">
        <ele>1314</ele>
        <time>2022-05-22 20:00:32</time>
      </trkpt>
      <trkpt lat="42.64419" lon="1.07862">
        <ele>1314.2</ele>
        <time>2022-05-22 20:00:33</time>
      </trkpt>
      <trkpt lat="42.64418" lon="1.0786">
        <ele>1314.4</ele>
        <time>2022-05-22 20:00:34</time>
      </trkpt>
      <trkpt lat="42.64416" lon="1.07858">
        <ele>1314.6</ele>
        <time>2022-05-22 20:00:35</time>
      </trkpt>
      <trkpt lat="42.64415" lon="1.07857">
        <ele>1314.8</ele>
        <time>2022-05-22 20:00:36</time>
      </trkpt>
      <trkpt lat="42.64414" lon="1.07855">
        <ele>1315</ele>
        <time>2022-05-22 20:00:37</time>
      </trkpt>
      <trkpt lat="42.64413" lon="1.07852">
        <ele>1315</ele>
        <time>2022-05-22 20:00:38</time>
      </trkpt>
      <trkpt lat="42.64412" lon="1.0785">
        <ele>1315.2</ele>
        <time>2022-05-22 20:00:39</time>
      </trkpt>
      <trkpt lat="42.6441" lon="1.07847">
        <ele>1315.4</ele>
        <time>2022-05-22 20:00:40</time>
      </trkpt>
      <trkpt lat="42.64409" lon="1.07845">
        <ele>1315.4</ele>
        <time>2022-05-22 20:00:41</time>
      </trkpt>
      <trkpt lat="42.64408" lon="1.07843">
        <ele>1315.6</ele>
        <time>2022-05-22 20:00:42</time>
      </trkpt>
      <trkpt lat="42.64407" lon="1.07841">
        <ele>1315.8</ele>
        <time>2022-05-22 20:00:43</time>
      </trkpt>
      <trkpt lat="42.64406" lon="1.07839">
        <ele>1315.8</ele>
        <time>2022-05-22 20:00:44</time>
      </trkpt>
      <trkpt lat="42.64405" lon="1.07837">
        <ele>1316</ele>
        <time>2022-05-22 20:00:45</time>
      </trkpt>
      <trkpt lat="42.64404" lon="1.07834">
        <ele>1316</ele>
        <time>2022-05-22 20:00:46</time>
      </trkpt>
      <trkpt lat="42.64403" lon="1.07833">
        <ele>1316</ele>
        <time>2022-05-22 20:00:47</time>
      </trkpt>
      <trkpt lat="42.64402" lon="1.07829">
        <ele>1316.2</ele>
        <time>2022-05-22 20:00:48</time>
      </trkpt>
      <trkpt lat="42.64401" lon="1.07826">
        <ele>1316.4</ele>
        <time>2022-05-22 20:00:49</time>
      </trkpt>
      <trkpt lat="42.644" lon="1.07824">
        <ele>1316.4</ele>
        <time>2022-05-22 20:00:50</time>
      </trkpt>
      <trkpt lat="42.64399" lon="1.07822">
        <ele>1316.4</ele>
        <time>2022-05-22 20:00:51</time>
      </trkpt>
      <trkpt lat="42.64399" lon="1.0782">
        <ele>1316.6</ele>
        <time>2022-05-22 20:00:52</time>
      </trkpt>
      <trkpt lat="42.64397" lon="1.07816">
        <ele>1316.6</ele>
        <time>2022-05-22 20:00:53</time>
      </trkpt>
      <trkpt lat="42.64396" lon="1.07813">
        <ele>1316.8</ele>
        <time>2022-05-22 20:00:54</time>
      </trkpt>
      <trkpt lat="42.64396" lon="1.07811">
        <ele>1317</ele>
        <time>2022-05-22 20:00:55</time>
      </trkpt>
      <trkpt lat="42.64395" lon="1.07808">
        <ele>1317</ele>
        <time>2022-05-22 20:00:56</time>
      </trkpt>
      <trkpt lat="42.64394" lon="1.07806">
        <ele>1317.2</ele>
        <time>2022-05-22 20:00:57</time>
      </trkpt>
      <trkpt lat="42.64394" lon="1.07803">
        <ele>1317.2</ele>
        <time>2022-05-22 20:00:58</time>
      </trkpt>
      <trkpt lat="42.64393" lon="1.07801">
        <ele>1317.4</ele>
        <time>2022-05-22 20:00:59</time>
      </trkpt>
      <trkpt lat="42.64393" lon="1.07799">
        <ele>1317.6</ele>
        <time>2022-05-22 20:01:00</time>
      </trkpt>
      <trkpt lat="42.64392" lon="1.07797">
        <ele>1317.6</ele>
        <time>2022-05-22 20:01:01</time>
      </trkpt>
      <trkpt lat="42.64391" lon="1.07795">
        <ele>1317.8</ele>
        <time>2022-05-22 20:01:02</time>
      </trkpt>
      <trkpt lat="42.64391" lon="1.07792">
        <ele>1318</ele>
        <time>2022-05-22 20:01:03</time>
      </trkpt>
      <trkpt lat="42.6439" lon="1.0779">
        <ele>1318.2</ele>
        <time>2022-05-22 20:01:04</time>
      </trkpt>
      <trkpt lat="42.6439" lon="1.07788">
        <ele>1318.2</ele>
        <time>2022-05-22 20:01:05</time>
      </trkpt>
      <trkpt lat="42.64389" lon="1.07786">
        <ele>1318.4</ele>
        <time>2022-05-22 20:01:06</time>
      </trkpt>
      <trkpt lat="42.64388" lon="1.07784">
        <ele>1318.6</ele>
        <time>2022-05-22 20:01:07</time>
      </trkpt>
      <trkpt lat="42.64387" lon="1.07783">
        <ele>1318.6</ele>
        <time>2022-05-22 20:01:08</time>
      </trkpt>
      <trkpt lat="42.64385" lon="1.0778">
        <ele>1318.8</ele>
        <time>2022-05-22 20:01:09</time>
      </trkpt>
      <trkpt lat="42.64384" lon="1.07779">
        <ele>1319</ele>
        <time>2022-05-22 20:01:10</time>
      </trkpt>
      <trkpt lat="42.64383" lon="1.07777">
        <ele>1319</ele>
        <time>2022-05-22 20:01:11</time>
      </trkpt>
      <trkpt lat="42.64382" lon="1.07775">
        <ele>1319.2</ele>
        <time>2022-05-22 20:01:12</time>
      </trkpt>
      <trkpt lat="42.64381" lon="1.07774">
        <ele>1319.4</ele>
        <time>2022-05-22 20:01:13</time>
      </trkpt>
      <trkpt lat="42.6438" lon="1.07773">
        <ele>1319.6</ele>
        <time>2022-05-22 20:01:14</time>
      </trkpt>
      <trkpt lat="42.64378" lon="1.0777">
        <ele>1319.6</ele>
        <time>2022-05-22 20:01:15</time>
      </trkpt>
      <trkpt lat="42.64376" lon="1.07768">
        <ele>1319.8</ele>
        <time>2022-05-22 20:01:16</time>
      </trkpt>
      <trkpt lat="42.64374" lon="1.07767">
        <ele>1320</ele>
        <time>2022-05-22 20:01:17</time>
      </trkpt>
      <trkpt lat="42.64372" lon="1.07766">
        <ele>1320</ele>
        <time>2022-05-22 20:01:18</time>
      </trkpt>
      <trkpt lat="42.64371" lon="1.07765">
        <ele>1320.2</ele>
        <time>2022-05-22 20:01:19</time>
      </trkpt>
      <trkpt lat="42.64369" lon="1.07764">
        <ele>1320.2</ele>
        <time>2022-05-22 20:01:20</time>
      </trkpt>
      <trkpt lat="42.64367" lon="1.07764">
        <ele>1320.4</ele>
        <time>2022-05-22 20:01:21</time>
      </trkpt>
      <trkpt lat="42.64366" lon="1.07762">
        <ele>1320.6</ele>
        <time>2022-05-22 20:01:22</time>
      </trkpt>
      <trkpt lat="42.64364" lon="1.07761">
        <ele>1320.6</ele>
        <time>2022-05-22 20:01:23</time>
      </trkpt>
      <trkpt lat="42.64363" lon="1.0776">
        <ele>1320.8</ele>
        <time>2022-05-22 20:01:24</time>
      </trkpt>
      <trkpt lat="42.64362" lon="1.07758">
        <ele>1321</ele>
        <time>2022-05-22 20:01:25</time>
      </trkpt>
      <trkpt lat="42.6436" lon="1.07756">
        <ele>1321</ele>
        <time>2022-05-22 20:01:26</time>
      </trkpt>
      <trkpt lat="42.64359" lon="1.07754">
        <ele>1321.2</ele>
        <time>2022-05-22 20:01:27</time>
      </trkpt>
      <trkpt lat="42.64357" lon="1.07753">
        <ele>1321.2</ele>
        <time>2022-05-22 20:01:28</time>
      </trkpt>
      <trkpt lat="42.64356" lon="1.07752">
        <ele>1321.4</ele>
        <time>2022-05-22 20:01:29</time>
      </trkpt>
      <trkpt lat="42.64355" lon="1.07751">
        <ele>1321.4</ele>
        <time>2022-05-22 20:01:30</time>
      </trkpt>
      <trkpt lat="42.64354" lon="1.07749">
        <ele>1321.6</ele>
        <time>2022-05-22 20:01:31</time>
      </trkpt>
      <trkpt lat="42.64352" lon="1.07747">
        <ele>1321.6</ele>
        <time>2022-05-22 20:01:32</time>
      </trkpt>
      <trkpt lat="42.64352" lon="1.07745">
        <ele>1321.8</ele>
        <time>2022-05-22 20:01:33</time>
      </trkpt>
      <trkpt lat="42.64351" lon="1.07743">
        <ele>1322</ele>
        <time>2022-05-22 20:01:34</time>
      </trkpt>
      <trkpt lat="42.6435" lon="1.07741">
        <ele>1322</ele>
        <time>2022-05-22 20:01:35</time>
      </trkpt>
      <trkpt lat="42.64349" lon="1.07739">
        <ele>1322.2</ele>
        <time>2022-05-22 20:01:36</time>
      </trkpt>
      <trkpt lat="42.64347" lon="1.07737">
        <ele>1322.4</ele>
        <time>2022-05-22 20:01:37</time>
      </trkpt>
      <trkpt lat="42.64346" lon="1.07735">
        <ele>1322.4</ele>
        <time>2022-05-22 20:01:38</time>
      </trkpt>
      <trkpt lat="42.64346" lon="1.07732">
        <ele>1322.6</ele>
        <time>2022-05-22 20:01:39</time>
      </trkpt>
      <trkpt lat="42.64345" lon="1.0773">
        <ele>1322.6</ele>
        <time>2022-05-22 20:01:40</time>
      </trkpt>
      <trkpt lat="42.64345" lon="1.07728">
        <ele>1322.8</ele>
        <time>2022-05-22 20:01:41</time>
      </trkpt>
      <trkpt lat="42.64344" lon="1.07724">
        <ele>1323</ele>
        <time>2022-05-22 20:01:42</time>
      </trkpt>
      <trkpt lat="42.64343" lon="1.07722">
        <ele>1323</ele>
        <time>2022-05-22 20:01:43</time>
      </trkpt>
      <trkpt lat="42.64342" lon="1.0772">
        <ele>1323.2</ele>
        <time>2022-05-22 20:01:44</time>
      </trkpt>
      <trkpt lat="42.64341" lon="1.07718">
        <ele>1323.4</ele>
        <time>2022-05-22 20:01:45</time>
      </trkpt>
      <trkpt lat="42.64341" lon="1.07715">
        <ele>1323.6</ele>
        <time>2022-05-22 20:01:46</time>
      </trkpt>
      <trkpt lat="42.6434" lon="1.07713">
        <ele>1323.6</ele>
        <time>2022-05-22 20:01:47</time>
      </trkpt>
      <trkpt lat="42.64339" lon="1.07712">
        <ele>1323.8</ele>
        <time>2022-05-22 20:01:48</time>
      </trkpt>
      <trkpt lat="42.64338" lon="1.07708">
        <ele>1324</ele>
        <time>2022-05-22 20:01:49</time>
      </trkpt>
      <trkpt lat="42.64337" lon="1.07706">
        <ele>1324</ele>
        <time>2022-05-22 20:01:50</time>
      </trkpt>
      <trkpt lat="42.64337" lon="1.07704">
        <ele>1324.2</ele>
        <time>2022-05-22 20:01:51</time>
      </trkpt>
      <trkpt lat="42.64336" lon="1.07701">
        <ele>1324.4</ele>
        <time>2022-05-22 20:01:52</time>
      </trkpt>
      <trkpt lat="42.64336" lon="1.07698">
        <ele>1324.4</ele>
        <time>2022-05-22 20:01:53</time>
      </trkpt>
      <trkpt lat="42.64335" lon="1.07696">
        <ele>1324.6</ele>
        <time>2022-05-22 20:01:54</time>
      </trkpt>
      <trkpt lat="42.64335" lon="1.07694">
        <ele>1324.8</ele>
        <time>2022-05-22 20:01:55</time>
      </trkpt>
      <trkpt lat="42.64334" lon="1.07692">
        <ele>1324.8</ele>
        <time>2022-05-22 20:01:56</time>
      </trkpt>
      <trkpt lat="42.64333" lon="1.07688">
        <ele>1325</ele>
        <time>2022-05-22 20:01:57</time>
      </trkpt>
      <trkpt lat="42.64333" lon="1.07685">
        <ele>1325.2</ele>
        <time>2022-05-22 20:01:58</time>
      </trkpt>
      <trkpt lat="42.64332" lon="1.07682">
        <ele>1325.2</ele>
        <time>2022-05-22 20:01:59</time>
      </trkpt>
      <trkpt lat="42.64331" lon="1.07681">
        <ele>1325.4</ele>
        <time>2022-05-22 20:02:00</time>
      </trkpt>
      <trkpt lat="42.64331" lon="1.07679">
        <ele>1325.6</ele>
        <time>2022-05-22 20:02:01</time>
      </trkpt>
      <trkpt lat="42.6433" lon="1.07675">
        <ele>1325.6</ele>
        <time>2022-05-22 20:02:02</time>
      </trkpt>
      <trkpt lat="42.64329" lon="1.07672">
        <ele>1325.8</ele>
        <time>2022-05-22 20:02:03</time>
      </trkpt>
      <trkpt lat="42.64328" lon="1.07669">
        <ele>1326</ele>
        <time>2022-05-22 20:02:04</time>
      </trkpt>
      <trkpt lat="42.64327" lon="1.07666">
        <ele>1326</ele>
        <time>2022-05-22 20:02:05</time>
      </trkpt>
      <trkpt lat="42.64327" lon="1.07663">
        <ele>1326.2</ele>
        <time>2022-05-22 20:02:06</time>
      </trkpt>
      <trkpt lat="42.64326" lon="1.07661">
        <ele>1326.4</ele>
        <time>2022-05-22 20:02:07</time>
      </trkpt>
      <trkpt lat="42.64326" lon="1.07658">
        <ele>1326.6</ele>
        <time>2022-05-22 20:02:08</time>
      </trkpt>
      <trkpt lat="42.64325" lon="1.07655">
        <ele>1326.6</ele>
        <time>2022-05-22 20:02:09</time>
      </trkpt>
      <trkpt lat="42.64325" lon="1.07653">
        <ele>1326.8</ele>
        <time>2022-05-22 20:02:10</time>
      </trkpt>
      <trkpt lat="42.64324" lon="1.07649">
        <ele>1327</ele>
        <time>2022-05-22 20:02:11</time>
      </trkpt>
      <trkpt lat="42.64324" lon="1.07647">
        <ele>1327</ele>
        <time>2022-05-22 20:02:12</time>
      </trkpt>
      <trkpt lat="42.64324" lon="1.07644">
        <ele>1327.2</ele>
        <time>2022-05-22 20:02:13</time>
      </trkpt>
      <trkpt lat="42.64323" lon="1.07641">
        <ele>1327.4</ele>
        <time>2022-05-22 20:02:14</time>
      </trkpt>
      <trkpt lat="42.64323" lon="1.07638">
        <ele>1327.6</ele>
        <time>2022-05-22 20:02:15</time>
      </trkpt>
      <trkpt lat="42.64323" lon="1.07635">
        <ele>1327.6</ele>
        <time>2022-05-22 20:02:16</time>
      </trkpt>
      <trkpt lat="42.64322" lon="1.07631">
        <ele>1327.8</ele>
        <time>2022-05-22 20:02:17</time>
      </trkpt>
      <trkpt lat="42.64322" lon="1.07628">
        <ele>1327.8</ele>
        <time>2022-05-22 20:02:18</time>
      </trkpt>
      <trkpt lat="42.64322" lon="1.07624">
        <ele>1328</ele>
        <time>2022-05-22 20:02:19</time>
      </trkpt>
      <trkpt lat="42.64321" lon="1.07621">
        <ele>1328</ele>
        <time>2022-05-22 20:02:20</time>
      </trkpt>
      <trkpt lat="42.6432" lon="1.07617">
        <ele>1328</ele>
        <time>2022-05-22 20:02:21</time>
      </trkpt>
      <trkpt lat="42.6432" lon="1.07613">
        <ele>1328.2</ele>
        <time>2022-05-22 20:02:22</time>
      </trkpt>
      <trkpt lat="42.64319" lon="1.07609">
        <ele>1328.2</ele>
        <time>2022-05-22 20:02:23</time>
      </trkpt>
      <trkpt lat="42.64318" lon="1.07605">
        <ele>1328.2</ele>
        <time>2022-05-22 20:02:24</time>
      </trkpt>
      <trkpt lat="42.64318" lon="1.07601">
        <ele>1328.4</ele>
        <time>2022-05-22 20:02:25</time>
      </trkpt>
      <trkpt lat="42.64317" lon="1.07597">
        <ele>1328.4</ele>
        <time>2022-05-22 20:02:26</time>
      </trkpt>
      <trkpt lat="42.64316" lon="1.07593">
        <ele>1328.4</ele>
        <time>2022-05-22 20:02:27</time>
      </trkpt>
      <trkpt lat="42.64315" lon="1.0759">
        <ele>1328.6</ele>
        <time>2022-05-22 20:02:28</time>
      </trkpt>
      <trkpt lat="42.64315" lon="1.07587">
        <ele>1328.6</ele>
        <time>2022-05-22 20:02:29</time>
      </trkpt>
      <trkpt lat="42.64314" lon="1.07585">
        <ele>1328.8</ele>
        <time>2022-05-22 20:02:30</time>
      </trkpt>
      <trkpt lat="42.64314" lon="1.07582">
        <ele>1328.8</ele>
        <time>2022-05-22 20:02:31</time>
      </trkpt>
      <trkpt lat="42.64313" lon="1.0758">
        <ele>1328.8</ele>
        <time>2022-05-22 20:02:32</time>
      </trkpt>
      <trkpt lat="42.64312" lon="1.07577">
        <ele>1329</ele>
        <time>2022-05-22 20:02:33</time>
      </trkpt>
      <trkpt lat="42.64311" lon="1.07574">
        <ele>1329</ele>
        <time>2022-05-22 20:02:34</time>
      </trkpt>
      <trkpt lat="42.6431" lon="1.07571">
        <ele>1329</ele>
        <time>2022-05-22 20:02:35</time>
      </trkpt>
      <trkpt lat="42.6431" lon="1.07568">
        <ele>1329.2</ele>
        <time>2022-05-22 20:02:36</time>
      </trkpt>
      <trkpt lat="42.6431" lon="1.07564">
        <ele>1329.2</ele>
        <time>2022-05-22 20:02:37</time>
      </trkpt>
      <trkpt lat="42.6431" lon="1.07561">
        <ele>1329.4</ele>
        <time>2022-05-22 20:02:38</time>
      </trkpt>
      <trkpt lat="42.6431" lon="1.07557">
        <ele>1329.4</ele>
        <time>2022-05-22 20:02:39</time>
      </trkpt>
      <trkpt lat="42.6431" lon="1.07554">
        <ele>1329.4</ele>
        <time>2022-05-22 20:02:40</time>
      </trkpt>
      <trkpt lat="42.6431" lon="1.0755">
        <ele>1329.6</ele>
        <time>2022-05-22 20:02:41</time>
      </trkpt>
      <trkpt lat="42.6431" lon="1.07547">
        <ele>1329.6</ele>
        <time>2022-05-22 20:02:42</time>
      </trkpt>
      <trkpt lat="42.6431" lon="1.07543">
        <ele>1329.8</ele>
        <time>2022-05-22 20:02:43</time>
      </trkpt>
      <trkpt lat="42.6431" lon="1.0754">
        <ele>1329.8</ele>
        <time>2022-05-22 20:02:44</time>
      </trkpt>
      <trkpt lat="42.64311" lon="1.07536">
        <ele>1329.8</ele>
        <time>2022-05-22 20:02:45</time>
      </trkpt>
      <trkpt lat="42.64311" lon="1.07533">
        <ele>1330</ele>
        <time>2022-05-22 20:02:46</time>
      </trkpt>
      <trkpt lat="42.64312" lon="1.0753">
        <ele>1330</ele>
        <time>2022-05-22 20:02:47</time>
      </trkpt>
      <trkpt lat="42.64313" lon="1.07527">
        <ele>1330.2</ele>
        <time>2022-05-22 20:02:48</time>
      </trkpt>
      <trkpt lat="42.64314" lon="1.07524">
        <ele>1330.2</ele>
        <time>2022-05-22 20:02:49</time>
      </trkpt>
      <trkpt lat="42.64314" lon="1.0752">
        <ele>1330.4</ele>
        <time>2022-05-22 20:02:50</time>
      </trkpt>
      <trkpt lat="42.64315" lon="1.07517">
        <ele>1330.4</ele>
        <time>2022-05-22 20:02:51</time>
      </trkpt>
      <trkpt lat="42.64316" lon="1.07514">
        <ele>1330.6</ele>
        <time>2022-05-22 20:02:52</time>
      </trkpt>
      <trkpt lat="42.64316" lon="1.0751">
        <ele>1330.6</ele>
        <time>2022-05-22 20:02:53</time>
      </trkpt>
      <trkpt lat="42.64316" lon="1.07507">
        <ele>1330.8</ele>
        <time>2022-05-22 20:02:54</time>
      </trkpt>
      <trkpt lat="42.64317" lon="1.07504">
        <ele>1330.8</ele>
        <time>2022-05-22 20:02:55</time>
      </trkpt>
      <trkpt lat="42.64317" lon="1.075">
        <ele>1330.8</ele>
        <time>2022-05-22 20:02:56</time>
      </trkpt>
      <trkpt lat="42.64317" lon="1.07497">
        <ele>1331</ele>
        <time>2022-05-22 20:02:57</time>
      </trkpt>
      <trkpt lat="42.64317" lon="1.07493">
        <ele>1331</ele>
        <time>2022-05-22 20:02:58</time>
      </trkpt>
      <trkpt lat="42.64317" lon="1.0749">
        <ele>1331.2</ele>
        <time>2022-05-22 20:02:59</time>
      </trkpt>
      <trkpt lat="42.64316" lon="1.07487">
        <ele>1331.2</ele>
        <time>2022-05-22 20:03:00</time>
      </trkpt>
      <trkpt lat="42.64316" lon="1.07483">
        <ele>1331.4</ele>
        <time>2022-05-22 20:03:01</time>
      </trkpt>
      <trkpt lat="42.64316" lon="1.0748">
        <ele>1331.4</ele>
        <time>2022-05-22 20:03:02</time>
      </trkpt>
      <trkpt lat="42.64315" lon="1.07476">
        <ele>1331.4</ele>
        <time>2022-05-22 20:03:03</time>
      </trkpt>
      <trkpt lat="42.64314" lon="1.07473">
        <ele>1331.6</ele>
        <time>2022-05-22 20:03:04</time>
      </trkpt>
      <trkpt lat="42.64314" lon="1.0747">
        <ele>1331.8</ele>
        <time>2022-05-22 20:03:05</time>
      </trkpt>
      <trkpt lat="42.64313" lon="1.07468">
        <ele>1331.8</ele>
        <time>2022-05-22 20:03:06</time>
      </trkpt>
      <trkpt lat="42.64312" lon="1.07465">
        <ele>1332</ele>
        <time>2022-05-22 20:03:07</time>
      </trkpt>
      <trkpt lat="42.64311" lon="1.07462">
        <ele>1332</ele>
        <time>2022-05-22 20:03:08</time>
      </trkpt>
      <trkpt lat="42.64311" lon="1.07459">
        <ele>1332.2</ele>
        <time>2022-05-22 20:03:09</time>
      </trkpt>
      <trkpt lat="42.6431" lon="1.07455">
        <ele>1332.2</ele>
        <time>2022-05-22 20:03:10</time>
      </trkpt>
      <trkpt lat="42.64309" lon="1.07452">
        <ele>1332.4</ele>
        <time>2022-05-22 20:03:11</time>
      </trkpt>
      <trkpt lat="42.64308" lon="1.07448">
        <ele>1332.4</ele>
        <time>2022-05-22 20:03:12</time>
      </trkpt>
      <trkpt lat="42.64307" lon="1.07445">
        <ele>1332.6</ele>
        <time>2022-05-22 20:03:13</time>
      </trkpt>
      <trkpt lat="42.64306" lon="1.07442">
        <ele>1332.8</ele>
        <time>2022-05-22 20:03:14</time>
      </trkpt>
      <trkpt lat="42.64306" lon="1.07438">
        <ele>1332.8</ele>
        <time>2022-05-22 20:03:15</time>
      </trkpt>
      <trkpt lat="42.64305" lon="1.07435">
        <ele>1333</ele>
        <time>2022-05-22 20:03:16</time>
      </trkpt>
      <trkpt lat="42.64304" lon="1.07432">
        <ele>1333.2</ele>
        <time>2022-05-22 20:03:17</time>
      </trkpt>
      <trkpt lat="42.64303" lon="1.07429">
        <ele>1333.2</ele>
        <time>2022-05-22 20:03:18</time>
      </trkpt>
      <trkpt lat="42.64302" lon="1.07425">
        <ele>1333.4</ele>
        <time>2022-05-22 20:03:19</time>
      </trkpt>
      <trkpt lat="42.64302" lon="1.07421">
        <ele>1333.6</ele>
        <time>2022-05-22 20:03:20</time>
      </trkpt>
      <trkpt lat="42.64301" lon="1.07418">
        <ele>1333.8</ele>
        <time>2022-05-22 20:03:21</time>
      </trkpt>
      <trkpt lat="42.643" lon="1.07414">
        <ele>1334</ele>
        <time>2022-05-22 20:03:22</time>
      </trkpt>
      <trkpt lat="42.643" lon="1.07411">
        <ele>1334</ele>
        <time>2022-05-22 20:03:23</time>
      </trkpt>
      <trkpt lat="42.64299" lon="1.07408">
        <ele>1334.2</ele>
        <time>2022-05-22 20:03:24</time>
      </trkpt>
      <trkpt lat="42.64298" lon="1.07405">
        <ele>1334.4</ele>
        <time>2022-05-22 20:03:25</time>
      </trkpt>
      <trkpt lat="42.64298" lon="1.07402">
        <ele>1334.6</ele>
        <time>2022-05-22 20:03:26</time>
      </trkpt>
      <trkpt lat="42.64297" lon="1.07398">
        <ele>1334.6</ele>
        <time>2022-05-22 20:03:27</time>
      </trkpt>
      <trkpt lat="42.64296" lon="1.07395">
        <ele>1334.8</ele>
        <time>2022-05-22 20:03:28</time>
      </trkpt>
      <trkpt lat="42.64296" lon="1.07391">
        <ele>1335</ele>
        <time>2022-05-22 20:03:29</time>
      </trkpt>
      <trkpt lat="42.64295" lon="1.07388">
        <ele>1335</ele>
        <time>2022-05-22 20:03:30</time>
      </trkpt>
      <trkpt lat="42.64294" lon="1.07385">
        <ele>1335.2</ele>
        <time>2022-05-22 20:03:31</time>
      </trkpt>
      <trkpt lat="42.64293" lon="1.07382">
        <ele>1335.4</ele>
        <time>2022-05-22 20:03:32</time>
      </trkpt>
      <trkpt lat="42.64293" lon="1.07379">
        <ele>1335.4</ele>
        <time>2022-05-22 20:03:33</time>
      </trkpt>
      <trkpt lat="42.64292" lon="1.07376">
        <ele>1335.6</ele>
        <time>2022-05-22 20:03:34</time>
      </trkpt>
      <trkpt lat="42.64291" lon="1.07372">
        <ele>1335.8</ele>
        <time>2022-05-22 20:03:35</time>
      </trkpt>
      <trkpt lat="42.6429" lon="1.07369">
        <ele>1335.8</ele>
        <time>2022-05-22 20:03:36</time>
      </trkpt>
      <trkpt lat="42.6429" lon="1.07366">
        <ele>1336</ele>
        <time>2022-05-22 20:03:37</time>
      </trkpt>
      <trkpt lat="42.64289" lon="1.07363">
        <ele>1336.2</ele>
        <time>2022-05-22 20:03:38</time>
      </trkpt>
      <trkpt lat="42.64288" lon="1.07361">
        <ele>1336.2</ele>
        <time>2022-05-22 20:03:39</time>
      </trkpt>
      <trkpt lat="42.64287" lon="1.07358">
        <ele>1336.4</ele>
        <time>2022-05-22 20:03:40</time>
      </trkpt>
      <trkpt lat="42.64286" lon="1.07355">
        <ele>1336.4</ele>
        <time>2022-05-22 20:03:41</time>
      </trkpt>
      <trkpt lat="42.64285" lon="1.07352">
        <ele>1336.6</ele>
        <time>2022-05-22 20:03:42</time>
      </trkpt>
      <trkpt lat="42.64285" lon="1.07349">
        <ele>1336.8</ele>
        <time>2022-05-22 20:03:43</time>
      </trkpt>
      <trkpt lat="42.64284" lon="1.07346">
        <ele>1336.8</ele>
        <time>2022-05-22 20:03:44</time>
      </trkpt>
      <trkpt lat="42.64282" lon="1.07344">
        <ele>1337</ele>
        <time>2022-05-22 20:03:45</time>
      </trkpt>
      <trkpt lat="42.64281" lon="1.07341">
        <ele>1337.2</ele>
        <time>2022-05-22 20:03:46</time>
      </trkpt>
      <trkpt lat="42.6428" lon="1.07339">
        <ele>1337.2</ele>
        <time>2022-05-22 20:03:47</time>
      </trkpt>
      <trkpt lat="42.64279" lon="1.07336">
        <ele>1337.4</ele>
        <time>2022-05-22 20:03:48</time>
      </trkpt>
      <trkpt lat="42.64278" lon="1.07333">
        <ele>1337.4</ele>
        <time>2022-05-22 20:03:49</time>
      </trkpt>
      <trkpt lat="42.64277" lon="1.0733">
        <ele>1337.6</ele>
        <time>2022-05-22 20:03:50</time>
      </trkpt>
      <trkpt lat="42.64276" lon="1.07327">
        <ele>1337.6</ele>
        <time>2022-05-22 20:03:51</time>
      </trkpt>
      <trkpt lat="42.64275" lon="1.07325">
        <ele>1337.8</ele>
        <time>2022-05-22 20:03:52</time>
      </trkpt>
      <trkpt lat="42.64274" lon="1.07322">
        <ele>1337.8</ele>
        <time>2022-05-22 20:03:53</time>
      </trkpt>
      <trkpt lat="42.64273" lon="1.07319">
        <ele>1338</ele>
        <time>2022-05-22 20:03:54</time>
      </trkpt>
      <trkpt lat="42.64272" lon="1.07316">
        <ele>1338.2</ele>
        <time>2022-05-22 20:03:55</time>
      </trkpt>
      <trkpt lat="42.64271" lon="1.07313">
        <ele>1338.2</ele>
        <time>2022-05-22 20:03:56</time>
      </trkpt>
      <trkpt lat="42.64271" lon="1.0731">
        <ele>1338.4</ele>
        <time>2022-05-22 20:03:57</time>
      </trkpt>
      <trkpt lat="42.64269" lon="1.07306">
        <ele>1338.4</ele>
        <time>2022-05-22 20:03:58</time>
      </trkpt>
      <trkpt lat="42.64269" lon="1.07303">
        <ele>1338.6</ele>
        <time>2022-05-22 20:03:59</time>
      </trkpt>
      <trkpt lat="42.64268" lon="1.073">
        <ele>1338.6</ele>
        <time>2022-05-22 20:04:00</time>
      </trkpt>
      <trkpt lat="42.64267" lon="1.07296">
        <ele>1338.6</ele>
        <time>2022-05-22 20:04:01</time>
      </trkpt>
      <trkpt lat="42.64266" lon="1.07292">
        <ele>1338.8</ele>
        <time>2022-05-22 20:04:02</time>
      </trkpt>
      <trkpt lat="42.64265" lon="1.07288">
        <ele>1338.8</ele>
        <time>2022-05-22 20:04:03</time>
      </trkpt>
      <trkpt lat="42.64265" lon="1.07284">
        <ele>1338.8</ele>
        <time>2022-05-22 20:04:04</time>
      </trkpt>
      <trkpt lat="42.64264" lon="1.07281">
        <ele>1339</ele>
        <time>2022-05-22 20:04:05</time>
      </trkpt>
      <trkpt lat="42.64263" lon="1.07277">
        <ele>1339.2</ele>
        <time>2022-05-22 20:04:06</time>
      </trkpt>
      <trkpt lat="42.64261" lon="1.07274">
        <ele>1339.2</ele>
        <time>2022-05-22 20:04:07</time>
      </trkpt>
      <trkpt lat="42.64261" lon="1.07271">
        <ele>1339.4</ele>
        <time>2022-05-22 20:04:08</time>
      </trkpt>
      <trkpt lat="42.6426" lon="1.07268">
        <ele>1339.4</ele>
        <time>2022-05-22 20:04:09</time>
      </trkpt>
      <trkpt lat="42.6426" lon="1.07265">
        <ele>1339.6</ele>
        <time>2022-05-22 20:04:10</time>
      </trkpt>
      <trkpt lat="42.64259" lon="1.07262">
        <ele>1339.6</ele>
        <time>2022-05-22 20:04:11</time>
      </trkpt>
      <trkpt lat="42.64258" lon="1.07259">
        <ele>1339.8</ele>
        <time>2022-05-22 20:04:12</time>
      </trkpt>
      <trkpt lat="42.64258" lon="1.07256">
        <ele>1339.8</ele>
        <time>2022-05-22 20:04:13</time>
      </trkpt>
      <trkpt lat="42.64257" lon="1.07253">
        <ele>1340</ele>
        <time>2022-05-22 20:04:14</time>
      </trkpt>
      <trkpt lat="42.64256" lon="1.0725">
        <ele>1340</ele>
        <time>2022-05-22 20:04:15</time>
      </trkpt>
      <trkpt lat="42.64256" lon="1.07248">
        <ele>1340.2</ele>
        <time>2022-05-22 20:04:16</time>
      </trkpt>
      <trkpt lat="42.64256" lon="1.07245">
        <ele>1340.4</ele>
        <time>2022-05-22 20:04:17</time>
      </trkpt>
      <trkpt lat="42.64255" lon="1.07242">
        <ele>1340.4</ele>
        <time>2022-05-22 20:04:18</time>
      </trkpt>
      <trkpt lat="42.64255" lon="1.07239">
        <ele>1340.6</ele>
        <time>2022-05-22 20:04:19</time>
      </trkpt>
      <trkpt lat="42.64254" lon="1.07235">
        <ele>1340.8</ele>
        <time>2022-05-22 20:04:20</time>
      </trkpt>
      <trkpt lat="42.64254" lon="1.07233">
        <ele>1341</ele>
        <time>2022-05-22 20:04:21</time>
      </trkpt>
      <trkpt lat="42.64253" lon="1.0723">
        <ele>1341</ele>
        <time>2022-05-22 20:04:22</time>
      </trkpt>
      <trkpt lat="42.64253" lon="1.07227">
        <ele>1341.2</ele>
        <time>2022-05-22 20:04:23</time>
      </trkpt>
      <trkpt lat="42.64252" lon="1.07224">
        <ele>1341.2</ele>
        <time>2022-05-22 20:04:24</time>
      </trkpt>
      <trkpt lat="42.64251" lon="1.07221">
        <ele>1341.4</ele>
        <time>2022-05-22 20:04:25</time>
      </trkpt>
      <trkpt lat="42.6425" lon="1.07219">
        <ele>1341.6</ele>
        <time>2022-05-22 20:04:26</time>
      </trkpt>
      <trkpt lat="42.64249" lon="1.07216">
        <ele>1341.6</ele>
        <time>2022-05-22 20:04:27</time>
      </trkpt>
      <trkpt lat="42.64248" lon="1.07213">
        <ele>1341.8</ele>
        <time>2022-05-22 20:04:28</time>
      </trkpt>
      <trkpt lat="42.64247" lon="1.0721">
        <ele>1341.8</ele>
        <time>2022-05-22 20:04:29</time>
      </trkpt>
      <trkpt lat="42.64246" lon="1.07207">
        <ele>1342</ele>
        <time>2022-05-22 20:04:30</time>
      </trkpt>
      <trkpt lat="42.64245" lon="1.07205">
        <ele>1342.2</ele>
        <time>2022-05-22 20:04:31</time>
      </trkpt>
      <trkpt lat="42.64244" lon="1.07202">
        <ele>1342.4</ele>
        <time>2022-05-22 20:04:32</time>
      </trkpt>
      <trkpt lat="42.64243" lon="1.072">
        <ele>1342.6</ele>
        <time>2022-05-22 20:04:33</time>
      </trkpt>
      <trkpt lat="42.64243" lon="1.07197">
        <ele>1342.6</ele>
        <time>2022-05-22 20:04:34</time>
      </trkpt>
      <trkpt lat="42.64242" lon="1.07195">
        <ele>1342.8</ele>
        <time>2022-05-22 20:04:35</time>
      </trkpt>
      <trkpt lat="42.6424" lon="1.07193">
        <ele>1343</ele>
        <time>2022-05-22 20:04:36</time>
      </trkpt>
      <trkpt lat="42.64239" lon="1.0719">
        <ele>1343</ele>
        <time>2022-05-22 20:04:37</time>
      </trkpt>
      <trkpt lat="42.64237" lon="1.07188">
        <ele>1343.2</ele>
        <time>2022-05-22 20:04:38</time>
      </trkpt>
      <trkpt lat="42.64236" lon="1.07186">
        <ele>1343.4</ele>
        <time>2022-05-22 20:04:39</time>
      </trkpt>
      <trkpt lat="42.64235" lon="1.07184">
        <ele>1343.4</ele>
        <time>2022-05-22 20:04:40</time>
      </trkpt>
      <trkpt lat="42.64233" lon="1.07182">
        <ele>1343.6</ele>
        <time>2022-05-22 20:04:41</time>
      </trkpt>
      <trkpt lat="42.64232" lon="1.0718">
        <ele>1343.8</ele>
        <time>2022-05-22 20:04:42</time>
      </trkpt>
      <trkpt lat="42.6423" lon="1.07178">
        <ele>1343.8</ele>
        <time>2022-05-22 20:04:43</time>
      </trkpt>
      <trkpt lat="42.64229" lon="1.07176">
        <ele>1344</ele>
        <time>2022-05-22 20:04:44</time>
      </trkpt>
      <trkpt lat="42.64227" lon="1.07173">
        <ele>1344.2</ele>
        <time>2022-05-22 20:04:45</time>
      </trkpt>
      <trkpt lat="42.64226" lon="1.07171">
        <ele>1344.2</ele>
        <time>2022-05-22 20:04:46</time>
      </trkpt>
      <trkpt lat="42.64224" lon="1.07169">
        <ele>1344.4</ele>
        <time>2022-05-22 20:04:47</time>
      </trkpt>
      <trkpt lat="42.64223" lon="1.07167">
        <ele>1344.6</ele>
        <time>2022-05-22 20:04:48</time>
      </trkpt>
      <trkpt lat="42.64222" lon="1.07164">
        <ele>1344.8</ele>
        <time>2022-05-22 20:04:49</time>
      </trkpt>
      <trkpt lat="42.6422" lon="1.07162">
        <ele>1344.8</ele>
        <time>2022-05-22 20:04:50</time>
      </trkpt>
      <trkpt lat="42.64219" lon="1.07159">
        <ele>1345</ele>
        <time>2022-05-22 20:04:51</time>
      </trkpt>
      <trkpt lat="42.64218" lon="1.07157">
        <ele>1345.2</ele>
        <time>2022-05-22 20:04:52</time>
      </trkpt>
      <trkpt lat="42.64216" lon="1.07154">
        <ele>1345.4</ele>
        <time>2022-05-22 20:04:53</time>
      </trkpt>
      <trkpt lat="42.64215" lon="1.07152">
        <ele>1345.6</ele>
        <time>2022-05-22 20:04:54</time>
      </trkpt>
      <trkpt lat="42.64214" lon="1.0715">
        <ele>1345.6</ele>
        <time>2022-05-22 20:04:55</time>
      </trkpt>
      <trkpt lat="42.64213" lon="1.07147">
        <ele>1345.8</ele>
        <time>2022-05-22 20:04:56</time>
      </trkpt>
      <trkpt lat="42.64212" lon="1.07145">
        <ele>1346</ele>
        <time>2022-05-22 20:04:57</time>
      </trkpt>
      <trkpt lat="42.64211" lon="1.07142">
        <ele>1346</ele>
        <time>2022-05-22 20:04:58</time>
      </trkpt>
      <trkpt lat="42.64211" lon="1.0714">
        <ele>1346.2</ele>
        <time>2022-05-22 20:04:59</time>
      </trkpt>
      <trkpt lat="42.6421" lon="1.07137">
        <ele>1346.4</ele>
        <time>2022-05-22 20:05:00</time>
      </trkpt>
      <trkpt lat="42.64209" lon="1.07134">
        <ele>1346.6</ele>
        <time>2022-05-22 20:05:01</time>
      </trkpt>
      <trkpt lat="42.64208" lon="1.0713">
        <ele>1346.8</ele>
        <time>2022-05-22 20:05:02</time>
      </trkpt>
      <trkpt lat="42.64208" lon="1.07127">
        <ele>1346.8</ele>
        <time>2022-05-22 20:05:03</time>
      </trkpt>
      <trkpt lat="42.64208" lon="1.07123">
        <ele>1347</ele>
        <time>2022-05-22 20:05:04</time>
      </trkpt>
      <trkpt lat="42.64207" lon="1.0712">
        <ele>1347.2</ele>
        <time>2022-05-22 20:05:05</time>
      </trkpt>
      <trkpt lat="42.64207" lon="1.07116">
        <ele>1347.4</ele>
        <time>2022-05-22 20:05:06</time>
      </trkpt>
      <trkpt lat="42.64207" lon="1.07113">
        <ele>1347.4</ele>
        <time>2022-05-22 20:05:07</time>
      </trkpt>
      <trkpt lat="42.64207" lon="1.0711">
        <ele>1347.6</ele>
        <time>2022-05-22 20:05:08</time>
      </trkpt>
      <trkpt lat="42.64206" lon="1.07107">
        <ele>1347.8</ele>
        <time>2022-05-22 20:05:09</time>
      </trkpt>
      <trkpt lat="42.64205" lon="1.07104">
        <ele>1348</ele>
        <time>2022-05-22 20:05:10</time>
      </trkpt>
      <trkpt lat="42.64205" lon="1.071">
        <ele>1348</ele>
        <time>2022-05-22 20:05:11</time>
      </trkpt>
      <trkpt lat="42.64205" lon="1.07097">
        <ele>1348.2</ele>
        <time>2022-05-22 20:05:12</time>
      </trkpt>
      <trkpt lat="42.64205" lon="1.07094">
        <ele>1348.4</ele>
        <time>2022-05-22 20:05:13</time>
      </trkpt>
      <trkpt lat="42.64205" lon="1.07091">
        <ele>1348.6</ele>
        <time>2022-05-22 20:05:14</time>
      </trkpt>
      <trkpt lat="42.64205" lon="1.07088">
        <ele>1348.6</ele>
        <time>2022-05-22 20:05:15</time>
      </trkpt>
      <trkpt lat="42.64205" lon="1.07085">
        <ele>1348.8</ele>
        <time>2022-05-22 20:05:16</time>
      </trkpt>
      <trkpt lat="42.64205" lon="1.07082">
        <ele>1349</ele>
        <time>2022-05-22 20:05:17</time>
      </trkpt>
      <trkpt lat="42.64205" lon="1.07079">
        <ele>1349.2</ele>
        <time>2022-05-22 20:05:18</time>
      </trkpt>
      <trkpt lat="42.64206" lon="1.07076">
        <ele>1349.4</ele>
        <time>2022-05-22 20:05:19</time>
      </trkpt>
      <trkpt lat="42.64206" lon="1.07072">
        <ele>1349.4</ele>
        <time>2022-05-22 20:05:20</time>
      </trkpt>
      <trkpt lat="42.64206" lon="1.07069">
        <ele>1349.6</ele>
        <time>2022-05-22 20:05:21</time>
      </trkpt>
      <trkpt lat="42.64206" lon="1.07066">
        <ele>1349.8</ele>
        <time>2022-05-22 20:05:22</time>
      </trkpt>
      <trkpt lat="42.64206" lon="1.07063">
        <ele>1349.8</ele>
        <time>2022-05-22 20:05:23</time>
      </trkpt>
      <trkpt lat="42.64207" lon="1.0706">
        <ele>1350</ele>
        <time>2022-05-22 20:05:24</time>
      </trkpt>
      <trkpt lat="42.64207" lon="1.07058">
        <ele>1350.2</ele>
        <time>2022-05-22 20:05:25</time>
      </trkpt>
      <trkpt lat="42.64207" lon="1.07055">
        <ele>1350.4</ele>
        <time>2022-05-22 20:05:26</time>
      </trkpt>
      <trkpt lat="42.64208" lon="1.07052">
        <ele>1350.6</ele>
        <time>2022-05-22 20:05:27</time>
      </trkpt>
      <trkpt lat="42.64208" lon="1.07049">
        <ele>1350.6</ele>
        <time>2022-05-22 20:05:28</time>
      </trkpt>
      <trkpt lat="42.64209" lon="1.07046">
        <ele>1350.8</ele>
        <time>2022-05-22 20:05:29</time>
      </trkpt>
      <trkpt lat="42.6421" lon="1.07043">
        <ele>1351</ele>
        <time>2022-05-22 20:05:30</time>
      </trkpt>
      <trkpt lat="42.64211" lon="1.0704">
        <ele>1351.2</ele>
        <time>2022-05-22 20:05:31</time>
      </trkpt>
      <trkpt lat="42.64213" lon="1.07038">
        <ele>1351.4</ele>
        <time>2022-05-22 20:05:32</time>
      </trkpt>
      <trkpt lat="42.64214" lon="1.07035">
        <ele>1351.4</ele>
        <time>2022-05-22 20:05:33</time>
      </trkpt>
      <trkpt lat="42.64216" lon="1.07032">
        <ele>1351.6</ele>
        <time>2022-05-22 20:05:34</time>
      </trkpt>
      <trkpt lat="42.64217" lon="1.0703">
        <ele>1351.8</ele>
        <time>2022-05-22 20:05:35</time>
      </trkpt>
      <trkpt lat="42.64219" lon="1.07028">
        <ele>1351.8</ele>
        <time>2022-05-22 20:05:36</time>
      </trkpt>
      <trkpt lat="42.6422" lon="1.07025">
        <ele>1352</ele>
        <time>2022-05-22 20:05:37</time>
      </trkpt>
      <trkpt lat="42.64221" lon="1.07023">
        <ele>1352.2</ele>
        <time>2022-05-22 20:05:38</time>
      </trkpt>
      <trkpt lat="42.64222" lon="1.0702">
        <ele>1352.2</ele>
        <time>2022-05-22 20:05:39</time>
      </trkpt>
      <trkpt lat="42.64223" lon="1.07018">
        <ele>1352.4</ele>
        <time>2022-05-22 20:05:40</time>
      </trkpt>
      <trkpt lat="42.64225" lon="1.07016">
        <ele>1352.6</ele>
        <time>2022-05-22 20:05:41</time>
      </trkpt>
      <trkpt lat="42.64226" lon="1.07014">
        <ele>1352.8</ele>
        <time>2022-05-22 20:05:42</time>
      </trkpt>
      <trkpt lat="42.64227" lon="1.07011">
        <ele>1352.8</ele>
        <time>2022-05-22 20:05:43</time>
      </trkpt>
      <trkpt lat="42.64229" lon="1.07009">
        <ele>1353</ele>
        <time>2022-05-22 20:05:44</time>
      </trkpt>
      <trkpt lat="42.6423" lon="1.07007">
        <ele>1353.2</ele>
        <time>2022-05-22 20:05:45</time>
      </trkpt>
      <trkpt lat="42.64232" lon="1.07004">
        <ele>1353.2</ele>
        <time>2022-05-22 20:05:46</time>
      </trkpt>
      <trkpt lat="42.64234" lon="1.07002">
        <ele>1353.4</ele>
        <time>2022-05-22 20:05:47</time>
      </trkpt>
      <trkpt lat="42.64236" lon="1.07">
        <ele>1353.6</ele>
        <time>2022-05-22 20:05:48</time>
      </trkpt>
      <trkpt lat="42.64238" lon="1.06998">
        <ele>1353.6</ele>
        <time>2022-05-22 20:05:49</time>
      </trkpt>
      <trkpt lat="42.6424" lon="1.06996">
        <ele>1353.8</ele>
        <time>2022-05-22 20:05:50</time>
      </trkpt>
      <trkpt lat="42.64241" lon="1.06994">
        <ele>1354</ele>
        <time>2022-05-22 20:05:51</time>
      </trkpt>
      <trkpt lat="42.64243" lon="1.06992">
        <ele>1354.2</ele>
        <time>2022-05-22 20:05:52</time>
      </trkpt>
      <trkpt lat="42.64245" lon="1.0699">
        <ele>1354.4</ele>
        <time>2022-05-22 20:05:53</time>
      </trkpt>
      <trkpt lat="42.64247" lon="1.06989">
        <ele>1354.6</ele>
        <time>2022-05-22 20:05:54</time>
      </trkpt>
      <trkpt lat="42.64248" lon="1.06987">
        <ele>1354.8</ele>
        <time>2022-05-22 20:05:55</time>
      </trkpt>
      <trkpt lat="42.6425" lon="1.06985">
        <ele>1354.8</ele>
        <time>2022-05-22 20:05:56</time>
      </trkpt>
      <trkpt lat="42.64252" lon="1.06984">
        <ele>1355</ele>
        <time>2022-05-22 20:05:57</time>
      </trkpt>
      <trkpt lat="42.64253" lon="1.06982">
        <ele>1355.2</ele>
        <time>2022-05-22 20:05:58</time>
      </trkpt>
      <trkpt lat="42.64255" lon="1.0698">
        <ele>1355.4</ele>
        <time>2022-05-22 20:05:59</time>
      </trkpt>
      <trkpt lat="42.64256" lon="1.06978">
        <ele>1355.6</ele>
        <time>2022-05-22 20:06:00</time>
      </trkpt>
      <trkpt lat="42.64258" lon="1.06976">
        <ele>1355.8</ele>
        <time>2022-05-22 20:06:01</time>
      </trkpt>
      <trkpt lat="42.6426" lon="1.06974">
        <ele>1355.8</ele>
        <time>2022-05-22 20:06:02</time>
      </trkpt>
      <trkpt lat="42.64262" lon="1.06972">
        <ele>1356</ele>
        <time>2022-05-22 20:06:03</time>
      </trkpt>
      <trkpt lat="42.64264" lon="1.0697">
        <ele>1356.2</ele>
        <time>2022-05-22 20:06:04</time>
      </trkpt>
      <trkpt lat="42.64266" lon="1.06967">
        <ele>1356.2</ele>
        <time>2022-05-22 20:06:05</time>
      </trkpt>
      <trkpt lat="42.64268" lon="1.06965">
        <ele>1356.4</ele>
        <time>2022-05-22 20:06:06</time>
      </trkpt>
      <trkpt lat="42.64271" lon="1.06963">
        <ele>1356.6</ele>
        <time>2022-05-22 20:06:07</time>
      </trkpt>
      <trkpt lat="42.64274" lon="1.0696">
        <ele>1356.6</ele>
        <time>2022-05-22 20:06:08</time>
      </trkpt>
      <trkpt lat="42.64277" lon="1.06958">
        <ele>1356.6</ele>
        <time>2022-05-22 20:06:09</time>
      </trkpt>
      <trkpt lat="42.64279" lon="1.06955">
        <ele>1356.8</ele>
        <time>2022-05-22 20:06:10</time>
      </trkpt>
      <trkpt lat="42.64282" lon="1.06953">
        <ele>1357</ele>
        <time>2022-05-22 20:06:11</time>
      </trkpt>
      <trkpt lat="42.64284" lon="1.0695">
        <ele>1357</ele>
        <time>2022-05-22 20:06:12</time>
      </trkpt>
      <trkpt lat="42.64287" lon="1.06947">
        <ele>1357.2</ele>
        <time>2022-05-22 20:06:13</time>
      </trkpt>
      <trkpt lat="42.6429" lon="1.06944">
        <ele>1357.2</ele>
        <time>2022-05-22 20:06:14</time>
      </trkpt>
      <trkpt lat="42.64292" lon="1.06941">
        <ele>1357.4</ele>
        <time>2022-05-22 20:06:15</time>
      </trkpt>
      <trkpt lat="42.64295" lon="1.06938">
        <ele>1357.4</ele>
        <time>2022-05-22 20:06:16</time>
      </trkpt>
      <trkpt lat="42.64298" lon="1.06935">
        <ele>1357.6</ele>
        <time>2022-05-22 20:06:17</time>
      </trkpt>
      <trkpt lat="42.64301" lon="1.06932">
        <ele>1357.8</ele>
        <time>2022-05-22 20:06:18</time>
      </trkpt>
      <trkpt lat="42.64304" lon="1.06929">
        <ele>1357.8</ele>
        <time>2022-05-22 20:06:19</time>
      </trkpt>
      <trkpt lat="42.64307" lon="1.06926">
        <ele>1358</ele>
        <time>2022-05-22 20:06:20</time>
      </trkpt>
      <trkpt lat="42.6431" lon="1.06923">
        <ele>1358</ele>
        <time>2022-05-22 20:06:21</time>
      </trkpt>
      <trkpt lat="42.64313" lon="1.0692">
        <ele>1358.2</ele>
        <time>2022-05-22 20:06:22</time>
      </trkpt>
      <trkpt lat="42.64315" lon="1.06917">
        <ele>1358.2</ele>
        <time>2022-05-22 20:06:23</time>
      </trkpt>
      <trkpt lat="42.64318" lon="1.06914">
        <ele>1358.4</ele>
        <time>2022-05-22 20:06:24</time>
      </trkpt>
      <trkpt lat="42.64321" lon="1.06911">
        <ele>1358.4</ele>
        <time>2022-05-22 20:06:25</time>
      </trkpt>
      <trkpt lat="42.64323" lon="1.06908">
        <ele>1358.6</ele>
        <time>2022-05-22 20:06:26</time>
      </trkpt>
      <trkpt lat="42.64326" lon="1.06905">
        <ele>1358.6</ele>
        <time>2022-05-22 20:06:27</time>
      </trkpt>
      <trkpt lat="42.64328" lon="1.06901">
        <ele>1358.8</ele>
        <time>2022-05-22 20:06:28</time>
      </trkpt>
      <trkpt lat="42.6433" lon="1.06898">
        <ele>1358.8</ele>
        <time>2022-05-22 20:06:29</time>
      </trkpt>
      <trkpt lat="42.64332" lon="1.06894">
        <ele>1359</ele>
        <time>2022-05-22 20:06:30</time>
      </trkpt>
      <trkpt lat="42.64334" lon="1.06891">
        <ele>1359.2</ele>
        <time>2022-05-22 20:06:31</time>
      </trkpt>
      <trkpt lat="42.64336" lon="1.06887">
        <ele>1359.2</ele>
        <time>2022-05-22 20:06:32</time>
      </trkpt>
      <trkpt lat="42.64338" lon="1.06883">
        <ele>1359.4</ele>
        <time>2022-05-22 20:06:33</time>
      </trkpt>
      <trkpt lat="42.6434" lon="1.06879">
        <ele>1359.4</ele>
        <time>2022-05-22 20:06:34</time>
      </trkpt>
      <trkpt lat="42.64342" lon="1.06875">
        <ele>1359.4</ele>
        <time>2022-05-22 20:06:35</time>
      </trkpt>
      <trkpt lat="42.64345" lon="1.06871">
        <ele>1359.4</ele>
        <time>2022-05-22 20:06:36</time>
      </trkpt>
      <trkpt lat="42.64347" lon="1.06867">
        <ele>1359.6</ele>
        <time>2022-05-22 20:06:37</time>
      </trkpt>
      <trkpt lat="42.64349" lon="1.06862">
        <ele>1359.6</ele>
        <time>2022-05-22 20:06:38</time>
      </trkpt>
      <trkpt lat="42.64351" lon="1.06857">
        <ele>1359.6</ele>
        <time>2022-05-22 20:06:39</time>
      </trkpt>
      <trkpt lat="42.64353" lon="1.06852">
        <ele>1359.8</ele>
        <time>2022-05-22 20:06:40</time>
      </trkpt>
      <trkpt lat="42.64355" lon="1.06847">
        <ele>1359.8</ele>
        <time>2022-05-22 20:06:41</time>
      </trkpt>
      <trkpt lat="42.64356" lon="1.06842">
        <ele>1360</ele>
        <time>2022-05-22 20:06:42</time>
      </trkpt>
      <trkpt lat="42.64357" lon="1.06837">
        <ele>1360</ele>
        <time>2022-05-22 20:06:43</time>
      </trkpt>
      <trkpt lat="42.64358" lon="1.06831">
        <ele>1360</ele>
        <time>2022-05-22 20:06:44</time>
      </trkpt>
      <trkpt lat="42.64359" lon="1.06826">
        <ele>1360.2</ele>
        <time>2022-05-22 20:06:45</time>
      </trkpt>
      <trkpt lat="42.64359" lon="1.0682">
        <ele>1360.2</ele>
        <time>2022-05-22 20:06:46</time>
      </trkpt>
      <trkpt lat="42.6436" lon="1.06814">
        <ele>1360.4</ele>
        <time>2022-05-22 20:06:47</time>
      </trkpt>
      <trkpt lat="42.64361" lon="1.06808">
        <ele>1360.4</ele>
        <time>2022-05-22 20:06:48</time>
      </trkpt>
      <trkpt lat="42.64362" lon="1.06802">
        <ele>1360.6</ele>
        <time>2022-05-22 20:06:49</time>
      </trkpt>
      <trkpt lat="42.64362" lon="1.06796">
        <ele>1360.6</ele>
        <time>2022-05-22 20:06:50</time>
      </trkpt>
      <trkpt lat="42.64363" lon="1.0679">
        <ele>1360.8</ele>
        <time>2022-05-22 20:06:51</time>
      </trkpt>
      <trkpt lat="42.64363" lon="1.06784">
        <ele>1360.8</ele>
        <time>2022-05-22 20:06:52</time>
      </trkpt>
      <trkpt lat="42.64364" lon="1.06779">
        <ele>1361</ele>
        <time>2022-05-22 20:06:53</time>
      </trkpt>
      <trkpt lat="42.64364" lon="1.06773">
        <ele>1361</ele>
        <time>2022-05-22 20:06:54</time>
      </trkpt>
      <trkpt lat="42.64364" lon="1.06767">
        <ele>1361.2</ele>
        <time>2022-05-22 20:06:55</time>
      </trkpt>
      <trkpt lat="42.64363" lon="1.06761">
        <ele>1361.2</ele>
        <time>2022-05-22 20:06:56</time>
      </trkpt>
      <trkpt lat="42.64363" lon="1.06755">
        <ele>1361.4</ele>
        <time>2022-05-22 20:06:57</time>
      </trkpt>
      <trkpt lat="42.64363" lon="1.06749">
        <ele>1361.6</ele>
        <time>2022-05-22 20:06:58</time>
      </trkpt>
      <trkpt lat="42.64363" lon="1.06742">
        <ele>1361.8</ele>
        <time>2022-05-22 20:06:59</time>
      </trkpt>
      <trkpt lat="42.64364" lon="1.06736">
        <ele>1361.8</ele>
        <time>2022-05-22 20:07:00</time>
      </trkpt>
      <trkpt lat="42.64364" lon="1.0673">
        <ele>1362</ele>
        <time>2022-05-22 20:07:01</time>
      </trkpt>
      <trkpt lat="42.64364" lon="1.06724">
        <ele>1362.2</ele>
        <time>2022-05-22 20:07:02</time>
      </trkpt>
      <trkpt lat="42.64365" lon="1.06717">
        <ele>1362.2</ele>
        <time>2022-05-22 20:07:03</time>
      </trkpt>
      <trkpt lat="42.64365" lon="1.06711">
        <ele>1362.4</ele>
        <time>2022-05-22 20:07:04</time>
      </trkpt>
      <trkpt lat="42.64365" lon="1.06705">
        <ele>1362.6</ele>
        <time>2022-05-22 20:07:05</time>
      </trkpt>
      <trkpt lat="42.64365" lon="1.06698">
        <ele>1362.6</ele>
        <time>2022-05-22 20:07:06</time>
      </trkpt>
      <trkpt lat="42.64366" lon="1.06692">
        <ele>1362.6</ele>
        <time>2022-05-22 20:07:07</time>
      </trkpt>
      <trkpt lat="42.64367" lon="1.06686">
        <ele>1362.8</ele>
        <time>2022-05-22 20:07:08</time>
      </trkpt>
      <trkpt lat="42.64368" lon="1.06678">
        <ele>1362.8</ele>
        <time>2022-05-22 20:07:09</time>
      </trkpt>
      <trkpt lat="42.64368" lon="1.06671">
        <ele>1362.8</ele>
        <time>2022-05-22 20:07:10</time>
      </trkpt>
      <trkpt lat="42.64369" lon="1.06664">
        <ele>1363</ele>
        <time>2022-05-22 20:07:11</time>
      </trkpt>
      <trkpt lat="42.6437" lon="1.06657">
        <ele>1363</ele>
        <time>2022-05-22 20:07:12</time>
      </trkpt>
      <trkpt lat="42.6437" lon="1.0665">
        <ele>1363.2</ele>
        <time>2022-05-22 20:07:13</time>
      </trkpt>
      <trkpt lat="42.6437" lon="1.06644">
        <ele>1363.2</ele>
        <time>2022-05-22 20:07:14</time>
      </trkpt>
      <trkpt lat="42.64371" lon="1.06637">
        <ele>1363.4</ele>
        <time>2022-05-22 20:07:15</time>
      </trkpt>
      <trkpt lat="42.64371" lon="1.0663">
        <ele>1363.6</ele>
        <time>2022-05-22 20:07:16</time>
      </trkpt>
      <trkpt lat="42.64371" lon="1.06624">
        <ele>1363.8</ele>
        <time>2022-05-22 20:07:17</time>
      </trkpt>
      <trkpt lat="42.64372" lon="1.06618">
        <ele>1364</ele>
        <time>2022-05-22 20:07:18</time>
      </trkpt>
      <trkpt lat="42.64372" lon="1.06611">
        <ele>1364.2</ele>
        <time>2022-05-22 20:07:19</time>
      </trkpt>
      <trkpt lat="42.64372" lon="1.06605">
        <ele>1364.2</ele>
        <time>2022-05-22 20:07:20</time>
      </trkpt>
      <trkpt lat="42.64372" lon="1.06599">
        <ele>1364.4</ele>
        <time>2022-05-22 20:07:21</time>
      </trkpt>
      <trkpt lat="42.64373" lon="1.06593">
        <ele>1364.6</ele>
        <time>2022-05-22 20:07:22</time>
      </trkpt>
      <trkpt lat="42.64373" lon="1.06588">
        <ele>1364.8</ele>
        <time>2022-05-22 20:07:23</time>
      </trkpt>
      <trkpt lat="42.64374" lon="1.06582">
        <ele>1365</ele>
        <time>2022-05-22 20:07:24</time>
      </trkpt>
      <trkpt lat="42.64374" lon="1.06576">
        <ele>1365.4</ele>
        <time>2022-05-22 20:07:25</time>
      </trkpt>
      <trkpt lat="42.64374" lon="1.0657">
        <ele>1365.6</ele>
        <time>2022-05-22 20:07:26</time>
      </trkpt>
      <trkpt lat="42.64374" lon="1.06564">
        <ele>1365.6</ele>
        <time>2022-05-22 20:07:27</time>
      </trkpt>
      <trkpt lat="42.64374" lon="1.06558">
        <ele>1365.8</ele>
        <time>2022-05-22 20:07:28</time>
      </trkpt>
      <trkpt lat="42.64374" lon="1.06552">
        <ele>1366</ele>
        <time>2022-05-22 20:07:29</time>
      </trkpt>
      <trkpt lat="42.64374" lon="1.06546">
        <ele>1366</ele>
        <time>2022-05-22 20:07:30</time>
      </trkpt>
      <trkpt lat="42.64374" lon="1.06539">
        <ele>1366.2</ele>
        <time>2022-05-22 20:07:31</time>
      </trkpt>
      <trkpt lat="42.64374" lon="1.06533">
        <ele>1366.4</ele>
        <time>2022-05-22 20:07:32</time>
      </trkpt>
      <trkpt lat="42.64374" lon="1.06527">
        <ele>1366.4</ele>
        <time>2022-05-22 20:07:33</time>
      </trkpt>
      <trkpt lat="42.64374" lon="1.06521">
        <ele>1366.6</ele>
        <time>2022-05-22 20:07:34</time>
      </trkpt>
      <trkpt lat="42.64374" lon="1.06516">
        <ele>1366.8</ele>
        <time>2022-05-22 20:07:35</time>
      </trkpt>
      <trkpt lat="42.64374" lon="1.0651">
        <ele>1366.8</ele>
        <time>2022-05-22 20:07:36</time>
      </trkpt>
      <trkpt lat="42.64373" lon="1.06504">
        <ele>1367</ele>
        <time>2022-05-22 20:07:37</time>
      </trkpt>
      <trkpt lat="42.64373" lon="1.06499">
        <ele>1367.2</ele>
        <time>2022-05-22 20:07:38</time>
      </trkpt>
      <trkpt lat="42.64373" lon="1.06493">
        <ele>1367.2</ele>
        <time>2022-05-22 20:07:39</time>
      </trkpt>
      <trkpt lat="42.64373" lon="1.06487">
        <ele>1367.4</ele>
        <time>2022-05-22 20:07:40</time>
      </trkpt>
      <trkpt lat="42.64373" lon="1.06482">
        <ele>1367.6</ele>
        <time>2022-05-22 20:07:41</time>
      </trkpt>
      <trkpt lat="42.64373" lon="1.06476">
        <ele>1367.6</ele>
        <time>2022-05-22 20:07:42</time>
      </trkpt>
      <trkpt lat="42.64372" lon="1.0647">
        <ele>1367.6</ele>
        <time>2022-05-22 20:07:43</time>
      </trkpt>
      <trkpt lat="42.64371" lon="1.06464">
        <ele>1367.8</ele>
        <time>2022-05-22 20:07:44</time>
      </trkpt>
      <trkpt lat="42.6437" lon="1.06459">
        <ele>1367.8</ele>
        <time>2022-05-22 20:07:45</time>
      </trkpt>
      <trkpt lat="42.6437" lon="1.06452">
        <ele>1368</ele>
        <time>2022-05-22 20:07:46</time>
      </trkpt>
      <trkpt lat="42.64369" lon="1.06447">
        <ele>1368.2</ele>
        <time>2022-05-22 20:07:47</time>
      </trkpt>
      <trkpt lat="42.6437" lon="1.06442">
        <ele>1368.2</ele>
        <time>2022-05-22 20:07:48</time>
      </trkpt>
      <trkpt lat="42.6437" lon="1.06439">
        <ele>1368.2</ele>
        <time>2022-05-22 20:07:49</time>
      </trkpt>
      <trkpt lat="42.64369" lon="1.06431">
        <ele>1368.4</ele>
        <time>2022-05-22 20:07:50</time>
      </trkpt>
      <trkpt lat="42.64369" lon="1.06426">
        <ele>1368.4</ele>
        <time>2022-05-22 20:07:51</time>
      </trkpt>
      <trkpt lat="42.64369" lon="1.06421">
        <ele>1368.6</ele>
        <time>2022-05-22 20:07:52</time>
      </trkpt>
      <trkpt lat="42.64369" lon="1.06416">
        <ele>1368.8</ele>
        <time>2022-05-22 20:07:53</time>
      </trkpt>
      <trkpt lat="42.64368" lon="1.06411">
        <ele>1369</ele>
        <time>2022-05-22 20:07:54</time>
      </trkpt>
      <trkpt lat="42.64368" lon="1.06406">
        <ele>1369</ele>
        <time>2022-05-22 20:07:55</time>
      </trkpt>
      <trkpt lat="42.64367" lon="1.06401">
        <ele>1369.2</ele>
        <time>2022-05-22 20:07:56</time>
      </trkpt>
      <trkpt lat="42.64367" lon="1.06396">
        <ele>1369.4</ele>
        <time>2022-05-22 20:07:57</time>
      </trkpt>
      <trkpt lat="42.64366" lon="1.06391">
        <ele>1369.6</ele>
        <time>2022-05-22 20:07:58</time>
      </trkpt>
      <trkpt lat="42.64366" lon="1.06386">
        <ele>1369.8</ele>
        <time>2022-05-22 20:07:59</time>
      </trkpt>
      <trkpt lat="42.64366" lon="1.06381">
        <ele>1370</ele>
        <time>2022-05-22 20:08:00</time>
      </trkpt>
      <trkpt lat="42.64366" lon="1.06377">
        <ele>1370.2</ele>
        <time>2022-05-22 20:08:01</time>
      </trkpt>
      <trkpt lat="42.64366" lon="1.06372">
        <ele>1370.4</ele>
        <time>2022-05-22 20:08:02</time>
      </trkpt>
      <trkpt lat="42.64366" lon="1.06367">
        <ele>1370.4</ele>
        <time>2022-05-22 20:08:03</time>
      </trkpt>
      <trkpt lat="42.64366" lon="1.06362">
        <ele>1370.6</ele>
        <time>2022-05-22 20:08:04</time>
      </trkpt>
      <trkpt lat="42.64366" lon="1.06357">
        <ele>1370.8</ele>
        <time>2022-05-22 20:08:05</time>
      </trkpt>
      <trkpt lat="42.64366" lon="1.06353">
        <ele>1370.8</ele>
        <time>2022-05-22 20:08:06</time>
      </trkpt>
      <trkpt lat="42.64365" lon="1.06348">
        <ele>1371</ele>
        <time>2022-05-22 20:08:07</time>
      </trkpt>
      <trkpt lat="42.64365" lon="1.06344">
        <ele>1371.2</ele>
        <time>2022-05-22 20:08:08</time>
      </trkpt>
      <trkpt lat="42.64365" lon="1.06339">
        <ele>1371.2</ele>
        <time>2022-05-22 20:08:09</time>
      </trkpt>
      <trkpt lat="42.64365" lon="1.06335">
        <ele>1371.2</ele>
        <time>2022-05-22 20:08:10</time>
      </trkpt>
      <trkpt lat="42.64364" lon="1.06332">
        <ele>1371.4</ele>
        <time>2022-05-22 20:08:11</time>
      </trkpt>
      <trkpt lat="42.64363" lon="1.0633">
        <ele>1371.4</ele>
        <time>2022-05-22 20:08:12</time>
      </trkpt>
      <trkpt lat="42.64363" lon="1.06329">
        <ele>1371.4</ele>
        <time>2022-05-22 20:08:13</time>
      </trkpt>
      <trkpt lat="42.64363" lon="1.06328">
        <ele>1371.8</ele>
        <time>2022-05-22 20:08:14</time>
      </trkpt>
      <trkpt lat="42.64363" lon="1.06325">
        <ele>1371.8</ele>
        <time>2022-05-22 20:09:25</time>
      </trkpt>
      <trkpt lat="42.64363" lon="1.06322">
        <ele>1371.8</ele>
        <time>2022-05-22 20:09:26</time>
      </trkpt>
      <trkpt lat="42.64362" lon="1.06319">
        <ele>1371.8</ele>
        <time>2022-05-22 20:09:27</time>
      </trkpt>
      <trkpt lat="42.64361" lon="1.06316">
        <ele>1371.8</ele>
        <time>2022-05-22 20:09:28</time>
      </trkpt>
      <trkpt lat="42.64361" lon="1.06313">
        <ele>1371.8</ele>
        <time>2022-05-22 20:09:29</time>
      </trkpt>
      <trkpt lat="42.6436" lon="1.0631">
        <ele>1371.8</ele>
        <time>2022-05-22 20:09:30</time>
      </trkpt>
      <trkpt lat="42.6436" lon="1.06305">
        <ele>1372</ele>
        <time>2022-05-22 20:09:31</time>
      </trkpt>
      <trkpt lat="42.64359" lon="1.06301">
        <ele>1372</ele>
        <time>2022-05-22 20:09:32</time>
      </trkpt>
      <trkpt lat="42.64359" lon="1.06296">
        <ele>1372</ele>
        <time>2022-05-22 20:09:33</time>
      </trkpt>
      <trkpt lat="42.64359" lon="1.06292">
        <ele>1372</ele>
        <time>2022-05-22 20:09:34</time>
      </trkpt>
      <trkpt lat="42.64358" lon="1.06286">
        <ele>1372</ele>
        <time>2022-05-22 20:09:35</time>
      </trkpt>
      <trkpt lat="42.64358" lon="1.06281">
        <ele>1372</ele>
        <time>2022-05-22 20:09:36</time>
      </trkpt>
      <trkpt lat="42.64358" lon="1.06275">
        <ele>1372</ele>
        <time>2022-05-22 20:09:37</time>
      </trkpt>
      <trkpt lat="42.64357" lon="1.0627">
        <ele>1372.2</ele>
        <time>2022-05-22 20:09:38</time>
      </trkpt>
      <trkpt lat="42.64357" lon="1.06264">
        <ele>1372.2</ele>
        <time>2022-05-22 20:09:39</time>
      </trkpt>
      <trkpt lat="42.64357" lon="1.06259">
        <ele>1372.2</ele>
        <time>2022-05-22 20:09:40</time>
      </trkpt>
      <trkpt lat="42.64356" lon="1.06254">
        <ele>1372.4</ele>
        <time>2022-05-22 20:09:41</time>
      </trkpt>
      <trkpt lat="42.64356" lon="1.06249">
        <ele>1372.4</ele>
        <time>2022-05-22 20:09:42</time>
      </trkpt>
      <trkpt lat="42.64356" lon="1.06244">
        <ele>1372.6</ele>
        <time>2022-05-22 20:09:43</time>
      </trkpt>
      <trkpt lat="42.64356" lon="1.06239">
        <ele>1372.6</ele>
        <time>2022-05-22 20:09:44</time>
      </trkpt>
      <trkpt lat="42.64355" lon="1.06234">
        <ele>1372.8</ele>
        <time>2022-05-22 20:09:45</time>
      </trkpt>
      <trkpt lat="42.64354" lon="1.06229">
        <ele>1372.8</ele>
        <time>2022-05-22 20:09:46</time>
      </trkpt>
      <trkpt lat="42.64354" lon="1.06224">
        <ele>1373</ele>
        <time>2022-05-22 20:09:47</time>
      </trkpt>
      <trkpt lat="42.64353" lon="1.06219">
        <ele>1373</ele>
        <time>2022-05-22 20:09:48</time>
      </trkpt>
      <trkpt lat="42.64353" lon="1.06214">
        <ele>1373.2</ele>
        <time>2022-05-22 20:09:49</time>
      </trkpt>
      <trkpt lat="42.64353" lon="1.0621">
        <ele>1373.2</ele>
        <time>2022-05-22 20:09:50</time>
      </trkpt>
      <trkpt lat="42.64352" lon="1.06205">
        <ele>1373.4</ele>
        <time>2022-05-22 20:09:51</time>
      </trkpt>
      <trkpt lat="42.64351" lon="1.06201">
        <ele>1373.4</ele>
        <time>2022-05-22 20:09:52</time>
      </trkpt>
      <trkpt lat="42.64351" lon="1.06195">
        <ele>1373.6</ele>
        <time>2022-05-22 20:09:53</time>
      </trkpt>
      <trkpt lat="42.6435" lon="1.06191">
        <ele>1373.6</ele>
        <time>2022-05-22 20:09:54</time>
      </trkpt>
      <trkpt lat="42.6435" lon="1.06186">
        <ele>1373.8</ele>
        <time>2022-05-22 20:09:55</time>
      </trkpt>
      <trkpt lat="42.6435" lon="1.06181">
        <ele>1374</ele>
        <time>2022-05-22 20:09:56</time>
      </trkpt>
      <trkpt lat="42.64349" lon="1.06176">
        <ele>1374</ele>
        <time>2022-05-22 20:09:57</time>
      </trkpt>
      <trkpt lat="42.64349" lon="1.06172">
        <ele>1374.2</ele>
        <time>2022-05-22 20:09:58</time>
      </trkpt>
      <trkpt lat="42.64348" lon="1.06167">
        <ele>1374.4</ele>
        <time>2022-05-22 20:09:59</time>
      </trkpt>
      <trkpt lat="42.64348" lon="1.06163">
        <ele>1374.4</ele>
        <time>2022-05-22 20:10:00</time>
      </trkpt>
      <trkpt lat="42.64348" lon="1.06159">
        <ele>1374.6</ele>
        <time>2022-05-22 20:10:01</time>
      </trkpt>
      <trkpt lat="42.64348" lon="1.06154">
        <ele>1374.8</ele>
        <time>2022-05-22 20:10:02</time>
      </trkpt>
      <trkpt lat="42.64347" lon="1.0615">
        <ele>1375</ele>
        <time>2022-05-22 20:10:03</time>
      </trkpt>
      <trkpt lat="42.64347" lon="1.06146">
        <ele>1375.2</ele>
        <time>2022-05-22 20:10:04</time>
      </trkpt>
      <trkpt lat="42.64346" lon="1.06141">
        <ele>1375.2</ele>
        <time>2022-05-22 20:10:05</time>
      </trkpt>
      <trkpt lat="42.64345" lon="1.06136">
        <ele>1375.4</ele>
        <time>2022-05-22 20:10:06</time>
      </trkpt>
      <trkpt lat="42.64345" lon="1.06132">
        <ele>1375.6</ele>
        <time>2022-05-22 20:10:07</time>
      </trkpt>
      <trkpt lat="42.64345" lon="1.06128">
        <ele>1375.8</ele>
        <time>2022-05-22 20:10:08</time>
      </trkpt>
      <trkpt lat="42.64345" lon="1.06124">
        <ele>1376</ele>
        <time>2022-05-22 20:10:09</time>
      </trkpt>
      <trkpt lat="42.64345" lon="1.0612">
        <ele>1376</ele>
        <time>2022-05-22 20:10:10</time>
      </trkpt>
      <trkpt lat="42.64344" lon="1.06115">
        <ele>1376.4</ele>
        <time>2022-05-22 20:10:11</time>
      </trkpt>
      <trkpt lat="42.64344" lon="1.06111">
        <ele>1376.4</ele>
        <time>2022-05-22 20:10:12</time>
      </trkpt>
      <trkpt lat="42.64344" lon="1.06106">
        <ele>1376.6</ele>
        <time>2022-05-22 20:10:13</time>
      </trkpt>
      <trkpt lat="42.64344" lon="1.06103">
        <ele>1376.8</ele>
        <time>2022-05-22 20:10:14</time>
      </trkpt>
      <trkpt lat="42.64343" lon="1.06099">
        <ele>1377</ele>
        <time>2022-05-22 20:10:15</time>
      </trkpt>
      <trkpt lat="42.64343" lon="1.06095">
        <ele>1377.2</ele>
        <time>2022-05-22 20:10:16</time>
      </trkpt>
      <trkpt lat="42.64342" lon="1.06091">
        <ele>1377.4</ele>
        <time>2022-05-22 20:10:17</time>
      </trkpt>
      <trkpt lat="42.64342" lon="1.06088">
        <ele>1377.6</ele>
        <time>2022-05-22 20:10:18</time>
      </trkpt>
      <trkpt lat="42.64341" lon="1.06084">
        <ele>1377.6</ele>
        <time>2022-05-22 20:10:19</time>
      </trkpt>
      <trkpt lat="42.6434" lon="1.06081">
        <ele>1377.8</ele>
        <time>2022-05-22 20:10:20</time>
      </trkpt>
      <trkpt lat="42.6434" lon="1.06077">
        <ele>1378</ele>
        <time>2022-05-22 20:10:21</time>
      </trkpt>
      <trkpt lat="42.64339" lon="1.06073">
        <ele>1378.2</ele>
        <time>2022-05-22 20:10:22</time>
      </trkpt>
      <trkpt lat="42.64339" lon="1.0607">
        <ele>1378.2</ele>
        <time>2022-05-22 20:10:23</time>
      </trkpt>
      <trkpt lat="42.64339" lon="1.06067">
        <ele>1378.4</ele>
        <time>2022-05-22 20:10:24</time>
      </trkpt>
      <trkpt lat="42.64338" lon="1.06065">
        <ele>1378.6</ele>
        <time>2022-05-22 20:10:25</time>
      </trkpt>
      <trkpt lat="42.64338" lon="1.06062">
        <ele>1378.6</ele>
        <time>2022-05-22 20:10:26</time>
      </trkpt>
      <trkpt lat="42.64337" lon="1.0606">
        <ele>1378.8</ele>
        <time>2022-05-22 20:10:27</time>
      </trkpt>
      <trkpt lat="42.64336" lon="1.06058">
        <ele>1378.8</ele>
        <time>2022-05-22 20:10:28</time>
      </trkpt>
      <trkpt lat="42.64336" lon="1.06056">
        <ele>1379</ele>
        <time>2022-05-22 20:10:29</time>
      </trkpt>
      <trkpt lat="42.64336" lon="1.06054">
        <ele>1379</ele>
        <time>2022-05-22 20:10:30</time>
      </trkpt>
      <trkpt lat="42.64336" lon="1.06052">
        <ele>1379.2</ele>
        <time>2022-05-22 20:10:31</time>
      </trkpt>
      <trkpt lat="42.64335" lon="1.0605">
        <ele>1379.2</ele>
        <time>2022-05-22 20:10:32</time>
      </trkpt>
      <trkpt lat="42.64335" lon="1.06047">
        <ele>1379.4</ele>
        <time>2022-05-22 20:10:33</time>
      </trkpt>
      <trkpt lat="42.64334" lon="1.06045">
        <ele>1379.4</ele>
        <time>2022-05-22 20:10:34</time>
      </trkpt>
      <trkpt lat="42.64334" lon="1.06042">
        <ele>1379.6</ele>
        <time>2022-05-22 20:10:35</time>
      </trkpt>
      <trkpt lat="42.64333" lon="1.06039">
        <ele>1379.6</ele>
        <time>2022-05-22 20:10:36</time>
      </trkpt>
      <trkpt lat="42.64332" lon="1.06037">
        <ele>1379.8</ele>
        <time>2022-05-22 20:10:37</time>
      </trkpt>
      <trkpt lat="42.64331" lon="1.06034">
        <ele>1380</ele>
        <time>2022-05-22 20:10:38</time>
      </trkpt>
      <trkpt lat="42.64331" lon="1.06031">
        <ele>1380</ele>
        <time>2022-05-22 20:10:39</time>
      </trkpt>
      <trkpt lat="42.64331" lon="1.06028">
        <ele>1380.2</ele>
        <time>2022-05-22 20:10:40</time>
      </trkpt>
      <trkpt lat="42.6433" lon="1.06026">
        <ele>1380.4</ele>
        <time>2022-05-22 20:10:41</time>
      </trkpt>
      <trkpt lat="42.64329" lon="1.06023">
        <ele>1380.4</ele>
        <time>2022-05-22 20:10:42</time>
      </trkpt>
      <trkpt lat="42.64328" lon="1.0602">
        <ele>1380.6</ele>
        <time>2022-05-22 20:10:43</time>
      </trkpt>
      <trkpt lat="42.64328" lon="1.06018">
        <ele>1380.8</ele>
        <time>2022-05-22 20:10:44</time>
      </trkpt>
      <trkpt lat="42.64327" lon="1.06015">
        <ele>1380.8</ele>
        <time>2022-05-22 20:10:45</time>
      </trkpt>
      <trkpt lat="42.64326" lon="1.06013">
        <ele>1381</ele>
        <time>2022-05-22 20:10:46</time>
      </trkpt>
      <trkpt lat="42.64326" lon="1.0601">
        <ele>1381.2</ele>
        <time>2022-05-22 20:10:47</time>
      </trkpt>
      <trkpt lat="42.64325" lon="1.06007">
        <ele>1381.4</ele>
        <time>2022-05-22 20:10:48</time>
      </trkpt>
      <trkpt lat="42.64324" lon="1.06004">
        <ele>1381.4</ele>
        <time>2022-05-22 20:10:49</time>
      </trkpt>
      <trkpt lat="42.64323" lon="1.06002">
        <ele>1381.6</ele>
        <time>2022-05-22 20:10:50</time>
      </trkpt>
      <trkpt lat="42.64323" lon="1.05999">
        <ele>1381.8</ele>
        <time>2022-05-22 20:10:51</time>
      </trkpt>
      <trkpt lat="42.64322" lon="1.05997">
        <ele>1382</ele>
        <time>2022-05-22 20:10:52</time>
      </trkpt>
      <trkpt lat="42.64321" lon="1.05993">
        <ele>1382</ele>
        <time>2022-05-22 20:10:53</time>
      </trkpt>
      <trkpt lat="42.6432" lon="1.0599">
        <ele>1382.2</ele>
        <time>2022-05-22 20:10:54</time>
      </trkpt>
      <trkpt lat="42.64319" lon="1.05988">
        <ele>1382.4</ele>
        <time>2022-05-22 20:10:55</time>
      </trkpt>
      <trkpt lat="42.64318" lon="1.05985">
        <ele>1382.6</ele>
        <time>2022-05-22 20:10:56</time>
      </trkpt>
      <trkpt lat="42.64318" lon="1.05983">
        <ele>1382.6</ele>
        <time>2022-05-22 20:10:57</time>
      </trkpt>
      <trkpt lat="42.64317" lon="1.0598">
        <ele>1382.8</ele>
        <time>2022-05-22 20:10:58</time>
      </trkpt>
      <trkpt lat="42.64315" lon="1.05978">
        <ele>1383</ele>
        <time>2022-05-22 20:10:59</time>
      </trkpt>
      <trkpt lat="42.64314" lon="1.05975">
        <ele>1383.2</ele>
        <time>2022-05-22 20:11:00</time>
      </trkpt>
      <trkpt lat="42.64314" lon="1.05972">
        <ele>1383.4</ele>
        <time>2022-05-22 20:11:01</time>
      </trkpt>
      <trkpt lat="42.64313" lon="1.05969">
        <ele>1383.4</ele>
        <time>2022-05-22 20:11:02</time>
      </trkpt>
      <trkpt lat="42.64312" lon="1.05966">
        <ele>1383.6</ele>
        <time>2022-05-22 20:11:03</time>
      </trkpt>
      <trkpt lat="42.64311" lon="1.05964">
        <ele>1383.8</ele>
        <time>2022-05-22 20:11:04</time>
      </trkpt>
      <trkpt lat="42.6431" lon="1.05961">
        <ele>1384</ele>
        <time>2022-05-22 20:11:05</time>
      </trkpt>
      <trkpt lat="42.6431" lon="1.05958">
        <ele>1384.2</ele>
        <time>2022-05-22 20:11:06</time>
      </trkpt>
      <trkpt lat="42.64309" lon="1.05955">
        <ele>1384.4</ele>
        <time>2022-05-22 20:11:07</time>
      </trkpt>
      <trkpt lat="42.64308" lon="1.05951">
        <ele>1384.6</ele>
        <time>2022-05-22 20:11:08</time>
      </trkpt>
      <trkpt lat="42.64306" lon="1.05948">
        <ele>1384.8</ele>
        <time>2022-05-22 20:11:09</time>
      </trkpt>
      <trkpt lat="42.64305" lon="1.05945">
        <ele>1385</ele>
        <time>2022-05-22 20:11:10</time>
      </trkpt>
      <trkpt lat="42.64304" lon="1.05942">
        <ele>1385.2</ele>
        <time>2022-05-22 20:11:11</time>
      </trkpt>
      <trkpt lat="42.64303" lon="1.05939">
        <ele>1385.4</ele>
        <time>2022-05-22 20:11:12</time>
      </trkpt>
      <trkpt lat="42.64302" lon="1.05936">
        <ele>1385.6</ele>
        <time>2022-05-22 20:11:13</time>
      </trkpt>
      <trkpt lat="42.64301" lon="1.05933">
        <ele>1385.8</ele>
        <time>2022-05-22 20:11:14</time>
      </trkpt>
      <trkpt lat="42.643" lon="1.05931">
        <ele>1386</ele>
        <time>2022-05-22 20:11:15</time>
      </trkpt>
      <trkpt lat="42.64299" lon="1.05928">
        <ele>1386</ele>
        <time>2022-05-22 20:11:16</time>
      </trkpt>
      <trkpt lat="42.64298" lon="1.05926">
        <ele>1386.2</ele>
        <time>2022-05-22 20:11:17</time>
      </trkpt>
      <trkpt lat="42.64297" lon="1.05923">
        <ele>1386.4</ele>
        <time>2022-05-22 20:11:18</time>
      </trkpt>
      <trkpt lat="42.64296" lon="1.05922">
        <ele>1386.6</ele>
        <time>2022-05-22 20:11:19</time>
      </trkpt>
      <trkpt lat="42.64295" lon="1.0592">
        <ele>1386.6</ele>
        <time>2022-05-22 20:11:20</time>
      </trkpt>
      <trkpt lat="42.64293" lon="1.05916">
        <ele>1386.8</ele>
        <time>2022-05-22 20:11:21</time>
      </trkpt>
      <trkpt lat="42.64293" lon="1.05914">
        <ele>1387</ele>
        <time>2022-05-22 20:11:22</time>
      </trkpt>
      <trkpt lat="42.64292" lon="1.05911">
        <ele>1387.2</ele>
        <time>2022-05-22 20:11:23</time>
      </trkpt>
      <trkpt lat="42.64291" lon="1.05909">
        <ele>1387.4</ele>
        <time>2022-05-22 20:11:24</time>
      </trkpt>
      <trkpt lat="42.6429" lon="1.05907">
        <ele>1387.4</ele>
        <time>2022-05-22 20:11:25</time>
      </trkpt>
      <trkpt lat="42.64289" lon="1.05904">
        <ele>1387.6</ele>
        <time>2022-05-22 20:11:26</time>
      </trkpt>
      <trkpt lat="42.64288" lon="1.05902">
        <ele>1387.8</ele>
        <time>2022-05-22 20:11:27</time>
      </trkpt>
      <trkpt lat="42.64288" lon="1.059">
        <ele>1388</ele>
        <time>2022-05-22 20:11:28</time>
      </trkpt>
      <trkpt lat="42.64287" lon="1.05897">
        <ele>1388.2</ele>
        <time>2022-05-22 20:11:29</time>
      </trkpt>
      <trkpt lat="42.64286" lon="1.05895">
        <ele>1388.4</ele>
        <time>2022-05-22 20:11:30</time>
      </trkpt>
      <trkpt lat="42.64285" lon="1.05893">
        <ele>1388.4</ele>
        <time>2022-05-22 20:11:31</time>
      </trkpt>
      <trkpt lat="42.64285" lon="1.05891">
        <ele>1388.6</ele>
        <time>2022-05-22 20:11:32</time>
      </trkpt>
      <trkpt lat="42.64284" lon="1.05888">
        <ele>1388.8</ele>
        <time>2022-05-22 20:11:33</time>
      </trkpt>
      <trkpt lat="42.64283" lon="1.05886">
        <ele>1389</ele>
        <time>2022-05-22 20:11:34</time>
      </trkpt>
      <trkpt lat="42.64282" lon="1.05884">
        <ele>1389</ele>
        <time>2022-05-22 20:11:35</time>
      </trkpt>
      <trkpt lat="42.64281" lon="1.0588">
        <ele>1389.2</ele>
        <time>2022-05-22 20:11:36</time>
      </trkpt>
      <trkpt lat="42.6428" lon="1.05878">
        <ele>1389.4</ele>
        <time>2022-05-22 20:11:37</time>
      </trkpt>
      <trkpt lat="42.6428" lon="1.05875">
        <ele>1389.6</ele>
        <time>2022-05-22 20:11:38</time>
      </trkpt>
      <trkpt lat="42.64279" lon="1.05873">
        <ele>1389.8</ele>
        <time>2022-05-22 20:11:39</time>
      </trkpt>
      <trkpt lat="42.64278" lon="1.05871">
        <ele>1390</ele>
        <time>2022-05-22 20:11:40</time>
      </trkpt>
      <trkpt lat="42.64277" lon="1.05868">
        <ele>1390</ele>
        <time>2022-05-22 20:11:41</time>
      </trkpt>
      <trkpt lat="42.64276" lon="1.05866">
        <ele>1390.2</ele>
        <time>2022-05-22 20:11:42</time>
      </trkpt>
      <trkpt lat="42.64275" lon="1.05863">
        <ele>1390.4</ele>
        <time>2022-05-22 20:11:43</time>
      </trkpt>
      <trkpt lat="42.64275" lon="1.05861">
        <ele>1390.6</ele>
        <time>2022-05-22 20:11:44</time>
      </trkpt>
      <trkpt lat="42.64275" lon="1.05859">
        <ele>1390.8</ele>
        <time>2022-05-22 20:11:45</time>
      </trkpt>
      <trkpt lat="42.64274" lon="1.05856">
        <ele>1390.8</ele>
        <time>2022-05-22 20:11:46</time>
      </trkpt>
      <trkpt lat="42.64273" lon="1.05852">
        <ele>1391</ele>
        <time>2022-05-22 20:11:47</time>
      </trkpt>
      <trkpt lat="42.64272" lon="1.0585">
        <ele>1391.2</ele>
        <time>2022-05-22 20:11:48</time>
      </trkpt>
      <trkpt lat="42.64271" lon="1.05847">
        <ele>1391.4</ele>
        <time>2022-05-22 20:11:49</time>
      </trkpt>
      <trkpt lat="42.6427" lon="1.05844">
        <ele>1391.6</ele>
        <time>2022-05-22 20:11:50</time>
      </trkpt>
      <trkpt lat="42.64269" lon="1.05842">
        <ele>1391.8</ele>
        <time>2022-05-22 20:11:51</time>
      </trkpt>
      <trkpt lat="42.64267" lon="1.05839">
        <ele>1392</ele>
        <time>2022-05-22 20:11:52</time>
      </trkpt>
      <trkpt lat="42.64266" lon="1.05837">
        <ele>1392</ele>
        <time>2022-05-22 20:11:53</time>
      </trkpt>
      <trkpt lat="42.64265" lon="1.05836">
        <ele>1392.2</ele>
        <time>2022-05-22 20:11:54</time>
      </trkpt>
      <trkpt lat="42.64264" lon="1.05833">
        <ele>1392.4</ele>
        <time>2022-05-22 20:11:55</time>
      </trkpt>
      <trkpt lat="42.64263" lon="1.05831">
        <ele>1392.4</ele>
        <time>2022-05-22 20:11:56</time>
      </trkpt>
      <trkpt lat="42.64262" lon="1.05829">
        <ele>1392.6</ele>
        <time>2022-05-22 20:11:57</time>
      </trkpt>
      <trkpt lat="42.64262" lon="1.05826">
        <ele>1392.6</ele>
        <time>2022-05-22 20:11:58</time>
      </trkpt>
      <trkpt lat="42.64261" lon="1.05824">
        <ele>1392.8</ele>
        <time>2022-05-22 20:11:59</time>
      </trkpt>
      <trkpt lat="42.6426" lon="1.05823">
        <ele>1393</ele>
        <time>2022-05-22 20:12:00</time>
      </trkpt>
      <trkpt lat="42.6426" lon="1.05821">
        <ele>1393.2</ele>
        <time>2022-05-22 20:12:01</time>
      </trkpt>
      <trkpt lat="42.64259" lon="1.05819">
        <ele>1393.4</ele>
        <time>2022-05-22 20:12:02</time>
      </trkpt>
      <trkpt lat="42.64259" lon="1.05817">
        <ele>1393.4</ele>
        <time>2022-05-22 20:12:03</time>
      </trkpt>
      <trkpt lat="42.64258" lon="1.05815">
        <ele>1393.6</ele>
        <time>2022-05-22 20:12:04</time>
      </trkpt>
      <trkpt lat="42.64257" lon="1.05813">
        <ele>1393.6</ele>
        <time>2022-05-22 20:12:05</time>
      </trkpt>
      <trkpt lat="42.64257" lon="1.05811">
        <ele>1393.8</ele>
        <time>2022-05-22 20:12:06</time>
      </trkpt>
      <trkpt lat="42.64257" lon="1.05808">
        <ele>1393.8</ele>
        <time>2022-05-22 20:12:07</time>
      </trkpt>
      <trkpt lat="42.64256" lon="1.05806">
        <ele>1394</ele>
        <time>2022-05-22 20:12:08</time>
      </trkpt>
      <trkpt lat="42.64256" lon="1.05804">
        <ele>1394</ele>
        <time>2022-05-22 20:12:09</time>
      </trkpt>
      <trkpt lat="42.64255" lon="1.05802">
        <ele>1394</ele>
        <time>2022-05-22 20:12:10</time>
      </trkpt>
      <trkpt lat="42.64255" lon="1.05799">
        <ele>1394.2</ele>
        <time>2022-05-22 20:12:11</time>
      </trkpt>
      <trkpt lat="42.64254" lon="1.05797">
        <ele>1394.2</ele>
        <time>2022-05-22 20:12:12</time>
      </trkpt>
      <trkpt lat="42.64253" lon="1.05795">
        <ele>1394.4</ele>
        <time>2022-05-22 20:12:13</time>
      </trkpt>
      <trkpt lat="42.64252" lon="1.05792">
        <ele>1394.6</ele>
        <time>2022-05-22 20:12:14</time>
      </trkpt>
      <trkpt lat="42.64252" lon="1.0579">
        <ele>1394.8</ele>
        <time>2022-05-22 20:12:15</time>
      </trkpt>
      <trkpt lat="42.64251" lon="1.05788">
        <ele>1394.8</ele>
        <time>2022-05-22 20:12:16</time>
      </trkpt>
      <trkpt lat="42.6425" lon="1.05786">
        <ele>1395</ele>
        <time>2022-05-22 20:12:17</time>
      </trkpt>
      <trkpt lat="42.64249" lon="1.05784">
        <ele>1395.2</ele>
        <time>2022-05-22 20:12:18</time>
      </trkpt>
      <trkpt lat="42.64248" lon="1.05782">
        <ele>1395.4</ele>
        <time>2022-05-22 20:12:19</time>
      </trkpt>
      <trkpt lat="42.64247" lon="1.05779">
        <ele>1395.4</ele>
        <time>2022-05-22 20:12:20</time>
      </trkpt>
      <trkpt lat="42.64246" lon="1.05777">
        <ele>1395.6</ele>
        <time>2022-05-22 20:12:21</time>
      </trkpt>
      <trkpt lat="42.64246" lon="1.05775">
        <ele>1395.8</ele>
        <time>2022-05-22 20:12:22</time>
      </trkpt>
      <trkpt lat="42.64245" lon="1.05773">
        <ele>1395.8</ele>
        <time>2022-05-22 20:12:23</time>
      </trkpt>
      <trkpt lat="42.64245" lon="1.05771">
        <ele>1396</ele>
        <time>2022-05-22 20:12:24</time>
      </trkpt>
      <trkpt lat="42.64245" lon="1.05769">
        <ele>1396.2</ele>
        <time>2022-05-22 20:12:25</time>
      </trkpt>
      <trkpt lat="42.64244" lon="1.05767">
        <ele>1396.2</ele>
        <time>2022-05-22 20:12:26</time>
      </trkpt>
      <trkpt lat="42.64243" lon="1.05765">
        <ele>1396.4</ele>
        <time>2022-05-22 20:12:27</time>
      </trkpt>
      <trkpt lat="42.64242" lon="1.05763">
        <ele>1396.4</ele>
        <time>2022-05-22 20:12:28</time>
      </trkpt>
      <trkpt lat="42.64241" lon="1.05761">
        <ele>1396.6</ele>
        <time>2022-05-22 20:12:29</time>
      </trkpt>
      <trkpt lat="42.64241" lon="1.05759">
        <ele>1396.8</ele>
        <time>2022-05-22 20:12:30</time>
      </trkpt>
      <trkpt lat="42.6424" lon="1.05756">
        <ele>1396.8</ele>
        <time>2022-05-22 20:12:31</time>
      </trkpt>
      <trkpt lat="42.6424" lon="1.05754">
        <ele>1397</ele>
        <time>2022-05-22 20:12:32</time>
      </trkpt>
      <trkpt lat="42.64239" lon="1.05752">
        <ele>1397.2</ele>
        <time>2022-05-22 20:12:33</time>
      </trkpt>
      <trkpt lat="42.64239" lon="1.0575">
        <ele>1397.2</ele>
        <time>2022-05-22 20:12:34</time>
      </trkpt>
      <trkpt lat="42.64239" lon="1.05748">
        <ele>1397.4</ele>
        <time>2022-05-22 20:12:35</time>
      </trkpt>
      <trkpt lat="42.64239" lon="1.05746">
        <ele>1397.6</ele>
        <time>2022-05-22 20:12:36</time>
      </trkpt>
      <trkpt lat="42.64238" lon="1.05744">
        <ele>1397.6</ele>
        <time>2022-05-22 20:12:37</time>
      </trkpt>
      <trkpt lat="42.64237" lon="1.05742">
        <ele>1397.8</ele>
        <time>2022-05-22 20:12:38</time>
      </trkpt>
      <trkpt lat="42.64237" lon="1.0574">
        <ele>1397.8</ele>
        <time>2022-05-22 20:12:39</time>
      </trkpt>
      <trkpt lat="42.64236" lon="1.05738">
        <ele>1398</ele>
        <time>2022-05-22 20:12:40</time>
      </trkpt>
      <trkpt lat="42.64235" lon="1.05736">
        <ele>1398</ele>
        <time>2022-05-22 20:12:41</time>
      </trkpt>
      <trkpt lat="42.64234" lon="1.05733">
        <ele>1398.2</ele>
        <time>2022-05-22 20:12:42</time>
      </trkpt>
      <trkpt lat="42.64233" lon="1.05731">
        <ele>1398.4</ele>
        <time>2022-05-22 20:12:43</time>
      </trkpt>
      <trkpt lat="42.64233" lon="1.05728">
        <ele>1398.6</ele>
        <time>2022-05-22 20:12:44</time>
      </trkpt>
      <trkpt lat="42.64232" lon="1.05726">
        <ele>1398.6</ele>
        <time>2022-05-22 20:12:45</time>
      </trkpt>
      <trkpt lat="42.64231" lon="1.05724">
        <ele>1398.8</ele>
        <time>2022-05-22 20:12:46</time>
      </trkpt>
      <trkpt lat="42.6423" lon="1.05722">
        <ele>1398.8</ele>
        <time>2022-05-22 20:12:47</time>
      </trkpt>
      <trkpt lat="42.64229" lon="1.0572">
        <ele>1399</ele>
        <time>2022-05-22 20:12:48</time>
      </trkpt>
      <trkpt lat="42.64228" lon="1.05717">
        <ele>1399.2</ele>
        <time>2022-05-22 20:12:49</time>
      </trkpt>
      <trkpt lat="42.64228" lon="1.05715">
        <ele>1399.2</ele>
        <time>2022-05-22 20:12:50</time>
      </trkpt>
      <trkpt lat="42.64227" lon="1.05713">
        <ele>1399.4</ele>
        <time>2022-05-22 20:12:51</time>
      </trkpt>
      <trkpt lat="42.64226" lon="1.05711">
        <ele>1399.4</ele>
        <time>2022-05-22 20:12:52</time>
      </trkpt>
      <trkpt lat="42.64225" lon="1.05709">
        <ele>1399.6</ele>
        <time>2022-05-22 20:12:53</time>
      </trkpt>
      <trkpt lat="42.64224" lon="1.05707">
        <ele>1399.6</ele>
        <time>2022-05-22 20:12:54</time>
      </trkpt>
      <trkpt lat="42.64224" lon="1.05704">
        <ele>1399.8</ele>
        <time>2022-05-22 20:12:55</time>
      </trkpt>
      <trkpt lat="42.64223" lon="1.05702">
        <ele>1399.8</ele>
        <time>2022-05-22 20:12:56</time>
      </trkpt>
      <trkpt lat="42.64223" lon="1.057">
        <ele>1400</ele>
        <time>2022-05-22 20:12:57</time>
      </trkpt>
      <trkpt lat="42.64222" lon="1.05698">
        <ele>1400.2</ele>
        <time>2022-05-22 20:12:58</time>
      </trkpt>
      <trkpt lat="42.64221" lon="1.05696">
        <ele>1400.2</ele>
        <time>2022-05-22 20:12:59</time>
      </trkpt>
      <trkpt lat="42.6422" lon="1.05694">
        <ele>1400.4</ele>
        <time>2022-05-22 20:13:00</time>
      </trkpt>
      <trkpt lat="42.6422" lon="1.05692">
        <ele>1400.6</ele>
        <time>2022-05-22 20:13:01</time>
      </trkpt>
      <trkpt lat="42.64219" lon="1.0569">
        <ele>1400.6</ele>
        <time>2022-05-22 20:13:02</time>
      </trkpt>
      <trkpt lat="42.64218" lon="1.05688">
        <ele>1400.8</ele>
        <time>2022-05-22 20:13:03</time>
      </trkpt>
      <trkpt lat="42.64218" lon="1.05686">
        <ele>1401</ele>
        <time>2022-05-22 20:13:04</time>
      </trkpt>
      <trkpt lat="42.64217" lon="1.05684">
        <ele>1401</ele>
        <time>2022-05-22 20:13:05</time>
      </trkpt>
      <trkpt lat="42.64217" lon="1.05682">
        <ele>1401.2</ele>
        <time>2022-05-22 20:13:06</time>
      </trkpt>
      <trkpt lat="42.64217" lon="1.0568">
        <ele>1401.4</ele>
        <time>2022-05-22 20:13:07</time>
      </trkpt>
      <trkpt lat="42.64216" lon="1.05678">
        <ele>1401.4</ele>
        <time>2022-05-22 20:13:08</time>
      </trkpt>
      <trkpt lat="42.64215" lon="1.05677">
        <ele>1401.6</ele>
        <time>2022-05-22 20:13:09</time>
      </trkpt>
      <trkpt lat="42.64215" lon="1.05674">
        <ele>1401.6</ele>
        <time>2022-05-22 20:13:10</time>
      </trkpt>
      <trkpt lat="42.64214" lon="1.05672">
        <ele>1401.8</ele>
        <time>2022-05-22 20:13:11</time>
      </trkpt>
      <trkpt lat="42.64213" lon="1.0567">
        <ele>1402</ele>
        <time>2022-05-22 20:13:12</time>
      </trkpt>
      <trkpt lat="42.64212" lon="1.05668">
        <ele>1402</ele>
        <time>2022-05-22 20:13:13</time>
      </trkpt>
      <trkpt lat="42.64212" lon="1.05666">
        <ele>1402.2</ele>
        <time>2022-05-22 20:13:14</time>
      </trkpt>
      <trkpt lat="42.64211" lon="1.05663">
        <ele>1402.4</ele>
        <time>2022-05-22 20:13:15</time>
      </trkpt>
      <trkpt lat="42.6421" lon="1.05661">
        <ele>1402.4</ele>
        <time>2022-05-22 20:13:16</time>
      </trkpt>
      <trkpt lat="42.64209" lon="1.05659">
        <ele>1402.6</ele>
        <time>2022-05-22 20:13:17</time>
      </trkpt>
      <trkpt lat="42.64208" lon="1.05656">
        <ele>1402.6</ele>
        <time>2022-05-22 20:13:18</time>
      </trkpt>
      <trkpt lat="42.64208" lon="1.05654">
        <ele>1402.8</ele>
        <time>2022-05-22 20:13:19</time>
      </trkpt>
      <trkpt lat="42.64207" lon="1.05652">
        <ele>1403</ele>
        <time>2022-05-22 20:13:20</time>
      </trkpt>
      <trkpt lat="42.64206" lon="1.0565">
        <ele>1403</ele>
        <time>2022-05-22 20:13:21</time>
      </trkpt>
      <trkpt lat="42.64205" lon="1.05648">
        <ele>1403.2</ele>
        <time>2022-05-22 20:13:22</time>
      </trkpt>
      <trkpt lat="42.64205" lon="1.05645">
        <ele>1403.4</ele>
        <time>2022-05-22 20:13:23</time>
      </trkpt>
      <trkpt lat="42.64205" lon="1.05643">
        <ele>1403.6</ele>
        <time>2022-05-22 20:13:24</time>
      </trkpt>
      <trkpt lat="42.64205" lon="1.05641">
        <ele>1403.6</ele>
        <time>2022-05-22 20:13:25</time>
      </trkpt>
      <trkpt lat="42.64204" lon="1.05639">
        <ele>1403.8</ele>
        <time>2022-05-22 20:13:26</time>
      </trkpt>
      <trkpt lat="42.64203" lon="1.05636">
        <ele>1404</ele>
        <time>2022-05-22 20:13:27</time>
      </trkpt>
      <trkpt lat="42.64202" lon="1.05632">
        <ele>1404</ele>
        <time>2022-05-22 20:13:28</time>
      </trkpt>
      <trkpt lat="42.64201" lon="1.05629">
        <ele>1404.2</ele>
        <time>2022-05-22 20:13:29</time>
      </trkpt>
      <trkpt lat="42.642" lon="1.05627">
        <ele>1404.4</ele>
        <time>2022-05-22 20:13:30</time>
      </trkpt>
      <trkpt lat="42.642" lon="1.05623">
        <ele>1404.6</ele>
        <time>2022-05-22 20:13:31</time>
      </trkpt>
      <trkpt lat="42.64199" lon="1.05621">
        <ele>1404.8</ele>
        <time>2022-05-22 20:13:32</time>
      </trkpt>
      <trkpt lat="42.64198" lon="1.05619">
        <ele>1404.8</ele>
        <time>2022-05-22 20:13:33</time>
      </trkpt>
      <trkpt lat="42.64198" lon="1.05617">
        <ele>1405</ele>
        <time>2022-05-22 20:13:34</time>
      </trkpt>
      <trkpt lat="42.64197" lon="1.05614">
        <ele>1405</ele>
        <time>2022-05-22 20:13:35</time>
      </trkpt>
      <trkpt lat="42.64197" lon="1.05612">
        <ele>1405.2</ele>
        <time>2022-05-22 20:13:36</time>
      </trkpt>
      <trkpt lat="42.64196" lon="1.05609">
        <ele>1405.4</ele>
        <time>2022-05-22 20:13:37</time>
      </trkpt>
      <trkpt lat="42.64196" lon="1.05607">
        <ele>1405.4</ele>
        <time>2022-05-22 20:13:38</time>
      </trkpt>
      <trkpt lat="42.64195" lon="1.05605">
        <ele>1405.6</ele>
        <time>2022-05-22 20:13:39</time>
      </trkpt>
      <trkpt lat="42.64194" lon="1.05603">
        <ele>1405.8</ele>
        <time>2022-05-22 20:13:40</time>
      </trkpt>
      <trkpt lat="42.64193" lon="1.05601">
        <ele>1405.8</ele>
        <time>2022-05-22 20:13:41</time>
      </trkpt>
      <trkpt lat="42.64192" lon="1.05599">
        <ele>1406</ele>
        <time>2022-05-22 20:13:42</time>
      </trkpt>
      <trkpt lat="42.64192" lon="1.05597">
        <ele>1406.2</ele>
        <time>2022-05-22 20:13:43</time>
      </trkpt>
      <trkpt lat="42.64191" lon="1.05595">
        <ele>1406.2</ele>
        <time>2022-05-22 20:13:44</time>
      </trkpt>
      <trkpt lat="42.6419" lon="1.05593">
        <ele>1406.4</ele>
        <time>2022-05-22 20:13:45</time>
      </trkpt>
      <trkpt lat="42.64189" lon="1.05591">
        <ele>1406.4</ele>
        <time>2022-05-22 20:13:46</time>
      </trkpt>
      <trkpt lat="42.64189" lon="1.05589">
        <ele>1406.6</ele>
        <time>2022-05-22 20:13:47</time>
      </trkpt>
      <trkpt lat="42.64188" lon="1.05586">
        <ele>1406.8</ele>
        <time>2022-05-22 20:13:48</time>
      </trkpt>
      <trkpt lat="42.64188" lon="1.05584">
        <ele>1406.8</ele>
        <time>2022-05-22 20:13:49</time>
      </trkpt>
      <trkpt lat="42.64187" lon="1.05582">
        <ele>1407</ele>
        <time>2022-05-22 20:13:50</time>
      </trkpt>
      <trkpt lat="42.64186" lon="1.0558">
        <ele>1407.2</ele>
        <time>2022-05-22 20:13:51</time>
      </trkpt>
      <trkpt lat="42.64186" lon="1.05578">
        <ele>1407.2</ele>
        <time>2022-05-22 20:13:52</time>
      </trkpt>
      <trkpt lat="42.64185" lon="1.05576">
        <ele>1407.4</ele>
        <time>2022-05-22 20:13:53</time>
      </trkpt>
      <trkpt lat="42.64184" lon="1.05574">
        <ele>1407.6</ele>
        <time>2022-05-22 20:13:54</time>
      </trkpt>
      <trkpt lat="42.64183" lon="1.05571">
        <ele>1407.8</ele>
        <time>2022-05-22 20:13:55</time>
      </trkpt>
      <trkpt lat="42.64182" lon="1.05569">
        <ele>1407.8</ele>
        <time>2022-05-22 20:13:56</time>
      </trkpt>
      <trkpt lat="42.64182" lon="1.05567">
        <ele>1408</ele>
        <time>2022-05-22 20:13:57</time>
      </trkpt>
      <trkpt lat="42.64181" lon="1.05565">
        <ele>1408.2</ele>
        <time>2022-05-22 20:13:58</time>
      </trkpt>
      <trkpt lat="42.6418" lon="1.05562">
        <ele>1408.2</ele>
        <time>2022-05-22 20:13:59</time>
      </trkpt>
      <trkpt lat="42.64179" lon="1.0556">
        <ele>1408.4</ele>
        <time>2022-05-22 20:14:00</time>
      </trkpt>
      <trkpt lat="42.64178" lon="1.05558">
        <ele>1408.6</ele>
        <time>2022-05-22 20:14:01</time>
      </trkpt>
      <trkpt lat="42.64178" lon="1.05556">
        <ele>1408.8</ele>
        <time>2022-05-22 20:14:02</time>
      </trkpt>
      <trkpt lat="42.64177" lon="1.05553">
        <ele>1409</ele>
        <time>2022-05-22 20:14:03</time>
      </trkpt>
      <trkpt lat="42.64177" lon="1.05552">
        <ele>1409</ele>
        <time>2022-05-22 20:14:04</time>
      </trkpt>
      <trkpt lat="42.64175" lon="1.05549">
        <ele>1409.2</ele>
        <time>2022-05-22 20:14:05</time>
      </trkpt>
      <trkpt lat="42.64174" lon="1.05546">
        <ele>1409.4</ele>
        <time>2022-05-22 20:14:06</time>
      </trkpt>
      <trkpt lat="42.64174" lon="1.05544">
        <ele>1409.6</ele>
        <time>2022-05-22 20:14:07</time>
      </trkpt>
      <trkpt lat="42.64173" lon="1.05542">
        <ele>1409.8</ele>
        <time>2022-05-22 20:14:08</time>
      </trkpt>
      <trkpt lat="42.64172" lon="1.05541">
        <ele>1409.8</ele>
        <time>2022-05-22 20:14:09</time>
      </trkpt>
      <trkpt lat="42.64171" lon="1.05539">
        <ele>1410</ele>
        <time>2022-05-22 20:14:10</time>
      </trkpt>
      <trkpt lat="42.6417" lon="1.05537">
        <ele>1410.2</ele>
        <time>2022-05-22 20:14:11</time>
      </trkpt>
      <trkpt lat="42.64169" lon="1.05535">
        <ele>1410.4</ele>
        <time>2022-05-22 20:14:12</time>
      </trkpt>
      <trkpt lat="42.64168" lon="1.05533">
        <ele>1410.4</ele>
        <time>2022-05-22 20:14:13</time>
      </trkpt>
      <trkpt lat="42.64166" lon="1.05531">
        <ele>1410.6</ele>
        <time>2022-05-22 20:14:14</time>
      </trkpt>
      <trkpt lat="42.64166" lon="1.05529">
        <ele>1410.8</ele>
        <time>2022-05-22 20:14:15</time>
      </trkpt>
      <trkpt lat="42.64165" lon="1.05527">
        <ele>1411</ele>
        <time>2022-05-22 20:14:16</time>
      </trkpt>
      <trkpt lat="42.64163" lon="1.05524">
        <ele>1411</ele>
        <time>2022-05-22 20:14:17</time>
      </trkpt>
      <trkpt lat="42.64162" lon="1.05522">
        <ele>1411.2</ele>
        <time>2022-05-22 20:14:18</time>
      </trkpt>
      <trkpt lat="42.64161" lon="1.0552">
        <ele>1411.4</ele>
        <time>2022-05-22 20:14:19</time>
      </trkpt>
      <trkpt lat="42.6416" lon="1.05519">
        <ele>1411.4</ele>
        <time>2022-05-22 20:14:20</time>
      </trkpt>
      <trkpt lat="42.64159" lon="1.05517">
        <ele>1411.6</ele>
        <time>2022-05-22 20:14:21</time>
      </trkpt>
      <trkpt lat="42.64157" lon="1.05514">
        <ele>1411.8</ele>
        <time>2022-05-22 20:14:22</time>
      </trkpt>
      <trkpt lat="42.64156" lon="1.05512">
        <ele>1412</ele>
        <time>2022-05-22 20:14:23</time>
      </trkpt>
      <trkpt lat="42.64155" lon="1.0551">
        <ele>1412.2</ele>
        <time>2022-05-22 20:14:24</time>
      </trkpt>
      <trkpt lat="42.64154" lon="1.05508">
        <ele>1412.2</ele>
        <time>2022-05-22 20:14:25</time>
      </trkpt>
      <trkpt lat="42.64153" lon="1.05506">
        <ele>1412.4</ele>
        <time>2022-05-22 20:14:26</time>
      </trkpt>
      <trkpt lat="42.64151" lon="1.05504">
        <ele>1412.6</ele>
        <time>2022-05-22 20:14:27</time>
      </trkpt>
      <trkpt lat="42.6415" lon="1.05502">
        <ele>1412.6</ele>
        <time>2022-05-22 20:14:28</time>
      </trkpt>
      <trkpt lat="42.64148" lon="1.055">
        <ele>1412.8</ele>
        <time>2022-05-22 20:14:29</time>
      </trkpt>
      <trkpt lat="42.64147" lon="1.05499">
        <ele>1413</ele>
        <time>2022-05-22 20:14:30</time>
      </trkpt>
      <trkpt lat="42.64146" lon="1.05497">
        <ele>1413.2</ele>
        <time>2022-05-22 20:14:31</time>
      </trkpt>
      <trkpt lat="42.64145" lon="1.05494">
        <ele>1413.2</ele>
        <time>2022-05-22 20:14:32</time>
      </trkpt>
      <trkpt lat="42.64144" lon="1.05493">
        <ele>1413.4</ele>
        <time>2022-05-22 20:14:33</time>
      </trkpt>
      <trkpt lat="42.64142" lon="1.05491">
        <ele>1413.6</ele>
        <time>2022-05-22 20:14:34</time>
      </trkpt>
      <trkpt lat="42.64141" lon="1.05489">
        <ele>1413.8</ele>
        <time>2022-05-22 20:14:35</time>
      </trkpt>
      <trkpt lat="42.6414" lon="1.05487">
        <ele>1413.8</ele>
        <time>2022-05-22 20:14:36</time>
      </trkpt>
      <trkpt lat="42.64139" lon="1.05485">
        <ele>1414</ele>
        <time>2022-05-22 20:14:37</time>
      </trkpt>
      <trkpt lat="42.64138" lon="1.05482">
        <ele>1414.2</ele>
        <time>2022-05-22 20:14:38</time>
      </trkpt>
      <trkpt lat="42.64137" lon="1.0548">
        <ele>1414.4</ele>
        <time>2022-05-22 20:14:39</time>
      </trkpt>
      <trkpt lat="42.64135" lon="1.05477">
        <ele>1414.6</ele>
        <time>2022-05-22 20:14:40</time>
      </trkpt>
      <trkpt lat="42.64134" lon="1.05475">
        <ele>1414.8</ele>
        <time>2022-05-22 20:14:41</time>
      </trkpt>
      <trkpt lat="42.64132" lon="1.05472">
        <ele>1414.8</ele>
        <time>2022-05-22 20:14:42</time>
      </trkpt>
      <trkpt lat="42.64131" lon="1.0547">
        <ele>1415</ele>
        <time>2022-05-22 20:14:43</time>
      </trkpt>
      <trkpt lat="42.64129" lon="1.05467">
        <ele>1415.2</ele>
        <time>2022-05-22 20:14:44</time>
      </trkpt>
      <trkpt lat="42.64128" lon="1.05465">
        <ele>1415.4</ele>
        <time>2022-05-22 20:14:45</time>
      </trkpt>
      <trkpt lat="42.64127" lon="1.05462">
        <ele>1415.6</ele>
        <time>2022-05-22 20:14:46</time>
      </trkpt>
      <trkpt lat="42.64125" lon="1.05459">
        <ele>1415.8</ele>
        <time>2022-05-22 20:14:47</time>
      </trkpt>
      <trkpt lat="42.64124" lon="1.05457">
        <ele>1415.8</ele>
        <time>2022-05-22 20:14:48</time>
      </trkpt>
      <trkpt lat="42.64122" lon="1.05455">
        <ele>1416</ele>
        <time>2022-05-22 20:14:49</time>
      </trkpt>
      <trkpt lat="42.64121" lon="1.05453">
        <ele>1416.2</ele>
        <time>2022-05-22 20:14:50</time>
      </trkpt>
      <trkpt lat="42.64119" lon="1.05451">
        <ele>1416.4</ele>
        <time>2022-05-22 20:14:51</time>
      </trkpt>
      <trkpt lat="42.64118" lon="1.05449">
        <ele>1416.6</ele>
        <time>2022-05-22 20:14:52</time>
      </trkpt>
      <trkpt lat="42.64116" lon="1.05447">
        <ele>1416.8</ele>
        <time>2022-05-22 20:14:53</time>
      </trkpt>
      <trkpt lat="42.64115" lon="1.05445">
        <ele>1416.8</ele>
        <time>2022-05-22 20:14:54</time>
      </trkpt>
      <trkpt lat="42.64114" lon="1.05443">
        <ele>1417</ele>
        <time>2022-05-22 20:14:55</time>
      </trkpt>
      <trkpt lat="42.64112" lon="1.05441">
        <ele>1417.2</ele>
        <time>2022-05-22 20:14:56</time>
      </trkpt>
      <trkpt lat="42.64111" lon="1.05439">
        <ele>1417.4</ele>
        <time>2022-05-22 20:14:57</time>
      </trkpt>
      <trkpt lat="42.64111" lon="1.05437">
        <ele>1417.6</ele>
        <time>2022-05-22 20:14:58</time>
      </trkpt>
      <trkpt lat="42.6411" lon="1.05434">
        <ele>1417.8</ele>
        <time>2022-05-22 20:14:59</time>
      </trkpt>
      <trkpt lat="42.64109" lon="1.05432">
        <ele>1418</ele>
        <time>2022-05-22 20:15:00</time>
      </trkpt>
      <trkpt lat="42.64107" lon="1.0543">
        <ele>1418</ele>
        <time>2022-05-22 20:15:01</time>
      </trkpt>
      <trkpt lat="42.64106" lon="1.05427">
        <ele>1418.2</ele>
        <time>2022-05-22 20:15:02</time>
      </trkpt>
      <trkpt lat="42.64105" lon="1.05425">
        <ele>1418.4</ele>
        <time>2022-05-22 20:15:03</time>
      </trkpt>
      <trkpt lat="42.64103" lon="1.05423">
        <ele>1418.6</ele>
        <time>2022-05-22 20:15:04</time>
      </trkpt>
      <trkpt lat="42.64102" lon="1.05421">
        <ele>1418.8</ele>
        <time>2022-05-22 20:15:05</time>
      </trkpt>
      <trkpt lat="42.64101" lon="1.05418">
        <ele>1419</ele>
        <time>2022-05-22 20:15:06</time>
      </trkpt>
      <trkpt lat="42.64099" lon="1.05416">
        <ele>1419</ele>
        <time>2022-05-22 20:15:07</time>
      </trkpt>
      <trkpt lat="42.64098" lon="1.05413">
        <ele>1419.2</ele>
        <time>2022-05-22 20:15:08</time>
      </trkpt>
      <trkpt lat="42.64096" lon="1.05411">
        <ele>1419.4</ele>
        <time>2022-05-22 20:15:09</time>
      </trkpt>
      <trkpt lat="42.64095" lon="1.05409">
        <ele>1419.6</ele>
        <time>2022-05-22 20:15:10</time>
      </trkpt>
      <trkpt lat="42.64093" lon="1.05405">
        <ele>1419.6</ele>
        <time>2022-05-22 20:15:11</time>
      </trkpt>
      <trkpt lat="42.64092" lon="1.05403">
        <ele>1419.8</ele>
        <time>2022-05-22 20:15:12</time>
      </trkpt>
      <trkpt lat="42.64091" lon="1.05401">
        <ele>1420</ele>
        <time>2022-05-22 20:15:13</time>
      </trkpt>
      <trkpt lat="42.6409" lon="1.05398">
        <ele>1420.2</ele>
        <time>2022-05-22 20:15:14</time>
      </trkpt>
      <trkpt lat="42.64088" lon="1.05395">
        <ele>1420.2</ele>
        <time>2022-05-22 20:15:15</time>
      </trkpt>
      <trkpt lat="42.64086" lon="1.05392">
        <ele>1420.4</ele>
        <time>2022-05-22 20:15:16</time>
      </trkpt>
      <trkpt lat="42.64085" lon="1.0539">
        <ele>1420.6</ele>
        <time>2022-05-22 20:15:17</time>
      </trkpt>
      <trkpt lat="42.64083" lon="1.05387">
        <ele>1420.8</ele>
        <time>2022-05-22 20:15:18</time>
      </trkpt>
      <trkpt lat="42.64082" lon="1.05385">
        <ele>1421</ele>
        <time>2022-05-22 20:15:19</time>
      </trkpt>
      <trkpt lat="42.64081" lon="1.05382">
        <ele>1421</ele>
        <time>2022-05-22 20:15:20</time>
      </trkpt>
      <trkpt lat="42.6408" lon="1.05379">
        <ele>1421.2</ele>
        <time>2022-05-22 20:15:21</time>
      </trkpt>
      <trkpt lat="42.64079" lon="1.05376">
        <ele>1421.4</ele>
        <time>2022-05-22 20:15:22</time>
      </trkpt>
      <trkpt lat="42.64077" lon="1.05373">
        <ele>1421.4</ele>
        <time>2022-05-22 20:15:23</time>
      </trkpt>
      <trkpt lat="42.64076" lon="1.0537">
        <ele>1421.6</ele>
        <time>2022-05-22 20:15:24</time>
      </trkpt>
      <trkpt lat="42.64075" lon="1.05367">
        <ele>1421.6</ele>
        <time>2022-05-22 20:15:25</time>
      </trkpt>
      <trkpt lat="42.64074" lon="1.05365">
        <ele>1421.8</ele>
        <time>2022-05-22 20:15:26</time>
      </trkpt>
      <trkpt lat="42.64073" lon="1.05361">
        <ele>1421.8</ele>
        <time>2022-05-22 20:15:27</time>
      </trkpt>
      <trkpt lat="42.64071" lon="1.05358">
        <ele>1422</ele>
        <time>2022-05-22 20:15:28</time>
      </trkpt>
      <trkpt lat="42.6407" lon="1.05355">
        <ele>1422</ele>
        <time>2022-05-22 20:15:29</time>
      </trkpt>
      <trkpt lat="42.64069" lon="1.05351">
        <ele>1422.2</ele>
        <time>2022-05-22 20:15:30</time>
      </trkpt>
      <trkpt lat="42.64068" lon="1.05347">
        <ele>1422.2</ele>
        <time>2022-05-22 20:15:31</time>
      </trkpt>
      <trkpt lat="42.64067" lon="1.05344">
        <ele>1422.4</ele>
        <time>2022-05-22 20:15:32</time>
      </trkpt>
      <trkpt lat="42.64065" lon="1.0534">
        <ele>1422.4</ele>
        <time>2022-05-22 20:15:33</time>
      </trkpt>
      <trkpt lat="42.64064" lon="1.05337">
        <ele>1422.6</ele>
        <time>2022-05-22 20:15:34</time>
      </trkpt>
      <trkpt lat="42.64063" lon="1.05333">
        <ele>1422.6</ele>
        <time>2022-05-22 20:15:35</time>
      </trkpt>
      <trkpt lat="42.64061" lon="1.05329">
        <ele>1422.6</ele>
        <time>2022-05-22 20:15:36</time>
      </trkpt>
      <trkpt lat="42.6406" lon="1.05325">
        <ele>1422.6</ele>
        <time>2022-05-22 20:15:37</time>
      </trkpt>
      <trkpt lat="42.64058" lon="1.0532">
        <ele>1422.6</ele>
        <time>2022-05-22 20:15:38</time>
      </trkpt>
      <trkpt lat="42.64057" lon="1.05316">
        <ele>1422.6</ele>
        <time>2022-05-22 20:15:39</time>
      </trkpt>
      <trkpt lat="42.64056" lon="1.05313">
        <ele>1422.8</ele>
        <time>2022-05-22 20:15:40</time>
      </trkpt>
      <trkpt lat="42.64054" lon="1.05308">
        <ele>1422.8</ele>
        <time>2022-05-22 20:15:41</time>
      </trkpt>
      <trkpt lat="42.64053" lon="1.05304">
        <ele>1423</ele>
        <time>2022-05-22 20:15:42</time>
      </trkpt>
      <trkpt lat="42.64052" lon="1.05302">
        <ele>1423</ele>
        <time>2022-05-22 20:15:43</time>
      </trkpt>
      <trkpt lat="42.6405" lon="1.05297">
        <ele>1423</ele>
        <time>2022-05-22 20:15:44</time>
      </trkpt>
      <trkpt lat="42.64049" lon="1.05293">
        <ele>1423.2</ele>
        <time>2022-05-22 20:15:45</time>
      </trkpt>
      <trkpt lat="42.64047" lon="1.05289">
        <ele>1423.2</ele>
        <time>2022-05-22 20:15:46</time>
      </trkpt>
      <trkpt lat="42.64046" lon="1.05284">
        <ele>1423.2</ele>
        <time>2022-05-22 20:15:47</time>
      </trkpt>
      <trkpt lat="42.64044" lon="1.05281">
        <ele>1423.4</ele>
        <time>2022-05-22 20:15:48</time>
      </trkpt>
      <trkpt lat="42.64043" lon="1.05277">
        <ele>1423.4</ele>
        <time>2022-05-22 20:15:49</time>
      </trkpt>
      <trkpt lat="42.64041" lon="1.05273">
        <ele>1423.4</ele>
        <time>2022-05-22 20:15:50</time>
      </trkpt>
      <trkpt lat="42.64039" lon="1.05269">
        <ele>1423.6</ele>
        <time>2022-05-22 20:15:51</time>
      </trkpt>
      <trkpt lat="42.64037" lon="1.05265">
        <ele>1423.6</ele>
        <time>2022-05-22 20:15:52</time>
      </trkpt>
      <trkpt lat="42.64035" lon="1.05262">
        <ele>1423.8</ele>
        <time>2022-05-22 20:15:53</time>
      </trkpt>
      <trkpt lat="42.64033" lon="1.05259">
        <ele>1423.8</ele>
        <time>2022-05-22 20:15:54</time>
      </trkpt>
      <trkpt lat="42.64031" lon="1.05256">
        <ele>1424</ele>
        <time>2022-05-22 20:15:55</time>
      </trkpt>
      <trkpt lat="42.64028" lon="1.05251">
        <ele>1424</ele>
        <time>2022-05-22 20:15:56</time>
      </trkpt>
      <trkpt lat="42.64027" lon="1.05248">
        <ele>1424.2</ele>
        <time>2022-05-22 20:15:57</time>
      </trkpt>
      <trkpt lat="42.64025" lon="1.05245">
        <ele>1424.2</ele>
        <time>2022-05-22 20:15:58</time>
      </trkpt>
      <trkpt lat="42.64022" lon="1.05241">
        <ele>1424.4</ele>
        <time>2022-05-22 20:15:59</time>
      </trkpt>
      <trkpt lat="42.6402" lon="1.05238">
        <ele>1424.4</ele>
        <time>2022-05-22 20:16:00</time>
      </trkpt>
      <trkpt lat="42.64019" lon="1.05235">
        <ele>1424.6</ele>
        <time>2022-05-22 20:16:01</time>
      </trkpt>
      <trkpt lat="42.64016" lon="1.05232">
        <ele>1424.8</ele>
        <time>2022-05-22 20:16:02</time>
      </trkpt>
      <trkpt lat="42.64014" lon="1.05229">
        <ele>1425</ele>
        <time>2022-05-22 20:16:03</time>
      </trkpt>
      <trkpt lat="42.64012" lon="1.05227">
        <ele>1425</ele>
        <time>2022-05-22 20:16:04</time>
      </trkpt>
      <trkpt lat="42.6401" lon="1.05224">
        <ele>1425.2</ele>
        <time>2022-05-22 20:16:05</time>
      </trkpt>
      <trkpt lat="42.64007" lon="1.05221">
        <ele>1425.4</ele>
        <time>2022-05-22 20:16:06</time>
      </trkpt>
      <trkpt lat="42.64005" lon="1.05219">
        <ele>1425.4</ele>
        <time>2022-05-22 20:16:07</time>
      </trkpt>
      <trkpt lat="42.64003" lon="1.05216">
        <ele>1425.6</ele>
        <time>2022-05-22 20:16:08</time>
      </trkpt>
      <trkpt lat="42.64002" lon="1.05215">
        <ele>1425.8</ele>
        <time>2022-05-22 20:16:09</time>
      </trkpt>
      <trkpt lat="42.63998" lon="1.05211">
        <ele>1425.8</ele>
        <time>2022-05-22 20:16:10</time>
      </trkpt>
      <trkpt lat="42.63996" lon="1.05209">
        <ele>1426</ele>
        <time>2022-05-22 20:16:11</time>
      </trkpt>
      <trkpt lat="42.63994" lon="1.05207">
        <ele>1426.2</ele>
        <time>2022-05-22 20:16:12</time>
      </trkpt>
      <trkpt lat="42.63993" lon="1.05205">
        <ele>1426.2</ele>
        <time>2022-05-22 20:16:13</time>
      </trkpt>
      <trkpt lat="42.6399" lon="1.05201">
        <ele>1426.6</ele>
        <time>2022-05-22 20:16:14</time>
      </trkpt>
      <trkpt lat="42.63987" lon="1.05198">
        <ele>1426.6</ele>
        <time>2022-05-22 20:16:15</time>
      </trkpt>
      <trkpt lat="42.63986" lon="1.05196">
        <ele>1426.8</ele>
        <time>2022-05-22 20:16:16</time>
      </trkpt>
      <trkpt lat="42.63984" lon="1.05194">
        <ele>1427</ele>
        <time>2022-05-22 20:16:17</time>
      </trkpt>
      <trkpt lat="42.63981" lon="1.0519">
        <ele>1427.2</ele>
        <time>2022-05-22 20:16:18</time>
      </trkpt>
      <trkpt lat="42.63979" lon="1.05187">
        <ele>1427.4</ele>
        <time>2022-05-22 20:16:19</time>
      </trkpt>
      <trkpt lat="42.63977" lon="1.05185">
        <ele>1427.6</ele>
        <time>2022-05-22 20:16:20</time>
      </trkpt>
      <trkpt lat="42.63975" lon="1.05183">
        <ele>1427.6</ele>
        <time>2022-05-22 20:16:21</time>
      </trkpt>
      <trkpt lat="42.63972" lon="1.05179">
        <ele>1427.8</ele>
        <time>2022-05-22 20:16:22</time>
      </trkpt>
      <trkpt lat="42.6397" lon="1.05177">
        <ele>1428</ele>
        <time>2022-05-22 20:16:23</time>
      </trkpt>
      <trkpt lat="42.63967" lon="1.05174">
        <ele>1428.2</ele>
        <time>2022-05-22 20:16:24</time>
      </trkpt>
      <trkpt lat="42.63965" lon="1.05172">
        <ele>1428.4</ele>
        <time>2022-05-22 20:16:25</time>
      </trkpt>
      <trkpt lat="42.63963" lon="1.05169">
        <ele>1428.6</ele>
        <time>2022-05-22 20:16:26</time>
      </trkpt>
      <trkpt lat="42.63961" lon="1.05166">
        <ele>1428.8</ele>
        <time>2022-05-22 20:16:27</time>
      </trkpt>
      <trkpt lat="42.63959" lon="1.05163">
        <ele>1429</ele>
        <time>2022-05-22 20:16:28</time>
      </trkpt>
      <trkpt lat="42.63957" lon="1.05159">
        <ele>1429.2</ele>
        <time>2022-05-22 20:16:29</time>
      </trkpt>
      <trkpt lat="42.63955" lon="1.05156">
        <ele>1429.4</ele>
        <time>2022-05-22 20:16:30</time>
      </trkpt>
      <trkpt lat="42.63954" lon="1.05153">
        <ele>1429.6</ele>
        <time>2022-05-22 20:16:31</time>
      </trkpt>
      <trkpt lat="42.63952" lon="1.05149">
        <ele>1429.8</ele>
        <time>2022-05-22 20:16:32</time>
      </trkpt>
      <trkpt lat="42.6395" lon="1.05145">
        <ele>1430</ele>
        <time>2022-05-22 20:16:33</time>
      </trkpt>
      <trkpt lat="42.63949" lon="1.05142">
        <ele>1430.2</ele>
        <time>2022-05-22 20:16:34</time>
      </trkpt>
      <trkpt lat="42.63948" lon="1.0514">
        <ele>1430.4</ele>
        <time>2022-05-22 20:16:35</time>
      </trkpt>
      <trkpt lat="42.63946" lon="1.05135">
        <ele>1430.6</ele>
        <time>2022-05-22 20:16:36</time>
      </trkpt>
      <trkpt lat="42.63945" lon="1.05132">
        <ele>1430.8</ele>
        <time>2022-05-22 20:16:37</time>
      </trkpt>
      <trkpt lat="42.63943" lon="1.05128">
        <ele>1431</ele>
        <time>2022-05-22 20:16:38</time>
      </trkpt>
      <trkpt lat="42.63942" lon="1.05126">
        <ele>1431.2</ele>
        <time>2022-05-22 20:16:39</time>
      </trkpt>
      <trkpt lat="42.6394" lon="1.05121">
        <ele>1431.4</ele>
        <time>2022-05-22 20:16:40</time>
      </trkpt>
      <trkpt lat="42.6394" lon="1.05118">
        <ele>1431.8</ele>
        <time>2022-05-22 20:16:41</time>
      </trkpt>
      <trkpt lat="42.63938" lon="1.05114">
        <ele>1432</ele>
        <time>2022-05-22 20:16:42</time>
      </trkpt>
      <trkpt lat="42.63937" lon="1.05111">
        <ele>1432.2</ele>
        <time>2022-05-22 20:16:43</time>
      </trkpt>
      <trkpt lat="42.63935" lon="1.05106">
        <ele>1432.4</ele>
        <time>2022-05-22 20:16:44</time>
      </trkpt>
      <trkpt lat="42.63933" lon="1.05103">
        <ele>1432.6</ele>
        <time>2022-05-22 20:16:45</time>
      </trkpt>
      <trkpt lat="42.63932" lon="1.051">
        <ele>1432.8</ele>
        <time>2022-05-22 20:16:46</time>
      </trkpt>
      <trkpt lat="42.6393" lon="1.05096">
        <ele>1433</ele>
        <time>2022-05-22 20:16:47</time>
      </trkpt>
      <trkpt lat="42.63929" lon="1.05094">
        <ele>1433.2</ele>
        <time>2022-05-22 20:16:48</time>
      </trkpt>
      <trkpt lat="42.63928" lon="1.05091">
        <ele>1433.4</ele>
        <time>2022-05-22 20:16:49</time>
      </trkpt>
      <trkpt lat="42.63927" lon="1.05089">
        <ele>1433.6</ele>
        <time>2022-05-22 20:16:50</time>
      </trkpt>
      <trkpt lat="42.63926" lon="1.05085">
        <ele>1433.8</ele>
        <time>2022-05-22 20:16:51</time>
      </trkpt>
      <trkpt lat="42.63925" lon="1.05082">
        <ele>1434</ele>
        <time>2022-05-22 20:16:52</time>
      </trkpt>
      <trkpt lat="42.63924" lon="1.0508">
        <ele>1434.2</ele>
        <time>2022-05-22 20:16:53</time>
      </trkpt>
      <trkpt lat="42.63923" lon="1.05078">
        <ele>1434.4</ele>
        <time>2022-05-22 20:16:54</time>
      </trkpt>
      <trkpt lat="42.63923" lon="1.05076">
        <ele>1434.6</ele>
        <time>2022-05-22 20:16:55</time>
      </trkpt>
      <trkpt lat="42.63922" lon="1.05072">
        <ele>1434.6</ele>
        <time>2022-05-22 20:16:56</time>
      </trkpt>
      <trkpt lat="42.63921" lon="1.0507">
        <ele>1434.8</ele>
        <time>2022-05-22 20:16:57</time>
      </trkpt>
      <trkpt lat="42.6392" lon="1.05067">
        <ele>1435</ele>
        <time>2022-05-22 20:16:58</time>
      </trkpt>
      <trkpt lat="42.63919" lon="1.05065">
        <ele>1435.2</ele>
        <time>2022-05-22 20:16:59</time>
      </trkpt>
      <trkpt lat="42.63918" lon="1.05063">
        <ele>1435.4</ele>
        <time>2022-05-22 20:17:00</time>
      </trkpt>
      <trkpt lat="42.63917" lon="1.0506">
        <ele>1435.6</ele>
        <time>2022-05-22 20:17:01</time>
      </trkpt>
      <trkpt lat="42.63916" lon="1.05057">
        <ele>1435.8</ele>
        <time>2022-05-22 20:17:02</time>
      </trkpt>
      <trkpt lat="42.63915" lon="1.05055">
        <ele>1435.8</ele>
        <time>2022-05-22 20:17:03</time>
      </trkpt>
      <trkpt lat="42.63914" lon="1.05052">
        <ele>1436</ele>
        <time>2022-05-22 20:17:04</time>
      </trkpt>
      <trkpt lat="42.63913" lon="1.05051">
        <ele>1436.2</ele>
        <time>2022-05-22 20:17:05</time>
      </trkpt>
      <trkpt lat="42.63911" lon="1.05046">
        <ele>1436.2</ele>
        <time>2022-05-22 20:17:06</time>
      </trkpt>
      <trkpt lat="42.6391" lon="1.05044">
        <ele>1436.4</ele>
        <time>2022-05-22 20:17:07</time>
      </trkpt>
      <trkpt lat="42.63909" lon="1.05042">
        <ele>1436.6</ele>
        <time>2022-05-22 20:17:08</time>
      </trkpt>
      <trkpt lat="42.63908" lon="1.0504">
        <ele>1436.8</ele>
        <time>2022-05-22 20:17:09</time>
      </trkpt>
      <trkpt lat="42.63906" lon="1.05036">
        <ele>1436.8</ele>
        <time>2022-05-22 20:17:10</time>
      </trkpt>
      <trkpt lat="42.63905" lon="1.05033">
        <ele>1437</ele>
        <time>2022-05-22 20:17:11</time>
      </trkpt>
      <trkpt lat="42.63904" lon="1.05031">
        <ele>1437.2</ele>
        <time>2022-05-22 20:17:12</time>
      </trkpt>
      <trkpt lat="42.63903" lon="1.05028">
        <ele>1437.4</ele>
        <time>2022-05-22 20:17:13</time>
      </trkpt>
      <trkpt lat="42.63902" lon="1.05025">
        <ele>1437.6</ele>
        <time>2022-05-22 20:17:14</time>
      </trkpt>
      <trkpt lat="42.639" lon="1.05023">
        <ele>1437.6</ele>
        <time>2022-05-22 20:17:15</time>
      </trkpt>
      <trkpt lat="42.63899" lon="1.0502">
        <ele>1437.8</ele>
        <time>2022-05-22 20:17:16</time>
      </trkpt>
      <trkpt lat="42.63898" lon="1.05018">
        <ele>1437.8</ele>
        <time>2022-05-22 20:17:17</time>
      </trkpt>
      <trkpt lat="42.63896" lon="1.05015">
        <ele>1438</ele>
        <time>2022-05-22 20:17:18</time>
      </trkpt>
      <trkpt lat="42.63895" lon="1.05012">
        <ele>1438.2</ele>
        <time>2022-05-22 20:17:19</time>
      </trkpt>
      <trkpt lat="42.63894" lon="1.0501">
        <ele>1438.2</ele>
        <time>2022-05-22 20:17:20</time>
      </trkpt>
      <trkpt lat="42.63893" lon="1.05008">
        <ele>1438.4</ele>
        <time>2022-05-22 20:17:21</time>
      </trkpt>
      <trkpt lat="42.63891" lon="1.05005">
        <ele>1438.6</ele>
        <time>2022-05-22 20:17:22</time>
      </trkpt>
      <trkpt lat="42.6389" lon="1.05002">
        <ele>1438.8</ele>
        <time>2022-05-22 20:17:23</time>
      </trkpt>
      <trkpt lat="42.63889" lon="1.04999">
        <ele>1439</ele>
        <time>2022-05-22 20:17:24</time>
      </trkpt>
      <trkpt lat="42.63887" lon="1.04997">
        <ele>1439.2</ele>
        <time>2022-05-22 20:17:25</time>
      </trkpt>
      <trkpt lat="42.63886" lon="1.04994">
        <ele>1439.2</ele>
        <time>2022-05-22 20:17:26</time>
      </trkpt>
      <trkpt lat="42.63884" lon="1.04992">
        <ele>1439.4</ele>
        <time>2022-05-22 20:17:27</time>
      </trkpt>
      <trkpt lat="42.63882" lon="1.04989">
        <ele>1439.6</ele>
        <time>2022-05-22 20:17:28</time>
      </trkpt>
      <trkpt lat="42.63881" lon="1.04987">
        <ele>1439.8</ele>
        <time>2022-05-22 20:17:29</time>
      </trkpt>
      <trkpt lat="42.6388" lon="1.04984">
        <ele>1439.8</ele>
        <time>2022-05-22 20:17:30</time>
      </trkpt>
      <trkpt lat="42.63878" lon="1.04982">
        <ele>1440</ele>
        <time>2022-05-22 20:17:31</time>
      </trkpt>
      <trkpt lat="42.63877" lon="1.04979">
        <ele>1440.2</ele>
        <time>2022-05-22 20:17:32</time>
      </trkpt>
      <trkpt lat="42.63876" lon="1.04977">
        <ele>1440.4</ele>
        <time>2022-05-22 20:17:33</time>
      </trkpt>
      <trkpt lat="42.63874" lon="1.04975">
        <ele>1440.4</ele>
        <time>2022-05-22 20:17:34</time>
      </trkpt>
      <trkpt lat="42.63873" lon="1.04972">
        <ele>1440.6</ele>
        <time>2022-05-22 20:17:35</time>
      </trkpt>
      <trkpt lat="42.63871" lon="1.0497">
        <ele>1440.8</ele>
        <time>2022-05-22 20:17:36</time>
      </trkpt>
      <trkpt lat="42.6387" lon="1.04968">
        <ele>1441</ele>
        <time>2022-05-22 20:17:37</time>
      </trkpt>
      <trkpt lat="42.63869" lon="1.04965">
        <ele>1441.2</ele>
        <time>2022-05-22 20:17:38</time>
      </trkpt>
      <trkpt lat="42.63867" lon="1.04963">
        <ele>1441.4</ele>
        <time>2022-05-22 20:17:39</time>
      </trkpt>
      <trkpt lat="42.63866" lon="1.0496">
        <ele>1441.4</ele>
        <time>2022-05-22 20:17:40</time>
      </trkpt>
      <trkpt lat="42.63864" lon="1.04958">
        <ele>1441.6</ele>
        <time>2022-05-22 20:17:41</time>
      </trkpt>
      <trkpt lat="42.63863" lon="1.04956">
        <ele>1441.8</ele>
        <time>2022-05-22 20:17:42</time>
      </trkpt>
      <trkpt lat="42.63862" lon="1.04953">
        <ele>1442</ele>
        <time>2022-05-22 20:17:43</time>
      </trkpt>
      <trkpt lat="42.63861" lon="1.04951">
        <ele>1442.2</ele>
        <time>2022-05-22 20:17:44</time>
      </trkpt>
      <trkpt lat="42.6386" lon="1.04948">
        <ele>1442.4</ele>
        <time>2022-05-22 20:17:45</time>
      </trkpt>
      <trkpt lat="42.63859" lon="1.04945">
        <ele>1442.6</ele>
        <time>2022-05-22 20:17:46</time>
      </trkpt>
      <trkpt lat="42.63858" lon="1.04943">
        <ele>1442.8</ele>
        <time>2022-05-22 20:17:47</time>
      </trkpt>
      <trkpt lat="42.63857" lon="1.0494">
        <ele>1443</ele>
        <time>2022-05-22 20:17:48</time>
      </trkpt>
      <trkpt lat="42.63856" lon="1.04937">
        <ele>1443.2</ele>
        <time>2022-05-22 20:17:49</time>
      </trkpt>
      <trkpt lat="42.63854" lon="1.04935">
        <ele>1443.2</ele>
        <time>2022-05-22 20:17:50</time>
      </trkpt>
      <trkpt lat="42.63853" lon="1.04933">
        <ele>1443.4</ele>
        <time>2022-05-22 20:17:51</time>
      </trkpt>
      <trkpt lat="42.63852" lon="1.04931">
        <ele>1443.6</ele>
        <time>2022-05-22 20:17:52</time>
      </trkpt>
      <trkpt lat="42.6385" lon="1.04929">
        <ele>1443.8</ele>
        <time>2022-05-22 20:17:53</time>
      </trkpt>
      <trkpt lat="42.63849" lon="1.04926">
        <ele>1444</ele>
        <time>2022-05-22 20:17:54</time>
      </trkpt>
      <trkpt lat="42.63847" lon="1.04924">
        <ele>1444.2</ele>
        <time>2022-05-22 20:17:55</time>
      </trkpt>
      <trkpt lat="42.63846" lon="1.04922">
        <ele>1444.4</ele>
        <time>2022-05-22 20:17:56</time>
      </trkpt>
      <trkpt lat="42.63844" lon="1.04919">
        <ele>1444.6</ele>
        <time>2022-05-22 20:17:57</time>
      </trkpt>
      <trkpt lat="42.63843" lon="1.04916">
        <ele>1444.8</ele>
        <time>2022-05-22 20:17:58</time>
      </trkpt>
      <trkpt lat="42.63842" lon="1.04914">
        <ele>1445</ele>
        <time>2022-05-22 20:17:59</time>
      </trkpt>
      <trkpt lat="42.6384" lon="1.04912">
        <ele>1445.2</ele>
        <time>2022-05-22 20:18:00</time>
      </trkpt>
      <trkpt lat="42.63839" lon="1.04909">
        <ele>1445.4</ele>
        <time>2022-05-22 20:18:01</time>
      </trkpt>
      <trkpt lat="42.63837" lon="1.04907">
        <ele>1445.6</ele>
        <time>2022-05-22 20:18:02</time>
      </trkpt>
      <trkpt lat="42.63836" lon="1.04904">
        <ele>1445.8</ele>
        <time>2022-05-22 20:18:03</time>
      </trkpt>
      <trkpt lat="42.63835" lon="1.04902">
        <ele>1446</ele>
        <time>2022-05-22 20:18:04</time>
      </trkpt>
      <trkpt lat="42.63834" lon="1.049">
        <ele>1446.2</ele>
        <time>2022-05-22 20:18:05</time>
      </trkpt>
      <trkpt lat="42.63834" lon="1.04899">
        <ele>1446.4</ele>
        <time>2022-05-22 20:18:06</time>
      </trkpt>
      <trkpt lat="42.63833" lon="1.04896">
        <ele>1446.6</ele>
        <time>2022-05-22 20:18:07</time>
      </trkpt>
      <trkpt lat="42.63833" lon="1.04894">
        <ele>1446.8</ele>
        <time>2022-05-22 20:18:08</time>
      </trkpt>
      <trkpt lat="42.63832" lon="1.04892">
        <ele>1447</ele>
        <time>2022-05-22 20:18:09</time>
      </trkpt>
      <trkpt lat="42.63831" lon="1.0489">
        <ele>1447.2</ele>
        <time>2022-05-22 20:18:10</time>
      </trkpt>
      <trkpt lat="42.6383" lon="1.04889">
        <ele>1447.4</ele>
        <time>2022-05-22 20:18:11</time>
      </trkpt>
      <trkpt lat="42.6383" lon="1.04887">
        <ele>1447.6</ele>
        <time>2022-05-22 20:18:12</time>
      </trkpt>
      <trkpt lat="42.63829" lon="1.04886">
        <ele>1447.8</ele>
        <time>2022-05-22 20:18:13</time>
      </trkpt>
      <trkpt lat="42.63829" lon="1.04883">
        <ele>1448</ele>
        <time>2022-05-22 20:18:14</time>
      </trkpt>
      <trkpt lat="42.63828" lon="1.04881">
        <ele>1448.2</ele>
        <time>2022-05-22 20:18:15</time>
      </trkpt>
      <trkpt lat="42.63828" lon="1.04879">
        <ele>1448.4</ele>
        <time>2022-05-22 20:18:16</time>
      </trkpt>
      <trkpt lat="42.63827" lon="1.04876">
        <ele>1448.6</ele>
        <time>2022-05-22 20:18:17</time>
      </trkpt>
      <trkpt lat="42.63826" lon="1.04874">
        <ele>1448.6</ele>
        <time>2022-05-22 20:18:18</time>
      </trkpt>
      <trkpt lat="42.63826" lon="1.04872">
        <ele>1448.8</ele>
        <time>2022-05-22 20:18:19</time>
      </trkpt>
      <trkpt lat="42.63825" lon="1.04869">
        <ele>1449</ele>
        <time>2022-05-22 20:18:20</time>
      </trkpt>
      <trkpt lat="42.63825" lon="1.04867">
        <ele>1449.2</ele>
        <time>2022-05-22 20:18:21</time>
      </trkpt>
      <trkpt lat="42.63824" lon="1.04865">
        <ele>1449.4</ele>
        <time>2022-05-22 20:18:22</time>
      </trkpt>
      <trkpt lat="42.63824" lon="1.04863">
        <ele>1449.6</ele>
        <time>2022-05-22 20:18:23</time>
      </trkpt>
      <trkpt lat="42.63823" lon="1.0486">
        <ele>1449.6</ele>
        <time>2022-05-22 20:18:24</time>
      </trkpt>
      <trkpt lat="42.63823" lon="1.04858">
        <ele>1449.8</ele>
        <time>2022-05-22 20:18:25</time>
      </trkpt>
      <trkpt lat="42.63822" lon="1.04855">
        <ele>1450</ele>
        <time>2022-05-22 20:18:26</time>
      </trkpt>
      <trkpt lat="42.63821" lon="1.04852">
        <ele>1450.2</ele>
        <time>2022-05-22 20:18:27</time>
      </trkpt>
      <trkpt lat="42.6382" lon="1.04849">
        <ele>1450.2</ele>
        <time>2022-05-22 20:18:28</time>
      </trkpt>
      <trkpt lat="42.6382" lon="1.04846">
        <ele>1450.4</ele>
        <time>2022-05-22 20:18:29</time>
      </trkpt>
      <trkpt lat="42.63819" lon="1.04843">
        <ele>1450.6</ele>
        <time>2022-05-22 20:18:30</time>
      </trkpt>
      <trkpt lat="42.63819" lon="1.0484">
        <ele>1450.8</ele>
        <time>2022-05-22 20:18:31</time>
      </trkpt>
      <trkpt lat="42.63818" lon="1.04838">
        <ele>1451</ele>
        <time>2022-05-22 20:18:32</time>
      </trkpt>
      <trkpt lat="42.63818" lon="1.04835">
        <ele>1451.2</ele>
        <time>2022-05-22 20:18:33</time>
      </trkpt>
      <trkpt lat="42.63818" lon="1.04833">
        <ele>1451.2</ele>
        <time>2022-05-22 20:18:34</time>
      </trkpt>
      <trkpt lat="42.63818" lon="1.04831">
        <ele>1451.4</ele>
        <time>2022-05-22 20:18:35</time>
      </trkpt>
      <trkpt lat="42.63818" lon="1.04829">
        <ele>1451.6</ele>
        <time>2022-05-22 20:18:36</time>
      </trkpt>
      <trkpt lat="42.63819" lon="1.04827">
        <ele>1451.8</ele>
        <time>2022-05-22 20:18:37</time>
      </trkpt>
      <trkpt lat="42.63819" lon="1.04824">
        <ele>1452</ele>
        <time>2022-05-22 20:18:38</time>
      </trkpt>
      <trkpt lat="42.63819" lon="1.04822">
        <ele>1452.2</ele>
        <time>2022-05-22 20:18:39</time>
      </trkpt>
      <trkpt lat="42.63819" lon="1.04819">
        <ele>1452.4</ele>
        <time>2022-05-22 20:18:40</time>
      </trkpt>
      <trkpt lat="42.63819" lon="1.04817">
        <ele>1452.6</ele>
        <time>2022-05-22 20:18:41</time>
      </trkpt>
      <trkpt lat="42.63819" lon="1.04814">
        <ele>1452.8</ele>
        <time>2022-05-22 20:18:42</time>
      </trkpt>
      <trkpt lat="42.63819" lon="1.04811">
        <ele>1452.8</ele>
        <time>2022-05-22 20:18:43</time>
      </trkpt>
      <trkpt lat="42.63819" lon="1.04809">
        <ele>1453</ele>
        <time>2022-05-22 20:18:44</time>
      </trkpt>
      <trkpt lat="42.6382" lon="1.04807">
        <ele>1453.2</ele>
        <time>2022-05-22 20:18:45</time>
      </trkpt>
      <trkpt lat="42.6382" lon="1.04803">
        <ele>1453.4</ele>
        <time>2022-05-22 20:18:46</time>
      </trkpt>
      <trkpt lat="42.6382" lon="1.04801">
        <ele>1453.6</ele>
        <time>2022-05-22 20:18:47</time>
      </trkpt>
      <trkpt lat="42.6382" lon="1.04798">
        <ele>1453.8</ele>
        <time>2022-05-22 20:18:48</time>
      </trkpt>
      <trkpt lat="42.6382" lon="1.04796">
        <ele>1453.8</ele>
        <time>2022-05-22 20:18:49</time>
      </trkpt>
      <trkpt lat="42.63821" lon="1.04794">
        <ele>1454</ele>
        <time>2022-05-22 20:18:50</time>
      </trkpt>
      <trkpt lat="42.63821" lon="1.04791">
        <ele>1454.2</ele>
        <time>2022-05-22 20:18:51</time>
      </trkpt>
      <trkpt lat="42.63822" lon="1.04789">
        <ele>1454.4</ele>
        <time>2022-05-22 20:18:52</time>
      </trkpt>
      <trkpt lat="42.63822" lon="1.04786">
        <ele>1454.6</ele>
        <time>2022-05-22 20:18:53</time>
      </trkpt>
      <trkpt lat="42.63822" lon="1.04784">
        <ele>1454.8</ele>
        <time>2022-05-22 20:18:54</time>
      </trkpt>
      <trkpt lat="42.63823" lon="1.04781">
        <ele>1455</ele>
        <time>2022-05-22 20:18:55</time>
      </trkpt>
      <trkpt lat="42.63823" lon="1.04779">
        <ele>1455.2</ele>
        <time>2022-05-22 20:18:56</time>
      </trkpt>
      <trkpt lat="42.63823" lon="1.04776">
        <ele>1455.4</ele>
        <time>2022-05-22 20:18:57</time>
      </trkpt>
      <trkpt lat="42.63823" lon="1.04774">
        <ele>1455.4</ele>
        <time>2022-05-22 20:18:58</time>
      </trkpt>
      <trkpt lat="42.63823" lon="1.04772">
        <ele>1455.6</ele>
        <time>2022-05-22 20:18:59</time>
      </trkpt>
      <trkpt lat="42.63823" lon="1.0477">
        <ele>1455.8</ele>
        <time>2022-05-22 20:19:00</time>
      </trkpt>
      <trkpt lat="42.63824" lon="1.04767">
        <ele>1456</ele>
        <time>2022-05-22 20:19:01</time>
      </trkpt>
      <trkpt lat="42.63825" lon="1.04764">
        <ele>1456.2</ele>
        <time>2022-05-22 20:19:02</time>
      </trkpt>
      <trkpt lat="42.63826" lon="1.04762">
        <ele>1456.4</ele>
        <time>2022-05-22 20:19:03</time>
      </trkpt>
      <trkpt lat="42.63827" lon="1.0476">
        <ele>1456.6</ele>
        <time>2022-05-22 20:19:04</time>
      </trkpt>
      <trkpt lat="42.63827" lon="1.04758">
        <ele>1456.6</ele>
        <time>2022-05-22 20:19:05</time>
      </trkpt>
      <trkpt lat="42.63828" lon="1.04755">
        <ele>1456.8</ele>
        <time>2022-05-22 20:19:06</time>
      </trkpt>
      <trkpt lat="42.63828" lon="1.04753">
        <ele>1457</ele>
        <time>2022-05-22 20:19:07</time>
      </trkpt>
      <trkpt lat="42.63829" lon="1.0475">
        <ele>1457.2</ele>
        <time>2022-05-22 20:19:08</time>
      </trkpt>
      <trkpt lat="42.63829" lon="1.04748">
        <ele>1457.4</ele>
        <time>2022-05-22 20:19:09</time>
      </trkpt>
      <trkpt lat="42.6383" lon="1.04746">
        <ele>1457.4</ele>
        <time>2022-05-22 20:19:10</time>
      </trkpt>
      <trkpt lat="42.6383" lon="1.04743">
        <ele>1457.6</ele>
        <time>2022-05-22 20:19:11</time>
      </trkpt>
      <trkpt lat="42.63831" lon="1.04741">
        <ele>1457.8</ele>
        <time>2022-05-22 20:19:12</time>
      </trkpt>
      <trkpt lat="42.63831" lon="1.04739">
        <ele>1458</ele>
        <time>2022-05-22 20:19:13</time>
      </trkpt>
      <trkpt lat="42.63831" lon="1.04737">
        <ele>1458.2</ele>
        <time>2022-05-22 20:19:14</time>
      </trkpt>
      <trkpt lat="42.63832" lon="1.04735">
        <ele>1458.4</ele>
        <time>2022-05-22 20:19:15</time>
      </trkpt>
      <trkpt lat="42.63832" lon="1.04732">
        <ele>1458.6</ele>
        <time>2022-05-22 20:19:16</time>
      </trkpt>
      <trkpt lat="42.63833" lon="1.0473">
        <ele>1458.6</ele>
        <time>2022-05-22 20:19:17</time>
      </trkpt>
      <trkpt lat="42.63833" lon="1.04728">
        <ele>1458.8</ele>
        <time>2022-05-22 20:19:18</time>
      </trkpt>
      <trkpt lat="42.63834" lon="1.04726">
        <ele>1459</ele>
        <time>2022-05-22 20:19:19</time>
      </trkpt>
      <trkpt lat="42.63834" lon="1.04723">
        <ele>1459.2</ele>
        <time>2022-05-22 20:19:20</time>
      </trkpt>
      <trkpt lat="42.63834" lon="1.04721">
        <ele>1459.4</ele>
        <time>2022-05-22 20:19:21</time>
      </trkpt>
      <trkpt lat="42.63835" lon="1.04719">
        <ele>1459.4</ele>
        <time>2022-05-22 20:19:22</time>
      </trkpt>
      <trkpt lat="42.63835" lon="1.04717">
        <ele>1459.6</ele>
        <time>2022-05-22 20:19:23</time>
      </trkpt>
      <trkpt lat="42.63835" lon="1.04715">
        <ele>1459.8</ele>
        <time>2022-05-22 20:19:24</time>
      </trkpt>
      <trkpt lat="42.63835" lon="1.04712">
        <ele>1460</ele>
        <time>2022-05-22 20:19:25</time>
      </trkpt>
      <trkpt lat="42.63835" lon="1.0471">
        <ele>1460.2</ele>
        <time>2022-05-22 20:19:26</time>
      </trkpt>
      <trkpt lat="42.63835" lon="1.04708">
        <ele>1460.4</ele>
        <time>2022-05-22 20:19:27</time>
      </trkpt>
      <trkpt lat="42.63835" lon="1.04706">
        <ele>1460.6</ele>
        <time>2022-05-22 20:19:28</time>
      </trkpt>
      <trkpt lat="42.63835" lon="1.04703">
        <ele>1460.8</ele>
        <time>2022-05-22 20:19:29</time>
      </trkpt>
      <trkpt lat="42.63836" lon="1.04701">
        <ele>1461</ele>
        <time>2022-05-22 20:19:30</time>
      </trkpt>
      <trkpt lat="42.63836" lon="1.04698">
        <ele>1461.2</ele>
        <time>2022-05-22 20:19:31</time>
      </trkpt>
      <trkpt lat="42.63837" lon="1.04696">
        <ele>1461.2</ele>
        <time>2022-05-22 20:19:32</time>
      </trkpt>
      <trkpt lat="42.63837" lon="1.04693">
        <ele>1461.4</ele>
        <time>2022-05-22 20:19:33</time>
      </trkpt>
      <trkpt lat="42.63837" lon="1.0469">
        <ele>1461.6</ele>
        <time>2022-05-22 20:19:34</time>
      </trkpt>
      <trkpt lat="42.63837" lon="1.04688">
        <ele>1461.8</ele>
        <time>2022-05-22 20:19:35</time>
      </trkpt>
      <trkpt lat="42.63837" lon="1.04686">
        <ele>1462</ele>
        <time>2022-05-22 20:19:36</time>
      </trkpt>
      <trkpt lat="42.63838" lon="1.04684">
        <ele>1462.2</ele>
        <time>2022-05-22 20:19:37</time>
      </trkpt>
      <trkpt lat="42.63838" lon="1.04682">
        <ele>1462.2</ele>
        <time>2022-05-22 20:19:38</time>
      </trkpt>
      <trkpt lat="42.63838" lon="1.0468">
        <ele>1462.4</ele>
        <time>2022-05-22 20:19:39</time>
      </trkpt>
      <trkpt lat="42.63838" lon="1.04677">
        <ele>1462.6</ele>
        <time>2022-05-22 20:19:40</time>
      </trkpt>
      <trkpt lat="42.63838" lon="1.04674">
        <ele>1462.8</ele>
        <time>2022-05-22 20:19:41</time>
      </trkpt>
      <trkpt lat="42.63838" lon="1.04672">
        <ele>1463</ele>
        <time>2022-05-22 20:19:42</time>
      </trkpt>
      <trkpt lat="42.63838" lon="1.04669">
        <ele>1463</ele>
        <time>2022-05-22 20:19:43</time>
      </trkpt>
      <trkpt lat="42.63838" lon="1.04667">
        <ele>1463.2</ele>
        <time>2022-05-22 20:19:44</time>
      </trkpt>
      <trkpt lat="42.63838" lon="1.04665">
        <ele>1463.4</ele>
        <time>2022-05-22 20:19:45</time>
      </trkpt>
      <trkpt lat="42.63838" lon="1.04662">
        <ele>1463.4</ele>
        <time>2022-05-22 20:19:46</time>
      </trkpt>
      <trkpt lat="42.63837" lon="1.0466">
        <ele>1463.6</ele>
        <time>2022-05-22 20:19:47</time>
      </trkpt>
      <trkpt lat="42.63837" lon="1.04658">
        <ele>1463.8</ele>
        <time>2022-05-22 20:19:48</time>
      </trkpt>
      <trkpt lat="42.63837" lon="1.04655">
        <ele>1464</ele>
        <time>2022-05-22 20:19:49</time>
      </trkpt>
      <trkpt lat="42.63838" lon="1.04653">
        <ele>1464.2</ele>
        <time>2022-05-22 20:19:50</time>
      </trkpt>
      <trkpt lat="42.63838" lon="1.04651">
        <ele>1464.2</ele>
        <time>2022-05-22 20:19:51</time>
      </trkpt>
      <trkpt lat="42.63838" lon="1.04649">
        <ele>1464.4</ele>
        <time>2022-05-22 20:19:52</time>
      </trkpt>
      <trkpt lat="42.63839" lon="1.04646">
        <ele>1464.6</ele>
        <time>2022-05-22 20:19:53</time>
      </trkpt>
      <trkpt lat="42.63839" lon="1.04644">
        <ele>1464.8</ele>
        <time>2022-05-22 20:19:54</time>
      </trkpt>
      <trkpt lat="42.63838" lon="1.04641">
        <ele>1464.8</ele>
        <time>2022-05-22 20:19:55</time>
      </trkpt>
      <trkpt lat="42.63838" lon="1.04639">
        <ele>1465</ele>
        <time>2022-05-22 20:19:56</time>
      </trkpt>
      <trkpt lat="42.63838" lon="1.04637">
        <ele>1465.2</ele>
        <time>2022-05-22 20:19:57</time>
      </trkpt>
      <trkpt lat="42.63838" lon="1.04634">
        <ele>1465.4</ele>
        <time>2022-05-22 20:19:58</time>
      </trkpt>
      <trkpt lat="42.63838" lon="1.04631">
        <ele>1465.6</ele>
        <time>2022-05-22 20:19:59</time>
      </trkpt>
      <trkpt lat="42.63838" lon="1.04629">
        <ele>1465.6</ele>
        <time>2022-05-22 20:20:00</time>
      </trkpt>
      <trkpt lat="42.63838" lon="1.04626">
        <ele>1465.8</ele>
        <time>2022-05-22 20:20:01</time>
      </trkpt>
      <trkpt lat="42.63838" lon="1.04624">
        <ele>1466</ele>
        <time>2022-05-22 20:20:02</time>
      </trkpt>
      <trkpt lat="42.63838" lon="1.04621">
        <ele>1466.2</ele>
        <time>2022-05-22 20:20:03</time>
      </trkpt>
      <trkpt lat="42.63837" lon="1.04619">
        <ele>1466.4</ele>
        <time>2022-05-22 20:20:04</time>
      </trkpt>
      <trkpt lat="42.63837" lon="1.04616">
        <ele>1466.6</ele>
        <time>2022-05-22 20:20:05</time>
      </trkpt>
      <trkpt lat="42.63837" lon="1.04614">
        <ele>1466.8</ele>
        <time>2022-05-22 20:20:06</time>
      </trkpt>
      <trkpt lat="42.63837" lon="1.04611">
        <ele>1466.8</ele>
        <time>2022-05-22 20:20:07</time>
      </trkpt>
      <trkpt lat="42.63837" lon="1.04608">
        <ele>1467</ele>
        <time>2022-05-22 20:20:08</time>
      </trkpt>
      <trkpt lat="42.63837" lon="1.04606">
        <ele>1467.2</ele>
        <time>2022-05-22 20:20:09</time>
      </trkpt>
      <trkpt lat="42.63837" lon="1.04603">
        <ele>1467.4</ele>
        <time>2022-05-22 20:20:10</time>
      </trkpt>
      <trkpt lat="42.63837" lon="1.04601">
        <ele>1467.6</ele>
        <time>2022-05-22 20:20:11</time>
      </trkpt>
      <trkpt lat="42.63837" lon="1.04599">
        <ele>1467.6</ele>
        <time>2022-05-22 20:20:12</time>
      </trkpt>
      <trkpt lat="42.63838" lon="1.04595">
        <ele>1468</ele>
        <time>2022-05-22 20:20:13</time>
      </trkpt>
      <trkpt lat="42.63838" lon="1.04593">
        <ele>1468</ele>
        <time>2022-05-22 20:20:14</time>
      </trkpt>
      <trkpt lat="42.63838" lon="1.04591">
        <ele>1468.2</ele>
        <time>2022-05-22 20:20:15</time>
      </trkpt>
      <trkpt lat="42.63838" lon="1.04588">
        <ele>1468.4</ele>
        <time>2022-05-22 20:20:16</time>
      </trkpt>
      <trkpt lat="42.63838" lon="1.04586">
        <ele>1468.6</ele>
        <time>2022-05-22 20:20:17</time>
      </trkpt>
      <trkpt lat="42.63838" lon="1.04583">
        <ele>1468.8</ele>
        <time>2022-05-22 20:20:18</time>
      </trkpt>
      <trkpt lat="42.63838" lon="1.0458">
        <ele>1469</ele>
        <time>2022-05-22 20:20:19</time>
      </trkpt>
      <trkpt lat="42.63839" lon="1.04578">
        <ele>1469</ele>
        <time>2022-05-22 20:20:20</time>
      </trkpt>
      <trkpt lat="42.63839" lon="1.04576">
        <ele>1469.2</ele>
        <time>2022-05-22 20:20:21</time>
      </trkpt>
      <trkpt lat="42.6384" lon="1.04573">
        <ele>1469.4</ele>
        <time>2022-05-22 20:20:22</time>
      </trkpt>
      <trkpt lat="42.6384" lon="1.04571">
        <ele>1469.6</ele>
        <time>2022-05-22 20:20:23</time>
      </trkpt>
      <trkpt lat="42.6384" lon="1.04568">
        <ele>1469.8</ele>
        <time>2022-05-22 20:20:24</time>
      </trkpt>
      <trkpt lat="42.63841" lon="1.04566">
        <ele>1470</ele>
        <time>2022-05-22 20:20:25</time>
      </trkpt>
      <trkpt lat="42.63841" lon="1.04564">
        <ele>1470.2</ele>
        <time>2022-05-22 20:20:26</time>
      </trkpt>
      <trkpt lat="42.63842" lon="1.04561">
        <ele>1470.4</ele>
        <time>2022-05-22 20:20:27</time>
      </trkpt>
      <trkpt lat="42.63842" lon="1.04559">
        <ele>1470.6</ele>
        <time>2022-05-22 20:20:28</time>
      </trkpt>
      <trkpt lat="42.63843" lon="1.04556">
        <ele>1470.8</ele>
        <time>2022-05-22 20:20:29</time>
      </trkpt>
      <trkpt lat="42.63843" lon="1.04554">
        <ele>1470.8</ele>
        <time>2022-05-22 20:20:30</time>
      </trkpt>
      <trkpt lat="42.63844" lon="1.04551">
        <ele>1471</ele>
        <time>2022-05-22 20:20:31</time>
      </trkpt>
      <trkpt lat="42.63844" lon="1.04549">
        <ele>1471.2</ele>
        <time>2022-05-22 20:20:32</time>
      </trkpt>
      <trkpt lat="42.63844" lon="1.04546">
        <ele>1471.4</ele>
        <time>2022-05-22 20:20:33</time>
      </trkpt>
      <trkpt lat="42.63845" lon="1.04544">
        <ele>1471.6</ele>
        <time>2022-05-22 20:20:34</time>
      </trkpt>
      <trkpt lat="42.63845" lon="1.04542">
        <ele>1471.8</ele>
        <time>2022-05-22 20:20:35</time>
      </trkpt>
      <trkpt lat="42.63846" lon="1.0454">
        <ele>1472</ele>
        <time>2022-05-22 20:20:36</time>
      </trkpt>
      <trkpt lat="42.63847" lon="1.04537">
        <ele>1472.2</ele>
        <time>2022-05-22 20:20:37</time>
      </trkpt>
      <trkpt lat="42.63848" lon="1.04535">
        <ele>1472.4</ele>
        <time>2022-05-22 20:20:38</time>
      </trkpt>
      <trkpt lat="42.63848" lon="1.04533">
        <ele>1472.6</ele>
        <time>2022-05-22 20:20:39</time>
      </trkpt>
      <trkpt lat="42.63849" lon="1.04531">
        <ele>1472.8</ele>
        <time>2022-05-22 20:20:40</time>
      </trkpt>
      <trkpt lat="42.6385" lon="1.04529">
        <ele>1472.8</ele>
        <time>2022-05-22 20:20:41</time>
      </trkpt>
      <trkpt lat="42.6385" lon="1.04526">
        <ele>1473</ele>
        <time>2022-05-22 20:20:42</time>
      </trkpt>
      <trkpt lat="42.63851" lon="1.04524">
        <ele>1473.2</ele>
        <time>2022-05-22 20:20:43</time>
      </trkpt>
      <trkpt lat="42.63851" lon="1.04522">
        <ele>1473.4</ele>
        <time>2022-05-22 20:20:44</time>
      </trkpt>
      <trkpt lat="42.63852" lon="1.04519">
        <ele>1473.6</ele>
        <time>2022-05-22 20:20:45</time>
      </trkpt>
      <trkpt lat="42.63852" lon="1.04517">
        <ele>1473.8</ele>
        <time>2022-05-22 20:20:46</time>
      </trkpt>
      <trkpt lat="42.63853" lon="1.04515">
        <ele>1473.8</ele>
        <time>2022-05-22 20:20:47</time>
      </trkpt>
      <trkpt lat="42.63854" lon="1.04512">
        <ele>1474</ele>
        <time>2022-05-22 20:20:48</time>
      </trkpt>
      <trkpt lat="42.63854" lon="1.0451">
        <ele>1474.2</ele>
        <time>2022-05-22 20:20:49</time>
      </trkpt>
      <trkpt lat="42.63855" lon="1.04507">
        <ele>1474.4</ele>
        <time>2022-05-22 20:20:50</time>
      </trkpt>
      <trkpt lat="42.63855" lon="1.04504">
        <ele>1474.6</ele>
        <time>2022-05-22 20:20:51</time>
      </trkpt>
      <trkpt lat="42.63856" lon="1.04501">
        <ele>1474.8</ele>
        <time>2022-05-22 20:20:52</time>
      </trkpt>
      <trkpt lat="42.63856" lon="1.04499">
        <ele>1475</ele>
        <time>2022-05-22 20:20:53</time>
      </trkpt>
      <trkpt lat="42.63856" lon="1.04497">
        <ele>1475.2</ele>
        <time>2022-05-22 20:20:54</time>
      </trkpt>
      <trkpt lat="42.63857" lon="1.04494">
        <ele>1475.2</ele>
        <time>2022-05-22 20:20:55</time>
      </trkpt>
      <trkpt lat="42.63857" lon="1.04492">
        <ele>1475.4</ele>
        <time>2022-05-22 20:20:56</time>
      </trkpt>
      <trkpt lat="42.63857" lon="1.04491">
        <ele>1475.6</ele>
        <time>2022-05-22 20:20:57</time>
      </trkpt>
      <trkpt lat="42.63858" lon="1.04487">
        <ele>1475.8</ele>
        <time>2022-05-22 20:20:58</time>
      </trkpt>
      <trkpt lat="42.63858" lon="1.04485">
        <ele>1476</ele>
        <time>2022-05-22 20:20:59</time>
      </trkpt>
      <trkpt lat="42.63859" lon="1.04483">
        <ele>1476.2</ele>
        <time>2022-05-22 20:21:00</time>
      </trkpt>
      <trkpt lat="42.63859" lon="1.0448">
        <ele>1476.4</ele>
        <time>2022-05-22 20:21:01</time>
      </trkpt>
      <trkpt lat="42.63859" lon="1.04478">
        <ele>1476.6</ele>
        <time>2022-05-22 20:21:02</time>
      </trkpt>
      <trkpt lat="42.63859" lon="1.04476">
        <ele>1476.6</ele>
        <time>2022-05-22 20:21:03</time>
      </trkpt>
      <trkpt lat="42.63859" lon="1.04474">
        <ele>1476.8</ele>
        <time>2022-05-22 20:21:04</time>
      </trkpt>
      <trkpt lat="42.6386" lon="1.04472">
        <ele>1477</ele>
        <time>2022-05-22 20:21:05</time>
      </trkpt>
      <trkpt lat="42.6386" lon="1.0447">
        <ele>1477.2</ele>
        <time>2022-05-22 20:21:06</time>
      </trkpt>
      <trkpt lat="42.6386" lon="1.04468">
        <ele>1477.4</ele>
        <time>2022-05-22 20:21:07</time>
      </trkpt>
      <trkpt lat="42.6386" lon="1.04466">
        <ele>1477.4</ele>
        <time>2022-05-22 20:21:08</time>
      </trkpt>
      <trkpt lat="42.6386" lon="1.04463">
        <ele>1477.6</ele>
        <time>2022-05-22 20:21:09</time>
      </trkpt>
      <trkpt lat="42.6386" lon="1.04461">
        <ele>1477.8</ele>
        <time>2022-05-22 20:21:10</time>
      </trkpt>
      <trkpt lat="42.6386" lon="1.04458">
        <ele>1478</ele>
        <time>2022-05-22 20:21:11</time>
      </trkpt>
      <trkpt lat="42.6386" lon="1.04456">
        <ele>1478</ele>
        <time>2022-05-22 20:21:12</time>
      </trkpt>
      <trkpt lat="42.6386" lon="1.04453">
        <ele>1478.2</ele>
        <time>2022-05-22 20:21:13</time>
      </trkpt>
      <trkpt lat="42.63861" lon="1.0445">
        <ele>1478.4</ele>
        <time>2022-05-22 20:21:14</time>
      </trkpt>
      <trkpt lat="42.63861" lon="1.04448">
        <ele>1478.6</ele>
        <time>2022-05-22 20:21:15</time>
      </trkpt>
      <trkpt lat="42.63862" lon="1.04445">
        <ele>1478.8</ele>
        <time>2022-05-22 20:21:16</time>
      </trkpt>
      <trkpt lat="42.63862" lon="1.04443">
        <ele>1478.8</ele>
        <time>2022-05-22 20:21:17</time>
      </trkpt>
      <trkpt lat="42.63862" lon="1.04441">
        <ele>1479</ele>
        <time>2022-05-22 20:21:18</time>
      </trkpt>
      <trkpt lat="42.63863" lon="1.04438">
        <ele>1479.2</ele>
        <time>2022-05-22 20:21:19</time>
      </trkpt>
      <trkpt lat="42.63863" lon="1.04435">
        <ele>1479.4</ele>
        <time>2022-05-22 20:21:20</time>
      </trkpt>
      <trkpt lat="42.63863" lon="1.04433">
        <ele>1479.4</ele>
        <time>2022-05-22 20:21:21</time>
      </trkpt>
      <trkpt lat="42.63863" lon="1.0443">
        <ele>1479.6</ele>
        <time>2022-05-22 20:21:22</time>
      </trkpt>
      <trkpt lat="42.63863" lon="1.04427">
        <ele>1479.8</ele>
        <time>2022-05-22 20:21:23</time>
      </trkpt>
      <trkpt lat="42.63863" lon="1.04425">
        <ele>1479.8</ele>
        <time>2022-05-22 20:21:24</time>
      </trkpt>
      <trkpt lat="42.63863" lon="1.04422">
        <ele>1480</ele>
        <time>2022-05-22 20:21:25</time>
      </trkpt>
      <trkpt lat="42.63863" lon="1.0442">
        <ele>1480.2</ele>
        <time>2022-05-22 20:21:26</time>
      </trkpt>
      <trkpt lat="42.63863" lon="1.04418">
        <ele>1480.2</ele>
        <time>2022-05-22 20:21:27</time>
      </trkpt>
      <trkpt lat="42.63863" lon="1.04415">
        <ele>1480.4</ele>
        <time>2022-05-22 20:21:28</time>
      </trkpt>
      <trkpt lat="42.63863" lon="1.04413">
        <ele>1480.6</ele>
        <time>2022-05-22 20:21:29</time>
      </trkpt>
      <trkpt lat="42.63863" lon="1.04411">
        <ele>1480.8</ele>
        <time>2022-05-22 20:21:30</time>
      </trkpt>
      <trkpt lat="42.63863" lon="1.04408">
        <ele>1481</ele>
        <time>2022-05-22 20:21:31</time>
      </trkpt>
      <trkpt lat="42.63863" lon="1.04406">
        <ele>1481</ele>
        <time>2022-05-22 20:21:32</time>
      </trkpt>
      <trkpt lat="42.63863" lon="1.04404">
        <ele>1481.2</ele>
        <time>2022-05-22 20:21:33</time>
      </trkpt>
      <trkpt lat="42.63863" lon="1.04401">
        <ele>1481.4</ele>
        <time>2022-05-22 20:21:34</time>
      </trkpt>
      <trkpt lat="42.63863" lon="1.04399">
        <ele>1481.4</ele>
        <time>2022-05-22 20:21:35</time>
      </trkpt>
      <trkpt lat="42.63863" lon="1.04397">
        <ele>1481.6</ele>
        <time>2022-05-22 20:21:36</time>
      </trkpt>
      <trkpt lat="42.63863" lon="1.04394">
        <ele>1481.8</ele>
        <time>2022-05-22 20:21:37</time>
      </trkpt>
      <trkpt lat="42.63863" lon="1.04392">
        <ele>1481.8</ele>
        <time>2022-05-22 20:21:38</time>
      </trkpt>
      <trkpt lat="42.63863" lon="1.04389">
        <ele>1482</ele>
        <time>2022-05-22 20:21:39</time>
      </trkpt>
      <trkpt lat="42.63863" lon="1.04387">
        <ele>1482.2</ele>
        <time>2022-05-22 20:21:40</time>
      </trkpt>
      <trkpt lat="42.63863" lon="1.04385">
        <ele>1482.2</ele>
        <time>2022-05-22 20:21:41</time>
      </trkpt>
      <trkpt lat="42.63863" lon="1.04383">
        <ele>1482.4</ele>
        <time>2022-05-22 20:21:42</time>
      </trkpt>
      <trkpt lat="42.63864" lon="1.0438">
        <ele>1482.6</ele>
        <time>2022-05-22 20:21:43</time>
      </trkpt>
      <trkpt lat="42.63864" lon="1.04378">
        <ele>1482.8</ele>
        <time>2022-05-22 20:21:44</time>
      </trkpt>
      <trkpt lat="42.63864" lon="1.04375">
        <ele>1482.8</ele>
        <time>2022-05-22 20:21:45</time>
      </trkpt>
      <trkpt lat="42.63865" lon="1.04372">
        <ele>1483</ele>
        <time>2022-05-22 20:21:46</time>
      </trkpt>
      <trkpt lat="42.63865" lon="1.0437">
        <ele>1483.2</ele>
        <time>2022-05-22 20:21:47</time>
      </trkpt>
      <trkpt lat="42.63865" lon="1.04368">
        <ele>1483.2</ele>
        <time>2022-05-22 20:21:48</time>
      </trkpt>
      <trkpt lat="42.63865" lon="1.04365">
        <ele>1483.4</ele>
        <time>2022-05-22 20:21:49</time>
      </trkpt>
      <trkpt lat="42.63865" lon="1.04363">
        <ele>1483.6</ele>
        <time>2022-05-22 20:21:50</time>
      </trkpt>
      <trkpt lat="42.63865" lon="1.04362">
        <ele>1483.8</ele>
        <time>2022-05-22 20:21:51</time>
      </trkpt>
      <trkpt lat="42.63865" lon="1.04358">
        <ele>1483.8</ele>
        <time>2022-05-22 20:21:52</time>
      </trkpt>
      <trkpt lat="42.63866" lon="1.04356">
        <ele>1484</ele>
        <time>2022-05-22 20:21:53</time>
      </trkpt>
      <trkpt lat="42.63866" lon="1.04353">
        <ele>1484</ele>
        <time>2022-05-22 20:21:54</time>
      </trkpt>
      <trkpt lat="42.63866" lon="1.0435">
        <ele>1484.2</ele>
        <time>2022-05-22 20:21:55</time>
      </trkpt>
      <trkpt lat="42.63866" lon="1.04348">
        <ele>1484.4</ele>
        <time>2022-05-22 20:21:56</time>
      </trkpt>
      <trkpt lat="42.63867" lon="1.04345">
        <ele>1484.4</ele>
        <time>2022-05-22 20:21:57</time>
      </trkpt>
      <trkpt lat="42.63867" lon="1.04342">
        <ele>1484.6</ele>
        <time>2022-05-22 20:21:58</time>
      </trkpt>
      <trkpt lat="42.63868" lon="1.0434">
        <ele>1484.8</ele>
        <time>2022-05-22 20:21:59</time>
      </trkpt>
      <trkpt lat="42.63868" lon="1.04337">
        <ele>1485</ele>
        <time>2022-05-22 20:22:00</time>
      </trkpt>
      <trkpt lat="42.63869" lon="1.04334">
        <ele>1485</ele>
        <time>2022-05-22 20:22:01</time>
      </trkpt>
      <trkpt lat="42.63869" lon="1.04332">
        <ele>1485.2</ele>
        <time>2022-05-22 20:22:02</time>
      </trkpt>
      <trkpt lat="42.6387" lon="1.04329">
        <ele>1485.4</ele>
        <time>2022-05-22 20:22:03</time>
      </trkpt>
      <trkpt lat="42.6387" lon="1.04326">
        <ele>1485.6</ele>
        <time>2022-05-22 20:22:04</time>
      </trkpt>
      <trkpt lat="42.63871" lon="1.04323">
        <ele>1485.6</ele>
        <time>2022-05-22 20:22:05</time>
      </trkpt>
      <trkpt lat="42.63872" lon="1.04321">
        <ele>1485.8</ele>
        <time>2022-05-22 20:22:06</time>
      </trkpt>
      <trkpt lat="42.63873" lon="1.04318">
        <ele>1485.8</ele>
        <time>2022-05-22 20:22:07</time>
      </trkpt>
      <trkpt lat="42.63873" lon="1.04315">
        <ele>1486</ele>
        <time>2022-05-22 20:22:08</time>
      </trkpt>
      <trkpt lat="42.63874" lon="1.04312">
        <ele>1486.2</ele>
        <time>2022-05-22 20:22:09</time>
      </trkpt>
      <trkpt lat="42.63875" lon="1.0431">
        <ele>1486.4</ele>
        <time>2022-05-22 20:22:10</time>
      </trkpt>
      <trkpt lat="42.63876" lon="1.04307">
        <ele>1486.6</ele>
        <time>2022-05-22 20:22:11</time>
      </trkpt>
      <trkpt lat="42.63877" lon="1.04305">
        <ele>1486.6</ele>
        <time>2022-05-22 20:22:12</time>
      </trkpt>
      <trkpt lat="42.63878" lon="1.04302">
        <ele>1486.8</ele>
        <time>2022-05-22 20:22:13</time>
      </trkpt>
      <trkpt lat="42.63879" lon="1.043">
        <ele>1487</ele>
        <time>2022-05-22 20:22:14</time>
      </trkpt>
      <trkpt lat="42.6388" lon="1.04297">
        <ele>1487.2</ele>
        <time>2022-05-22 20:22:15</time>
      </trkpt>
      <trkpt lat="42.63881" lon="1.04295">
        <ele>1487.4</ele>
        <time>2022-05-22 20:22:16</time>
      </trkpt>
      <trkpt lat="42.63881" lon="1.04293">
        <ele>1487.6</ele>
        <time>2022-05-22 20:22:17</time>
      </trkpt>
      <trkpt lat="42.63883" lon="1.0429">
        <ele>1487.8</ele>
        <time>2022-05-22 20:22:18</time>
      </trkpt>
      <trkpt lat="42.63884" lon="1.04288">
        <ele>1487.8</ele>
        <time>2022-05-22 20:22:19</time>
      </trkpt>
      <trkpt lat="42.63886" lon="1.04286">
        <ele>1488</ele>
        <time>2022-05-22 20:22:20</time>
      </trkpt>
      <trkpt lat="42.63887" lon="1.04284">
        <ele>1488.2</ele>
        <time>2022-05-22 20:22:21</time>
      </trkpt>
      <trkpt lat="42.63888" lon="1.04282">
        <ele>1488.4</ele>
        <time>2022-05-22 20:22:22</time>
      </trkpt>
      <trkpt lat="42.63889" lon="1.04279">
        <ele>1488.6</ele>
        <time>2022-05-22 20:22:23</time>
      </trkpt>
      <trkpt lat="42.63891" lon="1.04277">
        <ele>1488.6</ele>
        <time>2022-05-22 20:22:24</time>
      </trkpt>
      <trkpt lat="42.63892" lon="1.04275">
        <ele>1488.8</ele>
        <time>2022-05-22 20:22:25</time>
      </trkpt>
      <trkpt lat="42.63893" lon="1.04273">
        <ele>1489</ele>
        <time>2022-05-22 20:22:26</time>
      </trkpt>
      <trkpt lat="42.63894" lon="1.04271">
        <ele>1489.2</ele>
        <time>2022-05-22 20:22:27</time>
      </trkpt>
      <trkpt lat="42.63896" lon="1.04269">
        <ele>1489.4</ele>
        <time>2022-05-22 20:22:28</time>
      </trkpt>
      <trkpt lat="42.63897" lon="1.04266">
        <ele>1489.4</ele>
        <time>2022-05-22 20:22:29</time>
      </trkpt>
      <trkpt lat="42.63897" lon="1.04264">
        <ele>1489.6</ele>
        <time>2022-05-22 20:22:30</time>
      </trkpt>
      <trkpt lat="42.63899" lon="1.04262">
        <ele>1489.8</ele>
        <time>2022-05-22 20:22:31</time>
      </trkpt>
      <trkpt lat="42.639" lon="1.0426">
        <ele>1489.8</ele>
        <time>2022-05-22 20:22:32</time>
      </trkpt>
      <trkpt lat="42.63901" lon="1.04257">
        <ele>1490</ele>
        <time>2022-05-22 20:22:33</time>
      </trkpt>
      <trkpt lat="42.63902" lon="1.04255">
        <ele>1490.2</ele>
        <time>2022-05-22 20:22:34</time>
      </trkpt>
      <trkpt lat="42.63903" lon="1.04254">
        <ele>1490.4</ele>
        <time>2022-05-22 20:22:35</time>
      </trkpt>
      <trkpt lat="42.63904" lon="1.04252">
        <ele>1490.6</ele>
        <time>2022-05-22 20:22:36</time>
      </trkpt>
      <trkpt lat="42.63906" lon="1.0425">
        <ele>1490.6</ele>
        <time>2022-05-22 20:22:37</time>
      </trkpt>
      <trkpt lat="42.63908" lon="1.04247">
        <ele>1490.8</ele>
        <time>2022-05-22 20:22:38</time>
      </trkpt>
      <trkpt lat="42.6391" lon="1.04245">
        <ele>1491</ele>
        <time>2022-05-22 20:22:39</time>
      </trkpt>
      <trkpt lat="42.63911" lon="1.04243">
        <ele>1491.2</ele>
        <time>2022-05-22 20:22:40</time>
      </trkpt>
      <trkpt lat="42.63912" lon="1.0424">
        <ele>1491.2</ele>
        <time>2022-05-22 20:22:41</time>
      </trkpt>
      <trkpt lat="42.63913" lon="1.04238">
        <ele>1491.4</ele>
        <time>2022-05-22 20:22:42</time>
      </trkpt>
      <trkpt lat="42.63914" lon="1.04236">
        <ele>1491.6</ele>
        <time>2022-05-22 20:22:43</time>
      </trkpt>
      <trkpt lat="42.63915" lon="1.04233">
        <ele>1491.8</ele>
        <time>2022-05-22 20:22:44</time>
      </trkpt>
      <trkpt lat="42.63917" lon="1.04231">
        <ele>1491.8</ele>
        <time>2022-05-22 20:22:45</time>
      </trkpt>
      <trkpt lat="42.63918" lon="1.04229">
        <ele>1492</ele>
        <time>2022-05-22 20:22:46</time>
      </trkpt>
      <trkpt lat="42.6392" lon="1.04226">
        <ele>1492.2</ele>
        <time>2022-05-22 20:22:47</time>
      </trkpt>
      <trkpt lat="42.63921" lon="1.04223">
        <ele>1492.4</ele>
        <time>2022-05-22 20:22:48</time>
      </trkpt>
      <trkpt lat="42.63922" lon="1.04221">
        <ele>1492.4</ele>
        <time>2022-05-22 20:22:49</time>
      </trkpt>
      <trkpt lat="42.63923" lon="1.04218">
        <ele>1492.6</ele>
        <time>2022-05-22 20:22:50</time>
      </trkpt>
      <trkpt lat="42.63924" lon="1.04217">
        <ele>1492.8</ele>
        <time>2022-05-22 20:22:51</time>
      </trkpt>
      <trkpt lat="42.63926" lon="1.04212">
        <ele>1493</ele>
        <time>2022-05-22 20:22:52</time>
      </trkpt>
      <trkpt lat="42.63928" lon="1.04209">
        <ele>1493</ele>
        <time>2022-05-22 20:22:53</time>
      </trkpt>
      <trkpt lat="42.63929" lon="1.04207">
        <ele>1493.2</ele>
        <time>2022-05-22 20:22:54</time>
      </trkpt>
      <trkpt lat="42.63931" lon="1.04204">
        <ele>1493.4</ele>
        <time>2022-05-22 20:22:55</time>
      </trkpt>
      <trkpt lat="42.63932" lon="1.04201">
        <ele>1493.6</ele>
        <time>2022-05-22 20:22:56</time>
      </trkpt>
      <trkpt lat="42.63933" lon="1.04198">
        <ele>1493.8</ele>
        <time>2022-05-22 20:22:57</time>
      </trkpt>
      <trkpt lat="42.63934" lon="1.04194">
        <ele>1494</ele>
        <time>2022-05-22 20:22:58</time>
      </trkpt>
      <trkpt lat="42.63935" lon="1.04191">
        <ele>1494</ele>
        <time>2022-05-22 20:22:59</time>
      </trkpt>
      <trkpt lat="42.63937" lon="1.04187">
        <ele>1494.2</ele>
        <time>2022-05-22 20:23:00</time>
      </trkpt>
      <trkpt lat="42.63938" lon="1.04183">
        <ele>1494.4</ele>
        <time>2022-05-22 20:23:01</time>
      </trkpt>
      <trkpt lat="42.63939" lon="1.04179">
        <ele>1494.4</ele>
        <time>2022-05-22 20:23:02</time>
      </trkpt>
      <trkpt lat="42.6394" lon="1.04175">
        <ele>1494.6</ele>
        <time>2022-05-22 20:23:03</time>
      </trkpt>
      <trkpt lat="42.63941" lon="1.0417">
        <ele>1494.8</ele>
        <time>2022-05-22 20:23:04</time>
      </trkpt>
      <trkpt lat="42.63942" lon="1.04165">
        <ele>1495</ele>
        <time>2022-05-22 20:23:05</time>
      </trkpt>
      <trkpt lat="42.63944" lon="1.04161">
        <ele>1495.2</ele>
        <time>2022-05-22 20:23:06</time>
      </trkpt>
      <trkpt lat="42.63946" lon="1.04157">
        <ele>1495.4</ele>
        <time>2022-05-22 20:23:07</time>
      </trkpt>
      <trkpt lat="42.63947" lon="1.04152">
        <ele>1495.6</ele>
        <time>2022-05-22 20:23:08</time>
      </trkpt>
      <trkpt lat="42.63949" lon="1.04148">
        <ele>1495.6</ele>
        <time>2022-05-22 20:23:09</time>
      </trkpt>
      <trkpt lat="42.63951" lon="1.04144">
        <ele>1495.8</ele>
        <time>2022-05-22 20:23:10</time>
      </trkpt>
      <trkpt lat="42.63953" lon="1.0414">
        <ele>1496</ele>
        <time>2022-05-22 20:23:11</time>
      </trkpt>
      <trkpt lat="42.63952" lon="1.04139">
        <ele>1496.2</ele>
        <time>2022-05-22 20:23:12</time>
      </trkpt>
      <trkpt lat="42.63952" lon="1.04135">
        <ele>1496.4</ele>
        <time>2022-05-22 20:23:13</time>
      </trkpt>
      <trkpt lat="42.63953" lon="1.04132">
        <ele>1496.4</ele>
        <time>2022-05-22 20:23:14</time>
      </trkpt>
      <trkpt lat="42.63954" lon="1.04129">
        <ele>1496.6</ele>
        <time>2022-05-22 20:23:15</time>
      </trkpt>
      <trkpt lat="42.63955" lon="1.04126">
        <ele>1496.8</ele>
        <time>2022-05-22 20:23:16</time>
      </trkpt>
      <trkpt lat="42.63957" lon="1.04123">
        <ele>1497</ele>
        <time>2022-05-22 20:23:17</time>
      </trkpt>
      <trkpt lat="42.63957" lon="1.0412">
        <ele>1497</ele>
        <time>2022-05-22 20:23:18</time>
      </trkpt>
      <trkpt lat="42.63955" lon="1.04119">
        <ele>1497.2</ele>
        <time>2022-05-22 20:23:19</time>
      </trkpt>
      <trkpt lat="42.63953" lon="1.04117">
        <ele>1497.4</ele>
        <time>2022-05-22 20:23:20</time>
      </trkpt>
      <trkpt lat="42.63952" lon="1.04115">
        <ele>1497.6</ele>
        <time>2022-05-22 20:23:21</time>
      </trkpt>
      <trkpt lat="42.63966" lon="1.04123">
        <ele>1497.8</ele>
        <time>2022-05-22 20:23:22</time>
      </trkpt>
      <trkpt lat="42.63983" lon="1.04132">
        <ele>1497.8</ele>
        <time>2022-05-22 20:23:23</time>
      </trkpt>
      <trkpt lat="42.63987" lon="1.04133">
        <ele>1498</ele>
        <time>2022-05-22 20:23:24</time>
      </trkpt>
      <trkpt lat="42.63998" lon="1.04149">
        <ele>1498.2</ele>
        <time>2022-05-22 20:23:25</time>
      </trkpt>
      <trkpt lat="42.64006" lon="1.04159">
        <ele>1498.2</ele>
        <time>2022-05-22 20:23:26</time>
      </trkpt>
      <trkpt lat="42.64005" lon="1.04148">
        <ele>1498.4</ele>
        <time>2022-05-22 20:23:27</time>
      </trkpt>
      <trkpt lat="42.64007" lon="1.04143">
        <ele>1498.6</ele>
        <time>2022-05-22 20:23:28</time>
      </trkpt>
      <trkpt lat="42.64009" lon="1.04142">
        <ele>1498.8</ele>
        <time>2022-05-22 20:23:29</time>
      </trkpt>
      <trkpt lat="42.64006" lon="1.04131">
        <ele>1499</ele>
        <time>2022-05-22 20:23:30</time>
      </trkpt>
      <trkpt lat="42.64001" lon="1.04116">
        <ele>1499</ele>
        <time>2022-05-22 20:23:31</time>
      </trkpt>
      <trkpt lat="42.63989" lon="1.04087">
        <ele>1499.2</ele>
        <time>2022-05-22 20:23:32</time>
      </trkpt>
      <trkpt lat="42.6397" lon="1.04051">
        <ele>1499.4</ele>
        <time>2022-05-22 20:23:33</time>
      </trkpt>
      <trkpt lat="42.6397" lon="1.04048">
        <ele>1499.4</ele>
        <time>2022-05-22 20:23:34</time>
      </trkpt>
      <trkpt lat="42.63971" lon="1.04045">
        <ele>1499.6</ele>
        <time>2022-05-22 20:23:35</time>
      </trkpt>
      <trkpt lat="42.63972" lon="1.04042">
        <ele>1499.8</ele>
        <time>2022-05-22 20:23:36</time>
      </trkpt>
      <trkpt lat="42.63973" lon="1.0404">
        <ele>1500</ele>
        <time>2022-05-22 20:23:37</time>
      </trkpt>
      <trkpt lat="42.63975" lon="1.04037">
        <ele>1500.2</ele>
        <time>2022-05-22 20:23:38</time>
      </trkpt>
      <trkpt lat="42.63977" lon="1.04033">
        <ele>1500.2</ele>
        <time>2022-05-22 20:23:39</time>
      </trkpt>
      <trkpt lat="42.63978" lon="1.0403">
        <ele>1500.4</ele>
        <time>2022-05-22 20:23:40</time>
      </trkpt>
      <trkpt lat="42.63979" lon="1.04026">
        <ele>1500.6</ele>
        <time>2022-05-22 20:23:41</time>
      </trkpt>
      <trkpt lat="42.63979" lon="1.04023">
        <ele>1500.6</ele>
        <time>2022-05-22 20:23:42</time>
      </trkpt>
      <trkpt lat="42.63981" lon="1.04019">
        <ele>1500.8</ele>
        <time>2022-05-22 20:23:43</time>
      </trkpt>
      <trkpt lat="42.63982" lon="1.04015">
        <ele>1501</ele>
        <time>2022-05-22 20:23:44</time>
      </trkpt>
      <trkpt lat="42.63983" lon="1.04012">
        <ele>1501</ele>
        <time>2022-05-22 20:23:45</time>
      </trkpt>
      <trkpt lat="42.63983" lon="1.04008">
        <ele>1501.2</ele>
        <time>2022-05-22 20:23:46</time>
      </trkpt>
      <trkpt lat="42.63984" lon="1.04004">
        <ele>1501.2</ele>
        <time>2022-05-22 20:23:47</time>
      </trkpt>
      <trkpt lat="42.63986" lon="1.04001">
        <ele>1501.4</ele>
        <time>2022-05-22 20:23:48</time>
      </trkpt>
      <trkpt lat="42.63987" lon="1.03999">
        <ele>1501.4</ele>
        <time>2022-05-22 20:23:49</time>
      </trkpt>
      <trkpt lat="42.63988" lon="1.03997">
        <ele>1501.6</ele>
        <time>2022-05-22 20:23:50</time>
      </trkpt>
      <trkpt lat="42.63989" lon="1.03992">
        <ele>1501.8</ele>
        <time>2022-05-22 20:23:51</time>
      </trkpt>
      <trkpt lat="42.6399" lon="1.03989">
        <ele>1502</ele>
        <time>2022-05-22 20:23:52</time>
      </trkpt>
      <trkpt lat="42.6399" lon="1.03985">
        <ele>1502.2</ele>
        <time>2022-05-22 20:23:53</time>
      </trkpt>
      <trkpt lat="42.63991" lon="1.03981">
        <ele>1502.2</ele>
        <time>2022-05-22 20:23:54</time>
      </trkpt>
      <trkpt lat="42.63992" lon="1.03977">
        <ele>1502.4</ele>
        <time>2022-05-22 20:23:55</time>
      </trkpt>
      <trkpt lat="42.63992" lon="1.03974">
        <ele>1502.6</ele>
        <time>2022-05-22 20:23:56</time>
      </trkpt>
      <trkpt lat="42.63993" lon="1.03971">
        <ele>1502.6</ele>
        <time>2022-05-22 20:23:57</time>
      </trkpt>
      <trkpt lat="42.63994" lon="1.03967">
        <ele>1502.8</ele>
        <time>2022-05-22 20:23:58</time>
      </trkpt>
      <trkpt lat="42.63995" lon="1.03963">
        <ele>1503</ele>
        <time>2022-05-22 20:23:59</time>
      </trkpt>
      <trkpt lat="42.63995" lon="1.0396">
        <ele>1503</ele>
        <time>2022-05-22 20:24:00</time>
      </trkpt>
      <trkpt lat="42.63995" lon="1.03956">
        <ele>1503.2</ele>
        <time>2022-05-22 20:24:01</time>
      </trkpt>
      <trkpt lat="42.63996" lon="1.03952">
        <ele>1503.4</ele>
        <time>2022-05-22 20:24:02</time>
      </trkpt>
      <trkpt lat="42.63997" lon="1.03949">
        <ele>1503.4</ele>
        <time>2022-05-22 20:24:03</time>
      </trkpt>
      <trkpt lat="42.63998" lon="1.03945">
        <ele>1503.6</ele>
        <time>2022-05-22 20:24:04</time>
      </trkpt>
      <trkpt lat="42.63999" lon="1.03942">
        <ele>1503.6</ele>
        <time>2022-05-22 20:24:05</time>
      </trkpt>
      <trkpt lat="42.63999" lon="1.03939">
        <ele>1503.8</ele>
        <time>2022-05-22 20:24:06</time>
      </trkpt>
      <trkpt lat="42.64001" lon="1.03935">
        <ele>1504</ele>
        <time>2022-05-22 20:24:07</time>
      </trkpt>
      <trkpt lat="42.64001" lon="1.03931">
        <ele>1504</ele>
        <time>2022-05-22 20:24:08</time>
      </trkpt>
      <trkpt lat="42.64002" lon="1.03927">
        <ele>1504.2</ele>
        <time>2022-05-22 20:24:09</time>
      </trkpt>
      <trkpt lat="42.64003" lon="1.03923">
        <ele>1504.4</ele>
        <time>2022-05-22 20:24:10</time>
      </trkpt>
      <trkpt lat="42.64004" lon="1.03919">
        <ele>1504.4</ele>
        <time>2022-05-22 20:24:11</time>
      </trkpt>
      <trkpt lat="42.64006" lon="1.03915">
        <ele>1504.6</ele>
        <time>2022-05-22 20:24:12</time>
      </trkpt>
      <trkpt lat="42.64007" lon="1.03912">
        <ele>1504.8</ele>
        <time>2022-05-22 20:24:13</time>
      </trkpt>
      <trkpt lat="42.64008" lon="1.03909">
        <ele>1504.8</ele>
        <time>2022-05-22 20:24:14</time>
      </trkpt>
      <trkpt lat="42.6401" lon="1.03905">
        <ele>1505.2</ele>
        <time>2022-05-22 20:24:15</time>
      </trkpt>
      <trkpt lat="42.6401" lon="1.03901">
        <ele>1505.4</ele>
        <time>2022-05-22 20:24:16</time>
      </trkpt>
      <trkpt lat="42.64011" lon="1.03898">
        <ele>1505.4</ele>
        <time>2022-05-22 20:24:17</time>
      </trkpt>
      <trkpt lat="42.64012" lon="1.03894">
        <ele>1505.6</ele>
        <time>2022-05-22 20:24:18</time>
      </trkpt>
      <trkpt lat="42.64013" lon="1.0389">
        <ele>1505.8</ele>
        <time>2022-05-22 20:24:19</time>
      </trkpt>
      <trkpt lat="42.64013" lon="1.03886">
        <ele>1506</ele>
        <time>2022-05-22 20:24:20</time>
      </trkpt>
      <trkpt lat="42.64014" lon="1.03882">
        <ele>1506.2</ele>
        <time>2022-05-22 20:24:21</time>
      </trkpt>
      <trkpt lat="42.64015" lon="1.03879">
        <ele>1506.2</ele>
        <time>2022-05-22 20:24:22</time>
      </trkpt>
      <trkpt lat="42.64016" lon="1.03874">
        <ele>1506.4</ele>
        <time>2022-05-22 20:24:23</time>
      </trkpt>
      <trkpt lat="42.64017" lon="1.03871">
        <ele>1506.6</ele>
        <time>2022-05-22 20:24:24</time>
      </trkpt>
      <trkpt lat="42.64017" lon="1.03867">
        <ele>1506.6</ele>
        <time>2022-05-22 20:24:25</time>
      </trkpt>
      <trkpt lat="42.64018" lon="1.03863">
        <ele>1506.8</ele>
        <time>2022-05-22 20:24:26</time>
      </trkpt>
      <trkpt lat="42.64019" lon="1.0386">
        <ele>1506.8</ele>
        <time>2022-05-22 20:24:27</time>
      </trkpt>
      <trkpt lat="42.64019" lon="1.03857">
        <ele>1507</ele>
        <time>2022-05-22 20:24:28</time>
      </trkpt>
      <trkpt lat="42.6402" lon="1.03853">
        <ele>1507.2</ele>
        <time>2022-05-22 20:24:29</time>
      </trkpt>
      <trkpt lat="42.6402" lon="1.03849">
        <ele>1507.2</ele>
        <time>2022-05-22 20:24:30</time>
      </trkpt>
      <trkpt lat="42.64021" lon="1.03845">
        <ele>1507.4</ele>
        <time>2022-05-22 20:24:31</time>
      </trkpt>
      <trkpt lat="42.64021" lon="1.03841">
        <ele>1507.4</ele>
        <time>2022-05-22 20:24:32</time>
      </trkpt>
      <trkpt lat="42.64022" lon="1.03838">
        <ele>1507.6</ele>
        <time>2022-05-22 20:24:33</time>
      </trkpt>
      <trkpt lat="42.64023" lon="1.03834">
        <ele>1507.6</ele>
        <time>2022-05-22 20:24:34</time>
      </trkpt>
      <trkpt lat="42.64024" lon="1.0383">
        <ele>1507.8</ele>
        <time>2022-05-22 20:24:35</time>
      </trkpt>
      <trkpt lat="42.64025" lon="1.03827">
        <ele>1507.8</ele>
        <time>2022-05-22 20:24:36</time>
      </trkpt>
      <trkpt lat="42.64026" lon="1.03824">
        <ele>1508</ele>
        <time>2022-05-22 20:24:37</time>
      </trkpt>
      <trkpt lat="42.64026" lon="1.03821">
        <ele>1508.2</ele>
        <time>2022-05-22 20:24:38</time>
      </trkpt>
      <trkpt lat="42.64026" lon="1.03818">
        <ele>1508.2</ele>
        <time>2022-05-22 20:24:39</time>
      </trkpt>
      <trkpt lat="42.64027" lon="1.03815">
        <ele>1508.4</ele>
        <time>2022-05-22 20:24:40</time>
      </trkpt>
      <trkpt lat="42.64028" lon="1.03812">
        <ele>1508.4</ele>
        <time>2022-05-22 20:24:41</time>
      </trkpt>
      <trkpt lat="42.64028" lon="1.03808">
        <ele>1508.6</ele>
        <time>2022-05-22 20:24:42</time>
      </trkpt>
      <trkpt lat="42.64028" lon="1.03805">
        <ele>1508.8</ele>
        <time>2022-05-22 20:24:43</time>
      </trkpt>
      <trkpt lat="42.64028" lon="1.03802">
        <ele>1508.8</ele>
        <time>2022-05-22 20:24:44</time>
      </trkpt>
      <trkpt lat="42.64029" lon="1.03798">
        <ele>1509</ele>
        <time>2022-05-22 20:24:45</time>
      </trkpt>
      <trkpt lat="42.64029" lon="1.03794">
        <ele>1509</ele>
        <time>2022-05-22 20:24:46</time>
      </trkpt>
      <trkpt lat="42.6403" lon="1.03791">
        <ele>1509.2</ele>
        <time>2022-05-22 20:24:47</time>
      </trkpt>
      <trkpt lat="42.6403" lon="1.03787">
        <ele>1509.2</ele>
        <time>2022-05-22 20:24:48</time>
      </trkpt>
      <trkpt lat="42.6403" lon="1.03783">
        <ele>1509.4</ele>
        <time>2022-05-22 20:24:49</time>
      </trkpt>
      <trkpt lat="42.6403" lon="1.03779">
        <ele>1509.6</ele>
        <time>2022-05-22 20:24:50</time>
      </trkpt>
      <trkpt lat="42.6403" lon="1.03775">
        <ele>1509.6</ele>
        <time>2022-05-22 20:24:51</time>
      </trkpt>
      <trkpt lat="42.6403" lon="1.03771">
        <ele>1509.8</ele>
        <time>2022-05-22 20:24:52</time>
      </trkpt>
      <trkpt lat="42.6403" lon="1.03767">
        <ele>1510</ele>
        <time>2022-05-22 20:24:53</time>
      </trkpt>
      <trkpt lat="42.6403" lon="1.03764">
        <ele>1510</ele>
        <time>2022-05-22 20:24:54</time>
      </trkpt>
      <trkpt lat="42.6403" lon="1.03761">
        <ele>1510.2</ele>
        <time>2022-05-22 20:24:55</time>
      </trkpt>
      <trkpt lat="42.6403" lon="1.03758">
        <ele>1510.4</ele>
        <time>2022-05-22 20:24:56</time>
      </trkpt>
      <trkpt lat="42.6403" lon="1.03753">
        <ele>1510.4</ele>
        <time>2022-05-22 20:24:57</time>
      </trkpt>
      <trkpt lat="42.6403" lon="1.0375">
        <ele>1510.6</ele>
        <time>2022-05-22 20:24:58</time>
      </trkpt>
      <trkpt lat="42.64029" lon="1.03746">
        <ele>1510.6</ele>
        <time>2022-05-22 20:24:59</time>
      </trkpt>
      <trkpt lat="42.64029" lon="1.03743">
        <ele>1510.8</ele>
        <time>2022-05-22 20:25:00</time>
      </trkpt>
      <trkpt lat="42.64029" lon="1.03739">
        <ele>1511</ele>
        <time>2022-05-22 20:25:01</time>
      </trkpt>
      <trkpt lat="42.64029" lon="1.03735">
        <ele>1511</ele>
        <time>2022-05-22 20:25:02</time>
      </trkpt>
      <trkpt lat="42.64029" lon="1.03732">
        <ele>1511.2</ele>
        <time>2022-05-22 20:25:03</time>
      </trkpt>
      <trkpt lat="42.64029" lon="1.03729">
        <ele>1511.4</ele>
        <time>2022-05-22 20:25:04</time>
      </trkpt>
      <trkpt lat="42.64029" lon="1.03725">
        <ele>1511.4</ele>
        <time>2022-05-22 20:25:05</time>
      </trkpt>
      <trkpt lat="42.64029" lon="1.03721">
        <ele>1511.6</ele>
        <time>2022-05-22 20:25:06</time>
      </trkpt>
      <trkpt lat="42.64028" lon="1.03718">
        <ele>1511.6</ele>
        <time>2022-05-22 20:25:07</time>
      </trkpt>
      <trkpt lat="42.64028" lon="1.03716">
        <ele>1511.8</ele>
        <time>2022-05-22 20:25:08</time>
      </trkpt>
      <trkpt lat="42.64028" lon="1.03711">
        <ele>1512</ele>
        <time>2022-05-22 20:25:09</time>
      </trkpt>
      <trkpt lat="42.64027" lon="1.03707">
        <ele>1512</ele>
        <time>2022-05-22 20:25:10</time>
      </trkpt>
      <trkpt lat="42.64027" lon="1.03704">
        <ele>1512.2</ele>
        <time>2022-05-22 20:25:11</time>
      </trkpt>
      <trkpt lat="42.64027" lon="1.03702">
        <ele>1512.2</ele>
        <time>2022-05-22 20:25:12</time>
      </trkpt>
      <trkpt lat="42.64026" lon="1.03696">
        <ele>1512.4</ele>
        <time>2022-05-22 20:25:13</time>
      </trkpt>
      <trkpt lat="42.64026" lon="1.03693">
        <ele>1512.4</ele>
        <time>2022-05-22 20:25:14</time>
      </trkpt>
      <trkpt lat="42.64026" lon="1.0369">
        <ele>1512.6</ele>
        <time>2022-05-22 20:25:15</time>
      </trkpt>
      <trkpt lat="42.64026" lon="1.03687">
        <ele>1512.6</ele>
        <time>2022-05-22 20:25:16</time>
      </trkpt>
      <trkpt lat="42.64025" lon="1.03682">
        <ele>1512.8</ele>
        <time>2022-05-22 20:25:17</time>
      </trkpt>
      <trkpt lat="42.64025" lon="1.03678">
        <ele>1512.8</ele>
        <time>2022-05-22 20:25:18</time>
      </trkpt>
      <trkpt lat="42.64024" lon="1.03675">
        <ele>1513</ele>
        <time>2022-05-22 20:25:19</time>
      </trkpt>
      <trkpt lat="42.64024" lon="1.03672">
        <ele>1513.2</ele>
        <time>2022-05-22 20:25:20</time>
      </trkpt>
      <trkpt lat="42.64023" lon="1.03667">
        <ele>1513.2</ele>
        <time>2022-05-22 20:25:21</time>
      </trkpt>
      <trkpt lat="42.64023" lon="1.03664">
        <ele>1513.4</ele>
        <time>2022-05-22 20:25:22</time>
      </trkpt>
      <trkpt lat="42.64022" lon="1.03661">
        <ele>1513.4</ele>
        <time>2022-05-22 20:25:23</time>
      </trkpt>
      <trkpt lat="42.64022" lon="1.03658">
        <ele>1513.6</ele>
        <time>2022-05-22 20:25:24</time>
      </trkpt>
      <trkpt lat="42.64021" lon="1.03653">
        <ele>1513.6</ele>
        <time>2022-05-22 20:25:25</time>
      </trkpt>
      <trkpt lat="42.6402" lon="1.03649">
        <ele>1513.8</ele>
        <time>2022-05-22 20:25:26</time>
      </trkpt>
      <trkpt lat="42.6402" lon="1.03646">
        <ele>1514</ele>
        <time>2022-05-22 20:25:27</time>
      </trkpt>
      <trkpt lat="42.6402" lon="1.03643">
        <ele>1514</ele>
        <time>2022-05-22 20:25:28</time>
      </trkpt>
      <trkpt lat="42.64019" lon="1.03639">
        <ele>1514.2</ele>
        <time>2022-05-22 20:25:29</time>
      </trkpt>
      <trkpt lat="42.64019" lon="1.03636">
        <ele>1514.2</ele>
        <time>2022-05-22 20:25:30</time>
      </trkpt>
      <trkpt lat="42.64019" lon="1.03633">
        <ele>1514.4</ele>
        <time>2022-05-22 20:25:31</time>
      </trkpt>
      <trkpt lat="42.64018" lon="1.0363">
        <ele>1514.4</ele>
        <time>2022-05-22 20:25:32</time>
      </trkpt>
      <trkpt lat="42.64018" lon="1.03625">
        <ele>1514.6</ele>
        <time>2022-05-22 20:25:33</time>
      </trkpt>
      <trkpt lat="42.64018" lon="1.03622">
        <ele>1514.8</ele>
        <time>2022-05-22 20:25:34</time>
      </trkpt>
      <trkpt lat="42.64017" lon="1.03619">
        <ele>1514.8</ele>
        <time>2022-05-22 20:25:35</time>
      </trkpt>
      <trkpt lat="42.64017" lon="1.03616">
        <ele>1515</ele>
        <time>2022-05-22 20:25:36</time>
      </trkpt>
      <trkpt lat="42.64017" lon="1.03613">
        <ele>1515</ele>
        <time>2022-05-22 20:25:37</time>
      </trkpt>
      <trkpt lat="42.64016" lon="1.0361">
        <ele>1515.2</ele>
        <time>2022-05-22 20:25:38</time>
      </trkpt>
      <trkpt lat="42.64016" lon="1.03607">
        <ele>1515.4</ele>
        <time>2022-05-22 20:25:39</time>
      </trkpt>
      <trkpt lat="42.64016" lon="1.03605">
        <ele>1515.6</ele>
        <time>2022-05-22 20:25:40</time>
      </trkpt>
      <trkpt lat="42.64016" lon="1.03603">
        <ele>1515.6</ele>
        <time>2022-05-22 20:25:41</time>
      </trkpt>
      <trkpt lat="42.64015" lon="1.03599">
        <ele>1515.8</ele>
        <time>2022-05-22 20:25:42</time>
      </trkpt>
      <trkpt lat="42.64015" lon="1.03596">
        <ele>1516</ele>
        <time>2022-05-22 20:25:43</time>
      </trkpt>
      <trkpt lat="42.64014" lon="1.03595">
        <ele>1516</ele>
        <time>2022-05-22 20:25:44</time>
      </trkpt>
      <trkpt lat="42.64014" lon="1.03591">
        <ele>1516.2</ele>
        <time>2022-05-22 20:25:45</time>
      </trkpt>
      <trkpt lat="42.64013" lon="1.03588">
        <ele>1516.4</ele>
        <time>2022-05-22 20:25:46</time>
      </trkpt>
      <trkpt lat="42.64013" lon="1.03585">
        <ele>1516.6</ele>
        <time>2022-05-22 20:25:47</time>
      </trkpt>
      <trkpt lat="42.64012" lon="1.03582">
        <ele>1516.6</ele>
        <time>2022-05-22 20:25:48</time>
      </trkpt>
      <trkpt lat="42.64012" lon="1.03579">
        <ele>1516.8</ele>
        <time>2022-05-22 20:25:49</time>
      </trkpt>
      <trkpt lat="42.64011" lon="1.03577">
        <ele>1517</ele>
        <time>2022-05-22 20:25:50</time>
      </trkpt>
      <trkpt lat="42.64011" lon="1.03575">
        <ele>1517</ele>
        <time>2022-05-22 20:25:51</time>
      </trkpt>
      <trkpt lat="42.64011" lon="1.03572">
        <ele>1517.2</ele>
        <time>2022-05-22 20:25:52</time>
      </trkpt>
      <trkpt lat="42.64011" lon="1.03569">
        <ele>1517.4</ele>
        <time>2022-05-22 20:25:53</time>
      </trkpt>
      <trkpt lat="42.64011" lon="1.03567">
        <ele>1517.4</ele>
        <time>2022-05-22 20:25:54</time>
      </trkpt>
      <trkpt lat="42.64011" lon="1.03565">
        <ele>1517.6</ele>
        <time>2022-05-22 20:25:55</time>
      </trkpt>
      <trkpt lat="42.64011" lon="1.03563">
        <ele>1517.8</ele>
        <time>2022-05-22 20:25:56</time>
      </trkpt>
      <trkpt lat="42.64011" lon="1.0356">
        <ele>1518</ele>
        <time>2022-05-22 20:25:57</time>
      </trkpt>
      <trkpt lat="42.6401" lon="1.03558">
        <ele>1518.2</ele>
        <time>2022-05-22 20:25:58</time>
      </trkpt>
      <trkpt lat="42.6401" lon="1.03555">
        <ele>1518.4</ele>
        <time>2022-05-22 20:25:59</time>
      </trkpt>
      <trkpt lat="42.6401" lon="1.03553">
        <ele>1518.6</ele>
        <time>2022-05-22 20:26:00</time>
      </trkpt>
      <trkpt lat="42.6401" lon="1.03551">
        <ele>1518.8</ele>
        <time>2022-05-22 20:26:01</time>
      </trkpt>
      <trkpt lat="42.6401" lon="1.03549">
        <ele>1519</ele>
        <time>2022-05-22 20:26:02</time>
      </trkpt>
      <trkpt lat="42.6401" lon="1.03545">
        <ele>1519.2</ele>
        <time>2022-05-22 20:26:03</time>
      </trkpt>
      <trkpt lat="42.6401" lon="1.03543">
        <ele>1519.4</ele>
        <time>2022-05-22 20:26:04</time>
      </trkpt>
      <trkpt lat="42.6401" lon="1.0354">
        <ele>1519.4</ele>
        <time>2022-05-22 20:26:05</time>
      </trkpt>
      <trkpt lat="42.64009" lon="1.03538">
        <ele>1519.6</ele>
        <time>2022-05-22 20:26:06</time>
      </trkpt>
      <trkpt lat="42.64009" lon="1.03535">
        <ele>1519.8</ele>
        <time>2022-05-22 20:26:07</time>
      </trkpt>
      <trkpt lat="42.64008" lon="1.03532">
        <ele>1520</ele>
        <time>2022-05-22 20:26:08</time>
      </trkpt>
      <trkpt lat="42.64008" lon="1.03529">
        <ele>1520.2</ele>
        <time>2022-05-22 20:26:09</time>
      </trkpt>
      <trkpt lat="42.64008" lon="1.03526">
        <ele>1520.4</ele>
        <time>2022-05-22 20:26:10</time>
      </trkpt>
      <trkpt lat="42.64008" lon="1.03524">
        <ele>1520.6</ele>
        <time>2022-05-22 20:26:11</time>
      </trkpt>
      <trkpt lat="42.64008" lon="1.03521">
        <ele>1520.8</ele>
        <time>2022-05-22 20:26:12</time>
      </trkpt>
      <trkpt lat="42.64007" lon="1.03517">
        <ele>1521</ele>
        <time>2022-05-22 20:26:13</time>
      </trkpt>
      <trkpt lat="42.64007" lon="1.03514">
        <ele>1521.2</ele>
        <time>2022-05-22 20:26:14</time>
      </trkpt>
      <trkpt lat="42.64007" lon="1.03512">
        <ele>1521.4</ele>
        <time>2022-05-22 20:26:15</time>
      </trkpt>
      <trkpt lat="42.64006" lon="1.03509">
        <ele>1521.6</ele>
        <time>2022-05-22 20:26:16</time>
      </trkpt>
      <trkpt lat="42.64006" lon="1.03506">
        <ele>1521.8</ele>
        <time>2022-05-22 20:26:17</time>
      </trkpt>
      <trkpt lat="42.64006" lon="1.03503">
        <ele>1522</ele>
        <time>2022-05-22 20:26:18</time>
      </trkpt>
      <trkpt lat="42.64006" lon="1.03501">
        <ele>1522.2</ele>
        <time>2022-05-22 20:26:19</time>
      </trkpt>
      <trkpt lat="42.64006" lon="1.03499">
        <ele>1522.2</ele>
        <time>2022-05-22 20:26:20</time>
      </trkpt>
      <trkpt lat="42.64006" lon="1.03497">
        <ele>1522.4</ele>
        <time>2022-05-22 20:26:21</time>
      </trkpt>
      <trkpt lat="42.64004" lon="1.03493">
        <ele>1522.6</ele>
        <time>2022-05-22 20:26:22</time>
      </trkpt>
      <trkpt lat="42.64004" lon="1.0349">
        <ele>1522.8</ele>
        <time>2022-05-22 20:26:23</time>
      </trkpt>
      <trkpt lat="42.64004" lon="1.03488">
        <ele>1523</ele>
        <time>2022-05-22 20:26:24</time>
      </trkpt>
      <trkpt lat="42.64003" lon="1.03486">
        <ele>1523.2</ele>
        <time>2022-05-22 20:26:25</time>
      </trkpt>
      <trkpt lat="42.64003" lon="1.03484">
        <ele>1523.4</ele>
        <time>2022-05-22 20:26:26</time>
      </trkpt>
      <trkpt lat="42.64003" lon="1.03481">
        <ele>1523.6</ele>
        <time>2022-05-22 20:26:27</time>
      </trkpt>
      <trkpt lat="42.64002" lon="1.03478">
        <ele>1523.8</ele>
        <time>2022-05-22 20:26:28</time>
      </trkpt>
      <trkpt lat="42.64002" lon="1.03476">
        <ele>1524</ele>
        <time>2022-05-22 20:26:29</time>
      </trkpt>
      <trkpt lat="42.64002" lon="1.03474">
        <ele>1524</ele>
        <time>2022-05-22 20:26:30</time>
      </trkpt>
      <trkpt lat="42.64002" lon="1.03472">
        <ele>1524.2</ele>
        <time>2022-05-22 20:26:31</time>
      </trkpt>
      <trkpt lat="42.64001" lon="1.03468">
        <ele>1524.4</ele>
        <time>2022-05-22 20:26:32</time>
      </trkpt>
      <trkpt lat="42.64001" lon="1.03466">
        <ele>1524.6</ele>
        <time>2022-05-22 20:26:33</time>
      </trkpt>
      <trkpt lat="42.64001" lon="1.03463">
        <ele>1524.8</ele>
        <time>2022-05-22 20:26:34</time>
      </trkpt>
      <trkpt lat="42.64001" lon="1.03461">
        <ele>1524.8</ele>
        <time>2022-05-22 20:26:35</time>
      </trkpt>
      <trkpt lat="42.64001" lon="1.0346">
        <ele>1525</ele>
        <time>2022-05-22 20:26:36</time>
      </trkpt>
      <trkpt lat="42.64" lon="1.03456">
        <ele>1525.2</ele>
        <time>2022-05-22 20:26:37</time>
      </trkpt>
      <trkpt lat="42.64" lon="1.03454">
        <ele>1525.4</ele>
        <time>2022-05-22 20:26:38</time>
      </trkpt>
      <trkpt lat="42.63999" lon="1.03452">
        <ele>1525.6</ele>
        <time>2022-05-22 20:26:39</time>
      </trkpt>
      <trkpt lat="42.63999" lon="1.0345">
        <ele>1525.8</ele>
        <time>2022-05-22 20:26:40</time>
      </trkpt>
      <trkpt lat="42.63999" lon="1.03448">
        <ele>1525.8</ele>
        <time>2022-05-22 20:26:41</time>
      </trkpt>
      <trkpt lat="42.63998" lon="1.03446">
        <ele>1526</ele>
        <time>2022-05-22 20:26:42</time>
      </trkpt>
      <trkpt lat="42.63997" lon="1.03443">
        <ele>1526.2</ele>
        <time>2022-05-22 20:26:43</time>
      </trkpt>
      <trkpt lat="42.63997" lon="1.0344">
        <ele>1526.4</ele>
        <time>2022-05-22 20:26:44</time>
      </trkpt>
      <trkpt lat="42.63997" lon="1.03438">
        <ele>1526.6</ele>
        <time>2022-05-22 20:26:45</time>
      </trkpt>
      <trkpt lat="42.63996" lon="1.03436">
        <ele>1526.8</ele>
        <time>2022-05-22 20:26:46</time>
      </trkpt>
      <trkpt lat="42.63996" lon="1.03433">
        <ele>1527</ele>
        <time>2022-05-22 20:26:47</time>
      </trkpt>
      <trkpt lat="42.63996" lon="1.03431">
        <ele>1527.2</ele>
        <time>2022-05-22 20:26:48</time>
      </trkpt>
      <trkpt lat="42.63995" lon="1.03428">
        <ele>1527.4</ele>
        <time>2022-05-22 20:26:49</time>
      </trkpt>
      <trkpt lat="42.63994" lon="1.03425">
        <ele>1527.4</ele>
        <time>2022-05-22 20:26:50</time>
      </trkpt>
      <trkpt lat="42.63994" lon="1.03422">
        <ele>1527.6</ele>
        <time>2022-05-22 20:26:51</time>
      </trkpt>
      <trkpt lat="42.63993" lon="1.0342">
        <ele>1527.8</ele>
        <time>2022-05-22 20:26:52</time>
      </trkpt>
      <trkpt lat="42.63993" lon="1.03418">
        <ele>1528</ele>
        <time>2022-05-22 20:26:53</time>
      </trkpt>
      <trkpt lat="42.63993" lon="1.03415">
        <ele>1528.2</ele>
        <time>2022-05-22 20:26:54</time>
      </trkpt>
      <trkpt lat="42.63993" lon="1.03412">
        <ele>1528.4</ele>
        <time>2022-05-22 20:26:55</time>
      </trkpt>
      <trkpt lat="42.63992" lon="1.03409">
        <ele>1528.4</ele>
        <time>2022-05-22 20:26:56</time>
      </trkpt>
      <trkpt lat="42.63992" lon="1.03407">
        <ele>1528.6</ele>
        <time>2022-05-22 20:26:57</time>
      </trkpt>
      <trkpt lat="42.63992" lon="1.03405">
        <ele>1528.8</ele>
        <time>2022-05-22 20:26:58</time>
      </trkpt>
      <trkpt lat="42.63993" lon="1.03402">
        <ele>1529</ele>
        <time>2022-05-22 20:26:59</time>
      </trkpt>
      <trkpt lat="42.63993" lon="1.03399">
        <ele>1529.2</ele>
        <time>2022-05-22 20:27:00</time>
      </trkpt>
      <trkpt lat="42.63993" lon="1.03397">
        <ele>1529.2</ele>
        <time>2022-05-22 20:27:01</time>
      </trkpt>
      <trkpt lat="42.63993" lon="1.03394">
        <ele>1529.4</ele>
        <time>2022-05-22 20:27:02</time>
      </trkpt>
      <trkpt lat="42.63993" lon="1.03392">
        <ele>1529.6</ele>
        <time>2022-05-22 20:27:03</time>
      </trkpt>
      <trkpt lat="42.63993" lon="1.0339">
        <ele>1529.6</ele>
        <time>2022-05-22 20:27:04</time>
      </trkpt>
      <trkpt lat="42.63993" lon="1.03387">
        <ele>1529.8</ele>
        <time>2022-05-22 20:27:05</time>
      </trkpt>
      <trkpt lat="42.63993" lon="1.03385">
        <ele>1530</ele>
        <time>2022-05-22 20:27:06</time>
      </trkpt>
      <trkpt lat="42.63993" lon="1.03383">
        <ele>1530</ele>
        <time>2022-05-22 20:27:07</time>
      </trkpt>
      <trkpt lat="42.63993" lon="1.03381">
        <ele>1530.2</ele>
        <time>2022-05-22 20:27:08</time>
      </trkpt>
      <trkpt lat="42.63993" lon="1.03379">
        <ele>1530.4</ele>
        <time>2022-05-22 20:27:09</time>
      </trkpt>
      <trkpt lat="42.63993" lon="1.03377">
        <ele>1530.6</ele>
        <time>2022-05-22 20:27:10</time>
      </trkpt>
      <trkpt lat="42.63993" lon="1.03374">
        <ele>1530.8</ele>
        <time>2022-05-22 20:27:11</time>
      </trkpt>
      <trkpt lat="42.63993" lon="1.03372">
        <ele>1530.8</ele>
        <time>2022-05-22 20:27:12</time>
      </trkpt>
      <trkpt lat="42.63992" lon="1.03369">
        <ele>1531</ele>
        <time>2022-05-22 20:27:13</time>
      </trkpt>
      <trkpt lat="42.63992" lon="1.03367">
        <ele>1531.2</ele>
        <time>2022-05-22 20:27:14</time>
      </trkpt>
      <trkpt lat="42.63992" lon="1.03365">
        <ele>1531.2</ele>
        <time>2022-05-22 20:27:15</time>
      </trkpt>
      <trkpt lat="42.63992" lon="1.03363">
        <ele>1531.4</ele>
        <time>2022-05-22 20:27:16</time>
      </trkpt>
      <trkpt lat="42.63993" lon="1.03361">
        <ele>1531.4</ele>
        <time>2022-05-22 20:27:17</time>
      </trkpt>
      <trkpt lat="42.63993" lon="1.03358">
        <ele>1531.6</ele>
        <time>2022-05-22 20:27:18</time>
      </trkpt>
      <trkpt lat="42.63993" lon="1.03356">
        <ele>1531.8</ele>
        <time>2022-05-22 20:27:19</time>
      </trkpt>
      <trkpt lat="42.63993" lon="1.03354">
        <ele>1531.8</ele>
        <time>2022-05-22 20:27:20</time>
      </trkpt>
      <trkpt lat="42.63993" lon="1.03352">
        <ele>1532</ele>
        <time>2022-05-22 20:27:21</time>
      </trkpt>
      <trkpt lat="42.63994" lon="1.03349">
        <ele>1532.2</ele>
        <time>2022-05-22 20:27:22</time>
      </trkpt>
      <trkpt lat="42.63994" lon="1.03347">
        <ele>1532.4</ele>
        <time>2022-05-22 20:27:23</time>
      </trkpt>
      <trkpt lat="42.63994" lon="1.03344">
        <ele>1532.6</ele>
        <time>2022-05-22 20:27:24</time>
      </trkpt>
      <trkpt lat="42.63994" lon="1.03342">
        <ele>1532.8</ele>
        <time>2022-05-22 20:27:25</time>
      </trkpt>
      <trkpt lat="42.63994" lon="1.03339">
        <ele>1533</ele>
        <time>2022-05-22 20:27:26</time>
      </trkpt>
      <trkpt lat="42.63994" lon="1.03337">
        <ele>1533.2</ele>
        <time>2022-05-22 20:27:27</time>
      </trkpt>
      <trkpt lat="42.63994" lon="1.03335">
        <ele>1533.4</ele>
        <time>2022-05-22 20:27:28</time>
      </trkpt>
      <trkpt lat="42.63995" lon="1.03332">
        <ele>1533.6</ele>
        <time>2022-05-22 20:27:29</time>
      </trkpt>
      <trkpt lat="42.63994" lon="1.03329">
        <ele>1533.8</ele>
        <time>2022-05-22 20:27:30</time>
      </trkpt>
      <trkpt lat="42.63994" lon="1.03327">
        <ele>1533.8</ele>
        <time>2022-05-22 20:27:31</time>
      </trkpt>
      <trkpt lat="42.63994" lon="1.03324">
        <ele>1534.2</ele>
        <time>2022-05-22 20:27:32</time>
      </trkpt>
      <trkpt lat="42.63995" lon="1.03322">
        <ele>1534.4</ele>
        <time>2022-05-22 20:27:33</time>
      </trkpt>
      <trkpt lat="42.63995" lon="1.0332">
        <ele>1534.4</ele>
        <time>2022-05-22 20:27:34</time>
      </trkpt>
      <trkpt lat="42.63996" lon="1.03317">
        <ele>1534.6</ele>
        <time>2022-05-22 20:27:35</time>
      </trkpt>
      <trkpt lat="42.63996" lon="1.03315">
        <ele>1534.8</ele>
        <time>2022-05-22 20:27:36</time>
      </trkpt>
      <trkpt lat="42.63996" lon="1.03312">
        <ele>1534.8</ele>
        <time>2022-05-22 20:27:37</time>
      </trkpt>
      <trkpt lat="42.63997" lon="1.0331">
        <ele>1535</ele>
        <time>2022-05-22 20:27:38</time>
      </trkpt>
      <trkpt lat="42.63998" lon="1.03308">
        <ele>1535.2</ele>
        <time>2022-05-22 20:27:39</time>
      </trkpt>
      <trkpt lat="42.63998" lon="1.03305">
        <ele>1535.4</ele>
        <time>2022-05-22 20:27:40</time>
      </trkpt>
      <trkpt lat="42.63999" lon="1.03303">
        <ele>1535.4</ele>
        <time>2022-05-22 20:27:41</time>
      </trkpt>
      <trkpt lat="42.64" lon="1.03301">
        <ele>1535.6</ele>
        <time>2022-05-22 20:27:42</time>
      </trkpt>
      <trkpt lat="42.64" lon="1.03298">
        <ele>1535.8</ele>
        <time>2022-05-22 20:27:43</time>
      </trkpt>
      <trkpt lat="42.64001" lon="1.03296">
        <ele>1536</ele>
        <time>2022-05-22 20:27:44</time>
      </trkpt>
      <trkpt lat="42.64001" lon="1.03294">
        <ele>1536.2</ele>
        <time>2022-05-22 20:27:45</time>
      </trkpt>
      <trkpt lat="42.64001" lon="1.03292">
        <ele>1536.2</ele>
        <time>2022-05-22 20:27:46</time>
      </trkpt>
      <trkpt lat="42.64002" lon="1.03289">
        <ele>1536.4</ele>
        <time>2022-05-22 20:27:47</time>
      </trkpt>
      <trkpt lat="42.64003" lon="1.03287">
        <ele>1536.6</ele>
        <time>2022-05-22 20:27:48</time>
      </trkpt>
      <trkpt lat="42.64003" lon="1.03285">
        <ele>1536.8</ele>
        <time>2022-05-22 20:27:49</time>
      </trkpt>
      <trkpt lat="42.64003" lon="1.03284">
        <ele>1537</ele>
        <time>2022-05-22 20:27:50</time>
      </trkpt>
      <trkpt lat="42.64004" lon="1.03281">
        <ele>1537</ele>
        <time>2022-05-22 20:27:51</time>
      </trkpt>
      <trkpt lat="42.64005" lon="1.03278">
        <ele>1537.2</ele>
        <time>2022-05-22 20:27:52</time>
      </trkpt>
      <trkpt lat="42.64005" lon="1.03276">
        <ele>1537.4</ele>
        <time>2022-05-22 20:27:53</time>
      </trkpt>
      <trkpt lat="42.64005" lon="1.03273">
        <ele>1537.6</ele>
        <time>2022-05-22 20:27:54</time>
      </trkpt>
      <trkpt lat="42.64006" lon="1.03271">
        <ele>1537.8</ele>
        <time>2022-05-22 20:27:55</time>
      </trkpt>
      <trkpt lat="42.64006" lon="1.0327">
        <ele>1538</ele>
        <time>2022-05-22 20:27:56</time>
      </trkpt>
      <trkpt lat="42.64007" lon="1.03266">
        <ele>1538.2</ele>
        <time>2022-05-22 20:27:57</time>
      </trkpt>
      <trkpt lat="42.64007" lon="1.03264">
        <ele>1538.2</ele>
        <time>2022-05-22 20:27:58</time>
      </trkpt>
      <trkpt lat="42.64008" lon="1.03262">
        <ele>1538.4</ele>
        <time>2022-05-22 20:27:59</time>
      </trkpt>
      <trkpt lat="42.64009" lon="1.0326">
        <ele>1538.6</ele>
        <time>2022-05-22 20:28:00</time>
      </trkpt>
      <trkpt lat="42.64009" lon="1.03258">
        <ele>1538.8</ele>
        <time>2022-05-22 20:28:01</time>
      </trkpt>
      <trkpt lat="42.6401" lon="1.03256">
        <ele>1539</ele>
        <time>2022-05-22 20:28:02</time>
      </trkpt>
      <trkpt lat="42.64011" lon="1.03254">
        <ele>1539.2</ele>
        <time>2022-05-22 20:28:03</time>
      </trkpt>
      <trkpt lat="42.64011" lon="1.03251">
        <ele>1539.4</ele>
        <time>2022-05-22 20:28:04</time>
      </trkpt>
      <trkpt lat="42.64012" lon="1.03249">
        <ele>1539.6</ele>
        <time>2022-05-22 20:28:05</time>
      </trkpt>
      <trkpt lat="42.64013" lon="1.03247">
        <ele>1539.8</ele>
        <time>2022-05-22 20:28:06</time>
      </trkpt>
      <trkpt lat="42.64014" lon="1.03244">
        <ele>1540</ele>
        <time>2022-05-22 20:28:07</time>
      </trkpt>
      <trkpt lat="42.64015" lon="1.03242">
        <ele>1540.2</ele>
        <time>2022-05-22 20:28:08</time>
      </trkpt>
      <trkpt lat="42.64016" lon="1.0324">
        <ele>1540.4</ele>
        <time>2022-05-22 20:28:09</time>
      </trkpt>
      <trkpt lat="42.64017" lon="1.03238">
        <ele>1540.6</ele>
        <time>2022-05-22 20:28:10</time>
      </trkpt>
      <trkpt lat="42.64018" lon="1.03236">
        <ele>1540.8</ele>
        <time>2022-05-22 20:28:11</time>
      </trkpt>
      <trkpt lat="42.64019" lon="1.03234">
        <ele>1541</ele>
        <time>2022-05-22 20:28:12</time>
      </trkpt>
      <trkpt lat="42.6402" lon="1.03233">
        <ele>1541.2</ele>
        <time>2022-05-22 20:28:13</time>
      </trkpt>
      <trkpt lat="42.64021" lon="1.03231">
        <ele>1541.4</ele>
        <time>2022-05-22 20:28:14</time>
      </trkpt>
      <trkpt lat="42.64022" lon="1.03229">
        <ele>1541.6</ele>
        <time>2022-05-22 20:28:15</time>
      </trkpt>
      <trkpt lat="42.64023" lon="1.03228">
        <ele>1541.6</ele>
        <time>2022-05-22 20:28:16</time>
      </trkpt>
      <trkpt lat="42.64024" lon="1.03226">
        <ele>1541.8</ele>
        <time>2022-05-22 20:28:17</time>
      </trkpt>
      <trkpt lat="42.64025" lon="1.03224">
        <ele>1542</ele>
        <time>2022-05-22 20:28:18</time>
      </trkpt>
      <trkpt lat="42.64025" lon="1.03222">
        <ele>1542.2</ele>
        <time>2022-05-22 20:28:19</time>
      </trkpt>
      <trkpt lat="42.64026" lon="1.0322">
        <ele>1542.4</ele>
        <time>2022-05-22 20:28:20</time>
      </trkpt>
      <trkpt lat="42.64027" lon="1.03218">
        <ele>1542.6</ele>
        <time>2022-05-22 20:28:21</time>
      </trkpt>
      <trkpt lat="42.64029" lon="1.03216">
        <ele>1542.8</ele>
        <time>2022-05-22 20:28:22</time>
      </trkpt>
      <trkpt lat="42.64029" lon="1.03214">
        <ele>1542.8</ele>
        <time>2022-05-22 20:28:23</time>
      </trkpt>
      <trkpt lat="42.6403" lon="1.03212">
        <ele>1543</ele>
        <time>2022-05-22 20:28:24</time>
      </trkpt>
      <trkpt lat="42.64031" lon="1.0321">
        <ele>1543.2</ele>
        <time>2022-05-22 20:28:25</time>
      </trkpt>
      <trkpt lat="42.64031" lon="1.03208">
        <ele>1543.4</ele>
        <time>2022-05-22 20:28:26</time>
      </trkpt>
      <trkpt lat="42.64032" lon="1.03206">
        <ele>1543.4</ele>
        <time>2022-05-22 20:28:27</time>
      </trkpt>
      <trkpt lat="42.64033" lon="1.03205">
        <ele>1543.6</ele>
        <time>2022-05-22 20:28:28</time>
      </trkpt>
      <trkpt lat="42.64034" lon="1.03203">
        <ele>1543.8</ele>
        <time>2022-05-22 20:28:29</time>
      </trkpt>
      <trkpt lat="42.64035" lon="1.032">
        <ele>1544</ele>
        <time>2022-05-22 20:28:30</time>
      </trkpt>
      <trkpt lat="42.64036" lon="1.03199">
        <ele>1544.2</ele>
        <time>2022-05-22 20:28:31</time>
      </trkpt>
      <trkpt lat="42.64037" lon="1.03197">
        <ele>1544.2</ele>
        <time>2022-05-22 20:28:32</time>
      </trkpt>
      <trkpt lat="42.64038" lon="1.03195">
        <ele>1544.4</ele>
        <time>2022-05-22 20:28:33</time>
      </trkpt>
      <trkpt lat="42.64038" lon="1.03193">
        <ele>1544.6</ele>
        <time>2022-05-22 20:28:34</time>
      </trkpt>
      <trkpt lat="42.64039" lon="1.03191">
        <ele>1544.8</ele>
        <time>2022-05-22 20:28:35</time>
      </trkpt>
      <trkpt lat="42.64041" lon="1.03189">
        <ele>1544.8</ele>
        <time>2022-05-22 20:28:36</time>
      </trkpt>
      <trkpt lat="42.64041" lon="1.03187">
        <ele>1545</ele>
        <time>2022-05-22 20:28:37</time>
      </trkpt>
      <trkpt lat="42.64042" lon="1.03185">
        <ele>1545.2</ele>
        <time>2022-05-22 20:28:38</time>
      </trkpt>
      <trkpt lat="42.64043" lon="1.03183">
        <ele>1545.4</ele>
        <time>2022-05-22 20:28:39</time>
      </trkpt>
      <trkpt lat="42.64043" lon="1.03182">
        <ele>1545.6</ele>
        <time>2022-05-22 20:28:40</time>
      </trkpt>
      <trkpt lat="42.64044" lon="1.0318">
        <ele>1545.6</ele>
        <time>2022-05-22 20:28:41</time>
      </trkpt>
      <trkpt lat="42.64045" lon="1.03179">
        <ele>1545.8</ele>
        <time>2022-05-22 20:28:42</time>
      </trkpt>
      <trkpt lat="42.64101" lon="1.03048">
        <time>2022-05-22 20:31:52</time>
      </trkpt>
      <trkpt lat="42.641" lon="1.03047">
        <time>2022-05-22 20:31:53</time>
      </trkpt>
      <trkpt lat="42.641" lon="1.03046">
        <time>2022-05-22 20:31:54</time>
      </trkpt>
      <trkpt lat="42.641" lon="1.03045">
        <time>2022-05-22 20:31:55</time>
      </trkpt>
      <trkpt lat="42.64101" lon="1.03043">
        <time>2022-05-22 20:31:56</time>
      </trkpt>
      <trkpt lat="42.64102" lon="1.03042">
        <time>2022-05-22 20:31:57</time>
      </trkpt>
      <trkpt lat="42.64103" lon="1.03041">
        <time>2022-05-22 20:31:58</time>
      </trkpt>
      <trkpt lat="42.64104" lon="1.0304">
        <time>2022-05-22 20:31:59</time>
      </trkpt>
      <trkpt lat="42.64105" lon="1.03039">
        <time>2022-05-22 20:32:00</time>
      </trkpt>
      <trkpt lat="42.64105" lon="1.03037">
        <time>2022-05-22 20:32:01</time>
      </trkpt>
      <trkpt lat="42.64106" lon="1.03036">
        <time>2022-05-22 20:32:02</time>
      </trkpt>
      <trkpt lat="42.64107" lon="1.03034">
        <time>2022-05-22 20:32:03</time>
      </trkpt>
      <trkpt lat="42.64108" lon="1.03032">
        <time>2022-05-22 20:32:04</time>
      </trkpt>
      <trkpt lat="42.64109" lon="1.0303">
        <time>2022-05-22 20:32:05</time>
      </trkpt>
      <trkpt lat="42.6411" lon="1.03028">
        <time>2022-05-22 20:32:06</time>
      </trkpt>
      <trkpt lat="42.6411" lon="1.03027">
        <time>2022-05-22 20:32:07</time>
      </trkpt>
      <trkpt lat="42.64111" lon="1.03025">
        <time>2022-05-22 20:32:08</time>
      </trkpt>
      <trkpt lat="42.64113" lon="1.03023">
        <time>2022-05-22 20:32:09</time>
      </trkpt>
      <trkpt lat="42.64114" lon="1.03021">
        <time>2022-05-22 20:32:10</time>
      </trkpt>
      <trkpt lat="42.64115" lon="1.03019">
        <time>2022-05-22 20:32:11</time>
      </trkpt>
      <trkpt lat="42.64115" lon="1.03017">
        <time>2022-05-22 20:32:12</time>
      </trkpt>
      <trkpt lat="42.64116" lon="1.03015">
        <time>2022-05-22 20:32:13</time>
      </trkpt>
      <trkpt lat="42.64117" lon="1.03013">
        <time>2022-05-22 20:32:14</time>
      </trkpt>
      <trkpt lat="42.64118" lon="1.03011">
        <time>2022-05-22 20:32:15</time>
      </trkpt>
      <trkpt lat="42.64119" lon="1.03009">
        <time>2022-05-22 20:32:16</time>
      </trkpt>
      <trkpt lat="42.6412" lon="1.03007">
        <time>2022-05-22 20:32:17</time>
      </trkpt>
      <trkpt lat="42.64121" lon="1.03005">
        <time>2022-05-22 20:32:18</time>
      </trkpt>
      <trkpt lat="42.64122" lon="1.03003">
        <time>2022-05-22 20:32:19</time>
      </trkpt>
      <trkpt lat="42.64123" lon="1.03002">
        <time>2022-05-22 20:32:20</time>
      </trkpt>
      <trkpt lat="42.64124" lon="1.02999">
        <time>2022-05-22 20:32:21</time>
      </trkpt>
      <trkpt lat="42.64125" lon="1.02997">
        <time>2022-05-22 20:32:22</time>
      </trkpt>
      <trkpt lat="42.64126" lon="1.02995">
        <time>2022-05-22 20:32:23</time>
      </trkpt>
      <trkpt lat="42.64127" lon="1.02993">
        <time>2022-05-22 20:32:24</time>
      </trkpt>
      <trkpt lat="42.64128" lon="1.02991">
        <time>2022-05-22 20:32:25</time>
      </trkpt>
      <trkpt lat="42.6413" lon="1.02989">
        <time>2022-05-22 20:32:26</time>
      </trkpt>
      <trkpt lat="42.64131" lon="1.02988">
        <time>2022-05-22 20:32:27</time>
      </trkpt>
      <trkpt lat="42.64131" lon="1.02986">
        <time>2022-05-22 20:32:28</time>
      </trkpt>
      <trkpt lat="42.64132" lon="1.02984">
        <time>2022-05-22 20:32:29</time>
      </trkpt>
      <trkpt lat="42.64133" lon="1.02983">
        <time>2022-05-22 20:32:30</time>
      </trkpt>
      <trkpt lat="42.64134" lon="1.02981">
        <time>2022-05-22 20:32:31</time>
      </trkpt>
      <trkpt lat="42.64134" lon="1.0298">
        <time>2022-05-22 20:32:32</time>
      </trkpt>
      <trkpt lat="42.64135" lon="1.02978">
        <time>2022-05-22 20:32:33</time>
      </trkpt>
      <trkpt lat="42.64136" lon="1.02976">
        <time>2022-05-22 20:32:34</time>
      </trkpt>
      <trkpt lat="42.64136" lon="1.02974">
        <time>2022-05-22 20:32:35</time>
      </trkpt>
      <trkpt lat="42.64137" lon="1.02973">
        <time>2022-05-22 20:32:36</time>
      </trkpt>
      <trkpt lat="42.64138" lon="1.02971">
        <time>2022-05-22 20:32:37</time>
      </trkpt>
      <trkpt lat="42.64139" lon="1.02969">
        <ele>1552</ele>
        <time>2022-05-22 20:32:38</time>
      </trkpt>
      <trkpt lat="42.6414" lon="1.02967">
        <ele>1552.2</ele>
        <time>2022-05-22 20:32:39</time>
      </trkpt>
      <trkpt lat="42.64141" lon="1.02966">
        <ele>1552.2</ele>
        <time>2022-05-22 20:32:40</time>
      </trkpt>
      <trkpt lat="42.64142" lon="1.02965">
        <ele>1552.2</ele>
        <time>2022-05-22 20:32:41</time>
      </trkpt>
      <trkpt lat="42.64143" lon="1.02963">
        <ele>1552.2</ele>
        <time>2022-05-22 20:32:42</time>
      </trkpt>
      <trkpt lat="42.64144" lon="1.02961">
        <ele>1552.4</ele>
        <time>2022-05-22 20:32:43</time>
      </trkpt>
      <trkpt lat="42.64144" lon="1.02959">
        <ele>1552.6</ele>
        <time>2022-05-22 20:32:44</time>
      </trkpt>
      <trkpt lat="42.64145" lon="1.02957">
        <ele>1552.6</ele>
        <time>2022-05-22 20:32:45</time>
      </trkpt>
      <trkpt lat="42.64147" lon="1.02955">
        <ele>1552.8</ele>
        <time>2022-05-22 20:32:46</time>
      </trkpt>
      <trkpt lat="42.64147" lon="1.02954">
        <ele>1553</ele>
        <time>2022-05-22 20:32:47</time>
      </trkpt>
      <trkpt lat="42.64148" lon="1.02952">
        <ele>1553</ele>
        <time>2022-05-22 20:32:48</time>
      </trkpt>
      <trkpt lat="42.64148" lon="1.02951">
        <ele>1553.2</ele>
        <time>2022-05-22 20:32:49</time>
      </trkpt>
      <trkpt lat="42.6415" lon="1.02948">
        <ele>1553.4</ele>
        <time>2022-05-22 20:32:50</time>
      </trkpt>
      <trkpt lat="42.64151" lon="1.02946">
        <ele>1553.6</ele>
        <time>2022-05-22 20:32:51</time>
      </trkpt>
      <trkpt lat="42.64152" lon="1.02945">
        <ele>1553.8</ele>
        <time>2022-05-22 20:32:52</time>
      </trkpt>
      <trkpt lat="42.64153" lon="1.02943">
        <ele>1553.8</ele>
        <time>2022-05-22 20:32:53</time>
      </trkpt>
      <trkpt lat="42.64154" lon="1.02941">
        <ele>1554</ele>
        <time>2022-05-22 20:32:54</time>
      </trkpt>
      <trkpt lat="42.64155" lon="1.02939">
        <ele>1554.2</ele>
        <time>2022-05-22 20:32:55</time>
      </trkpt>
      <trkpt lat="42.64156" lon="1.02937">
        <ele>1554.4</ele>
        <time>2022-05-22 20:32:56</time>
      </trkpt>
      <trkpt lat="42.64157" lon="1.02935">
        <ele>1554.6</ele>
        <time>2022-05-22 20:32:57</time>
      </trkpt>
      <trkpt lat="42.64158" lon="1.02933">
        <ele>1554.6</ele>
        <time>2022-05-22 20:32:58</time>
      </trkpt>
      <trkpt lat="42.64159" lon="1.02932">
        <ele>1554.8</ele>
        <time>2022-05-22 20:32:59</time>
      </trkpt>
      <trkpt lat="42.6416" lon="1.0293">
        <ele>1555</ele>
        <time>2022-05-22 20:33:00</time>
      </trkpt>
      <trkpt lat="42.6416" lon="1.02929">
        <ele>1555.2</ele>
        <time>2022-05-22 20:33:01</time>
      </trkpt>
      <trkpt lat="42.64161" lon="1.02927">
        <ele>1555.4</ele>
        <time>2022-05-22 20:33:02</time>
      </trkpt>
      <trkpt lat="42.64163" lon="1.02925">
        <ele>1555.4</ele>
        <time>2022-05-22 20:33:03</time>
      </trkpt>
      <trkpt lat="42.64164" lon="1.02924">
        <ele>1555.6</ele>
        <time>2022-05-22 20:33:04</time>
      </trkpt>
      <trkpt lat="42.64165" lon="1.02922">
        <ele>1555.8</ele>
        <time>2022-05-22 20:33:05</time>
      </trkpt>
      <trkpt lat="42.64167" lon="1.02921">
        <ele>1556</ele>
        <time>2022-05-22 20:33:06</time>
      </trkpt>
      <trkpt lat="42.64168" lon="1.02919">
        <ele>1556.2</ele>
        <time>2022-05-22 20:33:07</time>
      </trkpt>
      <trkpt lat="42.64169" lon="1.02918">
        <ele>1556.4</ele>
        <time>2022-05-22 20:33:08</time>
      </trkpt>
      <trkpt lat="42.6417" lon="1.02916">
        <ele>1556.4</ele>
        <time>2022-05-22 20:33:09</time>
      </trkpt>
      <trkpt lat="42.64171" lon="1.02914">
        <ele>1556.6</ele>
        <time>2022-05-22 20:33:10</time>
      </trkpt>
      <trkpt lat="42.64171" lon="1.02912">
        <ele>1556.8</ele>
        <time>2022-05-22 20:33:11</time>
      </trkpt>
      <trkpt lat="42.64172" lon="1.0291">
        <ele>1556.8</ele>
        <time>2022-05-22 20:33:12</time>
      </trkpt>
      <trkpt lat="42.64173" lon="1.02909">
        <ele>1557</ele>
        <time>2022-05-22 20:33:13</time>
      </trkpt>
      <trkpt lat="42.64173" lon="1.02907">
        <ele>1557.2</ele>
        <time>2022-05-22 20:33:14</time>
      </trkpt>
      <trkpt lat="42.64174" lon="1.02905">
        <ele>1557.2</ele>
        <time>2022-05-22 20:33:15</time>
      </trkpt>
      <trkpt lat="42.64175" lon="1.02903">
        <ele>1557.4</ele>
        <time>2022-05-22 20:33:16</time>
      </trkpt>
      <trkpt lat="42.64176" lon="1.02901">
        <ele>1557.4</ele>
        <time>2022-05-22 20:33:17</time>
      </trkpt>
      <trkpt lat="42.64177" lon="1.02898">
        <ele>1557.6</ele>
        <time>2022-05-22 20:33:18</time>
      </trkpt>
      <trkpt lat="42.64178" lon="1.02897">
        <ele>1557.8</ele>
        <time>2022-05-22 20:33:19</time>
      </trkpt>
      <trkpt lat="42.64179" lon="1.02895">
        <ele>1557.8</ele>
        <time>2022-05-22 20:33:20</time>
      </trkpt>
      <trkpt lat="42.6418" lon="1.02892">
        <ele>1558</ele>
        <time>2022-05-22 20:33:21</time>
      </trkpt>
      <trkpt lat="42.64181" lon="1.02891">
        <ele>1558.2</ele>
        <time>2022-05-22 20:33:22</time>
      </trkpt>
      <trkpt lat="42.64182" lon="1.02888">
        <ele>1558.4</ele>
        <time>2022-05-22 20:33:23</time>
      </trkpt>
      <trkpt lat="42.64183" lon="1.02886">
        <ele>1558.4</ele>
        <time>2022-05-22 20:33:24</time>
      </trkpt>
      <trkpt lat="42.64184" lon="1.02885">
        <ele>1558.6</ele>
        <time>2022-05-22 20:33:25</time>
      </trkpt>
      <trkpt lat="42.64184" lon="1.02883">
        <ele>1558.6</ele>
        <time>2022-05-22 20:33:26</time>
      </trkpt>
      <trkpt lat="42.64185" lon="1.02881">
        <ele>1558.8</ele>
        <time>2022-05-22 20:33:27</time>
      </trkpt>
      <trkpt lat="42.64186" lon="1.02879">
        <ele>1559</ele>
        <time>2022-05-22 20:33:28</time>
      </trkpt>
      <trkpt lat="42.64187" lon="1.02877">
        <ele>1559.2</ele>
        <time>2022-05-22 20:33:29</time>
      </trkpt>
      <trkpt lat="42.64188" lon="1.02875">
        <ele>1559.4</ele>
        <time>2022-05-22 20:33:30</time>
      </trkpt>
      <trkpt lat="42.64188" lon="1.02873">
        <ele>1559.6</ele>
        <time>2022-05-22 20:33:31</time>
      </trkpt>
      <trkpt lat="42.64189" lon="1.02871">
        <ele>1559.6</ele>
        <time>2022-05-22 20:33:32</time>
      </trkpt>
      <trkpt lat="42.6419" lon="1.02869">
        <ele>1559.8</ele>
        <time>2022-05-22 20:33:33</time>
      </trkpt>
      <trkpt lat="42.64191" lon="1.02867">
        <ele>1560</ele>
        <time>2022-05-22 20:33:34</time>
      </trkpt>
      <trkpt lat="42.64191" lon="1.02865">
        <ele>1560.2</ele>
        <time>2022-05-22 20:33:35</time>
      </trkpt>
      <trkpt lat="42.64191" lon="1.02863">
        <ele>1560.2</ele>
        <time>2022-05-22 20:33:36</time>
      </trkpt>
      <trkpt lat="42.64192" lon="1.02861">
        <ele>1560.4</ele>
        <time>2022-05-22 20:33:37</time>
      </trkpt>
      <trkpt lat="42.64193" lon="1.02859">
        <ele>1560.4</ele>
        <time>2022-05-22 20:33:38</time>
      </trkpt>
      <trkpt lat="42.64194" lon="1.02857">
        <ele>1560.6</ele>
        <time>2022-05-22 20:33:39</time>
      </trkpt>
      <trkpt lat="42.64195" lon="1.02856">
        <ele>1560.8</ele>
        <time>2022-05-22 20:33:40</time>
      </trkpt>
      <trkpt lat="42.64196" lon="1.02854">
        <ele>1561</ele>
        <time>2022-05-22 20:33:41</time>
      </trkpt>
      <trkpt lat="42.64197" lon="1.02851">
        <ele>1561</ele>
        <time>2022-05-22 20:33:42</time>
      </trkpt>
      <trkpt lat="42.64198" lon="1.02849">
        <ele>1561.2</ele>
        <time>2022-05-22 20:33:43</time>
      </trkpt>
      <trkpt lat="42.64199" lon="1.02847">
        <ele>1561.4</ele>
        <time>2022-05-22 20:33:44</time>
      </trkpt>
      <trkpt lat="42.64199" lon="1.02845">
        <ele>1561.6</ele>
        <time>2022-05-22 20:33:45</time>
      </trkpt>
      <trkpt lat="42.642" lon="1.02843">
        <ele>1561.6</ele>
        <time>2022-05-22 20:33:46</time>
      </trkpt>
      <trkpt lat="42.642" lon="1.0284">
        <ele>1561.8</ele>
        <time>2022-05-22 20:33:47</time>
      </trkpt>
      <trkpt lat="42.64201" lon="1.02838">
        <ele>1562</ele>
        <time>2022-05-22 20:33:48</time>
      </trkpt>
      <trkpt lat="42.64202" lon="1.02836">
        <ele>1562.2</ele>
        <time>2022-05-22 20:33:49</time>
      </trkpt>
      <trkpt lat="42.64203" lon="1.02834">
        <ele>1562.4</ele>
        <time>2022-05-22 20:33:50</time>
      </trkpt>
      <trkpt lat="42.64203" lon="1.02832">
        <ele>1562.4</ele>
        <time>2022-05-22 20:33:51</time>
      </trkpt>
      <trkpt lat="42.64205" lon="1.0283">
        <ele>1562.6</ele>
        <time>2022-05-22 20:33:52</time>
      </trkpt>
      <trkpt lat="42.64206" lon="1.02828">
        <ele>1562.8</ele>
        <time>2022-05-22 20:33:53</time>
      </trkpt>
      <trkpt lat="42.64206" lon="1.02826">
        <ele>1562.8</ele>
        <time>2022-05-22 20:33:54</time>
      </trkpt>
      <trkpt lat="42.64207" lon="1.02824">
        <ele>1563</ele>
        <time>2022-05-22 20:33:55</time>
      </trkpt>
      <trkpt lat="42.64208" lon="1.02822">
        <ele>1563.2</ele>
        <time>2022-05-22 20:33:56</time>
      </trkpt>
      <trkpt lat="42.64209" lon="1.0282">
        <ele>1563.2</ele>
        <time>2022-05-22 20:33:57</time>
      </trkpt>
      <trkpt lat="42.6421" lon="1.02819">
        <ele>1563.4</ele>
        <time>2022-05-22 20:33:58</time>
      </trkpt>
      <trkpt lat="42.6421" lon="1.02817">
        <ele>1563.6</ele>
        <time>2022-05-22 20:33:59</time>
      </trkpt>
      <trkpt lat="42.6421" lon="1.02815">
        <ele>1563.6</ele>
        <time>2022-05-22 20:34:00</time>
      </trkpt>
      <trkpt lat="42.6421" lon="1.02813">
        <ele>1563.8</ele>
        <time>2022-05-22 20:34:01</time>
      </trkpt>
      <trkpt lat="42.6421" lon="1.02811">
        <ele>1564</ele>
        <time>2022-05-22 20:34:02</time>
      </trkpt>
      <trkpt lat="42.64211" lon="1.02809">
        <ele>1564</ele>
        <time>2022-05-22 20:34:03</time>
      </trkpt>
      <trkpt lat="42.64212" lon="1.02807">
        <ele>1564.2</ele>
        <time>2022-05-22 20:34:04</time>
      </trkpt>
      <trkpt lat="42.64212" lon="1.02805">
        <ele>1564.4</ele>
        <time>2022-05-22 20:34:05</time>
      </trkpt>
      <trkpt lat="42.64212" lon="1.02804">
        <ele>1564.4</ele>
        <time>2022-05-22 20:34:06</time>
      </trkpt>
      <trkpt lat="42.64212" lon="1.02802">
        <ele>1564.6</ele>
        <time>2022-05-22 20:34:07</time>
      </trkpt>
      <trkpt lat="42.64213" lon="1.028">
        <ele>1564.6</ele>
        <time>2022-05-22 20:34:08</time>
      </trkpt>
      <trkpt lat="42.64214" lon="1.02798">
        <ele>1564.8</ele>
        <time>2022-05-22 20:34:09</time>
      </trkpt>
      <trkpt lat="42.64215" lon="1.02795">
        <ele>1565</ele>
        <time>2022-05-22 20:34:10</time>
      </trkpt>
      <trkpt lat="42.64216" lon="1.02793">
        <ele>1565</ele>
        <time>2022-05-22 20:34:11</time>
      </trkpt>
      <trkpt lat="42.64216" lon="1.02791">
        <ele>1565.2</ele>
        <time>2022-05-22 20:34:12</time>
      </trkpt>
      <trkpt lat="42.64217" lon="1.02789">
        <ele>1565.4</ele>
        <time>2022-05-22 20:34:13</time>
      </trkpt>
      <trkpt lat="42.64217" lon="1.02787">
        <ele>1565.4</ele>
        <time>2022-05-22 20:34:14</time>
      </trkpt>
      <trkpt lat="42.64218" lon="1.02785">
        <ele>1565.6</ele>
        <time>2022-05-22 20:34:15</time>
      </trkpt>
      <trkpt lat="42.64219" lon="1.02782">
        <ele>1565.8</ele>
        <time>2022-05-22 20:34:16</time>
      </trkpt>
      <trkpt lat="42.64219" lon="1.02781">
        <ele>1565.8</ele>
        <time>2022-05-22 20:34:17</time>
      </trkpt>
      <trkpt lat="42.6422" lon="1.02778">
        <ele>1566</ele>
        <time>2022-05-22 20:34:18</time>
      </trkpt>
      <trkpt lat="42.64221" lon="1.02776">
        <ele>1566.2</ele>
        <time>2022-05-22 20:34:19</time>
      </trkpt>
      <trkpt lat="42.64222" lon="1.02774">
        <ele>1566.2</ele>
        <time>2022-05-22 20:34:20</time>
      </trkpt>
      <trkpt lat="42.64223" lon="1.02772">
        <ele>1566.4</ele>
        <time>2022-05-22 20:34:21</time>
      </trkpt>
      <trkpt lat="42.64224" lon="1.02769">
        <ele>1566.6</ele>
        <time>2022-05-22 20:34:22</time>
      </trkpt>
      <trkpt lat="42.64225" lon="1.02767">
        <ele>1566.6</ele>
        <time>2022-05-22 20:34:23</time>
      </trkpt>
      <trkpt lat="42.64226" lon="1.02765">
        <ele>1566.8</ele>
        <time>2022-05-22 20:34:24</time>
      </trkpt>
      <trkpt lat="42.64227" lon="1.02763">
        <ele>1567</ele>
        <time>2022-05-22 20:34:25</time>
      </trkpt>
      <trkpt lat="42.64227" lon="1.02761">
        <ele>1567.2</ele>
        <time>2022-05-22 20:34:26</time>
      </trkpt>
      <trkpt lat="42.64228" lon="1.02759">
        <ele>1567.2</ele>
        <time>2022-05-22 20:34:27</time>
      </trkpt>
      <trkpt lat="42.64228" lon="1.02757">
        <ele>1567.4</ele>
        <time>2022-05-22 20:34:28</time>
      </trkpt>
      <trkpt lat="42.64229" lon="1.02754">
        <ele>1567.6</ele>
        <time>2022-05-22 20:34:29</time>
      </trkpt>
      <trkpt lat="42.64229" lon="1.02752">
        <ele>1567.6</ele>
        <time>2022-05-22 20:34:30</time>
      </trkpt>
      <trkpt lat="42.6423" lon="1.02751">
        <ele>1567.8</ele>
        <time>2022-05-22 20:34:31</time>
      </trkpt>
      <trkpt lat="42.6423" lon="1.02749">
        <ele>1568</ele>
        <time>2022-05-22 20:34:32</time>
      </trkpt>
      <trkpt lat="42.64231" lon="1.02747">
        <ele>1568.2</ele>
        <time>2022-05-22 20:34:33</time>
      </trkpt>
      <trkpt lat="42.64231" lon="1.02745">
        <ele>1568.2</ele>
        <time>2022-05-22 20:34:34</time>
      </trkpt>
      <trkpt lat="42.64231" lon="1.02744">
        <ele>1568.4</ele>
        <time>2022-05-22 20:34:35</time>
      </trkpt>
      <trkpt lat="42.64231" lon="1.02742">
        <ele>1568.6</ele>
        <time>2022-05-22 20:34:36</time>
      </trkpt>
      <trkpt lat="42.64231" lon="1.0274">
        <ele>1568.8</ele>
        <time>2022-05-22 20:34:37</time>
      </trkpt>
      <trkpt lat="42.64232" lon="1.02737">
        <ele>1568.8</ele>
        <time>2022-05-22 20:34:38</time>
      </trkpt>
      <trkpt lat="42.64232" lon="1.02735">
        <ele>1569</ele>
        <time>2022-05-22 20:34:39</time>
      </trkpt>
      <trkpt lat="42.64233" lon="1.02733">
        <ele>1569.2</ele>
        <time>2022-05-22 20:34:40</time>
      </trkpt>
      <trkpt lat="42.64234" lon="1.02731">
        <ele>1569.4</ele>
        <time>2022-05-22 20:34:41</time>
      </trkpt>
      <trkpt lat="42.64234" lon="1.02728">
        <ele>1569.4</ele>
        <time>2022-05-22 20:34:42</time>
      </trkpt>
      <trkpt lat="42.64234" lon="1.02726">
        <ele>1569.6</ele>
        <time>2022-05-22 20:34:43</time>
      </trkpt>
      <trkpt lat="42.64234" lon="1.02724">
        <ele>1569.8</ele>
        <time>2022-05-22 20:34:44</time>
      </trkpt>
      <trkpt lat="42.64234" lon="1.02722">
        <ele>1570</ele>
        <time>2022-05-22 20:34:45</time>
      </trkpt>
      <trkpt lat="42.64234" lon="1.02719">
        <ele>1570</ele>
        <time>2022-05-22 20:34:46</time>
      </trkpt>
      <trkpt lat="42.64234" lon="1.02717">
        <ele>1570.2</ele>
        <time>2022-05-22 20:34:47</time>
      </trkpt>
      <trkpt lat="42.64233" lon="1.02715">
        <ele>1570.4</ele>
        <time>2022-05-22 20:34:48</time>
      </trkpt>
      <trkpt lat="42.64232" lon="1.02713">
        <ele>1570.6</ele>
        <time>2022-05-22 20:34:49</time>
      </trkpt>
      <trkpt lat="42.64232" lon="1.0271">
        <ele>1570.6</ele>
        <time>2022-05-22 20:34:50</time>
      </trkpt>
      <trkpt lat="42.64232" lon="1.02709">
        <ele>1570.8</ele>
        <time>2022-05-22 20:34:51</time>
      </trkpt>
      <trkpt lat="42.64234" lon="1.02707">
        <ele>1571</ele>
        <time>2022-05-22 20:34:52</time>
      </trkpt>
      <trkpt lat="42.64235" lon="1.02704">
        <ele>1571</ele>
        <time>2022-05-22 20:34:53</time>
      </trkpt>
      <trkpt lat="42.64236" lon="1.02702">
        <ele>1571.2</ele>
        <time>2022-05-22 20:34:54</time>
      </trkpt>
      <trkpt lat="42.64237" lon="1.02699">
        <ele>1571.4</ele>
        <time>2022-05-22 20:34:55</time>
      </trkpt>
      <trkpt lat="42.64238" lon="1.02697">
        <ele>1571.4</ele>
        <time>2022-05-22 20:34:56</time>
      </trkpt>
      <trkpt lat="42.64239" lon="1.02694">
        <ele>1571.6</ele>
        <time>2022-05-22 20:34:57</time>
      </trkpt>
      <trkpt lat="42.6424" lon="1.02691">
        <ele>1571.8</ele>
        <time>2022-05-22 20:34:58</time>
      </trkpt>
      <trkpt lat="42.64241" lon="1.02688">
        <ele>1571.8</ele>
        <time>2022-05-22 20:34:59</time>
      </trkpt>
      <trkpt lat="42.64242" lon="1.02685">
        <ele>1572</ele>
        <time>2022-05-22 20:35:00</time>
      </trkpt>
      <trkpt lat="42.64242" lon="1.02682">
        <ele>1572.2</ele>
        <time>2022-05-22 20:35:01</time>
      </trkpt>
      <trkpt lat="42.64242" lon="1.02678">
        <ele>1572.2</ele>
        <time>2022-05-22 20:35:02</time>
      </trkpt>
      <trkpt lat="42.64243" lon="1.02674">
        <ele>1572.4</ele>
        <time>2022-05-22 20:35:03</time>
      </trkpt>
      <trkpt lat="42.64245" lon="1.0267">
        <ele>1572.4</ele>
        <time>2022-05-22 20:35:04</time>
      </trkpt>
      <trkpt lat="42.64246" lon="1.02667">
        <ele>1572.6</ele>
        <time>2022-05-22 20:35:05</time>
      </trkpt>
      <trkpt lat="42.64248" lon="1.02663">
        <ele>1572.8</ele>
        <time>2022-05-22 20:35:06</time>
      </trkpt>
      <trkpt lat="42.64248" lon="1.02659">
        <ele>1573</ele>
        <time>2022-05-22 20:35:07</time>
      </trkpt>
      <trkpt lat="42.64249" lon="1.02656">
        <ele>1573</ele>
        <time>2022-05-22 20:35:08</time>
      </trkpt>
      <trkpt lat="42.64249" lon="1.02653">
        <ele>1573.2</ele>
        <time>2022-05-22 20:35:09</time>
      </trkpt>
      <trkpt lat="42.6425" lon="1.0265">
        <ele>1573.4</ele>
        <time>2022-05-22 20:35:10</time>
      </trkpt>
      <trkpt lat="42.6425" lon="1.02647">
        <ele>1573.4</ele>
        <time>2022-05-22 20:35:11</time>
      </trkpt>
      <trkpt lat="42.6425" lon="1.02645">
        <ele>1573.6</ele>
        <time>2022-05-22 20:35:12</time>
      </trkpt>
      <trkpt lat="42.64251" lon="1.02639">
        <ele>1573.6</ele>
        <time>2022-05-22 20:35:13</time>
      </trkpt>
      <trkpt lat="42.64251" lon="1.02635">
        <ele>1573.8</ele>
        <time>2022-05-22 20:35:14</time>
      </trkpt>
      <trkpt lat="42.64251" lon="1.02632">
        <ele>1574</ele>
        <time>2022-05-22 20:35:15</time>
      </trkpt>
      <trkpt lat="42.64251" lon="1.02629">
        <ele>1574</ele>
        <time>2022-05-22 20:35:16</time>
      </trkpt>
      <trkpt lat="42.6425" lon="1.02626">
        <ele>1574.2</ele>
        <time>2022-05-22 20:35:17</time>
      </trkpt>
      <trkpt lat="42.6425" lon="1.02622">
        <ele>1574.2</ele>
        <time>2022-05-22 20:35:18</time>
      </trkpt>
      <trkpt lat="42.6425" lon="1.02619">
        <ele>1574.2</ele>
        <time>2022-05-22 20:35:19</time>
      </trkpt>
      <trkpt lat="42.64251" lon="1.02617">
        <ele>1574.4</ele>
        <time>2022-05-22 20:35:20</time>
      </trkpt>
      <trkpt lat="42.64251" lon="1.02614">
        <ele>1574.4</ele>
        <time>2022-05-22 20:35:21</time>
      </trkpt>
      <trkpt lat="42.64252" lon="1.02611">
        <ele>1574.6</ele>
        <time>2022-05-22 20:35:22</time>
      </trkpt>
      <trkpt lat="42.64252" lon="1.02608">
        <ele>1574.6</ele>
        <time>2022-05-22 20:35:23</time>
      </trkpt>
      <trkpt lat="42.64254" lon="1.02606">
        <ele>1574.8</ele>
        <time>2022-05-22 20:35:24</time>
      </trkpt>
      <trkpt lat="42.64254" lon="1.02603">
        <ele>1575</ele>
        <time>2022-05-22 20:35:25</time>
      </trkpt>
      <trkpt lat="42.64254" lon="1.026">
        <ele>1575</ele>
        <time>2022-05-22 20:35:26</time>
      </trkpt>
      <trkpt lat="42.64254" lon="1.02597">
        <ele>1575.2</ele>
        <time>2022-05-22 20:35:27</time>
      </trkpt>
      <trkpt lat="42.64254" lon="1.02594">
        <ele>1575.4</ele>
        <time>2022-05-22 20:35:28</time>
      </trkpt>
      <trkpt lat="42.64254" lon="1.02591">
        <ele>1575.4</ele>
        <time>2022-05-22 20:35:29</time>
      </trkpt>
      <trkpt lat="42.64254" lon="1.02588">
        <ele>1575.6</ele>
        <time>2022-05-22 20:35:30</time>
      </trkpt>
      <trkpt lat="42.64254" lon="1.02585">
        <ele>1575.6</ele>
        <time>2022-05-22 20:35:31</time>
      </trkpt>
      <trkpt lat="42.64255" lon="1.02583">
        <ele>1575.8</ele>
        <time>2022-05-22 20:35:32</time>
      </trkpt>
      <trkpt lat="42.64257" lon="1.02581">
        <ele>1575.8</ele>
        <time>2022-05-22 20:35:33</time>
      </trkpt>
      <trkpt lat="42.64258" lon="1.02578">
        <ele>1576</ele>
        <time>2022-05-22 20:35:34</time>
      </trkpt>
      <trkpt lat="42.64259" lon="1.02575">
        <ele>1576.2</ele>
        <time>2022-05-22 20:35:35</time>
      </trkpt>
      <trkpt lat="42.64259" lon="1.02573">
        <ele>1576.2</ele>
        <time>2022-05-22 20:35:36</time>
      </trkpt>
      <trkpt lat="42.6426" lon="1.0257">
        <ele>1576.4</ele>
        <time>2022-05-22 20:35:37</time>
      </trkpt>
      <trkpt lat="42.64261" lon="1.02567">
        <ele>1576.4</ele>
        <time>2022-05-22 20:35:38</time>
      </trkpt>
      <trkpt lat="42.64261" lon="1.02565">
        <ele>1576.6</ele>
        <time>2022-05-22 20:35:39</time>
      </trkpt>
      <trkpt lat="42.64262" lon="1.02562">
        <ele>1576.6</ele>
        <time>2022-05-22 20:35:40</time>
      </trkpt>
      <trkpt lat="42.64262" lon="1.02559">
        <ele>1576.8</ele>
        <time>2022-05-22 20:35:41</time>
      </trkpt>
      <trkpt lat="42.64262" lon="1.02556">
        <ele>1577</ele>
        <time>2022-05-22 20:35:42</time>
      </trkpt>
      <trkpt lat="42.64262" lon="1.02553">
        <ele>1577</ele>
        <time>2022-05-22 20:35:43</time>
      </trkpt>
      <trkpt lat="42.64262" lon="1.02551">
        <ele>1577.2</ele>
        <time>2022-05-22 20:35:44</time>
      </trkpt>
      <trkpt lat="42.64262" lon="1.02548">
        <ele>1577.4</ele>
        <time>2022-05-22 20:35:45</time>
      </trkpt>
      <trkpt lat="42.64261" lon="1.02545">
        <ele>1577.4</ele>
        <time>2022-05-22 20:35:46</time>
      </trkpt>
      <trkpt lat="42.64261" lon="1.02542">
        <ele>1577.6</ele>
        <time>2022-05-22 20:35:47</time>
      </trkpt>
      <trkpt lat="42.64262" lon="1.02539">
        <ele>1577.8</ele>
        <time>2022-05-22 20:35:48</time>
      </trkpt>
      <trkpt lat="42.64263" lon="1.02536">
        <ele>1577.8</ele>
        <time>2022-05-22 20:35:49</time>
      </trkpt>
      <trkpt lat="42.64265" lon="1.02534">
        <ele>1578</ele>
        <time>2022-05-22 20:35:50</time>
      </trkpt>
      <trkpt lat="42.64266" lon="1.02532">
        <ele>1578</ele>
        <time>2022-05-22 20:35:51</time>
      </trkpt>
      <trkpt lat="42.64266" lon="1.02529">
        <ele>1578.2</ele>
        <time>2022-05-22 20:35:52</time>
      </trkpt>
      <trkpt lat="42.64267" lon="1.02527">
        <ele>1578.4</ele>
        <time>2022-05-22 20:35:53</time>
      </trkpt>
      <trkpt lat="42.64269" lon="1.02524">
        <ele>1578.4</ele>
        <time>2022-05-22 20:35:54</time>
      </trkpt>
      <trkpt lat="42.64269" lon="1.02521">
        <ele>1578.6</ele>
        <time>2022-05-22 20:35:55</time>
      </trkpt>
      <trkpt lat="42.6427" lon="1.02519">
        <ele>1578.8</ele>
        <time>2022-05-22 20:35:56</time>
      </trkpt>
      <trkpt lat="42.64271" lon="1.02516">
        <ele>1578.8</ele>
        <time>2022-05-22 20:35:57</time>
      </trkpt>
      <trkpt lat="42.64272" lon="1.02514">
        <ele>1579</ele>
        <time>2022-05-22 20:35:58</time>
      </trkpt>
      <trkpt lat="42.64273" lon="1.02512">
        <ele>1579.2</ele>
        <time>2022-05-22 20:35:59</time>
      </trkpt>
      <trkpt lat="42.64274" lon="1.02509">
        <ele>1579.2</ele>
        <time>2022-05-22 20:36:00</time>
      </trkpt>
      <trkpt lat="42.64275" lon="1.02506">
        <ele>1579.4</ele>
        <time>2022-05-22 20:36:01</time>
      </trkpt>
      <trkpt lat="42.64276" lon="1.02504">
        <ele>1579.4</ele>
        <time>2022-05-22 20:36:02</time>
      </trkpt>
      <trkpt lat="42.64277" lon="1.02501">
        <ele>1579.6</ele>
        <time>2022-05-22 20:36:03</time>
      </trkpt>
      <trkpt lat="42.64277" lon="1.02498">
        <ele>1579.6</ele>
        <time>2022-05-22 20:36:04</time>
      </trkpt>
      <trkpt lat="42.64278" lon="1.02495">
        <ele>1579.8</ele>
        <time>2022-05-22 20:36:05</time>
      </trkpt>
      <trkpt lat="42.64278" lon="1.02493">
        <ele>1579.8</ele>
        <time>2022-05-22 20:36:06</time>
      </trkpt>
      <trkpt lat="42.64279" lon="1.02491">
        <ele>1580</ele>
        <time>2022-05-22 20:36:07</time>
      </trkpt>
      <trkpt lat="42.6428" lon="1.02489">
        <ele>1580.2</ele>
        <time>2022-05-22 20:36:08</time>
      </trkpt>
      <trkpt lat="42.6428" lon="1.02486">
        <ele>1580.4</ele>
        <time>2022-05-22 20:36:09</time>
      </trkpt>
      <trkpt lat="42.64281" lon="1.02483">
        <ele>1580.4</ele>
        <time>2022-05-22 20:36:10</time>
      </trkpt>
      <trkpt lat="42.64282" lon="1.0248">
        <ele>1580.6</ele>
        <time>2022-05-22 20:36:11</time>
      </trkpt>
      <trkpt lat="42.64282" lon="1.02477">
        <ele>1580.8</ele>
        <time>2022-05-22 20:36:12</time>
      </trkpt>
      <trkpt lat="42.64282" lon="1.02475">
        <ele>1581</ele>
        <time>2022-05-22 20:36:13</time>
      </trkpt>
      <trkpt lat="42.64283" lon="1.02472">
        <ele>1581</ele>
        <time>2022-05-22 20:36:14</time>
      </trkpt>
      <trkpt lat="42.64284" lon="1.0247">
        <ele>1581.2</ele>
        <time>2022-05-22 20:36:15</time>
      </trkpt>
      <trkpt lat="42.64284" lon="1.02467">
        <ele>1581.4</ele>
        <time>2022-05-22 20:36:16</time>
      </trkpt>
      <trkpt lat="42.64285" lon="1.02465">
        <ele>1581.6</ele>
        <time>2022-05-22 20:36:17</time>
      </trkpt>
      <trkpt lat="42.64286" lon="1.02462">
        <ele>1581.6</ele>
        <time>2022-05-22 20:36:18</time>
      </trkpt>
      <trkpt lat="42.64287" lon="1.02459">
        <ele>1581.8</ele>
        <time>2022-05-22 20:36:19</time>
      </trkpt>
      <trkpt lat="42.64288" lon="1.02456">
        <ele>1582</ele>
        <time>2022-05-22 20:36:20</time>
      </trkpt>
      <trkpt lat="42.64289" lon="1.02454">
        <ele>1582.2</ele>
        <time>2022-05-22 20:36:21</time>
      </trkpt>
      <trkpt lat="42.6429" lon="1.02451">
        <ele>1582.2</ele>
        <time>2022-05-22 20:36:22</time>
      </trkpt>
      <trkpt lat="42.6429" lon="1.02448">
        <ele>1582.4</ele>
        <time>2022-05-22 20:36:23</time>
      </trkpt>
      <trkpt lat="42.64291" lon="1.02445">
        <ele>1582.6</ele>
        <time>2022-05-22 20:36:24</time>
      </trkpt>
      <trkpt lat="42.64291" lon="1.02442">
        <ele>1582.8</ele>
        <time>2022-05-22 20:36:25</time>
      </trkpt>
      <trkpt lat="42.64291" lon="1.02438">
        <ele>1583</ele>
        <time>2022-05-22 20:36:26</time>
      </trkpt>
      <trkpt lat="42.64292" lon="1.02436">
        <ele>1583</ele>
        <time>2022-05-22 20:36:27</time>
      </trkpt>
      <trkpt lat="42.64293" lon="1.02433">
        <ele>1583.2</ele>
        <time>2022-05-22 20:36:28</time>
      </trkpt>
      <trkpt lat="42.64294" lon="1.02429">
        <ele>1583.4</ele>
        <time>2022-05-22 20:36:29</time>
      </trkpt>
      <trkpt lat="42.64294" lon="1.02426">
        <ele>1583.6</ele>
        <time>2022-05-22 20:36:30</time>
      </trkpt>
      <trkpt lat="42.64295" lon="1.02424">
        <ele>1583.8</ele>
        <time>2022-05-22 20:36:31</time>
      </trkpt>
      <trkpt lat="42.64295" lon="1.02421">
        <ele>1583.8</ele>
        <time>2022-05-22 20:36:32</time>
      </trkpt>
      <trkpt lat="42.64296" lon="1.02418">
        <ele>1584</ele>
        <time>2022-05-22 20:36:33</time>
      </trkpt>
      <trkpt lat="42.64297" lon="1.02415">
        <ele>1584.2</ele>
        <time>2022-05-22 20:36:34</time>
      </trkpt>
      <trkpt lat="42.64298" lon="1.02413">
        <ele>1584.4</ele>
        <time>2022-05-22 20:36:35</time>
      </trkpt>
      <trkpt lat="42.64299" lon="1.0241">
        <ele>1584.6</ele>
        <time>2022-05-22 20:36:36</time>
      </trkpt>
      <trkpt lat="42.64299" lon="1.02408">
        <ele>1584.6</ele>
        <time>2022-05-22 20:36:37</time>
      </trkpt>
      <trkpt lat="42.643" lon="1.02405">
        <ele>1584.8</ele>
        <time>2022-05-22 20:36:38</time>
      </trkpt>
      <trkpt lat="42.64301" lon="1.02403">
        <ele>1585</ele>
        <time>2022-05-22 20:36:39</time>
      </trkpt>
      <trkpt lat="42.64301" lon="1.024">
        <ele>1585.2</ele>
        <time>2022-05-22 20:36:40</time>
      </trkpt>
      <trkpt lat="42.64302" lon="1.02398">
        <ele>1585.2</ele>
        <time>2022-05-22 20:36:41</time>
      </trkpt>
      <trkpt lat="42.64303" lon="1.02396">
        <ele>1585.4</ele>
        <time>2022-05-22 20:36:42</time>
      </trkpt>
      <trkpt lat="42.64303" lon="1.02393">
        <ele>1585.6</ele>
        <time>2022-05-22 20:36:43</time>
      </trkpt>
      <trkpt lat="42.64304" lon="1.0239">
        <ele>1585.8</ele>
        <time>2022-05-22 20:36:44</time>
      </trkpt>
      <trkpt lat="42.64304" lon="1.02388">
        <ele>1585.8</ele>
        <time>2022-05-22 20:36:45</time>
      </trkpt>
      <trkpt lat="42.64305" lon="1.02386">
        <ele>1586</ele>
        <time>2022-05-22 20:36:46</time>
      </trkpt>
      <trkpt lat="42.64305" lon="1.02384">
        <ele>1586.2</ele>
        <time>2022-05-22 20:36:47</time>
      </trkpt>
      <trkpt lat="42.64306" lon="1.02381">
        <ele>1586.4</ele>
        <time>2022-05-22 20:36:48</time>
      </trkpt>
      <trkpt lat="42.64307" lon="1.02378">
        <ele>1586.4</ele>
        <time>2022-05-22 20:36:49</time>
      </trkpt>
      <trkpt lat="42.64308" lon="1.02376">
        <ele>1586.6</ele>
        <time>2022-05-22 20:36:50</time>
      </trkpt>
      <trkpt lat="42.64308" lon="1.02374">
        <ele>1586.8</ele>
        <time>2022-05-22 20:36:51</time>
      </trkpt>
      <trkpt lat="42.64309" lon="1.02372">
        <ele>1587</ele>
        <time>2022-05-22 20:36:52</time>
      </trkpt>
      <trkpt lat="42.6431" lon="1.02369">
        <ele>1587.2</ele>
        <time>2022-05-22 20:36:53</time>
      </trkpt>
      <trkpt lat="42.64311" lon="1.02366">
        <ele>1587.2</ele>
        <time>2022-05-22 20:36:54</time>
      </trkpt>
      <trkpt lat="42.64311" lon="1.02364">
        <ele>1587.4</ele>
        <time>2022-05-22 20:36:55</time>
      </trkpt>
      <trkpt lat="42.64312" lon="1.02362">
        <ele>1587.6</ele>
        <time>2022-05-22 20:36:56</time>
      </trkpt>
      <trkpt lat="42.64313" lon="1.02359">
        <ele>1587.8</ele>
        <time>2022-05-22 20:36:57</time>
      </trkpt>
      <trkpt lat="42.64313" lon="1.02356">
        <ele>1587.8</ele>
        <time>2022-05-22 20:36:58</time>
      </trkpt>
      <trkpt lat="42.64314" lon="1.02353">
        <ele>1588</ele>
        <time>2022-05-22 20:36:59</time>
      </trkpt>
      <trkpt lat="42.64314" lon="1.0235">
        <ele>1588.2</ele>
        <time>2022-05-22 20:37:00</time>
      </trkpt>
      <trkpt lat="42.64314" lon="1.02348">
        <ele>1588.4</ele>
        <time>2022-05-22 20:37:01</time>
      </trkpt>
      <trkpt lat="42.64315" lon="1.02346">
        <ele>1588.4</ele>
        <time>2022-05-22 20:37:02</time>
      </trkpt>
      <trkpt lat="42.64316" lon="1.02343">
        <ele>1588.6</ele>
        <time>2022-05-22 20:37:03</time>
      </trkpt>
      <trkpt lat="42.64316" lon="1.02341">
        <ele>1588.8</ele>
        <time>2022-05-22 20:37:04</time>
      </trkpt>
      <trkpt lat="42.64317" lon="1.02338">
        <ele>1589</ele>
        <time>2022-05-22 20:37:05</time>
      </trkpt>
      <trkpt lat="42.64317" lon="1.02336">
        <ele>1589.2</ele>
        <time>2022-05-22 20:37:06</time>
      </trkpt>
      <trkpt lat="42.64318" lon="1.02334">
        <ele>1589.2</ele>
        <time>2022-05-22 20:37:07</time>
      </trkpt>
      <trkpt lat="42.64318" lon="1.02331">
        <ele>1589.4</ele>
        <time>2022-05-22 20:37:08</time>
      </trkpt>
      <trkpt lat="42.64319" lon="1.02328">
        <ele>1589.6</ele>
        <time>2022-05-22 20:37:09</time>
      </trkpt>
      <trkpt lat="42.6432" lon="1.02326">
        <ele>1589.8</ele>
        <time>2022-05-22 20:37:10</time>
      </trkpt>
      <trkpt lat="42.6432" lon="1.02323">
        <ele>1589.8</ele>
        <time>2022-05-22 20:37:11</time>
      </trkpt>
      <trkpt lat="42.64321" lon="1.02321">
        <ele>1590</ele>
        <time>2022-05-22 20:37:12</time>
      </trkpt>
      <trkpt lat="42.64322" lon="1.02318">
        <ele>1590.2</ele>
        <time>2022-05-22 20:37:13</time>
      </trkpt>
      <trkpt lat="42.64322" lon="1.02316">
        <ele>1590.4</ele>
        <time>2022-05-22 20:37:14</time>
      </trkpt>
      <trkpt lat="42.64323" lon="1.02313">
        <ele>1590.6</ele>
        <time>2022-05-22 20:37:15</time>
      </trkpt>
      <trkpt lat="42.64323" lon="1.0231">
        <ele>1590.6</ele>
        <time>2022-05-22 20:37:16</time>
      </trkpt>
      <trkpt lat="42.64323" lon="1.02307">
        <ele>1590.8</ele>
        <time>2022-05-22 20:37:17</time>
      </trkpt>
      <trkpt lat="42.64323" lon="1.02304">
        <ele>1591</ele>
        <time>2022-05-22 20:37:18</time>
      </trkpt>
      <trkpt lat="42.64323" lon="1.023">
        <ele>1591.2</ele>
        <time>2022-05-22 20:37:19</time>
      </trkpt>
      <trkpt lat="42.64323" lon="1.02297">
        <ele>1591.2</ele>
        <time>2022-05-22 20:37:20</time>
      </trkpt>
      <trkpt lat="42.64324" lon="1.02295">
        <ele>1591.4</ele>
        <time>2022-05-22 20:37:21</time>
      </trkpt>
      <trkpt lat="42.64324" lon="1.02292">
        <ele>1591.6</ele>
        <time>2022-05-22 20:37:22</time>
      </trkpt>
      <trkpt lat="42.64324" lon="1.02289">
        <ele>1591.8</ele>
        <time>2022-05-22 20:37:23</time>
      </trkpt>
      <trkpt lat="42.64325" lon="1.02286">
        <ele>1591.8</ele>
        <time>2022-05-22 20:37:24</time>
      </trkpt>
      <trkpt lat="42.64326" lon="1.02284">
        <ele>1592</ele>
        <time>2022-05-22 20:37:25</time>
      </trkpt>
      <trkpt lat="42.64326" lon="1.02281">
        <ele>1592.2</ele>
        <time>2022-05-22 20:37:26</time>
      </trkpt>
      <trkpt lat="42.64326" lon="1.02278">
        <ele>1592.4</ele>
        <time>2022-05-22 20:37:27</time>
      </trkpt>
      <trkpt lat="42.64326" lon="1.02275">
        <ele>1592.4</ele>
        <time>2022-05-22 20:37:28</time>
      </trkpt>
      <trkpt lat="42.64326" lon="1.02272">
        <ele>1592.6</ele>
        <time>2022-05-22 20:37:29</time>
      </trkpt>
      <trkpt lat="42.64327" lon="1.0227">
        <ele>1592.8</ele>
        <time>2022-05-22 20:37:30</time>
      </trkpt>
      <trkpt lat="42.64327" lon="1.02268">
        <ele>1593</ele>
        <time>2022-05-22 20:37:31</time>
      </trkpt>
      <trkpt lat="42.64327" lon="1.02265">
        <ele>1593</ele>
        <time>2022-05-22 20:37:32</time>
      </trkpt>
      <trkpt lat="42.64326" lon="1.02261">
        <ele>1593.2</ele>
        <time>2022-05-22 20:37:33</time>
      </trkpt>
      <trkpt lat="42.64326" lon="1.02258">
        <ele>1593.4</ele>
        <time>2022-05-22 20:37:34</time>
      </trkpt>
      <trkpt lat="42.64326" lon="1.02256">
        <ele>1593.4</ele>
        <time>2022-05-22 20:37:35</time>
      </trkpt>
      <trkpt lat="42.64326" lon="1.02253">
        <ele>1593.6</ele>
        <time>2022-05-22 20:37:36</time>
      </trkpt>
      <trkpt lat="42.64326" lon="1.0225">
        <ele>1593.8</ele>
        <time>2022-05-22 20:37:37</time>
      </trkpt>
      <trkpt lat="42.64326" lon="1.02246">
        <ele>1594</ele>
        <time>2022-05-22 20:37:38</time>
      </trkpt>
      <trkpt lat="42.64326" lon="1.02243">
        <ele>1594</ele>
        <time>2022-05-22 20:37:39</time>
      </trkpt>
      <trkpt lat="42.64326" lon="1.02241">
        <ele>1594.2</ele>
        <time>2022-05-22 20:37:40</time>
      </trkpt>
      <trkpt lat="42.64326" lon="1.02238">
        <ele>1594.4</ele>
        <time>2022-05-22 20:37:41</time>
      </trkpt>
      <trkpt lat="42.64326" lon="1.02235">
        <ele>1594.6</ele>
        <time>2022-05-22 20:37:42</time>
      </trkpt>
      <trkpt lat="42.64327" lon="1.02231">
        <ele>1594.8</ele>
        <time>2022-05-22 20:37:43</time>
      </trkpt>
      <trkpt lat="42.64327" lon="1.02228">
        <ele>1594.8</ele>
        <time>2022-05-22 20:37:44</time>
      </trkpt>
      <trkpt lat="42.64328" lon="1.02226">
        <ele>1595</ele>
        <time>2022-05-22 20:37:45</time>
      </trkpt>
      <trkpt lat="42.64329" lon="1.02224">
        <ele>1595.2</ele>
        <time>2022-05-22 20:37:46</time>
      </trkpt>
      <trkpt lat="42.6433" lon="1.02221">
        <ele>1595.4</ele>
        <time>2022-05-22 20:37:47</time>
      </trkpt>
      <trkpt lat="42.64331" lon="1.02218">
        <ele>1595.6</ele>
        <time>2022-05-22 20:37:48</time>
      </trkpt>
      <trkpt lat="42.64332" lon="1.02216">
        <ele>1595.8</ele>
        <time>2022-05-22 20:37:49</time>
      </trkpt>
      <trkpt lat="42.64332" lon="1.02214">
        <ele>1595.8</ele>
        <time>2022-05-22 20:37:50</time>
      </trkpt>
      <trkpt lat="42.64332" lon="1.0221">
        <ele>1596</ele>
        <time>2022-05-22 20:37:51</time>
      </trkpt>
      <trkpt lat="42.64332" lon="1.02207">
        <ele>1596.2</ele>
        <time>2022-05-22 20:37:52</time>
      </trkpt>
      <trkpt lat="42.64332" lon="1.02203">
        <ele>1596.4</ele>
        <time>2022-05-22 20:37:53</time>
      </trkpt>
      <trkpt lat="42.64333" lon="1.02201">
        <ele>1596.6</ele>
        <time>2022-05-22 20:37:54</time>
      </trkpt>
      <trkpt lat="42.64333" lon="1.02197">
        <ele>1596.6</ele>
        <time>2022-05-22 20:37:55</time>
      </trkpt>
      <trkpt lat="42.64333" lon="1.02194">
        <ele>1596.8</ele>
        <time>2022-05-22 20:37:56</time>
      </trkpt>
      <trkpt lat="42.64333" lon="1.0219">
        <ele>1597</ele>
        <time>2022-05-22 20:37:57</time>
      </trkpt>
      <trkpt lat="42.64333" lon="1.02187">
        <ele>1597.2</ele>
        <time>2022-05-22 20:37:58</time>
      </trkpt>
      <trkpt lat="42.64333" lon="1.02184">
        <ele>1597.4</ele>
        <time>2022-05-22 20:37:59</time>
      </trkpt>
      <trkpt lat="42.64334" lon="1.02179">
        <ele>1597.6</ele>
        <time>2022-05-22 20:38:00</time>
      </trkpt>
      <trkpt lat="42.64335" lon="1.02177">
        <ele>1597.6</ele>
        <time>2022-05-22 20:38:01</time>
      </trkpt>
      <trkpt lat="42.64336" lon="1.02174">
        <ele>1597.8</ele>
        <time>2022-05-22 20:38:02</time>
      </trkpt>
      <trkpt lat="42.64336" lon="1.02172">
        <ele>1598</ele>
        <time>2022-05-22 20:38:03</time>
      </trkpt>
      <trkpt lat="42.64337" lon="1.02169">
        <ele>1598.2</ele>
        <time>2022-05-22 20:38:04</time>
      </trkpt>
      <trkpt lat="42.64337" lon="1.02167">
        <ele>1598.4</ele>
        <time>2022-05-22 20:38:05</time>
      </trkpt>
      <trkpt lat="42.64338" lon="1.02164">
        <ele>1598.6</ele>
        <time>2022-05-22 20:38:06</time>
      </trkpt>
      <trkpt lat="42.64338" lon="1.02162">
        <ele>1598.6</ele>
        <time>2022-05-22 20:38:07</time>
      </trkpt>
      <trkpt lat="42.64339" lon="1.02159">
        <ele>1598.8</ele>
        <time>2022-05-22 20:38:08</time>
      </trkpt>
      <trkpt lat="42.6434" lon="1.02156">
        <ele>1599</ele>
        <time>2022-05-22 20:38:09</time>
      </trkpt>
      <trkpt lat="42.64341" lon="1.02154">
        <ele>1599.2</ele>
        <time>2022-05-22 20:38:10</time>
      </trkpt>
      <trkpt lat="42.64342" lon="1.02151">
        <ele>1599.4</ele>
        <time>2022-05-22 20:38:11</time>
      </trkpt>
      <trkpt lat="42.64343" lon="1.02149">
        <ele>1599.4</ele>
        <time>2022-05-22 20:38:12</time>
      </trkpt>
      <trkpt lat="42.64344" lon="1.02146">
        <ele>1599.6</ele>
        <time>2022-05-22 20:38:13</time>
      </trkpt>
      <trkpt lat="42.64345" lon="1.02144">
        <ele>1599.8</ele>
        <time>2022-05-22 20:38:14</time>
      </trkpt>
      <trkpt lat="42.64345" lon="1.02142">
        <ele>1600</ele>
        <time>2022-05-22 20:38:15</time>
      </trkpt>
      <trkpt lat="42.64346" lon="1.02139">
        <ele>1600</ele>
        <time>2022-05-22 20:38:16</time>
      </trkpt>
      <trkpt lat="42.64346" lon="1.02137">
        <ele>1600.2</ele>
        <time>2022-05-22 20:38:17</time>
      </trkpt>
      <trkpt lat="42.64347" lon="1.02134">
        <ele>1600.4</ele>
        <time>2022-05-22 20:38:18</time>
      </trkpt>
      <trkpt lat="42.64347" lon="1.02132">
        <ele>1600.4</ele>
        <time>2022-05-22 20:38:19</time>
      </trkpt>
      <trkpt lat="42.64348" lon="1.02129">
        <ele>1600.6</ele>
        <time>2022-05-22 20:38:20</time>
      </trkpt>
      <trkpt lat="42.64348" lon="1.02127">
        <ele>1600.8</ele>
        <time>2022-05-22 20:38:21</time>
      </trkpt>
      <trkpt lat="42.64349" lon="1.02124">
        <ele>1600.8</ele>
        <time>2022-05-22 20:38:22</time>
      </trkpt>
      <trkpt lat="42.6435" lon="1.02122">
        <ele>1601</ele>
        <time>2022-05-22 20:38:23</time>
      </trkpt>
      <trkpt lat="42.64351" lon="1.0212">
        <ele>1601.2</ele>
        <time>2022-05-22 20:38:24</time>
      </trkpt>
      <trkpt lat="42.64353" lon="1.02119">
        <ele>1601.2</ele>
        <time>2022-05-22 20:38:25</time>
      </trkpt>
      <trkpt lat="42.64354" lon="1.02116">
        <ele>1601.4</ele>
        <time>2022-05-22 20:38:26</time>
      </trkpt>
      <trkpt lat="42.64355" lon="1.02114">
        <ele>1601.6</ele>
        <time>2022-05-22 20:38:27</time>
      </trkpt>
      <trkpt lat="42.64356" lon="1.02112">
        <ele>1601.8</ele>
        <time>2022-05-22 20:38:28</time>
      </trkpt>
      <trkpt lat="42.64356" lon="1.0211">
        <ele>1602</ele>
        <time>2022-05-22 20:38:29</time>
      </trkpt>
      <trkpt lat="42.64357" lon="1.02108">
        <ele>1602</ele>
        <time>2022-05-22 20:38:30</time>
      </trkpt>
      <trkpt lat="42.64358" lon="1.02106">
        <ele>1602.2</ele>
        <time>2022-05-22 20:38:31</time>
      </trkpt>
      <trkpt lat="42.64359" lon="1.02104">
        <ele>1602.4</ele>
        <time>2022-05-22 20:38:32</time>
      </trkpt>
      <trkpt lat="42.6436" lon="1.02102">
        <ele>1602.6</ele>
        <time>2022-05-22 20:38:33</time>
      </trkpt>
      <trkpt lat="42.64361" lon="1.02101">
        <ele>1602.6</ele>
        <time>2022-05-22 20:38:34</time>
      </trkpt>
      <trkpt lat="42.64362" lon="1.02099">
        <ele>1602.8</ele>
        <time>2022-05-22 20:38:35</time>
      </trkpt>
      <trkpt lat="42.64363" lon="1.02097">
        <ele>1603</ele>
        <time>2022-05-22 20:38:36</time>
      </trkpt>
      <trkpt lat="42.64363" lon="1.02096">
        <ele>1603.2</ele>
        <time>2022-05-22 20:38:37</time>
      </trkpt>
      <trkpt lat="42.64365" lon="1.02094">
        <ele>1603.2</ele>
        <time>2022-05-22 20:38:38</time>
      </trkpt>
      <trkpt lat="42.64366" lon="1.02092">
        <ele>1603.4</ele>
        <time>2022-05-22 20:38:39</time>
      </trkpt>
      <trkpt lat="42.64367" lon="1.02091">
        <ele>1603.6</ele>
        <time>2022-05-22 20:38:40</time>
      </trkpt>
      <trkpt lat="42.64369" lon="1.02089">
        <ele>1603.8</ele>
        <time>2022-05-22 20:38:41</time>
      </trkpt>
      <trkpt lat="42.6437" lon="1.02087">
        <ele>1603.8</ele>
        <time>2022-05-22 20:38:42</time>
      </trkpt>
      <trkpt lat="42.64372" lon="1.02085">
        <ele>1604</ele>
        <time>2022-05-22 20:38:43</time>
      </trkpt>
      <trkpt lat="42.64372" lon="1.02083">
        <ele>1604.2</ele>
        <time>2022-05-22 20:38:44</time>
      </trkpt>
      <trkpt lat="42.64373" lon="1.02081">
        <ele>1604.4</ele>
        <time>2022-05-22 20:38:45</time>
      </trkpt>
      <trkpt lat="42.64374" lon="1.02079">
        <ele>1604.4</ele>
        <time>2022-05-22 20:38:46</time>
      </trkpt>
      <trkpt lat="42.64375" lon="1.02077">
        <ele>1604.6</ele>
        <time>2022-05-22 20:38:47</time>
      </trkpt>
      <trkpt lat="42.64377" lon="1.02075">
        <ele>1604.8</ele>
        <time>2022-05-22 20:38:48</time>
      </trkpt>
      <trkpt lat="42.64378" lon="1.02072">
        <ele>1604.8</ele>
        <time>2022-05-22 20:38:49</time>
      </trkpt>
      <trkpt lat="42.64378" lon="1.02069">
        <ele>1605</ele>
        <time>2022-05-22 20:38:50</time>
      </trkpt>
      <trkpt lat="42.64379" lon="1.02067">
        <ele>1605.2</ele>
        <time>2022-05-22 20:38:51</time>
      </trkpt>
      <trkpt lat="42.64379" lon="1.02065">
        <ele>1605.4</ele>
        <time>2022-05-22 20:38:52</time>
      </trkpt>
      <trkpt lat="42.6438" lon="1.02062">
        <ele>1605.4</ele>
        <time>2022-05-22 20:38:53</time>
      </trkpt>
      <trkpt lat="42.64381" lon="1.02059">
        <ele>1605.6</ele>
        <time>2022-05-22 20:38:54</time>
      </trkpt>
      <trkpt lat="42.64381" lon="1.02056">
        <ele>1605.6</ele>
        <time>2022-05-22 20:38:55</time>
      </trkpt>
      <trkpt lat="42.64381" lon="1.02054">
        <ele>1605.8</ele>
        <time>2022-05-22 20:38:56</time>
      </trkpt>
      <trkpt lat="42.64381" lon="1.02051">
        <ele>1606</ele>
        <time>2022-05-22 20:38:57</time>
      </trkpt>
      <trkpt lat="42.64382" lon="1.02049">
        <ele>1606.2</ele>
        <time>2022-05-22 20:38:58</time>
      </trkpt>
      <trkpt lat="42.64382" lon="1.02046">
        <ele>1606.2</ele>
        <time>2022-05-22 20:38:59</time>
      </trkpt>
      <trkpt lat="42.64382" lon="1.02044">
        <ele>1606.4</ele>
        <time>2022-05-22 20:39:00</time>
      </trkpt>
      <trkpt lat="42.64383" lon="1.02042">
        <ele>1606.6</ele>
        <time>2022-05-22 20:39:01</time>
      </trkpt>
      <trkpt lat="42.64384" lon="1.02039">
        <ele>1606.6</ele>
        <time>2022-05-22 20:39:02</time>
      </trkpt>
      <trkpt lat="42.64385" lon="1.02037">
        <ele>1606.8</ele>
        <time>2022-05-22 20:39:03</time>
      </trkpt>
      <trkpt lat="42.64385" lon="1.02034">
        <ele>1607</ele>
        <time>2022-05-22 20:39:04</time>
      </trkpt>
      <trkpt lat="42.64385" lon="1.02031">
        <ele>1607</ele>
        <time>2022-05-22 20:39:05</time>
      </trkpt>
      <trkpt lat="42.64385" lon="1.02029">
        <ele>1607.2</ele>
        <time>2022-05-22 20:39:06</time>
      </trkpt>
      <trkpt lat="42.64386" lon="1.02026">
        <ele>1607.4</ele>
        <time>2022-05-22 20:39:07</time>
      </trkpt>
      <trkpt lat="42.64386" lon="1.02023">
        <ele>1607.6</ele>
        <time>2022-05-22 20:39:08</time>
      </trkpt>
      <trkpt lat="42.64387" lon="1.0202">
        <ele>1607.6</ele>
        <time>2022-05-22 20:39:09</time>
      </trkpt>
      <trkpt lat="42.64387" lon="1.02018">
        <ele>1607.8</ele>
        <time>2022-05-22 20:39:10</time>
      </trkpt>
      <trkpt lat="42.64387" lon="1.02015">
        <ele>1608</ele>
        <time>2022-05-22 20:39:11</time>
      </trkpt>
      <trkpt lat="42.64388" lon="1.02013">
        <ele>1608</ele>
        <time>2022-05-22 20:39:12</time>
      </trkpt>
      <trkpt lat="42.64389" lon="1.0201">
        <ele>1608.2</ele>
        <time>2022-05-22 20:39:13</time>
      </trkpt>
      <trkpt lat="42.64389" lon="1.02008">
        <ele>1608.4</ele>
        <time>2022-05-22 20:39:14</time>
      </trkpt>
      <trkpt lat="42.6439" lon="1.02006">
        <ele>1608.4</ele>
        <time>2022-05-22 20:39:15</time>
      </trkpt>
      <trkpt lat="42.64391" lon="1.02004">
        <ele>1608.4</ele>
        <time>2022-05-22 20:39:16</time>
      </trkpt>
      <trkpt lat="42.64392" lon="1.02001">
        <ele>1608.6</ele>
        <time>2022-05-22 20:39:17</time>
      </trkpt>
      <trkpt lat="42.64393" lon="1.01999">
        <ele>1608.8</ele>
        <time>2022-05-22 20:39:18</time>
      </trkpt>
      <trkpt lat="42.64394" lon="1.01997">
        <ele>1609</ele>
        <time>2022-05-22 20:39:19</time>
      </trkpt>
      <trkpt lat="42.64395" lon="1.01994">
        <ele>1609</ele>
        <time>2022-05-22 20:39:20</time>
      </trkpt>
      <trkpt lat="42.64395" lon="1.01991">
        <ele>1609.2</ele>
        <time>2022-05-22 20:39:21</time>
      </trkpt>
      <trkpt lat="42.64395" lon="1.01989">
        <ele>1609.4</ele>
        <time>2022-05-22 20:39:22</time>
      </trkpt>
      <trkpt lat="42.64396" lon="1.01986">
        <ele>1609.6</ele>
        <time>2022-05-22 20:39:23</time>
      </trkpt>
      <trkpt lat="42.64398" lon="1.01984">
        <ele>1609.6</ele>
        <time>2022-05-22 20:39:24</time>
      </trkpt>
      <trkpt lat="42.64398" lon="1.01982">
        <ele>1609.8</ele>
        <time>2022-05-22 20:39:25</time>
      </trkpt>
      <trkpt lat="42.64399" lon="1.0198">
        <ele>1610</ele>
        <time>2022-05-22 20:39:26</time>
      </trkpt>
      <trkpt lat="42.644" lon="1.01977">
        <ele>1610</ele>
        <time>2022-05-22 20:39:27</time>
      </trkpt>
      <trkpt lat="42.64401" lon="1.01975">
        <ele>1610.2</ele>
        <time>2022-05-22 20:39:28</time>
      </trkpt>
      <trkpt lat="42.64402" lon="1.01972">
        <ele>1610.4</ele>
        <time>2022-05-22 20:39:29</time>
      </trkpt>
      <trkpt lat="42.64402" lon="1.0197">
        <ele>1610.4</ele>
        <time>2022-05-22 20:39:30</time>
      </trkpt>
      <trkpt lat="42.64403" lon="1.01967">
        <ele>1610.6</ele>
        <time>2022-05-22 20:39:31</time>
      </trkpt>
      <trkpt lat="42.64403" lon="1.01964">
        <ele>1610.8</ele>
        <time>2022-05-22 20:39:32</time>
      </trkpt>
      <trkpt lat="42.64403" lon="1.01961">
        <ele>1611</ele>
        <time>2022-05-22 20:39:33</time>
      </trkpt>
      <trkpt lat="42.64404" lon="1.01958">
        <ele>1611</ele>
        <time>2022-05-22 20:39:34</time>
      </trkpt>
      <trkpt lat="42.64404" lon="1.01956">
        <ele>1611.2</ele>
        <time>2022-05-22 20:39:35</time>
      </trkpt>
      <trkpt lat="42.64405" lon="1.01953">
        <ele>1611.4</ele>
        <time>2022-05-22 20:39:36</time>
      </trkpt>
      <trkpt lat="42.64406" lon="1.0195">
        <ele>1611.6</ele>
        <time>2022-05-22 20:39:37</time>
      </trkpt>
      <trkpt lat="42.64406" lon="1.01948">
        <ele>1611.6</ele>
        <time>2022-05-22 20:39:38</time>
      </trkpt>
      <trkpt lat="42.64407" lon="1.01945">
        <ele>1611.8</ele>
        <time>2022-05-22 20:39:39</time>
      </trkpt>
      <trkpt lat="42.64408" lon="1.01942">
        <ele>1612</ele>
        <time>2022-05-22 20:39:40</time>
      </trkpt>
      <trkpt lat="42.64409" lon="1.01939">
        <ele>1612</ele>
        <time>2022-05-22 20:39:41</time>
      </trkpt>
      <trkpt lat="42.6441" lon="1.01937">
        <ele>1612.2</ele>
        <time>2022-05-22 20:39:42</time>
      </trkpt>
      <trkpt lat="42.64411" lon="1.01935">
        <ele>1612.4</ele>
        <time>2022-05-22 20:39:43</time>
      </trkpt>
      <trkpt lat="42.64412" lon="1.01932">
        <ele>1612.4</ele>
        <time>2022-05-22 20:39:44</time>
      </trkpt>
      <trkpt lat="42.64413" lon="1.01929">
        <ele>1612.6</ele>
        <time>2022-05-22 20:39:45</time>
      </trkpt>
      <trkpt lat="42.64413" lon="1.01926">
        <ele>1612.8</ele>
        <time>2022-05-22 20:39:46</time>
      </trkpt>
      <trkpt lat="42.64414" lon="1.01923">
        <ele>1613</ele>
        <time>2022-05-22 20:39:47</time>
      </trkpt>
      <trkpt lat="42.64414" lon="1.0192">
        <ele>1613</ele>
        <time>2022-05-22 20:39:48</time>
      </trkpt>
      <trkpt lat="42.64415" lon="1.01918">
        <ele>1613.2</ele>
        <time>2022-05-22 20:39:49</time>
      </trkpt>
      <trkpt lat="42.64415" lon="1.01915">
        <ele>1613.4</ele>
        <time>2022-05-22 20:39:50</time>
      </trkpt>
      <trkpt lat="42.64416" lon="1.01913">
        <ele>1613.6</ele>
        <time>2022-05-22 20:39:51</time>
      </trkpt>
      <trkpt lat="42.64418" lon="1.01911">
        <ele>1613.6</ele>
        <time>2022-05-22 20:39:52</time>
      </trkpt>
      <trkpt lat="42.64419" lon="1.01908">
        <ele>1613.8</ele>
        <time>2022-05-22 20:39:53</time>
      </trkpt>
      <trkpt lat="42.6442" lon="1.01906">
        <ele>1614</ele>
        <time>2022-05-22 20:39:54</time>
      </trkpt>
      <trkpt lat="42.64421" lon="1.01903">
        <ele>1614</ele>
        <time>2022-05-22 20:39:55</time>
      </trkpt>
      <trkpt lat="42.64422" lon="1.019">
        <ele>1614.2</ele>
        <time>2022-05-22 20:39:56</time>
      </trkpt>
      <trkpt lat="42.64422" lon="1.01897">
        <ele>1614.4</ele>
        <time>2022-05-22 20:39:57</time>
      </trkpt>
      <trkpt lat="42.64423" lon="1.01894">
        <ele>1614.4</ele>
        <time>2022-05-22 20:39:58</time>
      </trkpt>
      <trkpt lat="42.64424" lon="1.01892">
        <ele>1614.6</ele>
        <time>2022-05-22 20:39:59</time>
      </trkpt>
      <trkpt lat="42.64425" lon="1.01889">
        <ele>1614.8</ele>
        <time>2022-05-22 20:40:00</time>
      </trkpt>
      <trkpt lat="42.64425" lon="1.01886">
        <ele>1615</ele>
        <time>2022-05-22 20:40:01</time>
      </trkpt>
      <trkpt lat="42.64426" lon="1.01883">
        <ele>1615.2</ele>
        <time>2022-05-22 20:40:02</time>
      </trkpt>
      <trkpt lat="42.64426" lon="1.0188">
        <ele>1615.4</ele>
        <time>2022-05-22 20:40:03</time>
      </trkpt>
      <trkpt lat="42.64426" lon="1.01878">
        <ele>1615.4</ele>
        <time>2022-05-22 20:40:04</time>
      </trkpt>
      <trkpt lat="42.64427" lon="1.01875">
        <ele>1615.6</ele>
        <time>2022-05-22 20:40:05</time>
      </trkpt>
      <trkpt lat="42.64427" lon="1.01873">
        <ele>1615.8</ele>
        <time>2022-05-22 20:40:06</time>
      </trkpt>
      <trkpt lat="42.64428" lon="1.01869">
        <ele>1616</ele>
        <time>2022-05-22 20:40:07</time>
      </trkpt>
      <trkpt lat="42.64429" lon="1.01866">
        <ele>1616.2</ele>
        <time>2022-05-22 20:40:08</time>
      </trkpt>
      <trkpt lat="42.64429" lon="1.01863">
        <ele>1616.2</ele>
        <time>2022-05-22 20:40:09</time>
      </trkpt>
      <trkpt lat="42.6443" lon="1.01861">
        <ele>1616.4</ele>
        <time>2022-05-22 20:40:10</time>
      </trkpt>
      <trkpt lat="42.64431" lon="1.01857">
        <ele>1616.6</ele>
        <time>2022-05-22 20:40:11</time>
      </trkpt>
      <trkpt lat="42.64432" lon="1.01855">
        <ele>1616.8</ele>
        <time>2022-05-22 20:40:12</time>
      </trkpt>
      <trkpt lat="42.64433" lon="1.01852">
        <ele>1617</ele>
        <time>2022-05-22 20:40:13</time>
      </trkpt>
      <trkpt lat="42.64433" lon="1.01849">
        <ele>1617.2</ele>
        <time>2022-05-22 20:40:14</time>
      </trkpt>
      <trkpt lat="42.64434" lon="1.01846">
        <ele>1617.2</ele>
        <time>2022-05-22 20:40:15</time>
      </trkpt>
      <trkpt lat="42.64434" lon="1.01843">
        <ele>1617.4</ele>
        <time>2022-05-22 20:40:16</time>
      </trkpt>
      <trkpt lat="42.64435" lon="1.01841">
        <ele>1617.6</ele>
        <time>2022-05-22 20:40:17</time>
      </trkpt>
      <trkpt lat="42.64436" lon="1.01838">
        <ele>1617.8</ele>
        <time>2022-05-22 20:40:18</time>
      </trkpt>
      <trkpt lat="42.64437" lon="1.01836">
        <ele>1617.8</ele>
        <time>2022-05-22 20:40:19</time>
      </trkpt>
      <trkpt lat="42.64437" lon="1.01834">
        <ele>1618</ele>
        <time>2022-05-22 20:40:20</time>
      </trkpt>
      <trkpt lat="42.64438" lon="1.01831">
        <ele>1618.2</ele>
        <time>2022-05-22 20:40:21</time>
      </trkpt>
      <trkpt lat="42.64439" lon="1.01829">
        <ele>1618.4</ele>
        <time>2022-05-22 20:40:22</time>
      </trkpt>
      <trkpt lat="42.64439" lon="1.01826">
        <ele>1618.4</ele>
        <time>2022-05-22 20:40:23</time>
      </trkpt>
      <trkpt lat="42.64439" lon="1.01823">
        <ele>1618.6</ele>
        <time>2022-05-22 20:40:24</time>
      </trkpt>
      <trkpt lat="42.6444" lon="1.0182">
        <ele>1618.8</ele>
        <time>2022-05-22 20:40:25</time>
      </trkpt>
      <trkpt lat="42.6444" lon="1.01818">
        <ele>1619</ele>
        <time>2022-05-22 20:40:26</time>
      </trkpt>
      <trkpt lat="42.64441" lon="1.01815">
        <ele>1619</ele>
        <time>2022-05-22 20:40:27</time>
      </trkpt>
      <trkpt lat="42.64442" lon="1.01813">
        <ele>1619.2</ele>
        <time>2022-05-22 20:40:28</time>
      </trkpt>
      <trkpt lat="42.64442" lon="1.01811">
        <ele>1619.4</ele>
        <time>2022-05-22 20:40:29</time>
      </trkpt>
      <trkpt lat="42.64443" lon="1.01808">
        <ele>1619.4</ele>
        <time>2022-05-22 20:40:30</time>
      </trkpt>
      <trkpt lat="42.64443" lon="1.01805">
        <ele>1619.6</ele>
        <time>2022-05-22 20:40:31</time>
      </trkpt>
      <trkpt lat="42.64444" lon="1.01803">
        <ele>1619.8</ele>
        <time>2022-05-22 20:40:32</time>
      </trkpt>
      <trkpt lat="42.64445" lon="1.01801">
        <ele>1620</ele>
        <time>2022-05-22 20:40:33</time>
      </trkpt>
      <trkpt lat="42.64446" lon="1.01799">
        <ele>1620.2</ele>
        <time>2022-05-22 20:40:34</time>
      </trkpt>
      <trkpt lat="42.64448" lon="1.01797">
        <ele>1620.2</ele>
        <time>2022-05-22 20:40:35</time>
      </trkpt>
      <trkpt lat="42.64449" lon="1.01794">
        <ele>1620.4</ele>
        <time>2022-05-22 20:40:36</time>
      </trkpt>
      <trkpt lat="42.64449" lon="1.01792">
        <ele>1620.6</ele>
        <time>2022-05-22 20:40:37</time>
      </trkpt>
      <trkpt lat="42.6445" lon="1.0179">
        <ele>1620.6</ele>
        <time>2022-05-22 20:40:38</time>
      </trkpt>
      <trkpt lat="42.64451" lon="1.01788">
        <ele>1620.8</ele>
        <time>2022-05-22 20:40:39</time>
      </trkpt>
      <trkpt lat="42.64452" lon="1.01785">
        <ele>1621</ele>
        <time>2022-05-22 20:40:40</time>
      </trkpt>
      <trkpt lat="42.64453" lon="1.01783">
        <ele>1621</ele>
        <time>2022-05-22 20:40:41</time>
      </trkpt>
      <trkpt lat="42.64453" lon="1.01781">
        <ele>1621.2</ele>
        <time>2022-05-22 20:40:42</time>
      </trkpt>
      <trkpt lat="42.64454" lon="1.01778">
        <ele>1621.4</ele>
        <time>2022-05-22 20:40:43</time>
      </trkpt>
      <trkpt lat="42.64454" lon="1.01776">
        <ele>1621.6</ele>
        <time>2022-05-22 20:40:44</time>
      </trkpt>
      <trkpt lat="42.64455" lon="1.01774">
        <ele>1621.6</ele>
        <time>2022-05-22 20:40:45</time>
      </trkpt>
      <trkpt lat="42.64455" lon="1.01771">
        <ele>1621.8</ele>
        <time>2022-05-22 20:40:46</time>
      </trkpt>
      <trkpt lat="42.64456" lon="1.01769">
        <ele>1622</ele>
        <time>2022-05-22 20:40:47</time>
      </trkpt>
      <trkpt lat="42.64456" lon="1.01766">
        <ele>1622</ele>
        <time>2022-05-22 20:40:48</time>
      </trkpt>
      <trkpt lat="42.64457" lon="1.01764">
        <ele>1622.2</ele>
        <time>2022-05-22 20:40:49</time>
      </trkpt>
      <trkpt lat="42.64457" lon="1.01761">
        <ele>1622.4</ele>
        <time>2022-05-22 20:40:50</time>
      </trkpt>
      <trkpt lat="42.64458" lon="1.01758">
        <ele>1622.6</ele>
        <time>2022-05-22 20:40:51</time>
      </trkpt>
      <trkpt lat="42.64459" lon="1.01755">
        <ele>1622.8</ele>
        <time>2022-05-22 20:40:52</time>
      </trkpt>
      <trkpt lat="42.6446" lon="1.01753">
        <ele>1622.8</ele>
        <time>2022-05-22 20:40:53</time>
      </trkpt>
      <trkpt lat="42.6446" lon="1.0175">
        <ele>1623</ele>
        <time>2022-05-22 20:40:54</time>
      </trkpt>
      <trkpt lat="42.64461" lon="1.01747">
        <ele>1623.2</ele>
        <time>2022-05-22 20:40:55</time>
      </trkpt>
      <trkpt lat="42.64461" lon="1.01744">
        <ele>1623.4</ele>
        <time>2022-05-22 20:40:56</time>
      </trkpt>
      <trkpt lat="42.64462" lon="1.01741">
        <ele>1623.4</ele>
        <time>2022-05-22 20:40:57</time>
      </trkpt>
      <trkpt lat="42.64463" lon="1.01739">
        <ele>1623.6</ele>
        <time>2022-05-22 20:40:58</time>
      </trkpt>
      <trkpt lat="42.64463" lon="1.01736">
        <ele>1623.8</ele>
        <time>2022-05-22 20:40:59</time>
      </trkpt>
      <trkpt lat="42.64463" lon="1.01733">
        <ele>1624</ele>
        <time>2022-05-22 20:41:00</time>
      </trkpt>
      <trkpt lat="42.64464" lon="1.0173">
        <ele>1624</ele>
        <time>2022-05-22 20:41:01</time>
      </trkpt>
      <trkpt lat="42.64464" lon="1.01727">
        <ele>1624.2</ele>
        <time>2022-05-22 20:41:02</time>
      </trkpt>
      <trkpt lat="42.64465" lon="1.01724">
        <ele>1624.4</ele>
        <time>2022-05-22 20:41:03</time>
      </trkpt>
      <trkpt lat="42.64465" lon="1.01722">
        <ele>1624.4</ele>
        <time>2022-05-22 20:41:04</time>
      </trkpt>
      <trkpt lat="42.64466" lon="1.01719">
        <ele>1624.6</ele>
        <time>2022-05-22 20:41:05</time>
      </trkpt>
      <trkpt lat="42.64466" lon="1.01716">
        <ele>1624.8</ele>
        <time>2022-05-22 20:41:06</time>
      </trkpt>
      <trkpt lat="42.64466" lon="1.01713">
        <ele>1625</ele>
        <time>2022-05-22 20:41:07</time>
      </trkpt>
      <trkpt lat="42.64467" lon="1.01711">
        <ele>1625.2</ele>
        <time>2022-05-22 20:41:08</time>
      </trkpt>
      <trkpt lat="42.64467" lon="1.01708">
        <ele>1625.2</ele>
        <time>2022-05-22 20:41:09</time>
      </trkpt>
      <trkpt lat="42.64468" lon="1.01705">
        <ele>1625.4</ele>
        <time>2022-05-22 20:41:10</time>
      </trkpt>
      <trkpt lat="42.64468" lon="1.01703">
        <ele>1625.6</ele>
        <time>2022-05-22 20:41:11</time>
      </trkpt>
      <trkpt lat="42.64468" lon="1.017">
        <ele>1625.8</ele>
        <time>2022-05-22 20:41:12</time>
      </trkpt>
      <trkpt lat="42.64468" lon="1.01697">
        <ele>1625.8</ele>
        <time>2022-05-22 20:41:13</time>
      </trkpt>
      <trkpt lat="42.64468" lon="1.01694">
        <ele>1626</ele>
        <time>2022-05-22 20:41:14</time>
      </trkpt>
      <trkpt lat="42.64469" lon="1.01691">
        <ele>1626.2</ele>
        <time>2022-05-22 20:41:15</time>
      </trkpt>
      <trkpt lat="42.64469" lon="1.01689">
        <ele>1626.2</ele>
        <time>2022-05-22 20:41:16</time>
      </trkpt>
      <trkpt lat="42.64469" lon="1.01686">
        <ele>1626.4</ele>
        <time>2022-05-22 20:41:17</time>
      </trkpt>
      <trkpt lat="42.64469" lon="1.01683">
        <ele>1626.6</ele>
        <time>2022-05-22 20:41:18</time>
      </trkpt>
      <trkpt lat="42.6447" lon="1.0168">
        <ele>1626.6</ele>
        <time>2022-05-22 20:41:19</time>
      </trkpt>
      <trkpt lat="42.6447" lon="1.01677">
        <ele>1626.8</ele>
        <time>2022-05-22 20:41:20</time>
      </trkpt>
      <trkpt lat="42.6447" lon="1.01674">
        <ele>1627</ele>
        <time>2022-05-22 20:41:21</time>
      </trkpt>
      <trkpt lat="42.6447" lon="1.01671">
        <ele>1627.2</ele>
        <time>2022-05-22 20:41:22</time>
      </trkpt>
      <trkpt lat="42.6447" lon="1.01668">
        <ele>1627.2</ele>
        <time>2022-05-22 20:41:23</time>
      </trkpt>
      <trkpt lat="42.64471" lon="1.01665">
        <ele>1627.4</ele>
        <time>2022-05-22 20:41:24</time>
      </trkpt>
      <trkpt lat="42.64471" lon="1.01662">
        <ele>1627.6</ele>
        <time>2022-05-22 20:41:25</time>
      </trkpt>
      <trkpt lat="42.64471" lon="1.01659">
        <ele>1627.6</ele>
        <time>2022-05-22 20:41:26</time>
      </trkpt>
      <trkpt lat="42.64472" lon="1.01656">
        <ele>1627.8</ele>
        <time>2022-05-22 20:41:27</time>
      </trkpt>
      <trkpt lat="42.64472" lon="1.01654">
        <ele>1628</ele>
        <time>2022-05-22 20:41:28</time>
      </trkpt>
      <trkpt lat="42.64472" lon="1.01651">
        <ele>1628.2</ele>
        <time>2022-05-22 20:41:29</time>
      </trkpt>
      <trkpt lat="42.64472" lon="1.01648">
        <ele>1628.2</ele>
        <time>2022-05-22 20:41:30</time>
      </trkpt>
      <trkpt lat="42.64473" lon="1.01645">
        <ele>1628.4</ele>
        <time>2022-05-22 20:41:31</time>
      </trkpt>
      <trkpt lat="42.64473" lon="1.01642">
        <ele>1628.6</ele>
        <time>2022-05-22 20:41:32</time>
      </trkpt>
      <trkpt lat="42.64473" lon="1.0164">
        <ele>1628.8</ele>
        <time>2022-05-22 20:41:33</time>
      </trkpt>
      <trkpt lat="42.64473" lon="1.01637">
        <ele>1629</ele>
        <time>2022-05-22 20:41:34</time>
      </trkpt>
      <trkpt lat="42.64473" lon="1.01634">
        <ele>1629</ele>
        <time>2022-05-22 20:41:35</time>
      </trkpt>
      <trkpt lat="42.64474" lon="1.01631">
        <ele>1629.2</ele>
        <time>2022-05-22 20:41:36</time>
      </trkpt>
      <trkpt lat="42.64474" lon="1.01628">
        <ele>1629.4</ele>
        <time>2022-05-22 20:41:37</time>
      </trkpt>
      <trkpt lat="42.64474" lon="1.01626">
        <ele>1629.6</ele>
        <time>2022-05-22 20:41:38</time>
      </trkpt>
      <trkpt lat="42.64474" lon="1.01622">
        <ele>1629.6</ele>
        <time>2022-05-22 20:41:39</time>
      </trkpt>
      <trkpt lat="42.64475" lon="1.01619">
        <ele>1629.8</ele>
        <time>2022-05-22 20:41:40</time>
      </trkpt>
      <trkpt lat="42.64476" lon="1.01616">
        <ele>1630</ele>
        <time>2022-05-22 20:41:41</time>
      </trkpt>
      <trkpt lat="42.64476" lon="1.01613">
        <ele>1630.2</ele>
        <time>2022-05-22 20:41:42</time>
      </trkpt>
      <trkpt lat="42.64476" lon="1.01609">
        <ele>1630.4</ele>
        <time>2022-05-22 20:41:43</time>
      </trkpt>
      <trkpt lat="42.64477" lon="1.01606">
        <ele>1630.6</ele>
        <time>2022-05-22 20:41:44</time>
      </trkpt>
      <trkpt lat="42.64478" lon="1.01603">
        <ele>1630.6</ele>
        <time>2022-05-22 20:41:45</time>
      </trkpt>
      <trkpt lat="42.64478" lon="1.016">
        <ele>1630.8</ele>
        <time>2022-05-22 20:41:46</time>
      </trkpt>
      <trkpt lat="42.64478" lon="1.01597">
        <ele>1631</ele>
        <time>2022-05-22 20:41:47</time>
      </trkpt>
      <trkpt lat="42.6448" lon="1.01594">
        <ele>1631.2</ele>
        <time>2022-05-22 20:41:48</time>
      </trkpt>
      <trkpt lat="42.64481" lon="1.01592">
        <ele>1631.4</ele>
        <time>2022-05-22 20:41:49</time>
      </trkpt>
      <trkpt lat="42.64482" lon="1.01589">
        <ele>1631.4</ele>
        <time>2022-05-22 20:41:50</time>
      </trkpt>
      <trkpt lat="42.64482" lon="1.01587">
        <ele>1631.6</ele>
        <time>2022-05-22 20:41:51</time>
      </trkpt>
      <trkpt lat="42.64483" lon="1.01584">
        <ele>1631.8</ele>
        <time>2022-05-22 20:41:52</time>
      </trkpt>
      <trkpt lat="42.64484" lon="1.0158">
        <ele>1632</ele>
        <time>2022-05-22 20:41:53</time>
      </trkpt>
      <trkpt lat="42.64483" lon="1.01577">
        <ele>1632.2</ele>
        <time>2022-05-22 20:41:54</time>
      </trkpt>
      <trkpt lat="42.64484" lon="1.01574">
        <ele>1632.2</ele>
        <time>2022-05-22 20:41:55</time>
      </trkpt>
      <trkpt lat="42.64484" lon="1.01571">
        <ele>1632.4</ele>
        <time>2022-05-22 20:41:56</time>
      </trkpt>
      <trkpt lat="42.64485" lon="1.01569">
        <ele>1632.6</ele>
        <time>2022-05-22 20:41:57</time>
      </trkpt>
      <trkpt lat="42.64485" lon="1.01566">
        <ele>1632.8</ele>
        <time>2022-05-22 20:41:58</time>
      </trkpt>
      <trkpt lat="42.64486" lon="1.01563">
        <ele>1633</ele>
        <time>2022-05-22 20:41:59</time>
      </trkpt>
      <trkpt lat="42.64487" lon="1.0156">
        <ele>1633</ele>
        <time>2022-05-22 20:42:00</time>
      </trkpt>
      <trkpt lat="42.64488" lon="1.01558">
        <ele>1633.2</ele>
        <time>2022-05-22 20:42:01</time>
      </trkpt>
      <trkpt lat="42.64489" lon="1.01555">
        <ele>1633.4</ele>
        <time>2022-05-22 20:42:02</time>
      </trkpt>
      <trkpt lat="42.6449" lon="1.01552">
        <ele>1633.6</ele>
        <time>2022-05-22 20:42:03</time>
      </trkpt>
      <trkpt lat="42.6449" lon="1.01549">
        <ele>1633.8</ele>
        <time>2022-05-22 20:42:04</time>
      </trkpt>
      <trkpt lat="42.64491" lon="1.01547">
        <ele>1633.8</ele>
        <time>2022-05-22 20:42:05</time>
      </trkpt>
      <trkpt lat="42.64492" lon="1.01544">
        <ele>1634</ele>
        <time>2022-05-22 20:42:06</time>
      </trkpt>
      <trkpt lat="42.64493" lon="1.01541">
        <ele>1634.2</ele>
        <time>2022-05-22 20:42:07</time>
      </trkpt>
      <trkpt lat="42.64494" lon="1.01538">
        <ele>1634.4</ele>
        <time>2022-05-22 20:42:08</time>
      </trkpt>
      <trkpt lat="42.64495" lon="1.01535">
        <ele>1634.6</ele>
        <time>2022-05-22 20:42:09</time>
      </trkpt>
      <trkpt lat="42.64495" lon="1.01533">
        <ele>1634.8</ele>
        <time>2022-05-22 20:42:10</time>
      </trkpt>
      <trkpt lat="42.64496" lon="1.0153">
        <ele>1634.8</ele>
        <time>2022-05-22 20:42:11</time>
      </trkpt>
      <trkpt lat="42.64497" lon="1.01526">
        <ele>1635</ele>
        <time>2022-05-22 20:42:12</time>
      </trkpt>
      <trkpt lat="42.64497" lon="1.01523">
        <ele>1635.2</ele>
        <time>2022-05-22 20:42:13</time>
      </trkpt>
      <trkpt lat="42.64498" lon="1.01521">
        <ele>1635.4</ele>
        <time>2022-05-22 20:42:14</time>
      </trkpt>
      <trkpt lat="42.64498" lon="1.01517">
        <ele>1635.6</ele>
        <time>2022-05-22 20:42:15</time>
      </trkpt>
      <trkpt lat="42.64499" lon="1.01514">
        <ele>1635.6</ele>
        <time>2022-05-22 20:42:16</time>
      </trkpt>
      <trkpt lat="42.645" lon="1.01511">
        <ele>1635.8</ele>
        <time>2022-05-22 20:42:17</time>
      </trkpt>
      <trkpt lat="42.645" lon="1.01508">
        <ele>1636</ele>
        <time>2022-05-22 20:42:18</time>
      </trkpt>
      <trkpt lat="42.64501" lon="1.01504">
        <ele>1636.2</ele>
        <time>2022-05-22 20:42:19</time>
      </trkpt>
      <trkpt lat="42.64502" lon="1.01501">
        <ele>1636.4</ele>
        <time>2022-05-22 20:42:20</time>
      </trkpt>
      <trkpt lat="42.64503" lon="1.01498">
        <ele>1636.6</ele>
        <time>2022-05-22 20:42:21</time>
      </trkpt>
      <trkpt lat="42.64504" lon="1.01495">
        <ele>1636.8</ele>
        <time>2022-05-22 20:42:22</time>
      </trkpt>
      <trkpt lat="42.64505" lon="1.01492">
        <ele>1637</ele>
        <time>2022-05-22 20:42:23</time>
      </trkpt>
      <trkpt lat="42.64506" lon="1.01489">
        <ele>1637</ele>
        <time>2022-05-22 20:42:24</time>
      </trkpt>
      <trkpt lat="42.64507" lon="1.01486">
        <ele>1637.2</ele>
        <time>2022-05-22 20:42:25</time>
      </trkpt>
      <trkpt lat="42.64508" lon="1.01484">
        <ele>1637.4</ele>
        <time>2022-05-22 20:42:26</time>
      </trkpt>
      <trkpt lat="42.6451" lon="1.01481">
        <ele>1637.6</ele>
        <time>2022-05-22 20:42:27</time>
      </trkpt>
      <trkpt lat="42.64511" lon="1.01477">
        <ele>1637.8</ele>
        <time>2022-05-22 20:42:28</time>
      </trkpt>
      <trkpt lat="42.64512" lon="1.01474">
        <ele>1638.2</ele>
        <time>2022-05-22 20:42:29</time>
      </trkpt>
      <trkpt lat="42.64513" lon="1.01471">
        <ele>1638.4</ele>
        <time>2022-05-22 20:42:30</time>
      </trkpt>
      <trkpt lat="42.64513" lon="1.01467">
        <ele>1638.6</ele>
        <time>2022-05-22 20:42:31</time>
      </trkpt>
      <trkpt lat="42.64515" lon="1.01464">
        <ele>1638.8</ele>
        <time>2022-05-22 20:42:32</time>
      </trkpt>
      <trkpt lat="42.64516" lon="1.0146">
        <ele>1639</ele>
        <time>2022-05-22 20:42:33</time>
      </trkpt>
      <trkpt lat="42.64516" lon="1.01457">
        <ele>1639.2</ele>
        <time>2022-05-22 20:42:34</time>
      </trkpt>
      <trkpt lat="42.64517" lon="1.01454">
        <ele>1639.4</ele>
        <time>2022-05-22 20:42:35</time>
      </trkpt>
      <trkpt lat="42.64518" lon="1.0145">
        <ele>1639.6</ele>
        <time>2022-05-22 20:42:36</time>
      </trkpt>
      <trkpt lat="42.64519" lon="1.01447">
        <ele>1639.8</ele>
        <time>2022-05-22 20:42:37</time>
      </trkpt>
      <trkpt lat="42.6452" lon="1.01444">
        <ele>1640</ele>
        <time>2022-05-22 20:42:38</time>
      </trkpt>
      <trkpt lat="42.64521" lon="1.01441">
        <ele>1640.2</ele>
        <time>2022-05-22 20:42:39</time>
      </trkpt>
      <trkpt lat="42.64522" lon="1.01438">
        <ele>1640.2</ele>
        <time>2022-05-22 20:42:40</time>
      </trkpt>
      <trkpt lat="42.64523" lon="1.01434">
        <ele>1640.4</ele>
        <time>2022-05-22 20:42:41</time>
      </trkpt>
      <trkpt lat="42.64524" lon="1.01432">
        <ele>1640.6</ele>
        <time>2022-05-22 20:42:42</time>
      </trkpt>
      <trkpt lat="42.64526" lon="1.01428">
        <ele>1640.8</ele>
        <time>2022-05-22 20:42:43</time>
      </trkpt>
      <trkpt lat="42.64527" lon="1.01425">
        <ele>1641</ele>
        <time>2022-05-22 20:42:44</time>
      </trkpt>
      <trkpt lat="42.64529" lon="1.01422">
        <ele>1641.2</ele>
        <time>2022-05-22 20:42:45</time>
      </trkpt>
      <trkpt lat="42.6453" lon="1.0142">
        <ele>1641.2</ele>
        <time>2022-05-22 20:42:46</time>
      </trkpt>
      <trkpt lat="42.64531" lon="1.01417">
        <ele>1641.4</ele>
        <time>2022-05-22 20:42:47</time>
      </trkpt>
      <trkpt lat="42.64532" lon="1.01414">
        <ele>1641.6</ele>
        <time>2022-05-22 20:42:48</time>
      </trkpt>
      <trkpt lat="42.64534" lon="1.01411">
        <ele>1641.8</ele>
        <time>2022-05-22 20:42:49</time>
      </trkpt>
      <trkpt lat="42.64535" lon="1.01408">
        <ele>1642</ele>
        <time>2022-05-22 20:42:50</time>
      </trkpt>
      <trkpt lat="42.64536" lon="1.01404">
        <ele>1642.2</ele>
        <time>2022-05-22 20:42:51</time>
      </trkpt>
      <trkpt lat="42.64538" lon="1.014">
        <ele>1642.4</ele>
        <time>2022-05-22 20:42:52</time>
      </trkpt>
      <trkpt lat="42.64539" lon="1.01397">
        <ele>1642.6</ele>
        <time>2022-05-22 20:42:53</time>
      </trkpt>
      <trkpt lat="42.6454" lon="1.01394">
        <ele>1642.8</ele>
        <time>2022-05-22 20:42:54</time>
      </trkpt>
      <trkpt lat="42.64542" lon="1.01391">
        <ele>1643</ele>
        <time>2022-05-22 20:42:55</time>
      </trkpt>
      <trkpt lat="42.64543" lon="1.01388">
        <ele>1643.2</ele>
        <time>2022-05-22 20:42:56</time>
      </trkpt>
      <trkpt lat="42.64544" lon="1.01385">
        <ele>1643.4</ele>
        <time>2022-05-22 20:42:57</time>
      </trkpt>
      <trkpt lat="42.64545" lon="1.01383">
        <ele>1643.4</ele>
        <time>2022-05-22 20:42:58</time>
      </trkpt>
      <trkpt lat="42.64546" lon="1.01379">
        <ele>1643.8</ele>
        <time>2022-05-22 20:42:59</time>
      </trkpt>
      <trkpt lat="42.64547" lon="1.01376">
        <ele>1644</ele>
        <time>2022-05-22 20:43:00</time>
      </trkpt>
      <trkpt lat="42.64548" lon="1.01372">
        <ele>1644</ele>
        <time>2022-05-22 20:43:01</time>
      </trkpt>
      <trkpt lat="42.64549" lon="1.01369">
        <ele>1644.2</ele>
        <time>2022-05-22 20:43:02</time>
      </trkpt>
      <trkpt lat="42.64549" lon="1.01366">
        <ele>1644.4</ele>
        <time>2022-05-22 20:43:03</time>
      </trkpt>
      <trkpt lat="42.6455" lon="1.01363">
        <ele>1644.6</ele>
        <time>2022-05-22 20:43:04</time>
      </trkpt>
      <trkpt lat="42.64551" lon="1.0136">
        <ele>1644.8</ele>
        <time>2022-05-22 20:43:05</time>
      </trkpt>
      <trkpt lat="42.64552" lon="1.01357">
        <ele>1645</ele>
        <time>2022-05-22 20:43:06</time>
      </trkpt>
      <trkpt lat="42.64553" lon="1.01354">
        <ele>1645.2</ele>
        <time>2022-05-22 20:43:07</time>
      </trkpt>
      <trkpt lat="42.64554" lon="1.0135">
        <ele>1645.4</ele>
        <time>2022-05-22 20:43:08</time>
      </trkpt>
      <trkpt lat="42.64555" lon="1.01347">
        <ele>1645.6</ele>
        <time>2022-05-22 20:43:09</time>
      </trkpt>
      <trkpt lat="42.64556" lon="1.01345">
        <ele>1645.8</ele>
        <time>2022-05-22 20:43:10</time>
      </trkpt>
      <trkpt lat="42.64557" lon="1.01341">
        <ele>1646</ele>
        <time>2022-05-22 20:43:11</time>
      </trkpt>
      <trkpt lat="42.64557" lon="1.01338">
        <ele>1646.2</ele>
        <time>2022-05-22 20:43:12</time>
      </trkpt>
      <trkpt lat="42.64559" lon="1.01335">
        <ele>1646.4</ele>
        <time>2022-05-22 20:43:13</time>
      </trkpt>
      <trkpt lat="42.64559" lon="1.01332">
        <ele>1646.6</ele>
        <time>2022-05-22 20:43:14</time>
      </trkpt>
      <trkpt lat="42.6456" lon="1.01328">
        <ele>1646.8</ele>
        <time>2022-05-22 20:43:15</time>
      </trkpt>
      <trkpt lat="42.64561" lon="1.01325">
        <ele>1647</ele>
        <time>2022-05-22 20:43:16</time>
      </trkpt>
      <trkpt lat="42.64562" lon="1.01322">
        <ele>1647.2</ele>
        <time>2022-05-22 20:43:17</time>
      </trkpt>
      <trkpt lat="42.64563" lon="1.01319">
        <ele>1647.4</ele>
        <time>2022-05-22 20:43:18</time>
      </trkpt>
      <trkpt lat="42.64564" lon="1.01316">
        <ele>1647.6</ele>
        <time>2022-05-22 20:43:19</time>
      </trkpt>
      <trkpt lat="42.64565" lon="1.01313">
        <ele>1647.8</ele>
        <time>2022-05-22 20:43:20</time>
      </trkpt>
      <trkpt lat="42.64566" lon="1.0131">
        <ele>1648</ele>
        <time>2022-05-22 20:43:21</time>
      </trkpt>
      <trkpt lat="42.64567" lon="1.01308">
        <ele>1648.2</ele>
        <time>2022-05-22 20:43:22</time>
      </trkpt>
      <trkpt lat="42.64568" lon="1.01305">
        <ele>1648.4</ele>
        <time>2022-05-22 20:43:23</time>
      </trkpt>
      <trkpt lat="42.64569" lon="1.01301">
        <ele>1648.6</ele>
        <time>2022-05-22 20:43:24</time>
      </trkpt>
      <trkpt lat="42.64569" lon="1.01299">
        <ele>1648.8</ele>
        <time>2022-05-22 20:43:25</time>
      </trkpt>
      <trkpt lat="42.6457" lon="1.01296">
        <ele>1648.8</ele>
        <time>2022-05-22 20:43:26</time>
      </trkpt>
      <trkpt lat="42.64571" lon="1.01293">
        <ele>1649</ele>
        <time>2022-05-22 20:43:27</time>
      </trkpt>
      <trkpt lat="42.64572" lon="1.0129">
        <ele>1649.2</ele>
        <time>2022-05-22 20:43:28</time>
      </trkpt>
      <trkpt lat="42.64573" lon="1.01287">
        <ele>1649.4</ele>
        <time>2022-05-22 20:43:29</time>
      </trkpt>
      <trkpt lat="42.64574" lon="1.01284">
        <ele>1649.6</ele>
        <time>2022-05-22 20:43:30</time>
      </trkpt>
      <trkpt lat="42.64575" lon="1.01281">
        <ele>1649.8</ele>
        <time>2022-05-22 20:43:31</time>
      </trkpt>
      <trkpt lat="42.64575" lon="1.01277">
        <ele>1650</ele>
        <time>2022-05-22 20:43:32</time>
      </trkpt>
      <trkpt lat="42.64576" lon="1.01274">
        <ele>1650.2</ele>
        <time>2022-05-22 20:43:33</time>
      </trkpt>
      <trkpt lat="42.64577" lon="1.01272">
        <ele>1650.4</ele>
        <time>2022-05-22 20:43:34</time>
      </trkpt>
      <trkpt lat="42.64578" lon="1.01269">
        <ele>1650.6</ele>
        <time>2022-05-22 20:43:35</time>
      </trkpt>
      <trkpt lat="42.64579" lon="1.01266">
        <ele>1650.8</ele>
        <time>2022-05-22 20:43:36</time>
      </trkpt>
      <trkpt lat="42.6458" lon="1.01263">
        <ele>1650.8</ele>
        <time>2022-05-22 20:43:37</time>
      </trkpt>
      <trkpt lat="42.64581" lon="1.0126">
        <ele>1651</ele>
        <time>2022-05-22 20:43:38</time>
      </trkpt>
      <trkpt lat="42.64582" lon="1.01257">
        <ele>1651.2</ele>
        <time>2022-05-22 20:43:39</time>
      </trkpt>
      <trkpt lat="42.64583" lon="1.01254">
        <ele>1651.4</ele>
        <time>2022-05-22 20:43:40</time>
      </trkpt>
      <trkpt lat="42.64584" lon="1.01252">
        <ele>1651.6</ele>
        <time>2022-05-22 20:43:41</time>
      </trkpt>
      <trkpt lat="42.64585" lon="1.01249">
        <ele>1651.8</ele>
        <time>2022-05-22 20:43:42</time>
      </trkpt>
      <trkpt lat="42.64586" lon="1.01247">
        <ele>1652</ele>
        <time>2022-05-22 20:43:43</time>
      </trkpt>
      <trkpt lat="42.64587" lon="1.01244">
        <ele>1652.2</ele>
        <time>2022-05-22 20:43:44</time>
      </trkpt>
      <trkpt lat="42.64588" lon="1.01242">
        <ele>1652.4</ele>
        <time>2022-05-22 20:43:45</time>
      </trkpt>
      <trkpt lat="42.64589" lon="1.01239">
        <ele>1652.6</ele>
        <time>2022-05-22 20:43:46</time>
      </trkpt>
      <trkpt lat="42.64589" lon="1.01237">
        <ele>1652.8</ele>
        <time>2022-05-22 20:43:47</time>
      </trkpt>
      <trkpt lat="42.6459" lon="1.01234">
        <ele>1653</ele>
        <time>2022-05-22 20:43:48</time>
      </trkpt>
      <trkpt lat="42.6459" lon="1.01231">
        <ele>1653.2</ele>
        <time>2022-05-22 20:43:49</time>
      </trkpt>
      <trkpt lat="42.64591" lon="1.01229">
        <ele>1653.4</ele>
        <time>2022-05-22 20:43:50</time>
      </trkpt>
      <trkpt lat="42.64591" lon="1.01226">
        <ele>1653.4</ele>
        <time>2022-05-22 20:43:51</time>
      </trkpt>
      <trkpt lat="42.64592" lon="1.01224">
        <ele>1653.6</ele>
        <time>2022-05-22 20:43:52</time>
      </trkpt>
      <trkpt lat="42.64593" lon="1.01221">
        <ele>1653.8</ele>
        <time>2022-05-22 20:43:53</time>
      </trkpt>
      <trkpt lat="42.64594" lon="1.01219">
        <ele>1654</ele>
        <time>2022-05-22 20:43:54</time>
      </trkpt>
      <trkpt lat="42.64595" lon="1.01217">
        <ele>1654.2</ele>
        <time>2022-05-22 20:43:55</time>
      </trkpt>
      <trkpt lat="42.64596" lon="1.01214">
        <ele>1654.4</ele>
        <time>2022-05-22 20:43:56</time>
      </trkpt>
      <trkpt lat="42.64597" lon="1.01212">
        <ele>1654.6</ele>
        <time>2022-05-22 20:43:57</time>
      </trkpt>
      <trkpt lat="42.64598" lon="1.0121">
        <ele>1654.6</ele>
        <time>2022-05-22 20:43:58</time>
      </trkpt>
      <trkpt lat="42.64598" lon="1.01207">
        <ele>1654.8</ele>
        <time>2022-05-22 20:43:59</time>
      </trkpt>
      <trkpt lat="42.64599" lon="1.01204">
        <ele>1655</ele>
        <time>2022-05-22 20:44:00</time>
      </trkpt>
      <trkpt lat="42.646" lon="1.01201">
        <ele>1655.2</ele>
        <time>2022-05-22 20:44:01</time>
      </trkpt>
      <trkpt lat="42.64601" lon="1.01198">
        <ele>1655.4</ele>
        <time>2022-05-22 20:44:02</time>
      </trkpt>
      <trkpt lat="42.64602" lon="1.01196">
        <ele>1655.6</ele>
        <time>2022-05-22 20:44:03</time>
      </trkpt>
      <trkpt lat="42.64603" lon="1.01193">
        <ele>1655.8</ele>
        <time>2022-05-22 20:44:04</time>
      </trkpt>
      <trkpt lat="42.64603" lon="1.01191">
        <ele>1656</ele>
        <time>2022-05-22 20:44:05</time>
      </trkpt>
      <trkpt lat="42.64604" lon="1.01188">
        <ele>1656.2</ele>
        <time>2022-05-22 20:44:06</time>
      </trkpt>
      <trkpt lat="42.64605" lon="1.01185">
        <ele>1656.4</ele>
        <time>2022-05-22 20:44:07</time>
      </trkpt>
      <trkpt lat="42.64605" lon="1.01183">
        <ele>1656.6</ele>
        <time>2022-05-22 20:44:08</time>
      </trkpt>
      <trkpt lat="42.64606" lon="1.01179">
        <ele>1656.8</ele>
        <time>2022-05-22 20:44:09</time>
      </trkpt>
      <trkpt lat="42.64607" lon="1.01176">
        <ele>1657</ele>
        <time>2022-05-22 20:44:10</time>
      </trkpt>
      <trkpt lat="42.64607" lon="1.01174">
        <ele>1657.2</ele>
        <time>2022-05-22 20:44:11</time>
      </trkpt>
      <trkpt lat="42.64608" lon="1.01171">
        <ele>1657.4</ele>
        <time>2022-05-22 20:44:12</time>
      </trkpt>
      <trkpt lat="42.64609" lon="1.01169">
        <ele>1657.6</ele>
        <time>2022-05-22 20:44:13</time>
      </trkpt>
      <trkpt lat="42.64609" lon="1.01166">
        <ele>1657.8</ele>
        <time>2022-05-22 20:44:14</time>
      </trkpt>
      <trkpt lat="42.64609" lon="1.01163">
        <ele>1658</ele>
        <time>2022-05-22 20:44:15</time>
      </trkpt>
      <trkpt lat="42.64609" lon="1.01161">
        <ele>1658.2</ele>
        <time>2022-05-22 20:44:16</time>
      </trkpt>
      <trkpt lat="42.6461" lon="1.01158">
        <ele>1658.4</ele>
        <time>2022-05-22 20:44:17</time>
      </trkpt>
      <trkpt lat="42.6461" lon="1.01156">
        <ele>1658.6</ele>
        <time>2022-05-22 20:44:18</time>
      </trkpt>
      <trkpt lat="42.64611" lon="1.01153">
        <ele>1658.8</ele>
        <time>2022-05-22 20:44:19</time>
      </trkpt>
      <trkpt lat="42.64612" lon="1.0115">
        <ele>1659</ele>
        <time>2022-05-22 20:44:20</time>
      </trkpt>
      <trkpt lat="42.64612" lon="1.01147">
        <ele>1659.2</ele>
        <time>2022-05-22 20:44:21</time>
      </trkpt>
      <trkpt lat="42.64612" lon="1.01145">
        <ele>1659.4</ele>
        <time>2022-05-22 20:44:22</time>
      </trkpt>
      <trkpt lat="42.64613" lon="1.01143">
        <ele>1659.4</ele>
        <time>2022-05-22 20:44:23</time>
      </trkpt>
      <trkpt lat="42.64614" lon="1.0114">
        <ele>1659.6</ele>
        <time>2022-05-22 20:44:24</time>
      </trkpt>
      <trkpt lat="42.64615" lon="1.01137">
        <ele>1659.8</ele>
        <time>2022-05-22 20:44:25</time>
      </trkpt>
      <trkpt lat="42.64615" lon="1.01135">
        <ele>1660</ele>
        <time>2022-05-22 20:44:26</time>
      </trkpt>
      <trkpt lat="42.64616" lon="1.01132">
        <ele>1660.2</ele>
        <time>2022-05-22 20:44:27</time>
      </trkpt>
      <trkpt lat="42.64616" lon="1.0113">
        <ele>1660.4</ele>
        <time>2022-05-22 20:44:28</time>
      </trkpt>
      <trkpt lat="42.64616" lon="1.01127">
        <ele>1660.6</ele>
        <time>2022-05-22 20:44:29</time>
      </trkpt>
      <trkpt lat="42.64616" lon="1.01124">
        <ele>1660.8</ele>
        <time>2022-05-22 20:44:30</time>
      </trkpt>
      <trkpt lat="42.64617" lon="1.01121">
        <ele>1661</ele>
        <time>2022-05-22 20:44:31</time>
      </trkpt>
      <trkpt lat="42.64617" lon="1.01119">
        <ele>1661</ele>
        <time>2022-05-22 20:44:32</time>
      </trkpt>
      <trkpt lat="42.64617" lon="1.01116">
        <ele>1661.2</ele>
        <time>2022-05-22 20:44:33</time>
      </trkpt>
      <trkpt lat="42.64617" lon="1.01114">
        <ele>1661.4</ele>
        <time>2022-05-22 20:44:34</time>
      </trkpt>
      <trkpt lat="42.64618" lon="1.01111">
        <ele>1661.6</ele>
        <time>2022-05-22 20:44:35</time>
      </trkpt>
      <trkpt lat="42.64618" lon="1.01108">
        <ele>1661.8</ele>
        <time>2022-05-22 20:44:36</time>
      </trkpt>
      <trkpt lat="42.64618" lon="1.01105">
        <ele>1662</ele>
        <time>2022-05-22 20:44:37</time>
      </trkpt>
      <trkpt lat="42.64618" lon="1.01103">
        <ele>1662</ele>
        <time>2022-05-22 20:44:38</time>
      </trkpt>
      <trkpt lat="42.64619" lon="1.011">
        <ele>1662.2</ele>
        <time>2022-05-22 20:44:39</time>
      </trkpt>
      <trkpt lat="42.64619" lon="1.01097">
        <ele>1662.4</ele>
        <time>2022-05-22 20:44:40</time>
      </trkpt>
      <trkpt lat="42.64619" lon="1.01095">
        <ele>1662.6</ele>
        <time>2022-05-22 20:44:41</time>
      </trkpt>
      <trkpt lat="42.64619" lon="1.01092">
        <ele>1662.6</ele>
        <time>2022-05-22 20:44:42</time>
      </trkpt>
      <trkpt lat="42.6462" lon="1.0109">
        <ele>1662.8</ele>
        <time>2022-05-22 20:44:43</time>
      </trkpt>
      <trkpt lat="42.6462" lon="1.01087">
        <ele>1663</ele>
        <time>2022-05-22 20:44:44</time>
      </trkpt>
      <trkpt lat="42.64621" lon="1.01084">
        <ele>1663.2</ele>
        <time>2022-05-22 20:44:45</time>
      </trkpt>
      <trkpt lat="42.64621" lon="1.01081">
        <ele>1663.4</ele>
        <time>2022-05-22 20:44:46</time>
      </trkpt>
      <trkpt lat="42.64622" lon="1.01079">
        <ele>1663.6</ele>
        <time>2022-05-22 20:44:47</time>
      </trkpt>
      <trkpt lat="42.64622" lon="1.01076">
        <ele>1663.6</ele>
        <time>2022-05-22 20:44:48</time>
      </trkpt>
      <trkpt lat="42.64622" lon="1.01073">
        <ele>1663.8</ele>
        <time>2022-05-22 20:44:49</time>
      </trkpt>
      <trkpt lat="42.64622" lon="1.0107">
        <ele>1664</ele>
        <time>2022-05-22 20:44:50</time>
      </trkpt>
      <trkpt lat="42.64622" lon="1.01067">
        <ele>1664.2</ele>
        <time>2022-05-22 20:44:51</time>
      </trkpt>
      <trkpt lat="42.64622" lon="1.01065">
        <ele>1664.4</ele>
        <time>2022-05-22 20:44:52</time>
      </trkpt>
      <trkpt lat="42.64622" lon="1.01062">
        <ele>1664.4</ele>
        <time>2022-05-22 20:44:53</time>
      </trkpt>
      <trkpt lat="42.64622" lon="1.01059">
        <ele>1664.6</ele>
        <time>2022-05-22 20:44:54</time>
      </trkpt>
      <trkpt lat="42.64623" lon="1.01056">
        <ele>1664.8</ele>
        <time>2022-05-22 20:44:55</time>
      </trkpt>
      <trkpt lat="42.64623" lon="1.01054">
        <ele>1665</ele>
        <time>2022-05-22 20:44:56</time>
      </trkpt>
      <trkpt lat="42.64624" lon="1.01051">
        <ele>1665.2</ele>
        <time>2022-05-22 20:44:57</time>
      </trkpt>
      <trkpt lat="42.64624" lon="1.01049">
        <ele>1665.4</ele>
        <time>2022-05-22 20:44:58</time>
      </trkpt>
      <trkpt lat="42.64624" lon="1.01046">
        <ele>1665.6</ele>
        <time>2022-05-22 20:44:59</time>
      </trkpt>
      <trkpt lat="42.64624" lon="1.01043">
        <ele>1665.6</ele>
        <time>2022-05-22 20:45:00</time>
      </trkpt>
      <trkpt lat="42.64624" lon="1.0104">
        <ele>1665.8</ele>
        <time>2022-05-22 20:45:01</time>
      </trkpt>
      <trkpt lat="42.64624" lon="1.01038">
        <ele>1666</ele>
        <time>2022-05-22 20:45:02</time>
      </trkpt>
      <trkpt lat="42.64625" lon="1.01036">
        <ele>1666.2</ele>
        <time>2022-05-22 20:45:03</time>
      </trkpt>
      <trkpt lat="42.64625" lon="1.01033">
        <ele>1666.4</ele>
        <time>2022-05-22 20:45:04</time>
      </trkpt>
      <trkpt lat="42.64625" lon="1.0103">
        <ele>1666.6</ele>
        <time>2022-05-22 20:45:05</time>
      </trkpt>
      <trkpt lat="42.64626" lon="1.01028">
        <ele>1666.8</ele>
        <time>2022-05-22 20:45:06</time>
      </trkpt>
      <trkpt lat="42.64626" lon="1.01025">
        <ele>1667</ele>
        <time>2022-05-22 20:45:07</time>
      </trkpt>
      <trkpt lat="42.64626" lon="1.01023">
        <ele>1667.2</ele>
        <time>2022-05-22 20:45:08</time>
      </trkpt>
      <trkpt lat="42.64626" lon="1.0102">
        <ele>1667.4</ele>
        <time>2022-05-22 20:45:09</time>
      </trkpt>
      <trkpt lat="42.64627" lon="1.01016">
        <ele>1667.6</ele>
        <time>2022-05-22 20:45:10</time>
      </trkpt>
      <trkpt lat="42.64627" lon="1.01014">
        <ele>1667.6</ele>
        <time>2022-05-22 20:45:11</time>
      </trkpt>
      <trkpt lat="42.64627" lon="1.01011">
        <ele>1667.8</ele>
        <time>2022-05-22 20:45:12</time>
      </trkpt>
      <trkpt lat="42.64627" lon="1.01009">
        <ele>1668</ele>
        <time>2022-05-22 20:45:13</time>
      </trkpt>
      <trkpt lat="42.64628" lon="1.01006">
        <ele>1668.2</ele>
        <time>2022-05-22 20:45:14</time>
      </trkpt>
      <trkpt lat="42.64628" lon="1.01003">
        <ele>1668.4</ele>
        <time>2022-05-22 20:45:15</time>
      </trkpt>
      <trkpt lat="42.64628" lon="1.01001">
        <ele>1668.6</ele>
        <time>2022-05-22 20:45:16</time>
      </trkpt>
      <trkpt lat="42.64628" lon="1.00998">
        <ele>1668.8</ele>
        <time>2022-05-22 20:45:17</time>
      </trkpt>
      <trkpt lat="42.64628" lon="1.00995">
        <ele>1669</ele>
        <time>2022-05-22 20:45:18</time>
      </trkpt>
      <trkpt lat="42.64628" lon="1.00991">
        <ele>1669.2</ele>
        <time>2022-05-22 20:45:19</time>
      </trkpt>
      <trkpt lat="42.64628" lon="1.00988">
        <ele>1669.4</ele>
        <time>2022-05-22 20:45:20</time>
      </trkpt>
      <trkpt lat="42.64628" lon="1.00985">
        <ele>1669.6</ele>
        <time>2022-05-22 20:45:21</time>
      </trkpt>
      <trkpt lat="42.64628" lon="1.00982">
        <ele>1669.8</ele>
        <time>2022-05-22 20:45:22</time>
      </trkpt>
      <trkpt lat="42.64628" lon="1.00979">
        <ele>1669.8</ele>
        <time>2022-05-22 20:45:23</time>
      </trkpt>
      <trkpt lat="42.64629" lon="1.00976">
        <ele>1670</ele>
        <time>2022-05-22 20:45:24</time>
      </trkpt>
      <trkpt lat="42.64629" lon="1.00973">
        <ele>1670.2</ele>
        <time>2022-05-22 20:45:25</time>
      </trkpt>
      <trkpt lat="42.64629" lon="1.0097">
        <ele>1670.4</ele>
        <time>2022-05-22 20:45:26</time>
      </trkpt>
      <trkpt lat="42.64629" lon="1.00967">
        <ele>1670.6</ele>
        <time>2022-05-22 20:45:27</time>
      </trkpt>
      <trkpt lat="42.64629" lon="1.00964">
        <ele>1670.8</ele>
        <time>2022-05-22 20:45:28</time>
      </trkpt>
      <trkpt lat="42.64629" lon="1.00961">
        <ele>1671</ele>
        <time>2022-05-22 20:45:29</time>
      </trkpt>
      <trkpt lat="42.64629" lon="1.00958">
        <ele>1671.2</ele>
        <time>2022-05-22 20:45:30</time>
      </trkpt>
      <trkpt lat="42.64629" lon="1.00956">
        <ele>1671.4</ele>
        <time>2022-05-22 20:45:31</time>
      </trkpt>
      <trkpt lat="42.64629" lon="1.00953">
        <ele>1671.6</ele>
        <time>2022-05-22 20:45:32</time>
      </trkpt>
      <trkpt lat="42.64629" lon="1.0095">
        <ele>1671.8</ele>
        <time>2022-05-22 20:45:33</time>
      </trkpt>
      <trkpt lat="42.64629" lon="1.00947">
        <ele>1672</ele>
        <time>2022-05-22 20:45:34</time>
      </trkpt>
      <trkpt lat="42.64628" lon="1.00945">
        <ele>1672.2</ele>
        <time>2022-05-22 20:45:35</time>
      </trkpt>
      <trkpt lat="42.64628" lon="1.00942">
        <ele>1672.4</ele>
        <time>2022-05-22 20:45:36</time>
      </trkpt>
      <trkpt lat="42.64628" lon="1.0094">
        <ele>1672.4</ele>
        <time>2022-05-22 20:45:37</time>
      </trkpt>
      <trkpt lat="42.64627" lon="1.00937">
        <ele>1672.6</ele>
        <time>2022-05-22 20:45:38</time>
      </trkpt>
      <trkpt lat="42.64627" lon="1.00934">
        <ele>1672.8</ele>
        <time>2022-05-22 20:45:39</time>
      </trkpt>
      <trkpt lat="42.64626" lon="1.00931">
        <ele>1673</ele>
        <time>2022-05-22 20:45:40</time>
      </trkpt>
      <trkpt lat="42.64625" lon="1.00928">
        <ele>1673.2</ele>
        <time>2022-05-22 20:45:41</time>
      </trkpt>
      <trkpt lat="42.64625" lon="1.00926">
        <ele>1673.4</ele>
        <time>2022-05-22 20:45:42</time>
      </trkpt>
      <trkpt lat="42.64624" lon="1.00923">
        <ele>1673.4</ele>
        <time>2022-05-22 20:45:43</time>
      </trkpt>
      <trkpt lat="42.64623" lon="1.0092">
        <ele>1673.6</ele>
        <time>2022-05-22 20:45:44</time>
      </trkpt>
      <trkpt lat="42.64623" lon="1.00918">
        <ele>1673.8</ele>
        <time>2022-05-22 20:45:45</time>
      </trkpt>
      <trkpt lat="42.64622" lon="1.00915">
        <ele>1674</ele>
        <time>2022-05-22 20:45:46</time>
      </trkpt>
      <trkpt lat="42.64621" lon="1.00913">
        <ele>1674.2</ele>
        <time>2022-05-22 20:45:47</time>
      </trkpt>
      <trkpt lat="42.6462" lon="1.00911">
        <ele>1674.2</ele>
        <time>2022-05-22 20:45:48</time>
      </trkpt>
      <trkpt lat="42.64619" lon="1.00908">
        <ele>1674.4</ele>
        <time>2022-05-22 20:45:49</time>
      </trkpt>
      <trkpt lat="42.64618" lon="1.00906">
        <ele>1674.6</ele>
        <time>2022-05-22 20:45:50</time>
      </trkpt>
      <trkpt lat="42.64617" lon="1.00904">
        <ele>1674.8</ele>
        <time>2022-05-22 20:45:51</time>
      </trkpt>
      <trkpt lat="42.64617" lon="1.00902">
        <ele>1674.8</ele>
        <time>2022-05-22 20:45:52</time>
      </trkpt>
      <trkpt lat="42.64615" lon="1.00899">
        <ele>1675</ele>
        <time>2022-05-22 20:45:53</time>
      </trkpt>
      <trkpt lat="42.64614" lon="1.00897">
        <ele>1675.2</ele>
        <time>2022-05-22 20:45:54</time>
      </trkpt>
      <trkpt lat="42.64613" lon="1.00895">
        <ele>1675.4</ele>
        <time>2022-05-22 20:45:55</time>
      </trkpt>
      <trkpt lat="42.64612" lon="1.00893">
        <ele>1675.4</ele>
        <time>2022-05-22 20:45:56</time>
      </trkpt>
      <trkpt lat="42.64611" lon="1.00891">
        <ele>1675.6</ele>
        <time>2022-05-22 20:45:57</time>
      </trkpt>
      <trkpt lat="42.6461" lon="1.00889">
        <ele>1675.8</ele>
        <time>2022-05-22 20:45:58</time>
      </trkpt>
      <trkpt lat="42.64608" lon="1.00886">
        <ele>1675.8</ele>
        <time>2022-05-22 20:45:59</time>
      </trkpt>
      <trkpt lat="42.64606" lon="1.00885">
        <ele>1676</ele>
        <time>2022-05-22 20:46:00</time>
      </trkpt>
      <trkpt lat="42.64605" lon="1.00883">
        <ele>1676</ele>
        <time>2022-05-22 20:46:01</time>
      </trkpt>
      <trkpt lat="42.64604" lon="1.00881">
        <ele>1676.2</ele>
        <time>2022-05-22 20:46:02</time>
      </trkpt>
      <trkpt lat="42.64602" lon="1.00879">
        <ele>1676.4</ele>
        <time>2022-05-22 20:46:03</time>
      </trkpt>
      <trkpt lat="42.64601" lon="1.00877">
        <ele>1676.4</ele>
        <time>2022-05-22 20:46:04</time>
      </trkpt>
      <trkpt lat="42.64599" lon="1.00876">
        <ele>1676.6</ele>
        <time>2022-05-22 20:46:05</time>
      </trkpt>
      <trkpt lat="42.64597" lon="1.00875">
        <ele>1676.8</ele>
        <time>2022-05-22 20:46:06</time>
      </trkpt>
      <trkpt lat="42.64596" lon="1.00874">
        <ele>1676.8</ele>
        <time>2022-05-22 20:46:07</time>
      </trkpt>
      <trkpt lat="42.64594" lon="1.00872">
        <ele>1677</ele>
        <time>2022-05-22 20:46:08</time>
      </trkpt>
      <trkpt lat="42.64592" lon="1.0087">
        <ele>1677</ele>
        <time>2022-05-22 20:46:09</time>
      </trkpt>
      <trkpt lat="42.6459" lon="1.00869">
        <ele>1677.2</ele>
        <time>2022-05-22 20:46:10</time>
      </trkpt>
      <trkpt lat="42.64589" lon="1.00867">
        <ele>1677.4</ele>
        <time>2022-05-22 20:46:11</time>
      </trkpt>
      <trkpt lat="42.64587" lon="1.00867">
        <ele>1677.4</ele>
        <time>2022-05-22 20:46:12</time>
      </trkpt>
      <trkpt lat="42.64585" lon="1.00866">
        <ele>1677.6</ele>
        <time>2022-05-22 20:46:13</time>
      </trkpt>
      <trkpt lat="42.64583" lon="1.00865">
        <ele>1677.6</ele>
        <time>2022-05-22 20:46:14</time>
      </trkpt>
      <trkpt lat="42.64581" lon="1.00863">
        <ele>1677.8</ele>
        <time>2022-05-22 20:46:15</time>
      </trkpt>
      <trkpt lat="42.64579" lon="1.00862">
        <ele>1677.8</ele>
        <time>2022-05-22 20:46:16</time>
      </trkpt>
      <trkpt lat="42.64578" lon="1.00861">
        <ele>1678</ele>
        <time>2022-05-22 20:46:17</time>
      </trkpt>
      <trkpt lat="42.64576" lon="1.0086">
        <ele>1678.2</ele>
        <time>2022-05-22 20:46:18</time>
      </trkpt>
      <trkpt lat="42.64574" lon="1.00859">
        <ele>1678.2</ele>
        <time>2022-05-22 20:46:19</time>
      </trkpt>
      <trkpt lat="42.64572" lon="1.00858">
        <ele>1678.4</ele>
        <time>2022-05-22 20:46:20</time>
      </trkpt>
      <trkpt lat="42.6457" lon="1.00857">
        <ele>1678.4</ele>
        <time>2022-05-22 20:46:21</time>
      </trkpt>
      <trkpt lat="42.64568" lon="1.00857">
        <ele>1678.6</ele>
        <time>2022-05-22 20:46:22</time>
      </trkpt>
      <trkpt lat="42.64566" lon="1.00856">
        <ele>1678.6</ele>
        <time>2022-05-22 20:46:23</time>
      </trkpt>
      <trkpt lat="42.64564" lon="1.00855">
        <ele>1678.8</ele>
        <time>2022-05-22 20:46:24</time>
      </trkpt>
      <trkpt lat="42.64562" lon="1.00854">
        <ele>1678.8</ele>
        <time>2022-05-22 20:46:25</time>
      </trkpt>
      <trkpt lat="42.6456" lon="1.00854">
        <ele>1679</ele>
        <time>2022-05-22 20:46:26</time>
      </trkpt>
      <trkpt lat="42.64559" lon="1.00854">
        <ele>1679</ele>
        <time>2022-05-22 20:46:27</time>
      </trkpt>
      <trkpt lat="42.64556" lon="1.00853">
        <ele>1679.2</ele>
        <time>2022-05-22 20:46:28</time>
      </trkpt>
      <trkpt lat="42.64554" lon="1.00852">
        <ele>1679.4</ele>
        <time>2022-05-22 20:46:29</time>
      </trkpt>
      <trkpt lat="42.64552" lon="1.00852">
        <ele>1679.4</ele>
        <time>2022-05-22 20:46:30</time>
      </trkpt>
      <trkpt lat="42.6455" lon="1.00852">
        <ele>1679.6</ele>
        <time>2022-05-22 20:46:31</time>
      </trkpt>
      <trkpt lat="42.64548" lon="1.00851">
        <ele>1679.6</ele>
        <time>2022-05-22 20:46:32</time>
      </trkpt>
      <trkpt lat="42.64546" lon="1.00851">
        <ele>1679.8</ele>
        <time>2022-05-22 20:46:33</time>
      </trkpt>
      <trkpt lat="42.64544" lon="1.0085">
        <ele>1679.8</ele>
        <time>2022-05-22 20:46:34</time>
      </trkpt>
      <trkpt lat="42.64542" lon="1.00849">
        <ele>1680</ele>
        <time>2022-05-22 20:46:35</time>
      </trkpt>
      <trkpt lat="42.64541" lon="1.00848">
        <ele>1680</ele>
        <time>2022-05-22 20:46:36</time>
      </trkpt>
      <trkpt lat="42.64539" lon="1.00847">
        <ele>1680.2</ele>
        <time>2022-05-22 20:46:37</time>
      </trkpt>
      <trkpt lat="42.64537" lon="1.00845">
        <ele>1680.2</ele>
        <time>2022-05-22 20:46:38</time>
      </trkpt>
      <trkpt lat="42.64535" lon="1.00844">
        <ele>1680.4</ele>
        <time>2022-05-22 20:46:39</time>
      </trkpt>
      <trkpt lat="42.64533" lon="1.00842">
        <ele>1680.4</ele>
        <time>2022-05-22 20:46:40</time>
      </trkpt>
      <trkpt lat="42.64532" lon="1.00841">
        <ele>1680.6</ele>
        <time>2022-05-22 20:46:41</time>
      </trkpt>
      <trkpt lat="42.64531" lon="1.00839">
        <ele>1680.6</ele>
        <time>2022-05-22 20:46:42</time>
      </trkpt>
      <trkpt lat="42.6453" lon="1.00836">
        <ele>1680.8</ele>
        <time>2022-05-22 20:46:43</time>
      </trkpt>
      <trkpt lat="42.64529" lon="1.00834">
        <ele>1681</ele>
        <time>2022-05-22 20:46:44</time>
      </trkpt>
      <trkpt lat="42.64528" lon="1.00831">
        <ele>1681</ele>
        <time>2022-05-22 20:46:45</time>
      </trkpt>
      <trkpt lat="42.64528" lon="1.00829">
        <ele>1681.2</ele>
        <time>2022-05-22 20:46:46</time>
      </trkpt>
      <trkpt lat="42.64528" lon="1.00826">
        <ele>1681.2</ele>
        <time>2022-05-22 20:46:47</time>
      </trkpt>
      <trkpt lat="42.64528" lon="1.00824">
        <ele>1681.4</ele>
        <time>2022-05-22 20:46:48</time>
      </trkpt>
      <trkpt lat="42.64529" lon="1.00821">
        <ele>1681.6</ele>
        <time>2022-05-22 20:46:49</time>
      </trkpt>
      <trkpt lat="42.6453" lon="1.00819">
        <ele>1681.8</ele>
        <time>2022-05-22 20:46:50</time>
      </trkpt>
      <trkpt lat="42.64532" lon="1.00817">
        <ele>1681.8</ele>
        <time>2022-05-22 20:46:51</time>
      </trkpt>
      <trkpt lat="42.64533" lon="1.00816">
        <ele>1682</ele>
        <time>2022-05-22 20:46:52</time>
      </trkpt>
      <trkpt lat="42.64535" lon="1.00815">
        <ele>1682.2</ele>
        <time>2022-05-22 20:46:53</time>
      </trkpt>
      <trkpt lat="42.64537" lon="1.00815">
        <ele>1682.2</ele>
        <time>2022-05-22 20:46:54</time>
      </trkpt>
      <trkpt lat="42.64539" lon="1.00814">
        <ele>1682.4</ele>
        <time>2022-05-22 20:46:55</time>
      </trkpt>
      <trkpt lat="42.64541" lon="1.00815">
        <ele>1682.6</ele>
        <time>2022-05-22 20:46:56</time>
      </trkpt>
      <trkpt lat="42.64543" lon="1.00815">
        <ele>1682.6</ele>
        <time>2022-05-22 20:46:57</time>
      </trkpt>
      <trkpt lat="42.64545" lon="1.00815">
        <ele>1682.8</ele>
        <time>2022-05-22 20:46:58</time>
      </trkpt>
      <trkpt lat="42.64547" lon="1.00816">
        <ele>1683</ele>
        <time>2022-05-22 20:46:59</time>
      </trkpt>
      <trkpt lat="42.64549" lon="1.00817">
        <ele>1683</ele>
        <time>2022-05-22 20:47:00</time>
      </trkpt>
      <trkpt lat="42.64552" lon="1.00817">
        <ele>1683.2</ele>
        <time>2022-05-22 20:47:01</time>
      </trkpt>
      <trkpt lat="42.64553" lon="1.00818">
        <ele>1683.2</ele>
        <time>2022-05-22 20:47:02</time>
      </trkpt>
      <trkpt lat="42.64556" lon="1.00819">
        <ele>1683.4</ele>
        <time>2022-05-22 20:47:03</time>
      </trkpt>
      <trkpt lat="42.64558" lon="1.0082">
        <ele>1683.4</ele>
        <time>2022-05-22 20:47:04</time>
      </trkpt>
      <trkpt lat="42.6456" lon="1.00821">
        <ele>1683.6</ele>
        <time>2022-05-22 20:47:05</time>
      </trkpt>
      <trkpt lat="42.64562" lon="1.00822">
        <ele>1683.8</ele>
        <time>2022-05-22 20:47:06</time>
      </trkpt>
      <trkpt lat="42.64564" lon="1.00823">
        <ele>1683.8</ele>
        <time>2022-05-22 20:47:07</time>
      </trkpt>
      <trkpt lat="42.64567" lon="1.00824">
        <ele>1684</ele>
        <time>2022-05-22 20:47:08</time>
      </trkpt>
      <trkpt lat="42.64569" lon="1.00825">
        <ele>1684</ele>
        <time>2022-05-22 20:47:09</time>
      </trkpt>
      <trkpt lat="42.64571" lon="1.00826">
        <ele>1684.2</ele>
        <time>2022-05-22 20:47:10</time>
      </trkpt>
      <trkpt lat="42.64573" lon="1.00827">
        <ele>1684.4</ele>
        <time>2022-05-22 20:47:11</time>
      </trkpt>
      <trkpt lat="42.64575" lon="1.00828">
        <ele>1684.4</ele>
        <time>2022-05-22 20:47:12</time>
      </trkpt>
      <trkpt lat="42.64578" lon="1.0083">
        <ele>1684.6</ele>
        <time>2022-05-22 20:47:13</time>
      </trkpt>
      <trkpt lat="42.6458" lon="1.00831">
        <ele>1684.8</ele>
        <time>2022-05-22 20:47:14</time>
      </trkpt>
      <trkpt lat="42.64582" lon="1.00832">
        <ele>1684.8</ele>
        <time>2022-05-22 20:47:15</time>
      </trkpt>
      <trkpt lat="42.64585" lon="1.00834">
        <ele>1685</ele>
        <time>2022-05-22 20:47:16</time>
      </trkpt>
      <trkpt lat="42.64587" lon="1.00835">
        <ele>1685</ele>
        <time>2022-05-22 20:47:17</time>
      </trkpt>
      <trkpt lat="42.64589" lon="1.00837">
        <ele>1685.2</ele>
        <time>2022-05-22 20:47:18</time>
      </trkpt>
      <trkpt lat="42.64591" lon="1.00838">
        <ele>1685.2</ele>
        <time>2022-05-22 20:47:19</time>
      </trkpt>
      <trkpt lat="42.64594" lon="1.00839">
        <ele>1685.4</ele>
        <time>2022-05-22 20:47:20</time>
      </trkpt>
      <trkpt lat="42.64596" lon="1.00841">
        <ele>1685.4</ele>
        <time>2022-05-22 20:47:21</time>
      </trkpt>
      <trkpt lat="42.64598" lon="1.00842">
        <ele>1685.6</ele>
        <time>2022-05-22 20:47:22</time>
      </trkpt>
      <trkpt lat="42.646" lon="1.00844">
        <ele>1685.6</ele>
        <time>2022-05-22 20:47:23</time>
      </trkpt>
      <trkpt lat="42.64602" lon="1.00845">
        <ele>1685.8</ele>
        <time>2022-05-22 20:47:24</time>
      </trkpt>
      <trkpt lat="42.64603" lon="1.00845">
        <ele>1685.8</ele>
        <time>2022-05-22 20:47:25</time>
      </trkpt>
      <trkpt lat="42.64605" lon="1.00846">
        <ele>1685.8</ele>
        <time>2022-05-22 20:47:26</time>
      </trkpt>
      <trkpt lat="42.64607" lon="1.00847">
        <ele>1686</ele>
        <time>2022-05-22 20:47:27</time>
      </trkpt>
      <trkpt lat="42.64609" lon="1.00847">
        <ele>1686</ele>
        <time>2022-05-22 20:47:28</time>
      </trkpt>
      <trkpt lat="42.64611" lon="1.00848">
        <ele>1686.2</ele>
        <time>2022-05-22 20:47:29</time>
      </trkpt>
      <trkpt lat="42.64614" lon="1.00848">
        <ele>1686.2</ele>
        <time>2022-05-22 20:47:30</time>
      </trkpt>
      <trkpt lat="42.64616" lon="1.00848">
        <ele>1686.2</ele>
        <time>2022-05-22 20:47:31</time>
      </trkpt>
      <trkpt lat="42.64618" lon="1.00849">
        <ele>1686.4</ele>
        <time>2022-05-22 20:47:32</time>
      </trkpt>
      <trkpt lat="42.64621" lon="1.00849">
        <ele>1686.4</ele>
        <time>2022-05-22 20:47:33</time>
      </trkpt>
      <trkpt lat="42.64623" lon="1.00848">
        <ele>1686.4</ele>
        <time>2022-05-22 20:47:34</time>
      </trkpt>
      <trkpt lat="42.64625" lon="1.00846">
        <ele>1686.6</ele>
        <time>2022-05-22 20:47:35</time>
      </trkpt>
      <trkpt lat="42.64627" lon="1.00845">
        <ele>1686.6</ele>
        <time>2022-05-22 20:47:36</time>
      </trkpt>
      <trkpt lat="42.64629" lon="1.00843">
        <ele>1686.8</ele>
        <time>2022-05-22 20:47:37</time>
      </trkpt>
      <trkpt lat="42.64631" lon="1.00841">
        <ele>1686.8</ele>
        <time>2022-05-22 20:47:38</time>
      </trkpt>
      <trkpt lat="42.64633" lon="1.00839">
        <ele>1687</ele>
        <time>2022-05-22 20:47:39</time>
      </trkpt>
      <trkpt lat="42.64634" lon="1.00836">
        <ele>1687</ele>
        <time>2022-05-22 20:47:40</time>
      </trkpt>
      <trkpt lat="42.64635" lon="1.00833">
        <ele>1687.2</ele>
        <time>2022-05-22 20:47:41</time>
      </trkpt>
      <trkpt lat="42.64635" lon="1.0083">
        <ele>1687.4</ele>
        <time>2022-05-22 20:47:42</time>
      </trkpt>
      <trkpt lat="42.64635" lon="1.00827">
        <ele>1687.4</ele>
        <time>2022-05-22 20:47:43</time>
      </trkpt>
      <trkpt lat="42.64635" lon="1.00825">
        <ele>1687.6</ele>
        <time>2022-05-22 20:47:44</time>
      </trkpt>
      <trkpt lat="42.64634" lon="1.00822">
        <ele>1687.8</ele>
        <time>2022-05-22 20:47:45</time>
      </trkpt>
      <trkpt lat="42.64633" lon="1.00819">
        <ele>1687.8</ele>
        <time>2022-05-22 20:47:46</time>
      </trkpt>
      <trkpt lat="42.64632" lon="1.00816">
        <ele>1688</ele>
        <time>2022-05-22 20:47:47</time>
      </trkpt>
      <trkpt lat="42.64631" lon="1.00813">
        <ele>1688</ele>
        <time>2022-05-22 20:47:48</time>
      </trkpt>
      <trkpt lat="42.6463" lon="1.00811">
        <ele>1688.2</ele>
        <time>2022-05-22 20:47:49</time>
      </trkpt>
      <trkpt lat="42.64628" lon="1.0081">
        <ele>1688.2</ele>
        <time>2022-05-22 20:47:50</time>
      </trkpt>
      <trkpt lat="42.64627" lon="1.00808">
        <ele>1688.4</ele>
        <time>2022-05-22 20:47:51</time>
      </trkpt>
      <trkpt lat="42.64625" lon="1.00808">
        <ele>1688.6</ele>
        <time>2022-05-22 20:47:52</time>
      </trkpt>
      <trkpt lat="42.64624" lon="1.00807">
        <ele>1688.6</ele>
        <time>2022-05-22 20:47:53</time>
      </trkpt>
      <trkpt lat="42.64622" lon="1.00805">
        <ele>1688.8</ele>
        <time>2022-05-22 20:47:54</time>
      </trkpt>
      <trkpt lat="42.64621" lon="1.00805">
        <ele>1689</ele>
        <time>2022-05-22 20:47:55</time>
      </trkpt>
      <trkpt lat="42.64619" lon="1.00805">
        <ele>1689</ele>
        <time>2022-05-22 20:47:56</time>
      </trkpt>
      <trkpt lat="42.64617" lon="1.00805">
        <ele>1689.2</ele>
        <time>2022-05-22 20:47:57</time>
      </trkpt>
      <trkpt lat="42.64614" lon="1.00804">
        <ele>1689.2</ele>
        <time>2022-05-22 20:47:58</time>
      </trkpt>
      <trkpt lat="42.64612" lon="1.00803">
        <ele>1689.4</ele>
        <time>2022-05-22 20:47:59</time>
      </trkpt>
      <trkpt lat="42.6461" lon="1.00802">
        <ele>1689.4</ele>
        <time>2022-05-22 20:48:00</time>
      </trkpt>
      <trkpt lat="42.64607" lon="1.00801">
        <ele>1689.6</ele>
        <time>2022-05-22 20:48:01</time>
      </trkpt>
      <trkpt lat="42.64605" lon="1.008">
        <ele>1689.8</ele>
        <time>2022-05-22 20:48:02</time>
      </trkpt>
      <trkpt lat="42.64603" lon="1.00799">
        <ele>1689.8</ele>
        <time>2022-05-22 20:48:03</time>
      </trkpt>
      <trkpt lat="42.64601" lon="1.00798">
        <ele>1690</ele>
        <time>2022-05-22 20:48:04</time>
      </trkpt>
      <trkpt lat="42.64598" lon="1.00796">
        <ele>1690.2</ele>
        <time>2022-05-22 20:48:05</time>
      </trkpt>
      <trkpt lat="42.64596" lon="1.00795">
        <ele>1690.2</ele>
        <time>2022-05-22 20:48:06</time>
      </trkpt>
      <trkpt lat="42.64594" lon="1.00794">
        <ele>1690.4</ele>
        <time>2022-05-22 20:48:07</time>
      </trkpt>
      <trkpt lat="42.64592" lon="1.00792">
        <ele>1690.6</ele>
        <time>2022-05-22 20:48:08</time>
      </trkpt>
      <trkpt lat="42.64589" lon="1.00791">
        <ele>1690.8</ele>
        <time>2022-05-22 20:48:09</time>
      </trkpt>
      <trkpt lat="42.64587" lon="1.00791">
        <ele>1690.8</ele>
        <time>2022-05-22 20:48:10</time>
      </trkpt>
      <trkpt lat="42.64585" lon="1.0079">
        <ele>1691</ele>
        <time>2022-05-22 20:48:11</time>
      </trkpt>
      <trkpt lat="42.64582" lon="1.0079">
        <ele>1691.2</ele>
        <time>2022-05-22 20:48:12</time>
      </trkpt>
      <trkpt lat="42.6458" lon="1.00789">
        <ele>1691.4</ele>
        <time>2022-05-22 20:48:13</time>
      </trkpt>
      <trkpt lat="42.64578" lon="1.00789">
        <ele>1691.6</ele>
        <time>2022-05-22 20:48:14</time>
      </trkpt>
      <trkpt lat="42.64575" lon="1.00789">
        <ele>1691.8</ele>
        <time>2022-05-22 20:48:15</time>
      </trkpt>
      <trkpt lat="42.64573" lon="1.00788">
        <ele>1692</ele>
        <time>2022-05-22 20:48:16</time>
      </trkpt>
      <trkpt lat="42.64571" lon="1.00787">
        <ele>1692.2</ele>
        <time>2022-05-22 20:48:17</time>
      </trkpt>
      <trkpt lat="42.64568" lon="1.00786">
        <ele>1692.4</ele>
        <time>2022-05-22 20:48:18</time>
      </trkpt>
      <trkpt lat="42.64566" lon="1.00785">
        <ele>1692.6</ele>
        <time>2022-05-22 20:48:19</time>
      </trkpt>
      <trkpt lat="42.64564" lon="1.00784">
        <ele>1692.8</ele>
        <time>2022-05-22 20:48:20</time>
      </trkpt>
      <trkpt lat="42.64562" lon="1.00782">
        <ele>1693</ele>
        <time>2022-05-22 20:48:21</time>
      </trkpt>
      <trkpt lat="42.6456" lon="1.00781">
        <ele>1693</ele>
        <time>2022-05-22 20:48:22</time>
      </trkpt>
      <trkpt lat="42.64557" lon="1.00779">
        <ele>1693.2</ele>
        <time>2022-05-22 20:48:23</time>
      </trkpt>
      <trkpt lat="42.64555" lon="1.00778">
        <ele>1693.4</ele>
        <time>2022-05-22 20:48:24</time>
      </trkpt>
      <trkpt lat="42.64553" lon="1.00777">
        <ele>1693.6</ele>
        <time>2022-05-22 20:48:25</time>
      </trkpt>
      <trkpt lat="42.64551" lon="1.00775">
        <ele>1693.8</ele>
        <time>2022-05-22 20:48:26</time>
      </trkpt>
      <trkpt lat="42.64549" lon="1.00774">
        <ele>1694</ele>
        <time>2022-05-22 20:48:27</time>
      </trkpt>
      <trkpt lat="42.64547" lon="1.00772">
        <ele>1694</ele>
        <time>2022-05-22 20:48:28</time>
      </trkpt>
      <trkpt lat="42.64545" lon="1.0077">
        <ele>1694.2</ele>
        <time>2022-05-22 20:48:29</time>
      </trkpt>
      <trkpt lat="42.64544" lon="1.00768">
        <ele>1694.4</ele>
        <time>2022-05-22 20:48:30</time>
      </trkpt>
      <trkpt lat="42.64542" lon="1.00767">
        <ele>1694.6</ele>
        <time>2022-05-22 20:48:31</time>
      </trkpt>
      <trkpt lat="42.6454" lon="1.00765">
        <ele>1694.6</ele>
        <time>2022-05-22 20:48:32</time>
      </trkpt>
      <trkpt lat="42.64538" lon="1.00763">
        <ele>1694.8</ele>
        <time>2022-05-22 20:48:33</time>
      </trkpt>
      <trkpt lat="42.64537" lon="1.00761">
        <ele>1695</ele>
        <time>2022-05-22 20:48:34</time>
      </trkpt>
      <trkpt lat="42.64534" lon="1.00759">
        <ele>1695.2</ele>
        <time>2022-05-22 20:48:35</time>
      </trkpt>
      <trkpt lat="42.64533" lon="1.00756">
        <ele>1695.4</ele>
        <time>2022-05-22 20:48:36</time>
      </trkpt>
      <trkpt lat="42.64532" lon="1.00754">
        <ele>1695.6</ele>
        <time>2022-05-22 20:48:37</time>
      </trkpt>
      <trkpt lat="42.6453" lon="1.00751">
        <ele>1695.6</ele>
        <time>2022-05-22 20:48:38</time>
      </trkpt>
      <trkpt lat="42.6453" lon="1.00749">
        <ele>1695.8</ele>
        <time>2022-05-22 20:48:39</time>
      </trkpt>
      <trkpt lat="42.64529" lon="1.00746">
        <ele>1696</ele>
        <time>2022-05-22 20:48:40</time>
      </trkpt>
      <trkpt lat="42.64529" lon="1.00743">
        <ele>1696.2</ele>
        <time>2022-05-22 20:48:41</time>
      </trkpt>
      <trkpt lat="42.6453" lon="1.00741">
        <ele>1696.4</ele>
        <time>2022-05-22 20:48:42</time>
      </trkpt>
      <trkpt lat="42.64531" lon="1.00739">
        <ele>1696.8</ele>
        <time>2022-05-22 20:48:43</time>
      </trkpt>
      <trkpt lat="42.64532" lon="1.00737">
        <ele>1697</ele>
        <time>2022-05-22 20:48:44</time>
      </trkpt>
      <trkpt lat="42.64533" lon="1.00735">
        <ele>1697.2</ele>
        <time>2022-05-22 20:48:45</time>
      </trkpt>
      <trkpt lat="42.64534" lon="1.00734">
        <ele>1697.4</ele>
        <time>2022-05-22 20:48:46</time>
      </trkpt>
      <trkpt lat="42.64536" lon="1.00733">
        <ele>1697.8</ele>
        <time>2022-05-22 20:48:47</time>
      </trkpt>
      <trkpt lat="42.64537" lon="1.00733">
        <ele>1698</ele>
        <time>2022-05-22 20:48:48</time>
      </trkpt>
      <trkpt lat="42.64539" lon="1.00732">
        <ele>1698.2</ele>
        <time>2022-05-22 20:48:49</time>
      </trkpt>
      <trkpt lat="42.64541" lon="1.00732">
        <ele>1698.4</ele>
        <time>2022-05-22 20:48:50</time>
      </trkpt>
      <trkpt lat="42.64543" lon="1.00732">
        <ele>1698.6</ele>
        <time>2022-05-22 20:48:51</time>
      </trkpt>
      <trkpt lat="42.64544" lon="1.00733">
        <ele>1698.8</ele>
        <time>2022-05-22 20:48:52</time>
      </trkpt>
      <trkpt lat="42.64546" lon="1.00734">
        <ele>1699</ele>
        <time>2022-05-22 20:48:53</time>
      </trkpt>
      <trkpt lat="42.64547" lon="1.00735">
        <ele>1699.2</ele>
        <time>2022-05-22 20:48:54</time>
      </trkpt>
      <trkpt lat="42.64549" lon="1.00736">
        <ele>1699.4</ele>
        <time>2022-05-22 20:48:55</time>
      </trkpt>
      <trkpt lat="42.6455" lon="1.00737">
        <ele>1699.6</ele>
        <time>2022-05-22 20:48:56</time>
      </trkpt>
      <trkpt lat="42.64552" lon="1.00738">
        <ele>1699.8</ele>
        <time>2022-05-22 20:48:57</time>
      </trkpt>
      <trkpt lat="42.64554" lon="1.00739">
        <ele>1699.8</ele>
        <time>2022-05-22 20:48:58</time>
      </trkpt>
      <trkpt lat="42.64556" lon="1.0074">
        <ele>1700</ele>
        <time>2022-05-22 20:48:59</time>
      </trkpt>
      <trkpt lat="42.64557" lon="1.00742">
        <ele>1700.2</ele>
        <time>2022-05-22 20:49:00</time>
      </trkpt>
      <trkpt lat="42.64559" lon="1.00743">
        <ele>1700.4</ele>
        <time>2022-05-22 20:49:01</time>
      </trkpt>
      <trkpt lat="42.6456" lon="1.00745">
        <ele>1700.6</ele>
        <time>2022-05-22 20:49:02</time>
      </trkpt>
      <trkpt lat="42.64562" lon="1.00746">
        <ele>1700.6</ele>
        <time>2022-05-22 20:49:03</time>
      </trkpt>
      <trkpt lat="42.64563" lon="1.00747">
        <ele>1700.8</ele>
        <time>2022-05-22 20:49:04</time>
      </trkpt>
      <trkpt lat="42.64565" lon="1.00748">
        <ele>1701</ele>
        <time>2022-05-22 20:49:05</time>
      </trkpt>
      <trkpt lat="42.64567" lon="1.00749">
        <ele>1701</ele>
        <time>2022-05-22 20:49:06</time>
      </trkpt>
      <trkpt lat="42.64569" lon="1.00751">
        <ele>1701.2</ele>
        <time>2022-05-22 20:49:07</time>
      </trkpt>
      <trkpt lat="42.6457" lon="1.00752">
        <ele>1701.4</ele>
        <time>2022-05-22 20:49:08</time>
      </trkpt>
      <trkpt lat="42.64572" lon="1.00752">
        <ele>1701.6</ele>
        <time>2022-05-22 20:49:09</time>
      </trkpt>
      <trkpt lat="42.64574" lon="1.00753">
        <ele>1701.6</ele>
        <time>2022-05-22 20:49:10</time>
      </trkpt>
      <trkpt lat="42.64576" lon="1.00754">
        <ele>1701.8</ele>
        <time>2022-05-22 20:49:11</time>
      </trkpt>
      <trkpt lat="42.64577" lon="1.00755">
        <ele>1701.8</ele>
        <time>2022-05-22 20:49:12</time>
      </trkpt>
      <trkpt lat="42.64579" lon="1.00756">
        <ele>1702</ele>
        <time>2022-05-22 20:49:13</time>
      </trkpt>
      <trkpt lat="42.6458" lon="1.00758">
        <ele>1702</ele>
        <time>2022-05-22 20:49:14</time>
      </trkpt>
      <trkpt lat="42.64581" lon="1.00759">
        <ele>1702.2</ele>
        <time>2022-05-22 20:49:15</time>
      </trkpt>
      <trkpt lat="42.64583" lon="1.0076">
        <ele>1702.2</ele>
        <time>2022-05-22 20:49:16</time>
      </trkpt>
      <trkpt lat="42.64585" lon="1.00761">
        <ele>1702.4</ele>
        <time>2022-05-22 20:49:17</time>
      </trkpt>
      <trkpt lat="42.64587" lon="1.00762">
        <ele>1702.4</ele>
        <time>2022-05-22 20:49:18</time>
      </trkpt>
      <trkpt lat="42.64588" lon="1.00762">
        <ele>1702.4</ele>
        <time>2022-05-22 20:49:19</time>
      </trkpt>
      <trkpt lat="42.6459" lon="1.00763">
        <ele>1702.6</ele>
        <time>2022-05-22 20:49:20</time>
      </trkpt>
      <trkpt lat="42.64592" lon="1.00764">
        <ele>1702.8</ele>
        <time>2022-05-22 20:49:21</time>
      </trkpt>
      <trkpt lat="42.64594" lon="1.00764">
        <ele>1702.8</ele>
        <time>2022-05-22 20:49:22</time>
      </trkpt>
      <trkpt lat="42.64596" lon="1.00764">
        <ele>1703</ele>
        <time>2022-05-22 20:49:23</time>
      </trkpt>
      <trkpt lat="42.64598" lon="1.00764">
        <ele>1703</ele>
        <time>2022-05-22 20:49:24</time>
      </trkpt>
      <trkpt lat="42.64601" lon="1.00764">
        <ele>1703.2</ele>
        <time>2022-05-22 20:49:25</time>
      </trkpt>
      <trkpt lat="42.64603" lon="1.00764">
        <ele>1703.4</ele>
        <time>2022-05-22 20:49:26</time>
      </trkpt>
      <trkpt lat="42.64605" lon="1.00763">
        <ele>1703.6</ele>
        <time>2022-05-22 20:49:27</time>
      </trkpt>
      <trkpt lat="42.64608" lon="1.00763">
        <ele>1703.8</ele>
        <time>2022-05-22 20:49:28</time>
      </trkpt>
      <trkpt lat="42.6461" lon="1.00763">
        <ele>1703.8</ele>
        <time>2022-05-22 20:49:29</time>
      </trkpt>
      <trkpt lat="42.64613" lon="1.00763">
        <ele>1704</ele>
        <time>2022-05-22 20:49:30</time>
      </trkpt>
      <trkpt lat="42.64615" lon="1.00763">
        <ele>1704.2</ele>
        <time>2022-05-22 20:49:31</time>
      </trkpt>
      <trkpt lat="42.64618" lon="1.00763">
        <ele>1704.4</ele>
        <time>2022-05-22 20:49:32</time>
      </trkpt>
      <trkpt lat="42.6462" lon="1.00763">
        <ele>1704.6</ele>
        <time>2022-05-22 20:49:33</time>
      </trkpt>
      <trkpt lat="42.64623" lon="1.00763">
        <ele>1704.6</ele>
        <time>2022-05-22 20:49:34</time>
      </trkpt>
      <trkpt lat="42.64625" lon="1.00763">
        <ele>1704.8</ele>
        <time>2022-05-22 20:49:35</time>
      </trkpt>
      <trkpt lat="42.64628" lon="1.00763">
        <ele>1705</ele>
        <time>2022-05-22 20:49:36</time>
      </trkpt>
      <trkpt lat="42.6463" lon="1.00763">
        <ele>1705.2</ele>
        <time>2022-05-22 20:49:37</time>
      </trkpt>
      <trkpt lat="42.64632" lon="1.00762">
        <ele>1705.2</ele>
        <time>2022-05-22 20:49:38</time>
      </trkpt>
      <trkpt lat="42.64634" lon="1.00762">
        <ele>1705.4</ele>
        <time>2022-05-22 20:49:39</time>
      </trkpt>
      <trkpt lat="42.64636" lon="1.00762">
        <ele>1705.4</ele>
        <time>2022-05-22 20:49:40</time>
      </trkpt>
      <trkpt lat="42.64638" lon="1.00762">
        <ele>1705.6</ele>
        <time>2022-05-22 20:49:41</time>
      </trkpt>
      <trkpt lat="42.6464" lon="1.00763">
        <ele>1705.8</ele>
        <time>2022-05-22 20:49:42</time>
      </trkpt>
      <trkpt lat="42.64642" lon="1.00763">
        <ele>1706</ele>
        <time>2022-05-22 20:49:43</time>
      </trkpt>
      <trkpt lat="42.64644" lon="1.00764">
        <ele>1706</ele>
        <time>2022-05-22 20:49:44</time>
      </trkpt>
      <trkpt lat="42.64645" lon="1.00764">
        <ele>1706.2</ele>
        <time>2022-05-22 20:49:45</time>
      </trkpt>
      <trkpt lat="42.64648" lon="1.00765">
        <ele>1706.4</ele>
        <time>2022-05-22 20:49:46</time>
      </trkpt>
      <trkpt lat="42.64651" lon="1.00766">
        <ele>1706.6</ele>
        <time>2022-05-22 20:49:47</time>
      </trkpt>
      <trkpt lat="42.64653" lon="1.00767">
        <ele>1706.8</ele>
        <time>2022-05-22 20:49:48</time>
      </trkpt>
      <trkpt lat="42.64655" lon="1.00769">
        <ele>1707</ele>
        <time>2022-05-22 20:49:49</time>
      </trkpt>
      <trkpt lat="42.64656" lon="1.0077">
        <ele>1707.2</ele>
        <time>2022-05-22 20:49:50</time>
      </trkpt>
      <trkpt lat="42.64657" lon="1.00772">
        <ele>1707.4</ele>
        <time>2022-05-22 20:49:51</time>
      </trkpt>
      <trkpt lat="42.64658" lon="1.00774">
        <ele>1707.6</ele>
        <time>2022-05-22 20:49:52</time>
      </trkpt>
      <trkpt lat="42.6466" lon="1.00776">
        <ele>1707.8</ele>
        <time>2022-05-22 20:49:53</time>
      </trkpt>
      <trkpt lat="42.64662" lon="1.00779">
        <ele>1707.8</ele>
        <time>2022-05-22 20:49:54</time>
      </trkpt>
      <trkpt lat="42.64663" lon="1.00781">
        <ele>1708</ele>
        <time>2022-05-22 20:49:55</time>
      </trkpt>
      <trkpt lat="42.64664" lon="1.00784">
        <ele>1708</ele>
        <time>2022-05-22 20:49:56</time>
      </trkpt>
      <trkpt lat="42.64665" lon="1.00787">
        <ele>1708.2</ele>
        <time>2022-05-22 20:49:57</time>
      </trkpt>
      <trkpt lat="42.64666" lon="1.0079">
        <ele>1708.4</ele>
        <time>2022-05-22 20:49:58</time>
      </trkpt>
      <trkpt lat="42.64666" lon="1.00792">
        <ele>1708.4</ele>
        <time>2022-05-22 20:49:59</time>
      </trkpt>
      <trkpt lat="42.64667" lon="1.00795">
        <ele>1708.6</ele>
        <time>2022-05-22 20:50:00</time>
      </trkpt>
      <trkpt lat="42.64668" lon="1.00798">
        <ele>1708.8</ele>
        <time>2022-05-22 20:50:01</time>
      </trkpt>
      <trkpt lat="42.64669" lon="1.00801">
        <ele>1709</ele>
        <time>2022-05-22 20:50:02</time>
      </trkpt>
      <trkpt lat="42.6467" lon="1.00804">
        <ele>1709</ele>
        <time>2022-05-22 20:50:03</time>
      </trkpt>
      <trkpt lat="42.6467" lon="1.00806">
        <ele>1709.2</ele>
        <time>2022-05-22 20:50:04</time>
      </trkpt>
      <trkpt lat="42.64671" lon="1.00809">
        <ele>1709.4</ele>
        <time>2022-05-22 20:50:05</time>
      </trkpt>
      <trkpt lat="42.64673" lon="1.00812">
        <ele>1709.4</ele>
        <time>2022-05-22 20:50:06</time>
      </trkpt>
      <trkpt lat="42.64674" lon="1.00814">
        <ele>1709.6</ele>
        <time>2022-05-22 20:50:07</time>
      </trkpt>
      <trkpt lat="42.64675" lon="1.00816">
        <ele>1709.8</ele>
        <time>2022-05-22 20:50:08</time>
      </trkpt>
      <trkpt lat="42.64676" lon="1.00818">
        <ele>1709.8</ele>
        <time>2022-05-22 20:50:09</time>
      </trkpt>
      <trkpt lat="42.64677" lon="1.00821">
        <ele>1710</ele>
        <time>2022-05-22 20:50:10</time>
      </trkpt>
      <trkpt lat="42.64679" lon="1.00823">
        <ele>1710.2</ele>
        <time>2022-05-22 20:50:11</time>
      </trkpt>
      <trkpt lat="42.6468" lon="1.00825">
        <ele>1710.4</ele>
        <time>2022-05-22 20:50:12</time>
      </trkpt>
      <trkpt lat="42.64682" lon="1.00827">
        <ele>1710.6</ele>
        <time>2022-05-22 20:50:13</time>
      </trkpt>
      <trkpt lat="42.64684" lon="1.00829">
        <ele>1710.6</ele>
        <time>2022-05-22 20:50:14</time>
      </trkpt>
      <trkpt lat="42.64685" lon="1.00831">
        <ele>1710.8</ele>
        <time>2022-05-22 20:50:15</time>
      </trkpt>
      <trkpt lat="42.64688" lon="1.00832">
        <ele>1710.8</ele>
        <time>2022-05-22 20:50:16</time>
      </trkpt>
      <trkpt lat="42.6469" lon="1.00833">
        <ele>1711</ele>
        <time>2022-05-22 20:50:17</time>
      </trkpt>
      <trkpt lat="42.64692" lon="1.00834">
        <ele>1711.2</ele>
        <time>2022-05-22 20:50:18</time>
      </trkpt>
      <trkpt lat="42.64693" lon="1.00835">
        <ele>1711.4</ele>
        <time>2022-05-22 20:50:19</time>
      </trkpt>
      <trkpt lat="42.64695" lon="1.00837">
        <ele>1711.6</ele>
        <time>2022-05-22 20:50:20</time>
      </trkpt>
      <trkpt lat="42.64697" lon="1.00839">
        <ele>1711.8</ele>
        <time>2022-05-22 20:50:21</time>
      </trkpt>
      <trkpt lat="42.64699" lon="1.0084">
        <ele>1711.8</ele>
        <time>2022-05-22 20:50:22</time>
      </trkpt>
      <trkpt lat="42.64701" lon="1.00842">
        <ele>1712</ele>
        <time>2022-05-22 20:50:23</time>
      </trkpt>
      <trkpt lat="42.64702" lon="1.00844">
        <ele>1712.2</ele>
        <time>2022-05-22 20:50:24</time>
      </trkpt>
      <trkpt lat="42.64704" lon="1.00847">
        <ele>1712.4</ele>
        <time>2022-05-22 20:50:25</time>
      </trkpt>
      <trkpt lat="42.64705" lon="1.00849">
        <ele>1712.6</ele>
        <time>2022-05-22 20:50:26</time>
      </trkpt>
      <trkpt lat="42.64707" lon="1.00851">
        <ele>1712.8</ele>
        <time>2022-05-22 20:50:27</time>
      </trkpt>
      <trkpt lat="42.64708" lon="1.00853">
        <ele>1712.8</ele>
        <time>2022-05-22 20:50:28</time>
      </trkpt>
      <trkpt lat="42.64709" lon="1.00856">
        <ele>1713</ele>
        <time>2022-05-22 20:50:29</time>
      </trkpt>
      <trkpt lat="42.6471" lon="1.00859">
        <ele>1713.2</ele>
        <time>2022-05-22 20:50:30</time>
      </trkpt>
      <trkpt lat="42.64711" lon="1.00862">
        <ele>1713.2</ele>
        <time>2022-05-22 20:50:31</time>
      </trkpt>
      <trkpt lat="42.64712" lon="1.00865">
        <ele>1713.4</ele>
        <time>2022-05-22 20:50:32</time>
      </trkpt>
      <trkpt lat="42.64713" lon="1.00867">
        <ele>1713.6</ele>
        <time>2022-05-22 20:50:33</time>
      </trkpt>
      <trkpt lat="42.64714" lon="1.00871">
        <ele>1713.8</ele>
        <time>2022-05-22 20:50:34</time>
      </trkpt>
      <trkpt lat="42.64715" lon="1.00875">
        <ele>1713.8</ele>
        <time>2022-05-22 20:50:35</time>
      </trkpt>
      <trkpt lat="42.64715" lon="1.00878">
        <ele>1714</ele>
        <time>2022-05-22 20:50:36</time>
      </trkpt>
      <trkpt lat="42.64716" lon="1.0088">
        <ele>1714.2</ele>
        <time>2022-05-22 20:50:37</time>
      </trkpt>
      <trkpt lat="42.64716" lon="1.00883">
        <ele>1714.4</ele>
        <time>2022-05-22 20:50:38</time>
      </trkpt>
      <trkpt lat="42.64716" lon="1.00886">
        <ele>1714.6</ele>
        <time>2022-05-22 20:50:39</time>
      </trkpt>
      <trkpt lat="42.64716" lon="1.00889">
        <ele>1714.8</ele>
        <time>2022-05-22 20:50:40</time>
      </trkpt>
      <trkpt lat="42.64716" lon="1.00892">
        <ele>1715</ele>
        <time>2022-05-22 20:50:41</time>
      </trkpt>
      <trkpt lat="42.64716" lon="1.00895">
        <ele>1715</ele>
        <time>2022-05-22 20:50:42</time>
      </trkpt>
      <trkpt lat="42.64716" lon="1.00897">
        <ele>1715.2</ele>
        <time>2022-05-22 20:50:43</time>
      </trkpt>
      <trkpt lat="42.64716" lon="1.009">
        <ele>1715.4</ele>
        <time>2022-05-22 20:50:44</time>
      </trkpt>
      <trkpt lat="42.64716" lon="1.00903">
        <ele>1715.4</ele>
        <time>2022-05-22 20:50:45</time>
      </trkpt>
      <trkpt lat="42.64716" lon="1.00905">
        <ele>1715.6</ele>
        <time>2022-05-22 20:50:46</time>
      </trkpt>
      <trkpt lat="42.64716" lon="1.00908">
        <ele>1715.8</ele>
        <time>2022-05-22 20:50:47</time>
      </trkpt>
      <trkpt lat="42.64716" lon="1.00911">
        <ele>1716</ele>
        <time>2022-05-22 20:50:48</time>
      </trkpt>
      <trkpt lat="42.64715" lon="1.00914">
        <ele>1716</ele>
        <time>2022-05-22 20:50:49</time>
      </trkpt>
      <trkpt lat="42.64715" lon="1.00917">
        <ele>1716.2</ele>
        <time>2022-05-22 20:50:50</time>
      </trkpt>
      <trkpt lat="42.64715" lon="1.0092">
        <ele>1716.4</ele>
        <time>2022-05-22 20:50:51</time>
      </trkpt>
      <trkpt lat="42.64715" lon="1.00922">
        <ele>1716.4</ele>
        <time>2022-05-22 20:50:52</time>
      </trkpt>
      <trkpt lat="42.64715" lon="1.00925">
        <ele>1716.6</ele>
        <time>2022-05-22 20:50:53</time>
      </trkpt>
      <trkpt lat="42.64715" lon="1.00927">
        <ele>1716.8</ele>
        <time>2022-05-22 20:50:54</time>
      </trkpt>
      <trkpt lat="42.64714" lon="1.0093">
        <ele>1717</ele>
        <time>2022-05-22 20:50:55</time>
      </trkpt>
      <trkpt lat="42.64714" lon="1.00933">
        <ele>1717</ele>
        <time>2022-05-22 20:50:56</time>
      </trkpt>
      <trkpt lat="42.64714" lon="1.00935">
        <ele>1717.2</ele>
        <time>2022-05-22 20:50:57</time>
      </trkpt>
      <trkpt lat="42.64713" lon="1.00938">
        <ele>1717.4</ele>
        <time>2022-05-22 20:50:58</time>
      </trkpt>
      <trkpt lat="42.64713" lon="1.00941">
        <ele>1717.6</ele>
        <time>2022-05-22 20:50:59</time>
      </trkpt>
      <trkpt lat="42.64713" lon="1.00944">
        <ele>1717.6</ele>
        <time>2022-05-22 20:51:00</time>
      </trkpt>
      <trkpt lat="42.64712" lon="1.00947">
        <ele>1717.8</ele>
        <time>2022-05-22 20:51:01</time>
      </trkpt>
      <trkpt lat="42.64712" lon="1.00949">
        <ele>1718</ele>
        <time>2022-05-22 20:51:02</time>
      </trkpt>
      <trkpt lat="42.64711" lon="1.00951">
        <ele>1718.2</ele>
        <time>2022-05-22 20:51:03</time>
      </trkpt>
      <trkpt lat="42.64709" lon="1.00954">
        <ele>1718.2</ele>
        <time>2022-05-22 20:51:04</time>
      </trkpt>
      <trkpt lat="42.64708" lon="1.00957">
        <ele>1718.4</ele>
        <time>2022-05-22 20:51:05</time>
      </trkpt>
      <trkpt lat="42.64707" lon="1.00959">
        <ele>1718.6</ele>
        <time>2022-05-22 20:51:06</time>
      </trkpt>
      <trkpt lat="42.64706" lon="1.00961">
        <ele>1718.8</ele>
        <time>2022-05-22 20:51:07</time>
      </trkpt>
      <trkpt lat="42.64705" lon="1.00964">
        <ele>1719</ele>
        <time>2022-05-22 20:51:08</time>
      </trkpt>
      <trkpt lat="42.64704" lon="1.00967">
        <ele>1719.2</ele>
        <time>2022-05-22 20:51:09</time>
      </trkpt>
      <trkpt lat="42.64704" lon="1.0097">
        <ele>1719.4</ele>
        <time>2022-05-22 20:51:10</time>
      </trkpt>
      <trkpt lat="42.64703" lon="1.00972">
        <ele>1719.6</ele>
        <time>2022-05-22 20:51:11</time>
      </trkpt>
      <trkpt lat="42.64702" lon="1.00974">
        <ele>1719.6</ele>
        <time>2022-05-22 20:51:12</time>
      </trkpt>
      <trkpt lat="42.64701" lon="1.00977">
        <ele>1719.8</ele>
        <time>2022-05-22 20:51:13</time>
      </trkpt>
      <trkpt lat="42.647" lon="1.0098">
        <ele>1719.8</ele>
        <time>2022-05-22 20:51:14</time>
      </trkpt>
      <trkpt lat="42.647" lon="1.00983">
        <ele>1720</ele>
        <time>2022-05-22 20:51:15</time>
      </trkpt>
      <trkpt lat="42.647" lon="1.00986">
        <ele>1720.2</ele>
        <time>2022-05-22 20:51:16</time>
      </trkpt>
      <trkpt lat="42.647" lon="1.00988">
        <ele>1720.2</ele>
        <time>2022-05-22 20:51:17</time>
      </trkpt>
      <trkpt lat="42.647" lon="1.00991">
        <ele>1720.4</ele>
        <time>2022-05-22 20:51:18</time>
      </trkpt>
      <trkpt lat="42.64699" lon="1.00994">
        <ele>1720.6</ele>
        <time>2022-05-22 20:51:19</time>
      </trkpt>
      <trkpt lat="42.64699" lon="1.00997">
        <ele>1720.8</ele>
        <time>2022-05-22 20:51:20</time>
      </trkpt>
      <trkpt lat="42.647" lon="1.01001">
        <ele>1720.8</ele>
        <time>2022-05-22 20:51:21</time>
      </trkpt>
      <trkpt lat="42.647" lon="1.01003">
        <ele>1721</ele>
        <time>2022-05-22 20:51:22</time>
      </trkpt>
      <trkpt lat="42.64701" lon="1.01005">
        <ele>1721.2</ele>
        <time>2022-05-22 20:51:23</time>
      </trkpt>
      <trkpt lat="42.64703" lon="1.01008">
        <ele>1721.2</ele>
        <time>2022-05-22 20:51:24</time>
      </trkpt>
      <trkpt lat="42.64704" lon="1.0101">
        <ele>1721.4</ele>
        <time>2022-05-22 20:51:25</time>
      </trkpt>
      <trkpt lat="42.64706" lon="1.01011">
        <ele>1721.6</ele>
        <time>2022-05-22 20:51:26</time>
      </trkpt>
      <trkpt lat="42.64708" lon="1.01012">
        <ele>1721.6</ele>
        <time>2022-05-22 20:51:27</time>
      </trkpt>
      <trkpt lat="42.64711" lon="1.01012">
        <ele>1721.8</ele>
        <time>2022-05-22 20:51:28</time>
      </trkpt>
      <trkpt lat="42.64713" lon="1.01011">
        <ele>1721.8</ele>
        <time>2022-05-22 20:51:29</time>
      </trkpt>
      <trkpt lat="42.64715" lon="1.01009">
        <ele>1722</ele>
        <time>2022-05-22 20:51:30</time>
      </trkpt>
      <trkpt lat="42.64717" lon="1.01008">
        <ele>1722.2</ele>
        <time>2022-05-22 20:51:31</time>
      </trkpt>
      <trkpt lat="42.64719" lon="1.01005">
        <ele>1722.2</ele>
        <time>2022-05-22 20:51:32</time>
      </trkpt>
      <trkpt lat="42.64721" lon="1.01003">
        <ele>1722.4</ele>
        <time>2022-05-22 20:51:33</time>
      </trkpt>
      <trkpt lat="42.64723" lon="1.01001">
        <ele>1722.6</ele>
        <time>2022-05-22 20:51:34</time>
      </trkpt>
      <trkpt lat="42.64724" lon="1.00999">
        <ele>1722.8</ele>
        <time>2022-05-22 20:51:35</time>
      </trkpt>
      <trkpt lat="42.64725" lon="1.00996">
        <ele>1723</ele>
        <time>2022-05-22 20:51:36</time>
      </trkpt>
      <trkpt lat="42.64726" lon="1.00994">
        <ele>1723.2</ele>
        <time>2022-05-22 20:51:37</time>
      </trkpt>
      <trkpt lat="42.64726" lon="1.00991">
        <ele>1723.4</ele>
        <time>2022-05-22 20:51:38</time>
      </trkpt>
      <trkpt lat="42.64727" lon="1.00989">
        <ele>1723.6</ele>
        <time>2022-05-22 20:51:39</time>
      </trkpt>
      <trkpt lat="42.64728" lon="1.00987">
        <ele>1723.8</ele>
        <time>2022-05-22 20:51:40</time>
      </trkpt>
      <trkpt lat="42.64729" lon="1.00984">
        <ele>1723.8</ele>
        <time>2022-05-22 20:51:41</time>
      </trkpt>
      <trkpt lat="42.6473" lon="1.00981">
        <ele>1724</ele>
        <time>2022-05-22 20:51:42</time>
      </trkpt>
      <trkpt lat="42.64731" lon="1.00978">
        <ele>1724.2</ele>
        <time>2022-05-22 20:51:43</time>
      </trkpt>
      <trkpt lat="42.64732" lon="1.00975">
        <ele>1724.4</ele>
        <time>2022-05-22 20:51:44</time>
      </trkpt>
      <trkpt lat="42.64732" lon="1.00971">
        <ele>1724.6</ele>
        <time>2022-05-22 20:51:45</time>
      </trkpt>
      <trkpt lat="42.64733" lon="1.00968">
        <ele>1724.8</ele>
        <time>2022-05-22 20:51:46</time>
      </trkpt>
      <trkpt lat="42.64734" lon="1.00965">
        <ele>1725</ele>
        <time>2022-05-22 20:51:47</time>
      </trkpt>
      <trkpt lat="42.64734" lon="1.00963">
        <ele>1725</ele>
        <time>2022-05-22 20:51:48</time>
      </trkpt>
      <trkpt lat="42.64734" lon="1.0096">
        <ele>1725.2</ele>
        <time>2022-05-22 20:51:49</time>
      </trkpt>
      <trkpt lat="42.64735" lon="1.00957">
        <ele>1725.4</ele>
        <time>2022-05-22 20:51:50</time>
      </trkpt>
      <trkpt lat="42.64735" lon="1.00954">
        <ele>1725.6</ele>
        <time>2022-05-22 20:51:51</time>
      </trkpt>
      <trkpt lat="42.64736" lon="1.00951">
        <ele>1725.8</ele>
        <time>2022-05-22 20:51:52</time>
      </trkpt>
      <trkpt lat="42.64736" lon="1.00949">
        <ele>1726</ele>
        <time>2022-05-22 20:51:53</time>
      </trkpt>
      <trkpt lat="42.64737" lon="1.00946">
        <ele>1726</ele>
        <time>2022-05-22 20:51:54</time>
      </trkpt>
      <trkpt lat="42.64738" lon="1.00943">
        <ele>1726.2</ele>
        <time>2022-05-22 20:51:55</time>
      </trkpt>
      <trkpt lat="42.64739" lon="1.0094">
        <ele>1726.4</ele>
        <time>2022-05-22 20:51:56</time>
      </trkpt>
      <trkpt lat="42.64739" lon="1.00937">
        <ele>1726.6</ele>
        <time>2022-05-22 20:51:57</time>
      </trkpt>
      <trkpt lat="42.64739" lon="1.00935">
        <ele>1726.6</ele>
        <time>2022-05-22 20:51:58</time>
      </trkpt>
      <trkpt lat="42.6474" lon="1.00933">
        <ele>1726.8</ele>
        <time>2022-05-22 20:51:59</time>
      </trkpt>
      <trkpt lat="42.64741" lon="1.0093">
        <ele>1727</ele>
        <time>2022-05-22 20:52:00</time>
      </trkpt>
      <trkpt lat="42.64742" lon="1.00928">
        <ele>1727.2</ele>
        <time>2022-05-22 20:52:01</time>
      </trkpt>
      <trkpt lat="42.64743" lon="1.00925">
        <ele>1727.2</ele>
        <time>2022-05-22 20:52:02</time>
      </trkpt>
      <trkpt lat="42.64744" lon="1.00923">
        <ele>1727.4</ele>
        <time>2022-05-22 20:52:03</time>
      </trkpt>
      <trkpt lat="42.64745" lon="1.00921">
        <ele>1727.6</ele>
        <time>2022-05-22 20:52:04</time>
      </trkpt>
      <trkpt lat="42.64746" lon="1.00918">
        <ele>1727.6</ele>
        <time>2022-05-22 20:52:05</time>
      </trkpt>
      <trkpt lat="42.64747" lon="1.00915">
        <ele>1727.8</ele>
        <time>2022-05-22 20:52:06</time>
      </trkpt>
      <trkpt lat="42.64748" lon="1.00913">
        <ele>1728</ele>
        <time>2022-05-22 20:52:07</time>
      </trkpt>
      <trkpt lat="42.64749" lon="1.00911">
        <ele>1728.2</ele>
        <time>2022-05-22 20:52:08</time>
      </trkpt>
      <trkpt lat="42.6475" lon="1.00908">
        <ele>1728.4</ele>
        <time>2022-05-22 20:52:09</time>
      </trkpt>
      <trkpt lat="42.64751" lon="1.00905">
        <ele>1728.6</ele>
        <time>2022-05-22 20:52:10</time>
      </trkpt>
      <trkpt lat="42.64752" lon="1.00902">
        <ele>1728.6</ele>
        <time>2022-05-22 20:52:11</time>
      </trkpt>
      <trkpt lat="42.64753" lon="1.00899">
        <ele>1728.8</ele>
        <time>2022-05-22 20:52:12</time>
      </trkpt>
      <trkpt lat="42.64754" lon="1.00897">
        <ele>1729</ele>
        <time>2022-05-22 20:52:13</time>
      </trkpt>
      <trkpt lat="42.64754" lon="1.00894">
        <ele>1729.2</ele>
        <time>2022-05-22 20:52:14</time>
      </trkpt>
      <trkpt lat="42.64755" lon="1.0089">
        <ele>1729.4</ele>
        <time>2022-05-22 20:52:15</time>
      </trkpt>
      <trkpt lat="42.64756" lon="1.00886">
        <ele>1729.4</ele>
        <time>2022-05-22 20:52:16</time>
      </trkpt>
      <trkpt lat="42.64756" lon="1.00884">
        <ele>1729.6</ele>
        <time>2022-05-22 20:52:17</time>
      </trkpt>
      <trkpt lat="42.64756" lon="1.0088">
        <ele>1729.8</ele>
        <time>2022-05-22 20:52:18</time>
      </trkpt>
      <trkpt lat="42.64756" lon="1.00877">
        <ele>1730</ele>
        <time>2022-05-22 20:52:19</time>
      </trkpt>
      <trkpt lat="42.64757" lon="1.00875">
        <ele>1730</ele>
        <time>2022-05-22 20:52:20</time>
      </trkpt>
      <trkpt lat="42.64757" lon="1.00872">
        <ele>1730.2</ele>
        <time>2022-05-22 20:52:21</time>
      </trkpt>
      <trkpt lat="42.64757" lon="1.0087">
        <ele>1730.4</ele>
        <time>2022-05-22 20:52:22</time>
      </trkpt>
      <trkpt lat="42.64758" lon="1.00868">
        <ele>1730.4</ele>
        <time>2022-05-22 20:52:23</time>
      </trkpt>
      <trkpt lat="42.64759" lon="1.00865">
        <ele>1730.6</ele>
        <time>2022-05-22 20:52:24</time>
      </trkpt>
      <trkpt lat="42.6476" lon="1.00862">
        <ele>1730.8</ele>
        <time>2022-05-22 20:52:25</time>
      </trkpt>
      <trkpt lat="42.6476" lon="1.00859">
        <ele>1731</ele>
        <time>2022-05-22 20:52:26</time>
      </trkpt>
      <trkpt lat="42.6476" lon="1.00856">
        <ele>1731.2</ele>
        <time>2022-05-22 20:52:27</time>
      </trkpt>
      <trkpt lat="42.64761" lon="1.00853">
        <ele>1731.2</ele>
        <time>2022-05-22 20:52:28</time>
      </trkpt>
      <trkpt lat="42.64761" lon="1.0085">
        <ele>1731.4</ele>
        <time>2022-05-22 20:52:29</time>
      </trkpt>
      <trkpt lat="42.64761" lon="1.00848">
        <ele>1731.6</ele>
        <time>2022-05-22 20:52:30</time>
      </trkpt>
      <trkpt lat="42.64761" lon="1.00845">
        <ele>1731.8</ele>
        <time>2022-05-22 20:52:31</time>
      </trkpt>
      <trkpt lat="42.64761" lon="1.00842">
        <ele>1731.8</ele>
        <time>2022-05-22 20:52:32</time>
      </trkpt>
      <trkpt lat="42.64762" lon="1.00839">
        <ele>1732</ele>
        <time>2022-05-22 20:52:33</time>
      </trkpt>
      <trkpt lat="42.64762" lon="1.00836">
        <ele>1732.2</ele>
        <time>2022-05-22 20:52:34</time>
      </trkpt>
      <trkpt lat="42.64762" lon="1.00833">
        <ele>1732.4</ele>
        <time>2022-05-22 20:52:35</time>
      </trkpt>
      <trkpt lat="42.64762" lon="1.0083">
        <ele>1732.4</ele>
        <time>2022-05-22 20:52:36</time>
      </trkpt>
      <trkpt lat="42.64762" lon="1.00828">
        <ele>1732.6</ele>
        <time>2022-05-22 20:52:37</time>
      </trkpt>
      <trkpt lat="42.64762" lon="1.00825">
        <ele>1732.8</ele>
        <time>2022-05-22 20:52:38</time>
      </trkpt>
      <trkpt lat="42.64762" lon="1.00821">
        <ele>1732.8</ele>
        <time>2022-05-22 20:52:39</time>
      </trkpt>
      <trkpt lat="42.64762" lon="1.00818">
        <ele>1733</ele>
        <time>2022-05-22 20:52:40</time>
      </trkpt>
      <trkpt lat="42.64762" lon="1.00815">
        <ele>1733.2</ele>
        <time>2022-05-22 20:52:41</time>
      </trkpt>
      <trkpt lat="42.64762" lon="1.00812">
        <ele>1733.2</ele>
        <time>2022-05-22 20:52:42</time>
      </trkpt>
      <trkpt lat="42.64761" lon="1.00808">
        <ele>1733.4</ele>
        <time>2022-05-22 20:52:43</time>
      </trkpt>
      <trkpt lat="42.64761" lon="1.00805">
        <ele>1733.6</ele>
        <time>2022-05-22 20:52:44</time>
      </trkpt>
      <trkpt lat="42.6476" lon="1.00801">
        <ele>1733.6</ele>
        <time>2022-05-22 20:52:45</time>
      </trkpt>
      <trkpt lat="42.64759" lon="1.00798">
        <ele>1733.8</ele>
        <time>2022-05-22 20:52:46</time>
      </trkpt>
      <trkpt lat="42.64758" lon="1.00796">
        <ele>1734</ele>
        <time>2022-05-22 20:52:47</time>
      </trkpt>
      <trkpt lat="42.64757" lon="1.00794">
        <ele>1734.2</ele>
        <time>2022-05-22 20:52:48</time>
      </trkpt>
      <trkpt lat="42.64757" lon="1.00792">
        <ele>1734.4</ele>
        <time>2022-05-22 20:52:49</time>
      </trkpt>
      <trkpt lat="42.64756" lon="1.0079">
        <ele>1734.6</ele>
        <time>2022-05-22 20:52:50</time>
      </trkpt>
      <trkpt lat="42.64755" lon="1.00789">
        <ele>1734.8</ele>
        <time>2022-05-22 20:52:51</time>
      </trkpt>
      <trkpt lat="42.64753" lon="1.00787">
        <ele>1734.8</ele>
        <time>2022-05-22 20:52:52</time>
      </trkpt>
      <trkpt lat="42.64752" lon="1.00785">
        <ele>1735</ele>
        <time>2022-05-22 20:52:53</time>
      </trkpt>
      <trkpt lat="42.64751" lon="1.00783">
        <ele>1735.2</ele>
        <time>2022-05-22 20:52:54</time>
      </trkpt>
      <trkpt lat="42.64749" lon="1.0078">
        <ele>1735.4</ele>
        <time>2022-05-22 20:52:55</time>
      </trkpt>
      <trkpt lat="42.64748" lon="1.00778">
        <ele>1735.4</ele>
        <time>2022-05-22 20:52:56</time>
      </trkpt>
      <trkpt lat="42.64746" lon="1.00775">
        <ele>1735.6</ele>
        <time>2022-05-22 20:52:57</time>
      </trkpt>
      <trkpt lat="42.64745" lon="1.00774">
        <ele>1735.8</ele>
        <time>2022-05-22 20:52:58</time>
      </trkpt>
      <trkpt lat="42.64744" lon="1.00772">
        <ele>1735.8</ele>
        <time>2022-05-22 20:52:59</time>
      </trkpt>
      <trkpt lat="42.64743" lon="1.00769">
        <ele>1736</ele>
        <time>2022-05-22 20:53:00</time>
      </trkpt>
      <trkpt lat="42.64741" lon="1.00767">
        <ele>1736.2</ele>
        <time>2022-05-22 20:53:01</time>
      </trkpt>
      <trkpt lat="42.6474" lon="1.00765">
        <ele>1736.4</ele>
        <time>2022-05-22 20:53:02</time>
      </trkpt>
      <trkpt lat="42.64738" lon="1.00763">
        <ele>1736.4</ele>
        <time>2022-05-22 20:53:03</time>
      </trkpt>
      <trkpt lat="42.64737" lon="1.00762">
        <ele>1736.6</ele>
        <time>2022-05-22 20:53:04</time>
      </trkpt>
      <trkpt lat="42.64736" lon="1.0076">
        <ele>1736.8</ele>
        <time>2022-05-22 20:53:05</time>
      </trkpt>
      <trkpt lat="42.64735" lon="1.00758">
        <ele>1737</ele>
        <time>2022-05-22 20:53:06</time>
      </trkpt>
      <trkpt lat="42.64734" lon="1.00755">
        <ele>1737</ele>
        <time>2022-05-22 20:53:07</time>
      </trkpt>
      <trkpt lat="42.64733" lon="1.00752">
        <ele>1737.2</ele>
        <time>2022-05-22 20:53:08</time>
      </trkpt>
      <trkpt lat="42.64731" lon="1.0075">
        <ele>1737.2</ele>
        <time>2022-05-22 20:53:09</time>
      </trkpt>
      <trkpt lat="42.6473" lon="1.00747">
        <ele>1737.4</ele>
        <time>2022-05-22 20:53:10</time>
      </trkpt>
      <trkpt lat="42.64729" lon="1.00745">
        <ele>1737.6</ele>
        <time>2022-05-22 20:53:11</time>
      </trkpt>
      <trkpt lat="42.64728" lon="1.00742">
        <ele>1737.8</ele>
        <time>2022-05-22 20:53:12</time>
      </trkpt>
      <trkpt lat="42.64726" lon="1.0074">
        <ele>1738</ele>
        <time>2022-05-22 20:53:13</time>
      </trkpt>
      <trkpt lat="42.64725" lon="1.00737">
        <ele>1738</ele>
        <time>2022-05-22 20:53:14</time>
      </trkpt>
      <trkpt lat="42.64723" lon="1.00735">
        <ele>1738.2</ele>
        <time>2022-05-22 20:53:15</time>
      </trkpt>
      <trkpt lat="42.64722" lon="1.00733">
        <ele>1738.4</ele>
        <time>2022-05-22 20:53:16</time>
      </trkpt>
      <trkpt lat="42.64721" lon="1.0073">
        <ele>1738.6</ele>
        <time>2022-05-22 20:53:17</time>
      </trkpt>
      <trkpt lat="42.6472" lon="1.00728">
        <ele>1738.6</ele>
        <time>2022-05-22 20:53:18</time>
      </trkpt>
      <trkpt lat="42.64719" lon="1.00725">
        <ele>1738.8</ele>
        <time>2022-05-22 20:53:19</time>
      </trkpt>
      <trkpt lat="42.64717" lon="1.00723">
        <ele>1739</ele>
        <time>2022-05-22 20:53:20</time>
      </trkpt>
      <trkpt lat="42.64716" lon="1.00721">
        <ele>1739.2</ele>
        <time>2022-05-22 20:53:21</time>
      </trkpt>
      <trkpt lat="42.64715" lon="1.00718">
        <ele>1739.4</ele>
        <time>2022-05-22 20:53:22</time>
      </trkpt>
      <trkpt lat="42.64714" lon="1.00716">
        <ele>1739.6</ele>
        <time>2022-05-22 20:53:23</time>
      </trkpt>
      <trkpt lat="42.64713" lon="1.00714">
        <ele>1739.8</ele>
        <time>2022-05-22 20:53:24</time>
      </trkpt>
      <trkpt lat="42.64712" lon="1.00711">
        <ele>1739.8</ele>
        <time>2022-05-22 20:53:25</time>
      </trkpt>
      <trkpt lat="42.64711" lon="1.00709">
        <ele>1740</ele>
        <time>2022-05-22 20:53:26</time>
      </trkpt>
      <trkpt lat="42.6471" lon="1.00707">
        <ele>1740.2</ele>
        <time>2022-05-22 20:53:27</time>
      </trkpt>
      <trkpt lat="42.64709" lon="1.00705">
        <ele>1740.4</ele>
        <time>2022-05-22 20:53:28</time>
      </trkpt>
      <trkpt lat="42.64707" lon="1.00702">
        <ele>1740.6</ele>
        <time>2022-05-22 20:53:29</time>
      </trkpt>
      <trkpt lat="42.64706" lon="1.007">
        <ele>1740.6</ele>
        <time>2022-05-22 20:53:30</time>
      </trkpt>
      <trkpt lat="42.64705" lon="1.00697">
        <ele>1740.8</ele>
        <time>2022-05-22 20:53:31</time>
      </trkpt>
      <trkpt lat="42.64704" lon="1.00695">
        <ele>1741</ele>
        <time>2022-05-22 20:53:32</time>
      </trkpt>
      <trkpt lat="42.64703" lon="1.00692">
        <ele>1741.2</ele>
        <time>2022-05-22 20:53:33</time>
      </trkpt>
      <trkpt lat="42.64701" lon="1.0069">
        <ele>1741.4</ele>
        <time>2022-05-22 20:53:34</time>
      </trkpt>
      <trkpt lat="42.64699" lon="1.00687">
        <ele>1741.6</ele>
        <time>2022-05-22 20:53:35</time>
      </trkpt>
      <trkpt lat="42.64698" lon="1.00685">
        <ele>1741.8</ele>
        <time>2022-05-22 20:53:36</time>
      </trkpt>
      <trkpt lat="42.64696" lon="1.00683">
        <ele>1742</ele>
        <time>2022-05-22 20:53:37</time>
      </trkpt>
      <trkpt lat="42.64694" lon="1.00681">
        <ele>1742.2</ele>
        <time>2022-05-22 20:53:38</time>
      </trkpt>
      <trkpt lat="42.64692" lon="1.00679">
        <ele>1742.2</ele>
        <time>2022-05-22 20:53:39</time>
      </trkpt>
      <trkpt lat="42.6469" lon="1.00677">
        <ele>1742.4</ele>
        <time>2022-05-22 20:53:40</time>
      </trkpt>
      <trkpt lat="42.64689" lon="1.00676">
        <ele>1742.6</ele>
        <time>2022-05-22 20:53:41</time>
      </trkpt>
      <trkpt lat="42.64686" lon="1.00675">
        <ele>1742.8</ele>
        <time>2022-05-22 20:53:42</time>
      </trkpt>
      <trkpt lat="42.64684" lon="1.00674">
        <ele>1742.8</ele>
        <time>2022-05-22 20:53:43</time>
      </trkpt>
      <trkpt lat="42.64682" lon="1.00673">
        <ele>1743</ele>
        <time>2022-05-22 20:53:44</time>
      </trkpt>
      <trkpt lat="42.6468" lon="1.00672">
        <ele>1743.2</ele>
        <time>2022-05-22 20:53:45</time>
      </trkpt>
      <trkpt lat="42.64678" lon="1.00671">
        <ele>1743.2</ele>
        <time>2022-05-22 20:53:46</time>
      </trkpt>
      <trkpt lat="42.64675" lon="1.0067">
        <ele>1743.4</ele>
        <time>2022-05-22 20:53:47</time>
      </trkpt>
      <trkpt lat="42.64673" lon="1.00669">
        <ele>1743.6</ele>
        <time>2022-05-22 20:53:48</time>
      </trkpt>
      <trkpt lat="42.64671" lon="1.00669">
        <ele>1743.6</ele>
        <time>2022-05-22 20:53:49</time>
      </trkpt>
      <trkpt lat="42.64669" lon="1.00667">
        <ele>1743.8</ele>
        <time>2022-05-22 20:53:50</time>
      </trkpt>
      <trkpt lat="42.64667" lon="1.00666">
        <ele>1744</ele>
        <time>2022-05-22 20:53:51</time>
      </trkpt>
      <trkpt lat="42.64665" lon="1.00666">
        <ele>1744.2</ele>
        <time>2022-05-22 20:53:52</time>
      </trkpt>
      <trkpt lat="42.64663" lon="1.00665">
        <ele>1744.2</ele>
        <time>2022-05-22 20:53:53</time>
      </trkpt>
      <trkpt lat="42.6466" lon="1.00664">
        <ele>1744.4</ele>
        <time>2022-05-22 20:53:54</time>
      </trkpt>
      <trkpt lat="42.64658" lon="1.00664">
        <ele>1744.6</ele>
        <time>2022-05-22 20:53:55</time>
      </trkpt>
      <trkpt lat="42.64656" lon="1.00663">
        <ele>1744.6</ele>
        <time>2022-05-22 20:53:56</time>
      </trkpt>
      <trkpt lat="42.64654" lon="1.00662">
        <ele>1744.8</ele>
        <time>2022-05-22 20:53:57</time>
      </trkpt>
      <trkpt lat="42.64652" lon="1.00661">
        <ele>1744.8</ele>
        <time>2022-05-22 20:53:58</time>
      </trkpt>
      <trkpt lat="42.6465" lon="1.0066">
        <ele>1745</ele>
        <time>2022-05-22 20:53:59</time>
      </trkpt>
      <trkpt lat="42.64648" lon="1.00658">
        <ele>1745.2</ele>
        <time>2022-05-22 20:54:00</time>
      </trkpt>
      <trkpt lat="42.64646" lon="1.00657">
        <ele>1745.2</ele>
        <time>2022-05-22 20:54:01</time>
      </trkpt>
      <trkpt lat="42.64645" lon="1.00655">
        <ele>1745.4</ele>
        <time>2022-05-22 20:54:02</time>
      </trkpt>
      <trkpt lat="42.64643" lon="1.00653">
        <ele>1745.6</ele>
        <time>2022-05-22 20:54:03</time>
      </trkpt>
      <trkpt lat="42.64642" lon="1.00651">
        <ele>1745.6</ele>
        <time>2022-05-22 20:54:04</time>
      </trkpt>
      <trkpt lat="42.64641" lon="1.00648">
        <ele>1745.8</ele>
        <time>2022-05-22 20:54:05</time>
      </trkpt>
      <trkpt lat="42.64641" lon="1.00646">
        <ele>1746</ele>
        <time>2022-05-22 20:54:06</time>
      </trkpt>
      <trkpt lat="42.64641" lon="1.00643">
        <ele>1746.2</ele>
        <time>2022-05-22 20:54:07</time>
      </trkpt>
      <trkpt lat="42.64642" lon="1.0064">
        <ele>1746.2</ele>
        <time>2022-05-22 20:54:08</time>
      </trkpt>
      <trkpt lat="42.64643" lon="1.00637">
        <ele>1746.4</ele>
        <time>2022-05-22 20:54:09</time>
      </trkpt>
      <trkpt lat="42.64645" lon="1.00636">
        <ele>1746.6</ele>
        <time>2022-05-22 20:54:10</time>
      </trkpt>
      <trkpt lat="42.64647" lon="1.00635">
        <ele>1746.8</ele>
        <time>2022-05-22 20:54:11</time>
      </trkpt>
      <trkpt lat="42.64649" lon="1.00634">
        <ele>1747</ele>
        <time>2022-05-22 20:54:12</time>
      </trkpt>
      <trkpt lat="42.64651" lon="1.00634">
        <ele>1747.2</ele>
        <time>2022-05-22 20:54:13</time>
      </trkpt>
      <trkpt lat="42.64654" lon="1.00635">
        <ele>1747.4</ele>
        <time>2022-05-22 20:54:14</time>
      </trkpt>
      <trkpt lat="42.64656" lon="1.00635">
        <ele>1747.6</ele>
        <time>2022-05-22 20:54:15</time>
      </trkpt>
      <trkpt lat="42.64658" lon="1.00636">
        <ele>1747.8</ele>
        <time>2022-05-22 20:54:16</time>
      </trkpt>
      <trkpt lat="42.6466" lon="1.00637">
        <ele>1747.8</ele>
        <time>2022-05-22 20:54:17</time>
      </trkpt>
      <trkpt lat="42.64662" lon="1.00638">
        <ele>1748</ele>
        <time>2022-05-22 20:54:18</time>
      </trkpt>
      <trkpt lat="42.64665" lon="1.00639">
        <ele>1748.2</ele>
        <time>2022-05-22 20:54:19</time>
      </trkpt>
      <trkpt lat="42.64667" lon="1.0064">
        <ele>1748.4</ele>
        <time>2022-05-22 20:54:20</time>
      </trkpt>
      <trkpt lat="42.64669" lon="1.00641">
        <ele>1748.4</ele>
        <time>2022-05-22 20:54:21</time>
      </trkpt>
      <trkpt lat="42.64671" lon="1.00642">
        <ele>1748.6</ele>
        <time>2022-05-22 20:54:22</time>
      </trkpt>
      <trkpt lat="42.64673" lon="1.00643">
        <ele>1748.8</ele>
        <time>2022-05-22 20:54:23</time>
      </trkpt>
      <trkpt lat="42.64676" lon="1.00644">
        <ele>1749</ele>
        <time>2022-05-22 20:54:24</time>
      </trkpt>
      <trkpt lat="42.64678" lon="1.00644">
        <ele>1749</ele>
        <time>2022-05-22 20:54:25</time>
      </trkpt>
      <trkpt lat="42.64681" lon="1.00644">
        <ele>1749.2</ele>
        <time>2022-05-22 20:54:26</time>
      </trkpt>
      <trkpt lat="42.64683" lon="1.00645">
        <ele>1749.2</ele>
        <time>2022-05-22 20:54:27</time>
      </trkpt>
      <trkpt lat="42.64685" lon="1.00645">
        <ele>1749.4</ele>
        <time>2022-05-22 20:54:28</time>
      </trkpt>
      <trkpt lat="42.64688" lon="1.00645">
        <ele>1749.6</ele>
        <time>2022-05-22 20:54:29</time>
      </trkpt>
      <trkpt lat="42.6469" lon="1.00646">
        <ele>1749.6</ele>
        <time>2022-05-22 20:54:30</time>
      </trkpt>
      <trkpt lat="42.64693" lon="1.00647">
        <ele>1749.8</ele>
        <time>2022-05-22 20:54:31</time>
      </trkpt>
      <trkpt lat="42.64695" lon="1.00647">
        <ele>1750</ele>
        <time>2022-05-22 20:54:32</time>
      </trkpt>
      <trkpt lat="42.64697" lon="1.00648">
        <ele>1750</ele>
        <time>2022-05-22 20:54:33</time>
      </trkpt>
      <trkpt lat="42.64699" lon="1.00649">
        <ele>1750.2</ele>
        <time>2022-05-22 20:54:34</time>
      </trkpt>
      <trkpt lat="42.64701" lon="1.00649">
        <ele>1750.4</ele>
        <time>2022-05-22 20:54:35</time>
      </trkpt>
      <trkpt lat="42.64703" lon="1.0065">
        <ele>1750.4</ele>
        <time>2022-05-22 20:54:36</time>
      </trkpt>
      <trkpt lat="42.64705" lon="1.00651">
        <ele>1750.6</ele>
        <time>2022-05-22 20:54:37</time>
      </trkpt>
      <trkpt lat="42.64707" lon="1.00652">
        <ele>1750.8</ele>
        <time>2022-05-22 20:54:38</time>
      </trkpt>
      <trkpt lat="42.64709" lon="1.00654">
        <ele>1750.8</ele>
        <time>2022-05-22 20:54:39</time>
      </trkpt>
      <trkpt lat="42.64711" lon="1.00655">
        <ele>1751</ele>
        <time>2022-05-22 20:54:40</time>
      </trkpt>
      <trkpt lat="42.64713" lon="1.00657">
        <ele>1751.2</ele>
        <time>2022-05-22 20:54:41</time>
      </trkpt>
      <trkpt lat="42.64715" lon="1.00658">
        <ele>1751.2</ele>
        <time>2022-05-22 20:54:42</time>
      </trkpt>
      <trkpt lat="42.64717" lon="1.0066">
        <ele>1751.4</ele>
        <time>2022-05-22 20:54:43</time>
      </trkpt>
      <trkpt lat="42.64719" lon="1.00662">
        <ele>1751.6</ele>
        <time>2022-05-22 20:54:44</time>
      </trkpt>
      <trkpt lat="42.64721" lon="1.00663">
        <ele>1751.8</ele>
        <time>2022-05-22 20:54:45</time>
      </trkpt>
      <trkpt lat="42.64723" lon="1.00665">
        <ele>1752</ele>
        <time>2022-05-22 20:54:46</time>
      </trkpt>
      <trkpt lat="42.64724" lon="1.00667">
        <ele>1752.2</ele>
        <time>2022-05-22 20:54:47</time>
      </trkpt>
      <trkpt lat="42.64726" lon="1.00669">
        <ele>1752.4</ele>
        <time>2022-05-22 20:54:48</time>
      </trkpt>
      <trkpt lat="42.64728" lon="1.0067">
        <ele>1752.6</ele>
        <time>2022-05-22 20:54:49</time>
      </trkpt>
      <trkpt lat="42.64729" lon="1.00672">
        <ele>1752.8</ele>
        <time>2022-05-22 20:54:50</time>
      </trkpt>
      <trkpt lat="42.64731" lon="1.00674">
        <ele>1753</ele>
        <time>2022-05-22 20:54:51</time>
      </trkpt>
      <trkpt lat="42.64733" lon="1.00676">
        <ele>1753</ele>
        <time>2022-05-22 20:54:52</time>
      </trkpt>
      <trkpt lat="42.64734" lon="1.00678">
        <ele>1753.2</ele>
        <time>2022-05-22 20:54:53</time>
      </trkpt>
      <trkpt lat="42.64736" lon="1.0068">
        <ele>1753.4</ele>
        <time>2022-05-22 20:54:54</time>
      </trkpt>
      <trkpt lat="42.64738" lon="1.00681">
        <ele>1753.6</ele>
        <time>2022-05-22 20:54:55</time>
      </trkpt>
      <trkpt lat="42.64739" lon="1.00683">
        <ele>1753.8</ele>
        <time>2022-05-22 20:54:56</time>
      </trkpt>
      <trkpt lat="42.64742" lon="1.00685">
        <ele>1754</ele>
        <time>2022-05-22 20:54:57</time>
      </trkpt>
      <trkpt lat="42.64743" lon="1.00686">
        <ele>1754.2</ele>
        <time>2022-05-22 20:54:58</time>
      </trkpt>
      <trkpt lat="42.64745" lon="1.00687">
        <ele>1754.4</ele>
        <time>2022-05-22 20:54:59</time>
      </trkpt>
      <trkpt lat="42.64747" lon="1.00689">
        <ele>1754.6</ele>
        <time>2022-05-22 20:55:00</time>
      </trkpt>
      <trkpt lat="42.64749" lon="1.0069">
        <ele>1754.6</ele>
        <time>2022-05-22 20:55:01</time>
      </trkpt>
      <trkpt lat="42.64751" lon="1.00691">
        <ele>1754.8</ele>
        <time>2022-05-22 20:55:02</time>
      </trkpt>
      <trkpt lat="42.64753" lon="1.00692">
        <ele>1755</ele>
        <time>2022-05-22 20:55:03</time>
      </trkpt>
      <trkpt lat="42.64755" lon="1.00694">
        <ele>1755.2</ele>
        <time>2022-05-22 20:55:04</time>
      </trkpt>
      <trkpt lat="42.64756" lon="1.00695">
        <ele>1755.4</ele>
        <time>2022-05-22 20:55:05</time>
      </trkpt>
      <trkpt lat="42.64758" lon="1.00696">
        <ele>1755.4</ele>
        <time>2022-05-22 20:55:06</time>
      </trkpt>
      <trkpt lat="42.6476" lon="1.00698">
        <ele>1755.6</ele>
        <time>2022-05-22 20:55:07</time>
      </trkpt>
      <trkpt lat="42.64762" lon="1.00699">
        <ele>1755.8</ele>
        <time>2022-05-22 20:55:08</time>
      </trkpt>
      <trkpt lat="42.64764" lon="1.007">
        <ele>1756</ele>
        <time>2022-05-22 20:55:09</time>
      </trkpt>
      <trkpt lat="42.64766" lon="1.00702">
        <ele>1756</ele>
        <time>2022-05-22 20:55:10</time>
      </trkpt>
      <trkpt lat="42.64768" lon="1.00703">
        <ele>1756.2</ele>
        <time>2022-05-22 20:55:11</time>
      </trkpt>
      <trkpt lat="42.6477" lon="1.00704">
        <ele>1756.2</ele>
        <time>2022-05-22 20:55:12</time>
      </trkpt>
      <trkpt lat="42.64772" lon="1.00705">
        <ele>1756.4</ele>
        <time>2022-05-22 20:55:13</time>
      </trkpt>
      <trkpt lat="42.64774" lon="1.00707">
        <ele>1756.6</ele>
        <time>2022-05-22 20:55:14</time>
      </trkpt>
      <trkpt lat="42.64776" lon="1.00708">
        <ele>1756.6</ele>
        <time>2022-05-22 20:55:15</time>
      </trkpt>
      <trkpt lat="42.64778" lon="1.00709">
        <ele>1756.8</ele>
        <time>2022-05-22 20:55:16</time>
      </trkpt>
      <trkpt lat="42.6478" lon="1.0071">
        <ele>1756.8</ele>
        <time>2022-05-22 20:55:17</time>
      </trkpt>
      <trkpt lat="42.64782" lon="1.00712">
        <ele>1757</ele>
        <time>2022-05-22 20:55:18</time>
      </trkpt>
      <trkpt lat="42.64785" lon="1.00713">
        <ele>1757</ele>
        <time>2022-05-22 20:55:19</time>
      </trkpt>
      <trkpt lat="42.64787" lon="1.00715">
        <ele>1757.2</ele>
        <time>2022-05-22 20:55:20</time>
      </trkpt>
      <trkpt lat="42.64789" lon="1.00717">
        <ele>1757.2</ele>
        <time>2022-05-22 20:55:21</time>
      </trkpt>
      <trkpt lat="42.64791" lon="1.00719">
        <ele>1757.2</ele>
        <time>2022-05-22 20:55:22</time>
      </trkpt>
      <trkpt lat="42.64793" lon="1.00721">
        <ele>1757.4</ele>
        <time>2022-05-22 20:55:23</time>
      </trkpt>
      <trkpt lat="42.64795" lon="1.00723">
        <ele>1757.4</ele>
        <time>2022-05-22 20:55:24</time>
      </trkpt>
      <trkpt lat="42.64797" lon="1.00725">
        <ele>1757.6</ele>
        <time>2022-05-22 20:55:25</time>
      </trkpt>
      <trkpt lat="42.64799" lon="1.00727">
        <ele>1757.6</ele>
        <time>2022-05-22 20:55:26</time>
      </trkpt>
      <trkpt lat="42.64801" lon="1.00729">
        <ele>1757.8</ele>
        <time>2022-05-22 20:55:27</time>
      </trkpt>
      <trkpt lat="42.64803" lon="1.0073">
        <ele>1757.8</ele>
        <time>2022-05-22 20:55:28</time>
      </trkpt>
      <trkpt lat="42.64804" lon="1.00732">
        <ele>1758</ele>
        <time>2022-05-22 20:55:29</time>
      </trkpt>
      <trkpt lat="42.64806" lon="1.00734">
        <ele>1758.2</ele>
        <time>2022-05-22 20:55:30</time>
      </trkpt>
      <trkpt lat="42.64807" lon="1.00736">
        <ele>1758.2</ele>
        <time>2022-05-22 20:55:31</time>
      </trkpt>
      <trkpt lat="42.64809" lon="1.00738">
        <ele>1758.4</ele>
        <time>2022-05-22 20:55:32</time>
      </trkpt>
      <trkpt lat="42.64811" lon="1.0074">
        <ele>1758.6</ele>
        <time>2022-05-22 20:55:33</time>
      </trkpt>
      <trkpt lat="42.64812" lon="1.00741">
        <ele>1758.8</ele>
        <time>2022-05-22 20:55:34</time>
      </trkpt>
      <trkpt lat="42.64813" lon="1.00743">
        <ele>1758.8</ele>
        <time>2022-05-22 20:55:35</time>
      </trkpt>
      <trkpt lat="42.64815" lon="1.00745">
        <ele>1759</ele>
        <time>2022-05-22 20:55:36</time>
      </trkpt>
      <trkpt lat="42.64816" lon="1.00746">
        <ele>1759.2</ele>
        <time>2022-05-22 20:55:37</time>
      </trkpt>
      <trkpt lat="42.64817" lon="1.00748">
        <ele>1759.4</ele>
        <time>2022-05-22 20:55:38</time>
      </trkpt>
      <trkpt lat="42.64818" lon="1.0075">
        <ele>1759.6</ele>
        <time>2022-05-22 20:55:39</time>
      </trkpt>
      <trkpt lat="42.64819" lon="1.00752">
        <ele>1759.8</ele>
        <time>2022-05-22 20:55:40</time>
      </trkpt>
      <trkpt lat="42.64821" lon="1.00754">
        <ele>1760</ele>
        <time>2022-05-22 20:55:41</time>
      </trkpt>
      <trkpt lat="42.64822" lon="1.00756">
        <ele>1760.2</ele>
        <time>2022-05-22 20:55:42</time>
      </trkpt>
      <trkpt lat="42.64823" lon="1.00758">
        <ele>1760.4</ele>
        <time>2022-05-22 20:55:43</time>
      </trkpt>
      <trkpt lat="42.64824" lon="1.00759">
        <ele>1760.6</ele>
        <time>2022-05-22 20:55:44</time>
      </trkpt>
      <trkpt lat="42.64826" lon="1.00761">
        <ele>1760.8</ele>
        <time>2022-05-22 20:55:45</time>
      </trkpt>
      <trkpt lat="42.64827" lon="1.00763">
        <ele>1761</ele>
        <time>2022-05-22 20:55:46</time>
      </trkpt>
      <trkpt lat="42.64828" lon="1.00765">
        <ele>1761.2</ele>
        <time>2022-05-22 20:55:47</time>
      </trkpt>
      <trkpt lat="42.6483" lon="1.00767">
        <ele>1761.4</ele>
        <time>2022-05-22 20:55:48</time>
      </trkpt>
      <trkpt lat="42.64831" lon="1.00769">
        <ele>1761.6</ele>
        <time>2022-05-22 20:55:49</time>
      </trkpt>
      <trkpt lat="42.64833" lon="1.00771">
        <ele>1761.8</ele>
        <time>2022-05-22 20:55:50</time>
      </trkpt>
      <trkpt lat="42.64835" lon="1.00772">
        <ele>1762</ele>
        <time>2022-05-22 20:55:51</time>
      </trkpt>
      <trkpt lat="42.64836" lon="1.00773">
        <ele>1762.2</ele>
        <time>2022-05-22 20:55:52</time>
      </trkpt>
      <trkpt lat="42.64839" lon="1.00774">
        <ele>1762.4</ele>
        <time>2022-05-22 20:55:53</time>
      </trkpt>
      <trkpt lat="42.64841" lon="1.00774">
        <ele>1762.6</ele>
        <time>2022-05-22 20:55:54</time>
      </trkpt>
      <trkpt lat="42.64843" lon="1.00774">
        <ele>1762.8</ele>
        <time>2022-05-22 20:55:55</time>
      </trkpt>
      <trkpt lat="42.64844" lon="1.00774">
        <ele>1763</ele>
        <time>2022-05-22 20:55:56</time>
      </trkpt>
      <trkpt lat="42.64846" lon="1.00774">
        <ele>1763.2</ele>
        <time>2022-05-22 20:55:57</time>
      </trkpt>
      <trkpt lat="42.64848" lon="1.00773">
        <ele>1763.4</ele>
        <time>2022-05-22 20:55:58</time>
      </trkpt>
      <trkpt lat="42.6485" lon="1.00772">
        <ele>1763.6</ele>
        <time>2022-05-22 20:55:59</time>
      </trkpt>
      <trkpt lat="42.64852" lon="1.00771">
        <ele>1763.8</ele>
        <time>2022-05-22 20:56:00</time>
      </trkpt>
      <trkpt lat="42.64853" lon="1.00769">
        <ele>1764</ele>
        <time>2022-05-22 20:56:01</time>
      </trkpt>
      <trkpt lat="42.64855" lon="1.00768">
        <ele>1764.2</ele>
        <time>2022-05-22 20:56:02</time>
      </trkpt>
      <trkpt lat="42.64856" lon="1.00766">
        <ele>1764.4</ele>
        <time>2022-05-22 20:56:03</time>
      </trkpt>
      <trkpt lat="42.64858" lon="1.00764">
        <ele>1764.6</ele>
        <time>2022-05-22 20:56:04</time>
      </trkpt>
      <trkpt lat="42.64859" lon="1.00762">
        <ele>1764.8</ele>
        <time>2022-05-22 20:56:05</time>
      </trkpt>
      <trkpt lat="42.6486" lon="1.00759">
        <ele>1765</ele>
        <time>2022-05-22 20:56:06</time>
      </trkpt>
      <trkpt lat="42.64862" lon="1.00757">
        <ele>1765.2</ele>
        <time>2022-05-22 20:56:07</time>
      </trkpt>
      <trkpt lat="42.64863" lon="1.00755">
        <ele>1765.4</ele>
        <time>2022-05-22 20:56:08</time>
      </trkpt>
      <trkpt lat="42.64864" lon="1.00753">
        <ele>1765.6</ele>
        <time>2022-05-22 20:56:09</time>
      </trkpt>
      <trkpt lat="42.64866" lon="1.00751">
        <ele>1765.8</ele>
        <time>2022-05-22 20:56:10</time>
      </trkpt>
      <trkpt lat="42.64867" lon="1.00749">
        <ele>1766</ele>
        <time>2022-05-22 20:56:11</time>
      </trkpt>
      <trkpt lat="42.64868" lon="1.00746">
        <ele>1766.2</ele>
        <time>2022-05-22 20:56:12</time>
      </trkpt>
      <trkpt lat="42.64869" lon="1.00743">
        <ele>1766.4</ele>
        <time>2022-05-22 20:56:13</time>
      </trkpt>
      <trkpt lat="42.6487" lon="1.00741">
        <ele>1766.6</ele>
        <time>2022-05-22 20:56:14</time>
      </trkpt>
      <trkpt lat="42.64871" lon="1.00739">
        <ele>1766.8</ele>
        <time>2022-05-22 20:56:15</time>
      </trkpt>
      <trkpt lat="42.64872" lon="1.00736">
        <ele>1767</ele>
        <time>2022-05-22 20:56:16</time>
      </trkpt>
      <trkpt lat="42.64873" lon="1.00734">
        <ele>1767.2</ele>
        <time>2022-05-22 20:56:17</time>
      </trkpt>
      <trkpt lat="42.64874" lon="1.00731">
        <ele>1767.4</ele>
        <time>2022-05-22 20:56:18</time>
      </trkpt>
      <trkpt lat="42.64876" lon="1.00729">
        <ele>1767.6</ele>
        <time>2022-05-22 20:56:19</time>
      </trkpt>
      <trkpt lat="42.64877" lon="1.00726">
        <ele>1767.8</ele>
        <time>2022-05-22 20:56:20</time>
      </trkpt>
      <trkpt lat="42.64878" lon="1.00723">
        <ele>1768</ele>
        <time>2022-05-22 20:56:21</time>
      </trkpt>
      <trkpt lat="42.64879" lon="1.00721">
        <ele>1768.2</ele>
        <time>2022-05-22 20:56:22</time>
      </trkpt>
      <trkpt lat="42.64879" lon="1.00718">
        <ele>1768.2</ele>
        <time>2022-05-22 20:56:23</time>
      </trkpt>
      <trkpt lat="42.6488" lon="1.00716">
        <ele>1768.4</ele>
        <time>2022-05-22 20:56:24</time>
      </trkpt>
      <trkpt lat="42.64881" lon="1.00713">
        <ele>1768.6</ele>
        <time>2022-05-22 20:56:25</time>
      </trkpt>
      <trkpt lat="42.64882" lon="1.00711">
        <ele>1768.8</ele>
        <time>2022-05-22 20:56:26</time>
      </trkpt>
      <trkpt lat="42.64882" lon="1.00708">
        <ele>1769</ele>
        <time>2022-05-22 20:56:27</time>
      </trkpt>
      <trkpt lat="42.64883" lon="1.00706">
        <ele>1769</ele>
        <time>2022-05-22 20:56:28</time>
      </trkpt>
      <trkpt lat="42.64884" lon="1.00704">
        <ele>1769.2</ele>
        <time>2022-05-22 20:56:29</time>
      </trkpt>
      <trkpt lat="42.64885" lon="1.00702">
        <ele>1769.4</ele>
        <time>2022-05-22 20:56:30</time>
      </trkpt>
      <trkpt lat="42.64886" lon="1.007">
        <ele>1769.6</ele>
        <time>2022-05-22 20:56:31</time>
      </trkpt>
      <trkpt lat="42.64887" lon="1.00698">
        <ele>1769.6</ele>
        <time>2022-05-22 20:56:32</time>
      </trkpt>
      <trkpt lat="42.64888" lon="1.00695">
        <ele>1769.8</ele>
        <time>2022-05-22 20:56:33</time>
      </trkpt>
      <trkpt lat="42.64889" lon="1.00693">
        <ele>1770</ele>
        <time>2022-05-22 20:56:34</time>
      </trkpt>
      <trkpt lat="42.64889" lon="1.00691">
        <ele>1770.2</ele>
        <time>2022-05-22 20:56:35</time>
      </trkpt>
      <trkpt lat="42.64889" lon="1.00688">
        <ele>1770.4</ele>
        <time>2022-05-22 20:56:36</time>
      </trkpt>
      <trkpt lat="42.64889" lon="1.00686">
        <ele>1770.4</ele>
        <time>2022-05-22 20:56:37</time>
      </trkpt>
      <trkpt lat="42.6489" lon="1.00683">
        <ele>1770.6</ele>
        <time>2022-05-22 20:56:38</time>
      </trkpt>
      <trkpt lat="42.6489" lon="1.00681">
        <ele>1770.8</ele>
        <time>2022-05-22 20:56:39</time>
      </trkpt>
      <trkpt lat="42.6489" lon="1.00679">
        <ele>1770.8</ele>
        <time>2022-05-22 20:56:40</time>
      </trkpt>
      <trkpt lat="42.6489" lon="1.00676">
        <ele>1771</ele>
        <time>2022-05-22 20:56:41</time>
      </trkpt>
      <trkpt lat="42.6489" lon="1.00674">
        <ele>1771.2</ele>
        <time>2022-05-22 20:56:42</time>
      </trkpt>
      <trkpt lat="42.6489" lon="1.00672">
        <ele>1771.2</ele>
        <time>2022-05-22 20:56:43</time>
      </trkpt>
      <trkpt lat="42.6489" lon="1.00669">
        <ele>1771.4</ele>
        <time>2022-05-22 20:56:44</time>
      </trkpt>
      <trkpt lat="42.6489" lon="1.00667">
        <ele>1771.6</ele>
        <time>2022-05-22 20:56:45</time>
      </trkpt>
      <trkpt lat="42.6489" lon="1.00664">
        <ele>1771.6</ele>
        <time>2022-05-22 20:56:46</time>
      </trkpt>
      <trkpt lat="42.6489" lon="1.00662">
        <ele>1771.8</ele>
        <time>2022-05-22 20:56:47</time>
      </trkpt>
      <trkpt lat="42.6489" lon="1.0066">
        <ele>1771.8</ele>
        <time>2022-05-22 20:56:48</time>
      </trkpt>
      <trkpt lat="42.6489" lon="1.00657">
        <ele>1772</ele>
        <time>2022-05-22 20:56:49</time>
      </trkpt>
      <trkpt lat="42.64889" lon="1.00655">
        <ele>1772</ele>
        <time>2022-05-22 20:56:50</time>
      </trkpt>
      <trkpt lat="42.64889" lon="1.00653">
        <ele>1772.2</ele>
        <time>2022-05-22 20:56:51</time>
      </trkpt>
      <trkpt lat="42.64888" lon="1.0065">
        <ele>1772.4</ele>
        <time>2022-05-22 20:56:52</time>
      </trkpt>
      <trkpt lat="42.64888" lon="1.00648">
        <ele>1772.4</ele>
        <time>2022-05-22 20:56:53</time>
      </trkpt>
      <trkpt lat="42.64887" lon="1.00645">
        <ele>1772.6</ele>
        <time>2022-05-22 20:56:54</time>
      </trkpt>
      <trkpt lat="42.64887" lon="1.00643">
        <ele>1772.6</ele>
        <time>2022-05-22 20:56:55</time>
      </trkpt>
      <trkpt lat="42.64887" lon="1.0064">
        <ele>1772.8</ele>
        <time>2022-05-22 20:56:56</time>
      </trkpt>
      <trkpt lat="42.64886" lon="1.00638">
        <ele>1772.8</ele>
        <time>2022-05-22 20:56:57</time>
      </trkpt>
      <trkpt lat="42.64885" lon="1.00636">
        <ele>1773</ele>
        <time>2022-05-22 20:56:58</time>
      </trkpt>
      <trkpt lat="42.64884" lon="1.00634">
        <ele>1773.2</ele>
        <time>2022-05-22 20:56:59</time>
      </trkpt>
      <trkpt lat="42.64883" lon="1.00632">
        <ele>1773.2</ele>
        <time>2022-05-22 20:57:00</time>
      </trkpt>
      <trkpt lat="42.64882" lon="1.0063">
        <ele>1773.4</ele>
        <time>2022-05-22 20:57:01</time>
      </trkpt>
      <trkpt lat="42.6488" lon="1.00628">
        <ele>1773.4</ele>
        <time>2022-05-22 20:57:02</time>
      </trkpt>
      <trkpt lat="42.64879" lon="1.00626">
        <ele>1773.6</ele>
        <time>2022-05-22 20:57:03</time>
      </trkpt>
      <trkpt lat="42.64878" lon="1.00625">
        <ele>1773.6</ele>
        <time>2022-05-22 20:57:04</time>
      </trkpt>
      <trkpt lat="42.64877" lon="1.00624">
        <ele>1773.8</ele>
        <time>2022-05-22 20:57:05</time>
      </trkpt>
      <trkpt lat="42.64875" lon="1.00622">
        <ele>1774</ele>
        <time>2022-05-22 20:57:06</time>
      </trkpt>
      <trkpt lat="42.64873" lon="1.00621">
        <ele>1774</ele>
        <time>2022-05-22 20:57:07</time>
      </trkpt>
      <trkpt lat="42.64871" lon="1.0062">
        <ele>1774.2</ele>
        <time>2022-05-22 20:57:08</time>
      </trkpt>
      <trkpt lat="42.6487" lon="1.00619">
        <ele>1774.4</ele>
        <time>2022-05-22 20:57:09</time>
      </trkpt>
      <trkpt lat="42.64868" lon="1.00618">
        <ele>1774.4</ele>
        <time>2022-05-22 20:57:10</time>
      </trkpt>
      <trkpt lat="42.64866" lon="1.00617">
        <ele>1774.6</ele>
        <time>2022-05-22 20:57:11</time>
      </trkpt>
      <trkpt lat="42.64864" lon="1.00617">
        <ele>1774.6</ele>
        <time>2022-05-22 20:57:12</time>
      </trkpt>
      <trkpt lat="42.64862" lon="1.00616">
        <ele>1774.8</ele>
        <time>2022-05-22 20:57:13</time>
      </trkpt>
      <trkpt lat="42.64861" lon="1.00615">
        <ele>1774.8</ele>
        <time>2022-05-22 20:57:14</time>
      </trkpt>
      <trkpt lat="42.64859" lon="1.00614">
        <ele>1775</ele>
        <time>2022-05-22 20:57:15</time>
      </trkpt>
      <trkpt lat="42.64857" lon="1.00613">
        <ele>1775.2</ele>
        <time>2022-05-22 20:57:16</time>
      </trkpt>
      <trkpt lat="42.64856" lon="1.00613">
        <ele>1775.2</ele>
        <time>2022-05-22 20:57:17</time>
      </trkpt>
      <trkpt lat="42.64854" lon="1.00612">
        <ele>1775.4</ele>
        <time>2022-05-22 20:57:18</time>
      </trkpt>
      <trkpt lat="42.64853" lon="1.00611">
        <ele>1775.4</ele>
        <time>2022-05-22 20:57:19</time>
      </trkpt>
      <trkpt lat="42.64851" lon="1.0061">
        <ele>1775.6</ele>
        <time>2022-05-22 20:57:20</time>
      </trkpt>
      <trkpt lat="42.64849" lon="1.00609">
        <ele>1775.8</ele>
        <time>2022-05-22 20:57:21</time>
      </trkpt>
      <trkpt lat="42.64847" lon="1.00608">
        <ele>1775.8</ele>
        <time>2022-05-22 20:57:22</time>
      </trkpt>
      <trkpt lat="42.64845" lon="1.00608">
        <ele>1776</ele>
        <time>2022-05-22 20:57:23</time>
      </trkpt>
      <trkpt lat="42.64844" lon="1.00607">
        <ele>1776</ele>
        <time>2022-05-22 20:57:24</time>
      </trkpt>
      <trkpt lat="42.64842" lon="1.00607">
        <ele>1776.2</ele>
        <time>2022-05-22 20:57:25</time>
      </trkpt>
      <trkpt lat="42.6484" lon="1.00606">
        <ele>1776.2</ele>
        <time>2022-05-22 20:57:26</time>
      </trkpt>
      <trkpt lat="42.64838" lon="1.00606">
        <ele>1776.4</ele>
        <time>2022-05-22 20:57:27</time>
      </trkpt>
      <trkpt lat="42.64837" lon="1.00605">
        <ele>1776.6</ele>
        <time>2022-05-22 20:57:28</time>
      </trkpt>
      <trkpt lat="42.64835" lon="1.00604">
        <ele>1776.6</ele>
        <time>2022-05-22 20:57:29</time>
      </trkpt>
      <trkpt lat="42.64834" lon="1.00603">
        <ele>1776.8</ele>
        <time>2022-05-22 20:57:30</time>
      </trkpt>
      <trkpt lat="42.64832" lon="1.00601">
        <ele>1776.8</ele>
        <time>2022-05-22 20:57:31</time>
      </trkpt>
      <trkpt lat="42.6483" lon="1.00599">
        <ele>1777</ele>
        <time>2022-05-22 20:57:32</time>
      </trkpt>
      <trkpt lat="42.64829" lon="1.00597">
        <ele>1777</ele>
        <time>2022-05-22 20:57:33</time>
      </trkpt>
      <trkpt lat="42.64828" lon="1.00596">
        <ele>1777.2</ele>
        <time>2022-05-22 20:57:34</time>
      </trkpt>
      <trkpt lat="42.64826" lon="1.00595">
        <ele>1777.2</ele>
        <time>2022-05-22 20:57:35</time>
      </trkpt>
      <trkpt lat="42.64825" lon="1.00593">
        <ele>1777.4</ele>
        <time>2022-05-22 20:57:36</time>
      </trkpt>
      <trkpt lat="42.64824" lon="1.00592">
        <ele>1777.4</ele>
        <time>2022-05-22 20:57:37</time>
      </trkpt>
      <trkpt lat="42.64823" lon="1.0059">
        <ele>1777.6</ele>
        <time>2022-05-22 20:57:38</time>
      </trkpt>
      <trkpt lat="42.64822" lon="1.00589">
        <ele>1777.8</ele>
        <time>2022-05-22 20:57:39</time>
      </trkpt>
      <trkpt lat="42.64821" lon="1.00588">
        <ele>1777.8</ele>
        <time>2022-05-22 20:57:40</time>
      </trkpt>
      <trkpt lat="42.6482" lon="1.00587">
        <ele>1778</ele>
        <time>2022-05-22 20:57:41</time>
      </trkpt>
      <trkpt lat="42.64818" lon="1.00585">
        <ele>1778.2</ele>
        <time>2022-05-22 20:57:42</time>
      </trkpt>
      <trkpt lat="42.64817" lon="1.00583">
        <ele>1778.2</ele>
        <time>2022-05-22 20:57:43</time>
      </trkpt>
      <trkpt lat="42.64816" lon="1.00581">
        <ele>1778.4</ele>
        <time>2022-05-22 20:57:44</time>
      </trkpt>
      <trkpt lat="42.64815" lon="1.00578">
        <ele>1778.4</ele>
        <time>2022-05-22 20:57:45</time>
      </trkpt>
      <trkpt lat="42.64814" lon="1.00576">
        <ele>1778.6</ele>
        <time>2022-05-22 20:57:46</time>
      </trkpt>
      <trkpt lat="42.64813" lon="1.00573">
        <ele>1778.8</ele>
        <time>2022-05-22 20:57:47</time>
      </trkpt>
      <trkpt lat="42.64813" lon="1.00571">
        <ele>1778.8</ele>
        <time>2022-05-22 20:57:48</time>
      </trkpt>
      <trkpt lat="42.64812" lon="1.0057">
        <ele>1779</ele>
        <time>2022-05-22 20:57:49</time>
      </trkpt>
      <trkpt lat="42.6481" lon="1.00567">
        <ele>1779</ele>
        <time>2022-05-22 20:57:50</time>
      </trkpt>
      <trkpt lat="42.6481" lon="1.00566">
        <ele>1779.2</ele>
        <time>2022-05-22 20:57:51</time>
      </trkpt>
      <trkpt lat="42.64809" lon="1.00564">
        <ele>1779.2</ele>
        <time>2022-05-22 20:57:52</time>
      </trkpt>
      <trkpt lat="42.64808" lon="1.00562">
        <ele>1779.4</ele>
        <time>2022-05-22 20:57:53</time>
      </trkpt>
      <trkpt lat="42.64807" lon="1.0056">
        <ele>1779.4</ele>
        <time>2022-05-22 20:57:54</time>
      </trkpt>
      <trkpt lat="42.64806" lon="1.00558">
        <ele>1779.6</ele>
        <time>2022-05-22 20:57:55</time>
      </trkpt>
      <trkpt lat="42.64805" lon="1.00557">
        <ele>1779.8</ele>
        <time>2022-05-22 20:57:56</time>
      </trkpt>
      <trkpt lat="42.64804" lon="1.00554">
        <ele>1779.8</ele>
        <time>2022-05-22 20:57:57</time>
      </trkpt>
      <trkpt lat="42.64803" lon="1.00553">
        <ele>1780</ele>
        <time>2022-05-22 20:57:58</time>
      </trkpt>
      <trkpt lat="42.64802" lon="1.00551">
        <ele>1780</ele>
        <time>2022-05-22 20:57:59</time>
      </trkpt>
      <trkpt lat="42.64801" lon="1.00548">
        <ele>1780.2</ele>
        <time>2022-05-22 20:58:00</time>
      </trkpt>
      <trkpt lat="42.648" lon="1.00546">
        <ele>1780.2</ele>
        <time>2022-05-22 20:58:01</time>
      </trkpt>
      <trkpt lat="42.64799" lon="1.00545">
        <ele>1780.4</ele>
        <time>2022-05-22 20:58:02</time>
      </trkpt>
      <trkpt lat="42.64798" lon="1.00543">
        <ele>1780.4</ele>
        <time>2022-05-22 20:58:03</time>
      </trkpt>
      <trkpt lat="42.64797" lon="1.00542">
        <ele>1780.6</ele>
        <time>2022-05-22 20:58:04</time>
      </trkpt>
      <trkpt lat="42.64796" lon="1.0054">
        <ele>1780.8</ele>
        <time>2022-05-22 20:58:05</time>
      </trkpt>
      <trkpt lat="42.64795" lon="1.00538">
        <ele>1780.8</ele>
        <time>2022-05-22 20:58:06</time>
      </trkpt>
      <trkpt lat="42.64794" lon="1.00536">
        <ele>1781</ele>
        <time>2022-05-22 20:58:07</time>
      </trkpt>
      <trkpt lat="42.64793" lon="1.00534">
        <ele>1781</ele>
        <time>2022-05-22 20:58:08</time>
      </trkpt>
      <trkpt lat="42.64792" lon="1.00532">
        <ele>1781.2</ele>
        <time>2022-05-22 20:58:09</time>
      </trkpt>
      <trkpt lat="42.64791" lon="1.0053">
        <ele>1781.2</ele>
        <time>2022-05-22 20:58:10</time>
      </trkpt>
      <trkpt lat="42.6479" lon="1.00528">
        <ele>1781.4</ele>
        <time>2022-05-22 20:58:11</time>
      </trkpt>
      <trkpt lat="42.64789" lon="1.00526">
        <ele>1781.6</ele>
        <time>2022-05-22 20:58:12</time>
      </trkpt>
      <trkpt lat="42.64788" lon="1.00524">
        <ele>1781.6</ele>
        <time>2022-05-22 20:58:13</time>
      </trkpt>
      <trkpt lat="42.64788" lon="1.00522">
        <ele>1781.8</ele>
        <time>2022-05-22 20:58:14</time>
      </trkpt>
      <trkpt lat="42.64787" lon="1.00519">
        <ele>1782</ele>
        <time>2022-05-22 20:58:15</time>
      </trkpt>
      <trkpt lat="42.64786" lon="1.00517">
        <ele>1782</ele>
        <time>2022-05-22 20:58:16</time>
      </trkpt>
      <trkpt lat="42.64785" lon="1.00515">
        <ele>1782.2</ele>
        <time>2022-05-22 20:58:17</time>
      </trkpt>
      <trkpt lat="42.64784" lon="1.00514">
        <ele>1782.2</ele>
        <time>2022-05-22 20:58:18</time>
      </trkpt>
      <trkpt lat="42.64783" lon="1.00512">
        <ele>1782.4</ele>
        <time>2022-05-22 20:58:19</time>
      </trkpt>
      <trkpt lat="42.64783" lon="1.0051">
        <ele>1782.6</ele>
        <time>2022-05-22 20:58:20</time>
      </trkpt>
      <trkpt lat="42.64781" lon="1.00508">
        <ele>1782.6</ele>
        <time>2022-05-22 20:58:21</time>
      </trkpt>
      <trkpt lat="42.64781" lon="1.00506">
        <ele>1782.8</ele>
        <time>2022-05-22 20:58:22</time>
      </trkpt>
      <trkpt lat="42.6478" lon="1.00504">
        <ele>1783</ele>
        <time>2022-05-22 20:58:23</time>
      </trkpt>
      <trkpt lat="42.64779" lon="1.00503">
        <ele>1783</ele>
        <time>2022-05-22 20:58:24</time>
      </trkpt>
      <trkpt lat="42.64778" lon="1.005">
        <ele>1783.2</ele>
        <time>2022-05-22 20:58:25</time>
      </trkpt>
      <trkpt lat="42.64777" lon="1.00498">
        <ele>1783.4</ele>
        <time>2022-05-22 20:58:26</time>
      </trkpt>
      <trkpt lat="42.64777" lon="1.00496">
        <ele>1783.6</ele>
        <time>2022-05-22 20:58:27</time>
      </trkpt>
      <trkpt lat="42.64777" lon="1.00494">
        <ele>1783.6</ele>
        <time>2022-05-22 20:58:28</time>
      </trkpt>
      <trkpt lat="42.64776" lon="1.00492">
        <ele>1783.8</ele>
        <time>2022-05-22 20:58:29</time>
      </trkpt>
      <trkpt lat="42.64776" lon="1.00489">
        <ele>1784</ele>
        <time>2022-05-22 20:58:30</time>
      </trkpt>
      <trkpt lat="42.64776" lon="1.00487">
        <ele>1784.2</ele>
        <time>2022-05-22 20:58:31</time>
      </trkpt>
      <trkpt lat="42.64776" lon="1.00485">
        <ele>1784.2</ele>
        <time>2022-05-22 20:58:32</time>
      </trkpt>
      <trkpt lat="42.64775" lon="1.00483">
        <ele>1784.4</ele>
        <time>2022-05-22 20:58:33</time>
      </trkpt>
      <trkpt lat="42.64775" lon="1.00481">
        <ele>1784.6</ele>
        <time>2022-05-22 20:58:34</time>
      </trkpt>
      <trkpt lat="42.64776" lon="1.00478">
        <ele>1784.6</ele>
        <time>2022-05-22 20:58:35</time>
      </trkpt>
      <trkpt lat="42.64776" lon="1.00475">
        <ele>1784.8</ele>
        <time>2022-05-22 20:58:36</time>
      </trkpt>
      <trkpt lat="42.64777" lon="1.00473">
        <ele>1785</ele>
        <time>2022-05-22 20:58:37</time>
      </trkpt>
      <trkpt lat="42.64777" lon="1.00471">
        <ele>1785.2</ele>
        <time>2022-05-22 20:58:38</time>
      </trkpt>
      <trkpt lat="42.64778" lon="1.00468">
        <ele>1785.2</ele>
        <time>2022-05-22 20:58:39</time>
      </trkpt>
      <trkpt lat="42.64778" lon="1.00467">
        <ele>1785.4</ele>
        <time>2022-05-22 20:58:40</time>
      </trkpt>
      <trkpt lat="42.64779" lon="1.00465">
        <ele>1785.6</ele>
        <time>2022-05-22 20:58:41</time>
      </trkpt>
      <trkpt lat="42.6478" lon="1.00463">
        <ele>1785.8</ele>
        <time>2022-05-22 20:58:42</time>
      </trkpt>
      <trkpt lat="42.64782" lon="1.00461">
        <ele>1786</ele>
        <time>2022-05-22 20:58:43</time>
      </trkpt>
      <trkpt lat="42.64783" lon="1.0046">
        <ele>1786</ele>
        <time>2022-05-22 20:58:44</time>
      </trkpt>
      <trkpt lat="42.64785" lon="1.00459">
        <ele>1786.2</ele>
        <time>2022-05-22 20:58:45</time>
      </trkpt>
      <trkpt lat="42.64786" lon="1.00458">
        <ele>1786.4</ele>
        <time>2022-05-22 20:58:46</time>
      </trkpt>
      <trkpt lat="42.64788" lon="1.00457">
        <ele>1786.6</ele>
        <time>2022-05-22 20:58:47</time>
      </trkpt>
      <trkpt lat="42.6479" lon="1.00457">
        <ele>1786.8</ele>
        <time>2022-05-22 20:58:48</time>
      </trkpt>
      <trkpt lat="42.64791" lon="1.00456">
        <ele>1786.8</ele>
        <time>2022-05-22 20:58:49</time>
      </trkpt>
      <trkpt lat="42.64793" lon="1.00456">
        <ele>1787</ele>
        <time>2022-05-22 20:58:50</time>
      </trkpt>
      <trkpt lat="42.64794" lon="1.00456">
        <ele>1787.2</ele>
        <time>2022-05-22 20:58:51</time>
      </trkpt>
      <trkpt lat="42.64796" lon="1.00457">
        <ele>1787.4</ele>
        <time>2022-05-22 20:58:52</time>
      </trkpt>
      <trkpt lat="42.64797" lon="1.00457">
        <ele>1787.6</ele>
        <time>2022-05-22 20:58:53</time>
      </trkpt>
      <trkpt lat="42.64799" lon="1.00458">
        <ele>1787.8</ele>
        <time>2022-05-22 20:58:54</time>
      </trkpt>
      <trkpt lat="42.648" lon="1.00459">
        <ele>1788</ele>
        <time>2022-05-22 20:58:55</time>
      </trkpt>
      <trkpt lat="42.64802" lon="1.0046">
        <ele>1788</ele>
        <time>2022-05-22 20:58:56</time>
      </trkpt>
      <trkpt lat="42.64803" lon="1.00462">
        <ele>1788.2</ele>
        <time>2022-05-22 20:58:57</time>
      </trkpt>
      <trkpt lat="42.64804" lon="1.00463">
        <ele>1788.4</ele>
        <time>2022-05-22 20:58:58</time>
      </trkpt>
      <trkpt lat="42.64806" lon="1.00464">
        <ele>1788.6</ele>
        <time>2022-05-22 20:58:59</time>
      </trkpt>
      <trkpt lat="42.64808" lon="1.00465">
        <ele>1788.8</ele>
        <time>2022-05-22 20:59:00</time>
      </trkpt>
      <trkpt lat="42.64809" lon="1.00466">
        <ele>1788.8</ele>
        <time>2022-05-22 20:59:01</time>
      </trkpt>
      <trkpt lat="42.64811" lon="1.00468">
        <ele>1789</ele>
        <time>2022-05-22 20:59:02</time>
      </trkpt>
      <trkpt lat="42.64812" lon="1.0047">
        <ele>1789.2</ele>
        <time>2022-05-22 20:59:03</time>
      </trkpt>
      <trkpt lat="42.64813" lon="1.00472">
        <ele>1789.4</ele>
        <time>2022-05-22 20:59:04</time>
      </trkpt>
      <trkpt lat="42.64814" lon="1.00474">
        <ele>1789.4</ele>
        <time>2022-05-22 20:59:05</time>
      </trkpt>
      <trkpt lat="42.64816" lon="1.00476">
        <ele>1789.6</ele>
        <time>2022-05-22 20:59:06</time>
      </trkpt>
      <trkpt lat="42.64817" lon="1.00478">
        <ele>1789.8</ele>
        <time>2022-05-22 20:59:07</time>
      </trkpt>
      <trkpt lat="42.64818" lon="1.00479">
        <ele>1790</ele>
        <time>2022-05-22 20:59:08</time>
      </trkpt>
      <trkpt lat="42.64819" lon="1.00481">
        <ele>1790</ele>
        <time>2022-05-22 20:59:09</time>
      </trkpt>
      <trkpt lat="42.64821" lon="1.00483">
        <ele>1790.2</ele>
        <time>2022-05-22 20:59:10</time>
      </trkpt>
      <trkpt lat="42.64822" lon="1.00484">
        <ele>1790.4</ele>
        <time>2022-05-22 20:59:11</time>
      </trkpt>
      <trkpt lat="42.64823" lon="1.00486">
        <ele>1790.6</ele>
        <time>2022-05-22 20:59:12</time>
      </trkpt>
      <trkpt lat="42.64824" lon="1.00488">
        <ele>1790.6</ele>
        <time>2022-05-22 20:59:13</time>
      </trkpt>
      <trkpt lat="42.64825" lon="1.00489">
        <ele>1790.8</ele>
        <time>2022-05-22 20:59:14</time>
      </trkpt>
      <trkpt lat="42.64827" lon="1.0049">
        <ele>1791</ele>
        <time>2022-05-22 20:59:15</time>
      </trkpt>
      <trkpt lat="42.64829" lon="1.00492">
        <ele>1791</ele>
        <time>2022-05-22 20:59:16</time>
      </trkpt>
      <trkpt lat="42.6483" lon="1.00493">
        <ele>1791.2</ele>
        <time>2022-05-22 20:59:17</time>
      </trkpt>
      <trkpt lat="42.64832" lon="1.00495">
        <ele>1791.4</ele>
        <time>2022-05-22 20:59:18</time>
      </trkpt>
      <trkpt lat="42.64833" lon="1.00496">
        <ele>1791.6</ele>
        <time>2022-05-22 20:59:19</time>
      </trkpt>
      <trkpt lat="42.64834" lon="1.00497">
        <ele>1791.6</ele>
        <time>2022-05-22 20:59:20</time>
      </trkpt>
      <trkpt lat="42.64835" lon="1.00497">
        <ele>1791.8</ele>
        <time>2022-05-22 20:59:21</time>
      </trkpt>
      <trkpt lat="42.64838" lon="1.00498">
        <ele>1792</ele>
        <time>2022-05-22 20:59:22</time>
      </trkpt>
      <trkpt lat="42.6484" lon="1.00499">
        <ele>1792.2</ele>
        <time>2022-05-22 20:59:23</time>
      </trkpt>
      <trkpt lat="42.64842" lon="1.00499">
        <ele>1792.4</ele>
        <time>2022-05-22 20:59:24</time>
      </trkpt>
      <trkpt lat="42.64843" lon="1.00499">
        <ele>1792.6</ele>
        <time>2022-05-22 20:59:25</time>
      </trkpt>
      <trkpt lat="42.64845" lon="1.00499">
        <ele>1792.8</ele>
        <time>2022-05-22 20:59:26</time>
      </trkpt>
      <trkpt lat="42.64847" lon="1.00499">
        <ele>1793</ele>
        <time>2022-05-22 20:59:27</time>
      </trkpt>
      <trkpt lat="42.64849" lon="1.00499">
        <ele>1793.2</ele>
        <time>2022-05-22 20:59:28</time>
      </trkpt>
      <trkpt lat="42.6485" lon="1.00499">
        <ele>1793.4</ele>
        <time>2022-05-22 20:59:29</time>
      </trkpt>
      <trkpt lat="42.64852" lon="1.00498">
        <ele>1793.6</ele>
        <time>2022-05-22 20:59:30</time>
      </trkpt>
      <trkpt lat="42.64855" lon="1.00498">
        <ele>1793.8</ele>
        <time>2022-05-22 20:59:31</time>
      </trkpt>
      <trkpt lat="42.64856" lon="1.00497">
        <ele>1793.8</ele>
        <time>2022-05-22 20:59:32</time>
      </trkpt>
      <trkpt lat="42.64858" lon="1.00496">
        <ele>1794</ele>
        <time>2022-05-22 20:59:33</time>
      </trkpt>
      <trkpt lat="42.6486" lon="1.00495">
        <ele>1794.2</ele>
        <time>2022-05-22 20:59:34</time>
      </trkpt>
      <trkpt lat="42.64862" lon="1.00493">
        <ele>1794.2</ele>
        <time>2022-05-22 20:59:35</time>
      </trkpt>
      <trkpt lat="42.64863" lon="1.00492">
        <ele>1794.4</ele>
        <time>2022-05-22 20:59:36</time>
      </trkpt>
      <trkpt lat="42.64864" lon="1.00489">
        <ele>1794.6</ele>
        <time>2022-05-22 20:59:37</time>
      </trkpt>
      <trkpt lat="42.64865" lon="1.00487">
        <ele>1794.6</ele>
        <time>2022-05-22 20:59:38</time>
      </trkpt>
      <trkpt lat="42.64866" lon="1.00485">
        <ele>1794.8</ele>
        <time>2022-05-22 20:59:39</time>
      </trkpt>
      <trkpt lat="42.64867" lon="1.00483">
        <ele>1795</ele>
        <time>2022-05-22 20:59:40</time>
      </trkpt>
      <trkpt lat="42.64867" lon="1.00481">
        <ele>1795</ele>
        <time>2022-05-22 20:59:41</time>
      </trkpt>
      <trkpt lat="42.64868" lon="1.00479">
        <ele>1795.2</ele>
        <time>2022-05-22 20:59:42</time>
      </trkpt>
      <trkpt lat="42.64869" lon="1.00476">
        <ele>1795.4</ele>
        <time>2022-05-22 20:59:43</time>
      </trkpt>
      <trkpt lat="42.64869" lon="1.00473">
        <ele>1795.4</ele>
        <time>2022-05-22 20:59:44</time>
      </trkpt>
      <trkpt lat="42.6487" lon="1.00471">
        <ele>1795.6</ele>
        <time>2022-05-22 20:59:45</time>
      </trkpt>
      <trkpt lat="42.6487" lon="1.00469">
        <ele>1795.8</ele>
        <time>2022-05-22 20:59:46</time>
      </trkpt>
      <trkpt lat="42.64871" lon="1.00466">
        <ele>1795.8</ele>
        <time>2022-05-22 20:59:47</time>
      </trkpt>
      <trkpt lat="42.64871" lon="1.00464">
        <ele>1796</ele>
        <time>2022-05-22 20:59:48</time>
      </trkpt>
      <trkpt lat="42.64871" lon="1.00462">
        <ele>1796.2</ele>
        <time>2022-05-22 20:59:49</time>
      </trkpt>
      <trkpt lat="42.64872" lon="1.00459">
        <ele>1796.4</ele>
        <time>2022-05-22 20:59:50</time>
      </trkpt>
      <trkpt lat="42.64872" lon="1.00457">
        <ele>1796.4</ele>
        <time>2022-05-22 20:59:51</time>
      </trkpt>
      <trkpt lat="42.64872" lon="1.00455">
        <ele>1796.6</ele>
        <time>2022-05-22 20:59:52</time>
      </trkpt>
      <trkpt lat="42.64872" lon="1.00453">
        <ele>1796.8</ele>
        <time>2022-05-22 20:59:53</time>
      </trkpt>
      <trkpt lat="42.64872" lon="1.0045">
        <ele>1796.8</ele>
        <time>2022-05-22 20:59:54</time>
      </trkpt>
      <trkpt lat="42.64872" lon="1.00448">
        <ele>1797</ele>
        <time>2022-05-22 20:59:55</time>
      </trkpt>
      <trkpt lat="42.64872" lon="1.00445">
        <ele>1797.2</ele>
        <time>2022-05-22 20:59:56</time>
      </trkpt>
      <trkpt lat="42.64872" lon="1.00443">
        <ele>1797.4</ele>
        <time>2022-05-22 20:59:57</time>
      </trkpt>
      <trkpt lat="42.64871" lon="1.0044">
        <ele>1797.4</ele>
        <time>2022-05-22 20:59:58</time>
      </trkpt>
      <trkpt lat="42.64871" lon="1.00439">
        <ele>1797.6</ele>
        <time>2022-05-22 20:59:59</time>
      </trkpt>
      <trkpt lat="42.6487" lon="1.00437">
        <ele>1797.8</ele>
        <time>2022-05-22 21:00:00</time>
      </trkpt>
      <trkpt lat="42.64869" lon="1.00435">
        <ele>1798</ele>
        <time>2022-05-22 21:00:01</time>
      </trkpt>
      <trkpt lat="42.64868" lon="1.00433">
        <ele>1798.2</ele>
        <time>2022-05-22 21:00:02</time>
      </trkpt>
      <trkpt lat="42.64867" lon="1.00431">
        <ele>1798.2</ele>
        <time>2022-05-22 21:00:03</time>
      </trkpt>
      <trkpt lat="42.64865" lon="1.00429">
        <ele>1798.4</ele>
        <time>2022-05-22 21:00:04</time>
      </trkpt>
      <trkpt lat="42.64864" lon="1.00428">
        <ele>1798.6</ele>
        <time>2022-05-22 21:00:05</time>
      </trkpt>
      <trkpt lat="42.64863" lon="1.00426">
        <ele>1798.8</ele>
        <time>2022-05-22 21:00:06</time>
      </trkpt>
      <trkpt lat="42.64861" lon="1.00424">
        <ele>1798.8</ele>
        <time>2022-05-22 21:00:07</time>
      </trkpt>
      <trkpt lat="42.64859" lon="1.00423">
        <ele>1799</ele>
        <time>2022-05-22 21:00:08</time>
      </trkpt>
      <trkpt lat="42.64858" lon="1.00423">
        <ele>1799.2</ele>
        <time>2022-05-22 21:00:09</time>
      </trkpt>
      <trkpt lat="42.64856" lon="1.00422">
        <ele>1799.2</ele>
        <time>2022-05-22 21:00:10</time>
      </trkpt>
      <trkpt lat="42.64854" lon="1.00422">
        <ele>1799.4</ele>
        <time>2022-05-22 21:00:11</time>
      </trkpt>
      <trkpt lat="42.64852" lon="1.00421">
        <ele>1799.6</ele>
        <time>2022-05-22 21:00:12</time>
      </trkpt>
      <trkpt lat="42.6485" lon="1.00421">
        <ele>1799.8</ele>
        <time>2022-05-22 21:00:13</time>
      </trkpt>
      <trkpt lat="42.64848" lon="1.0042">
        <ele>1799.8</ele>
        <time>2022-05-22 21:00:14</time>
      </trkpt>
      <trkpt lat="42.64847" lon="1.00419">
        <ele>1800</ele>
        <time>2022-05-22 21:00:15</time>
      </trkpt>
      <trkpt lat="42.64846" lon="1.00418">
        <ele>1800.2</ele>
        <time>2022-05-22 21:00:16</time>
      </trkpt>
      <trkpt lat="42.64844" lon="1.00416">
        <ele>1800.2</ele>
        <time>2022-05-22 21:00:17</time>
      </trkpt>
      <trkpt lat="42.64842" lon="1.00415">
        <ele>1800.4</ele>
        <time>2022-05-22 21:00:18</time>
      </trkpt>
      <trkpt lat="42.64841" lon="1.00414">
        <ele>1800.6</ele>
        <time>2022-05-22 21:00:19</time>
      </trkpt>
      <trkpt lat="42.64839" lon="1.00413">
        <ele>1800.6</ele>
        <time>2022-05-22 21:00:20</time>
      </trkpt>
      <trkpt lat="42.64837" lon="1.00413">
        <ele>1800.8</ele>
        <time>2022-05-22 21:00:21</time>
      </trkpt>
      <trkpt lat="42.64835" lon="1.00412">
        <ele>1801</ele>
        <time>2022-05-22 21:00:22</time>
      </trkpt>
      <trkpt lat="42.64833" lon="1.00412">
        <ele>1801</ele>
        <time>2022-05-22 21:00:23</time>
      </trkpt>
      <trkpt lat="42.64831" lon="1.00411">
        <ele>1801.2</ele>
        <time>2022-05-22 21:00:24</time>
      </trkpt>
      <trkpt lat="42.6483" lon="1.0041">
        <ele>1801.4</ele>
        <time>2022-05-22 21:00:25</time>
      </trkpt>
      <trkpt lat="42.64829" lon="1.00409">
        <ele>1801.4</ele>
        <time>2022-05-22 21:00:26</time>
      </trkpt>
      <trkpt lat="42.64827" lon="1.00408">
        <ele>1801.6</ele>
        <time>2022-05-22 21:00:27</time>
      </trkpt>
      <trkpt lat="42.64826" lon="1.00407">
        <ele>1801.8</ele>
        <time>2022-05-22 21:00:28</time>
      </trkpt>
      <trkpt lat="42.64825" lon="1.00405">
        <ele>1801.8</ele>
        <time>2022-05-22 21:00:29</time>
      </trkpt>
      <trkpt lat="42.64823" lon="1.00403">
        <ele>1802</ele>
        <time>2022-05-22 21:00:30</time>
      </trkpt>
      <trkpt lat="42.64822" lon="1.00402">
        <ele>1802.2</ele>
        <time>2022-05-22 21:00:31</time>
      </trkpt>
      <trkpt lat="42.6482" lon="1.004">
        <ele>1802.2</ele>
        <time>2022-05-22 21:00:32</time>
      </trkpt>
      <trkpt lat="42.64819" lon="1.00398">
        <ele>1802.4</ele>
        <time>2022-05-22 21:00:33</time>
      </trkpt>
      <trkpt lat="42.64818" lon="1.00396">
        <ele>1802.6</ele>
        <time>2022-05-22 21:00:34</time>
      </trkpt>
      <trkpt lat="42.64817" lon="1.00395">
        <ele>1802.8</ele>
        <time>2022-05-22 21:00:35</time>
      </trkpt>
      <trkpt lat="42.64815" lon="1.00393">
        <ele>1802.8</ele>
        <time>2022-05-22 21:00:36</time>
      </trkpt>
      <trkpt lat="42.64814" lon="1.0039">
        <ele>1803</ele>
        <time>2022-05-22 21:00:37</time>
      </trkpt>
      <trkpt lat="42.64813" lon="1.00389">
        <ele>1803.2</ele>
        <time>2022-05-22 21:00:38</time>
      </trkpt>
      <trkpt lat="42.64812" lon="1.00387">
        <ele>1803.2</ele>
        <time>2022-05-22 21:00:39</time>
      </trkpt>
      <trkpt lat="42.6481" lon="1.00385">
        <ele>1803.4</ele>
        <time>2022-05-22 21:00:40</time>
      </trkpt>
      <trkpt lat="42.6481" lon="1.00383">
        <ele>1803.6</ele>
        <time>2022-05-22 21:00:41</time>
      </trkpt>
      <trkpt lat="42.64809" lon="1.00381">
        <ele>1803.6</ele>
        <time>2022-05-22 21:00:42</time>
      </trkpt>
      <trkpt lat="42.64807" lon="1.0038">
        <ele>1803.8</ele>
        <time>2022-05-22 21:00:43</time>
      </trkpt>
      <trkpt lat="42.64806" lon="1.00378">
        <ele>1804</ele>
        <time>2022-05-22 21:00:44</time>
      </trkpt>
      <trkpt lat="42.64805" lon="1.00377">
        <ele>1804</ele>
        <time>2022-05-22 21:00:45</time>
      </trkpt>
      <trkpt lat="42.64804" lon="1.00376">
        <ele>1804.2</ele>
        <time>2022-05-22 21:00:46</time>
      </trkpt>
      <trkpt lat="42.64803" lon="1.00374">
        <ele>1804.4</ele>
        <time>2022-05-22 21:00:47</time>
      </trkpt>
      <trkpt lat="42.64802" lon="1.00371">
        <ele>1804.4</ele>
        <time>2022-05-22 21:00:48</time>
      </trkpt>
      <trkpt lat="42.64802" lon="1.00369">
        <ele>1804.6</ele>
        <time>2022-05-22 21:00:49</time>
      </trkpt>
      <trkpt lat="42.64801" lon="1.00367">
        <ele>1804.6</ele>
        <time>2022-05-22 21:00:50</time>
      </trkpt>
      <trkpt lat="42.64801" lon="1.00365">
        <ele>1804.8</ele>
        <time>2022-05-22 21:00:51</time>
      </trkpt>
      <trkpt lat="42.64801" lon="1.00362">
        <ele>1805</ele>
        <time>2022-05-22 21:00:52</time>
      </trkpt>
      <trkpt lat="42.64802" lon="1.0036">
        <ele>1805.2</ele>
        <time>2022-05-22 21:00:53</time>
      </trkpt>
      <trkpt lat="42.64802" lon="1.00358">
        <ele>1805.2</ele>
        <time>2022-05-22 21:00:54</time>
      </trkpt>
      <trkpt lat="42.64803" lon="1.00356">
        <ele>1805.4</ele>
        <time>2022-05-22 21:00:55</time>
      </trkpt>
      <trkpt lat="42.64805" lon="1.00354">
        <ele>1805.6</ele>
        <time>2022-05-22 21:00:56</time>
      </trkpt>
      <trkpt lat="42.64806" lon="1.00352">
        <ele>1805.8</ele>
        <time>2022-05-22 21:00:57</time>
      </trkpt>
      <trkpt lat="42.64807" lon="1.00351">
        <ele>1806</ele>
        <time>2022-05-22 21:00:58</time>
      </trkpt>
      <trkpt lat="42.64809" lon="1.0035">
        <ele>1806</ele>
        <time>2022-05-22 21:00:59</time>
      </trkpt>
      <trkpt lat="42.64811" lon="1.00349">
        <ele>1806.2</ele>
        <time>2022-05-22 21:01:00</time>
      </trkpt>
      <trkpt lat="42.64812" lon="1.00349">
        <ele>1806.4</ele>
        <time>2022-05-22 21:01:01</time>
      </trkpt>
      <trkpt lat="42.64814" lon="1.00349">
        <ele>1806.6</ele>
        <time>2022-05-22 21:01:02</time>
      </trkpt>
      <trkpt lat="42.64816" lon="1.00349">
        <ele>1806.8</ele>
        <time>2022-05-22 21:01:03</time>
      </trkpt>
      <trkpt lat="42.64817" lon="1.0035">
        <ele>1806.8</ele>
        <time>2022-05-22 21:01:04</time>
      </trkpt>
      <trkpt lat="42.64819" lon="1.00351">
        <ele>1807</ele>
        <time>2022-05-22 21:01:05</time>
      </trkpt>
      <trkpt lat="42.6482" lon="1.00352">
        <ele>1807.2</ele>
        <time>2022-05-22 21:01:06</time>
      </trkpt>
      <trkpt lat="42.64821" lon="1.00353">
        <ele>1807.4</ele>
        <time>2022-05-22 21:01:07</time>
      </trkpt>
      <trkpt lat="42.64822" lon="1.00354">
        <ele>1807.4</ele>
        <time>2022-05-22 21:01:08</time>
      </trkpt>
      <trkpt lat="42.64824" lon="1.00355">
        <ele>1807.6</ele>
        <time>2022-05-22 21:01:09</time>
      </trkpt>
      <trkpt lat="42.64825" lon="1.00356">
        <ele>1807.8</ele>
        <time>2022-05-22 21:01:10</time>
      </trkpt>
      <trkpt lat="42.64826" lon="1.00357">
        <ele>1807.8</ele>
        <time>2022-05-22 21:01:11</time>
      </trkpt>
      <trkpt lat="42.64827" lon="1.00359">
        <ele>1808</ele>
        <time>2022-05-22 21:01:12</time>
      </trkpt>
      <trkpt lat="42.64829" lon="1.0036">
        <ele>1808</ele>
        <time>2022-05-22 21:01:13</time>
      </trkpt>
      <trkpt lat="42.6483" lon="1.00362">
        <ele>1808.2</ele>
        <time>2022-05-22 21:01:14</time>
      </trkpt>
      <trkpt lat="42.64831" lon="1.00363">
        <ele>1808.4</ele>
        <time>2022-05-22 21:01:15</time>
      </trkpt>
      <trkpt lat="42.64832" lon="1.00364">
        <ele>1808.4</ele>
        <time>2022-05-22 21:01:16</time>
      </trkpt>
      <trkpt lat="42.64833" lon="1.00365">
        <ele>1808.6</ele>
        <time>2022-05-22 21:01:17</time>
      </trkpt>
      <trkpt lat="42.64835" lon="1.00367">
        <ele>1808.6</ele>
        <time>2022-05-22 21:01:18</time>
      </trkpt>
      <trkpt lat="42.64836" lon="1.00367">
        <ele>1808.8</ele>
        <time>2022-05-22 21:01:19</time>
      </trkpt>
      <trkpt lat="42.64838" lon="1.00368">
        <ele>1809</ele>
        <time>2022-05-22 21:01:20</time>
      </trkpt>
      <trkpt lat="42.64839" lon="1.0037">
        <ele>1809</ele>
        <time>2022-05-22 21:01:21</time>
      </trkpt>
      <trkpt lat="42.6484" lon="1.00371">
        <ele>1809.2</ele>
        <time>2022-05-22 21:01:22</time>
      </trkpt>
      <trkpt lat="42.64842" lon="1.00371">
        <ele>1809.2</ele>
        <time>2022-05-22 21:01:23</time>
      </trkpt>
      <trkpt lat="42.64843" lon="1.00372">
        <ele>1809.4</ele>
        <time>2022-05-22 21:01:24</time>
      </trkpt>
      <trkpt lat="42.64845" lon="1.00372">
        <ele>1809.6</ele>
        <time>2022-05-22 21:01:25</time>
      </trkpt>
      <trkpt lat="42.64847" lon="1.00372">
        <ele>1809.6</ele>
        <time>2022-05-22 21:01:26</time>
      </trkpt>
      <trkpt lat="42.64848" lon="1.00372">
        <ele>1809.8</ele>
        <time>2022-05-22 21:01:27</time>
      </trkpt>
      <trkpt lat="42.6485" lon="1.00372">
        <ele>1810</ele>
        <time>2022-05-22 21:01:28</time>
      </trkpt>
      <trkpt lat="42.64852" lon="1.00372">
        <ele>1810</ele>
        <time>2022-05-22 21:01:29</time>
      </trkpt>
      <trkpt lat="42.64853" lon="1.00371">
        <ele>1810.2</ele>
        <time>2022-05-22 21:01:30</time>
      </trkpt>
      <trkpt lat="42.64855" lon="1.00371">
        <ele>1810.4</ele>
        <time>2022-05-22 21:01:31</time>
      </trkpt>
      <trkpt lat="42.64857" lon="1.0037">
        <ele>1810.4</ele>
        <time>2022-05-22 21:01:32</time>
      </trkpt>
      <trkpt lat="42.64858" lon="1.00369">
        <ele>1810.6</ele>
        <time>2022-05-22 21:01:33</time>
      </trkpt>
      <trkpt lat="42.6486" lon="1.00367">
        <ele>1810.6</ele>
        <time>2022-05-22 21:01:34</time>
      </trkpt>
      <trkpt lat="42.64861" lon="1.00366">
        <ele>1810.8</ele>
        <time>2022-05-22 21:01:35</time>
      </trkpt>
      <trkpt lat="42.64862" lon="1.00364">
        <ele>1811</ele>
        <time>2022-05-22 21:01:36</time>
      </trkpt>
      <trkpt lat="42.64863" lon="1.00362">
        <ele>1811</ele>
        <time>2022-05-22 21:01:37</time>
      </trkpt>
      <trkpt lat="42.64864" lon="1.00361">
        <ele>1811.2</ele>
        <time>2022-05-22 21:01:38</time>
      </trkpt>
      <trkpt lat="42.64865" lon="1.00359">
        <ele>1811.2</ele>
        <time>2022-05-22 21:01:39</time>
      </trkpt>
      <trkpt lat="42.64866" lon="1.00357">
        <ele>1811.4</ele>
        <time>2022-05-22 21:01:40</time>
      </trkpt>
      <trkpt lat="42.64867" lon="1.00355">
        <ele>1811.4</ele>
        <time>2022-05-22 21:01:41</time>
      </trkpt>
      <trkpt lat="42.64867" lon="1.00353">
        <ele>1811.6</ele>
        <time>2022-05-22 21:01:42</time>
      </trkpt>
      <trkpt lat="42.64868" lon="1.00351">
        <ele>1811.6</ele>
        <time>2022-05-22 21:01:43</time>
      </trkpt>
      <trkpt lat="42.64868" lon="1.00349">
        <ele>1811.8</ele>
        <time>2022-05-22 21:01:44</time>
      </trkpt>
      <trkpt lat="42.64869" lon="1.00347">
        <ele>1811.8</ele>
        <time>2022-05-22 21:01:45</time>
      </trkpt>
      <trkpt lat="42.6487" lon="1.00344">
        <ele>1812</ele>
        <time>2022-05-22 21:01:46</time>
      </trkpt>
      <trkpt lat="42.64869" lon="1.00342">
        <ele>1812.2</ele>
        <time>2022-05-22 21:01:47</time>
      </trkpt>
      <trkpt lat="42.64869" lon="1.0034">
        <ele>1812.2</ele>
        <time>2022-05-22 21:01:48</time>
      </trkpt>
      <trkpt lat="42.64869" lon="1.00337">
        <ele>1812.4</ele>
        <time>2022-05-22 21:01:49</time>
      </trkpt>
      <trkpt lat="42.64868" lon="1.00335">
        <ele>1812.4</ele>
        <time>2022-05-22 21:01:50</time>
      </trkpt>
      <trkpt lat="42.64868" lon="1.00332">
        <ele>1812.6</ele>
        <time>2022-05-22 21:01:51</time>
      </trkpt>
      <trkpt lat="42.64868" lon="1.0033">
        <ele>1812.6</ele>
        <time>2022-05-22 21:01:52</time>
      </trkpt>
      <trkpt lat="42.64867" lon="1.00328">
        <ele>1812.8</ele>
        <time>2022-05-22 21:01:53</time>
      </trkpt>
      <trkpt lat="42.64866" lon="1.00326">
        <ele>1812.8</ele>
        <time>2022-05-22 21:01:54</time>
      </trkpt>
      <trkpt lat="42.64865" lon="1.00324">
        <ele>1813</ele>
        <time>2022-05-22 21:01:55</time>
      </trkpt>
      <trkpt lat="42.64863" lon="1.00322">
        <ele>1813</ele>
        <time>2022-05-22 21:01:56</time>
      </trkpt>
      <trkpt lat="42.64862" lon="1.0032">
        <ele>1813.2</ele>
        <time>2022-05-22 21:01:57</time>
      </trkpt>
      <trkpt lat="42.6486" lon="1.00318">
        <ele>1813.2</ele>
        <time>2022-05-22 21:01:58</time>
      </trkpt>
      <trkpt lat="42.64859" lon="1.00317">
        <ele>1813.4</ele>
        <time>2022-05-22 21:01:59</time>
      </trkpt>
      <trkpt lat="42.64857" lon="1.00316">
        <ele>1813.4</ele>
        <time>2022-05-22 21:02:00</time>
      </trkpt>
      <trkpt lat="42.64855" lon="1.00315">
        <ele>1813.6</ele>
        <time>2022-05-22 21:02:01</time>
      </trkpt>
      <trkpt lat="42.64852" lon="1.00315">
        <ele>1813.6</ele>
        <time>2022-05-22 21:02:02</time>
      </trkpt>
      <trkpt lat="42.6485" lon="1.00314">
        <ele>1813.8</ele>
        <time>2022-05-22 21:02:03</time>
      </trkpt>
      <trkpt lat="42.64847" lon="1.00313">
        <ele>1813.8</ele>
        <time>2022-05-22 21:02:04</time>
      </trkpt>
      <trkpt lat="42.64845" lon="1.00313">
        <ele>1813.8</ele>
        <time>2022-05-22 21:02:05</time>
      </trkpt>
      <trkpt lat="42.64843" lon="1.00312">
        <ele>1814</ele>
        <time>2022-05-22 21:02:06</time>
      </trkpt>
      <trkpt lat="42.64841" lon="1.00312">
        <ele>1814</ele>
        <time>2022-05-22 21:02:07</time>
      </trkpt>
      <trkpt lat="42.64838" lon="1.00312">
        <ele>1814.2</ele>
        <time>2022-05-22 21:02:08</time>
      </trkpt>
      <trkpt lat="42.64836" lon="1.00312">
        <ele>1814.2</ele>
        <time>2022-05-22 21:02:09</time>
      </trkpt>
      <trkpt lat="42.64834" lon="1.00312">
        <ele>1814.4</ele>
        <time>2022-05-22 21:02:10</time>
      </trkpt>
      <trkpt lat="42.64832" lon="1.00311">
        <ele>1814.4</ele>
        <time>2022-05-22 21:02:11</time>
      </trkpt>
      <trkpt lat="42.64829" lon="1.00311">
        <ele>1814.6</ele>
        <time>2022-05-22 21:02:12</time>
      </trkpt>
      <trkpt lat="42.64827" lon="1.0031">
        <ele>1814.6</ele>
        <time>2022-05-22 21:02:13</time>
      </trkpt>
      <trkpt lat="42.64825" lon="1.00309">
        <ele>1814.8</ele>
        <time>2022-05-22 21:02:14</time>
      </trkpt>
      <trkpt lat="42.64822" lon="1.00309">
        <ele>1815</ele>
        <time>2022-05-22 21:02:15</time>
      </trkpt>
      <trkpt lat="42.6482" lon="1.00308">
        <ele>1815</ele>
        <time>2022-05-22 21:02:16</time>
      </trkpt>
      <trkpt lat="42.64817" lon="1.00308">
        <ele>1815.2</ele>
        <time>2022-05-22 21:02:17</time>
      </trkpt>
      <trkpt lat="42.64815" lon="1.00307">
        <ele>1815.4</ele>
        <time>2022-05-22 21:02:18</time>
      </trkpt>
      <trkpt lat="42.64813" lon="1.00306">
        <ele>1815.4</ele>
        <time>2022-05-22 21:02:19</time>
      </trkpt>
      <trkpt lat="42.64811" lon="1.00305">
        <ele>1815.6</ele>
        <time>2022-05-22 21:02:20</time>
      </trkpt>
      <trkpt lat="42.64808" lon="1.00304">
        <ele>1815.8</ele>
        <time>2022-05-22 21:02:21</time>
      </trkpt>
      <trkpt lat="42.64807" lon="1.00302">
        <ele>1816</ele>
        <time>2022-05-22 21:02:22</time>
      </trkpt>
      <trkpt lat="42.64805" lon="1.00301">
        <ele>1816.2</ele>
        <time>2022-05-22 21:02:23</time>
      </trkpt>
      <trkpt lat="42.64804" lon="1.00298">
        <ele>1816.2</ele>
        <time>2022-05-22 21:02:24</time>
      </trkpt>
      <trkpt lat="42.64803" lon="1.00296">
        <ele>1816.4</ele>
        <time>2022-05-22 21:02:25</time>
      </trkpt>
      <trkpt lat="42.64802" lon="1.00294">
        <ele>1816.6</ele>
        <time>2022-05-22 21:02:26</time>
      </trkpt>
      <trkpt lat="42.64801" lon="1.00292">
        <ele>1816.8</ele>
        <time>2022-05-22 21:02:27</time>
      </trkpt>
      <trkpt lat="42.64801" lon="1.00289">
        <ele>1817</ele>
        <time>2022-05-22 21:02:28</time>
      </trkpt>
      <trkpt lat="42.648" lon="1.00286">
        <ele>1817.2</ele>
        <time>2022-05-22 21:02:29</time>
      </trkpt>
      <trkpt lat="42.648" lon="1.00284">
        <ele>1817.4</ele>
        <time>2022-05-22 21:02:30</time>
      </trkpt>
      <trkpt lat="42.648" lon="1.00281">
        <ele>1817.4</ele>
        <time>2022-05-22 21:02:31</time>
      </trkpt>
      <trkpt lat="42.64799" lon="1.00278">
        <ele>1817.6</ele>
        <time>2022-05-22 21:02:32</time>
      </trkpt>
      <trkpt lat="42.64799" lon="1.00275">
        <ele>1817.8</ele>
        <time>2022-05-22 21:02:33</time>
      </trkpt>
      <trkpt lat="42.648" lon="1.00272">
        <ele>1818</ele>
        <time>2022-05-22 21:02:34</time>
      </trkpt>
      <trkpt lat="42.648" lon="1.00269">
        <ele>1818.2</ele>
        <time>2022-05-22 21:02:35</time>
      </trkpt>
      <trkpt lat="42.64801" lon="1.00266">
        <ele>1818.4</ele>
        <time>2022-05-22 21:02:36</time>
      </trkpt>
      <trkpt lat="42.64802" lon="1.00264">
        <ele>1818.4</ele>
        <time>2022-05-22 21:02:37</time>
      </trkpt>
      <trkpt lat="42.64803" lon="1.00262">
        <ele>1818.6</ele>
        <time>2022-05-22 21:02:38</time>
      </trkpt>
      <trkpt lat="42.64804" lon="1.0026">
        <ele>1818.8</ele>
        <time>2022-05-22 21:02:39</time>
      </trkpt>
      <trkpt lat="42.64805" lon="1.00258">
        <ele>1819</ele>
        <time>2022-05-22 21:02:40</time>
      </trkpt>
      <trkpt lat="42.64806" lon="1.00256">
        <ele>1819</ele>
        <time>2022-05-22 21:02:41</time>
      </trkpt>
      <trkpt lat="42.64807" lon="1.00254">
        <ele>1819.2</ele>
        <time>2022-05-22 21:02:42</time>
      </trkpt>
      <trkpt lat="42.64808" lon="1.00252">
        <ele>1819.4</ele>
        <time>2022-05-22 21:02:43</time>
      </trkpt>
      <trkpt lat="42.64809" lon="1.00249">
        <ele>1819.6</ele>
        <time>2022-05-22 21:02:44</time>
      </trkpt>
      <trkpt lat="42.6481" lon="1.00248">
        <ele>1819.8</ele>
        <time>2022-05-22 21:02:45</time>
      </trkpt>
      <trkpt lat="42.64811" lon="1.00246">
        <ele>1819.8</ele>
        <time>2022-05-22 21:02:46</time>
      </trkpt>
      <trkpt lat="42.64812" lon="1.00244">
        <ele>1820</ele>
        <time>2022-05-22 21:02:47</time>
      </trkpt>
      <trkpt lat="42.64814" lon="1.00243">
        <ele>1820.2</ele>
        <time>2022-05-22 21:02:48</time>
      </trkpt>
      <trkpt lat="42.64815" lon="1.00242">
        <ele>1820.2</ele>
        <time>2022-05-22 21:02:49</time>
      </trkpt>
      <trkpt lat="42.64817" lon="1.0024">
        <ele>1820.4</ele>
        <time>2022-05-22 21:02:50</time>
      </trkpt>
      <trkpt lat="42.64818" lon="1.00239">
        <ele>1820.4</ele>
        <time>2022-05-22 21:02:51</time>
      </trkpt>
      <trkpt lat="42.64819" lon="1.00237">
        <ele>1820.6</ele>
        <time>2022-05-22 21:02:52</time>
      </trkpt>
      <trkpt lat="42.64821" lon="1.00235">
        <ele>1820.8</ele>
        <time>2022-05-22 21:02:53</time>
      </trkpt>
      <trkpt lat="42.64823" lon="1.00234">
        <ele>1821</ele>
        <time>2022-05-22 21:02:54</time>
      </trkpt>
      <trkpt lat="42.64823" lon="1.00232">
        <ele>1821.2</ele>
        <time>2022-05-22 21:02:55</time>
      </trkpt>
      <trkpt lat="42.64824" lon="1.00231">
        <ele>1821.2</ele>
        <time>2022-05-22 21:02:56</time>
      </trkpt>
      <trkpt lat="42.64825" lon="1.00229">
        <ele>1821.4</ele>
        <time>2022-05-22 21:02:57</time>
      </trkpt>
      <trkpt lat="42.64826" lon="1.00227">
        <ele>1821.6</ele>
        <time>2022-05-22 21:02:58</time>
      </trkpt>
      <trkpt lat="42.64828" lon="1.00225">
        <ele>1821.6</ele>
        <time>2022-05-22 21:02:59</time>
      </trkpt>
      <trkpt lat="42.64829" lon="1.00224">
        <ele>1821.8</ele>
        <time>2022-05-22 21:03:00</time>
      </trkpt>
      <trkpt lat="42.6483" lon="1.00222">
        <ele>1822</ele>
        <time>2022-05-22 21:03:01</time>
      </trkpt>
      <trkpt lat="42.64831" lon="1.0022">
        <ele>1822</ele>
        <time>2022-05-22 21:03:02</time>
      </trkpt>
      <trkpt lat="42.64832" lon="1.00219">
        <ele>1822.2</ele>
        <time>2022-05-22 21:03:03</time>
      </trkpt>
      <trkpt lat="42.64834" lon="1.00217">
        <ele>1822.2</ele>
        <time>2022-05-22 21:03:04</time>
      </trkpt>
      <trkpt lat="42.64835" lon="1.00215">
        <ele>1822.4</ele>
        <time>2022-05-22 21:03:05</time>
      </trkpt>
      <trkpt lat="42.64836" lon="1.00213">
        <ele>1822.6</ele>
        <time>2022-05-22 21:03:06</time>
      </trkpt>
      <trkpt lat="42.64837" lon="1.00212">
        <ele>1822.8</ele>
        <time>2022-05-22 21:03:07</time>
      </trkpt>
      <trkpt lat="42.64838" lon="1.0021">
        <ele>1822.8</ele>
        <time>2022-05-22 21:03:08</time>
      </trkpt>
      <trkpt lat="42.6484" lon="1.00209">
        <ele>1823</ele>
        <time>2022-05-22 21:03:09</time>
      </trkpt>
      <trkpt lat="42.64841" lon="1.00207">
        <ele>1823.2</ele>
        <time>2022-05-22 21:03:10</time>
      </trkpt>
      <trkpt lat="42.64842" lon="1.00206">
        <ele>1823.2</ele>
        <time>2022-05-22 21:03:11</time>
      </trkpt>
      <trkpt lat="42.64844" lon="1.00204">
        <ele>1823.2</ele>
        <time>2022-05-22 21:03:12</time>
      </trkpt>
      <trkpt lat="42.64845" lon="1.00203">
        <ele>1823.4</ele>
        <time>2022-05-22 21:03:13</time>
      </trkpt>
      <trkpt lat="42.64847" lon="1.00202">
        <ele>1823.4</ele>
        <time>2022-05-22 21:03:14</time>
      </trkpt>
      <trkpt lat="42.64848" lon="1.002">
        <ele>1823.6</ele>
        <time>2022-05-22 21:03:15</time>
      </trkpt>
      <trkpt lat="42.64849" lon="1.00198">
        <ele>1823.8</ele>
        <time>2022-05-22 21:03:16</time>
      </trkpt>
      <trkpt lat="42.6485" lon="1.00197">
        <ele>1823.8</ele>
        <time>2022-05-22 21:03:17</time>
      </trkpt>
      <trkpt lat="42.64852" lon="1.00195">
        <ele>1824</ele>
        <time>2022-05-22 21:03:18</time>
      </trkpt>
      <trkpt lat="42.64853" lon="1.00193">
        <ele>1824.2</ele>
        <time>2022-05-22 21:03:19</time>
      </trkpt>
      <trkpt lat="42.64854" lon="1.00192">
        <ele>1824.2</ele>
        <time>2022-05-22 21:03:20</time>
      </trkpt>
      <trkpt lat="42.64855" lon="1.0019">
        <ele>1824.4</ele>
        <time>2022-05-22 21:03:21</time>
      </trkpt>
      <trkpt lat="42.64856" lon="1.00188">
        <ele>1824.6</ele>
        <time>2022-05-22 21:03:22</time>
      </trkpt>
      <trkpt lat="42.64857" lon="1.00187">
        <ele>1824.6</ele>
        <time>2022-05-22 21:03:23</time>
      </trkpt>
      <trkpt lat="42.64859" lon="1.00185">
        <ele>1824.8</ele>
        <time>2022-05-22 21:03:24</time>
      </trkpt>
      <trkpt lat="42.6486" lon="1.00184">
        <ele>1825</ele>
        <time>2022-05-22 21:03:25</time>
      </trkpt>
      <trkpt lat="42.64861" lon="1.00182">
        <ele>1825</ele>
        <time>2022-05-22 21:03:26</time>
      </trkpt>
      <trkpt lat="42.64862" lon="1.0018">
        <ele>1825.2</ele>
        <time>2022-05-22 21:03:27</time>
      </trkpt>
      <trkpt lat="42.64863" lon="1.00178">
        <ele>1825.4</ele>
        <time>2022-05-22 21:03:28</time>
      </trkpt>
      <trkpt lat="42.64864" lon="1.00177">
        <ele>1825.4</ele>
        <time>2022-05-22 21:03:29</time>
      </trkpt>
      <trkpt lat="42.64866" lon="1.00175">
        <ele>1825.6</ele>
        <time>2022-05-22 21:03:30</time>
      </trkpt>
      <trkpt lat="42.64867" lon="1.00174">
        <ele>1825.8</ele>
        <time>2022-05-22 21:03:31</time>
      </trkpt>
      <trkpt lat="42.64869" lon="1.00172">
        <ele>1825.8</ele>
        <time>2022-05-22 21:03:32</time>
      </trkpt>
      <trkpt lat="42.6487" lon="1.0017">
        <ele>1826</ele>
        <time>2022-05-22 21:03:33</time>
      </trkpt>
      <trkpt lat="42.64871" lon="1.00168">
        <ele>1826.2</ele>
        <time>2022-05-22 21:03:34</time>
      </trkpt>
      <trkpt lat="42.64872" lon="1.00166">
        <ele>1826.4</ele>
        <time>2022-05-22 21:03:35</time>
      </trkpt>
      <trkpt lat="42.64873" lon="1.00164">
        <ele>1826.4</ele>
        <time>2022-05-22 21:03:36</time>
      </trkpt>
      <trkpt lat="42.64874" lon="1.00162">
        <ele>1826.6</ele>
        <time>2022-05-22 21:03:37</time>
      </trkpt>
      <trkpt lat="42.64875" lon="1.0016">
        <ele>1826.6</ele>
        <time>2022-05-22 21:03:38</time>
      </trkpt>
      <trkpt lat="42.64876" lon="1.00159">
        <ele>1826.8</ele>
        <time>2022-05-22 21:03:39</time>
      </trkpt>
      <trkpt lat="42.64877" lon="1.00156">
        <ele>1827</ele>
        <time>2022-05-22 21:03:40</time>
      </trkpt>
      <trkpt lat="42.64878" lon="1.00154">
        <ele>1827</ele>
        <time>2022-05-22 21:03:41</time>
      </trkpt>
      <trkpt lat="42.64879" lon="1.00153">
        <ele>1827.2</ele>
        <time>2022-05-22 21:03:42</time>
      </trkpt>
      <trkpt lat="42.6488" lon="1.00151">
        <ele>1827.4</ele>
        <time>2022-05-22 21:03:43</time>
      </trkpt>
      <trkpt lat="42.64881" lon="1.00149">
        <ele>1827.6</ele>
        <time>2022-05-22 21:03:44</time>
      </trkpt>
      <trkpt lat="42.64882" lon="1.00147">
        <ele>1827.6</ele>
        <time>2022-05-22 21:03:45</time>
      </trkpt>
      <trkpt lat="42.64883" lon="1.00144">
        <ele>1827.8</ele>
        <time>2022-05-22 21:03:46</time>
      </trkpt>
      <trkpt lat="42.64884" lon="1.00143">
        <ele>1828</ele>
        <time>2022-05-22 21:03:47</time>
      </trkpt>
      <trkpt lat="42.64885" lon="1.00141">
        <ele>1828</ele>
        <time>2022-05-22 21:03:48</time>
      </trkpt>
      <trkpt lat="42.64886" lon="1.00139">
        <ele>1828.2</ele>
        <time>2022-05-22 21:03:49</time>
      </trkpt>
      <trkpt lat="42.64887" lon="1.00137">
        <ele>1828.4</ele>
        <time>2022-05-22 21:03:50</time>
      </trkpt>
      <trkpt lat="42.64888" lon="1.00135">
        <ele>1828.6</ele>
        <time>2022-05-22 21:03:51</time>
      </trkpt>
      <trkpt lat="42.64889" lon="1.00133">
        <ele>1828.6</ele>
        <time>2022-05-22 21:03:52</time>
      </trkpt>
      <trkpt lat="42.6489" lon="1.00132">
        <ele>1828.8</ele>
        <time>2022-05-22 21:03:53</time>
      </trkpt>
      <trkpt lat="42.64892" lon="1.0013">
        <ele>1829</ele>
        <time>2022-05-22 21:03:54</time>
      </trkpt>
      <trkpt lat="42.64894" lon="1.00129">
        <ele>1829.2</ele>
        <time>2022-05-22 21:03:55</time>
      </trkpt>
      <trkpt lat="42.64896" lon="1.00128">
        <ele>1829.2</ele>
        <time>2022-05-22 21:03:56</time>
      </trkpt>
      <trkpt lat="42.64898" lon="1.00128">
        <ele>1829.4</ele>
        <time>2022-05-22 21:03:57</time>
      </trkpt>
      <trkpt lat="42.64899" lon="1.00128">
        <ele>1829.6</ele>
        <time>2022-05-22 21:03:58</time>
      </trkpt>
      <trkpt lat="42.64901" lon="1.00127">
        <ele>1829.6</ele>
        <time>2022-05-22 21:03:59</time>
      </trkpt>
      <trkpt lat="42.64903" lon="1.00127">
        <ele>1829.8</ele>
        <time>2022-05-22 21:04:00</time>
      </trkpt>
      <trkpt lat="42.64905" lon="1.00127">
        <ele>1829.8</ele>
        <time>2022-05-22 21:04:01</time>
      </trkpt>
      <trkpt lat="42.64907" lon="1.00127">
        <ele>1830</ele>
        <time>2022-05-22 21:04:02</time>
      </trkpt>
      <trkpt lat="42.6491" lon="1.00127">
        <ele>1830</ele>
        <time>2022-05-22 21:04:03</time>
      </trkpt>
      <trkpt lat="42.64912" lon="1.00128">
        <ele>1830.2</ele>
        <time>2022-05-22 21:04:04</time>
      </trkpt>
      <trkpt lat="42.64914" lon="1.00128">
        <ele>1830.2</ele>
        <time>2022-05-22 21:04:05</time>
      </trkpt>
      <trkpt lat="42.64916" lon="1.00129">
        <ele>1830.4</ele>
        <time>2022-05-22 21:04:06</time>
      </trkpt>
      <trkpt lat="42.64919" lon="1.0013">
        <ele>1830.6</ele>
        <time>2022-05-22 21:04:07</time>
      </trkpt>
      <trkpt lat="42.64921" lon="1.0013">
        <ele>1830.6</ele>
        <time>2022-05-22 21:04:08</time>
      </trkpt>
      <trkpt lat="42.64923" lon="1.00132">
        <ele>1830.8</ele>
        <time>2022-05-22 21:04:09</time>
      </trkpt>
      <trkpt lat="42.64926" lon="1.00133">
        <ele>1830.8</ele>
        <time>2022-05-22 21:04:10</time>
      </trkpt>
      <trkpt lat="42.64928" lon="1.00135">
        <ele>1831</ele>
        <time>2022-05-22 21:04:11</time>
      </trkpt>
      <trkpt lat="42.64931" lon="1.00137">
        <ele>1831</ele>
        <time>2022-05-22 21:04:12</time>
      </trkpt>
      <trkpt lat="42.64934" lon="1.00139">
        <ele>1831.2</ele>
        <time>2022-05-22 21:04:13</time>
      </trkpt>
      <trkpt lat="42.64936" lon="1.00142">
        <ele>1831.4</ele>
        <time>2022-05-22 21:04:14</time>
      </trkpt>
      <trkpt lat="42.64939" lon="1.00144">
        <ele>1831.4</ele>
        <time>2022-05-22 21:04:15</time>
      </trkpt>
      <trkpt lat="42.64942" lon="1.00146">
        <ele>1831.6</ele>
        <time>2022-05-22 21:04:16</time>
      </trkpt>
      <trkpt lat="42.64944" lon="1.00147">
        <ele>1831.6</ele>
        <time>2022-05-22 21:04:17</time>
      </trkpt>
      <trkpt lat="42.64947" lon="1.00149">
        <ele>1831.8</ele>
        <time>2022-05-22 21:04:18</time>
      </trkpt>
      <trkpt lat="42.64949" lon="1.00151">
        <ele>1831.8</ele>
        <time>2022-05-22 21:04:19</time>
      </trkpt>
      <trkpt lat="42.64952" lon="1.00153">
        <ele>1832</ele>
        <time>2022-05-22 21:04:20</time>
      </trkpt>
      <trkpt lat="42.64954" lon="1.00155">
        <ele>1832</ele>
        <time>2022-05-22 21:04:21</time>
      </trkpt>
      <trkpt lat="42.64957" lon="1.00157">
        <ele>1832.2</ele>
        <time>2022-05-22 21:04:22</time>
      </trkpt>
      <trkpt lat="42.64959" lon="1.00159">
        <ele>1832.2</ele>
        <time>2022-05-22 21:04:23</time>
      </trkpt>
      <trkpt lat="42.64961" lon="1.00162">
        <ele>1832.4</ele>
        <time>2022-05-22 21:04:24</time>
      </trkpt>
      <trkpt lat="42.64963" lon="1.00164">
        <ele>1832.4</ele>
        <time>2022-05-22 21:04:25</time>
      </trkpt>
      <trkpt lat="42.64966" lon="1.00166">
        <ele>1832.4</ele>
        <time>2022-05-22 21:04:26</time>
      </trkpt>
      <trkpt lat="42.64968" lon="1.00168">
        <ele>1832.6</ele>
        <time>2022-05-22 21:04:27</time>
      </trkpt>
      <trkpt lat="42.64971" lon="1.0017">
        <ele>1832.8</ele>
        <time>2022-05-22 21:04:28</time>
      </trkpt>
      <trkpt lat="42.64973" lon="1.00172">
        <ele>1832.8</ele>
        <time>2022-05-22 21:04:29</time>
      </trkpt>
      <trkpt lat="42.64975" lon="1.00174">
        <ele>1833</ele>
        <time>2022-05-22 21:04:30</time>
      </trkpt>
      <trkpt lat="42.64978" lon="1.00176">
        <ele>1833.2</ele>
        <time>2022-05-22 21:04:31</time>
      </trkpt>
      <trkpt lat="42.64981" lon="1.00178">
        <ele>1833.2</ele>
        <time>2022-05-22 21:04:32</time>
      </trkpt>
      <trkpt lat="42.64983" lon="1.0018">
        <ele>1833.4</ele>
        <time>2022-05-22 21:04:33</time>
      </trkpt>
      <trkpt lat="42.64985" lon="1.00182">
        <ele>1833.4</ele>
        <time>2022-05-22 21:04:34</time>
      </trkpt>
      <trkpt lat="42.64988" lon="1.00183">
        <ele>1833.4</ele>
        <time>2022-05-22 21:04:35</time>
      </trkpt>
      <trkpt lat="42.6499" lon="1.00185">
        <ele>1833.4</ele>
        <time>2022-05-22 21:04:36</time>
      </trkpt>
      <trkpt lat="42.64993" lon="1.00187">
        <ele>1833.6</ele>
        <time>2022-05-22 21:04:37</time>
      </trkpt>
      <trkpt lat="42.64995" lon="1.00189">
        <ele>1833.6</ele>
        <time>2022-05-22 21:04:38</time>
      </trkpt>
      <trkpt lat="42.64997" lon="1.00191">
        <ele>1833.6</ele>
        <time>2022-05-22 21:04:39</time>
      </trkpt>
      <trkpt lat="42.65" lon="1.00194">
        <ele>1833.8</ele>
        <time>2022-05-22 21:04:40</time>
      </trkpt>
      <trkpt lat="42.65002" lon="1.00197">
        <ele>1833.8</ele>
        <time>2022-05-22 21:04:41</time>
      </trkpt>
      <trkpt lat="42.65004" lon="1.002">
        <ele>1834</ele>
        <time>2022-05-22 21:04:42</time>
      </trkpt>
      <trkpt lat="42.65006" lon="1.00203">
        <ele>1834.2</ele>
        <time>2022-05-22 21:04:43</time>
      </trkpt>
      <trkpt lat="42.65007" lon="1.00206">
        <ele>1834.2</ele>
        <time>2022-05-22 21:04:44</time>
      </trkpt>
      <trkpt lat="42.65008" lon="1.00209">
        <ele>1834.4</ele>
        <time>2022-05-22 21:04:45</time>
      </trkpt>
      <trkpt lat="42.65009" lon="1.00213">
        <ele>1834.4</ele>
        <time>2022-05-22 21:04:46</time>
      </trkpt>
      <trkpt lat="42.6501" lon="1.00216">
        <ele>1834.6</ele>
        <time>2022-05-22 21:04:47</time>
      </trkpt>
      <trkpt lat="42.6501" lon="1.00219">
        <ele>1834.6</ele>
        <time>2022-05-22 21:04:48</time>
      </trkpt>
      <trkpt lat="42.6501" lon="1.00223">
        <ele>1834.8</ele>
        <time>2022-05-22 21:04:49</time>
      </trkpt>
      <trkpt lat="42.6501" lon="1.00226">
        <ele>1834.8</ele>
        <time>2022-05-22 21:04:50</time>
      </trkpt>
      <trkpt lat="42.6501" lon="1.00229">
        <ele>1834.8</ele>
        <time>2022-05-22 21:04:51</time>
      </trkpt>
      <trkpt lat="42.6501" lon="1.00232">
        <ele>1835</ele>
        <time>2022-05-22 21:04:52</time>
      </trkpt>
      <trkpt lat="42.65009" lon="1.00235">
        <ele>1835</ele>
        <time>2022-05-22 21:04:53</time>
      </trkpt>
      <trkpt lat="42.65008" lon="1.00238">
        <ele>1835.2</ele>
        <time>2022-05-22 21:04:54</time>
      </trkpt>
      <trkpt lat="42.65008" lon="1.00241">
        <ele>1835.2</ele>
        <time>2022-05-22 21:04:55</time>
      </trkpt>
      <trkpt lat="42.65007" lon="1.00244">
        <ele>1835.2</ele>
        <time>2022-05-22 21:04:56</time>
      </trkpt>
      <trkpt lat="42.65007" lon="1.00247">
        <ele>1835.4</ele>
        <time>2022-05-22 21:04:57</time>
      </trkpt>
      <trkpt lat="42.65006" lon="1.0025">
        <ele>1835.4</ele>
        <time>2022-05-22 21:04:58</time>
      </trkpt>
      <trkpt lat="42.65005" lon="1.00252">
        <ele>1835.6</ele>
        <time>2022-05-22 21:04:59</time>
      </trkpt>
      <trkpt lat="42.65005" lon="1.00255">
        <ele>1835.6</ele>
        <time>2022-05-22 21:05:00</time>
      </trkpt>
      <trkpt lat="42.65004" lon="1.00258">
        <ele>1835.8</ele>
        <time>2022-05-22 21:05:01</time>
      </trkpt>
      <trkpt lat="42.65004" lon="1.00261">
        <ele>1836</ele>
        <time>2022-05-22 21:05:02</time>
      </trkpt>
      <trkpt lat="42.65003" lon="1.00263">
        <ele>1836</ele>
        <time>2022-05-22 21:05:03</time>
      </trkpt>
      <trkpt lat="42.65002" lon="1.00266">
        <ele>1836.2</ele>
        <time>2022-05-22 21:05:04</time>
      </trkpt>
      <trkpt lat="42.65001" lon="1.00269">
        <ele>1836.2</ele>
        <time>2022-05-22 21:05:05</time>
      </trkpt>
      <trkpt lat="42.65001" lon="1.00271">
        <ele>1836.4</ele>
        <time>2022-05-22 21:05:06</time>
      </trkpt>
      <trkpt lat="42.65001" lon="1.00274">
        <ele>1836.6</ele>
        <time>2022-05-22 21:05:07</time>
      </trkpt>
      <trkpt lat="42.65" lon="1.00277">
        <ele>1836.6</ele>
        <time>2022-05-22 21:05:08</time>
      </trkpt>
      <trkpt lat="42.65" lon="1.00279">
        <ele>1836.8</ele>
        <time>2022-05-22 21:05:09</time>
      </trkpt>
      <trkpt lat="42.64999" lon="1.00283">
        <ele>1837</ele>
        <time>2022-05-22 21:05:10</time>
      </trkpt>
      <trkpt lat="42.64998" lon="1.00286">
        <ele>1837</ele>
        <time>2022-05-22 21:05:11</time>
      </trkpt>
      <trkpt lat="42.64997" lon="1.00289">
        <ele>1837.2</ele>
        <time>2022-05-22 21:05:12</time>
      </trkpt>
      <trkpt lat="42.64997" lon="1.00293">
        <ele>1837.4</ele>
        <time>2022-05-22 21:05:13</time>
      </trkpt>
      <trkpt lat="42.64995" lon="1.00296">
        <ele>1837.6</ele>
        <time>2022-05-22 21:05:14</time>
      </trkpt>
      <trkpt lat="42.64995" lon="1.00298">
        <ele>1837.6</ele>
        <time>2022-05-22 21:05:15</time>
      </trkpt>
      <trkpt lat="42.64994" lon="1.003">
        <ele>1837.8</ele>
        <time>2022-05-22 21:05:16</time>
      </trkpt>
      <trkpt lat="42.64993" lon="1.00302">
        <ele>1838</ele>
        <time>2022-05-22 21:05:17</time>
      </trkpt>
      <trkpt lat="42.64993" lon="1.00305">
        <ele>1838.2</ele>
        <time>2022-05-22 21:05:18</time>
      </trkpt>
      <trkpt lat="42.64993" lon="1.00308">
        <ele>1838.4</ele>
        <time>2022-05-22 21:05:19</time>
      </trkpt>
      <trkpt lat="42.64992" lon="1.0031">
        <ele>1838.4</ele>
        <time>2022-05-22 21:05:20</time>
      </trkpt>
      <trkpt lat="42.64992" lon="1.00312">
        <ele>1838.6</ele>
        <time>2022-05-22 21:05:21</time>
      </trkpt>
      <trkpt lat="42.64991" lon="1.00315">
        <ele>1838.6</ele>
        <time>2022-05-22 21:05:22</time>
      </trkpt>
      <trkpt lat="42.64991" lon="1.00318">
        <ele>1838.8</ele>
        <time>2022-05-22 21:05:23</time>
      </trkpt>
      <trkpt lat="42.64991" lon="1.00321">
        <ele>1838.8</ele>
        <time>2022-05-22 21:05:24</time>
      </trkpt>
      <trkpt lat="42.64991" lon="1.00324">
        <ele>1839</ele>
        <time>2022-05-22 21:05:25</time>
      </trkpt>
      <trkpt lat="42.64991" lon="1.00327">
        <ele>1839.2</ele>
        <time>2022-05-22 21:05:26</time>
      </trkpt>
      <trkpt lat="42.64992" lon="1.0033">
        <ele>1839.2</ele>
        <time>2022-05-22 21:05:27</time>
      </trkpt>
      <trkpt lat="42.64993" lon="1.00333">
        <ele>1839.4</ele>
        <time>2022-05-22 21:05:28</time>
      </trkpt>
      <trkpt lat="42.64994" lon="1.00335">
        <ele>1839.6</ele>
        <time>2022-05-22 21:05:29</time>
      </trkpt>
      <trkpt lat="42.64995" lon="1.00338">
        <ele>1839.6</ele>
        <time>2022-05-22 21:05:30</time>
      </trkpt>
      <trkpt lat="42.64996" lon="1.0034">
        <ele>1839.8</ele>
        <time>2022-05-22 21:05:31</time>
      </trkpt>
      <trkpt lat="42.64997" lon="1.00342">
        <ele>1839.8</ele>
        <time>2022-05-22 21:05:32</time>
      </trkpt>
      <trkpt lat="42.64999" lon="1.00345">
        <ele>1840</ele>
        <time>2022-05-22 21:05:33</time>
      </trkpt>
      <trkpt lat="42.65001" lon="1.00346">
        <ele>1840</ele>
        <time>2022-05-22 21:05:34</time>
      </trkpt>
      <trkpt lat="42.65003" lon="1.00348">
        <ele>1840.2</ele>
        <time>2022-05-22 21:05:35</time>
      </trkpt>
      <trkpt lat="42.65005" lon="1.00349">
        <ele>1840.2</ele>
        <time>2022-05-22 21:05:36</time>
      </trkpt>
      <trkpt lat="42.65007" lon="1.0035">
        <ele>1840.2</ele>
        <time>2022-05-22 21:05:37</time>
      </trkpt>
      <trkpt lat="42.65009" lon="1.00351">
        <ele>1840.2</ele>
        <time>2022-05-22 21:05:38</time>
      </trkpt>
      <trkpt lat="42.65011" lon="1.00352">
        <ele>1840.4</ele>
        <time>2022-05-22 21:05:39</time>
      </trkpt>
      <trkpt lat="42.65014" lon="1.00352">
        <ele>1840.4</ele>
        <time>2022-05-22 21:05:40</time>
      </trkpt>
      <trkpt lat="42.65016" lon="1.00353">
        <ele>1840.6</ele>
        <time>2022-05-22 21:05:41</time>
      </trkpt>
      <trkpt lat="42.65019" lon="1.00352">
        <ele>1840.6</ele>
        <time>2022-05-22 21:05:42</time>
      </trkpt>
      <trkpt lat="42.65021" lon="1.00352">
        <ele>1840.6</ele>
        <time>2022-05-22 21:05:43</time>
      </trkpt>
      <trkpt lat="42.65024" lon="1.00351">
        <ele>1840.6</ele>
        <time>2022-05-22 21:05:44</time>
      </trkpt>
      <trkpt lat="42.65026" lon="1.00349">
        <ele>1840.8</ele>
        <time>2022-05-22 21:05:45</time>
      </trkpt>
      <trkpt lat="42.65028" lon="1.00347">
        <ele>1840.8</ele>
        <time>2022-05-22 21:05:46</time>
      </trkpt>
      <trkpt lat="42.6503" lon="1.00345">
        <ele>1841</ele>
        <time>2022-05-22 21:05:47</time>
      </trkpt>
      <trkpt lat="42.65032" lon="1.00343">
        <ele>1841</ele>
        <time>2022-05-22 21:05:48</time>
      </trkpt>
      <trkpt lat="42.65034" lon="1.00341">
        <ele>1841.2</ele>
        <time>2022-05-22 21:05:49</time>
      </trkpt>
      <trkpt lat="42.65036" lon="1.0034">
        <ele>1841.2</ele>
        <time>2022-05-22 21:05:50</time>
      </trkpt>
      <trkpt lat="42.65037" lon="1.00338">
        <ele>1841.4</ele>
        <time>2022-05-22 21:05:51</time>
      </trkpt>
      <trkpt lat="42.65039" lon="1.00336">
        <ele>1841.6</ele>
        <time>2022-05-22 21:05:52</time>
      </trkpt>
      <trkpt lat="42.65041" lon="1.00333">
        <ele>1841.6</ele>
        <time>2022-05-22 21:05:53</time>
      </trkpt>
      <trkpt lat="42.65043" lon="1.00332">
        <ele>1841.8</ele>
        <time>2022-05-22 21:05:54</time>
      </trkpt>
      <trkpt lat="42.65044" lon="1.00329">
        <ele>1842</ele>
        <time>2022-05-22 21:05:55</time>
      </trkpt>
      <trkpt lat="42.65046" lon="1.00327">
        <ele>1842</ele>
        <time>2022-05-22 21:05:56</time>
      </trkpt>
      <trkpt lat="42.65047" lon="1.00326">
        <ele>1842.2</ele>
        <time>2022-05-22 21:05:57</time>
      </trkpt>
      <trkpt lat="42.65049" lon="1.00324">
        <ele>1842.4</ele>
        <time>2022-05-22 21:05:58</time>
      </trkpt>
      <trkpt lat="42.65051" lon="1.00322">
        <ele>1842.4</ele>
        <time>2022-05-22 21:05:59</time>
      </trkpt>
      <trkpt lat="42.65053" lon="1.0032">
        <ele>1842.6</ele>
        <time>2022-05-22 21:06:00</time>
      </trkpt>
      <trkpt lat="42.65054" lon="1.00318">
        <ele>1842.8</ele>
        <time>2022-05-22 21:06:01</time>
      </trkpt>
      <trkpt lat="42.65056" lon="1.00316">
        <ele>1843</ele>
        <time>2022-05-22 21:06:02</time>
      </trkpt>
      <trkpt lat="42.65058" lon="1.00314">
        <ele>1843.2</ele>
        <time>2022-05-22 21:06:03</time>
      </trkpt>
      <trkpt lat="42.65059" lon="1.00313">
        <ele>1843.2</ele>
        <time>2022-05-22 21:06:04</time>
      </trkpt>
      <trkpt lat="42.65061" lon="1.00311">
        <ele>1843.4</ele>
        <time>2022-05-22 21:06:05</time>
      </trkpt>
      <trkpt lat="42.65063" lon="1.00308">
        <ele>1843.6</ele>
        <time>2022-05-22 21:06:06</time>
      </trkpt>
      <trkpt lat="42.65065" lon="1.00307">
        <ele>1843.8</ele>
        <time>2022-05-22 21:06:07</time>
      </trkpt>
      <trkpt lat="42.65066" lon="1.00305">
        <ele>1844</ele>
        <time>2022-05-22 21:06:08</time>
      </trkpt>
      <trkpt lat="42.65068" lon="1.00303">
        <ele>1844.2</ele>
        <time>2022-05-22 21:06:09</time>
      </trkpt>
      <trkpt lat="42.6507" lon="1.00302">
        <ele>1844.2</ele>
        <time>2022-05-22 21:06:10</time>
      </trkpt>
      <trkpt lat="42.65072" lon="1.003">
        <ele>1844.4</ele>
        <time>2022-05-22 21:06:11</time>
      </trkpt>
      <trkpt lat="42.65074" lon="1.00298">
        <ele>1844.6</ele>
        <time>2022-05-22 21:06:12</time>
      </trkpt>
      <trkpt lat="42.65076" lon="1.00296">
        <ele>1844.8</ele>
        <time>2022-05-22 21:06:13</time>
      </trkpt>
      <trkpt lat="42.65078" lon="1.00294">
        <ele>1844.8</ele>
        <time>2022-05-22 21:06:14</time>
      </trkpt>
      <trkpt lat="42.6508" lon="1.00292">
        <ele>1845</ele>
        <time>2022-05-22 21:06:15</time>
      </trkpt>
      <trkpt lat="42.65082" lon="1.00289">
        <ele>1845.2</ele>
        <time>2022-05-22 21:06:16</time>
      </trkpt>
      <trkpt lat="42.65083" lon="1.00288">
        <ele>1845.4</ele>
        <time>2022-05-22 21:06:17</time>
      </trkpt>
      <trkpt lat="42.65085" lon="1.00286">
        <ele>1845.4</ele>
        <time>2022-05-22 21:06:18</time>
      </trkpt>
      <trkpt lat="42.65087" lon="1.00283">
        <ele>1845.6</ele>
        <time>2022-05-22 21:06:19</time>
      </trkpt>
      <trkpt lat="42.65089" lon="1.00281">
        <ele>1845.8</ele>
        <time>2022-05-22 21:06:20</time>
      </trkpt>
      <trkpt lat="42.65091" lon="1.00279">
        <ele>1846</ele>
        <time>2022-05-22 21:06:21</time>
      </trkpt>
      <trkpt lat="42.65093" lon="1.00277">
        <ele>1846</ele>
        <time>2022-05-22 21:06:22</time>
      </trkpt>
      <trkpt lat="42.65095" lon="1.00275">
        <ele>1846.2</ele>
        <time>2022-05-22 21:06:23</time>
      </trkpt>
      <trkpt lat="42.65096" lon="1.00273">
        <ele>1846.4</ele>
        <time>2022-05-22 21:06:24</time>
      </trkpt>
      <trkpt lat="42.65098" lon="1.00271">
        <ele>1846.6</ele>
        <time>2022-05-22 21:06:25</time>
      </trkpt>
      <trkpt lat="42.651" lon="1.00269">
        <ele>1846.8</ele>
        <time>2022-05-22 21:06:26</time>
      </trkpt>
      <trkpt lat="42.65102" lon="1.00267">
        <ele>1847</ele>
        <time>2022-05-22 21:06:27</time>
      </trkpt>
      <trkpt lat="42.65104" lon="1.00266">
        <ele>1847.2</ele>
        <time>2022-05-22 21:06:28</time>
      </trkpt>
      <trkpt lat="42.65106" lon="1.00265">
        <ele>1847.4</ele>
        <time>2022-05-22 21:06:29</time>
      </trkpt>
      <trkpt lat="42.65108" lon="1.00263">
        <ele>1847.6</ele>
        <time>2022-05-22 21:06:30</time>
      </trkpt>
      <trkpt lat="42.6511" lon="1.00262">
        <ele>1847.6</ele>
        <time>2022-05-22 21:06:31</time>
      </trkpt>
      <trkpt lat="42.65111" lon="1.00261">
        <ele>1847.8</ele>
        <time>2022-05-22 21:06:32</time>
      </trkpt>
      <trkpt lat="42.65113" lon="1.00259">
        <ele>1848</ele>
        <time>2022-05-22 21:06:33</time>
      </trkpt>
      <trkpt lat="42.65115" lon="1.00258">
        <ele>1848.2</ele>
        <time>2022-05-22 21:06:34</time>
      </trkpt>
      <trkpt lat="42.65117" lon="1.00257">
        <ele>1848.2</ele>
        <time>2022-05-22 21:06:35</time>
      </trkpt>
      <trkpt lat="42.65119" lon="1.00255">
        <ele>1848.6</ele>
        <time>2022-05-22 21:06:36</time>
      </trkpt>
      <trkpt lat="42.6512" lon="1.00254">
        <ele>1848.8</ele>
        <time>2022-05-22 21:06:37</time>
      </trkpt>
      <trkpt lat="42.65122" lon="1.00252">
        <ele>1848.8</ele>
        <time>2022-05-22 21:06:38</time>
      </trkpt>
      <trkpt lat="42.65124" lon="1.00251">
        <ele>1849</ele>
        <time>2022-05-22 21:06:39</time>
      </trkpt>
      <trkpt lat="42.65126" lon="1.0025">
        <ele>1849.2</ele>
        <time>2022-05-22 21:06:40</time>
      </trkpt>
      <trkpt lat="42.65128" lon="1.00249">
        <ele>1849.4</ele>
        <time>2022-05-22 21:06:41</time>
      </trkpt>
      <trkpt lat="42.6513" lon="1.00248">
        <ele>1849.6</ele>
        <time>2022-05-22 21:06:42</time>
      </trkpt>
      <trkpt lat="42.65132" lon="1.00247">
        <ele>1849.8</ele>
        <time>2022-05-22 21:06:43</time>
      </trkpt>
      <trkpt lat="42.65134" lon="1.00246">
        <ele>1850</ele>
        <time>2022-05-22 21:06:44</time>
      </trkpt>
      <trkpt lat="42.65136" lon="1.00245">
        <ele>1850</ele>
        <time>2022-05-22 21:06:45</time>
      </trkpt>
      <trkpt lat="42.65138" lon="1.00244">
        <ele>1850.2</ele>
        <time>2022-05-22 21:06:46</time>
      </trkpt>
      <trkpt lat="42.6514" lon="1.00243">
        <ele>1850.4</ele>
        <time>2022-05-22 21:06:47</time>
      </trkpt>
      <trkpt lat="42.65142" lon="1.00242">
        <ele>1850.6</ele>
        <time>2022-05-22 21:06:48</time>
      </trkpt>
      <trkpt lat="42.65144" lon="1.00241">
        <ele>1850.6</ele>
        <time>2022-05-22 21:06:49</time>
      </trkpt>
      <trkpt lat="42.65145" lon="1.0024">
        <ele>1850.8</ele>
        <time>2022-05-22 21:06:50</time>
      </trkpt>
      <trkpt lat="42.65147" lon="1.00239">
        <ele>1851</ele>
        <time>2022-05-22 21:06:51</time>
      </trkpt>
      <trkpt lat="42.65149" lon="1.00237">
        <ele>1851.2</ele>
        <time>2022-05-22 21:06:52</time>
      </trkpt>
      <trkpt lat="42.65151" lon="1.00235">
        <ele>1851.2</ele>
        <time>2022-05-22 21:06:53</time>
      </trkpt>
      <trkpt lat="42.65153" lon="1.00234">
        <ele>1851.4</ele>
        <time>2022-05-22 21:06:54</time>
      </trkpt>
      <trkpt lat="42.65155" lon="1.00233">
        <ele>1851.6</ele>
        <time>2022-05-22 21:06:55</time>
      </trkpt>
      <trkpt lat="42.65156" lon="1.00232">
        <ele>1851.8</ele>
        <time>2022-05-22 21:06:56</time>
      </trkpt>
      <trkpt lat="42.65158" lon="1.00231">
        <ele>1851.8</ele>
        <time>2022-05-22 21:06:57</time>
      </trkpt>
      <trkpt lat="42.6516" lon="1.0023">
        <ele>1852</ele>
        <time>2022-05-22 21:06:58</time>
      </trkpt>
      <trkpt lat="42.65162" lon="1.00229">
        <ele>1852.2</ele>
        <time>2022-05-22 21:06:59</time>
      </trkpt>
      <trkpt lat="42.65164" lon="1.00228">
        <ele>1852.4</ele>
        <time>2022-05-22 21:07:00</time>
      </trkpt>
      <trkpt lat="42.65166" lon="1.00227">
        <ele>1852.4</ele>
        <time>2022-05-22 21:07:01</time>
      </trkpt>
      <trkpt lat="42.65168" lon="1.00226">
        <ele>1852.6</ele>
        <time>2022-05-22 21:07:02</time>
      </trkpt>
      <trkpt lat="42.6517" lon="1.00225">
        <ele>1852.8</ele>
        <time>2022-05-22 21:07:03</time>
      </trkpt>
      <trkpt lat="42.65172" lon="1.00224">
        <ele>1853</ele>
        <time>2022-05-22 21:07:04</time>
      </trkpt>
      <trkpt lat="42.65174" lon="1.00223">
        <ele>1853</ele>
        <time>2022-05-22 21:07:05</time>
      </trkpt>
      <trkpt lat="42.65176" lon="1.00222">
        <ele>1853.2</ele>
        <time>2022-05-22 21:07:06</time>
      </trkpt>
      <trkpt lat="42.65178" lon="1.00221">
        <ele>1853.4</ele>
        <time>2022-05-22 21:07:07</time>
      </trkpt>
      <trkpt lat="42.6518" lon="1.0022">
        <ele>1853.4</ele>
        <time>2022-05-22 21:07:08</time>
      </trkpt>
      <trkpt lat="42.65182" lon="1.00219">
        <ele>1853.6</ele>
        <time>2022-05-22 21:07:09</time>
      </trkpt>
      <trkpt lat="42.65184" lon="1.00218">
        <ele>1853.8</ele>
        <time>2022-05-22 21:07:10</time>
      </trkpt>
      <trkpt lat="42.65186" lon="1.00216">
        <ele>1854</ele>
        <time>2022-05-22 21:07:11</time>
      </trkpt>
      <trkpt lat="42.65187" lon="1.00215">
        <ele>1854.2</ele>
        <time>2022-05-22 21:07:12</time>
      </trkpt>
      <trkpt lat="42.65189" lon="1.00214">
        <ele>1854.4</ele>
        <time>2022-05-22 21:07:13</time>
      </trkpt>
      <trkpt lat="42.65191" lon="1.00213">
        <ele>1854.4</ele>
        <time>2022-05-22 21:07:14</time>
      </trkpt>
      <trkpt lat="42.65193" lon="1.00211">
        <ele>1854.6</ele>
        <time>2022-05-22 21:07:15</time>
      </trkpt>
      <trkpt lat="42.65195" lon="1.0021">
        <ele>1854.8</ele>
        <time>2022-05-22 21:07:16</time>
      </trkpt>
      <trkpt lat="42.65196" lon="1.0021">
        <ele>1855</ele>
        <time>2022-05-22 21:07:17</time>
      </trkpt>
      <trkpt lat="42.65198" lon="1.00209">
        <ele>1855.2</ele>
        <time>2022-05-22 21:07:18</time>
      </trkpt>
      <trkpt lat="42.65201" lon="1.00208">
        <ele>1855.2</ele>
        <time>2022-05-22 21:07:19</time>
      </trkpt>
      <trkpt lat="42.65202" lon="1.00207">
        <ele>1855.4</ele>
        <time>2022-05-22 21:07:20</time>
      </trkpt>
      <trkpt lat="42.65204" lon="1.00206">
        <ele>1855.6</ele>
        <time>2022-05-22 21:07:21</time>
      </trkpt>
      <trkpt lat="42.65207" lon="1.00206">
        <ele>1855.8</ele>
        <time>2022-05-22 21:07:22</time>
      </trkpt>
      <trkpt lat="42.65209" lon="1.00206">
        <ele>1856</ele>
        <time>2022-05-22 21:07:23</time>
      </trkpt>
      <trkpt lat="42.65211" lon="1.00206">
        <ele>1856</ele>
        <time>2022-05-22 21:07:24</time>
      </trkpt>
      <trkpt lat="42.65213" lon="1.00206">
        <ele>1856.2</ele>
        <time>2022-05-22 21:07:25</time>
      </trkpt>
      <trkpt lat="42.65215" lon="1.00206">
        <ele>1856.4</ele>
        <time>2022-05-22 21:07:26</time>
      </trkpt>
      <trkpt lat="42.65218" lon="1.00206">
        <ele>1856.6</ele>
        <time>2022-05-22 21:07:27</time>
      </trkpt>
      <trkpt lat="42.6522" lon="1.00206">
        <ele>1856.8</ele>
        <time>2022-05-22 21:07:28</time>
      </trkpt>
      <trkpt lat="42.65222" lon="1.00206">
        <ele>1857</ele>
        <time>2022-05-22 21:07:29</time>
      </trkpt>
      <trkpt lat="42.65225" lon="1.00206">
        <ele>1857</ele>
        <time>2022-05-22 21:07:30</time>
      </trkpt>
      <trkpt lat="42.65227" lon="1.00206">
        <ele>1857.2</ele>
        <time>2022-05-22 21:07:31</time>
      </trkpt>
      <trkpt lat="42.65229" lon="1.00206">
        <ele>1857.4</ele>
        <time>2022-05-22 21:07:32</time>
      </trkpt>
      <trkpt lat="42.65231" lon="1.00206">
        <ele>1857.6</ele>
        <time>2022-05-22 21:07:33</time>
      </trkpt>
      <trkpt lat="42.65233" lon="1.00205">
        <ele>1857.8</ele>
        <time>2022-05-22 21:07:34</time>
      </trkpt>
      <trkpt lat="42.65235" lon="1.00205">
        <ele>1857.8</ele>
        <time>2022-05-22 21:07:35</time>
      </trkpt>
      <trkpt lat="42.65237" lon="1.00204">
        <ele>1858</ele>
        <time>2022-05-22 21:07:36</time>
      </trkpt>
      <trkpt lat="42.65239" lon="1.00203">
        <ele>1858.2</ele>
        <time>2022-05-22 21:07:37</time>
      </trkpt>
      <trkpt lat="42.65241" lon="1.00201">
        <ele>1858.4</ele>
        <time>2022-05-22 21:07:38</time>
      </trkpt>
      <trkpt lat="42.65243" lon="1.00199">
        <ele>1858.4</ele>
        <time>2022-05-22 21:07:39</time>
      </trkpt>
      <trkpt lat="42.65244" lon="1.00196">
        <ele>1858.6</ele>
        <time>2022-05-22 21:07:40</time>
      </trkpt>
      <trkpt lat="42.65245" lon="1.00193">
        <ele>1858.8</ele>
        <time>2022-05-22 21:07:41</time>
      </trkpt>
      <trkpt lat="42.65245" lon="1.0019">
        <ele>1859</ele>
        <time>2022-05-22 21:07:42</time>
      </trkpt>
      <trkpt lat="42.65245" lon="1.00187">
        <ele>1859</ele>
        <time>2022-05-22 21:07:43</time>
      </trkpt>
      <trkpt lat="42.65244" lon="1.00185">
        <ele>1859.2</ele>
        <time>2022-05-22 21:07:44</time>
      </trkpt>
      <trkpt lat="42.65243" lon="1.00181">
        <ele>1859.4</ele>
        <time>2022-05-22 21:07:45</time>
      </trkpt>
      <trkpt lat="42.65242" lon="1.00179">
        <ele>1859.6</ele>
        <time>2022-05-22 21:07:46</time>
      </trkpt>
      <trkpt lat="42.6524" lon="1.00177">
        <ele>1859.6</ele>
        <time>2022-05-22 21:07:47</time>
      </trkpt>
      <trkpt lat="42.65238" lon="1.00176">
        <ele>1859.8</ele>
        <time>2022-05-22 21:07:48</time>
      </trkpt>
      <trkpt lat="42.65236" lon="1.00175">
        <ele>1860</ele>
        <time>2022-05-22 21:07:49</time>
      </trkpt>
      <trkpt lat="42.65234" lon="1.00174">
        <ele>1860</ele>
        <time>2022-05-22 21:07:50</time>
      </trkpt>
      <trkpt lat="42.65231" lon="1.00173">
        <ele>1860.2</ele>
        <time>2022-05-22 21:07:51</time>
      </trkpt>
      <trkpt lat="42.65229" lon="1.00173">
        <ele>1860.2</ele>
        <time>2022-05-22 21:07:52</time>
      </trkpt>
      <trkpt lat="42.65227" lon="1.00174">
        <ele>1860.2</ele>
        <time>2022-05-22 21:07:53</time>
      </trkpt>
      <trkpt lat="42.65226" lon="1.00174">
        <ele>1860.4</ele>
        <time>2022-05-22 21:07:54</time>
      </trkpt>
      <trkpt lat="42.65224" lon="1.00175">
        <ele>1860.4</ele>
        <time>2022-05-22 21:07:55</time>
      </trkpt>
      <trkpt lat="42.65221" lon="1.00176">
        <ele>1860.6</ele>
        <time>2022-05-22 21:07:56</time>
      </trkpt>
      <trkpt lat="42.65219" lon="1.00176">
        <ele>1860.6</ele>
        <time>2022-05-22 21:07:57</time>
      </trkpt>
      <trkpt lat="42.65216" lon="1.00177">
        <ele>1860.6</ele>
        <time>2022-05-22 21:07:58</time>
      </trkpt>
      <trkpt lat="42.65213" lon="1.00177">
        <ele>1860.8</ele>
        <time>2022-05-22 21:07:59</time>
      </trkpt>
      <trkpt lat="42.65211" lon="1.00178">
        <ele>1860.8</ele>
        <time>2022-05-22 21:08:00</time>
      </trkpt>
      <trkpt lat="42.65208" lon="1.00178">
        <ele>1861</ele>
        <time>2022-05-22 21:08:01</time>
      </trkpt>
      <trkpt lat="42.65205" lon="1.00179">
        <ele>1861.2</ele>
        <time>2022-05-22 21:08:02</time>
      </trkpt>
      <trkpt lat="42.65203" lon="1.0018">
        <ele>1861.2</ele>
        <time>2022-05-22 21:08:03</time>
      </trkpt>
      <trkpt lat="42.652" lon="1.00181">
        <ele>1861.2</ele>
        <time>2022-05-22 21:08:04</time>
      </trkpt>
      <trkpt lat="42.65197" lon="1.00182">
        <ele>1861.4</ele>
        <time>2022-05-22 21:08:05</time>
      </trkpt>
      <trkpt lat="42.65195" lon="1.00183">
        <ele>1861.6</ele>
        <time>2022-05-22 21:08:06</time>
      </trkpt>
      <trkpt lat="42.65192" lon="1.00183">
        <ele>1861.6</ele>
        <time>2022-05-22 21:08:07</time>
      </trkpt>
      <trkpt lat="42.65189" lon="1.00184">
        <ele>1861.8</ele>
        <time>2022-05-22 21:08:08</time>
      </trkpt>
      <trkpt lat="42.65187" lon="1.00185">
        <ele>1861.8</ele>
        <time>2022-05-22 21:08:09</time>
      </trkpt>
      <trkpt lat="42.65185" lon="1.00187">
        <ele>1862</ele>
        <time>2022-05-22 21:08:10</time>
      </trkpt>
      <trkpt lat="42.65182" lon="1.00188">
        <ele>1862.2</ele>
        <time>2022-05-22 21:08:11</time>
      </trkpt>
      <trkpt lat="42.65179" lon="1.00189">
        <ele>1862.2</ele>
        <time>2022-05-22 21:08:12</time>
      </trkpt>
      <trkpt lat="42.65177" lon="1.0019">
        <ele>1862.4</ele>
        <time>2022-05-22 21:08:13</time>
      </trkpt>
      <trkpt lat="42.65174" lon="1.00191">
        <ele>1862.6</ele>
        <time>2022-05-22 21:08:14</time>
      </trkpt>
      <trkpt lat="42.65172" lon="1.00192">
        <ele>1862.8</ele>
        <time>2022-05-22 21:08:15</time>
      </trkpt>
      <trkpt lat="42.65169" lon="1.00193">
        <ele>1863</ele>
        <time>2022-05-22 21:08:16</time>
      </trkpt>
      <trkpt lat="42.65167" lon="1.00194">
        <ele>1863.2</ele>
        <time>2022-05-22 21:08:17</time>
      </trkpt>
      <trkpt lat="42.65164" lon="1.00195">
        <ele>1863.2</ele>
        <time>2022-05-22 21:08:18</time>
      </trkpt>
      <trkpt lat="42.65162" lon="1.00196">
        <ele>1863.4</ele>
        <time>2022-05-22 21:08:19</time>
      </trkpt>
      <trkpt lat="42.65159" lon="1.00198">
        <ele>1863.6</ele>
        <time>2022-05-22 21:08:20</time>
      </trkpt>
      <trkpt lat="42.65156" lon="1.00199">
        <ele>1863.8</ele>
        <time>2022-05-22 21:08:21</time>
      </trkpt>
      <trkpt lat="42.65154" lon="1.002">
        <ele>1864</ele>
        <time>2022-05-22 21:08:22</time>
      </trkpt>
      <trkpt lat="42.65151" lon="1.00201">
        <ele>1864.2</ele>
        <time>2022-05-22 21:08:23</time>
      </trkpt>
      <trkpt lat="42.65149" lon="1.00202">
        <ele>1864.4</ele>
        <time>2022-05-22 21:08:24</time>
      </trkpt>
      <trkpt lat="42.65146" lon="1.00203">
        <ele>1864.4</ele>
        <time>2022-05-22 21:08:25</time>
      </trkpt>
      <trkpt lat="42.65144" lon="1.00204">
        <ele>1864.6</ele>
        <time>2022-05-22 21:08:26</time>
      </trkpt>
      <trkpt lat="42.65142" lon="1.00205">
        <ele>1864.8</ele>
        <time>2022-05-22 21:08:27</time>
      </trkpt>
      <trkpt lat="42.6514" lon="1.00206">
        <ele>1865</ele>
        <time>2022-05-22 21:08:28</time>
      </trkpt>
      <trkpt lat="42.65137" lon="1.00207">
        <ele>1865.2</ele>
        <time>2022-05-22 21:08:29</time>
      </trkpt>
      <trkpt lat="42.65135" lon="1.00207">
        <ele>1865.4</ele>
        <time>2022-05-22 21:08:30</time>
      </trkpt>
      <trkpt lat="42.65133" lon="1.00207">
        <ele>1865.4</ele>
        <time>2022-05-22 21:08:31</time>
      </trkpt>
      <trkpt lat="42.6513" lon="1.00208">
        <ele>1865.6</ele>
        <time>2022-05-22 21:08:32</time>
      </trkpt>
      <trkpt lat="42.65128" lon="1.00208">
        <ele>1865.8</ele>
        <time>2022-05-22 21:08:33</time>
      </trkpt>
      <trkpt lat="42.65125" lon="1.00209">
        <ele>1866</ele>
        <time>2022-05-22 21:08:34</time>
      </trkpt>
      <trkpt lat="42.65124" lon="1.0021">
        <ele>1866.2</ele>
        <time>2022-05-22 21:08:35</time>
      </trkpt>
      <trkpt lat="42.65121" lon="1.00211">
        <ele>1866.2</ele>
        <time>2022-05-22 21:08:36</time>
      </trkpt>
      <trkpt lat="42.65119" lon="1.00211">
        <ele>1866.4</ele>
        <time>2022-05-22 21:08:37</time>
      </trkpt>
      <trkpt lat="42.65116" lon="1.00211">
        <ele>1866.6</ele>
        <time>2022-05-22 21:08:38</time>
      </trkpt>
      <trkpt lat="42.65114" lon="1.00211">
        <ele>1866.8</ele>
        <time>2022-05-22 21:08:39</time>
      </trkpt>
      <trkpt lat="42.65112" lon="1.0021">
        <ele>1867</ele>
        <time>2022-05-22 21:08:40</time>
      </trkpt>
      <trkpt lat="42.65109" lon="1.00209">
        <ele>1867</ele>
        <time>2022-05-22 21:08:41</time>
      </trkpt>
      <trkpt lat="42.65107" lon="1.00207">
        <ele>1867.2</ele>
        <time>2022-05-22 21:08:42</time>
      </trkpt>
      <trkpt lat="42.65105" lon="1.00206">
        <ele>1867.4</ele>
        <time>2022-05-22 21:08:43</time>
      </trkpt>
      <trkpt lat="42.65103" lon="1.00204">
        <ele>1867.6</ele>
        <time>2022-05-22 21:08:44</time>
      </trkpt>
      <trkpt lat="42.65101" lon="1.00201">
        <ele>1867.6</ele>
        <time>2022-05-22 21:08:45</time>
      </trkpt>
      <trkpt lat="42.65099" lon="1.00199">
        <ele>1867.8</ele>
        <time>2022-05-22 21:08:46</time>
      </trkpt>
      <trkpt lat="42.65098" lon="1.00197">
        <ele>1868</ele>
        <time>2022-05-22 21:08:47</time>
      </trkpt>
      <trkpt lat="42.65097" lon="1.00194">
        <ele>1868.2</ele>
        <time>2022-05-22 21:08:48</time>
      </trkpt>
      <trkpt lat="42.65096" lon="1.00191">
        <ele>1868.4</ele>
        <time>2022-05-22 21:08:49</time>
      </trkpt>
      <trkpt lat="42.65095" lon="1.00188">
        <ele>1868.6</ele>
        <time>2022-05-22 21:08:50</time>
      </trkpt>
      <trkpt lat="42.65094" lon="1.00185">
        <ele>1868.8</ele>
        <time>2022-05-22 21:08:51</time>
      </trkpt>
      <trkpt lat="42.65093" lon="1.00181">
        <ele>1868.8</ele>
        <time>2022-05-22 21:08:52</time>
      </trkpt>
      <trkpt lat="42.65093" lon="1.00178">
        <ele>1869</ele>
        <time>2022-05-22 21:08:53</time>
      </trkpt>
      <trkpt lat="42.65093" lon="1.00175">
        <ele>1869.2</ele>
        <time>2022-05-22 21:08:54</time>
      </trkpt>
      <trkpt lat="42.65093" lon="1.00172">
        <ele>1869.4</ele>
        <time>2022-05-22 21:08:55</time>
      </trkpt>
      <trkpt lat="42.65094" lon="1.00169">
        <ele>1869.4</ele>
        <time>2022-05-22 21:08:56</time>
      </trkpt>
      <trkpt lat="42.65094" lon="1.00166">
        <ele>1869.6</ele>
        <time>2022-05-22 21:08:57</time>
      </trkpt>
      <trkpt lat="42.65094" lon="1.00163">
        <ele>1869.8</ele>
        <time>2022-05-22 21:08:58</time>
      </trkpt>
      <trkpt lat="42.65095" lon="1.0016">
        <ele>1870</ele>
        <time>2022-05-22 21:08:59</time>
      </trkpt>
      <trkpt lat="42.65095" lon="1.00158">
        <ele>1870.2</ele>
        <time>2022-05-22 21:09:00</time>
      </trkpt>
      <trkpt lat="42.65095" lon="1.00155">
        <ele>1870.2</ele>
        <time>2022-05-22 21:09:01</time>
      </trkpt>
      <trkpt lat="42.65096" lon="1.00152">
        <ele>1870.4</ele>
        <time>2022-05-22 21:09:02</time>
      </trkpt>
      <trkpt lat="42.65096" lon="1.00149">
        <ele>1870.6</ele>
        <time>2022-05-22 21:09:03</time>
      </trkpt>
      <trkpt lat="42.65098" lon="1.00147">
        <ele>1870.8</ele>
        <time>2022-05-22 21:09:04</time>
      </trkpt>
      <trkpt lat="42.65099" lon="1.00145">
        <ele>1870.8</ele>
        <time>2022-05-22 21:09:05</time>
      </trkpt>
      <trkpt lat="42.651" lon="1.00142">
        <ele>1871</ele>
        <time>2022-05-22 21:09:06</time>
      </trkpt>
      <trkpt lat="42.651" lon="1.00139">
        <ele>1871.2</ele>
        <time>2022-05-22 21:09:07</time>
      </trkpt>
      <trkpt lat="42.65101" lon="1.00136">
        <ele>1871.4</ele>
        <time>2022-05-22 21:09:08</time>
      </trkpt>
      <trkpt lat="42.65102" lon="1.00134">
        <ele>1871.4</ele>
        <time>2022-05-22 21:09:09</time>
      </trkpt>
      <trkpt lat="42.65103" lon="1.00131">
        <ele>1871.6</ele>
        <time>2022-05-22 21:09:10</time>
      </trkpt>
      <trkpt lat="42.65104" lon="1.00128">
        <ele>1871.6</ele>
        <time>2022-05-22 21:09:11</time>
      </trkpt>
      <trkpt lat="42.65105" lon="1.00126">
        <ele>1871.8</ele>
        <time>2022-05-22 21:09:12</time>
      </trkpt>
      <trkpt lat="42.65106" lon="1.00123">
        <ele>1872</ele>
        <time>2022-05-22 21:09:13</time>
      </trkpt>
      <trkpt lat="42.65107" lon="1.00121">
        <ele>1872</ele>
        <time>2022-05-22 21:09:14</time>
      </trkpt>
      <trkpt lat="42.65108" lon="1.00119">
        <ele>1872.2</ele>
        <time>2022-05-22 21:09:15</time>
      </trkpt>
      <trkpt lat="42.65109" lon="1.00116">
        <ele>1872.4</ele>
        <time>2022-05-22 21:09:16</time>
      </trkpt>
      <trkpt lat="42.6511" lon="1.00113">
        <ele>1872.6</ele>
        <time>2022-05-22 21:09:17</time>
      </trkpt>
      <trkpt lat="42.65111" lon="1.00111">
        <ele>1872.6</ele>
        <time>2022-05-22 21:09:18</time>
      </trkpt>
      <trkpt lat="42.65112" lon="1.00108">
        <ele>1872.8</ele>
        <time>2022-05-22 21:09:19</time>
      </trkpt>
      <trkpt lat="42.65113" lon="1.00106">
        <ele>1873</ele>
        <time>2022-05-22 21:09:20</time>
      </trkpt>
      <trkpt lat="42.65114" lon="1.00103">
        <ele>1873.2</ele>
        <time>2022-05-22 21:09:21</time>
      </trkpt>
      <trkpt lat="42.65115" lon="1.00101">
        <ele>1873.4</ele>
        <time>2022-05-22 21:09:22</time>
      </trkpt>
      <trkpt lat="42.65116" lon="1.00098">
        <ele>1873.4</ele>
        <time>2022-05-22 21:09:23</time>
      </trkpt>
      <trkpt lat="42.65117" lon="1.00096">
        <ele>1873.6</ele>
        <time>2022-05-22 21:09:24</time>
      </trkpt>
      <trkpt lat="42.65118" lon="1.00093">
        <ele>1873.8</ele>
        <time>2022-05-22 21:09:25</time>
      </trkpt>
      <trkpt lat="42.65119" lon="1.00091">
        <ele>1874</ele>
        <time>2022-05-22 21:09:26</time>
      </trkpt>
      <trkpt lat="42.6512" lon="1.00088">
        <ele>1874.2</ele>
        <time>2022-05-22 21:09:27</time>
      </trkpt>
      <trkpt lat="42.65121" lon="1.00086">
        <ele>1874.2</ele>
        <time>2022-05-22 21:09:28</time>
      </trkpt>
      <trkpt lat="42.65122" lon="1.00083">
        <ele>1874.4</ele>
        <time>2022-05-22 21:09:29</time>
      </trkpt>
      <trkpt lat="42.65123" lon="1.00081">
        <ele>1874.6</ele>
        <time>2022-05-22 21:09:30</time>
      </trkpt>
      <trkpt lat="42.65124" lon="1.00078">
        <ele>1874.6</ele>
        <time>2022-05-22 21:09:31</time>
      </trkpt>
      <trkpt lat="42.65124" lon="1.00076">
        <ele>1874.8</ele>
        <time>2022-05-22 21:09:32</time>
      </trkpt>
      <trkpt lat="42.65125" lon="1.00074">
        <ele>1875</ele>
        <time>2022-05-22 21:09:33</time>
      </trkpt>
      <trkpt lat="42.65126" lon="1.00071">
        <ele>1875.2</ele>
        <time>2022-05-22 21:09:34</time>
      </trkpt>
      <trkpt lat="42.65127" lon="1.00068">
        <ele>1875.4</ele>
        <time>2022-05-22 21:09:35</time>
      </trkpt>
      <trkpt lat="42.65127" lon="1.00066">
        <ele>1875.4</ele>
        <time>2022-05-22 21:09:36</time>
      </trkpt>
      <trkpt lat="42.65128" lon="1.00063">
        <ele>1875.6</ele>
        <time>2022-05-22 21:09:37</time>
      </trkpt>
      <trkpt lat="42.65129" lon="1.00061">
        <ele>1875.8</ele>
        <time>2022-05-22 21:09:38</time>
      </trkpt>
      <trkpt lat="42.6513" lon="1.00059">
        <ele>1876</ele>
        <time>2022-05-22 21:09:39</time>
      </trkpt>
      <trkpt lat="42.65131" lon="1.00056">
        <ele>1876.2</ele>
        <time>2022-05-22 21:09:40</time>
      </trkpt>
      <trkpt lat="42.65132" lon="1.00054">
        <ele>1876.2</ele>
        <time>2022-05-22 21:09:41</time>
      </trkpt>
      <trkpt lat="42.65133" lon="1.00051">
        <ele>1876.4</ele>
        <time>2022-05-22 21:09:42</time>
      </trkpt>
      <trkpt lat="42.65134" lon="1.00048">
        <ele>1876.6</ele>
        <time>2022-05-22 21:09:43</time>
      </trkpt>
      <trkpt lat="42.65135" lon="1.00046">
        <ele>1876.8</ele>
        <time>2022-05-22 21:09:44</time>
      </trkpt>
      <trkpt lat="42.65136" lon="1.00044">
        <ele>1876.8</ele>
        <time>2022-05-22 21:09:45</time>
      </trkpt>
      <trkpt lat="42.65137" lon="1.00041">
        <ele>1877</ele>
        <time>2022-05-22 21:09:46</time>
      </trkpt>
      <trkpt lat="42.65138" lon="1.00039">
        <ele>1877.2</ele>
        <time>2022-05-22 21:09:47</time>
      </trkpt>
      <trkpt lat="42.65139" lon="1.00036">
        <ele>1877.4</ele>
        <time>2022-05-22 21:09:48</time>
      </trkpt>
      <trkpt lat="42.6514" lon="1.00034">
        <ele>1877.6</ele>
        <time>2022-05-22 21:09:49</time>
      </trkpt>
      <trkpt lat="42.65141" lon="1.00031">
        <ele>1877.8</ele>
        <time>2022-05-22 21:09:50</time>
      </trkpt>
      <trkpt lat="42.65142" lon="1.00028">
        <ele>1878</ele>
        <time>2022-05-22 21:09:51</time>
      </trkpt>
      <trkpt lat="42.65143" lon="1.00026">
        <ele>1878.2</ele>
        <time>2022-05-22 21:09:52</time>
      </trkpt>
      <trkpt lat="42.65144" lon="1.00023">
        <ele>1878.4</ele>
        <time>2022-05-22 21:09:53</time>
      </trkpt>
      <trkpt lat="42.65144" lon="1.00021">
        <ele>1878.6</ele>
        <time>2022-05-22 21:09:54</time>
      </trkpt>
      <trkpt lat="42.65145" lon="1.00018">
        <ele>1878.8</ele>
        <time>2022-05-22 21:09:55</time>
      </trkpt>
      <trkpt lat="42.65147" lon="1.00016">
        <ele>1879</ele>
        <time>2022-05-22 21:09:56</time>
      </trkpt>
      <trkpt lat="42.65148" lon="1.00014">
        <ele>1879.2</ele>
        <time>2022-05-22 21:09:57</time>
      </trkpt>
      <trkpt lat="42.65149" lon="1.00012">
        <ele>1879.4</ele>
        <time>2022-05-22 21:09:58</time>
      </trkpt>
      <trkpt lat="42.6515" lon="1.0001">
        <ele>1879.6</ele>
        <time>2022-05-22 21:09:59</time>
      </trkpt>
      <trkpt lat="42.65152" lon="1.00008">
        <ele>1879.8</ele>
        <time>2022-05-22 21:10:00</time>
      </trkpt>
      <trkpt lat="42.65153" lon="1.00005">
        <ele>1880</ele>
        <time>2022-05-22 21:10:01</time>
      </trkpt>
      <trkpt lat="42.65154" lon="1.00003">
        <ele>1880.2</ele>
        <time>2022-05-22 21:10:02</time>
      </trkpt>
      <trkpt lat="42.65156" lon="1.00001">
        <ele>1880.4</ele>
        <time>2022-05-22 21:10:03</time>
      </trkpt>
      <trkpt lat="42.65157" lon="0.99999">
        <ele>1880.6</ele>
        <time>2022-05-22 21:10:04</time>
      </trkpt>
      <trkpt lat="42.65158" lon="0.99997">
        <ele>1880.8</ele>
        <time>2022-05-22 21:10:05</time>
      </trkpt>
      <trkpt lat="42.65159" lon="0.99995">
        <ele>1881</ele>
        <time>2022-05-22 21:10:06</time>
      </trkpt>
      <trkpt lat="42.65161" lon="0.99993">
        <ele>1881</ele>
        <time>2022-05-22 21:10:07</time>
      </trkpt>
      <trkpt lat="42.65162" lon="0.99991">
        <ele>1881.2</ele>
        <time>2022-05-22 21:10:08</time>
      </trkpt>
      <trkpt lat="42.65163" lon="0.99989">
        <ele>1881.4</ele>
        <time>2022-05-22 21:10:09</time>
      </trkpt>
      <trkpt lat="42.65165" lon="0.99987">
        <ele>1881.6</ele>
        <time>2022-05-22 21:10:10</time>
      </trkpt>
      <trkpt lat="42.65167" lon="0.99985">
        <ele>1881.8</ele>
        <time>2022-05-22 21:10:11</time>
      </trkpt>
      <trkpt lat="42.65168" lon="0.99984">
        <ele>1882</ele>
        <time>2022-05-22 21:10:12</time>
      </trkpt>
      <trkpt lat="42.6517" lon="0.99983">
        <ele>1882.2</ele>
        <time>2022-05-22 21:10:13</time>
      </trkpt>
      <trkpt lat="42.65171" lon="0.99982">
        <ele>1882.4</ele>
        <time>2022-05-22 21:10:14</time>
      </trkpt>
      <trkpt lat="42.65173" lon="0.99981">
        <ele>1882.6</ele>
        <time>2022-05-22 21:10:15</time>
      </trkpt>
      <trkpt lat="42.65175" lon="0.99981">
        <ele>1882.8</ele>
        <time>2022-05-22 21:10:16</time>
      </trkpt>
      <trkpt lat="42.65177" lon="0.99981">
        <ele>1882.8</ele>
        <time>2022-05-22 21:10:17</time>
      </trkpt>
      <trkpt lat="42.65178" lon="0.99982">
        <ele>1883</ele>
        <time>2022-05-22 21:10:18</time>
      </trkpt>
      <trkpt lat="42.6518" lon="0.99983">
        <ele>1883.2</ele>
        <time>2022-05-22 21:10:19</time>
      </trkpt>
      <trkpt lat="42.65181" lon="0.99984">
        <ele>1883.4</ele>
        <time>2022-05-22 21:10:20</time>
      </trkpt>
      <trkpt lat="42.65182" lon="0.99986">
        <ele>1883.6</ele>
        <time>2022-05-22 21:10:21</time>
      </trkpt>
      <trkpt lat="42.65183" lon="0.99988">
        <ele>1883.8</ele>
        <time>2022-05-22 21:10:22</time>
      </trkpt>
      <trkpt lat="42.65184" lon="0.9999">
        <ele>1883.8</ele>
        <time>2022-05-22 21:10:23</time>
      </trkpt>
      <trkpt lat="42.65184" lon="0.99992">
        <ele>1884</ele>
        <time>2022-05-22 21:10:24</time>
      </trkpt>
      <trkpt lat="42.65184" lon="0.99995">
        <ele>1884.2</ele>
        <time>2022-05-22 21:10:25</time>
      </trkpt>
      <trkpt lat="42.65184" lon="0.99997">
        <ele>1884.4</ele>
        <time>2022-05-22 21:10:26</time>
      </trkpt>
      <trkpt lat="42.65184" lon="1">
        <ele>1884.4</ele>
        <time>2022-05-22 21:10:27</time>
      </trkpt>
      <trkpt lat="42.65183" lon="1.00003">
        <ele>1884.6</ele>
        <time>2022-05-22 21:10:28</time>
      </trkpt>
      <trkpt lat="42.65183" lon="1.00005">
        <ele>1884.8</ele>
        <time>2022-05-22 21:10:29</time>
      </trkpt>
      <trkpt lat="42.65183" lon="1.00008">
        <ele>1884.8</ele>
        <time>2022-05-22 21:10:30</time>
      </trkpt>
      <trkpt lat="42.65182" lon="1.0001">
        <ele>1885</ele>
        <time>2022-05-22 21:10:31</time>
      </trkpt>
      <trkpt lat="42.65182" lon="1.00013">
        <ele>1885</ele>
        <time>2022-05-22 21:10:32</time>
      </trkpt>
      <trkpt lat="42.65181" lon="1.00016">
        <ele>1885.2</ele>
        <time>2022-05-22 21:10:33</time>
      </trkpt>
      <trkpt lat="42.6518" lon="1.00019">
        <ele>1885.4</ele>
        <time>2022-05-22 21:10:34</time>
      </trkpt>
      <trkpt lat="42.65179" lon="1.00021">
        <ele>1885.6</ele>
        <time>2022-05-22 21:10:35</time>
      </trkpt>
      <trkpt lat="42.65178" lon="1.00024">
        <ele>1885.6</ele>
        <time>2022-05-22 21:10:36</time>
      </trkpt>
      <trkpt lat="42.65177" lon="1.00026">
        <ele>1885.8</ele>
        <time>2022-05-22 21:10:37</time>
      </trkpt>
      <trkpt lat="42.65176" lon="1.00029">
        <ele>1886</ele>
        <time>2022-05-22 21:10:38</time>
      </trkpt>
      <trkpt lat="42.65175" lon="1.00032">
        <ele>1886.2</ele>
        <time>2022-05-22 21:10:39</time>
      </trkpt>
      <trkpt lat="42.65174" lon="1.00035">
        <ele>1886.2</ele>
        <time>2022-05-22 21:10:40</time>
      </trkpt>
      <trkpt lat="42.65173" lon="1.00037">
        <ele>1886.4</ele>
        <time>2022-05-22 21:10:41</time>
      </trkpt>
      <trkpt lat="42.65172" lon="1.0004">
        <ele>1886.6</ele>
        <time>2022-05-22 21:10:42</time>
      </trkpt>
      <trkpt lat="42.65172" lon="1.00043">
        <ele>1886.8</ele>
        <time>2022-05-22 21:10:43</time>
      </trkpt>
      <trkpt lat="42.65171" lon="1.00046">
        <ele>1887</ele>
        <time>2022-05-22 21:10:44</time>
      </trkpt>
      <trkpt lat="42.65171" lon="1.00049">
        <ele>1887.2</ele>
        <time>2022-05-22 21:10:45</time>
      </trkpt>
      <trkpt lat="42.6517" lon="1.00051">
        <ele>1887.2</ele>
        <time>2022-05-22 21:10:46</time>
      </trkpt>
      <trkpt lat="42.6517" lon="1.00055">
        <ele>1887.4</ele>
        <time>2022-05-22 21:10:47</time>
      </trkpt>
      <trkpt lat="42.6517" lon="1.00057">
        <ele>1887.6</ele>
        <time>2022-05-22 21:10:48</time>
      </trkpt>
      <trkpt lat="42.6517" lon="1.0006">
        <ele>1887.8</ele>
        <time>2022-05-22 21:10:49</time>
      </trkpt>
      <trkpt lat="42.65169" lon="1.00063">
        <ele>1888</ele>
        <time>2022-05-22 21:10:50</time>
      </trkpt>
      <trkpt lat="42.65169" lon="1.00065">
        <ele>1888.2</ele>
        <time>2022-05-22 21:10:51</time>
      </trkpt>
      <trkpt lat="42.65169" lon="1.00068">
        <ele>1888.4</ele>
        <time>2022-05-22 21:10:52</time>
      </trkpt>
      <trkpt lat="42.65169" lon="1.00071">
        <ele>1888.4</ele>
        <time>2022-05-22 21:10:53</time>
      </trkpt>
      <trkpt lat="42.65169" lon="1.00074">
        <ele>1888.6</ele>
        <time>2022-05-22 21:10:54</time>
      </trkpt>
      <trkpt lat="42.65169" lon="1.00077">
        <ele>1888.8</ele>
        <time>2022-05-22 21:10:55</time>
      </trkpt>
      <trkpt lat="42.65169" lon="1.00079">
        <ele>1889</ele>
        <time>2022-05-22 21:10:56</time>
      </trkpt>
      <trkpt lat="42.65169" lon="1.00082">
        <ele>1889</ele>
        <time>2022-05-22 21:10:57</time>
      </trkpt>
      <trkpt lat="42.6517" lon="1.00085">
        <ele>1889.2</ele>
        <time>2022-05-22 21:10:58</time>
      </trkpt>
      <trkpt lat="42.6517" lon="1.00088">
        <ele>1889.4</ele>
        <time>2022-05-22 21:10:59</time>
      </trkpt>
      <trkpt lat="42.6517" lon="1.00091">
        <ele>1889.6</ele>
        <time>2022-05-22 21:11:00</time>
      </trkpt>
      <trkpt lat="42.65171" lon="1.00093">
        <ele>1889.8</ele>
        <time>2022-05-22 21:11:01</time>
      </trkpt>
      <trkpt lat="42.65171" lon="1.00096">
        <ele>1889.8</ele>
        <time>2022-05-22 21:11:02</time>
      </trkpt>
      <trkpt lat="42.65172" lon="1.00099">
        <ele>1890</ele>
        <time>2022-05-22 21:11:03</time>
      </trkpt>
      <trkpt lat="42.65173" lon="1.00101">
        <ele>1890.2</ele>
        <time>2022-05-22 21:11:04</time>
      </trkpt>
      <trkpt lat="42.65174" lon="1.00104">
        <ele>1890.2</ele>
        <time>2022-05-22 21:11:05</time>
      </trkpt>
      <trkpt lat="42.65175" lon="1.00106">
        <ele>1890.4</ele>
        <time>2022-05-22 21:11:06</time>
      </trkpt>
      <trkpt lat="42.65176" lon="1.00108">
        <ele>1890.6</ele>
        <time>2022-05-22 21:11:07</time>
      </trkpt>
      <trkpt lat="42.65178" lon="1.0011">
        <ele>1890.8</ele>
        <time>2022-05-22 21:11:08</time>
      </trkpt>
      <trkpt lat="42.6518" lon="1.00111">
        <ele>1890.8</ele>
        <time>2022-05-22 21:11:09</time>
      </trkpt>
      <trkpt lat="42.65182" lon="1.00112">
        <ele>1891</ele>
        <time>2022-05-22 21:11:10</time>
      </trkpt>
      <trkpt lat="42.65184" lon="1.00113">
        <ele>1891.2</ele>
        <time>2022-05-22 21:11:11</time>
      </trkpt>
      <trkpt lat="42.65186" lon="1.00112">
        <ele>1891.4</ele>
        <time>2022-05-22 21:11:12</time>
      </trkpt>
      <trkpt lat="42.65189" lon="1.00112">
        <ele>1891.4</ele>
        <time>2022-05-22 21:11:13</time>
      </trkpt>
      <trkpt lat="42.6519" lon="1.00111">
        <ele>1891.6</ele>
        <time>2022-05-22 21:11:14</time>
      </trkpt>
      <trkpt lat="42.65192" lon="1.0011">
        <ele>1891.8</ele>
        <time>2022-05-22 21:11:15</time>
      </trkpt>
      <trkpt lat="42.65193" lon="1.00109">
        <ele>1891.8</ele>
        <time>2022-05-22 21:11:16</time>
      </trkpt>
      <trkpt lat="42.65195" lon="1.00107">
        <ele>1892</ele>
        <time>2022-05-22 21:11:17</time>
      </trkpt>
      <trkpt lat="42.65196" lon="1.00104">
        <ele>1892</ele>
        <time>2022-05-22 21:11:18</time>
      </trkpt>
      <trkpt lat="42.65198" lon="1.00101">
        <ele>1892.2</ele>
        <time>2022-05-22 21:11:19</time>
      </trkpt>
      <trkpt lat="42.65198" lon="1.00099">
        <ele>1892.4</ele>
        <time>2022-05-22 21:11:20</time>
      </trkpt>
      <trkpt lat="42.65199" lon="1.00097">
        <ele>1892.4</ele>
        <time>2022-05-22 21:11:21</time>
      </trkpt>
      <trkpt lat="42.652" lon="1.00094">
        <ele>1892.6</ele>
        <time>2022-05-22 21:11:22</time>
      </trkpt>
      <trkpt lat="42.65201" lon="1.00092">
        <ele>1892.8</ele>
        <time>2022-05-22 21:11:23</time>
      </trkpt>
      <trkpt lat="42.65202" lon="1.00089">
        <ele>1893</ele>
        <time>2022-05-22 21:11:24</time>
      </trkpt>
      <trkpt lat="42.65203" lon="1.00087">
        <ele>1893</ele>
        <time>2022-05-22 21:11:25</time>
      </trkpt>
      <trkpt lat="42.65204" lon="1.00085">
        <ele>1893.2</ele>
        <time>2022-05-22 21:11:26</time>
      </trkpt>
      <trkpt lat="42.65205" lon="1.00083">
        <ele>1893.2</ele>
        <time>2022-05-22 21:11:27</time>
      </trkpt>
      <trkpt lat="42.65206" lon="1.0008">
        <ele>1893.4</ele>
        <time>2022-05-22 21:11:28</time>
      </trkpt>
      <trkpt lat="42.65206" lon="1.00077">
        <ele>1893.6</ele>
        <time>2022-05-22 21:11:29</time>
      </trkpt>
      <trkpt lat="42.65207" lon="1.00074">
        <ele>1893.6</ele>
        <time>2022-05-22 21:11:30</time>
      </trkpt>
      <trkpt lat="42.65207" lon="1.00072">
        <ele>1893.8</ele>
        <time>2022-05-22 21:11:31</time>
      </trkpt>
      <trkpt lat="42.65207" lon="1.00069">
        <ele>1894</ele>
        <time>2022-05-22 21:11:32</time>
      </trkpt>
      <trkpt lat="42.65208" lon="1.00066">
        <ele>1894.2</ele>
        <time>2022-05-22 21:11:33</time>
      </trkpt>
      <trkpt lat="42.65208" lon="1.00063">
        <ele>1894.4</ele>
        <time>2022-05-22 21:11:34</time>
      </trkpt>
      <trkpt lat="42.65209" lon="1.00061">
        <ele>1894.6</ele>
        <time>2022-05-22 21:11:35</time>
      </trkpt>
      <trkpt lat="42.6521" lon="1.00059">
        <ele>1894.6</ele>
        <time>2022-05-22 21:11:36</time>
      </trkpt>
      <trkpt lat="42.6521" lon="1.00056">
        <ele>1894.8</ele>
        <time>2022-05-22 21:11:37</time>
      </trkpt>
      <trkpt lat="42.65211" lon="1.00053">
        <ele>1895</ele>
        <time>2022-05-22 21:11:38</time>
      </trkpt>
      <trkpt lat="42.65213" lon="1.00051">
        <ele>1895</ele>
        <time>2022-05-22 21:11:39</time>
      </trkpt>
      <trkpt lat="42.65214" lon="1.00049">
        <ele>1895.2</ele>
        <time>2022-05-22 21:11:40</time>
      </trkpt>
      <trkpt lat="42.65214" lon="1.00047">
        <ele>1895.4</ele>
        <time>2022-05-22 21:11:41</time>
      </trkpt>
      <trkpt lat="42.65216" lon="1.00045">
        <ele>1895.4</ele>
        <time>2022-05-22 21:11:42</time>
      </trkpt>
      <trkpt lat="42.65217" lon="1.00042">
        <ele>1895.8</ele>
        <time>2022-05-22 21:11:43</time>
      </trkpt>
      <trkpt lat="42.65218" lon="1.0004">
        <ele>1895.8</ele>
        <time>2022-05-22 21:11:44</time>
      </trkpt>
      <trkpt lat="42.6522" lon="1.00038">
        <ele>1896</ele>
        <time>2022-05-22 21:11:45</time>
      </trkpt>
      <trkpt lat="42.65221" lon="1.00037">
        <ele>1896.2</ele>
        <time>2022-05-22 21:11:46</time>
      </trkpt>
      <trkpt lat="42.65223" lon="1.00035">
        <ele>1896.4</ele>
        <time>2022-05-22 21:11:47</time>
      </trkpt>
      <trkpt lat="42.65225" lon="1.00033">
        <ele>1896.6</ele>
        <time>2022-05-22 21:11:48</time>
      </trkpt>
      <trkpt lat="42.65226" lon="1.00031">
        <ele>1896.8</ele>
        <time>2022-05-22 21:11:49</time>
      </trkpt>
      <trkpt lat="42.65228" lon="1.00029">
        <ele>1896.8</ele>
        <time>2022-05-22 21:11:50</time>
      </trkpt>
      <trkpt lat="42.65229" lon="1.00027">
        <ele>1897</ele>
        <time>2022-05-22 21:11:51</time>
      </trkpt>
      <trkpt lat="42.6523" lon="1.00025">
        <ele>1897.2</ele>
        <time>2022-05-22 21:11:52</time>
      </trkpt>
      <trkpt lat="42.65232" lon="1.00023">
        <ele>1897.4</ele>
        <time>2022-05-22 21:11:53</time>
      </trkpt>
      <trkpt lat="42.65234" lon="1.00022">
        <ele>1897.6</ele>
        <time>2022-05-22 21:11:54</time>
      </trkpt>
      <trkpt lat="42.65235" lon="1.00021">
        <ele>1897.6</ele>
        <time>2022-05-22 21:11:55</time>
      </trkpt>
      <trkpt lat="42.65237" lon="1.0002">
        <ele>1897.8</ele>
        <time>2022-05-22 21:11:56</time>
      </trkpt>
      <trkpt lat="42.65239" lon="1.00019">
        <ele>1898</ele>
        <time>2022-05-22 21:11:57</time>
      </trkpt>
      <trkpt lat="42.65241" lon="1.00018">
        <ele>1898.2</ele>
        <time>2022-05-22 21:11:58</time>
      </trkpt>
      <trkpt lat="42.65243" lon="1.00017">
        <ele>1898.2</ele>
        <time>2022-05-22 21:11:59</time>
      </trkpt>
      <trkpt lat="42.65245" lon="1.00016">
        <ele>1898.4</ele>
        <time>2022-05-22 21:12:00</time>
      </trkpt>
      <trkpt lat="42.65246" lon="1.00015">
        <ele>1898.6</ele>
        <time>2022-05-22 21:12:01</time>
      </trkpt>
      <trkpt lat="42.65248" lon="1.00013">
        <ele>1898.8</ele>
        <time>2022-05-22 21:12:02</time>
      </trkpt>
      <trkpt lat="42.6525" lon="1.00011">
        <ele>1898.8</ele>
        <time>2022-05-22 21:12:03</time>
      </trkpt>
      <trkpt lat="42.65251" lon="1.0001">
        <ele>1899</ele>
        <time>2022-05-22 21:12:04</time>
      </trkpt>
      <trkpt lat="42.65253" lon="1.00008">
        <ele>1899.2</ele>
        <time>2022-05-22 21:12:05</time>
      </trkpt>
      <trkpt lat="42.65254" lon="1.00007">
        <ele>1899.4</ele>
        <time>2022-05-22 21:12:06</time>
      </trkpt>
      <trkpt lat="42.65256" lon="1.00006">
        <ele>1899.4</ele>
        <time>2022-05-22 21:12:07</time>
      </trkpt>
      <trkpt lat="42.65257" lon="1.00005">
        <ele>1899.6</ele>
        <time>2022-05-22 21:12:08</time>
      </trkpt>
      <trkpt lat="42.65259" lon="1.00004">
        <ele>1899.8</ele>
        <time>2022-05-22 21:12:09</time>
      </trkpt>
      <trkpt lat="42.65261" lon="1.00002">
        <ele>1900</ele>
        <time>2022-05-22 21:12:10</time>
      </trkpt>
      <trkpt lat="42.65262" lon="1.00001">
        <ele>1900.2</ele>
        <time>2022-05-22 21:12:11</time>
      </trkpt>
      <trkpt lat="42.65264" lon="1">
        <ele>1900.2</ele>
        <time>2022-05-22 21:12:12</time>
      </trkpt>
      <trkpt lat="42.65266" lon="0.99998">
        <ele>1900.4</ele>
        <time>2022-05-22 21:12:13</time>
      </trkpt>
      <trkpt lat="42.65267" lon="0.99997">
        <ele>1900.6</ele>
        <time>2022-05-22 21:12:14</time>
      </trkpt>
      <trkpt lat="42.65269" lon="0.99996">
        <ele>1900.8</ele>
        <time>2022-05-22 21:12:15</time>
      </trkpt>
      <trkpt lat="42.6527" lon="0.99995">
        <ele>1900.8</ele>
        <time>2022-05-22 21:12:16</time>
      </trkpt>
      <trkpt lat="42.65272" lon="0.99993">
        <ele>1901</ele>
        <time>2022-05-22 21:12:17</time>
      </trkpt>
      <trkpt lat="42.65274" lon="0.99992">
        <ele>1901.2</ele>
        <time>2022-05-22 21:12:18</time>
      </trkpt>
      <trkpt lat="42.65276" lon="0.99991">
        <ele>1901.4</ele>
        <time>2022-05-22 21:12:19</time>
      </trkpt>
      <trkpt lat="42.65277" lon="0.99989">
        <ele>1901.4</ele>
        <time>2022-05-22 21:12:20</time>
      </trkpt>
      <trkpt lat="42.65278" lon="0.99988">
        <ele>1901.6</ele>
        <time>2022-05-22 21:12:21</time>
      </trkpt>
      <trkpt lat="42.6528" lon="0.99986">
        <ele>1901.8</ele>
        <time>2022-05-22 21:12:22</time>
      </trkpt>
      <trkpt lat="42.65282" lon="0.99985">
        <ele>1902</ele>
        <time>2022-05-22 21:12:23</time>
      </trkpt>
      <trkpt lat="42.65283" lon="0.99982">
        <ele>1902</ele>
        <time>2022-05-22 21:12:24</time>
      </trkpt>
      <trkpt lat="42.65284" lon="0.99981">
        <ele>1902.2</ele>
        <time>2022-05-22 21:12:25</time>
      </trkpt>
      <trkpt lat="42.65286" lon="0.9998">
        <ele>1902.4</ele>
        <time>2022-05-22 21:12:26</time>
      </trkpt>
      <trkpt lat="42.65288" lon="0.99978">
        <ele>1902.4</ele>
        <time>2022-05-22 21:12:27</time>
      </trkpt>
      <trkpt lat="42.6529" lon="0.99977">
        <ele>1902.6</ele>
        <time>2022-05-22 21:12:28</time>
      </trkpt>
      <trkpt lat="42.65292" lon="0.99976">
        <ele>1902.8</ele>
        <time>2022-05-22 21:12:29</time>
      </trkpt>
      <trkpt lat="42.65294" lon="0.99976">
        <ele>1903</ele>
        <time>2022-05-22 21:12:30</time>
      </trkpt>
      <trkpt lat="42.65296" lon="0.99975">
        <ele>1903</ele>
        <time>2022-05-22 21:12:31</time>
      </trkpt>
      <trkpt lat="42.65298" lon="0.99974">
        <ele>1903.2</ele>
        <time>2022-05-22 21:12:32</time>
      </trkpt>
      <trkpt lat="42.653" lon="0.99973">
        <ele>1903.4</ele>
        <time>2022-05-22 21:12:33</time>
      </trkpt>
      <trkpt lat="42.65302" lon="0.99972">
        <ele>1903.6</ele>
        <time>2022-05-22 21:12:34</time>
      </trkpt>
      <trkpt lat="42.65304" lon="0.99971">
        <ele>1903.6</ele>
        <time>2022-05-22 21:12:35</time>
      </trkpt>
      <trkpt lat="42.65306" lon="0.9997">
        <ele>1903.8</ele>
        <time>2022-05-22 21:12:36</time>
      </trkpt>
      <trkpt lat="42.65308" lon="0.99968">
        <ele>1904</ele>
        <time>2022-05-22 21:12:37</time>
      </trkpt>
      <trkpt lat="42.65307" lon="0.99971">
        <ele>1904</ele>
        <time>2022-05-22 21:12:38</time>
      </trkpt>
      <trkpt lat="42.65308" lon="0.99971">
        <ele>1904.2</ele>
        <time>2022-05-22 21:12:39</time>
      </trkpt>
      <trkpt lat="42.6531" lon="0.99971">
        <ele>1904.4</ele>
        <time>2022-05-22 21:12:40</time>
      </trkpt>
      <trkpt lat="42.65312" lon="0.9997">
        <ele>1904.6</ele>
        <time>2022-05-22 21:12:41</time>
      </trkpt>
      <trkpt lat="42.65314" lon="0.9997">
        <ele>1904.8</ele>
        <time>2022-05-22 21:12:42</time>
      </trkpt>
      <trkpt lat="42.65308" lon="0.99966">
        <ele>1904.8</ele>
        <time>2022-05-22 21:12:43</time>
      </trkpt>
      <trkpt lat="42.65297" lon="0.9996">
        <ele>1905</ele>
        <time>2022-05-22 21:12:44</time>
      </trkpt>
      <trkpt lat="42.65284" lon="0.99952">
        <ele>1905.2</ele>
        <time>2022-05-22 21:12:45</time>
      </trkpt>
      <trkpt lat="42.65282" lon="0.9995">
        <ele>1905.4</ele>
        <time>2022-05-22 21:12:46</time>
      </trkpt>
      <trkpt lat="42.65293" lon="0.99954">
        <ele>1905.6</ele>
        <time>2022-05-22 21:12:47</time>
      </trkpt>
      <trkpt lat="42.65299" lon="0.99956">
        <ele>1905.6</ele>
        <time>2022-05-22 21:12:48</time>
      </trkpt>
      <trkpt lat="42.65306" lon="0.99959">
        <ele>1905.8</ele>
        <time>2022-05-22 21:12:49</time>
      </trkpt>
      <trkpt lat="42.65309" lon="0.9996">
        <ele>1906</ele>
        <time>2022-05-22 21:12:50</time>
      </trkpt>
      <trkpt lat="42.65314" lon="0.99962">
        <ele>1906.2</ele>
        <time>2022-05-22 21:12:51</time>
      </trkpt>
      <trkpt lat="42.65317" lon="0.99963">
        <ele>1906.4</ele>
        <time>2022-05-22 21:12:52</time>
      </trkpt>
      <trkpt lat="42.65321" lon="0.99964">
        <ele>1906.6</ele>
        <time>2022-05-22 21:12:53</time>
      </trkpt>
      <trkpt lat="42.65324" lon="0.99965">
        <ele>1906.8</ele>
        <time>2022-05-22 21:12:54</time>
      </trkpt>
      <trkpt lat="42.65326" lon="0.99967">
        <ele>1907</ele>
        <time>2022-05-22 21:12:55</time>
      </trkpt>
      <trkpt lat="42.65328" lon="0.99968">
        <ele>1907.2</ele>
        <time>2022-05-22 21:12:56</time>
      </trkpt>
      <trkpt lat="42.65331" lon="0.99969">
        <ele>1907.2</ele>
        <time>2022-05-22 21:12:57</time>
      </trkpt>
      <trkpt lat="42.65333" lon="0.9997">
        <ele>1907.4</ele>
        <time>2022-05-22 21:12:58</time>
      </trkpt>
      <trkpt lat="42.65335" lon="0.99972">
        <ele>1907.6</ele>
        <time>2022-05-22 21:12:59</time>
      </trkpt>
      <trkpt lat="42.65337" lon="0.99974">
        <ele>1907.8</ele>
        <time>2022-05-22 21:13:00</time>
      </trkpt>
      <trkpt lat="42.6534" lon="0.99976">
        <ele>1908</ele>
        <time>2022-05-22 21:13:01</time>
      </trkpt>
      <trkpt lat="42.65342" lon="0.99978">
        <ele>1908</ele>
        <time>2022-05-22 21:13:02</time>
      </trkpt>
      <trkpt lat="42.65344" lon="0.99979">
        <ele>1908.2</ele>
        <time>2022-05-22 21:13:03</time>
      </trkpt>
      <trkpt lat="42.65346" lon="0.99981">
        <ele>1908.4</ele>
        <time>2022-05-22 21:13:04</time>
      </trkpt>
      <trkpt lat="42.65348" lon="0.99982">
        <ele>1908.6</ele>
        <time>2022-05-22 21:13:05</time>
      </trkpt>
      <trkpt lat="42.6535" lon="0.99984">
        <ele>1908.8</ele>
        <time>2022-05-22 21:13:06</time>
      </trkpt>
      <trkpt lat="42.65352" lon="0.99985">
        <ele>1909</ele>
        <time>2022-05-22 21:13:07</time>
      </trkpt>
      <trkpt lat="42.65354" lon="0.99986">
        <ele>1909.2</ele>
        <time>2022-05-22 21:13:08</time>
      </trkpt>
      <trkpt lat="42.65356" lon="0.99988">
        <ele>1909.2</ele>
        <time>2022-05-22 21:13:09</time>
      </trkpt>
      <trkpt lat="42.65358" lon="0.99989">
        <ele>1909.4</ele>
        <time>2022-05-22 21:13:10</time>
      </trkpt>
      <trkpt lat="42.65361" lon="0.99991">
        <ele>1909.6</ele>
        <time>2022-05-22 21:13:11</time>
      </trkpt>
      <trkpt lat="42.65362" lon="0.99992">
        <ele>1909.8</ele>
        <time>2022-05-22 21:13:12</time>
      </trkpt>
      <trkpt lat="42.65364" lon="0.99994">
        <ele>1910</ele>
        <time>2022-05-22 21:13:13</time>
      </trkpt>
      <trkpt lat="42.65366" lon="0.99996">
        <ele>1910</ele>
        <time>2022-05-22 21:13:14</time>
      </trkpt>
      <trkpt lat="42.65368" lon="0.99998">
        <ele>1910.2</ele>
        <time>2022-05-22 21:13:15</time>
      </trkpt>
      <trkpt lat="42.65369" lon="1">
        <ele>1910.4</ele>
        <time>2022-05-22 21:13:16</time>
      </trkpt>
      <trkpt lat="42.65371" lon="1.00001">
        <ele>1910.6</ele>
        <time>2022-05-22 21:13:17</time>
      </trkpt>
      <trkpt lat="42.65373" lon="1.00003">
        <ele>1910.8</ele>
        <time>2022-05-22 21:13:18</time>
      </trkpt>
      <trkpt lat="42.65375" lon="1.00005">
        <ele>1911</ele>
        <time>2022-05-22 21:13:19</time>
      </trkpt>
      <trkpt lat="42.65376" lon="1.00006">
        <ele>1911</ele>
        <time>2022-05-22 21:13:20</time>
      </trkpt>
      <trkpt lat="42.65378" lon="1.00007">
        <ele>1911.2</ele>
        <time>2022-05-22 21:13:21</time>
      </trkpt>
      <trkpt lat="42.6538" lon="1.00009">
        <ele>1911.4</ele>
        <time>2022-05-22 21:13:22</time>
      </trkpt>
      <trkpt lat="42.65382" lon="1.0001">
        <ele>1911.6</ele>
        <time>2022-05-22 21:13:23</time>
      </trkpt>
      <trkpt lat="42.65385" lon="1.00011">
        <ele>1911.8</ele>
        <time>2022-05-22 21:13:24</time>
      </trkpt>
      <trkpt lat="42.65386" lon="1.00012">
        <ele>1911.8</ele>
        <time>2022-05-22 21:13:25</time>
      </trkpt>
      <trkpt lat="42.65388" lon="1.00014">
        <ele>1912</ele>
        <time>2022-05-22 21:13:26</time>
      </trkpt>
      <trkpt lat="42.6539" lon="1.00015">
        <ele>1912.2</ele>
        <time>2022-05-22 21:13:27</time>
      </trkpt>
      <trkpt lat="42.65392" lon="1.00017">
        <ele>1912.4</ele>
        <time>2022-05-22 21:13:28</time>
      </trkpt>
      <trkpt lat="42.65394" lon="1.00018">
        <ele>1912.6</ele>
        <time>2022-05-22 21:13:29</time>
      </trkpt>
      <trkpt lat="42.65395" lon="1.00019">
        <ele>1912.6</ele>
        <time>2022-05-22 21:13:30</time>
      </trkpt>
      <trkpt lat="42.65397" lon="1.00021">
        <ele>1912.8</ele>
        <time>2022-05-22 21:13:31</time>
      </trkpt>
      <trkpt lat="42.65399" lon="1.00023">
        <ele>1913</ele>
        <time>2022-05-22 21:13:32</time>
      </trkpt>
      <trkpt lat="42.654" lon="1.00024">
        <ele>1913.2</ele>
        <time>2022-05-22 21:13:33</time>
      </trkpt>
      <trkpt lat="42.65402" lon="1.00026">
        <ele>1913.2</ele>
        <time>2022-05-22 21:13:34</time>
      </trkpt>
      <trkpt lat="42.65404" lon="1.00027">
        <ele>1913.4</ele>
        <time>2022-05-22 21:13:35</time>
      </trkpt>
      <trkpt lat="42.65405" lon="1.00029">
        <ele>1913.6</ele>
        <time>2022-05-22 21:13:36</time>
      </trkpt>
      <trkpt lat="42.65406" lon="1.00031">
        <ele>1913.8</ele>
        <time>2022-05-22 21:13:37</time>
      </trkpt>
      <trkpt lat="42.65407" lon="1.00033">
        <ele>1914</ele>
        <time>2022-05-22 21:13:38</time>
      </trkpt>
      <trkpt lat="42.65408" lon="1.00035">
        <ele>1914.2</ele>
        <time>2022-05-22 21:13:39</time>
      </trkpt>
      <trkpt lat="42.65408" lon="1.00037">
        <ele>1914.4</ele>
        <time>2022-05-22 21:13:40</time>
      </trkpt>
      <trkpt lat="42.65409" lon="1.0004">
        <ele>1914.4</ele>
        <time>2022-05-22 21:13:41</time>
      </trkpt>
      <trkpt lat="42.65409" lon="1.00043">
        <ele>1914.6</ele>
        <time>2022-05-22 21:13:42</time>
      </trkpt>
      <trkpt lat="42.65409" lon="1.00045">
        <ele>1914.8</ele>
        <time>2022-05-22 21:13:43</time>
      </trkpt>
      <trkpt lat="42.65408" lon="1.00048">
        <ele>1915</ele>
        <time>2022-05-22 21:13:44</time>
      </trkpt>
      <trkpt lat="42.65407" lon="1.0005">
        <ele>1915.2</ele>
        <time>2022-05-22 21:13:45</time>
      </trkpt>
      <trkpt lat="42.65407" lon="1.00052">
        <ele>1915.4</ele>
        <time>2022-05-22 21:13:46</time>
      </trkpt>
      <trkpt lat="42.65406" lon="1.00054">
        <ele>1915.4</ele>
        <time>2022-05-22 21:13:47</time>
      </trkpt>
      <trkpt lat="42.65405" lon="1.00056">
        <ele>1915.6</ele>
        <time>2022-05-22 21:13:48</time>
      </trkpt>
      <trkpt lat="42.65404" lon="1.00058">
        <ele>1915.8</ele>
        <time>2022-05-22 21:13:49</time>
      </trkpt>
      <trkpt lat="42.65402" lon="1.0006">
        <ele>1916</ele>
        <time>2022-05-22 21:13:50</time>
      </trkpt>
      <trkpt lat="42.65401" lon="1.00062">
        <ele>1916.2</ele>
        <time>2022-05-22 21:13:51</time>
      </trkpt>
      <trkpt lat="42.654" lon="1.00063">
        <ele>1916.4</ele>
        <time>2022-05-22 21:13:52</time>
      </trkpt>
      <trkpt lat="42.65398" lon="1.00064">
        <ele>1916.6</ele>
        <time>2022-05-22 21:13:53</time>
      </trkpt>
      <trkpt lat="42.65396" lon="1.00065">
        <ele>1916.8</ele>
        <time>2022-05-22 21:13:54</time>
      </trkpt>
      <trkpt lat="42.65395" lon="1.00066">
        <ele>1917</ele>
        <time>2022-05-22 21:13:55</time>
      </trkpt>
      <trkpt lat="42.65393" lon="1.00066">
        <ele>1917.2</ele>
        <time>2022-05-22 21:13:56</time>
      </trkpt>
      <trkpt lat="42.65391" lon="1.00067">
        <ele>1917.2</ele>
        <time>2022-05-22 21:13:57</time>
      </trkpt>
      <trkpt lat="42.65389" lon="1.00068">
        <ele>1917.4</ele>
        <time>2022-05-22 21:13:58</time>
      </trkpt>
      <trkpt lat="42.65388" lon="1.00069">
        <ele>1917.6</ele>
        <time>2022-05-22 21:13:59</time>
      </trkpt>
      <trkpt lat="42.65386" lon="1.00069">
        <ele>1917.8</ele>
        <time>2022-05-22 21:14:00</time>
      </trkpt>
      <trkpt lat="42.65384" lon="1.0007">
        <ele>1918</ele>
        <time>2022-05-22 21:14:01</time>
      </trkpt>
      <trkpt lat="42.65382" lon="1.00071">
        <ele>1918.2</ele>
        <time>2022-05-22 21:14:02</time>
      </trkpt>
      <trkpt lat="42.65381" lon="1.00072">
        <ele>1918.4</ele>
        <time>2022-05-22 21:14:03</time>
      </trkpt>
      <trkpt lat="42.65379" lon="1.00073">
        <ele>1918.4</ele>
        <time>2022-05-22 21:14:04</time>
      </trkpt>
      <trkpt lat="42.65378" lon="1.00074">
        <ele>1918.6</ele>
        <time>2022-05-22 21:14:05</time>
      </trkpt>
      <trkpt lat="42.65376" lon="1.00076">
        <ele>1918.8</ele>
        <time>2022-05-22 21:14:06</time>
      </trkpt>
      <trkpt lat="42.65374" lon="1.00077">
        <ele>1918.8</ele>
        <time>2022-05-22 21:14:07</time>
      </trkpt>
      <trkpt lat="42.65373" lon="1.00079">
        <ele>1919</ele>
        <time>2022-05-22 21:14:08</time>
      </trkpt>
      <trkpt lat="42.65372" lon="1.0008">
        <ele>1919</ele>
        <time>2022-05-22 21:14:09</time>
      </trkpt>
      <trkpt lat="42.65371" lon="1.00083">
        <ele>1919.2</ele>
        <time>2022-05-22 21:14:10</time>
      </trkpt>
      <trkpt lat="42.65371" lon="1.00086">
        <ele>1919.4</ele>
        <time>2022-05-22 21:14:11</time>
      </trkpt>
      <trkpt lat="42.65371" lon="1.00089">
        <ele>1919.4</ele>
        <time>2022-05-22 21:14:12</time>
      </trkpt>
      <trkpt lat="42.65371" lon="1.00091">
        <ele>1919.6</ele>
        <time>2022-05-22 21:14:13</time>
      </trkpt>
      <trkpt lat="42.65371" lon="1.00094">
        <ele>1919.8</ele>
        <time>2022-05-22 21:14:14</time>
      </trkpt>
      <trkpt lat="42.65371" lon="1.00096">
        <ele>1920</ele>
        <time>2022-05-22 21:14:15</time>
      </trkpt>
      <trkpt lat="42.65371" lon="1.00099">
        <ele>1920</ele>
        <time>2022-05-22 21:14:16</time>
      </trkpt>
      <trkpt lat="42.65372" lon="1.00102">
        <ele>1920.2</ele>
        <time>2022-05-22 21:14:17</time>
      </trkpt>
      <trkpt lat="42.65373" lon="1.00104">
        <ele>1920.4</ele>
        <time>2022-05-22 21:14:18</time>
      </trkpt>
      <trkpt lat="42.65374" lon="1.00106">
        <ele>1920.6</ele>
        <time>2022-05-22 21:14:19</time>
      </trkpt>
      <trkpt lat="42.65375" lon="1.00108">
        <ele>1920.8</ele>
        <time>2022-05-22 21:14:20</time>
      </trkpt>
      <trkpt lat="42.65376" lon="1.0011">
        <ele>1921</ele>
        <time>2022-05-22 21:14:21</time>
      </trkpt>
      <trkpt lat="42.65378" lon="1.00111">
        <ele>1921.2</ele>
        <time>2022-05-22 21:14:22</time>
      </trkpt>
      <trkpt lat="42.6538" lon="1.00113">
        <ele>1921.4</ele>
        <time>2022-05-22 21:14:23</time>
      </trkpt>
      <trkpt lat="42.65381" lon="1.00114">
        <ele>1921.4</ele>
        <time>2022-05-22 21:14:24</time>
      </trkpt>
      <trkpt lat="42.65384" lon="1.00115">
        <ele>1921.6</ele>
        <time>2022-05-22 21:14:25</time>
      </trkpt>
      <trkpt lat="42.65386" lon="1.00116">
        <ele>1921.8</ele>
        <time>2022-05-22 21:14:26</time>
      </trkpt>
      <trkpt lat="42.65388" lon="1.00117">
        <ele>1922</ele>
        <time>2022-05-22 21:14:27</time>
      </trkpt>
      <trkpt lat="42.6539" lon="1.00117">
        <ele>1922.2</ele>
        <time>2022-05-22 21:14:28</time>
      </trkpt>
      <trkpt lat="42.65392" lon="1.00117">
        <ele>1922.2</ele>
        <time>2022-05-22 21:14:29</time>
      </trkpt>
      <trkpt lat="42.65395" lon="1.00117">
        <ele>1922.4</ele>
        <time>2022-05-22 21:14:30</time>
      </trkpt>
      <trkpt lat="42.65397" lon="1.00117">
        <ele>1922.6</ele>
        <time>2022-05-22 21:14:31</time>
      </trkpt>
      <trkpt lat="42.65399" lon="1.00117">
        <ele>1922.6</ele>
        <time>2022-05-22 21:14:32</time>
      </trkpt>
      <trkpt lat="42.65401" lon="1.00116">
        <ele>1922.8</ele>
        <time>2022-05-22 21:14:33</time>
      </trkpt>
      <trkpt lat="42.65403" lon="1.00116">
        <ele>1923</ele>
        <time>2022-05-22 21:14:34</time>
      </trkpt>
      <trkpt lat="42.65405" lon="1.00116">
        <ele>1923.2</ele>
        <time>2022-05-22 21:14:35</time>
      </trkpt>
      <trkpt lat="42.65408" lon="1.00116">
        <ele>1923.4</ele>
        <time>2022-05-22 21:14:36</time>
      </trkpt>
      <trkpt lat="42.6541" lon="1.00116">
        <ele>1923.4</ele>
        <time>2022-05-22 21:14:37</time>
      </trkpt>
      <trkpt lat="42.65412" lon="1.00116">
        <ele>1923.6</ele>
        <time>2022-05-22 21:14:38</time>
      </trkpt>
      <trkpt lat="42.65414" lon="1.00116">
        <ele>1923.8</ele>
        <time>2022-05-22 21:14:39</time>
      </trkpt>
      <trkpt lat="42.65417" lon="1.00116">
        <ele>1924</ele>
        <time>2022-05-22 21:14:40</time>
      </trkpt>
      <trkpt lat="42.6542" lon="1.00116">
        <ele>1924</ele>
        <time>2022-05-22 21:14:41</time>
      </trkpt>
      <trkpt lat="42.65422" lon="1.00117">
        <ele>1924.2</ele>
        <time>2022-05-22 21:14:42</time>
      </trkpt>
      <trkpt lat="42.65424" lon="1.00117">
        <ele>1924.4</ele>
        <time>2022-05-22 21:14:43</time>
      </trkpt>
      <trkpt lat="42.65427" lon="1.00119">
        <ele>1924.6</ele>
        <time>2022-05-22 21:14:44</time>
      </trkpt>
      <trkpt lat="42.65428" lon="1.0012">
        <ele>1924.8</ele>
        <time>2022-05-22 21:14:45</time>
      </trkpt>
      <trkpt lat="42.6543" lon="1.00122">
        <ele>1925</ele>
        <time>2022-05-22 21:14:46</time>
      </trkpt>
      <trkpt lat="42.65432" lon="1.00124">
        <ele>1925.2</ele>
        <time>2022-05-22 21:14:47</time>
      </trkpt>
      <trkpt lat="42.65433" lon="1.00126">
        <ele>1925.4</ele>
        <time>2022-05-22 21:14:48</time>
      </trkpt>
      <trkpt lat="42.65434" lon="1.00129">
        <ele>1925.4</ele>
        <time>2022-05-22 21:14:49</time>
      </trkpt>
      <trkpt lat="42.65435" lon="1.00132">
        <ele>1925.6</ele>
        <time>2022-05-22 21:14:50</time>
      </trkpt>
      <trkpt lat="42.65436" lon="1.00135">
        <ele>1925.8</ele>
        <time>2022-05-22 21:14:51</time>
      </trkpt>
      <trkpt lat="42.65437" lon="1.00138">
        <ele>1926</ele>
        <time>2022-05-22 21:14:52</time>
      </trkpt>
      <trkpt lat="42.65437" lon="1.00141">
        <ele>1926.2</ele>
        <time>2022-05-22 21:14:53</time>
      </trkpt>
      <trkpt lat="42.65437" lon="1.00144">
        <ele>1926.4</ele>
        <time>2022-05-22 21:14:54</time>
      </trkpt>
      <trkpt lat="42.65437" lon="1.00148">
        <ele>1926.4</ele>
        <time>2022-05-22 21:14:55</time>
      </trkpt>
      <trkpt lat="42.65437" lon="1.00152">
        <ele>1926.6</ele>
        <time>2022-05-22 21:14:56</time>
      </trkpt>
      <trkpt lat="42.65436" lon="1.00156">
        <ele>1926.8</ele>
        <time>2022-05-22 21:14:57</time>
      </trkpt>
      <trkpt lat="42.65435" lon="1.00159">
        <ele>1927</ele>
        <time>2022-05-22 21:14:58</time>
      </trkpt>
      <trkpt lat="42.65434" lon="1.00162">
        <ele>1927</ele>
        <time>2022-05-22 21:14:59</time>
      </trkpt>
      <trkpt lat="42.65433" lon="1.00166">
        <ele>1927.2</ele>
        <time>2022-05-22 21:15:00</time>
      </trkpt>
      <trkpt lat="42.65431" lon="1.00169">
        <ele>1927.4</ele>
        <time>2022-05-22 21:15:01</time>
      </trkpt>
      <trkpt lat="42.6543" lon="1.00172">
        <ele>1927.4</ele>
        <time>2022-05-22 21:15:02</time>
      </trkpt>
      <trkpt lat="42.65429" lon="1.00175">
        <ele>1927.6</ele>
        <time>2022-05-22 21:15:03</time>
      </trkpt>
      <trkpt lat="42.65428" lon="1.00178">
        <ele>1927.6</ele>
        <time>2022-05-22 21:15:04</time>
      </trkpt>
      <trkpt lat="42.65427" lon="1.00182">
        <ele>1927.8</ele>
        <time>2022-05-22 21:15:05</time>
      </trkpt>
      <trkpt lat="42.65426" lon="1.00184">
        <ele>1927.8</ele>
        <time>2022-05-22 21:15:06</time>
      </trkpt>
      <trkpt lat="42.65425" lon="1.00188">
        <ele>1928</ele>
        <time>2022-05-22 21:15:07</time>
      </trkpt>
      <trkpt lat="42.65423" lon="1.00191">
        <ele>1928.2</ele>
        <time>2022-05-22 21:15:08</time>
      </trkpt>
      <trkpt lat="42.65422" lon="1.00194">
        <ele>1928.2</ele>
        <time>2022-05-22 21:15:09</time>
      </trkpt>
      <trkpt lat="42.65422" lon="1.00196">
        <ele>1928.4</ele>
        <time>2022-05-22 21:15:10</time>
      </trkpt>
      <trkpt lat="42.65421" lon="1.00199">
        <ele>1928.6</ele>
        <time>2022-05-22 21:15:11</time>
      </trkpt>
      <trkpt lat="42.6542" lon="1.00203">
        <ele>1928.8</ele>
        <time>2022-05-22 21:15:12</time>
      </trkpt>
      <trkpt lat="42.6542" lon="1.00206">
        <ele>1929</ele>
        <time>2022-05-22 21:15:13</time>
      </trkpt>
      <trkpt lat="42.6542" lon="1.00209">
        <ele>1929.2</ele>
        <time>2022-05-22 21:15:14</time>
      </trkpt>
      <trkpt lat="42.6542" lon="1.00212">
        <ele>1929.4</ele>
        <time>2022-05-22 21:15:15</time>
      </trkpt>
      <trkpt lat="42.6542" lon="1.00216">
        <ele>1929.6</ele>
        <time>2022-05-22 21:15:16</time>
      </trkpt>
      <trkpt lat="42.65421" lon="1.00219">
        <ele>1929.8</ele>
        <time>2022-05-22 21:15:17</time>
      </trkpt>
      <trkpt lat="42.65422" lon="1.00221">
        <ele>1930</ele>
        <time>2022-05-22 21:15:18</time>
      </trkpt>
      <trkpt lat="42.65424" lon="1.00223">
        <ele>1930.2</ele>
        <time>2022-05-22 21:15:19</time>
      </trkpt>
      <trkpt lat="42.65427" lon="1.00225">
        <ele>1930.4</ele>
        <time>2022-05-22 21:15:20</time>
      </trkpt>
      <trkpt lat="42.65428" lon="1.00226">
        <ele>1930.6</ele>
        <time>2022-05-22 21:15:21</time>
      </trkpt>
      <trkpt lat="42.65431" lon="1.00227">
        <ele>1930.8</ele>
        <time>2022-05-22 21:15:22</time>
      </trkpt>
      <trkpt lat="42.65433" lon="1.00226">
        <ele>1931</ele>
        <time>2022-05-22 21:15:23</time>
      </trkpt>
      <trkpt lat="42.65436" lon="1.00225">
        <ele>1931.2</ele>
        <time>2022-05-22 21:15:24</time>
      </trkpt>
      <trkpt lat="42.65437" lon="1.00224">
        <ele>1931.2</ele>
        <time>2022-05-22 21:15:25</time>
      </trkpt>
      <trkpt lat="42.65439" lon="1.00222">
        <ele>1931.4</ele>
        <time>2022-05-22 21:15:26</time>
      </trkpt>
      <trkpt lat="42.65441" lon="1.00219">
        <ele>1931.6</ele>
        <time>2022-05-22 21:15:27</time>
      </trkpt>
      <trkpt lat="42.65442" lon="1.00216">
        <ele>1931.6</ele>
        <time>2022-05-22 21:15:28</time>
      </trkpt>
      <trkpt lat="42.65443" lon="1.00212">
        <ele>1931.8</ele>
        <time>2022-05-22 21:15:29</time>
      </trkpt>
      <trkpt lat="42.65444" lon="1.0021">
        <ele>1931.8</ele>
        <time>2022-05-22 21:15:30</time>
      </trkpt>
      <trkpt lat="42.65445" lon="1.00206">
        <ele>1932</ele>
        <time>2022-05-22 21:15:31</time>
      </trkpt>
      <trkpt lat="42.65446" lon="1.00203">
        <ele>1932</ele>
        <time>2022-05-22 21:15:32</time>
      </trkpt>
      <trkpt lat="42.65446" lon="1.00199">
        <ele>1932.2</ele>
        <time>2022-05-22 21:15:33</time>
      </trkpt>
      <trkpt lat="42.65447" lon="1.00197">
        <ele>1932.4</ele>
        <time>2022-05-22 21:15:34</time>
      </trkpt>
      <trkpt lat="42.65448" lon="1.00193">
        <ele>1932.4</ele>
        <time>2022-05-22 21:15:35</time>
      </trkpt>
      <trkpt lat="42.65449" lon="1.0019">
        <ele>1932.6</ele>
        <time>2022-05-22 21:15:36</time>
      </trkpt>
      <trkpt lat="42.6545" lon="1.00187">
        <ele>1932.6</ele>
        <time>2022-05-22 21:15:37</time>
      </trkpt>
      <trkpt lat="42.65451" lon="1.00184">
        <ele>1932.8</ele>
        <time>2022-05-22 21:15:38</time>
      </trkpt>
      <trkpt lat="42.65452" lon="1.00181">
        <ele>1932.8</ele>
        <time>2022-05-22 21:15:39</time>
      </trkpt>
      <trkpt lat="42.65453" lon="1.00177">
        <ele>1933</ele>
        <time>2022-05-22 21:15:40</time>
      </trkpt>
      <trkpt lat="42.65454" lon="1.00174">
        <ele>1933.2</ele>
        <time>2022-05-22 21:15:41</time>
      </trkpt>
      <trkpt lat="42.65455" lon="1.00172">
        <ele>1933.2</ele>
        <time>2022-05-22 21:15:42</time>
      </trkpt>
      <trkpt lat="42.65456" lon="1.00169">
        <ele>1933.4</ele>
        <time>2022-05-22 21:15:43</time>
      </trkpt>
      <trkpt lat="42.65457" lon="1.00165">
        <ele>1933.6</ele>
        <time>2022-05-22 21:15:44</time>
      </trkpt>
      <trkpt lat="42.65458" lon="1.00163">
        <ele>1933.8</ele>
        <time>2022-05-22 21:15:45</time>
      </trkpt>
      <trkpt lat="42.65459" lon="1.0016">
        <ele>1933.8</ele>
        <time>2022-05-22 21:15:46</time>
      </trkpt>
      <trkpt lat="42.65461" lon="1.00158">
        <ele>1934</ele>
        <time>2022-05-22 21:15:47</time>
      </trkpt>
      <trkpt lat="42.65463" lon="1.00155">
        <ele>1934.2</ele>
        <time>2022-05-22 21:15:48</time>
      </trkpt>
      <trkpt lat="42.65466" lon="1.00153">
        <ele>1934.2</ele>
        <time>2022-05-22 21:15:49</time>
      </trkpt>
      <trkpt lat="42.65467" lon="1.00151">
        <ele>1934.4</ele>
        <time>2022-05-22 21:15:50</time>
      </trkpt>
      <trkpt lat="42.6547" lon="1.00149">
        <ele>1934.4</ele>
        <time>2022-05-22 21:15:51</time>
      </trkpt>
      <trkpt lat="42.65472" lon="1.00147">
        <ele>1934.6</ele>
        <time>2022-05-22 21:15:52</time>
      </trkpt>
      <trkpt lat="42.65474" lon="1.00145">
        <ele>1934.8</ele>
        <time>2022-05-22 21:15:53</time>
      </trkpt>
      <trkpt lat="42.65476" lon="1.00144">
        <ele>1935</ele>
        <time>2022-05-22 21:15:54</time>
      </trkpt>
      <trkpt lat="42.65478" lon="1.00141">
        <ele>1935.2</ele>
        <time>2022-05-22 21:15:55</time>
      </trkpt>
      <trkpt lat="42.65481" lon="1.00139">
        <ele>1935.4</ele>
        <time>2022-05-22 21:15:56</time>
      </trkpt>
      <trkpt lat="42.65483" lon="1.00137">
        <ele>1935.6</ele>
        <time>2022-05-22 21:15:57</time>
      </trkpt>
      <trkpt lat="42.65484" lon="1.00136">
        <ele>1936</ele>
        <time>2022-05-22 21:15:58</time>
      </trkpt>
      <trkpt lat="42.65487" lon="1.00133">
        <ele>1936</ele>
        <time>2022-05-22 21:15:59</time>
      </trkpt>
      <trkpt lat="42.65489" lon="1.00131">
        <ele>1936.2</ele>
        <time>2022-05-22 21:16:00</time>
      </trkpt>
      <trkpt lat="42.65491" lon="1.00129">
        <ele>1936.4</ele>
        <time>2022-05-22 21:16:01</time>
      </trkpt>
      <trkpt lat="42.65493" lon="1.00127">
        <ele>1936.4</ele>
        <time>2022-05-22 21:16:02</time>
      </trkpt>
      <trkpt lat="42.65495" lon="1.00125">
        <ele>1936.6</ele>
        <time>2022-05-22 21:16:03</time>
      </trkpt>
      <trkpt lat="42.65498" lon="1.00123">
        <ele>1936.8</ele>
        <time>2022-05-22 21:16:04</time>
      </trkpt>
      <trkpt lat="42.655" lon="1.00121">
        <ele>1937</ele>
        <time>2022-05-22 21:16:05</time>
      </trkpt>
      <trkpt lat="42.65502" lon="1.0012">
        <ele>1937.2</ele>
        <time>2022-05-22 21:16:06</time>
      </trkpt>
      <trkpt lat="42.65504" lon="1.00118">
        <ele>1937.4</ele>
        <time>2022-05-22 21:16:07</time>
      </trkpt>
      <trkpt lat="42.65506" lon="1.00115">
        <ele>1937.4</ele>
        <time>2022-05-22 21:16:08</time>
      </trkpt>
      <trkpt lat="42.65508" lon="1.00113">
        <ele>1937.6</ele>
        <time>2022-05-22 21:16:09</time>
      </trkpt>
      <trkpt lat="42.6551" lon="1.00112">
        <ele>1937.8</ele>
        <time>2022-05-22 21:16:10</time>
      </trkpt>
      <trkpt lat="42.65512" lon="1.00109">
        <ele>1938</ele>
        <time>2022-05-22 21:16:11</time>
      </trkpt>
      <trkpt lat="42.65515" lon="1.00108">
        <ele>1938.2</ele>
        <time>2022-05-22 21:16:12</time>
      </trkpt>
      <trkpt lat="42.65517" lon="1.00106">
        <ele>1938.4</ele>
        <time>2022-05-22 21:16:13</time>
      </trkpt>
      <trkpt lat="42.65519" lon="1.00104">
        <ele>1938.6</ele>
        <time>2022-05-22 21:16:14</time>
      </trkpt>
      <trkpt lat="42.65521" lon="1.00102">
        <ele>1938.8</ele>
        <time>2022-05-22 21:16:15</time>
      </trkpt>
      <trkpt lat="42.65523" lon="1.001">
        <ele>1939</ele>
        <time>2022-05-22 21:16:16</time>
      </trkpt>
      <trkpt lat="42.65526" lon="1.00099">
        <ele>1939.2</ele>
        <time>2022-05-22 21:16:17</time>
      </trkpt>
      <trkpt lat="42.65528" lon="1.00097">
        <ele>1939.4</ele>
        <time>2022-05-22 21:16:18</time>
      </trkpt>
      <trkpt lat="42.6553" lon="1.00096">
        <ele>1939.6</ele>
        <time>2022-05-22 21:16:19</time>
      </trkpt>
      <trkpt lat="42.65533" lon="1.00094">
        <ele>1939.8</ele>
        <time>2022-05-22 21:16:20</time>
      </trkpt>
      <trkpt lat="42.65535" lon="1.00093">
        <ele>1940</ele>
        <time>2022-05-22 21:16:21</time>
      </trkpt>
      <trkpt lat="42.65536" lon="1.00091">
        <ele>1940.2</ele>
        <time>2022-05-22 21:16:22</time>
      </trkpt>
      <trkpt lat="42.65539" lon="1.0009">
        <ele>1940.2</ele>
        <time>2022-05-22 21:16:23</time>
      </trkpt>
      <trkpt lat="42.65541" lon="1.00088">
        <ele>1940.4</ele>
        <time>2022-05-22 21:16:24</time>
      </trkpt>
      <trkpt lat="42.65543" lon="1.00086">
        <ele>1940.6</ele>
        <time>2022-05-22 21:16:25</time>
      </trkpt>
      <trkpt lat="42.65545" lon="1.00084">
        <ele>1940.8</ele>
        <time>2022-05-22 21:16:26</time>
      </trkpt>
      <trkpt lat="42.65547" lon="1.00082">
        <ele>1941</ele>
        <time>2022-05-22 21:16:27</time>
      </trkpt>
      <trkpt lat="42.65549" lon="1.0008">
        <ele>1941</ele>
        <time>2022-05-22 21:16:28</time>
      </trkpt>
      <trkpt lat="42.65552" lon="1.00078">
        <ele>1941.2</ele>
        <time>2022-05-22 21:16:29</time>
      </trkpt>
      <trkpt lat="42.65554" lon="1.00076">
        <ele>1941.4</ele>
        <time>2022-05-22 21:16:30</time>
      </trkpt>
      <trkpt lat="42.65556" lon="1.00074">
        <ele>1941.6</ele>
        <time>2022-05-22 21:16:31</time>
      </trkpt>
      <trkpt lat="42.65558" lon="1.00073">
        <ele>1941.8</ele>
        <time>2022-05-22 21:16:32</time>
      </trkpt>
      <trkpt lat="42.6556" lon="1.00071">
        <ele>1942</ele>
        <time>2022-05-22 21:16:33</time>
      </trkpt>
      <trkpt lat="42.65562" lon="1.00069">
        <ele>1942.2</ele>
        <time>2022-05-22 21:16:34</time>
      </trkpt>
      <trkpt lat="42.65564" lon="1.00067">
        <ele>1942.4</ele>
        <time>2022-05-22 21:16:35</time>
      </trkpt>
      <trkpt lat="42.65566" lon="1.00065">
        <ele>1942.6</ele>
        <time>2022-05-22 21:16:36</time>
      </trkpt>
      <trkpt lat="42.65568" lon="1.00063">
        <ele>1942.6</ele>
        <time>2022-05-22 21:16:37</time>
      </trkpt>
      <trkpt lat="42.65569" lon="1.00061">
        <ele>1942.8</ele>
        <time>2022-05-22 21:16:38</time>
      </trkpt>
      <trkpt lat="42.65571" lon="1.00058">
        <ele>1943</ele>
        <time>2022-05-22 21:16:39</time>
      </trkpt>
      <trkpt lat="42.65573" lon="1.00056">
        <ele>1943.2</ele>
        <time>2022-05-22 21:16:40</time>
      </trkpt>
      <trkpt lat="42.65575" lon="1.00055">
        <ele>1943.4</ele>
        <time>2022-05-22 21:16:41</time>
      </trkpt>
      <trkpt lat="42.65577" lon="1.00054">
        <ele>1943.4</ele>
        <time>2022-05-22 21:16:42</time>
      </trkpt>
      <trkpt lat="42.65578" lon="1.00052">
        <ele>1943.6</ele>
        <time>2022-05-22 21:16:43</time>
      </trkpt>
      <trkpt lat="42.6558" lon="1.0005">
        <ele>1943.8</ele>
        <time>2022-05-22 21:16:44</time>
      </trkpt>
      <trkpt lat="42.65582" lon="1.00048">
        <ele>1944</ele>
        <time>2022-05-22 21:16:45</time>
      </trkpt>
      <trkpt lat="42.65584" lon="1.00046">
        <ele>1944.2</ele>
        <time>2022-05-22 21:16:46</time>
      </trkpt>
      <trkpt lat="42.65586" lon="1.00045">
        <ele>1944.2</ele>
        <time>2022-05-22 21:16:47</time>
      </trkpt>
      <trkpt lat="42.65587" lon="1.00043">
        <ele>1944.4</ele>
        <time>2022-05-22 21:16:48</time>
      </trkpt>
      <trkpt lat="42.65589" lon="1.00041">
        <ele>1944.6</ele>
        <time>2022-05-22 21:16:49</time>
      </trkpt>
      <trkpt lat="42.6559" lon="1.00039">
        <ele>1944.8</ele>
        <time>2022-05-22 21:16:50</time>
      </trkpt>
      <trkpt lat="42.65592" lon="1.00037">
        <ele>1945</ele>
        <time>2022-05-22 21:16:51</time>
      </trkpt>
      <trkpt lat="42.65593" lon="1.00035">
        <ele>1945.2</ele>
        <time>2022-05-22 21:16:52</time>
      </trkpt>
      <trkpt lat="42.65595" lon="1.00033">
        <ele>1945.2</ele>
        <time>2022-05-22 21:16:53</time>
      </trkpt>
      <trkpt lat="42.65597" lon="1.00031">
        <ele>1945.4</ele>
        <time>2022-05-22 21:16:54</time>
      </trkpt>
      <trkpt lat="42.65598" lon="1.00029">
        <ele>1945.4</ele>
        <time>2022-05-22 21:16:55</time>
      </trkpt>
      <trkpt lat="42.656" lon="1.00027">
        <ele>1945.6</ele>
        <time>2022-05-22 21:16:56</time>
      </trkpt>
      <trkpt lat="42.65601" lon="1.00025">
        <ele>1945.8</ele>
        <time>2022-05-22 21:16:57</time>
      </trkpt>
      <trkpt lat="42.65603" lon="1.00024">
        <ele>1945.8</ele>
        <time>2022-05-22 21:16:58</time>
      </trkpt>
      <trkpt lat="42.65605" lon="1.00021">
        <ele>1946</ele>
        <time>2022-05-22 21:16:59</time>
      </trkpt>
      <trkpt lat="42.65606" lon="1.00019">
        <ele>1946.2</ele>
        <time>2022-05-22 21:17:00</time>
      </trkpt>
      <trkpt lat="42.65608" lon="1.00017">
        <ele>1946.4</ele>
        <time>2022-05-22 21:17:01</time>
      </trkpt>
      <trkpt lat="42.6561" lon="1.00016">
        <ele>1946.4</ele>
        <time>2022-05-22 21:17:02</time>
      </trkpt>
      <trkpt lat="42.65612" lon="1.00014">
        <ele>1946.6</ele>
        <time>2022-05-22 21:17:03</time>
      </trkpt>
      <trkpt lat="42.65614" lon="1.00011">
        <ele>1946.8</ele>
        <time>2022-05-22 21:17:04</time>
      </trkpt>
      <trkpt lat="42.65616" lon="1.0001">
        <ele>1947</ele>
        <time>2022-05-22 21:17:05</time>
      </trkpt>
      <trkpt lat="42.65617" lon="1.00008">
        <ele>1947.2</ele>
        <time>2022-05-22 21:17:06</time>
      </trkpt>
      <trkpt lat="42.65619" lon="1.00006">
        <ele>1947.4</ele>
        <time>2022-05-22 21:17:07</time>
      </trkpt>
      <trkpt lat="42.65621" lon="1.00004">
        <ele>1947.4</ele>
        <time>2022-05-22 21:17:08</time>
      </trkpt>
      <trkpt lat="42.65623" lon="1.00002">
        <ele>1947.6</ele>
        <time>2022-05-22 21:17:09</time>
      </trkpt>
      <trkpt lat="42.65624" lon="1">
        <ele>1947.8</ele>
        <time>2022-05-22 21:17:10</time>
      </trkpt>
      <trkpt lat="42.65626" lon="0.99998">
        <ele>1948</ele>
        <time>2022-05-22 21:17:11</time>
      </trkpt>
      <trkpt lat="42.65628" lon="0.99995">
        <ele>1948.2</ele>
        <time>2022-05-22 21:17:12</time>
      </trkpt>
      <trkpt lat="42.6563" lon="0.99993">
        <ele>1948.4</ele>
        <time>2022-05-22 21:17:13</time>
      </trkpt>
      <trkpt lat="42.65631" lon="0.99991">
        <ele>1948.6</ele>
        <time>2022-05-22 21:17:14</time>
      </trkpt>
      <trkpt lat="42.65633" lon="0.99988">
        <ele>1948.8</ele>
        <time>2022-05-22 21:17:15</time>
      </trkpt>
      <trkpt lat="42.65634" lon="0.99986">
        <ele>1949</ele>
        <time>2022-05-22 21:17:16</time>
      </trkpt>
      <trkpt lat="42.65636" lon="0.99984">
        <ele>1949.2</ele>
        <time>2022-05-22 21:17:17</time>
      </trkpt>
      <trkpt lat="42.65638" lon="0.99982">
        <ele>1949.4</ele>
        <time>2022-05-22 21:17:18</time>
      </trkpt>
      <trkpt lat="42.65639" lon="0.9998">
        <ele>1949.6</ele>
        <time>2022-05-22 21:17:19</time>
      </trkpt>
      <trkpt lat="42.65641" lon="0.99978">
        <ele>1949.6</ele>
        <time>2022-05-22 21:17:20</time>
      </trkpt>
      <trkpt lat="42.65643" lon="0.99976">
        <ele>1949.8</ele>
        <time>2022-05-22 21:17:21</time>
      </trkpt>
      <trkpt lat="42.65645" lon="0.99975">
        <ele>1950</ele>
        <time>2022-05-22 21:17:22</time>
      </trkpt>
      <trkpt lat="42.65647" lon="0.99972">
        <ele>1950.2</ele>
        <time>2022-05-22 21:17:23</time>
      </trkpt>
      <trkpt lat="42.65648" lon="0.9997">
        <ele>1950.4</ele>
        <time>2022-05-22 21:17:24</time>
      </trkpt>
      <trkpt lat="42.6565" lon="0.99968">
        <ele>1950.4</ele>
        <time>2022-05-22 21:17:25</time>
      </trkpt>
      <trkpt lat="42.65651" lon="0.99965">
        <ele>1950.6</ele>
        <time>2022-05-22 21:17:26</time>
      </trkpt>
      <trkpt lat="42.65653" lon="0.99963">
        <ele>1950.8</ele>
        <time>2022-05-22 21:17:27</time>
      </trkpt>
      <trkpt lat="42.65655" lon="0.99961">
        <ele>1951</ele>
        <time>2022-05-22 21:17:28</time>
      </trkpt>
      <trkpt lat="42.65656" lon="0.99958">
        <ele>1951.2</ele>
        <time>2022-05-22 21:17:29</time>
      </trkpt>
      <trkpt lat="42.65657" lon="0.99956">
        <ele>1951.4</ele>
        <time>2022-05-22 21:17:30</time>
      </trkpt>
      <trkpt lat="42.65659" lon="0.99954">
        <ele>1951.6</ele>
        <time>2022-05-22 21:17:31</time>
      </trkpt>
      <trkpt lat="42.6566" lon="0.99952">
        <ele>1951.8</ele>
        <time>2022-05-22 21:17:32</time>
      </trkpt>
      <trkpt lat="42.65662" lon="0.99949">
        <ele>1952</ele>
        <time>2022-05-22 21:17:33</time>
      </trkpt>
      <trkpt lat="42.65664" lon="0.99948">
        <ele>1952.2</ele>
        <time>2022-05-22 21:17:34</time>
      </trkpt>
      <trkpt lat="42.65666" lon="0.99947">
        <ele>1952.4</ele>
        <time>2022-05-22 21:17:35</time>
      </trkpt>
      <trkpt lat="42.65667" lon="0.99946">
        <ele>1952.6</ele>
        <time>2022-05-22 21:17:36</time>
      </trkpt>
      <trkpt lat="42.65669" lon="0.99944">
        <ele>1952.6</ele>
        <time>2022-05-22 21:17:37</time>
      </trkpt>
      <trkpt lat="42.65672" lon="0.99942">
        <ele>1953</ele>
        <time>2022-05-22 21:17:38</time>
      </trkpt>
      <trkpt lat="42.65673" lon="0.99941">
        <ele>1953</ele>
        <time>2022-05-22 21:17:39</time>
      </trkpt>
      <trkpt lat="42.65675" lon="0.99939">
        <ele>1953.2</ele>
        <time>2022-05-22 21:17:40</time>
      </trkpt>
      <trkpt lat="42.65677" lon="0.99938">
        <ele>1953.4</ele>
        <time>2022-05-22 21:17:41</time>
      </trkpt>
      <trkpt lat="42.6568" lon="0.99937">
        <ele>1953.6</ele>
        <time>2022-05-22 21:17:42</time>
      </trkpt>
      <trkpt lat="42.65682" lon="0.99936">
        <ele>1953.8</ele>
        <time>2022-05-22 21:17:43</time>
      </trkpt>
      <trkpt lat="42.65684" lon="0.99935">
        <ele>1954</ele>
        <time>2022-05-22 21:17:44</time>
      </trkpt>
      <trkpt lat="42.65686" lon="0.99935">
        <ele>1954.2</ele>
        <time>2022-05-22 21:17:45</time>
      </trkpt>
      <trkpt lat="42.65688" lon="0.99934">
        <ele>1954.4</ele>
        <time>2022-05-22 21:17:46</time>
      </trkpt>
      <trkpt lat="42.6569" lon="0.99933">
        <ele>1954.4</ele>
        <time>2022-05-22 21:17:47</time>
      </trkpt>
      <trkpt lat="42.65693" lon="0.99933">
        <ele>1954.6</ele>
        <time>2022-05-22 21:17:48</time>
      </trkpt>
      <trkpt lat="42.65695" lon="0.99932">
        <ele>1954.8</ele>
        <time>2022-05-22 21:17:49</time>
      </trkpt>
      <trkpt lat="42.65697" lon="0.99932">
        <ele>1955</ele>
        <time>2022-05-22 21:17:50</time>
      </trkpt>
      <trkpt lat="42.65699" lon="0.99931">
        <ele>1955.2</ele>
        <time>2022-05-22 21:17:51</time>
      </trkpt>
      <trkpt lat="42.65701" lon="0.99929">
        <ele>1955.4</ele>
        <time>2022-05-22 21:17:52</time>
      </trkpt>
      <trkpt lat="42.65703" lon="0.99928">
        <ele>1955.6</ele>
        <time>2022-05-22 21:17:53</time>
      </trkpt>
      <trkpt lat="42.65705" lon="0.99927">
        <ele>1955.8</ele>
        <time>2022-05-22 21:17:54</time>
      </trkpt>
      <trkpt lat="42.65706" lon="0.99927">
        <ele>1956</ele>
        <time>2022-05-22 21:17:55</time>
      </trkpt>
      <trkpt lat="42.65708" lon="0.99925">
        <ele>1956.2</ele>
        <time>2022-05-22 21:17:56</time>
      </trkpt>
      <trkpt lat="42.6571" lon="0.99924">
        <ele>1956.4</ele>
        <time>2022-05-22 21:17:57</time>
      </trkpt>
      <trkpt lat="42.65712" lon="0.99923">
        <ele>1956.6</ele>
        <time>2022-05-22 21:17:58</time>
      </trkpt>
      <trkpt lat="42.65714" lon="0.99922">
        <ele>1956.8</ele>
        <time>2022-05-22 21:17:59</time>
      </trkpt>
      <trkpt lat="42.65716" lon="0.9992">
        <ele>1956.8</ele>
        <time>2022-05-22 21:18:00</time>
      </trkpt>
      <trkpt lat="42.65718" lon="0.99919">
        <ele>1957</ele>
        <time>2022-05-22 21:18:01</time>
      </trkpt>
      <trkpt lat="42.6572" lon="0.99917">
        <ele>1957.2</ele>
        <time>2022-05-22 21:18:02</time>
      </trkpt>
      <trkpt lat="42.65721" lon="0.99915">
        <ele>1957.4</ele>
        <time>2022-05-22 21:18:03</time>
      </trkpt>
      <trkpt lat="42.65723" lon="0.99913">
        <ele>1957.6</ele>
        <time>2022-05-22 21:18:04</time>
      </trkpt>
      <trkpt lat="42.65724" lon="0.99912">
        <ele>1957.8</ele>
        <time>2022-05-22 21:18:05</time>
      </trkpt>
      <trkpt lat="42.65726" lon="0.99909">
        <ele>1958</ele>
        <time>2022-05-22 21:18:06</time>
      </trkpt>
      <trkpt lat="42.65727" lon="0.99906">
        <ele>1958.2</ele>
        <time>2022-05-22 21:18:07</time>
      </trkpt>
      <trkpt lat="42.65729" lon="0.99904">
        <ele>1958.4</ele>
        <time>2022-05-22 21:18:08</time>
      </trkpt>
      <trkpt lat="42.6573" lon="0.99902">
        <ele>1958.6</ele>
        <time>2022-05-22 21:18:09</time>
      </trkpt>
      <trkpt lat="42.65731" lon="0.99899">
        <ele>1958.6</ele>
        <time>2022-05-22 21:18:10</time>
      </trkpt>
      <trkpt lat="42.65732" lon="0.99896">
        <ele>1958.8</ele>
        <time>2022-05-22 21:18:11</time>
      </trkpt>
      <trkpt lat="42.65732" lon="0.99893">
        <ele>1959</ele>
        <time>2022-05-22 21:18:12</time>
      </trkpt>
      <trkpt lat="42.65733" lon="0.9989">
        <ele>1959.2</ele>
        <time>2022-05-22 21:18:13</time>
      </trkpt>
      <trkpt lat="42.65734" lon="0.99888">
        <ele>1959.2</ele>
        <time>2022-05-22 21:18:14</time>
      </trkpt>
      <trkpt lat="42.65734" lon="0.99884">
        <ele>1959.4</ele>
        <time>2022-05-22 21:18:15</time>
      </trkpt>
      <trkpt lat="42.65734" lon="0.99881">
        <ele>1959.6</ele>
        <time>2022-05-22 21:18:16</time>
      </trkpt>
      <trkpt lat="42.65734" lon="0.99878">
        <ele>1959.8</ele>
        <time>2022-05-22 21:18:17</time>
      </trkpt>
      <trkpt lat="42.65734" lon="0.99875">
        <ele>1960</ele>
        <time>2022-05-22 21:18:18</time>
      </trkpt>
      <trkpt lat="42.65734" lon="0.99871">
        <ele>1960</ele>
        <time>2022-05-22 21:18:19</time>
      </trkpt>
      <trkpt lat="42.65734" lon="0.99868">
        <ele>1960.2</ele>
        <time>2022-05-22 21:18:20</time>
      </trkpt>
      <trkpt lat="42.65733" lon="0.99864">
        <ele>1960.4</ele>
        <time>2022-05-22 21:18:21</time>
      </trkpt>
      <trkpt lat="42.65733" lon="0.99861">
        <ele>1960.4</ele>
        <time>2022-05-22 21:18:22</time>
      </trkpt>
      <trkpt lat="42.65732" lon="0.99858">
        <ele>1960.6</ele>
        <time>2022-05-22 21:18:23</time>
      </trkpt>
      <trkpt lat="42.65732" lon="0.99854">
        <ele>1960.8</ele>
        <time>2022-05-22 21:18:24</time>
      </trkpt>
      <trkpt lat="42.65731" lon="0.99851">
        <ele>1960.8</ele>
        <time>2022-05-22 21:18:25</time>
      </trkpt>
      <trkpt lat="42.65731" lon="0.99848">
        <ele>1961</ele>
        <time>2022-05-22 21:18:26</time>
      </trkpt>
      <trkpt lat="42.6573" lon="0.99845">
        <ele>1961.2</ele>
        <time>2022-05-22 21:18:27</time>
      </trkpt>
      <trkpt lat="42.65729" lon="0.99841">
        <ele>1961.4</ele>
        <time>2022-05-22 21:18:28</time>
      </trkpt>
      <trkpt lat="42.65729" lon="0.99838">
        <ele>1961.4</ele>
        <time>2022-05-22 21:18:29</time>
      </trkpt>
      <trkpt lat="42.65729" lon="0.99835">
        <ele>1961.6</ele>
        <time>2022-05-22 21:18:30</time>
      </trkpt>
      <trkpt lat="42.65728" lon="0.99832">
        <ele>1961.8</ele>
        <time>2022-05-22 21:18:31</time>
      </trkpt>
      <trkpt lat="42.65728" lon="0.99828">
        <ele>1961.8</ele>
        <time>2022-05-22 21:18:32</time>
      </trkpt>
      <trkpt lat="42.65728" lon="0.99825">
        <ele>1962</ele>
        <time>2022-05-22 21:18:33</time>
      </trkpt>
      <trkpt lat="42.65727" lon="0.99822">
        <ele>1962.2</ele>
        <time>2022-05-22 21:18:34</time>
      </trkpt>
      <trkpt lat="42.65727" lon="0.99819">
        <ele>1962.2</ele>
        <time>2022-05-22 21:18:35</time>
      </trkpt>
      <trkpt lat="42.65727" lon="0.99815">
        <ele>1962.4</ele>
        <time>2022-05-22 21:18:36</time>
      </trkpt>
      <trkpt lat="42.65727" lon="0.99812">
        <ele>1962.6</ele>
        <time>2022-05-22 21:18:37</time>
      </trkpt>
      <trkpt lat="42.65728" lon="0.9981">
        <ele>1962.8</ele>
        <time>2022-05-22 21:18:38</time>
      </trkpt>
      <trkpt lat="42.65729" lon="0.99807">
        <ele>1963</ele>
        <time>2022-05-22 21:18:39</time>
      </trkpt>
      <trkpt lat="42.65729" lon="0.99803">
        <ele>1963.2</ele>
        <time>2022-05-22 21:18:40</time>
      </trkpt>
      <trkpt lat="42.6573" lon="0.99801">
        <ele>1963.4</ele>
        <time>2022-05-22 21:18:41</time>
      </trkpt>
      <trkpt lat="42.65732" lon="0.99798">
        <ele>1963.4</ele>
        <time>2022-05-22 21:18:42</time>
      </trkpt>
      <trkpt lat="42.65733" lon="0.99796">
        <ele>1963.6</ele>
        <time>2022-05-22 21:18:43</time>
      </trkpt>
      <trkpt lat="42.65735" lon="0.99794">
        <ele>1964</ele>
        <time>2022-05-22 21:18:44</time>
      </trkpt>
      <trkpt lat="42.65737" lon="0.99792">
        <ele>1964</ele>
        <time>2022-05-22 21:18:45</time>
      </trkpt>
      <trkpt lat="42.65738" lon="0.99791">
        <ele>1964.2</ele>
        <time>2022-05-22 21:18:46</time>
      </trkpt>
      <trkpt lat="42.6574" lon="0.99789">
        <ele>1964.4</ele>
        <time>2022-05-22 21:18:47</time>
      </trkpt>
      <trkpt lat="42.65742" lon="0.99788">
        <ele>1964.6</ele>
        <time>2022-05-22 21:18:48</time>
      </trkpt>
      <trkpt lat="42.65744" lon="0.99788">
        <ele>1964.8</ele>
        <time>2022-05-22 21:18:49</time>
      </trkpt>
      <trkpt lat="42.65746" lon="0.99787">
        <ele>1965</ele>
        <time>2022-05-22 21:18:50</time>
      </trkpt>
      <trkpt lat="42.65748" lon="0.99787">
        <ele>1965.2</ele>
        <time>2022-05-22 21:18:51</time>
      </trkpt>
      <trkpt lat="42.65751" lon="0.99787">
        <ele>1965.4</ele>
        <time>2022-05-22 21:18:52</time>
      </trkpt>
      <trkpt lat="42.65753" lon="0.99788">
        <ele>1965.6</ele>
        <time>2022-05-22 21:18:53</time>
      </trkpt>
      <trkpt lat="42.65755" lon="0.99788">
        <ele>1965.8</ele>
        <time>2022-05-22 21:18:54</time>
      </trkpt>
      <trkpt lat="42.65757" lon="0.99789">
        <ele>1966</ele>
        <time>2022-05-22 21:18:55</time>
      </trkpt>
      <trkpt lat="42.65759" lon="0.9979">
        <ele>1966.2</ele>
        <time>2022-05-22 21:18:56</time>
      </trkpt>
      <trkpt lat="42.65761" lon="0.99791">
        <ele>1966.4</ele>
        <time>2022-05-22 21:18:57</time>
      </trkpt>
      <trkpt lat="42.65762" lon="0.99793">
        <ele>1966.6</ele>
        <time>2022-05-22 21:18:58</time>
      </trkpt>
      <trkpt lat="42.65764" lon="0.99794">
        <ele>1966.8</ele>
        <time>2022-05-22 21:18:59</time>
      </trkpt>
      <trkpt lat="42.65766" lon="0.99797">
        <ele>1967</ele>
        <time>2022-05-22 21:19:00</time>
      </trkpt>
      <trkpt lat="42.65767" lon="0.99799">
        <ele>1967.2</ele>
        <time>2022-05-22 21:19:01</time>
      </trkpt>
      <trkpt lat="42.65768" lon="0.99802">
        <ele>1967.4</ele>
        <time>2022-05-22 21:19:02</time>
      </trkpt>
      <trkpt lat="42.65769" lon="0.99804">
        <ele>1967.6</ele>
        <time>2022-05-22 21:19:03</time>
      </trkpt>
      <trkpt lat="42.65769" lon="0.99808">
        <ele>1967.8</ele>
        <time>2022-05-22 21:19:04</time>
      </trkpt>
      <trkpt lat="42.6577" lon="0.99811">
        <ele>1968</ele>
        <time>2022-05-22 21:19:05</time>
      </trkpt>
      <trkpt lat="42.6577" lon="0.99814">
        <ele>1968.2</ele>
        <time>2022-05-22 21:19:06</time>
      </trkpt>
      <trkpt lat="42.65771" lon="0.99816">
        <ele>1968.4</ele>
        <time>2022-05-22 21:19:07</time>
      </trkpt>
      <trkpt lat="42.65771" lon="0.9982">
        <ele>1968.6</ele>
        <time>2022-05-22 21:19:08</time>
      </trkpt>
      <trkpt lat="42.65772" lon="0.99823">
        <ele>1968.8</ele>
        <time>2022-05-22 21:19:09</time>
      </trkpt>
      <trkpt lat="42.65772" lon="0.99826">
        <ele>1969</ele>
        <time>2022-05-22 21:19:10</time>
      </trkpt>
      <trkpt lat="42.65772" lon="0.99828">
        <ele>1969.2</ele>
        <time>2022-05-22 21:19:11</time>
      </trkpt>
      <trkpt lat="42.65771" lon="0.99831">
        <ele>1969.4</ele>
        <time>2022-05-22 21:19:12</time>
      </trkpt>
      <trkpt lat="42.65771" lon="0.99834">
        <ele>1969.6</ele>
        <time>2022-05-22 21:19:13</time>
      </trkpt>
      <trkpt lat="42.65771" lon="0.99837">
        <ele>1969.8</ele>
        <time>2022-05-22 21:19:14</time>
      </trkpt>
      <trkpt lat="42.65771" lon="0.9984">
        <ele>1970</ele>
        <time>2022-05-22 21:19:15</time>
      </trkpt>
      <trkpt lat="42.65771" lon="0.99843">
        <ele>1970.2</ele>
        <time>2022-05-22 21:19:16</time>
      </trkpt>
      <trkpt lat="42.6577" lon="0.99846">
        <ele>1970.4</ele>
        <time>2022-05-22 21:19:17</time>
      </trkpt>
      <trkpt lat="42.6577" lon="0.99849">
        <ele>1970.4</ele>
        <time>2022-05-22 21:19:18</time>
      </trkpt>
      <trkpt lat="42.6577" lon="0.99851">
        <ele>1970.6</ele>
        <time>2022-05-22 21:19:19</time>
      </trkpt>
      <trkpt lat="42.6577" lon="0.99854">
        <ele>1970.8</ele>
        <time>2022-05-22 21:19:20</time>
      </trkpt>
      <trkpt lat="42.65769" lon="0.99856">
        <ele>1971</ele>
        <time>2022-05-22 21:19:21</time>
      </trkpt>
      <trkpt lat="42.65769" lon="0.9986">
        <ele>1971.2</ele>
        <time>2022-05-22 21:19:22</time>
      </trkpt>
      <trkpt lat="42.65769" lon="0.99863">
        <ele>1971.4</ele>
        <time>2022-05-22 21:19:23</time>
      </trkpt>
      <trkpt lat="42.65769" lon="0.99865">
        <ele>1971.6</ele>
        <time>2022-05-22 21:19:24</time>
      </trkpt>
      <trkpt lat="42.65768" lon="0.99868">
        <ele>1971.8</ele>
        <time>2022-05-22 21:19:25</time>
      </trkpt>
      <trkpt lat="42.65768" lon="0.9987">
        <ele>1972</ele>
        <time>2022-05-22 21:19:26</time>
      </trkpt>
      <trkpt lat="42.65767" lon="0.99873">
        <ele>1972.2</ele>
        <time>2022-05-22 21:19:27</time>
      </trkpt>
      <trkpt lat="42.65766" lon="0.99876">
        <ele>1972.2</ele>
        <time>2022-05-22 21:19:28</time>
      </trkpt>
      <trkpt lat="42.65766" lon="0.99879">
        <ele>1972.4</ele>
        <time>2022-05-22 21:19:29</time>
      </trkpt>
      <trkpt lat="42.65765" lon="0.99882">
        <ele>1972.6</ele>
        <time>2022-05-22 21:19:30</time>
      </trkpt>
      <trkpt lat="42.65765" lon="0.99884">
        <ele>1972.8</ele>
        <time>2022-05-22 21:19:31</time>
      </trkpt>
      <trkpt lat="42.65764" lon="0.99887">
        <ele>1973</ele>
        <time>2022-05-22 21:19:32</time>
      </trkpt>
      <trkpt lat="42.65764" lon="0.99889">
        <ele>1973.2</ele>
        <time>2022-05-22 21:19:33</time>
      </trkpt>
      <trkpt lat="42.65763" lon="0.99892">
        <ele>1973.4</ele>
        <time>2022-05-22 21:19:34</time>
      </trkpt>
      <trkpt lat="42.65763" lon="0.99894">
        <ele>1973.6</ele>
        <time>2022-05-22 21:19:35</time>
      </trkpt>
      <trkpt lat="42.65762" lon="0.99896">
        <ele>1973.8</ele>
        <time>2022-05-22 21:19:36</time>
      </trkpt>
      <trkpt lat="42.65761" lon="0.99898">
        <ele>1974</ele>
        <time>2022-05-22 21:19:37</time>
      </trkpt>
      <trkpt lat="42.65761" lon="0.99901">
        <ele>1974</ele>
        <time>2022-05-22 21:19:38</time>
      </trkpt>
      <trkpt lat="42.6576" lon="0.99903">
        <ele>1974.2</ele>
        <time>2022-05-22 21:19:39</time>
      </trkpt>
      <trkpt lat="42.65759" lon="0.99905">
        <ele>1974.4</ele>
        <time>2022-05-22 21:19:40</time>
      </trkpt>
      <trkpt lat="42.65759" lon="0.99907">
        <ele>1974.6</ele>
        <time>2022-05-22 21:19:41</time>
      </trkpt>
      <trkpt lat="42.65758" lon="0.99909">
        <ele>1974.8</ele>
        <time>2022-05-22 21:19:42</time>
      </trkpt>
      <trkpt lat="42.65757" lon="0.99911">
        <ele>1975</ele>
        <time>2022-05-22 21:19:43</time>
      </trkpt>
      <trkpt lat="42.65756" lon="0.99913">
        <ele>1975</ele>
        <time>2022-05-22 21:19:44</time>
      </trkpt>
      <trkpt lat="42.65755" lon="0.99915">
        <ele>1975.2</ele>
        <time>2022-05-22 21:19:45</time>
      </trkpt>
      <trkpt lat="42.65754" lon="0.99917">
        <ele>1975.4</ele>
        <time>2022-05-22 21:19:46</time>
      </trkpt>
      <trkpt lat="42.65754" lon="0.99919">
        <ele>1975.4</ele>
        <time>2022-05-22 21:19:47</time>
      </trkpt>
      <trkpt lat="42.65753" lon="0.99921">
        <ele>1975.6</ele>
        <time>2022-05-22 21:19:48</time>
      </trkpt>
      <trkpt lat="42.65753" lon="0.99923">
        <ele>1975.6</ele>
        <time>2022-05-22 21:19:49</time>
      </trkpt>
      <trkpt lat="42.65752" lon="0.99925">
        <ele>1975.6</ele>
        <time>2022-05-22 21:19:50</time>
      </trkpt>
      <trkpt lat="42.65751" lon="0.99927">
        <ele>1975.8</ele>
        <time>2022-05-22 21:19:51</time>
      </trkpt>
      <trkpt lat="42.65751" lon="0.99929">
        <ele>1976</ele>
        <time>2022-05-22 21:19:52</time>
      </trkpt>
      <trkpt lat="42.6575" lon="0.99931">
        <ele>1976.2</ele>
        <time>2022-05-22 21:19:53</time>
      </trkpt>
      <trkpt lat="42.65749" lon="0.99933">
        <ele>1976.2</ele>
        <time>2022-05-22 21:19:54</time>
      </trkpt>
      <trkpt lat="42.65749" lon="0.99935">
        <ele>1976.4</ele>
        <time>2022-05-22 21:19:55</time>
      </trkpt>
      <trkpt lat="42.65749" lon="0.99938">
        <ele>1976.6</ele>
        <time>2022-05-22 21:19:56</time>
      </trkpt>
      <trkpt lat="42.65749" lon="0.9994">
        <ele>1976.8</ele>
        <time>2022-05-22 21:19:57</time>
      </trkpt>
      <trkpt lat="42.65749" lon="0.99942">
        <ele>1977</ele>
        <time>2022-05-22 21:19:58</time>
      </trkpt>
      <trkpt lat="42.6575" lon="0.99944">
        <ele>1977</ele>
        <time>2022-05-22 21:19:59</time>
      </trkpt>
      <trkpt lat="42.6575" lon="0.99946">
        <ele>1977.2</ele>
        <time>2022-05-22 21:20:00</time>
      </trkpt>
      <trkpt lat="42.65751" lon="0.99949">
        <ele>1977.4</ele>
        <time>2022-05-22 21:20:01</time>
      </trkpt>
      <trkpt lat="42.65752" lon="0.99951">
        <ele>1977.4</ele>
        <time>2022-05-22 21:20:02</time>
      </trkpt>
      <trkpt lat="42.65753" lon="0.99953">
        <ele>1977.6</ele>
        <time>2022-05-22 21:20:03</time>
      </trkpt>
      <trkpt lat="42.65754" lon="0.99956">
        <ele>1977.8</ele>
        <time>2022-05-22 21:20:04</time>
      </trkpt>
      <trkpt lat="42.65755" lon="0.99957">
        <ele>1977.8</ele>
        <time>2022-05-22 21:20:05</time>
      </trkpt>
      <trkpt lat="42.65756" lon="0.99959">
        <ele>1978</ele>
        <time>2022-05-22 21:20:06</time>
      </trkpt>
      <trkpt lat="42.65757" lon="0.99961">
        <ele>1978.2</ele>
        <time>2022-05-22 21:20:07</time>
      </trkpt>
      <trkpt lat="42.65759" lon="0.99962">
        <ele>1978.4</ele>
        <time>2022-05-22 21:20:08</time>
      </trkpt>
      <trkpt lat="42.6576" lon="0.99963">
        <ele>1978.6</ele>
        <time>2022-05-22 21:20:09</time>
      </trkpt>
      <trkpt lat="42.65762" lon="0.99964">
        <ele>1978.8</ele>
        <time>2022-05-22 21:20:10</time>
      </trkpt>
      <trkpt lat="42.65763" lon="0.99965">
        <ele>1979</ele>
        <time>2022-05-22 21:20:11</time>
      </trkpt>
      <trkpt lat="42.65765" lon="0.99965">
        <ele>1979.2</ele>
        <time>2022-05-22 21:20:12</time>
      </trkpt>
      <trkpt lat="42.65766" lon="0.99965">
        <ele>1979.4</ele>
        <time>2022-05-22 21:20:13</time>
      </trkpt>
      <trkpt lat="42.65768" lon="0.99964">
        <ele>1979.6</ele>
        <time>2022-05-22 21:20:14</time>
      </trkpt>
      <trkpt lat="42.6577" lon="0.99964">
        <ele>1979.8</ele>
        <time>2022-05-22 21:20:15</time>
      </trkpt>
      <trkpt lat="42.65772" lon="0.99963">
        <ele>1980</ele>
        <time>2022-05-22 21:20:16</time>
      </trkpt>
      <trkpt lat="42.65773" lon="0.99962">
        <ele>1980.2</ele>
        <time>2022-05-22 21:20:17</time>
      </trkpt>
      <trkpt lat="42.65775" lon="0.99962">
        <ele>1980.4</ele>
        <time>2022-05-22 21:20:18</time>
      </trkpt>
      <trkpt lat="42.65777" lon="0.9996">
        <ele>1980.4</ele>
        <time>2022-05-22 21:20:19</time>
      </trkpt>
      <trkpt lat="42.65778" lon="0.99959">
        <ele>1980.6</ele>
        <time>2022-05-22 21:20:20</time>
      </trkpt>
      <trkpt lat="42.6578" lon="0.99957">
        <ele>1980.8</ele>
        <time>2022-05-22 21:20:21</time>
      </trkpt>
      <trkpt lat="42.65781" lon="0.99956">
        <ele>1981</ele>
        <time>2022-05-22 21:20:22</time>
      </trkpt>
      <trkpt lat="42.65782" lon="0.99954">
        <ele>1981.2</ele>
        <time>2022-05-22 21:20:23</time>
      </trkpt>
      <trkpt lat="42.65784" lon="0.99952">
        <ele>1981.4</ele>
        <time>2022-05-22 21:20:24</time>
      </trkpt>
      <trkpt lat="42.65786" lon="0.99951">
        <ele>1981.4</ele>
        <time>2022-05-22 21:20:25</time>
      </trkpt>
      <trkpt lat="42.65787" lon="0.99949">
        <ele>1981.6</ele>
        <time>2022-05-22 21:20:26</time>
      </trkpt>
      <trkpt lat="42.65788" lon="0.99947">
        <ele>1981.8</ele>
        <time>2022-05-22 21:20:27</time>
      </trkpt>
      <trkpt lat="42.6579" lon="0.99945">
        <ele>1982</ele>
        <time>2022-05-22 21:20:28</time>
      </trkpt>
      <trkpt lat="42.65791" lon="0.99943">
        <ele>1982.2</ele>
        <time>2022-05-22 21:20:29</time>
      </trkpt>
      <trkpt lat="42.65793" lon="0.99941">
        <ele>1982.4</ele>
        <time>2022-05-22 21:20:30</time>
      </trkpt>
      <trkpt lat="42.65795" lon="0.99939">
        <ele>1982.6</ele>
        <time>2022-05-22 21:20:31</time>
      </trkpt>
      <trkpt lat="42.65796" lon="0.99938">
        <ele>1982.8</ele>
        <time>2022-05-22 21:20:32</time>
      </trkpt>
      <trkpt lat="42.65798" lon="0.99936">
        <ele>1983</ele>
        <time>2022-05-22 21:20:33</time>
      </trkpt>
      <trkpt lat="42.65799" lon="0.99934">
        <ele>1983.2</ele>
        <time>2022-05-22 21:20:34</time>
      </trkpt>
      <trkpt lat="42.658" lon="0.99932">
        <ele>1983.4</ele>
        <time>2022-05-22 21:20:35</time>
      </trkpt>
      <trkpt lat="42.65802" lon="0.9993">
        <ele>1983.6</ele>
        <time>2022-05-22 21:20:36</time>
      </trkpt>
      <trkpt lat="42.65803" lon="0.99929">
        <ele>1983.6</ele>
        <time>2022-05-22 21:20:37</time>
      </trkpt>
      <trkpt lat="42.65804" lon="0.99926">
        <ele>1983.8</ele>
        <time>2022-05-22 21:20:38</time>
      </trkpt>
      <trkpt lat="42.65806" lon="0.99924">
        <ele>1984</ele>
        <time>2022-05-22 21:20:39</time>
      </trkpt>
      <trkpt lat="42.65807" lon="0.99921">
        <ele>1984.2</ele>
        <time>2022-05-22 21:20:40</time>
      </trkpt>
      <trkpt lat="42.65808" lon="0.99919">
        <ele>1984.4</ele>
        <time>2022-05-22 21:20:41</time>
      </trkpt>
      <trkpt lat="42.65809" lon="0.99917">
        <ele>1984.6</ele>
        <time>2022-05-22 21:20:42</time>
      </trkpt>
      <trkpt lat="42.6581" lon="0.99915">
        <ele>1984.8</ele>
        <time>2022-05-22 21:20:43</time>
      </trkpt>
      <trkpt lat="42.65812" lon="0.99912">
        <ele>1985</ele>
        <time>2022-05-22 21:20:44</time>
      </trkpt>
      <trkpt lat="42.65813" lon="0.9991">
        <ele>1985.2</ele>
        <time>2022-05-22 21:20:45</time>
      </trkpt>
      <trkpt lat="42.65815" lon="0.99908">
        <ele>1985.4</ele>
        <time>2022-05-22 21:20:46</time>
      </trkpt>
      <trkpt lat="42.65816" lon="0.99907">
        <ele>1985.6</ele>
        <time>2022-05-22 21:20:47</time>
      </trkpt>
      <trkpt lat="42.65817" lon="0.99905">
        <ele>1985.8</ele>
        <time>2022-05-22 21:20:48</time>
      </trkpt>
      <trkpt lat="42.6582" lon="0.99904">
        <ele>1986</ele>
        <time>2022-05-22 21:20:49</time>
      </trkpt>
      <trkpt lat="42.65821" lon="0.99902">
        <ele>1986.2</ele>
        <time>2022-05-22 21:20:50</time>
      </trkpt>
      <trkpt lat="42.65823" lon="0.999">
        <ele>1986.4</ele>
        <time>2022-05-22 21:20:51</time>
      </trkpt>
      <trkpt lat="42.65824" lon="0.99899">
        <ele>1986.6</ele>
        <time>2022-05-22 21:20:52</time>
      </trkpt>
      <trkpt lat="42.65825" lon="0.99897">
        <ele>1986.8</ele>
        <time>2022-05-22 21:20:53</time>
      </trkpt>
      <trkpt lat="42.65827" lon="0.99895">
        <ele>1986.8</ele>
        <time>2022-05-22 21:20:54</time>
      </trkpt>
      <trkpt lat="42.65828" lon="0.99893">
        <ele>1987</ele>
        <time>2022-05-22 21:20:55</time>
      </trkpt>
      <trkpt lat="42.6583" lon="0.99891">
        <ele>1987.2</ele>
        <time>2022-05-22 21:20:56</time>
      </trkpt>
      <trkpt lat="42.65831" lon="0.99889">
        <ele>1987.4</ele>
        <time>2022-05-22 21:20:57</time>
      </trkpt>
      <trkpt lat="42.65833" lon="0.99887">
        <ele>1987.6</ele>
        <time>2022-05-22 21:20:58</time>
      </trkpt>
      <trkpt lat="42.65834" lon="0.99885">
        <ele>1987.8</ele>
        <time>2022-05-22 21:20:59</time>
      </trkpt>
      <trkpt lat="42.65835" lon="0.99884">
        <ele>1988</ele>
        <time>2022-05-22 21:21:00</time>
      </trkpt>
      <trkpt lat="42.65837" lon="0.99881">
        <ele>1988.2</ele>
        <time>2022-05-22 21:21:01</time>
      </trkpt>
      <trkpt lat="42.65838" lon="0.99879">
        <ele>1988.2</ele>
        <time>2022-05-22 21:21:02</time>
      </trkpt>
      <trkpt lat="42.65839" lon="0.99877">
        <ele>1988.4</ele>
        <time>2022-05-22 21:21:03</time>
      </trkpt>
      <trkpt lat="42.6584" lon="0.99875">
        <ele>1988.6</ele>
        <time>2022-05-22 21:21:04</time>
      </trkpt>
      <trkpt lat="42.65842" lon="0.99874">
        <ele>1988.8</ele>
        <time>2022-05-22 21:21:05</time>
      </trkpt>
      <trkpt lat="42.65843" lon="0.99872">
        <ele>1989</ele>
        <time>2022-05-22 21:21:06</time>
      </trkpt>
      <trkpt lat="42.65844" lon="0.99871">
        <ele>1989</ele>
        <time>2022-05-22 21:21:07</time>
      </trkpt>
      <trkpt lat="42.65846" lon="0.99869">
        <ele>1989.2</ele>
        <time>2022-05-22 21:21:08</time>
      </trkpt>
      <trkpt lat="42.65849" lon="0.99868">
        <ele>1989.4</ele>
        <time>2022-05-22 21:21:09</time>
      </trkpt>
      <trkpt lat="42.6585" lon="0.99867">
        <ele>1989.6</ele>
        <time>2022-05-22 21:21:10</time>
      </trkpt>
      <trkpt lat="42.65852" lon="0.99865">
        <ele>1989.8</ele>
        <time>2022-05-22 21:21:11</time>
      </trkpt>
      <trkpt lat="42.65854" lon="0.99864">
        <ele>1989.8</ele>
        <time>2022-05-22 21:21:12</time>
      </trkpt>
      <trkpt lat="42.65856" lon="0.99863">
        <ele>1990</ele>
        <time>2022-05-22 21:21:13</time>
      </trkpt>
      <trkpt lat="42.65857" lon="0.99861">
        <ele>1990.2</ele>
        <time>2022-05-22 21:21:14</time>
      </trkpt>
      <trkpt lat="42.65859" lon="0.9986">
        <ele>1990.4</ele>
        <time>2022-05-22 21:21:15</time>
      </trkpt>
      <trkpt lat="42.65861" lon="0.99859">
        <ele>1990.6</ele>
        <time>2022-05-22 21:21:16</time>
      </trkpt>
      <trkpt lat="42.65863" lon="0.99859">
        <ele>1990.6</ele>
        <time>2022-05-22 21:21:17</time>
      </trkpt>
      <trkpt lat="42.65865" lon="0.99858">
        <ele>1990.8</ele>
        <time>2022-05-22 21:21:18</time>
      </trkpt>
      <trkpt lat="42.65867" lon="0.99858">
        <ele>1991</ele>
        <time>2022-05-22 21:21:19</time>
      </trkpt>
      <trkpt lat="42.65868" lon="0.99858">
        <ele>1991.2</ele>
        <time>2022-05-22 21:21:20</time>
      </trkpt>
      <trkpt lat="42.6587" lon="0.99857">
        <ele>1991.4</ele>
        <time>2022-05-22 21:21:21</time>
      </trkpt>
      <trkpt lat="42.65872" lon="0.99857">
        <ele>1991.4</ele>
        <time>2022-05-22 21:21:22</time>
      </trkpt>
      <trkpt lat="42.65874" lon="0.99858">
        <ele>1991.6</ele>
        <time>2022-05-22 21:21:23</time>
      </trkpt>
      <trkpt lat="42.65876" lon="0.99858">
        <ele>1991.8</ele>
        <time>2022-05-22 21:21:24</time>
      </trkpt>
      <trkpt lat="42.65878" lon="0.99859">
        <ele>1992</ele>
        <time>2022-05-22 21:21:25</time>
      </trkpt>
      <trkpt lat="42.6588" lon="0.9986">
        <ele>1992</ele>
        <time>2022-05-22 21:21:26</time>
      </trkpt>
      <trkpt lat="42.65882" lon="0.9986">
        <ele>1992.2</ele>
        <time>2022-05-22 21:21:27</time>
      </trkpt>
      <trkpt lat="42.65884" lon="0.99861">
        <ele>1992.2</ele>
        <time>2022-05-22 21:21:28</time>
      </trkpt>
      <trkpt lat="42.65886" lon="0.99862">
        <ele>1992.4</ele>
        <time>2022-05-22 21:21:29</time>
      </trkpt>
      <trkpt lat="42.65888" lon="0.99863">
        <ele>1992.6</ele>
        <time>2022-05-22 21:21:30</time>
      </trkpt>
      <trkpt lat="42.6589" lon="0.99863">
        <ele>1992.6</ele>
        <time>2022-05-22 21:21:31</time>
      </trkpt>
      <trkpt lat="42.65892" lon="0.99864">
        <ele>1992.8</ele>
        <time>2022-05-22 21:21:32</time>
      </trkpt>
      <trkpt lat="42.65894" lon="0.99865">
        <ele>1993</ele>
        <time>2022-05-22 21:21:33</time>
      </trkpt>
      <trkpt lat="42.65896" lon="0.99867">
        <ele>1993.2</ele>
        <time>2022-05-22 21:21:34</time>
      </trkpt>
      <trkpt lat="42.65898" lon="0.99868">
        <ele>1993.2</ele>
        <time>2022-05-22 21:21:35</time>
      </trkpt>
      <trkpt lat="42.659" lon="0.99869">
        <ele>1993.4</ele>
        <time>2022-05-22 21:21:36</time>
      </trkpt>
      <trkpt lat="42.65902" lon="0.9987">
        <ele>1993.6</ele>
        <time>2022-05-22 21:21:37</time>
      </trkpt>
      <trkpt lat="42.65904" lon="0.99872">
        <ele>1993.6</ele>
        <time>2022-05-22 21:21:38</time>
      </trkpt>
      <trkpt lat="42.65906" lon="0.99875">
        <ele>1993.8</ele>
        <time>2022-05-22 21:21:39</time>
      </trkpt>
      <trkpt lat="42.65907" lon="0.99876">
        <ele>1994</ele>
        <time>2022-05-22 21:21:40</time>
      </trkpt>
      <trkpt lat="42.65909" lon="0.99877">
        <ele>1994.2</ele>
        <time>2022-05-22 21:21:41</time>
      </trkpt>
      <trkpt lat="42.65911" lon="0.99878">
        <ele>1994.2</ele>
        <time>2022-05-22 21:21:42</time>
      </trkpt>
      <trkpt lat="42.65913" lon="0.99879">
        <ele>1994.4</ele>
        <time>2022-05-22 21:21:43</time>
      </trkpt>
      <trkpt lat="42.65915" lon="0.9988">
        <ele>1994.6</ele>
        <time>2022-05-22 21:21:44</time>
      </trkpt>
      <trkpt lat="42.65917" lon="0.9988">
        <ele>1994.8</ele>
        <time>2022-05-22 21:21:45</time>
      </trkpt>
      <trkpt lat="42.65919" lon="0.99881">
        <ele>1995</ele>
        <time>2022-05-22 21:21:46</time>
      </trkpt>
      <trkpt lat="42.65921" lon="0.99882">
        <ele>1995.2</ele>
        <time>2022-05-22 21:21:47</time>
      </trkpt>
      <trkpt lat="42.65923" lon="0.99884">
        <ele>1995.4</ele>
        <time>2022-05-22 21:21:48</time>
      </trkpt>
      <trkpt lat="42.65925" lon="0.99885">
        <ele>1995.6</ele>
        <time>2022-05-22 21:21:49</time>
      </trkpt>
      <trkpt lat="42.65926" lon="0.99887">
        <ele>1995.6</ele>
        <time>2022-05-22 21:21:50</time>
      </trkpt>
      <trkpt lat="42.65928" lon="0.99888">
        <ele>1995.8</ele>
        <time>2022-05-22 21:21:51</time>
      </trkpt>
      <trkpt lat="42.6593" lon="0.99889">
        <ele>1995.8</ele>
        <time>2022-05-22 21:21:52</time>
      </trkpt>
      <trkpt lat="42.65931" lon="0.9989">
        <ele>1996</ele>
        <time>2022-05-22 21:21:53</time>
      </trkpt>
      <trkpt lat="42.65934" lon="0.99891">
        <ele>1996.2</ele>
        <time>2022-05-22 21:21:54</time>
      </trkpt>
      <trkpt lat="42.65935" lon="0.99892">
        <ele>1996.4</ele>
        <time>2022-05-22 21:21:55</time>
      </trkpt>
      <trkpt lat="42.65938" lon="0.99892">
        <ele>1996.6</ele>
        <time>2022-05-22 21:21:56</time>
      </trkpt>
      <trkpt lat="42.65939" lon="0.99893">
        <ele>1996.8</ele>
        <time>2022-05-22 21:21:57</time>
      </trkpt>
      <trkpt lat="42.65941" lon="0.99894">
        <ele>1997</ele>
        <time>2022-05-22 21:21:58</time>
      </trkpt>
      <trkpt lat="42.65943" lon="0.99894">
        <ele>1997.2</ele>
        <time>2022-05-22 21:21:59</time>
      </trkpt>
      <trkpt lat="42.65945" lon="0.99893">
        <ele>1997.4</ele>
        <time>2022-05-22 21:22:00</time>
      </trkpt>
      <trkpt lat="42.65947" lon="0.99893">
        <ele>1997.4</ele>
        <time>2022-05-22 21:22:01</time>
      </trkpt>
      <trkpt lat="42.65949" lon="0.99893">
        <ele>1997.6</ele>
        <time>2022-05-22 21:22:02</time>
      </trkpt>
      <trkpt lat="42.65951" lon="0.99893">
        <ele>1997.8</ele>
        <time>2022-05-22 21:22:03</time>
      </trkpt>
      <trkpt lat="42.65953" lon="0.99893">
        <ele>1997.8</ele>
        <time>2022-05-22 21:22:04</time>
      </trkpt>
      <trkpt lat="42.65955" lon="0.99893">
        <ele>1998</ele>
        <time>2022-05-22 21:22:05</time>
      </trkpt>
      <trkpt lat="42.65957" lon="0.99893">
        <ele>1998.2</ele>
        <time>2022-05-22 21:22:06</time>
      </trkpt>
      <trkpt lat="42.65959" lon="0.99892">
        <ele>1998.4</ele>
        <time>2022-05-22 21:22:07</time>
      </trkpt>
      <trkpt lat="42.65961" lon="0.99892">
        <ele>1998.4</ele>
        <time>2022-05-22 21:22:08</time>
      </trkpt>
      <trkpt lat="42.65964" lon="0.9989">
        <ele>1998.6</ele>
        <time>2022-05-22 21:22:09</time>
      </trkpt>
      <trkpt lat="42.65966" lon="0.9989">
        <ele>1998.8</ele>
        <time>2022-05-22 21:22:10</time>
      </trkpt>
      <trkpt lat="42.65968" lon="0.99889">
        <ele>1999</ele>
        <time>2022-05-22 21:22:11</time>
      </trkpt>
      <trkpt lat="42.65969" lon="0.99888">
        <ele>1999.2</ele>
        <time>2022-05-22 21:22:12</time>
      </trkpt>
      <trkpt lat="42.65971" lon="0.99886">
        <ele>1999.2</ele>
        <time>2022-05-22 21:22:13</time>
      </trkpt>
      <trkpt lat="42.65973" lon="0.99885">
        <ele>1999.4</ele>
        <time>2022-05-22 21:22:14</time>
      </trkpt>
      <trkpt lat="42.65975" lon="0.99883">
        <ele>1999.6</ele>
        <time>2022-05-22 21:22:15</time>
      </trkpt>
      <trkpt lat="42.65976" lon="0.99882">
        <ele>1999.8</ele>
        <time>2022-05-22 21:22:16</time>
      </trkpt>
      <trkpt lat="42.65978" lon="0.99881">
        <ele>1999.8</ele>
        <time>2022-05-22 21:22:17</time>
      </trkpt>
      <trkpt lat="42.65979" lon="0.9988">
        <ele>2000</ele>
        <time>2022-05-22 21:22:18</time>
      </trkpt>
      <trkpt lat="42.65981" lon="0.99878">
        <ele>2000.2</ele>
        <time>2022-05-22 21:22:19</time>
      </trkpt>
      <trkpt lat="42.65982" lon="0.99876">
        <ele>2000.4</ele>
        <time>2022-05-22 21:22:20</time>
      </trkpt>
      <trkpt lat="42.65984" lon="0.99875">
        <ele>2000.6</ele>
        <time>2022-05-22 21:22:21</time>
      </trkpt>
      <trkpt lat="42.65985" lon="0.99873">
        <ele>2000.8</ele>
        <time>2022-05-22 21:22:22</time>
      </trkpt>
      <trkpt lat="42.65986" lon="0.99872">
        <ele>2000.8</ele>
        <time>2022-05-22 21:22:23</time>
      </trkpt>
      <trkpt lat="42.65988" lon="0.9987">
        <ele>2001</ele>
        <time>2022-05-22 21:22:24</time>
      </trkpt>
      <trkpt lat="42.65989" lon="0.99868">
        <ele>2001</ele>
        <time>2022-05-22 21:22:25</time>
      </trkpt>
      <trkpt lat="42.6599" lon="0.99866">
        <ele>2001.2</ele>
        <time>2022-05-22 21:22:26</time>
      </trkpt>
      <trkpt lat="42.65991" lon="0.99864">
        <ele>2001.4</ele>
        <time>2022-05-22 21:22:27</time>
      </trkpt>
      <trkpt lat="42.65992" lon="0.99862">
        <ele>2001.4</ele>
        <time>2022-05-22 21:22:28</time>
      </trkpt>
      <trkpt lat="42.65993" lon="0.9986">
        <ele>2001.6</ele>
        <time>2022-05-22 21:22:29</time>
      </trkpt>
      <trkpt lat="42.65994" lon="0.99857">
        <ele>2001.8</ele>
        <time>2022-05-22 21:22:30</time>
      </trkpt>
      <trkpt lat="42.65995" lon="0.99855">
        <ele>2002</ele>
        <time>2022-05-22 21:22:31</time>
      </trkpt>
      <trkpt lat="42.65996" lon="0.99852">
        <ele>2002.2</ele>
        <time>2022-05-22 21:22:32</time>
      </trkpt>
      <trkpt lat="42.65997" lon="0.9985">
        <ele>2002.4</ele>
        <time>2022-05-22 21:22:33</time>
      </trkpt>
      <trkpt lat="42.65998" lon="0.99848">
        <ele>2002.4</ele>
        <time>2022-05-22 21:22:34</time>
      </trkpt>
      <trkpt lat="42.65999" lon="0.99845">
        <ele>2002.6</ele>
        <time>2022-05-22 21:22:35</time>
      </trkpt>
      <trkpt lat="42.66" lon="0.99843">
        <ele>2002.8</ele>
        <time>2022-05-22 21:22:36</time>
      </trkpt>
      <trkpt lat="42.66" lon="0.9984">
        <ele>2002.8</ele>
        <time>2022-05-22 21:22:37</time>
      </trkpt>
      <trkpt lat="42.66001" lon="0.99838">
        <ele>2003</ele>
        <time>2022-05-22 21:22:38</time>
      </trkpt>
      <trkpt lat="42.66001" lon="0.99834">
        <ele>2003.2</ele>
        <time>2022-05-22 21:22:39</time>
      </trkpt>
      <trkpt lat="42.66001" lon="0.99831">
        <ele>2003.4</ele>
        <time>2022-05-22 21:22:40</time>
      </trkpt>
      <trkpt lat="42.66002" lon="0.99828">
        <ele>2003.4</ele>
        <time>2022-05-22 21:22:41</time>
      </trkpt>
      <trkpt lat="42.66002" lon="0.99825">
        <ele>2003.6</ele>
        <time>2022-05-22 21:22:42</time>
      </trkpt>
      <trkpt lat="42.66003" lon="0.99821">
        <ele>2003.8</ele>
        <time>2022-05-22 21:22:43</time>
      </trkpt>
      <trkpt lat="42.66004" lon="0.99818">
        <ele>2004</ele>
        <time>2022-05-22 21:22:44</time>
      </trkpt>
      <trkpt lat="42.66004" lon="0.99815">
        <ele>2004</ele>
        <time>2022-05-22 21:22:45</time>
      </trkpt>
      <trkpt lat="42.66005" lon="0.99813">
        <ele>2004.2</ele>
        <time>2022-05-22 21:22:46</time>
      </trkpt>
      <trkpt lat="42.66005" lon="0.9981">
        <ele>2004.4</ele>
        <time>2022-05-22 21:22:47</time>
      </trkpt>
      <trkpt lat="42.66006" lon="0.99806">
        <ele>2004.6</ele>
        <time>2022-05-22 21:22:48</time>
      </trkpt>
      <trkpt lat="42.66006" lon="0.99803">
        <ele>2004.6</ele>
        <time>2022-05-22 21:22:49</time>
      </trkpt>
      <trkpt lat="42.66006" lon="0.998">
        <ele>2004.8</ele>
        <time>2022-05-22 21:22:50</time>
      </trkpt>
      <trkpt lat="42.66006" lon="0.99798">
        <ele>2005</ele>
        <time>2022-05-22 21:22:51</time>
      </trkpt>
      <trkpt lat="42.66007" lon="0.99795">
        <ele>2005.2</ele>
        <time>2022-05-22 21:22:52</time>
      </trkpt>
      <trkpt lat="42.66007" lon="0.99792">
        <ele>2005.4</ele>
        <time>2022-05-22 21:22:53</time>
      </trkpt>
      <trkpt lat="42.66008" lon="0.99789">
        <ele>2005.6</ele>
        <time>2022-05-22 21:22:54</time>
      </trkpt>
      <trkpt lat="42.66009" lon="0.99786">
        <ele>2005.8</ele>
        <time>2022-05-22 21:22:55</time>
      </trkpt>
      <trkpt lat="42.66009" lon="0.99783">
        <ele>2005.8</ele>
        <time>2022-05-22 21:22:56</time>
      </trkpt>
      <trkpt lat="42.6601" lon="0.9978">
        <ele>2006</ele>
        <time>2022-05-22 21:22:57</time>
      </trkpt>
      <trkpt lat="42.6601" lon="0.99778">
        <ele>2006.2</ele>
        <time>2022-05-22 21:22:58</time>
      </trkpt>
      <trkpt lat="42.6601" lon="0.99776">
        <ele>2006.4</ele>
        <time>2022-05-22 21:22:59</time>
      </trkpt>
      <trkpt lat="42.66011" lon="0.99774">
        <ele>2006.4</ele>
        <time>2022-05-22 21:23:00</time>
      </trkpt>
      <trkpt lat="42.66012" lon="0.9977">
        <ele>2006.6</ele>
        <time>2022-05-22 21:23:01</time>
      </trkpt>
      <trkpt lat="42.66012" lon="0.99767">
        <ele>2006.8</ele>
        <time>2022-05-22 21:23:02</time>
      </trkpt>
      <trkpt lat="42.66013" lon="0.99764">
        <ele>2007</ele>
        <time>2022-05-22 21:23:03</time>
      </trkpt>
      <trkpt lat="42.66013" lon="0.99761">
        <ele>2007.2</ele>
        <time>2022-05-22 21:23:04</time>
      </trkpt>
      <trkpt lat="42.66014" lon="0.99758">
        <ele>2007.2</ele>
        <time>2022-05-22 21:23:05</time>
      </trkpt>
      <trkpt lat="42.66015" lon="0.99756">
        <ele>2007.4</ele>
        <time>2022-05-22 21:23:06</time>
      </trkpt>
      <trkpt lat="42.66015" lon="0.99753">
        <ele>2007.4</ele>
        <time>2022-05-22 21:23:07</time>
      </trkpt>
      <trkpt lat="42.66016" lon="0.9975">
        <ele>2007.6</ele>
        <time>2022-05-22 21:23:08</time>
      </trkpt>
      <trkpt lat="42.66016" lon="0.99747">
        <ele>2007.8</ele>
        <time>2022-05-22 21:23:09</time>
      </trkpt>
      <trkpt lat="42.66017" lon="0.99745">
        <ele>2007.8</ele>
        <time>2022-05-22 21:23:10</time>
      </trkpt>
      <trkpt lat="42.66017" lon="0.99742">
        <ele>2008</ele>
        <time>2022-05-22 21:23:11</time>
      </trkpt>
      <trkpt lat="42.66018" lon="0.9974">
        <ele>2008.2</ele>
        <time>2022-05-22 21:23:12</time>
      </trkpt>
      <trkpt lat="42.66019" lon="0.99737">
        <ele>2008.4</ele>
        <time>2022-05-22 21:23:13</time>
      </trkpt>
      <trkpt lat="42.6602" lon="0.99734">
        <ele>2008.4</ele>
        <time>2022-05-22 21:23:14</time>
      </trkpt>
      <trkpt lat="42.6602" lon="0.99731">
        <ele>2008.6</ele>
        <time>2022-05-22 21:23:15</time>
      </trkpt>
      <trkpt lat="42.6602" lon="0.99729">
        <ele>2008.8</ele>
        <time>2022-05-22 21:23:16</time>
      </trkpt>
      <trkpt lat="42.6602" lon="0.99726">
        <ele>2009</ele>
        <time>2022-05-22 21:23:17</time>
      </trkpt>
      <trkpt lat="42.6602" lon="0.99722">
        <ele>2009.2</ele>
        <time>2022-05-22 21:23:18</time>
      </trkpt>
      <trkpt lat="42.66021" lon="0.9972">
        <ele>2009.2</ele>
        <time>2022-05-22 21:23:19</time>
      </trkpt>
      <trkpt lat="42.66021" lon="0.99717">
        <ele>2009.4</ele>
        <time>2022-05-22 21:23:20</time>
      </trkpt>
      <trkpt lat="42.66022" lon="0.99715">
        <ele>2009.6</ele>
        <time>2022-05-22 21:23:21</time>
      </trkpt>
      <trkpt lat="42.66023" lon="0.99712">
        <ele>2009.8</ele>
        <time>2022-05-22 21:23:22</time>
      </trkpt>
      <trkpt lat="42.66023" lon="0.99709">
        <ele>2009.8</ele>
        <time>2022-05-22 21:23:23</time>
      </trkpt>
      <trkpt lat="42.66024" lon="0.99707">
        <ele>2010</ele>
        <time>2022-05-22 21:23:24</time>
      </trkpt>
      <trkpt lat="42.66024" lon="0.99704">
        <ele>2010.2</ele>
        <time>2022-05-22 21:23:25</time>
      </trkpt>
      <trkpt lat="42.66025" lon="0.99702">
        <ele>2010.4</ele>
        <time>2022-05-22 21:23:26</time>
      </trkpt>
      <trkpt lat="42.66026" lon="0.99699">
        <ele>2010.4</ele>
        <time>2022-05-22 21:23:27</time>
      </trkpt>
      <trkpt lat="42.66027" lon="0.99696">
        <ele>2010.6</ele>
        <time>2022-05-22 21:23:28</time>
      </trkpt>
      <trkpt lat="42.66028" lon="0.99694">
        <ele>2010.8</ele>
        <time>2022-05-22 21:23:29</time>
      </trkpt>
      <trkpt lat="42.66029" lon="0.99692">
        <ele>2011</ele>
        <time>2022-05-22 21:23:30</time>
      </trkpt>
      <trkpt lat="42.66029" lon="0.99689">
        <ele>2011</ele>
        <time>2022-05-22 21:23:31</time>
      </trkpt>
      <trkpt lat="42.6603" lon="0.99687">
        <ele>2011.2</ele>
        <time>2022-05-22 21:23:32</time>
      </trkpt>
      <trkpt lat="42.66031" lon="0.99684">
        <ele>2011.4</ele>
        <time>2022-05-22 21:23:33</time>
      </trkpt>
      <trkpt lat="42.66032" lon="0.99681">
        <ele>2011.6</ele>
        <time>2022-05-22 21:23:34</time>
      </trkpt>
      <trkpt lat="42.66033" lon="0.99678">
        <ele>2011.6</ele>
        <time>2022-05-22 21:23:35</time>
      </trkpt>
      <trkpt lat="42.66033" lon="0.99676">
        <ele>2011.8</ele>
        <time>2022-05-22 21:23:36</time>
      </trkpt>
      <trkpt lat="42.66034" lon="0.99673">
        <ele>2012</ele>
        <time>2022-05-22 21:23:37</time>
      </trkpt>
      <trkpt lat="42.66034" lon="0.9967">
        <ele>2012.2</ele>
        <time>2022-05-22 21:23:38</time>
      </trkpt>
      <trkpt lat="42.66034" lon="0.99667">
        <ele>2012.4</ele>
        <time>2022-05-22 21:23:39</time>
      </trkpt>
      <trkpt lat="42.66034" lon="0.99664">
        <ele>2012.4</ele>
        <time>2022-05-22 21:23:40</time>
      </trkpt>
      <trkpt lat="42.66034" lon="0.99661">
        <ele>2012.6</ele>
        <time>2022-05-22 21:23:41</time>
      </trkpt>
      <trkpt lat="42.66034" lon="0.99658">
        <ele>2012.8</ele>
        <time>2022-05-22 21:23:42</time>
      </trkpt>
      <trkpt lat="42.66034" lon="0.99655">
        <ele>2013</ele>
        <time>2022-05-22 21:23:43</time>
      </trkpt>
      <trkpt lat="42.66035" lon="0.99652">
        <ele>2013.2</ele>
        <time>2022-05-22 21:23:44</time>
      </trkpt>
      <trkpt lat="42.66035" lon="0.99649">
        <ele>2013.2</ele>
        <time>2022-05-22 21:23:45</time>
      </trkpt>
      <trkpt lat="42.66036" lon="0.99647">
        <ele>2013.4</ele>
        <time>2022-05-22 21:23:46</time>
      </trkpt>
      <trkpt lat="42.66036" lon="0.99644">
        <ele>2013.6</ele>
        <time>2022-05-22 21:23:47</time>
      </trkpt>
      <trkpt lat="42.66038" lon="0.99641">
        <ele>2013.8</ele>
        <time>2022-05-22 21:23:48</time>
      </trkpt>
      <trkpt lat="42.66038" lon="0.99638">
        <ele>2013.8</ele>
        <time>2022-05-22 21:23:49</time>
      </trkpt>
      <trkpt lat="42.66039" lon="0.99635">
        <ele>2014</ele>
        <time>2022-05-22 21:23:50</time>
      </trkpt>
      <trkpt lat="42.6604" lon="0.99633">
        <ele>2014.2</ele>
        <time>2022-05-22 21:23:51</time>
      </trkpt>
      <trkpt lat="42.66041" lon="0.9963">
        <ele>2014.4</ele>
        <time>2022-05-22 21:23:52</time>
      </trkpt>
      <trkpt lat="42.66042" lon="0.99627">
        <ele>2014.6</ele>
        <time>2022-05-22 21:23:53</time>
      </trkpt>
      <trkpt lat="42.66044" lon="0.99625">
        <ele>2014.8</ele>
        <time>2022-05-22 21:23:54</time>
      </trkpt>
      <trkpt lat="42.66044" lon="0.99622">
        <ele>2015</ele>
        <time>2022-05-22 21:23:55</time>
      </trkpt>
      <trkpt lat="42.66045" lon="0.9962">
        <ele>2015.2</ele>
        <time>2022-05-22 21:23:56</time>
      </trkpt>
      <trkpt lat="42.66046" lon="0.99617">
        <ele>2015.4</ele>
        <time>2022-05-22 21:23:57</time>
      </trkpt>
      <trkpt lat="42.66046" lon="0.99614">
        <ele>2015.4</ele>
        <time>2022-05-22 21:23:58</time>
      </trkpt>
      <trkpt lat="42.66046" lon="0.99611">
        <ele>2015.6</ele>
        <time>2022-05-22 21:23:59</time>
      </trkpt>
      <trkpt lat="42.66047" lon="0.99608">
        <ele>2015.8</ele>
        <time>2022-05-22 21:24:00</time>
      </trkpt>
      <trkpt lat="42.66047" lon="0.99606">
        <ele>2016</ele>
        <time>2022-05-22 21:24:01</time>
      </trkpt>
      <trkpt lat="42.66047" lon="0.99604">
        <ele>2016</ele>
        <time>2022-05-22 21:24:02</time>
      </trkpt>
      <trkpt lat="42.66047" lon="0.996">
        <ele>2016.2</ele>
        <time>2022-05-22 21:24:03</time>
      </trkpt>
      <trkpt lat="42.66047" lon="0.99597">
        <ele>2016.4</ele>
        <time>2022-05-22 21:24:04</time>
      </trkpt>
      <trkpt lat="42.66047" lon="0.99595">
        <ele>2016.6</ele>
        <time>2022-05-22 21:24:05</time>
      </trkpt>
      <trkpt lat="42.66047" lon="0.99592">
        <ele>2016.8</ele>
        <time>2022-05-22 21:24:06</time>
      </trkpt>
      <trkpt lat="42.66047" lon="0.99588">
        <ele>2016.8</ele>
        <time>2022-05-22 21:24:07</time>
      </trkpt>
      <trkpt lat="42.66047" lon="0.99585">
        <ele>2017</ele>
        <time>2022-05-22 21:24:08</time>
      </trkpt>
      <trkpt lat="42.66048" lon="0.99583">
        <ele>2017.2</ele>
        <time>2022-05-22 21:24:09</time>
      </trkpt>
      <trkpt lat="42.66049" lon="0.9958">
        <ele>2017.4</ele>
        <time>2022-05-22 21:24:10</time>
      </trkpt>
      <trkpt lat="42.66049" lon="0.99577">
        <ele>2017.4</ele>
        <time>2022-05-22 21:24:11</time>
      </trkpt>
      <trkpt lat="42.6605" lon="0.99574">
        <ele>2017.6</ele>
        <time>2022-05-22 21:24:12</time>
      </trkpt>
      <trkpt lat="42.6605" lon="0.99571">
        <ele>2017.8</ele>
        <time>2022-05-22 21:24:13</time>
      </trkpt>
      <trkpt lat="42.6605" lon="0.99569">
        <ele>2018</ele>
        <time>2022-05-22 21:24:14</time>
      </trkpt>
      <trkpt lat="42.66051" lon="0.99566">
        <ele>2018.2</ele>
        <time>2022-05-22 21:24:15</time>
      </trkpt>
      <trkpt lat="42.66051" lon="0.99563">
        <ele>2018.2</ele>
        <time>2022-05-22 21:24:16</time>
      </trkpt>
      <trkpt lat="42.66051" lon="0.9956">
        <ele>2018.4</ele>
        <time>2022-05-22 21:24:17</time>
      </trkpt>
      <trkpt lat="42.66052" lon="0.99557">
        <ele>2018.6</ele>
        <time>2022-05-22 21:24:18</time>
      </trkpt>
      <trkpt lat="42.66052" lon="0.99554">
        <ele>2018.6</ele>
        <time>2022-05-22 21:24:19</time>
      </trkpt>
      <trkpt lat="42.66052" lon="0.99552">
        <ele>2018.8</ele>
        <time>2022-05-22 21:24:20</time>
      </trkpt>
      <trkpt lat="42.66052" lon="0.99549">
        <ele>2019</ele>
        <time>2022-05-22 21:24:21</time>
      </trkpt>
      <trkpt lat="42.66053" lon="0.99546">
        <ele>2019.2</ele>
        <time>2022-05-22 21:24:22</time>
      </trkpt>
      <trkpt lat="42.66053" lon="0.99543">
        <ele>2019.2</ele>
        <time>2022-05-22 21:24:23</time>
      </trkpt>
      <trkpt lat="42.66053" lon="0.9954">
        <ele>2019.4</ele>
        <time>2022-05-22 21:24:24</time>
      </trkpt>
      <trkpt lat="42.66053" lon="0.99537">
        <ele>2019.6</ele>
        <time>2022-05-22 21:24:25</time>
      </trkpt>
      <trkpt lat="42.66053" lon="0.99534">
        <ele>2019.8</ele>
        <time>2022-05-22 21:24:26</time>
      </trkpt>
      <trkpt lat="42.66053" lon="0.99532">
        <ele>2020</ele>
        <time>2022-05-22 21:24:27</time>
      </trkpt>
      <trkpt lat="42.66053" lon="0.99529">
        <ele>2020</ele>
        <time>2022-05-22 21:24:28</time>
      </trkpt>
      <trkpt lat="42.66054" lon="0.99526">
        <ele>2020.2</ele>
        <time>2022-05-22 21:24:29</time>
      </trkpt>
      <trkpt lat="42.66054" lon="0.99523">
        <ele>2020.4</ele>
        <time>2022-05-22 21:24:30</time>
      </trkpt>
      <trkpt lat="42.66054" lon="0.99521">
        <ele>2020.6</ele>
        <time>2022-05-22 21:24:31</time>
      </trkpt>
      <trkpt lat="42.66054" lon="0.99518">
        <ele>2020.8</ele>
        <time>2022-05-22 21:24:32</time>
      </trkpt>
      <trkpt lat="42.66054" lon="0.99515">
        <ele>2021</ele>
        <time>2022-05-22 21:24:33</time>
      </trkpt>
      <trkpt lat="42.66054" lon="0.99512">
        <ele>2021.2</ele>
        <time>2022-05-22 21:24:34</time>
      </trkpt>
      <trkpt lat="42.66053" lon="0.99509">
        <ele>2021.2</ele>
        <time>2022-05-22 21:24:35</time>
      </trkpt>
      <trkpt lat="42.66053" lon="0.99507">
        <ele>2021.4</ele>
        <time>2022-05-22 21:24:36</time>
      </trkpt>
      <trkpt lat="42.66053" lon="0.99504">
        <ele>2021.6</ele>
        <time>2022-05-22 21:24:37</time>
      </trkpt>
      <trkpt lat="42.66053" lon="0.99501">
        <ele>2021.8</ele>
        <time>2022-05-22 21:24:38</time>
      </trkpt>
      <trkpt lat="42.66053" lon="0.99498">
        <ele>2022</ele>
        <time>2022-05-22 21:24:39</time>
      </trkpt>
      <trkpt lat="42.66053" lon="0.99496">
        <ele>2022.2</ele>
        <time>2022-05-22 21:24:40</time>
      </trkpt>
      <trkpt lat="42.66053" lon="0.99493">
        <ele>2022.2</ele>
        <time>2022-05-22 21:24:41</time>
      </trkpt>
      <trkpt lat="42.66052" lon="0.9949">
        <ele>2022.4</ele>
        <time>2022-05-22 21:24:42</time>
      </trkpt>
      <trkpt lat="42.66052" lon="0.99487">
        <ele>2022.6</ele>
        <time>2022-05-22 21:24:43</time>
      </trkpt>
      <trkpt lat="42.66052" lon="0.99484">
        <ele>2022.8</ele>
        <time>2022-05-22 21:24:44</time>
      </trkpt>
      <trkpt lat="42.66052" lon="0.99482">
        <ele>2023</ele>
        <time>2022-05-22 21:24:45</time>
      </trkpt>
      <trkpt lat="42.66053" lon="0.9948">
        <ele>2023.2</ele>
        <time>2022-05-22 21:24:46</time>
      </trkpt>
      <trkpt lat="42.66053" lon="0.99477">
        <ele>2023.4</ele>
        <time>2022-05-22 21:24:47</time>
      </trkpt>
      <trkpt lat="42.66052" lon="0.99474">
        <ele>2023.6</ele>
        <time>2022-05-22 21:24:48</time>
      </trkpt>
      <trkpt lat="42.66052" lon="0.99472">
        <ele>2023.8</ele>
        <time>2022-05-22 21:24:49</time>
      </trkpt>
      <trkpt lat="42.66051" lon="0.99469">
        <ele>2024</ele>
        <time>2022-05-22 21:24:50</time>
      </trkpt>
      <trkpt lat="42.66049" lon="0.99467">
        <ele>2024</ele>
        <time>2022-05-22 21:24:51</time>
      </trkpt>
      <trkpt lat="42.66049" lon="0.99464">
        <ele>2024.2</ele>
        <time>2022-05-22 21:24:52</time>
      </trkpt>
      <trkpt lat="42.66048" lon="0.99462">
        <ele>2024.4</ele>
        <time>2022-05-22 21:24:53</time>
      </trkpt>
      <trkpt lat="42.66047" lon="0.99459">
        <ele>2024.6</ele>
        <time>2022-05-22 21:24:54</time>
      </trkpt>
      <trkpt lat="42.66046" lon="0.99457">
        <ele>2024.8</ele>
        <time>2022-05-22 21:24:55</time>
      </trkpt>
      <trkpt lat="42.66045" lon="0.99455">
        <ele>2025</ele>
        <time>2022-05-22 21:24:56</time>
      </trkpt>
      <trkpt lat="42.66044" lon="0.99453">
        <ele>2025.2</ele>
        <time>2022-05-22 21:24:57</time>
      </trkpt>
      <trkpt lat="42.66043" lon="0.9945">
        <ele>2025.4</ele>
        <time>2022-05-22 21:24:58</time>
      </trkpt>
      <trkpt lat="42.66042" lon="0.99448">
        <ele>2025.6</ele>
        <time>2022-05-22 21:24:59</time>
      </trkpt>
      <trkpt lat="42.66041" lon="0.99445">
        <ele>2025.8</ele>
        <time>2022-05-22 21:25:00</time>
      </trkpt>
      <trkpt lat="42.6604" lon="0.99443">
        <ele>2026</ele>
        <time>2022-05-22 21:25:01</time>
      </trkpt>
      <trkpt lat="42.66038" lon="0.99441">
        <ele>2026.2</ele>
        <time>2022-05-22 21:25:02</time>
      </trkpt>
      <trkpt lat="42.66037" lon="0.99439">
        <ele>2026.2</ele>
        <time>2022-05-22 21:25:03</time>
      </trkpt>
      <trkpt lat="42.66036" lon="0.99437">
        <ele>2026.4</ele>
        <time>2022-05-22 21:25:04</time>
      </trkpt>
      <trkpt lat="42.66034" lon="0.99435">
        <ele>2026.6</ele>
        <time>2022-05-22 21:25:05</time>
      </trkpt>
      <trkpt lat="42.66033" lon="0.99433">
        <ele>2026.8</ele>
        <time>2022-05-22 21:25:06</time>
      </trkpt>
      <trkpt lat="42.66032" lon="0.99431">
        <ele>2027</ele>
        <time>2022-05-22 21:25:07</time>
      </trkpt>
      <trkpt lat="42.6603" lon="0.99428">
        <ele>2027.2</ele>
        <time>2022-05-22 21:25:08</time>
      </trkpt>
      <trkpt lat="42.66029" lon="0.99426">
        <ele>2027.4</ele>
        <time>2022-05-22 21:25:09</time>
      </trkpt>
      <trkpt lat="42.66028" lon="0.99424">
        <ele>2027.6</ele>
        <time>2022-05-22 21:25:10</time>
      </trkpt>
      <trkpt lat="42.66027" lon="0.99422">
        <ele>2027.8</ele>
        <time>2022-05-22 21:25:11</time>
      </trkpt>
      <trkpt lat="42.66025" lon="0.9942">
        <ele>2028</ele>
        <time>2022-05-22 21:25:12</time>
      </trkpt>
      <trkpt lat="42.66024" lon="0.99418">
        <ele>2028.2</ele>
        <time>2022-05-22 21:25:13</time>
      </trkpt>
      <trkpt lat="42.66022" lon="0.99416">
        <ele>2028.4</ele>
        <time>2022-05-22 21:25:14</time>
      </trkpt>
      <trkpt lat="42.66021" lon="0.99414">
        <ele>2028.6</ele>
        <time>2022-05-22 21:25:15</time>
      </trkpt>
      <trkpt lat="42.6602" lon="0.99413">
        <ele>2028.6</ele>
        <time>2022-05-22 21:25:16</time>
      </trkpt>
      <trkpt lat="42.66018" lon="0.99411">
        <ele>2029</ele>
        <time>2022-05-22 21:25:17</time>
      </trkpt>
      <trkpt lat="42.66017" lon="0.99409">
        <ele>2029.2</ele>
        <time>2022-05-22 21:25:18</time>
      </trkpt>
      <trkpt lat="42.66016" lon="0.99407">
        <ele>2029.2</ele>
        <time>2022-05-22 21:25:19</time>
      </trkpt>
      <trkpt lat="42.66015" lon="0.99405">
        <ele>2029.4</ele>
        <time>2022-05-22 21:25:20</time>
      </trkpt>
      <trkpt lat="42.66014" lon="0.99403">
        <ele>2029.6</ele>
        <time>2022-05-22 21:25:21</time>
      </trkpt>
      <trkpt lat="42.66012" lon="0.99401">
        <ele>2029.8</ele>
        <time>2022-05-22 21:25:22</time>
      </trkpt>
      <trkpt lat="42.66011" lon="0.99399">
        <ele>2030</ele>
        <time>2022-05-22 21:25:23</time>
      </trkpt>
      <trkpt lat="42.6601" lon="0.99397">
        <ele>2030</ele>
        <time>2022-05-22 21:25:24</time>
      </trkpt>
      <trkpt lat="42.66009" lon="0.99395">
        <ele>2030.2</ele>
        <time>2022-05-22 21:25:25</time>
      </trkpt>
      <trkpt lat="42.66008" lon="0.99392">
        <ele>2030.2</ele>
        <time>2022-05-22 21:25:26</time>
      </trkpt>
      <trkpt lat="42.66007" lon="0.9939">
        <ele>2030.4</ele>
        <time>2022-05-22 21:25:27</time>
      </trkpt>
      <trkpt lat="42.66007" lon="0.99387">
        <ele>2030.6</ele>
        <time>2022-05-22 21:25:28</time>
      </trkpt>
      <trkpt lat="42.66006" lon="0.99384">
        <ele>2030.8</ele>
        <time>2022-05-22 21:25:29</time>
      </trkpt>
      <trkpt lat="42.66005" lon="0.99381">
        <ele>2031</ele>
        <time>2022-05-22 21:25:30</time>
      </trkpt>
      <trkpt lat="42.66005" lon="0.99378">
        <ele>2031</ele>
        <time>2022-05-22 21:25:31</time>
      </trkpt>
      <trkpt lat="42.66005" lon="0.99375">
        <ele>2031.2</ele>
        <time>2022-05-22 21:25:32</time>
      </trkpt>
      <trkpt lat="42.66005" lon="0.99371">
        <ele>2031.4</ele>
        <time>2022-05-22 21:25:33</time>
      </trkpt>
      <trkpt lat="42.66005" lon="0.99368">
        <ele>2031.6</ele>
        <time>2022-05-22 21:25:34</time>
      </trkpt>
      <trkpt lat="42.66005" lon="0.99365">
        <ele>2031.6</ele>
        <time>2022-05-22 21:25:35</time>
      </trkpt>
      <trkpt lat="42.66005" lon="0.99361">
        <ele>2031.8</ele>
        <time>2022-05-22 21:25:36</time>
      </trkpt>
      <trkpt lat="42.66005" lon="0.99357">
        <ele>2031.8</ele>
        <time>2022-05-22 21:25:37</time>
      </trkpt>
      <trkpt lat="42.66005" lon="0.99354">
        <ele>2032</ele>
        <time>2022-05-22 21:25:38</time>
      </trkpt>
      <trkpt lat="42.66005" lon="0.9935">
        <ele>2032.2</ele>
        <time>2022-05-22 21:25:39</time>
      </trkpt>
      <trkpt lat="42.66005" lon="0.99347">
        <ele>2032.2</ele>
        <time>2022-05-22 21:25:40</time>
      </trkpt>
      <trkpt lat="42.66005" lon="0.99343">
        <ele>2032.4</ele>
        <time>2022-05-22 21:25:41</time>
      </trkpt>
      <trkpt lat="42.66006" lon="0.99339">
        <ele>2032.6</ele>
        <time>2022-05-22 21:25:42</time>
      </trkpt>
      <trkpt lat="42.66007" lon="0.99336">
        <ele>2032.8</ele>
        <time>2022-05-22 21:25:43</time>
      </trkpt>
      <trkpt lat="42.66007" lon="0.99332">
        <ele>2032.8</ele>
        <time>2022-05-22 21:25:44</time>
      </trkpt>
      <trkpt lat="42.66008" lon="0.99329">
        <ele>2033</ele>
        <time>2022-05-22 21:25:45</time>
      </trkpt>
      <trkpt lat="42.66008" lon="0.99325">
        <ele>2033</ele>
        <time>2022-05-22 21:25:46</time>
      </trkpt>
      <trkpt lat="42.66009" lon="0.99322">
        <ele>2033.2</ele>
        <time>2022-05-22 21:25:47</time>
      </trkpt>
      <trkpt lat="42.66009" lon="0.99319">
        <ele>2033.4</ele>
        <time>2022-05-22 21:25:48</time>
      </trkpt>
      <trkpt lat="42.6601" lon="0.99315">
        <ele>2033.4</ele>
        <time>2022-05-22 21:25:49</time>
      </trkpt>
      <trkpt lat="42.66011" lon="0.99312">
        <ele>2033.6</ele>
        <time>2022-05-22 21:25:50</time>
      </trkpt>
      <trkpt lat="42.66011" lon="0.99309">
        <ele>2033.8</ele>
        <time>2022-05-22 21:25:51</time>
      </trkpt>
      <trkpt lat="42.66012" lon="0.99305">
        <ele>2034</ele>
        <time>2022-05-22 21:25:52</time>
      </trkpt>
      <trkpt lat="42.66013" lon="0.99301">
        <ele>2034</ele>
        <time>2022-05-22 21:25:53</time>
      </trkpt>
      <trkpt lat="42.66014" lon="0.99298">
        <ele>2034.2</ele>
        <time>2022-05-22 21:25:54</time>
      </trkpt>
      <trkpt lat="42.66014" lon="0.99294">
        <ele>2034.4</ele>
        <time>2022-05-22 21:25:55</time>
      </trkpt>
      <trkpt lat="42.66015" lon="0.9929">
        <ele>2034.4</ele>
        <time>2022-05-22 21:25:56</time>
      </trkpt>
      <trkpt lat="42.66016" lon="0.99286">
        <ele>2034.6</ele>
        <time>2022-05-22 21:25:57</time>
      </trkpt>
      <trkpt lat="42.66017" lon="0.99283">
        <ele>2034.6</ele>
        <time>2022-05-22 21:25:58</time>
      </trkpt>
      <trkpt lat="42.66018" lon="0.99279">
        <ele>2034.8</ele>
        <time>2022-05-22 21:25:59</time>
      </trkpt>
      <trkpt lat="42.6602" lon="0.99275">
        <ele>2034.8</ele>
        <time>2022-05-22 21:26:00</time>
      </trkpt>
      <trkpt lat="42.6602" lon="0.99271">
        <ele>2035</ele>
        <time>2022-05-22 21:26:01</time>
      </trkpt>
      <trkpt lat="42.66021" lon="0.99267">
        <ele>2035</ele>
        <time>2022-05-22 21:26:02</time>
      </trkpt>
      <trkpt lat="42.66023" lon="0.99264">
        <ele>2035.2</ele>
        <time>2022-05-22 21:26:03</time>
      </trkpt>
      <trkpt lat="42.66024" lon="0.9926">
        <ele>2035.4</ele>
        <time>2022-05-22 21:26:04</time>
      </trkpt>
      <trkpt lat="42.66026" lon="0.99256">
        <ele>2035.4</ele>
        <time>2022-05-22 21:26:05</time>
      </trkpt>
      <trkpt lat="42.66027" lon="0.99252">
        <ele>2035.6</ele>
        <time>2022-05-22 21:26:06</time>
      </trkpt>
      <trkpt lat="42.66029" lon="0.99248">
        <ele>2035.6</ele>
        <time>2022-05-22 21:26:07</time>
      </trkpt>
      <trkpt lat="42.66031" lon="0.99244">
        <ele>2035.8</ele>
        <time>2022-05-22 21:26:08</time>
      </trkpt>
      <trkpt lat="42.66033" lon="0.9924">
        <ele>2035.8</ele>
        <time>2022-05-22 21:26:09</time>
      </trkpt>
      <trkpt lat="42.66035" lon="0.99237">
        <ele>2036</ele>
        <time>2022-05-22 21:26:10</time>
      </trkpt>
      <trkpt lat="42.66038" lon="0.99233">
        <ele>2036</ele>
        <time>2022-05-22 21:26:11</time>
      </trkpt>
      <trkpt lat="42.6604" lon="0.99229">
        <ele>2036.2</ele>
        <time>2022-05-22 21:26:12</time>
      </trkpt>
      <trkpt lat="42.66042" lon="0.99226">
        <ele>2036.2</ele>
        <time>2022-05-22 21:26:13</time>
      </trkpt>
      <trkpt lat="42.66044" lon="0.99222">
        <ele>2036.4</ele>
        <time>2022-05-22 21:26:14</time>
      </trkpt>
      <trkpt lat="42.66047" lon="0.99219">
        <ele>2036.4</ele>
        <time>2022-05-22 21:26:15</time>
      </trkpt>
      <trkpt lat="42.6605" lon="0.99215">
        <ele>2036.6</ele>
        <time>2022-05-22 21:26:16</time>
      </trkpt>
      <trkpt lat="42.66052" lon="0.99211">
        <ele>2036.6</ele>
        <time>2022-05-22 21:26:17</time>
      </trkpt>
      <trkpt lat="42.66055" lon="0.99208">
        <ele>2036.6</ele>
        <time>2022-05-22 21:26:18</time>
      </trkpt>
      <trkpt lat="42.66058" lon="0.99205">
        <ele>2036.6</ele>
        <time>2022-05-22 21:26:19</time>
      </trkpt>
      <trkpt lat="42.66061" lon="0.99202">
        <ele>2036.8</ele>
        <time>2022-05-22 21:26:20</time>
      </trkpt>
      <trkpt lat="42.66064" lon="0.992">
        <ele>2036.8</ele>
        <time>2022-05-22 21:26:21</time>
      </trkpt>
      <trkpt lat="42.66067" lon="0.99197">
        <ele>2036.8</ele>
        <time>2022-05-22 21:26:22</time>
      </trkpt>
      <trkpt lat="42.66071" lon="0.99194">
        <ele>2037</ele>
        <time>2022-05-22 21:26:23</time>
      </trkpt>
      <trkpt lat="42.66074" lon="0.99191">
        <ele>2037</ele>
        <time>2022-05-22 21:26:24</time>
      </trkpt>
      <trkpt lat="42.66077" lon="0.99188">
        <ele>2037.2</ele>
        <time>2022-05-22 21:26:25</time>
      </trkpt>
      <trkpt lat="42.66081" lon="0.99186">
        <ele>2037.2</ele>
        <time>2022-05-22 21:26:26</time>
      </trkpt>
      <trkpt lat="42.66085" lon="0.99183">
        <ele>2037.2</ele>
        <time>2022-05-22 21:26:27</time>
      </trkpt>
      <trkpt lat="42.66088" lon="0.9918">
        <ele>2037.4</ele>
        <time>2022-05-22 21:26:28</time>
      </trkpt>
      <trkpt lat="42.66092" lon="0.99178">
        <ele>2037.6</ele>
        <time>2022-05-22 21:26:29</time>
      </trkpt>
      <trkpt lat="42.66095" lon="0.99175">
        <ele>2037.6</ele>
        <time>2022-05-22 21:26:30</time>
      </trkpt>
      <trkpt lat="42.66098" lon="0.99171">
        <ele>2037.8</ele>
        <time>2022-05-22 21:26:31</time>
      </trkpt>
      <trkpt lat="42.66102" lon="0.99168">
        <ele>2038</ele>
        <time>2022-05-22 21:26:32</time>
      </trkpt>
      <trkpt lat="42.66104" lon="0.99165">
        <ele>2038</ele>
        <time>2022-05-22 21:26:33</time>
      </trkpt>
      <trkpt lat="42.66108" lon="0.99162">
        <ele>2038.2</ele>
        <time>2022-05-22 21:26:34</time>
      </trkpt>
      <trkpt lat="42.66111" lon="0.99158">
        <ele>2038.4</ele>
        <time>2022-05-22 21:26:35</time>
      </trkpt>
      <trkpt lat="42.66114" lon="0.99155">
        <ele>2038.6</ele>
        <time>2022-05-22 21:26:36</time>
      </trkpt>
      <trkpt lat="42.66116" lon="0.99152">
        <ele>2038.8</ele>
        <time>2022-05-22 21:26:37</time>
      </trkpt>
      <trkpt lat="42.66119" lon="0.99148">
        <ele>2039</ele>
        <time>2022-05-22 21:26:38</time>
      </trkpt>
      <trkpt lat="42.66122" lon="0.99144">
        <ele>2039.2</ele>
        <time>2022-05-22 21:26:39</time>
      </trkpt>
      <trkpt lat="42.66125" lon="0.99141">
        <ele>2039.4</ele>
        <time>2022-05-22 21:26:40</time>
      </trkpt>
      <trkpt lat="42.66127" lon="0.99137">
        <ele>2039.6</ele>
        <time>2022-05-22 21:26:41</time>
      </trkpt>
      <trkpt lat="42.6613" lon="0.99133">
        <ele>2039.8</ele>
        <time>2022-05-22 21:26:42</time>
      </trkpt>
      <trkpt lat="42.66132" lon="0.99128">
        <ele>2040</ele>
        <time>2022-05-22 21:26:43</time>
      </trkpt>
      <trkpt lat="42.66134" lon="0.99124">
        <ele>2040.2</ele>
        <time>2022-05-22 21:26:44</time>
      </trkpt>
      <trkpt lat="42.66137" lon="0.9912">
        <ele>2040.4</ele>
        <time>2022-05-22 21:26:45</time>
      </trkpt>
      <trkpt lat="42.66139" lon="0.99115">
        <ele>2040.6</ele>
        <time>2022-05-22 21:26:46</time>
      </trkpt>
      <trkpt lat="42.66141" lon="0.9911">
        <ele>2040.8</ele>
        <time>2022-05-22 21:26:47</time>
      </trkpt>
      <trkpt lat="42.66143" lon="0.99106">
        <ele>2041</ele>
        <time>2022-05-22 21:26:48</time>
      </trkpt>
      <trkpt lat="42.66145" lon="0.99101">
        <ele>2041.2</ele>
        <time>2022-05-22 21:26:49</time>
      </trkpt>
      <trkpt lat="42.66146" lon="0.99096">
        <ele>2041.4</ele>
        <time>2022-05-22 21:26:50</time>
      </trkpt>
      <trkpt lat="42.66148" lon="0.99091">
        <ele>2041.6</ele>
        <time>2022-05-22 21:26:51</time>
      </trkpt>
      <trkpt lat="42.66149" lon="0.99086">
        <ele>2041.8</ele>
        <time>2022-05-22 21:26:52</time>
      </trkpt>
      <trkpt lat="42.6615" lon="0.9908">
        <ele>2041.8</ele>
        <time>2022-05-22 21:26:53</time>
      </trkpt>
      <trkpt lat="42.66151" lon="0.99076">
        <ele>2042</ele>
        <time>2022-05-22 21:26:54</time>
      </trkpt>
      <trkpt lat="42.66152" lon="0.9907">
        <ele>2042.2</ele>
        <time>2022-05-22 21:26:55</time>
      </trkpt>
      <trkpt lat="42.66153" lon="0.99065">
        <ele>2042.4</ele>
        <time>2022-05-22 21:26:56</time>
      </trkpt>
      <trkpt lat="42.66155" lon="0.9906">
        <ele>2042.6</ele>
        <time>2022-05-22 21:26:57</time>
      </trkpt>
      <trkpt lat="42.66156" lon="0.99056">
        <ele>2042.6</ele>
        <time>2022-05-22 21:26:58</time>
      </trkpt>
      <trkpt lat="42.66157" lon="0.99051">
        <ele>2042.8</ele>
        <time>2022-05-22 21:26:59</time>
      </trkpt>
      <trkpt lat="42.66158" lon="0.99047">
        <ele>2043</ele>
        <time>2022-05-22 21:27:00</time>
      </trkpt>
      <trkpt lat="42.66159" lon="0.99041">
        <ele>2043.2</ele>
        <time>2022-05-22 21:27:01</time>
      </trkpt>
      <trkpt lat="42.6616" lon="0.99036">
        <ele>2043.4</ele>
        <time>2022-05-22 21:27:02</time>
      </trkpt>
      <trkpt lat="42.6616" lon="0.99031">
        <ele>2043.6</ele>
        <time>2022-05-22 21:27:03</time>
      </trkpt>
      <trkpt lat="42.66161" lon="0.99026">
        <ele>2043.8</ele>
        <time>2022-05-22 21:27:04</time>
      </trkpt>
      <trkpt lat="42.66162" lon="0.99021">
        <ele>2044</ele>
        <time>2022-05-22 21:27:05</time>
      </trkpt>
      <trkpt lat="42.66163" lon="0.99016">
        <ele>2044.2</ele>
        <time>2022-05-22 21:27:06</time>
      </trkpt>
      <trkpt lat="42.66164" lon="0.99011">
        <ele>2044.4</ele>
        <time>2022-05-22 21:27:07</time>
      </trkpt>
      <trkpt lat="42.66165" lon="0.99007">
        <ele>2044.6</ele>
        <time>2022-05-22 21:27:08</time>
      </trkpt>
      <trkpt lat="42.66166" lon="0.99002">
        <ele>2044.8</ele>
        <time>2022-05-22 21:27:09</time>
      </trkpt>
      <trkpt lat="42.66167" lon="0.98997">
        <ele>2045</ele>
        <time>2022-05-22 21:27:10</time>
      </trkpt>
      <trkpt lat="42.66168" lon="0.98992">
        <ele>2045.2</ele>
        <time>2022-05-22 21:27:11</time>
      </trkpt>
      <trkpt lat="42.66168" lon="0.98988">
        <ele>2045.4</ele>
        <time>2022-05-22 21:27:12</time>
      </trkpt>
      <trkpt lat="42.66169" lon="0.98983">
        <ele>2045.6</ele>
        <time>2022-05-22 21:27:13</time>
      </trkpt>
      <trkpt lat="42.6617" lon="0.98978">
        <ele>2045.8</ele>
        <time>2022-05-22 21:27:14</time>
      </trkpt>
      <trkpt lat="42.6617" lon="0.98973">
        <ele>2046</ele>
        <time>2022-05-22 21:27:15</time>
      </trkpt>
      <trkpt lat="42.66171" lon="0.98968">
        <ele>2046.2</ele>
        <time>2022-05-22 21:27:16</time>
      </trkpt>
      <trkpt lat="42.66171" lon="0.98963">
        <ele>2046.4</ele>
        <time>2022-05-22 21:27:17</time>
      </trkpt>
      <trkpt lat="42.66172" lon="0.98959">
        <ele>2046.6</ele>
        <time>2022-05-22 21:27:18</time>
      </trkpt>
      <trkpt lat="42.66172" lon="0.98954">
        <ele>2046.6</ele>
        <time>2022-05-22 21:27:19</time>
      </trkpt>
      <trkpt lat="42.66172" lon="0.98949">
        <ele>2046.8</ele>
        <time>2022-05-22 21:27:20</time>
      </trkpt>
      <trkpt lat="42.66173" lon="0.98945">
        <ele>2047</ele>
        <time>2022-05-22 21:27:21</time>
      </trkpt>
      <trkpt lat="42.66173" lon="0.98941">
        <ele>2047.4</ele>
        <time>2022-05-22 21:27:22</time>
      </trkpt>
      <trkpt lat="42.66174" lon="0.98936">
        <ele>2047.4</ele>
        <time>2022-05-22 21:27:23</time>
      </trkpt>
      <trkpt lat="42.66174" lon="0.98931">
        <ele>2047.6</ele>
        <time>2022-05-22 21:27:24</time>
      </trkpt>
      <trkpt lat="42.66175" lon="0.98926">
        <ele>2047.8</ele>
        <time>2022-05-22 21:27:25</time>
      </trkpt>
      <trkpt lat="42.66175" lon="0.98922">
        <ele>2048</ele>
        <time>2022-05-22 21:27:26</time>
      </trkpt>
      <trkpt lat="42.66176" lon="0.98917">
        <ele>2048.2</ele>
        <time>2022-05-22 21:27:27</time>
      </trkpt>
      <trkpt lat="42.66176" lon="0.98912">
        <ele>2048.4</ele>
        <time>2022-05-22 21:27:28</time>
      </trkpt>
      <trkpt lat="42.66177" lon="0.98908">
        <ele>2048.6</ele>
        <time>2022-05-22 21:27:29</time>
      </trkpt>
      <trkpt lat="42.66178" lon="0.98903">
        <ele>2048.8</ele>
        <time>2022-05-22 21:27:30</time>
      </trkpt>
      <trkpt lat="42.66179" lon="0.98899">
        <ele>2049</ele>
        <time>2022-05-22 21:27:31</time>
      </trkpt>
      <trkpt lat="42.6618" lon="0.98894">
        <ele>2049.2</ele>
        <time>2022-05-22 21:27:32</time>
      </trkpt>
      <trkpt lat="42.66181" lon="0.98889">
        <ele>2049.4</ele>
        <time>2022-05-22 21:27:33</time>
      </trkpt>
      <trkpt lat="42.66182" lon="0.98884">
        <ele>2049.6</ele>
        <time>2022-05-22 21:27:34</time>
      </trkpt>
      <trkpt lat="42.66183" lon="0.98879">
        <ele>2049.6</ele>
        <time>2022-05-22 21:27:35</time>
      </trkpt>
      <trkpt lat="42.66183" lon="0.98873">
        <ele>2049.8</ele>
        <time>2022-05-22 21:27:36</time>
      </trkpt>
      <trkpt lat="42.66184" lon="0.98868">
        <ele>2050</ele>
        <time>2022-05-22 21:27:37</time>
      </trkpt>
      <trkpt lat="42.66185" lon="0.98863">
        <ele>2050.2</ele>
        <time>2022-05-22 21:27:38</time>
      </trkpt>
      <trkpt lat="42.66186" lon="0.98857">
        <ele>2050.4</ele>
        <time>2022-05-22 21:27:39</time>
      </trkpt>
      <trkpt lat="42.66187" lon="0.98852">
        <ele>2050.6</ele>
        <time>2022-05-22 21:27:40</time>
      </trkpt>
      <trkpt lat="42.66187" lon="0.98846">
        <ele>2050.8</ele>
        <time>2022-05-22 21:27:41</time>
      </trkpt>
      <trkpt lat="42.66188" lon="0.9884">
        <ele>2051</ele>
        <time>2022-05-22 21:27:42</time>
      </trkpt>
      <trkpt lat="42.66189" lon="0.98835">
        <ele>2051</ele>
        <time>2022-05-22 21:27:43</time>
      </trkpt>
      <trkpt lat="42.6619" lon="0.9883">
        <ele>2051.2</ele>
        <time>2022-05-22 21:27:44</time>
      </trkpt>
      <trkpt lat="42.66191" lon="0.98824">
        <ele>2051.4</ele>
        <time>2022-05-22 21:27:45</time>
      </trkpt>
      <trkpt lat="42.66192" lon="0.9882">
        <ele>2051.6</ele>
        <time>2022-05-22 21:27:46</time>
      </trkpt>
      <trkpt lat="42.66193" lon="0.98815">
        <ele>2051.8</ele>
        <time>2022-05-22 21:27:47</time>
      </trkpt>
      <trkpt lat="42.66194" lon="0.9881">
        <ele>2052</ele>
        <time>2022-05-22 21:27:48</time>
      </trkpt>
      <trkpt lat="42.66195" lon="0.98806">
        <ele>2052.2</ele>
        <time>2022-05-22 21:27:49</time>
      </trkpt>
      <trkpt lat="42.66196" lon="0.98801">
        <ele>2052.4</ele>
        <time>2022-05-22 21:27:50</time>
      </trkpt>
      <trkpt lat="42.66197" lon="0.98797">
        <ele>2052.6</ele>
        <time>2022-05-22 21:27:51</time>
      </trkpt>
      <trkpt lat="42.66198" lon="0.98792">
        <ele>2052.8</ele>
        <time>2022-05-22 21:27:52</time>
      </trkpt>
      <trkpt lat="42.662" lon="0.98788">
        <ele>2053</ele>
        <time>2022-05-22 21:27:53</time>
      </trkpt>
      <trkpt lat="42.66201" lon="0.98784">
        <ele>2053.2</ele>
        <time>2022-05-22 21:27:54</time>
      </trkpt>
      <trkpt lat="42.66202" lon="0.98779">
        <ele>2053.6</ele>
        <time>2022-05-22 21:27:55</time>
      </trkpt>
      <trkpt lat="42.66204" lon="0.98776">
        <ele>2053.8</ele>
        <time>2022-05-22 21:27:56</time>
      </trkpt>
      <trkpt lat="42.66205" lon="0.98772">
        <ele>2053.8</ele>
        <time>2022-05-22 21:27:57</time>
      </trkpt>
      <trkpt lat="42.66207" lon="0.98769">
        <ele>2054</ele>
        <time>2022-05-22 21:27:58</time>
      </trkpt>
      <trkpt lat="42.66209" lon="0.98765">
        <ele>2054.2</ele>
        <time>2022-05-22 21:27:59</time>
      </trkpt>
      <trkpt lat="42.6621" lon="0.98761">
        <ele>2054.4</ele>
        <time>2022-05-22 21:28:00</time>
      </trkpt>
      <trkpt lat="42.66212" lon="0.98757">
        <ele>2054.4</ele>
        <time>2022-05-22 21:28:01</time>
      </trkpt>
      <trkpt lat="42.66214" lon="0.98753">
        <ele>2054.6</ele>
        <time>2022-05-22 21:28:02</time>
      </trkpt>
      <trkpt lat="42.66215" lon="0.9875">
        <ele>2054.8</ele>
        <time>2022-05-22 21:28:03</time>
      </trkpt>
      <trkpt lat="42.66217" lon="0.98745">
        <ele>2055</ele>
        <time>2022-05-22 21:28:04</time>
      </trkpt>
      <trkpt lat="42.66218" lon="0.98741">
        <ele>2055</ele>
        <time>2022-05-22 21:28:05</time>
      </trkpt>
      <trkpt lat="42.66219" lon="0.98737">
        <ele>2055.2</ele>
        <time>2022-05-22 21:28:06</time>
      </trkpt>
      <trkpt lat="42.6622" lon="0.98732">
        <ele>2055.4</ele>
        <time>2022-05-22 21:28:07</time>
      </trkpt>
      <trkpt lat="42.66221" lon="0.98728">
        <ele>2055.6</ele>
        <time>2022-05-22 21:28:08</time>
      </trkpt>
      <trkpt lat="42.66221" lon="0.98724">
        <ele>2055.8</ele>
        <time>2022-05-22 21:28:09</time>
      </trkpt>
      <trkpt lat="42.66222" lon="0.98719">
        <ele>2055.8</ele>
        <time>2022-05-22 21:28:10</time>
      </trkpt>
      <trkpt lat="42.66223" lon="0.98714">
        <ele>2056</ele>
        <time>2022-05-22 21:28:11</time>
      </trkpt>
      <trkpt lat="42.66224" lon="0.98709">
        <ele>2056.2</ele>
        <time>2022-05-22 21:28:12</time>
      </trkpt>
      <trkpt lat="42.66225" lon="0.98705">
        <ele>2056.2</ele>
        <time>2022-05-22 21:28:13</time>
      </trkpt>
      <trkpt lat="42.66226" lon="0.987">
        <ele>2056.4</ele>
        <time>2022-05-22 21:28:14</time>
      </trkpt>
      <trkpt lat="42.66227" lon="0.98696">
        <ele>2056.4</ele>
        <time>2022-05-22 21:28:15</time>
      </trkpt>
      <trkpt lat="42.66228" lon="0.98691">
        <ele>2056.6</ele>
        <time>2022-05-22 21:28:16</time>
      </trkpt>
      <trkpt lat="42.66229" lon="0.98685">
        <ele>2056.8</ele>
        <time>2022-05-22 21:28:17</time>
      </trkpt>
      <trkpt lat="42.6623" lon="0.98681">
        <ele>2057</ele>
        <time>2022-05-22 21:28:18</time>
      </trkpt>
      <trkpt lat="42.66231" lon="0.98676">
        <ele>2057.2</ele>
        <time>2022-05-22 21:28:19</time>
      </trkpt>
      <trkpt lat="42.66232" lon="0.98671">
        <ele>2057.4</ele>
        <time>2022-05-22 21:28:20</time>
      </trkpt>
      <trkpt lat="42.66234" lon="0.98667">
        <ele>2057.6</ele>
        <time>2022-05-22 21:28:21</time>
      </trkpt>
      <trkpt lat="42.66234" lon="0.98662">
        <ele>2057.6</ele>
        <time>2022-05-22 21:28:22</time>
      </trkpt>
      <trkpt lat="42.66235" lon="0.98657">
        <ele>2057.8</ele>
        <time>2022-05-22 21:28:23</time>
      </trkpt>
      <trkpt lat="42.66236" lon="0.98652">
        <ele>2058</ele>
        <time>2022-05-22 21:28:24</time>
      </trkpt>
      <trkpt lat="42.66238" lon="0.98648">
        <ele>2058.2</ele>
        <time>2022-05-22 21:28:25</time>
      </trkpt>
      <trkpt lat="42.66239" lon="0.98643">
        <ele>2058.4</ele>
        <time>2022-05-22 21:28:26</time>
      </trkpt>
      <trkpt lat="42.6624" lon="0.98639">
        <ele>2058.4</ele>
        <time>2022-05-22 21:28:27</time>
      </trkpt>
      <trkpt lat="42.66242" lon="0.98634">
        <ele>2058.6</ele>
        <time>2022-05-22 21:28:28</time>
      </trkpt>
      <trkpt lat="42.66243" lon="0.9863">
        <ele>2058.8</ele>
        <time>2022-05-22 21:28:29</time>
      </trkpt>
      <trkpt lat="42.66244" lon="0.98625">
        <ele>2059</ele>
        <time>2022-05-22 21:28:30</time>
      </trkpt>
      <trkpt lat="42.66246" lon="0.9862">
        <ele>2059.2</ele>
        <time>2022-05-22 21:28:31</time>
      </trkpt>
      <trkpt lat="42.66247" lon="0.98616">
        <ele>2059.4</ele>
        <time>2022-05-22 21:28:32</time>
      </trkpt>
      <trkpt lat="42.66248" lon="0.98611">
        <ele>2059.6</ele>
        <time>2022-05-22 21:28:33</time>
      </trkpt>
      <trkpt lat="42.6625" lon="0.98606">
        <ele>2059.6</ele>
        <time>2022-05-22 21:28:34</time>
      </trkpt>
      <trkpt lat="42.66251" lon="0.98602">
        <ele>2059.8</ele>
        <time>2022-05-22 21:28:35</time>
      </trkpt>
      <trkpt lat="42.66252" lon="0.98597">
        <ele>2060</ele>
        <time>2022-05-22 21:28:36</time>
      </trkpt>
      <trkpt lat="42.66254" lon="0.98593">
        <ele>2060.2</ele>
        <time>2022-05-22 21:28:37</time>
      </trkpt>
      <trkpt lat="42.66255" lon="0.98588">
        <ele>2060.4</ele>
        <time>2022-05-22 21:28:38</time>
      </trkpt>
      <trkpt lat="42.66256" lon="0.98584">
        <ele>2060.4</ele>
        <time>2022-05-22 21:28:39</time>
      </trkpt>
      <trkpt lat="42.66258" lon="0.98579">
        <ele>2060.6</ele>
        <time>2022-05-22 21:28:40</time>
      </trkpt>
      <trkpt lat="42.66259" lon="0.98575">
        <ele>2060.8</ele>
        <time>2022-05-22 21:28:41</time>
      </trkpt>
      <trkpt lat="42.6626" lon="0.9857">
        <ele>2061</ele>
        <time>2022-05-22 21:28:42</time>
      </trkpt>
      <trkpt lat="42.66261" lon="0.98566">
        <ele>2061.2</ele>
        <time>2022-05-22 21:28:43</time>
      </trkpt>
      <trkpt lat="42.66262" lon="0.98562">
        <ele>2061.4</ele>
        <time>2022-05-22 21:28:44</time>
      </trkpt>
      <trkpt lat="42.66263" lon="0.98558">
        <ele>2061.6</ele>
        <time>2022-05-22 21:28:45</time>
      </trkpt>
      <trkpt lat="42.66264" lon="0.98554">
        <ele>2061.6</ele>
        <time>2022-05-22 21:28:46</time>
      </trkpt>
      <trkpt lat="42.66265" lon="0.9855">
        <ele>2061.8</ele>
        <time>2022-05-22 21:28:47</time>
      </trkpt>
      <trkpt lat="42.66267" lon="0.98546">
        <ele>2062</ele>
        <time>2022-05-22 21:28:48</time>
      </trkpt>
      <trkpt lat="42.66268" lon="0.98541">
        <ele>2062</ele>
        <time>2022-05-22 21:28:49</time>
      </trkpt>
      <trkpt lat="42.66269" lon="0.98537">
        <ele>2062.2</ele>
        <time>2022-05-22 21:28:50</time>
      </trkpt>
      <trkpt lat="42.6627" lon="0.98534">
        <ele>2062.2</ele>
        <time>2022-05-22 21:28:51</time>
      </trkpt>
      <trkpt lat="42.66272" lon="0.98529">
        <ele>2062.4</ele>
        <time>2022-05-22 21:28:52</time>
      </trkpt>
      <trkpt lat="42.66274" lon="0.98525">
        <ele>2062.6</ele>
        <time>2022-05-22 21:28:53</time>
      </trkpt>
      <trkpt lat="42.66275" lon="0.98521">
        <ele>2062.8</ele>
        <time>2022-05-22 21:28:54</time>
      </trkpt>
      <trkpt lat="42.66277" lon="0.98517">
        <ele>2063</ele>
        <time>2022-05-22 21:28:55</time>
      </trkpt>
      <trkpt lat="42.66278" lon="0.98513">
        <ele>2063.2</ele>
        <time>2022-05-22 21:28:56</time>
      </trkpt>
      <trkpt lat="42.66279" lon="0.9851">
        <ele>2063.2</ele>
        <time>2022-05-22 21:28:57</time>
      </trkpt>
      <trkpt lat="42.66279" lon="0.98506">
        <ele>2063.4</ele>
        <time>2022-05-22 21:28:58</time>
      </trkpt>
      <trkpt lat="42.6628" lon="0.98503">
        <ele>2063.6</ele>
        <time>2022-05-22 21:28:59</time>
      </trkpt>
      <trkpt lat="42.66281" lon="0.98499">
        <ele>2063.6</ele>
        <time>2022-05-22 21:29:00</time>
      </trkpt>
      <trkpt lat="42.66282" lon="0.98495">
        <ele>2063.8</ele>
        <time>2022-05-22 21:29:01</time>
      </trkpt>
      <trkpt lat="42.66283" lon="0.9849">
        <ele>2063.8</ele>
        <time>2022-05-22 21:29:02</time>
      </trkpt>
      <trkpt lat="42.66284" lon="0.98486">
        <ele>2064</ele>
        <time>2022-05-22 21:29:03</time>
      </trkpt>
      <trkpt lat="42.66285" lon="0.98482">
        <ele>2064.2</ele>
        <time>2022-05-22 21:29:04</time>
      </trkpt>
      <trkpt lat="42.66287" lon="0.98477">
        <ele>2064.4</ele>
        <time>2022-05-22 21:29:05</time>
      </trkpt>
      <trkpt lat="42.66288" lon="0.98473">
        <ele>2064.4</ele>
        <time>2022-05-22 21:29:06</time>
      </trkpt>
      <trkpt lat="42.66289" lon="0.98469">
        <ele>2064.6</ele>
        <time>2022-05-22 21:29:07</time>
      </trkpt>
      <trkpt lat="42.6629" lon="0.98464">
        <ele>2064.8</ele>
        <time>2022-05-22 21:29:08</time>
      </trkpt>
      <trkpt lat="42.66292" lon="0.9846">
        <ele>2065</ele>
        <time>2022-05-22 21:29:09</time>
      </trkpt>
      <trkpt lat="42.66293" lon="0.98456">
        <ele>2065</ele>
        <time>2022-05-22 21:29:10</time>
      </trkpt>
      <trkpt lat="42.66295" lon="0.98451">
        <ele>2065.2</ele>
        <time>2022-05-22 21:29:11</time>
      </trkpt>
      <trkpt lat="42.66296" lon="0.98447">
        <ele>2065.4</ele>
        <time>2022-05-22 21:29:12</time>
      </trkpt>
      <trkpt lat="42.66298" lon="0.98443">
        <ele>2065.4</ele>
        <time>2022-05-22 21:29:13</time>
      </trkpt>
      <trkpt lat="42.663" lon="0.98439">
        <ele>2065.6</ele>
        <time>2022-05-22 21:29:14</time>
      </trkpt>
      <trkpt lat="42.66302" lon="0.98435">
        <ele>2065.8</ele>
        <time>2022-05-22 21:29:15</time>
      </trkpt>
      <trkpt lat="42.66304" lon="0.98431">
        <ele>2065.8</ele>
        <time>2022-05-22 21:29:16</time>
      </trkpt>
      <trkpt lat="42.66306" lon="0.98426">
        <ele>2066</ele>
        <time>2022-05-22 21:29:17</time>
      </trkpt>
      <trkpt lat="42.66308" lon="0.98422">
        <ele>2066.2</ele>
        <time>2022-05-22 21:29:18</time>
      </trkpt>
      <trkpt lat="42.6631" lon="0.98418">
        <ele>2066.2</ele>
        <time>2022-05-22 21:29:19</time>
      </trkpt>
      <trkpt lat="42.66312" lon="0.98415">
        <ele>2066.4</ele>
        <time>2022-05-22 21:29:20</time>
      </trkpt>
      <trkpt lat="42.66314" lon="0.98411">
        <ele>2066.4</ele>
        <time>2022-05-22 21:29:21</time>
      </trkpt>
      <trkpt lat="42.66316" lon="0.98407">
        <ele>2066.6</ele>
        <time>2022-05-22 21:29:22</time>
      </trkpt>
      <trkpt lat="42.66318" lon="0.98403">
        <ele>2066.6</ele>
        <time>2022-05-22 21:29:23</time>
      </trkpt>
      <trkpt lat="42.66321" lon="0.98399">
        <ele>2066.8</ele>
        <time>2022-05-22 21:29:24</time>
      </trkpt>
      <trkpt lat="42.66323" lon="0.98396">
        <ele>2067</ele>
        <time>2022-05-22 21:29:25</time>
      </trkpt>
      <trkpt lat="42.66325" lon="0.98392">
        <ele>2067.2</ele>
        <time>2022-05-22 21:29:26</time>
      </trkpt>
      <trkpt lat="42.66327" lon="0.98388">
        <ele>2067.2</ele>
        <time>2022-05-22 21:29:27</time>
      </trkpt>
      <trkpt lat="42.66329" lon="0.98385">
        <ele>2067.4</ele>
        <time>2022-05-22 21:29:28</time>
      </trkpt>
      <trkpt lat="42.66331" lon="0.9838">
        <ele>2067.6</ele>
        <time>2022-05-22 21:29:29</time>
      </trkpt>
      <trkpt lat="42.66333" lon="0.98376">
        <ele>2067.6</ele>
        <time>2022-05-22 21:29:30</time>
      </trkpt>
      <trkpt lat="42.66335" lon="0.98372">
        <ele>2067.8</ele>
        <time>2022-05-22 21:29:31</time>
      </trkpt>
      <trkpt lat="42.66337" lon="0.98368">
        <ele>2067.8</ele>
        <time>2022-05-22 21:29:32</time>
      </trkpt>
      <trkpt lat="42.66339" lon="0.98363">
        <ele>2068</ele>
        <time>2022-05-22 21:29:33</time>
      </trkpt>
      <trkpt lat="42.66341" lon="0.98359">
        <ele>2068</ele>
        <time>2022-05-22 21:29:34</time>
      </trkpt>
      <trkpt lat="42.66343" lon="0.98354">
        <ele>2068.2</ele>
        <time>2022-05-22 21:29:35</time>
      </trkpt>
      <trkpt lat="42.66344" lon="0.9835">
        <ele>2068.2</ele>
        <time>2022-05-22 21:29:36</time>
      </trkpt>
      <trkpt lat="42.66346" lon="0.98345">
        <ele>2068.4</ele>
        <time>2022-05-22 21:29:37</time>
      </trkpt>
      <trkpt lat="42.66347" lon="0.98341">
        <ele>2068.4</ele>
        <time>2022-05-22 21:29:38</time>
      </trkpt>
      <trkpt lat="42.66348" lon="0.98337">
        <ele>2068.6</ele>
        <time>2022-05-22 21:29:39</time>
      </trkpt>
      <trkpt lat="42.66349" lon="0.98332">
        <ele>2068.6</ele>
        <time>2022-05-22 21:29:40</time>
      </trkpt>
      <trkpt lat="42.6635" lon="0.98328">
        <ele>2068.8</ele>
        <time>2022-05-22 21:29:41</time>
      </trkpt>
      <trkpt lat="42.66351" lon="0.98324">
        <ele>2068.8</ele>
        <time>2022-05-22 21:29:42</time>
      </trkpt>
      <trkpt lat="42.66353" lon="0.9832">
        <ele>2068.8</ele>
        <time>2022-05-22 21:29:43</time>
      </trkpt>
      <trkpt lat="42.66354" lon="0.98316">
        <ele>2069</ele>
        <time>2022-05-22 21:29:44</time>
      </trkpt>
      <trkpt lat="42.66355" lon="0.98312">
        <ele>2069</ele>
        <time>2022-05-22 21:29:45</time>
      </trkpt>
      <trkpt lat="42.66356" lon="0.98307">
        <ele>2069</ele>
        <time>2022-05-22 21:29:46</time>
      </trkpt>
      <trkpt lat="42.66357" lon="0.98302">
        <ele>2069</ele>
        <time>2022-05-22 21:29:47</time>
      </trkpt>
      <trkpt lat="42.66359" lon="0.98297">
        <ele>2069</ele>
        <time>2022-05-22 21:29:48</time>
      </trkpt>
      <trkpt lat="42.6636" lon="0.98293">
        <ele>2069</ele>
        <time>2022-05-22 21:29:49</time>
      </trkpt>
      <trkpt lat="42.6636" lon="0.98287">
        <ele>2069</ele>
        <time>2022-05-22 21:29:50</time>
      </trkpt>
      <trkpt lat="42.6636" lon="0.98282">
        <ele>2069</ele>
        <time>2022-05-22 21:29:51</time>
      </trkpt>
      <trkpt lat="42.6636" lon="0.98277">
        <ele>2069</ele>
        <time>2022-05-22 21:29:52</time>
      </trkpt>
      <trkpt lat="42.6636" lon="0.98271">
        <ele>2069</ele>
        <time>2022-05-22 21:29:53</time>
      </trkpt>
      <trkpt lat="42.66359" lon="0.98265">
        <ele>2069</ele>
        <time>2022-05-22 21:29:54</time>
      </trkpt>
      <trkpt lat="42.66359" lon="0.98259">
        <ele>2068.8</ele>
        <time>2022-05-22 21:29:55</time>
      </trkpt>
      <trkpt lat="42.66358" lon="0.98253">
        <ele>2068.8</ele>
        <time>2022-05-22 21:29:56</time>
      </trkpt>
      <trkpt lat="42.66356" lon="0.98246">
        <ele>2068.8</ele>
        <time>2022-05-22 21:29:57</time>
      </trkpt>
      <trkpt lat="42.66354" lon="0.9824">
        <ele>2068.6</ele>
        <time>2022-05-22 21:29:58</time>
      </trkpt>
      <trkpt lat="42.66353" lon="0.98234">
        <ele>2068.6</ele>
        <time>2022-05-22 21:29:59</time>
      </trkpt>
      <trkpt lat="42.66352" lon="0.98227">
        <ele>2068.4</ele>
        <time>2022-05-22 21:30:00</time>
      </trkpt>
      <trkpt lat="42.6635" lon="0.9822">
        <ele>2068.4</ele>
        <time>2022-05-22 21:30:01</time>
      </trkpt>
      <trkpt lat="42.66349" lon="0.98214">
        <ele>2068.2</ele>
        <time>2022-05-22 21:30:02</time>
      </trkpt>
      <trkpt lat="42.66349" lon="0.98207">
        <ele>2068.2</ele>
        <time>2022-05-22 21:30:03</time>
      </trkpt>
      <trkpt lat="42.66349" lon="0.982">
        <ele>2068</ele>
        <time>2022-05-22 21:30:04</time>
      </trkpt>
      <trkpt lat="42.66349" lon="0.98193">
        <ele>2068</ele>
        <time>2022-05-22 21:30:05</time>
      </trkpt>
      <trkpt lat="42.6635" lon="0.98186">
        <ele>2067.8</ele>
        <time>2022-05-22 21:30:06</time>
      </trkpt>
      <trkpt lat="42.66351" lon="0.98179">
        <ele>2067.6</ele>
        <time>2022-05-22 21:30:07</time>
      </trkpt>
      <trkpt lat="42.66353" lon="0.98171">
        <ele>2067.6</ele>
        <time>2022-05-22 21:30:08</time>
      </trkpt>
      <trkpt lat="42.66355" lon="0.98164">
        <ele>2067.4</ele>
        <time>2022-05-22 21:30:09</time>
      </trkpt>
      <trkpt lat="42.66358" lon="0.98156">
        <ele>2067</ele>
        <time>2022-05-22 21:30:10</time>
      </trkpt>
      <trkpt lat="42.6636" lon="0.98148">
        <ele>2066.8</ele>
        <time>2022-05-22 21:30:11</time>
      </trkpt>
      <trkpt lat="42.66363" lon="0.98139">
        <ele>2066.6</ele>
        <time>2022-05-22 21:30:12</time>
      </trkpt>
      <trkpt lat="42.66366" lon="0.98131">
        <ele>2066.2</ele>
        <time>2022-05-22 21:30:13</time>
      </trkpt>
      <trkpt lat="42.66369" lon="0.98122">
        <ele>2066</ele>
        <time>2022-05-22 21:30:14</time>
      </trkpt>
      <trkpt lat="42.66372" lon="0.98113">
        <ele>2065.6</ele>
        <time>2022-05-22 21:30:15</time>
      </trkpt>
      <trkpt lat="42.66374" lon="0.98105">
        <ele>2065.4</ele>
        <time>2022-05-22 21:30:16</time>
      </trkpt>
      <trkpt lat="42.66376" lon="0.98099">
        <ele>2065.2</ele>
        <time>2022-05-22 21:30:17</time>
      </trkpt>
      <trkpt lat="42.66378" lon="0.98095">
        <ele>2065</ele>
        <time>2022-05-22 21:30:18</time>
      </trkpt>
      <trkpt lat="42.6638" lon="0.98092">
        <ele>2064.8</ele>
        <time>2022-05-22 21:30:19</time>
      </trkpt>
      <trkpt lat="42.66381" lon="0.9809">
        <ele>2064.8</ele>
        <time>2022-05-22 21:30:20</time>
      </trkpt>
      <trkpt lat="42.66379" lon="0.98084">
        <ele>2064.6</ele>
        <time>2022-05-22 21:38:24</time>
      </trkpt>
      <trkpt lat="42.66379" lon="0.98081">
        <ele>2064.6</ele>
        <time>2022-05-22 21:38:25</time>
      </trkpt>
      <trkpt lat="42.66379" lon="0.98077">
        <ele>2064.4</ele>
        <time>2022-05-22 21:38:26</time>
      </trkpt>
      <trkpt lat="42.66379" lon="0.98073">
        <ele>2064.4</ele>
        <time>2022-05-22 21:38:27</time>
      </trkpt>
      <trkpt lat="42.66379" lon="0.98069">
        <ele>2064.2</ele>
        <time>2022-05-22 21:38:28</time>
      </trkpt>
      <trkpt lat="42.66379" lon="0.98064">
        <ele>2064.2</ele>
        <time>2022-05-22 21:38:29</time>
      </trkpt>
      <trkpt lat="42.66379" lon="0.98059">
        <ele>2064</ele>
        <time>2022-05-22 21:38:30</time>
      </trkpt>
      <trkpt lat="42.66378" lon="0.98054">
        <ele>2064</ele>
        <time>2022-05-22 21:38:31</time>
      </trkpt>
      <trkpt lat="42.66378" lon="0.98048">
        <ele>2064</ele>
        <time>2022-05-22 21:38:32</time>
      </trkpt>
      <trkpt lat="42.66378" lon="0.98042">
        <ele>2063.8</ele>
        <time>2022-05-22 21:38:33</time>
      </trkpt>
      <trkpt lat="42.66379" lon="0.98036">
        <ele>2063.8</ele>
        <time>2022-05-22 21:38:34</time>
      </trkpt>
      <trkpt lat="42.66379" lon="0.9803">
        <ele>2063.8</ele>
        <time>2022-05-22 21:38:35</time>
      </trkpt>
      <trkpt lat="42.6638" lon="0.98024">
        <ele>2063.8</ele>
        <time>2022-05-22 21:38:36</time>
      </trkpt>
      <trkpt lat="42.66381" lon="0.98016">
        <ele>2063.8</ele>
        <time>2022-05-22 21:38:37</time>
      </trkpt>
      <trkpt lat="42.66382" lon="0.98009">
        <ele>2063.6</ele>
        <time>2022-05-22 21:38:38</time>
      </trkpt>
      <trkpt lat="42.66384" lon="0.98002">
        <ele>2063.6</ele>
        <time>2022-05-22 21:38:39</time>
      </trkpt>
      <trkpt lat="42.66385" lon="0.97995">
        <ele>2063.6</ele>
        <time>2022-05-22 21:38:40</time>
      </trkpt>
      <trkpt lat="42.66388" lon="0.97987">
        <ele>2063.4</ele>
        <time>2022-05-22 21:38:41</time>
      </trkpt>
      <trkpt lat="42.6639" lon="0.97979">
        <ele>2063.4</ele>
        <time>2022-05-22 21:38:42</time>
      </trkpt>
      <trkpt lat="42.66393" lon="0.97971">
        <ele>2063.2</ele>
        <time>2022-05-22 21:38:43</time>
      </trkpt>
      <trkpt lat="42.66395" lon="0.97964">
        <ele>2063</ele>
        <time>2022-05-22 21:38:44</time>
      </trkpt>
      <trkpt lat="42.66398" lon="0.97956">
        <ele>2062.8</ele>
        <time>2022-05-22 21:38:45</time>
      </trkpt>
      <trkpt lat="42.664" lon="0.97946">
        <ele>2062.8</ele>
        <time>2022-05-22 21:38:46</time>
      </trkpt>
      <trkpt lat="42.66403" lon="0.97937">
        <ele>2062.6</ele>
        <time>2022-05-22 21:38:47</time>
      </trkpt>
      <trkpt lat="42.66406" lon="0.97928">
        <ele>2062.4</ele>
        <time>2022-05-22 21:38:48</time>
      </trkpt>
      <trkpt lat="42.66409" lon="0.97919">
        <ele>2062.2</ele>
        <time>2022-05-22 21:38:49</time>
      </trkpt>
      <trkpt lat="42.66411" lon="0.9791">
        <ele>2062.2</ele>
        <time>2022-05-22 21:38:50</time>
      </trkpt>
      <trkpt lat="42.66414" lon="0.979">
        <ele>2062</ele>
        <time>2022-05-22 21:38:51</time>
      </trkpt>
      <trkpt lat="42.66417" lon="0.97891">
        <ele>2062</ele>
        <time>2022-05-22 21:38:52</time>
      </trkpt>
      <trkpt lat="42.66421" lon="0.97883">
        <ele>2061.8</ele>
        <time>2022-05-22 21:38:53</time>
      </trkpt>
      <trkpt lat="42.66425" lon="0.97875">
        <ele>2061.8</ele>
        <time>2022-05-22 21:38:54</time>
      </trkpt>
      <trkpt lat="42.66428" lon="0.97867">
        <ele>2061.6</ele>
        <time>2022-05-22 21:38:55</time>
      </trkpt>
      <trkpt lat="42.66432" lon="0.9786">
        <ele>2061.4</ele>
        <time>2022-05-22 21:38:56</time>
      </trkpt>
      <trkpt lat="42.66437" lon="0.97853">
        <ele>2061.2</ele>
        <time>2022-05-22 21:38:57</time>
      </trkpt>
      <trkpt lat="42.66441" lon="0.97847">
        <ele>2061</ele>
        <time>2022-05-22 21:38:58</time>
      </trkpt>
      <trkpt lat="42.66446" lon="0.97841">
        <ele>2060.6</ele>
        <time>2022-05-22 21:38:59</time>
      </trkpt>
      <trkpt lat="42.66451" lon="0.97836">
        <ele>2060.4</ele>
        <time>2022-05-22 21:39:00</time>
      </trkpt>
      <trkpt lat="42.66456" lon="0.97833">
        <ele>2060</ele>
        <time>2022-05-22 21:39:01</time>
      </trkpt>
      <trkpt lat="42.66461" lon="0.97831">
        <ele>2059.4</ele>
        <time>2022-05-22 21:39:02</time>
      </trkpt>
      <trkpt lat="42.66467" lon="0.97831">
        <ele>2059</ele>
        <time>2022-05-22 21:39:03</time>
      </trkpt>
      <trkpt lat="42.66472" lon="0.97832">
        <ele>2058.6</ele>
        <time>2022-05-22 21:39:04</time>
      </trkpt>
      <trkpt lat="42.66478" lon="0.97833">
        <ele>2058.2</ele>
        <time>2022-05-22 21:39:05</time>
      </trkpt>
      <trkpt lat="42.66484" lon="0.97835">
        <ele>2057.8</ele>
        <time>2022-05-22 21:39:06</time>
      </trkpt>
      <trkpt lat="42.66488" lon="0.97836">
        <ele>2057.4</ele>
        <time>2022-05-22 21:39:07</time>
      </trkpt>
      <trkpt lat="42.66493" lon="0.97836">
        <ele>2057</ele>
        <time>2022-05-22 21:39:08</time>
      </trkpt>
      <trkpt lat="42.66498" lon="0.97836">
        <ele>2056.8</ele>
        <time>2022-05-22 21:39:09</time>
      </trkpt>
      <trkpt lat="42.66503" lon="0.97836">
        <ele>2056.6</ele>
        <time>2022-05-22 21:39:10</time>
      </trkpt>
      <trkpt lat="42.66507" lon="0.97834">
        <ele>2056.4</ele>
        <time>2022-05-22 21:39:11</time>
      </trkpt>
      <trkpt lat="42.66512" lon="0.97833">
        <ele>2056.2</ele>
        <time>2022-05-22 21:39:12</time>
      </trkpt>
      <trkpt lat="42.66516" lon="0.97831">
        <ele>2055.8</ele>
        <time>2022-05-22 21:39:13</time>
      </trkpt>
      <trkpt lat="42.6652" lon="0.97828">
        <ele>2055.4</ele>
        <time>2022-05-22 21:39:14</time>
      </trkpt>
      <trkpt lat="42.66524" lon="0.97826">
        <ele>2055</ele>
        <time>2022-05-22 21:39:15</time>
      </trkpt>
      <trkpt lat="42.66527" lon="0.97824">
        <ele>2054.6</ele>
        <time>2022-05-22 21:39:16</time>
      </trkpt>
      <trkpt lat="42.66531" lon="0.97823">
        <ele>2054.2</ele>
        <time>2022-05-22 21:39:17</time>
      </trkpt>
      <trkpt lat="42.66535" lon="0.97821">
        <ele>2053.8</ele>
        <time>2022-05-22 21:39:18</time>
      </trkpt>
      <trkpt lat="42.66538" lon="0.97819">
        <ele>2053.6</ele>
        <time>2022-05-22 21:39:19</time>
      </trkpt>
      <trkpt lat="42.66541" lon="0.97817">
        <ele>2053.4</ele>
        <time>2022-05-22 21:39:20</time>
      </trkpt>
      <trkpt lat="42.66544" lon="0.97814">
        <ele>2053</ele>
        <time>2022-05-22 21:39:21</time>
      </trkpt>
      <trkpt lat="42.66547" lon="0.97812">
        <ele>2052.6</ele>
        <time>2022-05-22 21:39:22</time>
      </trkpt>
      <trkpt lat="42.66551" lon="0.9781">
        <ele>2052.4</ele>
        <time>2022-05-22 21:39:23</time>
      </trkpt>
      <trkpt lat="42.66554" lon="0.97807">
        <ele>2052.2</ele>
        <time>2022-05-22 21:39:24</time>
      </trkpt>
      <trkpt lat="42.66557" lon="0.97805">
        <ele>2051.8</ele>
        <time>2022-05-22 21:39:25</time>
      </trkpt>
      <trkpt lat="42.66561" lon="0.97803">
        <ele>2051.6</ele>
        <time>2022-05-22 21:39:26</time>
      </trkpt>
      <trkpt lat="42.66565" lon="0.97801">
        <ele>2051.4</ele>
        <time>2022-05-22 21:39:27</time>
      </trkpt>
      <trkpt lat="42.66569" lon="0.978">
        <ele>2051</ele>
        <time>2022-05-22 21:39:28</time>
      </trkpt>
      <trkpt lat="42.66573" lon="0.97799">
        <ele>2050.8</ele>
        <time>2022-05-22 21:39:29</time>
      </trkpt>
      <trkpt lat="42.66578" lon="0.97798">
        <ele>2050.4</ele>
        <time>2022-05-22 21:39:30</time>
      </trkpt>
      <trkpt lat="42.66582" lon="0.97797">
        <ele>2050.2</ele>
        <time>2022-05-22 21:39:31</time>
      </trkpt>
      <trkpt lat="42.66586" lon="0.97798">
        <ele>2050</ele>
        <time>2022-05-22 21:39:32</time>
      </trkpt>
      <trkpt lat="42.6659" lon="0.97799">
        <ele>2049.6</ele>
        <time>2022-05-22 21:39:33</time>
      </trkpt>
      <trkpt lat="42.66593" lon="0.978">
        <ele>2049.4</ele>
        <time>2022-05-22 21:39:34</time>
      </trkpt>
      <trkpt lat="42.66597" lon="0.97801">
        <ele>2049</ele>
        <time>2022-05-22 21:39:35</time>
      </trkpt>
      <trkpt lat="42.66599" lon="0.97802">
        <ele>2048.8</ele>
        <time>2022-05-22 21:39:36</time>
      </trkpt>
      <trkpt lat="42.66601" lon="0.97803">
        <ele>2048.8</ele>
        <time>2022-05-22 21:39:37</time>
      </trkpt>
      <trkpt lat="42.66604" lon="0.97802">
        <ele>2048.4</ele>
        <time>2022-05-22 21:41:21</time>
      </trkpt>
      <trkpt lat="42.66607" lon="0.97802">
        <ele>2048.4</ele>
        <time>2022-05-22 21:41:22</time>
      </trkpt>
      <trkpt lat="42.66611" lon="0.97802">
        <ele>2048.2</ele>
        <time>2022-05-22 21:41:23</time>
      </trkpt>
      <trkpt lat="42.66615" lon="0.97802">
        <ele>2048</ele>
        <time>2022-05-22 21:41:24</time>
      </trkpt>
      <trkpt lat="42.66619" lon="0.97803">
        <ele>2047.8</ele>
        <time>2022-05-22 21:41:25</time>
      </trkpt>
      <trkpt lat="42.66624" lon="0.97803">
        <ele>2047.4</ele>
        <time>2022-05-22 21:41:26</time>
      </trkpt>
      <trkpt lat="42.66627" lon="0.97803">
        <ele>2047.2</ele>
        <time>2022-05-22 21:41:27</time>
      </trkpt>
      <trkpt lat="42.66637" lon="0.97802">
        <ele>2046.8</ele>
        <time>2022-05-22 21:41:28</time>
      </trkpt>
      <trkpt lat="42.66645" lon="0.97801">
        <ele>2046.2</ele>
        <time>2022-05-22 21:41:29</time>
      </trkpt>
      <trkpt lat="42.66652" lon="0.97798">
        <ele>2045.8</ele>
        <time>2022-05-22 21:41:30</time>
      </trkpt>
      <trkpt lat="42.66658" lon="0.97797">
        <ele>2045.4</ele>
        <time>2022-05-22 21:41:31</time>
      </trkpt>
      <trkpt lat="42.66664" lon="0.97794">
        <ele>2044.8</ele>
        <time>2022-05-22 21:41:32</time>
      </trkpt>
      <trkpt lat="42.66674" lon="0.97789">
        <ele>2044.2</ele>
        <time>2022-05-22 21:41:33</time>
      </trkpt>
      <trkpt lat="42.66683" lon="0.97785">
        <ele>2043.6</ele>
        <time>2022-05-22 21:41:34</time>
      </trkpt>
      <trkpt lat="42.66691" lon="0.97783">
        <ele>2042.8</ele>
        <time>2022-05-22 21:41:35</time>
      </trkpt>
      <trkpt lat="42.66699" lon="0.97782">
        <ele>2042</ele>
        <time>2022-05-22 21:41:36</time>
      </trkpt>
      <trkpt lat="42.66708" lon="0.97782">
        <ele>2041.2</ele>
        <time>2022-05-22 21:41:37</time>
      </trkpt>
      <trkpt lat="42.66716" lon="0.97783">
        <ele>2040.4</ele>
        <time>2022-05-22 21:41:38</time>
      </trkpt>
      <trkpt lat="42.66725" lon="0.97785">
        <ele>2039.4</ele>
        <time>2022-05-22 21:41:39</time>
      </trkpt>
      <trkpt lat="42.66734" lon="0.97787">
        <ele>2038.6</ele>
        <time>2022-05-22 21:41:40</time>
      </trkpt>
      <trkpt lat="42.66743" lon="0.9779">
        <ele>2037.8</ele>
        <time>2022-05-22 21:41:41</time>
      </trkpt>
      <trkpt lat="42.66751" lon="0.97792">
        <ele>2036.8</ele>
        <time>2022-05-22 21:41:42</time>
      </trkpt>
      <trkpt lat="42.6676" lon="0.97795">
        <ele>2036</ele>
        <time>2022-05-22 21:41:43</time>
      </trkpt>
      <trkpt lat="42.66769" lon="0.97797">
        <ele>2035.2</ele>
        <time>2022-05-22 21:41:44</time>
      </trkpt>
      <trkpt lat="42.66778" lon="0.97799">
        <ele>2034.4</ele>
        <time>2022-05-22 21:41:45</time>
      </trkpt>
      <trkpt lat="42.66787" lon="0.97801">
        <ele>2033.6</ele>
        <time>2022-05-22 21:41:46</time>
      </trkpt>
      <trkpt lat="42.66798" lon="0.97802">
        <ele>2032.6</ele>
        <time>2022-05-22 21:41:47</time>
      </trkpt>
      <trkpt lat="42.66808" lon="0.97802">
        <ele>2031.8</ele>
        <time>2022-05-22 21:41:48</time>
      </trkpt>
      <trkpt lat="42.66819" lon="0.97798">
        <ele>2031</ele>
        <time>2022-05-22 21:41:49</time>
      </trkpt>
      <trkpt lat="42.6683" lon="0.97792">
        <ele>2030</ele>
        <time>2022-05-22 21:41:50</time>
      </trkpt>
      <trkpt lat="42.66839" lon="0.97784">
        <ele>2029</ele>
        <time>2022-05-22 21:41:51</time>
      </trkpt>
      <trkpt lat="42.66848" lon="0.97774">
        <ele>2028.2</ele>
        <time>2022-05-22 21:41:52</time>
      </trkpt>
      <trkpt lat="42.66856" lon="0.97762">
        <ele>2027.2</ele>
        <time>2022-05-22 21:41:53</time>
      </trkpt>
      <trkpt lat="42.66865" lon="0.97749">
        <ele>2026.4</ele>
        <time>2022-05-22 21:41:54</time>
      </trkpt>
      <trkpt lat="42.66873" lon="0.97736">
        <ele>2025.4</ele>
        <time>2022-05-22 21:41:55</time>
      </trkpt>
      <trkpt lat="42.66881" lon="0.97724">
        <ele>2024.6</ele>
        <time>2022-05-22 21:41:56</time>
      </trkpt>
      <trkpt lat="42.66888" lon="0.9771">
        <ele>2023.6</ele>
        <time>2022-05-22 21:41:57</time>
      </trkpt>
      <trkpt lat="42.66894" lon="0.97695">
        <ele>2022.8</ele>
        <time>2022-05-22 21:41:58</time>
      </trkpt>
      <trkpt lat="42.669" lon="0.9768">
        <ele>2022</ele>
        <time>2022-05-22 21:41:59</time>
      </trkpt>
      <trkpt lat="42.66906" lon="0.97666">
        <ele>2021.2</ele>
        <time>2022-05-22 21:42:00</time>
      </trkpt>
      <trkpt lat="42.66913" lon="0.97652">
        <ele>2020.2</ele>
        <time>2022-05-22 21:42:01</time>
      </trkpt>
      <trkpt lat="42.66919" lon="0.97638">
        <ele>2019.4</ele>
        <time>2022-05-22 21:42:02</time>
      </trkpt>
      <trkpt lat="42.66925" lon="0.97623">
        <ele>2018.4</ele>
        <time>2022-05-22 21:42:03</time>
      </trkpt>
      <trkpt lat="42.66932" lon="0.97608">
        <ele>2017.4</ele>
        <time>2022-05-22 21:42:04</time>
      </trkpt>
      <trkpt lat="42.66938" lon="0.97592">
        <ele>2016.6</ele>
        <time>2022-05-22 21:42:05</time>
      </trkpt>
      <trkpt lat="42.66944" lon="0.97575">
        <ele>2015.8</ele>
        <time>2022-05-22 21:42:06</time>
      </trkpt>
      <trkpt lat="42.66951" lon="0.97558">
        <ele>2014.8</ele>
        <time>2022-05-22 21:42:07</time>
      </trkpt>
      <trkpt lat="42.66957" lon="0.97542">
        <ele>2014</ele>
        <time>2022-05-22 21:42:08</time>
      </trkpt>
      <trkpt lat="42.66963" lon="0.97524">
        <ele>2013</ele>
        <time>2022-05-22 21:42:09</time>
      </trkpt>
      <trkpt lat="42.66969" lon="0.97506">
        <ele>2011.8</ele>
        <time>2022-05-22 21:42:10</time>
      </trkpt>
      <trkpt lat="42.66975" lon="0.97489">
        <ele>2010.8</ele>
        <time>2022-05-22 21:42:11</time>
      </trkpt>
      <trkpt lat="42.66981" lon="0.9747">
        <ele>2009.8</ele>
        <time>2022-05-22 21:42:12</time>
      </trkpt>
      <trkpt lat="42.66987" lon="0.97451">
        <ele>2008.6</ele>
        <time>2022-05-22 21:42:13</time>
      </trkpt>
      <trkpt lat="42.66993" lon="0.97433">
        <ele>2007.6</ele>
        <time>2022-05-22 21:42:14</time>
      </trkpt>
      <trkpt lat="42.66999" lon="0.97413">
        <ele>2006.6</ele>
        <time>2022-05-22 21:42:15</time>
      </trkpt>
      <trkpt lat="42.67006" lon="0.97394">
        <ele>2005.6</ele>
        <time>2022-05-22 21:42:16</time>
      </trkpt>
      <trkpt lat="42.67011" lon="0.97375">
        <ele>2004.8</ele>
        <time>2022-05-22 21:42:17</time>
      </trkpt>
      <trkpt lat="42.67016" lon="0.97358">
        <ele>2004</ele>
        <time>2022-05-22 21:42:18</time>
      </trkpt>
      <trkpt lat="42.6702" lon="0.9734">
        <ele>2003</ele>
        <time>2022-05-22 21:42:19</time>
      </trkpt>
      <trkpt lat="42.67024" lon="0.97321">
        <ele>2002.2</ele>
        <time>2022-05-22 21:42:20</time>
      </trkpt>
      <trkpt lat="42.67025" lon="0.973">
        <ele>2001</ele>
        <time>2022-05-22 21:42:21</time>
      </trkpt>
      <trkpt lat="42.67028" lon="0.97281">
        <ele>2000.2</ele>
        <time>2022-05-22 21:42:22</time>
      </trkpt>
      <trkpt lat="42.6703" lon="0.97261">
        <ele>1999.2</ele>
        <time>2022-05-22 21:42:23</time>
      </trkpt>
      <trkpt lat="42.67034" lon="0.97241">
        <ele>1998.2</ele>
        <time>2022-05-22 21:42:24</time>
      </trkpt>
      <trkpt lat="42.67038" lon="0.9722">
        <ele>1997.2</ele>
        <time>2022-05-22 21:42:25</time>
      </trkpt>
      <trkpt lat="42.67043" lon="0.972">
        <ele>1996.4</ele>
        <time>2022-05-22 21:42:26</time>
      </trkpt>
      <trkpt lat="42.67049" lon="0.97181">
        <ele>1995.4</ele>
        <time>2022-05-22 21:42:27</time>
      </trkpt>
      <trkpt lat="42.67055" lon="0.9716">
        <ele>1994.6</ele>
        <time>2022-05-22 21:42:28</time>
      </trkpt>
      <trkpt lat="42.67062" lon="0.9714">
        <ele>1993.6</ele>
        <time>2022-05-22 21:42:29</time>
      </trkpt>
      <trkpt lat="42.67069" lon="0.97121">
        <ele>1992.6</ele>
        <time>2022-05-22 21:42:30</time>
      </trkpt>
      <trkpt lat="42.67076" lon="0.97102">
        <ele>1991.6</ele>
        <time>2022-05-22 21:42:31</time>
      </trkpt>
      <trkpt lat="42.67084" lon="0.97082">
        <ele>1990.4</ele>
        <time>2022-05-22 21:42:32</time>
      </trkpt>
      <trkpt lat="42.67093" lon="0.97063">
        <ele>1989.4</ele>
        <time>2022-05-22 21:42:33</time>
      </trkpt>
      <trkpt lat="42.671" lon="0.97045">
        <ele>1988.4</ele>
        <time>2022-05-22 21:42:34</time>
      </trkpt>
      <trkpt lat="42.67109" lon="0.97026">
        <ele>1987.2</ele>
        <time>2022-05-22 21:42:35</time>
      </trkpt>
      <trkpt lat="42.67117" lon="0.97007">
        <ele>1986.2</ele>
        <time>2022-05-22 21:42:36</time>
      </trkpt>
      <trkpt lat="42.67126" lon="0.96988">
        <ele>1985.2</ele>
        <time>2022-05-22 21:42:37</time>
      </trkpt>
      <trkpt lat="42.67133" lon="0.96972">
        <ele>1984.2</ele>
        <time>2022-05-22 21:42:38</time>
      </trkpt>
      <trkpt lat="42.67143" lon="0.96953">
        <ele>1983.2</ele>
        <time>2022-05-22 21:42:39</time>
      </trkpt>
      <trkpt lat="42.67152" lon="0.96937">
        <ele>1982.2</ele>
        <time>2022-05-22 21:42:40</time>
      </trkpt>
      <trkpt lat="42.67162" lon="0.96922">
        <ele>1981.2</ele>
        <time>2022-05-22 21:42:41</time>
      </trkpt>
      <trkpt lat="42.67173" lon="0.96908">
        <ele>1980</ele>
        <time>2022-05-22 21:42:42</time>
      </trkpt>
      <trkpt lat="42.67184" lon="0.96894">
        <ele>1978.8</ele>
        <time>2022-05-22 21:42:43</time>
      </trkpt>
      <trkpt lat="42.67195" lon="0.96879">
        <ele>1977.4</ele>
        <time>2022-05-22 21:42:44</time>
      </trkpt>
      <trkpt lat="42.67205" lon="0.96864">
        <ele>1976.2</ele>
        <time>2022-05-22 21:42:45</time>
      </trkpt>
      <trkpt lat="42.67216" lon="0.96849">
        <ele>1974.8</ele>
        <time>2022-05-22 21:42:46</time>
      </trkpt>
      <trkpt lat="42.67226" lon="0.96837">
        <ele>1973.6</ele>
        <time>2022-05-22 21:42:47</time>
      </trkpt>
      <trkpt lat="42.6724" lon="0.96824">
        <ele>1972.2</ele>
        <time>2022-05-22 21:42:48</time>
      </trkpt>
      <trkpt lat="42.67253" lon="0.96812">
        <ele>1971</ele>
        <time>2022-05-22 21:42:49</time>
      </trkpt>
      <trkpt lat="42.67266" lon="0.968">
        <ele>1969.8</ele>
        <time>2022-05-22 21:42:50</time>
      </trkpt>
      <trkpt lat="42.67277" lon="0.96788">
        <ele>1968.6</ele>
        <time>2022-05-22 21:42:51</time>
      </trkpt>
      <trkpt lat="42.67287" lon="0.96775">
        <ele>1967.6</ele>
        <time>2022-05-22 21:42:52</time>
      </trkpt>
      <trkpt lat="42.67297" lon="0.9676">
        <ele>1967</ele>
        <time>2022-05-22 21:42:53</time>
      </trkpt>
      <trkpt lat="42.67306" lon="0.96745">
        <ele>1966.2</ele>
        <time>2022-05-22 21:42:54</time>
      </trkpt>
      <trkpt lat="42.67315" lon="0.96731">
        <ele>1965.4</ele>
        <time>2022-05-22 21:42:55</time>
      </trkpt>
      <trkpt lat="42.67325" lon="0.96718">
        <ele>1964.4</ele>
        <time>2022-05-22 21:42:56</time>
      </trkpt>
      <trkpt lat="42.67335" lon="0.96705">
        <ele>1963.4</ele>
        <time>2022-05-22 21:42:57</time>
      </trkpt>
      <trkpt lat="42.67346" lon="0.96693">
        <ele>1962.6</ele>
        <time>2022-05-22 21:42:58</time>
      </trkpt>
      <trkpt lat="42.67356" lon="0.96679">
        <ele>1961.8</ele>
        <time>2022-05-22 21:42:59</time>
      </trkpt>
      <trkpt lat="42.67366" lon="0.96667">
        <ele>1961.2</ele>
        <time>2022-05-22 21:43:00</time>
      </trkpt>
      <trkpt lat="42.67375" lon="0.96653">
        <ele>1960.4</ele>
        <time>2022-05-22 21:43:01</time>
      </trkpt>
      <trkpt lat="42.67381" lon="0.9664">
        <ele>1959.6</ele>
        <time>2022-05-22 21:43:02</time>
      </trkpt>
      <trkpt lat="42.67389" lon="0.96625">
        <ele>1958.6</ele>
        <time>2022-05-22 21:43:03</time>
      </trkpt>
      <trkpt lat="42.67396" lon="0.9661">
        <ele>1957.6</ele>
        <time>2022-05-22 21:43:04</time>
      </trkpt>
      <trkpt lat="42.67404" lon="0.96598">
        <ele>1956.8</ele>
        <time>2022-05-22 21:43:05</time>
      </trkpt>
      <trkpt lat="42.67413" lon="0.96582">
        <ele>1955.8</ele>
        <time>2022-05-22 21:43:06</time>
      </trkpt>
      <trkpt lat="42.67421" lon="0.96567">
        <ele>1954.6</ele>
        <time>2022-05-22 21:43:07</time>
      </trkpt>
      <trkpt lat="42.67429" lon="0.96551">
        <ele>1953.6</ele>
        <time>2022-05-22 21:43:08</time>
      </trkpt>
      <trkpt lat="42.67438" lon="0.96534">
        <ele>1952.6</ele>
        <time>2022-05-22 21:43:09</time>
      </trkpt>
      <trkpt lat="42.67446" lon="0.96517">
        <ele>1951.6</ele>
        <time>2022-05-22 21:43:10</time>
      </trkpt>
      <trkpt lat="42.67454" lon="0.96501">
        <ele>1950.6</ele>
        <time>2022-05-22 21:43:11</time>
      </trkpt>
      <trkpt lat="42.67463" lon="0.96486">
        <ele>1949.4</ele>
        <time>2022-05-22 21:43:12</time>
      </trkpt>
      <trkpt lat="42.67471" lon="0.96471">
        <ele>1948.4</ele>
        <time>2022-05-22 21:43:13</time>
      </trkpt>
      <trkpt lat="42.6748" lon="0.96457">
        <ele>1947.4</ele>
        <time>2022-05-22 21:43:14</time>
      </trkpt>
      <trkpt lat="42.6749" lon="0.96442">
        <ele>1946.2</ele>
        <time>2022-05-22 21:43:15</time>
      </trkpt>
      <trkpt lat="42.67502" lon="0.96429">
        <ele>1945.4</ele>
        <time>2022-05-22 21:43:16</time>
      </trkpt>
      <trkpt lat="42.67513" lon="0.96415">
        <ele>1944.2</ele>
        <time>2022-05-22 21:43:17</time>
      </trkpt>
      <trkpt lat="42.67525" lon="0.964">
        <ele>1943.2</ele>
        <time>2022-05-22 21:43:18</time>
      </trkpt>
      <trkpt lat="42.67535" lon="0.96388">
        <ele>1942.4</ele>
        <time>2022-05-22 21:43:19</time>
      </trkpt>
      <trkpt lat="42.67545" lon="0.96377">
        <ele>1941.8</ele>
        <time>2022-05-22 21:43:20</time>
      </trkpt>
      <trkpt lat="42.67553" lon="0.96367">
        <ele>1941.2</ele>
        <time>2022-05-22 21:43:21</time>
      </trkpt>
      <trkpt lat="42.67559" lon="0.96358">
        <ele>1940.8</ele>
        <time>2022-05-22 21:43:22</time>
      </trkpt>
      <trkpt lat="42.67565" lon="0.9635">
        <ele>1940.6</ele>
        <time>2022-05-22 21:43:23</time>
      </trkpt>
      <trkpt lat="42.67567" lon="0.96343">
        <ele>1940.2</ele>
        <time>2022-05-22 21:43:24</time>
      </trkpt>
      <trkpt lat="42.67568" lon="0.96334">
        <ele>1940</ele>
        <time>2022-05-22 21:43:25</time>
      </trkpt>
      <trkpt lat="42.67566" lon="0.96328">
        <ele>1939.8</ele>
        <time>2022-05-22 21:43:26</time>
      </trkpt>
      <trkpt lat="42.67564" lon="0.96324">
        <ele>1939.6</ele>
        <time>2022-05-22 21:43:27</time>
      </trkpt>
      <trkpt lat="42.67556" lon="0.96321">
        <ele>1939.2</ele>
        <time>2022-05-22 21:43:28</time>
      </trkpt>
      <trkpt lat="42.67553" lon="0.96321">
        <ele>1939</ele>
        <time>2022-05-22 21:43:29</time>
      </trkpt>
      <trkpt lat="42.67544" lon="0.96331">
        <ele>1938.6</ele>
        <time>2022-05-22 21:43:30</time>
      </trkpt>
      <trkpt lat="42.67538" lon="0.9634">
        <ele>1938.2</ele>
        <time>2022-05-22 21:43:31</time>
      </trkpt>
      <trkpt lat="42.67533" lon="0.96347">
        <ele>1937.8</ele>
        <time>2022-05-22 21:43:32</time>
      </trkpt>
      <trkpt lat="42.67529" lon="0.96354">
        <ele>1937.4</ele>
        <time>2022-05-22 21:43:33</time>
      </trkpt>
      <trkpt lat="42.67524" lon="0.96362">
        <ele>1937</ele>
        <time>2022-05-22 21:43:34</time>
      </trkpt>
      <trkpt lat="42.67519" lon="0.96371">
        <ele>1936.4</ele>
        <time>2022-05-22 21:43:35</time>
      </trkpt>
      <trkpt lat="42.67514" lon="0.96379">
        <ele>1935.8</ele>
        <time>2022-05-22 21:43:36</time>
      </trkpt>
      <trkpt lat="42.67508" lon="0.96388">
        <ele>1935.4</ele>
        <time>2022-05-22 21:43:37</time>
      </trkpt>
      <trkpt lat="42.67503" lon="0.96396">
        <ele>1935</ele>
        <time>2022-05-22 21:43:38</time>
      </trkpt>
      <trkpt lat="42.67497" lon="0.96404">
        <ele>1934.4</ele>
        <time>2022-05-22 21:43:39</time>
      </trkpt>
      <trkpt lat="42.6749" lon="0.96411">
        <ele>1934</ele>
        <time>2022-05-22 21:43:40</time>
      </trkpt>
      <trkpt lat="42.67483" lon="0.96418">
        <ele>1933.4</ele>
        <time>2022-05-22 21:43:41</time>
      </trkpt>
      <trkpt lat="42.67474" lon="0.96424">
        <ele>1932.8</ele>
        <time>2022-05-22 21:43:42</time>
      </trkpt>
      <trkpt lat="42.67466" lon="0.9643">
        <ele>1932.2</ele>
        <time>2022-05-22 21:43:43</time>
      </trkpt>
      <trkpt lat="42.67457" lon="0.96437">
        <ele>1931.4</ele>
        <time>2022-05-22 21:43:44</time>
      </trkpt>
      <trkpt lat="42.67448" lon="0.96445">
        <ele>1930.8</ele>
        <time>2022-05-22 21:43:45</time>
      </trkpt>
      <trkpt lat="42.67439" lon="0.96453">
        <ele>1930</ele>
        <time>2022-05-22 21:43:46</time>
      </trkpt>
      <trkpt lat="42.67431" lon="0.96461">
        <ele>1929.2</ele>
        <time>2022-05-22 21:43:47</time>
      </trkpt>
      <trkpt lat="42.67423" lon="0.9647">
        <ele>1928.2</ele>
        <time>2022-05-22 21:43:48</time>
      </trkpt>
      <trkpt lat="42.67415" lon="0.96479">
        <ele>1927.2</ele>
        <time>2022-05-22 21:43:49</time>
      </trkpt>
      <trkpt lat="42.67407" lon="0.96488">
        <ele>1926.4</ele>
        <time>2022-05-22 21:43:50</time>
      </trkpt>
      <trkpt lat="42.67398" lon="0.96498">
        <ele>1925.4</ele>
        <time>2022-05-22 21:43:51</time>
      </trkpt>
      <trkpt lat="42.6739" lon="0.96509">
        <ele>1924.4</ele>
        <time>2022-05-22 21:43:52</time>
      </trkpt>
      <trkpt lat="42.67381" lon="0.96519">
        <ele>1923.6</ele>
        <time>2022-05-22 21:43:53</time>
      </trkpt>
      <trkpt lat="42.67373" lon="0.96531">
        <ele>1922.6</ele>
        <time>2022-05-22 21:43:54</time>
      </trkpt>
      <trkpt lat="42.67365" lon="0.96542">
        <ele>1921.8</ele>
        <time>2022-05-22 21:43:55</time>
      </trkpt>
      <trkpt lat="42.67356" lon="0.96553">
        <ele>1920.8</ele>
        <time>2022-05-22 21:43:56</time>
      </trkpt>
      <trkpt lat="42.67348" lon="0.96564">
        <ele>1919.8</ele>
        <time>2022-05-22 21:43:57</time>
      </trkpt>
      <trkpt lat="42.67341" lon="0.96575">
        <ele>1918.6</ele>
        <time>2022-05-22 21:43:58</time>
      </trkpt>
      <trkpt lat="42.67333" lon="0.96587">
        <ele>1917.6</ele>
        <time>2022-05-22 21:43:59</time>
      </trkpt>
      <trkpt lat="42.67324" lon="0.96597">
        <ele>1916.8</ele>
        <time>2022-05-22 21:44:00</time>
      </trkpt>
      <trkpt lat="42.67315" lon="0.96606">
        <ele>1916</ele>
        <time>2022-05-22 21:44:01</time>
      </trkpt>
      <trkpt lat="42.67305" lon="0.96615">
        <ele>1915.2</ele>
        <time>2022-05-22 21:44:02</time>
      </trkpt>
      <trkpt lat="42.67296" lon="0.96625">
        <ele>1914.4</ele>
        <time>2022-05-22 21:44:03</time>
      </trkpt>
      <trkpt lat="42.67288" lon="0.96635">
        <ele>1913.8</ele>
        <time>2022-05-22 21:44:04</time>
      </trkpt>
      <trkpt lat="42.6728" lon="0.96646">
        <ele>1913.2</ele>
        <time>2022-05-22 21:44:05</time>
      </trkpt>
      <trkpt lat="42.67272" lon="0.96658">
        <ele>1912.4</ele>
        <time>2022-05-22 21:44:06</time>
      </trkpt>
      <trkpt lat="42.67264" lon="0.9667">
        <ele>1911.6</ele>
        <time>2022-05-22 21:44:07</time>
      </trkpt>
      <trkpt lat="42.67256" lon="0.9668">
        <ele>1910.8</ele>
        <time>2022-05-22 21:44:08</time>
      </trkpt>
      <trkpt lat="42.67247" lon="0.9669">
        <ele>1910</ele>
        <time>2022-05-22 21:44:09</time>
      </trkpt>
      <trkpt lat="42.67236" lon="0.967">
        <ele>1909.2</ele>
        <time>2022-05-22 21:44:10</time>
      </trkpt>
      <trkpt lat="42.67225" lon="0.96709">
        <ele>1908.4</ele>
        <time>2022-05-22 21:44:11</time>
      </trkpt>
      <trkpt lat="42.67214" lon="0.96716">
        <ele>1907.6</ele>
        <time>2022-05-22 21:44:12</time>
      </trkpt>
      <trkpt lat="42.67202" lon="0.96722">
        <ele>1907</ele>
        <time>2022-05-22 21:44:13</time>
      </trkpt>
      <trkpt lat="42.6719" lon="0.96728">
        <ele>1906.2</ele>
        <time>2022-05-22 21:44:14</time>
      </trkpt>
      <trkpt lat="42.67177" lon="0.96732">
        <ele>1905.4</ele>
        <time>2022-05-22 21:44:15</time>
      </trkpt>
      <trkpt lat="42.67164" lon="0.96736">
        <ele>1904.6</ele>
        <time>2022-05-22 21:44:16</time>
      </trkpt>
      <trkpt lat="42.6715" lon="0.96738">
        <ele>1903.8</ele>
        <time>2022-05-22 21:44:17</time>
      </trkpt>
      <trkpt lat="42.67137" lon="0.9674">
        <ele>1903</ele>
        <time>2022-05-22 21:44:18</time>
      </trkpt>
      <trkpt lat="42.67122" lon="0.96742">
        <ele>1902.2</ele>
        <time>2022-05-22 21:44:19</time>
      </trkpt>
      <trkpt lat="42.67108" lon="0.96746">
        <ele>1900.8</ele>
        <time>2022-05-22 21:44:20</time>
      </trkpt>
      <trkpt lat="42.67095" lon="0.9675">
        <ele>1899.6</ele>
        <time>2022-05-22 21:44:21</time>
      </trkpt>
      <trkpt lat="42.67084" lon="0.96755">
        <ele>1898.8</ele>
        <time>2022-05-22 21:44:22</time>
      </trkpt>
      <trkpt lat="42.67073" lon="0.9676">
        <ele>1897.8</ele>
        <time>2022-05-22 21:44:23</time>
      </trkpt>
      <trkpt lat="42.67065" lon="0.96767">
        <ele>1896.8</ele>
        <time>2022-05-22 21:44:24</time>
      </trkpt>
      <trkpt lat="42.67057" lon="0.96775">
        <ele>1896.2</ele>
        <time>2022-05-22 21:44:25</time>
      </trkpt>
      <trkpt lat="42.67051" lon="0.96786">
        <ele>1895.6</ele>
        <time>2022-05-22 21:44:26</time>
      </trkpt>
      <trkpt lat="42.67045" lon="0.96797">
        <ele>1895</ele>
        <time>2022-05-22 21:44:27</time>
      </trkpt>
      <trkpt lat="42.6704" lon="0.96808">
        <ele>1894.6</ele>
        <time>2022-05-22 21:44:28</time>
      </trkpt>
      <trkpt lat="42.67037" lon="0.96818">
        <ele>1894.6</ele>
        <time>2022-05-22 21:44:29</time>
      </trkpt>
      <trkpt lat="42.67034" lon="0.96829">
        <ele>1894.6</ele>
        <time>2022-05-22 21:44:30</time>
      </trkpt>
      <trkpt lat="42.6703" lon="0.96838">
        <ele>1894.6</ele>
        <time>2022-05-22 21:44:31</time>
      </trkpt>
      <trkpt lat="42.67026" lon="0.96848">
        <ele>1894.8</ele>
        <time>2022-05-22 21:44:32</time>
      </trkpt>
      <trkpt lat="42.67023" lon="0.96857">
        <ele>1894.8</ele>
        <time>2022-05-22 21:44:33</time>
      </trkpt>
      <trkpt lat="42.67021" lon="0.96866">
        <ele>1894.8</ele>
        <time>2022-05-22 21:44:34</time>
      </trkpt>
      <trkpt lat="42.67019" lon="0.96876">
        <ele>1895</ele>
        <time>2022-05-22 21:44:35</time>
      </trkpt>
      <trkpt lat="42.67015" lon="0.96883">
        <ele>1895.2</ele>
        <time>2022-05-22 21:44:36</time>
      </trkpt>
      <trkpt lat="42.67012" lon="0.96888">
        <ele>1895.4</ele>
        <time>2022-05-22 21:44:37</time>
      </trkpt>
      <trkpt lat="42.67009" lon="0.96889">
        <ele>1895.4</ele>
        <time>2022-05-22 21:44:38</time>
      </trkpt>
      <trkpt lat="42.67008" lon="0.96884">
        <ele>1895.4</ele>
        <time>2022-05-22 21:44:39</time>
      </trkpt>
      <trkpt lat="42.67008" lon="0.96877">
        <ele>1895.4</ele>
        <time>2022-05-22 21:44:40</time>
      </trkpt>
      <trkpt lat="42.6701" lon="0.9687">
        <ele>1895.2</ele>
        <time>2022-05-22 21:44:41</time>
      </trkpt>
      <trkpt lat="42.67013" lon="0.96863">
        <ele>1895</ele>
        <time>2022-05-22 21:44:42</time>
      </trkpt>
      <trkpt lat="42.67016" lon="0.96855">
        <ele>1894.8</ele>
        <time>2022-05-22 21:44:43</time>
      </trkpt>
      <trkpt lat="42.67019" lon="0.96847">
        <ele>1894.4</ele>
        <time>2022-05-22 21:44:44</time>
      </trkpt>
      <trkpt lat="42.67023" lon="0.96838">
        <ele>1894</ele>
        <time>2022-05-22 21:44:45</time>
      </trkpt>
      <trkpt lat="42.67026" lon="0.96829">
        <ele>1893.8</ele>
        <time>2022-05-22 21:44:46</time>
      </trkpt>
      <trkpt lat="42.6703" lon="0.96819">
        <ele>1893.4</ele>
        <time>2022-05-22 21:44:47</time>
      </trkpt>
      <trkpt lat="42.67033" lon="0.96808">
        <ele>1893</ele>
        <time>2022-05-22 21:44:48</time>
      </trkpt>
      <trkpt lat="42.67037" lon="0.96798">
        <ele>1892.6</ele>
        <time>2022-05-22 21:44:49</time>
      </trkpt>
      <trkpt lat="42.67041" lon="0.96786">
        <ele>1892.4</ele>
        <time>2022-05-22 21:44:50</time>
      </trkpt>
      <trkpt lat="42.67044" lon="0.96775">
        <ele>1891.8</ele>
        <time>2022-05-22 21:44:51</time>
      </trkpt>
      <trkpt lat="42.67048" lon="0.96762">
        <ele>1891.4</ele>
        <time>2022-05-22 21:44:52</time>
      </trkpt>
      <trkpt lat="42.67053" lon="0.9675">
        <ele>1890.8</ele>
        <time>2022-05-22 21:44:53</time>
      </trkpt>
      <trkpt lat="42.6706" lon="0.96737">
        <ele>1890</ele>
        <time>2022-05-22 21:44:54</time>
      </trkpt>
      <trkpt lat="42.67068" lon="0.96727">
        <ele>1889</ele>
        <time>2022-05-22 21:44:55</time>
      </trkpt>
      <trkpt lat="42.67079" lon="0.9672">
        <ele>1888</ele>
        <time>2022-05-22 21:44:56</time>
      </trkpt>
      <trkpt lat="42.67091" lon="0.96715">
        <ele>1886.8</ele>
        <time>2022-05-22 21:44:57</time>
      </trkpt>
      <trkpt lat="42.67104" lon="0.96712">
        <ele>1885.4</ele>
        <time>2022-05-22 21:44:58</time>
      </trkpt>
      <trkpt lat="42.67116" lon="0.96707">
        <ele>1884.2</ele>
        <time>2022-05-22 21:44:59</time>
      </trkpt>
      <trkpt lat="42.67128" lon="0.96701">
        <ele>1883</ele>
        <time>2022-05-22 21:45:00</time>
      </trkpt>
      <trkpt lat="42.6714" lon="0.96695">
        <ele>1882</ele>
        <time>2022-05-22 21:45:01</time>
      </trkpt>
      <trkpt lat="42.67151" lon="0.96688">
        <ele>1880.8</ele>
        <time>2022-05-22 21:45:02</time>
      </trkpt>
      <trkpt lat="42.67162" lon="0.9668">
        <ele>1879.8</ele>
        <time>2022-05-22 21:45:03</time>
      </trkpt>
      <trkpt lat="42.67175" lon="0.96671">
        <ele>1878.6</ele>
        <time>2022-05-22 21:45:04</time>
      </trkpt>
      <trkpt lat="42.67185" lon="0.9666">
        <ele>1877.6</ele>
        <time>2022-05-22 21:45:05</time>
      </trkpt>
      <trkpt lat="42.67195" lon="0.9665">
        <ele>1876.6</ele>
        <time>2022-05-22 21:45:06</time>
      </trkpt>
      <trkpt lat="42.67206" lon="0.96637">
        <ele>1875.6</ele>
        <time>2022-05-22 21:45:07</time>
      </trkpt>
      <trkpt lat="42.67217" lon="0.96625">
        <ele>1874.4</ele>
        <time>2022-05-22 21:45:08</time>
      </trkpt>
      <trkpt lat="42.67226" lon="0.96611">
        <ele>1873.4</ele>
        <time>2022-05-22 21:45:09</time>
      </trkpt>
      <trkpt lat="42.67233" lon="0.96597">
        <ele>1872.4</ele>
        <time>2022-05-22 21:45:10</time>
      </trkpt>
      <trkpt lat="42.67238" lon="0.96579">
        <ele>1871.4</ele>
        <time>2022-05-22 21:45:11</time>
      </trkpt>
      <trkpt lat="42.67242" lon="0.96561">
        <ele>1870.6</ele>
        <time>2022-05-22 21:45:12</time>
      </trkpt>
      <trkpt lat="42.67246" lon="0.96545">
        <ele>1869.8</ele>
        <time>2022-05-22 21:45:13</time>
      </trkpt>
      <trkpt lat="42.67253" lon="0.96528">
        <ele>1868.8</ele>
        <time>2022-05-22 21:45:14</time>
      </trkpt>
      <trkpt lat="42.67261" lon="0.96512">
        <ele>1868</ele>
        <time>2022-05-22 21:45:15</time>
      </trkpt>
      <trkpt lat="42.67269" lon="0.96498">
        <ele>1867.2</ele>
        <time>2022-05-22 21:45:16</time>
      </trkpt>
      <trkpt lat="42.67279" lon="0.96483">
        <ele>1866.2</ele>
        <time>2022-05-22 21:45:17</time>
      </trkpt>
      <trkpt lat="42.67289" lon="0.96469">
        <ele>1865.2</ele>
        <time>2022-05-22 21:45:18</time>
      </trkpt>
      <trkpt lat="42.673" lon="0.96456">
        <ele>1864</ele>
        <time>2022-05-22 21:45:19</time>
      </trkpt>
      <trkpt lat="42.67311" lon="0.96443">
        <ele>1862.6</ele>
        <time>2022-05-22 21:45:20</time>
      </trkpt>
      <trkpt lat="42.67321" lon="0.96428">
        <ele>1861.2</ele>
        <time>2022-05-22 21:45:21</time>
      </trkpt>
      <trkpt lat="42.67333" lon="0.96413">
        <ele>1860</ele>
        <time>2022-05-22 21:45:22</time>
      </trkpt>
      <trkpt lat="42.67344" lon="0.96398">
        <ele>1858.8</ele>
        <time>2022-05-22 21:45:23</time>
      </trkpt>
      <trkpt lat="42.67356" lon="0.96385">
        <ele>1857.6</ele>
        <time>2022-05-22 21:45:24</time>
      </trkpt>
      <trkpt lat="42.67369" lon="0.96374">
        <ele>1856.2</ele>
        <time>2022-05-22 21:45:25</time>
      </trkpt>
      <trkpt lat="42.67382" lon="0.96363">
        <ele>1854.8</ele>
        <time>2022-05-22 21:45:26</time>
      </trkpt>
      <trkpt lat="42.67395" lon="0.96352">
        <ele>1853.8</ele>
        <time>2022-05-22 21:45:27</time>
      </trkpt>
      <trkpt lat="42.67407" lon="0.96341">
        <ele>1853</ele>
        <time>2022-05-22 21:45:28</time>
      </trkpt>
      <trkpt lat="42.67416" lon="0.96329">
        <ele>1852.6</ele>
        <time>2022-05-22 21:45:29</time>
      </trkpt>
      <trkpt lat="42.67423" lon="0.96318">
        <ele>1852.4</ele>
        <time>2022-05-22 21:45:30</time>
      </trkpt>
      <trkpt lat="42.67427" lon="0.96307">
        <ele>1852.2</ele>
        <time>2022-05-22 21:45:31</time>
      </trkpt>
      <trkpt lat="42.67429" lon="0.96297">
        <ele>1852</ele>
        <time>2022-05-22 21:45:32</time>
      </trkpt>
      <trkpt lat="42.67429" lon="0.96287">
        <ele>1852</ele>
        <time>2022-05-22 21:45:33</time>
      </trkpt>
      <trkpt lat="42.67426" lon="0.9628">
        <ele>1851.8</ele>
        <time>2022-05-22 21:45:34</time>
      </trkpt>
      <trkpt lat="42.67421" lon="0.96277">
        <ele>1851.6</ele>
        <time>2022-05-22 21:45:35</time>
      </trkpt>
      <trkpt lat="42.67417" lon="0.96279">
        <ele>1851.2</ele>
        <time>2022-05-22 21:45:36</time>
      </trkpt>
      <trkpt lat="42.67414" lon="0.96285">
        <ele>1850.8</ele>
        <time>2022-05-22 21:45:37</time>
      </trkpt>
      <trkpt lat="42.67411" lon="0.96291">
        <ele>1850.4</ele>
        <time>2022-05-22 21:45:38</time>
      </trkpt>
      <trkpt lat="42.67407" lon="0.963">
        <ele>1850</ele>
        <time>2022-05-22 21:45:39</time>
      </trkpt>
      <trkpt lat="42.67403" lon="0.96308">
        <ele>1849.6</ele>
        <time>2022-05-22 21:45:40</time>
      </trkpt>
      <trkpt lat="42.67399" lon="0.96315">
        <ele>1849.2</ele>
        <time>2022-05-22 21:45:41</time>
      </trkpt>
      <trkpt lat="42.67394" lon="0.96322">
        <ele>1848.6</ele>
        <time>2022-05-22 21:45:42</time>
      </trkpt>
      <trkpt lat="42.67387" lon="0.96329">
        <ele>1848</ele>
        <time>2022-05-22 21:45:43</time>
      </trkpt>
      <trkpt lat="42.67381" lon="0.96335">
        <ele>1847.8</ele>
        <time>2022-05-22 21:45:44</time>
      </trkpt>
      <trkpt lat="42.67374" lon="0.9634">
        <ele>1847.4</ele>
        <time>2022-05-22 21:45:45</time>
      </trkpt>
      <trkpt lat="42.67367" lon="0.96346">
        <ele>1847.2</ele>
        <time>2022-05-22 21:45:46</time>
      </trkpt>
      <trkpt lat="42.6736" lon="0.96352">
        <ele>1846.8</ele>
        <time>2022-05-22 21:45:47</time>
      </trkpt>
      <trkpt lat="42.67353" lon="0.96358">
        <ele>1846.6</ele>
        <time>2022-05-22 21:45:48</time>
      </trkpt>
      <trkpt lat="42.67346" lon="0.96365">
        <ele>1846.6</ele>
        <time>2022-05-22 21:45:49</time>
      </trkpt>
      <trkpt lat="42.6734" lon="0.96371">
        <ele>1846.4</ele>
        <time>2022-05-22 21:45:50</time>
      </trkpt>
      <trkpt lat="42.67334" lon="0.96378">
        <ele>1846.4</ele>
        <time>2022-05-22 21:45:51</time>
      </trkpt>
      <trkpt lat="42.67327" lon="0.96384">
        <ele>1846.4</ele>
        <time>2022-05-22 21:45:52</time>
      </trkpt>
      <trkpt lat="42.6732" lon="0.9639">
        <ele>1846.2</ele>
        <time>2022-05-22 21:45:53</time>
      </trkpt>
      <trkpt lat="42.67313" lon="0.96396">
        <ele>1846</ele>
        <time>2022-05-22 21:45:54</time>
      </trkpt>
      <trkpt lat="42.67306" lon="0.96401">
        <ele>1845.8</ele>
        <time>2022-05-22 21:45:55</time>
      </trkpt>
      <trkpt lat="42.67299" lon="0.96407">
        <ele>1845.4</ele>
        <time>2022-05-22 21:45:56</time>
      </trkpt>
      <trkpt lat="42.67292" lon="0.96413">
        <ele>1845.2</ele>
        <time>2022-05-22 21:45:57</time>
      </trkpt>
      <trkpt lat="42.67286" lon="0.9642">
        <ele>1844.8</ele>
        <time>2022-05-22 21:45:58</time>
      </trkpt>
      <trkpt lat="42.67279" lon="0.96426">
        <ele>1844.6</ele>
        <time>2022-05-22 21:45:59</time>
      </trkpt>
      <trkpt lat="42.67273" lon="0.96432">
        <ele>1844.4</ele>
        <time>2022-05-22 21:46:00</time>
      </trkpt>
      <trkpt lat="42.67267" lon="0.96438">
        <ele>1844.4</ele>
        <time>2022-05-22 21:46:01</time>
      </trkpt>
      <trkpt lat="42.67261" lon="0.96444">
        <ele>1844.2</ele>
        <time>2022-05-22 21:46:02</time>
      </trkpt>
      <trkpt lat="42.67255" lon="0.96451">
        <ele>1844</ele>
        <time>2022-05-22 21:46:03</time>
      </trkpt>
      <trkpt lat="42.6725" lon="0.96458">
        <ele>1843.8</ele>
        <time>2022-05-22 21:46:04</time>
      </trkpt>
      <trkpt lat="42.67245" lon="0.96466">
        <ele>1843.6</ele>
        <time>2022-05-22 21:46:05</time>
      </trkpt>
      <trkpt lat="42.67239" lon="0.96473">
        <ele>1843.4</ele>
        <time>2022-05-22 21:46:06</time>
      </trkpt>
      <trkpt lat="42.67234" lon="0.9648">
        <ele>1843.2</ele>
        <time>2022-05-22 21:46:07</time>
      </trkpt>
      <trkpt lat="42.67227" lon="0.96486">
        <ele>1843</ele>
        <time>2022-05-22 21:46:08</time>
      </trkpt>
      <trkpt lat="42.67221" lon="0.96492">
        <ele>1842.6</ele>
        <time>2022-05-22 21:46:09</time>
      </trkpt>
      <trkpt lat="42.67215" lon="0.96499">
        <ele>1842.4</ele>
        <time>2022-05-22 21:46:10</time>
      </trkpt>
      <trkpt lat="42.67208" lon="0.96506">
        <ele>1842</ele>
        <time>2022-05-22 21:46:11</time>
      </trkpt>
      <trkpt lat="42.67201" lon="0.96512">
        <ele>1841.4</ele>
        <time>2022-05-22 21:46:12</time>
      </trkpt>
      <trkpt lat="42.67193" lon="0.96519">
        <ele>1840.8</ele>
        <time>2022-05-22 21:46:13</time>
      </trkpt>
      <trkpt lat="42.67185" lon="0.96525">
        <ele>1840.2</ele>
        <time>2022-05-22 21:46:14</time>
      </trkpt>
      <trkpt lat="42.67176" lon="0.96532">
        <ele>1839.4</ele>
        <time>2022-05-22 21:46:15</time>
      </trkpt>
      <trkpt lat="42.67166" lon="0.96539">
        <ele>1838.4</ele>
        <time>2022-05-22 21:46:16</time>
      </trkpt>
      <trkpt lat="42.67156" lon="0.96545">
        <ele>1837.6</ele>
        <time>2022-05-22 21:46:17</time>
      </trkpt>
      <trkpt lat="42.67147" lon="0.96552">
        <ele>1836.4</ele>
        <time>2022-05-22 21:46:18</time>
      </trkpt>
      <trkpt lat="42.67136" lon="0.9656">
        <ele>1835.6</ele>
        <time>2022-05-22 21:46:19</time>
      </trkpt>
      <trkpt lat="42.67126" lon="0.96567">
        <ele>1834.6</ele>
        <time>2022-05-22 21:46:20</time>
      </trkpt>
      <trkpt lat="42.67116" lon="0.96572">
        <ele>1833.8</ele>
        <time>2022-05-22 21:46:21</time>
      </trkpt>
      <trkpt lat="42.67105" lon="0.96576">
        <ele>1832.8</ele>
        <time>2022-05-22 21:46:22</time>
      </trkpt>
      <trkpt lat="42.67094" lon="0.96583">
        <ele>1831.8</ele>
        <time>2022-05-22 21:46:23</time>
      </trkpt>
      <trkpt lat="42.67083" lon="0.96589">
        <ele>1830.6</ele>
        <time>2022-05-22 21:46:24</time>
      </trkpt>
      <trkpt lat="42.67073" lon="0.96596">
        <ele>1829.6</ele>
        <time>2022-05-22 21:46:25</time>
      </trkpt>
      <trkpt lat="42.67062" lon="0.96602">
        <ele>1828.4</ele>
        <time>2022-05-22 21:46:26</time>
      </trkpt>
      <trkpt lat="42.67052" lon="0.96608">
        <ele>1827.4</ele>
        <time>2022-05-22 21:46:27</time>
      </trkpt>
      <trkpt lat="42.67041" lon="0.96615">
        <ele>1826.2</ele>
        <time>2022-05-22 21:46:28</time>
      </trkpt>
      <trkpt lat="42.67031" lon="0.96624">
        <ele>1825.2</ele>
        <time>2022-05-22 21:46:29</time>
      </trkpt>
      <trkpt lat="42.67021" lon="0.96633">
        <ele>1824.4</ele>
        <time>2022-05-22 21:46:30</time>
      </trkpt>
      <trkpt lat="42.67013" lon="0.96643">
        <ele>1823.6</ele>
        <time>2022-05-22 21:46:31</time>
      </trkpt>
      <trkpt lat="42.67005" lon="0.96655">
        <ele>1822.8</ele>
        <time>2022-05-22 21:46:32</time>
      </trkpt>
      <trkpt lat="42.66997" lon="0.96667">
        <ele>1821.6</ele>
        <time>2022-05-22 21:46:33</time>
      </trkpt>
      <trkpt lat="42.66988" lon="0.96677">
        <ele>1820.8</ele>
        <time>2022-05-22 21:46:34</time>
      </trkpt>
      <trkpt lat="42.6698" lon="0.96689">
        <ele>1819.8</ele>
        <time>2022-05-22 21:46:35</time>
      </trkpt>
      <trkpt lat="42.66972" lon="0.96702">
        <ele>1818.8</ele>
        <time>2022-05-22 21:46:36</time>
      </trkpt>
      <trkpt lat="42.66965" lon="0.96715">
        <ele>1818</ele>
        <time>2022-05-22 21:46:37</time>
      </trkpt>
      <trkpt lat="42.66958" lon="0.96729">
        <ele>1817.2</ele>
        <time>2022-05-22 21:46:38</time>
      </trkpt>
      <trkpt lat="42.66951" lon="0.96742">
        <ele>1816.6</ele>
        <time>2022-05-22 21:46:39</time>
      </trkpt>
      <trkpt lat="42.66943" lon="0.96755">
        <ele>1815.8</ele>
        <time>2022-05-22 21:46:40</time>
      </trkpt>
      <trkpt lat="42.66936" lon="0.96767">
        <ele>1815.2</ele>
        <time>2022-05-22 21:46:41</time>
      </trkpt>
      <trkpt lat="42.66927" lon="0.96778">
        <ele>1814.6</ele>
        <time>2022-05-22 21:46:42</time>
      </trkpt>
      <trkpt lat="42.66918" lon="0.96788">
        <ele>1813.8</ele>
        <time>2022-05-22 21:46:43</time>
      </trkpt>
      <trkpt lat="42.66909" lon="0.96798">
        <ele>1813.2</ele>
        <time>2022-05-22 21:46:44</time>
      </trkpt>
      <trkpt lat="42.669" lon="0.96809">
        <ele>1812.4</ele>
        <time>2022-05-22 21:46:45</time>
      </trkpt>
      <trkpt lat="42.66891" lon="0.9682">
        <ele>1811.6</ele>
        <time>2022-05-22 21:46:46</time>
      </trkpt>
      <trkpt lat="42.66882" lon="0.96832">
        <ele>1811</ele>
        <time>2022-05-22 21:46:47</time>
      </trkpt>
      <trkpt lat="42.66873" lon="0.96843">
        <ele>1810.2</ele>
        <time>2022-05-22 21:46:48</time>
      </trkpt>
      <trkpt lat="42.66864" lon="0.96854">
        <ele>1809.6</ele>
        <time>2022-05-22 21:46:49</time>
      </trkpt>
      <trkpt lat="42.66856" lon="0.96865">
        <ele>1808.8</ele>
        <time>2022-05-22 21:46:50</time>
      </trkpt>
      <trkpt lat="42.66848" lon="0.96873">
        <ele>1808.6</ele>
        <time>2022-05-22 21:46:51</time>
      </trkpt>
      <trkpt lat="42.6684" lon="0.96881">
        <ele>1808.4</ele>
        <time>2022-05-22 21:46:52</time>
      </trkpt>
      <trkpt lat="42.66832" lon="0.96886">
        <ele>1808.2</ele>
        <time>2022-05-22 21:46:53</time>
      </trkpt>
      <trkpt lat="42.66824" lon="0.96887">
        <ele>1808</ele>
        <time>2022-05-22 21:46:54</time>
      </trkpt>
      <trkpt lat="42.66818" lon="0.96885">
        <ele>1807.8</ele>
        <time>2022-05-22 21:46:55</time>
      </trkpt>
      <trkpt lat="42.66813" lon="0.9688">
        <ele>1807.4</ele>
        <time>2022-05-22 21:46:56</time>
      </trkpt>
      <trkpt lat="42.66813" lon="0.96871">
        <ele>1807</ele>
        <time>2022-05-22 21:46:57</time>
      </trkpt>
      <trkpt lat="42.66814" lon="0.96861">
        <ele>1806.6</ele>
        <time>2022-05-22 21:46:58</time>
      </trkpt>
      <trkpt lat="42.66819" lon="0.96851">
        <ele>1805.8</ele>
        <time>2022-05-22 21:46:59</time>
      </trkpt>
      <trkpt lat="42.66826" lon="0.96843">
        <ele>1805.2</ele>
        <time>2022-05-22 21:47:00</time>
      </trkpt>
      <trkpt lat="42.66833" lon="0.96836">
        <ele>1804.6</ele>
        <time>2022-05-22 21:47:01</time>
      </trkpt>
      <trkpt lat="42.66841" lon="0.96828">
        <ele>1803.8</ele>
        <time>2022-05-22 21:47:02</time>
      </trkpt>
      <trkpt lat="42.6685" lon="0.9682">
        <ele>1803</ele>
        <time>2022-05-22 21:47:03</time>
      </trkpt>
      <trkpt lat="42.66859" lon="0.9681">
        <ele>1802</ele>
        <time>2022-05-22 21:47:04</time>
      </trkpt>
      <trkpt lat="42.66868" lon="0.968">
        <ele>1801</ele>
        <time>2022-05-22 21:47:05</time>
      </trkpt>
      <trkpt lat="42.66876" lon="0.96789">
        <ele>1800.2</ele>
        <time>2022-05-22 21:47:06</time>
      </trkpt>
      <trkpt lat="42.66883" lon="0.96778">
        <ele>1799.4</ele>
        <time>2022-05-22 21:47:07</time>
      </trkpt>
      <trkpt lat="42.66891" lon="0.96766">
        <ele>1798.6</ele>
        <time>2022-05-22 21:47:08</time>
      </trkpt>
      <trkpt lat="42.66899" lon="0.96753">
        <ele>1797.6</ele>
        <time>2022-05-22 21:47:09</time>
      </trkpt>
      <trkpt lat="42.66906" lon="0.9674">
        <ele>1796.8</ele>
        <time>2022-05-22 21:47:10</time>
      </trkpt>
      <trkpt lat="42.66914" lon="0.96728">
        <ele>1795.8</ele>
        <time>2022-05-22 21:47:11</time>
      </trkpt>
      <trkpt lat="42.6692" lon="0.96715">
        <ele>1794.8</ele>
        <time>2022-05-22 21:47:12</time>
      </trkpt>
      <trkpt lat="42.66926" lon="0.96699">
        <ele>1793.8</ele>
        <time>2022-05-22 21:47:13</time>
      </trkpt>
      <trkpt lat="42.66933" lon="0.96685">
        <ele>1792.8</ele>
        <time>2022-05-22 21:47:14</time>
      </trkpt>
      <trkpt lat="42.66941" lon="0.96669">
        <ele>1791.8</ele>
        <time>2022-05-22 21:47:15</time>
      </trkpt>
      <trkpt lat="42.66948" lon="0.96654">
        <ele>1790.8</ele>
        <time>2022-05-22 21:47:16</time>
      </trkpt>
      <trkpt lat="42.66956" lon="0.96638">
        <ele>1789.8</ele>
        <time>2022-05-22 21:47:17</time>
      </trkpt>
      <trkpt lat="42.66965" lon="0.96623">
        <ele>1788.6</ele>
        <time>2022-05-22 21:47:18</time>
      </trkpt>
      <trkpt lat="42.66974" lon="0.96607">
        <ele>1787.6</ele>
        <time>2022-05-22 21:47:19</time>
      </trkpt>
      <trkpt lat="42.66984" lon="0.96591">
        <ele>1786.2</ele>
        <time>2022-05-22 21:47:20</time>
      </trkpt>
      <trkpt lat="42.66993" lon="0.96577">
        <ele>1784.8</ele>
        <time>2022-05-22 21:47:21</time>
      </trkpt>
      <trkpt lat="42.67003" lon="0.96562">
        <ele>1783.6</ele>
        <time>2022-05-22 21:47:22</time>
      </trkpt>
      <trkpt lat="42.67014" lon="0.96548">
        <ele>1782.6</ele>
        <time>2022-05-22 21:47:23</time>
      </trkpt>
      <trkpt lat="42.67024" lon="0.96534">
        <ele>1781.4</ele>
        <time>2022-05-22 21:47:24</time>
      </trkpt>
      <trkpt lat="42.67034" lon="0.9652">
        <ele>1780.2</ele>
        <time>2022-05-22 21:47:25</time>
      </trkpt>
      <trkpt lat="42.67045" lon="0.96506">
        <ele>1779</ele>
        <time>2022-05-22 21:47:26</time>
      </trkpt>
      <trkpt lat="42.67056" lon="0.96492">
        <ele>1777.8</ele>
        <time>2022-05-22 21:47:27</time>
      </trkpt>
      <trkpt lat="42.67067" lon="0.96478">
        <ele>1776.6</ele>
        <time>2022-05-22 21:47:28</time>
      </trkpt>
      <trkpt lat="42.6708" lon="0.96464">
        <ele>1775.4</ele>
        <time>2022-05-22 21:47:29</time>
      </trkpt>
      <trkpt lat="42.67092" lon="0.9645">
        <ele>1774.2</ele>
        <time>2022-05-22 21:47:30</time>
      </trkpt>
      <trkpt lat="42.67104" lon="0.96438">
        <ele>1773.2</ele>
        <time>2022-05-22 21:47:31</time>
      </trkpt>
      <trkpt lat="42.67116" lon="0.96426">
        <ele>1772</ele>
        <time>2022-05-22 21:47:32</time>
      </trkpt>
      <trkpt lat="42.67127" lon="0.96413">
        <ele>1770.6</ele>
        <time>2022-05-22 21:47:33</time>
      </trkpt>
      <trkpt lat="42.67139" lon="0.96399">
        <ele>1769.6</ele>
        <time>2022-05-22 21:47:34</time>
      </trkpt>
      <trkpt lat="42.6715" lon="0.96385">
        <ele>1768.4</ele>
        <time>2022-05-22 21:47:35</time>
      </trkpt>
      <trkpt lat="42.6716" lon="0.96371">
        <ele>1767.2</ele>
        <time>2022-05-22 21:47:36</time>
      </trkpt>
      <trkpt lat="42.6717" lon="0.96356">
        <ele>1766.2</ele>
        <time>2022-05-22 21:47:37</time>
      </trkpt>
      <trkpt lat="42.6718" lon="0.9634">
        <ele>1765.2</ele>
        <time>2022-05-22 21:47:38</time>
      </trkpt>
      <trkpt lat="42.6719" lon="0.96324">
        <ele>1764</ele>
        <time>2022-05-22 21:47:39</time>
      </trkpt>
      <trkpt lat="42.67199" lon="0.9631">
        <ele>1763</ele>
        <time>2022-05-22 21:47:40</time>
      </trkpt>
      <trkpt lat="42.6721" lon="0.96293">
        <ele>1761.8</ele>
        <time>2022-05-22 21:47:41</time>
      </trkpt>
      <trkpt lat="42.67221" lon="0.96277">
        <ele>1760.8</ele>
        <time>2022-05-22 21:47:42</time>
      </trkpt>
      <trkpt lat="42.67232" lon="0.96262">
        <ele>1759.6</ele>
        <time>2022-05-22 21:47:43</time>
      </trkpt>
      <trkpt lat="42.67241" lon="0.96248">
        <ele>1758.4</ele>
        <time>2022-05-22 21:47:44</time>
      </trkpt>
      <trkpt lat="42.67252" lon="0.96231">
        <ele>1757.2</ele>
        <time>2022-05-22 21:47:45</time>
      </trkpt>
      <trkpt lat="42.67262" lon="0.96214">
        <ele>1756.2</ele>
        <time>2022-05-22 21:47:46</time>
      </trkpt>
      <trkpt lat="42.67273" lon="0.96199">
        <ele>1755</ele>
        <time>2022-05-22 21:47:47</time>
      </trkpt>
      <trkpt lat="42.67284" lon="0.96183">
        <ele>1754</ele>
        <time>2022-05-22 21:47:48</time>
      </trkpt>
      <trkpt lat="42.67295" lon="0.96168">
        <ele>1752.8</ele>
        <time>2022-05-22 21:47:49</time>
      </trkpt>
      <trkpt lat="42.67307" lon="0.96154">
        <ele>1751.6</ele>
        <time>2022-05-22 21:47:50</time>
      </trkpt>
      <trkpt lat="42.67318" lon="0.96141">
        <ele>1750.2</ele>
        <time>2022-05-22 21:47:51</time>
      </trkpt>
      <trkpt lat="42.6733" lon="0.96127">
        <ele>1749</ele>
        <time>2022-05-22 21:47:52</time>
      </trkpt>
      <trkpt lat="42.67342" lon="0.96112">
        <ele>1748</ele>
        <time>2022-05-22 21:47:53</time>
      </trkpt>
      <trkpt lat="42.67354" lon="0.96098">
        <ele>1746.8</ele>
        <time>2022-05-22 21:47:54</time>
      </trkpt>
      <trkpt lat="42.67367" lon="0.96085">
        <ele>1745.6</ele>
        <time>2022-05-22 21:47:55</time>
      </trkpt>
      <trkpt lat="42.67379" lon="0.9607">
        <ele>1744.4</ele>
        <time>2022-05-22 21:47:56</time>
      </trkpt>
      <trkpt lat="42.6739" lon="0.96058">
        <ele>1743.2</ele>
        <time>2022-05-22 21:47:57</time>
      </trkpt>
      <trkpt lat="42.67404" lon="0.96043">
        <ele>1742</ele>
        <time>2022-05-22 21:47:58</time>
      </trkpt>
      <trkpt lat="42.67417" lon="0.96028">
        <ele>1740.6</ele>
        <time>2022-05-22 21:47:59</time>
      </trkpt>
      <trkpt lat="42.67429" lon="0.96014">
        <ele>1739.6</ele>
        <time>2022-05-22 21:48:00</time>
      </trkpt>
      <trkpt lat="42.67441" lon="0.96">
        <ele>1738.4</ele>
        <time>2022-05-22 21:48:01</time>
      </trkpt>
      <trkpt lat="42.67454" lon="0.95988">
        <ele>1737.2</ele>
        <time>2022-05-22 21:48:02</time>
      </trkpt>
      <trkpt lat="42.67468" lon="0.95976">
        <ele>1736</ele>
        <time>2022-05-22 21:48:03</time>
      </trkpt>
      <trkpt lat="42.6748" lon="0.95965">
        <ele>1734.8</ele>
        <time>2022-05-22 21:48:04</time>
      </trkpt>
      <trkpt lat="42.67496" lon="0.95955">
        <ele>1733.4</ele>
        <time>2022-05-22 21:48:05</time>
      </trkpt>
      <trkpt lat="42.67511" lon="0.95944">
        <ele>1732</ele>
        <time>2022-05-22 21:48:06</time>
      </trkpt>
      <trkpt lat="42.67525" lon="0.95934">
        <ele>1730.6</ele>
        <time>2022-05-22 21:48:07</time>
      </trkpt>
      <trkpt lat="42.67539" lon="0.95925">
        <ele>1729.4</ele>
        <time>2022-05-22 21:48:08</time>
      </trkpt>
      <trkpt lat="42.67555" lon="0.95916">
        <ele>1728.2</ele>
        <time>2022-05-22 21:48:09</time>
      </trkpt>
      <trkpt lat="42.67569" lon="0.95908">
        <ele>1726.8</ele>
        <time>2022-05-22 21:48:10</time>
      </trkpt>
      <trkpt lat="42.67584" lon="0.959">
        <ele>1725.4</ele>
        <time>2022-05-22 21:48:11</time>
      </trkpt>
      <trkpt lat="42.67599" lon="0.95892">
        <ele>1724.2</ele>
        <time>2022-05-22 21:48:12</time>
      </trkpt>
      <trkpt lat="42.67614" lon="0.95884">
        <ele>1723</ele>
        <time>2022-05-22 21:48:13</time>
      </trkpt>
      <trkpt lat="42.67628" lon="0.95876">
        <ele>1722</ele>
        <time>2022-05-22 21:48:14</time>
      </trkpt>
      <trkpt lat="42.67644" lon="0.95868">
        <ele>1720.8</ele>
        <time>2022-05-22 21:48:15</time>
      </trkpt>
      <trkpt lat="42.67659" lon="0.95861">
        <ele>1719.8</ele>
        <time>2022-05-22 21:48:16</time>
      </trkpt>
      <trkpt lat="42.67674" lon="0.95857">
        <ele>1718.6</ele>
        <time>2022-05-22 21:48:17</time>
      </trkpt>
      <trkpt lat="42.67688" lon="0.95855">
        <ele>1717.6</ele>
        <time>2022-05-22 21:48:18</time>
      </trkpt>
      <trkpt lat="42.67702" lon="0.95852">
        <ele>1716.8</ele>
        <time>2022-05-22 21:48:19</time>
      </trkpt>
      <trkpt lat="42.67717" lon="0.95849">
        <ele>1715.8</ele>
        <time>2022-05-22 21:48:20</time>
      </trkpt>
      <trkpt lat="42.67731" lon="0.95847">
        <ele>1714.8</ele>
        <time>2022-05-22 21:48:21</time>
      </trkpt>
      <trkpt lat="42.67746" lon="0.95843">
        <ele>1714</ele>
        <time>2022-05-22 21:48:22</time>
      </trkpt>
      <trkpt lat="42.6776" lon="0.95838">
        <ele>1713</ele>
        <time>2022-05-22 21:48:23</time>
      </trkpt>
      <trkpt lat="42.67773" lon="0.95832">
        <ele>1712</ele>
        <time>2022-05-22 21:48:24</time>
      </trkpt>
      <trkpt lat="42.67785" lon="0.95826">
        <ele>1711.2</ele>
        <time>2022-05-22 21:48:25</time>
      </trkpt>
      <trkpt lat="42.678" lon="0.95817">
        <ele>1710.2</ele>
        <time>2022-05-22 21:48:26</time>
      </trkpt>
      <trkpt lat="42.67814" lon="0.95807">
        <ele>1709.4</ele>
        <time>2022-05-22 21:48:27</time>
      </trkpt>
      <trkpt lat="42.67826" lon="0.95796">
        <ele>1708.6</ele>
        <time>2022-05-22 21:48:28</time>
      </trkpt>
      <trkpt lat="42.67839" lon="0.95785">
        <ele>1707.8</ele>
        <time>2022-05-22 21:48:29</time>
      </trkpt>
      <trkpt lat="42.67851" lon="0.95775">
        <ele>1707</ele>
        <time>2022-05-22 21:48:30</time>
      </trkpt>
      <trkpt lat="42.67863" lon="0.95765">
        <ele>1706</ele>
        <time>2022-05-22 21:48:31</time>
      </trkpt>
      <trkpt lat="42.67876" lon="0.95756">
        <ele>1705.4</ele>
        <time>2022-05-22 21:48:32</time>
      </trkpt>
      <trkpt lat="42.67888" lon="0.95747">
        <ele>1704.6</ele>
        <time>2022-05-22 21:48:33</time>
      </trkpt>
      <trkpt lat="42.679" lon="0.95737">
        <ele>1703.8</ele>
        <time>2022-05-22 21:48:34</time>
      </trkpt>
      <trkpt lat="42.67912" lon="0.95727">
        <ele>1702.6</ele>
        <time>2022-05-22 21:48:35</time>
      </trkpt>
      <trkpt lat="42.67923" lon="0.95716">
        <ele>1701.6</ele>
        <time>2022-05-22 21:48:36</time>
      </trkpt>
      <trkpt lat="42.67935" lon="0.95705">
        <ele>1700.6</ele>
        <time>2022-05-22 21:48:37</time>
      </trkpt>
      <trkpt lat="42.67946" lon="0.95693">
        <ele>1699.6</ele>
        <time>2022-05-22 21:48:38</time>
      </trkpt>
      <trkpt lat="42.67958" lon="0.95681">
        <ele>1698.8</ele>
        <time>2022-05-22 21:48:39</time>
      </trkpt>
      <trkpt lat="42.6797" lon="0.95669">
        <ele>1698</ele>
        <time>2022-05-22 21:48:40</time>
      </trkpt>
      <trkpt lat="42.67982" lon="0.95659">
        <ele>1697.2</ele>
        <time>2022-05-22 21:48:41</time>
      </trkpt>
      <trkpt lat="42.67994" lon="0.95648">
        <ele>1696.4</ele>
        <time>2022-05-22 21:48:42</time>
      </trkpt>
      <trkpt lat="42.68006" lon="0.95638">
        <ele>1695.6</ele>
        <time>2022-05-22 21:48:43</time>
      </trkpt>
      <trkpt lat="42.68017" lon="0.95627">
        <ele>1694.8</ele>
        <time>2022-05-22 21:48:44</time>
      </trkpt>
      <trkpt lat="42.68026" lon="0.95618">
        <ele>1693.8</ele>
        <time>2022-05-22 21:48:45</time>
      </trkpt>
      <trkpt lat="42.6804" lon="0.95608">
        <ele>1692.8</ele>
        <time>2022-05-22 21:48:46</time>
      </trkpt>
      <trkpt lat="42.68053" lon="0.95598">
        <ele>1691.8</ele>
        <time>2022-05-22 21:48:47</time>
      </trkpt>
      <trkpt lat="42.68066" lon="0.9559">
        <ele>1690.8</ele>
        <time>2022-05-22 21:48:48</time>
      </trkpt>
      <trkpt lat="42.68079" lon="0.95582">
        <ele>1689.6</ele>
        <time>2022-05-22 21:48:49</time>
      </trkpt>
      <trkpt lat="42.68093" lon="0.95575">
        <ele>1688.6</ele>
        <time>2022-05-22 21:48:50</time>
      </trkpt>
      <trkpt lat="42.68106" lon="0.95568">
        <ele>1687.6</ele>
        <time>2022-05-22 21:48:51</time>
      </trkpt>
      <trkpt lat="42.68119" lon="0.9556">
        <ele>1686.6</ele>
        <time>2022-05-22 21:48:52</time>
      </trkpt>
      <trkpt lat="42.68133" lon="0.95552">
        <ele>1685.4</ele>
        <time>2022-05-22 21:48:53</time>
      </trkpt>
      <trkpt lat="42.68145" lon="0.95545">
        <ele>1684.4</ele>
        <time>2022-05-22 21:48:54</time>
      </trkpt>
      <trkpt lat="42.68159" lon="0.95536">
        <ele>1683.6</ele>
        <time>2022-05-22 21:48:55</time>
      </trkpt>
      <trkpt lat="42.68171" lon="0.95528">
        <ele>1682.6</ele>
        <time>2022-05-22 21:48:56</time>
      </trkpt>
      <trkpt lat="42.68184" lon="0.95517">
        <ele>1681.8</ele>
        <time>2022-05-22 21:48:57</time>
      </trkpt>
      <trkpt lat="42.68197" lon="0.95507">
        <ele>1680.8</ele>
        <time>2022-05-22 21:48:58</time>
      </trkpt>
      <trkpt lat="42.68208" lon="0.95496">
        <ele>1680.2</ele>
        <time>2022-05-22 21:48:59</time>
      </trkpt>
      <trkpt lat="42.6822" lon="0.95485">
        <ele>1679.6</ele>
        <time>2022-05-22 21:49:00</time>
      </trkpt>
      <trkpt lat="42.68231" lon="0.95472">
        <ele>1678.8</ele>
        <time>2022-05-22 21:49:01</time>
      </trkpt>
      <trkpt lat="42.68242" lon="0.9546">
        <ele>1678</ele>
        <time>2022-05-22 21:49:02</time>
      </trkpt>
      <trkpt lat="42.68254" lon="0.95448">
        <ele>1677.4</ele>
        <time>2022-05-22 21:49:03</time>
      </trkpt>
      <trkpt lat="42.68265" lon="0.95436">
        <ele>1676.6</ele>
        <time>2022-05-22 21:49:04</time>
      </trkpt>
      <trkpt lat="42.68276" lon="0.95424">
        <ele>1675.6</ele>
        <time>2022-05-22 21:49:05</time>
      </trkpt>
      <trkpt lat="42.68288" lon="0.95412">
        <ele>1674.6</ele>
        <time>2022-05-22 21:49:06</time>
      </trkpt>
      <trkpt lat="42.68299" lon="0.954">
        <ele>1673.6</ele>
        <time>2022-05-22 21:49:07</time>
      </trkpt>
      <trkpt lat="42.68311" lon="0.95387">
        <ele>1672.8</ele>
        <time>2022-05-22 21:49:08</time>
      </trkpt>
      <trkpt lat="42.68322" lon="0.95373">
        <ele>1671.8</ele>
        <time>2022-05-22 21:49:09</time>
      </trkpt>
      <trkpt lat="42.68333" lon="0.95359">
        <ele>1670.8</ele>
        <time>2022-05-22 21:49:10</time>
      </trkpt>
      <trkpt lat="42.68344" lon="0.95345">
        <ele>1669.6</ele>
        <time>2022-05-22 21:49:11</time>
      </trkpt>
      <trkpt lat="42.68355" lon="0.9533">
        <ele>1668.4</ele>
        <time>2022-05-22 21:49:12</time>
      </trkpt>
      <trkpt lat="42.68367" lon="0.95316">
        <ele>1667.2</ele>
        <time>2022-05-22 21:49:13</time>
      </trkpt>
      <trkpt lat="42.68378" lon="0.95301">
        <ele>1666</ele>
        <time>2022-05-22 21:49:14</time>
      </trkpt>
      <trkpt lat="42.6839" lon="0.95286">
        <ele>1664.8</ele>
        <time>2022-05-22 21:49:15</time>
      </trkpt>
      <trkpt lat="42.68401" lon="0.95272">
        <ele>1663.6</ele>
        <time>2022-05-22 21:49:16</time>
      </trkpt>
      <trkpt lat="42.68412" lon="0.95256">
        <ele>1662.4</ele>
        <time>2022-05-22 21:49:17</time>
      </trkpt>
      <trkpt lat="42.68424" lon="0.9524">
        <ele>1661.2</ele>
        <time>2022-05-22 21:49:18</time>
      </trkpt>
      <trkpt lat="42.68434" lon="0.95225">
        <ele>1660.2</ele>
        <time>2022-05-22 21:49:19</time>
      </trkpt>
      <trkpt lat="42.68445" lon="0.95211">
        <ele>1659</ele>
        <time>2022-05-22 21:49:20</time>
      </trkpt>
      <trkpt lat="42.68456" lon="0.95197">
        <ele>1658</ele>
        <time>2022-05-22 21:49:21</time>
      </trkpt>
      <trkpt lat="42.68467" lon="0.95183">
        <ele>1656.8</ele>
        <time>2022-05-22 21:49:22</time>
      </trkpt>
      <trkpt lat="42.68478" lon="0.95169">
        <ele>1655.8</ele>
        <time>2022-05-22 21:49:23</time>
      </trkpt>
      <trkpt lat="42.68488" lon="0.95156">
        <ele>1654.8</ele>
        <time>2022-05-22 21:49:24</time>
      </trkpt>
      <trkpt lat="42.685" lon="0.95142">
        <ele>1653.6</ele>
        <time>2022-05-22 21:49:25</time>
      </trkpt>
      <trkpt lat="42.6851" lon="0.9513">
        <ele>1652.6</ele>
        <time>2022-05-22 21:49:26</time>
      </trkpt>
      <trkpt lat="42.68519" lon="0.95113">
        <ele>1651.6</ele>
        <time>2022-05-22 21:49:27</time>
      </trkpt>
      <trkpt lat="42.68529" lon="0.95098">
        <ele>1650.6</ele>
        <time>2022-05-22 21:49:28</time>
      </trkpt>
      <trkpt lat="42.68539" lon="0.95083">
        <ele>1649.6</ele>
        <time>2022-05-22 21:49:29</time>
      </trkpt>
      <trkpt lat="42.68549" lon="0.95068">
        <ele>1648.6</ele>
        <time>2022-05-22 21:49:30</time>
      </trkpt>
      <trkpt lat="42.6856" lon="0.95054">
        <ele>1647.6</ele>
        <time>2022-05-22 21:49:31</time>
      </trkpt>
      <trkpt lat="42.6857" lon="0.9504">
        <ele>1646.6</ele>
        <time>2022-05-22 21:49:32</time>
      </trkpt>
      <trkpt lat="42.6858" lon="0.95026">
        <ele>1645.6</ele>
        <time>2022-05-22 21:49:33</time>
      </trkpt>
      <trkpt lat="42.68591" lon="0.95012">
        <ele>1644.6</ele>
        <time>2022-05-22 21:49:34</time>
      </trkpt>
      <trkpt lat="42.68602" lon="0.94998">
        <ele>1643.4</ele>
        <time>2022-05-22 21:49:35</time>
      </trkpt>
      <trkpt lat="42.68613" lon="0.94982">
        <ele>1642</ele>
        <time>2022-05-22 21:49:36</time>
      </trkpt>
      <trkpt lat="42.68623" lon="0.94967">
        <ele>1640.8</ele>
        <time>2022-05-22 21:49:37</time>
      </trkpt>
      <trkpt lat="42.68633" lon="0.94952">
        <ele>1639.6</ele>
        <time>2022-05-22 21:49:38</time>
      </trkpt>
      <trkpt lat="42.68642" lon="0.94936">
        <ele>1638.4</ele>
        <time>2022-05-22 21:49:39</time>
      </trkpt>
      <trkpt lat="42.68652" lon="0.94922">
        <ele>1637.2</ele>
        <time>2022-05-22 21:49:40</time>
      </trkpt>
      <trkpt lat="42.68663" lon="0.94907">
        <ele>1636</ele>
        <time>2022-05-22 21:49:41</time>
      </trkpt>
      <trkpt lat="42.68673" lon="0.94893">
        <ele>1635</ele>
        <time>2022-05-22 21:49:42</time>
      </trkpt>
      <trkpt lat="42.68682" lon="0.9488">
        <ele>1634.2</ele>
        <time>2022-05-22 21:49:43</time>
      </trkpt>
      <trkpt lat="42.68692" lon="0.94866">
        <ele>1633.2</ele>
        <time>2022-05-22 21:49:44</time>
      </trkpt>
      <trkpt lat="42.68702" lon="0.94852">
        <ele>1632.4</ele>
        <time>2022-05-22 21:49:45</time>
      </trkpt>
      <trkpt lat="42.6871" lon="0.94838">
        <ele>1631.6</ele>
        <time>2022-05-22 21:49:46</time>
      </trkpt>
      <trkpt lat="42.6872" lon="0.94824">
        <ele>1631</ele>
        <time>2022-05-22 21:49:47</time>
      </trkpt>
      <trkpt lat="42.68729" lon="0.94809">
        <ele>1630.4</ele>
        <time>2022-05-22 21:49:48</time>
      </trkpt>
      <trkpt lat="42.68737" lon="0.94796">
        <ele>1629.8</ele>
        <time>2022-05-22 21:49:49</time>
      </trkpt>
      <trkpt lat="42.68745" lon="0.94782">
        <ele>1629.2</ele>
        <time>2022-05-22 21:49:50</time>
      </trkpt>
      <trkpt lat="42.68753" lon="0.94768">
        <ele>1628.6</ele>
        <time>2022-05-22 21:49:51</time>
      </trkpt>
      <trkpt lat="42.68761" lon="0.94755">
        <ele>1628</ele>
        <time>2022-05-22 21:49:52</time>
      </trkpt>
      <trkpt lat="42.68768" lon="0.94743">
        <ele>1627.4</ele>
        <time>2022-05-22 21:49:53</time>
      </trkpt>
      <trkpt lat="42.68775" lon="0.9473">
        <ele>1626.8</ele>
        <time>2022-05-22 21:49:54</time>
      </trkpt>
      <trkpt lat="42.68783" lon="0.94717">
        <ele>1626.2</ele>
        <time>2022-05-22 21:49:55</time>
      </trkpt>
      <trkpt lat="42.6879" lon="0.94706">
        <ele>1625.6</ele>
        <time>2022-05-22 21:49:56</time>
      </trkpt>
      <trkpt lat="42.68799" lon="0.94695">
        <ele>1625</ele>
        <time>2022-05-22 21:49:57</time>
      </trkpt>
      <trkpt lat="42.68808" lon="0.94684">
        <ele>1624.4</ele>
        <time>2022-05-22 21:49:58</time>
      </trkpt>
      <trkpt lat="42.68817" lon="0.94672">
        <ele>1623.6</ele>
        <time>2022-05-22 21:49:59</time>
      </trkpt>
      <trkpt lat="42.68825" lon="0.94659">
        <ele>1623</ele>
        <time>2022-05-22 21:50:00</time>
      </trkpt>
      <trkpt lat="42.68835" lon="0.94648">
        <ele>1622.2</ele>
        <time>2022-05-22 21:50:01</time>
      </trkpt>
      <trkpt lat="42.68847" lon="0.94644">
        <ele>1621.2</ele>
        <time>2022-05-22 21:50:02</time>
      </trkpt>
      <trkpt lat="42.68859" lon="0.94639">
        <ele>1620.4</ele>
        <time>2022-05-22 21:50:03</time>
      </trkpt>
      <trkpt lat="42.68872" lon="0.94632">
        <ele>1619.4</ele>
        <time>2022-05-22 21:50:04</time>
      </trkpt>
      <trkpt lat="42.68885" lon="0.94624">
        <ele>1618.4</ele>
        <time>2022-05-22 21:50:05</time>
      </trkpt>
      <trkpt lat="42.68898" lon="0.94617">
        <ele>1617.4</ele>
        <time>2022-05-22 21:50:06</time>
      </trkpt>
      <trkpt lat="42.68912" lon="0.94609">
        <ele>1616.4</ele>
        <time>2022-05-22 21:50:07</time>
      </trkpt>
      <trkpt lat="42.68925" lon="0.94602">
        <ele>1615.4</ele>
        <time>2022-05-22 21:50:08</time>
      </trkpt>
      <trkpt lat="42.68939" lon="0.94594">
        <ele>1614.2</ele>
        <time>2022-05-22 21:50:09</time>
      </trkpt>
      <trkpt lat="42.68953" lon="0.94586">
        <ele>1613.2</ele>
        <time>2022-05-22 21:50:10</time>
      </trkpt>
      <trkpt lat="42.68966" lon="0.94579">
        <ele>1612</ele>
        <time>2022-05-22 21:50:11</time>
      </trkpt>
      <trkpt lat="42.68978" lon="0.94573">
        <ele>1610.8</ele>
        <time>2022-05-22 21:50:12</time>
      </trkpt>
      <trkpt lat="42.68992" lon="0.94565">
        <ele>1609.6</ele>
        <time>2022-05-22 21:50:13</time>
      </trkpt>
      <trkpt lat="42.69005" lon="0.94556">
        <ele>1608.6</ele>
        <time>2022-05-22 21:50:14</time>
      </trkpt>
      <trkpt lat="42.69017" lon="0.94548">
        <ele>1607.4</ele>
        <time>2022-05-22 21:50:15</time>
      </trkpt>
      <trkpt lat="42.6903" lon="0.94539">
        <ele>1606.2</ele>
        <time>2022-05-22 21:50:16</time>
      </trkpt>
      <trkpt lat="42.69042" lon="0.94529">
        <ele>1605.2</ele>
        <time>2022-05-22 21:50:17</time>
      </trkpt>
      <trkpt lat="42.69054" lon="0.94518">
        <ele>1604</ele>
        <time>2022-05-22 21:50:18</time>
      </trkpt>
      <trkpt lat="42.69066" lon="0.94506">
        <ele>1603</ele>
        <time>2022-05-22 21:50:19</time>
      </trkpt>
      <trkpt lat="42.69078" lon="0.94494">
        <ele>1601.6</ele>
        <time>2022-05-22 21:50:20</time>
      </trkpt>
      <trkpt lat="42.69089" lon="0.94481">
        <ele>1600.4</ele>
        <time>2022-05-22 21:50:21</time>
      </trkpt>
      <trkpt lat="42.691" lon="0.94468">
        <ele>1599.4</ele>
        <time>2022-05-22 21:50:22</time>
      </trkpt>
      <trkpt lat="42.69111" lon="0.94456">
        <ele>1598.2</ele>
        <time>2022-05-22 21:50:23</time>
      </trkpt>
      <trkpt lat="42.69122" lon="0.94442">
        <ele>1597.2</ele>
        <time>2022-05-22 21:50:24</time>
      </trkpt>
      <trkpt lat="42.69133" lon="0.9443">
        <ele>1596</ele>
        <time>2022-05-22 21:50:25</time>
      </trkpt>
      <trkpt lat="42.69145" lon="0.94418">
        <ele>1595</ele>
        <time>2022-05-22 21:50:26</time>
      </trkpt>
      <trkpt lat="42.69157" lon="0.94404">
        <ele>1593.8</ele>
        <time>2022-05-22 21:50:27</time>
      </trkpt>
      <trkpt lat="42.69166" lon="0.9439">
        <ele>1592.8</ele>
        <time>2022-05-22 21:50:28</time>
      </trkpt>
      <trkpt lat="42.69176" lon="0.94374">
        <ele>1591.6</ele>
        <time>2022-05-22 21:50:29</time>
      </trkpt>
      <trkpt lat="42.69185" lon="0.94359">
        <ele>1590.4</ele>
        <time>2022-05-22 21:50:30</time>
      </trkpt>
      <trkpt lat="42.69194" lon="0.94343">
        <ele>1589.4</ele>
        <time>2022-05-22 21:50:31</time>
      </trkpt>
      <trkpt lat="42.69203" lon="0.94327">
        <ele>1588.2</ele>
        <time>2022-05-22 21:50:32</time>
      </trkpt>
      <trkpt lat="42.69212" lon="0.9431">
        <ele>1587</ele>
        <time>2022-05-22 21:50:33</time>
      </trkpt>
      <trkpt lat="42.69221" lon="0.94293">
        <ele>1586</ele>
        <time>2022-05-22 21:50:34</time>
      </trkpt>
      <trkpt lat="42.69229" lon="0.94277">
        <ele>1585</ele>
        <time>2022-05-22 21:50:35</time>
      </trkpt>
      <trkpt lat="42.69237" lon="0.94262">
        <ele>1584</ele>
        <time>2022-05-22 21:50:36</time>
      </trkpt>
      <trkpt lat="42.69245" lon="0.94246">
        <ele>1583</ele>
        <time>2022-05-22 21:50:37</time>
      </trkpt>
      <trkpt lat="42.69255" lon="0.9423">
        <ele>1581.8</ele>
        <time>2022-05-22 21:50:38</time>
      </trkpt>
      <trkpt lat="42.69265" lon="0.94215">
        <ele>1580.8</ele>
        <time>2022-05-22 21:50:39</time>
      </trkpt>
      <trkpt lat="42.69273" lon="0.94199">
        <ele>1579.6</ele>
        <time>2022-05-22 21:50:40</time>
      </trkpt>
      <trkpt lat="42.69283" lon="0.94184">
        <ele>1578.6</ele>
        <time>2022-05-22 21:50:41</time>
      </trkpt>
      <trkpt lat="42.69292" lon="0.94168">
        <ele>1577.6</ele>
        <time>2022-05-22 21:50:42</time>
      </trkpt>
      <trkpt lat="42.69301" lon="0.94153">
        <ele>1576.4</ele>
        <time>2022-05-22 21:50:43</time>
      </trkpt>
      <trkpt lat="42.6931" lon="0.94137">
        <ele>1575.4</ele>
        <time>2022-05-22 21:50:44</time>
      </trkpt>
      <trkpt lat="42.69318" lon="0.94122">
        <ele>1574.4</ele>
        <time>2022-05-22 21:50:45</time>
      </trkpt>
      <trkpt lat="42.69327" lon="0.94105">
        <ele>1573</ele>
        <time>2022-05-22 21:50:46</time>
      </trkpt>
      <trkpt lat="42.69334" lon="0.94089">
        <ele>1572</ele>
        <time>2022-05-22 21:50:47</time>
      </trkpt>
      <trkpt lat="42.6934" lon="0.94072">
        <ele>1570.8</ele>
        <time>2022-05-22 21:50:48</time>
      </trkpt>
      <trkpt lat="42.69346" lon="0.94054">
        <ele>1569.6</ele>
        <time>2022-05-22 21:50:49</time>
      </trkpt>
      <trkpt lat="42.69353" lon="0.94036">
        <ele>1568.6</ele>
        <time>2022-05-22 21:50:50</time>
      </trkpt>
      <trkpt lat="42.69359" lon="0.94019">
        <ele>1567.6</ele>
        <time>2022-05-22 21:50:51</time>
      </trkpt>
      <trkpt lat="42.69367" lon="0.94003">
        <ele>1566.4</ele>
        <time>2022-05-22 21:50:52</time>
      </trkpt>
      <trkpt lat="42.69375" lon="0.93988">
        <ele>1565.2</ele>
        <time>2022-05-22 21:50:53</time>
      </trkpt>
      <trkpt lat="42.69384" lon="0.93973">
        <ele>1564.2</ele>
        <time>2022-05-22 21:50:54</time>
      </trkpt>
      <trkpt lat="42.69392" lon="0.93959">
        <ele>1563</ele>
        <time>2022-05-22 21:50:55</time>
      </trkpt>
      <trkpt lat="42.694" lon="0.93944">
        <ele>1562</ele>
        <time>2022-05-22 21:50:56</time>
      </trkpt>
      <trkpt lat="42.6941" lon="0.9393">
        <ele>1561</ele>
        <time>2022-05-22 21:50:57</time>
      </trkpt>
      <trkpt lat="42.69419" lon="0.93916">
        <ele>1560</ele>
        <time>2022-05-22 21:50:58</time>
      </trkpt>
      <trkpt lat="42.69428" lon="0.93903">
        <ele>1559</ele>
        <time>2022-05-22 21:50:59</time>
      </trkpt>
      <trkpt lat="42.69438" lon="0.93892">
        <ele>1558.2</ele>
        <time>2022-05-22 21:51:00</time>
      </trkpt>
      <trkpt lat="42.69448" lon="0.93883">
        <ele>1557.2</ele>
        <time>2022-05-22 21:51:01</time>
      </trkpt>
      <trkpt lat="42.6946" lon="0.93875">
        <ele>1556.4</ele>
        <time>2022-05-22 21:51:02</time>
      </trkpt>
      <trkpt lat="42.69472" lon="0.93868">
        <ele>1555.4</ele>
        <time>2022-05-22 21:51:03</time>
      </trkpt>
      <trkpt lat="42.69484" lon="0.93859">
        <ele>1554.6</ele>
        <time>2022-05-22 21:51:04</time>
      </trkpt>
      <trkpt lat="42.69495" lon="0.93852">
        <ele>1553.6</ele>
        <time>2022-05-22 21:51:05</time>
      </trkpt>
      <trkpt lat="42.69506" lon="0.93842">
        <ele>1552.6</ele>
        <time>2022-05-22 21:51:06</time>
      </trkpt>
      <trkpt lat="42.69516" lon="0.93831">
        <ele>1551.8</ele>
        <time>2022-05-22 21:51:07</time>
      </trkpt>
      <trkpt lat="42.69525" lon="0.93819">
        <ele>1550.8</ele>
        <time>2022-05-22 21:51:08</time>
      </trkpt>
      <trkpt lat="42.69534" lon="0.93806">
        <ele>1550</ele>
        <time>2022-05-22 21:51:09</time>
      </trkpt>
      <trkpt lat="42.69542" lon="0.93793">
        <ele>1549</ele>
        <time>2022-05-22 21:51:10</time>
      </trkpt>
      <trkpt lat="42.69551" lon="0.93779">
        <ele>1547.8</ele>
        <time>2022-05-22 21:51:11</time>
      </trkpt>
      <trkpt lat="42.69561" lon="0.93765">
        <ele>1546.6</ele>
        <time>2022-05-22 21:51:12</time>
      </trkpt>
      <trkpt lat="42.69571" lon="0.93751">
        <ele>1545.6</ele>
        <time>2022-05-22 21:51:13</time>
      </trkpt>
      <trkpt lat="42.69581" lon="0.93739">
        <ele>1544.4</ele>
        <time>2022-05-22 21:51:14</time>
      </trkpt>
      <trkpt lat="42.69591" lon="0.93725">
        <ele>1543.4</ele>
        <time>2022-05-22 21:51:15</time>
      </trkpt>
      <trkpt lat="42.69602" lon="0.9371">
        <ele>1542</ele>
        <time>2022-05-22 21:51:16</time>
      </trkpt>
      <trkpt lat="42.69612" lon="0.93695">
        <ele>1541</ele>
        <time>2022-05-22 21:51:17</time>
      </trkpt>
      <trkpt lat="42.69622" lon="0.93681">
        <ele>1539.8</ele>
        <time>2022-05-22 21:51:18</time>
      </trkpt>
      <trkpt lat="42.69632" lon="0.93667">
        <ele>1538.6</ele>
        <time>2022-05-22 21:51:19</time>
      </trkpt>
      <trkpt lat="42.69642" lon="0.93654">
        <ele>1537.6</ele>
        <time>2022-05-22 21:51:20</time>
      </trkpt>
      <trkpt lat="42.69651" lon="0.93639">
        <ele>1536.6</ele>
        <time>2022-05-22 21:51:21</time>
      </trkpt>
      <trkpt lat="42.6966" lon="0.93625">
        <ele>1535.8</ele>
        <time>2022-05-22 21:51:22</time>
      </trkpt>
      <trkpt lat="42.69669" lon="0.93612">
        <ele>1534.8</ele>
        <time>2022-05-22 21:51:23</time>
      </trkpt>
      <trkpt lat="42.69677" lon="0.93602">
        <ele>1533.8</ele>
        <time>2022-05-22 21:51:24</time>
      </trkpt>
      <trkpt lat="42.69689" lon="0.93594">
        <ele>1532.8</ele>
        <time>2022-05-22 21:51:25</time>
      </trkpt>
      <trkpt lat="42.697" lon="0.93587">
        <ele>1532</ele>
        <time>2022-05-22 21:51:26</time>
      </trkpt>
      <trkpt lat="42.69712" lon="0.9358">
        <ele>1530.8</ele>
        <time>2022-05-22 21:51:27</time>
      </trkpt>
      <trkpt lat="42.69724" lon="0.93571">
        <ele>1530</ele>
        <time>2022-05-22 21:51:28</time>
      </trkpt>
      <trkpt lat="42.69735" lon="0.9356">
        <ele>1529</ele>
        <time>2022-05-22 21:51:29</time>
      </trkpt>
      <trkpt lat="42.69745" lon="0.93547">
        <ele>1528.2</ele>
        <time>2022-05-22 21:51:30</time>
      </trkpt>
      <trkpt lat="42.69753" lon="0.93533">
        <ele>1527.4</ele>
        <time>2022-05-22 21:51:31</time>
      </trkpt>
      <trkpt lat="42.69761" lon="0.93516">
        <ele>1526.4</ele>
        <time>2022-05-22 21:51:32</time>
      </trkpt>
      <trkpt lat="42.69768" lon="0.935">
        <ele>1525.4</ele>
        <time>2022-05-22 21:51:33</time>
      </trkpt>
      <trkpt lat="42.69776" lon="0.93485">
        <ele>1524.4</ele>
        <time>2022-05-22 21:51:34</time>
      </trkpt>
      <trkpt lat="42.69784" lon="0.93472">
        <ele>1523.4</ele>
        <time>2022-05-22 21:51:35</time>
      </trkpt>
      <trkpt lat="42.69792" lon="0.9346">
        <ele>1522.4</ele>
        <time>2022-05-22 21:51:36</time>
      </trkpt>
      <trkpt lat="42.698" lon="0.93449">
        <ele>1521.6</ele>
        <time>2022-05-22 21:51:37</time>
      </trkpt>
      <trkpt lat="42.69809" lon="0.93439">
        <ele>1521</ele>
        <time>2022-05-22 21:51:38</time>
      </trkpt>
      <trkpt lat="42.69816" lon="0.93431">
        <ele>1520.2</ele>
        <time>2022-05-22 21:51:39</time>
      </trkpt>
      <trkpt lat="42.69824" lon="0.93422">
        <ele>1519.6</ele>
        <time>2022-05-22 21:51:40</time>
      </trkpt>
      <trkpt lat="42.69833" lon="0.93415">
        <ele>1518.8</ele>
        <time>2022-05-22 21:51:41</time>
      </trkpt>
      <trkpt lat="42.69842" lon="0.93408">
        <ele>1518</ele>
        <time>2022-05-22 21:51:42</time>
      </trkpt>
      <trkpt lat="42.6985" lon="0.93403">
        <ele>1517.4</ele>
        <time>2022-05-22 21:51:43</time>
      </trkpt>
      <trkpt lat="42.6986" lon="0.93399">
        <ele>1516.6</ele>
        <time>2022-05-22 21:51:44</time>
      </trkpt>
      <trkpt lat="42.6987" lon="0.93395">
        <ele>1515.8</ele>
        <time>2022-05-22 21:51:45</time>
      </trkpt>
      <trkpt lat="42.6988" lon="0.93392">
        <ele>1515.2</ele>
        <time>2022-05-22 21:51:46</time>
      </trkpt>
      <trkpt lat="42.69889" lon="0.93388">
        <ele>1514.6</ele>
        <time>2022-05-22 21:51:47</time>
      </trkpt>
      <trkpt lat="42.69898" lon="0.93383">
        <ele>1514</ele>
        <time>2022-05-22 21:51:48</time>
      </trkpt>
      <trkpt lat="42.69908" lon="0.93378">
        <ele>1513.4</ele>
        <time>2022-05-22 21:51:49</time>
      </trkpt>
      <trkpt lat="42.69917" lon="0.93374">
        <ele>1512.8</ele>
        <time>2022-05-22 21:51:50</time>
      </trkpt>
      <trkpt lat="42.69926" lon="0.93369">
        <ele>1512.2</ele>
        <time>2022-05-22 21:51:51</time>
      </trkpt>
      <trkpt lat="42.69933" lon="0.93365">
        <ele>1511.6</ele>
        <time>2022-05-22 21:51:52</time>
      </trkpt>
      <trkpt lat="42.69941" lon="0.93359">
        <ele>1511.2</ele>
        <time>2022-05-22 21:51:53</time>
      </trkpt>
      <trkpt lat="42.69948" lon="0.93354">
        <ele>1510.8</ele>
        <time>2022-05-22 21:51:54</time>
      </trkpt>
      <trkpt lat="42.69954" lon="0.93345">
        <ele>1510.4</ele>
        <time>2022-05-22 21:51:55</time>
      </trkpt>
      <trkpt lat="42.69959" lon="0.93335">
        <ele>1510</ele>
        <time>2022-05-22 21:51:56</time>
      </trkpt>
      <trkpt lat="42.69961" lon="0.93324">
        <ele>1509.6</ele>
        <time>2022-05-22 21:51:57</time>
      </trkpt>
      <trkpt lat="42.69962" lon="0.93311">
        <ele>1509.2</ele>
        <time>2022-05-22 21:51:58</time>
      </trkpt>
      <trkpt lat="42.69962" lon="0.93297">
        <ele>1508.8</ele>
        <time>2022-05-22 21:51:59</time>
      </trkpt>
      <trkpt lat="42.69962" lon="0.93283">
        <ele>1508.4</ele>
        <time>2022-05-22 21:52:00</time>
      </trkpt>
      <trkpt lat="42.69964" lon="0.93268">
        <ele>1507.8</ele>
        <time>2022-05-22 21:52:01</time>
      </trkpt>
      <trkpt lat="42.69964" lon="0.93253">
        <ele>1507.2</ele>
        <time>2022-05-22 21:52:02</time>
      </trkpt>
      <trkpt lat="42.69965" lon="0.93237">
        <ele>1506.6</ele>
        <time>2022-05-22 21:52:03</time>
      </trkpt>
      <trkpt lat="42.69966" lon="0.93223">
        <ele>1506</ele>
        <time>2022-05-22 21:52:04</time>
      </trkpt>
      <trkpt lat="42.69966" lon="0.93208">
        <ele>1505.4</ele>
        <time>2022-05-22 21:52:05</time>
      </trkpt>
      <trkpt lat="42.69967" lon="0.93194">
        <ele>1504.8</ele>
        <time>2022-05-22 21:52:06</time>
      </trkpt>
      <trkpt lat="42.69967" lon="0.9318">
        <ele>1504.2</ele>
        <time>2022-05-22 21:52:07</time>
      </trkpt>
      <trkpt lat="42.69967" lon="0.93166">
        <ele>1503.4</ele>
        <time>2022-05-22 21:52:08</time>
      </trkpt>
      <trkpt lat="42.69967" lon="0.93152">
        <ele>1502.8</ele>
        <time>2022-05-22 21:52:09</time>
      </trkpt>
      <trkpt lat="42.69967" lon="0.93138">
        <ele>1502.2</ele>
        <time>2022-05-22 21:52:10</time>
      </trkpt>
      <trkpt lat="42.69967" lon="0.93123">
        <ele>1501.2</ele>
        <time>2022-05-22 21:52:11</time>
      </trkpt>
      <trkpt lat="42.69969" lon="0.93107">
        <ele>1500.4</ele>
        <time>2022-05-22 21:52:12</time>
      </trkpt>
      <trkpt lat="42.69971" lon="0.9309">
        <ele>1499.6</ele>
        <time>2022-05-22 21:52:13</time>
      </trkpt>
      <trkpt lat="42.69974" lon="0.93073">
        <ele>1498.4</ele>
        <time>2022-05-22 21:52:14</time>
      </trkpt>
      <trkpt lat="42.69976" lon="0.93057">
        <ele>1497.4</ele>
        <time>2022-05-22 21:52:15</time>
      </trkpt>
      <trkpt lat="42.6998" lon="0.93039">
        <ele>1496.4</ele>
        <time>2022-05-22 21:52:16</time>
      </trkpt>
      <trkpt lat="42.69986" lon="0.93023">
        <ele>1495.2</ele>
        <time>2022-05-22 21:52:17</time>
      </trkpt>
      <trkpt lat="42.69992" lon="0.93008">
        <ele>1494</ele>
        <time>2022-05-22 21:52:18</time>
      </trkpt>
      <trkpt lat="42.69998" lon="0.92992">
        <ele>1492.8</ele>
        <time>2022-05-22 21:52:19</time>
      </trkpt>
      <trkpt lat="42.70004" lon="0.92976">
        <ele>1491.6</ele>
        <time>2022-05-22 21:52:20</time>
      </trkpt>
      <trkpt lat="42.70011" lon="0.92959">
        <ele>1490.4</ele>
        <time>2022-05-22 21:52:21</time>
      </trkpt>
      <trkpt lat="42.70019" lon="0.92944">
        <ele>1489.2</ele>
        <time>2022-05-22 21:52:22</time>
      </trkpt>
      <trkpt lat="42.70027" lon="0.92928">
        <ele>1488.2</ele>
        <time>2022-05-22 21:52:23</time>
      </trkpt>
      <trkpt lat="42.70035" lon="0.92914">
        <ele>1487.2</ele>
        <time>2022-05-22 21:52:24</time>
      </trkpt>
      <trkpt lat="42.70042" lon="0.92899">
        <ele>1486.2</ele>
        <time>2022-05-22 21:52:25</time>
      </trkpt>
      <trkpt lat="42.70049" lon="0.92885">
        <ele>1485</ele>
        <time>2022-05-22 21:52:26</time>
      </trkpt>
      <trkpt lat="42.70055" lon="0.92871">
        <ele>1484</ele>
        <time>2022-05-22 21:52:27</time>
      </trkpt>
      <trkpt lat="42.7006" lon="0.92857">
        <ele>1483.2</ele>
        <time>2022-05-22 21:52:28</time>
      </trkpt>
      <trkpt lat="42.70065" lon="0.92842">
        <ele>1482.2</ele>
        <time>2022-05-22 21:52:29</time>
      </trkpt>
      <trkpt lat="42.7007" lon="0.92828">
        <ele>1481.4</ele>
        <time>2022-05-22 21:52:30</time>
      </trkpt>
      <trkpt lat="42.70074" lon="0.92813">
        <ele>1480.8</ele>
        <time>2022-05-22 21:52:31</time>
      </trkpt>
      <trkpt lat="42.70077" lon="0.92796">
        <ele>1480.2</ele>
        <time>2022-05-22 21:52:32</time>
      </trkpt>
      <trkpt lat="42.70079" lon="0.92781">
        <ele>1479.6</ele>
        <time>2022-05-22 21:52:33</time>
      </trkpt>
      <trkpt lat="42.70081" lon="0.92766">
        <ele>1479</ele>
        <time>2022-05-22 21:52:34</time>
      </trkpt>
      <trkpt lat="42.70085" lon="0.92751">
        <ele>1478.4</ele>
        <time>2022-05-22 21:52:35</time>
      </trkpt>
      <trkpt lat="42.7009" lon="0.92738">
        <ele>1477.6</ele>
        <time>2022-05-22 21:52:36</time>
      </trkpt>
      <trkpt lat="42.70097" lon="0.92725">
        <ele>1476.8</ele>
        <time>2022-05-22 21:52:37</time>
      </trkpt>
      <trkpt lat="42.70104" lon="0.92712">
        <ele>1475.8</ele>
        <time>2022-05-22 21:52:38</time>
      </trkpt>
      <trkpt lat="42.70111" lon="0.92698">
        <ele>1475</ele>
        <time>2022-05-22 21:52:39</time>
      </trkpt>
      <trkpt lat="42.70119" lon="0.92684">
        <ele>1474</ele>
        <time>2022-05-22 21:52:40</time>
      </trkpt>
      <trkpt lat="42.70127" lon="0.92669">
        <ele>1473</ele>
        <time>2022-05-22 21:52:41</time>
      </trkpt>
      <trkpt lat="42.70135" lon="0.92653">
        <ele>1471.8</ele>
        <time>2022-05-22 21:52:42</time>
      </trkpt>
      <trkpt lat="42.70143" lon="0.92638">
        <ele>1470.8</ele>
        <time>2022-05-22 21:52:43</time>
      </trkpt>
      <trkpt lat="42.70151" lon="0.92623">
        <ele>1469.6</ele>
        <time>2022-05-22 21:52:44</time>
      </trkpt>
      <trkpt lat="42.70159" lon="0.92608">
        <ele>1468.8</ele>
        <time>2022-05-22 21:52:45</time>
      </trkpt>
      <trkpt lat="42.70166" lon="0.92593">
        <ele>1467.8</ele>
        <time>2022-05-22 21:52:46</time>
      </trkpt>
      <trkpt lat="42.70173" lon="0.92577">
        <ele>1466.8</ele>
        <time>2022-05-22 21:52:47</time>
      </trkpt>
      <trkpt lat="42.70178" lon="0.9256">
        <ele>1466</ele>
        <time>2022-05-22 21:52:48</time>
      </trkpt>
      <trkpt lat="42.70182" lon="0.92544">
        <ele>1465.2</ele>
        <time>2022-05-22 21:52:49</time>
      </trkpt>
      <trkpt lat="42.70187" lon="0.92528">
        <ele>1464.2</ele>
        <time>2022-05-22 21:52:50</time>
      </trkpt>
      <trkpt lat="42.70191" lon="0.92511">
        <ele>1463.4</ele>
        <time>2022-05-22 21:52:51</time>
      </trkpt>
      <trkpt lat="42.70195" lon="0.92494">
        <ele>1462.4</ele>
        <time>2022-05-22 21:52:52</time>
      </trkpt>
      <trkpt lat="42.702" lon="0.92476">
        <ele>1461.6</ele>
        <time>2022-05-22 21:52:53</time>
      </trkpt>
      <trkpt lat="42.70205" lon="0.92458">
        <ele>1460.6</ele>
        <time>2022-05-22 21:52:54</time>
      </trkpt>
      <trkpt lat="42.7021" lon="0.9244">
        <ele>1460</ele>
        <time>2022-05-22 21:52:55</time>
      </trkpt>
      <trkpt lat="42.70214" lon="0.92423">
        <ele>1459.2</ele>
        <time>2022-05-22 21:52:56</time>
      </trkpt>
      <trkpt lat="42.70218" lon="0.92407">
        <ele>1458.6</ele>
        <time>2022-05-22 21:52:57</time>
      </trkpt>
      <trkpt lat="42.70222" lon="0.9239">
        <ele>1458.2</ele>
        <time>2022-05-22 21:52:58</time>
      </trkpt>
      <trkpt lat="42.70225" lon="0.92374">
        <ele>1457.6</ele>
        <time>2022-05-22 21:52:59</time>
      </trkpt>
      <trkpt lat="42.70229" lon="0.92359">
        <ele>1457.2</ele>
        <time>2022-05-22 21:53:00</time>
      </trkpt>
      <trkpt lat="42.70232" lon="0.92344">
        <ele>1456.8</ele>
        <time>2022-05-22 21:53:01</time>
      </trkpt>
      <trkpt lat="42.70235" lon="0.92329">
        <ele>1456.4</ele>
        <time>2022-05-22 21:53:02</time>
      </trkpt>
      <trkpt lat="42.70239" lon="0.92315">
        <ele>1456</ele>
        <time>2022-05-22 21:53:03</time>
      </trkpt>
      <trkpt lat="42.70244" lon="0.92301">
        <ele>1455.6</ele>
        <time>2022-05-22 21:53:04</time>
      </trkpt>
      <trkpt lat="42.70249" lon="0.92287">
        <ele>1455.2</ele>
        <time>2022-05-22 21:53:05</time>
      </trkpt>
      <trkpt lat="42.70253" lon="0.92273">
        <ele>1454.8</ele>
        <time>2022-05-22 21:53:06</time>
      </trkpt>
      <trkpt lat="42.70258" lon="0.9226">
        <ele>1454.4</ele>
        <time>2022-05-22 21:53:07</time>
      </trkpt>
      <trkpt lat="42.70264" lon="0.92245">
        <ele>1454</ele>
        <time>2022-05-22 21:53:08</time>
      </trkpt>
      <trkpt lat="42.70269" lon="0.92232">
        <ele>1453.8</ele>
        <time>2022-05-22 21:53:09</time>
      </trkpt>
      <trkpt lat="42.70274" lon="0.92218">
        <ele>1453.4</ele>
        <time>2022-05-22 21:53:10</time>
      </trkpt>
      <trkpt lat="42.70279" lon="0.92204">
        <ele>1453</ele>
        <time>2022-05-22 21:53:11</time>
      </trkpt>
      <trkpt lat="42.70283" lon="0.92191">
        <ele>1452.6</ele>
        <time>2022-05-22 21:53:12</time>
      </trkpt>
      <trkpt lat="42.70288" lon="0.92178">
        <ele>1452.4</ele>
        <time>2022-05-22 21:53:13</time>
      </trkpt>
      <trkpt lat="42.70293" lon="0.92165">
        <ele>1452</ele>
        <time>2022-05-22 21:53:14</time>
      </trkpt>
      <trkpt lat="42.70297" lon="0.92152">
        <ele>1451.6</ele>
        <time>2022-05-22 21:53:15</time>
      </trkpt>
      <trkpt lat="42.70302" lon="0.9214">
        <ele>1451.2</ele>
        <time>2022-05-22 21:53:16</time>
      </trkpt>
      <trkpt lat="42.70306" lon="0.92127">
        <ele>1450.6</ele>
        <time>2022-05-22 21:53:17</time>
      </trkpt>
      <trkpt lat="42.7031" lon="0.92115">
        <ele>1450.2</ele>
        <time>2022-05-22 21:53:18</time>
      </trkpt>
      <trkpt lat="42.70315" lon="0.92102">
        <ele>1449.8</ele>
        <time>2022-05-22 21:53:19</time>
      </trkpt>
      <trkpt lat="42.70321" lon="0.92089">
        <ele>1449.2</ele>
        <time>2022-05-22 21:53:20</time>
      </trkpt>
      <trkpt lat="42.70327" lon="0.92077">
        <ele>1448.8</ele>
        <time>2022-05-22 21:53:21</time>
      </trkpt>
      <trkpt lat="42.70332" lon="0.92064">
        <ele>1448.2</ele>
        <time>2022-05-22 21:53:22</time>
      </trkpt>
      <trkpt lat="42.70338" lon="0.92053">
        <ele>1447.6</ele>
        <time>2022-05-22 21:53:23</time>
      </trkpt>
      <trkpt lat="42.70343" lon="0.92041">
        <ele>1446.8</ele>
        <time>2022-05-22 21:53:24</time>
      </trkpt>
      <trkpt lat="42.70349" lon="0.92029">
        <ele>1446.2</ele>
        <time>2022-05-22 21:53:25</time>
      </trkpt>
      <trkpt lat="42.70354" lon="0.92016">
        <ele>1445.6</ele>
        <time>2022-05-22 21:53:26</time>
      </trkpt>
      <trkpt lat="42.70361" lon="0.92003">
        <ele>1444.8</ele>
        <time>2022-05-22 21:53:27</time>
      </trkpt>
      <trkpt lat="42.70368" lon="0.9199">
        <ele>1444</ele>
        <time>2022-05-22 21:53:28</time>
      </trkpt>
      <trkpt lat="42.70373" lon="0.91978">
        <ele>1443.2</ele>
        <time>2022-05-22 21:53:29</time>
      </trkpt>
      <trkpt lat="42.7038" lon="0.91965">
        <ele>1442.4</ele>
        <time>2022-05-22 21:53:30</time>
      </trkpt>
      <trkpt lat="42.70386" lon="0.91952">
        <ele>1441.6</ele>
        <time>2022-05-22 21:53:31</time>
      </trkpt>
      <trkpt lat="42.70393" lon="0.91939">
        <ele>1440.8</ele>
        <time>2022-05-22 21:53:32</time>
      </trkpt>
      <trkpt lat="42.70401" lon="0.91926">
        <ele>1440</ele>
        <time>2022-05-22 21:53:33</time>
      </trkpt>
      <trkpt lat="42.70407" lon="0.91914">
        <ele>1439.4</ele>
        <time>2022-05-22 21:53:34</time>
      </trkpt>
      <trkpt lat="42.70414" lon="0.91901">
        <ele>1438.8</ele>
        <time>2022-05-22 21:53:35</time>
      </trkpt>
      <trkpt lat="42.70421" lon="0.91888">
        <ele>1438.2</ele>
        <time>2022-05-22 21:53:36</time>
      </trkpt>
      <trkpt lat="42.70427" lon="0.91876">
        <ele>1437.6</ele>
        <time>2022-05-22 21:53:37</time>
      </trkpt>
      <trkpt lat="42.70435" lon="0.91864">
        <ele>1437</ele>
        <time>2022-05-22 21:53:38</time>
      </trkpt>
      <trkpt lat="42.70442" lon="0.91852">
        <ele>1436.6</ele>
        <time>2022-05-22 21:53:39</time>
      </trkpt>
      <trkpt lat="42.70447" lon="0.91841">
        <ele>1436</ele>
        <time>2022-05-22 21:53:40</time>
      </trkpt>
      <trkpt lat="42.70453" lon="0.9183">
        <ele>1435.6</ele>
        <time>2022-05-22 21:53:41</time>
      </trkpt>
      <trkpt lat="42.70461" lon="0.91818">
        <ele>1435</ele>
        <time>2022-05-22 21:53:42</time>
      </trkpt>
      <trkpt lat="42.70469" lon="0.91808">
        <ele>1434.4</ele>
        <time>2022-05-22 21:53:43</time>
      </trkpt>
      <trkpt lat="42.70478" lon="0.91798">
        <ele>1433.8</ele>
        <time>2022-05-22 21:53:44</time>
      </trkpt>
      <trkpt lat="42.70487" lon="0.91789">
        <ele>1433.2</ele>
        <time>2022-05-22 21:53:45</time>
      </trkpt>
      <trkpt lat="42.70495" lon="0.91779">
        <ele>1432.4</ele>
        <time>2022-05-22 21:53:46</time>
      </trkpt>
      <trkpt lat="42.70505" lon="0.9177">
        <ele>1431.8</ele>
        <time>2022-05-22 21:53:47</time>
      </trkpt>
      <trkpt lat="42.70514" lon="0.9176">
        <ele>1431</ele>
        <time>2022-05-22 21:53:48</time>
      </trkpt>
      <trkpt lat="42.70522" lon="0.9175">
        <ele>1430.4</ele>
        <time>2022-05-22 21:53:49</time>
      </trkpt>
      <trkpt lat="42.7053" lon="0.91739">
        <ele>1429.6</ele>
        <time>2022-05-22 21:53:50</time>
      </trkpt>
      <trkpt lat="42.70538" lon="0.91726">
        <ele>1429</ele>
        <time>2022-05-22 21:53:51</time>
      </trkpt>
      <trkpt lat="42.70545" lon="0.91713">
        <ele>1428.2</ele>
        <time>2022-05-22 21:53:52</time>
      </trkpt>
      <trkpt lat="42.70551" lon="0.91699">
        <ele>1427.4</ele>
        <time>2022-05-22 21:53:53</time>
      </trkpt>
      <trkpt lat="42.70557" lon="0.91684">
        <ele>1426.8</ele>
        <time>2022-05-22 21:53:54</time>
      </trkpt>
      <trkpt lat="42.70562" lon="0.91669">
        <ele>1426</ele>
        <time>2022-05-22 21:53:55</time>
      </trkpt>
      <trkpt lat="42.70567" lon="0.91654">
        <ele>1425.2</ele>
        <time>2022-05-22 21:53:56</time>
      </trkpt>
      <trkpt lat="42.70572" lon="0.91639">
        <ele>1424.4</ele>
        <time>2022-05-22 21:53:57</time>
      </trkpt>
      <trkpt lat="42.70577" lon="0.91624">
        <ele>1423.6</ele>
        <time>2022-05-22 21:53:58</time>
      </trkpt>
      <trkpt lat="42.70581" lon="0.91609">
        <ele>1422.8</ele>
        <time>2022-05-22 21:53:59</time>
      </trkpt>
      <trkpt lat="42.70585" lon="0.91593">
        <ele>1422</ele>
        <time>2022-05-22 21:54:00</time>
      </trkpt>
      <trkpt lat="42.70589" lon="0.91578">
        <ele>1421</ele>
        <time>2022-05-22 21:54:01</time>
      </trkpt>
      <trkpt lat="42.70593" lon="0.91562">
        <ele>1420.2</ele>
        <time>2022-05-22 21:54:02</time>
      </trkpt>
      <trkpt lat="42.70597" lon="0.91545">
        <ele>1419.4</ele>
        <time>2022-05-22 21:54:03</time>
      </trkpt>
      <trkpt lat="42.70601" lon="0.91529">
        <ele>1418.6</ele>
        <time>2022-05-22 21:54:04</time>
      </trkpt>
      <trkpt lat="42.70605" lon="0.91512">
        <ele>1417.8</ele>
        <time>2022-05-22 21:54:05</time>
      </trkpt>
      <trkpt lat="42.70608" lon="0.91494">
        <ele>1417</ele>
        <time>2022-05-22 21:54:06</time>
      </trkpt>
      <trkpt lat="42.7061" lon="0.91475">
        <ele>1416.2</ele>
        <time>2022-05-22 21:54:07</time>
      </trkpt>
      <trkpt lat="42.70611" lon="0.91458">
        <ele>1415.4</ele>
        <time>2022-05-22 21:54:08</time>
      </trkpt>
      <trkpt lat="42.70612" lon="0.91441">
        <ele>1414.6</ele>
        <time>2022-05-22 21:54:09</time>
      </trkpt>
      <trkpt lat="42.70613" lon="0.91424">
        <ele>1413.8</ele>
        <time>2022-05-22 21:54:10</time>
      </trkpt>
      <trkpt lat="42.70613" lon="0.91407">
        <ele>1412.8</ele>
        <time>2022-05-22 21:54:11</time>
      </trkpt>
      <trkpt lat="42.70615" lon="0.91388">
        <ele>1412</ele>
        <time>2022-05-22 21:54:12</time>
      </trkpt>
      <trkpt lat="42.70616" lon="0.91369">
        <ele>1411</ele>
        <time>2022-05-22 21:54:13</time>
      </trkpt>
      <trkpt lat="42.70617" lon="0.9135">
        <ele>1410</ele>
        <time>2022-05-22 21:54:14</time>
      </trkpt>
      <trkpt lat="42.70618" lon="0.91332">
        <ele>1409</ele>
        <time>2022-05-22 21:54:15</time>
      </trkpt>
      <trkpt lat="42.70619" lon="0.91313">
        <ele>1408</ele>
        <time>2022-05-22 21:54:16</time>
      </trkpt>
      <trkpt lat="42.70621" lon="0.91295">
        <ele>1406.8</ele>
        <time>2022-05-22 21:54:17</time>
      </trkpt>
      <trkpt lat="42.70624" lon="0.91276">
        <ele>1405.8</ele>
        <time>2022-05-22 21:54:18</time>
      </trkpt>
      <trkpt lat="42.70626" lon="0.91258">
        <ele>1404.6</ele>
        <time>2022-05-22 21:54:19</time>
      </trkpt>
      <trkpt lat="42.70629" lon="0.91239">
        <ele>1403.4</ele>
        <time>2022-05-22 21:54:20</time>
      </trkpt>
      <trkpt lat="42.70633" lon="0.91221">
        <ele>1402.2</ele>
        <time>2022-05-22 21:54:21</time>
      </trkpt>
      <trkpt lat="42.70638" lon="0.91203">
        <ele>1401</ele>
        <time>2022-05-22 21:54:22</time>
      </trkpt>
      <trkpt lat="42.70643" lon="0.91184">
        <ele>1399.8</ele>
        <time>2022-05-22 21:54:23</time>
      </trkpt>
      <trkpt lat="42.70648" lon="0.91165">
        <ele>1399</ele>
        <time>2022-05-22 21:54:24</time>
      </trkpt>
      <trkpt lat="42.70651" lon="0.91147">
        <ele>1398</ele>
        <time>2022-05-22 21:54:25</time>
      </trkpt>
      <trkpt lat="42.70655" lon="0.91128">
        <ele>1397</ele>
        <time>2022-05-22 21:54:26</time>
      </trkpt>
      <trkpt lat="42.70659" lon="0.91109">
        <ele>1396.2</ele>
        <time>2022-05-22 21:54:27</time>
      </trkpt>
      <trkpt lat="42.70663" lon="0.91092">
        <ele>1395.2</ele>
        <time>2022-05-22 21:54:28</time>
      </trkpt>
      <trkpt lat="42.70669" lon="0.91077">
        <ele>1394.4</ele>
        <time>2022-05-22 21:54:29</time>
      </trkpt>
      <trkpt lat="42.70676" lon="0.91063">
        <ele>1393.6</ele>
        <time>2022-05-22 21:54:30</time>
      </trkpt>
      <trkpt lat="42.70684" lon="0.91052">
        <ele>1392.8</ele>
        <time>2022-05-22 21:54:31</time>
      </trkpt>
      <trkpt lat="42.70694" lon="0.91042">
        <ele>1392.2</ele>
        <time>2022-05-22 21:54:32</time>
      </trkpt>
      <trkpt lat="42.70705" lon="0.91035">
        <ele>1391.6</ele>
        <time>2022-05-22 21:54:33</time>
      </trkpt>
      <trkpt lat="42.70715" lon="0.91028">
        <ele>1391</ele>
        <time>2022-05-22 21:54:34</time>
      </trkpt>
      <trkpt lat="42.70721" lon="0.91019">
        <ele>1390.6</ele>
        <time>2022-05-22 21:54:35</time>
      </trkpt>
      <trkpt lat="42.70723" lon="0.9101">
        <ele>1390.2</ele>
        <time>2022-05-22 21:54:36</time>
      </trkpt>
      <trkpt lat="42.70722" lon="0.91">
        <ele>1389.8</ele>
        <time>2022-05-22 21:54:37</time>
      </trkpt>
      <trkpt lat="42.70718" lon="0.90993">
        <ele>1389.2</ele>
        <time>2022-05-22 21:54:38</time>
      </trkpt>
      <trkpt lat="42.70712" lon="0.90987">
        <ele>1388.8</ele>
        <time>2022-05-22 21:54:39</time>
      </trkpt>
      <trkpt lat="42.70704" lon="0.90984">
        <ele>1388.4</ele>
        <time>2022-05-22 21:54:40</time>
      </trkpt>
      <trkpt lat="42.70695" lon="0.90986">
        <ele>1387.8</ele>
        <time>2022-05-22 21:54:41</time>
      </trkpt>
      <trkpt lat="42.70688" lon="0.9099">
        <ele>1387.4</ele>
        <time>2022-05-22 21:54:42</time>
      </trkpt>
      <trkpt lat="42.70682" lon="0.90998">
        <ele>1386.8</ele>
        <time>2022-05-22 21:54:43</time>
      </trkpt>
      <trkpt lat="42.70677" lon="0.91006">
        <ele>1386.4</ele>
        <time>2022-05-22 21:54:44</time>
      </trkpt>
      <trkpt lat="42.70671" lon="0.91016">
        <ele>1385.8</ele>
        <time>2022-05-22 21:54:45</time>
      </trkpt>
      <trkpt lat="42.70666" lon="0.91025">
        <ele>1385.2</ele>
        <time>2022-05-22 21:54:46</time>
      </trkpt>
      <trkpt lat="42.7066" lon="0.91035">
        <ele>1384.6</ele>
        <time>2022-05-22 21:54:47</time>
      </trkpt>
      <trkpt lat="42.70654" lon="0.91044">
        <ele>1384</ele>
        <time>2022-05-22 21:54:48</time>
      </trkpt>
      <trkpt lat="42.70647" lon="0.91054">
        <ele>1383.4</ele>
        <time>2022-05-22 21:54:49</time>
      </trkpt>
      <trkpt lat="42.70641" lon="0.91064">
        <ele>1382.6</ele>
        <time>2022-05-22 21:54:50</time>
      </trkpt>
      <trkpt lat="42.70635" lon="0.91074">
        <ele>1382</ele>
        <time>2022-05-22 21:54:51</time>
      </trkpt>
      <trkpt lat="42.70628" lon="0.91085">
        <ele>1381.4</ele>
        <time>2022-05-22 21:54:52</time>
      </trkpt>
      <trkpt lat="42.70622" lon="0.91096">
        <ele>1380.6</ele>
        <time>2022-05-22 21:54:53</time>
      </trkpt>
      <trkpt lat="42.70616" lon="0.91106">
        <ele>1380</ele>
        <time>2022-05-22 21:54:54</time>
      </trkpt>
      <trkpt lat="42.7061" lon="0.91118">
        <ele>1379.4</ele>
        <time>2022-05-22 21:54:55</time>
      </trkpt>
      <trkpt lat="42.70604" lon="0.91131">
        <ele>1378.6</ele>
        <time>2022-05-22 21:54:56</time>
      </trkpt>
      <trkpt lat="42.70599" lon="0.91142">
        <ele>1377.8</ele>
        <time>2022-05-22 21:54:57</time>
      </trkpt>
      <trkpt lat="42.70594" lon="0.91154">
        <ele>1377.2</ele>
        <time>2022-05-22 21:54:58</time>
      </trkpt>
      <trkpt lat="42.7059" lon="0.91167">
        <ele>1376.6</ele>
        <time>2022-05-22 21:54:59</time>
      </trkpt>
      <trkpt lat="42.70586" lon="0.91181">
        <ele>1375.8</ele>
        <time>2022-05-22 21:55:00</time>
      </trkpt>
      <trkpt lat="42.70584" lon="0.91195">
        <ele>1375.2</ele>
        <time>2022-05-22 21:55:01</time>
      </trkpt>
      <trkpt lat="42.70582" lon="0.91209">
        <ele>1374.6</ele>
        <time>2022-05-22 21:55:02</time>
      </trkpt>
      <trkpt lat="42.70579" lon="0.91221">
        <ele>1374</ele>
        <time>2022-05-22 21:55:03</time>
      </trkpt>
      <trkpt lat="42.70577" lon="0.91236">
        <ele>1373.2</ele>
        <time>2022-05-22 21:55:04</time>
      </trkpt>
      <trkpt lat="42.70575" lon="0.9125">
        <ele>1372.6</ele>
        <time>2022-05-22 21:55:05</time>
      </trkpt>
      <trkpt lat="42.70573" lon="0.91264">
        <ele>1372</ele>
        <time>2022-05-22 21:55:06</time>
      </trkpt>
      <trkpt lat="42.7057" lon="0.91279">
        <ele>1371.2</ele>
        <time>2022-05-22 21:55:07</time>
      </trkpt>
      <trkpt lat="42.70567" lon="0.91294">
        <ele>1370.4</ele>
        <time>2022-05-22 21:55:08</time>
      </trkpt>
      <trkpt lat="42.70564" lon="0.91309">
        <ele>1369.6</ele>
        <time>2022-05-22 21:55:09</time>
      </trkpt>
      <trkpt lat="42.70561" lon="0.91323">
        <ele>1368.8</ele>
        <time>2022-05-22 21:55:10</time>
      </trkpt>
      <trkpt lat="42.70557" lon="0.91337">
        <ele>1367.8</ele>
        <time>2022-05-22 21:55:11</time>
      </trkpt>
      <trkpt lat="42.70552" lon="0.91351">
        <ele>1367</ele>
        <time>2022-05-22 21:55:12</time>
      </trkpt>
      <trkpt lat="42.70547" lon="0.91364">
        <ele>1366.2</ele>
        <time>2022-05-22 21:55:13</time>
      </trkpt>
      <trkpt lat="42.70541" lon="0.91378">
        <ele>1365.4</ele>
        <time>2022-05-22 21:55:14</time>
      </trkpt>
      <trkpt lat="42.70535" lon="0.91391">
        <ele>1364.8</ele>
        <time>2022-05-22 21:55:15</time>
      </trkpt>
      <trkpt lat="42.70528" lon="0.91404">
        <ele>1364</ele>
        <time>2022-05-22 21:55:16</time>
      </trkpt>
      <trkpt lat="42.70522" lon="0.91416">
        <ele>1363.2</ele>
        <time>2022-05-22 21:55:17</time>
      </trkpt>
      <trkpt lat="42.70514" lon="0.91428">
        <ele>1362.4</ele>
        <time>2022-05-22 21:55:18</time>
      </trkpt>
      <trkpt lat="42.70506" lon="0.91438">
        <ele>1361.8</ele>
        <time>2022-05-22 21:55:19</time>
      </trkpt>
      <trkpt lat="42.70498" lon="0.91449">
        <ele>1361</ele>
        <time>2022-05-22 21:55:20</time>
      </trkpt>
      <trkpt lat="42.7049" lon="0.91458">
        <ele>1360.4</ele>
        <time>2022-05-22 21:55:21</time>
      </trkpt>
      <trkpt lat="42.7048" lon="0.91468">
        <ele>1359.8</ele>
        <time>2022-05-22 21:55:22</time>
      </trkpt>
      <trkpt lat="42.70471" lon="0.91477">
        <ele>1359.2</ele>
        <time>2022-05-22 21:55:23</time>
      </trkpt>
      <trkpt lat="42.70462" lon="0.91486">
        <ele>1358.6</ele>
        <time>2022-05-22 21:55:24</time>
      </trkpt>
      <trkpt lat="42.70453" lon="0.91496">
        <ele>1358</ele>
        <time>2022-05-22 21:55:25</time>
      </trkpt>
      <trkpt lat="42.70445" lon="0.91505">
        <ele>1357.6</ele>
        <time>2022-05-22 21:55:26</time>
      </trkpt>
      <trkpt lat="42.70437" lon="0.91514">
        <ele>1357</ele>
        <time>2022-05-22 21:55:27</time>
      </trkpt>
      <trkpt lat="42.70428" lon="0.91523">
        <ele>1356.4</ele>
        <time>2022-05-22 21:55:28</time>
      </trkpt>
      <trkpt lat="42.70419" lon="0.91532">
        <ele>1355.8</ele>
        <time>2022-05-22 21:55:29</time>
      </trkpt>
      <trkpt lat="42.7041" lon="0.9154">
        <ele>1355.4</ele>
        <time>2022-05-22 21:55:30</time>
      </trkpt>
      <trkpt lat="42.70401" lon="0.91549">
        <ele>1354.8</ele>
        <time>2022-05-22 21:55:31</time>
      </trkpt>
      <trkpt lat="42.70392" lon="0.91558">
        <ele>1354.2</ele>
        <time>2022-05-22 21:55:32</time>
      </trkpt>
      <trkpt lat="42.70384" lon="0.91567">
        <ele>1353.6</ele>
        <time>2022-05-22 21:55:33</time>
      </trkpt>
      <trkpt lat="42.70376" lon="0.91576">
        <ele>1353</ele>
        <time>2022-05-22 21:55:34</time>
      </trkpt>
      <trkpt lat="42.70368" lon="0.91584">
        <ele>1352.4</ele>
        <time>2022-05-22 21:55:35</time>
      </trkpt>
      <trkpt lat="42.7036" lon="0.91591">
        <ele>1352</ele>
        <time>2022-05-22 21:55:36</time>
      </trkpt>
      <trkpt lat="42.70353" lon="0.91597">
        <ele>1351.6</ele>
        <time>2022-05-22 21:55:37</time>
      </trkpt>
      <trkpt lat="42.70345" lon="0.91599">
        <ele>1351.4</ele>
        <time>2022-05-22 21:55:38</time>
      </trkpt>
      <trkpt lat="42.70338" lon="0.91597">
        <ele>1351.2</ele>
        <time>2022-05-22 21:55:39</time>
      </trkpt>
      <trkpt lat="42.70333" lon="0.91591">
        <ele>1350.8</ele>
        <time>2022-05-22 21:55:40</time>
      </trkpt>
      <trkpt lat="42.70331" lon="0.91583">
        <ele>1350.4</ele>
        <time>2022-05-22 21:55:41</time>
      </trkpt>
      <trkpt lat="42.70332" lon="0.91574">
        <ele>1349.8</ele>
        <time>2022-05-22 21:55:42</time>
      </trkpt>
      <trkpt lat="42.70335" lon="0.91564">
        <ele>1349.2</ele>
        <time>2022-05-22 21:55:43</time>
      </trkpt>
      <trkpt lat="42.70341" lon="0.91554">
        <ele>1348.8</ele>
        <time>2022-05-22 21:55:44</time>
      </trkpt>
      <trkpt lat="42.70348" lon="0.91546">
        <ele>1348.4</ele>
        <time>2022-05-22 21:55:45</time>
      </trkpt>
      <trkpt lat="42.70354" lon="0.91539">
        <ele>1348.2</ele>
        <time>2022-05-22 21:55:46</time>
      </trkpt>
      <trkpt lat="42.70361" lon="0.91532">
        <ele>1347.8</ele>
        <time>2022-05-22 21:55:47</time>
      </trkpt>
      <trkpt lat="42.70367" lon="0.91524">
        <ele>1347.6</ele>
        <time>2022-05-22 21:55:48</time>
      </trkpt>
      <trkpt lat="42.70373" lon="0.91516">
        <ele>1347.4</ele>
        <time>2022-05-22 21:55:49</time>
      </trkpt>
      <trkpt lat="42.70378" lon="0.91508">
        <ele>1347.2</ele>
        <time>2022-05-22 21:55:50</time>
      </trkpt>
      <trkpt lat="42.70384" lon="0.915">
        <ele>1347</ele>
        <time>2022-05-22 21:55:51</time>
      </trkpt>
      <trkpt lat="42.7039" lon="0.91492">
        <ele>1346.8</ele>
        <time>2022-05-22 21:55:52</time>
      </trkpt>
      <trkpt lat="42.70396" lon="0.91483">
        <ele>1346.4</ele>
        <time>2022-05-22 21:55:53</time>
      </trkpt>
      <trkpt lat="42.70402" lon="0.91475">
        <ele>1346</ele>
        <time>2022-05-22 21:55:54</time>
      </trkpt>
      <trkpt lat="42.70408" lon="0.91466">
        <ele>1345.6</ele>
        <time>2022-05-22 21:55:55</time>
      </trkpt>
      <trkpt lat="42.70413" lon="0.91457">
        <ele>1345</ele>
        <time>2022-05-22 21:55:56</time>
      </trkpt>
      <trkpt lat="42.70419" lon="0.91448">
        <ele>1344.4</ele>
        <time>2022-05-22 21:55:57</time>
      </trkpt>
      <trkpt lat="42.70426" lon="0.91438">
        <ele>1344</ele>
        <time>2022-05-22 21:55:58</time>
      </trkpt>
      <trkpt lat="42.70431" lon="0.91428">
        <ele>1343.4</ele>
        <time>2022-05-22 21:55:59</time>
      </trkpt>
      <trkpt lat="42.70437" lon="0.91418">
        <ele>1342.8</ele>
        <time>2022-05-22 21:56:00</time>
      </trkpt>
      <trkpt lat="42.70443" lon="0.91407">
        <ele>1342.2</ele>
        <time>2022-05-22 21:56:01</time>
      </trkpt>
      <trkpt lat="42.7045" lon="0.91395">
        <ele>1341.4</ele>
        <time>2022-05-22 21:56:02</time>
      </trkpt>
      <trkpt lat="42.70456" lon="0.91383">
        <ele>1340.6</ele>
        <time>2022-05-22 21:56:03</time>
      </trkpt>
      <trkpt lat="42.70462" lon="0.9137">
        <ele>1339.8</ele>
        <time>2022-05-22 21:56:04</time>
      </trkpt>
      <trkpt lat="42.70468" lon="0.91358">
        <ele>1339.2</ele>
        <time>2022-05-22 21:56:05</time>
      </trkpt>
      <trkpt lat="42.70475" lon="0.91345">
        <ele>1338.4</ele>
        <time>2022-05-22 21:56:06</time>
      </trkpt>
      <trkpt lat="42.70481" lon="0.91333">
        <ele>1337.4</ele>
        <time>2022-05-22 21:56:07</time>
      </trkpt>
      <trkpt lat="42.70487" lon="0.91319">
        <ele>1336.8</ele>
        <time>2022-05-22 21:56:08</time>
      </trkpt>
      <trkpt lat="42.70492" lon="0.91303">
        <ele>1335.8</ele>
        <time>2022-05-22 21:56:09</time>
      </trkpt>
      <trkpt lat="42.70496" lon="0.91289">
        <ele>1335</ele>
        <time>2022-05-22 21:56:10</time>
      </trkpt>
      <trkpt lat="42.705" lon="0.91274">
        <ele>1334.2</ele>
        <time>2022-05-22 21:56:11</time>
      </trkpt>
      <trkpt lat="42.70504" lon="0.91258">
        <ele>1333.2</ele>
        <time>2022-05-22 21:56:12</time>
      </trkpt>
      <trkpt lat="42.70508" lon="0.91242">
        <ele>1332.2</ele>
        <time>2022-05-22 21:56:13</time>
      </trkpt>
      <trkpt lat="42.70511" lon="0.91226">
        <ele>1331.2</ele>
        <time>2022-05-22 21:56:14</time>
      </trkpt>
      <trkpt lat="42.70515" lon="0.9121">
        <ele>1330.2</ele>
        <time>2022-05-22 21:56:15</time>
      </trkpt>
      <trkpt lat="42.70519" lon="0.91193">
        <ele>1329.2</ele>
        <time>2022-05-22 21:56:16</time>
      </trkpt>
      <trkpt lat="42.70522" lon="0.91174">
        <ele>1328.2</ele>
        <time>2022-05-22 21:56:17</time>
      </trkpt>
      <trkpt lat="42.70524" lon="0.91156">
        <ele>1327.2</ele>
        <time>2022-05-22 21:56:18</time>
      </trkpt>
      <trkpt lat="42.70525" lon="0.91138">
        <ele>1326.2</ele>
        <time>2022-05-22 21:56:19</time>
      </trkpt>
      <trkpt lat="42.70526" lon="0.9112">
        <ele>1325.2</ele>
        <time>2022-05-22 21:56:20</time>
      </trkpt>
      <trkpt lat="42.70527" lon="0.91101">
        <ele>1324</ele>
        <time>2022-05-22 21:56:21</time>
      </trkpt>
      <trkpt lat="42.70528" lon="0.91082">
        <ele>1322.8</ele>
        <time>2022-05-22 21:56:22</time>
      </trkpt>
      <trkpt lat="42.70529" lon="0.91064">
        <ele>1321.8</ele>
        <time>2022-05-22 21:56:23</time>
      </trkpt>
      <trkpt lat="42.7053" lon="0.91045">
        <ele>1320.6</ele>
        <time>2022-05-22 21:56:24</time>
      </trkpt>
      <trkpt lat="42.70532" lon="0.91027">
        <ele>1319.6</ele>
        <time>2022-05-22 21:56:25</time>
      </trkpt>
      <trkpt lat="42.70534" lon="0.91008">
        <ele>1318.4</ele>
        <time>2022-05-22 21:56:26</time>
      </trkpt>
      <trkpt lat="42.70537" lon="0.9099">
        <ele>1317.4</ele>
        <time>2022-05-22 21:56:27</time>
      </trkpt>
      <trkpt lat="42.7054" lon="0.90972">
        <ele>1316.4</ele>
        <time>2022-05-22 21:56:28</time>
      </trkpt>
      <trkpt lat="42.70544" lon="0.90953">
        <ele>1315.4</ele>
        <time>2022-05-22 21:56:29</time>
      </trkpt>
      <trkpt lat="42.70548" lon="0.90935">
        <ele>1314.4</ele>
        <time>2022-05-22 21:56:30</time>
      </trkpt>
      <trkpt lat="42.70552" lon="0.90917">
        <ele>1313.2</ele>
        <time>2022-05-22 21:56:31</time>
      </trkpt>
      <trkpt lat="42.70555" lon="0.90897">
        <ele>1312.2</ele>
        <time>2022-05-22 21:56:32</time>
      </trkpt>
      <trkpt lat="42.70558" lon="0.90878">
        <ele>1311.2</ele>
        <time>2022-05-22 21:56:33</time>
      </trkpt>
      <trkpt lat="42.70561" lon="0.90859">
        <ele>1310.4</ele>
        <time>2022-05-22 21:56:34</time>
      </trkpt>
      <trkpt lat="42.70563" lon="0.9084">
        <ele>1309.6</ele>
        <time>2022-05-22 21:56:35</time>
      </trkpt>
      <trkpt lat="42.70566" lon="0.90821">
        <ele>1308.6</ele>
        <time>2022-05-22 21:56:36</time>
      </trkpt>
      <trkpt lat="42.70569" lon="0.90802">
        <ele>1307.4</ele>
        <time>2022-05-22 21:56:37</time>
      </trkpt>
      <trkpt lat="42.70573" lon="0.90783">
        <ele>1306.4</ele>
        <time>2022-05-22 21:56:38</time>
      </trkpt>
      <trkpt lat="42.70576" lon="0.90764">
        <ele>1305.4</ele>
        <time>2022-05-22 21:56:39</time>
      </trkpt>
      <trkpt lat="42.7058" lon="0.90745">
        <ele>1304.6</ele>
        <time>2022-05-22 21:56:40</time>
      </trkpt>
      <trkpt lat="42.70583" lon="0.90728">
        <ele>1303.6</ele>
        <time>2022-05-22 21:56:41</time>
      </trkpt>
      <trkpt lat="42.70587" lon="0.9071">
        <ele>1302.6</ele>
        <time>2022-05-22 21:56:42</time>
      </trkpt>
      <trkpt lat="42.70591" lon="0.9069">
        <ele>1301.6</ele>
        <time>2022-05-22 21:56:43</time>
      </trkpt>
      <trkpt lat="42.70594" lon="0.90671">
        <ele>1300.8</ele>
        <time>2022-05-22 21:56:44</time>
      </trkpt>
      <trkpt lat="42.70598" lon="0.90653">
        <ele>1299.8</ele>
        <time>2022-05-22 21:56:45</time>
      </trkpt>
      <trkpt lat="42.70602" lon="0.90634">
        <ele>1298.8</ele>
        <time>2022-05-22 21:56:46</time>
      </trkpt>
      <trkpt lat="42.70607" lon="0.90617">
        <ele>1298</ele>
        <time>2022-05-22 21:56:47</time>
      </trkpt>
      <trkpt lat="42.70612" lon="0.906">
        <ele>1297.2</ele>
        <time>2022-05-22 21:56:48</time>
      </trkpt>
      <trkpt lat="42.70616" lon="0.90585">
        <ele>1296.4</ele>
        <time>2022-05-22 21:56:49</time>
      </trkpt>
      <trkpt lat="42.70621" lon="0.90573">
        <ele>1295.6</ele>
        <time>2022-05-22 21:56:50</time>
      </trkpt>
      <trkpt lat="42.70628" lon="0.90561">
        <ele>1294.8</ele>
        <time>2022-05-22 21:56:51</time>
      </trkpt>
      <trkpt lat="42.70635" lon="0.9055">
        <ele>1294</ele>
        <time>2022-05-22 21:56:52</time>
      </trkpt>
      <trkpt lat="42.70645" lon="0.9054">
        <ele>1293</ele>
        <time>2022-05-22 21:56:53</time>
      </trkpt>
      <trkpt lat="42.70654" lon="0.90533">
        <ele>1292</ele>
        <time>2022-05-22 21:56:54</time>
      </trkpt>
      <trkpt lat="42.70665" lon="0.90526">
        <ele>1291</ele>
        <time>2022-05-22 21:56:55</time>
      </trkpt>
      <trkpt lat="42.70676" lon="0.9052">
        <ele>1290</ele>
        <time>2022-05-22 21:56:56</time>
      </trkpt>
      <trkpt lat="42.70688" lon="0.90513">
        <ele>1289</ele>
        <time>2022-05-22 21:56:57</time>
      </trkpt>
      <trkpt lat="42.70699" lon="0.90507">
        <ele>1288</ele>
        <time>2022-05-22 21:56:58</time>
      </trkpt>
      <trkpt lat="42.70711" lon="0.90498">
        <ele>1287</ele>
        <time>2022-05-22 21:56:59</time>
      </trkpt>
      <trkpt lat="42.70722" lon="0.90486">
        <ele>1286</ele>
        <time>2022-05-22 21:57:00</time>
      </trkpt>
      <trkpt lat="42.7073" lon="0.90472">
        <ele>1285</ele>
        <time>2022-05-22 21:57:01</time>
      </trkpt>
      <trkpt lat="42.70734" lon="0.90455">
        <ele>1284</ele>
        <time>2022-05-22 21:57:02</time>
      </trkpt>
      <trkpt lat="42.70735" lon="0.90436">
        <ele>1283</ele>
        <time>2022-05-22 21:57:03</time>
      </trkpt>
      <trkpt lat="42.70733" lon="0.90419">
        <ele>1282</ele>
        <time>2022-05-22 21:57:04</time>
      </trkpt>
      <trkpt lat="42.70729" lon="0.90403">
        <ele>1281.2</ele>
        <time>2022-05-22 21:57:05</time>
      </trkpt>
      <trkpt lat="42.70724" lon="0.90387">
        <ele>1280.4</ele>
        <time>2022-05-22 21:57:06</time>
      </trkpt>
      <trkpt lat="42.70719" lon="0.90371">
        <ele>1279.8</ele>
        <time>2022-05-22 21:57:07</time>
      </trkpt>
      <trkpt lat="42.70716" lon="0.90356">
        <ele>1279</ele>
        <time>2022-05-22 21:57:08</time>
      </trkpt>
      <trkpt lat="42.70713" lon="0.90341">
        <ele>1278.4</ele>
        <time>2022-05-22 21:57:09</time>
      </trkpt>
      <trkpt lat="42.70709" lon="0.90327">
        <ele>1277.8</ele>
        <time>2022-05-22 21:57:10</time>
      </trkpt>
      <trkpt lat="42.70706" lon="0.90313">
        <ele>1277.2</ele>
        <time>2022-05-22 21:57:11</time>
      </trkpt>
      <trkpt lat="42.70702" lon="0.903">
        <ele>1276.6</ele>
        <time>2022-05-22 21:57:12</time>
      </trkpt>
      <trkpt lat="42.70698" lon="0.90288">
        <ele>1276.2</ele>
        <time>2022-05-22 21:57:13</time>
      </trkpt>
      <trkpt lat="42.70696" lon="0.90278">
        <ele>1275.8</ele>
        <time>2022-05-22 21:57:14</time>
      </trkpt>
      <trkpt lat="42.70693" lon="0.90269">
        <ele>1275.6</ele>
        <time>2022-05-22 21:57:15</time>
      </trkpt>
      <trkpt lat="42.70691" lon="0.90259">
        <ele>1275.2</ele>
        <time>2022-05-22 21:57:16</time>
      </trkpt>
      <trkpt lat="42.70686" lon="0.90251">
        <ele>1274.6</ele>
        <time>2022-05-22 21:57:17</time>
      </trkpt>
      <trkpt lat="42.7068" lon="0.90246">
        <ele>1274.2</ele>
        <time>2022-05-22 21:57:18</time>
      </trkpt>
      <trkpt lat="42.70672" lon="0.90241">
        <ele>1273.4</ele>
        <time>2022-05-22 21:57:19</time>
      </trkpt>
      <trkpt lat="42.70666" lon="0.90234">
        <ele>1272.8</ele>
        <time>2022-05-22 21:57:20</time>
      </trkpt>
      <trkpt lat="42.7066" lon="0.90226">
        <ele>1272.2</ele>
        <time>2022-05-22 21:57:21</time>
      </trkpt>
      <trkpt lat="42.70656" lon="0.90216">
        <ele>1271.6</ele>
        <time>2022-05-22 21:57:22</time>
      </trkpt>
      <trkpt lat="42.70654" lon="0.90203">
        <ele>1271</ele>
        <time>2022-05-22 21:57:23</time>
      </trkpt>
      <trkpt lat="42.70653" lon="0.90189">
        <ele>1270.6</ele>
        <time>2022-05-22 21:57:24</time>
      </trkpt>
      <trkpt lat="42.70652" lon="0.90176">
        <ele>1270.2</ele>
        <time>2022-05-22 21:57:25</time>
      </trkpt>
      <trkpt lat="42.7065" lon="0.90163">
        <ele>1269.6</ele>
        <time>2022-05-22 21:57:26</time>
      </trkpt>
      <trkpt lat="42.70647" lon="0.90152">
        <ele>1269.2</ele>
        <time>2022-05-22 21:57:27</time>
      </trkpt>
      <trkpt lat="42.70645" lon="0.9014">
        <ele>1268.8</ele>
        <time>2022-05-22 21:57:28</time>
      </trkpt>
      <trkpt lat="42.70643" lon="0.90128">
        <ele>1268.4</ele>
        <time>2022-05-22 21:57:29</time>
      </trkpt>
      <trkpt lat="42.70641" lon="0.90116">
        <ele>1268</ele>
        <time>2022-05-22 21:57:30</time>
      </trkpt>
      <trkpt lat="42.70639" lon="0.90103">
        <ele>1267.6</ele>
        <time>2022-05-22 21:57:31</time>
      </trkpt>
      <trkpt lat="42.70638" lon="0.9009">
        <ele>1267.2</ele>
        <time>2022-05-22 21:57:32</time>
      </trkpt>
      <trkpt lat="42.70638" lon="0.90075">
        <ele>1266.8</ele>
        <time>2022-05-22 21:57:33</time>
      </trkpt>
      <trkpt lat="42.70637" lon="0.90059">
        <ele>1266.2</ele>
        <time>2022-05-22 21:57:34</time>
      </trkpt>
      <trkpt lat="42.70636" lon="0.90045">
        <ele>1265.6</ele>
        <time>2022-05-22 21:57:35</time>
      </trkpt>
      <trkpt lat="42.70635" lon="0.9003">
        <ele>1264.8</ele>
        <time>2022-05-22 21:57:36</time>
      </trkpt>
      <trkpt lat="42.70634" lon="0.90016">
        <ele>1264.2</ele>
        <time>2022-05-22 21:57:37</time>
      </trkpt>
      <trkpt lat="42.70633" lon="0.90001">
        <ele>1263.4</ele>
        <time>2022-05-22 21:57:38</time>
      </trkpt>
      <trkpt lat="42.70633" lon="0.89986">
        <ele>1262.4</ele>
        <time>2022-05-22 21:57:39</time>
      </trkpt>
      <trkpt lat="42.70633" lon="0.89969">
        <ele>1261.4</ele>
        <time>2022-05-22 21:57:40</time>
      </trkpt>
      <trkpt lat="42.70634" lon="0.89953">
        <ele>1260.2</ele>
        <time>2022-05-22 21:57:41</time>
      </trkpt>
      <trkpt lat="42.70636" lon="0.89938">
        <ele>1259</ele>
        <time>2022-05-22 21:57:42</time>
      </trkpt>
      <trkpt lat="42.70639" lon="0.89923">
        <ele>1258</ele>
        <time>2022-05-22 21:57:43</time>
      </trkpt>
      <trkpt lat="42.70644" lon="0.89907">
        <ele>1256.8</ele>
        <time>2022-05-22 21:57:44</time>
      </trkpt>
      <trkpt lat="42.70649" lon="0.89892">
        <ele>1255.8</ele>
        <time>2022-05-22 21:57:45</time>
      </trkpt>
      <trkpt lat="42.70654" lon="0.89878">
        <ele>1254.8</ele>
        <time>2022-05-22 21:57:46</time>
      </trkpt>
      <trkpt lat="42.7066" lon="0.89863">
        <ele>1253.8</ele>
        <time>2022-05-22 21:57:47</time>
      </trkpt>
      <trkpt lat="42.70665" lon="0.89849">
        <ele>1253</ele>
        <time>2022-05-22 21:57:48</time>
      </trkpt>
      <trkpt lat="42.7067" lon="0.89833">
        <ele>1252</ele>
        <time>2022-05-22 21:57:49</time>
      </trkpt>
      <trkpt lat="42.70673" lon="0.89817">
        <ele>1250.8</ele>
        <time>2022-05-22 21:57:50</time>
      </trkpt>
      <trkpt lat="42.70675" lon="0.89801">
        <ele>1249.8</ele>
        <time>2022-05-22 21:57:51</time>
      </trkpt>
      <trkpt lat="42.70675" lon="0.89784">
        <ele>1249</ele>
        <time>2022-05-22 21:57:52</time>
      </trkpt>
      <trkpt lat="42.70674" lon="0.89766">
        <ele>1248.6</ele>
        <time>2022-05-22 21:57:53</time>
      </trkpt>
      <trkpt lat="42.70674" lon="0.89749">
        <ele>1248</ele>
        <time>2022-05-22 21:57:54</time>
      </trkpt>
      <trkpt lat="42.70673" lon="0.89732">
        <ele>1247.6</ele>
        <time>2022-05-22 21:57:55</time>
      </trkpt>
      <trkpt lat="42.70673" lon="0.89717">
        <ele>1247.4</ele>
        <time>2022-05-22 21:57:56</time>
      </trkpt>
      <trkpt lat="42.70671" lon="0.89702">
        <ele>1247</ele>
        <time>2022-05-22 21:57:57</time>
      </trkpt>
      <trkpt lat="42.7067" lon="0.89687">
        <ele>1247</ele>
        <time>2022-05-22 21:57:58</time>
      </trkpt>
      <trkpt lat="42.70669" lon="0.89672">
        <ele>1246.8</ele>
        <time>2022-05-22 21:57:59</time>
      </trkpt>
      <trkpt lat="42.70668" lon="0.89658">
        <ele>1246.6</ele>
        <time>2022-05-22 21:58:00</time>
      </trkpt>
      <trkpt lat="42.70668" lon="0.89643">
        <ele>1246.4</ele>
        <time>2022-05-22 21:58:01</time>
      </trkpt>
      <trkpt lat="42.70667" lon="0.89629">
        <ele>1246</ele>
        <time>2022-05-22 21:58:02</time>
      </trkpt>
      <trkpt lat="42.70668" lon="0.89614">
        <ele>1245.8</ele>
        <time>2022-05-22 21:58:03</time>
      </trkpt>
      <trkpt lat="42.70669" lon="0.89599">
        <ele>1245.4</ele>
        <time>2022-05-22 21:58:04</time>
      </trkpt>
      <trkpt lat="42.7067" lon="0.89583">
        <ele>1245</ele>
        <time>2022-05-22 21:58:05</time>
      </trkpt>
      <trkpt lat="42.7067" lon="0.89569">
        <ele>1244.6</ele>
        <time>2022-05-22 21:58:06</time>
      </trkpt>
      <trkpt lat="42.70671" lon="0.89555">
        <ele>1244.2</ele>
        <time>2022-05-22 21:58:07</time>
      </trkpt>
      <trkpt lat="42.70672" lon="0.89541">
        <ele>1243.8</ele>
        <time>2022-05-22 21:58:08</time>
      </trkpt>
      <trkpt lat="42.70673" lon="0.89527">
        <ele>1243.6</ele>
        <time>2022-05-22 21:58:09</time>
      </trkpt>
      <trkpt lat="42.70673" lon="0.89517">
        <ele>1243.2</ele>
        <time>2022-05-22 21:58:10</time>
      </trkpt>
      <trkpt lat="42.70674" lon="0.89502">
        <ele>1243.2</ele>
        <time>2022-05-22 21:58:11</time>
      </trkpt>
      <trkpt lat="42.70675" lon="0.89486">
        <ele>1243</ele>
        <time>2022-05-22 21:58:12</time>
      </trkpt>
      <trkpt lat="42.70675" lon="0.89473">
        <ele>1242.8</ele>
        <time>2022-05-22 21:58:13</time>
      </trkpt>
      <trkpt lat="42.70677" lon="0.8946">
        <ele>1242.6</ele>
        <time>2022-05-22 21:58:14</time>
      </trkpt>
      <trkpt lat="42.70678" lon="0.89447">
        <ele>1242.6</ele>
        <time>2022-05-22 21:58:15</time>
      </trkpt>
      <trkpt lat="42.70679" lon="0.89435">
        <ele>1242.6</ele>
        <time>2022-05-22 21:58:16</time>
      </trkpt>
      <trkpt lat="42.70682" lon="0.89424">
        <ele>1242.6</ele>
        <time>2022-05-22 21:58:17</time>
      </trkpt>
      <trkpt lat="42.70684" lon="0.89413">
        <ele>1242.8</ele>
        <time>2022-05-22 21:58:18</time>
      </trkpt>
      <trkpt lat="42.70685" lon="0.89402">
        <ele>1243.2</ele>
        <time>2022-05-22 21:58:19</time>
      </trkpt>
      <trkpt lat="42.70684" lon="0.89393">
        <ele>1243.4</ele>
        <time>2022-05-22 21:58:20</time>
      </trkpt>
      <trkpt lat="42.70681" lon="0.89384">
        <ele>1243.6</ele>
        <time>2022-05-22 21:58:21</time>
      </trkpt>
      <trkpt lat="42.70677" lon="0.89376">
        <ele>1243.6</ele>
        <time>2022-05-22 21:58:22</time>
      </trkpt>
      <trkpt lat="42.70672" lon="0.89367">
        <ele>1243.6</ele>
        <time>2022-05-22 21:58:23</time>
      </trkpt>
      <trkpt lat="42.70668" lon="0.89358">
        <ele>1243.4</ele>
        <time>2022-05-22 21:58:24</time>
      </trkpt>
      <trkpt lat="42.70665" lon="0.89349">
        <ele>1243.2</ele>
        <time>2022-05-22 21:58:25</time>
      </trkpt>
      <trkpt lat="42.70662" lon="0.89339">
        <ele>1243</ele>
        <time>2022-05-22 21:58:26</time>
      </trkpt>
      <trkpt lat="42.70658" lon="0.8933">
        <ele>1242.6</ele>
        <time>2022-05-22 21:58:27</time>
      </trkpt>
      <trkpt lat="42.70653" lon="0.8932">
        <ele>1242.4</ele>
        <time>2022-05-22 21:58:28</time>
      </trkpt>
      <trkpt lat="42.70648" lon="0.8931">
        <ele>1242</ele>
        <time>2022-05-22 21:58:29</time>
      </trkpt>
      <trkpt lat="42.70643" lon="0.893">
        <ele>1241.6</ele>
        <time>2022-05-22 21:58:30</time>
      </trkpt>
      <trkpt lat="42.70638" lon="0.8929">
        <ele>1241.2</ele>
        <time>2022-05-22 21:58:31</time>
      </trkpt>
      <trkpt lat="42.70632" lon="0.8928">
        <ele>1240.8</ele>
        <time>2022-05-22 21:58:32</time>
      </trkpt>
      <trkpt lat="42.70626" lon="0.8927">
        <ele>1240.2</ele>
        <time>2022-05-22 21:58:33</time>
      </trkpt>
      <trkpt lat="42.70622" lon="0.89263">
        <ele>1239.8</ele>
        <time>2022-05-22 21:58:34</time>
      </trkpt>
      <trkpt lat="42.70616" lon="0.89253">
        <ele>1239.6</ele>
        <time>2022-05-22 21:58:35</time>
      </trkpt>
      <trkpt lat="42.70608" lon="0.89238">
        <ele>1239.4</ele>
        <time>2022-05-22 21:58:36</time>
      </trkpt>
      <trkpt lat="42.70602" lon="0.89229">
        <ele>1239</ele>
        <time>2022-05-22 21:58:37</time>
      </trkpt>
      <trkpt lat="42.70597" lon="0.89219">
        <ele>1238.4</ele>
        <time>2022-05-22 21:58:38</time>
      </trkpt>
      <trkpt lat="42.7059" lon="0.89207">
        <ele>1237.6</ele>
        <time>2022-05-22 21:58:39</time>
      </trkpt>
      <trkpt lat="42.70581" lon="0.89191">
        <ele>1237</ele>
        <time>2022-05-22 21:58:40</time>
      </trkpt>
      <trkpt lat="42.70574" lon="0.89179">
        <ele>1236.4</ele>
        <time>2022-05-22 21:58:41</time>
      </trkpt>
      <trkpt lat="42.70567" lon="0.89168">
        <ele>1235.8</ele>
        <time>2022-05-22 21:58:42</time>
      </trkpt>
      <trkpt lat="42.70561" lon="0.89156">
        <ele>1235.4</ele>
        <time>2022-05-22 21:58:43</time>
      </trkpt>
      <trkpt lat="42.70554" lon="0.89145">
        <ele>1234.8</ele>
        <time>2022-05-22 21:58:44</time>
      </trkpt>
      <trkpt lat="42.70549" lon="0.89133">
        <ele>1234.4</ele>
        <time>2022-05-22 21:58:45</time>
      </trkpt>
      <trkpt lat="42.70543" lon="0.89122">
        <ele>1234.2</ele>
        <time>2022-05-22 21:58:46</time>
      </trkpt>
      <trkpt lat="42.70537" lon="0.89112">
        <ele>1234</ele>
        <time>2022-05-22 21:58:47</time>
      </trkpt>
      <trkpt lat="42.70532" lon="0.89101">
        <ele>1233.8</ele>
        <time>2022-05-22 21:58:48</time>
      </trkpt>
      <trkpt lat="42.70527" lon="0.89091">
        <ele>1233.8</ele>
        <time>2022-05-22 21:58:49</time>
      </trkpt>
      <trkpt lat="42.70521" lon="0.8908">
        <ele>1233.6</ele>
        <time>2022-05-22 21:58:50</time>
      </trkpt>
      <trkpt lat="42.70516" lon="0.8907">
        <ele>1233.6</ele>
        <time>2022-05-22 21:58:51</time>
      </trkpt>
      <trkpt lat="42.7051" lon="0.89061">
        <ele>1233.6</ele>
        <time>2022-05-22 21:58:52</time>
      </trkpt>
      <trkpt lat="42.70504" lon="0.89053">
        <ele>1233.6</ele>
        <time>2022-05-22 21:58:53</time>
      </trkpt>
      <trkpt lat="42.70499" lon="0.89044">
        <ele>1233.6</ele>
        <time>2022-05-22 21:58:54</time>
      </trkpt>
      <trkpt lat="42.70494" lon="0.89034">
        <ele>1233.6</ele>
        <time>2022-05-22 21:58:55</time>
      </trkpt>
      <trkpt lat="42.7049" lon="0.89026">
        <ele>1233.6</ele>
        <time>2022-05-22 21:58:56</time>
      </trkpt>
      <trkpt lat="42.70486" lon="0.89017">
        <ele>1233.4</ele>
        <time>2022-05-22 21:58:57</time>
      </trkpt>
      <trkpt lat="42.70482" lon="0.89008">
        <ele>1233.4</ele>
        <time>2022-05-22 21:58:58</time>
      </trkpt>
      <trkpt lat="42.70477" lon="0.89">
        <ele>1233.4</ele>
        <time>2022-05-22 21:58:59</time>
      </trkpt>
      <trkpt lat="42.70473" lon="0.88991">
        <ele>1233.4</ele>
        <time>2022-05-22 21:59:00</time>
      </trkpt>
      <trkpt lat="42.70469" lon="0.88982">
        <ele>1233.6</ele>
        <time>2022-05-22 21:59:01</time>
      </trkpt>
      <trkpt lat="42.70465" lon="0.88973">
        <ele>1233.6</ele>
        <time>2022-05-22 21:59:02</time>
      </trkpt>
      <trkpt lat="42.70462" lon="0.88965">
        <ele>1233.6</ele>
        <time>2022-05-22 21:59:03</time>
      </trkpt>
      <trkpt lat="42.7046" lon="0.88957">
        <ele>1233.6</ele>
        <time>2022-05-22 21:59:04</time>
      </trkpt>
      <trkpt lat="42.70458" lon="0.88948">
        <ele>1233.6</ele>
        <time>2022-05-22 21:59:05</time>
      </trkpt>
      <trkpt lat="42.70456" lon="0.8894">
        <ele>1233.8</ele>
        <time>2022-05-22 21:59:06</time>
      </trkpt>
      <trkpt lat="42.70454" lon="0.88931">
        <ele>1233.8</ele>
        <time>2022-05-22 21:59:07</time>
      </trkpt>
      <trkpt lat="42.70452" lon="0.88923">
        <ele>1233.8</ele>
        <time>2022-05-22 21:59:08</time>
      </trkpt>
      <trkpt lat="42.7045" lon="0.88915">
        <ele>1233.8</ele>
        <time>2022-05-22 21:59:09</time>
      </trkpt>
      <trkpt lat="42.70449" lon="0.88907">
        <ele>1233.8</ele>
        <time>2022-05-22 21:59:10</time>
      </trkpt>
      <trkpt lat="42.70447" lon="0.88899">
        <ele>1233.8</ele>
        <time>2022-05-22 21:59:11</time>
      </trkpt>
      <trkpt lat="42.70444" lon="0.8889">
        <ele>1233.8</ele>
        <time>2022-05-22 21:59:12</time>
      </trkpt>
      <trkpt lat="42.70442" lon="0.88882">
        <ele>1233.8</ele>
        <time>2022-05-22 21:59:13</time>
      </trkpt>
      <trkpt lat="42.70439" lon="0.88874">
        <ele>1233.8</ele>
        <time>2022-05-22 21:59:14</time>
      </trkpt>
      <trkpt lat="42.70435" lon="0.88866">
        <ele>1233.8</ele>
        <time>2022-05-22 21:59:15</time>
      </trkpt>
      <trkpt lat="42.70431" lon="0.88858">
        <ele>1233.8</ele>
        <time>2022-05-22 21:59:16</time>
      </trkpt>
      <trkpt lat="42.70427" lon="0.8885">
        <ele>1233.6</ele>
        <time>2022-05-22 21:59:17</time>
      </trkpt>
      <trkpt lat="42.70423" lon="0.88842">
        <ele>1233.6</ele>
        <time>2022-05-22 21:59:18</time>
      </trkpt>
      <trkpt lat="42.70419" lon="0.88835">
        <ele>1233.6</ele>
        <time>2022-05-22 21:59:19</time>
      </trkpt>
      <trkpt lat="42.70415" lon="0.88826">
        <ele>1233.4</ele>
        <time>2022-05-22 21:59:20</time>
      </trkpt>
      <trkpt lat="42.70411" lon="0.88818">
        <ele>1233</ele>
        <time>2022-05-22 21:59:21</time>
      </trkpt>
      <trkpt lat="42.70407" lon="0.88809">
        <ele>1232.8</ele>
        <time>2022-05-22 21:59:22</time>
      </trkpt>
      <trkpt lat="42.70402" lon="0.888">
        <ele>1232.4</ele>
        <time>2022-05-22 21:59:23</time>
      </trkpt>
      <trkpt lat="42.70398" lon="0.88789">
        <ele>1231.8</ele>
        <time>2022-05-22 21:59:24</time>
      </trkpt>
      <trkpt lat="42.70394" lon="0.88779">
        <ele>1231.2</ele>
        <time>2022-05-22 21:59:25</time>
      </trkpt>
      <trkpt lat="42.70391" lon="0.88767">
        <ele>1230.6</ele>
        <time>2022-05-22 21:59:26</time>
      </trkpt>
      <trkpt lat="42.70388" lon="0.88755">
        <ele>1230</ele>
        <time>2022-05-22 21:59:27</time>
      </trkpt>
      <trkpt lat="42.70385" lon="0.88742">
        <ele>1229.2</ele>
        <time>2022-05-22 21:59:28</time>
      </trkpt>
      <trkpt lat="42.70383" lon="0.88728">
        <ele>1228.4</ele>
        <time>2022-05-22 21:59:29</time>
      </trkpt>
      <trkpt lat="42.70381" lon="0.88715">
        <ele>1227.6</ele>
        <time>2022-05-22 21:59:30</time>
      </trkpt>
      <trkpt lat="42.70381" lon="0.887">
        <ele>1226.6</ele>
        <time>2022-05-22 21:59:31</time>
      </trkpt>
      <trkpt lat="42.7038" lon="0.88686">
        <ele>1225.8</ele>
        <time>2022-05-22 21:59:32</time>
      </trkpt>
      <trkpt lat="42.7038" lon="0.88671">
        <ele>1225</ele>
        <time>2022-05-22 21:59:33</time>
      </trkpt>
      <trkpt lat="42.70379" lon="0.88656">
        <ele>1224</ele>
        <time>2022-05-22 21:59:34</time>
      </trkpt>
      <trkpt lat="42.70379" lon="0.88641">
        <ele>1223.2</ele>
        <time>2022-05-22 21:59:35</time>
      </trkpt>
      <trkpt lat="42.70379" lon="0.88626">
        <ele>1222.4</ele>
        <time>2022-05-22 21:59:36</time>
      </trkpt>
      <trkpt lat="42.70379" lon="0.88611">
        <ele>1221.8</ele>
        <time>2022-05-22 21:59:37</time>
      </trkpt>
      <trkpt lat="42.70378" lon="0.88596">
        <ele>1221</ele>
        <time>2022-05-22 21:59:38</time>
      </trkpt>
      <trkpt lat="42.70378" lon="0.88582">
        <ele>1220.4</ele>
        <time>2022-05-22 21:59:39</time>
      </trkpt>
      <trkpt lat="42.70378" lon="0.88568">
        <ele>1219.8</ele>
        <time>2022-05-22 21:59:40</time>
      </trkpt>
      <trkpt lat="42.70378" lon="0.88553">
        <ele>1219.2</ele>
        <time>2022-05-22 21:59:41</time>
      </trkpt>
      <trkpt lat="42.70377" lon="0.88538">
        <ele>1218.8</ele>
        <time>2022-05-22 21:59:42</time>
      </trkpt>
      <trkpt lat="42.70377" lon="0.88524">
        <ele>1218.2</ele>
        <time>2022-05-22 21:59:43</time>
      </trkpt>
      <trkpt lat="42.70376" lon="0.8851">
        <ele>1217.8</ele>
        <time>2022-05-22 21:59:44</time>
      </trkpt>
      <trkpt lat="42.70375" lon="0.88497">
        <ele>1217.4</ele>
        <time>2022-05-22 21:59:45</time>
      </trkpt>
      <trkpt lat="42.70375" lon="0.88483">
        <ele>1216.8</ele>
        <time>2022-05-22 21:59:46</time>
      </trkpt>
      <trkpt lat="42.70375" lon="0.88469">
        <ele>1216.4</ele>
        <time>2022-05-22 21:59:47</time>
      </trkpt>
      <trkpt lat="42.70375" lon="0.88456">
        <ele>1216</ele>
        <time>2022-05-22 21:59:48</time>
      </trkpt>
      <trkpt lat="42.70375" lon="0.88443">
        <ele>1215.6</ele>
        <time>2022-05-22 21:59:49</time>
      </trkpt>
      <trkpt lat="42.70375" lon="0.8843">
        <ele>1215.4</ele>
        <time>2022-05-22 21:59:50</time>
      </trkpt>
      <trkpt lat="42.70374" lon="0.88417">
        <ele>1215</ele>
        <time>2022-05-22 21:59:51</time>
      </trkpt>
      <trkpt lat="42.70374" lon="0.88404">
        <ele>1214.8</ele>
        <time>2022-05-22 21:59:52</time>
      </trkpt>
      <trkpt lat="42.70373" lon="0.88392">
        <ele>1214.6</ele>
        <time>2022-05-22 21:59:53</time>
      </trkpt>
      <trkpt lat="42.70372" lon="0.8838">
        <ele>1214.2</ele>
        <time>2022-05-22 21:59:54</time>
      </trkpt>
      <trkpt lat="42.70371" lon="0.88367">
        <ele>1214</ele>
        <time>2022-05-22 21:59:55</time>
      </trkpt>
      <trkpt lat="42.7037" lon="0.88355">
        <ele>1213.6</ele>
        <time>2022-05-22 21:59:56</time>
      </trkpt>
      <trkpt lat="42.7037" lon="0.88342">
        <ele>1213.4</ele>
        <time>2022-05-22 21:59:57</time>
      </trkpt>
      <trkpt lat="42.70368" lon="0.8833">
        <ele>1213</ele>
        <time>2022-05-22 21:59:58</time>
      </trkpt>
      <trkpt lat="42.70367" lon="0.88319">
        <ele>1212.8</ele>
        <time>2022-05-22 21:59:59</time>
      </trkpt>
      <trkpt lat="42.70366" lon="0.88307">
        <ele>1212.6</ele>
        <time>2022-05-22 22:00:00</time>
      </trkpt>
      <trkpt lat="42.70365" lon="0.88295">
        <ele>1212.2</ele>
        <time>2022-05-22 22:00:01</time>
      </trkpt>
      <trkpt lat="42.70364" lon="0.88283">
        <ele>1212</ele>
        <time>2022-05-22 22:00:02</time>
      </trkpt>
      <trkpt lat="42.70363" lon="0.88271">
        <ele>1211.8</ele>
        <time>2022-05-22 22:00:03</time>
      </trkpt>
      <trkpt lat="42.70361" lon="0.88259">
        <ele>1211.4</ele>
        <time>2022-05-22 22:00:04</time>
      </trkpt>
      <trkpt lat="42.7036" lon="0.88247">
        <ele>1211</ele>
        <time>2022-05-22 22:00:05</time>
      </trkpt>
      <trkpt lat="42.70358" lon="0.88234">
        <ele>1210.6</ele>
        <time>2022-05-22 22:00:06</time>
      </trkpt>
      <trkpt lat="42.70356" lon="0.88222">
        <ele>1210</ele>
        <time>2022-05-22 22:00:07</time>
      </trkpt>
      <trkpt lat="42.70354" lon="0.88209">
        <ele>1209.6</ele>
        <time>2022-05-22 22:00:08</time>
      </trkpt>
      <trkpt lat="42.70352" lon="0.88196">
        <ele>1209.4</ele>
        <time>2022-05-22 22:00:09</time>
      </trkpt>
      <trkpt lat="42.7035" lon="0.88183">
        <ele>1209</ele>
        <time>2022-05-22 22:00:10</time>
      </trkpt>
      <trkpt lat="42.70347" lon="0.88171">
        <ele>1208.8</ele>
        <time>2022-05-22 22:00:11</time>
      </trkpt>
      <trkpt lat="42.70345" lon="0.88159">
        <ele>1208.4</ele>
        <time>2022-05-22 22:00:12</time>
      </trkpt>
      <trkpt lat="42.70343" lon="0.88147">
        <ele>1208</ele>
        <time>2022-05-22 22:00:13</time>
      </trkpt>
      <trkpt lat="42.7034" lon="0.88135">
        <ele>1207.8</ele>
        <time>2022-05-22 22:00:14</time>
      </trkpt>
      <trkpt lat="42.70337" lon="0.88124">
        <ele>1207.4</ele>
        <time>2022-05-22 22:00:15</time>
      </trkpt>
      <trkpt lat="42.70334" lon="0.88112">
        <ele>1207</ele>
        <time>2022-05-22 22:00:16</time>
      </trkpt>
      <trkpt lat="42.70332" lon="0.88101">
        <ele>1206.6</ele>
        <time>2022-05-22 22:00:17</time>
      </trkpt>
      <trkpt lat="42.70329" lon="0.88089">
        <ele>1206.2</ele>
        <time>2022-05-22 22:00:18</time>
      </trkpt>
      <trkpt lat="42.70326" lon="0.88076">
        <ele>1205.8</ele>
        <time>2022-05-22 22:00:19</time>
      </trkpt>
      <trkpt lat="42.70322" lon="0.88063">
        <ele>1205.4</ele>
        <time>2022-05-22 22:00:20</time>
      </trkpt>
      <trkpt lat="42.7032" lon="0.88051">
        <ele>1205</ele>
        <time>2022-05-22 22:00:21</time>
      </trkpt>
      <trkpt lat="42.70317" lon="0.88039">
        <ele>1204.4</ele>
        <time>2022-05-22 22:00:22</time>
      </trkpt>
      <trkpt lat="42.70314" lon="0.88026">
        <ele>1204</ele>
        <time>2022-05-22 22:00:23</time>
      </trkpt>
      <trkpt lat="42.70311" lon="0.88014">
        <ele>1203.4</ele>
        <time>2022-05-22 22:00:24</time>
      </trkpt>
      <trkpt lat="42.70309" lon="0.88">
        <ele>1202.8</ele>
        <time>2022-05-22 22:00:25</time>
      </trkpt>
      <trkpt lat="42.70307" lon="0.87987">
        <ele>1202.2</ele>
        <time>2022-05-22 22:00:26</time>
      </trkpt>
      <trkpt lat="42.70304" lon="0.87974">
        <ele>1201.6</ele>
        <time>2022-05-22 22:00:27</time>
      </trkpt>
      <trkpt lat="42.70302" lon="0.87961">
        <ele>1201.2</ele>
        <time>2022-05-22 22:00:28</time>
      </trkpt>
      <trkpt lat="42.703" lon="0.87948">
        <ele>1200.6</ele>
        <time>2022-05-22 22:00:29</time>
      </trkpt>
      <trkpt lat="42.70298" lon="0.87935">
        <ele>1200.2</ele>
        <time>2022-05-22 22:00:30</time>
      </trkpt>
      <trkpt lat="42.70295" lon="0.87921">
        <ele>1199.6</ele>
        <time>2022-05-22 22:00:31</time>
      </trkpt>
      <trkpt lat="42.70293" lon="0.87908">
        <ele>1199</ele>
        <time>2022-05-22 22:00:32</time>
      </trkpt>
      <trkpt lat="42.70292" lon="0.87893">
        <ele>1198.6</ele>
        <time>2022-05-22 22:00:33</time>
      </trkpt>
      <trkpt lat="42.70291" lon="0.87878">
        <ele>1198</ele>
        <time>2022-05-22 22:00:34</time>
      </trkpt>
      <trkpt lat="42.7029" lon="0.87864">
        <ele>1197.4</ele>
        <time>2022-05-22 22:00:35</time>
      </trkpt>
      <trkpt lat="42.70288" lon="0.8785">
        <ele>1196.6</ele>
        <time>2022-05-22 22:00:36</time>
      </trkpt>
      <trkpt lat="42.70287" lon="0.87835">
        <ele>1196</ele>
        <time>2022-05-22 22:00:37</time>
      </trkpt>
      <trkpt lat="42.70285" lon="0.8782">
        <ele>1195.2</ele>
        <time>2022-05-22 22:00:38</time>
      </trkpt>
      <trkpt lat="42.70282" lon="0.87805">
        <ele>1194.6</ele>
        <time>2022-05-22 22:00:39</time>
      </trkpt>
      <trkpt lat="42.7028" lon="0.8779">
        <ele>1193.8</ele>
        <time>2022-05-22 22:00:40</time>
      </trkpt>
      <trkpt lat="42.70278" lon="0.87776">
        <ele>1193.4</ele>
        <time>2022-05-22 22:00:41</time>
      </trkpt>
      <trkpt lat="42.70275" lon="0.87759">
        <ele>1192.8</ele>
        <time>2022-05-22 22:00:42</time>
      </trkpt>
      <trkpt lat="42.70272" lon="0.87742">
        <ele>1192</ele>
        <time>2022-05-22 22:00:43</time>
      </trkpt>
      <trkpt lat="42.70269" lon="0.87726">
        <ele>1191.2</ele>
        <time>2022-05-22 22:00:44</time>
      </trkpt>
      <trkpt lat="42.70264" lon="0.8771">
        <ele>1190.4</ele>
        <time>2022-05-22 22:00:45</time>
      </trkpt>
      <trkpt lat="42.70258" lon="0.87695">
        <ele>1189.6</ele>
        <time>2022-05-22 22:00:46</time>
      </trkpt>
      <trkpt lat="42.70251" lon="0.87681">
        <ele>1188.8</ele>
        <time>2022-05-22 22:00:47</time>
      </trkpt>
      <trkpt lat="42.70244" lon="0.87667">
        <ele>1187.8</ele>
        <time>2022-05-22 22:00:48</time>
      </trkpt>
      <trkpt lat="42.70236" lon="0.87653">
        <ele>1186.8</ele>
        <time>2022-05-22 22:00:49</time>
      </trkpt>
      <trkpt lat="42.70227" lon="0.8764">
        <ele>1185.8</ele>
        <time>2022-05-22 22:00:50</time>
      </trkpt>
      <trkpt lat="42.70219" lon="0.87627">
        <ele>1184.6</ele>
        <time>2022-05-22 22:00:51</time>
      </trkpt>
      <trkpt lat="42.70211" lon="0.87613">
        <ele>1183.6</ele>
        <time>2022-05-22 22:00:52</time>
      </trkpt>
      <trkpt lat="42.70202" lon="0.87598">
        <ele>1182.4</ele>
        <time>2022-05-22 22:00:53</time>
      </trkpt>
      <trkpt lat="42.70194" lon="0.87583">
        <ele>1181.2</ele>
        <time>2022-05-22 22:00:54</time>
      </trkpt>
      <trkpt lat="42.70187" lon="0.87568">
        <ele>1180.2</ele>
        <time>2022-05-22 22:00:55</time>
      </trkpt>
      <trkpt lat="42.7018" lon="0.87552">
        <ele>1179.2</ele>
        <time>2022-05-22 22:00:56</time>
      </trkpt>
      <trkpt lat="42.70173" lon="0.87536">
        <ele>1178.4</ele>
        <time>2022-05-22 22:00:57</time>
      </trkpt>
      <trkpt lat="42.70168" lon="0.87518">
        <ele>1177.6</ele>
        <time>2022-05-22 22:00:58</time>
      </trkpt>
      <trkpt lat="42.70163" lon="0.875">
        <ele>1176.8</ele>
        <time>2022-05-22 22:00:59</time>
      </trkpt>
      <trkpt lat="42.7016" lon="0.87481">
        <ele>1176</ele>
        <time>2022-05-22 22:01:00</time>
      </trkpt>
      <trkpt lat="42.70157" lon="0.87463">
        <ele>1175.2</ele>
        <time>2022-05-22 22:01:01</time>
      </trkpt>
      <trkpt lat="42.70155" lon="0.87447">
        <ele>1174.4</ele>
        <time>2022-05-22 22:01:02</time>
      </trkpt>
      <trkpt lat="42.70152" lon="0.8743">
        <ele>1173.6</ele>
        <time>2022-05-22 22:01:03</time>
      </trkpt>
      <trkpt lat="42.70149" lon="0.87413">
        <ele>1172.8</ele>
        <time>2022-05-22 22:01:04</time>
      </trkpt>
      <trkpt lat="42.70147" lon="0.87396">
        <ele>1172</ele>
        <time>2022-05-22 22:01:05</time>
      </trkpt>
      <trkpt lat="42.70145" lon="0.87379">
        <ele>1171.4</ele>
        <time>2022-05-22 22:01:06</time>
      </trkpt>
      <trkpt lat="42.70143" lon="0.87362">
        <ele>1170.8</ele>
        <time>2022-05-22 22:01:07</time>
      </trkpt>
      <trkpt lat="42.70141" lon="0.87345">
        <ele>1170.2</ele>
        <time>2022-05-22 22:01:08</time>
      </trkpt>
      <trkpt lat="42.70139" lon="0.87331">
        <ele>1169.8</ele>
        <time>2022-05-22 22:01:09</time>
      </trkpt>
      <trkpt lat="42.70136" lon="0.87318">
        <ele>1169.4</ele>
        <time>2022-05-22 22:01:10</time>
      </trkpt>
      <trkpt lat="42.70134" lon="0.87306">
        <ele>1169.2</ele>
        <time>2022-05-22 22:01:11</time>
      </trkpt>
      <trkpt lat="42.70131" lon="0.87294">
        <ele>1168.8</ele>
        <time>2022-05-22 22:01:12</time>
      </trkpt>
      <trkpt lat="42.70129" lon="0.87284">
        <ele>1168.6</ele>
        <time>2022-05-22 22:01:13</time>
      </trkpt>
      <trkpt lat="42.70126" lon="0.87271">
        <ele>1168.2</ele>
        <time>2022-05-22 22:01:14</time>
      </trkpt>
      <trkpt lat="42.70124" lon="0.87258">
        <ele>1167.8</ele>
        <time>2022-05-22 22:01:15</time>
      </trkpt>
      <trkpt lat="42.70122" lon="0.87246">
        <ele>1167.6</ele>
        <time>2022-05-22 22:01:16</time>
      </trkpt>
      <trkpt lat="42.7012" lon="0.87234">
        <ele>1167</ele>
        <time>2022-05-22 22:01:17</time>
      </trkpt>
      <trkpt lat="42.70119" lon="0.87222">
        <ele>1166.6</ele>
        <time>2022-05-22 22:01:18</time>
      </trkpt>
      <trkpt lat="42.70117" lon="0.8721">
        <ele>1166.2</ele>
        <time>2022-05-22 22:01:19</time>
      </trkpt>
      <trkpt lat="42.70114" lon="0.87198">
        <ele>1165.8</ele>
        <time>2022-05-22 22:01:20</time>
      </trkpt>
      <trkpt lat="42.70112" lon="0.87186">
        <ele>1165.4</ele>
        <time>2022-05-22 22:01:21</time>
      </trkpt>
      <trkpt lat="42.70109" lon="0.87174">
        <ele>1164.8</ele>
        <time>2022-05-22 22:01:22</time>
      </trkpt>
      <trkpt lat="42.70105" lon="0.87162">
        <ele>1164.2</ele>
        <time>2022-05-22 22:01:23</time>
      </trkpt>
      <trkpt lat="42.70101" lon="0.8715">
        <ele>1163.4</ele>
        <time>2022-05-22 22:01:24</time>
      </trkpt>
      <trkpt lat="42.70096" lon="0.87138">
        <ele>1162.8</ele>
        <time>2022-05-22 22:01:25</time>
      </trkpt>
      <trkpt lat="42.70092" lon="0.87126">
        <ele>1162</ele>
        <time>2022-05-22 22:01:26</time>
      </trkpt>
      <trkpt lat="42.70087" lon="0.87115">
        <ele>1161.4</ele>
        <time>2022-05-22 22:01:27</time>
      </trkpt>
      <trkpt lat="42.70082" lon="0.87103">
        <ele>1160.8</ele>
        <time>2022-05-22 22:01:28</time>
      </trkpt>
      <trkpt lat="42.70076" lon="0.87091">
        <ele>1160.4</ele>
        <time>2022-05-22 22:01:29</time>
      </trkpt>
      <trkpt lat="42.7007" lon="0.87079">
        <ele>1160</ele>
        <time>2022-05-22 22:01:30</time>
      </trkpt>
      <trkpt lat="42.70064" lon="0.87068">
        <ele>1159.6</ele>
        <time>2022-05-22 22:01:31</time>
      </trkpt>
      <trkpt lat="42.70059" lon="0.87057">
        <ele>1159.2</ele>
        <time>2022-05-22 22:01:32</time>
      </trkpt>
      <trkpt lat="42.70054" lon="0.87046">
        <ele>1158.8</ele>
        <time>2022-05-22 22:01:33</time>
      </trkpt>
      <trkpt lat="42.70051" lon="0.87034">
        <ele>1158.6</ele>
        <time>2022-05-22 22:01:34</time>
      </trkpt>
      <trkpt lat="42.70049" lon="0.87021">
        <ele>1158.2</ele>
        <time>2022-05-22 22:01:35</time>
      </trkpt>
      <trkpt lat="42.70049" lon="0.87009">
        <ele>1158</ele>
        <time>2022-05-22 22:01:36</time>
      </trkpt>
      <trkpt lat="42.70051" lon="0.86997">
        <ele>1157.8</ele>
        <time>2022-05-22 22:01:37</time>
      </trkpt>
      <trkpt lat="42.70052" lon="0.86986">
        <ele>1157.6</ele>
        <time>2022-05-22 22:01:38</time>
      </trkpt>
      <trkpt lat="42.7005" lon="0.86974">
        <ele>1157.4</ele>
        <time>2022-05-22 22:01:39</time>
      </trkpt>
      <trkpt lat="42.70048" lon="0.86963">
        <ele>1157.2</ele>
        <time>2022-05-22 22:01:40</time>
      </trkpt>
      <trkpt lat="42.70046" lon="0.86951">
        <ele>1156.8</ele>
        <time>2022-05-22 22:01:41</time>
      </trkpt>
      <trkpt lat="42.70046" lon="0.8694">
        <ele>1156.6</ele>
        <time>2022-05-22 22:01:42</time>
      </trkpt>
      <trkpt lat="42.70048" lon="0.86928">
        <ele>1156.2</ele>
        <time>2022-05-22 22:01:43</time>
      </trkpt>
      <trkpt lat="42.70051" lon="0.86917">
        <ele>1156</ele>
        <time>2022-05-22 22:01:44</time>
      </trkpt>
      <trkpt lat="42.70055" lon="0.86906">
        <ele>1155.6</ele>
        <time>2022-05-22 22:01:45</time>
      </trkpt>
      <trkpt lat="42.70058" lon="0.86895">
        <ele>1155.2</ele>
        <time>2022-05-22 22:01:46</time>
      </trkpt>
      <trkpt lat="42.70062" lon="0.86884">
        <ele>1155</ele>
        <time>2022-05-22 22:01:47</time>
      </trkpt>
      <trkpt lat="42.70066" lon="0.86872">
        <ele>1154.6</ele>
        <time>2022-05-22 22:01:48</time>
      </trkpt>
      <trkpt lat="42.70069" lon="0.86861">
        <ele>1154.2</ele>
        <time>2022-05-22 22:01:49</time>
      </trkpt>
      <trkpt lat="42.70072" lon="0.86849">
        <ele>1153.8</ele>
        <time>2022-05-22 22:01:50</time>
      </trkpt>
      <trkpt lat="42.70075" lon="0.86837">
        <ele>1153.6</ele>
        <time>2022-05-22 22:01:51</time>
      </trkpt>
      <trkpt lat="42.70079" lon="0.86826">
        <ele>1153.2</ele>
        <time>2022-05-22 22:01:52</time>
      </trkpt>
      <trkpt lat="42.70082" lon="0.86815">
        <ele>1153</ele>
        <time>2022-05-22 22:01:53</time>
      </trkpt>
      <trkpt lat="42.70086" lon="0.86804">
        <ele>1152.6</ele>
        <time>2022-05-22 22:01:54</time>
      </trkpt>
      <trkpt lat="42.70089" lon="0.86793">
        <ele>1152.4</ele>
        <time>2022-05-22 22:01:55</time>
      </trkpt>
      <trkpt lat="42.70092" lon="0.86781">
        <ele>1152</ele>
        <time>2022-05-22 22:01:56</time>
      </trkpt>
      <trkpt lat="42.70095" lon="0.86769">
        <ele>1151.6</ele>
        <time>2022-05-22 22:01:57</time>
      </trkpt>
      <trkpt lat="42.70098" lon="0.86758">
        <ele>1151.4</ele>
        <time>2022-05-22 22:01:58</time>
      </trkpt>
      <trkpt lat="42.70102" lon="0.86746">
        <ele>1151</ele>
        <time>2022-05-22 22:01:59</time>
      </trkpt>
      <trkpt lat="42.70105" lon="0.86734">
        <ele>1150.8</ele>
        <time>2022-05-22 22:02:00</time>
      </trkpt>
      <trkpt lat="42.70108" lon="0.86723">
        <ele>1150.6</ele>
        <time>2022-05-22 22:02:01</time>
      </trkpt>
      <trkpt lat="42.70111" lon="0.86712">
        <ele>1150.4</ele>
        <time>2022-05-22 22:02:02</time>
      </trkpt>
      <trkpt lat="42.70114" lon="0.86701">
        <ele>1150.2</ele>
        <time>2022-05-22 22:02:03</time>
      </trkpt>
      <trkpt lat="42.70117" lon="0.86691">
        <ele>1150</ele>
        <time>2022-05-22 22:02:04</time>
      </trkpt>
      <trkpt lat="42.7012" lon="0.8668">
        <ele>1150</ele>
        <time>2022-05-22 22:02:05</time>
      </trkpt>
      <trkpt lat="42.70123" lon="0.86669">
        <ele>1149.8</ele>
        <time>2022-05-22 22:02:06</time>
      </trkpt>
      <trkpt lat="42.70125" lon="0.86659">
        <ele>1149.6</ele>
        <time>2022-05-22 22:02:07</time>
      </trkpt>
      <trkpt lat="42.70127" lon="0.86648">
        <ele>1149.2</ele>
        <time>2022-05-22 22:02:08</time>
      </trkpt>
      <trkpt lat="42.70129" lon="0.86637">
        <ele>1149</ele>
        <time>2022-05-22 22:02:09</time>
      </trkpt>
      <trkpt lat="42.70131" lon="0.86626">
        <ele>1149</ele>
        <time>2022-05-22 22:02:10</time>
      </trkpt>
      <trkpt lat="42.70132" lon="0.86615">
        <ele>1148.8</ele>
        <time>2022-05-22 22:02:11</time>
      </trkpt>
      <trkpt lat="42.70133" lon="0.86605">
        <ele>1148.6</ele>
        <time>2022-05-22 22:02:12</time>
      </trkpt>
      <trkpt lat="42.70134" lon="0.86594">
        <ele>1148.4</ele>
        <time>2022-05-22 22:02:13</time>
      </trkpt>
      <trkpt lat="42.70134" lon="0.86583">
        <ele>1148.4</ele>
        <time>2022-05-22 22:02:14</time>
      </trkpt>
      <trkpt lat="42.70133" lon="0.86573">
        <ele>1148.2</ele>
        <time>2022-05-22 22:02:15</time>
      </trkpt>
      <trkpt lat="42.70133" lon="0.86563">
        <ele>1148.2</ele>
        <time>2022-05-22 22:02:16</time>
      </trkpt>
      <trkpt lat="42.70132" lon="0.86553">
        <ele>1148</ele>
        <time>2022-05-22 22:02:17</time>
      </trkpt>
      <trkpt lat="42.70131" lon="0.86542">
        <ele>1147.8</ele>
        <time>2022-05-22 22:02:18</time>
      </trkpt>
      <trkpt lat="42.70129" lon="0.86532">
        <ele>1147.6</ele>
        <time>2022-05-22 22:02:19</time>
      </trkpt>
      <trkpt lat="42.70128" lon="0.86522">
        <ele>1147.6</ele>
        <time>2022-05-22 22:02:20</time>
      </trkpt>
      <trkpt lat="42.70126" lon="0.86512">
        <ele>1147.4</ele>
        <time>2022-05-22 22:02:21</time>
      </trkpt>
      <trkpt lat="42.70124" lon="0.86502">
        <ele>1147.2</ele>
        <time>2022-05-22 22:02:22</time>
      </trkpt>
      <trkpt lat="42.70122" lon="0.86492">
        <ele>1147</ele>
        <time>2022-05-22 22:02:23</time>
      </trkpt>
      <trkpt lat="42.7012" lon="0.86481">
        <ele>1146.8</ele>
        <time>2022-05-22 22:02:24</time>
      </trkpt>
      <trkpt lat="42.70117" lon="0.86472">
        <ele>1146.8</ele>
        <time>2022-05-22 22:02:25</time>
      </trkpt>
      <trkpt lat="42.70115" lon="0.86462">
        <ele>1146.6</ele>
        <time>2022-05-22 22:02:26</time>
      </trkpt>
      <trkpt lat="42.70112" lon="0.86452">
        <ele>1146.4</ele>
        <time>2022-05-22 22:02:27</time>
      </trkpt>
      <trkpt lat="42.70109" lon="0.86442">
        <ele>1146.2</ele>
        <time>2022-05-22 22:02:28</time>
      </trkpt>
      <trkpt lat="42.70106" lon="0.86433">
        <ele>1146</ele>
        <time>2022-05-22 22:02:29</time>
      </trkpt>
      <trkpt lat="42.70103" lon="0.86424">
        <ele>1145.8</ele>
        <time>2022-05-22 22:02:30</time>
      </trkpt>
      <trkpt lat="42.701" lon="0.86414">
        <ele>1145.6</ele>
        <time>2022-05-22 22:02:31</time>
      </trkpt>
      <trkpt lat="42.70097" lon="0.86405">
        <ele>1145.4</ele>
        <time>2022-05-22 22:02:32</time>
      </trkpt>
      <trkpt lat="42.70093" lon="0.86395">
        <ele>1145.2</ele>
        <time>2022-05-22 22:02:33</time>
      </trkpt>
      <trkpt lat="42.7009" lon="0.86386">
        <ele>1145</ele>
        <time>2022-05-22 22:02:34</time>
      </trkpt>
      <trkpt lat="42.70087" lon="0.86377">
        <ele>1144.8</ele>
        <time>2022-05-22 22:02:35</time>
      </trkpt>
      <trkpt lat="42.70084" lon="0.86368">
        <ele>1144.6</ele>
        <time>2022-05-22 22:02:36</time>
      </trkpt>
      <trkpt lat="42.70081" lon="0.86359">
        <ele>1144.6</ele>
        <time>2022-05-22 22:02:37</time>
      </trkpt>
      <trkpt lat="42.70078" lon="0.8635">
        <ele>1144.4</ele>
        <time>2022-05-22 22:02:38</time>
      </trkpt>
      <trkpt lat="42.70074" lon="0.86342">
        <ele>1144.2</ele>
        <time>2022-05-22 22:02:39</time>
      </trkpt>
      <trkpt lat="42.70071" lon="0.86333">
        <ele>1144.2</ele>
        <time>2022-05-22 22:02:40</time>
      </trkpt>
      <trkpt lat="42.70068" lon="0.86325">
        <ele>1144</ele>
        <time>2022-05-22 22:02:41</time>
      </trkpt>
      <trkpt lat="42.70064" lon="0.86316">
        <ele>1143.8</ele>
        <time>2022-05-22 22:02:42</time>
      </trkpt>
      <trkpt lat="42.70061" lon="0.86307">
        <ele>1143.8</ele>
        <time>2022-05-22 22:02:43</time>
      </trkpt>
      <trkpt lat="42.70058" lon="0.86299">
        <ele>1143.6</ele>
        <time>2022-05-22 22:02:44</time>
      </trkpt>
      <trkpt lat="42.70055" lon="0.8629">
        <ele>1143.4</ele>
        <time>2022-05-22 22:02:45</time>
      </trkpt>
      <trkpt lat="42.70052" lon="0.86282">
        <ele>1143.4</ele>
        <time>2022-05-22 22:02:46</time>
      </trkpt>
      <trkpt lat="42.70049" lon="0.86273">
        <ele>1143.2</ele>
        <time>2022-05-22 22:02:47</time>
      </trkpt>
      <trkpt lat="42.70046" lon="0.86265">
        <ele>1143</ele>
        <time>2022-05-22 22:02:48</time>
      </trkpt>
      <trkpt lat="42.70043" lon="0.86256">
        <ele>1143</ele>
        <time>2022-05-22 22:02:49</time>
      </trkpt>
      <trkpt lat="42.7004" lon="0.86248">
        <ele>1142.8</ele>
        <time>2022-05-22 22:02:50</time>
      </trkpt>
      <trkpt lat="42.70037" lon="0.8624">
        <ele>1142.6</ele>
        <time>2022-05-22 22:02:51</time>
      </trkpt>
      <trkpt lat="42.70033" lon="0.86231">
        <ele>1142.4</ele>
        <time>2022-05-22 22:02:52</time>
      </trkpt>
      <trkpt lat="42.7003" lon="0.86223">
        <ele>1142.2</ele>
        <time>2022-05-22 22:02:53</time>
      </trkpt>
      <trkpt lat="42.70027" lon="0.86214">
        <ele>1142</ele>
        <time>2022-05-22 22:02:54</time>
      </trkpt>
      <trkpt lat="42.70023" lon="0.86206">
        <ele>1141.8</ele>
        <time>2022-05-22 22:02:55</time>
      </trkpt>
      <trkpt lat="42.70021" lon="0.86201">
        <ele>1141.8</ele>
        <time>2022-05-22 22:02:56</time>
      </trkpt>
      <trkpt lat="42.70019" lon="0.86197">
        <ele>1141.6</ele>
        <time>2022-05-22 22:02:57</time>
      </trkpt>
      <trkpt lat="42.70014" lon="0.86183">
        <ele>1141.6</ele>
        <time>2022-05-22 22:02:58</time>
      </trkpt>
      <trkpt lat="42.70009" lon="0.86172">
        <ele>1141.4</ele>
        <time>2022-05-22 22:02:59</time>
      </trkpt>
      <trkpt lat="42.70005" lon="0.86163">
        <ele>1141.2</ele>
        <time>2022-05-22 22:03:00</time>
      </trkpt>
      <trkpt lat="42.70002" lon="0.86155">
        <ele>1141.2</ele>
        <time>2022-05-22 22:03:01</time>
      </trkpt>
      <trkpt lat="42.69998" lon="0.86147">
        <ele>1141</ele>
        <time>2022-05-22 22:03:02</time>
      </trkpt>
      <trkpt lat="42.69995" lon="0.86139">
        <ele>1140.8</ele>
        <time>2022-05-22 22:03:03</time>
      </trkpt>
      <trkpt lat="42.69993" lon="0.86131">
        <ele>1140.6</ele>
        <time>2022-05-22 22:03:04</time>
      </trkpt>
      <trkpt lat="42.69989" lon="0.86122">
        <ele>1140.2</ele>
        <time>2022-05-22 22:03:05</time>
      </trkpt>
      <trkpt lat="42.69986" lon="0.86112">
        <ele>1140</ele>
        <time>2022-05-22 22:03:06</time>
      </trkpt>
      <trkpt lat="42.69984" lon="0.86104">
        <ele>1139.8</ele>
        <time>2022-05-22 22:03:07</time>
      </trkpt>
      <trkpt lat="42.6998" lon="0.86095">
        <ele>1139.6</ele>
        <time>2022-05-22 22:03:08</time>
      </trkpt>
      <trkpt lat="42.69977" lon="0.86086">
        <ele>1139.4</ele>
        <time>2022-05-22 22:03:09</time>
      </trkpt>
      <trkpt lat="42.69974" lon="0.86076">
        <ele>1139.2</ele>
        <time>2022-05-22 22:03:10</time>
      </trkpt>
      <trkpt lat="42.69971" lon="0.86066">
        <ele>1138.8</ele>
        <time>2022-05-22 22:03:11</time>
      </trkpt>
      <trkpt lat="42.69968" lon="0.86057">
        <ele>1138.6</ele>
        <time>2022-05-22 22:03:12</time>
      </trkpt>
      <trkpt lat="42.69965" lon="0.86047">
        <ele>1138.4</ele>
        <time>2022-05-22 22:03:13</time>
      </trkpt>
      <trkpt lat="42.69963" lon="0.86037">
        <ele>1138</ele>
        <time>2022-05-22 22:03:14</time>
      </trkpt>
      <trkpt lat="42.69961" lon="0.86027">
        <ele>1137.8</ele>
        <time>2022-05-22 22:03:15</time>
      </trkpt>
      <trkpt lat="42.69959" lon="0.86016">
        <ele>1137.4</ele>
        <time>2022-05-22 22:03:16</time>
      </trkpt>
      <trkpt lat="42.69958" lon="0.86005">
        <ele>1137.2</ele>
        <time>2022-05-22 22:03:17</time>
      </trkpt>
      <trkpt lat="42.69956" lon="0.85994">
        <ele>1137</ele>
        <time>2022-05-22 22:03:18</time>
      </trkpt>
      <trkpt lat="42.69956" lon="0.85983">
        <ele>1136.6</ele>
        <time>2022-05-22 22:03:19</time>
      </trkpt>
      <trkpt lat="42.69956" lon="0.85972">
        <ele>1136.4</ele>
        <time>2022-05-22 22:03:20</time>
      </trkpt>
      <trkpt lat="42.69956" lon="0.85961">
        <ele>1136.2</ele>
        <time>2022-05-22 22:03:21</time>
      </trkpt>
      <trkpt lat="42.69956" lon="0.8595">
        <ele>1136</ele>
        <time>2022-05-22 22:03:22</time>
      </trkpt>
      <trkpt lat="42.69957" lon="0.8594">
        <ele>1135.8</ele>
        <time>2022-05-22 22:03:23</time>
      </trkpt>
      <trkpt lat="42.69958" lon="0.85929">
        <ele>1135.6</ele>
        <time>2022-05-22 22:03:24</time>
      </trkpt>
      <trkpt lat="42.69959" lon="0.85918">
        <ele>1135.2</ele>
        <time>2022-05-22 22:03:25</time>
      </trkpt>
      <trkpt lat="42.6996" lon="0.85907">
        <ele>1135</ele>
        <time>2022-05-22 22:03:26</time>
      </trkpt>
      <trkpt lat="42.69961" lon="0.85896">
        <ele>1134.8</ele>
        <time>2022-05-22 22:03:27</time>
      </trkpt>
      <trkpt lat="42.69962" lon="0.85885">
        <ele>1134.6</ele>
        <time>2022-05-22 22:03:28</time>
      </trkpt>
      <trkpt lat="42.69964" lon="0.85874">
        <ele>1134.4</ele>
        <time>2022-05-22 22:03:29</time>
      </trkpt>
      <trkpt lat="42.69965" lon="0.85862">
        <ele>1134.2</ele>
        <time>2022-05-22 22:03:30</time>
      </trkpt>
      <trkpt lat="42.69967" lon="0.85851">
        <ele>1134</ele>
        <time>2022-05-22 22:03:31</time>
      </trkpt>
      <trkpt lat="42.69969" lon="0.8584">
        <ele>1133.8</ele>
        <time>2022-05-22 22:03:32</time>
      </trkpt>
      <trkpt lat="42.6997" lon="0.85829">
        <ele>1133.6</ele>
        <time>2022-05-22 22:03:33</time>
      </trkpt>
      <trkpt lat="42.69972" lon="0.8582">
        <ele>1133.4</ele>
        <time>2022-05-22 22:03:34</time>
      </trkpt>
      <trkpt lat="42.69973" lon="0.85808">
        <ele>1133.2</ele>
        <time>2022-05-22 22:03:35</time>
      </trkpt>
      <trkpt lat="42.69975" lon="0.85796">
        <ele>1133.2</ele>
        <time>2022-05-22 22:03:36</time>
      </trkpt>
      <trkpt lat="42.69976" lon="0.85786">
        <ele>1133</ele>
        <time>2022-05-22 22:03:37</time>
      </trkpt>
      <trkpt lat="42.69978" lon="0.85776">
        <ele>1132.8</ele>
        <time>2022-05-22 22:03:38</time>
      </trkpt>
      <trkpt lat="42.69979" lon="0.85765">
        <ele>1132.8</ele>
        <time>2022-05-22 22:03:39</time>
      </trkpt>
      <trkpt lat="42.69981" lon="0.85755">
        <ele>1132.6</ele>
        <time>2022-05-22 22:03:40</time>
      </trkpt>
      <trkpt lat="42.69982" lon="0.85745">
        <ele>1132.2</ele>
        <time>2022-05-22 22:03:41</time>
      </trkpt>
      <trkpt lat="42.69983" lon="0.85734">
        <ele>1132</ele>
        <time>2022-05-22 22:03:42</time>
      </trkpt>
      <trkpt lat="42.69985" lon="0.85724">
        <ele>1132</ele>
        <time>2022-05-22 22:03:43</time>
      </trkpt>
      <trkpt lat="42.69986" lon="0.85714">
        <ele>1131.8</ele>
        <time>2022-05-22 22:03:44</time>
      </trkpt>
      <trkpt lat="42.69987" lon="0.85704">
        <ele>1131.6</ele>
        <time>2022-05-22 22:03:45</time>
      </trkpt>
      <trkpt lat="42.69989" lon="0.85694">
        <ele>1131.4</ele>
        <time>2022-05-22 22:03:46</time>
      </trkpt>
      <trkpt lat="42.69991" lon="0.85684">
        <ele>1131.2</ele>
        <time>2022-05-22 22:03:47</time>
      </trkpt>
      <trkpt lat="42.69992" lon="0.85674">
        <ele>1131</ele>
        <time>2022-05-22 22:03:48</time>
      </trkpt>
      <trkpt lat="42.69994" lon="0.85664">
        <ele>1130.8</ele>
        <time>2022-05-22 22:03:49</time>
      </trkpt>
      <trkpt lat="42.69995" lon="0.85653">
        <ele>1130.6</ele>
        <time>2022-05-22 22:03:50</time>
      </trkpt>
      <trkpt lat="42.69996" lon="0.85643">
        <ele>1130.6</ele>
        <time>2022-05-22 22:03:51</time>
      </trkpt>
      <trkpt lat="42.69998" lon="0.85633">
        <ele>1130.4</ele>
        <time>2022-05-22 22:03:52</time>
      </trkpt>
      <trkpt lat="42.7" lon="0.85623">
        <ele>1130.4</ele>
        <time>2022-05-22 22:03:53</time>
      </trkpt>
      <trkpt lat="42.70002" lon="0.85613">
        <ele>1130.2</ele>
        <time>2022-05-22 22:03:54</time>
      </trkpt>
      <trkpt lat="42.70004" lon="0.85603">
        <ele>1130</ele>
        <time>2022-05-22 22:03:55</time>
      </trkpt>
      <trkpt lat="42.70006" lon="0.85593">
        <ele>1129.8</ele>
        <time>2022-05-22 22:03:56</time>
      </trkpt>
      <trkpt lat="42.70008" lon="0.85584">
        <ele>1129.6</ele>
        <time>2022-05-22 22:03:57</time>
      </trkpt>
      <trkpt lat="42.70011" lon="0.85574">
        <ele>1129.4</ele>
        <time>2022-05-22 22:03:58</time>
      </trkpt>
      <trkpt lat="42.70013" lon="0.85565">
        <ele>1129.4</ele>
        <time>2022-05-22 22:03:59</time>
      </trkpt>
      <trkpt lat="42.70016" lon="0.85555">
        <ele>1129.2</ele>
        <time>2022-05-22 22:04:00</time>
      </trkpt>
      <trkpt lat="42.70018" lon="0.85546">
        <ele>1129.2</ele>
        <time>2022-05-22 22:04:01</time>
      </trkpt>
      <trkpt lat="42.7002" lon="0.85536">
        <ele>1129</ele>
        <time>2022-05-22 22:04:02</time>
      </trkpt>
      <trkpt lat="42.70023" lon="0.85527">
        <ele>1129</ele>
        <time>2022-05-22 22:04:03</time>
      </trkpt>
      <trkpt lat="42.70025" lon="0.85517">
        <ele>1129</ele>
        <time>2022-05-22 22:04:04</time>
      </trkpt>
      <trkpt lat="42.70027" lon="0.85508">
        <ele>1128.8</ele>
        <time>2022-05-22 22:04:05</time>
      </trkpt>
      <trkpt lat="42.70029" lon="0.85498">
        <ele>1128.8</ele>
        <time>2022-05-22 22:04:06</time>
      </trkpt>
      <trkpt lat="42.70031" lon="0.85489">
        <ele>1128.6</ele>
        <time>2022-05-22 22:04:07</time>
      </trkpt>
      <trkpt lat="42.70032" lon="0.85479">
        <ele>1128.6</ele>
        <time>2022-05-22 22:04:08</time>
      </trkpt>
      <trkpt lat="42.70033" lon="0.8547">
        <ele>1128.4</ele>
        <time>2022-05-22 22:04:09</time>
      </trkpt>
      <trkpt lat="42.70033" lon="0.8546">
        <ele>1128.4</ele>
        <time>2022-05-22 22:04:10</time>
      </trkpt>
      <trkpt lat="42.70034" lon="0.85451">
        <ele>1128.2</ele>
        <time>2022-05-22 22:04:11</time>
      </trkpt>
      <trkpt lat="42.70033" lon="0.85442">
        <ele>1128.2</ele>
        <time>2022-05-22 22:04:12</time>
      </trkpt>
      <trkpt lat="42.70032" lon="0.85433">
        <ele>1128</ele>
        <time>2022-05-22 22:04:13</time>
      </trkpt>
      <trkpt lat="42.70031" lon="0.85424">
        <ele>1127.8</ele>
        <time>2022-05-22 22:04:14</time>
      </trkpt>
      <trkpt lat="42.7003" lon="0.85414">
        <ele>1127.6</ele>
        <time>2022-05-22 22:04:15</time>
      </trkpt>
      <trkpt lat="42.70028" lon="0.85406">
        <ele>1127.6</ele>
        <time>2022-05-22 22:04:16</time>
      </trkpt>
      <trkpt lat="42.70027" lon="0.85396">
        <ele>1127.4</ele>
        <time>2022-05-22 22:04:17</time>
      </trkpt>
      <trkpt lat="42.70025" lon="0.85387">
        <ele>1127.2</ele>
        <time>2022-05-22 22:04:18</time>
      </trkpt>
      <trkpt lat="42.70023" lon="0.85378">
        <ele>1127.2</ele>
        <time>2022-05-22 22:04:19</time>
      </trkpt>
      <trkpt lat="42.70021" lon="0.85369">
        <ele>1127</ele>
        <time>2022-05-22 22:04:20</time>
      </trkpt>
      <trkpt lat="42.70019" lon="0.85361">
        <ele>1126.8</ele>
        <time>2022-05-22 22:04:21</time>
      </trkpt>
      <trkpt lat="42.70016" lon="0.85352">
        <ele>1126.6</ele>
        <time>2022-05-22 22:04:22</time>
      </trkpt>
      <trkpt lat="42.70014" lon="0.85343">
        <ele>1126.4</ele>
        <time>2022-05-22 22:04:23</time>
      </trkpt>
      <trkpt lat="42.70012" lon="0.85334">
        <ele>1126.2</ele>
        <time>2022-05-22 22:04:24</time>
      </trkpt>
      <trkpt lat="42.7001" lon="0.85325">
        <ele>1126</ele>
        <time>2022-05-22 22:04:25</time>
      </trkpt>
      <trkpt lat="42.70008" lon="0.85316">
        <ele>1125.8</ele>
        <time>2022-05-22 22:04:26</time>
      </trkpt>
      <trkpt lat="42.70006" lon="0.85307">
        <ele>1125.6</ele>
        <time>2022-05-22 22:04:27</time>
      </trkpt>
      <trkpt lat="42.70005" lon="0.85297">
        <ele>1125.6</ele>
        <time>2022-05-22 22:04:28</time>
      </trkpt>
      <trkpt lat="42.70003" lon="0.85288">
        <ele>1125.2</ele>
        <time>2022-05-22 22:04:29</time>
      </trkpt>
      <trkpt lat="42.70002" lon="0.85279">
        <ele>1125</ele>
        <time>2022-05-22 22:04:30</time>
      </trkpt>
      <trkpt lat="42.70001" lon="0.8527">
        <ele>1124.8</ele>
        <time>2022-05-22 22:04:31</time>
      </trkpt>
      <trkpt lat="42.7" lon="0.85261">
        <ele>1124.8</ele>
        <time>2022-05-22 22:04:32</time>
      </trkpt>
      <trkpt lat="42.69999" lon="0.85251">
        <ele>1124.6</ele>
        <time>2022-05-22 22:04:33</time>
      </trkpt>
      <trkpt lat="42.69999" lon="0.85242">
        <ele>1124.4</ele>
        <time>2022-05-22 22:04:34</time>
      </trkpt>
      <trkpt lat="42.69999" lon="0.85232">
        <ele>1124</ele>
        <time>2022-05-22 22:04:35</time>
      </trkpt>
      <trkpt lat="42.69999" lon="0.85222">
        <ele>1123.8</ele>
        <time>2022-05-22 22:04:36</time>
      </trkpt>
      <trkpt lat="42.69999" lon="0.85212">
        <ele>1123.6</ele>
        <time>2022-05-22 22:04:37</time>
      </trkpt>
      <trkpt lat="42.69999" lon="0.85202">
        <ele>1123.2</ele>
        <time>2022-05-22 22:04:38</time>
      </trkpt>
      <trkpt lat="42.69999" lon="0.85192">
        <ele>1123</ele>
        <time>2022-05-22 22:04:39</time>
      </trkpt>
      <trkpt lat="42.7" lon="0.85181">
        <ele>1122.6</ele>
        <time>2022-05-22 22:04:40</time>
      </trkpt>
      <trkpt lat="42.70001" lon="0.8517">
        <ele>1122.2</ele>
        <time>2022-05-22 22:04:41</time>
      </trkpt>
      <trkpt lat="42.70003" lon="0.8516">
        <ele>1121.8</ele>
        <time>2022-05-22 22:04:42</time>
      </trkpt>
      <trkpt lat="42.70005" lon="0.85149">
        <ele>1121.4</ele>
        <time>2022-05-22 22:04:43</time>
      </trkpt>
      <trkpt lat="42.70007" lon="0.85138">
        <ele>1120.8</ele>
        <time>2022-05-22 22:04:44</time>
      </trkpt>
      <trkpt lat="42.70009" lon="0.85127">
        <ele>1120.4</ele>
        <time>2022-05-22 22:04:45</time>
      </trkpt>
      <trkpt lat="42.7001" lon="0.85115">
        <ele>1120</ele>
        <time>2022-05-22 22:04:46</time>
      </trkpt>
      <trkpt lat="42.70012" lon="0.85104">
        <ele>1119.4</ele>
        <time>2022-05-22 22:04:47</time>
      </trkpt>
      <trkpt lat="42.70013" lon="0.85092">
        <ele>1119</ele>
        <time>2022-05-22 22:04:48</time>
      </trkpt>
      <trkpt lat="42.70013" lon="0.8508">
        <ele>1118.6</ele>
        <time>2022-05-22 22:04:49</time>
      </trkpt>
      <trkpt lat="42.70013" lon="0.85068">
        <ele>1118.4</ele>
        <time>2022-05-22 22:04:50</time>
      </trkpt>
      <trkpt lat="42.70013" lon="0.85057">
        <ele>1118</ele>
        <time>2022-05-22 22:04:51</time>
      </trkpt>
      <trkpt lat="42.70013" lon="0.85045">
        <ele>1117.8</ele>
        <time>2022-05-22 22:04:52</time>
      </trkpt>
      <trkpt lat="42.70012" lon="0.85033">
        <ele>1117.4</ele>
        <time>2022-05-22 22:04:53</time>
      </trkpt>
      <trkpt lat="42.7001" lon="0.85022">
        <ele>1117.2</ele>
        <time>2022-05-22 22:04:54</time>
      </trkpt>
      <trkpt lat="42.70009" lon="0.85011">
        <ele>1117</ele>
        <time>2022-05-22 22:04:55</time>
      </trkpt>
      <trkpt lat="42.70007" lon="0.85">
        <ele>1116.8</ele>
        <time>2022-05-22 22:04:56</time>
      </trkpt>
      <trkpt lat="42.70005" lon="0.8499">
        <ele>1116.6</ele>
        <time>2022-05-22 22:04:57</time>
      </trkpt>
      <trkpt lat="42.70004" lon="0.84979">
        <ele>1116.4</ele>
        <time>2022-05-22 22:04:58</time>
      </trkpt>
      <trkpt lat="42.70002" lon="0.84969">
        <ele>1116.2</ele>
        <time>2022-05-22 22:04:59</time>
      </trkpt>
      <trkpt lat="42.7" lon="0.84958">
        <ele>1116.2</ele>
        <time>2022-05-22 22:05:00</time>
      </trkpt>
      <trkpt lat="42.69998" lon="0.84948">
        <ele>1116</ele>
        <time>2022-05-22 22:05:01</time>
      </trkpt>
      <trkpt lat="42.69996" lon="0.84938">
        <ele>1115.8</ele>
        <time>2022-05-22 22:05:02</time>
      </trkpt>
      <trkpt lat="42.69995" lon="0.84928">
        <ele>1115.6</ele>
        <time>2022-05-22 22:05:03</time>
      </trkpt>
      <trkpt lat="42.69993" lon="0.84919">
        <ele>1115.6</ele>
        <time>2022-05-22 22:05:04</time>
      </trkpt>
      <trkpt lat="42.69991" lon="0.84909">
        <ele>1115.4</ele>
        <time>2022-05-22 22:05:05</time>
      </trkpt>
      <trkpt lat="42.69989" lon="0.849">
        <ele>1115.4</ele>
        <time>2022-05-22 22:05:06</time>
      </trkpt>
      <trkpt lat="42.69986" lon="0.84891">
        <ele>1115.2</ele>
        <time>2022-05-22 22:05:07</time>
      </trkpt>
      <trkpt lat="42.69984" lon="0.84882">
        <ele>1115.2</ele>
        <time>2022-05-22 22:05:08</time>
      </trkpt>
      <trkpt lat="42.69981" lon="0.84873">
        <ele>1115</ele>
        <time>2022-05-22 22:05:09</time>
      </trkpt>
      <trkpt lat="42.69978" lon="0.84865">
        <ele>1115</ele>
        <time>2022-05-22 22:05:10</time>
      </trkpt>
      <trkpt lat="42.69975" lon="0.84858">
        <ele>1114.8</ele>
        <time>2022-05-22 22:05:11</time>
      </trkpt>
      <trkpt lat="42.69972" lon="0.8485">
        <ele>1114.8</ele>
        <time>2022-05-22 22:05:12</time>
      </trkpt>
      <trkpt lat="42.69968" lon="0.84843">
        <ele>1114.8</ele>
        <time>2022-05-22 22:05:13</time>
      </trkpt>
      <trkpt lat="42.69966" lon="0.84837">
        <ele>1114.8</ele>
        <time>2022-05-22 22:05:14</time>
      </trkpt>
      <trkpt lat="42.69963" lon="0.8483">
        <ele>1114.8</ele>
        <time>2022-05-22 22:05:15</time>
      </trkpt>
      <trkpt lat="42.6996" lon="0.84823">
        <ele>1114.8</ele>
        <time>2022-05-22 22:05:16</time>
      </trkpt>
      <trkpt lat="42.69957" lon="0.84817">
        <ele>1114.6</ele>
        <time>2022-05-22 22:05:17</time>
      </trkpt>
      <trkpt lat="42.69953" lon="0.8481">
        <ele>1114.6</ele>
        <time>2022-05-22 22:05:18</time>
      </trkpt>
      <trkpt lat="42.6995" lon="0.84804">
        <ele>1114.6</ele>
        <time>2022-05-22 22:05:19</time>
      </trkpt>
      <trkpt lat="42.69947" lon="0.84798">
        <ele>1114.6</ele>
        <time>2022-05-22 22:05:20</time>
      </trkpt>
      <trkpt lat="42.69944" lon="0.84793">
        <ele>1114.6</ele>
        <time>2022-05-22 22:05:21</time>
      </trkpt>
      <trkpt lat="42.69941" lon="0.84788">
        <ele>1114.6</ele>
        <time>2022-05-22 22:05:22</time>
      </trkpt>
      <trkpt lat="42.69937" lon="0.84782">
        <ele>1114.4</ele>
        <time>2022-05-22 22:05:23</time>
      </trkpt>
      <trkpt lat="42.69935" lon="0.84776">
        <ele>1114.4</ele>
        <time>2022-05-22 22:05:24</time>
      </trkpt>
      <trkpt lat="42.69932" lon="0.8477">
        <ele>1114.2</ele>
        <time>2022-05-22 22:05:25</time>
      </trkpt>
      <trkpt lat="42.6993" lon="0.84764">
        <ele>1114.2</ele>
        <time>2022-05-22 22:05:26</time>
      </trkpt>
      <trkpt lat="42.69927" lon="0.84757">
        <ele>1114.2</ele>
        <time>2022-05-22 22:05:27</time>
      </trkpt>
      <trkpt lat="42.69925" lon="0.8475">
        <ele>1114.2</ele>
        <time>2022-05-22 22:05:28</time>
      </trkpt>
      <trkpt lat="42.69923" lon="0.84743">
        <ele>1114</ele>
        <time>2022-05-22 22:05:29</time>
      </trkpt>
      <trkpt lat="42.69921" lon="0.84735">
        <ele>1114</ele>
        <time>2022-05-22 22:05:30</time>
      </trkpt>
      <trkpt lat="42.6992" lon="0.84728">
        <ele>1113.8</ele>
        <time>2022-05-22 22:05:31</time>
      </trkpt>
      <trkpt lat="42.69918" lon="0.8472">
        <ele>1113.8</ele>
        <time>2022-05-22 22:05:32</time>
      </trkpt>
      <trkpt lat="42.69917" lon="0.84713">
        <ele>1113.6</ele>
        <time>2022-05-22 22:05:33</time>
      </trkpt>
      <trkpt lat="42.69915" lon="0.84705">
        <ele>1113.4</ele>
        <time>2022-05-22 22:05:34</time>
      </trkpt>
      <trkpt lat="42.69913" lon="0.84698">
        <ele>1113.4</ele>
        <time>2022-05-22 22:05:35</time>
      </trkpt>
      <trkpt lat="42.69911" lon="0.8469">
        <ele>1113.2</ele>
        <time>2022-05-22 22:05:36</time>
      </trkpt>
      <trkpt lat="42.6991" lon="0.84682">
        <ele>1113</ele>
        <time>2022-05-22 22:05:37</time>
      </trkpt>
      <trkpt lat="42.69908" lon="0.84674">
        <ele>1113</ele>
        <time>2022-05-22 22:05:38</time>
      </trkpt>
      <trkpt lat="42.69907" lon="0.84667">
        <ele>1113</ele>
        <time>2022-05-22 22:05:39</time>
      </trkpt>
      <trkpt lat="42.69906" lon="0.84658">
        <ele>1112.8</ele>
        <time>2022-05-22 22:05:40</time>
      </trkpt>
      <trkpt lat="42.69904" lon="0.8465">
        <ele>1112.6</ele>
        <time>2022-05-22 22:05:41</time>
      </trkpt>
      <trkpt lat="42.69903" lon="0.84642">
        <ele>1112.6</ele>
        <time>2022-05-22 22:05:42</time>
      </trkpt>
      <trkpt lat="42.69902" lon="0.84634">
        <ele>1112.4</ele>
        <time>2022-05-22 22:05:43</time>
      </trkpt>
      <trkpt lat="42.699" lon="0.84626">
        <ele>1112.2</ele>
        <time>2022-05-22 22:05:44</time>
      </trkpt>
      <trkpt lat="42.699" lon="0.84617">
        <ele>1112</ele>
        <time>2022-05-22 22:05:45</time>
      </trkpt>
      <trkpt lat="42.69899" lon="0.84609">
        <ele>1111.8</ele>
        <time>2022-05-22 22:05:46</time>
      </trkpt>
      <trkpt lat="42.69899" lon="0.846">
        <ele>1111.6</ele>
        <time>2022-05-22 22:05:47</time>
      </trkpt>
      <trkpt lat="42.69899" lon="0.84591">
        <ele>1111.4</ele>
        <time>2022-05-22 22:05:48</time>
      </trkpt>
      <trkpt lat="42.699" lon="0.84583">
        <ele>1111.2</ele>
        <time>2022-05-22 22:05:49</time>
      </trkpt>
      <trkpt lat="42.69901" lon="0.84574">
        <ele>1111</ele>
        <time>2022-05-22 22:05:50</time>
      </trkpt>
      <trkpt lat="42.69902" lon="0.84565">
        <ele>1110.8</ele>
        <time>2022-05-22 22:05:51</time>
      </trkpt>
      <trkpt lat="42.69903" lon="0.84557">
        <ele>1110.6</ele>
        <time>2022-05-22 22:05:52</time>
      </trkpt>
      <trkpt lat="42.69903" lon="0.84548">
        <ele>1110.4</ele>
        <time>2022-05-22 22:05:53</time>
      </trkpt>
      <trkpt lat="42.69904" lon="0.84539">
        <ele>1110.2</ele>
        <time>2022-05-22 22:05:54</time>
      </trkpt>
      <trkpt lat="42.69904" lon="0.84529">
        <ele>1110</ele>
        <time>2022-05-22 22:05:55</time>
      </trkpt>
      <trkpt lat="42.69905" lon="0.8452">
        <ele>1109.8</ele>
        <time>2022-05-22 22:05:56</time>
      </trkpt>
      <trkpt lat="42.69906" lon="0.84511">
        <ele>1109.6</ele>
        <time>2022-05-22 22:05:57</time>
      </trkpt>
      <trkpt lat="42.69907" lon="0.84501">
        <ele>1109.4</ele>
        <time>2022-05-22 22:05:58</time>
      </trkpt>
      <trkpt lat="42.69908" lon="0.84492">
        <ele>1109</ele>
        <time>2022-05-22 22:05:59</time>
      </trkpt>
      <trkpt lat="42.69908" lon="0.84482">
        <ele>1108.8</ele>
        <time>2022-05-22 22:06:00</time>
      </trkpt>
      <trkpt lat="42.69909" lon="0.84472">
        <ele>1108.6</ele>
        <time>2022-05-22 22:06:01</time>
      </trkpt>
      <trkpt lat="42.69909" lon="0.84462">
        <ele>1108.4</ele>
        <time>2022-05-22 22:06:02</time>
      </trkpt>
      <trkpt lat="42.6991" lon="0.84452">
        <ele>1108.2</ele>
        <time>2022-05-22 22:06:03</time>
      </trkpt>
      <trkpt lat="42.69911" lon="0.84442">
        <ele>1108</ele>
        <time>2022-05-22 22:06:04</time>
      </trkpt>
      <trkpt lat="42.69912" lon="0.84432">
        <ele>1107.8</ele>
        <time>2022-05-22 22:06:05</time>
      </trkpt>
      <trkpt lat="42.69914" lon="0.84423">
        <ele>1107.6</ele>
        <time>2022-05-22 22:06:06</time>
      </trkpt>
      <trkpt lat="42.69915" lon="0.84413">
        <ele>1107.4</ele>
        <time>2022-05-22 22:06:07</time>
      </trkpt>
      <trkpt lat="42.69916" lon="0.84403">
        <ele>1107.2</ele>
        <time>2022-05-22 22:06:08</time>
      </trkpt>
      <trkpt lat="42.69917" lon="0.84394">
        <ele>1107.2</ele>
        <time>2022-05-22 22:06:09</time>
      </trkpt>
      <trkpt lat="42.69918" lon="0.84385">
        <ele>1107</ele>
        <time>2022-05-22 22:06:10</time>
      </trkpt>
      <trkpt lat="42.69919" lon="0.84376">
        <ele>1107</ele>
        <time>2022-05-22 22:06:11</time>
      </trkpt>
      <trkpt lat="42.6992" lon="0.84368">
        <ele>1106.8</ele>
        <time>2022-05-22 22:06:12</time>
      </trkpt>
      <trkpt lat="42.6992" lon="0.84359">
        <ele>1106.8</ele>
        <time>2022-05-22 22:06:13</time>
      </trkpt>
      <trkpt lat="42.69921" lon="0.8435">
        <ele>1106.8</ele>
        <time>2022-05-22 22:06:14</time>
      </trkpt>
      <trkpt lat="42.69921" lon="0.84342">
        <ele>1106.8</ele>
        <time>2022-05-22 22:06:15</time>
      </trkpt>
      <trkpt lat="42.69921" lon="0.84334">
        <ele>1106.8</ele>
        <time>2022-05-22 22:06:16</time>
      </trkpt>
      <trkpt lat="42.69921" lon="0.84326">
        <ele>1106.6</ele>
        <time>2022-05-22 22:06:17</time>
      </trkpt>
      <trkpt lat="42.69921" lon="0.84318">
        <ele>1106.6</ele>
        <time>2022-05-22 22:06:18</time>
      </trkpt>
      <trkpt lat="42.69921" lon="0.84309">
        <ele>1106.6</ele>
        <time>2022-05-22 22:06:19</time>
      </trkpt>
      <trkpt lat="42.69921" lon="0.84301">
        <ele>1106.6</ele>
        <time>2022-05-22 22:06:20</time>
      </trkpt>
      <trkpt lat="42.6992" lon="0.84293">
        <ele>1106.4</ele>
        <time>2022-05-22 22:06:21</time>
      </trkpt>
      <trkpt lat="42.6992" lon="0.84285">
        <ele>1106.4</ele>
        <time>2022-05-22 22:06:22</time>
      </trkpt>
      <trkpt lat="42.6992" lon="0.84277">
        <ele>1106.4</ele>
        <time>2022-05-22 22:06:23</time>
      </trkpt>
      <trkpt lat="42.6992" lon="0.8427">
        <ele>1106.2</ele>
        <time>2022-05-22 22:06:24</time>
      </trkpt>
      <trkpt lat="42.69919" lon="0.84262">
        <ele>1106.2</ele>
        <time>2022-05-22 22:06:25</time>
      </trkpt>
      <trkpt lat="42.69919" lon="0.84254">
        <ele>1106.2</ele>
        <time>2022-05-22 22:06:26</time>
      </trkpt>
      <trkpt lat="42.69919" lon="0.84247">
        <ele>1106.2</ele>
        <time>2022-05-22 22:06:27</time>
      </trkpt>
      <trkpt lat="42.69919" lon="0.8424">
        <ele>1106.2</ele>
        <time>2022-05-22 22:06:28</time>
      </trkpt>
      <trkpt lat="42.69918" lon="0.84233">
        <ele>1106.2</ele>
        <time>2022-05-22 22:06:29</time>
      </trkpt>
      <trkpt lat="42.69918" lon="0.84225">
        <ele>1106.2</ele>
        <time>2022-05-22 22:06:30</time>
      </trkpt>
      <trkpt lat="42.69918" lon="0.84218">
        <ele>1106</ele>
        <time>2022-05-22 22:06:31</time>
      </trkpt>
      <trkpt lat="42.69917" lon="0.84211">
        <ele>1106</ele>
        <time>2022-05-22 22:06:32</time>
      </trkpt>
      <trkpt lat="42.69916" lon="0.84204">
        <ele>1105.8</ele>
        <time>2022-05-22 22:06:33</time>
      </trkpt>
      <trkpt lat="42.69915" lon="0.84197">
        <ele>1105.6</ele>
        <time>2022-05-22 22:06:34</time>
      </trkpt>
      <trkpt lat="42.69915" lon="0.8419">
        <ele>1105.6</ele>
        <time>2022-05-22 22:06:35</time>
      </trkpt>
      <trkpt lat="42.69914" lon="0.84182">
        <ele>1105.4</ele>
        <time>2022-05-22 22:06:36</time>
      </trkpt>
      <trkpt lat="42.69914" lon="0.84174">
        <ele>1105.2</ele>
        <time>2022-05-22 22:06:37</time>
      </trkpt>
      <trkpt lat="42.69914" lon="0.84166">
        <ele>1105</ele>
        <time>2022-05-22 22:06:38</time>
      </trkpt>
      <trkpt lat="42.69914" lon="0.84158">
        <ele>1104.8</ele>
        <time>2022-05-22 22:06:39</time>
      </trkpt>
      <trkpt lat="42.69913" lon="0.84149">
        <ele>1104.4</ele>
        <time>2022-05-22 22:06:40</time>
      </trkpt>
      <trkpt lat="42.69913" lon="0.8414">
        <ele>1104</ele>
        <time>2022-05-22 22:06:41</time>
      </trkpt>
      <trkpt lat="42.69912" lon="0.8413">
        <ele>1103.6</ele>
        <time>2022-05-22 22:06:42</time>
      </trkpt>
      <trkpt lat="42.69911" lon="0.84121">
        <ele>1103.2</ele>
        <time>2022-05-22 22:06:43</time>
      </trkpt>
      <trkpt lat="42.69909" lon="0.8411">
        <ele>1102.6</ele>
        <time>2022-05-22 22:06:44</time>
      </trkpt>
      <trkpt lat="42.69907" lon="0.84099">
        <ele>1102.2</ele>
        <time>2022-05-22 22:06:45</time>
      </trkpt>
      <trkpt lat="42.69905" lon="0.84089">
        <ele>1101.6</ele>
        <time>2022-05-22 22:06:46</time>
      </trkpt>
      <trkpt lat="42.69902" lon="0.84078">
        <ele>1101.2</ele>
        <time>2022-05-22 22:06:47</time>
      </trkpt>
      <trkpt lat="42.69899" lon="0.84067">
        <ele>1100.6</ele>
        <time>2022-05-22 22:06:48</time>
      </trkpt>
      <trkpt lat="42.69895" lon="0.84056">
        <ele>1100</ele>
        <time>2022-05-22 22:06:49</time>
      </trkpt>
      <trkpt lat="42.6989" lon="0.84045">
        <ele>1099.4</ele>
        <time>2022-05-22 22:06:50</time>
      </trkpt>
      <trkpt lat="42.69885" lon="0.84034">
        <ele>1098.6</ele>
        <time>2022-05-22 22:06:51</time>
      </trkpt>
      <trkpt lat="42.6988" lon="0.84023">
        <ele>1097.8</ele>
        <time>2022-05-22 22:06:52</time>
      </trkpt>
      <trkpt lat="42.69874" lon="0.84011">
        <ele>1097</ele>
        <time>2022-05-22 22:06:53</time>
      </trkpt>
      <trkpt lat="42.69868" lon="0.84">
        <ele>1096.2</ele>
        <time>2022-05-22 22:06:54</time>
      </trkpt>
      <trkpt lat="42.69861" lon="0.83988">
        <ele>1095.4</ele>
        <time>2022-05-22 22:06:55</time>
      </trkpt>
      <trkpt lat="42.69854" lon="0.83977">
        <ele>1094.4</ele>
        <time>2022-05-22 22:06:56</time>
      </trkpt>
      <trkpt lat="42.69847" lon="0.83964">
        <ele>1093.6</ele>
        <time>2022-05-22 22:06:57</time>
      </trkpt>
      <trkpt lat="42.69842" lon="0.83949">
        <ele>1092.6</ele>
        <time>2022-05-22 22:06:58</time>
      </trkpt>
      <trkpt lat="42.69837" lon="0.83933">
        <ele>1091.6</ele>
        <time>2022-05-22 22:06:59</time>
      </trkpt>
      <trkpt lat="42.69834" lon="0.83916">
        <ele>1090.6</ele>
        <time>2022-05-22 22:07:00</time>
      </trkpt>
      <trkpt lat="42.69832" lon="0.83899">
        <ele>1089.8</ele>
        <time>2022-05-22 22:07:01</time>
      </trkpt>
      <trkpt lat="42.69831" lon="0.83882">
        <ele>1088.8</ele>
        <time>2022-05-22 22:07:02</time>
      </trkpt>
      <trkpt lat="42.69832" lon="0.83864">
        <ele>1088</ele>
        <time>2022-05-22 22:07:03</time>
      </trkpt>
      <trkpt lat="42.69833" lon="0.83846">
        <ele>1087.2</ele>
        <time>2022-05-22 22:07:04</time>
      </trkpt>
      <trkpt lat="42.69834" lon="0.83829">
        <ele>1086.6</ele>
        <time>2022-05-22 22:07:05</time>
      </trkpt>
      <trkpt lat="42.69834" lon="0.83812">
        <ele>1085.8</ele>
        <time>2022-05-22 22:07:06</time>
      </trkpt>
      <trkpt lat="42.69835" lon="0.83795">
        <ele>1084.8</ele>
        <time>2022-05-22 22:07:07</time>
      </trkpt>
      <trkpt lat="42.69839" lon="0.83777">
        <ele>1084</ele>
        <time>2022-05-22 22:07:08</time>
      </trkpt>
      <trkpt lat="42.69842" lon="0.83759">
        <ele>1083</ele>
        <time>2022-05-22 22:07:09</time>
      </trkpt>
      <trkpt lat="42.69845" lon="0.83742">
        <ele>1082.4</ele>
        <time>2022-05-22 22:07:10</time>
      </trkpt>
      <trkpt lat="42.69847" lon="0.83725">
        <ele>1081.8</ele>
        <time>2022-05-22 22:07:11</time>
      </trkpt>
      <trkpt lat="42.6985" lon="0.83708">
        <ele>1081</ele>
        <time>2022-05-22 22:07:12</time>
      </trkpt>
      <trkpt lat="42.69852" lon="0.83692">
        <ele>1080.6</ele>
        <time>2022-05-22 22:07:13</time>
      </trkpt>
      <trkpt lat="42.69856" lon="0.83678">
        <ele>1080</ele>
        <time>2022-05-22 22:07:14</time>
      </trkpt>
      <trkpt lat="42.69862" lon="0.83664">
        <ele>1079.6</ele>
        <time>2022-05-22 22:07:15</time>
      </trkpt>
      <trkpt lat="42.69868" lon="0.8365">
        <ele>1079</ele>
        <time>2022-05-22 22:07:16</time>
      </trkpt>
      <trkpt lat="42.69873" lon="0.83635">
        <ele>1078.4</ele>
        <time>2022-05-22 22:07:17</time>
      </trkpt>
      <trkpt lat="42.69877" lon="0.83623">
        <ele>1078</ele>
        <time>2022-05-22 22:07:18</time>
      </trkpt>
      <trkpt lat="42.69883" lon="0.83607">
        <ele>1077.8</ele>
        <time>2022-05-22 22:07:19</time>
      </trkpt>
      <trkpt lat="42.69888" lon="0.83592">
        <ele>1077.4</ele>
        <time>2022-05-22 22:07:20</time>
      </trkpt>
      <trkpt lat="42.69892" lon="0.83577">
        <ele>1077</ele>
        <time>2022-05-22 22:07:21</time>
      </trkpt>
      <trkpt lat="42.69896" lon="0.83562">
        <ele>1076.8</ele>
        <time>2022-05-22 22:07:22</time>
      </trkpt>
      <trkpt lat="42.699" lon="0.83545">
        <ele>1076.4</ele>
        <time>2022-05-22 22:07:23</time>
      </trkpt>
      <trkpt lat="42.69904" lon="0.8353">
        <ele>1076</ele>
        <time>2022-05-22 22:07:24</time>
      </trkpt>
      <trkpt lat="42.69907" lon="0.83515">
        <ele>1075.6</ele>
        <time>2022-05-22 22:07:25</time>
      </trkpt>
      <trkpt lat="42.6991" lon="0.83499">
        <ele>1075.2</ele>
        <time>2022-05-22 22:07:26</time>
      </trkpt>
      <trkpt lat="42.69914" lon="0.83485">
        <ele>1074.6</ele>
        <time>2022-05-22 22:07:27</time>
      </trkpt>
      <trkpt lat="42.69918" lon="0.83469">
        <ele>1074</ele>
        <time>2022-05-22 22:07:28</time>
      </trkpt>
      <trkpt lat="42.69921" lon="0.83454">
        <ele>1073.4</ele>
        <time>2022-05-22 22:07:29</time>
      </trkpt>
      <trkpt lat="42.69925" lon="0.83439">
        <ele>1073</ele>
        <time>2022-05-22 22:07:30</time>
      </trkpt>
      <trkpt lat="42.69928" lon="0.83425">
        <ele>1072.8</ele>
        <time>2022-05-22 22:07:31</time>
      </trkpt>
      <trkpt lat="42.69929" lon="0.83412">
        <ele>1072.6</ele>
        <time>2022-05-22 22:07:32</time>
      </trkpt>
      <trkpt lat="42.69927" lon="0.83401">
        <ele>1072.4</ele>
        <time>2022-05-22 22:07:33</time>
      </trkpt>
      <trkpt lat="42.69924" lon="0.8339">
        <ele>1072.2</ele>
        <time>2022-05-22 22:07:34</time>
      </trkpt>
      <trkpt lat="42.69922" lon="0.8338">
        <ele>1072</ele>
        <time>2022-05-22 22:07:35</time>
      </trkpt>
      <trkpt lat="42.69921" lon="0.83369">
        <ele>1072</ele>
        <time>2022-05-22 22:07:36</time>
      </trkpt>
      <trkpt lat="42.69922" lon="0.83358">
        <ele>1072</ele>
        <time>2022-05-22 22:07:37</time>
      </trkpt>
      <trkpt lat="42.69924" lon="0.83347">
        <ele>1071.6</ele>
        <time>2022-05-22 22:07:38</time>
      </trkpt>
      <trkpt lat="42.69926" lon="0.83336">
        <ele>1071.6</ele>
        <time>2022-05-22 22:07:39</time>
      </trkpt>
      <trkpt lat="42.69927" lon="0.83325">
        <ele>1071.4</ele>
        <time>2022-05-22 22:07:40</time>
      </trkpt>
      <trkpt lat="42.69928" lon="0.83315">
        <ele>1071.2</ele>
        <time>2022-05-22 22:07:41</time>
      </trkpt>
      <trkpt lat="42.69928" lon="0.83303">
        <ele>1071</ele>
        <time>2022-05-22 22:07:42</time>
      </trkpt>
      <trkpt lat="42.69928" lon="0.83291">
        <ele>1070.8</ele>
        <time>2022-05-22 22:07:43</time>
      </trkpt>
      <trkpt lat="42.69928" lon="0.8328">
        <ele>1070.4</ele>
        <time>2022-05-22 22:07:44</time>
      </trkpt>
      <trkpt lat="42.69927" lon="0.83268">
        <ele>1070</ele>
        <time>2022-05-22 22:07:45</time>
      </trkpt>
      <trkpt lat="42.69927" lon="0.83254">
        <ele>1069.4</ele>
        <time>2022-05-22 22:07:46</time>
      </trkpt>
      <trkpt lat="42.69925" lon="0.83241">
        <ele>1069</ele>
        <time>2022-05-22 22:07:47</time>
      </trkpt>
      <trkpt lat="42.69924" lon="0.83227">
        <ele>1068.2</ele>
        <time>2022-05-22 22:07:48</time>
      </trkpt>
      <trkpt lat="42.69922" lon="0.83212">
        <ele>1067.6</ele>
        <time>2022-05-22 22:07:49</time>
      </trkpt>
      <trkpt lat="42.69921" lon="0.83198">
        <ele>1066.8</ele>
        <time>2022-05-22 22:07:50</time>
      </trkpt>
      <trkpt lat="42.6992" lon="0.83184">
        <ele>1066.2</ele>
        <time>2022-05-22 22:07:51</time>
      </trkpt>
      <trkpt lat="42.69919" lon="0.83169">
        <ele>1065.6</ele>
        <time>2022-05-22 22:07:52</time>
      </trkpt>
      <trkpt lat="42.69918" lon="0.83154">
        <ele>1064.8</ele>
        <time>2022-05-22 22:07:53</time>
      </trkpt>
      <trkpt lat="42.69916" lon="0.83139">
        <ele>1064</ele>
        <time>2022-05-22 22:07:54</time>
      </trkpt>
      <trkpt lat="42.69914" lon="0.83125">
        <ele>1063.4</ele>
        <time>2022-05-22 22:07:55</time>
      </trkpt>
      <trkpt lat="42.69913" lon="0.8311">
        <ele>1062.6</ele>
        <time>2022-05-22 22:07:56</time>
      </trkpt>
      <trkpt lat="42.69913" lon="0.83094">
        <ele>1062</ele>
        <time>2022-05-22 22:07:57</time>
      </trkpt>
      <trkpt lat="42.69912" lon="0.83079">
        <ele>1061.4</ele>
        <time>2022-05-22 22:07:58</time>
      </trkpt>
      <trkpt lat="42.6991" lon="0.83065">
        <ele>1060.6</ele>
        <time>2022-05-22 22:07:59</time>
      </trkpt>
      <trkpt lat="42.69908" lon="0.8305">
        <ele>1060</ele>
        <time>2022-05-22 22:08:00</time>
      </trkpt>
      <trkpt lat="42.69906" lon="0.83035">
        <ele>1059.2</ele>
        <time>2022-05-22 22:08:01</time>
      </trkpt>
      <trkpt lat="42.69905" lon="0.83021">
        <ele>1058.4</ele>
        <time>2022-05-22 22:08:02</time>
      </trkpt>
      <trkpt lat="42.69902" lon="0.83006">
        <ele>1057.8</ele>
        <time>2022-05-22 22:08:03</time>
      </trkpt>
      <trkpt lat="42.699" lon="0.82991">
        <ele>1057</ele>
        <time>2022-05-22 22:08:04</time>
      </trkpt>
      <trkpt lat="42.69897" lon="0.82976">
        <ele>1056.2</ele>
        <time>2022-05-22 22:08:05</time>
      </trkpt>
      <trkpt lat="42.69893" lon="0.82961">
        <ele>1055.2</ele>
        <time>2022-05-22 22:08:06</time>
      </trkpt>
      <trkpt lat="42.6989" lon="0.82947">
        <ele>1054.6</ele>
        <time>2022-05-22 22:08:07</time>
      </trkpt>
      <trkpt lat="42.69886" lon="0.82934">
        <ele>1053.8</ele>
        <time>2022-05-22 22:08:08</time>
      </trkpt>
      <trkpt lat="42.69883" lon="0.82919">
        <ele>1053.2</ele>
        <time>2022-05-22 22:08:09</time>
      </trkpt>
      <trkpt lat="42.6988" lon="0.82904">
        <ele>1052.4</ele>
        <time>2022-05-22 22:08:10</time>
      </trkpt>
      <trkpt lat="42.69877" lon="0.8289">
        <ele>1051.6</ele>
        <time>2022-05-22 22:08:11</time>
      </trkpt>
      <trkpt lat="42.69873" lon="0.82875">
        <ele>1051</ele>
        <time>2022-05-22 22:08:12</time>
      </trkpt>
      <trkpt lat="42.69869" lon="0.8286">
        <ele>1050.4</ele>
        <time>2022-05-22 22:08:13</time>
      </trkpt>
      <trkpt lat="42.69865" lon="0.82845">
        <ele>1050</ele>
        <time>2022-05-22 22:08:14</time>
      </trkpt>
      <trkpt lat="42.69862" lon="0.82832">
        <ele>1049.4</ele>
        <time>2022-05-22 22:08:15</time>
      </trkpt>
      <trkpt lat="42.69858" lon="0.82818">
        <ele>1049</ele>
        <time>2022-05-22 22:08:16</time>
      </trkpt>
      <trkpt lat="42.69855" lon="0.82805">
        <ele>1048.8</ele>
        <time>2022-05-22 22:08:17</time>
      </trkpt>
      <trkpt lat="42.69852" lon="0.82792">
        <ele>1048.8</ele>
        <time>2022-05-22 22:08:18</time>
      </trkpt>
      <trkpt lat="42.69851" lon="0.82778">
        <ele>1048.4</ele>
        <time>2022-05-22 22:08:19</time>
      </trkpt>
      <trkpt lat="42.69849" lon="0.82764">
        <ele>1048.2</ele>
        <time>2022-05-22 22:08:20</time>
      </trkpt>
      <trkpt lat="42.69848" lon="0.8275">
        <ele>1047.8</ele>
        <time>2022-05-22 22:08:21</time>
      </trkpt>
      <trkpt lat="42.69846" lon="0.82737">
        <ele>1047.4</ele>
        <time>2022-05-22 22:08:22</time>
      </trkpt>
      <trkpt lat="42.69844" lon="0.82724">
        <ele>1047.2</ele>
        <time>2022-05-22 22:08:23</time>
      </trkpt>
      <trkpt lat="42.69843" lon="0.8271">
        <ele>1046.8</ele>
        <time>2022-05-22 22:08:24</time>
      </trkpt>
      <trkpt lat="42.69842" lon="0.82696">
        <ele>1046.4</ele>
        <time>2022-05-22 22:08:25</time>
      </trkpt>
      <trkpt lat="42.69841" lon="0.82681">
        <ele>1046</ele>
        <time>2022-05-22 22:08:26</time>
      </trkpt>
      <trkpt lat="42.6984" lon="0.82667">
        <ele>1045.8</ele>
        <time>2022-05-22 22:08:27</time>
      </trkpt>
      <trkpt lat="42.69839" lon="0.82654">
        <ele>1045.4</ele>
        <time>2022-05-22 22:08:28</time>
      </trkpt>
      <trkpt lat="42.69838" lon="0.8264">
        <ele>1045.2</ele>
        <time>2022-05-22 22:08:29</time>
      </trkpt>
      <trkpt lat="42.69836" lon="0.82627">
        <ele>1045</ele>
        <time>2022-05-22 22:08:30</time>
      </trkpt>
      <trkpt lat="42.69834" lon="0.82613">
        <ele>1044.8</ele>
        <time>2022-05-22 22:08:31</time>
      </trkpt>
      <trkpt lat="42.69833" lon="0.826">
        <ele>1044.4</ele>
        <time>2022-05-22 22:08:32</time>
      </trkpt>
      <trkpt lat="42.69832" lon="0.82587">
        <ele>1044</ele>
        <time>2022-05-22 22:08:33</time>
      </trkpt>
      <trkpt lat="42.69831" lon="0.82573">
        <ele>1043.8</ele>
        <time>2022-05-22 22:08:34</time>
      </trkpt>
      <trkpt lat="42.69829" lon="0.82558">
        <ele>1043.4</ele>
        <time>2022-05-22 22:08:35</time>
      </trkpt>
      <trkpt lat="42.69827" lon="0.82544">
        <ele>1043</ele>
        <time>2022-05-22 22:08:36</time>
      </trkpt>
      <trkpt lat="42.69826" lon="0.8253">
        <ele>1042.6</ele>
        <time>2022-05-22 22:08:37</time>
      </trkpt>
      <trkpt lat="42.69824" lon="0.82516">
        <ele>1042.2</ele>
        <time>2022-05-22 22:08:38</time>
      </trkpt>
      <trkpt lat="42.69823" lon="0.82503">
        <ele>1042</ele>
        <time>2022-05-22 22:08:39</time>
      </trkpt>
      <trkpt lat="42.69821" lon="0.82489">
        <ele>1041.6</ele>
        <time>2022-05-22 22:08:40</time>
      </trkpt>
      <trkpt lat="42.6982" lon="0.82474">
        <ele>1041.4</ele>
        <time>2022-05-22 22:08:41</time>
      </trkpt>
      <trkpt lat="42.69819" lon="0.8246">
        <ele>1041</ele>
        <time>2022-05-22 22:08:42</time>
      </trkpt>
      <trkpt lat="42.69818" lon="0.82447">
        <ele>1040.8</ele>
        <time>2022-05-22 22:08:43</time>
      </trkpt>
      <trkpt lat="42.69816" lon="0.82432">
        <ele>1040.6</ele>
        <time>2022-05-22 22:08:44</time>
      </trkpt>
      <trkpt lat="42.69815" lon="0.82418">
        <ele>1040.2</ele>
        <time>2022-05-22 22:08:45</time>
      </trkpt>
      <trkpt lat="42.69813" lon="0.82404">
        <ele>1039.8</ele>
        <time>2022-05-22 22:08:46</time>
      </trkpt>
      <trkpt lat="42.69812" lon="0.82389">
        <ele>1039.4</ele>
        <time>2022-05-22 22:08:47</time>
      </trkpt>
      <trkpt lat="42.69811" lon="0.82374">
        <ele>1039.2</ele>
        <time>2022-05-22 22:08:48</time>
      </trkpt>
      <trkpt lat="42.69811" lon="0.82359">
        <ele>1038.8</ele>
        <time>2022-05-22 22:08:49</time>
      </trkpt>
      <trkpt lat="42.69811" lon="0.82345">
        <ele>1038.4</ele>
        <time>2022-05-22 22:08:50</time>
      </trkpt>
      <trkpt lat="42.6981" lon="0.8233">
        <ele>1038.2</ele>
        <time>2022-05-22 22:08:51</time>
      </trkpt>
      <trkpt lat="42.69809" lon="0.82315">
        <ele>1037.8</ele>
        <time>2022-05-22 22:08:52</time>
      </trkpt>
      <trkpt lat="42.69808" lon="0.823">
        <ele>1037.6</ele>
        <time>2022-05-22 22:08:53</time>
      </trkpt>
      <trkpt lat="42.69808" lon="0.82285">
        <ele>1037.4</ele>
        <time>2022-05-22 22:08:54</time>
      </trkpt>
      <trkpt lat="42.69807" lon="0.82271">
        <ele>1037.2</ele>
        <time>2022-05-22 22:08:55</time>
      </trkpt>
      <trkpt lat="42.69805" lon="0.82258">
        <ele>1037.2</ele>
        <time>2022-05-22 22:08:56</time>
      </trkpt>
      <trkpt lat="42.69803" lon="0.82246">
        <ele>1037.2</ele>
        <time>2022-05-22 22:08:57</time>
      </trkpt>
      <trkpt lat="42.69801" lon="0.82233">
        <ele>1037.2</ele>
        <time>2022-05-22 22:08:58</time>
      </trkpt>
      <trkpt lat="42.698" lon="0.82222">
        <ele>1037.2</ele>
        <time>2022-05-22 22:08:59</time>
      </trkpt>
      <trkpt lat="42.69799" lon="0.82211">
        <ele>1037.2</ele>
        <time>2022-05-22 22:09:00</time>
      </trkpt>
      <trkpt lat="42.698" lon="0.822">
        <ele>1037.2</ele>
        <time>2022-05-22 22:09:01</time>
      </trkpt>
      <trkpt lat="42.69802" lon="0.8219">
        <ele>1037.4</ele>
        <time>2022-05-22 22:09:02</time>
      </trkpt>
      <trkpt lat="42.69804" lon="0.82179">
        <ele>1037.4</ele>
        <time>2022-05-22 22:09:03</time>
      </trkpt>
      <trkpt lat="42.69804" lon="0.82168">
        <ele>1037.4</ele>
        <time>2022-05-22 22:09:04</time>
      </trkpt>
      <trkpt lat="42.69803" lon="0.82158">
        <ele>1037.4</ele>
        <time>2022-05-22 22:09:05</time>
      </trkpt>
      <trkpt lat="42.69801" lon="0.82148">
        <ele>1037.6</ele>
        <time>2022-05-22 22:09:06</time>
      </trkpt>
      <trkpt lat="42.69799" lon="0.82139">
        <ele>1037.6</ele>
        <time>2022-05-22 22:09:07</time>
      </trkpt>
      <trkpt lat="42.69798" lon="0.82129">
        <ele>1037.8</ele>
        <time>2022-05-22 22:09:08</time>
      </trkpt>
      <trkpt lat="42.69798" lon="0.8212">
        <ele>1037.8</ele>
        <time>2022-05-22 22:09:09</time>
      </trkpt>
      <trkpt lat="42.69798" lon="0.82111">
        <ele>1037.8</ele>
        <time>2022-05-22 22:09:10</time>
      </trkpt>
      <trkpt lat="42.69798" lon="0.82101">
        <ele>1037.8</ele>
        <time>2022-05-22 22:09:11</time>
      </trkpt>
      <trkpt lat="42.69798" lon="0.82092">
        <ele>1038</ele>
        <time>2022-05-22 22:09:12</time>
      </trkpt>
      <trkpt lat="42.69799" lon="0.82084">
        <ele>1038</ele>
        <time>2022-05-22 22:09:13</time>
      </trkpt>
      <trkpt lat="42.69799" lon="0.82075">
        <ele>1038.2</ele>
        <time>2022-05-22 22:09:14</time>
      </trkpt>
      <trkpt lat="42.698" lon="0.82067">
        <ele>1038.2</ele>
        <time>2022-05-22 22:09:15</time>
      </trkpt>
      <trkpt lat="42.698" lon="0.82059">
        <ele>1038.4</ele>
        <time>2022-05-22 22:09:16</time>
      </trkpt>
      <trkpt lat="42.69801" lon="0.8205">
        <ele>1038.4</ele>
        <time>2022-05-22 22:09:17</time>
      </trkpt>
      <trkpt lat="42.69802" lon="0.82042">
        <ele>1038.4</ele>
        <time>2022-05-22 22:09:18</time>
      </trkpt>
      <trkpt lat="42.69803" lon="0.82034">
        <ele>1038.2</ele>
        <time>2022-05-22 22:09:19</time>
      </trkpt>
      <trkpt lat="42.69804" lon="0.82026">
        <ele>1038.4</ele>
        <time>2022-05-22 22:09:20</time>
      </trkpt>
      <trkpt lat="42.69805" lon="0.82019">
        <ele>1038.4</ele>
        <time>2022-05-22 22:09:21</time>
      </trkpt>
      <trkpt lat="42.69805" lon="0.82011">
        <ele>1038.4</ele>
        <time>2022-05-22 22:09:22</time>
      </trkpt>
      <trkpt lat="42.69806" lon="0.82003">
        <ele>1038.4</ele>
        <time>2022-05-22 22:09:23</time>
      </trkpt>
      <trkpt lat="42.69807" lon="0.81996">
        <ele>1038.4</ele>
        <time>2022-05-22 22:09:24</time>
      </trkpt>
      <trkpt lat="42.69808" lon="0.81988">
        <ele>1038.6</ele>
        <time>2022-05-22 22:09:25</time>
      </trkpt>
      <trkpt lat="42.69809" lon="0.8198">
        <ele>1038.6</ele>
        <time>2022-05-22 22:09:26</time>
      </trkpt>
      <trkpt lat="42.6981" lon="0.81972">
        <ele>1038.8</ele>
        <time>2022-05-22 22:09:27</time>
      </trkpt>
      <trkpt lat="42.69812" lon="0.81964">
        <ele>1038.8</ele>
        <time>2022-05-22 22:09:28</time>
      </trkpt>
      <trkpt lat="42.69813" lon="0.81957">
        <ele>1038.8</ele>
        <time>2022-05-22 22:09:29</time>
      </trkpt>
      <trkpt lat="42.69814" lon="0.81949">
        <ele>1039</ele>
        <time>2022-05-22 22:09:30</time>
      </trkpt>
      <trkpt lat="42.69815" lon="0.81942">
        <ele>1039</ele>
        <time>2022-05-22 22:09:31</time>
      </trkpt>
      <trkpt lat="42.69815" lon="0.81935">
        <ele>1039.2</ele>
        <time>2022-05-22 22:09:32</time>
      </trkpt>
      <trkpt lat="42.69815" lon="0.81928">
        <ele>1039.2</ele>
        <time>2022-05-22 22:09:33</time>
      </trkpt>
      <trkpt lat="42.69815" lon="0.81922">
        <ele>1039.4</ele>
        <time>2022-05-22 22:09:34</time>
      </trkpt>
      <trkpt lat="42.69815" lon="0.81916">
        <ele>1039.4</ele>
        <time>2022-05-22 22:09:35</time>
      </trkpt>
      <trkpt lat="42.69815" lon="0.8191">
        <ele>1039.6</ele>
        <time>2022-05-22 22:09:36</time>
      </trkpt>
      <trkpt lat="42.69814" lon="0.81903">
        <ele>1039.6</ele>
        <time>2022-05-22 22:09:37</time>
      </trkpt>
      <trkpt lat="42.69814" lon="0.81897">
        <ele>1039.8</ele>
        <time>2022-05-22 22:09:38</time>
      </trkpt>
      <trkpt lat="42.69813" lon="0.81891">
        <ele>1039.8</ele>
        <time>2022-05-22 22:09:39</time>
      </trkpt>
      <trkpt lat="42.69812" lon="0.81884">
        <ele>1040</ele>
        <time>2022-05-22 22:09:40</time>
      </trkpt>
      <trkpt lat="42.69811" lon="0.81878">
        <ele>1040</ele>
        <time>2022-05-22 22:09:41</time>
      </trkpt>
      <trkpt lat="42.6981" lon="0.81871">
        <ele>1040</ele>
        <time>2022-05-22 22:09:42</time>
      </trkpt>
      <trkpt lat="42.69808" lon="0.81864">
        <ele>1040</ele>
        <time>2022-05-22 22:09:43</time>
      </trkpt>
      <trkpt lat="42.69806" lon="0.81857">
        <ele>1040.2</ele>
        <time>2022-05-22 22:09:44</time>
      </trkpt>
      <trkpt lat="42.69805" lon="0.81851">
        <ele>1040.2</ele>
        <time>2022-05-22 22:09:45</time>
      </trkpt>
      <trkpt lat="42.69803" lon="0.81844">
        <ele>1040.4</ele>
        <time>2022-05-22 22:09:46</time>
      </trkpt>
      <trkpt lat="42.69801" lon="0.81838">
        <ele>1040.4</ele>
        <time>2022-05-22 22:09:47</time>
      </trkpt>
      <trkpt lat="42.69799" lon="0.81832">
        <ele>1040.6</ele>
        <time>2022-05-22 22:09:48</time>
      </trkpt>
      <trkpt lat="42.69797" lon="0.81825">
        <ele>1040.6</ele>
        <time>2022-05-22 22:09:49</time>
      </trkpt>
      <trkpt lat="42.69795" lon="0.81819">
        <ele>1040.8</ele>
        <time>2022-05-22 22:09:50</time>
      </trkpt>
      <trkpt lat="42.69793" lon="0.81814">
        <ele>1040.8</ele>
        <time>2022-05-22 22:09:51</time>
      </trkpt>
      <trkpt lat="42.69791" lon="0.81807">
        <ele>1040.8</ele>
        <time>2022-05-22 22:09:52</time>
      </trkpt>
      <trkpt lat="42.69789" lon="0.81801">
        <ele>1040.8</ele>
        <time>2022-05-22 22:09:53</time>
      </trkpt>
      <trkpt lat="42.69787" lon="0.81795">
        <ele>1040.8</ele>
        <time>2022-05-22 22:09:54</time>
      </trkpt>
      <trkpt lat="42.69785" lon="0.81788">
        <ele>1040.8</ele>
        <time>2022-05-22 22:09:55</time>
      </trkpt>
      <trkpt lat="42.69783" lon="0.81781">
        <ele>1040.8</ele>
        <time>2022-05-22 22:09:56</time>
      </trkpt>
      <trkpt lat="42.69781" lon="0.81775">
        <ele>1040.8</ele>
        <time>2022-05-22 22:09:57</time>
      </trkpt>
      <trkpt lat="42.69779" lon="0.81768">
        <ele>1040.8</ele>
        <time>2022-05-22 22:09:58</time>
      </trkpt>
      <trkpt lat="42.69777" lon="0.81762">
        <ele>1040.8</ele>
        <time>2022-05-22 22:09:59</time>
      </trkpt>
      <trkpt lat="42.69774" lon="0.81755">
        <ele>1040.8</ele>
        <time>2022-05-22 22:10:00</time>
      </trkpt>
      <trkpt lat="42.69772" lon="0.81749">
        <ele>1040.8</ele>
        <time>2022-05-22 22:10:01</time>
      </trkpt>
      <trkpt lat="42.69769" lon="0.81743">
        <ele>1040.8</ele>
        <time>2022-05-22 22:10:02</time>
      </trkpt>
      <trkpt lat="42.69767" lon="0.81737">
        <ele>1040.8</ele>
        <time>2022-05-22 22:10:03</time>
      </trkpt>
      <trkpt lat="42.69764" lon="0.81731">
        <ele>1040.8</ele>
        <time>2022-05-22 22:10:04</time>
      </trkpt>
      <trkpt lat="42.69762" lon="0.81724">
        <ele>1040.8</ele>
        <time>2022-05-22 22:10:05</time>
      </trkpt>
      <trkpt lat="42.69759" lon="0.81718">
        <ele>1040.8</ele>
        <time>2022-05-22 22:10:06</time>
      </trkpt>
      <trkpt lat="42.69757" lon="0.81712">
        <ele>1040.8</ele>
        <time>2022-05-22 22:10:07</time>
      </trkpt>
      <trkpt lat="42.69754" lon="0.81706">
        <ele>1040.6</ele>
        <time>2022-05-22 22:10:08</time>
      </trkpt>
      <trkpt lat="42.69752" lon="0.817">
        <ele>1040.6</ele>
        <time>2022-05-22 22:10:09</time>
      </trkpt>
      <trkpt lat="42.6975" lon="0.81694">
        <ele>1040.8</ele>
        <time>2022-05-22 22:10:10</time>
      </trkpt>
      <trkpt lat="42.69747" lon="0.81687">
        <ele>1040.8</ele>
        <time>2022-05-22 22:10:11</time>
      </trkpt>
      <trkpt lat="42.69745" lon="0.81681">
        <ele>1040.8</ele>
        <time>2022-05-22 22:10:12</time>
      </trkpt>
      <trkpt lat="42.69743" lon="0.81674">
        <ele>1040.6</ele>
        <time>2022-05-22 22:10:13</time>
      </trkpt>
      <trkpt lat="42.6974" lon="0.81667">
        <ele>1040.6</ele>
        <time>2022-05-22 22:10:14</time>
      </trkpt>
      <trkpt lat="42.69738" lon="0.8166">
        <ele>1040.6</ele>
        <time>2022-05-22 22:10:15</time>
      </trkpt>
      <trkpt lat="42.69736" lon="0.81654">
        <ele>1040.4</ele>
        <time>2022-05-22 22:10:16</time>
      </trkpt>
      <trkpt lat="42.69733" lon="0.81647">
        <ele>1040.2</ele>
        <time>2022-05-22 22:10:17</time>
      </trkpt>
      <trkpt lat="42.69731" lon="0.8164">
        <ele>1040</ele>
        <time>2022-05-22 22:10:18</time>
      </trkpt>
      <trkpt lat="42.69728" lon="0.81632">
        <ele>1039.8</ele>
        <time>2022-05-22 22:10:19</time>
      </trkpt>
      <trkpt lat="42.69725" lon="0.81624">
        <ele>1039.6</ele>
        <time>2022-05-22 22:10:20</time>
      </trkpt>
      <trkpt lat="42.69722" lon="0.81615">
        <ele>1039.2</ele>
        <time>2022-05-22 22:10:21</time>
      </trkpt>
      <trkpt lat="42.69718" lon="0.81606">
        <ele>1039</ele>
        <time>2022-05-22 22:10:22</time>
      </trkpt>
      <trkpt lat="42.69715" lon="0.81596">
        <ele>1038.6</ele>
        <time>2022-05-22 22:10:23</time>
      </trkpt>
      <trkpt lat="42.69711" lon="0.81587">
        <ele>1038</ele>
        <time>2022-05-22 22:10:24</time>
      </trkpt>
      <trkpt lat="42.69707" lon="0.81576">
        <ele>1037.4</ele>
        <time>2022-05-22 22:10:25</time>
      </trkpt>
      <trkpt lat="42.69703" lon="0.81566">
        <ele>1036.8</ele>
        <time>2022-05-22 22:10:26</time>
      </trkpt>
      <trkpt lat="42.69699" lon="0.81554">
        <ele>1036.2</ele>
        <time>2022-05-22 22:10:27</time>
      </trkpt>
      <trkpt lat="42.69695" lon="0.81541">
        <ele>1035.4</ele>
        <time>2022-05-22 22:10:28</time>
      </trkpt>
      <trkpt lat="42.69691" lon="0.81527">
        <ele>1034.6</ele>
        <time>2022-05-22 22:10:29</time>
      </trkpt>
      <trkpt lat="42.69686" lon="0.81515">
        <ele>1034</ele>
        <time>2022-05-22 22:10:30</time>
      </trkpt>
      <trkpt lat="42.69682" lon="0.81503">
        <ele>1033.2</ele>
        <time>2022-05-22 22:10:31</time>
      </trkpt>
      <trkpt lat="42.69679" lon="0.81489">
        <ele>1032.4</ele>
        <time>2022-05-22 22:10:32</time>
      </trkpt>
      <trkpt lat="42.69676" lon="0.81474">
        <ele>1031.6</ele>
        <time>2022-05-22 22:10:33</time>
      </trkpt>
      <trkpt lat="42.69674" lon="0.81459">
        <ele>1030.8</ele>
        <time>2022-05-22 22:10:34</time>
      </trkpt>
      <trkpt lat="42.69673" lon="0.81444">
        <ele>1030</ele>
        <time>2022-05-22 22:10:35</time>
      </trkpt>
      <trkpt lat="42.69673" lon="0.81429">
        <ele>1029</ele>
        <time>2022-05-22 22:10:36</time>
      </trkpt>
      <trkpt lat="42.69673" lon="0.81414">
        <ele>1028.2</ele>
        <time>2022-05-22 22:10:37</time>
      </trkpt>
      <trkpt lat="42.69674" lon="0.814">
        <ele>1027.4</ele>
        <time>2022-05-22 22:10:38</time>
      </trkpt>
      <trkpt lat="42.69674" lon="0.81384">
        <ele>1026.8</ele>
        <time>2022-05-22 22:10:39</time>
      </trkpt>
      <trkpt lat="42.69675" lon="0.81369">
        <ele>1026</ele>
        <time>2022-05-22 22:10:40</time>
      </trkpt>
      <trkpt lat="42.69677" lon="0.81353">
        <ele>1025.2</ele>
        <time>2022-05-22 22:10:41</time>
      </trkpt>
      <trkpt lat="42.69678" lon="0.81337">
        <ele>1024.4</ele>
        <time>2022-05-22 22:10:42</time>
      </trkpt>
      <trkpt lat="42.6968" lon="0.81322">
        <ele>1023.8</ele>
        <time>2022-05-22 22:10:43</time>
      </trkpt>
      <trkpt lat="42.69682" lon="0.81306">
        <ele>1023.2</ele>
        <time>2022-05-22 22:10:44</time>
      </trkpt>
      <trkpt lat="42.69684" lon="0.81291">
        <ele>1022.6</ele>
        <time>2022-05-22 22:10:45</time>
      </trkpt>
      <trkpt lat="42.69686" lon="0.81276">
        <ele>1022.2</ele>
        <time>2022-05-22 22:10:46</time>
      </trkpt>
      <trkpt lat="42.69688" lon="0.81262">
        <ele>1021.8</ele>
        <time>2022-05-22 22:10:47</time>
      </trkpt>
      <trkpt lat="42.69689" lon="0.81249">
        <ele>1021.4</ele>
        <time>2022-05-22 22:10:48</time>
      </trkpt>
      <trkpt lat="42.69691" lon="0.81235">
        <ele>1021.2</ele>
        <time>2022-05-22 22:10:49</time>
      </trkpt>
      <trkpt lat="42.69693" lon="0.81221">
        <ele>1020.8</ele>
        <time>2022-05-22 22:10:50</time>
      </trkpt>
      <trkpt lat="42.69694" lon="0.81208">
        <ele>1020.4</ele>
        <time>2022-05-22 22:10:51</time>
      </trkpt>
      <trkpt lat="42.69696" lon="0.81194">
        <ele>1020.2</ele>
        <time>2022-05-22 22:10:52</time>
      </trkpt>
      <trkpt lat="42.69698" lon="0.8118">
        <ele>1019.8</ele>
        <time>2022-05-22 22:10:53</time>
      </trkpt>
      <trkpt lat="42.69699" lon="0.81167">
        <ele>1019.6</ele>
        <time>2022-05-22 22:10:54</time>
      </trkpt>
      <trkpt lat="42.69702" lon="0.81154">
        <ele>1019.2</ele>
        <time>2022-05-22 22:10:55</time>
      </trkpt>
      <trkpt lat="42.69704" lon="0.81141">
        <ele>1019</ele>
        <time>2022-05-22 22:10:56</time>
      </trkpt>
      <trkpt lat="42.69706" lon="0.81128">
        <ele>1018.6</ele>
        <time>2022-05-22 22:10:57</time>
      </trkpt>
      <trkpt lat="42.69707" lon="0.81116">
        <ele>1018.2</ele>
        <time>2022-05-22 22:10:58</time>
      </trkpt>
      <trkpt lat="42.69709" lon="0.81103">
        <ele>1018</ele>
        <time>2022-05-22 22:10:59</time>
      </trkpt>
      <trkpt lat="42.69711" lon="0.81091">
        <ele>1017.8</ele>
        <time>2022-05-22 22:11:00</time>
      </trkpt>
      <trkpt lat="42.69713" lon="0.81078">
        <ele>1017.6</ele>
        <time>2022-05-22 22:11:01</time>
      </trkpt>
      <trkpt lat="42.69715" lon="0.81066">
        <ele>1017.2</ele>
        <time>2022-05-22 22:11:02</time>
      </trkpt>
      <trkpt lat="42.69716" lon="0.81054">
        <ele>1017</ele>
        <time>2022-05-22 22:11:03</time>
      </trkpt>
      <trkpt lat="42.69718" lon="0.81043">
        <ele>1016.8</ele>
        <time>2022-05-22 22:11:04</time>
      </trkpt>
      <trkpt lat="42.69718" lon="0.81032">
        <ele>1016.6</ele>
        <time>2022-05-22 22:11:05</time>
      </trkpt>
      <trkpt lat="42.69717" lon="0.81021">
        <ele>1016.6</ele>
        <time>2022-05-22 22:11:06</time>
      </trkpt>
      <trkpt lat="42.69717" lon="0.8101">
        <ele>1016.4</ele>
        <time>2022-05-22 22:11:07</time>
      </trkpt>
      <trkpt lat="42.69717" lon="0.80999">
        <ele>1016.4</ele>
        <time>2022-05-22 22:11:08</time>
      </trkpt>
      <trkpt lat="42.69718" lon="0.80989">
        <ele>1016.2</ele>
        <time>2022-05-22 22:11:09</time>
      </trkpt>
      <trkpt lat="42.69718" lon="0.80978">
        <ele>1016</ele>
        <time>2022-05-22 22:11:10</time>
      </trkpt>
      <trkpt lat="42.69718" lon="0.80968">
        <ele>1015.8</ele>
        <time>2022-05-22 22:11:11</time>
      </trkpt>
      <trkpt lat="42.69717" lon="0.80957">
        <ele>1015.8</ele>
        <time>2022-05-22 22:11:12</time>
      </trkpt>
      <trkpt lat="42.69717" lon="0.80947">
        <ele>1015.6</ele>
        <time>2022-05-22 22:11:13</time>
      </trkpt>
      <trkpt lat="42.69717" lon="0.80936">
        <ele>1015.6</ele>
        <time>2022-05-22 22:11:14</time>
      </trkpt>
      <trkpt lat="42.69717" lon="0.80925">
        <ele>1015.4</ele>
        <time>2022-05-22 22:11:15</time>
      </trkpt>
      <trkpt lat="42.69717" lon="0.80915">
        <ele>1015.4</ele>
        <time>2022-05-22 22:11:16</time>
      </trkpt>
      <trkpt lat="42.69717" lon="0.80904">
        <ele>1015.2</ele>
        <time>2022-05-22 22:11:17</time>
      </trkpt>
      <trkpt lat="42.69717" lon="0.80894">
        <ele>1015.2</ele>
        <time>2022-05-22 22:11:18</time>
      </trkpt>
      <trkpt lat="42.69717" lon="0.80884">
        <ele>1015</ele>
        <time>2022-05-22 22:11:19</time>
      </trkpt>
      <trkpt lat="42.69717" lon="0.80873">
        <ele>1014.8</ele>
        <time>2022-05-22 22:11:20</time>
      </trkpt>
      <trkpt lat="42.69717" lon="0.80863">
        <ele>1014.6</ele>
        <time>2022-05-22 22:11:21</time>
      </trkpt>
      <trkpt lat="42.69717" lon="0.80852">
        <ele>1014.4</ele>
        <time>2022-05-22 22:11:22</time>
      </trkpt>
      <trkpt lat="42.69718" lon="0.80842">
        <ele>1014.2</ele>
        <time>2022-05-22 22:11:23</time>
      </trkpt>
      <trkpt lat="42.69719" lon="0.80832">
        <ele>1014</ele>
        <time>2022-05-22 22:11:24</time>
      </trkpt>
      <trkpt lat="42.6972" lon="0.80821">
        <ele>1013.8</ele>
        <time>2022-05-22 22:11:25</time>
      </trkpt>
      <trkpt lat="42.69721" lon="0.80811">
        <ele>1013.6</ele>
        <time>2022-05-22 22:11:26</time>
      </trkpt>
      <trkpt lat="42.69722" lon="0.80801">
        <ele>1013.6</ele>
        <time>2022-05-22 22:11:27</time>
      </trkpt>
      <trkpt lat="42.69723" lon="0.80791">
        <ele>1013.4</ele>
        <time>2022-05-22 22:11:28</time>
      </trkpt>
      <trkpt lat="42.69724" lon="0.80782">
        <ele>1013.4</ele>
        <time>2022-05-22 22:11:29</time>
      </trkpt>
      <trkpt lat="42.69726" lon="0.80773">
        <ele>1013.4</ele>
        <time>2022-05-22 22:11:30</time>
      </trkpt>
      <trkpt lat="42.69727" lon="0.80764">
        <ele>1013.4</ele>
        <time>2022-05-22 22:11:31</time>
      </trkpt>
      <trkpt lat="42.69729" lon="0.80755">
        <ele>1013.6</ele>
        <time>2022-05-22 22:11:32</time>
      </trkpt>
      <trkpt lat="42.6973" lon="0.80747">
        <ele>1013.6</ele>
        <time>2022-05-22 22:11:33</time>
      </trkpt>
      <trkpt lat="42.69731" lon="0.80739">
        <ele>1013.6</ele>
        <time>2022-05-22 22:11:34</time>
      </trkpt>
      <trkpt lat="42.69732" lon="0.8073">
        <ele>1013.6</ele>
        <time>2022-05-22 22:11:35</time>
      </trkpt>
      <trkpt lat="42.69733" lon="0.80723">
        <ele>1013.6</ele>
        <time>2022-05-22 22:11:36</time>
      </trkpt>
      <trkpt lat="42.69734" lon="0.80715">
        <ele>1013.8</ele>
        <time>2022-05-22 22:11:37</time>
      </trkpt>
      <trkpt lat="42.69735" lon="0.80708">
        <ele>1014</ele>
        <time>2022-05-22 22:11:38</time>
      </trkpt>
      <trkpt lat="42.69737" lon="0.80701">
        <ele>1014</ele>
        <time>2022-05-22 22:11:39</time>
      </trkpt>
      <trkpt lat="42.69738" lon="0.80694">
        <ele>1014.2</ele>
        <time>2022-05-22 22:11:40</time>
      </trkpt>
      <trkpt lat="42.69739" lon="0.80687">
        <ele>1014.2</ele>
        <time>2022-05-22 22:11:41</time>
      </trkpt>
      <trkpt lat="42.6974" lon="0.80681">
        <ele>1014</ele>
        <time>2022-05-22 22:11:42</time>
      </trkpt>
      <trkpt lat="42.6974" lon="0.80674">
        <ele>1014</ele>
        <time>2022-05-22 22:11:43</time>
      </trkpt>
      <trkpt lat="42.69741" lon="0.80668">
        <ele>1014</ele>
        <time>2022-05-22 22:11:44</time>
      </trkpt>
      <trkpt lat="42.69742" lon="0.80661">
        <ele>1014</ele>
        <time>2022-05-22 22:11:45</time>
      </trkpt>
      <trkpt lat="42.69743" lon="0.80655">
        <ele>1013.8</ele>
        <time>2022-05-22 22:11:46</time>
      </trkpt>
      <trkpt lat="42.69743" lon="0.80648">
        <ele>1013.8</ele>
        <time>2022-05-22 22:11:47</time>
      </trkpt>
      <trkpt lat="42.69744" lon="0.80641">
        <ele>1013.8</ele>
        <time>2022-05-22 22:11:48</time>
      </trkpt>
      <trkpt lat="42.69744" lon="0.80635">
        <ele>1013.8</ele>
        <time>2022-05-22 22:11:49</time>
      </trkpt>
      <trkpt lat="42.69744" lon="0.80628">
        <ele>1013.6</ele>
        <time>2022-05-22 22:11:50</time>
      </trkpt>
      <trkpt lat="42.69744" lon="0.8062">
        <ele>1013.4</ele>
        <time>2022-05-22 22:11:51</time>
      </trkpt>
      <trkpt lat="42.69745" lon="0.80613">
        <ele>1013.4</ele>
        <time>2022-05-22 22:11:52</time>
      </trkpt>
      <trkpt lat="42.69747" lon="0.80606">
        <ele>1013.2</ele>
        <time>2022-05-22 22:11:53</time>
      </trkpt>
      <trkpt lat="42.69749" lon="0.806">
        <ele>1013</ele>
        <time>2022-05-22 22:11:54</time>
      </trkpt>
      <trkpt lat="42.69751" lon="0.80592">
        <ele>1012.8</ele>
        <time>2022-05-22 22:11:55</time>
      </trkpt>
      <trkpt lat="42.69753" lon="0.80585">
        <ele>1012.6</ele>
        <time>2022-05-22 22:11:56</time>
      </trkpt>
      <trkpt lat="42.69755" lon="0.80578">
        <ele>1012.2</ele>
        <time>2022-05-22 22:11:57</time>
      </trkpt>
      <trkpt lat="42.69758" lon="0.80572">
        <ele>1011.8</ele>
        <time>2022-05-22 22:11:58</time>
      </trkpt>
      <trkpt lat="42.69762" lon="0.80565">
        <ele>1011.2</ele>
        <time>2022-05-22 22:11:59</time>
      </trkpt>
      <trkpt lat="42.69766" lon="0.80558">
        <ele>1010.8</ele>
        <time>2022-05-22 22:12:00</time>
      </trkpt>
      <trkpt lat="42.69771" lon="0.8055">
        <ele>1010.2</ele>
        <time>2022-05-22 22:12:01</time>
      </trkpt>
      <trkpt lat="42.69777" lon="0.80543">
        <ele>1009.6</ele>
        <time>2022-05-22 22:12:02</time>
      </trkpt>
      <trkpt lat="42.69783" lon="0.80535">
        <ele>1009</ele>
        <time>2022-05-22 22:12:03</time>
      </trkpt>
      <trkpt lat="42.69789" lon="0.80526">
        <ele>1008.2</ele>
        <time>2022-05-22 22:12:04</time>
      </trkpt>
      <trkpt lat="42.69796" lon="0.80517">
        <ele>1007.2</ele>
        <time>2022-05-22 22:12:05</time>
      </trkpt>
      <trkpt lat="42.69802" lon="0.80509">
        <ele>1006.4</ele>
        <time>2022-05-22 22:12:06</time>
      </trkpt>
      <trkpt lat="42.69808" lon="0.80499">
        <ele>1005.4</ele>
        <time>2022-05-22 22:12:07</time>
      </trkpt>
      <trkpt lat="42.69815" lon="0.8049">
        <ele>1004.4</ele>
        <time>2022-05-22 22:12:08</time>
      </trkpt>
      <trkpt lat="42.69821" lon="0.80479">
        <ele>1003.4</ele>
        <time>2022-05-22 22:12:09</time>
      </trkpt>
      <trkpt lat="42.69829" lon="0.80468">
        <ele>1002.6</ele>
        <time>2022-05-22 22:12:10</time>
      </trkpt>
      <trkpt lat="42.69837" lon="0.80456">
        <ele>1001.8</ele>
        <time>2022-05-22 22:12:11</time>
      </trkpt>
      <trkpt lat="42.69844" lon="0.80444">
        <ele>1000.8</ele>
        <time>2022-05-22 22:12:12</time>
      </trkpt>
      <trkpt lat="42.69852" lon="0.80431">
        <ele>1000</ele>
        <time>2022-05-22 22:12:13</time>
      </trkpt>
      <trkpt lat="42.69859" lon="0.80419">
        <ele>999</ele>
        <time>2022-05-22 22:12:14</time>
      </trkpt>
      <trkpt lat="42.69865" lon="0.80405">
        <ele>998</ele>
        <time>2022-05-22 22:12:15</time>
      </trkpt>
      <trkpt lat="42.6987" lon="0.80391">
        <ele>997</ele>
        <time>2022-05-22 22:12:16</time>
      </trkpt>
      <trkpt lat="42.69874" lon="0.80375">
        <ele>995.8</ele>
        <time>2022-05-22 22:12:17</time>
      </trkpt>
      <trkpt lat="42.69879" lon="0.80358">
        <ele>995</ele>
        <time>2022-05-22 22:12:18</time>
      </trkpt>
      <trkpt lat="42.69883" lon="0.8034">
        <ele>994</ele>
        <time>2022-05-22 22:12:19</time>
      </trkpt>
      <trkpt lat="42.69887" lon="0.80323">
        <ele>992.8</ele>
        <time>2022-05-22 22:12:20</time>
      </trkpt>
      <trkpt lat="42.69891" lon="0.80306">
        <ele>991.8</ele>
        <time>2022-05-22 22:12:21</time>
      </trkpt>
      <trkpt lat="42.69895" lon="0.8029">
        <ele>991.2</ele>
        <time>2022-05-22 22:12:22</time>
      </trkpt>
      <trkpt lat="42.69898" lon="0.80276">
        <ele>990.6</ele>
        <time>2022-05-22 22:12:23</time>
      </trkpt>
      <trkpt lat="42.69901" lon="0.80262">
        <ele>990</ele>
        <time>2022-05-22 22:12:24</time>
      </trkpt>
      <trkpt lat="42.69903" lon="0.80249">
        <ele>989.2</ele>
        <time>2022-05-22 22:12:25</time>
      </trkpt>
      <trkpt lat="42.69905" lon="0.80236">
        <ele>988.6</ele>
        <time>2022-05-22 22:12:26</time>
      </trkpt>
      <trkpt lat="42.69907" lon="0.80223">
        <ele>987.8</ele>
        <time>2022-05-22 22:12:27</time>
      </trkpt>
      <trkpt lat="42.69908" lon="0.8021">
        <ele>987.2</ele>
        <time>2022-05-22 22:12:28</time>
      </trkpt>
      <trkpt lat="42.69909" lon="0.80196">
        <ele>986.4</ele>
        <time>2022-05-22 22:12:29</time>
      </trkpt>
      <trkpt lat="42.69911" lon="0.80183">
        <ele>985.8</ele>
        <time>2022-05-22 22:12:30</time>
      </trkpt>
      <trkpt lat="42.69913" lon="0.8017">
        <ele>985</ele>
        <time>2022-05-22 22:12:31</time>
      </trkpt>
      <trkpt lat="42.69915" lon="0.80156">
        <ele>984.2</ele>
        <time>2022-05-22 22:12:32</time>
      </trkpt>
      <trkpt lat="42.69918" lon="0.80141">
        <ele>983.6</ele>
        <time>2022-05-22 22:12:33</time>
      </trkpt>
      <trkpt lat="42.69921" lon="0.80127">
        <ele>983</ele>
        <time>2022-05-22 22:12:34</time>
      </trkpt>
      <trkpt lat="42.69925" lon="0.80117">
        <ele>982.6</ele>
        <time>2022-05-22 22:12:35</time>
      </trkpt>
      <trkpt lat="42.69929" lon="0.80107">
        <ele>982.2</ele>
        <time>2022-05-22 22:12:36</time>
      </trkpt>
      <trkpt lat="42.69932" lon="0.80098">
        <ele>982</ele>
        <time>2022-05-22 22:12:37</time>
      </trkpt>
      <trkpt lat="42.69936" lon="0.80089">
        <ele>981.8</ele>
        <time>2022-05-22 22:12:38</time>
      </trkpt>
      <trkpt lat="42.69939" lon="0.80081">
        <ele>981.6</ele>
        <time>2022-05-22 22:12:39</time>
      </trkpt>
      <trkpt lat="42.69942" lon="0.80073">
        <ele>981.6</ele>
        <time>2022-05-22 22:12:40</time>
      </trkpt>
      <trkpt lat="42.69945" lon="0.80068">
        <ele>981.6</ele>
        <time>2022-05-22 22:12:41</time>
      </trkpt>
      <trkpt lat="42.69948" lon="0.80065">
        <ele>981.6</ele>
        <time>2022-05-22 22:12:42</time>
      </trkpt>
      <trkpt lat="42.69951" lon="0.80064">
        <ele>981.6</ele>
        <time>2022-05-22 22:12:43</time>
      </trkpt>
      <trkpt lat="42.69952" lon="0.80066">
        <ele>981.6</ele>
        <time>2022-05-22 22:12:44</time>
      </trkpt>
      <trkpt lat="42.69955" lon="0.8007">
        <ele>981.8</ele>
        <time>2022-05-22 22:12:45</time>
      </trkpt>
      <trkpt lat="42.69956" lon="0.80073">
        <ele>981.8</ele>
        <time>2022-05-22 22:12:46</time>
      </trkpt>
      <trkpt lat="42.69957" lon="0.80076">
        <ele>981.8</ele>
        <time>2022-05-22 22:12:47</time>
      </trkpt>
      <trkpt lat="42.69958" lon="0.80079">
        <ele>981.8</ele>
        <time>2022-05-22 22:12:48</time>
      </trkpt>
      <trkpt lat="42.6995" lon="0.80067">
        <ele>981.6</ele>
        <time>2022-05-22 22:59:33</time>
      </trkpt>
      <trkpt lat="42.6995" lon="0.80064">
        <ele>981.6</ele>
        <time>2022-05-22 22:59:34</time>
      </trkpt>
      <trkpt lat="42.6995" lon="0.80062">
        <ele>981.6</ele>
        <time>2022-05-22 22:59:35</time>
      </trkpt>
      <trkpt lat="42.69951" lon="0.80059">
        <ele>981.6</ele>
        <time>2022-05-22 22:59:36</time>
      </trkpt>
      <trkpt lat="42.69952" lon="0.80057">
        <ele>981.6</ele>
        <time>2022-05-22 22:59:37</time>
      </trkpt>
      <trkpt lat="42.69953" lon="0.80054">
        <ele>981.6</ele>
        <time>2022-05-22 22:59:38</time>
      </trkpt>
      <trkpt lat="42.69954" lon="0.80051">
        <ele>981.8</ele>
        <time>2022-05-22 22:59:39</time>
      </trkpt>
      <trkpt lat="42.69955" lon="0.80048">
        <ele>981.8</ele>
        <time>2022-05-22 22:59:40</time>
      </trkpt>
      <trkpt lat="42.69956" lon="0.80045">
        <ele>981.6</ele>
        <time>2022-05-22 22:59:41</time>
      </trkpt>
      <trkpt lat="42.69958" lon="0.80042">
        <ele>981.6</ele>
        <time>2022-05-22 22:59:42</time>
      </trkpt>
      <trkpt lat="42.69959" lon="0.80039">
        <ele>981.4</ele>
        <time>2022-05-22 22:59:43</time>
      </trkpt>
      <trkpt lat="42.6996" lon="0.80035">
        <ele>981.4</ele>
        <time>2022-05-22 22:59:44</time>
      </trkpt>
      <trkpt lat="42.69962" lon="0.80031">
        <ele>981.2</ele>
        <time>2022-05-22 22:59:45</time>
      </trkpt>
      <trkpt lat="42.69964" lon="0.80026">
        <ele>981.2</ele>
        <time>2022-05-22 22:59:46</time>
      </trkpt>
      <trkpt lat="42.69966" lon="0.80021">
        <ele>981.2</ele>
        <time>2022-05-22 22:59:47</time>
      </trkpt>
      <trkpt lat="42.69967" lon="0.80017">
        <ele>981</ele>
        <time>2022-05-22 22:59:48</time>
      </trkpt>
      <trkpt lat="42.69969" lon="0.80013">
        <ele>981</ele>
        <time>2022-05-22 22:59:49</time>
      </trkpt>
      <trkpt lat="42.69972" lon="0.80009">
        <ele>981</ele>
        <time>2022-05-22 22:59:50</time>
      </trkpt>
      <trkpt lat="42.69974" lon="0.80005">
        <ele>981</ele>
        <time>2022-05-22 22:59:51</time>
      </trkpt>
      <trkpt lat="42.69976" lon="0.80001">
        <ele>980.8</ele>
        <time>2022-05-22 22:59:52</time>
      </trkpt>
      <trkpt lat="42.69978" lon="0.79996">
        <ele>980.8</ele>
        <time>2022-05-22 22:59:53</time>
      </trkpt>
      <trkpt lat="42.69979" lon="0.79991">
        <ele>980.8</ele>
        <time>2022-05-22 22:59:54</time>
      </trkpt>
      <trkpt lat="42.69981" lon="0.79986">
        <ele>980.6</ele>
        <time>2022-05-22 22:59:55</time>
      </trkpt>
      <trkpt lat="42.69984" lon="0.79981">
        <ele>980.4</ele>
        <time>2022-05-22 22:59:56</time>
      </trkpt>
      <trkpt lat="42.69985" lon="0.79977">
        <ele>980.4</ele>
        <time>2022-05-22 22:59:57</time>
      </trkpt>
      <trkpt lat="42.69987" lon="0.79971">
        <ele>980.2</ele>
        <time>2022-05-22 22:59:58</time>
      </trkpt>
      <trkpt lat="42.69989" lon="0.79967">
        <ele>980.2</ele>
        <time>2022-05-22 22:59:59</time>
      </trkpt>
      <trkpt lat="42.69991" lon="0.79962">
        <ele>980</ele>
        <time>2022-05-22 23:00:00</time>
      </trkpt>
      <trkpt lat="42.69993" lon="0.79957">
        <ele>980</ele>
        <time>2022-05-22 23:00:01</time>
      </trkpt>
      <trkpt lat="42.69995" lon="0.79952">
        <ele>980</ele>
        <time>2022-05-22 23:00:02</time>
      </trkpt>
      <trkpt lat="42.69997" lon="0.79947">
        <ele>980</ele>
        <time>2022-05-22 23:00:03</time>
      </trkpt>
      <trkpt lat="42.69999" lon="0.79943">
        <ele>979.8</ele>
        <time>2022-05-22 23:00:04</time>
      </trkpt>
      <trkpt lat="42.70001" lon="0.79938">
        <ele>979.8</ele>
        <time>2022-05-22 23:00:05</time>
      </trkpt>
      <trkpt lat="42.70003" lon="0.79934">
        <ele>979.8</ele>
        <time>2022-05-22 23:00:06</time>
      </trkpt>
      <trkpt lat="42.70005" lon="0.79929">
        <ele>979.8</ele>
        <time>2022-05-22 23:00:07</time>
      </trkpt>
      <trkpt lat="42.70007" lon="0.79925">
        <ele>979.6</ele>
        <time>2022-05-22 23:00:08</time>
      </trkpt>
      <trkpt lat="42.70009" lon="0.7992">
        <ele>979.6</ele>
        <time>2022-05-22 23:00:09</time>
      </trkpt>
      <trkpt lat="42.70011" lon="0.79916">
        <ele>979.6</ele>
        <time>2022-05-22 23:00:10</time>
      </trkpt>
      <trkpt lat="42.70013" lon="0.79911">
        <ele>979.6</ele>
        <time>2022-05-22 23:00:11</time>
      </trkpt>
      <trkpt lat="42.70015" lon="0.79907">
        <ele>979.6</ele>
        <time>2022-05-22 23:00:12</time>
      </trkpt>
      <trkpt lat="42.70017" lon="0.79903">
        <ele>979.8</ele>
        <time>2022-05-22 23:00:13</time>
      </trkpt>
      <trkpt lat="42.70019" lon="0.79898">
        <ele>979.8</ele>
        <time>2022-05-22 23:00:14</time>
      </trkpt>
      <trkpt lat="42.7002" lon="0.79893">
        <ele>979.8</ele>
        <time>2022-05-22 23:00:15</time>
      </trkpt>
      <trkpt lat="42.70022" lon="0.79889">
        <ele>979.8</ele>
        <time>2022-05-22 23:00:16</time>
      </trkpt>
      <trkpt lat="42.70023" lon="0.79885">
        <ele>979.8</ele>
        <time>2022-05-22 23:00:17</time>
      </trkpt>
      <trkpt lat="42.70025" lon="0.7988">
        <ele>979.8</ele>
        <time>2022-05-22 23:00:18</time>
      </trkpt>
      <trkpt lat="42.70026" lon="0.79875">
        <ele>979.8</ele>
        <time>2022-05-22 23:00:19</time>
      </trkpt>
      <trkpt lat="42.70028" lon="0.7987">
        <ele>979.8</ele>
        <time>2022-05-22 23:00:20</time>
      </trkpt>
      <trkpt lat="42.7003" lon="0.79866">
        <ele>979.8</ele>
        <time>2022-05-22 23:00:21</time>
      </trkpt>
      <trkpt lat="42.70031" lon="0.79862">
        <ele>980</ele>
        <time>2022-05-22 23:00:22</time>
      </trkpt>
      <trkpt lat="42.70032" lon="0.79858">
        <ele>980</ele>
        <time>2022-05-22 23:00:23</time>
      </trkpt>
      <trkpt lat="42.70034" lon="0.79854">
        <ele>980</ele>
        <time>2022-05-22 23:00:24</time>
      </trkpt>
      <trkpt lat="42.70036" lon="0.7985">
        <ele>980</ele>
        <time>2022-05-22 23:00:25</time>
      </trkpt>
      <trkpt lat="42.70038" lon="0.79845">
        <ele>980</ele>
        <time>2022-05-22 23:00:26</time>
      </trkpt>
      <trkpt lat="42.70041" lon="0.79841">
        <ele>980</ele>
        <time>2022-05-22 23:00:27</time>
      </trkpt>
      <trkpt lat="42.70043" lon="0.79835">
        <ele>980</ele>
        <time>2022-05-22 23:00:28</time>
      </trkpt>
      <trkpt lat="42.70046" lon="0.79829">
        <ele>980</ele>
        <time>2022-05-22 23:00:29</time>
      </trkpt>
      <trkpt lat="42.70048" lon="0.79824">
        <ele>980</ele>
        <time>2022-05-22 23:00:30</time>
      </trkpt>
      <trkpt lat="42.7005" lon="0.79818">
        <ele>980.2</ele>
        <time>2022-05-22 23:00:31</time>
      </trkpt>
      <trkpt lat="42.70053" lon="0.79812">
        <ele>980.2</ele>
        <time>2022-05-22 23:00:32</time>
      </trkpt>
      <trkpt lat="42.70055" lon="0.79807">
        <ele>980.2</ele>
        <time>2022-05-22 23:00:33</time>
      </trkpt>
      <trkpt lat="42.70057" lon="0.79802">
        <ele>980.2</ele>
        <time>2022-05-22 23:00:34</time>
      </trkpt>
      <trkpt lat="42.7006" lon="0.79797">
        <ele>980.2</ele>
        <time>2022-05-22 23:00:35</time>
      </trkpt>
      <trkpt lat="42.70062" lon="0.79792">
        <ele>980.4</ele>
        <time>2022-05-22 23:00:36</time>
      </trkpt>
      <trkpt lat="42.70064" lon="0.79787">
        <ele>980.4</ele>
        <time>2022-05-22 23:00:37</time>
      </trkpt>
      <trkpt lat="42.70067" lon="0.79783">
        <ele>980.4</ele>
        <time>2022-05-22 23:00:38</time>
      </trkpt>
      <trkpt lat="42.70069" lon="0.79778">
        <ele>980.4</ele>
        <time>2022-05-22 23:00:39</time>
      </trkpt>
      <trkpt lat="42.70071" lon="0.79773">
        <ele>980.4</ele>
        <time>2022-05-22 23:00:40</time>
      </trkpt>
      <trkpt lat="42.70073" lon="0.79769">
        <ele>980.4</ele>
        <time>2022-05-22 23:00:41</time>
      </trkpt>
      <trkpt lat="42.70075" lon="0.79764">
        <ele>980.6</ele>
        <time>2022-05-22 23:00:42</time>
      </trkpt>
      <trkpt lat="42.70077" lon="0.7976">
        <ele>980.6</ele>
        <time>2022-05-22 23:00:43</time>
      </trkpt>
      <trkpt lat="42.70079" lon="0.79755">
        <ele>980.6</ele>
        <time>2022-05-22 23:00:44</time>
      </trkpt>
      <trkpt lat="42.70081" lon="0.7975">
        <ele>980.8</ele>
        <time>2022-05-22 23:00:45</time>
      </trkpt>
      <trkpt lat="42.70083" lon="0.79746">
        <ele>980.8</ele>
        <time>2022-05-22 23:00:46</time>
      </trkpt>
      <trkpt lat="42.70085" lon="0.7974">
        <ele>980.8</ele>
        <time>2022-05-22 23:00:47</time>
      </trkpt>
      <trkpt lat="42.70087" lon="0.79736">
        <ele>981</ele>
        <time>2022-05-22 23:00:48</time>
      </trkpt>
      <trkpt lat="42.70089" lon="0.79731">
        <ele>981</ele>
        <time>2022-05-22 23:00:49</time>
      </trkpt>
      <trkpt lat="42.70091" lon="0.79727">
        <ele>981</ele>
        <time>2022-05-22 23:00:50</time>
      </trkpt>
      <trkpt lat="42.70092" lon="0.79722">
        <ele>981.2</ele>
        <time>2022-05-22 23:00:51</time>
      </trkpt>
      <trkpt lat="42.70094" lon="0.79718">
        <ele>981.4</ele>
        <time>2022-05-22 23:00:52</time>
      </trkpt>
      <trkpt lat="42.70096" lon="0.79714">
        <ele>981.4</ele>
        <time>2022-05-22 23:00:53</time>
      </trkpt>
      <trkpt lat="42.70098" lon="0.7971">
        <ele>981.6</ele>
        <time>2022-05-22 23:00:54</time>
      </trkpt>
      <trkpt lat="42.701" lon="0.79706">
        <ele>981.6</ele>
        <time>2022-05-22 23:00:55</time>
      </trkpt>
      <trkpt lat="42.70102" lon="0.79702">
        <ele>981.8</ele>
        <time>2022-05-22 23:00:56</time>
      </trkpt>
      <trkpt lat="42.70104" lon="0.79698">
        <ele>981.8</ele>
        <time>2022-05-22 23:00:57</time>
      </trkpt>
      <trkpt lat="42.70107" lon="0.79694">
        <ele>981.8</ele>
        <time>2022-05-22 23:00:58</time>
      </trkpt>
      <trkpt lat="42.7011" lon="0.7969">
        <ele>981.8</ele>
        <time>2022-05-22 23:00:59</time>
      </trkpt>
      <trkpt lat="42.70112" lon="0.79686">
        <ele>981.8</ele>
        <time>2022-05-22 23:01:00</time>
      </trkpt>
      <trkpt lat="42.70115" lon="0.79682">
        <ele>981.8</ele>
        <time>2022-05-22 23:01:01</time>
      </trkpt>
      <trkpt lat="42.70117" lon="0.79677">
        <ele>981.8</ele>
        <time>2022-05-22 23:01:02</time>
      </trkpt>
      <trkpt lat="42.70119" lon="0.79674">
        <ele>981.8</ele>
        <time>2022-05-22 23:01:03</time>
      </trkpt>
      <trkpt lat="42.70122" lon="0.7967">
        <ele>982</ele>
        <time>2022-05-22 23:01:04</time>
      </trkpt>
      <trkpt lat="42.70125" lon="0.79666">
        <ele>982</ele>
        <time>2022-05-22 23:01:05</time>
      </trkpt>
      <trkpt lat="42.70128" lon="0.79663">
        <ele>982</ele>
        <time>2022-05-22 23:01:06</time>
      </trkpt>
      <trkpt lat="42.70132" lon="0.79659">
        <ele>982</ele>
        <time>2022-05-22 23:01:07</time>
      </trkpt>
      <trkpt lat="42.70135" lon="0.79655">
        <ele>982</ele>
        <time>2022-05-22 23:01:08</time>
      </trkpt>
      <trkpt lat="42.70138" lon="0.79651">
        <ele>982</ele>
        <time>2022-05-22 23:01:09</time>
      </trkpt>
      <trkpt lat="42.70141" lon="0.79648">
        <ele>982</ele>
        <time>2022-05-22 23:01:10</time>
      </trkpt>
      <trkpt lat="42.70144" lon="0.79644">
        <ele>982</ele>
        <time>2022-05-22 23:01:11</time>
      </trkpt>
      <trkpt lat="42.70147" lon="0.79641">
        <ele>981.8</ele>
        <time>2022-05-22 23:01:12</time>
      </trkpt>
      <trkpt lat="42.7015" lon="0.79638">
        <ele>981.8</ele>
        <time>2022-05-22 23:01:13</time>
      </trkpt>
      <trkpt lat="42.70153" lon="0.79634">
        <ele>981.8</ele>
        <time>2022-05-22 23:01:14</time>
      </trkpt>
      <trkpt lat="42.70155" lon="0.7963">
        <ele>981.8</ele>
        <time>2022-05-22 23:01:15</time>
      </trkpt>
      <trkpt lat="42.70158" lon="0.79626">
        <ele>981.8</ele>
        <time>2022-05-22 23:01:16</time>
      </trkpt>
      <trkpt lat="42.7016" lon="0.79622">
        <ele>981.6</ele>
        <time>2022-05-22 23:01:17</time>
      </trkpt>
      <trkpt lat="42.70163" lon="0.79618">
        <ele>981.6</ele>
        <time>2022-05-22 23:01:18</time>
      </trkpt>
      <trkpt lat="42.70166" lon="0.79614">
        <ele>981.6</ele>
        <time>2022-05-22 23:01:19</time>
      </trkpt>
      <trkpt lat="42.70169" lon="0.7961">
        <ele>981.4</ele>
        <time>2022-05-22 23:01:20</time>
      </trkpt>
      <trkpt lat="42.70171" lon="0.79606">
        <ele>981.2</ele>
        <time>2022-05-22 23:01:21</time>
      </trkpt>
      <trkpt lat="42.70173" lon="0.79601">
        <ele>981.2</ele>
        <time>2022-05-22 23:01:22</time>
      </trkpt>
      <trkpt lat="42.70175" lon="0.79596">
        <ele>981</ele>
        <time>2022-05-22 23:01:23</time>
      </trkpt>
      <trkpt lat="42.70178" lon="0.79591">
        <ele>980.8</ele>
        <time>2022-05-22 23:01:24</time>
      </trkpt>
      <trkpt lat="42.70181" lon="0.79586">
        <ele>980.6</ele>
        <time>2022-05-22 23:01:25</time>
      </trkpt>
      <trkpt lat="42.70183" lon="0.79581">
        <ele>980.4</ele>
        <time>2022-05-22 23:01:26</time>
      </trkpt>
      <trkpt lat="42.70186" lon="0.79576">
        <ele>980.4</ele>
        <time>2022-05-22 23:01:27</time>
      </trkpt>
      <trkpt lat="42.70189" lon="0.79571">
        <ele>980.2</ele>
        <time>2022-05-22 23:01:28</time>
      </trkpt>
      <trkpt lat="42.70193" lon="0.79566">
        <ele>980</ele>
        <time>2022-05-22 23:01:29</time>
      </trkpt>
      <trkpt lat="42.70196" lon="0.79561">
        <ele>980</ele>
        <time>2022-05-22 23:01:30</time>
      </trkpt>
      <trkpt lat="42.70199" lon="0.79556">
        <ele>979.8</ele>
        <time>2022-05-22 23:01:31</time>
      </trkpt>
      <trkpt lat="42.70203" lon="0.79552">
        <ele>979.8</ele>
        <time>2022-05-22 23:01:32</time>
      </trkpt>
      <trkpt lat="42.70207" lon="0.79547">
        <ele>979.6</ele>
        <time>2022-05-22 23:01:33</time>
      </trkpt>
      <trkpt lat="42.70211" lon="0.79542">
        <ele>979.2</ele>
        <time>2022-05-22 23:01:34</time>
      </trkpt>
      <trkpt lat="42.70215" lon="0.79537">
        <ele>979</ele>
        <time>2022-05-22 23:01:35</time>
      </trkpt>
      <trkpt lat="42.70219" lon="0.79531">
        <ele>979</ele>
        <time>2022-05-22 23:01:36</time>
      </trkpt>
      <trkpt lat="42.70223" lon="0.79526">
        <ele>978.8</ele>
        <time>2022-05-22 23:01:37</time>
      </trkpt>
      <trkpt lat="42.70227" lon="0.7952">
        <ele>978.6</ele>
        <time>2022-05-22 23:01:38</time>
      </trkpt>
      <trkpt lat="42.7023" lon="0.79514">
        <ele>978.4</ele>
        <time>2022-05-22 23:01:39</time>
      </trkpt>
      <trkpt lat="42.70232" lon="0.79508">
        <ele>978.4</ele>
        <time>2022-05-22 23:01:40</time>
      </trkpt>
      <trkpt lat="42.70235" lon="0.79503">
        <ele>978.4</ele>
        <time>2022-05-22 23:01:41</time>
      </trkpt>
      <trkpt lat="42.70237" lon="0.79497">
        <ele>978.4</ele>
        <time>2022-05-22 23:01:42</time>
      </trkpt>
      <trkpt lat="42.70239" lon="0.79492">
        <ele>978.4</ele>
        <time>2022-05-22 23:01:43</time>
      </trkpt>
      <trkpt lat="42.70242" lon="0.79486">
        <ele>978.4</ele>
        <time>2022-05-22 23:01:44</time>
      </trkpt>
      <trkpt lat="42.70244" lon="0.7948">
        <ele>978.4</ele>
        <time>2022-05-22 23:01:45</time>
      </trkpt>
      <trkpt lat="42.70247" lon="0.79475">
        <ele>978.4</ele>
        <time>2022-05-22 23:01:46</time>
      </trkpt>
      <trkpt lat="42.70249" lon="0.79469">
        <ele>978.4</ele>
        <time>2022-05-22 23:01:47</time>
      </trkpt>
      <trkpt lat="42.70251" lon="0.79463">
        <ele>978.4</ele>
        <time>2022-05-22 23:01:48</time>
      </trkpt>
      <trkpt lat="42.70253" lon="0.79457">
        <ele>978.6</ele>
        <time>2022-05-22 23:01:49</time>
      </trkpt>
      <trkpt lat="42.70254" lon="0.79451">
        <ele>978.6</ele>
        <time>2022-05-22 23:01:50</time>
      </trkpt>
      <trkpt lat="42.70257" lon="0.79445">
        <ele>978.8</ele>
        <time>2022-05-22 23:01:51</time>
      </trkpt>
      <trkpt lat="42.70258" lon="0.7944">
        <ele>978.8</ele>
        <time>2022-05-22 23:01:52</time>
      </trkpt>
      <trkpt lat="42.7026" lon="0.79434">
        <ele>978.8</ele>
        <time>2022-05-22 23:01:53</time>
      </trkpt>
      <trkpt lat="42.70261" lon="0.79429">
        <ele>979</ele>
        <time>2022-05-22 23:01:54</time>
      </trkpt>
      <trkpt lat="42.70263" lon="0.79424">
        <ele>979</ele>
        <time>2022-05-22 23:01:55</time>
      </trkpt>
      <trkpt lat="42.70264" lon="0.7942">
        <ele>979</ele>
        <time>2022-05-22 23:01:56</time>
      </trkpt>
      <trkpt lat="42.70265" lon="0.79416">
        <ele>979</ele>
        <time>2022-05-22 23:01:57</time>
      </trkpt>
      <trkpt lat="42.70267" lon="0.79412">
        <ele>979</ele>
        <time>2022-05-22 23:01:58</time>
      </trkpt>
      <trkpt lat="42.70269" lon="0.79408">
        <ele>979.2</ele>
        <time>2022-05-22 23:01:59</time>
      </trkpt>
      <trkpt lat="42.70271" lon="0.79404">
        <ele>979.2</ele>
        <time>2022-05-22 23:02:00</time>
      </trkpt>
      <trkpt lat="42.70273" lon="0.79399">
        <ele>979.4</ele>
        <time>2022-05-22 23:02:01</time>
      </trkpt>
      <trkpt lat="42.70274" lon="0.79395">
        <ele>979.4</ele>
        <time>2022-05-22 23:02:02</time>
      </trkpt>
      <trkpt lat="42.70276" lon="0.7939">
        <ele>979.4</ele>
        <time>2022-05-22 23:02:03</time>
      </trkpt>
      <trkpt lat="42.70277" lon="0.79386">
        <ele>979.6</ele>
        <time>2022-05-22 23:02:04</time>
      </trkpt>
      <trkpt lat="42.70279" lon="0.79383">
        <ele>979.6</ele>
        <time>2022-05-22 23:02:05</time>
      </trkpt>
      <trkpt lat="42.7028" lon="0.79379">
        <ele>979.6</ele>
        <time>2022-05-22 23:02:06</time>
      </trkpt>
      <trkpt lat="42.70281" lon="0.79375">
        <ele>979.6</ele>
        <time>2022-05-22 23:02:07</time>
      </trkpt>
      <trkpt lat="42.70282" lon="0.79371">
        <ele>979.8</ele>
        <time>2022-05-22 23:02:08</time>
      </trkpt>
      <trkpt lat="42.70284" lon="0.79368">
        <ele>979.8</ele>
        <time>2022-05-22 23:02:09</time>
      </trkpt>
      <trkpt lat="42.70286" lon="0.79364">
        <ele>980</ele>
        <time>2022-05-22 23:02:10</time>
      </trkpt>
      <trkpt lat="42.70287" lon="0.79361">
        <ele>980.2</ele>
        <time>2022-05-22 23:02:11</time>
      </trkpt>
      <trkpt lat="42.70289" lon="0.79358">
        <ele>980.2</ele>
        <time>2022-05-22 23:02:12</time>
      </trkpt>
      <trkpt lat="42.70291" lon="0.79355">
        <ele>980.4</ele>
        <time>2022-05-22 23:02:13</time>
      </trkpt>
      <trkpt lat="42.70293" lon="0.79353">
        <ele>980.6</ele>
        <time>2022-05-22 23:02:14</time>
      </trkpt>
      <trkpt lat="42.70294" lon="0.79349">
        <ele>980.8</ele>
        <time>2022-05-22 23:02:15</time>
      </trkpt>
      <trkpt lat="42.70295" lon="0.79345">
        <ele>980.8</ele>
        <time>2022-05-22 23:02:16</time>
      </trkpt>
      <trkpt lat="42.70297" lon="0.79342">
        <ele>980.8</ele>
        <time>2022-05-22 23:02:17</time>
      </trkpt>
      <trkpt lat="42.70298" lon="0.79337">
        <ele>980.8</ele>
        <time>2022-05-22 23:02:18</time>
      </trkpt>
      <trkpt lat="42.70299" lon="0.79332">
        <ele>980.8</ele>
        <time>2022-05-22 23:02:19</time>
      </trkpt>
      <trkpt lat="42.70298" lon="0.79328">
        <ele>981</ele>
        <time>2022-05-22 23:02:20</time>
      </trkpt>
      <trkpt lat="42.70297" lon="0.79325">
        <ele>981.2</ele>
        <time>2022-05-22 23:02:21</time>
      </trkpt>
      <trkpt lat="42.70295" lon="0.79323">
        <ele>981.4</ele>
        <time>2022-05-22 23:02:22</time>
      </trkpt>
      <trkpt lat="42.70293" lon="0.79321">
        <ele>981.4</ele>
        <time>2022-05-22 23:02:23</time>
      </trkpt>
      <trkpt lat="42.70291" lon="0.79319">
        <ele>981.6</ele>
        <time>2022-05-22 23:02:24</time>
      </trkpt>
      <trkpt lat="42.70289" lon="0.79318">
        <ele>981.6</ele>
        <time>2022-05-22 23:02:25</time>
      </trkpt>
      <trkpt lat="42.70287" lon="0.79317">
        <ele>981.8</ele>
        <time>2022-05-22 23:02:26</time>
      </trkpt>
      <trkpt lat="42.70284" lon="0.79316">
        <ele>981.8</ele>
        <time>2022-05-22 23:02:27</time>
      </trkpt>
      <trkpt lat="42.70282" lon="0.79316">
        <ele>981.6</ele>
        <time>2022-05-22 23:02:28</time>
      </trkpt>
      <trkpt lat="42.7028" lon="0.79316">
        <ele>981.6</ele>
        <time>2022-05-22 23:02:29</time>
      </trkpt>
      <trkpt lat="42.70277" lon="0.79315">
        <ele>981.6</ele>
        <time>2022-05-22 23:02:30</time>
      </trkpt>
      <trkpt lat="42.70275" lon="0.79314">
        <ele>981.8</ele>
        <time>2022-05-22 23:02:31</time>
      </trkpt>
      <trkpt lat="42.70272" lon="0.79312">
        <ele>981.8</ele>
        <time>2022-05-22 23:02:32</time>
      </trkpt>
      <trkpt lat="42.70269" lon="0.7931">
        <ele>981.8</ele>
        <time>2022-05-22 23:02:33</time>
      </trkpt>
      <trkpt lat="42.70266" lon="0.79309">
        <ele>981.8</ele>
        <time>2022-05-22 23:02:34</time>
      </trkpt>
      <trkpt lat="42.70263" lon="0.79306">
        <ele>981.8</ele>
        <time>2022-05-22 23:02:35</time>
      </trkpt>
      <trkpt lat="42.7026" lon="0.79305">
        <ele>981.8</ele>
        <time>2022-05-22 23:02:36</time>
      </trkpt>
      <trkpt lat="42.70257" lon="0.79304">
        <ele>982</ele>
        <time>2022-05-22 23:02:37</time>
      </trkpt>
      <trkpt lat="42.70255" lon="0.79304">
        <ele>982</ele>
        <time>2022-05-22 23:02:38</time>
      </trkpt>
      <trkpt lat="42.70252" lon="0.79303">
        <ele>982</ele>
        <time>2022-05-22 23:02:39</time>
      </trkpt>
      <trkpt lat="42.70249" lon="0.79303">
        <ele>982.2</ele>
        <time>2022-05-22 23:02:40</time>
      </trkpt>
      <trkpt lat="42.70245" lon="0.79302">
        <ele>982.2</ele>
        <time>2022-05-22 23:02:41</time>
      </trkpt>
      <trkpt lat="42.70242" lon="0.79302">
        <ele>982.4</ele>
        <time>2022-05-22 23:02:42</time>
      </trkpt>
      <trkpt lat="42.70239" lon="0.79302">
        <ele>982.6</ele>
        <time>2022-05-22 23:02:43</time>
      </trkpt>
      <trkpt lat="42.70236" lon="0.79302">
        <ele>982.6</ele>
        <time>2022-05-22 23:02:44</time>
      </trkpt>
      <trkpt lat="42.70233" lon="0.79302">
        <ele>982.8</ele>
        <time>2022-05-22 23:02:45</time>
      </trkpt>
      <trkpt lat="42.70231" lon="0.79302">
        <ele>982.8</ele>
        <time>2022-05-22 23:02:46</time>
      </trkpt>
      <trkpt lat="42.70228" lon="0.79302">
        <ele>983</ele>
        <time>2022-05-22 23:02:47</time>
      </trkpt>
      <trkpt lat="42.70225" lon="0.79303">
        <ele>983</ele>
        <time>2022-05-22 23:02:48</time>
      </trkpt>
      <trkpt lat="42.70222" lon="0.79304">
        <ele>983.2</ele>
        <time>2022-05-22 23:02:49</time>
      </trkpt>
      <trkpt lat="42.70219" lon="0.79305">
        <ele>983.2</ele>
        <time>2022-05-22 23:02:50</time>
      </trkpt>
      <trkpt lat="42.70217" lon="0.79306">
        <ele>983.4</ele>
        <time>2022-05-22 23:02:51</time>
      </trkpt>
      <trkpt lat="42.70214" lon="0.79307">
        <ele>983.6</ele>
        <time>2022-05-22 23:02:52</time>
      </trkpt>
      <trkpt lat="42.70211" lon="0.79308">
        <ele>983.6</ele>
        <time>2022-05-22 23:02:53</time>
      </trkpt>
      <trkpt lat="42.70209" lon="0.79309">
        <ele>983.8</ele>
        <time>2022-05-22 23:02:54</time>
      </trkpt>
      <trkpt lat="42.70206" lon="0.7931">
        <ele>984</ele>
        <time>2022-05-22 23:02:55</time>
      </trkpt>
      <trkpt lat="42.70204" lon="0.7931">
        <ele>984.2</ele>
        <time>2022-05-22 23:02:56</time>
      </trkpt>
      <trkpt lat="42.70201" lon="0.79311">
        <ele>984.4</ele>
        <time>2022-05-22 23:02:57</time>
      </trkpt>
      <trkpt lat="42.70199" lon="0.79312">
        <ele>984.6</ele>
        <time>2022-05-22 23:02:58</time>
      </trkpt>
      <trkpt lat="42.70196" lon="0.79313">
        <ele>984.6</ele>
        <time>2022-05-22 23:02:59</time>
      </trkpt>
      <trkpt lat="42.70195" lon="0.79314">
        <ele>984.8</ele>
        <time>2022-05-22 23:03:00</time>
      </trkpt>
      <trkpt lat="42.70193" lon="0.79315">
        <ele>985</ele>
        <time>2022-05-22 23:03:01</time>
      </trkpt>
      <trkpt lat="42.70192" lon="0.79316">
        <ele>985.2</ele>
        <time>2022-05-22 23:03:02</time>
      </trkpt>
      <trkpt lat="42.7019" lon="0.79317">
        <ele>985.4</ele>
        <time>2022-05-22 23:03:03</time>
      </trkpt>
      <trkpt lat="42.70188" lon="0.79318">
        <ele>985.6</ele>
        <time>2022-05-22 23:03:04</time>
      </trkpt>
      <trkpt lat="42.70186" lon="0.79319">
        <ele>985.6</ele>
        <time>2022-05-22 23:03:05</time>
      </trkpt>
      <trkpt lat="42.70184" lon="0.7932">
        <ele>985.8</ele>
        <time>2022-05-22 23:03:06</time>
      </trkpt>
      <trkpt lat="42.70182" lon="0.79321">
        <ele>986</ele>
        <time>2022-05-22 23:03:07</time>
      </trkpt>
      <trkpt lat="42.7018" lon="0.79321">
        <ele>986.2</ele>
        <time>2022-05-22 23:03:08</time>
      </trkpt>
      <trkpt lat="42.70178" lon="0.79321">
        <ele>986.2</ele>
        <time>2022-05-22 23:03:09</time>
      </trkpt>
      <trkpt lat="42.70176" lon="0.79321">
        <ele>986.4</ele>
        <time>2022-05-22 23:03:10</time>
      </trkpt>
      <trkpt lat="42.70173" lon="0.79321">
        <ele>986.6</ele>
        <time>2022-05-22 23:03:11</time>
      </trkpt>
      <trkpt lat="42.70172" lon="0.79321">
        <ele>986.6</ele>
        <time>2022-05-22 23:03:12</time>
      </trkpt>
      <trkpt lat="42.7017" lon="0.79321">
        <ele>986.8</ele>
        <time>2022-05-22 23:03:13</time>
      </trkpt>
      <trkpt lat="42.70168" lon="0.79321">
        <ele>986.8</ele>
        <time>2022-05-22 23:03:14</time>
      </trkpt>
      <trkpt lat="42.70166" lon="0.7932">
        <ele>987</ele>
        <time>2022-05-22 23:03:15</time>
      </trkpt>
      <trkpt lat="42.70164" lon="0.7932">
        <ele>987.2</ele>
        <time>2022-05-22 23:03:16</time>
      </trkpt>
      <trkpt lat="42.70162" lon="0.79319">
        <ele>987.4</ele>
        <time>2022-05-22 23:03:17</time>
      </trkpt>
      <trkpt lat="42.7016" lon="0.79318">
        <ele>987.6</ele>
        <time>2022-05-22 23:03:18</time>
      </trkpt>
      <trkpt lat="42.70158" lon="0.79317">
        <ele>987.8</ele>
        <time>2022-05-22 23:03:19</time>
      </trkpt>
      <trkpt lat="42.70156" lon="0.79316">
        <ele>988</ele>
        <time>2022-05-22 23:03:20</time>
      </trkpt>
      <trkpt lat="42.70155" lon="0.79315">
        <ele>988.2</ele>
        <time>2022-05-22 23:03:21</time>
      </trkpt>
      <trkpt lat="42.70154" lon="0.79313">
        <ele>988.4</ele>
        <time>2022-05-22 23:03:22</time>
      </trkpt>
      <trkpt lat="42.70152" lon="0.79311">
        <ele>988.6</ele>
        <time>2022-05-22 23:03:23</time>
      </trkpt>
      <trkpt lat="42.70151" lon="0.79309">
        <ele>988.8</ele>
        <time>2022-05-22 23:03:24</time>
      </trkpt>
      <trkpt lat="42.7015" lon="0.79307">
        <ele>989</ele>
        <time>2022-05-22 23:03:25</time>
      </trkpt>
      <trkpt lat="42.70149" lon="0.79305">
        <ele>989.2</ele>
        <time>2022-05-22 23:03:26</time>
      </trkpt>
      <trkpt lat="42.70149" lon="0.79302">
        <ele>989.4</ele>
        <time>2022-05-22 23:03:27</time>
      </trkpt>
      <trkpt lat="42.70148" lon="0.793">
        <ele>989.4</ele>
        <time>2022-05-22 23:03:28</time>
      </trkpt>
      <trkpt lat="42.70148" lon="0.79297">
        <ele>989.6</ele>
        <time>2022-05-22 23:03:29</time>
      </trkpt>
      <trkpt lat="42.70148" lon="0.79294">
        <ele>989.8</ele>
        <time>2022-05-22 23:03:30</time>
      </trkpt>
      <trkpt lat="42.70148" lon="0.79291">
        <ele>990</ele>
        <time>2022-05-22 23:03:31</time>
      </trkpt>
      <trkpt lat="42.70148" lon="0.79289">
        <ele>990.2</ele>
        <time>2022-05-22 23:03:32</time>
      </trkpt>
      <trkpt lat="42.70149" lon="0.79287">
        <ele>990.2</ele>
        <time>2022-05-22 23:03:33</time>
      </trkpt>
      <trkpt lat="42.7015" lon="0.79284">
        <ele>990.4</ele>
        <time>2022-05-22 23:03:34</time>
      </trkpt>
      <trkpt lat="42.70151" lon="0.79282">
        <ele>990.6</ele>
        <time>2022-05-22 23:03:35</time>
      </trkpt>
      <trkpt lat="42.70152" lon="0.7928">
        <ele>990.8</ele>
        <time>2022-05-22 23:03:36</time>
      </trkpt>
      <trkpt lat="42.70152" lon="0.79278">
        <ele>990.8</ele>
        <time>2022-05-22 23:03:37</time>
      </trkpt>
      <trkpt lat="42.70154" lon="0.79276">
        <ele>991</ele>
        <time>2022-05-22 23:03:38</time>
      </trkpt>
      <trkpt lat="42.70155" lon="0.79274">
        <ele>991.2</ele>
        <time>2022-05-22 23:03:39</time>
      </trkpt>
      <trkpt lat="42.70156" lon="0.79272">
        <ele>991.2</ele>
        <time>2022-05-22 23:03:40</time>
      </trkpt>
      <trkpt lat="42.70156" lon="0.79269">
        <ele>991.4</ele>
        <time>2022-05-22 23:03:41</time>
      </trkpt>
      <trkpt lat="42.70157" lon="0.79267">
        <ele>991.6</ele>
        <time>2022-05-22 23:03:42</time>
      </trkpt>
      <trkpt lat="42.70158" lon="0.79266">
        <ele>991.6</ele>
        <time>2022-05-22 23:03:43</time>
      </trkpt>
      <trkpt lat="42.70159" lon="0.79264">
        <ele>991.8</ele>
        <time>2022-05-22 23:03:44</time>
      </trkpt>
      <trkpt lat="42.70159" lon="0.79262">
        <ele>992</ele>
        <time>2022-05-22 23:03:45</time>
      </trkpt>
      <trkpt lat="42.7016" lon="0.7926">
        <ele>992.2</ele>
        <time>2022-05-22 23:03:46</time>
      </trkpt>
      <trkpt lat="42.70161" lon="0.79259">
        <ele>992.2</ele>
        <time>2022-05-22 23:03:47</time>
      </trkpt>
      <trkpt lat="42.70162" lon="0.79257">
        <ele>992.4</ele>
        <time>2022-05-22 23:03:48</time>
      </trkpt>
      <trkpt lat="42.70163" lon="0.79255">
        <ele>992.6</ele>
        <time>2022-05-22 23:03:49</time>
      </trkpt>
      <trkpt lat="42.70164" lon="0.79254">
        <ele>992.6</ele>
        <time>2022-05-22 23:03:50</time>
      </trkpt>
      <trkpt lat="42.70165" lon="0.79252">
        <ele>992.8</ele>
        <time>2022-05-22 23:03:51</time>
      </trkpt>
      <trkpt lat="42.70166" lon="0.7925">
        <ele>992.8</ele>
        <time>2022-05-22 23:03:52</time>
      </trkpt>
      <trkpt lat="42.70167" lon="0.79248">
        <ele>993</ele>
        <time>2022-05-22 23:03:53</time>
      </trkpt>
      <trkpt lat="42.70168" lon="0.79247">
        <ele>993</ele>
        <time>2022-05-22 23:03:54</time>
      </trkpt>
      <trkpt lat="42.70169" lon="0.79245">
        <ele>993.2</ele>
        <time>2022-05-22 23:03:55</time>
      </trkpt>
      <trkpt lat="42.7017" lon="0.79244">
        <ele>993.2</ele>
        <time>2022-05-22 23:03:56</time>
      </trkpt>
      <trkpt lat="42.70171" lon="0.79242">
        <ele>993.4</ele>
        <time>2022-05-22 23:03:57</time>
      </trkpt>
      <trkpt lat="42.70172" lon="0.7924">
        <ele>993.6</ele>
        <time>2022-05-22 23:03:58</time>
      </trkpt>
      <trkpt lat="42.70173" lon="0.79238">
        <ele>993.6</ele>
        <time>2022-05-22 23:03:59</time>
      </trkpt>
      <trkpt lat="42.70174" lon="0.79237">
        <ele>993.8</ele>
        <time>2022-05-22 23:04:00</time>
      </trkpt>
      <trkpt lat="42.70175" lon="0.79235">
        <ele>993.8</ele>
        <time>2022-05-22 23:04:01</time>
      </trkpt>
      <trkpt lat="42.70175" lon="0.79234">
        <ele>994</ele>
        <time>2022-05-22 23:04:02</time>
      </trkpt>
      <trkpt lat="42.70176" lon="0.79232">
        <ele>994.2</ele>
        <time>2022-05-22 23:04:03</time>
      </trkpt>
      <trkpt lat="42.70177" lon="0.7923">
        <ele>994.2</ele>
        <time>2022-05-22 23:04:04</time>
      </trkpt>
      <trkpt lat="42.70178" lon="0.79228">
        <ele>994.4</ele>
        <time>2022-05-22 23:04:05</time>
      </trkpt>
      <trkpt lat="42.70179" lon="0.79227">
        <ele>994.4</ele>
        <time>2022-05-22 23:04:06</time>
      </trkpt>
      <trkpt lat="42.70181" lon="0.79225">
        <ele>994.6</ele>
        <time>2022-05-22 23:04:07</time>
      </trkpt>
      <trkpt lat="42.70181" lon="0.79224">
        <ele>994.8</ele>
        <time>2022-05-22 23:04:08</time>
      </trkpt>
      <trkpt lat="42.70183" lon="0.79222">
        <ele>994.8</ele>
        <time>2022-05-22 23:04:09</time>
      </trkpt>
      <trkpt lat="42.70184" lon="0.7922">
        <ele>995</ele>
        <time>2022-05-22 23:04:10</time>
      </trkpt>
      <trkpt lat="42.70185" lon="0.79218">
        <ele>995</ele>
        <time>2022-05-22 23:04:11</time>
      </trkpt>
      <trkpt lat="42.70187" lon="0.79216">
        <ele>995.2</ele>
        <time>2022-05-22 23:04:12</time>
      </trkpt>
      <trkpt lat="42.70188" lon="0.79214">
        <ele>995.4</ele>
        <time>2022-05-22 23:04:13</time>
      </trkpt>
      <trkpt lat="42.70189" lon="0.79212">
        <ele>995.4</ele>
        <time>2022-05-22 23:04:14</time>
      </trkpt>
      <trkpt lat="42.70191" lon="0.7921">
        <ele>995.6</ele>
        <time>2022-05-22 23:04:15</time>
      </trkpt>
      <trkpt lat="42.70192" lon="0.79208">
        <ele>995.8</ele>
        <time>2022-05-22 23:04:16</time>
      </trkpt>
      <trkpt lat="42.70193" lon="0.79206">
        <ele>996</ele>
        <time>2022-05-22 23:04:17</time>
      </trkpt>
      <trkpt lat="42.70194" lon="0.79204">
        <ele>996.2</ele>
        <time>2022-05-22 23:04:18</time>
      </trkpt>
      <trkpt lat="42.70196" lon="0.79202">
        <ele>996.4</ele>
        <time>2022-05-22 23:04:19</time>
      </trkpt>
      <trkpt lat="42.70197" lon="0.79201">
        <ele>996.4</ele>
        <time>2022-05-22 23:04:20</time>
      </trkpt>
      <trkpt lat="42.70198" lon="0.79199">
        <ele>996.6</ele>
        <time>2022-05-22 23:04:21</time>
      </trkpt>
      <trkpt lat="42.70199" lon="0.79197">
        <ele>996.6</ele>
        <time>2022-05-22 23:04:22</time>
      </trkpt>
      <trkpt lat="42.702" lon="0.79195">
        <ele>996.8</ele>
        <time>2022-05-22 23:04:23</time>
      </trkpt>
      <trkpt lat="42.70201" lon="0.79193">
        <ele>996.8</ele>
        <time>2022-05-22 23:04:24</time>
      </trkpt>
      <trkpt lat="42.70202" lon="0.79191">
        <ele>997</ele>
        <time>2022-05-22 23:04:25</time>
      </trkpt>
      <trkpt lat="42.70202" lon="0.79189">
        <ele>997.2</ele>
        <time>2022-05-22 23:04:26</time>
      </trkpt>
      <trkpt lat="42.70203" lon="0.79187">
        <ele>997.4</ele>
        <time>2022-05-22 23:04:27</time>
      </trkpt>
      <trkpt lat="42.70204" lon="0.79185">
        <ele>997.4</ele>
        <time>2022-05-22 23:04:28</time>
      </trkpt>
      <trkpt lat="42.70206" lon="0.79184">
        <ele>997.6</ele>
        <time>2022-05-22 23:04:29</time>
      </trkpt>
      <trkpt lat="42.70207" lon="0.79182">
        <ele>997.8</ele>
        <time>2022-05-22 23:04:30</time>
      </trkpt>
      <trkpt lat="42.70208" lon="0.7918">
        <ele>998</ele>
        <time>2022-05-22 23:04:31</time>
      </trkpt>
      <trkpt lat="42.7021" lon="0.79179">
        <ele>998</ele>
        <time>2022-05-22 23:04:32</time>
      </trkpt>
      <trkpt lat="42.70211" lon="0.79177">
        <ele>998.2</ele>
        <time>2022-05-22 23:04:33</time>
      </trkpt>
      <trkpt lat="42.70212" lon="0.79176">
        <ele>998.2</ele>
        <time>2022-05-22 23:04:34</time>
      </trkpt>
      <trkpt lat="42.70213" lon="0.79175">
        <ele>998.2</ele>
        <time>2022-05-22 23:04:35</time>
      </trkpt>
      <trkpt lat="42.70215" lon="0.79173">
        <ele>998.4</ele>
        <time>2022-05-22 23:04:36</time>
      </trkpt>
      <trkpt lat="42.70216" lon="0.79172">
        <ele>998.4</ele>
        <time>2022-05-22 23:04:37</time>
      </trkpt>
      <trkpt lat="42.70217" lon="0.7917">
        <ele>998.6</ele>
        <time>2022-05-22 23:04:38</time>
      </trkpt>
      <trkpt lat="42.70218" lon="0.79169">
        <ele>998.6</ele>
        <time>2022-05-22 23:04:39</time>
      </trkpt>
      <trkpt lat="42.7022" lon="0.79167">
        <ele>998.8</ele>
        <time>2022-05-22 23:04:40</time>
      </trkpt>
      <trkpt lat="42.70221" lon="0.79166">
        <ele>999</ele>
        <time>2022-05-22 23:04:41</time>
      </trkpt>
      <trkpt lat="42.70223" lon="0.79164">
        <ele>999.2</ele>
        <time>2022-05-22 23:04:42</time>
      </trkpt>
      <trkpt lat="42.70224" lon="0.79163">
        <ele>999.2</ele>
        <time>2022-05-22 23:04:43</time>
      </trkpt>
      <trkpt lat="42.70225" lon="0.79162">
        <ele>999.4</ele>
        <time>2022-05-22 23:04:44</time>
      </trkpt>
      <trkpt lat="42.70226" lon="0.7916">
        <ele>999.4</ele>
        <time>2022-05-22 23:04:45</time>
      </trkpt>
      <trkpt lat="42.70227" lon="0.79159">
        <ele>999.6</ele>
        <time>2022-05-22 23:04:46</time>
      </trkpt>
      <trkpt lat="42.70228" lon="0.79158">
        <ele>999.6</ele>
        <time>2022-05-22 23:04:47</time>
      </trkpt>
      <trkpt lat="42.7023" lon="0.79156">
        <ele>999.8</ele>
        <time>2022-05-22 23:04:48</time>
      </trkpt>
      <trkpt lat="42.70232" lon="0.79155">
        <ele>999.8</ele>
        <time>2022-05-22 23:04:49</time>
      </trkpt>
      <trkpt lat="42.70233" lon="0.79153">
        <ele>1000</ele>
        <time>2022-05-22 23:04:50</time>
      </trkpt>
      <trkpt lat="42.70234" lon="0.79151">
        <ele>1000.2</ele>
        <time>2022-05-22 23:04:51</time>
      </trkpt>
      <trkpt lat="42.70235" lon="0.7915">
        <ele>1000.2</ele>
        <time>2022-05-22 23:04:52</time>
      </trkpt>
      <trkpt lat="42.70236" lon="0.79149">
        <ele>1000.4</ele>
        <time>2022-05-22 23:04:53</time>
      </trkpt>
      <trkpt lat="42.70238" lon="0.79147">
        <ele>1000.6</ele>
        <time>2022-05-22 23:04:54</time>
      </trkpt>
      <trkpt lat="42.70239" lon="0.79146">
        <ele>1000.6</ele>
        <time>2022-05-22 23:04:55</time>
      </trkpt>
      <trkpt lat="42.70241" lon="0.79144">
        <ele>1000.6</ele>
        <time>2022-05-22 23:04:56</time>
      </trkpt>
      <trkpt lat="42.70242" lon="0.79143">
        <ele>1000.8</ele>
        <time>2022-05-22 23:04:57</time>
      </trkpt>
      <trkpt lat="42.70244" lon="0.79141">
        <ele>1001</ele>
        <time>2022-05-22 23:04:58</time>
      </trkpt>
      <trkpt lat="42.70245" lon="0.7914">
        <ele>1001</ele>
        <time>2022-05-22 23:04:59</time>
      </trkpt>
      <trkpt lat="42.70247" lon="0.79138">
        <ele>1001.2</ele>
        <time>2022-05-22 23:05:00</time>
      </trkpt>
      <trkpt lat="42.70248" lon="0.79136">
        <ele>1001.4</ele>
        <time>2022-05-22 23:05:01</time>
      </trkpt>
      <trkpt lat="42.7025" lon="0.79135">
        <ele>1001.6</ele>
        <time>2022-05-22 23:05:02</time>
      </trkpt>
      <trkpt lat="42.70252" lon="0.79134">
        <ele>1001.8</ele>
        <time>2022-05-22 23:05:03</time>
      </trkpt>
      <trkpt lat="42.70253" lon="0.79132">
        <ele>1001.8</ele>
        <time>2022-05-22 23:05:04</time>
      </trkpt>
      <trkpt lat="42.70255" lon="0.79131">
        <ele>1002</ele>
        <time>2022-05-22 23:05:05</time>
      </trkpt>
      <trkpt lat="42.70256" lon="0.79129">
        <ele>1002</ele>
        <time>2022-05-22 23:05:06</time>
      </trkpt>
      <trkpt lat="42.70258" lon="0.79128">
        <ele>1002.2</ele>
        <time>2022-05-22 23:05:07</time>
      </trkpt>
      <trkpt lat="42.70259" lon="0.79127">
        <ele>1002.2</ele>
        <time>2022-05-22 23:05:08</time>
      </trkpt>
      <trkpt lat="42.70261" lon="0.79125">
        <ele>1002.4</ele>
        <time>2022-05-22 23:05:09</time>
      </trkpt>
      <trkpt lat="42.70262" lon="0.79124">
        <ele>1002.4</ele>
        <time>2022-05-22 23:05:10</time>
      </trkpt>
      <trkpt lat="42.70263" lon="0.79123">
        <ele>1002.6</ele>
        <time>2022-05-22 23:05:11</time>
      </trkpt>
      <trkpt lat="42.70265" lon="0.79121">
        <ele>1002.6</ele>
        <time>2022-05-22 23:05:12</time>
      </trkpt>
      <trkpt lat="42.70266" lon="0.7912">
        <ele>1002.8</ele>
        <time>2022-05-22 23:05:13</time>
      </trkpt>
      <trkpt lat="42.70267" lon="0.79119">
        <ele>1003</ele>
        <time>2022-05-22 23:05:14</time>
      </trkpt>
      <trkpt lat="42.70267" lon="0.79118">
        <ele>1003</ele>
        <time>2022-05-22 23:05:15</time>
      </trkpt>
      <trkpt lat="42.70268" lon="0.79117">
        <ele>1003.2</ele>
        <time>2022-05-22 23:05:16</time>
      </trkpt>
      <trkpt lat="42.70269" lon="0.79116">
        <ele>1003.4</ele>
        <time>2022-05-22 23:05:17</time>
      </trkpt>
      <trkpt lat="42.7027" lon="0.79114">
        <ele>1003.4</ele>
        <time>2022-05-22 23:05:18</time>
      </trkpt>
      <trkpt lat="42.70271" lon="0.79113">
        <ele>1003.4</ele>
        <time>2022-05-22 23:05:19</time>
      </trkpt>
      <trkpt lat="42.70271" lon="0.79111">
        <ele>1003.6</ele>
        <time>2022-05-22 23:05:20</time>
      </trkpt>
      <trkpt lat="42.70273" lon="0.7911">
        <ele>1003.6</ele>
        <time>2022-05-22 23:05:21</time>
      </trkpt>
      <trkpt lat="42.70274" lon="0.79108">
        <ele>1003.8</ele>
        <time>2022-05-22 23:05:22</time>
      </trkpt>
      <trkpt lat="42.70275" lon="0.79107">
        <ele>1004</ele>
        <time>2022-05-22 23:05:23</time>
      </trkpt>
      <trkpt lat="42.70277" lon="0.79105">
        <ele>1004</ele>
        <time>2022-05-22 23:05:24</time>
      </trkpt>
      <trkpt lat="42.70279" lon="0.79104">
        <ele>1004.2</ele>
        <time>2022-05-22 23:05:25</time>
      </trkpt>
      <trkpt lat="42.7028" lon="0.79102">
        <ele>1004.4</ele>
        <time>2022-05-22 23:05:26</time>
      </trkpt>
      <trkpt lat="42.70282" lon="0.79101">
        <ele>1004.6</ele>
        <time>2022-05-22 23:05:27</time>
      </trkpt>
      <trkpt lat="42.70284" lon="0.79099">
        <ele>1004.6</ele>
        <time>2022-05-22 23:05:28</time>
      </trkpt>
      <trkpt lat="42.70286" lon="0.79098">
        <ele>1004.8</ele>
        <time>2022-05-22 23:05:29</time>
      </trkpt>
      <trkpt lat="42.70288" lon="0.79097">
        <ele>1004.8</ele>
        <time>2022-05-22 23:05:30</time>
      </trkpt>
      <trkpt lat="42.70289" lon="0.79096">
        <ele>1004.8</ele>
        <time>2022-05-22 23:05:31</time>
      </trkpt>
      <trkpt lat="42.70291" lon="0.79094">
        <ele>1005</ele>
        <time>2022-05-22 23:05:32</time>
      </trkpt>
      <trkpt lat="42.70292" lon="0.79092">
        <ele>1005</ele>
        <time>2022-05-22 23:05:33</time>
      </trkpt>
      <trkpt lat="42.70293" lon="0.79091">
        <ele>1005</ele>
        <time>2022-05-22 23:05:34</time>
      </trkpt>
      <trkpt lat="42.70295" lon="0.79089">
        <ele>1005.2</ele>
        <time>2022-05-22 23:05:35</time>
      </trkpt>
      <trkpt lat="42.70296" lon="0.79088">
        <ele>1005.4</ele>
        <time>2022-05-22 23:05:36</time>
      </trkpt>
      <trkpt lat="42.70297" lon="0.79086">
        <ele>1005.6</ele>
        <time>2022-05-22 23:05:37</time>
      </trkpt>
      <trkpt lat="42.70299" lon="0.79085">
        <ele>1005.8</ele>
        <time>2022-05-22 23:05:38</time>
      </trkpt>
      <trkpt lat="42.70301" lon="0.79083">
        <ele>1005.8</ele>
        <time>2022-05-22 23:05:39</time>
      </trkpt>
      <trkpt lat="42.70302" lon="0.79082">
        <ele>1006</ele>
        <time>2022-05-22 23:05:40</time>
      </trkpt>
      <trkpt lat="42.70304" lon="0.7908">
        <ele>1006</ele>
        <time>2022-05-22 23:05:41</time>
      </trkpt>
      <trkpt lat="42.70305" lon="0.79079">
        <ele>1006.2</ele>
        <time>2022-05-22 23:05:42</time>
      </trkpt>
      <trkpt lat="42.70307" lon="0.79078">
        <ele>1006.2</ele>
        <time>2022-05-22 23:05:43</time>
      </trkpt>
      <trkpt lat="42.70308" lon="0.79076">
        <ele>1006.2</ele>
        <time>2022-05-22 23:05:44</time>
      </trkpt>
      <trkpt lat="42.7031" lon="0.79075">
        <ele>1006.4</ele>
        <time>2022-05-22 23:05:45</time>
      </trkpt>
      <trkpt lat="42.70312" lon="0.79073">
        <ele>1006.4</ele>
        <time>2022-05-22 23:05:46</time>
      </trkpt>
      <trkpt lat="42.70313" lon="0.79072">
        <ele>1006.6</ele>
        <time>2022-05-22 23:05:47</time>
      </trkpt>
      <trkpt lat="42.70315" lon="0.7907">
        <ele>1006.8</ele>
        <time>2022-05-22 23:05:48</time>
      </trkpt>
      <trkpt lat="42.70316" lon="0.79069">
        <ele>1007</ele>
        <time>2022-05-22 23:05:49</time>
      </trkpt>
      <trkpt lat="42.70317" lon="0.79067">
        <ele>1007</ele>
        <time>2022-05-22 23:05:50</time>
      </trkpt>
      <trkpt lat="42.70318" lon="0.79066">
        <ele>1007.2</ele>
        <time>2022-05-22 23:05:51</time>
      </trkpt>
      <trkpt lat="42.70319" lon="0.79064">
        <ele>1007.2</ele>
        <time>2022-05-22 23:05:52</time>
      </trkpt>
      <trkpt lat="42.7032" lon="0.79063">
        <ele>1007.4</ele>
        <time>2022-05-22 23:05:53</time>
      </trkpt>
      <trkpt lat="42.70322" lon="0.79061">
        <ele>1007.4</ele>
        <time>2022-05-22 23:05:54</time>
      </trkpt>
      <trkpt lat="42.70323" lon="0.7906">
        <ele>1007.4</ele>
        <time>2022-05-22 23:05:55</time>
      </trkpt>
      <trkpt lat="42.70325" lon="0.79059">
        <ele>1007.6</ele>
        <time>2022-05-22 23:05:56</time>
      </trkpt>
      <trkpt lat="42.70326" lon="0.79057">
        <ele>1007.6</ele>
        <time>2022-05-22 23:05:57</time>
      </trkpt>
      <trkpt lat="42.70327" lon="0.79056">
        <ele>1007.8</ele>
        <time>2022-05-22 23:05:58</time>
      </trkpt>
      <trkpt lat="42.70328" lon="0.79054">
        <ele>1008</ele>
        <time>2022-05-22 23:05:59</time>
      </trkpt>
      <trkpt lat="42.70329" lon="0.79053">
        <ele>1008.2</ele>
        <time>2022-05-22 23:06:00</time>
      </trkpt>
      <trkpt lat="42.70331" lon="0.79052">
        <ele>1008.2</ele>
        <time>2022-05-22 23:06:01</time>
      </trkpt>
      <trkpt lat="42.70332" lon="0.7905">
        <ele>1008.4</ele>
        <time>2022-05-22 23:06:02</time>
      </trkpt>
      <trkpt lat="42.70333" lon="0.79048">
        <ele>1008.4</ele>
        <time>2022-05-22 23:06:03</time>
      </trkpt>
      <trkpt lat="42.70334" lon="0.79046">
        <ele>1008.6</ele>
        <time>2022-05-22 23:06:04</time>
      </trkpt>
      <trkpt lat="42.70336" lon="0.79044">
        <ele>1008.6</ele>
        <time>2022-05-22 23:06:05</time>
      </trkpt>
      <trkpt lat="42.70338" lon="0.79042">
        <ele>1008.8</ele>
        <time>2022-05-22 23:06:06</time>
      </trkpt>
      <trkpt lat="42.7034" lon="0.79041">
        <ele>1008.8</ele>
        <time>2022-05-22 23:06:07</time>
      </trkpt>
      <trkpt lat="42.70341" lon="0.79039">
        <ele>1009</ele>
        <time>2022-05-22 23:06:08</time>
      </trkpt>
      <trkpt lat="42.70343" lon="0.79037">
        <ele>1009.2</ele>
        <time>2022-05-22 23:06:09</time>
      </trkpt>
      <trkpt lat="42.70345" lon="0.79035">
        <ele>1009.2</ele>
        <time>2022-05-22 23:06:10</time>
      </trkpt>
      <trkpt lat="42.70346" lon="0.79033">
        <ele>1009.4</ele>
        <time>2022-05-22 23:06:11</time>
      </trkpt>
      <trkpt lat="42.70347" lon="0.79032">
        <ele>1009.6</ele>
        <time>2022-05-22 23:06:12</time>
      </trkpt>
      <trkpt lat="42.70349" lon="0.7903">
        <ele>1009.6</ele>
        <time>2022-05-22 23:06:13</time>
      </trkpt>
      <trkpt lat="42.7035" lon="0.79028">
        <ele>1009.8</ele>
        <time>2022-05-22 23:06:14</time>
      </trkpt>
      <trkpt lat="42.70352" lon="0.79027">
        <ele>1009.8</ele>
        <time>2022-05-22 23:06:15</time>
      </trkpt>
      <trkpt lat="42.70354" lon="0.79025">
        <ele>1010</ele>
        <time>2022-05-22 23:06:16</time>
      </trkpt>
      <trkpt lat="42.70356" lon="0.79024">
        <ele>1010</ele>
        <time>2022-05-22 23:06:17</time>
      </trkpt>
      <trkpt lat="42.70357" lon="0.79022">
        <ele>1010</ele>
        <time>2022-05-22 23:06:18</time>
      </trkpt>
      <trkpt lat="42.70359" lon="0.79021">
        <ele>1010.2</ele>
        <time>2022-05-22 23:06:19</time>
      </trkpt>
      <trkpt lat="42.70361" lon="0.7902">
        <ele>1010.4</ele>
        <time>2022-05-22 23:06:20</time>
      </trkpt>
      <trkpt lat="42.70362" lon="0.79018">
        <ele>1010.4</ele>
        <time>2022-05-22 23:06:21</time>
      </trkpt>
      <trkpt lat="42.70364" lon="0.79017">
        <ele>1010.6</ele>
        <time>2022-05-22 23:06:22</time>
      </trkpt>
      <trkpt lat="42.70366" lon="0.79015">
        <ele>1010.6</ele>
        <time>2022-05-22 23:06:23</time>
      </trkpt>
      <trkpt lat="42.70367" lon="0.79014">
        <ele>1010.8</ele>
        <time>2022-05-22 23:06:24</time>
      </trkpt>
      <trkpt lat="42.70369" lon="0.79013">
        <ele>1011</ele>
        <time>2022-05-22 23:06:25</time>
      </trkpt>
      <trkpt lat="42.70371" lon="0.79012">
        <ele>1011</ele>
        <time>2022-05-22 23:06:26</time>
      </trkpt>
      <trkpt lat="42.70372" lon="0.79011">
        <ele>1011</ele>
        <time>2022-05-22 23:06:27</time>
      </trkpt>
      <trkpt lat="42.70373" lon="0.7901">
        <ele>1011.2</ele>
        <time>2022-05-22 23:06:28</time>
      </trkpt>
      <trkpt lat="42.70375" lon="0.79009">
        <ele>1011.2</ele>
        <time>2022-05-22 23:06:29</time>
      </trkpt>
      <trkpt lat="42.70377" lon="0.79008">
        <ele>1011.4</ele>
        <time>2022-05-22 23:06:30</time>
      </trkpt>
      <trkpt lat="42.70379" lon="0.79008">
        <ele>1011.4</ele>
        <time>2022-05-22 23:06:31</time>
      </trkpt>
      <trkpt lat="42.70381" lon="0.79007">
        <ele>1011.6</ele>
        <time>2022-05-22 23:06:32</time>
      </trkpt>
      <trkpt lat="42.70383" lon="0.79006">
        <ele>1011.6</ele>
        <time>2022-05-22 23:06:33</time>
      </trkpt>
      <trkpt lat="42.70384" lon="0.79005">
        <ele>1011.8</ele>
        <time>2022-05-22 23:06:34</time>
      </trkpt>
      <trkpt lat="42.70386" lon="0.79005">
        <ele>1011.8</ele>
        <time>2022-05-22 23:06:35</time>
      </trkpt>
      <trkpt lat="42.70389" lon="0.79004">
        <ele>1011.8</ele>
        <time>2022-05-22 23:06:36</time>
      </trkpt>
      <trkpt lat="42.70391" lon="0.79004">
        <ele>1012</ele>
        <time>2022-05-22 23:06:37</time>
      </trkpt>
      <trkpt lat="42.70393" lon="0.79003">
        <ele>1012</ele>
        <time>2022-05-22 23:06:38</time>
      </trkpt>
      <trkpt lat="42.70394" lon="0.79002">
        <ele>1012</ele>
        <time>2022-05-22 23:06:39</time>
      </trkpt>
      <trkpt lat="42.70396" lon="0.79001">
        <ele>1012</ele>
        <time>2022-05-22 23:06:40</time>
      </trkpt>
      <trkpt lat="42.70398" lon="0.79">
        <ele>1012.2</ele>
        <time>2022-05-22 23:06:41</time>
      </trkpt>
      <trkpt lat="42.704" lon="0.79">
        <ele>1012.2</ele>
        <time>2022-05-22 23:06:42</time>
      </trkpt>
      <trkpt lat="42.70402" lon="0.79">
        <ele>1012.4</ele>
        <time>2022-05-22 23:06:43</time>
      </trkpt>
      <trkpt lat="42.70404" lon="0.78999">
        <ele>1012.6</ele>
        <time>2022-05-22 23:06:44</time>
      </trkpt>
      <trkpt lat="42.70406" lon="0.78999">
        <ele>1012.6</ele>
        <time>2022-05-22 23:06:45</time>
      </trkpt>
      <trkpt lat="42.70408" lon="0.78998">
        <ele>1012.6</ele>
        <time>2022-05-22 23:06:46</time>
      </trkpt>
      <trkpt lat="42.7041" lon="0.78998">
        <ele>1012.8</ele>
        <time>2022-05-22 23:06:47</time>
      </trkpt>
      <trkpt lat="42.70412" lon="0.78997">
        <ele>1013</ele>
        <time>2022-05-22 23:06:48</time>
      </trkpt>
      <trkpt lat="42.70413" lon="0.78997">
        <ele>1013</ele>
        <time>2022-05-22 23:06:49</time>
      </trkpt>
      <trkpt lat="42.70415" lon="0.78996">
        <ele>1013</ele>
        <time>2022-05-22 23:06:50</time>
      </trkpt>
      <trkpt lat="42.70417" lon="0.78995">
        <ele>1013.2</ele>
        <time>2022-05-22 23:06:51</time>
      </trkpt>
      <trkpt lat="42.70419" lon="0.78994">
        <ele>1013.2</ele>
        <time>2022-05-22 23:06:52</time>
      </trkpt>
      <trkpt lat="42.70421" lon="0.78993">
        <ele>1013.4</ele>
        <time>2022-05-22 23:06:53</time>
      </trkpt>
      <trkpt lat="42.70423" lon="0.78993">
        <ele>1013.4</ele>
        <time>2022-05-22 23:06:54</time>
      </trkpt>
      <trkpt lat="42.70425" lon="0.78992">
        <ele>1013.6</ele>
        <time>2022-05-22 23:06:55</time>
      </trkpt>
      <trkpt lat="42.70428" lon="0.78991">
        <ele>1013.6</ele>
        <time>2022-05-22 23:06:56</time>
      </trkpt>
      <trkpt lat="42.7043" lon="0.78991">
        <ele>1013.8</ele>
        <time>2022-05-22 23:06:57</time>
      </trkpt>
      <trkpt lat="42.70432" lon="0.78991">
        <ele>1014</ele>
        <time>2022-05-22 23:06:58</time>
      </trkpt>
      <trkpt lat="42.70434" lon="0.7899">
        <ele>1014.2</ele>
        <time>2022-05-22 23:06:59</time>
      </trkpt>
      <trkpt lat="42.70436" lon="0.7899">
        <ele>1014.2</ele>
        <time>2022-05-22 23:07:00</time>
      </trkpt>
      <trkpt lat="42.70437" lon="0.78989">
        <ele>1014.4</ele>
        <time>2022-05-22 23:07:01</time>
      </trkpt>
      <trkpt lat="42.7044" lon="0.78989">
        <ele>1014.4</ele>
        <time>2022-05-22 23:07:02</time>
      </trkpt>
      <trkpt lat="42.70442" lon="0.78988">
        <ele>1014.6</ele>
        <time>2022-05-22 23:07:03</time>
      </trkpt>
      <trkpt lat="42.70444" lon="0.78988">
        <ele>1014.6</ele>
        <time>2022-05-22 23:07:04</time>
      </trkpt>
      <trkpt lat="42.70446" lon="0.78987">
        <ele>1014.8</ele>
        <time>2022-05-22 23:07:05</time>
      </trkpt>
      <trkpt lat="42.70448" lon="0.78986">
        <ele>1015</ele>
        <time>2022-05-22 23:07:06</time>
      </trkpt>
      <trkpt lat="42.70449" lon="0.78986">
        <ele>1015.2</ele>
        <time>2022-05-22 23:07:07</time>
      </trkpt>
      <trkpt lat="42.70452" lon="0.78986">
        <ele>1015.2</ele>
        <time>2022-05-22 23:07:08</time>
      </trkpt>
      <trkpt lat="42.70453" lon="0.78985">
        <ele>1015.4</ele>
        <time>2022-05-22 23:07:09</time>
      </trkpt>
      <trkpt lat="42.70455" lon="0.78984">
        <ele>1015.6</ele>
        <time>2022-05-22 23:07:10</time>
      </trkpt>
      <trkpt lat="42.70457" lon="0.78983">
        <ele>1015.6</ele>
        <time>2022-05-22 23:07:11</time>
      </trkpt>
      <trkpt lat="42.70459" lon="0.78983">
        <ele>1015.8</ele>
        <time>2022-05-22 23:07:12</time>
      </trkpt>
      <trkpt lat="42.7046" lon="0.78982">
        <ele>1015.8</ele>
        <time>2022-05-22 23:07:13</time>
      </trkpt>
      <trkpt lat="42.70463" lon="0.78981">
        <ele>1016</ele>
        <time>2022-05-22 23:07:14</time>
      </trkpt>
      <trkpt lat="42.70465" lon="0.78981">
        <ele>1016</ele>
        <time>2022-05-22 23:07:15</time>
      </trkpt>
      <trkpt lat="42.70466" lon="0.7898">
        <ele>1016.2</ele>
        <time>2022-05-22 23:07:16</time>
      </trkpt>
      <trkpt lat="42.70468" lon="0.7898">
        <ele>1016.4</ele>
        <time>2022-05-22 23:07:17</time>
      </trkpt>
      <trkpt lat="42.7047" lon="0.7898">
        <ele>1016.6</ele>
        <time>2022-05-22 23:07:18</time>
      </trkpt>
      <trkpt lat="42.70471" lon="0.78979">
        <ele>1016.8</ele>
        <time>2022-05-22 23:07:19</time>
      </trkpt>
      <trkpt lat="42.70473" lon="0.78978">
        <ele>1016.8</ele>
        <time>2022-05-22 23:07:20</time>
      </trkpt>
      <trkpt lat="42.70475" lon="0.78978">
        <ele>1017</ele>
        <time>2022-05-22 23:07:21</time>
      </trkpt>
      <trkpt lat="42.70477" lon="0.78977">
        <ele>1017</ele>
        <time>2022-05-22 23:07:22</time>
      </trkpt>
      <trkpt lat="42.70479" lon="0.78976">
        <ele>1017.2</ele>
        <time>2022-05-22 23:07:23</time>
      </trkpt>
      <trkpt lat="42.70481" lon="0.78976">
        <ele>1017.4</ele>
        <time>2022-05-22 23:07:24</time>
      </trkpt>
      <trkpt lat="42.70483" lon="0.78975">
        <ele>1017.4</ele>
        <time>2022-05-22 23:07:25</time>
      </trkpt>
      <trkpt lat="42.70485" lon="0.78975">
        <ele>1017.6</ele>
        <time>2022-05-22 23:07:26</time>
      </trkpt>
      <trkpt lat="42.70487" lon="0.78974">
        <ele>1017.8</ele>
        <time>2022-05-22 23:07:27</time>
      </trkpt>
      <trkpt lat="42.70488" lon="0.78974">
        <ele>1018</ele>
        <time>2022-05-22 23:07:28</time>
      </trkpt>
      <trkpt lat="42.70491" lon="0.78973">
        <ele>1018.2</ele>
        <time>2022-05-22 23:07:29</time>
      </trkpt>
      <trkpt lat="42.70493" lon="0.78972">
        <ele>1018.2</ele>
        <time>2022-05-22 23:07:30</time>
      </trkpt>
      <trkpt lat="42.70495" lon="0.78972">
        <ele>1018.4</ele>
        <time>2022-05-22 23:07:31</time>
      </trkpt>
      <trkpt lat="42.70497" lon="0.78971">
        <ele>1018.6</ele>
        <time>2022-05-22 23:07:32</time>
      </trkpt>
      <trkpt lat="42.70498" lon="0.78971">
        <ele>1018.6</ele>
        <time>2022-05-22 23:07:33</time>
      </trkpt>
      <trkpt lat="42.705" lon="0.7897">
        <ele>1018.8</ele>
        <time>2022-05-22 23:07:34</time>
      </trkpt>
      <trkpt lat="42.70502" lon="0.7897">
        <ele>1018.8</ele>
        <time>2022-05-22 23:07:35</time>
      </trkpt>
      <trkpt lat="42.70503" lon="0.7897">
        <ele>1018.8</ele>
        <time>2022-05-22 23:07:36</time>
      </trkpt>
      <trkpt lat="42.70505" lon="0.7897">
        <ele>1019</ele>
        <time>2022-05-22 23:07:37</time>
      </trkpt>
      <trkpt lat="42.70506" lon="0.78969">
        <ele>1019</ele>
        <time>2022-05-22 23:07:38</time>
      </trkpt>
      <trkpt lat="42.70508" lon="0.78969">
        <ele>1019.2</ele>
        <time>2022-05-22 23:07:39</time>
      </trkpt>
      <trkpt lat="42.7051" lon="0.78969">
        <ele>1019.4</ele>
        <time>2022-05-22 23:07:40</time>
      </trkpt>
      <trkpt lat="42.70512" lon="0.78969">
        <ele>1019.6</ele>
        <time>2022-05-22 23:07:41</time>
      </trkpt>
      <trkpt lat="42.70514" lon="0.78969">
        <ele>1019.6</ele>
        <time>2022-05-22 23:07:42</time>
      </trkpt>
      <trkpt lat="42.70516" lon="0.78969">
        <ele>1019.8</ele>
        <time>2022-05-22 23:07:43</time>
      </trkpt>
      <trkpt lat="42.70518" lon="0.78969">
        <ele>1020</ele>
        <time>2022-05-22 23:07:44</time>
      </trkpt>
      <trkpt lat="42.70521" lon="0.78969">
        <ele>1020</ele>
        <time>2022-05-22 23:07:45</time>
      </trkpt>
      <trkpt lat="42.70523" lon="0.78969">
        <ele>1020.2</ele>
        <time>2022-05-22 23:07:46</time>
      </trkpt>
      <trkpt lat="42.70525" lon="0.78969">
        <ele>1020.2</ele>
        <time>2022-05-22 23:07:47</time>
      </trkpt>
      <trkpt lat="42.70527" lon="0.78969">
        <ele>1020.4</ele>
        <time>2022-05-22 23:07:48</time>
      </trkpt>
      <trkpt lat="42.70529" lon="0.78969">
        <ele>1020.4</ele>
        <time>2022-05-22 23:07:49</time>
      </trkpt>
      <trkpt lat="42.70531" lon="0.78969">
        <ele>1020.6</ele>
        <time>2022-05-22 23:07:50</time>
      </trkpt>
      <trkpt lat="42.70534" lon="0.78968">
        <ele>1020.8</ele>
        <time>2022-05-22 23:07:51</time>
      </trkpt>
      <trkpt lat="42.70536" lon="0.78968">
        <ele>1021</ele>
        <time>2022-05-22 23:07:52</time>
      </trkpt>
      <trkpt lat="42.70538" lon="0.78968">
        <ele>1021</ele>
        <time>2022-05-22 23:07:53</time>
      </trkpt>
      <trkpt lat="42.7054" lon="0.78968">
        <ele>1021.2</ele>
        <time>2022-05-22 23:07:54</time>
      </trkpt>
      <trkpt lat="42.70542" lon="0.78967">
        <ele>1021.2</ele>
        <time>2022-05-22 23:07:55</time>
      </trkpt>
      <trkpt lat="42.70544" lon="0.78967">
        <ele>1021.4</ele>
        <time>2022-05-22 23:07:56</time>
      </trkpt>
      <trkpt lat="42.70546" lon="0.78967">
        <ele>1021.4</ele>
        <time>2022-05-22 23:07:57</time>
      </trkpt>
      <trkpt lat="42.70548" lon="0.78966">
        <ele>1021.4</ele>
        <time>2022-05-22 23:07:58</time>
      </trkpt>
      <trkpt lat="42.7055" lon="0.78966">
        <ele>1021.6</ele>
        <time>2022-05-22 23:07:59</time>
      </trkpt>
      <trkpt lat="42.70552" lon="0.78965">
        <ele>1021.8</ele>
        <time>2022-05-22 23:08:00</time>
      </trkpt>
      <trkpt lat="42.70554" lon="0.78964">
        <ele>1022</ele>
        <time>2022-05-22 23:08:01</time>
      </trkpt>
      <trkpt lat="42.70556" lon="0.78963">
        <ele>1022</ele>
        <time>2022-05-22 23:08:02</time>
      </trkpt>
      <trkpt lat="42.70558" lon="0.78962">
        <ele>1022.2</ele>
        <time>2022-05-22 23:08:03</time>
      </trkpt>
      <trkpt lat="42.70559" lon="0.7896">
        <ele>1022.2</ele>
        <time>2022-05-22 23:08:04</time>
      </trkpt>
      <trkpt lat="42.70561" lon="0.78959">
        <ele>1022.4</ele>
        <time>2022-05-22 23:08:05</time>
      </trkpt>
      <trkpt lat="42.70562" lon="0.78957">
        <ele>1022.4</ele>
        <time>2022-05-22 23:08:06</time>
      </trkpt>
      <trkpt lat="42.70564" lon="0.78955">
        <ele>1022.6</ele>
        <time>2022-05-22 23:08:07</time>
      </trkpt>
      <trkpt lat="42.70565" lon="0.78953">
        <ele>1022.6</ele>
        <time>2022-05-22 23:08:08</time>
      </trkpt>
      <trkpt lat="42.70566" lon="0.78951">
        <ele>1022.8</ele>
        <time>2022-05-22 23:08:09</time>
      </trkpt>
      <trkpt lat="42.70567" lon="0.78949">
        <ele>1022.8</ele>
        <time>2022-05-22 23:08:10</time>
      </trkpt>
      <trkpt lat="42.70568" lon="0.78947">
        <ele>1023</ele>
        <time>2022-05-22 23:08:11</time>
      </trkpt>
      <trkpt lat="42.70569" lon="0.78944">
        <ele>1023.2</ele>
        <time>2022-05-22 23:08:12</time>
      </trkpt>
      <trkpt lat="42.7057" lon="0.78942">
        <ele>1023.2</ele>
        <time>2022-05-22 23:08:13</time>
      </trkpt>
      <trkpt lat="42.7057" lon="0.78939">
        <ele>1023.4</ele>
        <time>2022-05-22 23:08:14</time>
      </trkpt>
      <trkpt lat="42.7057" lon="0.78936">
        <ele>1023.4</ele>
        <time>2022-05-22 23:08:15</time>
      </trkpt>
      <trkpt lat="42.70571" lon="0.78933">
        <ele>1023.6</ele>
        <time>2022-05-22 23:08:16</time>
      </trkpt>
      <trkpt lat="42.70571" lon="0.7893">
        <ele>1023.6</ele>
        <time>2022-05-22 23:08:17</time>
      </trkpt>
      <trkpt lat="42.70571" lon="0.78928">
        <ele>1023.8</ele>
        <time>2022-05-22 23:08:18</time>
      </trkpt>
      <trkpt lat="42.7057" lon="0.78925">
        <ele>1023.8</ele>
        <time>2022-05-22 23:08:19</time>
      </trkpt>
      <trkpt lat="42.7057" lon="0.78922">
        <ele>1024</ele>
        <time>2022-05-22 23:08:20</time>
      </trkpt>
      <trkpt lat="42.7057" lon="0.78919">
        <ele>1024</ele>
        <time>2022-05-22 23:08:21</time>
      </trkpt>
      <trkpt lat="42.7057" lon="0.78917">
        <ele>1024.2</ele>
        <time>2022-05-22 23:08:22</time>
      </trkpt>
      <trkpt lat="42.70569" lon="0.78914">
        <ele>1024.4</ele>
        <time>2022-05-22 23:08:23</time>
      </trkpt>
      <trkpt lat="42.70569" lon="0.78912">
        <ele>1024.6</ele>
        <time>2022-05-22 23:08:24</time>
      </trkpt>
      <trkpt lat="42.70568" lon="0.7891">
        <ele>1024.8</ele>
        <time>2022-05-22 23:08:25</time>
      </trkpt>
      <trkpt lat="42.70566" lon="0.78907">
        <ele>1024.8</ele>
        <time>2022-05-22 23:08:26</time>
      </trkpt>
      <trkpt lat="42.70565" lon="0.78905">
        <ele>1025</ele>
        <time>2022-05-22 23:08:27</time>
      </trkpt>
      <trkpt lat="42.70563" lon="0.78903">
        <ele>1025.2</ele>
        <time>2022-05-22 23:08:28</time>
      </trkpt>
      <trkpt lat="42.70562" lon="0.78901">
        <ele>1025.4</ele>
        <time>2022-05-22 23:08:29</time>
      </trkpt>
      <trkpt lat="42.7056" lon="0.789">
        <ele>1025.4</ele>
        <time>2022-05-22 23:08:30</time>
      </trkpt>
      <trkpt lat="42.70559" lon="0.78898">
        <ele>1025.6</ele>
        <time>2022-05-22 23:08:31</time>
      </trkpt>
      <trkpt lat="42.70557" lon="0.78896">
        <ele>1025.6</ele>
        <time>2022-05-22 23:08:32</time>
      </trkpt>
      <trkpt lat="42.70556" lon="0.78895">
        <ele>1025.8</ele>
        <time>2022-05-22 23:08:33</time>
      </trkpt>
      <trkpt lat="42.70554" lon="0.78894">
        <ele>1026</ele>
        <time>2022-05-22 23:08:34</time>
      </trkpt>
      <trkpt lat="42.70552" lon="0.78893">
        <ele>1026.2</ele>
        <time>2022-05-22 23:08:35</time>
      </trkpt>
      <trkpt lat="42.70551" lon="0.78892">
        <ele>1026.2</ele>
        <time>2022-05-22 23:08:36</time>
      </trkpt>
      <trkpt lat="42.70549" lon="0.78891">
        <ele>1026.4</ele>
        <time>2022-05-22 23:08:37</time>
      </trkpt>
      <trkpt lat="42.70547" lon="0.78891">
        <ele>1026.6</ele>
        <time>2022-05-22 23:08:38</time>
      </trkpt>
      <trkpt lat="42.70545" lon="0.7889">
        <ele>1026.8</ele>
        <time>2022-05-22 23:08:39</time>
      </trkpt>
      <trkpt lat="42.70543" lon="0.7889">
        <ele>1027</ele>
        <time>2022-05-22 23:08:40</time>
      </trkpt>
      <trkpt lat="42.70541" lon="0.7889">
        <ele>1027.2</ele>
        <time>2022-05-22 23:08:41</time>
      </trkpt>
      <trkpt lat="42.70539" lon="0.7889">
        <ele>1027.2</ele>
        <time>2022-05-22 23:08:42</time>
      </trkpt>
      <trkpt lat="42.70536" lon="0.78891">
        <ele>1027.4</ele>
        <time>2022-05-22 23:08:43</time>
      </trkpt>
      <trkpt lat="42.70535" lon="0.78892">
        <ele>1027.6</ele>
        <time>2022-05-22 23:08:44</time>
      </trkpt>
      <trkpt lat="42.70533" lon="0.78893">
        <ele>1027.6</ele>
        <time>2022-05-22 23:08:45</time>
      </trkpt>
      <trkpt lat="42.70531" lon="0.78894">
        <ele>1027.8</ele>
        <time>2022-05-22 23:08:46</time>
      </trkpt>
      <trkpt lat="42.70529" lon="0.78894">
        <ele>1028</ele>
        <time>2022-05-22 23:08:47</time>
      </trkpt>
      <trkpt lat="42.70526" lon="0.78895">
        <ele>1028</ele>
        <time>2022-05-22 23:08:48</time>
      </trkpt>
      <trkpt lat="42.70524" lon="0.78895">
        <ele>1028.2</ele>
        <time>2022-05-22 23:08:49</time>
      </trkpt>
      <trkpt lat="42.70522" lon="0.78895">
        <ele>1028.4</ele>
        <time>2022-05-22 23:08:50</time>
      </trkpt>
      <trkpt lat="42.7052" lon="0.78896">
        <ele>1028.6</ele>
        <time>2022-05-22 23:08:51</time>
      </trkpt>
      <trkpt lat="42.70518" lon="0.78897">
        <ele>1028.6</ele>
        <time>2022-05-22 23:08:52</time>
      </trkpt>
      <trkpt lat="42.70517" lon="0.78898">
        <ele>1028.8</ele>
        <time>2022-05-22 23:08:53</time>
      </trkpt>
      <trkpt lat="42.70515" lon="0.78899">
        <ele>1029</ele>
        <time>2022-05-22 23:08:54</time>
      </trkpt>
      <trkpt lat="42.70513" lon="0.78901">
        <ele>1029</ele>
        <time>2022-05-22 23:08:55</time>
      </trkpt>
      <trkpt lat="42.70511" lon="0.78902">
        <ele>1029.2</ele>
        <time>2022-05-22 23:08:56</time>
      </trkpt>
      <trkpt lat="42.70509" lon="0.78903">
        <ele>1029.4</ele>
        <time>2022-05-22 23:08:57</time>
      </trkpt>
      <trkpt lat="42.70507" lon="0.78904">
        <ele>1029.4</ele>
        <time>2022-05-22 23:08:58</time>
      </trkpt>
      <trkpt lat="42.70505" lon="0.78904">
        <ele>1029.6</ele>
        <time>2022-05-22 23:08:59</time>
      </trkpt>
      <trkpt lat="42.70503" lon="0.78905">
        <ele>1029.8</ele>
        <time>2022-05-22 23:09:00</time>
      </trkpt>
      <trkpt lat="42.70502" lon="0.78907">
        <ele>1029.8</ele>
        <time>2022-05-22 23:09:01</time>
      </trkpt>
      <trkpt lat="42.705" lon="0.78908">
        <ele>1030</ele>
        <time>2022-05-22 23:09:02</time>
      </trkpt>
      <trkpt lat="42.70499" lon="0.78909">
        <ele>1030.2</ele>
        <time>2022-05-22 23:09:03</time>
      </trkpt>
      <trkpt lat="42.70497" lon="0.78911">
        <ele>1030.2</ele>
        <time>2022-05-22 23:09:04</time>
      </trkpt>
      <trkpt lat="42.70495" lon="0.78911">
        <ele>1030.4</ele>
        <time>2022-05-22 23:09:05</time>
      </trkpt>
      <trkpt lat="42.70493" lon="0.78912">
        <ele>1030.6</ele>
        <time>2022-05-22 23:09:06</time>
      </trkpt>
      <trkpt lat="42.7049" lon="0.78914">
        <ele>1030.8</ele>
        <time>2022-05-22 23:09:07</time>
      </trkpt>
      <trkpt lat="42.70489" lon="0.78915">
        <ele>1030.8</ele>
        <time>2022-05-22 23:09:08</time>
      </trkpt>
      <trkpt lat="42.70487" lon="0.78916">
        <ele>1031</ele>
        <time>2022-05-22 23:09:09</time>
      </trkpt>
      <trkpt lat="42.70484" lon="0.78917">
        <ele>1031.2</ele>
        <time>2022-05-22 23:09:10</time>
      </trkpt>
      <trkpt lat="42.70481" lon="0.78918">
        <ele>1031.2</ele>
        <time>2022-05-22 23:09:11</time>
      </trkpt>
      <trkpt lat="42.70479" lon="0.7892">
        <ele>1031.4</ele>
        <time>2022-05-22 23:09:12</time>
      </trkpt>
      <trkpt lat="42.70476" lon="0.78921">
        <ele>1031.6</ele>
        <time>2022-05-22 23:09:13</time>
      </trkpt>
      <trkpt lat="42.70474" lon="0.78922">
        <ele>1031.8</ele>
        <time>2022-05-22 23:09:14</time>
      </trkpt>
      <trkpt lat="42.70472" lon="0.78923">
        <ele>1031.8</ele>
        <time>2022-05-22 23:09:15</time>
      </trkpt>
      <trkpt lat="42.7047" lon="0.78924">
        <ele>1032</ele>
        <time>2022-05-22 23:09:16</time>
      </trkpt>
      <trkpt lat="42.70468" lon="0.78924">
        <ele>1032.2</ele>
        <time>2022-05-22 23:09:17</time>
      </trkpt>
      <trkpt lat="42.70465" lon="0.78924">
        <ele>1032.4</ele>
        <time>2022-05-22 23:09:18</time>
      </trkpt>
      <trkpt lat="42.70462" lon="0.78924">
        <ele>1032.6</ele>
        <time>2022-05-22 23:09:19</time>
      </trkpt>
      <trkpt lat="42.7046" lon="0.78924">
        <ele>1032.6</ele>
        <time>2022-05-22 23:09:20</time>
      </trkpt>
      <trkpt lat="42.70458" lon="0.78924">
        <ele>1032.8</ele>
        <time>2022-05-22 23:09:21</time>
      </trkpt>
      <trkpt lat="42.70456" lon="0.78924">
        <ele>1033</ele>
        <time>2022-05-22 23:09:22</time>
      </trkpt>
      <trkpt lat="42.70453" lon="0.78924">
        <ele>1033.2</ele>
        <time>2022-05-22 23:09:23</time>
      </trkpt>
      <trkpt lat="42.70451" lon="0.78925">
        <ele>1033.4</ele>
        <time>2022-05-22 23:09:24</time>
      </trkpt>
      <trkpt lat="42.70449" lon="0.78925">
        <ele>1033.4</ele>
        <time>2022-05-22 23:09:25</time>
      </trkpt>
      <trkpt lat="42.70447" lon="0.78925">
        <ele>1033.6</ele>
        <time>2022-05-22 23:09:26</time>
      </trkpt>
      <trkpt lat="42.70445" lon="0.78925">
        <ele>1033.8</ele>
        <time>2022-05-22 23:09:27</time>
      </trkpt>
      <trkpt lat="42.70443" lon="0.78926">
        <ele>1034</ele>
        <time>2022-05-22 23:09:28</time>
      </trkpt>
      <trkpt lat="42.7044" lon="0.78926">
        <ele>1034</ele>
        <time>2022-05-22 23:09:29</time>
      </trkpt>
      <trkpt lat="42.70438" lon="0.78926">
        <ele>1034.2</ele>
        <time>2022-05-22 23:09:30</time>
      </trkpt>
      <trkpt lat="42.70436" lon="0.78926">
        <ele>1034.4</ele>
        <time>2022-05-22 23:09:31</time>
      </trkpt>
      <trkpt lat="42.70434" lon="0.78926">
        <ele>1034.6</ele>
        <time>2022-05-22 23:09:32</time>
      </trkpt>
      <trkpt lat="42.70432" lon="0.78926">
        <ele>1034.6</ele>
        <time>2022-05-22 23:09:33</time>
      </trkpt>
      <trkpt lat="42.7043" lon="0.78926">
        <ele>1034.8</ele>
        <time>2022-05-22 23:09:34</time>
      </trkpt>
      <trkpt lat="42.70428" lon="0.78926">
        <ele>1035</ele>
        <time>2022-05-22 23:09:35</time>
      </trkpt>
      <trkpt lat="42.70426" lon="0.78927">
        <ele>1035</ele>
        <time>2022-05-22 23:09:36</time>
      </trkpt>
      <trkpt lat="42.70424" lon="0.78927">
        <ele>1035.2</ele>
        <time>2022-05-22 23:09:37</time>
      </trkpt>
      <trkpt lat="42.70422" lon="0.78926">
        <ele>1035.4</ele>
        <time>2022-05-22 23:09:38</time>
      </trkpt>
      <trkpt lat="42.7042" lon="0.78926">
        <ele>1035.6</ele>
        <time>2022-05-22 23:09:39</time>
      </trkpt>
      <trkpt lat="42.70418" lon="0.78926">
        <ele>1035.6</ele>
        <time>2022-05-22 23:09:40</time>
      </trkpt>
      <trkpt lat="42.70416" lon="0.78926">
        <ele>1035.8</ele>
        <time>2022-05-22 23:09:41</time>
      </trkpt>
      <trkpt lat="42.70413" lon="0.78926">
        <ele>1036</ele>
        <time>2022-05-22 23:09:42</time>
      </trkpt>
      <trkpt lat="42.70411" lon="0.78927">
        <ele>1036</ele>
        <time>2022-05-22 23:09:43</time>
      </trkpt>
      <trkpt lat="42.7041" lon="0.78927">
        <ele>1036.2</ele>
        <time>2022-05-22 23:09:44</time>
      </trkpt>
      <trkpt lat="42.70407" lon="0.78927">
        <ele>1036.4</ele>
        <time>2022-05-22 23:09:45</time>
      </trkpt>
      <trkpt lat="42.70405" lon="0.78927">
        <ele>1036.6</ele>
        <time>2022-05-22 23:09:46</time>
      </trkpt>
      <trkpt lat="42.70403" lon="0.78927">
        <ele>1036.6</ele>
        <time>2022-05-22 23:09:47</time>
      </trkpt>
      <trkpt lat="42.70401" lon="0.78927">
        <ele>1036.8</ele>
        <time>2022-05-22 23:09:48</time>
      </trkpt>
      <trkpt lat="42.70399" lon="0.78927">
        <ele>1037</ele>
        <time>2022-05-22 23:09:49</time>
      </trkpt>
      <trkpt lat="42.70397" lon="0.78926">
        <ele>1037.2</ele>
        <time>2022-05-22 23:09:50</time>
      </trkpt>
      <trkpt lat="42.70395" lon="0.78926">
        <ele>1037.2</ele>
        <time>2022-05-22 23:09:51</time>
      </trkpt>
      <trkpt lat="42.70393" lon="0.78927">
        <ele>1037.4</ele>
        <time>2022-05-22 23:09:52</time>
      </trkpt>
      <trkpt lat="42.70391" lon="0.78927">
        <ele>1037.6</ele>
        <time>2022-05-22 23:09:53</time>
      </trkpt>
      <trkpt lat="42.70389" lon="0.78926">
        <ele>1037.8</ele>
        <time>2022-05-22 23:09:54</time>
      </trkpt>
      <trkpt lat="42.70387" lon="0.78926">
        <ele>1037.8</ele>
        <time>2022-05-22 23:09:55</time>
      </trkpt>
      <trkpt lat="42.70384" lon="0.78926">
        <ele>1038</ele>
        <time>2022-05-22 23:09:56</time>
      </trkpt>
      <trkpt lat="42.70382" lon="0.78926">
        <ele>1038.2</ele>
        <time>2022-05-22 23:09:57</time>
      </trkpt>
      <trkpt lat="42.7038" lon="0.78926">
        <ele>1038.4</ele>
        <time>2022-05-22 23:09:58</time>
      </trkpt>
      <trkpt lat="42.70379" lon="0.78926">
        <ele>1038.6</ele>
        <time>2022-05-22 23:09:59</time>
      </trkpt>
      <trkpt lat="42.70377" lon="0.78927">
        <ele>1038.8</ele>
        <time>2022-05-22 23:10:00</time>
      </trkpt>
      <trkpt lat="42.70375" lon="0.78927">
        <ele>1038.8</ele>
        <time>2022-05-22 23:10:01</time>
      </trkpt>
      <trkpt lat="42.70373" lon="0.78928">
        <ele>1039</ele>
        <time>2022-05-22 23:10:02</time>
      </trkpt>
      <trkpt lat="42.70371" lon="0.78928">
        <ele>1039.2</ele>
        <time>2022-05-22 23:10:03</time>
      </trkpt>
      <trkpt lat="42.70369" lon="0.78927">
        <ele>1039.4</ele>
        <time>2022-05-22 23:10:04</time>
      </trkpt>
      <trkpt lat="42.70368" lon="0.78927">
        <ele>1039.4</ele>
        <time>2022-05-22 23:10:05</time>
      </trkpt>
      <trkpt lat="42.70366" lon="0.78927">
        <ele>1039.6</ele>
        <time>2022-05-22 23:10:06</time>
      </trkpt>
      <trkpt lat="42.70364" lon="0.78927">
        <ele>1039.8</ele>
        <time>2022-05-22 23:10:07</time>
      </trkpt>
      <trkpt lat="42.70362" lon="0.78927">
        <ele>1040</ele>
        <time>2022-05-22 23:10:08</time>
      </trkpt>
      <trkpt lat="42.7036" lon="0.78928">
        <ele>1040</ele>
        <time>2022-05-22 23:10:09</time>
      </trkpt>
      <trkpt lat="42.70358" lon="0.78928">
        <ele>1040.2</ele>
        <time>2022-05-22 23:10:10</time>
      </trkpt>
      <trkpt lat="42.70357" lon="0.78929">
        <ele>1040.4</ele>
        <time>2022-05-22 23:10:11</time>
      </trkpt>
      <trkpt lat="42.70356" lon="0.78929">
        <ele>1040.6</ele>
        <time>2022-05-22 23:10:12</time>
      </trkpt>
      <trkpt lat="42.70354" lon="0.78929">
        <ele>1040.8</ele>
        <time>2022-05-22 23:10:13</time>
      </trkpt>
      <trkpt lat="42.70352" lon="0.78929">
        <ele>1040.8</ele>
        <time>2022-05-22 23:10:14</time>
      </trkpt>
      <trkpt lat="42.7035" lon="0.78929">
        <ele>1041</ele>
        <time>2022-05-22 23:10:15</time>
      </trkpt>
      <trkpt lat="42.70348" lon="0.7893">
        <ele>1041.2</ele>
        <time>2022-05-22 23:10:16</time>
      </trkpt>
      <trkpt lat="42.70347" lon="0.7893">
        <ele>1041.4</ele>
        <time>2022-05-22 23:10:17</time>
      </trkpt>
      <trkpt lat="42.70345" lon="0.7893">
        <ele>1041.6</ele>
        <time>2022-05-22 23:10:18</time>
      </trkpt>
      <trkpt lat="42.70342" lon="0.78931">
        <ele>1041.8</ele>
        <time>2022-05-22 23:10:19</time>
      </trkpt>
      <trkpt lat="42.7034" lon="0.78931">
        <ele>1042</ele>
        <time>2022-05-22 23:10:20</time>
      </trkpt>
      <trkpt lat="42.70337" lon="0.78932">
        <ele>1042</ele>
        <time>2022-05-22 23:10:21</time>
      </trkpt>
      <trkpt lat="42.70336" lon="0.78933">
        <ele>1042.2</ele>
        <time>2022-05-22 23:10:22</time>
      </trkpt>
      <trkpt lat="42.70334" lon="0.78933">
        <ele>1042.4</ele>
        <time>2022-05-22 23:10:23</time>
      </trkpt>
      <trkpt lat="42.70331" lon="0.78934">
        <ele>1042.6</ele>
        <time>2022-05-22 23:10:24</time>
      </trkpt>
      <trkpt lat="42.7033" lon="0.78935">
        <ele>1042.8</ele>
        <time>2022-05-22 23:10:25</time>
      </trkpt>
      <trkpt lat="42.70327" lon="0.78935">
        <ele>1042.8</ele>
        <time>2022-05-22 23:10:26</time>
      </trkpt>
      <trkpt lat="42.70324" lon="0.78935">
        <ele>1043</ele>
        <time>2022-05-22 23:10:27</time>
      </trkpt>
      <trkpt lat="42.70322" lon="0.78935">
        <ele>1043.2</ele>
        <time>2022-05-22 23:10:28</time>
      </trkpt>
      <trkpt lat="42.7032" lon="0.78935">
        <ele>1043.4</ele>
        <time>2022-05-22 23:10:29</time>
      </trkpt>
      <trkpt lat="42.70318" lon="0.78934">
        <ele>1043.4</ele>
        <time>2022-05-22 23:10:30</time>
      </trkpt>
      <trkpt lat="42.70316" lon="0.78934">
        <ele>1043.6</ele>
        <time>2022-05-22 23:10:31</time>
      </trkpt>
      <trkpt lat="42.70314" lon="0.78934">
        <ele>1043.8</ele>
        <time>2022-05-22 23:10:32</time>
      </trkpt>
      <trkpt lat="42.70312" lon="0.78935">
        <ele>1044</ele>
        <time>2022-05-22 23:10:33</time>
      </trkpt>
      <trkpt lat="42.7031" lon="0.78936">
        <ele>1044.2</ele>
        <time>2022-05-22 23:10:34</time>
      </trkpt>
      <trkpt lat="42.70308" lon="0.78936">
        <ele>1044.2</ele>
        <time>2022-05-22 23:10:35</time>
      </trkpt>
      <trkpt lat="42.70306" lon="0.78938">
        <ele>1044.4</ele>
        <time>2022-05-22 23:10:36</time>
      </trkpt>
      <trkpt lat="42.70305" lon="0.78938">
        <ele>1044.6</ele>
        <time>2022-05-22 23:10:37</time>
      </trkpt>
      <trkpt lat="42.70303" lon="0.78939">
        <ele>1044.6</ele>
        <time>2022-05-22 23:10:38</time>
      </trkpt>
      <trkpt lat="42.70301" lon="0.7894">
        <ele>1044.8</ele>
        <time>2022-05-22 23:10:39</time>
      </trkpt>
      <trkpt lat="42.703" lon="0.78941">
        <ele>1045</ele>
        <time>2022-05-22 23:10:40</time>
      </trkpt>
      <trkpt lat="42.70298" lon="0.78942">
        <ele>1045</ele>
        <time>2022-05-22 23:10:41</time>
      </trkpt>
      <trkpt lat="42.70296" lon="0.78943">
        <ele>1045.2</ele>
        <time>2022-05-22 23:10:42</time>
      </trkpt>
      <trkpt lat="42.70295" lon="0.78943">
        <ele>1045.4</ele>
        <time>2022-05-22 23:10:43</time>
      </trkpt>
      <trkpt lat="42.70293" lon="0.78944">
        <ele>1045.6</ele>
        <time>2022-05-22 23:10:44</time>
      </trkpt>
      <trkpt lat="42.70291" lon="0.78945">
        <ele>1045.6</ele>
        <time>2022-05-22 23:10:45</time>
      </trkpt>
      <trkpt lat="42.70289" lon="0.78945">
        <ele>1045.8</ele>
        <time>2022-05-22 23:10:46</time>
      </trkpt>
      <trkpt lat="42.70287" lon="0.78945">
        <ele>1046</ele>
        <time>2022-05-22 23:10:47</time>
      </trkpt>
      <trkpt lat="42.70285" lon="0.78945">
        <ele>1046</ele>
        <time>2022-05-22 23:10:48</time>
      </trkpt>
      <trkpt lat="42.70282" lon="0.78945">
        <ele>1046.2</ele>
        <time>2022-05-22 23:10:49</time>
      </trkpt>
      <trkpt lat="42.70281" lon="0.78945">
        <ele>1046.4</ele>
        <time>2022-05-22 23:10:50</time>
      </trkpt>
      <trkpt lat="42.70279" lon="0.78946">
        <ele>1046.4</ele>
        <time>2022-05-22 23:10:51</time>
      </trkpt>
      <trkpt lat="42.70277" lon="0.78947">
        <ele>1046.6</ele>
        <time>2022-05-22 23:10:52</time>
      </trkpt>
      <trkpt lat="42.70275" lon="0.78948">
        <ele>1046.8</ele>
        <time>2022-05-22 23:10:53</time>
      </trkpt>
      <trkpt lat="42.70273" lon="0.78949">
        <ele>1046.8</ele>
        <time>2022-05-22 23:10:54</time>
      </trkpt>
      <trkpt lat="42.70271" lon="0.78951">
        <ele>1047</ele>
        <time>2022-05-22 23:10:55</time>
      </trkpt>
      <trkpt lat="42.70269" lon="0.78952">
        <ele>1047.2</ele>
        <time>2022-05-22 23:10:56</time>
      </trkpt>
      <trkpt lat="42.70267" lon="0.78953">
        <ele>1047.4</ele>
        <time>2022-05-22 23:10:57</time>
      </trkpt>
      <trkpt lat="42.70265" lon="0.78954">
        <ele>1047.4</ele>
        <time>2022-05-22 23:10:58</time>
      </trkpt>
      <trkpt lat="42.70263" lon="0.78954">
        <ele>1047.6</ele>
        <time>2022-05-22 23:10:59</time>
      </trkpt>
      <trkpt lat="42.70261" lon="0.78955">
        <ele>1047.8</ele>
        <time>2022-05-22 23:11:00</time>
      </trkpt>
      <trkpt lat="42.7026" lon="0.78956">
        <ele>1047.8</ele>
        <time>2022-05-22 23:11:01</time>
      </trkpt>
      <trkpt lat="42.70258" lon="0.78956">
        <ele>1048</ele>
        <time>2022-05-22 23:11:02</time>
      </trkpt>
      <trkpt lat="42.70255" lon="0.78957">
        <ele>1048.2</ele>
        <time>2022-05-22 23:11:03</time>
      </trkpt>
      <trkpt lat="42.70253" lon="0.78957">
        <ele>1048.2</ele>
        <time>2022-05-22 23:11:04</time>
      </trkpt>
      <trkpt lat="42.70251" lon="0.78957">
        <ele>1048.4</ele>
        <time>2022-05-22 23:11:05</time>
      </trkpt>
      <trkpt lat="42.70249" lon="0.78958">
        <ele>1048.6</ele>
        <time>2022-05-22 23:11:06</time>
      </trkpt>
      <trkpt lat="42.70247" lon="0.78959">
        <ele>1048.8</ele>
        <time>2022-05-22 23:11:07</time>
      </trkpt>
      <trkpt lat="42.70245" lon="0.7896">
        <ele>1048.8</ele>
        <time>2022-05-22 23:11:08</time>
      </trkpt>
      <trkpt lat="42.70244" lon="0.78962">
        <ele>1049</ele>
        <time>2022-05-22 23:11:09</time>
      </trkpt>
      <trkpt lat="42.70242" lon="0.78962">
        <ele>1049</ele>
        <time>2022-05-22 23:11:10</time>
      </trkpt>
      <trkpt lat="42.7024" lon="0.78963">
        <ele>1049.2</ele>
        <time>2022-05-22 23:11:11</time>
      </trkpt>
      <trkpt lat="42.70238" lon="0.78963">
        <ele>1049.4</ele>
        <time>2022-05-22 23:11:12</time>
      </trkpt>
      <trkpt lat="42.70236" lon="0.78964">
        <ele>1049.4</ele>
        <time>2022-05-22 23:11:13</time>
      </trkpt>
      <trkpt lat="42.70234" lon="0.78965">
        <ele>1049.6</ele>
        <time>2022-05-22 23:11:14</time>
      </trkpt>
      <trkpt lat="42.70232" lon="0.78966">
        <ele>1049.6</ele>
        <time>2022-05-22 23:11:15</time>
      </trkpt>
      <trkpt lat="42.7023" lon="0.78967">
        <ele>1049.8</ele>
        <time>2022-05-22 23:11:16</time>
      </trkpt>
      <trkpt lat="42.70229" lon="0.78968">
        <ele>1049.8</ele>
        <time>2022-05-22 23:11:17</time>
      </trkpt>
      <trkpt lat="42.70227" lon="0.7897">
        <ele>1050</ele>
        <time>2022-05-22 23:11:18</time>
      </trkpt>
      <trkpt lat="42.70225" lon="0.78971">
        <ele>1050.2</ele>
        <time>2022-05-22 23:11:19</time>
      </trkpt>
      <trkpt lat="42.70223" lon="0.78972">
        <ele>1050.4</ele>
        <time>2022-05-22 23:11:20</time>
      </trkpt>
      <trkpt lat="42.70221" lon="0.78973">
        <ele>1050.4</ele>
        <time>2022-05-22 23:11:21</time>
      </trkpt>
      <trkpt lat="42.7022" lon="0.78974">
        <ele>1050.6</ele>
        <time>2022-05-22 23:11:22</time>
      </trkpt>
      <trkpt lat="42.70218" lon="0.78975">
        <ele>1050.8</ele>
        <time>2022-05-22 23:11:23</time>
      </trkpt>
      <trkpt lat="42.70216" lon="0.78976">
        <ele>1050.8</ele>
        <time>2022-05-22 23:11:24</time>
      </trkpt>
      <trkpt lat="42.70214" lon="0.78977">
        <ele>1051</ele>
        <time>2022-05-22 23:11:25</time>
      </trkpt>
      <trkpt lat="42.70213" lon="0.78977">
        <ele>1051</ele>
        <time>2022-05-22 23:11:26</time>
      </trkpt>
      <trkpt lat="42.70211" lon="0.78978">
        <ele>1051.2</ele>
        <time>2022-05-22 23:11:27</time>
      </trkpt>
      <trkpt lat="42.7021" lon="0.78979">
        <ele>1051.4</ele>
        <time>2022-05-22 23:11:28</time>
      </trkpt>
      <trkpt lat="42.70208" lon="0.78979">
        <ele>1051.6</ele>
        <time>2022-05-22 23:11:29</time>
      </trkpt>
      <trkpt lat="42.70205" lon="0.7898">
        <ele>1051.8</ele>
        <time>2022-05-22 23:11:30</time>
      </trkpt>
      <trkpt lat="42.70203" lon="0.78981">
        <ele>1052</ele>
        <time>2022-05-22 23:11:31</time>
      </trkpt>
      <trkpt lat="42.70202" lon="0.78981">
        <ele>1052</ele>
        <time>2022-05-22 23:11:32</time>
      </trkpt>
      <trkpt lat="42.702" lon="0.78982">
        <ele>1052.2</ele>
        <time>2022-05-22 23:11:33</time>
      </trkpt>
      <trkpt lat="42.70198" lon="0.78983">
        <ele>1052.4</ele>
        <time>2022-05-22 23:11:34</time>
      </trkpt>
      <trkpt lat="42.70196" lon="0.78984">
        <ele>1052.4</ele>
        <time>2022-05-22 23:11:35</time>
      </trkpt>
      <trkpt lat="42.70194" lon="0.78985">
        <ele>1052.6</ele>
        <time>2022-05-22 23:11:36</time>
      </trkpt>
      <trkpt lat="42.70192" lon="0.78986">
        <ele>1052.8</ele>
        <time>2022-05-22 23:11:37</time>
      </trkpt>
      <trkpt lat="42.7019" lon="0.78987">
        <ele>1052.8</ele>
        <time>2022-05-22 23:11:38</time>
      </trkpt>
      <trkpt lat="42.70188" lon="0.78988">
        <ele>1053</ele>
        <time>2022-05-22 23:11:39</time>
      </trkpt>
      <trkpt lat="42.70187" lon="0.78989">
        <ele>1053.2</ele>
        <time>2022-05-22 23:11:40</time>
      </trkpt>
      <trkpt lat="42.70185" lon="0.78991">
        <ele>1053.2</ele>
        <time>2022-05-22 23:11:41</time>
      </trkpt>
      <trkpt lat="42.70182" lon="0.78992">
        <ele>1053.4</ele>
        <time>2022-05-22 23:11:42</time>
      </trkpt>
      <trkpt lat="42.70181" lon="0.78993">
        <ele>1053.6</ele>
        <time>2022-05-22 23:11:43</time>
      </trkpt>
      <trkpt lat="42.70179" lon="0.78994">
        <ele>1053.6</ele>
        <time>2022-05-22 23:11:44</time>
      </trkpt>
      <trkpt lat="42.70177" lon="0.78995">
        <ele>1053.8</ele>
        <time>2022-05-22 23:11:45</time>
      </trkpt>
      <trkpt lat="42.70175" lon="0.78997">
        <ele>1054</ele>
        <time>2022-05-22 23:11:46</time>
      </trkpt>
      <trkpt lat="42.70173" lon="0.78999">
        <ele>1054</ele>
        <time>2022-05-22 23:11:47</time>
      </trkpt>
      <trkpt lat="42.70172" lon="0.79">
        <ele>1054.2</ele>
        <time>2022-05-22 23:11:48</time>
      </trkpt>
      <trkpt lat="42.7017" lon="0.79002">
        <ele>1054.4</ele>
        <time>2022-05-22 23:11:49</time>
      </trkpt>
      <trkpt lat="42.70168" lon="0.79003">
        <ele>1054.4</ele>
        <time>2022-05-22 23:11:50</time>
      </trkpt>
      <trkpt lat="42.70166" lon="0.79003">
        <ele>1054.6</ele>
        <time>2022-05-22 23:11:51</time>
      </trkpt>
      <trkpt lat="42.70164" lon="0.79003">
        <ele>1054.8</ele>
        <time>2022-05-22 23:11:52</time>
      </trkpt>
      <trkpt lat="42.70162" lon="0.79004">
        <ele>1054.8</ele>
        <time>2022-05-22 23:11:53</time>
      </trkpt>
      <trkpt lat="42.7016" lon="0.79005">
        <ele>1055</ele>
        <time>2022-05-22 23:11:54</time>
      </trkpt>
      <trkpt lat="42.70158" lon="0.79007">
        <ele>1055</ele>
        <time>2022-05-22 23:11:55</time>
      </trkpt>
      <trkpt lat="42.70157" lon="0.79009">
        <ele>1055.2</ele>
        <time>2022-05-22 23:11:56</time>
      </trkpt>
      <trkpt lat="42.70155" lon="0.7901">
        <ele>1055.2</ele>
        <time>2022-05-22 23:11:57</time>
      </trkpt>
      <trkpt lat="42.70153" lon="0.79012">
        <ele>1055.2</ele>
        <time>2022-05-22 23:11:58</time>
      </trkpt>
      <trkpt lat="42.70151" lon="0.79013">
        <ele>1055.4</ele>
        <time>2022-05-22 23:11:59</time>
      </trkpt>
      <trkpt lat="42.70149" lon="0.79014">
        <ele>1055.4</ele>
        <time>2022-05-22 23:12:00</time>
      </trkpt>
      <trkpt lat="42.70147" lon="0.79015">
        <ele>1055.6</ele>
        <time>2022-05-22 23:12:01</time>
      </trkpt>
      <trkpt lat="42.70145" lon="0.79016">
        <ele>1055.6</ele>
        <time>2022-05-22 23:12:02</time>
      </trkpt>
      <trkpt lat="42.70144" lon="0.79017">
        <ele>1055.8</ele>
        <time>2022-05-22 23:12:03</time>
      </trkpt>
      <trkpt lat="42.70142" lon="0.79018">
        <ele>1056</ele>
        <time>2022-05-22 23:12:04</time>
      </trkpt>
      <trkpt lat="42.7014" lon="0.79019">
        <ele>1056.2</ele>
        <time>2022-05-22 23:12:05</time>
      </trkpt>
      <trkpt lat="42.70139" lon="0.79021">
        <ele>1056.2</ele>
        <time>2022-05-22 23:12:06</time>
      </trkpt>
      <trkpt lat="42.70137" lon="0.79022">
        <ele>1056.2</ele>
        <time>2022-05-22 23:12:07</time>
      </trkpt>
      <trkpt lat="42.70135" lon="0.79023">
        <ele>1056.4</ele>
        <time>2022-05-22 23:12:08</time>
      </trkpt>
      <trkpt lat="42.70134" lon="0.79024">
        <ele>1056.6</ele>
        <time>2022-05-22 23:12:09</time>
      </trkpt>
      <trkpt lat="42.70132" lon="0.79026">
        <ele>1056.6</ele>
        <time>2022-05-22 23:12:10</time>
      </trkpt>
      <trkpt lat="42.70131" lon="0.79027">
        <ele>1056.8</ele>
        <time>2022-05-22 23:12:11</time>
      </trkpt>
      <trkpt lat="42.70129" lon="0.79028">
        <ele>1057</ele>
        <time>2022-05-22 23:12:12</time>
      </trkpt>
      <trkpt lat="42.70127" lon="0.7903">
        <ele>1057.2</ele>
        <time>2022-05-22 23:12:13</time>
      </trkpt>
      <trkpt lat="42.70125" lon="0.79031">
        <ele>1057.4</ele>
        <time>2022-05-22 23:12:14</time>
      </trkpt>
      <trkpt lat="42.70124" lon="0.79032">
        <ele>1057.4</ele>
        <time>2022-05-22 23:12:15</time>
      </trkpt>
      <trkpt lat="42.70122" lon="0.79034">
        <ele>1057.6</ele>
        <time>2022-05-22 23:12:16</time>
      </trkpt>
      <trkpt lat="42.70121" lon="0.79036">
        <ele>1057.8</ele>
        <time>2022-05-22 23:12:17</time>
      </trkpt>
      <trkpt lat="42.70119" lon="0.79037">
        <ele>1058</ele>
        <time>2022-05-22 23:12:18</time>
      </trkpt>
      <trkpt lat="42.70118" lon="0.79039">
        <ele>1058</ele>
        <time>2022-05-22 23:12:19</time>
      </trkpt>
      <trkpt lat="42.70116" lon="0.7904">
        <ele>1058.2</ele>
        <time>2022-05-22 23:12:20</time>
      </trkpt>
      <trkpt lat="42.70114" lon="0.79041">
        <ele>1058.2</ele>
        <time>2022-05-22 23:12:21</time>
      </trkpt>
      <trkpt lat="42.70113" lon="0.79043">
        <ele>1058.4</ele>
        <time>2022-05-22 23:12:22</time>
      </trkpt>
      <trkpt lat="42.70111" lon="0.79044">
        <ele>1058.6</ele>
        <time>2022-05-22 23:12:23</time>
      </trkpt>
      <trkpt lat="42.7011" lon="0.79045">
        <ele>1058.8</ele>
        <time>2022-05-22 23:12:24</time>
      </trkpt>
      <trkpt lat="42.70108" lon="0.79046">
        <ele>1058.8</ele>
        <time>2022-05-22 23:12:25</time>
      </trkpt>
      <trkpt lat="42.70106" lon="0.79047">
        <ele>1059</ele>
        <time>2022-05-22 23:12:26</time>
      </trkpt>
      <trkpt lat="42.70104" lon="0.79048">
        <ele>1059.2</ele>
        <time>2022-05-22 23:12:27</time>
      </trkpt>
      <trkpt lat="42.70102" lon="0.79049">
        <ele>1059.4</ele>
        <time>2022-05-22 23:12:28</time>
      </trkpt>
      <trkpt lat="42.701" lon="0.7905">
        <ele>1059.6</ele>
        <time>2022-05-22 23:12:29</time>
      </trkpt>
      <trkpt lat="42.70098" lon="0.79052">
        <ele>1059.8</ele>
        <time>2022-05-22 23:12:30</time>
      </trkpt>
      <trkpt lat="42.70097" lon="0.79053">
        <ele>1059.8</ele>
        <time>2022-05-22 23:12:31</time>
      </trkpt>
      <trkpt lat="42.70095" lon="0.79054">
        <ele>1060</ele>
        <time>2022-05-22 23:12:32</time>
      </trkpt>
      <trkpt lat="42.70093" lon="0.79055">
        <ele>1060</ele>
        <time>2022-05-22 23:12:33</time>
      </trkpt>
      <trkpt lat="42.70091" lon="0.79056">
        <ele>1060.2</ele>
        <time>2022-05-22 23:12:34</time>
      </trkpt>
      <trkpt lat="42.7009" lon="0.79057">
        <ele>1060.4</ele>
        <time>2022-05-22 23:12:35</time>
      </trkpt>
      <trkpt lat="42.70088" lon="0.79059">
        <ele>1060.6</ele>
        <time>2022-05-22 23:12:36</time>
      </trkpt>
      <trkpt lat="42.70086" lon="0.7906">
        <ele>1060.8</ele>
        <time>2022-05-22 23:12:37</time>
      </trkpt>
      <trkpt lat="42.70084" lon="0.79061">
        <ele>1061</ele>
        <time>2022-05-22 23:12:38</time>
      </trkpt>
      <trkpt lat="42.70082" lon="0.79063">
        <ele>1061.2</ele>
        <time>2022-05-22 23:12:39</time>
      </trkpt>
      <trkpt lat="42.70081" lon="0.79064">
        <ele>1061.2</ele>
        <time>2022-05-22 23:12:40</time>
      </trkpt>
      <trkpt lat="42.70079" lon="0.79065">
        <ele>1061.4</ele>
        <time>2022-05-22 23:12:41</time>
      </trkpt>
      <trkpt lat="42.70077" lon="0.79066">
        <ele>1061.6</ele>
        <time>2022-05-22 23:12:42</time>
      </trkpt>
      <trkpt lat="42.70075" lon="0.79068">
        <ele>1061.6</ele>
        <time>2022-05-22 23:12:43</time>
      </trkpt>
      <trkpt lat="42.70074" lon="0.79069">
        <ele>1061.8</ele>
        <time>2022-05-22 23:12:44</time>
      </trkpt>
      <trkpt lat="42.70072" lon="0.79071">
        <ele>1062</ele>
        <time>2022-05-22 23:12:45</time>
      </trkpt>
      <trkpt lat="42.7007" lon="0.79072">
        <ele>1062.2</ele>
        <time>2022-05-22 23:12:46</time>
      </trkpt>
      <trkpt lat="42.70068" lon="0.79073">
        <ele>1062.2</ele>
        <time>2022-05-22 23:12:47</time>
      </trkpt>
      <trkpt lat="42.70066" lon="0.79074">
        <ele>1062.4</ele>
        <time>2022-05-22 23:12:48</time>
      </trkpt>
      <trkpt lat="42.70065" lon="0.79075">
        <ele>1062.6</ele>
        <time>2022-05-22 23:12:49</time>
      </trkpt>
      <trkpt lat="42.70063" lon="0.79077">
        <ele>1062.8</ele>
        <time>2022-05-22 23:12:50</time>
      </trkpt>
      <trkpt lat="42.70062" lon="0.79078">
        <ele>1062.8</ele>
        <time>2022-05-22 23:12:51</time>
      </trkpt>
      <trkpt lat="42.7006" lon="0.79079">
        <ele>1063</ele>
        <time>2022-05-22 23:12:52</time>
      </trkpt>
      <trkpt lat="42.70058" lon="0.7908">
        <ele>1063</ele>
        <time>2022-05-22 23:12:53</time>
      </trkpt>
      <trkpt lat="42.70056" lon="0.79081">
        <ele>1063.2</ele>
        <time>2022-05-22 23:12:54</time>
      </trkpt>
      <trkpt lat="42.70054" lon="0.79082">
        <ele>1063.4</ele>
        <time>2022-05-22 23:12:55</time>
      </trkpt>
      <trkpt lat="42.70052" lon="0.79083">
        <ele>1063.4</ele>
        <time>2022-05-22 23:12:56</time>
      </trkpt>
      <trkpt lat="42.70051" lon="0.79084">
        <ele>1063.6</ele>
        <time>2022-05-22 23:12:57</time>
      </trkpt>
      <trkpt lat="42.70047" lon="0.79086">
        <ele>1063.8</ele>
        <time>2022-05-22 23:12:58</time>
      </trkpt>
      <trkpt lat="42.70043" lon="0.79088">
        <ele>1064</ele>
        <time>2022-05-22 23:12:59</time>
      </trkpt>
      <trkpt lat="42.70042" lon="0.79088">
        <ele>1064</ele>
        <time>2022-05-22 23:13:00</time>
      </trkpt>
      <trkpt lat="42.70041" lon="0.79088">
        <ele>1064.2</ele>
        <time>2022-05-22 23:13:01</time>
      </trkpt>
      <trkpt lat="42.70039" lon="0.79089">
        <ele>1064.4</ele>
        <time>2022-05-22 23:13:02</time>
      </trkpt>
      <trkpt lat="42.70038" lon="0.7909">
        <ele>1064.6</ele>
        <time>2022-05-22 23:13:03</time>
      </trkpt>
      <trkpt lat="42.70036" lon="0.79091">
        <ele>1064.6</ele>
        <time>2022-05-22 23:13:04</time>
      </trkpt>
      <trkpt lat="42.70035" lon="0.79092">
        <ele>1064.8</ele>
        <time>2022-05-22 23:13:05</time>
      </trkpt>
      <trkpt lat="42.70033" lon="0.79093">
        <ele>1064.8</ele>
        <time>2022-05-22 23:13:06</time>
      </trkpt>
      <trkpt lat="42.70032" lon="0.79094">
        <ele>1065</ele>
        <time>2022-05-22 23:13:07</time>
      </trkpt>
      <trkpt lat="42.7003" lon="0.79096">
        <ele>1065.2</ele>
        <time>2022-05-22 23:13:08</time>
      </trkpt>
      <trkpt lat="42.70029" lon="0.79097">
        <ele>1065.2</ele>
        <time>2022-05-22 23:13:09</time>
      </trkpt>
      <trkpt lat="42.70027" lon="0.79098">
        <ele>1065.4</ele>
        <time>2022-05-22 23:13:10</time>
      </trkpt>
      <trkpt lat="42.70025" lon="0.79099">
        <ele>1065.6</ele>
        <time>2022-05-22 23:13:11</time>
      </trkpt>
      <trkpt lat="42.70023" lon="0.79101">
        <ele>1065.6</ele>
        <time>2022-05-22 23:13:12</time>
      </trkpt>
      <trkpt lat="42.70022" lon="0.79102">
        <ele>1065.8</ele>
        <time>2022-05-22 23:13:13</time>
      </trkpt>
      <trkpt lat="42.7002" lon="0.79103">
        <ele>1066</ele>
        <time>2022-05-22 23:13:14</time>
      </trkpt>
      <trkpt lat="42.70018" lon="0.79104">
        <ele>1066</ele>
        <time>2022-05-22 23:13:15</time>
      </trkpt>
      <trkpt lat="42.70016" lon="0.79105">
        <ele>1066.2</ele>
        <time>2022-05-22 23:13:16</time>
      </trkpt>
      <trkpt lat="42.70015" lon="0.79106">
        <ele>1066.2</ele>
        <time>2022-05-22 23:13:17</time>
      </trkpt>
      <trkpt lat="42.70013" lon="0.79107">
        <ele>1066.4</ele>
        <time>2022-05-22 23:13:18</time>
      </trkpt>
      <trkpt lat="42.70011" lon="0.79109">
        <ele>1066.6</ele>
        <time>2022-05-22 23:13:19</time>
      </trkpt>
      <trkpt lat="42.7001" lon="0.7911">
        <ele>1066.6</ele>
        <time>2022-05-22 23:13:20</time>
      </trkpt>
      <trkpt lat="42.70008" lon="0.79111">
        <ele>1066.8</ele>
        <time>2022-05-22 23:13:21</time>
      </trkpt>
      <trkpt lat="42.70006" lon="0.79113">
        <ele>1067</ele>
        <time>2022-05-22 23:13:22</time>
      </trkpt>
      <trkpt lat="42.70005" lon="0.79114">
        <ele>1067.2</ele>
        <time>2022-05-22 23:13:23</time>
      </trkpt>
      <trkpt lat="42.70003" lon="0.79115">
        <ele>1067.2</ele>
        <time>2022-05-22 23:13:24</time>
      </trkpt>
      <trkpt lat="42.70002" lon="0.79116">
        <ele>1067.4</ele>
        <time>2022-05-22 23:13:25</time>
      </trkpt>
      <trkpt lat="42.7" lon="0.79118">
        <ele>1067.6</ele>
        <time>2022-05-22 23:13:26</time>
      </trkpt>
      <trkpt lat="42.69999" lon="0.79119">
        <ele>1067.6</ele>
        <time>2022-05-22 23:13:27</time>
      </trkpt>
      <trkpt lat="42.69997" lon="0.7912">
        <ele>1067.8</ele>
        <time>2022-05-22 23:13:28</time>
      </trkpt>
      <trkpt lat="42.69995" lon="0.79121">
        <ele>1068</ele>
        <time>2022-05-22 23:13:29</time>
      </trkpt>
      <trkpt lat="42.69993" lon="0.79122">
        <ele>1068</ele>
        <time>2022-05-22 23:13:30</time>
      </trkpt>
      <trkpt lat="42.69991" lon="0.79123">
        <ele>1068.2</ele>
        <time>2022-05-22 23:13:31</time>
      </trkpt>
      <trkpt lat="42.69989" lon="0.79124">
        <ele>1068.4</ele>
        <time>2022-05-22 23:13:32</time>
      </trkpt>
      <trkpt lat="42.69987" lon="0.79125">
        <ele>1068.6</ele>
        <time>2022-05-22 23:13:33</time>
      </trkpt>
      <trkpt lat="42.69985" lon="0.79126">
        <ele>1068.6</ele>
        <time>2022-05-22 23:13:34</time>
      </trkpt>
      <trkpt lat="42.69983" lon="0.79126">
        <ele>1068.8</ele>
        <time>2022-05-22 23:13:35</time>
      </trkpt>
      <trkpt lat="42.69981" lon="0.79127">
        <ele>1069</ele>
        <time>2022-05-22 23:13:36</time>
      </trkpt>
      <trkpt lat="42.6998" lon="0.79129">
        <ele>1069.2</ele>
        <time>2022-05-22 23:13:37</time>
      </trkpt>
      <trkpt lat="42.69978" lon="0.7913">
        <ele>1069.2</ele>
        <time>2022-05-22 23:13:38</time>
      </trkpt>
      <trkpt lat="42.69976" lon="0.79131">
        <ele>1069.4</ele>
        <time>2022-05-22 23:13:39</time>
      </trkpt>
      <trkpt lat="42.69974" lon="0.79133">
        <ele>1069.6</ele>
        <time>2022-05-22 23:13:40</time>
      </trkpt>
      <trkpt lat="42.69972" lon="0.79134">
        <ele>1069.6</ele>
        <time>2022-05-22 23:13:41</time>
      </trkpt>
      <trkpt lat="42.6997" lon="0.79135">
        <ele>1069.8</ele>
        <time>2022-05-22 23:13:42</time>
      </trkpt>
      <trkpt lat="42.69968" lon="0.79136">
        <ele>1070</ele>
        <time>2022-05-22 23:13:43</time>
      </trkpt>
      <trkpt lat="42.69966" lon="0.79137">
        <ele>1070.2</ele>
        <time>2022-05-22 23:13:44</time>
      </trkpt>
      <trkpt lat="42.69964" lon="0.79138">
        <ele>1070.2</ele>
        <time>2022-05-22 23:13:45</time>
      </trkpt>
      <trkpt lat="42.69962" lon="0.79139">
        <ele>1070.4</ele>
        <time>2022-05-22 23:13:46</time>
      </trkpt>
      <trkpt lat="42.6996" lon="0.7914">
        <ele>1070.6</ele>
        <time>2022-05-22 23:13:47</time>
      </trkpt>
      <trkpt lat="42.69958" lon="0.79141">
        <ele>1070.6</ele>
        <time>2022-05-22 23:13:48</time>
      </trkpt>
      <trkpt lat="42.69956" lon="0.79142">
        <ele>1070.8</ele>
        <time>2022-05-22 23:13:49</time>
      </trkpt>
      <trkpt lat="42.69954" lon="0.79142">
        <ele>1070.8</ele>
        <time>2022-05-22 23:13:50</time>
      </trkpt>
      <trkpt lat="42.69952" lon="0.79143">
        <ele>1071</ele>
        <time>2022-05-22 23:13:51</time>
      </trkpt>
      <trkpt lat="42.6995" lon="0.79144">
        <ele>1071</ele>
        <time>2022-05-22 23:13:52</time>
      </trkpt>
      <trkpt lat="42.69948" lon="0.79145">
        <ele>1071.2</ele>
        <time>2022-05-22 23:13:53</time>
      </trkpt>
      <trkpt lat="42.69947" lon="0.79146">
        <ele>1071.4</ele>
        <time>2022-05-22 23:13:54</time>
      </trkpt>
      <trkpt lat="42.69945" lon="0.79147">
        <ele>1071.4</ele>
        <time>2022-05-22 23:13:55</time>
      </trkpt>
      <trkpt lat="42.69943" lon="0.79148">
        <ele>1071.6</ele>
        <time>2022-05-22 23:13:56</time>
      </trkpt>
      <trkpt lat="42.69941" lon="0.7915">
        <ele>1071.6</ele>
        <time>2022-05-22 23:13:57</time>
      </trkpt>
      <trkpt lat="42.6994" lon="0.79151">
        <ele>1071.8</ele>
        <time>2022-05-22 23:13:58</time>
      </trkpt>
      <trkpt lat="42.69938" lon="0.79152">
        <ele>1071.8</ele>
        <time>2022-05-22 23:13:59</time>
      </trkpt>
      <trkpt lat="42.69936" lon="0.79153">
        <ele>1072</ele>
        <time>2022-05-22 23:14:00</time>
      </trkpt>
      <trkpt lat="42.69934" lon="0.79153">
        <ele>1072.2</ele>
        <time>2022-05-22 23:14:01</time>
      </trkpt>
      <trkpt lat="42.69933" lon="0.79153">
        <ele>1072.2</ele>
        <time>2022-05-22 23:14:02</time>
      </trkpt>
      <trkpt lat="42.69931" lon="0.79153">
        <ele>1072.4</ele>
        <time>2022-05-22 23:14:03</time>
      </trkpt>
      <trkpt lat="42.69929" lon="0.79153">
        <ele>1072.4</ele>
        <time>2022-05-22 23:14:04</time>
      </trkpt>
      <trkpt lat="42.69927" lon="0.79154">
        <ele>1072.6</ele>
        <time>2022-05-22 23:14:05</time>
      </trkpt>
      <trkpt lat="42.69925" lon="0.79154">
        <ele>1072.8</ele>
        <time>2022-05-22 23:14:06</time>
      </trkpt>
      <trkpt lat="42.69923" lon="0.79154">
        <ele>1072.8</ele>
        <time>2022-05-22 23:14:07</time>
      </trkpt>
      <trkpt lat="42.69921" lon="0.79155">
        <ele>1073</ele>
        <time>2022-05-22 23:14:08</time>
      </trkpt>
      <trkpt lat="42.69919" lon="0.79155">
        <ele>1073.2</ele>
        <time>2022-05-22 23:14:09</time>
      </trkpt>
      <trkpt lat="42.69917" lon="0.79154">
        <ele>1073.2</ele>
        <time>2022-05-22 23:14:10</time>
      </trkpt>
      <trkpt lat="42.69915" lon="0.79154">
        <ele>1073.2</ele>
        <time>2022-05-22 23:14:11</time>
      </trkpt>
      <trkpt lat="42.69913" lon="0.79153">
        <ele>1073.4</ele>
        <time>2022-05-22 23:14:12</time>
      </trkpt>
      <trkpt lat="42.69911" lon="0.79153">
        <ele>1073.6</ele>
        <time>2022-05-22 23:14:13</time>
      </trkpt>
      <trkpt lat="42.6991" lon="0.79153">
        <ele>1073.8</ele>
        <time>2022-05-22 23:14:14</time>
      </trkpt>
      <trkpt lat="42.69908" lon="0.79152">
        <ele>1074</ele>
        <time>2022-05-22 23:14:15</time>
      </trkpt>
      <trkpt lat="42.69906" lon="0.79152">
        <ele>1074</ele>
        <time>2022-05-22 23:14:16</time>
      </trkpt>
      <trkpt lat="42.69904" lon="0.79151">
        <ele>1074.2</ele>
        <time>2022-05-22 23:14:17</time>
      </trkpt>
      <trkpt lat="42.69902" lon="0.79151">
        <ele>1074.4</ele>
        <time>2022-05-22 23:14:18</time>
      </trkpt>
      <trkpt lat="42.699" lon="0.7915">
        <ele>1074.4</ele>
        <time>2022-05-22 23:14:19</time>
      </trkpt>
      <trkpt lat="42.69898" lon="0.7915">
        <ele>1074.6</ele>
        <time>2022-05-22 23:14:20</time>
      </trkpt>
      <trkpt lat="42.69897" lon="0.79149">
        <ele>1074.8</ele>
        <time>2022-05-22 23:14:21</time>
      </trkpt>
      <trkpt lat="42.69895" lon="0.79149">
        <ele>1074.8</ele>
        <time>2022-05-22 23:14:22</time>
      </trkpt>
      <trkpt lat="42.69893" lon="0.79148">
        <ele>1075</ele>
        <time>2022-05-22 23:14:23</time>
      </trkpt>
      <trkpt lat="42.69891" lon="0.79147">
        <ele>1075.2</ele>
        <time>2022-05-22 23:14:24</time>
      </trkpt>
      <trkpt lat="42.6989" lon="0.79147">
        <ele>1075.4</ele>
        <time>2022-05-22 23:14:25</time>
      </trkpt>
      <trkpt lat="42.69888" lon="0.79146">
        <ele>1075.4</ele>
        <time>2022-05-22 23:14:26</time>
      </trkpt>
      <trkpt lat="42.69885" lon="0.79146">
        <ele>1075.6</ele>
        <time>2022-05-22 23:14:27</time>
      </trkpt>
      <trkpt lat="42.69884" lon="0.79145">
        <ele>1075.8</ele>
        <time>2022-05-22 23:14:28</time>
      </trkpt>
      <trkpt lat="42.69882" lon="0.79144">
        <ele>1075.8</ele>
        <time>2022-05-22 23:14:29</time>
      </trkpt>
      <trkpt lat="42.6988" lon="0.79144">
        <ele>1076</ele>
        <time>2022-05-22 23:14:30</time>
      </trkpt>
      <trkpt lat="42.69878" lon="0.79143">
        <ele>1076</ele>
        <time>2022-05-22 23:14:31</time>
      </trkpt>
      <trkpt lat="42.69876" lon="0.79142">
        <ele>1076.2</ele>
        <time>2022-05-22 23:14:32</time>
      </trkpt>
      <trkpt lat="42.69874" lon="0.79142">
        <ele>1076.4</ele>
        <time>2022-05-22 23:14:33</time>
      </trkpt>
      <trkpt lat="42.69872" lon="0.79141">
        <ele>1076.4</ele>
        <time>2022-05-22 23:14:34</time>
      </trkpt>
      <trkpt lat="42.6987" lon="0.79141">
        <ele>1076.6</ele>
        <time>2022-05-22 23:14:35</time>
      </trkpt>
      <trkpt lat="42.69869" lon="0.79142">
        <ele>1076.8</ele>
        <time>2022-05-22 23:14:36</time>
      </trkpt>
      <trkpt lat="42.69867" lon="0.79142">
        <ele>1076.8</ele>
        <time>2022-05-22 23:14:37</time>
      </trkpt>
      <trkpt lat="42.69864" lon="0.79142">
        <ele>1077</ele>
        <time>2022-05-22 23:14:38</time>
      </trkpt>
      <trkpt lat="42.69862" lon="0.79142">
        <ele>1077</ele>
        <time>2022-05-22 23:14:39</time>
      </trkpt>
      <trkpt lat="42.69861" lon="0.79141">
        <ele>1077.2</ele>
        <time>2022-05-22 23:14:40</time>
      </trkpt>
      <trkpt lat="42.69859" lon="0.7914">
        <ele>1077.2</ele>
        <time>2022-05-22 23:14:41</time>
      </trkpt>
      <trkpt lat="42.69858" lon="0.79139">
        <ele>1077.4</ele>
        <time>2022-05-22 23:14:42</time>
      </trkpt>
      <trkpt lat="42.69856" lon="0.79139">
        <ele>1077.6</ele>
        <time>2022-05-22 23:14:43</time>
      </trkpt>
      <trkpt lat="42.69854" lon="0.79138">
        <ele>1077.8</ele>
        <time>2022-05-22 23:14:44</time>
      </trkpt>
      <trkpt lat="42.69852" lon="0.79137">
        <ele>1077.8</ele>
        <time>2022-05-22 23:14:45</time>
      </trkpt>
      <trkpt lat="42.69851" lon="0.79137">
        <ele>1078</ele>
        <time>2022-05-22 23:14:46</time>
      </trkpt>
      <trkpt lat="42.69849" lon="0.79137">
        <ele>1078.2</ele>
        <time>2022-05-22 23:14:47</time>
      </trkpt>
      <trkpt lat="42.69847" lon="0.79137">
        <ele>1078.4</ele>
        <time>2022-05-22 23:14:48</time>
      </trkpt>
      <trkpt lat="42.69845" lon="0.79137">
        <ele>1078.4</ele>
        <time>2022-05-22 23:14:49</time>
      </trkpt>
      <trkpt lat="42.69843" lon="0.79137">
        <ele>1078.6</ele>
        <time>2022-05-22 23:14:50</time>
      </trkpt>
      <trkpt lat="42.69841" lon="0.79137">
        <ele>1078.8</ele>
        <time>2022-05-22 23:14:51</time>
      </trkpt>
      <trkpt lat="42.6984" lon="0.79137">
        <ele>1078.8</ele>
        <time>2022-05-22 23:14:52</time>
      </trkpt>
      <trkpt lat="42.69838" lon="0.79136">
        <ele>1079</ele>
        <time>2022-05-22 23:14:53</time>
      </trkpt>
      <trkpt lat="42.69836" lon="0.79136">
        <ele>1079.2</ele>
        <time>2022-05-22 23:14:54</time>
      </trkpt>
      <trkpt lat="42.69835" lon="0.79136">
        <ele>1079.4</ele>
        <time>2022-05-22 23:14:55</time>
      </trkpt>
      <trkpt lat="42.69833" lon="0.79136">
        <ele>1079.6</ele>
        <time>2022-05-22 23:14:56</time>
      </trkpt>
      <trkpt lat="42.69831" lon="0.79135">
        <ele>1079.6</ele>
        <time>2022-05-22 23:14:57</time>
      </trkpt>
      <trkpt lat="42.69829" lon="0.79135">
        <ele>1079.8</ele>
        <time>2022-05-22 23:14:58</time>
      </trkpt>
      <trkpt lat="42.69827" lon="0.79135">
        <ele>1080</ele>
        <time>2022-05-22 23:14:59</time>
      </trkpt>
      <trkpt lat="42.69825" lon="0.79134">
        <ele>1080.2</ele>
        <time>2022-05-22 23:15:00</time>
      </trkpt>
      <trkpt lat="42.69823" lon="0.79134">
        <ele>1080.2</ele>
        <time>2022-05-22 23:15:01</time>
      </trkpt>
      <trkpt lat="42.69822" lon="0.79134">
        <ele>1080.4</ele>
        <time>2022-05-22 23:15:02</time>
      </trkpt>
      <trkpt lat="42.69819" lon="0.79133">
        <ele>1080.4</ele>
        <time>2022-05-22 23:15:03</time>
      </trkpt>
      <trkpt lat="42.69817" lon="0.79133">
        <ele>1080.6</ele>
        <time>2022-05-22 23:15:04</time>
      </trkpt>
      <trkpt lat="42.69816" lon="0.79131">
        <ele>1080.8</ele>
        <time>2022-05-22 23:15:05</time>
      </trkpt>
      <trkpt lat="42.69814" lon="0.7913">
        <ele>1080.8</ele>
        <time>2022-05-22 23:15:06</time>
      </trkpt>
      <trkpt lat="42.69812" lon="0.7913">
        <ele>1081</ele>
        <time>2022-05-22 23:15:07</time>
      </trkpt>
      <trkpt lat="42.6981" lon="0.79129">
        <ele>1081.2</ele>
        <time>2022-05-22 23:15:08</time>
      </trkpt>
      <trkpt lat="42.69809" lon="0.79127">
        <ele>1081.2</ele>
        <time>2022-05-22 23:15:09</time>
      </trkpt>
      <trkpt lat="42.69806" lon="0.79124">
        <ele>1081.4</ele>
        <time>2022-05-22 23:15:10</time>
      </trkpt>
      <trkpt lat="42.69804" lon="0.79121">
        <ele>1081.6</ele>
        <time>2022-05-22 23:15:11</time>
      </trkpt>
      <trkpt lat="42.69802" lon="0.79118">
        <ele>1081.8</ele>
        <time>2022-05-22 23:15:12</time>
      </trkpt>
      <trkpt lat="42.698" lon="0.79116">
        <ele>1082</ele>
        <time>2022-05-22 23:15:13</time>
      </trkpt>
      <trkpt lat="42.69799" lon="0.79114">
        <ele>1082</ele>
        <time>2022-05-22 23:15:14</time>
      </trkpt>
      <trkpt lat="42.69798" lon="0.79112">
        <ele>1082.2</ele>
        <time>2022-05-22 23:15:15</time>
      </trkpt>
      <trkpt lat="42.69797" lon="0.7911">
        <ele>1082.4</ele>
        <time>2022-05-22 23:15:16</time>
      </trkpt>
      <trkpt lat="42.69797" lon="0.79107">
        <ele>1082.6</ele>
        <time>2022-05-22 23:15:17</time>
      </trkpt>
      <trkpt lat="42.69797" lon="0.79105">
        <ele>1082.8</ele>
        <time>2022-05-22 23:15:18</time>
      </trkpt>
      <trkpt lat="42.69797" lon="0.79104">
        <ele>1082.8</ele>
        <time>2022-05-22 23:15:19</time>
      </trkpt>
      <trkpt lat="42.69797" lon="0.79102">
        <ele>1083</ele>
        <time>2022-05-22 23:15:20</time>
      </trkpt>
      <trkpt lat="42.69797" lon="0.79099">
        <ele>1083.2</ele>
        <time>2022-05-22 23:15:21</time>
      </trkpt>
      <trkpt lat="42.69797" lon="0.79097">
        <ele>1083.4</ele>
        <time>2022-05-22 23:15:22</time>
      </trkpt>
      <trkpt lat="42.69797" lon="0.79094">
        <ele>1083.6</ele>
        <time>2022-05-22 23:15:23</time>
      </trkpt>
      <trkpt lat="42.69798" lon="0.79092">
        <ele>1083.8</ele>
        <time>2022-05-22 23:15:24</time>
      </trkpt>
      <trkpt lat="42.69798" lon="0.79091">
        <ele>1084</ele>
        <time>2022-05-22 23:15:25</time>
      </trkpt>
      <trkpt lat="42.69799" lon="0.79089">
        <ele>1084.2</ele>
        <time>2022-05-22 23:15:26</time>
      </trkpt>
      <trkpt lat="42.69799" lon="0.79087">
        <ele>1084.4</ele>
        <time>2022-05-22 23:15:27</time>
      </trkpt>
      <trkpt lat="42.698" lon="0.79086">
        <ele>1084.6</ele>
        <time>2022-05-22 23:15:28</time>
      </trkpt>
      <trkpt lat="42.698" lon="0.79084">
        <ele>1084.6</ele>
        <time>2022-05-22 23:15:29</time>
      </trkpt>
      <trkpt lat="42.69801" lon="0.79082">
        <ele>1084.8</ele>
        <time>2022-05-22 23:15:30</time>
      </trkpt>
      <trkpt lat="42.69802" lon="0.7908">
        <ele>1085</ele>
        <time>2022-05-22 23:15:31</time>
      </trkpt>
      <trkpt lat="42.69804" lon="0.79078">
        <ele>1085.2</ele>
        <time>2022-05-22 23:15:32</time>
      </trkpt>
      <trkpt lat="42.69805" lon="0.79077">
        <ele>1085.4</ele>
        <time>2022-05-22 23:15:33</time>
      </trkpt>
      <trkpt lat="42.69807" lon="0.79075">
        <ele>1085.6</ele>
        <time>2022-05-22 23:15:34</time>
      </trkpt>
      <trkpt lat="42.69809" lon="0.79074">
        <ele>1085.8</ele>
        <time>2022-05-22 23:15:35</time>
      </trkpt>
      <trkpt lat="42.6981" lon="0.79073">
        <ele>1085.8</ele>
        <time>2022-05-22 23:15:36</time>
      </trkpt>
      <trkpt lat="42.69812" lon="0.79072">
        <ele>1086</ele>
        <time>2022-05-22 23:15:37</time>
      </trkpt>
      <trkpt lat="42.69815" lon="0.79072">
        <ele>1086.2</ele>
        <time>2022-05-22 23:15:38</time>
      </trkpt>
      <trkpt lat="42.69817" lon="0.79071">
        <ele>1086.4</ele>
        <time>2022-05-22 23:15:39</time>
      </trkpt>
      <trkpt lat="42.69819" lon="0.79071">
        <ele>1086.6</ele>
        <time>2022-05-22 23:15:40</time>
      </trkpt>
      <trkpt lat="42.69822" lon="0.79071">
        <ele>1086.6</ele>
        <time>2022-05-22 23:15:41</time>
      </trkpt>
      <trkpt lat="42.69824" lon="0.79071">
        <ele>1086.8</ele>
        <time>2022-05-22 23:15:42</time>
      </trkpt>
      <trkpt lat="42.69826" lon="0.79071">
        <ele>1087</ele>
        <time>2022-05-22 23:15:43</time>
      </trkpt>
      <trkpt lat="42.69828" lon="0.79072">
        <ele>1087.2</ele>
        <time>2022-05-22 23:15:44</time>
      </trkpt>
      <trkpt lat="42.6983" lon="0.79072">
        <ele>1087.4</ele>
        <time>2022-05-22 23:15:45</time>
      </trkpt>
      <trkpt lat="42.69831" lon="0.79073">
        <ele>1087.4</ele>
        <time>2022-05-22 23:15:46</time>
      </trkpt>
      <trkpt lat="42.69833" lon="0.79073">
        <ele>1087.6</ele>
        <time>2022-05-22 23:15:47</time>
      </trkpt>
      <trkpt lat="42.69835" lon="0.79073">
        <ele>1087.8</ele>
        <time>2022-05-22 23:15:48</time>
      </trkpt>
      <trkpt lat="42.69837" lon="0.79074">
        <ele>1088</ele>
        <time>2022-05-22 23:15:49</time>
      </trkpt>
      <trkpt lat="42.69839" lon="0.79075">
        <ele>1088.2</ele>
        <time>2022-05-22 23:15:50</time>
      </trkpt>
      <trkpt lat="42.69841" lon="0.79075">
        <ele>1088.2</ele>
        <time>2022-05-22 23:15:51</time>
      </trkpt>
      <trkpt lat="42.69842" lon="0.79075">
        <ele>1088.4</ele>
        <time>2022-05-22 23:15:52</time>
      </trkpt>
      <trkpt lat="42.69844" lon="0.79076">
        <ele>1088.6</ele>
        <time>2022-05-22 23:15:53</time>
      </trkpt>
      <trkpt lat="42.69845" lon="0.79076">
        <ele>1088.6</ele>
        <time>2022-05-22 23:15:54</time>
      </trkpt>
      <trkpt lat="42.69847" lon="0.79076">
        <ele>1088.8</ele>
        <time>2022-05-22 23:15:55</time>
      </trkpt>
      <trkpt lat="42.69849" lon="0.79077">
        <ele>1089</ele>
        <time>2022-05-22 23:15:56</time>
      </trkpt>
      <trkpt lat="42.69851" lon="0.79076">
        <ele>1089</ele>
        <time>2022-05-22 23:15:57</time>
      </trkpt>
      <trkpt lat="42.69852" lon="0.79076">
        <ele>1089.2</ele>
        <time>2022-05-22 23:15:58</time>
      </trkpt>
      <trkpt lat="42.69854" lon="0.79077">
        <ele>1089.4</ele>
        <time>2022-05-22 23:15:59</time>
      </trkpt>
      <trkpt lat="42.69855" lon="0.79077">
        <ele>1089.6</ele>
        <time>2022-05-22 23:16:00</time>
      </trkpt>
      <trkpt lat="42.69857" lon="0.79077">
        <ele>1089.6</ele>
        <time>2022-05-22 23:16:01</time>
      </trkpt>
      <trkpt lat="42.69859" lon="0.79077">
        <ele>1089.8</ele>
        <time>2022-05-22 23:16:02</time>
      </trkpt>
      <trkpt lat="42.6986" lon="0.79077">
        <ele>1090</ele>
        <time>2022-05-22 23:16:03</time>
      </trkpt>
      <trkpt lat="42.69862" lon="0.79077">
        <ele>1090.2</ele>
        <time>2022-05-22 23:16:04</time>
      </trkpt>
      <trkpt lat="42.69864" lon="0.79078">
        <ele>1090.4</ele>
        <time>2022-05-22 23:16:05</time>
      </trkpt>
      <trkpt lat="42.69866" lon="0.79079">
        <ele>1090.4</ele>
        <time>2022-05-22 23:16:06</time>
      </trkpt>
      <trkpt lat="42.69868" lon="0.79079">
        <ele>1090.6</ele>
        <time>2022-05-22 23:16:07</time>
      </trkpt>
      <trkpt lat="42.6987" lon="0.7908">
        <ele>1090.6</ele>
        <time>2022-05-22 23:16:08</time>
      </trkpt>
      <trkpt lat="42.69871" lon="0.7908">
        <ele>1090.8</ele>
        <time>2022-05-22 23:16:09</time>
      </trkpt>
      <trkpt lat="42.69874" lon="0.7908">
        <ele>1091</ele>
        <time>2022-05-22 23:16:10</time>
      </trkpt>
      <trkpt lat="42.69876" lon="0.79079">
        <ele>1091</ele>
        <time>2022-05-22 23:16:11</time>
      </trkpt>
      <trkpt lat="42.69877" lon="0.79079">
        <ele>1091.2</ele>
        <time>2022-05-22 23:16:12</time>
      </trkpt>
      <trkpt lat="42.69879" lon="0.79078">
        <ele>1091.4</ele>
        <time>2022-05-22 23:16:13</time>
      </trkpt>
      <trkpt lat="42.69881" lon="0.79078">
        <ele>1091.6</ele>
        <time>2022-05-22 23:16:14</time>
      </trkpt>
      <trkpt lat="42.69882" lon="0.79078">
        <ele>1091.6</ele>
        <time>2022-05-22 23:16:15</time>
      </trkpt>
      <trkpt lat="42.69884" lon="0.79077">
        <ele>1091.8</ele>
        <time>2022-05-22 23:16:16</time>
      </trkpt>
      <trkpt lat="42.69886" lon="0.79077">
        <ele>1092</ele>
        <time>2022-05-22 23:16:17</time>
      </trkpt>
      <trkpt lat="42.69888" lon="0.79077">
        <ele>1092</ele>
        <time>2022-05-22 23:16:18</time>
      </trkpt>
      <trkpt lat="42.6989" lon="0.79076">
        <ele>1092.2</ele>
        <time>2022-05-22 23:16:19</time>
      </trkpt>
      <trkpt lat="42.69892" lon="0.79076">
        <ele>1092.2</ele>
        <time>2022-05-22 23:16:20</time>
      </trkpt>
      <trkpt lat="42.69894" lon="0.79075">
        <ele>1092.4</ele>
        <time>2022-05-22 23:16:21</time>
      </trkpt>
      <trkpt lat="42.69896" lon="0.79075">
        <ele>1092.4</ele>
        <time>2022-05-22 23:16:22</time>
      </trkpt>
      <trkpt lat="42.69898" lon="0.79074">
        <ele>1092.6</ele>
        <time>2022-05-22 23:16:23</time>
      </trkpt>
      <trkpt lat="42.69899" lon="0.79074">
        <ele>1092.8</ele>
        <time>2022-05-22 23:16:24</time>
      </trkpt>
      <trkpt lat="42.69901" lon="0.79073">
        <ele>1092.8</ele>
        <time>2022-05-22 23:16:25</time>
      </trkpt>
      <trkpt lat="42.69903" lon="0.79073">
        <ele>1093</ele>
        <time>2022-05-22 23:16:26</time>
      </trkpt>
      <trkpt lat="42.69904" lon="0.79073">
        <ele>1093.2</ele>
        <time>2022-05-22 23:16:27</time>
      </trkpt>
      <trkpt lat="42.69906" lon="0.79072">
        <ele>1093.4</ele>
        <time>2022-05-22 23:16:28</time>
      </trkpt>
      <trkpt lat="42.69908" lon="0.79072">
        <ele>1093.4</ele>
        <time>2022-05-22 23:16:29</time>
      </trkpt>
      <trkpt lat="42.6991" lon="0.79071">
        <ele>1093.6</ele>
        <time>2022-05-22 23:16:30</time>
      </trkpt>
      <trkpt lat="42.69912" lon="0.79071">
        <ele>1093.8</ele>
        <time>2022-05-22 23:16:31</time>
      </trkpt>
      <trkpt lat="42.69913" lon="0.7907">
        <ele>1093.8</ele>
        <time>2022-05-22 23:16:32</time>
      </trkpt>
      <trkpt lat="42.69915" lon="0.7907">
        <ele>1094</ele>
        <time>2022-05-22 23:16:33</time>
      </trkpt>
      <trkpt lat="42.69917" lon="0.79069">
        <ele>1094.2</ele>
        <time>2022-05-22 23:16:34</time>
      </trkpt>
      <trkpt lat="42.69919" lon="0.79069">
        <ele>1094.2</ele>
        <time>2022-05-22 23:16:35</time>
      </trkpt>
      <trkpt lat="42.6992" lon="0.79068">
        <ele>1094.4</ele>
        <time>2022-05-22 23:16:36</time>
      </trkpt>
      <trkpt lat="42.69922" lon="0.79067">
        <ele>1094.6</ele>
        <time>2022-05-22 23:16:37</time>
      </trkpt>
      <trkpt lat="42.69924" lon="0.79066">
        <ele>1094.8</ele>
        <time>2022-05-22 23:16:38</time>
      </trkpt>
      <trkpt lat="42.69926" lon="0.79065">
        <ele>1095</ele>
        <time>2022-05-22 23:16:39</time>
      </trkpt>
      <trkpt lat="42.69927" lon="0.79063">
        <ele>1095.2</ele>
        <time>2022-05-22 23:16:40</time>
      </trkpt>
      <trkpt lat="42.69928" lon="0.79062">
        <ele>1095.2</ele>
        <time>2022-05-22 23:16:41</time>
      </trkpt>
      <trkpt lat="42.6993" lon="0.79061">
        <ele>1095.4</ele>
        <time>2022-05-22 23:16:42</time>
      </trkpt>
      <trkpt lat="42.69932" lon="0.7906">
        <ele>1095.6</ele>
        <time>2022-05-22 23:16:43</time>
      </trkpt>
      <trkpt lat="42.69934" lon="0.79058">
        <ele>1095.6</ele>
        <time>2022-05-22 23:16:44</time>
      </trkpt>
      <trkpt lat="42.69936" lon="0.79057">
        <ele>1095.8</ele>
        <time>2022-05-22 23:16:45</time>
      </trkpt>
      <trkpt lat="42.69938" lon="0.79056">
        <ele>1096</ele>
        <time>2022-05-22 23:16:46</time>
      </trkpt>
      <trkpt lat="42.69939" lon="0.79055">
        <ele>1096.2</ele>
        <time>2022-05-22 23:16:47</time>
      </trkpt>
      <trkpt lat="42.69941" lon="0.79054">
        <ele>1096.4</ele>
        <time>2022-05-22 23:16:48</time>
      </trkpt>
      <trkpt lat="42.69942" lon="0.79052">
        <ele>1096.6</ele>
        <time>2022-05-22 23:16:49</time>
      </trkpt>
      <trkpt lat="42.69944" lon="0.7905">
        <ele>1096.6</ele>
        <time>2022-05-22 23:16:50</time>
      </trkpt>
      <trkpt lat="42.69945" lon="0.79048">
        <ele>1096.8</ele>
        <time>2022-05-22 23:16:51</time>
      </trkpt>
      <trkpt lat="42.69946" lon="0.79046">
        <ele>1097</ele>
        <time>2022-05-22 23:16:52</time>
      </trkpt>
      <trkpt lat="42.69948" lon="0.79044">
        <ele>1097.2</ele>
        <time>2022-05-22 23:16:53</time>
      </trkpt>
      <trkpt lat="42.69949" lon="0.79043">
        <ele>1097.4</ele>
        <time>2022-05-22 23:16:54</time>
      </trkpt>
      <trkpt lat="42.69951" lon="0.79041">
        <ele>1097.6</ele>
        <time>2022-05-22 23:16:55</time>
      </trkpt>
      <trkpt lat="42.69952" lon="0.7904">
        <ele>1097.6</ele>
        <time>2022-05-22 23:16:56</time>
      </trkpt>
      <trkpt lat="42.69953" lon="0.79038">
        <ele>1097.8</ele>
        <time>2022-05-22 23:16:57</time>
      </trkpt>
      <trkpt lat="42.69954" lon="0.79036">
        <ele>1098</ele>
        <time>2022-05-22 23:16:58</time>
      </trkpt>
      <trkpt lat="42.69955" lon="0.79034">
        <ele>1098.2</ele>
        <time>2022-05-22 23:16:59</time>
      </trkpt>
      <trkpt lat="42.69955" lon="0.79032">
        <ele>1098.2</ele>
        <time>2022-05-22 23:17:00</time>
      </trkpt>
      <trkpt lat="42.69956" lon="0.79029">
        <ele>1098.4</ele>
        <time>2022-05-22 23:17:01</time>
      </trkpt>
      <trkpt lat="42.69957" lon="0.79027">
        <ele>1098.6</ele>
        <time>2022-05-22 23:17:02</time>
      </trkpt>
      <trkpt lat="42.69958" lon="0.79026">
        <ele>1098.6</ele>
        <time>2022-05-22 23:17:03</time>
      </trkpt>
      <trkpt lat="42.69959" lon="0.79024">
        <ele>1098.8</ele>
        <time>2022-05-22 23:17:04</time>
      </trkpt>
      <trkpt lat="42.6996" lon="0.79022">
        <ele>1098.8</ele>
        <time>2022-05-22 23:17:05</time>
      </trkpt>
      <trkpt lat="42.69961" lon="0.79019">
        <ele>1099</ele>
        <time>2022-05-22 23:17:06</time>
      </trkpt>
      <trkpt lat="42.69962" lon="0.79017">
        <ele>1099.2</ele>
        <time>2022-05-22 23:17:07</time>
      </trkpt>
      <trkpt lat="42.69963" lon="0.79015">
        <ele>1099.2</ele>
        <time>2022-05-22 23:17:08</time>
      </trkpt>
      <trkpt lat="42.69963" lon="0.79013">
        <ele>1099.4</ele>
        <time>2022-05-22 23:17:09</time>
      </trkpt>
      <trkpt lat="42.69964" lon="0.79011">
        <ele>1099.4</ele>
        <time>2022-05-22 23:17:10</time>
      </trkpt>
      <trkpt lat="42.69965" lon="0.79009">
        <ele>1099.6</ele>
        <time>2022-05-22 23:17:11</time>
      </trkpt>
      <trkpt lat="42.69966" lon="0.79008">
        <ele>1099.8</ele>
        <time>2022-05-22 23:17:12</time>
      </trkpt>
      <trkpt lat="42.69967" lon="0.79006">
        <ele>1100</ele>
        <time>2022-05-22 23:17:13</time>
      </trkpt>
      <trkpt lat="42.69968" lon="0.79004">
        <ele>1100.2</ele>
        <time>2022-05-22 23:17:14</time>
      </trkpt>
      <trkpt lat="42.69969" lon="0.79003">
        <ele>1100.2</ele>
        <time>2022-05-22 23:17:15</time>
      </trkpt>
      <trkpt lat="42.6997" lon="0.79001">
        <ele>1100.4</ele>
        <time>2022-05-22 23:17:16</time>
      </trkpt>
      <trkpt lat="42.69971" lon="0.78999">
        <ele>1100.4</ele>
        <time>2022-05-22 23:17:17</time>
      </trkpt>
      <trkpt lat="42.69972" lon="0.78997">
        <ele>1100.6</ele>
        <time>2022-05-22 23:17:18</time>
      </trkpt>
      <trkpt lat="42.69973" lon="0.78995">
        <ele>1100.6</ele>
        <time>2022-05-22 23:17:19</time>
      </trkpt>
      <trkpt lat="42.69974" lon="0.78992">
        <ele>1100.8</ele>
        <time>2022-05-22 23:17:20</time>
      </trkpt>
      <trkpt lat="42.69975" lon="0.7899">
        <ele>1100.8</ele>
        <time>2022-05-22 23:17:21</time>
      </trkpt>
      <trkpt lat="42.69976" lon="0.78989">
        <ele>1101</ele>
        <time>2022-05-22 23:17:22</time>
      </trkpt>
      <trkpt lat="42.69977" lon="0.78987">
        <ele>1101.2</ele>
        <time>2022-05-22 23:17:23</time>
      </trkpt>
      <trkpt lat="42.69978" lon="0.78985">
        <ele>1101.2</ele>
        <time>2022-05-22 23:17:24</time>
      </trkpt>
      <trkpt lat="42.69979" lon="0.78983">
        <ele>1101.4</ele>
        <time>2022-05-22 23:17:25</time>
      </trkpt>
      <trkpt lat="42.6998" lon="0.78981">
        <ele>1101.6</ele>
        <time>2022-05-22 23:17:26</time>
      </trkpt>
      <trkpt lat="42.6998" lon="0.78979">
        <ele>1101.6</ele>
        <time>2022-05-22 23:17:27</time>
      </trkpt>
      <trkpt lat="42.69981" lon="0.78978">
        <ele>1101.8</ele>
        <time>2022-05-22 23:17:28</time>
      </trkpt>
      <trkpt lat="42.69982" lon="0.78976">
        <ele>1101.8</ele>
        <time>2022-05-22 23:17:29</time>
      </trkpt>
      <trkpt lat="42.69983" lon="0.78974">
        <ele>1102</ele>
        <time>2022-05-22 23:17:30</time>
      </trkpt>
      <trkpt lat="42.69984" lon="0.78973">
        <ele>1102.2</ele>
        <time>2022-05-22 23:17:31</time>
      </trkpt>
      <trkpt lat="42.69985" lon="0.78971">
        <ele>1102.4</ele>
        <time>2022-05-22 23:17:32</time>
      </trkpt>
      <trkpt lat="42.69986" lon="0.78969">
        <ele>1102.4</ele>
        <time>2022-05-22 23:17:33</time>
      </trkpt>
      <trkpt lat="42.69988" lon="0.78967">
        <ele>1102.6</ele>
        <time>2022-05-22 23:17:34</time>
      </trkpt>
      <trkpt lat="42.69988" lon="0.78965">
        <ele>1102.8</ele>
        <time>2022-05-22 23:17:35</time>
      </trkpt>
      <trkpt lat="42.69989" lon="0.78963">
        <ele>1103</ele>
        <time>2022-05-22 23:17:36</time>
      </trkpt>
      <trkpt lat="42.6999" lon="0.78961">
        <ele>1103</ele>
        <time>2022-05-22 23:17:37</time>
      </trkpt>
      <trkpt lat="42.69991" lon="0.78959">
        <ele>1103.2</ele>
        <time>2022-05-22 23:17:38</time>
      </trkpt>
      <trkpt lat="42.69993" lon="0.78957">
        <ele>1103.4</ele>
        <time>2022-05-22 23:17:39</time>
      </trkpt>
      <trkpt lat="42.69993" lon="0.78956">
        <ele>1103.4</ele>
        <time>2022-05-22 23:17:40</time>
      </trkpt>
      <trkpt lat="42.69994" lon="0.78953">
        <ele>1103.6</ele>
        <time>2022-05-22 23:17:41</time>
      </trkpt>
      <trkpt lat="42.69995" lon="0.78951">
        <ele>1103.8</ele>
        <time>2022-05-22 23:17:42</time>
      </trkpt>
      <trkpt lat="42.69996" lon="0.7895">
        <ele>1103.8</ele>
        <time>2022-05-22 23:17:43</time>
      </trkpt>
      <trkpt lat="42.69998" lon="0.78948">
        <ele>1104</ele>
        <time>2022-05-22 23:17:44</time>
      </trkpt>
      <trkpt lat="42.69999" lon="0.78945">
        <ele>1104.2</ele>
        <time>2022-05-22 23:17:45</time>
      </trkpt>
      <trkpt lat="42.7" lon="0.78943">
        <ele>1104.4</ele>
        <time>2022-05-22 23:17:46</time>
      </trkpt>
      <trkpt lat="42.7" lon="0.78941">
        <ele>1104.4</ele>
        <time>2022-05-22 23:17:47</time>
      </trkpt>
      <trkpt lat="42.70001" lon="0.78939">
        <ele>1104.6</ele>
        <time>2022-05-22 23:17:48</time>
      </trkpt>
      <trkpt lat="42.70001" lon="0.78937">
        <ele>1104.8</ele>
        <time>2022-05-22 23:17:49</time>
      </trkpt>
      <trkpt lat="42.70002" lon="0.78934">
        <ele>1105</ele>
        <time>2022-05-22 23:17:50</time>
      </trkpt>
      <trkpt lat="42.70003" lon="0.78932">
        <ele>1105</ele>
        <time>2022-05-22 23:17:51</time>
      </trkpt>
      <trkpt lat="42.70003" lon="0.7893">
        <ele>1105.2</ele>
        <time>2022-05-22 23:17:52</time>
      </trkpt>
      <trkpt lat="42.70004" lon="0.78927">
        <ele>1105.2</ele>
        <time>2022-05-22 23:17:53</time>
      </trkpt>
      <trkpt lat="42.70004" lon="0.78925">
        <ele>1105.4</ele>
        <time>2022-05-22 23:17:54</time>
      </trkpt>
      <trkpt lat="42.70004" lon="0.78922">
        <ele>1105.6</ele>
        <time>2022-05-22 23:17:55</time>
      </trkpt>
      <trkpt lat="42.70004" lon="0.7892">
        <ele>1105.6</ele>
        <time>2022-05-22 23:17:56</time>
      </trkpt>
      <trkpt lat="42.70004" lon="0.78917">
        <ele>1105.8</ele>
        <time>2022-05-22 23:17:57</time>
      </trkpt>
      <trkpt lat="42.70003" lon="0.78915">
        <ele>1105.8</ele>
        <time>2022-05-22 23:17:58</time>
      </trkpt>
      <trkpt lat="42.70003" lon="0.78913">
        <ele>1106</ele>
        <time>2022-05-22 23:17:59</time>
      </trkpt>
      <trkpt lat="42.70002" lon="0.7891">
        <ele>1106</ele>
        <time>2022-05-22 23:18:00</time>
      </trkpt>
      <trkpt lat="42.70002" lon="0.78908">
        <ele>1106.2</ele>
        <time>2022-05-22 23:18:01</time>
      </trkpt>
      <trkpt lat="42.70002" lon="0.78905">
        <ele>1106.2</ele>
        <time>2022-05-22 23:18:02</time>
      </trkpt>
      <trkpt lat="42.70001" lon="0.78903">
        <ele>1106.4</ele>
        <time>2022-05-22 23:18:03</time>
      </trkpt>
      <trkpt lat="42.7" lon="0.78901">
        <ele>1106.4</ele>
        <time>2022-05-22 23:18:04</time>
      </trkpt>
      <trkpt lat="42.69999" lon="0.78899">
        <ele>1106.6</ele>
        <time>2022-05-22 23:18:05</time>
      </trkpt>
      <trkpt lat="42.69998" lon="0.78897">
        <ele>1106.8</ele>
        <time>2022-05-22 23:18:06</time>
      </trkpt>
      <trkpt lat="42.69996" lon="0.78895">
        <ele>1106.8</ele>
        <time>2022-05-22 23:18:07</time>
      </trkpt>
      <trkpt lat="42.69995" lon="0.78893">
        <ele>1107</ele>
        <time>2022-05-22 23:18:08</time>
      </trkpt>
      <trkpt lat="42.69994" lon="0.78892">
        <ele>1107.2</ele>
        <time>2022-05-22 23:18:09</time>
      </trkpt>
      <trkpt lat="42.69993" lon="0.7889">
        <ele>1107.2</ele>
        <time>2022-05-22 23:18:10</time>
      </trkpt>
      <trkpt lat="42.69991" lon="0.78889">
        <ele>1107.4</ele>
        <time>2022-05-22 23:18:11</time>
      </trkpt>
      <trkpt lat="42.69989" lon="0.78888">
        <ele>1107.6</ele>
        <time>2022-05-22 23:18:12</time>
      </trkpt>
      <trkpt lat="42.69988" lon="0.78887">
        <ele>1107.8</ele>
        <time>2022-05-22 23:18:13</time>
      </trkpt>
      <trkpt lat="42.69986" lon="0.78886">
        <ele>1107.8</ele>
        <time>2022-05-22 23:18:14</time>
      </trkpt>
      <trkpt lat="42.69985" lon="0.78885">
        <ele>1107.8</ele>
        <time>2022-05-22 23:18:15</time>
      </trkpt>
      <trkpt lat="42.69983" lon="0.78885">
        <ele>1108</ele>
        <time>2022-05-22 23:18:16</time>
      </trkpt>
      <trkpt lat="42.69981" lon="0.78884">
        <ele>1108.2</ele>
        <time>2022-05-22 23:18:17</time>
      </trkpt>
      <trkpt lat="42.6998" lon="0.78883">
        <ele>1108.4</ele>
        <time>2022-05-22 23:18:18</time>
      </trkpt>
      <trkpt lat="42.69978" lon="0.78883">
        <ele>1108.4</ele>
        <time>2022-05-22 23:18:19</time>
      </trkpt>
      <trkpt lat="42.69976" lon="0.78882">
        <ele>1108.6</ele>
        <time>2022-05-22 23:18:20</time>
      </trkpt>
      <trkpt lat="42.69975" lon="0.78882">
        <ele>1108.6</ele>
        <time>2022-05-22 23:18:21</time>
      </trkpt>
      <trkpt lat="42.69973" lon="0.78882">
        <ele>1108.8</ele>
        <time>2022-05-22 23:18:22</time>
      </trkpt>
      <trkpt lat="42.69971" lon="0.78882">
        <ele>1108.8</ele>
        <time>2022-05-22 23:18:23</time>
      </trkpt>
      <trkpt lat="42.69969" lon="0.78882">
        <ele>1109</ele>
        <time>2022-05-22 23:18:24</time>
      </trkpt>
      <trkpt lat="42.69967" lon="0.78882">
        <ele>1109</ele>
        <time>2022-05-22 23:18:25</time>
      </trkpt>
      <trkpt lat="42.69966" lon="0.78882">
        <ele>1109.2</ele>
        <time>2022-05-22 23:18:26</time>
      </trkpt>
      <trkpt lat="42.69964" lon="0.78883">
        <ele>1109.2</ele>
        <time>2022-05-22 23:18:27</time>
      </trkpt>
      <trkpt lat="42.69962" lon="0.78884">
        <ele>1109.4</ele>
        <time>2022-05-22 23:18:28</time>
      </trkpt>
      <trkpt lat="42.6996" lon="0.78885">
        <ele>1109.6</ele>
        <time>2022-05-22 23:18:29</time>
      </trkpt>
      <trkpt lat="42.69958" lon="0.78886">
        <ele>1109.6</ele>
        <time>2022-05-22 23:18:30</time>
      </trkpt>
      <trkpt lat="42.69956" lon="0.78888">
        <ele>1109.8</ele>
        <time>2022-05-22 23:18:31</time>
      </trkpt>
      <trkpt lat="42.69954" lon="0.78889">
        <ele>1110</ele>
        <time>2022-05-22 23:18:32</time>
      </trkpt>
      <trkpt lat="42.69952" lon="0.78891">
        <ele>1110.2</ele>
        <time>2022-05-22 23:18:33</time>
      </trkpt>
      <trkpt lat="42.6995" lon="0.78893">
        <ele>1110.4</ele>
        <time>2022-05-22 23:18:34</time>
      </trkpt>
      <trkpt lat="42.69948" lon="0.78894">
        <ele>1110.4</ele>
        <time>2022-05-22 23:18:35</time>
      </trkpt>
      <trkpt lat="42.69947" lon="0.78896">
        <ele>1110.6</ele>
        <time>2022-05-22 23:18:36</time>
      </trkpt>
      <trkpt lat="42.69945" lon="0.78897">
        <ele>1110.8</ele>
        <time>2022-05-22 23:18:37</time>
      </trkpt>
      <trkpt lat="42.69943" lon="0.78898">
        <ele>1111</ele>
        <time>2022-05-22 23:18:38</time>
      </trkpt>
      <trkpt lat="42.69941" lon="0.789">
        <ele>1111</ele>
        <time>2022-05-22 23:18:39</time>
      </trkpt>
      <trkpt lat="42.69939" lon="0.78901">
        <ele>1111.2</ele>
        <time>2022-05-22 23:18:40</time>
      </trkpt>
      <trkpt lat="42.69938" lon="0.78902">
        <ele>1111.4</ele>
        <time>2022-05-22 23:18:41</time>
      </trkpt>
      <trkpt lat="42.69936" lon="0.78903">
        <ele>1111.4</ele>
        <time>2022-05-22 23:18:42</time>
      </trkpt>
      <trkpt lat="42.69934" lon="0.78904">
        <ele>1111.6</ele>
        <time>2022-05-22 23:18:43</time>
      </trkpt>
      <trkpt lat="42.69932" lon="0.78905">
        <ele>1111.6</ele>
        <time>2022-05-22 23:18:44</time>
      </trkpt>
      <trkpt lat="42.6993" lon="0.78905">
        <ele>1111.8</ele>
        <time>2022-05-22 23:18:45</time>
      </trkpt>
      <trkpt lat="42.69928" lon="0.78906">
        <ele>1111.8</ele>
        <time>2022-05-22 23:18:46</time>
      </trkpt>
      <trkpt lat="42.69927" lon="0.78906">
        <ele>1112</ele>
        <time>2022-05-22 23:18:47</time>
      </trkpt>
      <trkpt lat="42.69925" lon="0.78906">
        <ele>1112.2</ele>
        <time>2022-05-22 23:18:48</time>
      </trkpt>
      <trkpt lat="42.69922" lon="0.78907">
        <ele>1112.4</ele>
        <time>2022-05-22 23:18:49</time>
      </trkpt>
      <trkpt lat="42.69921" lon="0.78907">
        <ele>1112.6</ele>
        <time>2022-05-22 23:18:50</time>
      </trkpt>
      <trkpt lat="42.69919" lon="0.78907">
        <ele>1112.6</ele>
        <time>2022-05-22 23:18:51</time>
      </trkpt>
      <trkpt lat="42.69916" lon="0.78906">
        <ele>1112.8</ele>
        <time>2022-05-22 23:18:52</time>
      </trkpt>
      <trkpt lat="42.69914" lon="0.78906">
        <ele>1112.8</ele>
        <time>2022-05-22 23:18:53</time>
      </trkpt>
      <trkpt lat="42.69913" lon="0.78906">
        <ele>1113</ele>
        <time>2022-05-22 23:18:54</time>
      </trkpt>
      <trkpt lat="42.6991" lon="0.78906">
        <ele>1113.2</ele>
        <time>2022-05-22 23:18:55</time>
      </trkpt>
      <trkpt lat="42.69908" lon="0.78906">
        <ele>1113.4</ele>
        <time>2022-05-22 23:18:56</time>
      </trkpt>
      <trkpt lat="42.69906" lon="0.78906">
        <ele>1113.4</ele>
        <time>2022-05-22 23:18:57</time>
      </trkpt>
      <trkpt lat="42.69905" lon="0.78906">
        <ele>1113.6</ele>
        <time>2022-05-22 23:18:58</time>
      </trkpt>
      <trkpt lat="42.69903" lon="0.78905">
        <ele>1113.8</ele>
        <time>2022-05-22 23:18:59</time>
      </trkpt>
      <trkpt lat="42.69901" lon="0.78905">
        <ele>1113.8</ele>
        <time>2022-05-22 23:19:00</time>
      </trkpt>
      <trkpt lat="42.69899" lon="0.78904">
        <ele>1114</ele>
        <time>2022-05-22 23:19:01</time>
      </trkpt>
      <trkpt lat="42.69898" lon="0.78903">
        <ele>1114</ele>
        <time>2022-05-22 23:19:02</time>
      </trkpt>
      <trkpt lat="42.69896" lon="0.78903">
        <ele>1114.2</ele>
        <time>2022-05-22 23:19:03</time>
      </trkpt>
      <trkpt lat="42.69894" lon="0.78902">
        <ele>1114.2</ele>
        <time>2022-05-22 23:19:04</time>
      </trkpt>
      <trkpt lat="42.69892" lon="0.78901">
        <ele>1114.2</ele>
        <time>2022-05-22 23:19:05</time>
      </trkpt>
      <trkpt lat="42.6989" lon="0.789">
        <ele>1114.4</ele>
        <time>2022-05-22 23:19:06</time>
      </trkpt>
      <trkpt lat="42.69889" lon="0.78899">
        <ele>1114.6</ele>
        <time>2022-05-22 23:19:07</time>
      </trkpt>
      <trkpt lat="42.69887" lon="0.78898">
        <ele>1114.6</ele>
        <time>2022-05-22 23:19:08</time>
      </trkpt>
      <trkpt lat="42.69886" lon="0.78896">
        <ele>1114.8</ele>
        <time>2022-05-22 23:19:09</time>
      </trkpt>
      <trkpt lat="42.69884" lon="0.78895">
        <ele>1114.8</ele>
        <time>2022-05-22 23:19:10</time>
      </trkpt>
      <trkpt lat="42.69883" lon="0.78893">
        <ele>1115</ele>
        <time>2022-05-22 23:19:11</time>
      </trkpt>
      <trkpt lat="42.69881" lon="0.78892">
        <ele>1115</ele>
        <time>2022-05-22 23:19:12</time>
      </trkpt>
      <trkpt lat="42.6988" lon="0.78892">
        <ele>1115.2</ele>
        <time>2022-05-22 23:19:13</time>
      </trkpt>
      <trkpt lat="42.69878" lon="0.78891">
        <ele>1115.4</ele>
        <time>2022-05-22 23:19:14</time>
      </trkpt>
      <trkpt lat="42.69876" lon="0.7889">
        <ele>1115.4</ele>
        <time>2022-05-22 23:19:15</time>
      </trkpt>
      <trkpt lat="42.69874" lon="0.78889">
        <ele>1115.6</ele>
        <time>2022-05-22 23:19:16</time>
      </trkpt>
      <trkpt lat="42.69872" lon="0.78888">
        <ele>1115.8</ele>
        <time>2022-05-22 23:19:17</time>
      </trkpt>
      <trkpt lat="42.69871" lon="0.78887">
        <ele>1115.8</ele>
        <time>2022-05-22 23:19:18</time>
      </trkpt>
      <trkpt lat="42.69869" lon="0.78886">
        <ele>1116</ele>
        <time>2022-05-22 23:19:19</time>
      </trkpt>
      <trkpt lat="42.69868" lon="0.78885">
        <ele>1116.2</ele>
        <time>2022-05-22 23:19:20</time>
      </trkpt>
      <trkpt lat="42.69867" lon="0.78884">
        <ele>1116.2</ele>
        <time>2022-05-22 23:19:21</time>
      </trkpt>
      <trkpt lat="42.69865" lon="0.78883">
        <ele>1116.4</ele>
        <time>2022-05-22 23:19:22</time>
      </trkpt>
      <trkpt lat="42.69863" lon="0.78883">
        <ele>1116.6</ele>
        <time>2022-05-22 23:19:23</time>
      </trkpt>
      <trkpt lat="42.69861" lon="0.78882">
        <ele>1116.8</ele>
        <time>2022-05-22 23:19:24</time>
      </trkpt>
      <trkpt lat="42.69859" lon="0.78881">
        <ele>1116.8</ele>
        <time>2022-05-22 23:19:25</time>
      </trkpt>
      <trkpt lat="42.69857" lon="0.7888">
        <ele>1117</ele>
        <time>2022-05-22 23:19:26</time>
      </trkpt>
      <trkpt lat="42.69856" lon="0.78879">
        <ele>1117.2</ele>
        <time>2022-05-22 23:19:27</time>
      </trkpt>
      <trkpt lat="42.69854" lon="0.78879">
        <ele>1117.2</ele>
        <time>2022-05-22 23:19:28</time>
      </trkpt>
      <trkpt lat="42.69852" lon="0.78877">
        <ele>1117.4</ele>
        <time>2022-05-22 23:19:29</time>
      </trkpt>
      <trkpt lat="42.69851" lon="0.78876">
        <ele>1117.6</ele>
        <time>2022-05-22 23:19:30</time>
      </trkpt>
      <trkpt lat="42.69849" lon="0.78875">
        <ele>1117.6</ele>
        <time>2022-05-22 23:19:31</time>
      </trkpt>
      <trkpt lat="42.69847" lon="0.78874">
        <ele>1117.8</ele>
        <time>2022-05-22 23:19:32</time>
      </trkpt>
      <trkpt lat="42.69845" lon="0.78873">
        <ele>1117.8</ele>
        <time>2022-05-22 23:19:33</time>
      </trkpt>
      <trkpt lat="42.69843" lon="0.78873">
        <ele>1118</ele>
        <time>2022-05-22 23:19:34</time>
      </trkpt>
      <trkpt lat="42.69841" lon="0.78872">
        <ele>1118.2</ele>
        <time>2022-05-22 23:19:35</time>
      </trkpt>
      <trkpt lat="42.69839" lon="0.78872">
        <ele>1118.2</ele>
        <time>2022-05-22 23:19:36</time>
      </trkpt>
      <trkpt lat="42.69837" lon="0.78871">
        <ele>1118.4</ele>
        <time>2022-05-22 23:19:37</time>
      </trkpt>
      <trkpt lat="42.69834" lon="0.78871">
        <ele>1118.4</ele>
        <time>2022-05-22 23:19:38</time>
      </trkpt>
      <trkpt lat="42.69832" lon="0.78871">
        <ele>1118.6</ele>
        <time>2022-05-22 23:19:39</time>
      </trkpt>
      <trkpt lat="42.6983" lon="0.7887">
        <ele>1118.6</ele>
        <time>2022-05-22 23:19:40</time>
      </trkpt>
      <trkpt lat="42.69828" lon="0.7887">
        <ele>1118.8</ele>
        <time>2022-05-22 23:19:41</time>
      </trkpt>
      <trkpt lat="42.69826" lon="0.78869">
        <ele>1118.8</ele>
        <time>2022-05-22 23:19:42</time>
      </trkpt>
      <trkpt lat="42.69824" lon="0.78868">
        <ele>1119</ele>
        <time>2022-05-22 23:19:43</time>
      </trkpt>
      <trkpt lat="42.69822" lon="0.78868">
        <ele>1119</ele>
        <time>2022-05-22 23:19:44</time>
      </trkpt>
      <trkpt lat="42.69819" lon="0.78868">
        <ele>1119</ele>
        <time>2022-05-22 23:19:45</time>
      </trkpt>
      <trkpt lat="42.69817" lon="0.78867">
        <ele>1119.2</ele>
        <time>2022-05-22 23:19:46</time>
      </trkpt>
      <trkpt lat="42.69815" lon="0.78868">
        <ele>1119.2</ele>
        <time>2022-05-22 23:19:47</time>
      </trkpt>
      <trkpt lat="42.69813" lon="0.78868">
        <ele>1119.4</ele>
        <time>2022-05-22 23:19:48</time>
      </trkpt>
      <trkpt lat="42.69811" lon="0.78868">
        <ele>1119.4</ele>
        <time>2022-05-22 23:19:49</time>
      </trkpt>
      <trkpt lat="42.69809" lon="0.78869">
        <ele>1119.6</ele>
        <time>2022-05-22 23:19:50</time>
      </trkpt>
      <trkpt lat="42.69807" lon="0.78869">
        <ele>1119.6</ele>
        <time>2022-05-22 23:19:51</time>
      </trkpt>
      <trkpt lat="42.69805" lon="0.7887">
        <ele>1119.8</ele>
        <time>2022-05-22 23:19:52</time>
      </trkpt>
      <trkpt lat="42.69803" lon="0.7887">
        <ele>1120</ele>
        <time>2022-05-22 23:19:53</time>
      </trkpt>
      <trkpt lat="42.69801" lon="0.78871">
        <ele>1120</ele>
        <time>2022-05-22 23:19:54</time>
      </trkpt>
      <trkpt lat="42.69799" lon="0.78871">
        <ele>1120.2</ele>
        <time>2022-05-22 23:19:55</time>
      </trkpt>
      <trkpt lat="42.69797" lon="0.78872">
        <ele>1120.2</ele>
        <time>2022-05-22 23:19:56</time>
      </trkpt>
      <trkpt lat="42.69795" lon="0.78872">
        <ele>1120.4</ele>
        <time>2022-05-22 23:19:57</time>
      </trkpt>
      <trkpt lat="42.69793" lon="0.78873">
        <ele>1120.4</ele>
        <time>2022-05-22 23:19:58</time>
      </trkpt>
      <trkpt lat="42.69791" lon="0.78874">
        <ele>1120.6</ele>
        <time>2022-05-22 23:19:59</time>
      </trkpt>
      <trkpt lat="42.69788" lon="0.78874">
        <ele>1120.8</ele>
        <time>2022-05-22 23:20:00</time>
      </trkpt>
      <trkpt lat="42.69786" lon="0.78875">
        <ele>1120.8</ele>
        <time>2022-05-22 23:20:01</time>
      </trkpt>
      <trkpt lat="42.69785" lon="0.78875">
        <ele>1121</ele>
        <time>2022-05-22 23:20:02</time>
      </trkpt>
      <trkpt lat="42.69783" lon="0.78876">
        <ele>1121</ele>
        <time>2022-05-22 23:20:03</time>
      </trkpt>
      <trkpt lat="42.69781" lon="0.78877">
        <ele>1121.2</ele>
        <time>2022-05-22 23:20:04</time>
      </trkpt>
      <trkpt lat="42.69779" lon="0.78878">
        <ele>1121.2</ele>
        <time>2022-05-22 23:20:05</time>
      </trkpt>
      <trkpt lat="42.69778" lon="0.78879">
        <ele>1121.4</ele>
        <time>2022-05-22 23:20:06</time>
      </trkpt>
      <trkpt lat="42.69776" lon="0.7888">
        <ele>1121.6</ele>
        <time>2022-05-22 23:20:07</time>
      </trkpt>
      <trkpt lat="42.69774" lon="0.7888">
        <ele>1121.6</ele>
        <time>2022-05-22 23:20:08</time>
      </trkpt>
      <trkpt lat="42.69773" lon="0.78881">
        <ele>1121.8</ele>
        <time>2022-05-22 23:20:09</time>
      </trkpt>
      <trkpt lat="42.69771" lon="0.78882">
        <ele>1122</ele>
        <time>2022-05-22 23:20:10</time>
      </trkpt>
      <trkpt lat="42.6977" lon="0.78883">
        <ele>1122</ele>
        <time>2022-05-22 23:20:11</time>
      </trkpt>
      <trkpt lat="42.69769" lon="0.78884">
        <ele>1122.2</ele>
        <time>2022-05-22 23:20:12</time>
      </trkpt>
      <trkpt lat="42.69767" lon="0.78885">
        <ele>1122.4</ele>
        <time>2022-05-22 23:20:13</time>
      </trkpt>
      <trkpt lat="42.69766" lon="0.78886">
        <ele>1122.6</ele>
        <time>2022-05-22 23:20:14</time>
      </trkpt>
      <trkpt lat="42.69764" lon="0.78886">
        <ele>1122.6</ele>
        <time>2022-05-22 23:20:15</time>
      </trkpt>
      <trkpt lat="42.69762" lon="0.78886">
        <ele>1122.8</ele>
        <time>2022-05-22 23:20:16</time>
      </trkpt>
      <trkpt lat="42.6976" lon="0.78886">
        <ele>1123</ele>
        <time>2022-05-22 23:20:17</time>
      </trkpt>
      <trkpt lat="42.69758" lon="0.78886">
        <ele>1123.2</ele>
        <time>2022-05-22 23:20:18</time>
      </trkpt>
      <trkpt lat="42.69756" lon="0.78887">
        <ele>1123.2</ele>
        <time>2022-05-22 23:20:19</time>
      </trkpt>
      <trkpt lat="42.69753" lon="0.78887">
        <ele>1123.4</ele>
        <time>2022-05-22 23:20:20</time>
      </trkpt>
      <trkpt lat="42.69751" lon="0.78888">
        <ele>1123.6</ele>
        <time>2022-05-22 23:20:21</time>
      </trkpt>
      <trkpt lat="42.69749" lon="0.78888">
        <ele>1123.6</ele>
        <time>2022-05-22 23:20:22</time>
      </trkpt>
      <trkpt lat="42.69747" lon="0.78888">
        <ele>1123.8</ele>
        <time>2022-05-22 23:20:23</time>
      </trkpt>
      <trkpt lat="42.69745" lon="0.78889">
        <ele>1124</ele>
        <time>2022-05-22 23:20:24</time>
      </trkpt>
      <trkpt lat="42.69743" lon="0.78889">
        <ele>1124</ele>
        <time>2022-05-22 23:20:25</time>
      </trkpt>
      <trkpt lat="42.69741" lon="0.78889">
        <ele>1124.2</ele>
        <time>2022-05-22 23:20:26</time>
      </trkpt>
      <trkpt lat="42.69739" lon="0.78888">
        <ele>1124.4</ele>
        <time>2022-05-22 23:20:27</time>
      </trkpt>
      <trkpt lat="42.69738" lon="0.78888">
        <ele>1124.6</ele>
        <time>2022-05-22 23:20:28</time>
      </trkpt>
      <trkpt lat="42.69736" lon="0.78888">
        <ele>1124.6</ele>
        <time>2022-05-22 23:20:29</time>
      </trkpt>
      <trkpt lat="42.69734" lon="0.78887">
        <ele>1124.8</ele>
        <time>2022-05-22 23:20:30</time>
      </trkpt>
      <trkpt lat="42.69732" lon="0.78887">
        <ele>1125</ele>
        <time>2022-05-22 23:20:31</time>
      </trkpt>
      <trkpt lat="42.6973" lon="0.78886">
        <ele>1125</ele>
        <time>2022-05-22 23:20:32</time>
      </trkpt>
      <trkpt lat="42.69728" lon="0.78885">
        <ele>1125.2</ele>
        <time>2022-05-22 23:20:33</time>
      </trkpt>
      <trkpt lat="42.69727" lon="0.78884">
        <ele>1125.4</ele>
        <time>2022-05-22 23:20:34</time>
      </trkpt>
      <trkpt lat="42.69725" lon="0.78883">
        <ele>1125.4</ele>
        <time>2022-05-22 23:20:35</time>
      </trkpt>
      <trkpt lat="42.69723" lon="0.78882">
        <ele>1125.6</ele>
        <time>2022-05-22 23:20:36</time>
      </trkpt>
      <trkpt lat="42.69721" lon="0.78881">
        <ele>1125.8</ele>
        <time>2022-05-22 23:20:37</time>
      </trkpt>
      <trkpt lat="42.69719" lon="0.78879">
        <ele>1125.8</ele>
        <time>2022-05-22 23:20:38</time>
      </trkpt>
      <trkpt lat="42.69717" lon="0.78878">
        <ele>1126</ele>
        <time>2022-05-22 23:20:39</time>
      </trkpt>
      <trkpt lat="42.69716" lon="0.78877">
        <ele>1126.2</ele>
        <time>2022-05-22 23:20:40</time>
      </trkpt>
      <trkpt lat="42.69714" lon="0.78875">
        <ele>1126.2</ele>
        <time>2022-05-22 23:20:41</time>
      </trkpt>
      <trkpt lat="42.69712" lon="0.78874">
        <ele>1126.4</ele>
        <time>2022-05-22 23:20:42</time>
      </trkpt>
      <trkpt lat="42.6971" lon="0.78873">
        <ele>1126.6</ele>
        <time>2022-05-22 23:20:43</time>
      </trkpt>
      <trkpt lat="42.69709" lon="0.78871">
        <ele>1126.8</ele>
        <time>2022-05-22 23:20:44</time>
      </trkpt>
      <trkpt lat="42.69708" lon="0.7887">
        <ele>1126.8</ele>
        <time>2022-05-22 23:20:45</time>
      </trkpt>
      <trkpt lat="42.69706" lon="0.78868">
        <ele>1127</ele>
        <time>2022-05-22 23:20:46</time>
      </trkpt>
      <trkpt lat="42.69705" lon="0.78866">
        <ele>1127.2</ele>
        <time>2022-05-22 23:20:47</time>
      </trkpt>
      <trkpt lat="42.69703" lon="0.78864">
        <ele>1127.4</ele>
        <time>2022-05-22 23:20:48</time>
      </trkpt>
      <trkpt lat="42.69702" lon="0.78863">
        <ele>1127.4</ele>
        <time>2022-05-22 23:20:49</time>
      </trkpt>
      <trkpt lat="42.697" lon="0.78861">
        <ele>1127.6</ele>
        <time>2022-05-22 23:20:50</time>
      </trkpt>
      <trkpt lat="42.69699" lon="0.78859">
        <ele>1127.8</ele>
        <time>2022-05-22 23:20:51</time>
      </trkpt>
      <trkpt lat="42.69697" lon="0.78857">
        <ele>1128</ele>
        <time>2022-05-22 23:20:52</time>
      </trkpt>
      <trkpt lat="42.69695" lon="0.78855">
        <ele>1128</ele>
        <time>2022-05-22 23:20:53</time>
      </trkpt>
      <trkpt lat="42.69693" lon="0.78853">
        <ele>1128.2</ele>
        <time>2022-05-22 23:20:54</time>
      </trkpt>
      <trkpt lat="42.69692" lon="0.78852">
        <ele>1128.4</ele>
        <time>2022-05-22 23:20:55</time>
      </trkpt>
      <trkpt lat="42.6969" lon="0.78851">
        <ele>1128.4</ele>
        <time>2022-05-22 23:20:56</time>
      </trkpt>
      <trkpt lat="42.69688" lon="0.78849">
        <ele>1128.6</ele>
        <time>2022-05-22 23:20:57</time>
      </trkpt>
      <trkpt lat="42.69686" lon="0.78847">
        <ele>1128.8</ele>
        <time>2022-05-22 23:20:58</time>
      </trkpt>
      <trkpt lat="42.69684" lon="0.78846">
        <ele>1129</ele>
        <time>2022-05-22 23:20:59</time>
      </trkpt>
      <trkpt lat="42.69683" lon="0.78845">
        <ele>1129.2</ele>
        <time>2022-05-22 23:21:00</time>
      </trkpt>
      <trkpt lat="42.69681" lon="0.78843">
        <ele>1129.2</ele>
        <time>2022-05-22 23:21:01</time>
      </trkpt>
      <trkpt lat="42.6968" lon="0.78841">
        <ele>1129.4</ele>
        <time>2022-05-22 23:21:02</time>
      </trkpt>
      <trkpt lat="42.69678" lon="0.7884">
        <ele>1129.6</ele>
        <time>2022-05-22 23:21:03</time>
      </trkpt>
      <trkpt lat="42.69676" lon="0.78839">
        <ele>1129.6</ele>
        <time>2022-05-22 23:21:04</time>
      </trkpt>
      <trkpt lat="42.69674" lon="0.78838">
        <ele>1129.8</ele>
        <time>2022-05-22 23:21:05</time>
      </trkpt>
      <trkpt lat="42.69672" lon="0.78837">
        <ele>1129.8</ele>
        <time>2022-05-22 23:21:06</time>
      </trkpt>
      <trkpt lat="42.6967" lon="0.78836">
        <ele>1130</ele>
        <time>2022-05-22 23:21:07</time>
      </trkpt>
      <trkpt lat="42.69668" lon="0.78835">
        <ele>1130.2</ele>
        <time>2022-05-22 23:21:08</time>
      </trkpt>
      <trkpt lat="42.69666" lon="0.78834">
        <ele>1130.2</ele>
        <time>2022-05-22 23:21:09</time>
      </trkpt>
      <trkpt lat="42.69664" lon="0.78833">
        <ele>1130.4</ele>
        <time>2022-05-22 23:21:10</time>
      </trkpt>
      <trkpt lat="42.69662" lon="0.78833">
        <ele>1130.4</ele>
        <time>2022-05-22 23:21:11</time>
      </trkpt>
      <trkpt lat="42.6966" lon="0.78832">
        <ele>1130.6</ele>
        <time>2022-05-22 23:21:12</time>
      </trkpt>
      <trkpt lat="42.69658" lon="0.78832">
        <ele>1130.8</ele>
        <time>2022-05-22 23:21:13</time>
      </trkpt>
      <trkpt lat="42.69656" lon="0.78831">
        <ele>1130.8</ele>
        <time>2022-05-22 23:21:14</time>
      </trkpt>
      <trkpt lat="42.69654" lon="0.7883">
        <ele>1131</ele>
        <time>2022-05-22 23:21:15</time>
      </trkpt>
      <trkpt lat="42.69652" lon="0.78829">
        <ele>1131.2</ele>
        <time>2022-05-22 23:21:16</time>
      </trkpt>
      <trkpt lat="42.6965" lon="0.78828">
        <ele>1131.4</ele>
        <time>2022-05-22 23:21:17</time>
      </trkpt>
      <trkpt lat="42.69648" lon="0.78828">
        <ele>1131.4</ele>
        <time>2022-05-22 23:21:18</time>
      </trkpt>
      <trkpt lat="42.69646" lon="0.78827">
        <ele>1131.6</ele>
        <time>2022-05-22 23:21:19</time>
      </trkpt>
      <trkpt lat="42.69644" lon="0.78826">
        <ele>1131.8</ele>
        <time>2022-05-22 23:21:20</time>
      </trkpt>
      <trkpt lat="42.69642" lon="0.78826">
        <ele>1131.8</ele>
        <time>2022-05-22 23:21:21</time>
      </trkpt>
      <trkpt lat="42.6964" lon="0.78825">
        <ele>1132</ele>
        <time>2022-05-22 23:21:22</time>
      </trkpt>
      <trkpt lat="42.69638" lon="0.78825">
        <ele>1132.2</ele>
        <time>2022-05-22 23:21:23</time>
      </trkpt>
      <trkpt lat="42.69636" lon="0.78824">
        <ele>1132.2</ele>
        <time>2022-05-22 23:21:24</time>
      </trkpt>
      <trkpt lat="42.69634" lon="0.78824">
        <ele>1132.4</ele>
        <time>2022-05-22 23:21:25</time>
      </trkpt>
      <trkpt lat="42.69632" lon="0.78823">
        <ele>1132.6</ele>
        <time>2022-05-22 23:21:26</time>
      </trkpt>
      <trkpt lat="42.6963" lon="0.78823">
        <ele>1132.8</ele>
        <time>2022-05-22 23:21:27</time>
      </trkpt>
      <trkpt lat="42.69628" lon="0.78822">
        <ele>1132.8</ele>
        <time>2022-05-22 23:21:28</time>
      </trkpt>
      <trkpt lat="42.69626" lon="0.78822">
        <ele>1133</ele>
        <time>2022-05-22 23:21:29</time>
      </trkpt>
      <trkpt lat="42.69624" lon="0.78821">
        <ele>1133.2</ele>
        <time>2022-05-22 23:21:30</time>
      </trkpt>
      <trkpt lat="42.69622" lon="0.78821">
        <ele>1133.2</ele>
        <time>2022-05-22 23:21:31</time>
      </trkpt>
      <trkpt lat="42.69619" lon="0.78821">
        <ele>1133.4</ele>
        <time>2022-05-22 23:21:32</time>
      </trkpt>
      <trkpt lat="42.69618" lon="0.7882">
        <ele>1133.4</ele>
        <time>2022-05-22 23:21:33</time>
      </trkpt>
      <trkpt lat="42.69616" lon="0.7882">
        <ele>1133.6</ele>
        <time>2022-05-22 23:21:34</time>
      </trkpt>
      <trkpt lat="42.69613" lon="0.7882">
        <ele>1133.8</ele>
        <time>2022-05-22 23:21:35</time>
      </trkpt>
      <trkpt lat="42.69611" lon="0.78821">
        <ele>1134</ele>
        <time>2022-05-22 23:21:36</time>
      </trkpt>
      <trkpt lat="42.69609" lon="0.78821">
        <ele>1134</ele>
        <time>2022-05-22 23:21:37</time>
      </trkpt>
      <trkpt lat="42.69607" lon="0.78821">
        <ele>1134.2</ele>
        <time>2022-05-22 23:21:38</time>
      </trkpt>
      <trkpt lat="42.69605" lon="0.78821">
        <ele>1134.4</ele>
        <time>2022-05-22 23:21:39</time>
      </trkpt>
      <trkpt lat="42.69603" lon="0.78821">
        <ele>1134.4</ele>
        <time>2022-05-22 23:21:40</time>
      </trkpt>
      <trkpt lat="42.69601" lon="0.78821">
        <ele>1134.6</ele>
        <time>2022-05-22 23:21:41</time>
      </trkpt>
      <trkpt lat="42.69599" lon="0.78821">
        <ele>1134.6</ele>
        <time>2022-05-22 23:21:42</time>
      </trkpt>
      <trkpt lat="42.69597" lon="0.78821">
        <ele>1134.8</ele>
        <time>2022-05-22 23:21:43</time>
      </trkpt>
      <trkpt lat="42.69595" lon="0.78822">
        <ele>1135</ele>
        <time>2022-05-22 23:21:44</time>
      </trkpt>
      <trkpt lat="42.69593" lon="0.78822">
        <ele>1135</ele>
        <time>2022-05-22 23:21:45</time>
      </trkpt>
      <trkpt lat="42.69591" lon="0.78822">
        <ele>1135.2</ele>
        <time>2022-05-22 23:21:46</time>
      </trkpt>
      <trkpt lat="42.69589" lon="0.78823">
        <ele>1135.4</ele>
        <time>2022-05-22 23:21:47</time>
      </trkpt>
      <trkpt lat="42.69587" lon="0.78823">
        <ele>1135.4</ele>
        <time>2022-05-22 23:21:48</time>
      </trkpt>
      <trkpt lat="42.69584" lon="0.78823">
        <ele>1135.6</ele>
        <time>2022-05-22 23:21:49</time>
      </trkpt>
      <trkpt lat="42.69582" lon="0.78823">
        <ele>1135.6</ele>
        <time>2022-05-22 23:21:50</time>
      </trkpt>
      <trkpt lat="42.6958" lon="0.78824">
        <ele>1135.8</ele>
        <time>2022-05-22 23:21:51</time>
      </trkpt>
      <trkpt lat="42.69578" lon="0.78824">
        <ele>1136</ele>
        <time>2022-05-22 23:21:52</time>
      </trkpt>
      <trkpt lat="42.69576" lon="0.78824">
        <ele>1136</ele>
        <time>2022-05-22 23:21:53</time>
      </trkpt>
      <trkpt lat="42.69574" lon="0.78823">
        <ele>1136.2</ele>
        <time>2022-05-22 23:21:54</time>
      </trkpt>
      <trkpt lat="42.69572" lon="0.78824">
        <ele>1136.4</ele>
        <time>2022-05-22 23:21:55</time>
      </trkpt>
      <trkpt lat="42.6957" lon="0.78824">
        <ele>1136.4</ele>
        <time>2022-05-22 23:21:56</time>
      </trkpt>
      <trkpt lat="42.69568" lon="0.78824">
        <ele>1136.6</ele>
        <time>2022-05-22 23:21:57</time>
      </trkpt>
      <trkpt lat="42.69566" lon="0.78824">
        <ele>1136.8</ele>
        <time>2022-05-22 23:21:58</time>
      </trkpt>
      <trkpt lat="42.69564" lon="0.78825">
        <ele>1136.8</ele>
        <time>2022-05-22 23:21:59</time>
      </trkpt>
      <trkpt lat="42.69562" lon="0.78824">
        <ele>1137</ele>
        <time>2022-05-22 23:22:00</time>
      </trkpt>
      <trkpt lat="42.6956" lon="0.78824">
        <ele>1137.2</ele>
        <time>2022-05-22 23:22:01</time>
      </trkpt>
      <trkpt lat="42.69558" lon="0.78824">
        <ele>1137.2</ele>
        <time>2022-05-22 23:22:02</time>
      </trkpt>
      <trkpt lat="42.69556" lon="0.78824">
        <ele>1137.4</ele>
        <time>2022-05-22 23:22:03</time>
      </trkpt>
      <trkpt lat="42.69554" lon="0.78824">
        <ele>1137.4</ele>
        <time>2022-05-22 23:22:04</time>
      </trkpt>
      <trkpt lat="42.69552" lon="0.78824">
        <ele>1137.6</ele>
        <time>2022-05-22 23:22:05</time>
      </trkpt>
      <trkpt lat="42.6955" lon="0.78824">
        <ele>1137.8</ele>
        <time>2022-05-22 23:22:06</time>
      </trkpt>
      <trkpt lat="42.69548" lon="0.78823">
        <ele>1137.8</ele>
        <time>2022-05-22 23:22:07</time>
      </trkpt>
      <trkpt lat="42.69546" lon="0.78823">
        <ele>1138</ele>
        <time>2022-05-22 23:22:08</time>
      </trkpt>
      <trkpt lat="42.69544" lon="0.78823">
        <ele>1138.2</ele>
        <time>2022-05-22 23:22:09</time>
      </trkpt>
      <trkpt lat="42.69542" lon="0.78823">
        <ele>1138.4</ele>
        <time>2022-05-22 23:22:10</time>
      </trkpt>
      <trkpt lat="42.6954" lon="0.78822">
        <ele>1138.4</ele>
        <time>2022-05-22 23:22:11</time>
      </trkpt>
      <trkpt lat="42.69538" lon="0.78822">
        <ele>1138.6</ele>
        <time>2022-05-22 23:22:12</time>
      </trkpt>
      <trkpt lat="42.69536" lon="0.78822">
        <ele>1138.8</ele>
        <time>2022-05-22 23:22:13</time>
      </trkpt>
      <trkpt lat="42.69534" lon="0.78821">
        <ele>1138.8</ele>
        <time>2022-05-22 23:22:14</time>
      </trkpt>
      <trkpt lat="42.69532" lon="0.78821">
        <ele>1139</ele>
        <time>2022-05-22 23:22:15</time>
      </trkpt>
      <trkpt lat="42.6953" lon="0.78821">
        <ele>1139.2</ele>
        <time>2022-05-22 23:22:16</time>
      </trkpt>
      <trkpt lat="42.69528" lon="0.7882">
        <ele>1139.2</ele>
        <time>2022-05-22 23:22:17</time>
      </trkpt>
      <trkpt lat="42.69526" lon="0.7882">
        <ele>1139.4</ele>
        <time>2022-05-22 23:22:18</time>
      </trkpt>
      <trkpt lat="42.69524" lon="0.78819">
        <ele>1139.4</ele>
        <time>2022-05-22 23:22:19</time>
      </trkpt>
      <trkpt lat="42.69522" lon="0.78819">
        <ele>1139.6</ele>
        <time>2022-05-22 23:22:20</time>
      </trkpt>
      <trkpt lat="42.6952" lon="0.78818">
        <ele>1139.8</ele>
        <time>2022-05-22 23:22:21</time>
      </trkpt>
      <trkpt lat="42.69518" lon="0.78817">
        <ele>1139.8</ele>
        <time>2022-05-22 23:22:22</time>
      </trkpt>
      <trkpt lat="42.69515" lon="0.78817">
        <ele>1140</ele>
        <time>2022-05-22 23:22:23</time>
      </trkpt>
      <trkpt lat="42.69513" lon="0.78816">
        <ele>1140.2</ele>
        <time>2022-05-22 23:22:24</time>
      </trkpt>
      <trkpt lat="42.69511" lon="0.78816">
        <ele>1140.2</ele>
        <time>2022-05-22 23:22:25</time>
      </trkpt>
      <trkpt lat="42.6951" lon="0.78815">
        <ele>1140.4</ele>
        <time>2022-05-22 23:22:26</time>
      </trkpt>
      <trkpt lat="42.69507" lon="0.78815">
        <ele>1140.6</ele>
        <time>2022-05-22 23:22:27</time>
      </trkpt>
      <trkpt lat="42.69505" lon="0.78815">
        <ele>1140.8</ele>
        <time>2022-05-22 23:22:28</time>
      </trkpt>
      <trkpt lat="42.69503" lon="0.78815">
        <ele>1140.8</ele>
        <time>2022-05-22 23:22:29</time>
      </trkpt>
      <trkpt lat="42.69502" lon="0.78814">
        <ele>1141</ele>
        <time>2022-05-22 23:22:30</time>
      </trkpt>
      <trkpt lat="42.695" lon="0.78813">
        <ele>1141.2</ele>
        <time>2022-05-22 23:22:31</time>
      </trkpt>
      <trkpt lat="42.69498" lon="0.78812">
        <ele>1141.2</ele>
        <time>2022-05-22 23:22:32</time>
      </trkpt>
      <trkpt lat="42.69496" lon="0.78811">
        <ele>1141.4</ele>
        <time>2022-05-22 23:22:33</time>
      </trkpt>
      <trkpt lat="42.69494" lon="0.78811">
        <ele>1141.6</ele>
        <time>2022-05-22 23:22:34</time>
      </trkpt>
      <trkpt lat="42.69492" lon="0.7881">
        <ele>1141.8</ele>
        <time>2022-05-22 23:22:35</time>
      </trkpt>
      <trkpt lat="42.6949" lon="0.78809">
        <ele>1141.8</ele>
        <time>2022-05-22 23:22:36</time>
      </trkpt>
      <trkpt lat="42.69488" lon="0.78808">
        <ele>1142</ele>
        <time>2022-05-22 23:22:37</time>
      </trkpt>
      <trkpt lat="42.69486" lon="0.78807">
        <ele>1142.2</ele>
        <time>2022-05-22 23:22:38</time>
      </trkpt>
      <trkpt lat="42.69484" lon="0.78806">
        <ele>1142.2</ele>
        <time>2022-05-22 23:22:39</time>
      </trkpt>
      <trkpt lat="42.69482" lon="0.78805">
        <ele>1142.4</ele>
        <time>2022-05-22 23:22:40</time>
      </trkpt>
      <trkpt lat="42.6948" lon="0.78804">
        <ele>1142.6</ele>
        <time>2022-05-22 23:22:41</time>
      </trkpt>
      <trkpt lat="42.69478" lon="0.78803">
        <ele>1142.6</ele>
        <time>2022-05-22 23:22:42</time>
      </trkpt>
      <trkpt lat="42.69476" lon="0.78802">
        <ele>1142.8</ele>
        <time>2022-05-22 23:22:43</time>
      </trkpt>
      <trkpt lat="42.69474" lon="0.78801">
        <ele>1143</ele>
        <time>2022-05-22 23:22:44</time>
      </trkpt>
      <trkpt lat="42.69473" lon="0.788">
        <ele>1143.2</ele>
        <time>2022-05-22 23:22:45</time>
      </trkpt>
      <trkpt lat="42.6947" lon="0.78799">
        <ele>1143.4</ele>
        <time>2022-05-22 23:22:46</time>
      </trkpt>
      <trkpt lat="42.69468" lon="0.78798">
        <ele>1143.4</ele>
        <time>2022-05-22 23:22:47</time>
      </trkpt>
      <trkpt lat="42.69466" lon="0.78798">
        <ele>1143.6</ele>
        <time>2022-05-22 23:22:48</time>
      </trkpt>
      <trkpt lat="42.69464" lon="0.78797">
        <ele>1143.6</ele>
        <time>2022-05-22 23:22:49</time>
      </trkpt>
      <trkpt lat="42.69462" lon="0.78796">
        <ele>1143.8</ele>
        <time>2022-05-22 23:22:50</time>
      </trkpt>
      <trkpt lat="42.6946" lon="0.78795">
        <ele>1144</ele>
        <time>2022-05-22 23:22:51</time>
      </trkpt>
      <trkpt lat="42.69458" lon="0.78794">
        <ele>1144</ele>
        <time>2022-05-22 23:22:52</time>
      </trkpt>
      <trkpt lat="42.69456" lon="0.78792">
        <ele>1144.2</ele>
        <time>2022-05-22 23:22:53</time>
      </trkpt>
      <trkpt lat="42.69454" lon="0.78791">
        <ele>1144.2</ele>
        <time>2022-05-22 23:22:54</time>
      </trkpt>
      <trkpt lat="42.69452" lon="0.78791">
        <ele>1144.4</ele>
        <time>2022-05-22 23:22:55</time>
      </trkpt>
      <trkpt lat="42.6945" lon="0.7879">
        <ele>1144.6</ele>
        <time>2022-05-22 23:22:56</time>
      </trkpt>
      <trkpt lat="42.69448" lon="0.7879">
        <ele>1144.8</ele>
        <time>2022-05-22 23:22:57</time>
      </trkpt>
      <trkpt lat="42.69447" lon="0.78789">
        <ele>1144.8</ele>
        <time>2022-05-22 23:22:58</time>
      </trkpt>
      <trkpt lat="42.69445" lon="0.78788">
        <ele>1145</ele>
        <time>2022-05-22 23:22:59</time>
      </trkpt>
      <trkpt lat="42.69443" lon="0.78787">
        <ele>1145</ele>
        <time>2022-05-22 23:23:00</time>
      </trkpt>
      <trkpt lat="42.69441" lon="0.78786">
        <ele>1145.2</ele>
        <time>2022-05-22 23:23:01</time>
      </trkpt>
      <trkpt lat="42.6944" lon="0.78786">
        <ele>1145.4</ele>
        <time>2022-05-22 23:23:02</time>
      </trkpt>
      <trkpt lat="42.69438" lon="0.78785">
        <ele>1145.4</ele>
        <time>2022-05-22 23:23:03</time>
      </trkpt>
      <trkpt lat="42.69436" lon="0.78785">
        <ele>1145.6</ele>
        <time>2022-05-22 23:23:04</time>
      </trkpt>
      <trkpt lat="42.69434" lon="0.78784">
        <ele>1145.8</ele>
        <time>2022-05-22 23:23:05</time>
      </trkpt>
      <trkpt lat="42.69432" lon="0.78784">
        <ele>1145.8</ele>
        <time>2022-05-22 23:23:06</time>
      </trkpt>
      <trkpt lat="42.69431" lon="0.78783">
        <ele>1146</ele>
        <time>2022-05-22 23:23:07</time>
      </trkpt>
      <trkpt lat="42.69428" lon="0.78783">
        <ele>1146.2</ele>
        <time>2022-05-22 23:23:08</time>
      </trkpt>
      <trkpt lat="42.69426" lon="0.78782">
        <ele>1146.4</ele>
        <time>2022-05-22 23:23:09</time>
      </trkpt>
      <trkpt lat="42.69424" lon="0.7878">
        <ele>1146.4</ele>
        <time>2022-05-22 23:23:10</time>
      </trkpt>
      <trkpt lat="42.69423" lon="0.7878">
        <ele>1146.6</ele>
        <time>2022-05-22 23:23:11</time>
      </trkpt>
      <trkpt lat="42.69421" lon="0.78779">
        <ele>1146.8</ele>
        <time>2022-05-22 23:23:12</time>
      </trkpt>
      <trkpt lat="42.69419" lon="0.78778">
        <ele>1146.8</ele>
        <time>2022-05-22 23:23:13</time>
      </trkpt>
      <trkpt lat="42.69417" lon="0.78777">
        <ele>1147</ele>
        <time>2022-05-22 23:23:14</time>
      </trkpt>
      <trkpt lat="42.69415" lon="0.78776">
        <ele>1147.2</ele>
        <time>2022-05-22 23:23:15</time>
      </trkpt>
      <trkpt lat="42.69413" lon="0.78775">
        <ele>1147.4</ele>
        <time>2022-05-22 23:23:16</time>
      </trkpt>
      <trkpt lat="42.69411" lon="0.78775">
        <ele>1147.4</ele>
        <time>2022-05-22 23:23:17</time>
      </trkpt>
      <trkpt lat="42.6941" lon="0.78774">
        <ele>1147.6</ele>
        <time>2022-05-22 23:23:18</time>
      </trkpt>
      <trkpt lat="42.69408" lon="0.78773">
        <ele>1147.8</ele>
        <time>2022-05-22 23:23:19</time>
      </trkpt>
      <trkpt lat="42.69407" lon="0.78772">
        <ele>1148</ele>
        <time>2022-05-22 23:23:20</time>
      </trkpt>
      <trkpt lat="42.69405" lon="0.78771">
        <ele>1148</ele>
        <time>2022-05-22 23:23:21</time>
      </trkpt>
      <trkpt lat="42.69403" lon="0.7877">
        <ele>1148.2</ele>
        <time>2022-05-22 23:23:22</time>
      </trkpt>
      <trkpt lat="42.69401" lon="0.78769">
        <ele>1148.4</ele>
        <time>2022-05-22 23:23:23</time>
      </trkpt>
      <trkpt lat="42.694" lon="0.78768">
        <ele>1148.4</ele>
        <time>2022-05-22 23:23:24</time>
      </trkpt>
      <trkpt lat="42.69398" lon="0.78768">
        <ele>1148.6</ele>
        <time>2022-05-22 23:23:25</time>
      </trkpt>
      <trkpt lat="42.69396" lon="0.78767">
        <ele>1148.6</ele>
        <time>2022-05-22 23:23:26</time>
      </trkpt>
      <trkpt lat="42.69394" lon="0.78766">
        <ele>1148.8</ele>
        <time>2022-05-22 23:23:27</time>
      </trkpt>
      <trkpt lat="42.69392" lon="0.78766">
        <ele>1149</ele>
        <time>2022-05-22 23:23:28</time>
      </trkpt>
      <trkpt lat="42.69391" lon="0.78765">
        <ele>1149</ele>
        <time>2022-05-22 23:23:29</time>
      </trkpt>
      <trkpt lat="42.69389" lon="0.78764">
        <ele>1149.2</ele>
        <time>2022-05-22 23:23:30</time>
      </trkpt>
      <trkpt lat="42.69387" lon="0.78763">
        <ele>1149.2</ele>
        <time>2022-05-22 23:23:31</time>
      </trkpt>
      <trkpt lat="42.69385" lon="0.78762">
        <ele>1149.4</ele>
        <time>2022-05-22 23:23:32</time>
      </trkpt>
      <trkpt lat="42.69383" lon="0.78761">
        <ele>1149.4</ele>
        <time>2022-05-22 23:23:33</time>
      </trkpt>
      <trkpt lat="42.69381" lon="0.78761">
        <ele>1149.6</ele>
        <time>2022-05-22 23:23:34</time>
      </trkpt>
      <trkpt lat="42.69379" lon="0.7876">
        <ele>1149.6</ele>
        <time>2022-05-22 23:23:35</time>
      </trkpt>
      <trkpt lat="42.69377" lon="0.78759">
        <ele>1149.8</ele>
        <time>2022-05-22 23:23:36</time>
      </trkpt>
      <trkpt lat="42.69375" lon="0.78759">
        <ele>1150</ele>
        <time>2022-05-22 23:23:37</time>
      </trkpt>
      <trkpt lat="42.69373" lon="0.78758">
        <ele>1150</ele>
        <time>2022-05-22 23:23:38</time>
      </trkpt>
      <trkpt lat="42.69371" lon="0.78757">
        <ele>1150.2</ele>
        <time>2022-05-22 23:23:39</time>
      </trkpt>
      <trkpt lat="42.69369" lon="0.78756">
        <ele>1150.2</ele>
        <time>2022-05-22 23:23:40</time>
      </trkpt>
      <trkpt lat="42.69367" lon="0.78756">
        <ele>1150.4</ele>
        <time>2022-05-22 23:23:41</time>
      </trkpt>
      <trkpt lat="42.69365" lon="0.78755">
        <ele>1150.6</ele>
        <time>2022-05-22 23:23:42</time>
      </trkpt>
      <trkpt lat="42.69363" lon="0.78755">
        <ele>1150.6</ele>
        <time>2022-05-22 23:23:43</time>
      </trkpt>
      <trkpt lat="42.69362" lon="0.78754">
        <ele>1150.8</ele>
        <time>2022-05-22 23:23:44</time>
      </trkpt>
      <trkpt lat="42.6936" lon="0.78753">
        <ele>1150.8</ele>
        <time>2022-05-22 23:23:45</time>
      </trkpt>
      <trkpt lat="42.69358" lon="0.78753">
        <ele>1151</ele>
        <time>2022-05-22 23:23:46</time>
      </trkpt>
      <trkpt lat="42.69356" lon="0.78752">
        <ele>1151</ele>
        <time>2022-05-22 23:23:47</time>
      </trkpt>
      <trkpt lat="42.69354" lon="0.78751">
        <ele>1151.2</ele>
        <time>2022-05-22 23:23:48</time>
      </trkpt>
      <trkpt lat="42.69352" lon="0.7875">
        <ele>1151.4</ele>
        <time>2022-05-22 23:23:49</time>
      </trkpt>
      <trkpt lat="42.6935" lon="0.78749">
        <ele>1151.4</ele>
        <time>2022-05-22 23:23:50</time>
      </trkpt>
      <trkpt lat="42.69349" lon="0.78748">
        <ele>1151.6</ele>
        <time>2022-05-22 23:23:51</time>
      </trkpt>
      <trkpt lat="42.69347" lon="0.78748">
        <ele>1151.6</ele>
        <time>2022-05-22 23:23:52</time>
      </trkpt>
      <trkpt lat="42.69345" lon="0.78747">
        <ele>1151.8</ele>
        <time>2022-05-22 23:23:53</time>
      </trkpt>
      <trkpt lat="42.69343" lon="0.78746">
        <ele>1152</ele>
        <time>2022-05-22 23:23:54</time>
      </trkpt>
      <trkpt lat="42.69341" lon="0.78746">
        <ele>1152</ele>
        <time>2022-05-22 23:23:55</time>
      </trkpt>
      <trkpt lat="42.69339" lon="0.78745">
        <ele>1152.2</ele>
        <time>2022-05-22 23:23:56</time>
      </trkpt>
      <trkpt lat="42.69337" lon="0.78744">
        <ele>1152.4</ele>
        <time>2022-05-22 23:23:57</time>
      </trkpt>
      <trkpt lat="42.69335" lon="0.78743">
        <ele>1152.4</ele>
        <time>2022-05-22 23:23:58</time>
      </trkpt>
      <trkpt lat="42.69333" lon="0.78743">
        <ele>1152.6</ele>
        <time>2022-05-22 23:23:59</time>
      </trkpt>
      <trkpt lat="42.69331" lon="0.78742">
        <ele>1152.8</ele>
        <time>2022-05-22 23:24:00</time>
      </trkpt>
      <trkpt lat="42.69329" lon="0.78742">
        <ele>1153</ele>
        <time>2022-05-22 23:24:01</time>
      </trkpt>
      <trkpt lat="42.69327" lon="0.78741">
        <ele>1153</ele>
        <time>2022-05-22 23:24:02</time>
      </trkpt>
      <trkpt lat="42.69325" lon="0.7874">
        <ele>1153.2</ele>
        <time>2022-05-22 23:24:03</time>
      </trkpt>
      <trkpt lat="42.69324" lon="0.78739">
        <ele>1153.4</ele>
        <time>2022-05-22 23:24:04</time>
      </trkpt>
      <trkpt lat="42.69322" lon="0.78739">
        <ele>1153.4</ele>
        <time>2022-05-22 23:24:05</time>
      </trkpt>
      <trkpt lat="42.6932" lon="0.78739">
        <ele>1153.6</ele>
        <time>2022-05-22 23:24:06</time>
      </trkpt>
      <trkpt lat="42.69318" lon="0.78739">
        <ele>1153.8</ele>
        <time>2022-05-22 23:24:07</time>
      </trkpt>
      <trkpt lat="42.69316" lon="0.78739">
        <ele>1153.8</ele>
        <time>2022-05-22 23:24:08</time>
      </trkpt>
      <trkpt lat="42.69314" lon="0.78739">
        <ele>1154</ele>
        <time>2022-05-22 23:24:09</time>
      </trkpt>
      <trkpt lat="42.69312" lon="0.78739">
        <ele>1154.2</ele>
        <time>2022-05-22 23:24:10</time>
      </trkpt>
      <trkpt lat="42.6931" lon="0.78739">
        <ele>1154.4</ele>
        <time>2022-05-22 23:24:11</time>
      </trkpt>
      <trkpt lat="42.69308" lon="0.78739">
        <ele>1154.4</ele>
        <time>2022-05-22 23:24:12</time>
      </trkpt>
      <trkpt lat="42.69306" lon="0.7874">
        <ele>1154.6</ele>
        <time>2022-05-22 23:24:13</time>
      </trkpt>
      <trkpt lat="42.69304" lon="0.7874">
        <ele>1154.6</ele>
        <time>2022-05-22 23:24:14</time>
      </trkpt>
      <trkpt lat="42.69302" lon="0.78739">
        <ele>1154.8</ele>
        <time>2022-05-22 23:24:15</time>
      </trkpt>
      <trkpt lat="42.693" lon="0.78739">
        <ele>1155</ele>
        <time>2022-05-22 23:24:16</time>
      </trkpt>
      <trkpt lat="42.69298" lon="0.7874">
        <ele>1155</ele>
        <time>2022-05-22 23:24:17</time>
      </trkpt>
      <trkpt lat="42.69296" lon="0.7874">
        <ele>1155.2</ele>
        <time>2022-05-22 23:24:18</time>
      </trkpt>
      <trkpt lat="42.69293" lon="0.78741">
        <ele>1155.4</ele>
        <time>2022-05-22 23:24:19</time>
      </trkpt>
      <trkpt lat="42.69291" lon="0.78741">
        <ele>1155.4</ele>
        <time>2022-05-22 23:24:20</time>
      </trkpt>
      <trkpt lat="42.69289" lon="0.78741">
        <ele>1155.6</ele>
        <time>2022-05-22 23:24:21</time>
      </trkpt>
      <trkpt lat="42.69287" lon="0.78742">
        <ele>1155.8</ele>
        <time>2022-05-22 23:24:22</time>
      </trkpt>
      <trkpt lat="42.69285" lon="0.78742">
        <ele>1155.8</ele>
        <time>2022-05-22 23:24:23</time>
      </trkpt>
      <trkpt lat="42.69283" lon="0.78742">
        <ele>1156</ele>
        <time>2022-05-22 23:24:24</time>
      </trkpt>
      <trkpt lat="42.69281" lon="0.78743">
        <ele>1156.2</ele>
        <time>2022-05-22 23:24:25</time>
      </trkpt>
      <trkpt lat="42.69279" lon="0.78743">
        <ele>1156.2</ele>
        <time>2022-05-22 23:24:26</time>
      </trkpt>
      <trkpt lat="42.69277" lon="0.78743">
        <ele>1156.4</ele>
        <time>2022-05-22 23:24:27</time>
      </trkpt>
      <trkpt lat="42.69275" lon="0.78744">
        <ele>1156.6</ele>
        <time>2022-05-22 23:24:28</time>
      </trkpt>
      <trkpt lat="42.69272" lon="0.78744">
        <ele>1156.6</ele>
        <time>2022-05-22 23:24:29</time>
      </trkpt>
      <trkpt lat="42.6927" lon="0.78745">
        <ele>1156.8</ele>
        <time>2022-05-22 23:24:30</time>
      </trkpt>
      <trkpt lat="42.69268" lon="0.78745">
        <ele>1157</ele>
        <time>2022-05-22 23:24:31</time>
      </trkpt>
      <trkpt lat="42.69266" lon="0.78746">
        <ele>1157.2</ele>
        <time>2022-05-22 23:24:32</time>
      </trkpt>
      <trkpt lat="42.69264" lon="0.78747">
        <ele>1157.2</ele>
        <time>2022-05-22 23:24:33</time>
      </trkpt>
      <trkpt lat="42.69262" lon="0.78748">
        <ele>1157.4</ele>
        <time>2022-05-22 23:24:34</time>
      </trkpt>
      <trkpt lat="42.6926" lon="0.78748">
        <ele>1157.6</ele>
        <time>2022-05-22 23:24:35</time>
      </trkpt>
      <trkpt lat="42.69258" lon="0.78748">
        <ele>1157.8</ele>
        <time>2022-05-22 23:24:36</time>
      </trkpt>
      <trkpt lat="42.69256" lon="0.78748">
        <ele>1157.8</ele>
        <time>2022-05-22 23:24:37</time>
      </trkpt>
      <trkpt lat="42.69254" lon="0.78748">
        <ele>1158</ele>
        <time>2022-05-22 23:24:38</time>
      </trkpt>
      <trkpt lat="42.69252" lon="0.78749">
        <ele>1158.2</ele>
        <time>2022-05-22 23:24:39</time>
      </trkpt>
      <trkpt lat="42.6925" lon="0.7875">
        <ele>1158.2</ele>
        <time>2022-05-22 23:24:40</time>
      </trkpt>
      <trkpt lat="42.69248" lon="0.7875">
        <ele>1158.4</ele>
        <time>2022-05-22 23:24:41</time>
      </trkpt>
      <trkpt lat="42.69246" lon="0.7875">
        <ele>1158.6</ele>
        <time>2022-05-22 23:24:42</time>
      </trkpt>
      <trkpt lat="42.69244" lon="0.7875">
        <ele>1158.8</ele>
        <time>2022-05-22 23:24:43</time>
      </trkpt>
      <trkpt lat="42.69242" lon="0.7875">
        <ele>1158.8</ele>
        <time>2022-05-22 23:24:44</time>
      </trkpt>
      <trkpt lat="42.69241" lon="0.7875">
        <ele>1159</ele>
        <time>2022-05-22 23:24:45</time>
      </trkpt>
      <trkpt lat="42.69238" lon="0.7875">
        <ele>1159.2</ele>
        <time>2022-05-22 23:24:46</time>
      </trkpt>
      <trkpt lat="42.69236" lon="0.7875">
        <ele>1159.4</ele>
        <time>2022-05-22 23:24:47</time>
      </trkpt>
      <trkpt lat="42.69235" lon="0.7875">
        <ele>1159.4</ele>
        <time>2022-05-22 23:24:48</time>
      </trkpt>
      <trkpt lat="42.69233" lon="0.7875">
        <ele>1159.6</ele>
        <time>2022-05-22 23:24:49</time>
      </trkpt>
      <trkpt lat="42.69231" lon="0.78749">
        <ele>1159.8</ele>
        <time>2022-05-22 23:24:50</time>
      </trkpt>
      <trkpt lat="42.69229" lon="0.78749">
        <ele>1160</ele>
        <time>2022-05-22 23:24:51</time>
      </trkpt>
      <trkpt lat="42.69227" lon="0.78749">
        <ele>1160.2</ele>
        <time>2022-05-22 23:24:52</time>
      </trkpt>
      <trkpt lat="42.69225" lon="0.78748">
        <ele>1160.2</ele>
        <time>2022-05-22 23:24:53</time>
      </trkpt>
      <trkpt lat="42.69223" lon="0.78747">
        <ele>1160.4</ele>
        <time>2022-05-22 23:24:54</time>
      </trkpt>
      <trkpt lat="42.69221" lon="0.78747">
        <ele>1160.6</ele>
        <time>2022-05-22 23:24:55</time>
      </trkpt>
      <trkpt lat="42.69219" lon="0.78746">
        <ele>1160.8</ele>
        <time>2022-05-22 23:24:56</time>
      </trkpt>
      <trkpt lat="42.69217" lon="0.78746">
        <ele>1160.8</ele>
        <time>2022-05-22 23:24:57</time>
      </trkpt>
      <trkpt lat="42.69215" lon="0.78745">
        <ele>1161</ele>
        <time>2022-05-22 23:24:58</time>
      </trkpt>
      <trkpt lat="42.69214" lon="0.78745">
        <ele>1161.2</ele>
        <time>2022-05-22 23:24:59</time>
      </trkpt>
      <trkpt lat="42.69211" lon="0.78745">
        <ele>1161.4</ele>
        <time>2022-05-22 23:25:00</time>
      </trkpt>
      <trkpt lat="42.6921" lon="0.78745">
        <ele>1161.4</ele>
        <time>2022-05-22 23:25:01</time>
      </trkpt>
      <trkpt lat="42.69208" lon="0.78745">
        <ele>1161.6</ele>
        <time>2022-05-22 23:25:02</time>
      </trkpt>
      <trkpt lat="42.69206" lon="0.78744">
        <ele>1161.8</ele>
        <time>2022-05-22 23:25:03</time>
      </trkpt>
      <trkpt lat="42.69204" lon="0.78744">
        <ele>1162</ele>
        <time>2022-05-22 23:25:04</time>
      </trkpt>
      <trkpt lat="42.69202" lon="0.78744">
        <ele>1162.2</ele>
        <time>2022-05-22 23:25:05</time>
      </trkpt>
      <trkpt lat="42.692" lon="0.78743">
        <ele>1162.2</ele>
        <time>2022-05-22 23:25:06</time>
      </trkpt>
      <trkpt lat="42.69198" lon="0.78742">
        <ele>1162.4</ele>
        <time>2022-05-22 23:25:07</time>
      </trkpt>
      <trkpt lat="42.69196" lon="0.78742">
        <ele>1162.6</ele>
        <time>2022-05-22 23:25:08</time>
      </trkpt>
      <trkpt lat="42.69194" lon="0.78741">
        <ele>1162.6</ele>
        <time>2022-05-22 23:25:09</time>
      </trkpt>
      <trkpt lat="42.69192" lon="0.7874">
        <ele>1162.8</ele>
        <time>2022-05-22 23:25:10</time>
      </trkpt>
      <trkpt lat="42.69189" lon="0.78739">
        <ele>1163</ele>
        <time>2022-05-22 23:25:11</time>
      </trkpt>
      <trkpt lat="42.69187" lon="0.78739">
        <ele>1163.2</ele>
        <time>2022-05-22 23:25:12</time>
      </trkpt>
      <trkpt lat="42.69185" lon="0.78738">
        <ele>1163.2</ele>
        <time>2022-05-22 23:25:13</time>
      </trkpt>
      <trkpt lat="42.69183" lon="0.78738">
        <ele>1163.4</ele>
        <time>2022-05-22 23:25:14</time>
      </trkpt>
      <trkpt lat="42.69181" lon="0.78737">
        <ele>1163.6</ele>
        <time>2022-05-22 23:25:15</time>
      </trkpt>
      <trkpt lat="42.6918" lon="0.78737">
        <ele>1163.8</ele>
        <time>2022-05-22 23:25:16</time>
      </trkpt>
      <trkpt lat="42.69177" lon="0.78737">
        <ele>1163.8</ele>
        <time>2022-05-22 23:25:17</time>
      </trkpt>
      <trkpt lat="42.69175" lon="0.78736">
        <ele>1164</ele>
        <time>2022-05-22 23:25:18</time>
      </trkpt>
      <trkpt lat="42.69173" lon="0.78736">
        <ele>1164.2</ele>
        <time>2022-05-22 23:25:19</time>
      </trkpt>
      <trkpt lat="42.69171" lon="0.78735">
        <ele>1164.2</ele>
        <time>2022-05-22 23:25:20</time>
      </trkpt>
      <trkpt lat="42.69169" lon="0.78735">
        <ele>1164.4</ele>
        <time>2022-05-22 23:25:21</time>
      </trkpt>
      <trkpt lat="42.69167" lon="0.78735">
        <ele>1164.4</ele>
        <time>2022-05-22 23:25:22</time>
      </trkpt>
      <trkpt lat="42.69165" lon="0.78735">
        <ele>1164.6</ele>
        <time>2022-05-22 23:25:23</time>
      </trkpt>
      <trkpt lat="42.69163" lon="0.78734">
        <ele>1164.8</ele>
        <time>2022-05-22 23:25:24</time>
      </trkpt>
      <trkpt lat="42.69161" lon="0.78734">
        <ele>1164.8</ele>
        <time>2022-05-22 23:25:25</time>
      </trkpt>
      <trkpt lat="42.69159" lon="0.78734">
        <ele>1165</ele>
        <time>2022-05-22 23:25:26</time>
      </trkpt>
      <trkpt lat="42.69157" lon="0.78733">
        <ele>1165.2</ele>
        <time>2022-05-22 23:25:27</time>
      </trkpt>
      <trkpt lat="42.69156" lon="0.78733">
        <ele>1165.4</ele>
        <time>2022-05-22 23:25:28</time>
      </trkpt>
      <trkpt lat="42.69154" lon="0.78733">
        <ele>1165.4</ele>
        <time>2022-05-22 23:25:29</time>
      </trkpt>
      <trkpt lat="42.69152" lon="0.78733">
        <ele>1165.6</ele>
        <time>2022-05-22 23:25:30</time>
      </trkpt>
      <trkpt lat="42.6915" lon="0.78733">
        <ele>1165.8</ele>
        <time>2022-05-22 23:25:31</time>
      </trkpt>
      <trkpt lat="42.69148" lon="0.78733">
        <ele>1165.8</ele>
        <time>2022-05-22 23:25:32</time>
      </trkpt>
      <trkpt lat="42.69146" lon="0.78733">
        <ele>1166</ele>
        <time>2022-05-22 23:25:33</time>
      </trkpt>
      <trkpt lat="42.69144" lon="0.78732">
        <ele>1166.2</ele>
        <time>2022-05-22 23:25:34</time>
      </trkpt>
      <trkpt lat="42.69142" lon="0.78732">
        <ele>1166.2</ele>
        <time>2022-05-22 23:25:35</time>
      </trkpt>
      <trkpt lat="42.6914" lon="0.78732">
        <ele>1166.4</ele>
        <time>2022-05-22 23:25:36</time>
      </trkpt>
      <trkpt lat="42.69138" lon="0.78732">
        <ele>1166.6</ele>
        <time>2022-05-22 23:25:37</time>
      </trkpt>
      <trkpt lat="42.69135" lon="0.78731">
        <ele>1166.8</ele>
        <time>2022-05-22 23:25:38</time>
      </trkpt>
      <trkpt lat="42.69133" lon="0.78731">
        <ele>1166.8</ele>
        <time>2022-05-22 23:25:39</time>
      </trkpt>
      <trkpt lat="42.69131" lon="0.78731">
        <ele>1167</ele>
        <time>2022-05-22 23:25:40</time>
      </trkpt>
      <trkpt lat="42.69129" lon="0.78731">
        <ele>1167.2</ele>
        <time>2022-05-22 23:25:41</time>
      </trkpt>
      <trkpt lat="42.69127" lon="0.78731">
        <ele>1167.4</ele>
        <time>2022-05-22 23:25:42</time>
      </trkpt>
      <trkpt lat="42.69125" lon="0.78731">
        <ele>1167.6</ele>
        <time>2022-05-22 23:25:43</time>
      </trkpt>
      <trkpt lat="42.69122" lon="0.78731">
        <ele>1167.8</ele>
        <time>2022-05-22 23:25:44</time>
      </trkpt>
      <trkpt lat="42.6912" lon="0.7873">
        <ele>1167.8</ele>
        <time>2022-05-22 23:25:45</time>
      </trkpt>
      <trkpt lat="42.69118" lon="0.7873">
        <ele>1168</ele>
        <time>2022-05-22 23:25:46</time>
      </trkpt>
      <trkpt lat="42.69116" lon="0.78729">
        <ele>1168.2</ele>
        <time>2022-05-22 23:25:47</time>
      </trkpt>
      <trkpt lat="42.69114" lon="0.78729">
        <ele>1168.4</ele>
        <time>2022-05-22 23:25:48</time>
      </trkpt>
      <trkpt lat="42.69112" lon="0.78728">
        <ele>1168.6</ele>
        <time>2022-05-22 23:25:49</time>
      </trkpt>
      <trkpt lat="42.6911" lon="0.78728">
        <ele>1168.8</ele>
        <time>2022-05-22 23:25:50</time>
      </trkpt>
      <trkpt lat="42.69108" lon="0.78728">
        <ele>1168.8</ele>
        <time>2022-05-22 23:25:51</time>
      </trkpt>
      <trkpt lat="42.69106" lon="0.78727">
        <ele>1169</ele>
        <time>2022-05-22 23:25:52</time>
      </trkpt>
      <trkpt lat="42.69104" lon="0.78727">
        <ele>1169.2</ele>
        <time>2022-05-22 23:25:53</time>
      </trkpt>
      <trkpt lat="42.69102" lon="0.78726">
        <ele>1169.4</ele>
        <time>2022-05-22 23:25:54</time>
      </trkpt>
      <trkpt lat="42.691" lon="0.78726">
        <ele>1169.6</ele>
        <time>2022-05-22 23:25:55</time>
      </trkpt>
      <trkpt lat="42.69098" lon="0.78726">
        <ele>1169.8</ele>
        <time>2022-05-22 23:25:56</time>
      </trkpt>
      <trkpt lat="42.69096" lon="0.78725">
        <ele>1169.8</ele>
        <time>2022-05-22 23:25:57</time>
      </trkpt>
      <trkpt lat="42.69094" lon="0.78725">
        <ele>1170</ele>
        <time>2022-05-22 23:25:58</time>
      </trkpt>
      <trkpt lat="42.69092" lon="0.78724">
        <ele>1170.2</ele>
        <time>2022-05-22 23:25:59</time>
      </trkpt>
      <trkpt lat="42.6909" lon="0.78724">
        <ele>1170.4</ele>
        <time>2022-05-22 23:26:00</time>
      </trkpt>
      <trkpt lat="42.69088" lon="0.78723">
        <ele>1170.4</ele>
        <time>2022-05-22 23:26:01</time>
      </trkpt>
      <trkpt lat="42.69086" lon="0.78723">
        <ele>1170.6</ele>
        <time>2022-05-22 23:26:02</time>
      </trkpt>
      <trkpt lat="42.69084" lon="0.78722">
        <ele>1170.8</ele>
        <time>2022-05-22 23:26:03</time>
      </trkpt>
      <trkpt lat="42.69082" lon="0.7872">
        <ele>1170.8</ele>
        <time>2022-05-22 23:26:04</time>
      </trkpt>
      <trkpt lat="42.6908" lon="0.78719">
        <ele>1171</ele>
        <time>2022-05-22 23:26:05</time>
      </trkpt>
      <trkpt lat="42.69079" lon="0.78718">
        <ele>1171</ele>
        <time>2022-05-22 23:26:06</time>
      </trkpt>
      <trkpt lat="42.69077" lon="0.78718">
        <ele>1171.2</ele>
        <time>2022-05-22 23:26:07</time>
      </trkpt>
      <trkpt lat="42.69075" lon="0.78717">
        <ele>1171.4</ele>
        <time>2022-05-22 23:26:08</time>
      </trkpt>
      <trkpt lat="42.69073" lon="0.78716">
        <ele>1171.4</ele>
        <time>2022-05-22 23:26:09</time>
      </trkpt>
      <trkpt lat="42.69071" lon="0.78714">
        <ele>1171.6</ele>
        <time>2022-05-22 23:26:10</time>
      </trkpt>
      <trkpt lat="42.6907" lon="0.78712">
        <ele>1171.8</ele>
        <time>2022-05-22 23:26:11</time>
      </trkpt>
      <trkpt lat="42.69068" lon="0.78711">
        <ele>1171.8</ele>
        <time>2022-05-22 23:26:12</time>
      </trkpt>
      <trkpt lat="42.69066" lon="0.78709">
        <ele>1172</ele>
        <time>2022-05-22 23:26:13</time>
      </trkpt>
      <trkpt lat="42.69065" lon="0.78708">
        <ele>1172</ele>
        <time>2022-05-22 23:26:14</time>
      </trkpt>
      <trkpt lat="42.69063" lon="0.78707">
        <ele>1172.2</ele>
        <time>2022-05-22 23:26:15</time>
      </trkpt>
      <trkpt lat="42.69062" lon="0.78705">
        <ele>1172.4</ele>
        <time>2022-05-22 23:26:16</time>
      </trkpt>
      <trkpt lat="42.6906" lon="0.78704">
        <ele>1172.4</ele>
        <time>2022-05-22 23:26:17</time>
      </trkpt>
      <trkpt lat="42.69058" lon="0.78703">
        <ele>1172.6</ele>
        <time>2022-05-22 23:26:18</time>
      </trkpt>
      <trkpt lat="42.69057" lon="0.78701">
        <ele>1172.8</ele>
        <time>2022-05-22 23:26:19</time>
      </trkpt>
      <trkpt lat="42.69055" lon="0.787">
        <ele>1173</ele>
        <time>2022-05-22 23:26:20</time>
      </trkpt>
      <trkpt lat="42.69053" lon="0.78699">
        <ele>1173.2</ele>
        <time>2022-05-22 23:26:21</time>
      </trkpt>
      <trkpt lat="42.69051" lon="0.78698">
        <ele>1173.2</ele>
        <time>2022-05-22 23:26:22</time>
      </trkpt>
      <trkpt lat="42.69049" lon="0.78697">
        <ele>1173.4</ele>
        <time>2022-05-22 23:26:23</time>
      </trkpt>
      <trkpt lat="42.69048" lon="0.78696">
        <ele>1173.6</ele>
        <time>2022-05-22 23:26:24</time>
      </trkpt>
      <trkpt lat="42.69046" lon="0.78694">
        <ele>1173.8</ele>
        <time>2022-05-22 23:26:25</time>
      </trkpt>
      <trkpt lat="42.69045" lon="0.78692">
        <ele>1174</ele>
        <time>2022-05-22 23:26:26</time>
      </trkpt>
      <trkpt lat="42.69043" lon="0.78691">
        <ele>1174</ele>
        <time>2022-05-22 23:26:27</time>
      </trkpt>
      <trkpt lat="42.69041" lon="0.7869">
        <ele>1174.2</ele>
        <time>2022-05-22 23:26:28</time>
      </trkpt>
      <trkpt lat="42.69039" lon="0.78689">
        <ele>1174.4</ele>
        <time>2022-05-22 23:26:29</time>
      </trkpt>
      <trkpt lat="42.69037" lon="0.78688">
        <ele>1174.6</ele>
        <time>2022-05-22 23:26:30</time>
      </trkpt>
      <trkpt lat="42.69035" lon="0.78687">
        <ele>1174.8</ele>
        <time>2022-05-22 23:26:31</time>
      </trkpt>
      <trkpt lat="42.69032" lon="0.78686">
        <ele>1175</ele>
        <time>2022-05-22 23:26:32</time>
      </trkpt>
      <trkpt lat="42.6903" lon="0.78686">
        <ele>1175</ele>
        <time>2022-05-22 23:26:33</time>
      </trkpt>
      <trkpt lat="42.69028" lon="0.78685">
        <ele>1175.2</ele>
        <time>2022-05-22 23:26:34</time>
      </trkpt>
      <trkpt lat="42.69026" lon="0.78685">
        <ele>1175.4</ele>
        <time>2022-05-22 23:26:35</time>
      </trkpt>
      <trkpt lat="42.69024" lon="0.78684">
        <ele>1175.6</ele>
        <time>2022-05-22 23:26:36</time>
      </trkpt>
      <trkpt lat="42.69022" lon="0.78684">
        <ele>1175.6</ele>
        <time>2022-05-22 23:26:37</time>
      </trkpt>
      <trkpt lat="42.6902" lon="0.78683">
        <ele>1175.8</ele>
        <time>2022-05-22 23:26:38</time>
      </trkpt>
      <trkpt lat="42.69018" lon="0.78683">
        <ele>1176</ele>
        <time>2022-05-22 23:26:39</time>
      </trkpt>
      <trkpt lat="42.69015" lon="0.78682">
        <ele>1176</ele>
        <time>2022-05-22 23:26:40</time>
      </trkpt>
      <trkpt lat="42.69013" lon="0.78682">
        <ele>1176.2</ele>
        <time>2022-05-22 23:26:41</time>
      </trkpt>
      <trkpt lat="42.69011" lon="0.78681">
        <ele>1176.2</ele>
        <time>2022-05-22 23:26:42</time>
      </trkpt>
      <trkpt lat="42.69009" lon="0.78681">
        <ele>1176.4</ele>
        <time>2022-05-22 23:26:43</time>
      </trkpt>
      <trkpt lat="42.69006" lon="0.78681">
        <ele>1176.6</ele>
        <time>2022-05-22 23:26:44</time>
      </trkpt>
      <trkpt lat="42.69004" lon="0.7868">
        <ele>1176.6</ele>
        <time>2022-05-22 23:26:45</time>
      </trkpt>
      <trkpt lat="42.69002" lon="0.7868">
        <ele>1176.8</ele>
        <time>2022-05-22 23:26:46</time>
      </trkpt>
      <trkpt lat="42.69" lon="0.78679">
        <ele>1177</ele>
        <time>2022-05-22 23:26:47</time>
      </trkpt>
      <trkpt lat="42.68998" lon="0.78679">
        <ele>1177.2</ele>
        <time>2022-05-22 23:26:48</time>
      </trkpt>
      <trkpt lat="42.68996" lon="0.78679">
        <ele>1177.2</ele>
        <time>2022-05-22 23:26:49</time>
      </trkpt>
      <trkpt lat="42.68994" lon="0.78679">
        <ele>1177.4</ele>
        <time>2022-05-22 23:26:50</time>
      </trkpt>
      <trkpt lat="42.68992" lon="0.78679">
        <ele>1177.6</ele>
        <time>2022-05-22 23:26:51</time>
      </trkpt>
      <trkpt lat="42.6899" lon="0.78679">
        <ele>1177.8</ele>
        <time>2022-05-22 23:26:52</time>
      </trkpt>
      <trkpt lat="42.68988" lon="0.78679">
        <ele>1177.8</ele>
        <time>2022-05-22 23:26:53</time>
      </trkpt>
      <trkpt lat="42.68985" lon="0.78679">
        <ele>1178</ele>
        <time>2022-05-22 23:26:54</time>
      </trkpt>
      <trkpt lat="42.68984" lon="0.7868">
        <ele>1178.2</ele>
        <time>2022-05-22 23:26:55</time>
      </trkpt>
      <trkpt lat="42.68982" lon="0.7868">
        <ele>1178.2</ele>
        <time>2022-05-22 23:26:56</time>
      </trkpt>
      <trkpt lat="42.68979" lon="0.7868">
        <ele>1178.4</ele>
        <time>2022-05-22 23:26:57</time>
      </trkpt>
      <trkpt lat="42.68978" lon="0.7868">
        <ele>1178.6</ele>
        <time>2022-05-22 23:26:58</time>
      </trkpt>
      <trkpt lat="42.68976" lon="0.78681">
        <ele>1178.6</ele>
        <time>2022-05-22 23:26:59</time>
      </trkpt>
      <trkpt lat="42.68974" lon="0.78681">
        <ele>1178.8</ele>
        <time>2022-05-22 23:27:00</time>
      </trkpt>
      <trkpt lat="42.68972" lon="0.78682">
        <ele>1179</ele>
        <time>2022-05-22 23:27:01</time>
      </trkpt>
      <trkpt lat="42.6897" lon="0.78682">
        <ele>1179.2</ele>
        <time>2022-05-22 23:27:02</time>
      </trkpt>
      <trkpt lat="42.68968" lon="0.78682">
        <ele>1179.2</ele>
        <time>2022-05-22 23:27:03</time>
      </trkpt>
      <trkpt lat="42.68966" lon="0.78683">
        <ele>1179.4</ele>
        <time>2022-05-22 23:27:04</time>
      </trkpt>
      <trkpt lat="42.68964" lon="0.78684">
        <ele>1179.6</ele>
        <time>2022-05-22 23:27:05</time>
      </trkpt>
      <trkpt lat="42.68962" lon="0.78685">
        <ele>1179.6</ele>
        <time>2022-05-22 23:27:06</time>
      </trkpt>
      <trkpt lat="42.6896" lon="0.78686">
        <ele>1179.8</ele>
        <time>2022-05-22 23:27:07</time>
      </trkpt>
      <trkpt lat="42.68958" lon="0.78686">
        <ele>1179.8</ele>
        <time>2022-05-22 23:27:08</time>
      </trkpt>
      <trkpt lat="42.68955" lon="0.78687">
        <ele>1180</ele>
        <time>2022-05-22 23:27:09</time>
      </trkpt>
      <trkpt lat="42.68953" lon="0.78688">
        <ele>1180.2</ele>
        <time>2022-05-22 23:27:10</time>
      </trkpt>
      <trkpt lat="42.68952" lon="0.7869">
        <ele>1180.2</ele>
        <time>2022-05-22 23:27:11</time>
      </trkpt>
      <trkpt lat="42.6895" lon="0.78691">
        <ele>1180.4</ele>
        <time>2022-05-22 23:27:12</time>
      </trkpt>
      <trkpt lat="42.68948" lon="0.78692">
        <ele>1180.6</ele>
        <time>2022-05-22 23:27:13</time>
      </trkpt>
      <trkpt lat="42.68946" lon="0.78693">
        <ele>1180.6</ele>
        <time>2022-05-22 23:27:14</time>
      </trkpt>
      <trkpt lat="42.68945" lon="0.78694">
        <ele>1180.8</ele>
        <time>2022-05-22 23:27:15</time>
      </trkpt>
      <trkpt lat="42.68943" lon="0.78694">
        <ele>1181</ele>
        <time>2022-05-22 23:27:16</time>
      </trkpt>
      <trkpt lat="42.68941" lon="0.78695">
        <ele>1181</ele>
        <time>2022-05-22 23:27:17</time>
      </trkpt>
      <trkpt lat="42.68939" lon="0.78696">
        <ele>1181.2</ele>
        <time>2022-05-22 23:27:18</time>
      </trkpt>
      <trkpt lat="42.68937" lon="0.78697">
        <ele>1181.4</ele>
        <time>2022-05-22 23:27:19</time>
      </trkpt>
      <trkpt lat="42.68935" lon="0.78698">
        <ele>1181.4</ele>
        <time>2022-05-22 23:27:20</time>
      </trkpt>
      <trkpt lat="42.68934" lon="0.78699">
        <ele>1181.6</ele>
        <time>2022-05-22 23:27:21</time>
      </trkpt>
      <trkpt lat="42.68932" lon="0.787">
        <ele>1181.8</ele>
        <time>2022-05-22 23:27:22</time>
      </trkpt>
      <trkpt lat="42.6893" lon="0.78701">
        <ele>1181.8</ele>
        <time>2022-05-22 23:27:23</time>
      </trkpt>
      <trkpt lat="42.68929" lon="0.78703">
        <ele>1182</ele>
        <time>2022-05-22 23:27:24</time>
      </trkpt>
      <trkpt lat="42.68927" lon="0.78704">
        <ele>1182.2</ele>
        <time>2022-05-22 23:27:25</time>
      </trkpt>
      <trkpt lat="42.68925" lon="0.78705">
        <ele>1182.2</ele>
        <time>2022-05-22 23:27:26</time>
      </trkpt>
      <trkpt lat="42.68923" lon="0.78706">
        <ele>1182.4</ele>
        <time>2022-05-22 23:27:27</time>
      </trkpt>
      <trkpt lat="42.68921" lon="0.78707">
        <ele>1182.6</ele>
        <time>2022-05-22 23:27:28</time>
      </trkpt>
      <trkpt lat="42.68919" lon="0.78708">
        <ele>1182.6</ele>
        <time>2022-05-22 23:27:29</time>
      </trkpt>
      <trkpt lat="42.68917" lon="0.78709">
        <ele>1182.8</ele>
        <time>2022-05-22 23:27:30</time>
      </trkpt>
      <trkpt lat="42.68916" lon="0.7871">
        <ele>1183</ele>
        <time>2022-05-22 23:27:31</time>
      </trkpt>
      <trkpt lat="42.68914" lon="0.78711">
        <ele>1183.2</ele>
        <time>2022-05-22 23:27:32</time>
      </trkpt>
      <trkpt lat="42.68912" lon="0.78712">
        <ele>1183.2</ele>
        <time>2022-05-22 23:27:33</time>
      </trkpt>
      <trkpt lat="42.68911" lon="0.78713">
        <ele>1183.4</ele>
        <time>2022-05-22 23:27:34</time>
      </trkpt>
      <trkpt lat="42.68909" lon="0.78714">
        <ele>1183.6</ele>
        <time>2022-05-22 23:27:35</time>
      </trkpt>
      <trkpt lat="42.68907" lon="0.78715">
        <ele>1183.6</ele>
        <time>2022-05-22 23:27:36</time>
      </trkpt>
      <trkpt lat="42.68905" lon="0.78716">
        <ele>1183.8</ele>
        <time>2022-05-22 23:27:37</time>
      </trkpt>
      <trkpt lat="42.68904" lon="0.78717">
        <ele>1184</ele>
        <time>2022-05-22 23:27:38</time>
      </trkpt>
      <trkpt lat="42.68902" lon="0.78718">
        <ele>1184</ele>
        <time>2022-05-22 23:27:39</time>
      </trkpt>
      <trkpt lat="42.689" lon="0.78719">
        <ele>1184.2</ele>
        <time>2022-05-22 23:27:40</time>
      </trkpt>
      <trkpt lat="42.68898" lon="0.7872">
        <ele>1184.4</ele>
        <time>2022-05-22 23:27:41</time>
      </trkpt>
      <trkpt lat="42.68897" lon="0.78721">
        <ele>1184.4</ele>
        <time>2022-05-22 23:27:42</time>
      </trkpt>
      <trkpt lat="42.68895" lon="0.78722">
        <ele>1184.6</ele>
        <time>2022-05-22 23:27:43</time>
      </trkpt>
      <trkpt lat="42.68893" lon="0.78723">
        <ele>1184.6</ele>
        <time>2022-05-22 23:27:44</time>
      </trkpt>
      <trkpt lat="42.68891" lon="0.78724">
        <ele>1184.8</ele>
        <time>2022-05-22 23:27:45</time>
      </trkpt>
      <trkpt lat="42.68889" lon="0.78725">
        <ele>1185</ele>
        <time>2022-05-22 23:27:46</time>
      </trkpt>
      <trkpt lat="42.68887" lon="0.78726">
        <ele>1185</ele>
        <time>2022-05-22 23:27:47</time>
      </trkpt>
      <trkpt lat="42.68885" lon="0.78727">
        <ele>1185.2</ele>
        <time>2022-05-22 23:27:48</time>
      </trkpt>
      <trkpt lat="42.68884" lon="0.78727">
        <ele>1185.2</ele>
        <time>2022-05-22 23:27:49</time>
      </trkpt>
      <trkpt lat="42.68882" lon="0.78728">
        <ele>1185.4</ele>
        <time>2022-05-22 23:27:50</time>
      </trkpt>
      <trkpt lat="42.6888" lon="0.7873">
        <ele>1185.4</ele>
        <time>2022-05-22 23:27:51</time>
      </trkpt>
      <trkpt lat="42.68878" lon="0.78731">
        <ele>1185.6</ele>
        <time>2022-05-22 23:27:52</time>
      </trkpt>
      <trkpt lat="42.68876" lon="0.78732">
        <ele>1185.8</ele>
        <time>2022-05-22 23:27:53</time>
      </trkpt>
      <trkpt lat="42.68874" lon="0.78733">
        <ele>1185.8</ele>
        <time>2022-05-22 23:27:54</time>
      </trkpt>
      <trkpt lat="42.68872" lon="0.78734">
        <ele>1186</ele>
        <time>2022-05-22 23:27:55</time>
      </trkpt>
      <trkpt lat="42.6887" lon="0.78735">
        <ele>1186</ele>
        <time>2022-05-22 23:27:56</time>
      </trkpt>
      <trkpt lat="42.68868" lon="0.78736">
        <ele>1186.2</ele>
        <time>2022-05-22 23:27:57</time>
      </trkpt>
      <trkpt lat="42.68866" lon="0.78736">
        <ele>1186.4</ele>
        <time>2022-05-22 23:27:58</time>
      </trkpt>
      <trkpt lat="42.68865" lon="0.78737">
        <ele>1186.4</ele>
        <time>2022-05-22 23:27:59</time>
      </trkpt>
      <trkpt lat="42.68863" lon="0.78738">
        <ele>1186.6</ele>
        <time>2022-05-22 23:28:00</time>
      </trkpt>
      <trkpt lat="42.68861" lon="0.78739">
        <ele>1186.6</ele>
        <time>2022-05-22 23:28:01</time>
      </trkpt>
      <trkpt lat="42.68859" lon="0.7874">
        <ele>1186.8</ele>
        <time>2022-05-22 23:28:02</time>
      </trkpt>
      <trkpt lat="42.68857" lon="0.78741">
        <ele>1186.8</ele>
        <time>2022-05-22 23:28:03</time>
      </trkpt>
      <trkpt lat="42.68856" lon="0.78742">
        <ele>1187</ele>
        <time>2022-05-22 23:28:04</time>
      </trkpt>
      <trkpt lat="42.68854" lon="0.78743">
        <ele>1187.2</ele>
        <time>2022-05-22 23:28:05</time>
      </trkpt>
      <trkpt lat="42.68852" lon="0.78743">
        <ele>1187.2</ele>
        <time>2022-05-22 23:28:06</time>
      </trkpt>
      <trkpt lat="42.6885" lon="0.78744">
        <ele>1187.4</ele>
        <time>2022-05-22 23:28:07</time>
      </trkpt>
      <trkpt lat="42.68848" lon="0.78745">
        <ele>1187.6</ele>
        <time>2022-05-22 23:28:08</time>
      </trkpt>
      <trkpt lat="42.68847" lon="0.78747">
        <ele>1187.6</ele>
        <time>2022-05-22 23:28:09</time>
      </trkpt>
      <trkpt lat="42.68845" lon="0.78747">
        <ele>1187.8</ele>
        <time>2022-05-22 23:28:10</time>
      </trkpt>
      <trkpt lat="42.68843" lon="0.78748">
        <ele>1187.8</ele>
        <time>2022-05-22 23:28:11</time>
      </trkpt>
      <trkpt lat="42.68841" lon="0.78749">
        <ele>1188</ele>
        <time>2022-05-22 23:28:12</time>
      </trkpt>
      <trkpt lat="42.68839" lon="0.7875">
        <ele>1188.2</ele>
        <time>2022-05-22 23:28:13</time>
      </trkpt>
      <trkpt lat="42.68837" lon="0.78751">
        <ele>1188.2</ele>
        <time>2022-05-22 23:28:14</time>
      </trkpt>
      <trkpt lat="42.68835" lon="0.78752">
        <ele>1188.4</ele>
        <time>2022-05-22 23:28:15</time>
      </trkpt>
      <trkpt lat="42.68833" lon="0.78753">
        <ele>1188.4</ele>
        <time>2022-05-22 23:28:16</time>
      </trkpt>
      <trkpt lat="42.68831" lon="0.78754">
        <ele>1188.6</ele>
        <time>2022-05-22 23:28:17</time>
      </trkpt>
      <trkpt lat="42.68829" lon="0.78755">
        <ele>1188.6</ele>
        <time>2022-05-22 23:28:18</time>
      </trkpt>
      <trkpt lat="42.68827" lon="0.78756">
        <ele>1188.8</ele>
        <time>2022-05-22 23:28:19</time>
      </trkpt>
      <trkpt lat="42.68826" lon="0.78757">
        <ele>1188.8</ele>
        <time>2022-05-22 23:28:20</time>
      </trkpt>
      <trkpt lat="42.68824" lon="0.78758">
        <ele>1189</ele>
        <time>2022-05-22 23:28:21</time>
      </trkpt>
      <trkpt lat="42.68822" lon="0.78759">
        <ele>1189</ele>
        <time>2022-05-22 23:28:22</time>
      </trkpt>
      <trkpt lat="42.6882" lon="0.7876">
        <ele>1189.2</ele>
        <time>2022-05-22 23:28:23</time>
      </trkpt>
      <trkpt lat="42.68818" lon="0.78761">
        <ele>1189.4</ele>
        <time>2022-05-22 23:28:24</time>
      </trkpt>
      <trkpt lat="42.68816" lon="0.78762">
        <ele>1189.4</ele>
        <time>2022-05-22 23:28:25</time>
      </trkpt>
      <trkpt lat="42.68814" lon="0.78763">
        <ele>1189.4</ele>
        <time>2022-05-22 23:28:26</time>
      </trkpt>
      <trkpt lat="42.68812" lon="0.78764">
        <ele>1189.6</ele>
        <time>2022-05-22 23:28:27</time>
      </trkpt>
      <trkpt lat="42.6881" lon="0.78764">
        <ele>1189.6</ele>
        <time>2022-05-22 23:28:28</time>
      </trkpt>
      <trkpt lat="42.68808" lon="0.78765">
        <ele>1189.8</ele>
        <time>2022-05-22 23:28:29</time>
      </trkpt>
      <trkpt lat="42.68806" lon="0.78766">
        <ele>1190</ele>
        <time>2022-05-22 23:28:30</time>
      </trkpt>
      <trkpt lat="42.68804" lon="0.78767">
        <ele>1190</ele>
        <time>2022-05-22 23:28:31</time>
      </trkpt>
      <trkpt lat="42.68802" lon="0.78767">
        <ele>1190.2</ele>
        <time>2022-05-22 23:28:32</time>
      </trkpt>
      <trkpt lat="42.688" lon="0.78768">
        <ele>1190.4</ele>
        <time>2022-05-22 23:28:33</time>
      </trkpt>
      <trkpt lat="42.68799" lon="0.78768">
        <ele>1190.4</ele>
        <time>2022-05-22 23:28:34</time>
      </trkpt>
      <trkpt lat="42.68797" lon="0.78769">
        <ele>1190.6</ele>
        <time>2022-05-22 23:28:35</time>
      </trkpt>
      <trkpt lat="42.68794" lon="0.7877">
        <ele>1190.8</ele>
        <time>2022-05-22 23:28:36</time>
      </trkpt>
      <trkpt lat="42.68792" lon="0.7877">
        <ele>1190.8</ele>
        <time>2022-05-22 23:28:37</time>
      </trkpt>
      <trkpt lat="42.6879" lon="0.78771">
        <ele>1191</ele>
        <time>2022-05-22 23:28:38</time>
      </trkpt>
      <trkpt lat="42.68789" lon="0.78772">
        <ele>1191</ele>
        <time>2022-05-22 23:28:39</time>
      </trkpt>
      <trkpt lat="42.68786" lon="0.78772">
        <ele>1191.2</ele>
        <time>2022-05-22 23:28:40</time>
      </trkpt>
      <trkpt lat="42.68784" lon="0.78772">
        <ele>1191.2</ele>
        <time>2022-05-22 23:28:41</time>
      </trkpt>
      <trkpt lat="42.68782" lon="0.78772">
        <ele>1191.4</ele>
        <time>2022-05-22 23:28:42</time>
      </trkpt>
      <trkpt lat="42.6878" lon="0.78773">
        <ele>1191.6</ele>
        <time>2022-05-22 23:28:43</time>
      </trkpt>
      <trkpt lat="42.68778" lon="0.78773">
        <ele>1191.6</ele>
        <time>2022-05-22 23:28:44</time>
      </trkpt>
      <trkpt lat="42.68776" lon="0.78774">
        <ele>1191.8</ele>
        <time>2022-05-22 23:28:45</time>
      </trkpt>
      <trkpt lat="42.68774" lon="0.78774">
        <ele>1191.8</ele>
        <time>2022-05-22 23:28:46</time>
      </trkpt>
      <trkpt lat="42.68771" lon="0.78775">
        <ele>1192</ele>
        <time>2022-05-22 23:28:47</time>
      </trkpt>
      <trkpt lat="42.68769" lon="0.78775">
        <ele>1192.2</ele>
        <time>2022-05-22 23:28:48</time>
      </trkpt>
      <trkpt lat="42.68767" lon="0.78775">
        <ele>1192.2</ele>
        <time>2022-05-22 23:28:49</time>
      </trkpt>
      <trkpt lat="42.68765" lon="0.78775">
        <ele>1192.4</ele>
        <time>2022-05-22 23:28:50</time>
      </trkpt>
      <trkpt lat="42.68763" lon="0.78776">
        <ele>1192.6</ele>
        <time>2022-05-22 23:28:51</time>
      </trkpt>
      <trkpt lat="42.6876" lon="0.78776">
        <ele>1192.6</ele>
        <time>2022-05-22 23:28:52</time>
      </trkpt>
      <trkpt lat="42.68758" lon="0.78776">
        <ele>1192.8</ele>
        <time>2022-05-22 23:28:53</time>
      </trkpt>
      <trkpt lat="42.68756" lon="0.78776">
        <ele>1193</ele>
        <time>2022-05-22 23:28:54</time>
      </trkpt>
      <trkpt lat="42.68754" lon="0.78776">
        <ele>1193.2</ele>
        <time>2022-05-22 23:28:55</time>
      </trkpt>
      <trkpt lat="42.68752" lon="0.78776">
        <ele>1193.2</ele>
        <time>2022-05-22 23:28:56</time>
      </trkpt>
      <trkpt lat="42.6875" lon="0.78776">
        <ele>1193.4</ele>
        <time>2022-05-22 23:28:57</time>
      </trkpt>
      <trkpt lat="42.68748" lon="0.78775">
        <ele>1193.6</ele>
        <time>2022-05-22 23:28:58</time>
      </trkpt>
      <trkpt lat="42.68746" lon="0.78775">
        <ele>1193.8</ele>
        <time>2022-05-22 23:28:59</time>
      </trkpt>
      <trkpt lat="42.68744" lon="0.78775">
        <ele>1193.8</ele>
        <time>2022-05-22 23:29:00</time>
      </trkpt>
      <trkpt lat="42.68742" lon="0.78775">
        <ele>1194</ele>
        <time>2022-05-22 23:29:01</time>
      </trkpt>
      <trkpt lat="42.6874" lon="0.78775">
        <ele>1194.2</ele>
        <time>2022-05-22 23:29:02</time>
      </trkpt>
      <trkpt lat="42.68738" lon="0.78774">
        <ele>1194.2</ele>
        <time>2022-05-22 23:29:03</time>
      </trkpt>
      <trkpt lat="42.68736" lon="0.78774">
        <ele>1194.4</ele>
        <time>2022-05-22 23:29:04</time>
      </trkpt>
      <trkpt lat="42.68734" lon="0.78774">
        <ele>1194.6</ele>
        <time>2022-05-22 23:29:05</time>
      </trkpt>
      <trkpt lat="42.68733" lon="0.78774">
        <ele>1194.8</ele>
        <time>2022-05-22 23:29:06</time>
      </trkpt>
      <trkpt lat="42.68731" lon="0.78773">
        <ele>1194.8</ele>
        <time>2022-05-22 23:29:07</time>
      </trkpt>
      <trkpt lat="42.68729" lon="0.78773">
        <ele>1195</ele>
        <time>2022-05-22 23:29:08</time>
      </trkpt>
      <trkpt lat="42.68728" lon="0.78772">
        <ele>1195.2</ele>
        <time>2022-05-22 23:29:09</time>
      </trkpt>
      <trkpt lat="42.68726" lon="0.78772">
        <ele>1195.4</ele>
        <time>2022-05-22 23:29:10</time>
      </trkpt>
      <trkpt lat="42.68724" lon="0.78771">
        <ele>1195.4</ele>
        <time>2022-05-22 23:29:11</time>
      </trkpt>
      <trkpt lat="42.68723" lon="0.78771">
        <ele>1195.6</ele>
        <time>2022-05-22 23:29:12</time>
      </trkpt>
      <trkpt lat="42.68721" lon="0.78771">
        <ele>1195.8</ele>
        <time>2022-05-22 23:29:13</time>
      </trkpt>
      <trkpt lat="42.68719" lon="0.7877">
        <ele>1196</ele>
        <time>2022-05-22 23:29:14</time>
      </trkpt>
      <trkpt lat="42.68717" lon="0.78769">
        <ele>1196</ele>
        <time>2022-05-22 23:29:15</time>
      </trkpt>
      <trkpt lat="42.68716" lon="0.78769">
        <ele>1196.2</ele>
        <time>2022-05-22 23:29:16</time>
      </trkpt>
      <trkpt lat="42.68715" lon="0.78768">
        <ele>1196.4</ele>
        <time>2022-05-22 23:29:17</time>
      </trkpt>
      <trkpt lat="42.68713" lon="0.78767">
        <ele>1196.6</ele>
        <time>2022-05-22 23:29:18</time>
      </trkpt>
      <trkpt lat="42.68711" lon="0.78765">
        <ele>1196.6</ele>
        <time>2022-05-22 23:29:19</time>
      </trkpt>
      <trkpt lat="42.68709" lon="0.78764">
        <ele>1196.8</ele>
        <time>2022-05-22 23:29:20</time>
      </trkpt>
      <trkpt lat="42.68707" lon="0.78763">
        <ele>1197</ele>
        <time>2022-05-22 23:29:21</time>
      </trkpt>
      <trkpt lat="42.68706" lon="0.78762">
        <ele>1197.2</ele>
        <time>2022-05-22 23:29:22</time>
      </trkpt>
      <trkpt lat="42.68704" lon="0.78761">
        <ele>1197.4</ele>
        <time>2022-05-22 23:29:23</time>
      </trkpt>
      <trkpt lat="42.68702" lon="0.78761">
        <ele>1197.4</ele>
        <time>2022-05-22 23:29:24</time>
      </trkpt>
      <trkpt lat="42.687" lon="0.7876">
        <ele>1197.6</ele>
        <time>2022-05-22 23:29:25</time>
      </trkpt>
      <trkpt lat="42.68699" lon="0.7876">
        <ele>1197.8</ele>
        <time>2022-05-22 23:29:26</time>
      </trkpt>
      <trkpt lat="42.68698" lon="0.78758">
        <ele>1198</ele>
        <time>2022-05-22 23:29:27</time>
      </trkpt>
      <trkpt lat="42.68697" lon="0.78757">
        <ele>1198.2</ele>
        <time>2022-05-22 23:29:28</time>
      </trkpt>
      <trkpt lat="42.68695" lon="0.78756">
        <ele>1198.2</ele>
        <time>2022-05-22 23:29:29</time>
      </trkpt>
      <trkpt lat="42.68694" lon="0.78755">
        <ele>1198.4</ele>
        <time>2022-05-22 23:29:30</time>
      </trkpt>
      <trkpt lat="42.68692" lon="0.78754">
        <ele>1198.6</ele>
        <time>2022-05-22 23:29:31</time>
      </trkpt>
      <trkpt lat="42.68691" lon="0.78753">
        <ele>1198.8</ele>
        <time>2022-05-22 23:29:32</time>
      </trkpt>
      <trkpt lat="42.68689" lon="0.78752">
        <ele>1199</ele>
        <time>2022-05-22 23:29:33</time>
      </trkpt>
      <trkpt lat="42.68688" lon="0.78751">
        <ele>1199</ele>
        <time>2022-05-22 23:29:34</time>
      </trkpt>
      <trkpt lat="42.68686" lon="0.7875">
        <ele>1199.2</ele>
        <time>2022-05-22 23:29:35</time>
      </trkpt>
      <trkpt lat="42.68684" lon="0.78749">
        <ele>1199.4</ele>
        <time>2022-05-22 23:29:36</time>
      </trkpt>
      <trkpt lat="42.68683" lon="0.78749">
        <ele>1199.4</ele>
        <time>2022-05-22 23:29:37</time>
      </trkpt>
      <trkpt lat="42.68682" lon="0.78748">
        <ele>1199.6</ele>
        <time>2022-05-22 23:29:38</time>
      </trkpt>
      <trkpt lat="42.6868" lon="0.78747">
        <ele>1199.8</ele>
        <time>2022-05-22 23:29:39</time>
      </trkpt>
      <trkpt lat="42.68678" lon="0.78746">
        <ele>1200</ele>
        <time>2022-05-22 23:29:40</time>
      </trkpt>
      <trkpt lat="42.68677" lon="0.78746">
        <ele>1200</ele>
        <time>2022-05-22 23:29:41</time>
      </trkpt>
      <trkpt lat="42.68675" lon="0.78745">
        <ele>1200.2</ele>
        <time>2022-05-22 23:29:42</time>
      </trkpt>
      <trkpt lat="42.68674" lon="0.78744">
        <ele>1200.4</ele>
        <time>2022-05-22 23:29:43</time>
      </trkpt>
      <trkpt lat="42.68672" lon="0.78744">
        <ele>1200.4</ele>
        <time>2022-05-22 23:29:44</time>
      </trkpt>
      <trkpt lat="42.6867" lon="0.78743">
        <ele>1200.6</ele>
        <time>2022-05-22 23:29:45</time>
      </trkpt>
      <trkpt lat="42.68669" lon="0.78743">
        <ele>1200.8</ele>
        <time>2022-05-22 23:29:46</time>
      </trkpt>
      <trkpt lat="42.68667" lon="0.78742">
        <ele>1200.8</ele>
        <time>2022-05-22 23:29:47</time>
      </trkpt>
      <trkpt lat="42.68665" lon="0.78742">
        <ele>1201</ele>
        <time>2022-05-22 23:29:48</time>
      </trkpt>
      <trkpt lat="42.68663" lon="0.78742">
        <ele>1201</ele>
        <time>2022-05-22 23:29:49</time>
      </trkpt>
      <trkpt lat="42.68662" lon="0.78741">
        <ele>1201.2</ele>
        <time>2022-05-22 23:29:50</time>
      </trkpt>
      <trkpt lat="42.6866" lon="0.78741">
        <ele>1201.2</ele>
        <time>2022-05-22 23:29:51</time>
      </trkpt>
      <trkpt lat="42.68658" lon="0.78741">
        <ele>1201.4</ele>
        <time>2022-05-22 23:29:52</time>
      </trkpt>
      <trkpt lat="42.68657" lon="0.7874">
        <ele>1201.6</ele>
        <time>2022-05-22 23:29:53</time>
      </trkpt>
      <trkpt lat="42.68655" lon="0.7874">
        <ele>1201.6</ele>
        <time>2022-05-22 23:29:54</time>
      </trkpt>
      <trkpt lat="42.68653" lon="0.78739">
        <ele>1201.8</ele>
        <time>2022-05-22 23:29:55</time>
      </trkpt>
      <trkpt lat="42.68651" lon="0.78739">
        <ele>1201.8</ele>
        <time>2022-05-22 23:29:56</time>
      </trkpt>
      <trkpt lat="42.68649" lon="0.78739">
        <ele>1202</ele>
        <time>2022-05-22 23:29:57</time>
      </trkpt>
      <trkpt lat="42.68647" lon="0.78739">
        <ele>1202.2</ele>
        <time>2022-05-22 23:29:58</time>
      </trkpt>
      <trkpt lat="42.68646" lon="0.78738">
        <ele>1202.2</ele>
        <time>2022-05-22 23:29:59</time>
      </trkpt>
      <trkpt lat="42.68644" lon="0.78738">
        <ele>1202.4</ele>
        <time>2022-05-22 23:30:00</time>
      </trkpt>
      <trkpt lat="42.68642" lon="0.78738">
        <ele>1202.6</ele>
        <time>2022-05-22 23:30:01</time>
      </trkpt>
      <trkpt lat="42.6864" lon="0.78737">
        <ele>1202.6</ele>
        <time>2022-05-22 23:30:02</time>
      </trkpt>
      <trkpt lat="42.68639" lon="0.78737">
        <ele>1202.8</ele>
        <time>2022-05-22 23:30:03</time>
      </trkpt>
      <trkpt lat="42.68637" lon="0.78737">
        <ele>1202.8</ele>
        <time>2022-05-22 23:30:04</time>
      </trkpt>
      <trkpt lat="42.68635" lon="0.78736">
        <ele>1203</ele>
        <time>2022-05-22 23:30:05</time>
      </trkpt>
      <trkpt lat="42.68633" lon="0.78736">
        <ele>1203.2</ele>
        <time>2022-05-22 23:30:06</time>
      </trkpt>
      <trkpt lat="42.68631" lon="0.78735">
        <ele>1203.2</ele>
        <time>2022-05-22 23:30:07</time>
      </trkpt>
      <trkpt lat="42.6863" lon="0.78735">
        <ele>1203.4</ele>
        <time>2022-05-22 23:30:08</time>
      </trkpt>
      <trkpt lat="42.68628" lon="0.78735">
        <ele>1203.6</ele>
        <time>2022-05-22 23:30:09</time>
      </trkpt>
      <trkpt lat="42.68626" lon="0.78735">
        <ele>1203.6</ele>
        <time>2022-05-22 23:30:10</time>
      </trkpt>
      <trkpt lat="42.68625" lon="0.78735">
        <ele>1203.8</ele>
        <time>2022-05-22 23:30:11</time>
      </trkpt>
      <trkpt lat="42.68623" lon="0.78735">
        <ele>1204</ele>
        <time>2022-05-22 23:30:12</time>
      </trkpt>
      <trkpt lat="42.68621" lon="0.78734">
        <ele>1204</ele>
        <time>2022-05-22 23:30:13</time>
      </trkpt>
      <trkpt lat="42.68619" lon="0.78734">
        <ele>1204.2</ele>
        <time>2022-05-22 23:30:14</time>
      </trkpt>
      <trkpt lat="42.68617" lon="0.78734">
        <ele>1204.4</ele>
        <time>2022-05-22 23:30:15</time>
      </trkpt>
      <trkpt lat="42.68615" lon="0.78734">
        <ele>1204.4</ele>
        <time>2022-05-22 23:30:16</time>
      </trkpt>
      <trkpt lat="42.68613" lon="0.78734">
        <ele>1204.6</ele>
        <time>2022-05-22 23:30:17</time>
      </trkpt>
      <trkpt lat="42.68611" lon="0.78734">
        <ele>1204.8</ele>
        <time>2022-05-22 23:30:18</time>
      </trkpt>
      <trkpt lat="42.68609" lon="0.78734">
        <ele>1204.8</ele>
        <time>2022-05-22 23:30:19</time>
      </trkpt>
      <trkpt lat="42.68607" lon="0.78734">
        <ele>1205</ele>
        <time>2022-05-22 23:30:20</time>
      </trkpt>
      <trkpt lat="42.68605" lon="0.78734">
        <ele>1205.2</ele>
        <time>2022-05-22 23:30:21</time>
      </trkpt>
      <trkpt lat="42.68603" lon="0.78735">
        <ele>1205.2</ele>
        <time>2022-05-22 23:30:22</time>
      </trkpt>
      <trkpt lat="42.68601" lon="0.78735">
        <ele>1205.4</ele>
        <time>2022-05-22 23:30:23</time>
      </trkpt>
      <trkpt lat="42.68599" lon="0.78735">
        <ele>1205.6</ele>
        <time>2022-05-22 23:30:24</time>
      </trkpt>
      <trkpt lat="42.68597" lon="0.78735">
        <ele>1205.6</ele>
        <time>2022-05-22 23:30:25</time>
      </trkpt>
      <trkpt lat="42.68595" lon="0.78735">
        <ele>1205.8</ele>
        <time>2022-05-22 23:30:26</time>
      </trkpt>
      <trkpt lat="42.68593" lon="0.78735">
        <ele>1206</ele>
        <time>2022-05-22 23:30:27</time>
      </trkpt>
      <trkpt lat="42.68591" lon="0.78735">
        <ele>1206</ele>
        <time>2022-05-22 23:30:28</time>
      </trkpt>
      <trkpt lat="42.68589" lon="0.78735">
        <ele>1206.2</ele>
        <time>2022-05-22 23:30:29</time>
      </trkpt>
      <trkpt lat="42.68588" lon="0.78735">
        <ele>1206.2</ele>
        <time>2022-05-22 23:30:30</time>
      </trkpt>
      <trkpt lat="42.68586" lon="0.78735">
        <ele>1206.4</ele>
        <time>2022-05-22 23:30:31</time>
      </trkpt>
      <trkpt lat="42.68584" lon="0.78736">
        <ele>1206.6</ele>
        <time>2022-05-22 23:30:32</time>
      </trkpt>
      <trkpt lat="42.68582" lon="0.78737">
        <ele>1206.6</ele>
        <time>2022-05-22 23:30:33</time>
      </trkpt>
      <trkpt lat="42.6858" lon="0.78737">
        <ele>1206.8</ele>
        <time>2022-05-22 23:30:34</time>
      </trkpt>
      <trkpt lat="42.68577" lon="0.78738">
        <ele>1206.8</ele>
        <time>2022-05-22 23:30:35</time>
      </trkpt>
      <trkpt lat="42.68575" lon="0.78738">
        <ele>1207</ele>
        <time>2022-05-22 23:30:36</time>
      </trkpt>
      <trkpt lat="42.68573" lon="0.78738">
        <ele>1207.2</ele>
        <time>2022-05-22 23:30:37</time>
      </trkpt>
      <trkpt lat="42.68572" lon="0.78738">
        <ele>1207.2</ele>
        <time>2022-05-22 23:30:38</time>
      </trkpt>
      <trkpt lat="42.6857" lon="0.78739">
        <ele>1207.4</ele>
        <time>2022-05-22 23:30:39</time>
      </trkpt>
      <trkpt lat="42.68568" lon="0.78739">
        <ele>1207.4</ele>
        <time>2022-05-22 23:30:40</time>
      </trkpt>
      <trkpt lat="42.68566" lon="0.78739">
        <ele>1207.6</ele>
        <time>2022-05-22 23:30:41</time>
      </trkpt>
      <trkpt lat="42.68564" lon="0.7874">
        <ele>1207.6</ele>
        <time>2022-05-22 23:30:42</time>
      </trkpt>
      <trkpt lat="42.68562" lon="0.7874">
        <ele>1207.8</ele>
        <time>2022-05-22 23:30:43</time>
      </trkpt>
      <trkpt lat="42.6856" lon="0.78741">
        <ele>1207.8</ele>
        <time>2022-05-22 23:30:44</time>
      </trkpt>
      <trkpt lat="42.68557" lon="0.78743">
        <ele>1208</ele>
        <time>2022-05-22 23:30:45</time>
      </trkpt>
      <trkpt lat="42.68555" lon="0.78744">
        <ele>1208</ele>
        <time>2022-05-22 23:30:46</time>
      </trkpt>
      <trkpt lat="42.68553" lon="0.78746">
        <ele>1208.2</ele>
        <time>2022-05-22 23:30:47</time>
      </trkpt>
      <trkpt lat="42.68551" lon="0.78746">
        <ele>1208.2</ele>
        <time>2022-05-22 23:30:48</time>
      </trkpt>
      <trkpt lat="42.68549" lon="0.78747">
        <ele>1208.4</ele>
        <time>2022-05-22 23:30:49</time>
      </trkpt>
      <trkpt lat="42.68547" lon="0.78747">
        <ele>1208.4</ele>
        <time>2022-05-22 23:30:50</time>
      </trkpt>
      <trkpt lat="42.68545" lon="0.78747">
        <ele>1208.6</ele>
        <time>2022-05-22 23:30:51</time>
      </trkpt>
      <trkpt lat="42.68543" lon="0.78747">
        <ele>1208.8</ele>
        <time>2022-05-22 23:30:52</time>
      </trkpt>
      <trkpt lat="42.68541" lon="0.78748">
        <ele>1208.8</ele>
        <time>2022-05-22 23:30:53</time>
      </trkpt>
      <trkpt lat="42.68538" lon="0.78749">
        <ele>1209</ele>
        <time>2022-05-22 23:30:54</time>
      </trkpt>
      <trkpt lat="42.68536" lon="0.7875">
        <ele>1209.2</ele>
        <time>2022-05-22 23:30:55</time>
      </trkpt>
      <trkpt lat="42.68533" lon="0.78751">
        <ele>1209.2</ele>
        <time>2022-05-22 23:30:56</time>
      </trkpt>
      <trkpt lat="42.6853" lon="0.78753">
        <ele>1209.4</ele>
        <time>2022-05-22 23:30:57</time>
      </trkpt>
      <trkpt lat="42.68528" lon="0.78754">
        <ele>1209.6</ele>
        <time>2022-05-22 23:30:58</time>
      </trkpt>
      <trkpt lat="42.68526" lon="0.78755">
        <ele>1209.8</ele>
        <time>2022-05-22 23:30:59</time>
      </trkpt>
      <trkpt lat="42.68524" lon="0.78756">
        <ele>1209.8</ele>
        <time>2022-05-22 23:31:00</time>
      </trkpt>
      <trkpt lat="42.68522" lon="0.78757">
        <ele>1210</ele>
        <time>2022-05-22 23:31:01</time>
      </trkpt>
      <trkpt lat="42.68519" lon="0.78758">
        <ele>1210.2</ele>
        <time>2022-05-22 23:31:02</time>
      </trkpt>
      <trkpt lat="42.68517" lon="0.78759">
        <ele>1210.4</ele>
        <time>2022-05-22 23:31:03</time>
      </trkpt>
      <trkpt lat="42.68515" lon="0.7876">
        <ele>1210.4</ele>
        <time>2022-05-22 23:31:04</time>
      </trkpt>
      <trkpt lat="42.68514" lon="0.78762">
        <ele>1210.6</ele>
        <time>2022-05-22 23:31:05</time>
      </trkpt>
      <trkpt lat="42.68511" lon="0.78762">
        <ele>1210.8</ele>
        <time>2022-05-22 23:31:06</time>
      </trkpt>
      <trkpt lat="42.68509" lon="0.78763">
        <ele>1210.8</ele>
        <time>2022-05-22 23:31:07</time>
      </trkpt>
      <trkpt lat="42.68507" lon="0.78764">
        <ele>1211</ele>
        <time>2022-05-22 23:31:08</time>
      </trkpt>
      <trkpt lat="42.68505" lon="0.78765">
        <ele>1211.2</ele>
        <time>2022-05-22 23:31:09</time>
      </trkpt>
      <trkpt lat="42.68503" lon="0.78767">
        <ele>1211.2</ele>
        <time>2022-05-22 23:31:10</time>
      </trkpt>
      <trkpt lat="42.68501" lon="0.78768">
        <ele>1211.4</ele>
        <time>2022-05-22 23:31:11</time>
      </trkpt>
      <trkpt lat="42.68499" lon="0.78769">
        <ele>1211.6</ele>
        <time>2022-05-22 23:31:12</time>
      </trkpt>
      <trkpt lat="42.68498" lon="0.78769">
        <ele>1211.6</ele>
        <time>2022-05-22 23:31:13</time>
      </trkpt>
      <trkpt lat="42.68496" lon="0.7877">
        <ele>1211.8</ele>
        <time>2022-05-22 23:31:14</time>
      </trkpt>
      <trkpt lat="42.68493" lon="0.78771">
        <ele>1211.8</ele>
        <time>2022-05-22 23:31:15</time>
      </trkpt>
      <trkpt lat="42.68491" lon="0.78771">
        <ele>1212</ele>
        <time>2022-05-22 23:31:16</time>
      </trkpt>
      <trkpt lat="42.68489" lon="0.78772">
        <ele>1212.2</ele>
        <time>2022-05-22 23:31:17</time>
      </trkpt>
      <trkpt lat="42.68487" lon="0.78773">
        <ele>1212.4</ele>
        <time>2022-05-22 23:31:18</time>
      </trkpt>
      <trkpt lat="42.68485" lon="0.78773">
        <ele>1212.4</ele>
        <time>2022-05-22 23:31:19</time>
      </trkpt>
      <trkpt lat="42.68483" lon="0.78773">
        <ele>1212.6</ele>
        <time>2022-05-22 23:31:20</time>
      </trkpt>
      <trkpt lat="42.68481" lon="0.78773">
        <ele>1212.6</ele>
        <time>2022-05-22 23:31:21</time>
      </trkpt>
      <trkpt lat="42.68479" lon="0.78773">
        <ele>1212.8</ele>
        <time>2022-05-22 23:31:22</time>
      </trkpt>
      <trkpt lat="42.68477" lon="0.78773">
        <ele>1212.8</ele>
        <time>2022-05-22 23:31:23</time>
      </trkpt>
      <trkpt lat="42.68474" lon="0.78773">
        <ele>1213</ele>
        <time>2022-05-22 23:31:24</time>
      </trkpt>
      <trkpt lat="42.68473" lon="0.78774">
        <ele>1213</ele>
        <time>2022-05-22 23:31:25</time>
      </trkpt>
      <trkpt lat="42.68472" lon="0.78776">
        <ele>1213.2</ele>
        <time>2022-05-22 23:31:26</time>
      </trkpt>
      <trkpt lat="42.68471" lon="0.78779">
        <ele>1213.4</ele>
        <time>2022-05-22 23:31:27</time>
      </trkpt>
      <trkpt lat="42.68471" lon="0.78782">
        <ele>1213.4</ele>
        <time>2022-05-22 23:31:28</time>
      </trkpt>
      <trkpt lat="42.68469" lon="0.78782">
        <ele>1213.6</ele>
        <time>2022-05-22 23:31:29</time>
      </trkpt>
      <trkpt lat="42.68467" lon="0.78779">
        <ele>1213.6</ele>
        <time>2022-05-22 23:31:30</time>
      </trkpt>
      <trkpt lat="42.68464" lon="0.78777">
        <ele>1213.8</ele>
        <time>2022-05-22 23:31:31</time>
      </trkpt>
      <trkpt lat="42.68462" lon="0.78777">
        <ele>1214</ele>
        <time>2022-05-22 23:31:32</time>
      </trkpt>
      <trkpt lat="42.68459" lon="0.78776">
        <ele>1214</ele>
        <time>2022-05-22 23:31:33</time>
      </trkpt>
      <trkpt lat="42.68457" lon="0.78775">
        <ele>1214.2</ele>
        <time>2022-05-22 23:31:34</time>
      </trkpt>
      <trkpt lat="42.68454" lon="0.78775">
        <ele>1214.2</ele>
        <time>2022-05-22 23:31:35</time>
      </trkpt>
      <trkpt lat="42.68452" lon="0.78775">
        <ele>1214.4</ele>
        <time>2022-05-22 23:31:36</time>
      </trkpt>
      <trkpt lat="42.6845" lon="0.78774">
        <ele>1214.6</ele>
        <time>2022-05-22 23:31:37</time>
      </trkpt>
      <trkpt lat="42.68448" lon="0.78773">
        <ele>1214.6</ele>
        <time>2022-05-22 23:31:38</time>
      </trkpt>
      <trkpt lat="42.68445" lon="0.78773">
        <ele>1214.8</ele>
        <time>2022-05-22 23:31:39</time>
      </trkpt>
      <trkpt lat="42.68443" lon="0.78773">
        <ele>1215</ele>
        <time>2022-05-22 23:31:40</time>
      </trkpt>
      <trkpt lat="42.68441" lon="0.78773">
        <ele>1215</ele>
        <time>2022-05-22 23:31:41</time>
      </trkpt>
      <trkpt lat="42.68439" lon="0.78773">
        <ele>1215.2</ele>
        <time>2022-05-22 23:31:42</time>
      </trkpt>
      <trkpt lat="42.68437" lon="0.78773">
        <ele>1215.4</ele>
        <time>2022-05-22 23:31:43</time>
      </trkpt>
      <trkpt lat="42.68435" lon="0.78773">
        <ele>1215.4</ele>
        <time>2022-05-22 23:31:44</time>
      </trkpt>
      <trkpt lat="42.68434" lon="0.78773">
        <ele>1215.6</ele>
        <time>2022-05-22 23:31:45</time>
      </trkpt>
      <trkpt lat="42.68432" lon="0.78774">
        <ele>1215.8</ele>
        <time>2022-05-22 23:31:46</time>
      </trkpt>
      <trkpt lat="42.6843" lon="0.78774">
        <ele>1215.8</ele>
        <time>2022-05-22 23:31:47</time>
      </trkpt>
      <trkpt lat="42.68428" lon="0.78774">
        <ele>1216</ele>
        <time>2022-05-22 23:31:48</time>
      </trkpt>
      <trkpt lat="42.68426" lon="0.78774">
        <ele>1216</ele>
        <time>2022-05-22 23:31:49</time>
      </trkpt>
      <trkpt lat="42.68424" lon="0.78775">
        <ele>1216.2</ele>
        <time>2022-05-22 23:31:50</time>
      </trkpt>
      <trkpt lat="42.68422" lon="0.78775">
        <ele>1216.2</ele>
        <time>2022-05-22 23:31:51</time>
      </trkpt>
      <trkpt lat="42.6842" lon="0.78775">
        <ele>1216.4</ele>
        <time>2022-05-22 23:31:52</time>
      </trkpt>
      <trkpt lat="42.68418" lon="0.78775">
        <ele>1216.4</ele>
        <time>2022-05-22 23:31:53</time>
      </trkpt>
      <trkpt lat="42.68417" lon="0.78774">
        <ele>1216.6</ele>
        <time>2022-05-22 23:31:54</time>
      </trkpt>
      <trkpt lat="42.68415" lon="0.78774">
        <ele>1216.8</ele>
        <time>2022-05-22 23:31:55</time>
      </trkpt>
      <trkpt lat="42.68413" lon="0.78774">
        <ele>1216.8</ele>
        <time>2022-05-22 23:31:56</time>
      </trkpt>
      <trkpt lat="42.68411" lon="0.78774">
        <ele>1217</ele>
        <time>2022-05-22 23:31:57</time>
      </trkpt>
      <trkpt lat="42.68409" lon="0.78773">
        <ele>1217</ele>
        <time>2022-05-22 23:31:58</time>
      </trkpt>
      <trkpt lat="42.68407" lon="0.78773">
        <ele>1217.2</ele>
        <time>2022-05-22 23:31:59</time>
      </trkpt>
      <trkpt lat="42.68406" lon="0.78773">
        <ele>1217.2</ele>
        <time>2022-05-22 23:32:00</time>
      </trkpt>
      <trkpt lat="42.68403" lon="0.78773">
        <ele>1217.4</ele>
        <time>2022-05-22 23:32:01</time>
      </trkpt>
      <trkpt lat="42.68401" lon="0.78773">
        <ele>1217.4</ele>
        <time>2022-05-22 23:32:02</time>
      </trkpt>
      <trkpt lat="42.68399" lon="0.78772">
        <ele>1217.6</ele>
        <time>2022-05-22 23:32:03</time>
      </trkpt>
      <trkpt lat="42.68398" lon="0.78772">
        <ele>1217.6</ele>
        <time>2022-05-22 23:32:04</time>
      </trkpt>
      <trkpt lat="42.68396" lon="0.78772">
        <ele>1217.8</ele>
        <time>2022-05-22 23:32:05</time>
      </trkpt>
      <trkpt lat="42.68394" lon="0.78773">
        <ele>1218</ele>
        <time>2022-05-22 23:32:06</time>
      </trkpt>
      <trkpt lat="42.68392" lon="0.78773">
        <ele>1218</ele>
        <time>2022-05-22 23:32:07</time>
      </trkpt>
      <trkpt lat="42.6839" lon="0.78773">
        <ele>1218.2</ele>
        <time>2022-05-22 23:32:08</time>
      </trkpt>
      <trkpt lat="42.68388" lon="0.78773">
        <ele>1218.2</ele>
        <time>2022-05-22 23:32:09</time>
      </trkpt>
      <trkpt lat="42.68386" lon="0.78773">
        <ele>1218.4</ele>
        <time>2022-05-22 23:32:10</time>
      </trkpt>
      <trkpt lat="42.68384" lon="0.78774">
        <ele>1218.4</ele>
        <time>2022-05-22 23:32:11</time>
      </trkpt>
      <trkpt lat="42.68382" lon="0.78774">
        <ele>1218.6</ele>
        <time>2022-05-22 23:32:12</time>
      </trkpt>
      <trkpt lat="42.6838" lon="0.78774">
        <ele>1218.6</ele>
        <time>2022-05-22 23:32:13</time>
      </trkpt>
      <trkpt lat="42.68378" lon="0.78774">
        <ele>1218.8</ele>
        <time>2022-05-22 23:32:14</time>
      </trkpt>
      <trkpt lat="42.68376" lon="0.78774">
        <ele>1219</ele>
        <time>2022-05-22 23:32:15</time>
      </trkpt>
      <trkpt lat="42.68374" lon="0.78773">
        <ele>1219</ele>
        <time>2022-05-22 23:32:16</time>
      </trkpt>
      <trkpt lat="42.68372" lon="0.78773">
        <ele>1219.2</ele>
        <time>2022-05-22 23:32:17</time>
      </trkpt>
      <trkpt lat="42.6837" lon="0.78773">
        <ele>1219.2</ele>
        <time>2022-05-22 23:32:18</time>
      </trkpt>
      <trkpt lat="42.68369" lon="0.78773">
        <ele>1219.4</ele>
        <time>2022-05-22 23:32:19</time>
      </trkpt>
      <trkpt lat="42.68367" lon="0.78773">
        <ele>1219.4</ele>
        <time>2022-05-22 23:32:20</time>
      </trkpt>
      <trkpt lat="42.68365" lon="0.78774">
        <ele>1219.6</ele>
        <time>2022-05-22 23:32:21</time>
      </trkpt>
      <trkpt lat="42.68363" lon="0.78774">
        <ele>1219.6</ele>
        <time>2022-05-22 23:32:22</time>
      </trkpt>
      <trkpt lat="42.68362" lon="0.78775">
        <ele>1219.8</ele>
        <time>2022-05-22 23:32:23</time>
      </trkpt>
      <trkpt lat="42.6836" lon="0.78775">
        <ele>1219.8</ele>
        <time>2022-05-22 23:32:24</time>
      </trkpt>
      <trkpt lat="42.68358" lon="0.78776">
        <ele>1220</ele>
        <time>2022-05-22 23:32:25</time>
      </trkpt>
      <trkpt lat="42.68356" lon="0.78776">
        <ele>1220</ele>
        <time>2022-05-22 23:32:26</time>
      </trkpt>
      <trkpt lat="42.68354" lon="0.78776">
        <ele>1220.2</ele>
        <time>2022-05-22 23:32:27</time>
      </trkpt>
      <trkpt lat="42.68353" lon="0.78776">
        <ele>1220.4</ele>
        <time>2022-05-22 23:32:28</time>
      </trkpt>
      <trkpt lat="42.68351" lon="0.78777">
        <ele>1220.4</ele>
        <time>2022-05-22 23:32:29</time>
      </trkpt>
      <trkpt lat="42.68349" lon="0.78778">
        <ele>1220.6</ele>
        <time>2022-05-22 23:32:30</time>
      </trkpt>
      <trkpt lat="42.68347" lon="0.78778">
        <ele>1220.6</ele>
        <time>2022-05-22 23:32:31</time>
      </trkpt>
      <trkpt lat="42.68345" lon="0.78778">
        <ele>1220.8</ele>
        <time>2022-05-22 23:32:32</time>
      </trkpt>
      <trkpt lat="42.68342" lon="0.78778">
        <ele>1221</ele>
        <time>2022-05-22 23:32:33</time>
      </trkpt>
      <trkpt lat="42.6834" lon="0.78779">
        <ele>1221</ele>
        <time>2022-05-22 23:32:34</time>
      </trkpt>
      <trkpt lat="42.68338" lon="0.78779">
        <ele>1221.2</ele>
        <time>2022-05-22 23:32:35</time>
      </trkpt>
      <trkpt lat="42.68336" lon="0.7878">
        <ele>1221.2</ele>
        <time>2022-05-22 23:32:36</time>
      </trkpt>
      <trkpt lat="42.68334" lon="0.7878">
        <ele>1221.4</ele>
        <time>2022-05-22 23:32:37</time>
      </trkpt>
      <trkpt lat="42.68332" lon="0.7878">
        <ele>1221.6</ele>
        <time>2022-05-22 23:32:38</time>
      </trkpt>
      <trkpt lat="42.6833" lon="0.7878">
        <ele>1221.6</ele>
        <time>2022-05-22 23:32:39</time>
      </trkpt>
      <trkpt lat="42.68327" lon="0.78781">
        <ele>1221.8</ele>
        <time>2022-05-22 23:32:40</time>
      </trkpt>
      <trkpt lat="42.68325" lon="0.78781">
        <ele>1222</ele>
        <time>2022-05-22 23:32:41</time>
      </trkpt>
      <trkpt lat="42.68322" lon="0.78781">
        <ele>1222</ele>
        <time>2022-05-22 23:32:42</time>
      </trkpt>
      <trkpt lat="42.6832" lon="0.78781">
        <ele>1222.2</ele>
        <time>2022-05-22 23:32:43</time>
      </trkpt>
      <trkpt lat="42.68318" lon="0.78782">
        <ele>1222.4</ele>
        <time>2022-05-22 23:32:44</time>
      </trkpt>
      <trkpt lat="42.68316" lon="0.78782">
        <ele>1222.4</ele>
        <time>2022-05-22 23:32:45</time>
      </trkpt>
      <trkpt lat="42.68314" lon="0.78782">
        <ele>1222.6</ele>
        <time>2022-05-22 23:32:46</time>
      </trkpt>
      <trkpt lat="42.68312" lon="0.78782">
        <ele>1222.8</ele>
        <time>2022-05-22 23:32:47</time>
      </trkpt>
      <trkpt lat="42.6831" lon="0.78782">
        <ele>1223</ele>
        <time>2022-05-22 23:32:48</time>
      </trkpt>
      <trkpt lat="42.68308" lon="0.78782">
        <ele>1223</ele>
        <time>2022-05-22 23:32:49</time>
      </trkpt>
      <trkpt lat="42.68306" lon="0.78783">
        <ele>1223.2</ele>
        <time>2022-05-22 23:32:50</time>
      </trkpt>
      <trkpt lat="42.68304" lon="0.78783">
        <ele>1223.4</ele>
        <time>2022-05-22 23:32:51</time>
      </trkpt>
      <trkpt lat="42.68302" lon="0.78782">
        <ele>1223.4</ele>
        <time>2022-05-22 23:32:52</time>
      </trkpt>
      <trkpt lat="42.683" lon="0.78782">
        <ele>1223.6</ele>
        <time>2022-05-22 23:32:53</time>
      </trkpt>
      <trkpt lat="42.68298" lon="0.78782">
        <ele>1223.8</ele>
        <time>2022-05-22 23:32:54</time>
      </trkpt>
      <trkpt lat="42.68296" lon="0.78782">
        <ele>1223.8</ele>
        <time>2022-05-22 23:32:55</time>
      </trkpt>
      <trkpt lat="42.68294" lon="0.78782">
        <ele>1224</ele>
        <time>2022-05-22 23:32:56</time>
      </trkpt>
      <trkpt lat="42.68292" lon="0.78782">
        <ele>1224.2</ele>
        <time>2022-05-22 23:32:57</time>
      </trkpt>
      <trkpt lat="42.6829" lon="0.78782">
        <ele>1224.2</ele>
        <time>2022-05-22 23:32:58</time>
      </trkpt>
      <trkpt lat="42.68288" lon="0.78782">
        <ele>1224.4</ele>
        <time>2022-05-22 23:32:59</time>
      </trkpt>
      <trkpt lat="42.68286" lon="0.78782">
        <ele>1224.6</ele>
        <time>2022-05-22 23:33:00</time>
      </trkpt>
      <trkpt lat="42.68284" lon="0.78782">
        <ele>1224.6</ele>
        <time>2022-05-22 23:33:01</time>
      </trkpt>
      <trkpt lat="42.68282" lon="0.78782">
        <ele>1224.8</ele>
        <time>2022-05-22 23:33:02</time>
      </trkpt>
      <trkpt lat="42.6828" lon="0.78781">
        <ele>1224.8</ele>
        <time>2022-05-22 23:33:03</time>
      </trkpt>
      <trkpt lat="42.68278" lon="0.78781">
        <ele>1225</ele>
        <time>2022-05-22 23:33:04</time>
      </trkpt>
      <trkpt lat="42.68276" lon="0.78781">
        <ele>1225.2</ele>
        <time>2022-05-22 23:33:05</time>
      </trkpt>
      <trkpt lat="42.68274" lon="0.78781">
        <ele>1225.2</ele>
        <time>2022-05-22 23:33:06</time>
      </trkpt>
      <trkpt lat="42.68272" lon="0.78781">
        <ele>1225.4</ele>
        <time>2022-05-22 23:33:07</time>
      </trkpt>
      <trkpt lat="42.6827" lon="0.78781">
        <ele>1225.4</ele>
        <time>2022-05-22 23:33:08</time>
      </trkpt>
      <trkpt lat="42.68268" lon="0.78781">
        <ele>1225.6</ele>
        <time>2022-05-22 23:33:09</time>
      </trkpt>
      <trkpt lat="42.68266" lon="0.7878">
        <ele>1225.8</ele>
        <time>2022-05-22 23:33:10</time>
      </trkpt>
      <trkpt lat="42.68264" lon="0.7878">
        <ele>1225.8</ele>
        <time>2022-05-22 23:33:11</time>
      </trkpt>
      <trkpt lat="42.68262" lon="0.78779">
        <ele>1226</ele>
        <time>2022-05-22 23:33:12</time>
      </trkpt>
      <trkpt lat="42.6826" lon="0.78779">
        <ele>1226</ele>
        <time>2022-05-22 23:33:13</time>
      </trkpt>
      <trkpt lat="42.68258" lon="0.78779">
        <ele>1226.2</ele>
        <time>2022-05-22 23:33:14</time>
      </trkpt>
      <trkpt lat="42.68256" lon="0.78779">
        <ele>1226.4</ele>
        <time>2022-05-22 23:33:15</time>
      </trkpt>
      <trkpt lat="42.68254" lon="0.78779">
        <ele>1226.4</ele>
        <time>2022-05-22 23:33:16</time>
      </trkpt>
      <trkpt lat="42.68252" lon="0.78779">
        <ele>1226.6</ele>
        <time>2022-05-22 23:33:17</time>
      </trkpt>
      <trkpt lat="42.6825" lon="0.78778">
        <ele>1226.8</ele>
        <time>2022-05-22 23:33:18</time>
      </trkpt>
      <trkpt lat="42.68248" lon="0.78778">
        <ele>1226.8</ele>
        <time>2022-05-22 23:33:19</time>
      </trkpt>
      <trkpt lat="42.68246" lon="0.78778">
        <ele>1227</ele>
        <time>2022-05-22 23:33:20</time>
      </trkpt>
      <trkpt lat="42.68244" lon="0.78777">
        <ele>1227</ele>
        <time>2022-05-22 23:33:21</time>
      </trkpt>
      <trkpt lat="42.68242" lon="0.78777">
        <ele>1227.2</ele>
        <time>2022-05-22 23:33:22</time>
      </trkpt>
      <trkpt lat="42.6824" lon="0.78777">
        <ele>1227.2</ele>
        <time>2022-05-22 23:33:23</time>
      </trkpt>
      <trkpt lat="42.68239" lon="0.78777">
        <ele>1227.4</ele>
        <time>2022-05-22 23:33:24</time>
      </trkpt>
      <trkpt lat="42.68237" lon="0.78777">
        <ele>1227.6</ele>
        <time>2022-05-22 23:33:25</time>
      </trkpt>
      <trkpt lat="42.68235" lon="0.78776">
        <ele>1227.6</ele>
        <time>2022-05-22 23:33:26</time>
      </trkpt>
      <trkpt lat="42.68234" lon="0.78776">
        <ele>1227.8</ele>
        <time>2022-05-22 23:33:27</time>
      </trkpt>
      <trkpt lat="42.68232" lon="0.78775">
        <ele>1228</ele>
        <time>2022-05-22 23:33:28</time>
      </trkpt>
      <trkpt lat="42.6823" lon="0.78775">
        <ele>1228</ele>
        <time>2022-05-22 23:33:29</time>
      </trkpt>
      <trkpt lat="42.68228" lon="0.78774">
        <ele>1228.2</ele>
        <time>2022-05-22 23:33:30</time>
      </trkpt>
      <trkpt lat="42.68226" lon="0.78773">
        <ele>1228.4</ele>
        <time>2022-05-22 23:33:31</time>
      </trkpt>
      <trkpt lat="42.68224" lon="0.78773">
        <ele>1228.4</ele>
        <time>2022-05-22 23:33:32</time>
      </trkpt>
      <trkpt lat="42.68222" lon="0.78773">
        <ele>1228.6</ele>
        <time>2022-05-22 23:33:33</time>
      </trkpt>
      <trkpt lat="42.6822" lon="0.78772">
        <ele>1228.6</ele>
        <time>2022-05-22 23:33:34</time>
      </trkpt>
      <trkpt lat="42.68218" lon="0.78771">
        <ele>1228.8</ele>
        <time>2022-05-22 23:33:35</time>
      </trkpt>
      <trkpt lat="42.68216" lon="0.78771">
        <ele>1229</ele>
        <time>2022-05-22 23:33:36</time>
      </trkpt>
      <trkpt lat="42.68215" lon="0.7877">
        <ele>1229</ele>
        <time>2022-05-22 23:33:37</time>
      </trkpt>
      <trkpt lat="42.68213" lon="0.7877">
        <ele>1229.2</ele>
        <time>2022-05-22 23:33:38</time>
      </trkpt>
      <trkpt lat="42.68211" lon="0.7877">
        <ele>1229.4</ele>
        <time>2022-05-22 23:33:39</time>
      </trkpt>
      <trkpt lat="42.68208" lon="0.7877">
        <ele>1229.4</ele>
        <time>2022-05-22 23:33:40</time>
      </trkpt>
      <trkpt lat="42.68206" lon="0.78769">
        <ele>1229.6</ele>
        <time>2022-05-22 23:33:41</time>
      </trkpt>
      <trkpt lat="42.68205" lon="0.78769">
        <ele>1229.6</ele>
        <time>2022-05-22 23:33:42</time>
      </trkpt>
      <trkpt lat="42.68203" lon="0.78769">
        <ele>1229.8</ele>
        <time>2022-05-22 23:33:43</time>
      </trkpt>
      <trkpt lat="42.68201" lon="0.78768">
        <ele>1230</ele>
        <time>2022-05-22 23:33:44</time>
      </trkpt>
      <trkpt lat="42.682" lon="0.78768">
        <ele>1230</ele>
        <time>2022-05-22 23:33:45</time>
      </trkpt>
      <trkpt lat="42.68198" lon="0.78768">
        <ele>1230.2</ele>
        <time>2022-05-22 23:33:46</time>
      </trkpt>
      <trkpt lat="42.68197" lon="0.78767">
        <ele>1230.2</ele>
        <time>2022-05-22 23:33:47</time>
      </trkpt>
      <trkpt lat="42.68195" lon="0.78766">
        <ele>1230.4</ele>
        <time>2022-05-22 23:33:48</time>
      </trkpt>
      <trkpt lat="42.68193" lon="0.78766">
        <ele>1230.6</ele>
        <time>2022-05-22 23:33:49</time>
      </trkpt>
      <trkpt lat="42.68191" lon="0.78765">
        <ele>1230.6</ele>
        <time>2022-05-22 23:33:50</time>
      </trkpt>
      <trkpt lat="42.68189" lon="0.78764">
        <ele>1230.8</ele>
        <time>2022-05-22 23:33:51</time>
      </trkpt>
      <trkpt lat="42.68187" lon="0.78764">
        <ele>1230.8</ele>
        <time>2022-05-22 23:33:52</time>
      </trkpt>
      <trkpt lat="42.68185" lon="0.78763">
        <ele>1231</ele>
        <time>2022-05-22 23:33:53</time>
      </trkpt>
      <trkpt lat="42.68183" lon="0.78763">
        <ele>1231.2</ele>
        <time>2022-05-22 23:33:54</time>
      </trkpt>
      <trkpt lat="42.68181" lon="0.78762">
        <ele>1231.2</ele>
        <time>2022-05-22 23:33:55</time>
      </trkpt>
      <trkpt lat="42.68179" lon="0.78762">
        <ele>1231.4</ele>
        <time>2022-05-22 23:33:56</time>
      </trkpt>
      <trkpt lat="42.68177" lon="0.78762">
        <ele>1231.4</ele>
        <time>2022-05-22 23:33:57</time>
      </trkpt>
      <trkpt lat="42.68175" lon="0.78761">
        <ele>1231.6</ele>
        <time>2022-05-22 23:33:58</time>
      </trkpt>
      <trkpt lat="42.68173" lon="0.78761">
        <ele>1231.6</ele>
        <time>2022-05-22 23:33:59</time>
      </trkpt>
      <trkpt lat="42.68172" lon="0.7876">
        <ele>1231.8</ele>
        <time>2022-05-22 23:34:00</time>
      </trkpt>
      <trkpt lat="42.6817" lon="0.7876">
        <ele>1232</ele>
        <time>2022-05-22 23:34:01</time>
      </trkpt>
      <trkpt lat="42.68168" lon="0.7876">
        <ele>1232</ele>
        <time>2022-05-22 23:34:02</time>
      </trkpt>
      <trkpt lat="42.68166" lon="0.7876">
        <ele>1232.2</ele>
        <time>2022-05-22 23:34:03</time>
      </trkpt>
      <trkpt lat="42.68164" lon="0.7876">
        <ele>1232.2</ele>
        <time>2022-05-22 23:34:04</time>
      </trkpt>
      <trkpt lat="42.68162" lon="0.7876">
        <ele>1232.4</ele>
        <time>2022-05-22 23:34:05</time>
      </trkpt>
      <trkpt lat="42.68159" lon="0.78759">
        <ele>1232.6</ele>
        <time>2022-05-22 23:34:06</time>
      </trkpt>
      <trkpt lat="42.68157" lon="0.78758">
        <ele>1232.6</ele>
        <time>2022-05-22 23:34:07</time>
      </trkpt>
      <trkpt lat="42.68155" lon="0.78757">
        <ele>1232.8</ele>
        <time>2022-05-22 23:34:08</time>
      </trkpt>
      <trkpt lat="42.68152" lon="0.78757">
        <ele>1233</ele>
        <time>2022-05-22 23:34:09</time>
      </trkpt>
      <trkpt lat="42.68149" lon="0.78756">
        <ele>1233.2</ele>
        <time>2022-05-22 23:34:10</time>
      </trkpt>
      <trkpt lat="42.68147" lon="0.78755">
        <ele>1233.2</ele>
        <time>2022-05-22 23:34:11</time>
      </trkpt>
      <trkpt lat="42.68144" lon="0.78754">
        <ele>1233.4</ele>
        <time>2022-05-22 23:34:12</time>
      </trkpt>
      <trkpt lat="42.68142" lon="0.78753">
        <ele>1233.6</ele>
        <time>2022-05-22 23:34:13</time>
      </trkpt>
      <trkpt lat="42.6814" lon="0.78752">
        <ele>1233.8</ele>
        <time>2022-05-22 23:34:14</time>
      </trkpt>
      <trkpt lat="42.68138" lon="0.78752">
        <ele>1234</ele>
        <time>2022-05-22 23:34:15</time>
      </trkpt>
      <trkpt lat="42.68135" lon="0.78751">
        <ele>1234</ele>
        <time>2022-05-22 23:34:16</time>
      </trkpt>
      <trkpt lat="42.68134" lon="0.7875">
        <ele>1234.2</ele>
        <time>2022-05-22 23:34:17</time>
      </trkpt>
      <trkpt lat="42.68131" lon="0.78749">
        <ele>1234.4</ele>
        <time>2022-05-22 23:34:18</time>
      </trkpt>
      <trkpt lat="42.68129" lon="0.78748">
        <ele>1234.6</ele>
        <time>2022-05-22 23:34:19</time>
      </trkpt>
      <trkpt lat="42.68127" lon="0.78748">
        <ele>1234.6</ele>
        <time>2022-05-22 23:34:20</time>
      </trkpt>
      <trkpt lat="42.68125" lon="0.78747">
        <ele>1234.8</ele>
        <time>2022-05-22 23:34:21</time>
      </trkpt>
      <trkpt lat="42.68123" lon="0.78747">
        <ele>1235</ele>
        <time>2022-05-22 23:34:22</time>
      </trkpt>
      <trkpt lat="42.68121" lon="0.78746">
        <ele>1235</ele>
        <time>2022-05-22 23:34:23</time>
      </trkpt>
      <trkpt lat="42.68119" lon="0.78745">
        <ele>1235.2</ele>
        <time>2022-05-22 23:34:24</time>
      </trkpt>
      <trkpt lat="42.68117" lon="0.78744">
        <ele>1235.2</ele>
        <time>2022-05-22 23:34:25</time>
      </trkpt>
      <trkpt lat="42.68115" lon="0.78744">
        <ele>1235.4</ele>
        <time>2022-05-22 23:34:26</time>
      </trkpt>
      <trkpt lat="42.68114" lon="0.78743">
        <ele>1235.6</ele>
        <time>2022-05-22 23:34:27</time>
      </trkpt>
      <trkpt lat="42.68112" lon="0.78742">
        <ele>1235.6</ele>
        <time>2022-05-22 23:34:28</time>
      </trkpt>
      <trkpt lat="42.6811" lon="0.78741">
        <ele>1235.8</ele>
        <time>2022-05-22 23:34:29</time>
      </trkpt>
      <trkpt lat="42.68108" lon="0.78741">
        <ele>1235.8</ele>
        <time>2022-05-22 23:34:30</time>
      </trkpt>
      <trkpt lat="42.68106" lon="0.7874">
        <ele>1236</ele>
        <time>2022-05-22 23:34:31</time>
      </trkpt>
      <trkpt lat="42.68104" lon="0.78739">
        <ele>1236.2</ele>
        <time>2022-05-22 23:34:32</time>
      </trkpt>
      <trkpt lat="42.68102" lon="0.78739">
        <ele>1236.2</ele>
        <time>2022-05-22 23:34:33</time>
      </trkpt>
      <trkpt lat="42.68101" lon="0.78738">
        <ele>1236.4</ele>
        <time>2022-05-22 23:34:34</time>
      </trkpt>
      <trkpt lat="42.68098" lon="0.78737">
        <ele>1236.6</ele>
        <time>2022-05-22 23:34:35</time>
      </trkpt>
      <trkpt lat="42.68096" lon="0.78736">
        <ele>1236.6</ele>
        <time>2022-05-22 23:34:36</time>
      </trkpt>
      <trkpt lat="42.68095" lon="0.78735">
        <ele>1236.8</ele>
        <time>2022-05-22 23:34:37</time>
      </trkpt>
      <trkpt lat="42.68093" lon="0.78734">
        <ele>1236.8</ele>
        <time>2022-05-22 23:34:38</time>
      </trkpt>
      <trkpt lat="42.68091" lon="0.78733">
        <ele>1237</ele>
        <time>2022-05-22 23:34:39</time>
      </trkpt>
      <trkpt lat="42.68089" lon="0.78732">
        <ele>1237.2</ele>
        <time>2022-05-22 23:34:40</time>
      </trkpt>
      <trkpt lat="42.68087" lon="0.78731">
        <ele>1237.2</ele>
        <time>2022-05-22 23:34:41</time>
      </trkpt>
      <trkpt lat="42.68085" lon="0.7873">
        <ele>1237.4</ele>
        <time>2022-05-22 23:34:42</time>
      </trkpt>
      <trkpt lat="42.68083" lon="0.78729">
        <ele>1237.4</ele>
        <time>2022-05-22 23:34:43</time>
      </trkpt>
      <trkpt lat="42.68081" lon="0.78729">
        <ele>1237.6</ele>
        <time>2022-05-22 23:34:44</time>
      </trkpt>
      <trkpt lat="42.68079" lon="0.78728">
        <ele>1237.8</ele>
        <time>2022-05-22 23:34:45</time>
      </trkpt>
      <trkpt lat="42.68077" lon="0.78727">
        <ele>1237.8</ele>
        <time>2022-05-22 23:34:46</time>
      </trkpt>
      <trkpt lat="42.68075" lon="0.78726">
        <ele>1238</ele>
        <time>2022-05-22 23:34:47</time>
      </trkpt>
      <trkpt lat="42.68073" lon="0.78725">
        <ele>1238.2</ele>
        <time>2022-05-22 23:34:48</time>
      </trkpt>
      <trkpt lat="42.68071" lon="0.78724">
        <ele>1238.4</ele>
        <time>2022-05-22 23:34:49</time>
      </trkpt>
      <trkpt lat="42.68069" lon="0.78723">
        <ele>1238.4</ele>
        <time>2022-05-22 23:34:50</time>
      </trkpt>
      <trkpt lat="42.68067" lon="0.78722">
        <ele>1238.6</ele>
        <time>2022-05-22 23:34:51</time>
      </trkpt>
      <trkpt lat="42.68065" lon="0.78721">
        <ele>1238.8</ele>
        <time>2022-05-22 23:34:52</time>
      </trkpt>
      <trkpt lat="42.68063" lon="0.7872">
        <ele>1239</ele>
        <time>2022-05-22 23:34:53</time>
      </trkpt>
      <trkpt lat="42.68061" lon="0.7872">
        <ele>1239.2</ele>
        <time>2022-05-22 23:34:54</time>
      </trkpt>
      <trkpt lat="42.68059" lon="0.78719">
        <ele>1239.2</ele>
        <time>2022-05-22 23:34:55</time>
      </trkpt>
      <trkpt lat="42.68057" lon="0.78718">
        <ele>1239.4</ele>
        <time>2022-05-22 23:34:56</time>
      </trkpt>
      <trkpt lat="42.68054" lon="0.78717">
        <ele>1239.6</ele>
        <time>2022-05-22 23:34:57</time>
      </trkpt>
      <trkpt lat="42.68052" lon="0.78717">
        <ele>1239.8</ele>
        <time>2022-05-22 23:34:58</time>
      </trkpt>
      <trkpt lat="42.68049" lon="0.78716">
        <ele>1239.8</ele>
        <time>2022-05-22 23:34:59</time>
      </trkpt>
      <trkpt lat="42.68047" lon="0.78715">
        <ele>1240</ele>
        <time>2022-05-22 23:35:00</time>
      </trkpt>
      <trkpt lat="42.68044" lon="0.78715">
        <ele>1240.2</ele>
        <time>2022-05-22 23:35:01</time>
      </trkpt>
      <trkpt lat="42.68041" lon="0.78714">
        <ele>1240.4</ele>
        <time>2022-05-22 23:35:02</time>
      </trkpt>
      <trkpt lat="42.68039" lon="0.78714">
        <ele>1240.6</ele>
        <time>2022-05-22 23:35:03</time>
      </trkpt>
      <trkpt lat="42.68036" lon="0.78713">
        <ele>1240.8</ele>
        <time>2022-05-22 23:35:04</time>
      </trkpt>
      <trkpt lat="42.68034" lon="0.78713">
        <ele>1241</ele>
        <time>2022-05-22 23:35:05</time>
      </trkpt>
      <trkpt lat="42.68031" lon="0.78712">
        <ele>1241</ele>
        <time>2022-05-22 23:35:06</time>
      </trkpt>
      <trkpt lat="42.68029" lon="0.78712">
        <ele>1241.2</ele>
        <time>2022-05-22 23:35:07</time>
      </trkpt>
      <trkpt lat="42.68026" lon="0.78711">
        <ele>1241.4</ele>
        <time>2022-05-22 23:35:08</time>
      </trkpt>
      <trkpt lat="42.68024" lon="0.78711">
        <ele>1241.6</ele>
        <time>2022-05-22 23:35:09</time>
      </trkpt>
      <trkpt lat="42.68023" lon="0.7871">
        <ele>1241.8</ele>
        <time>2022-05-22 23:35:10</time>
      </trkpt>
      <trkpt lat="42.68021" lon="0.7871">
        <ele>1242</ele>
        <time>2022-05-22 23:35:11</time>
      </trkpt>
      <trkpt lat="42.68019" lon="0.78709">
        <ele>1242.2</ele>
        <time>2022-05-22 23:35:12</time>
      </trkpt>
      <trkpt lat="42.68017" lon="0.78709">
        <ele>1242.4</ele>
        <time>2022-05-22 23:35:13</time>
      </trkpt>
      <trkpt lat="42.68015" lon="0.78708">
        <ele>1242.4</ele>
        <time>2022-05-22 23:35:14</time>
      </trkpt>
      <trkpt lat="42.68013" lon="0.78707">
        <ele>1242.6</ele>
        <time>2022-05-22 23:35:15</time>
      </trkpt>
      <trkpt lat="42.68009" lon="0.78706">
        <ele>1242.8</ele>
        <time>2022-05-22 23:35:16</time>
      </trkpt>
      <trkpt lat="42.68006" lon="0.78705">
        <ele>1243</ele>
        <time>2022-05-22 23:35:17</time>
      </trkpt>
      <trkpt lat="42.68004" lon="0.78704">
        <ele>1243</ele>
        <time>2022-05-22 23:35:18</time>
      </trkpt>
      <trkpt lat="42.68002" lon="0.78702">
        <ele>1243.2</ele>
        <time>2022-05-22 23:35:19</time>
      </trkpt>
      <trkpt lat="42.67999" lon="0.78701">
        <ele>1243.4</ele>
        <time>2022-05-22 23:35:20</time>
      </trkpt>
      <trkpt lat="42.67997" lon="0.787">
        <ele>1243.4</ele>
        <time>2022-05-22 23:35:21</time>
      </trkpt>
      <trkpt lat="42.67995" lon="0.787">
        <ele>1243.6</ele>
        <time>2022-05-22 23:35:22</time>
      </trkpt>
      <trkpt lat="42.67993" lon="0.78699">
        <ele>1243.8</ele>
        <time>2022-05-22 23:35:23</time>
      </trkpt>
      <trkpt lat="42.67991" lon="0.78699">
        <ele>1243.8</ele>
        <time>2022-05-22 23:35:24</time>
      </trkpt>
      <trkpt lat="42.67988" lon="0.78699">
        <ele>1244</ele>
        <time>2022-05-22 23:35:25</time>
      </trkpt>
      <trkpt lat="42.67986" lon="0.78698">
        <ele>1244.2</ele>
        <time>2022-05-22 23:35:26</time>
      </trkpt>
      <trkpt lat="42.67984" lon="0.78698">
        <ele>1244.4</ele>
        <time>2022-05-22 23:35:27</time>
      </trkpt>
      <trkpt lat="42.67982" lon="0.78698">
        <ele>1244.4</ele>
        <time>2022-05-22 23:35:28</time>
      </trkpt>
      <trkpt lat="42.67979" lon="0.78698">
        <ele>1244.6</ele>
        <time>2022-05-22 23:35:29</time>
      </trkpt>
      <trkpt lat="42.67977" lon="0.78698">
        <ele>1244.8</ele>
        <time>2022-05-22 23:35:30</time>
      </trkpt>
      <trkpt lat="42.67974" lon="0.78698">
        <ele>1244.8</ele>
        <time>2022-05-22 23:35:31</time>
      </trkpt>
      <trkpt lat="42.67971" lon="0.78697">
        <ele>1245</ele>
        <time>2022-05-22 23:35:32</time>
      </trkpt>
      <trkpt lat="42.67969" lon="0.78696">
        <ele>1245.2</ele>
        <time>2022-05-22 23:35:33</time>
      </trkpt>
      <trkpt lat="42.67967" lon="0.78696">
        <ele>1245.2</ele>
        <time>2022-05-22 23:35:34</time>
      </trkpt>
      <trkpt lat="42.67964" lon="0.78695">
        <ele>1245.4</ele>
        <time>2022-05-22 23:35:35</time>
      </trkpt>
      <trkpt lat="42.67962" lon="0.78693">
        <ele>1245.6</ele>
        <time>2022-05-22 23:35:36</time>
      </trkpt>
      <trkpt lat="42.6796" lon="0.78692">
        <ele>1245.8</ele>
        <time>2022-05-22 23:35:37</time>
      </trkpt>
      <trkpt lat="42.67959" lon="0.78691">
        <ele>1246</ele>
        <time>2022-05-22 23:35:38</time>
      </trkpt>
      <trkpt lat="42.67956" lon="0.7869">
        <ele>1246.2</ele>
        <time>2022-05-22 23:35:39</time>
      </trkpt>
      <trkpt lat="42.67954" lon="0.78689">
        <ele>1246.2</ele>
        <time>2022-05-22 23:35:40</time>
      </trkpt>
      <trkpt lat="42.67952" lon="0.78688">
        <ele>1246.4</ele>
        <time>2022-05-22 23:35:41</time>
      </trkpt>
      <trkpt lat="42.6795" lon="0.78687">
        <ele>1246.6</ele>
        <time>2022-05-22 23:35:42</time>
      </trkpt>
      <trkpt lat="42.67948" lon="0.78686">
        <ele>1246.8</ele>
        <time>2022-05-22 23:35:43</time>
      </trkpt>
      <trkpt lat="42.67947" lon="0.78684">
        <ele>1247</ele>
        <time>2022-05-22 23:35:44</time>
      </trkpt>
      <trkpt lat="42.67945" lon="0.78683">
        <ele>1247</ele>
        <time>2022-05-22 23:35:45</time>
      </trkpt>
      <trkpt lat="42.67943" lon="0.78681">
        <ele>1247.2</ele>
        <time>2022-05-22 23:35:46</time>
      </trkpt>
      <trkpt lat="42.67941" lon="0.78679">
        <ele>1247.4</ele>
        <time>2022-05-22 23:35:47</time>
      </trkpt>
      <trkpt lat="42.67939" lon="0.78677">
        <ele>1247.6</ele>
        <time>2022-05-22 23:35:48</time>
      </trkpt>
      <trkpt lat="42.67938" lon="0.78676">
        <ele>1247.8</ele>
        <time>2022-05-22 23:35:49</time>
      </trkpt>
      <trkpt lat="42.67936" lon="0.78674">
        <ele>1247.8</ele>
        <time>2022-05-22 23:35:50</time>
      </trkpt>
      <trkpt lat="42.67934" lon="0.78673">
        <ele>1248</ele>
        <time>2022-05-22 23:35:51</time>
      </trkpt>
      <trkpt lat="42.67932" lon="0.78671">
        <ele>1248.2</ele>
        <time>2022-05-22 23:35:52</time>
      </trkpt>
      <trkpt lat="42.67931" lon="0.78669">
        <ele>1248.4</ele>
        <time>2022-05-22 23:35:53</time>
      </trkpt>
      <trkpt lat="42.67929" lon="0.78668">
        <ele>1248.6</ele>
        <time>2022-05-22 23:35:54</time>
      </trkpt>
      <trkpt lat="42.67927" lon="0.78667">
        <ele>1248.8</ele>
        <time>2022-05-22 23:35:55</time>
      </trkpt>
      <trkpt lat="42.67925" lon="0.78666">
        <ele>1248.8</ele>
        <time>2022-05-22 23:35:56</time>
      </trkpt>
      <trkpt lat="42.67924" lon="0.78664">
        <ele>1249</ele>
        <time>2022-05-22 23:35:57</time>
      </trkpt>
      <trkpt lat="42.67922" lon="0.78662">
        <ele>1249.2</ele>
        <time>2022-05-22 23:35:58</time>
      </trkpt>
      <trkpt lat="42.67921" lon="0.78661">
        <ele>1249.4</ele>
        <time>2022-05-22 23:35:59</time>
      </trkpt>
      <trkpt lat="42.67919" lon="0.78659">
        <ele>1249.6</ele>
        <time>2022-05-22 23:36:00</time>
      </trkpt>
      <trkpt lat="42.67917" lon="0.78657">
        <ele>1249.8</ele>
        <time>2022-05-22 23:36:01</time>
      </trkpt>
      <trkpt lat="42.67916" lon="0.78655">
        <ele>1250</ele>
        <time>2022-05-22 23:36:02</time>
      </trkpt>
      <trkpt lat="42.67914" lon="0.78653">
        <ele>1250.2</ele>
        <time>2022-05-22 23:36:03</time>
      </trkpt>
      <trkpt lat="42.67912" lon="0.78652">
        <ele>1250.2</ele>
        <time>2022-05-22 23:36:04</time>
      </trkpt>
      <trkpt lat="42.6791" lon="0.7865">
        <ele>1250.4</ele>
        <time>2022-05-22 23:36:05</time>
      </trkpt>
      <trkpt lat="42.67909" lon="0.78648">
        <ele>1250.6</ele>
        <time>2022-05-22 23:36:06</time>
      </trkpt>
      <trkpt lat="42.67907" lon="0.78647">
        <ele>1250.8</ele>
        <time>2022-05-22 23:36:07</time>
      </trkpt>
      <trkpt lat="42.67904" lon="0.78645">
        <ele>1251</ele>
        <time>2022-05-22 23:36:08</time>
      </trkpt>
      <trkpt lat="42.67902" lon="0.78643">
        <ele>1251.2</ele>
        <time>2022-05-22 23:36:09</time>
      </trkpt>
      <trkpt lat="42.67901" lon="0.78641">
        <ele>1251.4</ele>
        <time>2022-05-22 23:36:10</time>
      </trkpt>
      <trkpt lat="42.67899" lon="0.7864">
        <ele>1251.4</ele>
        <time>2022-05-22 23:36:11</time>
      </trkpt>
      <trkpt lat="42.67897" lon="0.78637">
        <ele>1251.6</ele>
        <time>2022-05-22 23:36:12</time>
      </trkpt>
      <trkpt lat="42.67896" lon="0.78635">
        <ele>1251.8</ele>
        <time>2022-05-22 23:36:13</time>
      </trkpt>
      <trkpt lat="42.67894" lon="0.78633">
        <ele>1252</ele>
        <time>2022-05-22 23:36:14</time>
      </trkpt>
      <trkpt lat="42.67893" lon="0.78631">
        <ele>1252.2</ele>
        <time>2022-05-22 23:36:15</time>
      </trkpt>
      <trkpt lat="42.67892" lon="0.78629">
        <ele>1252.4</ele>
        <time>2022-05-22 23:36:16</time>
      </trkpt>
      <trkpt lat="42.6789" lon="0.78628">
        <ele>1252.4</ele>
        <time>2022-05-22 23:36:17</time>
      </trkpt>
      <trkpt lat="42.67889" lon="0.78626">
        <ele>1252.6</ele>
        <time>2022-05-22 23:36:18</time>
      </trkpt>
      <trkpt lat="42.67887" lon="0.78624">
        <ele>1252.8</ele>
        <time>2022-05-22 23:36:19</time>
      </trkpt>
      <trkpt lat="42.67886" lon="0.78622">
        <ele>1253</ele>
        <time>2022-05-22 23:36:20</time>
      </trkpt>
      <trkpt lat="42.67884" lon="0.7862">
        <ele>1253</ele>
        <time>2022-05-22 23:36:21</time>
      </trkpt>
      <trkpt lat="42.67883" lon="0.78618">
        <ele>1253.2</ele>
        <time>2022-05-22 23:36:22</time>
      </trkpt>
      <trkpt lat="42.67881" lon="0.78615">
        <ele>1253.4</ele>
        <time>2022-05-22 23:36:23</time>
      </trkpt>
      <trkpt lat="42.67879" lon="0.78613">
        <ele>1253.4</ele>
        <time>2022-05-22 23:36:24</time>
      </trkpt>
      <trkpt lat="42.67878" lon="0.78611">
        <ele>1253.6</ele>
        <time>2022-05-22 23:36:25</time>
      </trkpt>
      <trkpt lat="42.67876" lon="0.78609">
        <ele>1253.8</ele>
        <time>2022-05-22 23:36:26</time>
      </trkpt>
      <trkpt lat="42.67875" lon="0.78608">
        <ele>1254</ele>
        <time>2022-05-22 23:36:27</time>
      </trkpt>
      <trkpt lat="42.67873" lon="0.78606">
        <ele>1254.2</ele>
        <time>2022-05-22 23:36:28</time>
      </trkpt>
      <trkpt lat="42.67872" lon="0.78604">
        <ele>1254.2</ele>
        <time>2022-05-22 23:36:29</time>
      </trkpt>
      <trkpt lat="42.6787" lon="0.78602">
        <ele>1254.4</ele>
        <time>2022-05-22 23:36:30</time>
      </trkpt>
      <trkpt lat="42.67869" lon="0.786">
        <ele>1254.6</ele>
        <time>2022-05-22 23:36:31</time>
      </trkpt>
      <trkpt lat="42.67868" lon="0.78598">
        <ele>1254.8</ele>
        <time>2022-05-22 23:36:32</time>
      </trkpt>
      <trkpt lat="42.67866" lon="0.78596">
        <ele>1254.8</ele>
        <time>2022-05-22 23:36:33</time>
      </trkpt>
      <trkpt lat="42.67865" lon="0.78594">
        <ele>1255</ele>
        <time>2022-05-22 23:36:34</time>
      </trkpt>
      <trkpt lat="42.67863" lon="0.78592">
        <ele>1255.2</ele>
        <time>2022-05-22 23:36:35</time>
      </trkpt>
      <trkpt lat="42.67862" lon="0.7859">
        <ele>1255.4</ele>
        <time>2022-05-22 23:36:36</time>
      </trkpt>
      <trkpt lat="42.6786" lon="0.78588">
        <ele>1255.6</ele>
        <time>2022-05-22 23:36:37</time>
      </trkpt>
      <trkpt lat="42.67859" lon="0.78587">
        <ele>1255.6</ele>
        <time>2022-05-22 23:36:38</time>
      </trkpt>
      <trkpt lat="42.67857" lon="0.78585">
        <ele>1255.8</ele>
        <time>2022-05-22 23:36:39</time>
      </trkpt>
      <trkpt lat="42.67856" lon="0.78583">
        <ele>1256</ele>
        <time>2022-05-22 23:36:40</time>
      </trkpt>
      <trkpt lat="42.67854" lon="0.78581">
        <ele>1256.2</ele>
        <time>2022-05-22 23:36:41</time>
      </trkpt>
      <trkpt lat="42.67853" lon="0.78579">
        <ele>1256.2</ele>
        <time>2022-05-22 23:36:42</time>
      </trkpt>
      <trkpt lat="42.67852" lon="0.78577">
        <ele>1256.4</ele>
        <time>2022-05-22 23:36:43</time>
      </trkpt>
      <trkpt lat="42.6785" lon="0.78575">
        <ele>1256.6</ele>
        <time>2022-05-22 23:36:44</time>
      </trkpt>
      <trkpt lat="42.67849" lon="0.78573">
        <ele>1256.6</ele>
        <time>2022-05-22 23:36:45</time>
      </trkpt>
      <trkpt lat="42.67848" lon="0.78571">
        <ele>1256.8</ele>
        <time>2022-05-22 23:36:46</time>
      </trkpt>
      <trkpt lat="42.67846" lon="0.78569">
        <ele>1257</ele>
        <time>2022-05-22 23:36:47</time>
      </trkpt>
      <trkpt lat="42.67845" lon="0.78568">
        <ele>1257.2</ele>
        <time>2022-05-22 23:36:48</time>
      </trkpt>
      <trkpt lat="42.67843" lon="0.78566">
        <ele>1257.2</ele>
        <time>2022-05-22 23:36:49</time>
      </trkpt>
      <trkpt lat="42.67842" lon="0.78564">
        <ele>1257.4</ele>
        <time>2022-05-22 23:36:50</time>
      </trkpt>
      <trkpt lat="42.6784" lon="0.78562">
        <ele>1257.6</ele>
        <time>2022-05-22 23:36:51</time>
      </trkpt>
      <trkpt lat="42.67839" lon="0.7856">
        <ele>1257.6</ele>
        <time>2022-05-22 23:36:52</time>
      </trkpt>
      <trkpt lat="42.67837" lon="0.78558">
        <ele>1257.8</ele>
        <time>2022-05-22 23:36:53</time>
      </trkpt>
      <trkpt lat="42.67836" lon="0.78556">
        <ele>1258</ele>
        <time>2022-05-22 23:36:54</time>
      </trkpt>
      <trkpt lat="42.67835" lon="0.78554">
        <ele>1258</ele>
        <time>2022-05-22 23:36:55</time>
      </trkpt>
      <trkpt lat="42.67833" lon="0.78552">
        <ele>1258.2</ele>
        <time>2022-05-22 23:36:56</time>
      </trkpt>
      <trkpt lat="42.67832" lon="0.7855">
        <ele>1258.4</ele>
        <time>2022-05-22 23:36:57</time>
      </trkpt>
      <trkpt lat="42.6783" lon="0.78548">
        <ele>1258.6</ele>
        <time>2022-05-22 23:36:58</time>
      </trkpt>
      <trkpt lat="42.67828" lon="0.78546">
        <ele>1258.6</ele>
        <time>2022-05-22 23:36:59</time>
      </trkpt>
      <trkpt lat="42.67827" lon="0.78544">
        <ele>1258.8</ele>
        <time>2022-05-22 23:37:00</time>
      </trkpt>
      <trkpt lat="42.67826" lon="0.78542">
        <ele>1259</ele>
        <time>2022-05-22 23:37:01</time>
      </trkpt>
      <trkpt lat="42.67824" lon="0.7854">
        <ele>1259</ele>
        <time>2022-05-22 23:37:02</time>
      </trkpt>
      <trkpt lat="42.67822" lon="0.78538">
        <ele>1259.2</ele>
        <time>2022-05-22 23:37:03</time>
      </trkpt>
      <trkpt lat="42.6782" lon="0.78536">
        <ele>1259.4</ele>
        <time>2022-05-22 23:37:04</time>
      </trkpt>
      <trkpt lat="42.67819" lon="0.78534">
        <ele>1259.4</ele>
        <time>2022-05-22 23:37:05</time>
      </trkpt>
      <trkpt lat="42.67817" lon="0.78532">
        <ele>1259.6</ele>
        <time>2022-05-22 23:37:06</time>
      </trkpt>
      <trkpt lat="42.67816" lon="0.7853">
        <ele>1259.8</ele>
        <time>2022-05-22 23:37:07</time>
      </trkpt>
      <trkpt lat="42.67814" lon="0.78528">
        <ele>1260</ele>
        <time>2022-05-22 23:37:08</time>
      </trkpt>
      <trkpt lat="42.67813" lon="0.78526">
        <ele>1260</ele>
        <time>2022-05-22 23:37:09</time>
      </trkpt>
      <trkpt lat="42.67811" lon="0.78524">
        <ele>1260.2</ele>
        <time>2022-05-22 23:37:10</time>
      </trkpt>
      <trkpt lat="42.6781" lon="0.78522">
        <ele>1260.4</ele>
        <time>2022-05-22 23:37:11</time>
      </trkpt>
      <trkpt lat="42.67808" lon="0.7852">
        <ele>1260.6</ele>
        <time>2022-05-22 23:37:12</time>
      </trkpt>
      <trkpt lat="42.67807" lon="0.78518">
        <ele>1260.6</ele>
        <time>2022-05-22 23:37:13</time>
      </trkpt>
      <trkpt lat="42.67806" lon="0.78516">
        <ele>1260.8</ele>
        <time>2022-05-22 23:37:14</time>
      </trkpt>
      <trkpt lat="42.67804" lon="0.78514">
        <ele>1261</ele>
        <time>2022-05-22 23:37:15</time>
      </trkpt>
      <trkpt lat="42.67803" lon="0.78512">
        <ele>1261.2</ele>
        <time>2022-05-22 23:37:16</time>
      </trkpt>
      <trkpt lat="42.67802" lon="0.7851">
        <ele>1261.4</ele>
        <time>2022-05-22 23:37:17</time>
      </trkpt>
      <trkpt lat="42.678" lon="0.78508">
        <ele>1261.4</ele>
        <time>2022-05-22 23:37:18</time>
      </trkpt>
      <trkpt lat="42.67799" lon="0.78506">
        <ele>1261.6</ele>
        <time>2022-05-22 23:37:19</time>
      </trkpt>
      <trkpt lat="42.67797" lon="0.78503">
        <ele>1261.8</ele>
        <time>2022-05-22 23:37:20</time>
      </trkpt>
      <trkpt lat="42.67796" lon="0.78501">
        <ele>1262</ele>
        <time>2022-05-22 23:37:21</time>
      </trkpt>
      <trkpt lat="42.67795" lon="0.78499">
        <ele>1262</ele>
        <time>2022-05-22 23:37:22</time>
      </trkpt>
      <trkpt lat="42.67793" lon="0.78497">
        <ele>1262.2</ele>
        <time>2022-05-22 23:37:23</time>
      </trkpt>
      <trkpt lat="42.67792" lon="0.78495">
        <ele>1262.4</ele>
        <time>2022-05-22 23:37:24</time>
      </trkpt>
      <trkpt lat="42.67791" lon="0.78493">
        <ele>1262.6</ele>
        <time>2022-05-22 23:37:25</time>
      </trkpt>
      <trkpt lat="42.6779" lon="0.7849">
        <ele>1262.6</ele>
        <time>2022-05-22 23:37:26</time>
      </trkpt>
      <trkpt lat="42.67789" lon="0.78488">
        <ele>1262.8</ele>
        <time>2022-05-22 23:37:27</time>
      </trkpt>
      <trkpt lat="42.67788" lon="0.78486">
        <ele>1263</ele>
        <time>2022-05-22 23:37:28</time>
      </trkpt>
      <trkpt lat="42.67787" lon="0.78483">
        <ele>1263</ele>
        <time>2022-05-22 23:37:29</time>
      </trkpt>
      <trkpt lat="42.67786" lon="0.78481">
        <ele>1263.2</ele>
        <time>2022-05-22 23:37:30</time>
      </trkpt>
      <trkpt lat="42.67785" lon="0.78478">
        <ele>1263.4</ele>
        <time>2022-05-22 23:37:31</time>
      </trkpt>
      <trkpt lat="42.67785" lon="0.78476">
        <ele>1263.4</ele>
        <time>2022-05-22 23:37:32</time>
      </trkpt>
      <trkpt lat="42.67784" lon="0.78473">
        <ele>1263.6</ele>
        <time>2022-05-22 23:37:33</time>
      </trkpt>
      <trkpt lat="42.67783" lon="0.7847">
        <ele>1263.8</ele>
        <time>2022-05-22 23:37:34</time>
      </trkpt>
      <trkpt lat="42.67782" lon="0.78467">
        <ele>1264</ele>
        <time>2022-05-22 23:37:35</time>
      </trkpt>
      <trkpt lat="42.67781" lon="0.78464">
        <ele>1264</ele>
        <time>2022-05-22 23:37:36</time>
      </trkpt>
      <trkpt lat="42.6778" lon="0.78462">
        <ele>1264.2</ele>
        <time>2022-05-22 23:37:37</time>
      </trkpt>
      <trkpt lat="42.67779" lon="0.7846">
        <ele>1264.4</ele>
        <time>2022-05-22 23:37:38</time>
      </trkpt>
      <trkpt lat="42.67778" lon="0.78457">
        <ele>1264.6</ele>
        <time>2022-05-22 23:37:39</time>
      </trkpt>
      <trkpt lat="42.67777" lon="0.78455">
        <ele>1264.8</ele>
        <time>2022-05-22 23:37:40</time>
      </trkpt>
      <trkpt lat="42.67776" lon="0.78453">
        <ele>1265</ele>
        <time>2022-05-22 23:37:41</time>
      </trkpt>
      <trkpt lat="42.67775" lon="0.7845">
        <ele>1265</ele>
        <time>2022-05-22 23:37:42</time>
      </trkpt>
      <trkpt lat="42.67774" lon="0.78447">
        <ele>1265.2</ele>
        <time>2022-05-22 23:37:43</time>
      </trkpt>
      <trkpt lat="42.67774" lon="0.78445">
        <ele>1265.4</ele>
        <time>2022-05-22 23:37:44</time>
      </trkpt>
      <trkpt lat="42.67773" lon="0.78443">
        <ele>1265.6</ele>
        <time>2022-05-22 23:37:45</time>
      </trkpt>
      <trkpt lat="42.67772" lon="0.7844">
        <ele>1265.6</ele>
        <time>2022-05-22 23:37:46</time>
      </trkpt>
      <trkpt lat="42.67771" lon="0.78438">
        <ele>1265.8</ele>
        <time>2022-05-22 23:37:47</time>
      </trkpt>
      <trkpt lat="42.6777" lon="0.78436">
        <ele>1266</ele>
        <time>2022-05-22 23:37:48</time>
      </trkpt>
      <trkpt lat="42.67768" lon="0.78434">
        <ele>1266.2</ele>
        <time>2022-05-22 23:37:49</time>
      </trkpt>
      <trkpt lat="42.67768" lon="0.78431">
        <ele>1266.2</ele>
        <time>2022-05-22 23:37:50</time>
      </trkpt>
      <trkpt lat="42.67767" lon="0.78429">
        <ele>1266.4</ele>
        <time>2022-05-22 23:37:51</time>
      </trkpt>
      <trkpt lat="42.67766" lon="0.78427">
        <ele>1266.6</ele>
        <time>2022-05-22 23:37:52</time>
      </trkpt>
      <trkpt lat="42.67765" lon="0.78425">
        <ele>1266.8</ele>
        <time>2022-05-22 23:37:53</time>
      </trkpt>
      <trkpt lat="42.67764" lon="0.78422">
        <ele>1266.8</ele>
        <time>2022-05-22 23:37:54</time>
      </trkpt>
      <trkpt lat="42.67764" lon="0.78419">
        <ele>1267</ele>
        <time>2022-05-22 23:37:55</time>
      </trkpt>
      <trkpt lat="42.67763" lon="0.78417">
        <ele>1267.2</ele>
        <time>2022-05-22 23:37:56</time>
      </trkpt>
      <trkpt lat="42.67761" lon="0.78414">
        <ele>1267.4</ele>
        <time>2022-05-22 23:37:57</time>
      </trkpt>
      <trkpt lat="42.6776" lon="0.78412">
        <ele>1267.4</ele>
        <time>2022-05-22 23:37:58</time>
      </trkpt>
      <trkpt lat="42.67759" lon="0.7841">
        <ele>1267.6</ele>
        <time>2022-05-22 23:37:59</time>
      </trkpt>
      <trkpt lat="42.67757" lon="0.78408">
        <ele>1267.8</ele>
        <time>2022-05-22 23:38:00</time>
      </trkpt>
      <trkpt lat="42.67756" lon="0.78406">
        <ele>1268</ele>
        <time>2022-05-22 23:38:01</time>
      </trkpt>
      <trkpt lat="42.67754" lon="0.78404">
        <ele>1268</ele>
        <time>2022-05-22 23:38:02</time>
      </trkpt>
      <trkpt lat="42.67753" lon="0.78402">
        <ele>1268.2</ele>
        <time>2022-05-22 23:38:03</time>
      </trkpt>
      <trkpt lat="42.67752" lon="0.78399">
        <ele>1268.4</ele>
        <time>2022-05-22 23:38:04</time>
      </trkpt>
      <trkpt lat="42.6775" lon="0.78397">
        <ele>1268.6</ele>
        <time>2022-05-22 23:38:05</time>
      </trkpt>
      <trkpt lat="42.67749" lon="0.78394">
        <ele>1268.8</ele>
        <time>2022-05-22 23:38:06</time>
      </trkpt>
      <trkpt lat="42.67748" lon="0.78392">
        <ele>1269</ele>
        <time>2022-05-22 23:38:07</time>
      </trkpt>
      <trkpt lat="42.67747" lon="0.78389">
        <ele>1269</ele>
        <time>2022-05-22 23:38:08</time>
      </trkpt>
      <trkpt lat="42.67745" lon="0.78386">
        <ele>1269.2</ele>
        <time>2022-05-22 23:38:09</time>
      </trkpt>
      <trkpt lat="42.67744" lon="0.78384">
        <ele>1269.4</ele>
        <time>2022-05-22 23:38:10</time>
      </trkpt>
      <trkpt lat="42.67743" lon="0.78381">
        <ele>1269.4</ele>
        <time>2022-05-22 23:38:11</time>
      </trkpt>
      <trkpt lat="42.67741" lon="0.78378">
        <ele>1269.6</ele>
        <time>2022-05-22 23:38:12</time>
      </trkpt>
      <trkpt lat="42.6774" lon="0.78376">
        <ele>1269.8</ele>
        <time>2022-05-22 23:38:13</time>
      </trkpt>
      <trkpt lat="42.67739" lon="0.78373">
        <ele>1270</ele>
        <time>2022-05-22 23:38:14</time>
      </trkpt>
      <trkpt lat="42.67739" lon="0.7837">
        <ele>1270.2</ele>
        <time>2022-05-22 23:38:15</time>
      </trkpt>
      <trkpt lat="42.67737" lon="0.78367">
        <ele>1270.2</ele>
        <time>2022-05-22 23:38:16</time>
      </trkpt>
      <trkpt lat="42.67737" lon="0.78364">
        <ele>1270.4</ele>
        <time>2022-05-22 23:38:17</time>
      </trkpt>
      <trkpt lat="42.67736" lon="0.78361">
        <ele>1270.6</ele>
        <time>2022-05-22 23:38:18</time>
      </trkpt>
      <trkpt lat="42.67735" lon="0.78359">
        <ele>1270.8</ele>
        <time>2022-05-22 23:38:19</time>
      </trkpt>
      <trkpt lat="42.67733" lon="0.78356">
        <ele>1271</ele>
        <time>2022-05-22 23:38:20</time>
      </trkpt>
      <trkpt lat="42.67732" lon="0.78353">
        <ele>1271</ele>
        <time>2022-05-22 23:38:21</time>
      </trkpt>
      <trkpt lat="42.67731" lon="0.78351">
        <ele>1271.2</ele>
        <time>2022-05-22 23:38:22</time>
      </trkpt>
      <trkpt lat="42.6773" lon="0.78348">
        <ele>1271.4</ele>
        <time>2022-05-22 23:38:23</time>
      </trkpt>
      <trkpt lat="42.67729" lon="0.78346">
        <ele>1271.6</ele>
        <time>2022-05-22 23:38:24</time>
      </trkpt>
      <trkpt lat="42.67728" lon="0.78343">
        <ele>1271.8</ele>
        <time>2022-05-22 23:38:25</time>
      </trkpt>
      <trkpt lat="42.67727" lon="0.78341">
        <ele>1272</ele>
        <time>2022-05-22 23:38:26</time>
      </trkpt>
      <trkpt lat="42.67726" lon="0.78337">
        <ele>1272.2</ele>
        <time>2022-05-22 23:38:27</time>
      </trkpt>
      <trkpt lat="42.67724" lon="0.78334">
        <ele>1272.2</ele>
        <time>2022-05-22 23:38:28</time>
      </trkpt>
      <trkpt lat="42.67723" lon="0.78331">
        <ele>1272.4</ele>
        <time>2022-05-22 23:38:29</time>
      </trkpt>
      <trkpt lat="42.67722" lon="0.78328">
        <ele>1272.6</ele>
        <time>2022-05-22 23:38:30</time>
      </trkpt>
      <trkpt lat="42.67721" lon="0.78325">
        <ele>1272.8</ele>
        <time>2022-05-22 23:38:31</time>
      </trkpt>
      <trkpt lat="42.67721" lon="0.78321">
        <ele>1273</ele>
        <time>2022-05-22 23:38:32</time>
      </trkpt>
      <trkpt lat="42.6772" lon="0.78319">
        <ele>1273.2</ele>
        <time>2022-05-22 23:38:33</time>
      </trkpt>
      <trkpt lat="42.67719" lon="0.78316">
        <ele>1273.4</ele>
        <time>2022-05-22 23:38:34</time>
      </trkpt>
      <trkpt lat="42.67718" lon="0.78314">
        <ele>1273.4</ele>
        <time>2022-05-22 23:38:35</time>
      </trkpt>
      <trkpt lat="42.67717" lon="0.78311">
        <ele>1273.6</ele>
        <time>2022-05-22 23:38:36</time>
      </trkpt>
      <trkpt lat="42.67716" lon="0.78308">
        <ele>1273.8</ele>
        <time>2022-05-22 23:38:37</time>
      </trkpt>
      <trkpt lat="42.67715" lon="0.78305">
        <ele>1274</ele>
        <time>2022-05-22 23:38:38</time>
      </trkpt>
      <trkpt lat="42.67714" lon="0.78302">
        <ele>1274.2</ele>
        <time>2022-05-22 23:38:39</time>
      </trkpt>
      <trkpt lat="42.67713" lon="0.78299">
        <ele>1274.4</ele>
        <time>2022-05-22 23:38:40</time>
      </trkpt>
      <trkpt lat="42.67712" lon="0.78297">
        <ele>1274.6</ele>
        <time>2022-05-22 23:38:41</time>
      </trkpt>
      <trkpt lat="42.67712" lon="0.78294">
        <ele>1274.6</ele>
        <time>2022-05-22 23:38:42</time>
      </trkpt>
      <trkpt lat="42.67711" lon="0.78291">
        <ele>1274.8</ele>
        <time>2022-05-22 23:38:43</time>
      </trkpt>
      <trkpt lat="42.6771" lon="0.78288">
        <ele>1275</ele>
        <time>2022-05-22 23:38:44</time>
      </trkpt>
      <trkpt lat="42.6771" lon="0.78285">
        <ele>1275.2</ele>
        <time>2022-05-22 23:38:45</time>
      </trkpt>
      <trkpt lat="42.67709" lon="0.78283">
        <ele>1275.4</ele>
        <time>2022-05-22 23:38:46</time>
      </trkpt>
      <trkpt lat="42.67708" lon="0.7828">
        <ele>1275.6</ele>
        <time>2022-05-22 23:38:47</time>
      </trkpt>
      <trkpt lat="42.67707" lon="0.78277">
        <ele>1275.6</ele>
        <time>2022-05-22 23:38:48</time>
      </trkpt>
      <trkpt lat="42.67706" lon="0.78275">
        <ele>1275.8</ele>
        <time>2022-05-22 23:38:49</time>
      </trkpt>
      <trkpt lat="42.67706" lon="0.78272">
        <ele>1276</ele>
        <time>2022-05-22 23:38:50</time>
      </trkpt>
      <trkpt lat="42.67705" lon="0.78269">
        <ele>1276.2</ele>
        <time>2022-05-22 23:38:51</time>
      </trkpt>
      <trkpt lat="42.67704" lon="0.78266">
        <ele>1276.4</ele>
        <time>2022-05-22 23:38:52</time>
      </trkpt>
      <trkpt lat="42.67703" lon="0.78263">
        <ele>1276.4</ele>
        <time>2022-05-22 23:38:53</time>
      </trkpt>
      <trkpt lat="42.67702" lon="0.78261">
        <ele>1276.6</ele>
        <time>2022-05-22 23:38:54</time>
      </trkpt>
      <trkpt lat="42.67702" lon="0.78258">
        <ele>1276.8</ele>
        <time>2022-05-22 23:38:55</time>
      </trkpt>
      <trkpt lat="42.677" lon="0.78256">
        <ele>1277</ele>
        <time>2022-05-22 23:38:56</time>
      </trkpt>
      <trkpt lat="42.67699" lon="0.78253">
        <ele>1277.2</ele>
        <time>2022-05-22 23:38:57</time>
      </trkpt>
      <trkpt lat="42.67698" lon="0.78251">
        <ele>1277.2</ele>
        <time>2022-05-22 23:38:58</time>
      </trkpt>
      <trkpt lat="42.67697" lon="0.78248">
        <ele>1277.4</ele>
        <time>2022-05-22 23:38:59</time>
      </trkpt>
      <trkpt lat="42.67696" lon="0.78245">
        <ele>1277.6</ele>
        <time>2022-05-22 23:39:00</time>
      </trkpt>
      <trkpt lat="42.67695" lon="0.78242">
        <ele>1277.8</ele>
        <time>2022-05-22 23:39:01</time>
      </trkpt>
      <trkpt lat="42.67694" lon="0.78239">
        <ele>1277.8</ele>
        <time>2022-05-22 23:39:02</time>
      </trkpt>
      <trkpt lat="42.67693" lon="0.78236">
        <ele>1278</ele>
        <time>2022-05-22 23:39:03</time>
      </trkpt>
      <trkpt lat="42.67692" lon="0.78233">
        <ele>1278.2</ele>
        <time>2022-05-22 23:39:04</time>
      </trkpt>
      <trkpt lat="42.67691" lon="0.78231">
        <ele>1278.4</ele>
        <time>2022-05-22 23:39:05</time>
      </trkpt>
      <trkpt lat="42.67689" lon="0.78228">
        <ele>1278.6</ele>
        <time>2022-05-22 23:39:06</time>
      </trkpt>
      <trkpt lat="42.67688" lon="0.78225">
        <ele>1278.8</ele>
        <time>2022-05-22 23:39:07</time>
      </trkpt>
      <trkpt lat="42.67687" lon="0.78222">
        <ele>1279</ele>
        <time>2022-05-22 23:39:08</time>
      </trkpt>
      <trkpt lat="42.67686" lon="0.78219">
        <ele>1279.2</ele>
        <time>2022-05-22 23:39:09</time>
      </trkpt>
      <trkpt lat="42.67685" lon="0.78216">
        <ele>1279.4</ele>
        <time>2022-05-22 23:39:10</time>
      </trkpt>
      <trkpt lat="42.67684" lon="0.78213">
        <ele>1279.4</ele>
        <time>2022-05-22 23:39:11</time>
      </trkpt>
      <trkpt lat="42.67683" lon="0.7821">
        <ele>1279.6</ele>
        <time>2022-05-22 23:39:12</time>
      </trkpt>
      <trkpt lat="42.67682" lon="0.78207">
        <ele>1279.8</ele>
        <time>2022-05-22 23:39:13</time>
      </trkpt>
      <trkpt lat="42.6768" lon="0.78204">
        <ele>1280</ele>
        <time>2022-05-22 23:39:14</time>
      </trkpt>
      <trkpt lat="42.67679" lon="0.78201">
        <ele>1280.2</ele>
        <time>2022-05-22 23:39:15</time>
      </trkpt>
      <trkpt lat="42.67678" lon="0.78199">
        <ele>1280.4</ele>
        <time>2022-05-22 23:39:16</time>
      </trkpt>
      <trkpt lat="42.67677" lon="0.78196">
        <ele>1280.6</ele>
        <time>2022-05-22 23:39:17</time>
      </trkpt>
      <trkpt lat="42.67676" lon="0.78193">
        <ele>1280.8</ele>
        <time>2022-05-22 23:39:18</time>
      </trkpt>
      <trkpt lat="42.67675" lon="0.7819">
        <ele>1281</ele>
        <time>2022-05-22 23:39:19</time>
      </trkpt>
      <trkpt lat="42.67674" lon="0.78187">
        <ele>1281.2</ele>
        <time>2022-05-22 23:39:20</time>
      </trkpt>
      <trkpt lat="42.67673" lon="0.78184">
        <ele>1281.4</ele>
        <time>2022-05-22 23:39:21</time>
      </trkpt>
      <trkpt lat="42.67671" lon="0.78182">
        <ele>1281.6</ele>
        <time>2022-05-22 23:39:22</time>
      </trkpt>
      <trkpt lat="42.6767" lon="0.78179">
        <ele>1281.8</ele>
        <time>2022-05-22 23:39:23</time>
      </trkpt>
      <trkpt lat="42.67669" lon="0.78175">
        <ele>1282</ele>
        <time>2022-05-22 23:39:24</time>
      </trkpt>
      <trkpt lat="42.67668" lon="0.78172">
        <ele>1282.2</ele>
        <time>2022-05-22 23:39:25</time>
      </trkpt>
      <trkpt lat="42.67667" lon="0.78169">
        <ele>1282.4</ele>
        <time>2022-05-22 23:39:26</time>
      </trkpt>
      <trkpt lat="42.67666" lon="0.78166">
        <ele>1282.6</ele>
        <time>2022-05-22 23:39:27</time>
      </trkpt>
      <trkpt lat="42.67665" lon="0.78163">
        <ele>1282.8</ele>
        <time>2022-05-22 23:39:28</time>
      </trkpt>
      <trkpt lat="42.67664" lon="0.7816">
        <ele>1283</ele>
        <time>2022-05-22 23:39:29</time>
      </trkpt>
      <trkpt lat="42.67663" lon="0.78157">
        <ele>1283.2</ele>
        <time>2022-05-22 23:39:30</time>
      </trkpt>
      <trkpt lat="42.67663" lon="0.78154">
        <ele>1283.4</ele>
        <time>2022-05-22 23:39:31</time>
      </trkpt>
      <trkpt lat="42.67662" lon="0.78151">
        <ele>1283.6</ele>
        <time>2022-05-22 23:39:32</time>
      </trkpt>
      <trkpt lat="42.67661" lon="0.78148">
        <ele>1283.8</ele>
        <time>2022-05-22 23:39:33</time>
      </trkpt>
      <trkpt lat="42.6766" lon="0.78145">
        <ele>1284</ele>
        <time>2022-05-22 23:39:34</time>
      </trkpt>
      <trkpt lat="42.67659" lon="0.78142">
        <ele>1284</ele>
        <time>2022-05-22 23:39:35</time>
      </trkpt>
      <trkpt lat="42.67658" lon="0.78139">
        <ele>1284.2</ele>
        <time>2022-05-22 23:39:36</time>
      </trkpt>
      <trkpt lat="42.67658" lon="0.78136">
        <ele>1284.4</ele>
        <time>2022-05-22 23:39:37</time>
      </trkpt>
      <trkpt lat="42.67657" lon="0.78133">
        <ele>1284.6</ele>
        <time>2022-05-22 23:39:38</time>
      </trkpt>
      <trkpt lat="42.67656" lon="0.7813">
        <ele>1284.8</ele>
        <time>2022-05-22 23:39:39</time>
      </trkpt>
      <trkpt lat="42.67656" lon="0.78127">
        <ele>1285</ele>
        <time>2022-05-22 23:39:40</time>
      </trkpt>
      <trkpt lat="42.67655" lon="0.78124">
        <ele>1285.2</ele>
        <time>2022-05-22 23:39:41</time>
      </trkpt>
      <trkpt lat="42.67655" lon="0.78121">
        <ele>1285.4</ele>
        <time>2022-05-22 23:39:42</time>
      </trkpt>
      <trkpt lat="42.67654" lon="0.78117">
        <ele>1285.4</ele>
        <time>2022-05-22 23:39:43</time>
      </trkpt>
      <trkpt lat="42.67654" lon="0.78114">
        <ele>1285.6</ele>
        <time>2022-05-22 23:39:44</time>
      </trkpt>
      <trkpt lat="42.67654" lon="0.78111">
        <ele>1285.8</ele>
        <time>2022-05-22 23:39:45</time>
      </trkpt>
      <trkpt lat="42.67654" lon="0.78108">
        <ele>1286</ele>
        <time>2022-05-22 23:39:46</time>
      </trkpt>
      <trkpt lat="42.67654" lon="0.78104">
        <ele>1286.2</ele>
        <time>2022-05-22 23:39:47</time>
      </trkpt>
      <trkpt lat="42.67654" lon="0.78101">
        <ele>1286.4</ele>
        <time>2022-05-22 23:39:48</time>
      </trkpt>
      <trkpt lat="42.67654" lon="0.78097">
        <ele>1286.6</ele>
        <time>2022-05-22 23:39:49</time>
      </trkpt>
      <trkpt lat="42.67654" lon="0.78094">
        <ele>1286.8</ele>
        <time>2022-05-22 23:39:50</time>
      </trkpt>
      <trkpt lat="42.67655" lon="0.7809">
        <ele>1286.8</ele>
        <time>2022-05-22 23:39:51</time>
      </trkpt>
      <trkpt lat="42.67655" lon="0.78086">
        <ele>1287</ele>
        <time>2022-05-22 23:39:52</time>
      </trkpt>
      <trkpt lat="42.67655" lon="0.78083">
        <ele>1287.2</ele>
        <time>2022-05-22 23:39:53</time>
      </trkpt>
      <trkpt lat="42.67655" lon="0.7808">
        <ele>1287.4</ele>
        <time>2022-05-22 23:39:54</time>
      </trkpt>
      <trkpt lat="42.67656" lon="0.78077">
        <ele>1287.6</ele>
        <time>2022-05-22 23:39:55</time>
      </trkpt>
      <trkpt lat="42.67656" lon="0.78073">
        <ele>1287.8</ele>
        <time>2022-05-22 23:39:56</time>
      </trkpt>
      <trkpt lat="42.67656" lon="0.7807">
        <ele>1288</ele>
        <time>2022-05-22 23:39:57</time>
      </trkpt>
      <trkpt lat="42.67656" lon="0.78067">
        <ele>1288</ele>
        <time>2022-05-22 23:39:58</time>
      </trkpt>
      <trkpt lat="42.67657" lon="0.78064">
        <ele>1288.2</ele>
        <time>2022-05-22 23:39:59</time>
      </trkpt>
      <trkpt lat="42.67657" lon="0.7806">
        <ele>1288.4</ele>
        <time>2022-05-22 23:40:00</time>
      </trkpt>
      <trkpt lat="42.67658" lon="0.78057">
        <ele>1288.6</ele>
        <time>2022-05-22 23:40:01</time>
      </trkpt>
      <trkpt lat="42.67658" lon="0.78054">
        <ele>1288.8</ele>
        <time>2022-05-22 23:40:02</time>
      </trkpt>
      <trkpt lat="42.67659" lon="0.78051">
        <ele>1289</ele>
        <time>2022-05-22 23:40:03</time>
      </trkpt>
      <trkpt lat="42.67659" lon="0.78048">
        <ele>1289.2</ele>
        <time>2022-05-22 23:40:04</time>
      </trkpt>
      <trkpt lat="42.67659" lon="0.78045">
        <ele>1289.4</ele>
        <time>2022-05-22 23:40:05</time>
      </trkpt>
      <trkpt lat="42.67659" lon="0.78042">
        <ele>1289.6</ele>
        <time>2022-05-22 23:40:06</time>
      </trkpt>
      <trkpt lat="42.6766" lon="0.78039">
        <ele>1289.8</ele>
        <time>2022-05-22 23:40:07</time>
      </trkpt>
      <trkpt lat="42.67659" lon="0.78036">
        <ele>1289.8</ele>
        <time>2022-05-22 23:40:08</time>
      </trkpt>
      <trkpt lat="42.67658" lon="0.78034">
        <ele>1290</ele>
        <time>2022-05-22 23:40:09</time>
      </trkpt>
      <trkpt lat="42.67659" lon="0.78031">
        <ele>1290.2</ele>
        <time>2022-05-22 23:40:10</time>
      </trkpt>
      <trkpt lat="42.67659" lon="0.78028">
        <ele>1290.4</ele>
        <time>2022-05-22 23:40:11</time>
      </trkpt>
      <trkpt lat="42.67659" lon="0.78025">
        <ele>1290.6</ele>
        <time>2022-05-22 23:40:12</time>
      </trkpt>
      <trkpt lat="42.67659" lon="0.78022">
        <ele>1290.8</ele>
        <time>2022-05-22 23:40:13</time>
      </trkpt>
      <trkpt lat="42.67658" lon="0.7802">
        <ele>1290.8</ele>
        <time>2022-05-22 23:40:14</time>
      </trkpt>
      <trkpt lat="42.67658" lon="0.78017">
        <ele>1291</ele>
        <time>2022-05-22 23:40:15</time>
      </trkpt>
      <trkpt lat="42.67658" lon="0.78015">
        <ele>1291.2</ele>
        <time>2022-05-22 23:40:16</time>
      </trkpt>
      <trkpt lat="42.67658" lon="0.78012">
        <ele>1291.4</ele>
        <time>2022-05-22 23:40:17</time>
      </trkpt>
      <trkpt lat="42.67658" lon="0.7801">
        <ele>1291.6</ele>
        <time>2022-05-22 23:40:18</time>
      </trkpt>
      <trkpt lat="42.67658" lon="0.78007">
        <ele>1291.8</ele>
        <time>2022-05-22 23:40:19</time>
      </trkpt>
      <trkpt lat="42.67658" lon="0.78004">
        <ele>1291.8</ele>
        <time>2022-05-22 23:40:20</time>
      </trkpt>
      <trkpt lat="42.67658" lon="0.78">
        <ele>1292</ele>
        <time>2022-05-22 23:40:21</time>
      </trkpt>
      <trkpt lat="42.67657" lon="0.77997">
        <ele>1292.2</ele>
        <time>2022-05-22 23:40:22</time>
      </trkpt>
      <trkpt lat="42.67657" lon="0.77994">
        <ele>1292.4</ele>
        <time>2022-05-22 23:40:23</time>
      </trkpt>
      <trkpt lat="42.67657" lon="0.7799">
        <ele>1292.6</ele>
        <time>2022-05-22 23:40:24</time>
      </trkpt>
      <trkpt lat="42.67657" lon="0.77987">
        <ele>1292.8</ele>
        <time>2022-05-22 23:40:25</time>
      </trkpt>
      <trkpt lat="42.67657" lon="0.77983">
        <ele>1293</ele>
        <time>2022-05-22 23:40:26</time>
      </trkpt>
      <trkpt lat="42.67657" lon="0.7798">
        <ele>1293.2</ele>
        <time>2022-05-22 23:40:27</time>
      </trkpt>
      <trkpt lat="42.67657" lon="0.77977">
        <ele>1293.4</ele>
        <time>2022-05-22 23:40:28</time>
      </trkpt>
      <trkpt lat="42.67657" lon="0.77974">
        <ele>1293.6</ele>
        <time>2022-05-22 23:40:29</time>
      </trkpt>
      <trkpt lat="42.67657" lon="0.77971">
        <ele>1293.6</ele>
        <time>2022-05-22 23:40:30</time>
      </trkpt>
      <trkpt lat="42.67657" lon="0.77968">
        <ele>1293.8</ele>
        <time>2022-05-22 23:40:31</time>
      </trkpt>
      <trkpt lat="42.67657" lon="0.77964">
        <ele>1294</ele>
        <time>2022-05-22 23:40:32</time>
      </trkpt>
      <trkpt lat="42.67657" lon="0.77961">
        <ele>1294.2</ele>
        <time>2022-05-22 23:40:33</time>
      </trkpt>
      <trkpt lat="42.67656" lon="0.77957">
        <ele>1294.4</ele>
        <time>2022-05-22 23:40:34</time>
      </trkpt>
      <trkpt lat="42.67656" lon="0.77954">
        <ele>1294.6</ele>
        <time>2022-05-22 23:40:35</time>
      </trkpt>
      <trkpt lat="42.67656" lon="0.77951">
        <ele>1294.8</ele>
        <time>2022-05-22 23:40:36</time>
      </trkpt>
      <trkpt lat="42.67655" lon="0.77947">
        <ele>1294.8</ele>
        <time>2022-05-22 23:40:37</time>
      </trkpt>
      <trkpt lat="42.67655" lon="0.77944">
        <ele>1295</ele>
        <time>2022-05-22 23:40:38</time>
      </trkpt>
      <trkpt lat="42.67655" lon="0.7794">
        <ele>1295.2</ele>
        <time>2022-05-22 23:40:39</time>
      </trkpt>
      <trkpt lat="42.67655" lon="0.77937">
        <ele>1295.4</ele>
        <time>2022-05-22 23:40:40</time>
      </trkpt>
      <trkpt lat="42.67655" lon="0.77933">
        <ele>1295.6</ele>
        <time>2022-05-22 23:40:41</time>
      </trkpt>
      <trkpt lat="42.67655" lon="0.77929">
        <ele>1295.8</ele>
        <time>2022-05-22 23:40:42</time>
      </trkpt>
      <trkpt lat="42.67655" lon="0.77925">
        <ele>1296</ele>
        <time>2022-05-22 23:40:43</time>
      </trkpt>
      <trkpt lat="42.67655" lon="0.77922">
        <ele>1296.2</ele>
        <time>2022-05-22 23:40:44</time>
      </trkpt>
      <trkpt lat="42.67655" lon="0.77918">
        <ele>1296.2</ele>
        <time>2022-05-22 23:40:45</time>
      </trkpt>
      <trkpt lat="42.67655" lon="0.77915">
        <ele>1296.4</ele>
        <time>2022-05-22 23:40:46</time>
      </trkpt>
      <trkpt lat="42.67655" lon="0.77911">
        <ele>1296.6</ele>
        <time>2022-05-22 23:40:47</time>
      </trkpt>
      <trkpt lat="42.67655" lon="0.77908">
        <ele>1296.8</ele>
        <time>2022-05-22 23:40:48</time>
      </trkpt>
      <trkpt lat="42.67655" lon="0.77904">
        <ele>1297</ele>
        <time>2022-05-22 23:40:49</time>
      </trkpt>
      <trkpt lat="42.67656" lon="0.77901">
        <ele>1297.2</ele>
        <time>2022-05-22 23:40:50</time>
      </trkpt>
      <trkpt lat="42.67656" lon="0.77898">
        <ele>1297.4</ele>
        <time>2022-05-22 23:40:51</time>
      </trkpt>
      <trkpt lat="42.67656" lon="0.77894">
        <ele>1297.6</ele>
        <time>2022-05-22 23:40:52</time>
      </trkpt>
      <trkpt lat="42.67656" lon="0.77891">
        <ele>1297.8</ele>
        <time>2022-05-22 23:40:53</time>
      </trkpt>
      <trkpt lat="42.67656" lon="0.77888">
        <ele>1298</ele>
        <time>2022-05-22 23:40:54</time>
      </trkpt>
      <trkpt lat="42.67656" lon="0.77884">
        <ele>1298.2</ele>
        <time>2022-05-22 23:40:55</time>
      </trkpt>
      <trkpt lat="42.67656" lon="0.77881">
        <ele>1298.4</ele>
        <time>2022-05-22 23:40:56</time>
      </trkpt>
      <trkpt lat="42.67656" lon="0.77877">
        <ele>1298.6</ele>
        <time>2022-05-22 23:40:57</time>
      </trkpt>
      <trkpt lat="42.67656" lon="0.77874">
        <ele>1298.8</ele>
        <time>2022-05-22 23:40:58</time>
      </trkpt>
      <trkpt lat="42.67656" lon="0.77871">
        <ele>1299</ele>
        <time>2022-05-22 23:40:59</time>
      </trkpt>
      <trkpt lat="42.67656" lon="0.77868">
        <ele>1299</ele>
        <time>2022-05-22 23:41:00</time>
      </trkpt>
      <trkpt lat="42.67656" lon="0.77864">
        <ele>1299.2</ele>
        <time>2022-05-22 23:41:01</time>
      </trkpt>
      <trkpt lat="42.67656" lon="0.77861">
        <ele>1299.4</ele>
        <time>2022-05-22 23:41:02</time>
      </trkpt>
      <trkpt lat="42.67656" lon="0.77857">
        <ele>1299.6</ele>
        <time>2022-05-22 23:41:03</time>
      </trkpt>
      <trkpt lat="42.67656" lon="0.77854">
        <ele>1299.6</ele>
        <time>2022-05-22 23:41:04</time>
      </trkpt>
      <trkpt lat="42.67656" lon="0.77851">
        <ele>1299.8</ele>
        <time>2022-05-22 23:41:05</time>
      </trkpt>
      <trkpt lat="42.67656" lon="0.77848">
        <ele>1300</ele>
        <time>2022-05-22 23:41:06</time>
      </trkpt>
      <trkpt lat="42.67656" lon="0.77844">
        <ele>1300.2</ele>
        <time>2022-05-22 23:41:07</time>
      </trkpt>
      <trkpt lat="42.67656" lon="0.77841">
        <ele>1300.4</ele>
        <time>2022-05-22 23:41:08</time>
      </trkpt>
      <trkpt lat="42.67656" lon="0.77838">
        <ele>1300.4</ele>
        <time>2022-05-22 23:41:09</time>
      </trkpt>
      <trkpt lat="42.67656" lon="0.77834">
        <ele>1300.6</ele>
        <time>2022-05-22 23:41:10</time>
      </trkpt>
      <trkpt lat="42.67656" lon="0.77831">
        <ele>1300.8</ele>
        <time>2022-05-22 23:41:11</time>
      </trkpt>
      <trkpt lat="42.67656" lon="0.77828">
        <ele>1301</ele>
        <time>2022-05-22 23:41:12</time>
      </trkpt>
      <trkpt lat="42.67656" lon="0.77825">
        <ele>1301.2</ele>
        <time>2022-05-22 23:41:13</time>
      </trkpt>
      <trkpt lat="42.67656" lon="0.77822">
        <ele>1301.4</ele>
        <time>2022-05-22 23:41:14</time>
      </trkpt>
      <trkpt lat="42.67656" lon="0.77819">
        <ele>1301.4</ele>
        <time>2022-05-22 23:41:15</time>
      </trkpt>
      <trkpt lat="42.67656" lon="0.77816">
        <ele>1301.6</ele>
        <time>2022-05-22 23:41:16</time>
      </trkpt>
      <trkpt lat="42.67656" lon="0.77813">
        <ele>1301.8</ele>
        <time>2022-05-22 23:41:17</time>
      </trkpt>
      <trkpt lat="42.67656" lon="0.7781">
        <ele>1302</ele>
        <time>2022-05-22 23:41:18</time>
      </trkpt>
      <trkpt lat="42.67657" lon="0.77807">
        <ele>1302.2</ele>
        <time>2022-05-22 23:41:19</time>
      </trkpt>
      <trkpt lat="42.67657" lon="0.77803">
        <ele>1302.4</ele>
        <time>2022-05-22 23:41:20</time>
      </trkpt>
      <trkpt lat="42.67657" lon="0.778">
        <ele>1302.4</ele>
        <time>2022-05-22 23:41:21</time>
      </trkpt>
      <trkpt lat="42.67657" lon="0.77797">
        <ele>1302.6</ele>
        <time>2022-05-22 23:41:22</time>
      </trkpt>
      <trkpt lat="42.67657" lon="0.77794">
        <ele>1302.8</ele>
        <time>2022-05-22 23:41:23</time>
      </trkpt>
      <trkpt lat="42.67657" lon="0.77791">
        <ele>1303</ele>
        <time>2022-05-22 23:41:24</time>
      </trkpt>
      <trkpt lat="42.67658" lon="0.77788">
        <ele>1303</ele>
        <time>2022-05-22 23:41:25</time>
      </trkpt>
      <trkpt lat="42.67658" lon="0.77785">
        <ele>1303.2</ele>
        <time>2022-05-22 23:41:26</time>
      </trkpt>
      <trkpt lat="42.67659" lon="0.77782">
        <ele>1303.4</ele>
        <time>2022-05-22 23:41:27</time>
      </trkpt>
      <trkpt lat="42.67659" lon="0.77779">
        <ele>1303.6</ele>
        <time>2022-05-22 23:41:28</time>
      </trkpt>
      <trkpt lat="42.67659" lon="0.77776">
        <ele>1303.8</ele>
        <time>2022-05-22 23:41:29</time>
      </trkpt>
      <trkpt lat="42.67659" lon="0.77773">
        <ele>1303.8</ele>
        <time>2022-05-22 23:41:30</time>
      </trkpt>
      <trkpt lat="42.67659" lon="0.7777">
        <ele>1304</ele>
        <time>2022-05-22 23:41:31</time>
      </trkpt>
      <trkpt lat="42.6766" lon="0.77767">
        <ele>1304.2</ele>
        <time>2022-05-22 23:41:32</time>
      </trkpt>
      <trkpt lat="42.6766" lon="0.77763">
        <ele>1304.4</ele>
        <time>2022-05-22 23:41:33</time>
      </trkpt>
      <trkpt lat="42.67661" lon="0.7776">
        <ele>1304.4</ele>
        <time>2022-05-22 23:41:34</time>
      </trkpt>
      <trkpt lat="42.67661" lon="0.77757">
        <ele>1304.6</ele>
        <time>2022-05-22 23:41:35</time>
      </trkpt>
      <trkpt lat="42.67662" lon="0.77753">
        <ele>1304.8</ele>
        <time>2022-05-22 23:41:36</time>
      </trkpt>
      <trkpt lat="42.67662" lon="0.7775">
        <ele>1305</ele>
        <time>2022-05-22 23:41:37</time>
      </trkpt>
      <trkpt lat="42.67662" lon="0.77747">
        <ele>1305</ele>
        <time>2022-05-22 23:41:38</time>
      </trkpt>
      <trkpt lat="42.67662" lon="0.77744">
        <ele>1305.2</ele>
        <time>2022-05-22 23:41:39</time>
      </trkpt>
      <trkpt lat="42.67663" lon="0.77741">
        <ele>1305.4</ele>
        <time>2022-05-22 23:41:40</time>
      </trkpt>
      <trkpt lat="42.67663" lon="0.77738">
        <ele>1305.6</ele>
        <time>2022-05-22 23:41:41</time>
      </trkpt>
      <trkpt lat="42.67663" lon="0.77735">
        <ele>1305.6</ele>
        <time>2022-05-22 23:41:42</time>
      </trkpt>
      <trkpt lat="42.67663" lon="0.77732">
        <ele>1305.6</ele>
        <time>2022-05-22 23:41:43</time>
      </trkpt>
      <trkpt lat="42.67663" lon="0.77729">
        <ele>1305.8</ele>
        <time>2022-05-22 23:41:44</time>
      </trkpt>
      <trkpt lat="42.67664" lon="0.77727">
        <ele>1305.8</ele>
        <time>2022-05-22 23:41:45</time>
      </trkpt>
      <trkpt lat="42.67664" lon="0.77724">
        <ele>1306</ele>
        <time>2022-05-22 23:41:46</time>
      </trkpt>
      <trkpt lat="42.67665" lon="0.77721">
        <ele>1306.2</ele>
        <time>2022-05-22 23:41:47</time>
      </trkpt>
      <trkpt lat="42.67665" lon="0.77718">
        <ele>1306.4</ele>
        <time>2022-05-22 23:41:48</time>
      </trkpt>
      <trkpt lat="42.67665" lon="0.77715">
        <ele>1306.6</ele>
        <time>2022-05-22 23:41:49</time>
      </trkpt>
      <trkpt lat="42.67666" lon="0.77712">
        <ele>1306.8</ele>
        <time>2022-05-22 23:41:50</time>
      </trkpt>
      <trkpt lat="42.67666" lon="0.77709">
        <ele>1307</ele>
        <time>2022-05-22 23:41:51</time>
      </trkpt>
      <trkpt lat="42.67666" lon="0.77706">
        <ele>1307.2</ele>
        <time>2022-05-22 23:41:52</time>
      </trkpt>
      <trkpt lat="42.67666" lon="0.77703">
        <ele>1307.4</ele>
        <time>2022-05-22 23:41:53</time>
      </trkpt>
      <trkpt lat="42.67666" lon="0.777">
        <ele>1307.6</ele>
        <time>2022-05-22 23:41:54</time>
      </trkpt>
      <trkpt lat="42.67666" lon="0.77697">
        <ele>1307.8</ele>
        <time>2022-05-22 23:41:55</time>
      </trkpt>
      <trkpt lat="42.67667" lon="0.77694">
        <ele>1308</ele>
        <time>2022-05-22 23:41:56</time>
      </trkpt>
      <trkpt lat="42.67667" lon="0.77691">
        <ele>1308</ele>
        <time>2022-05-22 23:41:57</time>
      </trkpt>
      <trkpt lat="42.67666" lon="0.77688">
        <ele>1308.2</ele>
        <time>2022-05-22 23:41:58</time>
      </trkpt>
      <trkpt lat="42.67666" lon="0.77685">
        <ele>1308.4</ele>
        <time>2022-05-22 23:41:59</time>
      </trkpt>
      <trkpt lat="42.67666" lon="0.77682">
        <ele>1308.6</ele>
        <time>2022-05-22 23:42:00</time>
      </trkpt>
      <trkpt lat="42.67666" lon="0.77679">
        <ele>1308.8</ele>
        <time>2022-05-22 23:42:01</time>
      </trkpt>
      <trkpt lat="42.67667" lon="0.77675">
        <ele>1308.8</ele>
        <time>2022-05-22 23:42:02</time>
      </trkpt>
      <trkpt lat="42.67667" lon="0.77672">
        <ele>1309</ele>
        <time>2022-05-22 23:42:03</time>
      </trkpt>
      <trkpt lat="42.67667" lon="0.77669">
        <ele>1309.2</ele>
        <time>2022-05-22 23:42:04</time>
      </trkpt>
      <trkpt lat="42.67667" lon="0.77666">
        <ele>1309.4</ele>
        <time>2022-05-22 23:42:05</time>
      </trkpt>
      <trkpt lat="42.67667" lon="0.77663">
        <ele>1309.6</ele>
        <time>2022-05-22 23:42:06</time>
      </trkpt>
      <trkpt lat="42.67667" lon="0.77661">
        <ele>1309.8</ele>
        <time>2022-05-22 23:42:07</time>
      </trkpt>
      <trkpt lat="42.67667" lon="0.77658">
        <ele>1310</ele>
        <time>2022-05-22 23:42:08</time>
      </trkpt>
      <trkpt lat="42.67666" lon="0.77655">
        <ele>1310.2</ele>
        <time>2022-05-22 23:42:09</time>
      </trkpt>
      <trkpt lat="42.67667" lon="0.77652">
        <ele>1310.2</ele>
        <time>2022-05-22 23:42:10</time>
      </trkpt>
      <trkpt lat="42.67667" lon="0.77649">
        <ele>1310.4</ele>
        <time>2022-05-22 23:42:11</time>
      </trkpt>
      <trkpt lat="42.67667" lon="0.77646">
        <ele>1310.6</ele>
        <time>2022-05-22 23:42:12</time>
      </trkpt>
      <trkpt lat="42.67667" lon="0.77643">
        <ele>1310.8</ele>
        <time>2022-05-22 23:42:13</time>
      </trkpt>
      <trkpt lat="42.67667" lon="0.7764">
        <ele>1311</ele>
        <time>2022-05-22 23:42:14</time>
      </trkpt>
      <trkpt lat="42.67667" lon="0.77637">
        <ele>1311</ele>
        <time>2022-05-22 23:42:15</time>
      </trkpt>
      <trkpt lat="42.67667" lon="0.77635">
        <ele>1311.2</ele>
        <time>2022-05-22 23:42:16</time>
      </trkpt>
      <trkpt lat="42.67668" lon="0.77632">
        <ele>1311.4</ele>
        <time>2022-05-22 23:42:17</time>
      </trkpt>
      <trkpt lat="42.67668" lon="0.77629">
        <ele>1311.6</ele>
        <time>2022-05-22 23:42:18</time>
      </trkpt>
      <trkpt lat="42.67668" lon="0.77626">
        <ele>1311.8</ele>
        <time>2022-05-22 23:42:19</time>
      </trkpt>
      <trkpt lat="42.67668" lon="0.77622">
        <ele>1311.8</ele>
        <time>2022-05-22 23:42:20</time>
      </trkpt>
      <trkpt lat="42.67668" lon="0.77619">
        <ele>1312</ele>
        <time>2022-05-22 23:42:21</time>
      </trkpt>
      <trkpt lat="42.67668" lon="0.77616">
        <ele>1312.2</ele>
        <time>2022-05-22 23:42:22</time>
      </trkpt>
      <trkpt lat="42.67669" lon="0.77613">
        <ele>1312.4</ele>
        <time>2022-05-22 23:42:23</time>
      </trkpt>
      <trkpt lat="42.67669" lon="0.77611">
        <ele>1312.6</ele>
        <time>2022-05-22 23:42:24</time>
      </trkpt>
      <trkpt lat="42.67669" lon="0.77608">
        <ele>1312.6</ele>
        <time>2022-05-22 23:42:25</time>
      </trkpt>
      <trkpt lat="42.6767" lon="0.77605">
        <ele>1312.8</ele>
        <time>2022-05-22 23:42:26</time>
      </trkpt>
      <trkpt lat="42.6767" lon="0.77603">
        <ele>1313</ele>
        <time>2022-05-22 23:42:27</time>
      </trkpt>
      <trkpt lat="42.67671" lon="0.776">
        <ele>1313</ele>
        <time>2022-05-22 23:42:28</time>
      </trkpt>
      <trkpt lat="42.67671" lon="0.77597">
        <ele>1313.2</ele>
        <time>2022-05-22 23:42:29</time>
      </trkpt>
      <trkpt lat="42.67672" lon="0.77594">
        <ele>1313.4</ele>
        <time>2022-05-22 23:42:30</time>
      </trkpt>
      <trkpt lat="42.67672" lon="0.77591">
        <ele>1313.4</ele>
        <time>2022-05-22 23:42:31</time>
      </trkpt>
      <trkpt lat="42.67673" lon="0.77588">
        <ele>1313.6</ele>
        <time>2022-05-22 23:42:32</time>
      </trkpt>
      <trkpt lat="42.67673" lon="0.77585">
        <ele>1313.8</ele>
        <time>2022-05-22 23:42:33</time>
      </trkpt>
      <trkpt lat="42.67674" lon="0.77582">
        <ele>1314</ele>
        <time>2022-05-22 23:42:34</time>
      </trkpt>
      <trkpt lat="42.67674" lon="0.7758">
        <ele>1314</ele>
        <time>2022-05-22 23:42:35</time>
      </trkpt>
      <trkpt lat="42.67675" lon="0.77577">
        <ele>1314.2</ele>
        <time>2022-05-22 23:42:36</time>
      </trkpt>
      <trkpt lat="42.67675" lon="0.77574">
        <ele>1314.4</ele>
        <time>2022-05-22 23:42:37</time>
      </trkpt>
      <trkpt lat="42.67676" lon="0.77571">
        <ele>1314.4</ele>
        <time>2022-05-22 23:42:38</time>
      </trkpt>
      <trkpt lat="42.67676" lon="0.77568">
        <ele>1314.6</ele>
        <time>2022-05-22 23:42:39</time>
      </trkpt>
      <trkpt lat="42.67676" lon="0.77565">
        <ele>1314.8</ele>
        <time>2022-05-22 23:42:40</time>
      </trkpt>
      <trkpt lat="42.67676" lon="0.77561">
        <ele>1314.8</ele>
        <time>2022-05-22 23:42:41</time>
      </trkpt>
      <trkpt lat="42.67677" lon="0.77558">
        <ele>1315</ele>
        <time>2022-05-22 23:42:42</time>
      </trkpt>
      <trkpt lat="42.67678" lon="0.77555">
        <ele>1315.2</ele>
        <time>2022-05-22 23:42:43</time>
      </trkpt>
      <trkpt lat="42.67678" lon="0.77552">
        <ele>1315.4</ele>
        <time>2022-05-22 23:42:44</time>
      </trkpt>
      <trkpt lat="42.67679" lon="0.77549">
        <ele>1315.6</ele>
        <time>2022-05-22 23:42:45</time>
      </trkpt>
      <trkpt lat="42.67679" lon="0.77546">
        <ele>1315.6</ele>
        <time>2022-05-22 23:42:46</time>
      </trkpt>
      <trkpt lat="42.6768" lon="0.77543">
        <ele>1315.8</ele>
        <time>2022-05-22 23:42:47</time>
      </trkpt>
      <trkpt lat="42.6768" lon="0.7754">
        <ele>1316</ele>
        <time>2022-05-22 23:42:48</time>
      </trkpt>
      <trkpt lat="42.67681" lon="0.77536">
        <ele>1316</ele>
        <time>2022-05-22 23:42:49</time>
      </trkpt>
      <trkpt lat="42.67681" lon="0.77532">
        <ele>1316.2</ele>
        <time>2022-05-22 23:42:50</time>
      </trkpt>
      <trkpt lat="42.67681" lon="0.77529">
        <ele>1316.4</ele>
        <time>2022-05-22 23:42:51</time>
      </trkpt>
      <trkpt lat="42.67682" lon="0.77525">
        <ele>1316.6</ele>
        <time>2022-05-22 23:42:52</time>
      </trkpt>
      <trkpt lat="42.67682" lon="0.77522">
        <ele>1316.8</ele>
        <time>2022-05-22 23:42:53</time>
      </trkpt>
      <trkpt lat="42.67682" lon="0.77519">
        <ele>1317</ele>
        <time>2022-05-22 23:42:54</time>
      </trkpt>
      <trkpt lat="42.67682" lon="0.77516">
        <ele>1317.2</ele>
        <time>2022-05-22 23:42:55</time>
      </trkpt>
      <trkpt lat="42.67682" lon="0.77513">
        <ele>1317.4</ele>
        <time>2022-05-22 23:42:56</time>
      </trkpt>
      <trkpt lat="42.67682" lon="0.7751">
        <ele>1317.4</ele>
        <time>2022-05-22 23:42:57</time>
      </trkpt>
      <trkpt lat="42.67682" lon="0.77507">
        <ele>1317.6</ele>
        <time>2022-05-22 23:42:58</time>
      </trkpt>
      <trkpt lat="42.67682" lon="0.77505">
        <ele>1317.8</ele>
        <time>2022-05-22 23:42:59</time>
      </trkpt>
      <trkpt lat="42.67682" lon="0.77501">
        <ele>1318</ele>
        <time>2022-05-22 23:43:00</time>
      </trkpt>
      <trkpt lat="42.67682" lon="0.77498">
        <ele>1318.2</ele>
        <time>2022-05-22 23:43:01</time>
      </trkpt>
      <trkpt lat="42.67683" lon="0.77496">
        <ele>1318.2</ele>
        <time>2022-05-22 23:43:02</time>
      </trkpt>
      <trkpt lat="42.67683" lon="0.77492">
        <ele>1318.4</ele>
        <time>2022-05-22 23:43:03</time>
      </trkpt>
      <trkpt lat="42.67683" lon="0.7749">
        <ele>1318.6</ele>
        <time>2022-05-22 23:43:04</time>
      </trkpt>
      <trkpt lat="42.67683" lon="0.77487">
        <ele>1318.6</ele>
        <time>2022-05-22 23:43:05</time>
      </trkpt>
      <trkpt lat="42.67683" lon="0.77484">
        <ele>1318.8</ele>
        <time>2022-05-22 23:43:06</time>
      </trkpt>
      <trkpt lat="42.67683" lon="0.77481">
        <ele>1319</ele>
        <time>2022-05-22 23:43:07</time>
      </trkpt>
      <trkpt lat="42.67683" lon="0.77478">
        <ele>1319.2</ele>
        <time>2022-05-22 23:43:08</time>
      </trkpt>
      <trkpt lat="42.67683" lon="0.77476">
        <ele>1319.2</ele>
        <time>2022-05-22 23:43:09</time>
      </trkpt>
      <trkpt lat="42.67683" lon="0.77473">
        <ele>1319.4</ele>
        <time>2022-05-22 23:43:10</time>
      </trkpt>
      <trkpt lat="42.67683" lon="0.7747">
        <ele>1319.6</ele>
        <time>2022-05-22 23:43:11</time>
      </trkpt>
      <trkpt lat="42.67684" lon="0.77467">
        <ele>1319.6</ele>
        <time>2022-05-22 23:43:12</time>
      </trkpt>
      <trkpt lat="42.67684" lon="0.77464">
        <ele>1319.8</ele>
        <time>2022-05-22 23:43:13</time>
      </trkpt>
      <trkpt lat="42.67684" lon="0.77461">
        <ele>1320</ele>
        <time>2022-05-22 23:43:14</time>
      </trkpt>
      <trkpt lat="42.67684" lon="0.77459">
        <ele>1320.2</ele>
        <time>2022-05-22 23:43:15</time>
      </trkpt>
      <trkpt lat="42.67684" lon="0.77456">
        <ele>1320.4</ele>
        <time>2022-05-22 23:43:16</time>
      </trkpt>
      <trkpt lat="42.67684" lon="0.77453">
        <ele>1320.4</ele>
        <time>2022-05-22 23:43:17</time>
      </trkpt>
      <trkpt lat="42.67684" lon="0.7745">
        <ele>1320.6</ele>
        <time>2022-05-22 23:43:18</time>
      </trkpt>
      <trkpt lat="42.67684" lon="0.77447">
        <ele>1320.8</ele>
        <time>2022-05-22 23:43:19</time>
      </trkpt>
      <trkpt lat="42.67684" lon="0.77444">
        <ele>1321</ele>
        <time>2022-05-22 23:43:20</time>
      </trkpt>
      <trkpt lat="42.67683" lon="0.77441">
        <ele>1321</ele>
        <time>2022-05-22 23:43:21</time>
      </trkpt>
      <trkpt lat="42.67684" lon="0.77438">
        <ele>1321.2</ele>
        <time>2022-05-22 23:43:22</time>
      </trkpt>
      <trkpt lat="42.67684" lon="0.77436">
        <ele>1321.4</ele>
        <time>2022-05-22 23:43:23</time>
      </trkpt>
      <trkpt lat="42.67684" lon="0.77433">
        <ele>1321.4</ele>
        <time>2022-05-22 23:43:24</time>
      </trkpt>
      <trkpt lat="42.67684" lon="0.7743">
        <ele>1321.6</ele>
        <time>2022-05-22 23:43:25</time>
      </trkpt>
      <trkpt lat="42.67684" lon="0.77427">
        <ele>1321.8</ele>
        <time>2022-05-22 23:43:26</time>
      </trkpt>
      <trkpt lat="42.67684" lon="0.77424">
        <ele>1322</ele>
        <time>2022-05-22 23:43:27</time>
      </trkpt>
      <trkpt lat="42.67684" lon="0.77422">
        <ele>1322</ele>
        <time>2022-05-22 23:43:28</time>
      </trkpt>
      <trkpt lat="42.67683" lon="0.77419">
        <ele>1322.2</ele>
        <time>2022-05-22 23:43:29</time>
      </trkpt>
      <trkpt lat="42.67683" lon="0.77416">
        <ele>1322.4</ele>
        <time>2022-05-22 23:43:30</time>
      </trkpt>
      <trkpt lat="42.67682" lon="0.77413">
        <ele>1322.4</ele>
        <time>2022-05-22 23:43:31</time>
      </trkpt>
      <trkpt lat="42.67682" lon="0.77411">
        <ele>1322.6</ele>
        <time>2022-05-22 23:43:32</time>
      </trkpt>
      <trkpt lat="42.67682" lon="0.77408">
        <ele>1322.6</ele>
        <time>2022-05-22 23:43:33</time>
      </trkpt>
      <trkpt lat="42.67682" lon="0.77405">
        <ele>1322.8</ele>
        <time>2022-05-22 23:43:34</time>
      </trkpt>
      <trkpt lat="42.67681" lon="0.77402">
        <ele>1323</ele>
        <time>2022-05-22 23:43:35</time>
      </trkpt>
      <trkpt lat="42.67681" lon="0.77399">
        <ele>1323</ele>
        <time>2022-05-22 23:43:36</time>
      </trkpt>
      <trkpt lat="42.6768" lon="0.77397">
        <ele>1323.2</ele>
        <time>2022-05-22 23:43:37</time>
      </trkpt>
      <trkpt lat="42.67679" lon="0.77394">
        <ele>1323.4</ele>
        <time>2022-05-22 23:43:38</time>
      </trkpt>
      <trkpt lat="42.67678" lon="0.77391">
        <ele>1323.4</ele>
        <time>2022-05-22 23:43:39</time>
      </trkpt>
      <trkpt lat="42.67677" lon="0.77389">
        <ele>1323.6</ele>
        <time>2022-05-22 23:43:40</time>
      </trkpt>
      <trkpt lat="42.67677" lon="0.77386">
        <ele>1323.8</ele>
        <time>2022-05-22 23:43:41</time>
      </trkpt>
      <trkpt lat="42.67676" lon="0.77383">
        <ele>1324</ele>
        <time>2022-05-22 23:43:42</time>
      </trkpt>
      <trkpt lat="42.67676" lon="0.7738">
        <ele>1324</ele>
        <time>2022-05-22 23:43:43</time>
      </trkpt>
      <trkpt lat="42.67675" lon="0.77378">
        <ele>1324.2</ele>
        <time>2022-05-22 23:43:44</time>
      </trkpt>
      <trkpt lat="42.67674" lon="0.77375">
        <ele>1324.2</ele>
        <time>2022-05-22 23:43:45</time>
      </trkpt>
      <trkpt lat="42.67673" lon="0.77372">
        <ele>1324.4</ele>
        <time>2022-05-22 23:43:46</time>
      </trkpt>
      <trkpt lat="42.67673" lon="0.77369">
        <ele>1324.4</ele>
        <time>2022-05-22 23:43:47</time>
      </trkpt>
      <trkpt lat="42.67671" lon="0.77366">
        <ele>1324.6</ele>
        <time>2022-05-22 23:43:48</time>
      </trkpt>
      <trkpt lat="42.67671" lon="0.77363">
        <ele>1324.8</ele>
        <time>2022-05-22 23:43:49</time>
      </trkpt>
      <trkpt lat="42.6767" lon="0.7736">
        <ele>1324.8</ele>
        <time>2022-05-22 23:43:50</time>
      </trkpt>
      <trkpt lat="42.67669" lon="0.77356">
        <ele>1325</ele>
        <time>2022-05-22 23:43:51</time>
      </trkpt>
      <trkpt lat="42.67668" lon="0.77353">
        <ele>1325</ele>
        <time>2022-05-22 23:43:52</time>
      </trkpt>
      <trkpt lat="42.67667" lon="0.7735">
        <ele>1325.2</ele>
        <time>2022-05-22 23:43:53</time>
      </trkpt>
      <trkpt lat="42.67666" lon="0.77346">
        <ele>1325.4</ele>
        <time>2022-05-22 23:43:54</time>
      </trkpt>
      <trkpt lat="42.67666" lon="0.77343">
        <ele>1325.6</ele>
        <time>2022-05-22 23:43:55</time>
      </trkpt>
      <trkpt lat="42.67665" lon="0.7734">
        <ele>1325.8</ele>
        <time>2022-05-22 23:43:56</time>
      </trkpt>
      <trkpt lat="42.67664" lon="0.77337">
        <ele>1325.8</ele>
        <time>2022-05-22 23:43:57</time>
      </trkpt>
      <trkpt lat="42.67663" lon="0.77335">
        <ele>1326</ele>
        <time>2022-05-22 23:43:58</time>
      </trkpt>
      <trkpt lat="42.67663" lon="0.77332">
        <ele>1326.2</ele>
        <time>2022-05-22 23:43:59</time>
      </trkpt>
      <trkpt lat="42.67662" lon="0.77329">
        <ele>1326.4</ele>
        <time>2022-05-22 23:44:00</time>
      </trkpt>
      <trkpt lat="42.67661" lon="0.77327">
        <ele>1326.6</ele>
        <time>2022-05-22 23:44:01</time>
      </trkpt>
      <trkpt lat="42.67661" lon="0.77324">
        <ele>1326.6</ele>
        <time>2022-05-22 23:44:02</time>
      </trkpt>
      <trkpt lat="42.6766" lon="0.77321">
        <ele>1326.8</ele>
        <time>2022-05-22 23:44:03</time>
      </trkpt>
      <trkpt lat="42.67659" lon="0.77319">
        <ele>1327</ele>
        <time>2022-05-22 23:44:04</time>
      </trkpt>
      <trkpt lat="42.67658" lon="0.77316">
        <ele>1327</ele>
        <time>2022-05-22 23:44:05</time>
      </trkpt>
      <trkpt lat="42.67658" lon="0.77314">
        <ele>1327.2</ele>
        <time>2022-05-22 23:44:06</time>
      </trkpt>
      <trkpt lat="42.67658" lon="0.77311">
        <ele>1327.4</ele>
        <time>2022-05-22 23:44:07</time>
      </trkpt>
      <trkpt lat="42.67657" lon="0.77308">
        <ele>1327.4</ele>
        <time>2022-05-22 23:44:08</time>
      </trkpt>
      <trkpt lat="42.67656" lon="0.77306">
        <ele>1327.6</ele>
        <time>2022-05-22 23:44:09</time>
      </trkpt>
      <trkpt lat="42.67656" lon="0.77303">
        <ele>1327.6</ele>
        <time>2022-05-22 23:44:10</time>
      </trkpt>
      <trkpt lat="42.67655" lon="0.77301">
        <ele>1327.8</ele>
        <time>2022-05-22 23:44:11</time>
      </trkpt>
      <trkpt lat="42.67655" lon="0.77298">
        <ele>1328</ele>
        <time>2022-05-22 23:44:12</time>
      </trkpt>
      <trkpt lat="42.67654" lon="0.77296">
        <ele>1328</ele>
        <time>2022-05-22 23:44:13</time>
      </trkpt>
      <trkpt lat="42.67654" lon="0.77293">
        <ele>1328.2</ele>
        <time>2022-05-22 23:44:14</time>
      </trkpt>
      <trkpt lat="42.67653" lon="0.7729">
        <ele>1328.4</ele>
        <time>2022-05-22 23:44:15</time>
      </trkpt>
      <trkpt lat="42.67653" lon="0.77288">
        <ele>1328.4</ele>
        <time>2022-05-22 23:44:16</time>
      </trkpt>
      <trkpt lat="42.67653" lon="0.77285">
        <ele>1328.6</ele>
        <time>2022-05-22 23:44:17</time>
      </trkpt>
      <trkpt lat="42.67652" lon="0.77282">
        <ele>1328.8</ele>
        <time>2022-05-22 23:44:18</time>
      </trkpt>
      <trkpt lat="42.67652" lon="0.77279">
        <ele>1328.8</ele>
        <time>2022-05-22 23:44:19</time>
      </trkpt>
      <trkpt lat="42.67651" lon="0.77276">
        <ele>1329</ele>
        <time>2022-05-22 23:44:20</time>
      </trkpt>
      <trkpt lat="42.6765" lon="0.77273">
        <ele>1329</ele>
        <time>2022-05-22 23:44:21</time>
      </trkpt>
      <trkpt lat="42.6765" lon="0.7727">
        <ele>1329.2</ele>
        <time>2022-05-22 23:44:22</time>
      </trkpt>
      <trkpt lat="42.6765" lon="0.77267">
        <ele>1329.4</ele>
        <time>2022-05-22 23:44:23</time>
      </trkpt>
      <trkpt lat="42.67649" lon="0.77264">
        <ele>1329.4</ele>
        <time>2022-05-22 23:44:24</time>
      </trkpt>
      <trkpt lat="42.67648" lon="0.77261">
        <ele>1329.6</ele>
        <time>2022-05-22 23:44:25</time>
      </trkpt>
      <trkpt lat="42.67648" lon="0.77258">
        <ele>1329.8</ele>
        <time>2022-05-22 23:44:26</time>
      </trkpt>
      <trkpt lat="42.67647" lon="0.77255">
        <ele>1329.8</ele>
        <time>2022-05-22 23:44:27</time>
      </trkpt>
      <trkpt lat="42.67647" lon="0.77252">
        <ele>1330</ele>
        <time>2022-05-22 23:44:28</time>
      </trkpt>
      <trkpt lat="42.67646" lon="0.77249">
        <ele>1330.2</ele>
        <time>2022-05-22 23:44:29</time>
      </trkpt>
      <trkpt lat="42.67645" lon="0.77246">
        <ele>1330.4</ele>
        <time>2022-05-22 23:44:30</time>
      </trkpt>
      <trkpt lat="42.67645" lon="0.77242">
        <ele>1330.6</ele>
        <time>2022-05-22 23:44:31</time>
      </trkpt>
      <trkpt lat="42.67644" lon="0.77239">
        <ele>1330.8</ele>
        <time>2022-05-22 23:44:32</time>
      </trkpt>
      <trkpt lat="42.67643" lon="0.77236">
        <ele>1330.8</ele>
        <time>2022-05-22 23:44:33</time>
      </trkpt>
      <trkpt lat="42.67643" lon="0.77234">
        <ele>1331</ele>
        <time>2022-05-22 23:44:34</time>
      </trkpt>
      <trkpt lat="42.67642" lon="0.77231">
        <ele>1331.2</ele>
        <time>2022-05-22 23:44:35</time>
      </trkpt>
      <trkpt lat="42.67642" lon="0.77228">
        <ele>1331.4</ele>
        <time>2022-05-22 23:44:36</time>
      </trkpt>
      <trkpt lat="42.67641" lon="0.77225">
        <ele>1331.6</ele>
        <time>2022-05-22 23:44:37</time>
      </trkpt>
      <trkpt lat="42.6764" lon="0.77222">
        <ele>1331.8</ele>
        <time>2022-05-22 23:44:38</time>
      </trkpt>
      <trkpt lat="42.6764" lon="0.7722">
        <ele>1332</ele>
        <time>2022-05-22 23:44:39</time>
      </trkpt>
      <trkpt lat="42.6764" lon="0.77217">
        <ele>1332</ele>
        <time>2022-05-22 23:44:40</time>
      </trkpt>
      <trkpt lat="42.6764" lon="0.77214">
        <ele>1332.2</ele>
        <time>2022-05-22 23:44:41</time>
      </trkpt>
      <trkpt lat="42.6764" lon="0.77211">
        <ele>1332.4</ele>
        <time>2022-05-22 23:44:42</time>
      </trkpt>
      <trkpt lat="42.6764" lon="0.77209">
        <ele>1332.4</ele>
        <time>2022-05-22 23:44:43</time>
      </trkpt>
      <trkpt lat="42.6764" lon="0.77206">
        <ele>1332.6</ele>
        <time>2022-05-22 23:44:44</time>
      </trkpt>
      <trkpt lat="42.6764" lon="0.77203">
        <ele>1332.8</ele>
        <time>2022-05-22 23:44:45</time>
      </trkpt>
      <trkpt lat="42.6764" lon="0.772">
        <ele>1333</ele>
        <time>2022-05-22 23:44:46</time>
      </trkpt>
      <trkpt lat="42.6764" lon="0.77197">
        <ele>1333.2</ele>
        <time>2022-05-22 23:44:47</time>
      </trkpt>
      <trkpt lat="42.6764" lon="0.77194">
        <ele>1333.2</ele>
        <time>2022-05-22 23:44:48</time>
      </trkpt>
      <trkpt lat="42.6764" lon="0.77192">
        <ele>1333.4</ele>
        <time>2022-05-22 23:44:49</time>
      </trkpt>
      <trkpt lat="42.6764" lon="0.77189">
        <ele>1333.6</ele>
        <time>2022-05-22 23:44:50</time>
      </trkpt>
      <trkpt lat="42.6764" lon="0.77186">
        <ele>1333.6</ele>
        <time>2022-05-22 23:44:51</time>
      </trkpt>
      <trkpt lat="42.67641" lon="0.77183">
        <ele>1333.8</ele>
        <time>2022-05-22 23:44:52</time>
      </trkpt>
      <trkpt lat="42.67641" lon="0.7718">
        <ele>1334</ele>
        <time>2022-05-22 23:44:53</time>
      </trkpt>
      <trkpt lat="42.67641" lon="0.77178">
        <ele>1334.2</ele>
        <time>2022-05-22 23:44:54</time>
      </trkpt>
      <trkpt lat="42.67641" lon="0.77175">
        <ele>1334.2</ele>
        <time>2022-05-22 23:44:55</time>
      </trkpt>
      <trkpt lat="42.67641" lon="0.77172">
        <ele>1334.4</ele>
        <time>2022-05-22 23:44:56</time>
      </trkpt>
      <trkpt lat="42.67641" lon="0.77169">
        <ele>1334.6</ele>
        <time>2022-05-22 23:44:57</time>
      </trkpt>
      <trkpt lat="42.67642" lon="0.77166">
        <ele>1334.6</ele>
        <time>2022-05-22 23:44:58</time>
      </trkpt>
      <trkpt lat="42.67642" lon="0.77163">
        <ele>1334.8</ele>
        <time>2022-05-22 23:44:59</time>
      </trkpt>
      <trkpt lat="42.67642" lon="0.77159">
        <ele>1335</ele>
        <time>2022-05-22 23:45:00</time>
      </trkpt>
      <trkpt lat="42.67642" lon="0.77156">
        <ele>1335.2</ele>
        <time>2022-05-22 23:45:01</time>
      </trkpt>
      <trkpt lat="42.67643" lon="0.77153">
        <ele>1335.4</ele>
        <time>2022-05-22 23:45:02</time>
      </trkpt>
      <trkpt lat="42.67643" lon="0.7715">
        <ele>1335.4</ele>
        <time>2022-05-22 23:45:03</time>
      </trkpt>
      <trkpt lat="42.67643" lon="0.77146">
        <ele>1335.6</ele>
        <time>2022-05-22 23:45:04</time>
      </trkpt>
      <trkpt lat="42.67643" lon="0.77143">
        <ele>1335.8</ele>
        <time>2022-05-22 23:45:05</time>
      </trkpt>
      <trkpt lat="42.67642" lon="0.7714">
        <ele>1336</ele>
        <time>2022-05-22 23:45:06</time>
      </trkpt>
      <trkpt lat="42.67642" lon="0.77137">
        <ele>1336.2</ele>
        <time>2022-05-22 23:45:07</time>
      </trkpt>
      <trkpt lat="42.67642" lon="0.77135">
        <ele>1336.4</ele>
        <time>2022-05-22 23:45:08</time>
      </trkpt>
      <trkpt lat="42.67642" lon="0.77132">
        <ele>1336.4</ele>
        <time>2022-05-22 23:45:09</time>
      </trkpt>
      <trkpt lat="42.67642" lon="0.77129">
        <ele>1336.6</ele>
        <time>2022-05-22 23:45:10</time>
      </trkpt>
      <trkpt lat="42.67642" lon="0.77126">
        <ele>1336.8</ele>
        <time>2022-05-22 23:45:11</time>
      </trkpt>
      <trkpt lat="42.67642" lon="0.77124">
        <ele>1337</ele>
        <time>2022-05-22 23:45:12</time>
      </trkpt>
      <trkpt lat="42.67642" lon="0.77122">
        <ele>1337</ele>
        <time>2022-05-22 23:45:13</time>
      </trkpt>
      <trkpt lat="42.67641" lon="0.7712">
        <ele>1337.2</ele>
        <time>2022-05-22 23:45:14</time>
      </trkpt>
      <trkpt lat="42.67641" lon="0.77117">
        <ele>1337.4</ele>
        <time>2022-05-22 23:45:15</time>
      </trkpt>
      <trkpt lat="42.67641" lon="0.77114">
        <ele>1337.6</ele>
        <time>2022-05-22 23:45:16</time>
      </trkpt>
      <trkpt lat="42.67641" lon="0.77111">
        <ele>1337.6</ele>
        <time>2022-05-22 23:45:17</time>
      </trkpt>
      <trkpt lat="42.6764" lon="0.77108">
        <ele>1337.8</ele>
        <time>2022-05-22 23:45:18</time>
      </trkpt>
      <trkpt lat="42.6764" lon="0.77105">
        <ele>1338</ele>
        <time>2022-05-22 23:45:19</time>
      </trkpt>
      <trkpt lat="42.6764" lon="0.77102">
        <ele>1338.2</ele>
        <time>2022-05-22 23:45:20</time>
      </trkpt>
      <trkpt lat="42.6764" lon="0.77099">
        <ele>1338.2</ele>
        <time>2022-05-22 23:45:21</time>
      </trkpt>
      <trkpt lat="42.6764" lon="0.77096">
        <ele>1338.4</ele>
        <time>2022-05-22 23:45:22</time>
      </trkpt>
      <trkpt lat="42.6764" lon="0.77093">
        <ele>1338.6</ele>
        <time>2022-05-22 23:45:23</time>
      </trkpt>
      <trkpt lat="42.67639" lon="0.7709">
        <ele>1338.6</ele>
        <time>2022-05-22 23:45:24</time>
      </trkpt>
      <trkpt lat="42.67639" lon="0.77087">
        <ele>1338.8</ele>
        <time>2022-05-22 23:45:25</time>
      </trkpt>
      <trkpt lat="42.67639" lon="0.77084">
        <ele>1339</ele>
        <time>2022-05-22 23:45:26</time>
      </trkpt>
      <trkpt lat="42.67639" lon="0.77081">
        <ele>1339</ele>
        <time>2022-05-22 23:45:27</time>
      </trkpt>
      <trkpt lat="42.67639" lon="0.77078">
        <ele>1339.2</ele>
        <time>2022-05-22 23:45:28</time>
      </trkpt>
      <trkpt lat="42.67639" lon="0.77074">
        <ele>1339.4</ele>
        <time>2022-05-22 23:45:29</time>
      </trkpt>
      <trkpt lat="42.6764" lon="0.77071">
        <ele>1339.4</ele>
        <time>2022-05-22 23:45:30</time>
      </trkpt>
      <trkpt lat="42.6764" lon="0.77068">
        <ele>1339.6</ele>
        <time>2022-05-22 23:45:31</time>
      </trkpt>
      <trkpt lat="42.67639" lon="0.77064">
        <ele>1339.8</ele>
        <time>2022-05-22 23:45:32</time>
      </trkpt>
      <trkpt lat="42.67639" lon="0.77061">
        <ele>1339.8</ele>
        <time>2022-05-22 23:45:33</time>
      </trkpt>
      <trkpt lat="42.67639" lon="0.77057">
        <ele>1340</ele>
        <time>2022-05-22 23:45:34</time>
      </trkpt>
      <trkpt lat="42.67639" lon="0.77054">
        <ele>1340</ele>
        <time>2022-05-22 23:45:35</time>
      </trkpt>
      <trkpt lat="42.67638" lon="0.77051">
        <ele>1340.2</ele>
        <time>2022-05-22 23:45:36</time>
      </trkpt>
      <trkpt lat="42.67638" lon="0.77048">
        <ele>1340.4</ele>
        <time>2022-05-22 23:45:37</time>
      </trkpt>
      <trkpt lat="42.67638" lon="0.77045">
        <ele>1340.4</ele>
        <time>2022-05-22 23:45:38</time>
      </trkpt>
      <trkpt lat="42.67637" lon="0.77042">
        <ele>1340.6</ele>
        <time>2022-05-22 23:45:39</time>
      </trkpt>
      <trkpt lat="42.67637" lon="0.77039">
        <ele>1340.6</ele>
        <time>2022-05-22 23:45:40</time>
      </trkpt>
      <trkpt lat="42.67636" lon="0.77036">
        <ele>1340.8</ele>
        <time>2022-05-22 23:45:41</time>
      </trkpt>
      <trkpt lat="42.67636" lon="0.77034">
        <ele>1341</ele>
        <time>2022-05-22 23:45:42</time>
      </trkpt>
      <trkpt lat="42.67635" lon="0.77031">
        <ele>1341</ele>
        <time>2022-05-22 23:45:43</time>
      </trkpt>
      <trkpt lat="42.67634" lon="0.77029">
        <ele>1341.2</ele>
        <time>2022-05-22 23:45:44</time>
      </trkpt>
      <trkpt lat="42.67634" lon="0.77026">
        <ele>1341.4</ele>
        <time>2022-05-22 23:45:45</time>
      </trkpt>
      <trkpt lat="42.67633" lon="0.77023">
        <ele>1341.4</ele>
        <time>2022-05-22 23:45:46</time>
      </trkpt>
      <trkpt lat="42.67633" lon="0.77021">
        <ele>1341.6</ele>
        <time>2022-05-22 23:45:47</time>
      </trkpt>
      <trkpt lat="42.67632" lon="0.77018">
        <ele>1341.6</ele>
        <time>2022-05-22 23:45:48</time>
      </trkpt>
      <trkpt lat="42.67632" lon="0.77015">
        <ele>1341.8</ele>
        <time>2022-05-22 23:45:49</time>
      </trkpt>
      <trkpt lat="42.67632" lon="0.77012">
        <ele>1341.8</ele>
        <time>2022-05-22 23:45:50</time>
      </trkpt>
      <trkpt lat="42.67632" lon="0.77009">
        <ele>1341.8</ele>
        <time>2022-05-22 23:45:51</time>
      </trkpt>
      <trkpt lat="42.67633" lon="0.77005">
        <ele>1342</ele>
        <time>2022-05-22 23:45:52</time>
      </trkpt>
      <trkpt lat="42.67632" lon="0.76997">
        <ele>1342.2</ele>
        <time>2022-05-22 23:45:53</time>
      </trkpt>
      <trkpt lat="42.67631" lon="0.7699">
        <ele>1342.2</ele>
        <time>2022-05-22 23:45:54</time>
      </trkpt>
      <trkpt lat="42.6763" lon="0.76983">
        <ele>1342.4</ele>
        <time>2022-05-22 23:45:55</time>
      </trkpt>
      <trkpt lat="42.67628" lon="0.76976">
        <ele>1342.6</ele>
        <time>2022-05-22 23:45:56</time>
      </trkpt>
      <trkpt lat="42.67627" lon="0.76969">
        <ele>1342.6</ele>
        <time>2022-05-22 23:45:57</time>
      </trkpt>
      <trkpt lat="42.67626" lon="0.76964">
        <ele>1342.8</ele>
        <time>2022-05-22 23:45:58</time>
      </trkpt>
      <trkpt lat="42.67625" lon="0.76957">
        <ele>1342.8</ele>
        <time>2022-05-22 23:45:59</time>
      </trkpt>
      <trkpt lat="42.67625" lon="0.76951">
        <ele>1343</ele>
        <time>2022-05-22 23:46:00</time>
      </trkpt>
      <trkpt lat="42.67624" lon="0.76946">
        <ele>1343</ele>
        <time>2022-05-22 23:46:01</time>
      </trkpt>
      <trkpt lat="42.67622" lon="0.76941">
        <ele>1343.2</ele>
        <time>2022-05-22 23:46:02</time>
      </trkpt>
      <trkpt lat="42.6762" lon="0.76936">
        <ele>1343.2</ele>
        <time>2022-05-22 23:46:03</time>
      </trkpt>
      <trkpt lat="42.67617" lon="0.76931">
        <ele>1343.2</ele>
        <time>2022-05-22 23:46:04</time>
      </trkpt>
      <trkpt lat="42.67614" lon="0.76927">
        <ele>1343.2</ele>
        <time>2022-05-22 23:46:05</time>
      </trkpt>
      <trkpt lat="42.67611" lon="0.76922">
        <ele>1343.4</ele>
        <time>2022-05-22 23:46:06</time>
      </trkpt>
      <trkpt lat="42.67608" lon="0.76918">
        <ele>1343.4</ele>
        <time>2022-05-22 23:46:07</time>
      </trkpt>
      <trkpt lat="42.67605" lon="0.76916">
        <ele>1343.4</ele>
        <time>2022-05-22 23:46:08</time>
      </trkpt>
      <trkpt lat="42.67602" lon="0.76913">
        <ele>1343.6</ele>
        <time>2022-05-22 23:46:09</time>
      </trkpt>
      <trkpt lat="42.67599" lon="0.76911">
        <ele>1343.6</ele>
        <time>2022-05-22 23:46:10</time>
      </trkpt>
      <trkpt lat="42.67596" lon="0.76909">
        <ele>1343.6</ele>
        <time>2022-05-22 23:46:11</time>
      </trkpt>
      <trkpt lat="42.67592" lon="0.76907">
        <ele>1343.6</ele>
        <time>2022-05-22 23:46:12</time>
      </trkpt>
      <trkpt lat="42.67588" lon="0.76906">
        <ele>1343.6</ele>
        <time>2022-05-22 23:46:13</time>
      </trkpt>
      <trkpt lat="42.67584" lon="0.76906">
        <ele>1343.8</ele>
        <time>2022-05-22 23:46:14</time>
      </trkpt>
      <trkpt lat="42.67581" lon="0.76906">
        <ele>1343.8</ele>
        <time>2022-05-22 23:46:15</time>
      </trkpt>
      <trkpt lat="42.67577" lon="0.76906">
        <ele>1343.8</ele>
        <time>2022-05-22 23:46:16</time>
      </trkpt>
      <trkpt lat="42.67573" lon="0.76906">
        <ele>1343.8</ele>
        <time>2022-05-22 23:46:17</time>
      </trkpt>
      <trkpt lat="42.67569" lon="0.76907">
        <ele>1344</ele>
        <time>2022-05-22 23:46:18</time>
      </trkpt>
      <trkpt lat="42.67566" lon="0.76907">
        <ele>1344</ele>
        <time>2022-05-22 23:46:19</time>
      </trkpt>
      <trkpt lat="42.67562" lon="0.76909">
        <ele>1344</ele>
        <time>2022-05-22 23:46:20</time>
      </trkpt>
      <trkpt lat="42.67559" lon="0.76911">
        <ele>1344</ele>
        <time>2022-05-22 23:46:21</time>
      </trkpt>
      <trkpt lat="42.67556" lon="0.76913">
        <ele>1344.2</ele>
        <time>2022-05-22 23:46:22</time>
      </trkpt>
      <trkpt lat="42.67553" lon="0.76916">
        <ele>1344.2</ele>
        <time>2022-05-22 23:46:23</time>
      </trkpt>
      <trkpt lat="42.6755" lon="0.7692">
        <ele>1344.2</ele>
        <time>2022-05-22 23:46:24</time>
      </trkpt>
      <trkpt lat="42.67547" lon="0.76923">
        <ele>1344.2</ele>
        <time>2022-05-22 23:46:25</time>
      </trkpt>
      <trkpt lat="42.67544" lon="0.76927">
        <ele>1344.4</ele>
        <time>2022-05-22 23:46:26</time>
      </trkpt>
      <trkpt lat="42.67542" lon="0.7693">
        <ele>1344.4</ele>
        <time>2022-05-22 23:46:27</time>
      </trkpt>
      <trkpt lat="42.67539" lon="0.76934">
        <ele>1344.4</ele>
        <time>2022-05-22 23:46:28</time>
      </trkpt>
      <trkpt lat="42.67537" lon="0.76938">
        <ele>1344.4</ele>
        <time>2022-05-22 23:46:29</time>
      </trkpt>
      <trkpt lat="42.67535" lon="0.76942">
        <ele>1344.6</ele>
        <time>2022-05-22 23:46:30</time>
      </trkpt>
      <trkpt lat="42.67534" lon="0.76946">
        <ele>1344.6</ele>
        <time>2022-05-22 23:46:31</time>
      </trkpt>
      <trkpt lat="42.67533" lon="0.7695">
        <ele>1344.8</ele>
        <time>2022-05-22 23:46:32</time>
      </trkpt>
      <trkpt lat="42.67531" lon="0.76954">
        <ele>1344.8</ele>
        <time>2022-05-22 23:46:33</time>
      </trkpt>
      <trkpt lat="42.6753" lon="0.76957">
        <ele>1345</ele>
        <time>2022-05-22 23:46:34</time>
      </trkpt>
      <trkpt lat="42.67529" lon="0.7696">
        <ele>1345</ele>
        <time>2022-05-22 23:46:35</time>
      </trkpt>
      <trkpt lat="42.67528" lon="0.76963">
        <ele>1345.2</ele>
        <time>2022-05-22 23:46:36</time>
      </trkpt>
      <trkpt lat="42.67527" lon="0.76966">
        <ele>1345.2</ele>
        <time>2022-05-22 23:46:37</time>
      </trkpt>
      <trkpt lat="42.67527" lon="0.76983">
        <ele>1345.8</ele>
        <time>2022-05-22 23:50:45</time>
      </trkpt>
      <trkpt lat="42.67527" lon="0.76986">
        <ele>1345.8</ele>
        <time>2022-05-22 23:50:46</time>
      </trkpt>
      <trkpt lat="42.67527" lon="0.76989">
        <ele>1345.8</ele>
        <time>2022-05-22 23:50:47</time>
      </trkpt>
      <trkpt lat="42.67527" lon="0.76992">
        <ele>1345.8</ele>
        <time>2022-05-22 23:50:48</time>
      </trkpt>
      <trkpt lat="42.67527" lon="0.76996">
        <ele>1345.8</ele>
        <time>2022-05-22 23:50:49</time>
      </trkpt>
      <trkpt lat="42.67527" lon="0.76999">
        <ele>1345.8</ele>
        <time>2022-05-22 23:50:50</time>
      </trkpt>
      <trkpt lat="42.67527" lon="0.77003">
        <ele>1345.8</ele>
        <time>2022-05-22 23:50:51</time>
      </trkpt>
      <trkpt lat="42.67527" lon="0.77007">
        <ele>1345.8</ele>
        <time>2022-05-22 23:50:52</time>
      </trkpt>
      <trkpt lat="42.67527" lon="0.77011">
        <ele>1346</ele>
        <time>2022-05-22 23:50:53</time>
      </trkpt>
      <trkpt lat="42.67526" lon="0.77014">
        <ele>1346</ele>
        <time>2022-05-22 23:50:54</time>
      </trkpt>
      <trkpt lat="42.67526" lon="0.77017">
        <ele>1346</ele>
        <time>2022-05-22 23:50:55</time>
      </trkpt>
      <trkpt lat="42.67526" lon="0.77021">
        <ele>1346</ele>
        <time>2022-05-22 23:50:56</time>
      </trkpt>
      <trkpt lat="42.67526" lon="0.77025">
        <ele>1346</ele>
        <time>2022-05-22 23:50:57</time>
      </trkpt>
      <trkpt lat="42.67525" lon="0.77029">
        <ele>1346.2</ele>
        <time>2022-05-22 23:50:58</time>
      </trkpt>
      <trkpt lat="42.67525" lon="0.77033">
        <ele>1346.2</ele>
        <time>2022-05-22 23:50:59</time>
      </trkpt>
      <trkpt lat="42.67525" lon="0.77038">
        <ele>1346.2</ele>
        <time>2022-05-22 23:51:00</time>
      </trkpt>
      <trkpt lat="42.67525" lon="0.77042">
        <ele>1346.2</ele>
        <time>2022-05-22 23:51:01</time>
      </trkpt>
      <trkpt lat="42.67524" lon="0.77047">
        <ele>1346.4</ele>
        <time>2022-05-22 23:51:02</time>
      </trkpt>
      <trkpt lat="42.67524" lon="0.77051">
        <ele>1346.4</ele>
        <time>2022-05-22 23:51:03</time>
      </trkpt>
      <trkpt lat="42.67523" lon="0.77056">
        <ele>1346.6</ele>
        <time>2022-05-22 23:51:04</time>
      </trkpt>
      <trkpt lat="42.67523" lon="0.7706">
        <ele>1346.6</ele>
        <time>2022-05-22 23:51:05</time>
      </trkpt>
      <trkpt lat="42.67523" lon="0.77065">
        <ele>1346.8</ele>
        <time>2022-05-22 23:51:06</time>
      </trkpt>
      <trkpt lat="42.67522" lon="0.77069">
        <ele>1347</ele>
        <time>2022-05-22 23:51:07</time>
      </trkpt>
      <trkpt lat="42.67521" lon="0.77073">
        <ele>1347.2</ele>
        <time>2022-05-22 23:51:08</time>
      </trkpt>
      <trkpt lat="42.6752" lon="0.77077">
        <ele>1347.4</ele>
        <time>2022-05-22 23:51:09</time>
      </trkpt>
      <trkpt lat="42.6752" lon="0.77081">
        <ele>1347.4</ele>
        <time>2022-05-22 23:51:10</time>
      </trkpt>
      <trkpt lat="42.67519" lon="0.77084">
        <ele>1347.6</ele>
        <time>2022-05-22 23:51:11</time>
      </trkpt>
      <trkpt lat="42.67518" lon="0.77087">
        <ele>1347.8</ele>
        <time>2022-05-22 23:51:12</time>
      </trkpt>
      <trkpt lat="42.67517" lon="0.77091">
        <ele>1348</ele>
        <time>2022-05-22 23:51:13</time>
      </trkpt>
      <trkpt lat="42.67516" lon="0.77094">
        <ele>1348.2</ele>
        <time>2022-05-22 23:51:14</time>
      </trkpt>
      <trkpt lat="42.67515" lon="0.77098">
        <ele>1348.4</ele>
        <time>2022-05-22 23:51:15</time>
      </trkpt>
      <trkpt lat="42.67514" lon="0.77101">
        <ele>1348.6</ele>
        <time>2022-05-22 23:51:16</time>
      </trkpt>
      <trkpt lat="42.67513" lon="0.77104">
        <ele>1348.8</ele>
        <time>2022-05-22 23:51:17</time>
      </trkpt>
      <trkpt lat="42.67512" lon="0.77107">
        <ele>1349</ele>
        <time>2022-05-22 23:51:18</time>
      </trkpt>
      <trkpt lat="42.67511" lon="0.7711">
        <ele>1349.4</ele>
        <time>2022-05-22 23:51:19</time>
      </trkpt>
      <trkpt lat="42.6751" lon="0.77113">
        <ele>1349.6</ele>
        <time>2022-05-22 23:51:20</time>
      </trkpt>
      <trkpt lat="42.67509" lon="0.77116">
        <ele>1349.8</ele>
        <time>2022-05-22 23:51:21</time>
      </trkpt>
      <trkpt lat="42.67508" lon="0.7712">
        <ele>1350</ele>
        <time>2022-05-22 23:51:22</time>
      </trkpt>
      <trkpt lat="42.67507" lon="0.77123">
        <ele>1350.2</ele>
        <time>2022-05-22 23:51:23</time>
      </trkpt>
      <trkpt lat="42.67506" lon="0.77126">
        <ele>1350.4</ele>
        <time>2022-05-22 23:51:24</time>
      </trkpt>
      <trkpt lat="42.67505" lon="0.77129">
        <ele>1350.6</ele>
        <time>2022-05-22 23:51:25</time>
      </trkpt>
      <trkpt lat="42.67504" lon="0.77132">
        <ele>1350.8</ele>
        <time>2022-05-22 23:51:26</time>
      </trkpt>
      <trkpt lat="42.67502" lon="0.77136">
        <ele>1351</ele>
        <time>2022-05-22 23:51:27</time>
      </trkpt>
      <trkpt lat="42.67501" lon="0.7714">
        <ele>1351.2</ele>
        <time>2022-05-22 23:51:28</time>
      </trkpt>
      <trkpt lat="42.675" lon="0.77143">
        <ele>1351.6</ele>
        <time>2022-05-22 23:51:29</time>
      </trkpt>
      <trkpt lat="42.67499" lon="0.77146">
        <ele>1351.8</ele>
        <time>2022-05-22 23:51:30</time>
      </trkpt>
      <trkpt lat="42.67498" lon="0.77149">
        <ele>1352</ele>
        <time>2022-05-22 23:51:31</time>
      </trkpt>
      <trkpt lat="42.67496" lon="0.77152">
        <ele>1352.2</ele>
        <time>2022-05-22 23:51:32</time>
      </trkpt>
      <trkpt lat="42.67496" lon="0.77155">
        <ele>1352.4</ele>
        <time>2022-05-22 23:51:33</time>
      </trkpt>
      <trkpt lat="42.67494" lon="0.77158">
        <ele>1352.4</ele>
        <time>2022-05-22 23:51:34</time>
      </trkpt>
      <trkpt lat="42.67493" lon="0.77161">
        <ele>1352.6</ele>
        <time>2022-05-22 23:51:35</time>
      </trkpt>
      <trkpt lat="42.67492" lon="0.77164">
        <ele>1352.8</ele>
        <time>2022-05-22 23:51:36</time>
      </trkpt>
      <trkpt lat="42.67491" lon="0.77167">
        <ele>1353</ele>
        <time>2022-05-22 23:51:37</time>
      </trkpt>
      <trkpt lat="42.6749" lon="0.7717">
        <ele>1353.2</ele>
        <time>2022-05-22 23:51:38</time>
      </trkpt>
      <trkpt lat="42.67489" lon="0.77172">
        <ele>1353.2</ele>
        <time>2022-05-22 23:51:39</time>
      </trkpt>
      <trkpt lat="42.67488" lon="0.77175">
        <ele>1353.4</ele>
        <time>2022-05-22 23:51:40</time>
      </trkpt>
      <trkpt lat="42.67486" lon="0.77178">
        <ele>1353.6</ele>
        <time>2022-05-22 23:51:41</time>
      </trkpt>
      <trkpt lat="42.67485" lon="0.7718">
        <ele>1353.8</ele>
        <time>2022-05-22 23:51:42</time>
      </trkpt>
      <trkpt lat="42.67484" lon="0.77183">
        <ele>1354</ele>
        <time>2022-05-22 23:51:43</time>
      </trkpt>
      <trkpt lat="42.67483" lon="0.77186">
        <ele>1354</ele>
        <time>2022-05-22 23:51:44</time>
      </trkpt>
      <trkpt lat="42.67482" lon="0.77188">
        <ele>1354.2</ele>
        <time>2022-05-22 23:51:45</time>
      </trkpt>
      <trkpt lat="42.6748" lon="0.77191">
        <ele>1354.4</ele>
        <time>2022-05-22 23:51:46</time>
      </trkpt>
      <trkpt lat="42.6748" lon="0.77194">
        <ele>1354.6</ele>
        <time>2022-05-22 23:51:47</time>
      </trkpt>
      <trkpt lat="42.67478" lon="0.77196">
        <ele>1354.6</ele>
        <time>2022-05-22 23:51:48</time>
      </trkpt>
      <trkpt lat="42.67477" lon="0.77199">
        <ele>1354.8</ele>
        <time>2022-05-22 23:51:49</time>
      </trkpt>
      <trkpt lat="42.67476" lon="0.77201">
        <ele>1354.8</ele>
        <time>2022-05-22 23:51:50</time>
      </trkpt>
      <trkpt lat="42.67475" lon="0.77204">
        <ele>1355</ele>
        <time>2022-05-22 23:51:51</time>
      </trkpt>
      <trkpt lat="42.67474" lon="0.77207">
        <ele>1355.2</ele>
        <time>2022-05-22 23:51:52</time>
      </trkpt>
      <trkpt lat="42.67473" lon="0.7721">
        <ele>1355.4</ele>
        <time>2022-05-22 23:51:53</time>
      </trkpt>
      <trkpt lat="42.67472" lon="0.77213">
        <ele>1355.4</ele>
        <time>2022-05-22 23:51:54</time>
      </trkpt>
      <trkpt lat="42.67471" lon="0.77216">
        <ele>1355.6</ele>
        <time>2022-05-22 23:51:55</time>
      </trkpt>
      <trkpt lat="42.6747" lon="0.77219">
        <ele>1355.8</ele>
        <time>2022-05-22 23:51:56</time>
      </trkpt>
      <trkpt lat="42.67469" lon="0.77222">
        <ele>1355.8</ele>
        <time>2022-05-22 23:51:57</time>
      </trkpt>
      <trkpt lat="42.67469" lon="0.77225">
        <ele>1356</ele>
        <time>2022-05-22 23:51:58</time>
      </trkpt>
      <trkpt lat="42.67468" lon="0.77228">
        <ele>1356.2</ele>
        <time>2022-05-22 23:51:59</time>
      </trkpt>
      <trkpt lat="42.67468" lon="0.77231">
        <ele>1356.4</ele>
        <time>2022-05-22 23:52:00</time>
      </trkpt>
      <trkpt lat="42.67467" lon="0.77235">
        <ele>1356.4</ele>
        <time>2022-05-22 23:52:01</time>
      </trkpt>
      <trkpt lat="42.67466" lon="0.77238">
        <ele>1356.6</ele>
        <time>2022-05-22 23:52:02</time>
      </trkpt>
      <trkpt lat="42.67466" lon="0.77241">
        <ele>1356.8</ele>
        <time>2022-05-22 23:52:03</time>
      </trkpt>
      <trkpt lat="42.67466" lon="0.77244">
        <ele>1357</ele>
        <time>2022-05-22 23:52:04</time>
      </trkpt>
      <trkpt lat="42.67465" lon="0.77246">
        <ele>1357</ele>
        <time>2022-05-22 23:52:05</time>
      </trkpt>
      <trkpt lat="42.67465" lon="0.7725">
        <ele>1357.2</ele>
        <time>2022-05-22 23:52:06</time>
      </trkpt>
      <trkpt lat="42.67465" lon="0.77253">
        <ele>1357.4</ele>
        <time>2022-05-22 23:52:07</time>
      </trkpt>
      <trkpt lat="42.67465" lon="0.77256">
        <ele>1357.4</ele>
        <time>2022-05-22 23:52:08</time>
      </trkpt>
      <trkpt lat="42.67465" lon="0.77259">
        <ele>1357.6</ele>
        <time>2022-05-22 23:52:09</time>
      </trkpt>
      <trkpt lat="42.67465" lon="0.77262">
        <ele>1357.6</ele>
        <time>2022-05-22 23:52:10</time>
      </trkpt>
      <trkpt lat="42.67464" lon="0.77265">
        <ele>1357.8</ele>
        <time>2022-05-22 23:52:11</time>
      </trkpt>
      <trkpt lat="42.67464" lon="0.77268">
        <ele>1358</ele>
        <time>2022-05-22 23:52:12</time>
      </trkpt>
      <trkpt lat="42.67464" lon="0.77271">
        <ele>1358</ele>
        <time>2022-05-22 23:52:13</time>
      </trkpt>
      <trkpt lat="42.67464" lon="0.77274">
        <ele>1358.2</ele>
        <time>2022-05-22 23:52:14</time>
      </trkpt>
      <trkpt lat="42.67463" lon="0.77277">
        <ele>1358.2</ele>
        <time>2022-05-22 23:52:15</time>
      </trkpt>
      <trkpt lat="42.67463" lon="0.7728">
        <ele>1358.4</ele>
        <time>2022-05-22 23:52:16</time>
      </trkpt>
      <trkpt lat="42.67463" lon="0.77283">
        <ele>1358.6</ele>
        <time>2022-05-22 23:52:17</time>
      </trkpt>
      <trkpt lat="42.67463" lon="0.77286">
        <ele>1358.6</ele>
        <time>2022-05-22 23:52:18</time>
      </trkpt>
      <trkpt lat="42.67462" lon="0.77289">
        <ele>1358.8</ele>
        <time>2022-05-22 23:52:19</time>
      </trkpt>
      <trkpt lat="42.67462" lon="0.77292">
        <ele>1359</ele>
        <time>2022-05-22 23:52:20</time>
      </trkpt>
      <trkpt lat="42.67462" lon="0.77295">
        <ele>1359</ele>
        <time>2022-05-22 23:52:21</time>
      </trkpt>
      <trkpt lat="42.67461" lon="0.77298">
        <ele>1359.2</ele>
        <time>2022-05-22 23:52:22</time>
      </trkpt>
      <trkpt lat="42.67461" lon="0.77301">
        <ele>1359.2</ele>
        <time>2022-05-22 23:52:23</time>
      </trkpt>
      <trkpt lat="42.67461" lon="0.77304">
        <ele>1359.4</ele>
        <time>2022-05-22 23:52:24</time>
      </trkpt>
      <trkpt lat="42.67461" lon="0.77307">
        <ele>1359.6</ele>
        <time>2022-05-22 23:52:25</time>
      </trkpt>
      <trkpt lat="42.67461" lon="0.7731">
        <ele>1359.6</ele>
        <time>2022-05-22 23:52:26</time>
      </trkpt>
      <trkpt lat="42.67461" lon="0.77313">
        <ele>1359.8</ele>
        <time>2022-05-22 23:52:27</time>
      </trkpt>
      <trkpt lat="42.67461" lon="0.77316">
        <ele>1360</ele>
        <time>2022-05-22 23:52:28</time>
      </trkpt>
      <trkpt lat="42.67461" lon="0.77319">
        <ele>1360</ele>
        <time>2022-05-22 23:52:29</time>
      </trkpt>
      <trkpt lat="42.67461" lon="0.77322">
        <ele>1360.2</ele>
        <time>2022-05-22 23:52:30</time>
      </trkpt>
      <trkpt lat="42.67461" lon="0.77325">
        <ele>1360.2</ele>
        <time>2022-05-22 23:52:31</time>
      </trkpt>
      <trkpt lat="42.67461" lon="0.77328">
        <ele>1360.4</ele>
        <time>2022-05-22 23:52:32</time>
      </trkpt>
      <trkpt lat="42.6746" lon="0.77331">
        <ele>1360.6</ele>
        <time>2022-05-22 23:52:33</time>
      </trkpt>
      <trkpt lat="42.6746" lon="0.77335">
        <ele>1360.6</ele>
        <time>2022-05-22 23:52:34</time>
      </trkpt>
      <trkpt lat="42.6746" lon="0.77338">
        <ele>1360.8</ele>
        <time>2022-05-22 23:52:35</time>
      </trkpt>
      <trkpt lat="42.6746" lon="0.77341">
        <ele>1360.8</ele>
        <time>2022-05-22 23:52:36</time>
      </trkpt>
      <trkpt lat="42.6746" lon="0.77344">
        <ele>1361</ele>
        <time>2022-05-22 23:52:37</time>
      </trkpt>
      <trkpt lat="42.6746" lon="0.77347">
        <ele>1361.2</ele>
        <time>2022-05-22 23:52:38</time>
      </trkpt>
      <trkpt lat="42.67459" lon="0.77351">
        <ele>1361.4</ele>
        <time>2022-05-22 23:52:39</time>
      </trkpt>
      <trkpt lat="42.67459" lon="0.77354">
        <ele>1361.4</ele>
        <time>2022-05-22 23:52:40</time>
      </trkpt>
      <trkpt lat="42.67459" lon="0.77357">
        <ele>1361.6</ele>
        <time>2022-05-22 23:52:41</time>
      </trkpt>
      <trkpt lat="42.67459" lon="0.7736">
        <ele>1361.8</ele>
        <time>2022-05-22 23:52:42</time>
      </trkpt>
      <trkpt lat="42.67459" lon="0.77363">
        <ele>1361.8</ele>
        <time>2022-05-22 23:52:43</time>
      </trkpt>
      <trkpt lat="42.67458" lon="0.77366">
        <ele>1362</ele>
        <time>2022-05-22 23:52:44</time>
      </trkpt>
      <trkpt lat="42.67458" lon="0.77369">
        <ele>1362.2</ele>
        <time>2022-05-22 23:52:45</time>
      </trkpt>
      <trkpt lat="42.67458" lon="0.77372">
        <ele>1362.2</ele>
        <time>2022-05-22 23:52:46</time>
      </trkpt>
      <trkpt lat="42.67457" lon="0.77375">
        <ele>1362.4</ele>
        <time>2022-05-22 23:52:47</time>
      </trkpt>
      <trkpt lat="42.67457" lon="0.77378">
        <ele>1362.6</ele>
        <time>2022-05-22 23:52:48</time>
      </trkpt>
      <trkpt lat="42.67456" lon="0.77381">
        <ele>1362.8</ele>
        <time>2022-05-22 23:52:49</time>
      </trkpt>
      <trkpt lat="42.67455" lon="0.77385">
        <ele>1362.8</ele>
        <time>2022-05-22 23:52:50</time>
      </trkpt>
      <trkpt lat="42.67455" lon="0.77387">
        <ele>1363</ele>
        <time>2022-05-22 23:52:51</time>
      </trkpt>
      <trkpt lat="42.67454" lon="0.77391">
        <ele>1363.2</ele>
        <time>2022-05-22 23:52:52</time>
      </trkpt>
      <trkpt lat="42.67454" lon="0.77394">
        <ele>1363.2</ele>
        <time>2022-05-22 23:52:53</time>
      </trkpt>
      <trkpt lat="42.67453" lon="0.77397">
        <ele>1363.4</ele>
        <time>2022-05-22 23:52:54</time>
      </trkpt>
      <trkpt lat="42.67453" lon="0.774">
        <ele>1363.6</ele>
        <time>2022-05-22 23:52:55</time>
      </trkpt>
      <trkpt lat="42.67452" lon="0.77402">
        <ele>1363.8</ele>
        <time>2022-05-22 23:52:56</time>
      </trkpt>
      <trkpt lat="42.67452" lon="0.77405">
        <ele>1364</ele>
        <time>2022-05-22 23:52:57</time>
      </trkpt>
      <trkpt lat="42.67451" lon="0.77407">
        <ele>1364</ele>
        <time>2022-05-22 23:52:58</time>
      </trkpt>
      <trkpt lat="42.67451" lon="0.7741">
        <ele>1364.2</ele>
        <time>2022-05-22 23:52:59</time>
      </trkpt>
      <trkpt lat="42.67449" lon="0.77412">
        <ele>1364.4</ele>
        <time>2022-05-22 23:53:00</time>
      </trkpt>
      <trkpt lat="42.67448" lon="0.77415">
        <ele>1364.6</ele>
        <time>2022-05-22 23:53:01</time>
      </trkpt>
      <trkpt lat="42.67447" lon="0.77417">
        <ele>1364.6</ele>
        <time>2022-05-22 23:53:02</time>
      </trkpt>
      <trkpt lat="42.67446" lon="0.7742">
        <ele>1364.8</ele>
        <time>2022-05-22 23:53:03</time>
      </trkpt>
      <trkpt lat="42.67445" lon="0.77422">
        <ele>1365</ele>
        <time>2022-05-22 23:53:04</time>
      </trkpt>
      <trkpt lat="42.67443" lon="0.77425">
        <ele>1365.2</ele>
        <time>2022-05-22 23:53:05</time>
      </trkpt>
      <trkpt lat="42.67442" lon="0.77428">
        <ele>1365.2</ele>
        <time>2022-05-22 23:53:06</time>
      </trkpt>
      <trkpt lat="42.67441" lon="0.7743">
        <ele>1365.4</ele>
        <time>2022-05-22 23:53:07</time>
      </trkpt>
      <trkpt lat="42.6744" lon="0.77433">
        <ele>1365.6</ele>
        <time>2022-05-22 23:53:08</time>
      </trkpt>
      <trkpt lat="42.67439" lon="0.77435">
        <ele>1365.6</ele>
        <time>2022-05-22 23:53:09</time>
      </trkpt>
      <trkpt lat="42.67438" lon="0.77437">
        <ele>1365.8</ele>
        <time>2022-05-22 23:53:10</time>
      </trkpt>
      <trkpt lat="42.67436" lon="0.7744">
        <ele>1366</ele>
        <time>2022-05-22 23:53:11</time>
      </trkpt>
      <trkpt lat="42.67435" lon="0.77442">
        <ele>1366.2</ele>
        <time>2022-05-22 23:53:12</time>
      </trkpt>
      <trkpt lat="42.67434" lon="0.77445">
        <ele>1366.2</ele>
        <time>2022-05-22 23:53:13</time>
      </trkpt>
      <trkpt lat="42.67432" lon="0.77447">
        <ele>1366.4</ele>
        <time>2022-05-22 23:53:14</time>
      </trkpt>
      <trkpt lat="42.67431" lon="0.7745">
        <ele>1366.6</ele>
        <time>2022-05-22 23:53:15</time>
      </trkpt>
      <trkpt lat="42.67429" lon="0.77452">
        <ele>1366.8</ele>
        <time>2022-05-22 23:53:16</time>
      </trkpt>
      <trkpt lat="42.67427" lon="0.77455">
        <ele>1366.8</ele>
        <time>2022-05-22 23:53:17</time>
      </trkpt>
      <trkpt lat="42.67426" lon="0.77457">
        <ele>1367</ele>
        <time>2022-05-22 23:53:18</time>
      </trkpt>
      <trkpt lat="42.67424" lon="0.7746">
        <ele>1367.2</ele>
        <time>2022-05-22 23:53:19</time>
      </trkpt>
      <trkpt lat="42.67423" lon="0.77462">
        <ele>1367.4</ele>
        <time>2022-05-22 23:53:20</time>
      </trkpt>
      <trkpt lat="42.67422" lon="0.77464">
        <ele>1367.4</ele>
        <time>2022-05-22 23:53:21</time>
      </trkpt>
      <trkpt lat="42.6742" lon="0.77466">
        <ele>1367.6</ele>
        <time>2022-05-22 23:53:22</time>
      </trkpt>
      <trkpt lat="42.67419" lon="0.77468">
        <ele>1367.8</ele>
        <time>2022-05-22 23:53:23</time>
      </trkpt>
      <trkpt lat="42.67418" lon="0.7747">
        <ele>1368</ele>
        <time>2022-05-22 23:53:24</time>
      </trkpt>
      <trkpt lat="42.67416" lon="0.77473">
        <ele>1368.2</ele>
        <time>2022-05-22 23:53:25</time>
      </trkpt>
      <trkpt lat="42.67415" lon="0.77475">
        <ele>1368.2</ele>
        <time>2022-05-22 23:53:26</time>
      </trkpt>
      <trkpt lat="42.67413" lon="0.77477">
        <ele>1368.4</ele>
        <time>2022-05-22 23:53:27</time>
      </trkpt>
      <trkpt lat="42.67412" lon="0.77479">
        <ele>1368.6</ele>
        <time>2022-05-22 23:53:28</time>
      </trkpt>
      <trkpt lat="42.67411" lon="0.77481">
        <ele>1368.6</ele>
        <time>2022-05-22 23:53:29</time>
      </trkpt>
      <trkpt lat="42.67409" lon="0.77483">
        <ele>1368.8</ele>
        <time>2022-05-22 23:53:30</time>
      </trkpt>
      <trkpt lat="42.67408" lon="0.77485">
        <ele>1369</ele>
        <time>2022-05-22 23:53:31</time>
      </trkpt>
      <trkpt lat="42.67406" lon="0.77487">
        <ele>1369.2</ele>
        <time>2022-05-22 23:53:32</time>
      </trkpt>
      <trkpt lat="42.67405" lon="0.77489">
        <ele>1369.4</ele>
        <time>2022-05-22 23:53:33</time>
      </trkpt>
      <trkpt lat="42.67403" lon="0.77492">
        <ele>1369.6</ele>
        <time>2022-05-22 23:53:34</time>
      </trkpt>
      <trkpt lat="42.67402" lon="0.77494">
        <ele>1369.6</ele>
        <time>2022-05-22 23:53:35</time>
      </trkpt>
      <trkpt lat="42.67401" lon="0.77496">
        <ele>1369.8</ele>
        <time>2022-05-22 23:53:36</time>
      </trkpt>
      <trkpt lat="42.67399" lon="0.77498">
        <ele>1370</ele>
        <time>2022-05-22 23:53:37</time>
      </trkpt>
      <trkpt lat="42.67398" lon="0.77501">
        <ele>1370</ele>
        <time>2022-05-22 23:53:38</time>
      </trkpt>
      <trkpt lat="42.67396" lon="0.77503">
        <ele>1370.2</ele>
        <time>2022-05-22 23:53:39</time>
      </trkpt>
      <trkpt lat="42.67395" lon="0.77505">
        <ele>1370.2</ele>
        <time>2022-05-22 23:53:40</time>
      </trkpt>
      <trkpt lat="42.67393" lon="0.77508">
        <ele>1370.4</ele>
        <time>2022-05-22 23:53:41</time>
      </trkpt>
      <trkpt lat="42.67392" lon="0.7751">
        <ele>1370.6</ele>
        <time>2022-05-22 23:53:42</time>
      </trkpt>
      <trkpt lat="42.6739" lon="0.77512">
        <ele>1370.6</ele>
        <time>2022-05-22 23:53:43</time>
      </trkpt>
      <trkpt lat="42.67389" lon="0.77515">
        <ele>1370.8</ele>
        <time>2022-05-22 23:53:44</time>
      </trkpt>
      <trkpt lat="42.67387" lon="0.77517">
        <ele>1371</ele>
        <time>2022-05-22 23:53:45</time>
      </trkpt>
      <trkpt lat="42.67386" lon="0.77519">
        <ele>1371</ele>
        <time>2022-05-22 23:53:46</time>
      </trkpt>
      <trkpt lat="42.67385" lon="0.77522">
        <ele>1371.2</ele>
        <time>2022-05-22 23:53:47</time>
      </trkpt>
      <trkpt lat="42.67383" lon="0.77524">
        <ele>1371.4</ele>
        <time>2022-05-22 23:53:48</time>
      </trkpt>
      <trkpt lat="42.67382" lon="0.77527">
        <ele>1371.4</ele>
        <time>2022-05-22 23:53:49</time>
      </trkpt>
      <trkpt lat="42.67381" lon="0.7753">
        <ele>1371.6</ele>
        <time>2022-05-22 23:53:50</time>
      </trkpt>
      <trkpt lat="42.67379" lon="0.77532">
        <ele>1371.6</ele>
        <time>2022-05-22 23:53:51</time>
      </trkpt>
      <trkpt lat="42.67377" lon="0.77535">
        <ele>1371.8</ele>
        <time>2022-05-22 23:53:52</time>
      </trkpt>
      <trkpt lat="42.67376" lon="0.77538">
        <ele>1371.8</ele>
        <time>2022-05-22 23:53:53</time>
      </trkpt>
      <trkpt lat="42.67374" lon="0.77541">
        <ele>1371.8</ele>
        <time>2022-05-22 23:53:54</time>
      </trkpt>
      <trkpt lat="42.67372" lon="0.77543">
        <ele>1372</ele>
        <time>2022-05-22 23:53:55</time>
      </trkpt>
      <trkpt lat="42.67371" lon="0.77546">
        <ele>1372</ele>
        <time>2022-05-22 23:53:56</time>
      </trkpt>
      <trkpt lat="42.67369" lon="0.77549">
        <ele>1372.2</ele>
        <time>2022-05-22 23:53:57</time>
      </trkpt>
      <trkpt lat="42.67368" lon="0.77552">
        <ele>1372.2</ele>
        <time>2022-05-22 23:53:58</time>
      </trkpt>
      <trkpt lat="42.67366" lon="0.77555">
        <ele>1372.4</ele>
        <time>2022-05-22 23:53:59</time>
      </trkpt>
      <trkpt lat="42.67364" lon="0.77558">
        <ele>1372.4</ele>
        <time>2022-05-22 23:54:00</time>
      </trkpt>
      <trkpt lat="42.67363" lon="0.77561">
        <ele>1372.4</ele>
        <time>2022-05-22 23:54:01</time>
      </trkpt>
      <trkpt lat="42.67361" lon="0.77564">
        <ele>1372.4</ele>
        <time>2022-05-22 23:54:02</time>
      </trkpt>
      <trkpt lat="42.67359" lon="0.77567">
        <ele>1372.6</ele>
        <time>2022-05-22 23:54:03</time>
      </trkpt>
      <trkpt lat="42.67358" lon="0.7757">
        <ele>1372.6</ele>
        <time>2022-05-22 23:54:04</time>
      </trkpt>
      <trkpt lat="42.67356" lon="0.77572">
        <ele>1372.6</ele>
        <time>2022-05-22 23:54:05</time>
      </trkpt>
      <trkpt lat="42.67354" lon="0.77575">
        <ele>1372.6</ele>
        <time>2022-05-22 23:54:06</time>
      </trkpt>
      <trkpt lat="42.67353" lon="0.77579">
        <ele>1372.6</ele>
        <time>2022-05-22 23:54:07</time>
      </trkpt>
      <trkpt lat="42.67351" lon="0.77582">
        <ele>1372.6</ele>
        <time>2022-05-22 23:54:08</time>
      </trkpt>
      <trkpt lat="42.6735" lon="0.77585">
        <ele>1372.8</ele>
        <time>2022-05-22 23:54:09</time>
      </trkpt>
      <trkpt lat="42.67348" lon="0.77588">
        <ele>1372.8</ele>
        <time>2022-05-22 23:54:10</time>
      </trkpt>
      <trkpt lat="42.67347" lon="0.77592">
        <ele>1372.8</ele>
        <time>2022-05-22 23:54:11</time>
      </trkpt>
      <trkpt lat="42.67345" lon="0.77595">
        <ele>1372.8</ele>
        <time>2022-05-22 23:54:12</time>
      </trkpt>
      <trkpt lat="42.67343" lon="0.77598">
        <ele>1372.8</ele>
        <time>2022-05-22 23:54:13</time>
      </trkpt>
      <trkpt lat="42.67342" lon="0.77601">
        <ele>1372.8</ele>
        <time>2022-05-22 23:54:14</time>
      </trkpt>
      <trkpt lat="42.6734" lon="0.77604">
        <ele>1372.8</ele>
        <time>2022-05-22 23:54:15</time>
      </trkpt>
      <trkpt lat="42.67339" lon="0.77607">
        <ele>1372.8</ele>
        <time>2022-05-22 23:54:16</time>
      </trkpt>
      <trkpt lat="42.67337" lon="0.77611">
        <ele>1372.8</ele>
        <time>2022-05-22 23:54:17</time>
      </trkpt>
      <trkpt lat="42.67335" lon="0.77615">
        <ele>1372.6</ele>
        <time>2022-05-22 23:54:18</time>
      </trkpt>
      <trkpt lat="42.67334" lon="0.77618">
        <ele>1372.6</ele>
        <time>2022-05-22 23:54:19</time>
      </trkpt>
      <trkpt lat="42.67332" lon="0.77622">
        <ele>1372.6</ele>
        <time>2022-05-22 23:54:20</time>
      </trkpt>
      <trkpt lat="42.6733" lon="0.77626">
        <ele>1372.6</ele>
        <time>2022-05-22 23:54:21</time>
      </trkpt>
      <trkpt lat="42.67328" lon="0.7763">
        <ele>1372.6</ele>
        <time>2022-05-22 23:54:22</time>
      </trkpt>
      <trkpt lat="42.67326" lon="0.77633">
        <ele>1372.6</ele>
        <time>2022-05-22 23:54:23</time>
      </trkpt>
      <trkpt lat="42.67325" lon="0.77637">
        <ele>1372.6</ele>
        <time>2022-05-22 23:54:24</time>
      </trkpt>
      <trkpt lat="42.67323" lon="0.77641">
        <ele>1372.6</ele>
        <time>2022-05-22 23:54:25</time>
      </trkpt>
      <trkpt lat="42.67321" lon="0.77644">
        <ele>1372.4</ele>
        <time>2022-05-22 23:54:26</time>
      </trkpt>
      <trkpt lat="42.6732" lon="0.77645">
        <ele>1372.4</ele>
        <time>2022-05-22 23:54:27</time>
      </trkpt>
      <trkpt lat="42.67318" lon="0.77646">
        <ele>1372.4</ele>
        <time>2022-05-22 23:54:28</time>
      </trkpt>
      <trkpt lat="42.67317" lon="0.77644">
        <ele>1372.4</ele>
        <time>2022-05-22 23:54:29</time>
      </trkpt>
      <trkpt lat="42.67317" lon="0.77641">
        <ele>1372.2</ele>
        <time>2022-05-22 23:54:30</time>
      </trkpt>
      <trkpt lat="42.67318" lon="0.77639">
        <ele>1372.2</ele>
        <time>2022-05-22 23:54:31</time>
      </trkpt>
      <trkpt lat="42.67319" lon="0.77636">
        <ele>1372.2</ele>
        <time>2022-05-22 23:54:32</time>
      </trkpt>
      <trkpt lat="42.6732" lon="0.77633">
        <ele>1372.2</ele>
        <time>2022-05-22 23:54:33</time>
      </trkpt>
      <trkpt lat="42.67322" lon="0.77631">
        <ele>1372.2</ele>
        <time>2022-05-22 23:54:34</time>
      </trkpt>
      <trkpt lat="42.67322" lon="0.77628">
        <ele>1372.2</ele>
        <time>2022-05-22 23:54:35</time>
      </trkpt>
      <trkpt lat="42.67323" lon="0.77625">
        <ele>1372.2</ele>
        <time>2022-05-22 23:54:36</time>
      </trkpt>
      <trkpt lat="42.67323" lon="0.77623">
        <ele>1372.2</ele>
        <time>2022-05-22 23:54:37</time>
      </trkpt>
      <trkpt lat="42.67322" lon="0.77622">
        <ele>1372.2</ele>
        <time>2022-05-22 23:54:38</time>
      </trkpt>
      <trkpt lat="42.67322" lon="0.77621">
        <ele>1372.2</ele>
        <time>2022-05-22 23:54:39</time>
      </trkpt>
      <trkpt lat="42.67324" lon="0.77621">
        <ele>1372.2</ele>
        <time>2022-05-22 23:54:48</time>
      </trkpt>
      <trkpt lat="42.67324" lon="0.77623">
        <ele>1372.2</ele>
        <time>2022-05-22 23:54:49</time>
      </trkpt>
      <trkpt lat="42.67323" lon="0.77624">
        <ele>1372.2</ele>
        <time>2022-05-22 23:54:50</time>
      </trkpt>
      <trkpt lat="42.67322" lon="0.77626">
        <ele>1372.2</ele>
        <time>2022-05-22 23:54:51</time>
      </trkpt>
      <trkpt lat="42.67322" lon="0.77629">
        <ele>1372.2</ele>
        <time>2022-05-22 23:54:52</time>
      </trkpt>
      <trkpt lat="42.67321" lon="0.77632">
        <ele>1372.2</ele>
        <time>2022-05-22 23:54:53</time>
      </trkpt>
      <trkpt lat="42.6732" lon="0.77636">
        <ele>1372.2</ele>
        <time>2022-05-22 23:54:54</time>
      </trkpt>
      <trkpt lat="42.67318" lon="0.7764">
        <ele>1372</ele>
        <time>2022-05-22 23:54:55</time>
      </trkpt>
      <trkpt lat="42.67316" lon="0.77644">
        <ele>1372</ele>
        <time>2022-05-22 23:54:56</time>
      </trkpt>
      <trkpt lat="42.67315" lon="0.77648">
        <ele>1372</ele>
        <time>2022-05-22 23:54:57</time>
      </trkpt>
      <trkpt lat="42.67314" lon="0.77651">
        <ele>1372</ele>
        <time>2022-05-22 23:54:58</time>
      </trkpt>
      <trkpt lat="42.67312" lon="0.77655">
        <ele>1372</ele>
        <time>2022-05-22 23:54:59</time>
      </trkpt>
      <trkpt lat="42.67311" lon="0.77659">
        <ele>1371.8</ele>
        <time>2022-05-22 23:55:00</time>
      </trkpt>
      <trkpt lat="42.67309" lon="0.77662">
        <ele>1372</ele>
        <time>2022-05-22 23:55:01</time>
      </trkpt>
      <trkpt lat="42.67308" lon="0.77666">
        <ele>1371.8</ele>
        <time>2022-05-22 23:55:02</time>
      </trkpt>
      <trkpt lat="42.67307" lon="0.7767">
        <ele>1371.8</ele>
        <time>2022-05-22 23:55:03</time>
      </trkpt>
      <trkpt lat="42.67306" lon="0.77673">
        <ele>1371.8</ele>
        <time>2022-05-22 23:55:04</time>
      </trkpt>
      <trkpt lat="42.67304" lon="0.77676">
        <ele>1371.8</ele>
        <time>2022-05-22 23:55:05</time>
      </trkpt>
      <trkpt lat="42.67303" lon="0.77679">
        <ele>1371.8</ele>
        <time>2022-05-22 23:55:06</time>
      </trkpt>
      <trkpt lat="42.67301" lon="0.77682">
        <ele>1371.8</ele>
        <time>2022-05-22 23:55:07</time>
      </trkpt>
      <trkpt lat="42.67299" lon="0.77684">
        <ele>1371.8</ele>
        <time>2022-05-22 23:55:08</time>
      </trkpt>
      <trkpt lat="42.67298" lon="0.77688">
        <ele>1371.8</ele>
        <time>2022-05-22 23:55:09</time>
      </trkpt>
      <trkpt lat="42.67297" lon="0.77691">
        <ele>1371.8</ele>
        <time>2022-05-22 23:55:10</time>
      </trkpt>
      <trkpt lat="42.67295" lon="0.77695">
        <ele>1371.8</ele>
        <time>2022-05-22 23:55:11</time>
      </trkpt>
      <trkpt lat="42.67293" lon="0.77699">
        <ele>1371.8</ele>
        <time>2022-05-22 23:55:12</time>
      </trkpt>
      <trkpt lat="42.6729" lon="0.77703">
        <ele>1371.8</ele>
        <time>2022-05-22 23:55:13</time>
      </trkpt>
      <trkpt lat="42.67288" lon="0.77707">
        <ele>1371.8</ele>
        <time>2022-05-22 23:55:14</time>
      </trkpt>
      <trkpt lat="42.67286" lon="0.7771">
        <ele>1372</ele>
        <time>2022-05-22 23:55:15</time>
      </trkpt>
      <trkpt lat="42.67284" lon="0.77713">
        <ele>1372</ele>
        <time>2022-05-22 23:55:16</time>
      </trkpt>
      <trkpt lat="42.67282" lon="0.77717">
        <ele>1372</ele>
        <time>2022-05-22 23:55:17</time>
      </trkpt>
      <trkpt lat="42.6728" lon="0.7772">
        <ele>1372</ele>
        <time>2022-05-22 23:55:18</time>
      </trkpt>
      <trkpt lat="42.67278" lon="0.77723">
        <ele>1372</ele>
        <time>2022-05-22 23:55:19</time>
      </trkpt>
      <trkpt lat="42.67275" lon="0.77725">
        <ele>1372.2</ele>
        <time>2022-05-22 23:55:20</time>
      </trkpt>
      <trkpt lat="42.67273" lon="0.77728">
        <ele>1372.2</ele>
        <time>2022-05-22 23:55:21</time>
      </trkpt>
      <trkpt lat="42.6727" lon="0.77731">
        <ele>1372.2</ele>
        <time>2022-05-22 23:55:22</time>
      </trkpt>
      <trkpt lat="42.67267" lon="0.77734">
        <ele>1372.2</ele>
        <time>2022-05-22 23:55:23</time>
      </trkpt>
      <trkpt lat="42.67265" lon="0.77736">
        <ele>1372.4</ele>
        <time>2022-05-22 23:55:24</time>
      </trkpt>
      <trkpt lat="42.67263" lon="0.77739">
        <ele>1372.4</ele>
        <time>2022-05-22 23:55:25</time>
      </trkpt>
      <trkpt lat="42.6726" lon="0.77741">
        <ele>1372.4</ele>
        <time>2022-05-22 23:55:26</time>
      </trkpt>
      <trkpt lat="42.67257" lon="0.77744">
        <ele>1372.4</ele>
        <time>2022-05-22 23:55:27</time>
      </trkpt>
      <trkpt lat="42.67255" lon="0.77746">
        <ele>1372.4</ele>
        <time>2022-05-22 23:55:28</time>
      </trkpt>
      <trkpt lat="42.67252" lon="0.77748">
        <ele>1372.6</ele>
        <time>2022-05-22 23:55:29</time>
      </trkpt>
      <trkpt lat="42.6725" lon="0.77751">
        <ele>1372.6</ele>
        <time>2022-05-22 23:55:30</time>
      </trkpt>
      <trkpt lat="42.67247" lon="0.77753">
        <ele>1372.6</ele>
        <time>2022-05-22 23:55:31</time>
      </trkpt>
      <trkpt lat="42.67245" lon="0.77755">
        <ele>1372.8</ele>
        <time>2022-05-22 23:55:32</time>
      </trkpt>
      <trkpt lat="42.67243" lon="0.77757">
        <ele>1372.8</ele>
        <time>2022-05-22 23:55:33</time>
      </trkpt>
      <trkpt lat="42.67242" lon="0.77758">
        <ele>1373</ele>
        <time>2022-05-22 23:55:34</time>
      </trkpt>
      <trkpt lat="42.6724" lon="0.7776">
        <ele>1373</ele>
        <time>2022-05-22 23:55:35</time>
      </trkpt>
      <trkpt lat="42.67239" lon="0.7776">
        <ele>1373</ele>
        <time>2022-05-22 23:55:36</time>
      </trkpt>
      <trkpt lat="42.67237" lon="0.77761">
        <ele>1373</ele>
        <time>2022-05-22 23:55:37</time>
      </trkpt>
      <trkpt lat="42.67236" lon="0.77761">
        <ele>1373.2</ele>
        <time>2022-05-22 23:55:38</time>
      </trkpt>
      <trkpt lat="42.67235" lon="0.77762">
        <ele>1373.2</ele>
        <time>2022-05-22 23:55:39</time>
      </trkpt>
      <trkpt lat="42.67235" lon="0.77762">
        <ele>1373.2</ele>
        <time>2022-05-22 23:55:40</time>
      </trkpt>
      <trkpt lat="42.67234" lon="0.77762">
        <ele>1373.4</ele>
        <time>2022-05-22 23:55:56</time>
      </trkpt>
      <trkpt lat="42.67233" lon="0.77763">
        <ele>1373.2</ele>
        <time>2022-05-22 23:55:57</time>
      </trkpt>
      <trkpt lat="42.67232" lon="0.77764">
        <ele>1373.4</ele>
        <time>2022-05-22 23:55:58</time>
      </trkpt>
      <trkpt lat="42.67231" lon="0.77765">
        <ele>1373.4</ele>
        <time>2022-05-22 23:55:59</time>
      </trkpt>
      <trkpt lat="42.67229" lon="0.77767">
        <ele>1373.4</ele>
        <time>2022-05-22 23:56:00</time>
      </trkpt>
      <trkpt lat="42.67228" lon="0.77769">
        <ele>1373.4</ele>
        <time>2022-05-22 23:56:01</time>
      </trkpt>
      <trkpt lat="42.67226" lon="0.7777">
        <ele>1373.4</ele>
        <time>2022-05-22 23:56:02</time>
      </trkpt>
      <trkpt lat="42.67224" lon="0.77772">
        <ele>1373.6</ele>
        <time>2022-05-22 23:56:03</time>
      </trkpt>
      <trkpt lat="42.67222" lon="0.77774">
        <ele>1373.6</ele>
        <time>2022-05-22 23:56:04</time>
      </trkpt>
      <trkpt lat="42.67221" lon="0.77775">
        <ele>1373.8</ele>
        <time>2022-05-22 23:56:05</time>
      </trkpt>
      <trkpt lat="42.67219" lon="0.77777">
        <ele>1373.8</ele>
        <time>2022-05-22 23:56:06</time>
      </trkpt>
      <trkpt lat="42.67217" lon="0.77778">
        <ele>1374</ele>
        <time>2022-05-22 23:56:07</time>
      </trkpt>
      <trkpt lat="42.67216" lon="0.77779">
        <ele>1374</ele>
        <time>2022-05-22 23:56:08</time>
      </trkpt>
      <trkpt lat="42.67216" lon="0.77779">
        <ele>1374.2</ele>
        <time>2022-05-22 23:56:09</time>
      </trkpt>
      <trkpt lat="42.67216" lon="0.77779">
        <ele>1374.2</ele>
        <time>2022-05-22 23:56:10</time>
      </trkpt>
      <trkpt lat="42.67216" lon="0.77779">
        <ele>1374.4</ele>
        <time>2022-05-22 23:56:11</time>
      </trkpt>
      <trkpt lat="42.67216" lon="0.77779">
        <ele>1374.4</ele>
        <time>2022-05-22 23:56:12</time>
      </trkpt>
      <trkpt lat="42.67214" lon="0.7778">
        <ele>1374.8</ele>
        <time>2022-05-22 23:57:26</time>
      </trkpt>
      <trkpt lat="42.67212" lon="0.77782">
        <ele>1374.8</ele>
        <time>2022-05-22 23:57:27</time>
      </trkpt>
      <trkpt lat="42.67212" lon="0.77783">
        <ele>1374.8</ele>
        <time>2022-05-22 23:57:28</time>
      </trkpt>
      <trkpt lat="42.67211" lon="0.77784">
        <ele>1374.8</ele>
        <time>2022-05-22 23:57:29</time>
      </trkpt>
      <trkpt lat="42.67211" lon="0.77785">
        <ele>1375</ele>
        <time>2022-05-22 23:57:30</time>
      </trkpt>
      <trkpt lat="42.6721" lon="0.77787">
        <ele>1375</ele>
        <time>2022-05-22 23:57:31</time>
      </trkpt>
      <trkpt lat="42.67208" lon="0.77788">
        <ele>1375.2</ele>
        <time>2022-05-22 23:57:32</time>
      </trkpt>
      <trkpt lat="42.67207" lon="0.7779">
        <ele>1375.2</ele>
        <time>2022-05-22 23:57:33</time>
      </trkpt>
      <trkpt lat="42.67205" lon="0.77791">
        <ele>1375.4</ele>
        <time>2022-05-22 23:57:34</time>
      </trkpt>
      <trkpt lat="42.67203" lon="0.77793">
        <ele>1375.4</ele>
        <time>2022-05-22 23:57:35</time>
      </trkpt>
      <trkpt lat="42.672" lon="0.77794">
        <ele>1375.6</ele>
        <time>2022-05-22 23:57:36</time>
      </trkpt>
      <trkpt lat="42.67198" lon="0.77796">
        <ele>1375.8</ele>
        <time>2022-05-22 23:57:37</time>
      </trkpt>
      <trkpt lat="42.67196" lon="0.77798">
        <ele>1376</ele>
        <time>2022-05-22 23:57:38</time>
      </trkpt>
      <trkpt lat="42.67194" lon="0.778">
        <ele>1376</ele>
        <time>2022-05-22 23:57:39</time>
      </trkpt>
      <trkpt lat="42.67192" lon="0.77801">
        <ele>1376.2</ele>
        <time>2022-05-22 23:57:40</time>
      </trkpt>
      <trkpt lat="42.6719" lon="0.77803">
        <ele>1376.4</ele>
        <time>2022-05-22 23:57:41</time>
      </trkpt>
      <trkpt lat="42.67188" lon="0.77805">
        <ele>1376.6</ele>
        <time>2022-05-22 23:57:42</time>
      </trkpt>
      <trkpt lat="42.67185" lon="0.77807">
        <ele>1376.8</ele>
        <time>2022-05-22 23:57:43</time>
      </trkpt>
      <trkpt lat="42.67183" lon="0.77809">
        <ele>1377</ele>
        <time>2022-05-22 23:57:44</time>
      </trkpt>
      <trkpt lat="42.67181" lon="0.7781">
        <ele>1377.2</ele>
        <time>2022-05-22 23:57:45</time>
      </trkpt>
      <trkpt lat="42.67178" lon="0.77812">
        <ele>1377.4</ele>
        <time>2022-05-22 23:57:46</time>
      </trkpt>
      <trkpt lat="42.67176" lon="0.77813">
        <ele>1377.6</ele>
        <time>2022-05-22 23:57:47</time>
      </trkpt>
      <trkpt lat="42.67173" lon="0.77814">
        <ele>1377.8</ele>
        <time>2022-05-22 23:57:48</time>
      </trkpt>
      <trkpt lat="42.67171" lon="0.77816">
        <ele>1378</ele>
        <time>2022-05-22 23:57:49</time>
      </trkpt>
      <trkpt lat="42.67168" lon="0.77817">
        <ele>1378.2</ele>
        <time>2022-05-22 23:57:50</time>
      </trkpt>
      <trkpt lat="42.67166" lon="0.77818">
        <ele>1378.4</ele>
        <time>2022-05-22 23:57:51</time>
      </trkpt>
      <trkpt lat="42.67163" lon="0.77819">
        <ele>1378.4</ele>
        <time>2022-05-22 23:57:52</time>
      </trkpt>
      <trkpt lat="42.67161" lon="0.77821">
        <ele>1378.6</ele>
        <time>2022-05-22 23:57:53</time>
      </trkpt>
      <trkpt lat="42.67158" lon="0.77822">
        <ele>1378.8</ele>
        <time>2022-05-22 23:57:54</time>
      </trkpt>
      <trkpt lat="42.67156" lon="0.77823">
        <ele>1379</ele>
        <time>2022-05-22 23:57:55</time>
      </trkpt>
      <trkpt lat="42.67154" lon="0.77824">
        <ele>1379.2</ele>
        <time>2022-05-22 23:57:56</time>
      </trkpt>
      <trkpt lat="42.67151" lon="0.77825">
        <ele>1379.4</ele>
        <time>2022-05-22 23:57:57</time>
      </trkpt>
      <trkpt lat="42.67149" lon="0.77826">
        <ele>1379.6</ele>
        <time>2022-05-22 23:57:58</time>
      </trkpt>
      <trkpt lat="42.67146" lon="0.77827">
        <ele>1379.8</ele>
        <time>2022-05-22 23:57:59</time>
      </trkpt>
      <trkpt lat="42.67144" lon="0.77828">
        <ele>1379.8</ele>
        <time>2022-05-22 23:58:00</time>
      </trkpt>
      <trkpt lat="42.67142" lon="0.77829">
        <ele>1380</ele>
        <time>2022-05-22 23:58:01</time>
      </trkpt>
      <trkpt lat="42.6714" lon="0.7783">
        <ele>1380.2</ele>
        <time>2022-05-22 23:58:02</time>
      </trkpt>
      <trkpt lat="42.67137" lon="0.7783">
        <ele>1380.4</ele>
        <time>2022-05-22 23:58:03</time>
      </trkpt>
      <trkpt lat="42.67135" lon="0.77831">
        <ele>1380.4</ele>
        <time>2022-05-22 23:58:04</time>
      </trkpt>
      <trkpt lat="42.67133" lon="0.77832">
        <ele>1380.6</ele>
        <time>2022-05-22 23:58:05</time>
      </trkpt>
      <trkpt lat="42.67131" lon="0.77833">
        <ele>1380.8</ele>
        <time>2022-05-22 23:58:06</time>
      </trkpt>
      <trkpt lat="42.67129" lon="0.77833">
        <ele>1380.8</ele>
        <time>2022-05-22 23:58:07</time>
      </trkpt>
      <trkpt lat="42.67126" lon="0.77834">
        <ele>1381</ele>
        <time>2022-05-22 23:58:08</time>
      </trkpt>
      <trkpt lat="42.67124" lon="0.77834">
        <ele>1381.2</ele>
        <time>2022-05-22 23:58:09</time>
      </trkpt>
      <trkpt lat="42.67122" lon="0.77835">
        <ele>1381.2</ele>
        <time>2022-05-22 23:58:10</time>
      </trkpt>
      <trkpt lat="42.6712" lon="0.77835">
        <ele>1381.4</ele>
        <time>2022-05-22 23:58:11</time>
      </trkpt>
      <trkpt lat="42.67118" lon="0.77836">
        <ele>1381.6</ele>
        <time>2022-05-22 23:58:12</time>
      </trkpt>
      <trkpt lat="42.67115" lon="0.77836">
        <ele>1381.6</ele>
        <time>2022-05-22 23:58:13</time>
      </trkpt>
      <trkpt lat="42.67113" lon="0.77837">
        <ele>1381.8</ele>
        <time>2022-05-22 23:58:14</time>
      </trkpt>
      <trkpt lat="42.6711" lon="0.77837">
        <ele>1382</ele>
        <time>2022-05-22 23:58:15</time>
      </trkpt>
      <trkpt lat="42.67108" lon="0.77837">
        <ele>1382</ele>
        <time>2022-05-22 23:58:16</time>
      </trkpt>
      <trkpt lat="42.67106" lon="0.77838">
        <ele>1382.2</ele>
        <time>2022-05-22 23:58:17</time>
      </trkpt>
      <trkpt lat="42.67103" lon="0.77838">
        <ele>1382.4</ele>
        <time>2022-05-22 23:58:18</time>
      </trkpt>
      <trkpt lat="42.67101" lon="0.77839">
        <ele>1382.4</ele>
        <time>2022-05-22 23:58:19</time>
      </trkpt>
      <trkpt lat="42.67099" lon="0.77839">
        <ele>1382.6</ele>
        <time>2022-05-22 23:58:20</time>
      </trkpt>
      <trkpt lat="42.67097" lon="0.7784">
        <ele>1382.8</ele>
        <time>2022-05-22 23:58:21</time>
      </trkpt>
      <trkpt lat="42.67095" lon="0.7784">
        <ele>1383</ele>
        <time>2022-05-22 23:58:22</time>
      </trkpt>
      <trkpt lat="42.67093" lon="0.77841">
        <ele>1383.2</ele>
        <time>2022-05-22 23:58:23</time>
      </trkpt>
      <trkpt lat="42.6709" lon="0.77841">
        <ele>1383.2</ele>
        <time>2022-05-22 23:58:24</time>
      </trkpt>
      <trkpt lat="42.67088" lon="0.77841">
        <ele>1383.4</ele>
        <time>2022-05-22 23:58:25</time>
      </trkpt>
      <trkpt lat="42.67086" lon="0.77842">
        <ele>1383.4</ele>
        <time>2022-05-22 23:58:26</time>
      </trkpt>
      <trkpt lat="42.67083" lon="0.77842">
        <ele>1383.6</ele>
        <time>2022-05-22 23:58:27</time>
      </trkpt>
      <trkpt lat="42.67081" lon="0.77842">
        <ele>1383.8</ele>
        <time>2022-05-22 23:58:28</time>
      </trkpt>
      <trkpt lat="42.67078" lon="0.77842">
        <ele>1383.8</ele>
        <time>2022-05-22 23:58:29</time>
      </trkpt>
      <trkpt lat="42.67076" lon="0.77843">
        <ele>1384</ele>
        <time>2022-05-22 23:58:30</time>
      </trkpt>
      <trkpt lat="42.67073" lon="0.77843">
        <ele>1384.2</ele>
        <time>2022-05-22 23:58:31</time>
      </trkpt>
      <trkpt lat="42.67071" lon="0.77843">
        <ele>1384.4</ele>
        <time>2022-05-22 23:58:32</time>
      </trkpt>
      <trkpt lat="42.67068" lon="0.77843">
        <ele>1384.4</ele>
        <time>2022-05-22 23:58:33</time>
      </trkpt>
      <trkpt lat="42.67066" lon="0.77843">
        <ele>1384.6</ele>
        <time>2022-05-22 23:58:34</time>
      </trkpt>
      <trkpt lat="42.67064" lon="0.77844">
        <ele>1384.8</ele>
        <time>2022-05-22 23:58:35</time>
      </trkpt>
      <trkpt lat="42.67061" lon="0.77844">
        <ele>1385</ele>
        <time>2022-05-22 23:58:36</time>
      </trkpt>
      <trkpt lat="42.67059" lon="0.77844">
        <ele>1385.2</ele>
        <time>2022-05-22 23:58:37</time>
      </trkpt>
      <trkpt lat="42.67056" lon="0.77844">
        <ele>1385.2</ele>
        <time>2022-05-22 23:58:38</time>
      </trkpt>
      <trkpt lat="42.67054" lon="0.77844">
        <ele>1385.4</ele>
        <time>2022-05-22 23:58:39</time>
      </trkpt>
      <trkpt lat="42.67051" lon="0.77845">
        <ele>1385.6</ele>
        <time>2022-05-22 23:58:40</time>
      </trkpt>
      <trkpt lat="42.67049" lon="0.77845">
        <ele>1385.8</ele>
        <time>2022-05-22 23:58:41</time>
      </trkpt>
      <trkpt lat="42.67047" lon="0.77845">
        <ele>1385.8</ele>
        <time>2022-05-22 23:58:42</time>
      </trkpt>
      <trkpt lat="42.67044" lon="0.77846">
        <ele>1386</ele>
        <time>2022-05-22 23:58:43</time>
      </trkpt>
      <trkpt lat="42.67042" lon="0.77846">
        <ele>1386.2</ele>
        <time>2022-05-22 23:58:44</time>
      </trkpt>
      <trkpt lat="42.6704" lon="0.77846">
        <ele>1386.4</ele>
        <time>2022-05-22 23:58:45</time>
      </trkpt>
      <trkpt lat="42.67038" lon="0.77846">
        <ele>1386.6</ele>
        <time>2022-05-22 23:58:46</time>
      </trkpt>
      <trkpt lat="42.67036" lon="0.77846">
        <ele>1386.6</ele>
        <time>2022-05-22 23:58:47</time>
      </trkpt>
      <trkpt lat="42.67035" lon="0.77846">
        <ele>1386.8</ele>
        <time>2022-05-22 23:58:48</time>
      </trkpt>
      <trkpt lat="42.67033" lon="0.77846">
        <ele>1387</ele>
        <time>2022-05-22 23:58:49</time>
      </trkpt>
      <trkpt lat="42.67031" lon="0.77846">
        <ele>1387.2</ele>
        <time>2022-05-22 23:58:50</time>
      </trkpt>
      <trkpt lat="42.67029" lon="0.77846">
        <ele>1387.4</ele>
        <time>2022-05-22 23:58:51</time>
      </trkpt>
      <trkpt lat="42.67028" lon="0.77846">
        <ele>1387.4</ele>
        <time>2022-05-22 23:58:52</time>
      </trkpt>
      <trkpt lat="42.67026" lon="0.77846">
        <ele>1387.6</ele>
        <time>2022-05-22 23:58:53</time>
      </trkpt>
      <trkpt lat="42.67024" lon="0.77846">
        <ele>1387.8</ele>
        <time>2022-05-22 23:58:54</time>
      </trkpt>
      <trkpt lat="42.67023" lon="0.77846">
        <ele>1387.8</ele>
        <time>2022-05-22 23:58:55</time>
      </trkpt>
      <trkpt lat="42.67021" lon="0.77846">
        <ele>1388</ele>
        <time>2022-05-22 23:58:56</time>
      </trkpt>
      <trkpt lat="42.67019" lon="0.77846">
        <ele>1388</ele>
        <time>2022-05-22 23:58:57</time>
      </trkpt>
      <trkpt lat="42.67017" lon="0.77846">
        <ele>1388.2</ele>
        <time>2022-05-22 23:58:58</time>
      </trkpt>
      <trkpt lat="42.67016" lon="0.77846">
        <ele>1388.4</ele>
        <time>2022-05-22 23:58:59</time>
      </trkpt>
      <trkpt lat="42.67014" lon="0.77846">
        <ele>1388.6</ele>
        <time>2022-05-22 23:59:00</time>
      </trkpt>
      <trkpt lat="42.62455" lon="0.76455">
        <ele>1580</ele>
        <time>2022-05-22 23:59:01</time>
      </trkpt>
      <trkpt lat="42.62452" lon="0.76456">
        <ele>1579.8</ele>
        <time>2022-05-22 23:59:02</time>
      </trkpt>
      <trkpt lat="42.62448" lon="0.76455">
        <ele>1579.2</ele>
        <time>2022-05-22 23:59:03</time>
      </trkpt>
      <trkpt lat="42.62445" lon="0.76453">
        <ele>1573</ele>
        <time>2022-05-22 23:59:04</time>
      </trkpt>
      <trkpt lat="42.62443" lon="0.76453">
        <ele>1566.8</ele>
        <time>2022-05-22 23:59:05</time>
      </trkpt>
      <trkpt lat="42.62437" lon="0.76456">
        <ele>1548.8</ele>
        <time>2022-05-22 23:59:06</time>
      </trkpt>
      <trkpt lat="42.62433" lon="0.76458">
        <ele>1537.2</ele>
        <time>2022-05-22 23:59:07</time>
      </trkpt>
      <trkpt lat="42.6243" lon="0.76459">
        <ele>1531.6</ele>
        <time>2022-05-22 23:59:08</time>
      </trkpt>
      <trkpt lat="42.62425" lon="0.76459">
        <ele>1529.6</ele>
        <time>2022-05-22 23:59:09</time>
      </trkpt>
      <trkpt lat="42.62421" lon="0.76459">
        <ele>1529.8</ele>
        <time>2022-05-22 23:59:10</time>
      </trkpt>
      <trkpt lat="42.62417" lon="0.7646">
        <ele>1531.6</ele>
        <time>2022-05-22 23:59:11</time>
      </trkpt>
      <trkpt lat="42.62413" lon="0.76462">
        <ele>1534.4</ele>
        <time>2022-05-22 23:59:12</time>
      </trkpt>
      <trkpt lat="42.62409" lon="0.76464">
        <ele>1537.4</ele>
        <time>2022-05-22 23:59:13</time>
      </trkpt>
      <trkpt lat="42.62405" lon="0.76467">
        <ele>1540.4</ele>
        <time>2022-05-22 23:59:14</time>
      </trkpt>
      <trkpt lat="42.624" lon="0.76467">
        <ele>1544</ele>
        <time>2022-05-22 23:59:15</time>
      </trkpt>
      <trkpt lat="42.62396" lon="0.76465">
        <ele>1547.2</ele>
        <time>2022-05-22 23:59:16</time>
      </trkpt>
      <trkpt lat="42.62394" lon="0.76464">
        <ele>1550.4</ele>
        <time>2022-05-22 23:59:17</time>
      </trkpt>
      <trkpt lat="42.62392" lon="0.76464">
        <ele>1553.2</ele>
        <time>2022-05-22 23:59:18</time>
      </trkpt>
      <trkpt lat="42.62391" lon="0.76464">
        <ele>1556</ele>
        <time>2022-05-22 23:59:19</time>
      </trkpt>
      <trkpt lat="42.62391" lon="0.76464">
        <ele>1558.4</ele>
        <time>2022-05-22 23:59:20</time>
      </trkpt>
      <trkpt lat="42.62392" lon="0.76464">
        <ele>1560.8</ele>
        <time>2022-05-22 23:59:21</time>
      </trkpt>
      <trkpt lat="42.62392" lon="0.76463">
        <ele>1563.2</ele>
        <time>2022-05-22 23:59:22</time>
      </trkpt>
      <trkpt lat="42.62392" lon="0.76463">
        <ele>1565.2</ele>
        <time>2022-05-22 23:59:23</time>
      </trkpt>
      <trkpt lat="42.62392" lon="0.76463">
        <ele>1567.2</ele>
        <time>2022-05-22 23:59:24</time>
      </trkpt>
      <trkpt lat="42.62391" lon="0.76464">
        <ele>1569</ele>
        <time>2022-05-22 23:59:25</time>
      </trkpt>
      <trkpt lat="42.62391" lon="0.76465">
        <ele>1570.8</ele>
        <time>2022-05-22 23:59:26</time>
      </trkpt>
      <trkpt lat="42.6239" lon="0.76466">
        <ele>1572.6</ele>
        <time>2022-05-22 23:59:27</time>
      </trkpt>
      <trkpt lat="42.6239" lon="0.76466">
        <ele>1574.2</ele>
        <time>2022-05-22 23:59:28</time>
      </trkpt>
      <trkpt lat="42.6239" lon="0.76466">
        <ele>1575.8</ele>
        <time>2022-05-22 23:59:29</time>
      </trkpt>
      <trkpt lat="42.62387" lon="0.76468">
        <ele>1583</ele>
        <time>2022-05-22 23:59:30</time>
      </trkpt>
      <trkpt lat="42.62385" lon="0.76469">
        <ele>1583.4</ele>
        <time>2022-05-22 23:59:31</time>
      </trkpt>
      <trkpt lat="42.62383" lon="0.7647">
        <ele>1584.2</ele>
        <time>2022-05-22 23:59:32</time>
      </trkpt>
      <trkpt lat="42.6238" lon="0.76471">
        <ele>1585</ele>
        <time>2022-05-22 23:59:33</time>
      </trkpt>
      <trkpt lat="42.62376" lon="0.76471">
        <ele>1586</ele>
        <time>2022-05-22 23:59:34</time>
      </trkpt>
      <trkpt lat="42.62372" lon="0.76472">
        <ele>1587</ele>
        <time>2022-05-22 23:59:35</time>
      </trkpt>
      <trkpt lat="42.62369" lon="0.76472">
        <ele>1588.2</ele>
        <time>2022-05-22 23:59:36</time>
      </trkpt>
      <trkpt lat="42.62365" lon="0.76473">
        <ele>1589.2</ele>
        <time>2022-05-22 23:59:37</time>
      </trkpt>
      <trkpt lat="42.62361" lon="0.76474">
        <ele>1590.2</ele>
        <time>2022-05-22 23:59:38</time>
      </trkpt>
      <trkpt lat="42.62357" lon="0.76474">
        <ele>1591.2</ele>
        <time>2022-05-22 23:59:39</time>
      </trkpt>
      <trkpt lat="42.62353" lon="0.76474">
        <ele>1592</ele>
        <time>2022-05-22 23:59:40</time>
      </trkpt>
      <trkpt lat="42.62348" lon="0.76473">
        <ele>1593</ele>
        <time>2022-05-22 23:59:41</time>
      </trkpt>
      <trkpt lat="42.62344" lon="0.76473">
        <ele>1593.8</ele>
        <time>2022-05-22 23:59:42</time>
      </trkpt>
      <trkpt lat="42.6234" lon="0.76474">
        <ele>1594.4</ele>
        <time>2022-05-22 23:59:43</time>
      </trkpt>
      <trkpt lat="42.62335" lon="0.76476">
        <ele>1595</ele>
        <time>2022-05-22 23:59:44</time>
      </trkpt>
      <trkpt lat="42.62331" lon="0.76477">
        <ele>1595.8</ele>
        <time>2022-05-22 23:59:45</time>
      </trkpt>
      <trkpt lat="42.62326" lon="0.76479">
        <ele>1596.2</ele>
        <time>2022-05-22 23:59:46</time>
      </trkpt>
      <trkpt lat="42.62321" lon="0.76481">
        <ele>1596.8</ele>
        <time>2022-05-22 23:59:47</time>
      </trkpt>
      <trkpt lat="42.62316" lon="0.76483">
        <ele>1597.4</ele>
        <time>2022-05-22 23:59:48</time>
      </trkpt>
      <trkpt lat="42.62311" lon="0.76485">
        <ele>1597.6</ele>
        <time>2022-05-22 23:59:49</time>
      </trkpt>
      <trkpt lat="42.62305" lon="0.76487">
        <ele>1598</ele>
        <time>2022-05-22 23:59:50</time>
      </trkpt>
      <trkpt lat="42.62299" lon="0.76489">
        <ele>1598.4</ele>
        <time>2022-05-22 23:59:51</time>
      </trkpt>
      <trkpt lat="42.62293" lon="0.76491">
        <ele>1598.6</ele>
        <time>2022-05-22 23:59:52</time>
      </trkpt>
      <trkpt lat="42.62287" lon="0.76494">
        <ele>1598.8</ele>
        <time>2022-05-22 23:59:53</time>
      </trkpt>
      <trkpt lat="42.62281" lon="0.76497">
        <ele>1598.8</ele>
        <time>2022-05-22 23:59:54</time>
      </trkpt>
      <trkpt lat="42.62275" lon="0.76499">
        <ele>1599</ele>
        <time>2022-05-22 23:59:55</time>
      </trkpt>
      <trkpt lat="42.62268" lon="0.76501">
        <ele>1599</ele>
        <time>2022-05-22 23:59:56</time>
      </trkpt>
      <trkpt lat="42.62261" lon="0.76504">
        <ele>1599</ele>
        <time>2022-05-22 23:59:57</time>
      </trkpt>
      <trkpt lat="42.62254" lon="0.76505">
        <ele>1599</ele>
        <time>2022-05-22 23:59:58</time>
      </trkpt>
      <trkpt lat="42.62246" lon="0.76508">
        <ele>1598.8</ele>
        <time>2022-05-22 23:59:59</time>
      </trkpt>
      <trkpt lat="42.62238" lon="0.7651">
        <ele>1598.6</ele>
        <time>2022-05-23 00:00:00</time>
      </trkpt>
      <trkpt lat="42.6223" lon="0.76511">
        <ele>1598.4</ele>
        <time>2022-05-23 00:00:01</time>
      </trkpt>
      <trkpt lat="42.62222" lon="0.76513">
        <ele>1598.2</ele>
        <time>2022-05-23 00:00:02</time>
      </trkpt>
      <trkpt lat="42.62214" lon="0.76514">
        <ele>1597.8</ele>
        <time>2022-05-23 00:00:03</time>
      </trkpt>
      <trkpt lat="42.62205" lon="0.76515">
        <ele>1597.4</ele>
        <time>2022-05-23 00:00:04</time>
      </trkpt>
      <trkpt lat="42.62196" lon="0.76516">
        <ele>1597.2</ele>
        <time>2022-05-23 00:00:05</time>
      </trkpt>
      <trkpt lat="42.62187" lon="0.76517">
        <ele>1596.8</ele>
        <time>2022-05-23 00:00:06</time>
      </trkpt>
      <trkpt lat="42.62178" lon="0.76517">
        <ele>1596.4</ele>
        <time>2022-05-23 00:00:07</time>
      </trkpt>
      <trkpt lat="42.62169" lon="0.76517">
        <ele>1596</ele>
        <time>2022-05-23 00:00:08</time>
      </trkpt>
      <trkpt lat="42.6216" lon="0.76516">
        <ele>1595.6</ele>
        <time>2022-05-23 00:00:09</time>
      </trkpt>
      <trkpt lat="42.6215" lon="0.76516">
        <ele>1595</ele>
        <time>2022-05-23 00:00:10</time>
      </trkpt>
      <trkpt lat="42.6214" lon="0.76515">
        <ele>1594.4</ele>
        <time>2022-05-23 00:00:11</time>
      </trkpt>
      <trkpt lat="42.6213" lon="0.76513">
        <ele>1593.8</ele>
        <time>2022-05-23 00:00:12</time>
      </trkpt>
      <trkpt lat="42.6212" lon="0.76511">
        <ele>1593.2</ele>
        <time>2022-05-23 00:00:13</time>
      </trkpt>
      <trkpt lat="42.6211" lon="0.7651">
        <ele>1592.6</ele>
        <time>2022-05-23 00:00:14</time>
      </trkpt>
      <trkpt lat="42.62099" lon="0.76508">
        <ele>1592</ele>
        <time>2022-05-23 00:00:15</time>
      </trkpt>
      <trkpt lat="42.62089" lon="0.76506">
        <ele>1591.4</ele>
        <time>2022-05-23 00:00:16</time>
      </trkpt>
      <trkpt lat="42.62078" lon="0.76504">
        <ele>1590.8</ele>
        <time>2022-05-23 00:00:17</time>
      </trkpt>
      <trkpt lat="42.62067" lon="0.76501">
        <ele>1590.2</ele>
        <time>2022-05-23 00:00:18</time>
      </trkpt>
      <trkpt lat="42.62056" lon="0.76499">
        <ele>1589.6</ele>
        <time>2022-05-23 00:00:19</time>
      </trkpt>
      <trkpt lat="42.62045" lon="0.76497">
        <ele>1589</ele>
        <time>2022-05-23 00:00:20</time>
      </trkpt>
      <trkpt lat="42.62033" lon="0.76495">
        <ele>1588.2</ele>
        <time>2022-05-23 00:00:21</time>
      </trkpt>
      <trkpt lat="42.62022" lon="0.76493">
        <ele>1587.2</ele>
        <time>2022-05-23 00:00:22</time>
      </trkpt>
      <trkpt lat="42.62011" lon="0.76491">
        <ele>1586.4</ele>
        <time>2022-05-23 00:00:23</time>
      </trkpt>
      <trkpt lat="42.61999" lon="0.76489">
        <ele>1585.6</ele>
        <time>2022-05-23 00:00:24</time>
      </trkpt>
      <trkpt lat="42.61987" lon="0.76488">
        <ele>1585</ele>
        <time>2022-05-23 00:00:25</time>
      </trkpt>
      <trkpt lat="42.61975" lon="0.76486">
        <ele>1584.2</ele>
        <time>2022-05-23 00:00:26</time>
      </trkpt>
      <trkpt lat="42.61964" lon="0.76485">
        <ele>1583.4</ele>
        <time>2022-05-23 00:00:27</time>
      </trkpt>
      <trkpt lat="42.61953" lon="0.76484">
        <ele>1582.8</ele>
        <time>2022-05-23 00:00:28</time>
      </trkpt>
      <trkpt lat="42.61941" lon="0.76482">
        <ele>1582</ele>
        <time>2022-05-23 00:00:29</time>
      </trkpt>
      <trkpt lat="42.61928" lon="0.76481">
        <ele>1581.2</ele>
        <time>2022-05-23 00:00:30</time>
      </trkpt>
      <trkpt lat="42.61917" lon="0.7648">
        <ele>1580.4</ele>
        <time>2022-05-23 00:00:31</time>
      </trkpt>
      <trkpt lat="42.61905" lon="0.76478">
        <ele>1579.6</ele>
        <time>2022-05-23 00:00:32</time>
      </trkpt>
      <trkpt lat="42.61893" lon="0.76477">
        <ele>1579</ele>
        <time>2022-05-23 00:00:33</time>
      </trkpt>
      <trkpt lat="42.61881" lon="0.76476">
        <ele>1578.2</ele>
        <time>2022-05-23 00:00:34</time>
      </trkpt>
      <trkpt lat="42.6187" lon="0.76475">
        <ele>1577.6</ele>
        <time>2022-05-23 00:00:35</time>
      </trkpt>
      <trkpt lat="42.61858" lon="0.76474">
        <ele>1577</ele>
        <time>2022-05-23 00:00:36</time>
      </trkpt>
      <trkpt lat="42.61847" lon="0.76473">
        <ele>1576.6</ele>
        <time>2022-05-23 00:00:37</time>
      </trkpt>
      <trkpt lat="42.61837" lon="0.76472">
        <ele>1576.2</ele>
        <time>2022-05-23 00:00:38</time>
      </trkpt>
      <trkpt lat="42.61826" lon="0.76471">
        <ele>1576.2</ele>
        <time>2022-05-23 00:00:39</time>
      </trkpt>
      <trkpt lat="42.61816" lon="0.7647">
        <ele>1576</ele>
        <time>2022-05-23 00:00:40</time>
      </trkpt>
      <trkpt lat="42.61806" lon="0.7647">
        <ele>1575.8</ele>
        <time>2022-05-23 00:00:41</time>
      </trkpt>
      <trkpt lat="42.61796" lon="0.76469">
        <ele>1575.6</ele>
        <time>2022-05-23 00:00:42</time>
      </trkpt>
      <trkpt lat="42.61786" lon="0.76467">
        <ele>1575.2</ele>
        <time>2022-05-23 00:00:43</time>
      </trkpt>
      <trkpt lat="42.61777" lon="0.76467">
        <ele>1575</ele>
        <time>2022-05-23 00:00:44</time>
      </trkpt>
      <trkpt lat="42.61768" lon="0.76466">
        <ele>1574.6</ele>
        <time>2022-05-23 00:00:45</time>
      </trkpt>
      <trkpt lat="42.61759" lon="0.76466">
        <ele>1574.2</ele>
        <time>2022-05-23 00:00:46</time>
      </trkpt>
      <trkpt lat="42.61749" lon="0.76465">
        <ele>1574</ele>
        <time>2022-05-23 00:00:47</time>
      </trkpt>
      <trkpt lat="42.6174" lon="0.76465">
        <ele>1573.8</ele>
        <time>2022-05-23 00:00:48</time>
      </trkpt>
      <trkpt lat="42.61732" lon="0.76465">
        <ele>1573.6</ele>
        <time>2022-05-23 00:00:49</time>
      </trkpt>
      <trkpt lat="42.61723" lon="0.76466">
        <ele>1573.4</ele>
        <time>2022-05-23 00:00:50</time>
      </trkpt>
      <trkpt lat="42.61715" lon="0.76467">
        <ele>1573.2</ele>
        <time>2022-05-23 00:00:51</time>
      </trkpt>
      <trkpt lat="42.61706" lon="0.76468">
        <ele>1572.8</ele>
        <time>2022-05-23 00:00:52</time>
      </trkpt>
      <trkpt lat="42.61699" lon="0.7647">
        <ele>1572.6</ele>
        <time>2022-05-23 00:00:53</time>
      </trkpt>
      <trkpt lat="42.61691" lon="0.76471">
        <ele>1572.4</ele>
        <time>2022-05-23 00:00:54</time>
      </trkpt>
      <trkpt lat="42.61684" lon="0.76473">
        <ele>1572.2</ele>
        <time>2022-05-23 00:00:55</time>
      </trkpt>
      <trkpt lat="42.61676" lon="0.76475">
        <ele>1572</ele>
        <time>2022-05-23 00:00:56</time>
      </trkpt>
      <trkpt lat="42.61669" lon="0.76478">
        <ele>1572</ele>
        <time>2022-05-23 00:00:57</time>
      </trkpt>
      <trkpt lat="42.61662" lon="0.76481">
        <ele>1571.6</ele>
        <time>2022-05-23 00:00:58</time>
      </trkpt>
      <trkpt lat="42.61655" lon="0.76484">
        <ele>1571.6</ele>
        <time>2022-05-23 00:00:59</time>
      </trkpt>
      <trkpt lat="42.61648" lon="0.76487">
        <ele>1571.4</ele>
        <time>2022-05-23 00:01:00</time>
      </trkpt>
      <trkpt lat="42.61642" lon="0.7649">
        <ele>1571.2</ele>
        <time>2022-05-23 00:01:01</time>
      </trkpt>
      <trkpt lat="42.61635" lon="0.76494">
        <ele>1571.2</ele>
        <time>2022-05-23 00:01:02</time>
      </trkpt>
      <trkpt lat="42.61629" lon="0.76497">
        <ele>1571</ele>
        <time>2022-05-23 00:01:03</time>
      </trkpt>
      <trkpt lat="42.61623" lon="0.765">
        <ele>1570.6</ele>
        <time>2022-05-23 00:01:04</time>
      </trkpt>
      <trkpt lat="42.61617" lon="0.76503">
        <ele>1570.4</ele>
        <time>2022-05-23 00:01:05</time>
      </trkpt>
      <trkpt lat="42.61611" lon="0.76506">
        <ele>1570.2</ele>
        <time>2022-05-23 00:01:06</time>
      </trkpt>
      <trkpt lat="42.61605" lon="0.76509">
        <ele>1570.2</ele>
        <time>2022-05-23 00:01:07</time>
      </trkpt>
      <trkpt lat="42.61599" lon="0.76512">
        <ele>1570.2</ele>
        <time>2022-05-23 00:01:08</time>
      </trkpt>
      <trkpt lat="42.61592" lon="0.76515">
        <ele>1570</ele>
        <time>2022-05-23 00:01:09</time>
      </trkpt>
      <trkpt lat="42.61586" lon="0.76518">
        <ele>1570</ele>
        <time>2022-05-23 00:01:10</time>
      </trkpt>
      <trkpt lat="42.6158" lon="0.76521">
        <ele>1569.6</ele>
        <time>2022-05-23 00:01:11</time>
      </trkpt>
      <trkpt lat="42.61574" lon="0.76524">
        <ele>1569.2</ele>
        <time>2022-05-23 00:01:12</time>
      </trkpt>
      <trkpt lat="42.61568" lon="0.76526">
        <ele>1568.8</ele>
        <time>2022-05-23 00:01:13</time>
      </trkpt>
      <trkpt lat="42.61562" lon="0.76528">
        <ele>1568.4</ele>
        <time>2022-05-23 00:01:14</time>
      </trkpt>
      <trkpt lat="42.61556" lon="0.76531">
        <ele>1568</ele>
        <time>2022-05-23 00:01:15</time>
      </trkpt>
      <trkpt lat="42.6155" lon="0.76534">
        <ele>1567.8</ele>
        <time>2022-05-23 00:01:16</time>
      </trkpt>
      <trkpt lat="42.61544" lon="0.76537">
        <ele>1567.4</ele>
        <time>2022-05-23 00:01:17</time>
      </trkpt>
      <trkpt lat="42.61537" lon="0.76539">
        <ele>1567.2</ele>
        <time>2022-05-23 00:01:18</time>
      </trkpt>
      <trkpt lat="42.61531" lon="0.76541">
        <ele>1567</ele>
        <time>2022-05-23 00:01:19</time>
      </trkpt>
      <trkpt lat="42.61525" lon="0.76543">
        <ele>1566.8</ele>
        <time>2022-05-23 00:01:20</time>
      </trkpt>
      <trkpt lat="42.61519" lon="0.76545">
        <ele>1566.4</ele>
        <time>2022-05-23 00:01:21</time>
      </trkpt>
      <trkpt lat="42.61512" lon="0.76547">
        <ele>1566</ele>
        <time>2022-05-23 00:01:22</time>
      </trkpt>
      <trkpt lat="42.61506" lon="0.76549">
        <ele>1565.8</ele>
        <time>2022-05-23 00:01:23</time>
      </trkpt>
      <trkpt lat="42.615" lon="0.76551">
        <ele>1565.2</ele>
        <time>2022-05-23 00:01:24</time>
      </trkpt>
      <trkpt lat="42.61494" lon="0.76553">
        <ele>1565</ele>
        <time>2022-05-23 00:01:25</time>
      </trkpt>
      <trkpt lat="42.61487" lon="0.76555">
        <ele>1564.8</ele>
        <time>2022-05-23 00:01:26</time>
      </trkpt>
      <trkpt lat="42.61481" lon="0.76557">
        <ele>1564.8</ele>
        <time>2022-05-23 00:01:27</time>
      </trkpt>
      <trkpt lat="42.61474" lon="0.76558">
        <ele>1564.6</ele>
        <time>2022-05-23 00:01:28</time>
      </trkpt>
      <trkpt lat="42.61468" lon="0.7656">
        <ele>1564.4</ele>
        <time>2022-05-23 00:01:29</time>
      </trkpt>
      <trkpt lat="42.61462" lon="0.76561">
        <ele>1564.2</ele>
        <time>2022-05-23 00:01:30</time>
      </trkpt>
      <trkpt lat="42.61456" lon="0.76563">
        <ele>1564</ele>
        <time>2022-05-23 00:01:31</time>
      </trkpt>
      <trkpt lat="42.6145" lon="0.76565">
        <ele>1563.6</ele>
        <time>2022-05-23 00:01:32</time>
      </trkpt>
      <trkpt lat="42.61443" lon="0.76567">
        <ele>1563.4</ele>
        <time>2022-05-23 00:01:33</time>
      </trkpt>
      <trkpt lat="42.61437" lon="0.76568">
        <ele>1563.2</ele>
        <time>2022-05-23 00:01:34</time>
      </trkpt>
      <trkpt lat="42.6143" lon="0.7657">
        <ele>1563</ele>
        <time>2022-05-23 00:01:35</time>
      </trkpt>
      <trkpt lat="42.61424" lon="0.76571">
        <ele>1562.8</ele>
        <time>2022-05-23 00:01:36</time>
      </trkpt>
      <trkpt lat="42.61417" lon="0.76573">
        <ele>1562.6</ele>
        <time>2022-05-23 00:01:37</time>
      </trkpt>
      <trkpt lat="42.6141" lon="0.76575">
        <ele>1562.4</ele>
        <time>2022-05-23 00:01:38</time>
      </trkpt>
      <trkpt lat="42.61404" lon="0.76576">
        <ele>1562.2</ele>
        <time>2022-05-23 00:01:39</time>
      </trkpt>
      <trkpt lat="42.61397" lon="0.76577">
        <ele>1561.6</ele>
        <time>2022-05-23 00:01:40</time>
      </trkpt>
      <trkpt lat="42.6139" lon="0.76579">
        <ele>1561.2</ele>
        <time>2022-05-23 00:01:41</time>
      </trkpt>
      <trkpt lat="42.61383" lon="0.7658">
        <ele>1560.8</ele>
        <time>2022-05-23 00:01:42</time>
      </trkpt>
      <trkpt lat="42.61376" lon="0.76582">
        <ele>1560.4</ele>
        <time>2022-05-23 00:01:43</time>
      </trkpt>
      <trkpt lat="42.6137" lon="0.76584">
        <ele>1559.8</ele>
        <time>2022-05-23 00:01:44</time>
      </trkpt>
      <trkpt lat="42.61362" lon="0.76585">
        <ele>1559.4</ele>
        <time>2022-05-23 00:01:45</time>
      </trkpt>
      <trkpt lat="42.61356" lon="0.76587">
        <ele>1559</ele>
        <time>2022-05-23 00:01:46</time>
      </trkpt>
      <trkpt lat="42.61349" lon="0.76588">
        <ele>1558.4</ele>
        <time>2022-05-23 00:01:47</time>
      </trkpt>
      <trkpt lat="42.61342" lon="0.7659">
        <ele>1558</ele>
        <time>2022-05-23 00:01:48</time>
      </trkpt>
      <trkpt lat="42.61334" lon="0.76592">
        <ele>1557.8</ele>
        <time>2022-05-23 00:01:49</time>
      </trkpt>
      <trkpt lat="42.61327" lon="0.76594">
        <ele>1557.2</ele>
        <time>2022-05-23 00:01:50</time>
      </trkpt>
      <trkpt lat="42.6132" lon="0.76596">
        <ele>1556.6</ele>
        <time>2022-05-23 00:01:51</time>
      </trkpt>
      <trkpt lat="42.61314" lon="0.76597">
        <ele>1556.4</ele>
        <time>2022-05-23 00:01:52</time>
      </trkpt>
      <trkpt lat="42.61308" lon="0.76598">
        <ele>1556</ele>
        <time>2022-05-23 00:01:53</time>
      </trkpt>
      <trkpt lat="42.613" lon="0.766">
        <ele>1555.6</ele>
        <time>2022-05-23 00:01:54</time>
      </trkpt>
      <trkpt lat="42.61292" lon="0.76602">
        <ele>1555.4</ele>
        <time>2022-05-23 00:01:55</time>
      </trkpt>
      <trkpt lat="42.61284" lon="0.76604">
        <ele>1555</ele>
        <time>2022-05-23 00:01:56</time>
      </trkpt>
      <trkpt lat="42.61277" lon="0.76606">
        <ele>1554.6</ele>
        <time>2022-05-23 00:01:57</time>
      </trkpt>
      <trkpt lat="42.61269" lon="0.76607">
        <ele>1554.2</ele>
        <time>2022-05-23 00:01:58</time>
      </trkpt>
      <trkpt lat="42.61262" lon="0.76609">
        <ele>1554</ele>
        <time>2022-05-23 00:01:59</time>
      </trkpt>
      <trkpt lat="42.61254" lon="0.7661">
        <ele>1553.8</ele>
        <time>2022-05-23 00:02:00</time>
      </trkpt>
      <trkpt lat="42.61246" lon="0.76612">
        <ele>1553.4</ele>
        <time>2022-05-23 00:02:01</time>
      </trkpt>
      <trkpt lat="42.61238" lon="0.76614">
        <ele>1553.2</ele>
        <time>2022-05-23 00:02:02</time>
      </trkpt>
      <trkpt lat="42.61231" lon="0.76616">
        <ele>1553</ele>
        <time>2022-05-23 00:02:03</time>
      </trkpt>
      <trkpt lat="42.61223" lon="0.76617">
        <ele>1552.8</ele>
        <time>2022-05-23 00:02:04</time>
      </trkpt>
      <trkpt lat="42.61216" lon="0.76619">
        <ele>1552.6</ele>
        <time>2022-05-23 00:02:05</time>
      </trkpt>
      <trkpt lat="42.61209" lon="0.7662">
        <ele>1552.2</ele>
        <time>2022-05-23 00:02:06</time>
      </trkpt>
      <trkpt lat="42.61201" lon="0.76622">
        <ele>1552</ele>
        <time>2022-05-23 00:02:07</time>
      </trkpt>
      <trkpt lat="42.61194" lon="0.76624">
        <ele>1551.8</ele>
        <time>2022-05-23 00:02:08</time>
      </trkpt>
      <trkpt lat="42.61186" lon="0.76626">
        <ele>1551.4</ele>
        <time>2022-05-23 00:02:09</time>
      </trkpt>
      <trkpt lat="42.61179" lon="0.76628">
        <ele>1551</ele>
        <time>2022-05-23 00:02:10</time>
      </trkpt>
      <trkpt lat="42.61171" lon="0.7663">
        <ele>1550.6</ele>
        <time>2022-05-23 00:02:11</time>
      </trkpt>
      <trkpt lat="42.61164" lon="0.76631">
        <ele>1550</ele>
        <time>2022-05-23 00:02:12</time>
      </trkpt>
      <trkpt lat="42.61155" lon="0.76633">
        <ele>1549.4</ele>
        <time>2022-05-23 00:02:13</time>
      </trkpt>
      <trkpt lat="42.61147" lon="0.76635">
        <ele>1549</ele>
        <time>2022-05-23 00:02:14</time>
      </trkpt>
      <trkpt lat="42.61139" lon="0.76637">
        <ele>1548.6</ele>
        <time>2022-05-23 00:02:15</time>
      </trkpt>
      <trkpt lat="42.61131" lon="0.76639">
        <ele>1548.2</ele>
        <time>2022-05-23 00:02:16</time>
      </trkpt>
      <trkpt lat="42.61123" lon="0.76641">
        <ele>1547.6</ele>
        <time>2022-05-23 00:02:17</time>
      </trkpt>
      <trkpt lat="42.61114" lon="0.76643">
        <ele>1547</ele>
        <time>2022-05-23 00:02:18</time>
      </trkpt>
      <trkpt lat="42.61106" lon="0.76645">
        <ele>1546.6</ele>
        <time>2022-05-23 00:02:19</time>
      </trkpt>
      <trkpt lat="42.61097" lon="0.76647">
        <ele>1546.2</ele>
        <time>2022-05-23 00:02:20</time>
      </trkpt>
      <trkpt lat="42.61088" lon="0.76649">
        <ele>1545.8</ele>
        <time>2022-05-23 00:02:21</time>
      </trkpt>
      <trkpt lat="42.61079" lon="0.7665">
        <ele>1545.2</ele>
        <time>2022-05-23 00:02:22</time>
      </trkpt>
      <trkpt lat="42.6107" lon="0.76652">
        <ele>1544.6</ele>
        <time>2022-05-23 00:02:23</time>
      </trkpt>
      <trkpt lat="42.6106" lon="0.76654">
        <ele>1544</ele>
        <time>2022-05-23 00:02:24</time>
      </trkpt>
      <trkpt lat="42.61051" lon="0.76657">
        <ele>1543.2</ele>
        <time>2022-05-23 00:02:25</time>
      </trkpt>
      <trkpt lat="42.61041" lon="0.76658">
        <ele>1542.8</ele>
        <time>2022-05-23 00:02:26</time>
      </trkpt>
      <trkpt lat="42.61031" lon="0.7666">
        <ele>1542.2</ele>
        <time>2022-05-23 00:02:27</time>
      </trkpt>
      <trkpt lat="42.6102" lon="0.76662">
        <ele>1541.6</ele>
        <time>2022-05-23 00:02:28</time>
      </trkpt>
      <trkpt lat="42.61009" lon="0.76663">
        <ele>1540.8</ele>
        <time>2022-05-23 00:02:29</time>
      </trkpt>
      <trkpt lat="42.60999" lon="0.76664">
        <ele>1539.8</ele>
        <time>2022-05-23 00:02:30</time>
      </trkpt>
      <trkpt lat="42.60988" lon="0.76664">
        <ele>1539</ele>
        <time>2022-05-23 00:02:31</time>
      </trkpt>
      <trkpt lat="42.60977" lon="0.76664">
        <ele>1538.4</ele>
        <time>2022-05-23 00:02:32</time>
      </trkpt>
      <trkpt lat="42.60966" lon="0.76664">
        <ele>1537.4</ele>
        <time>2022-05-23 00:02:33</time>
      </trkpt>
      <trkpt lat="42.60954" lon="0.76664">
        <ele>1536.4</ele>
        <time>2022-05-23 00:02:34</time>
      </trkpt>
      <trkpt lat="42.60942" lon="0.76663">
        <ele>1535.4</ele>
        <time>2022-05-23 00:02:35</time>
      </trkpt>
      <trkpt lat="42.60931" lon="0.76661">
        <ele>1534.4</ele>
        <time>2022-05-23 00:02:36</time>
      </trkpt>
      <trkpt lat="42.60919" lon="0.76659">
        <ele>1533.4</ele>
        <time>2022-05-23 00:02:37</time>
      </trkpt>
      <trkpt lat="42.60908" lon="0.76656">
        <ele>1532.4</ele>
        <time>2022-05-23 00:02:38</time>
      </trkpt>
      <trkpt lat="42.60896" lon="0.76653">
        <ele>1531.4</ele>
        <time>2022-05-23 00:02:39</time>
      </trkpt>
      <trkpt lat="42.60886" lon="0.7665">
        <ele>1530.6</ele>
        <time>2022-05-23 00:02:40</time>
      </trkpt>
      <trkpt lat="42.60874" lon="0.76646">
        <ele>1529.8</ele>
        <time>2022-05-23 00:02:41</time>
      </trkpt>
      <trkpt lat="42.60862" lon="0.76642">
        <ele>1529</ele>
        <time>2022-05-23 00:02:42</time>
      </trkpt>
      <trkpt lat="42.60852" lon="0.76638">
        <ele>1528.2</ele>
        <time>2022-05-23 00:02:43</time>
      </trkpt>
      <trkpt lat="42.6084" lon="0.76632">
        <ele>1527.4</ele>
        <time>2022-05-23 00:02:44</time>
      </trkpt>
      <trkpt lat="42.60829" lon="0.76627">
        <ele>1526.4</ele>
        <time>2022-05-23 00:02:45</time>
      </trkpt>
      <trkpt lat="42.60817" lon="0.76621">
        <ele>1525.6</ele>
        <time>2022-05-23 00:02:46</time>
      </trkpt>
      <trkpt lat="42.60806" lon="0.76615">
        <ele>1524.8</ele>
        <time>2022-05-23 00:02:47</time>
      </trkpt>
      <trkpt lat="42.60796" lon="0.76609">
        <ele>1524</ele>
        <time>2022-05-23 00:02:48</time>
      </trkpt>
      <trkpt lat="42.60784" lon="0.76604">
        <ele>1523.2</ele>
        <time>2022-05-23 00:02:49</time>
      </trkpt>
      <trkpt lat="42.60773" lon="0.766">
        <ele>1522.4</ele>
        <time>2022-05-23 00:02:50</time>
      </trkpt>
      <trkpt lat="42.60762" lon="0.76595">
        <ele>1521.6</ele>
        <time>2022-05-23 00:02:51</time>
      </trkpt>
      <trkpt lat="42.60751" lon="0.76592">
        <ele>1520.6</ele>
        <time>2022-05-23 00:02:52</time>
      </trkpt>
      <trkpt lat="42.6074" lon="0.76589">
        <ele>1519.8</ele>
        <time>2022-05-23 00:02:53</time>
      </trkpt>
      <trkpt lat="42.60728" lon="0.76586">
        <ele>1519.2</ele>
        <time>2022-05-23 00:02:54</time>
      </trkpt>
      <trkpt lat="42.60717" lon="0.76584">
        <ele>1518.8</ele>
        <time>2022-05-23 00:02:55</time>
      </trkpt>
      <trkpt lat="42.60706" lon="0.76582">
        <ele>1518.2</ele>
        <time>2022-05-23 00:02:56</time>
      </trkpt>
      <trkpt lat="42.60695" lon="0.76581">
        <ele>1517.6</ele>
        <time>2022-05-23 00:02:57</time>
      </trkpt>
      <trkpt lat="42.60686" lon="0.76581">
        <ele>1517</ele>
        <time>2022-05-23 00:02:58</time>
      </trkpt>
      <trkpt lat="42.60674" lon="0.76583">
        <ele>1516.4</ele>
        <time>2022-05-23 00:02:59</time>
      </trkpt>
      <trkpt lat="42.60663" lon="0.76585">
        <ele>1515.8</ele>
        <time>2022-05-23 00:03:00</time>
      </trkpt>
      <trkpt lat="42.60653" lon="0.76587">
        <ele>1515.2</ele>
        <time>2022-05-23 00:03:01</time>
      </trkpt>
      <trkpt lat="42.60643" lon="0.76589">
        <ele>1514.8</ele>
        <time>2022-05-23 00:03:02</time>
      </trkpt>
      <trkpt lat="42.60634" lon="0.76591">
        <ele>1514.4</ele>
        <time>2022-05-23 00:03:03</time>
      </trkpt>
      <trkpt lat="42.60623" lon="0.76594">
        <ele>1513.8</ele>
        <time>2022-05-23 00:03:04</time>
      </trkpt>
      <trkpt lat="42.60613" lon="0.76597">
        <ele>1513.2</ele>
        <time>2022-05-23 00:03:05</time>
      </trkpt>
      <trkpt lat="42.60602" lon="0.766">
        <ele>1512.8</ele>
        <time>2022-05-23 00:03:06</time>
      </trkpt>
      <trkpt lat="42.60592" lon="0.76603">
        <ele>1512</ele>
        <time>2022-05-23 00:03:07</time>
      </trkpt>
      <trkpt lat="42.60581" lon="0.76606">
        <ele>1511</ele>
        <time>2022-05-23 00:03:08</time>
      </trkpt>
      <trkpt lat="42.6057" lon="0.76608">
        <ele>1510.4</ele>
        <time>2022-05-23 00:03:09</time>
      </trkpt>
      <trkpt lat="42.60559" lon="0.7661">
        <ele>1509.4</ele>
        <time>2022-05-23 00:03:10</time>
      </trkpt>
      <trkpt lat="42.60548" lon="0.76611">
        <ele>1508.6</ele>
        <time>2022-05-23 00:03:11</time>
      </trkpt>
      <trkpt lat="42.60537" lon="0.76611">
        <ele>1507.6</ele>
        <time>2022-05-23 00:03:12</time>
      </trkpt>
      <trkpt lat="42.60527" lon="0.76611">
        <ele>1506.6</ele>
        <time>2022-05-23 00:03:13</time>
      </trkpt>
      <trkpt lat="42.60515" lon="0.7661">
        <ele>1505.8</ele>
        <time>2022-05-23 00:03:14</time>
      </trkpt>
      <trkpt lat="42.60505" lon="0.76608">
        <ele>1504.8</ele>
        <time>2022-05-23 00:03:15</time>
      </trkpt>
      <trkpt lat="42.60494" lon="0.76606">
        <ele>1504</ele>
        <time>2022-05-23 00:03:16</time>
      </trkpt>
      <trkpt lat="42.60484" lon="0.76602">
        <ele>1503.2</ele>
        <time>2022-05-23 00:03:17</time>
      </trkpt>
      <trkpt lat="42.60474" lon="0.76598">
        <ele>1502.4</ele>
        <time>2022-05-23 00:03:18</time>
      </trkpt>
      <trkpt lat="42.60463" lon="0.76594">
        <ele>1501.6</ele>
        <time>2022-05-23 00:03:19</time>
      </trkpt>
      <trkpt lat="42.60454" lon="0.76589">
        <ele>1501</ele>
        <time>2022-05-23 00:03:20</time>
      </trkpt>
      <trkpt lat="42.60443" lon="0.76584">
        <ele>1500.2</ele>
        <time>2022-05-23 00:03:21</time>
      </trkpt>
      <trkpt lat="42.60433" lon="0.76577">
        <ele>1499.6</ele>
        <time>2022-05-23 00:03:22</time>
      </trkpt>
      <trkpt lat="42.60424" lon="0.7657">
        <ele>1499</ele>
        <time>2022-05-23 00:03:23</time>
      </trkpt>
      <trkpt lat="42.60414" lon="0.76562">
        <ele>1498.4</ele>
        <time>2022-05-23 00:03:24</time>
      </trkpt>
      <trkpt lat="42.60405" lon="0.76554">
        <ele>1497.8</ele>
        <time>2022-05-23 00:03:25</time>
      </trkpt>
      <trkpt lat="42.60396" lon="0.76545">
        <ele>1497</ele>
        <time>2022-05-23 00:03:26</time>
      </trkpt>
      <trkpt lat="42.60387" lon="0.76536">
        <ele>1496</ele>
        <time>2022-05-23 00:03:27</time>
      </trkpt>
      <trkpt lat="42.6038" lon="0.76528">
        <ele>1495.4</ele>
        <time>2022-05-23 00:03:28</time>
      </trkpt>
      <trkpt lat="42.60371" lon="0.76518">
        <ele>1494.8</ele>
        <time>2022-05-23 00:03:29</time>
      </trkpt>
      <trkpt lat="42.60362" lon="0.76508">
        <ele>1494.2</ele>
        <time>2022-05-23 00:03:30</time>
      </trkpt>
      <trkpt lat="42.60353" lon="0.76499">
        <ele>1493.6</ele>
        <time>2022-05-23 00:03:31</time>
      </trkpt>
      <trkpt lat="42.60344" lon="0.7649">
        <ele>1493</ele>
        <time>2022-05-23 00:03:32</time>
      </trkpt>
      <trkpt lat="42.60336" lon="0.76481">
        <ele>1492.6</ele>
        <time>2022-05-23 00:03:33</time>
      </trkpt>
      <trkpt lat="42.60328" lon="0.76473">
        <ele>1492.2</ele>
        <time>2022-05-23 00:03:34</time>
      </trkpt>
      <trkpt lat="42.6032" lon="0.76464">
        <ele>1491.8</ele>
        <time>2022-05-23 00:03:35</time>
      </trkpt>
      <trkpt lat="42.60312" lon="0.76455">
        <ele>1491</ele>
        <time>2022-05-23 00:03:36</time>
      </trkpt>
      <trkpt lat="42.60304" lon="0.76447">
        <ele>1490.4</ele>
        <time>2022-05-23 00:03:37</time>
      </trkpt>
      <trkpt lat="42.60296" lon="0.76439">
        <ele>1490</ele>
        <time>2022-05-23 00:03:38</time>
      </trkpt>
      <trkpt lat="42.60289" lon="0.76431">
        <ele>1489.6</ele>
        <time>2022-05-23 00:03:39</time>
      </trkpt>
      <trkpt lat="42.60281" lon="0.76424">
        <ele>1489.2</ele>
        <time>2022-05-23 00:03:40</time>
      </trkpt>
      <trkpt lat="42.60274" lon="0.76417">
        <ele>1489.2</ele>
        <time>2022-05-23 00:03:41</time>
      </trkpt>
      <trkpt lat="42.60267" lon="0.76411">
        <ele>1488.6</ele>
        <time>2022-05-23 00:03:42</time>
      </trkpt>
      <trkpt lat="42.6026" lon="0.76405">
        <ele>1488.2</ele>
        <time>2022-05-23 00:03:43</time>
      </trkpt>
      <trkpt lat="42.60253" lon="0.76399">
        <ele>1487.6</ele>
        <time>2022-05-23 00:03:44</time>
      </trkpt>
      <trkpt lat="42.60246" lon="0.76394">
        <ele>1487.4</ele>
        <time>2022-05-23 00:03:45</time>
      </trkpt>
      <trkpt lat="42.60238" lon="0.76389">
        <ele>1487.2</ele>
        <time>2022-05-23 00:03:46</time>
      </trkpt>
      <trkpt lat="42.60231" lon="0.76385">
        <ele>1487</ele>
        <time>2022-05-23 00:03:47</time>
      </trkpt>
      <trkpt lat="42.60224" lon="0.7638">
        <ele>1486.8</ele>
        <time>2022-05-23 00:03:48</time>
      </trkpt>
      <trkpt lat="42.60217" lon="0.76376">
        <ele>1486.6</ele>
        <time>2022-05-23 00:03:49</time>
      </trkpt>
      <trkpt lat="42.6021" lon="0.76372">
        <ele>1486.6</ele>
        <time>2022-05-23 00:03:50</time>
      </trkpt>
      <trkpt lat="42.60203" lon="0.76369">
        <ele>1486.2</ele>
        <time>2022-05-23 00:03:51</time>
      </trkpt>
      <trkpt lat="42.60196" lon="0.76366">
        <ele>1485.8</ele>
        <time>2022-05-23 00:03:52</time>
      </trkpt>
      <trkpt lat="42.60189" lon="0.76362">
        <ele>1485.2</ele>
        <time>2022-05-23 00:03:53</time>
      </trkpt>
      <trkpt lat="42.60182" lon="0.76359">
        <ele>1484.8</ele>
        <time>2022-05-23 00:03:54</time>
      </trkpt>
      <trkpt lat="42.60174" lon="0.76356">
        <ele>1484.4</ele>
        <time>2022-05-23 00:03:55</time>
      </trkpt>
      <trkpt lat="42.60167" lon="0.76354">
        <ele>1484.2</ele>
        <time>2022-05-23 00:03:56</time>
      </trkpt>
      <trkpt lat="42.6016" lon="0.76352">
        <ele>1484</ele>
        <time>2022-05-23 00:03:57</time>
      </trkpt>
      <trkpt lat="42.60152" lon="0.7635">
        <ele>1483.8</ele>
        <time>2022-05-23 00:03:58</time>
      </trkpt>
      <trkpt lat="42.60144" lon="0.76348">
        <ele>1483.6</ele>
        <time>2022-05-23 00:03:59</time>
      </trkpt>
      <trkpt lat="42.60138" lon="0.76347">
        <ele>1483.6</ele>
        <time>2022-05-23 00:04:00</time>
      </trkpt>
      <trkpt lat="42.6013" lon="0.76346">
        <ele>1483.4</ele>
        <time>2022-05-23 00:04:01</time>
      </trkpt>
      <trkpt lat="42.60123" lon="0.76345">
        <ele>1483.2</ele>
        <time>2022-05-23 00:04:02</time>
      </trkpt>
      <trkpt lat="42.60117" lon="0.76344">
        <ele>1483</ele>
        <time>2022-05-23 00:04:03</time>
      </trkpt>
      <trkpt lat="42.6011" lon="0.76344">
        <ele>1482.8</ele>
        <time>2022-05-23 00:04:04</time>
      </trkpt>
      <trkpt lat="42.60103" lon="0.76343">
        <ele>1482.2</ele>
        <time>2022-05-23 00:04:05</time>
      </trkpt>
      <trkpt lat="42.60096" lon="0.76343">
        <ele>1481.8</ele>
        <time>2022-05-23 00:04:06</time>
      </trkpt>
      <trkpt lat="42.6009" lon="0.76342">
        <ele>1481.6</ele>
        <time>2022-05-23 00:04:07</time>
      </trkpt>
      <trkpt lat="42.60083" lon="0.76342">
        <ele>1481.4</ele>
        <time>2022-05-23 00:04:08</time>
      </trkpt>
      <trkpt lat="42.60076" lon="0.76342">
        <ele>1481.6</ele>
        <time>2022-05-23 00:04:09</time>
      </trkpt>
      <trkpt lat="42.6007" lon="0.76342">
        <ele>1481.4</ele>
        <time>2022-05-23 00:04:10</time>
      </trkpt>
      <trkpt lat="42.60063" lon="0.76342">
        <ele>1481</ele>
        <time>2022-05-23 00:04:11</time>
      </trkpt>
      <trkpt lat="42.60057" lon="0.76342">
        <ele>1480.6</ele>
        <time>2022-05-23 00:04:12</time>
      </trkpt>
      <trkpt lat="42.60051" lon="0.76342">
        <ele>1480.6</ele>
        <time>2022-05-23 00:04:13</time>
      </trkpt>
      <trkpt lat="42.60044" lon="0.76342">
        <ele>1480.4</ele>
        <time>2022-05-23 00:04:14</time>
      </trkpt>
      <trkpt lat="42.60038" lon="0.76341">
        <ele>1480.2</ele>
        <time>2022-05-23 00:04:15</time>
      </trkpt>
      <trkpt lat="42.60032" lon="0.76341">
        <ele>1480</ele>
        <time>2022-05-23 00:04:16</time>
      </trkpt>
      <trkpt lat="42.60025" lon="0.76341">
        <ele>1479.4</ele>
        <time>2022-05-23 00:04:17</time>
      </trkpt>
      <trkpt lat="42.60019" lon="0.7634">
        <ele>1479</ele>
        <time>2022-05-23 00:04:18</time>
      </trkpt>
      <trkpt lat="42.60013" lon="0.7634">
        <ele>1478.6</ele>
        <time>2022-05-23 00:04:19</time>
      </trkpt>
      <trkpt lat="42.60007" lon="0.7634">
        <ele>1478.4</ele>
        <time>2022-05-23 00:04:20</time>
      </trkpt>
      <trkpt lat="42.60001" lon="0.7634">
        <ele>1478.2</ele>
        <time>2022-05-23 00:04:21</time>
      </trkpt>
      <trkpt lat="42.59995" lon="0.7634">
        <ele>1478</ele>
        <time>2022-05-23 00:04:22</time>
      </trkpt>
      <trkpt lat="42.59989" lon="0.76339">
        <ele>1478</ele>
        <time>2022-05-23 00:04:23</time>
      </trkpt>
      <trkpt lat="42.59984" lon="0.76338">
        <ele>1477.8</ele>
        <time>2022-05-23 00:04:24</time>
      </trkpt>
      <trkpt lat="42.59978" lon="0.76338">
        <ele>1477.6</ele>
        <time>2022-05-23 00:04:25</time>
      </trkpt>
      <trkpt lat="42.59973" lon="0.76337">
        <ele>1477.4</ele>
        <time>2022-05-23 00:04:26</time>
      </trkpt>
      <trkpt lat="42.59967" lon="0.76337">
        <ele>1477</ele>
        <time>2022-05-23 00:04:27</time>
      </trkpt>
      <trkpt lat="42.59961" lon="0.76337">
        <ele>1477</ele>
        <time>2022-05-23 00:04:28</time>
      </trkpt>
      <trkpt lat="42.59955" lon="0.76337">
        <ele>1476.8</ele>
        <time>2022-05-23 00:04:29</time>
      </trkpt>
      <trkpt lat="42.5995" lon="0.76338">
        <ele>1476.6</ele>
        <time>2022-05-23 00:04:30</time>
      </trkpt>
      <trkpt lat="42.59944" lon="0.76338">
        <ele>1476.2</ele>
        <time>2022-05-23 00:04:31</time>
      </trkpt>
      <trkpt lat="42.59938" lon="0.76337">
        <ele>1476</ele>
        <time>2022-05-23 00:04:32</time>
      </trkpt>
      <trkpt lat="42.59933" lon="0.76335">
        <ele>1475.6</ele>
        <time>2022-05-23 00:04:33</time>
      </trkpt>
      <trkpt lat="42.59927" lon="0.76334">
        <ele>1475.4</ele>
        <time>2022-05-23 00:04:34</time>
      </trkpt>
      <trkpt lat="42.59922" lon="0.76332">
        <ele>1475.2</ele>
        <time>2022-05-23 00:04:35</time>
      </trkpt>
      <trkpt lat="42.59917" lon="0.7633">
        <ele>1475.2</ele>
        <time>2022-05-23 00:04:36</time>
      </trkpt>
      <trkpt lat="42.59912" lon="0.76329">
        <ele>1475</ele>
        <time>2022-05-23 00:04:37</time>
      </trkpt>
      <trkpt lat="42.59907" lon="0.76328">
        <ele>1474.6</ele>
        <time>2022-05-23 00:04:38</time>
      </trkpt>
      <trkpt lat="42.59902" lon="0.76326">
        <ele>1474</ele>
        <time>2022-05-23 00:04:39</time>
      </trkpt>
      <trkpt lat="42.59897" lon="0.76325">
        <ele>1473.6</ele>
        <time>2022-05-23 00:04:40</time>
      </trkpt>
      <trkpt lat="42.59892" lon="0.76322">
        <ele>1473.2</ele>
        <time>2022-05-23 00:04:41</time>
      </trkpt>
      <trkpt lat="42.59887" lon="0.7632">
        <ele>1473</ele>
        <time>2022-05-23 00:04:42</time>
      </trkpt>
      <trkpt lat="42.59882" lon="0.76317">
        <ele>1472.6</ele>
        <time>2022-05-23 00:04:43</time>
      </trkpt>
      <trkpt lat="42.59877" lon="0.76315">
        <ele>1472.4</ele>
        <time>2022-05-23 00:04:44</time>
      </trkpt>
      <trkpt lat="42.59872" lon="0.76312">
        <ele>1472.2</ele>
        <time>2022-05-23 00:04:45</time>
      </trkpt>
      <trkpt lat="42.59867" lon="0.76309">
        <ele>1471.8</ele>
        <time>2022-05-23 00:04:46</time>
      </trkpt>
      <trkpt lat="42.59861" lon="0.76306">
        <ele>1471.6</ele>
        <time>2022-05-23 00:04:47</time>
      </trkpt>
      <trkpt lat="42.59856" lon="0.76302">
        <ele>1471.2</ele>
        <time>2022-05-23 00:04:48</time>
      </trkpt>
      <trkpt lat="42.5985" lon="0.76299">
        <ele>1470.8</ele>
        <time>2022-05-23 00:04:49</time>
      </trkpt>
      <trkpt lat="42.59844" lon="0.76295">
        <ele>1470.4</ele>
        <time>2022-05-23 00:04:50</time>
      </trkpt>
      <trkpt lat="42.59839" lon="0.7629">
        <ele>1469.6</ele>
        <time>2022-05-23 00:04:51</time>
      </trkpt>
      <trkpt lat="42.59833" lon="0.76286">
        <ele>1469</ele>
        <time>2022-05-23 00:04:52</time>
      </trkpt>
      <trkpt lat="42.59826" lon="0.76282">
        <ele>1468.4</ele>
        <time>2022-05-23 00:04:53</time>
      </trkpt>
      <trkpt lat="42.59821" lon="0.76277">
        <ele>1467.8</ele>
        <time>2022-05-23 00:04:54</time>
      </trkpt>
      <trkpt lat="42.59815" lon="0.76272">
        <ele>1467.2</ele>
        <time>2022-05-23 00:04:55</time>
      </trkpt>
      <trkpt lat="42.59809" lon="0.76266">
        <ele>1466.6</ele>
        <time>2022-05-23 00:04:56</time>
      </trkpt>
      <trkpt lat="42.59803" lon="0.76259">
        <ele>1466</ele>
        <time>2022-05-23 00:04:57</time>
      </trkpt>
      <trkpt lat="42.59797" lon="0.76253">
        <ele>1465.4</ele>
        <time>2022-05-23 00:04:58</time>
      </trkpt>
      <trkpt lat="42.59791" lon="0.76246">
        <ele>1464.8</ele>
        <time>2022-05-23 00:04:59</time>
      </trkpt>
      <trkpt lat="42.59785" lon="0.76238">
        <ele>1464.2</ele>
        <time>2022-05-23 00:05:00</time>
      </trkpt>
      <trkpt lat="42.59779" lon="0.7623">
        <ele>1463.6</ele>
        <time>2022-05-23 00:05:01</time>
      </trkpt>
      <trkpt lat="42.59773" lon="0.76221">
        <ele>1463</ele>
        <time>2022-05-23 00:05:02</time>
      </trkpt>
      <trkpt lat="42.59767" lon="0.76213">
        <ele>1462.2</ele>
        <time>2022-05-23 00:05:03</time>
      </trkpt>
      <trkpt lat="42.59761" lon="0.76204">
        <ele>1461.6</ele>
        <time>2022-05-23 00:05:04</time>
      </trkpt>
      <trkpt lat="42.59755" lon="0.76195">
        <ele>1461</ele>
        <time>2022-05-23 00:05:05</time>
      </trkpt>
      <trkpt lat="42.59749" lon="0.76185">
        <ele>1460.2</ele>
        <time>2022-05-23 00:05:06</time>
      </trkpt>
      <trkpt lat="42.59743" lon="0.76175">
        <ele>1459.4</ele>
        <time>2022-05-23 00:05:07</time>
      </trkpt>
      <trkpt lat="42.59737" lon="0.76166">
        <ele>1458.6</ele>
        <time>2022-05-23 00:05:08</time>
      </trkpt>
      <trkpt lat="42.5973" lon="0.76156">
        <ele>1457.8</ele>
        <time>2022-05-23 00:05:09</time>
      </trkpt>
      <trkpt lat="42.59724" lon="0.76147">
        <ele>1457</ele>
        <time>2022-05-23 00:05:10</time>
      </trkpt>
      <trkpt lat="42.59718" lon="0.76138">
        <ele>1456.4</ele>
        <time>2022-05-23 00:05:11</time>
      </trkpt>
      <trkpt lat="42.59712" lon="0.76129">
        <ele>1455.8</ele>
        <time>2022-05-23 00:05:12</time>
      </trkpt>
      <trkpt lat="42.59707" lon="0.76119">
        <ele>1455.2</ele>
        <time>2022-05-23 00:05:13</time>
      </trkpt>
      <trkpt lat="42.59702" lon="0.7611">
        <ele>1454.6</ele>
        <time>2022-05-23 00:05:14</time>
      </trkpt>
      <trkpt lat="42.59697" lon="0.761">
        <ele>1454</ele>
        <time>2022-05-23 00:05:15</time>
      </trkpt>
      <trkpt lat="42.59693" lon="0.7609">
        <ele>1453.4</ele>
        <time>2022-05-23 00:05:16</time>
      </trkpt>
      <trkpt lat="42.59689" lon="0.76079">
        <ele>1452.8</ele>
        <time>2022-05-23 00:05:17</time>
      </trkpt>
      <trkpt lat="42.59686" lon="0.7607">
        <ele>1452.4</ele>
        <time>2022-05-23 00:05:18</time>
      </trkpt>
      <trkpt lat="42.59682" lon="0.76059">
        <ele>1452</ele>
        <time>2022-05-23 00:05:19</time>
      </trkpt>
      <trkpt lat="42.5968" lon="0.76049">
        <ele>1451.6</ele>
        <time>2022-05-23 00:05:20</time>
      </trkpt>
      <trkpt lat="42.59678" lon="0.76039">
        <ele>1451.2</ele>
        <time>2022-05-23 00:05:21</time>
      </trkpt>
      <trkpt lat="42.59677" lon="0.76029">
        <ele>1451</ele>
        <time>2022-05-23 00:05:22</time>
      </trkpt>
      <trkpt lat="42.59675" lon="0.76019">
        <ele>1450.8</ele>
        <time>2022-05-23 00:05:23</time>
      </trkpt>
      <trkpt lat="42.59674" lon="0.76009">
        <ele>1450.6</ele>
        <time>2022-05-23 00:05:24</time>
      </trkpt>
      <trkpt lat="42.59673" lon="0.75999">
        <ele>1450.4</ele>
        <time>2022-05-23 00:05:25</time>
      </trkpt>
      <trkpt lat="42.59672" lon="0.7599">
        <ele>1450.4</ele>
        <time>2022-05-23 00:05:26</time>
      </trkpt>
      <trkpt lat="42.59672" lon="0.7598">
        <ele>1450.2</ele>
        <time>2022-05-23 00:05:27</time>
      </trkpt>
      <trkpt lat="42.59671" lon="0.75971">
        <ele>1450.2</ele>
        <time>2022-05-23 00:05:28</time>
      </trkpt>
      <trkpt lat="42.5967" lon="0.75962">
        <ele>1450.2</ele>
        <time>2022-05-23 00:05:29</time>
      </trkpt>
      <trkpt lat="42.59669" lon="0.75953">
        <ele>1450</ele>
        <time>2022-05-23 00:05:30</time>
      </trkpt>
      <trkpt lat="42.59667" lon="0.75944">
        <ele>1450</ele>
        <time>2022-05-23 00:05:31</time>
      </trkpt>
      <trkpt lat="42.59666" lon="0.75935">
        <ele>1449.8</ele>
        <time>2022-05-23 00:05:32</time>
      </trkpt>
      <trkpt lat="42.59665" lon="0.75926">
        <ele>1449.8</ele>
        <time>2022-05-23 00:05:33</time>
      </trkpt>
      <trkpt lat="42.59663" lon="0.75917">
        <ele>1449.6</ele>
        <time>2022-05-23 00:05:34</time>
      </trkpt>
      <trkpt lat="42.59662" lon="0.75908">
        <ele>1449.6</ele>
        <time>2022-05-23 00:05:35</time>
      </trkpt>
      <trkpt lat="42.5966" lon="0.75899">
        <ele>1449.4</ele>
        <time>2022-05-23 00:05:36</time>
      </trkpt>
      <trkpt lat="42.59658" lon="0.75889">
        <ele>1449.4</ele>
        <time>2022-05-23 00:05:37</time>
      </trkpt>
      <trkpt lat="42.59655" lon="0.75879">
        <ele>1449.4</ele>
        <time>2022-05-23 00:05:38</time>
      </trkpt>
      <trkpt lat="42.59651" lon="0.7587">
        <ele>1449.4</ele>
        <time>2022-05-23 00:05:39</time>
      </trkpt>
      <trkpt lat="42.59647" lon="0.75861">
        <ele>1449.2</ele>
        <time>2022-05-23 00:05:40</time>
      </trkpt>
      <trkpt lat="42.59643" lon="0.75853">
        <ele>1449.2</ele>
        <time>2022-05-23 00:05:41</time>
      </trkpt>
      <trkpt lat="42.59639" lon="0.75845">
        <ele>1449</ele>
        <time>2022-05-23 00:05:42</time>
      </trkpt>
      <trkpt lat="42.59634" lon="0.75838">
        <ele>1448.8</ele>
        <time>2022-05-23 00:05:43</time>
      </trkpt>
      <trkpt lat="42.59628" lon="0.75831">
        <ele>1448.6</ele>
        <time>2022-05-23 00:05:44</time>
      </trkpt>
      <trkpt lat="42.59622" lon="0.75825">
        <ele>1448.6</ele>
        <time>2022-05-23 00:05:45</time>
      </trkpt>
      <trkpt lat="42.59616" lon="0.75819">
        <ele>1448.6</ele>
        <time>2022-05-23 00:05:46</time>
      </trkpt>
      <trkpt lat="42.59609" lon="0.75814">
        <ele>1448.4</ele>
        <time>2022-05-23 00:05:47</time>
      </trkpt>
      <trkpt lat="42.59602" lon="0.7581">
        <ele>1448.6</ele>
        <time>2022-05-23 00:05:48</time>
      </trkpt>
      <trkpt lat="42.59595" lon="0.75806">
        <ele>1448.6</ele>
        <time>2022-05-23 00:05:49</time>
      </trkpt>
      <trkpt lat="42.59588" lon="0.75802">
        <ele>1448.4</ele>
        <time>2022-05-23 00:05:50</time>
      </trkpt>
      <trkpt lat="42.59582" lon="0.75799">
        <ele>1448.4</ele>
        <time>2022-05-23 00:05:51</time>
      </trkpt>
      <trkpt lat="42.59575" lon="0.75796">
        <ele>1448.4</ele>
        <time>2022-05-23 00:05:52</time>
      </trkpt>
      <trkpt lat="42.5957" lon="0.75794">
        <ele>1448.2</ele>
        <time>2022-05-23 00:05:53</time>
      </trkpt>
      <trkpt lat="42.59563" lon="0.75792">
        <ele>1448.2</ele>
        <time>2022-05-23 00:05:54</time>
      </trkpt>
      <trkpt lat="42.59558" lon="0.7579">
        <ele>1448.2</ele>
        <time>2022-05-23 00:05:55</time>
      </trkpt>
      <trkpt lat="42.59552" lon="0.75788">
        <ele>1448.2</ele>
        <time>2022-05-23 00:05:56</time>
      </trkpt>
      <trkpt lat="42.59547" lon="0.75786">
        <ele>1448.2</ele>
        <time>2022-05-23 00:05:57</time>
      </trkpt>
      <trkpt lat="42.59542" lon="0.75785">
        <ele>1448.2</ele>
        <time>2022-05-23 00:05:58</time>
      </trkpt>
      <trkpt lat="42.59537" lon="0.75784">
        <ele>1448.2</ele>
        <time>2022-05-23 00:05:59</time>
      </trkpt>
      <trkpt lat="42.59532" lon="0.75782">
        <ele>1448</ele>
        <time>2022-05-23 00:06:00</time>
      </trkpt>
      <trkpt lat="42.59527" lon="0.75781">
        <ele>1448</ele>
        <time>2022-05-23 00:06:01</time>
      </trkpt>
      <trkpt lat="42.59522" lon="0.7578">
        <ele>1448</ele>
        <time>2022-05-23 00:06:02</time>
      </trkpt>
      <trkpt lat="42.59516" lon="0.75779">
        <ele>1448</ele>
        <time>2022-05-23 00:06:03</time>
      </trkpt>
      <trkpt lat="42.59511" lon="0.75778">
        <ele>1448</ele>
        <time>2022-05-23 00:06:04</time>
      </trkpt>
      <trkpt lat="42.59506" lon="0.75777">
        <ele>1448</ele>
        <time>2022-05-23 00:06:05</time>
      </trkpt>
      <trkpt lat="42.59501" lon="0.75775">
        <ele>1448</ele>
        <time>2022-05-23 00:06:06</time>
      </trkpt>
      <trkpt lat="42.59496" lon="0.75774">
        <ele>1448.2</ele>
        <time>2022-05-23 00:06:07</time>
      </trkpt>
      <trkpt lat="42.59491" lon="0.75772">
        <ele>1448.2</ele>
        <time>2022-05-23 00:06:08</time>
      </trkpt>
      <trkpt lat="42.59486" lon="0.75771">
        <ele>1448.2</ele>
        <time>2022-05-23 00:06:09</time>
      </trkpt>
      <trkpt lat="42.59481" lon="0.7577">
        <ele>1448</ele>
        <time>2022-05-23 00:06:10</time>
      </trkpt>
      <trkpt lat="42.59476" lon="0.75768">
        <ele>1448</ele>
        <time>2022-05-23 00:06:11</time>
      </trkpt>
      <trkpt lat="42.5947" lon="0.75766">
        <ele>1447.8</ele>
        <time>2022-05-23 00:06:12</time>
      </trkpt>
      <trkpt lat="42.59464" lon="0.75765">
        <ele>1447.8</ele>
        <time>2022-05-23 00:06:13</time>
      </trkpt>
      <trkpt lat="42.59459" lon="0.75764">
        <ele>1447.8</ele>
        <time>2022-05-23 00:06:14</time>
      </trkpt>
      <trkpt lat="42.59453" lon="0.75763">
        <ele>1447.8</ele>
        <time>2022-05-23 00:06:15</time>
      </trkpt>
      <trkpt lat="42.59448" lon="0.75762">
        <ele>1447.8</ele>
        <time>2022-05-23 00:06:16</time>
      </trkpt>
      <trkpt lat="42.59442" lon="0.75761">
        <ele>1447.8</ele>
        <time>2022-05-23 00:06:17</time>
      </trkpt>
      <trkpt lat="42.59437" lon="0.75759">
        <ele>1447.8</ele>
        <time>2022-05-23 00:06:18</time>
      </trkpt>
      <trkpt lat="42.59432" lon="0.75759">
        <ele>1447.8</ele>
        <time>2022-05-23 00:06:19</time>
      </trkpt>
      <trkpt lat="42.59426" lon="0.75758">
        <ele>1447.8</ele>
        <time>2022-05-23 00:06:20</time>
      </trkpt>
      <trkpt lat="42.59421" lon="0.75757">
        <ele>1447.8</ele>
        <time>2022-05-23 00:06:21</time>
      </trkpt>
      <trkpt lat="42.59416" lon="0.75756">
        <ele>1447.8</ele>
        <time>2022-05-23 00:06:22</time>
      </trkpt>
      <trkpt lat="42.59411" lon="0.75755">
        <ele>1447.8</ele>
        <time>2022-05-23 00:06:23</time>
      </trkpt>
      <trkpt lat="42.59407" lon="0.75753">
        <ele>1447.8</ele>
        <time>2022-05-23 00:06:24</time>
      </trkpt>
      <trkpt lat="42.59403" lon="0.75751">
        <ele>1447.8</ele>
        <time>2022-05-23 00:06:25</time>
      </trkpt>
      <trkpt lat="42.59398" lon="0.75749">
        <ele>1447.6</ele>
        <time>2022-05-23 00:06:26</time>
      </trkpt>
      <trkpt lat="42.59394" lon="0.75748">
        <ele>1447.6</ele>
        <time>2022-05-23 00:06:27</time>
      </trkpt>
      <trkpt lat="42.59389" lon="0.75747">
        <ele>1447.4</ele>
        <time>2022-05-23 00:06:28</time>
      </trkpt>
      <trkpt lat="42.59385" lon="0.75746">
        <ele>1447.4</ele>
        <time>2022-05-23 00:06:29</time>
      </trkpt>
      <trkpt lat="42.5938" lon="0.75745">
        <ele>1447.4</ele>
        <time>2022-05-23 00:06:30</time>
      </trkpt>
      <trkpt lat="42.59376" lon="0.75744">
        <ele>1447.2</ele>
        <time>2022-05-23 00:06:31</time>
      </trkpt>
      <trkpt lat="42.59371" lon="0.75743">
        <ele>1447.2</ele>
        <time>2022-05-23 00:06:32</time>
      </trkpt>
      <trkpt lat="42.59367" lon="0.75742">
        <ele>1447.2</ele>
        <time>2022-05-23 00:06:33</time>
      </trkpt>
      <trkpt lat="42.59362" lon="0.75741">
        <ele>1447</ele>
        <time>2022-05-23 00:06:34</time>
      </trkpt>
      <trkpt lat="42.59358" lon="0.75739">
        <ele>1447</ele>
        <time>2022-05-23 00:06:35</time>
      </trkpt>
      <trkpt lat="42.59353" lon="0.75738">
        <ele>1447</ele>
        <time>2022-05-23 00:06:36</time>
      </trkpt>
      <trkpt lat="42.59349" lon="0.75737">
        <ele>1446.8</ele>
        <time>2022-05-23 00:06:37</time>
      </trkpt>
      <trkpt lat="42.59344" lon="0.75736">
        <ele>1446.8</ele>
        <time>2022-05-23 00:06:38</time>
      </trkpt>
      <trkpt lat="42.5934" lon="0.75735">
        <ele>1446.8</ele>
        <time>2022-05-23 00:06:39</time>
      </trkpt>
      <trkpt lat="42.59335" lon="0.75734">
        <ele>1446.6</ele>
        <time>2022-05-23 00:06:40</time>
      </trkpt>
      <trkpt lat="42.59331" lon="0.75732">
        <ele>1446.6</ele>
        <time>2022-05-23 00:06:41</time>
      </trkpt>
      <trkpt lat="42.59326" lon="0.75731">
        <ele>1446.6</ele>
        <time>2022-05-23 00:06:42</time>
      </trkpt>
      <trkpt lat="42.59321" lon="0.7573">
        <ele>1446.4</ele>
        <time>2022-05-23 00:06:43</time>
      </trkpt>
      <trkpt lat="42.59317" lon="0.75729">
        <ele>1446.4</ele>
        <time>2022-05-23 00:06:44</time>
      </trkpt>
      <trkpt lat="42.59312" lon="0.75728">
        <ele>1446.4</ele>
        <time>2022-05-23 00:06:45</time>
      </trkpt>
      <trkpt lat="42.59308" lon="0.75727">
        <ele>1446.2</ele>
        <time>2022-05-23 00:06:46</time>
      </trkpt>
      <trkpt lat="42.59302" lon="0.75725">
        <ele>1446.2</ele>
        <time>2022-05-23 00:06:47</time>
      </trkpt>
      <trkpt lat="42.59298" lon="0.75724">
        <ele>1446</ele>
        <time>2022-05-23 00:06:48</time>
      </trkpt>
      <trkpt lat="42.59294" lon="0.75723">
        <ele>1446</ele>
        <time>2022-05-23 00:06:49</time>
      </trkpt>
      <trkpt lat="42.59289" lon="0.75722">
        <ele>1446</ele>
        <time>2022-05-23 00:06:50</time>
      </trkpt>
      <trkpt lat="42.59285" lon="0.75721">
        <ele>1446</ele>
        <time>2022-05-23 00:06:51</time>
      </trkpt>
      <trkpt lat="42.59281" lon="0.7572">
        <ele>1445.8</ele>
        <time>2022-05-23 00:06:52</time>
      </trkpt>
      <trkpt lat="42.59276" lon="0.75719">
        <ele>1445.8</ele>
        <time>2022-05-23 00:06:53</time>
      </trkpt>
      <trkpt lat="42.59272" lon="0.75718">
        <ele>1445.8</ele>
        <time>2022-05-23 00:06:54</time>
      </trkpt>
      <trkpt lat="42.59268" lon="0.75717">
        <ele>1445.8</ele>
        <time>2022-05-23 00:06:55</time>
      </trkpt>
      <trkpt lat="42.59263" lon="0.75715">
        <ele>1445.8</ele>
        <time>2022-05-23 00:06:56</time>
      </trkpt>
      <trkpt lat="42.59259" lon="0.75714">
        <ele>1445.8</ele>
        <time>2022-05-23 00:06:57</time>
      </trkpt>
      <trkpt lat="42.59254" lon="0.75713">
        <ele>1445.6</ele>
        <time>2022-05-23 00:06:58</time>
      </trkpt>
      <trkpt lat="42.59249" lon="0.75712">
        <ele>1445.8</ele>
        <time>2022-05-23 00:06:59</time>
      </trkpt>
      <trkpt lat="42.59245" lon="0.75711">
        <ele>1445.8</ele>
        <time>2022-05-23 00:07:00</time>
      </trkpt>
      <trkpt lat="42.59241" lon="0.7571">
        <ele>1445.8</ele>
        <time>2022-05-23 00:07:01</time>
      </trkpt>
      <trkpt lat="42.59236" lon="0.7571">
        <ele>1445.8</ele>
        <time>2022-05-23 00:07:02</time>
      </trkpt>
      <trkpt lat="42.59231" lon="0.75709">
        <ele>1445.8</ele>
        <time>2022-05-23 00:07:03</time>
      </trkpt>
      <trkpt lat="42.59226" lon="0.75708">
        <ele>1445.8</ele>
        <time>2022-05-23 00:07:04</time>
      </trkpt>
      <trkpt lat="42.59222" lon="0.75707">
        <ele>1445.8</ele>
        <time>2022-05-23 00:07:05</time>
      </trkpt>
      <trkpt lat="42.59218" lon="0.75706">
        <ele>1445.8</ele>
        <time>2022-05-23 00:07:06</time>
      </trkpt>
      <trkpt lat="42.59213" lon="0.75705">
        <ele>1445.8</ele>
        <time>2022-05-23 00:07:07</time>
      </trkpt>
      <trkpt lat="42.59209" lon="0.75704">
        <ele>1445.8</ele>
        <time>2022-05-23 00:07:08</time>
      </trkpt>
      <trkpt lat="42.59204" lon="0.75704">
        <ele>1445.8</ele>
        <time>2022-05-23 00:07:09</time>
      </trkpt>
      <trkpt lat="42.592" lon="0.75703">
        <ele>1445.8</ele>
        <time>2022-05-23 00:07:10</time>
      </trkpt>
      <trkpt lat="42.59196" lon="0.75703">
        <ele>1445.6</ele>
        <time>2022-05-23 00:07:11</time>
      </trkpt>
      <trkpt lat="42.59191" lon="0.75703">
        <ele>1445.6</ele>
        <time>2022-05-23 00:07:12</time>
      </trkpt>
      <trkpt lat="42.59187" lon="0.75703">
        <ele>1445.6</ele>
        <time>2022-05-23 00:07:13</time>
      </trkpt>
      <trkpt lat="42.59183" lon="0.75704">
        <ele>1445.6</ele>
        <time>2022-05-23 00:07:14</time>
      </trkpt>
      <trkpt lat="42.59178" lon="0.75704">
        <ele>1445.6</ele>
        <time>2022-05-23 00:07:15</time>
      </trkpt>
      <trkpt lat="42.59173" lon="0.75705">
        <ele>1445.6</ele>
        <time>2022-05-23 00:07:16</time>
      </trkpt>
      <trkpt lat="42.59168" lon="0.75706">
        <ele>1445.6</ele>
        <time>2022-05-23 00:07:17</time>
      </trkpt>
      <trkpt lat="42.59164" lon="0.75707">
        <ele>1445.6</ele>
        <time>2022-05-23 00:07:18</time>
      </trkpt>
      <trkpt lat="42.5916" lon="0.75708">
        <ele>1445.4</ele>
        <time>2022-05-23 00:07:19</time>
      </trkpt>
      <trkpt lat="42.59155" lon="0.75709">
        <ele>1445.6</ele>
        <time>2022-05-23 00:07:20</time>
      </trkpt>
      <trkpt lat="42.5915" lon="0.75711">
        <ele>1445.6</ele>
        <time>2022-05-23 00:07:21</time>
      </trkpt>
      <trkpt lat="42.59146" lon="0.75712">
        <ele>1445.6</ele>
        <time>2022-05-23 00:07:22</time>
      </trkpt>
      <trkpt lat="42.59141" lon="0.75714">
        <ele>1445.4</ele>
        <time>2022-05-23 00:07:23</time>
      </trkpt>
      <trkpt lat="42.59136" lon="0.75715">
        <ele>1445.4</ele>
        <time>2022-05-23 00:07:24</time>
      </trkpt>
      <trkpt lat="42.59132" lon="0.75717">
        <ele>1445.6</ele>
        <time>2022-05-23 00:07:25</time>
      </trkpt>
      <trkpt lat="42.59127" lon="0.75719">
        <ele>1445.6</ele>
        <time>2022-05-23 00:07:26</time>
      </trkpt>
      <trkpt lat="42.59123" lon="0.7572">
        <ele>1445.6</ele>
        <time>2022-05-23 00:07:27</time>
      </trkpt>
      <trkpt lat="42.59119" lon="0.75721">
        <ele>1445.6</ele>
        <time>2022-05-23 00:07:28</time>
      </trkpt>
      <trkpt lat="42.59115" lon="0.75723">
        <ele>1445.6</ele>
        <time>2022-05-23 00:07:29</time>
      </trkpt>
      <trkpt lat="42.59111" lon="0.75725">
        <ele>1445.6</ele>
        <time>2022-05-23 00:07:30</time>
      </trkpt>
      <trkpt lat="42.59107" lon="0.75727">
        <ele>1445.6</ele>
        <time>2022-05-23 00:07:31</time>
      </trkpt>
      <trkpt lat="42.59103" lon="0.7573">
        <ele>1445.6</ele>
        <time>2022-05-23 00:07:32</time>
      </trkpt>
      <trkpt lat="42.59099" lon="0.75733">
        <ele>1445.6</ele>
        <time>2022-05-23 00:07:33</time>
      </trkpt>
      <trkpt lat="42.59096" lon="0.75735">
        <ele>1445.6</ele>
        <time>2022-05-23 00:07:34</time>
      </trkpt>
      <trkpt lat="42.59092" lon="0.75738">
        <ele>1445.6</ele>
        <time>2022-05-23 00:07:35</time>
      </trkpt>
      <trkpt lat="42.59088" lon="0.75741">
        <ele>1445.4</ele>
        <time>2022-05-23 00:07:36</time>
      </trkpt>
      <trkpt lat="42.59084" lon="0.75744">
        <ele>1445.4</ele>
        <time>2022-05-23 00:07:37</time>
      </trkpt>
      <trkpt lat="42.59079" lon="0.75746">
        <ele>1445.4</ele>
        <time>2022-05-23 00:07:38</time>
      </trkpt>
      <trkpt lat="42.59075" lon="0.75748">
        <ele>1445.2</ele>
        <time>2022-05-23 00:07:39</time>
      </trkpt>
      <trkpt lat="42.5907" lon="0.75751">
        <ele>1445.2</ele>
        <time>2022-05-23 00:07:40</time>
      </trkpt>
      <trkpt lat="42.59066" lon="0.75754">
        <ele>1445.2</ele>
        <time>2022-05-23 00:07:41</time>
      </trkpt>
      <trkpt lat="42.59062" lon="0.75757">
        <ele>1445.2</ele>
        <time>2022-05-23 00:07:42</time>
      </trkpt>
      <trkpt lat="42.59057" lon="0.75761">
        <ele>1445</ele>
        <time>2022-05-23 00:07:43</time>
      </trkpt>
      <trkpt lat="42.59052" lon="0.75764">
        <ele>1445</ele>
        <time>2022-05-23 00:07:44</time>
      </trkpt>
      <trkpt lat="42.59047" lon="0.75768">
        <ele>1444.8</ele>
        <time>2022-05-23 00:07:45</time>
      </trkpt>
      <trkpt lat="42.59042" lon="0.75771">
        <ele>1444.8</ele>
        <time>2022-05-23 00:07:46</time>
      </trkpt>
      <trkpt lat="42.59036" lon="0.75774">
        <ele>1444.8</ele>
        <time>2022-05-23 00:07:47</time>
      </trkpt>
      <trkpt lat="42.5903" lon="0.75777">
        <ele>1444.6</ele>
        <time>2022-05-23 00:07:48</time>
      </trkpt>
      <trkpt lat="42.59024" lon="0.75781">
        <ele>1444.4</ele>
        <time>2022-05-23 00:07:49</time>
      </trkpt>
      <trkpt lat="42.59018" lon="0.75784">
        <ele>1444.4</ele>
        <time>2022-05-23 00:07:50</time>
      </trkpt>
      <trkpt lat="42.59012" lon="0.75787">
        <ele>1444.2</ele>
        <time>2022-05-23 00:07:51</time>
      </trkpt>
      <trkpt lat="42.59006" lon="0.75789">
        <ele>1444.2</ele>
        <time>2022-05-23 00:07:52</time>
      </trkpt>
      <trkpt lat="42.59" lon="0.75791">
        <ele>1444.2</ele>
        <time>2022-05-23 00:07:53</time>
      </trkpt>
      <trkpt lat="42.58994" lon="0.75794">
        <ele>1444.2</ele>
        <time>2022-05-23 00:07:54</time>
      </trkpt>
      <trkpt lat="42.58989" lon="0.75796">
        <ele>1444.4</ele>
        <time>2022-05-23 00:07:55</time>
      </trkpt>
      <trkpt lat="42.58984" lon="0.75797">
        <ele>1444.4</ele>
        <time>2022-05-23 00:07:56</time>
      </trkpt>
      <trkpt lat="42.58979" lon="0.75799">
        <ele>1444.4</ele>
        <time>2022-05-23 00:07:57</time>
      </trkpt>
      <trkpt lat="42.58974" lon="0.758">
        <ele>1444.6</ele>
        <time>2022-05-23 00:07:58</time>
      </trkpt>
      <trkpt lat="42.58969" lon="0.75801">
        <ele>1444.6</ele>
        <time>2022-05-23 00:07:59</time>
      </trkpt>
      <trkpt lat="42.58965" lon="0.75801">
        <ele>1444.6</ele>
        <time>2022-05-23 00:08:00</time>
      </trkpt>
      <trkpt lat="42.5896" lon="0.75802">
        <ele>1444.6</ele>
        <time>2022-05-23 00:08:01</time>
      </trkpt>
      <trkpt lat="42.58956" lon="0.75803">
        <ele>1444.6</ele>
        <time>2022-05-23 00:08:02</time>
      </trkpt>
      <trkpt lat="42.58951" lon="0.75804">
        <ele>1444.6</ele>
        <time>2022-05-23 00:08:03</time>
      </trkpt>
      <trkpt lat="42.58946" lon="0.75804">
        <ele>1444.8</ele>
        <time>2022-05-23 00:08:04</time>
      </trkpt>
      <trkpt lat="42.58942" lon="0.75804">
        <ele>1444.8</ele>
        <time>2022-05-23 00:08:05</time>
      </trkpt>
      <trkpt lat="42.58937" lon="0.75804">
        <ele>1445</ele>
        <time>2022-05-23 00:08:06</time>
      </trkpt>
      <trkpt lat="42.58933" lon="0.75804">
        <ele>1445</ele>
        <time>2022-05-23 00:08:07</time>
      </trkpt>
      <trkpt lat="42.58928" lon="0.75804">
        <ele>1445</ele>
        <time>2022-05-23 00:08:08</time>
      </trkpt>
      <trkpt lat="42.58924" lon="0.75804">
        <ele>1445</ele>
        <time>2022-05-23 00:08:09</time>
      </trkpt>
      <trkpt lat="42.5892" lon="0.75804">
        <ele>1445</ele>
        <time>2022-05-23 00:08:10</time>
      </trkpt>
      <trkpt lat="42.58915" lon="0.75804">
        <ele>1445</ele>
        <time>2022-05-23 00:08:11</time>
      </trkpt>
      <trkpt lat="42.58912" lon="0.75804">
        <ele>1445</ele>
        <time>2022-05-23 00:08:12</time>
      </trkpt>
      <trkpt lat="42.58908" lon="0.75803">
        <ele>1445</ele>
        <time>2022-05-23 00:08:13</time>
      </trkpt>
      <trkpt lat="42.58904" lon="0.75803">
        <ele>1445</ele>
        <time>2022-05-23 00:08:14</time>
      </trkpt>
      <trkpt lat="42.589" lon="0.75802">
        <ele>1445</ele>
        <time>2022-05-23 00:08:15</time>
      </trkpt>
      <trkpt lat="42.58897" lon="0.75802">
        <ele>1445</ele>
        <time>2022-05-23 00:08:16</time>
      </trkpt>
      <trkpt lat="42.58893" lon="0.75801">
        <ele>1445.2</ele>
        <time>2022-05-23 00:08:17</time>
      </trkpt>
      <trkpt lat="42.58889" lon="0.758">
        <ele>1445.2</ele>
        <time>2022-05-23 00:08:18</time>
      </trkpt>
      <trkpt lat="42.58885" lon="0.758">
        <ele>1445.2</ele>
        <time>2022-05-23 00:08:19</time>
      </trkpt>
      <trkpt lat="42.58882" lon="0.75799">
        <ele>1445.2</ele>
        <time>2022-05-23 00:08:20</time>
      </trkpt>
      <trkpt lat="42.58878" lon="0.75798">
        <ele>1445.2</ele>
        <time>2022-05-23 00:08:21</time>
      </trkpt>
      <trkpt lat="42.58875" lon="0.75797">
        <ele>1445.2</ele>
        <time>2022-05-23 00:08:22</time>
      </trkpt>
      <trkpt lat="42.58871" lon="0.75795">
        <ele>1445.2</ele>
        <time>2022-05-23 00:08:23</time>
      </trkpt>
      <trkpt lat="42.58868" lon="0.75794">
        <ele>1445.2</ele>
        <time>2022-05-23 00:08:24</time>
      </trkpt>
      <trkpt lat="42.58865" lon="0.75793">
        <ele>1445.2</ele>
        <time>2022-05-23 00:08:25</time>
      </trkpt>
      <trkpt lat="42.58861" lon="0.75792">
        <ele>1445.4</ele>
        <time>2022-05-23 00:08:26</time>
      </trkpt>
      <trkpt lat="42.58858" lon="0.7579">
        <ele>1445.6</ele>
        <time>2022-05-23 00:08:27</time>
      </trkpt>
      <trkpt lat="42.58855" lon="0.75789">
        <ele>1445.4</ele>
        <time>2022-05-23 00:08:28</time>
      </trkpt>
      <trkpt lat="42.58851" lon="0.75787">
        <ele>1445.4</ele>
        <time>2022-05-23 00:08:29</time>
      </trkpt>
      <trkpt lat="42.58848" lon="0.75785">
        <ele>1445.4</ele>
        <time>2022-05-23 00:08:30</time>
      </trkpt>
      <trkpt lat="42.58844" lon="0.75784">
        <ele>1445.4</ele>
        <time>2022-05-23 00:08:31</time>
      </trkpt>
      <trkpt lat="42.58841" lon="0.75782">
        <ele>1445.6</ele>
        <time>2022-05-23 00:08:32</time>
      </trkpt>
      <trkpt lat="42.58838" lon="0.75781">
        <ele>1445.6</ele>
        <time>2022-05-23 00:08:33</time>
      </trkpt>
      <trkpt lat="42.58834" lon="0.75779">
        <ele>1445.6</ele>
        <time>2022-05-23 00:08:34</time>
      </trkpt>
      <trkpt lat="42.5883" lon="0.75778">
        <ele>1445.8</ele>
        <time>2022-05-23 00:08:35</time>
      </trkpt>
      <trkpt lat="42.58827" lon="0.75776">
        <ele>1445.8</ele>
        <time>2022-05-23 00:08:36</time>
      </trkpt>
      <trkpt lat="42.58823" lon="0.75775">
        <ele>1446</ele>
        <time>2022-05-23 00:08:37</time>
      </trkpt>
      <trkpt lat="42.5882" lon="0.75773">
        <ele>1446</ele>
        <time>2022-05-23 00:08:38</time>
      </trkpt>
      <trkpt lat="42.58816" lon="0.75771">
        <ele>1446</ele>
        <time>2022-05-23 00:08:39</time>
      </trkpt>
      <trkpt lat="42.58812" lon="0.7577">
        <ele>1446</ele>
        <time>2022-05-23 00:08:40</time>
      </trkpt>
      <trkpt lat="42.58808" lon="0.75768">
        <ele>1446.2</ele>
        <time>2022-05-23 00:08:41</time>
      </trkpt>
      <trkpt lat="42.58804" lon="0.75766">
        <ele>1446.2</ele>
        <time>2022-05-23 00:08:42</time>
      </trkpt>
      <trkpt lat="42.58801" lon="0.75765">
        <ele>1446.2</ele>
        <time>2022-05-23 00:08:43</time>
      </trkpt>
      <trkpt lat="42.58797" lon="0.75763">
        <ele>1446.2</ele>
        <time>2022-05-23 00:08:44</time>
      </trkpt>
      <trkpt lat="42.58793" lon="0.75762">
        <ele>1446.2</ele>
        <time>2022-05-23 00:08:45</time>
      </trkpt>
      <trkpt lat="42.58789" lon="0.75761">
        <ele>1446.2</ele>
        <time>2022-05-23 00:08:46</time>
      </trkpt>
      <trkpt lat="42.58785" lon="0.7576">
        <ele>1446.2</ele>
        <time>2022-05-23 00:08:47</time>
      </trkpt>
      <trkpt lat="42.58781" lon="0.75759">
        <ele>1446.4</ele>
        <time>2022-05-23 00:08:48</time>
      </trkpt>
      <trkpt lat="42.58777" lon="0.75759">
        <ele>1446.2</ele>
        <time>2022-05-23 00:08:49</time>
      </trkpt>
      <trkpt lat="42.58772" lon="0.75759">
        <ele>1446.2</ele>
        <time>2022-05-23 00:08:50</time>
      </trkpt>
      <trkpt lat="42.58768" lon="0.75759">
        <ele>1446.2</ele>
        <time>2022-05-23 00:08:51</time>
      </trkpt>
      <trkpt lat="42.58764" lon="0.75758">
        <ele>1446.2</ele>
        <time>2022-05-23 00:08:52</time>
      </trkpt>
      <trkpt lat="42.5876" lon="0.75758">
        <ele>1446.2</ele>
        <time>2022-05-23 00:08:53</time>
      </trkpt>
      <trkpt lat="42.58756" lon="0.75757">
        <ele>1446.2</ele>
        <time>2022-05-23 00:08:54</time>
      </trkpt>
      <trkpt lat="42.58752" lon="0.75757">
        <ele>1446</ele>
        <time>2022-05-23 00:08:55</time>
      </trkpt>
      <trkpt lat="42.58748" lon="0.75758">
        <ele>1446</ele>
        <time>2022-05-23 00:08:56</time>
      </trkpt>
      <trkpt lat="42.58743" lon="0.75758">
        <ele>1446</ele>
        <time>2022-05-23 00:08:57</time>
      </trkpt>
      <trkpt lat="42.58739" lon="0.75759">
        <ele>1446</ele>
        <time>2022-05-23 00:08:58</time>
      </trkpt>
      <trkpt lat="42.58735" lon="0.7576">
        <ele>1446</ele>
        <time>2022-05-23 00:08:59</time>
      </trkpt>
      <trkpt lat="42.58731" lon="0.75761">
        <ele>1445.8</ele>
        <time>2022-05-23 00:09:00</time>
      </trkpt>
      <trkpt lat="42.58727" lon="0.75762">
        <ele>1445.8</ele>
        <time>2022-05-23 00:09:01</time>
      </trkpt>
      <trkpt lat="42.58723" lon="0.75764">
        <ele>1445.8</ele>
        <time>2022-05-23 00:09:02</time>
      </trkpt>
      <trkpt lat="42.58719" lon="0.75765">
        <ele>1445.8</ele>
        <time>2022-05-23 00:09:03</time>
      </trkpt>
      <trkpt lat="42.58714" lon="0.75766">
        <ele>1445.6</ele>
        <time>2022-05-23 00:09:04</time>
      </trkpt>
      <trkpt lat="42.5871" lon="0.75767">
        <ele>1445.6</ele>
        <time>2022-05-23 00:09:05</time>
      </trkpt>
      <trkpt lat="42.58706" lon="0.75768">
        <ele>1445.6</ele>
        <time>2022-05-23 00:09:06</time>
      </trkpt>
      <trkpt lat="42.58702" lon="0.75769">
        <ele>1445.6</ele>
        <time>2022-05-23 00:09:07</time>
      </trkpt>
      <trkpt lat="42.58698" lon="0.75771">
        <ele>1445.6</ele>
        <time>2022-05-23 00:09:08</time>
      </trkpt>
      <trkpt lat="42.58695" lon="0.75772">
        <ele>1445.8</ele>
        <time>2022-05-23 00:09:09</time>
      </trkpt>
      <trkpt lat="42.58691" lon="0.75773">
        <ele>1445.8</ele>
        <time>2022-05-23 00:09:10</time>
      </trkpt>
      <trkpt lat="42.58687" lon="0.75775">
        <ele>1445.6</ele>
        <time>2022-05-23 00:09:11</time>
      </trkpt>
      <trkpt lat="42.58683" lon="0.75777">
        <ele>1445.6</ele>
        <time>2022-05-23 00:09:12</time>
      </trkpt>
      <trkpt lat="42.58679" lon="0.75779">
        <ele>1445.6</ele>
        <time>2022-05-23 00:09:13</time>
      </trkpt>
      <trkpt lat="42.58674" lon="0.75781">
        <ele>1445.4</ele>
        <time>2022-05-23 00:09:14</time>
      </trkpt>
      <trkpt lat="42.5867" lon="0.75783">
        <ele>1445.2</ele>
        <time>2022-05-23 00:09:15</time>
      </trkpt>
      <trkpt lat="42.58665" lon="0.75785">
        <ele>1445</ele>
        <time>2022-05-23 00:09:16</time>
      </trkpt>
      <trkpt lat="42.58661" lon="0.75787">
        <ele>1444.8</ele>
        <time>2022-05-23 00:09:17</time>
      </trkpt>
      <trkpt lat="42.58656" lon="0.75789">
        <ele>1444.8</ele>
        <time>2022-05-23 00:09:18</time>
      </trkpt>
      <trkpt lat="42.58651" lon="0.75791">
        <ele>1444.6</ele>
        <time>2022-05-23 00:09:19</time>
      </trkpt>
      <trkpt lat="42.58646" lon="0.75793">
        <ele>1444.6</ele>
        <time>2022-05-23 00:09:20</time>
      </trkpt>
      <trkpt lat="42.58641" lon="0.75794">
        <ele>1444.6</ele>
        <time>2022-05-23 00:09:21</time>
      </trkpt>
      <trkpt lat="42.58636" lon="0.75796">
        <ele>1444.6</ele>
        <time>2022-05-23 00:09:22</time>
      </trkpt>
      <trkpt lat="42.58631" lon="0.75797">
        <ele>1444.4</ele>
        <time>2022-05-23 00:09:23</time>
      </trkpt>
      <trkpt lat="42.58625" lon="0.75798">
        <ele>1444.2</ele>
        <time>2022-05-23 00:09:24</time>
      </trkpt>
      <trkpt lat="42.5862" lon="0.75799">
        <ele>1444.4</ele>
        <time>2022-05-23 00:09:25</time>
      </trkpt>
      <trkpt lat="42.58614" lon="0.758">
        <ele>1444.4</ele>
        <time>2022-05-23 00:09:26</time>
      </trkpt>
      <trkpt lat="42.58609" lon="0.75801">
        <ele>1444.6</ele>
        <time>2022-05-23 00:09:27</time>
      </trkpt>
      <trkpt lat="42.58604" lon="0.75802">
        <ele>1444.8</ele>
        <time>2022-05-23 00:09:28</time>
      </trkpt>
      <trkpt lat="42.58598" lon="0.75803">
        <ele>1445</ele>
        <time>2022-05-23 00:09:29</time>
      </trkpt>
      <trkpt lat="42.58593" lon="0.75803">
        <ele>1445.2</ele>
        <time>2022-05-23 00:09:30</time>
      </trkpt>
      <trkpt lat="42.58588" lon="0.75804">
        <ele>1445.4</ele>
        <time>2022-05-23 00:09:31</time>
      </trkpt>
      <trkpt lat="42.58584" lon="0.75804">
        <ele>1445.4</ele>
        <time>2022-05-23 00:09:32</time>
      </trkpt>
      <trkpt lat="42.58579" lon="0.75803">
        <ele>1445.4</ele>
        <time>2022-05-23 00:09:33</time>
      </trkpt>
      <trkpt lat="42.58574" lon="0.75802">
        <ele>1445.4</ele>
        <time>2022-05-23 00:09:34</time>
      </trkpt>
      <trkpt lat="42.5857" lon="0.75802">
        <ele>1445.4</ele>
        <time>2022-05-23 00:09:35</time>
      </trkpt>
      <trkpt lat="42.58566" lon="0.75801">
        <ele>1445.4</ele>
        <time>2022-05-23 00:09:36</time>
      </trkpt>
      <trkpt lat="42.58562" lon="0.75801">
        <ele>1445.4</ele>
        <time>2022-05-23 00:09:37</time>
      </trkpt>
      <trkpt lat="42.58559" lon="0.758">
        <ele>1445.4</ele>
        <time>2022-05-23 00:09:38</time>
      </trkpt>
      <trkpt lat="42.58555" lon="0.75798">
        <ele>1445.2</ele>
        <time>2022-05-23 00:09:39</time>
      </trkpt>
      <trkpt lat="42.58551" lon="0.75797">
        <ele>1445.2</ele>
        <time>2022-05-23 00:09:40</time>
      </trkpt>
      <trkpt lat="42.58547" lon="0.75795">
        <ele>1445.2</ele>
        <time>2022-05-23 00:09:41</time>
      </trkpt>
      <trkpt lat="42.58543" lon="0.75793">
        <ele>1445</ele>
        <time>2022-05-23 00:09:42</time>
      </trkpt>
      <trkpt lat="42.58539" lon="0.75792">
        <ele>1445</ele>
        <time>2022-05-23 00:09:43</time>
      </trkpt>
      <trkpt lat="42.58534" lon="0.7579">
        <ele>1445.2</ele>
        <time>2022-05-23 00:09:44</time>
      </trkpt>
      <trkpt lat="42.5853" lon="0.75788">
        <ele>1445.2</ele>
        <time>2022-05-23 00:09:45</time>
      </trkpt>
      <trkpt lat="42.58526" lon="0.75785">
        <ele>1445.4</ele>
        <time>2022-05-23 00:09:46</time>
      </trkpt>
      <trkpt lat="42.58522" lon="0.75783">
        <ele>1445.4</ele>
        <time>2022-05-23 00:09:47</time>
      </trkpt>
      <trkpt lat="42.58518" lon="0.7578">
        <ele>1445.4</ele>
        <time>2022-05-23 00:09:48</time>
      </trkpt>
      <trkpt lat="42.58515" lon="0.75778">
        <ele>1445.4</ele>
        <time>2022-05-23 00:09:49</time>
      </trkpt>
      <trkpt lat="42.58512" lon="0.75776">
        <ele>1445.2</ele>
        <time>2022-05-23 00:09:50</time>
      </trkpt>
      <trkpt lat="42.58508" lon="0.75774">
        <ele>1445.2</ele>
        <time>2022-05-23 00:09:51</time>
      </trkpt>
      <trkpt lat="42.58505" lon="0.75771">
        <ele>1445.2</ele>
        <time>2022-05-23 00:09:52</time>
      </trkpt>
      <trkpt lat="42.58502" lon="0.75768">
        <ele>1445.2</ele>
        <time>2022-05-23 00:09:53</time>
      </trkpt>
      <trkpt lat="42.585" lon="0.75765">
        <ele>1445</ele>
        <time>2022-05-23 00:09:54</time>
      </trkpt>
      <trkpt lat="42.58497" lon="0.75762">
        <ele>1445</ele>
        <time>2022-05-23 00:09:55</time>
      </trkpt>
      <trkpt lat="42.58494" lon="0.75759">
        <ele>1445</ele>
        <time>2022-05-23 00:09:56</time>
      </trkpt>
      <trkpt lat="42.58491" lon="0.75755">
        <ele>1444.8</ele>
        <time>2022-05-23 00:09:57</time>
      </trkpt>
      <trkpt lat="42.58488" lon="0.75752">
        <ele>1444.8</ele>
        <time>2022-05-23 00:09:58</time>
      </trkpt>
      <trkpt lat="42.58485" lon="0.75748">
        <ele>1445</ele>
        <time>2022-05-23 00:09:59</time>
      </trkpt>
      <trkpt lat="42.58482" lon="0.75744">
        <ele>1445</ele>
        <time>2022-05-23 00:10:00</time>
      </trkpt>
      <trkpt lat="42.58479" lon="0.7574">
        <ele>1445</ele>
        <time>2022-05-23 00:10:01</time>
      </trkpt>
      <trkpt lat="42.58476" lon="0.75736">
        <ele>1445</ele>
        <time>2022-05-23 00:10:02</time>
      </trkpt>
      <trkpt lat="42.58473" lon="0.75732">
        <ele>1445</ele>
        <time>2022-05-23 00:10:03</time>
      </trkpt>
      <trkpt lat="42.5847" lon="0.75728">
        <ele>1445</ele>
        <time>2022-05-23 00:10:04</time>
      </trkpt>
      <trkpt lat="42.58467" lon="0.75725">
        <ele>1445</ele>
        <time>2022-05-23 00:10:05</time>
      </trkpt>
      <trkpt lat="42.58465" lon="0.75721">
        <ele>1445</ele>
        <time>2022-05-23 00:10:06</time>
      </trkpt>
      <trkpt lat="42.58462" lon="0.75718">
        <ele>1445</ele>
        <time>2022-05-23 00:10:07</time>
      </trkpt>
      <trkpt lat="42.58459" lon="0.75714">
        <ele>1445</ele>
        <time>2022-05-23 00:10:08</time>
      </trkpt>
      <trkpt lat="42.58456" lon="0.75711">
        <ele>1445</ele>
        <time>2022-05-23 00:10:09</time>
      </trkpt>
      <trkpt lat="42.58453" lon="0.75706">
        <ele>1445</ele>
        <time>2022-05-23 00:10:10</time>
      </trkpt>
      <trkpt lat="42.5845" lon="0.75703">
        <ele>1445</ele>
        <time>2022-05-23 00:10:11</time>
      </trkpt>
      <trkpt lat="42.58447" lon="0.75699">
        <ele>1445</ele>
        <time>2022-05-23 00:10:12</time>
      </trkpt>
      <trkpt lat="42.58444" lon="0.75695">
        <ele>1445</ele>
        <time>2022-05-23 00:10:13</time>
      </trkpt>
      <trkpt lat="42.58442" lon="0.75691">
        <ele>1445</ele>
        <time>2022-05-23 00:10:14</time>
      </trkpt>
      <trkpt lat="42.58439" lon="0.75687">
        <ele>1445</ele>
        <time>2022-05-23 00:10:15</time>
      </trkpt>
      <trkpt lat="42.58435" lon="0.75684">
        <ele>1445</ele>
        <time>2022-05-23 00:10:16</time>
      </trkpt>
      <trkpt lat="42.58432" lon="0.7568">
        <ele>1445</ele>
        <time>2022-05-23 00:10:17</time>
      </trkpt>
      <trkpt lat="42.58429" lon="0.75677">
        <ele>1445</ele>
        <time>2022-05-23 00:10:18</time>
      </trkpt>
      <trkpt lat="42.58425" lon="0.75673">
        <ele>1445</ele>
        <time>2022-05-23 00:10:19</time>
      </trkpt>
      <trkpt lat="42.58422" lon="0.75669">
        <ele>1445</ele>
        <time>2022-05-23 00:10:20</time>
      </trkpt>
      <trkpt lat="42.58419" lon="0.75666">
        <ele>1445</ele>
        <time>2022-05-23 00:10:21</time>
      </trkpt>
      <trkpt lat="42.58415" lon="0.75662">
        <ele>1445.2</ele>
        <time>2022-05-23 00:10:22</time>
      </trkpt>
      <trkpt lat="42.58412" lon="0.75659">
        <ele>1445</ele>
        <time>2022-05-23 00:10:23</time>
      </trkpt>
      <trkpt lat="42.58407" lon="0.75656">
        <ele>1445</ele>
        <time>2022-05-23 00:10:24</time>
      </trkpt>
      <trkpt lat="42.58403" lon="0.75654">
        <ele>1445</ele>
        <time>2022-05-23 00:10:25</time>
      </trkpt>
      <trkpt lat="42.58399" lon="0.75651">
        <ele>1445</ele>
        <time>2022-05-23 00:10:26</time>
      </trkpt>
      <trkpt lat="42.58395" lon="0.75649">
        <ele>1445</ele>
        <time>2022-05-23 00:10:27</time>
      </trkpt>
      <trkpt lat="42.58391" lon="0.75646">
        <ele>1445</ele>
        <time>2022-05-23 00:10:28</time>
      </trkpt>
      <trkpt lat="42.58387" lon="0.75644">
        <ele>1445</ele>
        <time>2022-05-23 00:10:29</time>
      </trkpt>
      <trkpt lat="42.58384" lon="0.75641">
        <ele>1445</ele>
        <time>2022-05-23 00:10:30</time>
      </trkpt>
      <trkpt lat="42.5838" lon="0.75638">
        <ele>1445</ele>
        <time>2022-05-23 00:10:31</time>
      </trkpt>
      <trkpt lat="42.58376" lon="0.75636">
        <ele>1445</ele>
        <time>2022-05-23 00:10:32</time>
      </trkpt>
      <trkpt lat="42.58372" lon="0.75634">
        <ele>1445.2</ele>
        <time>2022-05-23 00:10:33</time>
      </trkpt>
      <trkpt lat="42.58367" lon="0.75631">
        <ele>1445.2</ele>
        <time>2022-05-23 00:10:34</time>
      </trkpt>
      <trkpt lat="42.58363" lon="0.7563">
        <ele>1445.2</ele>
        <time>2022-05-23 00:10:35</time>
      </trkpt>
      <trkpt lat="42.58359" lon="0.75628">
        <ele>1445.2</ele>
        <time>2022-05-23 00:10:36</time>
      </trkpt>
      <trkpt lat="42.58355" lon="0.75627">
        <ele>1445.2</ele>
        <time>2022-05-23 00:10:37</time>
      </trkpt>
      <trkpt lat="42.58351" lon="0.75625">
        <ele>1445.2</ele>
        <time>2022-05-23 00:10:38</time>
      </trkpt>
      <trkpt lat="42.58346" lon="0.75624">
        <ele>1445.2</ele>
        <time>2022-05-23 00:10:39</time>
      </trkpt>
      <trkpt lat="42.58341" lon="0.75622">
        <ele>1445</ele>
        <time>2022-05-23 00:10:40</time>
      </trkpt>
      <trkpt lat="42.58337" lon="0.75621">
        <ele>1445</ele>
        <time>2022-05-23 00:10:41</time>
      </trkpt>
      <trkpt lat="42.58332" lon="0.7562">
        <ele>1445</ele>
        <time>2022-05-23 00:10:42</time>
      </trkpt>
      <trkpt lat="42.58327" lon="0.75619">
        <ele>1445</ele>
        <time>2022-05-23 00:10:43</time>
      </trkpt>
      <trkpt lat="42.58323" lon="0.75618">
        <ele>1445</ele>
        <time>2022-05-23 00:10:44</time>
      </trkpt>
      <trkpt lat="42.58318" lon="0.75617">
        <ele>1445</ele>
        <time>2022-05-23 00:10:45</time>
      </trkpt>
      <trkpt lat="42.58314" lon="0.75616">
        <ele>1445</ele>
        <time>2022-05-23 00:10:46</time>
      </trkpt>
      <trkpt lat="42.58309" lon="0.75615">
        <ele>1445</ele>
        <time>2022-05-23 00:10:47</time>
      </trkpt>
      <trkpt lat="42.58305" lon="0.75615">
        <ele>1445</ele>
        <time>2022-05-23 00:10:48</time>
      </trkpt>
      <trkpt lat="42.583" lon="0.75615">
        <ele>1445</ele>
        <time>2022-05-23 00:10:49</time>
      </trkpt>
      <trkpt lat="42.58295" lon="0.75615">
        <ele>1444.8</ele>
        <time>2022-05-23 00:10:50</time>
      </trkpt>
      <trkpt lat="42.5829" lon="0.75615">
        <ele>1444.8</ele>
        <time>2022-05-23 00:10:51</time>
      </trkpt>
      <trkpt lat="42.58286" lon="0.75615">
        <ele>1444.8</ele>
        <time>2022-05-23 00:10:52</time>
      </trkpt>
      <trkpt lat="42.58281" lon="0.75614">
        <ele>1445</ele>
        <time>2022-05-23 00:10:53</time>
      </trkpt>
      <trkpt lat="42.58277" lon="0.75614">
        <ele>1445</ele>
        <time>2022-05-23 00:10:54</time>
      </trkpt>
      <trkpt lat="42.58272" lon="0.75614">
        <ele>1445</ele>
        <time>2022-05-23 00:10:55</time>
      </trkpt>
      <trkpt lat="42.58267" lon="0.75613">
        <ele>1445</ele>
        <time>2022-05-23 00:10:56</time>
      </trkpt>
      <trkpt lat="42.58263" lon="0.75613">
        <ele>1445.2</ele>
        <time>2022-05-23 00:10:57</time>
      </trkpt>
      <trkpt lat="42.58258" lon="0.75613">
        <ele>1445.2</ele>
        <time>2022-05-23 00:10:58</time>
      </trkpt>
      <trkpt lat="42.58253" lon="0.75613">
        <ele>1445.2</ele>
        <time>2022-05-23 00:10:59</time>
      </trkpt>
      <trkpt lat="42.58248" lon="0.75613">
        <ele>1445.2</ele>
        <time>2022-05-23 00:11:00</time>
      </trkpt>
      <trkpt lat="42.58244" lon="0.75613">
        <ele>1445.2</ele>
        <time>2022-05-23 00:11:01</time>
      </trkpt>
      <trkpt lat="42.58239" lon="0.75613">
        <ele>1445.2</ele>
        <time>2022-05-23 00:11:02</time>
      </trkpt>
      <trkpt lat="42.58235" lon="0.75613">
        <ele>1445.2</ele>
        <time>2022-05-23 00:11:03</time>
      </trkpt>
      <trkpt lat="42.5823" lon="0.75613">
        <ele>1445.2</ele>
        <time>2022-05-23 00:11:04</time>
      </trkpt>
      <trkpt lat="42.58225" lon="0.75613">
        <ele>1445.2</ele>
        <time>2022-05-23 00:11:05</time>
      </trkpt>
      <trkpt lat="42.58221" lon="0.75612">
        <ele>1445.2</ele>
        <time>2022-05-23 00:11:06</time>
      </trkpt>
      <trkpt lat="42.58216" lon="0.75612">
        <ele>1445</ele>
        <time>2022-05-23 00:11:07</time>
      </trkpt>
      <trkpt lat="42.58212" lon="0.75612">
        <ele>1445</ele>
        <time>2022-05-23 00:11:08</time>
      </trkpt>
      <trkpt lat="42.58207" lon="0.75612">
        <ele>1445</ele>
        <time>2022-05-23 00:11:09</time>
      </trkpt>
      <trkpt lat="42.58203" lon="0.75612">
        <ele>1445</ele>
        <time>2022-05-23 00:11:10</time>
      </trkpt>
      <trkpt lat="42.58198" lon="0.75612">
        <ele>1444.8</ele>
        <time>2022-05-23 00:11:11</time>
      </trkpt>
      <trkpt lat="42.58194" lon="0.75611">
        <ele>1444.8</ele>
        <time>2022-05-23 00:11:12</time>
      </trkpt>
      <trkpt lat="42.5819" lon="0.75611">
        <ele>1444.8</ele>
        <time>2022-05-23 00:11:13</time>
      </trkpt>
      <trkpt lat="42.58186" lon="0.7561">
        <ele>1444.6</ele>
        <time>2022-05-23 00:11:14</time>
      </trkpt>
      <trkpt lat="42.58182" lon="0.75609">
        <ele>1444.6</ele>
        <time>2022-05-23 00:11:15</time>
      </trkpt>
      <trkpt lat="42.58177" lon="0.75609">
        <ele>1444.8</ele>
        <time>2022-05-23 00:11:16</time>
      </trkpt>
      <trkpt lat="42.58173" lon="0.75608">
        <ele>1444.8</ele>
        <time>2022-05-23 00:11:17</time>
      </trkpt>
      <trkpt lat="42.58169" lon="0.75608">
        <ele>1444.8</ele>
        <time>2022-05-23 00:11:18</time>
      </trkpt>
      <trkpt lat="42.58164" lon="0.75609">
        <ele>1444.6</ele>
        <time>2022-05-23 00:11:19</time>
      </trkpt>
      <trkpt lat="42.5816" lon="0.75609">
        <ele>1444.6</ele>
        <time>2022-05-23 00:11:20</time>
      </trkpt>
      <trkpt lat="42.58156" lon="0.75609">
        <ele>1444.4</ele>
        <time>2022-05-23 00:11:21</time>
      </trkpt>
      <trkpt lat="42.58152" lon="0.75608">
        <ele>1444.4</ele>
        <time>2022-05-23 00:11:22</time>
      </trkpt>
      <trkpt lat="42.58147" lon="0.75607">
        <ele>1444.6</ele>
        <time>2022-05-23 00:11:23</time>
      </trkpt>
      <trkpt lat="42.58142" lon="0.75607">
        <ele>1444.6</ele>
        <time>2022-05-23 00:11:24</time>
      </trkpt>
      <trkpt lat="42.58138" lon="0.75607">
        <ele>1444.6</ele>
        <time>2022-05-23 00:11:25</time>
      </trkpt>
      <trkpt lat="42.58133" lon="0.75607">
        <ele>1444.6</ele>
        <time>2022-05-23 00:11:26</time>
      </trkpt>
      <trkpt lat="42.58128" lon="0.75607">
        <ele>1444.6</ele>
        <time>2022-05-23 00:11:27</time>
      </trkpt>
      <trkpt lat="42.58123" lon="0.75607">
        <ele>1444.6</ele>
        <time>2022-05-23 00:11:28</time>
      </trkpt>
      <trkpt lat="42.58119" lon="0.75607">
        <ele>1444.8</ele>
        <time>2022-05-23 00:11:29</time>
      </trkpt>
      <trkpt lat="42.58114" lon="0.75606">
        <ele>1444.8</ele>
        <time>2022-05-23 00:11:30</time>
      </trkpt>
      <trkpt lat="42.58109" lon="0.75606">
        <ele>1444.8</ele>
        <time>2022-05-23 00:11:31</time>
      </trkpt>
      <trkpt lat="42.58104" lon="0.75606">
        <ele>1444.6</ele>
        <time>2022-05-23 00:11:32</time>
      </trkpt>
      <trkpt lat="42.58099" lon="0.75607">
        <ele>1444.6</ele>
        <time>2022-05-23 00:11:33</time>
      </trkpt>
      <trkpt lat="42.58094" lon="0.75607">
        <ele>1444.6</ele>
        <time>2022-05-23 00:11:34</time>
      </trkpt>
      <trkpt lat="42.58088" lon="0.75607">
        <ele>1444.6</ele>
        <time>2022-05-23 00:11:35</time>
      </trkpt>
      <trkpt lat="42.58083" lon="0.75607">
        <ele>1444.6</ele>
        <time>2022-05-23 00:11:36</time>
      </trkpt>
      <trkpt lat="42.58077" lon="0.75607">
        <ele>1444.6</ele>
        <time>2022-05-23 00:11:37</time>
      </trkpt>
      <trkpt lat="42.58071" lon="0.75608">
        <ele>1444.6</ele>
        <time>2022-05-23 00:11:38</time>
      </trkpt>
      <trkpt lat="42.58066" lon="0.75609">
        <ele>1444.4</ele>
        <time>2022-05-23 00:11:39</time>
      </trkpt>
      <trkpt lat="42.5806" lon="0.7561">
        <ele>1444.4</ele>
        <time>2022-05-23 00:11:40</time>
      </trkpt>
      <trkpt lat="42.58054" lon="0.75611">
        <ele>1444.4</ele>
        <time>2022-05-23 00:11:41</time>
      </trkpt>
      <trkpt lat="42.58048" lon="0.75612">
        <ele>1444.2</ele>
        <time>2022-05-23 00:11:42</time>
      </trkpt>
      <trkpt lat="42.58043" lon="0.75613">
        <ele>1444.2</ele>
        <time>2022-05-23 00:11:43</time>
      </trkpt>
      <trkpt lat="42.58037" lon="0.75615">
        <ele>1444</ele>
        <time>2022-05-23 00:11:44</time>
      </trkpt>
      <trkpt lat="42.58031" lon="0.75617">
        <ele>1443.8</ele>
        <time>2022-05-23 00:11:45</time>
      </trkpt>
      <trkpt lat="42.58024" lon="0.75619">
        <ele>1443.6</ele>
        <time>2022-05-23 00:11:46</time>
      </trkpt>
      <trkpt lat="42.58018" lon="0.75621">
        <ele>1443.2</ele>
        <time>2022-05-23 00:11:47</time>
      </trkpt>
      <trkpt lat="42.58011" lon="0.75624">
        <ele>1443</ele>
        <time>2022-05-23 00:11:48</time>
      </trkpt>
      <trkpt lat="42.58004" lon="0.75627">
        <ele>1442.6</ele>
        <time>2022-05-23 00:11:49</time>
      </trkpt>
      <trkpt lat="42.57997" lon="0.75631">
        <ele>1442.2</ele>
        <time>2022-05-23 00:11:50</time>
      </trkpt>
      <trkpt lat="42.57989" lon="0.75634">
        <ele>1441.8</ele>
        <time>2022-05-23 00:11:51</time>
      </trkpt>
      <trkpt lat="42.57981" lon="0.75636">
        <ele>1441.2</ele>
        <time>2022-05-23 00:11:52</time>
      </trkpt>
      <trkpt lat="42.57973" lon="0.75638">
        <ele>1440.8</ele>
        <time>2022-05-23 00:11:53</time>
      </trkpt>
      <trkpt lat="42.57964" lon="0.75639">
        <ele>1440.4</ele>
        <time>2022-05-23 00:11:54</time>
      </trkpt>
      <trkpt lat="42.57956" lon="0.7564">
        <ele>1440.2</ele>
        <time>2022-05-23 00:11:55</time>
      </trkpt>
      <trkpt lat="42.57947" lon="0.75639">
        <ele>1440</ele>
        <time>2022-05-23 00:11:56</time>
      </trkpt>
      <trkpt lat="42.57938" lon="0.75639">
        <ele>1439.6</ele>
        <time>2022-05-23 00:11:57</time>
      </trkpt>
      <trkpt lat="42.5793" lon="0.75638">
        <ele>1439.2</ele>
        <time>2022-05-23 00:11:58</time>
      </trkpt>
      <trkpt lat="42.57921" lon="0.75638">
        <ele>1438.8</ele>
        <time>2022-05-23 00:11:59</time>
      </trkpt>
      <trkpt lat="42.57913" lon="0.75637">
        <ele>1438.4</ele>
        <time>2022-05-23 00:12:00</time>
      </trkpt>
      <trkpt lat="42.57905" lon="0.75636">
        <ele>1438</ele>
        <time>2022-05-23 00:12:01</time>
      </trkpt>
      <trkpt lat="42.57898" lon="0.75635">
        <ele>1437.6</ele>
        <time>2022-05-23 00:12:02</time>
      </trkpt>
      <trkpt lat="42.57889" lon="0.75633">
        <ele>1437.2</ele>
        <time>2022-05-23 00:12:03</time>
      </trkpt>
      <trkpt lat="42.57882" lon="0.75632">
        <ele>1436.6</ele>
        <time>2022-05-23 00:12:04</time>
      </trkpt>
      <trkpt lat="42.57873" lon="0.75631">
        <ele>1436</ele>
        <time>2022-05-23 00:12:05</time>
      </trkpt>
      <trkpt lat="42.57865" lon="0.7563">
        <ele>1435.6</ele>
        <time>2022-05-23 00:12:06</time>
      </trkpt>
      <trkpt lat="42.57857" lon="0.75629">
        <ele>1435</ele>
        <time>2022-05-23 00:12:07</time>
      </trkpt>
      <trkpt lat="42.57849" lon="0.75628">
        <ele>1434.4</ele>
        <time>2022-05-23 00:12:08</time>
      </trkpt>
      <trkpt lat="42.57841" lon="0.75627">
        <ele>1433.6</ele>
        <time>2022-05-23 00:12:09</time>
      </trkpt>
      <trkpt lat="42.57833" lon="0.75625">
        <ele>1433</ele>
        <time>2022-05-23 00:12:10</time>
      </trkpt>
      <trkpt lat="42.57822" lon="0.75623">
        <ele>1432.2</ele>
        <time>2022-05-23 00:12:11</time>
      </trkpt>
      <trkpt lat="42.57811" lon="0.75621">
        <ele>1431.4</ele>
        <time>2022-05-23 00:12:12</time>
      </trkpt>
      <trkpt lat="42.578" lon="0.75618">
        <ele>1430.6</ele>
        <time>2022-05-23 00:12:13</time>
      </trkpt>
      <trkpt lat="42.5779" lon="0.75615">
        <ele>1430</ele>
        <time>2022-05-23 00:12:14</time>
      </trkpt>
      <trkpt lat="42.57779" lon="0.75613">
        <ele>1429.4</ele>
        <time>2022-05-23 00:12:15</time>
      </trkpt>
      <trkpt lat="42.57768" lon="0.7561">
        <ele>1428.6</ele>
        <time>2022-05-23 00:12:16</time>
      </trkpt>
      <trkpt lat="42.57757" lon="0.75608">
        <ele>1427.8</ele>
        <time>2022-05-23 00:12:17</time>
      </trkpt>
      <trkpt lat="42.57746" lon="0.75605">
        <ele>1427.2</ele>
        <time>2022-05-23 00:12:18</time>
      </trkpt>
      <trkpt lat="42.57735" lon="0.75602">
        <ele>1426.2</ele>
        <time>2022-05-23 00:12:19</time>
      </trkpt>
      <trkpt lat="42.57724" lon="0.756">
        <ele>1425.4</ele>
        <time>2022-05-23 00:12:20</time>
      </trkpt>
      <trkpt lat="42.57713" lon="0.75597">
        <ele>1424.8</ele>
        <time>2022-05-23 00:12:21</time>
      </trkpt>
      <trkpt lat="42.57702" lon="0.75595">
        <ele>1424.2</ele>
        <time>2022-05-23 00:12:22</time>
      </trkpt>
      <trkpt lat="42.57691" lon="0.75592">
        <ele>1423.6</ele>
        <time>2022-05-23 00:12:23</time>
      </trkpt>
      <trkpt lat="42.5768" lon="0.75589">
        <ele>1422.8</ele>
        <time>2022-05-23 00:12:24</time>
      </trkpt>
      <trkpt lat="42.57666" lon="0.75597">
        <ele>1422.2</ele>
        <time>2022-05-23 00:12:25</time>
      </trkpt>
      <trkpt lat="42.57652" lon="0.75604">
        <ele>1421.4</ele>
        <time>2022-05-23 00:12:26</time>
      </trkpt>
      <trkpt lat="42.57638" lon="0.75609">
        <ele>1420.6</ele>
        <time>2022-05-23 00:12:27</time>
      </trkpt>
      <trkpt lat="42.57627" lon="0.75611">
        <ele>1419.8</ele>
        <time>2022-05-23 00:12:28</time>
      </trkpt>
      <trkpt lat="42.57615" lon="0.75612">
        <ele>1419.2</ele>
        <time>2022-05-23 00:12:29</time>
      </trkpt>
      <trkpt lat="42.57604" lon="0.75612">
        <ele>1418.4</ele>
        <time>2022-05-23 00:12:30</time>
      </trkpt>
      <trkpt lat="42.57592" lon="0.75613">
        <ele>1417.6</ele>
        <time>2022-05-23 00:12:31</time>
      </trkpt>
      <trkpt lat="42.5758" lon="0.75615">
        <ele>1416.8</ele>
        <time>2022-05-23 00:12:32</time>
      </trkpt>
      <trkpt lat="42.57569" lon="0.75617">
        <ele>1416</ele>
        <time>2022-05-23 00:12:33</time>
      </trkpt>
      <trkpt lat="42.57557" lon="0.75618">
        <ele>1415.4</ele>
        <time>2022-05-23 00:12:34</time>
      </trkpt>
      <trkpt lat="42.57545" lon="0.75619">
        <ele>1414.4</ele>
        <time>2022-05-23 00:12:35</time>
      </trkpt>
      <trkpt lat="42.57532" lon="0.7562">
        <ele>1413.4</ele>
        <time>2022-05-23 00:12:36</time>
      </trkpt>
      <trkpt lat="42.5752" lon="0.75621">
        <ele>1412.4</ele>
        <time>2022-05-23 00:12:37</time>
      </trkpt>
      <trkpt lat="42.57507" lon="0.75621">
        <ele>1411.6</ele>
        <time>2022-05-23 00:12:38</time>
      </trkpt>
      <trkpt lat="42.57495" lon="0.75619">
        <ele>1410.8</ele>
        <time>2022-05-23 00:12:39</time>
      </trkpt>
      <trkpt lat="42.57483" lon="0.75617">
        <ele>1409.8</ele>
        <time>2022-05-23 00:12:40</time>
      </trkpt>
      <trkpt lat="42.57471" lon="0.75612">
        <ele>1409</ele>
        <time>2022-05-23 00:12:41</time>
      </trkpt>
      <trkpt lat="42.5746" lon="0.75607">
        <ele>1408.2</ele>
        <time>2022-05-23 00:12:42</time>
      </trkpt>
      <trkpt lat="42.57448" lon="0.75602">
        <ele>1407.4</ele>
        <time>2022-05-23 00:12:43</time>
      </trkpt>
      <trkpt lat="42.57435" lon="0.75598">
        <ele>1406.6</ele>
        <time>2022-05-23 00:12:44</time>
      </trkpt>
      <trkpt lat="42.57423" lon="0.75594">
        <ele>1405.8</ele>
        <time>2022-05-23 00:12:45</time>
      </trkpt>
      <trkpt lat="42.5741" lon="0.75589">
        <ele>1405</ele>
        <time>2022-05-23 00:12:46</time>
      </trkpt>
      <trkpt lat="42.57398" lon="0.75585">
        <ele>1404</ele>
        <time>2022-05-23 00:12:47</time>
      </trkpt>
      <trkpt lat="42.57385" lon="0.75581">
        <ele>1403</ele>
        <time>2022-05-23 00:12:48</time>
      </trkpt>
      <trkpt lat="42.57372" lon="0.75578">
        <ele>1402</ele>
        <time>2022-05-23 00:12:49</time>
      </trkpt>
      <trkpt lat="42.57358" lon="0.75575">
        <ele>1401</ele>
        <time>2022-05-23 00:12:50</time>
      </trkpt>
      <trkpt lat="42.57346" lon="0.75572">
        <ele>1400</ele>
        <time>2022-05-23 00:12:51</time>
      </trkpt>
      <trkpt lat="42.57334" lon="0.75568">
        <ele>1399.2</ele>
        <time>2022-05-23 00:12:52</time>
      </trkpt>
      <trkpt lat="42.57322" lon="0.75564">
        <ele>1398.2</ele>
        <time>2022-05-23 00:12:53</time>
      </trkpt>
      <trkpt lat="42.5731" lon="0.7556">
        <ele>1397.4</ele>
        <time>2022-05-23 00:12:54</time>
      </trkpt>
      <trkpt lat="42.57298" lon="0.75556">
        <ele>1396.4</ele>
        <time>2022-05-23 00:12:55</time>
      </trkpt>
      <trkpt lat="42.57285" lon="0.75552">
        <ele>1395.6</ele>
        <time>2022-05-23 00:12:56</time>
      </trkpt>
      <trkpt lat="42.57273" lon="0.75548">
        <ele>1394.8</ele>
        <time>2022-05-23 00:12:57</time>
      </trkpt>
      <trkpt lat="42.5726" lon="0.75544">
        <ele>1394</ele>
        <time>2022-05-23 00:12:58</time>
      </trkpt>
      <trkpt lat="42.57249" lon="0.7554">
        <ele>1393.2</ele>
        <time>2022-05-23 00:12:59</time>
      </trkpt>
      <trkpt lat="42.57236" lon="0.75536">
        <ele>1392.6</ele>
        <time>2022-05-23 00:13:00</time>
      </trkpt>
      <trkpt lat="42.57224" lon="0.75533">
        <ele>1391.8</ele>
        <time>2022-05-23 00:13:01</time>
      </trkpt>
      <trkpt lat="42.57211" lon="0.75529">
        <ele>1391</ele>
        <time>2022-05-23 00:13:02</time>
      </trkpt>
      <trkpt lat="42.57198" lon="0.75526">
        <ele>1390.2</ele>
        <time>2022-05-23 00:13:03</time>
      </trkpt>
      <trkpt lat="42.57185" lon="0.75522">
        <ele>1389.4</ele>
        <time>2022-05-23 00:13:04</time>
      </trkpt>
      <trkpt lat="42.57173" lon="0.75518">
        <ele>1388.6</ele>
        <time>2022-05-23 00:13:05</time>
      </trkpt>
      <trkpt lat="42.5716" lon="0.75515">
        <ele>1387.8</ele>
        <time>2022-05-23 00:13:06</time>
      </trkpt>
      <trkpt lat="42.57147" lon="0.75511">
        <ele>1387</ele>
        <time>2022-05-23 00:13:07</time>
      </trkpt>
      <trkpt lat="42.57134" lon="0.75508">
        <ele>1386</ele>
        <time>2022-05-23 00:13:08</time>
      </trkpt>
      <trkpt lat="42.57121" lon="0.75504">
        <ele>1385.2</ele>
        <time>2022-05-23 00:13:09</time>
      </trkpt>
      <trkpt lat="42.57109" lon="0.755">
        <ele>1384.4</ele>
        <time>2022-05-23 00:13:10</time>
      </trkpt>
      <trkpt lat="42.57096" lon="0.75497">
        <ele>1383.8</ele>
        <time>2022-05-23 00:13:11</time>
      </trkpt>
      <trkpt lat="42.57083" lon="0.75493">
        <ele>1383.2</ele>
        <time>2022-05-23 00:13:12</time>
      </trkpt>
      <trkpt lat="42.57072" lon="0.75491">
        <ele>1382.6</ele>
        <time>2022-05-23 00:13:13</time>
      </trkpt>
      <trkpt lat="42.57059" lon="0.75487">
        <ele>1382</ele>
        <time>2022-05-23 00:13:14</time>
      </trkpt>
      <trkpt lat="42.57046" lon="0.75483">
        <ele>1381.2</ele>
        <time>2022-05-23 00:13:15</time>
      </trkpt>
      <trkpt lat="42.57034" lon="0.75479">
        <ele>1380.4</ele>
        <time>2022-05-23 00:13:16</time>
      </trkpt>
      <trkpt lat="42.57021" lon="0.75476">
        <ele>1379.6</ele>
        <time>2022-05-23 00:13:17</time>
      </trkpt>
      <trkpt lat="42.57009" lon="0.75473">
        <ele>1378.8</ele>
        <time>2022-05-23 00:13:18</time>
      </trkpt>
      <trkpt lat="42.56996" lon="0.7547">
        <ele>1378</ele>
        <time>2022-05-23 00:13:19</time>
      </trkpt>
      <trkpt lat="42.56984" lon="0.75467">
        <ele>1377</ele>
        <time>2022-05-23 00:13:20</time>
      </trkpt>
      <trkpt lat="42.56972" lon="0.75463">
        <ele>1376.4</ele>
        <time>2022-05-23 00:13:21</time>
      </trkpt>
      <trkpt lat="42.56959" lon="0.7546">
        <ele>1375.6</ele>
        <time>2022-05-23 00:13:22</time>
      </trkpt>
      <trkpt lat="42.56946" lon="0.75456">
        <ele>1374.8</ele>
        <time>2022-05-23 00:13:23</time>
      </trkpt>
      <trkpt lat="42.56933" lon="0.75451">
        <ele>1373.8</ele>
        <time>2022-05-23 00:13:24</time>
      </trkpt>
      <trkpt lat="42.56921" lon="0.75445">
        <ele>1372.6</ele>
        <time>2022-05-23 00:13:25</time>
      </trkpt>
      <trkpt lat="42.56909" lon="0.75439">
        <ele>1371.4</ele>
        <time>2022-05-23 00:13:26</time>
      </trkpt>
      <trkpt lat="42.56897" lon="0.75433">
        <ele>1370.4</ele>
        <time>2022-05-23 00:13:27</time>
      </trkpt>
      <trkpt lat="42.56885" lon="0.75427">
        <ele>1369.4</ele>
        <time>2022-05-23 00:13:28</time>
      </trkpt>
      <trkpt lat="42.56874" lon="0.75421">
        <ele>1368.6</ele>
        <time>2022-05-23 00:13:29</time>
      </trkpt>
      <trkpt lat="42.56862" lon="0.75415">
        <ele>1367.6</ele>
        <time>2022-05-23 00:13:30</time>
      </trkpt>
      <trkpt lat="42.5685" lon="0.75409">
        <ele>1366.8</ele>
        <time>2022-05-23 00:13:31</time>
      </trkpt>
      <trkpt lat="42.56839" lon="0.75403">
        <ele>1365.8</ele>
        <time>2022-05-23 00:13:32</time>
      </trkpt>
      <trkpt lat="42.56827" lon="0.75396">
        <ele>1365</ele>
        <time>2022-05-23 00:13:33</time>
      </trkpt>
      <trkpt lat="42.56815" lon="0.7539">
        <ele>1364.2</ele>
        <time>2022-05-23 00:13:34</time>
      </trkpt>
      <trkpt lat="42.56806" lon="0.75377">
        <ele>1363.2</ele>
        <time>2022-05-23 00:13:35</time>
      </trkpt>
      <trkpt lat="42.56799" lon="0.75362">
        <ele>1362.4</ele>
        <time>2022-05-23 00:13:36</time>
      </trkpt>
      <trkpt lat="42.56791" lon="0.75347">
        <ele>1361.6</ele>
        <time>2022-05-23 00:13:37</time>
      </trkpt>
      <trkpt lat="42.56783" lon="0.75332">
        <ele>1360.8</ele>
        <time>2022-05-23 00:13:38</time>
      </trkpt>
      <trkpt lat="42.56775" lon="0.75317">
        <ele>1360</ele>
        <time>2022-05-23 00:13:39</time>
      </trkpt>
      <trkpt lat="42.56767" lon="0.75302">
        <ele>1359.2</ele>
        <time>2022-05-23 00:13:40</time>
      </trkpt>
      <trkpt lat="42.56759" lon="0.75287">
        <ele>1358.6</ele>
        <time>2022-05-23 00:13:41</time>
      </trkpt>
      <trkpt lat="42.56751" lon="0.75272">
        <ele>1358</ele>
        <time>2022-05-23 00:13:42</time>
      </trkpt>
      <trkpt lat="42.5675" lon="0.75267">
        <ele>1357.2</ele>
        <time>2022-05-23 00:13:43</time>
      </trkpt>
      <trkpt lat="42.56744" lon="0.75258">
        <ele>1356.4</ele>
        <time>2022-05-23 00:13:44</time>
      </trkpt>
      <trkpt lat="42.56735" lon="0.75246">
        <ele>1355.6</ele>
        <time>2022-05-23 00:13:45</time>
      </trkpt>
      <trkpt lat="42.56724" lon="0.75234">
        <ele>1354.8</ele>
        <time>2022-05-23 00:13:46</time>
      </trkpt>
      <trkpt lat="42.56713" lon="0.75222">
        <ele>1353.8</ele>
        <time>2022-05-23 00:13:47</time>
      </trkpt>
      <trkpt lat="42.56703" lon="0.75211">
        <ele>1353.2</ele>
        <time>2022-05-23 00:13:48</time>
      </trkpt>
      <trkpt lat="42.56693" lon="0.75199">
        <ele>1352.4</ele>
        <time>2022-05-23 00:13:49</time>
      </trkpt>
      <trkpt lat="42.56684" lon="0.75188">
        <ele>1351.6</ele>
        <time>2022-05-23 00:13:50</time>
      </trkpt>
      <trkpt lat="42.56674" lon="0.75177">
        <ele>1350.6</ele>
        <time>2022-05-23 00:13:51</time>
      </trkpt>
      <trkpt lat="42.56665" lon="0.75167">
        <ele>1349.8</ele>
        <time>2022-05-23 00:13:52</time>
      </trkpt>
      <trkpt lat="42.56655" lon="0.75156">
        <ele>1349</ele>
        <time>2022-05-23 00:13:53</time>
      </trkpt>
      <trkpt lat="42.56645" lon="0.75146">
        <ele>1348.2</ele>
        <time>2022-05-23 00:13:54</time>
      </trkpt>
      <trkpt lat="42.56634" lon="0.75137">
        <ele>1347.4</ele>
        <time>2022-05-23 00:13:55</time>
      </trkpt>
      <trkpt lat="42.56624" lon="0.75127">
        <ele>1346.6</ele>
        <time>2022-05-23 00:13:56</time>
      </trkpt>
      <trkpt lat="42.56613" lon="0.75118">
        <ele>1345.8</ele>
        <time>2022-05-23 00:13:57</time>
      </trkpt>
      <trkpt lat="42.56602" lon="0.75109">
        <ele>1344.8</ele>
        <time>2022-05-23 00:13:58</time>
      </trkpt>
      <trkpt lat="42.5659" lon="0.75101">
        <ele>1344</ele>
        <time>2022-05-23 00:13:59</time>
      </trkpt>
      <trkpt lat="42.56579" lon="0.75092">
        <ele>1343.2</ele>
        <time>2022-05-23 00:14:00</time>
      </trkpt>
      <trkpt lat="42.56568" lon="0.75083">
        <ele>1342.2</ele>
        <time>2022-05-23 00:14:01</time>
      </trkpt>
      <trkpt lat="42.56557" lon="0.75075">
        <ele>1341.6</ele>
        <time>2022-05-23 00:14:02</time>
      </trkpt>
      <trkpt lat="42.56546" lon="0.75066">
        <ele>1340.6</ele>
        <time>2022-05-23 00:14:03</time>
      </trkpt>
      <trkpt lat="42.56535" lon="0.75057">
        <ele>1339.8</ele>
        <time>2022-05-23 00:14:04</time>
      </trkpt>
      <trkpt lat="42.56524" lon="0.75049">
        <ele>1339</ele>
        <time>2022-05-23 00:14:05</time>
      </trkpt>
      <trkpt lat="42.56512" lon="0.75041">
        <ele>1338.2</ele>
        <time>2022-05-23 00:14:06</time>
      </trkpt>
      <trkpt lat="42.56501" lon="0.75033">
        <ele>1337.4</ele>
        <time>2022-05-23 00:14:07</time>
      </trkpt>
      <trkpt lat="42.5649" lon="0.75025">
        <ele>1336.6</ele>
        <time>2022-05-23 00:14:08</time>
      </trkpt>
      <trkpt lat="42.56478" lon="0.75017">
        <ele>1335.8</ele>
        <time>2022-05-23 00:14:09</time>
      </trkpt>
      <trkpt lat="42.56467" lon="0.75009">
        <ele>1334.8</ele>
        <time>2022-05-23 00:14:10</time>
      </trkpt>
      <trkpt lat="42.56455" lon="0.75002">
        <ele>1334</ele>
        <time>2022-05-23 00:14:11</time>
      </trkpt>
      <trkpt lat="42.56444" lon="0.74995">
        <ele>1333.2</ele>
        <time>2022-05-23 00:14:12</time>
      </trkpt>
      <trkpt lat="42.56432" lon="0.74987">
        <ele>1332.4</ele>
        <time>2022-05-23 00:14:13</time>
      </trkpt>
      <trkpt lat="42.5642" lon="0.74981">
        <ele>1331.6</ele>
        <time>2022-05-23 00:14:14</time>
      </trkpt>
      <trkpt lat="42.56408" lon="0.74976">
        <ele>1330.8</ele>
        <time>2022-05-23 00:14:15</time>
      </trkpt>
      <trkpt lat="42.56395" lon="0.7497">
        <ele>1330</ele>
        <time>2022-05-23 00:14:16</time>
      </trkpt>
      <trkpt lat="42.56383" lon="0.74965">
        <ele>1329.2</ele>
        <time>2022-05-23 00:14:17</time>
      </trkpt>
      <trkpt lat="42.56369" lon="0.7496">
        <ele>1328.6</ele>
        <time>2022-05-23 00:14:18</time>
      </trkpt>
      <trkpt lat="42.56356" lon="0.74957">
        <ele>1327.8</ele>
        <time>2022-05-23 00:14:19</time>
      </trkpt>
      <trkpt lat="42.56344" lon="0.74955">
        <ele>1327</ele>
        <time>2022-05-23 00:14:20</time>
      </trkpt>
      <trkpt lat="42.56331" lon="0.74954">
        <ele>1326.2</ele>
        <time>2022-05-23 00:14:21</time>
      </trkpt>
      <trkpt lat="42.56319" lon="0.74953">
        <ele>1325.2</ele>
        <time>2022-05-23 00:14:22</time>
      </trkpt>
      <trkpt lat="42.56306" lon="0.74953">
        <ele>1324.4</ele>
        <time>2022-05-23 00:14:23</time>
      </trkpt>
      <trkpt lat="42.56292" lon="0.74953">
        <ele>1323.6</ele>
        <time>2022-05-23 00:14:24</time>
      </trkpt>
      <trkpt lat="42.56278" lon="0.74952">
        <ele>1322.8</ele>
        <time>2022-05-23 00:14:25</time>
      </trkpt>
      <trkpt lat="42.56265" lon="0.74951">
        <ele>1321.8</ele>
        <time>2022-05-23 00:14:26</time>
      </trkpt>
      <trkpt lat="42.56252" lon="0.7495">
        <ele>1321</ele>
        <time>2022-05-23 00:14:27</time>
      </trkpt>
      <trkpt lat="42.56239" lon="0.7495">
        <ele>1320</ele>
        <time>2022-05-23 00:14:28</time>
      </trkpt>
      <trkpt lat="42.56226" lon="0.74949">
        <ele>1319.2</ele>
        <time>2022-05-23 00:14:29</time>
      </trkpt>
      <trkpt lat="42.56212" lon="0.74948">
        <ele>1318.2</ele>
        <time>2022-05-23 00:14:30</time>
      </trkpt>
      <trkpt lat="42.56199" lon="0.74946">
        <ele>1317.4</ele>
        <time>2022-05-23 00:14:31</time>
      </trkpt>
      <trkpt lat="42.56187" lon="0.74943">
        <ele>1316.4</ele>
        <time>2022-05-23 00:14:32</time>
      </trkpt>
      <trkpt lat="42.56174" lon="0.74939">
        <ele>1315.6</ele>
        <time>2022-05-23 00:14:33</time>
      </trkpt>
      <trkpt lat="42.56162" lon="0.74936">
        <ele>1314.8</ele>
        <time>2022-05-23 00:14:34</time>
      </trkpt>
      <trkpt lat="42.56149" lon="0.74932">
        <ele>1313.8</ele>
        <time>2022-05-23 00:14:35</time>
      </trkpt>
      <trkpt lat="42.56137" lon="0.74929">
        <ele>1313</ele>
        <time>2022-05-23 00:14:36</time>
      </trkpt>
      <trkpt lat="42.56124" lon="0.74925">
        <ele>1312.2</ele>
        <time>2022-05-23 00:14:37</time>
      </trkpt>
      <trkpt lat="42.56111" lon="0.74921">
        <ele>1311.4</ele>
        <time>2022-05-23 00:14:38</time>
      </trkpt>
      <trkpt lat="42.56098" lon="0.74917">
        <ele>1310.6</ele>
        <time>2022-05-23 00:14:39</time>
      </trkpt>
      <trkpt lat="42.56085" lon="0.74912">
        <ele>1309.8</ele>
        <time>2022-05-23 00:14:40</time>
      </trkpt>
      <trkpt lat="42.56073" lon="0.74907">
        <ele>1309</ele>
        <time>2022-05-23 00:14:41</time>
      </trkpt>
      <trkpt lat="42.5606" lon="0.74903">
        <ele>1308</ele>
        <time>2022-05-23 00:14:42</time>
      </trkpt>
      <trkpt lat="42.56047" lon="0.74898">
        <ele>1307.2</ele>
        <time>2022-05-23 00:14:43</time>
      </trkpt>
      <trkpt lat="42.56034" lon="0.74894">
        <ele>1306.4</ele>
        <time>2022-05-23 00:14:44</time>
      </trkpt>
      <trkpt lat="42.56021" lon="0.7489">
        <ele>1305.6</ele>
        <time>2022-05-23 00:14:45</time>
      </trkpt>
      <trkpt lat="42.56008" lon="0.74885">
        <ele>1304.8</ele>
        <time>2022-05-23 00:14:46</time>
      </trkpt>
      <trkpt lat="42.55996" lon="0.74878">
        <ele>1304</ele>
        <time>2022-05-23 00:14:47</time>
      </trkpt>
      <trkpt lat="42.55983" lon="0.74871">
        <ele>1303.2</ele>
        <time>2022-05-23 00:14:48</time>
      </trkpt>
      <trkpt lat="42.55971" lon="0.74864">
        <ele>1302.4</ele>
        <time>2022-05-23 00:14:49</time>
      </trkpt>
      <trkpt lat="42.55959" lon="0.74856">
        <ele>1301.6</ele>
        <time>2022-05-23 00:14:50</time>
      </trkpt>
      <trkpt lat="42.55948" lon="0.74847">
        <ele>1300.8</ele>
        <time>2022-05-23 00:14:51</time>
      </trkpt>
      <trkpt lat="42.55938" lon="0.74837">
        <ele>1299.8</ele>
        <time>2022-05-23 00:14:52</time>
      </trkpt>
      <trkpt lat="42.55928" lon="0.74827">
        <ele>1299</ele>
        <time>2022-05-23 00:14:53</time>
      </trkpt>
      <trkpt lat="42.55919" lon="0.74815">
        <ele>1298</ele>
        <time>2022-05-23 00:14:54</time>
      </trkpt>
      <trkpt lat="42.55909" lon="0.74804">
        <ele>1297.4</ele>
        <time>2022-05-23 00:14:55</time>
      </trkpt>
      <trkpt lat="42.55899" lon="0.74793">
        <ele>1296.6</ele>
        <time>2022-05-23 00:14:56</time>
      </trkpt>
      <trkpt lat="42.55888" lon="0.74783">
        <ele>1295.8</ele>
        <time>2022-05-23 00:14:57</time>
      </trkpt>
      <trkpt lat="42.55877" lon="0.74772">
        <ele>1295</ele>
        <time>2022-05-23 00:14:58</time>
      </trkpt>
      <trkpt lat="42.55866" lon="0.74764">
        <ele>1294.2</ele>
        <time>2022-05-23 00:14:59</time>
      </trkpt>
      <trkpt lat="42.55853" lon="0.74757">
        <ele>1293.6</ele>
        <time>2022-05-23 00:15:00</time>
      </trkpt>
      <trkpt lat="42.5584" lon="0.74752">
        <ele>1293</ele>
        <time>2022-05-23 00:15:01</time>
      </trkpt>
      <trkpt lat="42.55827" lon="0.74748">
        <ele>1292.2</ele>
        <time>2022-05-23 00:15:02</time>
      </trkpt>
      <trkpt lat="42.55814" lon="0.74746">
        <ele>1291.6</ele>
        <time>2022-05-23 00:15:03</time>
      </trkpt>
      <trkpt lat="42.55801" lon="0.74744">
        <ele>1291</ele>
        <time>2022-05-23 00:15:04</time>
      </trkpt>
      <trkpt lat="42.55788" lon="0.74745">
        <ele>1290.4</ele>
        <time>2022-05-23 00:15:05</time>
      </trkpt>
      <trkpt lat="42.55776" lon="0.74747">
        <ele>1289.8</ele>
        <time>2022-05-23 00:15:06</time>
      </trkpt>
      <trkpt lat="42.55765" lon="0.74747">
        <ele>1289</ele>
        <time>2022-05-23 00:15:07</time>
      </trkpt>
      <trkpt lat="42.55753" lon="0.74748">
        <ele>1288.4</ele>
        <time>2022-05-23 00:15:08</time>
      </trkpt>
      <trkpt lat="42.55739" lon="0.74748">
        <ele>1287.8</ele>
        <time>2022-05-23 00:15:09</time>
      </trkpt>
      <trkpt lat="42.55727" lon="0.7475">
        <ele>1287</ele>
        <time>2022-05-23 00:15:10</time>
      </trkpt>
      <trkpt lat="42.55716" lon="0.74752">
        <ele>1286.2</ele>
        <time>2022-05-23 00:15:11</time>
      </trkpt>
      <trkpt lat="42.55703" lon="0.74753">
        <ele>1285.6</ele>
        <time>2022-05-23 00:15:12</time>
      </trkpt>
      <trkpt lat="42.55689" lon="0.74754">
        <ele>1284.8</ele>
        <time>2022-05-23 00:15:13</time>
      </trkpt>
      <trkpt lat="42.55677" lon="0.74755">
        <ele>1284</ele>
        <time>2022-05-23 00:15:14</time>
      </trkpt>
      <trkpt lat="42.55664" lon="0.74756">
        <ele>1283.2</ele>
        <time>2022-05-23 00:15:15</time>
      </trkpt>
      <trkpt lat="42.55651" lon="0.74757">
        <ele>1282.4</ele>
        <time>2022-05-23 00:15:16</time>
      </trkpt>
      <trkpt lat="42.55639" lon="0.74758">
        <ele>1281.6</ele>
        <time>2022-05-23 00:15:17</time>
      </trkpt>
      <trkpt lat="42.55626" lon="0.74759">
        <ele>1280.6</ele>
        <time>2022-05-23 00:15:18</time>
      </trkpt>
      <trkpt lat="42.55614" lon="0.7476">
        <ele>1279.8</ele>
        <time>2022-05-23 00:15:19</time>
      </trkpt>
      <trkpt lat="42.55601" lon="0.74761">
        <ele>1278.8</ele>
        <time>2022-05-23 00:15:20</time>
      </trkpt>
      <trkpt lat="42.55587" lon="0.74762">
        <ele>1278</ele>
        <time>2022-05-23 00:15:21</time>
      </trkpt>
      <trkpt lat="42.55574" lon="0.74763">
        <ele>1277</ele>
        <time>2022-05-23 00:15:22</time>
      </trkpt>
      <trkpt lat="42.55561" lon="0.74764">
        <ele>1276.2</ele>
        <time>2022-05-23 00:15:23</time>
      </trkpt>
      <trkpt lat="42.55548" lon="0.74765">
        <ele>1275.2</ele>
        <time>2022-05-23 00:15:24</time>
      </trkpt>
      <trkpt lat="42.55534" lon="0.74765">
        <ele>1274.4</ele>
        <time>2022-05-23 00:15:25</time>
      </trkpt>
      <trkpt lat="42.55522" lon="0.74767">
        <ele>1273.8</ele>
        <time>2022-05-23 00:15:26</time>
      </trkpt>
      <trkpt lat="42.55509" lon="0.74769">
        <ele>1273</ele>
        <time>2022-05-23 00:15:27</time>
      </trkpt>
      <trkpt lat="42.55497" lon="0.74772">
        <ele>1272.2</ele>
        <time>2022-05-23 00:15:28</time>
      </trkpt>
      <trkpt lat="42.55485" lon="0.74776">
        <ele>1271.6</ele>
        <time>2022-05-23 00:15:29</time>
      </trkpt>
      <trkpt lat="42.55473" lon="0.74781">
        <ele>1270.8</ele>
        <time>2022-05-23 00:15:30</time>
      </trkpt>
      <trkpt lat="42.55462" lon="0.74787">
        <ele>1270.2</ele>
        <time>2022-05-23 00:15:31</time>
      </trkpt>
      <trkpt lat="42.55451" lon="0.74793">
        <ele>1269.4</ele>
        <time>2022-05-23 00:15:32</time>
      </trkpt>
      <trkpt lat="42.55439" lon="0.74801">
        <ele>1268.6</ele>
        <time>2022-05-23 00:15:33</time>
      </trkpt>
      <trkpt lat="42.55428" lon="0.7481">
        <ele>1267.8</ele>
        <time>2022-05-23 00:15:34</time>
      </trkpt>
      <trkpt lat="42.55416" lon="0.74819">
        <ele>1266.8</ele>
        <time>2022-05-23 00:15:35</time>
      </trkpt>
      <trkpt lat="42.55405" lon="0.74828">
        <ele>1266</ele>
        <time>2022-05-23 00:15:36</time>
      </trkpt>
      <trkpt lat="42.55395" lon="0.74835">
        <ele>1265.4</ele>
        <time>2022-05-23 00:15:37</time>
      </trkpt>
      <trkpt lat="42.55385" lon="0.74843">
        <ele>1264.8</ele>
        <time>2022-05-23 00:15:38</time>
      </trkpt>
      <trkpt lat="42.55374" lon="0.7485">
        <ele>1264.2</ele>
        <time>2022-05-23 00:15:39</time>
      </trkpt>
      <trkpt lat="42.55364" lon="0.74856">
        <ele>1263.8</ele>
        <time>2022-05-23 00:15:40</time>
      </trkpt>
      <trkpt lat="42.55355" lon="0.74861">
        <ele>1263.2</ele>
        <time>2022-05-23 00:15:41</time>
      </trkpt>
      <trkpt lat="42.55344" lon="0.74865">
        <ele>1262.6</ele>
        <time>2022-05-23 00:15:42</time>
      </trkpt>
      <trkpt lat="42.55334" lon="0.74868">
        <ele>1262</ele>
        <time>2022-05-23 00:15:43</time>
      </trkpt>
      <trkpt lat="42.55324" lon="0.7487">
        <ele>1261.4</ele>
        <time>2022-05-23 00:15:44</time>
      </trkpt>
      <trkpt lat="42.55314" lon="0.74869">
        <ele>1260.8</ele>
        <time>2022-05-23 00:15:45</time>
      </trkpt>
      <trkpt lat="42.55304" lon="0.74866">
        <ele>1260.2</ele>
        <time>2022-05-23 00:15:46</time>
      </trkpt>
      <trkpt lat="42.55293" lon="0.74862">
        <ele>1259.4</ele>
        <time>2022-05-23 00:15:47</time>
      </trkpt>
      <trkpt lat="42.55282" lon="0.74854">
        <ele>1258.8</ele>
        <time>2022-05-23 00:15:48</time>
      </trkpt>
      <trkpt lat="42.55273" lon="0.74847">
        <ele>1258</ele>
        <time>2022-05-23 00:15:49</time>
      </trkpt>
      <trkpt lat="42.55263" lon="0.74837">
        <ele>1257.2</ele>
        <time>2022-05-23 00:15:50</time>
      </trkpt>
      <trkpt lat="42.55254" lon="0.74828">
        <ele>1256.4</ele>
        <time>2022-05-23 00:15:51</time>
      </trkpt>
      <trkpt lat="42.55244" lon="0.74817">
        <ele>1255.8</ele>
        <time>2022-05-23 00:15:52</time>
      </trkpt>
      <trkpt lat="42.55236" lon="0.74806">
        <ele>1255</ele>
        <time>2022-05-23 00:15:53</time>
      </trkpt>
      <trkpt lat="42.55227" lon="0.74795">
        <ele>1254</ele>
        <time>2022-05-23 00:15:54</time>
      </trkpt>
      <trkpt lat="42.55217" lon="0.74784">
        <ele>1253.2</ele>
        <time>2022-05-23 00:15:55</time>
      </trkpt>
      <trkpt lat="42.55207" lon="0.74773">
        <ele>1252.4</ele>
        <time>2022-05-23 00:15:56</time>
      </trkpt>
      <trkpt lat="42.55198" lon="0.74763">
        <ele>1251.6</ele>
        <time>2022-05-23 00:15:57</time>
      </trkpt>
      <trkpt lat="42.55189" lon="0.74753">
        <ele>1250.8</ele>
        <time>2022-05-23 00:15:58</time>
      </trkpt>
      <trkpt lat="42.55179" lon="0.74743">
        <ele>1250.2</ele>
        <time>2022-05-23 00:15:59</time>
      </trkpt>
      <trkpt lat="42.55169" lon="0.74731">
        <ele>1249.4</ele>
        <time>2022-05-23 00:16:00</time>
      </trkpt>
      <trkpt lat="42.55159" lon="0.74721">
        <ele>1248.6</ele>
        <time>2022-05-23 00:16:01</time>
      </trkpt>
      <trkpt lat="42.5515" lon="0.74711">
        <ele>1247.8</ele>
        <time>2022-05-23 00:16:02</time>
      </trkpt>
      <trkpt lat="42.5514" lon="0.74702">
        <ele>1247</ele>
        <time>2022-05-23 00:16:03</time>
      </trkpt>
      <trkpt lat="42.55131" lon="0.74692">
        <ele>1246.2</ele>
        <time>2022-05-23 00:16:04</time>
      </trkpt>
      <trkpt lat="42.5512" lon="0.74682">
        <ele>1245.4</ele>
        <time>2022-05-23 00:16:05</time>
      </trkpt>
      <trkpt lat="42.5511" lon="0.74673">
        <ele>1244.6</ele>
        <time>2022-05-23 00:16:06</time>
      </trkpt>
      <trkpt lat="42.551" lon="0.74662">
        <ele>1243.8</ele>
        <time>2022-05-23 00:16:07</time>
      </trkpt>
      <trkpt lat="42.55092" lon="0.74652">
        <ele>1243.2</ele>
        <time>2022-05-23 00:16:08</time>
      </trkpt>
      <trkpt lat="42.55084" lon="0.74638">
        <ele>1242.4</ele>
        <time>2022-05-23 00:16:09</time>
      </trkpt>
      <trkpt lat="42.55077" lon="0.74624">
        <ele>1241.6</ele>
        <time>2022-05-23 00:16:10</time>
      </trkpt>
      <trkpt lat="42.55071" lon="0.74607">
        <ele>1240.8</ele>
        <time>2022-05-23 00:16:11</time>
      </trkpt>
      <trkpt lat="42.55065" lon="0.7459">
        <ele>1240</ele>
        <time>2022-05-23 00:16:12</time>
      </trkpt>
      <trkpt lat="42.55059" lon="0.74575">
        <ele>1239</ele>
        <time>2022-05-23 00:16:13</time>
      </trkpt>
      <trkpt lat="42.55053" lon="0.74559">
        <ele>1238.2</ele>
        <time>2022-05-23 00:16:14</time>
      </trkpt>
      <trkpt lat="42.55048" lon="0.74542">
        <ele>1237.2</ele>
        <time>2022-05-23 00:16:15</time>
      </trkpt>
      <trkpt lat="42.55042" lon="0.74528">
        <ele>1236.4</ele>
        <time>2022-05-23 00:16:16</time>
      </trkpt>
      <trkpt lat="42.55036" lon="0.74516">
        <ele>1235.4</ele>
        <time>2022-05-23 00:16:17</time>
      </trkpt>
      <trkpt lat="42.55027" lon="0.74504">
        <ele>1234.6</ele>
        <time>2022-05-23 00:16:18</time>
      </trkpt>
      <trkpt lat="42.55018" lon="0.74496">
        <ele>1233.6</ele>
        <time>2022-05-23 00:16:19</time>
      </trkpt>
      <trkpt lat="42.55008" lon="0.74487">
        <ele>1232.8</ele>
        <time>2022-05-23 00:16:20</time>
      </trkpt>
      <trkpt lat="42.54997" lon="0.74476">
        <ele>1231.8</ele>
        <time>2022-05-23 00:16:21</time>
      </trkpt>
      <trkpt lat="42.54986" lon="0.74466">
        <ele>1230.8</ele>
        <time>2022-05-23 00:16:22</time>
      </trkpt>
      <trkpt lat="42.54974" lon="0.74456">
        <ele>1229.8</ele>
        <time>2022-05-23 00:16:23</time>
      </trkpt>
      <trkpt lat="42.54963" lon="0.74446">
        <ele>1229</ele>
        <time>2022-05-23 00:16:24</time>
      </trkpt>
      <trkpt lat="42.54953" lon="0.74436">
        <ele>1228.2</ele>
        <time>2022-05-23 00:16:25</time>
      </trkpt>
      <trkpt lat="42.54943" lon="0.74427">
        <ele>1227.4</ele>
        <time>2022-05-23 00:16:26</time>
      </trkpt>
      <trkpt lat="42.54934" lon="0.74417">
        <ele>1226.6</ele>
        <time>2022-05-23 00:16:27</time>
      </trkpt>
      <trkpt lat="42.54926" lon="0.74407">
        <ele>1226</ele>
        <time>2022-05-23 00:16:28</time>
      </trkpt>
      <trkpt lat="42.54919" lon="0.74395">
        <ele>1225.2</ele>
        <time>2022-05-23 00:16:29</time>
      </trkpt>
      <trkpt lat="42.54914" lon="0.74382">
        <ele>1224.6</ele>
        <time>2022-05-23 00:16:30</time>
      </trkpt>
      <trkpt lat="42.54908" lon="0.74369">
        <ele>1223.8</ele>
        <time>2022-05-23 00:16:31</time>
      </trkpt>
      <trkpt lat="42.54904" lon="0.74356">
        <ele>1223</ele>
        <time>2022-05-23 00:16:32</time>
      </trkpt>
      <trkpt lat="42.549" lon="0.74341">
        <ele>1222.2</ele>
        <time>2022-05-23 00:16:33</time>
      </trkpt>
      <trkpt lat="42.54897" lon="0.74325">
        <ele>1221.4</ele>
        <time>2022-05-23 00:16:34</time>
      </trkpt>
      <trkpt lat="42.54895" lon="0.74309">
        <ele>1220.6</ele>
        <time>2022-05-23 00:16:35</time>
      </trkpt>
      <trkpt lat="42.54893" lon="0.74294">
        <ele>1219.6</ele>
        <time>2022-05-23 00:16:36</time>
      </trkpt>
      <trkpt lat="42.5489" lon="0.74278">
        <ele>1218.8</ele>
        <time>2022-05-23 00:16:37</time>
      </trkpt>
      <trkpt lat="42.54886" lon="0.74262">
        <ele>1218</ele>
        <time>2022-05-23 00:16:38</time>
      </trkpt>
      <trkpt lat="42.54883" lon="0.74247">
        <ele>1217</ele>
        <time>2022-05-23 00:16:39</time>
      </trkpt>
      <trkpt lat="42.54877" lon="0.74232">
        <ele>1216.2</ele>
        <time>2022-05-23 00:16:40</time>
      </trkpt>
      <trkpt lat="42.54871" lon="0.74218">
        <ele>1215.4</ele>
        <time>2022-05-23 00:16:41</time>
      </trkpt>
      <trkpt lat="42.54863" lon="0.74206">
        <ele>1214.6</ele>
        <time>2022-05-23 00:16:42</time>
      </trkpt>
      <trkpt lat="42.54853" lon="0.74195">
        <ele>1213.6</ele>
        <time>2022-05-23 00:16:43</time>
      </trkpt>
      <trkpt lat="42.54843" lon="0.74185">
        <ele>1212.8</ele>
        <time>2022-05-23 00:16:44</time>
      </trkpt>
      <trkpt lat="42.54832" lon="0.74178">
        <ele>1212</ele>
        <time>2022-05-23 00:16:45</time>
      </trkpt>
      <trkpt lat="42.5482" lon="0.74172">
        <ele>1211.2</ele>
        <time>2022-05-23 00:16:46</time>
      </trkpt>
      <trkpt lat="42.54807" lon="0.74168">
        <ele>1210.4</ele>
        <time>2022-05-23 00:16:47</time>
      </trkpt>
      <trkpt lat="42.54794" lon="0.74164">
        <ele>1209.4</ele>
        <time>2022-05-23 00:16:48</time>
      </trkpt>
      <trkpt lat="42.54782" lon="0.7416">
        <ele>1208.6</ele>
        <time>2022-05-23 00:16:49</time>
      </trkpt>
      <trkpt lat="42.54769" lon="0.74156">
        <ele>1207.8</ele>
        <time>2022-05-23 00:16:50</time>
      </trkpt>
      <trkpt lat="42.54757" lon="0.74152">
        <ele>1207</ele>
        <time>2022-05-23 00:16:51</time>
      </trkpt>
      <trkpt lat="42.54747" lon="0.74147">
        <ele>1206.2</ele>
        <time>2022-05-23 00:16:52</time>
      </trkpt>
      <trkpt lat="42.54736" lon="0.74142">
        <ele>1205.6</ele>
        <time>2022-05-23 00:16:53</time>
      </trkpt>
      <trkpt lat="42.54727" lon="0.74136">
        <ele>1204.8</ele>
        <time>2022-05-23 00:16:54</time>
      </trkpt>
      <trkpt lat="42.54717" lon="0.7413">
        <ele>1204</ele>
        <time>2022-05-23 00:16:55</time>
      </trkpt>
      <trkpt lat="42.54707" lon="0.74123">
        <ele>1203.2</ele>
        <time>2022-05-23 00:16:56</time>
      </trkpt>
      <trkpt lat="42.54697" lon="0.74115">
        <ele>1202.6</ele>
        <time>2022-05-23 00:16:57</time>
      </trkpt>
      <trkpt lat="42.54687" lon="0.74108">
        <ele>1201.6</ele>
        <time>2022-05-23 00:16:58</time>
      </trkpt>
      <trkpt lat="42.54677" lon="0.741">
        <ele>1200.8</ele>
        <time>2022-05-23 00:16:59</time>
      </trkpt>
      <trkpt lat="42.54666" lon="0.74093">
        <ele>1200</ele>
        <time>2022-05-23 00:17:00</time>
      </trkpt>
      <trkpt lat="42.54656" lon="0.74085">
        <ele>1199</ele>
        <time>2022-05-23 00:17:01</time>
      </trkpt>
      <trkpt lat="42.54646" lon="0.74077">
        <ele>1198.2</ele>
        <time>2022-05-23 00:17:02</time>
      </trkpt>
      <trkpt lat="42.54636" lon="0.7407">
        <ele>1197.2</ele>
        <time>2022-05-23 00:17:03</time>
      </trkpt>
      <trkpt lat="42.54627" lon="0.74063">
        <ele>1196.4</ele>
        <time>2022-05-23 00:17:04</time>
      </trkpt>
      <trkpt lat="42.54619" lon="0.74057">
        <ele>1195.6</ele>
        <time>2022-05-23 00:17:05</time>
      </trkpt>
      <trkpt lat="42.54614" lon="0.74048">
        <ele>1194.8</ele>
        <time>2022-05-23 00:17:06</time>
      </trkpt>
      <trkpt lat="42.54621" lon="0.7402">
        <ele>1193.8</ele>
        <time>2022-05-23 00:17:07</time>
      </trkpt>
      <trkpt lat="42.54629" lon="0.73991">
        <ele>1192.6</ele>
        <time>2022-05-23 00:17:08</time>
      </trkpt>
      <trkpt lat="42.54636" lon="0.73962">
        <ele>1191.6</ele>
        <time>2022-05-23 00:17:09</time>
      </trkpt>
      <trkpt lat="42.54644" lon="0.73933">
        <ele>1190.6</ele>
        <time>2022-05-23 00:17:10</time>
      </trkpt>
      <trkpt lat="42.54651" lon="0.73904">
        <ele>1189.6</ele>
        <time>2022-05-23 00:17:11</time>
      </trkpt>
      <trkpt lat="42.54651" lon="0.73876">
        <ele>1188.8</ele>
        <time>2022-05-23 00:17:12</time>
      </trkpt>
      <trkpt lat="42.5465" lon="0.73844">
        <ele>1187.6</ele>
        <time>2022-05-23 00:17:13</time>
      </trkpt>
      <trkpt lat="42.5465" lon="0.73822">
        <ele>1186.6</ele>
        <time>2022-05-23 00:17:14</time>
      </trkpt>
      <trkpt lat="42.5465" lon="0.73804">
        <ele>1185.6</ele>
        <time>2022-05-23 00:17:15</time>
      </trkpt>
      <trkpt lat="42.5465" lon="0.73785">
        <ele>1184.8</ele>
        <time>2022-05-23 00:17:16</time>
      </trkpt>
      <trkpt lat="42.5465" lon="0.73766">
        <ele>1183.8</ele>
        <time>2022-05-23 00:17:17</time>
      </trkpt>
      <trkpt lat="42.54649" lon="0.73747">
        <ele>1182.8</ele>
        <time>2022-05-23 00:17:18</time>
      </trkpt>
      <trkpt lat="42.54649" lon="0.73729">
        <ele>1182</ele>
        <time>2022-05-23 00:17:19</time>
      </trkpt>
      <trkpt lat="42.54649" lon="0.73709">
        <ele>1181</ele>
        <time>2022-05-23 00:17:20</time>
      </trkpt>
      <trkpt lat="42.5465" lon="0.73693">
        <ele>1180.2</ele>
        <time>2022-05-23 00:17:21</time>
      </trkpt>
      <trkpt lat="42.5465" lon="0.73676">
        <ele>1179.4</ele>
        <time>2022-05-23 00:17:22</time>
      </trkpt>
      <trkpt lat="42.5465" lon="0.73657">
        <ele>1178.4</ele>
        <time>2022-05-23 00:17:23</time>
      </trkpt>
      <trkpt lat="42.54649" lon="0.73638">
        <ele>1177.6</ele>
        <time>2022-05-23 00:17:24</time>
      </trkpt>
      <trkpt lat="42.54649" lon="0.7362">
        <ele>1176.8</ele>
        <time>2022-05-23 00:17:25</time>
      </trkpt>
      <trkpt lat="42.54649" lon="0.73603">
        <ele>1175.8</ele>
        <time>2022-05-23 00:17:26</time>
      </trkpt>
      <trkpt lat="42.54649" lon="0.73586">
        <ele>1175</ele>
        <time>2022-05-23 00:17:27</time>
      </trkpt>
      <trkpt lat="42.54649" lon="0.73568">
        <ele>1174</ele>
        <time>2022-05-23 00:17:28</time>
      </trkpt>
      <trkpt lat="42.54649" lon="0.73549">
        <ele>1173.2</ele>
        <time>2022-05-23 00:17:29</time>
      </trkpt>
      <trkpt lat="42.54649" lon="0.73531">
        <ele>1172.4</ele>
        <time>2022-05-23 00:17:30</time>
      </trkpt>
      <trkpt lat="42.54648" lon="0.73513">
        <ele>1171.6</ele>
        <time>2022-05-23 00:17:31</time>
      </trkpt>
      <trkpt lat="42.54647" lon="0.73495">
        <ele>1170.8</ele>
        <time>2022-05-23 00:17:32</time>
      </trkpt>
      <trkpt lat="42.54645" lon="0.73477">
        <ele>1170</ele>
        <time>2022-05-23 00:17:33</time>
      </trkpt>
      <trkpt lat="42.54642" lon="0.73459">
        <ele>1169.2</ele>
        <time>2022-05-23 00:17:34</time>
      </trkpt>
      <trkpt lat="42.54639" lon="0.73442">
        <ele>1168.4</ele>
        <time>2022-05-23 00:17:35</time>
      </trkpt>
      <trkpt lat="42.54636" lon="0.73424">
        <ele>1167.6</ele>
        <time>2022-05-23 00:17:36</time>
      </trkpt>
      <trkpt lat="42.54633" lon="0.73407">
        <ele>1166.8</ele>
        <time>2022-05-23 00:17:37</time>
      </trkpt>
      <trkpt lat="42.54628" lon="0.7339">
        <ele>1166</ele>
        <time>2022-05-23 00:17:38</time>
      </trkpt>
      <trkpt lat="42.54623" lon="0.73374">
        <ele>1165.2</ele>
        <time>2022-05-23 00:17:39</time>
      </trkpt>
      <trkpt lat="42.54618" lon="0.73358">
        <ele>1164.4</ele>
        <time>2022-05-23 00:17:40</time>
      </trkpt>
      <trkpt lat="42.54612" lon="0.73342">
        <ele>1163.6</ele>
        <time>2022-05-23 00:17:41</time>
      </trkpt>
      <trkpt lat="42.54606" lon="0.73326">
        <ele>1163</ele>
        <time>2022-05-23 00:17:42</time>
      </trkpt>
      <trkpt lat="42.54599" lon="0.73311">
        <ele>1162.2</ele>
        <time>2022-05-23 00:17:43</time>
      </trkpt>
      <trkpt lat="42.54592" lon="0.73296">
        <ele>1161.2</ele>
        <time>2022-05-23 00:17:44</time>
      </trkpt>
      <trkpt lat="42.54584" lon="0.7328">
        <ele>1160.4</ele>
        <time>2022-05-23 00:17:45</time>
      </trkpt>
      <trkpt lat="42.54577" lon="0.73265">
        <ele>1159.4</ele>
        <time>2022-05-23 00:17:46</time>
      </trkpt>
      <trkpt lat="42.54569" lon="0.73251">
        <ele>1158.4</ele>
        <time>2022-05-23 00:17:47</time>
      </trkpt>
      <trkpt lat="42.54561" lon="0.73236">
        <ele>1157.6</ele>
        <time>2022-05-23 00:17:48</time>
      </trkpt>
      <trkpt lat="42.54554" lon="0.73221">
        <ele>1156.6</ele>
        <time>2022-05-23 00:17:49</time>
      </trkpt>
      <trkpt lat="42.54546" lon="0.73206">
        <ele>1155.8</ele>
        <time>2022-05-23 00:17:50</time>
      </trkpt>
      <trkpt lat="42.5454" lon="0.7319">
        <ele>1154.8</ele>
        <time>2022-05-23 00:17:51</time>
      </trkpt>
      <trkpt lat="42.54534" lon="0.73176">
        <ele>1154</ele>
        <time>2022-05-23 00:17:52</time>
      </trkpt>
      <trkpt lat="42.54527" lon="0.73161">
        <ele>1153.2</ele>
        <time>2022-05-23 00:17:53</time>
      </trkpt>
      <trkpt lat="42.5452" lon="0.73146">
        <ele>1152.2</ele>
        <time>2022-05-23 00:17:54</time>
      </trkpt>
      <trkpt lat="42.54513" lon="0.73132">
        <ele>1151.4</ele>
        <time>2022-05-23 00:17:55</time>
      </trkpt>
      <trkpt lat="42.54506" lon="0.73119">
        <ele>1150.6</ele>
        <time>2022-05-23 00:17:56</time>
      </trkpt>
      <trkpt lat="42.54499" lon="0.73106">
        <ele>1150</ele>
        <time>2022-05-23 00:17:57</time>
      </trkpt>
      <trkpt lat="42.54491" lon="0.73093">
        <ele>1148.8</ele>
        <time>2022-05-23 00:17:58</time>
      </trkpt>
      <trkpt lat="42.54483" lon="0.73082">
        <ele>1148</ele>
        <time>2022-05-23 00:17:59</time>
      </trkpt>
      <trkpt lat="42.54474" lon="0.73072">
        <ele>1147.4</ele>
        <time>2022-05-23 00:18:00</time>
      </trkpt>
      <trkpt lat="42.54465" lon="0.73064">
        <ele>1146.4</ele>
        <time>2022-05-23 00:18:01</time>
      </trkpt>
      <trkpt lat="42.54455" lon="0.73056">
        <ele>1145.4</ele>
        <time>2022-05-23 00:18:02</time>
      </trkpt>
      <trkpt lat="42.54444" lon="0.73049">
        <ele>1144.6</ele>
        <time>2022-05-23 00:18:03</time>
      </trkpt>
      <trkpt lat="42.54433" lon="0.73042">
        <ele>1143.8</ele>
        <time>2022-05-23 00:18:04</time>
      </trkpt>
      <trkpt lat="42.54422" lon="0.73036">
        <ele>1143</ele>
        <time>2022-05-23 00:18:05</time>
      </trkpt>
      <trkpt lat="42.54412" lon="0.73029">
        <ele>1142.4</ele>
        <time>2022-05-23 00:18:06</time>
      </trkpt>
      <trkpt lat="42.54401" lon="0.73022">
        <ele>1141.6</ele>
        <time>2022-05-23 00:18:07</time>
      </trkpt>
      <trkpt lat="42.54389" lon="0.73015">
        <ele>1140.8</ele>
        <time>2022-05-23 00:18:08</time>
      </trkpt>
      <trkpt lat="42.54378" lon="0.73009">
        <ele>1140.2</ele>
        <time>2022-05-23 00:18:09</time>
      </trkpt>
      <trkpt lat="42.54366" lon="0.73002">
        <ele>1139.4</ele>
        <time>2022-05-23 00:18:10</time>
      </trkpt>
      <trkpt lat="42.54355" lon="0.72996">
        <ele>1138.6</ele>
        <time>2022-05-23 00:18:11</time>
      </trkpt>
      <trkpt lat="42.54343" lon="0.72989">
        <ele>1138</ele>
        <time>2022-05-23 00:18:12</time>
      </trkpt>
      <trkpt lat="42.54332" lon="0.72983">
        <ele>1137.2</ele>
        <time>2022-05-23 00:18:13</time>
      </trkpt>
      <trkpt lat="42.5432" lon="0.72978">
        <ele>1136.4</ele>
        <time>2022-05-23 00:18:14</time>
      </trkpt>
      <trkpt lat="42.54309" lon="0.72972">
        <ele>1135.4</ele>
        <time>2022-05-23 00:18:15</time>
      </trkpt>
      <trkpt lat="42.54297" lon="0.72967">
        <ele>1134.6</ele>
        <time>2022-05-23 00:18:16</time>
      </trkpt>
      <trkpt lat="42.54285" lon="0.72962">
        <ele>1133.8</ele>
        <time>2022-05-23 00:18:17</time>
      </trkpt>
      <trkpt lat="42.54273" lon="0.72958">
        <ele>1133</ele>
        <time>2022-05-23 00:18:18</time>
      </trkpt>
      <trkpt lat="42.54261" lon="0.72954">
        <ele>1132</ele>
        <time>2022-05-23 00:18:19</time>
      </trkpt>
      <trkpt lat="42.54248" lon="0.72951">
        <ele>1131.2</ele>
        <time>2022-05-23 00:18:20</time>
      </trkpt>
      <trkpt lat="42.54236" lon="0.72948">
        <ele>1130.2</ele>
        <time>2022-05-23 00:18:21</time>
      </trkpt>
      <trkpt lat="42.54223" lon="0.72945">
        <ele>1129.4</ele>
        <time>2022-05-23 00:18:22</time>
      </trkpt>
      <trkpt lat="42.54211" lon="0.72941">
        <ele>1128.6</ele>
        <time>2022-05-23 00:18:23</time>
      </trkpt>
      <trkpt lat="42.54199" lon="0.72937">
        <ele>1127.8</ele>
        <time>2022-05-23 00:18:24</time>
      </trkpt>
      <trkpt lat="42.54186" lon="0.72933">
        <ele>1127</ele>
        <time>2022-05-23 00:18:25</time>
      </trkpt>
      <trkpt lat="42.54174" lon="0.72927">
        <ele>1126.2</ele>
        <time>2022-05-23 00:18:26</time>
      </trkpt>
      <trkpt lat="42.54162" lon="0.7292">
        <ele>1125.2</ele>
        <time>2022-05-23 00:18:27</time>
      </trkpt>
      <trkpt lat="42.5415" lon="0.72913">
        <ele>1124.4</ele>
        <time>2022-05-23 00:18:28</time>
      </trkpt>
      <trkpt lat="42.54139" lon="0.72907">
        <ele>1123.6</ele>
        <time>2022-05-23 00:18:29</time>
      </trkpt>
      <trkpt lat="42.54127" lon="0.72899">
        <ele>1122.8</ele>
        <time>2022-05-23 00:18:30</time>
      </trkpt>
      <trkpt lat="42.54115" lon="0.72891">
        <ele>1122</ele>
        <time>2022-05-23 00:18:31</time>
      </trkpt>
      <trkpt lat="42.54103" lon="0.72884">
        <ele>1121.2</ele>
        <time>2022-05-23 00:18:32</time>
      </trkpt>
      <trkpt lat="42.54091" lon="0.72877">
        <ele>1120.4</ele>
        <time>2022-05-23 00:18:33</time>
      </trkpt>
      <trkpt lat="42.54079" lon="0.72869">
        <ele>1119.4</ele>
        <time>2022-05-23 00:18:34</time>
      </trkpt>
      <trkpt lat="42.54067" lon="0.72862">
        <ele>1118.6</ele>
        <time>2022-05-23 00:18:35</time>
      </trkpt>
      <trkpt lat="42.54054" lon="0.72855">
        <ele>1117.8</ele>
        <time>2022-05-23 00:18:36</time>
      </trkpt>
      <trkpt lat="42.54042" lon="0.72847">
        <ele>1117</ele>
        <time>2022-05-23 00:18:37</time>
      </trkpt>
      <trkpt lat="42.54031" lon="0.7284">
        <ele>1116.2</ele>
        <time>2022-05-23 00:18:38</time>
      </trkpt>
      <trkpt lat="42.54019" lon="0.72831">
        <ele>1115.4</ele>
        <time>2022-05-23 00:18:39</time>
      </trkpt>
      <trkpt lat="42.54008" lon="0.72823">
        <ele>1114.4</ele>
        <time>2022-05-23 00:18:40</time>
      </trkpt>
      <trkpt lat="42.53996" lon="0.72814">
        <ele>1113.6</ele>
        <time>2022-05-23 00:18:41</time>
      </trkpt>
      <trkpt lat="42.53985" lon="0.72806">
        <ele>1112.8</ele>
        <time>2022-05-23 00:18:42</time>
      </trkpt>
      <trkpt lat="42.53973" lon="0.72797">
        <ele>1111.8</ele>
        <time>2022-05-23 00:18:43</time>
      </trkpt>
      <trkpt lat="42.53962" lon="0.72788">
        <ele>1111</ele>
        <time>2022-05-23 00:18:44</time>
      </trkpt>
      <trkpt lat="42.5395" lon="0.7278">
        <ele>1110.2</ele>
        <time>2022-05-23 00:18:45</time>
      </trkpt>
      <trkpt lat="42.53938" lon="0.72773">
        <ele>1109.4</ele>
        <time>2022-05-23 00:18:46</time>
      </trkpt>
      <trkpt lat="42.53927" lon="0.72766">
        <ele>1108.6</ele>
        <time>2022-05-23 00:18:47</time>
      </trkpt>
      <trkpt lat="42.53914" lon="0.72759">
        <ele>1107.8</ele>
        <time>2022-05-23 00:18:48</time>
      </trkpt>
      <trkpt lat="42.53902" lon="0.72753">
        <ele>1107</ele>
        <time>2022-05-23 00:18:49</time>
      </trkpt>
      <trkpt lat="42.53889" lon="0.72749">
        <ele>1106.2</ele>
        <time>2022-05-23 00:18:50</time>
      </trkpt>
      <trkpt lat="42.53877" lon="0.72745">
        <ele>1105.4</ele>
        <time>2022-05-23 00:18:51</time>
      </trkpt>
      <trkpt lat="42.53863" lon="0.72743">
        <ele>1104.4</ele>
        <time>2022-05-23 00:18:52</time>
      </trkpt>
      <trkpt lat="42.5385" lon="0.7274">
        <ele>1103.6</ele>
        <time>2022-05-23 00:18:53</time>
      </trkpt>
      <trkpt lat="42.53837" lon="0.72738">
        <ele>1102.8</ele>
        <time>2022-05-23 00:18:54</time>
      </trkpt>
      <trkpt lat="42.53824" lon="0.72736">
        <ele>1102</ele>
        <time>2022-05-23 00:18:55</time>
      </trkpt>
      <trkpt lat="42.53812" lon="0.72734">
        <ele>1101.4</ele>
        <time>2022-05-23 00:18:56</time>
      </trkpt>
      <trkpt lat="42.53801" lon="0.72731">
        <ele>1100.6</ele>
        <time>2022-05-23 00:18:57</time>
      </trkpt>
      <trkpt lat="42.53789" lon="0.72728">
        <ele>1100</ele>
        <time>2022-05-23 00:18:58</time>
      </trkpt>
      <trkpt lat="42.53777" lon="0.72725">
        <ele>1099.2</ele>
        <time>2022-05-23 00:18:59</time>
      </trkpt>
      <trkpt lat="42.53765" lon="0.72721">
        <ele>1098.4</ele>
        <time>2022-05-23 00:19:00</time>
      </trkpt>
      <trkpt lat="42.53754" lon="0.72717">
        <ele>1097.6</ele>
        <time>2022-05-23 00:19:01</time>
      </trkpt>
      <trkpt lat="42.53742" lon="0.72712">
        <ele>1097</ele>
        <time>2022-05-23 00:19:02</time>
      </trkpt>
      <trkpt lat="42.53732" lon="0.72705">
        <ele>1096.2</ele>
        <time>2022-05-23 00:19:03</time>
      </trkpt>
      <trkpt lat="42.53722" lon="0.72697">
        <ele>1095.4</ele>
        <time>2022-05-23 00:19:04</time>
      </trkpt>
      <trkpt lat="42.53715" lon="0.72686">
        <ele>1094.6</ele>
        <time>2022-05-23 00:19:05</time>
      </trkpt>
      <trkpt lat="42.53707" lon="0.72673">
        <ele>1093.8</ele>
        <time>2022-05-23 00:19:06</time>
      </trkpt>
      <trkpt lat="42.53701" lon="0.72659">
        <ele>1093</ele>
        <time>2022-05-23 00:19:07</time>
      </trkpt>
      <trkpt lat="42.53695" lon="0.72645">
        <ele>1092.2</ele>
        <time>2022-05-23 00:19:08</time>
      </trkpt>
      <trkpt lat="42.53689" lon="0.72631">
        <ele>1091.4</ele>
        <time>2022-05-23 00:19:09</time>
      </trkpt>
      <trkpt lat="42.53683" lon="0.72617">
        <ele>1090.6</ele>
        <time>2022-05-23 00:19:10</time>
      </trkpt>
      <trkpt lat="42.53675" lon="0.72606">
        <ele>1089.8</ele>
        <time>2022-05-23 00:19:11</time>
      </trkpt>
      <trkpt lat="42.53667" lon="0.72595">
        <ele>1089</ele>
        <time>2022-05-23 00:19:12</time>
      </trkpt>
      <trkpt lat="42.53658" lon="0.72584">
        <ele>1088.2</ele>
        <time>2022-05-23 00:19:13</time>
      </trkpt>
      <trkpt lat="42.53648" lon="0.72577">
        <ele>1087.4</ele>
        <time>2022-05-23 00:19:14</time>
      </trkpt>
      <trkpt lat="42.53637" lon="0.72571">
        <ele>1086.6</ele>
        <time>2022-05-23 00:19:15</time>
      </trkpt>
      <trkpt lat="42.53625" lon="0.72566">
        <ele>1085.8</ele>
        <time>2022-05-23 00:19:16</time>
      </trkpt>
      <trkpt lat="42.53611" lon="0.72563">
        <ele>1084.8</ele>
        <time>2022-05-23 00:19:17</time>
      </trkpt>
      <trkpt lat="42.53596" lon="0.72561">
        <ele>1084</ele>
        <time>2022-05-23 00:19:18</time>
      </trkpt>
      <trkpt lat="42.53583" lon="0.72561">
        <ele>1083</ele>
        <time>2022-05-23 00:19:19</time>
      </trkpt>
      <trkpt lat="42.53569" lon="0.72561">
        <ele>1082.2</ele>
        <time>2022-05-23 00:19:20</time>
      </trkpt>
      <trkpt lat="42.53557" lon="0.72561">
        <ele>1081.2</ele>
        <time>2022-05-23 00:19:21</time>
      </trkpt>
      <trkpt lat="42.53545" lon="0.72562">
        <ele>1080.4</ele>
        <time>2022-05-23 00:19:22</time>
      </trkpt>
      <trkpt lat="42.53533" lon="0.72562">
        <ele>1079.4</ele>
        <time>2022-05-23 00:19:23</time>
      </trkpt>
      <trkpt lat="42.53522" lon="0.72561">
        <ele>1078.6</ele>
        <time>2022-05-23 00:19:24</time>
      </trkpt>
      <trkpt lat="42.5351" lon="0.72559">
        <ele>1077.6</ele>
        <time>2022-05-23 00:19:25</time>
      </trkpt>
      <trkpt lat="42.53499" lon="0.72555">
        <ele>1076.4</ele>
        <time>2022-05-23 00:19:26</time>
      </trkpt>
      <trkpt lat="42.53487" lon="0.72548">
        <ele>1075.4</ele>
        <time>2022-05-23 00:19:27</time>
      </trkpt>
      <trkpt lat="42.53476" lon="0.72539">
        <ele>1074.2</ele>
        <time>2022-05-23 00:19:28</time>
      </trkpt>
      <trkpt lat="42.53467" lon="0.72529">
        <ele>1073.2</ele>
        <time>2022-05-23 00:19:29</time>
      </trkpt>
      <trkpt lat="42.53457" lon="0.72516">
        <ele>1072.2</ele>
        <time>2022-05-23 00:19:30</time>
      </trkpt>
      <trkpt lat="42.5345" lon="0.72503">
        <ele>1071.4</ele>
        <time>2022-05-23 00:19:31</time>
      </trkpt>
      <trkpt lat="42.53443" lon="0.72488">
        <ele>1070.4</ele>
        <time>2022-05-23 00:19:32</time>
      </trkpt>
      <trkpt lat="42.53436" lon="0.72472">
        <ele>1069.4</ele>
        <time>2022-05-23 00:19:33</time>
      </trkpt>
      <trkpt lat="42.53429" lon="0.72458">
        <ele>1068.6</ele>
        <time>2022-05-23 00:19:34</time>
      </trkpt>
      <trkpt lat="42.53423" lon="0.72444">
        <ele>1067.6</ele>
        <time>2022-05-23 00:19:35</time>
      </trkpt>
      <trkpt lat="42.53414" lon="0.72429">
        <ele>1066.6</ele>
        <time>2022-05-23 00:19:36</time>
      </trkpt>
      <trkpt lat="42.53407" lon="0.72415">
        <ele>1065.8</ele>
        <time>2022-05-23 00:19:37</time>
      </trkpt>
      <trkpt lat="42.53399" lon="0.724">
        <ele>1064.8</ele>
        <time>2022-05-23 00:19:38</time>
      </trkpt>
      <trkpt lat="42.53392" lon="0.72385">
        <ele>1063.8</ele>
        <time>2022-05-23 00:19:39</time>
      </trkpt>
      <trkpt lat="42.53385" lon="0.7237">
        <ele>1063</ele>
        <time>2022-05-23 00:19:40</time>
      </trkpt>
      <trkpt lat="42.53378" lon="0.72358">
        <ele>1062.2</ele>
        <time>2022-05-23 00:19:41</time>
      </trkpt>
      <trkpt lat="42.53368" lon="0.72347">
        <ele>1061.4</ele>
        <time>2022-05-23 00:19:42</time>
      </trkpt>
      <trkpt lat="42.53359" lon="0.72337">
        <ele>1060.8</ele>
        <time>2022-05-23 00:19:43</time>
      </trkpt>
      <trkpt lat="42.53348" lon="0.72327">
        <ele>1060.4</ele>
        <time>2022-05-23 00:19:44</time>
      </trkpt>
      <trkpt lat="42.53336" lon="0.7232">
        <ele>1059.8</ele>
        <time>2022-05-23 00:19:45</time>
      </trkpt>
      <trkpt lat="42.53325" lon="0.72314">
        <ele>1059.4</ele>
        <time>2022-05-23 00:19:46</time>
      </trkpt>
      <trkpt lat="42.53314" lon="0.72308">
        <ele>1059</ele>
        <time>2022-05-23 00:19:47</time>
      </trkpt>
      <trkpt lat="42.53303" lon="0.72303">
        <ele>1058.6</ele>
        <time>2022-05-23 00:19:48</time>
      </trkpt>
      <trkpt lat="42.53293" lon="0.72299">
        <ele>1058.4</ele>
        <time>2022-05-23 00:19:49</time>
      </trkpt>
      <trkpt lat="42.53283" lon="0.72295">
        <ele>1058.2</ele>
        <time>2022-05-23 00:19:50</time>
      </trkpt>
      <trkpt lat="42.53272" lon="0.72291">
        <ele>1058</ele>
        <time>2022-05-23 00:19:51</time>
      </trkpt>
      <trkpt lat="42.53262" lon="0.72287">
        <ele>1057.8</ele>
        <time>2022-05-23 00:19:52</time>
      </trkpt>
      <trkpt lat="42.53252" lon="0.72283">
        <ele>1057.6</ele>
        <time>2022-05-23 00:19:53</time>
      </trkpt>
      <trkpt lat="42.53242" lon="0.72279">
        <ele>1057.4</ele>
        <time>2022-05-23 00:19:54</time>
      </trkpt>
      <trkpt lat="42.53233" lon="0.72275">
        <ele>1057.2</ele>
        <time>2022-05-23 00:19:55</time>
      </trkpt>
      <trkpt lat="42.53224" lon="0.72271">
        <ele>1057.2</ele>
        <time>2022-05-23 00:19:56</time>
      </trkpt>
      <trkpt lat="42.53215" lon="0.72267">
        <ele>1057</ele>
        <time>2022-05-23 00:19:57</time>
      </trkpt>
      <trkpt lat="42.53206" lon="0.72264">
        <ele>1056.8</ele>
        <time>2022-05-23 00:19:58</time>
      </trkpt>
      <trkpt lat="42.53197" lon="0.7226">
        <ele>1056.6</ele>
        <time>2022-05-23 00:19:59</time>
      </trkpt>
      <trkpt lat="42.53188" lon="0.72257">
        <ele>1056.4</ele>
        <time>2022-05-23 00:20:00</time>
      </trkpt>
      <trkpt lat="42.53179" lon="0.72253">
        <ele>1056.4</ele>
        <time>2022-05-23 00:20:01</time>
      </trkpt>
      <trkpt lat="42.5317" lon="0.72249">
        <ele>1056.2</ele>
        <time>2022-05-23 00:20:02</time>
      </trkpt>
      <trkpt lat="42.53162" lon="0.72245">
        <ele>1056.2</ele>
        <time>2022-05-23 00:20:03</time>
      </trkpt>
      <trkpt lat="42.53154" lon="0.72242">
        <ele>1056.2</ele>
        <time>2022-05-23 00:20:04</time>
      </trkpt>
      <trkpt lat="42.53146" lon="0.72238">
        <ele>1056</ele>
        <time>2022-05-23 00:20:05</time>
      </trkpt>
      <trkpt lat="42.53138" lon="0.72235">
        <ele>1056</ele>
        <time>2022-05-23 00:20:06</time>
      </trkpt>
      <trkpt lat="42.5313" lon="0.72232">
        <ele>1055.8</ele>
        <time>2022-05-23 00:20:07</time>
      </trkpt>
      <trkpt lat="42.53122" lon="0.72229">
        <ele>1055.8</ele>
        <time>2022-05-23 00:20:08</time>
      </trkpt>
      <trkpt lat="42.53115" lon="0.72225">
        <ele>1055.6</ele>
        <time>2022-05-23 00:20:09</time>
      </trkpt>
      <trkpt lat="42.53107" lon="0.72222">
        <ele>1055.4</ele>
        <time>2022-05-23 00:20:10</time>
      </trkpt>
      <trkpt lat="42.53099" lon="0.72219">
        <ele>1055.4</ele>
        <time>2022-05-23 00:20:11</time>
      </trkpt>
      <trkpt lat="42.53092" lon="0.72216">
        <ele>1055.4</ele>
        <time>2022-05-23 00:20:12</time>
      </trkpt>
      <trkpt lat="42.53084" lon="0.72213">
        <ele>1055.2</ele>
        <time>2022-05-23 00:20:13</time>
      </trkpt>
      <trkpt lat="42.53077" lon="0.7221">
        <ele>1055.2</ele>
        <time>2022-05-23 00:20:14</time>
      </trkpt>
      <trkpt lat="42.53069" lon="0.72207">
        <ele>1055.2</ele>
        <time>2022-05-23 00:20:15</time>
      </trkpt>
      <trkpt lat="42.53062" lon="0.72205">
        <ele>1055</ele>
        <time>2022-05-23 00:20:16</time>
      </trkpt>
      <trkpt lat="42.53055" lon="0.72202">
        <ele>1055</ele>
        <time>2022-05-23 00:20:17</time>
      </trkpt>
      <trkpt lat="42.53048" lon="0.72199">
        <ele>1055</ele>
        <time>2022-05-23 00:20:18</time>
      </trkpt>
      <trkpt lat="42.53041" lon="0.72196">
        <ele>1055</ele>
        <time>2022-05-23 00:20:19</time>
      </trkpt>
      <trkpt lat="42.53034" lon="0.72192">
        <ele>1054.8</ele>
        <time>2022-05-23 00:20:20</time>
      </trkpt>
      <trkpt lat="42.53028" lon="0.72188">
        <ele>1054.8</ele>
        <time>2022-05-23 00:20:21</time>
      </trkpt>
      <trkpt lat="42.53021" lon="0.72184">
        <ele>1054.6</ele>
        <time>2022-05-23 00:20:22</time>
      </trkpt>
      <trkpt lat="42.53013" lon="0.72181">
        <ele>1054.4</ele>
        <time>2022-05-23 00:20:23</time>
      </trkpt>
      <trkpt lat="42.53006" lon="0.72177">
        <ele>1054.4</ele>
        <time>2022-05-23 00:20:24</time>
      </trkpt>
      <trkpt lat="42.52999" lon="0.72174">
        <ele>1054.2</ele>
        <time>2022-05-23 00:20:25</time>
      </trkpt>
      <trkpt lat="42.52991" lon="0.72171">
        <ele>1054.2</ele>
        <time>2022-05-23 00:20:26</time>
      </trkpt>
      <trkpt lat="42.52984" lon="0.72169">
        <ele>1054.2</ele>
        <time>2022-05-23 00:20:27</time>
      </trkpt>
      <trkpt lat="42.52976" lon="0.72166">
        <ele>1054</ele>
        <time>2022-05-23 00:20:28</time>
      </trkpt>
      <trkpt lat="42.5297" lon="0.72163">
        <ele>1054</ele>
        <time>2022-05-23 00:20:29</time>
      </trkpt>
      <trkpt lat="42.52963" lon="0.7216">
        <ele>1053.8</ele>
        <time>2022-05-23 00:20:30</time>
      </trkpt>
      <trkpt lat="42.52956" lon="0.72157">
        <ele>1053.8</ele>
        <time>2022-05-23 00:20:31</time>
      </trkpt>
      <trkpt lat="42.52949" lon="0.72154">
        <ele>1053.6</ele>
        <time>2022-05-23 00:20:32</time>
      </trkpt>
      <trkpt lat="42.52943" lon="0.72151">
        <ele>1053.6</ele>
        <time>2022-05-23 00:20:33</time>
      </trkpt>
      <trkpt lat="42.52935" lon="0.72147">
        <ele>1053.4</ele>
        <time>2022-05-23 00:20:34</time>
      </trkpt>
      <trkpt lat="42.52929" lon="0.72145">
        <ele>1053.4</ele>
        <time>2022-05-23 00:20:35</time>
      </trkpt>
      <trkpt lat="42.52922" lon="0.72142">
        <ele>1053.2</ele>
        <time>2022-05-23 00:20:36</time>
      </trkpt>
      <trkpt lat="42.52916" lon="0.72139">
        <ele>1053.2</ele>
        <time>2022-05-23 00:20:37</time>
      </trkpt>
      <trkpt lat="42.5291" lon="0.72136">
        <ele>1053.2</ele>
        <time>2022-05-23 00:20:38</time>
      </trkpt>
      <trkpt lat="42.52904" lon="0.72134">
        <ele>1053</ele>
        <time>2022-05-23 00:20:39</time>
      </trkpt>
      <trkpt lat="42.52897" lon="0.72131">
        <ele>1053</ele>
        <time>2022-05-23 00:20:40</time>
      </trkpt>
      <trkpt lat="42.5289" lon="0.72128">
        <ele>1052.8</ele>
        <time>2022-05-23 00:20:41</time>
      </trkpt>
      <trkpt lat="42.52883" lon="0.72125">
        <ele>1052.8</ele>
        <time>2022-05-23 00:20:42</time>
      </trkpt>
      <trkpt lat="42.52877" lon="0.72123">
        <ele>1052.8</ele>
        <time>2022-05-23 00:20:43</time>
      </trkpt>
      <trkpt lat="42.5287" lon="0.7212">
        <ele>1052.6</ele>
        <time>2022-05-23 00:20:44</time>
      </trkpt>
      <trkpt lat="42.52864" lon="0.72117">
        <ele>1052.6</ele>
        <time>2022-05-23 00:20:45</time>
      </trkpt>
      <trkpt lat="42.52857" lon="0.72114">
        <ele>1052.4</ele>
        <time>2022-05-23 00:20:46</time>
      </trkpt>
      <trkpt lat="42.52851" lon="0.72111">
        <ele>1052.2</ele>
        <time>2022-05-23 00:20:47</time>
      </trkpt>
      <trkpt lat="42.52844" lon="0.72107">
        <ele>1052</ele>
        <time>2022-05-23 00:20:48</time>
      </trkpt>
      <trkpt lat="42.52837" lon="0.72104">
        <ele>1051.8</ele>
        <time>2022-05-23 00:20:49</time>
      </trkpt>
      <trkpt lat="42.5283" lon="0.72101">
        <ele>1051.6</ele>
        <time>2022-05-23 00:20:50</time>
      </trkpt>
      <trkpt lat="42.52823" lon="0.72098">
        <ele>1051.4</ele>
        <time>2022-05-23 00:20:51</time>
      </trkpt>
      <trkpt lat="42.52816" lon="0.72095">
        <ele>1051.2</ele>
        <time>2022-05-23 00:20:52</time>
      </trkpt>
      <trkpt lat="42.52808" lon="0.72093">
        <ele>1051.2</ele>
        <time>2022-05-23 00:20:53</time>
      </trkpt>
      <trkpt lat="42.52801" lon="0.7209">
        <ele>1051</ele>
        <time>2022-05-23 00:20:54</time>
      </trkpt>
      <trkpt lat="42.52794" lon="0.72087">
        <ele>1050.8</ele>
        <time>2022-05-23 00:20:55</time>
      </trkpt>
      <trkpt lat="42.52787" lon="0.72084">
        <ele>1050.8</ele>
        <time>2022-05-23 00:20:56</time>
      </trkpt>
      <trkpt lat="42.52779" lon="0.72081">
        <ele>1050.6</ele>
        <time>2022-05-23 00:20:57</time>
      </trkpt>
      <trkpt lat="42.52772" lon="0.72078">
        <ele>1050.6</ele>
        <time>2022-05-23 00:20:58</time>
      </trkpt>
      <trkpt lat="42.52765" lon="0.72075">
        <ele>1050.6</ele>
        <time>2022-05-23 00:20:59</time>
      </trkpt>
      <trkpt lat="42.52758" lon="0.72072">
        <ele>1050.6</ele>
        <time>2022-05-23 00:21:00</time>
      </trkpt>
      <trkpt lat="42.5275" lon="0.72069">
        <ele>1050.4</ele>
        <time>2022-05-23 00:21:01</time>
      </trkpt>
      <trkpt lat="42.52743" lon="0.72066">
        <ele>1050.4</ele>
        <time>2022-05-23 00:21:02</time>
      </trkpt>
      <trkpt lat="42.52737" lon="0.72063">
        <ele>1050.4</ele>
        <time>2022-05-23 00:21:03</time>
      </trkpt>
      <trkpt lat="42.52729" lon="0.7206">
        <ele>1050.2</ele>
        <time>2022-05-23 00:21:04</time>
      </trkpt>
      <trkpt lat="42.52722" lon="0.72058">
        <ele>1050.2</ele>
        <time>2022-05-23 00:21:05</time>
      </trkpt>
      <trkpt lat="42.52715" lon="0.72055">
        <ele>1050</ele>
        <time>2022-05-23 00:21:06</time>
      </trkpt>
      <trkpt lat="42.52708" lon="0.72051">
        <ele>1050</ele>
        <time>2022-05-23 00:21:07</time>
      </trkpt>
      <trkpt lat="42.52701" lon="0.72048">
        <ele>1049.8</ele>
        <time>2022-05-23 00:21:08</time>
      </trkpt>
      <trkpt lat="42.52694" lon="0.72045">
        <ele>1049.8</ele>
        <time>2022-05-23 00:21:09</time>
      </trkpt>
      <trkpt lat="42.52687" lon="0.72042">
        <ele>1049.6</ele>
        <time>2022-05-23 00:21:10</time>
      </trkpt>
      <trkpt lat="42.5268" lon="0.72039">
        <ele>1049.6</ele>
        <time>2022-05-23 00:21:11</time>
      </trkpt>
      <trkpt lat="42.52673" lon="0.72037">
        <ele>1049.4</ele>
        <time>2022-05-23 00:21:12</time>
      </trkpt>
      <trkpt lat="42.52666" lon="0.72034">
        <ele>1049.2</ele>
        <time>2022-05-23 00:21:13</time>
      </trkpt>
      <trkpt lat="42.5266" lon="0.72032">
        <ele>1049.2</ele>
        <time>2022-05-23 00:21:14</time>
      </trkpt>
      <trkpt lat="42.52652" lon="0.72029">
        <ele>1049</ele>
        <time>2022-05-23 00:21:15</time>
      </trkpt>
      <trkpt lat="42.52646" lon="0.72026">
        <ele>1049</ele>
        <time>2022-05-23 00:21:16</time>
      </trkpt>
      <trkpt lat="42.52639" lon="0.72023">
        <ele>1048.8</ele>
        <time>2022-05-23 00:21:17</time>
      </trkpt>
      <trkpt lat="42.52632" lon="0.7202">
        <ele>1048.8</ele>
        <time>2022-05-23 00:21:18</time>
      </trkpt>
      <trkpt lat="42.52626" lon="0.72017">
        <ele>1048.6</ele>
        <time>2022-05-23 00:21:19</time>
      </trkpt>
      <trkpt lat="42.52619" lon="0.72015">
        <ele>1048.6</ele>
        <time>2022-05-23 00:21:20</time>
      </trkpt>
      <trkpt lat="42.52613" lon="0.72013">
        <ele>1048.4</ele>
        <time>2022-05-23 00:21:21</time>
      </trkpt>
      <trkpt lat="42.52607" lon="0.7201">
        <ele>1048.4</ele>
        <time>2022-05-23 00:21:22</time>
      </trkpt>
      <trkpt lat="42.526" lon="0.72008">
        <ele>1048.4</ele>
        <time>2022-05-23 00:21:23</time>
      </trkpt>
      <trkpt lat="42.52594" lon="0.72005">
        <ele>1048.2</ele>
        <time>2022-05-23 00:21:24</time>
      </trkpt>
      <trkpt lat="42.52588" lon="0.72003">
        <ele>1048.2</ele>
        <time>2022-05-23 00:21:25</time>
      </trkpt>
      <trkpt lat="42.52581" lon="0.72">
        <ele>1048.2</ele>
        <time>2022-05-23 00:21:26</time>
      </trkpt>
      <trkpt lat="42.52575" lon="0.71998">
        <ele>1048.2</ele>
        <time>2022-05-23 00:21:27</time>
      </trkpt>
      <trkpt lat="42.52569" lon="0.71996">
        <ele>1048</ele>
        <time>2022-05-23 00:21:28</time>
      </trkpt>
      <trkpt lat="42.52563" lon="0.71995">
        <ele>1048</ele>
        <time>2022-05-23 00:21:29</time>
      </trkpt>
      <trkpt lat="42.52556" lon="0.71994">
        <ele>1047.8</ele>
        <time>2022-05-23 00:21:30</time>
      </trkpt>
      <trkpt lat="42.5255" lon="0.71994">
        <ele>1047.8</ele>
        <time>2022-05-23 00:21:31</time>
      </trkpt>
      <trkpt lat="42.52543" lon="0.71994">
        <ele>1047.8</ele>
        <time>2022-05-23 00:21:32</time>
      </trkpt>
      <trkpt lat="42.52537" lon="0.71995">
        <ele>1047.8</ele>
        <time>2022-05-23 00:21:33</time>
      </trkpt>
      <trkpt lat="42.52531" lon="0.71996">
        <ele>1047.6</ele>
        <time>2022-05-23 00:21:34</time>
      </trkpt>
      <trkpt lat="42.52524" lon="0.71999">
        <ele>1047.6</ele>
        <time>2022-05-23 00:21:35</time>
      </trkpt>
      <trkpt lat="42.52518" lon="0.72001">
        <ele>1047.6</ele>
        <time>2022-05-23 00:21:36</time>
      </trkpt>
      <trkpt lat="42.52512" lon="0.72004">
        <ele>1047.4</ele>
        <time>2022-05-23 00:21:37</time>
      </trkpt>
      <trkpt lat="42.52506" lon="0.72007">
        <ele>1047.4</ele>
        <time>2022-05-23 00:21:38</time>
      </trkpt>
      <trkpt lat="42.52499" lon="0.7201">
        <ele>1047.2</ele>
        <time>2022-05-23 00:21:39</time>
      </trkpt>
      <trkpt lat="42.52493" lon="0.72014">
        <ele>1047.2</ele>
        <time>2022-05-23 00:21:40</time>
      </trkpt>
      <trkpt lat="42.52487" lon="0.72017">
        <ele>1047</ele>
        <time>2022-05-23 00:21:41</time>
      </trkpt>
      <trkpt lat="42.5248" lon="0.7202">
        <ele>1046.8</ele>
        <time>2022-05-23 00:21:42</time>
      </trkpt>
      <trkpt lat="42.52474" lon="0.72023">
        <ele>1046.6</ele>
        <time>2022-05-23 00:21:43</time>
      </trkpt>
      <trkpt lat="42.52468" lon="0.72026">
        <ele>1046.6</ele>
        <time>2022-05-23 00:21:44</time>
      </trkpt>
      <trkpt lat="42.52462" lon="0.7203">
        <ele>1046.4</ele>
        <time>2022-05-23 00:21:45</time>
      </trkpt>
      <trkpt lat="42.52456" lon="0.72033">
        <ele>1046.2</ele>
        <time>2022-05-23 00:21:46</time>
      </trkpt>
      <trkpt lat="42.5245" lon="0.72037">
        <ele>1046.2</ele>
        <time>2022-05-23 00:21:47</time>
      </trkpt>
      <trkpt lat="42.52444" lon="0.7204">
        <ele>1046</ele>
        <time>2022-05-23 00:21:48</time>
      </trkpt>
      <trkpt lat="42.52438" lon="0.72043">
        <ele>1046</ele>
        <time>2022-05-23 00:21:49</time>
      </trkpt>
      <trkpt lat="42.52432" lon="0.72046">
        <ele>1045.8</ele>
        <time>2022-05-23 00:21:50</time>
      </trkpt>
      <trkpt lat="42.52426" lon="0.72049">
        <ele>1045.8</ele>
        <time>2022-05-23 00:21:51</time>
      </trkpt>
      <trkpt lat="42.52421" lon="0.72053">
        <ele>1045.6</ele>
        <time>2022-05-23 00:21:52</time>
      </trkpt>
      <trkpt lat="42.52414" lon="0.72056">
        <ele>1045.6</ele>
        <time>2022-05-23 00:21:53</time>
      </trkpt>
      <trkpt lat="42.52408" lon="0.72059">
        <ele>1045.6</ele>
        <time>2022-05-23 00:21:54</time>
      </trkpt>
      <trkpt lat="42.52402" lon="0.72063">
        <ele>1045.4</ele>
        <time>2022-05-23 00:21:55</time>
      </trkpt>
      <trkpt lat="42.52396" lon="0.72066">
        <ele>1045.4</ele>
        <time>2022-05-23 00:21:56</time>
      </trkpt>
      <trkpt lat="42.5239" lon="0.72069">
        <ele>1045.4</ele>
        <time>2022-05-23 00:21:57</time>
      </trkpt>
      <trkpt lat="42.52385" lon="0.72072">
        <ele>1045.4</ele>
        <time>2022-05-23 00:21:58</time>
      </trkpt>
      <trkpt lat="42.5238" lon="0.72075">
        <ele>1045.6</ele>
        <time>2022-05-23 00:21:59</time>
      </trkpt>
      <trkpt lat="42.52374" lon="0.72078">
        <ele>1045.6</ele>
        <time>2022-05-23 00:22:00</time>
      </trkpt>
      <trkpt lat="42.52369" lon="0.72081">
        <ele>1045.6</ele>
        <time>2022-05-23 00:22:01</time>
      </trkpt>
      <trkpt lat="42.52364" lon="0.72084">
        <ele>1045.8</ele>
        <time>2022-05-23 00:22:02</time>
      </trkpt>
      <trkpt lat="42.52359" lon="0.72087">
        <ele>1045.8</ele>
        <time>2022-05-23 00:22:03</time>
      </trkpt>
      <trkpt lat="42.52354" lon="0.7209">
        <ele>1046</ele>
        <time>2022-05-23 00:22:04</time>
      </trkpt>
      <trkpt lat="42.52349" lon="0.72092">
        <ele>1046</ele>
        <time>2022-05-23 00:22:05</time>
      </trkpt>
      <trkpt lat="42.52344" lon="0.72095">
        <ele>1046.2</ele>
        <time>2022-05-23 00:22:06</time>
      </trkpt>
      <trkpt lat="42.5234" lon="0.72097">
        <ele>1046.2</ele>
        <time>2022-05-23 00:22:07</time>
      </trkpt>
      <trkpt lat="42.52336" lon="0.72099">
        <ele>1046.4</ele>
        <time>2022-05-23 00:22:08</time>
      </trkpt>
      <trkpt lat="42.52332" lon="0.72101">
        <ele>1046.6</ele>
        <time>2022-05-23 00:22:09</time>
      </trkpt>
      <trkpt lat="42.52328" lon="0.72104">
        <ele>1046.6</ele>
        <time>2022-05-23 00:22:10</time>
      </trkpt>
      <trkpt lat="42.52324" lon="0.72106">
        <ele>1046.8</ele>
        <time>2022-05-23 00:22:11</time>
      </trkpt>
      <trkpt lat="42.52321" lon="0.72108">
        <ele>1046.8</ele>
        <time>2022-05-23 00:22:12</time>
      </trkpt>
      <trkpt lat="42.52317" lon="0.7211">
        <ele>1047</ele>
        <time>2022-05-23 00:22:13</time>
      </trkpt>
      <trkpt lat="42.52314" lon="0.72111">
        <ele>1047.2</ele>
        <time>2022-05-23 00:22:14</time>
      </trkpt>
      <trkpt lat="42.5231" lon="0.72113">
        <ele>1047.2</ele>
        <time>2022-05-23 00:22:15</time>
      </trkpt>
      <trkpt lat="42.52307" lon="0.72115">
        <ele>1047.4</ele>
        <time>2022-05-23 00:22:16</time>
      </trkpt>
      <trkpt lat="42.52304" lon="0.72117">
        <ele>1047.4</ele>
        <time>2022-05-23 00:22:17</time>
      </trkpt>
      <trkpt lat="42.523" lon="0.72118">
        <ele>1047.6</ele>
        <time>2022-05-23 00:22:18</time>
      </trkpt>
      <trkpt lat="42.52297" lon="0.7212">
        <ele>1047.6</ele>
        <time>2022-05-23 00:22:19</time>
      </trkpt>
      <trkpt lat="42.52294" lon="0.72122">
        <ele>1047.8</ele>
        <time>2022-05-23 00:22:20</time>
      </trkpt>
      <trkpt lat="42.52292" lon="0.72124">
        <ele>1047.8</ele>
        <time>2022-05-23 00:22:21</time>
      </trkpt>
      <trkpt lat="42.52289" lon="0.72125">
        <ele>1048</ele>
        <time>2022-05-23 00:22:22</time>
      </trkpt>
      <trkpt lat="42.52286" lon="0.72127">
        <ele>1048</ele>
        <time>2022-05-23 00:22:23</time>
      </trkpt>
      <trkpt lat="42.52283" lon="0.72128">
        <ele>1048</ele>
        <time>2022-05-23 00:22:24</time>
      </trkpt>
      <trkpt lat="42.5228" lon="0.72129">
        <ele>1048.2</ele>
        <time>2022-05-23 00:22:25</time>
      </trkpt>
      <trkpt lat="42.52277" lon="0.7213">
        <ele>1048.2</ele>
        <time>2022-05-23 00:22:26</time>
      </trkpt>
      <trkpt lat="42.52274" lon="0.72132">
        <ele>1048.4</ele>
        <time>2022-05-23 00:22:27</time>
      </trkpt>
      <trkpt lat="42.52271" lon="0.72133">
        <ele>1048.4</ele>
        <time>2022-05-23 00:22:28</time>
      </trkpt>
      <trkpt lat="42.52269" lon="0.72135">
        <ele>1048.6</ele>
        <time>2022-05-23 00:22:29</time>
      </trkpt>
      <trkpt lat="42.52267" lon="0.72136">
        <ele>1048.6</ele>
        <time>2022-05-23 00:22:30</time>
      </trkpt>
      <trkpt lat="42.52264" lon="0.72138">
        <ele>1048.6</ele>
        <time>2022-05-23 00:22:31</time>
      </trkpt>
      <trkpt lat="42.52262" lon="0.72139">
        <ele>1048.8</ele>
        <time>2022-05-23 00:22:32</time>
      </trkpt>
      <trkpt lat="42.52259" lon="0.72141">
        <ele>1048.8</ele>
        <time>2022-05-23 00:22:33</time>
      </trkpt>
      <trkpt lat="42.52256" lon="0.72143">
        <ele>1048.8</ele>
        <time>2022-05-23 00:22:34</time>
      </trkpt>
      <trkpt lat="42.52253" lon="0.72144">
        <ele>1049</ele>
        <time>2022-05-23 00:22:35</time>
      </trkpt>
      <trkpt lat="42.52249" lon="0.72146">
        <ele>1049</ele>
        <time>2022-05-23 00:22:36</time>
      </trkpt>
      <trkpt lat="42.52246" lon="0.72147">
        <ele>1049</ele>
        <time>2022-05-23 00:22:37</time>
      </trkpt>
      <trkpt lat="42.52243" lon="0.72149">
        <ele>1049</ele>
        <time>2022-05-23 00:22:38</time>
      </trkpt>
      <trkpt lat="42.5224" lon="0.72151">
        <ele>1049.2</ele>
        <time>2022-05-23 00:22:39</time>
      </trkpt>
      <trkpt lat="42.52236" lon="0.72153">
        <ele>1049.2</ele>
        <time>2022-05-23 00:22:40</time>
      </trkpt>
      <trkpt lat="42.52233" lon="0.72155">
        <ele>1049.2</ele>
        <time>2022-05-23 00:22:41</time>
      </trkpt>
      <trkpt lat="42.52229" lon="0.72157">
        <ele>1049.2</ele>
        <time>2022-05-23 00:22:42</time>
      </trkpt>
      <trkpt lat="42.52225" lon="0.7216">
        <ele>1049.4</ele>
        <time>2022-05-23 00:22:43</time>
      </trkpt>
      <trkpt lat="42.52221" lon="0.72162">
        <ele>1049.4</ele>
        <time>2022-05-23 00:22:44</time>
      </trkpt>
      <trkpt lat="42.52217" lon="0.72164">
        <ele>1049.4</ele>
        <time>2022-05-23 00:22:45</time>
      </trkpt>
      <trkpt lat="42.52212" lon="0.72167">
        <ele>1049.4</ele>
        <time>2022-05-23 00:22:46</time>
      </trkpt>
      <trkpt lat="42.52208" lon="0.7217">
        <ele>1049.2</ele>
        <time>2022-05-23 00:22:47</time>
      </trkpt>
      <trkpt lat="42.52204" lon="0.72172">
        <ele>1049.4</ele>
        <time>2022-05-23 00:22:48</time>
      </trkpt>
      <trkpt lat="42.52199" lon="0.72175">
        <ele>1049.4</ele>
        <time>2022-05-23 00:22:49</time>
      </trkpt>
      <trkpt lat="42.52195" lon="0.72177">
        <ele>1049.4</ele>
        <time>2022-05-23 00:22:50</time>
      </trkpt>
      <trkpt lat="42.5219" lon="0.72179">
        <ele>1049.4</ele>
        <time>2022-05-23 00:22:51</time>
      </trkpt>
      <trkpt lat="42.52186" lon="0.72181">
        <ele>1049.4</ele>
        <time>2022-05-23 00:22:52</time>
      </trkpt>
      <trkpt lat="42.52181" lon="0.72183">
        <ele>1049.2</ele>
        <time>2022-05-23 00:22:53</time>
      </trkpt>
      <trkpt lat="42.52177" lon="0.72186">
        <ele>1049.2</ele>
        <time>2022-05-23 00:22:54</time>
      </trkpt>
      <trkpt lat="42.52172" lon="0.72188">
        <ele>1049.2</ele>
        <time>2022-05-23 00:22:55</time>
      </trkpt>
      <trkpt lat="42.52167" lon="0.72191">
        <ele>1049.2</ele>
        <time>2022-05-23 00:22:56</time>
      </trkpt>
      <trkpt lat="42.52162" lon="0.72194">
        <ele>1049.2</ele>
        <time>2022-05-23 00:22:57</time>
      </trkpt>
      <trkpt lat="42.52157" lon="0.72197">
        <ele>1049.2</ele>
        <time>2022-05-23 00:22:58</time>
      </trkpt>
      <trkpt lat="42.52153" lon="0.722">
        <ele>1049</ele>
        <time>2022-05-23 00:22:59</time>
      </trkpt>
      <trkpt lat="42.52148" lon="0.72203">
        <ele>1049</ele>
        <time>2022-05-23 00:23:00</time>
      </trkpt>
      <trkpt lat="42.52143" lon="0.72206">
        <ele>1049</ele>
        <time>2022-05-23 00:23:01</time>
      </trkpt>
      <trkpt lat="42.52138" lon="0.72209">
        <ele>1049</ele>
        <time>2022-05-23 00:23:02</time>
      </trkpt>
      <trkpt lat="42.52134" lon="0.72212">
        <ele>1049</ele>
        <time>2022-05-23 00:23:03</time>
      </trkpt>
      <trkpt lat="42.52129" lon="0.72214">
        <ele>1049</ele>
        <time>2022-05-23 00:23:04</time>
      </trkpt>
      <trkpt lat="42.52124" lon="0.72216">
        <ele>1049</ele>
        <time>2022-05-23 00:23:05</time>
      </trkpt>
      <trkpt lat="42.52119" lon="0.72219">
        <ele>1049</ele>
        <time>2022-05-23 00:23:06</time>
      </trkpt>
      <trkpt lat="42.52114" lon="0.72221">
        <ele>1049</ele>
        <time>2022-05-23 00:23:07</time>
      </trkpt>
      <trkpt lat="42.52109" lon="0.72223">
        <ele>1048.8</ele>
        <time>2022-05-23 00:23:08</time>
      </trkpt>
      <trkpt lat="42.52104" lon="0.72226">
        <ele>1048.8</ele>
        <time>2022-05-23 00:23:09</time>
      </trkpt>
      <trkpt lat="42.521" lon="0.72229">
        <ele>1048.8</ele>
        <time>2022-05-23 00:23:10</time>
      </trkpt>
      <trkpt lat="42.52095" lon="0.72231">
        <ele>1048.8</ele>
        <time>2022-05-23 00:23:11</time>
      </trkpt>
      <trkpt lat="42.5209" lon="0.72233">
        <ele>1048.8</ele>
        <time>2022-05-23 00:23:12</time>
      </trkpt>
      <trkpt lat="42.52086" lon="0.72235">
        <ele>1048.8</ele>
        <time>2022-05-23 00:23:13</time>
      </trkpt>
      <trkpt lat="42.52082" lon="0.72237">
        <ele>1048.6</ele>
        <time>2022-05-23 00:23:14</time>
      </trkpt>
      <trkpt lat="42.52077" lon="0.7224">
        <ele>1048.6</ele>
        <time>2022-05-23 00:23:15</time>
      </trkpt>
      <trkpt lat="42.52073" lon="0.72243">
        <ele>1048.6</ele>
        <time>2022-05-23 00:23:16</time>
      </trkpt>
      <trkpt lat="42.52068" lon="0.72245">
        <ele>1048.6</ele>
        <time>2022-05-23 00:23:17</time>
      </trkpt>
      <trkpt lat="42.52064" lon="0.72247">
        <ele>1048.6</ele>
        <time>2022-05-23 00:23:18</time>
      </trkpt>
      <trkpt lat="42.52058" lon="0.72249">
        <ele>1048.4</ele>
        <time>2022-05-23 00:23:19</time>
      </trkpt>
      <trkpt lat="42.52053" lon="0.72251">
        <ele>1048.2</ele>
        <time>2022-05-23 00:23:20</time>
      </trkpt>
      <trkpt lat="42.52048" lon="0.72253">
        <ele>1048.2</ele>
        <time>2022-05-23 00:23:21</time>
      </trkpt>
      <trkpt lat="42.52042" lon="0.72256">
        <ele>1048</ele>
        <time>2022-05-23 00:23:22</time>
      </trkpt>
      <trkpt lat="42.52037" lon="0.72258">
        <ele>1047.8</ele>
        <time>2022-05-23 00:23:23</time>
      </trkpt>
      <trkpt lat="42.52032" lon="0.72259">
        <ele>1047.8</ele>
        <time>2022-05-23 00:23:24</time>
      </trkpt>
      <trkpt lat="42.52026" lon="0.7226">
        <ele>1047.6</ele>
        <time>2022-05-23 00:23:25</time>
      </trkpt>
      <trkpt lat="42.5202" lon="0.72261">
        <ele>1047.4</ele>
        <time>2022-05-23 00:23:26</time>
      </trkpt>
      <trkpt lat="42.52014" lon="0.72262">
        <ele>1047</ele>
        <time>2022-05-23 00:23:27</time>
      </trkpt>
      <trkpt lat="42.52007" lon="0.72263">
        <ele>1046.8</ele>
        <time>2022-05-23 00:23:28</time>
      </trkpt>
      <trkpt lat="42.52" lon="0.72265">
        <ele>1046.4</ele>
        <time>2022-05-23 00:23:29</time>
      </trkpt>
      <trkpt lat="42.51992" lon="0.72267">
        <ele>1046</ele>
        <time>2022-05-23 00:23:30</time>
      </trkpt>
      <trkpt lat="42.51984" lon="0.72269">
        <ele>1045.6</ele>
        <time>2022-05-23 00:23:31</time>
      </trkpt>
      <trkpt lat="42.51976" lon="0.7227">
        <ele>1045.2</ele>
        <time>2022-05-23 00:23:32</time>
      </trkpt>
      <trkpt lat="42.51968" lon="0.72272">
        <ele>1044.8</ele>
        <time>2022-05-23 00:23:33</time>
      </trkpt>
      <trkpt lat="42.5196" lon="0.72273">
        <ele>1044.6</ele>
        <time>2022-05-23 00:23:34</time>
      </trkpt>
      <trkpt lat="42.51952" lon="0.72275">
        <ele>1044.2</ele>
        <time>2022-05-23 00:23:35</time>
      </trkpt>
      <trkpt lat="42.51944" lon="0.72276">
        <ele>1043.8</ele>
        <time>2022-05-23 00:23:36</time>
      </trkpt>
      <trkpt lat="42.51935" lon="0.72278">
        <ele>1043.4</ele>
        <time>2022-05-23 00:23:37</time>
      </trkpt>
      <trkpt lat="42.51927" lon="0.72279">
        <ele>1043</ele>
        <time>2022-05-23 00:23:38</time>
      </trkpt>
      <trkpt lat="42.51918" lon="0.72281">
        <ele>1042.6</ele>
        <time>2022-05-23 00:23:39</time>
      </trkpt>
      <trkpt lat="42.5191" lon="0.72282">
        <ele>1042.4</ele>
        <time>2022-05-23 00:23:40</time>
      </trkpt>
      <trkpt lat="42.51901" lon="0.72284">
        <ele>1042</ele>
        <time>2022-05-23 00:23:41</time>
      </trkpt>
      <trkpt lat="42.51893" lon="0.72286">
        <ele>1041.8</ele>
        <time>2022-05-23 00:23:42</time>
      </trkpt>
      <trkpt lat="42.51884" lon="0.72288">
        <ele>1041.4</ele>
        <time>2022-05-23 00:23:43</time>
      </trkpt>
      <trkpt lat="42.51876" lon="0.72289">
        <ele>1041.2</ele>
        <time>2022-05-23 00:23:44</time>
      </trkpt>
      <trkpt lat="42.51868" lon="0.7229">
        <ele>1040.8</ele>
        <time>2022-05-23 00:23:45</time>
      </trkpt>
      <trkpt lat="42.51859" lon="0.7229">
        <ele>1040.6</ele>
        <time>2022-05-23 00:23:46</time>
      </trkpt>
      <trkpt lat="42.51851" lon="0.72288">
        <ele>1040.4</ele>
        <time>2022-05-23 00:23:47</time>
      </trkpt>
      <trkpt lat="42.51843" lon="0.72285">
        <ele>1040.2</ele>
        <time>2022-05-23 00:23:48</time>
      </trkpt>
      <trkpt lat="42.51835" lon="0.72282">
        <ele>1040</ele>
        <time>2022-05-23 00:23:49</time>
      </trkpt>
      <trkpt lat="42.51827" lon="0.72278">
        <ele>1039.8</ele>
        <time>2022-05-23 00:23:50</time>
      </trkpt>
      <trkpt lat="42.5182" lon="0.72273">
        <ele>1039.6</ele>
        <time>2022-05-23 00:23:51</time>
      </trkpt>
      <trkpt lat="42.51813" lon="0.72268">
        <ele>1039.6</ele>
        <time>2022-05-23 00:23:52</time>
      </trkpt>
      <trkpt lat="42.51807" lon="0.72262">
        <ele>1039.4</ele>
        <time>2022-05-23 00:23:53</time>
      </trkpt>
      <trkpt lat="42.51801" lon="0.72256">
        <ele>1039.2</ele>
        <time>2022-05-23 00:23:54</time>
      </trkpt>
      <trkpt lat="42.51795" lon="0.7225">
        <ele>1039.2</ele>
        <time>2022-05-23 00:23:55</time>
      </trkpt>
      <trkpt lat="42.51789" lon="0.72244">
        <ele>1039</ele>
        <time>2022-05-23 00:23:56</time>
      </trkpt>
      <trkpt lat="42.51783" lon="0.72238">
        <ele>1038.8</ele>
        <time>2022-05-23 00:23:57</time>
      </trkpt>
      <trkpt lat="42.51777" lon="0.72231">
        <ele>1038.6</ele>
        <time>2022-05-23 00:23:58</time>
      </trkpt>
      <trkpt lat="42.51771" lon="0.72225">
        <ele>1038.4</ele>
        <time>2022-05-23 00:23:59</time>
      </trkpt>
      <trkpt lat="42.51765" lon="0.72218">
        <ele>1038.2</ele>
        <time>2022-05-23 00:24:00</time>
      </trkpt>
      <trkpt lat="42.51759" lon="0.72212">
        <ele>1038.2</ele>
        <time>2022-05-23 00:24:01</time>
      </trkpt>
      <trkpt lat="42.51753" lon="0.72205">
        <ele>1038</ele>
        <time>2022-05-23 00:24:02</time>
      </trkpt>
      <trkpt lat="42.51747" lon="0.72199">
        <ele>1038</ele>
        <time>2022-05-23 00:24:03</time>
      </trkpt>
      <trkpt lat="42.51741" lon="0.72192">
        <ele>1037.8</ele>
        <time>2022-05-23 00:24:04</time>
      </trkpt>
      <trkpt lat="42.51735" lon="0.72186">
        <ele>1037.8</ele>
        <time>2022-05-23 00:24:05</time>
      </trkpt>
      <trkpt lat="42.5173" lon="0.7218">
        <ele>1037.8</ele>
        <time>2022-05-23 00:24:06</time>
      </trkpt>
      <trkpt lat="42.51725" lon="0.72174">
        <ele>1037.8</ele>
        <time>2022-05-23 00:24:07</time>
      </trkpt>
      <trkpt lat="42.5172" lon="0.72168">
        <ele>1037.6</ele>
        <time>2022-05-23 00:24:08</time>
      </trkpt>
      <trkpt lat="42.51715" lon="0.72163">
        <ele>1037.6</ele>
        <time>2022-05-23 00:24:09</time>
      </trkpt>
      <trkpt lat="42.5171" lon="0.72158">
        <ele>1037.4</ele>
        <time>2022-05-23 00:24:10</time>
      </trkpt>
      <trkpt lat="42.51706" lon="0.72153">
        <ele>1037.4</ele>
        <time>2022-05-23 00:24:11</time>
      </trkpt>
      <trkpt lat="42.51701" lon="0.72148">
        <ele>1037.4</ele>
        <time>2022-05-23 00:24:12</time>
      </trkpt>
      <trkpt lat="42.51696" lon="0.72143">
        <ele>1037.4</ele>
        <time>2022-05-23 00:24:13</time>
      </trkpt>
      <trkpt lat="42.51691" lon="0.72138">
        <ele>1037.4</ele>
        <time>2022-05-23 00:24:14</time>
      </trkpt>
      <trkpt lat="42.51686" lon="0.72132">
        <ele>1037.4</ele>
        <time>2022-05-23 00:24:15</time>
      </trkpt>
      <trkpt lat="42.51681" lon="0.72127">
        <ele>1037.2</ele>
        <time>2022-05-23 00:24:16</time>
      </trkpt>
      <trkpt lat="42.51675" lon="0.72121">
        <ele>1037.2</ele>
        <time>2022-05-23 00:24:17</time>
      </trkpt>
      <trkpt lat="42.5167" lon="0.72116">
        <ele>1037</ele>
        <time>2022-05-23 00:24:18</time>
      </trkpt>
      <trkpt lat="42.51664" lon="0.72111">
        <ele>1037</ele>
        <time>2022-05-23 00:24:19</time>
      </trkpt>
      <trkpt lat="42.51659" lon="0.72105">
        <ele>1037</ele>
        <time>2022-05-23 00:24:20</time>
      </trkpt>
      <trkpt lat="42.51653" lon="0.721">
        <ele>1037</ele>
        <time>2022-05-23 00:24:21</time>
      </trkpt>
      <trkpt lat="42.51648" lon="0.72095">
        <ele>1036.8</ele>
        <time>2022-05-23 00:24:22</time>
      </trkpt>
      <trkpt lat="42.51643" lon="0.72089">
        <ele>1037</ele>
        <time>2022-05-23 00:24:23</time>
      </trkpt>
      <trkpt lat="42.51637" lon="0.72083">
        <ele>1036.8</ele>
        <time>2022-05-23 00:24:24</time>
      </trkpt>
      <trkpt lat="42.51631" lon="0.72077">
        <ele>1036.8</ele>
        <time>2022-05-23 00:24:25</time>
      </trkpt>
      <trkpt lat="42.51626" lon="0.72072">
        <ele>1036.8</ele>
        <time>2022-05-23 00:24:26</time>
      </trkpt>
      <trkpt lat="42.5162" lon="0.72066">
        <ele>1036.6</ele>
        <time>2022-05-23 00:24:27</time>
      </trkpt>
      <trkpt lat="42.51614" lon="0.7206">
        <ele>1036.6</ele>
        <time>2022-05-23 00:24:28</time>
      </trkpt>
      <trkpt lat="42.51609" lon="0.72054">
        <ele>1036.4</ele>
        <time>2022-05-23 00:24:29</time>
      </trkpt>
      <trkpt lat="42.51603" lon="0.72049">
        <ele>1036.2</ele>
        <time>2022-05-23 00:24:30</time>
      </trkpt>
      <trkpt lat="42.51597" lon="0.72043">
        <ele>1036</ele>
        <time>2022-05-23 00:24:31</time>
      </trkpt>
      <trkpt lat="42.51592" lon="0.72037">
        <ele>1035.6</ele>
        <time>2022-05-23 00:24:32</time>
      </trkpt>
      <trkpt lat="42.51586" lon="0.72031">
        <ele>1035.4</ele>
        <time>2022-05-23 00:24:33</time>
      </trkpt>
      <trkpt lat="42.51579" lon="0.72025">
        <ele>1035.2</ele>
        <time>2022-05-23 00:24:34</time>
      </trkpt>
      <trkpt lat="42.51573" lon="0.7202">
        <ele>1035</ele>
        <time>2022-05-23 00:24:35</time>
      </trkpt>
      <trkpt lat="42.51567" lon="0.72015">
        <ele>1034.6</ele>
        <time>2022-05-23 00:24:36</time>
      </trkpt>
      <trkpt lat="42.5156" lon="0.7201">
        <ele>1034.4</ele>
        <time>2022-05-23 00:24:37</time>
      </trkpt>
      <trkpt lat="42.51553" lon="0.72005">
        <ele>1034.2</ele>
        <time>2022-05-23 00:24:38</time>
      </trkpt>
      <trkpt lat="42.51546" lon="0.72001">
        <ele>1033.8</ele>
        <time>2022-05-23 00:24:39</time>
      </trkpt>
      <trkpt lat="42.51539" lon="0.71997">
        <ele>1033.6</ele>
        <time>2022-05-23 00:24:40</time>
      </trkpt>
      <trkpt lat="42.51531" lon="0.71994">
        <ele>1033.2</ele>
        <time>2022-05-23 00:24:41</time>
      </trkpt>
      <trkpt lat="42.51524" lon="0.71992">
        <ele>1033</ele>
        <time>2022-05-23 00:24:42</time>
      </trkpt>
      <trkpt lat="42.51516" lon="0.71989">
        <ele>1032.8</ele>
        <time>2022-05-23 00:24:43</time>
      </trkpt>
      <trkpt lat="42.51508" lon="0.71987">
        <ele>1032.6</ele>
        <time>2022-05-23 00:24:44</time>
      </trkpt>
      <trkpt lat="42.51501" lon="0.71986">
        <ele>1032.2</ele>
        <time>2022-05-23 00:24:45</time>
      </trkpt>
      <trkpt lat="42.51493" lon="0.71984">
        <ele>1031.8</ele>
        <time>2022-05-23 00:24:46</time>
      </trkpt>
      <trkpt lat="42.51485" lon="0.71982">
        <ele>1031.6</ele>
        <time>2022-05-23 00:24:47</time>
      </trkpt>
      <trkpt lat="42.51477" lon="0.71981">
        <ele>1031.2</ele>
        <time>2022-05-23 00:24:48</time>
      </trkpt>
      <trkpt lat="42.51468" lon="0.71979">
        <ele>1030.8</ele>
        <time>2022-05-23 00:24:49</time>
      </trkpt>
      <trkpt lat="42.5146" lon="0.71978">
        <ele>1030.6</ele>
        <time>2022-05-23 00:24:50</time>
      </trkpt>
      <trkpt lat="42.51451" lon="0.71977">
        <ele>1030.4</ele>
        <time>2022-05-23 00:24:51</time>
      </trkpt>
      <trkpt lat="42.51443" lon="0.71975">
        <ele>1030.2</ele>
        <time>2022-05-23 00:24:52</time>
      </trkpt>
      <trkpt lat="42.51435" lon="0.71974">
        <ele>1030.2</ele>
        <time>2022-05-23 00:24:53</time>
      </trkpt>
      <trkpt lat="42.51427" lon="0.71973">
        <ele>1030</ele>
        <time>2022-05-23 00:24:54</time>
      </trkpt>
      <trkpt lat="42.51419" lon="0.71972">
        <ele>1029.8</ele>
        <time>2022-05-23 00:24:55</time>
      </trkpt>
      <trkpt lat="42.51411" lon="0.71971">
        <ele>1029.6</ele>
        <time>2022-05-23 00:24:56</time>
      </trkpt>
      <trkpt lat="42.51404" lon="0.71971">
        <ele>1029.6</ele>
        <time>2022-05-23 00:24:57</time>
      </trkpt>
      <trkpt lat="42.51396" lon="0.71969">
        <ele>1029.4</ele>
        <time>2022-05-23 00:24:58</time>
      </trkpt>
      <trkpt lat="42.51389" lon="0.71968">
        <ele>1029.4</ele>
        <time>2022-05-23 00:24:59</time>
      </trkpt>
      <trkpt lat="42.51381" lon="0.71968">
        <ele>1029.2</ele>
        <time>2022-05-23 00:25:00</time>
      </trkpt>
      <trkpt lat="42.51373" lon="0.71967">
        <ele>1029</ele>
        <time>2022-05-23 00:25:01</time>
      </trkpt>
      <trkpt lat="42.51366" lon="0.71965">
        <ele>1028.8</ele>
        <time>2022-05-23 00:25:02</time>
      </trkpt>
      <trkpt lat="42.51358" lon="0.71964">
        <ele>1028.6</ele>
        <time>2022-05-23 00:25:03</time>
      </trkpt>
      <trkpt lat="42.51351" lon="0.71961">
        <ele>1028.6</ele>
        <time>2022-05-23 00:25:04</time>
      </trkpt>
      <trkpt lat="42.51344" lon="0.71958">
        <ele>1028.4</ele>
        <time>2022-05-23 00:25:05</time>
      </trkpt>
      <trkpt lat="42.51337" lon="0.71955">
        <ele>1028.2</ele>
        <time>2022-05-23 00:25:06</time>
      </trkpt>
      <trkpt lat="42.51329" lon="0.71952">
        <ele>1028.2</ele>
        <time>2022-05-23 00:25:07</time>
      </trkpt>
      <trkpt lat="42.51322" lon="0.71947">
        <ele>1028</ele>
        <time>2022-05-23 00:25:08</time>
      </trkpt>
      <trkpt lat="42.51315" lon="0.71943">
        <ele>1028</ele>
        <time>2022-05-23 00:25:09</time>
      </trkpt>
      <trkpt lat="42.51309" lon="0.71938">
        <ele>1027.8</ele>
        <time>2022-05-23 00:25:10</time>
      </trkpt>
      <trkpt lat="42.51303" lon="0.71933">
        <ele>1027.8</ele>
        <time>2022-05-23 00:25:11</time>
      </trkpt>
      <trkpt lat="42.51298" lon="0.71928">
        <ele>1027.8</ele>
        <time>2022-05-23 00:25:12</time>
      </trkpt>
      <trkpt lat="42.51292" lon="0.71922">
        <ele>1027.8</ele>
        <time>2022-05-23 00:25:13</time>
      </trkpt>
      <trkpt lat="42.51287" lon="0.71916">
        <ele>1027.8</ele>
        <time>2022-05-23 00:25:14</time>
      </trkpt>
      <trkpt lat="42.51282" lon="0.7191">
        <ele>1027.8</ele>
        <time>2022-05-23 00:25:15</time>
      </trkpt>
      <trkpt lat="42.51277" lon="0.71904">
        <ele>1027.8</ele>
        <time>2022-05-23 00:25:16</time>
      </trkpt>
      <trkpt lat="42.51272" lon="0.71898">
        <ele>1027.8</ele>
        <time>2022-05-23 00:25:17</time>
      </trkpt>
      <trkpt lat="42.51267" lon="0.71892">
        <ele>1027.8</ele>
        <time>2022-05-23 00:25:18</time>
      </trkpt>
      <trkpt lat="42.51262" lon="0.71887">
        <ele>1028</ele>
        <time>2022-05-23 00:25:19</time>
      </trkpt>
      <trkpt lat="42.51257" lon="0.71881">
        <ele>1028</ele>
        <time>2022-05-23 00:25:20</time>
      </trkpt>
      <trkpt lat="42.51253" lon="0.71874">
        <ele>1028</ele>
        <time>2022-05-23 00:25:21</time>
      </trkpt>
      <trkpt lat="42.51249" lon="0.71868">
        <ele>1028.2</ele>
        <time>2022-05-23 00:25:22</time>
      </trkpt>
      <trkpt lat="42.51246" lon="0.71862">
        <ele>1028.2</ele>
        <time>2022-05-23 00:25:23</time>
      </trkpt>
      <trkpt lat="42.51242" lon="0.71856">
        <ele>1028.4</ele>
        <time>2022-05-23 00:25:24</time>
      </trkpt>
      <trkpt lat="42.51237" lon="0.71852">
        <ele>1028.6</ele>
        <time>2022-05-23 00:25:25</time>
      </trkpt>
      <trkpt lat="42.51233" lon="0.71847">
        <ele>1028.8</ele>
        <time>2022-05-23 00:25:26</time>
      </trkpt>
      <trkpt lat="42.51229" lon="0.71843">
        <ele>1029.2</ele>
        <time>2022-05-23 00:25:27</time>
      </trkpt>
      <trkpt lat="42.51225" lon="0.7184">
        <ele>1029.4</ele>
        <time>2022-05-23 00:25:28</time>
      </trkpt>
      <trkpt lat="42.51221" lon="0.71836">
        <ele>1029.8</ele>
        <time>2022-05-23 00:25:29</time>
      </trkpt>
      <trkpt lat="42.51217" lon="0.71832">
        <ele>1030</ele>
        <time>2022-05-23 00:25:30</time>
      </trkpt>
      <trkpt lat="42.51214" lon="0.71829">
        <ele>1030.4</ele>
        <time>2022-05-23 00:25:31</time>
      </trkpt>
      <trkpt lat="42.5121" lon="0.71826">
        <ele>1030.6</ele>
        <time>2022-05-23 00:25:32</time>
      </trkpt>
      <trkpt lat="42.51206" lon="0.71824">
        <ele>1031</ele>
        <time>2022-05-23 00:25:33</time>
      </trkpt>
      <trkpt lat="42.51203" lon="0.71821">
        <ele>1031.2</ele>
        <time>2022-05-23 00:25:34</time>
      </trkpt>
      <trkpt lat="42.51199" lon="0.71819">
        <ele>1031.6</ele>
        <time>2022-05-23 00:25:35</time>
      </trkpt>
      <trkpt lat="42.51196" lon="0.71817">
        <ele>1031.8</ele>
        <time>2022-05-23 00:25:36</time>
      </trkpt>
      <trkpt lat="42.51192" lon="0.71815">
        <ele>1032</ele>
        <time>2022-05-23 00:25:37</time>
      </trkpt>
      <trkpt lat="42.51189" lon="0.71813">
        <ele>1032.2</ele>
        <time>2022-05-23 00:25:38</time>
      </trkpt>
      <trkpt lat="42.51185" lon="0.71812">
        <ele>1032.4</ele>
        <time>2022-05-23 00:25:39</time>
      </trkpt>
      <trkpt lat="42.51182" lon="0.71811">
        <ele>1032.6</ele>
        <time>2022-05-23 00:25:40</time>
      </trkpt>
      <trkpt lat="42.51179" lon="0.7181">
        <ele>1033</ele>
        <time>2022-05-23 00:25:41</time>
      </trkpt>
      <trkpt lat="42.51175" lon="0.71809">
        <ele>1033.2</ele>
        <time>2022-05-23 00:25:42</time>
      </trkpt>
      <trkpt lat="42.51172" lon="0.71808">
        <ele>1033.4</ele>
        <time>2022-05-23 00:25:43</time>
      </trkpt>
      <trkpt lat="42.51168" lon="0.71807">
        <ele>1033.6</ele>
        <time>2022-05-23 00:25:44</time>
      </trkpt>
      <trkpt lat="42.51165" lon="0.71807">
        <ele>1033.6</ele>
        <time>2022-05-23 00:25:45</time>
      </trkpt>
      <trkpt lat="42.51162" lon="0.71807">
        <ele>1033.8</ele>
        <time>2022-05-23 00:25:46</time>
      </trkpt>
      <trkpt lat="42.51158" lon="0.71808">
        <ele>1034</ele>
        <time>2022-05-23 00:25:47</time>
      </trkpt>
      <trkpt lat="42.51155" lon="0.71808">
        <ele>1034.2</ele>
        <time>2022-05-23 00:25:48</time>
      </trkpt>
      <trkpt lat="42.51151" lon="0.71808">
        <ele>1034.4</ele>
        <time>2022-05-23 00:25:49</time>
      </trkpt>
      <trkpt lat="42.51148" lon="0.71808">
        <ele>1034.6</ele>
        <time>2022-05-23 00:25:50</time>
      </trkpt>
      <trkpt lat="42.51144" lon="0.71809">
        <ele>1034.8</ele>
        <time>2022-05-23 00:25:51</time>
      </trkpt>
      <trkpt lat="42.51141" lon="0.71809">
        <ele>1035</ele>
        <time>2022-05-23 00:25:52</time>
      </trkpt>
      <trkpt lat="42.51138" lon="0.7181">
        <ele>1035.2</ele>
        <time>2022-05-23 00:25:53</time>
      </trkpt>
      <trkpt lat="42.51135" lon="0.71811">
        <ele>1035.2</ele>
        <time>2022-05-23 00:25:54</time>
      </trkpt>
      <trkpt lat="42.51131" lon="0.71812">
        <ele>1035.4</ele>
        <time>2022-05-23 00:25:55</time>
      </trkpt>
      <trkpt lat="42.51127" lon="0.71812">
        <ele>1035.6</ele>
        <time>2022-05-23 00:25:56</time>
      </trkpt>
      <trkpt lat="42.51124" lon="0.71813">
        <ele>1035.8</ele>
        <time>2022-05-23 00:25:57</time>
      </trkpt>
      <trkpt lat="42.5112" lon="0.71814">
        <ele>1035.8</ele>
        <time>2022-05-23 00:25:58</time>
      </trkpt>
      <trkpt lat="42.51116" lon="0.71815">
        <ele>1036</ele>
        <time>2022-05-23 00:25:59</time>
      </trkpt>
      <trkpt lat="42.51112" lon="0.71816">
        <ele>1036</ele>
        <time>2022-05-23 00:26:00</time>
      </trkpt>
      <trkpt lat="42.51108" lon="0.71817">
        <ele>1036.2</ele>
        <time>2022-05-23 00:26:01</time>
      </trkpt>
      <trkpt lat="42.51103" lon="0.71819">
        <ele>1036.2</ele>
        <time>2022-05-23 00:26:02</time>
      </trkpt>
      <trkpt lat="42.51099" lon="0.7182">
        <ele>1036.2</ele>
        <time>2022-05-23 00:26:03</time>
      </trkpt>
      <trkpt lat="42.51095" lon="0.71822">
        <ele>1036.4</ele>
        <time>2022-05-23 00:26:04</time>
      </trkpt>
      <trkpt lat="42.5109" lon="0.71824">
        <ele>1036.4</ele>
        <time>2022-05-23 00:26:05</time>
      </trkpt>
      <trkpt lat="42.51086" lon="0.71826">
        <ele>1036.4</ele>
        <time>2022-05-23 00:26:06</time>
      </trkpt>
      <trkpt lat="42.51082" lon="0.71827">
        <ele>1036.4</ele>
        <time>2022-05-23 00:26:07</time>
      </trkpt>
      <trkpt lat="42.51078" lon="0.71828">
        <ele>1036.4</ele>
        <time>2022-05-23 00:26:08</time>
      </trkpt>
      <trkpt lat="42.51074" lon="0.71829">
        <ele>1036.4</ele>
        <time>2022-05-23 00:26:09</time>
      </trkpt>
      <trkpt lat="42.51069" lon="0.71829">
        <ele>1036.4</ele>
        <time>2022-05-23 00:26:10</time>
      </trkpt>
      <trkpt lat="42.51065" lon="0.7183">
        <ele>1036.4</ele>
        <time>2022-05-23 00:26:11</time>
      </trkpt>
      <trkpt lat="42.5106" lon="0.71831">
        <ele>1036.4</ele>
        <time>2022-05-23 00:26:12</time>
      </trkpt>
      <trkpt lat="42.51055" lon="0.71833">
        <ele>1036.2</ele>
        <time>2022-05-23 00:26:13</time>
      </trkpt>
      <trkpt lat="42.5105" lon="0.71834">
        <ele>1036.2</ele>
        <time>2022-05-23 00:26:14</time>
      </trkpt>
      <trkpt lat="42.51045" lon="0.71835">
        <ele>1036</ele>
        <time>2022-05-23 00:26:15</time>
      </trkpt>
      <trkpt lat="42.5104" lon="0.71837">
        <ele>1035.8</ele>
        <time>2022-05-23 00:26:16</time>
      </trkpt>
      <trkpt lat="42.51034" lon="0.71839">
        <ele>1035.6</ele>
        <time>2022-05-23 00:26:17</time>
      </trkpt>
      <trkpt lat="42.51029" lon="0.71841">
        <ele>1035.4</ele>
        <time>2022-05-23 00:26:18</time>
      </trkpt>
      <trkpt lat="42.51023" lon="0.71842">
        <ele>1035.2</ele>
        <time>2022-05-23 00:26:19</time>
      </trkpt>
      <trkpt lat="42.51016" lon="0.71844">
        <ele>1034.8</ele>
        <time>2022-05-23 00:26:20</time>
      </trkpt>
      <trkpt lat="42.51009" lon="0.71845">
        <ele>1034.4</ele>
        <time>2022-05-23 00:26:21</time>
      </trkpt>
      <trkpt lat="42.51003" lon="0.71847">
        <ele>1034</ele>
        <time>2022-05-23 00:26:22</time>
      </trkpt>
      <trkpt lat="42.50995" lon="0.71848">
        <ele>1033.6</ele>
        <time>2022-05-23 00:26:23</time>
      </trkpt>
      <trkpt lat="42.50987" lon="0.7185">
        <ele>1033.2</ele>
        <time>2022-05-23 00:26:24</time>
      </trkpt>
      <trkpt lat="42.50979" lon="0.71851">
        <ele>1032.8</ele>
        <time>2022-05-23 00:26:25</time>
      </trkpt>
      <trkpt lat="42.50971" lon="0.71851">
        <ele>1032.2</ele>
        <time>2022-05-23 00:26:26</time>
      </trkpt>
      <trkpt lat="42.50964" lon="0.71851">
        <ele>1031.8</ele>
        <time>2022-05-23 00:26:27</time>
      </trkpt>
      <trkpt lat="42.50956" lon="0.7185">
        <ele>1031.4</ele>
        <time>2022-05-23 00:26:28</time>
      </trkpt>
      <trkpt lat="42.50948" lon="0.71848">
        <ele>1030.8</ele>
        <time>2022-05-23 00:26:29</time>
      </trkpt>
      <trkpt lat="42.50939" lon="0.71846">
        <ele>1030.2</ele>
        <time>2022-05-23 00:26:30</time>
      </trkpt>
      <trkpt lat="42.50932" lon="0.71845">
        <ele>1029.8</ele>
        <time>2022-05-23 00:26:31</time>
      </trkpt>
      <trkpt lat="42.50923" lon="0.71845">
        <ele>1029.2</ele>
        <time>2022-05-23 00:26:32</time>
      </trkpt>
      <trkpt lat="42.50914" lon="0.71844">
        <ele>1028.6</ele>
        <time>2022-05-23 00:26:33</time>
      </trkpt>
      <trkpt lat="42.50905" lon="0.71843">
        <ele>1028</ele>
        <time>2022-05-23 00:26:34</time>
      </trkpt>
      <trkpt lat="42.50897" lon="0.71841">
        <ele>1027.6</ele>
        <time>2022-05-23 00:26:35</time>
      </trkpt>
      <trkpt lat="42.50886" lon="0.7184">
        <ele>1027</ele>
        <time>2022-05-23 00:26:36</time>
      </trkpt>
      <trkpt lat="42.50876" lon="0.71838">
        <ele>1026.4</ele>
        <time>2022-05-23 00:26:37</time>
      </trkpt>
      <trkpt lat="42.50868" lon="0.71837">
        <ele>1025.8</ele>
        <time>2022-05-23 00:26:38</time>
      </trkpt>
      <trkpt lat="42.50857" lon="0.71836">
        <ele>1025.2</ele>
        <time>2022-05-23 00:26:39</time>
      </trkpt>
      <trkpt lat="42.50847" lon="0.71836">
        <ele>1024.4</ele>
        <time>2022-05-23 00:26:40</time>
      </trkpt>
      <trkpt lat="42.50837" lon="0.71836">
        <ele>1023.8</ele>
        <time>2022-05-23 00:26:41</time>
      </trkpt>
      <trkpt lat="42.50827" lon="0.71834">
        <ele>1023</ele>
        <time>2022-05-23 00:26:42</time>
      </trkpt>
      <trkpt lat="42.50817" lon="0.71833">
        <ele>1022.4</ele>
        <time>2022-05-23 00:26:43</time>
      </trkpt>
      <trkpt lat="42.50806" lon="0.71832">
        <ele>1021.8</ele>
        <time>2022-05-23 00:26:44</time>
      </trkpt>
      <trkpt lat="42.50796" lon="0.7183">
        <ele>1021</ele>
        <time>2022-05-23 00:26:45</time>
      </trkpt>
      <trkpt lat="42.50784" lon="0.71829">
        <ele>1020.4</ele>
        <time>2022-05-23 00:26:46</time>
      </trkpt>
      <trkpt lat="42.50773" lon="0.71828">
        <ele>1019.8</ele>
        <time>2022-05-23 00:26:47</time>
      </trkpt>
      <trkpt lat="42.50762" lon="0.71826">
        <ele>1019.2</ele>
        <time>2022-05-23 00:26:48</time>
      </trkpt>
      <trkpt lat="42.50752" lon="0.71825">
        <ele>1018.4</ele>
        <time>2022-05-23 00:26:49</time>
      </trkpt>
      <trkpt lat="42.5074" lon="0.71824">
        <ele>1017.8</ele>
        <time>2022-05-23 00:26:50</time>
      </trkpt>
      <trkpt lat="42.50729" lon="0.71824">
        <ele>1017.2</ele>
        <time>2022-05-23 00:26:51</time>
      </trkpt>
      <trkpt lat="42.50718" lon="0.71824">
        <ele>1016.6</ele>
        <time>2022-05-23 00:26:52</time>
      </trkpt>
      <trkpt lat="42.50707" lon="0.71823">
        <ele>1016</ele>
        <time>2022-05-23 00:26:53</time>
      </trkpt>
      <trkpt lat="42.50696" lon="0.7182">
        <ele>1015.4</ele>
        <time>2022-05-23 00:26:54</time>
      </trkpt>
      <trkpt lat="42.50686" lon="0.71819">
        <ele>1015</ele>
        <time>2022-05-23 00:26:55</time>
      </trkpt>
      <trkpt lat="42.50676" lon="0.71818">
        <ele>1014.6</ele>
        <time>2022-05-23 00:26:56</time>
      </trkpt>
      <trkpt lat="42.50665" lon="0.71816">
        <ele>1014.2</ele>
        <time>2022-05-23 00:26:57</time>
      </trkpt>
      <trkpt lat="42.50654" lon="0.71814">
        <ele>1013.8</ele>
        <time>2022-05-23 00:26:58</time>
      </trkpt>
      <trkpt lat="42.50643" lon="0.71811">
        <ele>1013.6</ele>
        <time>2022-05-23 00:26:59</time>
      </trkpt>
      <trkpt lat="42.50633" lon="0.71807">
        <ele>1013.4</ele>
        <time>2022-05-23 00:27:00</time>
      </trkpt>
      <trkpt lat="42.50625" lon="0.71802">
        <ele>1013.2</ele>
        <time>2022-05-23 00:27:01</time>
      </trkpt>
      <trkpt lat="42.50615" lon="0.71795">
        <ele>1013</ele>
        <time>2022-05-23 00:27:02</time>
      </trkpt>
      <trkpt lat="42.50607" lon="0.71787">
        <ele>1013</ele>
        <time>2022-05-23 00:27:03</time>
      </trkpt>
      <trkpt lat="42.506" lon="0.71778">
        <ele>1012.8</ele>
        <time>2022-05-23 00:27:04</time>
      </trkpt>
      <trkpt lat="42.50594" lon="0.7177">
        <ele>1012.8</ele>
        <time>2022-05-23 00:27:05</time>
      </trkpt>
      <trkpt lat="42.50588" lon="0.71761">
        <ele>1012.8</ele>
        <time>2022-05-23 00:27:06</time>
      </trkpt>
      <trkpt lat="42.50582" lon="0.71752">
        <ele>1012.8</ele>
        <time>2022-05-23 00:27:07</time>
      </trkpt>
      <trkpt lat="42.50577" lon="0.71743">
        <ele>1012.8</ele>
        <time>2022-05-23 00:27:08</time>
      </trkpt>
      <trkpt lat="42.50572" lon="0.71735">
        <ele>1012.8</ele>
        <time>2022-05-23 00:27:09</time>
      </trkpt>
      <trkpt lat="42.50567" lon="0.71726">
        <ele>1012.8</ele>
        <time>2022-05-23 00:27:10</time>
      </trkpt>
      <trkpt lat="42.50562" lon="0.71718">
        <ele>1012.8</ele>
        <time>2022-05-23 00:27:11</time>
      </trkpt>
      <trkpt lat="42.50558" lon="0.7171">
        <ele>1012.8</ele>
        <time>2022-05-23 00:27:12</time>
      </trkpt>
      <trkpt lat="42.50553" lon="0.71702">
        <ele>1012.8</ele>
        <time>2022-05-23 00:27:13</time>
      </trkpt>
      <trkpt lat="42.50549" lon="0.71693">
        <ele>1012.8</ele>
        <time>2022-05-23 00:27:14</time>
      </trkpt>
      <trkpt lat="42.50545" lon="0.71686">
        <ele>1012.8</ele>
        <time>2022-05-23 00:27:15</time>
      </trkpt>
      <trkpt lat="42.50541" lon="0.71678">
        <ele>1012.8</ele>
        <time>2022-05-23 00:27:16</time>
      </trkpt>
      <trkpt lat="42.50537" lon="0.7167">
        <ele>1012.8</ele>
        <time>2022-05-23 00:27:17</time>
      </trkpt>
      <trkpt lat="42.50533" lon="0.71664">
        <ele>1012.8</ele>
        <time>2022-05-23 00:27:18</time>
      </trkpt>
      <trkpt lat="42.50528" lon="0.71657">
        <ele>1012.8</ele>
        <time>2022-05-23 00:27:19</time>
      </trkpt>
      <trkpt lat="42.50524" lon="0.7165">
        <ele>1012.8</ele>
        <time>2022-05-23 00:27:20</time>
      </trkpt>
      <trkpt lat="42.5052" lon="0.71644">
        <ele>1012.8</ele>
        <time>2022-05-23 00:27:21</time>
      </trkpt>
      <trkpt lat="42.50515" lon="0.71638">
        <ele>1013</ele>
        <time>2022-05-23 00:27:22</time>
      </trkpt>
      <trkpt lat="42.50511" lon="0.71631">
        <ele>1013</ele>
        <time>2022-05-23 00:27:23</time>
      </trkpt>
      <trkpt lat="42.50507" lon="0.71624">
        <ele>1013</ele>
        <time>2022-05-23 00:27:24</time>
      </trkpt>
      <trkpt lat="42.50504" lon="0.71618">
        <ele>1013</ele>
        <time>2022-05-23 00:27:25</time>
      </trkpt>
      <trkpt lat="42.505" lon="0.71611">
        <ele>1013</ele>
        <time>2022-05-23 00:27:26</time>
      </trkpt>
      <trkpt lat="42.50496" lon="0.71605">
        <ele>1013.2</ele>
        <time>2022-05-23 00:27:27</time>
      </trkpt>
      <trkpt lat="42.50492" lon="0.716">
        <ele>1013.2</ele>
        <time>2022-05-23 00:27:28</time>
      </trkpt>
      <trkpt lat="42.50488" lon="0.71594">
        <ele>1013.2</ele>
        <time>2022-05-23 00:27:29</time>
      </trkpt>
      <trkpt lat="42.50484" lon="0.71589">
        <ele>1013.4</ele>
        <time>2022-05-23 00:27:30</time>
      </trkpt>
      <trkpt lat="42.50479" lon="0.71583">
        <ele>1013.4</ele>
        <time>2022-05-23 00:27:31</time>
      </trkpt>
      <trkpt lat="42.50474" lon="0.71578">
        <ele>1013.4</ele>
        <time>2022-05-23 00:27:32</time>
      </trkpt>
      <trkpt lat="42.50468" lon="0.71574">
        <ele>1013.4</ele>
        <time>2022-05-23 00:27:33</time>
      </trkpt>
      <trkpt lat="42.50462" lon="0.7157">
        <ele>1013.4</ele>
        <time>2022-05-23 00:27:34</time>
      </trkpt>
      <trkpt lat="42.50456" lon="0.71567">
        <ele>1013.4</ele>
        <time>2022-05-23 00:27:35</time>
      </trkpt>
      <trkpt lat="42.5045" lon="0.71563">
        <ele>1013.4</ele>
        <time>2022-05-23 00:27:36</time>
      </trkpt>
      <trkpt lat="42.50445" lon="0.71561">
        <ele>1013.4</ele>
        <time>2022-05-23 00:27:37</time>
      </trkpt>
      <trkpt lat="42.50439" lon="0.71558">
        <ele>1013.4</ele>
        <time>2022-05-23 00:27:38</time>
      </trkpt>
      <trkpt lat="42.50432" lon="0.71557">
        <ele>1013.4</ele>
        <time>2022-05-23 00:27:39</time>
      </trkpt>
      <trkpt lat="42.50426" lon="0.71557">
        <ele>1013.4</ele>
        <time>2022-05-23 00:27:40</time>
      </trkpt>
      <trkpt lat="42.5042" lon="0.71557">
        <ele>1013.2</ele>
        <time>2022-05-23 00:27:41</time>
      </trkpt>
      <trkpt lat="42.50414" lon="0.71558">
        <ele>1013</ele>
        <time>2022-05-23 00:27:42</time>
      </trkpt>
      <trkpt lat="42.50407" lon="0.7156">
        <ele>1012.8</ele>
        <time>2022-05-23 00:27:43</time>
      </trkpt>
      <trkpt lat="42.504" lon="0.71563">
        <ele>1012.4</ele>
        <time>2022-05-23 00:27:44</time>
      </trkpt>
      <trkpt lat="42.50394" lon="0.71567">
        <ele>1012</ele>
        <time>2022-05-23 00:27:45</time>
      </trkpt>
      <trkpt lat="42.50386" lon="0.71571">
        <ele>1011.6</ele>
        <time>2022-05-23 00:27:46</time>
      </trkpt>
      <trkpt lat="42.50378" lon="0.71575">
        <ele>1011.2</ele>
        <time>2022-05-23 00:27:47</time>
      </trkpt>
      <trkpt lat="42.50371" lon="0.7158">
        <ele>1010.6</ele>
        <time>2022-05-23 00:27:48</time>
      </trkpt>
      <trkpt lat="42.50364" lon="0.71584">
        <ele>1010.2</ele>
        <time>2022-05-23 00:27:49</time>
      </trkpt>
      <trkpt lat="42.50357" lon="0.7159">
        <ele>1010</ele>
        <time>2022-05-23 00:27:50</time>
      </trkpt>
      <trkpt lat="42.5035" lon="0.71595">
        <ele>1009.6</ele>
        <time>2022-05-23 00:27:51</time>
      </trkpt>
      <trkpt lat="42.50343" lon="0.71601">
        <ele>1009.2</ele>
        <time>2022-05-23 00:27:52</time>
      </trkpt>
      <trkpt lat="42.50336" lon="0.71607">
        <ele>1008.8</ele>
        <time>2022-05-23 00:27:53</time>
      </trkpt>
      <trkpt lat="42.50329" lon="0.71613">
        <ele>1008.6</ele>
        <time>2022-05-23 00:27:54</time>
      </trkpt>
      <trkpt lat="42.50321" lon="0.71618">
        <ele>1008.4</ele>
        <time>2022-05-23 00:27:55</time>
      </trkpt>
      <trkpt lat="42.50313" lon="0.71623">
        <ele>1008.2</ele>
        <time>2022-05-23 00:27:56</time>
      </trkpt>
      <trkpt lat="42.50305" lon="0.71627">
        <ele>1007.8</ele>
        <time>2022-05-23 00:27:57</time>
      </trkpt>
      <trkpt lat="42.50297" lon="0.71631">
        <ele>1007.6</ele>
        <time>2022-05-23 00:27:58</time>
      </trkpt>
      <trkpt lat="42.50289" lon="0.71635">
        <ele>1007.2</ele>
        <time>2022-05-23 00:27:59</time>
      </trkpt>
      <trkpt lat="42.50281" lon="0.71638">
        <ele>1006.8</ele>
        <time>2022-05-23 00:28:00</time>
      </trkpt>
      <trkpt lat="42.50272" lon="0.7164">
        <ele>1006.4</ele>
        <time>2022-05-23 00:28:01</time>
      </trkpt>
      <trkpt lat="42.50263" lon="0.71643">
        <ele>1006</ele>
        <time>2022-05-23 00:28:02</time>
      </trkpt>
      <trkpt lat="42.50255" lon="0.71645">
        <ele>1005.6</ele>
        <time>2022-05-23 00:28:03</time>
      </trkpt>
      <trkpt lat="42.50247" lon="0.71648">
        <ele>1005.2</ele>
        <time>2022-05-23 00:28:04</time>
      </trkpt>
      <trkpt lat="42.50238" lon="0.7165">
        <ele>1005</ele>
        <time>2022-05-23 00:28:05</time>
      </trkpt>
      <trkpt lat="42.5023" lon="0.71652">
        <ele>1004.6</ele>
        <time>2022-05-23 00:28:06</time>
      </trkpt>
      <trkpt lat="42.50221" lon="0.71654">
        <ele>1004.4</ele>
        <time>2022-05-23 00:28:07</time>
      </trkpt>
      <trkpt lat="42.50213" lon="0.71656">
        <ele>1004.2</ele>
        <time>2022-05-23 00:28:08</time>
      </trkpt>
      <trkpt lat="42.50205" lon="0.71658">
        <ele>1003.8</ele>
        <time>2022-05-23 00:28:09</time>
      </trkpt>
      <trkpt lat="42.50196" lon="0.7166">
        <ele>1003.6</ele>
        <time>2022-05-23 00:28:10</time>
      </trkpt>
      <trkpt lat="42.50188" lon="0.71662">
        <ele>1003.6</ele>
        <time>2022-05-23 00:28:11</time>
      </trkpt>
      <trkpt lat="42.5018" lon="0.71664">
        <ele>1003.4</ele>
        <time>2022-05-23 00:28:12</time>
      </trkpt>
      <trkpt lat="42.50173" lon="0.71666">
        <ele>1003.2</ele>
        <time>2022-05-23 00:28:13</time>
      </trkpt>
      <trkpt lat="42.50165" lon="0.71668">
        <ele>1003.2</ele>
        <time>2022-05-23 00:28:14</time>
      </trkpt>
      <trkpt lat="42.50157" lon="0.7167">
        <ele>1003.2</ele>
        <time>2022-05-23 00:28:15</time>
      </trkpt>
      <trkpt lat="42.5015" lon="0.71672">
        <ele>1003</ele>
        <time>2022-05-23 00:28:16</time>
      </trkpt>
      <trkpt lat="42.50142" lon="0.71674">
        <ele>1003</ele>
        <time>2022-05-23 00:28:17</time>
      </trkpt>
      <trkpt lat="42.50134" lon="0.71676">
        <ele>1003</ele>
        <time>2022-05-23 00:28:18</time>
      </trkpt>
      <trkpt lat="42.50127" lon="0.71678">
        <ele>1003</ele>
        <time>2022-05-23 00:28:19</time>
      </trkpt>
      <trkpt lat="42.50121" lon="0.7168">
        <ele>1003</ele>
        <time>2022-05-23 00:28:20</time>
      </trkpt>
      <trkpt lat="42.50113" lon="0.71682">
        <ele>1003</ele>
        <time>2022-05-23 00:28:21</time>
      </trkpt>
      <trkpt lat="42.50106" lon="0.71684">
        <ele>1003</ele>
        <time>2022-05-23 00:28:22</time>
      </trkpt>
      <trkpt lat="42.501" lon="0.71686">
        <ele>1003</ele>
        <time>2022-05-23 00:28:23</time>
      </trkpt>
      <trkpt lat="42.50093" lon="0.71689">
        <ele>1003</ele>
        <time>2022-05-23 00:28:24</time>
      </trkpt>
      <trkpt lat="42.50086" lon="0.71691">
        <ele>1003</ele>
        <time>2022-05-23 00:28:25</time>
      </trkpt>
      <trkpt lat="42.5008" lon="0.71693">
        <ele>1003</ele>
        <time>2022-05-23 00:28:26</time>
      </trkpt>
      <trkpt lat="42.50073" lon="0.71695">
        <ele>1003</ele>
        <time>2022-05-23 00:28:27</time>
      </trkpt>
      <trkpt lat="42.50066" lon="0.71698">
        <ele>1002.8</ele>
        <time>2022-05-23 00:28:28</time>
      </trkpt>
      <trkpt lat="42.5006" lon="0.717">
        <ele>1002.8</ele>
        <time>2022-05-23 00:28:29</time>
      </trkpt>
      <trkpt lat="42.50053" lon="0.71702">
        <ele>1002.8</ele>
        <time>2022-05-23 00:28:30</time>
      </trkpt>
      <trkpt lat="42.50047" lon="0.71703">
        <ele>1002.8</ele>
        <time>2022-05-23 00:28:31</time>
      </trkpt>
      <trkpt lat="42.50041" lon="0.71705">
        <ele>1002.8</ele>
        <time>2022-05-23 00:28:32</time>
      </trkpt>
      <trkpt lat="42.50035" lon="0.71706">
        <ele>1002.8</ele>
        <time>2022-05-23 00:28:33</time>
      </trkpt>
      <trkpt lat="42.50028" lon="0.71708">
        <ele>1003</ele>
        <time>2022-05-23 00:28:34</time>
      </trkpt>
      <trkpt lat="42.50022" lon="0.7171">
        <ele>1003</ele>
        <time>2022-05-23 00:28:35</time>
      </trkpt>
      <trkpt lat="42.50016" lon="0.71711">
        <ele>1003</ele>
        <time>2022-05-23 00:28:36</time>
      </trkpt>
      <trkpt lat="42.50011" lon="0.71713">
        <ele>1003</ele>
        <time>2022-05-23 00:28:37</time>
      </trkpt>
      <trkpt lat="42.50005" lon="0.71715">
        <ele>1003</ele>
        <time>2022-05-23 00:28:38</time>
      </trkpt>
      <trkpt lat="42.49999" lon="0.71716">
        <ele>1003</ele>
        <time>2022-05-23 00:28:39</time>
      </trkpt>
      <trkpt lat="42.49994" lon="0.71718">
        <ele>1003.2</ele>
        <time>2022-05-23 00:28:40</time>
      </trkpt>
      <trkpt lat="42.49988" lon="0.71719">
        <ele>1003.2</ele>
        <time>2022-05-23 00:28:41</time>
      </trkpt>
      <trkpt lat="42.49982" lon="0.71721">
        <ele>1003.2</ele>
        <time>2022-05-23 00:28:42</time>
      </trkpt>
      <trkpt lat="42.49976" lon="0.71722">
        <ele>1003.2</ele>
        <time>2022-05-23 00:28:43</time>
      </trkpt>
      <trkpt lat="42.49971" lon="0.71724">
        <ele>1003.2</ele>
        <time>2022-05-23 00:28:44</time>
      </trkpt>
      <trkpt lat="42.49965" lon="0.71725">
        <ele>1003.4</ele>
        <time>2022-05-23 00:28:45</time>
      </trkpt>
      <trkpt lat="42.4996" lon="0.71726">
        <ele>1003.4</ele>
        <time>2022-05-23 00:28:46</time>
      </trkpt>
      <trkpt lat="42.49954" lon="0.71727">
        <ele>1003.4</ele>
        <time>2022-05-23 00:28:47</time>
      </trkpt>
      <trkpt lat="42.49949" lon="0.71728">
        <ele>1003.4</ele>
        <time>2022-05-23 00:28:48</time>
      </trkpt>
      <trkpt lat="42.49944" lon="0.7173">
        <ele>1003.4</ele>
        <time>2022-05-23 00:28:49</time>
      </trkpt>
      <trkpt lat="42.49938" lon="0.71731">
        <ele>1003.4</ele>
        <time>2022-05-23 00:28:50</time>
      </trkpt>
      <trkpt lat="42.49933" lon="0.71733">
        <ele>1003.4</ele>
        <time>2022-05-23 00:28:51</time>
      </trkpt>
      <trkpt lat="42.49928" lon="0.71734">
        <ele>1003.6</ele>
        <time>2022-05-23 00:28:52</time>
      </trkpt>
      <trkpt lat="42.49923" lon="0.71735">
        <ele>1003.6</ele>
        <time>2022-05-23 00:28:53</time>
      </trkpt>
      <trkpt lat="42.49918" lon="0.71737">
        <ele>1003.6</ele>
        <time>2022-05-23 00:28:54</time>
      </trkpt>
      <trkpt lat="42.49912" lon="0.71739">
        <ele>1003.6</ele>
        <time>2022-05-23 00:28:55</time>
      </trkpt>
      <trkpt lat="42.49907" lon="0.7174">
        <ele>1003.6</ele>
        <time>2022-05-23 00:28:56</time>
      </trkpt>
      <trkpt lat="42.49902" lon="0.71741">
        <ele>1003.8</ele>
        <time>2022-05-23 00:28:57</time>
      </trkpt>
      <trkpt lat="42.49897" lon="0.71742">
        <ele>1003.8</ele>
        <time>2022-05-23 00:28:58</time>
      </trkpt>
      <trkpt lat="42.49891" lon="0.71744">
        <ele>1003.8</ele>
        <time>2022-05-23 00:28:59</time>
      </trkpt>
      <trkpt lat="42.49886" lon="0.71745">
        <ele>1003.8</ele>
        <time>2022-05-23 00:29:00</time>
      </trkpt>
      <trkpt lat="42.49881" lon="0.71746">
        <ele>1004</ele>
        <time>2022-05-23 00:29:01</time>
      </trkpt>
      <trkpt lat="42.49876" lon="0.71747">
        <ele>1004</ele>
        <time>2022-05-23 00:29:02</time>
      </trkpt>
      <trkpt lat="42.4987" lon="0.71749">
        <ele>1004</ele>
        <time>2022-05-23 00:29:03</time>
      </trkpt>
      <trkpt lat="42.49865" lon="0.7175">
        <ele>1004</ele>
        <time>2022-05-23 00:29:04</time>
      </trkpt>
      <trkpt lat="42.49861" lon="0.71751">
        <ele>1004</ele>
        <time>2022-05-23 00:29:05</time>
      </trkpt>
      <trkpt lat="42.49856" lon="0.71752">
        <ele>1004</ele>
        <time>2022-05-23 00:29:06</time>
      </trkpt>
      <trkpt lat="42.49851" lon="0.71753">
        <ele>1004.2</ele>
        <time>2022-05-23 00:29:07</time>
      </trkpt>
      <trkpt lat="42.49845" lon="0.71753">
        <ele>1004.2</ele>
        <time>2022-05-23 00:29:08</time>
      </trkpt>
      <trkpt lat="42.4984" lon="0.71754">
        <ele>1004.2</ele>
        <time>2022-05-23 00:29:09</time>
      </trkpt>
      <trkpt lat="42.49835" lon="0.71754">
        <ele>1004.2</ele>
        <time>2022-05-23 00:29:10</time>
      </trkpt>
      <trkpt lat="42.4983" lon="0.71754">
        <ele>1004.4</ele>
        <time>2022-05-23 00:29:11</time>
      </trkpt>
      <trkpt lat="42.49823" lon="0.71756">
        <ele>1004.4</ele>
        <time>2022-05-23 00:29:12</time>
      </trkpt>
      <trkpt lat="42.49817" lon="0.71758">
        <ele>1004.4</ele>
        <time>2022-05-23 00:29:13</time>
      </trkpt>
      <trkpt lat="42.49812" lon="0.71758">
        <ele>1004.4</ele>
        <time>2022-05-23 00:29:14</time>
      </trkpt>
      <trkpt lat="42.49807" lon="0.71758">
        <ele>1004.4</ele>
        <time>2022-05-23 00:29:15</time>
      </trkpt>
      <trkpt lat="42.49801" lon="0.71758">
        <ele>1004.4</ele>
        <time>2022-05-23 00:29:16</time>
      </trkpt>
      <trkpt lat="42.49796" lon="0.71759">
        <ele>1004.4</ele>
        <time>2022-05-23 00:29:17</time>
      </trkpt>
      <trkpt lat="42.49791" lon="0.71759">
        <ele>1004.6</ele>
        <time>2022-05-23 00:29:18</time>
      </trkpt>
      <trkpt lat="42.49785" lon="0.71759">
        <ele>1004.6</ele>
        <time>2022-05-23 00:29:19</time>
      </trkpt>
      <trkpt lat="42.4978" lon="0.71759">
        <ele>1004.6</ele>
        <time>2022-05-23 00:29:20</time>
      </trkpt>
      <trkpt lat="42.49774" lon="0.7176">
        <ele>1004.6</ele>
        <time>2022-05-23 00:29:21</time>
      </trkpt>
      <trkpt lat="42.49769" lon="0.71761">
        <ele>1004.6</ele>
        <time>2022-05-23 00:29:22</time>
      </trkpt>
      <trkpt lat="42.49764" lon="0.71761">
        <ele>1004.6</ele>
        <time>2022-05-23 00:29:23</time>
      </trkpt>
      <trkpt lat="42.49759" lon="0.71762">
        <ele>1004.6</ele>
        <time>2022-05-23 00:29:24</time>
      </trkpt>
      <trkpt lat="42.49754" lon="0.71762">
        <ele>1004.6</ele>
        <time>2022-05-23 00:29:25</time>
      </trkpt>
      <trkpt lat="42.49748" lon="0.71762">
        <ele>1004.6</ele>
        <time>2022-05-23 00:29:26</time>
      </trkpt>
      <trkpt lat="42.49743" lon="0.71762">
        <ele>1004.6</ele>
        <time>2022-05-23 00:29:27</time>
      </trkpt>
      <trkpt lat="42.49738" lon="0.71763">
        <ele>1004.6</ele>
        <time>2022-05-23 00:29:28</time>
      </trkpt>
      <trkpt lat="42.49733" lon="0.71763">
        <ele>1004.6</ele>
        <time>2022-05-23 00:29:29</time>
      </trkpt>
      <trkpt lat="42.49728" lon="0.71764">
        <ele>1004.6</ele>
        <time>2022-05-23 00:29:30</time>
      </trkpt>
      <trkpt lat="42.49723" lon="0.71764">
        <ele>1004.6</ele>
        <time>2022-05-23 00:29:31</time>
      </trkpt>
      <trkpt lat="42.49717" lon="0.71764">
        <ele>1004.6</ele>
        <time>2022-05-23 00:29:32</time>
      </trkpt>
      <trkpt lat="42.49712" lon="0.71764">
        <ele>1004.6</ele>
        <time>2022-05-23 00:29:33</time>
      </trkpt>
      <trkpt lat="42.49707" lon="0.71765">
        <ele>1004.6</ele>
        <time>2022-05-23 00:29:34</time>
      </trkpt>
      <trkpt lat="42.49701" lon="0.71765">
        <ele>1004.4</ele>
        <time>2022-05-23 00:29:35</time>
      </trkpt>
      <trkpt lat="42.49696" lon="0.71766">
        <ele>1004.4</ele>
        <time>2022-05-23 00:29:36</time>
      </trkpt>
      <trkpt lat="42.49691" lon="0.71767">
        <ele>1004.4</ele>
        <time>2022-05-23 00:29:37</time>
      </trkpt>
      <trkpt lat="42.49686" lon="0.71768">
        <ele>1004.4</ele>
        <time>2022-05-23 00:29:38</time>
      </trkpt>
      <trkpt lat="42.49681" lon="0.71768">
        <ele>1004.4</ele>
        <time>2022-05-23 00:29:39</time>
      </trkpt>
      <trkpt lat="42.49675" lon="0.71768">
        <ele>1004.2</ele>
        <time>2022-05-23 00:29:40</time>
      </trkpt>
      <trkpt lat="42.4967" lon="0.71768">
        <ele>1004.2</ele>
        <time>2022-05-23 00:29:41</time>
      </trkpt>
      <trkpt lat="42.49665" lon="0.71767">
        <ele>1004.2</ele>
        <time>2022-05-23 00:29:42</time>
      </trkpt>
      <trkpt lat="42.49659" lon="0.71767">
        <ele>1004</ele>
        <time>2022-05-23 00:29:43</time>
      </trkpt>
      <trkpt lat="42.49654" lon="0.71766">
        <ele>1004</ele>
        <time>2022-05-23 00:29:44</time>
      </trkpt>
      <trkpt lat="42.49648" lon="0.71766">
        <ele>1003.8</ele>
        <time>2022-05-23 00:29:45</time>
      </trkpt>
      <trkpt lat="42.49643" lon="0.71767">
        <ele>1003.8</ele>
        <time>2022-05-23 00:29:46</time>
      </trkpt>
      <trkpt lat="42.49638" lon="0.71767">
        <ele>1003.8</ele>
        <time>2022-05-23 00:29:47</time>
      </trkpt>
      <trkpt lat="42.49633" lon="0.71767">
        <ele>1003.6</ele>
        <time>2022-05-23 00:29:48</time>
      </trkpt>
      <trkpt lat="42.49627" lon="0.71768">
        <ele>1003.6</ele>
        <time>2022-05-23 00:29:49</time>
      </trkpt>
      <trkpt lat="42.49623" lon="0.71769">
        <ele>1003.4</ele>
        <time>2022-05-23 00:29:50</time>
      </trkpt>
      <trkpt lat="42.49618" lon="0.7177">
        <ele>1003.4</ele>
        <time>2022-05-23 00:29:51</time>
      </trkpt>
      <trkpt lat="42.49613" lon="0.71771">
        <ele>1003.4</ele>
        <time>2022-05-23 00:29:52</time>
      </trkpt>
      <trkpt lat="42.49609" lon="0.71771">
        <ele>1003.4</ele>
        <time>2022-05-23 00:29:53</time>
      </trkpt>
      <trkpt lat="42.49604" lon="0.71771">
        <ele>1003.4</ele>
        <time>2022-05-23 00:29:54</time>
      </trkpt>
      <trkpt lat="42.496" lon="0.71772">
        <ele>1003.4</ele>
        <time>2022-05-23 00:29:55</time>
      </trkpt>
      <trkpt lat="42.49596" lon="0.71773">
        <ele>1003.4</ele>
        <time>2022-05-23 00:29:56</time>
      </trkpt>
      <trkpt lat="42.49592" lon="0.71773">
        <ele>1003.4</ele>
        <time>2022-05-23 00:29:57</time>
      </trkpt>
      <trkpt lat="42.49588" lon="0.71773">
        <ele>1003.4</ele>
        <time>2022-05-23 00:29:58</time>
      </trkpt>
      <trkpt lat="42.49586" lon="0.71771">
        <ele>1003.4</ele>
        <time>2022-05-23 00:29:59</time>
      </trkpt>
      <trkpt lat="42.49585" lon="0.71769">
        <ele>1003.6</ele>
        <time>2022-05-23 00:30:00</time>
      </trkpt>
      <trkpt lat="42.49586" lon="0.71767">
        <ele>1003.4</ele>
        <time>2022-05-23 00:30:01</time>
      </trkpt>
      <trkpt lat="42.49588" lon="0.71767">
        <ele>1003.4</ele>
        <time>2022-05-23 00:30:02</time>
      </trkpt>
      <trkpt lat="42.4959" lon="0.71766">
        <ele>1003.4</ele>
        <time>2022-05-23 00:30:03</time>
      </trkpt>
      <trkpt lat="42.49592" lon="0.71766">
        <ele>1003.4</ele>
        <time>2022-05-23 00:30:04</time>
      </trkpt>
      <trkpt lat="42.49594" lon="0.71765">
        <ele>1003.4</ele>
        <time>2022-05-23 00:30:05</time>
      </trkpt>
      <trkpt lat="42.49596" lon="0.71764">
        <ele>1003.4</ele>
        <time>2022-05-23 00:30:06</time>
      </trkpt>
      <trkpt lat="42.49598" lon="0.71763">
        <ele>1003.4</ele>
        <time>2022-05-23 00:30:07</time>
      </trkpt>
      <trkpt lat="42.49598" lon="0.71763">
        <ele>1003.4</ele>
        <time>2022-05-23 00:30:08</time>
      </trkpt>
      <trkpt lat="42.49599" lon="0.71764">
        <ele>1003.4</ele>
        <time>2022-05-23 00:30:09</time>
      </trkpt>
      <trkpt lat="42.49599" lon="0.71765">
        <ele>1003.4</ele>
        <time>2022-05-23 00:30:10</time>
      </trkpt>
      <trkpt lat="42.49599" lon="0.71766">
        <ele>1003.2</ele>
        <time>2022-05-23 00:30:11</time>
      </trkpt>
      <trkpt lat="42.49599" lon="0.71766">
        <ele>1003.2</ele>
        <time>2022-05-23 00:30:12</time>
      </trkpt>
      <trkpt lat="42.49597" lon="0.71766">
        <ele>1003.2</ele>
        <time>2022-05-23 00:30:13</time>
      </trkpt>
      <trkpt lat="42.49596" lon="0.71766">
        <ele>1003.2</ele>
        <time>2022-05-23 00:30:14</time>
      </trkpt>
      <trkpt lat="42.49594" lon="0.71766">
        <ele>1003.2</ele>
        <time>2022-05-23 00:30:15</time>
      </trkpt>
      <trkpt lat="42.49592" lon="0.71766">
        <ele>1003.2</ele>
        <time>2022-05-23 00:30:16</time>
      </trkpt>
      <trkpt lat="42.49589" lon="0.71767">
        <ele>1003</ele>
        <time>2022-05-23 00:30:17</time>
      </trkpt>
      <trkpt lat="42.49586" lon="0.71768">
        <ele>1003</ele>
        <time>2022-05-23 00:30:18</time>
      </trkpt>
      <trkpt lat="42.49583" lon="0.71769">
        <ele>1003</ele>
        <time>2022-05-23 00:30:19</time>
      </trkpt>
      <trkpt lat="42.49579" lon="0.7177">
        <ele>1003</ele>
        <time>2022-05-23 00:30:20</time>
      </trkpt>
      <trkpt lat="42.49575" lon="0.7177">
        <ele>1002.8</ele>
        <time>2022-05-23 00:30:21</time>
      </trkpt>
      <trkpt lat="42.49572" lon="0.71771">
        <ele>1002.8</ele>
        <time>2022-05-23 00:30:22</time>
      </trkpt>
      <trkpt lat="42.49568" lon="0.71772">
        <ele>1002.6</ele>
        <time>2022-05-23 00:30:23</time>
      </trkpt>
      <trkpt lat="42.49564" lon="0.71773">
        <ele>1002.6</ele>
        <time>2022-05-23 00:30:24</time>
      </trkpt>
      <trkpt lat="42.49559" lon="0.71774">
        <ele>1002.4</ele>
        <time>2022-05-23 00:30:25</time>
      </trkpt>
      <trkpt lat="42.49554" lon="0.71775">
        <ele>1002.4</ele>
        <time>2022-05-23 00:30:26</time>
      </trkpt>
      <trkpt lat="42.49549" lon="0.71775">
        <ele>1002.2</ele>
        <time>2022-05-23 00:30:27</time>
      </trkpt>
      <trkpt lat="42.49544" lon="0.71776">
        <ele>1002.2</ele>
        <time>2022-05-23 00:30:28</time>
      </trkpt>
      <trkpt lat="42.49539" lon="0.71776">
        <ele>1002</ele>
        <time>2022-05-23 00:30:29</time>
      </trkpt>
      <trkpt lat="42.49534" lon="0.71776">
        <ele>1002</ele>
        <time>2022-05-23 00:30:30</time>
      </trkpt>
      <trkpt lat="42.49528" lon="0.71777">
        <ele>1002</ele>
        <time>2022-05-23 00:30:31</time>
      </trkpt>
      <trkpt lat="42.49523" lon="0.71778">
        <ele>1001.8</ele>
        <time>2022-05-23 00:30:32</time>
      </trkpt>
      <trkpt lat="42.49517" lon="0.71779">
        <ele>1001.8</ele>
        <time>2022-05-23 00:30:33</time>
      </trkpt>
      <trkpt lat="42.49511" lon="0.71779">
        <ele>1001.8</ele>
        <time>2022-05-23 00:30:34</time>
      </trkpt>
      <trkpt lat="42.49505" lon="0.71779">
        <ele>1001.6</ele>
        <time>2022-05-23 00:30:35</time>
      </trkpt>
      <trkpt lat="42.49499" lon="0.71779">
        <ele>1001.6</ele>
        <time>2022-05-23 00:30:36</time>
      </trkpt>
      <trkpt lat="42.49493" lon="0.71779">
        <ele>1001.4</ele>
        <time>2022-05-23 00:30:37</time>
      </trkpt>
      <trkpt lat="42.49486" lon="0.7178">
        <ele>1001.4</ele>
        <time>2022-05-23 00:30:38</time>
      </trkpt>
      <trkpt lat="42.4948" lon="0.7178">
        <ele>1001.4</ele>
        <time>2022-05-23 00:30:39</time>
      </trkpt>
      <trkpt lat="42.49473" lon="0.71781">
        <ele>1001.4</ele>
        <time>2022-05-23 00:30:40</time>
      </trkpt>
      <trkpt lat="42.49467" lon="0.71781">
        <ele>1001.4</ele>
        <time>2022-05-23 00:30:41</time>
      </trkpt>
      <trkpt lat="42.49463" lon="0.71782">
        <ele>1001.4</ele>
        <time>2022-05-23 00:30:42</time>
      </trkpt>
      <trkpt lat="42.4946" lon="0.71782">
        <ele>1001.6</ele>
        <time>2022-05-23 00:30:43</time>
      </trkpt>
      <trkpt lat="42.4945" lon="0.71783">
        <ele>1001.6</ele>
        <time>2022-05-23 00:30:44</time>
      </trkpt>
      <trkpt lat="42.49444" lon="0.71783">
        <ele>1001.6</ele>
        <time>2022-05-23 00:30:45</time>
      </trkpt>
      <trkpt lat="42.49438" lon="0.71784">
        <ele>1001.8</ele>
        <time>2022-05-23 00:30:46</time>
      </trkpt>
      <trkpt lat="42.49433" lon="0.71785">
        <ele>1001.8</ele>
        <time>2022-05-23 00:30:47</time>
      </trkpt>
      <trkpt lat="42.49428" lon="0.71785">
        <ele>1001.8</ele>
        <time>2022-05-23 00:30:48</time>
      </trkpt>
      <trkpt lat="42.49423" lon="0.71785">
        <ele>1001.8</ele>
        <time>2022-05-23 00:30:49</time>
      </trkpt>
      <trkpt lat="42.49417" lon="0.71786">
        <ele>1001.8</ele>
        <time>2022-05-23 00:30:50</time>
      </trkpt>
      <trkpt lat="42.49412" lon="0.71786">
        <ele>1001.8</ele>
        <time>2022-05-23 00:30:51</time>
      </trkpt>
      <trkpt lat="42.49407" lon="0.71787">
        <ele>1001.8</ele>
        <time>2022-05-23 00:30:52</time>
      </trkpt>
      <trkpt lat="42.49402" lon="0.71788">
        <ele>1001.8</ele>
        <time>2022-05-23 00:30:53</time>
      </trkpt>
      <trkpt lat="42.49397" lon="0.71789">
        <ele>1001.8</ele>
        <time>2022-05-23 00:30:54</time>
      </trkpt>
      <trkpt lat="42.49392" lon="0.7179">
        <ele>1001.8</ele>
        <time>2022-05-23 00:30:55</time>
      </trkpt>
      <trkpt lat="42.49386" lon="0.71792">
        <ele>1001.8</ele>
        <time>2022-05-23 00:30:56</time>
      </trkpt>
      <trkpt lat="42.49381" lon="0.71793">
        <ele>1001.8</ele>
        <time>2022-05-23 00:30:57</time>
      </trkpt>
      <trkpt lat="42.49376" lon="0.71795">
        <ele>1001.8</ele>
        <time>2022-05-23 00:30:58</time>
      </trkpt>
      <trkpt lat="42.49371" lon="0.71796">
        <ele>1001.8</ele>
        <time>2022-05-23 00:30:59</time>
      </trkpt>
      <trkpt lat="42.49365" lon="0.71798">
        <ele>1001.6</ele>
        <time>2022-05-23 00:31:00</time>
      </trkpt>
      <trkpt lat="42.49359" lon="0.718">
        <ele>1001.6</ele>
        <time>2022-05-23 00:31:01</time>
      </trkpt>
      <trkpt lat="42.49354" lon="0.71802">
        <ele>1001.6</ele>
        <time>2022-05-23 00:31:02</time>
      </trkpt>
      <trkpt lat="42.49349" lon="0.71804">
        <ele>1001.6</ele>
        <time>2022-05-23 00:31:03</time>
      </trkpt>
      <trkpt lat="42.49344" lon="0.71806">
        <ele>1001.4</ele>
        <time>2022-05-23 00:31:04</time>
      </trkpt>
      <trkpt lat="42.49338" lon="0.71808">
        <ele>1001.4</ele>
        <time>2022-05-23 00:31:05</time>
      </trkpt>
      <trkpt lat="42.49334" lon="0.7181">
        <ele>1001.4</ele>
        <time>2022-05-23 00:31:06</time>
      </trkpt>
      <trkpt lat="42.49328" lon="0.71812">
        <ele>1001.2</ele>
        <time>2022-05-23 00:31:07</time>
      </trkpt>
      <trkpt lat="42.49323" lon="0.71814">
        <ele>1001.2</ele>
        <time>2022-05-23 00:31:08</time>
      </trkpt>
      <trkpt lat="42.49318" lon="0.71816">
        <ele>1001.2</ele>
        <time>2022-05-23 00:31:09</time>
      </trkpt>
      <trkpt lat="42.49313" lon="0.71818">
        <ele>1001.2</ele>
        <time>2022-05-23 00:31:10</time>
      </trkpt>
      <trkpt lat="42.49308" lon="0.71819">
        <ele>1001</ele>
        <time>2022-05-23 00:31:11</time>
      </trkpt>
      <trkpt lat="42.49302" lon="0.7182">
        <ele>1001</ele>
        <time>2022-05-23 00:31:12</time>
      </trkpt>
      <trkpt lat="42.49297" lon="0.71821">
        <ele>1001</ele>
        <time>2022-05-23 00:31:13</time>
      </trkpt>
      <trkpt lat="42.49292" lon="0.71821">
        <ele>1000.8</ele>
        <time>2022-05-23 00:31:14</time>
      </trkpt>
      <trkpt lat="42.49286" lon="0.71822">
        <ele>1000.8</ele>
        <time>2022-05-23 00:31:15</time>
      </trkpt>
      <trkpt lat="42.4928" lon="0.71822">
        <ele>1000.8</ele>
        <time>2022-05-23 00:31:16</time>
      </trkpt>
      <trkpt lat="42.49275" lon="0.71823">
        <ele>1000.6</ele>
        <time>2022-05-23 00:31:17</time>
      </trkpt>
      <trkpt lat="42.49269" lon="0.71823">
        <ele>1000.6</ele>
        <time>2022-05-23 00:31:18</time>
      </trkpt>
      <trkpt lat="42.49263" lon="0.71823">
        <ele>1000.4</ele>
        <time>2022-05-23 00:31:19</time>
      </trkpt>
      <trkpt lat="42.49257" lon="0.71823">
        <ele>1000.4</ele>
        <time>2022-05-23 00:31:20</time>
      </trkpt>
      <trkpt lat="42.49251" lon="0.71823">
        <ele>1000.4</ele>
        <time>2022-05-23 00:31:21</time>
      </trkpt>
      <trkpt lat="42.49245" lon="0.71823">
        <ele>1000.2</ele>
        <time>2022-05-23 00:31:22</time>
      </trkpt>
      <trkpt lat="42.49239" lon="0.71823">
        <ele>1000.2</ele>
        <time>2022-05-23 00:31:23</time>
      </trkpt>
      <trkpt lat="42.49233" lon="0.71823">
        <ele>1000.2</ele>
        <time>2022-05-23 00:31:24</time>
      </trkpt>
      <trkpt lat="42.49227" lon="0.71823">
        <ele>1000.2</ele>
        <time>2022-05-23 00:31:25</time>
      </trkpt>
      <trkpt lat="42.49222" lon="0.71823">
        <ele>1000.2</ele>
        <time>2022-05-23 00:31:26</time>
      </trkpt>
      <trkpt lat="42.49216" lon="0.71823">
        <ele>1000.2</ele>
        <time>2022-05-23 00:31:27</time>
      </trkpt>
      <trkpt lat="42.4921" lon="0.71823">
        <ele>1000.2</ele>
        <time>2022-05-23 00:31:28</time>
      </trkpt>
      <trkpt lat="42.49204" lon="0.71823">
        <ele>1000.2</ele>
        <time>2022-05-23 00:31:29</time>
      </trkpt>
      <trkpt lat="42.49199" lon="0.71823">
        <ele>1000.2</ele>
        <time>2022-05-23 00:31:30</time>
      </trkpt>
      <trkpt lat="42.49193" lon="0.71823">
        <ele>1000.2</ele>
        <time>2022-05-23 00:31:31</time>
      </trkpt>
      <trkpt lat="42.49187" lon="0.71823">
        <ele>1000.2</ele>
        <time>2022-05-23 00:31:32</time>
      </trkpt>
      <trkpt lat="42.4918" lon="0.71823">
        <ele>1000.2</ele>
        <time>2022-05-23 00:31:33</time>
      </trkpt>
      <trkpt lat="42.49174" lon="0.71823">
        <ele>1000.2</ele>
        <time>2022-05-23 00:31:34</time>
      </trkpt>
      <trkpt lat="42.49168" lon="0.71823">
        <ele>1000.2</ele>
        <time>2022-05-23 00:31:35</time>
      </trkpt>
      <trkpt lat="42.49162" lon="0.71823">
        <ele>1000.2</ele>
        <time>2022-05-23 00:31:36</time>
      </trkpt>
      <trkpt lat="42.49156" lon="0.71823">
        <ele>1000</ele>
        <time>2022-05-23 00:31:37</time>
      </trkpt>
      <trkpt lat="42.49149" lon="0.71823">
        <ele>1000</ele>
        <time>2022-05-23 00:31:38</time>
      </trkpt>
      <trkpt lat="42.49143" lon="0.71823">
        <ele>1000</ele>
        <time>2022-05-23 00:31:39</time>
      </trkpt>
      <trkpt lat="42.49136" lon="0.71824">
        <ele>1000</ele>
        <time>2022-05-23 00:31:40</time>
      </trkpt>
      <trkpt lat="42.4913" lon="0.71824">
        <ele>1000</ele>
        <time>2022-05-23 00:31:41</time>
      </trkpt>
      <trkpt lat="42.49123" lon="0.71824">
        <ele>1000</ele>
        <time>2022-05-23 00:31:42</time>
      </trkpt>
      <trkpt lat="42.49117" lon="0.71824">
        <ele>1000</ele>
        <time>2022-05-23 00:31:43</time>
      </trkpt>
      <trkpt lat="42.49111" lon="0.71824">
        <ele>1000</ele>
        <time>2022-05-23 00:31:44</time>
      </trkpt>
      <trkpt lat="42.49105" lon="0.71824">
        <ele>1000.2</ele>
        <time>2022-05-23 00:31:45</time>
      </trkpt>
      <trkpt lat="42.49099" lon="0.71824">
        <ele>1000.2</ele>
        <time>2022-05-23 00:31:46</time>
      </trkpt>
      <trkpt lat="42.49093" lon="0.71825">
        <ele>1000.2</ele>
        <time>2022-05-23 00:31:47</time>
      </trkpt>
      <trkpt lat="42.49087" lon="0.71825">
        <ele>1000.2</ele>
        <time>2022-05-23 00:31:48</time>
      </trkpt>
      <trkpt lat="42.49081" lon="0.71826">
        <ele>1000.2</ele>
        <time>2022-05-23 00:31:49</time>
      </trkpt>
      <trkpt lat="42.49074" lon="0.71827">
        <ele>1000.2</ele>
        <time>2022-05-23 00:31:50</time>
      </trkpt>
      <trkpt lat="42.49068" lon="0.71828">
        <ele>1000.2</ele>
        <time>2022-05-23 00:31:51</time>
      </trkpt>
      <trkpt lat="42.49062" lon="0.71829">
        <ele>1000.2</ele>
        <time>2022-05-23 00:31:52</time>
      </trkpt>
      <trkpt lat="42.49056" lon="0.7183">
        <ele>1000.2</ele>
        <time>2022-05-23 00:31:53</time>
      </trkpt>
      <trkpt lat="42.4905" lon="0.71832">
        <ele>1000.2</ele>
        <time>2022-05-23 00:31:54</time>
      </trkpt>
      <trkpt lat="42.49043" lon="0.71833">
        <ele>1000.2</ele>
        <time>2022-05-23 00:31:55</time>
      </trkpt>
      <trkpt lat="42.49038" lon="0.71835">
        <ele>1000.2</ele>
        <time>2022-05-23 00:31:56</time>
      </trkpt>
      <trkpt lat="42.49032" lon="0.71836">
        <ele>1000.2</ele>
        <time>2022-05-23 00:31:57</time>
      </trkpt>
      <trkpt lat="42.49026" lon="0.71837">
        <ele>1000.2</ele>
        <time>2022-05-23 00:31:58</time>
      </trkpt>
      <trkpt lat="42.4902" lon="0.71838">
        <ele>1000.2</ele>
        <time>2022-05-23 00:31:59</time>
      </trkpt>
      <trkpt lat="42.49014" lon="0.71839">
        <ele>1000</ele>
        <time>2022-05-23 00:32:00</time>
      </trkpt>
      <trkpt lat="42.49008" lon="0.7184">
        <ele>1000</ele>
        <time>2022-05-23 00:32:01</time>
      </trkpt>
      <trkpt lat="42.49002" lon="0.71841">
        <ele>1000</ele>
        <time>2022-05-23 00:32:02</time>
      </trkpt>
      <trkpt lat="42.48996" lon="0.71843">
        <ele>1000</ele>
        <time>2022-05-23 00:32:03</time>
      </trkpt>
      <trkpt lat="42.4899" lon="0.71844">
        <ele>1000</ele>
        <time>2022-05-23 00:32:04</time>
      </trkpt>
      <trkpt lat="42.48985" lon="0.71845">
        <ele>1000</ele>
        <time>2022-05-23 00:32:05</time>
      </trkpt>
      <trkpt lat="42.48979" lon="0.71846">
        <ele>1000</ele>
        <time>2022-05-23 00:32:06</time>
      </trkpt>
      <trkpt lat="42.48973" lon="0.71847">
        <ele>1000</ele>
        <time>2022-05-23 00:32:07</time>
      </trkpt>
      <trkpt lat="42.48967" lon="0.71848">
        <ele>1000</ele>
        <time>2022-05-23 00:32:08</time>
      </trkpt>
      <trkpt lat="42.48962" lon="0.71849">
        <ele>1000</ele>
        <time>2022-05-23 00:32:09</time>
      </trkpt>
      <trkpt lat="42.48956" lon="0.71849">
        <ele>1000</ele>
        <time>2022-05-23 00:32:10</time>
      </trkpt>
      <trkpt lat="42.4895" lon="0.71849">
        <ele>1000</ele>
        <time>2022-05-23 00:32:11</time>
      </trkpt>
      <trkpt lat="42.48944" lon="0.71849">
        <ele>1000</ele>
        <time>2022-05-23 00:32:12</time>
      </trkpt>
      <trkpt lat="42.48938" lon="0.71849">
        <ele>1000</ele>
        <time>2022-05-23 00:32:13</time>
      </trkpt>
      <trkpt lat="42.48933" lon="0.7185">
        <ele>999.8</ele>
        <time>2022-05-23 00:32:14</time>
      </trkpt>
      <trkpt lat="42.48927" lon="0.7185">
        <ele>999.8</ele>
        <time>2022-05-23 00:32:15</time>
      </trkpt>
      <trkpt lat="42.4892" lon="0.71849">
        <ele>999.8</ele>
        <time>2022-05-23 00:32:16</time>
      </trkpt>
      <trkpt lat="42.48914" lon="0.71849">
        <ele>999.6</ele>
        <time>2022-05-23 00:32:17</time>
      </trkpt>
      <trkpt lat="42.48909" lon="0.71848">
        <ele>999.6</ele>
        <time>2022-05-23 00:32:18</time>
      </trkpt>
      <trkpt lat="42.48903" lon="0.71848">
        <ele>999.6</ele>
        <time>2022-05-23 00:32:19</time>
      </trkpt>
      <trkpt lat="42.48897" lon="0.71847">
        <ele>999.4</ele>
        <time>2022-05-23 00:32:20</time>
      </trkpt>
      <trkpt lat="42.4889" lon="0.71847">
        <ele>999.4</ele>
        <time>2022-05-23 00:32:21</time>
      </trkpt>
      <trkpt lat="42.48884" lon="0.71846">
        <ele>999.4</ele>
        <time>2022-05-23 00:32:22</time>
      </trkpt>
      <trkpt lat="42.48879" lon="0.71846">
        <ele>999.4</ele>
        <time>2022-05-23 00:32:23</time>
      </trkpt>
      <trkpt lat="42.48872" lon="0.71846">
        <ele>999.2</ele>
        <time>2022-05-23 00:32:24</time>
      </trkpt>
      <trkpt lat="42.48866" lon="0.71845">
        <ele>999.2</ele>
        <time>2022-05-23 00:32:25</time>
      </trkpt>
      <trkpt lat="42.4886" lon="0.71845">
        <ele>999.2</ele>
        <time>2022-05-23 00:32:26</time>
      </trkpt>
      <trkpt lat="42.48854" lon="0.71844">
        <ele>999.2</ele>
        <time>2022-05-23 00:32:27</time>
      </trkpt>
      <trkpt lat="42.48848" lon="0.71844">
        <ele>999.2</ele>
        <time>2022-05-23 00:32:28</time>
      </trkpt>
      <trkpt lat="42.48842" lon="0.71843">
        <ele>999</ele>
        <time>2022-05-23 00:32:29</time>
      </trkpt>
      <trkpt lat="42.48836" lon="0.71843">
        <ele>999</ele>
        <time>2022-05-23 00:32:30</time>
      </trkpt>
      <trkpt lat="42.4883" lon="0.71841">
        <ele>999</ele>
        <time>2022-05-23 00:32:31</time>
      </trkpt>
      <trkpt lat="42.48824" lon="0.71841">
        <ele>999</ele>
        <time>2022-05-23 00:32:32</time>
      </trkpt>
      <trkpt lat="42.48818" lon="0.7184">
        <ele>998.8</ele>
        <time>2022-05-23 00:32:33</time>
      </trkpt>
      <trkpt lat="42.48812" lon="0.71838">
        <ele>998.8</ele>
        <time>2022-05-23 00:32:34</time>
      </trkpt>
      <trkpt lat="42.48806" lon="0.71837">
        <ele>998.8</ele>
        <time>2022-05-23 00:32:35</time>
      </trkpt>
      <trkpt lat="42.488" lon="0.71835">
        <ele>998.8</ele>
        <time>2022-05-23 00:32:36</time>
      </trkpt>
      <trkpt lat="42.48794" lon="0.71833">
        <ele>998.6</ele>
        <time>2022-05-23 00:32:37</time>
      </trkpt>
      <trkpt lat="42.48788" lon="0.71831">
        <ele>998.6</ele>
        <time>2022-05-23 00:32:38</time>
      </trkpt>
      <trkpt lat="42.48782" lon="0.71829">
        <ele>998.4</ele>
        <time>2022-05-23 00:32:39</time>
      </trkpt>
      <trkpt lat="42.48776" lon="0.71827">
        <ele>998.4</ele>
        <time>2022-05-23 00:32:40</time>
      </trkpt>
      <trkpt lat="42.48771" lon="0.71825">
        <ele>998.4</ele>
        <time>2022-05-23 00:32:41</time>
      </trkpt>
      <trkpt lat="42.48764" lon="0.71823">
        <ele>998.4</ele>
        <time>2022-05-23 00:32:42</time>
      </trkpt>
      <trkpt lat="42.48758" lon="0.71822">
        <ele>998.4</ele>
        <time>2022-05-23 00:32:43</time>
      </trkpt>
      <trkpt lat="42.48753" lon="0.7182">
        <ele>998.4</ele>
        <time>2022-05-23 00:32:44</time>
      </trkpt>
      <trkpt lat="42.48747" lon="0.71818">
        <ele>998.4</ele>
        <time>2022-05-23 00:32:45</time>
      </trkpt>
      <trkpt lat="42.48741" lon="0.71816">
        <ele>998.4</ele>
        <time>2022-05-23 00:32:46</time>
      </trkpt>
      <trkpt lat="42.48736" lon="0.71814">
        <ele>998.4</ele>
        <time>2022-05-23 00:32:47</time>
      </trkpt>
      <trkpt lat="42.4873" lon="0.71811">
        <ele>998.4</ele>
        <time>2022-05-23 00:32:48</time>
      </trkpt>
      <trkpt lat="42.48724" lon="0.71809">
        <ele>998.4</ele>
        <time>2022-05-23 00:32:49</time>
      </trkpt>
      <trkpt lat="42.48718" lon="0.71807">
        <ele>998.4</ele>
        <time>2022-05-23 00:32:50</time>
      </trkpt>
      <trkpt lat="42.48713" lon="0.71806">
        <ele>998.4</ele>
        <time>2022-05-23 00:32:51</time>
      </trkpt>
      <trkpt lat="42.48707" lon="0.71805">
        <ele>998.4</ele>
        <time>2022-05-23 00:32:52</time>
      </trkpt>
      <trkpt lat="42.48701" lon="0.71804">
        <ele>998.4</ele>
        <time>2022-05-23 00:32:53</time>
      </trkpt>
      <trkpt lat="42.48695" lon="0.71801">
        <ele>998.4</ele>
        <time>2022-05-23 00:32:54</time>
      </trkpt>
      <trkpt lat="42.4869" lon="0.71799">
        <ele>998.2</ele>
        <time>2022-05-23 00:32:55</time>
      </trkpt>
      <trkpt lat="42.48684" lon="0.71797">
        <ele>998.2</ele>
        <time>2022-05-23 00:32:56</time>
      </trkpt>
      <trkpt lat="42.48679" lon="0.71795">
        <ele>998.2</ele>
        <time>2022-05-23 00:32:57</time>
      </trkpt>
      <trkpt lat="42.48673" lon="0.71793">
        <ele>998.2</ele>
        <time>2022-05-23 00:32:58</time>
      </trkpt>
      <trkpt lat="42.48667" lon="0.71791">
        <ele>998.2</ele>
        <time>2022-05-23 00:32:59</time>
      </trkpt>
      <trkpt lat="42.48662" lon="0.7179">
        <ele>998.2</ele>
        <time>2022-05-23 00:33:00</time>
      </trkpt>
      <trkpt lat="42.48656" lon="0.71788">
        <ele>998.2</ele>
        <time>2022-05-23 00:33:01</time>
      </trkpt>
      <trkpt lat="42.48651" lon="0.71786">
        <ele>998.2</ele>
        <time>2022-05-23 00:33:02</time>
      </trkpt>
      <trkpt lat="42.48646" lon="0.71784">
        <ele>998</ele>
        <time>2022-05-23 00:33:03</time>
      </trkpt>
      <trkpt lat="42.4864" lon="0.71783">
        <ele>998</ele>
        <time>2022-05-23 00:33:04</time>
      </trkpt>
      <trkpt lat="42.48635" lon="0.71781">
        <ele>998</ele>
        <time>2022-05-23 00:33:05</time>
      </trkpt>
      <trkpt lat="42.4863" lon="0.7178">
        <ele>997.8</ele>
        <time>2022-05-23 00:33:06</time>
      </trkpt>
      <trkpt lat="42.48624" lon="0.71779">
        <ele>997.8</ele>
        <time>2022-05-23 00:33:07</time>
      </trkpt>
      <trkpt lat="42.48618" lon="0.71778">
        <ele>997.8</ele>
        <time>2022-05-23 00:33:08</time>
      </trkpt>
      <trkpt lat="42.48613" lon="0.71778">
        <ele>997.8</ele>
        <time>2022-05-23 00:33:09</time>
      </trkpt>
      <trkpt lat="42.48607" lon="0.71778">
        <ele>997.8</ele>
        <time>2022-05-23 00:33:10</time>
      </trkpt>
      <trkpt lat="42.48601" lon="0.71779">
        <ele>997.8</ele>
        <time>2022-05-23 00:33:11</time>
      </trkpt>
      <trkpt lat="42.48595" lon="0.7178">
        <ele>997.8</ele>
        <time>2022-05-23 00:33:12</time>
      </trkpt>
      <trkpt lat="42.48589" lon="0.71782">
        <ele>997.6</ele>
        <time>2022-05-23 00:33:13</time>
      </trkpt>
      <trkpt lat="42.48583" lon="0.71784">
        <ele>997.4</ele>
        <time>2022-05-23 00:33:14</time>
      </trkpt>
      <trkpt lat="42.48577" lon="0.71786">
        <ele>997.4</ele>
        <time>2022-05-23 00:33:15</time>
      </trkpt>
      <trkpt lat="42.48571" lon="0.71788">
        <ele>997.2</ele>
        <time>2022-05-23 00:33:16</time>
      </trkpt>
      <trkpt lat="42.48564" lon="0.71791">
        <ele>997</ele>
        <time>2022-05-23 00:33:17</time>
      </trkpt>
      <trkpt lat="42.48558" lon="0.71794">
        <ele>996.8</ele>
        <time>2022-05-23 00:33:18</time>
      </trkpt>
      <trkpt lat="42.48551" lon="0.71797">
        <ele>996.8</ele>
        <time>2022-05-23 00:33:19</time>
      </trkpt>
      <trkpt lat="42.48545" lon="0.71799">
        <ele>996.6</ele>
        <time>2022-05-23 00:33:20</time>
      </trkpt>
      <trkpt lat="42.48539" lon="0.71801">
        <ele>996.4</ele>
        <time>2022-05-23 00:33:21</time>
      </trkpt>
      <trkpt lat="42.48532" lon="0.71804">
        <ele>996.4</ele>
        <time>2022-05-23 00:33:22</time>
      </trkpt>
      <trkpt lat="42.48526" lon="0.71807">
        <ele>996.2</ele>
        <time>2022-05-23 00:33:23</time>
      </trkpt>
      <trkpt lat="42.4852" lon="0.71809">
        <ele>996</ele>
        <time>2022-05-23 00:33:24</time>
      </trkpt>
      <trkpt lat="42.48514" lon="0.71812">
        <ele>996</ele>
        <time>2022-05-23 00:33:25</time>
      </trkpt>
      <trkpt lat="42.48508" lon="0.71815">
        <ele>995.8</ele>
        <time>2022-05-23 00:33:26</time>
      </trkpt>
      <trkpt lat="42.48502" lon="0.71817">
        <ele>995.6</ele>
        <time>2022-05-23 00:33:27</time>
      </trkpt>
      <trkpt lat="42.48496" lon="0.71819">
        <ele>995.6</ele>
        <time>2022-05-23 00:33:28</time>
      </trkpt>
      <trkpt lat="42.48489" lon="0.71822">
        <ele>995.4</ele>
        <time>2022-05-23 00:33:29</time>
      </trkpt>
      <trkpt lat="42.48484" lon="0.71824">
        <ele>995.2</ele>
        <time>2022-05-23 00:33:30</time>
      </trkpt>
      <trkpt lat="42.48478" lon="0.71826">
        <ele>995.2</ele>
        <time>2022-05-23 00:33:31</time>
      </trkpt>
      <trkpt lat="42.48471" lon="0.71829">
        <ele>995</ele>
        <time>2022-05-23 00:33:32</time>
      </trkpt>
      <trkpt lat="42.48464" lon="0.71831">
        <ele>994.8</ele>
        <time>2022-05-23 00:33:33</time>
      </trkpt>
      <trkpt lat="42.48458" lon="0.71833">
        <ele>994.8</ele>
        <time>2022-05-23 00:33:34</time>
      </trkpt>
      <trkpt lat="42.48452" lon="0.71836">
        <ele>994.6</ele>
        <time>2022-05-23 00:33:35</time>
      </trkpt>
      <trkpt lat="42.48445" lon="0.71839">
        <ele>994.4</ele>
        <time>2022-05-23 00:33:36</time>
      </trkpt>
      <trkpt lat="42.48439" lon="0.71842">
        <ele>994.2</ele>
        <time>2022-05-23 00:33:37</time>
      </trkpt>
      <trkpt lat="42.48433" lon="0.71845">
        <ele>994.2</ele>
        <time>2022-05-23 00:33:38</time>
      </trkpt>
      <trkpt lat="42.48426" lon="0.71847">
        <ele>994</ele>
        <time>2022-05-23 00:33:39</time>
      </trkpt>
      <trkpt lat="42.48419" lon="0.71849">
        <ele>993.8</ele>
        <time>2022-05-23 00:33:40</time>
      </trkpt>
      <trkpt lat="42.48412" lon="0.71852">
        <ele>993.8</ele>
        <time>2022-05-23 00:33:41</time>
      </trkpt>
      <trkpt lat="42.48406" lon="0.71855">
        <ele>993.6</ele>
        <time>2022-05-23 00:33:42</time>
      </trkpt>
      <trkpt lat="42.48398" lon="0.71858">
        <ele>993.6</ele>
        <time>2022-05-23 00:33:43</time>
      </trkpt>
      <trkpt lat="42.48391" lon="0.71861">
        <ele>993.6</ele>
        <time>2022-05-23 00:33:44</time>
      </trkpt>
      <trkpt lat="42.48383" lon="0.71864">
        <ele>993.4</ele>
        <time>2022-05-23 00:33:45</time>
      </trkpt>
      <trkpt lat="42.48376" lon="0.71868">
        <ele>993.2</ele>
        <time>2022-05-23 00:33:46</time>
      </trkpt>
      <trkpt lat="42.48368" lon="0.71871">
        <ele>992.8</ele>
        <time>2022-05-23 00:33:47</time>
      </trkpt>
      <trkpt lat="42.4836" lon="0.71874">
        <ele>992.6</ele>
        <time>2022-05-23 00:33:48</time>
      </trkpt>
      <trkpt lat="42.48353" lon="0.71877">
        <ele>992.4</ele>
        <time>2022-05-23 00:33:49</time>
      </trkpt>
      <trkpt lat="42.48345" lon="0.71881">
        <ele>992.2</ele>
        <time>2022-05-23 00:33:50</time>
      </trkpt>
      <trkpt lat="42.48338" lon="0.71884">
        <ele>991.8</ele>
        <time>2022-05-23 00:33:51</time>
      </trkpt>
      <trkpt lat="42.48329" lon="0.71886">
        <ele>991.6</ele>
        <time>2022-05-23 00:33:52</time>
      </trkpt>
      <trkpt lat="42.48321" lon="0.71888">
        <ele>991.4</ele>
        <time>2022-05-23 00:33:53</time>
      </trkpt>
      <trkpt lat="42.48312" lon="0.71889">
        <ele>991</ele>
        <time>2022-05-23 00:33:54</time>
      </trkpt>
      <trkpt lat="42.48304" lon="0.7189">
        <ele>990.6</ele>
        <time>2022-05-23 00:33:55</time>
      </trkpt>
      <trkpt lat="42.48295" lon="0.7189">
        <ele>990.4</ele>
        <time>2022-05-23 00:33:56</time>
      </trkpt>
      <trkpt lat="42.48286" lon="0.71891">
        <ele>990</ele>
        <time>2022-05-23 00:33:57</time>
      </trkpt>
      <trkpt lat="42.48278" lon="0.71891">
        <ele>989.8</ele>
        <time>2022-05-23 00:33:58</time>
      </trkpt>
      <trkpt lat="42.48269" lon="0.71891">
        <ele>989.6</ele>
        <time>2022-05-23 00:33:59</time>
      </trkpt>
      <trkpt lat="42.48261" lon="0.7189">
        <ele>989.2</ele>
        <time>2022-05-23 00:34:00</time>
      </trkpt>
      <trkpt lat="42.48253" lon="0.7189">
        <ele>989.2</ele>
        <time>2022-05-23 00:34:01</time>
      </trkpt>
      <trkpt lat="42.48245" lon="0.71889">
        <ele>989</ele>
        <time>2022-05-23 00:34:02</time>
      </trkpt>
      <trkpt lat="42.48237" lon="0.71889">
        <ele>989</ele>
        <time>2022-05-23 00:34:03</time>
      </trkpt>
      <trkpt lat="42.48229" lon="0.71888">
        <ele>988.8</ele>
        <time>2022-05-23 00:34:04</time>
      </trkpt>
      <trkpt lat="42.48222" lon="0.71888">
        <ele>988.8</ele>
        <time>2022-05-23 00:34:05</time>
      </trkpt>
      <trkpt lat="42.48214" lon="0.71888">
        <ele>988.8</ele>
        <time>2022-05-23 00:34:06</time>
      </trkpt>
      <trkpt lat="42.48207" lon="0.71887">
        <ele>988.8</ele>
        <time>2022-05-23 00:34:07</time>
      </trkpt>
      <trkpt lat="42.48199" lon="0.71886">
        <ele>988.6</ele>
        <time>2022-05-23 00:34:08</time>
      </trkpt>
      <trkpt lat="42.48192" lon="0.71885">
        <ele>988.6</ele>
        <time>2022-05-23 00:34:09</time>
      </trkpt>
      <trkpt lat="42.48186" lon="0.71885">
        <ele>988.6</ele>
        <time>2022-05-23 00:34:10</time>
      </trkpt>
      <trkpt lat="42.4818" lon="0.71884">
        <ele>988.6</ele>
        <time>2022-05-23 00:34:11</time>
      </trkpt>
      <trkpt lat="42.48173" lon="0.71884">
        <ele>988.4</ele>
        <time>2022-05-23 00:34:12</time>
      </trkpt>
      <trkpt lat="42.48167" lon="0.71884">
        <ele>988.4</ele>
        <time>2022-05-23 00:34:13</time>
      </trkpt>
      <trkpt lat="42.4816" lon="0.71884">
        <ele>988.4</ele>
        <time>2022-05-23 00:34:14</time>
      </trkpt>
      <trkpt lat="42.48153" lon="0.71884">
        <ele>988.2</ele>
        <time>2022-05-23 00:34:15</time>
      </trkpt>
      <trkpt lat="42.48146" lon="0.71884">
        <ele>988.2</ele>
        <time>2022-05-23 00:34:16</time>
      </trkpt>
      <trkpt lat="42.48139" lon="0.71883">
        <ele>988</ele>
        <time>2022-05-23 00:34:17</time>
      </trkpt>
      <trkpt lat="42.48131" lon="0.71882">
        <ele>988</ele>
        <time>2022-05-23 00:34:18</time>
      </trkpt>
      <trkpt lat="42.48124" lon="0.71882">
        <ele>988</ele>
        <time>2022-05-23 00:34:19</time>
      </trkpt>
      <trkpt lat="42.48117" lon="0.71881">
        <ele>988</ele>
        <time>2022-05-23 00:34:20</time>
      </trkpt>
      <trkpt lat="42.48109" lon="0.7188">
        <ele>987.8</ele>
        <time>2022-05-23 00:34:21</time>
      </trkpt>
      <trkpt lat="42.48102" lon="0.7188">
        <ele>987.8</ele>
        <time>2022-05-23 00:34:22</time>
      </trkpt>
      <trkpt lat="42.48094" lon="0.71879">
        <ele>987.8</ele>
        <time>2022-05-23 00:34:23</time>
      </trkpt>
      <trkpt lat="42.48087" lon="0.71878">
        <ele>987.8</ele>
        <time>2022-05-23 00:34:24</time>
      </trkpt>
      <trkpt lat="42.4808" lon="0.71877">
        <ele>987.8</ele>
        <time>2022-05-23 00:34:25</time>
      </trkpt>
      <trkpt lat="42.48073" lon="0.71876">
        <ele>988</ele>
        <time>2022-05-23 00:34:26</time>
      </trkpt>
      <trkpt lat="42.48066" lon="0.71876">
        <ele>988</ele>
        <time>2022-05-23 00:34:27</time>
      </trkpt>
      <trkpt lat="42.48059" lon="0.71875">
        <ele>988</ele>
        <time>2022-05-23 00:34:28</time>
      </trkpt>
      <trkpt lat="42.48053" lon="0.71875">
        <ele>988.2</ele>
        <time>2022-05-23 00:34:29</time>
      </trkpt>
      <trkpt lat="42.48047" lon="0.71875">
        <ele>988.2</ele>
        <time>2022-05-23 00:34:30</time>
      </trkpt>
      <trkpt lat="42.4804" lon="0.71874">
        <ele>988.2</ele>
        <time>2022-05-23 00:34:31</time>
      </trkpt>
      <trkpt lat="42.48034" lon="0.71874">
        <ele>988.2</ele>
        <time>2022-05-23 00:34:32</time>
      </trkpt>
      <trkpt lat="42.48028" lon="0.71874">
        <ele>988.4</ele>
        <time>2022-05-23 00:34:33</time>
      </trkpt>
      <trkpt lat="42.48022" lon="0.71873">
        <ele>988.4</ele>
        <time>2022-05-23 00:34:34</time>
      </trkpt>
      <trkpt lat="42.48017" lon="0.71873">
        <ele>988.4</ele>
        <time>2022-05-23 00:34:35</time>
      </trkpt>
      <trkpt lat="42.48011" lon="0.71873">
        <ele>988.4</ele>
        <time>2022-05-23 00:34:36</time>
      </trkpt>
      <trkpt lat="42.48006" lon="0.71872">
        <ele>988.4</ele>
        <time>2022-05-23 00:34:37</time>
      </trkpt>
      <trkpt lat="42.48" lon="0.71872">
        <ele>988.4</ele>
        <time>2022-05-23 00:34:38</time>
      </trkpt>
      <trkpt lat="42.47994" lon="0.71872">
        <ele>988.2</ele>
        <time>2022-05-23 00:34:39</time>
      </trkpt>
      <trkpt lat="42.47988" lon="0.71872">
        <ele>988.2</ele>
        <time>2022-05-23 00:34:40</time>
      </trkpt>
      <trkpt lat="42.47982" lon="0.71872">
        <ele>988.2</ele>
        <time>2022-05-23 00:34:41</time>
      </trkpt>
      <trkpt lat="42.47976" lon="0.71872">
        <ele>988.2</ele>
        <time>2022-05-23 00:34:42</time>
      </trkpt>
      <trkpt lat="42.4797" lon="0.71871">
        <ele>988.2</ele>
        <time>2022-05-23 00:34:43</time>
      </trkpt>
      <trkpt lat="42.47964" lon="0.7187">
        <ele>988.4</ele>
        <time>2022-05-23 00:34:44</time>
      </trkpt>
      <trkpt lat="42.47958" lon="0.7187">
        <ele>988.4</ele>
        <time>2022-05-23 00:34:45</time>
      </trkpt>
      <trkpt lat="42.47953" lon="0.71869">
        <ele>988.4</ele>
        <time>2022-05-23 00:34:46</time>
      </trkpt>
      <trkpt lat="42.47947" lon="0.71869">
        <ele>988.4</ele>
        <time>2022-05-23 00:34:47</time>
      </trkpt>
      <trkpt lat="42.47942" lon="0.71869">
        <ele>988.6</ele>
        <time>2022-05-23 00:34:48</time>
      </trkpt>
      <trkpt lat="42.47937" lon="0.71869">
        <ele>988.6</ele>
        <time>2022-05-23 00:34:49</time>
      </trkpt>
      <trkpt lat="42.47932" lon="0.71869">
        <ele>988.6</ele>
        <time>2022-05-23 00:35:22</time>
      </trkpt>
      <trkpt lat="42.47927" lon="0.71868">
        <ele>988.6</ele>
        <time>2022-05-23 00:35:23</time>
      </trkpt>
      <trkpt lat="42.47922" lon="0.71868">
        <ele>988.6</ele>
        <time>2022-05-23 00:35:24</time>
      </trkpt>
      <trkpt lat="42.47917" lon="0.71868">
        <ele>988.4</ele>
        <time>2022-05-23 00:35:25</time>
      </trkpt>
      <trkpt lat="42.47912" lon="0.71868">
        <ele>988.4</ele>
        <time>2022-05-23 00:35:26</time>
      </trkpt>
      <trkpt lat="42.47907" lon="0.71867">
        <ele>988.4</ele>
        <time>2022-05-23 00:35:27</time>
      </trkpt>
      <trkpt lat="42.47901" lon="0.71867">
        <ele>988.4</ele>
        <time>2022-05-23 00:35:28</time>
      </trkpt>
      <trkpt lat="42.47896" lon="0.71866">
        <ele>988.4</ele>
        <time>2022-05-23 00:35:29</time>
      </trkpt>
      <trkpt lat="42.47891" lon="0.71866">
        <ele>988.4</ele>
        <time>2022-05-23 00:35:30</time>
      </trkpt>
      <trkpt lat="42.47885" lon="0.71865">
        <ele>988.4</ele>
        <time>2022-05-23 00:35:31</time>
      </trkpt>
      <trkpt lat="42.4788" lon="0.71864">
        <ele>988.6</ele>
        <time>2022-05-23 00:35:32</time>
      </trkpt>
      <trkpt lat="42.47875" lon="0.71864">
        <ele>988.6</ele>
        <time>2022-05-23 00:35:33</time>
      </trkpt>
      <trkpt lat="42.4787" lon="0.71863">
        <ele>988.6</ele>
        <time>2022-05-23 00:35:34</time>
      </trkpt>
      <trkpt lat="42.47864" lon="0.71862">
        <ele>988.4</ele>
        <time>2022-05-23 00:35:35</time>
      </trkpt>
      <trkpt lat="42.47859" lon="0.71862">
        <ele>988.4</ele>
        <time>2022-05-23 00:35:36</time>
      </trkpt>
      <trkpt lat="42.47854" lon="0.71861">
        <ele>988.2</ele>
        <time>2022-05-23 00:35:37</time>
      </trkpt>
      <trkpt lat="42.47849" lon="0.71859">
        <ele>988.2</ele>
        <time>2022-05-23 00:35:38</time>
      </trkpt>
      <trkpt lat="42.47844" lon="0.71858">
        <ele>988</ele>
        <time>2022-05-23 00:35:39</time>
      </trkpt>
      <trkpt lat="42.47838" lon="0.71855">
        <ele>987.8</ele>
        <time>2022-05-23 00:35:40</time>
      </trkpt>
      <trkpt lat="42.47833" lon="0.71853">
        <ele>987.6</ele>
        <time>2022-05-23 00:35:41</time>
      </trkpt>
      <trkpt lat="42.47827" lon="0.71851">
        <ele>987.4</ele>
        <time>2022-05-23 00:35:42</time>
      </trkpt>
      <trkpt lat="42.47821" lon="0.71848">
        <ele>987.2</ele>
        <time>2022-05-23 00:35:43</time>
      </trkpt>
      <trkpt lat="42.47815" lon="0.71844">
        <ele>987</ele>
        <time>2022-05-23 00:35:44</time>
      </trkpt>
      <trkpt lat="42.47809" lon="0.7184">
        <ele>986.6</ele>
        <time>2022-05-23 00:35:45</time>
      </trkpt>
      <trkpt lat="42.47803" lon="0.71835">
        <ele>986.4</ele>
        <time>2022-05-23 00:35:46</time>
      </trkpt>
      <trkpt lat="42.47797" lon="0.71831">
        <ele>986</ele>
        <time>2022-05-23 00:35:47</time>
      </trkpt>
      <trkpt lat="42.47791" lon="0.71828">
        <ele>985.8</ele>
        <time>2022-05-23 00:35:48</time>
      </trkpt>
      <trkpt lat="42.47785" lon="0.71824">
        <ele>985.6</ele>
        <time>2022-05-23 00:35:49</time>
      </trkpt>
      <trkpt lat="42.47778" lon="0.7182">
        <ele>985.4</ele>
        <time>2022-05-23 00:35:50</time>
      </trkpt>
      <trkpt lat="42.47772" lon="0.71816">
        <ele>985.2</ele>
        <time>2022-05-23 00:35:51</time>
      </trkpt>
      <trkpt lat="42.47766" lon="0.71811">
        <ele>985</ele>
        <time>2022-05-23 00:35:52</time>
      </trkpt>
      <trkpt lat="42.47759" lon="0.71807">
        <ele>984.8</ele>
        <time>2022-05-23 00:35:53</time>
      </trkpt>
      <trkpt lat="42.47753" lon="0.71802">
        <ele>984.4</ele>
        <time>2022-05-23 00:35:54</time>
      </trkpt>
      <trkpt lat="42.47746" lon="0.71798">
        <ele>984.2</ele>
        <time>2022-05-23 00:35:55</time>
      </trkpt>
      <trkpt lat="42.47739" lon="0.71794">
        <ele>983.8</ele>
        <time>2022-05-23 00:35:56</time>
      </trkpt>
      <trkpt lat="42.47732" lon="0.71791">
        <ele>983.6</ele>
        <time>2022-05-23 00:35:57</time>
      </trkpt>
      <trkpt lat="42.47726" lon="0.71787">
        <ele>983.4</ele>
        <time>2022-05-23 00:35:58</time>
      </trkpt>
      <trkpt lat="42.47719" lon="0.71783">
        <ele>983.2</ele>
        <time>2022-05-23 00:35:59</time>
      </trkpt>
      <trkpt lat="42.47712" lon="0.71778">
        <ele>983</ele>
        <time>2022-05-23 00:36:00</time>
      </trkpt>
      <trkpt lat="42.47705" lon="0.71774">
        <ele>982.8</ele>
        <time>2022-05-23 00:36:01</time>
      </trkpt>
      <trkpt lat="42.47699" lon="0.7177">
        <ele>982.6</ele>
        <time>2022-05-23 00:36:02</time>
      </trkpt>
      <trkpt lat="42.47692" lon="0.71766">
        <ele>982.4</ele>
        <time>2022-05-23 00:36:03</time>
      </trkpt>
      <trkpt lat="42.47685" lon="0.71762">
        <ele>982.2</ele>
        <time>2022-05-23 00:36:04</time>
      </trkpt>
      <trkpt lat="42.47678" lon="0.71757">
        <ele>981.8</ele>
        <time>2022-05-23 00:36:05</time>
      </trkpt>
      <trkpt lat="42.47671" lon="0.71753">
        <ele>981.6</ele>
        <time>2022-05-23 00:36:06</time>
      </trkpt>
      <trkpt lat="42.47664" lon="0.71749">
        <ele>981.4</ele>
        <time>2022-05-23 00:36:07</time>
      </trkpt>
      <trkpt lat="42.47657" lon="0.71745">
        <ele>981.2</ele>
        <time>2022-05-23 00:36:08</time>
      </trkpt>
      <trkpt lat="42.47651" lon="0.7174">
        <ele>981</ele>
        <time>2022-05-23 00:36:09</time>
      </trkpt>
      <trkpt lat="42.47644" lon="0.71735">
        <ele>980.6</ele>
        <time>2022-05-23 00:36:10</time>
      </trkpt>
      <trkpt lat="42.47637" lon="0.71731">
        <ele>980.4</ele>
        <time>2022-05-23 00:36:11</time>
      </trkpt>
      <trkpt lat="42.4763" lon="0.71726">
        <ele>980.2</ele>
        <time>2022-05-23 00:36:12</time>
      </trkpt>
      <trkpt lat="42.47623" lon="0.71723">
        <ele>980</ele>
        <time>2022-05-23 00:36:13</time>
      </trkpt>
      <trkpt lat="42.47616" lon="0.7172">
        <ele>979.8</ele>
        <time>2022-05-23 00:36:14</time>
      </trkpt>
      <trkpt lat="42.4761" lon="0.71717">
        <ele>979.6</ele>
        <time>2022-05-23 00:36:15</time>
      </trkpt>
      <trkpt lat="42.47605" lon="0.71715">
        <ele>979.4</ele>
        <time>2022-05-23 00:36:16</time>
      </trkpt>
      <trkpt lat="42.47599" lon="0.71713">
        <ele>979.4</ele>
        <time>2022-05-23 00:36:17</time>
      </trkpt>
      <trkpt lat="42.47594" lon="0.71711">
        <ele>979.2</ele>
        <time>2022-05-23 00:36:18</time>
      </trkpt>
      <trkpt lat="42.47589" lon="0.71708">
        <ele>979</ele>
        <time>2022-05-23 00:36:19</time>
      </trkpt>
      <trkpt lat="42.47583" lon="0.71705">
        <ele>978.8</ele>
        <time>2022-05-23 00:36:20</time>
      </trkpt>
      <trkpt lat="42.47577" lon="0.71703">
        <ele>978.6</ele>
        <time>2022-05-23 00:36:21</time>
      </trkpt>
      <trkpt lat="42.47572" lon="0.717">
        <ele>978.4</ele>
        <time>2022-05-23 00:36:22</time>
      </trkpt>
      <trkpt lat="42.47566" lon="0.71698">
        <ele>978.2</ele>
        <time>2022-05-23 00:36:23</time>
      </trkpt>
      <trkpt lat="42.4756" lon="0.71696">
        <ele>978</ele>
        <time>2022-05-23 00:36:24</time>
      </trkpt>
      <trkpt lat="42.47555" lon="0.71694">
        <ele>977.8</ele>
        <time>2022-05-23 00:36:25</time>
      </trkpt>
      <trkpt lat="42.47549" lon="0.71691">
        <ele>977.6</ele>
        <time>2022-05-23 00:36:26</time>
      </trkpt>
      <trkpt lat="42.47544" lon="0.71689">
        <ele>977.4</ele>
        <time>2022-05-23 00:36:27</time>
      </trkpt>
      <trkpt lat="42.47539" lon="0.71687">
        <ele>977.2</ele>
        <time>2022-05-23 00:36:28</time>
      </trkpt>
      <trkpt lat="42.47533" lon="0.71685">
        <ele>977</ele>
        <time>2022-05-23 00:36:29</time>
      </trkpt>
      <trkpt lat="42.47527" lon="0.71682">
        <ele>976.8</ele>
        <time>2022-05-23 00:36:30</time>
      </trkpt>
      <trkpt lat="42.47522" lon="0.71679">
        <ele>976.6</ele>
        <time>2022-05-23 00:36:31</time>
      </trkpt>
      <trkpt lat="42.47517" lon="0.71677">
        <ele>976.4</ele>
        <time>2022-05-23 00:36:32</time>
      </trkpt>
      <trkpt lat="42.4751" lon="0.71675">
        <ele>976</ele>
        <time>2022-05-23 00:36:33</time>
      </trkpt>
      <trkpt lat="42.47504" lon="0.71673">
        <ele>975.8</ele>
        <time>2022-05-23 00:36:34</time>
      </trkpt>
      <trkpt lat="42.47498" lon="0.71671">
        <ele>975.6</ele>
        <time>2022-05-23 00:36:35</time>
      </trkpt>
      <trkpt lat="42.47491" lon="0.71668">
        <ele>975.4</ele>
        <time>2022-05-23 00:36:36</time>
      </trkpt>
      <trkpt lat="42.47485" lon="0.71665">
        <ele>975</ele>
        <time>2022-05-23 00:36:37</time>
      </trkpt>
      <trkpt lat="42.47478" lon="0.71663">
        <ele>974.8</ele>
        <time>2022-05-23 00:36:38</time>
      </trkpt>
      <trkpt lat="42.47471" lon="0.7166">
        <ele>974.6</ele>
        <time>2022-05-23 00:36:39</time>
      </trkpt>
      <trkpt lat="42.47465" lon="0.71657">
        <ele>974.4</ele>
        <time>2022-05-23 00:36:40</time>
      </trkpt>
      <trkpt lat="42.4746" lon="0.71655">
        <ele>974.2</ele>
        <time>2022-05-23 00:36:41</time>
      </trkpt>
      <trkpt lat="42.47456" lon="0.71653">
        <ele>974.2</ele>
        <time>2022-05-23 00:36:42</time>
      </trkpt>
      <trkpt lat="42.47452" lon="0.71651">
        <ele>974</ele>
        <time>2022-05-23 00:36:43</time>
      </trkpt>
      <trkpt lat="42.47447" lon="0.7165">
        <ele>973.8</ele>
        <time>2022-05-23 00:36:44</time>
      </trkpt>
      <trkpt lat="42.47443" lon="0.71648">
        <ele>973.8</ele>
        <time>2022-05-23 00:36:45</time>
      </trkpt>
      <trkpt lat="42.47439" lon="0.71646">
        <ele>973.8</ele>
        <time>2022-05-23 00:36:46</time>
      </trkpt>
      <trkpt lat="42.47434" lon="0.71644">
        <ele>973.6</ele>
        <time>2022-05-23 00:36:47</time>
      </trkpt>
      <trkpt lat="42.4743" lon="0.71642">
        <ele>973.4</ele>
        <time>2022-05-23 00:36:48</time>
      </trkpt>
      <trkpt lat="42.47425" lon="0.7164">
        <ele>973.4</ele>
        <time>2022-05-23 00:36:49</time>
      </trkpt>
      <trkpt lat="42.47421" lon="0.71638">
        <ele>973.2</ele>
        <time>2022-05-23 00:36:50</time>
      </trkpt>
      <trkpt lat="42.47416" lon="0.71636">
        <ele>973.2</ele>
        <time>2022-05-23 00:36:51</time>
      </trkpt>
      <trkpt lat="42.47411" lon="0.71635">
        <ele>973.2</ele>
        <time>2022-05-23 00:36:52</time>
      </trkpt>
      <trkpt lat="42.47407" lon="0.71633">
        <ele>973</ele>
        <time>2022-05-23 00:36:53</time>
      </trkpt>
      <trkpt lat="42.47402" lon="0.71631">
        <ele>973</ele>
        <time>2022-05-23 00:36:54</time>
      </trkpt>
      <trkpt lat="42.47398" lon="0.71629">
        <ele>973</ele>
        <time>2022-05-23 00:36:55</time>
      </trkpt>
      <trkpt lat="42.47395" lon="0.71628">
        <ele>973</ele>
        <time>2022-05-23 00:36:56</time>
      </trkpt>
      <trkpt lat="42.4739" lon="0.71625">
        <ele>972.8</ele>
        <time>2022-05-23 00:36:57</time>
      </trkpt>
      <trkpt lat="42.47385" lon="0.71623">
        <ele>972.8</ele>
        <time>2022-05-23 00:36:58</time>
      </trkpt>
      <trkpt lat="42.4738" lon="0.71621">
        <ele>972.8</ele>
        <time>2022-05-23 00:36:59</time>
      </trkpt>
      <trkpt lat="42.47375" lon="0.71619">
        <ele>973</ele>
        <time>2022-05-23 00:37:00</time>
      </trkpt>
      <trkpt lat="42.47371" lon="0.71617">
        <ele>973</ele>
        <time>2022-05-23 00:37:01</time>
      </trkpt>
      <trkpt lat="42.47367" lon="0.71616">
        <ele>973</ele>
        <time>2022-05-23 00:37:02</time>
      </trkpt>
      <trkpt lat="42.47363" lon="0.71614">
        <ele>973.2</ele>
        <time>2022-05-23 00:37:03</time>
      </trkpt>
      <trkpt lat="42.4736" lon="0.71613">
        <ele>973.2</ele>
        <time>2022-05-23 00:37:04</time>
      </trkpt>
      <trkpt lat="42.47356" lon="0.71612">
        <ele>973.4</ele>
        <time>2022-05-23 00:37:05</time>
      </trkpt>
      <trkpt lat="42.47353" lon="0.71611">
        <ele>973.4</ele>
        <time>2022-05-23 00:37:06</time>
      </trkpt>
      <trkpt lat="42.4735" lon="0.7161">
        <ele>973.6</ele>
        <time>2022-05-23 00:37:07</time>
      </trkpt>
      <trkpt lat="42.47347" lon="0.71609">
        <ele>973.6</ele>
        <time>2022-05-23 00:37:08</time>
      </trkpt>
      <trkpt lat="42.47344" lon="0.71608">
        <ele>973.8</ele>
        <time>2022-05-23 00:37:09</time>
      </trkpt>
      <trkpt lat="42.47342" lon="0.71607">
        <ele>973.8</ele>
        <time>2022-05-23 00:37:10</time>
      </trkpt>
      <trkpt lat="42.47339" lon="0.71606">
        <ele>973.8</ele>
        <time>2022-05-23 00:37:11</time>
      </trkpt>
      <trkpt lat="42.47337" lon="0.71605">
        <ele>974</ele>
        <time>2022-05-23 00:37:12</time>
      </trkpt>
      <trkpt lat="42.47335" lon="0.71604">
        <ele>974</ele>
        <time>2022-05-23 00:37:13</time>
      </trkpt>
      <trkpt lat="42.47332" lon="0.71602">
        <ele>974</ele>
        <time>2022-05-23 00:37:14</time>
      </trkpt>
      <trkpt lat="42.47329" lon="0.71601">
        <ele>974</ele>
        <time>2022-05-23 00:37:15</time>
      </trkpt>
      <trkpt lat="42.47326" lon="0.71601">
        <ele>974</ele>
        <time>2022-05-23 00:37:16</time>
      </trkpt>
      <trkpt lat="42.47322" lon="0.716">
        <ele>974</ele>
        <time>2022-05-23 00:37:17</time>
      </trkpt>
      <trkpt lat="42.47319" lon="0.71599">
        <ele>974</ele>
        <time>2022-05-23 00:37:18</time>
      </trkpt>
      <trkpt lat="42.47315" lon="0.71598">
        <ele>974</ele>
        <time>2022-05-23 00:37:19</time>
      </trkpt>
      <trkpt lat="42.47312" lon="0.71597">
        <ele>974.2</ele>
        <time>2022-05-23 00:37:20</time>
      </trkpt>
      <trkpt lat="42.47308" lon="0.71596">
        <ele>974.2</ele>
        <time>2022-05-23 00:37:21</time>
      </trkpt>
      <trkpt lat="42.47304" lon="0.71596">
        <ele>974.2</ele>
        <time>2022-05-23 00:37:22</time>
      </trkpt>
      <trkpt lat="42.473" lon="0.71595">
        <ele>974.2</ele>
        <time>2022-05-23 00:37:23</time>
      </trkpt>
      <trkpt lat="42.47297" lon="0.71594">
        <ele>974.4</ele>
        <time>2022-05-23 00:37:24</time>
      </trkpt>
      <trkpt lat="42.47293" lon="0.71594">
        <ele>974.4</ele>
        <time>2022-05-23 00:37:25</time>
      </trkpt>
      <trkpt lat="42.4729" lon="0.71593">
        <ele>974.6</ele>
        <time>2022-05-23 00:37:26</time>
      </trkpt>
      <trkpt lat="42.47287" lon="0.71592">
        <ele>974.6</ele>
        <time>2022-05-23 00:37:27</time>
      </trkpt>
      <trkpt lat="42.47284" lon="0.71592">
        <ele>974.8</ele>
        <time>2022-05-23 00:37:28</time>
      </trkpt>
      <trkpt lat="42.47281" lon="0.71592">
        <ele>974.8</ele>
        <time>2022-05-23 00:37:29</time>
      </trkpt>
      <trkpt lat="42.47278" lon="0.71592">
        <ele>975</ele>
        <time>2022-05-23 00:37:30</time>
      </trkpt>
      <trkpt lat="42.47276" lon="0.71591">
        <ele>975.2</ele>
        <time>2022-05-23 00:37:31</time>
      </trkpt>
      <trkpt lat="42.47273" lon="0.71591">
        <ele>975.4</ele>
        <time>2022-05-23 00:37:32</time>
      </trkpt>
      <trkpt lat="42.47271" lon="0.71591">
        <ele>975.4</ele>
        <time>2022-05-23 00:37:33</time>
      </trkpt>
      <trkpt lat="42.47268" lon="0.71591">
        <ele>975.6</ele>
        <time>2022-05-23 00:37:34</time>
      </trkpt>
      <trkpt lat="42.47266" lon="0.71591">
        <ele>975.6</ele>
        <time>2022-05-23 00:37:35</time>
      </trkpt>
      <trkpt lat="42.47264" lon="0.71592">
        <ele>975.8</ele>
        <time>2022-05-23 00:37:36</time>
      </trkpt>
      <trkpt lat="42.47262" lon="0.71591">
        <ele>975.8</ele>
        <time>2022-05-23 00:37:37</time>
      </trkpt>
      <trkpt lat="42.4726" lon="0.71591">
        <ele>976</ele>
        <time>2022-05-23 00:37:38</time>
      </trkpt>
      <trkpt lat="42.47257" lon="0.71591">
        <ele>976</ele>
        <time>2022-05-23 00:37:39</time>
      </trkpt>
      <trkpt lat="42.47255" lon="0.71592">
        <ele>976.2</ele>
        <time>2022-05-23 00:37:40</time>
      </trkpt>
      <trkpt lat="42.47254" lon="0.71592">
        <ele>976.4</ele>
        <time>2022-05-23 00:37:41</time>
      </trkpt>
      <trkpt lat="42.47251" lon="0.71592">
        <ele>976.4</ele>
        <time>2022-05-23 00:37:42</time>
      </trkpt>
      <trkpt lat="42.47249" lon="0.71592">
        <ele>976.6</ele>
        <time>2022-05-23 00:37:43</time>
      </trkpt>
      <trkpt lat="42.47247" lon="0.71592">
        <ele>976.6</ele>
        <time>2022-05-23 00:37:44</time>
      </trkpt>
      <trkpt lat="42.47245" lon="0.71592">
        <ele>976.8</ele>
        <time>2022-05-23 00:37:45</time>
      </trkpt>
      <trkpt lat="42.47243" lon="0.71592">
        <ele>977</ele>
        <time>2022-05-23 00:37:46</time>
      </trkpt>
      <trkpt lat="42.47241" lon="0.71592">
        <ele>977</ele>
        <time>2022-05-23 00:37:47</time>
      </trkpt>
      <trkpt lat="42.47239" lon="0.71592">
        <ele>977</ele>
        <time>2022-05-23 00:37:48</time>
      </trkpt>
      <trkpt lat="42.47237" lon="0.71591">
        <ele>977.2</ele>
        <time>2022-05-23 00:37:49</time>
      </trkpt>
      <trkpt lat="42.47235" lon="0.7159">
        <ele>977.2</ele>
        <time>2022-05-23 00:37:50</time>
      </trkpt>
      <trkpt lat="42.47233" lon="0.7159">
        <ele>977.4</ele>
        <time>2022-05-23 00:37:51</time>
      </trkpt>
      <trkpt lat="42.47231" lon="0.71589">
        <ele>977.6</ele>
        <time>2022-05-23 00:37:52</time>
      </trkpt>
      <trkpt lat="42.47229" lon="0.71589">
        <ele>977.8</ele>
        <time>2022-05-23 00:37:53</time>
      </trkpt>
      <trkpt lat="42.47227" lon="0.71589">
        <ele>977.8</ele>
        <time>2022-05-23 00:37:54</time>
      </trkpt>
      <trkpt lat="42.47225" lon="0.7159">
        <ele>978</ele>
        <time>2022-05-23 00:37:55</time>
      </trkpt>
      <trkpt lat="42.47223" lon="0.7159">
        <ele>978</ele>
        <time>2022-05-23 00:37:56</time>
      </trkpt>
      <trkpt lat="42.47221" lon="0.7159">
        <ele>978.2</ele>
        <time>2022-05-23 00:37:57</time>
      </trkpt>
      <trkpt lat="42.47219" lon="0.7159">
        <ele>978.4</ele>
        <time>2022-05-23 00:37:58</time>
      </trkpt>
      <trkpt lat="42.47217" lon="0.7159">
        <ele>978.4</ele>
        <time>2022-05-23 00:37:59</time>
      </trkpt>
      <trkpt lat="42.47215" lon="0.7159">
        <ele>978.4</ele>
        <time>2022-05-23 00:38:00</time>
      </trkpt>
      <trkpt lat="42.47212" lon="0.71589">
        <ele>978.6</ele>
        <time>2022-05-23 00:38:01</time>
      </trkpt>
      <trkpt lat="42.4721" lon="0.71589">
        <ele>978.6</ele>
        <time>2022-05-23 00:38:02</time>
      </trkpt>
      <trkpt lat="42.47208" lon="0.71589">
        <ele>978.8</ele>
        <time>2022-05-23 00:38:03</time>
      </trkpt>
      <trkpt lat="42.47206" lon="0.71588">
        <ele>978.8</ele>
        <time>2022-05-23 00:38:04</time>
      </trkpt>
      <trkpt lat="42.47204" lon="0.71588">
        <ele>979</ele>
        <time>2022-05-23 00:38:05</time>
      </trkpt>
      <trkpt lat="42.47202" lon="0.71587">
        <ele>979</ele>
        <time>2022-05-23 00:38:06</time>
      </trkpt>
      <trkpt lat="42.472" lon="0.71587">
        <ele>979.2</ele>
        <time>2022-05-23 00:38:07</time>
      </trkpt>
      <trkpt lat="42.47198" lon="0.71587">
        <ele>979.2</ele>
        <time>2022-05-23 00:38:08</time>
      </trkpt>
      <trkpt lat="42.47196" lon="0.71586">
        <ele>979.4</ele>
        <time>2022-05-23 00:38:09</time>
      </trkpt>
      <trkpt lat="42.47194" lon="0.71586">
        <ele>979.6</ele>
        <time>2022-05-23 00:38:10</time>
      </trkpt>
      <trkpt lat="42.47192" lon="0.71586">
        <ele>979.6</ele>
        <time>2022-05-23 00:38:11</time>
      </trkpt>
      <trkpt lat="42.4719" lon="0.71586">
        <ele>979.6</ele>
        <time>2022-05-23 00:38:12</time>
      </trkpt>
      <trkpt lat="42.47188" lon="0.71586">
        <ele>979.8</ele>
        <time>2022-05-23 00:38:13</time>
      </trkpt>
      <trkpt lat="42.47186" lon="0.71586">
        <ele>979.8</ele>
        <time>2022-05-23 00:38:14</time>
      </trkpt>
      <trkpt lat="42.47184" lon="0.71586">
        <ele>980</ele>
        <time>2022-05-23 00:38:15</time>
      </trkpt>
      <trkpt lat="42.47182" lon="0.71585">
        <ele>980.2</ele>
        <time>2022-05-23 00:38:16</time>
      </trkpt>
      <trkpt lat="42.4718" lon="0.71585">
        <ele>980.2</ele>
        <time>2022-05-23 00:38:17</time>
      </trkpt>
      <trkpt lat="42.47178" lon="0.71584">
        <ele>980.2</ele>
        <time>2022-05-23 00:38:18</time>
      </trkpt>
      <trkpt lat="42.47175" lon="0.71584">
        <ele>980.4</ele>
        <time>2022-05-23 00:38:19</time>
      </trkpt>
      <trkpt lat="42.47173" lon="0.71583">
        <ele>980.4</ele>
        <time>2022-05-23 00:38:20</time>
      </trkpt>
      <trkpt lat="42.47171" lon="0.71582">
        <ele>980.4</ele>
        <time>2022-05-23 00:38:21</time>
      </trkpt>
      <trkpt lat="42.47169" lon="0.71582">
        <ele>980.6</ele>
        <time>2022-05-23 00:38:22</time>
      </trkpt>
      <trkpt lat="42.47167" lon="0.71582">
        <ele>980.6</ele>
        <time>2022-05-23 00:38:23</time>
      </trkpt>
      <trkpt lat="42.47165" lon="0.71582">
        <ele>980.8</ele>
        <time>2022-05-23 00:38:24</time>
      </trkpt>
      <trkpt lat="42.47163" lon="0.71581">
        <ele>980.8</ele>
        <time>2022-05-23 00:38:25</time>
      </trkpt>
      <trkpt lat="42.47162" lon="0.71581">
        <ele>981</ele>
        <time>2022-05-23 00:38:26</time>
      </trkpt>
      <trkpt lat="42.47159" lon="0.71581">
        <ele>981</ele>
        <time>2022-05-23 00:38:27</time>
      </trkpt>
      <trkpt lat="42.47157" lon="0.71581">
        <ele>981.2</ele>
        <time>2022-05-23 00:38:28</time>
      </trkpt>
      <trkpt lat="42.47155" lon="0.71581">
        <ele>981.2</ele>
        <time>2022-05-23 00:38:29</time>
      </trkpt>
      <trkpt lat="42.47153" lon="0.71581">
        <ele>981.4</ele>
        <time>2022-05-23 00:38:30</time>
      </trkpt>
      <trkpt lat="42.47151" lon="0.71581">
        <ele>981.4</ele>
        <time>2022-05-23 00:38:31</time>
      </trkpt>
      <trkpt lat="42.47149" lon="0.71581">
        <ele>981.6</ele>
        <time>2022-05-23 00:38:32</time>
      </trkpt>
      <trkpt lat="42.47147" lon="0.71581">
        <ele>981.6</ele>
        <time>2022-05-23 00:38:33</time>
      </trkpt>
      <trkpt lat="42.47145" lon="0.71581">
        <ele>981.8</ele>
        <time>2022-05-23 00:38:34</time>
      </trkpt>
      <trkpt lat="42.47143" lon="0.71581">
        <ele>981.8</ele>
        <time>2022-05-23 00:38:35</time>
      </trkpt>
      <trkpt lat="42.47141" lon="0.7158">
        <ele>982</ele>
        <time>2022-05-23 00:38:36</time>
      </trkpt>
      <trkpt lat="42.47139" lon="0.71581">
        <ele>982</ele>
        <time>2022-05-23 00:38:37</time>
      </trkpt>
      <trkpt lat="42.47138" lon="0.71581">
        <ele>982.2</ele>
        <time>2022-05-23 00:38:38</time>
      </trkpt>
      <trkpt lat="42.47136" lon="0.71581">
        <ele>982.2</ele>
        <time>2022-05-23 00:38:39</time>
      </trkpt>
      <trkpt lat="42.47134" lon="0.71581">
        <ele>982.4</ele>
        <time>2022-05-23 00:38:40</time>
      </trkpt>
      <trkpt lat="42.47132" lon="0.71581">
        <ele>982.4</ele>
        <time>2022-05-23 00:38:41</time>
      </trkpt>
      <trkpt lat="42.4713" lon="0.71582">
        <ele>982.4</ele>
        <time>2022-05-23 00:38:42</time>
      </trkpt>
      <trkpt lat="42.47128" lon="0.71582">
        <ele>982.6</ele>
        <time>2022-05-23 00:38:43</time>
      </trkpt>
      <trkpt lat="42.47126" lon="0.71581">
        <ele>982.6</ele>
        <time>2022-05-23 00:38:44</time>
      </trkpt>
      <trkpt lat="42.47124" lon="0.71581">
        <ele>982.8</ele>
        <time>2022-05-23 00:38:45</time>
      </trkpt>
      <trkpt lat="42.47122" lon="0.71581">
        <ele>982.8</ele>
        <time>2022-05-23 00:38:46</time>
      </trkpt>
      <trkpt lat="42.4712" lon="0.71581">
        <ele>982.8</ele>
        <time>2022-05-23 00:38:47</time>
      </trkpt>
      <trkpt lat="42.47118" lon="0.71582">
        <ele>983</ele>
        <time>2022-05-23 00:38:48</time>
      </trkpt>
      <trkpt lat="42.47117" lon="0.71582">
        <ele>983</ele>
        <time>2022-05-23 00:38:49</time>
      </trkpt>
      <trkpt lat="42.47115" lon="0.71582">
        <ele>983.2</ele>
        <time>2022-05-23 00:38:50</time>
      </trkpt>
      <trkpt lat="42.47114" lon="0.71582">
        <ele>983.2</ele>
        <time>2022-05-23 00:38:51</time>
      </trkpt>
      <trkpt lat="42.47112" lon="0.71582">
        <ele>983.4</ele>
        <time>2022-05-23 00:38:52</time>
      </trkpt>
      <trkpt lat="42.4711" lon="0.71581">
        <ele>983.4</ele>
        <time>2022-05-23 00:38:53</time>
      </trkpt>
      <trkpt lat="42.47108" lon="0.71581">
        <ele>983.6</ele>
        <time>2022-05-23 00:38:54</time>
      </trkpt>
      <trkpt lat="42.47107" lon="0.71581">
        <ele>983.6</ele>
        <time>2022-05-23 00:38:55</time>
      </trkpt>
      <trkpt lat="42.47105" lon="0.71581">
        <ele>983.8</ele>
        <time>2022-05-23 00:38:56</time>
      </trkpt>
      <trkpt lat="42.47103" lon="0.71581">
        <ele>983.8</ele>
        <time>2022-05-23 00:38:57</time>
      </trkpt>
      <trkpt lat="42.47102" lon="0.71581">
        <ele>983.8</ele>
        <time>2022-05-23 00:38:58</time>
      </trkpt>
      <trkpt lat="42.471" lon="0.71581">
        <ele>984</ele>
        <time>2022-05-23 00:38:59</time>
      </trkpt>
      <trkpt lat="42.47098" lon="0.71581">
        <ele>984</ele>
        <time>2022-05-23 00:39:00</time>
      </trkpt>
      <trkpt lat="42.47096" lon="0.71581">
        <ele>984.2</ele>
        <time>2022-05-23 00:39:01</time>
      </trkpt>
      <trkpt lat="42.47094" lon="0.71581">
        <ele>984.2</ele>
        <time>2022-05-23 00:39:02</time>
      </trkpt>
      <trkpt lat="42.47092" lon="0.7158">
        <ele>984.4</ele>
        <time>2022-05-23 00:39:03</time>
      </trkpt>
      <trkpt lat="42.4709" lon="0.7158">
        <ele>984.6</ele>
        <time>2022-05-23 00:39:04</time>
      </trkpt>
      <trkpt lat="42.47088" lon="0.71579">
        <ele>984.6</ele>
        <time>2022-05-23 00:39:05</time>
      </trkpt>
      <trkpt lat="42.47086" lon="0.71579">
        <ele>984.8</ele>
        <time>2022-05-23 00:39:06</time>
      </trkpt>
      <trkpt lat="42.47084" lon="0.71579">
        <ele>985</ele>
        <time>2022-05-23 00:39:07</time>
      </trkpt>
      <trkpt lat="42.47082" lon="0.71578">
        <ele>985</ele>
        <time>2022-05-23 00:39:08</time>
      </trkpt>
      <trkpt lat="42.4708" lon="0.71578">
        <ele>985.2</ele>
        <time>2022-05-23 00:39:09</time>
      </trkpt>
      <trkpt lat="42.47077" lon="0.71578">
        <ele>985.2</ele>
        <time>2022-05-23 00:39:10</time>
      </trkpt>
      <trkpt lat="42.47075" lon="0.71578">
        <ele>985.4</ele>
        <time>2022-05-23 00:39:11</time>
      </trkpt>
      <trkpt lat="42.47073" lon="0.71578">
        <ele>985.4</ele>
        <time>2022-05-23 00:39:12</time>
      </trkpt>
      <trkpt lat="42.47072" lon="0.71578">
        <ele>985.6</ele>
        <time>2022-05-23 00:39:13</time>
      </trkpt>
      <trkpt lat="42.4707" lon="0.71577">
        <ele>985.6</ele>
        <time>2022-05-23 00:39:14</time>
      </trkpt>
      <trkpt lat="42.47067" lon="0.71577">
        <ele>985.8</ele>
        <time>2022-05-23 00:39:15</time>
      </trkpt>
      <trkpt lat="42.47065" lon="0.71576">
        <ele>985.8</ele>
        <time>2022-05-23 00:39:16</time>
      </trkpt>
      <trkpt lat="42.47063" lon="0.71576">
        <ele>986</ele>
        <time>2022-05-23 00:39:17</time>
      </trkpt>
      <trkpt lat="42.47061" lon="0.71575">
        <ele>986.2</ele>
        <time>2022-05-23 00:39:18</time>
      </trkpt>
      <trkpt lat="42.47059" lon="0.71574">
        <ele>986.2</ele>
        <time>2022-05-23 00:39:19</time>
      </trkpt>
      <trkpt lat="42.47057" lon="0.71574">
        <ele>986.4</ele>
        <time>2022-05-23 00:39:20</time>
      </trkpt>
      <trkpt lat="42.47055" lon="0.71574">
        <ele>986.4</ele>
        <time>2022-05-23 00:39:21</time>
      </trkpt>
      <trkpt lat="42.47054" lon="0.71573">
        <ele>986.6</ele>
        <time>2022-05-23 00:39:22</time>
      </trkpt>
      <trkpt lat="42.47051" lon="0.71571">
        <ele>986.6</ele>
        <time>2022-05-23 00:39:23</time>
      </trkpt>
      <trkpt lat="42.47049" lon="0.71569">
        <ele>986.8</ele>
        <time>2022-05-23 00:39:24</time>
      </trkpt>
      <trkpt lat="42.47047" lon="0.71569">
        <ele>986.8</ele>
        <time>2022-05-23 00:39:25</time>
      </trkpt>
      <trkpt lat="42.47045" lon="0.71568">
        <ele>986.8</ele>
        <time>2022-05-23 00:39:26</time>
      </trkpt>
      <trkpt lat="42.47043" lon="0.71568">
        <ele>987</ele>
        <time>2022-05-23 00:39:27</time>
      </trkpt>
      <trkpt lat="42.4704" lon="0.71567">
        <ele>987</ele>
        <time>2022-05-23 00:39:28</time>
      </trkpt>
      <trkpt lat="42.47038" lon="0.71566">
        <ele>987.2</ele>
        <time>2022-05-23 00:39:29</time>
      </trkpt>
      <trkpt lat="42.47036" lon="0.71566">
        <ele>987.4</ele>
        <time>2022-05-23 00:39:30</time>
      </trkpt>
      <trkpt lat="42.47034" lon="0.71565">
        <ele>987.4</ele>
        <time>2022-05-23 00:39:31</time>
      </trkpt>
      <trkpt lat="42.47033" lon="0.71565">
        <ele>987.6</ele>
        <time>2022-05-23 00:39:32</time>
      </trkpt>
      <trkpt lat="42.47031" lon="0.71564">
        <ele>987.6</ele>
        <time>2022-05-23 00:39:33</time>
      </trkpt>
      <trkpt lat="42.47028" lon="0.71564">
        <ele>987.8</ele>
        <time>2022-05-23 00:39:34</time>
      </trkpt>
      <trkpt lat="42.47026" lon="0.71562">
        <ele>987.8</ele>
        <time>2022-05-23 00:39:35</time>
      </trkpt>
      <trkpt lat="42.47024" lon="0.7156">
        <ele>988</ele>
        <time>2022-05-23 00:39:36</time>
      </trkpt>
      <trkpt lat="42.47022" lon="0.71559">
        <ele>988</ele>
        <time>2022-05-23 00:39:37</time>
      </trkpt>
      <trkpt lat="42.4702" lon="0.71558">
        <ele>988.2</ele>
        <time>2022-05-23 00:39:38</time>
      </trkpt>
      <trkpt lat="42.47018" lon="0.71557">
        <ele>988.2</ele>
        <time>2022-05-23 00:39:39</time>
      </trkpt>
      <trkpt lat="42.47017" lon="0.71556">
        <ele>988.4</ele>
        <time>2022-05-23 00:39:40</time>
      </trkpt>
      <trkpt lat="42.47015" lon="0.71556">
        <ele>988.6</ele>
        <time>2022-05-23 00:39:41</time>
      </trkpt>
      <trkpt lat="42.47013" lon="0.71555">
        <ele>988.6</ele>
        <time>2022-05-23 00:39:42</time>
      </trkpt>
      <trkpt lat="42.4701" lon="0.71555">
        <ele>988.8</ele>
        <time>2022-05-23 00:39:43</time>
      </trkpt>
      <trkpt lat="42.47009" lon="0.71555">
        <ele>988.8</ele>
        <time>2022-05-23 00:39:44</time>
      </trkpt>
      <trkpt lat="42.47007" lon="0.71555">
        <ele>989</ele>
        <time>2022-05-23 00:39:45</time>
      </trkpt>
      <trkpt lat="42.47005" lon="0.71554">
        <ele>989</ele>
        <time>2022-05-23 00:39:46</time>
      </trkpt>
      <trkpt lat="42.47002" lon="0.71554">
        <ele>989.2</ele>
        <time>2022-05-23 00:39:47</time>
      </trkpt>
      <trkpt lat="42.47" lon="0.71554">
        <ele>989.2</ele>
        <time>2022-05-23 00:39:48</time>
      </trkpt>
      <trkpt lat="42.46998" lon="0.71553">
        <ele>989.4</ele>
        <time>2022-05-23 00:39:49</time>
      </trkpt>
      <trkpt lat="42.46996" lon="0.71552">
        <ele>989.4</ele>
        <time>2022-05-23 00:39:50</time>
      </trkpt>
      <trkpt lat="42.46994" lon="0.7155">
        <ele>989.6</ele>
        <time>2022-05-23 00:39:51</time>
      </trkpt>
      <trkpt lat="42.46992" lon="0.71549">
        <ele>989.8</ele>
        <time>2022-05-23 00:39:52</time>
      </trkpt>
      <trkpt lat="42.46989" lon="0.71548">
        <ele>989.8</ele>
        <time>2022-05-23 00:39:53</time>
      </trkpt>
      <trkpt lat="42.46987" lon="0.71546">
        <ele>990</ele>
        <time>2022-05-23 00:39:54</time>
      </trkpt>
      <trkpt lat="42.46985" lon="0.71546">
        <ele>990</ele>
        <time>2022-05-23 00:39:55</time>
      </trkpt>
      <trkpt lat="42.46983" lon="0.71545">
        <ele>990</ele>
        <time>2022-05-23 00:39:56</time>
      </trkpt>
      <trkpt lat="42.46981" lon="0.71544">
        <ele>990.2</ele>
        <time>2022-05-23 00:39:57</time>
      </trkpt>
      <trkpt lat="42.46979" lon="0.71543">
        <ele>990.2</ele>
        <time>2022-05-23 00:39:58</time>
      </trkpt>
      <trkpt lat="42.46977" lon="0.71542">
        <ele>990.2</ele>
        <time>2022-05-23 00:39:59</time>
      </trkpt>
      <trkpt lat="42.46974" lon="0.71541">
        <ele>990.4</ele>
        <time>2022-05-23 00:40:00</time>
      </trkpt>
      <trkpt lat="42.46972" lon="0.7154">
        <ele>990.4</ele>
        <time>2022-05-23 00:40:01</time>
      </trkpt>
      <trkpt lat="42.4697" lon="0.71539">
        <ele>990.6</ele>
        <time>2022-05-23 00:40:02</time>
      </trkpt>
      <trkpt lat="42.46968" lon="0.71538">
        <ele>990.6</ele>
        <time>2022-05-23 00:40:03</time>
      </trkpt>
      <trkpt lat="42.46965" lon="0.71537">
        <ele>990.6</ele>
        <time>2022-05-23 00:40:04</time>
      </trkpt>
      <trkpt lat="42.46963" lon="0.71537">
        <ele>990.6</ele>
        <time>2022-05-23 00:40:05</time>
      </trkpt>
      <trkpt lat="42.46961" lon="0.71536">
        <ele>990.6</ele>
        <time>2022-05-23 00:40:06</time>
      </trkpt>
      <trkpt lat="42.46959" lon="0.71535">
        <ele>990.6</ele>
        <time>2022-05-23 00:40:07</time>
      </trkpt>
      <trkpt lat="42.46957" lon="0.71535">
        <ele>990.6</ele>
        <time>2022-05-23 00:40:08</time>
      </trkpt>
      <trkpt lat="42.46955" lon="0.71534">
        <ele>990.6</ele>
        <time>2022-05-23 00:40:09</time>
      </trkpt>
      <trkpt lat="42.46952" lon="0.71533">
        <ele>990.6</ele>
        <time>2022-05-23 00:40:10</time>
      </trkpt>
      <trkpt lat="42.4695" lon="0.71533">
        <ele>990.6</ele>
        <time>2022-05-23 00:40:11</time>
      </trkpt>
      <trkpt lat="42.46948" lon="0.71532">
        <ele>990.8</ele>
        <time>2022-05-23 00:40:12</time>
      </trkpt>
      <trkpt lat="42.46945" lon="0.71531">
        <ele>990.8</ele>
        <time>2022-05-23 00:40:13</time>
      </trkpt>
      <trkpt lat="42.46943" lon="0.7153">
        <ele>990.8</ele>
        <time>2022-05-23 00:40:14</time>
      </trkpt>
      <trkpt lat="42.4694" lon="0.71529">
        <ele>991</ele>
        <time>2022-05-23 00:40:15</time>
      </trkpt>
      <trkpt lat="42.46938" lon="0.71527">
        <ele>991</ele>
        <time>2022-05-23 00:40:16</time>
      </trkpt>
      <trkpt lat="42.46936" lon="0.71526">
        <ele>991</ele>
        <time>2022-05-23 00:40:17</time>
      </trkpt>
      <trkpt lat="42.46933" lon="0.71525">
        <ele>991</ele>
        <time>2022-05-23 00:40:18</time>
      </trkpt>
      <trkpt lat="42.46931" lon="0.71524">
        <ele>991</ele>
        <time>2022-05-23 00:40:19</time>
      </trkpt>
      <trkpt lat="42.46928" lon="0.71522">
        <ele>991.2</ele>
        <time>2022-05-23 00:40:20</time>
      </trkpt>
      <trkpt lat="42.46926" lon="0.71521">
        <ele>991.2</ele>
        <time>2022-05-23 00:40:21</time>
      </trkpt>
      <trkpt lat="42.46923" lon="0.71519">
        <ele>991.2</ele>
        <time>2022-05-23 00:40:22</time>
      </trkpt>
      <trkpt lat="42.4692" lon="0.71518">
        <ele>991.2</ele>
        <time>2022-05-23 00:40:23</time>
      </trkpt>
      <trkpt lat="42.46918" lon="0.71516">
        <ele>991.2</ele>
        <time>2022-05-23 00:40:24</time>
      </trkpt>
      <trkpt lat="42.46916" lon="0.71515">
        <ele>991.2</ele>
        <time>2022-05-23 00:40:25</time>
      </trkpt>
      <trkpt lat="42.46913" lon="0.71514">
        <ele>991.4</ele>
        <time>2022-05-23 00:40:26</time>
      </trkpt>
      <trkpt lat="42.46911" lon="0.71512">
        <ele>991.4</ele>
        <time>2022-05-23 00:40:27</time>
      </trkpt>
      <trkpt lat="42.46908" lon="0.71511">
        <ele>991.4</ele>
        <time>2022-05-23 00:40:28</time>
      </trkpt>
      <trkpt lat="42.46905" lon="0.7151">
        <ele>991.4</ele>
        <time>2022-05-23 00:40:29</time>
      </trkpt>
      <trkpt lat="42.46903" lon="0.71509">
        <ele>991.4</ele>
        <time>2022-05-23 00:40:30</time>
      </trkpt>
      <trkpt lat="42.469" lon="0.71508">
        <ele>991.4</ele>
        <time>2022-05-23 00:40:31</time>
      </trkpt>
      <trkpt lat="42.46898" lon="0.71507">
        <ele>991.4</ele>
        <time>2022-05-23 00:40:32</time>
      </trkpt>
      <trkpt lat="42.46895" lon="0.71506">
        <ele>991.4</ele>
        <time>2022-05-23 00:40:33</time>
      </trkpt>
      <trkpt lat="42.46893" lon="0.71505">
        <ele>991.4</ele>
        <time>2022-05-23 00:40:34</time>
      </trkpt>
      <trkpt lat="42.4689" lon="0.71504">
        <ele>991.4</ele>
        <time>2022-05-23 00:40:35</time>
      </trkpt>
      <trkpt lat="42.46888" lon="0.71503">
        <ele>991.4</ele>
        <time>2022-05-23 00:40:36</time>
      </trkpt>
      <trkpt lat="42.46885" lon="0.71502">
        <ele>991.4</ele>
        <time>2022-05-23 00:40:37</time>
      </trkpt>
      <trkpt lat="42.46882" lon="0.71501">
        <ele>991.4</ele>
        <time>2022-05-23 00:40:38</time>
      </trkpt>
      <trkpt lat="42.4688" lon="0.71499">
        <ele>991.6</ele>
        <time>2022-05-23 00:40:39</time>
      </trkpt>
      <trkpt lat="42.46877" lon="0.71498">
        <ele>991.6</ele>
        <time>2022-05-23 00:40:40</time>
      </trkpt>
      <trkpt lat="42.46875" lon="0.71496">
        <ele>991.6</ele>
        <time>2022-05-23 00:40:41</time>
      </trkpt>
      <trkpt lat="42.46872" lon="0.71494">
        <ele>991.4</ele>
        <time>2022-05-23 00:40:42</time>
      </trkpt>
      <trkpt lat="42.46869" lon="0.71493">
        <ele>991.4</ele>
        <time>2022-05-23 00:40:43</time>
      </trkpt>
      <trkpt lat="42.46866" lon="0.71492">
        <ele>991.4</ele>
        <time>2022-05-23 00:40:44</time>
      </trkpt>
      <trkpt lat="42.46863" lon="0.71491">
        <ele>991.4</ele>
        <time>2022-05-23 00:40:45</time>
      </trkpt>
      <trkpt lat="42.46861" lon="0.71489">
        <ele>991.4</ele>
        <time>2022-05-23 00:40:46</time>
      </trkpt>
      <trkpt lat="42.46858" lon="0.71487">
        <ele>991.4</ele>
        <time>2022-05-23 00:40:47</time>
      </trkpt>
      <trkpt lat="42.46855" lon="0.71486">
        <ele>991.2</ele>
        <time>2022-05-23 00:40:48</time>
      </trkpt>
      <trkpt lat="42.46852" lon="0.71485">
        <ele>991.2</ele>
        <time>2022-05-23 00:40:49</time>
      </trkpt>
      <trkpt lat="42.46849" lon="0.71484">
        <ele>991.2</ele>
        <time>2022-05-23 00:40:50</time>
      </trkpt>
      <trkpt lat="42.46846" lon="0.71482">
        <ele>991.2</ele>
        <time>2022-05-23 00:40:51</time>
      </trkpt>
      <trkpt lat="42.46842" lon="0.71481">
        <ele>991.2</ele>
        <time>2022-05-23 00:40:52</time>
      </trkpt>
      <trkpt lat="42.46838" lon="0.71479">
        <ele>991</ele>
        <time>2022-05-23 00:40:53</time>
      </trkpt>
      <trkpt lat="42.46834" lon="0.71477">
        <ele>990.8</ele>
        <time>2022-05-23 00:40:54</time>
      </trkpt>
      <trkpt lat="42.46829" lon="0.71475">
        <ele>990.6</ele>
        <time>2022-05-23 00:40:55</time>
      </trkpt>
      <trkpt lat="42.46825" lon="0.71474">
        <ele>990.4</ele>
        <time>2022-05-23 00:40:56</time>
      </trkpt>
      <trkpt lat="42.4682" lon="0.71471">
        <ele>990.2</ele>
        <time>2022-05-23 00:40:57</time>
      </trkpt>
      <trkpt lat="42.46815" lon="0.71469">
        <ele>990</ele>
        <time>2022-05-23 00:40:58</time>
      </trkpt>
      <trkpt lat="42.46809" lon="0.71467">
        <ele>989.8</ele>
        <time>2022-05-23 00:40:59</time>
      </trkpt>
      <trkpt lat="42.46804" lon="0.71464">
        <ele>989.6</ele>
        <time>2022-05-23 00:41:00</time>
      </trkpt>
      <trkpt lat="42.46799" lon="0.71462">
        <ele>989.4</ele>
        <time>2022-05-23 00:41:01</time>
      </trkpt>
      <trkpt lat="42.46793" lon="0.71459">
        <ele>989</ele>
        <time>2022-05-23 00:41:02</time>
      </trkpt>
      <trkpt lat="42.46788" lon="0.71457">
        <ele>988.8</ele>
        <time>2022-05-23 00:41:03</time>
      </trkpt>
      <trkpt lat="42.46782" lon="0.71455">
        <ele>988.6</ele>
        <time>2022-05-23 00:41:04</time>
      </trkpt>
      <trkpt lat="42.46776" lon="0.71453">
        <ele>988.2</ele>
        <time>2022-05-23 00:41:05</time>
      </trkpt>
      <trkpt lat="42.4677" lon="0.7145">
        <ele>988</ele>
        <time>2022-05-23 00:41:06</time>
      </trkpt>
      <trkpt lat="42.46764" lon="0.71448">
        <ele>987.8</ele>
        <time>2022-05-23 00:41:07</time>
      </trkpt>
      <trkpt lat="42.46758" lon="0.71445">
        <ele>987.4</ele>
        <time>2022-05-23 00:41:08</time>
      </trkpt>
      <trkpt lat="42.46751" lon="0.71442">
        <ele>987.2</ele>
        <time>2022-05-23 00:41:09</time>
      </trkpt>
      <trkpt lat="42.46745" lon="0.71439">
        <ele>986.8</ele>
        <time>2022-05-23 00:41:10</time>
      </trkpt>
      <trkpt lat="42.46738" lon="0.71436">
        <ele>986.6</ele>
        <time>2022-05-23 00:41:11</time>
      </trkpt>
      <trkpt lat="42.46731" lon="0.71433">
        <ele>986.2</ele>
        <time>2022-05-23 00:41:12</time>
      </trkpt>
      <trkpt lat="42.46724" lon="0.71429">
        <ele>985.8</ele>
        <time>2022-05-23 00:41:13</time>
      </trkpt>
      <trkpt lat="42.46717" lon="0.71426">
        <ele>985.4</ele>
        <time>2022-05-23 00:41:14</time>
      </trkpt>
      <trkpt lat="42.46709" lon="0.71423">
        <ele>985</ele>
        <time>2022-05-23 00:41:15</time>
      </trkpt>
      <trkpt lat="42.46702" lon="0.7142">
        <ele>984.6</ele>
        <time>2022-05-23 00:41:16</time>
      </trkpt>
      <trkpt lat="42.46694" lon="0.71418">
        <ele>984</ele>
        <time>2022-05-23 00:41:17</time>
      </trkpt>
      <trkpt lat="42.46686" lon="0.71415">
        <ele>983.4</ele>
        <time>2022-05-23 00:41:18</time>
      </trkpt>
      <trkpt lat="42.46678" lon="0.71413">
        <ele>982.8</ele>
        <time>2022-05-23 00:41:19</time>
      </trkpt>
      <trkpt lat="42.46669" lon="0.71411">
        <ele>982.2</ele>
        <time>2022-05-23 00:41:20</time>
      </trkpt>
      <trkpt lat="42.4666" lon="0.71408">
        <ele>981.6</ele>
        <time>2022-05-23 00:41:21</time>
      </trkpt>
      <trkpt lat="42.46651" lon="0.71406">
        <ele>980.8</ele>
        <time>2022-05-23 00:41:22</time>
      </trkpt>
      <trkpt lat="42.46642" lon="0.71404">
        <ele>980.2</ele>
        <time>2022-05-23 00:41:23</time>
      </trkpt>
      <trkpt lat="42.46632" lon="0.71402">
        <ele>979.6</ele>
        <time>2022-05-23 00:41:24</time>
      </trkpt>
      <trkpt lat="42.46621" lon="0.71399">
        <ele>978.8</ele>
        <time>2022-05-23 00:41:25</time>
      </trkpt>
      <trkpt lat="42.4661" lon="0.71396">
        <ele>978.2</ele>
        <time>2022-05-23 00:41:26</time>
      </trkpt>
      <trkpt lat="42.46599" lon="0.71394">
        <ele>977.6</ele>
        <time>2022-05-23 00:41:27</time>
      </trkpt>
      <trkpt lat="42.46588" lon="0.71392">
        <ele>976.8</ele>
        <time>2022-05-23 00:41:28</time>
      </trkpt>
      <trkpt lat="42.46577" lon="0.7139">
        <ele>976</ele>
        <time>2022-05-23 00:41:29</time>
      </trkpt>
      <trkpt lat="42.46566" lon="0.71388">
        <ele>975.2</ele>
        <time>2022-05-23 00:41:30</time>
      </trkpt>
      <trkpt lat="42.46555" lon="0.71385">
        <ele>974.6</ele>
        <time>2022-05-23 00:41:31</time>
      </trkpt>
      <trkpt lat="42.46544" lon="0.71382">
        <ele>973.8</ele>
        <time>2022-05-23 00:41:32</time>
      </trkpt>
      <trkpt lat="42.46533" lon="0.7138">
        <ele>973</ele>
        <time>2022-05-23 00:41:33</time>
      </trkpt>
      <trkpt lat="42.46521" lon="0.71377">
        <ele>972.2</ele>
        <time>2022-05-23 00:41:34</time>
      </trkpt>
      <trkpt lat="42.46509" lon="0.71374">
        <ele>971.4</ele>
        <time>2022-05-23 00:41:35</time>
      </trkpt>
      <trkpt lat="42.46498" lon="0.71371">
        <ele>970.6</ele>
        <time>2022-05-23 00:41:36</time>
      </trkpt>
      <trkpt lat="42.46487" lon="0.71368">
        <ele>970</ele>
        <time>2022-05-23 00:41:37</time>
      </trkpt>
      <trkpt lat="42.46475" lon="0.71365">
        <ele>969.2</ele>
        <time>2022-05-23 00:41:38</time>
      </trkpt>
      <trkpt lat="42.46463" lon="0.71361">
        <ele>968.4</ele>
        <time>2022-05-23 00:41:39</time>
      </trkpt>
      <trkpt lat="42.46453" lon="0.71355">
        <ele>967.6</ele>
        <time>2022-05-23 00:41:40</time>
      </trkpt>
      <trkpt lat="42.46442" lon="0.71349">
        <ele>967</ele>
        <time>2022-05-23 00:41:41</time>
      </trkpt>
      <trkpt lat="42.46432" lon="0.7134">
        <ele>966.4</ele>
        <time>2022-05-23 00:41:42</time>
      </trkpt>
      <trkpt lat="42.46422" lon="0.71331">
        <ele>965.6</ele>
        <time>2022-05-23 00:41:43</time>
      </trkpt>
      <trkpt lat="42.46413" lon="0.71321">
        <ele>965</ele>
        <time>2022-05-23 00:41:44</time>
      </trkpt>
      <trkpt lat="42.46404" lon="0.71309">
        <ele>964.4</ele>
        <time>2022-05-23 00:41:45</time>
      </trkpt>
      <trkpt lat="42.46396" lon="0.71298">
        <ele>963.6</ele>
        <time>2022-05-23 00:41:46</time>
      </trkpt>
      <trkpt lat="42.46388" lon="0.71287">
        <ele>963</ele>
        <time>2022-05-23 00:41:47</time>
      </trkpt>
      <trkpt lat="42.4638" lon="0.71276">
        <ele>962.4</ele>
        <time>2022-05-23 00:41:48</time>
      </trkpt>
      <trkpt lat="42.46372" lon="0.71264">
        <ele>961.8</ele>
        <time>2022-05-23 00:41:49</time>
      </trkpt>
      <trkpt lat="42.46364" lon="0.71252">
        <ele>961</ele>
        <time>2022-05-23 00:41:50</time>
      </trkpt>
      <trkpt lat="42.46356" lon="0.7124">
        <ele>960.2</ele>
        <time>2022-05-23 00:41:51</time>
      </trkpt>
      <trkpt lat="42.46347" lon="0.71227">
        <ele>959.6</ele>
        <time>2022-05-23 00:41:52</time>
      </trkpt>
      <trkpt lat="42.4634" lon="0.71216">
        <ele>959</ele>
        <time>2022-05-23 00:41:53</time>
      </trkpt>
      <trkpt lat="42.46332" lon="0.71206">
        <ele>958.2</ele>
        <time>2022-05-23 00:41:54</time>
      </trkpt>
      <trkpt lat="42.46323" lon="0.71197">
        <ele>957.6</ele>
        <time>2022-05-23 00:41:55</time>
      </trkpt>
      <trkpt lat="42.46313" lon="0.71188">
        <ele>957</ele>
        <time>2022-05-23 00:41:56</time>
      </trkpt>
      <trkpt lat="42.46302" lon="0.71181">
        <ele>956.2</ele>
        <time>2022-05-23 00:41:57</time>
      </trkpt>
      <trkpt lat="42.4629" lon="0.71175">
        <ele>955.6</ele>
        <time>2022-05-23 00:41:58</time>
      </trkpt>
      <trkpt lat="42.46279" lon="0.71172">
        <ele>954.8</ele>
        <time>2022-05-23 00:41:59</time>
      </trkpt>
      <trkpt lat="42.46267" lon="0.7117">
        <ele>954.2</ele>
        <time>2022-05-23 00:42:00</time>
      </trkpt>
      <trkpt lat="42.46255" lon="0.71169">
        <ele>953.4</ele>
        <time>2022-05-23 00:42:01</time>
      </trkpt>
      <trkpt lat="42.46243" lon="0.71168">
        <ele>952.6</ele>
        <time>2022-05-23 00:42:02</time>
      </trkpt>
      <trkpt lat="42.46232" lon="0.71167">
        <ele>951.8</ele>
        <time>2022-05-23 00:42:03</time>
      </trkpt>
      <trkpt lat="42.4622" lon="0.71168">
        <ele>951.2</ele>
        <time>2022-05-23 00:42:04</time>
      </trkpt>
      <trkpt lat="42.46209" lon="0.71168">
        <ele>950.6</ele>
        <time>2022-05-23 00:42:05</time>
      </trkpt>
      <trkpt lat="42.46197" lon="0.71169">
        <ele>950</ele>
        <time>2022-05-23 00:42:06</time>
      </trkpt>
      <trkpt lat="42.46186" lon="0.71169">
        <ele>949.4</ele>
        <time>2022-05-23 00:42:07</time>
      </trkpt>
      <trkpt lat="42.46174" lon="0.71169">
        <ele>948.8</ele>
        <time>2022-05-23 00:42:08</time>
      </trkpt>
      <trkpt lat="42.46163" lon="0.71169">
        <ele>948.2</ele>
        <time>2022-05-23 00:42:09</time>
      </trkpt>
      <trkpt lat="42.46152" lon="0.71168">
        <ele>947.6</ele>
        <time>2022-05-23 00:42:10</time>
      </trkpt>
      <trkpt lat="42.46141" lon="0.71166">
        <ele>947</ele>
        <time>2022-05-23 00:42:11</time>
      </trkpt>
      <trkpt lat="42.4613" lon="0.71163">
        <ele>946.2</ele>
        <time>2022-05-23 00:42:12</time>
      </trkpt>
      <trkpt lat="42.46119" lon="0.71158">
        <ele>945.6</ele>
        <time>2022-05-23 00:42:13</time>
      </trkpt>
      <trkpt lat="42.46109" lon="0.71152">
        <ele>945</ele>
        <time>2022-05-23 00:42:14</time>
      </trkpt>
      <trkpt lat="42.46099" lon="0.71146">
        <ele>944.2</ele>
        <time>2022-05-23 00:42:15</time>
      </trkpt>
      <trkpt lat="42.46088" lon="0.71138">
        <ele>943.6</ele>
        <time>2022-05-23 00:42:16</time>
      </trkpt>
      <trkpt lat="42.46078" lon="0.71131">
        <ele>943</ele>
        <time>2022-05-23 00:42:17</time>
      </trkpt>
      <trkpt lat="42.46068" lon="0.71124">
        <ele>942.4</ele>
        <time>2022-05-23 00:42:18</time>
      </trkpt>
      <trkpt lat="42.46058" lon="0.71116">
        <ele>941.8</ele>
        <time>2022-05-23 00:42:19</time>
      </trkpt>
      <trkpt lat="42.46048" lon="0.71108">
        <ele>941.2</ele>
        <time>2022-05-23 00:42:20</time>
      </trkpt>
      <trkpt lat="42.46038" lon="0.711">
        <ele>940.4</ele>
        <time>2022-05-23 00:42:21</time>
      </trkpt>
      <trkpt lat="42.46027" lon="0.71092">
        <ele>939.8</ele>
        <time>2022-05-23 00:42:22</time>
      </trkpt>
      <trkpt lat="42.46017" lon="0.71084">
        <ele>939</ele>
        <time>2022-05-23 00:42:23</time>
      </trkpt>
      <trkpt lat="42.46007" lon="0.71076">
        <ele>938.4</ele>
        <time>2022-05-23 00:42:24</time>
      </trkpt>
      <trkpt lat="42.45998" lon="0.71069">
        <ele>937.8</ele>
        <time>2022-05-23 00:42:25</time>
      </trkpt>
      <trkpt lat="42.45987" lon="0.7106">
        <ele>937.2</ele>
        <time>2022-05-23 00:42:26</time>
      </trkpt>
      <trkpt lat="42.45977" lon="0.71051">
        <ele>936.6</ele>
        <time>2022-05-23 00:42:27</time>
      </trkpt>
      <trkpt lat="42.45967" lon="0.71043">
        <ele>936.2</ele>
        <time>2022-05-23 00:42:28</time>
      </trkpt>
      <trkpt lat="42.45958" lon="0.71035">
        <ele>936</ele>
        <time>2022-05-23 00:42:29</time>
      </trkpt>
      <trkpt lat="42.45949" lon="0.71028">
        <ele>935.8</ele>
        <time>2022-05-23 00:42:30</time>
      </trkpt>
      <trkpt lat="42.4594" lon="0.71021">
        <ele>935.6</ele>
        <time>2022-05-23 00:42:31</time>
      </trkpt>
      <trkpt lat="42.45931" lon="0.71013">
        <ele>935.4</ele>
        <time>2022-05-23 00:42:32</time>
      </trkpt>
      <trkpt lat="42.45922" lon="0.71005">
        <ele>935.4</ele>
        <time>2022-05-23 00:42:33</time>
      </trkpt>
      <trkpt lat="42.45913" lon="0.70998">
        <ele>935.2</ele>
        <time>2022-05-23 00:42:34</time>
      </trkpt>
      <trkpt lat="42.45905" lon="0.70992">
        <ele>935</ele>
        <time>2022-05-23 00:42:35</time>
      </trkpt>
      <trkpt lat="42.45897" lon="0.70985">
        <ele>935</ele>
        <time>2022-05-23 00:42:36</time>
      </trkpt>
      <trkpt lat="42.4589" lon="0.70979">
        <ele>934.8</ele>
        <time>2022-05-23 00:42:37</time>
      </trkpt>
      <trkpt lat="42.45883" lon="0.70973">
        <ele>934.8</ele>
        <time>2022-05-23 00:42:38</time>
      </trkpt>
      <trkpt lat="42.45876" lon="0.70967">
        <ele>934.8</ele>
        <time>2022-05-23 00:42:39</time>
      </trkpt>
      <trkpt lat="42.45868" lon="0.70962">
        <ele>934.8</ele>
        <time>2022-05-23 00:42:40</time>
      </trkpt>
      <trkpt lat="42.45861" lon="0.70957">
        <ele>934.6</ele>
        <time>2022-05-23 00:42:41</time>
      </trkpt>
      <trkpt lat="42.45854" lon="0.70951">
        <ele>934.6</ele>
        <time>2022-05-23 00:42:42</time>
      </trkpt>
      <trkpt lat="42.45847" lon="0.70946">
        <ele>934.6</ele>
        <time>2022-05-23 00:42:43</time>
      </trkpt>
      <trkpt lat="42.4584" lon="0.70941">
        <ele>934.4</ele>
        <time>2022-05-23 00:42:44</time>
      </trkpt>
      <trkpt lat="42.45834" lon="0.70936">
        <ele>934.2</ele>
        <time>2022-05-23 00:42:45</time>
      </trkpt>
      <trkpt lat="42.45827" lon="0.7093">
        <ele>934.2</ele>
        <time>2022-05-23 00:42:46</time>
      </trkpt>
      <trkpt lat="42.4582" lon="0.70924">
        <ele>934</ele>
        <time>2022-05-23 00:42:47</time>
      </trkpt>
      <trkpt lat="42.45814" lon="0.70919">
        <ele>934</ele>
        <time>2022-05-23 00:42:48</time>
      </trkpt>
      <trkpt lat="42.45807" lon="0.70913">
        <ele>933.8</ele>
        <time>2022-05-23 00:42:49</time>
      </trkpt>
      <trkpt lat="42.458" lon="0.70907">
        <ele>933.8</ele>
        <time>2022-05-23 00:42:50</time>
      </trkpt>
      <trkpt lat="42.45793" lon="0.70902">
        <ele>933.8</ele>
        <time>2022-05-23 00:42:51</time>
      </trkpt>
      <trkpt lat="42.45787" lon="0.70896">
        <ele>933.6</ele>
        <time>2022-05-23 00:42:52</time>
      </trkpt>
      <trkpt lat="42.4578" lon="0.7089">
        <ele>933.6</ele>
        <time>2022-05-23 00:42:53</time>
      </trkpt>
      <trkpt lat="42.45774" lon="0.70885">
        <ele>933.6</ele>
        <time>2022-05-23 00:42:54</time>
      </trkpt>
      <trkpt lat="42.45767" lon="0.7088">
        <ele>933.6</ele>
        <time>2022-05-23 00:42:55</time>
      </trkpt>
      <trkpt lat="42.4576" lon="0.70874">
        <ele>933.8</ele>
        <time>2022-05-23 00:42:56</time>
      </trkpt>
      <trkpt lat="42.45754" lon="0.70868">
        <ele>933.8</ele>
        <time>2022-05-23 00:42:57</time>
      </trkpt>
      <trkpt lat="42.45748" lon="0.70864">
        <ele>934</ele>
        <time>2022-05-23 00:42:58</time>
      </trkpt>
      <trkpt lat="42.45742" lon="0.70859">
        <ele>934</ele>
        <time>2022-05-23 00:42:59</time>
      </trkpt>
      <trkpt lat="42.45736" lon="0.70855">
        <ele>934</ele>
        <time>2022-05-23 00:43:00</time>
      </trkpt>
      <trkpt lat="42.45729" lon="0.70852">
        <ele>934</ele>
        <time>2022-05-23 00:43:01</time>
      </trkpt>
      <trkpt lat="42.45723" lon="0.70849">
        <ele>934</ele>
        <time>2022-05-23 00:43:02</time>
      </trkpt>
      <trkpt lat="42.45716" lon="0.70846">
        <ele>934</ele>
        <time>2022-05-23 00:43:03</time>
      </trkpt>
      <trkpt lat="42.45709" lon="0.70843">
        <ele>934.2</ele>
        <time>2022-05-23 00:43:04</time>
      </trkpt>
      <trkpt lat="42.45702" lon="0.7084">
        <ele>934.2</ele>
        <time>2022-05-23 00:43:05</time>
      </trkpt>
      <trkpt lat="42.45696" lon="0.70838">
        <ele>934.4</ele>
        <time>2022-05-23 00:43:06</time>
      </trkpt>
      <trkpt lat="42.45689" lon="0.70835">
        <ele>934.4</ele>
        <time>2022-05-23 00:43:07</time>
      </trkpt>
      <trkpt lat="42.45682" lon="0.70833">
        <ele>934.6</ele>
        <time>2022-05-23 00:43:08</time>
      </trkpt>
      <trkpt lat="42.45675" lon="0.70832">
        <ele>934.6</ele>
        <time>2022-05-23 00:43:09</time>
      </trkpt>
      <trkpt lat="42.45668" lon="0.70831">
        <ele>934.6</ele>
        <time>2022-05-23 00:43:10</time>
      </trkpt>
      <trkpt lat="42.45661" lon="0.7083">
        <ele>934.6</ele>
        <time>2022-05-23 00:43:11</time>
      </trkpt>
      <trkpt lat="42.45654" lon="0.7083">
        <ele>934.6</ele>
        <time>2022-05-23 00:43:12</time>
      </trkpt>
      <trkpt lat="42.45647" lon="0.7083">
        <ele>934.6</ele>
        <time>2022-05-23 00:43:13</time>
      </trkpt>
      <trkpt lat="42.4564" lon="0.70831">
        <ele>934.6</ele>
        <time>2022-05-23 00:43:14</time>
      </trkpt>
      <trkpt lat="42.45633" lon="0.70832">
        <ele>934.6</ele>
        <time>2022-05-23 00:43:15</time>
      </trkpt>
      <trkpt lat="42.45626" lon="0.70833">
        <ele>934.8</ele>
        <time>2022-05-23 00:43:16</time>
      </trkpt>
      <trkpt lat="42.45619" lon="0.70834">
        <ele>934.8</ele>
        <time>2022-05-23 00:43:17</time>
      </trkpt>
      <trkpt lat="42.45612" lon="0.70835">
        <ele>934.8</ele>
        <time>2022-05-23 00:43:18</time>
      </trkpt>
      <trkpt lat="42.45605" lon="0.70836">
        <ele>935</ele>
        <time>2022-05-23 00:43:19</time>
      </trkpt>
      <trkpt lat="42.45598" lon="0.70837">
        <ele>935</ele>
        <time>2022-05-23 00:43:20</time>
      </trkpt>
      <trkpt lat="42.45591" lon="0.70838">
        <ele>935</ele>
        <time>2022-05-23 00:43:21</time>
      </trkpt>
      <trkpt lat="42.45584" lon="0.70839">
        <ele>935.2</ele>
        <time>2022-05-23 00:43:22</time>
      </trkpt>
      <trkpt lat="42.45577" lon="0.70841">
        <ele>935.2</ele>
        <time>2022-05-23 00:43:23</time>
      </trkpt>
      <trkpt lat="42.4557" lon="0.70842">
        <ele>935.2</ele>
        <time>2022-05-23 00:43:24</time>
      </trkpt>
      <trkpt lat="42.45564" lon="0.70844">
        <ele>935.2</ele>
        <time>2022-05-23 00:43:25</time>
      </trkpt>
      <trkpt lat="42.45557" lon="0.70846">
        <ele>935.2</ele>
        <time>2022-05-23 00:43:26</time>
      </trkpt>
      <trkpt lat="42.4555" lon="0.70849">
        <ele>935.2</ele>
        <time>2022-05-23 00:43:27</time>
      </trkpt>
      <trkpt lat="42.45544" lon="0.70851">
        <ele>935.2</ele>
        <time>2022-05-23 00:43:28</time>
      </trkpt>
      <trkpt lat="42.45537" lon="0.70853">
        <ele>935</ele>
        <time>2022-05-23 00:43:29</time>
      </trkpt>
      <trkpt lat="42.45529" lon="0.70856">
        <ele>934.8</ele>
        <time>2022-05-23 00:43:30</time>
      </trkpt>
      <trkpt lat="42.45522" lon="0.70858">
        <ele>934.6</ele>
        <time>2022-05-23 00:43:31</time>
      </trkpt>
      <trkpt lat="42.45515" lon="0.7086">
        <ele>934.4</ele>
        <time>2022-05-23 00:43:32</time>
      </trkpt>
      <trkpt lat="42.45508" lon="0.70863">
        <ele>934.2</ele>
        <time>2022-05-23 00:43:33</time>
      </trkpt>
      <trkpt lat="42.455" lon="0.70865">
        <ele>934.2</ele>
        <time>2022-05-23 00:43:34</time>
      </trkpt>
      <trkpt lat="42.45493" lon="0.70867">
        <ele>934</ele>
        <time>2022-05-23 00:43:35</time>
      </trkpt>
      <trkpt lat="42.45486" lon="0.7087">
        <ele>934</ele>
        <time>2022-05-23 00:43:36</time>
      </trkpt>
      <trkpt lat="42.45479" lon="0.70873">
        <ele>933.8</ele>
        <time>2022-05-23 00:43:37</time>
      </trkpt>
      <trkpt lat="42.45472" lon="0.70875">
        <ele>933.8</ele>
        <time>2022-05-23 00:43:38</time>
      </trkpt>
      <trkpt lat="42.45465" lon="0.70876">
        <ele>933.8</ele>
        <time>2022-05-23 00:43:39</time>
      </trkpt>
      <trkpt lat="42.45458" lon="0.70877">
        <ele>933.8</ele>
        <time>2022-05-23 00:43:40</time>
      </trkpt>
      <trkpt lat="42.45451" lon="0.70878">
        <ele>933.6</ele>
        <time>2022-05-23 00:43:41</time>
      </trkpt>
      <trkpt lat="42.45444" lon="0.70879">
        <ele>933.6</ele>
        <time>2022-05-23 00:43:42</time>
      </trkpt>
      <trkpt lat="42.45437" lon="0.7088">
        <ele>933.6</ele>
        <time>2022-05-23 00:43:43</time>
      </trkpt>
      <trkpt lat="42.4543" lon="0.70882">
        <ele>933.6</ele>
        <time>2022-05-23 00:43:44</time>
      </trkpt>
      <trkpt lat="42.45423" lon="0.70883">
        <ele>933.6</ele>
        <time>2022-05-23 00:43:45</time>
      </trkpt>
      <trkpt lat="42.45416" lon="0.70885">
        <ele>933.6</ele>
        <time>2022-05-23 00:43:46</time>
      </trkpt>
      <trkpt lat="42.45409" lon="0.70886">
        <ele>933.4</ele>
        <time>2022-05-23 00:43:47</time>
      </trkpt>
      <trkpt lat="42.45403" lon="0.70887">
        <ele>933.4</ele>
        <time>2022-05-23 00:43:48</time>
      </trkpt>
      <trkpt lat="42.45396" lon="0.70888">
        <ele>933.4</ele>
        <time>2022-05-23 00:43:49</time>
      </trkpt>
      <trkpt lat="42.45389" lon="0.70889">
        <ele>933.4</ele>
        <time>2022-05-23 00:43:50</time>
      </trkpt>
      <trkpt lat="42.45382" lon="0.7089">
        <ele>933.4</ele>
        <time>2022-05-23 00:43:51</time>
      </trkpt>
      <trkpt lat="42.45375" lon="0.7089">
        <ele>933.4</ele>
        <time>2022-05-23 00:43:52</time>
      </trkpt>
      <trkpt lat="42.45369" lon="0.7089">
        <ele>933.4</ele>
        <time>2022-05-23 00:43:53</time>
      </trkpt>
      <trkpt lat="42.45362" lon="0.7089">
        <ele>933.4</ele>
        <time>2022-05-23 00:43:54</time>
      </trkpt>
      <trkpt lat="42.45355" lon="0.70891">
        <ele>933.4</ele>
        <time>2022-05-23 00:43:55</time>
      </trkpt>
      <trkpt lat="42.45349" lon="0.70892">
        <ele>933.4</ele>
        <time>2022-05-23 00:43:56</time>
      </trkpt>
      <trkpt lat="42.45342" lon="0.70892">
        <ele>933.4</ele>
        <time>2022-05-23 00:43:57</time>
      </trkpt>
      <trkpt lat="42.45336" lon="0.70893">
        <ele>933.4</ele>
        <time>2022-05-23 00:43:58</time>
      </trkpt>
      <trkpt lat="42.4533" lon="0.70895">
        <ele>933.2</ele>
        <time>2022-05-23 00:43:59</time>
      </trkpt>
      <trkpt lat="42.45323" lon="0.70896">
        <ele>933.2</ele>
        <time>2022-05-23 00:44:00</time>
      </trkpt>
      <trkpt lat="42.45317" lon="0.70897">
        <ele>933.2</ele>
        <time>2022-05-23 00:44:01</time>
      </trkpt>
      <trkpt lat="42.45311" lon="0.70899">
        <ele>933</ele>
        <time>2022-05-23 00:44:02</time>
      </trkpt>
      <trkpt lat="42.45304" lon="0.70901">
        <ele>933</ele>
        <time>2022-05-23 00:44:03</time>
      </trkpt>
      <trkpt lat="42.45299" lon="0.70904">
        <ele>932.8</ele>
        <time>2022-05-23 00:44:04</time>
      </trkpt>
      <trkpt lat="42.45293" lon="0.70906">
        <ele>932.8</ele>
        <time>2022-05-23 00:44:05</time>
      </trkpt>
      <trkpt lat="42.45287" lon="0.70907">
        <ele>932.8</ele>
        <time>2022-05-23 00:44:06</time>
      </trkpt>
      <trkpt lat="42.45281" lon="0.70908">
        <ele>932.6</ele>
        <time>2022-05-23 00:44:07</time>
      </trkpt>
      <trkpt lat="42.45275" lon="0.70909">
        <ele>932.6</ele>
        <time>2022-05-23 00:44:08</time>
      </trkpt>
      <trkpt lat="42.45268" lon="0.7091">
        <ele>932.4</ele>
        <time>2022-05-23 00:44:09</time>
      </trkpt>
      <trkpt lat="42.45262" lon="0.70912">
        <ele>932.2</ele>
        <time>2022-05-23 00:44:10</time>
      </trkpt>
      <trkpt lat="42.45256" lon="0.70913">
        <ele>932.2</ele>
        <time>2022-05-23 00:44:11</time>
      </trkpt>
      <trkpt lat="42.45249" lon="0.70914">
        <ele>932.2</ele>
        <time>2022-05-23 00:44:12</time>
      </trkpt>
      <trkpt lat="42.45244" lon="0.70915">
        <ele>932</ele>
        <time>2022-05-23 00:44:13</time>
      </trkpt>
      <trkpt lat="42.45237" lon="0.70917">
        <ele>932</ele>
        <time>2022-05-23 00:44:14</time>
      </trkpt>
      <trkpt lat="42.45231" lon="0.70918">
        <ele>932</ele>
        <time>2022-05-23 00:44:15</time>
      </trkpt>
      <trkpt lat="42.45225" lon="0.70919">
        <ele>932</ele>
        <time>2022-05-23 00:44:16</time>
      </trkpt>
      <trkpt lat="42.45218" lon="0.70921">
        <ele>931.8</ele>
        <time>2022-05-23 00:44:17</time>
      </trkpt>
      <trkpt lat="42.45211" lon="0.70922">
        <ele>931.8</ele>
        <time>2022-05-23 00:44:18</time>
      </trkpt>
      <trkpt lat="42.45205" lon="0.70923">
        <ele>931.8</ele>
        <time>2022-05-23 00:44:19</time>
      </trkpt>
      <trkpt lat="42.45199" lon="0.70925">
        <ele>931.8</ele>
        <time>2022-05-23 00:44:20</time>
      </trkpt>
      <trkpt lat="42.45193" lon="0.70927">
        <ele>932</ele>
        <time>2022-05-23 00:44:21</time>
      </trkpt>
      <trkpt lat="42.45187" lon="0.70928">
        <ele>932</ele>
        <time>2022-05-23 00:44:22</time>
      </trkpt>
      <trkpt lat="42.45182" lon="0.70929">
        <ele>932.2</ele>
        <time>2022-05-23 00:44:23</time>
      </trkpt>
      <trkpt lat="42.45176" lon="0.7093">
        <ele>932.2</ele>
        <time>2022-05-23 00:44:24</time>
      </trkpt>
      <trkpt lat="42.4517" lon="0.70932">
        <ele>932.4</ele>
        <time>2022-05-23 00:44:25</time>
      </trkpt>
      <trkpt lat="42.45165" lon="0.70933">
        <ele>932.4</ele>
        <time>2022-05-23 00:44:26</time>
      </trkpt>
      <trkpt lat="42.45159" lon="0.70935">
        <ele>932.4</ele>
        <time>2022-05-23 00:44:27</time>
      </trkpt>
      <trkpt lat="42.45154" lon="0.70936">
        <ele>932.6</ele>
        <time>2022-05-23 00:44:28</time>
      </trkpt>
      <trkpt lat="42.45148" lon="0.70938">
        <ele>932.6</ele>
        <time>2022-05-23 00:44:29</time>
      </trkpt>
      <trkpt lat="42.45143" lon="0.70939">
        <ele>932.8</ele>
        <time>2022-05-23 00:44:30</time>
      </trkpt>
      <trkpt lat="42.45137" lon="0.70941">
        <ele>932.8</ele>
        <time>2022-05-23 00:44:31</time>
      </trkpt>
      <trkpt lat="42.45132" lon="0.70942">
        <ele>933</ele>
        <time>2022-05-23 00:44:32</time>
      </trkpt>
      <trkpt lat="42.45127" lon="0.70944">
        <ele>933</ele>
        <time>2022-05-23 00:44:33</time>
      </trkpt>
      <trkpt lat="42.45121" lon="0.70945">
        <ele>933</ele>
        <time>2022-05-23 00:44:34</time>
      </trkpt>
      <trkpt lat="42.45116" lon="0.70946">
        <ele>933.2</ele>
        <time>2022-05-23 00:44:35</time>
      </trkpt>
      <trkpt lat="42.4511" lon="0.70947">
        <ele>933.2</ele>
        <time>2022-05-23 00:44:36</time>
      </trkpt>
      <trkpt lat="42.45105" lon="0.70948">
        <ele>933.2</ele>
        <time>2022-05-23 00:44:37</time>
      </trkpt>
      <trkpt lat="42.451" lon="0.7095">
        <ele>933.2</ele>
        <time>2022-05-23 00:44:38</time>
      </trkpt>
      <trkpt lat="42.45093" lon="0.70952">
        <ele>933.2</ele>
        <time>2022-05-23 00:44:39</time>
      </trkpt>
      <trkpt lat="42.45087" lon="0.70953">
        <ele>933.2</ele>
        <time>2022-05-23 00:44:40</time>
      </trkpt>
      <trkpt lat="42.4508" lon="0.70955">
        <ele>933.2</ele>
        <time>2022-05-23 00:44:41</time>
      </trkpt>
      <trkpt lat="42.45075" lon="0.70957">
        <ele>933.2</ele>
        <time>2022-05-23 00:44:42</time>
      </trkpt>
      <trkpt lat="42.45069" lon="0.70959">
        <ele>933.2</ele>
        <time>2022-05-23 00:44:43</time>
      </trkpt>
      <trkpt lat="42.45064" lon="0.7096">
        <ele>933</ele>
        <time>2022-05-23 00:44:44</time>
      </trkpt>
      <trkpt lat="42.45059" lon="0.70961">
        <ele>933</ele>
        <time>2022-05-23 00:44:45</time>
      </trkpt>
      <trkpt lat="42.45053" lon="0.70962">
        <ele>933</ele>
        <time>2022-05-23 00:44:46</time>
      </trkpt>
      <trkpt lat="42.45047" lon="0.70964">
        <ele>933</ele>
        <time>2022-05-23 00:44:47</time>
      </trkpt>
      <trkpt lat="42.45041" lon="0.70965">
        <ele>933</ele>
        <time>2022-05-23 00:44:48</time>
      </trkpt>
      <trkpt lat="42.45036" lon="0.70967">
        <ele>933</ele>
        <time>2022-05-23 00:44:49</time>
      </trkpt>
      <trkpt lat="42.4503" lon="0.70969">
        <ele>932.8</ele>
        <time>2022-05-23 00:44:50</time>
      </trkpt>
      <trkpt lat="42.45025" lon="0.7097">
        <ele>932.8</ele>
        <time>2022-05-23 00:44:51</time>
      </trkpt>
      <trkpt lat="42.45019" lon="0.70972">
        <ele>932.6</ele>
        <time>2022-05-23 00:44:52</time>
      </trkpt>
      <trkpt lat="42.45013" lon="0.70973">
        <ele>932.4</ele>
        <time>2022-05-23 00:44:53</time>
      </trkpt>
      <trkpt lat="42.45007" lon="0.70975">
        <ele>932.2</ele>
        <time>2022-05-23 00:44:54</time>
      </trkpt>
      <trkpt lat="42.45001" lon="0.70977">
        <ele>931.8</ele>
        <time>2022-05-23 00:44:55</time>
      </trkpt>
      <trkpt lat="42.44995" lon="0.70979">
        <ele>931.6</ele>
        <time>2022-05-23 00:44:56</time>
      </trkpt>
      <trkpt lat="42.44988" lon="0.70981">
        <ele>931.4</ele>
        <time>2022-05-23 00:44:57</time>
      </trkpt>
      <trkpt lat="42.44982" lon="0.70983">
        <ele>931.2</ele>
        <time>2022-05-23 00:44:58</time>
      </trkpt>
      <trkpt lat="42.44975" lon="0.70985">
        <ele>931.2</ele>
        <time>2022-05-23 00:44:59</time>
      </trkpt>
      <trkpt lat="42.44969" lon="0.70987">
        <ele>930.8</ele>
        <time>2022-05-23 00:45:00</time>
      </trkpt>
      <trkpt lat="42.44962" lon="0.7099">
        <ele>930.6</ele>
        <time>2022-05-23 00:45:01</time>
      </trkpt>
      <trkpt lat="42.44955" lon="0.70992">
        <ele>930.2</ele>
        <time>2022-05-23 00:45:02</time>
      </trkpt>
      <trkpt lat="42.44949" lon="0.70994">
        <ele>930</ele>
        <time>2022-05-23 00:45:03</time>
      </trkpt>
      <trkpt lat="42.44942" lon="0.70996">
        <ele>929.6</ele>
        <time>2022-05-23 00:45:04</time>
      </trkpt>
      <trkpt lat="42.44935" lon="0.70998">
        <ele>929.2</ele>
        <time>2022-05-23 00:45:05</time>
      </trkpt>
      <trkpt lat="42.44928" lon="0.71">
        <ele>929</ele>
        <time>2022-05-23 00:45:06</time>
      </trkpt>
      <trkpt lat="42.44921" lon="0.71002">
        <ele>928.6</ele>
        <time>2022-05-23 00:45:07</time>
      </trkpt>
      <trkpt lat="42.44913" lon="0.71004">
        <ele>928.2</ele>
        <time>2022-05-23 00:45:08</time>
      </trkpt>
      <trkpt lat="42.44906" lon="0.71006">
        <ele>928</ele>
        <time>2022-05-23 00:45:09</time>
      </trkpt>
      <trkpt lat="42.44898" lon="0.71009">
        <ele>927.6</ele>
        <time>2022-05-23 00:45:10</time>
      </trkpt>
      <trkpt lat="42.44891" lon="0.71011">
        <ele>927.2</ele>
        <time>2022-05-23 00:45:11</time>
      </trkpt>
      <trkpt lat="42.44883" lon="0.71013">
        <ele>926.8</ele>
        <time>2022-05-23 00:45:12</time>
      </trkpt>
      <trkpt lat="42.44876" lon="0.71013">
        <ele>926.4</ele>
        <time>2022-05-23 00:45:13</time>
      </trkpt>
      <trkpt lat="42.44868" lon="0.71013">
        <ele>926</ele>
        <time>2022-05-23 00:45:14</time>
      </trkpt>
      <trkpt lat="42.4486" lon="0.71013">
        <ele>925.6</ele>
        <time>2022-05-23 00:45:15</time>
      </trkpt>
      <trkpt lat="42.44852" lon="0.71013">
        <ele>925.2</ele>
        <time>2022-05-23 00:45:16</time>
      </trkpt>
      <trkpt lat="42.44843" lon="0.71013">
        <ele>924.6</ele>
        <time>2022-05-23 00:45:17</time>
      </trkpt>
      <trkpt lat="42.44834" lon="0.71012">
        <ele>924.2</ele>
        <time>2022-05-23 00:45:18</time>
      </trkpt>
      <trkpt lat="42.44825" lon="0.71012">
        <ele>923.8</ele>
        <time>2022-05-23 00:45:19</time>
      </trkpt>
      <trkpt lat="42.44817" lon="0.71012">
        <ele>923.4</ele>
        <time>2022-05-23 00:45:20</time>
      </trkpt>
      <trkpt lat="42.44808" lon="0.71011">
        <ele>922.8</ele>
        <time>2022-05-23 00:45:21</time>
      </trkpt>
      <trkpt lat="42.44799" lon="0.71011">
        <ele>922.4</ele>
        <time>2022-05-23 00:45:22</time>
      </trkpt>
      <trkpt lat="42.4479" lon="0.71011">
        <ele>921.8</ele>
        <time>2022-05-23 00:45:23</time>
      </trkpt>
      <trkpt lat="42.4478" lon="0.7101">
        <ele>921.4</ele>
        <time>2022-05-23 00:45:24</time>
      </trkpt>
      <trkpt lat="42.4477" lon="0.71009">
        <ele>920.8</ele>
        <time>2022-05-23 00:45:25</time>
      </trkpt>
      <trkpt lat="42.44761" lon="0.71009">
        <ele>920.4</ele>
        <time>2022-05-23 00:45:26</time>
      </trkpt>
      <trkpt lat="42.44751" lon="0.71008">
        <ele>919.8</ele>
        <time>2022-05-23 00:45:27</time>
      </trkpt>
      <trkpt lat="42.44742" lon="0.71008">
        <ele>919.4</ele>
        <time>2022-05-23 00:45:28</time>
      </trkpt>
      <trkpt lat="42.44732" lon="0.71006">
        <ele>919</ele>
        <time>2022-05-23 00:45:29</time>
      </trkpt>
      <trkpt lat="42.44723" lon="0.71005">
        <ele>918.6</ele>
        <time>2022-05-23 00:45:30</time>
      </trkpt>
      <trkpt lat="42.44713" lon="0.71004">
        <ele>918.2</ele>
        <time>2022-05-23 00:45:31</time>
      </trkpt>
      <trkpt lat="42.44703" lon="0.71003">
        <ele>917.6</ele>
        <time>2022-05-23 00:45:32</time>
      </trkpt>
      <trkpt lat="42.44694" lon="0.71003">
        <ele>917.2</ele>
        <time>2022-05-23 00:45:33</time>
      </trkpt>
      <trkpt lat="42.44684" lon="0.71002">
        <ele>916.8</ele>
        <time>2022-05-23 00:45:34</time>
      </trkpt>
      <trkpt lat="42.44674" lon="0.71001">
        <ele>916.2</ele>
        <time>2022-05-23 00:45:35</time>
      </trkpt>
      <trkpt lat="42.44664" lon="0.71">
        <ele>915.8</ele>
        <time>2022-05-23 00:45:36</time>
      </trkpt>
      <trkpt lat="42.44654" lon="0.71">
        <ele>915.4</ele>
        <time>2022-05-23 00:45:37</time>
      </trkpt>
      <trkpt lat="42.44644" lon="0.70999">
        <ele>915</ele>
        <time>2022-05-23 00:45:38</time>
      </trkpt>
      <trkpt lat="42.44635" lon="0.71">
        <ele>914.4</ele>
        <time>2022-05-23 00:45:39</time>
      </trkpt>
      <trkpt lat="42.44625" lon="0.71001">
        <ele>913.8</ele>
        <time>2022-05-23 00:45:40</time>
      </trkpt>
      <trkpt lat="42.44615" lon="0.71002">
        <ele>913.4</ele>
        <time>2022-05-23 00:45:41</time>
      </trkpt>
      <trkpt lat="42.44605" lon="0.71003">
        <ele>913</ele>
        <time>2022-05-23 00:45:42</time>
      </trkpt>
      <trkpt lat="42.44595" lon="0.71002">
        <ele>912.4</ele>
        <time>2022-05-23 00:45:43</time>
      </trkpt>
      <trkpt lat="42.44585" lon="0.71002">
        <ele>911.8</ele>
        <time>2022-05-23 00:45:44</time>
      </trkpt>
      <trkpt lat="42.44574" lon="0.71001">
        <ele>911.4</ele>
        <time>2022-05-23 00:45:45</time>
      </trkpt>
      <trkpt lat="42.44565" lon="0.71001">
        <ele>910.8</ele>
        <time>2022-05-23 00:45:46</time>
      </trkpt>
      <trkpt lat="42.44555" lon="0.71002">
        <ele>910.4</ele>
        <time>2022-05-23 00:45:47</time>
      </trkpt>
      <trkpt lat="42.44545" lon="0.71002">
        <ele>910</ele>
        <time>2022-05-23 00:45:48</time>
      </trkpt>
      <trkpt lat="42.44535" lon="0.71004">
        <ele>909.8</ele>
        <time>2022-05-23 00:45:49</time>
      </trkpt>
      <trkpt lat="42.44526" lon="0.71006">
        <ele>909.4</ele>
        <time>2022-05-23 00:45:50</time>
      </trkpt>
      <trkpt lat="42.44516" lon="0.71008">
        <ele>909.2</ele>
        <time>2022-05-23 00:45:51</time>
      </trkpt>
      <trkpt lat="42.44507" lon="0.71011">
        <ele>909.2</ele>
        <time>2022-05-23 00:45:52</time>
      </trkpt>
      <trkpt lat="42.44498" lon="0.71015">
        <ele>909</ele>
        <time>2022-05-23 00:45:53</time>
      </trkpt>
      <trkpt lat="42.44489" lon="0.71019">
        <ele>908.8</ele>
        <time>2022-05-23 00:45:54</time>
      </trkpt>
      <trkpt lat="42.44481" lon="0.71023">
        <ele>908.6</ele>
        <time>2022-05-23 00:45:55</time>
      </trkpt>
      <trkpt lat="42.44473" lon="0.71027">
        <ele>908.6</ele>
        <time>2022-05-23 00:45:56</time>
      </trkpt>
      <trkpt lat="42.44465" lon="0.71031">
        <ele>908.4</ele>
        <time>2022-05-23 00:45:57</time>
      </trkpt>
      <trkpt lat="42.44457" lon="0.71035">
        <ele>908.2</ele>
        <time>2022-05-23 00:45:58</time>
      </trkpt>
      <trkpt lat="42.4445" lon="0.71039">
        <ele>908</ele>
        <time>2022-05-23 00:45:59</time>
      </trkpt>
      <trkpt lat="42.44441" lon="0.71043">
        <ele>907.8</ele>
        <time>2022-05-23 00:46:00</time>
      </trkpt>
      <trkpt lat="42.44433" lon="0.71047">
        <ele>907.6</ele>
        <time>2022-05-23 00:46:01</time>
      </trkpt>
      <trkpt lat="42.44425" lon="0.71052">
        <ele>907.2</ele>
        <time>2022-05-23 00:46:02</time>
      </trkpt>
      <trkpt lat="42.44418" lon="0.71056">
        <ele>907</ele>
        <time>2022-05-23 00:46:03</time>
      </trkpt>
      <trkpt lat="42.4441" lon="0.71061">
        <ele>906.8</ele>
        <time>2022-05-23 00:46:04</time>
      </trkpt>
      <trkpt lat="42.44402" lon="0.71065">
        <ele>906.6</ele>
        <time>2022-05-23 00:46:05</time>
      </trkpt>
      <trkpt lat="42.44394" lon="0.71069">
        <ele>906.4</ele>
        <time>2022-05-23 00:46:06</time>
      </trkpt>
      <trkpt lat="42.44386" lon="0.71074">
        <ele>906.2</ele>
        <time>2022-05-23 00:46:07</time>
      </trkpt>
      <trkpt lat="42.44378" lon="0.71079">
        <ele>905.8</ele>
        <time>2022-05-23 00:46:08</time>
      </trkpt>
      <trkpt lat="42.4437" lon="0.71084">
        <ele>905.6</ele>
        <time>2022-05-23 00:46:09</time>
      </trkpt>
      <trkpt lat="42.44363" lon="0.71089">
        <ele>905.2</ele>
        <time>2022-05-23 00:46:10</time>
      </trkpt>
      <trkpt lat="42.44356" lon="0.71095">
        <ele>905</ele>
        <time>2022-05-23 00:46:11</time>
      </trkpt>
      <trkpt lat="42.44348" lon="0.711">
        <ele>904.8</ele>
        <time>2022-05-23 00:46:12</time>
      </trkpt>
      <trkpt lat="42.4434" lon="0.71104">
        <ele>904.4</ele>
        <time>2022-05-23 00:46:13</time>
      </trkpt>
      <trkpt lat="42.44333" lon="0.71109">
        <ele>904.2</ele>
        <time>2022-05-23 00:46:14</time>
      </trkpt>
      <trkpt lat="42.44326" lon="0.71113">
        <ele>904</ele>
        <time>2022-05-23 00:46:15</time>
      </trkpt>
      <trkpt lat="42.44318" lon="0.71117">
        <ele>903.8</ele>
        <time>2022-05-23 00:46:16</time>
      </trkpt>
      <trkpt lat="42.4431" lon="0.71121">
        <ele>903.6</ele>
        <time>2022-05-23 00:46:17</time>
      </trkpt>
      <trkpt lat="42.44303" lon="0.71125">
        <ele>903.4</ele>
        <time>2022-05-23 00:46:18</time>
      </trkpt>
      <trkpt lat="42.44295" lon="0.71128">
        <ele>903</ele>
        <time>2022-05-23 00:46:19</time>
      </trkpt>
      <trkpt lat="42.44287" lon="0.71131">
        <ele>902.8</ele>
        <time>2022-05-23 00:46:20</time>
      </trkpt>
      <trkpt lat="42.44279" lon="0.71134">
        <ele>902.6</ele>
        <time>2022-05-23 00:46:21</time>
      </trkpt>
      <trkpt lat="42.44271" lon="0.71136">
        <ele>902.6</ele>
        <time>2022-05-23 00:46:22</time>
      </trkpt>
      <trkpt lat="42.44264" lon="0.71139">
        <ele>902.4</ele>
        <time>2022-05-23 00:46:23</time>
      </trkpt>
      <trkpt lat="42.44257" lon="0.71141">
        <ele>902.2</ele>
        <time>2022-05-23 00:46:24</time>
      </trkpt>
      <trkpt lat="42.4425" lon="0.71144">
        <ele>902.2</ele>
        <time>2022-05-23 00:46:25</time>
      </trkpt>
      <trkpt lat="42.44243" lon="0.71146">
        <ele>902</ele>
        <time>2022-05-23 00:46:26</time>
      </trkpt>
      <trkpt lat="42.44235" lon="0.71149">
        <ele>902</ele>
        <time>2022-05-23 00:46:27</time>
      </trkpt>
      <trkpt lat="42.44229" lon="0.71151">
        <ele>902</ele>
        <time>2022-05-23 00:46:28</time>
      </trkpt>
      <trkpt lat="42.44221" lon="0.71153">
        <ele>901.8</ele>
        <time>2022-05-23 00:46:29</time>
      </trkpt>
      <trkpt lat="42.44214" lon="0.71156">
        <ele>901.8</ele>
        <time>2022-05-23 00:46:30</time>
      </trkpt>
      <trkpt lat="42.44207" lon="0.71158">
        <ele>901.6</ele>
        <time>2022-05-23 00:46:31</time>
      </trkpt>
      <trkpt lat="42.442" lon="0.7116">
        <ele>901.6</ele>
        <time>2022-05-23 00:46:32</time>
      </trkpt>
      <trkpt lat="42.44193" lon="0.71162">
        <ele>901.6</ele>
        <time>2022-05-23 00:46:33</time>
      </trkpt>
      <trkpt lat="42.44186" lon="0.71164">
        <ele>901.6</ele>
        <time>2022-05-23 00:46:34</time>
      </trkpt>
      <trkpt lat="42.44179" lon="0.71167">
        <ele>901.4</ele>
        <time>2022-05-23 00:46:35</time>
      </trkpt>
      <trkpt lat="42.44172" lon="0.71169">
        <ele>901.4</ele>
        <time>2022-05-23 00:46:36</time>
      </trkpt>
      <trkpt lat="42.44164" lon="0.71172">
        <ele>901.2</ele>
        <time>2022-05-23 00:46:37</time>
      </trkpt>
      <trkpt lat="42.44157" lon="0.71175">
        <ele>901.2</ele>
        <time>2022-05-23 00:46:38</time>
      </trkpt>
      <trkpt lat="42.44149" lon="0.71178">
        <ele>901</ele>
        <time>2022-05-23 00:46:39</time>
      </trkpt>
      <trkpt lat="42.44142" lon="0.71181">
        <ele>901</ele>
        <time>2022-05-23 00:46:40</time>
      </trkpt>
      <trkpt lat="42.44134" lon="0.71184">
        <ele>900.8</ele>
        <time>2022-05-23 00:46:41</time>
      </trkpt>
      <trkpt lat="42.44127" lon="0.71186">
        <ele>900.6</ele>
        <time>2022-05-23 00:46:42</time>
      </trkpt>
      <trkpt lat="42.4412" lon="0.71189">
        <ele>900.6</ele>
        <time>2022-05-23 00:46:43</time>
      </trkpt>
      <trkpt lat="42.44112" lon="0.71192">
        <ele>900.4</ele>
        <time>2022-05-23 00:46:44</time>
      </trkpt>
      <trkpt lat="42.44105" lon="0.71194">
        <ele>900.2</ele>
        <time>2022-05-23 00:46:45</time>
      </trkpt>
      <trkpt lat="42.44097" lon="0.71196">
        <ele>900</ele>
        <time>2022-05-23 00:46:46</time>
      </trkpt>
      <trkpt lat="42.4409" lon="0.71199">
        <ele>899.8</ele>
        <time>2022-05-23 00:46:47</time>
      </trkpt>
      <trkpt lat="42.44083" lon="0.71201">
        <ele>899.6</ele>
        <time>2022-05-23 00:46:48</time>
      </trkpt>
      <trkpt lat="42.44076" lon="0.71203">
        <ele>899.6</ele>
        <time>2022-05-23 00:46:49</time>
      </trkpt>
      <trkpt lat="42.44069" lon="0.71205">
        <ele>899.4</ele>
        <time>2022-05-23 00:46:50</time>
      </trkpt>
      <trkpt lat="42.44062" lon="0.71208">
        <ele>899.2</ele>
        <time>2022-05-23 00:46:51</time>
      </trkpt>
      <trkpt lat="42.44054" lon="0.7121">
        <ele>899.2</ele>
        <time>2022-05-23 00:46:52</time>
      </trkpt>
      <trkpt lat="42.44048" lon="0.71213">
        <ele>899.2</ele>
        <time>2022-05-23 00:46:53</time>
      </trkpt>
      <trkpt lat="42.44041" lon="0.71215">
        <ele>899.2</ele>
        <time>2022-05-23 00:46:54</time>
      </trkpt>
      <trkpt lat="42.44034" lon="0.71218">
        <ele>899.2</ele>
        <time>2022-05-23 00:46:55</time>
      </trkpt>
      <trkpt lat="42.44028" lon="0.7122">
        <ele>899</ele>
        <time>2022-05-23 00:46:56</time>
      </trkpt>
      <trkpt lat="42.44021" lon="0.71222">
        <ele>899</ele>
        <time>2022-05-23 00:46:57</time>
      </trkpt>
      <trkpt lat="42.44015" lon="0.71225">
        <ele>898.8</ele>
        <time>2022-05-23 00:46:58</time>
      </trkpt>
      <trkpt lat="42.44009" lon="0.71227">
        <ele>898.6</ele>
        <time>2022-05-23 00:46:59</time>
      </trkpt>
      <trkpt lat="42.44002" lon="0.71229">
        <ele>898.6</ele>
        <time>2022-05-23 00:47:00</time>
      </trkpt>
      <trkpt lat="42.43995" lon="0.71231">
        <ele>898.4</ele>
        <time>2022-05-23 00:47:01</time>
      </trkpt>
      <trkpt lat="42.43988" lon="0.71234">
        <ele>898.2</ele>
        <time>2022-05-23 00:47:02</time>
      </trkpt>
      <trkpt lat="42.43981" lon="0.71237">
        <ele>898</ele>
        <time>2022-05-23 00:47:03</time>
      </trkpt>
      <trkpt lat="42.43975" lon="0.71239">
        <ele>897.8</ele>
        <time>2022-05-23 00:47:04</time>
      </trkpt>
      <trkpt lat="42.43968" lon="0.71242">
        <ele>897.8</ele>
        <time>2022-05-23 00:47:05</time>
      </trkpt>
      <trkpt lat="42.43962" lon="0.71244">
        <ele>897.6</ele>
        <time>2022-05-23 00:47:06</time>
      </trkpt>
      <trkpt lat="42.43955" lon="0.71247">
        <ele>897.4</ele>
        <time>2022-05-23 00:47:07</time>
      </trkpt>
      <trkpt lat="42.43949" lon="0.71249">
        <ele>897.4</ele>
        <time>2022-05-23 00:47:08</time>
      </trkpt>
      <trkpt lat="42.43942" lon="0.71251">
        <ele>897.2</ele>
        <time>2022-05-23 00:47:09</time>
      </trkpt>
      <trkpt lat="42.43935" lon="0.71253">
        <ele>897</ele>
        <time>2022-05-23 00:47:10</time>
      </trkpt>
      <trkpt lat="42.43928" lon="0.71256">
        <ele>896.8</ele>
        <time>2022-05-23 00:47:11</time>
      </trkpt>
      <trkpt lat="42.43921" lon="0.71258">
        <ele>896.8</ele>
        <time>2022-05-23 00:47:12</time>
      </trkpt>
      <trkpt lat="42.43914" lon="0.71261">
        <ele>896.6</ele>
        <time>2022-05-23 00:47:13</time>
      </trkpt>
      <trkpt lat="42.43907" lon="0.71264">
        <ele>896.4</ele>
        <time>2022-05-23 00:47:14</time>
      </trkpt>
      <trkpt lat="42.439" lon="0.71267">
        <ele>896.4</ele>
        <time>2022-05-23 00:47:15</time>
      </trkpt>
      <trkpt lat="42.43893" lon="0.7127">
        <ele>896.2</ele>
        <time>2022-05-23 00:47:16</time>
      </trkpt>
      <trkpt lat="42.43886" lon="0.71272">
        <ele>896.2</ele>
        <time>2022-05-23 00:47:17</time>
      </trkpt>
      <trkpt lat="42.43879" lon="0.71275">
        <ele>896</ele>
        <time>2022-05-23 00:47:18</time>
      </trkpt>
      <trkpt lat="42.43873" lon="0.71277">
        <ele>895.8</ele>
        <time>2022-05-23 00:47:19</time>
      </trkpt>
      <trkpt lat="42.43866" lon="0.71279">
        <ele>895.8</ele>
        <time>2022-05-23 00:47:20</time>
      </trkpt>
      <trkpt lat="42.43859" lon="0.71282">
        <ele>895.6</ele>
        <time>2022-05-23 00:47:21</time>
      </trkpt>
      <trkpt lat="42.43852" lon="0.71284">
        <ele>895.6</ele>
        <time>2022-05-23 00:47:22</time>
      </trkpt>
      <trkpt lat="42.43845" lon="0.71286">
        <ele>895.4</ele>
        <time>2022-05-23 00:47:23</time>
      </trkpt>
      <trkpt lat="42.43838" lon="0.71289">
        <ele>895.4</ele>
        <time>2022-05-23 00:47:24</time>
      </trkpt>
      <trkpt lat="42.43831" lon="0.71291">
        <ele>895.2</ele>
        <time>2022-05-23 00:47:25</time>
      </trkpt>
      <trkpt lat="42.43824" lon="0.71293">
        <ele>895.2</ele>
        <time>2022-05-23 00:47:26</time>
      </trkpt>
      <trkpt lat="42.43818" lon="0.71295">
        <ele>895</ele>
        <time>2022-05-23 00:47:27</time>
      </trkpt>
      <trkpt lat="42.43811" lon="0.71297">
        <ele>895</ele>
        <time>2022-05-23 00:47:28</time>
      </trkpt>
      <trkpt lat="42.43805" lon="0.713">
        <ele>895</ele>
        <time>2022-05-23 00:47:29</time>
      </trkpt>
      <trkpt lat="42.43799" lon="0.71302">
        <ele>894.8</ele>
        <time>2022-05-23 00:47:30</time>
      </trkpt>
      <trkpt lat="42.43793" lon="0.71304">
        <ele>894.8</ele>
        <time>2022-05-23 00:47:31</time>
      </trkpt>
      <trkpt lat="42.43786" lon="0.71306">
        <ele>894.8</ele>
        <time>2022-05-23 00:47:32</time>
      </trkpt>
      <trkpt lat="42.4378" lon="0.71308">
        <ele>894.8</ele>
        <time>2022-05-23 00:47:33</time>
      </trkpt>
      <trkpt lat="42.43775" lon="0.7131">
        <ele>894.8</ele>
        <time>2022-05-23 00:47:34</time>
      </trkpt>
      <trkpt lat="42.43768" lon="0.71313">
        <ele>894.8</ele>
        <time>2022-05-23 00:47:35</time>
      </trkpt>
      <trkpt lat="42.43762" lon="0.71315">
        <ele>894.8</ele>
        <time>2022-05-23 00:47:36</time>
      </trkpt>
      <trkpt lat="42.43757" lon="0.71317">
        <ele>894.8</ele>
        <time>2022-05-23 00:47:37</time>
      </trkpt>
      <trkpt lat="42.43751" lon="0.71319">
        <ele>894.6</ele>
        <time>2022-05-23 00:47:38</time>
      </trkpt>
      <trkpt lat="42.43744" lon="0.71322">
        <ele>894.6</ele>
        <time>2022-05-23 00:47:39</time>
      </trkpt>
      <trkpt lat="42.43738" lon="0.71324">
        <ele>894.6</ele>
        <time>2022-05-23 00:47:40</time>
      </trkpt>
      <trkpt lat="42.43733" lon="0.71327">
        <ele>894.4</ele>
        <time>2022-05-23 00:47:41</time>
      </trkpt>
      <trkpt lat="42.43727" lon="0.71331">
        <ele>894.4</ele>
        <time>2022-05-23 00:47:42</time>
      </trkpt>
      <trkpt lat="42.4372" lon="0.71334">
        <ele>894.2</ele>
        <time>2022-05-23 00:47:43</time>
      </trkpt>
      <trkpt lat="42.43714" lon="0.71338">
        <ele>894</ele>
        <time>2022-05-23 00:47:44</time>
      </trkpt>
      <trkpt lat="42.43708" lon="0.71342">
        <ele>894</ele>
        <time>2022-05-23 00:47:45</time>
      </trkpt>
      <trkpt lat="42.43702" lon="0.71346">
        <ele>893.8</ele>
        <time>2022-05-23 00:47:46</time>
      </trkpt>
      <trkpt lat="42.43696" lon="0.7135">
        <ele>893.6</ele>
        <time>2022-05-23 00:47:47</time>
      </trkpt>
      <trkpt lat="42.4369" lon="0.71355">
        <ele>893.4</ele>
        <time>2022-05-23 00:47:48</time>
      </trkpt>
      <trkpt lat="42.43684" lon="0.7136">
        <ele>893</ele>
        <time>2022-05-23 00:47:49</time>
      </trkpt>
      <trkpt lat="42.43678" lon="0.71365">
        <ele>892.8</ele>
        <time>2022-05-23 00:47:50</time>
      </trkpt>
      <trkpt lat="42.43671" lon="0.71369">
        <ele>892.6</ele>
        <time>2022-05-23 00:47:51</time>
      </trkpt>
      <trkpt lat="42.43665" lon="0.71374">
        <ele>892.2</ele>
        <time>2022-05-23 00:47:52</time>
      </trkpt>
      <trkpt lat="42.43658" lon="0.71378">
        <ele>892</ele>
        <time>2022-05-23 00:47:53</time>
      </trkpt>
      <trkpt lat="42.43651" lon="0.71384">
        <ele>891.6</ele>
        <time>2022-05-23 00:47:54</time>
      </trkpt>
      <trkpt lat="42.43644" lon="0.71389">
        <ele>891.2</ele>
        <time>2022-05-23 00:47:55</time>
      </trkpt>
      <trkpt lat="42.43637" lon="0.71395">
        <ele>891</ele>
        <time>2022-05-23 00:47:56</time>
      </trkpt>
      <trkpt lat="42.4363" lon="0.714">
        <ele>890.6</ele>
        <time>2022-05-23 00:47:57</time>
      </trkpt>
      <trkpt lat="42.43622" lon="0.71405">
        <ele>890.2</ele>
        <time>2022-05-23 00:47:58</time>
      </trkpt>
      <trkpt lat="42.43615" lon="0.7141">
        <ele>889.8</ele>
        <time>2022-05-23 00:47:59</time>
      </trkpt>
      <trkpt lat="42.43608" lon="0.71415">
        <ele>889.4</ele>
        <time>2022-05-23 00:48:00</time>
      </trkpt>
      <trkpt lat="42.436" lon="0.71421">
        <ele>889</ele>
        <time>2022-05-23 00:48:01</time>
      </trkpt>
      <trkpt lat="42.43592" lon="0.71426">
        <ele>888.6</ele>
        <time>2022-05-23 00:48:02</time>
      </trkpt>
      <trkpt lat="42.43584" lon="0.71431">
        <ele>888.2</ele>
        <time>2022-05-23 00:48:03</time>
      </trkpt>
      <trkpt lat="42.43576" lon="0.71436">
        <ele>887.8</ele>
        <time>2022-05-23 00:48:04</time>
      </trkpt>
      <trkpt lat="42.43568" lon="0.7144">
        <ele>887.2</ele>
        <time>2022-05-23 00:48:05</time>
      </trkpt>
      <trkpt lat="42.43559" lon="0.71445">
        <ele>886.8</ele>
        <time>2022-05-23 00:48:06</time>
      </trkpt>
      <trkpt lat="42.4355" lon="0.71447">
        <ele>886.4</ele>
        <time>2022-05-23 00:48:07</time>
      </trkpt>
      <trkpt lat="42.43541" lon="0.7145">
        <ele>886</ele>
        <time>2022-05-23 00:48:08</time>
      </trkpt>
      <trkpt lat="42.43532" lon="0.71452">
        <ele>885.4</ele>
        <time>2022-05-23 00:48:09</time>
      </trkpt>
      <trkpt lat="42.43522" lon="0.71454">
        <ele>885</ele>
        <time>2022-05-23 00:48:10</time>
      </trkpt>
      <trkpt lat="42.43512" lon="0.71457">
        <ele>884.6</ele>
        <time>2022-05-23 00:48:11</time>
      </trkpt>
      <trkpt lat="42.43502" lon="0.7146">
        <ele>884</ele>
        <time>2022-05-23 00:48:12</time>
      </trkpt>
      <trkpt lat="42.43492" lon="0.71462">
        <ele>883.6</ele>
        <time>2022-05-23 00:48:13</time>
      </trkpt>
      <trkpt lat="42.43483" lon="0.71465">
        <ele>883.2</ele>
        <time>2022-05-23 00:48:14</time>
      </trkpt>
      <trkpt lat="42.43474" lon="0.71467">
        <ele>882.8</ele>
        <time>2022-05-23 00:48:15</time>
      </trkpt>
      <trkpt lat="42.43464" lon="0.71469">
        <ele>882.2</ele>
        <time>2022-05-23 00:48:16</time>
      </trkpt>
      <trkpt lat="42.43454" lon="0.71471">
        <ele>881.8</ele>
        <time>2022-05-23 00:48:17</time>
      </trkpt>
      <trkpt lat="42.43445" lon="0.71474">
        <ele>881.4</ele>
        <time>2022-05-23 00:48:18</time>
      </trkpt>
      <trkpt lat="42.43435" lon="0.71476">
        <ele>881.2</ele>
        <time>2022-05-23 00:48:19</time>
      </trkpt>
      <trkpt lat="42.43426" lon="0.71478">
        <ele>881</ele>
        <time>2022-05-23 00:48:20</time>
      </trkpt>
      <trkpt lat="42.43418" lon="0.7148">
        <ele>880.8</ele>
        <time>2022-05-23 00:48:21</time>
      </trkpt>
      <trkpt lat="42.43409" lon="0.71483">
        <ele>880.6</ele>
        <time>2022-05-23 00:48:22</time>
      </trkpt>
      <trkpt lat="42.434" lon="0.71486">
        <ele>880.4</ele>
        <time>2022-05-23 00:48:23</time>
      </trkpt>
      <trkpt lat="42.43392" lon="0.7149">
        <ele>880.2</ele>
        <time>2022-05-23 00:48:24</time>
      </trkpt>
      <trkpt lat="42.43384" lon="0.71496">
        <ele>880</ele>
        <time>2022-05-23 00:48:25</time>
      </trkpt>
      <trkpt lat="42.43376" lon="0.71501">
        <ele>880</ele>
        <time>2022-05-23 00:48:26</time>
      </trkpt>
      <trkpt lat="42.43369" lon="0.71508">
        <ele>880</ele>
        <time>2022-05-23 00:48:27</time>
      </trkpt>
      <trkpt lat="42.43362" lon="0.71515">
        <ele>880</ele>
        <time>2022-05-23 00:48:28</time>
      </trkpt>
      <trkpt lat="42.43356" lon="0.71523">
        <ele>880</ele>
        <time>2022-05-23 00:48:29</time>
      </trkpt>
      <trkpt lat="42.4335" lon="0.71531">
        <ele>880</ele>
        <time>2022-05-23 00:48:30</time>
      </trkpt>
      <trkpt lat="42.43345" lon="0.71539">
        <ele>880</ele>
        <time>2022-05-23 00:48:31</time>
      </trkpt>
      <trkpt lat="42.43339" lon="0.71547">
        <ele>880</ele>
        <time>2022-05-23 00:48:32</time>
      </trkpt>
      <trkpt lat="42.43335" lon="0.71555">
        <ele>880</ele>
        <time>2022-05-23 00:48:33</time>
      </trkpt>
      <trkpt lat="42.43331" lon="0.71564">
        <ele>880</ele>
        <time>2022-05-23 00:48:34</time>
      </trkpt>
      <trkpt lat="42.43327" lon="0.71573">
        <ele>879.8</ele>
        <time>2022-05-23 00:48:35</time>
      </trkpt>
      <trkpt lat="42.43323" lon="0.71582">
        <ele>879.8</ele>
        <time>2022-05-23 00:48:36</time>
      </trkpt>
      <trkpt lat="42.4332" lon="0.71591">
        <ele>879.8</ele>
        <time>2022-05-23 00:48:37</time>
      </trkpt>
      <trkpt lat="42.43317" lon="0.71601">
        <ele>879.8</ele>
        <time>2022-05-23 00:48:38</time>
      </trkpt>
      <trkpt lat="42.43314" lon="0.7161">
        <ele>879.8</ele>
        <time>2022-05-23 00:48:39</time>
      </trkpt>
      <trkpt lat="42.43312" lon="0.71619">
        <ele>879.8</ele>
        <time>2022-05-23 00:48:40</time>
      </trkpt>
      <trkpt lat="42.43309" lon="0.71628">
        <ele>879.8</ele>
        <time>2022-05-23 00:48:41</time>
      </trkpt>
      <trkpt lat="42.43307" lon="0.71637">
        <ele>879.8</ele>
        <time>2022-05-23 00:48:42</time>
      </trkpt>
      <trkpt lat="42.43304" lon="0.71645">
        <ele>879.8</ele>
        <time>2022-05-23 00:48:43</time>
      </trkpt>
      <trkpt lat="42.43302" lon="0.71654">
        <ele>880</ele>
        <time>2022-05-23 00:48:44</time>
      </trkpt>
      <trkpt lat="42.433" lon="0.71663">
        <ele>880</ele>
        <time>2022-05-23 00:48:45</time>
      </trkpt>
      <trkpt lat="42.43298" lon="0.71671">
        <ele>880</ele>
        <time>2022-05-23 00:48:46</time>
      </trkpt>
      <trkpt lat="42.43296" lon="0.7168">
        <ele>880</ele>
        <time>2022-05-23 00:48:47</time>
      </trkpt>
      <trkpt lat="42.43293" lon="0.71688">
        <ele>880</ele>
        <time>2022-05-23 00:48:48</time>
      </trkpt>
      <trkpt lat="42.43291" lon="0.71696">
        <ele>880.2</ele>
        <time>2022-05-23 00:48:49</time>
      </trkpt>
      <trkpt lat="42.43288" lon="0.71704">
        <ele>880.2</ele>
        <time>2022-05-23 00:48:50</time>
      </trkpt>
      <trkpt lat="42.43286" lon="0.71712">
        <ele>880.2</ele>
        <time>2022-05-23 00:48:51</time>
      </trkpt>
      <trkpt lat="42.43284" lon="0.71719">
        <ele>880.4</ele>
        <time>2022-05-23 00:48:52</time>
      </trkpt>
      <trkpt lat="42.43283" lon="0.71726">
        <ele>880.4</ele>
        <time>2022-05-23 00:48:53</time>
      </trkpt>
      <trkpt lat="42.4328" lon="0.71733">
        <ele>880.4</ele>
        <time>2022-05-23 00:48:54</time>
      </trkpt>
      <trkpt lat="42.43278" lon="0.7174">
        <ele>880.6</ele>
        <time>2022-05-23 00:48:55</time>
      </trkpt>
      <trkpt lat="42.43276" lon="0.71746">
        <ele>880.6</ele>
        <time>2022-05-23 00:48:56</time>
      </trkpt>
      <trkpt lat="42.43274" lon="0.71753">
        <ele>880.8</ele>
        <time>2022-05-23 00:48:57</time>
      </trkpt>
      <trkpt lat="42.43271" lon="0.71759">
        <ele>880.8</ele>
        <time>2022-05-23 00:48:58</time>
      </trkpt>
      <trkpt lat="42.43269" lon="0.71766">
        <ele>880.8</ele>
        <time>2022-05-23 00:48:59</time>
      </trkpt>
      <trkpt lat="42.43267" lon="0.71772">
        <ele>880.8</ele>
        <time>2022-05-23 00:49:00</time>
      </trkpt>
      <trkpt lat="42.43264" lon="0.71777">
        <ele>881</ele>
        <time>2022-05-23 00:49:01</time>
      </trkpt>
      <trkpt lat="42.43262" lon="0.71783">
        <ele>881</ele>
        <time>2022-05-23 00:49:02</time>
      </trkpt>
      <trkpt lat="42.43259" lon="0.71789">
        <ele>881</ele>
        <time>2022-05-23 00:49:03</time>
      </trkpt>
      <trkpt lat="42.43257" lon="0.71795">
        <ele>881</ele>
        <time>2022-05-23 00:49:04</time>
      </trkpt>
      <trkpt lat="42.43254" lon="0.718">
        <ele>881.2</ele>
        <time>2022-05-23 00:49:05</time>
      </trkpt>
      <trkpt lat="42.43251" lon="0.71806">
        <ele>881.2</ele>
        <time>2022-05-23 00:49:06</time>
      </trkpt>
      <trkpt lat="42.43249" lon="0.71811">
        <ele>881.4</ele>
        <time>2022-05-23 00:49:07</time>
      </trkpt>
      <trkpt lat="42.43246" lon="0.71816">
        <ele>881.4</ele>
        <time>2022-05-23 00:49:08</time>
      </trkpt>
      <trkpt lat="42.43243" lon="0.71821">
        <ele>881.4</ele>
        <time>2022-05-23 00:49:09</time>
      </trkpt>
      <trkpt lat="42.43241" lon="0.71826">
        <ele>881.6</ele>
        <time>2022-05-23 00:49:10</time>
      </trkpt>
      <trkpt lat="42.43238" lon="0.71831">
        <ele>881.6</ele>
        <time>2022-05-23 00:49:11</time>
      </trkpt>
      <trkpt lat="42.43235" lon="0.71836">
        <ele>881.6</ele>
        <time>2022-05-23 00:49:12</time>
      </trkpt>
      <trkpt lat="42.43233" lon="0.71841">
        <ele>881.6</ele>
        <time>2022-05-23 00:49:13</time>
      </trkpt>
      <trkpt lat="42.4323" lon="0.71846">
        <ele>881.6</ele>
        <time>2022-05-23 00:49:14</time>
      </trkpt>
      <trkpt lat="42.43227" lon="0.7185">
        <ele>881.8</ele>
        <time>2022-05-23 00:49:15</time>
      </trkpt>
      <trkpt lat="42.43224" lon="0.71855">
        <ele>881.8</ele>
        <time>2022-05-23 00:49:16</time>
      </trkpt>
      <trkpt lat="42.43222" lon="0.71861">
        <ele>881.8</ele>
        <time>2022-05-23 00:49:17</time>
      </trkpt>
      <trkpt lat="42.43219" lon="0.71866">
        <ele>881.8</ele>
        <time>2022-05-23 00:49:18</time>
      </trkpt>
      <trkpt lat="42.43216" lon="0.71871">
        <ele>881.6</ele>
        <time>2022-05-23 00:49:19</time>
      </trkpt>
      <trkpt lat="42.43213" lon="0.71876">
        <ele>881.6</ele>
        <time>2022-05-23 00:49:20</time>
      </trkpt>
      <trkpt lat="42.43211" lon="0.71881">
        <ele>881.6</ele>
        <time>2022-05-23 00:49:21</time>
      </trkpt>
      <trkpt lat="42.43208" lon="0.71887">
        <ele>881.6</ele>
        <time>2022-05-23 00:49:22</time>
      </trkpt>
      <trkpt lat="42.43205" lon="0.71892">
        <ele>881.6</ele>
        <time>2022-05-23 00:49:23</time>
      </trkpt>
      <trkpt lat="42.43202" lon="0.71898">
        <ele>881.6</ele>
        <time>2022-05-23 00:49:24</time>
      </trkpt>
      <trkpt lat="42.432" lon="0.71903">
        <ele>881.6</ele>
        <time>2022-05-23 00:49:25</time>
      </trkpt>
      <trkpt lat="42.43197" lon="0.71908">
        <ele>881.6</ele>
        <time>2022-05-23 00:49:26</time>
      </trkpt>
      <trkpt lat="42.43194" lon="0.71913">
        <ele>881.6</ele>
        <time>2022-05-23 00:49:27</time>
      </trkpt>
      <trkpt lat="42.43191" lon="0.71918">
        <ele>881.6</ele>
        <time>2022-05-23 00:49:28</time>
      </trkpt>
      <trkpt lat="42.43188" lon="0.71924">
        <ele>881.6</ele>
        <time>2022-05-23 00:49:29</time>
      </trkpt>
      <trkpt lat="42.43185" lon="0.71929">
        <ele>881.6</ele>
        <time>2022-05-23 00:49:30</time>
      </trkpt>
      <trkpt lat="42.43183" lon="0.71933">
        <ele>881.8</ele>
        <time>2022-05-23 00:49:31</time>
      </trkpt>
      <trkpt lat="42.43181" lon="0.71938">
        <ele>881.8</ele>
        <time>2022-05-23 00:49:32</time>
      </trkpt>
      <trkpt lat="42.43179" lon="0.71943">
        <ele>881.8</ele>
        <time>2022-05-23 00:49:33</time>
      </trkpt>
      <trkpt lat="42.43176" lon="0.71948">
        <ele>881.8</ele>
        <time>2022-05-23 00:49:34</time>
      </trkpt>
      <trkpt lat="42.43174" lon="0.71953">
        <ele>881.8</ele>
        <time>2022-05-23 00:49:35</time>
      </trkpt>
      <trkpt lat="42.43172" lon="0.71959">
        <ele>881.8</ele>
        <time>2022-05-23 00:49:36</time>
      </trkpt>
      <trkpt lat="42.4317" lon="0.71964">
        <ele>881.8</ele>
        <time>2022-05-23 00:49:37</time>
      </trkpt>
      <trkpt lat="42.43168" lon="0.7197">
        <ele>881.8</ele>
        <time>2022-05-23 00:49:38</time>
      </trkpt>
      <trkpt lat="42.43166" lon="0.71977">
        <ele>881.6</ele>
        <time>2022-05-23 00:49:39</time>
      </trkpt>
      <trkpt lat="42.43164" lon="0.71984">
        <ele>881.6</ele>
        <time>2022-05-23 00:49:40</time>
      </trkpt>
      <trkpt lat="42.43162" lon="0.71991">
        <ele>881.4</ele>
        <time>2022-05-23 00:49:41</time>
      </trkpt>
      <trkpt lat="42.43159" lon="0.71998">
        <ele>881.2</ele>
        <time>2022-05-23 00:49:42</time>
      </trkpt>
      <trkpt lat="42.43157" lon="0.72006">
        <ele>881.2</ele>
        <time>2022-05-23 00:49:43</time>
      </trkpt>
      <trkpt lat="42.43155" lon="0.72013">
        <ele>881</ele>
        <time>2022-05-23 00:49:44</time>
      </trkpt>
      <trkpt lat="42.43152" lon="0.72021">
        <ele>880.8</ele>
        <time>2022-05-23 00:49:45</time>
      </trkpt>
      <trkpt lat="42.4315" lon="0.72029">
        <ele>880.8</ele>
        <time>2022-05-23 00:49:46</time>
      </trkpt>
      <trkpt lat="42.43147" lon="0.72037">
        <ele>880.8</ele>
        <time>2022-05-23 00:49:47</time>
      </trkpt>
      <trkpt lat="42.43145" lon="0.72044">
        <ele>880.6</ele>
        <time>2022-05-23 00:49:48</time>
      </trkpt>
      <trkpt lat="42.43142" lon="0.72052">
        <ele>880.4</ele>
        <time>2022-05-23 00:49:49</time>
      </trkpt>
      <trkpt lat="42.43139" lon="0.72061">
        <ele>880.4</ele>
        <time>2022-05-23 00:49:50</time>
      </trkpt>
      <trkpt lat="42.43137" lon="0.7207">
        <ele>880.2</ele>
        <time>2022-05-23 00:49:51</time>
      </trkpt>
      <trkpt lat="42.43134" lon="0.72079">
        <ele>880</ele>
        <time>2022-05-23 00:49:52</time>
      </trkpt>
      <trkpt lat="42.43131" lon="0.72087">
        <ele>879.8</ele>
        <time>2022-05-23 00:49:53</time>
      </trkpt>
      <trkpt lat="42.43128" lon="0.72096">
        <ele>879.6</ele>
        <time>2022-05-23 00:49:54</time>
      </trkpt>
      <trkpt lat="42.43125" lon="0.72106">
        <ele>879.4</ele>
        <time>2022-05-23 00:49:55</time>
      </trkpt>
      <trkpt lat="42.43122" lon="0.72115">
        <ele>879.2</ele>
        <time>2022-05-23 00:49:56</time>
      </trkpt>
      <trkpt lat="42.43119" lon="0.72124">
        <ele>879</ele>
        <time>2022-05-23 00:49:57</time>
      </trkpt>
      <trkpt lat="42.43116" lon="0.72133">
        <ele>878.8</ele>
        <time>2022-05-23 00:49:58</time>
      </trkpt>
      <trkpt lat="42.43113" lon="0.72142">
        <ele>878.6</ele>
        <time>2022-05-23 00:49:59</time>
      </trkpt>
      <trkpt lat="42.4311" lon="0.72152">
        <ele>878.4</ele>
        <time>2022-05-23 00:50:00</time>
      </trkpt>
      <trkpt lat="42.43107" lon="0.72161">
        <ele>878</ele>
        <time>2022-05-23 00:50:01</time>
      </trkpt>
      <trkpt lat="42.43104" lon="0.7217">
        <ele>877.8</ele>
        <time>2022-05-23 00:50:02</time>
      </trkpt>
      <trkpt lat="42.43101" lon="0.7218">
        <ele>877.6</ele>
        <time>2022-05-23 00:50:03</time>
      </trkpt>
      <trkpt lat="42.43098" lon="0.72189">
        <ele>877.4</ele>
        <time>2022-05-23 00:50:04</time>
      </trkpt>
      <trkpt lat="42.43096" lon="0.72198">
        <ele>877</ele>
        <time>2022-05-23 00:50:05</time>
      </trkpt>
      <trkpt lat="42.43093" lon="0.72207">
        <ele>877</ele>
        <time>2022-05-23 00:50:06</time>
      </trkpt>
      <trkpt lat="42.4309" lon="0.72217">
        <ele>876.8</ele>
        <time>2022-05-23 00:50:07</time>
      </trkpt>
      <trkpt lat="42.43087" lon="0.72226">
        <ele>876.6</ele>
        <time>2022-05-23 00:50:08</time>
      </trkpt>
      <trkpt lat="42.43084" lon="0.72235">
        <ele>876.6</ele>
        <time>2022-05-23 00:50:09</time>
      </trkpt>
      <trkpt lat="42.43081" lon="0.72244">
        <ele>876.6</ele>
        <time>2022-05-23 00:50:10</time>
      </trkpt>
      <trkpt lat="42.43078" lon="0.72253">
        <ele>876.4</ele>
        <time>2022-05-23 00:50:11</time>
      </trkpt>
      <trkpt lat="42.43075" lon="0.72261">
        <ele>876.4</ele>
        <time>2022-05-23 00:50:12</time>
      </trkpt>
      <trkpt lat="42.43072" lon="0.7227">
        <ele>876.2</ele>
        <time>2022-05-23 00:50:13</time>
      </trkpt>
      <trkpt lat="42.43069" lon="0.72278">
        <ele>876.2</ele>
        <time>2022-05-23 00:50:14</time>
      </trkpt>
      <trkpt lat="42.43067" lon="0.72287">
        <ele>876</ele>
        <time>2022-05-23 00:50:15</time>
      </trkpt>
      <trkpt lat="42.43064" lon="0.72295">
        <ele>875.8</ele>
        <time>2022-05-23 00:50:16</time>
      </trkpt>
      <trkpt lat="42.43061" lon="0.72304">
        <ele>875.8</ele>
        <time>2022-05-23 00:50:17</time>
      </trkpt>
      <trkpt lat="42.43058" lon="0.72313">
        <ele>875.6</ele>
        <time>2022-05-23 00:50:18</time>
      </trkpt>
      <trkpt lat="42.43055" lon="0.72322">
        <ele>875.4</ele>
        <time>2022-05-23 00:50:19</time>
      </trkpt>
      <trkpt lat="42.43052" lon="0.72331">
        <ele>875.4</ele>
        <time>2022-05-23 00:50:20</time>
      </trkpt>
      <trkpt lat="42.43049" lon="0.7234">
        <ele>875.2</ele>
        <time>2022-05-23 00:50:21</time>
      </trkpt>
      <trkpt lat="42.43047" lon="0.72348">
        <ele>875.2</ele>
        <time>2022-05-23 00:50:22</time>
      </trkpt>
      <trkpt lat="42.43044" lon="0.72357">
        <ele>875</ele>
        <time>2022-05-23 00:50:23</time>
      </trkpt>
      <trkpt lat="42.43042" lon="0.72366">
        <ele>874.8</ele>
        <time>2022-05-23 00:50:24</time>
      </trkpt>
      <trkpt lat="42.43039" lon="0.72375">
        <ele>874.6</ele>
        <time>2022-05-23 00:50:25</time>
      </trkpt>
      <trkpt lat="42.43036" lon="0.72384">
        <ele>874.4</ele>
        <time>2022-05-23 00:50:26</time>
      </trkpt>
      <trkpt lat="42.43032" lon="0.72393">
        <ele>874.2</ele>
        <time>2022-05-23 00:50:27</time>
      </trkpt>
      <trkpt lat="42.43028" lon="0.72402">
        <ele>873.8</ele>
        <time>2022-05-23 00:50:28</time>
      </trkpt>
      <trkpt lat="42.43024" lon="0.72412">
        <ele>873.6</ele>
        <time>2022-05-23 00:50:29</time>
      </trkpt>
      <trkpt lat="42.43019" lon="0.72421">
        <ele>873</ele>
        <time>2022-05-23 00:50:30</time>
      </trkpt>
      <trkpt lat="42.43013" lon="0.7243">
        <ele>872.6</ele>
        <time>2022-05-23 00:50:31</time>
      </trkpt>
      <trkpt lat="42.43007" lon="0.72438">
        <ele>872</ele>
        <time>2022-05-23 00:50:32</time>
      </trkpt>
      <trkpt lat="42.43" lon="0.72445">
        <ele>871.4</ele>
        <time>2022-05-23 00:50:33</time>
      </trkpt>
      <trkpt lat="42.42992" lon="0.72451">
        <ele>870.6</ele>
        <time>2022-05-23 00:50:34</time>
      </trkpt>
      <trkpt lat="42.42983" lon="0.72456">
        <ele>869.8</ele>
        <time>2022-05-23 00:50:35</time>
      </trkpt>
      <trkpt lat="42.42973" lon="0.72461">
        <ele>869</ele>
        <time>2022-05-23 00:50:36</time>
      </trkpt>
      <trkpt lat="42.42963" lon="0.72466">
        <ele>868.2</ele>
        <time>2022-05-23 00:50:37</time>
      </trkpt>
      <trkpt lat="42.42952" lon="0.7247">
        <ele>867.8</ele>
        <time>2022-05-23 00:50:38</time>
      </trkpt>
      <trkpt lat="42.42941" lon="0.72475">
        <ele>867.6</ele>
        <time>2022-05-23 00:50:39</time>
      </trkpt>
      <trkpt lat="42.42931" lon="0.72479">
        <ele>866.8</ele>
        <time>2022-05-23 00:50:40</time>
      </trkpt>
      <trkpt lat="42.4292" lon="0.72485">
        <ele>865.6</ele>
        <time>2022-05-23 00:50:41</time>
      </trkpt>
      <trkpt lat="42.42911" lon="0.72493">
        <ele>864.8</ele>
        <time>2022-05-23 00:50:42</time>
      </trkpt>
      <trkpt lat="42.42902" lon="0.72501">
        <ele>864.2</ele>
        <time>2022-05-23 00:50:43</time>
      </trkpt>
      <trkpt lat="42.42893" lon="0.72511">
        <ele>863.8</ele>
        <time>2022-05-23 00:50:44</time>
      </trkpt>
      <trkpt lat="42.42884" lon="0.72521">
        <ele>863.4</ele>
        <time>2022-05-23 00:50:45</time>
      </trkpt>
      <trkpt lat="42.42877" lon="0.72532">
        <ele>863</ele>
        <time>2022-05-23 00:50:46</time>
      </trkpt>
      <trkpt lat="42.42869" lon="0.72542">
        <ele>862.8</ele>
        <time>2022-05-23 00:50:47</time>
      </trkpt>
      <trkpt lat="42.42862" lon="0.72552">
        <ele>862.6</ele>
        <time>2022-05-23 00:50:48</time>
      </trkpt>
      <trkpt lat="42.42855" lon="0.72562">
        <ele>862.4</ele>
        <time>2022-05-23 00:50:49</time>
      </trkpt>
      <trkpt lat="42.42848" lon="0.72572">
        <ele>862.2</ele>
        <time>2022-05-23 00:50:50</time>
      </trkpt>
      <trkpt lat="42.42843" lon="0.72581">
        <ele>862.2</ele>
        <time>2022-05-23 00:50:51</time>
      </trkpt>
      <trkpt lat="42.42837" lon="0.72589">
        <ele>862</ele>
        <time>2022-05-23 00:50:52</time>
      </trkpt>
      <trkpt lat="42.42831" lon="0.72598">
        <ele>862</ele>
        <time>2022-05-23 00:50:53</time>
      </trkpt>
      <trkpt lat="42.42825" lon="0.72606">
        <ele>862</ele>
        <time>2022-05-23 00:50:54</time>
      </trkpt>
      <trkpt lat="42.42819" lon="0.72614">
        <ele>862</ele>
        <time>2022-05-23 00:50:55</time>
      </trkpt>
      <trkpt lat="42.42813" lon="0.72623">
        <ele>862</ele>
        <time>2022-05-23 00:50:56</time>
      </trkpt>
      <trkpt lat="42.42807" lon="0.72631">
        <ele>862.2</ele>
        <time>2022-05-23 00:50:57</time>
      </trkpt>
      <trkpt lat="42.42802" lon="0.72639">
        <ele>862.2</ele>
        <time>2022-05-23 00:50:58</time>
      </trkpt>
      <trkpt lat="42.42797" lon="0.72647">
        <ele>862.4</ele>
        <time>2022-05-23 00:50:59</time>
      </trkpt>
      <trkpt lat="42.42792" lon="0.72654">
        <ele>862.6</ele>
        <time>2022-05-23 00:51:00</time>
      </trkpt>
      <trkpt lat="42.42788" lon="0.72661">
        <ele>862.6</ele>
        <time>2022-05-23 00:51:01</time>
      </trkpt>
      <trkpt lat="42.42783" lon="0.72668">
        <ele>862.8</ele>
        <time>2022-05-23 00:51:02</time>
      </trkpt>
      <trkpt lat="42.42779" lon="0.72675">
        <ele>862.8</ele>
        <time>2022-05-23 00:51:03</time>
      </trkpt>
      <trkpt lat="42.42775" lon="0.72682">
        <ele>863</ele>
        <time>2022-05-23 00:51:04</time>
      </trkpt>
      <trkpt lat="42.42772" lon="0.72689">
        <ele>863</ele>
        <time>2022-05-23 00:51:05</time>
      </trkpt>
      <trkpt lat="42.42769" lon="0.72696">
        <ele>863.2</ele>
        <time>2022-05-23 00:51:06</time>
      </trkpt>
      <trkpt lat="42.42766" lon="0.72703">
        <ele>863.2</ele>
        <time>2022-05-23 00:51:07</time>
      </trkpt>
      <trkpt lat="42.42764" lon="0.72709">
        <ele>863.2</ele>
        <time>2022-05-23 00:51:08</time>
      </trkpt>
      <trkpt lat="42.42761" lon="0.72716">
        <ele>863.2</ele>
        <time>2022-05-23 00:51:09</time>
      </trkpt>
      <trkpt lat="42.42758" lon="0.72723">
        <ele>863.2</ele>
        <time>2022-05-23 00:51:10</time>
      </trkpt>
      <trkpt lat="42.42756" lon="0.72731">
        <ele>863.2</ele>
        <time>2022-05-23 00:51:11</time>
      </trkpt>
      <trkpt lat="42.42753" lon="0.72738">
        <ele>863</ele>
        <time>2022-05-23 00:51:12</time>
      </trkpt>
      <trkpt lat="42.42751" lon="0.72746">
        <ele>863</ele>
        <time>2022-05-23 00:51:13</time>
      </trkpt>
      <trkpt lat="42.42748" lon="0.72754">
        <ele>863</ele>
        <time>2022-05-23 00:51:14</time>
      </trkpt>
      <trkpt lat="42.42745" lon="0.72762">
        <ele>863</ele>
        <time>2022-05-23 00:51:15</time>
      </trkpt>
      <trkpt lat="42.42743" lon="0.72769">
        <ele>863</ele>
        <time>2022-05-23 00:51:16</time>
      </trkpt>
      <trkpt lat="42.42741" lon="0.72777">
        <ele>863</ele>
        <time>2022-05-23 00:51:17</time>
      </trkpt>
      <trkpt lat="42.42739" lon="0.72785">
        <ele>862.8</ele>
        <time>2022-05-23 00:51:18</time>
      </trkpt>
      <trkpt lat="42.42736" lon="0.72793">
        <ele>862.8</ele>
        <time>2022-05-23 00:51:19</time>
      </trkpt>
      <trkpt lat="42.42734" lon="0.72801">
        <ele>862.8</ele>
        <time>2022-05-23 00:51:20</time>
      </trkpt>
      <trkpt lat="42.42731" lon="0.72809">
        <ele>862.8</ele>
        <time>2022-05-23 00:51:21</time>
      </trkpt>
      <trkpt lat="42.42729" lon="0.72817">
        <ele>862.8</ele>
        <time>2022-05-23 00:51:22</time>
      </trkpt>
      <trkpt lat="42.42726" lon="0.72825">
        <ele>862.6</ele>
        <time>2022-05-23 00:51:23</time>
      </trkpt>
      <trkpt lat="42.42724" lon="0.72833">
        <ele>862.6</ele>
        <time>2022-05-23 00:51:24</time>
      </trkpt>
      <trkpt lat="42.42721" lon="0.72841">
        <ele>862.6</ele>
        <time>2022-05-23 00:51:25</time>
      </trkpt>
      <trkpt lat="42.42719" lon="0.72849">
        <ele>862.6</ele>
        <time>2022-05-23 00:51:26</time>
      </trkpt>
      <trkpt lat="42.42716" lon="0.72856">
        <ele>862.6</ele>
        <time>2022-05-23 00:51:27</time>
      </trkpt>
      <trkpt lat="42.42714" lon="0.72864">
        <ele>862.6</ele>
        <time>2022-05-23 00:51:28</time>
      </trkpt>
      <trkpt lat="42.42711" lon="0.72871">
        <ele>862.6</ele>
        <time>2022-05-23 00:51:29</time>
      </trkpt>
      <trkpt lat="42.42708" lon="0.7288">
        <ele>862.6</ele>
        <time>2022-05-23 00:51:30</time>
      </trkpt>
      <trkpt lat="42.42706" lon="0.72887">
        <ele>862.6</ele>
        <time>2022-05-23 00:51:31</time>
      </trkpt>
      <trkpt lat="42.42704" lon="0.72896">
        <ele>862.6</ele>
        <time>2022-05-23 00:51:32</time>
      </trkpt>
      <trkpt lat="42.42702" lon="0.72903">
        <ele>862.4</ele>
        <time>2022-05-23 00:51:33</time>
      </trkpt>
      <trkpt lat="42.427" lon="0.72911">
        <ele>862.4</ele>
        <time>2022-05-23 00:51:34</time>
      </trkpt>
      <trkpt lat="42.42698" lon="0.72919">
        <ele>862.4</ele>
        <time>2022-05-23 00:51:35</time>
      </trkpt>
      <trkpt lat="42.42695" lon="0.72927">
        <ele>862.4</ele>
        <time>2022-05-23 00:51:36</time>
      </trkpt>
      <trkpt lat="42.42693" lon="0.72935">
        <ele>862.2</ele>
        <time>2022-05-23 00:51:37</time>
      </trkpt>
      <trkpt lat="42.42691" lon="0.72943">
        <ele>862.2</ele>
        <time>2022-05-23 00:51:38</time>
      </trkpt>
      <trkpt lat="42.42689" lon="0.72951">
        <ele>862.2</ele>
        <time>2022-05-23 00:51:39</time>
      </trkpt>
      <trkpt lat="42.42687" lon="0.72959">
        <ele>862.2</ele>
        <time>2022-05-23 00:51:40</time>
      </trkpt>
      <trkpt lat="42.42684" lon="0.72967">
        <ele>862</ele>
        <time>2022-05-23 00:51:41</time>
      </trkpt>
      <trkpt lat="42.42682" lon="0.72975">
        <ele>862</ele>
        <time>2022-05-23 00:51:42</time>
      </trkpt>
      <trkpt lat="42.4268" lon="0.72983">
        <ele>862</ele>
        <time>2022-05-23 00:51:43</time>
      </trkpt>
      <trkpt lat="42.42679" lon="0.72992">
        <ele>861.8</ele>
        <time>2022-05-23 00:51:44</time>
      </trkpt>
      <trkpt lat="42.42677" lon="0.73">
        <ele>861.8</ele>
        <time>2022-05-23 00:51:45</time>
      </trkpt>
      <trkpt lat="42.42675" lon="0.73009">
        <ele>861.6</ele>
        <time>2022-05-23 00:51:46</time>
      </trkpt>
      <trkpt lat="42.42673" lon="0.73017">
        <ele>861.6</ele>
        <time>2022-05-23 00:51:47</time>
      </trkpt>
      <trkpt lat="42.42671" lon="0.73025">
        <ele>861.4</ele>
        <time>2022-05-23 00:51:48</time>
      </trkpt>
      <trkpt lat="42.42669" lon="0.73033">
        <ele>861.4</ele>
        <time>2022-05-23 00:51:49</time>
      </trkpt>
      <trkpt lat="42.42668" lon="0.73041">
        <ele>861.4</ele>
        <time>2022-05-23 00:51:50</time>
      </trkpt>
      <trkpt lat="42.42666" lon="0.73049">
        <ele>861.4</ele>
        <time>2022-05-23 00:51:51</time>
      </trkpt>
      <trkpt lat="42.42664" lon="0.73058">
        <ele>861.2</ele>
        <time>2022-05-23 00:51:52</time>
      </trkpt>
      <trkpt lat="42.42662" lon="0.73065">
        <ele>861.2</ele>
        <time>2022-05-23 00:51:53</time>
      </trkpt>
      <trkpt lat="42.4266" lon="0.73073">
        <ele>861.2</ele>
        <time>2022-05-23 00:51:54</time>
      </trkpt>
      <trkpt lat="42.42658" lon="0.7308">
        <ele>861</ele>
        <time>2022-05-23 00:51:55</time>
      </trkpt>
      <trkpt lat="42.42656" lon="0.73088">
        <ele>861</ele>
        <time>2022-05-23 00:51:56</time>
      </trkpt>
      <trkpt lat="42.42654" lon="0.73096">
        <ele>861</ele>
        <time>2022-05-23 00:51:57</time>
      </trkpt>
      <trkpt lat="42.42653" lon="0.73103">
        <ele>861</ele>
        <time>2022-05-23 00:51:58</time>
      </trkpt>
      <trkpt lat="42.4265" lon="0.7311">
        <ele>860.8</ele>
        <time>2022-05-23 00:51:59</time>
      </trkpt>
      <trkpt lat="42.42648" lon="0.73117">
        <ele>860.8</ele>
        <time>2022-05-23 00:52:00</time>
      </trkpt>
      <trkpt lat="42.42645" lon="0.73124">
        <ele>860.6</ele>
        <time>2022-05-23 00:52:01</time>
      </trkpt>
      <trkpt lat="42.42641" lon="0.7313">
        <ele>860.6</ele>
        <time>2022-05-23 00:52:02</time>
      </trkpt>
      <trkpt lat="42.42638" lon="0.73135">
        <ele>860.4</ele>
        <time>2022-05-23 00:52:03</time>
      </trkpt>
      <trkpt lat="42.42633" lon="0.7314">
        <ele>860.4</ele>
        <time>2022-05-23 00:52:04</time>
      </trkpt>
      <trkpt lat="42.42629" lon="0.73145">
        <ele>860.2</ele>
        <time>2022-05-23 00:52:05</time>
      </trkpt>
      <trkpt lat="42.42625" lon="0.7315">
        <ele>860.2</ele>
        <time>2022-05-23 00:52:06</time>
      </trkpt>
      <trkpt lat="42.4262" lon="0.73154">
        <ele>860.2</ele>
        <time>2022-05-23 00:52:07</time>
      </trkpt>
      <trkpt lat="42.42616" lon="0.73158">
        <ele>860.2</ele>
        <time>2022-05-23 00:52:08</time>
      </trkpt>
      <trkpt lat="42.42611" lon="0.73163">
        <ele>860</ele>
        <time>2022-05-23 00:52:09</time>
      </trkpt>
      <trkpt lat="42.42605" lon="0.73166">
        <ele>860</ele>
        <time>2022-05-23 00:52:10</time>
      </trkpt>
      <trkpt lat="42.426" lon="0.7317">
        <ele>860</ele>
        <time>2022-05-23 00:52:11</time>
      </trkpt>
      <trkpt lat="42.42595" lon="0.73174">
        <ele>860</ele>
        <time>2022-05-23 00:52:12</time>
      </trkpt>
      <trkpt lat="42.4259" lon="0.73178">
        <ele>860</ele>
        <time>2022-05-23 00:52:13</time>
      </trkpt>
      <trkpt lat="42.42585" lon="0.73181">
        <ele>860</ele>
        <time>2022-05-23 00:52:14</time>
      </trkpt>
      <trkpt lat="42.4258" lon="0.73185">
        <ele>860</ele>
        <time>2022-05-23 00:52:15</time>
      </trkpt>
      <trkpt lat="42.42575" lon="0.73189">
        <ele>860</ele>
        <time>2022-05-23 00:52:16</time>
      </trkpt>
      <trkpt lat="42.42571" lon="0.73192">
        <ele>860</ele>
        <time>2022-05-23 00:52:17</time>
      </trkpt>
      <trkpt lat="42.42566" lon="0.73195">
        <ele>860</ele>
        <time>2022-05-23 00:52:18</time>
      </trkpt>
      <trkpt lat="42.42562" lon="0.73198">
        <ele>860</ele>
        <time>2022-05-23 00:52:19</time>
      </trkpt>
      <trkpt lat="42.42557" lon="0.73202">
        <ele>860</ele>
        <time>2022-05-23 00:52:20</time>
      </trkpt>
      <trkpt lat="42.42553" lon="0.73205">
        <ele>860</ele>
        <time>2022-05-23 00:52:21</time>
      </trkpt>
      <trkpt lat="42.42548" lon="0.73208">
        <ele>860</ele>
        <time>2022-05-23 00:52:22</time>
      </trkpt>
      <trkpt lat="42.42544" lon="0.73211">
        <ele>860</ele>
        <time>2022-05-23 00:52:23</time>
      </trkpt>
      <trkpt lat="42.42539" lon="0.73215">
        <ele>860</ele>
        <time>2022-05-23 00:52:24</time>
      </trkpt>
      <trkpt lat="42.42534" lon="0.73218">
        <ele>860</ele>
        <time>2022-05-23 00:52:25</time>
      </trkpt>
      <trkpt lat="42.42529" lon="0.7322">
        <ele>859.8</ele>
        <time>2022-05-23 00:52:26</time>
      </trkpt>
      <trkpt lat="42.42524" lon="0.73223">
        <ele>859.8</ele>
        <time>2022-05-23 00:52:27</time>
      </trkpt>
      <trkpt lat="42.42519" lon="0.73225">
        <ele>859.8</ele>
        <time>2022-05-23 00:52:28</time>
      </trkpt>
      <trkpt lat="42.42513" lon="0.73228">
        <ele>859.6</ele>
        <time>2022-05-23 00:52:29</time>
      </trkpt>
      <trkpt lat="42.42508" lon="0.7323">
        <ele>859.6</ele>
        <time>2022-05-23 00:52:30</time>
      </trkpt>
      <trkpt lat="42.42503" lon="0.73232">
        <ele>859.6</ele>
        <time>2022-05-23 00:52:31</time>
      </trkpt>
      <trkpt lat="42.42497" lon="0.73234">
        <ele>859.4</ele>
        <time>2022-05-23 00:52:32</time>
      </trkpt>
      <trkpt lat="42.42492" lon="0.73235">
        <ele>859.4</ele>
        <time>2022-05-23 00:52:33</time>
      </trkpt>
      <trkpt lat="42.42486" lon="0.73237">
        <ele>859.4</ele>
        <time>2022-05-23 00:52:34</time>
      </trkpt>
      <trkpt lat="42.42481" lon="0.73239">
        <ele>859.4</ele>
        <time>2022-05-23 00:52:35</time>
      </trkpt>
      <trkpt lat="42.42475" lon="0.7324">
        <ele>859.4</ele>
        <time>2022-05-23 00:52:36</time>
      </trkpt>
      <trkpt lat="42.4247" lon="0.73242">
        <ele>859.4</ele>
        <time>2022-05-23 00:52:37</time>
      </trkpt>
      <trkpt lat="42.42465" lon="0.73244">
        <ele>859.4</ele>
        <time>2022-05-23 00:52:38</time>
      </trkpt>
      <trkpt lat="42.42459" lon="0.73246">
        <ele>859.4</ele>
        <time>2022-05-23 00:52:39</time>
      </trkpt>
      <trkpt lat="42.42454" lon="0.73247">
        <ele>859.4</ele>
        <time>2022-05-23 00:52:40</time>
      </trkpt>
      <trkpt lat="42.42449" lon="0.73249">
        <ele>859.4</ele>
        <time>2022-05-23 00:52:41</time>
      </trkpt>
      <trkpt lat="42.42443" lon="0.7325">
        <ele>859.2</ele>
        <time>2022-05-23 00:52:42</time>
      </trkpt>
      <trkpt lat="42.42437" lon="0.73252">
        <ele>859.2</ele>
        <time>2022-05-23 00:52:43</time>
      </trkpt>
      <trkpt lat="42.42432" lon="0.73254">
        <ele>859</ele>
        <time>2022-05-23 00:52:44</time>
      </trkpt>
      <trkpt lat="42.42427" lon="0.73257">
        <ele>858.8</ele>
        <time>2022-05-23 00:52:45</time>
      </trkpt>
      <trkpt lat="42.4242" lon="0.73259">
        <ele>858.6</ele>
        <time>2022-05-23 00:52:46</time>
      </trkpt>
      <trkpt lat="42.42414" lon="0.73262">
        <ele>858.4</ele>
        <time>2022-05-23 00:52:47</time>
      </trkpt>
      <trkpt lat="42.42408" lon="0.73266">
        <ele>858.2</ele>
        <time>2022-05-23 00:52:48</time>
      </trkpt>
      <trkpt lat="42.42401" lon="0.73269">
        <ele>857.8</ele>
        <time>2022-05-23 00:52:49</time>
      </trkpt>
      <trkpt lat="42.42395" lon="0.73273">
        <ele>857.4</ele>
        <time>2022-05-23 00:52:50</time>
      </trkpt>
      <trkpt lat="42.42388" lon="0.73276">
        <ele>857</ele>
        <time>2022-05-23 00:52:51</time>
      </trkpt>
      <trkpt lat="42.42381" lon="0.7328">
        <ele>856.6</ele>
        <time>2022-05-23 00:52:52</time>
      </trkpt>
      <trkpt lat="42.42374" lon="0.73284">
        <ele>856</ele>
        <time>2022-05-23 00:52:53</time>
      </trkpt>
      <trkpt lat="42.42367" lon="0.73288">
        <ele>855.6</ele>
        <time>2022-05-23 00:52:54</time>
      </trkpt>
      <trkpt lat="42.42359" lon="0.73292">
        <ele>855</ele>
        <time>2022-05-23 00:52:55</time>
      </trkpt>
      <trkpt lat="42.42351" lon="0.73297">
        <ele>854.6</ele>
        <time>2022-05-23 00:52:56</time>
      </trkpt>
      <trkpt lat="42.42343" lon="0.73302">
        <ele>854.2</ele>
        <time>2022-05-23 00:52:57</time>
      </trkpt>
      <trkpt lat="42.42335" lon="0.73307">
        <ele>853.8</ele>
        <time>2022-05-23 00:52:58</time>
      </trkpt>
      <trkpt lat="42.42327" lon="0.73312">
        <ele>853.4</ele>
        <time>2022-05-23 00:52:59</time>
      </trkpt>
      <trkpt lat="42.42319" lon="0.73317">
        <ele>853</ele>
        <time>2022-05-23 00:53:00</time>
      </trkpt>
      <trkpt lat="42.42311" lon="0.73322">
        <ele>852.8</ele>
        <time>2022-05-23 00:53:01</time>
      </trkpt>
      <trkpt lat="42.42303" lon="0.73328">
        <ele>852.6</ele>
        <time>2022-05-23 00:53:02</time>
      </trkpt>
      <trkpt lat="42.42296" lon="0.73333">
        <ele>852.4</ele>
        <time>2022-05-23 00:53:03</time>
      </trkpt>
      <trkpt lat="42.42289" lon="0.73338">
        <ele>852.2</ele>
        <time>2022-05-23 00:53:04</time>
      </trkpt>
      <trkpt lat="42.42281" lon="0.73343">
        <ele>852.2</ele>
        <time>2022-05-23 00:53:05</time>
      </trkpt>
      <trkpt lat="42.42275" lon="0.73349">
        <ele>852</ele>
        <time>2022-05-23 00:53:06</time>
      </trkpt>
      <trkpt lat="42.42268" lon="0.73354">
        <ele>852</ele>
        <time>2022-05-23 00:53:07</time>
      </trkpt>
      <trkpt lat="42.42262" lon="0.7336">
        <ele>851.8</ele>
        <time>2022-05-23 00:53:08</time>
      </trkpt>
      <trkpt lat="42.42256" lon="0.73365">
        <ele>851.6</ele>
        <time>2022-05-23 00:53:09</time>
      </trkpt>
      <trkpt lat="42.42249" lon="0.73371">
        <ele>851.6</ele>
        <time>2022-05-23 00:53:10</time>
      </trkpt>
      <trkpt lat="42.42243" lon="0.73377">
        <ele>851.4</ele>
        <time>2022-05-23 00:53:11</time>
      </trkpt>
      <trkpt lat="42.42237" lon="0.73382">
        <ele>851.4</ele>
        <time>2022-05-23 00:53:12</time>
      </trkpt>
      <trkpt lat="42.4223" lon="0.73387">
        <ele>851.2</ele>
        <time>2022-05-23 00:53:13</time>
      </trkpt>
      <trkpt lat="42.42224" lon="0.73393">
        <ele>851</ele>
        <time>2022-05-23 00:53:14</time>
      </trkpt>
      <trkpt lat="42.42218" lon="0.73397">
        <ele>851</ele>
        <time>2022-05-23 00:53:15</time>
      </trkpt>
      <trkpt lat="42.42212" lon="0.73402">
        <ele>850.8</ele>
        <time>2022-05-23 00:53:16</time>
      </trkpt>
      <trkpt lat="42.42205" lon="0.73406">
        <ele>850.8</ele>
        <time>2022-05-23 00:53:17</time>
      </trkpt>
      <trkpt lat="42.42198" lon="0.7341">
        <ele>850.6</ele>
        <time>2022-05-23 00:53:18</time>
      </trkpt>
      <trkpt lat="42.42192" lon="0.73414">
        <ele>850.6</ele>
        <time>2022-05-23 00:53:19</time>
      </trkpt>
      <trkpt lat="42.42185" lon="0.73418">
        <ele>850.4</ele>
        <time>2022-05-23 00:53:20</time>
      </trkpt>
      <trkpt lat="42.42179" lon="0.73422">
        <ele>850.4</ele>
        <time>2022-05-23 00:53:21</time>
      </trkpt>
      <trkpt lat="42.42173" lon="0.73426">
        <ele>850.2</ele>
        <time>2022-05-23 00:53:22</time>
      </trkpt>
      <trkpt lat="42.42167" lon="0.7343">
        <ele>850.2</ele>
        <time>2022-05-23 00:53:23</time>
      </trkpt>
      <trkpt lat="42.42161" lon="0.73433">
        <ele>850</ele>
        <time>2022-05-23 00:53:24</time>
      </trkpt>
      <trkpt lat="42.42155" lon="0.73437">
        <ele>850</ele>
        <time>2022-05-23 00:53:25</time>
      </trkpt>
      <trkpt lat="42.42149" lon="0.73441">
        <ele>849.8</ele>
        <time>2022-05-23 00:53:26</time>
      </trkpt>
      <trkpt lat="42.42143" lon="0.73444">
        <ele>849.8</ele>
        <time>2022-05-23 00:53:27</time>
      </trkpt>
      <trkpt lat="42.42137" lon="0.73447">
        <ele>849.6</ele>
        <time>2022-05-23 00:53:28</time>
      </trkpt>
      <trkpt lat="42.4213" lon="0.7345">
        <ele>849.6</ele>
        <time>2022-05-23 00:53:29</time>
      </trkpt>
      <trkpt lat="42.42124" lon="0.73453">
        <ele>849.4</ele>
        <time>2022-05-23 00:53:30</time>
      </trkpt>
      <trkpt lat="42.42118" lon="0.73455">
        <ele>849.4</ele>
        <time>2022-05-23 00:53:31</time>
      </trkpt>
      <trkpt lat="42.42111" lon="0.73458">
        <ele>849.2</ele>
        <time>2022-05-23 00:53:32</time>
      </trkpt>
      <trkpt lat="42.42105" lon="0.73461">
        <ele>849</ele>
        <time>2022-05-23 00:53:33</time>
      </trkpt>
      <trkpt lat="42.42098" lon="0.73463">
        <ele>848.8</ele>
        <time>2022-05-23 00:53:34</time>
      </trkpt>
      <trkpt lat="42.42092" lon="0.73466">
        <ele>848.8</ele>
        <time>2022-05-23 00:53:35</time>
      </trkpt>
      <trkpt lat="42.42086" lon="0.7347">
        <ele>848.6</ele>
        <time>2022-05-23 00:53:36</time>
      </trkpt>
      <trkpt lat="42.42079" lon="0.73473">
        <ele>848.4</ele>
        <time>2022-05-23 00:53:37</time>
      </trkpt>
      <trkpt lat="42.42072" lon="0.73476">
        <ele>848.2</ele>
        <time>2022-05-23 00:53:38</time>
      </trkpt>
      <trkpt lat="42.42066" lon="0.73479">
        <ele>848.2</ele>
        <time>2022-05-23 00:53:39</time>
      </trkpt>
      <trkpt lat="42.4206" lon="0.73482">
        <ele>848.2</ele>
        <time>2022-05-23 00:53:40</time>
      </trkpt>
      <trkpt lat="42.42053" lon="0.73485">
        <ele>848</ele>
        <time>2022-05-23 00:53:41</time>
      </trkpt>
      <trkpt lat="42.42047" lon="0.73489">
        <ele>848</ele>
        <time>2022-05-23 00:53:42</time>
      </trkpt>
      <trkpt lat="42.42041" lon="0.73492">
        <ele>847.8</ele>
        <time>2022-05-23 00:53:43</time>
      </trkpt>
      <trkpt lat="42.42035" lon="0.73495">
        <ele>847.8</ele>
        <time>2022-05-23 00:53:44</time>
      </trkpt>
      <trkpt lat="42.42029" lon="0.73497">
        <ele>847.8</ele>
        <time>2022-05-23 00:53:45</time>
      </trkpt>
      <trkpt lat="42.42023" lon="0.735">
        <ele>847.8</ele>
        <time>2022-05-23 00:53:46</time>
      </trkpt>
      <trkpt lat="42.42017" lon="0.73504">
        <ele>847.8</ele>
        <time>2022-05-23 00:53:47</time>
      </trkpt>
      <trkpt lat="42.42011" lon="0.73507">
        <ele>847.8</ele>
        <time>2022-05-23 00:53:48</time>
      </trkpt>
      <trkpt lat="42.42006" lon="0.73509">
        <ele>847.8</ele>
        <time>2022-05-23 00:53:49</time>
      </trkpt>
      <trkpt lat="42.42001" lon="0.73511">
        <ele>847.8</ele>
        <time>2022-05-23 00:53:50</time>
      </trkpt>
      <trkpt lat="42.41995" lon="0.73514">
        <ele>847.8</ele>
        <time>2022-05-23 00:53:51</time>
      </trkpt>
      <trkpt lat="42.4199" lon="0.73516">
        <ele>847.8</ele>
        <time>2022-05-23 00:53:52</time>
      </trkpt>
      <trkpt lat="42.41985" lon="0.73519">
        <ele>847.8</ele>
        <time>2022-05-23 00:53:53</time>
      </trkpt>
      <trkpt lat="42.4198" lon="0.73521">
        <ele>847.8</ele>
        <time>2022-05-23 00:53:54</time>
      </trkpt>
      <trkpt lat="42.41975" lon="0.73524">
        <ele>848</ele>
        <time>2022-05-23 00:53:55</time>
      </trkpt>
      <trkpt lat="42.41971" lon="0.73526">
        <ele>848</ele>
        <time>2022-05-23 00:53:56</time>
      </trkpt>
      <trkpt lat="42.41966" lon="0.73528">
        <ele>848.2</ele>
        <time>2022-05-23 00:53:57</time>
      </trkpt>
      <trkpt lat="42.41961" lon="0.73531">
        <ele>848.6</ele>
        <time>2022-05-23 00:53:58</time>
      </trkpt>
      <trkpt lat="42.41957" lon="0.73533">
        <ele>848.8</ele>
        <time>2022-05-23 00:53:59</time>
      </trkpt>
      <trkpt lat="42.41952" lon="0.73535">
        <ele>849</ele>
        <time>2022-05-23 00:54:00</time>
      </trkpt>
      <trkpt lat="42.41948" lon="0.73536">
        <ele>849.2</ele>
        <time>2022-05-23 00:54:01</time>
      </trkpt>
      <trkpt lat="42.41943" lon="0.73538">
        <ele>849.4</ele>
        <time>2022-05-23 00:54:02</time>
      </trkpt>
      <trkpt lat="42.41938" lon="0.7354">
        <ele>849.6</ele>
        <time>2022-05-23 00:54:03</time>
      </trkpt>
      <trkpt lat="42.41934" lon="0.73542">
        <ele>849.8</ele>
        <time>2022-05-23 00:54:04</time>
      </trkpt>
      <trkpt lat="42.41929" lon="0.73544">
        <ele>850</ele>
        <time>2022-05-23 00:54:05</time>
      </trkpt>
      <trkpt lat="42.41925" lon="0.73546">
        <ele>850.2</ele>
        <time>2022-05-23 00:54:06</time>
      </trkpt>
      <trkpt lat="42.41921" lon="0.73548">
        <ele>850.4</ele>
        <time>2022-05-23 00:54:07</time>
      </trkpt>
      <trkpt lat="42.41916" lon="0.7355">
        <ele>850.6</ele>
        <time>2022-05-23 00:54:08</time>
      </trkpt>
      <trkpt lat="42.41912" lon="0.73552">
        <ele>850.6</ele>
        <time>2022-05-23 00:54:09</time>
      </trkpt>
      <trkpt lat="42.41908" lon="0.73554">
        <ele>850.8</ele>
        <time>2022-05-23 00:54:10</time>
      </trkpt>
      <trkpt lat="42.41904" lon="0.73556">
        <ele>850.8</ele>
        <time>2022-05-23 00:54:11</time>
      </trkpt>
      <trkpt lat="42.41899" lon="0.73558">
        <ele>851</ele>
        <time>2022-05-23 00:54:12</time>
      </trkpt>
      <trkpt lat="42.41895" lon="0.7356">
        <ele>851.2</ele>
        <time>2022-05-23 00:54:13</time>
      </trkpt>
      <trkpt lat="42.41892" lon="0.73561">
        <ele>851.2</ele>
        <time>2022-05-23 00:54:14</time>
      </trkpt>
      <trkpt lat="42.41888" lon="0.73563">
        <ele>851.2</ele>
        <time>2022-05-23 00:54:15</time>
      </trkpt>
      <trkpt lat="42.41884" lon="0.73564">
        <ele>851.4</ele>
        <time>2022-05-23 00:54:16</time>
      </trkpt>
      <trkpt lat="42.41881" lon="0.73564">
        <ele>851.4</ele>
        <time>2022-05-23 00:54:17</time>
      </trkpt>
      <trkpt lat="42.41877" lon="0.73565">
        <ele>851.4</ele>
        <time>2022-05-23 00:54:18</time>
      </trkpt>
      <trkpt lat="42.41873" lon="0.73566">
        <ele>851.6</ele>
        <time>2022-05-23 00:54:19</time>
      </trkpt>
      <trkpt lat="42.41869" lon="0.73566">
        <ele>851.6</ele>
        <time>2022-05-23 00:54:20</time>
      </trkpt>
      <trkpt lat="42.41865" lon="0.73566">
        <ele>851.6</ele>
        <time>2022-05-23 00:54:21</time>
      </trkpt>
      <trkpt lat="42.41861" lon="0.73566">
        <ele>851.8</ele>
        <time>2022-05-23 00:54:22</time>
      </trkpt>
      <trkpt lat="42.41857" lon="0.73565">
        <ele>852</ele>
        <time>2022-05-23 00:54:23</time>
      </trkpt>
      <trkpt lat="42.41853" lon="0.73565">
        <ele>852</ele>
        <time>2022-05-23 00:54:24</time>
      </trkpt>
      <trkpt lat="42.41849" lon="0.73564">
        <ele>852.2</ele>
        <time>2022-05-23 00:54:25</time>
      </trkpt>
      <trkpt lat="42.41844" lon="0.73563">
        <ele>852.2</ele>
        <time>2022-05-23 00:54:26</time>
      </trkpt>
      <trkpt lat="42.4184" lon="0.73562">
        <ele>852.2</ele>
        <time>2022-05-23 00:54:27</time>
      </trkpt>
      <trkpt lat="42.41836" lon="0.73561">
        <ele>852.4</ele>
        <time>2022-05-23 00:54:28</time>
      </trkpt>
      <trkpt lat="42.41832" lon="0.73561">
        <ele>852.4</ele>
        <time>2022-05-23 00:54:29</time>
      </trkpt>
      <trkpt lat="42.41827" lon="0.73561">
        <ele>852.6</ele>
        <time>2022-05-23 00:54:30</time>
      </trkpt>
      <trkpt lat="42.41823" lon="0.7356">
        <ele>852.6</ele>
        <time>2022-05-23 00:54:31</time>
      </trkpt>
      <trkpt lat="42.41819" lon="0.7356">
        <ele>852.8</ele>
        <time>2022-05-23 00:54:32</time>
      </trkpt>
      <trkpt lat="42.41815" lon="0.73559">
        <ele>852.8</ele>
        <time>2022-05-23 00:54:33</time>
      </trkpt>
      <trkpt lat="42.4181" lon="0.73559">
        <ele>853</ele>
        <time>2022-05-23 00:54:34</time>
      </trkpt>
      <trkpt lat="42.41806" lon="0.73558">
        <ele>853</ele>
        <time>2022-05-23 00:54:35</time>
      </trkpt>
      <trkpt lat="42.41802" lon="0.73558">
        <ele>853.2</ele>
        <time>2022-05-23 00:54:36</time>
      </trkpt>
      <trkpt lat="42.41797" lon="0.73558">
        <ele>853.2</ele>
        <time>2022-05-23 00:54:37</time>
      </trkpt>
      <trkpt lat="42.41793" lon="0.73558">
        <ele>853.4</ele>
        <time>2022-05-23 00:54:38</time>
      </trkpt>
      <trkpt lat="42.41789" lon="0.73558">
        <ele>853.4</ele>
        <time>2022-05-23 00:54:39</time>
      </trkpt>
      <trkpt lat="42.41786" lon="0.73558">
        <ele>853.6</ele>
        <time>2022-05-23 00:54:40</time>
      </trkpt>
      <trkpt lat="42.41782" lon="0.73559">
        <ele>853.8</ele>
        <time>2022-05-23 00:54:41</time>
      </trkpt>
      <trkpt lat="42.41778" lon="0.73561">
        <ele>853.8</ele>
        <time>2022-05-23 00:54:42</time>
      </trkpt>
      <trkpt lat="42.41775" lon="0.73562">
        <ele>854</ele>
        <time>2022-05-23 00:54:43</time>
      </trkpt>
      <trkpt lat="42.41771" lon="0.73563">
        <ele>854</ele>
        <time>2022-05-23 00:54:44</time>
      </trkpt>
      <trkpt lat="42.41768" lon="0.73565">
        <ele>854.2</ele>
        <time>2022-05-23 00:54:45</time>
      </trkpt>
      <trkpt lat="42.41765" lon="0.73566">
        <ele>854.2</ele>
        <time>2022-05-23 00:54:46</time>
      </trkpt>
      <trkpt lat="42.4176" lon="0.73568">
        <ele>854.4</ele>
        <time>2022-05-23 00:54:47</time>
      </trkpt>
      <trkpt lat="42.41757" lon="0.73569">
        <ele>854.4</ele>
        <time>2022-05-23 00:54:48</time>
      </trkpt>
      <trkpt lat="42.41753" lon="0.73571">
        <ele>854.6</ele>
        <time>2022-05-23 00:54:49</time>
      </trkpt>
      <trkpt lat="42.4175" lon="0.73572">
        <ele>854.6</ele>
        <time>2022-05-23 00:54:50</time>
      </trkpt>
      <trkpt lat="42.41747" lon="0.73575">
        <ele>854.8</ele>
        <time>2022-05-23 00:54:51</time>
      </trkpt>
      <trkpt lat="42.41743" lon="0.73577">
        <ele>854.8</ele>
        <time>2022-05-23 00:54:52</time>
      </trkpt>
      <trkpt lat="42.4174" lon="0.73579">
        <ele>855</ele>
        <time>2022-05-23 00:54:53</time>
      </trkpt>
      <trkpt lat="42.41737" lon="0.73581">
        <ele>855</ele>
        <time>2022-05-23 00:54:54</time>
      </trkpt>
      <trkpt lat="42.41733" lon="0.73583">
        <ele>855</ele>
        <time>2022-05-23 00:54:55</time>
      </trkpt>
      <trkpt lat="42.41729" lon="0.73585">
        <ele>855</ele>
        <time>2022-05-23 00:54:56</time>
      </trkpt>
      <trkpt lat="42.41726" lon="0.73587">
        <ele>855.2</ele>
        <time>2022-05-23 00:54:57</time>
      </trkpt>
      <trkpt lat="42.41722" lon="0.7359">
        <ele>855.2</ele>
        <time>2022-05-23 00:54:58</time>
      </trkpt>
      <trkpt lat="42.41719" lon="0.73592">
        <ele>855.4</ele>
        <time>2022-05-23 00:54:59</time>
      </trkpt>
      <trkpt lat="42.41715" lon="0.73594">
        <ele>855.4</ele>
        <time>2022-05-23 00:55:00</time>
      </trkpt>
      <trkpt lat="42.41711" lon="0.73597">
        <ele>855.6</ele>
        <time>2022-05-23 00:55:01</time>
      </trkpt>
      <trkpt lat="42.41708" lon="0.736">
        <ele>855.6</ele>
        <time>2022-05-23 00:55:02</time>
      </trkpt>
      <trkpt lat="42.41704" lon="0.73602">
        <ele>855.8</ele>
        <time>2022-05-23 00:55:03</time>
      </trkpt>
      <trkpt lat="42.41701" lon="0.73604">
        <ele>855.8</ele>
        <time>2022-05-23 00:55:04</time>
      </trkpt>
      <trkpt lat="42.41697" lon="0.73607">
        <ele>856</ele>
        <time>2022-05-23 00:55:05</time>
      </trkpt>
      <trkpt lat="42.41694" lon="0.73609">
        <ele>856.2</ele>
        <time>2022-05-23 00:55:06</time>
      </trkpt>
      <trkpt lat="42.4169" lon="0.73612">
        <ele>856.2</ele>
        <time>2022-05-23 00:55:07</time>
      </trkpt>
      <trkpt lat="42.41686" lon="0.73614">
        <ele>856.4</ele>
        <time>2022-05-23 00:55:08</time>
      </trkpt>
      <trkpt lat="42.41682" lon="0.73617">
        <ele>856.4</ele>
        <time>2022-05-23 00:55:09</time>
      </trkpt>
      <trkpt lat="42.41678" lon="0.7362">
        <ele>856.4</ele>
        <time>2022-05-23 00:55:10</time>
      </trkpt>
      <trkpt lat="42.41673" lon="0.73623">
        <ele>856.4</ele>
        <time>2022-05-23 00:55:11</time>
      </trkpt>
      <trkpt lat="42.41668" lon="0.73626">
        <ele>856.4</ele>
        <time>2022-05-23 00:55:12</time>
      </trkpt>
      <trkpt lat="42.41664" lon="0.73629">
        <ele>856.4</ele>
        <time>2022-05-23 00:55:13</time>
      </trkpt>
      <trkpt lat="42.4166" lon="0.73632">
        <ele>856.2</ele>
        <time>2022-05-23 00:55:14</time>
      </trkpt>
      <trkpt lat="42.41656" lon="0.73635">
        <ele>856.2</ele>
        <time>2022-05-23 00:55:15</time>
      </trkpt>
      <trkpt lat="42.41651" lon="0.73638">
        <ele>856.2</ele>
        <time>2022-05-23 00:55:16</time>
      </trkpt>
      <trkpt lat="42.41647" lon="0.7364">
        <ele>856.2</ele>
        <time>2022-05-23 00:55:17</time>
      </trkpt>
      <trkpt lat="42.41642" lon="0.73643">
        <ele>856.2</ele>
        <time>2022-05-23 00:55:18</time>
      </trkpt>
      <trkpt lat="42.41638" lon="0.73646">
        <ele>856.2</ele>
        <time>2022-05-23 00:55:19</time>
      </trkpt>
      <trkpt lat="42.41634" lon="0.73649">
        <ele>856.2</ele>
        <time>2022-05-23 00:55:20</time>
      </trkpt>
      <trkpt lat="42.4163" lon="0.73651">
        <ele>856.2</ele>
        <time>2022-05-23 00:55:21</time>
      </trkpt>
      <trkpt lat="42.41625" lon="0.73654">
        <ele>856.2</ele>
        <time>2022-05-23 00:55:22</time>
      </trkpt>
      <trkpt lat="42.41622" lon="0.73656">
        <ele>856.2</ele>
        <time>2022-05-23 00:55:23</time>
      </trkpt>
      <trkpt lat="42.41617" lon="0.73659">
        <ele>856.2</ele>
        <time>2022-05-23 00:55:24</time>
      </trkpt>
      <trkpt lat="42.41613" lon="0.73662">
        <ele>856</ele>
        <time>2022-05-23 00:55:25</time>
      </trkpt>
      <trkpt lat="42.41608" lon="0.73664">
        <ele>856</ele>
        <time>2022-05-23 00:55:26</time>
      </trkpt>
      <trkpt lat="42.41603" lon="0.73667">
        <ele>856</ele>
        <time>2022-05-23 00:55:27</time>
      </trkpt>
      <trkpt lat="42.41599" lon="0.73671">
        <ele>855.8</ele>
        <time>2022-05-23 00:55:28</time>
      </trkpt>
      <trkpt lat="42.41594" lon="0.73675">
        <ele>855.8</ele>
        <time>2022-05-23 00:55:29</time>
      </trkpt>
      <trkpt lat="42.41588" lon="0.73679">
        <ele>855.6</ele>
        <time>2022-05-23 00:55:30</time>
      </trkpt>
      <trkpt lat="42.41583" lon="0.73684">
        <ele>855.6</ele>
        <time>2022-05-23 00:55:31</time>
      </trkpt>
      <trkpt lat="42.41578" lon="0.73688">
        <ele>855.6</ele>
        <time>2022-05-23 00:55:32</time>
      </trkpt>
      <trkpt lat="42.41571" lon="0.73692">
        <ele>855.6</ele>
        <time>2022-05-23 00:55:33</time>
      </trkpt>
      <trkpt lat="42.41566" lon="0.73696">
        <ele>855.4</ele>
        <time>2022-05-23 00:55:34</time>
      </trkpt>
      <trkpt lat="42.4156" lon="0.737">
        <ele>855.4</ele>
        <time>2022-05-23 00:55:35</time>
      </trkpt>
      <trkpt lat="42.41555" lon="0.73704">
        <ele>855.4</ele>
        <time>2022-05-23 00:55:36</time>
      </trkpt>
      <trkpt lat="42.4155" lon="0.73708">
        <ele>855.4</ele>
        <time>2022-05-23 00:55:37</time>
      </trkpt>
      <trkpt lat="42.41546" lon="0.73712">
        <ele>855.4</ele>
        <time>2022-05-23 00:55:38</time>
      </trkpt>
      <trkpt lat="42.41542" lon="0.73716">
        <ele>855.4</ele>
        <time>2022-05-23 00:55:39</time>
      </trkpt>
      <trkpt lat="42.41537" lon="0.7372">
        <ele>855.4</ele>
        <time>2022-05-23 00:55:40</time>
      </trkpt>
      <trkpt lat="42.41532" lon="0.73724">
        <ele>855.2</ele>
        <time>2022-05-23 00:55:41</time>
      </trkpt>
      <trkpt lat="42.41528" lon="0.73728">
        <ele>855.2</ele>
        <time>2022-05-23 00:55:42</time>
      </trkpt>
      <trkpt lat="42.41524" lon="0.73732">
        <ele>855.2</ele>
        <time>2022-05-23 00:55:43</time>
      </trkpt>
      <trkpt lat="42.41519" lon="0.73736">
        <ele>855.2</ele>
        <time>2022-05-23 00:55:44</time>
      </trkpt>
      <trkpt lat="42.41514" lon="0.73738">
        <ele>855</ele>
        <time>2022-05-23 00:55:45</time>
      </trkpt>
      <trkpt lat="42.41509" lon="0.73741">
        <ele>855</ele>
        <time>2022-05-23 00:55:46</time>
      </trkpt>
      <trkpt lat="42.41504" lon="0.73743">
        <ele>855</ele>
        <time>2022-05-23 00:55:47</time>
      </trkpt>
      <trkpt lat="42.41499" lon="0.73746">
        <ele>854.8</ele>
        <time>2022-05-23 00:55:48</time>
      </trkpt>
      <trkpt lat="42.41494" lon="0.73749">
        <ele>854.8</ele>
        <time>2022-05-23 00:55:49</time>
      </trkpt>
      <trkpt lat="42.41489" lon="0.73751">
        <ele>854.6</ele>
        <time>2022-05-23 00:55:50</time>
      </trkpt>
      <trkpt lat="42.41485" lon="0.73753">
        <ele>854.6</ele>
        <time>2022-05-23 00:55:51</time>
      </trkpt>
      <trkpt lat="42.4148" lon="0.73755">
        <ele>854.4</ele>
        <time>2022-05-23 00:55:52</time>
      </trkpt>
      <trkpt lat="42.41474" lon="0.73757">
        <ele>854.4</ele>
        <time>2022-05-23 00:55:53</time>
      </trkpt>
      <trkpt lat="42.41469" lon="0.73759">
        <ele>854.2</ele>
        <time>2022-05-23 00:55:54</time>
      </trkpt>
      <trkpt lat="42.41464" lon="0.7376">
        <ele>854.2</ele>
        <time>2022-05-23 00:55:55</time>
      </trkpt>
      <trkpt lat="42.41459" lon="0.73761">
        <ele>854</ele>
        <time>2022-05-23 00:55:56</time>
      </trkpt>
      <trkpt lat="42.41454" lon="0.73762">
        <ele>854</ele>
        <time>2022-05-23 00:55:57</time>
      </trkpt>
      <trkpt lat="42.4145" lon="0.73763">
        <ele>853.8</ele>
        <time>2022-05-23 00:55:58</time>
      </trkpt>
      <trkpt lat="42.41446" lon="0.73765">
        <ele>853.8</ele>
        <time>2022-05-23 00:55:59</time>
      </trkpt>
      <trkpt lat="42.41441" lon="0.73766">
        <ele>853.8</ele>
        <time>2022-05-23 00:56:00</time>
      </trkpt>
      <trkpt lat="42.41437" lon="0.73767">
        <ele>853.8</ele>
        <time>2022-05-23 00:56:01</time>
      </trkpt>
      <trkpt lat="42.41432" lon="0.73768">
        <ele>853.6</ele>
        <time>2022-05-23 00:56:02</time>
      </trkpt>
      <trkpt lat="42.41428" lon="0.73769">
        <ele>853.6</ele>
        <time>2022-05-23 00:56:03</time>
      </trkpt>
      <trkpt lat="42.41422" lon="0.73771">
        <ele>853.4</ele>
        <time>2022-05-23 00:56:04</time>
      </trkpt>
      <trkpt lat="42.41417" lon="0.73773">
        <ele>853.2</ele>
        <time>2022-05-23 00:56:05</time>
      </trkpt>
      <trkpt lat="42.41412" lon="0.73775">
        <ele>853</ele>
        <time>2022-05-23 00:56:06</time>
      </trkpt>
      <trkpt lat="42.41407" lon="0.73777">
        <ele>853</ele>
        <time>2022-05-23 00:56:07</time>
      </trkpt>
      <trkpt lat="42.41401" lon="0.73779">
        <ele>852.8</ele>
        <time>2022-05-23 00:56:08</time>
      </trkpt>
      <trkpt lat="42.41396" lon="0.73782">
        <ele>852.6</ele>
        <time>2022-05-23 00:56:09</time>
      </trkpt>
      <trkpt lat="42.4139" lon="0.73785">
        <ele>852.6</ele>
        <time>2022-05-23 00:56:10</time>
      </trkpt>
      <trkpt lat="42.41384" lon="0.73788">
        <ele>852.4</ele>
        <time>2022-05-23 00:56:11</time>
      </trkpt>
      <trkpt lat="42.41379" lon="0.73792">
        <ele>852.4</ele>
        <time>2022-05-23 00:56:12</time>
      </trkpt>
      <trkpt lat="42.41374" lon="0.73796">
        <ele>852.2</ele>
        <time>2022-05-23 00:56:13</time>
      </trkpt>
      <trkpt lat="42.41369" lon="0.738">
        <ele>852.2</ele>
        <time>2022-05-23 00:56:14</time>
      </trkpt>
      <trkpt lat="42.41364" lon="0.73804">
        <ele>852.2</ele>
        <time>2022-05-23 00:56:15</time>
      </trkpt>
      <trkpt lat="42.41359" lon="0.73808">
        <ele>852.2</ele>
        <time>2022-05-23 00:56:16</time>
      </trkpt>
      <trkpt lat="42.41354" lon="0.73812">
        <ele>852.2</ele>
        <time>2022-05-23 00:56:17</time>
      </trkpt>
      <trkpt lat="42.4135" lon="0.73817">
        <ele>852.2</ele>
        <time>2022-05-23 00:56:18</time>
      </trkpt>
      <trkpt lat="42.41346" lon="0.73821">
        <ele>852.2</ele>
        <time>2022-05-23 00:56:19</time>
      </trkpt>
      <trkpt lat="42.41342" lon="0.73826">
        <ele>852</ele>
        <time>2022-05-23 00:56:20</time>
      </trkpt>
      <trkpt lat="42.41338" lon="0.73831">
        <ele>852.2</ele>
        <time>2022-05-23 00:56:21</time>
      </trkpt>
      <trkpt lat="42.41335" lon="0.73836">
        <ele>852.2</ele>
        <time>2022-05-23 00:56:22</time>
      </trkpt>
      <trkpt lat="42.41331" lon="0.73842">
        <ele>852.2</ele>
        <time>2022-05-23 00:56:23</time>
      </trkpt>
      <trkpt lat="42.41325" lon="0.7385">
        <ele>852.2</ele>
        <time>2022-05-23 00:56:24</time>
      </trkpt>
      <trkpt lat="42.41318" lon="0.73859">
        <ele>852.2</ele>
        <time>2022-05-23 00:56:25</time>
      </trkpt>
      <trkpt lat="42.41312" lon="0.73868">
        <ele>852.2</ele>
        <time>2022-05-23 00:56:26</time>
      </trkpt>
      <trkpt lat="42.41307" lon="0.73875">
        <ele>852.2</ele>
        <time>2022-05-23 00:56:27</time>
      </trkpt>
      <trkpt lat="42.41305" lon="0.73879">
        <ele>852.4</ele>
        <time>2022-05-23 00:56:28</time>
      </trkpt>
      <trkpt lat="42.41305" lon="0.73885">
        <ele>852.4</ele>
        <time>2022-05-23 00:56:29</time>
      </trkpt>
      <trkpt lat="42.41305" lon="0.73892">
        <ele>852.4</ele>
        <time>2022-05-23 00:56:30</time>
      </trkpt>
      <trkpt lat="42.41304" lon="0.73897">
        <ele>852.4</ele>
        <time>2022-05-23 00:56:31</time>
      </trkpt>
      <trkpt lat="42.41303" lon="0.73904">
        <ele>852.4</ele>
        <time>2022-05-23 00:56:32</time>
      </trkpt>
      <trkpt lat="42.41302" lon="0.7391">
        <ele>852.4</ele>
        <time>2022-05-23 00:56:33</time>
      </trkpt>
      <trkpt lat="42.41301" lon="0.73917">
        <ele>852.4</ele>
        <time>2022-05-23 00:56:34</time>
      </trkpt>
      <trkpt lat="42.413" lon="0.73924">
        <ele>852.4</ele>
        <time>2022-05-23 00:56:35</time>
      </trkpt>
      <trkpt lat="42.413" lon="0.7393">
        <ele>852.4</ele>
        <time>2022-05-23 00:56:36</time>
      </trkpt>
      <trkpt lat="42.41299" lon="0.73936">
        <ele>852.4</ele>
        <time>2022-05-23 00:56:37</time>
      </trkpt>
      <trkpt lat="42.41299" lon="0.73942">
        <ele>852.4</ele>
        <time>2022-05-23 00:56:38</time>
      </trkpt>
      <trkpt lat="42.41298" lon="0.73948">
        <ele>852.6</ele>
        <time>2022-05-23 00:56:39</time>
      </trkpt>
      <trkpt lat="42.41297" lon="0.73954">
        <ele>852.6</ele>
        <time>2022-05-23 00:56:40</time>
      </trkpt>
      <trkpt lat="42.41296" lon="0.7396">
        <ele>852.6</ele>
        <time>2022-05-23 00:56:41</time>
      </trkpt>
      <trkpt lat="42.41294" lon="0.73965">
        <ele>852.8</ele>
        <time>2022-05-23 00:56:42</time>
      </trkpt>
      <trkpt lat="42.41291" lon="0.7397">
        <ele>852.8</ele>
        <time>2022-05-23 00:56:43</time>
      </trkpt>
      <trkpt lat="42.41288" lon="0.73975">
        <ele>852.8</ele>
        <time>2022-05-23 00:56:44</time>
      </trkpt>
      <trkpt lat="42.41285" lon="0.73979">
        <ele>852.8</ele>
        <time>2022-05-23 00:56:45</time>
      </trkpt>
      <trkpt lat="42.41282" lon="0.73984">
        <ele>852.8</ele>
        <time>2022-05-23 00:56:46</time>
      </trkpt>
      <trkpt lat="42.41279" lon="0.73987">
        <ele>853</ele>
        <time>2022-05-23 00:56:47</time>
      </trkpt>
      <trkpt lat="42.41275" lon="0.7399">
        <ele>853</ele>
        <time>2022-05-23 00:56:48</time>
      </trkpt>
      <trkpt lat="42.41272" lon="0.73992">
        <ele>853</ele>
        <time>2022-05-23 00:56:49</time>
      </trkpt>
      <trkpt lat="42.41268" lon="0.73995">
        <ele>853.2</ele>
        <time>2022-05-23 00:56:50</time>
      </trkpt>
      <trkpt lat="42.41264" lon="0.73997">
        <ele>853.2</ele>
        <time>2022-05-23 00:56:51</time>
      </trkpt>
      <trkpt lat="42.4126" lon="0.73998">
        <ele>853.2</ele>
        <time>2022-05-23 00:56:52</time>
      </trkpt>
      <trkpt lat="42.41255" lon="0.74">
        <ele>853.4</ele>
        <time>2022-05-23 00:56:53</time>
      </trkpt>
      <trkpt lat="42.41251" lon="0.74001">
        <ele>853.4</ele>
        <time>2022-05-23 00:56:54</time>
      </trkpt>
      <trkpt lat="42.41247" lon="0.74002">
        <ele>853.4</ele>
        <time>2022-05-23 00:56:55</time>
      </trkpt>
      <trkpt lat="42.41243" lon="0.74002">
        <ele>853.6</ele>
        <time>2022-05-23 00:56:56</time>
      </trkpt>
      <trkpt lat="42.41239" lon="0.74003">
        <ele>853.6</ele>
        <time>2022-05-23 00:56:57</time>
      </trkpt>
      <trkpt lat="42.41234" lon="0.74004">
        <ele>853.6</ele>
        <time>2022-05-23 00:56:58</time>
      </trkpt>
      <trkpt lat="42.4123" lon="0.74005">
        <ele>853.6</ele>
        <time>2022-05-23 00:56:59</time>
      </trkpt>
      <trkpt lat="42.41226" lon="0.74006">
        <ele>853.8</ele>
        <time>2022-05-23 00:57:00</time>
      </trkpt>
      <trkpt lat="42.41222" lon="0.74008">
        <ele>853.8</ele>
        <time>2022-05-23 00:57:01</time>
      </trkpt>
      <trkpt lat="42.41218" lon="0.74008">
        <ele>853.8</ele>
        <time>2022-05-23 00:57:02</time>
      </trkpt>
      <trkpt lat="42.41213" lon="0.74009">
        <ele>853.8</ele>
        <time>2022-05-23 00:57:03</time>
      </trkpt>
      <trkpt lat="42.41209" lon="0.7401">
        <ele>853.8</ele>
        <time>2022-05-23 00:57:04</time>
      </trkpt>
      <trkpt lat="42.41205" lon="0.7401">
        <ele>853.8</ele>
        <time>2022-05-23 00:57:05</time>
      </trkpt>
      <trkpt lat="42.41201" lon="0.74011">
        <ele>853.8</ele>
        <time>2022-05-23 00:57:06</time>
      </trkpt>
      <trkpt lat="42.41197" lon="0.74012">
        <ele>853.8</ele>
        <time>2022-05-23 00:57:07</time>
      </trkpt>
      <trkpt lat="42.41193" lon="0.74012">
        <ele>853.8</ele>
        <time>2022-05-23 00:57:08</time>
      </trkpt>
      <trkpt lat="42.41189" lon="0.74013">
        <ele>853.8</ele>
        <time>2022-05-23 00:57:09</time>
      </trkpt>
      <trkpt lat="42.41185" lon="0.74015">
        <ele>853.8</ele>
        <time>2022-05-23 00:57:10</time>
      </trkpt>
      <trkpt lat="42.41181" lon="0.74016">
        <ele>853.8</ele>
        <time>2022-05-23 00:57:11</time>
      </trkpt>
      <trkpt lat="42.41177" lon="0.74017">
        <ele>853.6</ele>
        <time>2022-05-23 00:57:12</time>
      </trkpt>
      <trkpt lat="42.41172" lon="0.74018">
        <ele>853.6</ele>
        <time>2022-05-23 00:57:13</time>
      </trkpt>
      <trkpt lat="42.41168" lon="0.74019">
        <ele>853.4</ele>
        <time>2022-05-23 00:57:14</time>
      </trkpt>
      <trkpt lat="42.41163" lon="0.74019">
        <ele>853.2</ele>
        <time>2022-05-23 00:57:15</time>
      </trkpt>
      <trkpt lat="42.41158" lon="0.74019">
        <ele>853</ele>
        <time>2022-05-23 00:57:16</time>
      </trkpt>
      <trkpt lat="42.41154" lon="0.74019">
        <ele>852.8</ele>
        <time>2022-05-23 00:57:17</time>
      </trkpt>
      <trkpt lat="42.41148" lon="0.7402">
        <ele>852.4</ele>
        <time>2022-05-23 00:57:18</time>
      </trkpt>
      <trkpt lat="42.41142" lon="0.7402">
        <ele>852.2</ele>
        <time>2022-05-23 00:57:19</time>
      </trkpt>
      <trkpt lat="42.41136" lon="0.74021">
        <ele>852</ele>
        <time>2022-05-23 00:57:20</time>
      </trkpt>
      <trkpt lat="42.4113" lon="0.74022">
        <ele>851.8</ele>
        <time>2022-05-23 00:57:21</time>
      </trkpt>
      <trkpt lat="42.41124" lon="0.74023">
        <ele>851.6</ele>
        <time>2022-05-23 00:57:22</time>
      </trkpt>
      <trkpt lat="42.41118" lon="0.74024">
        <ele>851.2</ele>
        <time>2022-05-23 00:57:23</time>
      </trkpt>
      <trkpt lat="42.41111" lon="0.74024">
        <ele>851</ele>
        <time>2022-05-23 00:57:24</time>
      </trkpt>
      <trkpt lat="42.41105" lon="0.74025">
        <ele>850.8</ele>
        <time>2022-05-23 00:57:25</time>
      </trkpt>
      <trkpt lat="42.41099" lon="0.74026">
        <ele>850.6</ele>
        <time>2022-05-23 00:57:26</time>
      </trkpt>
      <trkpt lat="42.41093" lon="0.74028">
        <ele>850.4</ele>
        <time>2022-05-23 00:57:27</time>
      </trkpt>
      <trkpt lat="42.41086" lon="0.74029">
        <ele>850.2</ele>
        <time>2022-05-23 00:57:28</time>
      </trkpt>
      <trkpt lat="42.4108" lon="0.7403">
        <ele>850</ele>
        <time>2022-05-23 00:57:29</time>
      </trkpt>
      <trkpt lat="42.41074" lon="0.74031">
        <ele>849.8</ele>
        <time>2022-05-23 00:57:30</time>
      </trkpt>
      <trkpt lat="42.41067" lon="0.74032">
        <ele>849.6</ele>
        <time>2022-05-23 00:57:31</time>
      </trkpt>
      <trkpt lat="42.41061" lon="0.74033">
        <ele>849.6</ele>
        <time>2022-05-23 00:57:32</time>
      </trkpt>
      <trkpt lat="42.41054" lon="0.74034">
        <ele>849.4</ele>
        <time>2022-05-23 00:57:33</time>
      </trkpt>
      <trkpt lat="42.41048" lon="0.74035">
        <ele>849.2</ele>
        <time>2022-05-23 00:57:34</time>
      </trkpt>
      <trkpt lat="42.41042" lon="0.74036">
        <ele>849</ele>
        <time>2022-05-23 00:57:35</time>
      </trkpt>
      <trkpt lat="42.41036" lon="0.74037">
        <ele>849</ele>
        <time>2022-05-23 00:57:36</time>
      </trkpt>
      <trkpt lat="42.4103" lon="0.74038">
        <ele>848.8</ele>
        <time>2022-05-23 00:57:37</time>
      </trkpt>
      <trkpt lat="42.41024" lon="0.74039">
        <ele>848.8</ele>
        <time>2022-05-23 00:57:38</time>
      </trkpt>
      <trkpt lat="42.41018" lon="0.7404">
        <ele>848.6</ele>
        <time>2022-05-23 00:57:39</time>
      </trkpt>
      <trkpt lat="42.41012" lon="0.74041">
        <ele>848.4</ele>
        <time>2022-05-23 00:57:40</time>
      </trkpt>
      <trkpt lat="42.41007" lon="0.74042">
        <ele>848.4</ele>
        <time>2022-05-23 00:57:41</time>
      </trkpt>
      <trkpt lat="42.41001" lon="0.74043">
        <ele>848.4</ele>
        <time>2022-05-23 00:57:42</time>
      </trkpt>
      <trkpt lat="42.40996" lon="0.74044">
        <ele>848.4</ele>
        <time>2022-05-23 00:57:43</time>
      </trkpt>
      <trkpt lat="42.40991" lon="0.74046">
        <ele>848.4</ele>
        <time>2022-05-23 00:57:44</time>
      </trkpt>
      <trkpt lat="42.40986" lon="0.74049">
        <ele>848.2</ele>
        <time>2022-05-23 00:57:45</time>
      </trkpt>
      <trkpt lat="42.40981" lon="0.74051">
        <ele>848.2</ele>
        <time>2022-05-23 00:57:46</time>
      </trkpt>
      <trkpt lat="42.40976" lon="0.74054">
        <ele>848.2</ele>
        <time>2022-05-23 00:57:47</time>
      </trkpt>
      <trkpt lat="42.40971" lon="0.74057">
        <ele>848.2</ele>
        <time>2022-05-23 00:57:48</time>
      </trkpt>
      <trkpt lat="42.40967" lon="0.7406">
        <ele>848.2</ele>
        <time>2022-05-23 00:57:49</time>
      </trkpt>
      <trkpt lat="42.40963" lon="0.74063">
        <ele>848.2</ele>
        <time>2022-05-23 00:57:50</time>
      </trkpt>
      <trkpt lat="42.40959" lon="0.74067">
        <ele>848</ele>
        <time>2022-05-23 00:57:51</time>
      </trkpt>
      <trkpt lat="42.40956" lon="0.74071">
        <ele>848</ele>
        <time>2022-05-23 00:57:52</time>
      </trkpt>
      <trkpt lat="42.40952" lon="0.74075">
        <ele>848</ele>
        <time>2022-05-23 00:57:53</time>
      </trkpt>
      <trkpt lat="42.40948" lon="0.74079">
        <ele>848</ele>
        <time>2022-05-23 00:57:54</time>
      </trkpt>
      <trkpt lat="42.40945" lon="0.74083">
        <ele>847.8</ele>
        <time>2022-05-23 00:57:55</time>
      </trkpt>
      <trkpt lat="42.40941" lon="0.74087">
        <ele>847.8</ele>
        <time>2022-05-23 00:57:56</time>
      </trkpt>
      <trkpt lat="42.40937" lon="0.7409">
        <ele>847.8</ele>
        <time>2022-05-23 00:57:57</time>
      </trkpt>
      <trkpt lat="42.40933" lon="0.74094">
        <ele>847.8</ele>
        <time>2022-05-23 00:57:58</time>
      </trkpt>
      <trkpt lat="42.4093" lon="0.74098">
        <ele>847.6</ele>
        <time>2022-05-23 00:57:59</time>
      </trkpt>
      <trkpt lat="42.40926" lon="0.74101">
        <ele>847.6</ele>
        <time>2022-05-23 00:58:00</time>
      </trkpt>
      <trkpt lat="42.40922" lon="0.74105">
        <ele>847.6</ele>
        <time>2022-05-23 00:58:01</time>
      </trkpt>
      <trkpt lat="42.40918" lon="0.74109">
        <ele>847.6</ele>
        <time>2022-05-23 00:58:02</time>
      </trkpt>
      <trkpt lat="42.40915" lon="0.74113">
        <ele>847.6</ele>
        <time>2022-05-23 00:58:03</time>
      </trkpt>
      <trkpt lat="42.40911" lon="0.74117">
        <ele>847.4</ele>
        <time>2022-05-23 00:58:04</time>
      </trkpt>
      <trkpt lat="42.40907" lon="0.74121">
        <ele>847.4</ele>
        <time>2022-05-23 00:58:05</time>
      </trkpt>
      <trkpt lat="42.40904" lon="0.74124">
        <ele>847.4</ele>
        <time>2022-05-23 00:58:06</time>
      </trkpt>
      <trkpt lat="42.409" lon="0.74127">
        <ele>847.4</ele>
        <time>2022-05-23 00:58:07</time>
      </trkpt>
      <trkpt lat="42.40896" lon="0.74131">
        <ele>847.4</ele>
        <time>2022-05-23 00:58:08</time>
      </trkpt>
      <trkpt lat="42.40893" lon="0.74134">
        <ele>847.2</ele>
        <time>2022-05-23 00:58:09</time>
      </trkpt>
      <trkpt lat="42.4089" lon="0.74138">
        <ele>847.2</ele>
        <time>2022-05-23 00:58:10</time>
      </trkpt>
      <trkpt lat="42.40886" lon="0.74141">
        <ele>847.2</ele>
        <time>2022-05-23 00:58:11</time>
      </trkpt>
      <trkpt lat="42.40883" lon="0.74145">
        <ele>847.2</ele>
        <time>2022-05-23 00:58:12</time>
      </trkpt>
      <trkpt lat="42.4088" lon="0.74148">
        <ele>847.2</ele>
        <time>2022-05-23 00:58:13</time>
      </trkpt>
      <trkpt lat="42.40877" lon="0.74151">
        <ele>847.2</ele>
        <time>2022-05-23 00:58:14</time>
      </trkpt>
      <trkpt lat="42.40874" lon="0.74155">
        <ele>847</ele>
        <time>2022-05-23 00:58:15</time>
      </trkpt>
      <trkpt lat="42.40871" lon="0.74158">
        <ele>847</ele>
        <time>2022-05-23 00:58:16</time>
      </trkpt>
      <trkpt lat="42.40868" lon="0.74161">
        <ele>847</ele>
        <time>2022-05-23 00:58:17</time>
      </trkpt>
      <trkpt lat="42.40865" lon="0.74164">
        <ele>847</ele>
        <time>2022-05-23 00:58:18</time>
      </trkpt>
      <trkpt lat="42.40863" lon="0.74166">
        <ele>847</ele>
        <time>2022-05-23 00:58:19</time>
      </trkpt>
      <trkpt lat="42.40861" lon="0.74167">
        <ele>847</ele>
        <time>2022-05-23 00:58:20</time>
      </trkpt>
      <trkpt lat="42.4086" lon="0.74168">
        <ele>847</ele>
        <time>2022-05-23 00:58:21</time>
      </trkpt>
      <trkpt lat="42.4086" lon="0.74169">
        <ele>847.2</ele>
        <time>2022-05-23 00:58:22</time>
      </trkpt>
      <trkpt lat="42.40861" lon="0.74168">
        <ele>847.2</ele>
        <time>2022-05-23 00:58:23</time>
      </trkpt>
      <trkpt lat="42.40863" lon="0.74166">
        <ele>847.2</ele>
        <time>2022-05-23 00:58:24</time>
      </trkpt>
      <trkpt lat="42.40865" lon="0.74165">
        <ele>847.2</ele>
        <time>2022-05-23 00:58:25</time>
      </trkpt>
      <trkpt lat="42.40867" lon="0.74163">
        <ele>847.2</ele>
        <time>2022-05-23 00:58:26</time>
      </trkpt>
      <trkpt lat="42.4087" lon="0.74162">
        <ele>847.2</ele>
        <time>2022-05-23 00:58:27</time>
      </trkpt>
      <trkpt lat="42.40873" lon="0.7416">
        <ele>847.2</ele>
        <time>2022-05-23 00:58:28</time>
      </trkpt>
      <trkpt lat="42.40875" lon="0.74158">
        <ele>847.2</ele>
        <time>2022-05-23 00:58:29</time>
      </trkpt>
      <trkpt lat="42.40878" lon="0.74155">
        <ele>847.2</ele>
        <time>2022-05-23 00:58:30</time>
      </trkpt>
      <trkpt lat="42.40881" lon="0.74152">
        <ele>847.4</ele>
        <time>2022-05-23 00:58:31</time>
      </trkpt>
      <trkpt lat="42.40883" lon="0.74149">
        <ele>847.4</ele>
        <time>2022-05-23 00:58:32</time>
      </trkpt>
      <trkpt lat="42.40886" lon="0.74147">
        <ele>847.4</ele>
        <time>2022-05-23 00:58:33</time>
      </trkpt>
      <trkpt lat="42.40889" lon="0.74143">
        <ele>847.4</ele>
        <time>2022-05-23 00:58:34</time>
      </trkpt>
      <trkpt lat="42.40892" lon="0.7414">
        <ele>847.4</ele>
        <time>2022-05-23 00:58:35</time>
      </trkpt>
      <trkpt lat="42.40894" lon="0.74137">
        <ele>847.6</ele>
        <time>2022-05-23 00:58:36</time>
      </trkpt>
      <trkpt lat="42.40897" lon="0.74137">
        <ele>847.6</ele>
        <time>2022-05-23 00:58:37</time>
      </trkpt>
      <trkpt lat="42.40899" lon="0.74136">
        <ele>847.6</ele>
        <time>2022-05-23 00:58:38</time>
      </trkpt>
      <trkpt lat="42.409" lon="0.74136">
        <ele>847.8</ele>
        <time>2022-05-23 00:58:39</time>
      </trkpt>
      <trkpt lat="42.40902" lon="0.74135">
        <ele>847.8</ele>
        <time>2022-05-23 00:58:40</time>
      </trkpt>
      <trkpt lat="42.40904" lon="0.74134">
        <ele>848</ele>
        <time>2022-05-23 00:58:41</time>
      </trkpt>
      <trkpt lat="42.40906" lon="0.74133">
        <ele>848</ele>
        <time>2022-05-23 00:58:42</time>
      </trkpt>
      <trkpt lat="42.40908" lon="0.74134">
        <ele>848</ele>
        <time>2022-05-23 00:58:43</time>
      </trkpt>
      <trkpt lat="42.4091" lon="0.74135">
        <ele>848</ele>
        <time>2022-05-23 00:58:44</time>
      </trkpt>
      <trkpt lat="42.40912" lon="0.74137">
        <ele>848.2</ele>
        <time>2022-05-23 00:58:45</time>
      </trkpt>
      <trkpt lat="42.40915" lon="0.7414">
        <ele>848.2</ele>
        <time>2022-05-23 00:58:46</time>
      </trkpt>
      <trkpt lat="42.40917" lon="0.74142">
        <ele>848.2</ele>
        <time>2022-05-23 00:58:47</time>
      </trkpt>
      <trkpt lat="42.40918" lon="0.74143">
        <ele>848.4</ele>
        <time>2022-05-23 00:58:48</time>
      </trkpt>
      <trkpt lat="42.40919" lon="0.74145">
        <ele>848.4</ele>
        <time>2022-05-23 00:58:49</time>
      </trkpt>
      <trkpt lat="42.4092" lon="0.74146">
        <ele>848.4</ele>
        <time>2022-05-23 00:58:50</time>
      </trkpt>
      <trkpt lat="42.40919" lon="0.74146">
        <ele>848.6</ele>
        <time>2022-05-23 00:58:51</time>
      </trkpt>
      <trkpt lat="42.40918" lon="0.74146">
        <ele>848.6</ele>
        <time>2022-05-23 00:58:52</time>
      </trkpt>
      <trkpt lat="42.40917" lon="0.74146">
        <ele>848.6</ele>
        <time>2022-05-23 00:58:53</time>
      </trkpt>
      <trkpt lat="42.40917" lon="0.74147">
        <ele>848.8</ele>
        <time>2022-05-23 00:58:54</time>
      </trkpt>
      <trkpt lat="42.40917" lon="0.74148">
        <ele>848.8</ele>
        <time>2022-05-23 00:58:55</time>
      </trkpt>
      <trkpt lat="42.40905" lon="0.74124">
        <ele>942</ele>
        <time>2022-05-23 04:39:34</time>
      </trkpt>
      <trkpt lat="42.40905" lon="0.74124">
        <ele>942</ele>
        <time>2022-05-23 04:39:35</time>
      </trkpt>
      <trkpt lat="42.40905" lon="0.74124">
        <ele>942</ele>
        <time>2022-05-23 04:39:36</time>
      </trkpt>
      <trkpt lat="42.40913" lon="0.74129">
        <ele>942</ele>
        <time>2022-05-23 04:39:37</time>
      </trkpt>
      <trkpt lat="42.40913" lon="0.74128">
        <ele>942</ele>
        <time>2022-05-23 04:39:38</time>
      </trkpt>
      <trkpt lat="42.40913" lon="0.74127">
        <ele>942</ele>
        <time>2022-05-23 04:39:39</time>
      </trkpt>
      <trkpt lat="42.40912" lon="0.74126">
        <ele>941.8</ele>
        <time>2022-05-23 04:39:40</time>
      </trkpt>
      <trkpt lat="42.40911" lon="0.74125">
        <ele>941.8</ele>
        <time>2022-05-23 04:39:41</time>
      </trkpt>
      <trkpt lat="42.4091" lon="0.74124">
        <ele>941.8</ele>
        <time>2022-05-23 04:39:42</time>
      </trkpt>
      <trkpt lat="42.40909" lon="0.74123">
        <ele>941.8</ele>
        <time>2022-05-23 04:39:43</time>
      </trkpt>
      <trkpt lat="42.40907" lon="0.74121">
        <ele>941.8</ele>
        <time>2022-05-23 04:39:44</time>
      </trkpt>
      <trkpt lat="42.40906" lon="0.7412">
        <ele>941.8</ele>
        <time>2022-05-23 04:39:45</time>
      </trkpt>
      <trkpt lat="42.40905" lon="0.7412">
        <ele>941.6</ele>
        <time>2022-05-23 04:39:46</time>
      </trkpt>
      <trkpt lat="42.40902" lon="0.7412">
        <ele>941.6</ele>
        <time>2022-05-23 04:39:47</time>
      </trkpt>
      <trkpt lat="42.409" lon="0.74121">
        <ele>941.6</ele>
        <time>2022-05-23 04:39:48</time>
      </trkpt>
      <trkpt lat="42.40897" lon="0.74122">
        <ele>941.6</ele>
        <time>2022-05-23 04:39:49</time>
      </trkpt>
      <trkpt lat="42.40896" lon="0.74123">
        <ele>941.6</ele>
        <time>2022-05-23 04:39:50</time>
      </trkpt>
      <trkpt lat="42.40895" lon="0.74124">
        <ele>941.4</ele>
        <time>2022-05-23 04:39:51</time>
      </trkpt>
      <trkpt lat="42.40894" lon="0.74125">
        <ele>941.4</ele>
        <time>2022-05-23 04:39:52</time>
      </trkpt>
      <trkpt lat="42.40893" lon="0.74126">
        <ele>941.4</ele>
        <time>2022-05-23 04:39:53</time>
      </trkpt>
      <trkpt lat="42.40893" lon="0.74128">
        <ele>941.4</ele>
        <time>2022-05-23 04:39:54</time>
      </trkpt>
      <trkpt lat="42.40892" lon="0.74129">
        <ele>941.2</ele>
        <time>2022-05-23 04:39:55</time>
      </trkpt>
      <trkpt lat="42.40891" lon="0.74129">
        <ele>941.2</ele>
        <time>2022-05-23 04:39:56</time>
      </trkpt>
      <trkpt lat="42.4089" lon="0.7413">
        <ele>941.2</ele>
        <time>2022-05-23 04:39:57</time>
      </trkpt>
      <trkpt lat="42.40889" lon="0.74132">
        <ele>941.2</ele>
        <time>2022-05-23 04:39:58</time>
      </trkpt>
      <trkpt lat="42.40888" lon="0.74134">
        <ele>941.2</ele>
        <time>2022-05-23 04:39:59</time>
      </trkpt>
      <trkpt lat="42.40887" lon="0.74136">
        <ele>941.2</ele>
        <time>2022-05-23 04:40:00</time>
      </trkpt>
      <trkpt lat="42.40885" lon="0.74138">
        <ele>941</ele>
        <time>2022-05-23 04:40:01</time>
      </trkpt>
      <trkpt lat="42.40884" lon="0.7414">
        <ele>941</ele>
        <time>2022-05-23 04:40:02</time>
      </trkpt>
      <trkpt lat="42.40883" lon="0.74143">
        <ele>941</ele>
        <time>2022-05-23 04:40:03</time>
      </trkpt>
      <trkpt lat="42.40882" lon="0.74144">
        <ele>941</ele>
        <time>2022-05-23 04:40:04</time>
      </trkpt>
      <trkpt lat="42.40879" lon="0.74147">
        <ele>940.8</ele>
        <time>2022-05-23 04:40:05</time>
      </trkpt>
      <trkpt lat="42.40878" lon="0.74149">
        <ele>940.8</ele>
        <time>2022-05-23 04:40:06</time>
      </trkpt>
      <trkpt lat="42.40876" lon="0.74151">
        <ele>940.8</ele>
        <time>2022-05-23 04:40:07</time>
      </trkpt>
      <trkpt lat="42.40876" lon="0.74153">
        <ele>940.8</ele>
        <time>2022-05-23 04:40:08</time>
      </trkpt>
      <trkpt lat="42.40874" lon="0.74156">
        <ele>940.8</ele>
        <time>2022-05-23 04:40:09</time>
      </trkpt>
      <trkpt lat="42.40872" lon="0.74158">
        <ele>940.8</ele>
        <time>2022-05-23 04:40:10</time>
      </trkpt>
      <trkpt lat="42.40871" lon="0.7416">
        <ele>940.6</ele>
        <time>2022-05-23 04:40:11</time>
      </trkpt>
      <trkpt lat="42.40869" lon="0.74162">
        <ele>940.6</ele>
        <time>2022-05-23 04:40:12</time>
      </trkpt>
      <trkpt lat="42.40869" lon="0.74163">
        <ele>940.6</ele>
        <time>2022-05-23 04:40:13</time>
      </trkpt>
      <trkpt lat="42.40866" lon="0.74166">
        <ele>940.6</ele>
        <time>2022-05-23 04:40:14</time>
      </trkpt>
      <trkpt lat="42.40865" lon="0.74168">
        <ele>940.4</ele>
        <time>2022-05-23 04:40:15</time>
      </trkpt>
      <trkpt lat="42.40863" lon="0.74169">
        <ele>940.4</ele>
        <time>2022-05-23 04:40:16</time>
      </trkpt>
      <trkpt lat="42.40861" lon="0.74171">
        <ele>940.4</ele>
        <time>2022-05-23 04:40:17</time>
      </trkpt>
      <trkpt lat="42.40859" lon="0.74174">
        <ele>940.2</ele>
        <time>2022-05-23 04:40:18</time>
      </trkpt>
      <trkpt lat="42.40857" lon="0.74177">
        <ele>940</ele>
        <time>2022-05-23 04:40:19</time>
      </trkpt>
      <trkpt lat="42.40853" lon="0.74182">
        <ele>939.8</ele>
        <time>2022-05-23 04:40:20</time>
      </trkpt>
      <trkpt lat="42.40849" lon="0.74185">
        <ele>939.4</ele>
        <time>2022-05-23 04:40:21</time>
      </trkpt>
      <trkpt lat="42.40844" lon="0.7419">
        <ele>939.2</ele>
        <time>2022-05-23 04:40:22</time>
      </trkpt>
      <trkpt lat="42.40839" lon="0.74194">
        <ele>938.6</ele>
        <time>2022-05-23 04:40:23</time>
      </trkpt>
      <trkpt lat="42.40834" lon="0.74199">
        <ele>938.2</ele>
        <time>2022-05-23 04:40:24</time>
      </trkpt>
      <trkpt lat="42.40829" lon="0.74203">
        <ele>937.6</ele>
        <time>2022-05-23 04:40:25</time>
      </trkpt>
      <trkpt lat="42.40824" lon="0.74208">
        <ele>937.2</ele>
        <time>2022-05-23 04:40:26</time>
      </trkpt>
      <trkpt lat="42.40818" lon="0.74215">
        <ele>936.6</ele>
        <time>2022-05-23 04:40:27</time>
      </trkpt>
      <trkpt lat="42.40812" lon="0.74221">
        <ele>936</ele>
        <time>2022-05-23 04:40:28</time>
      </trkpt>
      <trkpt lat="42.40807" lon="0.74226">
        <ele>935.4</ele>
        <time>2022-05-23 04:40:29</time>
      </trkpt>
      <trkpt lat="42.408" lon="0.74232">
        <ele>934.8</ele>
        <time>2022-05-23 04:40:30</time>
      </trkpt>
      <trkpt lat="42.40794" lon="0.74237">
        <ele>934.4</ele>
        <time>2022-05-23 04:40:31</time>
      </trkpt>
      <trkpt lat="42.40787" lon="0.74243">
        <ele>933.8</ele>
        <time>2022-05-23 04:40:32</time>
      </trkpt>
      <trkpt lat="42.40779" lon="0.74249">
        <ele>933.4</ele>
        <time>2022-05-23 04:40:33</time>
      </trkpt>
      <trkpt lat="42.40773" lon="0.74253">
        <ele>933.2</ele>
        <time>2022-05-23 04:40:34</time>
      </trkpt>
      <trkpt lat="42.40763" lon="0.74262">
        <ele>933</ele>
        <time>2022-05-23 04:40:35</time>
      </trkpt>
      <trkpt lat="42.40756" lon="0.74266">
        <ele>932.8</ele>
        <time>2022-05-23 04:40:36</time>
      </trkpt>
      <trkpt lat="42.40749" lon="0.74268">
        <ele>932.8</ele>
        <time>2022-05-23 04:40:37</time>
      </trkpt>
      <trkpt lat="42.4074" lon="0.74271">
        <ele>932.6</ele>
        <time>2022-05-23 04:40:38</time>
      </trkpt>
      <trkpt lat="42.40733" lon="0.7427">
        <ele>932.6</ele>
        <time>2022-05-23 04:40:39</time>
      </trkpt>
      <trkpt lat="42.40726" lon="0.74269">
        <ele>932.6</ele>
        <time>2022-05-23 04:40:40</time>
      </trkpt>
      <trkpt lat="42.40719" lon="0.74267">
        <ele>932.6</ele>
        <time>2022-05-23 04:40:41</time>
      </trkpt>
      <trkpt lat="42.40712" lon="0.74265">
        <ele>932.6</ele>
        <time>2022-05-23 04:40:42</time>
      </trkpt>
      <trkpt lat="42.40705" lon="0.74262">
        <ele>932.6</ele>
        <time>2022-05-23 04:40:43</time>
      </trkpt>
      <trkpt lat="42.40699" lon="0.74259">
        <ele>932.6</ele>
        <time>2022-05-23 04:40:44</time>
      </trkpt>
      <trkpt lat="42.40692" lon="0.74257">
        <ele>932.6</ele>
        <time>2022-05-23 04:40:45</time>
      </trkpt>
      <trkpt lat="42.40687" lon="0.74254">
        <ele>932.6</ele>
        <time>2022-05-23 04:40:46</time>
      </trkpt>
      <trkpt lat="42.40681" lon="0.74251">
        <ele>932.6</ele>
        <time>2022-05-23 04:40:47</time>
      </trkpt>
      <trkpt lat="42.40676" lon="0.74249">
        <ele>932.6</ele>
        <time>2022-05-23 04:40:48</time>
      </trkpt>
      <trkpt lat="42.4067" lon="0.74246">
        <ele>932.8</ele>
        <time>2022-05-23 04:40:49</time>
      </trkpt>
      <trkpt lat="42.40665" lon="0.74244">
        <ele>932.8</ele>
        <time>2022-05-23 04:40:50</time>
      </trkpt>
      <trkpt lat="42.4066" lon="0.74241">
        <ele>932.8</ele>
        <time>2022-05-23 04:40:51</time>
      </trkpt>
      <trkpt lat="42.40655" lon="0.74239">
        <ele>933</ele>
        <time>2022-05-23 04:40:52</time>
      </trkpt>
      <trkpt lat="42.4065" lon="0.74237">
        <ele>933</ele>
        <time>2022-05-23 04:40:53</time>
      </trkpt>
      <trkpt lat="42.40645" lon="0.74234">
        <ele>933</ele>
        <time>2022-05-23 04:40:54</time>
      </trkpt>
      <trkpt lat="42.40642" lon="0.74233">
        <ele>933</ele>
        <time>2022-05-23 04:40:55</time>
      </trkpt>
      <trkpt lat="42.40637" lon="0.74231">
        <ele>933</ele>
        <time>2022-05-23 04:40:56</time>
      </trkpt>
      <trkpt lat="42.40632" lon="0.74231">
        <ele>933</ele>
        <time>2022-05-23 04:40:57</time>
      </trkpt>
      <trkpt lat="42.40627" lon="0.7423">
        <ele>933</ele>
        <time>2022-05-23 04:40:58</time>
      </trkpt>
      <trkpt lat="42.40623" lon="0.74228">
        <ele>933</ele>
        <time>2022-05-23 04:40:59</time>
      </trkpt>
      <trkpt lat="42.40618" lon="0.74226">
        <ele>933.2</ele>
        <time>2022-05-23 04:41:00</time>
      </trkpt>
      <trkpt lat="42.40615" lon="0.74225">
        <ele>933.2</ele>
        <time>2022-05-23 04:41:01</time>
      </trkpt>
      <trkpt lat="42.40609" lon="0.74223">
        <ele>933.2</ele>
        <time>2022-05-23 04:41:02</time>
      </trkpt>
      <trkpt lat="42.40605" lon="0.74223">
        <ele>933.2</ele>
        <time>2022-05-23 04:41:03</time>
      </trkpt>
      <trkpt lat="42.40601" lon="0.74222">
        <ele>933</ele>
        <time>2022-05-23 04:41:04</time>
      </trkpt>
      <trkpt lat="42.40596" lon="0.74222">
        <ele>933</ele>
        <time>2022-05-23 04:41:05</time>
      </trkpt>
      <trkpt lat="42.4059" lon="0.74222">
        <ele>932.8</ele>
        <time>2022-05-23 04:41:06</time>
      </trkpt>
      <trkpt lat="42.40585" lon="0.74223">
        <ele>932.6</ele>
        <time>2022-05-23 04:41:07</time>
      </trkpt>
      <trkpt lat="42.40579" lon="0.74224">
        <ele>932.4</ele>
        <time>2022-05-23 04:41:08</time>
      </trkpt>
      <trkpt lat="42.40574" lon="0.74225">
        <ele>932.4</ele>
        <time>2022-05-23 04:41:09</time>
      </trkpt>
      <trkpt lat="42.40569" lon="0.74226">
        <ele>932.2</ele>
        <time>2022-05-23 04:41:10</time>
      </trkpt>
      <trkpt lat="42.40564" lon="0.74228">
        <ele>932</ele>
        <time>2022-05-23 04:41:11</time>
      </trkpt>
      <trkpt lat="42.40559" lon="0.7423">
        <ele>931.8</ele>
        <time>2022-05-23 04:41:12</time>
      </trkpt>
      <trkpt lat="42.40554" lon="0.74231">
        <ele>931.6</ele>
        <time>2022-05-23 04:41:13</time>
      </trkpt>
      <trkpt lat="42.40548" lon="0.74233">
        <ele>931.4</ele>
        <time>2022-05-23 04:41:14</time>
      </trkpt>
      <trkpt lat="42.40543" lon="0.74234">
        <ele>931.2</ele>
        <time>2022-05-23 04:41:15</time>
      </trkpt>
      <trkpt lat="42.40538" lon="0.74236">
        <ele>931</ele>
        <time>2022-05-23 04:41:16</time>
      </trkpt>
      <trkpt lat="42.40531" lon="0.74237">
        <ele>930.8</ele>
        <time>2022-05-23 04:41:17</time>
      </trkpt>
      <trkpt lat="42.40527" lon="0.74238">
        <ele>930.6</ele>
        <time>2022-05-23 04:41:18</time>
      </trkpt>
      <trkpt lat="42.40517" lon="0.7424">
        <ele>930.4</ele>
        <time>2022-05-23 04:41:19</time>
      </trkpt>
      <trkpt lat="42.40511" lon="0.74241">
        <ele>930.2</ele>
        <time>2022-05-23 04:41:20</time>
      </trkpt>
      <trkpt lat="42.40504" lon="0.74242">
        <ele>929.8</ele>
        <time>2022-05-23 04:41:21</time>
      </trkpt>
      <trkpt lat="42.40497" lon="0.74243">
        <ele>929.6</ele>
        <time>2022-05-23 04:41:22</time>
      </trkpt>
      <trkpt lat="42.4049" lon="0.74243">
        <ele>929.4</ele>
        <time>2022-05-23 04:41:23</time>
      </trkpt>
      <trkpt lat="42.40483" lon="0.74243">
        <ele>929.2</ele>
        <time>2022-05-23 04:41:24</time>
      </trkpt>
      <trkpt lat="42.40477" lon="0.74243">
        <ele>929</ele>
        <time>2022-05-23 04:41:25</time>
      </trkpt>
      <trkpt lat="42.40469" lon="0.74241">
        <ele>928.8</ele>
        <time>2022-05-23 04:41:26</time>
      </trkpt>
      <trkpt lat="42.40463" lon="0.7424">
        <ele>928.8</ele>
        <time>2022-05-23 04:41:27</time>
      </trkpt>
      <trkpt lat="42.40457" lon="0.74238">
        <ele>928.6</ele>
        <time>2022-05-23 04:41:28</time>
      </trkpt>
      <trkpt lat="42.4045" lon="0.74236">
        <ele>928.6</ele>
        <time>2022-05-23 04:41:29</time>
      </trkpt>
      <trkpt lat="42.40445" lon="0.74233">
        <ele>928.6</ele>
        <time>2022-05-23 04:41:30</time>
      </trkpt>
      <trkpt lat="42.40439" lon="0.74231">
        <ele>928.6</ele>
        <time>2022-05-23 04:41:31</time>
      </trkpt>
      <trkpt lat="42.40434" lon="0.74229">
        <ele>928.6</ele>
        <time>2022-05-23 04:41:32</time>
      </trkpt>
      <trkpt lat="42.40428" lon="0.74228">
        <ele>928.6</ele>
        <time>2022-05-23 04:41:33</time>
      </trkpt>
      <trkpt lat="42.40424" lon="0.74226">
        <ele>928.8</ele>
        <time>2022-05-23 04:41:34</time>
      </trkpt>
      <trkpt lat="42.40418" lon="0.74225">
        <ele>928.8</ele>
        <time>2022-05-23 04:41:35</time>
      </trkpt>
      <trkpt lat="42.40413" lon="0.74223">
        <ele>928.8</ele>
        <time>2022-05-23 04:41:36</time>
      </trkpt>
      <trkpt lat="42.40408" lon="0.74222">
        <ele>928.8</ele>
        <time>2022-05-23 04:41:37</time>
      </trkpt>
      <trkpt lat="42.40404" lon="0.74221">
        <ele>929</ele>
        <time>2022-05-23 04:41:38</time>
      </trkpt>
      <trkpt lat="42.40399" lon="0.74219">
        <ele>929</ele>
        <time>2022-05-23 04:41:39</time>
      </trkpt>
      <trkpt lat="42.40393" lon="0.74219">
        <ele>929</ele>
        <time>2022-05-23 04:41:40</time>
      </trkpt>
      <trkpt lat="42.40388" lon="0.74218">
        <ele>929.2</ele>
        <time>2022-05-23 04:41:41</time>
      </trkpt>
      <trkpt lat="42.40383" lon="0.74217">
        <ele>929.2</ele>
        <time>2022-05-23 04:41:42</time>
      </trkpt>
      <trkpt lat="42.40379" lon="0.74217">
        <ele>929.2</ele>
        <time>2022-05-23 04:41:43</time>
      </trkpt>
      <trkpt lat="42.40374" lon="0.74216">
        <ele>929.2</ele>
        <time>2022-05-23 04:41:44</time>
      </trkpt>
      <trkpt lat="42.40369" lon="0.74217">
        <ele>929.2</ele>
        <time>2022-05-23 04:41:45</time>
      </trkpt>
      <trkpt lat="42.40365" lon="0.74217">
        <ele>929.2</ele>
        <time>2022-05-23 04:41:46</time>
      </trkpt>
      <trkpt lat="42.40359" lon="0.74217">
        <ele>929.2</ele>
        <time>2022-05-23 04:41:47</time>
      </trkpt>
      <trkpt lat="42.40354" lon="0.74218">
        <ele>929.2</ele>
        <time>2022-05-23 04:41:48</time>
      </trkpt>
      <trkpt lat="42.40349" lon="0.74218">
        <ele>929.2</ele>
        <time>2022-05-23 04:41:49</time>
      </trkpt>
      <trkpt lat="42.40344" lon="0.74219">
        <ele>929.2</ele>
        <time>2022-05-23 04:41:50</time>
      </trkpt>
      <trkpt lat="42.40338" lon="0.74219">
        <ele>929.2</ele>
        <time>2022-05-23 04:41:51</time>
      </trkpt>
      <trkpt lat="42.40333" lon="0.7422">
        <ele>929.2</ele>
        <time>2022-05-23 04:41:52</time>
      </trkpt>
      <trkpt lat="42.40329" lon="0.74221">
        <ele>929.4</ele>
        <time>2022-05-23 04:41:53</time>
      </trkpt>
      <trkpt lat="42.40324" lon="0.74222">
        <ele>929.4</ele>
        <time>2022-05-23 04:41:54</time>
      </trkpt>
      <trkpt lat="42.40319" lon="0.74222">
        <ele>929.4</ele>
        <time>2022-05-23 04:41:55</time>
      </trkpt>
      <trkpt lat="42.40314" lon="0.74223">
        <ele>929.2</ele>
        <time>2022-05-23 04:41:56</time>
      </trkpt>
      <trkpt lat="42.40309" lon="0.74224">
        <ele>929.2</ele>
        <time>2022-05-23 04:41:57</time>
      </trkpt>
      <trkpt lat="42.40304" lon="0.74225">
        <ele>929.2</ele>
        <time>2022-05-23 04:41:58</time>
      </trkpt>
      <trkpt lat="42.40299" lon="0.74226">
        <ele>929.2</ele>
        <time>2022-05-23 04:41:59</time>
      </trkpt>
      <trkpt lat="42.40293" lon="0.74226">
        <ele>929</ele>
        <time>2022-05-23 04:42:00</time>
      </trkpt>
      <trkpt lat="42.40288" lon="0.74227">
        <ele>928.8</ele>
        <time>2022-05-23 04:42:01</time>
      </trkpt>
      <trkpt lat="42.40282" lon="0.74227">
        <ele>928.8</ele>
        <time>2022-05-23 04:42:02</time>
      </trkpt>
      <trkpt lat="42.40276" lon="0.74228">
        <ele>928.6</ele>
        <time>2022-05-23 04:42:03</time>
      </trkpt>
      <trkpt lat="42.40271" lon="0.74228">
        <ele>928.6</ele>
        <time>2022-05-23 04:42:04</time>
      </trkpt>
      <trkpt lat="42.40265" lon="0.74228">
        <ele>928.4</ele>
        <time>2022-05-23 04:42:05</time>
      </trkpt>
      <trkpt lat="42.40259" lon="0.74229">
        <ele>928.2</ele>
        <time>2022-05-23 04:42:06</time>
      </trkpt>
      <trkpt lat="42.40254" lon="0.7423">
        <ele>928</ele>
        <time>2022-05-23 04:42:07</time>
      </trkpt>
      <trkpt lat="42.40247" lon="0.74231">
        <ele>927.6</ele>
        <time>2022-05-23 04:42:08</time>
      </trkpt>
      <trkpt lat="42.4024" lon="0.74231">
        <ele>927.4</ele>
        <time>2022-05-23 04:42:09</time>
      </trkpt>
      <trkpt lat="42.40233" lon="0.74232">
        <ele>927</ele>
        <time>2022-05-23 04:42:10</time>
      </trkpt>
      <trkpt lat="42.40227" lon="0.74233">
        <ele>926.6</ele>
        <time>2022-05-23 04:42:11</time>
      </trkpt>
      <trkpt lat="42.40218" lon="0.74234">
        <ele>926.2</ele>
        <time>2022-05-23 04:42:12</time>
      </trkpt>
      <trkpt lat="42.40211" lon="0.74234">
        <ele>925.8</ele>
        <time>2022-05-23 04:42:13</time>
      </trkpt>
      <trkpt lat="42.40203" lon="0.74235">
        <ele>925.2</ele>
        <time>2022-05-23 04:42:14</time>
      </trkpt>
      <trkpt lat="42.40194" lon="0.74236">
        <ele>924.8</ele>
        <time>2022-05-23 04:42:15</time>
      </trkpt>
      <trkpt lat="42.40186" lon="0.74237">
        <ele>924.2</ele>
        <time>2022-05-23 04:42:16</time>
      </trkpt>
      <trkpt lat="42.40177" lon="0.74237">
        <ele>923.8</ele>
        <time>2022-05-23 04:42:17</time>
      </trkpt>
      <trkpt lat="42.40169" lon="0.74237">
        <ele>923.2</ele>
        <time>2022-05-23 04:42:18</time>
      </trkpt>
      <trkpt lat="42.4016" lon="0.74237">
        <ele>922.8</ele>
        <time>2022-05-23 04:42:19</time>
      </trkpt>
      <trkpt lat="42.40151" lon="0.74236">
        <ele>922.4</ele>
        <time>2022-05-23 04:42:20</time>
      </trkpt>
      <trkpt lat="42.40143" lon="0.74236">
        <ele>922.2</ele>
        <time>2022-05-23 04:42:21</time>
      </trkpt>
      <trkpt lat="42.40135" lon="0.74236">
        <ele>921.8</ele>
        <time>2022-05-23 04:42:22</time>
      </trkpt>
      <trkpt lat="42.40128" lon="0.74238">
        <ele>921.6</ele>
        <time>2022-05-23 04:42:23</time>
      </trkpt>
      <trkpt lat="42.40121" lon="0.74242">
        <ele>921.6</ele>
        <time>2022-05-23 04:42:24</time>
      </trkpt>
      <trkpt lat="42.40115" lon="0.74247">
        <ele>921.6</ele>
        <time>2022-05-23 04:42:25</time>
      </trkpt>
      <trkpt lat="42.4011" lon="0.74254">
        <ele>921.6</ele>
        <time>2022-05-23 04:42:26</time>
      </trkpt>
      <trkpt lat="42.40104" lon="0.74259">
        <ele>921.6</ele>
        <time>2022-05-23 04:42:27</time>
      </trkpt>
      <trkpt lat="42.40099" lon="0.74264">
        <ele>921.4</ele>
        <time>2022-05-23 04:42:28</time>
      </trkpt>
      <trkpt lat="42.40093" lon="0.74268">
        <ele>921.4</ele>
        <time>2022-05-23 04:42:29</time>
      </trkpt>
      <trkpt lat="42.40087" lon="0.74271">
        <ele>921.4</ele>
        <time>2022-05-23 04:42:30</time>
      </trkpt>
      <trkpt lat="42.40081" lon="0.74275">
        <ele>921.2</ele>
        <time>2022-05-23 04:42:31</time>
      </trkpt>
      <trkpt lat="42.40075" lon="0.74278">
        <ele>921</ele>
        <time>2022-05-23 04:42:32</time>
      </trkpt>
      <trkpt lat="42.40068" lon="0.74281">
        <ele>920.6</ele>
        <time>2022-05-23 04:42:33</time>
      </trkpt>
      <trkpt lat="42.40062" lon="0.74285">
        <ele>920.2</ele>
        <time>2022-05-23 04:42:34</time>
      </trkpt>
      <trkpt lat="42.40055" lon="0.74288">
        <ele>920</ele>
        <time>2022-05-23 04:42:35</time>
      </trkpt>
      <trkpt lat="42.40048" lon="0.7429">
        <ele>919.4</ele>
        <time>2022-05-23 04:42:36</time>
      </trkpt>
      <trkpt lat="42.40039" lon="0.74293">
        <ele>919</ele>
        <time>2022-05-23 04:42:37</time>
      </trkpt>
      <trkpt lat="42.40031" lon="0.74296">
        <ele>918.6</ele>
        <time>2022-05-23 04:42:38</time>
      </trkpt>
      <trkpt lat="42.40024" lon="0.74299">
        <ele>918</ele>
        <time>2022-05-23 04:42:39</time>
      </trkpt>
      <trkpt lat="42.40015" lon="0.74302">
        <ele>917.4</ele>
        <time>2022-05-23 04:42:40</time>
      </trkpt>
      <trkpt lat="42.40007" lon="0.74305">
        <ele>917</ele>
        <time>2022-05-23 04:42:41</time>
      </trkpt>
      <trkpt lat="42.39999" lon="0.74308">
        <ele>916.4</ele>
        <time>2022-05-23 04:42:42</time>
      </trkpt>
      <trkpt lat="42.39989" lon="0.74311">
        <ele>915.8</ele>
        <time>2022-05-23 04:42:43</time>
      </trkpt>
      <trkpt lat="42.3998" lon="0.74315">
        <ele>915.2</ele>
        <time>2022-05-23 04:42:44</time>
      </trkpt>
      <trkpt lat="42.39971" lon="0.74318">
        <ele>914.8</ele>
        <time>2022-05-23 04:42:45</time>
      </trkpt>
      <trkpt lat="42.39962" lon="0.74322">
        <ele>914.2</ele>
        <time>2022-05-23 04:42:46</time>
      </trkpt>
      <trkpt lat="42.39954" lon="0.74325">
        <ele>913.8</ele>
        <time>2022-05-23 04:42:47</time>
      </trkpt>
      <trkpt lat="42.39945" lon="0.74328">
        <ele>913.4</ele>
        <time>2022-05-23 04:42:48</time>
      </trkpt>
      <trkpt lat="42.39936" lon="0.74331">
        <ele>913.2</ele>
        <time>2022-05-23 04:42:49</time>
      </trkpt>
      <trkpt lat="42.39927" lon="0.74333">
        <ele>912.8</ele>
        <time>2022-05-23 04:42:50</time>
      </trkpt>
      <trkpt lat="42.39919" lon="0.74334">
        <ele>912.8</ele>
        <time>2022-05-23 04:42:51</time>
      </trkpt>
      <trkpt lat="42.39911" lon="0.74336">
        <ele>912.6</ele>
        <time>2022-05-23 04:42:52</time>
      </trkpt>
      <trkpt lat="42.39903" lon="0.74339">
        <ele>912.6</ele>
        <time>2022-05-23 04:42:53</time>
      </trkpt>
      <trkpt lat="42.39896" lon="0.74342">
        <ele>912.6</ele>
        <time>2022-05-23 04:42:54</time>
      </trkpt>
      <trkpt lat="42.39888" lon="0.74345">
        <ele>912.4</ele>
        <time>2022-05-23 04:42:55</time>
      </trkpt>
      <trkpt lat="42.39881" lon="0.74348">
        <ele>912.4</ele>
        <time>2022-05-23 04:42:56</time>
      </trkpt>
      <trkpt lat="42.39874" lon="0.74351">
        <ele>912.4</ele>
        <time>2022-05-23 04:42:57</time>
      </trkpt>
      <trkpt lat="42.39867" lon="0.74354">
        <ele>912.4</ele>
        <time>2022-05-23 04:42:58</time>
      </trkpt>
      <trkpt lat="42.39861" lon="0.74357">
        <ele>912.4</ele>
        <time>2022-05-23 04:42:59</time>
      </trkpt>
      <trkpt lat="42.39854" lon="0.7436">
        <ele>912.4</ele>
        <time>2022-05-23 04:43:00</time>
      </trkpt>
      <trkpt lat="42.39848" lon="0.74364">
        <ele>912.4</ele>
        <time>2022-05-23 04:43:01</time>
      </trkpt>
      <trkpt lat="42.39842" lon="0.74367">
        <ele>912.4</ele>
        <time>2022-05-23 04:43:02</time>
      </trkpt>
      <trkpt lat="42.39836" lon="0.74371">
        <ele>912.4</ele>
        <time>2022-05-23 04:43:03</time>
      </trkpt>
      <trkpt lat="42.39829" lon="0.74376">
        <ele>912.4</ele>
        <time>2022-05-23 04:43:04</time>
      </trkpt>
      <trkpt lat="42.39824" lon="0.7438">
        <ele>912.6</ele>
        <time>2022-05-23 04:43:05</time>
      </trkpt>
      <trkpt lat="42.39819" lon="0.74385">
        <ele>912.6</ele>
        <time>2022-05-23 04:43:06</time>
      </trkpt>
      <trkpt lat="42.39813" lon="0.7439">
        <ele>912.8</ele>
        <time>2022-05-23 04:43:07</time>
      </trkpt>
      <trkpt lat="42.39808" lon="0.74395">
        <ele>912.8</ele>
        <time>2022-05-23 04:43:08</time>
      </trkpt>
      <trkpt lat="42.39804" lon="0.74399">
        <ele>913</ele>
        <time>2022-05-23 04:43:09</time>
      </trkpt>
      <trkpt lat="42.398" lon="0.74404">
        <ele>913.2</ele>
        <time>2022-05-23 04:43:10</time>
      </trkpt>
      <trkpt lat="42.39795" lon="0.74408">
        <ele>913.2</ele>
        <time>2022-05-23 04:43:11</time>
      </trkpt>
      <trkpt lat="42.39792" lon="0.74412">
        <ele>913.4</ele>
        <time>2022-05-23 04:43:12</time>
      </trkpt>
      <trkpt lat="42.39788" lon="0.74417">
        <ele>913.6</ele>
        <time>2022-05-23 04:43:13</time>
      </trkpt>
      <trkpt lat="42.39784" lon="0.74421">
        <ele>913.8</ele>
        <time>2022-05-23 04:43:14</time>
      </trkpt>
      <trkpt lat="42.39781" lon="0.74424">
        <ele>914</ele>
        <time>2022-05-23 04:43:15</time>
      </trkpt>
      <trkpt lat="42.39777" lon="0.74428">
        <ele>914.2</ele>
        <time>2022-05-23 04:43:16</time>
      </trkpt>
      <trkpt lat="42.39773" lon="0.74432">
        <ele>914.4</ele>
        <time>2022-05-23 04:43:17</time>
      </trkpt>
      <trkpt lat="42.3977" lon="0.74436">
        <ele>914.4</ele>
        <time>2022-05-23 04:43:18</time>
      </trkpt>
      <trkpt lat="42.39767" lon="0.74439">
        <ele>914.6</ele>
        <time>2022-05-23 04:43:19</time>
      </trkpt>
      <trkpt lat="42.39764" lon="0.74443">
        <ele>914.8</ele>
        <time>2022-05-23 04:43:20</time>
      </trkpt>
      <trkpt lat="42.39761" lon="0.74446">
        <ele>915</ele>
        <time>2022-05-23 04:43:21</time>
      </trkpt>
      <trkpt lat="42.39757" lon="0.7445">
        <ele>915.2</ele>
        <time>2022-05-23 04:43:22</time>
      </trkpt>
      <trkpt lat="42.39755" lon="0.74453">
        <ele>915.4</ele>
        <time>2022-05-23 04:43:23</time>
      </trkpt>
      <trkpt lat="42.39752" lon="0.74456">
        <ele>915.6</ele>
        <time>2022-05-23 04:43:24</time>
      </trkpt>
      <trkpt lat="42.39749" lon="0.74459">
        <ele>915.8</ele>
        <time>2022-05-23 04:43:25</time>
      </trkpt>
      <trkpt lat="42.39746" lon="0.74462">
        <ele>916</ele>
        <time>2022-05-23 04:43:26</time>
      </trkpt>
      <trkpt lat="42.39743" lon="0.74465">
        <ele>916.2</ele>
        <time>2022-05-23 04:43:27</time>
      </trkpt>
      <trkpt lat="42.3974" lon="0.74468">
        <ele>916.4</ele>
        <time>2022-05-23 04:43:28</time>
      </trkpt>
      <trkpt lat="42.39737" lon="0.74471">
        <ele>916.6</ele>
        <time>2022-05-23 04:43:29</time>
      </trkpt>
      <trkpt lat="42.39735" lon="0.74473">
        <ele>916.8</ele>
        <time>2022-05-23 04:43:30</time>
      </trkpt>
      <trkpt lat="42.39733" lon="0.74475">
        <ele>917</ele>
        <time>2022-05-23 04:43:31</time>
      </trkpt>
      <trkpt lat="42.39732" lon="0.74477">
        <ele>917.2</ele>
        <time>2022-05-23 04:43:32</time>
      </trkpt>
      <trkpt lat="42.39729" lon="0.74479">
        <ele>917.4</ele>
        <time>2022-05-23 04:43:33</time>
      </trkpt>
      <trkpt lat="42.39727" lon="0.74481">
        <ele>917.6</ele>
        <time>2022-05-23 04:43:34</time>
      </trkpt>
      <trkpt lat="42.39725" lon="0.74484">
        <ele>917.8</ele>
        <time>2022-05-23 04:43:35</time>
      </trkpt>
      <trkpt lat="42.39724" lon="0.74486">
        <ele>918</ele>
        <time>2022-05-23 04:43:36</time>
      </trkpt>
      <trkpt lat="42.39722" lon="0.74488">
        <ele>918</ele>
        <time>2022-05-23 04:43:37</time>
      </trkpt>
      <trkpt lat="42.3972" lon="0.7449">
        <ele>918.2</ele>
        <time>2022-05-23 04:43:38</time>
      </trkpt>
      <trkpt lat="42.39718" lon="0.74492">
        <ele>918.2</ele>
        <time>2022-05-23 04:43:39</time>
      </trkpt>
      <trkpt lat="42.39716" lon="0.74494">
        <ele>918.4</ele>
        <time>2022-05-23 04:43:40</time>
      </trkpt>
      <trkpt lat="42.39714" lon="0.74497">
        <ele>918.6</ele>
        <time>2022-05-23 04:43:41</time>
      </trkpt>
      <trkpt lat="42.39711" lon="0.745">
        <ele>918.6</ele>
        <time>2022-05-23 04:43:42</time>
      </trkpt>
      <trkpt lat="42.39709" lon="0.74502">
        <ele>918.8</ele>
        <time>2022-05-23 04:43:43</time>
      </trkpt>
      <trkpt lat="42.39706" lon="0.74505">
        <ele>918.8</ele>
        <time>2022-05-23 04:43:44</time>
      </trkpt>
      <trkpt lat="42.39704" lon="0.74507">
        <ele>919</ele>
        <time>2022-05-23 04:43:45</time>
      </trkpt>
      <trkpt lat="42.39701" lon="0.7451">
        <ele>919.2</ele>
        <time>2022-05-23 04:43:46</time>
      </trkpt>
      <trkpt lat="42.39698" lon="0.74512">
        <ele>919.2</ele>
        <time>2022-05-23 04:43:47</time>
      </trkpt>
      <trkpt lat="42.39695" lon="0.74515">
        <ele>919.4</ele>
        <time>2022-05-23 04:43:48</time>
      </trkpt>
      <trkpt lat="42.39693" lon="0.74518">
        <ele>919.4</ele>
        <time>2022-05-23 04:43:49</time>
      </trkpt>
      <trkpt lat="42.39691" lon="0.74521">
        <ele>919.6</ele>
        <time>2022-05-23 04:43:50</time>
      </trkpt>
      <trkpt lat="42.39688" lon="0.74523">
        <ele>919.8</ele>
        <time>2022-05-23 04:43:51</time>
      </trkpt>
      <trkpt lat="42.39686" lon="0.74526">
        <ele>919.8</ele>
        <time>2022-05-23 04:43:52</time>
      </trkpt>
      <trkpt lat="42.39683" lon="0.74529">
        <ele>919.8</ele>
        <time>2022-05-23 04:43:53</time>
      </trkpt>
      <trkpt lat="42.39681" lon="0.74532">
        <ele>920</ele>
        <time>2022-05-23 04:43:54</time>
      </trkpt>
      <trkpt lat="42.39678" lon="0.74535">
        <ele>920</ele>
        <time>2022-05-23 04:43:55</time>
      </trkpt>
      <trkpt lat="42.39675" lon="0.74538">
        <ele>920</ele>
        <time>2022-05-23 04:43:56</time>
      </trkpt>
      <trkpt lat="42.39673" lon="0.74542">
        <ele>920</ele>
        <time>2022-05-23 04:43:57</time>
      </trkpt>
      <trkpt lat="42.3967" lon="0.74545">
        <ele>920.2</ele>
        <time>2022-05-23 04:43:58</time>
      </trkpt>
      <trkpt lat="42.39667" lon="0.74549">
        <ele>920.2</ele>
        <time>2022-05-23 04:43:59</time>
      </trkpt>
      <trkpt lat="42.39664" lon="0.74552">
        <ele>920.2</ele>
        <time>2022-05-23 04:44:00</time>
      </trkpt>
      <trkpt lat="42.39661" lon="0.74554">
        <ele>920.2</ele>
        <time>2022-05-23 04:44:01</time>
      </trkpt>
      <trkpt lat="42.39658" lon="0.74557">
        <ele>920.2</ele>
        <time>2022-05-23 04:44:02</time>
      </trkpt>
      <trkpt lat="42.39655" lon="0.7456">
        <ele>920.2</ele>
        <time>2022-05-23 04:44:03</time>
      </trkpt>
      <trkpt lat="42.39652" lon="0.74562">
        <ele>920</ele>
        <time>2022-05-23 04:44:04</time>
      </trkpt>
      <trkpt lat="42.39649" lon="0.74565">
        <ele>920</ele>
        <time>2022-05-23 04:44:05</time>
      </trkpt>
      <trkpt lat="42.39646" lon="0.74569">
        <ele>920</ele>
        <time>2022-05-23 04:44:06</time>
      </trkpt>
      <trkpt lat="42.39642" lon="0.74573">
        <ele>920</ele>
        <time>2022-05-23 04:44:07</time>
      </trkpt>
      <trkpt lat="42.39639" lon="0.74576">
        <ele>919.8</ele>
        <time>2022-05-23 04:44:08</time>
      </trkpt>
      <trkpt lat="42.39635" lon="0.74579">
        <ele>919.8</ele>
        <time>2022-05-23 04:44:09</time>
      </trkpt>
      <trkpt lat="42.39632" lon="0.74583">
        <ele>919.8</ele>
        <time>2022-05-23 04:44:10</time>
      </trkpt>
      <trkpt lat="42.39628" lon="0.74587">
        <ele>919.8</ele>
        <time>2022-05-23 04:44:11</time>
      </trkpt>
      <trkpt lat="42.39625" lon="0.7459">
        <ele>919.6</ele>
        <time>2022-05-23 04:44:12</time>
      </trkpt>
      <trkpt lat="42.39622" lon="0.74593">
        <ele>919.6</ele>
        <time>2022-05-23 04:44:13</time>
      </trkpt>
      <trkpt lat="42.39618" lon="0.74596">
        <ele>919.6</ele>
        <time>2022-05-23 04:44:14</time>
      </trkpt>
      <trkpt lat="42.39614" lon="0.74599">
        <ele>919.4</ele>
        <time>2022-05-23 04:44:15</time>
      </trkpt>
      <trkpt lat="42.39611" lon="0.74602">
        <ele>919.4</ele>
        <time>2022-05-23 04:44:16</time>
      </trkpt>
      <trkpt lat="42.39607" lon="0.74606">
        <ele>919.4</ele>
        <time>2022-05-23 04:44:17</time>
      </trkpt>
      <trkpt lat="42.39603" lon="0.74609">
        <ele>919.2</ele>
        <time>2022-05-23 04:44:18</time>
      </trkpt>
      <trkpt lat="42.39599" lon="0.74612">
        <ele>919.2</ele>
        <time>2022-05-23 04:44:19</time>
      </trkpt>
      <trkpt lat="42.39595" lon="0.74615">
        <ele>919</ele>
        <time>2022-05-23 04:44:20</time>
      </trkpt>
      <trkpt lat="42.39591" lon="0.74618">
        <ele>919</ele>
        <time>2022-05-23 04:44:21</time>
      </trkpt>
      <trkpt lat="42.39587" lon="0.74621">
        <ele>919</ele>
        <time>2022-05-23 04:44:22</time>
      </trkpt>
      <trkpt lat="42.39583" lon="0.74624">
        <ele>918.8</ele>
        <time>2022-05-23 04:44:23</time>
      </trkpt>
      <trkpt lat="42.39579" lon="0.74627">
        <ele>918.8</ele>
        <time>2022-05-23 04:44:24</time>
      </trkpt>
      <trkpt lat="42.39575" lon="0.74629">
        <ele>918.8</ele>
        <time>2022-05-23 04:44:25</time>
      </trkpt>
      <trkpt lat="42.39571" lon="0.74632">
        <ele>918.6</ele>
        <time>2022-05-23 04:44:26</time>
      </trkpt>
      <trkpt lat="42.39567" lon="0.74634">
        <ele>918.6</ele>
        <time>2022-05-23 04:44:27</time>
      </trkpt>
      <trkpt lat="42.39563" lon="0.74637">
        <ele>918.6</ele>
        <time>2022-05-23 04:44:28</time>
      </trkpt>
      <trkpt lat="42.39559" lon="0.74639">
        <ele>918.6</ele>
        <time>2022-05-23 04:44:29</time>
      </trkpt>
      <trkpt lat="42.39555" lon="0.74642">
        <ele>918.4</ele>
        <time>2022-05-23 04:44:30</time>
      </trkpt>
      <trkpt lat="42.39551" lon="0.74646">
        <ele>918.4</ele>
        <time>2022-05-23 04:44:31</time>
      </trkpt>
      <trkpt lat="42.39546" lon="0.74648">
        <ele>918.2</ele>
        <time>2022-05-23 04:44:32</time>
      </trkpt>
      <trkpt lat="42.39541" lon="0.74651">
        <ele>918.2</ele>
        <time>2022-05-23 04:44:33</time>
      </trkpt>
      <trkpt lat="42.39537" lon="0.74654">
        <ele>918.2</ele>
        <time>2022-05-23 04:44:34</time>
      </trkpt>
      <trkpt lat="42.39532" lon="0.74656">
        <ele>918.2</ele>
        <time>2022-05-23 04:44:35</time>
      </trkpt>
      <trkpt lat="42.39528" lon="0.74659">
        <ele>918.2</ele>
        <time>2022-05-23 04:44:36</time>
      </trkpt>
      <trkpt lat="42.39523" lon="0.74662">
        <ele>918.2</ele>
        <time>2022-05-23 04:44:37</time>
      </trkpt>
      <trkpt lat="42.39519" lon="0.74664">
        <ele>918</ele>
        <time>2022-05-23 04:44:38</time>
      </trkpt>
      <trkpt lat="42.39515" lon="0.74667">
        <ele>918</ele>
        <time>2022-05-23 04:44:39</time>
      </trkpt>
      <trkpt lat="42.39511" lon="0.7467">
        <ele>918</ele>
        <time>2022-05-23 04:44:40</time>
      </trkpt>
      <trkpt lat="42.39507" lon="0.74673">
        <ele>917.8</ele>
        <time>2022-05-23 04:44:41</time>
      </trkpt>
      <trkpt lat="42.39503" lon="0.74676">
        <ele>917.8</ele>
        <time>2022-05-23 04:44:42</time>
      </trkpt>
      <trkpt lat="42.39498" lon="0.74679">
        <ele>917.6</ele>
        <time>2022-05-23 04:44:43</time>
      </trkpt>
      <trkpt lat="42.39493" lon="0.74682">
        <ele>917.6</ele>
        <time>2022-05-23 04:44:44</time>
      </trkpt>
      <trkpt lat="42.39488" lon="0.74686">
        <ele>917.4</ele>
        <time>2022-05-23 04:44:45</time>
      </trkpt>
      <trkpt lat="42.39483" lon="0.74688">
        <ele>917.4</ele>
        <time>2022-05-23 04:44:46</time>
      </trkpt>
      <trkpt lat="42.39478" lon="0.74691">
        <ele>917.4</ele>
        <time>2022-05-23 04:44:47</time>
      </trkpt>
      <trkpt lat="42.39473" lon="0.74694">
        <ele>917.4</ele>
        <time>2022-05-23 04:44:48</time>
      </trkpt>
      <trkpt lat="42.39468" lon="0.74696">
        <ele>917.2</ele>
        <time>2022-05-23 04:44:49</time>
      </trkpt>
      <trkpt lat="42.39463" lon="0.74698">
        <ele>917.2</ele>
        <time>2022-05-23 04:44:50</time>
      </trkpt>
      <trkpt lat="42.39458" lon="0.747">
        <ele>917.2</ele>
        <time>2022-05-23 04:44:51</time>
      </trkpt>
      <trkpt lat="42.39452" lon="0.74701">
        <ele>917</ele>
        <time>2022-05-23 04:44:52</time>
      </trkpt>
      <trkpt lat="42.39448" lon="0.74703">
        <ele>917</ele>
        <time>2022-05-23 04:44:53</time>
      </trkpt>
      <trkpt lat="42.39442" lon="0.74704">
        <ele>917</ele>
        <time>2022-05-23 04:44:54</time>
      </trkpt>
      <trkpt lat="42.39437" lon="0.74704">
        <ele>916.8</ele>
        <time>2022-05-23 04:44:55</time>
      </trkpt>
      <trkpt lat="42.39432" lon="0.74704">
        <ele>916.8</ele>
        <time>2022-05-23 04:44:56</time>
      </trkpt>
      <trkpt lat="42.39427" lon="0.74703">
        <ele>916.8</ele>
        <time>2022-05-23 04:44:57</time>
      </trkpt>
      <trkpt lat="42.39421" lon="0.74702">
        <ele>916.6</ele>
        <time>2022-05-23 04:44:58</time>
      </trkpt>
      <trkpt lat="42.39416" lon="0.74701">
        <ele>916.6</ele>
        <time>2022-05-23 04:44:59</time>
      </trkpt>
      <trkpt lat="42.3941" lon="0.747">
        <ele>916.6</ele>
        <time>2022-05-23 04:45:00</time>
      </trkpt>
      <trkpt lat="42.39405" lon="0.74698">
        <ele>916.6</ele>
        <time>2022-05-23 04:45:01</time>
      </trkpt>
      <trkpt lat="42.39399" lon="0.74697">
        <ele>916.6</ele>
        <time>2022-05-23 04:45:02</time>
      </trkpt>
      <trkpt lat="42.39395" lon="0.74696">
        <ele>916.4</ele>
        <time>2022-05-23 04:45:03</time>
      </trkpt>
      <trkpt lat="42.39389" lon="0.74695">
        <ele>916.4</ele>
        <time>2022-05-23 04:45:04</time>
      </trkpt>
      <trkpt lat="42.39383" lon="0.74694">
        <ele>916.4</ele>
        <time>2022-05-23 04:45:05</time>
      </trkpt>
      <trkpt lat="42.39378" lon="0.74693">
        <ele>916.4</ele>
        <time>2022-05-23 04:45:06</time>
      </trkpt>
      <trkpt lat="42.39372" lon="0.74692">
        <ele>916.4</ele>
        <time>2022-05-23 04:45:07</time>
      </trkpt>
      <trkpt lat="42.39367" lon="0.7469">
        <ele>916.4</ele>
        <time>2022-05-23 04:45:08</time>
      </trkpt>
      <trkpt lat="42.39361" lon="0.74689">
        <ele>916.4</ele>
        <time>2022-05-23 04:45:09</time>
      </trkpt>
      <trkpt lat="42.39356" lon="0.74688">
        <ele>916.2</ele>
        <time>2022-05-23 04:45:10</time>
      </trkpt>
      <trkpt lat="42.3935" lon="0.74687">
        <ele>916.2</ele>
        <time>2022-05-23 04:45:11</time>
      </trkpt>
      <trkpt lat="42.39345" lon="0.74686">
        <ele>916.2</ele>
        <time>2022-05-23 04:45:12</time>
      </trkpt>
      <trkpt lat="42.3934" lon="0.74685">
        <ele>916.2</ele>
        <time>2022-05-23 04:45:13</time>
      </trkpt>
      <trkpt lat="42.39335" lon="0.74684">
        <ele>916</ele>
        <time>2022-05-23 04:45:14</time>
      </trkpt>
      <trkpt lat="42.39329" lon="0.74683">
        <ele>916</ele>
        <time>2022-05-23 04:45:15</time>
      </trkpt>
      <trkpt lat="42.39323" lon="0.74682">
        <ele>916</ele>
        <time>2022-05-23 04:45:16</time>
      </trkpt>
      <trkpt lat="42.39318" lon="0.74681">
        <ele>916</ele>
        <time>2022-05-23 04:45:17</time>
      </trkpt>
      <trkpt lat="42.39312" lon="0.7468">
        <ele>916</ele>
        <time>2022-05-23 04:45:18</time>
      </trkpt>
      <trkpt lat="42.39307" lon="0.7468">
        <ele>916</ele>
        <time>2022-05-23 04:45:19</time>
      </trkpt>
      <trkpt lat="42.39302" lon="0.74679">
        <ele>916</ele>
        <time>2022-05-23 04:45:20</time>
      </trkpt>
      <trkpt lat="42.39297" lon="0.74678">
        <ele>916</ele>
        <time>2022-05-23 04:45:21</time>
      </trkpt>
      <trkpt lat="42.39292" lon="0.74677">
        <ele>916</ele>
        <time>2022-05-23 04:45:22</time>
      </trkpt>
      <trkpt lat="42.39287" lon="0.74677">
        <ele>916.2</ele>
        <time>2022-05-23 04:45:23</time>
      </trkpt>
      <trkpt lat="42.39282" lon="0.74676">
        <ele>916.2</ele>
        <time>2022-05-23 04:45:24</time>
      </trkpt>
      <trkpt lat="42.39276" lon="0.74675">
        <ele>916.2</ele>
        <time>2022-05-23 04:45:25</time>
      </trkpt>
      <trkpt lat="42.39271" lon="0.74675">
        <ele>916</ele>
        <time>2022-05-23 04:45:26</time>
      </trkpt>
      <trkpt lat="42.39266" lon="0.74674">
        <ele>916</ele>
        <time>2022-05-23 04:45:27</time>
      </trkpt>
      <trkpt lat="42.39261" lon="0.74673">
        <ele>916</ele>
        <time>2022-05-23 04:45:28</time>
      </trkpt>
      <trkpt lat="42.39255" lon="0.74672">
        <ele>915.8</ele>
        <time>2022-05-23 04:45:29</time>
      </trkpt>
      <trkpt lat="42.3925" lon="0.74671">
        <ele>915.6</ele>
        <time>2022-05-23 04:45:30</time>
      </trkpt>
      <trkpt lat="42.39245" lon="0.7467">
        <ele>915.4</ele>
        <time>2022-05-23 04:45:31</time>
      </trkpt>
      <trkpt lat="42.39239" lon="0.74669">
        <ele>915.2</ele>
        <time>2022-05-23 04:45:32</time>
      </trkpt>
      <trkpt lat="42.39232" lon="0.74667">
        <ele>915.2</ele>
        <time>2022-05-23 04:45:33</time>
      </trkpt>
      <trkpt lat="42.39226" lon="0.74665">
        <ele>915</ele>
        <time>2022-05-23 04:45:34</time>
      </trkpt>
      <trkpt lat="42.39221" lon="0.74663">
        <ele>915</ele>
        <time>2022-05-23 04:45:35</time>
      </trkpt>
      <trkpt lat="42.39216" lon="0.74661">
        <ele>915</ele>
        <time>2022-05-23 04:45:36</time>
      </trkpt>
      <trkpt lat="42.39211" lon="0.74657">
        <ele>915</ele>
        <time>2022-05-23 04:45:37</time>
      </trkpt>
      <trkpt lat="42.39206" lon="0.74654">
        <ele>915</ele>
        <time>2022-05-23 04:45:38</time>
      </trkpt>
      <trkpt lat="42.39202" lon="0.74651">
        <ele>915</ele>
        <time>2022-05-23 04:45:39</time>
      </trkpt>
      <trkpt lat="42.39198" lon="0.74647">
        <ele>915.2</ele>
        <time>2022-05-23 04:45:40</time>
      </trkpt>
      <trkpt lat="42.39193" lon="0.74644">
        <ele>915.4</ele>
        <time>2022-05-23 04:45:41</time>
      </trkpt>
      <trkpt lat="42.39189" lon="0.7464">
        <ele>915.6</ele>
        <time>2022-05-23 04:45:42</time>
      </trkpt>
      <trkpt lat="42.39186" lon="0.74637">
        <ele>915.6</ele>
        <time>2022-05-23 04:45:43</time>
      </trkpt>
      <trkpt lat="42.39181" lon="0.74633">
        <ele>915.8</ele>
        <time>2022-05-23 04:45:44</time>
      </trkpt>
      <trkpt lat="42.39177" lon="0.74629">
        <ele>915.8</ele>
        <time>2022-05-23 04:45:45</time>
      </trkpt>
      <trkpt lat="42.39173" lon="0.74625">
        <ele>916</ele>
        <time>2022-05-23 04:45:46</time>
      </trkpt>
      <trkpt lat="42.39169" lon="0.74622">
        <ele>916</ele>
        <time>2022-05-23 04:45:47</time>
      </trkpt>
      <trkpt lat="42.39164" lon="0.74618">
        <ele>916</ele>
        <time>2022-05-23 04:45:48</time>
      </trkpt>
      <trkpt lat="42.3916" lon="0.74615">
        <ele>916.2</ele>
        <time>2022-05-23 04:45:49</time>
      </trkpt>
      <trkpt lat="42.39155" lon="0.74612">
        <ele>916.2</ele>
        <time>2022-05-23 04:45:50</time>
      </trkpt>
      <trkpt lat="42.3915" lon="0.7461">
        <ele>916.2</ele>
        <time>2022-05-23 04:45:51</time>
      </trkpt>
      <trkpt lat="42.39146" lon="0.74608">
        <ele>916.2</ele>
        <time>2022-05-23 04:45:52</time>
      </trkpt>
      <trkpt lat="42.3914" lon="0.74607">
        <ele>916.4</ele>
        <time>2022-05-23 04:45:53</time>
      </trkpt>
      <trkpt lat="42.39136" lon="0.74606">
        <ele>916.4</ele>
        <time>2022-05-23 04:45:54</time>
      </trkpt>
      <trkpt lat="42.39132" lon="0.74604">
        <ele>916.6</ele>
        <time>2022-05-23 04:45:55</time>
      </trkpt>
      <trkpt lat="42.39129" lon="0.74603">
        <ele>916.6</ele>
        <time>2022-05-23 04:45:56</time>
      </trkpt>
      <trkpt lat="42.39125" lon="0.74601">
        <ele>916.8</ele>
        <time>2022-05-23 04:45:57</time>
      </trkpt>
      <trkpt lat="42.39121" lon="0.746">
        <ele>917</ele>
        <time>2022-05-23 04:45:58</time>
      </trkpt>
      <trkpt lat="42.39118" lon="0.74599">
        <ele>917</ele>
        <time>2022-05-23 04:45:59</time>
      </trkpt>
      <trkpt lat="42.39114" lon="0.74599">
        <ele>917.2</ele>
        <time>2022-05-23 04:46:00</time>
      </trkpt>
      <trkpt lat="42.3911" lon="0.74598">
        <ele>917.4</ele>
        <time>2022-05-23 04:46:01</time>
      </trkpt>
      <trkpt lat="42.39107" lon="0.74597">
        <ele>917.4</ele>
        <time>2022-05-23 04:46:02</time>
      </trkpt>
      <trkpt lat="42.39103" lon="0.74596">
        <ele>917.6</ele>
        <time>2022-05-23 04:46:03</time>
      </trkpt>
      <trkpt lat="42.391" lon="0.74595">
        <ele>917.8</ele>
        <time>2022-05-23 04:46:04</time>
      </trkpt>
      <trkpt lat="42.39097" lon="0.74594">
        <ele>918</ele>
        <time>2022-05-23 04:46:05</time>
      </trkpt>
      <trkpt lat="42.39094" lon="0.74594">
        <ele>918.2</ele>
        <time>2022-05-23 04:46:06</time>
      </trkpt>
      <trkpt lat="42.39091" lon="0.74594">
        <ele>918.4</ele>
        <time>2022-05-23 04:46:07</time>
      </trkpt>
      <trkpt lat="42.39088" lon="0.74593">
        <ele>918.6</ele>
        <time>2022-05-23 04:46:08</time>
      </trkpt>
      <trkpt lat="42.39085" lon="0.74593">
        <ele>918.8</ele>
        <time>2022-05-23 04:46:09</time>
      </trkpt>
      <trkpt lat="42.39083" lon="0.74593">
        <ele>919</ele>
        <time>2022-05-23 04:46:10</time>
      </trkpt>
      <trkpt lat="42.39081" lon="0.74592">
        <ele>919.2</ele>
        <time>2022-05-23 04:46:11</time>
      </trkpt>
      <trkpt lat="42.3908" lon="0.74591">
        <ele>919.4</ele>
        <time>2022-05-23 04:46:12</time>
      </trkpt>
      <trkpt lat="42.39078" lon="0.7459">
        <ele>919.4</ele>
        <time>2022-05-23 04:46:13</time>
      </trkpt>
      <trkpt lat="42.39076" lon="0.74589">
        <ele>919.6</ele>
        <time>2022-05-23 04:46:14</time>
      </trkpt>
      <trkpt lat="42.39074" lon="0.74588">
        <ele>919.8</ele>
        <time>2022-05-23 04:46:15</time>
      </trkpt>
      <trkpt lat="42.39072" lon="0.74588">
        <ele>919.8</ele>
        <time>2022-05-23 04:46:16</time>
      </trkpt>
      <trkpt lat="42.39069" lon="0.74586">
        <ele>920</ele>
        <time>2022-05-23 04:46:17</time>
      </trkpt>
      <trkpt lat="42.39067" lon="0.74586">
        <ele>920.2</ele>
        <time>2022-05-23 04:46:18</time>
      </trkpt>
      <trkpt lat="42.39064" lon="0.74585">
        <ele>920.2</ele>
        <time>2022-05-23 04:46:19</time>
      </trkpt>
      <trkpt lat="42.39062" lon="0.74584">
        <ele>920.4</ele>
        <time>2022-05-23 04:46:20</time>
      </trkpt>
      <trkpt lat="42.39059" lon="0.74583">
        <ele>920.6</ele>
        <time>2022-05-23 04:46:21</time>
      </trkpt>
      <trkpt lat="42.39057" lon="0.74583">
        <ele>920.8</ele>
        <time>2022-05-23 04:46:22</time>
      </trkpt>
      <trkpt lat="42.39055" lon="0.74582">
        <ele>921</ele>
        <time>2022-05-23 04:46:23</time>
      </trkpt>
      <trkpt lat="42.39052" lon="0.74582">
        <ele>921</ele>
        <time>2022-05-23 04:46:24</time>
      </trkpt>
      <trkpt lat="42.39049" lon="0.7458">
        <ele>921.2</ele>
        <time>2022-05-23 04:46:25</time>
      </trkpt>
      <trkpt lat="42.39047" lon="0.74579">
        <ele>921.4</ele>
        <time>2022-05-23 04:46:26</time>
      </trkpt>
      <trkpt lat="42.39044" lon="0.74578">
        <ele>921.6</ele>
        <time>2022-05-23 04:46:27</time>
      </trkpt>
      <trkpt lat="42.39043" lon="0.74577">
        <ele>921.6</ele>
        <time>2022-05-23 04:46:28</time>
      </trkpt>
      <trkpt lat="42.3904" lon="0.74576">
        <ele>921.8</ele>
        <time>2022-05-23 04:46:29</time>
      </trkpt>
      <trkpt lat="42.39038" lon="0.74576">
        <ele>922</ele>
        <time>2022-05-23 04:46:30</time>
      </trkpt>
      <trkpt lat="42.39036" lon="0.74575">
        <ele>922</ele>
        <time>2022-05-23 04:46:31</time>
      </trkpt>
      <trkpt lat="42.39033" lon="0.74575">
        <ele>922.2</ele>
        <time>2022-05-23 04:46:32</time>
      </trkpt>
      <trkpt lat="42.39031" lon="0.74575">
        <ele>922.2</ele>
        <time>2022-05-23 04:46:33</time>
      </trkpt>
      <trkpt lat="42.39029" lon="0.74574">
        <ele>922.4</ele>
        <time>2022-05-23 04:46:34</time>
      </trkpt>
      <trkpt lat="42.39027" lon="0.74574">
        <ele>922.6</ele>
        <time>2022-05-23 04:46:35</time>
      </trkpt>
      <trkpt lat="42.39024" lon="0.74573">
        <ele>922.6</ele>
        <time>2022-05-23 04:46:36</time>
      </trkpt>
      <trkpt lat="42.39022" lon="0.74573">
        <ele>922.8</ele>
        <time>2022-05-23 04:46:37</time>
      </trkpt>
      <trkpt lat="42.3902" lon="0.74574">
        <ele>923</ele>
        <time>2022-05-23 04:46:38</time>
      </trkpt>
      <trkpt lat="42.39018" lon="0.74574">
        <ele>923.2</ele>
        <time>2022-05-23 04:46:39</time>
      </trkpt>
      <trkpt lat="42.39016" lon="0.74574">
        <ele>923.2</ele>
        <time>2022-05-23 04:46:40</time>
      </trkpt>
      <trkpt lat="42.39014" lon="0.74575">
        <ele>923.4</ele>
        <time>2022-05-23 04:46:41</time>
      </trkpt>
      <trkpt lat="42.39012" lon="0.74576">
        <ele>923.4</ele>
        <time>2022-05-23 04:46:42</time>
      </trkpt>
      <trkpt lat="42.39011" lon="0.74576">
        <ele>923.6</ele>
        <time>2022-05-23 04:46:43</time>
      </trkpt>
      <trkpt lat="42.39009" lon="0.74577">
        <ele>923.8</ele>
        <time>2022-05-23 04:46:44</time>
      </trkpt>
      <trkpt lat="42.39007" lon="0.74577">
        <ele>923.8</ele>
        <time>2022-05-23 04:46:45</time>
      </trkpt>
      <trkpt lat="42.39006" lon="0.74578">
        <ele>924</ele>
        <time>2022-05-23 04:46:46</time>
      </trkpt>
      <trkpt lat="42.39004" lon="0.74579">
        <ele>924</ele>
        <time>2022-05-23 04:46:47</time>
      </trkpt>
      <trkpt lat="42.39003" lon="0.7458">
        <ele>924.2</ele>
        <time>2022-05-23 04:46:48</time>
      </trkpt>
      <trkpt lat="42.39001" lon="0.7458">
        <ele>924.2</ele>
        <time>2022-05-23 04:46:49</time>
      </trkpt>
      <trkpt lat="42.38999" lon="0.74581">
        <ele>924.4</ele>
        <time>2022-05-23 04:46:50</time>
      </trkpt>
      <trkpt lat="42.38998" lon="0.74582">
        <ele>924.4</ele>
        <time>2022-05-23 04:46:51</time>
      </trkpt>
      <trkpt lat="42.38996" lon="0.74583">
        <ele>924.6</ele>
        <time>2022-05-23 04:46:52</time>
      </trkpt>
      <trkpt lat="42.38994" lon="0.74583">
        <ele>924.6</ele>
        <time>2022-05-23 04:46:53</time>
      </trkpt>
      <trkpt lat="42.38993" lon="0.74584">
        <ele>924.8</ele>
        <time>2022-05-23 04:46:54</time>
      </trkpt>
      <trkpt lat="42.38991" lon="0.74585">
        <ele>924.8</ele>
        <time>2022-05-23 04:46:55</time>
      </trkpt>
      <trkpt lat="42.38991" lon="0.74585">
        <ele>925</ele>
        <time>2022-05-23 04:46:56</time>
      </trkpt>
      <trkpt lat="42.38906" lon="0.74701">
        <ele>924.6</ele>
        <time>2022-05-23 04:46:57</time>
      </trkpt>
      <trkpt lat="42.38906" lon="0.74707">
        <ele>924.6</ele>
        <time>2022-05-23 04:46:58</time>
      </trkpt>
      <trkpt lat="42.38906" lon="0.74712">
        <ele>924.4</ele>
        <time>2022-05-23 04:46:59</time>
      </trkpt>
      <trkpt lat="42.38905" lon="0.74714">
        <ele>924.4</ele>
        <time>2022-05-23 04:47:00</time>
      </trkpt>
      <trkpt lat="42.38904" lon="0.74721">
        <ele>924.2</ele>
        <time>2022-05-23 04:47:01</time>
      </trkpt>
      <trkpt lat="42.38904" lon="0.74728">
        <ele>924</ele>
        <time>2022-05-23 04:47:02</time>
      </trkpt>
      <trkpt lat="42.38904" lon="0.74736">
        <ele>923.8</ele>
        <time>2022-05-23 04:47:03</time>
      </trkpt>
      <trkpt lat="42.38904" lon="0.74743">
        <ele>923.6</ele>
        <time>2022-05-23 04:47:04</time>
      </trkpt>
      <trkpt lat="42.38903" lon="0.7475">
        <ele>923.4</ele>
        <time>2022-05-23 04:47:05</time>
      </trkpt>
      <trkpt lat="42.38903" lon="0.74757">
        <ele>923.2</ele>
        <time>2022-05-23 04:47:06</time>
      </trkpt>
      <trkpt lat="42.38903" lon="0.74765">
        <ele>923</ele>
        <time>2022-05-23 04:47:07</time>
      </trkpt>
      <trkpt lat="42.38903" lon="0.74772">
        <ele>922.8</ele>
        <time>2022-05-23 04:47:08</time>
      </trkpt>
      <trkpt lat="42.38902" lon="0.7478">
        <ele>922.6</ele>
        <time>2022-05-23 04:47:09</time>
      </trkpt>
      <trkpt lat="42.38902" lon="0.74788">
        <ele>922.4</ele>
        <time>2022-05-23 04:47:10</time>
      </trkpt>
      <trkpt lat="42.38901" lon="0.74797">
        <ele>922.2</ele>
        <time>2022-05-23 04:47:11</time>
      </trkpt>
      <trkpt lat="42.389" lon="0.74805">
        <ele>921.8</ele>
        <time>2022-05-23 04:47:12</time>
      </trkpt>
      <trkpt lat="42.389" lon="0.74813">
        <ele>921.6</ele>
        <time>2022-05-23 04:47:13</time>
      </trkpt>
      <trkpt lat="42.38899" lon="0.74822">
        <ele>921.4</ele>
        <time>2022-05-23 04:47:14</time>
      </trkpt>
      <trkpt lat="42.389" lon="0.7483">
        <ele>921.2</ele>
        <time>2022-05-23 04:47:15</time>
      </trkpt>
      <trkpt lat="42.389" lon="0.74839">
        <ele>921.2</ele>
        <time>2022-05-23 04:47:16</time>
      </trkpt>
      <trkpt lat="42.38901" lon="0.74846">
        <ele>921</ele>
        <time>2022-05-23 04:47:17</time>
      </trkpt>
      <trkpt lat="42.38903" lon="0.74855">
        <ele>920.8</ele>
        <time>2022-05-23 04:47:18</time>
      </trkpt>
      <trkpt lat="42.38906" lon="0.74863">
        <ele>920.6</ele>
        <time>2022-05-23 04:47:19</time>
      </trkpt>
      <trkpt lat="42.38909" lon="0.7487">
        <ele>920.4</ele>
        <time>2022-05-23 04:47:20</time>
      </trkpt>
      <trkpt lat="42.38913" lon="0.74877">
        <ele>920.2</ele>
        <time>2022-05-23 04:47:21</time>
      </trkpt>
      <trkpt lat="42.38917" lon="0.74883">
        <ele>920</ele>
        <time>2022-05-23 04:47:22</time>
      </trkpt>
      <trkpt lat="42.38921" lon="0.74889">
        <ele>919.8</ele>
        <time>2022-05-23 04:47:23</time>
      </trkpt>
      <trkpt lat="42.38926" lon="0.74896">
        <ele>919.6</ele>
        <time>2022-05-23 04:47:24</time>
      </trkpt>
      <trkpt lat="42.38932" lon="0.74901">
        <ele>919.4</ele>
        <time>2022-05-23 04:47:25</time>
      </trkpt>
      <trkpt lat="42.38937" lon="0.74906">
        <ele>919.2</ele>
        <time>2022-05-23 04:47:26</time>
      </trkpt>
      <trkpt lat="42.38943" lon="0.74911">
        <ele>919</ele>
        <time>2022-05-23 04:47:27</time>
      </trkpt>
      <trkpt lat="42.38948" lon="0.74917">
        <ele>918.8</ele>
        <time>2022-05-23 04:47:28</time>
      </trkpt>
      <trkpt lat="42.38953" lon="0.74922">
        <ele>918.6</ele>
        <time>2022-05-23 04:47:29</time>
      </trkpt>
      <trkpt lat="42.38959" lon="0.74927">
        <ele>918.4</ele>
        <time>2022-05-23 04:47:30</time>
      </trkpt>
      <trkpt lat="42.38964" lon="0.74932">
        <ele>918.2</ele>
        <time>2022-05-23 04:47:31</time>
      </trkpt>
      <trkpt lat="42.3897" lon="0.74938">
        <ele>918</ele>
        <time>2022-05-23 04:47:32</time>
      </trkpt>
      <trkpt lat="42.38975" lon="0.74944">
        <ele>917.8</ele>
        <time>2022-05-23 04:47:33</time>
      </trkpt>
      <trkpt lat="42.3898" lon="0.74951">
        <ele>917.6</ele>
        <time>2022-05-23 04:47:34</time>
      </trkpt>
      <trkpt lat="42.38984" lon="0.74958">
        <ele>917.2</ele>
        <time>2022-05-23 04:47:35</time>
      </trkpt>
      <trkpt lat="42.38989" lon="0.74967">
        <ele>917</ele>
        <time>2022-05-23 04:47:36</time>
      </trkpt>
      <trkpt lat="42.38992" lon="0.74976">
        <ele>916.8</ele>
        <time>2022-05-23 04:47:37</time>
      </trkpt>
      <trkpt lat="42.38994" lon="0.74985">
        <ele>916.6</ele>
        <time>2022-05-23 04:47:38</time>
      </trkpt>
      <trkpt lat="42.38996" lon="0.74994">
        <ele>916.6</ele>
        <time>2022-05-23 04:47:39</time>
      </trkpt>
      <trkpt lat="42.38996" lon="0.75002">
        <ele>916.6</ele>
        <time>2022-05-23 04:47:40</time>
      </trkpt>
      <trkpt lat="42.38996" lon="0.75011">
        <ele>916.8</ele>
        <time>2022-05-23 04:47:41</time>
      </trkpt>
      <trkpt lat="42.38995" lon="0.75018">
        <ele>916.8</ele>
        <time>2022-05-23 04:47:42</time>
      </trkpt>
      <trkpt lat="42.38994" lon="0.75025">
        <ele>917</ele>
        <time>2022-05-23 04:47:43</time>
      </trkpt>
      <trkpt lat="42.38992" lon="0.75032">
        <ele>917.2</ele>
        <time>2022-05-23 04:47:44</time>
      </trkpt>
      <trkpt lat="42.38991" lon="0.75038">
        <ele>917.2</ele>
        <time>2022-05-23 04:47:45</time>
      </trkpt>
      <trkpt lat="42.38988" lon="0.75045">
        <ele>917.4</ele>
        <time>2022-05-23 04:47:46</time>
      </trkpt>
      <trkpt lat="42.38987" lon="0.75051">
        <ele>917.6</ele>
        <time>2022-05-23 04:47:47</time>
      </trkpt>
      <trkpt lat="42.38985" lon="0.75056">
        <ele>917.6</ele>
        <time>2022-05-23 04:47:48</time>
      </trkpt>
      <trkpt lat="42.38983" lon="0.75063">
        <ele>917.8</ele>
        <time>2022-05-23 04:47:49</time>
      </trkpt>
      <trkpt lat="42.38981" lon="0.75069">
        <ele>917.8</ele>
        <time>2022-05-23 04:47:50</time>
      </trkpt>
      <trkpt lat="42.38979" lon="0.75075">
        <ele>918</ele>
        <time>2022-05-23 04:47:51</time>
      </trkpt>
      <trkpt lat="42.38977" lon="0.7508">
        <ele>918</ele>
        <time>2022-05-23 04:47:52</time>
      </trkpt>
      <trkpt lat="42.38976" lon="0.75086">
        <ele>918.2</ele>
        <time>2022-05-23 04:47:53</time>
      </trkpt>
      <trkpt lat="42.38974" lon="0.75092">
        <ele>918.4</ele>
        <time>2022-05-23 04:47:54</time>
      </trkpt>
      <trkpt lat="42.38973" lon="0.75098">
        <ele>918.4</ele>
        <time>2022-05-23 04:47:55</time>
      </trkpt>
      <trkpt lat="42.38971" lon="0.75103">
        <ele>918.4</ele>
        <time>2022-05-23 04:47:56</time>
      </trkpt>
      <trkpt lat="42.38969" lon="0.75109">
        <ele>918.6</ele>
        <time>2022-05-23 04:47:57</time>
      </trkpt>
      <trkpt lat="42.38968" lon="0.75115">
        <ele>918.8</ele>
        <time>2022-05-23 04:47:58</time>
      </trkpt>
      <trkpt lat="42.38967" lon="0.7512">
        <ele>919</ele>
        <time>2022-05-23 04:47:59</time>
      </trkpt>
      <trkpt lat="42.38966" lon="0.75126">
        <ele>919</ele>
        <time>2022-05-23 04:48:00</time>
      </trkpt>
      <trkpt lat="42.38965" lon="0.75131">
        <ele>919.2</ele>
        <time>2022-05-23 04:48:01</time>
      </trkpt>
      <trkpt lat="42.38965" lon="0.75135">
        <ele>919.4</ele>
        <time>2022-05-23 04:48:02</time>
      </trkpt>
      <trkpt lat="42.38964" lon="0.7514">
        <ele>919.4</ele>
        <time>2022-05-23 04:48:03</time>
      </trkpt>
      <trkpt lat="42.38963" lon="0.75144">
        <ele>919.6</ele>
        <time>2022-05-23 04:48:04</time>
      </trkpt>
      <trkpt lat="42.38963" lon="0.75149">
        <ele>919.6</ele>
        <time>2022-05-23 04:48:05</time>
      </trkpt>
      <trkpt lat="42.38962" lon="0.75152">
        <ele>919.6</ele>
        <time>2022-05-23 04:48:06</time>
      </trkpt>
      <trkpt lat="42.38962" lon="0.75157">
        <ele>919.6</ele>
        <time>2022-05-23 04:48:07</time>
      </trkpt>
      <trkpt lat="42.38962" lon="0.75161">
        <ele>919.6</ele>
        <time>2022-05-23 04:48:08</time>
      </trkpt>
      <trkpt lat="42.38962" lon="0.75166">
        <ele>919.6</ele>
        <time>2022-05-23 04:48:09</time>
      </trkpt>
      <trkpt lat="42.38962" lon="0.75171">
        <ele>919.4</ele>
        <time>2022-05-23 04:48:10</time>
      </trkpt>
      <trkpt lat="42.38963" lon="0.75176">
        <ele>919.4</ele>
        <time>2022-05-23 04:48:11</time>
      </trkpt>
      <trkpt lat="42.38964" lon="0.75182">
        <ele>919.2</ele>
        <time>2022-05-23 04:48:12</time>
      </trkpt>
      <trkpt lat="42.38965" lon="0.75188">
        <ele>919.2</ele>
        <time>2022-05-23 04:48:13</time>
      </trkpt>
      <trkpt lat="42.38965" lon="0.75194">
        <ele>919</ele>
        <time>2022-05-23 04:48:14</time>
      </trkpt>
      <trkpt lat="42.38966" lon="0.75201">
        <ele>918.8</ele>
        <time>2022-05-23 04:48:15</time>
      </trkpt>
      <trkpt lat="42.38968" lon="0.75208">
        <ele>918.8</ele>
        <time>2022-05-23 04:48:16</time>
      </trkpt>
      <trkpt lat="42.3897" lon="0.75215">
        <ele>918.6</ele>
        <time>2022-05-23 04:48:17</time>
      </trkpt>
      <trkpt lat="42.38972" lon="0.75221">
        <ele>918.4</ele>
        <time>2022-05-23 04:48:18</time>
      </trkpt>
      <trkpt lat="42.38975" lon="0.75227">
        <ele>918.2</ele>
        <time>2022-05-23 04:48:19</time>
      </trkpt>
      <trkpt lat="42.38978" lon="0.75234">
        <ele>918</ele>
        <time>2022-05-23 04:48:20</time>
      </trkpt>
      <trkpt lat="42.3898" lon="0.75241">
        <ele>917.8</ele>
        <time>2022-05-23 04:48:21</time>
      </trkpt>
      <trkpt lat="42.38983" lon="0.75247">
        <ele>917.6</ele>
        <time>2022-05-23 04:48:22</time>
      </trkpt>
      <trkpt lat="42.38987" lon="0.75252">
        <ele>917.4</ele>
        <time>2022-05-23 04:48:23</time>
      </trkpt>
      <trkpt lat="42.38991" lon="0.75257">
        <ele>917.4</ele>
        <time>2022-05-23 04:48:24</time>
      </trkpt>
      <trkpt lat="42.38995" lon="0.75262">
        <ele>917.2</ele>
        <time>2022-05-23 04:48:25</time>
      </trkpt>
      <trkpt lat="42.38999" lon="0.75266">
        <ele>917.2</ele>
        <time>2022-05-23 04:48:26</time>
      </trkpt>
      <trkpt lat="42.39003" lon="0.7527">
        <ele>917</ele>
        <time>2022-05-23 04:48:27</time>
      </trkpt>
      <trkpt lat="42.39007" lon="0.75273">
        <ele>917</ele>
        <time>2022-05-23 04:48:28</time>
      </trkpt>
      <trkpt lat="42.39011" lon="0.75277">
        <ele>917</ele>
        <time>2022-05-23 04:48:29</time>
      </trkpt>
      <trkpt lat="42.39015" lon="0.7528">
        <ele>917</ele>
        <time>2022-05-23 04:48:30</time>
      </trkpt>
      <trkpt lat="42.39019" lon="0.75282">
        <ele>917</ele>
        <time>2022-05-23 04:48:31</time>
      </trkpt>
      <trkpt lat="42.39023" lon="0.75285">
        <ele>917.2</ele>
        <time>2022-05-23 04:48:32</time>
      </trkpt>
      <trkpt lat="42.39027" lon="0.75288">
        <ele>917.2</ele>
        <time>2022-05-23 04:48:33</time>
      </trkpt>
      <trkpt lat="42.3903" lon="0.75291">
        <ele>917.2</ele>
        <time>2022-05-23 04:48:34</time>
      </trkpt>
      <trkpt lat="42.39033" lon="0.75294">
        <ele>917.2</ele>
        <time>2022-05-23 04:48:35</time>
      </trkpt>
      <trkpt lat="42.39036" lon="0.75296">
        <ele>917.4</ele>
        <time>2022-05-23 04:48:36</time>
      </trkpt>
      <trkpt lat="42.3904" lon="0.753">
        <ele>917.4</ele>
        <time>2022-05-23 04:48:37</time>
      </trkpt>
      <trkpt lat="42.39044" lon="0.75303">
        <ele>917.6</ele>
        <time>2022-05-23 04:48:38</time>
      </trkpt>
      <trkpt lat="42.39047" lon="0.75306">
        <ele>917.8</ele>
        <time>2022-05-23 04:48:39</time>
      </trkpt>
      <trkpt lat="42.39051" lon="0.75309">
        <ele>917.8</ele>
        <time>2022-05-23 04:48:40</time>
      </trkpt>
      <trkpt lat="42.39055" lon="0.75312">
        <ele>918</ele>
        <time>2022-05-23 04:48:41</time>
      </trkpt>
      <trkpt lat="42.39059" lon="0.75316">
        <ele>918.2</ele>
        <time>2022-05-23 04:48:42</time>
      </trkpt>
      <trkpt lat="42.39062" lon="0.75319">
        <ele>918.4</ele>
        <time>2022-05-23 04:48:43</time>
      </trkpt>
      <trkpt lat="42.39065" lon="0.75323">
        <ele>918.6</ele>
        <time>2022-05-23 04:48:44</time>
      </trkpt>
      <trkpt lat="42.39068" lon="0.75327">
        <ele>918.8</ele>
        <time>2022-05-23 04:48:45</time>
      </trkpt>
      <trkpt lat="42.39071" lon="0.75332">
        <ele>919</ele>
        <time>2022-05-23 04:48:46</time>
      </trkpt>
      <trkpt lat="42.39073" lon="0.75337">
        <ele>919</ele>
        <time>2022-05-23 04:48:47</time>
      </trkpt>
      <trkpt lat="42.39074" lon="0.75342">
        <ele>919.2</ele>
        <time>2022-05-23 04:48:48</time>
      </trkpt>
      <trkpt lat="42.39075" lon="0.75348">
        <ele>919.4</ele>
        <time>2022-05-23 04:48:49</time>
      </trkpt>
      <trkpt lat="42.39075" lon="0.75353">
        <ele>919.6</ele>
        <time>2022-05-23 04:48:50</time>
      </trkpt>
      <trkpt lat="42.39076" lon="0.75359">
        <ele>919.8</ele>
        <time>2022-05-23 04:48:51</time>
      </trkpt>
      <trkpt lat="42.39076" lon="0.75364">
        <ele>920</ele>
        <time>2022-05-23 04:48:52</time>
      </trkpt>
      <trkpt lat="42.39076" lon="0.7537">
        <ele>920.2</ele>
        <time>2022-05-23 04:48:53</time>
      </trkpt>
      <trkpt lat="42.39076" lon="0.75376">
        <ele>920.2</ele>
        <time>2022-05-23 04:48:54</time>
      </trkpt>
      <trkpt lat="42.39076" lon="0.75382">
        <ele>920.4</ele>
        <time>2022-05-23 04:48:55</time>
      </trkpt>
      <trkpt lat="42.39076" lon="0.75388">
        <ele>920.6</ele>
        <time>2022-05-23 04:48:56</time>
      </trkpt>
      <trkpt lat="42.39075" lon="0.75393">
        <ele>920.8</ele>
        <time>2022-05-23 04:48:57</time>
      </trkpt>
      <trkpt lat="42.39074" lon="0.75399">
        <ele>921</ele>
        <time>2022-05-23 04:48:58</time>
      </trkpt>
      <trkpt lat="42.39073" lon="0.75404">
        <ele>921</ele>
        <time>2022-05-23 04:48:59</time>
      </trkpt>
      <trkpt lat="42.39072" lon="0.7541">
        <ele>921.2</ele>
        <time>2022-05-23 04:49:00</time>
      </trkpt>
      <trkpt lat="42.39071" lon="0.75415">
        <ele>921.4</ele>
        <time>2022-05-23 04:49:01</time>
      </trkpt>
      <trkpt lat="42.39069" lon="0.75422">
        <ele>921.4</ele>
        <time>2022-05-23 04:49:02</time>
      </trkpt>
      <trkpt lat="42.39067" lon="0.75427">
        <ele>921.6</ele>
        <time>2022-05-23 04:49:03</time>
      </trkpt>
      <trkpt lat="42.39065" lon="0.75432">
        <ele>921.6</ele>
        <time>2022-05-23 04:49:04</time>
      </trkpt>
      <trkpt lat="42.39063" lon="0.75437">
        <ele>921.8</ele>
        <time>2022-05-23 04:49:05</time>
      </trkpt>
      <trkpt lat="42.39061" lon="0.75441">
        <ele>922</ele>
        <time>2022-05-23 04:49:06</time>
      </trkpt>
      <trkpt lat="42.39058" lon="0.75446">
        <ele>922</ele>
        <time>2022-05-23 04:49:07</time>
      </trkpt>
      <trkpt lat="42.39055" lon="0.75451">
        <ele>922.2</ele>
        <time>2022-05-23 04:49:08</time>
      </trkpt>
      <trkpt lat="42.39052" lon="0.75455">
        <ele>922.2</ele>
        <time>2022-05-23 04:49:09</time>
      </trkpt>
      <trkpt lat="42.39049" lon="0.75459">
        <ele>922.2</ele>
        <time>2022-05-23 04:49:10</time>
      </trkpt>
      <trkpt lat="42.39047" lon="0.75463">
        <ele>922.4</ele>
        <time>2022-05-23 04:49:11</time>
      </trkpt>
      <trkpt lat="42.39044" lon="0.75467">
        <ele>922.4</ele>
        <time>2022-05-23 04:49:12</time>
      </trkpt>
      <trkpt lat="42.39041" lon="0.75471">
        <ele>922.4</ele>
        <time>2022-05-23 04:49:13</time>
      </trkpt>
      <trkpt lat="42.39038" lon="0.75475">
        <ele>922.6</ele>
        <time>2022-05-23 04:49:14</time>
      </trkpt>
      <trkpt lat="42.39035" lon="0.75479">
        <ele>922.6</ele>
        <time>2022-05-23 04:49:15</time>
      </trkpt>
      <trkpt lat="42.39031" lon="0.75483">
        <ele>922.6</ele>
        <time>2022-05-23 04:49:16</time>
      </trkpt>
      <trkpt lat="42.39028" lon="0.75487">
        <ele>922.6</ele>
        <time>2022-05-23 04:49:17</time>
      </trkpt>
      <trkpt lat="42.39025" lon="0.75491">
        <ele>922.6</ele>
        <time>2022-05-23 04:49:18</time>
      </trkpt>
      <trkpt lat="42.39023" lon="0.75496">
        <ele>922.6</ele>
        <time>2022-05-23 04:49:19</time>
      </trkpt>
      <trkpt lat="42.39021" lon="0.755">
        <ele>922.6</ele>
        <time>2022-05-23 04:49:20</time>
      </trkpt>
      <trkpt lat="42.39018" lon="0.75504">
        <ele>922.8</ele>
        <time>2022-05-23 04:49:21</time>
      </trkpt>
      <trkpt lat="42.39015" lon="0.75508">
        <ele>922.8</ele>
        <time>2022-05-23 04:49:22</time>
      </trkpt>
      <trkpt lat="42.39012" lon="0.75512">
        <ele>922.8</ele>
        <time>2022-05-23 04:49:23</time>
      </trkpt>
      <trkpt lat="42.3901" lon="0.75515">
        <ele>923</ele>
        <time>2022-05-23 04:49:24</time>
      </trkpt>
      <trkpt lat="42.39007" lon="0.7552">
        <ele>923.2</ele>
        <time>2022-05-23 04:49:25</time>
      </trkpt>
      <trkpt lat="42.39005" lon="0.75524">
        <ele>923.4</ele>
        <time>2022-05-23 04:49:26</time>
      </trkpt>
      <trkpt lat="42.39003" lon="0.75528">
        <ele>923.4</ele>
        <time>2022-05-23 04:49:27</time>
      </trkpt>
      <trkpt lat="42.39001" lon="0.75532">
        <ele>923.6</ele>
        <time>2022-05-23 04:49:28</time>
      </trkpt>
      <trkpt lat="42.38999" lon="0.75537">
        <ele>923.8</ele>
        <time>2022-05-23 04:49:29</time>
      </trkpt>
      <trkpt lat="42.38997" lon="0.75541">
        <ele>923.8</ele>
        <time>2022-05-23 04:49:30</time>
      </trkpt>
      <trkpt lat="42.38995" lon="0.75546">
        <ele>924</ele>
        <time>2022-05-23 04:49:31</time>
      </trkpt>
      <trkpt lat="42.38993" lon="0.7555">
        <ele>924.2</ele>
        <time>2022-05-23 04:49:32</time>
      </trkpt>
      <trkpt lat="42.38991" lon="0.75554">
        <ele>924.4</ele>
        <time>2022-05-23 04:49:33</time>
      </trkpt>
      <trkpt lat="42.38989" lon="0.75558">
        <ele>924.4</ele>
        <time>2022-05-23 04:49:34</time>
      </trkpt>
      <trkpt lat="42.38988" lon="0.75562">
        <ele>924.6</ele>
        <time>2022-05-23 04:49:35</time>
      </trkpt>
      <trkpt lat="42.38986" lon="0.75566">
        <ele>924.8</ele>
        <time>2022-05-23 04:49:36</time>
      </trkpt>
      <trkpt lat="42.38985" lon="0.75571">
        <ele>925</ele>
        <time>2022-05-23 04:49:37</time>
      </trkpt>
      <trkpt lat="42.38982" lon="0.75575">
        <ele>925.2</ele>
        <time>2022-05-23 04:49:38</time>
      </trkpt>
      <trkpt lat="42.3898" lon="0.75579">
        <ele>925.2</ele>
        <time>2022-05-23 04:49:39</time>
      </trkpt>
      <trkpt lat="42.38979" lon="0.75584">
        <ele>925.4</ele>
        <time>2022-05-23 04:49:40</time>
      </trkpt>
      <trkpt lat="42.38979" lon="0.75589">
        <ele>925.6</ele>
        <time>2022-05-23 04:49:41</time>
      </trkpt>
      <trkpt lat="42.38979" lon="0.75595">
        <ele>925.8</ele>
        <time>2022-05-23 04:49:42</time>
      </trkpt>
      <trkpt lat="42.38979" lon="0.756">
        <ele>926</ele>
        <time>2022-05-23 04:49:43</time>
      </trkpt>
      <trkpt lat="42.38981" lon="0.75606">
        <ele>926.2</ele>
        <time>2022-05-23 04:49:44</time>
      </trkpt>
      <trkpt lat="42.38983" lon="0.75611">
        <ele>926.4</ele>
        <time>2022-05-23 04:49:45</time>
      </trkpt>
      <trkpt lat="42.38985" lon="0.75616">
        <ele>926.8</ele>
        <time>2022-05-23 04:49:46</time>
      </trkpt>
      <trkpt lat="42.38988" lon="0.7562">
        <ele>927</ele>
        <time>2022-05-23 04:49:47</time>
      </trkpt>
      <trkpt lat="42.3899" lon="0.75623">
        <ele>927.2</ele>
        <time>2022-05-23 04:49:48</time>
      </trkpt>
      <trkpt lat="42.38992" lon="0.75626">
        <ele>927.4</ele>
        <time>2022-05-23 04:49:49</time>
      </trkpt>
      <trkpt lat="42.38994" lon="0.75627">
        <ele>927.6</ele>
        <time>2022-05-23 04:49:50</time>
      </trkpt>
      <trkpt lat="42.38999" lon="0.75629">
        <ele>927.8</ele>
        <time>2022-05-23 04:49:51</time>
      </trkpt>
      <trkpt lat="42.39002" lon="0.7563">
        <ele>928</ele>
        <time>2022-05-23 04:49:52</time>
      </trkpt>
      <trkpt lat="42.39005" lon="0.75631">
        <ele>928.2</ele>
        <time>2022-05-23 04:49:53</time>
      </trkpt>
      <trkpt lat="42.39009" lon="0.75631">
        <ele>928.2</ele>
        <time>2022-05-23 04:49:54</time>
      </trkpt>
      <trkpt lat="42.39013" lon="0.7563">
        <ele>928.4</ele>
        <time>2022-05-23 04:49:55</time>
      </trkpt>
      <trkpt lat="42.39016" lon="0.75629">
        <ele>928.6</ele>
        <time>2022-05-23 04:49:56</time>
      </trkpt>
      <trkpt lat="42.39021" lon="0.75627">
        <ele>928.6</ele>
        <time>2022-05-23 04:49:57</time>
      </trkpt>
      <trkpt lat="42.39025" lon="0.75625">
        <ele>928.8</ele>
        <time>2022-05-23 04:49:58</time>
      </trkpt>
      <trkpt lat="42.39029" lon="0.75622">
        <ele>929</ele>
        <time>2022-05-23 04:49:59</time>
      </trkpt>
      <trkpt lat="42.39033" lon="0.75621">
        <ele>929</ele>
        <time>2022-05-23 04:50:00</time>
      </trkpt>
      <trkpt lat="42.39038" lon="0.75619">
        <ele>929.2</ele>
        <time>2022-05-23 04:50:01</time>
      </trkpt>
      <trkpt lat="42.39042" lon="0.75617">
        <ele>929.4</ele>
        <time>2022-05-23 04:50:02</time>
      </trkpt>
      <trkpt lat="42.39046" lon="0.75616">
        <ele>929.4</ele>
        <time>2022-05-23 04:50:03</time>
      </trkpt>
      <trkpt lat="42.3905" lon="0.75615">
        <ele>929.6</ele>
        <time>2022-05-23 04:50:04</time>
      </trkpt>
      <trkpt lat="42.39054" lon="0.75614">
        <ele>929.6</ele>
        <time>2022-05-23 04:50:05</time>
      </trkpt>
      <trkpt lat="42.39058" lon="0.75612">
        <ele>929.8</ele>
        <time>2022-05-23 04:50:06</time>
      </trkpt>
      <trkpt lat="42.39062" lon="0.75611">
        <ele>930</ele>
        <time>2022-05-23 04:50:07</time>
      </trkpt>
      <trkpt lat="42.39065" lon="0.7561">
        <ele>930</ele>
        <time>2022-05-23 04:50:08</time>
      </trkpt>
      <trkpt lat="42.39069" lon="0.75609">
        <ele>930.2</ele>
        <time>2022-05-23 04:50:09</time>
      </trkpt>
      <trkpt lat="42.39073" lon="0.75609">
        <ele>930.2</ele>
        <time>2022-05-23 04:50:10</time>
      </trkpt>
      <trkpt lat="42.39076" lon="0.75609">
        <ele>930.4</ele>
        <time>2022-05-23 04:50:11</time>
      </trkpt>
      <trkpt lat="42.3908" lon="0.75608">
        <ele>930.4</ele>
        <time>2022-05-23 04:50:12</time>
      </trkpt>
      <trkpt lat="42.39083" lon="0.75608">
        <ele>930.6</ele>
        <time>2022-05-23 04:50:13</time>
      </trkpt>
      <trkpt lat="42.39086" lon="0.75609">
        <ele>930.6</ele>
        <time>2022-05-23 04:50:14</time>
      </trkpt>
      <trkpt lat="42.39089" lon="0.7561">
        <ele>930.8</ele>
        <time>2022-05-23 04:50:15</time>
      </trkpt>
      <trkpt lat="42.39092" lon="0.7561">
        <ele>930.8</ele>
        <time>2022-05-23 04:50:16</time>
      </trkpt>
      <trkpt lat="42.39095" lon="0.75611">
        <ele>931</ele>
        <time>2022-05-23 04:50:17</time>
      </trkpt>
      <trkpt lat="42.39098" lon="0.75612">
        <ele>931</ele>
        <time>2022-05-23 04:50:18</time>
      </trkpt>
      <trkpt lat="42.39102" lon="0.75613">
        <ele>931.2</ele>
        <time>2022-05-23 04:50:19</time>
      </trkpt>
      <trkpt lat="42.39104" lon="0.75614">
        <ele>931.4</ele>
        <time>2022-05-23 04:50:20</time>
      </trkpt>
      <trkpt lat="42.39107" lon="0.75615">
        <ele>931.4</ele>
        <time>2022-05-23 04:50:21</time>
      </trkpt>
      <trkpt lat="42.3911" lon="0.75616">
        <ele>931.6</ele>
        <time>2022-05-23 04:50:22</time>
      </trkpt>
      <trkpt lat="42.39113" lon="0.75617">
        <ele>931.8</ele>
        <time>2022-05-23 04:50:23</time>
      </trkpt>
      <trkpt lat="42.39116" lon="0.75618">
        <ele>931.8</ele>
        <time>2022-05-23 04:50:24</time>
      </trkpt>
      <trkpt lat="42.39119" lon="0.75619">
        <ele>932</ele>
        <time>2022-05-23 04:50:25</time>
      </trkpt>
      <trkpt lat="42.39122" lon="0.75621">
        <ele>932.2</ele>
        <time>2022-05-23 04:50:26</time>
      </trkpt>
      <trkpt lat="42.39125" lon="0.75621">
        <ele>932.2</ele>
        <time>2022-05-23 04:50:27</time>
      </trkpt>
      <trkpt lat="42.39128" lon="0.75623">
        <ele>932.4</ele>
        <time>2022-05-23 04:50:28</time>
      </trkpt>
      <trkpt lat="42.39131" lon="0.75624">
        <ele>932.4</ele>
        <time>2022-05-23 04:50:29</time>
      </trkpt>
      <trkpt lat="42.39134" lon="0.75626">
        <ele>932.6</ele>
        <time>2022-05-23 04:50:30</time>
      </trkpt>
      <trkpt lat="42.39136" lon="0.75628">
        <ele>932.6</ele>
        <time>2022-05-23 04:50:31</time>
      </trkpt>
      <trkpt lat="42.39139" lon="0.7563">
        <ele>932.8</ele>
        <time>2022-05-23 04:50:32</time>
      </trkpt>
      <trkpt lat="42.39142" lon="0.75632">
        <ele>932.8</ele>
        <time>2022-05-23 04:50:33</time>
      </trkpt>
      <trkpt lat="42.39144" lon="0.75634">
        <ele>933</ele>
        <time>2022-05-23 04:50:34</time>
      </trkpt>
      <trkpt lat="42.39147" lon="0.75637">
        <ele>933</ele>
        <time>2022-05-23 04:50:35</time>
      </trkpt>
      <trkpt lat="42.39149" lon="0.75639">
        <ele>933.2</ele>
        <time>2022-05-23 04:50:36</time>
      </trkpt>
      <trkpt lat="42.39151" lon="0.75641">
        <ele>933.4</ele>
        <time>2022-05-23 04:50:37</time>
      </trkpt>
      <trkpt lat="42.39154" lon="0.75643">
        <ele>933.4</ele>
        <time>2022-05-23 04:50:38</time>
      </trkpt>
      <trkpt lat="42.39156" lon="0.75646">
        <ele>933.6</ele>
        <time>2022-05-23 04:50:39</time>
      </trkpt>
      <trkpt lat="42.39158" lon="0.75649">
        <ele>933.6</ele>
        <time>2022-05-23 04:50:40</time>
      </trkpt>
      <trkpt lat="42.39161" lon="0.75651">
        <ele>933.8</ele>
        <time>2022-05-23 04:50:41</time>
      </trkpt>
      <trkpt lat="42.39163" lon="0.75654">
        <ele>933.8</ele>
        <time>2022-05-23 04:50:42</time>
      </trkpt>
      <trkpt lat="42.39164" lon="0.75657">
        <ele>934</ele>
        <time>2022-05-23 04:50:43</time>
      </trkpt>
      <trkpt lat="42.39166" lon="0.7566">
        <ele>934</ele>
        <time>2022-05-23 04:50:44</time>
      </trkpt>
      <trkpt lat="42.39168" lon="0.75663">
        <ele>934.2</ele>
        <time>2022-05-23 04:50:45</time>
      </trkpt>
      <trkpt lat="42.3917" lon="0.75666">
        <ele>934.4</ele>
        <time>2022-05-23 04:50:46</time>
      </trkpt>
      <trkpt lat="42.39171" lon="0.75669">
        <ele>934.4</ele>
        <time>2022-05-23 04:50:47</time>
      </trkpt>
      <trkpt lat="42.39173" lon="0.75672">
        <ele>934.6</ele>
        <time>2022-05-23 04:50:48</time>
      </trkpt>
      <trkpt lat="42.39175" lon="0.75675">
        <ele>934.6</ele>
        <time>2022-05-23 04:50:49</time>
      </trkpt>
      <trkpt lat="42.39176" lon="0.75679">
        <ele>934.8</ele>
        <time>2022-05-23 04:50:50</time>
      </trkpt>
      <trkpt lat="42.39177" lon="0.75683">
        <ele>934.8</ele>
        <time>2022-05-23 04:50:51</time>
      </trkpt>
      <trkpt lat="42.39179" lon="0.75687">
        <ele>935</ele>
        <time>2022-05-23 04:50:52</time>
      </trkpt>
      <trkpt lat="42.3918" lon="0.7569">
        <ele>935</ele>
        <time>2022-05-23 04:50:53</time>
      </trkpt>
      <trkpt lat="42.39181" lon="0.75694">
        <ele>935.2</ele>
        <time>2022-05-23 04:50:54</time>
      </trkpt>
      <trkpt lat="42.39182" lon="0.75697">
        <ele>935.2</ele>
        <time>2022-05-23 04:50:55</time>
      </trkpt>
      <trkpt lat="42.39184" lon="0.757">
        <ele>935.4</ele>
        <time>2022-05-23 04:50:56</time>
      </trkpt>
      <trkpt lat="42.39185" lon="0.75704">
        <ele>935.6</ele>
        <time>2022-05-23 04:50:57</time>
      </trkpt>
      <trkpt lat="42.39186" lon="0.75707">
        <ele>935.6</ele>
        <time>2022-05-23 04:50:58</time>
      </trkpt>
      <trkpt lat="42.39188" lon="0.7571">
        <ele>935.8</ele>
        <time>2022-05-23 04:50:59</time>
      </trkpt>
      <trkpt lat="42.39189" lon="0.75712">
        <ele>935.8</ele>
        <time>2022-05-23 04:51:00</time>
      </trkpt>
      <trkpt lat="42.3919" lon="0.75716">
        <ele>936</ele>
        <time>2022-05-23 04:51:01</time>
      </trkpt>
      <trkpt lat="42.39192" lon="0.75719">
        <ele>936.2</ele>
        <time>2022-05-23 04:51:02</time>
      </trkpt>
      <trkpt lat="42.39193" lon="0.75722">
        <ele>936.2</ele>
        <time>2022-05-23 04:51:03</time>
      </trkpt>
      <trkpt lat="42.39194" lon="0.75725">
        <ele>936.4</ele>
        <time>2022-05-23 04:51:04</time>
      </trkpt>
      <trkpt lat="42.39196" lon="0.75728">
        <ele>936.6</ele>
        <time>2022-05-23 04:51:05</time>
      </trkpt>
      <trkpt lat="42.39198" lon="0.75732">
        <ele>936.6</ele>
        <time>2022-05-23 04:51:06</time>
      </trkpt>
      <trkpt lat="42.392" lon="0.75735">
        <ele>936.8</ele>
        <time>2022-05-23 04:51:07</time>
      </trkpt>
      <trkpt lat="42.39201" lon="0.75739">
        <ele>937</ele>
        <time>2022-05-23 04:51:08</time>
      </trkpt>
      <trkpt lat="42.39203" lon="0.75743">
        <ele>937.2</ele>
        <time>2022-05-23 04:51:09</time>
      </trkpt>
      <trkpt lat="42.39204" lon="0.75746">
        <ele>937.4</ele>
        <time>2022-05-23 04:51:10</time>
      </trkpt>
      <trkpt lat="42.39208" lon="0.7575">
        <ele>937.4</ele>
        <time>2022-05-23 04:51:11</time>
      </trkpt>
      <trkpt lat="42.39209" lon="0.75754">
        <ele>937.6</ele>
        <time>2022-05-23 04:51:12</time>
      </trkpt>
      <trkpt lat="42.39211" lon="0.75758">
        <ele>937.8</ele>
        <time>2022-05-23 04:51:13</time>
      </trkpt>
      <trkpt lat="42.39213" lon="0.75761">
        <ele>937.8</ele>
        <time>2022-05-23 04:51:14</time>
      </trkpt>
      <trkpt lat="42.39215" lon="0.75765">
        <ele>938</ele>
        <time>2022-05-23 04:51:15</time>
      </trkpt>
      <trkpt lat="42.39217" lon="0.75769">
        <ele>938.2</ele>
        <time>2022-05-23 04:51:16</time>
      </trkpt>
      <trkpt lat="42.39219" lon="0.75774">
        <ele>938.2</ele>
        <time>2022-05-23 04:51:17</time>
      </trkpt>
      <trkpt lat="42.39221" lon="0.75779">
        <ele>938.4</ele>
        <time>2022-05-23 04:51:18</time>
      </trkpt>
      <trkpt lat="42.39224" lon="0.75783">
        <ele>938.4</ele>
        <time>2022-05-23 04:51:19</time>
      </trkpt>
      <trkpt lat="42.39226" lon="0.75788">
        <ele>938.6</ele>
        <time>2022-05-23 04:51:20</time>
      </trkpt>
      <trkpt lat="42.39229" lon="0.75792">
        <ele>938.6</ele>
        <time>2022-05-23 04:51:21</time>
      </trkpt>
      <trkpt lat="42.39231" lon="0.75796">
        <ele>938.8</ele>
        <time>2022-05-23 04:51:22</time>
      </trkpt>
      <trkpt lat="42.39234" lon="0.75801">
        <ele>938.8</ele>
        <time>2022-05-23 04:51:23</time>
      </trkpt>
      <trkpt lat="42.39236" lon="0.75805">
        <ele>938.8</ele>
        <time>2022-05-23 04:51:24</time>
      </trkpt>
      <trkpt lat="42.39238" lon="0.7581">
        <ele>939</ele>
        <time>2022-05-23 04:51:25</time>
      </trkpt>
      <trkpt lat="42.39241" lon="0.75813">
        <ele>939</ele>
        <time>2022-05-23 04:51:26</time>
      </trkpt>
      <trkpt lat="42.39244" lon="0.75817">
        <ele>939</ele>
        <time>2022-05-23 04:51:27</time>
      </trkpt>
      <trkpt lat="42.39247" lon="0.7582">
        <ele>939.2</ele>
        <time>2022-05-23 04:51:28</time>
      </trkpt>
      <trkpt lat="42.39249" lon="0.75823">
        <ele>939.2</ele>
        <time>2022-05-23 04:51:29</time>
      </trkpt>
      <trkpt lat="42.39252" lon="0.75826">
        <ele>939.2</ele>
        <time>2022-05-23 04:51:30</time>
      </trkpt>
      <trkpt lat="42.39255" lon="0.75829">
        <ele>939.4</ele>
        <time>2022-05-23 04:51:31</time>
      </trkpt>
      <trkpt lat="42.39258" lon="0.75831">
        <ele>939.4</ele>
        <time>2022-05-23 04:51:32</time>
      </trkpt>
      <trkpt lat="42.39261" lon="0.75834">
        <ele>939.4</ele>
        <time>2022-05-23 04:51:33</time>
      </trkpt>
      <trkpt lat="42.39265" lon="0.75837">
        <ele>939.4</ele>
        <time>2022-05-23 04:51:34</time>
      </trkpt>
      <trkpt lat="42.39268" lon="0.75839">
        <ele>939.4</ele>
        <time>2022-05-23 04:51:35</time>
      </trkpt>
      <trkpt lat="42.39271" lon="0.75841">
        <ele>939.6</ele>
        <time>2022-05-23 04:51:36</time>
      </trkpt>
      <trkpt lat="42.39274" lon="0.75844">
        <ele>939.6</ele>
        <time>2022-05-23 04:51:37</time>
      </trkpt>
      <trkpt lat="42.39278" lon="0.75846">
        <ele>939.6</ele>
        <time>2022-05-23 04:51:38</time>
      </trkpt>
      <trkpt lat="42.39281" lon="0.75849">
        <ele>939.6</ele>
        <time>2022-05-23 04:51:39</time>
      </trkpt>
      <trkpt lat="42.39284" lon="0.75851">
        <ele>939.8</ele>
        <time>2022-05-23 04:51:40</time>
      </trkpt>
      <trkpt lat="42.39287" lon="0.75853">
        <ele>939.8</ele>
        <time>2022-05-23 04:51:41</time>
      </trkpt>
      <trkpt lat="42.3929" lon="0.75855">
        <ele>939.8</ele>
        <time>2022-05-23 04:51:42</time>
      </trkpt>
      <trkpt lat="42.39293" lon="0.75858">
        <ele>940</ele>
        <time>2022-05-23 04:51:43</time>
      </trkpt>
      <trkpt lat="42.39296" lon="0.75859">
        <ele>940</ele>
        <time>2022-05-23 04:51:44</time>
      </trkpt>
      <trkpt lat="42.39299" lon="0.75861">
        <ele>940</ele>
        <time>2022-05-23 04:51:45</time>
      </trkpt>
      <trkpt lat="42.39302" lon="0.75865">
        <ele>940.2</ele>
        <time>2022-05-23 04:51:46</time>
      </trkpt>
      <trkpt lat="42.39304" lon="0.75869">
        <ele>940.2</ele>
        <time>2022-05-23 04:51:47</time>
      </trkpt>
      <trkpt lat="42.39306" lon="0.75873">
        <ele>940.2</ele>
        <time>2022-05-23 04:51:48</time>
      </trkpt>
      <trkpt lat="42.39308" lon="0.75878">
        <ele>940.2</ele>
        <time>2022-05-23 04:51:49</time>
      </trkpt>
      <trkpt lat="42.3931" lon="0.75882">
        <ele>940.2</ele>
        <time>2022-05-23 04:51:50</time>
      </trkpt>
      <trkpt lat="42.39312" lon="0.75887">
        <ele>940.4</ele>
        <time>2022-05-23 04:51:51</time>
      </trkpt>
      <trkpt lat="42.39314" lon="0.75891">
        <ele>940.4</ele>
        <time>2022-05-23 04:51:52</time>
      </trkpt>
      <trkpt lat="42.39315" lon="0.75896">
        <ele>940.4</ele>
        <time>2022-05-23 04:51:53</time>
      </trkpt>
      <trkpt lat="42.39316" lon="0.759">
        <ele>940.6</ele>
        <time>2022-05-23 04:51:54</time>
      </trkpt>
      <trkpt lat="42.39318" lon="0.75905">
        <ele>940.6</ele>
        <time>2022-05-23 04:51:55</time>
      </trkpt>
      <trkpt lat="42.39319" lon="0.75909">
        <ele>940.6</ele>
        <time>2022-05-23 04:51:56</time>
      </trkpt>
      <trkpt lat="42.39321" lon="0.75913">
        <ele>940.8</ele>
        <time>2022-05-23 04:51:57</time>
      </trkpt>
      <trkpt lat="42.39322" lon="0.75918">
        <ele>940.8</ele>
        <time>2022-05-23 04:51:58</time>
      </trkpt>
      <trkpt lat="42.39323" lon="0.75923">
        <ele>940.8</ele>
        <time>2022-05-23 04:51:59</time>
      </trkpt>
      <trkpt lat="42.39325" lon="0.75928">
        <ele>940.8</ele>
        <time>2022-05-23 04:52:00</time>
      </trkpt>
      <trkpt lat="42.39326" lon="0.75932">
        <ele>941</ele>
        <time>2022-05-23 04:52:01</time>
      </trkpt>
      <trkpt lat="42.39328" lon="0.75937">
        <ele>941</ele>
        <time>2022-05-23 04:52:02</time>
      </trkpt>
      <trkpt lat="42.39329" lon="0.75942">
        <ele>941</ele>
        <time>2022-05-23 04:52:03</time>
      </trkpt>
      <trkpt lat="42.39331" lon="0.75947">
        <ele>941</ele>
        <time>2022-05-23 04:52:04</time>
      </trkpt>
      <trkpt lat="42.39333" lon="0.75951">
        <ele>941</ele>
        <time>2022-05-23 04:52:05</time>
      </trkpt>
      <trkpt lat="42.39335" lon="0.75955">
        <ele>941.2</ele>
        <time>2022-05-23 04:52:06</time>
      </trkpt>
      <trkpt lat="42.39337" lon="0.75959">
        <ele>941.2</ele>
        <time>2022-05-23 04:52:07</time>
      </trkpt>
      <trkpt lat="42.39339" lon="0.75963">
        <ele>941.2</ele>
        <time>2022-05-23 04:52:08</time>
      </trkpt>
      <trkpt lat="42.3934" lon="0.75966">
        <ele>941.4</ele>
        <time>2022-05-23 04:52:09</time>
      </trkpt>
      <trkpt lat="42.39342" lon="0.7597">
        <ele>941.4</ele>
        <time>2022-05-23 04:52:10</time>
      </trkpt>
      <trkpt lat="42.39343" lon="0.75974">
        <ele>941.4</ele>
        <time>2022-05-23 04:52:11</time>
      </trkpt>
      <trkpt lat="42.39345" lon="0.75978">
        <ele>941.6</ele>
        <time>2022-05-23 04:52:12</time>
      </trkpt>
      <trkpt lat="42.39346" lon="0.75983">
        <ele>941.6</ele>
        <time>2022-05-23 04:52:13</time>
      </trkpt>
      <trkpt lat="42.39348" lon="0.75987">
        <ele>941.6</ele>
        <time>2022-05-23 04:52:14</time>
      </trkpt>
      <trkpt lat="42.39349" lon="0.75992">
        <ele>941.8</ele>
        <time>2022-05-23 04:52:15</time>
      </trkpt>
      <trkpt lat="42.39351" lon="0.75997">
        <ele>941.8</ele>
        <time>2022-05-23 04:52:16</time>
      </trkpt>
      <trkpt lat="42.39352" lon="0.76002">
        <ele>941.8</ele>
        <time>2022-05-23 04:52:17</time>
      </trkpt>
      <trkpt lat="42.39354" lon="0.76007">
        <ele>942</ele>
        <time>2022-05-23 04:52:18</time>
      </trkpt>
      <trkpt lat="42.39355" lon="0.76012">
        <ele>942</ele>
        <time>2022-05-23 04:52:19</time>
      </trkpt>
      <trkpt lat="42.39357" lon="0.76016">
        <ele>942</ele>
        <time>2022-05-23 04:52:20</time>
      </trkpt>
      <trkpt lat="42.39358" lon="0.7602">
        <ele>942.2</ele>
        <time>2022-05-23 04:52:21</time>
      </trkpt>
      <trkpt lat="42.39359" lon="0.76025">
        <ele>942.2</ele>
        <time>2022-05-23 04:52:22</time>
      </trkpt>
      <trkpt lat="42.3936" lon="0.76029">
        <ele>942.4</ele>
        <time>2022-05-23 04:52:23</time>
      </trkpt>
      <trkpt lat="42.39362" lon="0.76034">
        <ele>942.4</ele>
        <time>2022-05-23 04:52:24</time>
      </trkpt>
      <trkpt lat="42.39363" lon="0.76039">
        <ele>942.4</ele>
        <time>2022-05-23 04:52:25</time>
      </trkpt>
      <trkpt lat="42.39364" lon="0.76043">
        <ele>942.6</ele>
        <time>2022-05-23 04:52:26</time>
      </trkpt>
      <trkpt lat="42.39366" lon="0.76048">
        <ele>942.6</ele>
        <time>2022-05-23 04:52:27</time>
      </trkpt>
      <trkpt lat="42.39368" lon="0.76053">
        <ele>942.6</ele>
        <time>2022-05-23 04:52:28</time>
      </trkpt>
      <trkpt lat="42.39369" lon="0.76058">
        <ele>942.8</ele>
        <time>2022-05-23 04:52:29</time>
      </trkpt>
      <trkpt lat="42.39371" lon="0.76063">
        <ele>942.8</ele>
        <time>2022-05-23 04:52:30</time>
      </trkpt>
      <trkpt lat="42.39372" lon="0.76068">
        <ele>942.8</ele>
        <time>2022-05-23 04:52:31</time>
      </trkpt>
      <trkpt lat="42.39373" lon="0.76073">
        <ele>943</ele>
        <time>2022-05-23 04:52:32</time>
      </trkpt>
      <trkpt lat="42.39374" lon="0.76078">
        <ele>943</ele>
        <time>2022-05-23 04:52:33</time>
      </trkpt>
      <trkpt lat="42.39375" lon="0.76083">
        <ele>943</ele>
        <time>2022-05-23 04:52:34</time>
      </trkpt>
      <trkpt lat="42.39375" lon="0.76089">
        <ele>943.2</ele>
        <time>2022-05-23 04:52:35</time>
      </trkpt>
      <trkpt lat="42.39376" lon="0.76094">
        <ele>943.2</ele>
        <time>2022-05-23 04:52:36</time>
      </trkpt>
      <trkpt lat="42.39376" lon="0.761">
        <ele>943.4</ele>
        <time>2022-05-23 04:52:37</time>
      </trkpt>
      <trkpt lat="42.39376" lon="0.76105">
        <ele>943.4</ele>
        <time>2022-05-23 04:52:38</time>
      </trkpt>
      <trkpt lat="42.39377" lon="0.76111">
        <ele>943.6</ele>
        <time>2022-05-23 04:52:39</time>
      </trkpt>
      <trkpt lat="42.39378" lon="0.76115">
        <ele>943.8</ele>
        <time>2022-05-23 04:52:40</time>
      </trkpt>
      <trkpt lat="42.39379" lon="0.7612">
        <ele>943.8</ele>
        <time>2022-05-23 04:52:41</time>
      </trkpt>
      <trkpt lat="42.3938" lon="0.76124">
        <ele>944</ele>
        <time>2022-05-23 04:52:42</time>
      </trkpt>
      <trkpt lat="42.3938" lon="0.76129">
        <ele>944.2</ele>
        <time>2022-05-23 04:52:43</time>
      </trkpt>
      <trkpt lat="42.39381" lon="0.76134">
        <ele>944.4</ele>
        <time>2022-05-23 04:52:44</time>
      </trkpt>
      <trkpt lat="42.39382" lon="0.7614">
        <ele>944.4</ele>
        <time>2022-05-23 04:52:45</time>
      </trkpt>
      <trkpt lat="42.39383" lon="0.76147">
        <ele>944.6</ele>
        <time>2022-05-23 04:52:46</time>
      </trkpt>
      <trkpt lat="42.39384" lon="0.76153">
        <ele>944.6</ele>
        <time>2022-05-23 04:52:47</time>
      </trkpt>
      <trkpt lat="42.39386" lon="0.76159">
        <ele>944.8</ele>
        <time>2022-05-23 04:52:48</time>
      </trkpt>
      <trkpt lat="42.39387" lon="0.76164">
        <ele>945</ele>
        <time>2022-05-23 04:52:49</time>
      </trkpt>
      <trkpt lat="42.39388" lon="0.76169">
        <ele>945.2</ele>
        <time>2022-05-23 04:52:50</time>
      </trkpt>
      <trkpt lat="42.39389" lon="0.76173">
        <ele>945.4</ele>
        <time>2022-05-23 04:52:51</time>
      </trkpt>
      <trkpt lat="42.39391" lon="0.76177">
        <ele>945.6</ele>
        <time>2022-05-23 04:52:52</time>
      </trkpt>
      <trkpt lat="42.39392" lon="0.76181">
        <ele>945.6</ele>
        <time>2022-05-23 04:52:53</time>
      </trkpt>
      <trkpt lat="42.39395" lon="0.76185">
        <ele>945.8</ele>
        <time>2022-05-23 04:52:54</time>
      </trkpt>
      <trkpt lat="42.39397" lon="0.76188">
        <ele>946</ele>
        <time>2022-05-23 04:52:55</time>
      </trkpt>
      <trkpt lat="42.39399" lon="0.76191">
        <ele>946.2</ele>
        <time>2022-05-23 04:52:56</time>
      </trkpt>
      <trkpt lat="42.39401" lon="0.76195">
        <ele>946.4</ele>
        <time>2022-05-23 04:52:57</time>
      </trkpt>
      <trkpt lat="42.39403" lon="0.76198">
        <ele>946.4</ele>
        <time>2022-05-23 04:52:58</time>
      </trkpt>
      <trkpt lat="42.39405" lon="0.76201">
        <ele>946.6</ele>
        <time>2022-05-23 04:52:59</time>
      </trkpt>
      <trkpt lat="42.39406" lon="0.76204">
        <ele>946.8</ele>
        <time>2022-05-23 04:53:00</time>
      </trkpt>
      <trkpt lat="42.39408" lon="0.76207">
        <ele>947</ele>
        <time>2022-05-23 04:53:01</time>
      </trkpt>
      <trkpt lat="42.3941" lon="0.7621">
        <ele>947</ele>
        <time>2022-05-23 04:53:02</time>
      </trkpt>
      <trkpt lat="42.39412" lon="0.76214">
        <ele>947.2</ele>
        <time>2022-05-23 04:53:03</time>
      </trkpt>
      <trkpt lat="42.39413" lon="0.76217">
        <ele>947.4</ele>
        <time>2022-05-23 04:53:04</time>
      </trkpt>
      <trkpt lat="42.39415" lon="0.7622">
        <ele>947.4</ele>
        <time>2022-05-23 04:53:05</time>
      </trkpt>
      <trkpt lat="42.39416" lon="0.76223">
        <ele>947.6</ele>
        <time>2022-05-23 04:53:06</time>
      </trkpt>
      <trkpt lat="42.39418" lon="0.76225">
        <ele>947.8</ele>
        <time>2022-05-23 04:53:07</time>
      </trkpt>
      <trkpt lat="42.39421" lon="0.76229">
        <ele>948</ele>
        <time>2022-05-23 04:53:08</time>
      </trkpt>
      <trkpt lat="42.39422" lon="0.76232">
        <ele>948</ele>
        <time>2022-05-23 04:53:09</time>
      </trkpt>
      <trkpt lat="42.39425" lon="0.76236">
        <ele>948.2</ele>
        <time>2022-05-23 04:53:10</time>
      </trkpt>
      <trkpt lat="42.39427" lon="0.76239">
        <ele>948.4</ele>
        <time>2022-05-23 04:53:11</time>
      </trkpt>
      <trkpt lat="42.39429" lon="0.76243">
        <ele>948.6</ele>
        <time>2022-05-23 04:53:12</time>
      </trkpt>
      <trkpt lat="42.39431" lon="0.76246">
        <ele>948.6</ele>
        <time>2022-05-23 04:53:13</time>
      </trkpt>
      <trkpt lat="42.39433" lon="0.76249">
        <ele>948.8</ele>
        <time>2022-05-23 04:53:14</time>
      </trkpt>
      <trkpt lat="42.39434" lon="0.76253">
        <ele>949</ele>
        <time>2022-05-23 04:53:15</time>
      </trkpt>
      <trkpt lat="42.39436" lon="0.76256">
        <ele>949.2</ele>
        <time>2022-05-23 04:53:16</time>
      </trkpt>
      <trkpt lat="42.39438" lon="0.7626">
        <ele>949.2</ele>
        <time>2022-05-23 04:53:17</time>
      </trkpt>
      <trkpt lat="42.3944" lon="0.76263">
        <ele>949.4</ele>
        <time>2022-05-23 04:53:18</time>
      </trkpt>
      <trkpt lat="42.39442" lon="0.76266">
        <ele>949.6</ele>
        <time>2022-05-23 04:53:19</time>
      </trkpt>
      <trkpt lat="42.39443" lon="0.7627">
        <ele>949.6</ele>
        <time>2022-05-23 04:53:20</time>
      </trkpt>
      <trkpt lat="42.39444" lon="0.76274">
        <ele>949.8</ele>
        <time>2022-05-23 04:53:21</time>
      </trkpt>
      <trkpt lat="42.39446" lon="0.76278">
        <ele>949.8</ele>
        <time>2022-05-23 04:53:22</time>
      </trkpt>
      <trkpt lat="42.39446" lon="0.76282">
        <ele>950</ele>
        <time>2022-05-23 04:53:23</time>
      </trkpt>
      <trkpt lat="42.39447" lon="0.76286">
        <ele>950.2</ele>
        <time>2022-05-23 04:53:24</time>
      </trkpt>
      <trkpt lat="42.39448" lon="0.7629">
        <ele>950.2</ele>
        <time>2022-05-23 04:53:25</time>
      </trkpt>
      <trkpt lat="42.39449" lon="0.76294">
        <ele>950.4</ele>
        <time>2022-05-23 04:53:26</time>
      </trkpt>
      <trkpt lat="42.39451" lon="0.76299">
        <ele>950.4</ele>
        <time>2022-05-23 04:53:27</time>
      </trkpt>
      <trkpt lat="42.39452" lon="0.76303">
        <ele>950.6</ele>
        <time>2022-05-23 04:53:28</time>
      </trkpt>
      <trkpt lat="42.39452" lon="0.76308">
        <ele>950.6</ele>
        <time>2022-05-23 04:53:29</time>
      </trkpt>
      <trkpt lat="42.39452" lon="0.76313">
        <ele>950.8</ele>
        <time>2022-05-23 04:53:30</time>
      </trkpt>
      <trkpt lat="42.39452" lon="0.76317">
        <ele>951</ele>
        <time>2022-05-23 04:53:31</time>
      </trkpt>
      <trkpt lat="42.39451" lon="0.76321">
        <ele>951</ele>
        <time>2022-05-23 04:53:32</time>
      </trkpt>
      <trkpt lat="42.39451" lon="0.76326">
        <ele>951.2</ele>
        <time>2022-05-23 04:53:33</time>
      </trkpt>
      <trkpt lat="42.39451" lon="0.7633">
        <ele>951.2</ele>
        <time>2022-05-23 04:53:34</time>
      </trkpt>
      <trkpt lat="42.39452" lon="0.76335">
        <ele>951.4</ele>
        <time>2022-05-23 04:53:35</time>
      </trkpt>
      <trkpt lat="42.39452" lon="0.76339">
        <ele>951.4</ele>
        <time>2022-05-23 04:53:36</time>
      </trkpt>
      <trkpt lat="42.39451" lon="0.76344">
        <ele>951.6</ele>
        <time>2022-05-23 04:53:37</time>
      </trkpt>
      <trkpt lat="42.39451" lon="0.76348">
        <ele>951.6</ele>
        <time>2022-05-23 04:53:38</time>
      </trkpt>
      <trkpt lat="42.3945" lon="0.76352">
        <ele>951.8</ele>
        <time>2022-05-23 04:53:39</time>
      </trkpt>
      <trkpt lat="42.39449" lon="0.76356">
        <ele>951.8</ele>
        <time>2022-05-23 04:53:40</time>
      </trkpt>
      <trkpt lat="42.39448" lon="0.7636">
        <ele>952</ele>
        <time>2022-05-23 04:53:41</time>
      </trkpt>
      <trkpt lat="42.39446" lon="0.76365">
        <ele>952</ele>
        <time>2022-05-23 04:53:42</time>
      </trkpt>
      <trkpt lat="42.39445" lon="0.76369">
        <ele>952</ele>
        <time>2022-05-23 04:53:43</time>
      </trkpt>
      <trkpt lat="42.39444" lon="0.76373">
        <ele>952.2</ele>
        <time>2022-05-23 04:53:44</time>
      </trkpt>
      <trkpt lat="42.39442" lon="0.76376">
        <ele>952.2</ele>
        <time>2022-05-23 04:53:45</time>
      </trkpt>
      <trkpt lat="42.39442" lon="0.76381">
        <ele>952.2</ele>
        <time>2022-05-23 04:53:46</time>
      </trkpt>
      <trkpt lat="42.39442" lon="0.76385">
        <ele>952.4</ele>
        <time>2022-05-23 04:53:47</time>
      </trkpt>
      <trkpt lat="42.39442" lon="0.76389">
        <ele>952.4</ele>
        <time>2022-05-23 04:53:48</time>
      </trkpt>
      <trkpt lat="42.3944" lon="0.76393">
        <ele>952.6</ele>
        <time>2022-05-23 04:53:49</time>
      </trkpt>
      <trkpt lat="42.39439" lon="0.76397">
        <ele>952.6</ele>
        <time>2022-05-23 04:53:50</time>
      </trkpt>
      <trkpt lat="42.39437" lon="0.764">
        <ele>952.6</ele>
        <time>2022-05-23 04:53:51</time>
      </trkpt>
      <trkpt lat="42.39435" lon="0.76404">
        <ele>952.8</ele>
        <time>2022-05-23 04:53:52</time>
      </trkpt>
      <trkpt lat="42.39434" lon="0.76408">
        <ele>952.8</ele>
        <time>2022-05-23 04:53:53</time>
      </trkpt>
      <trkpt lat="42.39434" lon="0.76412">
        <ele>953</ele>
        <time>2022-05-23 04:53:54</time>
      </trkpt>
      <trkpt lat="42.39432" lon="0.76416">
        <ele>953</ele>
        <time>2022-05-23 04:53:55</time>
      </trkpt>
      <trkpt lat="42.3943" lon="0.76419">
        <ele>953.2</ele>
        <time>2022-05-23 04:53:56</time>
      </trkpt>
      <trkpt lat="42.39429" lon="0.76422">
        <ele>953.2</ele>
        <time>2022-05-23 04:53:57</time>
      </trkpt>
      <trkpt lat="42.39428" lon="0.76425">
        <ele>953.2</ele>
        <time>2022-05-23 04:53:58</time>
      </trkpt>
      <trkpt lat="42.39426" lon="0.76428">
        <ele>953.4</ele>
        <time>2022-05-23 04:53:59</time>
      </trkpt>
      <trkpt lat="42.39424" lon="0.76432">
        <ele>953.4</ele>
        <time>2022-05-23 04:54:00</time>
      </trkpt>
      <trkpt lat="42.39423" lon="0.76435">
        <ele>953.6</ele>
        <time>2022-05-23 04:54:01</time>
      </trkpt>
      <trkpt lat="42.39422" lon="0.76439">
        <ele>953.6</ele>
        <time>2022-05-23 04:54:02</time>
      </trkpt>
      <trkpt lat="42.3942" lon="0.76442">
        <ele>953.8</ele>
        <time>2022-05-23 04:54:03</time>
      </trkpt>
      <trkpt lat="42.39418" lon="0.76446">
        <ele>953.8</ele>
        <time>2022-05-23 04:54:04</time>
      </trkpt>
      <trkpt lat="42.39416" lon="0.7645">
        <ele>953.8</ele>
        <time>2022-05-23 04:54:05</time>
      </trkpt>
      <trkpt lat="42.39415" lon="0.76453">
        <ele>954</ele>
        <time>2022-05-23 04:54:06</time>
      </trkpt>
      <trkpt lat="42.39414" lon="0.76457">
        <ele>954</ele>
        <time>2022-05-23 04:54:07</time>
      </trkpt>
      <trkpt lat="42.39413" lon="0.76461">
        <ele>954</ele>
        <time>2022-05-23 04:54:08</time>
      </trkpt>
      <trkpt lat="42.39412" lon="0.76465">
        <ele>954.2</ele>
        <time>2022-05-23 04:54:09</time>
      </trkpt>
      <trkpt lat="42.39409" lon="0.76468">
        <ele>954.2</ele>
        <time>2022-05-23 04:54:10</time>
      </trkpt>
      <trkpt lat="42.39406" lon="0.76471">
        <ele>954.2</ele>
        <time>2022-05-23 04:54:11</time>
      </trkpt>
      <trkpt lat="42.39403" lon="0.76473">
        <ele>954.4</ele>
        <time>2022-05-23 04:54:12</time>
      </trkpt>
      <trkpt lat="42.39401" lon="0.76477">
        <ele>954.4</ele>
        <time>2022-05-23 04:54:13</time>
      </trkpt>
      <trkpt lat="42.39398" lon="0.7648">
        <ele>954.6</ele>
        <time>2022-05-23 04:54:14</time>
      </trkpt>
      <trkpt lat="42.39396" lon="0.76483">
        <ele>954.6</ele>
        <time>2022-05-23 04:54:15</time>
      </trkpt>
      <trkpt lat="42.39394" lon="0.76487">
        <ele>954.8</ele>
        <time>2022-05-23 04:54:16</time>
      </trkpt>
      <trkpt lat="42.39393" lon="0.76491">
        <ele>954.8</ele>
        <time>2022-05-23 04:54:17</time>
      </trkpt>
      <trkpt lat="42.39392" lon="0.76495">
        <ele>954.8</ele>
        <time>2022-05-23 04:54:18</time>
      </trkpt>
      <trkpt lat="42.39391" lon="0.76499">
        <ele>955</ele>
        <time>2022-05-23 04:54:19</time>
      </trkpt>
      <trkpt lat="42.39389" lon="0.76502">
        <ele>955</ele>
        <time>2022-05-23 04:54:20</time>
      </trkpt>
      <trkpt lat="42.39388" lon="0.76506">
        <ele>955</ele>
        <time>2022-05-23 04:54:21</time>
      </trkpt>
      <trkpt lat="42.39386" lon="0.76509">
        <ele>955.2</ele>
        <time>2022-05-23 04:54:22</time>
      </trkpt>
      <trkpt lat="42.39385" lon="0.76512">
        <ele>955.2</ele>
        <time>2022-05-23 04:54:23</time>
      </trkpt>
      <trkpt lat="42.39383" lon="0.76515">
        <ele>955.4</ele>
        <time>2022-05-23 04:54:24</time>
      </trkpt>
      <trkpt lat="42.39381" lon="0.76519">
        <ele>955.4</ele>
        <time>2022-05-23 04:54:25</time>
      </trkpt>
      <trkpt lat="42.39381" lon="0.76523">
        <ele>955.4</ele>
        <time>2022-05-23 04:54:26</time>
      </trkpt>
      <trkpt lat="42.39379" lon="0.76528">
        <ele>955.6</ele>
        <time>2022-05-23 04:54:27</time>
      </trkpt>
      <trkpt lat="42.39378" lon="0.76532">
        <ele>955.6</ele>
        <time>2022-05-23 04:54:28</time>
      </trkpt>
      <trkpt lat="42.39377" lon="0.76536">
        <ele>955.6</ele>
        <time>2022-05-23 04:54:29</time>
      </trkpt>
      <trkpt lat="42.39376" lon="0.76541">
        <ele>955.8</ele>
        <time>2022-05-23 04:54:30</time>
      </trkpt>
      <trkpt lat="42.39375" lon="0.76546">
        <ele>955.8</ele>
        <time>2022-05-23 04:54:31</time>
      </trkpt>
      <trkpt lat="42.39374" lon="0.7655">
        <ele>955.8</ele>
        <time>2022-05-23 04:54:32</time>
      </trkpt>
      <trkpt lat="42.39373" lon="0.76555">
        <ele>956</ele>
        <time>2022-05-23 04:54:33</time>
      </trkpt>
      <trkpt lat="42.39373" lon="0.7656">
        <ele>956</ele>
        <time>2022-05-23 04:54:34</time>
      </trkpt>
      <trkpt lat="42.39373" lon="0.76565">
        <ele>956</ele>
        <time>2022-05-23 04:54:35</time>
      </trkpt>
      <trkpt lat="42.39372" lon="0.76571">
        <ele>956</ele>
        <time>2022-05-23 04:54:36</time>
      </trkpt>
      <trkpt lat="42.39372" lon="0.76575">
        <ele>956.2</ele>
        <time>2022-05-23 04:54:37</time>
      </trkpt>
      <trkpt lat="42.39372" lon="0.76579">
        <ele>956.2</ele>
        <time>2022-05-23 04:54:38</time>
      </trkpt>
      <trkpt lat="42.39373" lon="0.76583">
        <ele>956.2</ele>
        <time>2022-05-23 04:54:39</time>
      </trkpt>
      <trkpt lat="42.39373" lon="0.76587">
        <ele>956.4</ele>
        <time>2022-05-23 04:54:40</time>
      </trkpt>
      <trkpt lat="42.39373" lon="0.76591">
        <ele>956.4</ele>
        <time>2022-05-23 04:54:41</time>
      </trkpt>
      <trkpt lat="42.39373" lon="0.76596">
        <ele>956.6</ele>
        <time>2022-05-23 04:54:42</time>
      </trkpt>
      <trkpt lat="42.39374" lon="0.766">
        <ele>956.6</ele>
        <time>2022-05-23 04:54:43</time>
      </trkpt>
      <trkpt lat="42.39375" lon="0.76604">
        <ele>956.8</ele>
        <time>2022-05-23 04:54:44</time>
      </trkpt>
      <trkpt lat="42.39375" lon="0.76607">
        <ele>956.8</ele>
        <time>2022-05-23 04:54:45</time>
      </trkpt>
      <trkpt lat="42.39375" lon="0.76611">
        <ele>956.8</ele>
        <time>2022-05-23 04:54:46</time>
      </trkpt>
      <trkpt lat="42.39375" lon="0.76615">
        <ele>957</ele>
        <time>2022-05-23 04:54:47</time>
      </trkpt>
      <trkpt lat="42.39375" lon="0.76619">
        <ele>957</ele>
        <time>2022-05-23 04:54:48</time>
      </trkpt>
      <trkpt lat="42.39375" lon="0.76622">
        <ele>957.2</ele>
        <time>2022-05-23 04:54:49</time>
      </trkpt>
      <trkpt lat="42.39376" lon="0.76627">
        <ele>957.2</ele>
        <time>2022-05-23 04:54:50</time>
      </trkpt>
      <trkpt lat="42.39376" lon="0.76632">
        <ele>957.2</ele>
        <time>2022-05-23 04:54:51</time>
      </trkpt>
      <trkpt lat="42.39377" lon="0.76636">
        <ele>957.4</ele>
        <time>2022-05-23 04:54:52</time>
      </trkpt>
      <trkpt lat="42.39378" lon="0.7664">
        <ele>957.4</ele>
        <time>2022-05-23 04:54:53</time>
      </trkpt>
      <trkpt lat="42.39379" lon="0.76644">
        <ele>957.6</ele>
        <time>2022-05-23 04:54:54</time>
      </trkpt>
      <trkpt lat="42.39378" lon="0.76648">
        <ele>957.6</ele>
        <time>2022-05-23 04:54:55</time>
      </trkpt>
      <trkpt lat="42.39378" lon="0.76653">
        <ele>957.8</ele>
        <time>2022-05-23 04:54:56</time>
      </trkpt>
      <trkpt lat="42.39376" lon="0.76657">
        <ele>957.8</ele>
        <time>2022-05-23 04:54:57</time>
      </trkpt>
      <trkpt lat="42.39374" lon="0.76661">
        <ele>957.8</ele>
        <time>2022-05-23 04:54:58</time>
      </trkpt>
      <trkpt lat="42.39373" lon="0.76666">
        <ele>958</ele>
        <time>2022-05-23 04:54:59</time>
      </trkpt>
      <trkpt lat="42.39371" lon="0.7667">
        <ele>958</ele>
        <time>2022-05-23 04:55:00</time>
      </trkpt>
      <trkpt lat="42.3937" lon="0.76675">
        <ele>958</ele>
        <time>2022-05-23 04:55:01</time>
      </trkpt>
      <trkpt lat="42.39369" lon="0.76681">
        <ele>958.2</ele>
        <time>2022-05-23 04:55:02</time>
      </trkpt>
      <trkpt lat="42.39368" lon="0.76686">
        <ele>958.2</ele>
        <time>2022-05-23 04:55:03</time>
      </trkpt>
      <trkpt lat="42.39366" lon="0.76692">
        <ele>958.2</ele>
        <time>2022-05-23 04:55:04</time>
      </trkpt>
      <trkpt lat="42.39364" lon="0.76696">
        <ele>958.4</ele>
        <time>2022-05-23 04:55:05</time>
      </trkpt>
      <trkpt lat="42.39363" lon="0.767">
        <ele>958.4</ele>
        <time>2022-05-23 04:55:06</time>
      </trkpt>
      <trkpt lat="42.39362" lon="0.76704">
        <ele>958.4</ele>
        <time>2022-05-23 04:55:07</time>
      </trkpt>
      <trkpt lat="42.39361" lon="0.76708">
        <ele>958.6</ele>
        <time>2022-05-23 04:55:08</time>
      </trkpt>
      <trkpt lat="42.3936" lon="0.76712">
        <ele>958.6</ele>
        <time>2022-05-23 04:55:09</time>
      </trkpt>
      <trkpt lat="42.39359" lon="0.76718">
        <ele>958.6</ele>
        <time>2022-05-23 04:55:10</time>
      </trkpt>
      <trkpt lat="42.39359" lon="0.76722">
        <ele>958.8</ele>
        <time>2022-05-23 04:55:11</time>
      </trkpt>
      <trkpt lat="42.39359" lon="0.76726">
        <ele>958.8</ele>
        <time>2022-05-23 04:55:12</time>
      </trkpt>
      <trkpt lat="42.39359" lon="0.76729">
        <ele>959</ele>
        <time>2022-05-23 04:55:13</time>
      </trkpt>
      <trkpt lat="42.3936" lon="0.76734">
        <ele>959.2</ele>
        <time>2022-05-23 04:55:14</time>
      </trkpt>
      <trkpt lat="42.39361" lon="0.76739">
        <ele>959.2</ele>
        <time>2022-05-23 04:55:15</time>
      </trkpt>
      <trkpt lat="42.39362" lon="0.76742">
        <ele>959.4</ele>
        <time>2022-05-23 04:55:16</time>
      </trkpt>
      <trkpt lat="42.39362" lon="0.76746">
        <ele>959.6</ele>
        <time>2022-05-23 04:55:17</time>
      </trkpt>
      <trkpt lat="42.39363" lon="0.7675">
        <ele>959.6</ele>
        <time>2022-05-23 04:55:18</time>
      </trkpt>
      <trkpt lat="42.39365" lon="0.76755">
        <ele>959.8</ele>
        <time>2022-05-23 04:55:19</time>
      </trkpt>
      <trkpt lat="42.39367" lon="0.76761">
        <ele>959.8</ele>
        <time>2022-05-23 04:55:20</time>
      </trkpt>
      <trkpt lat="42.39369" lon="0.76766">
        <ele>960</ele>
        <time>2022-05-23 04:55:21</time>
      </trkpt>
      <trkpt lat="42.39371" lon="0.7677">
        <ele>960.2</ele>
        <time>2022-05-23 04:55:22</time>
      </trkpt>
      <trkpt lat="42.39374" lon="0.76773">
        <ele>960.2</ele>
        <time>2022-05-23 04:55:23</time>
      </trkpt>
      <trkpt lat="42.39377" lon="0.76778">
        <ele>960.4</ele>
        <time>2022-05-23 04:55:24</time>
      </trkpt>
      <trkpt lat="42.3938" lon="0.76781">
        <ele>960.4</ele>
        <time>2022-05-23 04:55:25</time>
      </trkpt>
      <trkpt lat="42.39383" lon="0.76786">
        <ele>960.6</ele>
        <time>2022-05-23 04:55:26</time>
      </trkpt>
      <trkpt lat="42.39385" lon="0.7679">
        <ele>960.6</ele>
        <time>2022-05-23 04:55:27</time>
      </trkpt>
      <trkpt lat="42.39388" lon="0.76793">
        <ele>960.8</ele>
        <time>2022-05-23 04:55:28</time>
      </trkpt>
      <trkpt lat="42.39389" lon="0.76797">
        <ele>961</ele>
        <time>2022-05-23 04:55:29</time>
      </trkpt>
      <trkpt lat="42.39391" lon="0.76801">
        <ele>961.2</ele>
        <time>2022-05-23 04:55:30</time>
      </trkpt>
      <trkpt lat="42.39392" lon="0.76805">
        <ele>961.4</ele>
        <time>2022-05-23 04:55:31</time>
      </trkpt>
      <trkpt lat="42.39392" lon="0.7681">
        <ele>961.6</ele>
        <time>2022-05-23 04:55:32</time>
      </trkpt>
      <trkpt lat="42.39393" lon="0.76815">
        <ele>961.6</ele>
        <time>2022-05-23 04:55:33</time>
      </trkpt>
      <trkpt lat="42.39393" lon="0.7682">
        <ele>961.8</ele>
        <time>2022-05-23 04:55:34</time>
      </trkpt>
      <trkpt lat="42.39393" lon="0.76824">
        <ele>962</ele>
        <time>2022-05-23 04:55:35</time>
      </trkpt>
      <trkpt lat="42.39393" lon="0.76829">
        <ele>962.2</ele>
        <time>2022-05-23 04:55:36</time>
      </trkpt>
      <trkpt lat="42.39393" lon="0.76834">
        <ele>962.4</ele>
        <time>2022-05-23 04:55:37</time>
      </trkpt>
      <trkpt lat="42.39393" lon="0.76839">
        <ele>962.4</ele>
        <time>2022-05-23 04:55:38</time>
      </trkpt>
      <trkpt lat="42.39391" lon="0.76844">
        <ele>962.6</ele>
        <time>2022-05-23 04:55:39</time>
      </trkpt>
      <trkpt lat="42.3939" lon="0.76849">
        <ele>962.8</ele>
        <time>2022-05-23 04:55:40</time>
      </trkpt>
      <trkpt lat="42.39389" lon="0.76854">
        <ele>963</ele>
        <time>2022-05-23 04:55:41</time>
      </trkpt>
      <trkpt lat="42.39388" lon="0.76859">
        <ele>963</ele>
        <time>2022-05-23 04:55:42</time>
      </trkpt>
      <trkpt lat="42.39387" lon="0.76863">
        <ele>963.2</ele>
        <time>2022-05-23 04:55:43</time>
      </trkpt>
      <trkpt lat="42.39387" lon="0.76868">
        <ele>963.4</ele>
        <time>2022-05-23 04:55:44</time>
      </trkpt>
      <trkpt lat="42.39386" lon="0.76872">
        <ele>963.6</ele>
        <time>2022-05-23 04:55:45</time>
      </trkpt>
      <trkpt lat="42.39385" lon="0.76877">
        <ele>963.8</ele>
        <time>2022-05-23 04:55:46</time>
      </trkpt>
      <trkpt lat="42.39384" lon="0.76881">
        <ele>964</ele>
        <time>2022-05-23 04:55:47</time>
      </trkpt>
      <trkpt lat="42.39383" lon="0.76885">
        <ele>964.2</ele>
        <time>2022-05-23 04:55:48</time>
      </trkpt>
      <trkpt lat="42.39383" lon="0.76889">
        <ele>964.4</ele>
        <time>2022-05-23 04:55:49</time>
      </trkpt>
      <trkpt lat="42.39382" lon="0.76894">
        <ele>964.4</ele>
        <time>2022-05-23 04:55:50</time>
      </trkpt>
      <trkpt lat="42.39381" lon="0.76898">
        <ele>964.6</ele>
        <time>2022-05-23 04:55:51</time>
      </trkpt>
      <trkpt lat="42.39379" lon="0.76902">
        <ele>964.8</ele>
        <time>2022-05-23 04:55:52</time>
      </trkpt>
      <trkpt lat="42.39378" lon="0.76906">
        <ele>964.8</ele>
        <time>2022-05-23 04:55:53</time>
      </trkpt>
      <trkpt lat="42.39378" lon="0.7691">
        <ele>965</ele>
        <time>2022-05-23 04:55:54</time>
      </trkpt>
      <trkpt lat="42.39377" lon="0.76913">
        <ele>965.2</ele>
        <time>2022-05-23 04:55:55</time>
      </trkpt>
      <trkpt lat="42.39375" lon="0.76917">
        <ele>965.4</ele>
        <time>2022-05-23 04:55:56</time>
      </trkpt>
      <trkpt lat="42.39375" lon="0.76921">
        <ele>965.4</ele>
        <time>2022-05-23 04:55:57</time>
      </trkpt>
      <trkpt lat="42.39375" lon="0.76924">
        <ele>965.6</ele>
        <time>2022-05-23 04:55:58</time>
      </trkpt>
      <trkpt lat="42.39374" lon="0.76928">
        <ele>965.8</ele>
        <time>2022-05-23 04:55:59</time>
      </trkpt>
      <trkpt lat="42.39371" lon="0.7693">
        <ele>966</ele>
        <time>2022-05-23 04:56:00</time>
      </trkpt>
      <trkpt lat="42.3937" lon="0.76934">
        <ele>966</ele>
        <time>2022-05-23 04:56:01</time>
      </trkpt>
      <trkpt lat="42.3937" lon="0.76937">
        <ele>966.2</ele>
        <time>2022-05-23 04:56:02</time>
      </trkpt>
      <trkpt lat="42.39369" lon="0.7694">
        <ele>966.4</ele>
        <time>2022-05-23 04:56:03</time>
      </trkpt>
      <trkpt lat="42.39368" lon="0.76943">
        <ele>966.4</ele>
        <time>2022-05-23 04:56:04</time>
      </trkpt>
      <trkpt lat="42.39366" lon="0.76947">
        <ele>966.6</ele>
        <time>2022-05-23 04:56:05</time>
      </trkpt>
      <trkpt lat="42.39366" lon="0.76951">
        <ele>966.6</ele>
        <time>2022-05-23 04:56:06</time>
      </trkpt>
      <trkpt lat="42.39364" lon="0.76954">
        <ele>966.8</ele>
        <time>2022-05-23 04:56:07</time>
      </trkpt>
      <trkpt lat="42.39363" lon="0.76959">
        <ele>966.8</ele>
        <time>2022-05-23 04:56:08</time>
      </trkpt>
      <trkpt lat="42.39364" lon="0.76963">
        <ele>967</ele>
        <time>2022-05-23 04:56:09</time>
      </trkpt>
      <trkpt lat="42.39364" lon="0.76967">
        <ele>967</ele>
        <time>2022-05-23 04:56:10</time>
      </trkpt>
      <trkpt lat="42.39365" lon="0.76972">
        <ele>967</ele>
        <time>2022-05-23 04:56:11</time>
      </trkpt>
      <trkpt lat="42.39367" lon="0.76977">
        <ele>967.2</ele>
        <time>2022-05-23 04:56:12</time>
      </trkpt>
      <trkpt lat="42.39369" lon="0.76982">
        <ele>967.2</ele>
        <time>2022-05-23 04:56:13</time>
      </trkpt>
      <trkpt lat="42.3937" lon="0.76986">
        <ele>967.2</ele>
        <time>2022-05-23 04:56:14</time>
      </trkpt>
      <trkpt lat="42.39372" lon="0.7699">
        <ele>967.4</ele>
        <time>2022-05-23 04:56:15</time>
      </trkpt>
      <trkpt lat="42.39374" lon="0.76994">
        <ele>967.4</ele>
        <time>2022-05-23 04:56:16</time>
      </trkpt>
      <trkpt lat="42.39376" lon="0.76997">
        <ele>967.4</ele>
        <time>2022-05-23 04:56:17</time>
      </trkpt>
      <trkpt lat="42.39378" lon="0.77">
        <ele>967.6</ele>
        <time>2022-05-23 04:56:18</time>
      </trkpt>
      <trkpt lat="42.39381" lon="0.77003">
        <ele>967.6</ele>
        <time>2022-05-23 04:56:19</time>
      </trkpt>
      <trkpt lat="42.39383" lon="0.77005">
        <ele>967.6</ele>
        <time>2022-05-23 04:56:20</time>
      </trkpt>
      <trkpt lat="42.39385" lon="0.77009">
        <ele>967.8</ele>
        <time>2022-05-23 04:56:21</time>
      </trkpt>
      <trkpt lat="42.39387" lon="0.77013">
        <ele>967.8</ele>
        <time>2022-05-23 04:56:22</time>
      </trkpt>
      <trkpt lat="42.3939" lon="0.77017">
        <ele>967.8</ele>
        <time>2022-05-23 04:56:23</time>
      </trkpt>
      <trkpt lat="42.39391" lon="0.77021">
        <ele>967.8</ele>
        <time>2022-05-23 04:56:24</time>
      </trkpt>
      <trkpt lat="42.39393" lon="0.77024">
        <ele>967.8</ele>
        <time>2022-05-23 04:56:25</time>
      </trkpt>
      <trkpt lat="42.39396" lon="0.77028">
        <ele>967.8</ele>
        <time>2022-05-23 04:56:26</time>
      </trkpt>
      <trkpt lat="42.39398" lon="0.77032">
        <ele>967.8</ele>
        <time>2022-05-23 04:56:27</time>
      </trkpt>
      <trkpt lat="42.39399" lon="0.77036">
        <ele>968</ele>
        <time>2022-05-23 04:56:28</time>
      </trkpt>
      <trkpt lat="42.39401" lon="0.77039">
        <ele>968</ele>
        <time>2022-05-23 04:56:29</time>
      </trkpt>
      <trkpt lat="42.39402" lon="0.77043">
        <ele>968</ele>
        <time>2022-05-23 04:56:30</time>
      </trkpt>
      <trkpt lat="42.39403" lon="0.77047">
        <ele>968.2</ele>
        <time>2022-05-23 04:56:31</time>
      </trkpt>
      <trkpt lat="42.39405" lon="0.77051">
        <ele>968.2</ele>
        <time>2022-05-23 04:56:32</time>
      </trkpt>
      <trkpt lat="42.39405" lon="0.77055">
        <ele>968.2</ele>
        <time>2022-05-23 04:56:33</time>
      </trkpt>
      <trkpt lat="42.39406" lon="0.7706">
        <ele>968.4</ele>
        <time>2022-05-23 04:56:34</time>
      </trkpt>
      <trkpt lat="42.39407" lon="0.77064">
        <ele>968.4</ele>
        <time>2022-05-23 04:56:35</time>
      </trkpt>
      <trkpt lat="42.39409" lon="0.77069">
        <ele>968.6</ele>
        <time>2022-05-23 04:56:36</time>
      </trkpt>
      <trkpt lat="42.3941" lon="0.77073">
        <ele>968.6</ele>
        <time>2022-05-23 04:56:37</time>
      </trkpt>
      <trkpt lat="42.3941" lon="0.77077">
        <ele>968.8</ele>
        <time>2022-05-23 04:56:38</time>
      </trkpt>
      <trkpt lat="42.3941" lon="0.77082">
        <ele>968.8</ele>
        <time>2022-05-23 04:56:39</time>
      </trkpt>
      <trkpt lat="42.3941" lon="0.77086">
        <ele>968.8</ele>
        <time>2022-05-23 04:56:40</time>
      </trkpt>
      <trkpt lat="42.3941" lon="0.7709">
        <ele>969</ele>
        <time>2022-05-23 04:56:41</time>
      </trkpt>
      <trkpt lat="42.3941" lon="0.77095">
        <ele>969</ele>
        <time>2022-05-23 04:56:42</time>
      </trkpt>
      <trkpt lat="42.39409" lon="0.77099">
        <ele>969.2</ele>
        <time>2022-05-23 04:56:43</time>
      </trkpt>
      <trkpt lat="42.39408" lon="0.77103">
        <ele>969.2</ele>
        <time>2022-05-23 04:56:44</time>
      </trkpt>
      <trkpt lat="42.39407" lon="0.77107">
        <ele>969.4</ele>
        <time>2022-05-23 04:56:45</time>
      </trkpt>
      <trkpt lat="42.39407" lon="0.77111">
        <ele>969.4</ele>
        <time>2022-05-23 04:56:46</time>
      </trkpt>
      <trkpt lat="42.39407" lon="0.77115">
        <ele>969.6</ele>
        <time>2022-05-23 04:56:47</time>
      </trkpt>
      <trkpt lat="42.39407" lon="0.77119">
        <ele>969.6</ele>
        <time>2022-05-23 04:56:48</time>
      </trkpt>
      <trkpt lat="42.39408" lon="0.77123">
        <ele>969.8</ele>
        <time>2022-05-23 04:56:49</time>
      </trkpt>
      <trkpt lat="42.39407" lon="0.77127">
        <ele>969.8</ele>
        <time>2022-05-23 04:56:50</time>
      </trkpt>
      <trkpt lat="42.39408" lon="0.77131">
        <ele>970</ele>
        <time>2022-05-23 04:56:51</time>
      </trkpt>
      <trkpt lat="42.39409" lon="0.77134">
        <ele>970</ele>
        <time>2022-05-23 04:56:52</time>
      </trkpt>
      <trkpt lat="42.39409" lon="0.77139">
        <ele>970</ele>
        <time>2022-05-23 04:56:53</time>
      </trkpt>
      <trkpt lat="42.39409" lon="0.77143">
        <ele>970.2</ele>
        <time>2022-05-23 04:56:54</time>
      </trkpt>
      <trkpt lat="42.3941" lon="0.77146">
        <ele>970.2</ele>
        <time>2022-05-23 04:56:55</time>
      </trkpt>
      <trkpt lat="42.39412" lon="0.7715">
        <ele>970.4</ele>
        <time>2022-05-23 04:56:56</time>
      </trkpt>
      <trkpt lat="42.39413" lon="0.77153">
        <ele>970.4</ele>
        <time>2022-05-23 04:56:57</time>
      </trkpt>
      <trkpt lat="42.39414" lon="0.77157">
        <ele>970.4</ele>
        <time>2022-05-23 04:56:58</time>
      </trkpt>
      <trkpt lat="42.39415" lon="0.77162">
        <ele>970.6</ele>
        <time>2022-05-23 04:56:59</time>
      </trkpt>
      <trkpt lat="42.39415" lon="0.77167">
        <ele>970.6</ele>
        <time>2022-05-23 04:57:00</time>
      </trkpt>
      <trkpt lat="42.39417" lon="0.7717">
        <ele>970.8</ele>
        <time>2022-05-23 04:57:01</time>
      </trkpt>
      <trkpt lat="42.39418" lon="0.77173">
        <ele>970.8</ele>
        <time>2022-05-23 04:57:02</time>
      </trkpt>
      <trkpt lat="42.3942" lon="0.77177">
        <ele>971</ele>
        <time>2022-05-23 04:57:03</time>
      </trkpt>
      <trkpt lat="42.39422" lon="0.7718">
        <ele>971</ele>
        <time>2022-05-23 04:57:04</time>
      </trkpt>
      <trkpt lat="42.39423" lon="0.77184">
        <ele>971.2</ele>
        <time>2022-05-23 04:57:05</time>
      </trkpt>
      <trkpt lat="42.39425" lon="0.77187">
        <ele>971.2</ele>
        <time>2022-05-23 04:57:06</time>
      </trkpt>
      <trkpt lat="42.39427" lon="0.7719">
        <ele>971.4</ele>
        <time>2022-05-23 04:57:07</time>
      </trkpt>
      <trkpt lat="42.39428" lon="0.77194">
        <ele>971.4</ele>
        <time>2022-05-23 04:57:08</time>
      </trkpt>
      <trkpt lat="42.3943" lon="0.77198">
        <ele>971.6</ele>
        <time>2022-05-23 04:57:09</time>
      </trkpt>
      <trkpt lat="42.39431" lon="0.77202">
        <ele>971.6</ele>
        <time>2022-05-23 04:57:10</time>
      </trkpt>
      <trkpt lat="42.39432" lon="0.77205">
        <ele>971.8</ele>
        <time>2022-05-23 04:57:11</time>
      </trkpt>
      <trkpt lat="42.39432" lon="0.77208">
        <ele>971.8</ele>
        <time>2022-05-23 04:57:12</time>
      </trkpt>
      <trkpt lat="42.39434" lon="0.77212">
        <ele>972</ele>
        <time>2022-05-23 04:57:13</time>
      </trkpt>
      <trkpt lat="42.39434" lon="0.77215">
        <ele>972</ele>
        <time>2022-05-23 04:57:14</time>
      </trkpt>
      <trkpt lat="42.39435" lon="0.77219">
        <ele>972</ele>
        <time>2022-05-23 04:57:15</time>
      </trkpt>
      <trkpt lat="42.39436" lon="0.77223">
        <ele>972.2</ele>
        <time>2022-05-23 04:57:16</time>
      </trkpt>
      <trkpt lat="42.39437" lon="0.77228">
        <ele>972.2</ele>
        <time>2022-05-23 04:57:17</time>
      </trkpt>
      <trkpt lat="42.39438" lon="0.77232">
        <ele>972.2</ele>
        <time>2022-05-23 04:57:18</time>
      </trkpt>
      <trkpt lat="42.39439" lon="0.77237">
        <ele>972.2</ele>
        <time>2022-05-23 04:57:19</time>
      </trkpt>
      <trkpt lat="42.3944" lon="0.77242">
        <ele>972.4</ele>
        <time>2022-05-23 04:57:20</time>
      </trkpt>
      <trkpt lat="42.39441" lon="0.77248">
        <ele>972.4</ele>
        <time>2022-05-23 04:57:21</time>
      </trkpt>
      <trkpt lat="42.39443" lon="0.77253">
        <ele>972.4</ele>
        <time>2022-05-23 04:57:22</time>
      </trkpt>
      <trkpt lat="42.39444" lon="0.77257">
        <ele>972.6</ele>
        <time>2022-05-23 04:57:23</time>
      </trkpt>
      <trkpt lat="42.39446" lon="0.77262">
        <ele>972.8</ele>
        <time>2022-05-23 04:57:24</time>
      </trkpt>
      <trkpt lat="42.39446" lon="0.77266">
        <ele>972.8</ele>
        <time>2022-05-23 04:57:25</time>
      </trkpt>
      <trkpt lat="42.39447" lon="0.7727">
        <ele>973</ele>
        <time>2022-05-23 04:57:26</time>
      </trkpt>
      <trkpt lat="42.39447" lon="0.77274">
        <ele>973.2</ele>
        <time>2022-05-23 04:57:27</time>
      </trkpt>
      <trkpt lat="42.39448" lon="0.77278">
        <ele>973.4</ele>
        <time>2022-05-23 04:57:28</time>
      </trkpt>
      <trkpt lat="42.39448" lon="0.77283">
        <ele>973.4</ele>
        <time>2022-05-23 04:57:29</time>
      </trkpt>
      <trkpt lat="42.39449" lon="0.77287">
        <ele>973.6</ele>
        <time>2022-05-23 04:57:30</time>
      </trkpt>
      <trkpt lat="42.3945" lon="0.77291">
        <ele>973.8</ele>
        <time>2022-05-23 04:57:31</time>
      </trkpt>
      <trkpt lat="42.39451" lon="0.77295">
        <ele>973.8</ele>
        <time>2022-05-23 04:57:32</time>
      </trkpt>
      <trkpt lat="42.39451" lon="0.77298">
        <ele>974</ele>
        <time>2022-05-23 04:57:33</time>
      </trkpt>
      <trkpt lat="42.39452" lon="0.77302">
        <ele>974.2</ele>
        <time>2022-05-23 04:57:34</time>
      </trkpt>
      <trkpt lat="42.39452" lon="0.77305">
        <ele>974.4</ele>
        <time>2022-05-23 04:57:35</time>
      </trkpt>
      <trkpt lat="42.39453" lon="0.77308">
        <ele>974.4</ele>
        <time>2022-05-23 04:57:36</time>
      </trkpt>
      <trkpt lat="42.39453" lon="0.77311">
        <ele>974.6</ele>
        <time>2022-05-23 04:57:37</time>
      </trkpt>
      <trkpt lat="42.39454" lon="0.77314">
        <ele>974.8</ele>
        <time>2022-05-23 04:57:38</time>
      </trkpt>
      <trkpt lat="42.39455" lon="0.77317">
        <ele>975</ele>
        <time>2022-05-23 04:57:39</time>
      </trkpt>
      <trkpt lat="42.39456" lon="0.77319">
        <ele>975</ele>
        <time>2022-05-23 04:57:40</time>
      </trkpt>
      <trkpt lat="42.39457" lon="0.77322">
        <ele>975.2</ele>
        <time>2022-05-23 04:57:41</time>
      </trkpt>
      <trkpt lat="42.39457" lon="0.77325">
        <ele>975.4</ele>
        <time>2022-05-23 04:57:42</time>
      </trkpt>
      <trkpt lat="42.39458" lon="0.77328">
        <ele>975.4</ele>
        <time>2022-05-23 04:57:43</time>
      </trkpt>
      <trkpt lat="42.39459" lon="0.77331">
        <ele>975.6</ele>
        <time>2022-05-23 04:57:44</time>
      </trkpt>
      <trkpt lat="42.39459" lon="0.77334">
        <ele>975.6</ele>
        <time>2022-05-23 04:57:45</time>
      </trkpt>
      <trkpt lat="42.3946" lon="0.77336">
        <ele>975.8</ele>
        <time>2022-05-23 04:57:46</time>
      </trkpt>
      <trkpt lat="42.3946" lon="0.77341">
        <ele>976</ele>
        <time>2022-05-23 04:57:47</time>
      </trkpt>
      <trkpt lat="42.39461" lon="0.77343">
        <ele>976.2</ele>
        <time>2022-05-23 04:57:48</time>
      </trkpt>
      <trkpt lat="42.39462" lon="0.77346">
        <ele>976.2</ele>
        <time>2022-05-23 04:57:49</time>
      </trkpt>
      <trkpt lat="42.39462" lon="0.77349">
        <ele>976.4</ele>
        <time>2022-05-23 04:57:50</time>
      </trkpt>
      <trkpt lat="42.39463" lon="0.77353">
        <ele>976.6</ele>
        <time>2022-05-23 04:57:51</time>
      </trkpt>
      <trkpt lat="42.39463" lon="0.77357">
        <ele>976.6</ele>
        <time>2022-05-23 04:57:52</time>
      </trkpt>
      <trkpt lat="42.39463" lon="0.7736">
        <ele>976.8</ele>
        <time>2022-05-23 04:57:53</time>
      </trkpt>
      <trkpt lat="42.39463" lon="0.77363">
        <ele>976.8</ele>
        <time>2022-05-23 04:57:54</time>
      </trkpt>
      <trkpt lat="42.39463" lon="0.77366">
        <ele>977</ele>
        <time>2022-05-23 04:57:55</time>
      </trkpt>
      <trkpt lat="42.39462" lon="0.7737">
        <ele>977.2</ele>
        <time>2022-05-23 04:57:56</time>
      </trkpt>
      <trkpt lat="42.39462" lon="0.77373">
        <ele>977.2</ele>
        <time>2022-05-23 04:57:57</time>
      </trkpt>
      <trkpt lat="42.39461" lon="0.77377">
        <ele>977.4</ele>
        <time>2022-05-23 04:57:58</time>
      </trkpt>
      <trkpt lat="42.3946" lon="0.7738">
        <ele>977.6</ele>
        <time>2022-05-23 04:57:59</time>
      </trkpt>
      <trkpt lat="42.3946" lon="0.77383">
        <ele>977.6</ele>
        <time>2022-05-23 04:58:00</time>
      </trkpt>
      <trkpt lat="42.39459" lon="0.77386">
        <ele>977.8</ele>
        <time>2022-05-23 04:58:01</time>
      </trkpt>
      <trkpt lat="42.39458" lon="0.7739">
        <ele>977.8</ele>
        <time>2022-05-23 04:58:02</time>
      </trkpt>
      <trkpt lat="42.39457" lon="0.77393">
        <ele>978</ele>
        <time>2022-05-23 04:58:03</time>
      </trkpt>
      <trkpt lat="42.39457" lon="0.77396">
        <ele>978</ele>
        <time>2022-05-23 04:58:04</time>
      </trkpt>
      <trkpt lat="42.39455" lon="0.77399">
        <ele>978.2</ele>
        <time>2022-05-23 04:58:05</time>
      </trkpt>
      <trkpt lat="42.39455" lon="0.77402">
        <ele>978.4</ele>
        <time>2022-05-23 04:58:06</time>
      </trkpt>
      <trkpt lat="42.39455" lon="0.77406">
        <ele>978.4</ele>
        <time>2022-05-23 04:58:07</time>
      </trkpt>
      <trkpt lat="42.39454" lon="0.77409">
        <ele>978.6</ele>
        <time>2022-05-23 04:58:08</time>
      </trkpt>
      <trkpt lat="42.39453" lon="0.77412">
        <ele>978.8</ele>
        <time>2022-05-23 04:58:09</time>
      </trkpt>
      <trkpt lat="42.39452" lon="0.77416">
        <ele>978.8</ele>
        <time>2022-05-23 04:58:10</time>
      </trkpt>
      <trkpt lat="42.39452" lon="0.77419">
        <ele>979</ele>
        <time>2022-05-23 04:58:11</time>
      </trkpt>
      <trkpt lat="42.39451" lon="0.77422">
        <ele>979</ele>
        <time>2022-05-23 04:58:12</time>
      </trkpt>
      <trkpt lat="42.3945" lon="0.77425">
        <ele>979.2</ele>
        <time>2022-05-23 04:58:13</time>
      </trkpt>
      <trkpt lat="42.39449" lon="0.77428">
        <ele>979.4</ele>
        <time>2022-05-23 04:58:14</time>
      </trkpt>
      <trkpt lat="42.39448" lon="0.7743">
        <ele>979.4</ele>
        <time>2022-05-23 04:58:15</time>
      </trkpt>
      <trkpt lat="42.39447" lon="0.77433">
        <ele>979.6</ele>
        <time>2022-05-23 04:58:16</time>
      </trkpt>
      <trkpt lat="42.39446" lon="0.77436">
        <ele>979.6</ele>
        <time>2022-05-23 04:58:17</time>
      </trkpt>
      <trkpt lat="42.39445" lon="0.77438">
        <ele>979.8</ele>
        <time>2022-05-23 04:58:18</time>
      </trkpt>
      <trkpt lat="42.39445" lon="0.77441">
        <ele>980</ele>
        <time>2022-05-23 04:58:19</time>
      </trkpt>
      <trkpt lat="42.39444" lon="0.77444">
        <ele>980</ele>
        <time>2022-05-23 04:58:20</time>
      </trkpt>
      <trkpt lat="42.39444" lon="0.77447">
        <ele>980.2</ele>
        <time>2022-05-23 04:58:21</time>
      </trkpt>
      <trkpt lat="42.39443" lon="0.7745">
        <ele>980.4</ele>
        <time>2022-05-23 04:58:22</time>
      </trkpt>
      <trkpt lat="42.39442" lon="0.77453">
        <ele>980.4</ele>
        <time>2022-05-23 04:58:23</time>
      </trkpt>
      <trkpt lat="42.39441" lon="0.77456">
        <ele>980.6</ele>
        <time>2022-05-23 04:58:24</time>
      </trkpt>
      <trkpt lat="42.39441" lon="0.77458">
        <ele>980.6</ele>
        <time>2022-05-23 04:58:25</time>
      </trkpt>
      <trkpt lat="42.3944" lon="0.77461">
        <ele>980.8</ele>
        <time>2022-05-23 04:58:26</time>
      </trkpt>
      <trkpt lat="42.3944" lon="0.77464">
        <ele>981</ele>
        <time>2022-05-23 04:58:27</time>
      </trkpt>
      <trkpt lat="42.39438" lon="0.77466">
        <ele>981</ele>
        <time>2022-05-23 04:58:28</time>
      </trkpt>
      <trkpt lat="42.39437" lon="0.77469">
        <ele>981.2</ele>
        <time>2022-05-23 04:58:29</time>
      </trkpt>
      <trkpt lat="42.39436" lon="0.77472">
        <ele>981.2</ele>
        <time>2022-05-23 04:58:30</time>
      </trkpt>
      <trkpt lat="42.39435" lon="0.77474">
        <ele>981.4</ele>
        <time>2022-05-23 04:58:31</time>
      </trkpt>
      <trkpt lat="42.39434" lon="0.77477">
        <ele>981.6</ele>
        <time>2022-05-23 04:58:32</time>
      </trkpt>
      <trkpt lat="42.39429" lon="0.77478">
        <ele>981.6</ele>
        <time>2022-05-23 04:58:33</time>
      </trkpt>
      <trkpt lat="42.39427" lon="0.7748">
        <ele>981.8</ele>
        <time>2022-05-23 04:58:34</time>
      </trkpt>
      <trkpt lat="42.39425" lon="0.77483">
        <ele>981.8</ele>
        <time>2022-05-23 04:58:35</time>
      </trkpt>
      <trkpt lat="42.39425" lon="0.77486">
        <ele>982</ele>
        <time>2022-05-23 04:58:36</time>
      </trkpt>
      <trkpt lat="42.39425" lon="0.77489">
        <ele>982</ele>
        <time>2022-05-23 04:58:37</time>
      </trkpt>
      <trkpt lat="42.39425" lon="0.77491">
        <ele>982.2</ele>
        <time>2022-05-23 04:58:38</time>
      </trkpt>
      <trkpt lat="42.39425" lon="0.77494">
        <ele>982.4</ele>
        <time>2022-05-23 04:58:39</time>
      </trkpt>
      <trkpt lat="42.39425" lon="0.77498">
        <ele>982.4</ele>
        <time>2022-05-23 04:58:40</time>
      </trkpt>
      <trkpt lat="42.39425" lon="0.77501">
        <ele>982.6</ele>
        <time>2022-05-23 04:58:41</time>
      </trkpt>
      <trkpt lat="42.39426" lon="0.77504">
        <ele>982.8</ele>
        <time>2022-05-23 04:58:42</time>
      </trkpt>
      <trkpt lat="42.39426" lon="0.77507">
        <ele>982.8</ele>
        <time>2022-05-23 04:58:43</time>
      </trkpt>
      <trkpt lat="42.39427" lon="0.77511">
        <ele>983</ele>
        <time>2022-05-23 04:58:44</time>
      </trkpt>
      <trkpt lat="42.39429" lon="0.77513">
        <ele>983.2</ele>
        <time>2022-05-23 04:58:45</time>
      </trkpt>
      <trkpt lat="42.3943" lon="0.77517">
        <ele>983.2</ele>
        <time>2022-05-23 04:58:46</time>
      </trkpt>
      <trkpt lat="42.39431" lon="0.77519">
        <ele>983.4</ele>
        <time>2022-05-23 04:58:47</time>
      </trkpt>
      <trkpt lat="42.39433" lon="0.77522">
        <ele>983.6</ele>
        <time>2022-05-23 04:58:48</time>
      </trkpt>
      <trkpt lat="42.39434" lon="0.77525">
        <ele>983.6</ele>
        <time>2022-05-23 04:58:49</time>
      </trkpt>
      <trkpt lat="42.39436" lon="0.77528">
        <ele>983.8</ele>
        <time>2022-05-23 04:58:50</time>
      </trkpt>
      <trkpt lat="42.39437" lon="0.7753">
        <ele>984</ele>
        <time>2022-05-23 04:58:51</time>
      </trkpt>
      <trkpt lat="42.39439" lon="0.77533">
        <ele>984.2</ele>
        <time>2022-05-23 04:58:52</time>
      </trkpt>
      <trkpt lat="42.39441" lon="0.77535">
        <ele>984.2</ele>
        <time>2022-05-23 04:58:53</time>
      </trkpt>
      <trkpt lat="42.39443" lon="0.77538">
        <ele>984.4</ele>
        <time>2022-05-23 04:58:54</time>
      </trkpt>
      <trkpt lat="42.39445" lon="0.7754">
        <ele>984.4</ele>
        <time>2022-05-23 04:58:55</time>
      </trkpt>
      <trkpt lat="42.39447" lon="0.77542">
        <ele>984.6</ele>
        <time>2022-05-23 04:58:56</time>
      </trkpt>
      <trkpt lat="42.39449" lon="0.77545">
        <ele>984.8</ele>
        <time>2022-05-23 04:58:57</time>
      </trkpt>
      <trkpt lat="42.3945" lon="0.77547">
        <ele>984.8</ele>
        <time>2022-05-23 04:58:58</time>
      </trkpt>
      <trkpt lat="42.39452" lon="0.77548">
        <ele>985</ele>
        <time>2022-05-23 04:58:59</time>
      </trkpt>
      <trkpt lat="42.39454" lon="0.7755">
        <ele>985</ele>
        <time>2022-05-23 04:59:00</time>
      </trkpt>
      <trkpt lat="42.39455" lon="0.77552">
        <ele>985.2</ele>
        <time>2022-05-23 04:59:01</time>
      </trkpt>
      <trkpt lat="42.39456" lon="0.77554">
        <ele>985.4</ele>
        <time>2022-05-23 04:59:02</time>
      </trkpt>
      <trkpt lat="42.39457" lon="0.77557">
        <ele>985.4</ele>
        <time>2022-05-23 04:59:03</time>
      </trkpt>
      <trkpt lat="42.39458" lon="0.7756">
        <ele>985.6</ele>
        <time>2022-05-23 04:59:04</time>
      </trkpt>
      <trkpt lat="42.39459" lon="0.77562">
        <ele>985.8</ele>
        <time>2022-05-23 04:59:05</time>
      </trkpt>
      <trkpt lat="42.3946" lon="0.77565">
        <ele>985.8</ele>
        <time>2022-05-23 04:59:06</time>
      </trkpt>
      <trkpt lat="42.39461" lon="0.77567">
        <ele>986</ele>
        <time>2022-05-23 04:59:07</time>
      </trkpt>
      <trkpt lat="42.39461" lon="0.7757">
        <ele>986.2</ele>
        <time>2022-05-23 04:59:08</time>
      </trkpt>
      <trkpt lat="42.39462" lon="0.77573">
        <ele>986.4</ele>
        <time>2022-05-23 04:59:09</time>
      </trkpt>
      <trkpt lat="42.39462" lon="0.77576">
        <ele>986.4</ele>
        <time>2022-05-23 04:59:10</time>
      </trkpt>
      <trkpt lat="42.39463" lon="0.77579">
        <ele>986.6</ele>
        <time>2022-05-23 04:59:11</time>
      </trkpt>
      <trkpt lat="42.39463" lon="0.77581">
        <ele>986.8</ele>
        <time>2022-05-23 04:59:12</time>
      </trkpt>
      <trkpt lat="42.39464" lon="0.77584">
        <ele>987</ele>
        <time>2022-05-23 04:59:13</time>
      </trkpt>
      <trkpt lat="42.39464" lon="0.77587">
        <ele>987</ele>
        <time>2022-05-23 04:59:14</time>
      </trkpt>
      <trkpt lat="42.39464" lon="0.77589">
        <ele>987.2</ele>
        <time>2022-05-23 04:59:15</time>
      </trkpt>
      <trkpt lat="42.39464" lon="0.77592">
        <ele>987.4</ele>
        <time>2022-05-23 04:59:16</time>
      </trkpt>
      <trkpt lat="42.39464" lon="0.77595">
        <ele>987.4</ele>
        <time>2022-05-23 04:59:17</time>
      </trkpt>
      <trkpt lat="42.39464" lon="0.77598">
        <ele>987.6</ele>
        <time>2022-05-23 04:59:18</time>
      </trkpt>
      <trkpt lat="42.39464" lon="0.77601">
        <ele>987.8</ele>
        <time>2022-05-23 04:59:19</time>
      </trkpt>
      <trkpt lat="42.39464" lon="0.77604">
        <ele>987.8</ele>
        <time>2022-05-23 04:59:20</time>
      </trkpt>
      <trkpt lat="42.39464" lon="0.77607">
        <ele>988</ele>
        <time>2022-05-23 04:59:21</time>
      </trkpt>
      <trkpt lat="42.39464" lon="0.7761">
        <ele>988.2</ele>
        <time>2022-05-23 04:59:22</time>
      </trkpt>
      <trkpt lat="42.39465" lon="0.77614">
        <ele>988.2</ele>
        <time>2022-05-23 04:59:23</time>
      </trkpt>
      <trkpt lat="42.39465" lon="0.77616">
        <ele>988.4</ele>
        <time>2022-05-23 04:59:24</time>
      </trkpt>
      <trkpt lat="42.39466" lon="0.7762">
        <ele>988.6</ele>
        <time>2022-05-23 04:59:25</time>
      </trkpt>
      <trkpt lat="42.39467" lon="0.77624">
        <ele>988.8</ele>
        <time>2022-05-23 04:59:26</time>
      </trkpt>
      <trkpt lat="42.39467" lon="0.77626">
        <ele>989</ele>
        <time>2022-05-23 04:59:27</time>
      </trkpt>
      <trkpt lat="42.39467" lon="0.77629">
        <ele>989</ele>
        <time>2022-05-23 04:59:28</time>
      </trkpt>
      <trkpt lat="42.39468" lon="0.77632">
        <ele>989.2</ele>
        <time>2022-05-23 04:59:29</time>
      </trkpt>
      <trkpt lat="42.39468" lon="0.77634">
        <ele>989.4</ele>
        <time>2022-05-23 04:59:30</time>
      </trkpt>
      <trkpt lat="42.39469" lon="0.77637">
        <ele>989.6</ele>
        <time>2022-05-23 04:59:31</time>
      </trkpt>
      <trkpt lat="42.3947" lon="0.77639">
        <ele>989.8</ele>
        <time>2022-05-23 04:59:32</time>
      </trkpt>
      <trkpt lat="42.3947" lon="0.77641">
        <ele>990</ele>
        <time>2022-05-23 04:59:33</time>
      </trkpt>
      <trkpt lat="42.39471" lon="0.77644">
        <ele>990</ele>
        <time>2022-05-23 04:59:34</time>
      </trkpt>
      <trkpt lat="42.39472" lon="0.77647">
        <ele>990.2</ele>
        <time>2022-05-23 04:59:35</time>
      </trkpt>
      <trkpt lat="42.39473" lon="0.77649">
        <ele>990.4</ele>
        <time>2022-05-23 04:59:36</time>
      </trkpt>
      <trkpt lat="42.39474" lon="0.77652">
        <ele>990.6</ele>
        <time>2022-05-23 04:59:37</time>
      </trkpt>
      <trkpt lat="42.39475" lon="0.77655">
        <ele>990.6</ele>
        <time>2022-05-23 04:59:38</time>
      </trkpt>
      <trkpt lat="42.39476" lon="0.77657">
        <ele>990.8</ele>
        <time>2022-05-23 04:59:39</time>
      </trkpt>
      <trkpt lat="42.39476" lon="0.7766">
        <ele>991</ele>
        <time>2022-05-23 04:59:40</time>
      </trkpt>
      <trkpt lat="42.39476" lon="0.77663">
        <ele>991</ele>
        <time>2022-05-23 04:59:41</time>
      </trkpt>
      <trkpt lat="42.39477" lon="0.77666">
        <ele>991.2</ele>
        <time>2022-05-23 04:59:42</time>
      </trkpt>
      <trkpt lat="42.39478" lon="0.77668">
        <ele>991.4</ele>
        <time>2022-05-23 04:59:43</time>
      </trkpt>
      <trkpt lat="42.39479" lon="0.77671">
        <ele>991.4</ele>
        <time>2022-05-23 04:59:44</time>
      </trkpt>
      <trkpt lat="42.39479" lon="0.77673">
        <ele>991.6</ele>
        <time>2022-05-23 04:59:45</time>
      </trkpt>
      <trkpt lat="42.39481" lon="0.77676">
        <ele>991.8</ele>
        <time>2022-05-23 04:59:46</time>
      </trkpt>
      <trkpt lat="42.39481" lon="0.77678">
        <ele>991.8</ele>
        <time>2022-05-23 04:59:47</time>
      </trkpt>
      <trkpt lat="42.39482" lon="0.7768">
        <ele>992</ele>
        <time>2022-05-23 04:59:48</time>
      </trkpt>
      <trkpt lat="42.39483" lon="0.77684">
        <ele>992.2</ele>
        <time>2022-05-23 04:59:49</time>
      </trkpt>
      <trkpt lat="42.39483" lon="0.77686">
        <ele>992.2</ele>
        <time>2022-05-23 04:59:50</time>
      </trkpt>
      <trkpt lat="42.39484" lon="0.77689">
        <ele>992.4</ele>
        <time>2022-05-23 04:59:51</time>
      </trkpt>
      <trkpt lat="42.39484" lon="0.77691">
        <ele>992.4</ele>
        <time>2022-05-23 04:59:52</time>
      </trkpt>
      <trkpt lat="42.39485" lon="0.77694">
        <ele>992.6</ele>
        <time>2022-05-23 04:59:53</time>
      </trkpt>
      <trkpt lat="42.39485" lon="0.77697">
        <ele>992.8</ele>
        <time>2022-05-23 04:59:54</time>
      </trkpt>
      <trkpt lat="42.39485" lon="0.777">
        <ele>992.8</ele>
        <time>2022-05-23 04:59:55</time>
      </trkpt>
      <trkpt lat="42.39485" lon="0.77703">
        <ele>993</ele>
        <time>2022-05-23 04:59:56</time>
      </trkpt>
      <trkpt lat="42.39485" lon="0.77706">
        <ele>993</ele>
        <time>2022-05-23 04:59:57</time>
      </trkpt>
      <trkpt lat="42.39484" lon="0.77708">
        <ele>993.2</ele>
        <time>2022-05-23 04:59:58</time>
      </trkpt>
      <trkpt lat="42.39483" lon="0.77711">
        <ele>993.2</ele>
        <time>2022-05-23 04:59:59</time>
      </trkpt>
      <trkpt lat="42.39482" lon="0.77714">
        <ele>993.4</ele>
        <time>2022-05-23 05:00:00</time>
      </trkpt>
      <trkpt lat="42.39482" lon="0.77716">
        <ele>993.4</ele>
        <time>2022-05-23 05:00:01</time>
      </trkpt>
      <trkpt lat="42.39481" lon="0.77718">
        <ele>993.4</ele>
        <time>2022-05-23 05:00:02</time>
      </trkpt>
      <trkpt lat="42.39481" lon="0.7772">
        <ele>993.6</ele>
        <time>2022-05-23 05:00:03</time>
      </trkpt>
      <trkpt lat="42.3948" lon="0.77722">
        <ele>993.6</ele>
        <time>2022-05-23 05:00:04</time>
      </trkpt>
      <trkpt lat="42.39479" lon="0.77725">
        <ele>993.8</ele>
        <time>2022-05-23 05:00:05</time>
      </trkpt>
      <trkpt lat="42.39478" lon="0.77728">
        <ele>993.8</ele>
        <time>2022-05-23 05:00:06</time>
      </trkpt>
      <trkpt lat="42.39477" lon="0.77731">
        <ele>994</ele>
        <time>2022-05-23 05:00:07</time>
      </trkpt>
      <trkpt lat="42.39476" lon="0.77733">
        <ele>994.2</ele>
        <time>2022-05-23 05:00:08</time>
      </trkpt>
      <trkpt lat="42.39475" lon="0.77736">
        <ele>994.2</ele>
        <time>2022-05-23 05:00:09</time>
      </trkpt>
      <trkpt lat="42.39476" lon="0.77738">
        <ele>994.4</ele>
        <time>2022-05-23 05:00:10</time>
      </trkpt>
      <trkpt lat="42.39475" lon="0.77741">
        <ele>994.4</ele>
        <time>2022-05-23 05:00:11</time>
      </trkpt>
      <trkpt lat="42.39475" lon="0.77743">
        <ele>994.6</ele>
        <time>2022-05-23 05:00:12</time>
      </trkpt>
      <trkpt lat="42.39474" lon="0.77747">
        <ele>994.6</ele>
        <time>2022-05-23 05:00:13</time>
      </trkpt>
      <trkpt lat="42.39474" lon="0.7775">
        <ele>994.8</ele>
        <time>2022-05-23 05:00:14</time>
      </trkpt>
      <trkpt lat="42.39474" lon="0.77753">
        <ele>995</ele>
        <time>2022-05-23 05:00:15</time>
      </trkpt>
      <trkpt lat="42.39473" lon="0.77755">
        <ele>995</ele>
        <time>2022-05-23 05:00:16</time>
      </trkpt>
      <trkpt lat="42.39473" lon="0.77758">
        <ele>995.2</ele>
        <time>2022-05-23 05:00:17</time>
      </trkpt>
      <trkpt lat="42.39472" lon="0.7776">
        <ele>995.2</ele>
        <time>2022-05-23 05:00:18</time>
      </trkpt>
      <trkpt lat="42.3947" lon="0.77763">
        <ele>995.4</ele>
        <time>2022-05-23 05:00:19</time>
      </trkpt>
      <trkpt lat="42.39469" lon="0.77766">
        <ele>995.4</ele>
        <time>2022-05-23 05:00:20</time>
      </trkpt>
      <trkpt lat="42.39468" lon="0.77769">
        <ele>995.6</ele>
        <time>2022-05-23 05:00:21</time>
      </trkpt>
      <trkpt lat="42.39467" lon="0.77772">
        <ele>995.6</ele>
        <time>2022-05-23 05:00:22</time>
      </trkpt>
      <trkpt lat="42.39467" lon="0.77775">
        <ele>995.8</ele>
        <time>2022-05-23 05:00:23</time>
      </trkpt>
      <trkpt lat="42.39466" lon="0.77779">
        <ele>996</ele>
        <time>2022-05-23 05:00:24</time>
      </trkpt>
      <trkpt lat="42.39465" lon="0.77782">
        <ele>996.2</ele>
        <time>2022-05-23 05:00:25</time>
      </trkpt>
      <trkpt lat="42.39465" lon="0.77786">
        <ele>996.4</ele>
        <time>2022-05-23 05:00:26</time>
      </trkpt>
      <trkpt lat="42.39465" lon="0.77789">
        <ele>996.4</ele>
        <time>2022-05-23 05:00:27</time>
      </trkpt>
      <trkpt lat="42.39464" lon="0.77792">
        <ele>996.6</ele>
        <time>2022-05-23 05:00:28</time>
      </trkpt>
      <trkpt lat="42.39464" lon="0.77795">
        <ele>996.8</ele>
        <time>2022-05-23 05:00:29</time>
      </trkpt>
      <trkpt lat="42.39463" lon="0.77797">
        <ele>996.8</ele>
        <time>2022-05-23 05:00:30</time>
      </trkpt>
      <trkpt lat="42.39463" lon="0.778">
        <ele>997</ele>
        <time>2022-05-23 05:00:31</time>
      </trkpt>
      <trkpt lat="42.39462" lon="0.77802">
        <ele>997.2</ele>
        <time>2022-05-23 05:00:32</time>
      </trkpt>
      <trkpt lat="42.3946" lon="0.77805">
        <ele>997.2</ele>
        <time>2022-05-23 05:00:33</time>
      </trkpt>
      <trkpt lat="42.3946" lon="0.77807">
        <ele>997.4</ele>
        <time>2022-05-23 05:00:34</time>
      </trkpt>
      <trkpt lat="42.39459" lon="0.7781">
        <ele>997.4</ele>
        <time>2022-05-23 05:00:35</time>
      </trkpt>
      <trkpt lat="42.39458" lon="0.77813">
        <ele>997.6</ele>
        <time>2022-05-23 05:00:36</time>
      </trkpt>
      <trkpt lat="42.39457" lon="0.77816">
        <ele>997.6</ele>
        <time>2022-05-23 05:00:37</time>
      </trkpt>
      <trkpt lat="42.39455" lon="0.77818">
        <ele>997.8</ele>
        <time>2022-05-23 05:00:38</time>
      </trkpt>
      <trkpt lat="42.39452" lon="0.7782">
        <ele>997.8</ele>
        <time>2022-05-23 05:00:39</time>
      </trkpt>
      <trkpt lat="42.39451" lon="0.77822">
        <ele>998</ele>
        <time>2022-05-23 05:00:40</time>
      </trkpt>
      <trkpt lat="42.3945" lon="0.77826">
        <ele>998</ele>
        <time>2022-05-23 05:00:41</time>
      </trkpt>
      <trkpt lat="42.3945" lon="0.77829">
        <ele>998.2</ele>
        <time>2022-05-23 05:00:42</time>
      </trkpt>
      <trkpt lat="42.3945" lon="0.77832">
        <ele>998.2</ele>
        <time>2022-05-23 05:00:43</time>
      </trkpt>
      <trkpt lat="42.3945" lon="0.77835">
        <ele>998.4</ele>
        <time>2022-05-23 05:00:44</time>
      </trkpt>
      <trkpt lat="42.3945" lon="0.77838">
        <ele>998.6</ele>
        <time>2022-05-23 05:00:45</time>
      </trkpt>
      <trkpt lat="42.3945" lon="0.77842">
        <ele>998.6</ele>
        <time>2022-05-23 05:00:46</time>
      </trkpt>
      <trkpt lat="42.39451" lon="0.77845">
        <ele>998.6</ele>
        <time>2022-05-23 05:00:47</time>
      </trkpt>
      <trkpt lat="42.39452" lon="0.77849">
        <ele>998.8</ele>
        <time>2022-05-23 05:00:48</time>
      </trkpt>
      <trkpt lat="42.39452" lon="0.77853">
        <ele>998.8</ele>
        <time>2022-05-23 05:00:49</time>
      </trkpt>
      <trkpt lat="42.39452" lon="0.77856">
        <ele>998.8</ele>
        <time>2022-05-23 05:00:50</time>
      </trkpt>
      <trkpt lat="42.39452" lon="0.77861">
        <ele>999</ele>
        <time>2022-05-23 05:00:51</time>
      </trkpt>
      <trkpt lat="42.39452" lon="0.77865">
        <ele>999</ele>
        <time>2022-05-23 05:00:52</time>
      </trkpt>
      <trkpt lat="42.39453" lon="0.7787">
        <ele>999</ele>
        <time>2022-05-23 05:00:53</time>
      </trkpt>
      <trkpt lat="42.39453" lon="0.77874">
        <ele>999</ele>
        <time>2022-05-23 05:00:54</time>
      </trkpt>
      <trkpt lat="42.39452" lon="0.77878">
        <ele>999</ele>
        <time>2022-05-23 05:00:55</time>
      </trkpt>
      <trkpt lat="42.39452" lon="0.77882">
        <ele>999</ele>
        <time>2022-05-23 05:00:56</time>
      </trkpt>
      <trkpt lat="42.39452" lon="0.77885">
        <ele>999.2</ele>
        <time>2022-05-23 05:00:57</time>
      </trkpt>
      <trkpt lat="42.39452" lon="0.77889">
        <ele>999.2</ele>
        <time>2022-05-23 05:00:58</time>
      </trkpt>
      <trkpt lat="42.39452" lon="0.77893">
        <ele>999.2</ele>
        <time>2022-05-23 05:00:59</time>
      </trkpt>
      <trkpt lat="42.39452" lon="0.77896">
        <ele>999.4</ele>
        <time>2022-05-23 05:01:00</time>
      </trkpt>
      <trkpt lat="42.39453" lon="0.779">
        <ele>999.4</ele>
        <time>2022-05-23 05:01:01</time>
      </trkpt>
      <trkpt lat="42.39454" lon="0.77904">
        <ele>999.4</ele>
        <time>2022-05-23 05:01:02</time>
      </trkpt>
      <trkpt lat="42.39454" lon="0.77907">
        <ele>999.4</ele>
        <time>2022-05-23 05:01:03</time>
      </trkpt>
      <trkpt lat="42.39455" lon="0.77911">
        <ele>999.4</ele>
        <time>2022-05-23 05:01:04</time>
      </trkpt>
      <trkpt lat="42.39455" lon="0.77915">
        <ele>999.6</ele>
        <time>2022-05-23 05:01:05</time>
      </trkpt>
      <trkpt lat="42.39455" lon="0.77919">
        <ele>999.6</ele>
        <time>2022-05-23 05:01:06</time>
      </trkpt>
      <trkpt lat="42.39455" lon="0.77923">
        <ele>999.6</ele>
        <time>2022-05-23 05:01:07</time>
      </trkpt>
      <trkpt lat="42.39456" lon="0.77927">
        <ele>999.6</ele>
        <time>2022-05-23 05:01:08</time>
      </trkpt>
      <trkpt lat="42.39456" lon="0.7793">
        <ele>999.6</ele>
        <time>2022-05-23 05:01:09</time>
      </trkpt>
      <trkpt lat="42.39456" lon="0.77933">
        <ele>999.6</ele>
        <time>2022-05-23 05:01:10</time>
      </trkpt>
      <trkpt lat="42.39456" lon="0.77937">
        <ele>999.8</ele>
        <time>2022-05-23 05:01:11</time>
      </trkpt>
      <trkpt lat="42.39456" lon="0.77941">
        <ele>999.8</ele>
        <time>2022-05-23 05:01:12</time>
      </trkpt>
      <trkpt lat="42.39457" lon="0.77944">
        <ele>999.8</ele>
        <time>2022-05-23 05:01:13</time>
      </trkpt>
      <trkpt lat="42.39457" lon="0.77948">
        <ele>999.8</ele>
        <time>2022-05-23 05:01:14</time>
      </trkpt>
      <trkpt lat="42.39457" lon="0.77952">
        <ele>999.8</ele>
        <time>2022-05-23 05:01:15</time>
      </trkpt>
      <trkpt lat="42.39457" lon="0.77956">
        <ele>999.8</ele>
        <time>2022-05-23 05:01:16</time>
      </trkpt>
      <trkpt lat="42.39457" lon="0.77959">
        <ele>1000</ele>
        <time>2022-05-23 05:01:17</time>
      </trkpt>
      <trkpt lat="42.39457" lon="0.77963">
        <ele>1000</ele>
        <time>2022-05-23 05:01:18</time>
      </trkpt>
      <trkpt lat="42.39457" lon="0.77967">
        <ele>1000</ele>
        <time>2022-05-23 05:01:19</time>
      </trkpt>
      <trkpt lat="42.39457" lon="0.7797">
        <ele>1000</ele>
        <time>2022-05-23 05:01:20</time>
      </trkpt>
      <trkpt lat="42.39457" lon="0.77974">
        <ele>1000</ele>
        <time>2022-05-23 05:01:21</time>
      </trkpt>
      <trkpt lat="42.39457" lon="0.77979">
        <ele>1000.2</ele>
        <time>2022-05-23 05:01:22</time>
      </trkpt>
      <trkpt lat="42.39457" lon="0.77983">
        <ele>1000.2</ele>
        <time>2022-05-23 05:01:23</time>
      </trkpt>
      <trkpt lat="42.39457" lon="0.77987">
        <ele>1000.2</ele>
        <time>2022-05-23 05:01:24</time>
      </trkpt>
      <trkpt lat="42.39458" lon="0.77991">
        <ele>1000.2</ele>
        <time>2022-05-23 05:01:25</time>
      </trkpt>
      <trkpt lat="42.39458" lon="0.77995">
        <ele>1000.4</ele>
        <time>2022-05-23 05:01:26</time>
      </trkpt>
      <trkpt lat="42.39458" lon="0.77998">
        <ele>1000.4</ele>
        <time>2022-05-23 05:01:27</time>
      </trkpt>
      <trkpt lat="42.39458" lon="0.78002">
        <ele>1000.4</ele>
        <time>2022-05-23 05:01:28</time>
      </trkpt>
      <trkpt lat="42.39458" lon="0.78006">
        <ele>1000.4</ele>
        <time>2022-05-23 05:01:29</time>
      </trkpt>
      <trkpt lat="42.39458" lon="0.78011">
        <ele>1000.4</ele>
        <time>2022-05-23 05:01:30</time>
      </trkpt>
      <trkpt lat="42.39458" lon="0.78015">
        <ele>1000.6</ele>
        <time>2022-05-23 05:01:31</time>
      </trkpt>
      <trkpt lat="42.39459" lon="0.78018">
        <ele>1000.6</ele>
        <time>2022-05-23 05:01:32</time>
      </trkpt>
      <trkpt lat="42.39459" lon="0.78022">
        <ele>1000.6</ele>
        <time>2022-05-23 05:01:33</time>
      </trkpt>
      <trkpt lat="42.39459" lon="0.78026">
        <ele>1000.6</ele>
        <time>2022-05-23 05:01:34</time>
      </trkpt>
      <trkpt lat="42.39459" lon="0.7803">
        <ele>1000.8</ele>
        <time>2022-05-23 05:01:35</time>
      </trkpt>
      <trkpt lat="42.39459" lon="0.78034">
        <ele>1000.8</ele>
        <time>2022-05-23 05:01:36</time>
      </trkpt>
      <trkpt lat="42.39459" lon="0.78038">
        <ele>1000.8</ele>
        <time>2022-05-23 05:01:37</time>
      </trkpt>
      <trkpt lat="42.39459" lon="0.78043">
        <ele>1000.8</ele>
        <time>2022-05-23 05:01:38</time>
      </trkpt>
      <trkpt lat="42.39459" lon="0.78047">
        <ele>1001</ele>
        <time>2022-05-23 05:01:39</time>
      </trkpt>
      <trkpt lat="42.3946" lon="0.78052">
        <ele>1001</ele>
        <time>2022-05-23 05:01:40</time>
      </trkpt>
      <trkpt lat="42.3946" lon="0.78056">
        <ele>1001</ele>
        <time>2022-05-23 05:01:41</time>
      </trkpt>
      <trkpt lat="42.3946" lon="0.78061">
        <ele>1001.2</ele>
        <time>2022-05-23 05:01:42</time>
      </trkpt>
      <trkpt lat="42.3946" lon="0.78066">
        <ele>1001.2</ele>
        <time>2022-05-23 05:01:43</time>
      </trkpt>
      <trkpt lat="42.3946" lon="0.78071">
        <ele>1001.2</ele>
        <time>2022-05-23 05:01:44</time>
      </trkpt>
      <trkpt lat="42.3946" lon="0.78075">
        <ele>1001.4</ele>
        <time>2022-05-23 05:01:45</time>
      </trkpt>
      <trkpt lat="42.3946" lon="0.78079">
        <ele>1001.4</ele>
        <time>2022-05-23 05:01:46</time>
      </trkpt>
      <trkpt lat="42.39461" lon="0.78083">
        <ele>1001.4</ele>
        <time>2022-05-23 05:01:47</time>
      </trkpt>
      <trkpt lat="42.39462" lon="0.78087">
        <ele>1001.6</ele>
        <time>2022-05-23 05:01:48</time>
      </trkpt>
      <trkpt lat="42.39462" lon="0.78091">
        <ele>1001.6</ele>
        <time>2022-05-23 05:01:49</time>
      </trkpt>
      <trkpt lat="42.39463" lon="0.78095">
        <ele>1001.6</ele>
        <time>2022-05-23 05:01:50</time>
      </trkpt>
      <trkpt lat="42.39463" lon="0.78099">
        <ele>1001.8</ele>
        <time>2022-05-23 05:01:51</time>
      </trkpt>
      <trkpt lat="42.39462" lon="0.78103">
        <ele>1001.8</ele>
        <time>2022-05-23 05:01:52</time>
      </trkpt>
      <trkpt lat="42.39462" lon="0.78106">
        <ele>1001.8</ele>
        <time>2022-05-23 05:01:53</time>
      </trkpt>
      <trkpt lat="42.39462" lon="0.7811">
        <ele>1001.8</ele>
        <time>2022-05-23 05:01:54</time>
      </trkpt>
      <trkpt lat="42.39462" lon="0.78115">
        <ele>1002</ele>
        <time>2022-05-23 05:01:55</time>
      </trkpt>
      <trkpt lat="42.39462" lon="0.78121">
        <ele>1002</ele>
        <time>2022-05-23 05:01:56</time>
      </trkpt>
      <trkpt lat="42.39463" lon="0.78126">
        <ele>1002</ele>
        <time>2022-05-23 05:01:57</time>
      </trkpt>
      <trkpt lat="42.39463" lon="0.78131">
        <ele>1002.2</ele>
        <time>2022-05-23 05:01:58</time>
      </trkpt>
      <trkpt lat="42.39464" lon="0.78135">
        <ele>1002.2</ele>
        <time>2022-05-23 05:01:59</time>
      </trkpt>
      <trkpt lat="42.39464" lon="0.78139">
        <ele>1002.2</ele>
        <time>2022-05-23 05:02:00</time>
      </trkpt>
      <trkpt lat="42.39465" lon="0.78143">
        <ele>1002.4</ele>
        <time>2022-05-23 05:02:01</time>
      </trkpt>
      <trkpt lat="42.39465" lon="0.78147">
        <ele>1002.4</ele>
        <time>2022-05-23 05:02:02</time>
      </trkpt>
      <trkpt lat="42.39465" lon="0.78151">
        <ele>1002.6</ele>
        <time>2022-05-23 05:02:03</time>
      </trkpt>
      <trkpt lat="42.39465" lon="0.78156">
        <ele>1002.6</ele>
        <time>2022-05-23 05:02:04</time>
      </trkpt>
      <trkpt lat="42.39465" lon="0.7816">
        <ele>1002.6</ele>
        <time>2022-05-23 05:02:05</time>
      </trkpt>
      <trkpt lat="42.39466" lon="0.78164">
        <ele>1002.8</ele>
        <time>2022-05-23 05:02:06</time>
      </trkpt>
      <trkpt lat="42.39467" lon="0.78169">
        <ele>1002.8</ele>
        <time>2022-05-23 05:02:07</time>
      </trkpt>
      <trkpt lat="42.39467" lon="0.78173">
        <ele>1003</ele>
        <time>2022-05-23 05:02:08</time>
      </trkpt>
      <trkpt lat="42.39468" lon="0.78177">
        <ele>1003</ele>
        <time>2022-05-23 05:02:09</time>
      </trkpt>
      <trkpt lat="42.39468" lon="0.78181">
        <ele>1003</ele>
        <time>2022-05-23 05:02:10</time>
      </trkpt>
      <trkpt lat="42.39468" lon="0.78185">
        <ele>1003.2</ele>
        <time>2022-05-23 05:02:11</time>
      </trkpt>
      <trkpt lat="42.39468" lon="0.7819">
        <ele>1003.2</ele>
        <time>2022-05-23 05:02:12</time>
      </trkpt>
      <trkpt lat="42.39467" lon="0.78194">
        <ele>1003.4</ele>
        <time>2022-05-23 05:02:13</time>
      </trkpt>
      <trkpt lat="42.39466" lon="0.78198">
        <ele>1003.6</ele>
        <time>2022-05-23 05:02:14</time>
      </trkpt>
      <trkpt lat="42.39466" lon="0.78203">
        <ele>1003.6</ele>
        <time>2022-05-23 05:02:15</time>
      </trkpt>
      <trkpt lat="42.39465" lon="0.78207">
        <ele>1003.6</ele>
        <time>2022-05-23 05:02:16</time>
      </trkpt>
      <trkpt lat="42.39465" lon="0.78211">
        <ele>1003.8</ele>
        <time>2022-05-23 05:02:17</time>
      </trkpt>
      <trkpt lat="42.39463" lon="0.78214">
        <ele>1003.8</ele>
        <time>2022-05-23 05:02:18</time>
      </trkpt>
      <trkpt lat="42.39463" lon="0.78219">
        <ele>1004</ele>
        <time>2022-05-23 05:02:19</time>
      </trkpt>
      <trkpt lat="42.39461" lon="0.78223">
        <ele>1004</ele>
        <time>2022-05-23 05:02:20</time>
      </trkpt>
      <trkpt lat="42.39461" lon="0.78228">
        <ele>1004</ele>
        <time>2022-05-23 05:02:21</time>
      </trkpt>
      <trkpt lat="42.3946" lon="0.78232">
        <ele>1004.2</ele>
        <time>2022-05-23 05:02:22</time>
      </trkpt>
      <trkpt lat="42.39459" lon="0.78236">
        <ele>1004.2</ele>
        <time>2022-05-23 05:02:23</time>
      </trkpt>
      <trkpt lat="42.39458" lon="0.7824">
        <ele>1004.2</ele>
        <time>2022-05-23 05:02:24</time>
      </trkpt>
      <trkpt lat="42.39456" lon="0.78243">
        <ele>1004.4</ele>
        <time>2022-05-23 05:02:25</time>
      </trkpt>
      <trkpt lat="42.39455" lon="0.78247">
        <ele>1004.4</ele>
        <time>2022-05-23 05:02:26</time>
      </trkpt>
      <trkpt lat="42.39454" lon="0.78251">
        <ele>1004.6</ele>
        <time>2022-05-23 05:02:27</time>
      </trkpt>
      <trkpt lat="42.39452" lon="0.78254">
        <ele>1004.6</ele>
        <time>2022-05-23 05:02:28</time>
      </trkpt>
      <trkpt lat="42.39451" lon="0.78257">
        <ele>1004.8</ele>
        <time>2022-05-23 05:02:29</time>
      </trkpt>
      <trkpt lat="42.39449" lon="0.78261">
        <ele>1004.8</ele>
        <time>2022-05-23 05:02:30</time>
      </trkpt>
      <trkpt lat="42.39448" lon="0.78264">
        <ele>1005</ele>
        <time>2022-05-23 05:02:31</time>
      </trkpt>
      <trkpt lat="42.39447" lon="0.78267">
        <ele>1005</ele>
        <time>2022-05-23 05:02:32</time>
      </trkpt>
      <trkpt lat="42.39445" lon="0.78271">
        <ele>1005.2</ele>
        <time>2022-05-23 05:02:33</time>
      </trkpt>
      <trkpt lat="42.39443" lon="0.78274">
        <ele>1005.2</ele>
        <time>2022-05-23 05:02:34</time>
      </trkpt>
      <trkpt lat="42.39442" lon="0.78278">
        <ele>1005.4</ele>
        <time>2022-05-23 05:02:35</time>
      </trkpt>
      <trkpt lat="42.3944" lon="0.78282">
        <ele>1005.4</ele>
        <time>2022-05-23 05:02:36</time>
      </trkpt>
      <trkpt lat="42.39438" lon="0.78286">
        <ele>1005.6</ele>
        <time>2022-05-23 05:02:37</time>
      </trkpt>
      <trkpt lat="42.39437" lon="0.7829">
        <ele>1005.8</ele>
        <time>2022-05-23 05:02:38</time>
      </trkpt>
      <trkpt lat="42.39436" lon="0.78293">
        <ele>1005.8</ele>
        <time>2022-05-23 05:02:39</time>
      </trkpt>
      <trkpt lat="42.39434" lon="0.78296">
        <ele>1006</ele>
        <time>2022-05-23 05:02:40</time>
      </trkpt>
      <trkpt lat="42.39432" lon="0.78299">
        <ele>1006</ele>
        <time>2022-05-23 05:02:41</time>
      </trkpt>
      <trkpt lat="42.39431" lon="0.78303">
        <ele>1006.2</ele>
        <time>2022-05-23 05:02:42</time>
      </trkpt>
      <trkpt lat="42.39429" lon="0.78307">
        <ele>1006.2</ele>
        <time>2022-05-23 05:02:43</time>
      </trkpt>
      <trkpt lat="42.39428" lon="0.7831">
        <ele>1006.2</ele>
        <time>2022-05-23 05:02:44</time>
      </trkpt>
      <trkpt lat="42.39427" lon="0.78314">
        <ele>1006.4</ele>
        <time>2022-05-23 05:02:45</time>
      </trkpt>
      <trkpt lat="42.39426" lon="0.78317">
        <ele>1006.4</ele>
        <time>2022-05-23 05:02:46</time>
      </trkpt>
      <trkpt lat="42.39424" lon="0.78321">
        <ele>1006.6</ele>
        <time>2022-05-23 05:02:47</time>
      </trkpt>
      <trkpt lat="42.39423" lon="0.78325">
        <ele>1006.6</ele>
        <time>2022-05-23 05:02:48</time>
      </trkpt>
      <trkpt lat="42.39422" lon="0.78329">
        <ele>1006.8</ele>
        <time>2022-05-23 05:02:49</time>
      </trkpt>
      <trkpt lat="42.39421" lon="0.78333">
        <ele>1006.8</ele>
        <time>2022-05-23 05:02:50</time>
      </trkpt>
      <trkpt lat="42.3942" lon="0.78336">
        <ele>1006.8</ele>
        <time>2022-05-23 05:02:51</time>
      </trkpt>
      <trkpt lat="42.39419" lon="0.7834">
        <ele>1007</ele>
        <time>2022-05-23 05:02:52</time>
      </trkpt>
      <trkpt lat="42.39418" lon="0.78344">
        <ele>1007</ele>
        <time>2022-05-23 05:02:53</time>
      </trkpt>
      <trkpt lat="42.39416" lon="0.78347">
        <ele>1007.2</ele>
        <time>2022-05-23 05:02:54</time>
      </trkpt>
      <trkpt lat="42.39415" lon="0.78351">
        <ele>1007.2</ele>
        <time>2022-05-23 05:02:55</time>
      </trkpt>
      <trkpt lat="42.39414" lon="0.78355">
        <ele>1007.4</ele>
        <time>2022-05-23 05:02:56</time>
      </trkpt>
      <trkpt lat="42.39413" lon="0.78358">
        <ele>1007.4</ele>
        <time>2022-05-23 05:02:57</time>
      </trkpt>
      <trkpt lat="42.39412" lon="0.78362">
        <ele>1007.6</ele>
        <time>2022-05-23 05:02:58</time>
      </trkpt>
      <trkpt lat="42.39412" lon="0.78366">
        <ele>1007.6</ele>
        <time>2022-05-23 05:02:59</time>
      </trkpt>
      <trkpt lat="42.39411" lon="0.78369">
        <ele>1007.6</ele>
        <time>2022-05-23 05:03:00</time>
      </trkpt>
      <trkpt lat="42.3941" lon="0.78373">
        <ele>1007.8</ele>
        <time>2022-05-23 05:03:01</time>
      </trkpt>
      <trkpt lat="42.3941" lon="0.78377">
        <ele>1007.8</ele>
        <time>2022-05-23 05:03:02</time>
      </trkpt>
      <trkpt lat="42.3941" lon="0.7838">
        <ele>1008</ele>
        <time>2022-05-23 05:03:03</time>
      </trkpt>
      <trkpt lat="42.39409" lon="0.78383">
        <ele>1008</ele>
        <time>2022-05-23 05:03:04</time>
      </trkpt>
      <trkpt lat="42.39408" lon="0.78386">
        <ele>1008.2</ele>
        <time>2022-05-23 05:03:05</time>
      </trkpt>
      <trkpt lat="42.39408" lon="0.78389">
        <ele>1008.2</ele>
        <time>2022-05-23 05:03:06</time>
      </trkpt>
      <trkpt lat="42.39407" lon="0.78392">
        <ele>1008.4</ele>
        <time>2022-05-23 05:03:07</time>
      </trkpt>
      <trkpt lat="42.39407" lon="0.78396">
        <ele>1008.4</ele>
        <time>2022-05-23 05:03:08</time>
      </trkpt>
      <trkpt lat="42.39406" lon="0.78399">
        <ele>1008.6</ele>
        <time>2022-05-23 05:03:09</time>
      </trkpt>
      <trkpt lat="42.39405" lon="0.78404">
        <ele>1008.6</ele>
        <time>2022-05-23 05:03:10</time>
      </trkpt>
      <trkpt lat="42.39405" lon="0.78408">
        <ele>1008.6</ele>
        <time>2022-05-23 05:03:11</time>
      </trkpt>
      <trkpt lat="42.39405" lon="0.78412">
        <ele>1008.8</ele>
        <time>2022-05-23 05:03:12</time>
      </trkpt>
      <trkpt lat="42.39404" lon="0.78416">
        <ele>1008.8</ele>
        <time>2022-05-23 05:03:13</time>
      </trkpt>
      <trkpt lat="42.39403" lon="0.78421">
        <ele>1009</ele>
        <time>2022-05-23 05:03:14</time>
      </trkpt>
      <trkpt lat="42.39402" lon="0.78425">
        <ele>1009</ele>
        <time>2022-05-23 05:03:15</time>
      </trkpt>
      <trkpt lat="42.39401" lon="0.7843">
        <ele>1009.2</ele>
        <time>2022-05-23 05:03:16</time>
      </trkpt>
      <trkpt lat="42.394" lon="0.78433">
        <ele>1009.2</ele>
        <time>2022-05-23 05:03:17</time>
      </trkpt>
      <trkpt lat="42.394" lon="0.78438">
        <ele>1009.4</ele>
        <time>2022-05-23 05:03:18</time>
      </trkpt>
      <trkpt lat="42.39399" lon="0.78442">
        <ele>1009.6</ele>
        <time>2022-05-23 05:03:19</time>
      </trkpt>
      <trkpt lat="42.39399" lon="0.78446">
        <ele>1009.6</ele>
        <time>2022-05-23 05:03:20</time>
      </trkpt>
      <trkpt lat="42.39398" lon="0.7845">
        <ele>1009.8</ele>
        <time>2022-05-23 05:03:21</time>
      </trkpt>
      <trkpt lat="42.39397" lon="0.78453">
        <ele>1009.8</ele>
        <time>2022-05-23 05:03:22</time>
      </trkpt>
      <trkpt lat="42.39396" lon="0.78457">
        <ele>1010</ele>
        <time>2022-05-23 05:03:23</time>
      </trkpt>
      <trkpt lat="42.39395" lon="0.78461">
        <ele>1010</ele>
        <time>2022-05-23 05:03:24</time>
      </trkpt>
      <trkpt lat="42.39394" lon="0.78465">
        <ele>1010.2</ele>
        <time>2022-05-23 05:03:25</time>
      </trkpt>
      <trkpt lat="42.39394" lon="0.78469">
        <ele>1010.2</ele>
        <time>2022-05-23 05:03:26</time>
      </trkpt>
      <trkpt lat="42.39393" lon="0.78473">
        <ele>1010.4</ele>
        <time>2022-05-23 05:03:27</time>
      </trkpt>
      <trkpt lat="42.39392" lon="0.78476">
        <ele>1010.6</ele>
        <time>2022-05-23 05:03:28</time>
      </trkpt>
      <trkpt lat="42.39392" lon="0.7848">
        <ele>1010.6</ele>
        <time>2022-05-23 05:03:29</time>
      </trkpt>
      <trkpt lat="42.39391" lon="0.78484">
        <ele>1010.8</ele>
        <time>2022-05-23 05:03:30</time>
      </trkpt>
      <trkpt lat="42.39391" lon="0.78488">
        <ele>1010.8</ele>
        <time>2022-05-23 05:03:31</time>
      </trkpt>
      <trkpt lat="42.3939" lon="0.78491">
        <ele>1011</ele>
        <time>2022-05-23 05:03:32</time>
      </trkpt>
      <trkpt lat="42.3939" lon="0.78495">
        <ele>1011</ele>
        <time>2022-05-23 05:03:33</time>
      </trkpt>
      <trkpt lat="42.3939" lon="0.785">
        <ele>1011.2</ele>
        <time>2022-05-23 05:03:34</time>
      </trkpt>
      <trkpt lat="42.39389" lon="0.78505">
        <ele>1011.2</ele>
        <time>2022-05-23 05:03:35</time>
      </trkpt>
      <trkpt lat="42.39389" lon="0.78508">
        <ele>1011.2</ele>
        <time>2022-05-23 05:03:36</time>
      </trkpt>
      <trkpt lat="42.39389" lon="0.78513">
        <ele>1011.4</ele>
        <time>2022-05-23 05:03:37</time>
      </trkpt>
      <trkpt lat="42.39387" lon="0.78517">
        <ele>1011.4</ele>
        <time>2022-05-23 05:03:38</time>
      </trkpt>
      <trkpt lat="42.39386" lon="0.78521">
        <ele>1011.6</ele>
        <time>2022-05-23 05:03:39</time>
      </trkpt>
      <trkpt lat="42.39385" lon="0.78525">
        <ele>1011.6</ele>
        <time>2022-05-23 05:03:40</time>
      </trkpt>
      <trkpt lat="42.39384" lon="0.78529">
        <ele>1011.8</ele>
        <time>2022-05-23 05:03:41</time>
      </trkpt>
      <trkpt lat="42.39382" lon="0.78532">
        <ele>1011.8</ele>
        <time>2022-05-23 05:03:42</time>
      </trkpt>
      <trkpt lat="42.39381" lon="0.78536">
        <ele>1012</ele>
        <time>2022-05-23 05:03:43</time>
      </trkpt>
      <trkpt lat="42.39378" lon="0.78539">
        <ele>1012</ele>
        <time>2022-05-23 05:03:44</time>
      </trkpt>
      <trkpt lat="42.39376" lon="0.78542">
        <ele>1012.2</ele>
        <time>2022-05-23 05:03:45</time>
      </trkpt>
      <trkpt lat="42.39373" lon="0.78543">
        <ele>1012.2</ele>
        <time>2022-05-23 05:03:46</time>
      </trkpt>
      <trkpt lat="42.39369" lon="0.78544">
        <ele>1012.4</ele>
        <time>2022-05-23 05:03:47</time>
      </trkpt>
      <trkpt lat="42.39365" lon="0.78545">
        <ele>1012.4</ele>
        <time>2022-05-23 05:03:48</time>
      </trkpt>
      <trkpt lat="42.39361" lon="0.78545">
        <ele>1012.4</ele>
        <time>2022-05-23 05:03:49</time>
      </trkpt>
      <trkpt lat="42.39358" lon="0.78545">
        <ele>1012.4</ele>
        <time>2022-05-23 05:03:50</time>
      </trkpt>
      <trkpt lat="42.39354" lon="0.78545">
        <ele>1012.4</ele>
        <time>2022-05-23 05:03:51</time>
      </trkpt>
      <trkpt lat="42.3935" lon="0.78545">
        <ele>1012.4</ele>
        <time>2022-05-23 05:03:52</time>
      </trkpt>
      <trkpt lat="42.39346" lon="0.78545">
        <ele>1012.4</ele>
        <time>2022-05-23 05:03:53</time>
      </trkpt>
      <trkpt lat="42.39343" lon="0.78545">
        <ele>1012.4</ele>
        <time>2022-05-23 05:03:54</time>
      </trkpt>
      <trkpt lat="42.39339" lon="0.78545">
        <ele>1012.4</ele>
        <time>2022-05-23 05:03:55</time>
      </trkpt>
      <trkpt lat="42.39335" lon="0.78545">
        <ele>1012.6</ele>
        <time>2022-05-23 05:03:56</time>
      </trkpt>
      <trkpt lat="42.39332" lon="0.78545">
        <ele>1012.6</ele>
        <time>2022-05-23 05:03:57</time>
      </trkpt>
      <trkpt lat="42.39328" lon="0.78545">
        <ele>1012.8</ele>
        <time>2022-05-23 05:03:58</time>
      </trkpt>
      <trkpt lat="42.39325" lon="0.78545">
        <ele>1012.8</ele>
        <time>2022-05-23 05:03:59</time>
      </trkpt>
      <trkpt lat="42.39321" lon="0.78545">
        <ele>1013</ele>
        <time>2022-05-23 05:04:00</time>
      </trkpt>
      <trkpt lat="42.39318" lon="0.78545">
        <ele>1013</ele>
        <time>2022-05-23 05:04:01</time>
      </trkpt>
      <trkpt lat="42.39315" lon="0.78545">
        <ele>1013.2</ele>
        <time>2022-05-23 05:04:02</time>
      </trkpt>
      <trkpt lat="42.39312" lon="0.78545">
        <ele>1013.4</ele>
        <time>2022-05-23 05:04:03</time>
      </trkpt>
      <trkpt lat="42.39309" lon="0.78545">
        <ele>1013.4</ele>
        <time>2022-05-23 05:04:04</time>
      </trkpt>
      <trkpt lat="42.39306" lon="0.78545">
        <ele>1013.6</ele>
        <time>2022-05-23 05:04:05</time>
      </trkpt>
      <trkpt lat="42.39303" lon="0.78546">
        <ele>1013.8</ele>
        <time>2022-05-23 05:04:06</time>
      </trkpt>
      <trkpt lat="42.39301" lon="0.78546">
        <ele>1014</ele>
        <time>2022-05-23 05:04:07</time>
      </trkpt>
      <trkpt lat="42.39298" lon="0.78547">
        <ele>1014</ele>
        <time>2022-05-23 05:04:08</time>
      </trkpt>
      <trkpt lat="42.39295" lon="0.78547">
        <ele>1014.2</ele>
        <time>2022-05-23 05:04:09</time>
      </trkpt>
      <trkpt lat="42.39293" lon="0.78547">
        <ele>1014.4</ele>
        <time>2022-05-23 05:04:10</time>
      </trkpt>
      <trkpt lat="42.3929" lon="0.78547">
        <ele>1014.4</ele>
        <time>2022-05-23 05:04:11</time>
      </trkpt>
      <trkpt lat="42.39287" lon="0.78546">
        <ele>1014.6</ele>
        <time>2022-05-23 05:04:12</time>
      </trkpt>
      <trkpt lat="42.39285" lon="0.78546">
        <ele>1014.8</ele>
        <time>2022-05-23 05:04:13</time>
      </trkpt>
      <trkpt lat="42.39282" lon="0.78546">
        <ele>1014.8</ele>
        <time>2022-05-23 05:04:14</time>
      </trkpt>
      <trkpt lat="42.3928" lon="0.78546">
        <ele>1015</ele>
        <time>2022-05-23 05:04:15</time>
      </trkpt>
      <trkpt lat="42.39277" lon="0.78546">
        <ele>1015</ele>
        <time>2022-05-23 05:04:16</time>
      </trkpt>
      <trkpt lat="42.39274" lon="0.78546">
        <ele>1015.2</ele>
        <time>2022-05-23 05:04:17</time>
      </trkpt>
      <trkpt lat="42.39272" lon="0.78546">
        <ele>1015.4</ele>
        <time>2022-05-23 05:04:18</time>
      </trkpt>
      <trkpt lat="42.39269" lon="0.78546">
        <ele>1015.4</ele>
        <time>2022-05-23 05:04:19</time>
      </trkpt>
      <trkpt lat="42.39266" lon="0.78546">
        <ele>1015.6</ele>
        <time>2022-05-23 05:04:20</time>
      </trkpt>
      <trkpt lat="42.39264" lon="0.78546">
        <ele>1015.6</ele>
        <time>2022-05-23 05:04:21</time>
      </trkpt>
      <trkpt lat="42.39261" lon="0.78547">
        <ele>1015.8</ele>
        <time>2022-05-23 05:04:22</time>
      </trkpt>
      <trkpt lat="42.39258" lon="0.78547">
        <ele>1015.8</ele>
        <time>2022-05-23 05:04:23</time>
      </trkpt>
      <trkpt lat="42.39256" lon="0.78547">
        <ele>1016</ele>
        <time>2022-05-23 05:04:24</time>
      </trkpt>
      <trkpt lat="42.39253" lon="0.78548">
        <ele>1016</ele>
        <time>2022-05-23 05:04:25</time>
      </trkpt>
      <trkpt lat="42.39251" lon="0.78549">
        <ele>1016.2</ele>
        <time>2022-05-23 05:04:26</time>
      </trkpt>
      <trkpt lat="42.39248" lon="0.78549">
        <ele>1016.2</ele>
        <time>2022-05-23 05:04:27</time>
      </trkpt>
      <trkpt lat="42.39245" lon="0.7855">
        <ele>1016.4</ele>
        <time>2022-05-23 05:04:28</time>
      </trkpt>
      <trkpt lat="42.39242" lon="0.78551">
        <ele>1016.4</ele>
        <time>2022-05-23 05:04:29</time>
      </trkpt>
      <trkpt lat="42.3924" lon="0.78552">
        <ele>1016.6</ele>
        <time>2022-05-23 05:04:30</time>
      </trkpt>
      <trkpt lat="42.39237" lon="0.78553">
        <ele>1016.6</ele>
        <time>2022-05-23 05:04:31</time>
      </trkpt>
      <trkpt lat="42.39234" lon="0.78554">
        <ele>1016.6</ele>
        <time>2022-05-23 05:04:32</time>
      </trkpt>
      <trkpt lat="42.39231" lon="0.78554">
        <ele>1016.8</ele>
        <time>2022-05-23 05:04:33</time>
      </trkpt>
      <trkpt lat="42.39229" lon="0.78555">
        <ele>1016.8</ele>
        <time>2022-05-23 05:04:34</time>
      </trkpt>
      <trkpt lat="42.39226" lon="0.78556">
        <ele>1017</ele>
        <time>2022-05-23 05:04:35</time>
      </trkpt>
      <trkpt lat="42.39223" lon="0.78558">
        <ele>1017</ele>
        <time>2022-05-23 05:04:36</time>
      </trkpt>
      <trkpt lat="42.3922" lon="0.78558">
        <ele>1017.2</ele>
        <time>2022-05-23 05:04:37</time>
      </trkpt>
      <trkpt lat="42.39218" lon="0.78559">
        <ele>1017.2</ele>
        <time>2022-05-23 05:04:38</time>
      </trkpt>
      <trkpt lat="42.39215" lon="0.7856">
        <ele>1017.2</ele>
        <time>2022-05-23 05:04:39</time>
      </trkpt>
      <trkpt lat="42.39212" lon="0.78561">
        <ele>1017.4</ele>
        <time>2022-05-23 05:04:40</time>
      </trkpt>
      <trkpt lat="42.3921" lon="0.78563">
        <ele>1017.4</ele>
        <time>2022-05-23 05:04:41</time>
      </trkpt>
      <trkpt lat="42.39207" lon="0.78564">
        <ele>1017.6</ele>
        <time>2022-05-23 05:04:42</time>
      </trkpt>
      <trkpt lat="42.39205" lon="0.78566">
        <ele>1017.6</ele>
        <time>2022-05-23 05:04:43</time>
      </trkpt>
      <trkpt lat="42.39203" lon="0.78568">
        <ele>1017.8</ele>
        <time>2022-05-23 05:04:44</time>
      </trkpt>
      <trkpt lat="42.392" lon="0.78569">
        <ele>1017.8</ele>
        <time>2022-05-23 05:04:45</time>
      </trkpt>
      <trkpt lat="42.39198" lon="0.78571">
        <ele>1018</ele>
        <time>2022-05-23 05:04:46</time>
      </trkpt>
      <trkpt lat="42.39196" lon="0.78573">
        <ele>1018</ele>
        <time>2022-05-23 05:04:47</time>
      </trkpt>
      <trkpt lat="42.39194" lon="0.78575">
        <ele>1018</ele>
        <time>2022-05-23 05:04:48</time>
      </trkpt>
      <trkpt lat="42.39192" lon="0.78577">
        <ele>1018.2</ele>
        <time>2022-05-23 05:04:49</time>
      </trkpt>
      <trkpt lat="42.3919" lon="0.78579">
        <ele>1018.2</ele>
        <time>2022-05-23 05:04:50</time>
      </trkpt>
      <trkpt lat="42.39188" lon="0.78581">
        <ele>1018.4</ele>
        <time>2022-05-23 05:04:51</time>
      </trkpt>
      <trkpt lat="42.39186" lon="0.78584">
        <ele>1018.6</ele>
        <time>2022-05-23 05:04:52</time>
      </trkpt>
      <trkpt lat="42.39184" lon="0.78587">
        <ele>1018.6</ele>
        <time>2022-05-23 05:04:53</time>
      </trkpt>
      <trkpt lat="42.39182" lon="0.78589">
        <ele>1018.8</ele>
        <time>2022-05-23 05:04:54</time>
      </trkpt>
      <trkpt lat="42.3918" lon="0.78592">
        <ele>1018.8</ele>
        <time>2022-05-23 05:04:55</time>
      </trkpt>
      <trkpt lat="42.39178" lon="0.78594">
        <ele>1019</ele>
        <time>2022-05-23 05:04:56</time>
      </trkpt>
      <trkpt lat="42.39176" lon="0.78596">
        <ele>1019</ele>
        <time>2022-05-23 05:04:57</time>
      </trkpt>
      <trkpt lat="42.39174" lon="0.78598">
        <ele>1019.2</ele>
        <time>2022-05-23 05:04:58</time>
      </trkpt>
      <trkpt lat="42.39172" lon="0.78601">
        <ele>1019.4</ele>
        <time>2022-05-23 05:04:59</time>
      </trkpt>
      <trkpt lat="42.3917" lon="0.78604">
        <ele>1019.4</ele>
        <time>2022-05-23 05:05:00</time>
      </trkpt>
      <trkpt lat="42.39169" lon="0.78607">
        <ele>1019.6</ele>
        <time>2022-05-23 05:05:01</time>
      </trkpt>
      <trkpt lat="42.39167" lon="0.7861">
        <ele>1019.8</ele>
        <time>2022-05-23 05:05:02</time>
      </trkpt>
      <trkpt lat="42.39165" lon="0.78612">
        <ele>1020</ele>
        <time>2022-05-23 05:05:03</time>
      </trkpt>
      <trkpt lat="42.39164" lon="0.78615">
        <ele>1020</ele>
        <time>2022-05-23 05:05:04</time>
      </trkpt>
      <trkpt lat="42.39162" lon="0.78617">
        <ele>1020.2</ele>
        <time>2022-05-23 05:05:05</time>
      </trkpt>
      <trkpt lat="42.39161" lon="0.7862">
        <ele>1020.4</ele>
        <time>2022-05-23 05:05:06</time>
      </trkpt>
      <trkpt lat="42.39159" lon="0.78623">
        <ele>1020.6</ele>
        <time>2022-05-23 05:05:07</time>
      </trkpt>
      <trkpt lat="42.39157" lon="0.78625">
        <ele>1020.8</ele>
        <time>2022-05-23 05:05:08</time>
      </trkpt>
      <trkpt lat="42.39156" lon="0.78628">
        <ele>1021</ele>
        <time>2022-05-23 05:05:09</time>
      </trkpt>
      <trkpt lat="42.39154" lon="0.7863">
        <ele>1021</ele>
        <time>2022-05-23 05:05:10</time>
      </trkpt>
      <trkpt lat="42.39153" lon="0.78633">
        <ele>1021.2</ele>
        <time>2022-05-23 05:05:11</time>
      </trkpt>
      <trkpt lat="42.39152" lon="0.78635">
        <ele>1021.4</ele>
        <time>2022-05-23 05:05:12</time>
      </trkpt>
      <trkpt lat="42.39151" lon="0.78637">
        <ele>1021.6</ele>
        <time>2022-05-23 05:05:13</time>
      </trkpt>
      <trkpt lat="42.3915" lon="0.78639">
        <ele>1021.8</ele>
        <time>2022-05-23 05:05:14</time>
      </trkpt>
      <trkpt lat="42.39148" lon="0.78641">
        <ele>1022</ele>
        <time>2022-05-23 05:05:15</time>
      </trkpt>
      <trkpt lat="42.39147" lon="0.78643">
        <ele>1022.2</ele>
        <time>2022-05-23 05:05:16</time>
      </trkpt>
      <trkpt lat="42.39146" lon="0.78645">
        <ele>1022.4</ele>
        <time>2022-05-23 05:05:17</time>
      </trkpt>
      <trkpt lat="42.39144" lon="0.78647">
        <ele>1022.6</ele>
        <time>2022-05-23 05:05:18</time>
      </trkpt>
      <trkpt lat="42.39142" lon="0.7865">
        <ele>1022.8</ele>
        <time>2022-05-23 05:05:19</time>
      </trkpt>
      <trkpt lat="42.3914" lon="0.78652">
        <ele>1023</ele>
        <time>2022-05-23 05:05:20</time>
      </trkpt>
      <trkpt lat="42.39138" lon="0.78654">
        <ele>1023.2</ele>
        <time>2022-05-23 05:05:21</time>
      </trkpt>
      <trkpt lat="42.39136" lon="0.78657">
        <ele>1023.4</ele>
        <time>2022-05-23 05:05:22</time>
      </trkpt>
      <trkpt lat="42.39135" lon="0.7866">
        <ele>1023.6</ele>
        <time>2022-05-23 05:05:23</time>
      </trkpt>
      <trkpt lat="42.39133" lon="0.78663">
        <ele>1023.8</ele>
        <time>2022-05-23 05:05:24</time>
      </trkpt>
      <trkpt lat="42.39131" lon="0.78665">
        <ele>1024</ele>
        <time>2022-05-23 05:05:25</time>
      </trkpt>
      <trkpt lat="42.3913" lon="0.78668">
        <ele>1024.2</ele>
        <time>2022-05-23 05:05:26</time>
      </trkpt>
      <trkpt lat="42.39128" lon="0.78671">
        <ele>1024.4</ele>
        <time>2022-05-23 05:05:27</time>
      </trkpt>
      <trkpt lat="42.39127" lon="0.78674">
        <ele>1024.6</ele>
        <time>2022-05-23 05:05:28</time>
      </trkpt>
      <trkpt lat="42.39125" lon="0.78677">
        <ele>1024.6</ele>
        <time>2022-05-23 05:05:29</time>
      </trkpt>
      <trkpt lat="42.39124" lon="0.7868">
        <ele>1024.8</ele>
        <time>2022-05-23 05:05:30</time>
      </trkpt>
      <trkpt lat="42.39123" lon="0.78682">
        <ele>1025</ele>
        <time>2022-05-23 05:05:31</time>
      </trkpt>
      <trkpt lat="42.39122" lon="0.78685">
        <ele>1025.2</ele>
        <time>2022-05-23 05:05:32</time>
      </trkpt>
      <trkpt lat="42.39121" lon="0.78688">
        <ele>1025.4</ele>
        <time>2022-05-23 05:05:33</time>
      </trkpt>
      <trkpt lat="42.3912" lon="0.78691">
        <ele>1025.4</ele>
        <time>2022-05-23 05:05:34</time>
      </trkpt>
      <trkpt lat="42.39118" lon="0.78694">
        <ele>1025.6</ele>
        <time>2022-05-23 05:05:35</time>
      </trkpt>
      <trkpt lat="42.39117" lon="0.78697">
        <ele>1025.8</ele>
        <time>2022-05-23 05:05:36</time>
      </trkpt>
      <trkpt lat="42.39116" lon="0.78699">
        <ele>1025.8</ele>
        <time>2022-05-23 05:05:37</time>
      </trkpt>
      <trkpt lat="42.39114" lon="0.78702">
        <ele>1026</ele>
        <time>2022-05-23 05:05:38</time>
      </trkpt>
      <trkpt lat="42.39113" lon="0.78705">
        <ele>1026</ele>
        <time>2022-05-23 05:05:39</time>
      </trkpt>
      <trkpt lat="42.39111" lon="0.78707">
        <ele>1026.2</ele>
        <time>2022-05-23 05:05:40</time>
      </trkpt>
      <trkpt lat="42.39109" lon="0.78709">
        <ele>1026.2</ele>
        <time>2022-05-23 05:05:41</time>
      </trkpt>
      <trkpt lat="42.39107" lon="0.78711">
        <ele>1026.4</ele>
        <time>2022-05-23 05:05:42</time>
      </trkpt>
      <trkpt lat="42.39105" lon="0.78713">
        <ele>1026.4</ele>
        <time>2022-05-23 05:05:43</time>
      </trkpt>
      <trkpt lat="42.39103" lon="0.78714">
        <ele>1026.4</ele>
        <time>2022-05-23 05:05:44</time>
      </trkpt>
      <trkpt lat="42.39099" lon="0.78715">
        <ele>1026.6</ele>
        <time>2022-05-23 05:05:45</time>
      </trkpt>
      <trkpt lat="42.39096" lon="0.78716">
        <ele>1026.6</ele>
        <time>2022-05-23 05:05:46</time>
      </trkpt>
      <trkpt lat="42.39093" lon="0.78718">
        <ele>1026.6</ele>
        <time>2022-05-23 05:05:47</time>
      </trkpt>
      <trkpt lat="42.39091" lon="0.7872">
        <ele>1026.6</ele>
        <time>2022-05-23 05:05:48</time>
      </trkpt>
      <trkpt lat="42.39088" lon="0.78721">
        <ele>1026.8</ele>
        <time>2022-05-23 05:05:49</time>
      </trkpt>
      <trkpt lat="42.39085" lon="0.78722">
        <ele>1026.8</ele>
        <time>2022-05-23 05:05:50</time>
      </trkpt>
      <trkpt lat="42.39081" lon="0.78724">
        <ele>1026.8</ele>
        <time>2022-05-23 05:05:51</time>
      </trkpt>
      <trkpt lat="42.39078" lon="0.78726">
        <ele>1026.8</ele>
        <time>2022-05-23 05:05:52</time>
      </trkpt>
      <trkpt lat="42.39075" lon="0.78727">
        <ele>1026.8</ele>
        <time>2022-05-23 05:05:53</time>
      </trkpt>
      <trkpt lat="42.39073" lon="0.78729">
        <ele>1027</ele>
        <time>2022-05-23 05:05:54</time>
      </trkpt>
      <trkpt lat="42.3907" lon="0.78732">
        <ele>1027</ele>
        <time>2022-05-23 05:05:55</time>
      </trkpt>
      <trkpt lat="42.39068" lon="0.78734">
        <ele>1027.2</ele>
        <time>2022-05-23 05:05:56</time>
      </trkpt>
      <trkpt lat="42.39066" lon="0.78737">
        <ele>1027.2</ele>
        <time>2022-05-23 05:05:57</time>
      </trkpt>
      <trkpt lat="42.39064" lon="0.7874">
        <ele>1027.4</ele>
        <time>2022-05-23 05:05:58</time>
      </trkpt>
      <trkpt lat="42.39063" lon="0.78743">
        <ele>1027.6</ele>
        <time>2022-05-23 05:05:59</time>
      </trkpt>
      <trkpt lat="42.39061" lon="0.78745">
        <ele>1027.6</ele>
        <time>2022-05-23 05:06:00</time>
      </trkpt>
      <trkpt lat="42.39059" lon="0.78748">
        <ele>1027.8</ele>
        <time>2022-05-23 05:06:01</time>
      </trkpt>
      <trkpt lat="42.39057" lon="0.7875">
        <ele>1028</ele>
        <time>2022-05-23 05:06:02</time>
      </trkpt>
      <trkpt lat="42.39056" lon="0.78753">
        <ele>1028</ele>
        <time>2022-05-23 05:06:03</time>
      </trkpt>
      <trkpt lat="42.39054" lon="0.78755">
        <ele>1028.2</ele>
        <time>2022-05-23 05:06:04</time>
      </trkpt>
      <trkpt lat="42.39052" lon="0.78757">
        <ele>1028.4</ele>
        <time>2022-05-23 05:06:05</time>
      </trkpt>
      <trkpt lat="42.3905" lon="0.78758">
        <ele>1028.6</ele>
        <time>2022-05-23 05:06:06</time>
      </trkpt>
      <trkpt lat="42.39047" lon="0.7876">
        <ele>1028.8</ele>
        <time>2022-05-23 05:06:07</time>
      </trkpt>
      <trkpt lat="42.39045" lon="0.78762">
        <ele>1029</ele>
        <time>2022-05-23 05:06:08</time>
      </trkpt>
      <trkpt lat="42.39043" lon="0.78764">
        <ele>1029.2</ele>
        <time>2022-05-23 05:06:09</time>
      </trkpt>
      <trkpt lat="42.39041" lon="0.78765">
        <ele>1029.4</ele>
        <time>2022-05-23 05:06:10</time>
      </trkpt>
      <trkpt lat="42.39039" lon="0.78766">
        <ele>1029.4</ele>
        <time>2022-05-23 05:06:11</time>
      </trkpt>
      <trkpt lat="42.39037" lon="0.78767">
        <ele>1029.6</ele>
        <time>2022-05-23 05:06:12</time>
      </trkpt>
      <trkpt lat="42.39035" lon="0.78767">
        <ele>1029.8</ele>
        <time>2022-05-23 05:06:13</time>
      </trkpt>
      <trkpt lat="42.39033" lon="0.78767">
        <ele>1030</ele>
        <time>2022-05-23 05:06:14</time>
      </trkpt>
      <trkpt lat="42.39031" lon="0.78767">
        <ele>1030.2</ele>
        <time>2022-05-23 05:06:15</time>
      </trkpt>
      <trkpt lat="42.39029" lon="0.78767">
        <ele>1030.4</ele>
        <time>2022-05-23 05:06:16</time>
      </trkpt>
      <trkpt lat="42.39027" lon="0.78767">
        <ele>1030.6</ele>
        <time>2022-05-23 05:06:17</time>
      </trkpt>
      <trkpt lat="42.39026" lon="0.78767">
        <ele>1030.8</ele>
        <time>2022-05-23 05:06:18</time>
      </trkpt>
      <trkpt lat="42.39024" lon="0.78767">
        <ele>1031</ele>
        <time>2022-05-23 05:06:19</time>
      </trkpt>
      <trkpt lat="42.39022" lon="0.78766">
        <ele>1031.2</ele>
        <time>2022-05-23 05:06:20</time>
      </trkpt>
      <trkpt lat="42.39021" lon="0.78766">
        <ele>1031.4</ele>
        <time>2022-05-23 05:06:21</time>
      </trkpt>
      <trkpt lat="42.39019" lon="0.78765">
        <ele>1031.6</ele>
        <time>2022-05-23 05:06:22</time>
      </trkpt>
      <trkpt lat="42.39017" lon="0.78765">
        <ele>1031.8</ele>
        <time>2022-05-23 05:06:23</time>
      </trkpt>
      <trkpt lat="42.39015" lon="0.78763">
        <ele>1032</ele>
        <time>2022-05-23 05:06:24</time>
      </trkpt>
      <trkpt lat="42.39013" lon="0.78763">
        <ele>1032.2</ele>
        <time>2022-05-23 05:06:25</time>
      </trkpt>
      <trkpt lat="42.39012" lon="0.78762">
        <ele>1032.4</ele>
        <time>2022-05-23 05:06:26</time>
      </trkpt>
      <trkpt lat="42.3901" lon="0.78762">
        <ele>1032.6</ele>
        <time>2022-05-23 05:06:27</time>
      </trkpt>
      <trkpt lat="42.39008" lon="0.78762">
        <ele>1032.8</ele>
        <time>2022-05-23 05:06:28</time>
      </trkpt>
      <trkpt lat="42.39006" lon="0.78761">
        <ele>1033</ele>
        <time>2022-05-23 05:06:29</time>
      </trkpt>
      <trkpt lat="42.39004" lon="0.78761">
        <ele>1033.2</ele>
        <time>2022-05-23 05:06:30</time>
      </trkpt>
      <trkpt lat="42.39002" lon="0.78761">
        <ele>1033.4</ele>
        <time>2022-05-23 05:06:31</time>
      </trkpt>
      <trkpt lat="42.39001" lon="0.7876">
        <ele>1033.6</ele>
        <time>2022-05-23 05:06:32</time>
      </trkpt>
      <trkpt lat="42.38999" lon="0.78759">
        <ele>1033.6</ele>
        <time>2022-05-23 05:06:33</time>
      </trkpt>
      <trkpt lat="42.38998" lon="0.78759">
        <ele>1033.8</ele>
        <time>2022-05-23 05:06:34</time>
      </trkpt>
      <trkpt lat="42.38998" lon="0.78757">
        <ele>1034</ele>
        <time>2022-05-23 05:06:35</time>
      </trkpt>
      <trkpt lat="42.38996" lon="0.78757">
        <ele>1034.2</ele>
        <time>2022-05-23 05:06:36</time>
      </trkpt>
      <trkpt lat="42.38995" lon="0.78757">
        <ele>1034.4</ele>
        <time>2022-05-23 05:06:37</time>
      </trkpt>
      <trkpt lat="42.38993" lon="0.78757">
        <ele>1034.6</ele>
        <time>2022-05-23 05:06:38</time>
      </trkpt>
      <trkpt lat="42.38991" lon="0.78757">
        <ele>1034.8</ele>
        <time>2022-05-23 05:06:39</time>
      </trkpt>
      <trkpt lat="42.38988" lon="0.78758">
        <ele>1035</ele>
        <time>2022-05-23 05:06:40</time>
      </trkpt>
      <trkpt lat="42.38985" lon="0.7876">
        <ele>1035.2</ele>
        <time>2022-05-23 05:06:41</time>
      </trkpt>
      <trkpt lat="42.38983" lon="0.78762">
        <ele>1035.4</ele>
        <time>2022-05-23 05:06:42</time>
      </trkpt>
      <trkpt lat="42.3898" lon="0.78763">
        <ele>1035.6</ele>
        <time>2022-05-23 05:06:43</time>
      </trkpt>
      <trkpt lat="42.38978" lon="0.78763">
        <ele>1035.8</ele>
        <time>2022-05-23 05:06:44</time>
      </trkpt>
      <trkpt lat="42.38976" lon="0.78763">
        <ele>1036</ele>
        <time>2022-05-23 05:06:45</time>
      </trkpt>
      <trkpt lat="42.38973" lon="0.78764">
        <ele>1036.2</ele>
        <time>2022-05-23 05:06:46</time>
      </trkpt>
      <trkpt lat="42.38971" lon="0.78764">
        <ele>1036.6</ele>
        <time>2022-05-23 05:06:47</time>
      </trkpt>
      <trkpt lat="42.38969" lon="0.78764">
        <ele>1036.8</ele>
        <time>2022-05-23 05:06:48</time>
      </trkpt>
      <trkpt lat="42.38967" lon="0.78764">
        <ele>1037</ele>
        <time>2022-05-23 05:06:49</time>
      </trkpt>
      <trkpt lat="42.38965" lon="0.78765">
        <ele>1037.2</ele>
        <time>2022-05-23 05:06:50</time>
      </trkpt>
      <trkpt lat="42.38962" lon="0.78765">
        <ele>1037.4</ele>
        <time>2022-05-23 05:06:51</time>
      </trkpt>
      <trkpt lat="42.3896" lon="0.78766">
        <ele>1037.8</ele>
        <time>2022-05-23 05:06:52</time>
      </trkpt>
      <trkpt lat="42.38958" lon="0.78767">
        <ele>1038</ele>
        <time>2022-05-23 05:06:53</time>
      </trkpt>
      <trkpt lat="42.38956" lon="0.78769">
        <ele>1038.2</ele>
        <time>2022-05-23 05:06:54</time>
      </trkpt>
      <trkpt lat="42.38954" lon="0.78771">
        <ele>1038.4</ele>
        <time>2022-05-23 05:06:55</time>
      </trkpt>
      <trkpt lat="42.38951" lon="0.78772">
        <ele>1038.8</ele>
        <time>2022-05-23 05:06:56</time>
      </trkpt>
      <trkpt lat="42.38949" lon="0.78773">
        <ele>1039</ele>
        <time>2022-05-23 05:06:57</time>
      </trkpt>
      <trkpt lat="42.38946" lon="0.78775">
        <ele>1039.2</ele>
        <time>2022-05-23 05:06:58</time>
      </trkpt>
      <trkpt lat="42.38944" lon="0.78776">
        <ele>1039.4</ele>
        <time>2022-05-23 05:06:59</time>
      </trkpt>
      <trkpt lat="42.38942" lon="0.78778">
        <ele>1039.6</ele>
        <time>2022-05-23 05:07:00</time>
      </trkpt>
      <trkpt lat="42.3894" lon="0.78779">
        <ele>1040</ele>
        <time>2022-05-23 05:07:01</time>
      </trkpt>
      <trkpt lat="42.38938" lon="0.78781">
        <ele>1040.2</ele>
        <time>2022-05-23 05:07:02</time>
      </trkpt>
      <trkpt lat="42.38937" lon="0.78782">
        <ele>1040.4</ele>
        <time>2022-05-23 05:07:03</time>
      </trkpt>
      <trkpt lat="42.38935" lon="0.78783">
        <ele>1040.6</ele>
        <time>2022-05-23 05:07:04</time>
      </trkpt>
      <trkpt lat="42.38934" lon="0.78784">
        <ele>1040.8</ele>
        <time>2022-05-23 05:07:05</time>
      </trkpt>
      <trkpt lat="42.38932" lon="0.78785">
        <ele>1041</ele>
        <time>2022-05-23 05:07:06</time>
      </trkpt>
      <trkpt lat="42.3893" lon="0.78786">
        <ele>1041.2</ele>
        <time>2022-05-23 05:07:07</time>
      </trkpt>
      <trkpt lat="42.38929" lon="0.78787">
        <ele>1041.2</ele>
        <time>2022-05-23 05:07:08</time>
      </trkpt>
      <trkpt lat="42.38928" lon="0.78789">
        <ele>1041.4</ele>
        <time>2022-05-23 05:07:09</time>
      </trkpt>
      <trkpt lat="42.38926" lon="0.7879">
        <ele>1041.6</ele>
        <time>2022-05-23 05:07:10</time>
      </trkpt>
      <trkpt lat="42.38925" lon="0.78791">
        <ele>1041.8</ele>
        <time>2022-05-23 05:07:11</time>
      </trkpt>
      <trkpt lat="42.38923" lon="0.78793">
        <ele>1042</ele>
        <time>2022-05-23 05:07:12</time>
      </trkpt>
      <trkpt lat="42.38922" lon="0.78794">
        <ele>1042.2</ele>
        <time>2022-05-23 05:07:13</time>
      </trkpt>
      <trkpt lat="42.38921" lon="0.78796">
        <ele>1042.4</ele>
        <time>2022-05-23 05:07:14</time>
      </trkpt>
      <trkpt lat="42.38919" lon="0.78798">
        <ele>1042.4</ele>
        <time>2022-05-23 05:07:15</time>
      </trkpt>
      <trkpt lat="42.38917" lon="0.78799">
        <ele>1042.6</ele>
        <time>2022-05-23 05:07:16</time>
      </trkpt>
      <trkpt lat="42.38916" lon="0.78801">
        <ele>1042.8</ele>
        <time>2022-05-23 05:07:17</time>
      </trkpt>
      <trkpt lat="42.38914" lon="0.78802">
        <ele>1043</ele>
        <time>2022-05-23 05:07:18</time>
      </trkpt>
      <trkpt lat="42.38912" lon="0.78804">
        <ele>1043.2</ele>
        <time>2022-05-23 05:07:19</time>
      </trkpt>
      <trkpt lat="42.38911" lon="0.78805">
        <ele>1043.4</ele>
        <time>2022-05-23 05:07:20</time>
      </trkpt>
      <trkpt lat="42.38909" lon="0.78807">
        <ele>1043.4</ele>
        <time>2022-05-23 05:07:21</time>
      </trkpt>
      <trkpt lat="42.38908" lon="0.78808">
        <ele>1043.6</ele>
        <time>2022-05-23 05:07:22</time>
      </trkpt>
      <trkpt lat="42.38906" lon="0.7881">
        <ele>1043.8</ele>
        <time>2022-05-23 05:07:23</time>
      </trkpt>
      <trkpt lat="42.38905" lon="0.78811">
        <ele>1044</ele>
        <time>2022-05-23 05:07:24</time>
      </trkpt>
      <trkpt lat="42.38904" lon="0.78813">
        <ele>1044.2</ele>
        <time>2022-05-23 05:07:25</time>
      </trkpt>
      <trkpt lat="42.38902" lon="0.78814">
        <ele>1044.4</ele>
        <time>2022-05-23 05:07:26</time>
      </trkpt>
      <trkpt lat="42.38901" lon="0.78815">
        <ele>1044.6</ele>
        <time>2022-05-23 05:07:27</time>
      </trkpt>
      <trkpt lat="42.389" lon="0.78817">
        <ele>1044.8</ele>
        <time>2022-05-23 05:07:28</time>
      </trkpt>
      <trkpt lat="42.38898" lon="0.78818">
        <ele>1045</ele>
        <time>2022-05-23 05:07:29</time>
      </trkpt>
      <trkpt lat="42.38897" lon="0.78819">
        <ele>1045</ele>
        <time>2022-05-23 05:07:30</time>
      </trkpt>
      <trkpt lat="42.38895" lon="0.78821">
        <ele>1045.2</ele>
        <time>2022-05-23 05:07:31</time>
      </trkpt>
      <trkpt lat="42.38894" lon="0.78822">
        <ele>1045.4</ele>
        <time>2022-05-23 05:07:32</time>
      </trkpt>
      <trkpt lat="42.38892" lon="0.78823">
        <ele>1045.6</ele>
        <time>2022-05-23 05:07:33</time>
      </trkpt>
      <trkpt lat="42.38891" lon="0.78825">
        <ele>1045.8</ele>
        <time>2022-05-23 05:07:34</time>
      </trkpt>
      <trkpt lat="42.38889" lon="0.78826">
        <ele>1046</ele>
        <time>2022-05-23 05:07:35</time>
      </trkpt>
      <trkpt lat="42.38887" lon="0.78827">
        <ele>1046.2</ele>
        <time>2022-05-23 05:07:36</time>
      </trkpt>
      <trkpt lat="42.38885" lon="0.78828">
        <ele>1046.4</ele>
        <time>2022-05-23 05:07:37</time>
      </trkpt>
      <trkpt lat="42.38884" lon="0.78829">
        <ele>1046.6</ele>
        <time>2022-05-23 05:07:38</time>
      </trkpt>
      <trkpt lat="42.38883" lon="0.7883">
        <ele>1046.8</ele>
        <time>2022-05-23 05:07:39</time>
      </trkpt>
      <trkpt lat="42.38881" lon="0.78831">
        <ele>1047</ele>
        <time>2022-05-23 05:07:40</time>
      </trkpt>
      <trkpt lat="42.38879" lon="0.78833">
        <ele>1047.2</ele>
        <time>2022-05-23 05:07:41</time>
      </trkpt>
      <trkpt lat="42.38877" lon="0.78833">
        <ele>1047.4</ele>
        <time>2022-05-23 05:07:42</time>
      </trkpt>
      <trkpt lat="42.38876" lon="0.78834">
        <ele>1047.6</ele>
        <time>2022-05-23 05:07:43</time>
      </trkpt>
      <trkpt lat="42.38874" lon="0.78835">
        <ele>1047.8</ele>
        <time>2022-05-23 05:07:44</time>
      </trkpt>
      <trkpt lat="42.38872" lon="0.78836">
        <ele>1048</ele>
        <time>2022-05-23 05:07:45</time>
      </trkpt>
      <trkpt lat="42.3887" lon="0.78836">
        <ele>1048.2</ele>
        <time>2022-05-23 05:07:46</time>
      </trkpt>
      <trkpt lat="42.38868" lon="0.78836">
        <ele>1048.4</ele>
        <time>2022-05-23 05:07:47</time>
      </trkpt>
      <trkpt lat="42.38866" lon="0.78836">
        <ele>1048.6</ele>
        <time>2022-05-23 05:07:48</time>
      </trkpt>
      <trkpt lat="42.38865" lon="0.78836">
        <ele>1048.8</ele>
        <time>2022-05-23 05:07:49</time>
      </trkpt>
      <trkpt lat="42.38863" lon="0.78835">
        <ele>1049</ele>
        <time>2022-05-23 05:07:50</time>
      </trkpt>
      <trkpt lat="42.38862" lon="0.78834">
        <ele>1049.2</ele>
        <time>2022-05-23 05:07:51</time>
      </trkpt>
      <trkpt lat="42.3886" lon="0.78834">
        <ele>1049.2</ele>
        <time>2022-05-23 05:07:52</time>
      </trkpt>
      <trkpt lat="42.38859" lon="0.78833">
        <ele>1049.4</ele>
        <time>2022-05-23 05:07:53</time>
      </trkpt>
      <trkpt lat="42.38858" lon="0.78833">
        <ele>1049.6</ele>
        <time>2022-05-23 05:07:54</time>
      </trkpt>
      <trkpt lat="42.38856" lon="0.78832">
        <ele>1049.8</ele>
        <time>2022-05-23 05:07:55</time>
      </trkpt>
      <trkpt lat="42.38855" lon="0.78831">
        <ele>1050</ele>
        <time>2022-05-23 05:07:56</time>
      </trkpt>
      <trkpt lat="42.38854" lon="0.7883">
        <ele>1050.2</ele>
        <time>2022-05-23 05:07:57</time>
      </trkpt>
      <trkpt lat="42.38853" lon="0.78829">
        <ele>1050.4</ele>
        <time>2022-05-23 05:07:58</time>
      </trkpt>
      <trkpt lat="42.38851" lon="0.78828">
        <ele>1050.6</ele>
        <time>2022-05-23 05:07:59</time>
      </trkpt>
      <trkpt lat="42.3885" lon="0.78828">
        <ele>1050.8</ele>
        <time>2022-05-23 05:08:00</time>
      </trkpt>
      <trkpt lat="42.38848" lon="0.78827">
        <ele>1051</ele>
        <time>2022-05-23 05:08:01</time>
      </trkpt>
      <trkpt lat="42.38847" lon="0.78826">
        <ele>1051.2</ele>
        <time>2022-05-23 05:08:02</time>
      </trkpt>
      <trkpt lat="42.38845" lon="0.78825">
        <ele>1051.4</ele>
        <time>2022-05-23 05:08:03</time>
      </trkpt>
      <trkpt lat="42.38844" lon="0.78825">
        <ele>1051.6</ele>
        <time>2022-05-23 05:08:04</time>
      </trkpt>
      <trkpt lat="42.38842" lon="0.78824">
        <ele>1051.8</ele>
        <time>2022-05-23 05:08:05</time>
      </trkpt>
      <trkpt lat="42.38841" lon="0.78823">
        <ele>1051.8</ele>
        <time>2022-05-23 05:08:06</time>
      </trkpt>
      <trkpt lat="42.38839" lon="0.78822">
        <ele>1052</ele>
        <time>2022-05-23 05:08:07</time>
      </trkpt>
      <trkpt lat="42.38838" lon="0.78822">
        <ele>1052.2</ele>
        <time>2022-05-23 05:08:08</time>
      </trkpt>
      <trkpt lat="42.38837" lon="0.78821">
        <ele>1052.4</ele>
        <time>2022-05-23 05:08:09</time>
      </trkpt>
      <trkpt lat="42.38835" lon="0.78821">
        <ele>1052.6</ele>
        <time>2022-05-23 05:08:10</time>
      </trkpt>
      <trkpt lat="42.38834" lon="0.78821">
        <ele>1052.8</ele>
        <time>2022-05-23 05:08:11</time>
      </trkpt>
      <trkpt lat="42.38832" lon="0.78821">
        <ele>1052.8</ele>
        <time>2022-05-23 05:08:12</time>
      </trkpt>
      <trkpt lat="42.3883" lon="0.78821">
        <ele>1053</ele>
        <time>2022-05-23 05:08:13</time>
      </trkpt>
      <trkpt lat="42.38829" lon="0.78821">
        <ele>1053.2</ele>
        <time>2022-05-23 05:08:14</time>
      </trkpt>
      <trkpt lat="42.38827" lon="0.78821">
        <ele>1053.4</ele>
        <time>2022-05-23 05:08:15</time>
      </trkpt>
      <trkpt lat="42.38826" lon="0.78821">
        <ele>1053.6</ele>
        <time>2022-05-23 05:08:16</time>
      </trkpt>
      <trkpt lat="42.38825" lon="0.78821">
        <ele>1053.6</ele>
        <time>2022-05-23 05:08:17</time>
      </trkpt>
      <trkpt lat="42.38822" lon="0.78821">
        <ele>1053.8</ele>
        <time>2022-05-23 05:08:18</time>
      </trkpt>
      <trkpt lat="42.38821" lon="0.78822">
        <ele>1054</ele>
        <time>2022-05-23 05:08:19</time>
      </trkpt>
      <trkpt lat="42.38819" lon="0.78822">
        <ele>1054.2</ele>
        <time>2022-05-23 05:08:20</time>
      </trkpt>
      <trkpt lat="42.38817" lon="0.78822">
        <ele>1054.2</ele>
        <time>2022-05-23 05:08:21</time>
      </trkpt>
      <trkpt lat="42.38816" lon="0.78822">
        <ele>1054.4</ele>
        <time>2022-05-23 05:08:22</time>
      </trkpt>
      <trkpt lat="42.38814" lon="0.78823">
        <ele>1054.6</ele>
        <time>2022-05-23 05:08:23</time>
      </trkpt>
      <trkpt lat="42.38813" lon="0.78823">
        <ele>1054.6</ele>
        <time>2022-05-23 05:08:24</time>
      </trkpt>
      <trkpt lat="42.38811" lon="0.78823">
        <ele>1054.8</ele>
        <time>2022-05-23 05:08:25</time>
      </trkpt>
      <trkpt lat="42.38809" lon="0.78823">
        <ele>1055</ele>
        <time>2022-05-23 05:08:26</time>
      </trkpt>
      <trkpt lat="42.38808" lon="0.78822">
        <ele>1055.2</ele>
        <time>2022-05-23 05:08:27</time>
      </trkpt>
      <trkpt lat="42.38806" lon="0.78822">
        <ele>1055.2</ele>
        <time>2022-05-23 05:08:28</time>
      </trkpt>
      <trkpt lat="42.38805" lon="0.78822">
        <ele>1055.4</ele>
        <time>2022-05-23 05:08:29</time>
      </trkpt>
      <trkpt lat="42.38803" lon="0.78823">
        <ele>1055.6</ele>
        <time>2022-05-23 05:08:30</time>
      </trkpt>
      <trkpt lat="42.38801" lon="0.78824">
        <ele>1055.6</ele>
        <time>2022-05-23 05:08:31</time>
      </trkpt>
      <trkpt lat="42.388" lon="0.78825">
        <ele>1055.8</ele>
        <time>2022-05-23 05:08:32</time>
      </trkpt>
      <trkpt lat="42.38798" lon="0.78825">
        <ele>1056</ele>
        <time>2022-05-23 05:08:33</time>
      </trkpt>
      <trkpt lat="42.38797" lon="0.78826">
        <ele>1056.2</ele>
        <time>2022-05-23 05:08:34</time>
      </trkpt>
      <trkpt lat="42.38795" lon="0.78827">
        <ele>1056.2</ele>
        <time>2022-05-23 05:08:35</time>
      </trkpt>
      <trkpt lat="42.38793" lon="0.78827">
        <ele>1056.4</ele>
        <time>2022-05-23 05:08:36</time>
      </trkpt>
      <trkpt lat="42.38792" lon="0.78827">
        <ele>1056.6</ele>
        <time>2022-05-23 05:08:37</time>
      </trkpt>
      <trkpt lat="42.38791" lon="0.78828">
        <ele>1056.8</ele>
        <time>2022-05-23 05:08:38</time>
      </trkpt>
      <trkpt lat="42.38789" lon="0.78828">
        <ele>1056.8</ele>
        <time>2022-05-23 05:08:39</time>
      </trkpt>
      <trkpt lat="42.38788" lon="0.78829">
        <ele>1057</ele>
        <time>2022-05-23 05:08:40</time>
      </trkpt>
      <trkpt lat="42.38785" lon="0.7883">
        <ele>1057.2</ele>
        <time>2022-05-23 05:08:41</time>
      </trkpt>
      <trkpt lat="42.38784" lon="0.78832">
        <ele>1057.4</ele>
        <time>2022-05-23 05:08:42</time>
      </trkpt>
      <trkpt lat="42.38782" lon="0.78833">
        <ele>1057.6</ele>
        <time>2022-05-23 05:08:43</time>
      </trkpt>
      <trkpt lat="42.38781" lon="0.78834">
        <ele>1057.6</ele>
        <time>2022-05-23 05:08:44</time>
      </trkpt>
      <trkpt lat="42.38779" lon="0.78835">
        <ele>1057.8</ele>
        <time>2022-05-23 05:08:45</time>
      </trkpt>
      <trkpt lat="42.38777" lon="0.78836">
        <ele>1058</ele>
        <time>2022-05-23 05:08:46</time>
      </trkpt>
      <trkpt lat="42.38776" lon="0.78837">
        <ele>1058</ele>
        <time>2022-05-23 05:08:47</time>
      </trkpt>
      <trkpt lat="42.38774" lon="0.78838">
        <ele>1058.2</ele>
        <time>2022-05-23 05:08:48</time>
      </trkpt>
      <trkpt lat="42.38772" lon="0.78839">
        <ele>1058.4</ele>
        <time>2022-05-23 05:08:49</time>
      </trkpt>
      <trkpt lat="42.38771" lon="0.7884">
        <ele>1058.6</ele>
        <time>2022-05-23 05:08:50</time>
      </trkpt>
      <trkpt lat="42.3877" lon="0.78841">
        <ele>1058.6</ele>
        <time>2022-05-23 05:08:51</time>
      </trkpt>
      <trkpt lat="42.38769" lon="0.78841">
        <ele>1058.8</ele>
        <time>2022-05-23 05:08:52</time>
      </trkpt>
      <trkpt lat="42.38768" lon="0.78842">
        <ele>1059</ele>
        <time>2022-05-23 05:08:53</time>
      </trkpt>
      <trkpt lat="42.38768" lon="0.78842">
        <ele>1059</ele>
        <time>2022-05-23 05:08:54</time>
      </trkpt>
      <trkpt lat="42.38768" lon="0.78842">
        <ele>1059.2</ele>
        <time>2022-05-23 05:08:55</time>
      </trkpt>
      <trkpt lat="42.38768" lon="0.78842">
        <ele>1059.4</ele>
        <time>2022-05-23 05:08:56</time>
      </trkpt>
      <trkpt lat="42.38762" lon="0.78844">
        <ele>1059.4</ele>
        <time>2022-05-23 05:08:57</time>
      </trkpt>
      <trkpt lat="42.3876" lon="0.78845">
        <ele>1059.6</ele>
        <time>2022-05-23 05:08:58</time>
      </trkpt>
      <trkpt lat="42.38758" lon="0.78847">
        <ele>1059.8</ele>
        <time>2022-05-23 05:08:59</time>
      </trkpt>
      <trkpt lat="42.38757" lon="0.78847">
        <ele>1059.8</ele>
        <time>2022-05-23 05:09:00</time>
      </trkpt>
      <trkpt lat="42.38755" lon="0.78848">
        <ele>1060</ele>
        <time>2022-05-23 05:09:01</time>
      </trkpt>
      <trkpt lat="42.38753" lon="0.7885">
        <ele>1060</ele>
        <time>2022-05-23 05:09:02</time>
      </trkpt>
      <trkpt lat="42.38752" lon="0.78851">
        <ele>1060.2</ele>
        <time>2022-05-23 05:09:03</time>
      </trkpt>
      <trkpt lat="42.3875" lon="0.78852">
        <ele>1060.4</ele>
        <time>2022-05-23 05:09:04</time>
      </trkpt>
      <trkpt lat="42.38748" lon="0.78854">
        <ele>1060.4</ele>
        <time>2022-05-23 05:09:05</time>
      </trkpt>
      <trkpt lat="42.38747" lon="0.78855">
        <ele>1060.6</ele>
        <time>2022-05-23 05:09:06</time>
      </trkpt>
      <trkpt lat="42.38744" lon="0.78857">
        <ele>1060.8</ele>
        <time>2022-05-23 05:09:07</time>
      </trkpt>
      <trkpt lat="42.38742" lon="0.78858">
        <ele>1061</ele>
        <time>2022-05-23 05:09:08</time>
      </trkpt>
      <trkpt lat="42.3874" lon="0.78859">
        <ele>1061.2</ele>
        <time>2022-05-23 05:09:09</time>
      </trkpt>
      <trkpt lat="42.38739" lon="0.78861">
        <ele>1061.4</ele>
        <time>2022-05-23 05:09:10</time>
      </trkpt>
      <trkpt lat="42.38737" lon="0.78861">
        <ele>1061.4</ele>
        <time>2022-05-23 05:09:11</time>
      </trkpt>
      <trkpt lat="42.38735" lon="0.78862">
        <ele>1061.6</ele>
        <time>2022-05-23 05:09:12</time>
      </trkpt>
      <trkpt lat="42.38733" lon="0.78863">
        <ele>1061.8</ele>
        <time>2022-05-23 05:09:13</time>
      </trkpt>
      <trkpt lat="42.38731" lon="0.78864">
        <ele>1062</ele>
        <time>2022-05-23 05:09:14</time>
      </trkpt>
      <trkpt lat="42.38729" lon="0.78866">
        <ele>1062</ele>
        <time>2022-05-23 05:09:15</time>
      </trkpt>
      <trkpt lat="42.38727" lon="0.78867">
        <ele>1062.2</ele>
        <time>2022-05-23 05:09:16</time>
      </trkpt>
      <trkpt lat="42.38725" lon="0.78868">
        <ele>1062.4</ele>
        <time>2022-05-23 05:09:17</time>
      </trkpt>
      <trkpt lat="42.38723" lon="0.78869">
        <ele>1062.6</ele>
        <time>2022-05-23 05:09:18</time>
      </trkpt>
      <trkpt lat="42.38721" lon="0.7887">
        <ele>1062.6</ele>
        <time>2022-05-23 05:09:19</time>
      </trkpt>
      <trkpt lat="42.3872" lon="0.78871">
        <ele>1062.8</ele>
        <time>2022-05-23 05:09:20</time>
      </trkpt>
      <trkpt lat="42.38718" lon="0.78872">
        <ele>1063</ele>
        <time>2022-05-23 05:09:21</time>
      </trkpt>
      <trkpt lat="42.38716" lon="0.78875">
        <ele>1063</ele>
        <time>2022-05-23 05:09:22</time>
      </trkpt>
      <trkpt lat="42.38714" lon="0.78877">
        <ele>1063.2</ele>
        <time>2022-05-23 05:09:23</time>
      </trkpt>
      <trkpt lat="42.38713" lon="0.7888">
        <ele>1063.4</ele>
        <time>2022-05-23 05:09:24</time>
      </trkpt>
      <trkpt lat="42.38712" lon="0.78883">
        <ele>1063.4</ele>
        <time>2022-05-23 05:09:25</time>
      </trkpt>
      <trkpt lat="42.38711" lon="0.78885">
        <ele>1063.6</ele>
        <time>2022-05-23 05:09:26</time>
      </trkpt>
      <trkpt lat="42.3871" lon="0.78886">
        <ele>1063.8</ele>
        <time>2022-05-23 05:09:27</time>
      </trkpt>
      <trkpt lat="42.38708" lon="0.78888">
        <ele>1063.8</ele>
        <time>2022-05-23 05:09:28</time>
      </trkpt>
      <trkpt lat="42.38707" lon="0.7889">
        <ele>1064</ele>
        <time>2022-05-23 05:09:29</time>
      </trkpt>
      <trkpt lat="42.38705" lon="0.78892">
        <ele>1064</ele>
        <time>2022-05-23 05:09:30</time>
      </trkpt>
      <trkpt lat="42.38704" lon="0.78894">
        <ele>1064.2</ele>
        <time>2022-05-23 05:09:31</time>
      </trkpt>
      <trkpt lat="42.38703" lon="0.78896">
        <ele>1064.2</ele>
        <time>2022-05-23 05:09:32</time>
      </trkpt>
      <trkpt lat="42.38701" lon="0.78898">
        <ele>1064.4</ele>
        <time>2022-05-23 05:09:33</time>
      </trkpt>
      <trkpt lat="42.387" lon="0.78901">
        <ele>1064.6</ele>
        <time>2022-05-23 05:09:34</time>
      </trkpt>
      <trkpt lat="42.38698" lon="0.78903">
        <ele>1064.6</ele>
        <time>2022-05-23 05:09:35</time>
      </trkpt>
      <trkpt lat="42.38697" lon="0.78905">
        <ele>1064.8</ele>
        <time>2022-05-23 05:09:36</time>
      </trkpt>
      <trkpt lat="42.38695" lon="0.78907">
        <ele>1064.8</ele>
        <time>2022-05-23 05:09:37</time>
      </trkpt>
      <trkpt lat="42.38694" lon="0.78909">
        <ele>1065</ele>
        <time>2022-05-23 05:09:38</time>
      </trkpt>
      <trkpt lat="42.38693" lon="0.78911">
        <ele>1065</ele>
        <time>2022-05-23 05:09:39</time>
      </trkpt>
      <trkpt lat="42.38691" lon="0.78912">
        <ele>1065.2</ele>
        <time>2022-05-23 05:09:40</time>
      </trkpt>
      <trkpt lat="42.3869" lon="0.78914">
        <ele>1065.4</ele>
        <time>2022-05-23 05:09:41</time>
      </trkpt>
      <trkpt lat="42.38689" lon="0.78915">
        <ele>1065.4</ele>
        <time>2022-05-23 05:09:42</time>
      </trkpt>
      <trkpt lat="42.38687" lon="0.78915">
        <ele>1065.6</ele>
        <time>2022-05-23 05:09:43</time>
      </trkpt>
      <trkpt lat="42.38686" lon="0.78915">
        <ele>1065.8</ele>
        <time>2022-05-23 05:09:44</time>
      </trkpt>
      <trkpt lat="42.38684" lon="0.78915">
        <ele>1065.8</ele>
        <time>2022-05-23 05:09:45</time>
      </trkpt>
      <trkpt lat="42.38682" lon="0.78915">
        <ele>1066</ele>
        <time>2022-05-23 05:09:46</time>
      </trkpt>
      <trkpt lat="42.38681" lon="0.78915">
        <ele>1066.2</ele>
        <time>2022-05-23 05:09:47</time>
      </trkpt>
      <trkpt lat="42.38679" lon="0.78915">
        <ele>1066.4</ele>
        <time>2022-05-23 05:09:48</time>
      </trkpt>
      <trkpt lat="42.38677" lon="0.78913">
        <ele>1066.6</ele>
        <time>2022-05-23 05:09:49</time>
      </trkpt>
      <trkpt lat="42.38676" lon="0.78912">
        <ele>1066.8</ele>
        <time>2022-05-23 05:09:50</time>
      </trkpt>
      <trkpt lat="42.38675" lon="0.7891">
        <ele>1067</ele>
        <time>2022-05-23 05:09:51</time>
      </trkpt>
      <trkpt lat="42.38674" lon="0.78909">
        <ele>1067.2</ele>
        <time>2022-05-23 05:09:52</time>
      </trkpt>
      <trkpt lat="42.38673" lon="0.78907">
        <ele>1067.4</ele>
        <time>2022-05-23 05:09:53</time>
      </trkpt>
      <trkpt lat="42.38673" lon="0.78904">
        <ele>1067.6</ele>
        <time>2022-05-23 05:09:54</time>
      </trkpt>
      <trkpt lat="42.38672" lon="0.78902">
        <ele>1067.8</ele>
        <time>2022-05-23 05:09:55</time>
      </trkpt>
      <trkpt lat="42.38672" lon="0.789">
        <ele>1068</ele>
        <time>2022-05-23 05:09:56</time>
      </trkpt>
      <trkpt lat="42.38672" lon="0.78898">
        <ele>1068.2</ele>
        <time>2022-05-23 05:09:57</time>
      </trkpt>
      <trkpt lat="42.38672" lon="0.78896">
        <ele>1068.4</ele>
        <time>2022-05-23 05:09:58</time>
      </trkpt>
      <trkpt lat="42.38672" lon="0.78895">
        <ele>1068.6</ele>
        <time>2022-05-23 05:09:59</time>
      </trkpt>
      <trkpt lat="42.38673" lon="0.78892">
        <ele>1068.8</ele>
        <time>2022-05-23 05:10:00</time>
      </trkpt>
      <trkpt lat="42.38674" lon="0.7889">
        <ele>1069</ele>
        <time>2022-05-23 05:10:01</time>
      </trkpt>
      <trkpt lat="42.38674" lon="0.78888">
        <ele>1069.2</ele>
        <time>2022-05-23 05:10:02</time>
      </trkpt>
      <trkpt lat="42.38675" lon="0.78886">
        <ele>1069.4</ele>
        <time>2022-05-23 05:10:03</time>
      </trkpt>
      <trkpt lat="42.38676" lon="0.78883">
        <ele>1069.4</ele>
        <time>2022-05-23 05:10:04</time>
      </trkpt>
      <trkpt lat="42.38677" lon="0.78881">
        <ele>1069.6</ele>
        <time>2022-05-23 05:10:05</time>
      </trkpt>
      <trkpt lat="42.38679" lon="0.7888">
        <ele>1069.8</ele>
        <time>2022-05-23 05:10:06</time>
      </trkpt>
      <trkpt lat="42.3868" lon="0.78878">
        <ele>1070</ele>
        <time>2022-05-23 05:10:07</time>
      </trkpt>
      <trkpt lat="42.38682" lon="0.78877">
        <ele>1070.2</ele>
        <time>2022-05-23 05:10:08</time>
      </trkpt>
      <trkpt lat="42.38683" lon="0.78875">
        <ele>1070.4</ele>
        <time>2022-05-23 05:10:09</time>
      </trkpt>
      <trkpt lat="42.38684" lon="0.78874">
        <ele>1070.4</ele>
        <time>2022-05-23 05:10:10</time>
      </trkpt>
      <trkpt lat="42.38685" lon="0.78872">
        <ele>1070.6</ele>
        <time>2022-05-23 05:10:11</time>
      </trkpt>
      <trkpt lat="42.38687" lon="0.7887">
        <ele>1070.8</ele>
        <time>2022-05-23 05:10:12</time>
      </trkpt>
      <trkpt lat="42.38688" lon="0.78869">
        <ele>1070.8</ele>
        <time>2022-05-23 05:10:13</time>
      </trkpt>
      <trkpt lat="42.38689" lon="0.78868">
        <ele>1071</ele>
        <time>2022-05-23 05:10:14</time>
      </trkpt>
      <trkpt lat="42.3869" lon="0.78867">
        <ele>1071.2</ele>
        <time>2022-05-23 05:10:15</time>
      </trkpt>
      <trkpt lat="42.38691" lon="0.78866">
        <ele>1071.4</ele>
        <time>2022-05-23 05:10:16</time>
      </trkpt>
      <trkpt lat="42.38692" lon="0.78865">
        <ele>1071.4</ele>
        <time>2022-05-23 05:10:17</time>
      </trkpt>
      <trkpt lat="42.38693" lon="0.78863">
        <ele>1071.6</ele>
        <time>2022-05-23 05:10:18</time>
      </trkpt>
      <trkpt lat="42.38694" lon="0.78863">
        <ele>1071.8</ele>
        <time>2022-05-23 05:10:19</time>
      </trkpt>
      <trkpt lat="42.38696" lon="0.78862">
        <ele>1072</ele>
        <time>2022-05-23 05:10:20</time>
      </trkpt>
      <trkpt lat="42.38697" lon="0.78861">
        <ele>1072</ele>
        <time>2022-05-23 05:10:21</time>
      </trkpt>
      <trkpt lat="42.38699" lon="0.7886">
        <ele>1072.2</ele>
        <time>2022-05-23 05:10:22</time>
      </trkpt>
      <trkpt lat="42.387" lon="0.78859">
        <ele>1072.4</ele>
        <time>2022-05-23 05:10:23</time>
      </trkpt>
      <trkpt lat="42.38702" lon="0.78858">
        <ele>1072.6</ele>
        <time>2022-05-23 05:10:24</time>
      </trkpt>
      <trkpt lat="42.38703" lon="0.78856">
        <ele>1072.8</ele>
        <time>2022-05-23 05:10:25</time>
      </trkpt>
      <trkpt lat="42.38705" lon="0.78855">
        <ele>1073</ele>
        <time>2022-05-23 05:10:26</time>
      </trkpt>
      <trkpt lat="42.38706" lon="0.78854">
        <ele>1073</ele>
        <time>2022-05-23 05:10:27</time>
      </trkpt>
      <trkpt lat="42.38707" lon="0.78852">
        <ele>1073.2</ele>
        <time>2022-05-23 05:10:28</time>
      </trkpt>
      <trkpt lat="42.38709" lon="0.7885">
        <ele>1073.4</ele>
        <time>2022-05-23 05:10:29</time>
      </trkpt>
      <trkpt lat="42.3871" lon="0.78849">
        <ele>1073.6</ele>
        <time>2022-05-23 05:10:30</time>
      </trkpt>
      <trkpt lat="42.38711" lon="0.78847">
        <ele>1073.8</ele>
        <time>2022-05-23 05:10:31</time>
      </trkpt>
      <trkpt lat="42.38713" lon="0.78846">
        <ele>1074</ele>
        <time>2022-05-23 05:10:32</time>
      </trkpt>
      <trkpt lat="42.38714" lon="0.78845">
        <ele>1074</ele>
        <time>2022-05-23 05:10:33</time>
      </trkpt>
      <trkpt lat="42.38716" lon="0.78843">
        <ele>1074.2</ele>
        <time>2022-05-23 05:10:34</time>
      </trkpt>
      <trkpt lat="42.38718" lon="0.78842">
        <ele>1074.4</ele>
        <time>2022-05-23 05:10:35</time>
      </trkpt>
      <trkpt lat="42.3872" lon="0.7884">
        <ele>1074.6</ele>
        <time>2022-05-23 05:10:36</time>
      </trkpt>
      <trkpt lat="42.38721" lon="0.78839">
        <ele>1074.8</ele>
        <time>2022-05-23 05:10:37</time>
      </trkpt>
      <trkpt lat="42.38723" lon="0.78837">
        <ele>1075</ele>
        <time>2022-05-23 05:10:38</time>
      </trkpt>
      <trkpt lat="42.38724" lon="0.78836">
        <ele>1075</ele>
        <time>2022-05-23 05:10:39</time>
      </trkpt>
      <trkpt lat="42.38726" lon="0.78834">
        <ele>1075.2</ele>
        <time>2022-05-23 05:10:40</time>
      </trkpt>
      <trkpt lat="42.38728" lon="0.78832">
        <ele>1075.4</ele>
        <time>2022-05-23 05:10:41</time>
      </trkpt>
      <trkpt lat="42.38728" lon="0.7883">
        <ele>1075.6</ele>
        <time>2022-05-23 05:10:42</time>
      </trkpt>
      <trkpt lat="42.3873" lon="0.78828">
        <ele>1075.6</ele>
        <time>2022-05-23 05:10:43</time>
      </trkpt>
      <trkpt lat="42.38731" lon="0.78826">
        <ele>1075.8</ele>
        <time>2022-05-23 05:10:44</time>
      </trkpt>
      <trkpt lat="42.38733" lon="0.78824">
        <ele>1076</ele>
        <time>2022-05-23 05:10:45</time>
      </trkpt>
      <trkpt lat="42.38734" lon="0.78823">
        <ele>1076.2</ele>
        <time>2022-05-23 05:10:46</time>
      </trkpt>
      <trkpt lat="42.38736" lon="0.78821">
        <ele>1076.2</ele>
        <time>2022-05-23 05:10:47</time>
      </trkpt>
      <trkpt lat="42.38736" lon="0.7882">
        <ele>1076.4</ele>
        <time>2022-05-23 05:10:48</time>
      </trkpt>
      <trkpt lat="42.38738" lon="0.78818">
        <ele>1076.6</ele>
        <time>2022-05-23 05:10:49</time>
      </trkpt>
      <trkpt lat="42.38739" lon="0.78817">
        <ele>1076.8</ele>
        <time>2022-05-23 05:10:50</time>
      </trkpt>
      <trkpt lat="42.3874" lon="0.78815">
        <ele>1076.8</ele>
        <time>2022-05-23 05:10:51</time>
      </trkpt>
      <trkpt lat="42.38741" lon="0.78813">
        <ele>1077</ele>
        <time>2022-05-23 05:10:52</time>
      </trkpt>
      <trkpt lat="42.38742" lon="0.78811">
        <ele>1077.2</ele>
        <time>2022-05-23 05:10:53</time>
      </trkpt>
      <trkpt lat="42.38744" lon="0.7881">
        <ele>1077.4</ele>
        <time>2022-05-23 05:10:54</time>
      </trkpt>
      <trkpt lat="42.38745" lon="0.78808">
        <ele>1077.6</ele>
        <time>2022-05-23 05:10:55</time>
      </trkpt>
      <trkpt lat="42.38747" lon="0.78807">
        <ele>1077.8</ele>
        <time>2022-05-23 05:10:56</time>
      </trkpt>
      <trkpt lat="42.38748" lon="0.78806">
        <ele>1077.8</ele>
        <time>2022-05-23 05:10:57</time>
      </trkpt>
      <trkpt lat="42.38749" lon="0.78805">
        <ele>1078</ele>
        <time>2022-05-23 05:10:58</time>
      </trkpt>
      <trkpt lat="42.38751" lon="0.78804">
        <ele>1078.2</ele>
        <time>2022-05-23 05:10:59</time>
      </trkpt>
      <trkpt lat="42.38752" lon="0.78803">
        <ele>1078.4</ele>
        <time>2022-05-23 05:11:00</time>
      </trkpt>
      <trkpt lat="42.38753" lon="0.78802">
        <ele>1078.6</ele>
        <time>2022-05-23 05:11:01</time>
      </trkpt>
      <trkpt lat="42.38755" lon="0.788">
        <ele>1078.6</ele>
        <time>2022-05-23 05:11:02</time>
      </trkpt>
      <trkpt lat="42.38757" lon="0.78799">
        <ele>1078.8</ele>
        <time>2022-05-23 05:11:03</time>
      </trkpt>
      <trkpt lat="42.38758" lon="0.78798">
        <ele>1079</ele>
        <time>2022-05-23 05:11:04</time>
      </trkpt>
      <trkpt lat="42.38759" lon="0.78797">
        <ele>1079.2</ele>
        <time>2022-05-23 05:11:05</time>
      </trkpt>
      <trkpt lat="42.3876" lon="0.78795">
        <ele>1079.4</ele>
        <time>2022-05-23 05:11:06</time>
      </trkpt>
      <trkpt lat="42.38761" lon="0.78795">
        <ele>1079.4</ele>
        <time>2022-05-23 05:11:07</time>
      </trkpt>
      <trkpt lat="42.38762" lon="0.78793">
        <ele>1079.6</ele>
        <time>2022-05-23 05:11:08</time>
      </trkpt>
      <trkpt lat="42.38764" lon="0.78792">
        <ele>1079.8</ele>
        <time>2022-05-23 05:11:09</time>
      </trkpt>
      <trkpt lat="42.38765" lon="0.7879">
        <ele>1080</ele>
        <time>2022-05-23 05:11:10</time>
      </trkpt>
      <trkpt lat="42.38766" lon="0.78789">
        <ele>1080</ele>
        <time>2022-05-23 05:11:11</time>
      </trkpt>
      <trkpt lat="42.38768" lon="0.78788">
        <ele>1080.2</ele>
        <time>2022-05-23 05:11:12</time>
      </trkpt>
      <trkpt lat="42.3877" lon="0.78787">
        <ele>1080.4</ele>
        <time>2022-05-23 05:11:13</time>
      </trkpt>
      <trkpt lat="42.38773" lon="0.78786">
        <ele>1080.6</ele>
        <time>2022-05-23 05:11:14</time>
      </trkpt>
      <trkpt lat="42.38776" lon="0.78785">
        <ele>1080.8</ele>
        <time>2022-05-23 05:11:15</time>
      </trkpt>
      <trkpt lat="42.38777" lon="0.78784">
        <ele>1080.8</ele>
        <time>2022-05-23 05:11:16</time>
      </trkpt>
      <trkpt lat="42.38779" lon="0.78782">
        <ele>1081</ele>
        <time>2022-05-23 05:11:17</time>
      </trkpt>
      <trkpt lat="42.38781" lon="0.78781">
        <ele>1081.2</ele>
        <time>2022-05-23 05:11:18</time>
      </trkpt>
      <trkpt lat="42.38783" lon="0.7878">
        <ele>1081.4</ele>
        <time>2022-05-23 05:11:19</time>
      </trkpt>
      <trkpt lat="42.38784" lon="0.78779">
        <ele>1081.4</ele>
        <time>2022-05-23 05:11:20</time>
      </trkpt>
      <trkpt lat="42.38785" lon="0.78777">
        <ele>1081.6</ele>
        <time>2022-05-23 05:11:21</time>
      </trkpt>
      <trkpt lat="42.38787" lon="0.78776">
        <ele>1081.8</ele>
        <time>2022-05-23 05:11:22</time>
      </trkpt>
      <trkpt lat="42.38789" lon="0.78775">
        <ele>1082</ele>
        <time>2022-05-23 05:11:23</time>
      </trkpt>
      <trkpt lat="42.3879" lon="0.78774">
        <ele>1082</ele>
        <time>2022-05-23 05:11:24</time>
      </trkpt>
      <trkpt lat="42.38792" lon="0.78773">
        <ele>1082.2</ele>
        <time>2022-05-23 05:11:25</time>
      </trkpt>
      <trkpt lat="42.38793" lon="0.78772">
        <ele>1082.4</ele>
        <time>2022-05-23 05:11:26</time>
      </trkpt>
      <trkpt lat="42.38795" lon="0.7877">
        <ele>1082.6</ele>
        <time>2022-05-23 05:11:27</time>
      </trkpt>
      <trkpt lat="42.38797" lon="0.78769">
        <ele>1082.6</ele>
        <time>2022-05-23 05:11:28</time>
      </trkpt>
      <trkpt lat="42.38798" lon="0.78767">
        <ele>1082.8</ele>
        <time>2022-05-23 05:11:29</time>
      </trkpt>
      <trkpt lat="42.388" lon="0.78765">
        <ele>1083</ele>
        <time>2022-05-23 05:11:30</time>
      </trkpt>
      <trkpt lat="42.38801" lon="0.78764">
        <ele>1083.2</ele>
        <time>2022-05-23 05:11:31</time>
      </trkpt>
      <trkpt lat="42.38802" lon="0.78763">
        <ele>1083.2</ele>
        <time>2022-05-23 05:11:32</time>
      </trkpt>
      <trkpt lat="42.38804" lon="0.78761">
        <ele>1083.4</ele>
        <time>2022-05-23 05:11:33</time>
      </trkpt>
      <trkpt lat="42.38805" lon="0.7876">
        <ele>1083.6</ele>
        <time>2022-05-23 05:11:34</time>
      </trkpt>
      <trkpt lat="42.38807" lon="0.78759">
        <ele>1083.8</ele>
        <time>2022-05-23 05:11:35</time>
      </trkpt>
      <trkpt lat="42.38809" lon="0.78757">
        <ele>1084</ele>
        <time>2022-05-23 05:11:36</time>
      </trkpt>
      <trkpt lat="42.3881" lon="0.78756">
        <ele>1084</ele>
        <time>2022-05-23 05:11:37</time>
      </trkpt>
      <trkpt lat="42.38812" lon="0.78755">
        <ele>1084.2</ele>
        <time>2022-05-23 05:11:38</time>
      </trkpt>
      <trkpt lat="42.38813" lon="0.78754">
        <ele>1084.4</ele>
        <time>2022-05-23 05:11:39</time>
      </trkpt>
      <trkpt lat="42.38814" lon="0.78753">
        <ele>1084.6</ele>
        <time>2022-05-23 05:11:40</time>
      </trkpt>
      <trkpt lat="42.38815" lon="0.78752">
        <ele>1084.8</ele>
        <time>2022-05-23 05:11:41</time>
      </trkpt>
      <trkpt lat="42.38817" lon="0.7875">
        <ele>1085</ele>
        <time>2022-05-23 05:11:42</time>
      </trkpt>
      <trkpt lat="42.38818" lon="0.78748">
        <ele>1085</ele>
        <time>2022-05-23 05:11:43</time>
      </trkpt>
      <trkpt lat="42.3882" lon="0.78747">
        <ele>1085.2</ele>
        <time>2022-05-23 05:11:44</time>
      </trkpt>
      <trkpt lat="42.38822" lon="0.78745">
        <ele>1085.4</ele>
        <time>2022-05-23 05:11:45</time>
      </trkpt>
      <trkpt lat="42.38823" lon="0.78744">
        <ele>1085.4</ele>
        <time>2022-05-23 05:11:46</time>
      </trkpt>
      <trkpt lat="42.38824" lon="0.78743">
        <ele>1085.6</ele>
        <time>2022-05-23 05:11:47</time>
      </trkpt>
      <trkpt lat="42.38825" lon="0.78741">
        <ele>1085.8</ele>
        <time>2022-05-23 05:11:48</time>
      </trkpt>
      <trkpt lat="42.38827" lon="0.78739">
        <ele>1085.8</ele>
        <time>2022-05-23 05:11:49</time>
      </trkpt>
      <trkpt lat="42.38828" lon="0.78738">
        <ele>1086</ele>
        <time>2022-05-23 05:11:50</time>
      </trkpt>
      <trkpt lat="42.3883" lon="0.78736">
        <ele>1086</ele>
        <time>2022-05-23 05:11:51</time>
      </trkpt>
      <trkpt lat="42.38831" lon="0.78735">
        <ele>1086.2</ele>
        <time>2022-05-23 05:11:52</time>
      </trkpt>
      <trkpt lat="42.38833" lon="0.78733">
        <ele>1086.4</ele>
        <time>2022-05-23 05:11:53</time>
      </trkpt>
      <trkpt lat="42.38834" lon="0.78732">
        <ele>1086.4</ele>
        <time>2022-05-23 05:11:54</time>
      </trkpt>
      <trkpt lat="42.38835" lon="0.78732">
        <ele>1086.6</ele>
        <time>2022-05-23 05:11:55</time>
      </trkpt>
      <trkpt lat="42.38838" lon="0.7873">
        <ele>1086.8</ele>
        <time>2022-05-23 05:11:56</time>
      </trkpt>
      <trkpt lat="42.38839" lon="0.78729">
        <ele>1087</ele>
        <time>2022-05-23 05:11:57</time>
      </trkpt>
      <trkpt lat="42.38842" lon="0.78729">
        <ele>1087</ele>
        <time>2022-05-23 05:11:58</time>
      </trkpt>
      <trkpt lat="42.38844" lon="0.78728">
        <ele>1087.2</ele>
        <time>2022-05-23 05:11:59</time>
      </trkpt>
      <trkpt lat="42.38845" lon="0.78727">
        <ele>1087.2</ele>
        <time>2022-05-23 05:12:00</time>
      </trkpt>
      <trkpt lat="42.38847" lon="0.78727">
        <ele>1087.4</ele>
        <time>2022-05-23 05:12:01</time>
      </trkpt>
      <trkpt lat="42.38848" lon="0.78726">
        <ele>1087.6</ele>
        <time>2022-05-23 05:12:02</time>
      </trkpt>
      <trkpt lat="42.38849" lon="0.78726">
        <ele>1087.8</ele>
        <time>2022-05-23 05:12:03</time>
      </trkpt>
      <trkpt lat="42.38851" lon="0.78725">
        <ele>1087.8</ele>
        <time>2022-05-23 05:12:04</time>
      </trkpt>
      <trkpt lat="42.38853" lon="0.78724">
        <ele>1088</ele>
        <time>2022-05-23 05:12:05</time>
      </trkpt>
      <trkpt lat="42.38855" lon="0.78724">
        <ele>1088.2</ele>
        <time>2022-05-23 05:12:06</time>
      </trkpt>
      <trkpt lat="42.38857" lon="0.78723">
        <ele>1088.4</ele>
        <time>2022-05-23 05:12:07</time>
      </trkpt>
      <trkpt lat="42.38858" lon="0.78722">
        <ele>1088.6</ele>
        <time>2022-05-23 05:12:08</time>
      </trkpt>
      <trkpt lat="42.38859" lon="0.78722">
        <ele>1088.6</ele>
        <time>2022-05-23 05:12:09</time>
      </trkpt>
      <trkpt lat="42.3886" lon="0.78721">
        <ele>1088.8</ele>
        <time>2022-05-23 05:12:10</time>
      </trkpt>
      <trkpt lat="42.38862" lon="0.7872">
        <ele>1089</ele>
        <time>2022-05-23 05:12:11</time>
      </trkpt>
      <trkpt lat="42.38863" lon="0.78719">
        <ele>1089.2</ele>
        <time>2022-05-23 05:12:12</time>
      </trkpt>
      <trkpt lat="42.38864" lon="0.78718">
        <ele>1089.4</ele>
        <time>2022-05-23 05:12:13</time>
      </trkpt>
      <trkpt lat="42.38866" lon="0.78717">
        <ele>1089.6</ele>
        <time>2022-05-23 05:12:14</time>
      </trkpt>
      <trkpt lat="42.38867" lon="0.78715">
        <ele>1089.8</ele>
        <time>2022-05-23 05:12:15</time>
      </trkpt>
      <trkpt lat="42.38868" lon="0.78714">
        <ele>1090</ele>
        <time>2022-05-23 05:12:16</time>
      </trkpt>
      <trkpt lat="42.3887" lon="0.78712">
        <ele>1090</ele>
        <time>2022-05-23 05:12:17</time>
      </trkpt>
      <trkpt lat="42.38871" lon="0.7871">
        <ele>1090.2</ele>
        <time>2022-05-23 05:12:18</time>
      </trkpt>
      <trkpt lat="42.38873" lon="0.78708">
        <ele>1090.4</ele>
        <time>2022-05-23 05:12:19</time>
      </trkpt>
      <trkpt lat="42.38874" lon="0.78706">
        <ele>1090.4</ele>
        <time>2022-05-23 05:12:20</time>
      </trkpt>
      <trkpt lat="42.38874" lon="0.78703">
        <ele>1090.6</ele>
        <time>2022-05-23 05:12:21</time>
      </trkpt>
      <trkpt lat="42.38873" lon="0.78701">
        <ele>1090.8</ele>
        <time>2022-05-23 05:12:22</time>
      </trkpt>
      <trkpt lat="42.38872" lon="0.78699">
        <ele>1090.8</ele>
        <time>2022-05-23 05:12:23</time>
      </trkpt>
      <trkpt lat="42.38872" lon="0.78697">
        <ele>1091</ele>
        <time>2022-05-23 05:12:24</time>
      </trkpt>
      <trkpt lat="42.38871" lon="0.78695">
        <ele>1091.2</ele>
        <time>2022-05-23 05:12:25</time>
      </trkpt>
      <trkpt lat="42.3887" lon="0.78693">
        <ele>1091.4</ele>
        <time>2022-05-23 05:12:26</time>
      </trkpt>
      <trkpt lat="42.38869" lon="0.78691">
        <ele>1091.4</ele>
        <time>2022-05-23 05:12:27</time>
      </trkpt>
      <trkpt lat="42.38868" lon="0.7869">
        <ele>1091.6</ele>
        <time>2022-05-23 05:12:28</time>
      </trkpt>
      <trkpt lat="42.38868" lon="0.78688">
        <ele>1091.8</ele>
        <time>2022-05-23 05:12:29</time>
      </trkpt>
      <trkpt lat="42.38866" lon="0.78687">
        <ele>1091.8</ele>
        <time>2022-05-23 05:12:30</time>
      </trkpt>
      <trkpt lat="42.38866" lon="0.78686">
        <ele>1092</ele>
        <time>2022-05-23 05:12:31</time>
      </trkpt>
      <trkpt lat="42.38865" lon="0.78686">
        <ele>1092.2</ele>
        <time>2022-05-23 05:12:32</time>
      </trkpt>
      <trkpt lat="42.38865" lon="0.78686">
        <ele>1092.4</ele>
        <time>2022-05-23 05:12:33</time>
      </trkpt>
      <trkpt lat="42.38865" lon="0.78686">
        <ele>1092.6</ele>
        <time>2022-05-23 05:12:34</time>
      </trkpt>
      <trkpt lat="42.38863" lon="0.78684">
        <ele>1092.8</ele>
        <time>2022-05-23 05:12:35</time>
      </trkpt>
      <trkpt lat="42.3886" lon="0.78683">
        <ele>1093</ele>
        <time>2022-05-23 05:12:36</time>
      </trkpt>
      <trkpt lat="42.38858" lon="0.78682">
        <ele>1093.2</ele>
        <time>2022-05-23 05:12:37</time>
      </trkpt>
      <trkpt lat="42.38856" lon="0.78682">
        <ele>1093.4</ele>
        <time>2022-05-23 05:12:38</time>
      </trkpt>
      <trkpt lat="42.38855" lon="0.78681">
        <ele>1093.6</ele>
        <time>2022-05-23 05:12:39</time>
      </trkpt>
      <trkpt lat="42.38853" lon="0.78681">
        <ele>1093.6</ele>
        <time>2022-05-23 05:12:40</time>
      </trkpt>
      <trkpt lat="42.38851" lon="0.78681">
        <ele>1093.8</ele>
        <time>2022-05-23 05:12:41</time>
      </trkpt>
      <trkpt lat="42.38849" lon="0.78681">
        <ele>1094</ele>
        <time>2022-05-23 05:12:42</time>
      </trkpt>
      <trkpt lat="42.38847" lon="0.78682">
        <ele>1094.2</ele>
        <time>2022-05-23 05:12:43</time>
      </trkpt>
      <trkpt lat="42.38846" lon="0.78682">
        <ele>1094.2</ele>
        <time>2022-05-23 05:12:44</time>
      </trkpt>
      <trkpt lat="42.38844" lon="0.78683">
        <ele>1094.4</ele>
        <time>2022-05-23 05:12:45</time>
      </trkpt>
      <trkpt lat="42.38844" lon="0.78683">
        <ele>1094.6</ele>
        <time>2022-05-23 05:12:46</time>
      </trkpt>
      <trkpt lat="42.38843" lon="0.78683">
        <ele>1094.6</ele>
        <time>2022-05-23 05:12:47</time>
      </trkpt>
      <trkpt lat="42.38842" lon="0.78683">
        <ele>1094.8</ele>
        <time>2022-05-23 05:12:48</time>
      </trkpt>
      <trkpt lat="42.38842" lon="0.78683">
        <ele>1094.8</ele>
        <time>2022-05-23 05:12:49</time>
      </trkpt>
      <trkpt lat="42.38842" lon="0.78683">
        <ele>1094.8</ele>
        <time>2022-05-23 05:12:50</time>
      </trkpt>
      <trkpt lat="42.38842" lon="0.78683">
        <ele>1094.8</ele>
        <time>2022-05-23 05:12:51</time>
      </trkpt>
      <trkpt lat="42.38842" lon="0.78683">
        <ele>1094.8</ele>
        <time>2022-05-23 05:12:52</time>
      </trkpt>
      <trkpt lat="42.38842" lon="0.78683">
        <ele>1094.8</ele>
        <time>2022-05-23 05:12:53</time>
      </trkpt>
      <trkpt lat="42.38842" lon="0.78683">
        <ele>1095</ele>
        <time>2022-05-23 05:12:54</time>
      </trkpt>
      <trkpt lat="42.38842" lon="0.78683">
        <ele>1095</ele>
        <time>2022-05-23 05:12:55</time>
      </trkpt>
      <trkpt lat="42.38837" lon="0.78689">
        <ele>1095.2</ele>
        <time>2022-05-23 05:12:56</time>
      </trkpt>
      <trkpt lat="42.38836" lon="0.7869">
        <ele>1095.2</ele>
        <time>2022-05-23 05:12:57</time>
      </trkpt>
      <trkpt lat="42.38834" lon="0.78692">
        <ele>1095.2</ele>
        <time>2022-05-23 05:12:58</time>
      </trkpt>
      <trkpt lat="42.38832" lon="0.78694">
        <ele>1095.2</ele>
        <time>2022-05-23 05:12:59</time>
      </trkpt>
      <trkpt lat="42.38831" lon="0.78696">
        <ele>1095.2</ele>
        <time>2022-05-23 05:13:00</time>
      </trkpt>
      <trkpt lat="42.38829" lon="0.78698">
        <ele>1095.4</ele>
        <time>2022-05-23 05:13:01</time>
      </trkpt>
      <trkpt lat="42.38827" lon="0.78699">
        <ele>1095.4</ele>
        <time>2022-05-23 05:13:02</time>
      </trkpt>
      <trkpt lat="42.38825" lon="0.78699">
        <ele>1095.6</ele>
        <time>2022-05-23 05:13:03</time>
      </trkpt>
      <trkpt lat="42.38824" lon="0.78701">
        <ele>1095.8</ele>
        <time>2022-05-23 05:13:04</time>
      </trkpt>
      <trkpt lat="42.38822" lon="0.78703">
        <ele>1095.8</ele>
        <time>2022-05-23 05:13:05</time>
      </trkpt>
      <trkpt lat="42.38821" lon="0.78704">
        <ele>1096</ele>
        <time>2022-05-23 05:13:06</time>
      </trkpt>
      <trkpt lat="42.38819" lon="0.78705">
        <ele>1096.2</ele>
        <time>2022-05-23 05:13:07</time>
      </trkpt>
      <trkpt lat="42.38817" lon="0.78706">
        <ele>1096.2</ele>
        <time>2022-05-23 05:13:08</time>
      </trkpt>
      <trkpt lat="42.38815" lon="0.78707">
        <ele>1096.4</ele>
        <time>2022-05-23 05:13:09</time>
      </trkpt>
      <trkpt lat="42.38814" lon="0.78708">
        <ele>1096.6</ele>
        <time>2022-05-23 05:13:10</time>
      </trkpt>
      <trkpt lat="42.38812" lon="0.78709">
        <ele>1096.6</ele>
        <time>2022-05-23 05:13:11</time>
      </trkpt>
      <trkpt lat="42.3881" lon="0.78711">
        <ele>1096.8</ele>
        <time>2022-05-23 05:13:12</time>
      </trkpt>
      <trkpt lat="42.38808" lon="0.78712">
        <ele>1096.8</ele>
        <time>2022-05-23 05:13:13</time>
      </trkpt>
      <trkpt lat="42.38806" lon="0.78714">
        <ele>1097</ele>
        <time>2022-05-23 05:13:14</time>
      </trkpt>
      <trkpt lat="42.38805" lon="0.78716">
        <ele>1097.2</ele>
        <time>2022-05-23 05:13:15</time>
      </trkpt>
      <trkpt lat="42.38803" lon="0.78717">
        <ele>1097.4</ele>
        <time>2022-05-23 05:13:16</time>
      </trkpt>
      <trkpt lat="42.38802" lon="0.78718">
        <ele>1097.4</ele>
        <time>2022-05-23 05:13:17</time>
      </trkpt>
      <trkpt lat="42.38801" lon="0.78719">
        <ele>1097.6</ele>
        <time>2022-05-23 05:13:18</time>
      </trkpt>
      <trkpt lat="42.38799" lon="0.7872">
        <ele>1097.8</ele>
        <time>2022-05-23 05:13:19</time>
      </trkpt>
      <trkpt lat="42.38797" lon="0.78722">
        <ele>1098</ele>
        <time>2022-05-23 05:14:21</time>
      </trkpt>
      <trkpt lat="42.38795" lon="0.78723">
        <ele>1098</ele>
        <time>2022-05-23 05:14:22</time>
      </trkpt>
      <trkpt lat="42.38793" lon="0.78724">
        <ele>1098.2</ele>
        <time>2022-05-23 05:14:23</time>
      </trkpt>
      <trkpt lat="42.38792" lon="0.78725">
        <ele>1098.4</ele>
        <time>2022-05-23 05:14:24</time>
      </trkpt>
      <trkpt lat="42.3879" lon="0.78725">
        <ele>1098.6</ele>
        <time>2022-05-23 05:14:25</time>
      </trkpt>
      <trkpt lat="42.38789" lon="0.78726">
        <ele>1098.6</ele>
        <time>2022-05-23 05:14:26</time>
      </trkpt>
      <trkpt lat="42.38787" lon="0.78727">
        <ele>1098.8</ele>
        <time>2022-05-23 05:14:27</time>
      </trkpt>
      <trkpt lat="42.38785" lon="0.78729">
        <ele>1099</ele>
        <time>2022-05-23 05:14:28</time>
      </trkpt>
      <trkpt lat="42.38784" lon="0.7873">
        <ele>1099.2</ele>
        <time>2022-05-23 05:14:29</time>
      </trkpt>
      <trkpt lat="42.38783" lon="0.7873">
        <ele>1099.4</ele>
        <time>2022-05-23 05:14:30</time>
      </trkpt>
      <trkpt lat="42.38781" lon="0.78732">
        <ele>1099.4</ele>
        <time>2022-05-23 05:14:31</time>
      </trkpt>
      <trkpt lat="42.38779" lon="0.78733">
        <ele>1099.6</ele>
        <time>2022-05-23 05:14:32</time>
      </trkpt>
      <trkpt lat="42.38778" lon="0.78734">
        <ele>1099.8</ele>
        <time>2022-05-23 05:14:33</time>
      </trkpt>
      <trkpt lat="42.38776" lon="0.78735">
        <ele>1100</ele>
        <time>2022-05-23 05:14:34</time>
      </trkpt>
      <trkpt lat="42.38773" lon="0.78735">
        <ele>1100</ele>
        <time>2022-05-23 05:14:35</time>
      </trkpt>
      <trkpt lat="42.38771" lon="0.78735">
        <ele>1100.2</ele>
        <time>2022-05-23 05:14:36</time>
      </trkpt>
      <trkpt lat="42.38769" lon="0.78736">
        <ele>1100.4</ele>
        <time>2022-05-23 05:14:37</time>
      </trkpt>
      <trkpt lat="42.38768" lon="0.78737">
        <ele>1100.6</ele>
        <time>2022-05-23 05:14:38</time>
      </trkpt>
      <trkpt lat="42.38766" lon="0.78738">
        <ele>1100.6</ele>
        <time>2022-05-23 05:14:39</time>
      </trkpt>
      <trkpt lat="42.38764" lon="0.78738">
        <ele>1100.8</ele>
        <time>2022-05-23 05:14:40</time>
      </trkpt>
      <trkpt lat="42.38762" lon="0.78739">
        <ele>1101</ele>
        <time>2022-05-23 05:14:41</time>
      </trkpt>
      <trkpt lat="42.38761" lon="0.7874">
        <ele>1101</ele>
        <time>2022-05-23 05:14:42</time>
      </trkpt>
      <trkpt lat="42.38759" lon="0.78742">
        <ele>1101.2</ele>
        <time>2022-05-23 05:14:43</time>
      </trkpt>
      <trkpt lat="42.38757" lon="0.78742">
        <ele>1101.4</ele>
        <time>2022-05-23 05:14:44</time>
      </trkpt>
      <trkpt lat="42.38756" lon="0.78743">
        <ele>1101.6</ele>
        <time>2022-05-23 05:14:45</time>
      </trkpt>
      <trkpt lat="42.38753" lon="0.78744">
        <ele>1101.6</ele>
        <time>2022-05-23 05:14:46</time>
      </trkpt>
      <trkpt lat="42.38751" lon="0.78744">
        <ele>1101.8</ele>
        <time>2022-05-23 05:14:47</time>
      </trkpt>
      <trkpt lat="42.38749" lon="0.78745">
        <ele>1102</ele>
        <time>2022-05-23 05:14:48</time>
      </trkpt>
      <trkpt lat="42.38747" lon="0.78745">
        <ele>1102</ele>
        <time>2022-05-23 05:14:49</time>
      </trkpt>
      <trkpt lat="42.38745" lon="0.78746">
        <ele>1102.2</ele>
        <time>2022-05-23 05:14:50</time>
      </trkpt>
      <trkpt lat="42.38743" lon="0.78746">
        <ele>1102.4</ele>
        <time>2022-05-23 05:14:51</time>
      </trkpt>
      <trkpt lat="42.38741" lon="0.78747">
        <ele>1102.4</ele>
        <time>2022-05-23 05:14:52</time>
      </trkpt>
      <trkpt lat="42.38739" lon="0.78747">
        <ele>1102.6</ele>
        <time>2022-05-23 05:14:53</time>
      </trkpt>
      <trkpt lat="42.38738" lon="0.78747">
        <ele>1102.8</ele>
        <time>2022-05-23 05:14:54</time>
      </trkpt>
      <trkpt lat="42.38737" lon="0.78748">
        <ele>1103</ele>
        <time>2022-05-23 05:14:55</time>
      </trkpt>
      <trkpt lat="42.38734" lon="0.78749">
        <ele>1103</ele>
        <time>2022-05-23 05:14:56</time>
      </trkpt>
      <trkpt lat="42.38733" lon="0.78751">
        <ele>1103.2</ele>
        <time>2022-05-23 05:14:57</time>
      </trkpt>
      <trkpt lat="42.38731" lon="0.78752">
        <ele>1103.4</ele>
        <time>2022-05-23 05:14:58</time>
      </trkpt>
      <trkpt lat="42.38729" lon="0.78753">
        <ele>1103.4</ele>
        <time>2022-05-23 05:14:59</time>
      </trkpt>
      <trkpt lat="42.38727" lon="0.78754">
        <ele>1103.6</ele>
        <time>2022-05-23 05:15:00</time>
      </trkpt>
      <trkpt lat="42.38726" lon="0.78755">
        <ele>1103.8</ele>
        <time>2022-05-23 05:15:01</time>
      </trkpt>
      <trkpt lat="42.38724" lon="0.78756">
        <ele>1104</ele>
        <time>2022-05-23 05:15:02</time>
      </trkpt>
      <trkpt lat="42.38723" lon="0.78756">
        <ele>1104.2</ele>
        <time>2022-05-23 05:15:03</time>
      </trkpt>
      <trkpt lat="42.38722" lon="0.78758">
        <ele>1104.2</ele>
        <time>2022-05-23 05:15:04</time>
      </trkpt>
      <trkpt lat="42.3872" lon="0.78758">
        <ele>1104.4</ele>
        <time>2022-05-23 05:15:05</time>
      </trkpt>
      <trkpt lat="42.38718" lon="0.78759">
        <ele>1104.6</ele>
        <time>2022-05-23 05:15:06</time>
      </trkpt>
      <trkpt lat="42.38717" lon="0.7876">
        <ele>1104.6</ele>
        <time>2022-05-23 05:15:07</time>
      </trkpt>
      <trkpt lat="42.38716" lon="0.78761">
        <ele>1104.8</ele>
        <time>2022-05-23 05:15:08</time>
      </trkpt>
      <trkpt lat="42.38714" lon="0.78762">
        <ele>1105</ele>
        <time>2022-05-23 05:15:09</time>
      </trkpt>
      <trkpt lat="42.38712" lon="0.78764">
        <ele>1105.2</ele>
        <time>2022-05-23 05:15:10</time>
      </trkpt>
      <trkpt lat="42.3871" lon="0.78764">
        <ele>1105.2</ele>
        <time>2022-05-23 05:15:11</time>
      </trkpt>
      <trkpt lat="42.38708" lon="0.78765">
        <ele>1105.4</ele>
        <time>2022-05-23 05:15:12</time>
      </trkpt>
      <trkpt lat="42.38706" lon="0.78767">
        <ele>1105.6</ele>
        <time>2022-05-23 05:15:13</time>
      </trkpt>
      <trkpt lat="42.38704" lon="0.78768">
        <ele>1105.8</ele>
        <time>2022-05-23 05:15:14</time>
      </trkpt>
      <trkpt lat="42.38702" lon="0.78769">
        <ele>1106</ele>
        <time>2022-05-23 05:15:15</time>
      </trkpt>
      <trkpt lat="42.387" lon="0.7877">
        <ele>1106</ele>
        <time>2022-05-23 05:15:16</time>
      </trkpt>
      <trkpt lat="42.38699" lon="0.78772">
        <ele>1106.2</ele>
        <time>2022-05-23 05:15:17</time>
      </trkpt>
      <trkpt lat="42.38698" lon="0.78774">
        <ele>1106.4</ele>
        <time>2022-05-23 05:15:18</time>
      </trkpt>
      <trkpt lat="42.38696" lon="0.78774">
        <ele>1106.6</ele>
        <time>2022-05-23 05:15:19</time>
      </trkpt>
      <trkpt lat="42.38695" lon="0.78775">
        <ele>1106.8</ele>
        <time>2022-05-23 05:15:20</time>
      </trkpt>
      <trkpt lat="42.38694" lon="0.78776">
        <ele>1107</ele>
        <time>2022-05-23 05:15:21</time>
      </trkpt>
      <trkpt lat="42.38692" lon="0.78777">
        <ele>1107</ele>
        <time>2022-05-23 05:15:22</time>
      </trkpt>
      <trkpt lat="42.38691" lon="0.78778">
        <ele>1107.2</ele>
        <time>2022-05-23 05:15:23</time>
      </trkpt>
      <trkpt lat="42.38689" lon="0.78779">
        <ele>1107.4</ele>
        <time>2022-05-23 05:15:24</time>
      </trkpt>
      <trkpt lat="42.38688" lon="0.78781">
        <ele>1107.6</ele>
        <time>2022-05-23 05:15:25</time>
      </trkpt>
      <trkpt lat="42.38686" lon="0.78782">
        <ele>1107.8</ele>
        <time>2022-05-23 05:15:26</time>
      </trkpt>
      <trkpt lat="42.38684" lon="0.78782">
        <ele>1108</ele>
        <time>2022-05-23 05:15:27</time>
      </trkpt>
      <trkpt lat="42.38683" lon="0.78783">
        <ele>1108.2</ele>
        <time>2022-05-23 05:15:28</time>
      </trkpt>
      <trkpt lat="42.38681" lon="0.78784">
        <ele>1108.2</ele>
        <time>2022-05-23 05:15:29</time>
      </trkpt>
      <trkpt lat="42.38679" lon="0.78785">
        <ele>1108.4</ele>
        <time>2022-05-23 05:15:30</time>
      </trkpt>
      <trkpt lat="42.38677" lon="0.78786">
        <ele>1108.6</ele>
        <time>2022-05-23 05:15:31</time>
      </trkpt>
      <trkpt lat="42.38675" lon="0.78787">
        <ele>1108.8</ele>
        <time>2022-05-23 05:15:32</time>
      </trkpt>
      <trkpt lat="42.38673" lon="0.78788">
        <ele>1109</ele>
        <time>2022-05-23 05:15:33</time>
      </trkpt>
      <trkpt lat="42.38672" lon="0.78788">
        <ele>1109.2</ele>
        <time>2022-05-23 05:15:34</time>
      </trkpt>
      <trkpt lat="42.3867" lon="0.78789">
        <ele>1109.4</ele>
        <time>2022-05-23 05:15:35</time>
      </trkpt>
      <trkpt lat="42.38668" lon="0.7879">
        <ele>1109.4</ele>
        <time>2022-05-23 05:15:36</time>
      </trkpt>
      <trkpt lat="42.38666" lon="0.78791">
        <ele>1109.6</ele>
        <time>2022-05-23 05:15:37</time>
      </trkpt>
      <trkpt lat="42.38665" lon="0.78792">
        <ele>1109.8</ele>
        <time>2022-05-23 05:15:38</time>
      </trkpt>
      <trkpt lat="42.38663" lon="0.78793">
        <ele>1110</ele>
        <time>2022-05-23 05:15:39</time>
      </trkpt>
      <trkpt lat="42.38661" lon="0.78795">
        <ele>1110.2</ele>
        <time>2022-05-23 05:15:40</time>
      </trkpt>
      <trkpt lat="42.38659" lon="0.78796">
        <ele>1110.4</ele>
        <time>2022-05-23 05:15:41</time>
      </trkpt>
      <trkpt lat="42.38657" lon="0.78798">
        <ele>1110.4</ele>
        <time>2022-05-23 05:15:42</time>
      </trkpt>
      <trkpt lat="42.38655" lon="0.788">
        <ele>1110.6</ele>
        <time>2022-05-23 05:15:43</time>
      </trkpt>
      <trkpt lat="42.38654" lon="0.78801">
        <ele>1110.8</ele>
        <time>2022-05-23 05:15:44</time>
      </trkpt>
      <trkpt lat="42.38652" lon="0.78802">
        <ele>1111</ele>
        <time>2022-05-23 05:15:45</time>
      </trkpt>
      <trkpt lat="42.38649" lon="0.78803">
        <ele>1111.2</ele>
        <time>2022-05-23 05:15:46</time>
      </trkpt>
      <trkpt lat="42.38647" lon="0.78805">
        <ele>1111.2</ele>
        <time>2022-05-23 05:15:47</time>
      </trkpt>
      <trkpt lat="42.38645" lon="0.78806">
        <ele>1111.4</ele>
        <time>2022-05-23 05:15:48</time>
      </trkpt>
      <trkpt lat="42.38644" lon="0.78806">
        <ele>1111.6</ele>
        <time>2022-05-23 05:15:49</time>
      </trkpt>
      <trkpt lat="42.38642" lon="0.78807">
        <ele>1111.8</ele>
        <time>2022-05-23 05:15:50</time>
      </trkpt>
      <trkpt lat="42.3864" lon="0.78807">
        <ele>1111.8</ele>
        <time>2022-05-23 05:15:51</time>
      </trkpt>
      <trkpt lat="42.38639" lon="0.78808">
        <ele>1112</ele>
        <time>2022-05-23 05:15:52</time>
      </trkpt>
      <trkpt lat="42.38637" lon="0.78809">
        <ele>1112.2</ele>
        <time>2022-05-23 05:15:53</time>
      </trkpt>
      <trkpt lat="42.38635" lon="0.7881">
        <ele>1112.4</ele>
        <time>2022-05-23 05:15:54</time>
      </trkpt>
      <trkpt lat="42.38633" lon="0.78811">
        <ele>1112.4</ele>
        <time>2022-05-23 05:15:55</time>
      </trkpt>
      <trkpt lat="42.38631" lon="0.78813">
        <ele>1112.6</ele>
        <time>2022-05-23 05:15:56</time>
      </trkpt>
      <trkpt lat="42.38629" lon="0.78815">
        <ele>1112.8</ele>
        <time>2022-05-23 05:15:57</time>
      </trkpt>
      <trkpt lat="42.38628" lon="0.78817">
        <ele>1113</ele>
        <time>2022-05-23 05:15:58</time>
      </trkpt>
      <trkpt lat="42.38627" lon="0.7882">
        <ele>1113</ele>
        <time>2022-05-23 05:15:59</time>
      </trkpt>
      <trkpt lat="42.38626" lon="0.78821">
        <ele>1113.2</ele>
        <time>2022-05-23 05:16:00</time>
      </trkpt>
      <trkpt lat="42.38625" lon="0.78823">
        <ele>1113.4</ele>
        <time>2022-05-23 05:16:01</time>
      </trkpt>
      <trkpt lat="42.38623" lon="0.78825">
        <ele>1113.6</ele>
        <time>2022-05-23 05:16:02</time>
      </trkpt>
      <trkpt lat="42.38622" lon="0.78827">
        <ele>1113.8</ele>
        <time>2022-05-23 05:16:03</time>
      </trkpt>
      <trkpt lat="42.3862" lon="0.78828">
        <ele>1113.8</ele>
        <time>2022-05-23 05:16:04</time>
      </trkpt>
      <trkpt lat="42.38619" lon="0.78829">
        <ele>1114</ele>
        <time>2022-05-23 05:16:05</time>
      </trkpt>
      <trkpt lat="42.38617" lon="0.78832">
        <ele>1114.2</ele>
        <time>2022-05-23 05:16:06</time>
      </trkpt>
      <trkpt lat="42.38615" lon="0.78834">
        <ele>1114.4</ele>
        <time>2022-05-23 05:16:07</time>
      </trkpt>
      <trkpt lat="42.38614" lon="0.78836">
        <ele>1114.4</ele>
        <time>2022-05-23 05:16:08</time>
      </trkpt>
      <trkpt lat="42.38612" lon="0.78839">
        <ele>1114.6</ele>
        <time>2022-05-23 05:16:09</time>
      </trkpt>
      <trkpt lat="42.38611" lon="0.78841">
        <ele>1114.8</ele>
        <time>2022-05-23 05:16:10</time>
      </trkpt>
      <trkpt lat="42.38609" lon="0.78843">
        <ele>1115</ele>
        <time>2022-05-23 05:16:11</time>
      </trkpt>
      <trkpt lat="42.38608" lon="0.78846">
        <ele>1115.2</ele>
        <time>2022-05-23 05:16:12</time>
      </trkpt>
      <trkpt lat="42.38607" lon="0.78848">
        <ele>1115.4</ele>
        <time>2022-05-23 05:16:13</time>
      </trkpt>
      <trkpt lat="42.38605" lon="0.78851">
        <ele>1115.6</ele>
        <time>2022-05-23 05:16:14</time>
      </trkpt>
      <trkpt lat="42.38604" lon="0.78852">
        <ele>1115.6</ele>
        <time>2022-05-23 05:16:15</time>
      </trkpt>
      <trkpt lat="42.38603" lon="0.78854">
        <ele>1115.8</ele>
        <time>2022-05-23 05:16:16</time>
      </trkpt>
      <trkpt lat="42.38602" lon="0.78856">
        <ele>1116</ele>
        <time>2022-05-23 05:16:17</time>
      </trkpt>
      <trkpt lat="42.386" lon="0.78857">
        <ele>1116.2</ele>
        <time>2022-05-23 05:16:18</time>
      </trkpt>
      <trkpt lat="42.38599" lon="0.78859">
        <ele>1116.2</ele>
        <time>2022-05-23 05:16:19</time>
      </trkpt>
      <trkpt lat="42.38598" lon="0.78861">
        <ele>1116.4</ele>
        <time>2022-05-23 05:16:20</time>
      </trkpt>
      <trkpt lat="42.38597" lon="0.78862">
        <ele>1116.6</ele>
        <time>2022-05-23 05:16:21</time>
      </trkpt>
      <trkpt lat="42.38596" lon="0.78864">
        <ele>1116.8</ele>
        <time>2022-05-23 05:16:22</time>
      </trkpt>
      <trkpt lat="42.38595" lon="0.78866">
        <ele>1117</ele>
        <time>2022-05-23 05:16:23</time>
      </trkpt>
      <trkpt lat="42.38594" lon="0.78868">
        <ele>1117</ele>
        <time>2022-05-23 05:16:24</time>
      </trkpt>
      <trkpt lat="42.38593" lon="0.7887">
        <ele>1117.2</ele>
        <time>2022-05-23 05:16:25</time>
      </trkpt>
      <trkpt lat="42.38592" lon="0.78872">
        <ele>1117.4</ele>
        <time>2022-05-23 05:16:26</time>
      </trkpt>
      <trkpt lat="42.38591" lon="0.78873">
        <ele>1117.4</ele>
        <time>2022-05-23 05:16:27</time>
      </trkpt>
      <trkpt lat="42.38589" lon="0.78875">
        <ele>1117.6</ele>
        <time>2022-05-23 05:16:28</time>
      </trkpt>
      <trkpt lat="42.38587" lon="0.78876">
        <ele>1117.8</ele>
        <time>2022-05-23 05:16:29</time>
      </trkpt>
      <trkpt lat="42.38586" lon="0.78876">
        <ele>1118</ele>
        <time>2022-05-23 05:16:30</time>
      </trkpt>
      <trkpt lat="42.38584" lon="0.78877">
        <ele>1118.2</ele>
        <time>2022-05-23 05:16:31</time>
      </trkpt>
      <trkpt lat="42.38583" lon="0.78878">
        <ele>1118.2</ele>
        <time>2022-05-23 05:16:32</time>
      </trkpt>
      <trkpt lat="42.38581" lon="0.78879">
        <ele>1118.4</ele>
        <time>2022-05-23 05:16:33</time>
      </trkpt>
      <trkpt lat="42.38579" lon="0.7888">
        <ele>1118.6</ele>
        <time>2022-05-23 05:16:34</time>
      </trkpt>
      <trkpt lat="42.38578" lon="0.78881">
        <ele>1118.8</ele>
        <time>2022-05-23 05:16:35</time>
      </trkpt>
      <trkpt lat="42.38576" lon="0.78882">
        <ele>1119</ele>
        <time>2022-05-23 05:16:36</time>
      </trkpt>
      <trkpt lat="42.38574" lon="0.78882">
        <ele>1119.2</ele>
        <time>2022-05-23 05:16:37</time>
      </trkpt>
      <trkpt lat="42.38572" lon="0.78883">
        <ele>1119.4</ele>
        <time>2022-05-23 05:16:38</time>
      </trkpt>
      <trkpt lat="42.3857" lon="0.78884">
        <ele>1119.4</ele>
        <time>2022-05-23 05:16:39</time>
      </trkpt>
      <trkpt lat="42.38568" lon="0.78885">
        <ele>1119.6</ele>
        <time>2022-05-23 05:16:40</time>
      </trkpt>
      <trkpt lat="42.38567" lon="0.78885">
        <ele>1119.8</ele>
        <time>2022-05-23 05:16:41</time>
      </trkpt>
      <trkpt lat="42.38565" lon="0.78886">
        <ele>1120</ele>
        <time>2022-05-23 05:16:42</time>
      </trkpt>
      <trkpt lat="42.38563" lon="0.78886">
        <ele>1120.2</ele>
        <time>2022-05-23 05:16:43</time>
      </trkpt>
      <trkpt lat="42.38562" lon="0.78886">
        <ele>1120.4</ele>
        <time>2022-05-23 05:16:44</time>
      </trkpt>
      <trkpt lat="42.3856" lon="0.78886">
        <ele>1120.4</ele>
        <time>2022-05-23 05:16:45</time>
      </trkpt>
      <trkpt lat="42.38558" lon="0.78887">
        <ele>1120.6</ele>
        <time>2022-05-23 05:16:46</time>
      </trkpt>
      <trkpt lat="42.38557" lon="0.78888">
        <ele>1120.8</ele>
        <time>2022-05-23 05:16:47</time>
      </trkpt>
      <trkpt lat="42.38555" lon="0.78888">
        <ele>1121</ele>
        <time>2022-05-23 05:16:48</time>
      </trkpt>
      <trkpt lat="42.38553" lon="0.78889">
        <ele>1121.2</ele>
        <time>2022-05-23 05:16:49</time>
      </trkpt>
      <trkpt lat="42.38551" lon="0.7889">
        <ele>1121.2</ele>
        <time>2022-05-23 05:16:50</time>
      </trkpt>
      <trkpt lat="42.38549" lon="0.78891">
        <ele>1121.4</ele>
        <time>2022-05-23 05:16:51</time>
      </trkpt>
      <trkpt lat="42.38547" lon="0.78891">
        <ele>1121.6</ele>
        <time>2022-05-23 05:16:52</time>
      </trkpt>
      <trkpt lat="42.38546" lon="0.78891">
        <ele>1121.8</ele>
        <time>2022-05-23 05:16:53</time>
      </trkpt>
      <trkpt lat="42.38545" lon="0.78891">
        <ele>1122</ele>
        <time>2022-05-23 05:16:54</time>
      </trkpt>
      <trkpt lat="42.38543" lon="0.78892">
        <ele>1122.2</ele>
        <time>2022-05-23 05:16:55</time>
      </trkpt>
      <trkpt lat="42.38542" lon="0.78893">
        <ele>1122.2</ele>
        <time>2022-05-23 05:16:56</time>
      </trkpt>
      <trkpt lat="42.3854" lon="0.78894">
        <ele>1122.4</ele>
        <time>2022-05-23 05:16:57</time>
      </trkpt>
      <trkpt lat="42.38539" lon="0.78895">
        <ele>1122.6</ele>
        <time>2022-05-23 05:16:58</time>
      </trkpt>
      <trkpt lat="42.38537" lon="0.78896">
        <ele>1122.8</ele>
        <time>2022-05-23 05:16:59</time>
      </trkpt>
      <trkpt lat="42.38535" lon="0.78896">
        <ele>1122.8</ele>
        <time>2022-05-23 05:17:00</time>
      </trkpt>
      <trkpt lat="42.38534" lon="0.78897">
        <ele>1123</ele>
        <time>2022-05-23 05:17:01</time>
      </trkpt>
      <trkpt lat="42.38533" lon="0.78897">
        <ele>1123.2</ele>
        <time>2022-05-23 05:17:02</time>
      </trkpt>
      <trkpt lat="42.38531" lon="0.78898">
        <ele>1123.4</ele>
        <time>2022-05-23 05:17:03</time>
      </trkpt>
      <trkpt lat="42.3853" lon="0.78899">
        <ele>1123.4</ele>
        <time>2022-05-23 05:17:04</time>
      </trkpt>
      <trkpt lat="42.38529" lon="0.789">
        <ele>1123.6</ele>
        <time>2022-05-23 05:17:05</time>
      </trkpt>
      <trkpt lat="42.38528" lon="0.78901">
        <ele>1123.8</ele>
        <time>2022-05-23 05:17:06</time>
      </trkpt>
      <trkpt lat="42.38526" lon="0.78902">
        <ele>1124</ele>
        <time>2022-05-23 05:17:07</time>
      </trkpt>
      <trkpt lat="42.38525" lon="0.78904">
        <ele>1124</ele>
        <time>2022-05-23 05:17:08</time>
      </trkpt>
      <trkpt lat="42.38523" lon="0.78905">
        <ele>1124.2</ele>
        <time>2022-05-23 05:17:09</time>
      </trkpt>
      <trkpt lat="42.38521" lon="0.78907">
        <ele>1124.4</ele>
        <time>2022-05-23 05:17:10</time>
      </trkpt>
      <trkpt lat="42.3852" lon="0.78908">
        <ele>1124.6</ele>
        <time>2022-05-23 05:17:11</time>
      </trkpt>
      <trkpt lat="42.38518" lon="0.78909">
        <ele>1124.6</ele>
        <time>2022-05-23 05:17:12</time>
      </trkpt>
      <trkpt lat="42.38516" lon="0.7891">
        <ele>1124.8</ele>
        <time>2022-05-23 05:17:13</time>
      </trkpt>
      <trkpt lat="42.38515" lon="0.78911">
        <ele>1125</ele>
        <time>2022-05-23 05:17:14</time>
      </trkpt>
      <trkpt lat="42.38513" lon="0.78913">
        <ele>1125</ele>
        <time>2022-05-23 05:17:15</time>
      </trkpt>
      <trkpt lat="42.38511" lon="0.78914">
        <ele>1125.2</ele>
        <time>2022-05-23 05:17:16</time>
      </trkpt>
      <trkpt lat="42.38509" lon="0.78915">
        <ele>1125.4</ele>
        <time>2022-05-23 05:17:17</time>
      </trkpt>
      <trkpt lat="42.38507" lon="0.78917">
        <ele>1125.6</ele>
        <time>2022-05-23 05:17:18</time>
      </trkpt>
      <trkpt lat="42.38505" lon="0.78918">
        <ele>1125.8</ele>
        <time>2022-05-23 05:17:19</time>
      </trkpt>
      <trkpt lat="42.38503" lon="0.78919">
        <ele>1125.8</ele>
        <time>2022-05-23 05:17:20</time>
      </trkpt>
      <trkpt lat="42.38501" lon="0.7892">
        <ele>1126</ele>
        <time>2022-05-23 05:17:21</time>
      </trkpt>
      <trkpt lat="42.38499" lon="0.78921">
        <ele>1126.2</ele>
        <time>2022-05-23 05:17:22</time>
      </trkpt>
      <trkpt lat="42.38498" lon="0.78922">
        <ele>1126.4</ele>
        <time>2022-05-23 05:17:23</time>
      </trkpt>
      <trkpt lat="42.38496" lon="0.78923">
        <ele>1126.4</ele>
        <time>2022-05-23 05:17:24</time>
      </trkpt>
      <trkpt lat="42.38494" lon="0.78924">
        <ele>1126.6</ele>
        <time>2022-05-23 05:17:25</time>
      </trkpt>
      <trkpt lat="42.38493" lon="0.78926">
        <ele>1126.8</ele>
        <time>2022-05-23 05:17:26</time>
      </trkpt>
      <trkpt lat="42.38492" lon="0.78927">
        <ele>1127</ele>
        <time>2022-05-23 05:17:27</time>
      </trkpt>
      <trkpt lat="42.3849" lon="0.78928">
        <ele>1127</ele>
        <time>2022-05-23 05:17:28</time>
      </trkpt>
      <trkpt lat="42.38489" lon="0.7893">
        <ele>1127.2</ele>
        <time>2022-05-23 05:17:29</time>
      </trkpt>
      <trkpt lat="42.38487" lon="0.78931">
        <ele>1127.4</ele>
        <time>2022-05-23 05:17:30</time>
      </trkpt>
      <trkpt lat="42.38486" lon="0.78932">
        <ele>1127.6</ele>
        <time>2022-05-23 05:17:31</time>
      </trkpt>
      <trkpt lat="42.38484" lon="0.78933">
        <ele>1127.8</ele>
        <time>2022-05-23 05:17:32</time>
      </trkpt>
      <trkpt lat="42.38483" lon="0.78934">
        <ele>1127.8</ele>
        <time>2022-05-23 05:17:33</time>
      </trkpt>
      <trkpt lat="42.38481" lon="0.78935">
        <ele>1128</ele>
        <time>2022-05-23 05:17:34</time>
      </trkpt>
      <trkpt lat="42.38479" lon="0.78937">
        <ele>1128.2</ele>
        <time>2022-05-23 05:17:35</time>
      </trkpt>
      <trkpt lat="42.38478" lon="0.78938">
        <ele>1128.4</ele>
        <time>2022-05-23 05:17:36</time>
      </trkpt>
      <trkpt lat="42.38476" lon="0.7894">
        <ele>1128.4</ele>
        <time>2022-05-23 05:17:37</time>
      </trkpt>
      <trkpt lat="42.38475" lon="0.78941">
        <ele>1128.6</ele>
        <time>2022-05-23 05:17:38</time>
      </trkpt>
      <trkpt lat="42.38474" lon="0.78942">
        <ele>1128.8</ele>
        <time>2022-05-23 05:17:39</time>
      </trkpt>
      <trkpt lat="42.38472" lon="0.78944">
        <ele>1129</ele>
        <time>2022-05-23 05:17:40</time>
      </trkpt>
      <trkpt lat="42.38472" lon="0.78946">
        <ele>1129</ele>
        <time>2022-05-23 05:17:41</time>
      </trkpt>
      <trkpt lat="42.38471" lon="0.78948">
        <ele>1129.2</ele>
        <time>2022-05-23 05:17:42</time>
      </trkpt>
      <trkpt lat="42.38469" lon="0.7895">
        <ele>1129.4</ele>
        <time>2022-05-23 05:17:43</time>
      </trkpt>
      <trkpt lat="42.38468" lon="0.78951">
        <ele>1129.4</ele>
        <time>2022-05-23 05:17:44</time>
      </trkpt>
      <trkpt lat="42.38466" lon="0.78952">
        <ele>1129.6</ele>
        <time>2022-05-23 05:17:45</time>
      </trkpt>
      <trkpt lat="42.38465" lon="0.78954">
        <ele>1129.8</ele>
        <time>2022-05-23 05:17:46</time>
      </trkpt>
      <trkpt lat="42.38464" lon="0.78956">
        <ele>1129.8</ele>
        <time>2022-05-23 05:17:47</time>
      </trkpt>
      <trkpt lat="42.38463" lon="0.78957">
        <ele>1130</ele>
        <time>2022-05-23 05:17:48</time>
      </trkpt>
      <trkpt lat="42.38462" lon="0.78959">
        <ele>1130.2</ele>
        <time>2022-05-23 05:17:49</time>
      </trkpt>
      <trkpt lat="42.38461" lon="0.78961">
        <ele>1130.2</ele>
        <time>2022-05-23 05:17:50</time>
      </trkpt>
      <trkpt lat="42.3846" lon="0.78963">
        <ele>1130.4</ele>
        <time>2022-05-23 05:17:51</time>
      </trkpt>
      <trkpt lat="42.38459" lon="0.78965">
        <ele>1130.4</ele>
        <time>2022-05-23 05:17:52</time>
      </trkpt>
      <trkpt lat="42.38459" lon="0.78967">
        <ele>1130.6</ele>
        <time>2022-05-23 05:17:53</time>
      </trkpt>
      <trkpt lat="42.38457" lon="0.78969">
        <ele>1130.8</ele>
        <time>2022-05-23 05:17:54</time>
      </trkpt>
      <trkpt lat="42.38456" lon="0.78971">
        <ele>1130.8</ele>
        <time>2022-05-23 05:17:55</time>
      </trkpt>
      <trkpt lat="42.38455" lon="0.78973">
        <ele>1131</ele>
        <time>2022-05-23 05:17:56</time>
      </trkpt>
      <trkpt lat="42.38454" lon="0.78975">
        <ele>1131.2</ele>
        <time>2022-05-23 05:17:57</time>
      </trkpt>
      <trkpt lat="42.38453" lon="0.78976">
        <ele>1131.2</ele>
        <time>2022-05-23 05:17:58</time>
      </trkpt>
      <trkpt lat="42.38452" lon="0.78978">
        <ele>1131.4</ele>
        <time>2022-05-23 05:17:59</time>
      </trkpt>
      <trkpt lat="42.38451" lon="0.78979">
        <ele>1131.6</ele>
        <time>2022-05-23 05:18:00</time>
      </trkpt>
      <trkpt lat="42.38449" lon="0.78981">
        <ele>1131.6</ele>
        <time>2022-05-23 05:18:01</time>
      </trkpt>
      <trkpt lat="42.38448" lon="0.78983">
        <ele>1131.8</ele>
        <time>2022-05-23 05:18:02</time>
      </trkpt>
      <trkpt lat="42.38446" lon="0.78984">
        <ele>1132</ele>
        <time>2022-05-23 05:18:03</time>
      </trkpt>
      <trkpt lat="42.38445" lon="0.78985">
        <ele>1132</ele>
        <time>2022-05-23 05:18:04</time>
      </trkpt>
      <trkpt lat="42.38443" lon="0.78986">
        <ele>1132.2</ele>
        <time>2022-05-23 05:18:05</time>
      </trkpt>
      <trkpt lat="42.38442" lon="0.78988">
        <ele>1132.4</ele>
        <time>2022-05-23 05:18:06</time>
      </trkpt>
      <trkpt lat="42.3844" lon="0.78988">
        <ele>1132.4</ele>
        <time>2022-05-23 05:18:07</time>
      </trkpt>
      <trkpt lat="42.38438" lon="0.78989">
        <ele>1132.6</ele>
        <time>2022-05-23 05:18:08</time>
      </trkpt>
      <trkpt lat="42.38437" lon="0.78989">
        <ele>1132.8</ele>
        <time>2022-05-23 05:18:09</time>
      </trkpt>
      <trkpt lat="42.38435" lon="0.78989">
        <ele>1133</ele>
        <time>2022-05-23 05:18:10</time>
      </trkpt>
      <trkpt lat="42.38434" lon="0.7899">
        <ele>1133</ele>
        <time>2022-05-23 05:18:11</time>
      </trkpt>
      <trkpt lat="42.38432" lon="0.7899">
        <ele>1133.2</ele>
        <time>2022-05-23 05:18:12</time>
      </trkpt>
      <trkpt lat="42.38431" lon="0.78991">
        <ele>1133.4</ele>
        <time>2022-05-23 05:18:13</time>
      </trkpt>
      <trkpt lat="42.3843" lon="0.78991">
        <ele>1133.6</ele>
        <time>2022-05-23 05:18:14</time>
      </trkpt>
      <trkpt lat="42.38428" lon="0.78991">
        <ele>1133.8</ele>
        <time>2022-05-23 05:18:15</time>
      </trkpt>
      <trkpt lat="42.38427" lon="0.7899">
        <ele>1134</ele>
        <time>2022-05-23 05:18:16</time>
      </trkpt>
      <trkpt lat="42.38426" lon="0.78989">
        <ele>1134.2</ele>
        <time>2022-05-23 05:18:17</time>
      </trkpt>
      <trkpt lat="42.38425" lon="0.78988">
        <ele>1134.2</ele>
        <time>2022-05-23 05:18:18</time>
      </trkpt>
      <trkpt lat="42.38423" lon="0.78987">
        <ele>1134.4</ele>
        <time>2022-05-23 05:18:19</time>
      </trkpt>
      <trkpt lat="42.38422" lon="0.78986">
        <ele>1134.6</ele>
        <time>2022-05-23 05:18:20</time>
      </trkpt>
      <trkpt lat="42.3842" lon="0.78984">
        <ele>1134.8</ele>
        <time>2022-05-23 05:18:21</time>
      </trkpt>
      <trkpt lat="42.38419" lon="0.78984">
        <ele>1134.8</ele>
        <time>2022-05-23 05:18:22</time>
      </trkpt>
      <trkpt lat="42.38417" lon="0.78982">
        <ele>1135</ele>
        <time>2022-05-23 05:18:23</time>
      </trkpt>
      <trkpt lat="42.38416" lon="0.78981">
        <ele>1135.2</ele>
        <time>2022-05-23 05:18:24</time>
      </trkpt>
      <trkpt lat="42.38415" lon="0.78981">
        <ele>1135.4</ele>
        <time>2022-05-23 05:18:25</time>
      </trkpt>
      <trkpt lat="42.38413" lon="0.7898">
        <ele>1135.4</ele>
        <time>2022-05-23 05:18:26</time>
      </trkpt>
      <trkpt lat="42.38411" lon="0.78979">
        <ele>1135.6</ele>
        <time>2022-05-23 05:18:27</time>
      </trkpt>
      <trkpt lat="42.3841" lon="0.78979">
        <ele>1135.8</ele>
        <time>2022-05-23 05:18:28</time>
      </trkpt>
      <trkpt lat="42.38408" lon="0.78978">
        <ele>1136</ele>
        <time>2022-05-23 05:18:29</time>
      </trkpt>
      <trkpt lat="42.38407" lon="0.78977">
        <ele>1136.2</ele>
        <time>2022-05-23 05:18:30</time>
      </trkpt>
      <trkpt lat="42.38405" lon="0.78976">
        <ele>1136.4</ele>
        <time>2022-05-23 05:18:31</time>
      </trkpt>
      <trkpt lat="42.38402" lon="0.78976">
        <ele>1136.4</ele>
        <time>2022-05-23 05:18:32</time>
      </trkpt>
      <trkpt lat="42.384" lon="0.78975">
        <ele>1136.6</ele>
        <time>2022-05-23 05:18:33</time>
      </trkpt>
      <trkpt lat="42.38398" lon="0.78973">
        <ele>1136.8</ele>
        <time>2022-05-23 05:18:34</time>
      </trkpt>
      <trkpt lat="42.38397" lon="0.78971">
        <ele>1137</ele>
        <time>2022-05-23 05:18:35</time>
      </trkpt>
      <trkpt lat="42.38395" lon="0.78969">
        <ele>1137.2</ele>
        <time>2022-05-23 05:18:36</time>
      </trkpt>
      <trkpt lat="42.38393" lon="0.78967">
        <ele>1137.4</ele>
        <time>2022-05-23 05:18:37</time>
      </trkpt>
      <trkpt lat="42.38391" lon="0.78964">
        <ele>1137.6</ele>
        <time>2022-05-23 05:18:38</time>
      </trkpt>
      <trkpt lat="42.3839" lon="0.78962">
        <ele>1137.8</ele>
        <time>2022-05-23 05:18:39</time>
      </trkpt>
      <trkpt lat="42.38388" lon="0.78961">
        <ele>1138</ele>
        <time>2022-05-23 05:18:40</time>
      </trkpt>
      <trkpt lat="42.38387" lon="0.78959">
        <ele>1138.2</ele>
        <time>2022-05-23 05:18:41</time>
      </trkpt>
      <trkpt lat="42.38386" lon="0.78957">
        <ele>1138.2</ele>
        <time>2022-05-23 05:18:42</time>
      </trkpt>
      <trkpt lat="42.38385" lon="0.78956">
        <ele>1138.4</ele>
        <time>2022-05-23 05:18:43</time>
      </trkpt>
      <trkpt lat="42.38383" lon="0.78954">
        <ele>1138.6</ele>
        <time>2022-05-23 05:18:44</time>
      </trkpt>
      <trkpt lat="42.38382" lon="0.78952">
        <ele>1138.8</ele>
        <time>2022-05-23 05:18:45</time>
      </trkpt>
      <trkpt lat="42.3838" lon="0.78951">
        <ele>1139</ele>
        <time>2022-05-23 05:18:46</time>
      </trkpt>
      <trkpt lat="42.38379" lon="0.78949">
        <ele>1139.2</ele>
        <time>2022-05-23 05:18:47</time>
      </trkpt>
      <trkpt lat="42.38377" lon="0.78948">
        <ele>1139.4</ele>
        <time>2022-05-23 05:18:48</time>
      </trkpt>
      <trkpt lat="42.38375" lon="0.78946">
        <ele>1139.4</ele>
        <time>2022-05-23 05:18:49</time>
      </trkpt>
      <trkpt lat="42.38374" lon="0.78945">
        <ele>1139.6</ele>
        <time>2022-05-23 05:18:50</time>
      </trkpt>
      <trkpt lat="42.38372" lon="0.78944">
        <ele>1139.8</ele>
        <time>2022-05-23 05:18:51</time>
      </trkpt>
      <trkpt lat="42.3837" lon="0.78942">
        <ele>1140</ele>
        <time>2022-05-23 05:18:52</time>
      </trkpt>
      <trkpt lat="42.38368" lon="0.78942">
        <ele>1140.2</ele>
        <time>2022-05-23 05:18:53</time>
      </trkpt>
      <trkpt lat="42.38365" lon="0.78941">
        <ele>1140.4</ele>
        <time>2022-05-23 05:18:54</time>
      </trkpt>
      <trkpt lat="42.38363" lon="0.78941">
        <ele>1140.4</ele>
        <time>2022-05-23 05:18:55</time>
      </trkpt>
      <trkpt lat="42.38361" lon="0.78941">
        <ele>1140.6</ele>
        <time>2022-05-23 05:18:56</time>
      </trkpt>
      <trkpt lat="42.38359" lon="0.78941">
        <ele>1140.8</ele>
        <time>2022-05-23 05:18:57</time>
      </trkpt>
      <trkpt lat="42.38357" lon="0.78942">
        <ele>1140.8</ele>
        <time>2022-05-23 05:18:58</time>
      </trkpt>
      <trkpt lat="42.38354" lon="0.78943">
        <ele>1141</ele>
        <time>2022-05-23 05:18:59</time>
      </trkpt>
      <trkpt lat="42.38352" lon="0.78944">
        <ele>1141.2</ele>
        <time>2022-05-23 05:19:00</time>
      </trkpt>
      <trkpt lat="42.38351" lon="0.78946">
        <ele>1141.4</ele>
        <time>2022-05-23 05:19:01</time>
      </trkpt>
      <trkpt lat="42.38349" lon="0.78948">
        <ele>1141.6</ele>
        <time>2022-05-23 05:19:02</time>
      </trkpt>
      <trkpt lat="42.38348" lon="0.7895">
        <ele>1141.8</ele>
        <time>2022-05-23 05:19:03</time>
      </trkpt>
      <trkpt lat="42.38346" lon="0.78953">
        <ele>1141.8</ele>
        <time>2022-05-23 05:19:04</time>
      </trkpt>
      <trkpt lat="42.38345" lon="0.78955">
        <ele>1142</ele>
        <time>2022-05-23 05:19:05</time>
      </trkpt>
      <trkpt lat="42.38344" lon="0.78958">
        <ele>1142.2</ele>
        <time>2022-05-23 05:19:06</time>
      </trkpt>
      <trkpt lat="42.38343" lon="0.78961">
        <ele>1142.2</ele>
        <time>2022-05-23 05:19:07</time>
      </trkpt>
      <trkpt lat="42.38342" lon="0.78963">
        <ele>1142.4</ele>
        <time>2022-05-23 05:19:08</time>
      </trkpt>
      <trkpt lat="42.38341" lon="0.78966">
        <ele>1142.6</ele>
        <time>2022-05-23 05:19:09</time>
      </trkpt>
      <trkpt lat="42.3834" lon="0.78969">
        <ele>1142.8</ele>
        <time>2022-05-23 05:19:10</time>
      </trkpt>
      <trkpt lat="42.38338" lon="0.78971">
        <ele>1143</ele>
        <time>2022-05-23 05:19:11</time>
      </trkpt>
      <trkpt lat="42.38337" lon="0.78974">
        <ele>1143.2</ele>
        <time>2022-05-23 05:19:12</time>
      </trkpt>
      <trkpt lat="42.38337" lon="0.78976">
        <ele>1143.2</ele>
        <time>2022-05-23 05:19:13</time>
      </trkpt>
      <trkpt lat="42.38335" lon="0.78979">
        <ele>1143.4</ele>
        <time>2022-05-23 05:19:14</time>
      </trkpt>
      <trkpt lat="42.38334" lon="0.78982">
        <ele>1143.6</ele>
        <time>2022-05-23 05:19:15</time>
      </trkpt>
      <trkpt lat="42.38333" lon="0.78984">
        <ele>1143.8</ele>
        <time>2022-05-23 05:19:16</time>
      </trkpt>
      <trkpt lat="42.38333" lon="0.78987">
        <ele>1144</ele>
        <time>2022-05-23 05:19:17</time>
      </trkpt>
      <trkpt lat="42.38332" lon="0.78989">
        <ele>1144</ele>
        <time>2022-05-23 05:19:18</time>
      </trkpt>
      <trkpt lat="42.38331" lon="0.78992">
        <ele>1144.2</ele>
        <time>2022-05-23 05:19:19</time>
      </trkpt>
      <trkpt lat="42.3833" lon="0.78994">
        <ele>1144.4</ele>
        <time>2022-05-23 05:19:20</time>
      </trkpt>
      <trkpt lat="42.38329" lon="0.78997">
        <ele>1144.6</ele>
        <time>2022-05-23 05:19:21</time>
      </trkpt>
      <trkpt lat="42.38328" lon="0.78999">
        <ele>1144.6</ele>
        <time>2022-05-23 05:19:22</time>
      </trkpt>
      <trkpt lat="42.38328" lon="0.79002">
        <ele>1144.8</ele>
        <time>2022-05-23 05:19:23</time>
      </trkpt>
      <trkpt lat="42.38327" lon="0.79004">
        <ele>1145</ele>
        <time>2022-05-23 05:19:24</time>
      </trkpt>
      <trkpt lat="42.38327" lon="0.79007">
        <ele>1145.2</ele>
        <time>2022-05-23 05:19:25</time>
      </trkpt>
      <trkpt lat="42.38326" lon="0.79009">
        <ele>1145.2</ele>
        <time>2022-05-23 05:19:26</time>
      </trkpt>
      <trkpt lat="42.38325" lon="0.79012">
        <ele>1145.4</ele>
        <time>2022-05-23 05:19:27</time>
      </trkpt>
      <trkpt lat="42.38324" lon="0.79014">
        <ele>1145.4</ele>
        <time>2022-05-23 05:19:28</time>
      </trkpt>
      <trkpt lat="42.38324" lon="0.79017">
        <ele>1145.6</ele>
        <time>2022-05-23 05:19:29</time>
      </trkpt>
      <trkpt lat="42.38323" lon="0.7902">
        <ele>1145.8</ele>
        <time>2022-05-23 05:19:30</time>
      </trkpt>
      <trkpt lat="42.38322" lon="0.79022">
        <ele>1145.8</ele>
        <time>2022-05-23 05:19:31</time>
      </trkpt>
      <trkpt lat="42.3832" lon="0.79024">
        <ele>1146</ele>
        <time>2022-05-23 05:19:32</time>
      </trkpt>
      <trkpt lat="42.38319" lon="0.79026">
        <ele>1146</ele>
        <time>2022-05-23 05:19:33</time>
      </trkpt>
      <trkpt lat="42.38318" lon="0.79028">
        <ele>1146.2</ele>
        <time>2022-05-23 05:19:34</time>
      </trkpt>
      <trkpt lat="42.38317" lon="0.7903">
        <ele>1146.2</ele>
        <time>2022-05-23 05:19:35</time>
      </trkpt>
      <trkpt lat="42.38315" lon="0.79031">
        <ele>1146.4</ele>
        <time>2022-05-23 05:19:36</time>
      </trkpt>
      <trkpt lat="42.38313" lon="0.79033">
        <ele>1146.6</ele>
        <time>2022-05-23 05:19:37</time>
      </trkpt>
      <trkpt lat="42.38312" lon="0.79035">
        <ele>1146.6</ele>
        <time>2022-05-23 05:19:38</time>
      </trkpt>
      <trkpt lat="42.38309" lon="0.79038">
        <ele>1146.6</ele>
        <time>2022-05-23 05:19:39</time>
      </trkpt>
      <trkpt lat="42.38308" lon="0.7904">
        <ele>1146.8</ele>
        <time>2022-05-23 05:19:40</time>
      </trkpt>
      <trkpt lat="42.38305" lon="0.79042">
        <ele>1146.8</ele>
        <time>2022-05-23 05:19:41</time>
      </trkpt>
      <trkpt lat="42.38303" lon="0.79043">
        <ele>1147</ele>
        <time>2022-05-23 05:19:42</time>
      </trkpt>
      <trkpt lat="42.38301" lon="0.79045">
        <ele>1147</ele>
        <time>2022-05-23 05:19:43</time>
      </trkpt>
      <trkpt lat="42.38298" lon="0.79048">
        <ele>1147</ele>
        <time>2022-05-23 05:19:44</time>
      </trkpt>
      <trkpt lat="42.38295" lon="0.7905">
        <ele>1147</ele>
        <time>2022-05-23 05:19:45</time>
      </trkpt>
      <trkpt lat="42.38292" lon="0.79052">
        <ele>1147.2</ele>
        <time>2022-05-23 05:19:46</time>
      </trkpt>
      <trkpt lat="42.3829" lon="0.79054">
        <ele>1147.2</ele>
        <time>2022-05-23 05:19:47</time>
      </trkpt>
      <trkpt lat="42.38287" lon="0.79055">
        <ele>1147.2</ele>
        <time>2022-05-23 05:19:48</time>
      </trkpt>
      <trkpt lat="42.38285" lon="0.79056">
        <ele>1147.4</ele>
        <time>2022-05-23 05:19:49</time>
      </trkpt>
      <trkpt lat="42.38282" lon="0.79058">
        <ele>1147.4</ele>
        <time>2022-05-23 05:19:50</time>
      </trkpt>
      <trkpt lat="42.38279" lon="0.79059">
        <ele>1147.4</ele>
        <time>2022-05-23 05:19:51</time>
      </trkpt>
      <trkpt lat="42.38276" lon="0.7906">
        <ele>1147.6</ele>
        <time>2022-05-23 05:19:52</time>
      </trkpt>
      <trkpt lat="42.38274" lon="0.79061">
        <ele>1147.6</ele>
        <time>2022-05-23 05:19:53</time>
      </trkpt>
      <trkpt lat="42.38271" lon="0.79063">
        <ele>1147.8</ele>
        <time>2022-05-23 05:19:54</time>
      </trkpt>
      <trkpt lat="42.38269" lon="0.79063">
        <ele>1147.8</ele>
        <time>2022-05-23 05:19:55</time>
      </trkpt>
      <trkpt lat="42.38266" lon="0.79064">
        <ele>1148</ele>
        <time>2022-05-23 05:19:56</time>
      </trkpt>
      <trkpt lat="42.38263" lon="0.79065">
        <ele>1148</ele>
        <time>2022-05-23 05:19:57</time>
      </trkpt>
      <trkpt lat="42.38261" lon="0.79066">
        <ele>1148.2</ele>
        <time>2022-05-23 05:19:58</time>
      </trkpt>
      <trkpt lat="42.38259" lon="0.79066">
        <ele>1148.4</ele>
        <time>2022-05-23 05:19:59</time>
      </trkpt>
      <trkpt lat="42.38257" lon="0.79068">
        <ele>1148.4</ele>
        <time>2022-05-23 05:20:00</time>
      </trkpt>
      <trkpt lat="42.38255" lon="0.79069">
        <ele>1148.6</ele>
        <time>2022-05-23 05:20:01</time>
      </trkpt>
      <trkpt lat="42.38253" lon="0.79071">
        <ele>1148.8</ele>
        <time>2022-05-23 05:20:02</time>
      </trkpt>
      <trkpt lat="42.38251" lon="0.79073">
        <ele>1148.8</ele>
        <time>2022-05-23 05:20:03</time>
      </trkpt>
      <trkpt lat="42.38249" lon="0.79074">
        <ele>1149</ele>
        <time>2022-05-23 05:20:04</time>
      </trkpt>
      <trkpt lat="42.38247" lon="0.79075">
        <ele>1149.2</ele>
        <time>2022-05-23 05:20:05</time>
      </trkpt>
      <trkpt lat="42.38245" lon="0.79077">
        <ele>1149.4</ele>
        <time>2022-05-23 05:20:06</time>
      </trkpt>
      <trkpt lat="42.38243" lon="0.79079">
        <ele>1149.4</ele>
        <time>2022-05-23 05:20:07</time>
      </trkpt>
      <trkpt lat="42.38241" lon="0.79082">
        <ele>1149.6</ele>
        <time>2022-05-23 05:20:08</time>
      </trkpt>
      <trkpt lat="42.38239" lon="0.79086">
        <ele>1149.8</ele>
        <time>2022-05-23 05:20:09</time>
      </trkpt>
      <trkpt lat="42.38237" lon="0.79088">
        <ele>1150</ele>
        <time>2022-05-23 05:20:10</time>
      </trkpt>
      <trkpt lat="42.38235" lon="0.79091">
        <ele>1150.2</ele>
        <time>2022-05-23 05:20:11</time>
      </trkpt>
      <trkpt lat="42.38233" lon="0.79093">
        <ele>1150.2</ele>
        <time>2022-05-23 05:20:12</time>
      </trkpt>
      <trkpt lat="42.38231" lon="0.79095">
        <ele>1150.4</ele>
        <time>2022-05-23 05:20:13</time>
      </trkpt>
      <trkpt lat="42.38229" lon="0.79097">
        <ele>1150.6</ele>
        <time>2022-05-23 05:20:14</time>
      </trkpt>
      <trkpt lat="42.38227" lon="0.79099">
        <ele>1150.8</ele>
        <time>2022-05-23 05:20:15</time>
      </trkpt>
      <trkpt lat="42.38225" lon="0.79101">
        <ele>1151</ele>
        <time>2022-05-23 05:20:16</time>
      </trkpt>
      <trkpt lat="42.38223" lon="0.79102">
        <ele>1151</ele>
        <time>2022-05-23 05:20:17</time>
      </trkpt>
      <trkpt lat="42.38221" lon="0.79104">
        <ele>1151.2</ele>
        <time>2022-05-23 05:20:18</time>
      </trkpt>
      <trkpt lat="42.38219" lon="0.79105">
        <ele>1151.4</ele>
        <time>2022-05-23 05:20:19</time>
      </trkpt>
      <trkpt lat="42.38216" lon="0.79106">
        <ele>1151.6</ele>
        <time>2022-05-23 05:20:20</time>
      </trkpt>
      <trkpt lat="42.38214" lon="0.79107">
        <ele>1151.8</ele>
        <time>2022-05-23 05:20:21</time>
      </trkpt>
      <trkpt lat="42.38213" lon="0.79108">
        <ele>1152</ele>
        <time>2022-05-23 05:20:22</time>
      </trkpt>
      <trkpt lat="42.38211" lon="0.79109">
        <ele>1152.2</ele>
        <time>2022-05-23 05:20:23</time>
      </trkpt>
      <trkpt lat="42.38208" lon="0.7911">
        <ele>1152.2</ele>
        <time>2022-05-23 05:20:24</time>
      </trkpt>
      <trkpt lat="42.38206" lon="0.79111">
        <ele>1152.4</ele>
        <time>2022-05-23 05:20:25</time>
      </trkpt>
      <trkpt lat="42.38204" lon="0.79112">
        <ele>1152.6</ele>
        <time>2022-05-23 05:20:26</time>
      </trkpt>
      <trkpt lat="42.38202" lon="0.79113">
        <ele>1152.8</ele>
        <time>2022-05-23 05:20:27</time>
      </trkpt>
      <trkpt lat="42.382" lon="0.79114">
        <ele>1153</ele>
        <time>2022-05-23 05:20:28</time>
      </trkpt>
      <trkpt lat="42.38199" lon="0.79115">
        <ele>1153.2</ele>
        <time>2022-05-23 05:20:29</time>
      </trkpt>
      <trkpt lat="42.38196" lon="0.79116">
        <ele>1153.4</ele>
        <time>2022-05-23 05:20:30</time>
      </trkpt>
      <trkpt lat="42.38195" lon="0.79116">
        <ele>1153.6</ele>
        <time>2022-05-23 05:20:31</time>
      </trkpt>
      <trkpt lat="42.38193" lon="0.79117">
        <ele>1153.6</ele>
        <time>2022-05-23 05:20:32</time>
      </trkpt>
      <trkpt lat="42.38191" lon="0.79117">
        <ele>1153.8</ele>
        <time>2022-05-23 05:20:33</time>
      </trkpt>
      <trkpt lat="42.3819" lon="0.79118">
        <ele>1154</ele>
        <time>2022-05-23 05:20:34</time>
      </trkpt>
      <trkpt lat="42.38188" lon="0.79119">
        <ele>1154.2</ele>
        <time>2022-05-23 05:20:35</time>
      </trkpt>
      <trkpt lat="42.38186" lon="0.7912">
        <ele>1154.2</ele>
        <time>2022-05-23 05:20:36</time>
      </trkpt>
      <trkpt lat="42.38185" lon="0.7912">
        <ele>1154.4</ele>
        <time>2022-05-23 05:20:37</time>
      </trkpt>
      <trkpt lat="42.38183" lon="0.79121">
        <ele>1154.6</ele>
        <time>2022-05-23 05:20:38</time>
      </trkpt>
      <trkpt lat="42.38181" lon="0.79121">
        <ele>1154.8</ele>
        <time>2022-05-23 05:20:39</time>
      </trkpt>
      <trkpt lat="42.38179" lon="0.79122">
        <ele>1155</ele>
        <time>2022-05-23 05:20:40</time>
      </trkpt>
      <trkpt lat="42.38178" lon="0.79122">
        <ele>1155</ele>
        <time>2022-05-23 05:20:41</time>
      </trkpt>
      <trkpt lat="42.38176" lon="0.79123">
        <ele>1155.2</ele>
        <time>2022-05-23 05:20:42</time>
      </trkpt>
      <trkpt lat="42.38174" lon="0.79122">
        <ele>1155.4</ele>
        <time>2022-05-23 05:20:43</time>
      </trkpt>
      <trkpt lat="42.38172" lon="0.79122">
        <ele>1155.6</ele>
        <time>2022-05-23 05:20:44</time>
      </trkpt>
      <trkpt lat="42.38171" lon="0.79122">
        <ele>1155.6</ele>
        <time>2022-05-23 05:20:45</time>
      </trkpt>
      <trkpt lat="42.38169" lon="0.79121">
        <ele>1155.8</ele>
        <time>2022-05-23 05:20:46</time>
      </trkpt>
      <trkpt lat="42.38167" lon="0.7912">
        <ele>1156</ele>
        <time>2022-05-23 05:20:47</time>
      </trkpt>
      <trkpt lat="42.38166" lon="0.7912">
        <ele>1156.2</ele>
        <time>2022-05-23 05:20:48</time>
      </trkpt>
      <trkpt lat="42.38165" lon="0.79119">
        <ele>1156.2</ele>
        <time>2022-05-23 05:20:49</time>
      </trkpt>
      <trkpt lat="42.38164" lon="0.79118">
        <ele>1156.4</ele>
        <time>2022-05-23 05:20:50</time>
      </trkpt>
      <trkpt lat="42.38163" lon="0.79118">
        <ele>1156.6</ele>
        <time>2022-05-23 05:20:51</time>
      </trkpt>
      <trkpt lat="42.38161" lon="0.79117">
        <ele>1156.6</ele>
        <time>2022-05-23 05:20:52</time>
      </trkpt>
      <trkpt lat="42.3816" lon="0.79117">
        <ele>1156.8</ele>
        <time>2022-05-23 05:20:53</time>
      </trkpt>
      <trkpt lat="42.38159" lon="0.79116">
        <ele>1157</ele>
        <time>2022-05-23 05:20:54</time>
      </trkpt>
      <trkpt lat="42.38157" lon="0.79115">
        <ele>1157.2</ele>
        <time>2022-05-23 05:20:55</time>
      </trkpt>
      <trkpt lat="42.38155" lon="0.79114">
        <ele>1157.4</ele>
        <time>2022-05-23 05:20:56</time>
      </trkpt>
      <trkpt lat="42.38153" lon="0.79113">
        <ele>1157.6</ele>
        <time>2022-05-23 05:20:57</time>
      </trkpt>
      <trkpt lat="42.38151" lon="0.79112">
        <ele>1157.6</ele>
        <time>2022-05-23 05:20:58</time>
      </trkpt>
      <trkpt lat="42.3815" lon="0.79111">
        <ele>1157.8</ele>
        <time>2022-05-23 05:20:59</time>
      </trkpt>
      <trkpt lat="42.38148" lon="0.7911">
        <ele>1158</ele>
        <time>2022-05-23 05:21:00</time>
      </trkpt>
      <trkpt lat="42.38146" lon="0.79108">
        <ele>1158.2</ele>
        <time>2022-05-23 05:21:01</time>
      </trkpt>
      <trkpt lat="42.38145" lon="0.79107">
        <ele>1158.2</ele>
        <time>2022-05-23 05:21:02</time>
      </trkpt>
      <trkpt lat="42.38143" lon="0.79106">
        <ele>1158.4</ele>
        <time>2022-05-23 05:21:03</time>
      </trkpt>
      <trkpt lat="42.38141" lon="0.79105">
        <ele>1158.6</ele>
        <time>2022-05-23 05:21:04</time>
      </trkpt>
      <trkpt lat="42.38139" lon="0.79104">
        <ele>1158.8</ele>
        <time>2022-05-23 05:21:05</time>
      </trkpt>
      <trkpt lat="42.38138" lon="0.79103">
        <ele>1159</ele>
        <time>2022-05-23 05:21:06</time>
      </trkpt>
      <trkpt lat="42.38136" lon="0.79102">
        <ele>1159</ele>
        <time>2022-05-23 05:21:07</time>
      </trkpt>
      <trkpt lat="42.38134" lon="0.79102">
        <ele>1159.2</ele>
        <time>2022-05-23 05:21:08</time>
      </trkpt>
      <trkpt lat="42.38131" lon="0.79102">
        <ele>1159.4</ele>
        <time>2022-05-23 05:21:09</time>
      </trkpt>
      <trkpt lat="42.38129" lon="0.79101">
        <ele>1159.4</ele>
        <time>2022-05-23 05:21:10</time>
      </trkpt>
      <trkpt lat="42.38127" lon="0.79101">
        <ele>1159.6</ele>
        <time>2022-05-23 05:21:11</time>
      </trkpt>
      <trkpt lat="42.38126" lon="0.791">
        <ele>1159.8</ele>
        <time>2022-05-23 05:21:12</time>
      </trkpt>
      <trkpt lat="42.38124" lon="0.79101">
        <ele>1159.8</ele>
        <time>2022-05-23 05:21:13</time>
      </trkpt>
      <trkpt lat="42.38123" lon="0.79101">
        <ele>1160</ele>
        <time>2022-05-23 05:21:14</time>
      </trkpt>
      <trkpt lat="42.38121" lon="0.79101">
        <ele>1160.2</ele>
        <time>2022-05-23 05:21:15</time>
      </trkpt>
      <trkpt lat="42.3812" lon="0.79102">
        <ele>1160.4</ele>
        <time>2022-05-23 05:21:16</time>
      </trkpt>
      <trkpt lat="42.38119" lon="0.79102">
        <ele>1160.6</ele>
        <time>2022-05-23 05:21:17</time>
      </trkpt>
      <trkpt lat="42.38118" lon="0.79102">
        <ele>1160.6</ele>
        <time>2022-05-23 05:21:18</time>
      </trkpt>
      <trkpt lat="42.38116" lon="0.79101">
        <ele>1160.8</ele>
        <time>2022-05-23 05:21:19</time>
      </trkpt>
      <trkpt lat="42.38116" lon="0.79101">
        <ele>1161</ele>
        <time>2022-05-23 05:21:20</time>
      </trkpt>
      <trkpt lat="42.38116" lon="0.79101">
        <ele>1161.2</ele>
        <time>2022-05-23 05:21:21</time>
      </trkpt>
      <trkpt lat="42.38116" lon="0.79101">
        <ele>1161.4</ele>
        <time>2022-05-23 05:21:22</time>
      </trkpt>
      <trkpt lat="42.38111" lon="0.79101">
        <ele>1161.6</ele>
        <time>2022-05-23 05:21:23</time>
      </trkpt>
      <trkpt lat="42.38108" lon="0.79102">
        <ele>1161.6</ele>
        <time>2022-05-23 05:21:24</time>
      </trkpt>
      <trkpt lat="42.38105" lon="0.79102">
        <ele>1161.8</ele>
        <time>2022-05-23 05:21:25</time>
      </trkpt>
      <trkpt lat="42.38103" lon="0.79102">
        <ele>1162</ele>
        <time>2022-05-23 05:21:26</time>
      </trkpt>
      <trkpt lat="42.381" lon="0.79102">
        <ele>1162.2</ele>
        <time>2022-05-23 05:21:27</time>
      </trkpt>
      <trkpt lat="42.38098" lon="0.79103">
        <ele>1162.2</ele>
        <time>2022-05-23 05:21:28</time>
      </trkpt>
      <trkpt lat="42.38096" lon="0.79104">
        <ele>1162.4</ele>
        <time>2022-05-23 05:21:29</time>
      </trkpt>
      <trkpt lat="42.38095" lon="0.79105">
        <ele>1162.6</ele>
        <time>2022-05-23 05:21:30</time>
      </trkpt>
      <trkpt lat="42.38093" lon="0.79106">
        <ele>1162.6</ele>
        <time>2022-05-23 05:21:31</time>
      </trkpt>
      <trkpt lat="42.38091" lon="0.79107">
        <ele>1162.8</ele>
        <time>2022-05-23 05:21:32</time>
      </trkpt>
      <trkpt lat="42.38089" lon="0.79107">
        <ele>1163</ele>
        <time>2022-05-23 05:21:33</time>
      </trkpt>
      <trkpt lat="42.38087" lon="0.79109">
        <ele>1163</ele>
        <time>2022-05-23 05:21:34</time>
      </trkpt>
      <trkpt lat="42.38085" lon="0.7911">
        <ele>1163.2</ele>
        <time>2022-05-23 05:21:35</time>
      </trkpt>
      <trkpt lat="42.38084" lon="0.79112">
        <ele>1163.4</ele>
        <time>2022-05-23 05:21:36</time>
      </trkpt>
      <trkpt lat="42.38082" lon="0.79114">
        <ele>1163.4</ele>
        <time>2022-05-23 05:21:37</time>
      </trkpt>
      <trkpt lat="42.3808" lon="0.79115">
        <ele>1163.6</ele>
        <time>2022-05-23 05:21:38</time>
      </trkpt>
      <trkpt lat="42.38078" lon="0.79117">
        <ele>1163.6</ele>
        <time>2022-05-23 05:21:39</time>
      </trkpt>
      <trkpt lat="42.38076" lon="0.79119">
        <ele>1163.8</ele>
        <time>2022-05-23 05:21:40</time>
      </trkpt>
      <trkpt lat="42.38075" lon="0.79121">
        <ele>1164</ele>
        <time>2022-05-23 05:21:41</time>
      </trkpt>
      <trkpt lat="42.38073" lon="0.79123">
        <ele>1164</ele>
        <time>2022-05-23 05:21:42</time>
      </trkpt>
      <trkpt lat="42.38072" lon="0.79124">
        <ele>1164.2</ele>
        <time>2022-05-23 05:21:43</time>
      </trkpt>
      <trkpt lat="42.3807" lon="0.79125">
        <ele>1164.4</ele>
        <time>2022-05-23 05:21:44</time>
      </trkpt>
      <trkpt lat="42.38069" lon="0.79127">
        <ele>1164.4</ele>
        <time>2022-05-23 05:21:45</time>
      </trkpt>
      <trkpt lat="42.38067" lon="0.79128">
        <ele>1164.6</ele>
        <time>2022-05-23 05:21:46</time>
      </trkpt>
      <trkpt lat="42.38065" lon="0.7913">
        <ele>1164.8</ele>
        <time>2022-05-23 05:21:47</time>
      </trkpt>
      <trkpt lat="42.38064" lon="0.79132">
        <ele>1164.8</ele>
        <time>2022-05-23 05:21:48</time>
      </trkpt>
      <trkpt lat="42.38062" lon="0.79134">
        <ele>1165</ele>
        <time>2022-05-23 05:21:49</time>
      </trkpt>
      <trkpt lat="42.3806" lon="0.79135">
        <ele>1165.2</ele>
        <time>2022-05-23 05:21:50</time>
      </trkpt>
      <trkpt lat="42.38058" lon="0.79136">
        <ele>1165.2</ele>
        <time>2022-05-23 05:21:51</time>
      </trkpt>
      <trkpt lat="42.38056" lon="0.79137">
        <ele>1165.4</ele>
        <time>2022-05-23 05:21:52</time>
      </trkpt>
      <trkpt lat="42.38055" lon="0.79139">
        <ele>1165.6</ele>
        <time>2022-05-23 05:21:53</time>
      </trkpt>
      <trkpt lat="42.38053" lon="0.79141">
        <ele>1165.6</ele>
        <time>2022-05-23 05:21:54</time>
      </trkpt>
      <trkpt lat="42.38052" lon="0.79143">
        <ele>1165.8</ele>
        <time>2022-05-23 05:21:55</time>
      </trkpt>
      <trkpt lat="42.3805" lon="0.79144">
        <ele>1166</ele>
        <time>2022-05-23 05:21:56</time>
      </trkpt>
      <trkpt lat="42.38048" lon="0.79146">
        <ele>1166</ele>
        <time>2022-05-23 05:21:57</time>
      </trkpt>
      <trkpt lat="42.38046" lon="0.79148">
        <ele>1166.2</ele>
        <time>2022-05-23 05:21:58</time>
      </trkpt>
      <trkpt lat="42.38045" lon="0.7915">
        <ele>1166.4</ele>
        <time>2022-05-23 05:21:59</time>
      </trkpt>
      <trkpt lat="42.38044" lon="0.79152">
        <ele>1166.6</ele>
        <time>2022-05-23 05:22:00</time>
      </trkpt>
      <trkpt lat="42.38042" lon="0.79154">
        <ele>1166.6</ele>
        <time>2022-05-23 05:22:01</time>
      </trkpt>
      <trkpt lat="42.38041" lon="0.79157">
        <ele>1166.8</ele>
        <time>2022-05-23 05:22:02</time>
      </trkpt>
      <trkpt lat="42.3804" lon="0.79159">
        <ele>1167</ele>
        <time>2022-05-23 05:22:03</time>
      </trkpt>
      <trkpt lat="42.38039" lon="0.79162">
        <ele>1167.2</ele>
        <time>2022-05-23 05:22:04</time>
      </trkpt>
      <trkpt lat="42.38038" lon="0.79164">
        <ele>1167.2</ele>
        <time>2022-05-23 05:22:05</time>
      </trkpt>
      <trkpt lat="42.38037" lon="0.79166">
        <ele>1167.4</ele>
        <time>2022-05-23 05:22:06</time>
      </trkpt>
      <trkpt lat="42.38036" lon="0.79168">
        <ele>1167.6</ele>
        <time>2022-05-23 05:22:07</time>
      </trkpt>
      <trkpt lat="42.38034" lon="0.7917">
        <ele>1167.8</ele>
        <time>2022-05-23 05:22:08</time>
      </trkpt>
      <trkpt lat="42.38034" lon="0.79172">
        <ele>1167.8</ele>
        <time>2022-05-23 05:22:09</time>
      </trkpt>
      <trkpt lat="42.38032" lon="0.79174">
        <ele>1168</ele>
        <time>2022-05-23 05:22:10</time>
      </trkpt>
      <trkpt lat="42.38031" lon="0.79176">
        <ele>1168.2</ele>
        <time>2022-05-23 05:22:11</time>
      </trkpt>
      <trkpt lat="42.38029" lon="0.79178">
        <ele>1168.4</ele>
        <time>2022-05-23 05:22:12</time>
      </trkpt>
      <trkpt lat="42.38028" lon="0.7918">
        <ele>1168.6</ele>
        <time>2022-05-23 05:22:13</time>
      </trkpt>
      <trkpt lat="42.38027" lon="0.79181">
        <ele>1168.8</ele>
        <time>2022-05-23 05:22:14</time>
      </trkpt>
      <trkpt lat="42.38026" lon="0.79183">
        <ele>1169</ele>
        <time>2022-05-23 05:22:15</time>
      </trkpt>
      <trkpt lat="42.38024" lon="0.79184">
        <ele>1169</ele>
        <time>2022-05-23 05:22:16</time>
      </trkpt>
      <trkpt lat="42.38023" lon="0.79186">
        <ele>1169.2</ele>
        <time>2022-05-23 05:22:17</time>
      </trkpt>
      <trkpt lat="42.38022" lon="0.79188">
        <ele>1169.4</ele>
        <time>2022-05-23 05:22:18</time>
      </trkpt>
      <trkpt lat="42.38021" lon="0.79189">
        <ele>1169.6</ele>
        <time>2022-05-23 05:22:19</time>
      </trkpt>
      <trkpt lat="42.38019" lon="0.79191">
        <ele>1169.8</ele>
        <time>2022-05-23 05:22:20</time>
      </trkpt>
      <trkpt lat="42.38018" lon="0.79192">
        <ele>1170</ele>
        <time>2022-05-23 05:22:21</time>
      </trkpt>
      <trkpt lat="42.38017" lon="0.79194">
        <ele>1170</ele>
        <time>2022-05-23 05:22:22</time>
      </trkpt>
      <trkpt lat="42.38015" lon="0.79195">
        <ele>1170.2</ele>
        <time>2022-05-23 05:22:23</time>
      </trkpt>
      <trkpt lat="42.38014" lon="0.79197">
        <ele>1170.4</ele>
        <time>2022-05-23 05:22:24</time>
      </trkpt>
      <trkpt lat="42.38013" lon="0.79199">
        <ele>1170.6</ele>
        <time>2022-05-23 05:22:25</time>
      </trkpt>
      <trkpt lat="42.38012" lon="0.79201">
        <ele>1170.8</ele>
        <time>2022-05-23 05:22:26</time>
      </trkpt>
      <trkpt lat="42.3801" lon="0.79202">
        <ele>1171</ele>
        <time>2022-05-23 05:22:27</time>
      </trkpt>
      <trkpt lat="42.38009" lon="0.79203">
        <ele>1171.2</ele>
        <time>2022-05-23 05:22:28</time>
      </trkpt>
      <trkpt lat="42.38008" lon="0.79205">
        <ele>1171.2</ele>
        <time>2022-05-23 05:22:29</time>
      </trkpt>
      <trkpt lat="42.38007" lon="0.79207">
        <ele>1171.4</ele>
        <time>2022-05-23 05:22:30</time>
      </trkpt>
      <trkpt lat="42.38005" lon="0.79208">
        <ele>1171.6</ele>
        <time>2022-05-23 05:22:31</time>
      </trkpt>
      <trkpt lat="42.38005" lon="0.7921">
        <ele>1171.8</ele>
        <time>2022-05-23 05:22:32</time>
      </trkpt>
      <trkpt lat="42.38004" lon="0.79212">
        <ele>1172</ele>
        <time>2022-05-23 05:22:33</time>
      </trkpt>
      <trkpt lat="42.38003" lon="0.79214">
        <ele>1172</ele>
        <time>2022-05-23 05:22:34</time>
      </trkpt>
      <trkpt lat="42.38002" lon="0.79216">
        <ele>1172.2</ele>
        <time>2022-05-23 05:22:35</time>
      </trkpt>
      <trkpt lat="42.38" lon="0.79218">
        <ele>1172.4</ele>
        <time>2022-05-23 05:22:36</time>
      </trkpt>
      <trkpt lat="42.37998" lon="0.7922">
        <ele>1172.6</ele>
        <time>2022-05-23 05:22:37</time>
      </trkpt>
      <trkpt lat="42.37996" lon="0.79222">
        <ele>1172.8</ele>
        <time>2022-05-23 05:22:38</time>
      </trkpt>
      <trkpt lat="42.37995" lon="0.79224">
        <ele>1172.8</ele>
        <time>2022-05-23 05:22:39</time>
      </trkpt>
      <trkpt lat="42.37994" lon="0.79226">
        <ele>1173</ele>
        <time>2022-05-23 05:22:40</time>
      </trkpt>
      <trkpt lat="42.37992" lon="0.79227">
        <ele>1173.2</ele>
        <time>2022-05-23 05:22:41</time>
      </trkpt>
      <trkpt lat="42.37991" lon="0.79229">
        <ele>1173.4</ele>
        <time>2022-05-23 05:22:42</time>
      </trkpt>
      <trkpt lat="42.37989" lon="0.7923">
        <ele>1173.6</ele>
        <time>2022-05-23 05:22:43</time>
      </trkpt>
      <trkpt lat="42.37988" lon="0.79232">
        <ele>1173.6</ele>
        <time>2022-05-23 05:22:44</time>
      </trkpt>
      <trkpt lat="42.37986" lon="0.79234">
        <ele>1173.8</ele>
        <time>2022-05-23 05:22:45</time>
      </trkpt>
      <trkpt lat="42.37985" lon="0.79236">
        <ele>1174</ele>
        <time>2022-05-23 05:22:46</time>
      </trkpt>
      <trkpt lat="42.37983" lon="0.79238">
        <ele>1174.2</ele>
        <time>2022-05-23 05:22:47</time>
      </trkpt>
      <trkpt lat="42.37982" lon="0.7924">
        <ele>1174.4</ele>
        <time>2022-05-23 05:22:48</time>
      </trkpt>
      <trkpt lat="42.37981" lon="0.79242">
        <ele>1174.6</ele>
        <time>2022-05-23 05:22:49</time>
      </trkpt>
      <trkpt lat="42.3798" lon="0.79244">
        <ele>1174.8</ele>
        <time>2022-05-23 05:22:50</time>
      </trkpt>
      <trkpt lat="42.37979" lon="0.79246">
        <ele>1174.8</ele>
        <time>2022-05-23 05:22:51</time>
      </trkpt>
      <trkpt lat="42.37978" lon="0.79248">
        <ele>1175</ele>
        <time>2022-05-23 05:22:52</time>
      </trkpt>
      <trkpt lat="42.37978" lon="0.79251">
        <ele>1175.2</ele>
        <time>2022-05-23 05:22:53</time>
      </trkpt>
      <trkpt lat="42.37977" lon="0.79253">
        <ele>1175.4</ele>
        <time>2022-05-23 05:22:54</time>
      </trkpt>
      <trkpt lat="42.37976" lon="0.79255">
        <ele>1175.4</ele>
        <time>2022-05-23 05:22:55</time>
      </trkpt>
      <trkpt lat="42.37975" lon="0.79258">
        <ele>1175.6</ele>
        <time>2022-05-23 05:22:56</time>
      </trkpt>
      <trkpt lat="42.37975" lon="0.7926">
        <ele>1175.8</ele>
        <time>2022-05-23 05:22:57</time>
      </trkpt>
      <trkpt lat="42.37974" lon="0.79262">
        <ele>1176</ele>
        <time>2022-05-23 05:22:58</time>
      </trkpt>
      <trkpt lat="42.37973" lon="0.79264">
        <ele>1176</ele>
        <time>2022-05-23 05:22:59</time>
      </trkpt>
      <trkpt lat="42.37972" lon="0.79267">
        <ele>1176.2</ele>
        <time>2022-05-23 05:23:00</time>
      </trkpt>
      <trkpt lat="42.37971" lon="0.79269">
        <ele>1176.4</ele>
        <time>2022-05-23 05:23:01</time>
      </trkpt>
      <trkpt lat="42.3797" lon="0.79271">
        <ele>1176.4</ele>
        <time>2022-05-23 05:23:02</time>
      </trkpt>
      <trkpt lat="42.37969" lon="0.79273">
        <ele>1176.6</ele>
        <time>2022-05-23 05:23:03</time>
      </trkpt>
      <trkpt lat="42.37968" lon="0.79274">
        <ele>1176.8</ele>
        <time>2022-05-23 05:23:04</time>
      </trkpt>
      <trkpt lat="42.37967" lon="0.79276">
        <ele>1177</ele>
        <time>2022-05-23 05:23:05</time>
      </trkpt>
      <trkpt lat="42.37966" lon="0.79278">
        <ele>1177.2</ele>
        <time>2022-05-23 05:23:06</time>
      </trkpt>
      <trkpt lat="42.37965" lon="0.79279">
        <ele>1177.2</ele>
        <time>2022-05-23 05:23:07</time>
      </trkpt>
      <trkpt lat="42.37963" lon="0.79281">
        <ele>1177.4</ele>
        <time>2022-05-23 05:23:08</time>
      </trkpt>
      <trkpt lat="42.37961" lon="0.79282">
        <ele>1177.6</ele>
        <time>2022-05-23 05:23:09</time>
      </trkpt>
      <trkpt lat="42.3796" lon="0.79283">
        <ele>1177.8</ele>
        <time>2022-05-23 05:23:10</time>
      </trkpt>
      <trkpt lat="42.37958" lon="0.79284">
        <ele>1178</ele>
        <time>2022-05-23 05:23:11</time>
      </trkpt>
      <trkpt lat="42.37956" lon="0.79285">
        <ele>1178</ele>
        <time>2022-05-23 05:23:12</time>
      </trkpt>
      <trkpt lat="42.37955" lon="0.79285">
        <ele>1178.2</ele>
        <time>2022-05-23 05:23:13</time>
      </trkpt>
      <trkpt lat="42.37953" lon="0.79286">
        <ele>1178.4</ele>
        <time>2022-05-23 05:23:14</time>
      </trkpt>
      <trkpt lat="42.37952" lon="0.79286">
        <ele>1178.6</ele>
        <time>2022-05-23 05:23:15</time>
      </trkpt>
      <trkpt lat="42.3795" lon="0.79287">
        <ele>1178.8</ele>
        <time>2022-05-23 05:23:16</time>
      </trkpt>
      <trkpt lat="42.37948" lon="0.79288">
        <ele>1179</ele>
        <time>2022-05-23 05:23:17</time>
      </trkpt>
      <trkpt lat="42.37947" lon="0.79288">
        <ele>1179.2</ele>
        <time>2022-05-23 05:23:18</time>
      </trkpt>
      <trkpt lat="42.37945" lon="0.79289">
        <ele>1179.4</ele>
        <time>2022-05-23 05:23:19</time>
      </trkpt>
      <trkpt lat="42.37943" lon="0.79289">
        <ele>1179.4</ele>
        <time>2022-05-23 05:23:20</time>
      </trkpt>
      <trkpt lat="42.37942" lon="0.79289">
        <ele>1179.6</ele>
        <time>2022-05-23 05:23:21</time>
      </trkpt>
      <trkpt lat="42.3794" lon="0.79289">
        <ele>1179.8</ele>
        <time>2022-05-23 05:23:22</time>
      </trkpt>
      <trkpt lat="42.37938" lon="0.79289">
        <ele>1180</ele>
        <time>2022-05-23 05:23:23</time>
      </trkpt>
      <trkpt lat="42.37937" lon="0.7929">
        <ele>1180.2</ele>
        <time>2022-05-23 05:23:24</time>
      </trkpt>
      <trkpt lat="42.37935" lon="0.7929">
        <ele>1180.4</ele>
        <time>2022-05-23 05:23:25</time>
      </trkpt>
      <trkpt lat="42.37934" lon="0.79291">
        <ele>1180.6</ele>
        <time>2022-05-23 05:23:26</time>
      </trkpt>
      <trkpt lat="42.37932" lon="0.79291">
        <ele>1180.8</ele>
        <time>2022-05-23 05:23:27</time>
      </trkpt>
      <trkpt lat="42.3793" lon="0.79292">
        <ele>1180.8</ele>
        <time>2022-05-23 05:23:28</time>
      </trkpt>
      <trkpt lat="42.37928" lon="0.79293">
        <ele>1181</ele>
        <time>2022-05-23 05:23:29</time>
      </trkpt>
      <trkpt lat="42.37926" lon="0.79295">
        <ele>1181.2</ele>
        <time>2022-05-23 05:23:30</time>
      </trkpt>
      <trkpt lat="42.37925" lon="0.79296">
        <ele>1181.2</ele>
        <time>2022-05-23 05:23:31</time>
      </trkpt>
      <trkpt lat="42.37924" lon="0.79297">
        <ele>1181.4</ele>
        <time>2022-05-23 05:23:32</time>
      </trkpt>
      <trkpt lat="42.37922" lon="0.79299">
        <ele>1181.6</ele>
        <time>2022-05-23 05:23:33</time>
      </trkpt>
      <trkpt lat="42.3792" lon="0.793">
        <ele>1181.8</ele>
        <time>2022-05-23 05:23:34</time>
      </trkpt>
      <trkpt lat="42.37919" lon="0.79302">
        <ele>1181.8</ele>
        <time>2022-05-23 05:23:35</time>
      </trkpt>
      <trkpt lat="42.37917" lon="0.79303">
        <ele>1182</ele>
        <time>2022-05-23 05:23:36</time>
      </trkpt>
      <trkpt lat="42.37916" lon="0.79305">
        <ele>1182.2</ele>
        <time>2022-05-23 05:23:37</time>
      </trkpt>
      <trkpt lat="42.37915" lon="0.79307">
        <ele>1182.4</ele>
        <time>2022-05-23 05:23:38</time>
      </trkpt>
      <trkpt lat="42.37913" lon="0.79309">
        <ele>1182.4</ele>
        <time>2022-05-23 05:23:39</time>
      </trkpt>
      <trkpt lat="42.37912" lon="0.7931">
        <ele>1182.6</ele>
        <time>2022-05-23 05:23:40</time>
      </trkpt>
      <trkpt lat="42.3791" lon="0.79312">
        <ele>1182.8</ele>
        <time>2022-05-23 05:23:41</time>
      </trkpt>
      <trkpt lat="42.37909" lon="0.79314">
        <ele>1182.8</ele>
        <time>2022-05-23 05:23:42</time>
      </trkpt>
      <trkpt lat="42.37908" lon="0.79316">
        <ele>1183</ele>
        <time>2022-05-23 05:23:43</time>
      </trkpt>
      <trkpt lat="42.37907" lon="0.79317">
        <ele>1183</ele>
        <time>2022-05-23 05:23:44</time>
      </trkpt>
      <trkpt lat="42.37906" lon="0.79319">
        <ele>1183.2</ele>
        <time>2022-05-23 05:23:45</time>
      </trkpt>
      <trkpt lat="42.37905" lon="0.79321">
        <ele>1183.4</ele>
        <time>2022-05-23 05:23:46</time>
      </trkpt>
      <trkpt lat="42.37904" lon="0.79323">
        <ele>1183.4</ele>
        <time>2022-05-23 05:23:47</time>
      </trkpt>
      <trkpt lat="42.37902" lon="0.79324">
        <ele>1183.6</ele>
        <time>2022-05-23 05:23:48</time>
      </trkpt>
      <trkpt lat="42.37901" lon="0.79326">
        <ele>1183.8</ele>
        <time>2022-05-23 05:23:49</time>
      </trkpt>
      <trkpt lat="42.379" lon="0.79328">
        <ele>1183.8</ele>
        <time>2022-05-23 05:23:50</time>
      </trkpt>
      <trkpt lat="42.37899" lon="0.7933">
        <ele>1184</ele>
        <time>2022-05-23 05:23:51</time>
      </trkpt>
      <trkpt lat="42.37897" lon="0.79331">
        <ele>1184</ele>
        <time>2022-05-23 05:23:52</time>
      </trkpt>
      <trkpt lat="42.37897" lon="0.79333">
        <ele>1184.2</ele>
        <time>2022-05-23 05:23:53</time>
      </trkpt>
      <trkpt lat="42.37896" lon="0.79335">
        <ele>1184.4</ele>
        <time>2022-05-23 05:23:54</time>
      </trkpt>
      <trkpt lat="42.37894" lon="0.79337">
        <ele>1184.4</ele>
        <time>2022-05-23 05:23:55</time>
      </trkpt>
      <trkpt lat="42.37894" lon="0.79339">
        <ele>1184.6</ele>
        <time>2022-05-23 05:23:56</time>
      </trkpt>
      <trkpt lat="42.37892" lon="0.79341">
        <ele>1184.8</ele>
        <time>2022-05-23 05:23:57</time>
      </trkpt>
      <trkpt lat="42.37891" lon="0.79343">
        <ele>1184.8</ele>
        <time>2022-05-23 05:23:58</time>
      </trkpt>
      <trkpt lat="42.37889" lon="0.79345">
        <ele>1185</ele>
        <time>2022-05-23 05:23:59</time>
      </trkpt>
      <trkpt lat="42.37888" lon="0.79347">
        <ele>1185.2</ele>
        <time>2022-05-23 05:24:00</time>
      </trkpt>
      <trkpt lat="42.37887" lon="0.79348">
        <ele>1185.2</ele>
        <time>2022-05-23 05:24:01</time>
      </trkpt>
      <trkpt lat="42.37886" lon="0.7935">
        <ele>1185.4</ele>
        <time>2022-05-23 05:24:02</time>
      </trkpt>
      <trkpt lat="42.37885" lon="0.79352">
        <ele>1185.6</ele>
        <time>2022-05-23 05:24:03</time>
      </trkpt>
      <trkpt lat="42.37884" lon="0.79354">
        <ele>1185.6</ele>
        <time>2022-05-23 05:24:04</time>
      </trkpt>
      <trkpt lat="42.37883" lon="0.79356">
        <ele>1185.8</ele>
        <time>2022-05-23 05:24:05</time>
      </trkpt>
      <trkpt lat="42.37882" lon="0.79358">
        <ele>1186</ele>
        <time>2022-05-23 05:24:06</time>
      </trkpt>
      <trkpt lat="42.37881" lon="0.7936">
        <ele>1186</ele>
        <time>2022-05-23 05:24:07</time>
      </trkpt>
      <trkpt lat="42.3788" lon="0.79362">
        <ele>1186.2</ele>
        <time>2022-05-23 05:24:08</time>
      </trkpt>
      <trkpt lat="42.37879" lon="0.79364">
        <ele>1186.4</ele>
        <time>2022-05-23 05:24:09</time>
      </trkpt>
      <trkpt lat="42.37878" lon="0.79366">
        <ele>1186.6</ele>
        <time>2022-05-23 05:24:10</time>
      </trkpt>
      <trkpt lat="42.37876" lon="0.79367">
        <ele>1186.6</ele>
        <time>2022-05-23 05:24:11</time>
      </trkpt>
      <trkpt lat="42.37875" lon="0.79369">
        <ele>1186.8</ele>
        <time>2022-05-23 05:24:12</time>
      </trkpt>
      <trkpt lat="42.37873" lon="0.79371">
        <ele>1187</ele>
        <time>2022-05-23 05:24:13</time>
      </trkpt>
      <trkpt lat="42.37872" lon="0.79373">
        <ele>1187</ele>
        <time>2022-05-23 05:24:14</time>
      </trkpt>
      <trkpt lat="42.37871" lon="0.79375">
        <ele>1187.2</ele>
        <time>2022-05-23 05:24:15</time>
      </trkpt>
      <trkpt lat="42.3787" lon="0.79377">
        <ele>1187.4</ele>
        <time>2022-05-23 05:24:16</time>
      </trkpt>
      <trkpt lat="42.37869" lon="0.79378">
        <ele>1187.6</ele>
        <time>2022-05-23 05:24:17</time>
      </trkpt>
      <trkpt lat="42.37868" lon="0.7938">
        <ele>1187.6</ele>
        <time>2022-05-23 05:24:18</time>
      </trkpt>
      <trkpt lat="42.37867" lon="0.79382">
        <ele>1187.8</ele>
        <time>2022-05-23 05:24:19</time>
      </trkpt>
      <trkpt lat="42.37866" lon="0.79384">
        <ele>1188</ele>
        <time>2022-05-23 05:24:20</time>
      </trkpt>
      <trkpt lat="42.37865" lon="0.79385">
        <ele>1188</ele>
        <time>2022-05-23 05:24:21</time>
      </trkpt>
      <trkpt lat="42.37863" lon="0.79386">
        <ele>1188.2</ele>
        <time>2022-05-23 05:24:22</time>
      </trkpt>
      <trkpt lat="42.37863" lon="0.79387">
        <ele>1188.4</ele>
        <time>2022-05-23 05:24:23</time>
      </trkpt>
      <trkpt lat="42.37862" lon="0.79388">
        <ele>1188.6</ele>
        <time>2022-05-23 05:24:24</time>
      </trkpt>
      <trkpt lat="42.3786" lon="0.79388">
        <ele>1188.6</ele>
        <time>2022-05-23 05:24:25</time>
      </trkpt>
      <trkpt lat="42.37859" lon="0.79389">
        <ele>1188.8</ele>
        <time>2022-05-23 05:24:26</time>
      </trkpt>
      <trkpt lat="42.37857" lon="0.7939">
        <ele>1189</ele>
        <time>2022-05-23 05:24:27</time>
      </trkpt>
      <trkpt lat="42.37855" lon="0.7939">
        <ele>1189.2</ele>
        <time>2022-05-23 05:24:28</time>
      </trkpt>
      <trkpt lat="42.37854" lon="0.79391">
        <ele>1189.2</ele>
        <time>2022-05-23 05:24:29</time>
      </trkpt>
      <trkpt lat="42.37852" lon="0.79392">
        <ele>1189.4</ele>
        <time>2022-05-23 05:24:30</time>
      </trkpt>
      <trkpt lat="42.3785" lon="0.79393">
        <ele>1189.6</ele>
        <time>2022-05-23 05:24:31</time>
      </trkpt>
      <trkpt lat="42.37848" lon="0.79394">
        <ele>1189.8</ele>
        <time>2022-05-23 05:24:32</time>
      </trkpt>
      <trkpt lat="42.37846" lon="0.79394">
        <ele>1190</ele>
        <time>2022-05-23 05:24:33</time>
      </trkpt>
      <trkpt lat="42.37844" lon="0.79394">
        <ele>1190</ele>
        <time>2022-05-23 05:24:34</time>
      </trkpt>
      <trkpt lat="42.37843" lon="0.79393">
        <ele>1190.2</ele>
        <time>2022-05-23 05:24:35</time>
      </trkpt>
      <trkpt lat="42.37842" lon="0.79394">
        <ele>1190.4</ele>
        <time>2022-05-23 05:24:36</time>
      </trkpt>
      <trkpt lat="42.37841" lon="0.79395">
        <ele>1190.6</ele>
        <time>2022-05-23 05:24:37</time>
      </trkpt>
      <trkpt lat="42.37838" lon="0.79395">
        <ele>1190.6</ele>
        <time>2022-05-23 05:24:38</time>
      </trkpt>
      <trkpt lat="42.37838" lon="0.79395">
        <ele>1190.8</ele>
        <time>2022-05-23 05:24:39</time>
      </trkpt>
      <trkpt lat="42.37838" lon="0.79397">
        <ele>1191</ele>
        <time>2022-05-23 05:24:40</time>
      </trkpt>
      <trkpt lat="42.37836" lon="0.79397">
        <ele>1191.2</ele>
        <time>2022-05-23 05:24:41</time>
      </trkpt>
      <trkpt lat="42.37834" lon="0.79397">
        <ele>1191.4</ele>
        <time>2022-05-23 05:24:42</time>
      </trkpt>
      <trkpt lat="42.37831" lon="0.79395">
        <ele>1191.4</ele>
        <time>2022-05-23 05:24:43</time>
      </trkpt>
      <trkpt lat="42.37829" lon="0.79394">
        <ele>1191.6</ele>
        <time>2022-05-23 05:24:44</time>
      </trkpt>
      <trkpt lat="42.37827" lon="0.79392">
        <ele>1191.8</ele>
        <time>2022-05-23 05:24:45</time>
      </trkpt>
      <trkpt lat="42.37826" lon="0.7939">
        <ele>1192</ele>
        <time>2022-05-23 05:24:46</time>
      </trkpt>
      <trkpt lat="42.37825" lon="0.79388">
        <ele>1192.2</ele>
        <time>2022-05-23 05:24:47</time>
      </trkpt>
      <trkpt lat="42.37824" lon="0.79386">
        <ele>1192.4</ele>
        <time>2022-05-23 05:24:48</time>
      </trkpt>
      <trkpt lat="42.37823" lon="0.79384">
        <ele>1192.6</ele>
        <time>2022-05-23 05:24:49</time>
      </trkpt>
      <trkpt lat="42.37822" lon="0.79382">
        <ele>1192.8</ele>
        <time>2022-05-23 05:24:50</time>
      </trkpt>
      <trkpt lat="42.37822" lon="0.7938">
        <ele>1193</ele>
        <time>2022-05-23 05:24:51</time>
      </trkpt>
      <trkpt lat="42.37821" lon="0.79377">
        <ele>1193</ele>
        <time>2022-05-23 05:24:52</time>
      </trkpt>
      <trkpt lat="42.3782" lon="0.79374">
        <ele>1193.2</ele>
        <time>2022-05-23 05:24:53</time>
      </trkpt>
      <trkpt lat="42.3782" lon="0.79371">
        <ele>1193.4</ele>
        <time>2022-05-23 05:24:54</time>
      </trkpt>
      <trkpt lat="42.3782" lon="0.79369">
        <ele>1193.6</ele>
        <time>2022-05-23 05:24:55</time>
      </trkpt>
      <trkpt lat="42.3782" lon="0.79367">
        <ele>1193.6</ele>
        <time>2022-05-23 05:24:56</time>
      </trkpt>
      <trkpt lat="42.37819" lon="0.79364">
        <ele>1193.8</ele>
        <time>2022-05-23 05:24:57</time>
      </trkpt>
      <trkpt lat="42.37818" lon="0.79362">
        <ele>1194</ele>
        <time>2022-05-23 05:24:58</time>
      </trkpt>
      <trkpt lat="42.37817" lon="0.7936">
        <ele>1194.2</ele>
        <time>2022-05-23 05:24:59</time>
      </trkpt>
      <trkpt lat="42.37817" lon="0.79359">
        <ele>1194.2</ele>
        <time>2022-05-23 05:25:00</time>
      </trkpt>
      <trkpt lat="42.37816" lon="0.79357">
        <ele>1194.4</ele>
        <time>2022-05-23 05:25:01</time>
      </trkpt>
      <trkpt lat="42.37815" lon="0.79355">
        <ele>1194.6</ele>
        <time>2022-05-23 05:25:02</time>
      </trkpt>
      <trkpt lat="42.37814" lon="0.79352">
        <ele>1194.8</ele>
        <time>2022-05-23 05:25:03</time>
      </trkpt>
      <trkpt lat="42.37813" lon="0.7935">
        <ele>1194.8</ele>
        <time>2022-05-23 05:25:04</time>
      </trkpt>
      <trkpt lat="42.37812" lon="0.79347">
        <ele>1195</ele>
        <time>2022-05-23 05:25:05</time>
      </trkpt>
      <trkpt lat="42.37812" lon="0.79345">
        <ele>1195.2</ele>
        <time>2022-05-23 05:25:06</time>
      </trkpt>
      <trkpt lat="42.3781" lon="0.79343">
        <ele>1195.4</ele>
        <time>2022-05-23 05:25:07</time>
      </trkpt>
      <trkpt lat="42.3781" lon="0.79341">
        <ele>1195.4</ele>
        <time>2022-05-23 05:25:08</time>
      </trkpt>
      <trkpt lat="42.37809" lon="0.79339">
        <ele>1195.6</ele>
        <time>2022-05-23 05:25:09</time>
      </trkpt>
      <trkpt lat="42.37808" lon="0.79336">
        <ele>1195.8</ele>
        <time>2022-05-23 05:25:10</time>
      </trkpt>
      <trkpt lat="42.37807" lon="0.79334">
        <ele>1195.8</ele>
        <time>2022-05-23 05:25:11</time>
      </trkpt>
      <trkpt lat="42.37807" lon="0.79331">
        <ele>1196</ele>
        <time>2022-05-23 05:25:12</time>
      </trkpt>
      <trkpt lat="42.37806" lon="0.79328">
        <ele>1196.2</ele>
        <time>2022-05-23 05:25:13</time>
      </trkpt>
      <trkpt lat="42.37805" lon="0.79326">
        <ele>1196.4</ele>
        <time>2022-05-23 05:25:14</time>
      </trkpt>
      <trkpt lat="42.37805" lon="0.79324">
        <ele>1196.4</ele>
        <time>2022-05-23 05:25:15</time>
      </trkpt>
      <trkpt lat="42.37804" lon="0.79322">
        <ele>1196.6</ele>
        <time>2022-05-23 05:25:16</time>
      </trkpt>
      <trkpt lat="42.37803" lon="0.7932">
        <ele>1196.8</ele>
        <time>2022-05-23 05:25:17</time>
      </trkpt>
      <trkpt lat="42.37802" lon="0.79318">
        <ele>1197</ele>
        <time>2022-05-23 05:25:18</time>
      </trkpt>
      <trkpt lat="42.37802" lon="0.79315">
        <ele>1197</ele>
        <time>2022-05-23 05:25:19</time>
      </trkpt>
      <trkpt lat="42.37801" lon="0.79313">
        <ele>1197.2</ele>
        <time>2022-05-23 05:25:20</time>
      </trkpt>
      <trkpt lat="42.37799" lon="0.79307">
        <ele>1197.4</ele>
        <time>2022-05-23 05:25:21</time>
      </trkpt>
      <trkpt lat="42.37797" lon="0.79302">
        <ele>1197.6</ele>
        <time>2022-05-23 05:25:22</time>
      </trkpt>
      <trkpt lat="42.37795" lon="0.79299">
        <ele>1197.8</ele>
        <time>2022-05-23 05:25:23</time>
      </trkpt>
      <trkpt lat="42.37793" lon="0.79301">
        <ele>1197.8</ele>
        <time>2022-05-23 05:25:24</time>
      </trkpt>
      <trkpt lat="42.37792" lon="0.793">
        <ele>1198</ele>
        <time>2022-05-23 05:25:25</time>
      </trkpt>
      <trkpt lat="42.37792" lon="0.79299">
        <ele>1198.2</ele>
        <time>2022-05-23 05:25:26</time>
      </trkpt>
      <trkpt lat="42.37791" lon="0.79297">
        <ele>1198.4</ele>
        <time>2022-05-23 05:25:27</time>
      </trkpt>
      <trkpt lat="42.37789" lon="0.79296">
        <ele>1198.4</ele>
        <time>2022-05-23 05:25:28</time>
      </trkpt>
      <trkpt lat="42.37788" lon="0.79294">
        <ele>1198.6</ele>
        <time>2022-05-23 05:25:29</time>
      </trkpt>
      <trkpt lat="42.37787" lon="0.79292">
        <ele>1198.8</ele>
        <time>2022-05-23 05:25:30</time>
      </trkpt>
      <trkpt lat="42.37786" lon="0.7929">
        <ele>1199</ele>
        <time>2022-05-23 05:25:31</time>
      </trkpt>
      <trkpt lat="42.37785" lon="0.79288">
        <ele>1199</ele>
        <time>2022-05-23 05:25:32</time>
      </trkpt>
      <trkpt lat="42.37783" lon="0.79286">
        <ele>1199.2</ele>
        <time>2022-05-23 05:25:33</time>
      </trkpt>
      <trkpt lat="42.37782" lon="0.79284">
        <ele>1199.4</ele>
        <time>2022-05-23 05:25:34</time>
      </trkpt>
      <trkpt lat="42.37781" lon="0.79283">
        <ele>1199.6</ele>
        <time>2022-05-23 05:25:35</time>
      </trkpt>
      <trkpt lat="42.3778" lon="0.79282">
        <ele>1199.6</ele>
        <time>2022-05-23 05:25:36</time>
      </trkpt>
      <trkpt lat="42.37778" lon="0.7928">
        <ele>1199.8</ele>
        <time>2022-05-23 05:25:37</time>
      </trkpt>
      <trkpt lat="42.37778" lon="0.79278">
        <ele>1200</ele>
        <time>2022-05-23 05:25:38</time>
      </trkpt>
      <trkpt lat="42.37777" lon="0.79276">
        <ele>1200</ele>
        <time>2022-05-23 05:25:39</time>
      </trkpt>
      <trkpt lat="42.37776" lon="0.79274">
        <ele>1200.2</ele>
        <time>2022-05-23 05:25:40</time>
      </trkpt>
      <trkpt lat="42.37775" lon="0.79272">
        <ele>1200.4</ele>
        <time>2022-05-23 05:25:41</time>
      </trkpt>
      <trkpt lat="42.37773" lon="0.7927">
        <ele>1200.6</ele>
        <time>2022-05-23 05:25:42</time>
      </trkpt>
      <trkpt lat="42.37772" lon="0.79268">
        <ele>1200.6</ele>
        <time>2022-05-23 05:25:43</time>
      </trkpt>
      <trkpt lat="42.37771" lon="0.79267">
        <ele>1200.8</ele>
        <time>2022-05-23 05:25:44</time>
      </trkpt>
      <trkpt lat="42.3777" lon="0.79266">
        <ele>1201</ele>
        <time>2022-05-23 05:25:45</time>
      </trkpt>
      <trkpt lat="42.37769" lon="0.79264">
        <ele>1201.2</ele>
        <time>2022-05-23 05:25:46</time>
      </trkpt>
      <trkpt lat="42.37768" lon="0.79262">
        <ele>1201.2</ele>
        <time>2022-05-23 05:25:47</time>
      </trkpt>
      <trkpt lat="42.37766" lon="0.7926">
        <ele>1201.4</ele>
        <time>2022-05-23 05:25:48</time>
      </trkpt>
      <trkpt lat="42.37765" lon="0.79259">
        <ele>1201.6</ele>
        <time>2022-05-23 05:25:49</time>
      </trkpt>
      <trkpt lat="42.37764" lon="0.79257">
        <ele>1201.8</ele>
        <time>2022-05-23 05:25:50</time>
      </trkpt>
      <trkpt lat="42.37763" lon="0.79256">
        <ele>1201.8</ele>
        <time>2022-05-23 05:25:51</time>
      </trkpt>
      <trkpt lat="42.37762" lon="0.79254">
        <ele>1202</ele>
        <time>2022-05-23 05:25:52</time>
      </trkpt>
      <trkpt lat="42.37761" lon="0.79252">
        <ele>1202.2</ele>
        <time>2022-05-23 05:25:53</time>
      </trkpt>
      <trkpt lat="42.3776" lon="0.7925">
        <ele>1202.4</ele>
        <time>2022-05-23 05:25:54</time>
      </trkpt>
      <trkpt lat="42.37759" lon="0.79249">
        <ele>1202.4</ele>
        <time>2022-05-23 05:25:55</time>
      </trkpt>
      <trkpt lat="42.37757" lon="0.79248">
        <ele>1202.6</ele>
        <time>2022-05-23 05:25:56</time>
      </trkpt>
      <trkpt lat="42.37756" lon="0.79247">
        <ele>1202.8</ele>
        <time>2022-05-23 05:25:57</time>
      </trkpt>
      <trkpt lat="42.37755" lon="0.79245">
        <ele>1202.8</ele>
        <time>2022-05-23 05:25:58</time>
      </trkpt>
      <trkpt lat="42.37754" lon="0.79244">
        <ele>1203</ele>
        <time>2022-05-23 05:25:59</time>
      </trkpt>
      <trkpt lat="42.37752" lon="0.79242">
        <ele>1203.2</ele>
        <time>2022-05-23 05:26:00</time>
      </trkpt>
      <trkpt lat="42.3775" lon="0.79241">
        <ele>1203.2</ele>
        <time>2022-05-23 05:26:01</time>
      </trkpt>
      <trkpt lat="42.37748" lon="0.7924">
        <ele>1203.4</ele>
        <time>2022-05-23 05:26:02</time>
      </trkpt>
      <trkpt lat="42.37746" lon="0.79239">
        <ele>1203.6</ele>
        <time>2022-05-23 05:26:03</time>
      </trkpt>
      <trkpt lat="42.37745" lon="0.79238">
        <ele>1203.6</ele>
        <time>2022-05-23 05:26:04</time>
      </trkpt>
      <trkpt lat="42.37743" lon="0.79237">
        <ele>1203.8</ele>
        <time>2022-05-23 05:26:05</time>
      </trkpt>
      <trkpt lat="42.37742" lon="0.79236">
        <ele>1204</ele>
        <time>2022-05-23 05:26:06</time>
      </trkpt>
      <trkpt lat="42.3774" lon="0.79235">
        <ele>1204</ele>
        <time>2022-05-23 05:26:07</time>
      </trkpt>
      <trkpt lat="42.37738" lon="0.79234">
        <ele>1204.2</ele>
        <time>2022-05-23 05:26:08</time>
      </trkpt>
      <trkpt lat="42.37736" lon="0.79233">
        <ele>1204.4</ele>
        <time>2022-05-23 05:26:09</time>
      </trkpt>
      <trkpt lat="42.37734" lon="0.79232">
        <ele>1204.4</ele>
        <time>2022-05-23 05:26:10</time>
      </trkpt>
      <trkpt lat="42.37732" lon="0.79232">
        <ele>1204.6</ele>
        <time>2022-05-23 05:26:11</time>
      </trkpt>
      <trkpt lat="42.3773" lon="0.79231">
        <ele>1204.8</ele>
        <time>2022-05-23 05:26:12</time>
      </trkpt>
      <trkpt lat="42.37728" lon="0.79231">
        <ele>1205</ele>
        <time>2022-05-23 05:26:13</time>
      </trkpt>
      <trkpt lat="42.37726" lon="0.79232">
        <ele>1205</ele>
        <time>2022-05-23 05:26:14</time>
      </trkpt>
      <trkpt lat="42.37724" lon="0.79233">
        <ele>1205.2</ele>
        <time>2022-05-23 05:26:15</time>
      </trkpt>
      <trkpt lat="42.37722" lon="0.79234">
        <ele>1205.4</ele>
        <time>2022-05-23 05:26:16</time>
      </trkpt>
      <trkpt lat="42.3772" lon="0.79236">
        <ele>1205.4</ele>
        <time>2022-05-23 05:26:17</time>
      </trkpt>
      <trkpt lat="42.37718" lon="0.79237">
        <ele>1205.6</ele>
        <time>2022-05-23 05:26:18</time>
      </trkpt>
      <trkpt lat="42.37717" lon="0.79239">
        <ele>1205.8</ele>
        <time>2022-05-23 05:26:19</time>
      </trkpt>
      <trkpt lat="42.37715" lon="0.7924">
        <ele>1206</ele>
        <time>2022-05-23 05:26:20</time>
      </trkpt>
      <trkpt lat="42.37714" lon="0.79242">
        <ele>1206</ele>
        <time>2022-05-23 05:26:21</time>
      </trkpt>
      <trkpt lat="42.37713" lon="0.79244">
        <ele>1206.2</ele>
        <time>2022-05-23 05:26:22</time>
      </trkpt>
      <trkpt lat="42.37712" lon="0.79246">
        <ele>1206.4</ele>
        <time>2022-05-23 05:26:23</time>
      </trkpt>
      <trkpt lat="42.37711" lon="0.79248">
        <ele>1206.6</ele>
        <time>2022-05-23 05:26:24</time>
      </trkpt>
      <trkpt lat="42.37711" lon="0.79251">
        <ele>1206.8</ele>
        <time>2022-05-23 05:26:25</time>
      </trkpt>
      <trkpt lat="42.3771" lon="0.79253">
        <ele>1207</ele>
        <time>2022-05-23 05:26:26</time>
      </trkpt>
      <trkpt lat="42.3771" lon="0.79256">
        <ele>1207.2</ele>
        <time>2022-05-23 05:26:27</time>
      </trkpt>
      <trkpt lat="42.37709" lon="0.79259">
        <ele>1207.2</ele>
        <time>2022-05-23 05:26:28</time>
      </trkpt>
      <trkpt lat="42.37709" lon="0.79262">
        <ele>1207.4</ele>
        <time>2022-05-23 05:26:29</time>
      </trkpt>
      <trkpt lat="42.37709" lon="0.79265">
        <ele>1207.6</ele>
        <time>2022-05-23 05:26:30</time>
      </trkpt>
      <trkpt lat="42.37709" lon="0.79268">
        <ele>1207.8</ele>
        <time>2022-05-23 05:26:31</time>
      </trkpt>
      <trkpt lat="42.37708" lon="0.79271">
        <ele>1208</ele>
        <time>2022-05-23 05:26:32</time>
      </trkpt>
      <trkpt lat="42.37708" lon="0.79273">
        <ele>1208.2</ele>
        <time>2022-05-23 05:26:33</time>
      </trkpt>
      <trkpt lat="42.37708" lon="0.79276">
        <ele>1208.4</ele>
        <time>2022-05-23 05:26:34</time>
      </trkpt>
      <trkpt lat="42.37707" lon="0.79278">
        <ele>1208.4</ele>
        <time>2022-05-23 05:26:35</time>
      </trkpt>
      <trkpt lat="42.37706" lon="0.79281">
        <ele>1208.6</ele>
        <time>2022-05-23 05:26:36</time>
      </trkpt>
      <trkpt lat="42.37706" lon="0.79284">
        <ele>1208.8</ele>
        <time>2022-05-23 05:26:37</time>
      </trkpt>
      <trkpt lat="42.37706" lon="0.79287">
        <ele>1209</ele>
        <time>2022-05-23 05:26:38</time>
      </trkpt>
      <trkpt lat="42.37707" lon="0.79289">
        <ele>1209.2</ele>
        <time>2022-05-23 05:26:39</time>
      </trkpt>
      <trkpt lat="42.37708" lon="0.79292">
        <ele>1209.2</ele>
        <time>2022-05-23 05:26:40</time>
      </trkpt>
      <trkpt lat="42.37708" lon="0.79294">
        <ele>1209.4</ele>
        <time>2022-05-23 05:26:41</time>
      </trkpt>
      <trkpt lat="42.37708" lon="0.79297">
        <ele>1209.6</ele>
        <time>2022-05-23 05:26:42</time>
      </trkpt>
      <trkpt lat="42.37708" lon="0.793">
        <ele>1209.6</ele>
        <time>2022-05-23 05:26:43</time>
      </trkpt>
      <trkpt lat="42.37708" lon="0.79302">
        <ele>1209.8</ele>
        <time>2022-05-23 05:26:44</time>
      </trkpt>
      <trkpt lat="42.37709" lon="0.79305">
        <ele>1210</ele>
        <time>2022-05-23 05:26:45</time>
      </trkpt>
      <trkpt lat="42.37709" lon="0.79307">
        <ele>1210</ele>
        <time>2022-05-23 05:26:46</time>
      </trkpt>
      <trkpt lat="42.37709" lon="0.79309">
        <ele>1210.2</ele>
        <time>2022-05-23 05:26:47</time>
      </trkpt>
      <trkpt lat="42.37709" lon="0.79311">
        <ele>1210.4</ele>
        <time>2022-05-23 05:26:48</time>
      </trkpt>
      <trkpt lat="42.37709" lon="0.79313">
        <ele>1210.4</ele>
        <time>2022-05-23 05:26:49</time>
      </trkpt>
      <trkpt lat="42.37709" lon="0.79316">
        <ele>1210.6</ele>
        <time>2022-05-23 05:26:50</time>
      </trkpt>
      <trkpt lat="42.37708" lon="0.79318">
        <ele>1210.8</ele>
        <time>2022-05-23 05:26:51</time>
      </trkpt>
      <trkpt lat="42.37708" lon="0.79321">
        <ele>1210.8</ele>
        <time>2022-05-23 05:26:52</time>
      </trkpt>
      <trkpt lat="42.37707" lon="0.79323">
        <ele>1211</ele>
        <time>2022-05-23 05:26:53</time>
      </trkpt>
      <trkpt lat="42.37706" lon="0.79325">
        <ele>1211.2</ele>
        <time>2022-05-23 05:26:54</time>
      </trkpt>
      <trkpt lat="42.37706" lon="0.79332">
        <ele>1211.4</ele>
        <time>2022-05-23 05:26:55</time>
      </trkpt>
      <trkpt lat="42.37706" lon="0.79333">
        <ele>1211.4</ele>
        <time>2022-05-23 05:26:56</time>
      </trkpt>
      <trkpt lat="42.37705" lon="0.79334">
        <ele>1211.6</ele>
        <time>2022-05-23 05:26:57</time>
      </trkpt>
      <trkpt lat="42.37705" lon="0.79337">
        <ele>1211.8</ele>
        <time>2022-05-23 05:26:58</time>
      </trkpt>
      <trkpt lat="42.37704" lon="0.79339">
        <ele>1212</ele>
        <time>2022-05-23 05:26:59</time>
      </trkpt>
      <trkpt lat="42.37702" lon="0.7934">
        <ele>1212.2</ele>
        <time>2022-05-23 05:27:00</time>
      </trkpt>
      <trkpt lat="42.37701" lon="0.79342">
        <ele>1212.2</ele>
        <time>2022-05-23 05:27:01</time>
      </trkpt>
      <trkpt lat="42.37699" lon="0.79344">
        <ele>1212.4</ele>
        <time>2022-05-23 05:27:02</time>
      </trkpt>
      <trkpt lat="42.37698" lon="0.79346">
        <ele>1212.6</ele>
        <time>2022-05-23 05:27:03</time>
      </trkpt>
      <trkpt lat="42.37695" lon="0.79347">
        <ele>1212.8</ele>
        <time>2022-05-23 05:27:04</time>
      </trkpt>
      <trkpt lat="42.37694" lon="0.79349">
        <ele>1213</ele>
        <time>2022-05-23 05:27:05</time>
      </trkpt>
      <trkpt lat="42.37693" lon="0.79351">
        <ele>1213.2</ele>
        <time>2022-05-23 05:27:06</time>
      </trkpt>
      <trkpt lat="42.37691" lon="0.79352">
        <ele>1213.4</ele>
        <time>2022-05-23 05:27:07</time>
      </trkpt>
      <trkpt lat="42.37689" lon="0.79353">
        <ele>1213.4</ele>
        <time>2022-05-23 05:27:08</time>
      </trkpt>
      <trkpt lat="42.37688" lon="0.79354">
        <ele>1213.6</ele>
        <time>2022-05-23 05:27:09</time>
      </trkpt>
      <trkpt lat="42.37686" lon="0.79355">
        <ele>1213.8</ele>
        <time>2022-05-23 05:27:10</time>
      </trkpt>
      <trkpt lat="42.37685" lon="0.79356">
        <ele>1214</ele>
        <time>2022-05-23 05:27:11</time>
      </trkpt>
      <trkpt lat="42.37683" lon="0.79357">
        <ele>1214.2</ele>
        <time>2022-05-23 05:27:12</time>
      </trkpt>
      <trkpt lat="42.37682" lon="0.79359">
        <ele>1214.4</ele>
        <time>2022-05-23 05:27:13</time>
      </trkpt>
      <trkpt lat="42.3768" lon="0.79359">
        <ele>1214.6</ele>
        <time>2022-05-23 05:27:14</time>
      </trkpt>
      <trkpt lat="42.37678" lon="0.79361">
        <ele>1214.8</ele>
        <time>2022-05-23 05:27:15</time>
      </trkpt>
      <trkpt lat="42.37677" lon="0.79362">
        <ele>1215</ele>
        <time>2022-05-23 05:27:16</time>
      </trkpt>
      <trkpt lat="42.37676" lon="0.79363">
        <ele>1215.2</ele>
        <time>2022-05-23 05:27:17</time>
      </trkpt>
      <trkpt lat="42.37675" lon="0.79364">
        <ele>1215.2</ele>
        <time>2022-05-23 05:27:18</time>
      </trkpt>
      <trkpt lat="42.37673" lon="0.79365">
        <ele>1215.4</ele>
        <time>2022-05-23 05:27:19</time>
      </trkpt>
      <trkpt lat="42.37672" lon="0.79366">
        <ele>1215.6</ele>
        <time>2022-05-23 05:27:20</time>
      </trkpt>
      <trkpt lat="42.3767" lon="0.79367">
        <ele>1215.8</ele>
        <time>2022-05-23 05:27:21</time>
      </trkpt>
      <trkpt lat="42.37669" lon="0.79368">
        <ele>1216</ele>
        <time>2022-05-23 05:27:22</time>
      </trkpt>
      <trkpt lat="42.37667" lon="0.7937">
        <ele>1216.2</ele>
        <time>2022-05-23 05:27:23</time>
      </trkpt>
      <trkpt lat="42.37665" lon="0.79371">
        <ele>1216.2</ele>
        <time>2022-05-23 05:27:24</time>
      </trkpt>
      <trkpt lat="42.37664" lon="0.79373">
        <ele>1216.4</ele>
        <time>2022-05-23 05:27:25</time>
      </trkpt>
      <trkpt lat="42.37662" lon="0.79375">
        <ele>1216.6</ele>
        <time>2022-05-23 05:27:26</time>
      </trkpt>
      <trkpt lat="42.37661" lon="0.79377">
        <ele>1216.8</ele>
        <time>2022-05-23 05:27:27</time>
      </trkpt>
      <trkpt lat="42.37659" lon="0.79379">
        <ele>1216.8</ele>
        <time>2022-05-23 05:27:28</time>
      </trkpt>
      <trkpt lat="42.37657" lon="0.7938">
        <ele>1217</ele>
        <time>2022-05-23 05:27:29</time>
      </trkpt>
      <trkpt lat="42.37656" lon="0.79382">
        <ele>1217.2</ele>
        <time>2022-05-23 05:27:30</time>
      </trkpt>
      <trkpt lat="42.37655" lon="0.79384">
        <ele>1217.4</ele>
        <time>2022-05-23 05:27:31</time>
      </trkpt>
      <trkpt lat="42.37653" lon="0.79386">
        <ele>1217.4</ele>
        <time>2022-05-23 05:27:32</time>
      </trkpt>
      <trkpt lat="42.37652" lon="0.79387">
        <ele>1217.6</ele>
        <time>2022-05-23 05:27:33</time>
      </trkpt>
      <trkpt lat="42.3765" lon="0.79388">
        <ele>1217.8</ele>
        <time>2022-05-23 05:27:34</time>
      </trkpt>
      <trkpt lat="42.37649" lon="0.7939">
        <ele>1218</ele>
        <time>2022-05-23 05:27:35</time>
      </trkpt>
      <trkpt lat="42.37648" lon="0.79392">
        <ele>1218.2</ele>
        <time>2022-05-23 05:27:36</time>
      </trkpt>
      <trkpt lat="42.37646" lon="0.79393">
        <ele>1218.2</ele>
        <time>2022-05-23 05:27:37</time>
      </trkpt>
      <trkpt lat="42.37645" lon="0.79395">
        <ele>1218.4</ele>
        <time>2022-05-23 05:27:38</time>
      </trkpt>
      <trkpt lat="42.37643" lon="0.79396">
        <ele>1218.6</ele>
        <time>2022-05-23 05:27:39</time>
      </trkpt>
      <trkpt lat="42.37642" lon="0.79398">
        <ele>1218.8</ele>
        <time>2022-05-23 05:27:40</time>
      </trkpt>
      <trkpt lat="42.37641" lon="0.79399">
        <ele>1218.8</ele>
        <time>2022-05-23 05:27:41</time>
      </trkpt>
      <trkpt lat="42.37639" lon="0.79401">
        <ele>1219</ele>
        <time>2022-05-23 05:27:42</time>
      </trkpt>
      <trkpt lat="42.37638" lon="0.79402">
        <ele>1219.2</ele>
        <time>2022-05-23 05:27:43</time>
      </trkpt>
      <trkpt lat="42.37637" lon="0.79404">
        <ele>1219.4</ele>
        <time>2022-05-23 05:27:44</time>
      </trkpt>
      <trkpt lat="42.37636" lon="0.79406">
        <ele>1219.4</ele>
        <time>2022-05-23 05:27:45</time>
      </trkpt>
      <trkpt lat="42.37635" lon="0.79408">
        <ele>1219.6</ele>
        <time>2022-05-23 05:27:46</time>
      </trkpt>
      <trkpt lat="42.37633" lon="0.79411">
        <ele>1219.8</ele>
        <time>2022-05-23 05:27:47</time>
      </trkpt>
      <trkpt lat="42.37632" lon="0.79412">
        <ele>1220</ele>
        <time>2022-05-23 05:27:48</time>
      </trkpt>
      <trkpt lat="42.37631" lon="0.79414">
        <ele>1220</ele>
        <time>2022-05-23 05:27:49</time>
      </trkpt>
      <trkpt lat="42.37629" lon="0.79416">
        <ele>1220.2</ele>
        <time>2022-05-23 05:27:50</time>
      </trkpt>
      <trkpt lat="42.37628" lon="0.79418">
        <ele>1220.4</ele>
        <time>2022-05-23 05:27:51</time>
      </trkpt>
      <trkpt lat="42.37627" lon="0.79419">
        <ele>1220.6</ele>
        <time>2022-05-23 05:27:52</time>
      </trkpt>
      <trkpt lat="42.37626" lon="0.79422">
        <ele>1220.6</ele>
        <time>2022-05-23 05:27:53</time>
      </trkpt>
      <trkpt lat="42.37625" lon="0.79424">
        <ele>1220.8</ele>
        <time>2022-05-23 05:27:54</time>
      </trkpt>
      <trkpt lat="42.37624" lon="0.79426">
        <ele>1221</ele>
        <time>2022-05-23 05:27:55</time>
      </trkpt>
      <trkpt lat="42.37622" lon="0.79428">
        <ele>1221</ele>
        <time>2022-05-23 05:27:56</time>
      </trkpt>
      <trkpt lat="42.37622" lon="0.7943">
        <ele>1221.2</ele>
        <time>2022-05-23 05:27:57</time>
      </trkpt>
      <trkpt lat="42.37621" lon="0.79432">
        <ele>1221.4</ele>
        <time>2022-05-23 05:27:58</time>
      </trkpt>
      <trkpt lat="42.3762" lon="0.79435">
        <ele>1221.6</ele>
        <time>2022-05-23 05:27:59</time>
      </trkpt>
      <trkpt lat="42.37619" lon="0.79437">
        <ele>1221.6</ele>
        <time>2022-05-23 05:28:00</time>
      </trkpt>
      <trkpt lat="42.37617" lon="0.79439">
        <ele>1221.8</ele>
        <time>2022-05-23 05:28:01</time>
      </trkpt>
      <trkpt lat="42.37616" lon="0.7944">
        <ele>1222</ele>
        <time>2022-05-23 05:28:02</time>
      </trkpt>
      <trkpt lat="42.37616" lon="0.79443">
        <ele>1222</ele>
        <time>2022-05-23 05:28:03</time>
      </trkpt>
      <trkpt lat="42.37614" lon="0.79445">
        <ele>1222.2</ele>
        <time>2022-05-23 05:28:04</time>
      </trkpt>
      <trkpt lat="42.37614" lon="0.79447">
        <ele>1222.4</ele>
        <time>2022-05-23 05:28:05</time>
      </trkpt>
      <trkpt lat="42.37613" lon="0.79449">
        <ele>1222.4</ele>
        <time>2022-05-23 05:28:06</time>
      </trkpt>
      <trkpt lat="42.37611" lon="0.7945">
        <ele>1222.6</ele>
        <time>2022-05-23 05:28:07</time>
      </trkpt>
      <trkpt lat="42.37611" lon="0.79452">
        <ele>1222.8</ele>
        <time>2022-05-23 05:28:08</time>
      </trkpt>
      <trkpt lat="42.37609" lon="0.79454">
        <ele>1222.8</ele>
        <time>2022-05-23 05:28:09</time>
      </trkpt>
      <trkpt lat="42.37608" lon="0.79456">
        <ele>1223</ele>
        <time>2022-05-23 05:28:10</time>
      </trkpt>
      <trkpt lat="42.37608" lon="0.79458">
        <ele>1223.2</ele>
        <time>2022-05-23 05:28:11</time>
      </trkpt>
      <trkpt lat="42.37607" lon="0.7946">
        <ele>1223.2</ele>
        <time>2022-05-23 05:28:12</time>
      </trkpt>
      <trkpt lat="42.37606" lon="0.79462">
        <ele>1223.4</ele>
        <time>2022-05-23 05:28:13</time>
      </trkpt>
      <trkpt lat="42.37605" lon="0.79464">
        <ele>1223.6</ele>
        <time>2022-05-23 05:28:14</time>
      </trkpt>
      <trkpt lat="42.37604" lon="0.79467">
        <ele>1223.8</ele>
        <time>2022-05-23 05:28:15</time>
      </trkpt>
      <trkpt lat="42.37603" lon="0.79469">
        <ele>1223.8</ele>
        <time>2022-05-23 05:28:16</time>
      </trkpt>
      <trkpt lat="42.37603" lon="0.79471">
        <ele>1224</ele>
        <time>2022-05-23 05:28:17</time>
      </trkpt>
      <trkpt lat="42.37602" lon="0.79473">
        <ele>1224.2</ele>
        <time>2022-05-23 05:28:18</time>
      </trkpt>
      <trkpt lat="42.37601" lon="0.79475">
        <ele>1224.2</ele>
        <time>2022-05-23 05:28:19</time>
      </trkpt>
      <trkpt lat="42.376" lon="0.79477">
        <ele>1224.4</ele>
        <time>2022-05-23 05:28:20</time>
      </trkpt>
      <trkpt lat="42.37598" lon="0.79479">
        <ele>1224.6</ele>
        <time>2022-05-23 05:28:21</time>
      </trkpt>
      <trkpt lat="42.37597" lon="0.79481">
        <ele>1224.6</ele>
        <time>2022-05-23 05:28:22</time>
      </trkpt>
      <trkpt lat="42.37595" lon="0.79483">
        <ele>1224.8</ele>
        <time>2022-05-23 05:28:23</time>
      </trkpt>
      <trkpt lat="42.37595" lon="0.79485">
        <ele>1225</ele>
        <time>2022-05-23 05:28:24</time>
      </trkpt>
      <trkpt lat="42.37594" lon="0.79487">
        <ele>1225</ele>
        <time>2022-05-23 05:28:25</time>
      </trkpt>
      <trkpt lat="42.37592" lon="0.79489">
        <ele>1225.2</ele>
        <time>2022-05-23 05:28:26</time>
      </trkpt>
      <trkpt lat="42.37592" lon="0.79491">
        <ele>1225.4</ele>
        <time>2022-05-23 05:28:27</time>
      </trkpt>
      <trkpt lat="42.37591" lon="0.79493">
        <ele>1225.6</ele>
        <time>2022-05-23 05:28:28</time>
      </trkpt>
      <trkpt lat="42.3759" lon="0.79496">
        <ele>1225.6</ele>
        <time>2022-05-23 05:28:29</time>
      </trkpt>
      <trkpt lat="42.37588" lon="0.79498">
        <ele>1225.8</ele>
        <time>2022-05-23 05:28:30</time>
      </trkpt>
      <trkpt lat="42.37588" lon="0.795">
        <ele>1225.8</ele>
        <time>2022-05-23 05:28:31</time>
      </trkpt>
      <trkpt lat="42.37587" lon="0.79502">
        <ele>1226</ele>
        <time>2022-05-23 05:28:32</time>
      </trkpt>
      <trkpt lat="42.37586" lon="0.79504">
        <ele>1226.2</ele>
        <time>2022-05-23 05:28:33</time>
      </trkpt>
      <trkpt lat="42.37585" lon="0.79506">
        <ele>1226.2</ele>
        <time>2022-05-23 05:28:34</time>
      </trkpt>
      <trkpt lat="42.37584" lon="0.79508">
        <ele>1226.4</ele>
        <time>2022-05-23 05:28:35</time>
      </trkpt>
      <trkpt lat="42.37584" lon="0.7951">
        <ele>1226.6</ele>
        <time>2022-05-23 05:28:36</time>
      </trkpt>
      <trkpt lat="42.37583" lon="0.79512">
        <ele>1226.6</ele>
        <time>2022-05-23 05:28:37</time>
      </trkpt>
      <trkpt lat="42.37582" lon="0.79514">
        <ele>1226.8</ele>
        <time>2022-05-23 05:28:38</time>
      </trkpt>
      <trkpt lat="42.3758" lon="0.79517">
        <ele>1226.8</ele>
        <time>2022-05-23 05:28:39</time>
      </trkpt>
      <trkpt lat="42.37579" lon="0.79518">
        <ele>1227</ele>
        <time>2022-05-23 05:28:40</time>
      </trkpt>
      <trkpt lat="42.37577" lon="0.7952">
        <ele>1227.2</ele>
        <time>2022-05-23 05:28:41</time>
      </trkpt>
      <trkpt lat="42.37576" lon="0.79522">
        <ele>1227.2</ele>
        <time>2022-05-23 05:28:42</time>
      </trkpt>
      <trkpt lat="42.37575" lon="0.79524">
        <ele>1227.4</ele>
        <time>2022-05-23 05:28:43</time>
      </trkpt>
      <trkpt lat="42.37574" lon="0.79526">
        <ele>1227.6</ele>
        <time>2022-05-23 05:28:44</time>
      </trkpt>
      <trkpt lat="42.37574" lon="0.79528">
        <ele>1227.6</ele>
        <time>2022-05-23 05:28:45</time>
      </trkpt>
      <trkpt lat="42.37572" lon="0.7953">
        <ele>1227.8</ele>
        <time>2022-05-23 05:28:46</time>
      </trkpt>
      <trkpt lat="42.37572" lon="0.79532">
        <ele>1228</ele>
        <time>2022-05-23 05:28:47</time>
      </trkpt>
      <trkpt lat="42.3757" lon="0.79535">
        <ele>1228</ele>
        <time>2022-05-23 05:28:48</time>
      </trkpt>
      <trkpt lat="42.37569" lon="0.79537">
        <ele>1228.2</ele>
        <time>2022-05-23 05:28:49</time>
      </trkpt>
      <trkpt lat="42.37568" lon="0.79539">
        <ele>1228.4</ele>
        <time>2022-05-23 05:28:50</time>
      </trkpt>
      <trkpt lat="42.37567" lon="0.79541">
        <ele>1228.4</ele>
        <time>2022-05-23 05:28:51</time>
      </trkpt>
      <trkpt lat="42.37567" lon="0.79543">
        <ele>1228.6</ele>
        <time>2022-05-23 05:28:52</time>
      </trkpt>
      <trkpt lat="42.37566" lon="0.79545">
        <ele>1228.8</ele>
        <time>2022-05-23 05:28:53</time>
      </trkpt>
      <trkpt lat="42.37566" lon="0.79547">
        <ele>1228.8</ele>
        <time>2022-05-23 05:28:54</time>
      </trkpt>
      <trkpt lat="42.37565" lon="0.79549">
        <ele>1229</ele>
        <time>2022-05-23 05:28:55</time>
      </trkpt>
      <trkpt lat="42.37564" lon="0.79551">
        <ele>1229.2</ele>
        <time>2022-05-23 05:28:56</time>
      </trkpt>
      <trkpt lat="42.37563" lon="0.79553">
        <ele>1229.2</ele>
        <time>2022-05-23 05:28:57</time>
      </trkpt>
      <trkpt lat="42.37562" lon="0.79555">
        <ele>1229.4</ele>
        <time>2022-05-23 05:28:58</time>
      </trkpt>
      <trkpt lat="42.37561" lon="0.79556">
        <ele>1229.6</ele>
        <time>2022-05-23 05:28:59</time>
      </trkpt>
      <trkpt lat="42.37559" lon="0.79558">
        <ele>1229.6</ele>
        <time>2022-05-23 05:29:00</time>
      </trkpt>
      <trkpt lat="42.37559" lon="0.7956">
        <ele>1229.8</ele>
        <time>2022-05-23 05:29:01</time>
      </trkpt>
      <trkpt lat="42.37558" lon="0.79562">
        <ele>1230</ele>
        <time>2022-05-23 05:29:02</time>
      </trkpt>
      <trkpt lat="42.37558" lon="0.79564">
        <ele>1230</ele>
        <time>2022-05-23 05:29:03</time>
      </trkpt>
      <trkpt lat="42.37557" lon="0.79566">
        <ele>1230.2</ele>
        <time>2022-05-23 05:29:04</time>
      </trkpt>
      <trkpt lat="42.37556" lon="0.79568">
        <ele>1230.4</ele>
        <time>2022-05-23 05:29:05</time>
      </trkpt>
      <trkpt lat="42.37555" lon="0.7957">
        <ele>1230.6</ele>
        <time>2022-05-23 05:29:06</time>
      </trkpt>
      <trkpt lat="42.37554" lon="0.79572">
        <ele>1230.6</ele>
        <time>2022-05-23 05:29:07</time>
      </trkpt>
      <trkpt lat="42.37553" lon="0.79573">
        <ele>1230.8</ele>
        <time>2022-05-23 05:29:08</time>
      </trkpt>
      <trkpt lat="42.37552" lon="0.79575">
        <ele>1230.8</ele>
        <time>2022-05-23 05:29:09</time>
      </trkpt>
      <trkpt lat="42.37551" lon="0.79577">
        <ele>1231</ele>
        <time>2022-05-23 05:29:10</time>
      </trkpt>
      <trkpt lat="42.3755" lon="0.79579">
        <ele>1231.2</ele>
        <time>2022-05-23 05:29:11</time>
      </trkpt>
      <trkpt lat="42.37549" lon="0.79581">
        <ele>1231.2</ele>
        <time>2022-05-23 05:29:12</time>
      </trkpt>
      <trkpt lat="42.37548" lon="0.79583">
        <ele>1231.4</ele>
        <time>2022-05-23 05:29:13</time>
      </trkpt>
      <trkpt lat="42.37548" lon="0.79585">
        <ele>1231.6</ele>
        <time>2022-05-23 05:29:14</time>
      </trkpt>
      <trkpt lat="42.37546" lon="0.79587">
        <ele>1231.6</ele>
        <time>2022-05-23 05:29:15</time>
      </trkpt>
      <trkpt lat="42.37545" lon="0.79589">
        <ele>1231.8</ele>
        <time>2022-05-23 05:29:16</time>
      </trkpt>
      <trkpt lat="42.37545" lon="0.79591">
        <ele>1231.8</ele>
        <time>2022-05-23 05:29:17</time>
      </trkpt>
      <trkpt lat="42.37543" lon="0.79593">
        <ele>1232</ele>
        <time>2022-05-23 05:29:18</time>
      </trkpt>
      <trkpt lat="42.37542" lon="0.79595">
        <ele>1232.2</ele>
        <time>2022-05-23 05:29:19</time>
      </trkpt>
      <trkpt lat="42.37541" lon="0.79597">
        <ele>1232.2</ele>
        <time>2022-05-23 05:29:20</time>
      </trkpt>
      <trkpt lat="42.3754" lon="0.79599">
        <ele>1232.4</ele>
        <time>2022-05-23 05:29:21</time>
      </trkpt>
      <trkpt lat="42.37539" lon="0.796">
        <ele>1232.4</ele>
        <time>2022-05-23 05:29:22</time>
      </trkpt>
      <trkpt lat="42.37538" lon="0.79602">
        <ele>1232.6</ele>
        <time>2022-05-23 05:29:23</time>
      </trkpt>
      <trkpt lat="42.37537" lon="0.79604">
        <ele>1232.8</ele>
        <time>2022-05-23 05:29:24</time>
      </trkpt>
      <trkpt lat="42.37535" lon="0.79606">
        <ele>1232.8</ele>
        <time>2022-05-23 05:29:25</time>
      </trkpt>
      <trkpt lat="42.37535" lon="0.79608">
        <ele>1233</ele>
        <time>2022-05-23 05:29:26</time>
      </trkpt>
      <trkpt lat="42.37534" lon="0.7961">
        <ele>1233.2</ele>
        <time>2022-05-23 05:29:27</time>
      </trkpt>
      <trkpt lat="42.37533" lon="0.79612">
        <ele>1233.2</ele>
        <time>2022-05-23 05:29:28</time>
      </trkpt>
      <trkpt lat="42.37532" lon="0.79615">
        <ele>1233.4</ele>
        <time>2022-05-23 05:29:29</time>
      </trkpt>
      <trkpt lat="42.3753" lon="0.79617">
        <ele>1233.4</ele>
        <time>2022-05-23 05:29:30</time>
      </trkpt>
      <trkpt lat="42.37529" lon="0.79618">
        <ele>1233.6</ele>
        <time>2022-05-23 05:29:31</time>
      </trkpt>
      <trkpt lat="42.37528" lon="0.7962">
        <ele>1233.6</ele>
        <time>2022-05-23 05:29:32</time>
      </trkpt>
      <trkpt lat="42.37527" lon="0.79622">
        <ele>1233.8</ele>
        <time>2022-05-23 05:29:33</time>
      </trkpt>
      <trkpt lat="42.37527" lon="0.79624">
        <ele>1233.8</ele>
        <time>2022-05-23 05:29:34</time>
      </trkpt>
      <trkpt lat="42.37525" lon="0.79626">
        <ele>1234</ele>
        <time>2022-05-23 05:29:35</time>
      </trkpt>
      <trkpt lat="42.37524" lon="0.79628">
        <ele>1234</ele>
        <time>2022-05-23 05:29:36</time>
      </trkpt>
      <trkpt lat="42.37522" lon="0.79629">
        <ele>1234.2</ele>
        <time>2022-05-23 05:29:37</time>
      </trkpt>
      <trkpt lat="42.37522" lon="0.79631">
        <ele>1234.2</ele>
        <time>2022-05-23 05:29:38</time>
      </trkpt>
      <trkpt lat="42.37521" lon="0.79633">
        <ele>1234.4</ele>
        <time>2022-05-23 05:29:39</time>
      </trkpt>
      <trkpt lat="42.3752" lon="0.79635">
        <ele>1234.6</ele>
        <time>2022-05-23 05:29:40</time>
      </trkpt>
      <trkpt lat="42.37518" lon="0.79636">
        <ele>1234.6</ele>
        <time>2022-05-23 05:29:41</time>
      </trkpt>
      <trkpt lat="42.37517" lon="0.79638">
        <ele>1234.8</ele>
        <time>2022-05-23 05:29:42</time>
      </trkpt>
      <trkpt lat="42.37516" lon="0.7964">
        <ele>1234.8</ele>
        <time>2022-05-23 05:29:43</time>
      </trkpt>
      <trkpt lat="42.37515" lon="0.79642">
        <ele>1235</ele>
        <time>2022-05-23 05:29:44</time>
      </trkpt>
      <trkpt lat="42.37514" lon="0.79644">
        <ele>1235</ele>
        <time>2022-05-23 05:29:45</time>
      </trkpt>
      <trkpt lat="42.37513" lon="0.79645">
        <ele>1235.2</ele>
        <time>2022-05-23 05:29:46</time>
      </trkpt>
      <trkpt lat="42.37512" lon="0.79647">
        <ele>1235.2</ele>
        <time>2022-05-23 05:29:47</time>
      </trkpt>
      <trkpt lat="42.37511" lon="0.79649">
        <ele>1235.4</ele>
        <time>2022-05-23 05:29:48</time>
      </trkpt>
      <trkpt lat="42.3751" lon="0.79651">
        <ele>1235.6</ele>
        <time>2022-05-23 05:29:49</time>
      </trkpt>
      <trkpt lat="42.37509" lon="0.79653">
        <ele>1235.6</ele>
        <time>2022-05-23 05:29:50</time>
      </trkpt>
      <trkpt lat="42.37508" lon="0.79654">
        <ele>1235.8</ele>
        <time>2022-05-23 05:29:51</time>
      </trkpt>
      <trkpt lat="42.37508" lon="0.79656">
        <ele>1235.8</ele>
        <time>2022-05-23 05:29:52</time>
      </trkpt>
      <trkpt lat="42.37506" lon="0.79658">
        <ele>1236</ele>
        <time>2022-05-23 05:29:53</time>
      </trkpt>
      <trkpt lat="42.37505" lon="0.79659">
        <ele>1236</ele>
        <time>2022-05-23 05:29:54</time>
      </trkpt>
      <trkpt lat="42.37504" lon="0.79661">
        <ele>1236.2</ele>
        <time>2022-05-23 05:29:55</time>
      </trkpt>
      <trkpt lat="42.37503" lon="0.79662">
        <ele>1236.2</ele>
        <time>2022-05-23 05:29:56</time>
      </trkpt>
      <trkpt lat="42.37502" lon="0.79664">
        <ele>1236.4</ele>
        <time>2022-05-23 05:29:57</time>
      </trkpt>
      <trkpt lat="42.37501" lon="0.79666">
        <ele>1236.6</ele>
        <time>2022-05-23 05:29:58</time>
      </trkpt>
      <trkpt lat="42.375" lon="0.79667">
        <ele>1236.6</ele>
        <time>2022-05-23 05:29:59</time>
      </trkpt>
      <trkpt lat="42.37499" lon="0.79668">
        <ele>1236.8</ele>
        <time>2022-05-23 05:30:00</time>
      </trkpt>
      <trkpt lat="42.37498" lon="0.7967">
        <ele>1236.8</ele>
        <time>2022-05-23 05:30:01</time>
      </trkpt>
      <trkpt lat="42.37496" lon="0.79672">
        <ele>1237</ele>
        <time>2022-05-23 05:30:02</time>
      </trkpt>
      <trkpt lat="42.37495" lon="0.79674">
        <ele>1237</ele>
        <time>2022-05-23 05:30:03</time>
      </trkpt>
      <trkpt lat="42.37493" lon="0.79675">
        <ele>1237.2</ele>
        <time>2022-05-23 05:30:04</time>
      </trkpt>
      <trkpt lat="42.37492" lon="0.79676">
        <ele>1237.2</ele>
        <time>2022-05-23 05:30:05</time>
      </trkpt>
      <trkpt lat="42.37491" lon="0.79678">
        <ele>1237.4</ele>
        <time>2022-05-23 05:30:06</time>
      </trkpt>
      <trkpt lat="42.3749" lon="0.79679">
        <ele>1237.4</ele>
        <time>2022-05-23 05:30:07</time>
      </trkpt>
      <trkpt lat="42.3749" lon="0.79681">
        <ele>1237.4</ele>
        <time>2022-05-23 05:30:08</time>
      </trkpt>
      <trkpt lat="42.37488" lon="0.79682">
        <ele>1237.6</ele>
        <time>2022-05-23 05:30:09</time>
      </trkpt>
      <trkpt lat="42.37487" lon="0.79685">
        <ele>1237.8</ele>
        <time>2022-05-23 05:30:10</time>
      </trkpt>
      <trkpt lat="42.37486" lon="0.79686">
        <ele>1237.8</ele>
        <time>2022-05-23 05:30:11</time>
      </trkpt>
      <trkpt lat="42.37484" lon="0.79687">
        <ele>1238</ele>
        <time>2022-05-23 05:30:12</time>
      </trkpt>
      <trkpt lat="42.37482" lon="0.79689">
        <ele>1238</ele>
        <time>2022-05-23 05:30:13</time>
      </trkpt>
      <trkpt lat="42.37481" lon="0.79691">
        <ele>1238.2</ele>
        <time>2022-05-23 05:30:14</time>
      </trkpt>
      <trkpt lat="42.3748" lon="0.79694">
        <ele>1238.2</ele>
        <time>2022-05-23 05:30:15</time>
      </trkpt>
      <trkpt lat="42.37478" lon="0.79696">
        <ele>1238.4</ele>
        <time>2022-05-23 05:30:16</time>
      </trkpt>
      <trkpt lat="42.37477" lon="0.79698">
        <ele>1238.4</ele>
        <time>2022-05-23 05:30:17</time>
      </trkpt>
      <trkpt lat="42.37477" lon="0.797">
        <ele>1238.6</ele>
        <time>2022-05-23 05:30:18</time>
      </trkpt>
      <trkpt lat="42.37477" lon="0.79701">
        <ele>1238.6</ele>
        <time>2022-05-23 05:30:19</time>
      </trkpt>
      <trkpt lat="42.37476" lon="0.79703">
        <ele>1238.8</ele>
        <time>2022-05-23 05:30:20</time>
      </trkpt>
      <trkpt lat="42.37475" lon="0.79705">
        <ele>1238.8</ele>
        <time>2022-05-23 05:30:21</time>
      </trkpt>
      <trkpt lat="42.37474" lon="0.79708">
        <ele>1239</ele>
        <time>2022-05-23 05:30:22</time>
      </trkpt>
      <trkpt lat="42.37472" lon="0.7971">
        <ele>1239.2</ele>
        <time>2022-05-23 05:30:23</time>
      </trkpt>
      <trkpt lat="42.37471" lon="0.79712">
        <ele>1239.2</ele>
        <time>2022-05-23 05:30:24</time>
      </trkpt>
      <trkpt lat="42.3747" lon="0.79714">
        <ele>1239.4</ele>
        <time>2022-05-23 05:30:25</time>
      </trkpt>
      <trkpt lat="42.37468" lon="0.79716">
        <ele>1239.6</ele>
        <time>2022-05-23 05:30:26</time>
      </trkpt>
      <trkpt lat="42.37467" lon="0.79718">
        <ele>1239.6</ele>
        <time>2022-05-23 05:30:27</time>
      </trkpt>
      <trkpt lat="42.37466" lon="0.7972">
        <ele>1239.8</ele>
        <time>2022-05-23 05:30:28</time>
      </trkpt>
      <trkpt lat="42.37464" lon="0.79721">
        <ele>1239.8</ele>
        <time>2022-05-23 05:30:29</time>
      </trkpt>
      <trkpt lat="42.37464" lon="0.79723">
        <ele>1240</ele>
        <time>2022-05-23 05:30:30</time>
      </trkpt>
      <trkpt lat="42.37463" lon="0.79725">
        <ele>1240.2</ele>
        <time>2022-05-23 05:30:31</time>
      </trkpt>
      <trkpt lat="42.37461" lon="0.79727">
        <ele>1240.2</ele>
        <time>2022-05-23 05:30:32</time>
      </trkpt>
      <trkpt lat="42.3746" lon="0.79728">
        <ele>1240.4</ele>
        <time>2022-05-23 05:30:33</time>
      </trkpt>
      <trkpt lat="42.37459" lon="0.7973">
        <ele>1240.6</ele>
        <time>2022-05-23 05:30:34</time>
      </trkpt>
      <trkpt lat="42.37458" lon="0.79732">
        <ele>1240.6</ele>
        <time>2022-05-23 05:30:35</time>
      </trkpt>
      <trkpt lat="42.37457" lon="0.79734">
        <ele>1240.8</ele>
        <time>2022-05-23 05:30:36</time>
      </trkpt>
      <trkpt lat="42.37456" lon="0.79736">
        <ele>1240.8</ele>
        <time>2022-05-23 05:30:37</time>
      </trkpt>
      <trkpt lat="42.37455" lon="0.79738">
        <ele>1241</ele>
        <time>2022-05-23 05:30:38</time>
      </trkpt>
      <trkpt lat="42.37454" lon="0.7974">
        <ele>1241.2</ele>
        <time>2022-05-23 05:30:39</time>
      </trkpt>
      <trkpt lat="42.37453" lon="0.79741">
        <ele>1241.2</ele>
        <time>2022-05-23 05:30:40</time>
      </trkpt>
      <trkpt lat="42.37452" lon="0.79743">
        <ele>1241.4</ele>
        <time>2022-05-23 05:30:41</time>
      </trkpt>
      <trkpt lat="42.37451" lon="0.79745">
        <ele>1241.4</ele>
        <time>2022-05-23 05:30:42</time>
      </trkpt>
      <trkpt lat="42.3745" lon="0.79747">
        <ele>1241.6</ele>
        <time>2022-05-23 05:30:43</time>
      </trkpt>
      <trkpt lat="42.37449" lon="0.79749">
        <ele>1241.8</ele>
        <time>2022-05-23 05:30:44</time>
      </trkpt>
      <trkpt lat="42.37448" lon="0.79751">
        <ele>1241.8</ele>
        <time>2022-05-23 05:30:45</time>
      </trkpt>
      <trkpt lat="42.37447" lon="0.79752">
        <ele>1242</ele>
        <time>2022-05-23 05:30:46</time>
      </trkpt>
      <trkpt lat="42.37446" lon="0.79754">
        <ele>1242.2</ele>
        <time>2022-05-23 05:30:47</time>
      </trkpt>
      <trkpt lat="42.37444" lon="0.79756">
        <ele>1242.2</ele>
        <time>2022-05-23 05:30:48</time>
      </trkpt>
      <trkpt lat="42.37443" lon="0.79758">
        <ele>1242.4</ele>
        <time>2022-05-23 05:30:49</time>
      </trkpt>
      <trkpt lat="42.37442" lon="0.79759">
        <ele>1242.6</ele>
        <time>2022-05-23 05:30:50</time>
      </trkpt>
      <trkpt lat="42.37441" lon="0.79761">
        <ele>1242.6</ele>
        <time>2022-05-23 05:30:51</time>
      </trkpt>
      <trkpt lat="42.37439" lon="0.79762">
        <ele>1242.8</ele>
        <time>2022-05-23 05:30:52</time>
      </trkpt>
      <trkpt lat="42.37438" lon="0.79764">
        <ele>1242.8</ele>
        <time>2022-05-23 05:30:53</time>
      </trkpt>
      <trkpt lat="42.37437" lon="0.79765">
        <ele>1243</ele>
        <time>2022-05-23 05:30:54</time>
      </trkpt>
      <trkpt lat="42.37436" lon="0.79766">
        <ele>1243.2</ele>
        <time>2022-05-23 05:30:55</time>
      </trkpt>
      <trkpt lat="42.37435" lon="0.79768">
        <ele>1243.2</ele>
        <time>2022-05-23 05:30:56</time>
      </trkpt>
      <trkpt lat="42.37433" lon="0.79768">
        <ele>1243.4</ele>
        <time>2022-05-23 05:30:57</time>
      </trkpt>
      <trkpt lat="42.37432" lon="0.79769">
        <ele>1243.6</ele>
        <time>2022-05-23 05:30:58</time>
      </trkpt>
      <trkpt lat="42.37431" lon="0.79771">
        <ele>1243.6</ele>
        <time>2022-05-23 05:30:59</time>
      </trkpt>
      <trkpt lat="42.3743" lon="0.79771">
        <ele>1243.8</ele>
        <time>2022-05-23 05:31:00</time>
      </trkpt>
      <trkpt lat="42.37429" lon="0.79772">
        <ele>1243.8</ele>
        <time>2022-05-23 05:31:01</time>
      </trkpt>
      <trkpt lat="42.37427" lon="0.79773">
        <ele>1244</ele>
        <time>2022-05-23 05:31:02</time>
      </trkpt>
      <trkpt lat="42.37426" lon="0.79774">
        <ele>1244.2</ele>
        <time>2022-05-23 05:31:03</time>
      </trkpt>
      <trkpt lat="42.37424" lon="0.79775">
        <ele>1244.2</ele>
        <time>2022-05-23 05:31:04</time>
      </trkpt>
      <trkpt lat="42.37423" lon="0.79777">
        <ele>1244.4</ele>
        <time>2022-05-23 05:31:05</time>
      </trkpt>
      <trkpt lat="42.37421" lon="0.79778">
        <ele>1244.6</ele>
        <time>2022-05-23 05:31:06</time>
      </trkpt>
      <trkpt lat="42.3742" lon="0.79779">
        <ele>1244.8</ele>
        <time>2022-05-23 05:31:07</time>
      </trkpt>
      <trkpt lat="42.37419" lon="0.7978">
        <ele>1244.8</ele>
        <time>2022-05-23 05:31:08</time>
      </trkpt>
      <trkpt lat="42.37418" lon="0.79781">
        <ele>1245</ele>
        <time>2022-05-23 05:31:09</time>
      </trkpt>
      <trkpt lat="42.37417" lon="0.79783">
        <ele>1245.2</ele>
        <time>2022-05-23 05:31:10</time>
      </trkpt>
      <trkpt lat="42.37415" lon="0.79784">
        <ele>1245.2</ele>
        <time>2022-05-23 05:31:11</time>
      </trkpt>
      <trkpt lat="42.37413" lon="0.79786">
        <ele>1245.4</ele>
        <time>2022-05-23 05:31:12</time>
      </trkpt>
      <trkpt lat="42.37412" lon="0.79787">
        <ele>1245.6</ele>
        <time>2022-05-23 05:31:13</time>
      </trkpt>
      <trkpt lat="42.3741" lon="0.79788">
        <ele>1245.8</ele>
        <time>2022-05-23 05:31:14</time>
      </trkpt>
      <trkpt lat="42.37409" lon="0.79789">
        <ele>1245.8</ele>
        <time>2022-05-23 05:31:15</time>
      </trkpt>
      <trkpt lat="42.37408" lon="0.7979">
        <ele>1246</ele>
        <time>2022-05-23 05:31:16</time>
      </trkpt>
      <trkpt lat="42.37406" lon="0.79791">
        <ele>1246.2</ele>
        <time>2022-05-23 05:31:17</time>
      </trkpt>
      <trkpt lat="42.37405" lon="0.79792">
        <ele>1246.2</ele>
        <time>2022-05-23 05:31:18</time>
      </trkpt>
      <trkpt lat="42.37403" lon="0.79793">
        <ele>1246.4</ele>
        <time>2022-05-23 05:31:19</time>
      </trkpt>
      <trkpt lat="42.37401" lon="0.79794">
        <ele>1246.6</ele>
        <time>2022-05-23 05:31:20</time>
      </trkpt>
      <trkpt lat="42.374" lon="0.79795">
        <ele>1246.8</ele>
        <time>2022-05-23 05:31:21</time>
      </trkpt>
      <trkpt lat="42.37398" lon="0.79796">
        <ele>1247</ele>
        <time>2022-05-23 05:31:22</time>
      </trkpt>
      <trkpt lat="42.37397" lon="0.79797">
        <ele>1247</ele>
        <time>2022-05-23 05:31:23</time>
      </trkpt>
      <trkpt lat="42.37395" lon="0.79798">
        <ele>1247.2</ele>
        <time>2022-05-23 05:31:24</time>
      </trkpt>
      <trkpt lat="42.37394" lon="0.798">
        <ele>1247.4</ele>
        <time>2022-05-23 05:31:25</time>
      </trkpt>
      <trkpt lat="42.37392" lon="0.79801">
        <ele>1247.6</ele>
        <time>2022-05-23 05:31:26</time>
      </trkpt>
      <trkpt lat="42.37391" lon="0.79803">
        <ele>1247.6</ele>
        <time>2022-05-23 05:31:27</time>
      </trkpt>
      <trkpt lat="42.3739" lon="0.79804">
        <ele>1247.8</ele>
        <time>2022-05-23 05:31:28</time>
      </trkpt>
      <trkpt lat="42.37389" lon="0.79806">
        <ele>1248</ele>
        <time>2022-05-23 05:31:29</time>
      </trkpt>
      <trkpt lat="42.37387" lon="0.79808">
        <ele>1248</ele>
        <time>2022-05-23 05:31:30</time>
      </trkpt>
      <trkpt lat="42.37386" lon="0.7981">
        <ele>1248.2</ele>
        <time>2022-05-23 05:31:31</time>
      </trkpt>
      <trkpt lat="42.37385" lon="0.79811">
        <ele>1248.4</ele>
        <time>2022-05-23 05:31:32</time>
      </trkpt>
      <trkpt lat="42.37384" lon="0.79813">
        <ele>1248.4</ele>
        <time>2022-05-23 05:31:33</time>
      </trkpt>
      <trkpt lat="42.37383" lon="0.79815">
        <ele>1248.6</ele>
        <time>2022-05-23 05:31:34</time>
      </trkpt>
      <trkpt lat="42.37382" lon="0.79816">
        <ele>1248.8</ele>
        <time>2022-05-23 05:31:35</time>
      </trkpt>
      <trkpt lat="42.37381" lon="0.79818">
        <ele>1248.8</ele>
        <time>2022-05-23 05:31:36</time>
      </trkpt>
      <trkpt lat="42.37381" lon="0.7982">
        <ele>1249</ele>
        <time>2022-05-23 05:31:37</time>
      </trkpt>
      <trkpt lat="42.3738" lon="0.79823">
        <ele>1249</ele>
        <time>2022-05-23 05:31:38</time>
      </trkpt>
      <trkpt lat="42.37379" lon="0.79825">
        <ele>1249.2</ele>
        <time>2022-05-23 05:31:39</time>
      </trkpt>
      <trkpt lat="42.37378" lon="0.79827">
        <ele>1249.4</ele>
        <time>2022-05-23 05:31:40</time>
      </trkpt>
      <trkpt lat="42.37377" lon="0.7983">
        <ele>1249.4</ele>
        <time>2022-05-23 05:31:41</time>
      </trkpt>
      <trkpt lat="42.37376" lon="0.79832">
        <ele>1249.6</ele>
        <time>2022-05-23 05:31:42</time>
      </trkpt>
      <trkpt lat="42.37375" lon="0.79834">
        <ele>1249.8</ele>
        <time>2022-05-23 05:31:43</time>
      </trkpt>
      <trkpt lat="42.37374" lon="0.79837">
        <ele>1249.8</ele>
        <time>2022-05-23 05:31:44</time>
      </trkpt>
      <trkpt lat="42.37373" lon="0.79839">
        <ele>1250</ele>
        <time>2022-05-23 05:31:45</time>
      </trkpt>
      <trkpt lat="42.37373" lon="0.79841">
        <ele>1250</ele>
        <time>2022-05-23 05:31:46</time>
      </trkpt>
      <trkpt lat="42.37372" lon="0.79843">
        <ele>1250.2</ele>
        <time>2022-05-23 05:31:47</time>
      </trkpt>
      <trkpt lat="42.37371" lon="0.79846">
        <ele>1250.4</ele>
        <time>2022-05-23 05:31:48</time>
      </trkpt>
      <trkpt lat="42.37371" lon="0.79849">
        <ele>1250.4</ele>
        <time>2022-05-23 05:31:49</time>
      </trkpt>
      <trkpt lat="42.37371" lon="0.79851">
        <ele>1250.6</ele>
        <time>2022-05-23 05:31:50</time>
      </trkpt>
      <trkpt lat="42.3737" lon="0.79854">
        <ele>1250.6</ele>
        <time>2022-05-23 05:31:51</time>
      </trkpt>
      <trkpt lat="42.3737" lon="0.79856">
        <ele>1250.8</ele>
        <time>2022-05-23 05:31:52</time>
      </trkpt>
      <trkpt lat="42.37369" lon="0.79859">
        <ele>1251</ele>
        <time>2022-05-23 05:31:53</time>
      </trkpt>
      <trkpt lat="42.37369" lon="0.79861">
        <ele>1251</ele>
        <time>2022-05-23 05:31:54</time>
      </trkpt>
      <trkpt lat="42.37368" lon="0.79863">
        <ele>1251.2</ele>
        <time>2022-05-23 05:31:55</time>
      </trkpt>
      <trkpt lat="42.37368" lon="0.79865">
        <ele>1251.4</ele>
        <time>2022-05-23 05:31:56</time>
      </trkpt>
      <trkpt lat="42.37367" lon="0.79868">
        <ele>1251.4</ele>
        <time>2022-05-23 05:31:57</time>
      </trkpt>
      <trkpt lat="42.37366" lon="0.7987">
        <ele>1251.6</ele>
        <time>2022-05-23 05:31:58</time>
      </trkpt>
      <trkpt lat="42.37366" lon="0.79872">
        <ele>1251.6</ele>
        <time>2022-05-23 05:31:59</time>
      </trkpt>
      <trkpt lat="42.37365" lon="0.79874">
        <ele>1251.8</ele>
        <time>2022-05-23 05:32:00</time>
      </trkpt>
      <trkpt lat="42.37365" lon="0.79876">
        <ele>1252</ele>
        <time>2022-05-23 05:32:01</time>
      </trkpt>
      <trkpt lat="42.37364" lon="0.79879">
        <ele>1252</ele>
        <time>2022-05-23 05:32:02</time>
      </trkpt>
      <trkpt lat="42.37363" lon="0.79881">
        <ele>1252.2</ele>
        <time>2022-05-23 05:32:03</time>
      </trkpt>
      <trkpt lat="42.37363" lon="0.79883">
        <ele>1252.2</ele>
        <time>2022-05-23 05:32:04</time>
      </trkpt>
      <trkpt lat="42.37362" lon="0.79886">
        <ele>1252.4</ele>
        <time>2022-05-23 05:32:05</time>
      </trkpt>
      <trkpt lat="42.37361" lon="0.79888">
        <ele>1252.6</ele>
        <time>2022-05-23 05:32:06</time>
      </trkpt>
      <trkpt lat="42.3736" lon="0.79891">
        <ele>1252.6</ele>
        <time>2022-05-23 05:32:07</time>
      </trkpt>
      <trkpt lat="42.3736" lon="0.79893">
        <ele>1252.8</ele>
        <time>2022-05-23 05:32:08</time>
      </trkpt>
      <trkpt lat="42.3736" lon="0.79895">
        <ele>1252.8</ele>
        <time>2022-05-23 05:32:09</time>
      </trkpt>
      <trkpt lat="42.37359" lon="0.79898">
        <ele>1253</ele>
        <time>2022-05-23 05:32:10</time>
      </trkpt>
      <trkpt lat="42.37358" lon="0.799">
        <ele>1253</ele>
        <time>2022-05-23 05:32:11</time>
      </trkpt>
      <trkpt lat="42.37357" lon="0.79902">
        <ele>1253.2</ele>
        <time>2022-05-23 05:32:12</time>
      </trkpt>
      <trkpt lat="42.37357" lon="0.79905">
        <ele>1253.2</ele>
        <time>2022-05-23 05:32:13</time>
      </trkpt>
      <trkpt lat="42.37356" lon="0.79907">
        <ele>1253.4</ele>
        <time>2022-05-23 05:32:14</time>
      </trkpt>
      <trkpt lat="42.37355" lon="0.79909">
        <ele>1253.6</ele>
        <time>2022-05-23 05:32:15</time>
      </trkpt>
      <trkpt lat="42.37355" lon="0.79912">
        <ele>1253.6</ele>
        <time>2022-05-23 05:32:16</time>
      </trkpt>
      <trkpt lat="42.37354" lon="0.79914">
        <ele>1253.8</ele>
        <time>2022-05-23 05:32:17</time>
      </trkpt>
      <trkpt lat="42.37353" lon="0.79917">
        <ele>1253.8</ele>
        <time>2022-05-23 05:32:18</time>
      </trkpt>
      <trkpt lat="42.37352" lon="0.79919">
        <ele>1254</ele>
        <time>2022-05-23 05:32:19</time>
      </trkpt>
      <trkpt lat="42.37352" lon="0.79921">
        <ele>1254</ele>
        <time>2022-05-23 05:32:20</time>
      </trkpt>
      <trkpt lat="42.3735" lon="0.79923">
        <ele>1254.2</ele>
        <time>2022-05-23 05:32:21</time>
      </trkpt>
      <trkpt lat="42.3735" lon="0.79926">
        <ele>1254.2</ele>
        <time>2022-05-23 05:32:22</time>
      </trkpt>
      <trkpt lat="42.37349" lon="0.79928">
        <ele>1254.4</ele>
        <time>2022-05-23 05:32:23</time>
      </trkpt>
      <trkpt lat="42.37348" lon="0.79931">
        <ele>1254.4</ele>
        <time>2022-05-23 05:32:24</time>
      </trkpt>
      <trkpt lat="42.37346" lon="0.79933">
        <ele>1254.6</ele>
        <time>2022-05-23 05:32:25</time>
      </trkpt>
      <trkpt lat="42.37345" lon="0.79936">
        <ele>1254.6</ele>
        <time>2022-05-23 05:32:26</time>
      </trkpt>
      <trkpt lat="42.37344" lon="0.79939">
        <ele>1254.6</ele>
        <time>2022-05-23 05:32:27</time>
      </trkpt>
      <trkpt lat="42.37342" lon="0.79942">
        <ele>1254.8</ele>
        <time>2022-05-23 05:32:28</time>
      </trkpt>
      <trkpt lat="42.3734" lon="0.79945">
        <ele>1254.8</ele>
        <time>2022-05-23 05:32:29</time>
      </trkpt>
      <trkpt lat="42.37338" lon="0.79947">
        <ele>1255</ele>
        <time>2022-05-23 05:32:30</time>
      </trkpt>
      <trkpt lat="42.37336" lon="0.7995">
        <ele>1255</ele>
        <time>2022-05-23 05:32:31</time>
      </trkpt>
      <trkpt lat="42.37334" lon="0.79953">
        <ele>1255</ele>
        <time>2022-05-23 05:32:32</time>
      </trkpt>
      <trkpt lat="42.37332" lon="0.79956">
        <ele>1255</ele>
        <time>2022-05-23 05:32:33</time>
      </trkpt>
      <trkpt lat="42.37329" lon="0.79959">
        <ele>1255.2</ele>
        <time>2022-05-23 05:32:34</time>
      </trkpt>
      <trkpt lat="42.37327" lon="0.79961">
        <ele>1255.2</ele>
        <time>2022-05-23 05:32:35</time>
      </trkpt>
      <trkpt lat="42.37325" lon="0.79964">
        <ele>1255.2</ele>
        <time>2022-05-23 05:32:36</time>
      </trkpt>
      <trkpt lat="42.37323" lon="0.79967">
        <ele>1255.2</ele>
        <time>2022-05-23 05:32:37</time>
      </trkpt>
      <trkpt lat="42.3732" lon="0.79969">
        <ele>1255.4</ele>
        <time>2022-05-23 05:32:38</time>
      </trkpt>
      <trkpt lat="42.37318" lon="0.79971">
        <ele>1255.4</ele>
        <time>2022-05-23 05:32:39</time>
      </trkpt>
      <trkpt lat="42.37316" lon="0.79973">
        <ele>1255.4</ele>
        <time>2022-05-23 05:32:40</time>
      </trkpt>
      <trkpt lat="42.37313" lon="0.79974">
        <ele>1255.6</ele>
        <time>2022-05-23 05:32:41</time>
      </trkpt>
      <trkpt lat="42.37311" lon="0.79976">
        <ele>1255.6</ele>
        <time>2022-05-23 05:32:42</time>
      </trkpt>
      <trkpt lat="42.37308" lon="0.79978">
        <ele>1255.6</ele>
        <time>2022-05-23 05:32:43</time>
      </trkpt>
      <trkpt lat="42.37306" lon="0.7998">
        <ele>1255.6</ele>
        <time>2022-05-23 05:32:44</time>
      </trkpt>
      <trkpt lat="42.37303" lon="0.79981">
        <ele>1255.6</ele>
        <time>2022-05-23 05:32:45</time>
      </trkpt>
      <trkpt lat="42.373" lon="0.79983">
        <ele>1255.6</ele>
        <time>2022-05-23 05:32:46</time>
      </trkpt>
      <trkpt lat="42.37298" lon="0.79984">
        <ele>1255.8</ele>
        <time>2022-05-23 05:32:47</time>
      </trkpt>
      <trkpt lat="42.37296" lon="0.79985">
        <ele>1255.8</ele>
        <time>2022-05-23 05:32:48</time>
      </trkpt>
      <trkpt lat="42.37294" lon="0.79987">
        <ele>1255.8</ele>
        <time>2022-05-23 05:32:49</time>
      </trkpt>
      <trkpt lat="42.37292" lon="0.79988">
        <ele>1255.8</ele>
        <time>2022-05-23 05:32:50</time>
      </trkpt>
      <trkpt lat="42.3729" lon="0.7999">
        <ele>1256</ele>
        <time>2022-05-23 05:32:51</time>
      </trkpt>
      <trkpt lat="42.37289" lon="0.79992">
        <ele>1256</ele>
        <time>2022-05-23 05:32:52</time>
      </trkpt>
      <trkpt lat="42.37287" lon="0.79994">
        <ele>1256</ele>
        <time>2022-05-23 05:32:53</time>
      </trkpt>
      <trkpt lat="42.37286" lon="0.79997">
        <ele>1256.2</ele>
        <time>2022-05-23 05:32:54</time>
      </trkpt>
      <trkpt lat="42.37286" lon="0.80001">
        <ele>1256.2</ele>
        <time>2022-05-23 05:32:55</time>
      </trkpt>
      <trkpt lat="42.37286" lon="0.80004">
        <ele>1256.4</ele>
        <time>2022-05-23 05:32:56</time>
      </trkpt>
      <trkpt lat="42.37286" lon="0.80008">
        <ele>1256.4</ele>
        <time>2022-05-23 05:32:57</time>
      </trkpt>
      <trkpt lat="42.37286" lon="0.80011">
        <ele>1256.6</ele>
        <time>2022-05-23 05:32:58</time>
      </trkpt>
      <trkpt lat="42.37286" lon="0.80014">
        <ele>1256.8</ele>
        <time>2022-05-23 05:32:59</time>
      </trkpt>
      <trkpt lat="42.37287" lon="0.80017">
        <ele>1256.8</ele>
        <time>2022-05-23 05:33:00</time>
      </trkpt>
      <trkpt lat="42.37288" lon="0.8002">
        <ele>1257</ele>
        <time>2022-05-23 05:33:01</time>
      </trkpt>
      <trkpt lat="42.37289" lon="0.80023">
        <ele>1257.2</ele>
        <time>2022-05-23 05:33:02</time>
      </trkpt>
      <trkpt lat="42.3729" lon="0.80026">
        <ele>1257.2</ele>
        <time>2022-05-23 05:33:03</time>
      </trkpt>
      <trkpt lat="42.37291" lon="0.80029">
        <ele>1257.4</ele>
        <time>2022-05-23 05:33:04</time>
      </trkpt>
      <trkpt lat="42.37292" lon="0.80032">
        <ele>1257.6</ele>
        <time>2022-05-23 05:33:05</time>
      </trkpt>
      <trkpt lat="42.37294" lon="0.80034">
        <ele>1257.6</ele>
        <time>2022-05-23 05:33:06</time>
      </trkpt>
      <trkpt lat="42.37295" lon="0.80037">
        <ele>1257.8</ele>
        <time>2022-05-23 05:33:07</time>
      </trkpt>
      <trkpt lat="42.37297" lon="0.80039">
        <ele>1257.8</ele>
        <time>2022-05-23 05:33:08</time>
      </trkpt>
      <trkpt lat="42.37298" lon="0.80042">
        <ele>1258</ele>
        <time>2022-05-23 05:33:09</time>
      </trkpt>
      <trkpt lat="42.373" lon="0.80044">
        <ele>1258.2</ele>
        <time>2022-05-23 05:33:10</time>
      </trkpt>
      <trkpt lat="42.37301" lon="0.80046">
        <ele>1258.2</ele>
        <time>2022-05-23 05:33:11</time>
      </trkpt>
      <trkpt lat="42.37303" lon="0.80049">
        <ele>1258.4</ele>
        <time>2022-05-23 05:33:12</time>
      </trkpt>
      <trkpt lat="42.37304" lon="0.80051">
        <ele>1258.6</ele>
        <time>2022-05-23 05:33:13</time>
      </trkpt>
      <trkpt lat="42.37306" lon="0.80054">
        <ele>1258.6</ele>
        <time>2022-05-23 05:33:14</time>
      </trkpt>
      <trkpt lat="42.37307" lon="0.80056">
        <ele>1258.8</ele>
        <time>2022-05-23 05:33:15</time>
      </trkpt>
      <trkpt lat="42.37308" lon="0.80058">
        <ele>1258.8</ele>
        <time>2022-05-23 05:33:16</time>
      </trkpt>
      <trkpt lat="42.3731" lon="0.8006">
        <ele>1259</ele>
        <time>2022-05-23 05:33:17</time>
      </trkpt>
      <trkpt lat="42.37311" lon="0.80063">
        <ele>1259</ele>
        <time>2022-05-23 05:33:18</time>
      </trkpt>
      <trkpt lat="42.37312" lon="0.80065">
        <ele>1259.2</ele>
        <time>2022-05-23 05:33:19</time>
      </trkpt>
      <trkpt lat="42.37314" lon="0.80067">
        <ele>1259.4</ele>
        <time>2022-05-23 05:33:20</time>
      </trkpt>
      <trkpt lat="42.37315" lon="0.80069">
        <ele>1259.6</ele>
        <time>2022-05-23 05:33:21</time>
      </trkpt>
      <trkpt lat="42.37317" lon="0.8007">
        <ele>1259.6</ele>
        <time>2022-05-23 05:33:22</time>
      </trkpt>
      <trkpt lat="42.37319" lon="0.80072">
        <ele>1259.8</ele>
        <time>2022-05-23 05:33:23</time>
      </trkpt>
      <trkpt lat="42.3732" lon="0.80074">
        <ele>1260</ele>
        <time>2022-05-23 05:33:24</time>
      </trkpt>
      <trkpt lat="42.37322" lon="0.80076">
        <ele>1260.2</ele>
        <time>2022-05-23 05:33:25</time>
      </trkpt>
      <trkpt lat="42.37323" lon="0.80078">
        <ele>1260.2</ele>
        <time>2022-05-23 05:33:26</time>
      </trkpt>
      <trkpt lat="42.37325" lon="0.8008">
        <ele>1260.4</ele>
        <time>2022-05-23 05:33:27</time>
      </trkpt>
      <trkpt lat="42.37326" lon="0.80083">
        <ele>1260.6</ele>
        <time>2022-05-23 05:33:28</time>
      </trkpt>
      <trkpt lat="42.37328" lon="0.80085">
        <ele>1260.8</ele>
        <time>2022-05-23 05:33:29</time>
      </trkpt>
      <trkpt lat="42.37329" lon="0.80087">
        <ele>1261</ele>
        <time>2022-05-23 05:33:30</time>
      </trkpt>
      <trkpt lat="42.37331" lon="0.8009">
        <ele>1261</ele>
        <time>2022-05-23 05:33:31</time>
      </trkpt>
      <trkpt lat="42.37332" lon="0.80092">
        <ele>1261.2</ele>
        <time>2022-05-23 05:33:32</time>
      </trkpt>
      <trkpt lat="42.37333" lon="0.80094">
        <ele>1261.4</ele>
        <time>2022-05-23 05:33:33</time>
      </trkpt>
      <trkpt lat="42.37334" lon="0.80096">
        <ele>1261.6</ele>
        <time>2022-05-23 05:33:34</time>
      </trkpt>
      <trkpt lat="42.37336" lon="0.80099">
        <ele>1261.8</ele>
        <time>2022-05-23 05:33:35</time>
      </trkpt>
      <trkpt lat="42.37337" lon="0.80101">
        <ele>1261.8</ele>
        <time>2022-05-23 05:33:36</time>
      </trkpt>
      <trkpt lat="42.37338" lon="0.80103">
        <ele>1262</ele>
        <time>2022-05-23 05:33:37</time>
      </trkpt>
      <trkpt lat="42.37339" lon="0.80106">
        <ele>1262.2</ele>
        <time>2022-05-23 05:33:38</time>
      </trkpt>
      <trkpt lat="42.3734" lon="0.80109">
        <ele>1262.4</ele>
        <time>2022-05-23 05:33:39</time>
      </trkpt>
      <trkpt lat="42.37341" lon="0.80112">
        <ele>1262.6</ele>
        <time>2022-05-23 05:33:40</time>
      </trkpt>
      <trkpt lat="42.37343" lon="0.80115">
        <ele>1262.8</ele>
        <time>2022-05-23 05:33:41</time>
      </trkpt>
      <trkpt lat="42.37344" lon="0.80117">
        <ele>1262.8</ele>
        <time>2022-05-23 05:33:42</time>
      </trkpt>
      <trkpt lat="42.37345" lon="0.8012">
        <ele>1263</ele>
        <time>2022-05-23 05:33:43</time>
      </trkpt>
      <trkpt lat="42.37346" lon="0.80123">
        <ele>1263.2</ele>
        <time>2022-05-23 05:33:44</time>
      </trkpt>
      <trkpt lat="42.37347" lon="0.80126">
        <ele>1263.4</ele>
        <time>2022-05-23 05:33:45</time>
      </trkpt>
      <trkpt lat="42.37348" lon="0.80129">
        <ele>1263.6</ele>
        <time>2022-05-23 05:33:46</time>
      </trkpt>
      <trkpt lat="42.37348" lon="0.80132">
        <ele>1263.8</ele>
        <time>2022-05-23 05:33:47</time>
      </trkpt>
      <trkpt lat="42.37349" lon="0.80135">
        <ele>1264</ele>
        <time>2022-05-23 05:33:48</time>
      </trkpt>
      <trkpt lat="42.37349" lon="0.80138">
        <ele>1264.2</ele>
        <time>2022-05-23 05:33:49</time>
      </trkpt>
      <trkpt lat="42.37349" lon="0.80142">
        <ele>1264.2</ele>
        <time>2022-05-23 05:33:50</time>
      </trkpt>
      <trkpt lat="42.3735" lon="0.80145">
        <ele>1264.4</ele>
        <time>2022-05-23 05:33:51</time>
      </trkpt>
      <trkpt lat="42.37351" lon="0.80148">
        <ele>1264.6</ele>
        <time>2022-05-23 05:33:52</time>
      </trkpt>
      <trkpt lat="42.37351" lon="0.80152">
        <ele>1264.8</ele>
        <time>2022-05-23 05:33:53</time>
      </trkpt>
      <trkpt lat="42.37352" lon="0.80155">
        <ele>1265</ele>
        <time>2022-05-23 05:33:54</time>
      </trkpt>
      <trkpt lat="42.37352" lon="0.80157">
        <ele>1265.2</ele>
        <time>2022-05-23 05:33:55</time>
      </trkpt>
      <trkpt lat="42.37352" lon="0.8016">
        <ele>1265.4</ele>
        <time>2022-05-23 05:33:56</time>
      </trkpt>
      <trkpt lat="42.37352" lon="0.80163">
        <ele>1265.6</ele>
        <time>2022-05-23 05:33:57</time>
      </trkpt>
      <trkpt lat="42.37352" lon="0.80166">
        <ele>1265.8</ele>
        <time>2022-05-23 05:33:58</time>
      </trkpt>
      <trkpt lat="42.37352" lon="0.80168">
        <ele>1266</ele>
        <time>2022-05-23 05:33:59</time>
      </trkpt>
      <trkpt lat="42.37352" lon="0.80171">
        <ele>1266</ele>
        <time>2022-05-23 05:34:00</time>
      </trkpt>
      <trkpt lat="42.37352" lon="0.80174">
        <ele>1266.2</ele>
        <time>2022-05-23 05:34:01</time>
      </trkpt>
      <trkpt lat="42.37352" lon="0.80177">
        <ele>1266.4</ele>
        <time>2022-05-23 05:34:02</time>
      </trkpt>
      <trkpt lat="42.37352" lon="0.80179">
        <ele>1266.6</ele>
        <time>2022-05-23 05:34:03</time>
      </trkpt>
      <trkpt lat="42.37352" lon="0.80182">
        <ele>1266.6</ele>
        <time>2022-05-23 05:34:04</time>
      </trkpt>
      <trkpt lat="42.37353" lon="0.80185">
        <ele>1266.8</ele>
        <time>2022-05-23 05:34:05</time>
      </trkpt>
      <trkpt lat="42.37354" lon="0.80187">
        <ele>1267</ele>
        <time>2022-05-23 05:34:06</time>
      </trkpt>
      <trkpt lat="42.37354" lon="0.8019">
        <ele>1267.2</ele>
        <time>2022-05-23 05:34:07</time>
      </trkpt>
      <trkpt lat="42.37354" lon="0.80192">
        <ele>1267.2</ele>
        <time>2022-05-23 05:34:08</time>
      </trkpt>
      <trkpt lat="42.37354" lon="0.80195">
        <ele>1267.4</ele>
        <time>2022-05-23 05:34:09</time>
      </trkpt>
      <trkpt lat="42.37354" lon="0.80197">
        <ele>1267.6</ele>
        <time>2022-05-23 05:34:10</time>
      </trkpt>
      <trkpt lat="42.37354" lon="0.802">
        <ele>1267.8</ele>
        <time>2022-05-23 05:34:11</time>
      </trkpt>
      <trkpt lat="42.37354" lon="0.80203">
        <ele>1267.8</ele>
        <time>2022-05-23 05:34:12</time>
      </trkpt>
      <trkpt lat="42.37354" lon="0.80205">
        <ele>1268</ele>
        <time>2022-05-23 05:34:13</time>
      </trkpt>
      <trkpt lat="42.37353" lon="0.80208">
        <ele>1268.2</ele>
        <time>2022-05-23 05:34:14</time>
      </trkpt>
      <trkpt lat="42.37353" lon="0.80211">
        <ele>1268.4</ele>
        <time>2022-05-23 05:34:15</time>
      </trkpt>
      <trkpt lat="42.37353" lon="0.80213">
        <ele>1268.6</ele>
        <time>2022-05-23 05:34:16</time>
      </trkpt>
      <trkpt lat="42.37353" lon="0.80216">
        <ele>1268.6</ele>
        <time>2022-05-23 05:34:17</time>
      </trkpt>
      <trkpt lat="42.37353" lon="0.80219">
        <ele>1268.8</ele>
        <time>2022-05-23 05:34:18</time>
      </trkpt>
      <trkpt lat="42.37353" lon="0.80221">
        <ele>1269</ele>
        <time>2022-05-23 05:34:19</time>
      </trkpt>
      <trkpt lat="42.37353" lon="0.80224">
        <ele>1269.2</ele>
        <time>2022-05-23 05:34:20</time>
      </trkpt>
      <trkpt lat="42.37353" lon="0.80226">
        <ele>1269.2</ele>
        <time>2022-05-23 05:34:21</time>
      </trkpt>
      <trkpt lat="42.37353" lon="0.80229">
        <ele>1269.4</ele>
        <time>2022-05-23 05:34:22</time>
      </trkpt>
      <trkpt lat="42.37353" lon="0.80232">
        <ele>1269.6</ele>
        <time>2022-05-23 05:34:23</time>
      </trkpt>
      <trkpt lat="42.37352" lon="0.80234">
        <ele>1269.6</ele>
        <time>2022-05-23 05:34:24</time>
      </trkpt>
      <trkpt lat="42.37352" lon="0.80237">
        <ele>1269.8</ele>
        <time>2022-05-23 05:34:25</time>
      </trkpt>
      <trkpt lat="42.37352" lon="0.80239">
        <ele>1270</ele>
        <time>2022-05-23 05:34:26</time>
      </trkpt>
      <trkpt lat="42.37352" lon="0.80242">
        <ele>1270</ele>
        <time>2022-05-23 05:34:27</time>
      </trkpt>
      <trkpt lat="42.37352" lon="0.80245">
        <ele>1270.2</ele>
        <time>2022-05-23 05:34:28</time>
      </trkpt>
      <trkpt lat="42.37352" lon="0.80247">
        <ele>1270.4</ele>
        <time>2022-05-23 05:34:29</time>
      </trkpt>
      <trkpt lat="42.37352" lon="0.8025">
        <ele>1270.4</ele>
        <time>2022-05-23 05:34:30</time>
      </trkpt>
      <trkpt lat="42.37352" lon="0.80253">
        <ele>1270.6</ele>
        <time>2022-05-23 05:34:31</time>
      </trkpt>
      <trkpt lat="42.37352" lon="0.80256">
        <ele>1270.6</ele>
        <time>2022-05-23 05:34:32</time>
      </trkpt>
      <trkpt lat="42.37352" lon="0.80259">
        <ele>1270.8</ele>
        <time>2022-05-23 05:34:33</time>
      </trkpt>
      <trkpt lat="42.37352" lon="0.80263">
        <ele>1270.8</ele>
        <time>2022-05-23 05:34:34</time>
      </trkpt>
      <trkpt lat="42.37352" lon="0.80266">
        <ele>1270.8</ele>
        <time>2022-05-23 05:34:35</time>
      </trkpt>
      <trkpt lat="42.37352" lon="0.80269">
        <ele>1271</ele>
        <time>2022-05-23 05:34:36</time>
      </trkpt>
      <trkpt lat="42.37352" lon="0.80273">
        <ele>1271</ele>
        <time>2022-05-23 05:34:37</time>
      </trkpt>
      <trkpt lat="42.37352" lon="0.80276">
        <ele>1271.2</ele>
        <time>2022-05-23 05:34:38</time>
      </trkpt>
      <trkpt lat="42.37352" lon="0.80279">
        <ele>1271.2</ele>
        <time>2022-05-23 05:34:39</time>
      </trkpt>
      <trkpt lat="42.37352" lon="0.80282">
        <ele>1271.2</ele>
        <time>2022-05-23 05:34:40</time>
      </trkpt>
      <trkpt lat="42.37352" lon="0.80286">
        <ele>1271.4</ele>
        <time>2022-05-23 05:34:41</time>
      </trkpt>
      <trkpt lat="42.37352" lon="0.80289">
        <ele>1271.4</ele>
        <time>2022-05-23 05:34:42</time>
      </trkpt>
      <trkpt lat="42.37352" lon="0.80292">
        <ele>1271.6</ele>
        <time>2022-05-23 05:34:43</time>
      </trkpt>
      <trkpt lat="42.37353" lon="0.80296">
        <ele>1271.6</ele>
        <time>2022-05-23 05:34:44</time>
      </trkpt>
      <trkpt lat="42.37353" lon="0.80299">
        <ele>1271.8</ele>
        <time>2022-05-23 05:34:45</time>
      </trkpt>
      <trkpt lat="42.37353" lon="0.80302">
        <ele>1271.8</ele>
        <time>2022-05-23 05:34:46</time>
      </trkpt>
      <trkpt lat="42.37352" lon="0.80305">
        <ele>1272</ele>
        <time>2022-05-23 05:34:47</time>
      </trkpt>
      <trkpt lat="42.37352" lon="0.80308">
        <ele>1272</ele>
        <time>2022-05-23 05:34:48</time>
      </trkpt>
      <trkpt lat="42.37353" lon="0.80311">
        <ele>1272.2</ele>
        <time>2022-05-23 05:34:49</time>
      </trkpt>
      <trkpt lat="42.37353" lon="0.80315">
        <ele>1272.2</ele>
        <time>2022-05-23 05:34:50</time>
      </trkpt>
      <trkpt lat="42.37354" lon="0.80318">
        <ele>1272.2</ele>
        <time>2022-05-23 05:34:51</time>
      </trkpt>
      <trkpt lat="42.37354" lon="0.80321">
        <ele>1272.4</ele>
        <time>2022-05-23 05:34:52</time>
      </trkpt>
      <trkpt lat="42.37354" lon="0.80323">
        <ele>1272.4</ele>
        <time>2022-05-23 05:34:53</time>
      </trkpt>
      <trkpt lat="42.37354" lon="0.80326">
        <ele>1272.6</ele>
        <time>2022-05-23 05:34:54</time>
      </trkpt>
      <trkpt lat="42.37354" lon="0.80329">
        <ele>1272.6</ele>
        <time>2022-05-23 05:34:55</time>
      </trkpt>
      <trkpt lat="42.37354" lon="0.80332">
        <ele>1272.8</ele>
        <time>2022-05-23 05:34:56</time>
      </trkpt>
      <trkpt lat="42.37354" lon="0.80335">
        <ele>1272.8</ele>
        <time>2022-05-23 05:34:57</time>
      </trkpt>
      <trkpt lat="42.37354" lon="0.80338">
        <ele>1273</ele>
        <time>2022-05-23 05:34:58</time>
      </trkpt>
      <trkpt lat="42.37354" lon="0.80341">
        <ele>1273</ele>
        <time>2022-05-23 05:34:59</time>
      </trkpt>
      <trkpt lat="42.37354" lon="0.80345">
        <ele>1273.2</ele>
        <time>2022-05-23 05:35:00</time>
      </trkpt>
      <trkpt lat="42.37354" lon="0.80348">
        <ele>1273.2</ele>
        <time>2022-05-23 05:35:01</time>
      </trkpt>
      <trkpt lat="42.37353" lon="0.80351">
        <ele>1273.4</ele>
        <time>2022-05-23 05:35:02</time>
      </trkpt>
      <trkpt lat="42.37353" lon="0.80354">
        <ele>1273.6</ele>
        <time>2022-05-23 05:35:03</time>
      </trkpt>
      <trkpt lat="42.37352" lon="0.80357">
        <ele>1273.6</ele>
        <time>2022-05-23 05:35:04</time>
      </trkpt>
      <trkpt lat="42.37351" lon="0.80361">
        <ele>1273.8</ele>
        <time>2022-05-23 05:35:05</time>
      </trkpt>
      <trkpt lat="42.37351" lon="0.80364">
        <ele>1273.8</ele>
        <time>2022-05-23 05:35:06</time>
      </trkpt>
      <trkpt lat="42.3735" lon="0.80367">
        <ele>1274</ele>
        <time>2022-05-23 05:35:07</time>
      </trkpt>
      <trkpt lat="42.37349" lon="0.80369">
        <ele>1274</ele>
        <time>2022-05-23 05:35:08</time>
      </trkpt>
      <trkpt lat="42.37347" lon="0.80371">
        <ele>1274.2</ele>
        <time>2022-05-23 05:35:09</time>
      </trkpt>
      <trkpt lat="42.37346" lon="0.80374">
        <ele>1274.2</ele>
        <time>2022-05-23 05:35:10</time>
      </trkpt>
      <trkpt lat="42.37345" lon="0.80376">
        <ele>1274.4</ele>
        <time>2022-05-23 05:35:11</time>
      </trkpt>
      <trkpt lat="42.37344" lon="0.80378">
        <ele>1274.4</ele>
        <time>2022-05-23 05:35:12</time>
      </trkpt>
      <trkpt lat="42.37342" lon="0.8038">
        <ele>1274.6</ele>
        <time>2022-05-23 05:35:13</time>
      </trkpt>
      <trkpt lat="42.3734" lon="0.80382">
        <ele>1274.6</ele>
        <time>2022-05-23 05:35:14</time>
      </trkpt>
      <trkpt lat="42.37338" lon="0.80385">
        <ele>1274.8</ele>
        <time>2022-05-23 05:35:15</time>
      </trkpt>
      <trkpt lat="42.37336" lon="0.80387">
        <ele>1274.8</ele>
        <time>2022-05-23 05:35:16</time>
      </trkpt>
      <trkpt lat="42.37334" lon="0.80389">
        <ele>1275</ele>
        <time>2022-05-23 05:35:17</time>
      </trkpt>
      <trkpt lat="42.37333" lon="0.80392">
        <ele>1275.2</ele>
        <time>2022-05-23 05:35:18</time>
      </trkpt>
      <trkpt lat="42.37331" lon="0.80394">
        <ele>1275.2</ele>
        <time>2022-05-23 05:35:19</time>
      </trkpt>
      <trkpt lat="42.37329" lon="0.80396">
        <ele>1275.4</ele>
        <time>2022-05-23 05:35:20</time>
      </trkpt>
      <trkpt lat="42.37328" lon="0.80399">
        <ele>1275.6</ele>
        <time>2022-05-23 05:35:21</time>
      </trkpt>
      <trkpt lat="42.37327" lon="0.80402">
        <ele>1275.6</ele>
        <time>2022-05-23 05:35:22</time>
      </trkpt>
      <trkpt lat="42.37326" lon="0.80404">
        <ele>1275.8</ele>
        <time>2022-05-23 05:35:23</time>
      </trkpt>
      <trkpt lat="42.37324" lon="0.80407">
        <ele>1276</ele>
        <time>2022-05-23 05:35:24</time>
      </trkpt>
      <trkpt lat="42.37324" lon="0.8041">
        <ele>1276</ele>
        <time>2022-05-23 05:35:25</time>
      </trkpt>
      <trkpt lat="42.37323" lon="0.80413">
        <ele>1276.2</ele>
        <time>2022-05-23 05:35:26</time>
      </trkpt>
      <trkpt lat="42.37321" lon="0.80415">
        <ele>1276.2</ele>
        <time>2022-05-23 05:35:27</time>
      </trkpt>
      <trkpt lat="42.3732" lon="0.80418">
        <ele>1276.4</ele>
        <time>2022-05-23 05:35:28</time>
      </trkpt>
      <trkpt lat="42.37319" lon="0.80421">
        <ele>1276.4</ele>
        <time>2022-05-23 05:35:29</time>
      </trkpt>
      <trkpt lat="42.37318" lon="0.80424">
        <ele>1276.6</ele>
        <time>2022-05-23 05:35:30</time>
      </trkpt>
      <trkpt lat="42.37316" lon="0.80427">
        <ele>1276.8</ele>
        <time>2022-05-23 05:35:31</time>
      </trkpt>
      <trkpt lat="42.37315" lon="0.8043">
        <ele>1276.8</ele>
        <time>2022-05-23 05:35:32</time>
      </trkpt>
      <trkpt lat="42.37314" lon="0.80433">
        <ele>1277</ele>
        <time>2022-05-23 05:35:33</time>
      </trkpt>
      <trkpt lat="42.37313" lon="0.80436">
        <ele>1277.2</ele>
        <time>2022-05-23 05:35:34</time>
      </trkpt>
      <trkpt lat="42.37311" lon="0.80438">
        <ele>1277.4</ele>
        <time>2022-05-23 05:35:35</time>
      </trkpt>
      <trkpt lat="42.3731" lon="0.80441">
        <ele>1277.4</ele>
        <time>2022-05-23 05:35:36</time>
      </trkpt>
      <trkpt lat="42.3731" lon="0.80444">
        <ele>1277.6</ele>
        <time>2022-05-23 05:35:37</time>
      </trkpt>
      <trkpt lat="42.37308" lon="0.80447">
        <ele>1277.8</ele>
        <time>2022-05-23 05:35:38</time>
      </trkpt>
      <trkpt lat="42.37308" lon="0.8045">
        <ele>1277.8</ele>
        <time>2022-05-23 05:35:39</time>
      </trkpt>
      <trkpt lat="42.37307" lon="0.80453">
        <ele>1278</ele>
        <time>2022-05-23 05:35:40</time>
      </trkpt>
      <trkpt lat="42.37305" lon="0.80455">
        <ele>1278.2</ele>
        <time>2022-05-23 05:35:41</time>
      </trkpt>
      <trkpt lat="42.37304" lon="0.80458">
        <ele>1278.4</ele>
        <time>2022-05-23 05:35:42</time>
      </trkpt>
      <trkpt lat="42.37303" lon="0.80461">
        <ele>1278.4</ele>
        <time>2022-05-23 05:35:43</time>
      </trkpt>
      <trkpt lat="42.37302" lon="0.80463">
        <ele>1278.6</ele>
        <time>2022-05-23 05:35:44</time>
      </trkpt>
      <trkpt lat="42.37301" lon="0.80466">
        <ele>1278.8</ele>
        <time>2022-05-23 05:35:45</time>
      </trkpt>
      <trkpt lat="42.373" lon="0.80469">
        <ele>1279</ele>
        <time>2022-05-23 05:35:46</time>
      </trkpt>
      <trkpt lat="42.37299" lon="0.80472">
        <ele>1279.2</ele>
        <time>2022-05-23 05:35:47</time>
      </trkpt>
      <trkpt lat="42.37297" lon="0.80475">
        <ele>1279.2</ele>
        <time>2022-05-23 05:35:48</time>
      </trkpt>
      <trkpt lat="42.37295" lon="0.80478">
        <ele>1279.4</ele>
        <time>2022-05-23 05:35:49</time>
      </trkpt>
      <trkpt lat="42.37294" lon="0.8048">
        <ele>1279.6</ele>
        <time>2022-05-23 05:35:50</time>
      </trkpt>
      <trkpt lat="42.37292" lon="0.80483">
        <ele>1279.8</ele>
        <time>2022-05-23 05:35:51</time>
      </trkpt>
      <trkpt lat="42.37291" lon="0.80486">
        <ele>1280</ele>
        <time>2022-05-23 05:35:52</time>
      </trkpt>
      <trkpt lat="42.3729" lon="0.80489">
        <ele>1280</ele>
        <time>2022-05-23 05:35:53</time>
      </trkpt>
      <trkpt lat="42.37289" lon="0.80492">
        <ele>1280.2</ele>
        <time>2022-05-23 05:35:54</time>
      </trkpt>
      <trkpt lat="42.37287" lon="0.80494">
        <ele>1280.4</ele>
        <time>2022-05-23 05:35:55</time>
      </trkpt>
      <trkpt lat="42.37286" lon="0.80497">
        <ele>1280.6</ele>
        <time>2022-05-23 05:35:56</time>
      </trkpt>
      <trkpt lat="42.37284" lon="0.80498">
        <ele>1280.8</ele>
        <time>2022-05-23 05:35:57</time>
      </trkpt>
      <trkpt lat="42.37283" lon="0.805">
        <ele>1280.8</ele>
        <time>2022-05-23 05:35:58</time>
      </trkpt>
      <trkpt lat="42.37282" lon="0.80503">
        <ele>1281</ele>
        <time>2022-05-23 05:35:59</time>
      </trkpt>
      <trkpt lat="42.37281" lon="0.80505">
        <ele>1281.2</ele>
        <time>2022-05-23 05:36:00</time>
      </trkpt>
      <trkpt lat="42.37279" lon="0.80507">
        <ele>1281.2</ele>
        <time>2022-05-23 05:36:01</time>
      </trkpt>
      <trkpt lat="42.37278" lon="0.80509">
        <ele>1281.4</ele>
        <time>2022-05-23 05:36:02</time>
      </trkpt>
      <trkpt lat="42.37276" lon="0.80511">
        <ele>1281.4</ele>
        <time>2022-05-23 05:36:03</time>
      </trkpt>
      <trkpt lat="42.37274" lon="0.80514">
        <ele>1281.6</ele>
        <time>2022-05-23 05:36:04</time>
      </trkpt>
      <trkpt lat="42.37273" lon="0.80516">
        <ele>1281.8</ele>
        <time>2022-05-23 05:36:05</time>
      </trkpt>
      <trkpt lat="42.37271" lon="0.80518">
        <ele>1281.8</ele>
        <time>2022-05-23 05:36:06</time>
      </trkpt>
      <trkpt lat="42.37269" lon="0.8052">
        <ele>1282</ele>
        <time>2022-05-23 05:36:07</time>
      </trkpt>
      <trkpt lat="42.37268" lon="0.80522">
        <ele>1282.2</ele>
        <time>2022-05-23 05:36:08</time>
      </trkpt>
      <trkpt lat="42.37266" lon="0.80523">
        <ele>1282.4</ele>
        <time>2022-05-23 05:36:09</time>
      </trkpt>
      <trkpt lat="42.37263" lon="0.80525">
        <ele>1282.4</ele>
        <time>2022-05-23 05:36:10</time>
      </trkpt>
      <trkpt lat="42.37261" lon="0.80526">
        <ele>1282.6</ele>
        <time>2022-05-23 05:36:11</time>
      </trkpt>
      <trkpt lat="42.3726" lon="0.80527">
        <ele>1282.8</ele>
        <time>2022-05-23 05:36:12</time>
      </trkpt>
      <trkpt lat="42.37257" lon="0.80528">
        <ele>1283</ele>
        <time>2022-05-23 05:36:13</time>
      </trkpt>
      <trkpt lat="42.37255" lon="0.80529">
        <ele>1283</ele>
        <time>2022-05-23 05:36:14</time>
      </trkpt>
      <trkpt lat="42.37253" lon="0.80529">
        <ele>1283.2</ele>
        <time>2022-05-23 05:36:15</time>
      </trkpt>
      <trkpt lat="42.37251" lon="0.8053">
        <ele>1283.2</ele>
        <time>2022-05-23 05:36:16</time>
      </trkpt>
      <trkpt lat="42.37249" lon="0.80531">
        <ele>1283.4</ele>
        <time>2022-05-23 05:36:17</time>
      </trkpt>
      <trkpt lat="42.37246" lon="0.80531">
        <ele>1283.6</ele>
        <time>2022-05-23 05:36:18</time>
      </trkpt>
      <trkpt lat="42.37244" lon="0.80531">
        <ele>1283.6</ele>
        <time>2022-05-23 05:36:19</time>
      </trkpt>
      <trkpt lat="42.37242" lon="0.80532">
        <ele>1283.8</ele>
        <time>2022-05-23 05:36:20</time>
      </trkpt>
      <trkpt lat="42.3724" lon="0.80532">
        <ele>1284</ele>
        <time>2022-05-23 05:36:21</time>
      </trkpt>
      <trkpt lat="42.37238" lon="0.80533">
        <ele>1284.2</ele>
        <time>2022-05-23 05:36:22</time>
      </trkpt>
      <trkpt lat="42.37236" lon="0.80533">
        <ele>1284.2</ele>
        <time>2022-05-23 05:36:23</time>
      </trkpt>
      <trkpt lat="42.37234" lon="0.80534">
        <ele>1284.4</ele>
        <time>2022-05-23 05:36:24</time>
      </trkpt>
      <trkpt lat="42.37232" lon="0.80534">
        <ele>1284.6</ele>
        <time>2022-05-23 05:36:25</time>
      </trkpt>
      <trkpt lat="42.37229" lon="0.80534">
        <ele>1284.8</ele>
        <time>2022-05-23 05:36:26</time>
      </trkpt>
      <trkpt lat="42.37227" lon="0.80535">
        <ele>1284.8</ele>
        <time>2022-05-23 05:36:27</time>
      </trkpt>
      <trkpt lat="42.37225" lon="0.80536">
        <ele>1285</ele>
        <time>2022-05-23 05:36:28</time>
      </trkpt>
      <trkpt lat="42.37223" lon="0.80538">
        <ele>1285.2</ele>
        <time>2022-05-23 05:36:29</time>
      </trkpt>
      <trkpt lat="42.37221" lon="0.80539">
        <ele>1285.4</ele>
        <time>2022-05-23 05:36:30</time>
      </trkpt>
      <trkpt lat="42.37219" lon="0.8054">
        <ele>1285.6</ele>
        <time>2022-05-23 05:36:31</time>
      </trkpt>
      <trkpt lat="42.37218" lon="0.80541">
        <ele>1285.6</ele>
        <time>2022-05-23 05:36:32</time>
      </trkpt>
      <trkpt lat="42.37216" lon="0.80542">
        <ele>1285.8</ele>
        <time>2022-05-23 05:36:33</time>
      </trkpt>
      <trkpt lat="42.37214" lon="0.80543">
        <ele>1286</ele>
        <time>2022-05-23 05:36:34</time>
      </trkpt>
      <trkpt lat="42.37212" lon="0.80544">
        <ele>1286.2</ele>
        <time>2022-05-23 05:36:35</time>
      </trkpt>
      <trkpt lat="42.3721" lon="0.80545">
        <ele>1286.2</ele>
        <time>2022-05-23 05:36:36</time>
      </trkpt>
      <trkpt lat="42.37209" lon="0.80547">
        <ele>1286.4</ele>
        <time>2022-05-23 05:36:37</time>
      </trkpt>
      <trkpt lat="42.37207" lon="0.80548">
        <ele>1286.6</ele>
        <time>2022-05-23 05:36:38</time>
      </trkpt>
      <trkpt lat="42.37205" lon="0.80549">
        <ele>1286.8</ele>
        <time>2022-05-23 05:36:39</time>
      </trkpt>
      <trkpt lat="42.37204" lon="0.80551">
        <ele>1287</ele>
        <time>2022-05-23 05:36:40</time>
      </trkpt>
      <trkpt lat="42.37202" lon="0.80552">
        <ele>1287</ele>
        <time>2022-05-23 05:36:41</time>
      </trkpt>
      <trkpt lat="42.372" lon="0.80553">
        <ele>1287.2</ele>
        <time>2022-05-23 05:36:42</time>
      </trkpt>
      <trkpt lat="42.37199" lon="0.80555">
        <ele>1287.4</ele>
        <time>2022-05-23 05:36:43</time>
      </trkpt>
      <trkpt lat="42.37197" lon="0.80556">
        <ele>1287.6</ele>
        <time>2022-05-23 05:36:44</time>
      </trkpt>
      <trkpt lat="42.37195" lon="0.80557">
        <ele>1287.6</ele>
        <time>2022-05-23 05:36:45</time>
      </trkpt>
      <trkpt lat="42.37194" lon="0.80559">
        <ele>1287.8</ele>
        <time>2022-05-23 05:36:46</time>
      </trkpt>
      <trkpt lat="42.37192" lon="0.8056">
        <ele>1288</ele>
        <time>2022-05-23 05:36:47</time>
      </trkpt>
      <trkpt lat="42.3719" lon="0.80561">
        <ele>1288</ele>
        <time>2022-05-23 05:36:48</time>
      </trkpt>
      <trkpt lat="42.37188" lon="0.80562">
        <ele>1288.2</ele>
        <time>2022-05-23 05:36:49</time>
      </trkpt>
      <trkpt lat="42.37186" lon="0.80563">
        <ele>1288.4</ele>
        <time>2022-05-23 05:36:50</time>
      </trkpt>
      <trkpt lat="42.37184" lon="0.80565">
        <ele>1288.4</ele>
        <time>2022-05-23 05:36:51</time>
      </trkpt>
      <trkpt lat="42.37183" lon="0.80567">
        <ele>1288.6</ele>
        <time>2022-05-23 05:36:52</time>
      </trkpt>
      <trkpt lat="42.37181" lon="0.80569">
        <ele>1288.8</ele>
        <time>2022-05-23 05:36:53</time>
      </trkpt>
      <trkpt lat="42.3718" lon="0.80572">
        <ele>1289</ele>
        <time>2022-05-23 05:36:54</time>
      </trkpt>
      <trkpt lat="42.37179" lon="0.80574">
        <ele>1289</ele>
        <time>2022-05-23 05:36:55</time>
      </trkpt>
      <trkpt lat="42.37178" lon="0.80576">
        <ele>1289.2</ele>
        <time>2022-05-23 05:36:56</time>
      </trkpt>
      <trkpt lat="42.37176" lon="0.80579">
        <ele>1289.4</ele>
        <time>2022-05-23 05:36:57</time>
      </trkpt>
      <trkpt lat="42.37175" lon="0.80581">
        <ele>1289.4</ele>
        <time>2022-05-23 05:36:58</time>
      </trkpt>
      <trkpt lat="42.37175" lon="0.80583">
        <ele>1289.6</ele>
        <time>2022-05-23 05:36:59</time>
      </trkpt>
      <trkpt lat="42.37173" lon="0.80584">
        <ele>1289.8</ele>
        <time>2022-05-23 05:37:00</time>
      </trkpt>
      <trkpt lat="42.37172" lon="0.80586">
        <ele>1290</ele>
        <time>2022-05-23 05:37:01</time>
      </trkpt>
      <trkpt lat="42.37172" lon="0.80587">
        <ele>1290.2</ele>
        <time>2022-05-23 05:37:02</time>
      </trkpt>
      <trkpt lat="42.37171" lon="0.80589">
        <ele>1290.4</ele>
        <time>2022-05-23 05:37:03</time>
      </trkpt>
      <trkpt lat="42.3717" lon="0.80592">
        <ele>1290.6</ele>
        <time>2022-05-23 05:37:04</time>
      </trkpt>
      <trkpt lat="42.3717" lon="0.80594">
        <ele>1290.8</ele>
        <time>2022-05-23 05:37:05</time>
      </trkpt>
      <trkpt lat="42.37169" lon="0.80596">
        <ele>1290.8</ele>
        <time>2022-05-23 05:37:06</time>
      </trkpt>
      <trkpt lat="42.37168" lon="0.80599">
        <ele>1291</ele>
        <time>2022-05-23 05:37:07</time>
      </trkpt>
      <trkpt lat="42.37167" lon="0.80601">
        <ele>1291.2</ele>
        <time>2022-05-23 05:37:08</time>
      </trkpt>
      <trkpt lat="42.37167" lon="0.80604">
        <ele>1291.4</ele>
        <time>2022-05-23 05:37:09</time>
      </trkpt>
      <trkpt lat="42.37166" lon="0.80607">
        <ele>1291.6</ele>
        <time>2022-05-23 05:37:10</time>
      </trkpt>
      <trkpt lat="42.37165" lon="0.8061">
        <ele>1291.6</ele>
        <time>2022-05-23 05:37:11</time>
      </trkpt>
      <trkpt lat="42.37165" lon="0.80612">
        <ele>1291.8</ele>
        <time>2022-05-23 05:37:12</time>
      </trkpt>
      <trkpt lat="42.37163" lon="0.80615">
        <ele>1292</ele>
        <time>2022-05-23 05:37:13</time>
      </trkpt>
      <trkpt lat="42.37162" lon="0.80617">
        <ele>1292.2</ele>
        <time>2022-05-23 05:37:14</time>
      </trkpt>
      <trkpt lat="42.37162" lon="0.80619">
        <ele>1292.2</ele>
        <time>2022-05-23 05:37:15</time>
      </trkpt>
      <trkpt lat="42.37161" lon="0.80622">
        <ele>1292.4</ele>
        <time>2022-05-23 05:37:16</time>
      </trkpt>
      <trkpt lat="42.37161" lon="0.80625">
        <ele>1292.6</ele>
        <time>2022-05-23 05:37:17</time>
      </trkpt>
      <trkpt lat="42.37161" lon="0.80629">
        <ele>1292.8</ele>
        <time>2022-05-23 05:37:18</time>
      </trkpt>
      <trkpt lat="42.3716" lon="0.80631">
        <ele>1292.8</ele>
        <time>2022-05-23 05:37:19</time>
      </trkpt>
      <trkpt lat="42.37159" lon="0.80634">
        <ele>1293</ele>
        <time>2022-05-23 05:37:20</time>
      </trkpt>
      <trkpt lat="42.37159" lon="0.80636">
        <ele>1293.2</ele>
        <time>2022-05-23 05:37:21</time>
      </trkpt>
      <trkpt lat="42.37158" lon="0.80639">
        <ele>1293.2</ele>
        <time>2022-05-23 05:37:22</time>
      </trkpt>
      <trkpt lat="42.37157" lon="0.80642">
        <ele>1293.4</ele>
        <time>2022-05-23 05:37:23</time>
      </trkpt>
      <trkpt lat="42.37156" lon="0.80645">
        <ele>1293.6</ele>
        <time>2022-05-23 05:37:24</time>
      </trkpt>
      <trkpt lat="42.37155" lon="0.80647">
        <ele>1293.6</ele>
        <time>2022-05-23 05:37:25</time>
      </trkpt>
      <trkpt lat="42.37155" lon="0.8065">
        <ele>1293.8</ele>
        <time>2022-05-23 05:37:26</time>
      </trkpt>
      <trkpt lat="42.37154" lon="0.80653">
        <ele>1294</ele>
        <time>2022-05-23 05:37:27</time>
      </trkpt>
      <trkpt lat="42.37154" lon="0.80656">
        <ele>1294.2</ele>
        <time>2022-05-23 05:37:28</time>
      </trkpt>
      <trkpt lat="42.37153" lon="0.80659">
        <ele>1294.4</ele>
        <time>2022-05-23 05:37:29</time>
      </trkpt>
      <trkpt lat="42.37152" lon="0.80661">
        <ele>1294.4</ele>
        <time>2022-05-23 05:37:30</time>
      </trkpt>
      <trkpt lat="42.37151" lon="0.80663">
        <ele>1294.6</ele>
        <time>2022-05-23 05:37:31</time>
      </trkpt>
      <trkpt lat="42.3715" lon="0.80665">
        <ele>1294.8</ele>
        <time>2022-05-23 05:37:32</time>
      </trkpt>
      <trkpt lat="42.37149" lon="0.80667">
        <ele>1294.8</ele>
        <time>2022-05-23 05:37:33</time>
      </trkpt>
      <trkpt lat="42.37147" lon="0.80669">
        <ele>1295</ele>
        <time>2022-05-23 05:37:34</time>
      </trkpt>
      <trkpt lat="42.37146" lon="0.80671">
        <ele>1295.2</ele>
        <time>2022-05-23 05:37:35</time>
      </trkpt>
      <trkpt lat="42.37144" lon="0.80674">
        <ele>1295.2</ele>
        <time>2022-05-23 05:37:36</time>
      </trkpt>
      <trkpt lat="42.37143" lon="0.80677">
        <ele>1295.4</ele>
        <time>2022-05-23 05:37:37</time>
      </trkpt>
      <trkpt lat="42.37141" lon="0.80679">
        <ele>1295.6</ele>
        <time>2022-05-23 05:37:38</time>
      </trkpt>
      <trkpt lat="42.3714" lon="0.80681">
        <ele>1295.8</ele>
        <time>2022-05-23 05:37:39</time>
      </trkpt>
      <trkpt lat="42.37138" lon="0.80684">
        <ele>1296</ele>
        <time>2022-05-23 05:37:40</time>
      </trkpt>
      <trkpt lat="42.37137" lon="0.80686">
        <ele>1296.2</ele>
        <time>2022-05-23 05:37:41</time>
      </trkpt>
      <trkpt lat="42.37135" lon="0.80688">
        <ele>1296.4</ele>
        <time>2022-05-23 05:37:42</time>
      </trkpt>
      <trkpt lat="42.37133" lon="0.8069">
        <ele>1296.6</ele>
        <time>2022-05-23 05:37:43</time>
      </trkpt>
      <trkpt lat="42.37131" lon="0.80692">
        <ele>1296.6</ele>
        <time>2022-05-23 05:37:44</time>
      </trkpt>
      <trkpt lat="42.3713" lon="0.80693">
        <ele>1296.8</ele>
        <time>2022-05-23 05:37:45</time>
      </trkpt>
      <trkpt lat="42.37128" lon="0.80696">
        <ele>1297</ele>
        <time>2022-05-23 05:37:46</time>
      </trkpt>
      <trkpt lat="42.37126" lon="0.80698">
        <ele>1297.2</ele>
        <time>2022-05-23 05:37:47</time>
      </trkpt>
      <trkpt lat="42.37125" lon="0.80701">
        <ele>1297.4</ele>
        <time>2022-05-23 05:37:48</time>
      </trkpt>
      <trkpt lat="42.37123" lon="0.80703">
        <ele>1297.6</ele>
        <time>2022-05-23 05:37:49</time>
      </trkpt>
      <trkpt lat="42.37122" lon="0.80705">
        <ele>1297.8</ele>
        <time>2022-05-23 05:37:50</time>
      </trkpt>
      <trkpt lat="42.37121" lon="0.80707">
        <ele>1298</ele>
        <time>2022-05-23 05:37:51</time>
      </trkpt>
      <trkpt lat="42.37119" lon="0.80709">
        <ele>1298</ele>
        <time>2022-05-23 05:37:52</time>
      </trkpt>
      <trkpt lat="42.37118" lon="0.80711">
        <ele>1298.2</ele>
        <time>2022-05-23 05:37:53</time>
      </trkpt>
      <trkpt lat="42.37118" lon="0.80713">
        <ele>1298.4</ele>
        <time>2022-05-23 05:37:54</time>
      </trkpt>
      <trkpt lat="42.37117" lon="0.80715">
        <ele>1298.6</ele>
        <time>2022-05-23 05:37:55</time>
      </trkpt>
      <trkpt lat="42.37116" lon="0.80717">
        <ele>1298.8</ele>
        <time>2022-05-23 05:37:56</time>
      </trkpt>
      <trkpt lat="42.37115" lon="0.8072">
        <ele>1299</ele>
        <time>2022-05-23 05:37:57</time>
      </trkpt>
      <trkpt lat="42.37114" lon="0.80723">
        <ele>1299.2</ele>
        <time>2022-05-23 05:37:58</time>
      </trkpt>
      <trkpt lat="42.37114" lon="0.80727">
        <ele>1299.2</ele>
        <time>2022-05-23 05:37:59</time>
      </trkpt>
      <trkpt lat="42.37113" lon="0.8073">
        <ele>1299.4</ele>
        <time>2022-05-23 05:38:00</time>
      </trkpt>
      <trkpt lat="42.37112" lon="0.80733">
        <ele>1299.6</ele>
        <time>2022-05-23 05:38:01</time>
      </trkpt>
      <trkpt lat="42.37112" lon="0.80737">
        <ele>1299.8</ele>
        <time>2022-05-23 05:38:02</time>
      </trkpt>
      <trkpt lat="42.37111" lon="0.8074">
        <ele>1300</ele>
        <time>2022-05-23 05:38:03</time>
      </trkpt>
      <trkpt lat="42.37111" lon="0.80743">
        <ele>1300</ele>
        <time>2022-05-23 05:38:04</time>
      </trkpt>
      <trkpt lat="42.3711" lon="0.80748">
        <ele>1300.2</ele>
        <time>2022-05-23 05:38:05</time>
      </trkpt>
      <trkpt lat="42.3711" lon="0.80751">
        <ele>1300.4</ele>
        <time>2022-05-23 05:38:06</time>
      </trkpt>
      <trkpt lat="42.3711" lon="0.80754">
        <ele>1300.4</ele>
        <time>2022-05-23 05:38:07</time>
      </trkpt>
      <trkpt lat="42.37109" lon="0.80757">
        <ele>1300.6</ele>
        <time>2022-05-23 05:38:08</time>
      </trkpt>
      <trkpt lat="42.37109" lon="0.8076">
        <ele>1300.8</ele>
        <time>2022-05-23 05:38:09</time>
      </trkpt>
      <trkpt lat="42.37109" lon="0.80763">
        <ele>1301</ele>
        <time>2022-05-23 05:38:10</time>
      </trkpt>
      <trkpt lat="42.3711" lon="0.80766">
        <ele>1301.2</ele>
        <time>2022-05-23 05:38:11</time>
      </trkpt>
      <trkpt lat="42.3711" lon="0.80768">
        <ele>1301.4</ele>
        <time>2022-05-23 05:38:12</time>
      </trkpt>
      <trkpt lat="42.3711" lon="0.80771">
        <ele>1301.4</ele>
        <time>2022-05-23 05:38:13</time>
      </trkpt>
      <trkpt lat="42.3711" lon="0.80774">
        <ele>1301.6</ele>
        <time>2022-05-23 05:38:14</time>
      </trkpt>
      <trkpt lat="42.37109" lon="0.80776">
        <ele>1301.8</ele>
        <time>2022-05-23 05:38:15</time>
      </trkpt>
      <trkpt lat="42.37109" lon="0.80778">
        <ele>1302</ele>
        <time>2022-05-23 05:38:16</time>
      </trkpt>
      <trkpt lat="42.37109" lon="0.80781">
        <ele>1302.2</ele>
        <time>2022-05-23 05:38:17</time>
      </trkpt>
      <trkpt lat="42.37109" lon="0.80783">
        <ele>1302.4</ele>
        <time>2022-05-23 05:38:18</time>
      </trkpt>
      <trkpt lat="42.37108" lon="0.80785">
        <ele>1302.4</ele>
        <time>2022-05-23 05:38:19</time>
      </trkpt>
      <trkpt lat="42.37108" lon="0.80788">
        <ele>1302.6</ele>
        <time>2022-05-23 05:38:20</time>
      </trkpt>
      <trkpt lat="42.37107" lon="0.8079">
        <ele>1302.8</ele>
        <time>2022-05-23 05:38:21</time>
      </trkpt>
      <trkpt lat="42.37106" lon="0.80793">
        <ele>1303</ele>
        <time>2022-05-23 05:38:22</time>
      </trkpt>
      <trkpt lat="42.37106" lon="0.80796">
        <ele>1303</ele>
        <time>2022-05-23 05:38:23</time>
      </trkpt>
      <trkpt lat="42.37106" lon="0.80798">
        <ele>1303.2</ele>
        <time>2022-05-23 05:38:24</time>
      </trkpt>
      <trkpt lat="42.37105" lon="0.80801">
        <ele>1303.4</ele>
        <time>2022-05-23 05:38:25</time>
      </trkpt>
      <trkpt lat="42.37104" lon="0.80803">
        <ele>1303.4</ele>
        <time>2022-05-23 05:38:26</time>
      </trkpt>
      <trkpt lat="42.37104" lon="0.80806">
        <ele>1303.6</ele>
        <time>2022-05-23 05:38:27</time>
      </trkpt>
      <trkpt lat="42.37104" lon="0.80808">
        <ele>1303.8</ele>
        <time>2022-05-23 05:38:28</time>
      </trkpt>
      <trkpt lat="42.37103" lon="0.8081">
        <ele>1304</ele>
        <time>2022-05-23 05:38:29</time>
      </trkpt>
      <trkpt lat="42.37103" lon="0.80812">
        <ele>1304</ele>
        <time>2022-05-23 05:38:30</time>
      </trkpt>
      <trkpt lat="42.37102" lon="0.80815">
        <ele>1304.2</ele>
        <time>2022-05-23 05:38:31</time>
      </trkpt>
      <trkpt lat="42.37102" lon="0.80818">
        <ele>1304.4</ele>
        <time>2022-05-23 05:38:32</time>
      </trkpt>
      <trkpt lat="42.37102" lon="0.8082">
        <ele>1304.6</ele>
        <time>2022-05-23 05:38:33</time>
      </trkpt>
      <trkpt lat="42.37102" lon="0.80822">
        <ele>1304.6</ele>
        <time>2022-05-23 05:38:34</time>
      </trkpt>
      <trkpt lat="42.37101" lon="0.80825">
        <ele>1304.8</ele>
        <time>2022-05-23 05:38:35</time>
      </trkpt>
      <trkpt lat="42.37101" lon="0.80828">
        <ele>1305</ele>
        <time>2022-05-23 05:38:36</time>
      </trkpt>
      <trkpt lat="42.371" lon="0.8083">
        <ele>1305.2</ele>
        <time>2022-05-23 05:38:37</time>
      </trkpt>
      <trkpt lat="42.37099" lon="0.80833">
        <ele>1305.2</ele>
        <time>2022-05-23 05:38:38</time>
      </trkpt>
      <trkpt lat="42.37099" lon="0.80835">
        <ele>1305.4</ele>
        <time>2022-05-23 05:38:39</time>
      </trkpt>
      <trkpt lat="42.37098" lon="0.80838">
        <ele>1305.6</ele>
        <time>2022-05-23 05:38:40</time>
      </trkpt>
      <trkpt lat="42.37098" lon="0.8084">
        <ele>1305.8</ele>
        <time>2022-05-23 05:38:41</time>
      </trkpt>
      <trkpt lat="42.37098" lon="0.80843">
        <ele>1305.8</ele>
        <time>2022-05-23 05:38:42</time>
      </trkpt>
      <trkpt lat="42.37097" lon="0.80845">
        <ele>1306</ele>
        <time>2022-05-23 05:38:43</time>
      </trkpt>
      <trkpt lat="42.37096" lon="0.80848">
        <ele>1306.2</ele>
        <time>2022-05-23 05:38:44</time>
      </trkpt>
      <trkpt lat="42.37096" lon="0.8085">
        <ele>1306.4</ele>
        <time>2022-05-23 05:38:45</time>
      </trkpt>
      <trkpt lat="42.37096" lon="0.80853">
        <ele>1306.4</ele>
        <time>2022-05-23 05:38:46</time>
      </trkpt>
      <trkpt lat="42.37095" lon="0.80855">
        <ele>1306.6</ele>
        <time>2022-05-23 05:38:47</time>
      </trkpt>
      <trkpt lat="42.37094" lon="0.80857">
        <ele>1306.8</ele>
        <time>2022-05-23 05:38:48</time>
      </trkpt>
      <trkpt lat="42.37094" lon="0.80859">
        <ele>1307</ele>
        <time>2022-05-23 05:38:49</time>
      </trkpt>
      <trkpt lat="42.37093" lon="0.80861">
        <ele>1307.2</ele>
        <time>2022-05-23 05:38:50</time>
      </trkpt>
      <trkpt lat="42.37093" lon="0.80864">
        <ele>1307.2</ele>
        <time>2022-05-23 05:38:51</time>
      </trkpt>
      <trkpt lat="42.37092" lon="0.80866">
        <ele>1307.4</ele>
        <time>2022-05-23 05:38:52</time>
      </trkpt>
      <trkpt lat="42.37091" lon="0.80868">
        <ele>1307.6</ele>
        <time>2022-05-23 05:38:53</time>
      </trkpt>
      <trkpt lat="42.37091" lon="0.80871">
        <ele>1307.8</ele>
        <time>2022-05-23 05:38:54</time>
      </trkpt>
      <trkpt lat="42.3709" lon="0.80873">
        <ele>1307.8</ele>
        <time>2022-05-23 05:38:55</time>
      </trkpt>
      <trkpt lat="42.3709" lon="0.80875">
        <ele>1308</ele>
        <time>2022-05-23 05:38:56</time>
      </trkpt>
      <trkpt lat="42.37089" lon="0.80878">
        <ele>1308.2</ele>
        <time>2022-05-23 05:38:57</time>
      </trkpt>
      <trkpt lat="42.37088" lon="0.8088">
        <ele>1308.4</ele>
        <time>2022-05-23 05:38:58</time>
      </trkpt>
      <trkpt lat="42.37088" lon="0.80882">
        <ele>1308.4</ele>
        <time>2022-05-23 05:38:59</time>
      </trkpt>
      <trkpt lat="42.37087" lon="0.80884">
        <ele>1308.6</ele>
        <time>2022-05-23 05:39:00</time>
      </trkpt>
      <trkpt lat="42.37086" lon="0.80886">
        <ele>1308.8</ele>
        <time>2022-05-23 05:39:01</time>
      </trkpt>
      <trkpt lat="42.37085" lon="0.80888">
        <ele>1309</ele>
        <time>2022-05-23 05:39:02</time>
      </trkpt>
      <trkpt lat="42.37085" lon="0.8089">
        <ele>1309.2</ele>
        <time>2022-05-23 05:39:03</time>
      </trkpt>
      <trkpt lat="42.37084" lon="0.80892">
        <ele>1309.2</ele>
        <time>2022-05-23 05:39:04</time>
      </trkpt>
      <trkpt lat="42.37083" lon="0.80895">
        <ele>1309.4</ele>
        <time>2022-05-23 05:39:05</time>
      </trkpt>
      <trkpt lat="42.37082" lon="0.80897">
        <ele>1309.6</ele>
        <time>2022-05-23 05:39:06</time>
      </trkpt>
      <trkpt lat="42.37081" lon="0.80899">
        <ele>1309.8</ele>
        <time>2022-05-23 05:39:07</time>
      </trkpt>
      <trkpt lat="42.3708" lon="0.80901">
        <ele>1310</ele>
        <time>2022-05-23 05:39:08</time>
      </trkpt>
      <trkpt lat="42.3708" lon="0.80903">
        <ele>1310</ele>
        <time>2022-05-23 05:39:09</time>
      </trkpt>
      <trkpt lat="42.37078" lon="0.80905">
        <ele>1310.2</ele>
        <time>2022-05-23 05:39:10</time>
      </trkpt>
      <trkpt lat="42.37077" lon="0.80907">
        <ele>1310.4</ele>
        <time>2022-05-23 05:39:11</time>
      </trkpt>
      <trkpt lat="42.37076" lon="0.80909">
        <ele>1310.6</ele>
        <time>2022-05-23 05:39:12</time>
      </trkpt>
      <trkpt lat="42.37075" lon="0.80911">
        <ele>1310.8</ele>
        <time>2022-05-23 05:39:13</time>
      </trkpt>
      <trkpt lat="42.37074" lon="0.80912">
        <ele>1310.8</ele>
        <time>2022-05-23 05:39:14</time>
      </trkpt>
      <trkpt lat="42.37073" lon="0.80914">
        <ele>1311</ele>
        <time>2022-05-23 05:39:15</time>
      </trkpt>
      <trkpt lat="42.37072" lon="0.80916">
        <ele>1311.2</ele>
        <time>2022-05-23 05:39:16</time>
      </trkpt>
      <trkpt lat="42.37071" lon="0.80918">
        <ele>1311.4</ele>
        <time>2022-05-23 05:39:17</time>
      </trkpt>
      <trkpt lat="42.3707" lon="0.80919">
        <ele>1311.4</ele>
        <time>2022-05-23 05:39:18</time>
      </trkpt>
      <trkpt lat="42.37068" lon="0.80921">
        <ele>1311.6</ele>
        <time>2022-05-23 05:39:19</time>
      </trkpt>
      <trkpt lat="42.37067" lon="0.80922">
        <ele>1311.8</ele>
        <time>2022-05-23 05:39:20</time>
      </trkpt>
      <trkpt lat="42.37066" lon="0.80924">
        <ele>1312</ele>
        <time>2022-05-23 05:39:21</time>
      </trkpt>
      <trkpt lat="42.37064" lon="0.80926">
        <ele>1312.2</ele>
        <time>2022-05-23 05:39:22</time>
      </trkpt>
      <trkpt lat="42.37063" lon="0.80928">
        <ele>1312.2</ele>
        <time>2022-05-23 05:39:23</time>
      </trkpt>
      <trkpt lat="42.37061" lon="0.8093">
        <ele>1312.4</ele>
        <time>2022-05-23 05:39:24</time>
      </trkpt>
      <trkpt lat="42.3706" lon="0.80932">
        <ele>1312.6</ele>
        <time>2022-05-23 05:39:25</time>
      </trkpt>
      <trkpt lat="42.37059" lon="0.80934">
        <ele>1312.8</ele>
        <time>2022-05-23 05:39:26</time>
      </trkpt>
      <trkpt lat="42.37057" lon="0.80935">
        <ele>1312.8</ele>
        <time>2022-05-23 05:39:27</time>
      </trkpt>
      <trkpt lat="42.37056" lon="0.80937">
        <ele>1313</ele>
        <time>2022-05-23 05:39:28</time>
      </trkpt>
      <trkpt lat="42.37054" lon="0.80939">
        <ele>1313.2</ele>
        <time>2022-05-23 05:39:29</time>
      </trkpt>
      <trkpt lat="42.37052" lon="0.80941">
        <ele>1313.2</ele>
        <time>2022-05-23 05:39:30</time>
      </trkpt>
      <trkpt lat="42.37051" lon="0.80942">
        <ele>1313.4</ele>
        <time>2022-05-23 05:39:31</time>
      </trkpt>
      <trkpt lat="42.37049" lon="0.80944">
        <ele>1313.6</ele>
        <time>2022-05-23 05:39:32</time>
      </trkpt>
      <trkpt lat="42.37048" lon="0.80946">
        <ele>1313.6</ele>
        <time>2022-05-23 05:39:33</time>
      </trkpt>
      <trkpt lat="42.37046" lon="0.80947">
        <ele>1313.8</ele>
        <time>2022-05-23 05:39:34</time>
      </trkpt>
      <trkpt lat="42.37044" lon="0.80948">
        <ele>1314</ele>
        <time>2022-05-23 05:39:35</time>
      </trkpt>
      <trkpt lat="42.37043" lon="0.80949">
        <ele>1314.2</ele>
        <time>2022-05-23 05:39:36</time>
      </trkpt>
      <trkpt lat="42.37041" lon="0.8095">
        <ele>1314.2</ele>
        <time>2022-05-23 05:39:37</time>
      </trkpt>
      <trkpt lat="42.37039" lon="0.80952">
        <ele>1314.4</ele>
        <time>2022-05-23 05:39:38</time>
      </trkpt>
      <trkpt lat="42.37038" lon="0.80953">
        <ele>1314.6</ele>
        <time>2022-05-23 05:39:39</time>
      </trkpt>
      <trkpt lat="42.37036" lon="0.80954">
        <ele>1314.6</ele>
        <time>2022-05-23 05:39:40</time>
      </trkpt>
      <trkpt lat="42.37035" lon="0.80955">
        <ele>1314.8</ele>
        <time>2022-05-23 05:39:41</time>
      </trkpt>
      <trkpt lat="42.37033" lon="0.80955">
        <ele>1315</ele>
        <time>2022-05-23 05:39:42</time>
      </trkpt>
      <trkpt lat="42.37031" lon="0.80956">
        <ele>1315.2</ele>
        <time>2022-05-23 05:39:43</time>
      </trkpt>
      <trkpt lat="42.3703" lon="0.80957">
        <ele>1315.2</ele>
        <time>2022-05-23 05:39:44</time>
      </trkpt>
      <trkpt lat="42.37028" lon="0.80959">
        <ele>1315.4</ele>
        <time>2022-05-23 05:39:45</time>
      </trkpt>
      <trkpt lat="42.37026" lon="0.8096">
        <ele>1315.6</ele>
        <time>2022-05-23 05:39:46</time>
      </trkpt>
      <trkpt lat="42.37024" lon="0.80961">
        <ele>1315.8</ele>
        <time>2022-05-23 05:39:47</time>
      </trkpt>
      <trkpt lat="42.37022" lon="0.80962">
        <ele>1315.8</ele>
        <time>2022-05-23 05:39:48</time>
      </trkpt>
      <trkpt lat="42.3702" lon="0.80964">
        <ele>1316</ele>
        <time>2022-05-23 05:39:49</time>
      </trkpt>
      <trkpt lat="42.37019" lon="0.80965">
        <ele>1316.2</ele>
        <time>2022-05-23 05:39:50</time>
      </trkpt>
      <trkpt lat="42.37017" lon="0.80965">
        <ele>1316.4</ele>
        <time>2022-05-23 05:39:51</time>
      </trkpt>
      <trkpt lat="42.37015" lon="0.80966">
        <ele>1316.4</ele>
        <time>2022-05-23 05:39:52</time>
      </trkpt>
      <trkpt lat="42.37013" lon="0.80966">
        <ele>1316.6</ele>
        <time>2022-05-23 05:39:53</time>
      </trkpt>
      <trkpt lat="42.37012" lon="0.80966">
        <ele>1316.8</ele>
        <time>2022-05-23 05:39:54</time>
      </trkpt>
      <trkpt lat="42.3701" lon="0.80967">
        <ele>1317</ele>
        <time>2022-05-23 05:39:55</time>
      </trkpt>
      <trkpt lat="42.37008" lon="0.80969">
        <ele>1317.2</ele>
        <time>2022-05-23 05:39:56</time>
      </trkpt>
      <trkpt lat="42.37007" lon="0.8097">
        <ele>1317.2</ele>
        <time>2022-05-23 05:39:57</time>
      </trkpt>
      <trkpt lat="42.37005" lon="0.80971">
        <ele>1317.4</ele>
        <time>2022-05-23 05:39:58</time>
      </trkpt>
      <trkpt lat="42.37003" lon="0.80972">
        <ele>1317.6</ele>
        <time>2022-05-23 05:39:59</time>
      </trkpt>
      <trkpt lat="42.37002" lon="0.80973">
        <ele>1317.6</ele>
        <time>2022-05-23 05:40:00</time>
      </trkpt>
      <trkpt lat="42.37001" lon="0.80974">
        <ele>1317.8</ele>
        <time>2022-05-23 05:40:01</time>
      </trkpt>
      <trkpt lat="42.36993" lon="0.8098">
        <ele>1318</ele>
        <time>2022-05-23 05:40:02</time>
      </trkpt>
      <trkpt lat="42.36993" lon="0.80981">
        <ele>1318</ele>
        <time>2022-05-23 05:40:03</time>
      </trkpt>
      <trkpt lat="42.36991" lon="0.80982">
        <ele>1318</ele>
        <time>2022-05-23 05:40:04</time>
      </trkpt>
      <trkpt lat="42.3699" lon="0.80983">
        <ele>1318</ele>
        <time>2022-05-23 05:40:05</time>
      </trkpt>
      <trkpt lat="42.36989" lon="0.80984">
        <ele>1318</ele>
        <time>2022-05-23 05:40:06</time>
      </trkpt>
      <trkpt lat="42.36987" lon="0.80985">
        <ele>1318</ele>
        <time>2022-05-23 05:40:07</time>
      </trkpt>
      <trkpt lat="42.36985" lon="0.80986">
        <ele>1317.8</ele>
        <time>2022-05-23 05:40:08</time>
      </trkpt>
      <trkpt lat="42.36983" lon="0.80987">
        <ele>1317.8</ele>
        <time>2022-05-23 05:40:09</time>
      </trkpt>
      <trkpt lat="42.36981" lon="0.80989">
        <ele>1317.6</ele>
        <time>2022-05-23 05:40:10</time>
      </trkpt>
      <trkpt lat="42.36977" lon="0.80991">
        <ele>1317.4</ele>
        <time>2022-05-23 05:40:11</time>
      </trkpt>
      <trkpt lat="42.36974" lon="0.80992">
        <ele>1317.2</ele>
        <time>2022-05-23 05:40:12</time>
      </trkpt>
      <trkpt lat="42.3697" lon="0.80993">
        <ele>1317</ele>
        <time>2022-05-23 05:40:13</time>
      </trkpt>
      <trkpt lat="42.36965" lon="0.80994">
        <ele>1316.6</ele>
        <time>2022-05-23 05:40:14</time>
      </trkpt>
      <trkpt lat="42.3696" lon="0.80994">
        <ele>1316.4</ele>
        <time>2022-05-23 05:40:15</time>
      </trkpt>
      <trkpt lat="42.36954" lon="0.80994">
        <ele>1316</ele>
        <time>2022-05-23 05:40:16</time>
      </trkpt>
      <trkpt lat="42.36948" lon="0.80993">
        <ele>1315.6</ele>
        <time>2022-05-23 05:40:17</time>
      </trkpt>
      <trkpt lat="42.36942" lon="0.80993">
        <ele>1315.2</ele>
        <time>2022-05-23 05:40:18</time>
      </trkpt>
      <trkpt lat="42.36935" lon="0.80992">
        <ele>1314.8</ele>
        <time>2022-05-23 05:40:19</time>
      </trkpt>
      <trkpt lat="42.36928" lon="0.80992">
        <ele>1314.2</ele>
        <time>2022-05-23 05:40:20</time>
      </trkpt>
      <trkpt lat="42.36921" lon="0.80992">
        <ele>1313.8</ele>
        <time>2022-05-23 05:40:21</time>
      </trkpt>
      <trkpt lat="42.36913" lon="0.80992">
        <ele>1313.2</ele>
        <time>2022-05-23 05:40:22</time>
      </trkpt>
      <trkpt lat="42.36905" lon="0.80991">
        <ele>1312.8</ele>
        <time>2022-05-23 05:40:23</time>
      </trkpt>
      <trkpt lat="42.36897" lon="0.8099">
        <ele>1312.2</ele>
        <time>2022-05-23 05:40:24</time>
      </trkpt>
      <trkpt lat="42.36889" lon="0.80989">
        <ele>1311.6</ele>
        <time>2022-05-23 05:40:25</time>
      </trkpt>
      <trkpt lat="42.3688" lon="0.80988">
        <ele>1310.8</ele>
        <time>2022-05-23 05:47:15</time>
      </trkpt>
      <trkpt lat="42.36871" lon="0.80987">
        <ele>1310.2</ele>
        <time>2022-05-23 05:47:16</time>
      </trkpt>
      <trkpt lat="42.36862" lon="0.80987">
        <ele>1309.6</ele>
        <time>2022-05-23 05:47:17</time>
      </trkpt>
      <trkpt lat="42.36852" lon="0.80987">
        <ele>1309</ele>
        <time>2022-05-23 05:47:18</time>
      </trkpt>
      <trkpt lat="42.36843" lon="0.80988">
        <ele>1308.4</ele>
        <time>2022-05-23 05:47:19</time>
      </trkpt>
      <trkpt lat="42.36833" lon="0.8099">
        <ele>1307.8</ele>
        <time>2022-05-23 05:47:20</time>
      </trkpt>
      <trkpt lat="42.36824" lon="0.80994">
        <ele>1307.2</ele>
        <time>2022-05-23 05:47:21</time>
      </trkpt>
      <trkpt lat="42.36815" lon="0.80998">
        <ele>1306.6</ele>
        <time>2022-05-23 05:47:22</time>
      </trkpt>
      <trkpt lat="42.36807" lon="0.81003">
        <ele>1306.2</ele>
        <time>2022-05-23 05:47:23</time>
      </trkpt>
      <trkpt lat="42.36797" lon="0.81009">
        <ele>1305.8</ele>
        <time>2022-05-23 05:47:24</time>
      </trkpt>
      <trkpt lat="42.36788" lon="0.81015">
        <ele>1305.4</ele>
        <time>2022-05-23 05:47:25</time>
      </trkpt>
      <trkpt lat="42.36779" lon="0.8102">
        <ele>1305</ele>
        <time>2022-05-23 05:47:26</time>
      </trkpt>
      <trkpt lat="42.36771" lon="0.81023">
        <ele>1304.8</ele>
        <time>2022-05-23 05:47:27</time>
      </trkpt>
      <trkpt lat="42.36762" lon="0.81024">
        <ele>1304.6</ele>
        <time>2022-05-23 05:47:28</time>
      </trkpt>
      <trkpt lat="42.36753" lon="0.81023">
        <ele>1304.4</ele>
        <time>2022-05-23 05:47:29</time>
      </trkpt>
      <trkpt lat="42.36746" lon="0.8102">
        <ele>1304.2</ele>
        <time>2022-05-23 05:47:30</time>
      </trkpt>
      <trkpt lat="42.36739" lon="0.81015">
        <ele>1304</ele>
        <time>2022-05-23 05:47:31</time>
      </trkpt>
      <trkpt lat="42.36732" lon="0.81009">
        <ele>1303.8</ele>
        <time>2022-05-23 05:47:32</time>
      </trkpt>
      <trkpt lat="42.36726" lon="0.81002">
        <ele>1303.6</ele>
        <time>2022-05-23 05:47:33</time>
      </trkpt>
      <trkpt lat="42.3672" lon="0.80996">
        <ele>1303.4</ele>
        <time>2022-05-23 05:47:34</time>
      </trkpt>
      <trkpt lat="42.36712" lon="0.80992">
        <ele>1303.2</ele>
        <time>2022-05-23 05:47:35</time>
      </trkpt>
      <trkpt lat="42.36704" lon="0.80991">
        <ele>1302.8</ele>
        <time>2022-05-23 05:47:36</time>
      </trkpt>
      <trkpt lat="42.36695" lon="0.80992">
        <ele>1302.6</ele>
        <time>2022-05-23 05:47:37</time>
      </trkpt>
      <trkpt lat="42.36687" lon="0.80998">
        <ele>1302.2</ele>
        <time>2022-05-23 05:47:38</time>
      </trkpt>
      <trkpt lat="42.36681" lon="0.81004">
        <ele>1302</ele>
        <time>2022-05-23 05:47:39</time>
      </trkpt>
      <trkpt lat="42.36677" lon="0.81013">
        <ele>1301.6</ele>
        <time>2022-05-23 05:47:40</time>
      </trkpt>
      <trkpt lat="42.36673" lon="0.81024">
        <ele>1301.2</ele>
        <time>2022-05-23 05:47:41</time>
      </trkpt>
      <trkpt lat="42.3667" lon="0.81036">
        <ele>1300.8</ele>
        <time>2022-05-23 05:47:42</time>
      </trkpt>
      <trkpt lat="42.36667" lon="0.81048">
        <ele>1300.2</ele>
        <time>2022-05-23 05:47:43</time>
      </trkpt>
      <trkpt lat="42.36664" lon="0.8106">
        <ele>1299.8</ele>
        <time>2022-05-23 05:47:44</time>
      </trkpt>
      <trkpt lat="42.3666" lon="0.81072">
        <ele>1299.2</ele>
        <time>2022-05-23 05:47:45</time>
      </trkpt>
      <trkpt lat="42.36656" lon="0.81083">
        <ele>1298.6</ele>
        <time>2022-05-23 05:47:46</time>
      </trkpt>
      <trkpt lat="42.36651" lon="0.81095">
        <ele>1298</ele>
        <time>2022-05-23 05:47:47</time>
      </trkpt>
      <trkpt lat="42.36647" lon="0.81107">
        <ele>1297.4</ele>
        <time>2022-05-23 05:47:48</time>
      </trkpt>
      <trkpt lat="42.36644" lon="0.8112">
        <ele>1296.8</ele>
        <time>2022-05-23 05:47:49</time>
      </trkpt>
      <trkpt lat="42.36641" lon="0.81131">
        <ele>1296.2</ele>
        <time>2022-05-23 05:47:50</time>
      </trkpt>
      <trkpt lat="42.36637" lon="0.81143">
        <ele>1295.8</ele>
        <time>2022-05-23 05:47:51</time>
      </trkpt>
      <trkpt lat="42.36631" lon="0.81155">
        <ele>1295.2</ele>
        <time>2022-05-23 05:47:52</time>
      </trkpt>
      <trkpt lat="42.36625" lon="0.81164">
        <ele>1294.6</ele>
        <time>2022-05-23 05:47:53</time>
      </trkpt>
      <trkpt lat="42.36617" lon="0.81172">
        <ele>1294.2</ele>
        <time>2022-05-23 05:47:54</time>
      </trkpt>
      <trkpt lat="42.36608" lon="0.81178">
        <ele>1293.6</ele>
        <time>2022-05-23 05:47:55</time>
      </trkpt>
      <trkpt lat="42.36599" lon="0.81185">
        <ele>1293</ele>
        <time>2022-05-23 05:47:56</time>
      </trkpt>
      <trkpt lat="42.3659" lon="0.81192">
        <ele>1292.4</ele>
        <time>2022-05-23 05:47:57</time>
      </trkpt>
      <trkpt lat="42.36581" lon="0.81201">
        <ele>1291.6</ele>
        <time>2022-05-23 05:47:58</time>
      </trkpt>
      <trkpt lat="42.36573" lon="0.8121">
        <ele>1291</ele>
        <time>2022-05-23 05:47:59</time>
      </trkpt>
      <trkpt lat="42.36565" lon="0.8122">
        <ele>1290.4</ele>
        <time>2022-05-23 05:48:00</time>
      </trkpt>
      <trkpt lat="42.36557" lon="0.81229">
        <ele>1289.8</ele>
        <time>2022-05-23 05:48:01</time>
      </trkpt>
      <trkpt lat="42.36548" lon="0.81238">
        <ele>1289</ele>
        <time>2022-05-23 05:48:02</time>
      </trkpt>
      <trkpt lat="42.3654" lon="0.81244">
        <ele>1288.4</ele>
        <time>2022-05-23 05:48:03</time>
      </trkpt>
      <trkpt lat="42.3653" lon="0.8125">
        <ele>1288</ele>
        <time>2022-05-23 05:48:04</time>
      </trkpt>
      <trkpt lat="42.36519" lon="0.81253">
        <ele>1287.4</ele>
        <time>2022-05-23 05:48:05</time>
      </trkpt>
      <trkpt lat="42.36509" lon="0.81256">
        <ele>1287</ele>
        <time>2022-05-23 05:48:06</time>
      </trkpt>
      <trkpt lat="42.36498" lon="0.81259">
        <ele>1286.8</ele>
        <time>2022-05-23 05:48:07</time>
      </trkpt>
      <trkpt lat="42.36489" lon="0.81261">
        <ele>1286.4</ele>
        <time>2022-05-23 05:48:08</time>
      </trkpt>
      <trkpt lat="42.36479" lon="0.81264">
        <ele>1286.2</ele>
        <time>2022-05-23 05:48:09</time>
      </trkpt>
      <trkpt lat="42.36469" lon="0.81267">
        <ele>1285.8</ele>
        <time>2022-05-23 05:48:10</time>
      </trkpt>
      <trkpt lat="42.3646" lon="0.81271">
        <ele>1285.6</ele>
        <time>2022-05-23 05:48:11</time>
      </trkpt>
      <trkpt lat="42.36451" lon="0.81276">
        <ele>1285.2</ele>
        <time>2022-05-23 05:48:12</time>
      </trkpt>
      <trkpt lat="42.36441" lon="0.81281">
        <ele>1285</ele>
        <time>2022-05-23 05:48:13</time>
      </trkpt>
      <trkpt lat="42.36432" lon="0.81287">
        <ele>1284.8</ele>
        <time>2022-05-23 05:48:14</time>
      </trkpt>
      <trkpt lat="42.36423" lon="0.81293">
        <ele>1284.4</ele>
        <time>2022-05-23 05:48:15</time>
      </trkpt>
      <trkpt lat="42.36415" lon="0.813">
        <ele>1284.2</ele>
        <time>2022-05-23 05:48:16</time>
      </trkpt>
      <trkpt lat="42.36406" lon="0.81306">
        <ele>1283.8</ele>
        <time>2022-05-23 05:48:17</time>
      </trkpt>
      <trkpt lat="42.36399" lon="0.81314">
        <ele>1283.6</ele>
        <time>2022-05-23 05:48:18</time>
      </trkpt>
      <trkpt lat="42.36392" lon="0.81323">
        <ele>1283.4</ele>
        <time>2022-05-23 05:48:19</time>
      </trkpt>
      <trkpt lat="42.36386" lon="0.81333">
        <ele>1283.2</ele>
        <time>2022-05-23 05:48:20</time>
      </trkpt>
      <trkpt lat="42.36381" lon="0.81343">
        <ele>1283</ele>
        <time>2022-05-23 05:48:21</time>
      </trkpt>
      <trkpt lat="42.36377" lon="0.81353">
        <ele>1282.8</ele>
        <time>2022-05-23 05:48:22</time>
      </trkpt>
      <trkpt lat="42.36373" lon="0.81364">
        <ele>1282.6</ele>
        <time>2022-05-23 05:48:23</time>
      </trkpt>
      <trkpt lat="42.36369" lon="0.81374">
        <ele>1282.6</ele>
        <time>2022-05-23 05:48:24</time>
      </trkpt>
      <trkpt lat="42.36366" lon="0.81384">
        <ele>1282.4</ele>
        <time>2022-05-23 05:48:25</time>
      </trkpt>
      <trkpt lat="42.36363" lon="0.81395">
        <ele>1282.4</ele>
        <time>2022-05-23 05:48:26</time>
      </trkpt>
      <trkpt lat="42.36361" lon="0.81405">
        <ele>1282.2</ele>
        <time>2022-05-23 05:48:27</time>
      </trkpt>
      <trkpt lat="42.36359" lon="0.81415">
        <ele>1282.2</ele>
        <time>2022-05-23 05:48:28</time>
      </trkpt>
      <trkpt lat="42.36359" lon="0.81426">
        <ele>1282.2</ele>
        <time>2022-05-23 05:48:29</time>
      </trkpt>
      <trkpt lat="42.36358" lon="0.81437">
        <ele>1282</ele>
        <time>2022-05-23 05:48:30</time>
      </trkpt>
      <trkpt lat="42.36358" lon="0.81446">
        <ele>1282</ele>
        <time>2022-05-23 05:48:31</time>
      </trkpt>
      <trkpt lat="42.36358" lon="0.81457">
        <ele>1282</ele>
        <time>2022-05-23 05:48:32</time>
      </trkpt>
      <trkpt lat="42.36359" lon="0.81466">
        <ele>1281.8</ele>
        <time>2022-05-23 05:48:33</time>
      </trkpt>
      <trkpt lat="42.36359" lon="0.81476">
        <ele>1281.8</ele>
        <time>2022-05-23 05:48:34</time>
      </trkpt>
      <trkpt lat="42.3636" lon="0.81485">
        <ele>1281.6</ele>
        <time>2022-05-23 05:48:35</time>
      </trkpt>
      <trkpt lat="42.3636" lon="0.81495">
        <ele>1281.6</ele>
        <time>2022-05-23 05:48:36</time>
      </trkpt>
      <trkpt lat="42.36359" lon="0.81504">
        <ele>1281.6</ele>
        <time>2022-05-23 05:48:37</time>
      </trkpt>
      <trkpt lat="42.36356" lon="0.81512">
        <ele>1281.6</ele>
        <time>2022-05-23 05:48:38</time>
      </trkpt>
      <trkpt lat="42.36352" lon="0.8152">
        <ele>1281.6</ele>
        <time>2022-05-23 05:48:39</time>
      </trkpt>
      <trkpt lat="42.36348" lon="0.81526">
        <ele>1281.6</ele>
        <time>2022-05-23 05:48:40</time>
      </trkpt>
      <trkpt lat="42.36343" lon="0.81533">
        <ele>1281.6</ele>
        <time>2022-05-23 05:48:41</time>
      </trkpt>
      <trkpt lat="42.36339" lon="0.8154">
        <ele>1281.6</ele>
        <time>2022-05-23 05:48:42</time>
      </trkpt>
      <trkpt lat="42.36335" lon="0.81546">
        <ele>1281.6</ele>
        <time>2022-05-23 05:48:43</time>
      </trkpt>
      <trkpt lat="42.36332" lon="0.81553">
        <ele>1281.6</ele>
        <time>2022-05-23 05:48:44</time>
      </trkpt>
      <trkpt lat="42.3633" lon="0.81561">
        <ele>1281.6</ele>
        <time>2022-05-23 05:48:45</time>
      </trkpt>
      <trkpt lat="42.36328" lon="0.81569">
        <ele>1281.4</ele>
        <time>2022-05-23 05:48:46</time>
      </trkpt>
      <trkpt lat="42.36328" lon="0.81577">
        <ele>1281.4</ele>
        <time>2022-05-23 05:48:47</time>
      </trkpt>
      <trkpt lat="42.36327" lon="0.81586">
        <ele>1281.4</ele>
        <time>2022-05-23 05:48:48</time>
      </trkpt>
      <trkpt lat="42.36326" lon="0.81595">
        <ele>1281.2</ele>
        <time>2022-05-23 05:48:49</time>
      </trkpt>
      <trkpt lat="42.36325" lon="0.81603">
        <ele>1281.2</ele>
        <time>2022-05-23 05:48:50</time>
      </trkpt>
      <trkpt lat="42.36324" lon="0.81611">
        <ele>1281</ele>
        <time>2022-05-23 05:48:51</time>
      </trkpt>
      <trkpt lat="42.36322" lon="0.81619">
        <ele>1281</ele>
        <time>2022-05-23 05:48:52</time>
      </trkpt>
      <trkpt lat="42.3632" lon="0.81627">
        <ele>1280.8</ele>
        <time>2022-05-23 05:48:53</time>
      </trkpt>
      <trkpt lat="42.36317" lon="0.81633">
        <ele>1280.8</ele>
        <time>2022-05-23 05:48:54</time>
      </trkpt>
      <trkpt lat="42.36313" lon="0.81639">
        <ele>1280.8</ele>
        <time>2022-05-23 05:48:55</time>
      </trkpt>
      <trkpt lat="42.36308" lon="0.81644">
        <ele>1280.8</ele>
        <time>2022-05-23 05:48:56</time>
      </trkpt>
      <trkpt lat="42.36303" lon="0.81649">
        <ele>1280.8</ele>
        <time>2022-05-23 05:48:57</time>
      </trkpt>
      <trkpt lat="42.36298" lon="0.81652">
        <ele>1280.8</ele>
        <time>2022-05-23 05:48:58</time>
      </trkpt>
      <trkpt lat="42.36293" lon="0.81656">
        <ele>1280.8</ele>
        <time>2022-05-23 05:48:59</time>
      </trkpt>
      <trkpt lat="42.36288" lon="0.8166">
        <ele>1280.6</ele>
        <time>2022-05-23 05:49:00</time>
      </trkpt>
      <trkpt lat="42.36283" lon="0.81663">
        <ele>1280.6</ele>
        <time>2022-05-23 05:49:01</time>
      </trkpt>
      <trkpt lat="42.36278" lon="0.81667">
        <ele>1280.6</ele>
        <time>2022-05-23 05:49:02</time>
      </trkpt>
      <trkpt lat="42.36273" lon="0.8167">
        <ele>1280.6</ele>
        <time>2022-05-23 05:49:03</time>
      </trkpt>
      <trkpt lat="42.36267" lon="0.81674">
        <ele>1280.6</ele>
        <time>2022-05-23 05:49:04</time>
      </trkpt>
      <trkpt lat="42.36262" lon="0.81676">
        <ele>1280.4</ele>
        <time>2022-05-23 05:49:05</time>
      </trkpt>
      <trkpt lat="42.36256" lon="0.8168">
        <ele>1280.4</ele>
        <time>2022-05-23 05:49:06</time>
      </trkpt>
      <trkpt lat="42.36251" lon="0.81682">
        <ele>1280.4</ele>
        <time>2022-05-23 05:49:07</time>
      </trkpt>
      <trkpt lat="42.36245" lon="0.81686">
        <ele>1280.4</ele>
        <time>2022-05-23 05:49:08</time>
      </trkpt>
      <trkpt lat="42.36239" lon="0.8169">
        <ele>1280.4</ele>
        <time>2022-05-23 05:49:09</time>
      </trkpt>
      <trkpt lat="42.36234" lon="0.81693">
        <ele>1280.2</ele>
        <time>2022-05-23 05:49:10</time>
      </trkpt>
      <trkpt lat="42.36228" lon="0.81696">
        <ele>1280.2</ele>
        <time>2022-05-23 05:49:11</time>
      </trkpt>
      <trkpt lat="42.36223" lon="0.817">
        <ele>1280.2</ele>
        <time>2022-05-23 05:49:12</time>
      </trkpt>
      <trkpt lat="42.36218" lon="0.81704">
        <ele>1280.2</ele>
        <time>2022-05-23 05:49:13</time>
      </trkpt>
      <trkpt lat="42.36213" lon="0.81708">
        <ele>1280.2</ele>
        <time>2022-05-23 05:49:14</time>
      </trkpt>
      <trkpt lat="42.36208" lon="0.81713">
        <ele>1280</ele>
        <time>2022-05-23 05:49:15</time>
      </trkpt>
      <trkpt lat="42.36203" lon="0.81717">
        <ele>1280</ele>
        <time>2022-05-23 05:49:16</time>
      </trkpt>
      <trkpt lat="42.36198" lon="0.81722">
        <ele>1280</ele>
        <time>2022-05-23 05:49:17</time>
      </trkpt>
      <trkpt lat="42.36193" lon="0.81727">
        <ele>1280</ele>
        <time>2022-05-23 05:49:18</time>
      </trkpt>
      <trkpt lat="42.36189" lon="0.81733">
        <ele>1280</ele>
        <time>2022-05-23 05:49:19</time>
      </trkpt>
      <trkpt lat="42.36184" lon="0.81738">
        <ele>1279.8</ele>
        <time>2022-05-23 05:49:20</time>
      </trkpt>
      <trkpt lat="42.36179" lon="0.81742">
        <ele>1279.8</ele>
        <time>2022-05-23 05:49:21</time>
      </trkpt>
      <trkpt lat="42.36174" lon="0.81746">
        <ele>1279.6</ele>
        <time>2022-05-23 05:49:22</time>
      </trkpt>
      <trkpt lat="42.36168" lon="0.81748">
        <ele>1279.6</ele>
        <time>2022-05-23 05:49:23</time>
      </trkpt>
      <trkpt lat="42.36162" lon="0.81751">
        <ele>1279.6</ele>
        <time>2022-05-23 05:49:24</time>
      </trkpt>
      <trkpt lat="42.36156" lon="0.81752">
        <ele>1279.4</ele>
        <time>2022-05-23 05:49:25</time>
      </trkpt>
      <trkpt lat="42.3615" lon="0.81753">
        <ele>1279.4</ele>
        <time>2022-05-23 05:49:26</time>
      </trkpt>
      <trkpt lat="42.36144" lon="0.81753">
        <ele>1279.4</ele>
        <time>2022-05-23 05:49:27</time>
      </trkpt>
      <trkpt lat="42.36138" lon="0.81754">
        <ele>1279.4</ele>
        <time>2022-05-23 05:49:28</time>
      </trkpt>
      <trkpt lat="42.36133" lon="0.81754">
        <ele>1279.4</ele>
        <time>2022-05-23 05:49:29</time>
      </trkpt>
      <trkpt lat="42.36127" lon="0.81755">
        <ele>1279.4</ele>
        <time>2022-05-23 05:49:30</time>
      </trkpt>
      <trkpt lat="42.36121" lon="0.81755">
        <ele>1279.4</ele>
        <time>2022-05-23 05:49:31</time>
      </trkpt>
      <trkpt lat="42.36116" lon="0.81756">
        <ele>1279.2</ele>
        <time>2022-05-23 05:49:32</time>
      </trkpt>
      <trkpt lat="42.3611" lon="0.81756">
        <ele>1279.2</ele>
        <time>2022-05-23 05:49:33</time>
      </trkpt>
      <trkpt lat="42.36105" lon="0.81756">
        <ele>1279.2</ele>
        <time>2022-05-23 05:49:34</time>
      </trkpt>
      <trkpt lat="42.361" lon="0.81756">
        <ele>1279.2</ele>
        <time>2022-05-23 05:49:35</time>
      </trkpt>
      <trkpt lat="42.36095" lon="0.81756">
        <ele>1279.2</ele>
        <time>2022-05-23 05:49:36</time>
      </trkpt>
      <trkpt lat="42.3609" lon="0.81757">
        <ele>1279</ele>
        <time>2022-05-23 05:49:37</time>
      </trkpt>
      <trkpt lat="42.36084" lon="0.81757">
        <ele>1279</ele>
        <time>2022-05-23 05:49:38</time>
      </trkpt>
      <trkpt lat="42.36079" lon="0.81758">
        <ele>1279</ele>
        <time>2022-05-23 05:49:39</time>
      </trkpt>
      <trkpt lat="42.36074" lon="0.81758">
        <ele>1279</ele>
        <time>2022-05-23 05:49:40</time>
      </trkpt>
      <trkpt lat="42.36068" lon="0.81759">
        <ele>1279</ele>
        <time>2022-05-23 05:49:41</time>
      </trkpt>
      <trkpt lat="42.36064" lon="0.81761">
        <ele>1279</ele>
        <time>2022-05-23 05:49:42</time>
      </trkpt>
      <trkpt lat="42.36059" lon="0.81763">
        <ele>1278.8</ele>
        <time>2022-05-23 05:49:43</time>
      </trkpt>
      <trkpt lat="42.36054" lon="0.81765">
        <ele>1278.8</ele>
        <time>2022-05-23 05:49:44</time>
      </trkpt>
      <trkpt lat="42.36049" lon="0.81767">
        <ele>1278.8</ele>
        <time>2022-05-23 05:49:45</time>
      </trkpt>
      <trkpt lat="42.36044" lon="0.81771">
        <ele>1278.8</ele>
        <time>2022-05-23 05:49:46</time>
      </trkpt>
      <trkpt lat="42.36039" lon="0.81775">
        <ele>1278.6</ele>
        <time>2022-05-23 05:49:47</time>
      </trkpt>
      <trkpt lat="42.36034" lon="0.81778">
        <ele>1278.6</ele>
        <time>2022-05-23 05:49:48</time>
      </trkpt>
      <trkpt lat="42.36029" lon="0.81781">
        <ele>1278.6</ele>
        <time>2022-05-23 05:49:49</time>
      </trkpt>
      <trkpt lat="42.36024" lon="0.81785">
        <ele>1278.6</ele>
        <time>2022-05-23 05:49:50</time>
      </trkpt>
      <trkpt lat="42.36019" lon="0.81788">
        <ele>1278.4</ele>
        <time>2022-05-23 05:49:51</time>
      </trkpt>
      <trkpt lat="42.36014" lon="0.81792">
        <ele>1278.4</ele>
        <time>2022-05-23 05:49:52</time>
      </trkpt>
      <trkpt lat="42.36009" lon="0.81795">
        <ele>1278.4</ele>
        <time>2022-05-23 05:49:53</time>
      </trkpt>
      <trkpt lat="42.36003" lon="0.81797">
        <ele>1278.4</ele>
        <time>2022-05-23 05:49:54</time>
      </trkpt>
      <trkpt lat="42.35998" lon="0.818">
        <ele>1278.4</ele>
        <time>2022-05-23 05:49:55</time>
      </trkpt>
      <trkpt lat="42.35994" lon="0.81802">
        <ele>1278.4</ele>
        <time>2022-05-23 05:49:56</time>
      </trkpt>
      <trkpt lat="42.35989" lon="0.81804">
        <ele>1278.4</ele>
        <time>2022-05-23 05:49:57</time>
      </trkpt>
      <trkpt lat="42.35984" lon="0.81807">
        <ele>1278.2</ele>
        <time>2022-05-23 05:49:58</time>
      </trkpt>
      <trkpt lat="42.3598" lon="0.8181">
        <ele>1278.2</ele>
        <time>2022-05-23 05:49:59</time>
      </trkpt>
      <trkpt lat="42.35975" lon="0.81814">
        <ele>1278.2</ele>
        <time>2022-05-23 05:50:00</time>
      </trkpt>
      <trkpt lat="42.35971" lon="0.81818">
        <ele>1278</ele>
        <time>2022-05-23 05:50:01</time>
      </trkpt>
      <trkpt lat="42.35966" lon="0.81822">
        <ele>1278</ele>
        <time>2022-05-23 05:50:02</time>
      </trkpt>
      <trkpt lat="42.35962" lon="0.81826">
        <ele>1277.8</ele>
        <time>2022-05-23 05:50:03</time>
      </trkpt>
      <trkpt lat="42.35958" lon="0.81831">
        <ele>1277.8</ele>
        <time>2022-05-23 05:50:04</time>
      </trkpt>
      <trkpt lat="42.35954" lon="0.81835">
        <ele>1277.8</ele>
        <time>2022-05-23 05:50:05</time>
      </trkpt>
      <trkpt lat="42.3595" lon="0.81839">
        <ele>1277.8</ele>
        <time>2022-05-23 05:50:06</time>
      </trkpt>
      <trkpt lat="42.35946" lon="0.81844">
        <ele>1277.6</ele>
        <time>2022-05-23 05:50:07</time>
      </trkpt>
      <trkpt lat="42.35942" lon="0.81848">
        <ele>1277.6</ele>
        <time>2022-05-23 05:50:08</time>
      </trkpt>
      <trkpt lat="42.35938" lon="0.81852">
        <ele>1277.6</ele>
        <time>2022-05-23 05:50:09</time>
      </trkpt>
      <trkpt lat="42.35933" lon="0.81856">
        <ele>1277.6</ele>
        <time>2022-05-23 05:50:10</time>
      </trkpt>
      <trkpt lat="42.35929" lon="0.81859">
        <ele>1277.6</ele>
        <time>2022-05-23 05:50:11</time>
      </trkpt>
      <trkpt lat="42.35924" lon="0.81863">
        <ele>1277.4</ele>
        <time>2022-05-23 05:50:12</time>
      </trkpt>
      <trkpt lat="42.3592" lon="0.81866">
        <ele>1277.4</ele>
        <time>2022-05-23 05:50:13</time>
      </trkpt>
      <trkpt lat="42.35915" lon="0.81868">
        <ele>1277.4</ele>
        <time>2022-05-23 05:50:14</time>
      </trkpt>
      <trkpt lat="42.35909" lon="0.8187">
        <ele>1277.2</ele>
        <time>2022-05-23 05:50:15</time>
      </trkpt>
      <trkpt lat="42.35904" lon="0.81872">
        <ele>1277.2</ele>
        <time>2022-05-23 05:50:16</time>
      </trkpt>
      <trkpt lat="42.35899" lon="0.81873">
        <ele>1277.2</ele>
        <time>2022-05-23 05:50:17</time>
      </trkpt>
      <trkpt lat="42.35894" lon="0.81875">
        <ele>1277.2</ele>
        <time>2022-05-23 05:50:18</time>
      </trkpt>
      <trkpt lat="42.35889" lon="0.81877">
        <ele>1277.2</ele>
        <time>2022-05-23 05:50:19</time>
      </trkpt>
      <trkpt lat="42.35884" lon="0.81879">
        <ele>1277.2</ele>
        <time>2022-05-23 05:50:20</time>
      </trkpt>
      <trkpt lat="42.35879" lon="0.81881">
        <ele>1277.2</ele>
        <time>2022-05-23 05:50:21</time>
      </trkpt>
      <trkpt lat="42.35874" lon="0.81884">
        <ele>1277</ele>
        <time>2022-05-23 05:50:22</time>
      </trkpt>
      <trkpt lat="42.3587" lon="0.81888">
        <ele>1277</ele>
        <time>2022-05-23 05:50:23</time>
      </trkpt>
      <trkpt lat="42.35866" lon="0.81892">
        <ele>1277</ele>
        <time>2022-05-23 05:50:24</time>
      </trkpt>
      <trkpt lat="42.35862" lon="0.81896">
        <ele>1277</ele>
        <time>2022-05-23 05:50:25</time>
      </trkpt>
      <trkpt lat="42.35858" lon="0.81901">
        <ele>1277.2</ele>
        <time>2022-05-23 05:50:26</time>
      </trkpt>
      <trkpt lat="42.35855" lon="0.81906">
        <ele>1277.2</ele>
        <time>2022-05-23 05:50:27</time>
      </trkpt>
      <trkpt lat="42.35852" lon="0.81911">
        <ele>1277.2</ele>
        <time>2022-05-23 05:50:28</time>
      </trkpt>
      <trkpt lat="42.3585" lon="0.81917">
        <ele>1277.2</ele>
        <time>2022-05-23 05:50:29</time>
      </trkpt>
      <trkpt lat="42.35847" lon="0.81922">
        <ele>1277</ele>
        <time>2022-05-23 05:50:30</time>
      </trkpt>
      <trkpt lat="42.35845" lon="0.81928">
        <ele>1277</ele>
        <time>2022-05-23 05:50:31</time>
      </trkpt>
      <trkpt lat="42.35842" lon="0.81934">
        <ele>1277</ele>
        <time>2022-05-23 05:50:32</time>
      </trkpt>
      <trkpt lat="42.3584" lon="0.8194">
        <ele>1277</ele>
        <time>2022-05-23 05:50:33</time>
      </trkpt>
      <trkpt lat="42.35838" lon="0.81946">
        <ele>1277</ele>
        <time>2022-05-23 05:50:34</time>
      </trkpt>
      <trkpt lat="42.35836" lon="0.81952">
        <ele>1277</ele>
        <time>2022-05-23 05:50:35</time>
      </trkpt>
      <trkpt lat="42.35833" lon="0.81958">
        <ele>1276.8</ele>
        <time>2022-05-23 05:50:36</time>
      </trkpt>
      <trkpt lat="42.35831" lon="0.81964">
        <ele>1276.8</ele>
        <time>2022-05-23 05:50:37</time>
      </trkpt>
      <trkpt lat="42.35828" lon="0.81971">
        <ele>1276.6</ele>
        <time>2022-05-23 05:50:38</time>
      </trkpt>
      <trkpt lat="42.35826" lon="0.81977">
        <ele>1276.4</ele>
        <time>2022-05-23 05:50:39</time>
      </trkpt>
      <trkpt lat="42.35823" lon="0.81984">
        <ele>1276.2</ele>
        <time>2022-05-23 05:50:40</time>
      </trkpt>
      <trkpt lat="42.35821" lon="0.81992">
        <ele>1275.8</ele>
        <time>2022-05-23 05:50:41</time>
      </trkpt>
      <trkpt lat="42.35818" lon="0.81999">
        <ele>1275.6</ele>
        <time>2022-05-23 05:50:42</time>
      </trkpt>
      <trkpt lat="42.35815" lon="0.82007">
        <ele>1275.2</ele>
        <time>2022-05-23 05:50:43</time>
      </trkpt>
      <trkpt lat="42.35811" lon="0.82015">
        <ele>1274.8</ele>
        <time>2022-05-23 05:50:44</time>
      </trkpt>
      <trkpt lat="42.35808" lon="0.82024">
        <ele>1274.2</ele>
        <time>2022-05-23 05:50:45</time>
      </trkpt>
      <trkpt lat="42.35805" lon="0.82033">
        <ele>1273.8</ele>
        <time>2022-05-23 05:50:46</time>
      </trkpt>
      <trkpt lat="42.35802" lon="0.82042">
        <ele>1273.4</ele>
        <time>2022-05-23 05:50:47</time>
      </trkpt>
      <trkpt lat="42.35799" lon="0.82051">
        <ele>1273</ele>
        <time>2022-05-23 05:50:48</time>
      </trkpt>
      <trkpt lat="42.35795" lon="0.82061">
        <ele>1272.6</ele>
        <time>2022-05-23 05:50:49</time>
      </trkpt>
      <trkpt lat="42.35793" lon="0.82071">
        <ele>1272.2</ele>
        <time>2022-05-23 05:50:50</time>
      </trkpt>
      <trkpt lat="42.35791" lon="0.82079">
        <ele>1271.6</ele>
        <time>2022-05-23 05:50:51</time>
      </trkpt>
      <trkpt lat="42.35787" lon="0.82092">
        <ele>1271</ele>
        <time>2022-05-23 05:50:52</time>
      </trkpt>
      <trkpt lat="42.35784" lon="0.82104">
        <ele>1270.6</ele>
        <time>2022-05-23 05:50:53</time>
      </trkpt>
      <trkpt lat="42.3578" lon="0.82115">
        <ele>1270</ele>
        <time>2022-05-23 05:50:54</time>
      </trkpt>
      <trkpt lat="42.35777" lon="0.82127">
        <ele>1269.4</ele>
        <time>2022-05-23 05:50:55</time>
      </trkpt>
      <trkpt lat="42.35773" lon="0.82138">
        <ele>1269</ele>
        <time>2022-05-23 05:50:56</time>
      </trkpt>
      <trkpt lat="42.3577" lon="0.82149">
        <ele>1268.4</ele>
        <time>2022-05-23 05:50:57</time>
      </trkpt>
      <trkpt lat="42.35767" lon="0.82161">
        <ele>1267.8</ele>
        <time>2022-05-23 05:50:58</time>
      </trkpt>
      <trkpt lat="42.35766" lon="0.82174">
        <ele>1267.4</ele>
        <time>2022-05-23 05:50:59</time>
      </trkpt>
      <trkpt lat="42.35767" lon="0.82187">
        <ele>1266.8</ele>
        <time>2022-05-23 05:51:00</time>
      </trkpt>
      <trkpt lat="42.3577" lon="0.82199">
        <ele>1266.4</ele>
        <time>2022-05-23 05:51:01</time>
      </trkpt>
      <trkpt lat="42.35773" lon="0.82211">
        <ele>1265.8</ele>
        <time>2022-05-23 05:51:02</time>
      </trkpt>
      <trkpt lat="42.35778" lon="0.82222">
        <ele>1265.4</ele>
        <time>2022-05-23 05:51:03</time>
      </trkpt>
      <trkpt lat="42.35783" lon="0.82232">
        <ele>1265.2</ele>
        <time>2022-05-23 05:51:04</time>
      </trkpt>
      <trkpt lat="42.35789" lon="0.82242">
        <ele>1264.8</ele>
        <time>2022-05-23 05:51:05</time>
      </trkpt>
      <trkpt lat="42.35794" lon="0.82252">
        <ele>1264.6</ele>
        <time>2022-05-23 05:51:06</time>
      </trkpt>
      <trkpt lat="42.35799" lon="0.82262">
        <ele>1264.6</ele>
        <time>2022-05-23 05:51:07</time>
      </trkpt>
      <trkpt lat="42.35803" lon="0.82272">
        <ele>1264.4</ele>
        <time>2022-05-23 05:51:08</time>
      </trkpt>
      <trkpt lat="42.35807" lon="0.82282">
        <ele>1264.2</ele>
        <time>2022-05-23 05:51:09</time>
      </trkpt>
      <trkpt lat="42.35809" lon="0.82293">
        <ele>1264</ele>
        <time>2022-05-23 05:51:10</time>
      </trkpt>
      <trkpt lat="42.3581" lon="0.82304">
        <ele>1263.8</ele>
        <time>2022-05-23 05:51:11</time>
      </trkpt>
      <trkpt lat="42.35809" lon="0.82314">
        <ele>1263.8</ele>
        <time>2022-05-23 05:51:12</time>
      </trkpt>
      <trkpt lat="42.35806" lon="0.82323">
        <ele>1263.8</ele>
        <time>2022-05-23 05:51:13</time>
      </trkpt>
      <trkpt lat="42.35802" lon="0.82331">
        <ele>1263.8</ele>
        <time>2022-05-23 05:51:14</time>
      </trkpt>
      <trkpt lat="42.35796" lon="0.82337">
        <ele>1263.8</ele>
        <time>2022-05-23 05:51:15</time>
      </trkpt>
      <trkpt lat="42.3579" lon="0.82342">
        <ele>1263.8</ele>
        <time>2022-05-23 05:51:16</time>
      </trkpt>
      <trkpt lat="42.35784" lon="0.82346">
        <ele>1264</ele>
        <time>2022-05-23 05:51:17</time>
      </trkpt>
      <trkpt lat="42.35778" lon="0.8235">
        <ele>1264</ele>
        <time>2022-05-23 05:51:18</time>
      </trkpt>
      <trkpt lat="42.35772" lon="0.82355">
        <ele>1264</ele>
        <time>2022-05-23 05:51:19</time>
      </trkpt>
      <trkpt lat="42.35767" lon="0.82359">
        <ele>1264.2</ele>
        <time>2022-05-23 05:51:20</time>
      </trkpt>
      <trkpt lat="42.35761" lon="0.82363">
        <ele>1264.2</ele>
        <time>2022-05-23 05:51:21</time>
      </trkpt>
      <trkpt lat="42.35756" lon="0.82366">
        <ele>1264.4</ele>
        <time>2022-05-23 05:51:22</time>
      </trkpt>
      <trkpt lat="42.3575" lon="0.82367">
        <ele>1264.6</ele>
        <time>2022-05-23 05:51:23</time>
      </trkpt>
      <trkpt lat="42.35745" lon="0.82368">
        <ele>1264.8</ele>
        <time>2022-05-23 05:51:24</time>
      </trkpt>
      <trkpt lat="42.3574" lon="0.82368">
        <ele>1265</ele>
        <time>2022-05-23 05:51:25</time>
      </trkpt>
      <trkpt lat="42.35735" lon="0.82368">
        <ele>1265.4</ele>
        <time>2022-05-23 05:51:26</time>
      </trkpt>
      <trkpt lat="42.35731" lon="0.82367">
        <ele>1265.6</ele>
        <time>2022-05-23 05:51:27</time>
      </trkpt>
      <trkpt lat="42.35728" lon="0.82366">
        <ele>1266</ele>
        <time>2022-05-23 05:51:28</time>
      </trkpt>
      <trkpt lat="42.35725" lon="0.82366">
        <ele>1266.4</ele>
        <time>2022-05-23 05:51:29</time>
      </trkpt>
      <trkpt lat="42.35722" lon="0.82365">
        <ele>1266.6</ele>
        <time>2022-05-23 05:51:30</time>
      </trkpt>
      <trkpt lat="42.3572" lon="0.82365">
        <ele>1267</ele>
        <time>2022-05-23 05:51:31</time>
      </trkpt>
      <trkpt lat="42.35718" lon="0.82365">
        <ele>1267.2</ele>
        <time>2022-05-23 05:51:32</time>
      </trkpt>
      <trkpt lat="42.35717" lon="0.82365">
        <ele>1267.4</ele>
        <time>2022-05-23 05:51:33</time>
      </trkpt>
      <trkpt lat="42.35715" lon="0.82365">
        <ele>1267.6</ele>
        <time>2022-05-23 05:51:34</time>
      </trkpt>
      <trkpt lat="42.35713" lon="0.82365">
        <ele>1267.8</ele>
        <time>2022-05-23 05:51:35</time>
      </trkpt>
      <trkpt lat="42.35712" lon="0.82365">
        <ele>1268</ele>
        <time>2022-05-23 05:51:36</time>
      </trkpt>
      <trkpt lat="42.3571" lon="0.82366">
        <ele>1268</ele>
        <time>2022-05-23 05:51:37</time>
      </trkpt>
      <trkpt lat="42.35709" lon="0.82366">
        <ele>1268.2</ele>
        <time>2022-05-23 05:51:38</time>
      </trkpt>
      <trkpt lat="42.35707" lon="0.82367">
        <ele>1268.2</ele>
        <time>2022-05-23 05:51:39</time>
      </trkpt>
      <trkpt lat="42.35706" lon="0.82368">
        <ele>1268.2</ele>
        <time>2022-05-23 05:51:40</time>
      </trkpt>
      <trkpt lat="42.35704" lon="0.82369">
        <ele>1268.4</ele>
        <time>2022-05-23 05:51:41</time>
      </trkpt>
      <trkpt lat="42.35702" lon="0.82369">
        <ele>1268.4</ele>
        <time>2022-05-23 05:51:42</time>
      </trkpt>
      <trkpt lat="42.357" lon="0.82369">
        <ele>1268.6</ele>
        <time>2022-05-23 05:51:43</time>
      </trkpt>
      <trkpt lat="42.35698" lon="0.8237">
        <ele>1268.6</ele>
        <time>2022-05-23 05:51:44</time>
      </trkpt>
      <trkpt lat="42.35696" lon="0.8237">
        <ele>1268.8</ele>
        <time>2022-05-23 05:51:45</time>
      </trkpt>
      <trkpt lat="42.35694" lon="0.8237">
        <ele>1268.8</ele>
        <time>2022-05-23 05:51:46</time>
      </trkpt>
      <trkpt lat="42.35691" lon="0.82371">
        <ele>1268.8</ele>
        <time>2022-05-23 05:51:47</time>
      </trkpt>
      <trkpt lat="42.35689" lon="0.82371">
        <ele>1269</ele>
        <time>2022-05-23 05:51:48</time>
      </trkpt>
      <trkpt lat="42.35687" lon="0.82372">
        <ele>1269</ele>
        <time>2022-05-23 05:51:49</time>
      </trkpt>
      <trkpt lat="42.35685" lon="0.82373">
        <ele>1269.2</ele>
        <time>2022-05-23 05:51:50</time>
      </trkpt>
      <trkpt lat="42.35683" lon="0.82373">
        <ele>1269.2</ele>
        <time>2022-05-23 05:51:51</time>
      </trkpt>
      <trkpt lat="42.35681" lon="0.82374">
        <ele>1269.4</ele>
        <time>2022-05-23 05:51:52</time>
      </trkpt>
      <trkpt lat="42.3568" lon="0.82375">
        <ele>1269.4</ele>
        <time>2022-05-23 05:51:53</time>
      </trkpt>
      <trkpt lat="42.35678" lon="0.82375">
        <ele>1269.6</ele>
        <time>2022-05-23 05:51:54</time>
      </trkpt>
      <trkpt lat="42.35676" lon="0.82376">
        <ele>1269.6</ele>
        <time>2022-05-23 05:51:55</time>
      </trkpt>
      <trkpt lat="42.35675" lon="0.82376">
        <ele>1269.8</ele>
        <time>2022-05-23 05:51:56</time>
      </trkpt>
      <trkpt lat="42.35673" lon="0.82378">
        <ele>1269.8</ele>
        <time>2022-05-23 05:51:57</time>
      </trkpt>
      <trkpt lat="42.35671" lon="0.82379">
        <ele>1270</ele>
        <time>2022-05-23 05:51:58</time>
      </trkpt>
      <trkpt lat="42.35669" lon="0.8238">
        <ele>1270</ele>
        <time>2022-05-23 05:51:59</time>
      </trkpt>
      <trkpt lat="42.35667" lon="0.82381">
        <ele>1270.2</ele>
        <time>2022-05-23 05:52:00</time>
      </trkpt>
      <trkpt lat="42.35665" lon="0.82382">
        <ele>1270.4</ele>
        <time>2022-05-23 05:52:01</time>
      </trkpt>
      <trkpt lat="42.35662" lon="0.82383">
        <ele>1270.4</ele>
        <time>2022-05-23 05:52:02</time>
      </trkpt>
      <trkpt lat="42.3566" lon="0.82384">
        <ele>1270.6</ele>
        <time>2022-05-23 05:52:03</time>
      </trkpt>
      <trkpt lat="42.35657" lon="0.82385">
        <ele>1270.8</ele>
        <time>2022-05-23 05:52:04</time>
      </trkpt>
      <trkpt lat="42.35655" lon="0.82386">
        <ele>1271</ele>
        <time>2022-05-23 05:52:05</time>
      </trkpt>
      <trkpt lat="42.35652" lon="0.82387">
        <ele>1271</ele>
        <time>2022-05-23 05:52:06</time>
      </trkpt>
      <trkpt lat="42.35651" lon="0.82389">
        <ele>1271.2</ele>
        <time>2022-05-23 05:52:07</time>
      </trkpt>
      <trkpt lat="42.35648" lon="0.8239">
        <ele>1271.4</ele>
        <time>2022-05-23 05:52:08</time>
      </trkpt>
      <trkpt lat="42.35646" lon="0.8239">
        <ele>1271.6</ele>
        <time>2022-05-23 05:52:09</time>
      </trkpt>
      <trkpt lat="42.35644" lon="0.82391">
        <ele>1271.8</ele>
        <time>2022-05-23 05:52:10</time>
      </trkpt>
      <trkpt lat="42.35641" lon="0.82392">
        <ele>1272</ele>
        <time>2022-05-23 05:52:11</time>
      </trkpt>
      <trkpt lat="42.35639" lon="0.82393">
        <ele>1272.2</ele>
        <time>2022-05-23 05:52:12</time>
      </trkpt>
      <trkpt lat="42.35637" lon="0.82394">
        <ele>1272.4</ele>
        <time>2022-05-23 05:52:13</time>
      </trkpt>
      <trkpt lat="42.35635" lon="0.82395">
        <ele>1272.6</ele>
        <time>2022-05-23 05:52:14</time>
      </trkpt>
      <trkpt lat="42.35633" lon="0.82395">
        <ele>1272.8</ele>
        <time>2022-05-23 05:52:15</time>
      </trkpt>
      <trkpt lat="42.3563" lon="0.82396">
        <ele>1273</ele>
        <time>2022-05-23 05:52:16</time>
      </trkpt>
      <trkpt lat="42.35628" lon="0.82397">
        <ele>1273.2</ele>
        <time>2022-05-23 05:52:17</time>
      </trkpt>
      <trkpt lat="42.35626" lon="0.82398">
        <ele>1273.4</ele>
        <time>2022-05-23 05:52:18</time>
      </trkpt>
      <trkpt lat="42.35623" lon="0.82399">
        <ele>1273.4</ele>
        <time>2022-05-23 05:52:19</time>
      </trkpt>
      <trkpt lat="42.35621" lon="0.82399">
        <ele>1273.6</ele>
        <time>2022-05-23 05:52:20</time>
      </trkpt>
      <trkpt lat="42.35619" lon="0.82401">
        <ele>1273.8</ele>
        <time>2022-05-23 05:52:21</time>
      </trkpt>
      <trkpt lat="42.35617" lon="0.82402">
        <ele>1274</ele>
        <time>2022-05-23 05:52:22</time>
      </trkpt>
      <trkpt lat="42.35615" lon="0.82403">
        <ele>1274.2</ele>
        <time>2022-05-23 05:52:23</time>
      </trkpt>
      <trkpt lat="42.35612" lon="0.82404">
        <ele>1274.4</ele>
        <time>2022-05-23 05:52:24</time>
      </trkpt>
      <trkpt lat="42.3561" lon="0.82405">
        <ele>1274.6</ele>
        <time>2022-05-23 05:52:25</time>
      </trkpt>
      <trkpt lat="42.35608" lon="0.82406">
        <ele>1274.8</ele>
        <time>2022-05-23 05:52:26</time>
      </trkpt>
      <trkpt lat="42.35606" lon="0.82408">
        <ele>1275</ele>
        <time>2022-05-23 05:52:27</time>
      </trkpt>
      <trkpt lat="42.35603" lon="0.82409">
        <ele>1275</ele>
        <time>2022-05-23 05:52:28</time>
      </trkpt>
      <trkpt lat="42.35601" lon="0.8241">
        <ele>1275.2</ele>
        <time>2022-05-23 05:52:29</time>
      </trkpt>
      <trkpt lat="42.35599" lon="0.82411">
        <ele>1275.4</ele>
        <time>2022-05-23 05:52:30</time>
      </trkpt>
      <trkpt lat="42.35596" lon="0.82412">
        <ele>1275.6</ele>
        <time>2022-05-23 05:52:31</time>
      </trkpt>
      <trkpt lat="42.35594" lon="0.82413">
        <ele>1275.8</ele>
        <time>2022-05-23 05:52:32</time>
      </trkpt>
      <trkpt lat="42.35592" lon="0.82414">
        <ele>1276</ele>
        <time>2022-05-23 05:52:33</time>
      </trkpt>
      <trkpt lat="42.3559" lon="0.82415">
        <ele>1276.2</ele>
        <time>2022-05-23 05:52:34</time>
      </trkpt>
      <trkpt lat="42.35588" lon="0.82416">
        <ele>1276.2</ele>
        <time>2022-05-23 05:52:35</time>
      </trkpt>
      <trkpt lat="42.35586" lon="0.82418">
        <ele>1276.4</ele>
        <time>2022-05-23 05:52:36</time>
      </trkpt>
      <trkpt lat="42.35585" lon="0.82419">
        <ele>1276.6</ele>
        <time>2022-05-23 05:52:37</time>
      </trkpt>
      <trkpt lat="42.35583" lon="0.8242">
        <ele>1276.8</ele>
        <time>2022-05-23 05:52:38</time>
      </trkpt>
      <trkpt lat="42.35581" lon="0.82421">
        <ele>1277</ele>
        <time>2022-05-23 05:52:39</time>
      </trkpt>
      <trkpt lat="42.3558" lon="0.82422">
        <ele>1277</ele>
        <time>2022-05-23 05:52:40</time>
      </trkpt>
      <trkpt lat="42.35578" lon="0.82423">
        <ele>1277.2</ele>
        <time>2022-05-23 05:52:41</time>
      </trkpt>
      <trkpt lat="42.35577" lon="0.82424">
        <ele>1277.4</ele>
        <time>2022-05-23 05:52:42</time>
      </trkpt>
      <trkpt lat="42.35575" lon="0.82426">
        <ele>1277.6</ele>
        <time>2022-05-23 05:52:43</time>
      </trkpt>
      <trkpt lat="42.35573" lon="0.82427">
        <ele>1277.6</ele>
        <time>2022-05-23 05:52:44</time>
      </trkpt>
      <trkpt lat="42.35572" lon="0.82429">
        <ele>1277.8</ele>
        <time>2022-05-23 05:52:45</time>
      </trkpt>
      <trkpt lat="42.3557" lon="0.82429">
        <ele>1278</ele>
        <time>2022-05-23 05:52:46</time>
      </trkpt>
      <trkpt lat="42.35568" lon="0.82431">
        <ele>1278.2</ele>
        <time>2022-05-23 05:52:47</time>
      </trkpt>
      <trkpt lat="42.35566" lon="0.82432">
        <ele>1278.2</ele>
        <time>2022-05-23 05:52:48</time>
      </trkpt>
      <trkpt lat="42.35565" lon="0.82433">
        <ele>1278.4</ele>
        <time>2022-05-23 05:52:49</time>
      </trkpt>
      <trkpt lat="42.35564" lon="0.82434">
        <ele>1278.4</ele>
        <time>2022-05-23 05:52:50</time>
      </trkpt>
      <trkpt lat="42.35562" lon="0.82436">
        <ele>1278.6</ele>
        <time>2022-05-23 05:52:51</time>
      </trkpt>
      <trkpt lat="42.35561" lon="0.82437">
        <ele>1278.8</ele>
        <time>2022-05-23 05:52:52</time>
      </trkpt>
      <trkpt lat="42.35559" lon="0.82438">
        <ele>1279</ele>
        <time>2022-05-23 05:52:53</time>
      </trkpt>
      <trkpt lat="42.35557" lon="0.82439">
        <ele>1279</ele>
        <time>2022-05-23 05:52:54</time>
      </trkpt>
      <trkpt lat="42.35556" lon="0.8244">
        <ele>1279.2</ele>
        <time>2022-05-23 05:52:55</time>
      </trkpt>
      <trkpt lat="42.35554" lon="0.8244">
        <ele>1279.4</ele>
        <time>2022-05-23 05:52:56</time>
      </trkpt>
      <trkpt lat="42.35553" lon="0.82442">
        <ele>1279.6</ele>
        <time>2022-05-23 05:52:57</time>
      </trkpt>
      <trkpt lat="42.35551" lon="0.82443">
        <ele>1279.6</ele>
        <time>2022-05-23 05:52:58</time>
      </trkpt>
      <trkpt lat="42.35549" lon="0.82444">
        <ele>1279.8</ele>
        <time>2022-05-23 05:52:59</time>
      </trkpt>
      <trkpt lat="42.35548" lon="0.82445">
        <ele>1280</ele>
        <time>2022-05-23 05:53:00</time>
      </trkpt>
      <trkpt lat="42.35546" lon="0.82446">
        <ele>1280</ele>
        <time>2022-05-23 05:53:01</time>
      </trkpt>
      <trkpt lat="42.35545" lon="0.82447">
        <ele>1280.2</ele>
        <time>2022-05-23 05:53:02</time>
      </trkpt>
      <trkpt lat="42.35543" lon="0.82448">
        <ele>1280.4</ele>
        <time>2022-05-23 05:53:03</time>
      </trkpt>
      <trkpt lat="42.35541" lon="0.82449">
        <ele>1280.6</ele>
        <time>2022-05-23 05:53:04</time>
      </trkpt>
      <trkpt lat="42.3554" lon="0.82451">
        <ele>1280.6</ele>
        <time>2022-05-23 05:53:05</time>
      </trkpt>
      <trkpt lat="42.35538" lon="0.82452">
        <ele>1280.8</ele>
        <time>2022-05-23 05:53:06</time>
      </trkpt>
      <trkpt lat="42.35537" lon="0.82453">
        <ele>1281</ele>
        <time>2022-05-23 05:53:07</time>
      </trkpt>
      <trkpt lat="42.35535" lon="0.82454">
        <ele>1281.2</ele>
        <time>2022-05-23 05:53:08</time>
      </trkpt>
      <trkpt lat="42.35533" lon="0.82455">
        <ele>1281.2</ele>
        <time>2022-05-23 05:53:09</time>
      </trkpt>
      <trkpt lat="42.35532" lon="0.82455">
        <ele>1281.4</ele>
        <time>2022-05-23 05:53:10</time>
      </trkpt>
      <trkpt lat="42.3553" lon="0.82457">
        <ele>1281.6</ele>
        <time>2022-05-23 05:53:11</time>
      </trkpt>
      <trkpt lat="42.35529" lon="0.82458">
        <ele>1281.8</ele>
        <time>2022-05-23 05:53:12</time>
      </trkpt>
      <trkpt lat="42.35527" lon="0.8246">
        <ele>1281.8</ele>
        <time>2022-05-23 05:53:13</time>
      </trkpt>
      <trkpt lat="42.35525" lon="0.82461">
        <ele>1282</ele>
        <time>2022-05-23 05:53:14</time>
      </trkpt>
      <trkpt lat="42.35524" lon="0.82462">
        <ele>1282.2</ele>
        <time>2022-05-23 05:53:15</time>
      </trkpt>
      <trkpt lat="42.35523" lon="0.82463">
        <ele>1282.4</ele>
        <time>2022-05-23 05:53:16</time>
      </trkpt>
      <trkpt lat="42.35521" lon="0.82464">
        <ele>1282.6</ele>
        <time>2022-05-23 05:53:17</time>
      </trkpt>
      <trkpt lat="42.35519" lon="0.82464">
        <ele>1282.8</ele>
        <time>2022-05-23 05:53:18</time>
      </trkpt>
      <trkpt lat="42.35518" lon="0.82464">
        <ele>1282.8</ele>
        <time>2022-05-23 05:53:19</time>
      </trkpt>
      <trkpt lat="42.35516" lon="0.82464">
        <ele>1283</ele>
        <time>2022-05-23 05:53:20</time>
      </trkpt>
      <trkpt lat="42.35514" lon="0.82465">
        <ele>1283.2</ele>
        <time>2022-05-23 05:53:21</time>
      </trkpt>
      <trkpt lat="42.35512" lon="0.82466">
        <ele>1283.2</ele>
        <time>2022-05-23 05:53:22</time>
      </trkpt>
      <trkpt lat="42.35511" lon="0.82467">
        <ele>1283.4</ele>
        <time>2022-05-23 05:53:23</time>
      </trkpt>
      <trkpt lat="42.35509" lon="0.82468">
        <ele>1283.6</ele>
        <time>2022-05-23 05:53:24</time>
      </trkpt>
      <trkpt lat="42.35508" lon="0.82469">
        <ele>1283.6</ele>
        <time>2022-05-23 05:53:25</time>
      </trkpt>
      <trkpt lat="42.35506" lon="0.82471">
        <ele>1283.8</ele>
        <time>2022-05-23 05:53:26</time>
      </trkpt>
      <trkpt lat="42.35504" lon="0.82472">
        <ele>1284</ele>
        <time>2022-05-23 05:53:27</time>
      </trkpt>
      <trkpt lat="42.35503" lon="0.82473">
        <ele>1284</ele>
        <time>2022-05-23 05:53:28</time>
      </trkpt>
      <trkpt lat="42.35501" lon="0.82474">
        <ele>1284.2</ele>
        <time>2022-05-23 05:53:29</time>
      </trkpt>
      <trkpt lat="42.355" lon="0.82475">
        <ele>1284.4</ele>
        <time>2022-05-23 05:53:30</time>
      </trkpt>
      <trkpt lat="42.35498" lon="0.82476">
        <ele>1284.6</ele>
        <time>2022-05-23 05:53:31</time>
      </trkpt>
      <trkpt lat="42.35497" lon="0.82478">
        <ele>1284.6</ele>
        <time>2022-05-23 05:53:32</time>
      </trkpt>
      <trkpt lat="42.35496" lon="0.82479">
        <ele>1284.8</ele>
        <time>2022-05-23 05:53:33</time>
      </trkpt>
      <trkpt lat="42.35495" lon="0.8248">
        <ele>1285</ele>
        <time>2022-05-23 05:53:34</time>
      </trkpt>
      <trkpt lat="42.35493" lon="0.82481">
        <ele>1285.2</ele>
        <time>2022-05-23 05:53:35</time>
      </trkpt>
      <trkpt lat="42.35492" lon="0.82482">
        <ele>1285.4</ele>
        <time>2022-05-23 05:53:36</time>
      </trkpt>
      <trkpt lat="42.35491" lon="0.82483">
        <ele>1285.4</ele>
        <time>2022-05-23 05:53:37</time>
      </trkpt>
      <trkpt lat="42.3549" lon="0.82485">
        <ele>1285.6</ele>
        <time>2022-05-23 05:53:38</time>
      </trkpt>
      <trkpt lat="42.35489" lon="0.82486">
        <ele>1285.8</ele>
        <time>2022-05-23 05:53:39</time>
      </trkpt>
      <trkpt lat="42.35487" lon="0.82487">
        <ele>1286</ele>
        <time>2022-05-23 05:53:40</time>
      </trkpt>
      <trkpt lat="42.35487" lon="0.82489">
        <ele>1286.2</ele>
        <time>2022-05-23 05:53:41</time>
      </trkpt>
      <trkpt lat="42.35486" lon="0.8249">
        <ele>1286.4</ele>
        <time>2022-05-23 05:53:42</time>
      </trkpt>
      <trkpt lat="42.35484" lon="0.82491">
        <ele>1286.6</ele>
        <time>2022-05-23 05:53:43</time>
      </trkpt>
      <trkpt lat="42.35483" lon="0.82492">
        <ele>1286.6</ele>
        <time>2022-05-23 05:53:44</time>
      </trkpt>
      <trkpt lat="42.35481" lon="0.82493">
        <ele>1286.8</ele>
        <time>2022-05-23 05:53:45</time>
      </trkpt>
      <trkpt lat="42.3548" lon="0.82494">
        <ele>1287</ele>
        <time>2022-05-23 05:53:46</time>
      </trkpt>
      <trkpt lat="42.35478" lon="0.82495">
        <ele>1287.2</ele>
        <time>2022-05-23 05:53:47</time>
      </trkpt>
      <trkpt lat="42.35477" lon="0.82497">
        <ele>1287.2</ele>
        <time>2022-05-23 05:53:48</time>
      </trkpt>
      <trkpt lat="42.35475" lon="0.82498">
        <ele>1287.4</ele>
        <time>2022-05-23 05:53:49</time>
      </trkpt>
      <trkpt lat="42.35474" lon="0.82499">
        <ele>1287.6</ele>
        <time>2022-05-23 05:53:50</time>
      </trkpt>
      <trkpt lat="42.35472" lon="0.825">
        <ele>1287.8</ele>
        <time>2022-05-23 05:53:51</time>
      </trkpt>
      <trkpt lat="42.35471" lon="0.82501">
        <ele>1287.8</ele>
        <time>2022-05-23 05:53:52</time>
      </trkpt>
      <trkpt lat="42.35469" lon="0.82503">
        <ele>1288</ele>
        <time>2022-05-23 05:53:53</time>
      </trkpt>
      <trkpt lat="42.35467" lon="0.82504">
        <ele>1288.2</ele>
        <time>2022-05-23 05:53:54</time>
      </trkpt>
      <trkpt lat="42.35466" lon="0.82505">
        <ele>1288.4</ele>
        <time>2022-05-23 05:53:55</time>
      </trkpt>
      <trkpt lat="42.35464" lon="0.82507">
        <ele>1288.4</ele>
        <time>2022-05-23 05:53:56</time>
      </trkpt>
      <trkpt lat="42.35463" lon="0.82508">
        <ele>1288.6</ele>
        <time>2022-05-23 05:53:57</time>
      </trkpt>
      <trkpt lat="42.35462" lon="0.8251">
        <ele>1288.8</ele>
        <time>2022-05-23 05:53:58</time>
      </trkpt>
      <trkpt lat="42.35461" lon="0.82511">
        <ele>1289</ele>
        <time>2022-05-23 05:53:59</time>
      </trkpt>
      <trkpt lat="42.35459" lon="0.82512">
        <ele>1289</ele>
        <time>2022-05-23 05:54:00</time>
      </trkpt>
      <trkpt lat="42.35458" lon="0.82514">
        <ele>1289.2</ele>
        <time>2022-05-23 05:54:01</time>
      </trkpt>
      <trkpt lat="42.35457" lon="0.82516">
        <ele>1289.4</ele>
        <time>2022-05-23 05:54:02</time>
      </trkpt>
      <trkpt lat="42.35456" lon="0.82517">
        <ele>1289.4</ele>
        <time>2022-05-23 05:54:03</time>
      </trkpt>
      <trkpt lat="42.35455" lon="0.82519">
        <ele>1289.6</ele>
        <time>2022-05-23 05:54:04</time>
      </trkpt>
      <trkpt lat="42.35454" lon="0.82521">
        <ele>1289.8</ele>
        <time>2022-05-23 05:54:05</time>
      </trkpt>
      <trkpt lat="42.35453" lon="0.82522">
        <ele>1289.8</ele>
        <time>2022-05-23 05:54:06</time>
      </trkpt>
      <trkpt lat="42.35451" lon="0.82524">
        <ele>1290</ele>
        <time>2022-05-23 05:54:07</time>
      </trkpt>
      <trkpt lat="42.3545" lon="0.82526">
        <ele>1290</ele>
        <time>2022-05-23 05:54:08</time>
      </trkpt>
      <trkpt lat="42.3545" lon="0.82528">
        <ele>1290.2</ele>
        <time>2022-05-23 05:54:09</time>
      </trkpt>
      <trkpt lat="42.35449" lon="0.82529">
        <ele>1290.4</ele>
        <time>2022-05-23 05:54:10</time>
      </trkpt>
      <trkpt lat="42.35448" lon="0.82531">
        <ele>1290.4</ele>
        <time>2022-05-23 05:54:11</time>
      </trkpt>
      <trkpt lat="42.35446" lon="0.82533">
        <ele>1290.6</ele>
        <time>2022-05-23 05:54:12</time>
      </trkpt>
      <trkpt lat="42.35445" lon="0.82534">
        <ele>1290.6</ele>
        <time>2022-05-23 05:54:13</time>
      </trkpt>
      <trkpt lat="42.35445" lon="0.82536">
        <ele>1290.8</ele>
        <time>2022-05-23 05:54:14</time>
      </trkpt>
      <trkpt lat="42.35444" lon="0.82538">
        <ele>1291</ele>
        <time>2022-05-23 05:54:15</time>
      </trkpt>
      <trkpt lat="42.35443" lon="0.8254">
        <ele>1291</ele>
        <time>2022-05-23 05:54:16</time>
      </trkpt>
      <trkpt lat="42.35442" lon="0.82542">
        <ele>1291.2</ele>
        <time>2022-05-23 05:54:17</time>
      </trkpt>
      <trkpt lat="42.35441" lon="0.82543">
        <ele>1291.2</ele>
        <time>2022-05-23 05:54:18</time>
      </trkpt>
      <trkpt lat="42.3544" lon="0.82546">
        <ele>1291.4</ele>
        <time>2022-05-23 05:54:19</time>
      </trkpt>
      <trkpt lat="42.35439" lon="0.82547">
        <ele>1291.4</ele>
        <time>2022-05-23 05:54:20</time>
      </trkpt>
      <trkpt lat="42.35438" lon="0.82549">
        <ele>1291.6</ele>
        <time>2022-05-23 05:54:21</time>
      </trkpt>
      <trkpt lat="42.35437" lon="0.8255">
        <ele>1291.8</ele>
        <time>2022-05-23 05:54:22</time>
      </trkpt>
      <trkpt lat="42.35436" lon="0.82552">
        <ele>1291.8</ele>
        <time>2022-05-23 05:54:23</time>
      </trkpt>
      <trkpt lat="42.35435" lon="0.82554">
        <ele>1292</ele>
        <time>2022-05-23 05:54:24</time>
      </trkpt>
      <trkpt lat="42.35434" lon="0.82555">
        <ele>1292</ele>
        <time>2022-05-23 05:54:25</time>
      </trkpt>
      <trkpt lat="42.35433" lon="0.82557">
        <ele>1292.2</ele>
        <time>2022-05-23 05:54:26</time>
      </trkpt>
      <trkpt lat="42.35432" lon="0.82559">
        <ele>1292.4</ele>
        <time>2022-05-23 05:54:27</time>
      </trkpt>
      <trkpt lat="42.35431" lon="0.82561">
        <ele>1292.4</ele>
        <time>2022-05-23 05:54:28</time>
      </trkpt>
      <trkpt lat="42.3543" lon="0.82563">
        <ele>1292.6</ele>
        <time>2022-05-23 05:54:29</time>
      </trkpt>
      <trkpt lat="42.3543" lon="0.82564">
        <ele>1292.6</ele>
        <time>2022-05-23 05:54:30</time>
      </trkpt>
      <trkpt lat="42.35429" lon="0.82566">
        <ele>1292.8</ele>
        <time>2022-05-23 05:54:31</time>
      </trkpt>
      <trkpt lat="42.35428" lon="0.82567">
        <ele>1293</ele>
        <time>2022-05-23 05:54:32</time>
      </trkpt>
      <trkpt lat="42.35427" lon="0.82568">
        <ele>1293</ele>
        <time>2022-05-23 05:54:33</time>
      </trkpt>
      <trkpt lat="42.35426" lon="0.8257">
        <ele>1293.2</ele>
        <time>2022-05-23 05:54:34</time>
      </trkpt>
      <trkpt lat="42.35425" lon="0.82572">
        <ele>1293.2</ele>
        <time>2022-05-23 05:54:35</time>
      </trkpt>
      <trkpt lat="42.35425" lon="0.82573">
        <ele>1293.4</ele>
        <time>2022-05-23 05:54:36</time>
      </trkpt>
      <trkpt lat="42.35424" lon="0.82575">
        <ele>1293.6</ele>
        <time>2022-05-23 05:54:37</time>
      </trkpt>
      <trkpt lat="42.35423" lon="0.82577">
        <ele>1293.6</ele>
        <time>2022-05-23 05:54:38</time>
      </trkpt>
      <trkpt lat="42.35422" lon="0.82578">
        <ele>1293.8</ele>
        <time>2022-05-23 05:54:39</time>
      </trkpt>
      <trkpt lat="42.35421" lon="0.8258">
        <ele>1294</ele>
        <time>2022-05-23 05:54:40</time>
      </trkpt>
      <trkpt lat="42.3542" lon="0.82581">
        <ele>1294</ele>
        <time>2022-05-23 05:54:41</time>
      </trkpt>
      <trkpt lat="42.3542" lon="0.82583">
        <ele>1294.2</ele>
        <time>2022-05-23 05:54:42</time>
      </trkpt>
      <trkpt lat="42.35419" lon="0.82585">
        <ele>1294.4</ele>
        <time>2022-05-23 05:54:43</time>
      </trkpt>
      <trkpt lat="42.35418" lon="0.82587">
        <ele>1294.4</ele>
        <time>2022-05-23 05:54:44</time>
      </trkpt>
      <trkpt lat="42.35417" lon="0.82589">
        <ele>1294.6</ele>
        <time>2022-05-23 05:54:45</time>
      </trkpt>
      <trkpt lat="42.35416" lon="0.82591">
        <ele>1294.8</ele>
        <time>2022-05-23 05:54:46</time>
      </trkpt>
      <trkpt lat="42.35416" lon="0.82593">
        <ele>1294.8</ele>
        <time>2022-05-23 05:54:47</time>
      </trkpt>
      <trkpt lat="42.35415" lon="0.82595">
        <ele>1295</ele>
        <time>2022-05-23 05:54:48</time>
      </trkpt>
      <trkpt lat="42.35414" lon="0.82597">
        <ele>1295.2</ele>
        <time>2022-05-23 05:54:49</time>
      </trkpt>
      <trkpt lat="42.35413" lon="0.82598">
        <ele>1295.2</ele>
        <time>2022-05-23 05:54:50</time>
      </trkpt>
      <trkpt lat="42.35412" lon="0.826">
        <ele>1295.4</ele>
        <time>2022-05-23 05:54:51</time>
      </trkpt>
      <trkpt lat="42.35411" lon="0.82603">
        <ele>1295.6</ele>
        <time>2022-05-23 05:54:52</time>
      </trkpt>
      <trkpt lat="42.3541" lon="0.82605">
        <ele>1295.6</ele>
        <time>2022-05-23 05:54:53</time>
      </trkpt>
      <trkpt lat="42.35409" lon="0.82606">
        <ele>1295.8</ele>
        <time>2022-05-23 05:54:54</time>
      </trkpt>
      <trkpt lat="42.35408" lon="0.82608">
        <ele>1296</ele>
        <time>2022-05-23 05:54:55</time>
      </trkpt>
      <trkpt lat="42.35407" lon="0.8261">
        <ele>1296</ele>
        <time>2022-05-23 05:54:56</time>
      </trkpt>
      <trkpt lat="42.35406" lon="0.82612">
        <ele>1296.2</ele>
        <time>2022-05-23 05:54:57</time>
      </trkpt>
      <trkpt lat="42.35405" lon="0.82613">
        <ele>1296.4</ele>
        <time>2022-05-23 05:54:58</time>
      </trkpt>
      <trkpt lat="42.35404" lon="0.82615">
        <ele>1296.6</ele>
        <time>2022-05-23 05:54:59</time>
      </trkpt>
      <trkpt lat="42.35403" lon="0.82617">
        <ele>1296.6</ele>
        <time>2022-05-23 05:55:00</time>
      </trkpt>
      <trkpt lat="42.35403" lon="0.82619">
        <ele>1296.8</ele>
        <time>2022-05-23 05:55:01</time>
      </trkpt>
      <trkpt lat="42.35401" lon="0.82621">
        <ele>1297</ele>
        <time>2022-05-23 05:55:02</time>
      </trkpt>
      <trkpt lat="42.35401" lon="0.82623">
        <ele>1297</ele>
        <time>2022-05-23 05:55:03</time>
      </trkpt>
      <trkpt lat="42.354" lon="0.82624">
        <ele>1297.2</ele>
        <time>2022-05-23 05:55:04</time>
      </trkpt>
      <trkpt lat="42.35399" lon="0.82626">
        <ele>1297.2</ele>
        <time>2022-05-23 05:55:05</time>
      </trkpt>
      <trkpt lat="42.35398" lon="0.82628">
        <ele>1297.4</ele>
        <time>2022-05-23 05:55:06</time>
      </trkpt>
      <trkpt lat="42.35397" lon="0.82629">
        <ele>1297.6</ele>
        <time>2022-05-23 05:55:07</time>
      </trkpt>
      <trkpt lat="42.35396" lon="0.82631">
        <ele>1297.6</ele>
        <time>2022-05-23 05:55:08</time>
      </trkpt>
      <trkpt lat="42.35396" lon="0.82633">
        <ele>1297.8</ele>
        <time>2022-05-23 05:55:09</time>
      </trkpt>
      <trkpt lat="42.35395" lon="0.82634">
        <ele>1298</ele>
        <time>2022-05-23 05:55:10</time>
      </trkpt>
      <trkpt lat="42.35394" lon="0.82636">
        <ele>1298</ele>
        <time>2022-05-23 05:55:11</time>
      </trkpt>
      <trkpt lat="42.35393" lon="0.82637">
        <ele>1298.2</ele>
        <time>2022-05-23 05:55:12</time>
      </trkpt>
      <trkpt lat="42.35392" lon="0.82639">
        <ele>1298.4</ele>
        <time>2022-05-23 05:55:13</time>
      </trkpt>
      <trkpt lat="42.35391" lon="0.82641">
        <ele>1298.4</ele>
        <time>2022-05-23 05:55:14</time>
      </trkpt>
      <trkpt lat="42.35391" lon="0.82642">
        <ele>1298.6</ele>
        <time>2022-05-23 05:55:15</time>
      </trkpt>
      <trkpt lat="42.3539" lon="0.82644">
        <ele>1298.6</ele>
        <time>2022-05-23 05:55:16</time>
      </trkpt>
      <trkpt lat="42.35388" lon="0.82646">
        <ele>1298.8</ele>
        <time>2022-05-23 05:55:17</time>
      </trkpt>
      <trkpt lat="42.35387" lon="0.82648">
        <ele>1299</ele>
        <time>2022-05-23 05:55:18</time>
      </trkpt>
      <trkpt lat="42.35386" lon="0.82649">
        <ele>1299</ele>
        <time>2022-05-23 05:55:19</time>
      </trkpt>
      <trkpt lat="42.35384" lon="0.82651">
        <ele>1299.2</ele>
        <time>2022-05-23 05:55:20</time>
      </trkpt>
      <trkpt lat="42.35383" lon="0.82653">
        <ele>1299.2</ele>
        <time>2022-05-23 05:55:21</time>
      </trkpt>
      <trkpt lat="42.35383" lon="0.82655">
        <ele>1299.4</ele>
        <time>2022-05-23 05:55:22</time>
      </trkpt>
      <trkpt lat="42.35382" lon="0.82657">
        <ele>1299.6</ele>
        <time>2022-05-23 05:55:23</time>
      </trkpt>
      <trkpt lat="42.35382" lon="0.82658">
        <ele>1299.8</ele>
        <time>2022-05-23 05:55:24</time>
      </trkpt>
      <trkpt lat="42.35381" lon="0.8266">
        <ele>1299.8</ele>
        <time>2022-05-23 05:55:25</time>
      </trkpt>
      <trkpt lat="42.35381" lon="0.82662">
        <ele>1300</ele>
        <time>2022-05-23 05:55:26</time>
      </trkpt>
      <trkpt lat="42.3538" lon="0.82664">
        <ele>1300.2</ele>
        <time>2022-05-23 05:55:27</time>
      </trkpt>
      <trkpt lat="42.35379" lon="0.82666">
        <ele>1300.4</ele>
        <time>2022-05-23 05:55:28</time>
      </trkpt>
      <trkpt lat="42.35378" lon="0.82668">
        <ele>1300.4</ele>
        <time>2022-05-23 05:55:29</time>
      </trkpt>
      <trkpt lat="42.35377" lon="0.8267">
        <ele>1300.6</ele>
        <time>2022-05-23 05:55:30</time>
      </trkpt>
      <trkpt lat="42.35376" lon="0.82672">
        <ele>1300.8</ele>
        <time>2022-05-23 05:55:31</time>
      </trkpt>
      <trkpt lat="42.35376" lon="0.82674">
        <ele>1300.8</ele>
        <time>2022-05-23 05:55:32</time>
      </trkpt>
      <trkpt lat="42.35374" lon="0.82675">
        <ele>1301</ele>
        <time>2022-05-23 05:55:33</time>
      </trkpt>
      <trkpt lat="42.35373" lon="0.82677">
        <ele>1301</ele>
        <time>2022-05-23 05:55:34</time>
      </trkpt>
      <trkpt lat="42.35371" lon="0.82679">
        <ele>1301.2</ele>
        <time>2022-05-23 05:55:35</time>
      </trkpt>
      <trkpt lat="42.35369" lon="0.8268">
        <ele>1301.4</ele>
        <time>2022-05-23 05:55:36</time>
      </trkpt>
      <trkpt lat="42.35368" lon="0.82682">
        <ele>1301.4</ele>
        <time>2022-05-23 05:55:37</time>
      </trkpt>
      <trkpt lat="42.35366" lon="0.82684">
        <ele>1301.6</ele>
        <time>2022-05-23 05:55:38</time>
      </trkpt>
      <trkpt lat="42.35365" lon="0.82686">
        <ele>1301.8</ele>
        <time>2022-05-23 05:55:39</time>
      </trkpt>
      <trkpt lat="42.35364" lon="0.82688">
        <ele>1301.8</ele>
        <time>2022-05-23 05:55:40</time>
      </trkpt>
      <trkpt lat="42.35362" lon="0.8269">
        <ele>1302</ele>
        <time>2022-05-23 05:55:41</time>
      </trkpt>
      <trkpt lat="42.35361" lon="0.82692">
        <ele>1302.2</ele>
        <time>2022-05-23 05:55:42</time>
      </trkpt>
      <trkpt lat="42.3536" lon="0.82693">
        <ele>1302.2</ele>
        <time>2022-05-23 05:55:43</time>
      </trkpt>
      <trkpt lat="42.35359" lon="0.82695">
        <ele>1302.4</ele>
        <time>2022-05-23 05:55:44</time>
      </trkpt>
      <trkpt lat="42.35358" lon="0.82697">
        <ele>1302.4</ele>
        <time>2022-05-23 05:55:45</time>
      </trkpt>
      <trkpt lat="42.35356" lon="0.82699">
        <ele>1302.6</ele>
        <time>2022-05-23 05:55:46</time>
      </trkpt>
      <trkpt lat="42.35355" lon="0.82701">
        <ele>1302.8</ele>
        <time>2022-05-23 05:55:47</time>
      </trkpt>
      <trkpt lat="42.35355" lon="0.82703">
        <ele>1303</ele>
        <time>2022-05-23 05:55:48</time>
      </trkpt>
      <trkpt lat="42.35354" lon="0.82705">
        <ele>1303</ele>
        <time>2022-05-23 05:55:49</time>
      </trkpt>
      <trkpt lat="42.35352" lon="0.82706">
        <ele>1303.2</ele>
        <time>2022-05-23 05:55:50</time>
      </trkpt>
      <trkpt lat="42.35351" lon="0.82708">
        <ele>1303.4</ele>
        <time>2022-05-23 05:55:51</time>
      </trkpt>
      <trkpt lat="42.3535" lon="0.82709">
        <ele>1303.4</ele>
        <time>2022-05-23 05:55:52</time>
      </trkpt>
      <trkpt lat="42.35349" lon="0.82711">
        <ele>1303.6</ele>
        <time>2022-05-23 05:55:53</time>
      </trkpt>
      <trkpt lat="42.35348" lon="0.82713">
        <ele>1303.8</ele>
        <time>2022-05-23 05:55:54</time>
      </trkpt>
      <trkpt lat="42.35347" lon="0.82715">
        <ele>1303.8</ele>
        <time>2022-05-23 05:55:55</time>
      </trkpt>
      <trkpt lat="42.35346" lon="0.82717">
        <ele>1304</ele>
        <time>2022-05-23 05:55:56</time>
      </trkpt>
      <trkpt lat="42.35345" lon="0.82718">
        <ele>1304</ele>
        <time>2022-05-23 05:55:57</time>
      </trkpt>
      <trkpt lat="42.35344" lon="0.8272">
        <ele>1304.2</ele>
        <time>2022-05-23 05:55:58</time>
      </trkpt>
      <trkpt lat="42.35343" lon="0.82722">
        <ele>1304.4</ele>
        <time>2022-05-23 05:55:59</time>
      </trkpt>
      <trkpt lat="42.35342" lon="0.82724">
        <ele>1304.6</ele>
        <time>2022-05-23 05:56:00</time>
      </trkpt>
      <trkpt lat="42.35342" lon="0.82726">
        <ele>1304.6</ele>
        <time>2022-05-23 05:56:01</time>
      </trkpt>
      <trkpt lat="42.3534" lon="0.82728">
        <ele>1304.8</ele>
        <time>2022-05-23 05:56:02</time>
      </trkpt>
      <trkpt lat="42.35339" lon="0.82729">
        <ele>1304.8</ele>
        <time>2022-05-23 05:56:03</time>
      </trkpt>
      <trkpt lat="42.35338" lon="0.82731">
        <ele>1305</ele>
        <time>2022-05-23 05:56:04</time>
      </trkpt>
      <trkpt lat="42.35336" lon="0.82732">
        <ele>1305.2</ele>
        <time>2022-05-23 05:56:05</time>
      </trkpt>
      <trkpt lat="42.35335" lon="0.82734">
        <ele>1305.2</ele>
        <time>2022-05-23 05:56:06</time>
      </trkpt>
      <trkpt lat="42.35334" lon="0.82736">
        <ele>1305.4</ele>
        <time>2022-05-23 05:56:07</time>
      </trkpt>
      <trkpt lat="42.35333" lon="0.82738">
        <ele>1305.6</ele>
        <time>2022-05-23 05:56:08</time>
      </trkpt>
      <trkpt lat="42.35332" lon="0.8274">
        <ele>1305.6</ele>
        <time>2022-05-23 05:56:09</time>
      </trkpt>
      <trkpt lat="42.35332" lon="0.82742">
        <ele>1305.8</ele>
        <time>2022-05-23 05:56:10</time>
      </trkpt>
      <trkpt lat="42.35331" lon="0.82744">
        <ele>1306</ele>
        <time>2022-05-23 05:56:11</time>
      </trkpt>
      <trkpt lat="42.35331" lon="0.82746">
        <ele>1306</ele>
        <time>2022-05-23 05:56:12</time>
      </trkpt>
      <trkpt lat="42.35329" lon="0.82748">
        <ele>1306.2</ele>
        <time>2022-05-23 05:56:13</time>
      </trkpt>
      <trkpt lat="42.35328" lon="0.8275">
        <ele>1306.4</ele>
        <time>2022-05-23 05:56:14</time>
      </trkpt>
      <trkpt lat="42.35327" lon="0.82752">
        <ele>1306.4</ele>
        <time>2022-05-23 05:56:15</time>
      </trkpt>
      <trkpt lat="42.35326" lon="0.82754">
        <ele>1306.6</ele>
        <time>2022-05-23 05:56:16</time>
      </trkpt>
      <trkpt lat="42.35325" lon="0.82756">
        <ele>1306.8</ele>
        <time>2022-05-23 05:56:17</time>
      </trkpt>
      <trkpt lat="42.35323" lon="0.82758">
        <ele>1307</ele>
        <time>2022-05-23 05:56:18</time>
      </trkpt>
      <trkpt lat="42.35322" lon="0.8276">
        <ele>1307</ele>
        <time>2022-05-23 05:56:19</time>
      </trkpt>
      <trkpt lat="42.35321" lon="0.82762">
        <ele>1307.2</ele>
        <time>2022-05-23 05:56:20</time>
      </trkpt>
      <trkpt lat="42.3532" lon="0.82764">
        <ele>1307.4</ele>
        <time>2022-05-23 05:56:21</time>
      </trkpt>
      <trkpt lat="42.35319" lon="0.82766">
        <ele>1307.6</ele>
        <time>2022-05-23 05:56:22</time>
      </trkpt>
      <trkpt lat="42.35317" lon="0.82768">
        <ele>1307.6</ele>
        <time>2022-05-23 05:56:23</time>
      </trkpt>
      <trkpt lat="42.35316" lon="0.82769">
        <ele>1307.8</ele>
        <time>2022-05-23 05:56:24</time>
      </trkpt>
      <trkpt lat="42.35315" lon="0.82771">
        <ele>1308</ele>
        <time>2022-05-23 05:56:25</time>
      </trkpt>
      <trkpt lat="42.35314" lon="0.82773">
        <ele>1308.2</ele>
        <time>2022-05-23 05:56:26</time>
      </trkpt>
      <trkpt lat="42.35313" lon="0.82775">
        <ele>1308.2</ele>
        <time>2022-05-23 05:56:27</time>
      </trkpt>
      <trkpt lat="42.35312" lon="0.82777">
        <ele>1308.4</ele>
        <time>2022-05-23 05:56:28</time>
      </trkpt>
      <trkpt lat="42.35312" lon="0.82779">
        <ele>1308.6</ele>
        <time>2022-05-23 05:56:29</time>
      </trkpt>
      <trkpt lat="42.35312" lon="0.82782">
        <ele>1308.6</ele>
        <time>2022-05-23 05:56:30</time>
      </trkpt>
      <trkpt lat="42.3531" lon="0.82784">
        <ele>1308.8</ele>
        <time>2022-05-23 05:56:31</time>
      </trkpt>
      <trkpt lat="42.3531" lon="0.82786">
        <ele>1309</ele>
        <time>2022-05-23 05:56:32</time>
      </trkpt>
      <trkpt lat="42.35309" lon="0.82788">
        <ele>1309</ele>
        <time>2022-05-23 05:56:33</time>
      </trkpt>
      <trkpt lat="42.35309" lon="0.82791">
        <ele>1309.2</ele>
        <time>2022-05-23 05:56:34</time>
      </trkpt>
      <trkpt lat="42.35308" lon="0.82793">
        <ele>1309.2</ele>
        <time>2022-05-23 05:56:35</time>
      </trkpt>
      <trkpt lat="42.35307" lon="0.82795">
        <ele>1309.4</ele>
        <time>2022-05-23 05:56:36</time>
      </trkpt>
      <trkpt lat="42.35306" lon="0.82797">
        <ele>1309.6</ele>
        <time>2022-05-23 05:56:37</time>
      </trkpt>
      <trkpt lat="42.35305" lon="0.82799">
        <ele>1309.8</ele>
        <time>2022-05-23 05:56:38</time>
      </trkpt>
      <trkpt lat="42.35304" lon="0.82801">
        <ele>1309.8</ele>
        <time>2022-05-23 05:56:39</time>
      </trkpt>
      <trkpt lat="42.35304" lon="0.82803">
        <ele>1310</ele>
        <time>2022-05-23 05:56:40</time>
      </trkpt>
      <trkpt lat="42.35303" lon="0.82805">
        <ele>1310.2</ele>
        <time>2022-05-23 05:56:41</time>
      </trkpt>
      <trkpt lat="42.35302" lon="0.82808">
        <ele>1310.4</ele>
        <time>2022-05-23 05:56:42</time>
      </trkpt>
      <trkpt lat="42.35302" lon="0.8281">
        <ele>1310.4</ele>
        <time>2022-05-23 05:56:43</time>
      </trkpt>
      <trkpt lat="42.35301" lon="0.82812">
        <ele>1310.6</ele>
        <time>2022-05-23 05:56:44</time>
      </trkpt>
      <trkpt lat="42.353" lon="0.82814">
        <ele>1310.8</ele>
        <time>2022-05-23 05:56:45</time>
      </trkpt>
      <trkpt lat="42.353" lon="0.82817">
        <ele>1311</ele>
        <time>2022-05-23 05:56:46</time>
      </trkpt>
      <trkpt lat="42.353" lon="0.82819">
        <ele>1311</ele>
        <time>2022-05-23 05:56:47</time>
      </trkpt>
      <trkpt lat="42.35299" lon="0.82821">
        <ele>1311.2</ele>
        <time>2022-05-23 05:56:48</time>
      </trkpt>
      <trkpt lat="42.35299" lon="0.82824">
        <ele>1311.4</ele>
        <time>2022-05-23 05:56:49</time>
      </trkpt>
      <trkpt lat="42.35299" lon="0.82826">
        <ele>1311.6</ele>
        <time>2022-05-23 05:56:50</time>
      </trkpt>
      <trkpt lat="42.35298" lon="0.82829">
        <ele>1311.6</ele>
        <time>2022-05-23 05:56:51</time>
      </trkpt>
      <trkpt lat="42.35298" lon="0.82831">
        <ele>1311.8</ele>
        <time>2022-05-23 05:56:52</time>
      </trkpt>
      <trkpt lat="42.35298" lon="0.82834">
        <ele>1312</ele>
        <time>2022-05-23 05:56:53</time>
      </trkpt>
      <trkpt lat="42.35297" lon="0.82837">
        <ele>1312.2</ele>
        <time>2022-05-23 05:56:54</time>
      </trkpt>
      <trkpt lat="42.35297" lon="0.82839">
        <ele>1312.2</ele>
        <time>2022-05-23 05:56:55</time>
      </trkpt>
      <trkpt lat="42.35297" lon="0.82842">
        <ele>1312.4</ele>
        <time>2022-05-23 05:56:56</time>
      </trkpt>
      <trkpt lat="42.35297" lon="0.82844">
        <ele>1312.6</ele>
        <time>2022-05-23 05:56:57</time>
      </trkpt>
      <trkpt lat="42.35297" lon="0.82847">
        <ele>1312.6</ele>
        <time>2022-05-23 05:56:58</time>
      </trkpt>
      <trkpt lat="42.35297" lon="0.8285">
        <ele>1312.8</ele>
        <time>2022-05-23 05:56:59</time>
      </trkpt>
      <trkpt lat="42.35297" lon="0.82851">
        <ele>1313</ele>
        <time>2022-05-23 05:57:00</time>
      </trkpt>
      <trkpt lat="42.35297" lon="0.82855">
        <ele>1313</ele>
        <time>2022-05-23 05:57:01</time>
      </trkpt>
      <trkpt lat="42.35297" lon="0.82857">
        <ele>1313.2</ele>
        <time>2022-05-23 05:57:02</time>
      </trkpt>
      <trkpt lat="42.35297" lon="0.8286">
        <ele>1313.4</ele>
        <time>2022-05-23 05:57:03</time>
      </trkpt>
      <trkpt lat="42.35297" lon="0.82863">
        <ele>1313.4</ele>
        <time>2022-05-23 05:57:04</time>
      </trkpt>
      <trkpt lat="42.35298" lon="0.82865">
        <ele>1313.6</ele>
        <time>2022-05-23 05:57:05</time>
      </trkpt>
      <trkpt lat="42.35298" lon="0.82867">
        <ele>1313.8</ele>
        <time>2022-05-23 05:57:06</time>
      </trkpt>
      <trkpt lat="42.35299" lon="0.8287">
        <ele>1314</ele>
        <time>2022-05-23 05:57:07</time>
      </trkpt>
      <trkpt lat="42.35299" lon="0.82872">
        <ele>1314</ele>
        <time>2022-05-23 05:57:08</time>
      </trkpt>
      <trkpt lat="42.35299" lon="0.82875">
        <ele>1314.2</ele>
        <time>2022-05-23 05:57:09</time>
      </trkpt>
      <trkpt lat="42.353" lon="0.82877">
        <ele>1314.2</ele>
        <time>2022-05-23 05:57:10</time>
      </trkpt>
      <trkpt lat="42.353" lon="0.8288">
        <ele>1314.4</ele>
        <time>2022-05-23 05:57:11</time>
      </trkpt>
      <trkpt lat="42.353" lon="0.82882">
        <ele>1314.6</ele>
        <time>2022-05-23 05:57:12</time>
      </trkpt>
      <trkpt lat="42.353" lon="0.82885">
        <ele>1314.6</ele>
        <time>2022-05-23 05:57:13</time>
      </trkpt>
      <trkpt lat="42.353" lon="0.82887">
        <ele>1314.8</ele>
        <time>2022-05-23 05:57:14</time>
      </trkpt>
      <trkpt lat="42.35301" lon="0.8289">
        <ele>1315</ele>
        <time>2022-05-23 05:57:15</time>
      </trkpt>
      <trkpt lat="42.35302" lon="0.82892">
        <ele>1315.2</ele>
        <time>2022-05-23 05:57:16</time>
      </trkpt>
      <trkpt lat="42.35303" lon="0.82894">
        <ele>1315.4</ele>
        <time>2022-05-23 05:57:17</time>
      </trkpt>
      <trkpt lat="42.35304" lon="0.82897">
        <ele>1315.4</ele>
        <time>2022-05-23 05:57:18</time>
      </trkpt>
      <trkpt lat="42.35305" lon="0.82899">
        <ele>1315.6</ele>
        <time>2022-05-23 05:57:19</time>
      </trkpt>
      <trkpt lat="42.35306" lon="0.82901">
        <ele>1315.8</ele>
        <time>2022-05-23 05:57:20</time>
      </trkpt>
      <trkpt lat="42.35307" lon="0.82902">
        <ele>1315.8</ele>
        <time>2022-05-23 05:57:21</time>
      </trkpt>
      <trkpt lat="42.35309" lon="0.82905">
        <ele>1316</ele>
        <time>2022-05-23 05:57:22</time>
      </trkpt>
      <trkpt lat="42.3531" lon="0.82907">
        <ele>1316.2</ele>
        <time>2022-05-23 05:57:23</time>
      </trkpt>
      <trkpt lat="42.35311" lon="0.82909">
        <ele>1316.2</ele>
        <time>2022-05-23 05:57:24</time>
      </trkpt>
      <trkpt lat="42.35312" lon="0.82912">
        <ele>1316.4</ele>
        <time>2022-05-23 05:57:25</time>
      </trkpt>
      <trkpt lat="42.35313" lon="0.82915">
        <ele>1316.6</ele>
        <time>2022-05-23 05:57:26</time>
      </trkpt>
      <trkpt lat="42.35313" lon="0.82918">
        <ele>1316.8</ele>
        <time>2022-05-23 05:57:27</time>
      </trkpt>
      <trkpt lat="42.35313" lon="0.82921">
        <ele>1317</ele>
        <time>2022-05-23 05:57:28</time>
      </trkpt>
      <trkpt lat="42.35314" lon="0.82923">
        <ele>1317.2</ele>
        <time>2022-05-23 05:57:29</time>
      </trkpt>
      <trkpt lat="42.35315" lon="0.82926">
        <ele>1317.4</ele>
        <time>2022-05-23 05:57:30</time>
      </trkpt>
      <trkpt lat="42.35317" lon="0.82928">
        <ele>1317.6</ele>
        <time>2022-05-23 05:57:31</time>
      </trkpt>
      <trkpt lat="42.35318" lon="0.8293">
        <ele>1317.6</ele>
        <time>2022-05-23 05:57:32</time>
      </trkpt>
      <trkpt lat="42.35319" lon="0.82932">
        <ele>1317.8</ele>
        <time>2022-05-23 05:57:33</time>
      </trkpt>
      <trkpt lat="42.3532" lon="0.82934">
        <ele>1318</ele>
        <time>2022-05-23 05:57:34</time>
      </trkpt>
      <trkpt lat="42.35321" lon="0.82936">
        <ele>1318.2</ele>
        <time>2022-05-23 05:57:35</time>
      </trkpt>
      <trkpt lat="42.35323" lon="0.82938">
        <ele>1318.4</ele>
        <time>2022-05-23 05:57:36</time>
      </trkpt>
      <trkpt lat="42.35324" lon="0.82939">
        <ele>1318.4</ele>
        <time>2022-05-23 05:57:37</time>
      </trkpt>
      <trkpt lat="42.35325" lon="0.82941">
        <ele>1318.6</ele>
        <time>2022-05-23 05:57:38</time>
      </trkpt>
      <trkpt lat="42.35326" lon="0.82942">
        <ele>1318.8</ele>
        <time>2022-05-23 05:57:39</time>
      </trkpt>
      <trkpt lat="42.35328" lon="0.82944">
        <ele>1318.8</ele>
        <time>2022-05-23 05:57:40</time>
      </trkpt>
      <trkpt lat="42.35329" lon="0.82945">
        <ele>1319</ele>
        <time>2022-05-23 05:57:41</time>
      </trkpt>
      <trkpt lat="42.3533" lon="0.82947">
        <ele>1319.2</ele>
        <time>2022-05-23 05:57:42</time>
      </trkpt>
      <trkpt lat="42.35331" lon="0.82949">
        <ele>1319.4</ele>
        <time>2022-05-23 05:57:43</time>
      </trkpt>
      <trkpt lat="42.35333" lon="0.8295">
        <ele>1319.4</ele>
        <time>2022-05-23 05:57:44</time>
      </trkpt>
      <trkpt lat="42.35334" lon="0.82952">
        <ele>1319.6</ele>
        <time>2022-05-23 05:57:45</time>
      </trkpt>
      <trkpt lat="42.35335" lon="0.82954">
        <ele>1319.8</ele>
        <time>2022-05-23 05:57:46</time>
      </trkpt>
      <trkpt lat="42.35336" lon="0.82956">
        <ele>1319.8</ele>
        <time>2022-05-23 05:57:47</time>
      </trkpt>
      <trkpt lat="42.35337" lon="0.82957">
        <ele>1320</ele>
        <time>2022-05-23 05:57:48</time>
      </trkpt>
      <trkpt lat="42.35338" lon="0.8296">
        <ele>1320.2</ele>
        <time>2022-05-23 05:57:49</time>
      </trkpt>
      <trkpt lat="42.35339" lon="0.82961">
        <ele>1320.4</ele>
        <time>2022-05-23 05:57:50</time>
      </trkpt>
      <trkpt lat="42.3534" lon="0.82963">
        <ele>1320.4</ele>
        <time>2022-05-23 05:57:51</time>
      </trkpt>
      <trkpt lat="42.35341" lon="0.82965">
        <ele>1320.6</ele>
        <time>2022-05-23 05:57:52</time>
      </trkpt>
      <trkpt lat="42.35342" lon="0.82968">
        <ele>1320.6</ele>
        <time>2022-05-23 05:57:53</time>
      </trkpt>
      <trkpt lat="42.35343" lon="0.8297">
        <ele>1320.8</ele>
        <time>2022-05-23 05:57:54</time>
      </trkpt>
      <trkpt lat="42.35343" lon="0.82972">
        <ele>1321</ele>
        <time>2022-05-23 05:57:55</time>
      </trkpt>
      <trkpt lat="42.35344" lon="0.82974">
        <ele>1321</ele>
        <time>2022-05-23 05:57:56</time>
      </trkpt>
      <trkpt lat="42.35345" lon="0.82976">
        <ele>1321.2</ele>
        <time>2022-05-23 05:57:57</time>
      </trkpt>
      <trkpt lat="42.35345" lon="0.82978">
        <ele>1321.2</ele>
        <time>2022-05-23 05:57:58</time>
      </trkpt>
      <trkpt lat="42.35346" lon="0.8298">
        <ele>1321.4</ele>
        <time>2022-05-23 05:57:59</time>
      </trkpt>
      <trkpt lat="42.35347" lon="0.82983">
        <ele>1321.4</ele>
        <time>2022-05-23 05:58:00</time>
      </trkpt>
      <trkpt lat="42.35347" lon="0.82985">
        <ele>1321.6</ele>
        <time>2022-05-23 05:58:01</time>
      </trkpt>
      <trkpt lat="42.35348" lon="0.82987">
        <ele>1321.6</ele>
        <time>2022-05-23 05:58:02</time>
      </trkpt>
      <trkpt lat="42.35348" lon="0.82989">
        <ele>1321.8</ele>
        <time>2022-05-23 05:58:03</time>
      </trkpt>
      <trkpt lat="42.35348" lon="0.82992">
        <ele>1321.8</ele>
        <time>2022-05-23 05:58:04</time>
      </trkpt>
      <trkpt lat="42.35349" lon="0.82994">
        <ele>1322</ele>
        <time>2022-05-23 05:58:05</time>
      </trkpt>
      <trkpt lat="42.35349" lon="0.82996">
        <ele>1322.2</ele>
        <time>2022-05-23 05:58:06</time>
      </trkpt>
      <trkpt lat="42.35349" lon="0.82998">
        <ele>1322.2</ele>
        <time>2022-05-23 05:58:07</time>
      </trkpt>
      <trkpt lat="42.3535" lon="0.83001">
        <ele>1322.4</ele>
        <time>2022-05-23 05:58:08</time>
      </trkpt>
      <trkpt lat="42.3535" lon="0.83003">
        <ele>1322.4</ele>
        <time>2022-05-23 05:58:09</time>
      </trkpt>
      <trkpt lat="42.35351" lon="0.83005">
        <ele>1322.6</ele>
        <time>2022-05-23 05:58:10</time>
      </trkpt>
      <trkpt lat="42.35351" lon="0.83007">
        <ele>1322.6</ele>
        <time>2022-05-23 05:58:11</time>
      </trkpt>
      <trkpt lat="42.35351" lon="0.8301">
        <ele>1322.8</ele>
        <time>2022-05-23 05:58:12</time>
      </trkpt>
      <trkpt lat="42.35351" lon="0.83012">
        <ele>1323</ele>
        <time>2022-05-23 05:58:13</time>
      </trkpt>
      <trkpt lat="42.35352" lon="0.83014">
        <ele>1323</ele>
        <time>2022-05-23 05:58:14</time>
      </trkpt>
      <trkpt lat="42.35352" lon="0.83016">
        <ele>1323.2</ele>
        <time>2022-05-23 05:58:15</time>
      </trkpt>
      <trkpt lat="42.35353" lon="0.83019">
        <ele>1323.2</ele>
        <time>2022-05-23 05:58:16</time>
      </trkpt>
      <trkpt lat="42.35353" lon="0.83021">
        <ele>1323.4</ele>
        <time>2022-05-23 05:58:17</time>
      </trkpt>
      <trkpt lat="42.35353" lon="0.83024">
        <ele>1323.6</ele>
        <time>2022-05-23 05:58:18</time>
      </trkpt>
      <trkpt lat="42.35353" lon="0.83026">
        <ele>1323.8</ele>
        <time>2022-05-23 05:58:19</time>
      </trkpt>
      <trkpt lat="42.35354" lon="0.83028">
        <ele>1323.8</ele>
        <time>2022-05-23 05:58:20</time>
      </trkpt>
      <trkpt lat="42.35354" lon="0.83031">
        <ele>1324</ele>
        <time>2022-05-23 05:58:21</time>
      </trkpt>
      <trkpt lat="42.35354" lon="0.83033">
        <ele>1324.2</ele>
        <time>2022-05-23 05:58:22</time>
      </trkpt>
      <trkpt lat="42.35354" lon="0.83035">
        <ele>1324.4</ele>
        <time>2022-05-23 05:58:23</time>
      </trkpt>
      <trkpt lat="42.35355" lon="0.83037">
        <ele>1324.4</ele>
        <time>2022-05-23 05:58:24</time>
      </trkpt>
      <trkpt lat="42.35356" lon="0.83039">
        <ele>1324.6</ele>
        <time>2022-05-23 05:58:25</time>
      </trkpt>
      <trkpt lat="42.35357" lon="0.83041">
        <ele>1324.6</ele>
        <time>2022-05-23 05:58:26</time>
      </trkpt>
      <trkpt lat="42.35357" lon="0.83044">
        <ele>1324.8</ele>
        <time>2022-05-23 05:58:27</time>
      </trkpt>
      <trkpt lat="42.35358" lon="0.83045">
        <ele>1325</ele>
        <time>2022-05-23 05:58:28</time>
      </trkpt>
      <trkpt lat="42.35359" lon="0.83047">
        <ele>1325</ele>
        <time>2022-05-23 05:58:29</time>
      </trkpt>
      <trkpt lat="42.3536" lon="0.83049">
        <ele>1325.2</ele>
        <time>2022-05-23 05:58:30</time>
      </trkpt>
      <trkpt lat="42.35361" lon="0.83051">
        <ele>1325.2</ele>
        <time>2022-05-23 05:58:31</time>
      </trkpt>
      <trkpt lat="42.35362" lon="0.83053">
        <ele>1325.4</ele>
        <time>2022-05-23 05:58:32</time>
      </trkpt>
      <trkpt lat="42.35363" lon="0.83055">
        <ele>1325.6</ele>
        <time>2022-05-23 05:58:33</time>
      </trkpt>
      <trkpt lat="42.35364" lon="0.83056">
        <ele>1325.6</ele>
        <time>2022-05-23 05:58:34</time>
      </trkpt>
      <trkpt lat="42.35365" lon="0.83058">
        <ele>1325.8</ele>
        <time>2022-05-23 05:58:35</time>
      </trkpt>
      <trkpt lat="42.35366" lon="0.8306">
        <ele>1325.8</ele>
        <time>2022-05-23 05:58:36</time>
      </trkpt>
      <trkpt lat="42.35367" lon="0.83062">
        <ele>1326</ele>
        <time>2022-05-23 05:58:37</time>
      </trkpt>
      <trkpt lat="42.35368" lon="0.83064">
        <ele>1326.2</ele>
        <time>2022-05-23 05:58:38</time>
      </trkpt>
      <trkpt lat="42.3537" lon="0.83066">
        <ele>1326.2</ele>
        <time>2022-05-23 05:58:39</time>
      </trkpt>
      <trkpt lat="42.35371" lon="0.83068">
        <ele>1326.4</ele>
        <time>2022-05-23 05:58:40</time>
      </trkpt>
      <trkpt lat="42.35372" lon="0.8307">
        <ele>1326.6</ele>
        <time>2022-05-23 05:58:41</time>
      </trkpt>
      <trkpt lat="42.35373" lon="0.83071">
        <ele>1326.8</ele>
        <time>2022-05-23 05:58:42</time>
      </trkpt>
      <trkpt lat="42.35374" lon="0.83073">
        <ele>1326.8</ele>
        <time>2022-05-23 05:58:43</time>
      </trkpt>
      <trkpt lat="42.35375" lon="0.83075">
        <ele>1327</ele>
        <time>2022-05-23 05:58:44</time>
      </trkpt>
      <trkpt lat="42.35377" lon="0.83076">
        <ele>1327.2</ele>
        <time>2022-05-23 05:58:45</time>
      </trkpt>
      <trkpt lat="42.35378" lon="0.83078">
        <ele>1327.2</ele>
        <time>2022-05-23 05:58:46</time>
      </trkpt>
      <trkpt lat="42.35379" lon="0.83079">
        <ele>1327.4</ele>
        <time>2022-05-23 05:58:47</time>
      </trkpt>
      <trkpt lat="42.3538" lon="0.83081">
        <ele>1327.4</ele>
        <time>2022-05-23 05:58:48</time>
      </trkpt>
      <trkpt lat="42.35381" lon="0.83083">
        <ele>1327.6</ele>
        <time>2022-05-23 05:58:49</time>
      </trkpt>
      <trkpt lat="42.35382" lon="0.83085">
        <ele>1327.8</ele>
        <time>2022-05-23 05:58:50</time>
      </trkpt>
      <trkpt lat="42.35383" lon="0.83086">
        <ele>1327.8</ele>
        <time>2022-05-23 05:58:51</time>
      </trkpt>
      <trkpt lat="42.35384" lon="0.83088">
        <ele>1328</ele>
        <time>2022-05-23 05:58:52</time>
      </trkpt>
      <trkpt lat="42.35385" lon="0.8309">
        <ele>1328.2</ele>
        <time>2022-05-23 05:58:53</time>
      </trkpt>
      <trkpt lat="42.35386" lon="0.83092">
        <ele>1328.2</ele>
        <time>2022-05-23 05:58:54</time>
      </trkpt>
      <trkpt lat="42.35387" lon="0.83093">
        <ele>1328.4</ele>
        <time>2022-05-23 05:58:55</time>
      </trkpt>
      <trkpt lat="42.35388" lon="0.83095">
        <ele>1328.6</ele>
        <time>2022-05-23 05:58:56</time>
      </trkpt>
      <trkpt lat="42.3539" lon="0.83097">
        <ele>1328.6</ele>
        <time>2022-05-23 05:58:57</time>
      </trkpt>
      <trkpt lat="42.35391" lon="0.83098">
        <ele>1328.8</ele>
        <time>2022-05-23 05:58:58</time>
      </trkpt>
      <trkpt lat="42.35392" lon="0.831">
        <ele>1329</ele>
        <time>2022-05-23 05:58:59</time>
      </trkpt>
      <trkpt lat="42.35393" lon="0.83102">
        <ele>1329</ele>
        <time>2022-05-23 05:59:00</time>
      </trkpt>
      <trkpt lat="42.35394" lon="0.83104">
        <ele>1329.2</ele>
        <time>2022-05-23 05:59:01</time>
      </trkpt>
      <trkpt lat="42.35395" lon="0.83106">
        <ele>1329.4</ele>
        <time>2022-05-23 05:59:02</time>
      </trkpt>
      <trkpt lat="42.35396" lon="0.83108">
        <ele>1329.6</ele>
        <time>2022-05-23 05:59:03</time>
      </trkpt>
      <trkpt lat="42.35397" lon="0.83109">
        <ele>1329.6</ele>
        <time>2022-05-23 05:59:04</time>
      </trkpt>
      <trkpt lat="42.35399" lon="0.83111">
        <ele>1329.8</ele>
        <time>2022-05-23 05:59:05</time>
      </trkpt>
      <trkpt lat="42.354" lon="0.83113">
        <ele>1330</ele>
        <time>2022-05-23 05:59:06</time>
      </trkpt>
      <trkpt lat="42.35401" lon="0.83116">
        <ele>1330</ele>
        <time>2022-05-23 05:59:07</time>
      </trkpt>
      <trkpt lat="42.35403" lon="0.83117">
        <ele>1330.2</ele>
        <time>2022-05-23 05:59:08</time>
      </trkpt>
      <trkpt lat="42.35404" lon="0.83119">
        <ele>1330.4</ele>
        <time>2022-05-23 05:59:09</time>
      </trkpt>
      <trkpt lat="42.35405" lon="0.8312">
        <ele>1330.6</ele>
        <time>2022-05-23 05:59:10</time>
      </trkpt>
      <trkpt lat="42.35406" lon="0.83122">
        <ele>1330.6</ele>
        <time>2022-05-23 05:59:11</time>
      </trkpt>
      <trkpt lat="42.35408" lon="0.83124">
        <ele>1330.8</ele>
        <time>2022-05-23 05:59:12</time>
      </trkpt>
      <trkpt lat="42.35409" lon="0.83126">
        <ele>1331</ele>
        <time>2022-05-23 05:59:13</time>
      </trkpt>
      <trkpt lat="42.3541" lon="0.83127">
        <ele>1331.2</ele>
        <time>2022-05-23 05:59:14</time>
      </trkpt>
      <trkpt lat="42.35411" lon="0.83129">
        <ele>1331.4</ele>
        <time>2022-05-23 05:59:15</time>
      </trkpt>
      <trkpt lat="42.35413" lon="0.83131">
        <ele>1331.4</ele>
        <time>2022-05-23 05:59:16</time>
      </trkpt>
      <trkpt lat="42.35414" lon="0.83132">
        <ele>1331.6</ele>
        <time>2022-05-23 05:59:17</time>
      </trkpt>
      <trkpt lat="42.35415" lon="0.83134">
        <ele>1331.8</ele>
        <time>2022-05-23 05:59:18</time>
      </trkpt>
      <trkpt lat="42.35416" lon="0.83135">
        <ele>1332</ele>
        <time>2022-05-23 05:59:19</time>
      </trkpt>
      <trkpt lat="42.35418" lon="0.83137">
        <ele>1332.2</ele>
        <time>2022-05-23 05:59:20</time>
      </trkpt>
      <trkpt lat="42.35419" lon="0.83138">
        <ele>1332.2</ele>
        <time>2022-05-23 05:59:21</time>
      </trkpt>
      <trkpt lat="42.35421" lon="0.83139">
        <ele>1332.4</ele>
        <time>2022-05-23 05:59:22</time>
      </trkpt>
      <trkpt lat="42.35423" lon="0.8314">
        <ele>1332.6</ele>
        <time>2022-05-23 05:59:23</time>
      </trkpt>
      <trkpt lat="42.35424" lon="0.83141">
        <ele>1332.8</ele>
        <time>2022-05-23 05:59:24</time>
      </trkpt>
      <trkpt lat="42.35425" lon="0.83143">
        <ele>1332.8</ele>
        <time>2022-05-23 05:59:25</time>
      </trkpt>
      <trkpt lat="42.35426" lon="0.83144">
        <ele>1333</ele>
        <time>2022-05-23 05:59:26</time>
      </trkpt>
      <trkpt lat="42.35428" lon="0.83146">
        <ele>1333.2</ele>
        <time>2022-05-23 05:59:27</time>
      </trkpt>
      <trkpt lat="42.35429" lon="0.83147">
        <ele>1333.4</ele>
        <time>2022-05-23 05:59:28</time>
      </trkpt>
      <trkpt lat="42.35431" lon="0.83148">
        <ele>1333.4</ele>
        <time>2022-05-23 05:59:29</time>
      </trkpt>
      <trkpt lat="42.35433" lon="0.83148">
        <ele>1333.6</ele>
        <time>2022-05-23 05:59:30</time>
      </trkpt>
      <trkpt lat="42.35434" lon="0.83149">
        <ele>1333.8</ele>
        <time>2022-05-23 05:59:31</time>
      </trkpt>
      <trkpt lat="42.35437" lon="0.8315">
        <ele>1333.8</ele>
        <time>2022-05-23 05:59:32</time>
      </trkpt>
      <trkpt lat="42.35438" lon="0.83151">
        <ele>1334</ele>
        <time>2022-05-23 05:59:33</time>
      </trkpt>
      <trkpt lat="42.3544" lon="0.83152">
        <ele>1334.2</ele>
        <time>2022-05-23 05:59:34</time>
      </trkpt>
      <trkpt lat="42.35442" lon="0.83153">
        <ele>1334.4</ele>
        <time>2022-05-23 05:59:35</time>
      </trkpt>
      <trkpt lat="42.35444" lon="0.83153">
        <ele>1334.6</ele>
        <time>2022-05-23 05:59:36</time>
      </trkpt>
      <trkpt lat="42.35446" lon="0.83154">
        <ele>1334.6</ele>
        <time>2022-05-23 05:59:37</time>
      </trkpt>
      <trkpt lat="42.35448" lon="0.83154">
        <ele>1334.8</ele>
        <time>2022-05-23 05:59:38</time>
      </trkpt>
      <trkpt lat="42.35449" lon="0.83155">
        <ele>1335</ele>
        <time>2022-05-23 05:59:39</time>
      </trkpt>
      <trkpt lat="42.35451" lon="0.83155">
        <ele>1335.2</ele>
        <time>2022-05-23 05:59:40</time>
      </trkpt>
      <trkpt lat="42.35453" lon="0.83154">
        <ele>1335.2</ele>
        <time>2022-05-23 05:59:41</time>
      </trkpt>
      <trkpt lat="42.35455" lon="0.83154">
        <ele>1335.4</ele>
        <time>2022-05-23 05:59:42</time>
      </trkpt>
      <trkpt lat="42.35457" lon="0.83154">
        <ele>1335.4</ele>
        <time>2022-05-23 05:59:43</time>
      </trkpt>
      <trkpt lat="42.35458" lon="0.83154">
        <ele>1335.6</ele>
        <time>2022-05-23 05:59:44</time>
      </trkpt>
      <trkpt lat="42.3546" lon="0.83154">
        <ele>1335.8</ele>
        <time>2022-05-23 05:59:45</time>
      </trkpt>
      <trkpt lat="42.35462" lon="0.83154">
        <ele>1335.8</ele>
        <time>2022-05-23 05:59:46</time>
      </trkpt>
      <trkpt lat="42.35463" lon="0.83153">
        <ele>1336</ele>
        <time>2022-05-23 05:59:47</time>
      </trkpt>
      <trkpt lat="42.35465" lon="0.83153">
        <ele>1336.2</ele>
        <time>2022-05-23 05:59:48</time>
      </trkpt>
      <trkpt lat="42.35467" lon="0.83153">
        <ele>1336.2</ele>
        <time>2022-05-23 05:59:49</time>
      </trkpt>
      <trkpt lat="42.35469" lon="0.83153">
        <ele>1336.4</ele>
        <time>2022-05-23 05:59:50</time>
      </trkpt>
      <trkpt lat="42.3547" lon="0.83152">
        <ele>1336.6</ele>
        <time>2022-05-23 05:59:51</time>
      </trkpt>
      <trkpt lat="42.35472" lon="0.83152">
        <ele>1336.6</ele>
        <time>2022-05-23 05:59:52</time>
      </trkpt>
      <trkpt lat="42.35474" lon="0.83151">
        <ele>1336.8</ele>
        <time>2022-05-23 05:59:53</time>
      </trkpt>
      <trkpt lat="42.35476" lon="0.83151">
        <ele>1337</ele>
        <time>2022-05-23 05:59:54</time>
      </trkpt>
      <trkpt lat="42.35478" lon="0.83151">
        <ele>1337</ele>
        <time>2022-05-23 05:59:55</time>
      </trkpt>
      <trkpt lat="42.3548" lon="0.83151">
        <ele>1337.2</ele>
        <time>2022-05-23 05:59:56</time>
      </trkpt>
      <trkpt lat="42.35482" lon="0.83151">
        <ele>1337.4</ele>
        <time>2022-05-23 05:59:57</time>
      </trkpt>
      <trkpt lat="42.35483" lon="0.83151">
        <ele>1337.4</ele>
        <time>2022-05-23 05:59:58</time>
      </trkpt>
      <trkpt lat="42.35485" lon="0.83152">
        <ele>1337.6</ele>
        <time>2022-05-23 05:59:59</time>
      </trkpt>
      <trkpt lat="42.35487" lon="0.83152">
        <ele>1337.8</ele>
        <time>2022-05-23 06:00:00</time>
      </trkpt>
      <trkpt lat="42.35489" lon="0.83153">
        <ele>1338</ele>
        <time>2022-05-23 06:00:01</time>
      </trkpt>
      <trkpt lat="42.3549" lon="0.83154">
        <ele>1338</ele>
        <time>2022-05-23 06:00:02</time>
      </trkpt>
      <trkpt lat="42.35492" lon="0.83154">
        <ele>1338.2</ele>
        <time>2022-05-23 06:00:03</time>
      </trkpt>
      <trkpt lat="42.35494" lon="0.83154">
        <ele>1338.4</ele>
        <time>2022-05-23 06:00:04</time>
      </trkpt>
      <trkpt lat="42.35495" lon="0.83155">
        <ele>1338.4</ele>
        <time>2022-05-23 06:00:05</time>
      </trkpt>
      <trkpt lat="42.35497" lon="0.83155">
        <ele>1338.6</ele>
        <time>2022-05-23 06:00:06</time>
      </trkpt>
      <trkpt lat="42.35499" lon="0.83155">
        <ele>1338.6</ele>
        <time>2022-05-23 06:00:07</time>
      </trkpt>
      <trkpt lat="42.355" lon="0.83156">
        <ele>1338.8</ele>
        <time>2022-05-23 06:00:08</time>
      </trkpt>
      <trkpt lat="42.35502" lon="0.83157">
        <ele>1338.8</ele>
        <time>2022-05-23 06:00:09</time>
      </trkpt>
      <trkpt lat="42.35504" lon="0.83158">
        <ele>1339</ele>
        <time>2022-05-23 06:00:10</time>
      </trkpt>
      <trkpt lat="42.35506" lon="0.83159">
        <ele>1339.2</ele>
        <time>2022-05-23 06:00:11</time>
      </trkpt>
      <trkpt lat="42.35508" lon="0.8316">
        <ele>1339.4</ele>
        <time>2022-05-23 06:00:12</time>
      </trkpt>
      <trkpt lat="42.35509" lon="0.83162">
        <ele>1339.4</ele>
        <time>2022-05-23 06:00:13</time>
      </trkpt>
      <trkpt lat="42.35511" lon="0.83163">
        <ele>1339.6</ele>
        <time>2022-05-23 06:00:14</time>
      </trkpt>
      <trkpt lat="42.35512" lon="0.83164">
        <ele>1339.8</ele>
        <time>2022-05-23 06:00:15</time>
      </trkpt>
      <trkpt lat="42.35514" lon="0.83165">
        <ele>1340</ele>
        <time>2022-05-23 06:00:16</time>
      </trkpt>
      <trkpt lat="42.35515" lon="0.83166">
        <ele>1340</ele>
        <time>2022-05-23 06:00:17</time>
      </trkpt>
      <trkpt lat="42.35517" lon="0.83168">
        <ele>1340.2</ele>
        <time>2022-05-23 06:00:18</time>
      </trkpt>
      <trkpt lat="42.35518" lon="0.83169">
        <ele>1340.4</ele>
        <time>2022-05-23 06:00:19</time>
      </trkpt>
      <trkpt lat="42.3552" lon="0.83171">
        <ele>1340.6</ele>
        <time>2022-05-23 06:00:20</time>
      </trkpt>
      <trkpt lat="42.35521" lon="0.83172">
        <ele>1340.8</ele>
        <time>2022-05-23 06:00:21</time>
      </trkpt>
      <trkpt lat="42.35523" lon="0.83174">
        <ele>1341</ele>
        <time>2022-05-23 06:00:22</time>
      </trkpt>
      <trkpt lat="42.35524" lon="0.83175">
        <ele>1341.2</ele>
        <time>2022-05-23 06:00:23</time>
      </trkpt>
      <trkpt lat="42.35526" lon="0.83177">
        <ele>1341.4</ele>
        <time>2022-05-23 06:00:24</time>
      </trkpt>
      <trkpt lat="42.35527" lon="0.83178">
        <ele>1341.6</ele>
        <time>2022-05-23 06:00:25</time>
      </trkpt>
      <trkpt lat="42.35528" lon="0.8318">
        <ele>1341.8</ele>
        <time>2022-05-23 06:00:26</time>
      </trkpt>
      <trkpt lat="42.3553" lon="0.83181">
        <ele>1341.8</ele>
        <time>2022-05-23 06:00:27</time>
      </trkpt>
      <trkpt lat="42.35532" lon="0.83183">
        <ele>1342</ele>
        <time>2022-05-23 06:00:28</time>
      </trkpt>
      <trkpt lat="42.35534" lon="0.83184">
        <ele>1342.2</ele>
        <time>2022-05-23 06:00:29</time>
      </trkpt>
      <trkpt lat="42.35536" lon="0.83185">
        <ele>1342.4</ele>
        <time>2022-05-23 06:00:30</time>
      </trkpt>
      <trkpt lat="42.35537" lon="0.83187">
        <ele>1342.6</ele>
        <time>2022-05-23 06:00:31</time>
      </trkpt>
      <trkpt lat="42.35539" lon="0.83188">
        <ele>1342.6</ele>
        <time>2022-05-23 06:00:32</time>
      </trkpt>
      <trkpt lat="42.35541" lon="0.83189">
        <ele>1342.8</ele>
        <time>2022-05-23 06:00:33</time>
      </trkpt>
      <trkpt lat="42.35542" lon="0.83191">
        <ele>1343</ele>
        <time>2022-05-23 06:00:34</time>
      </trkpt>
      <trkpt lat="42.35544" lon="0.83192">
        <ele>1343.2</ele>
        <time>2022-05-23 06:00:35</time>
      </trkpt>
      <trkpt lat="42.35546" lon="0.83193">
        <ele>1343.2</ele>
        <time>2022-05-23 06:00:36</time>
      </trkpt>
      <trkpt lat="42.35547" lon="0.83194">
        <ele>1343.4</ele>
        <time>2022-05-23 06:00:37</time>
      </trkpt>
      <trkpt lat="42.35549" lon="0.83195">
        <ele>1343.6</ele>
        <time>2022-05-23 06:00:38</time>
      </trkpt>
      <trkpt lat="42.3555" lon="0.83195">
        <ele>1343.8</ele>
        <time>2022-05-23 06:00:39</time>
      </trkpt>
      <trkpt lat="42.35552" lon="0.83196">
        <ele>1343.8</ele>
        <time>2022-05-23 06:00:40</time>
      </trkpt>
      <trkpt lat="42.35554" lon="0.83196">
        <ele>1344</ele>
        <time>2022-05-23 06:00:41</time>
      </trkpt>
      <trkpt lat="42.35556" lon="0.83197">
        <ele>1344</ele>
        <time>2022-05-23 06:00:42</time>
      </trkpt>
      <trkpt lat="42.35557" lon="0.83197">
        <ele>1344.2</ele>
        <time>2022-05-23 06:00:43</time>
      </trkpt>
      <trkpt lat="42.35559" lon="0.83198">
        <ele>1344.4</ele>
        <time>2022-05-23 06:00:44</time>
      </trkpt>
      <trkpt lat="42.3556" lon="0.83199">
        <ele>1344.4</ele>
        <time>2022-05-23 06:00:45</time>
      </trkpt>
      <trkpt lat="42.35562" lon="0.83199">
        <ele>1344.6</ele>
        <time>2022-05-23 06:00:46</time>
      </trkpt>
      <trkpt lat="42.35564" lon="0.832">
        <ele>1344.8</ele>
        <time>2022-05-23 06:00:47</time>
      </trkpt>
      <trkpt lat="42.35566" lon="0.832">
        <ele>1344.8</ele>
        <time>2022-05-23 06:00:48</time>
      </trkpt>
      <trkpt lat="42.35568" lon="0.83201">
        <ele>1345</ele>
        <time>2022-05-23 06:00:49</time>
      </trkpt>
      <trkpt lat="42.35569" lon="0.83201">
        <ele>1345</ele>
        <time>2022-05-23 06:00:50</time>
      </trkpt>
      <trkpt lat="42.35571" lon="0.83201">
        <ele>1345.2</ele>
        <time>2022-05-23 06:00:51</time>
      </trkpt>
      <trkpt lat="42.35573" lon="0.83202">
        <ele>1345.4</ele>
        <time>2022-05-23 06:00:52</time>
      </trkpt>
      <trkpt lat="42.35574" lon="0.83202">
        <ele>1345.6</ele>
        <time>2022-05-23 06:00:53</time>
      </trkpt>
      <trkpt lat="42.35576" lon="0.83203">
        <ele>1345.6</ele>
        <time>2022-05-23 06:00:54</time>
      </trkpt>
      <trkpt lat="42.35577" lon="0.83203">
        <ele>1345.8</ele>
        <time>2022-05-23 06:00:55</time>
      </trkpt>
      <trkpt lat="42.35579" lon="0.83204">
        <ele>1346</ele>
        <time>2022-05-23 06:00:56</time>
      </trkpt>
      <trkpt lat="42.35581" lon="0.83205">
        <ele>1346.2</ele>
        <time>2022-05-23 06:00:57</time>
      </trkpt>
      <trkpt lat="42.35582" lon="0.83206">
        <ele>1346.4</ele>
        <time>2022-05-23 06:00:58</time>
      </trkpt>
      <trkpt lat="42.35584" lon="0.83207">
        <ele>1346.4</ele>
        <time>2022-05-23 06:00:59</time>
      </trkpt>
      <trkpt lat="42.35585" lon="0.83208">
        <ele>1346.6</ele>
        <time>2022-05-23 06:01:00</time>
      </trkpt>
      <trkpt lat="42.35587" lon="0.83209">
        <ele>1346.8</ele>
        <time>2022-05-23 06:01:01</time>
      </trkpt>
      <trkpt lat="42.35589" lon="0.8321">
        <ele>1347</ele>
        <time>2022-05-23 06:01:02</time>
      </trkpt>
      <trkpt lat="42.3559" lon="0.83212">
        <ele>1347</ele>
        <time>2022-05-23 06:01:03</time>
      </trkpt>
      <trkpt lat="42.35592" lon="0.83213">
        <ele>1347.2</ele>
        <time>2022-05-23 06:01:04</time>
      </trkpt>
      <trkpt lat="42.35593" lon="0.83214">
        <ele>1347.4</ele>
        <time>2022-05-23 06:01:05</time>
      </trkpt>
      <trkpt lat="42.35594" lon="0.83216">
        <ele>1347.4</ele>
        <time>2022-05-23 06:01:06</time>
      </trkpt>
      <trkpt lat="42.35596" lon="0.83218">
        <ele>1347.6</ele>
        <time>2022-05-23 06:01:07</time>
      </trkpt>
      <trkpt lat="42.35597" lon="0.83219">
        <ele>1347.8</ele>
        <time>2022-05-23 06:01:08</time>
      </trkpt>
      <trkpt lat="42.35598" lon="0.8322">
        <ele>1347.8</ele>
        <time>2022-05-23 06:01:09</time>
      </trkpt>
      <trkpt lat="42.356" lon="0.83222">
        <ele>1348</ele>
        <time>2022-05-23 06:01:10</time>
      </trkpt>
      <trkpt lat="42.35601" lon="0.83224">
        <ele>1348.2</ele>
        <time>2022-05-23 06:01:11</time>
      </trkpt>
      <trkpt lat="42.35603" lon="0.83225">
        <ele>1348.4</ele>
        <time>2022-05-23 06:01:12</time>
      </trkpt>
      <trkpt lat="42.35604" lon="0.83227">
        <ele>1348.4</ele>
        <time>2022-05-23 06:01:13</time>
      </trkpt>
      <trkpt lat="42.35605" lon="0.83229">
        <ele>1348.6</ele>
        <time>2022-05-23 06:01:14</time>
      </trkpt>
      <trkpt lat="42.35606" lon="0.8323">
        <ele>1348.8</ele>
        <time>2022-05-23 06:01:15</time>
      </trkpt>
      <trkpt lat="42.35607" lon="0.83232">
        <ele>1348.8</ele>
        <time>2022-05-23 06:01:16</time>
      </trkpt>
      <trkpt lat="42.35609" lon="0.83233">
        <ele>1349</ele>
        <time>2022-05-23 06:01:17</time>
      </trkpt>
      <trkpt lat="42.3561" lon="0.83235">
        <ele>1349.2</ele>
        <time>2022-05-23 06:01:18</time>
      </trkpt>
      <trkpt lat="42.35611" lon="0.83236">
        <ele>1349.4</ele>
        <time>2022-05-23 06:01:19</time>
      </trkpt>
      <trkpt lat="42.35613" lon="0.83237">
        <ele>1349.4</ele>
        <time>2022-05-23 06:01:20</time>
      </trkpt>
      <trkpt lat="42.35614" lon="0.83239">
        <ele>1349.6</ele>
        <time>2022-05-23 06:01:21</time>
      </trkpt>
      <trkpt lat="42.35616" lon="0.8324">
        <ele>1349.8</ele>
        <time>2022-05-23 06:01:22</time>
      </trkpt>
      <trkpt lat="42.35617" lon="0.83242">
        <ele>1350</ele>
        <time>2022-05-23 06:01:23</time>
      </trkpt>
      <trkpt lat="42.35618" lon="0.83244">
        <ele>1350</ele>
        <time>2022-05-23 06:01:24</time>
      </trkpt>
      <trkpt lat="42.35619" lon="0.83246">
        <ele>1350.2</ele>
        <time>2022-05-23 06:01:25</time>
      </trkpt>
      <trkpt lat="42.35621" lon="0.83247">
        <ele>1350.4</ele>
        <time>2022-05-23 06:01:26</time>
      </trkpt>
      <trkpt lat="42.35622" lon="0.83249">
        <ele>1350.6</ele>
        <time>2022-05-23 06:01:27</time>
      </trkpt>
      <trkpt lat="42.35623" lon="0.8325">
        <ele>1350.8</ele>
        <time>2022-05-23 06:01:28</time>
      </trkpt>
      <trkpt lat="42.35624" lon="0.83251">
        <ele>1350.8</ele>
        <time>2022-05-23 06:01:29</time>
      </trkpt>
      <trkpt lat="42.35626" lon="0.83253">
        <ele>1351</ele>
        <time>2022-05-23 06:01:30</time>
      </trkpt>
      <trkpt lat="42.35627" lon="0.83254">
        <ele>1351.2</ele>
        <time>2022-05-23 06:01:31</time>
      </trkpt>
      <trkpt lat="42.35629" lon="0.83255">
        <ele>1351.4</ele>
        <time>2022-05-23 06:01:32</time>
      </trkpt>
      <trkpt lat="42.3563" lon="0.83256">
        <ele>1351.4</ele>
        <time>2022-05-23 06:01:33</time>
      </trkpt>
      <trkpt lat="42.35632" lon="0.83257">
        <ele>1351.6</ele>
        <time>2022-05-23 06:01:34</time>
      </trkpt>
      <trkpt lat="42.35633" lon="0.83258">
        <ele>1351.8</ele>
        <time>2022-05-23 06:01:35</time>
      </trkpt>
      <trkpt lat="42.35635" lon="0.83259">
        <ele>1352</ele>
        <time>2022-05-23 06:01:36</time>
      </trkpt>
      <trkpt lat="42.35636" lon="0.8326">
        <ele>1352</ele>
        <time>2022-05-23 06:01:37</time>
      </trkpt>
      <trkpt lat="42.35638" lon="0.8326">
        <ele>1352.2</ele>
        <time>2022-05-23 06:01:38</time>
      </trkpt>
      <trkpt lat="42.35639" lon="0.83261">
        <ele>1352.4</ele>
        <time>2022-05-23 06:01:39</time>
      </trkpt>
      <trkpt lat="42.35641" lon="0.83262">
        <ele>1352.4</ele>
        <time>2022-05-23 06:01:40</time>
      </trkpt>
      <trkpt lat="42.35643" lon="0.83263">
        <ele>1352.6</ele>
        <time>2022-05-23 06:01:41</time>
      </trkpt>
      <trkpt lat="42.35644" lon="0.83264">
        <ele>1352.8</ele>
        <time>2022-05-23 06:01:42</time>
      </trkpt>
      <trkpt lat="42.35646" lon="0.83265">
        <ele>1353</ele>
        <time>2022-05-23 06:01:43</time>
      </trkpt>
      <trkpt lat="42.35647" lon="0.83265">
        <ele>1353</ele>
        <time>2022-05-23 06:01:44</time>
      </trkpt>
      <trkpt lat="42.35649" lon="0.83265">
        <ele>1353.2</ele>
        <time>2022-05-23 06:01:45</time>
      </trkpt>
      <trkpt lat="42.35651" lon="0.83266">
        <ele>1353.4</ele>
        <time>2022-05-23 06:01:46</time>
      </trkpt>
      <trkpt lat="42.35652" lon="0.83266">
        <ele>1353.4</ele>
        <time>2022-05-23 06:01:47</time>
      </trkpt>
      <trkpt lat="42.35654" lon="0.83267">
        <ele>1353.6</ele>
        <time>2022-05-23 06:01:48</time>
      </trkpt>
      <trkpt lat="42.35656" lon="0.83268">
        <ele>1353.6</ele>
        <time>2022-05-23 06:01:49</time>
      </trkpt>
      <trkpt lat="42.35658" lon="0.83268">
        <ele>1353.8</ele>
        <time>2022-05-23 06:01:50</time>
      </trkpt>
      <trkpt lat="42.35659" lon="0.83269">
        <ele>1354</ele>
        <time>2022-05-23 06:01:51</time>
      </trkpt>
      <trkpt lat="42.35661" lon="0.83269">
        <ele>1354</ele>
        <time>2022-05-23 06:01:52</time>
      </trkpt>
      <trkpt lat="42.35663" lon="0.8327">
        <ele>1354.2</ele>
        <time>2022-05-23 06:01:53</time>
      </trkpt>
      <trkpt lat="42.35664" lon="0.83271">
        <ele>1354.4</ele>
        <time>2022-05-23 06:01:54</time>
      </trkpt>
      <trkpt lat="42.35666" lon="0.83271">
        <ele>1354.4</ele>
        <time>2022-05-23 06:01:55</time>
      </trkpt>
      <trkpt lat="42.35668" lon="0.83271">
        <ele>1354.6</ele>
        <time>2022-05-23 06:01:56</time>
      </trkpt>
      <trkpt lat="42.35669" lon="0.83271">
        <ele>1354.8</ele>
        <time>2022-05-23 06:01:57</time>
      </trkpt>
      <trkpt lat="42.35671" lon="0.83271">
        <ele>1355</ele>
        <time>2022-05-23 06:01:58</time>
      </trkpt>
      <trkpt lat="42.35673" lon="0.83271">
        <ele>1355</ele>
        <time>2022-05-23 06:01:59</time>
      </trkpt>
      <trkpt lat="42.35675" lon="0.83271">
        <ele>1355.2</ele>
        <time>2022-05-23 06:02:00</time>
      </trkpt>
      <trkpt lat="42.35676" lon="0.83271">
        <ele>1355.4</ele>
        <time>2022-05-23 06:02:01</time>
      </trkpt>
      <trkpt lat="42.35678" lon="0.83272">
        <ele>1355.4</ele>
        <time>2022-05-23 06:02:02</time>
      </trkpt>
      <trkpt lat="42.3568" lon="0.83272">
        <ele>1355.6</ele>
        <time>2022-05-23 06:02:03</time>
      </trkpt>
      <trkpt lat="42.35681" lon="0.83273">
        <ele>1355.6</ele>
        <time>2022-05-23 06:02:04</time>
      </trkpt>
      <trkpt lat="42.35683" lon="0.83274">
        <ele>1355.8</ele>
        <time>2022-05-23 06:02:05</time>
      </trkpt>
      <trkpt lat="42.35685" lon="0.83274">
        <ele>1356</ele>
        <time>2022-05-23 06:02:06</time>
      </trkpt>
      <trkpt lat="42.35686" lon="0.83274">
        <ele>1356</ele>
        <time>2022-05-23 06:02:07</time>
      </trkpt>
      <trkpt lat="42.35688" lon="0.83275">
        <ele>1356.2</ele>
        <time>2022-05-23 06:02:08</time>
      </trkpt>
      <trkpt lat="42.3569" lon="0.83275">
        <ele>1356.4</ele>
        <time>2022-05-23 06:02:09</time>
      </trkpt>
      <trkpt lat="42.35691" lon="0.83276">
        <ele>1356.6</ele>
        <time>2022-05-23 06:02:10</time>
      </trkpt>
      <trkpt lat="42.35693" lon="0.83277">
        <ele>1356.6</ele>
        <time>2022-05-23 06:02:11</time>
      </trkpt>
      <trkpt lat="42.35695" lon="0.83277">
        <ele>1356.8</ele>
        <time>2022-05-23 06:02:12</time>
      </trkpt>
      <trkpt lat="42.35696" lon="0.83278">
        <ele>1357</ele>
        <time>2022-05-23 06:02:13</time>
      </trkpt>
      <trkpt lat="42.35698" lon="0.83279">
        <ele>1357</ele>
        <time>2022-05-23 06:02:14</time>
      </trkpt>
      <trkpt lat="42.357" lon="0.8328">
        <ele>1357.2</ele>
        <time>2022-05-23 06:02:15</time>
      </trkpt>
      <trkpt lat="42.35701" lon="0.83281">
        <ele>1357.2</ele>
        <time>2022-05-23 06:02:16</time>
      </trkpt>
      <trkpt lat="42.35703" lon="0.83282">
        <ele>1357.4</ele>
        <time>2022-05-23 06:02:17</time>
      </trkpt>
      <trkpt lat="42.35705" lon="0.83283">
        <ele>1357.6</ele>
        <time>2022-05-23 06:02:18</time>
      </trkpt>
      <trkpt lat="42.35706" lon="0.83285">
        <ele>1357.8</ele>
        <time>2022-05-23 06:02:19</time>
      </trkpt>
      <trkpt lat="42.35708" lon="0.83286">
        <ele>1357.8</ele>
        <time>2022-05-23 06:02:20</time>
      </trkpt>
      <trkpt lat="42.35709" lon="0.83288">
        <ele>1358</ele>
        <time>2022-05-23 06:02:21</time>
      </trkpt>
      <trkpt lat="42.3571" lon="0.8329">
        <ele>1358.2</ele>
        <time>2022-05-23 06:02:22</time>
      </trkpt>
      <trkpt lat="42.35711" lon="0.83292">
        <ele>1358.4</ele>
        <time>2022-05-23 06:02:23</time>
      </trkpt>
      <trkpt lat="42.35712" lon="0.83294">
        <ele>1358.4</ele>
        <time>2022-05-23 06:02:24</time>
      </trkpt>
      <trkpt lat="42.35713" lon="0.83297">
        <ele>1358.6</ele>
        <time>2022-05-23 06:02:25</time>
      </trkpt>
      <trkpt lat="42.35714" lon="0.83299">
        <ele>1358.8</ele>
        <time>2022-05-23 06:02:26</time>
      </trkpt>
      <trkpt lat="42.35715" lon="0.83301">
        <ele>1359</ele>
        <time>2022-05-23 06:02:27</time>
      </trkpt>
      <trkpt lat="42.35716" lon="0.83303">
        <ele>1359.2</ele>
        <time>2022-05-23 06:02:28</time>
      </trkpt>
      <trkpt lat="42.35716" lon="0.83305">
        <ele>1359.2</ele>
        <time>2022-05-23 06:02:29</time>
      </trkpt>
      <trkpt lat="42.35716" lon="0.83308">
        <ele>1359.4</ele>
        <time>2022-05-23 06:02:30</time>
      </trkpt>
      <trkpt lat="42.35716" lon="0.83311">
        <ele>1359.6</ele>
        <time>2022-05-23 06:02:31</time>
      </trkpt>
      <trkpt lat="42.35716" lon="0.83313">
        <ele>1359.8</ele>
        <time>2022-05-23 06:02:32</time>
      </trkpt>
      <trkpt lat="42.35716" lon="0.83315">
        <ele>1360</ele>
        <time>2022-05-23 06:02:33</time>
      </trkpt>
      <trkpt lat="42.35716" lon="0.83318">
        <ele>1360</ele>
        <time>2022-05-23 06:02:34</time>
      </trkpt>
      <trkpt lat="42.35716" lon="0.8332">
        <ele>1360.2</ele>
        <time>2022-05-23 06:02:35</time>
      </trkpt>
      <trkpt lat="42.35716" lon="0.83323">
        <ele>1360.4</ele>
        <time>2022-05-23 06:02:36</time>
      </trkpt>
      <trkpt lat="42.35715" lon="0.83325">
        <ele>1360.6</ele>
        <time>2022-05-23 06:02:37</time>
      </trkpt>
      <trkpt lat="42.35715" lon="0.83327">
        <ele>1360.8</ele>
        <time>2022-05-23 06:02:38</time>
      </trkpt>
      <trkpt lat="42.35714" lon="0.83329">
        <ele>1360.8</ele>
        <time>2022-05-23 06:02:39</time>
      </trkpt>
      <trkpt lat="42.35714" lon="0.83332">
        <ele>1361</ele>
        <time>2022-05-23 06:02:40</time>
      </trkpt>
      <trkpt lat="42.35713" lon="0.83334">
        <ele>1361.2</ele>
        <time>2022-05-23 06:02:41</time>
      </trkpt>
      <trkpt lat="42.35712" lon="0.83335">
        <ele>1361.4</ele>
        <time>2022-05-23 06:02:42</time>
      </trkpt>
      <trkpt lat="42.35711" lon="0.83337">
        <ele>1361.6</ele>
        <time>2022-05-23 06:02:43</time>
      </trkpt>
      <trkpt lat="42.3571" lon="0.83339">
        <ele>1361.8</ele>
        <time>2022-05-23 06:02:44</time>
      </trkpt>
      <trkpt lat="42.3571" lon="0.83341">
        <ele>1362</ele>
        <time>2022-05-23 06:02:45</time>
      </trkpt>
      <trkpt lat="42.35709" lon="0.83343">
        <ele>1362</ele>
        <time>2022-05-23 06:02:46</time>
      </trkpt>
      <trkpt lat="42.35708" lon="0.83345">
        <ele>1362.2</ele>
        <time>2022-05-23 06:02:47</time>
      </trkpt>
      <trkpt lat="42.35707" lon="0.83347">
        <ele>1362.4</ele>
        <time>2022-05-23 06:02:48</time>
      </trkpt>
      <trkpt lat="42.35706" lon="0.83349">
        <ele>1362.6</ele>
        <time>2022-05-23 06:02:49</time>
      </trkpt>
      <trkpt lat="42.35705" lon="0.83351">
        <ele>1362.6</ele>
        <time>2022-05-23 06:02:50</time>
      </trkpt>
      <trkpt lat="42.35704" lon="0.83353">
        <ele>1362.8</ele>
        <time>2022-05-23 06:02:51</time>
      </trkpt>
      <trkpt lat="42.35703" lon="0.83355">
        <ele>1363</ele>
        <time>2022-05-23 06:02:52</time>
      </trkpt>
      <trkpt lat="42.35702" lon="0.83357">
        <ele>1363.2</ele>
        <time>2022-05-23 06:02:53</time>
      </trkpt>
      <trkpt lat="42.35702" lon="0.8336">
        <ele>1363.2</ele>
        <time>2022-05-23 06:02:54</time>
      </trkpt>
      <trkpt lat="42.35702" lon="0.83362">
        <ele>1363.4</ele>
        <time>2022-05-23 06:02:55</time>
      </trkpt>
      <trkpt lat="42.35701" lon="0.83364">
        <ele>1363.6</ele>
        <time>2022-05-23 06:02:56</time>
      </trkpt>
      <trkpt lat="42.35701" lon="0.83367">
        <ele>1363.8</ele>
        <time>2022-05-23 06:02:57</time>
      </trkpt>
      <trkpt lat="42.357" lon="0.83369">
        <ele>1363.8</ele>
        <time>2022-05-23 06:02:58</time>
      </trkpt>
      <trkpt lat="42.357" lon="0.83371">
        <ele>1364</ele>
        <time>2022-05-23 06:02:59</time>
      </trkpt>
      <trkpt lat="42.35699" lon="0.83373">
        <ele>1364.2</ele>
        <time>2022-05-23 06:03:00</time>
      </trkpt>
      <trkpt lat="42.35699" lon="0.83375">
        <ele>1364.4</ele>
        <time>2022-05-23 06:03:01</time>
      </trkpt>
      <trkpt lat="42.35698" lon="0.83378">
        <ele>1364.4</ele>
        <time>2022-05-23 06:03:02</time>
      </trkpt>
      <trkpt lat="42.35698" lon="0.8338">
        <ele>1364.6</ele>
        <time>2022-05-23 06:03:03</time>
      </trkpt>
      <trkpt lat="42.35698" lon="0.83382">
        <ele>1364.8</ele>
        <time>2022-05-23 06:03:04</time>
      </trkpt>
      <trkpt lat="42.35698" lon="0.83385">
        <ele>1364.8</ele>
        <time>2022-05-23 06:03:05</time>
      </trkpt>
      <trkpt lat="42.35698" lon="0.83387">
        <ele>1365</ele>
        <time>2022-05-23 06:03:06</time>
      </trkpt>
      <trkpt lat="42.35698" lon="0.8339">
        <ele>1365.2</ele>
        <time>2022-05-23 06:03:07</time>
      </trkpt>
      <trkpt lat="42.35698" lon="0.83392">
        <ele>1365.4</ele>
        <time>2022-05-23 06:03:08</time>
      </trkpt>
      <trkpt lat="42.35698" lon="0.83394">
        <ele>1365.4</ele>
        <time>2022-05-23 06:03:09</time>
      </trkpt>
      <trkpt lat="42.35698" lon="0.83397">
        <ele>1365.6</ele>
        <time>2022-05-23 06:03:10</time>
      </trkpt>
      <trkpt lat="42.35698" lon="0.83399">
        <ele>1365.8</ele>
        <time>2022-05-23 06:03:11</time>
      </trkpt>
      <trkpt lat="42.35698" lon="0.83401">
        <ele>1365.8</ele>
        <time>2022-05-23 06:03:12</time>
      </trkpt>
      <trkpt lat="42.35698" lon="0.83404">
        <ele>1366</ele>
        <time>2022-05-23 06:03:13</time>
      </trkpt>
      <trkpt lat="42.35698" lon="0.83406">
        <ele>1366.2</ele>
        <time>2022-05-23 06:03:14</time>
      </trkpt>
      <trkpt lat="42.35698" lon="0.83408">
        <ele>1366.4</ele>
        <time>2022-05-23 06:03:15</time>
      </trkpt>
      <trkpt lat="42.35698" lon="0.83411">
        <ele>1366.4</ele>
        <time>2022-05-23 06:03:16</time>
      </trkpt>
      <trkpt lat="42.35698" lon="0.83413">
        <ele>1366.6</ele>
        <time>2022-05-23 06:03:17</time>
      </trkpt>
      <trkpt lat="42.35697" lon="0.83416">
        <ele>1366.8</ele>
        <time>2022-05-23 06:03:18</time>
      </trkpt>
      <trkpt lat="42.35697" lon="0.83418">
        <ele>1366.8</ele>
        <time>2022-05-23 06:03:19</time>
      </trkpt>
      <trkpt lat="42.35697" lon="0.8342">
        <ele>1367</ele>
        <time>2022-05-23 06:03:20</time>
      </trkpt>
      <trkpt lat="42.35698" lon="0.83423">
        <ele>1367.2</ele>
        <time>2022-05-23 06:03:21</time>
      </trkpt>
      <trkpt lat="42.35698" lon="0.83425">
        <ele>1367.2</ele>
        <time>2022-05-23 06:03:22</time>
      </trkpt>
      <trkpt lat="42.35698" lon="0.83427">
        <ele>1367.4</ele>
        <time>2022-05-23 06:03:23</time>
      </trkpt>
      <trkpt lat="42.35698" lon="0.8343">
        <ele>1367.6</ele>
        <time>2022-05-23 06:03:24</time>
      </trkpt>
      <trkpt lat="42.35698" lon="0.83432">
        <ele>1367.6</ele>
        <time>2022-05-23 06:03:25</time>
      </trkpt>
      <trkpt lat="42.35698" lon="0.83434">
        <ele>1367.8</ele>
        <time>2022-05-23 06:03:26</time>
      </trkpt>
      <trkpt lat="42.35698" lon="0.83437">
        <ele>1368</ele>
        <time>2022-05-23 06:03:27</time>
      </trkpt>
      <trkpt lat="42.35698" lon="0.83439">
        <ele>1368.2</ele>
        <time>2022-05-23 06:03:28</time>
      </trkpt>
      <trkpt lat="42.35699" lon="0.83441">
        <ele>1368.2</ele>
        <time>2022-05-23 06:03:29</time>
      </trkpt>
      <trkpt lat="42.35699" lon="0.83444">
        <ele>1368.4</ele>
        <time>2022-05-23 06:03:30</time>
      </trkpt>
      <trkpt lat="42.35699" lon="0.83446">
        <ele>1368.6</ele>
        <time>2022-05-23 06:03:31</time>
      </trkpt>
      <trkpt lat="42.35699" lon="0.83448">
        <ele>1368.6</ele>
        <time>2022-05-23 06:03:32</time>
      </trkpt>
      <trkpt lat="42.357" lon="0.83451">
        <ele>1368.8</ele>
        <time>2022-05-23 06:03:33</time>
      </trkpt>
      <trkpt lat="42.357" lon="0.83453">
        <ele>1369</ele>
        <time>2022-05-23 06:03:34</time>
      </trkpt>
      <trkpt lat="42.357" lon="0.83456">
        <ele>1369.2</ele>
        <time>2022-05-23 06:03:35</time>
      </trkpt>
      <trkpt lat="42.357" lon="0.83458">
        <ele>1369.2</ele>
        <time>2022-05-23 06:03:36</time>
      </trkpt>
      <trkpt lat="42.357" lon="0.8346">
        <ele>1369.4</ele>
        <time>2022-05-23 06:03:37</time>
      </trkpt>
      <trkpt lat="42.357" lon="0.83463">
        <ele>1369.6</ele>
        <time>2022-05-23 06:03:38</time>
      </trkpt>
      <trkpt lat="42.357" lon="0.83465">
        <ele>1369.8</ele>
        <time>2022-05-23 06:03:39</time>
      </trkpt>
      <trkpt lat="42.357" lon="0.83467">
        <ele>1369.8</ele>
        <time>2022-05-23 06:03:40</time>
      </trkpt>
      <trkpt lat="42.357" lon="0.8347">
        <ele>1370</ele>
        <time>2022-05-23 06:03:41</time>
      </trkpt>
      <trkpt lat="42.357" lon="0.83472">
        <ele>1370.2</ele>
        <time>2022-05-23 06:03:42</time>
      </trkpt>
      <trkpt lat="42.35701" lon="0.83474">
        <ele>1370.4</ele>
        <time>2022-05-23 06:03:43</time>
      </trkpt>
      <trkpt lat="42.35701" lon="0.83477">
        <ele>1370.6</ele>
        <time>2022-05-23 06:03:44</time>
      </trkpt>
      <trkpt lat="42.35701" lon="0.83479">
        <ele>1370.6</ele>
        <time>2022-05-23 06:03:45</time>
      </trkpt>
      <trkpt lat="42.35701" lon="0.83482">
        <ele>1370.8</ele>
        <time>2022-05-23 06:03:46</time>
      </trkpt>
      <trkpt lat="42.35702" lon="0.83484">
        <ele>1371</ele>
        <time>2022-05-23 06:03:47</time>
      </trkpt>
      <trkpt lat="42.35702" lon="0.83487">
        <ele>1371.2</ele>
        <time>2022-05-23 06:03:48</time>
      </trkpt>
      <trkpt lat="42.35703" lon="0.83489">
        <ele>1371.2</ele>
        <time>2022-05-23 06:03:49</time>
      </trkpt>
      <trkpt lat="42.35703" lon="0.83492">
        <ele>1371.4</ele>
        <time>2022-05-23 06:03:50</time>
      </trkpt>
      <trkpt lat="42.35703" lon="0.83495">
        <ele>1371.6</ele>
        <time>2022-05-23 06:03:51</time>
      </trkpt>
      <trkpt lat="42.35704" lon="0.83498">
        <ele>1371.8</ele>
        <time>2022-05-23 06:03:52</time>
      </trkpt>
      <trkpt lat="42.35705" lon="0.835">
        <ele>1372</ele>
        <time>2022-05-23 06:03:53</time>
      </trkpt>
      <trkpt lat="42.35705" lon="0.83503">
        <ele>1372</ele>
        <time>2022-05-23 06:03:54</time>
      </trkpt>
      <trkpt lat="42.35706" lon="0.83505">
        <ele>1372.2</ele>
        <time>2022-05-23 06:03:55</time>
      </trkpt>
      <trkpt lat="42.35706" lon="0.83508">
        <ele>1372.4</ele>
        <time>2022-05-23 06:03:56</time>
      </trkpt>
      <trkpt lat="42.35706" lon="0.8351">
        <ele>1372.6</ele>
        <time>2022-05-23 06:03:57</time>
      </trkpt>
      <trkpt lat="42.35707" lon="0.83513">
        <ele>1372.6</ele>
        <time>2022-05-23 06:03:58</time>
      </trkpt>
      <trkpt lat="42.35707" lon="0.83515">
        <ele>1372.8</ele>
        <time>2022-05-23 06:03:59</time>
      </trkpt>
      <trkpt lat="42.35708" lon="0.83518">
        <ele>1373</ele>
        <time>2022-05-23 06:04:00</time>
      </trkpt>
      <trkpt lat="42.35709" lon="0.8352">
        <ele>1373.2</ele>
        <time>2022-05-23 06:04:01</time>
      </trkpt>
      <trkpt lat="42.35709" lon="0.83522">
        <ele>1373.4</ele>
        <time>2022-05-23 06:04:02</time>
      </trkpt>
      <trkpt lat="42.3571" lon="0.83525">
        <ele>1373.4</ele>
        <time>2022-05-23 06:04:03</time>
      </trkpt>
      <trkpt lat="42.35711" lon="0.83527">
        <ele>1373.6</ele>
        <time>2022-05-23 06:04:04</time>
      </trkpt>
      <trkpt lat="42.35711" lon="0.83529">
        <ele>1373.8</ele>
        <time>2022-05-23 06:04:05</time>
      </trkpt>
      <trkpt lat="42.35712" lon="0.83532">
        <ele>1374</ele>
        <time>2022-05-23 06:04:06</time>
      </trkpt>
      <trkpt lat="42.35712" lon="0.83534">
        <ele>1374</ele>
        <time>2022-05-23 06:04:07</time>
      </trkpt>
      <trkpt lat="42.35713" lon="0.83537">
        <ele>1374.2</ele>
        <time>2022-05-23 06:04:08</time>
      </trkpt>
      <trkpt lat="42.35714" lon="0.83539">
        <ele>1374.4</ele>
        <time>2022-05-23 06:04:09</time>
      </trkpt>
      <trkpt lat="42.35715" lon="0.83542">
        <ele>1374.4</ele>
        <time>2022-05-23 06:04:10</time>
      </trkpt>
      <trkpt lat="42.35716" lon="0.83545">
        <ele>1374.6</ele>
        <time>2022-05-23 06:04:11</time>
      </trkpt>
      <trkpt lat="42.35717" lon="0.83547">
        <ele>1374.8</ele>
        <time>2022-05-23 06:04:12</time>
      </trkpt>
      <trkpt lat="42.35718" lon="0.8355">
        <ele>1375</ele>
        <time>2022-05-23 06:04:13</time>
      </trkpt>
      <trkpt lat="42.35719" lon="0.83552">
        <ele>1375.2</ele>
        <time>2022-05-23 06:04:14</time>
      </trkpt>
      <trkpt lat="42.35721" lon="0.83554">
        <ele>1375.2</ele>
        <time>2022-05-23 06:04:15</time>
      </trkpt>
      <trkpt lat="42.35722" lon="0.83555">
        <ele>1375.4</ele>
        <time>2022-05-23 06:04:16</time>
      </trkpt>
      <trkpt lat="42.35724" lon="0.83557">
        <ele>1375.6</ele>
        <time>2022-05-23 06:04:17</time>
      </trkpt>
      <trkpt lat="42.35725" lon="0.83559">
        <ele>1375.8</ele>
        <time>2022-05-23 06:04:18</time>
      </trkpt>
      <trkpt lat="42.35727" lon="0.83561">
        <ele>1375.8</ele>
        <time>2022-05-23 06:04:19</time>
      </trkpt>
      <trkpt lat="42.35728" lon="0.83563">
        <ele>1376</ele>
        <time>2022-05-23 06:04:20</time>
      </trkpt>
      <trkpt lat="42.3573" lon="0.83565">
        <ele>1376.2</ele>
        <time>2022-05-23 06:04:21</time>
      </trkpt>
      <trkpt lat="42.35731" lon="0.83567">
        <ele>1376.2</ele>
        <time>2022-05-23 06:04:22</time>
      </trkpt>
      <trkpt lat="42.35733" lon="0.83568">
        <ele>1376.4</ele>
        <time>2022-05-23 06:04:23</time>
      </trkpt>
      <trkpt lat="42.35734" lon="0.8357">
        <ele>1376.4</ele>
        <time>2022-05-23 06:04:24</time>
      </trkpt>
      <trkpt lat="42.35736" lon="0.83572">
        <ele>1376.6</ele>
        <time>2022-05-23 06:04:25</time>
      </trkpt>
      <trkpt lat="42.35738" lon="0.83574">
        <ele>1376.8</ele>
        <time>2022-05-23 06:04:26</time>
      </trkpt>
      <trkpt lat="42.3574" lon="0.83575">
        <ele>1377</ele>
        <time>2022-05-23 06:04:27</time>
      </trkpt>
      <trkpt lat="42.35741" lon="0.83576">
        <ele>1377.2</ele>
        <time>2022-05-23 06:04:28</time>
      </trkpt>
      <trkpt lat="42.35743" lon="0.83578">
        <ele>1377.2</ele>
        <time>2022-05-23 06:04:29</time>
      </trkpt>
      <trkpt lat="42.35745" lon="0.83579">
        <ele>1377.4</ele>
        <time>2022-05-23 06:04:30</time>
      </trkpt>
      <trkpt lat="42.35746" lon="0.83581">
        <ele>1377.6</ele>
        <time>2022-05-23 06:04:31</time>
      </trkpt>
      <trkpt lat="42.35748" lon="0.83583">
        <ele>1377.8</ele>
        <time>2022-05-23 06:04:32</time>
      </trkpt>
      <trkpt lat="42.35749" lon="0.83585">
        <ele>1378</ele>
        <time>2022-05-23 06:04:33</time>
      </trkpt>
      <trkpt lat="42.35751" lon="0.83588">
        <ele>1378</ele>
        <time>2022-05-23 06:04:34</time>
      </trkpt>
      <trkpt lat="42.35752" lon="0.8359">
        <ele>1378.2</ele>
        <time>2022-05-23 06:04:35</time>
      </trkpt>
      <trkpt lat="42.35754" lon="0.83592">
        <ele>1378.4</ele>
        <time>2022-05-23 06:04:36</time>
      </trkpt>
      <trkpt lat="42.35755" lon="0.83594">
        <ele>1378.6</ele>
        <time>2022-05-23 06:04:37</time>
      </trkpt>
      <trkpt lat="42.35756" lon="0.83596">
        <ele>1378.8</ele>
        <time>2022-05-23 06:04:38</time>
      </trkpt>
      <trkpt lat="42.35758" lon="0.83598">
        <ele>1379</ele>
        <time>2022-05-23 06:04:39</time>
      </trkpt>
      <trkpt lat="42.35759" lon="0.836">
        <ele>1379</ele>
        <time>2022-05-23 06:04:40</time>
      </trkpt>
      <trkpt lat="42.3576" lon="0.83602">
        <ele>1379.2</ele>
        <time>2022-05-23 06:04:41</time>
      </trkpt>
      <trkpt lat="42.35761" lon="0.83605">
        <ele>1379.4</ele>
        <time>2022-05-23 06:04:42</time>
      </trkpt>
      <trkpt lat="42.35763" lon="0.83607">
        <ele>1379.6</ele>
        <time>2022-05-23 06:04:43</time>
      </trkpt>
      <trkpt lat="42.35764" lon="0.83609">
        <ele>1379.8</ele>
        <time>2022-05-23 06:04:44</time>
      </trkpt>
      <trkpt lat="42.35765" lon="0.83612">
        <ele>1380</ele>
        <time>2022-05-23 06:04:45</time>
      </trkpt>
      <trkpt lat="42.35766" lon="0.83614">
        <ele>1380</ele>
        <time>2022-05-23 06:04:46</time>
      </trkpt>
      <trkpt lat="42.35767" lon="0.83616">
        <ele>1380.2</ele>
        <time>2022-05-23 06:04:47</time>
      </trkpt>
      <trkpt lat="42.35768" lon="0.83618">
        <ele>1380.4</ele>
        <time>2022-05-23 06:04:48</time>
      </trkpt>
      <trkpt lat="42.35769" lon="0.83621">
        <ele>1380.6</ele>
        <time>2022-05-23 06:04:49</time>
      </trkpt>
      <trkpt lat="42.35769" lon="0.83624">
        <ele>1380.6</ele>
        <time>2022-05-23 06:04:50</time>
      </trkpt>
      <trkpt lat="42.3577" lon="0.83627">
        <ele>1380.8</ele>
        <time>2022-05-23 06:04:51</time>
      </trkpt>
      <trkpt lat="42.3577" lon="0.8363">
        <ele>1381</ele>
        <time>2022-05-23 06:04:52</time>
      </trkpt>
      <trkpt lat="42.3577" lon="0.83633">
        <ele>1381.2</ele>
        <time>2022-05-23 06:04:53</time>
      </trkpt>
      <trkpt lat="42.3577" lon="0.83636">
        <ele>1381.4</ele>
        <time>2022-05-23 06:04:54</time>
      </trkpt>
      <trkpt lat="42.3577" lon="0.83639">
        <ele>1381.6</ele>
        <time>2022-05-23 06:04:55</time>
      </trkpt>
      <trkpt lat="42.3577" lon="0.83642">
        <ele>1381.6</ele>
        <time>2022-05-23 06:04:56</time>
      </trkpt>
      <trkpt lat="42.3577" lon="0.83644">
        <ele>1381.8</ele>
        <time>2022-05-23 06:04:57</time>
      </trkpt>
      <trkpt lat="42.3577" lon="0.83647">
        <ele>1382</ele>
        <time>2022-05-23 06:04:58</time>
      </trkpt>
      <trkpt lat="42.35769" lon="0.8365">
        <ele>1382.2</ele>
        <time>2022-05-23 06:04:59</time>
      </trkpt>
      <trkpt lat="42.35768" lon="0.83652">
        <ele>1382.4</ele>
        <time>2022-05-23 06:05:00</time>
      </trkpt>
      <trkpt lat="42.35768" lon="0.83655">
        <ele>1382.6</ele>
        <time>2022-05-23 06:05:01</time>
      </trkpt>
      <trkpt lat="42.35767" lon="0.83657">
        <ele>1382.6</ele>
        <time>2022-05-23 06:05:02</time>
      </trkpt>
      <trkpt lat="42.35767" lon="0.8366">
        <ele>1382.8</ele>
        <time>2022-05-23 06:05:03</time>
      </trkpt>
      <trkpt lat="42.35766" lon="0.83663">
        <ele>1383</ele>
        <time>2022-05-23 06:05:04</time>
      </trkpt>
      <trkpt lat="42.35765" lon="0.83665">
        <ele>1383.2</ele>
        <time>2022-05-23 06:05:05</time>
      </trkpt>
      <trkpt lat="42.35764" lon="0.83667">
        <ele>1383.4</ele>
        <time>2022-05-23 06:05:06</time>
      </trkpt>
      <trkpt lat="42.35764" lon="0.8367">
        <ele>1383.6</ele>
        <time>2022-05-23 06:05:07</time>
      </trkpt>
      <trkpt lat="42.35763" lon="0.83672">
        <ele>1383.6</ele>
        <time>2022-05-23 06:05:08</time>
      </trkpt>
      <trkpt lat="42.35762" lon="0.83674">
        <ele>1383.8</ele>
        <time>2022-05-23 06:05:09</time>
      </trkpt>
      <trkpt lat="42.35761" lon="0.83677">
        <ele>1384</ele>
        <time>2022-05-23 06:05:10</time>
      </trkpt>
      <trkpt lat="42.3576" lon="0.83679">
        <ele>1384.2</ele>
        <time>2022-05-23 06:05:11</time>
      </trkpt>
      <trkpt lat="42.35759" lon="0.83681">
        <ele>1384.4</ele>
        <time>2022-05-23 06:05:12</time>
      </trkpt>
      <trkpt lat="42.35759" lon="0.83684">
        <ele>1384.6</ele>
        <time>2022-05-23 06:05:13</time>
      </trkpt>
      <trkpt lat="42.35757" lon="0.83687">
        <ele>1384.6</ele>
        <time>2022-05-23 06:05:14</time>
      </trkpt>
      <trkpt lat="42.35757" lon="0.83689">
        <ele>1384.8</ele>
        <time>2022-05-23 06:05:15</time>
      </trkpt>
      <trkpt lat="42.35756" lon="0.83692">
        <ele>1385</ele>
        <time>2022-05-23 06:05:16</time>
      </trkpt>
      <trkpt lat="42.35755" lon="0.83694">
        <ele>1385.2</ele>
        <time>2022-05-23 06:05:17</time>
      </trkpt>
      <trkpt lat="42.35754" lon="0.83697">
        <ele>1385.4</ele>
        <time>2022-05-23 06:05:18</time>
      </trkpt>
      <trkpt lat="42.35754" lon="0.837">
        <ele>1385.4</ele>
        <time>2022-05-23 06:05:19</time>
      </trkpt>
      <trkpt lat="42.35752" lon="0.83702">
        <ele>1385.6</ele>
        <time>2022-05-23 06:05:20</time>
      </trkpt>
      <trkpt lat="42.35751" lon="0.83705">
        <ele>1385.8</ele>
        <time>2022-05-23 06:05:21</time>
      </trkpt>
      <trkpt lat="42.35751" lon="0.83708">
        <ele>1386</ele>
        <time>2022-05-23 06:05:22</time>
      </trkpt>
      <trkpt lat="42.35749" lon="0.83711">
        <ele>1386.2</ele>
        <time>2022-05-23 06:05:23</time>
      </trkpt>
      <trkpt lat="42.35749" lon="0.83713">
        <ele>1386.4</ele>
        <time>2022-05-23 06:05:24</time>
      </trkpt>
      <trkpt lat="42.35747" lon="0.83716">
        <ele>1386.4</ele>
        <time>2022-05-23 06:05:25</time>
      </trkpt>
      <trkpt lat="42.35746" lon="0.83719">
        <ele>1386.6</ele>
        <time>2022-05-23 06:05:26</time>
      </trkpt>
      <trkpt lat="42.35746" lon="0.83722">
        <ele>1386.8</ele>
        <time>2022-05-23 06:05:27</time>
      </trkpt>
      <trkpt lat="42.35744" lon="0.83724">
        <ele>1387</ele>
        <time>2022-05-23 06:05:28</time>
      </trkpt>
      <trkpt lat="42.35743" lon="0.83727">
        <ele>1387.2</ele>
        <time>2022-05-23 06:05:29</time>
      </trkpt>
      <trkpt lat="42.35743" lon="0.8373">
        <ele>1387.2</ele>
        <time>2022-05-23 06:05:30</time>
      </trkpt>
      <trkpt lat="42.35742" lon="0.83732">
        <ele>1387.4</ele>
        <time>2022-05-23 06:05:31</time>
      </trkpt>
      <trkpt lat="42.35742" lon="0.83735">
        <ele>1387.6</ele>
        <time>2022-05-23 06:05:32</time>
      </trkpt>
      <trkpt lat="42.35741" lon="0.83737">
        <ele>1387.8</ele>
        <time>2022-05-23 06:05:33</time>
      </trkpt>
      <trkpt lat="42.35741" lon="0.8374">
        <ele>1388</ele>
        <time>2022-05-23 06:05:34</time>
      </trkpt>
      <trkpt lat="42.3574" lon="0.83743">
        <ele>1388.2</ele>
        <time>2022-05-23 06:05:35</time>
      </trkpt>
      <trkpt lat="42.35739" lon="0.83745">
        <ele>1388.4</ele>
        <time>2022-05-23 06:05:36</time>
      </trkpt>
      <trkpt lat="42.35738" lon="0.83748">
        <ele>1388.4</ele>
        <time>2022-05-23 06:05:37</time>
      </trkpt>
      <trkpt lat="42.35737" lon="0.83751">
        <ele>1388.6</ele>
        <time>2022-05-23 06:05:38</time>
      </trkpt>
      <trkpt lat="42.35736" lon="0.83754">
        <ele>1388.8</ele>
        <time>2022-05-23 06:05:39</time>
      </trkpt>
      <trkpt lat="42.35735" lon="0.83757">
        <ele>1389</ele>
        <time>2022-05-23 06:05:40</time>
      </trkpt>
      <trkpt lat="42.35734" lon="0.8376">
        <ele>1389.2</ele>
        <time>2022-05-23 06:05:41</time>
      </trkpt>
      <trkpt lat="42.35733" lon="0.83762">
        <ele>1389.4</ele>
        <time>2022-05-23 06:05:42</time>
      </trkpt>
      <trkpt lat="42.35732" lon="0.83765">
        <ele>1389.6</ele>
        <time>2022-05-23 06:05:43</time>
      </trkpt>
      <trkpt lat="42.35731" lon="0.83768">
        <ele>1389.8</ele>
        <time>2022-05-23 06:05:44</time>
      </trkpt>
      <trkpt lat="42.3573" lon="0.8377">
        <ele>1390</ele>
        <time>2022-05-23 06:05:45</time>
      </trkpt>
      <trkpt lat="42.3573" lon="0.83773">
        <ele>1390.2</ele>
        <time>2022-05-23 06:05:46</time>
      </trkpt>
      <trkpt lat="42.35729" lon="0.83776">
        <ele>1390.2</ele>
        <time>2022-05-23 06:05:47</time>
      </trkpt>
      <trkpt lat="42.35728" lon="0.83778">
        <ele>1390.4</ele>
        <time>2022-05-23 06:05:48</time>
      </trkpt>
      <trkpt lat="42.35728" lon="0.83781">
        <ele>1390.6</ele>
        <time>2022-05-23 06:05:49</time>
      </trkpt>
      <trkpt lat="42.35727" lon="0.83783">
        <ele>1390.8</ele>
        <time>2022-05-23 06:05:50</time>
      </trkpt>
      <trkpt lat="42.35726" lon="0.83786">
        <ele>1391</ele>
        <time>2022-05-23 06:05:51</time>
      </trkpt>
      <trkpt lat="42.35725" lon="0.83788">
        <ele>1391.2</ele>
        <time>2022-05-23 06:05:52</time>
      </trkpt>
      <trkpt lat="42.35724" lon="0.8379">
        <ele>1391.4</ele>
        <time>2022-05-23 06:05:53</time>
      </trkpt>
      <trkpt lat="42.35723" lon="0.83793">
        <ele>1391.4</ele>
        <time>2022-05-23 06:05:54</time>
      </trkpt>
      <trkpt lat="42.35722" lon="0.83795">
        <ele>1391.6</ele>
        <time>2022-05-23 06:05:55</time>
      </trkpt>
      <trkpt lat="42.35722" lon="0.83798">
        <ele>1391.8</ele>
        <time>2022-05-23 06:05:56</time>
      </trkpt>
      <trkpt lat="42.35721" lon="0.838">
        <ele>1392</ele>
        <time>2022-05-23 06:05:57</time>
      </trkpt>
      <trkpt lat="42.3572" lon="0.83802">
        <ele>1392.2</ele>
        <time>2022-05-23 06:05:58</time>
      </trkpt>
      <trkpt lat="42.35719" lon="0.83804">
        <ele>1392.4</ele>
        <time>2022-05-23 06:05:59</time>
      </trkpt>
      <trkpt lat="42.35719" lon="0.83807">
        <ele>1392.4</ele>
        <time>2022-05-23 06:06:00</time>
      </trkpt>
      <trkpt lat="42.35719" lon="0.83809">
        <ele>1392.6</ele>
        <time>2022-05-23 06:06:01</time>
      </trkpt>
      <trkpt lat="42.35718" lon="0.83812">
        <ele>1392.8</ele>
        <time>2022-05-23 06:06:02</time>
      </trkpt>
      <trkpt lat="42.35718" lon="0.83814">
        <ele>1393</ele>
        <time>2022-05-23 06:06:03</time>
      </trkpt>
      <trkpt lat="42.35717" lon="0.83816">
        <ele>1393.2</ele>
        <time>2022-05-23 06:06:04</time>
      </trkpt>
      <trkpt lat="42.35717" lon="0.83819">
        <ele>1393.4</ele>
        <time>2022-05-23 06:06:05</time>
      </trkpt>
      <trkpt lat="42.35717" lon="0.83821">
        <ele>1393.4</ele>
        <time>2022-05-23 06:06:06</time>
      </trkpt>
      <trkpt lat="42.35716" lon="0.83824">
        <ele>1393.6</ele>
        <time>2022-05-23 06:06:07</time>
      </trkpt>
      <trkpt lat="42.35715" lon="0.83826">
        <ele>1393.8</ele>
        <time>2022-05-23 06:06:08</time>
      </trkpt>
      <trkpt lat="42.35715" lon="0.83829">
        <ele>1394</ele>
        <time>2022-05-23 06:06:09</time>
      </trkpt>
      <trkpt lat="42.35715" lon="0.83831">
        <ele>1394</ele>
        <time>2022-05-23 06:06:10</time>
      </trkpt>
      <trkpt lat="42.35714" lon="0.83834">
        <ele>1394.2</ele>
        <time>2022-05-23 06:06:11</time>
      </trkpt>
      <trkpt lat="42.35714" lon="0.83836">
        <ele>1394.4</ele>
        <time>2022-05-23 06:06:12</time>
      </trkpt>
      <trkpt lat="42.35714" lon="0.83839">
        <ele>1394.6</ele>
        <time>2022-05-23 06:06:13</time>
      </trkpt>
      <trkpt lat="42.35714" lon="0.83842">
        <ele>1394.6</ele>
        <time>2022-05-23 06:06:14</time>
      </trkpt>
      <trkpt lat="42.35713" lon="0.83844">
        <ele>1394.8</ele>
        <time>2022-05-23 06:06:15</time>
      </trkpt>
      <trkpt lat="42.35713" lon="0.83847">
        <ele>1395</ele>
        <time>2022-05-23 06:06:16</time>
      </trkpt>
      <trkpt lat="42.35712" lon="0.83849">
        <ele>1395</ele>
        <time>2022-05-23 06:06:17</time>
      </trkpt>
      <trkpt lat="42.35712" lon="0.83852">
        <ele>1395.2</ele>
        <time>2022-05-23 06:06:18</time>
      </trkpt>
      <trkpt lat="42.35712" lon="0.83854">
        <ele>1395.4</ele>
        <time>2022-05-23 06:06:19</time>
      </trkpt>
      <trkpt lat="42.35712" lon="0.83857">
        <ele>1395.6</ele>
        <time>2022-05-23 06:06:20</time>
      </trkpt>
      <trkpt lat="42.35711" lon="0.83859">
        <ele>1395.6</ele>
        <time>2022-05-23 06:06:21</time>
      </trkpt>
      <trkpt lat="42.35711" lon="0.83862">
        <ele>1395.8</ele>
        <time>2022-05-23 06:06:22</time>
      </trkpt>
      <trkpt lat="42.35711" lon="0.83864">
        <ele>1396</ele>
        <time>2022-05-23 06:06:23</time>
      </trkpt>
      <trkpt lat="42.35711" lon="0.83867">
        <ele>1396.2</ele>
        <time>2022-05-23 06:06:24</time>
      </trkpt>
      <trkpt lat="42.35711" lon="0.83869">
        <ele>1396.4</ele>
        <time>2022-05-23 06:06:25</time>
      </trkpt>
      <trkpt lat="42.35711" lon="0.83872">
        <ele>1396.4</ele>
        <time>2022-05-23 06:06:26</time>
      </trkpt>
      <trkpt lat="42.35711" lon="0.83874">
        <ele>1396.6</ele>
        <time>2022-05-23 06:06:27</time>
      </trkpt>
      <trkpt lat="42.35711" lon="0.83877">
        <ele>1396.8</ele>
        <time>2022-05-23 06:06:28</time>
      </trkpt>
      <trkpt lat="42.35711" lon="0.83879">
        <ele>1397</ele>
        <time>2022-05-23 06:06:29</time>
      </trkpt>
      <trkpt lat="42.35711" lon="0.83882">
        <ele>1397</ele>
        <time>2022-05-23 06:06:30</time>
      </trkpt>
      <trkpt lat="42.35711" lon="0.83885">
        <ele>1397.2</ele>
        <time>2022-05-23 06:06:31</time>
      </trkpt>
      <trkpt lat="42.35711" lon="0.83888">
        <ele>1397.4</ele>
        <time>2022-05-23 06:06:32</time>
      </trkpt>
      <trkpt lat="42.35711" lon="0.83891">
        <ele>1397.6</ele>
        <time>2022-05-23 06:06:33</time>
      </trkpt>
      <trkpt lat="42.35711" lon="0.83893">
        <ele>1397.6</ele>
        <time>2022-05-23 06:06:34</time>
      </trkpt>
      <trkpt lat="42.3571" lon="0.83896">
        <ele>1397.8</ele>
        <time>2022-05-23 06:06:35</time>
      </trkpt>
      <trkpt lat="42.3571" lon="0.83899">
        <ele>1398</ele>
        <time>2022-05-23 06:06:36</time>
      </trkpt>
      <trkpt lat="42.3571" lon="0.83902">
        <ele>1398.2</ele>
        <time>2022-05-23 06:06:37</time>
      </trkpt>
      <trkpt lat="42.3571" lon="0.83905">
        <ele>1398.4</ele>
        <time>2022-05-23 06:06:38</time>
      </trkpt>
      <trkpt lat="42.35709" lon="0.83907">
        <ele>1398.4</ele>
        <time>2022-05-23 06:06:39</time>
      </trkpt>
      <trkpt lat="42.35709" lon="0.8391">
        <ele>1398.6</ele>
        <time>2022-05-23 06:06:40</time>
      </trkpt>
      <trkpt lat="42.35709" lon="0.83912">
        <ele>1398.8</ele>
        <time>2022-05-23 06:06:41</time>
      </trkpt>
      <trkpt lat="42.35709" lon="0.83915">
        <ele>1399</ele>
        <time>2022-05-23 06:06:42</time>
      </trkpt>
      <trkpt lat="42.35709" lon="0.83917">
        <ele>1399.2</ele>
        <time>2022-05-23 06:06:43</time>
      </trkpt>
      <trkpt lat="42.35709" lon="0.8392">
        <ele>1399.2</ele>
        <time>2022-05-23 06:06:44</time>
      </trkpt>
      <trkpt lat="42.35709" lon="0.83923">
        <ele>1399.4</ele>
        <time>2022-05-23 06:06:45</time>
      </trkpt>
      <trkpt lat="42.35709" lon="0.83925">
        <ele>1399.6</ele>
        <time>2022-05-23 06:06:46</time>
      </trkpt>
      <trkpt lat="42.35709" lon="0.83928">
        <ele>1399.8</ele>
        <time>2022-05-23 06:06:47</time>
      </trkpt>
      <trkpt lat="42.35709" lon="0.83931">
        <ele>1400</ele>
        <time>2022-05-23 06:06:48</time>
      </trkpt>
      <trkpt lat="42.35709" lon="0.83934">
        <ele>1400</ele>
        <time>2022-05-23 06:06:49</time>
      </trkpt>
      <trkpt lat="42.35709" lon="0.83937">
        <ele>1400.2</ele>
        <time>2022-05-23 06:06:50</time>
      </trkpt>
      <trkpt lat="42.35709" lon="0.83939">
        <ele>1400.4</ele>
        <time>2022-05-23 06:06:51</time>
      </trkpt>
      <trkpt lat="42.35709" lon="0.83942">
        <ele>1400.6</ele>
        <time>2022-05-23 06:06:52</time>
      </trkpt>
      <trkpt lat="42.3571" lon="0.83945">
        <ele>1400.8</ele>
        <time>2022-05-23 06:06:53</time>
      </trkpt>
      <trkpt lat="42.3571" lon="0.83948">
        <ele>1401</ele>
        <time>2022-05-23 06:06:54</time>
      </trkpt>
      <trkpt lat="42.35711" lon="0.83951">
        <ele>1401</ele>
        <time>2022-05-23 06:06:55</time>
      </trkpt>
      <trkpt lat="42.35711" lon="0.83954">
        <ele>1401.2</ele>
        <time>2022-05-23 06:06:56</time>
      </trkpt>
      <trkpt lat="42.35712" lon="0.83957">
        <ele>1401.4</ele>
        <time>2022-05-23 06:06:57</time>
      </trkpt>
      <trkpt lat="42.35713" lon="0.8396">
        <ele>1401.6</ele>
        <time>2022-05-23 06:06:58</time>
      </trkpt>
      <trkpt lat="42.35714" lon="0.83963">
        <ele>1401.8</ele>
        <time>2022-05-23 06:06:59</time>
      </trkpt>
      <trkpt lat="42.35714" lon="0.83966">
        <ele>1402</ele>
        <time>2022-05-23 06:07:00</time>
      </trkpt>
      <trkpt lat="42.35715" lon="0.83969">
        <ele>1402.2</ele>
        <time>2022-05-23 06:07:01</time>
      </trkpt>
      <trkpt lat="42.35716" lon="0.83971">
        <ele>1402.4</ele>
        <time>2022-05-23 06:07:02</time>
      </trkpt>
      <trkpt lat="42.35716" lon="0.83974">
        <ele>1402.6</ele>
        <time>2022-05-23 06:07:03</time>
      </trkpt>
      <trkpt lat="42.35717" lon="0.83977">
        <ele>1402.8</ele>
        <time>2022-05-23 06:07:04</time>
      </trkpt>
      <trkpt lat="42.35717" lon="0.8398">
        <ele>1403</ele>
        <time>2022-05-23 06:07:05</time>
      </trkpt>
      <trkpt lat="42.35717" lon="0.83982">
        <ele>1403.2</ele>
        <time>2022-05-23 06:07:06</time>
      </trkpt>
      <trkpt lat="42.35717" lon="0.83985">
        <ele>1403.4</ele>
        <time>2022-05-23 06:07:07</time>
      </trkpt>
      <trkpt lat="42.35718" lon="0.83988">
        <ele>1403.4</ele>
        <time>2022-05-23 06:07:08</time>
      </trkpt>
      <trkpt lat="42.35718" lon="0.8399">
        <ele>1403.6</ele>
        <time>2022-05-23 06:07:09</time>
      </trkpt>
      <trkpt lat="42.35719" lon="0.83993">
        <ele>1403.8</ele>
        <time>2022-05-23 06:07:10</time>
      </trkpt>
      <trkpt lat="42.35719" lon="0.83996">
        <ele>1404</ele>
        <time>2022-05-23 06:07:11</time>
      </trkpt>
      <trkpt lat="42.35719" lon="0.83998">
        <ele>1404.2</ele>
        <time>2022-05-23 06:07:12</time>
      </trkpt>
      <trkpt lat="42.3572" lon="0.84001">
        <ele>1404.4</ele>
        <time>2022-05-23 06:07:13</time>
      </trkpt>
      <trkpt lat="42.3572" lon="0.84004">
        <ele>1404.6</ele>
        <time>2022-05-23 06:07:14</time>
      </trkpt>
      <trkpt lat="42.35721" lon="0.84006">
        <ele>1404.6</ele>
        <time>2022-05-23 06:07:15</time>
      </trkpt>
      <trkpt lat="42.35721" lon="0.84009">
        <ele>1404.8</ele>
        <time>2022-05-23 06:07:16</time>
      </trkpt>
      <trkpt lat="42.35722" lon="0.84012">
        <ele>1405</ele>
        <time>2022-05-23 06:07:17</time>
      </trkpt>
      <trkpt lat="42.35723" lon="0.84014">
        <ele>1405.2</ele>
        <time>2022-05-23 06:07:18</time>
      </trkpt>
      <trkpt lat="42.35724" lon="0.84017">
        <ele>1405.4</ele>
        <time>2022-05-23 06:07:19</time>
      </trkpt>
      <trkpt lat="42.35724" lon="0.84019">
        <ele>1405.6</ele>
        <time>2022-05-23 06:07:20</time>
      </trkpt>
      <trkpt lat="42.35724" lon="0.84022">
        <ele>1405.8</ele>
        <time>2022-05-23 06:07:21</time>
      </trkpt>
      <trkpt lat="42.35725" lon="0.84025">
        <ele>1405.8</ele>
        <time>2022-05-23 06:07:22</time>
      </trkpt>
      <trkpt lat="42.35725" lon="0.84027">
        <ele>1406</ele>
        <time>2022-05-23 06:07:23</time>
      </trkpt>
      <trkpt lat="42.35726" lon="0.8403">
        <ele>1406.2</ele>
        <time>2022-05-23 06:07:24</time>
      </trkpt>
      <trkpt lat="42.35726" lon="0.84033">
        <ele>1406.4</ele>
        <time>2022-05-23 06:07:25</time>
      </trkpt>
      <trkpt lat="42.35727" lon="0.84035">
        <ele>1406.6</ele>
        <time>2022-05-23 06:07:26</time>
      </trkpt>
      <trkpt lat="42.35727" lon="0.84038">
        <ele>1406.8</ele>
        <time>2022-05-23 06:07:27</time>
      </trkpt>
      <trkpt lat="42.35728" lon="0.84041">
        <ele>1406.8</ele>
        <time>2022-05-23 06:07:28</time>
      </trkpt>
      <trkpt lat="42.35728" lon="0.84043">
        <ele>1407</ele>
        <time>2022-05-23 06:07:29</time>
      </trkpt>
      <trkpt lat="42.35729" lon="0.84046">
        <ele>1407.2</ele>
        <time>2022-05-23 06:07:30</time>
      </trkpt>
      <trkpt lat="42.3573" lon="0.84049">
        <ele>1407.4</ele>
        <time>2022-05-23 06:07:31</time>
      </trkpt>
      <trkpt lat="42.3573" lon="0.84051">
        <ele>1407.6</ele>
        <time>2022-05-23 06:07:32</time>
      </trkpt>
      <trkpt lat="42.35731" lon="0.84054">
        <ele>1407.8</ele>
        <time>2022-05-23 06:07:33</time>
      </trkpt>
      <trkpt lat="42.35731" lon="0.84056">
        <ele>1408</ele>
        <time>2022-05-23 06:07:34</time>
      </trkpt>
      <trkpt lat="42.35732" lon="0.84059">
        <ele>1408.2</ele>
        <time>2022-05-23 06:07:35</time>
      </trkpt>
      <trkpt lat="42.35732" lon="0.84061">
        <ele>1408.4</ele>
        <time>2022-05-23 06:07:36</time>
      </trkpt>
      <trkpt lat="42.35733" lon="0.84064">
        <ele>1408.6</ele>
        <time>2022-05-23 06:07:37</time>
      </trkpt>
      <trkpt lat="42.35733" lon="0.84066">
        <ele>1408.6</ele>
        <time>2022-05-23 06:07:38</time>
      </trkpt>
      <trkpt lat="42.35734" lon="0.84069">
        <ele>1408.8</ele>
        <time>2022-05-23 06:07:39</time>
      </trkpt>
      <trkpt lat="42.35734" lon="0.84071">
        <ele>1409</ele>
        <time>2022-05-23 06:07:40</time>
      </trkpt>
      <trkpt lat="42.35735" lon="0.84074">
        <ele>1409.2</ele>
        <time>2022-05-23 06:07:41</time>
      </trkpt>
      <trkpt lat="42.35735" lon="0.84076">
        <ele>1409.4</ele>
        <time>2022-05-23 06:07:42</time>
      </trkpt>
      <trkpt lat="42.35735" lon="0.84079">
        <ele>1409.4</ele>
        <time>2022-05-23 06:07:43</time>
      </trkpt>
      <trkpt lat="42.35735" lon="0.84081">
        <ele>1409.6</ele>
        <time>2022-05-23 06:07:44</time>
      </trkpt>
      <trkpt lat="42.35736" lon="0.84084">
        <ele>1409.8</ele>
        <time>2022-05-23 06:07:45</time>
      </trkpt>
      <trkpt lat="42.35736" lon="0.84086">
        <ele>1410</ele>
        <time>2022-05-23 06:07:46</time>
      </trkpt>
      <trkpt lat="42.35737" lon="0.84089">
        <ele>1410</ele>
        <time>2022-05-23 06:07:47</time>
      </trkpt>
      <trkpt lat="42.35737" lon="0.84091">
        <ele>1410.2</ele>
        <time>2022-05-23 06:07:48</time>
      </trkpt>
      <trkpt lat="42.35738" lon="0.84094">
        <ele>1410.4</ele>
        <time>2022-05-23 06:07:49</time>
      </trkpt>
      <trkpt lat="42.35738" lon="0.84096">
        <ele>1410.6</ele>
        <time>2022-05-23 06:07:50</time>
      </trkpt>
      <trkpt lat="42.35739" lon="0.84098">
        <ele>1410.6</ele>
        <time>2022-05-23 06:07:51</time>
      </trkpt>
      <trkpt lat="42.35739" lon="0.84101">
        <ele>1410.8</ele>
        <time>2022-05-23 06:07:52</time>
      </trkpt>
      <trkpt lat="42.3574" lon="0.84103">
        <ele>1411</ele>
        <time>2022-05-23 06:07:53</time>
      </trkpt>
      <trkpt lat="42.3574" lon="0.84105">
        <ele>1411.2</ele>
        <time>2022-05-23 06:07:54</time>
      </trkpt>
      <trkpt lat="42.35741" lon="0.84108">
        <ele>1411.4</ele>
        <time>2022-05-23 06:07:55</time>
      </trkpt>
      <trkpt lat="42.35741" lon="0.8411">
        <ele>1411.4</ele>
        <time>2022-05-23 06:07:56</time>
      </trkpt>
      <trkpt lat="42.35742" lon="0.84112">
        <ele>1411.6</ele>
        <time>2022-05-23 06:07:57</time>
      </trkpt>
      <trkpt lat="42.35743" lon="0.84115">
        <ele>1411.8</ele>
        <time>2022-05-23 06:07:58</time>
      </trkpt>
      <trkpt lat="42.35743" lon="0.84117">
        <ele>1412</ele>
        <time>2022-05-23 06:07:59</time>
      </trkpt>
      <trkpt lat="42.35743" lon="0.8412">
        <ele>1412</ele>
        <time>2022-05-23 06:08:00</time>
      </trkpt>
      <trkpt lat="42.35744" lon="0.84122">
        <ele>1412.2</ele>
        <time>2022-05-23 06:08:01</time>
      </trkpt>
      <trkpt lat="42.35744" lon="0.84125">
        <ele>1412.2</ele>
        <time>2022-05-23 06:08:02</time>
      </trkpt>
      <trkpt lat="42.35744" lon="0.84127">
        <ele>1412.4</ele>
        <time>2022-05-23 06:08:03</time>
      </trkpt>
      <trkpt lat="42.35745" lon="0.8413">
        <ele>1412.6</ele>
        <time>2022-05-23 06:08:04</time>
      </trkpt>
      <trkpt lat="42.35745" lon="0.84132">
        <ele>1412.8</ele>
        <time>2022-05-23 06:08:05</time>
      </trkpt>
      <trkpt lat="42.35745" lon="0.84134">
        <ele>1413</ele>
        <time>2022-05-23 06:08:06</time>
      </trkpt>
      <trkpt lat="42.35746" lon="0.84137">
        <ele>1413</ele>
        <time>2022-05-23 06:08:07</time>
      </trkpt>
      <trkpt lat="42.35746" lon="0.84139">
        <ele>1413.2</ele>
        <time>2022-05-23 06:08:08</time>
      </trkpt>
      <trkpt lat="42.35746" lon="0.84142">
        <ele>1413.4</ele>
        <time>2022-05-23 06:08:09</time>
      </trkpt>
      <trkpt lat="42.35746" lon="0.84144">
        <ele>1413.6</ele>
        <time>2022-05-23 06:08:10</time>
      </trkpt>
      <trkpt lat="42.35747" lon="0.84147">
        <ele>1413.6</ele>
        <time>2022-05-23 06:08:11</time>
      </trkpt>
      <trkpt lat="42.35748" lon="0.8415">
        <ele>1413.8</ele>
        <time>2022-05-23 06:08:12</time>
      </trkpt>
      <trkpt lat="42.35749" lon="0.84152">
        <ele>1414</ele>
        <time>2022-05-23 06:08:13</time>
      </trkpt>
      <trkpt lat="42.35749" lon="0.84154">
        <ele>1414.2</ele>
        <time>2022-05-23 06:08:14</time>
      </trkpt>
      <trkpt lat="42.3575" lon="0.84157">
        <ele>1414.4</ele>
        <time>2022-05-23 06:08:15</time>
      </trkpt>
      <trkpt lat="42.3575" lon="0.8416">
        <ele>1414.4</ele>
        <time>2022-05-23 06:08:16</time>
      </trkpt>
      <trkpt lat="42.35751" lon="0.84162">
        <ele>1414.6</ele>
        <time>2022-05-23 06:08:17</time>
      </trkpt>
      <trkpt lat="42.35751" lon="0.84164">
        <ele>1414.8</ele>
        <time>2022-05-23 06:08:18</time>
      </trkpt>
      <trkpt lat="42.35752" lon="0.84167">
        <ele>1415</ele>
        <time>2022-05-23 06:08:19</time>
      </trkpt>
      <trkpt lat="42.35752" lon="0.84169">
        <ele>1415.2</ele>
        <time>2022-05-23 06:08:20</time>
      </trkpt>
      <trkpt lat="42.35753" lon="0.84172">
        <ele>1415.2</ele>
        <time>2022-05-23 06:08:21</time>
      </trkpt>
      <trkpt lat="42.35753" lon="0.84174">
        <ele>1415.4</ele>
        <time>2022-05-23 06:08:22</time>
      </trkpt>
      <trkpt lat="42.35754" lon="0.84176">
        <ele>1415.6</ele>
        <time>2022-05-23 06:08:23</time>
      </trkpt>
      <trkpt lat="42.35755" lon="0.84179">
        <ele>1415.8</ele>
        <time>2022-05-23 06:08:24</time>
      </trkpt>
      <trkpt lat="42.35756" lon="0.84181">
        <ele>1416</ele>
        <time>2022-05-23 06:08:25</time>
      </trkpt>
      <trkpt lat="42.35756" lon="0.84183">
        <ele>1416</ele>
        <time>2022-05-23 06:08:26</time>
      </trkpt>
      <trkpt lat="42.35757" lon="0.84185">
        <ele>1416.2</ele>
        <time>2022-05-23 06:08:27</time>
      </trkpt>
      <trkpt lat="42.35758" lon="0.84187">
        <ele>1416.4</ele>
        <time>2022-05-23 06:08:28</time>
      </trkpt>
      <trkpt lat="42.35759" lon="0.8419">
        <ele>1416.6</ele>
        <time>2022-05-23 06:08:29</time>
      </trkpt>
      <trkpt lat="42.35759" lon="0.84192">
        <ele>1416.6</ele>
        <time>2022-05-23 06:08:30</time>
      </trkpt>
      <trkpt lat="42.3576" lon="0.84194">
        <ele>1416.8</ele>
        <time>2022-05-23 06:08:31</time>
      </trkpt>
      <trkpt lat="42.35761" lon="0.84196">
        <ele>1417</ele>
        <time>2022-05-23 06:08:32</time>
      </trkpt>
      <trkpt lat="42.35762" lon="0.84197">
        <ele>1417</ele>
        <time>2022-05-23 06:08:33</time>
      </trkpt>
      <trkpt lat="42.35763" lon="0.84199">
        <ele>1417.2</ele>
        <time>2022-05-23 06:08:34</time>
      </trkpt>
      <trkpt lat="42.35764" lon="0.84201">
        <ele>1417.4</ele>
        <time>2022-05-23 06:08:35</time>
      </trkpt>
      <trkpt lat="42.35766" lon="0.84203">
        <ele>1417.4</ele>
        <time>2022-05-23 06:08:36</time>
      </trkpt>
      <trkpt lat="42.35767" lon="0.84204">
        <ele>1417.6</ele>
        <time>2022-05-23 06:08:37</time>
      </trkpt>
      <trkpt lat="42.35768" lon="0.84206">
        <ele>1417.8</ele>
        <time>2022-05-23 06:08:38</time>
      </trkpt>
      <trkpt lat="42.35769" lon="0.84208">
        <ele>1417.8</ele>
        <time>2022-05-23 06:08:39</time>
      </trkpt>
      <trkpt lat="42.3577" lon="0.8421">
        <ele>1418</ele>
        <time>2022-05-23 06:08:40</time>
      </trkpt>
      <trkpt lat="42.35772" lon="0.84212">
        <ele>1418</ele>
        <time>2022-05-23 06:08:41</time>
      </trkpt>
      <trkpt lat="42.35774" lon="0.84214">
        <ele>1418.2</ele>
        <time>2022-05-23 06:08:42</time>
      </trkpt>
      <trkpt lat="42.35775" lon="0.84215">
        <ele>1418.2</ele>
        <time>2022-05-23 06:08:43</time>
      </trkpt>
      <trkpt lat="42.35777" lon="0.84217">
        <ele>1418.2</ele>
        <time>2022-05-23 06:08:44</time>
      </trkpt>
      <trkpt lat="42.35778" lon="0.84219">
        <ele>1418.4</ele>
        <time>2022-05-23 06:08:45</time>
      </trkpt>
      <trkpt lat="42.35779" lon="0.8422">
        <ele>1418.4</ele>
        <time>2022-05-23 06:08:46</time>
      </trkpt>
      <trkpt lat="42.3578" lon="0.84222">
        <ele>1418.4</ele>
        <time>2022-05-23 06:08:47</time>
      </trkpt>
      <trkpt lat="42.35781" lon="0.84223">
        <ele>1418.4</ele>
        <time>2022-05-23 06:08:48</time>
      </trkpt>
      <trkpt lat="42.35782" lon="0.84224">
        <ele>1418.4</ele>
        <time>2022-05-23 06:08:49</time>
      </trkpt>
      <trkpt lat="42.35783" lon="0.84225">
        <ele>1418.4</ele>
        <time>2022-05-23 06:08:50</time>
      </trkpt>
      <trkpt lat="42.35784" lon="0.84226">
        <ele>1418.4</ele>
        <time>2022-05-23 06:08:51</time>
      </trkpt>
      <trkpt lat="42.35786" lon="0.84227">
        <ele>1418.4</ele>
        <time>2022-05-23 06:08:52</time>
      </trkpt>
      <trkpt lat="42.35787" lon="0.84228">
        <ele>1418.4</ele>
        <time>2022-05-23 06:08:53</time>
      </trkpt>
      <trkpt lat="42.35788" lon="0.8423">
        <ele>1418.4</ele>
        <time>2022-05-23 06:08:54</time>
      </trkpt>
      <trkpt lat="42.3579" lon="0.84232">
        <ele>1418.4</ele>
        <time>2022-05-23 06:08:55</time>
      </trkpt>
      <trkpt lat="42.35792" lon="0.84233">
        <ele>1418.4</ele>
        <time>2022-05-23 06:08:56</time>
      </trkpt>
      <trkpt lat="42.35793" lon="0.84235">
        <ele>1418.4</ele>
        <time>2022-05-23 06:08:57</time>
      </trkpt>
      <trkpt lat="42.35795" lon="0.84237">
        <ele>1418.4</ele>
        <time>2022-05-23 06:08:58</time>
      </trkpt>
      <trkpt lat="42.35797" lon="0.84239">
        <ele>1418.4</ele>
        <time>2022-05-23 06:08:59</time>
      </trkpt>
      <trkpt lat="42.35799" lon="0.8424">
        <ele>1418.4</ele>
        <time>2022-05-23 06:09:00</time>
      </trkpt>
      <trkpt lat="42.358" lon="0.84242">
        <ele>1418.4</ele>
        <time>2022-05-23 06:09:01</time>
      </trkpt>
      <trkpt lat="42.35802" lon="0.84243">
        <ele>1418.2</ele>
        <time>2022-05-23 06:09:02</time>
      </trkpt>
      <trkpt lat="42.35803" lon="0.84244">
        <ele>1418</ele>
        <time>2022-05-23 06:09:03</time>
      </trkpt>
      <trkpt lat="42.35803" lon="0.84244">
        <ele>1418</ele>
        <time>2022-05-23 06:09:04</time>
      </trkpt>
      <trkpt lat="42.35803" lon="0.84244">
        <ele>1418</ele>
        <time>2022-05-23 06:09:05</time>
      </trkpt>
      <trkpt lat="42.35803" lon="0.84244">
        <ele>1418</ele>
        <time>2022-05-23 06:09:06</time>
      </trkpt>
      <trkpt lat="42.35803" lon="0.84244">
        <ele>1418</ele>
        <time>2022-05-23 06:09:07</time>
      </trkpt>
      <trkpt lat="42.35803" lon="0.84244">
        <ele>1418</ele>
        <time>2022-05-23 06:09:08</time>
      </trkpt>
      <trkpt lat="42.35803" lon="0.84244">
        <ele>1418</ele>
        <time>2022-05-23 06:09:09</time>
      </trkpt>
      <trkpt lat="42.35803" lon="0.84244">
        <ele>1418</ele>
        <time>2022-05-23 06:09:10</time>
      </trkpt>
      <trkpt lat="42.35825" lon="0.84246">
        <ele>1417.8</ele>
        <time>2022-05-23 06:09:11</time>
      </trkpt>
      <trkpt lat="42.3583" lon="0.84246">
        <ele>1417.6</ele>
        <time>2022-05-23 06:09:12</time>
      </trkpt>
      <trkpt lat="42.35836" lon="0.84246">
        <ele>1417.2</ele>
        <time>2022-05-23 06:09:13</time>
      </trkpt>
      <trkpt lat="42.35842" lon="0.84245">
        <ele>1417</ele>
        <time>2022-05-23 06:09:14</time>
      </trkpt>
      <trkpt lat="42.35848" lon="0.84245">
        <ele>1416.6</ele>
        <time>2022-05-23 06:09:15</time>
      </trkpt>
      <trkpt lat="42.35855" lon="0.84244">
        <ele>1416</ele>
        <time>2022-05-23 06:09:16</time>
      </trkpt>
      <trkpt lat="42.35862" lon="0.84242">
        <ele>1415.4</ele>
        <time>2022-05-23 06:09:17</time>
      </trkpt>
      <trkpt lat="42.3587" lon="0.84239">
        <ele>1414.8</ele>
        <time>2022-05-23 06:09:18</time>
      </trkpt>
      <trkpt lat="42.35878" lon="0.84237">
        <ele>1414.2</ele>
        <time>2022-05-23 06:09:19</time>
      </trkpt>
      <trkpt lat="42.35886" lon="0.84234">
        <ele>1413.4</ele>
        <time>2022-05-23 06:09:20</time>
      </trkpt>
      <trkpt lat="42.35895" lon="0.84231">
        <ele>1412.8</ele>
        <time>2022-05-23 06:09:21</time>
      </trkpt>
      <trkpt lat="42.35903" lon="0.84229">
        <ele>1412.2</ele>
        <time>2022-05-23 06:09:22</time>
      </trkpt>
      <trkpt lat="42.35911" lon="0.84227">
        <ele>1411.6</ele>
        <time>2022-05-23 06:09:23</time>
      </trkpt>
      <trkpt lat="42.35918" lon="0.84225">
        <ele>1411</ele>
        <time>2022-05-23 06:09:24</time>
      </trkpt>
      <trkpt lat="42.35924" lon="0.84224">
        <ele>1410.6</ele>
        <time>2022-05-23 06:09:25</time>
      </trkpt>
      <trkpt lat="42.3593" lon="0.84223">
        <ele>1410.2</ele>
        <time>2022-05-23 06:09:26</time>
      </trkpt>
      <trkpt lat="42.35934" lon="0.84223">
        <ele>1410</ele>
        <time>2022-05-23 06:10:27</time>
      </trkpt>
      <trkpt lat="42.35937" lon="0.84222">
        <ele>1409.8</ele>
        <time>2022-05-23 06:10:28</time>
      </trkpt>
      <trkpt lat="42.3594" lon="0.84221">
        <ele>1409.6</ele>
        <time>2022-05-23 06:10:29</time>
      </trkpt>
      <trkpt lat="42.35943" lon="0.8422">
        <ele>1409.4</ele>
        <time>2022-05-23 06:10:30</time>
      </trkpt>
      <trkpt lat="42.35946" lon="0.84219">
        <ele>1409.2</ele>
        <time>2022-05-23 06:10:31</time>
      </trkpt>
      <trkpt lat="42.35948" lon="0.84219">
        <ele>1409</ele>
        <time>2022-05-23 06:10:32</time>
      </trkpt>
      <trkpt lat="42.35949" lon="0.84219">
        <ele>1408.8</ele>
        <time>2022-05-23 06:10:33</time>
      </trkpt>
      <trkpt lat="42.35949" lon="0.84219">
        <ele>1408.8</ele>
        <time>2022-05-23 06:10:34</time>
      </trkpt>
      <trkpt lat="42.3595" lon="0.84219">
        <ele>1408.6</ele>
        <time>2022-05-23 06:14:19</time>
      </trkpt>
      <trkpt lat="42.3595" lon="0.84219">
        <ele>1408.6</ele>
        <time>2022-05-23 06:14:20</time>
      </trkpt>
      <trkpt lat="42.3595" lon="0.84219">
        <ele>1408.4</ele>
        <time>2022-05-23 06:14:21</time>
      </trkpt>
      <trkpt lat="42.35954" lon="0.84216">
        <ele>1408.4</ele>
        <time>2022-05-23 06:14:22</time>
      </trkpt>
      <trkpt lat="42.35956" lon="0.84215">
        <ele>1408.2</ele>
        <time>2022-05-23 06:14:23</time>
      </trkpt>
      <trkpt lat="42.35957" lon="0.84213">
        <ele>1408</ele>
        <time>2022-05-23 06:14:24</time>
      </trkpt>
      <trkpt lat="42.35958" lon="0.84213">
        <ele>1407.8</ele>
        <time>2022-05-23 06:14:25</time>
      </trkpt>
      <trkpt lat="42.35958" lon="0.84213">
        <ele>1407.8</ele>
        <time>2022-05-23 06:14:26</time>
      </trkpt>
      <trkpt lat="42.35958" lon="0.84213">
        <ele>1407.8</ele>
        <time>2022-05-23 06:14:27</time>
      </trkpt>
      <trkpt lat="42.35958" lon="0.84213">
        <ele>1407.6</ele>
        <time>2022-05-23 06:14:28</time>
      </trkpt>
      <trkpt lat="42.35958" lon="0.84213">
        <ele>1407.6</ele>
        <time>2022-05-23 06:14:29</time>
      </trkpt>
      <trkpt lat="42.35972" lon="0.84201">
        <ele>1407.2</ele>
        <time>2022-05-23 06:14:30</time>
      </trkpt>
      <trkpt lat="42.35976" lon="0.84197">
        <ele>1407</ele>
        <time>2022-05-23 06:14:31</time>
      </trkpt>
      <trkpt lat="42.35981" lon="0.84193">
        <ele>1406.8</ele>
        <time>2022-05-23 06:14:32</time>
      </trkpt>
      <trkpt lat="42.35986" lon="0.84189">
        <ele>1406.4</ele>
        <time>2022-05-23 06:14:33</time>
      </trkpt>
      <trkpt lat="42.35992" lon="0.84186">
        <ele>1406</ele>
        <time>2022-05-23 06:14:34</time>
      </trkpt>
      <trkpt lat="42.35999" lon="0.84183">
        <ele>1405.4</ele>
        <time>2022-05-23 06:14:35</time>
      </trkpt>
      <trkpt lat="42.36005" lon="0.84181">
        <ele>1404.8</ele>
        <time>2022-05-23 06:14:36</time>
      </trkpt>
      <trkpt lat="42.36013" lon="0.84181">
        <ele>1404.2</ele>
        <time>2022-05-23 06:14:37</time>
      </trkpt>
      <trkpt lat="42.3602" lon="0.84182">
        <ele>1403.6</ele>
        <time>2022-05-23 06:14:38</time>
      </trkpt>
      <trkpt lat="42.36028" lon="0.84187">
        <ele>1403</ele>
        <time>2022-05-23 06:14:39</time>
      </trkpt>
      <trkpt lat="42.36034" lon="0.84193">
        <ele>1402.2</ele>
        <time>2022-05-23 06:14:40</time>
      </trkpt>
      <trkpt lat="42.3604" lon="0.84201">
        <ele>1401.6</ele>
        <time>2022-05-23 06:14:41</time>
      </trkpt>
      <trkpt lat="42.36046" lon="0.84207">
        <ele>1400.8</ele>
        <time>2022-05-23 06:14:42</time>
      </trkpt>
      <trkpt lat="42.36053" lon="0.84213">
        <ele>1400</ele>
        <time>2022-05-23 06:14:43</time>
      </trkpt>
      <trkpt lat="42.3606" lon="0.84216">
        <ele>1399.2</ele>
        <time>2022-05-23 06:14:44</time>
      </trkpt>
      <trkpt lat="42.36069" lon="0.84217">
        <ele>1398.4</ele>
        <time>2022-05-23 06:14:45</time>
      </trkpt>
      <trkpt lat="42.36077" lon="0.84218">
        <ele>1397.6</ele>
        <time>2022-05-23 06:14:46</time>
      </trkpt>
      <trkpt lat="42.36086" lon="0.84219">
        <ele>1397</ele>
        <time>2022-05-23 06:14:47</time>
      </trkpt>
      <trkpt lat="42.36093" lon="0.8422">
        <ele>1396.2</ele>
        <time>2022-05-23 06:14:48</time>
      </trkpt>
      <trkpt lat="42.36102" lon="0.84225">
        <ele>1395.6</ele>
        <time>2022-05-23 06:14:49</time>
      </trkpt>
      <trkpt lat="42.36109" lon="0.8423">
        <ele>1395</ele>
        <time>2022-05-23 06:14:50</time>
      </trkpt>
      <trkpt lat="42.36118" lon="0.84237">
        <ele>1394.2</ele>
        <time>2022-05-23 06:14:51</time>
      </trkpt>
      <trkpt lat="42.36126" lon="0.84246">
        <ele>1393.4</ele>
        <time>2022-05-23 06:14:52</time>
      </trkpt>
      <trkpt lat="42.36134" lon="0.84256">
        <ele>1392.6</ele>
        <time>2022-05-23 06:14:53</time>
      </trkpt>
      <trkpt lat="42.36141" lon="0.84267">
        <ele>1391.8</ele>
        <time>2022-05-23 06:17:01</time>
      </trkpt>
      <trkpt lat="42.36148" lon="0.8428">
        <ele>1390.8</ele>
        <time>2022-05-23 06:17:02</time>
      </trkpt>
      <trkpt lat="42.36154" lon="0.84293">
        <ele>1390</ele>
        <time>2022-05-23 06:17:03</time>
      </trkpt>
      <trkpt lat="42.36159" lon="0.84307">
        <ele>1389</ele>
        <time>2022-05-23 06:17:04</time>
      </trkpt>
      <trkpt lat="42.36162" lon="0.84322">
        <ele>1388.2</ele>
        <time>2022-05-23 06:17:05</time>
      </trkpt>
      <trkpt lat="42.36164" lon="0.84337">
        <ele>1387.4</ele>
        <time>2022-05-23 06:17:06</time>
      </trkpt>
      <trkpt lat="42.36165" lon="0.84352">
        <ele>1386.4</ele>
        <time>2022-05-23 06:17:07</time>
      </trkpt>
      <trkpt lat="42.36169" lon="0.84368">
        <ele>1385.6</ele>
        <time>2022-05-23 06:17:08</time>
      </trkpt>
      <trkpt lat="42.36173" lon="0.84384">
        <ele>1384.8</ele>
        <time>2022-05-23 06:17:09</time>
      </trkpt>
      <trkpt lat="42.36178" lon="0.844">
        <ele>1383.8</ele>
        <time>2022-05-23 06:17:10</time>
      </trkpt>
      <trkpt lat="42.36184" lon="0.84415">
        <ele>1382.8</ele>
        <time>2022-05-23 06:17:11</time>
      </trkpt>
      <trkpt lat="42.3619" lon="0.84431">
        <ele>1381.8</ele>
        <time>2022-05-23 06:17:12</time>
      </trkpt>
      <trkpt lat="42.36194" lon="0.84446">
        <ele>1380.8</ele>
        <time>2022-05-23 06:17:13</time>
      </trkpt>
      <trkpt lat="42.36198" lon="0.84461">
        <ele>1379.8</ele>
        <time>2022-05-23 06:17:14</time>
      </trkpt>
      <trkpt lat="42.36201" lon="0.84478">
        <ele>1378.6</ele>
        <time>2022-05-23 06:17:15</time>
      </trkpt>
      <trkpt lat="42.36205" lon="0.84496">
        <ele>1377.6</ele>
        <time>2022-05-23 06:17:16</time>
      </trkpt>
      <trkpt lat="42.36208" lon="0.84513">
        <ele>1376.6</ele>
        <time>2022-05-23 06:17:17</time>
      </trkpt>
      <trkpt lat="42.36212" lon="0.84531">
        <ele>1375.4</ele>
        <time>2022-05-23 06:17:18</time>
      </trkpt>
      <trkpt lat="42.36215" lon="0.8455">
        <ele>1374.4</ele>
        <time>2022-05-23 06:17:19</time>
      </trkpt>
      <trkpt lat="42.36218" lon="0.84567">
        <ele>1373.4</ele>
        <time>2022-05-23 06:17:20</time>
      </trkpt>
      <trkpt lat="42.36221" lon="0.84584">
        <ele>1372.4</ele>
        <time>2022-05-23 06:17:21</time>
      </trkpt>
      <trkpt lat="42.36224" lon="0.846">
        <ele>1371.6</ele>
        <time>2022-05-23 06:17:22</time>
      </trkpt>
      <trkpt lat="42.36227" lon="0.84616">
        <ele>1370.8</ele>
        <time>2022-05-23 06:17:23</time>
      </trkpt>
      <trkpt lat="42.36229" lon="0.84629">
        <ele>1370.2</ele>
        <time>2022-05-23 06:17:24</time>
      </trkpt>
      <trkpt lat="42.36233" lon="0.84639">
        <ele>1369.6</ele>
        <time>2022-05-23 06:17:25</time>
      </trkpt>
      <trkpt lat="42.36238" lon="0.84648">
        <ele>1368.8</ele>
        <time>2022-05-23 06:17:26</time>
      </trkpt>
      <trkpt lat="42.36245" lon="0.84655">
        <ele>1368.2</ele>
        <time>2022-05-23 06:17:27</time>
      </trkpt>
      <trkpt lat="42.36255" lon="0.8466">
        <ele>1367.4</ele>
        <time>2022-05-23 06:17:28</time>
      </trkpt>
      <trkpt lat="42.36264" lon="0.84662">
        <ele>1366.4</ele>
        <time>2022-05-23 06:17:29</time>
      </trkpt>
      <trkpt lat="42.36276" lon="0.84663">
        <ele>1365.4</ele>
        <time>2022-05-23 06:17:30</time>
      </trkpt>
      <trkpt lat="42.36287" lon="0.84663">
        <ele>1364.6</ele>
        <time>2022-05-23 06:17:31</time>
      </trkpt>
      <trkpt lat="42.36298" lon="0.84664">
        <ele>1363.6</ele>
        <time>2022-05-23 06:17:32</time>
      </trkpt>
      <trkpt lat="42.36309" lon="0.84665">
        <ele>1362.8</ele>
        <time>2022-05-23 06:17:33</time>
      </trkpt>
      <trkpt lat="42.3632" lon="0.84667">
        <ele>1362</ele>
        <time>2022-05-23 06:17:34</time>
      </trkpt>
      <trkpt lat="42.36331" lon="0.84671">
        <ele>1361.2</ele>
        <time>2022-05-23 06:17:35</time>
      </trkpt>
      <trkpt lat="42.36341" lon="0.84676">
        <ele>1360.4</ele>
        <time>2022-05-23 06:17:36</time>
      </trkpt>
      <trkpt lat="42.36351" lon="0.84683">
        <ele>1359.4</ele>
        <time>2022-05-23 06:17:37</time>
      </trkpt>
      <trkpt lat="42.3636" lon="0.84692">
        <ele>1358.6</ele>
        <time>2022-05-23 06:17:38</time>
      </trkpt>
      <trkpt lat="42.3637" lon="0.84703">
        <ele>1357.8</ele>
        <time>2022-05-23 06:17:39</time>
      </trkpt>
      <trkpt lat="42.36379" lon="0.84713">
        <ele>1357</ele>
        <time>2022-05-23 06:17:40</time>
      </trkpt>
      <trkpt lat="42.36389" lon="0.84722">
        <ele>1356.2</ele>
        <time>2022-05-23 06:17:41</time>
      </trkpt>
      <trkpt lat="42.36398" lon="0.84729">
        <ele>1355.4</ele>
        <time>2022-05-23 06:17:42</time>
      </trkpt>
      <trkpt lat="42.36408" lon="0.84733">
        <ele>1354.8</ele>
        <time>2022-05-23 06:17:43</time>
      </trkpt>
      <trkpt lat="42.36421" lon="0.84735">
        <ele>1353.6</ele>
        <time>2022-05-23 06:17:44</time>
      </trkpt>
      <trkpt lat="42.36433" lon="0.84736">
        <ele>1352.8</ele>
        <time>2022-05-23 06:17:45</time>
      </trkpt>
      <trkpt lat="42.36446" lon="0.84735">
        <ele>1351.8</ele>
        <time>2022-05-23 06:17:46</time>
      </trkpt>
      <trkpt lat="42.36459" lon="0.84734">
        <ele>1351</ele>
        <time>2022-05-23 06:17:47</time>
      </trkpt>
      <trkpt lat="42.3647" lon="0.84731">
        <ele>1350.2</ele>
        <time>2022-05-23 06:17:48</time>
      </trkpt>
      <trkpt lat="42.36481" lon="0.84725">
        <ele>1349.6</ele>
        <time>2022-05-23 06:17:49</time>
      </trkpt>
      <trkpt lat="42.36489" lon="0.8472">
        <ele>1349</ele>
        <time>2022-05-23 06:17:50</time>
      </trkpt>
      <trkpt lat="42.36497" lon="0.84719">
        <ele>1348.6</ele>
        <time>2022-05-23 06:17:51</time>
      </trkpt>
      <trkpt lat="42.36503" lon="0.84722">
        <ele>1348.2</ele>
        <time>2022-05-23 06:17:52</time>
      </trkpt>
      <trkpt lat="42.36508" lon="0.84729">
        <ele>1347.6</ele>
        <time>2022-05-23 06:17:53</time>
      </trkpt>
      <trkpt lat="42.36509" lon="0.84739">
        <ele>1347</ele>
        <time>2022-05-23 06:17:54</time>
      </trkpt>
      <trkpt lat="42.36507" lon="0.84749">
        <ele>1346.2</ele>
        <time>2022-05-23 06:17:55</time>
      </trkpt>
      <trkpt lat="42.36502" lon="0.84757">
        <ele>1345.6</ele>
        <time>2022-05-23 06:17:56</time>
      </trkpt>
      <trkpt lat="42.36495" lon="0.84761">
        <ele>1344.8</ele>
        <time>2022-05-23 06:17:57</time>
      </trkpt>
      <trkpt lat="42.36487" lon="0.84765">
        <ele>1344.2</ele>
        <time>2022-05-23 06:17:58</time>
      </trkpt>
      <trkpt lat="42.36478" lon="0.84768">
        <ele>1343.6</ele>
        <time>2022-05-23 06:17:59</time>
      </trkpt>
      <trkpt lat="42.3647" lon="0.84771">
        <ele>1343</ele>
        <time>2022-05-23 06:18:00</time>
      </trkpt>
      <trkpt lat="42.36462" lon="0.84774">
        <ele>1342.4</ele>
        <time>2022-05-23 06:18:01</time>
      </trkpt>
      <trkpt lat="42.36454" lon="0.8478">
        <ele>1341.8</ele>
        <time>2022-05-23 06:18:02</time>
      </trkpt>
      <trkpt lat="42.36446" lon="0.84786">
        <ele>1341</ele>
        <time>2022-05-23 06:18:03</time>
      </trkpt>
      <trkpt lat="42.36438" lon="0.84796">
        <ele>1340.4</ele>
        <time>2022-05-23 06:18:04</time>
      </trkpt>
      <trkpt lat="42.36432" lon="0.84806">
        <ele>1340</ele>
        <time>2022-05-23 06:18:05</time>
      </trkpt>
      <trkpt lat="42.36426" lon="0.84816">
        <ele>1339.6</ele>
        <time>2022-05-23 06:18:06</time>
      </trkpt>
      <trkpt lat="42.36421" lon="0.84825">
        <ele>1339.2</ele>
        <time>2022-05-23 06:18:07</time>
      </trkpt>
      <trkpt lat="42.36418" lon="0.84833">
        <ele>1339</ele>
        <time>2022-05-23 06:18:08</time>
      </trkpt>
      <trkpt lat="42.36417" lon="0.84842">
        <ele>1338.6</ele>
        <time>2022-05-23 06:18:09</time>
      </trkpt>
      <trkpt lat="42.3642" lon="0.8485">
        <ele>1338.4</ele>
        <time>2022-05-23 06:18:10</time>
      </trkpt>
      <trkpt lat="42.36424" lon="0.84855">
        <ele>1338</ele>
        <time>2022-05-23 06:18:11</time>
      </trkpt>
      <trkpt lat="42.36431" lon="0.84857">
        <ele>1337.6</ele>
        <time>2022-05-23 06:18:12</time>
      </trkpt>
      <trkpt lat="42.36438" lon="0.84855">
        <ele>1337.2</ele>
        <time>2022-05-23 06:18:13</time>
      </trkpt>
      <trkpt lat="42.36444" lon="0.84849">
        <ele>1336.6</ele>
        <time>2022-05-23 06:18:14</time>
      </trkpt>
      <trkpt lat="42.36449" lon="0.84841">
        <ele>1336.2</ele>
        <time>2022-05-23 06:18:15</time>
      </trkpt>
      <trkpt lat="42.36453" lon="0.84833">
        <ele>1335.6</ele>
        <time>2022-05-23 06:18:16</time>
      </trkpt>
      <trkpt lat="42.36458" lon="0.84826">
        <ele>1335.2</ele>
        <time>2022-05-23 06:18:17</time>
      </trkpt>
      <trkpt lat="42.36464" lon="0.84819">
        <ele>1334.8</ele>
        <time>2022-05-23 06:18:18</time>
      </trkpt>
      <trkpt lat="42.36471" lon="0.84813">
        <ele>1334.2</ele>
        <time>2022-05-23 06:18:19</time>
      </trkpt>
      <trkpt lat="42.36477" lon="0.84807">
        <ele>1334</ele>
        <time>2022-05-23 06:18:20</time>
      </trkpt>
      <trkpt lat="42.36484" lon="0.84802">
        <ele>1333.6</ele>
        <time>2022-05-23 06:18:21</time>
      </trkpt>
      <trkpt lat="42.36491" lon="0.84799">
        <ele>1333.4</ele>
        <time>2022-05-23 06:18:22</time>
      </trkpt>
      <trkpt lat="42.36498" lon="0.84798">
        <ele>1333.2</ele>
        <time>2022-05-23 06:18:23</time>
      </trkpt>
      <trkpt lat="42.36502" lon="0.84801">
        <ele>1332.8</ele>
        <time>2022-05-23 06:18:24</time>
      </trkpt>
      <trkpt lat="42.36504" lon="0.84808">
        <ele>1332.4</ele>
        <time>2022-05-23 06:18:25</time>
      </trkpt>
      <trkpt lat="42.36502" lon="0.84815">
        <ele>1331.8</ele>
        <time>2022-05-23 06:18:26</time>
      </trkpt>
      <trkpt lat="42.36496" lon="0.84822">
        <ele>1331.2</ele>
        <time>2022-05-23 06:18:27</time>
      </trkpt>
      <trkpt lat="42.36488" lon="0.84825">
        <ele>1330.6</ele>
        <time>2022-05-23 06:18:28</time>
      </trkpt>
      <trkpt lat="42.3648" lon="0.84829">
        <ele>1330</ele>
        <time>2022-05-23 06:18:29</time>
      </trkpt>
      <trkpt lat="42.36473" lon="0.84835">
        <ele>1329.2</ele>
        <time>2022-05-23 06:18:30</time>
      </trkpt>
      <trkpt lat="42.36468" lon="0.84843">
        <ele>1328.8</ele>
        <time>2022-05-23 06:18:31</time>
      </trkpt>
      <trkpt lat="42.36464" lon="0.84854">
        <ele>1328.4</ele>
        <time>2022-05-23 06:18:32</time>
      </trkpt>
      <trkpt lat="42.36462" lon="0.84865">
        <ele>1327.8</ele>
        <time>2022-05-23 06:18:33</time>
      </trkpt>
      <trkpt lat="42.36461" lon="0.84877">
        <ele>1327</ele>
        <time>2022-05-23 06:18:34</time>
      </trkpt>
      <trkpt lat="42.3646" lon="0.84889">
        <ele>1326.4</ele>
        <time>2022-05-23 06:18:35</time>
      </trkpt>
      <trkpt lat="42.3646" lon="0.84905">
        <ele>1325.6</ele>
        <time>2022-05-23 06:18:36</time>
      </trkpt>
      <trkpt lat="42.36459" lon="0.8492">
        <ele>1324.8</ele>
        <time>2022-05-23 06:18:37</time>
      </trkpt>
      <trkpt lat="42.36457" lon="0.84935">
        <ele>1324</ele>
        <time>2022-05-23 06:18:38</time>
      </trkpt>
      <trkpt lat="42.36457" lon="0.8495">
        <ele>1323.4</ele>
        <time>2022-05-23 06:18:39</time>
      </trkpt>
      <trkpt lat="42.36457" lon="0.84965">
        <ele>1322.6</ele>
        <time>2022-05-23 06:18:40</time>
      </trkpt>
      <trkpt lat="42.3646" lon="0.8498">
        <ele>1321.8</ele>
        <time>2022-05-23 06:18:41</time>
      </trkpt>
      <trkpt lat="42.36464" lon="0.84993">
        <ele>1321.2</ele>
        <time>2022-05-23 06:18:42</time>
      </trkpt>
      <trkpt lat="42.36471" lon="0.85004">
        <ele>1320.4</ele>
        <time>2022-05-23 06:18:43</time>
      </trkpt>
      <trkpt lat="42.36479" lon="0.85017">
        <ele>1319.4</ele>
        <time>2022-05-23 06:18:44</time>
      </trkpt>
      <trkpt lat="42.36487" lon="0.85029">
        <ele>1318.4</ele>
        <time>2022-05-23 06:18:45</time>
      </trkpt>
      <trkpt lat="42.36495" lon="0.85042">
        <ele>1317.4</ele>
        <time>2022-05-23 06:18:46</time>
      </trkpt>
      <trkpt lat="42.36504" lon="0.85055">
        <ele>1316.4</ele>
        <time>2022-05-23 06:18:47</time>
      </trkpt>
      <trkpt lat="42.36511" lon="0.85067">
        <ele>1315.4</ele>
        <time>2022-05-23 06:18:48</time>
      </trkpt>
      <trkpt lat="42.3652" lon="0.8508">
        <ele>1314.4</ele>
        <time>2022-05-23 06:18:49</time>
      </trkpt>
      <trkpt lat="42.36528" lon="0.85093">
        <ele>1313.4</ele>
        <time>2022-05-23 06:18:50</time>
      </trkpt>
      <trkpt lat="42.36536" lon="0.85106">
        <ele>1312.6</ele>
        <time>2022-05-23 06:18:51</time>
      </trkpt>
      <trkpt lat="42.36545" lon="0.85119">
        <ele>1311.6</ele>
        <time>2022-05-23 06:18:52</time>
      </trkpt>
      <trkpt lat="42.36553" lon="0.8513">
        <ele>1310.8</ele>
        <time>2022-05-23 06:18:53</time>
      </trkpt>
      <trkpt lat="42.36563" lon="0.85142">
        <ele>1310</ele>
        <time>2022-05-23 06:18:54</time>
      </trkpt>
      <trkpt lat="42.36573" lon="0.85152">
        <ele>1309.2</ele>
        <time>2022-05-23 06:18:55</time>
      </trkpt>
      <trkpt lat="42.36583" lon="0.85163">
        <ele>1308.6</ele>
        <time>2022-05-23 06:18:56</time>
      </trkpt>
      <trkpt lat="42.36591" lon="0.85175">
        <ele>1308</ele>
        <time>2022-05-23 06:18:57</time>
      </trkpt>
      <trkpt lat="42.36598" lon="0.85189">
        <ele>1307.4</ele>
        <time>2022-05-23 06:18:58</time>
      </trkpt>
      <trkpt lat="42.36601" lon="0.85204">
        <ele>1306.8</ele>
        <time>2022-05-23 06:18:59</time>
      </trkpt>
      <trkpt lat="42.36603" lon="0.8522">
        <ele>1306.2</ele>
        <time>2022-05-23 06:19:00</time>
      </trkpt>
      <trkpt lat="42.36602" lon="0.85236">
        <ele>1305.6</ele>
        <time>2022-05-23 06:19:01</time>
      </trkpt>
      <trkpt lat="42.36601" lon="0.85252">
        <ele>1305</ele>
        <time>2022-05-23 06:19:02</time>
      </trkpt>
      <trkpt lat="42.366" lon="0.85267">
        <ele>1304.4</ele>
        <time>2022-05-23 06:19:03</time>
      </trkpt>
      <trkpt lat="42.36598" lon="0.8528">
        <ele>1303.8</ele>
        <time>2022-05-23 06:19:04</time>
      </trkpt>
      <trkpt lat="42.36594" lon="0.8529">
        <ele>1303.4</ele>
        <time>2022-05-23 06:19:05</time>
      </trkpt>
      <trkpt lat="42.36587" lon="0.85295">
        <ele>1303</ele>
        <time>2022-05-23 06:19:06</time>
      </trkpt>
      <trkpt lat="42.3658" lon="0.85296">
        <ele>1302.6</ele>
        <time>2022-05-23 06:19:07</time>
      </trkpt>
      <trkpt lat="42.36573" lon="0.85291">
        <ele>1302</ele>
        <time>2022-05-23 06:19:08</time>
      </trkpt>
      <trkpt lat="42.36568" lon="0.85285">
        <ele>1301.6</ele>
        <time>2022-05-23 06:19:09</time>
      </trkpt>
      <trkpt lat="42.36563" lon="0.85277">
        <ele>1301.2</ele>
        <time>2022-05-23 06:19:10</time>
      </trkpt>
      <trkpt lat="42.36558" lon="0.8527">
        <ele>1301</ele>
        <time>2022-05-23 06:19:11</time>
      </trkpt>
      <trkpt lat="42.36553" lon="0.85263">
        <ele>1300.6</ele>
        <time>2022-05-23 06:19:12</time>
      </trkpt>
      <trkpt lat="42.36548" lon="0.85255">
        <ele>1300.2</ele>
        <time>2022-05-23 06:19:13</time>
      </trkpt>
      <trkpt lat="42.36543" lon="0.85247">
        <ele>1300</ele>
        <time>2022-05-23 06:19:14</time>
      </trkpt>
      <trkpt lat="42.36539" lon="0.8524">
        <ele>1299.8</ele>
        <time>2022-05-23 06:19:15</time>
      </trkpt>
      <trkpt lat="42.36534" lon="0.85232">
        <ele>1299.6</ele>
        <time>2022-05-23 06:19:16</time>
      </trkpt>
      <trkpt lat="42.3653" lon="0.85225">
        <ele>1299.6</ele>
        <time>2022-05-23 06:19:17</time>
      </trkpt>
      <trkpt lat="42.36526" lon="0.85218">
        <ele>1299.4</ele>
        <time>2022-05-23 06:19:18</time>
      </trkpt>
      <trkpt lat="42.36522" lon="0.85211">
        <ele>1299.4</ele>
        <time>2022-05-23 06:19:19</time>
      </trkpt>
      <trkpt lat="42.36518" lon="0.85204">
        <ele>1299.4</ele>
        <time>2022-05-23 06:19:20</time>
      </trkpt>
      <trkpt lat="42.36515" lon="0.85198">
        <ele>1299.2</ele>
        <time>2022-05-23 06:19:21</time>
      </trkpt>
      <trkpt lat="42.3651" lon="0.85191">
        <ele>1299.2</ele>
        <time>2022-05-23 06:19:22</time>
      </trkpt>
      <trkpt lat="42.36507" lon="0.85186">
        <ele>1299.2</ele>
        <time>2022-05-23 06:19:23</time>
      </trkpt>
      <trkpt lat="42.36503" lon="0.85177">
        <ele>1299</ele>
        <time>2022-05-23 06:19:24</time>
      </trkpt>
      <trkpt lat="42.36499" lon="0.85171">
        <ele>1299</ele>
        <time>2022-05-23 06:19:25</time>
      </trkpt>
      <trkpt lat="42.36495" lon="0.85164">
        <ele>1298.8</ele>
        <time>2022-05-23 06:19:26</time>
      </trkpt>
      <trkpt lat="42.36491" lon="0.85157">
        <ele>1298.6</ele>
        <time>2022-05-23 06:19:27</time>
      </trkpt>
      <trkpt lat="42.36487" lon="0.8515">
        <ele>1298.4</ele>
        <time>2022-05-23 06:19:28</time>
      </trkpt>
      <trkpt lat="42.36482" lon="0.85143">
        <ele>1298.4</ele>
        <time>2022-05-23 06:19:29</time>
      </trkpt>
      <trkpt lat="42.36478" lon="0.85136">
        <ele>1298</ele>
        <time>2022-05-23 06:19:30</time>
      </trkpt>
      <trkpt lat="42.36473" lon="0.85129">
        <ele>1297.8</ele>
        <time>2022-05-23 06:19:31</time>
      </trkpt>
      <trkpt lat="42.36469" lon="0.85121">
        <ele>1297.4</ele>
        <time>2022-05-23 06:19:32</time>
      </trkpt>
      <trkpt lat="42.36464" lon="0.85113">
        <ele>1297</ele>
        <time>2022-05-23 06:19:33</time>
      </trkpt>
      <trkpt lat="42.3646" lon="0.85106">
        <ele>1296.8</ele>
        <time>2022-05-23 06:19:34</time>
      </trkpt>
      <trkpt lat="42.36455" lon="0.85098">
        <ele>1296.4</ele>
        <time>2022-05-23 06:19:35</time>
      </trkpt>
      <trkpt lat="42.36451" lon="0.85089">
        <ele>1296</ele>
        <time>2022-05-23 06:19:36</time>
      </trkpt>
      <trkpt lat="42.36446" lon="0.85081">
        <ele>1295.8</ele>
        <time>2022-05-23 06:19:37</time>
      </trkpt>
      <trkpt lat="42.36441" lon="0.85074">
        <ele>1295.4</ele>
        <time>2022-05-23 06:19:38</time>
      </trkpt>
      <trkpt lat="42.36437" lon="0.85066">
        <ele>1295</ele>
        <time>2022-05-23 06:19:39</time>
      </trkpt>
      <trkpt lat="42.36431" lon="0.85058">
        <ele>1294.6</ele>
        <time>2022-05-23 06:19:40</time>
      </trkpt>
      <trkpt lat="42.36425" lon="0.8505">
        <ele>1294.4</ele>
        <time>2022-05-23 06:19:41</time>
      </trkpt>
      <trkpt lat="42.3642" lon="0.85042">
        <ele>1294</ele>
        <time>2022-05-23 06:19:42</time>
      </trkpt>
      <trkpt lat="42.36414" lon="0.85034">
        <ele>1293.8</ele>
        <time>2022-05-23 06:19:43</time>
      </trkpt>
      <trkpt lat="42.36409" lon="0.85025">
        <ele>1293.4</ele>
        <time>2022-05-23 06:19:44</time>
      </trkpt>
      <trkpt lat="42.36403" lon="0.85017">
        <ele>1293.2</ele>
        <time>2022-05-23 06:19:45</time>
      </trkpt>
      <trkpt lat="42.36398" lon="0.85009">
        <ele>1293.2</ele>
        <time>2022-05-23 06:19:46</time>
      </trkpt>
      <trkpt lat="42.36392" lon="0.85002">
        <ele>1293</ele>
        <time>2022-05-23 06:19:47</time>
      </trkpt>
      <trkpt lat="42.36386" lon="0.84995">
        <ele>1292.8</ele>
        <time>2022-05-23 06:19:48</time>
      </trkpt>
      <trkpt lat="42.3638" lon="0.84988">
        <ele>1292.6</ele>
        <time>2022-05-23 06:19:49</time>
      </trkpt>
      <trkpt lat="42.36375" lon="0.84982">
        <ele>1292.6</ele>
        <time>2022-05-23 06:19:50</time>
      </trkpt>
      <trkpt lat="42.36369" lon="0.84976">
        <ele>1292.4</ele>
        <time>2022-05-23 06:19:51</time>
      </trkpt>
      <trkpt lat="42.36363" lon="0.8497">
        <ele>1292.4</ele>
        <time>2022-05-23 06:19:52</time>
      </trkpt>
      <trkpt lat="42.36357" lon="0.84964">
        <ele>1292.2</ele>
        <time>2022-05-23 06:19:53</time>
      </trkpt>
      <trkpt lat="42.36352" lon="0.84958">
        <ele>1292</ele>
        <time>2022-05-23 06:19:54</time>
      </trkpt>
      <trkpt lat="42.36347" lon="0.84952">
        <ele>1292</ele>
        <time>2022-05-23 06:19:55</time>
      </trkpt>
      <trkpt lat="42.36341" lon="0.84946">
        <ele>1291.8</ele>
        <time>2022-05-23 06:19:56</time>
      </trkpt>
      <trkpt lat="42.36336" lon="0.8494">
        <ele>1291.8</ele>
        <time>2022-05-23 06:19:57</time>
      </trkpt>
      <trkpt lat="42.36331" lon="0.84935">
        <ele>1291.6</ele>
        <time>2022-05-23 06:19:58</time>
      </trkpt>
      <trkpt lat="42.36325" lon="0.84929">
        <ele>1291.4</ele>
        <time>2022-05-23 06:19:59</time>
      </trkpt>
      <trkpt lat="42.36319" lon="0.84923">
        <ele>1291.2</ele>
        <time>2022-05-23 06:20:00</time>
      </trkpt>
      <trkpt lat="42.36314" lon="0.84917">
        <ele>1291</ele>
        <time>2022-05-23 06:20:01</time>
      </trkpt>
      <trkpt lat="42.36309" lon="0.84911">
        <ele>1291</ele>
        <time>2022-05-23 06:20:02</time>
      </trkpt>
      <trkpt lat="42.36304" lon="0.84906">
        <ele>1290.8</ele>
        <time>2022-05-23 06:20:03</time>
      </trkpt>
      <trkpt lat="42.36298" lon="0.849">
        <ele>1290.6</ele>
        <time>2022-05-23 06:20:04</time>
      </trkpt>
      <trkpt lat="42.36292" lon="0.84895">
        <ele>1290.4</ele>
        <time>2022-05-23 06:20:05</time>
      </trkpt>
      <trkpt lat="42.36285" lon="0.84892">
        <ele>1290.2</ele>
        <time>2022-05-23 06:20:06</time>
      </trkpt>
      <trkpt lat="42.36279" lon="0.84891">
        <ele>1290</ele>
        <time>2022-05-23 06:20:07</time>
      </trkpt>
      <trkpt lat="42.36272" lon="0.84892">
        <ele>1290</ele>
        <time>2022-05-23 06:20:08</time>
      </trkpt>
      <trkpt lat="42.36266" lon="0.84895">
        <ele>1289.8</ele>
        <time>2022-05-23 06:20:09</time>
      </trkpt>
      <trkpt lat="42.36261" lon="0.84901">
        <ele>1289.8</ele>
        <time>2022-05-23 06:20:10</time>
      </trkpt>
      <trkpt lat="42.36257" lon="0.84908">
        <ele>1289.6</ele>
        <time>2022-05-23 06:20:11</time>
      </trkpt>
      <trkpt lat="42.36254" lon="0.84916">
        <ele>1289.4</ele>
        <time>2022-05-23 06:20:12</time>
      </trkpt>
      <trkpt lat="42.36251" lon="0.84924">
        <ele>1289.2</ele>
        <time>2022-05-23 06:20:13</time>
      </trkpt>
      <trkpt lat="42.36249" lon="0.84934">
        <ele>1289</ele>
        <time>2022-05-23 06:20:14</time>
      </trkpt>
      <trkpt lat="42.36246" lon="0.84944">
        <ele>1288.6</ele>
        <time>2022-05-23 06:20:15</time>
      </trkpt>
      <trkpt lat="42.36244" lon="0.84955">
        <ele>1288.2</ele>
        <time>2022-05-23 06:20:16</time>
      </trkpt>
      <trkpt lat="42.36241" lon="0.84966">
        <ele>1287.8</ele>
        <time>2022-05-23 06:20:17</time>
      </trkpt>
      <trkpt lat="42.3624" lon="0.84977">
        <ele>1287.2</ele>
        <time>2022-05-23 06:20:18</time>
      </trkpt>
      <trkpt lat="42.36238" lon="0.84987">
        <ele>1286.6</ele>
        <time>2022-05-23 06:20:19</time>
      </trkpt>
      <trkpt lat="42.36237" lon="0.85002">
        <ele>1286</ele>
        <time>2022-05-23 06:20:20</time>
      </trkpt>
      <trkpt lat="42.36236" lon="0.85017">
        <ele>1285.4</ele>
        <time>2022-05-23 06:20:21</time>
      </trkpt>
      <trkpt lat="42.36237" lon="0.85031">
        <ele>1284.6</ele>
        <time>2022-05-23 06:20:22</time>
      </trkpt>
      <trkpt lat="42.36239" lon="0.85044">
        <ele>1283.8</ele>
        <time>2022-05-23 06:20:23</time>
      </trkpt>
      <trkpt lat="42.3624" lon="0.85058">
        <ele>1283</ele>
        <time>2022-05-23 06:20:24</time>
      </trkpt>
      <trkpt lat="42.3624" lon="0.85071">
        <ele>1282.2</ele>
        <time>2022-05-23 06:20:25</time>
      </trkpt>
      <trkpt lat="42.36237" lon="0.85084">
        <ele>1281.6</ele>
        <time>2022-05-23 06:20:26</time>
      </trkpt>
      <trkpt lat="42.36233" lon="0.85094">
        <ele>1281</ele>
        <time>2022-05-23 06:20:27</time>
      </trkpt>
      <trkpt lat="42.36229" lon="0.85103">
        <ele>1280.6</ele>
        <time>2022-05-23 06:20:28</time>
      </trkpt>
      <trkpt lat="42.36226" lon="0.85111">
        <ele>1280.2</ele>
        <time>2022-05-23 06:20:29</time>
      </trkpt>
      <trkpt lat="42.36224" lon="0.8512">
        <ele>1279.8</ele>
        <time>2022-05-23 06:20:30</time>
      </trkpt>
      <trkpt lat="42.36223" lon="0.85129">
        <ele>1279.4</ele>
        <time>2022-05-23 06:20:31</time>
      </trkpt>
      <trkpt lat="42.36226" lon="0.85138">
        <ele>1279</ele>
        <time>2022-05-23 06:20:32</time>
      </trkpt>
      <trkpt lat="42.36231" lon="0.85144">
        <ele>1278.4</ele>
        <time>2022-05-23 06:20:33</time>
      </trkpt>
      <trkpt lat="42.36237" lon="0.85147">
        <ele>1278</ele>
        <time>2022-05-23 06:20:34</time>
      </trkpt>
      <trkpt lat="42.36244" lon="0.85147">
        <ele>1277.4</ele>
        <time>2022-05-23 06:20:35</time>
      </trkpt>
      <trkpt lat="42.36251" lon="0.85142">
        <ele>1276.8</ele>
        <time>2022-05-23 06:20:36</time>
      </trkpt>
      <trkpt lat="42.36255" lon="0.85134">
        <ele>1276.2</ele>
        <time>2022-05-23 06:20:37</time>
      </trkpt>
      <trkpt lat="42.36258" lon="0.85123">
        <ele>1275.4</ele>
        <time>2022-05-23 06:20:38</time>
      </trkpt>
      <trkpt lat="42.3626" lon="0.85112">
        <ele>1274.8</ele>
        <time>2022-05-23 06:20:39</time>
      </trkpt>
      <trkpt lat="42.36262" lon="0.85101">
        <ele>1274.2</ele>
        <time>2022-05-23 06:20:40</time>
      </trkpt>
      <trkpt lat="42.36264" lon="0.85089">
        <ele>1273.6</ele>
        <time>2022-05-23 06:20:41</time>
      </trkpt>
      <trkpt lat="42.36266" lon="0.85077">
        <ele>1273</ele>
        <time>2022-05-23 06:20:42</time>
      </trkpt>
      <trkpt lat="42.36268" lon="0.85065">
        <ele>1272.4</ele>
        <time>2022-05-23 06:20:43</time>
      </trkpt>
      <trkpt lat="42.3627" lon="0.85052">
        <ele>1271.8</ele>
        <time>2022-05-23 06:20:44</time>
      </trkpt>
      <trkpt lat="42.36273" lon="0.85041">
        <ele>1271.4</ele>
        <time>2022-05-23 06:20:45</time>
      </trkpt>
      <trkpt lat="42.36276" lon="0.85031">
        <ele>1271</ele>
        <time>2022-05-23 06:20:46</time>
      </trkpt>
      <trkpt lat="42.36282" lon="0.85024">
        <ele>1270.4</ele>
        <time>2022-05-23 06:20:47</time>
      </trkpt>
      <trkpt lat="42.36288" lon="0.85021">
        <ele>1269.8</ele>
        <time>2022-05-23 06:20:48</time>
      </trkpt>
      <trkpt lat="42.36296" lon="0.85023">
        <ele>1269.4</ele>
        <time>2022-05-23 06:20:49</time>
      </trkpt>
      <trkpt lat="42.36303" lon="0.85027">
        <ele>1268.8</ele>
        <time>2022-05-23 06:20:50</time>
      </trkpt>
      <trkpt lat="42.36311" lon="0.85034">
        <ele>1268.2</ele>
        <time>2022-05-23 06:20:51</time>
      </trkpt>
      <trkpt lat="42.36318" lon="0.85042">
        <ele>1267.6</ele>
        <time>2022-05-23 06:20:52</time>
      </trkpt>
      <trkpt lat="42.36326" lon="0.85049">
        <ele>1267</ele>
        <time>2022-05-23 06:20:53</time>
      </trkpt>
      <trkpt lat="42.36333" lon="0.85058">
        <ele>1266.2</ele>
        <time>2022-05-23 06:20:54</time>
      </trkpt>
      <trkpt lat="42.36342" lon="0.85067">
        <ele>1265.2</ele>
        <time>2022-05-23 06:20:55</time>
      </trkpt>
      <trkpt lat="42.3635" lon="0.85075">
        <ele>1264.4</ele>
        <time>2022-05-23 06:20:56</time>
      </trkpt>
      <trkpt lat="42.36358" lon="0.85086">
        <ele>1263.4</ele>
        <time>2022-05-23 06:20:57</time>
      </trkpt>
      <trkpt lat="42.36366" lon="0.85097">
        <ele>1262.6</ele>
        <time>2022-05-23 06:20:58</time>
      </trkpt>
      <trkpt lat="42.36371" lon="0.8511">
        <ele>1261.6</ele>
        <time>2022-05-23 06:20:59</time>
      </trkpt>
      <trkpt lat="42.36374" lon="0.85125">
        <ele>1260.6</ele>
        <time>2022-05-23 06:21:00</time>
      </trkpt>
      <trkpt lat="42.36376" lon="0.85141">
        <ele>1259.6</ele>
        <time>2022-05-23 06:21:01</time>
      </trkpt>
      <trkpt lat="42.36379" lon="0.85158">
        <ele>1258.6</ele>
        <time>2022-05-23 06:21:02</time>
      </trkpt>
      <trkpt lat="42.36382" lon="0.85175">
        <ele>1257.4</ele>
        <time>2022-05-23 06:21:03</time>
      </trkpt>
      <trkpt lat="42.36385" lon="0.85191">
        <ele>1256.2</ele>
        <time>2022-05-23 06:21:04</time>
      </trkpt>
      <trkpt lat="42.36389" lon="0.85209">
        <ele>1255</ele>
        <time>2022-05-23 06:21:05</time>
      </trkpt>
      <trkpt lat="42.36394" lon="0.85224">
        <ele>1253.8</ele>
        <time>2022-05-23 06:21:06</time>
      </trkpt>
      <trkpt lat="42.36399" lon="0.85242">
        <ele>1252.4</ele>
        <time>2022-05-23 06:21:07</time>
      </trkpt>
      <trkpt lat="42.36404" lon="0.85258">
        <ele>1251</ele>
        <time>2022-05-23 06:21:08</time>
      </trkpt>
      <trkpt lat="42.3641" lon="0.85274">
        <ele>1249.8</ele>
        <time>2022-05-23 06:21:09</time>
      </trkpt>
      <trkpt lat="42.36418" lon="0.85291">
        <ele>1248.6</ele>
        <time>2022-05-23 06:21:10</time>
      </trkpt>
      <trkpt lat="42.36424" lon="0.85306">
        <ele>1247.6</ele>
        <time>2022-05-23 06:21:11</time>
      </trkpt>
      <trkpt lat="42.36432" lon="0.85323">
        <ele>1246.6</ele>
        <time>2022-05-23 06:21:12</time>
      </trkpt>
      <trkpt lat="42.36438" lon="0.85339">
        <ele>1245.6</ele>
        <time>2022-05-23 06:21:13</time>
      </trkpt>
      <trkpt lat="42.36444" lon="0.85355">
        <ele>1244.8</ele>
        <time>2022-05-23 06:21:14</time>
      </trkpt>
      <trkpt lat="42.36451" lon="0.85371">
        <ele>1244</ele>
        <time>2022-05-23 06:21:15</time>
      </trkpt>
      <trkpt lat="42.36457" lon="0.85386">
        <ele>1243.2</ele>
        <time>2022-05-23 06:21:16</time>
      </trkpt>
      <trkpt lat="42.36464" lon="0.85401">
        <ele>1242.6</ele>
        <time>2022-05-23 06:21:17</time>
      </trkpt>
      <trkpt lat="42.36473" lon="0.85413">
        <ele>1241.8</ele>
        <time>2022-05-23 06:21:18</time>
      </trkpt>
      <trkpt lat="42.36482" lon="0.85423">
        <ele>1241</ele>
        <time>2022-05-23 06:21:19</time>
      </trkpt>
      <trkpt lat="42.36492" lon="0.85435">
        <ele>1240.2</ele>
        <time>2022-05-23 06:21:20</time>
      </trkpt>
      <trkpt lat="42.36501" lon="0.85447">
        <ele>1239.4</ele>
        <time>2022-05-23 06:21:21</time>
      </trkpt>
      <trkpt lat="42.36509" lon="0.85459">
        <ele>1238.6</ele>
        <time>2022-05-23 06:21:22</time>
      </trkpt>
      <trkpt lat="42.36519" lon="0.85471">
        <ele>1237.8</ele>
        <time>2022-05-23 06:21:23</time>
      </trkpt>
      <trkpt lat="42.3653" lon="0.85479">
        <ele>1237</ele>
        <time>2022-05-23 06:21:24</time>
      </trkpt>
      <trkpt lat="42.36542" lon="0.85487">
        <ele>1236.4</ele>
        <time>2022-05-23 06:21:25</time>
      </trkpt>
      <trkpt lat="42.36552" lon="0.85497">
        <ele>1235.8</ele>
        <time>2022-05-23 06:21:26</time>
      </trkpt>
      <trkpt lat="42.36559" lon="0.8551">
        <ele>1235.2</ele>
        <time>2022-05-23 06:21:27</time>
      </trkpt>
      <trkpt lat="42.36564" lon="0.85525">
        <ele>1234.6</ele>
        <time>2022-05-23 06:21:28</time>
      </trkpt>
      <trkpt lat="42.36568" lon="0.8554">
        <ele>1233.8</ele>
        <time>2022-05-23 06:21:29</time>
      </trkpt>
      <trkpt lat="42.36571" lon="0.85556">
        <ele>1233.2</ele>
        <time>2022-05-23 06:21:30</time>
      </trkpt>
      <trkpt lat="42.36575" lon="0.85573">
        <ele>1232.4</ele>
        <time>2022-05-23 06:21:31</time>
      </trkpt>
      <trkpt lat="42.36579" lon="0.85588">
        <ele>1231.6</ele>
        <time>2022-05-23 06:21:32</time>
      </trkpt>
      <trkpt lat="42.36582" lon="0.85604">
        <ele>1231</ele>
        <time>2022-05-23 06:21:33</time>
      </trkpt>
      <trkpt lat="42.36586" lon="0.85619">
        <ele>1230.2</ele>
        <time>2022-05-23 06:21:34</time>
      </trkpt>
      <trkpt lat="42.36592" lon="0.85633">
        <ele>1229.4</ele>
        <time>2022-05-23 06:21:35</time>
      </trkpt>
      <trkpt lat="42.366" lon="0.85643">
        <ele>1228.4</ele>
        <time>2022-05-23 06:21:36</time>
      </trkpt>
      <trkpt lat="42.3661" lon="0.85652">
        <ele>1227.2</ele>
        <time>2022-05-23 06:21:37</time>
      </trkpt>
      <trkpt lat="42.36621" lon="0.85662">
        <ele>1226</ele>
        <time>2022-05-23 06:21:38</time>
      </trkpt>
      <trkpt lat="42.36631" lon="0.85674">
        <ele>1225</ele>
        <time>2022-05-23 06:21:39</time>
      </trkpt>
      <trkpt lat="42.36639" lon="0.85688">
        <ele>1224</ele>
        <time>2022-05-23 06:21:40</time>
      </trkpt>
      <trkpt lat="42.36646" lon="0.85703">
        <ele>1222.8</ele>
        <time>2022-05-23 06:21:41</time>
      </trkpt>
      <trkpt lat="42.36652" lon="0.85719">
        <ele>1222</ele>
        <time>2022-05-23 06:21:42</time>
      </trkpt>
      <trkpt lat="42.36656" lon="0.85734">
        <ele>1221</ele>
        <time>2022-05-23 06:21:43</time>
      </trkpt>
      <trkpt lat="42.3666" lon="0.85749">
        <ele>1220.2</ele>
        <time>2022-05-23 06:21:44</time>
      </trkpt>
      <trkpt lat="42.36665" lon="0.85764">
        <ele>1219.4</ele>
        <time>2022-05-23 06:21:45</time>
      </trkpt>
      <trkpt lat="42.36671" lon="0.85777">
        <ele>1218.6</ele>
        <time>2022-05-23 06:21:46</time>
      </trkpt>
      <trkpt lat="42.36677" lon="0.85788">
        <ele>1218</ele>
        <time>2022-05-23 06:21:47</time>
      </trkpt>
      <trkpt lat="42.36683" lon="0.85797">
        <ele>1217.6</ele>
        <time>2022-05-23 06:21:48</time>
      </trkpt>
      <trkpt lat="42.36691" lon="0.85801">
        <ele>1217</ele>
        <time>2022-05-23 06:21:49</time>
      </trkpt>
      <trkpt lat="42.36699" lon="0.85801">
        <ele>1216.6</ele>
        <time>2022-05-23 06:21:50</time>
      </trkpt>
      <trkpt lat="42.36705" lon="0.85799">
        <ele>1216.2</ele>
        <time>2022-05-23 06:21:51</time>
      </trkpt>
      <trkpt lat="42.36712" lon="0.858">
        <ele>1215.6</ele>
        <time>2022-05-23 06:21:52</time>
      </trkpt>
      <trkpt lat="42.36717" lon="0.85804">
        <ele>1215.2</ele>
        <time>2022-05-23 06:21:53</time>
      </trkpt>
      <trkpt lat="42.36718" lon="0.85812">
        <ele>1214.6</ele>
        <time>2022-05-23 06:21:54</time>
      </trkpt>
      <trkpt lat="42.36716" lon="0.8582">
        <ele>1214</ele>
        <time>2022-05-23 06:21:55</time>
      </trkpt>
      <trkpt lat="42.36711" lon="0.85826">
        <ele>1213.4</ele>
        <time>2022-05-23 06:21:56</time>
      </trkpt>
      <trkpt lat="42.36704" lon="0.85828">
        <ele>1212.8</ele>
        <time>2022-05-23 06:21:57</time>
      </trkpt>
      <trkpt lat="42.36696" lon="0.85829">
        <ele>1212.2</ele>
        <time>2022-05-23 06:21:58</time>
      </trkpt>
      <trkpt lat="42.36689" lon="0.85829">
        <ele>1211.6</ele>
        <time>2022-05-23 06:21:59</time>
      </trkpt>
      <trkpt lat="42.3668" lon="0.85825">
        <ele>1210.8</ele>
        <time>2022-05-23 06:22:00</time>
      </trkpt>
      <trkpt lat="42.36673" lon="0.85819">
        <ele>1210.2</ele>
        <time>2022-05-23 06:22:01</time>
      </trkpt>
      <trkpt lat="42.36666" lon="0.85811">
        <ele>1209.4</ele>
        <time>2022-05-23 06:22:02</time>
      </trkpt>
      <trkpt lat="42.3666" lon="0.85802">
        <ele>1208.6</ele>
        <time>2022-05-23 06:22:03</time>
      </trkpt>
      <trkpt lat="42.36656" lon="0.85792">
        <ele>1208</ele>
        <time>2022-05-23 06:22:04</time>
      </trkpt>
      <trkpt lat="42.36649" lon="0.85779">
        <ele>1207.2</ele>
        <time>2022-05-23 06:22:05</time>
      </trkpt>
      <trkpt lat="42.36643" lon="0.85769">
        <ele>1206.8</ele>
        <time>2022-05-23 06:22:06</time>
      </trkpt>
      <trkpt lat="42.36638" lon="0.85759">
        <ele>1206.2</ele>
        <time>2022-05-23 06:22:07</time>
      </trkpt>
      <trkpt lat="42.36634" lon="0.85749">
        <ele>1205.6</ele>
        <time>2022-05-23 06:22:08</time>
      </trkpt>
      <trkpt lat="42.3663" lon="0.85738">
        <ele>1205.2</ele>
        <time>2022-05-23 06:22:09</time>
      </trkpt>
      <trkpt lat="42.36625" lon="0.85725">
        <ele>1204.8</ele>
        <time>2022-05-23 06:22:10</time>
      </trkpt>
      <trkpt lat="42.36621" lon="0.85715">
        <ele>1204.4</ele>
        <time>2022-05-23 06:22:11</time>
      </trkpt>
      <trkpt lat="42.36617" lon="0.85707">
        <ele>1204.2</ele>
        <time>2022-05-23 06:22:12</time>
      </trkpt>
      <trkpt lat="42.36611" lon="0.85701">
        <ele>1204</ele>
        <time>2022-05-23 06:22:13</time>
      </trkpt>
      <trkpt lat="42.36606" lon="0.857">
        <ele>1203.6</ele>
        <time>2022-05-23 06:22:14</time>
      </trkpt>
      <trkpt lat="42.366" lon="0.85703">
        <ele>1203.2</ele>
        <time>2022-05-23 06:22:15</time>
      </trkpt>
      <trkpt lat="42.36597" lon="0.8571">
        <ele>1202.8</ele>
        <time>2022-05-23 06:22:16</time>
      </trkpt>
      <trkpt lat="42.36597" lon="0.85719">
        <ele>1202.2</ele>
        <time>2022-05-23 06:22:17</time>
      </trkpt>
      <trkpt lat="42.366" lon="0.85728">
        <ele>1201.6</ele>
        <time>2022-05-23 06:22:18</time>
      </trkpt>
      <trkpt lat="42.36604" lon="0.85736">
        <ele>1201</ele>
        <time>2022-05-23 06:22:19</time>
      </trkpt>
      <trkpt lat="42.36608" lon="0.85747">
        <ele>1200.4</ele>
        <time>2022-05-23 06:22:20</time>
      </trkpt>
      <trkpt lat="42.36613" lon="0.85757">
        <ele>1199.6</ele>
        <time>2022-05-23 06:22:21</time>
      </trkpt>
      <trkpt lat="42.36617" lon="0.85768">
        <ele>1199</ele>
        <time>2022-05-23 06:22:22</time>
      </trkpt>
      <trkpt lat="42.36621" lon="0.85778">
        <ele>1198.2</ele>
        <time>2022-05-23 06:22:23</time>
      </trkpt>
      <trkpt lat="42.36625" lon="0.85789">
        <ele>1197.4</ele>
        <time>2022-05-23 06:22:24</time>
      </trkpt>
      <trkpt lat="42.36629" lon="0.85802">
        <ele>1196.6</ele>
        <time>2022-05-23 06:22:25</time>
      </trkpt>
      <trkpt lat="42.36632" lon="0.85815">
        <ele>1195.8</ele>
        <time>2022-05-23 06:22:26</time>
      </trkpt>
      <trkpt lat="42.36636" lon="0.85828">
        <ele>1195</ele>
        <time>2022-05-23 06:22:27</time>
      </trkpt>
      <trkpt lat="42.3664" lon="0.85842">
        <ele>1194</ele>
        <time>2022-05-23 06:22:28</time>
      </trkpt>
      <trkpt lat="42.36644" lon="0.85855">
        <ele>1193.2</ele>
        <time>2022-05-23 06:22:29</time>
      </trkpt>
      <trkpt lat="42.36649" lon="0.85868">
        <ele>1192.2</ele>
        <time>2022-05-23 06:22:30</time>
      </trkpt>
      <trkpt lat="42.36654" lon="0.85883">
        <ele>1191.2</ele>
        <time>2022-05-23 06:22:31</time>
      </trkpt>
      <trkpt lat="42.36658" lon="0.85897">
        <ele>1190.2</ele>
        <time>2022-05-23 06:22:32</time>
      </trkpt>
      <trkpt lat="42.36664" lon="0.85911">
        <ele>1189</ele>
        <time>2022-05-23 06:22:33</time>
      </trkpt>
      <trkpt lat="42.36672" lon="0.85923">
        <ele>1188</ele>
        <time>2022-05-23 06:22:34</time>
      </trkpt>
      <trkpt lat="42.36681" lon="0.85934">
        <ele>1187</ele>
        <time>2022-05-23 06:22:35</time>
      </trkpt>
      <trkpt lat="42.36692" lon="0.85942">
        <ele>1186</ele>
        <time>2022-05-23 06:22:36</time>
      </trkpt>
      <trkpt lat="42.36703" lon="0.85948">
        <ele>1184.8</ele>
        <time>2022-05-23 06:22:37</time>
      </trkpt>
      <trkpt lat="42.36716" lon="0.85954">
        <ele>1183.8</ele>
        <time>2022-05-23 06:22:38</time>
      </trkpt>
      <trkpt lat="42.36727" lon="0.85959">
        <ele>1182.8</ele>
        <time>2022-05-23 06:22:39</time>
      </trkpt>
      <trkpt lat="42.36737" lon="0.85963">
        <ele>1182</ele>
        <time>2022-05-23 06:22:40</time>
      </trkpt>
      <trkpt lat="42.36747" lon="0.85965">
        <ele>1181.4</ele>
        <time>2022-05-23 06:22:41</time>
      </trkpt>
      <trkpt lat="42.36756" lon="0.85969">
        <ele>1180.6</ele>
        <time>2022-05-23 06:22:42</time>
      </trkpt>
      <trkpt lat="42.36763" lon="0.85975">
        <ele>1180</ele>
        <time>2022-05-23 06:22:43</time>
      </trkpt>
      <trkpt lat="42.36766" lon="0.85982">
        <ele>1179.4</ele>
        <time>2022-05-23 06:22:44</time>
      </trkpt>
      <trkpt lat="42.36766" lon="0.85989">
        <ele>1178.8</ele>
        <time>2022-05-23 06:22:45</time>
      </trkpt>
      <trkpt lat="42.36762" lon="0.85997">
        <ele>1178.2</ele>
        <time>2022-05-23 06:22:46</time>
      </trkpt>
      <trkpt lat="42.36755" lon="0.86003">
        <ele>1177.4</ele>
        <time>2022-05-23 06:22:47</time>
      </trkpt>
      <trkpt lat="42.36747" lon="0.86006">
        <ele>1176.8</ele>
        <time>2022-05-23 06:22:48</time>
      </trkpt>
      <trkpt lat="42.36739" lon="0.86009">
        <ele>1176</ele>
        <time>2022-05-23 06:22:49</time>
      </trkpt>
      <trkpt lat="42.36731" lon="0.86012">
        <ele>1175.2</ele>
        <time>2022-05-23 06:22:50</time>
      </trkpt>
      <trkpt lat="42.36723" lon="0.86017">
        <ele>1174.6</ele>
        <time>2022-05-23 06:22:51</time>
      </trkpt>
      <trkpt lat="42.36716" lon="0.86024">
        <ele>1173.8</ele>
        <time>2022-05-23 06:22:52</time>
      </trkpt>
      <trkpt lat="42.36711" lon="0.86033">
        <ele>1173</ele>
        <time>2022-05-23 06:22:53</time>
      </trkpt>
      <trkpt lat="42.36708" lon="0.86046">
        <ele>1172</ele>
        <time>2022-05-23 06:22:54</time>
      </trkpt>
      <trkpt lat="42.36708" lon="0.8606">
        <ele>1171.2</ele>
        <time>2022-05-23 06:22:55</time>
      </trkpt>
      <trkpt lat="42.36708" lon="0.86075">
        <ele>1170.4</ele>
        <time>2022-05-23 06:22:56</time>
      </trkpt>
      <trkpt lat="42.36708" lon="0.86088">
        <ele>1169.8</ele>
        <time>2022-05-23 06:22:57</time>
      </trkpt>
      <trkpt lat="42.36708" lon="0.86104">
        <ele>1169</ele>
        <time>2022-05-23 06:22:58</time>
      </trkpt>
      <trkpt lat="42.36709" lon="0.86116">
        <ele>1168.4</ele>
        <time>2022-05-23 06:22:59</time>
      </trkpt>
      <trkpt lat="42.3671" lon="0.86127">
        <ele>1167.8</ele>
        <time>2022-05-23 06:23:00</time>
      </trkpt>
      <trkpt lat="42.36713" lon="0.86136">
        <ele>1167.2</ele>
        <time>2022-05-23 06:23:01</time>
      </trkpt>
      <trkpt lat="42.36717" lon="0.8614">
        <ele>1166.8</ele>
        <time>2022-05-23 06:23:02</time>
      </trkpt>
      <trkpt lat="42.36723" lon="0.8614">
        <ele>1166.4</ele>
        <time>2022-05-23 06:23:03</time>
      </trkpt>
      <trkpt lat="42.36727" lon="0.86134">
        <ele>1165.8</ele>
        <time>2022-05-23 06:23:04</time>
      </trkpt>
      <trkpt lat="42.3673" lon="0.86127">
        <ele>1165.4</ele>
        <time>2022-05-23 06:23:05</time>
      </trkpt>
      <trkpt lat="42.36733" lon="0.86118">
        <ele>1164.8</ele>
        <time>2022-05-23 06:23:06</time>
      </trkpt>
      <trkpt lat="42.36735" lon="0.86109">
        <ele>1164.2</ele>
        <time>2022-05-23 06:23:07</time>
      </trkpt>
      <trkpt lat="42.36737" lon="0.86099">
        <ele>1163.6</ele>
        <time>2022-05-23 06:23:08</time>
      </trkpt>
      <trkpt lat="42.36738" lon="0.86088">
        <ele>1163</ele>
        <time>2022-05-23 06:23:09</time>
      </trkpt>
      <trkpt lat="42.3674" lon="0.86078">
        <ele>1162.4</ele>
        <time>2022-05-23 06:23:10</time>
      </trkpt>
      <trkpt lat="42.36742" lon="0.86069">
        <ele>1162</ele>
        <time>2022-05-23 06:23:11</time>
      </trkpt>
      <trkpt lat="42.36745" lon="0.86062">
        <ele>1161.6</ele>
        <time>2022-05-23 06:23:12</time>
      </trkpt>
      <trkpt lat="42.3675" lon="0.86058">
        <ele>1161.4</ele>
        <time>2022-05-23 06:23:13</time>
      </trkpt>
      <trkpt lat="42.36756" lon="0.86057">
        <ele>1161</ele>
        <time>2022-05-23 06:23:14</time>
      </trkpt>
      <trkpt lat="42.3676" lon="0.8606">
        <ele>1160.6</ele>
        <time>2022-05-23 06:23:15</time>
      </trkpt>
      <trkpt lat="42.36763" lon="0.86067">
        <ele>1160</ele>
        <time>2022-05-23 06:23:16</time>
      </trkpt>
      <trkpt lat="42.36762" lon="0.86076">
        <ele>1159.4</ele>
        <time>2022-05-23 06:23:17</time>
      </trkpt>
      <trkpt lat="42.36758" lon="0.86085">
        <ele>1158.8</ele>
        <time>2022-05-23 06:23:18</time>
      </trkpt>
      <trkpt lat="42.36753" lon="0.86094">
        <ele>1158.2</ele>
        <time>2022-05-23 06:23:19</time>
      </trkpt>
      <trkpt lat="42.36749" lon="0.86103">
        <ele>1157.6</ele>
        <time>2022-05-23 06:23:20</time>
      </trkpt>
      <trkpt lat="42.36746" lon="0.86114">
        <ele>1156.8</ele>
        <time>2022-05-23 06:23:21</time>
      </trkpt>
      <trkpt lat="42.36744" lon="0.86127">
        <ele>1156</ele>
        <time>2022-05-23 06:23:22</time>
      </trkpt>
      <trkpt lat="42.36745" lon="0.8614">
        <ele>1155.2</ele>
        <time>2022-05-23 06:23:23</time>
      </trkpt>
      <trkpt lat="42.36746" lon="0.86154">
        <ele>1154.4</ele>
        <time>2022-05-23 06:23:24</time>
      </trkpt>
      <trkpt lat="42.36746" lon="0.86168">
        <ele>1153.4</ele>
        <time>2022-05-23 06:23:25</time>
      </trkpt>
      <trkpt lat="42.36744" lon="0.86183">
        <ele>1152.4</ele>
        <time>2022-05-23 06:23:26</time>
      </trkpt>
      <trkpt lat="42.36742" lon="0.86197">
        <ele>1151.4</ele>
        <time>2022-05-23 06:23:27</time>
      </trkpt>
      <trkpt lat="42.36738" lon="0.86211">
        <ele>1150.4</ele>
        <time>2022-05-23 06:23:28</time>
      </trkpt>
      <trkpt lat="42.36733" lon="0.86224">
        <ele>1149.4</ele>
        <time>2022-05-23 06:23:29</time>
      </trkpt>
      <trkpt lat="42.36726" lon="0.86234">
        <ele>1148.6</ele>
        <time>2022-05-23 06:23:30</time>
      </trkpt>
      <trkpt lat="42.36719" lon="0.86238">
        <ele>1147.8</ele>
        <time>2022-05-23 06:23:31</time>
      </trkpt>
      <trkpt lat="42.36711" lon="0.86237">
        <ele>1147</ele>
        <time>2022-05-23 06:23:32</time>
      </trkpt>
      <trkpt lat="42.36706" lon="0.86231">
        <ele>1146.4</ele>
        <time>2022-05-23 06:23:33</time>
      </trkpt>
      <trkpt lat="42.36701" lon="0.86222">
        <ele>1145.4</ele>
        <time>2022-05-23 06:23:34</time>
      </trkpt>
      <trkpt lat="42.36696" lon="0.86213">
        <ele>1144.4</ele>
        <time>2022-05-23 06:23:35</time>
      </trkpt>
      <trkpt lat="42.36691" lon="0.86203">
        <ele>1143.6</ele>
        <time>2022-05-23 06:23:36</time>
      </trkpt>
      <trkpt lat="42.36686" lon="0.86193">
        <ele>1142.8</ele>
        <time>2022-05-23 06:23:37</time>
      </trkpt>
      <trkpt lat="42.36681" lon="0.86182">
        <ele>1141.8</ele>
        <time>2022-05-23 06:23:38</time>
      </trkpt>
      <trkpt lat="42.36677" lon="0.86171">
        <ele>1140.8</ele>
        <time>2022-05-23 06:23:39</time>
      </trkpt>
      <trkpt lat="42.36672" lon="0.86158">
        <ele>1139.8</ele>
        <time>2022-05-23 06:23:40</time>
      </trkpt>
      <trkpt lat="42.36668" lon="0.86146">
        <ele>1138.8</ele>
        <time>2022-05-23 06:23:41</time>
      </trkpt>
      <trkpt lat="42.36663" lon="0.86132">
        <ele>1138</ele>
        <time>2022-05-23 06:23:42</time>
      </trkpt>
      <trkpt lat="42.36657" lon="0.86119">
        <ele>1137</ele>
        <time>2022-05-23 06:23:43</time>
      </trkpt>
      <trkpt lat="42.36651" lon="0.86106">
        <ele>1136</ele>
        <time>2022-05-23 06:23:44</time>
      </trkpt>
      <trkpt lat="42.36644" lon="0.86093">
        <ele>1135</ele>
        <time>2022-05-23 06:23:45</time>
      </trkpt>
      <trkpt lat="42.36637" lon="0.86081">
        <ele>1134</ele>
        <time>2022-05-23 06:23:46</time>
      </trkpt>
      <trkpt lat="42.3663" lon="0.8607">
        <ele>1133.2</ele>
        <time>2022-05-23 06:23:47</time>
      </trkpt>
      <trkpt lat="42.36623" lon="0.86057">
        <ele>1132.4</ele>
        <time>2022-05-23 06:23:48</time>
      </trkpt>
      <trkpt lat="42.36616" lon="0.86044">
        <ele>1131.6</ele>
        <time>2022-05-23 06:23:49</time>
      </trkpt>
      <trkpt lat="42.3661" lon="0.86033">
        <ele>1131</ele>
        <time>2022-05-23 06:23:50</time>
      </trkpt>
      <trkpt lat="42.36605" lon="0.86021">
        <ele>1130.6</ele>
        <time>2022-05-23 06:23:51</time>
      </trkpt>
      <trkpt lat="42.366" lon="0.86014">
        <ele>1130.2</ele>
        <time>2022-05-23 06:23:52</time>
      </trkpt>
      <trkpt lat="42.36594" lon="0.86013">
        <ele>1129.8</ele>
        <time>2022-05-23 06:23:53</time>
      </trkpt>
      <trkpt lat="42.36589" lon="0.86015">
        <ele>1129.4</ele>
        <time>2022-05-23 06:23:54</time>
      </trkpt>
      <trkpt lat="42.36586" lon="0.86021">
        <ele>1129</ele>
        <time>2022-05-23 06:23:55</time>
      </trkpt>
      <trkpt lat="42.36586" lon="0.86029">
        <ele>1128.6</ele>
        <time>2022-05-23 06:23:56</time>
      </trkpt>
      <trkpt lat="42.3659" lon="0.86037">
        <ele>1128</ele>
        <time>2022-05-23 06:23:57</time>
      </trkpt>
      <trkpt lat="42.36594" lon="0.86045">
        <ele>1127.4</ele>
        <time>2022-05-23 06:23:58</time>
      </trkpt>
      <trkpt lat="42.366" lon="0.86054">
        <ele>1126.8</ele>
        <time>2022-05-23 06:23:59</time>
      </trkpt>
      <trkpt lat="42.36604" lon="0.86062">
        <ele>1126.2</ele>
        <time>2022-05-23 06:24:00</time>
      </trkpt>
      <trkpt lat="42.36609" lon="0.86072">
        <ele>1125.4</ele>
        <time>2022-05-23 06:24:01</time>
      </trkpt>
      <trkpt lat="42.36614" lon="0.86082">
        <ele>1124.6</ele>
        <time>2022-05-23 06:24:02</time>
      </trkpt>
      <trkpt lat="42.36619" lon="0.86093">
        <ele>1123.8</ele>
        <time>2022-05-23 06:24:03</time>
      </trkpt>
      <trkpt lat="42.36623" lon="0.86104">
        <ele>1122.8</ele>
        <time>2022-05-23 06:24:04</time>
      </trkpt>
      <trkpt lat="42.36626" lon="0.86119">
        <ele>1121.8</ele>
        <time>2022-05-23 06:24:05</time>
      </trkpt>
      <trkpt lat="42.36628" lon="0.86132">
        <ele>1121</ele>
        <time>2022-05-23 06:24:06</time>
      </trkpt>
      <trkpt lat="42.36631" lon="0.86146">
        <ele>1120</ele>
        <time>2022-05-23 06:24:07</time>
      </trkpt>
      <trkpt lat="42.36635" lon="0.8616">
        <ele>1119</ele>
        <time>2022-05-23 06:24:08</time>
      </trkpt>
      <trkpt lat="42.36639" lon="0.86172">
        <ele>1118.2</ele>
        <time>2022-05-23 06:24:09</time>
      </trkpt>
      <trkpt lat="42.36645" lon="0.86187">
        <ele>1117.2</ele>
        <time>2022-05-23 06:24:10</time>
      </trkpt>
      <trkpt lat="42.3665" lon="0.86201">
        <ele>1116.4</ele>
        <time>2022-05-23 06:24:11</time>
      </trkpt>
      <trkpt lat="42.36655" lon="0.86216">
        <ele>1115.4</ele>
        <time>2022-05-23 06:24:12</time>
      </trkpt>
      <trkpt lat="42.36658" lon="0.86232">
        <ele>1114.6</ele>
        <time>2022-05-23 06:24:13</time>
      </trkpt>
      <trkpt lat="42.3666" lon="0.86247">
        <ele>1113.6</ele>
        <time>2022-05-23 06:24:14</time>
      </trkpt>
      <trkpt lat="42.36662" lon="0.86265">
        <ele>1112.6</ele>
        <time>2022-05-23 06:24:15</time>
      </trkpt>
      <trkpt lat="42.36662" lon="0.86282">
        <ele>1111.8</ele>
        <time>2022-05-23 06:24:16</time>
      </trkpt>
      <trkpt lat="42.36661" lon="0.86299">
        <ele>1111</ele>
        <time>2022-05-23 06:24:17</time>
      </trkpt>
      <trkpt lat="42.36659" lon="0.86315">
        <ele>1110</ele>
        <time>2022-05-23 06:24:18</time>
      </trkpt>
      <trkpt lat="42.36655" lon="0.86331">
        <ele>1109</ele>
        <time>2022-05-23 06:24:19</time>
      </trkpt>
      <trkpt lat="42.36649" lon="0.86346">
        <ele>1107.8</ele>
        <time>2022-05-23 06:24:20</time>
      </trkpt>
      <trkpt lat="42.36641" lon="0.86361">
        <ele>1106.8</ele>
        <time>2022-05-23 06:24:21</time>
      </trkpt>
      <trkpt lat="42.36632" lon="0.86375">
        <ele>1105.8</ele>
        <time>2022-05-23 06:24:22</time>
      </trkpt>
      <trkpt lat="42.36622" lon="0.86388">
        <ele>1104.8</ele>
        <time>2022-05-23 06:24:23</time>
      </trkpt>
      <trkpt lat="42.36612" lon="0.864">
        <ele>1103.8</ele>
        <time>2022-05-23 06:24:24</time>
      </trkpt>
      <trkpt lat="42.36603" lon="0.86413">
        <ele>1102.8</ele>
        <time>2022-05-23 06:24:25</time>
      </trkpt>
      <trkpt lat="42.36594" lon="0.86428">
        <ele>1101.8</ele>
        <time>2022-05-23 06:24:26</time>
      </trkpt>
      <trkpt lat="42.36586" lon="0.86443">
        <ele>1100.8</ele>
        <time>2022-05-23 06:24:27</time>
      </trkpt>
      <trkpt lat="42.36578" lon="0.86457">
        <ele>1099.8</ele>
        <time>2022-05-23 06:24:28</time>
      </trkpt>
      <trkpt lat="42.3657" lon="0.86469">
        <ele>1099</ele>
        <time>2022-05-23 06:24:29</time>
      </trkpt>
      <trkpt lat="42.36562" lon="0.86478">
        <ele>1098</ele>
        <time>2022-05-23 06:24:30</time>
      </trkpt>
      <trkpt lat="42.36552" lon="0.86484">
        <ele>1097</ele>
        <time>2022-05-23 06:24:31</time>
      </trkpt>
      <trkpt lat="42.3654" lon="0.86487">
        <ele>1096</ele>
        <time>2022-05-23 06:24:32</time>
      </trkpt>
      <trkpt lat="42.36529" lon="0.86491">
        <ele>1095</ele>
        <time>2022-05-23 06:24:33</time>
      </trkpt>
      <trkpt lat="42.36518" lon="0.86498">
        <ele>1094</ele>
        <time>2022-05-23 06:24:34</time>
      </trkpt>
      <trkpt lat="42.36509" lon="0.86508">
        <ele>1093</ele>
        <time>2022-05-23 06:24:35</time>
      </trkpt>
      <trkpt lat="42.365" lon="0.8652">
        <ele>1092</ele>
        <time>2022-05-23 06:24:36</time>
      </trkpt>
      <trkpt lat="42.36494" lon="0.86534">
        <ele>1091</ele>
        <time>2022-05-23 06:24:37</time>
      </trkpt>
      <trkpt lat="42.36487" lon="0.86549">
        <ele>1089.8</ele>
        <time>2022-05-23 06:24:38</time>
      </trkpt>
      <trkpt lat="42.3648" lon="0.86565">
        <ele>1088.6</ele>
        <time>2022-05-23 06:24:39</time>
      </trkpt>
      <trkpt lat="42.36473" lon="0.8658">
        <ele>1087.6</ele>
        <time>2022-05-23 06:24:40</time>
      </trkpt>
      <trkpt lat="42.36467" lon="0.86594">
        <ele>1086.6</ele>
        <time>2022-05-23 06:24:41</time>
      </trkpt>
      <trkpt lat="42.3646" lon="0.8661">
        <ele>1085.4</ele>
        <time>2022-05-23 06:24:42</time>
      </trkpt>
      <trkpt lat="42.36453" lon="0.86626">
        <ele>1084.2</ele>
        <time>2022-05-23 06:24:43</time>
      </trkpt>
      <trkpt lat="42.36447" lon="0.86641">
        <ele>1083.2</ele>
        <time>2022-05-23 06:24:44</time>
      </trkpt>
      <trkpt lat="42.36441" lon="0.86658">
        <ele>1082</ele>
        <time>2022-05-23 06:24:45</time>
      </trkpt>
      <trkpt lat="42.36437" lon="0.86675">
        <ele>1081</ele>
        <time>2022-05-23 06:24:46</time>
      </trkpt>
      <trkpt lat="42.36434" lon="0.86693">
        <ele>1079.8</ele>
        <time>2022-05-23 06:24:47</time>
      </trkpt>
      <trkpt lat="42.3643" lon="0.8671">
        <ele>1078.8</ele>
        <time>2022-05-23 06:24:48</time>
      </trkpt>
      <trkpt lat="42.36426" lon="0.86727">
        <ele>1077.6</ele>
        <time>2022-05-23 06:24:49</time>
      </trkpt>
      <trkpt lat="42.36421" lon="0.86743">
        <ele>1076.4</ele>
        <time>2022-05-23 06:24:50</time>
      </trkpt>
      <trkpt lat="42.36413" lon="0.86758">
        <ele>1075.2</ele>
        <time>2022-05-23 06:24:51</time>
      </trkpt>
      <trkpt lat="42.36403" lon="0.8677">
        <ele>1074.2</ele>
        <time>2022-05-23 06:24:52</time>
      </trkpt>
      <trkpt lat="42.36391" lon="0.86779">
        <ele>1073.2</ele>
        <time>2022-05-23 06:24:53</time>
      </trkpt>
      <trkpt lat="42.36379" lon="0.86785">
        <ele>1072.6</ele>
        <time>2022-05-23 06:24:54</time>
      </trkpt>
      <trkpt lat="42.3637" lon="0.86789">
        <ele>1072.2</ele>
        <time>2022-05-23 06:24:55</time>
      </trkpt>
      <trkpt lat="42.36364" lon="0.86793">
        <ele>1071.8</ele>
        <time>2022-05-23 06:24:56</time>
      </trkpt>
      <trkpt lat="42.36361" lon="0.868">
        <ele>1071.6</ele>
        <time>2022-05-23 06:24:57</time>
      </trkpt>
      <trkpt lat="42.36363" lon="0.86808">
        <ele>1071</ele>
        <time>2022-05-23 06:24:58</time>
      </trkpt>
      <trkpt lat="42.36369" lon="0.86813">
        <ele>1070.6</ele>
        <time>2022-05-23 06:24:59</time>
      </trkpt>
      <trkpt lat="42.36376" lon="0.86813">
        <ele>1070</ele>
        <time>2022-05-23 06:25:00</time>
      </trkpt>
      <trkpt lat="42.36383" lon="0.86809">
        <ele>1069.4</ele>
        <time>2022-05-23 06:25:01</time>
      </trkpt>
      <trkpt lat="42.36389" lon="0.86803">
        <ele>1068.8</ele>
        <time>2022-05-23 06:25:02</time>
      </trkpt>
      <trkpt lat="42.36395" lon="0.86797">
        <ele>1068.2</ele>
        <time>2022-05-23 06:25:03</time>
      </trkpt>
      <trkpt lat="42.36401" lon="0.86792">
        <ele>1067.6</ele>
        <time>2022-05-23 06:25:04</time>
      </trkpt>
      <trkpt lat="42.36408" lon="0.86791">
        <ele>1067.2</ele>
        <time>2022-05-23 06:25:05</time>
      </trkpt>
      <trkpt lat="42.36413" lon="0.86795">
        <ele>1066.6</ele>
        <time>2022-05-23 06:25:06</time>
      </trkpt>
      <trkpt lat="42.36415" lon="0.86801">
        <ele>1066</ele>
        <time>2022-05-23 06:25:07</time>
      </trkpt>
      <trkpt lat="42.36413" lon="0.86807">
        <ele>1065.6</ele>
        <time>2022-05-23 06:25:08</time>
      </trkpt>
      <trkpt lat="42.36409" lon="0.86814">
        <ele>1065</ele>
        <time>2022-05-23 06:25:09</time>
      </trkpt>
      <trkpt lat="42.36404" lon="0.86818">
        <ele>1064.8</ele>
        <time>2022-05-23 06:25:10</time>
      </trkpt>
      <trkpt lat="42.364" lon="0.86822">
        <ele>1064.4</ele>
        <time>2022-05-23 06:25:11</time>
      </trkpt>
      <trkpt lat="42.36395" lon="0.86825">
        <ele>1064.2</ele>
        <time>2022-05-23 06:25:12</time>
      </trkpt>
      <trkpt lat="42.36388" lon="0.86833">
        <ele>1063.6</ele>
        <time>2022-05-23 06:25:13</time>
      </trkpt>
      <trkpt lat="42.36383" lon="0.8684">
        <ele>1063.2</ele>
        <time>2022-05-23 06:25:14</time>
      </trkpt>
      <trkpt lat="42.36379" lon="0.86848">
        <ele>1062.6</ele>
        <time>2022-05-23 06:25:15</time>
      </trkpt>
      <trkpt lat="42.36375" lon="0.86857">
        <ele>1062.2</ele>
        <time>2022-05-23 06:25:16</time>
      </trkpt>
      <trkpt lat="42.36372" lon="0.86867">
        <ele>1061.6</ele>
        <time>2022-05-23 06:25:17</time>
      </trkpt>
      <trkpt lat="42.36368" lon="0.86877">
        <ele>1061.2</ele>
        <time>2022-05-23 06:25:18</time>
      </trkpt>
      <trkpt lat="42.36364" lon="0.86888">
        <ele>1060.6</ele>
        <time>2022-05-23 06:25:19</time>
      </trkpt>
      <trkpt lat="42.36361" lon="0.86899">
        <ele>1060</ele>
        <time>2022-05-23 06:25:20</time>
      </trkpt>
      <trkpt lat="42.36357" lon="0.86911">
        <ele>1059.6</ele>
        <time>2022-05-23 06:25:21</time>
      </trkpt>
      <trkpt lat="42.36353" lon="0.86923">
        <ele>1059</ele>
        <time>2022-05-23 06:25:22</time>
      </trkpt>
      <trkpt lat="42.36349" lon="0.86935">
        <ele>1058.6</ele>
        <time>2022-05-23 06:25:23</time>
      </trkpt>
      <trkpt lat="42.36345" lon="0.86946">
        <ele>1058.4</ele>
        <time>2022-05-23 06:25:24</time>
      </trkpt>
      <trkpt lat="42.3634" lon="0.86959">
        <ele>1058</ele>
        <time>2022-05-23 06:25:25</time>
      </trkpt>
      <trkpt lat="42.36336" lon="0.86972">
        <ele>1057.6</ele>
        <time>2022-05-23 06:25:26</time>
      </trkpt>
      <trkpt lat="42.36331" lon="0.86985">
        <ele>1057.2</ele>
        <time>2022-05-23 06:25:27</time>
      </trkpt>
      <trkpt lat="42.36327" lon="0.86997">
        <ele>1057</ele>
        <time>2022-05-23 06:25:28</time>
      </trkpt>
      <trkpt lat="42.36322" lon="0.87008">
        <ele>1056.8</ele>
        <time>2022-05-23 06:25:29</time>
      </trkpt>
      <trkpt lat="42.36318" lon="0.87019">
        <ele>1056.4</ele>
        <time>2022-05-23 06:25:30</time>
      </trkpt>
      <trkpt lat="42.36313" lon="0.87029">
        <ele>1056.2</ele>
        <time>2022-05-23 06:25:31</time>
      </trkpt>
      <trkpt lat="42.36307" lon="0.87041">
        <ele>1056</ele>
        <time>2022-05-23 06:25:32</time>
      </trkpt>
      <trkpt lat="42.36303" lon="0.87051">
        <ele>1055.8</ele>
        <time>2022-05-23 06:25:33</time>
      </trkpt>
      <trkpt lat="42.36297" lon="0.87062">
        <ele>1055.4</ele>
        <time>2022-05-23 06:25:34</time>
      </trkpt>
      <trkpt lat="42.36291" lon="0.87073">
        <ele>1055.2</ele>
        <time>2022-05-23 06:25:35</time>
      </trkpt>
      <trkpt lat="42.36285" lon="0.87083">
        <ele>1055</ele>
        <time>2022-05-23 06:25:36</time>
      </trkpt>
      <trkpt lat="42.36279" lon="0.87092">
        <ele>1054.8</ele>
        <time>2022-05-23 06:25:37</time>
      </trkpt>
      <trkpt lat="42.36271" lon="0.87102">
        <ele>1054.4</ele>
        <time>2022-05-23 06:25:38</time>
      </trkpt>
      <trkpt lat="42.36264" lon="0.87111">
        <ele>1054.2</ele>
        <time>2022-05-23 06:25:39</time>
      </trkpt>
      <trkpt lat="42.36257" lon="0.8712">
        <ele>1053.8</ele>
        <time>2022-05-23 06:25:40</time>
      </trkpt>
      <trkpt lat="42.36249" lon="0.87129">
        <ele>1053.6</ele>
        <time>2022-05-23 06:25:41</time>
      </trkpt>
      <trkpt lat="42.36241" lon="0.87137">
        <ele>1053.2</ele>
        <time>2022-05-23 06:25:42</time>
      </trkpt>
      <trkpt lat="42.36233" lon="0.87145">
        <ele>1053</ele>
        <time>2022-05-23 06:25:43</time>
      </trkpt>
      <trkpt lat="42.36225" lon="0.87153">
        <ele>1052.8</ele>
        <time>2022-05-23 06:25:44</time>
      </trkpt>
      <trkpt lat="42.36217" lon="0.87161">
        <ele>1052.4</ele>
        <time>2022-05-23 06:25:45</time>
      </trkpt>
      <trkpt lat="42.36209" lon="0.87168">
        <ele>1052.2</ele>
        <time>2022-05-23 06:25:46</time>
      </trkpt>
      <trkpt lat="42.36201" lon="0.87176">
        <ele>1052</ele>
        <time>2022-05-23 06:25:47</time>
      </trkpt>
      <trkpt lat="42.36193" lon="0.87183">
        <ele>1051.8</ele>
        <time>2022-05-23 06:25:48</time>
      </trkpt>
      <trkpt lat="42.36184" lon="0.87191">
        <ele>1051.4</ele>
        <time>2022-05-23 06:25:49</time>
      </trkpt>
      <trkpt lat="42.36176" lon="0.87199">
        <ele>1051.2</ele>
        <time>2022-05-23 06:25:50</time>
      </trkpt>
      <trkpt lat="42.36168" lon="0.87207">
        <ele>1051</ele>
        <time>2022-05-23 06:25:51</time>
      </trkpt>
      <trkpt lat="42.3616" lon="0.87215">
        <ele>1050.6</ele>
        <time>2022-05-23 06:25:52</time>
      </trkpt>
      <trkpt lat="42.36151" lon="0.87224">
        <ele>1050.2</ele>
        <time>2022-05-23 06:25:53</time>
      </trkpt>
      <trkpt lat="42.36142" lon="0.87233">
        <ele>1049.8</ele>
        <time>2022-05-23 06:25:54</time>
      </trkpt>
      <trkpt lat="42.36134" lon="0.87242">
        <ele>1049.4</ele>
        <time>2022-05-23 06:25:55</time>
      </trkpt>
      <trkpt lat="42.36126" lon="0.87252">
        <ele>1049</ele>
        <time>2022-05-23 06:25:56</time>
      </trkpt>
      <trkpt lat="42.36118" lon="0.87261">
        <ele>1048.6</ele>
        <time>2022-05-23 06:25:57</time>
      </trkpt>
      <trkpt lat="42.36111" lon="0.87271">
        <ele>1048.2</ele>
        <time>2022-05-23 06:25:58</time>
      </trkpt>
      <trkpt lat="42.36104" lon="0.87281">
        <ele>1047.8</ele>
        <time>2022-05-23 06:25:59</time>
      </trkpt>
      <trkpt lat="42.36096" lon="0.87292">
        <ele>1047.4</ele>
        <time>2022-05-23 06:26:00</time>
      </trkpt>
      <trkpt lat="42.36089" lon="0.87302">
        <ele>1047</ele>
        <time>2022-05-23 06:26:01</time>
      </trkpt>
      <trkpt lat="42.36081" lon="0.87313">
        <ele>1046.6</ele>
        <time>2022-05-23 06:26:02</time>
      </trkpt>
      <trkpt lat="42.36074" lon="0.87324">
        <ele>1046</ele>
        <time>2022-05-23 06:26:03</time>
      </trkpt>
      <trkpt lat="42.36067" lon="0.87336">
        <ele>1045.4</ele>
        <time>2022-05-23 06:26:04</time>
      </trkpt>
      <trkpt lat="42.3606" lon="0.87347">
        <ele>1045</ele>
        <time>2022-05-23 06:26:05</time>
      </trkpt>
      <trkpt lat="42.36053" lon="0.87359">
        <ele>1044.4</ele>
        <time>2022-05-23 06:26:06</time>
      </trkpt>
      <trkpt lat="42.36046" lon="0.87371">
        <ele>1043.8</ele>
        <time>2022-05-23 06:26:07</time>
      </trkpt>
      <trkpt lat="42.3604" lon="0.87383">
        <ele>1043.2</ele>
        <time>2022-05-23 06:26:08</time>
      </trkpt>
      <trkpt lat="42.36034" lon="0.87395">
        <ele>1042.6</ele>
        <time>2022-05-23 06:26:09</time>
      </trkpt>
      <trkpt lat="42.36028" lon="0.87408">
        <ele>1042</ele>
        <time>2022-05-23 06:26:10</time>
      </trkpt>
      <trkpt lat="42.36021" lon="0.87421">
        <ele>1041.4</ele>
        <time>2022-05-23 06:26:11</time>
      </trkpt>
      <trkpt lat="42.36015" lon="0.87433">
        <ele>1040.8</ele>
        <time>2022-05-23 06:26:12</time>
      </trkpt>
      <trkpt lat="42.3601" lon="0.87446">
        <ele>1040.2</ele>
        <time>2022-05-23 06:26:13</time>
      </trkpt>
      <trkpt lat="42.36004" lon="0.87458">
        <ele>1039.6</ele>
        <time>2022-05-23 06:26:14</time>
      </trkpt>
      <trkpt lat="42.35998" lon="0.87471">
        <ele>1039</ele>
        <time>2022-05-23 06:26:15</time>
      </trkpt>
      <trkpt lat="42.35992" lon="0.87484">
        <ele>1038.4</ele>
        <time>2022-05-23 06:26:16</time>
      </trkpt>
      <trkpt lat="42.35986" lon="0.87496">
        <ele>1038</ele>
        <time>2022-05-23 06:26:17</time>
      </trkpt>
      <trkpt lat="42.35982" lon="0.8751">
        <ele>1037.4</ele>
        <time>2022-05-23 06:26:18</time>
      </trkpt>
      <trkpt lat="42.3598" lon="0.87525">
        <ele>1036.8</ele>
        <time>2022-05-23 06:26:19</time>
      </trkpt>
      <trkpt lat="42.35977" lon="0.8754">
        <ele>1036.2</ele>
        <time>2022-05-23 06:26:20</time>
      </trkpt>
      <trkpt lat="42.35972" lon="0.87555">
        <ele>1035.6</ele>
        <time>2022-05-23 06:26:21</time>
      </trkpt>
      <trkpt lat="42.35968" lon="0.8757">
        <ele>1034.8</ele>
        <time>2022-05-23 06:26:22</time>
      </trkpt>
      <trkpt lat="42.35964" lon="0.87587">
        <ele>1034.2</ele>
        <time>2022-05-23 06:26:23</time>
      </trkpt>
      <trkpt lat="42.3596" lon="0.87602">
        <ele>1033.6</ele>
        <time>2022-05-23 06:26:24</time>
      </trkpt>
      <trkpt lat="42.35956" lon="0.87618">
        <ele>1032.8</ele>
        <time>2022-05-23 06:26:25</time>
      </trkpt>
      <trkpt lat="42.35952" lon="0.87634">
        <ele>1032.2</ele>
        <time>2022-05-23 06:26:26</time>
      </trkpt>
      <trkpt lat="42.35948" lon="0.8765">
        <ele>1031.4</ele>
        <time>2022-05-23 06:26:27</time>
      </trkpt>
      <trkpt lat="42.35943" lon="0.87666">
        <ele>1030.6</ele>
        <time>2022-05-23 06:26:28</time>
      </trkpt>
      <trkpt lat="42.35938" lon="0.87681">
        <ele>1029.8</ele>
        <time>2022-05-23 06:26:29</time>
      </trkpt>
      <trkpt lat="42.35934" lon="0.87696">
        <ele>1029.2</ele>
        <time>2022-05-23 06:26:30</time>
      </trkpt>
      <trkpt lat="42.35928" lon="0.87712">
        <ele>1028.6</ele>
        <time>2022-05-23 06:26:31</time>
      </trkpt>
      <trkpt lat="42.35923" lon="0.87727">
        <ele>1028</ele>
        <time>2022-05-23 06:26:32</time>
      </trkpt>
      <trkpt lat="42.35918" lon="0.87741">
        <ele>1027.4</ele>
        <time>2022-05-23 06:26:33</time>
      </trkpt>
      <trkpt lat="42.35912" lon="0.87756">
        <ele>1027</ele>
        <time>2022-05-23 06:26:34</time>
      </trkpt>
      <trkpt lat="42.35907" lon="0.8777">
        <ele>1026.4</ele>
        <time>2022-05-23 06:26:35</time>
      </trkpt>
      <trkpt lat="42.359" lon="0.87784">
        <ele>1025.8</ele>
        <time>2022-05-23 06:26:36</time>
      </trkpt>
      <trkpt lat="42.35894" lon="0.87798">
        <ele>1025.2</ele>
        <time>2022-05-23 06:26:37</time>
      </trkpt>
      <trkpt lat="42.35887" lon="0.87813">
        <ele>1024.8</ele>
        <time>2022-05-23 06:26:38</time>
      </trkpt>
      <trkpt lat="42.35881" lon="0.87827">
        <ele>1024.2</ele>
        <time>2022-05-23 06:26:39</time>
      </trkpt>
      <trkpt lat="42.35874" lon="0.87841">
        <ele>1023.6</ele>
        <time>2022-05-23 06:26:40</time>
      </trkpt>
      <trkpt lat="42.35867" lon="0.87857">
        <ele>1023</ele>
        <time>2022-05-23 06:26:41</time>
      </trkpt>
      <trkpt lat="42.35861" lon="0.87872">
        <ele>1022.2</ele>
        <time>2022-05-23 06:26:42</time>
      </trkpt>
      <trkpt lat="42.35855" lon="0.87887">
        <ele>1021.6</ele>
        <time>2022-05-23 06:26:43</time>
      </trkpt>
      <trkpt lat="42.35849" lon="0.87902">
        <ele>1021</ele>
        <time>2022-05-23 06:26:44</time>
      </trkpt>
      <trkpt lat="42.35843" lon="0.87918">
        <ele>1020.2</ele>
        <time>2022-05-23 06:26:45</time>
      </trkpt>
      <trkpt lat="42.35837" lon="0.87934">
        <ele>1019.6</ele>
        <time>2022-05-23 06:26:46</time>
      </trkpt>
      <trkpt lat="42.35833" lon="0.8795">
        <ele>1018.8</ele>
        <time>2022-05-23 06:26:47</time>
      </trkpt>
      <trkpt lat="42.35828" lon="0.87966">
        <ele>1018.2</ele>
        <time>2022-05-23 06:26:48</time>
      </trkpt>
      <trkpt lat="42.35824" lon="0.87982">
        <ele>1017.4</ele>
        <time>2022-05-23 06:26:49</time>
      </trkpt>
      <trkpt lat="42.3582" lon="0.88">
        <ele>1016.8</ele>
        <time>2022-05-23 06:26:50</time>
      </trkpt>
      <trkpt lat="42.35817" lon="0.88016">
        <ele>1016.2</ele>
        <time>2022-05-23 06:26:51</time>
      </trkpt>
      <trkpt lat="42.35814" lon="0.88033">
        <ele>1015.4</ele>
        <time>2022-05-23 06:26:52</time>
      </trkpt>
      <trkpt lat="42.35812" lon="0.8805">
        <ele>1014.6</ele>
        <time>2022-05-23 06:26:53</time>
      </trkpt>
      <trkpt lat="42.3581" lon="0.88067">
        <ele>1013.8</ele>
        <time>2022-05-23 06:26:54</time>
      </trkpt>
      <trkpt lat="42.35808" lon="0.88084">
        <ele>1013</ele>
        <time>2022-05-23 06:26:55</time>
      </trkpt>
      <trkpt lat="42.35807" lon="0.88101">
        <ele>1012.2</ele>
        <time>2022-05-23 06:26:56</time>
      </trkpt>
      <trkpt lat="42.35805" lon="0.88119">
        <ele>1011.6</ele>
        <time>2022-05-23 06:26:57</time>
      </trkpt>
      <trkpt lat="42.35805" lon="0.88135">
        <ele>1010.8</ele>
        <time>2022-05-23 06:26:58</time>
      </trkpt>
      <trkpt lat="42.35805" lon="0.88152">
        <ele>1010.2</ele>
        <time>2022-05-23 06:26:59</time>
      </trkpt>
      <trkpt lat="42.35805" lon="0.88169">
        <ele>1009.6</ele>
        <time>2022-05-23 06:27:00</time>
      </trkpt>
      <trkpt lat="42.35806" lon="0.88186">
        <ele>1009</ele>
        <time>2022-05-23 06:27:01</time>
      </trkpt>
      <trkpt lat="42.35807" lon="0.88202">
        <ele>1008.2</ele>
        <time>2022-05-23 06:27:02</time>
      </trkpt>
      <trkpt lat="42.35808" lon="0.88218">
        <ele>1007.6</ele>
        <time>2022-05-23 06:27:03</time>
      </trkpt>
      <trkpt lat="42.3581" lon="0.88233">
        <ele>1007</ele>
        <time>2022-05-23 06:27:04</time>
      </trkpt>
      <trkpt lat="42.35812" lon="0.88248">
        <ele>1006.4</ele>
        <time>2022-05-23 06:27:05</time>
      </trkpt>
      <trkpt lat="42.35814" lon="0.88262">
        <ele>1005.8</ele>
        <time>2022-05-23 06:27:06</time>
      </trkpt>
      <trkpt lat="42.35817" lon="0.88278">
        <ele>1005.2</ele>
        <time>2022-05-23 06:27:07</time>
      </trkpt>
      <trkpt lat="42.3582" lon="0.88293">
        <ele>1004.6</ele>
        <time>2022-05-23 06:27:08</time>
      </trkpt>
      <trkpt lat="42.35823" lon="0.88309">
        <ele>1003.8</ele>
        <time>2022-05-23 06:27:09</time>
      </trkpt>
      <trkpt lat="42.35826" lon="0.88324">
        <ele>1003.4</ele>
        <time>2022-05-23 06:27:10</time>
      </trkpt>
      <trkpt lat="42.35832" lon="0.8834">
        <ele>1002.6</ele>
        <time>2022-05-23 06:27:11</time>
      </trkpt>
      <trkpt lat="42.35839" lon="0.88354">
        <ele>1002</ele>
        <time>2022-05-23 06:27:12</time>
      </trkpt>
      <trkpt lat="42.35846" lon="0.88369">
        <ele>1001.4</ele>
        <time>2022-05-23 06:27:13</time>
      </trkpt>
      <trkpt lat="42.35851" lon="0.88384">
        <ele>1000.8</ele>
        <time>2022-05-23 06:27:14</time>
      </trkpt>
      <trkpt lat="42.35855" lon="0.884">
        <ele>1000.2</ele>
        <time>2022-05-23 06:27:15</time>
      </trkpt>
      <trkpt lat="42.3586" lon="0.88415">
        <ele>999.8</ele>
        <time>2022-05-23 06:27:16</time>
      </trkpt>
      <trkpt lat="42.35864" lon="0.88429">
        <ele>999.4</ele>
        <time>2022-05-23 06:27:17</time>
      </trkpt>
      <trkpt lat="42.35869" lon="0.88444">
        <ele>999</ele>
        <time>2022-05-23 06:27:18</time>
      </trkpt>
      <trkpt lat="42.35873" lon="0.88457">
        <ele>998.8</ele>
        <time>2022-05-23 06:27:19</time>
      </trkpt>
      <trkpt lat="42.35877" lon="0.88471">
        <ele>998.4</ele>
        <time>2022-05-23 06:27:20</time>
      </trkpt>
      <trkpt lat="42.35881" lon="0.88484">
        <ele>998.2</ele>
        <time>2022-05-23 06:27:21</time>
      </trkpt>
      <trkpt lat="42.35885" lon="0.88497">
        <ele>998</ele>
        <time>2022-05-23 06:27:22</time>
      </trkpt>
      <trkpt lat="42.35889" lon="0.8851">
        <ele>997.8</ele>
        <time>2022-05-23 06:27:23</time>
      </trkpt>
      <trkpt lat="42.35893" lon="0.88523">
        <ele>997.6</ele>
        <time>2022-05-23 06:27:24</time>
      </trkpt>
      <trkpt lat="42.35896" lon="0.88536">
        <ele>997.2</ele>
        <time>2022-05-23 06:27:25</time>
      </trkpt>
      <trkpt lat="42.359" lon="0.88549">
        <ele>997.2</ele>
        <time>2022-05-23 06:27:26</time>
      </trkpt>
      <trkpt lat="42.35904" lon="0.88561">
        <ele>997</ele>
        <time>2022-05-23 06:27:27</time>
      </trkpt>
      <trkpt lat="42.35907" lon="0.88574">
        <ele>996.8</ele>
        <time>2022-05-23 06:27:28</time>
      </trkpt>
      <trkpt lat="42.35911" lon="0.88586">
        <ele>996.6</ele>
        <time>2022-05-23 06:27:29</time>
      </trkpt>
      <trkpt lat="42.35915" lon="0.88598">
        <ele>996.4</ele>
        <time>2022-05-23 06:27:30</time>
      </trkpt>
      <trkpt lat="42.35918" lon="0.88609">
        <ele>996.2</ele>
        <time>2022-05-23 06:27:31</time>
      </trkpt>
      <trkpt lat="42.35921" lon="0.88621">
        <ele>996</ele>
        <time>2022-05-23 06:27:32</time>
      </trkpt>
      <trkpt lat="42.35924" lon="0.88633">
        <ele>995.8</ele>
        <time>2022-05-23 06:27:33</time>
      </trkpt>
      <trkpt lat="42.35927" lon="0.88645">
        <ele>995.6</ele>
        <time>2022-05-23 06:27:34</time>
      </trkpt>
      <trkpt lat="42.35929" lon="0.88657">
        <ele>995.4</ele>
        <time>2022-05-23 06:27:35</time>
      </trkpt>
      <trkpt lat="42.35932" lon="0.88669">
        <ele>995.2</ele>
        <time>2022-05-23 06:27:36</time>
      </trkpt>
      <trkpt lat="42.35933" lon="0.88681">
        <ele>995</ele>
        <time>2022-05-23 06:27:37</time>
      </trkpt>
      <trkpt lat="42.35935" lon="0.88693">
        <ele>994.8</ele>
        <time>2022-05-23 06:27:38</time>
      </trkpt>
      <trkpt lat="42.35936" lon="0.88705">
        <ele>994.6</ele>
        <time>2022-05-23 06:27:39</time>
      </trkpt>
      <trkpt lat="42.35938" lon="0.88717">
        <ele>994.4</ele>
        <time>2022-05-23 06:27:40</time>
      </trkpt>
      <trkpt lat="42.35939" lon="0.88728">
        <ele>994.2</ele>
        <time>2022-05-23 06:27:41</time>
      </trkpt>
      <trkpt lat="42.3594" lon="0.8874">
        <ele>994.2</ele>
        <time>2022-05-23 06:27:42</time>
      </trkpt>
      <trkpt lat="42.35941" lon="0.88751">
        <ele>994</ele>
        <time>2022-05-23 06:27:43</time>
      </trkpt>
      <trkpt lat="42.35941" lon="0.88763">
        <ele>993.8</ele>
        <time>2022-05-23 06:27:44</time>
      </trkpt>
      <trkpt lat="42.35941" lon="0.88772">
        <ele>993.6</ele>
        <time>2022-05-23 06:27:45</time>
      </trkpt>
      <trkpt lat="42.35941" lon="0.88788">
        <ele>993.4</ele>
        <time>2022-05-23 06:27:46</time>
      </trkpt>
      <trkpt lat="42.35941" lon="0.88799">
        <ele>993.2</ele>
        <time>2022-05-23 06:27:47</time>
      </trkpt>
      <trkpt lat="42.35941" lon="0.8881">
        <ele>993</ele>
        <time>2022-05-23 06:27:48</time>
      </trkpt>
      <trkpt lat="42.3594" lon="0.88817">
        <ele>993</ele>
        <time>2022-05-23 06:27:49</time>
      </trkpt>
      <trkpt lat="42.3594" lon="0.88833">
        <ele>992.8</ele>
        <time>2022-05-23 06:27:50</time>
      </trkpt>
      <trkpt lat="42.35939" lon="0.88844">
        <ele>992.6</ele>
        <time>2022-05-23 06:27:51</time>
      </trkpt>
      <trkpt lat="42.35938" lon="0.88855">
        <ele>992.4</ele>
        <time>2022-05-23 06:27:52</time>
      </trkpt>
      <trkpt lat="42.35936" lon="0.88865">
        <ele>992.2</ele>
        <time>2022-05-23 06:27:53</time>
      </trkpt>
      <trkpt lat="42.35934" lon="0.88877">
        <ele>992.2</ele>
        <time>2022-05-23 06:27:54</time>
      </trkpt>
      <trkpt lat="42.35933" lon="0.88888">
        <ele>992</ele>
        <time>2022-05-23 06:27:55</time>
      </trkpt>
      <trkpt lat="42.35931" lon="0.88899">
        <ele>991.8</ele>
        <time>2022-05-23 06:27:56</time>
      </trkpt>
      <trkpt lat="42.35929" lon="0.8891">
        <ele>991.6</ele>
        <time>2022-05-23 06:27:57</time>
      </trkpt>
      <trkpt lat="42.35926" lon="0.88921">
        <ele>991.6</ele>
        <time>2022-05-23 06:27:58</time>
      </trkpt>
      <trkpt lat="42.35924" lon="0.88931">
        <ele>991.4</ele>
        <time>2022-05-23 06:27:59</time>
      </trkpt>
      <trkpt lat="42.35921" lon="0.88943">
        <ele>991.2</ele>
        <time>2022-05-23 06:28:00</time>
      </trkpt>
      <trkpt lat="42.35919" lon="0.88953">
        <ele>990.8</ele>
        <time>2022-05-23 06:28:01</time>
      </trkpt>
      <trkpt lat="42.35915" lon="0.88964">
        <ele>990.6</ele>
        <time>2022-05-23 06:28:02</time>
      </trkpt>
      <trkpt lat="42.35912" lon="0.88974">
        <ele>990.4</ele>
        <time>2022-05-23 06:28:03</time>
      </trkpt>
      <trkpt lat="42.35909" lon="0.88984">
        <ele>990</ele>
        <time>2022-05-23 06:28:04</time>
      </trkpt>
      <trkpt lat="42.35906" lon="0.88993">
        <ele>989.8</ele>
        <time>2022-05-23 06:28:05</time>
      </trkpt>
      <trkpt lat="42.35901" lon="0.89005">
        <ele>989.6</ele>
        <time>2022-05-23 06:28:06</time>
      </trkpt>
      <trkpt lat="42.35897" lon="0.89014">
        <ele>989.4</ele>
        <time>2022-05-23 06:28:07</time>
      </trkpt>
      <trkpt lat="42.35893" lon="0.89024">
        <ele>989.2</ele>
        <time>2022-05-23 06:28:08</time>
      </trkpt>
      <trkpt lat="42.35888" lon="0.89034">
        <ele>988.8</ele>
        <time>2022-05-23 06:28:09</time>
      </trkpt>
      <trkpt lat="42.35884" lon="0.89044">
        <ele>988.4</ele>
        <time>2022-05-23 06:28:10</time>
      </trkpt>
      <trkpt lat="42.35879" lon="0.89054">
        <ele>988.2</ele>
        <time>2022-05-23 06:28:11</time>
      </trkpt>
      <trkpt lat="42.35874" lon="0.89064">
        <ele>987.8</ele>
        <time>2022-05-23 06:28:12</time>
      </trkpt>
      <trkpt lat="42.35869" lon="0.89074">
        <ele>987.4</ele>
        <time>2022-05-23 06:28:13</time>
      </trkpt>
      <trkpt lat="42.35863" lon="0.89083">
        <ele>987</ele>
        <time>2022-05-23 06:28:14</time>
      </trkpt>
      <trkpt lat="42.35858" lon="0.89092">
        <ele>986.6</ele>
        <time>2022-05-23 06:28:15</time>
      </trkpt>
      <trkpt lat="42.35851" lon="0.89102">
        <ele>986.4</ele>
        <time>2022-05-23 06:28:16</time>
      </trkpt>
      <trkpt lat="42.35845" lon="0.89111">
        <ele>986</ele>
        <time>2022-05-23 06:28:17</time>
      </trkpt>
      <trkpt lat="42.35839" lon="0.8912">
        <ele>985.6</ele>
        <time>2022-05-23 06:28:18</time>
      </trkpt>
      <trkpt lat="42.35832" lon="0.8913">
        <ele>985.2</ele>
        <time>2022-05-23 06:28:19</time>
      </trkpt>
      <trkpt lat="42.35825" lon="0.89139">
        <ele>984.8</ele>
        <time>2022-05-23 06:28:20</time>
      </trkpt>
      <trkpt lat="42.35817" lon="0.89148">
        <ele>984.2</ele>
        <time>2022-05-23 06:28:21</time>
      </trkpt>
      <trkpt lat="42.3581" lon="0.89156">
        <ele>983.6</ele>
        <time>2022-05-23 06:28:22</time>
      </trkpt>
      <trkpt lat="42.35803" lon="0.89164">
        <ele>983.2</ele>
        <time>2022-05-23 06:28:23</time>
      </trkpt>
      <trkpt lat="42.35794" lon="0.89172">
        <ele>982.6</ele>
        <time>2022-05-23 06:28:24</time>
      </trkpt>
      <trkpt lat="42.35786" lon="0.8918">
        <ele>982</ele>
        <time>2022-05-23 06:28:25</time>
      </trkpt>
      <trkpt lat="42.35778" lon="0.89188">
        <ele>981.4</ele>
        <time>2022-05-23 06:28:26</time>
      </trkpt>
      <trkpt lat="42.3577" lon="0.89197">
        <ele>981</ele>
        <time>2022-05-23 06:28:27</time>
      </trkpt>
      <trkpt lat="42.35761" lon="0.89205">
        <ele>980.4</ele>
        <time>2022-05-23 06:28:28</time>
      </trkpt>
      <trkpt lat="42.35752" lon="0.89213">
        <ele>979.8</ele>
        <time>2022-05-23 06:28:29</time>
      </trkpt>
      <trkpt lat="42.35743" lon="0.89221">
        <ele>979.2</ele>
        <time>2022-05-23 06:28:30</time>
      </trkpt>
      <trkpt lat="42.35734" lon="0.89229">
        <ele>978.6</ele>
        <time>2022-05-23 06:28:31</time>
      </trkpt>
      <trkpt lat="42.35726" lon="0.89239">
        <ele>978</ele>
        <time>2022-05-23 06:28:32</time>
      </trkpt>
      <trkpt lat="42.35717" lon="0.89248">
        <ele>977.6</ele>
        <time>2022-05-23 06:28:33</time>
      </trkpt>
      <trkpt lat="42.35709" lon="0.89258">
        <ele>977</ele>
        <time>2022-05-23 06:28:34</time>
      </trkpt>
      <trkpt lat="42.35701" lon="0.89269">
        <ele>976.4</ele>
        <time>2022-05-23 06:28:35</time>
      </trkpt>
      <trkpt lat="42.35695" lon="0.89278">
        <ele>975.8</ele>
        <time>2022-05-23 06:28:36</time>
      </trkpt>
      <trkpt lat="42.35686" lon="0.89291">
        <ele>975</ele>
        <time>2022-05-23 06:28:37</time>
      </trkpt>
      <trkpt lat="42.35679" lon="0.89304">
        <ele>974.4</ele>
        <time>2022-05-23 06:28:38</time>
      </trkpt>
      <trkpt lat="42.35673" lon="0.89316">
        <ele>973.6</ele>
        <time>2022-05-23 06:28:39</time>
      </trkpt>
      <trkpt lat="42.35666" lon="0.89329">
        <ele>973</ele>
        <time>2022-05-23 06:28:40</time>
      </trkpt>
      <trkpt lat="42.3566" lon="0.89342">
        <ele>972.2</ele>
        <time>2022-05-23 06:28:41</time>
      </trkpt>
      <trkpt lat="42.35655" lon="0.89356">
        <ele>971.4</ele>
        <time>2022-05-23 06:28:42</time>
      </trkpt>
      <trkpt lat="42.3565" lon="0.8937">
        <ele>970.6</ele>
        <time>2022-05-23 06:28:43</time>
      </trkpt>
      <trkpt lat="42.35645" lon="0.89384">
        <ele>969.8</ele>
        <time>2022-05-23 06:28:44</time>
      </trkpt>
      <trkpt lat="42.3564" lon="0.89399">
        <ele>969.2</ele>
        <time>2022-05-23 06:28:45</time>
      </trkpt>
      <trkpt lat="42.35635" lon="0.89413">
        <ele>968.4</ele>
        <time>2022-05-23 06:28:46</time>
      </trkpt>
      <trkpt lat="42.35631" lon="0.89428">
        <ele>967.6</ele>
        <time>2022-05-23 06:28:47</time>
      </trkpt>
      <trkpt lat="42.35626" lon="0.89443">
        <ele>967</ele>
        <time>2022-05-23 06:28:48</time>
      </trkpt>
      <trkpt lat="42.35621" lon="0.89458">
        <ele>966.2</ele>
        <time>2022-05-23 06:28:49</time>
      </trkpt>
      <trkpt lat="42.35616" lon="0.89473">
        <ele>965.6</ele>
        <time>2022-05-23 06:28:50</time>
      </trkpt>
      <trkpt lat="42.35612" lon="0.89487">
        <ele>965</ele>
        <time>2022-05-23 06:28:51</time>
      </trkpt>
      <trkpt lat="42.35607" lon="0.89501">
        <ele>964.2</ele>
        <time>2022-05-23 06:28:52</time>
      </trkpt>
      <trkpt lat="42.35601" lon="0.89516">
        <ele>963.6</ele>
        <time>2022-05-23 06:28:53</time>
      </trkpt>
      <trkpt lat="42.35595" lon="0.8953">
        <ele>963</ele>
        <time>2022-05-23 06:28:54</time>
      </trkpt>
      <trkpt lat="42.35589" lon="0.89544">
        <ele>962.4</ele>
        <time>2022-05-23 06:28:55</time>
      </trkpt>
      <trkpt lat="42.35583" lon="0.89557">
        <ele>961.8</ele>
        <time>2022-05-23 06:28:56</time>
      </trkpt>
      <trkpt lat="42.35576" lon="0.8957">
        <ele>961.2</ele>
        <time>2022-05-23 06:28:57</time>
      </trkpt>
      <trkpt lat="42.35569" lon="0.89583">
        <ele>960.6</ele>
        <time>2022-05-23 06:28:58</time>
      </trkpt>
      <trkpt lat="42.35561" lon="0.89595">
        <ele>960.2</ele>
        <time>2022-05-23 06:28:59</time>
      </trkpt>
      <trkpt lat="42.35554" lon="0.89607">
        <ele>959.6</ele>
        <time>2022-05-23 06:29:00</time>
      </trkpt>
      <trkpt lat="42.35546" lon="0.89618">
        <ele>959.2</ele>
        <time>2022-05-23 06:29:01</time>
      </trkpt>
      <trkpt lat="42.35539" lon="0.89629">
        <ele>958.6</ele>
        <time>2022-05-23 06:29:02</time>
      </trkpt>
      <trkpt lat="42.35531" lon="0.89639">
        <ele>958.2</ele>
        <time>2022-05-23 06:29:03</time>
      </trkpt>
      <trkpt lat="42.35522" lon="0.8965">
        <ele>957.8</ele>
        <time>2022-05-23 06:29:04</time>
      </trkpt>
      <trkpt lat="42.35514" lon="0.8966">
        <ele>957.2</ele>
        <time>2022-05-23 06:29:05</time>
      </trkpt>
      <trkpt lat="42.35505" lon="0.8967">
        <ele>956.8</ele>
        <time>2022-05-23 06:29:06</time>
      </trkpt>
      <trkpt lat="42.35497" lon="0.8968">
        <ele>956.4</ele>
        <time>2022-05-23 06:29:07</time>
      </trkpt>
      <trkpt lat="42.35489" lon="0.89689">
        <ele>956</ele>
        <time>2022-05-23 06:29:08</time>
      </trkpt>
      <trkpt lat="42.35481" lon="0.89699">
        <ele>955.6</ele>
        <time>2022-05-23 06:29:09</time>
      </trkpt>
      <trkpt lat="42.35473" lon="0.89709">
        <ele>955.2</ele>
        <time>2022-05-23 06:29:10</time>
      </trkpt>
      <trkpt lat="42.35465" lon="0.89718">
        <ele>954.8</ele>
        <time>2022-05-23 06:29:11</time>
      </trkpt>
      <trkpt lat="42.35457" lon="0.89727">
        <ele>954.4</ele>
        <time>2022-05-23 06:29:12</time>
      </trkpt>
      <trkpt lat="42.35449" lon="0.89737">
        <ele>954.2</ele>
        <time>2022-05-23 06:29:13</time>
      </trkpt>
      <trkpt lat="42.35441" lon="0.89746">
        <ele>953.8</ele>
        <time>2022-05-23 06:29:14</time>
      </trkpt>
      <trkpt lat="42.35433" lon="0.89756">
        <ele>953.4</ele>
        <time>2022-05-23 06:29:15</time>
      </trkpt>
      <trkpt lat="42.35426" lon="0.89765">
        <ele>953</ele>
        <time>2022-05-23 06:29:16</time>
      </trkpt>
      <trkpt lat="42.35418" lon="0.89774">
        <ele>952.8</ele>
        <time>2022-05-23 06:29:17</time>
      </trkpt>
      <trkpt lat="42.3541" lon="0.89784">
        <ele>952.4</ele>
        <time>2022-05-23 06:29:18</time>
      </trkpt>
      <trkpt lat="42.35402" lon="0.89794">
        <ele>952</ele>
        <time>2022-05-23 06:29:19</time>
      </trkpt>
      <trkpt lat="42.35393" lon="0.89803">
        <ele>951.6</ele>
        <time>2022-05-23 06:29:20</time>
      </trkpt>
      <trkpt lat="42.35385" lon="0.89812">
        <ele>951.2</ele>
        <time>2022-05-23 06:29:21</time>
      </trkpt>
      <trkpt lat="42.35377" lon="0.89822">
        <ele>950.8</ele>
        <time>2022-05-23 06:29:22</time>
      </trkpt>
      <trkpt lat="42.3537" lon="0.89831">
        <ele>950.4</ele>
        <time>2022-05-23 06:29:23</time>
      </trkpt>
      <trkpt lat="42.35362" lon="0.89841">
        <ele>950</ele>
        <time>2022-05-23 06:29:24</time>
      </trkpt>
      <trkpt lat="42.35355" lon="0.8985">
        <ele>949.6</ele>
        <time>2022-05-23 06:29:25</time>
      </trkpt>
      <trkpt lat="42.35347" lon="0.8986">
        <ele>949.2</ele>
        <time>2022-05-23 06:29:26</time>
      </trkpt>
      <trkpt lat="42.35339" lon="0.89869">
        <ele>948.8</ele>
        <time>2022-05-23 06:29:27</time>
      </trkpt>
      <trkpt lat="42.35332" lon="0.89878">
        <ele>948.4</ele>
        <time>2022-05-23 06:29:28</time>
      </trkpt>
      <trkpt lat="42.35324" lon="0.89887">
        <ele>947.8</ele>
        <time>2022-05-23 06:29:29</time>
      </trkpt>
      <trkpt lat="42.35316" lon="0.89896">
        <ele>947.4</ele>
        <time>2022-05-23 06:29:30</time>
      </trkpt>
      <trkpt lat="42.35308" lon="0.89905">
        <ele>947.2</ele>
        <time>2022-05-23 06:29:31</time>
      </trkpt>
      <trkpt lat="42.35301" lon="0.89914">
        <ele>946.8</ele>
        <time>2022-05-23 06:29:32</time>
      </trkpt>
      <trkpt lat="42.35293" lon="0.89922">
        <ele>946.4</ele>
        <time>2022-05-23 06:29:33</time>
      </trkpt>
      <trkpt lat="42.35286" lon="0.8993">
        <ele>946</ele>
        <time>2022-05-23 06:29:34</time>
      </trkpt>
      <trkpt lat="42.35278" lon="0.89939">
        <ele>945.6</ele>
        <time>2022-05-23 06:29:35</time>
      </trkpt>
      <trkpt lat="42.3527" lon="0.89947">
        <ele>945.4</ele>
        <time>2022-05-23 06:29:36</time>
      </trkpt>
      <trkpt lat="42.35263" lon="0.89955">
        <ele>945</ele>
        <time>2022-05-23 06:29:37</time>
      </trkpt>
      <trkpt lat="42.35255" lon="0.89963">
        <ele>944.6</ele>
        <time>2022-05-23 06:29:38</time>
      </trkpt>
      <trkpt lat="42.35247" lon="0.8997">
        <ele>944.4</ele>
        <time>2022-05-23 06:29:39</time>
      </trkpt>
      <trkpt lat="42.35239" lon="0.89977">
        <ele>944</ele>
        <time>2022-05-23 06:29:40</time>
      </trkpt>
      <trkpt lat="42.35231" lon="0.89984">
        <ele>943.6</ele>
        <time>2022-05-23 06:29:41</time>
      </trkpt>
      <trkpt lat="42.35224" lon="0.8999">
        <ele>943.4</ele>
        <time>2022-05-23 06:29:42</time>
      </trkpt>
      <trkpt lat="42.35216" lon="0.89997">
        <ele>942.8</ele>
        <time>2022-05-23 06:29:43</time>
      </trkpt>
      <trkpt lat="42.35209" lon="0.90003">
        <ele>942.4</ele>
        <time>2022-05-23 06:29:44</time>
      </trkpt>
      <trkpt lat="42.35201" lon="0.90009">
        <ele>942</ele>
        <time>2022-05-23 06:29:45</time>
      </trkpt>
      <trkpt lat="42.35192" lon="0.90016">
        <ele>941.4</ele>
        <time>2022-05-23 06:29:46</time>
      </trkpt>
      <trkpt lat="42.35184" lon="0.90022">
        <ele>941</ele>
        <time>2022-05-23 06:29:47</time>
      </trkpt>
      <trkpt lat="42.35175" lon="0.90028">
        <ele>940.6</ele>
        <time>2022-05-23 06:29:48</time>
      </trkpt>
      <trkpt lat="42.35166" lon="0.90034">
        <ele>940.2</ele>
        <time>2022-05-23 06:29:49</time>
      </trkpt>
      <trkpt lat="42.35158" lon="0.9004">
        <ele>939.8</ele>
        <time>2022-05-23 06:29:50</time>
      </trkpt>
      <trkpt lat="42.35148" lon="0.90046">
        <ele>939.4</ele>
        <time>2022-05-23 06:29:51</time>
      </trkpt>
      <trkpt lat="42.35139" lon="0.90052">
        <ele>939</ele>
        <time>2022-05-23 06:29:52</time>
      </trkpt>
      <trkpt lat="42.3513" lon="0.90058">
        <ele>938.6</ele>
        <time>2022-05-23 06:29:53</time>
      </trkpt>
      <trkpt lat="42.35121" lon="0.90064">
        <ele>938</ele>
        <time>2022-05-23 06:29:54</time>
      </trkpt>
      <trkpt lat="42.35112" lon="0.90069">
        <ele>937.8</ele>
        <time>2022-05-23 06:29:55</time>
      </trkpt>
      <trkpt lat="42.35103" lon="0.90076">
        <ele>937.4</ele>
        <time>2022-05-23 06:29:56</time>
      </trkpt>
      <trkpt lat="42.35094" lon="0.90083">
        <ele>937.2</ele>
        <time>2022-05-23 06:29:57</time>
      </trkpt>
      <trkpt lat="42.35085" lon="0.90089">
        <ele>936.8</ele>
        <time>2022-05-23 06:29:58</time>
      </trkpt>
      <trkpt lat="42.35076" lon="0.90096">
        <ele>936.4</ele>
        <time>2022-05-23 06:29:59</time>
      </trkpt>
      <trkpt lat="42.35068" lon="0.90102">
        <ele>936</ele>
        <time>2022-05-23 06:30:00</time>
      </trkpt>
      <trkpt lat="42.35059" lon="0.90109">
        <ele>935.6</ele>
        <time>2022-05-23 06:30:01</time>
      </trkpt>
      <trkpt lat="42.3505" lon="0.90116">
        <ele>935.4</ele>
        <time>2022-05-23 06:30:02</time>
      </trkpt>
      <trkpt lat="42.35042" lon="0.90123">
        <ele>935.2</ele>
        <time>2022-05-23 06:30:03</time>
      </trkpt>
      <trkpt lat="42.35033" lon="0.9013">
        <ele>934.8</ele>
        <time>2022-05-23 06:30:04</time>
      </trkpt>
      <trkpt lat="42.35025" lon="0.90137">
        <ele>934.4</ele>
        <time>2022-05-23 06:30:05</time>
      </trkpt>
      <trkpt lat="42.35017" lon="0.90144">
        <ele>934</ele>
        <time>2022-05-23 06:30:06</time>
      </trkpt>
      <trkpt lat="42.35009" lon="0.90151">
        <ele>933.6</ele>
        <time>2022-05-23 06:30:07</time>
      </trkpt>
      <trkpt lat="42.35" lon="0.90159">
        <ele>933.2</ele>
        <time>2022-05-23 06:30:08</time>
      </trkpt>
      <trkpt lat="42.34992" lon="0.90166">
        <ele>932.8</ele>
        <time>2022-05-23 06:30:09</time>
      </trkpt>
      <trkpt lat="42.34984" lon="0.90173">
        <ele>932.4</ele>
        <time>2022-05-23 06:30:10</time>
      </trkpt>
      <trkpt lat="42.34975" lon="0.90181">
        <ele>932</ele>
        <time>2022-05-23 06:30:11</time>
      </trkpt>
      <trkpt lat="42.34967" lon="0.90189">
        <ele>931.6</ele>
        <time>2022-05-23 06:30:12</time>
      </trkpt>
      <trkpt lat="42.34959" lon="0.90197">
        <ele>931.2</ele>
        <time>2022-05-23 06:30:13</time>
      </trkpt>
      <trkpt lat="42.34951" lon="0.90204">
        <ele>930.8</ele>
        <time>2022-05-23 06:30:14</time>
      </trkpt>
      <trkpt lat="42.34943" lon="0.90212">
        <ele>930.2</ele>
        <time>2022-05-23 06:30:15</time>
      </trkpt>
      <trkpt lat="42.34935" lon="0.90221">
        <ele>929.8</ele>
        <time>2022-05-23 06:30:16</time>
      </trkpt>
      <trkpt lat="42.34927" lon="0.90229">
        <ele>929.4</ele>
        <time>2022-05-23 06:30:17</time>
      </trkpt>
      <trkpt lat="42.3492" lon="0.90237">
        <ele>929.2</ele>
        <time>2022-05-23 06:30:18</time>
      </trkpt>
      <trkpt lat="42.34912" lon="0.90245">
        <ele>928.8</ele>
        <time>2022-05-23 06:30:19</time>
      </trkpt>
      <trkpt lat="42.34904" lon="0.90253">
        <ele>928.2</ele>
        <time>2022-05-23 06:30:20</time>
      </trkpt>
      <trkpt lat="42.34896" lon="0.90262">
        <ele>927.8</ele>
        <time>2022-05-23 06:30:21</time>
      </trkpt>
      <trkpt lat="42.34888" lon="0.9027">
        <ele>927.4</ele>
        <time>2022-05-23 06:30:22</time>
      </trkpt>
      <trkpt lat="42.3488" lon="0.90279">
        <ele>927</ele>
        <time>2022-05-23 06:30:23</time>
      </trkpt>
      <trkpt lat="42.34872" lon="0.90288">
        <ele>926.6</ele>
        <time>2022-05-23 06:30:24</time>
      </trkpt>
      <trkpt lat="42.34865" lon="0.90296">
        <ele>926.4</ele>
        <time>2022-05-23 06:30:25</time>
      </trkpt>
      <trkpt lat="42.34856" lon="0.90305">
        <ele>925.8</ele>
        <time>2022-05-23 06:30:26</time>
      </trkpt>
      <trkpt lat="42.34848" lon="0.90314">
        <ele>925.4</ele>
        <time>2022-05-23 06:30:27</time>
      </trkpt>
      <trkpt lat="42.3484" lon="0.90323">
        <ele>925</ele>
        <time>2022-05-23 06:30:28</time>
      </trkpt>
      <trkpt lat="42.34832" lon="0.90331">
        <ele>924.6</ele>
        <time>2022-05-23 06:30:29</time>
      </trkpt>
      <trkpt lat="42.34824" lon="0.9034">
        <ele>924.2</ele>
        <time>2022-05-23 06:30:30</time>
      </trkpt>
      <trkpt lat="42.34817" lon="0.90349">
        <ele>923.8</ele>
        <time>2022-05-23 06:30:31</time>
      </trkpt>
      <trkpt lat="42.34809" lon="0.90358">
        <ele>923.4</ele>
        <time>2022-05-23 06:30:32</time>
      </trkpt>
      <trkpt lat="42.34801" lon="0.90366">
        <ele>923</ele>
        <time>2022-05-23 06:30:33</time>
      </trkpt>
      <trkpt lat="42.34793" lon="0.90375">
        <ele>922.6</ele>
        <time>2022-05-23 06:30:34</time>
      </trkpt>
      <trkpt lat="42.34785" lon="0.90384">
        <ele>922.2</ele>
        <time>2022-05-23 06:30:35</time>
      </trkpt>
      <trkpt lat="42.34777" lon="0.90393">
        <ele>921.6</ele>
        <time>2022-05-23 06:30:36</time>
      </trkpt>
      <trkpt lat="42.34769" lon="0.90402">
        <ele>921.2</ele>
        <time>2022-05-23 06:30:37</time>
      </trkpt>
      <trkpt lat="42.34761" lon="0.90411">
        <ele>920.8</ele>
        <time>2022-05-23 06:30:38</time>
      </trkpt>
      <trkpt lat="42.34752" lon="0.90419">
        <ele>920.4</ele>
        <time>2022-05-23 06:30:39</time>
      </trkpt>
      <trkpt lat="42.34744" lon="0.90428">
        <ele>920</ele>
        <time>2022-05-23 06:30:40</time>
      </trkpt>
      <trkpt lat="42.34736" lon="0.90436">
        <ele>919.4</ele>
        <time>2022-05-23 06:30:41</time>
      </trkpt>
      <trkpt lat="42.34728" lon="0.90444">
        <ele>919</ele>
        <time>2022-05-23 06:30:42</time>
      </trkpt>
      <trkpt lat="42.34719" lon="0.90452">
        <ele>918.6</ele>
        <time>2022-05-23 06:30:43</time>
      </trkpt>
      <trkpt lat="42.34712" lon="0.90461">
        <ele>918.2</ele>
        <time>2022-05-23 06:30:44</time>
      </trkpt>
      <trkpt lat="42.34704" lon="0.90469">
        <ele>917.8</ele>
        <time>2022-05-23 06:30:45</time>
      </trkpt>
      <trkpt lat="42.34695" lon="0.90478">
        <ele>917.4</ele>
        <time>2022-05-23 06:30:46</time>
      </trkpt>
      <trkpt lat="42.34687" lon="0.90488">
        <ele>917</ele>
        <time>2022-05-23 06:30:47</time>
      </trkpt>
      <trkpt lat="42.3468" lon="0.90497">
        <ele>916.6</ele>
        <time>2022-05-23 06:30:48</time>
      </trkpt>
      <trkpt lat="42.34672" lon="0.90506">
        <ele>916.2</ele>
        <time>2022-05-23 06:30:49</time>
      </trkpt>
      <trkpt lat="42.34665" lon="0.90514">
        <ele>915.8</ele>
        <time>2022-05-23 06:30:50</time>
      </trkpt>
      <trkpt lat="42.34658" lon="0.90522">
        <ele>915.6</ele>
        <time>2022-05-23 06:30:51</time>
      </trkpt>
      <trkpt lat="42.34651" lon="0.90532">
        <ele>915.2</ele>
        <time>2022-05-23 06:30:52</time>
      </trkpt>
      <trkpt lat="42.34645" lon="0.90541">
        <ele>915</ele>
        <time>2022-05-23 06:30:53</time>
      </trkpt>
      <trkpt lat="42.34638" lon="0.90551">
        <ele>914.8</ele>
        <time>2022-05-23 06:30:54</time>
      </trkpt>
      <trkpt lat="42.34632" lon="0.9056">
        <ele>914.4</ele>
        <time>2022-05-23 06:30:55</time>
      </trkpt>
      <trkpt lat="42.34626" lon="0.90569">
        <ele>914.2</ele>
        <time>2022-05-23 06:30:56</time>
      </trkpt>
      <trkpt lat="42.34619" lon="0.9058">
        <ele>914</ele>
        <time>2022-05-23 06:30:57</time>
      </trkpt>
      <trkpt lat="42.34613" lon="0.9059">
        <ele>913.8</ele>
        <time>2022-05-23 06:30:58</time>
      </trkpt>
      <trkpt lat="42.34607" lon="0.906">
        <ele>913.6</ele>
        <time>2022-05-23 06:30:59</time>
      </trkpt>
      <trkpt lat="42.34602" lon="0.90609">
        <ele>913.6</ele>
        <time>2022-05-23 06:31:00</time>
      </trkpt>
      <trkpt lat="42.34597" lon="0.90618">
        <ele>913.4</ele>
        <time>2022-05-23 06:31:01</time>
      </trkpt>
      <trkpt lat="42.34592" lon="0.90626">
        <ele>913.2</ele>
        <time>2022-05-23 06:31:02</time>
      </trkpt>
      <trkpt lat="42.34586" lon="0.90636">
        <ele>912.8</ele>
        <time>2022-05-23 06:31:03</time>
      </trkpt>
      <trkpt lat="42.34581" lon="0.90646">
        <ele>912.6</ele>
        <time>2022-05-23 06:31:04</time>
      </trkpt>
      <trkpt lat="42.34575" lon="0.90656">
        <ele>912.4</ele>
        <time>2022-05-23 06:31:05</time>
      </trkpt>
      <trkpt lat="42.3457" lon="0.90665">
        <ele>912.2</ele>
        <time>2022-05-23 06:31:06</time>
      </trkpt>
      <trkpt lat="42.34565" lon="0.90675">
        <ele>912</ele>
        <time>2022-05-23 06:31:07</time>
      </trkpt>
      <trkpt lat="42.3456" lon="0.90685">
        <ele>911.8</ele>
        <time>2022-05-23 06:31:08</time>
      </trkpt>
      <trkpt lat="42.34556" lon="0.90696">
        <ele>911.8</ele>
        <time>2022-05-23 06:31:09</time>
      </trkpt>
      <trkpt lat="42.34552" lon="0.90706">
        <ele>911.6</ele>
        <time>2022-05-23 06:31:10</time>
      </trkpt>
      <trkpt lat="42.34547" lon="0.90715">
        <ele>911.4</ele>
        <time>2022-05-23 06:31:11</time>
      </trkpt>
      <trkpt lat="42.34543" lon="0.90726">
        <ele>911.2</ele>
        <time>2022-05-23 06:31:12</time>
      </trkpt>
      <trkpt lat="42.34538" lon="0.90736">
        <ele>911.2</ele>
        <time>2022-05-23 06:31:13</time>
      </trkpt>
      <trkpt lat="42.34534" lon="0.90747">
        <ele>911</ele>
        <time>2022-05-23 06:31:14</time>
      </trkpt>
      <trkpt lat="42.3453" lon="0.90757">
        <ele>910.8</ele>
        <time>2022-05-23 06:31:15</time>
      </trkpt>
      <trkpt lat="42.34527" lon="0.90767">
        <ele>910.6</ele>
        <time>2022-05-23 06:31:16</time>
      </trkpt>
      <trkpt lat="42.34523" lon="0.90779">
        <ele>910.4</ele>
        <time>2022-05-23 06:31:17</time>
      </trkpt>
      <trkpt lat="42.34519" lon="0.9079">
        <ele>910.2</ele>
        <time>2022-05-23 06:31:18</time>
      </trkpt>
      <trkpt lat="42.34516" lon="0.908">
        <ele>910</ele>
        <time>2022-05-23 06:31:19</time>
      </trkpt>
      <trkpt lat="42.34512" lon="0.90811">
        <ele>909.8</ele>
        <time>2022-05-23 06:31:20</time>
      </trkpt>
      <trkpt lat="42.34509" lon="0.90822">
        <ele>909.6</ele>
        <time>2022-05-23 06:31:21</time>
      </trkpt>
      <trkpt lat="42.34506" lon="0.90833">
        <ele>909.4</ele>
        <time>2022-05-23 06:31:22</time>
      </trkpt>
      <trkpt lat="42.34503" lon="0.90844">
        <ele>909.2</ele>
        <time>2022-05-23 06:31:23</time>
      </trkpt>
      <trkpt lat="42.34501" lon="0.90855">
        <ele>909</ele>
        <time>2022-05-23 06:31:24</time>
      </trkpt>
      <trkpt lat="42.34498" lon="0.90867">
        <ele>908.8</ele>
        <time>2022-05-23 06:31:25</time>
      </trkpt>
      <trkpt lat="42.34495" lon="0.90877">
        <ele>908.6</ele>
        <time>2022-05-23 06:31:26</time>
      </trkpt>
      <trkpt lat="42.34493" lon="0.90889">
        <ele>908.4</ele>
        <time>2022-05-23 06:31:27</time>
      </trkpt>
      <trkpt lat="42.3449" lon="0.909">
        <ele>908.2</ele>
        <time>2022-05-23 06:31:28</time>
      </trkpt>
      <trkpt lat="42.34488" lon="0.90912">
        <ele>908</ele>
        <time>2022-05-23 06:31:29</time>
      </trkpt>
      <trkpt lat="42.34486" lon="0.90923">
        <ele>907.8</ele>
        <time>2022-05-23 06:31:30</time>
      </trkpt>
      <trkpt lat="42.34484" lon="0.90933">
        <ele>907.6</ele>
        <time>2022-05-23 06:31:31</time>
      </trkpt>
      <trkpt lat="42.34482" lon="0.90945">
        <ele>907.4</ele>
        <time>2022-05-23 06:31:32</time>
      </trkpt>
      <trkpt lat="42.3448" lon="0.90957">
        <ele>907.2</ele>
        <time>2022-05-23 06:31:33</time>
      </trkpt>
      <trkpt lat="42.34478" lon="0.90968">
        <ele>907</ele>
        <time>2022-05-23 06:31:34</time>
      </trkpt>
      <trkpt lat="42.34475" lon="0.90979">
        <ele>906.8</ele>
        <time>2022-05-23 06:31:35</time>
      </trkpt>
      <trkpt lat="42.34474" lon="0.9099">
        <ele>906.6</ele>
        <time>2022-05-23 06:31:36</time>
      </trkpt>
      <trkpt lat="42.34472" lon="0.91002">
        <ele>906.4</ele>
        <time>2022-05-23 06:31:37</time>
      </trkpt>
      <trkpt lat="42.3447" lon="0.91013">
        <ele>906.2</ele>
        <time>2022-05-23 06:31:38</time>
      </trkpt>
      <trkpt lat="42.34467" lon="0.91024">
        <ele>905.8</ele>
        <time>2022-05-23 06:31:39</time>
      </trkpt>
      <trkpt lat="42.34465" lon="0.91036">
        <ele>905.6</ele>
        <time>2022-05-23 06:31:40</time>
      </trkpt>
      <trkpt lat="42.34464" lon="0.91045">
        <ele>905.4</ele>
        <time>2022-05-23 06:31:41</time>
      </trkpt>
      <trkpt lat="42.34462" lon="0.91058">
        <ele>905.4</ele>
        <time>2022-05-23 06:31:42</time>
      </trkpt>
      <trkpt lat="42.3446" lon="0.91069">
        <ele>905.2</ele>
        <time>2022-05-23 06:31:43</time>
      </trkpt>
      <trkpt lat="42.34457" lon="0.9108">
        <ele>905</ele>
        <time>2022-05-23 06:31:44</time>
      </trkpt>
      <trkpt lat="42.34455" lon="0.91091">
        <ele>904.8</ele>
        <time>2022-05-23 06:31:45</time>
      </trkpt>
      <trkpt lat="42.34453" lon="0.91101">
        <ele>904.6</ele>
        <time>2022-05-23 06:31:46</time>
      </trkpt>
      <trkpt lat="42.34451" lon="0.91113">
        <ele>904.4</ele>
        <time>2022-05-23 06:31:47</time>
      </trkpt>
      <trkpt lat="42.34448" lon="0.91123">
        <ele>904.2</ele>
        <time>2022-05-23 06:31:48</time>
      </trkpt>
      <trkpt lat="42.34446" lon="0.91134">
        <ele>904.2</ele>
        <time>2022-05-23 06:31:49</time>
      </trkpt>
      <trkpt lat="42.34443" lon="0.91145">
        <ele>904</ele>
        <time>2022-05-23 06:31:50</time>
      </trkpt>
      <trkpt lat="42.34441" lon="0.91154">
        <ele>903.8</ele>
        <time>2022-05-23 06:31:51</time>
      </trkpt>
      <trkpt lat="42.34438" lon="0.91166">
        <ele>903.6</ele>
        <time>2022-05-23 06:31:52</time>
      </trkpt>
      <trkpt lat="42.34436" lon="0.91177">
        <ele>903.4</ele>
        <time>2022-05-23 06:31:53</time>
      </trkpt>
      <trkpt lat="42.34433" lon="0.91187">
        <ele>903.2</ele>
        <time>2022-05-23 06:31:54</time>
      </trkpt>
      <trkpt lat="42.3443" lon="0.91199">
        <ele>903.2</ele>
        <time>2022-05-23 06:31:55</time>
      </trkpt>
      <trkpt lat="42.34427" lon="0.91209">
        <ele>903</ele>
        <time>2022-05-23 06:31:56</time>
      </trkpt>
      <trkpt lat="42.34424" lon="0.9122">
        <ele>902.8</ele>
        <time>2022-05-23 06:31:57</time>
      </trkpt>
      <trkpt lat="42.34421" lon="0.9123">
        <ele>902.6</ele>
        <time>2022-05-23 06:31:58</time>
      </trkpt>
      <trkpt lat="42.34418" lon="0.91241">
        <ele>902.4</ele>
        <time>2022-05-23 06:31:59</time>
      </trkpt>
      <trkpt lat="42.34416" lon="0.91251">
        <ele>902.2</ele>
        <time>2022-05-23 06:32:00</time>
      </trkpt>
      <trkpt lat="42.34413" lon="0.9126">
        <ele>902</ele>
        <time>2022-05-23 06:32:01</time>
      </trkpt>
      <trkpt lat="42.34409" lon="0.91272">
        <ele>901.8</ele>
        <time>2022-05-23 06:32:02</time>
      </trkpt>
      <trkpt lat="42.34406" lon="0.91281">
        <ele>901.6</ele>
        <time>2022-05-23 06:32:03</time>
      </trkpt>
      <trkpt lat="42.34403" lon="0.91291">
        <ele>901.6</ele>
        <time>2022-05-23 06:32:04</time>
      </trkpt>
      <trkpt lat="42.344" lon="0.91301">
        <ele>901.4</ele>
        <time>2022-05-23 06:32:05</time>
      </trkpt>
      <trkpt lat="42.34396" lon="0.91311">
        <ele>901.2</ele>
        <time>2022-05-23 06:32:06</time>
      </trkpt>
      <trkpt lat="42.34393" lon="0.91321">
        <ele>901</ele>
        <time>2022-05-23 06:32:07</time>
      </trkpt>
      <trkpt lat="42.34389" lon="0.9133">
        <ele>900.8</ele>
        <time>2022-05-23 06:32:08</time>
      </trkpt>
      <trkpt lat="42.34386" lon="0.9134">
        <ele>900.6</ele>
        <time>2022-05-23 06:32:09</time>
      </trkpt>
      <trkpt lat="42.34383" lon="0.9135">
        <ele>900.4</ele>
        <time>2022-05-23 06:32:10</time>
      </trkpt>
      <trkpt lat="42.34379" lon="0.9136">
        <ele>900.4</ele>
        <time>2022-05-23 06:32:11</time>
      </trkpt>
      <trkpt lat="42.34376" lon="0.9137">
        <ele>900.2</ele>
        <time>2022-05-23 06:32:12</time>
      </trkpt>
      <trkpt lat="42.34372" lon="0.9138">
        <ele>900</ele>
        <time>2022-05-23 06:32:13</time>
      </trkpt>
      <trkpt lat="42.34368" lon="0.91389">
        <ele>899.8</ele>
        <time>2022-05-23 06:32:14</time>
      </trkpt>
      <trkpt lat="42.34364" lon="0.91399">
        <ele>899.6</ele>
        <time>2022-05-23 06:32:15</time>
      </trkpt>
      <trkpt lat="42.3436" lon="0.91409">
        <ele>899.6</ele>
        <time>2022-05-23 06:32:16</time>
      </trkpt>
      <trkpt lat="42.34356" lon="0.91419">
        <ele>899.4</ele>
        <time>2022-05-23 06:32:17</time>
      </trkpt>
      <trkpt lat="42.34352" lon="0.91429">
        <ele>899.2</ele>
        <time>2022-05-23 06:32:18</time>
      </trkpt>
      <trkpt lat="42.34348" lon="0.91438">
        <ele>899</ele>
        <time>2022-05-23 06:32:19</time>
      </trkpt>
      <trkpt lat="42.34344" lon="0.91448">
        <ele>898.8</ele>
        <time>2022-05-23 06:32:20</time>
      </trkpt>
      <trkpt lat="42.34339" lon="0.91458">
        <ele>898.6</ele>
        <time>2022-05-23 06:32:21</time>
      </trkpt>
      <trkpt lat="42.34335" lon="0.91468">
        <ele>898.4</ele>
        <time>2022-05-23 06:32:22</time>
      </trkpt>
      <trkpt lat="42.3433" lon="0.91477">
        <ele>898.2</ele>
        <time>2022-05-23 06:32:23</time>
      </trkpt>
      <trkpt lat="42.34326" lon="0.91487">
        <ele>898</ele>
        <time>2022-05-23 06:32:24</time>
      </trkpt>
      <trkpt lat="42.34321" lon="0.91497">
        <ele>897.8</ele>
        <time>2022-05-23 06:32:25</time>
      </trkpt>
      <trkpt lat="42.34316" lon="0.91506">
        <ele>897.6</ele>
        <time>2022-05-23 06:32:26</time>
      </trkpt>
      <trkpt lat="42.34311" lon="0.91516">
        <ele>897.4</ele>
        <time>2022-05-23 06:32:27</time>
      </trkpt>
      <trkpt lat="42.34306" lon="0.91525">
        <ele>897.2</ele>
        <time>2022-05-23 06:32:28</time>
      </trkpt>
      <trkpt lat="42.343" lon="0.91534">
        <ele>897</ele>
        <time>2022-05-23 06:32:29</time>
      </trkpt>
      <trkpt lat="42.34295" lon="0.91544">
        <ele>896.8</ele>
        <time>2022-05-23 06:32:30</time>
      </trkpt>
      <trkpt lat="42.34289" lon="0.91553">
        <ele>896.6</ele>
        <time>2022-05-23 06:32:31</time>
      </trkpt>
      <trkpt lat="42.34284" lon="0.91562">
        <ele>896.4</ele>
        <time>2022-05-23 06:32:32</time>
      </trkpt>
      <trkpt lat="42.34278" lon="0.9157">
        <ele>896.2</ele>
        <time>2022-05-23 06:32:33</time>
      </trkpt>
      <trkpt lat="42.34273" lon="0.91579">
        <ele>896</ele>
        <time>2022-05-23 06:32:34</time>
      </trkpt>
      <trkpt lat="42.34268" lon="0.91588">
        <ele>895.8</ele>
        <time>2022-05-23 06:32:35</time>
      </trkpt>
      <trkpt lat="42.34262" lon="0.91596">
        <ele>895.6</ele>
        <time>2022-05-23 06:32:36</time>
      </trkpt>
      <trkpt lat="42.34256" lon="0.91605">
        <ele>895.4</ele>
        <time>2022-05-23 06:32:37</time>
      </trkpt>
      <trkpt lat="42.34251" lon="0.91613">
        <ele>895.2</ele>
        <time>2022-05-23 06:32:38</time>
      </trkpt>
      <trkpt lat="42.34245" lon="0.91621">
        <ele>895</ele>
        <time>2022-05-23 06:32:39</time>
      </trkpt>
      <trkpt lat="42.34239" lon="0.91629">
        <ele>894.8</ele>
        <time>2022-05-23 06:32:40</time>
      </trkpt>
      <trkpt lat="42.34233" lon="0.91636">
        <ele>894.6</ele>
        <time>2022-05-23 06:32:41</time>
      </trkpt>
      <trkpt lat="42.34227" lon="0.91644">
        <ele>894.4</ele>
        <time>2022-05-23 06:32:42</time>
      </trkpt>
      <trkpt lat="42.34221" lon="0.91651">
        <ele>894.2</ele>
        <time>2022-05-23 06:32:43</time>
      </trkpt>
      <trkpt lat="42.34215" lon="0.91659">
        <ele>893.8</ele>
        <time>2022-05-23 06:32:44</time>
      </trkpt>
      <trkpt lat="42.34208" lon="0.91667">
        <ele>893.6</ele>
        <time>2022-05-23 06:32:45</time>
      </trkpt>
      <trkpt lat="42.34202" lon="0.91674">
        <ele>893.4</ele>
        <time>2022-05-23 06:32:46</time>
      </trkpt>
      <trkpt lat="42.34196" lon="0.91682">
        <ele>893.2</ele>
        <time>2022-05-23 06:32:47</time>
      </trkpt>
      <trkpt lat="42.3419" lon="0.9169">
        <ele>893</ele>
        <time>2022-05-23 06:32:48</time>
      </trkpt>
      <trkpt lat="42.34184" lon="0.91698">
        <ele>892.8</ele>
        <time>2022-05-23 06:32:49</time>
      </trkpt>
      <trkpt lat="42.34177" lon="0.91706">
        <ele>892.8</ele>
        <time>2022-05-23 06:32:50</time>
      </trkpt>
      <trkpt lat="42.34171" lon="0.91713">
        <ele>892.6</ele>
        <time>2022-05-23 06:32:51</time>
      </trkpt>
      <trkpt lat="42.34166" lon="0.91721">
        <ele>892.4</ele>
        <time>2022-05-23 06:32:52</time>
      </trkpt>
      <trkpt lat="42.3416" lon="0.91729">
        <ele>892.2</ele>
        <time>2022-05-23 06:32:53</time>
      </trkpt>
      <trkpt lat="42.34155" lon="0.91737">
        <ele>892.2</ele>
        <time>2022-05-23 06:32:54</time>
      </trkpt>
      <trkpt lat="42.34149" lon="0.91745">
        <ele>892</ele>
        <time>2022-05-23 06:32:55</time>
      </trkpt>
      <trkpt lat="42.34144" lon="0.91753">
        <ele>891.8</ele>
        <time>2022-05-23 06:32:56</time>
      </trkpt>
      <trkpt lat="42.34139" lon="0.91761">
        <ele>891.6</ele>
        <time>2022-05-23 06:32:57</time>
      </trkpt>
      <trkpt lat="42.34134" lon="0.9177">
        <ele>891.4</ele>
        <time>2022-05-23 06:32:58</time>
      </trkpt>
      <trkpt lat="42.34129" lon="0.91778">
        <ele>891</ele>
        <time>2022-05-23 06:32:59</time>
      </trkpt>
      <trkpt lat="42.34123" lon="0.91787">
        <ele>890.8</ele>
        <time>2022-05-23 06:33:00</time>
      </trkpt>
      <trkpt lat="42.34118" lon="0.91796">
        <ele>890.6</ele>
        <time>2022-05-23 06:33:01</time>
      </trkpt>
      <trkpt lat="42.34113" lon="0.91805">
        <ele>890.4</ele>
        <time>2022-05-23 06:33:02</time>
      </trkpt>
      <trkpt lat="42.34108" lon="0.91815">
        <ele>890.2</ele>
        <time>2022-05-23 06:33:03</time>
      </trkpt>
      <trkpt lat="42.34103" lon="0.91825">
        <ele>890</ele>
        <time>2022-05-23 06:33:04</time>
      </trkpt>
      <trkpt lat="42.34098" lon="0.91835">
        <ele>889.6</ele>
        <time>2022-05-23 06:33:05</time>
      </trkpt>
      <trkpt lat="42.34094" lon="0.91844">
        <ele>889.4</ele>
        <time>2022-05-23 06:33:06</time>
      </trkpt>
      <trkpt lat="42.34089" lon="0.91854">
        <ele>889.2</ele>
        <time>2022-05-23 06:33:07</time>
      </trkpt>
      <trkpt lat="42.34084" lon="0.91864">
        <ele>889</ele>
        <time>2022-05-23 06:33:08</time>
      </trkpt>
      <trkpt lat="42.3408" lon="0.91874">
        <ele>888.8</ele>
        <time>2022-05-23 06:33:09</time>
      </trkpt>
      <trkpt lat="42.34076" lon="0.91885">
        <ele>888.4</ele>
        <time>2022-05-23 06:33:10</time>
      </trkpt>
      <trkpt lat="42.34072" lon="0.91895">
        <ele>888.2</ele>
        <time>2022-05-23 06:33:11</time>
      </trkpt>
      <trkpt lat="42.34068" lon="0.91905">
        <ele>887.8</ele>
        <time>2022-05-23 06:33:12</time>
      </trkpt>
      <trkpt lat="42.34064" lon="0.91915">
        <ele>887.6</ele>
        <time>2022-05-23 06:33:13</time>
      </trkpt>
      <trkpt lat="42.3406" lon="0.91926">
        <ele>887.2</ele>
        <time>2022-05-23 06:33:14</time>
      </trkpt>
      <trkpt lat="42.34056" lon="0.91937">
        <ele>886.8</ele>
        <time>2022-05-23 06:33:15</time>
      </trkpt>
      <trkpt lat="42.34052" lon="0.91948">
        <ele>886.4</ele>
        <time>2022-05-23 06:33:16</time>
      </trkpt>
      <trkpt lat="42.34048" lon="0.91959">
        <ele>886.2</ele>
        <time>2022-05-23 06:33:17</time>
      </trkpt>
      <trkpt lat="42.34044" lon="0.9197">
        <ele>885.8</ele>
        <time>2022-05-23 06:33:18</time>
      </trkpt>
      <trkpt lat="42.34041" lon="0.9198">
        <ele>885.4</ele>
        <time>2022-05-23 06:33:19</time>
      </trkpt>
      <trkpt lat="42.34037" lon="0.91992">
        <ele>885</ele>
        <time>2022-05-23 06:33:20</time>
      </trkpt>
      <trkpt lat="42.34033" lon="0.92003">
        <ele>884.6</ele>
        <time>2022-05-23 06:33:21</time>
      </trkpt>
      <trkpt lat="42.34029" lon="0.92014">
        <ele>884.2</ele>
        <time>2022-05-23 06:33:22</time>
      </trkpt>
      <trkpt lat="42.34025" lon="0.92025">
        <ele>883.8</ele>
        <time>2022-05-23 06:33:23</time>
      </trkpt>
      <trkpt lat="42.34021" lon="0.92034">
        <ele>883.4</ele>
        <time>2022-05-23 06:33:24</time>
      </trkpt>
      <trkpt lat="42.34016" lon="0.92048">
        <ele>883</ele>
        <time>2022-05-23 06:33:25</time>
      </trkpt>
      <trkpt lat="42.34012" lon="0.92059">
        <ele>882.6</ele>
        <time>2022-05-23 06:33:26</time>
      </trkpt>
      <trkpt lat="42.34007" lon="0.92069">
        <ele>882.2</ele>
        <time>2022-05-23 06:33:27</time>
      </trkpt>
      <trkpt lat="42.34002" lon="0.92079">
        <ele>881.8</ele>
        <time>2022-05-23 06:33:28</time>
      </trkpt>
      <trkpt lat="42.33996" lon="0.9209">
        <ele>881.2</ele>
        <time>2022-05-23 06:33:29</time>
      </trkpt>
      <trkpt lat="42.33991" lon="0.92101">
        <ele>880.8</ele>
        <time>2022-05-23 06:33:30</time>
      </trkpt>
      <trkpt lat="42.33984" lon="0.92111">
        <ele>880.4</ele>
        <time>2022-05-23 06:33:31</time>
      </trkpt>
      <trkpt lat="42.33978" lon="0.9212">
        <ele>880</ele>
        <time>2022-05-23 06:33:32</time>
      </trkpt>
      <trkpt lat="42.33971" lon="0.92129">
        <ele>879.6</ele>
        <time>2022-05-23 06:33:33</time>
      </trkpt>
      <trkpt lat="42.33965" lon="0.92139">
        <ele>879.2</ele>
        <time>2022-05-23 06:33:34</time>
      </trkpt>
      <trkpt lat="42.33959" lon="0.92147">
        <ele>878.8</ele>
        <time>2022-05-23 06:33:35</time>
      </trkpt>
      <trkpt lat="42.33952" lon="0.92156">
        <ele>878.4</ele>
        <time>2022-05-23 06:33:36</time>
      </trkpt>
      <trkpt lat="42.33946" lon="0.92164">
        <ele>878</ele>
        <time>2022-05-23 06:33:37</time>
      </trkpt>
      <trkpt lat="42.33939" lon="0.92172">
        <ele>877.6</ele>
        <time>2022-05-23 06:33:38</time>
      </trkpt>
      <trkpt lat="42.33931" lon="0.9218">
        <ele>877.2</ele>
        <time>2022-05-23 06:33:39</time>
      </trkpt>
      <trkpt lat="42.33923" lon="0.92188">
        <ele>876.8</ele>
        <time>2022-05-23 06:33:40</time>
      </trkpt>
      <trkpt lat="42.33915" lon="0.92195">
        <ele>876.2</ele>
        <time>2022-05-23 06:33:41</time>
      </trkpt>
      <trkpt lat="42.33908" lon="0.92202">
        <ele>875.8</ele>
        <time>2022-05-23 06:33:42</time>
      </trkpt>
      <trkpt lat="42.339" lon="0.92208">
        <ele>875.6</ele>
        <time>2022-05-23 06:33:43</time>
      </trkpt>
      <trkpt lat="42.33891" lon="0.92215">
        <ele>875.2</ele>
        <time>2022-05-23 06:33:44</time>
      </trkpt>
      <trkpt lat="42.33882" lon="0.92222">
        <ele>874.8</ele>
        <time>2022-05-23 06:33:45</time>
      </trkpt>
      <trkpt lat="42.33874" lon="0.92226">
        <ele>874.4</ele>
        <time>2022-05-23 06:33:46</time>
      </trkpt>
      <trkpt lat="42.33865" lon="0.92231">
        <ele>874</ele>
        <time>2022-05-23 06:33:47</time>
      </trkpt>
      <trkpt lat="42.33855" lon="0.92236">
        <ele>873.6</ele>
        <time>2022-05-23 06:33:48</time>
      </trkpt>
      <trkpt lat="42.33847" lon="0.92242">
        <ele>873.2</ele>
        <time>2022-05-23 06:33:49</time>
      </trkpt>
      <trkpt lat="42.33837" lon="0.92246">
        <ele>873</ele>
        <time>2022-05-23 06:33:50</time>
      </trkpt>
      <trkpt lat="42.33828" lon="0.9225">
        <ele>872.6</ele>
        <time>2022-05-23 06:33:51</time>
      </trkpt>
      <trkpt lat="42.33819" lon="0.92253">
        <ele>872.2</ele>
        <time>2022-05-23 06:33:52</time>
      </trkpt>
      <trkpt lat="42.3381" lon="0.92256">
        <ele>872</ele>
        <time>2022-05-23 06:33:53</time>
      </trkpt>
      <trkpt lat="42.33802" lon="0.9226">
        <ele>871.6</ele>
        <time>2022-05-23 06:33:54</time>
      </trkpt>
      <trkpt lat="42.33792" lon="0.92265">
        <ele>871.2</ele>
        <time>2022-05-23 06:33:55</time>
      </trkpt>
      <trkpt lat="42.33782" lon="0.9227">
        <ele>870.8</ele>
        <time>2022-05-23 06:33:56</time>
      </trkpt>
      <trkpt lat="42.33773" lon="0.92274">
        <ele>870.4</ele>
        <time>2022-05-23 06:33:57</time>
      </trkpt>
      <trkpt lat="42.33764" lon="0.92277">
        <ele>870.2</ele>
        <time>2022-05-23 06:33:58</time>
      </trkpt>
      <trkpt lat="42.33755" lon="0.92281">
        <ele>869.8</ele>
        <time>2022-05-23 06:33:59</time>
      </trkpt>
      <trkpt lat="42.33745" lon="0.92286">
        <ele>869.4</ele>
        <time>2022-05-23 06:34:00</time>
      </trkpt>
      <trkpt lat="42.33736" lon="0.92291">
        <ele>869</ele>
        <time>2022-05-23 06:34:01</time>
      </trkpt>
      <trkpt lat="42.33727" lon="0.92297">
        <ele>868.6</ele>
        <time>2022-05-23 06:34:02</time>
      </trkpt>
      <trkpt lat="42.33718" lon="0.92303">
        <ele>868.4</ele>
        <time>2022-05-23 06:34:03</time>
      </trkpt>
      <trkpt lat="42.33709" lon="0.92309">
        <ele>868</ele>
        <time>2022-05-23 06:34:04</time>
      </trkpt>
      <trkpt lat="42.337" lon="0.92314">
        <ele>867.6</ele>
        <time>2022-05-23 06:34:05</time>
      </trkpt>
      <trkpt lat="42.33692" lon="0.92321">
        <ele>867.4</ele>
        <time>2022-05-23 06:34:06</time>
      </trkpt>
      <trkpt lat="42.33683" lon="0.92327">
        <ele>867.2</ele>
        <time>2022-05-23 06:34:07</time>
      </trkpt>
      <trkpt lat="42.33675" lon="0.92334">
        <ele>867</ele>
        <time>2022-05-23 06:34:08</time>
      </trkpt>
      <trkpt lat="42.33667" lon="0.9234">
        <ele>866.6</ele>
        <time>2022-05-23 06:34:09</time>
      </trkpt>
      <trkpt lat="42.33658" lon="0.92347">
        <ele>866.4</ele>
        <time>2022-05-23 06:34:10</time>
      </trkpt>
      <trkpt lat="42.3365" lon="0.92354">
        <ele>866.2</ele>
        <time>2022-05-23 06:34:11</time>
      </trkpt>
      <trkpt lat="42.33642" lon="0.92361">
        <ele>866.2</ele>
        <time>2022-05-23 06:34:12</time>
      </trkpt>
      <trkpt lat="42.33635" lon="0.92369">
        <ele>866</ele>
        <time>2022-05-23 06:34:13</time>
      </trkpt>
      <trkpt lat="42.33627" lon="0.92377">
        <ele>865.8</ele>
        <time>2022-05-23 06:34:14</time>
      </trkpt>
      <trkpt lat="42.33621" lon="0.92386">
        <ele>865.6</ele>
        <time>2022-05-23 06:34:15</time>
      </trkpt>
      <trkpt lat="42.33614" lon="0.92394">
        <ele>865.4</ele>
        <time>2022-05-23 06:34:16</time>
      </trkpt>
      <trkpt lat="42.33607" lon="0.92403">
        <ele>865.2</ele>
        <time>2022-05-23 06:34:17</time>
      </trkpt>
      <trkpt lat="42.33601" lon="0.92412">
        <ele>865</ele>
        <time>2022-05-23 06:34:18</time>
      </trkpt>
      <trkpt lat="42.33594" lon="0.9242">
        <ele>864.8</ele>
        <time>2022-05-23 06:34:19</time>
      </trkpt>
      <trkpt lat="42.33588" lon="0.9243">
        <ele>864.8</ele>
        <time>2022-05-23 06:34:20</time>
      </trkpt>
      <trkpt lat="42.33582" lon="0.92439">
        <ele>864.6</ele>
        <time>2022-05-23 06:34:21</time>
      </trkpt>
      <trkpt lat="42.33576" lon="0.92449">
        <ele>864.4</ele>
        <time>2022-05-23 06:34:22</time>
      </trkpt>
      <trkpt lat="42.33571" lon="0.92459">
        <ele>864.2</ele>
        <time>2022-05-23 06:34:23</time>
      </trkpt>
      <trkpt lat="42.33566" lon="0.92469">
        <ele>864</ele>
        <time>2022-05-23 06:34:24</time>
      </trkpt>
      <trkpt lat="42.33561" lon="0.92479">
        <ele>863.8</ele>
        <time>2022-05-23 06:34:25</time>
      </trkpt>
      <trkpt lat="42.33556" lon="0.92489">
        <ele>863.6</ele>
        <time>2022-05-23 06:34:26</time>
      </trkpt>
      <trkpt lat="42.33552" lon="0.925">
        <ele>863.4</ele>
        <time>2022-05-23 06:34:27</time>
      </trkpt>
      <trkpt lat="42.33547" lon="0.9251">
        <ele>863.2</ele>
        <time>2022-05-23 06:34:28</time>
      </trkpt>
      <trkpt lat="42.33544" lon="0.92522">
        <ele>863</ele>
        <time>2022-05-23 06:34:29</time>
      </trkpt>
      <trkpt lat="42.33539" lon="0.92532">
        <ele>862.8</ele>
        <time>2022-05-23 06:34:30</time>
      </trkpt>
      <trkpt lat="42.33536" lon="0.92543">
        <ele>862.6</ele>
        <time>2022-05-23 06:34:31</time>
      </trkpt>
      <trkpt lat="42.33532" lon="0.92555">
        <ele>862.4</ele>
        <time>2022-05-23 06:34:32</time>
      </trkpt>
      <trkpt lat="42.33528" lon="0.92566">
        <ele>862.2</ele>
        <time>2022-05-23 06:34:33</time>
      </trkpt>
      <trkpt lat="42.33524" lon="0.92575">
        <ele>862</ele>
        <time>2022-05-23 06:34:34</time>
      </trkpt>
      <trkpt lat="42.3352" lon="0.92586">
        <ele>861.8</ele>
        <time>2022-05-23 06:34:35</time>
      </trkpt>
      <trkpt lat="42.33517" lon="0.92598">
        <ele>861.6</ele>
        <time>2022-05-23 06:34:36</time>
      </trkpt>
      <trkpt lat="42.33514" lon="0.92609">
        <ele>861.4</ele>
        <time>2022-05-23 06:34:37</time>
      </trkpt>
      <trkpt lat="42.33512" lon="0.92621">
        <ele>861.2</ele>
        <time>2022-05-23 06:34:38</time>
      </trkpt>
      <trkpt lat="42.33509" lon="0.92632">
        <ele>861</ele>
        <time>2022-05-23 06:34:39</time>
      </trkpt>
      <trkpt lat="42.33506" lon="0.92644">
        <ele>860.8</ele>
        <time>2022-05-23 06:34:40</time>
      </trkpt>
      <trkpt lat="42.33503" lon="0.92655">
        <ele>860.6</ele>
        <time>2022-05-23 06:34:41</time>
      </trkpt>
      <trkpt lat="42.33501" lon="0.92665">
        <ele>860.4</ele>
        <time>2022-05-23 06:34:42</time>
      </trkpt>
      <trkpt lat="42.33498" lon="0.92676">
        <ele>860.2</ele>
        <time>2022-05-23 06:34:43</time>
      </trkpt>
      <trkpt lat="42.33496" lon="0.92687">
        <ele>860</ele>
        <time>2022-05-23 06:34:44</time>
      </trkpt>
      <trkpt lat="42.33493" lon="0.92697">
        <ele>859.8</ele>
        <time>2022-05-23 06:34:45</time>
      </trkpt>
      <trkpt lat="42.33491" lon="0.92708">
        <ele>859.6</ele>
        <time>2022-05-23 06:34:46</time>
      </trkpt>
      <trkpt lat="42.33488" lon="0.92718">
        <ele>859.4</ele>
        <time>2022-05-23 06:34:47</time>
      </trkpt>
      <trkpt lat="42.33484" lon="0.92729">
        <ele>859.2</ele>
        <time>2022-05-23 06:34:48</time>
      </trkpt>
      <trkpt lat="42.33481" lon="0.92739">
        <ele>859</ele>
        <time>2022-05-23 06:34:49</time>
      </trkpt>
      <trkpt lat="42.33477" lon="0.92749">
        <ele>858.8</ele>
        <time>2022-05-23 06:34:50</time>
      </trkpt>
      <trkpt lat="42.33473" lon="0.92759">
        <ele>858.6</ele>
        <time>2022-05-23 06:34:51</time>
      </trkpt>
      <trkpt lat="42.33469" lon="0.92769">
        <ele>858.4</ele>
        <time>2022-05-23 06:34:52</time>
      </trkpt>
      <trkpt lat="42.33465" lon="0.92779">
        <ele>858.2</ele>
        <time>2022-05-23 06:34:53</time>
      </trkpt>
      <trkpt lat="42.33461" lon="0.92789">
        <ele>858</ele>
        <time>2022-05-23 06:34:54</time>
      </trkpt>
      <trkpt lat="42.33456" lon="0.92798">
        <ele>857.8</ele>
        <time>2022-05-23 06:34:55</time>
      </trkpt>
      <trkpt lat="42.33452" lon="0.92807">
        <ele>857.8</ele>
        <time>2022-05-23 06:34:56</time>
      </trkpt>
      <trkpt lat="42.33447" lon="0.92816">
        <ele>857.6</ele>
        <time>2022-05-23 06:34:57</time>
      </trkpt>
      <trkpt lat="42.33442" lon="0.92824">
        <ele>857.4</ele>
        <time>2022-05-23 06:34:58</time>
      </trkpt>
      <trkpt lat="42.33437" lon="0.92832">
        <ele>857.2</ele>
        <time>2022-05-23 06:34:59</time>
      </trkpt>
      <trkpt lat="42.33431" lon="0.92841">
        <ele>857.2</ele>
        <time>2022-05-23 06:35:00</time>
      </trkpt>
      <trkpt lat="42.33426" lon="0.92849">
        <ele>857</ele>
        <time>2022-05-23 06:35:01</time>
      </trkpt>
      <trkpt lat="42.3342" lon="0.92856">
        <ele>856.8</ele>
        <time>2022-05-23 06:35:02</time>
      </trkpt>
      <trkpt lat="42.33415" lon="0.92864">
        <ele>856.8</ele>
        <time>2022-05-23 06:35:03</time>
      </trkpt>
      <trkpt lat="42.33409" lon="0.92871">
        <ele>856.6</ele>
        <time>2022-05-23 06:35:04</time>
      </trkpt>
      <trkpt lat="42.33403" lon="0.92879">
        <ele>856.6</ele>
        <time>2022-05-23 06:35:05</time>
      </trkpt>
      <trkpt lat="42.33397" lon="0.92886">
        <ele>856.4</ele>
        <time>2022-05-23 06:35:06</time>
      </trkpt>
      <trkpt lat="42.33392" lon="0.92893">
        <ele>856.2</ele>
        <time>2022-05-23 06:35:07</time>
      </trkpt>
      <trkpt lat="42.33386" lon="0.92901">
        <ele>856</ele>
        <time>2022-05-23 06:35:08</time>
      </trkpt>
      <trkpt lat="42.3338" lon="0.92908">
        <ele>856</ele>
        <time>2022-05-23 06:35:09</time>
      </trkpt>
      <trkpt lat="42.33374" lon="0.92916">
        <ele>855.8</ele>
        <time>2022-05-23 06:35:10</time>
      </trkpt>
      <trkpt lat="42.33368" lon="0.92923">
        <ele>855.6</ele>
        <time>2022-05-23 06:35:11</time>
      </trkpt>
      <trkpt lat="42.33362" lon="0.92931">
        <ele>855.6</ele>
        <time>2022-05-23 06:35:12</time>
      </trkpt>
      <trkpt lat="42.33357" lon="0.92939">
        <ele>855.4</ele>
        <time>2022-05-23 06:35:13</time>
      </trkpt>
      <trkpt lat="42.33351" lon="0.92946">
        <ele>855.2</ele>
        <time>2022-05-23 06:35:14</time>
      </trkpt>
      <trkpt lat="42.33346" lon="0.92955">
        <ele>855</ele>
        <time>2022-05-23 06:35:15</time>
      </trkpt>
      <trkpt lat="42.33341" lon="0.92963">
        <ele>854.8</ele>
        <time>2022-05-23 06:35:16</time>
      </trkpt>
      <trkpt lat="42.33337" lon="0.92971">
        <ele>854.6</ele>
        <time>2022-05-23 06:35:17</time>
      </trkpt>
      <trkpt lat="42.33332" lon="0.92981">
        <ele>854.4</ele>
        <time>2022-05-23 06:35:18</time>
      </trkpt>
      <trkpt lat="42.33328" lon="0.9299">
        <ele>854</ele>
        <time>2022-05-23 06:35:19</time>
      </trkpt>
      <trkpt lat="42.33324" lon="0.93">
        <ele>853.8</ele>
        <time>2022-05-23 06:35:20</time>
      </trkpt>
      <trkpt lat="42.33319" lon="0.9301">
        <ele>853.6</ele>
        <time>2022-05-23 06:35:21</time>
      </trkpt>
      <trkpt lat="42.33315" lon="0.9302">
        <ele>853.2</ele>
        <time>2022-05-23 06:35:22</time>
      </trkpt>
      <trkpt lat="42.33311" lon="0.9303">
        <ele>853</ele>
        <time>2022-05-23 06:35:23</time>
      </trkpt>
      <trkpt lat="42.33307" lon="0.9304">
        <ele>852.6</ele>
        <time>2022-05-23 06:35:24</time>
      </trkpt>
      <trkpt lat="42.33303" lon="0.9305">
        <ele>852.4</ele>
        <time>2022-05-23 06:35:25</time>
      </trkpt>
      <trkpt lat="42.33299" lon="0.9306">
        <ele>852.2</ele>
        <time>2022-05-23 06:35:26</time>
      </trkpt>
      <trkpt lat="42.33296" lon="0.93071">
        <ele>851.8</ele>
        <time>2022-05-23 06:35:27</time>
      </trkpt>
      <trkpt lat="42.33292" lon="0.93081">
        <ele>851.4</ele>
        <time>2022-05-23 06:35:28</time>
      </trkpt>
      <trkpt lat="42.33288" lon="0.93091">
        <ele>851.2</ele>
        <time>2022-05-23 06:35:29</time>
      </trkpt>
      <trkpt lat="42.33283" lon="0.93102">
        <ele>850.8</ele>
        <time>2022-05-23 06:35:30</time>
      </trkpt>
      <trkpt lat="42.33279" lon="0.93112">
        <ele>850.6</ele>
        <time>2022-05-23 06:35:31</time>
      </trkpt>
      <trkpt lat="42.33274" lon="0.93122">
        <ele>850.2</ele>
        <time>2022-05-23 06:35:32</time>
      </trkpt>
      <trkpt lat="42.33269" lon="0.93132">
        <ele>849.8</ele>
        <time>2022-05-23 06:35:33</time>
      </trkpt>
      <trkpt lat="42.33264" lon="0.93142">
        <ele>849.6</ele>
        <time>2022-05-23 06:35:34</time>
      </trkpt>
      <trkpt lat="42.33259" lon="0.93151">
        <ele>849.2</ele>
        <time>2022-05-23 06:35:35</time>
      </trkpt>
      <trkpt lat="42.33253" lon="0.9316">
        <ele>849</ele>
        <time>2022-05-23 06:35:36</time>
      </trkpt>
      <trkpt lat="42.33247" lon="0.93169">
        <ele>848.8</ele>
        <time>2022-05-23 06:35:37</time>
      </trkpt>
      <trkpt lat="42.33241" lon="0.93178">
        <ele>848.4</ele>
        <time>2022-05-23 06:35:38</time>
      </trkpt>
      <trkpt lat="42.33234" lon="0.93186">
        <ele>848</ele>
        <time>2022-05-23 06:35:39</time>
      </trkpt>
      <trkpt lat="42.33228" lon="0.93194">
        <ele>847.8</ele>
        <time>2022-05-23 06:35:40</time>
      </trkpt>
      <trkpt lat="42.33221" lon="0.93202">
        <ele>847.4</ele>
        <time>2022-05-23 06:35:41</time>
      </trkpt>
      <trkpt lat="42.33214" lon="0.93209">
        <ele>847.2</ele>
        <time>2022-05-23 06:35:42</time>
      </trkpt>
      <trkpt lat="42.33206" lon="0.93217">
        <ele>846.8</ele>
        <time>2022-05-23 06:35:43</time>
      </trkpt>
      <trkpt lat="42.33198" lon="0.93224">
        <ele>846.6</ele>
        <time>2022-05-23 06:35:44</time>
      </trkpt>
      <trkpt lat="42.3319" lon="0.9323">
        <ele>846.2</ele>
        <time>2022-05-23 06:35:45</time>
      </trkpt>
      <trkpt lat="42.33182" lon="0.93237">
        <ele>845.8</ele>
        <time>2022-05-23 06:35:46</time>
      </trkpt>
      <trkpt lat="42.33174" lon="0.93243">
        <ele>845.6</ele>
        <time>2022-05-23 06:35:47</time>
      </trkpt>
      <trkpt lat="42.33166" lon="0.93249">
        <ele>845.2</ele>
        <time>2022-05-23 06:35:48</time>
      </trkpt>
      <trkpt lat="42.33157" lon="0.93254">
        <ele>845</ele>
        <time>2022-05-23 06:35:49</time>
      </trkpt>
      <trkpt lat="42.33148" lon="0.9326">
        <ele>844.6</ele>
        <time>2022-05-23 06:35:50</time>
      </trkpt>
      <trkpt lat="42.33139" lon="0.93265">
        <ele>844.4</ele>
        <time>2022-05-23 06:35:51</time>
      </trkpt>
      <trkpt lat="42.33131" lon="0.93269">
        <ele>844</ele>
        <time>2022-05-23 06:35:52</time>
      </trkpt>
      <trkpt lat="42.33121" lon="0.93272">
        <ele>843.8</ele>
        <time>2022-05-23 06:35:53</time>
      </trkpt>
      <trkpt lat="42.33112" lon="0.93275">
        <ele>843.4</ele>
        <time>2022-05-23 06:35:54</time>
      </trkpt>
      <trkpt lat="42.33103" lon="0.93278">
        <ele>843.2</ele>
        <time>2022-05-23 06:35:55</time>
      </trkpt>
      <trkpt lat="42.33094" lon="0.9328">
        <ele>842.8</ele>
        <time>2022-05-23 06:35:56</time>
      </trkpt>
      <trkpt lat="42.33084" lon="0.93282">
        <ele>842.4</ele>
        <time>2022-05-23 06:35:57</time>
      </trkpt>
      <trkpt lat="42.33076" lon="0.93284">
        <ele>842.2</ele>
        <time>2022-05-23 06:35:58</time>
      </trkpt>
      <trkpt lat="42.33066" lon="0.93285">
        <ele>841.8</ele>
        <time>2022-05-23 06:35:59</time>
      </trkpt>
      <trkpt lat="42.33058" lon="0.93287">
        <ele>841.6</ele>
        <time>2022-05-23 06:36:00</time>
      </trkpt>
      <trkpt lat="42.33049" lon="0.93289">
        <ele>841.2</ele>
        <time>2022-05-23 06:36:01</time>
      </trkpt>
      <trkpt lat="42.3304" lon="0.9329">
        <ele>841</ele>
        <time>2022-05-23 06:36:02</time>
      </trkpt>
      <trkpt lat="42.33031" lon="0.93292">
        <ele>840.8</ele>
        <time>2022-05-23 06:36:03</time>
      </trkpt>
      <trkpt lat="42.33022" lon="0.93293">
        <ele>840.6</ele>
        <time>2022-05-23 06:36:04</time>
      </trkpt>
      <trkpt lat="42.33014" lon="0.93295">
        <ele>840.2</ele>
        <time>2022-05-23 06:36:05</time>
      </trkpt>
      <trkpt lat="42.33005" lon="0.93296">
        <ele>840</ele>
        <time>2022-05-23 06:36:06</time>
      </trkpt>
      <trkpt lat="42.32996" lon="0.93297">
        <ele>839.6</ele>
        <time>2022-05-23 06:36:07</time>
      </trkpt>
      <trkpt lat="42.32988" lon="0.93299">
        <ele>839.4</ele>
        <time>2022-05-23 06:36:08</time>
      </trkpt>
      <trkpt lat="42.32978" lon="0.933">
        <ele>839</ele>
        <time>2022-05-23 06:36:09</time>
      </trkpt>
      <trkpt lat="42.32969" lon="0.93302">
        <ele>838.8</ele>
        <time>2022-05-23 06:36:10</time>
      </trkpt>
      <trkpt lat="42.3296" lon="0.93303">
        <ele>838.4</ele>
        <time>2022-05-23 06:36:11</time>
      </trkpt>
      <trkpt lat="42.32951" lon="0.93305">
        <ele>838.2</ele>
        <time>2022-05-23 06:36:12</time>
      </trkpt>
      <trkpt lat="42.32942" lon="0.93307">
        <ele>837.8</ele>
        <time>2022-05-23 06:36:13</time>
      </trkpt>
      <trkpt lat="42.32933" lon="0.93309">
        <ele>837.6</ele>
        <time>2022-05-23 06:36:14</time>
      </trkpt>
      <trkpt lat="42.32923" lon="0.93311">
        <ele>837.4</ele>
        <time>2022-05-23 06:36:15</time>
      </trkpt>
      <trkpt lat="42.32914" lon="0.93314">
        <ele>837.2</ele>
        <time>2022-05-23 06:36:16</time>
      </trkpt>
      <trkpt lat="42.32905" lon="0.93318">
        <ele>837</ele>
        <time>2022-05-23 06:36:17</time>
      </trkpt>
      <trkpt lat="42.32896" lon="0.93322">
        <ele>836.6</ele>
        <time>2022-05-23 06:36:18</time>
      </trkpt>
      <trkpt lat="42.32888" lon="0.93326">
        <ele>836.4</ele>
        <time>2022-05-23 06:36:19</time>
      </trkpt>
      <trkpt lat="42.32879" lon="0.93327">
        <ele>836</ele>
        <time>2022-05-23 06:36:20</time>
      </trkpt>
      <trkpt lat="42.32871" lon="0.93329">
        <ele>835.8</ele>
        <time>2022-05-23 06:36:21</time>
      </trkpt>
      <trkpt lat="42.32863" lon="0.93332">
        <ele>835.4</ele>
        <time>2022-05-23 06:36:22</time>
      </trkpt>
      <trkpt lat="42.32856" lon="0.93337">
        <ele>835.2</ele>
        <time>2022-05-23 06:36:23</time>
      </trkpt>
      <trkpt lat="42.32848" lon="0.9334">
        <ele>834.8</ele>
        <time>2022-05-23 06:36:24</time>
      </trkpt>
      <trkpt lat="42.32841" lon="0.93345">
        <ele>834.6</ele>
        <time>2022-05-23 06:36:25</time>
      </trkpt>
      <trkpt lat="42.32833" lon="0.93351">
        <ele>834.4</ele>
        <time>2022-05-23 06:36:26</time>
      </trkpt>
      <trkpt lat="42.32825" lon="0.93357">
        <ele>834</ele>
        <time>2022-05-23 06:36:27</time>
      </trkpt>
      <trkpt lat="42.32817" lon="0.93365">
        <ele>833.6</ele>
        <time>2022-05-23 06:36:28</time>
      </trkpt>
      <trkpt lat="42.32809" lon="0.93372">
        <ele>833.4</ele>
        <time>2022-05-23 06:36:29</time>
      </trkpt>
      <trkpt lat="42.32802" lon="0.9338">
        <ele>833</ele>
        <time>2022-05-23 06:36:30</time>
      </trkpt>
      <trkpt lat="42.32794" lon="0.93387">
        <ele>832.8</ele>
        <time>2022-05-23 06:36:31</time>
      </trkpt>
      <trkpt lat="42.32787" lon="0.93396">
        <ele>832.4</ele>
        <time>2022-05-23 06:36:32</time>
      </trkpt>
      <trkpt lat="42.3278" lon="0.93404">
        <ele>832.2</ele>
        <time>2022-05-23 06:36:33</time>
      </trkpt>
      <trkpt lat="42.32773" lon="0.93414">
        <ele>831.8</ele>
        <time>2022-05-23 06:36:34</time>
      </trkpt>
      <trkpt lat="42.32766" lon="0.93423">
        <ele>831.6</ele>
        <time>2022-05-23 06:36:35</time>
      </trkpt>
      <trkpt lat="42.3276" lon="0.93431">
        <ele>831.2</ele>
        <time>2022-05-23 06:36:36</time>
      </trkpt>
      <trkpt lat="42.32754" lon="0.93441">
        <ele>831</ele>
        <time>2022-05-23 06:36:37</time>
      </trkpt>
      <trkpt lat="42.32748" lon="0.93451">
        <ele>830.6</ele>
        <time>2022-05-23 06:36:38</time>
      </trkpt>
      <trkpt lat="42.32743" lon="0.9346">
        <ele>830.4</ele>
        <time>2022-05-23 06:36:39</time>
      </trkpt>
      <trkpt lat="42.32738" lon="0.93471">
        <ele>830</ele>
        <time>2022-05-23 06:36:40</time>
      </trkpt>
      <trkpt lat="42.32733" lon="0.9348">
        <ele>829.8</ele>
        <time>2022-05-23 06:36:41</time>
      </trkpt>
      <trkpt lat="42.32728" lon="0.93491">
        <ele>829.4</ele>
        <time>2022-05-23 06:36:42</time>
      </trkpt>
      <trkpt lat="42.32724" lon="0.93501">
        <ele>829.2</ele>
        <time>2022-05-23 06:36:43</time>
      </trkpt>
      <trkpt lat="42.32719" lon="0.93512">
        <ele>828.8</ele>
        <time>2022-05-23 06:36:44</time>
      </trkpt>
      <trkpt lat="42.32715" lon="0.93523">
        <ele>828.4</ele>
        <time>2022-05-23 06:36:45</time>
      </trkpt>
      <trkpt lat="42.32711" lon="0.93533">
        <ele>828</ele>
        <time>2022-05-23 06:36:46</time>
      </trkpt>
      <trkpt lat="42.32706" lon="0.93543">
        <ele>827.8</ele>
        <time>2022-05-23 06:36:47</time>
      </trkpt>
      <trkpt lat="42.32702" lon="0.93554">
        <ele>827.6</ele>
        <time>2022-05-23 06:36:48</time>
      </trkpt>
      <trkpt lat="42.32698" lon="0.93564">
        <ele>827.2</ele>
        <time>2022-05-23 06:36:49</time>
      </trkpt>
      <trkpt lat="42.32693" lon="0.93574">
        <ele>827</ele>
        <time>2022-05-23 06:36:50</time>
      </trkpt>
      <trkpt lat="42.32689" lon="0.93584">
        <ele>826.8</ele>
        <time>2022-05-23 06:36:51</time>
      </trkpt>
      <trkpt lat="42.32684" lon="0.93593">
        <ele>826.6</ele>
        <time>2022-05-23 06:36:52</time>
      </trkpt>
      <trkpt lat="42.3268" lon="0.93603">
        <ele>826.4</ele>
        <time>2022-05-23 06:36:53</time>
      </trkpt>
      <trkpt lat="42.32675" lon="0.93612">
        <ele>826.2</ele>
        <time>2022-05-23 06:36:54</time>
      </trkpt>
      <trkpt lat="42.32671" lon="0.93622">
        <ele>825.8</ele>
        <time>2022-05-23 06:36:55</time>
      </trkpt>
      <trkpt lat="42.32666" lon="0.93631">
        <ele>825.6</ele>
        <time>2022-05-23 06:36:56</time>
      </trkpt>
      <trkpt lat="42.32661" lon="0.93641">
        <ele>825.4</ele>
        <time>2022-05-23 06:36:57</time>
      </trkpt>
      <trkpt lat="42.32656" lon="0.9365">
        <ele>825.2</ele>
        <time>2022-05-23 06:36:58</time>
      </trkpt>
      <trkpt lat="42.3265" lon="0.93658">
        <ele>825</ele>
        <time>2022-05-23 06:36:59</time>
      </trkpt>
      <trkpt lat="42.32643" lon="0.93666">
        <ele>824.8</ele>
        <time>2022-05-23 06:37:00</time>
      </trkpt>
      <trkpt lat="42.32637" lon="0.93674">
        <ele>824.6</ele>
        <time>2022-05-23 06:37:01</time>
      </trkpt>
      <trkpt lat="42.3263" lon="0.9368">
        <ele>824.4</ele>
        <time>2022-05-23 06:37:02</time>
      </trkpt>
      <trkpt lat="42.32623" lon="0.93687">
        <ele>824.4</ele>
        <time>2022-05-23 06:37:03</time>
      </trkpt>
      <trkpt lat="42.32616" lon="0.93692">
        <ele>824.2</ele>
        <time>2022-05-23 06:37:04</time>
      </trkpt>
      <trkpt lat="42.32608" lon="0.93698">
        <ele>824.2</ele>
        <time>2022-05-23 06:37:05</time>
      </trkpt>
      <trkpt lat="42.326" lon="0.93702">
        <ele>824</ele>
        <time>2022-05-23 06:37:06</time>
      </trkpt>
      <trkpt lat="42.32592" lon="0.93705">
        <ele>824</ele>
        <time>2022-05-23 06:37:07</time>
      </trkpt>
      <trkpt lat="42.32585" lon="0.93708">
        <ele>823.8</ele>
        <time>2022-05-23 06:37:08</time>
      </trkpt>
      <trkpt lat="42.32577" lon="0.93708">
        <ele>823.8</ele>
        <time>2022-05-23 06:37:09</time>
      </trkpt>
      <trkpt lat="42.32569" lon="0.93707">
        <ele>823.6</ele>
        <time>2022-05-23 06:37:10</time>
      </trkpt>
      <trkpt lat="42.32562" lon="0.93704">
        <ele>823.4</ele>
        <time>2022-05-23 06:37:11</time>
      </trkpt>
      <trkpt lat="42.32555" lon="0.937">
        <ele>823.4</ele>
        <time>2022-05-23 06:37:12</time>
      </trkpt>
      <trkpt lat="42.32549" lon="0.93695">
        <ele>823.4</ele>
        <time>2022-05-23 06:37:13</time>
      </trkpt>
      <trkpt lat="42.32543" lon="0.93691">
        <ele>823.6</ele>
        <time>2022-05-23 06:37:14</time>
      </trkpt>
      <trkpt lat="42.32538" lon="0.93685">
        <ele>823.6</ele>
        <time>2022-05-23 06:37:15</time>
      </trkpt>
      <trkpt lat="42.32532" lon="0.93681">
        <ele>823.6</ele>
        <time>2022-05-23 06:37:16</time>
      </trkpt>
      <trkpt lat="42.32527" lon="0.93676">
        <ele>823.6</ele>
        <time>2022-05-23 06:37:17</time>
      </trkpt>
      <trkpt lat="42.32522" lon="0.9367">
        <ele>823.4</ele>
        <time>2022-05-23 06:37:18</time>
      </trkpt>
      <trkpt lat="42.32517" lon="0.93664">
        <ele>823.4</ele>
        <time>2022-05-23 06:37:19</time>
      </trkpt>
      <trkpt lat="42.32512" lon="0.93658">
        <ele>823.4</ele>
        <time>2022-05-23 06:37:20</time>
      </trkpt>
      <trkpt lat="42.32507" lon="0.93653">
        <ele>823.4</ele>
        <time>2022-05-23 06:37:21</time>
      </trkpt>
      <trkpt lat="42.32503" lon="0.93648">
        <ele>823.4</ele>
        <time>2022-05-23 06:37:22</time>
      </trkpt>
      <trkpt lat="42.32498" lon="0.93644">
        <ele>823.4</ele>
        <time>2022-05-23 06:37:23</time>
      </trkpt>
      <trkpt lat="42.32493" lon="0.93641">
        <ele>823.4</ele>
        <time>2022-05-23 06:37:24</time>
      </trkpt>
      <trkpt lat="42.32487" lon="0.93639">
        <ele>823.4</ele>
        <time>2022-05-23 06:37:25</time>
      </trkpt>
      <trkpt lat="42.32481" lon="0.93638">
        <ele>823.2</ele>
        <time>2022-05-23 06:37:26</time>
      </trkpt>
      <trkpt lat="42.32475" lon="0.93638">
        <ele>823.2</ele>
        <time>2022-05-23 06:37:27</time>
      </trkpt>
      <trkpt lat="42.3247" lon="0.9364">
        <ele>823</ele>
        <time>2022-05-23 06:37:28</time>
      </trkpt>
      <trkpt lat="42.32464" lon="0.93643">
        <ele>822.8</ele>
        <time>2022-05-23 06:37:29</time>
      </trkpt>
      <trkpt lat="42.32459" lon="0.93645">
        <ele>822.6</ele>
        <time>2022-05-23 06:37:30</time>
      </trkpt>
      <trkpt lat="42.32453" lon="0.93648">
        <ele>822.6</ele>
        <time>2022-05-23 06:37:31</time>
      </trkpt>
      <trkpt lat="42.32447" lon="0.93651">
        <ele>822.4</ele>
        <time>2022-05-23 06:37:32</time>
      </trkpt>
      <trkpt lat="42.32441" lon="0.93654">
        <ele>822.2</ele>
        <time>2022-05-23 06:37:33</time>
      </trkpt>
      <trkpt lat="42.32435" lon="0.93656">
        <ele>822</ele>
        <time>2022-05-23 06:37:34</time>
      </trkpt>
      <trkpt lat="42.32428" lon="0.93658">
        <ele>822</ele>
        <time>2022-05-23 06:37:35</time>
      </trkpt>
      <trkpt lat="42.32422" lon="0.93659">
        <ele>822</ele>
        <time>2022-05-23 06:37:36</time>
      </trkpt>
      <trkpt lat="42.32417" lon="0.9366">
        <ele>822</ele>
        <time>2022-05-23 06:37:37</time>
      </trkpt>
      <trkpt lat="42.32412" lon="0.93661">
        <ele>822</ele>
        <time>2022-05-23 06:37:38</time>
      </trkpt>
      <trkpt lat="42.32406" lon="0.93662">
        <ele>822</ele>
        <time>2022-05-23 06:37:39</time>
      </trkpt>
      <trkpt lat="42.32401" lon="0.93662">
        <ele>822</ele>
        <time>2022-05-23 06:37:40</time>
      </trkpt>
      <trkpt lat="42.32396" lon="0.93663">
        <ele>822</ele>
        <time>2022-05-23 06:37:41</time>
      </trkpt>
      <trkpt lat="42.32392" lon="0.93664">
        <ele>822</ele>
        <time>2022-05-23 06:37:42</time>
      </trkpt>
      <trkpt lat="42.32387" lon="0.93664">
        <ele>822</ele>
        <time>2022-05-23 06:37:43</time>
      </trkpt>
      <trkpt lat="42.32383" lon="0.93666">
        <ele>822</ele>
        <time>2022-05-23 06:37:44</time>
      </trkpt>
      <trkpt lat="42.32379" lon="0.93666">
        <ele>822.2</ele>
        <time>2022-05-23 06:37:45</time>
      </trkpt>
      <trkpt lat="42.32374" lon="0.93667">
        <ele>822.2</ele>
        <time>2022-05-23 06:37:46</time>
      </trkpt>
      <trkpt lat="42.3237" lon="0.93667">
        <ele>822.2</ele>
        <time>2022-05-23 06:37:47</time>
      </trkpt>
      <trkpt lat="42.32366" lon="0.93668">
        <ele>822.4</ele>
        <time>2022-05-23 06:37:48</time>
      </trkpt>
      <trkpt lat="42.32361" lon="0.93668">
        <ele>822.4</ele>
        <time>2022-05-23 06:37:49</time>
      </trkpt>
      <trkpt lat="42.32357" lon="0.93669">
        <ele>822.4</ele>
        <time>2022-05-23 06:37:50</time>
      </trkpt>
      <trkpt lat="42.32353" lon="0.93669">
        <ele>822.6</ele>
        <time>2022-05-23 06:37:51</time>
      </trkpt>
      <trkpt lat="42.32347" lon="0.93668">
        <ele>822.6</ele>
        <time>2022-05-23 06:37:52</time>
      </trkpt>
      <trkpt lat="42.32342" lon="0.93668">
        <ele>822.6</ele>
        <time>2022-05-23 06:37:53</time>
      </trkpt>
      <trkpt lat="42.32337" lon="0.93668">
        <ele>822.6</ele>
        <time>2022-05-23 06:37:54</time>
      </trkpt>
      <trkpt lat="42.32332" lon="0.93667">
        <ele>822.6</ele>
        <time>2022-05-23 06:37:55</time>
      </trkpt>
      <trkpt lat="42.32327" lon="0.93667">
        <ele>822.6</ele>
        <time>2022-05-23 06:37:56</time>
      </trkpt>
      <trkpt lat="42.32322" lon="0.93666">
        <ele>822.8</ele>
        <time>2022-05-23 06:37:57</time>
      </trkpt>
      <trkpt lat="42.32317" lon="0.93665">
        <ele>822.8</ele>
        <time>2022-05-23 06:37:58</time>
      </trkpt>
      <trkpt lat="42.32312" lon="0.93665">
        <ele>822.8</ele>
        <time>2022-05-23 06:37:59</time>
      </trkpt>
      <trkpt lat="42.32306" lon="0.93665">
        <ele>822.8</ele>
        <time>2022-05-23 06:38:00</time>
      </trkpt>
      <trkpt lat="42.32301" lon="0.93664">
        <ele>822.8</ele>
        <time>2022-05-23 06:38:01</time>
      </trkpt>
      <trkpt lat="42.32295" lon="0.93664">
        <ele>822.8</ele>
        <time>2022-05-23 06:38:02</time>
      </trkpt>
      <trkpt lat="42.3229" lon="0.93664">
        <ele>822.8</ele>
        <time>2022-05-23 06:38:03</time>
      </trkpt>
      <trkpt lat="42.32284" lon="0.93663">
        <ele>822.8</ele>
        <time>2022-05-23 06:38:04</time>
      </trkpt>
      <trkpt lat="42.32278" lon="0.93662">
        <ele>822.8</ele>
        <time>2022-05-23 06:38:05</time>
      </trkpt>
      <trkpt lat="42.32272" lon="0.93662">
        <ele>822.8</ele>
        <time>2022-05-23 06:38:06</time>
      </trkpt>
      <trkpt lat="42.32265" lon="0.93661">
        <ele>822.8</ele>
        <time>2022-05-23 06:38:07</time>
      </trkpt>
      <trkpt lat="42.32259" lon="0.93661">
        <ele>822.8</ele>
        <time>2022-05-23 06:38:08</time>
      </trkpt>
      <trkpt lat="42.32253" lon="0.93661">
        <ele>822.8</ele>
        <time>2022-05-23 06:38:09</time>
      </trkpt>
      <trkpt lat="42.32246" lon="0.93661">
        <ele>822.8</ele>
        <time>2022-05-23 06:38:10</time>
      </trkpt>
      <trkpt lat="42.32239" lon="0.93661">
        <ele>822.6</ele>
        <time>2022-05-23 06:38:11</time>
      </trkpt>
      <trkpt lat="42.32232" lon="0.93661">
        <ele>822.6</ele>
        <time>2022-05-23 06:38:12</time>
      </trkpt>
      <trkpt lat="42.32226" lon="0.9366">
        <ele>822.4</ele>
        <time>2022-05-23 06:38:13</time>
      </trkpt>
      <trkpt lat="42.32219" lon="0.9366">
        <ele>822.2</ele>
        <time>2022-05-23 06:38:14</time>
      </trkpt>
      <trkpt lat="42.32215" lon="0.93659">
        <ele>822.2</ele>
        <time>2022-05-23 06:38:15</time>
      </trkpt>
      <trkpt lat="42.32205" lon="0.93657">
        <ele>821.8</ele>
        <time>2022-05-23 06:38:16</time>
      </trkpt>
      <trkpt lat="42.32198" lon="0.93657">
        <ele>821.6</ele>
        <time>2022-05-23 06:38:17</time>
      </trkpt>
      <trkpt lat="42.32191" lon="0.93655">
        <ele>821.4</ele>
        <time>2022-05-23 06:38:18</time>
      </trkpt>
      <trkpt lat="42.32183" lon="0.93654">
        <ele>821</ele>
        <time>2022-05-23 06:38:19</time>
      </trkpt>
      <trkpt lat="42.32176" lon="0.93651">
        <ele>820.8</ele>
        <time>2022-05-23 06:38:20</time>
      </trkpt>
      <trkpt lat="42.3217" lon="0.93649">
        <ele>820.6</ele>
        <time>2022-05-23 06:38:21</time>
      </trkpt>
      <trkpt lat="42.32162" lon="0.93647">
        <ele>820.4</ele>
        <time>2022-05-23 06:38:22</time>
      </trkpt>
      <trkpt lat="42.32155" lon="0.93644">
        <ele>820.2</ele>
        <time>2022-05-23 06:38:23</time>
      </trkpt>
      <trkpt lat="42.32148" lon="0.9364">
        <ele>820</ele>
        <time>2022-05-23 06:38:24</time>
      </trkpt>
      <trkpt lat="42.32142" lon="0.93636">
        <ele>819.8</ele>
        <time>2022-05-23 06:38:25</time>
      </trkpt>
      <trkpt lat="42.32135" lon="0.93632">
        <ele>819.6</ele>
        <time>2022-05-23 06:38:26</time>
      </trkpt>
      <trkpt lat="42.32131" lon="0.93629">
        <ele>819.4</ele>
        <time>2022-05-23 06:38:27</time>
      </trkpt>
      <trkpt lat="42.32121" lon="0.93623">
        <ele>819.2</ele>
        <time>2022-05-23 06:38:28</time>
      </trkpt>
      <trkpt lat="42.32115" lon="0.93619">
        <ele>819</ele>
        <time>2022-05-23 06:38:29</time>
      </trkpt>
      <trkpt lat="42.32108" lon="0.93615">
        <ele>818.8</ele>
        <time>2022-05-23 06:38:30</time>
      </trkpt>
      <trkpt lat="42.32101" lon="0.93612">
        <ele>818.6</ele>
        <time>2022-05-23 06:38:31</time>
      </trkpt>
      <trkpt lat="42.32094" lon="0.93608">
        <ele>818.4</ele>
        <time>2022-05-23 06:38:32</time>
      </trkpt>
      <trkpt lat="42.32087" lon="0.93605">
        <ele>818.2</ele>
        <time>2022-05-23 06:38:33</time>
      </trkpt>
      <trkpt lat="42.32079" lon="0.93602">
        <ele>818</ele>
        <time>2022-05-23 06:38:34</time>
      </trkpt>
      <trkpt lat="42.32072" lon="0.93599">
        <ele>817.8</ele>
        <time>2022-05-23 06:38:35</time>
      </trkpt>
      <trkpt lat="42.32065" lon="0.93597">
        <ele>817.6</ele>
        <time>2022-05-23 06:38:36</time>
      </trkpt>
      <trkpt lat="42.32057" lon="0.93594">
        <ele>817.4</ele>
        <time>2022-05-23 06:38:37</time>
      </trkpt>
      <trkpt lat="42.32049" lon="0.93592">
        <ele>817.4</ele>
        <time>2022-05-23 06:38:38</time>
      </trkpt>
      <trkpt lat="42.32042" lon="0.9359">
        <ele>817.2</ele>
        <time>2022-05-23 06:38:39</time>
      </trkpt>
      <trkpt lat="42.32035" lon="0.93588">
        <ele>817</ele>
        <time>2022-05-23 06:38:40</time>
      </trkpt>
      <trkpt lat="42.32027" lon="0.93586">
        <ele>817</ele>
        <time>2022-05-23 06:38:41</time>
      </trkpt>
      <trkpt lat="42.32019" lon="0.93584">
        <ele>816.8</ele>
        <time>2022-05-23 06:38:42</time>
      </trkpt>
      <trkpt lat="42.32012" lon="0.93582">
        <ele>816.8</ele>
        <time>2022-05-23 06:38:43</time>
      </trkpt>
      <trkpt lat="42.32005" lon="0.9358">
        <ele>816.8</ele>
        <time>2022-05-23 06:38:44</time>
      </trkpt>
      <trkpt lat="42.31997" lon="0.93578">
        <ele>816.6</ele>
        <time>2022-05-23 06:38:45</time>
      </trkpt>
      <trkpt lat="42.3199" lon="0.93576">
        <ele>816.6</ele>
        <time>2022-05-23 06:38:46</time>
      </trkpt>
      <trkpt lat="42.31983" lon="0.93575">
        <ele>816.4</ele>
        <time>2022-05-23 06:38:47</time>
      </trkpt>
      <trkpt lat="42.31976" lon="0.93573">
        <ele>816.4</ele>
        <time>2022-05-23 06:38:48</time>
      </trkpt>
      <trkpt lat="42.31969" lon="0.93571">
        <ele>816.2</ele>
        <time>2022-05-23 06:38:49</time>
      </trkpt>
      <trkpt lat="42.31961" lon="0.93569">
        <ele>816</ele>
        <time>2022-05-23 06:38:50</time>
      </trkpt>
      <trkpt lat="42.31954" lon="0.93567">
        <ele>816</ele>
        <time>2022-05-23 06:38:51</time>
      </trkpt>
      <trkpt lat="42.31947" lon="0.93565">
        <ele>815.8</ele>
        <time>2022-05-23 06:38:52</time>
      </trkpt>
      <trkpt lat="42.31939" lon="0.93563">
        <ele>815.6</ele>
        <time>2022-05-23 06:38:53</time>
      </trkpt>
      <trkpt lat="42.31932" lon="0.93561">
        <ele>815.6</ele>
        <time>2022-05-23 06:38:54</time>
      </trkpt>
      <trkpt lat="42.31925" lon="0.93559">
        <ele>815.4</ele>
        <time>2022-05-23 06:38:55</time>
      </trkpt>
      <trkpt lat="42.31917" lon="0.93558">
        <ele>815.2</ele>
        <time>2022-05-23 06:38:56</time>
      </trkpt>
      <trkpt lat="42.3191" lon="0.93556">
        <ele>814.8</ele>
        <time>2022-05-23 06:38:57</time>
      </trkpt>
      <trkpt lat="42.31902" lon="0.93554">
        <ele>814.6</ele>
        <time>2022-05-23 06:38:58</time>
      </trkpt>
      <trkpt lat="42.31895" lon="0.93551">
        <ele>814.6</ele>
        <time>2022-05-23 06:38:59</time>
      </trkpt>
      <trkpt lat="42.31887" lon="0.9355">
        <ele>814.4</ele>
        <time>2022-05-23 06:39:00</time>
      </trkpt>
      <trkpt lat="42.31879" lon="0.93547">
        <ele>814</ele>
        <time>2022-05-23 06:39:01</time>
      </trkpt>
      <trkpt lat="42.31871" lon="0.93545">
        <ele>813.8</ele>
        <time>2022-05-23 06:39:02</time>
      </trkpt>
      <trkpt lat="42.31864" lon="0.93543">
        <ele>813.6</ele>
        <time>2022-05-23 06:39:03</time>
      </trkpt>
      <trkpt lat="42.31855" lon="0.93542">
        <ele>813.4</ele>
        <time>2022-05-23 06:39:04</time>
      </trkpt>
      <trkpt lat="42.31848" lon="0.9354">
        <ele>813.2</ele>
        <time>2022-05-23 06:39:05</time>
      </trkpt>
      <trkpt lat="42.3184" lon="0.93538">
        <ele>813</ele>
        <time>2022-05-23 06:39:06</time>
      </trkpt>
      <trkpt lat="42.31832" lon="0.93536">
        <ele>812.8</ele>
        <time>2022-05-23 06:39:07</time>
      </trkpt>
      <trkpt lat="42.31825" lon="0.93535">
        <ele>812.6</ele>
        <time>2022-05-23 06:39:08</time>
      </trkpt>
      <trkpt lat="42.31816" lon="0.93533">
        <ele>812.6</ele>
        <time>2022-05-23 06:39:09</time>
      </trkpt>
      <trkpt lat="42.31809" lon="0.93531">
        <ele>812.4</ele>
        <time>2022-05-23 06:39:10</time>
      </trkpt>
      <trkpt lat="42.318" lon="0.93529">
        <ele>812</ele>
        <time>2022-05-23 06:39:11</time>
      </trkpt>
      <trkpt lat="42.31792" lon="0.93528">
        <ele>811.8</ele>
        <time>2022-05-23 06:39:12</time>
      </trkpt>
      <trkpt lat="42.31784" lon="0.93527">
        <ele>811.6</ele>
        <time>2022-05-23 06:39:13</time>
      </trkpt>
      <trkpt lat="42.31776" lon="0.93526">
        <ele>811.4</ele>
        <time>2022-05-23 06:39:14</time>
      </trkpt>
      <trkpt lat="42.31767" lon="0.93526">
        <ele>811.2</ele>
        <time>2022-05-23 06:39:15</time>
      </trkpt>
      <trkpt lat="42.31759" lon="0.93525">
        <ele>811</ele>
        <time>2022-05-23 06:39:16</time>
      </trkpt>
      <trkpt lat="42.3175" lon="0.93525">
        <ele>810.8</ele>
        <time>2022-05-23 06:39:17</time>
      </trkpt>
      <trkpt lat="42.31742" lon="0.93525">
        <ele>810.6</ele>
        <time>2022-05-23 06:39:18</time>
      </trkpt>
      <trkpt lat="42.31734" lon="0.93525">
        <ele>810.4</ele>
        <time>2022-05-23 06:39:19</time>
      </trkpt>
      <trkpt lat="42.31725" lon="0.93525">
        <ele>810</ele>
        <time>2022-05-23 06:39:20</time>
      </trkpt>
      <trkpt lat="42.31717" lon="0.93525">
        <ele>809.8</ele>
        <time>2022-05-23 06:39:21</time>
      </trkpt>
      <trkpt lat="42.31708" lon="0.93525">
        <ele>809.6</ele>
        <time>2022-05-23 06:39:22</time>
      </trkpt>
      <trkpt lat="42.317" lon="0.93526">
        <ele>809.4</ele>
        <time>2022-05-23 06:39:23</time>
      </trkpt>
      <trkpt lat="42.31691" lon="0.93526">
        <ele>809.2</ele>
        <time>2022-05-23 06:39:24</time>
      </trkpt>
      <trkpt lat="42.31683" lon="0.93527">
        <ele>809</ele>
        <time>2022-05-23 06:39:25</time>
      </trkpt>
      <trkpt lat="42.31674" lon="0.93527">
        <ele>808.6</ele>
        <time>2022-05-23 06:39:26</time>
      </trkpt>
      <trkpt lat="42.31665" lon="0.93527">
        <ele>808.4</ele>
        <time>2022-05-23 06:39:27</time>
      </trkpt>
      <trkpt lat="42.31656" lon="0.93527">
        <ele>808</ele>
        <time>2022-05-23 06:39:28</time>
      </trkpt>
      <trkpt lat="42.31647" lon="0.93527">
        <ele>807.8</ele>
        <time>2022-05-23 06:39:29</time>
      </trkpt>
      <trkpt lat="42.31639" lon="0.93527">
        <ele>807.4</ele>
        <time>2022-05-23 06:39:30</time>
      </trkpt>
      <trkpt lat="42.3163" lon="0.93526">
        <ele>807.2</ele>
        <time>2022-05-23 06:39:31</time>
      </trkpt>
      <trkpt lat="42.31622" lon="0.93526">
        <ele>807</ele>
        <time>2022-05-23 06:39:32</time>
      </trkpt>
      <trkpt lat="42.31612" lon="0.93525">
        <ele>806.8</ele>
        <time>2022-05-23 06:39:33</time>
      </trkpt>
      <trkpt lat="42.31603" lon="0.93524">
        <ele>806.4</ele>
        <time>2022-05-23 06:39:34</time>
      </trkpt>
      <trkpt lat="42.31595" lon="0.93523">
        <ele>806.2</ele>
        <time>2022-05-23 06:39:35</time>
      </trkpt>
      <trkpt lat="42.31586" lon="0.93522">
        <ele>805.8</ele>
        <time>2022-05-23 06:39:36</time>
      </trkpt>
      <trkpt lat="42.31577" lon="0.9352">
        <ele>805.6</ele>
        <time>2022-05-23 06:39:37</time>
      </trkpt>
      <trkpt lat="42.31568" lon="0.93518">
        <ele>805.4</ele>
        <time>2022-05-23 06:39:38</time>
      </trkpt>
      <trkpt lat="42.3156" lon="0.93516">
        <ele>805.2</ele>
        <time>2022-05-23 06:39:39</time>
      </trkpt>
      <trkpt lat="42.31552" lon="0.93513">
        <ele>805.2</ele>
        <time>2022-05-23 06:39:40</time>
      </trkpt>
      <trkpt lat="42.31543" lon="0.93511">
        <ele>805</ele>
        <time>2022-05-23 06:39:41</time>
      </trkpt>
      <trkpt lat="42.31535" lon="0.93508">
        <ele>804.8</ele>
        <time>2022-05-23 06:39:42</time>
      </trkpt>
      <trkpt lat="42.31527" lon="0.93505">
        <ele>804.8</ele>
        <time>2022-05-23 06:39:43</time>
      </trkpt>
      <trkpt lat="42.31519" lon="0.93502">
        <ele>804.8</ele>
        <time>2022-05-23 06:39:44</time>
      </trkpt>
      <trkpt lat="42.31512" lon="0.93499">
        <ele>804.8</ele>
        <time>2022-05-23 06:39:45</time>
      </trkpt>
      <trkpt lat="42.31504" lon="0.93496">
        <ele>804.8</ele>
        <time>2022-05-23 06:39:46</time>
      </trkpt>
      <trkpt lat="42.31497" lon="0.93493">
        <ele>804.8</ele>
        <time>2022-05-23 06:39:47</time>
      </trkpt>
      <trkpt lat="42.3149" lon="0.93489">
        <ele>804.8</ele>
        <time>2022-05-23 06:39:48</time>
      </trkpt>
      <trkpt lat="42.31482" lon="0.93486">
        <ele>804.6</ele>
        <time>2022-05-23 06:39:49</time>
      </trkpt>
      <trkpt lat="42.31476" lon="0.93482">
        <ele>804.6</ele>
        <time>2022-05-23 06:39:50</time>
      </trkpt>
      <trkpt lat="42.31468" lon="0.93478">
        <ele>804.6</ele>
        <time>2022-05-23 06:39:51</time>
      </trkpt>
      <trkpt lat="42.31461" lon="0.93474">
        <ele>804.6</ele>
        <time>2022-05-23 06:39:52</time>
      </trkpt>
      <trkpt lat="42.31454" lon="0.9347">
        <ele>804.6</ele>
        <time>2022-05-23 06:39:53</time>
      </trkpt>
      <trkpt lat="42.31448" lon="0.93467">
        <ele>804.6</ele>
        <time>2022-05-23 06:39:54</time>
      </trkpt>
      <trkpt lat="42.3144" lon="0.93463">
        <ele>804.6</ele>
        <time>2022-05-23 06:39:55</time>
      </trkpt>
      <trkpt lat="42.31433" lon="0.93461">
        <ele>804.4</ele>
        <time>2022-05-23 06:39:56</time>
      </trkpt>
      <trkpt lat="42.31426" lon="0.93458">
        <ele>804.4</ele>
        <time>2022-05-23 06:39:57</time>
      </trkpt>
      <trkpt lat="42.31419" lon="0.93455">
        <ele>804.4</ele>
        <time>2022-05-23 06:39:58</time>
      </trkpt>
      <trkpt lat="42.31413" lon="0.93452">
        <ele>804.2</ele>
        <time>2022-05-23 06:39:59</time>
      </trkpt>
      <trkpt lat="42.31405" lon="0.93449">
        <ele>804.2</ele>
        <time>2022-05-23 06:40:00</time>
      </trkpt>
      <trkpt lat="42.31399" lon="0.93447">
        <ele>804.2</ele>
        <time>2022-05-23 06:40:01</time>
      </trkpt>
      <trkpt lat="42.31391" lon="0.93445">
        <ele>804.2</ele>
        <time>2022-05-23 06:40:02</time>
      </trkpt>
      <trkpt lat="42.31384" lon="0.93443">
        <ele>804.2</ele>
        <time>2022-05-23 06:40:03</time>
      </trkpt>
      <trkpt lat="42.31377" lon="0.93441">
        <ele>804.2</ele>
        <time>2022-05-23 06:40:04</time>
      </trkpt>
      <trkpt lat="42.3137" lon="0.93439">
        <ele>804.2</ele>
        <time>2022-05-23 06:40:05</time>
      </trkpt>
      <trkpt lat="42.31363" lon="0.93437">
        <ele>804.2</ele>
        <time>2022-05-23 06:40:06</time>
      </trkpt>
      <trkpt lat="42.31355" lon="0.93435">
        <ele>804</ele>
        <time>2022-05-23 06:40:07</time>
      </trkpt>
      <trkpt lat="42.31348" lon="0.93433">
        <ele>804</ele>
        <time>2022-05-23 06:40:08</time>
      </trkpt>
      <trkpt lat="42.31341" lon="0.93431">
        <ele>803.8</ele>
        <time>2022-05-23 06:40:09</time>
      </trkpt>
      <trkpt lat="42.31334" lon="0.9343">
        <ele>803.8</ele>
        <time>2022-05-23 06:40:10</time>
      </trkpt>
      <trkpt lat="42.31326" lon="0.93428">
        <ele>803.8</ele>
        <time>2022-05-23 06:40:11</time>
      </trkpt>
      <trkpt lat="42.31319" lon="0.93426">
        <ele>803.8</ele>
        <time>2022-05-23 06:40:12</time>
      </trkpt>
      <trkpt lat="42.31312" lon="0.93425">
        <ele>803.8</ele>
        <time>2022-05-23 06:40:13</time>
      </trkpt>
      <trkpt lat="42.31305" lon="0.93425">
        <ele>803.6</ele>
        <time>2022-05-23 06:40:14</time>
      </trkpt>
      <trkpt lat="42.31298" lon="0.93425">
        <ele>803.6</ele>
        <time>2022-05-23 06:40:15</time>
      </trkpt>
      <trkpt lat="42.31291" lon="0.93425">
        <ele>803.6</ele>
        <time>2022-05-23 06:40:16</time>
      </trkpt>
      <trkpt lat="42.31284" lon="0.93425">
        <ele>803.6</ele>
        <time>2022-05-23 06:40:17</time>
      </trkpt>
      <trkpt lat="42.31277" lon="0.93425">
        <ele>803.4</ele>
        <time>2022-05-23 06:40:18</time>
      </trkpt>
      <trkpt lat="42.31269" lon="0.93425">
        <ele>803.4</ele>
        <time>2022-05-23 06:40:19</time>
      </trkpt>
      <trkpt lat="42.31262" lon="0.93425">
        <ele>803.4</ele>
        <time>2022-05-23 06:40:20</time>
      </trkpt>
      <trkpt lat="42.31254" lon="0.93425">
        <ele>803.4</ele>
        <time>2022-05-23 06:40:21</time>
      </trkpt>
      <trkpt lat="42.31247" lon="0.93425">
        <ele>803.4</ele>
        <time>2022-05-23 06:40:22</time>
      </trkpt>
      <trkpt lat="42.3124" lon="0.93425">
        <ele>803.2</ele>
        <time>2022-05-23 06:40:23</time>
      </trkpt>
      <trkpt lat="42.31232" lon="0.93426">
        <ele>803.2</ele>
        <time>2022-05-23 06:40:24</time>
      </trkpt>
      <trkpt lat="42.31225" lon="0.93425">
        <ele>803.2</ele>
        <time>2022-05-23 06:40:25</time>
      </trkpt>
      <trkpt lat="42.31217" lon="0.93425">
        <ele>803.2</ele>
        <time>2022-05-23 06:40:26</time>
      </trkpt>
      <trkpt lat="42.3121" lon="0.93425">
        <ele>803</ele>
        <time>2022-05-23 06:40:27</time>
      </trkpt>
      <trkpt lat="42.31202" lon="0.93426">
        <ele>803</ele>
        <time>2022-05-23 06:40:28</time>
      </trkpt>
      <trkpt lat="42.31194" lon="0.93426">
        <ele>803</ele>
        <time>2022-05-23 06:40:29</time>
      </trkpt>
      <trkpt lat="42.31187" lon="0.93427">
        <ele>802.8</ele>
        <time>2022-05-23 06:40:30</time>
      </trkpt>
      <trkpt lat="42.31179" lon="0.93428">
        <ele>802.8</ele>
        <time>2022-05-23 06:40:31</time>
      </trkpt>
      <trkpt lat="42.31171" lon="0.93428">
        <ele>802.8</ele>
        <time>2022-05-23 06:40:32</time>
      </trkpt>
      <trkpt lat="42.31163" lon="0.93428">
        <ele>802.8</ele>
        <time>2022-05-23 06:40:33</time>
      </trkpt>
      <trkpt lat="42.31155" lon="0.93428">
        <ele>802.8</ele>
        <time>2022-05-23 06:40:34</time>
      </trkpt>
      <trkpt lat="42.31147" lon="0.93428">
        <ele>802.6</ele>
        <time>2022-05-23 06:40:35</time>
      </trkpt>
      <trkpt lat="42.31139" lon="0.93428">
        <ele>802.6</ele>
        <time>2022-05-23 06:40:36</time>
      </trkpt>
      <trkpt lat="42.31131" lon="0.93428">
        <ele>802.6</ele>
        <time>2022-05-23 06:40:37</time>
      </trkpt>
      <trkpt lat="42.31123" lon="0.93428">
        <ele>802.4</ele>
        <time>2022-05-23 06:40:38</time>
      </trkpt>
      <trkpt lat="42.31115" lon="0.93428">
        <ele>802.4</ele>
        <time>2022-05-23 06:40:39</time>
      </trkpt>
      <trkpt lat="42.31108" lon="0.93428">
        <ele>802.2</ele>
        <time>2022-05-23 06:40:40</time>
      </trkpt>
      <trkpt lat="42.31099" lon="0.93428">
        <ele>802.2</ele>
        <time>2022-05-23 06:40:41</time>
      </trkpt>
      <trkpt lat="42.31091" lon="0.93428">
        <ele>802</ele>
        <time>2022-05-23 06:40:42</time>
      </trkpt>
      <trkpt lat="42.31083" lon="0.93429">
        <ele>802</ele>
        <time>2022-05-23 06:40:43</time>
      </trkpt>
      <trkpt lat="42.31075" lon="0.93429">
        <ele>802</ele>
        <time>2022-05-23 06:40:44</time>
      </trkpt>
      <trkpt lat="42.31067" lon="0.93429">
        <ele>801.8</ele>
        <time>2022-05-23 06:40:45</time>
      </trkpt>
      <trkpt lat="42.31059" lon="0.93429">
        <ele>801.8</ele>
        <time>2022-05-23 06:40:46</time>
      </trkpt>
      <trkpt lat="42.31051" lon="0.9343">
        <ele>801.6</ele>
        <time>2022-05-23 06:40:47</time>
      </trkpt>
      <trkpt lat="42.31043" lon="0.9343">
        <ele>801.6</ele>
        <time>2022-05-23 06:40:48</time>
      </trkpt>
      <trkpt lat="42.31035" lon="0.9343">
        <ele>801.6</ele>
        <time>2022-05-23 06:40:49</time>
      </trkpt>
      <trkpt lat="42.31027" lon="0.9343">
        <ele>801.6</ele>
        <time>2022-05-23 06:40:50</time>
      </trkpt>
      <trkpt lat="42.31019" lon="0.9343">
        <ele>801.6</ele>
        <time>2022-05-23 06:40:51</time>
      </trkpt>
      <trkpt lat="42.31011" lon="0.9343">
        <ele>801.4</ele>
        <time>2022-05-23 06:40:52</time>
      </trkpt>
      <trkpt lat="42.31003" lon="0.9343">
        <ele>801.4</ele>
        <time>2022-05-23 06:40:53</time>
      </trkpt>
      <trkpt lat="42.30995" lon="0.93431">
        <ele>801.4</ele>
        <time>2022-05-23 06:40:54</time>
      </trkpt>
      <trkpt lat="42.30988" lon="0.93432">
        <ele>801.2</ele>
        <time>2022-05-23 06:40:55</time>
      </trkpt>
      <trkpt lat="42.30979" lon="0.93432">
        <ele>801</ele>
        <time>2022-05-23 06:40:56</time>
      </trkpt>
      <trkpt lat="42.30972" lon="0.93432">
        <ele>801</ele>
        <time>2022-05-23 06:40:57</time>
      </trkpt>
      <trkpt lat="42.30964" lon="0.93432">
        <ele>801</ele>
        <time>2022-05-23 06:40:58</time>
      </trkpt>
      <trkpt lat="42.30956" lon="0.93431">
        <ele>800.8</ele>
        <time>2022-05-23 06:40:59</time>
      </trkpt>
      <trkpt lat="42.30948" lon="0.93431">
        <ele>800.8</ele>
        <time>2022-05-23 06:41:00</time>
      </trkpt>
      <trkpt lat="42.30941" lon="0.93432">
        <ele>800.8</ele>
        <time>2022-05-23 06:41:01</time>
      </trkpt>
      <trkpt lat="42.30933" lon="0.93432">
        <ele>800.6</ele>
        <time>2022-05-23 06:41:02</time>
      </trkpt>
      <trkpt lat="42.30926" lon="0.93432">
        <ele>800.6</ele>
        <time>2022-05-23 06:41:03</time>
      </trkpt>
      <trkpt lat="42.30918" lon="0.93432">
        <ele>800.4</ele>
        <time>2022-05-23 06:41:04</time>
      </trkpt>
      <trkpt lat="42.30909" lon="0.93432">
        <ele>800.2</ele>
        <time>2022-05-23 06:41:05</time>
      </trkpt>
      <trkpt lat="42.30902" lon="0.93432">
        <ele>800.2</ele>
        <time>2022-05-23 06:41:06</time>
      </trkpt>
      <trkpt lat="42.30893" lon="0.93432">
        <ele>800</ele>
        <time>2022-05-23 06:41:07</time>
      </trkpt>
      <trkpt lat="42.30885" lon="0.93432">
        <ele>799.8</ele>
        <time>2022-05-23 06:41:08</time>
      </trkpt>
      <trkpt lat="42.30877" lon="0.93432">
        <ele>799.6</ele>
        <time>2022-05-23 06:41:09</time>
      </trkpt>
      <trkpt lat="42.30868" lon="0.93432">
        <ele>799.6</ele>
        <time>2022-05-23 06:41:10</time>
      </trkpt>
      <trkpt lat="42.3086" lon="0.93432">
        <ele>799.4</ele>
        <time>2022-05-23 06:41:11</time>
      </trkpt>
      <trkpt lat="42.30851" lon="0.93432">
        <ele>799.4</ele>
        <time>2022-05-23 06:41:12</time>
      </trkpt>
      <trkpt lat="42.30843" lon="0.93433">
        <ele>799.4</ele>
        <time>2022-05-23 06:41:13</time>
      </trkpt>
      <trkpt lat="42.30835" lon="0.93434">
        <ele>799.4</ele>
        <time>2022-05-23 06:41:14</time>
      </trkpt>
      <trkpt lat="42.30827" lon="0.93435">
        <ele>799.4</ele>
        <time>2022-05-23 06:41:15</time>
      </trkpt>
      <trkpt lat="42.30819" lon="0.93436">
        <ele>799.2</ele>
        <time>2022-05-23 06:41:16</time>
      </trkpt>
      <trkpt lat="42.30811" lon="0.93438">
        <ele>799.2</ele>
        <time>2022-05-23 06:41:17</time>
      </trkpt>
      <trkpt lat="42.30803" lon="0.9344">
        <ele>799.2</ele>
        <time>2022-05-23 06:41:18</time>
      </trkpt>
      <trkpt lat="42.30796" lon="0.93442">
        <ele>799.2</ele>
        <time>2022-05-23 06:41:19</time>
      </trkpt>
      <trkpt lat="42.30788" lon="0.93444">
        <ele>799</ele>
        <time>2022-05-23 06:41:20</time>
      </trkpt>
      <trkpt lat="42.3078" lon="0.93446">
        <ele>799</ele>
        <time>2022-05-23 06:41:21</time>
      </trkpt>
      <trkpt lat="42.30773" lon="0.93448">
        <ele>798.8</ele>
        <time>2022-05-23 06:41:22</time>
      </trkpt>
      <trkpt lat="42.30766" lon="0.9345">
        <ele>798.8</ele>
        <time>2022-05-23 06:41:23</time>
      </trkpt>
      <trkpt lat="42.30758" lon="0.93453">
        <ele>798.8</ele>
        <time>2022-05-23 06:41:24</time>
      </trkpt>
      <trkpt lat="42.3075" lon="0.93456">
        <ele>798.8</ele>
        <time>2022-05-23 06:41:25</time>
      </trkpt>
      <trkpt lat="42.30743" lon="0.93459">
        <ele>798.8</ele>
        <time>2022-05-23 06:41:26</time>
      </trkpt>
      <trkpt lat="42.30736" lon="0.93462">
        <ele>798.6</ele>
        <time>2022-05-23 06:41:27</time>
      </trkpt>
      <trkpt lat="42.30728" lon="0.93465">
        <ele>798.6</ele>
        <time>2022-05-23 06:41:28</time>
      </trkpt>
      <trkpt lat="42.30721" lon="0.93468">
        <ele>798.6</ele>
        <time>2022-05-23 06:41:29</time>
      </trkpt>
      <trkpt lat="42.30714" lon="0.93472">
        <ele>798.6</ele>
        <time>2022-05-23 06:41:30</time>
      </trkpt>
      <trkpt lat="42.30707" lon="0.93475">
        <ele>798.6</ele>
        <time>2022-05-23 06:41:31</time>
      </trkpt>
      <trkpt lat="42.30699" lon="0.93479">
        <ele>798.6</ele>
        <time>2022-05-23 06:41:32</time>
      </trkpt>
      <trkpt lat="42.30692" lon="0.93483">
        <ele>798.4</ele>
        <time>2022-05-23 06:41:33</time>
      </trkpt>
      <trkpt lat="42.30684" lon="0.93487">
        <ele>798.4</ele>
        <time>2022-05-23 06:41:34</time>
      </trkpt>
      <trkpt lat="42.30677" lon="0.9349">
        <ele>798.2</ele>
        <time>2022-05-23 06:41:35</time>
      </trkpt>
      <trkpt lat="42.3067" lon="0.93494">
        <ele>798.2</ele>
        <time>2022-05-23 06:41:36</time>
      </trkpt>
      <trkpt lat="42.30662" lon="0.93497">
        <ele>798.2</ele>
        <time>2022-05-23 06:41:37</time>
      </trkpt>
      <trkpt lat="42.30655" lon="0.93501">
        <ele>798</ele>
        <time>2022-05-23 06:41:38</time>
      </trkpt>
      <trkpt lat="42.30648" lon="0.93505">
        <ele>798</ele>
        <time>2022-05-23 06:41:39</time>
      </trkpt>
      <trkpt lat="42.30641" lon="0.93508">
        <ele>797.8</ele>
        <time>2022-05-23 06:41:40</time>
      </trkpt>
      <trkpt lat="42.30634" lon="0.93512">
        <ele>797.8</ele>
        <time>2022-05-23 06:41:41</time>
      </trkpt>
      <trkpt lat="42.30626" lon="0.93515">
        <ele>797.6</ele>
        <time>2022-05-23 06:41:42</time>
      </trkpt>
      <trkpt lat="42.3062" lon="0.93519">
        <ele>797.6</ele>
        <time>2022-05-23 06:41:43</time>
      </trkpt>
      <trkpt lat="42.30612" lon="0.93523">
        <ele>797.4</ele>
        <time>2022-05-23 06:41:44</time>
      </trkpt>
      <trkpt lat="42.30605" lon="0.93527">
        <ele>797.4</ele>
        <time>2022-05-23 06:41:45</time>
      </trkpt>
      <trkpt lat="42.30598" lon="0.93531">
        <ele>797.4</ele>
        <time>2022-05-23 06:41:46</time>
      </trkpt>
      <trkpt lat="42.30591" lon="0.93535">
        <ele>797.4</ele>
        <time>2022-05-23 06:41:47</time>
      </trkpt>
      <trkpt lat="42.30584" lon="0.93539">
        <ele>797.2</ele>
        <time>2022-05-23 06:41:48</time>
      </trkpt>
      <trkpt lat="42.30577" lon="0.93542">
        <ele>797.2</ele>
        <time>2022-05-23 06:41:49</time>
      </trkpt>
      <trkpt lat="42.3057" lon="0.93546">
        <ele>797.2</ele>
        <time>2022-05-23 06:41:50</time>
      </trkpt>
      <trkpt lat="42.30563" lon="0.93549">
        <ele>797</ele>
        <time>2022-05-23 06:41:51</time>
      </trkpt>
      <trkpt lat="42.30556" lon="0.93553">
        <ele>797</ele>
        <time>2022-05-23 06:41:52</time>
      </trkpt>
      <trkpt lat="42.30549" lon="0.93556">
        <ele>796.8</ele>
        <time>2022-05-23 06:41:53</time>
      </trkpt>
      <trkpt lat="42.30543" lon="0.93559">
        <ele>796.8</ele>
        <time>2022-05-23 06:41:54</time>
      </trkpt>
      <trkpt lat="42.30537" lon="0.93562">
        <ele>796.8</ele>
        <time>2022-05-23 06:41:55</time>
      </trkpt>
      <trkpt lat="42.3053" lon="0.93565">
        <ele>796.6</ele>
        <time>2022-05-23 06:41:56</time>
      </trkpt>
      <trkpt lat="42.30523" lon="0.93569">
        <ele>796.6</ele>
        <time>2022-05-23 06:41:57</time>
      </trkpt>
      <trkpt lat="42.30516" lon="0.93572">
        <ele>796.6</ele>
        <time>2022-05-23 06:41:58</time>
      </trkpt>
      <trkpt lat="42.3051" lon="0.93575">
        <ele>796.6</ele>
        <time>2022-05-23 06:41:59</time>
      </trkpt>
      <trkpt lat="42.30503" lon="0.93579">
        <ele>796.6</ele>
        <time>2022-05-23 06:42:00</time>
      </trkpt>
      <trkpt lat="42.30496" lon="0.93582">
        <ele>796.6</ele>
        <time>2022-05-23 06:42:01</time>
      </trkpt>
      <trkpt lat="42.3049" lon="0.93585">
        <ele>796.4</ele>
        <time>2022-05-23 06:42:02</time>
      </trkpt>
      <trkpt lat="42.30482" lon="0.93588">
        <ele>796.4</ele>
        <time>2022-05-23 06:42:03</time>
      </trkpt>
      <trkpt lat="42.30476" lon="0.9359">
        <ele>796.2</ele>
        <time>2022-05-23 06:42:04</time>
      </trkpt>
      <trkpt lat="42.30468" lon="0.93593">
        <ele>796.2</ele>
        <time>2022-05-23 06:42:05</time>
      </trkpt>
      <trkpt lat="42.30461" lon="0.93596">
        <ele>796</ele>
        <time>2022-05-23 06:42:06</time>
      </trkpt>
      <trkpt lat="42.30454" lon="0.93598">
        <ele>795.8</ele>
        <time>2022-05-23 06:42:07</time>
      </trkpt>
      <trkpt lat="42.30447" lon="0.93601">
        <ele>795.8</ele>
        <time>2022-05-23 06:42:08</time>
      </trkpt>
      <trkpt lat="42.30441" lon="0.93603">
        <ele>795.6</ele>
        <time>2022-05-23 06:42:09</time>
      </trkpt>
      <trkpt lat="42.30433" lon="0.93605">
        <ele>795.6</ele>
        <time>2022-05-23 06:42:10</time>
      </trkpt>
      <trkpt lat="42.30426" lon="0.93608">
        <ele>795.6</ele>
        <time>2022-05-23 06:42:11</time>
      </trkpt>
      <trkpt lat="42.30419" lon="0.9361">
        <ele>795.4</ele>
        <time>2022-05-23 06:42:12</time>
      </trkpt>
      <trkpt lat="42.30412" lon="0.93612">
        <ele>795.2</ele>
        <time>2022-05-23 06:42:13</time>
      </trkpt>
      <trkpt lat="42.30404" lon="0.93613">
        <ele>795.2</ele>
        <time>2022-05-23 06:42:14</time>
      </trkpt>
      <trkpt lat="42.30397" lon="0.93614">
        <ele>794.8</ele>
        <time>2022-05-23 06:42:15</time>
      </trkpt>
      <trkpt lat="42.3039" lon="0.93616">
        <ele>794.6</ele>
        <time>2022-05-23 06:42:16</time>
      </trkpt>
      <trkpt lat="42.30382" lon="0.93617">
        <ele>794.4</ele>
        <time>2022-05-23 06:42:17</time>
      </trkpt>
      <trkpt lat="42.30374" lon="0.93618">
        <ele>794.2</ele>
        <time>2022-05-23 06:42:18</time>
      </trkpt>
      <trkpt lat="42.30366" lon="0.9362">
        <ele>793.8</ele>
        <time>2022-05-23 06:42:19</time>
      </trkpt>
      <trkpt lat="42.30358" lon="0.93621">
        <ele>793.6</ele>
        <time>2022-05-23 06:42:20</time>
      </trkpt>
      <trkpt lat="42.3035" lon="0.93623">
        <ele>793.4</ele>
        <time>2022-05-23 06:42:21</time>
      </trkpt>
      <trkpt lat="42.30343" lon="0.93624">
        <ele>793.2</ele>
        <time>2022-05-23 06:42:22</time>
      </trkpt>
      <trkpt lat="42.30335" lon="0.93625">
        <ele>792.8</ele>
        <time>2022-05-23 06:42:23</time>
      </trkpt>
      <trkpt lat="42.30326" lon="0.93625">
        <ele>792.6</ele>
        <time>2022-05-23 06:42:24</time>
      </trkpt>
      <trkpt lat="42.30318" lon="0.93625">
        <ele>792.2</ele>
        <time>2022-05-23 06:42:25</time>
      </trkpt>
      <trkpt lat="42.3031" lon="0.93625">
        <ele>792</ele>
        <time>2022-05-23 06:42:26</time>
      </trkpt>
      <trkpt lat="42.30302" lon="0.93625">
        <ele>791.6</ele>
        <time>2022-05-23 06:42:27</time>
      </trkpt>
      <trkpt lat="42.30294" lon="0.93625">
        <ele>791.2</ele>
        <time>2022-05-23 06:42:28</time>
      </trkpt>
      <trkpt lat="42.30285" lon="0.93624">
        <ele>791</ele>
        <time>2022-05-23 06:42:29</time>
      </trkpt>
      <trkpt lat="42.30277" lon="0.93624">
        <ele>790.6</ele>
        <time>2022-05-23 06:42:30</time>
      </trkpt>
      <trkpt lat="42.30268" lon="0.93623">
        <ele>790.2</ele>
        <time>2022-05-23 06:42:31</time>
      </trkpt>
      <trkpt lat="42.3026" lon="0.93622">
        <ele>790</ele>
        <time>2022-05-23 06:42:32</time>
      </trkpt>
      <trkpt lat="42.30251" lon="0.93622">
        <ele>789.6</ele>
        <time>2022-05-23 06:42:33</time>
      </trkpt>
      <trkpt lat="42.30242" lon="0.93622">
        <ele>789.2</ele>
        <time>2022-05-23 06:42:34</time>
      </trkpt>
      <trkpt lat="42.30234" lon="0.93621">
        <ele>789</ele>
        <time>2022-05-23 06:42:35</time>
      </trkpt>
      <trkpt lat="42.30225" lon="0.9362">
        <ele>788.6</ele>
        <time>2022-05-23 06:42:36</time>
      </trkpt>
      <trkpt lat="42.30216" lon="0.9362">
        <ele>788.4</ele>
        <time>2022-05-23 06:42:37</time>
      </trkpt>
      <trkpt lat="42.30208" lon="0.93619">
        <ele>788</ele>
        <time>2022-05-23 06:42:38</time>
      </trkpt>
      <trkpt lat="42.30199" lon="0.93618">
        <ele>787.6</ele>
        <time>2022-05-23 06:42:39</time>
      </trkpt>
      <trkpt lat="42.3019" lon="0.93617">
        <ele>787.4</ele>
        <time>2022-05-23 06:42:40</time>
      </trkpt>
      <trkpt lat="42.30181" lon="0.93617">
        <ele>787</ele>
        <time>2022-05-23 06:42:41</time>
      </trkpt>
      <trkpt lat="42.30173" lon="0.93617">
        <ele>786.6</ele>
        <time>2022-05-23 06:42:42</time>
      </trkpt>
      <trkpt lat="42.30164" lon="0.93616">
        <ele>786.4</ele>
        <time>2022-05-23 06:42:43</time>
      </trkpt>
      <trkpt lat="42.30155" lon="0.93616">
        <ele>786</ele>
        <time>2022-05-23 06:42:44</time>
      </trkpt>
      <trkpt lat="42.30146" lon="0.93615">
        <ele>785.8</ele>
        <time>2022-05-23 06:42:45</time>
      </trkpt>
      <trkpt lat="42.30137" lon="0.93614">
        <ele>785.4</ele>
        <time>2022-05-23 06:42:46</time>
      </trkpt>
      <trkpt lat="42.30128" lon="0.93613">
        <ele>785</ele>
        <time>2022-05-23 06:42:47</time>
      </trkpt>
      <trkpt lat="42.30119" lon="0.93612">
        <ele>784.8</ele>
        <time>2022-05-23 06:42:48</time>
      </trkpt>
      <trkpt lat="42.3011" lon="0.93611">
        <ele>784.4</ele>
        <time>2022-05-23 06:42:49</time>
      </trkpt>
      <trkpt lat="42.30101" lon="0.9361">
        <ele>784</ele>
        <time>2022-05-23 06:42:50</time>
      </trkpt>
      <trkpt lat="42.30093" lon="0.93609">
        <ele>783.6</ele>
        <time>2022-05-23 06:42:51</time>
      </trkpt>
      <trkpt lat="42.30083" lon="0.93608">
        <ele>783.2</ele>
        <time>2022-05-23 06:42:52</time>
      </trkpt>
      <trkpt lat="42.30073" lon="0.93607">
        <ele>782.8</ele>
        <time>2022-05-23 06:42:53</time>
      </trkpt>
      <trkpt lat="42.30064" lon="0.93605">
        <ele>782.4</ele>
        <time>2022-05-23 06:42:54</time>
      </trkpt>
      <trkpt lat="42.30055" lon="0.93604">
        <ele>782</ele>
        <time>2022-05-23 06:42:55</time>
      </trkpt>
      <trkpt lat="42.30046" lon="0.93604">
        <ele>781.6</ele>
        <time>2022-05-23 06:42:56</time>
      </trkpt>
      <trkpt lat="42.30037" lon="0.93604">
        <ele>781</ele>
        <time>2022-05-23 06:42:57</time>
      </trkpt>
      <trkpt lat="42.30029" lon="0.93602">
        <ele>780.6</ele>
        <time>2022-05-23 06:42:58</time>
      </trkpt>
      <trkpt lat="42.3002" lon="0.936">
        <ele>780.2</ele>
        <time>2022-05-23 06:42:59</time>
      </trkpt>
      <trkpt lat="42.30011" lon="0.93601">
        <ele>779.6</ele>
        <time>2022-05-23 06:43:00</time>
      </trkpt>
      <trkpt lat="42.30001" lon="0.936">
        <ele>779.2</ele>
        <time>2022-05-23 06:43:01</time>
      </trkpt>
      <trkpt lat="42.29991" lon="0.936">
        <ele>778.8</ele>
        <time>2022-05-23 06:43:02</time>
      </trkpt>
      <trkpt lat="42.29981" lon="0.936">
        <ele>778.2</ele>
        <time>2022-05-23 06:43:03</time>
      </trkpt>
      <trkpt lat="42.29971" lon="0.93599">
        <ele>777.8</ele>
        <time>2022-05-23 06:43:04</time>
      </trkpt>
      <trkpt lat="42.29962" lon="0.93598">
        <ele>777.2</ele>
        <time>2022-05-23 06:43:05</time>
      </trkpt>
      <trkpt lat="42.29952" lon="0.93597">
        <ele>776.6</ele>
        <time>2022-05-23 06:43:06</time>
      </trkpt>
      <trkpt lat="42.29943" lon="0.93596">
        <ele>776</ele>
        <time>2022-05-23 06:43:07</time>
      </trkpt>
      <trkpt lat="42.29933" lon="0.93596">
        <ele>775.6</ele>
        <time>2022-05-23 06:43:08</time>
      </trkpt>
      <trkpt lat="42.29924" lon="0.93594">
        <ele>775</ele>
        <time>2022-05-23 06:43:09</time>
      </trkpt>
      <trkpt lat="42.29914" lon="0.93594">
        <ele>774.4</ele>
        <time>2022-05-23 06:43:10</time>
      </trkpt>
      <trkpt lat="42.29903" lon="0.93593">
        <ele>773.8</ele>
        <time>2022-05-23 06:43:11</time>
      </trkpt>
      <trkpt lat="42.29893" lon="0.93592">
        <ele>773.4</ele>
        <time>2022-05-23 06:43:12</time>
      </trkpt>
      <trkpt lat="42.29882" lon="0.93591">
        <ele>772.8</ele>
        <time>2022-05-23 06:43:13</time>
      </trkpt>
      <trkpt lat="42.29872" lon="0.93591">
        <ele>772.2</ele>
        <time>2022-05-23 06:43:14</time>
      </trkpt>
      <trkpt lat="42.29862" lon="0.9359">
        <ele>771.6</ele>
        <time>2022-05-23 06:43:15</time>
      </trkpt>
      <trkpt lat="42.29851" lon="0.9359">
        <ele>771.2</ele>
        <time>2022-05-23 06:43:16</time>
      </trkpt>
      <trkpt lat="42.29841" lon="0.93588">
        <ele>770.6</ele>
        <time>2022-05-23 06:43:17</time>
      </trkpt>
      <trkpt lat="42.29831" lon="0.93587">
        <ele>770</ele>
        <time>2022-05-23 06:43:18</time>
      </trkpt>
      <trkpt lat="42.29822" lon="0.93586">
        <ele>769.4</ele>
        <time>2022-05-23 06:43:19</time>
      </trkpt>
      <trkpt lat="42.29811" lon="0.93586">
        <ele>769</ele>
        <time>2022-05-23 06:43:20</time>
      </trkpt>
      <trkpt lat="42.29801" lon="0.93585">
        <ele>768.4</ele>
        <time>2022-05-23 06:43:21</time>
      </trkpt>
      <trkpt lat="42.29792" lon="0.93584">
        <ele>767.8</ele>
        <time>2022-05-23 06:43:22</time>
      </trkpt>
      <trkpt lat="42.29782" lon="0.93583">
        <ele>767.4</ele>
        <time>2022-05-23 06:43:23</time>
      </trkpt>
      <trkpt lat="42.29772" lon="0.93584">
        <ele>767</ele>
        <time>2022-05-23 06:43:24</time>
      </trkpt>
      <trkpt lat="42.29762" lon="0.93584">
        <ele>766.6</ele>
        <time>2022-05-23 06:43:25</time>
      </trkpt>
      <trkpt lat="42.29751" lon="0.93582">
        <ele>766.2</ele>
        <time>2022-05-23 06:43:26</time>
      </trkpt>
      <trkpt lat="42.29741" lon="0.93582">
        <ele>765.8</ele>
        <time>2022-05-23 06:43:27</time>
      </trkpt>
      <trkpt lat="42.29731" lon="0.93582">
        <ele>765.4</ele>
        <time>2022-05-23 06:43:28</time>
      </trkpt>
      <trkpt lat="42.29722" lon="0.93581">
        <ele>765.2</ele>
        <time>2022-05-23 06:43:29</time>
      </trkpt>
      <trkpt lat="42.29713" lon="0.9358">
        <ele>764.8</ele>
        <time>2022-05-23 06:43:30</time>
      </trkpt>
      <trkpt lat="42.29703" lon="0.93578">
        <ele>764.6</ele>
        <time>2022-05-23 06:43:31</time>
      </trkpt>
      <trkpt lat="42.29693" lon="0.93577">
        <ele>764.4</ele>
        <time>2022-05-23 06:43:32</time>
      </trkpt>
      <trkpt lat="42.29684" lon="0.93576">
        <ele>764.2</ele>
        <time>2022-05-23 06:43:33</time>
      </trkpt>
      <trkpt lat="42.29674" lon="0.93573">
        <ele>764</ele>
        <time>2022-05-23 06:43:34</time>
      </trkpt>
      <trkpt lat="42.29666" lon="0.93572">
        <ele>763.8</ele>
        <time>2022-05-23 06:43:35</time>
      </trkpt>
      <trkpt lat="42.29656" lon="0.93571">
        <ele>763.6</ele>
        <time>2022-05-23 06:43:36</time>
      </trkpt>
      <trkpt lat="42.29647" lon="0.9357">
        <ele>763.4</ele>
        <time>2022-05-23 06:43:37</time>
      </trkpt>
      <trkpt lat="42.29638" lon="0.93569">
        <ele>763.2</ele>
        <time>2022-05-23 06:43:38</time>
      </trkpt>
      <trkpt lat="42.29629" lon="0.93568">
        <ele>763</ele>
        <time>2022-05-23 06:43:39</time>
      </trkpt>
      <trkpt lat="42.29621" lon="0.93568">
        <ele>762.8</ele>
        <time>2022-05-23 06:43:40</time>
      </trkpt>
      <trkpt lat="42.29612" lon="0.93568">
        <ele>762.4</ele>
        <time>2022-05-23 06:43:41</time>
      </trkpt>
      <trkpt lat="42.29603" lon="0.93568">
        <ele>762.2</ele>
        <time>2022-05-23 06:43:42</time>
      </trkpt>
      <trkpt lat="42.29595" lon="0.93568">
        <ele>762.2</ele>
        <time>2022-05-23 06:43:43</time>
      </trkpt>
      <trkpt lat="42.29585" lon="0.93569">
        <ele>762</ele>
        <time>2022-05-23 06:43:44</time>
      </trkpt>
      <trkpt lat="42.29577" lon="0.9357">
        <ele>761.6</ele>
        <time>2022-05-23 06:43:45</time>
      </trkpt>
      <trkpt lat="42.29568" lon="0.93571">
        <ele>761.4</ele>
        <time>2022-05-23 06:43:46</time>
      </trkpt>
      <trkpt lat="42.29559" lon="0.93572">
        <ele>761.2</ele>
        <time>2022-05-23 06:43:47</time>
      </trkpt>
      <trkpt lat="42.29551" lon="0.93573">
        <ele>761</ele>
        <time>2022-05-23 06:43:48</time>
      </trkpt>
      <trkpt lat="42.29542" lon="0.93574">
        <ele>761</ele>
        <time>2022-05-23 06:43:49</time>
      </trkpt>
      <trkpt lat="42.29534" lon="0.93576">
        <ele>760.6</ele>
        <time>2022-05-23 06:43:50</time>
      </trkpt>
      <trkpt lat="42.29526" lon="0.93577">
        <ele>760.4</ele>
        <time>2022-05-23 06:43:51</time>
      </trkpt>
      <trkpt lat="42.29517" lon="0.93579">
        <ele>760.2</ele>
        <time>2022-05-23 06:43:52</time>
      </trkpt>
      <trkpt lat="42.29509" lon="0.93581">
        <ele>760.2</ele>
        <time>2022-05-23 06:43:53</time>
      </trkpt>
      <trkpt lat="42.29501" lon="0.93583">
        <ele>760</ele>
        <time>2022-05-23 06:43:54</time>
      </trkpt>
      <trkpt lat="42.29493" lon="0.93585">
        <ele>759.8</ele>
        <time>2022-05-23 06:43:55</time>
      </trkpt>
      <trkpt lat="42.29484" lon="0.93587">
        <ele>759.6</ele>
        <time>2022-05-23 06:43:56</time>
      </trkpt>
      <trkpt lat="42.29476" lon="0.93589">
        <ele>759.4</ele>
        <time>2022-05-23 06:43:57</time>
      </trkpt>
      <trkpt lat="42.29468" lon="0.93591">
        <ele>759.2</ele>
        <time>2022-05-23 06:43:58</time>
      </trkpt>
      <trkpt lat="42.2946" lon="0.93593">
        <ele>759</ele>
        <time>2022-05-23 06:43:59</time>
      </trkpt>
      <trkpt lat="42.29451" lon="0.93595">
        <ele>758.8</ele>
        <time>2022-05-23 06:44:00</time>
      </trkpt>
      <trkpt lat="42.29444" lon="0.93596">
        <ele>758.6</ele>
        <time>2022-05-23 06:44:01</time>
      </trkpt>
      <trkpt lat="42.29435" lon="0.93599">
        <ele>758.2</ele>
        <time>2022-05-23 06:44:02</time>
      </trkpt>
      <trkpt lat="42.29427" lon="0.93601">
        <ele>758</ele>
        <time>2022-05-23 06:44:03</time>
      </trkpt>
      <trkpt lat="42.29419" lon="0.93603">
        <ele>757.8</ele>
        <time>2022-05-23 06:44:04</time>
      </trkpt>
      <trkpt lat="42.29411" lon="0.93604">
        <ele>757.6</ele>
        <time>2022-05-23 06:44:05</time>
      </trkpt>
      <trkpt lat="42.29403" lon="0.93606">
        <ele>757.4</ele>
        <time>2022-05-23 06:44:06</time>
      </trkpt>
      <trkpt lat="42.29395" lon="0.93607">
        <ele>757.2</ele>
        <time>2022-05-23 06:44:07</time>
      </trkpt>
      <trkpt lat="42.29387" lon="0.93609">
        <ele>757.2</ele>
        <time>2022-05-23 06:44:08</time>
      </trkpt>
      <trkpt lat="42.29381" lon="0.9361">
        <ele>757</ele>
        <time>2022-05-23 06:44:09</time>
      </trkpt>
      <trkpt lat="42.29371" lon="0.93611">
        <ele>756.8</ele>
        <time>2022-05-23 06:44:10</time>
      </trkpt>
      <trkpt lat="42.29366" lon="0.93612">
        <ele>756.6</ele>
        <time>2022-05-23 06:44:11</time>
      </trkpt>
      <trkpt lat="42.29356" lon="0.93612">
        <ele>756.4</ele>
        <time>2022-05-23 06:44:12</time>
      </trkpt>
      <trkpt lat="42.29351" lon="0.93613">
        <ele>756.2</ele>
        <time>2022-05-23 06:44:13</time>
      </trkpt>
      <trkpt lat="42.29341" lon="0.93614">
        <ele>755.8</ele>
        <time>2022-05-23 06:44:14</time>
      </trkpt>
      <trkpt lat="42.29336" lon="0.93614">
        <ele>755.6</ele>
        <time>2022-05-23 06:44:15</time>
      </trkpt>
      <trkpt lat="42.29325" lon="0.93614">
        <ele>755.6</ele>
        <time>2022-05-23 06:44:16</time>
      </trkpt>
      <trkpt lat="42.29321" lon="0.93614">
        <ele>755.6</ele>
        <time>2022-05-23 06:44:17</time>
      </trkpt>
      <trkpt lat="42.29314" lon="0.93615">
        <ele>755.6</ele>
        <time>2022-05-23 06:44:18</time>
      </trkpt>
      <trkpt lat="42.29312" lon="0.93615">
        <ele>755.6</ele>
        <time>2022-05-23 06:44:19</time>
      </trkpt>
      <trkpt lat="42.2931" lon="0.93618">
        <ele>755.6</ele>
        <time>2022-05-23 06:44:20</time>
      </trkpt>
      <trkpt lat="42.2931" lon="0.93621">
        <ele>755.8</ele>
        <time>2022-05-23 06:44:21</time>
      </trkpt>
      <trkpt lat="42.29311" lon="0.93622">
        <ele>755.8</ele>
        <time>2022-05-23 06:44:22</time>
      </trkpt>
      <trkpt lat="42.29313" lon="0.93621">
        <ele>755.8</ele>
        <time>2022-05-23 06:44:23</time>
      </trkpt>
      <trkpt lat="42.29315" lon="0.93621">
        <ele>755.8</ele>
        <time>2022-05-23 06:44:24</time>
      </trkpt>
      <trkpt lat="42.29317" lon="0.93621">
        <ele>755.8</ele>
        <time>2022-05-23 06:44:25</time>
      </trkpt>
      <trkpt lat="42.2932" lon="0.9362">
        <ele>755.8</ele>
        <time>2022-05-23 06:44:26</time>
      </trkpt>
      <trkpt lat="42.29322" lon="0.9362">
        <ele>756</ele>
        <time>2022-05-23 06:44:27</time>
      </trkpt>
      <trkpt lat="42.29324" lon="0.93619">
        <ele>756</ele>
        <time>2022-05-23 06:44:28</time>
      </trkpt>
      <trkpt lat="42.29326" lon="0.93618">
        <ele>756</ele>
        <time>2022-05-23 06:44:29</time>
      </trkpt>
      <trkpt lat="42.29331" lon="0.93619">
        <ele>756</ele>
        <time>2022-05-23 06:44:30</time>
      </trkpt>
      <trkpt lat="42.29334" lon="0.93619">
        <ele>756</ele>
        <time>2022-05-23 06:44:31</time>
      </trkpt>
      <trkpt lat="42.29336" lon="0.93618">
        <ele>756</ele>
        <time>2022-05-23 06:44:32</time>
      </trkpt>
      <trkpt lat="42.29341" lon="0.93617">
        <ele>756</ele>
        <time>2022-05-23 06:44:33</time>
      </trkpt>
      <trkpt lat="42.29345" lon="0.93617">
        <ele>756</ele>
        <time>2022-05-23 06:44:34</time>
      </trkpt>
      <trkpt lat="42.29347" lon="0.93617">
        <ele>756</ele>
        <time>2022-05-23 06:44:35</time>
      </trkpt>
      <trkpt lat="42.29348" lon="0.93616">
        <ele>756</ele>
        <time>2022-05-23 06:44:36</time>
      </trkpt>
      <trkpt lat="42.29356" lon="0.93617">
        <ele>756.2</ele>
        <time>2022-05-23 06:44:37</time>
      </trkpt>
      <trkpt lat="42.2936" lon="0.93617">
        <ele>756.2</ele>
        <time>2022-05-23 06:44:38</time>
      </trkpt>
      <trkpt lat="42.29364" lon="0.93617">
        <ele>756.4</ele>
        <time>2022-05-23 06:44:39</time>
      </trkpt>
      <trkpt lat="42.29367" lon="0.93616">
        <ele>756.4</ele>
        <time>2022-05-23 06:44:40</time>
      </trkpt>
      <trkpt lat="42.29371" lon="0.93616">
        <ele>756.4</ele>
        <time>2022-05-23 06:44:41</time>
      </trkpt>
      <trkpt lat="42.29374" lon="0.93616">
        <ele>756.4</ele>
        <time>2022-05-23 06:44:42</time>
      </trkpt>
      <trkpt lat="42.29378" lon="0.93615">
        <ele>756.6</ele>
        <time>2022-05-23 06:44:43</time>
      </trkpt>
      <trkpt lat="42.29382" lon="0.93615">
        <ele>756.6</ele>
        <time>2022-05-23 06:44:44</time>
      </trkpt>
      <trkpt lat="42.29387" lon="0.93615">
        <ele>756.6</ele>
        <time>2022-05-23 06:44:45</time>
      </trkpt>
      <trkpt lat="42.29391" lon="0.93615">
        <ele>756.6</ele>
        <time>2022-05-23 06:44:46</time>
      </trkpt>
      <trkpt lat="42.29395" lon="0.93615">
        <ele>756.6</ele>
        <time>2022-05-23 06:44:47</time>
      </trkpt>
      <trkpt lat="42.29399" lon="0.93614">
        <ele>756.6</ele>
        <time>2022-05-23 06:44:48</time>
      </trkpt>
      <trkpt lat="42.29403" lon="0.93614">
        <ele>756.8</ele>
        <time>2022-05-23 06:44:49</time>
      </trkpt>
      <trkpt lat="42.29407" lon="0.93613">
        <ele>756.8</ele>
        <time>2022-05-23 06:44:50</time>
      </trkpt>
      <trkpt lat="42.29412" lon="0.93613">
        <ele>756.8</ele>
        <time>2022-05-23 06:44:51</time>
      </trkpt>
      <trkpt lat="42.29417" lon="0.93612">
        <ele>756.8</ele>
        <time>2022-05-23 06:44:52</time>
      </trkpt>
      <trkpt lat="42.29422" lon="0.93612">
        <ele>757</ele>
        <time>2022-05-23 06:44:53</time>
      </trkpt>
      <trkpt lat="42.29424" lon="0.93612">
        <ele>757</ele>
        <time>2022-05-23 06:44:54</time>
      </trkpt>
      <trkpt lat="42.2943" lon="0.93612">
        <ele>757.2</ele>
        <time>2022-05-23 06:44:55</time>
      </trkpt>
      <trkpt lat="42.29434" lon="0.93613">
        <ele>757.4</ele>
        <time>2022-05-23 06:44:56</time>
      </trkpt>
      <trkpt lat="42.29435" lon="0.93616">
        <ele>757.4</ele>
        <time>2022-05-23 06:44:57</time>
      </trkpt>
      <trkpt lat="42.29435" lon="0.93618">
        <ele>757.4</ele>
        <time>2022-05-23 06:44:58</time>
      </trkpt>
      <trkpt lat="42.29432" lon="0.9362">
        <ele>757.4</ele>
        <time>2022-05-23 06:44:59</time>
      </trkpt>
      <trkpt lat="42.29428" lon="0.9362">
        <ele>757.4</ele>
        <time>2022-05-23 06:45:00</time>
      </trkpt>
      <trkpt lat="42.29425" lon="0.9362">
        <ele>757.4</ele>
        <time>2022-05-23 06:45:01</time>
      </trkpt>
      <trkpt lat="42.29421" lon="0.93621">
        <ele>757.4</ele>
        <time>2022-05-23 06:45:02</time>
      </trkpt>
      <trkpt lat="42.29417" lon="0.93622">
        <ele>757.2</ele>
        <time>2022-05-23 06:45:03</time>
      </trkpt>
      <trkpt lat="42.29412" lon="0.93624">
        <ele>757</ele>
        <time>2022-05-23 06:45:04</time>
      </trkpt>
      <trkpt lat="42.29408" lon="0.93625">
        <ele>756.8</ele>
        <time>2022-05-23 06:45:05</time>
      </trkpt>
      <trkpt lat="42.29403" lon="0.93627">
        <ele>756.6</ele>
        <time>2022-05-23 06:45:06</time>
      </trkpt>
      <trkpt lat="42.29399" lon="0.93628">
        <ele>756.6</ele>
        <time>2022-05-23 06:45:07</time>
      </trkpt>
      <trkpt lat="42.29395" lon="0.93629">
        <ele>756.4</ele>
        <time>2022-05-23 06:45:08</time>
      </trkpt>
      <trkpt lat="42.2939" lon="0.93631">
        <ele>756.4</ele>
        <time>2022-05-23 06:45:09</time>
      </trkpt>
      <trkpt lat="42.29386" lon="0.93632">
        <ele>756.2</ele>
        <time>2022-05-23 06:45:10</time>
      </trkpt>
      <trkpt lat="42.29381" lon="0.93634">
        <ele>756.2</ele>
        <time>2022-05-23 06:45:11</time>
      </trkpt>
      <trkpt lat="42.29377" lon="0.93636">
        <ele>756</ele>
        <time>2022-05-23 06:45:12</time>
      </trkpt>
      <trkpt lat="42.29372" lon="0.93639">
        <ele>756</ele>
        <time>2022-05-23 06:45:13</time>
      </trkpt>
      <trkpt lat="42.29367" lon="0.93642">
        <ele>755.8</ele>
        <time>2022-05-23 06:45:14</time>
      </trkpt>
      <trkpt lat="42.29362" lon="0.93645">
        <ele>755.6</ele>
        <time>2022-05-23 06:45:15</time>
      </trkpt>
      <trkpt lat="42.29358" lon="0.93649">
        <ele>755.4</ele>
        <time>2022-05-23 06:45:16</time>
      </trkpt>
      <trkpt lat="42.29354" lon="0.93654">
        <ele>755.2</ele>
        <time>2022-05-23 06:45:17</time>
      </trkpt>
      <trkpt lat="42.2935" lon="0.93658">
        <ele>755</ele>
        <time>2022-05-23 06:45:18</time>
      </trkpt>
      <trkpt lat="42.29345" lon="0.93664">
        <ele>754.8</ele>
        <time>2022-05-23 06:45:19</time>
      </trkpt>
      <trkpt lat="42.29341" lon="0.93669">
        <ele>754.6</ele>
        <time>2022-05-23 06:45:20</time>
      </trkpt>
      <trkpt lat="42.29337" lon="0.93675">
        <ele>754.6</ele>
        <time>2022-05-23 06:45:21</time>
      </trkpt>
      <trkpt lat="42.29333" lon="0.93682">
        <ele>754.4</ele>
        <time>2022-05-23 06:45:22</time>
      </trkpt>
      <trkpt lat="42.2933" lon="0.93688">
        <ele>754.4</ele>
        <time>2022-05-23 06:45:23</time>
      </trkpt>
      <trkpt lat="42.29327" lon="0.93694">
        <ele>754.2</ele>
        <time>2022-05-23 06:45:24</time>
      </trkpt>
      <trkpt lat="42.29324" lon="0.937">
        <ele>754.2</ele>
        <time>2022-05-23 06:45:25</time>
      </trkpt>
      <trkpt lat="42.2932" lon="0.93706">
        <ele>754</ele>
        <time>2022-05-23 06:45:26</time>
      </trkpt>
      <trkpt lat="42.29315" lon="0.93711">
        <ele>753.8</ele>
        <time>2022-05-23 06:45:27</time>
      </trkpt>
      <trkpt lat="42.2931" lon="0.93716">
        <ele>753.6</ele>
        <time>2022-05-23 06:45:28</time>
      </trkpt>
      <trkpt lat="42.29305" lon="0.9372">
        <ele>753.4</ele>
        <time>2022-05-23 06:45:29</time>
      </trkpt>
      <trkpt lat="42.29299" lon="0.93724">
        <ele>753.2</ele>
        <time>2022-05-23 06:45:30</time>
      </trkpt>
      <trkpt lat="42.29293" lon="0.93728">
        <ele>753</ele>
        <time>2022-05-23 06:45:31</time>
      </trkpt>
      <trkpt lat="42.29288" lon="0.93731">
        <ele>752.8</ele>
        <time>2022-05-23 06:45:32</time>
      </trkpt>
      <trkpt lat="42.29281" lon="0.93734">
        <ele>752.6</ele>
        <time>2022-05-23 06:45:33</time>
      </trkpt>
      <trkpt lat="42.29274" lon="0.93735">
        <ele>752.4</ele>
        <time>2022-05-23 06:45:34</time>
      </trkpt>
      <trkpt lat="42.29267" lon="0.93736">
        <ele>752</ele>
        <time>2022-05-23 06:45:35</time>
      </trkpt>
      <trkpt lat="42.29261" lon="0.93737">
        <ele>751.8</ele>
        <time>2022-05-23 06:45:36</time>
      </trkpt>
      <trkpt lat="42.29254" lon="0.93739">
        <ele>751.6</ele>
        <time>2022-05-23 06:45:37</time>
      </trkpt>
      <trkpt lat="42.29246" lon="0.9374">
        <ele>751.2</ele>
        <time>2022-05-23 06:45:38</time>
      </trkpt>
      <trkpt lat="42.29239" lon="0.93742">
        <ele>751</ele>
        <time>2022-05-23 06:45:39</time>
      </trkpt>
      <trkpt lat="42.29233" lon="0.93744">
        <ele>750.8</ele>
        <time>2022-05-23 06:45:40</time>
      </trkpt>
      <trkpt lat="42.29226" lon="0.93746">
        <ele>750.8</ele>
        <time>2022-05-23 06:45:41</time>
      </trkpt>
      <trkpt lat="42.29219" lon="0.93748">
        <ele>750.6</ele>
        <time>2022-05-23 06:45:42</time>
      </trkpt>
      <trkpt lat="42.29213" lon="0.9375">
        <ele>750.6</ele>
        <time>2022-05-23 06:45:43</time>
      </trkpt>
      <trkpt lat="42.29206" lon="0.93752">
        <ele>750.6</ele>
        <time>2022-05-23 06:45:44</time>
      </trkpt>
      <trkpt lat="42.292" lon="0.93754">
        <ele>750.6</ele>
        <time>2022-05-23 06:45:45</time>
      </trkpt>
      <trkpt lat="42.29194" lon="0.93756">
        <ele>750.4</ele>
        <time>2022-05-23 06:45:46</time>
      </trkpt>
      <trkpt lat="42.29187" lon="0.93757">
        <ele>750.4</ele>
        <time>2022-05-23 06:45:47</time>
      </trkpt>
      <trkpt lat="42.2918" lon="0.93758">
        <ele>750</ele>
        <time>2022-05-23 06:45:48</time>
      </trkpt>
      <trkpt lat="42.29173" lon="0.93758">
        <ele>749.8</ele>
        <time>2022-05-23 06:45:49</time>
      </trkpt>
      <trkpt lat="42.29165" lon="0.93758">
        <ele>749.4</ele>
        <time>2022-05-23 06:45:50</time>
      </trkpt>
      <trkpt lat="42.29158" lon="0.93757">
        <ele>749.2</ele>
        <time>2022-05-23 06:45:51</time>
      </trkpt>
      <trkpt lat="42.2915" lon="0.93757">
        <ele>748.6</ele>
        <time>2022-05-23 06:45:52</time>
      </trkpt>
      <trkpt lat="42.29142" lon="0.93758">
        <ele>748.2</ele>
        <time>2022-05-23 06:45:53</time>
      </trkpt>
      <trkpt lat="42.29135" lon="0.93759">
        <ele>747.8</ele>
        <time>2022-05-23 06:45:54</time>
      </trkpt>
      <trkpt lat="42.29127" lon="0.93764">
        <ele>747.2</ele>
        <time>2022-05-23 06:45:55</time>
      </trkpt>
      <trkpt lat="42.2912" lon="0.9377">
        <ele>746.8</ele>
        <time>2022-05-23 06:45:56</time>
      </trkpt>
      <trkpt lat="42.29113" lon="0.93777">
        <ele>746.2</ele>
        <time>2022-05-23 06:45:57</time>
      </trkpt>
      <trkpt lat="42.29104" lon="0.93782">
        <ele>745.4</ele>
        <time>2022-05-23 06:45:58</time>
      </trkpt>
      <trkpt lat="42.29094" lon="0.93786">
        <ele>744.6</ele>
        <time>2022-05-23 06:45:59</time>
      </trkpt>
      <trkpt lat="42.29085" lon="0.93789">
        <ele>743.8</ele>
        <time>2022-05-23 06:46:00</time>
      </trkpt>
      <trkpt lat="42.29076" lon="0.93789">
        <ele>743</ele>
        <time>2022-05-23 06:46:01</time>
      </trkpt>
      <trkpt lat="42.29065" lon="0.9379">
        <ele>742.4</ele>
        <time>2022-05-23 06:46:02</time>
      </trkpt>
      <trkpt lat="42.29054" lon="0.9379">
        <ele>741.8</ele>
        <time>2022-05-23 06:46:03</time>
      </trkpt>
      <trkpt lat="42.29044" lon="0.9379">
        <ele>741</ele>
        <time>2022-05-23 06:46:04</time>
      </trkpt>
      <trkpt lat="42.29032" lon="0.9379">
        <ele>740.4</ele>
        <time>2022-05-23 06:46:05</time>
      </trkpt>
      <trkpt lat="42.2902" lon="0.93789">
        <ele>739.6</ele>
        <time>2022-05-23 06:46:06</time>
      </trkpt>
      <trkpt lat="42.29009" lon="0.93788">
        <ele>739</ele>
        <time>2022-05-23 06:46:07</time>
      </trkpt>
      <trkpt lat="42.28998" lon="0.93787">
        <ele>738.4</ele>
        <time>2022-05-23 06:46:08</time>
      </trkpt>
      <trkpt lat="42.28987" lon="0.93786">
        <ele>738</ele>
        <time>2022-05-23 06:46:09</time>
      </trkpt>
      <trkpt lat="42.28976" lon="0.93785">
        <ele>737.6</ele>
        <time>2022-05-23 06:46:10</time>
      </trkpt>
      <trkpt lat="42.28966" lon="0.93784">
        <ele>737.2</ele>
        <time>2022-05-23 06:46:11</time>
      </trkpt>
      <trkpt lat="42.28955" lon="0.93783">
        <ele>737</ele>
        <time>2022-05-23 06:46:12</time>
      </trkpt>
      <trkpt lat="42.28945" lon="0.93783">
        <ele>736.8</ele>
        <time>2022-05-23 06:46:13</time>
      </trkpt>
      <trkpt lat="42.28935" lon="0.93782">
        <ele>736.8</ele>
        <time>2022-05-23 06:46:14</time>
      </trkpt>
      <trkpt lat="42.28927" lon="0.93781">
        <ele>736.8</ele>
        <time>2022-05-23 06:46:15</time>
      </trkpt>
      <trkpt lat="42.28917" lon="0.93777">
        <ele>736.8</ele>
        <time>2022-05-23 06:46:16</time>
      </trkpt>
      <trkpt lat="42.2891" lon="0.93772">
        <ele>736.8</ele>
        <time>2022-05-23 06:46:17</time>
      </trkpt>
      <trkpt lat="42.28902" lon="0.93766">
        <ele>736.8</ele>
        <time>2022-05-23 06:46:18</time>
      </trkpt>
      <trkpt lat="42.28895" lon="0.93759">
        <ele>736.8</ele>
        <time>2022-05-23 06:46:19</time>
      </trkpt>
      <trkpt lat="42.28889" lon="0.93751">
        <ele>736.6</ele>
        <time>2022-05-23 06:46:20</time>
      </trkpt>
      <trkpt lat="42.28882" lon="0.93744">
        <ele>736.2</ele>
        <time>2022-05-23 06:46:21</time>
      </trkpt>
      <trkpt lat="42.28875" lon="0.93737">
        <ele>735.6</ele>
        <time>2022-05-23 06:46:22</time>
      </trkpt>
      <trkpt lat="42.28868" lon="0.93729">
        <ele>735</ele>
        <time>2022-05-23 06:46:23</time>
      </trkpt>
      <trkpt lat="42.28861" lon="0.93722">
        <ele>734.6</ele>
        <time>2022-05-23 06:46:24</time>
      </trkpt>
      <trkpt lat="42.28853" lon="0.93715">
        <ele>734</ele>
        <time>2022-05-23 06:46:25</time>
      </trkpt>
      <trkpt lat="42.28845" lon="0.93707">
        <ele>733.4</ele>
        <time>2022-05-23 06:46:26</time>
      </trkpt>
      <trkpt lat="42.28836" lon="0.937">
        <ele>732.8</ele>
        <time>2022-05-23 06:46:27</time>
      </trkpt>
      <trkpt lat="42.28827" lon="0.93694">
        <ele>732.2</ele>
        <time>2022-05-23 06:46:28</time>
      </trkpt>
      <trkpt lat="42.28818" lon="0.93688">
        <ele>731.6</ele>
        <time>2022-05-23 06:46:29</time>
      </trkpt>
      <trkpt lat="42.28807" lon="0.93685">
        <ele>730.6</ele>
        <time>2022-05-23 06:46:30</time>
      </trkpt>
      <trkpt lat="42.28797" lon="0.93683">
        <ele>729.8</ele>
        <time>2022-05-23 06:46:31</time>
      </trkpt>
      <trkpt lat="42.28786" lon="0.93681">
        <ele>729</ele>
        <time>2022-05-23 06:46:32</time>
      </trkpt>
      <trkpt lat="42.28776" lon="0.93682">
        <ele>728.6</ele>
        <time>2022-05-23 06:46:33</time>
      </trkpt>
      <trkpt lat="42.28763" lon="0.93685">
        <ele>728</ele>
        <time>2022-05-23 06:46:34</time>
      </trkpt>
      <trkpt lat="42.28753" lon="0.93685">
        <ele>727.4</ele>
        <time>2022-05-23 06:46:35</time>
      </trkpt>
      <trkpt lat="42.28742" lon="0.93684">
        <ele>727</ele>
        <time>2022-05-23 06:46:36</time>
      </trkpt>
      <trkpt lat="42.28732" lon="0.93685">
        <ele>726.6</ele>
        <time>2022-05-23 06:46:37</time>
      </trkpt>
      <trkpt lat="42.28722" lon="0.93683">
        <ele>726.6</ele>
        <time>2022-05-23 06:46:38</time>
      </trkpt>
      <trkpt lat="42.28713" lon="0.93679">
        <ele>726.8</ele>
        <time>2022-05-23 06:46:39</time>
      </trkpt>
      <trkpt lat="42.28704" lon="0.93674">
        <ele>726.6</ele>
        <time>2022-05-23 06:46:40</time>
      </trkpt>
      <trkpt lat="42.28694" lon="0.93667">
        <ele>726.6</ele>
        <time>2022-05-23 06:46:41</time>
      </trkpt>
      <trkpt lat="42.28686" lon="0.93662">
        <ele>726.6</ele>
        <time>2022-05-23 06:46:42</time>
      </trkpt>
      <trkpt lat="42.28679" lon="0.93659">
        <ele>727</ele>
        <time>2022-05-23 06:46:43</time>
      </trkpt>
      <trkpt lat="42.28675" lon="0.93656">
        <ele>727</ele>
        <time>2022-05-23 06:46:44</time>
      </trkpt>
      <trkpt lat="42.28672" lon="0.93655">
        <ele>727.2</ele>
        <time>2022-05-23 06:46:45</time>
      </trkpt>
      <trkpt lat="42.28671" lon="0.93658">
        <ele>727.4</ele>
        <time>2022-05-23 06:46:46</time>
      </trkpt>
      <trkpt lat="42.28671" lon="0.93662">
        <ele>727.4</ele>
        <time>2022-05-23 06:46:47</time>
      </trkpt>
      <trkpt lat="42.28673" lon="0.93663">
        <ele>727.2</ele>
        <time>2022-05-23 06:46:48</time>
      </trkpt>
      <trkpt lat="42.28675" lon="0.93663">
        <ele>727.2</ele>
        <time>2022-05-23 06:46:49</time>
      </trkpt>
      <trkpt lat="42.28677" lon="0.93664">
        <ele>727.2</ele>
        <time>2022-05-23 06:46:50</time>
      </trkpt>
      <trkpt lat="42.28679" lon="0.93666">
        <ele>727.2</ele>
        <time>2022-05-23 06:46:51</time>
      </trkpt>
      <trkpt lat="42.2868" lon="0.9367">
        <ele>727</ele>
        <time>2022-05-23 06:46:52</time>
      </trkpt>
      <trkpt lat="42.28679" lon="0.93674">
        <ele>727</ele>
        <time>2022-05-23 06:46:53</time>
      </trkpt>
      <trkpt lat="42.28677" lon="0.93678">
        <ele>727</ele>
        <time>2022-05-23 06:46:54</time>
      </trkpt>
      <trkpt lat="42.28674" lon="0.9368">
        <ele>727</ele>
        <time>2022-05-23 06:46:55</time>
      </trkpt>
      <trkpt lat="42.28671" lon="0.93683">
        <ele>727</ele>
        <time>2022-05-23 06:46:56</time>
      </trkpt>
      <trkpt lat="42.28668" lon="0.93686">
        <ele>727</ele>
        <time>2022-05-23 06:46:57</time>
      </trkpt>
      <trkpt lat="42.28665" lon="0.93689">
        <ele>727</ele>
        <time>2022-05-23 06:46:58</time>
      </trkpt>
      <trkpt lat="42.28662" lon="0.93694">
        <ele>727</ele>
        <time>2022-05-23 06:46:59</time>
      </trkpt>
      <trkpt lat="42.28659" lon="0.93698">
        <ele>727</ele>
        <time>2022-05-23 06:47:00</time>
      </trkpt>
      <trkpt lat="42.28656" lon="0.93702">
        <ele>727</ele>
        <time>2022-05-23 06:47:01</time>
      </trkpt>
      <trkpt lat="42.28653" lon="0.93707">
        <ele>727</ele>
        <time>2022-05-23 06:47:02</time>
      </trkpt>
      <trkpt lat="42.28649" lon="0.93711">
        <ele>727</ele>
        <time>2022-05-23 06:47:03</time>
      </trkpt>
      <trkpt lat="42.28645" lon="0.93715">
        <ele>727</ele>
        <time>2022-05-23 06:47:04</time>
      </trkpt>
      <trkpt lat="42.28641" lon="0.93719">
        <ele>727</ele>
        <time>2022-05-23 06:47:05</time>
      </trkpt>
      <trkpt lat="42.28637" lon="0.93723">
        <ele>727</ele>
        <time>2022-05-23 06:47:06</time>
      </trkpt>
      <trkpt lat="42.28632" lon="0.93725">
        <ele>726.8</ele>
        <time>2022-05-23 06:47:07</time>
      </trkpt>
      <trkpt lat="42.28629" lon="0.93727">
        <ele>727</ele>
        <time>2022-05-23 06:47:08</time>
      </trkpt>
      <trkpt lat="42.28623" lon="0.93731">
        <ele>727</ele>
        <time>2022-05-23 06:47:09</time>
      </trkpt>
      <trkpt lat="42.28618" lon="0.93733">
        <ele>727</ele>
        <time>2022-05-23 06:47:10</time>
      </trkpt>
      <trkpt lat="42.28613" lon="0.93736">
        <ele>727.2</ele>
        <time>2022-05-23 06:47:11</time>
      </trkpt>
      <trkpt lat="42.2861" lon="0.93738">
        <ele>727.4</ele>
        <time>2022-05-23 06:47:12</time>
      </trkpt>
      <trkpt lat="42.28605" lon="0.9374">
        <ele>727.6</ele>
        <time>2022-05-23 06:47:13</time>
      </trkpt>
      <trkpt lat="42.28602" lon="0.93742">
        <ele>727.8</ele>
        <time>2022-05-23 06:47:14</time>
      </trkpt>
      <trkpt lat="42.28598" lon="0.93744">
        <ele>728</ele>
        <time>2022-05-23 06:47:15</time>
      </trkpt>
      <trkpt lat="42.28594" lon="0.93745">
        <ele>728.2</ele>
        <time>2022-05-23 06:47:16</time>
      </trkpt>
      <trkpt lat="42.28591" lon="0.93746">
        <ele>728.4</ele>
        <time>2022-05-23 06:47:17</time>
      </trkpt>
      <trkpt lat="42.28587" lon="0.93746">
        <ele>728.4</ele>
        <time>2022-05-23 06:47:18</time>
      </trkpt>
      <trkpt lat="42.28584" lon="0.93746">
        <ele>728.6</ele>
        <time>2022-05-23 06:47:19</time>
      </trkpt>
      <trkpt lat="42.2858" lon="0.93745">
        <ele>728.8</ele>
        <time>2022-05-23 06:47:20</time>
      </trkpt>
      <trkpt lat="42.28577" lon="0.93746">
        <ele>729</ele>
        <time>2022-05-23 06:47:21</time>
      </trkpt>
      <trkpt lat="42.28574" lon="0.93746">
        <ele>729.4</ele>
        <time>2022-05-23 06:47:22</time>
      </trkpt>
      <trkpt lat="42.2857" lon="0.93746">
        <ele>729.6</ele>
        <time>2022-05-23 06:47:23</time>
      </trkpt>
      <trkpt lat="42.28567" lon="0.93747">
        <ele>729.8</ele>
        <time>2022-05-23 06:47:24</time>
      </trkpt>
      <trkpt lat="42.28565" lon="0.93748">
        <ele>730</ele>
        <time>2022-05-23 06:47:25</time>
      </trkpt>
      <trkpt lat="42.28562" lon="0.9375">
        <ele>730.2</ele>
        <time>2022-05-23 06:47:26</time>
      </trkpt>
      <trkpt lat="42.28559" lon="0.93752">
        <ele>730.2</ele>
        <time>2022-05-23 06:47:27</time>
      </trkpt>
      <trkpt lat="42.28556" lon="0.93754">
        <ele>730.4</ele>
        <time>2022-05-23 06:47:28</time>
      </trkpt>
      <trkpt lat="42.28554" lon="0.93756">
        <ele>730.6</ele>
        <time>2022-05-23 06:47:29</time>
      </trkpt>
      <trkpt lat="42.28551" lon="0.93758">
        <ele>730.8</ele>
        <time>2022-05-23 06:47:30</time>
      </trkpt>
      <trkpt lat="42.28549" lon="0.9376">
        <ele>730.8</ele>
        <time>2022-05-23 06:47:31</time>
      </trkpt>
      <trkpt lat="42.28546" lon="0.93762">
        <ele>731</ele>
        <time>2022-05-23 06:47:32</time>
      </trkpt>
      <trkpt lat="42.28544" lon="0.93764">
        <ele>731.2</ele>
        <time>2022-05-23 06:47:33</time>
      </trkpt>
      <trkpt lat="42.28541" lon="0.93766">
        <ele>731.4</ele>
        <time>2022-05-23 06:47:34</time>
      </trkpt>
      <trkpt lat="42.28539" lon="0.93768">
        <ele>731.6</ele>
        <time>2022-05-23 06:47:35</time>
      </trkpt>
      <trkpt lat="42.28536" lon="0.93769">
        <ele>731.8</ele>
        <time>2022-05-23 06:47:36</time>
      </trkpt>
      <trkpt lat="42.28534" lon="0.93771">
        <ele>731.8</ele>
        <time>2022-05-23 06:47:37</time>
      </trkpt>
      <trkpt lat="42.28532" lon="0.93773">
        <ele>732</ele>
        <time>2022-05-23 06:47:38</time>
      </trkpt>
      <trkpt lat="42.28529" lon="0.93776">
        <ele>732.2</ele>
        <time>2022-05-23 06:47:39</time>
      </trkpt>
      <trkpt lat="42.28527" lon="0.93778">
        <ele>732.4</ele>
        <time>2022-05-23 06:47:40</time>
      </trkpt>
      <trkpt lat="42.28525" lon="0.9378">
        <ele>732.4</ele>
        <time>2022-05-23 06:47:41</time>
      </trkpt>
      <trkpt lat="42.28523" lon="0.93782">
        <ele>732.6</ele>
        <time>2022-05-23 06:47:42</time>
      </trkpt>
      <trkpt lat="42.28521" lon="0.93784">
        <ele>732.8</ele>
        <time>2022-05-23 06:47:43</time>
      </trkpt>
      <trkpt lat="42.28519" lon="0.93785">
        <ele>733</ele>
        <time>2022-05-23 06:47:44</time>
      </trkpt>
      <trkpt lat="42.28517" lon="0.93787">
        <ele>733</ele>
        <time>2022-05-23 06:47:45</time>
      </trkpt>
      <trkpt lat="42.28514" lon="0.93788">
        <ele>733.2</ele>
        <time>2022-05-23 06:47:46</time>
      </trkpt>
      <trkpt lat="42.28512" lon="0.9379">
        <ele>733.4</ele>
        <time>2022-05-23 06:47:47</time>
      </trkpt>
      <trkpt lat="42.2851" lon="0.93791">
        <ele>733.6</ele>
        <time>2022-05-23 06:47:48</time>
      </trkpt>
      <trkpt lat="42.28508" lon="0.93793">
        <ele>733.8</ele>
        <time>2022-05-23 06:47:49</time>
      </trkpt>
      <trkpt lat="42.28506" lon="0.93795">
        <ele>734</ele>
        <time>2022-05-23 06:47:50</time>
      </trkpt>
      <trkpt lat="42.28504" lon="0.93796">
        <ele>734</ele>
        <time>2022-05-23 06:47:51</time>
      </trkpt>
      <trkpt lat="42.28501" lon="0.93798">
        <ele>734.2</ele>
        <time>2022-05-23 06:47:52</time>
      </trkpt>
      <trkpt lat="42.28499" lon="0.93799">
        <ele>734.4</ele>
        <time>2022-05-23 06:47:53</time>
      </trkpt>
      <trkpt lat="42.28497" lon="0.93801">
        <ele>734.4</ele>
        <time>2022-05-23 06:47:54</time>
      </trkpt>
      <trkpt lat="42.28495" lon="0.93802">
        <ele>734.6</ele>
        <time>2022-05-23 06:47:55</time>
      </trkpt>
      <trkpt lat="42.28493" lon="0.93804">
        <ele>734.8</ele>
        <time>2022-05-23 06:47:56</time>
      </trkpt>
      <trkpt lat="42.28491" lon="0.93805">
        <ele>735</ele>
        <time>2022-05-23 06:47:57</time>
      </trkpt>
      <trkpt lat="42.28488" lon="0.93807">
        <ele>735.2</ele>
        <time>2022-05-23 06:47:58</time>
      </trkpt>
      <trkpt lat="42.28487" lon="0.93808">
        <ele>735.2</ele>
        <time>2022-05-23 06:47:59</time>
      </trkpt>
      <trkpt lat="42.28484" lon="0.9381">
        <ele>735.4</ele>
        <time>2022-05-23 06:48:00</time>
      </trkpt>
      <trkpt lat="42.28482" lon="0.93811">
        <ele>735.6</ele>
        <time>2022-05-23 06:48:01</time>
      </trkpt>
      <trkpt lat="42.2848" lon="0.93813">
        <ele>735.6</ele>
        <time>2022-05-23 06:48:02</time>
      </trkpt>
      <trkpt lat="42.28479" lon="0.93814">
        <ele>735.6</ele>
        <time>2022-05-23 06:48:03</time>
      </trkpt>
      <trkpt lat="42.28477" lon="0.93816">
        <ele>735.8</ele>
        <time>2022-05-23 06:48:04</time>
      </trkpt>
      <trkpt lat="42.28475" lon="0.93817">
        <ele>735.8</ele>
        <time>2022-05-23 06:48:05</time>
      </trkpt>
      <trkpt lat="42.28472" lon="0.93818">
        <ele>736</ele>
        <time>2022-05-23 06:48:06</time>
      </trkpt>
      <trkpt lat="42.2847" lon="0.9382">
        <ele>736.2</ele>
        <time>2022-05-23 06:48:07</time>
      </trkpt>
      <trkpt lat="42.28468" lon="0.93821">
        <ele>736.2</ele>
        <time>2022-05-23 06:48:08</time>
      </trkpt>
      <trkpt lat="42.28466" lon="0.93822">
        <ele>736.4</ele>
        <time>2022-05-23 06:48:09</time>
      </trkpt>
      <trkpt lat="42.28464" lon="0.93823">
        <ele>736.6</ele>
        <time>2022-05-23 06:48:10</time>
      </trkpt>
      <trkpt lat="42.28463" lon="0.93824">
        <ele>736.6</ele>
        <time>2022-05-23 06:48:11</time>
      </trkpt>
      <trkpt lat="42.2846" lon="0.93825">
        <ele>736.8</ele>
        <time>2022-05-23 06:48:12</time>
      </trkpt>
      <trkpt lat="42.28458" lon="0.93826">
        <ele>736.8</ele>
        <time>2022-05-23 06:48:13</time>
      </trkpt>
      <trkpt lat="42.28456" lon="0.93826">
        <ele>737</ele>
        <time>2022-05-23 06:48:14</time>
      </trkpt>
      <trkpt lat="42.28455" lon="0.93827">
        <ele>737.2</ele>
        <time>2022-05-23 06:48:15</time>
      </trkpt>
      <trkpt lat="42.28453" lon="0.93827">
        <ele>737.4</ele>
        <time>2022-05-23 06:48:16</time>
      </trkpt>
      <trkpt lat="42.28451" lon="0.93827">
        <ele>737.6</ele>
        <time>2022-05-23 06:48:17</time>
      </trkpt>
      <trkpt lat="42.28448" lon="0.93826">
        <ele>737.6</ele>
        <time>2022-05-23 06:48:18</time>
      </trkpt>
      <trkpt lat="42.28446" lon="0.93826">
        <ele>737.8</ele>
        <time>2022-05-23 06:48:19</time>
      </trkpt>
      <trkpt lat="42.28443" lon="0.93826">
        <ele>738</ele>
        <time>2022-05-23 06:48:20</time>
      </trkpt>
      <trkpt lat="42.28441" lon="0.93826">
        <ele>738.2</ele>
        <time>2022-05-23 06:48:21</time>
      </trkpt>
      <trkpt lat="42.28438" lon="0.93826">
        <ele>738.4</ele>
        <time>2022-05-23 06:48:22</time>
      </trkpt>
      <trkpt lat="42.28436" lon="0.93827">
        <ele>738.4</ele>
        <time>2022-05-23 06:48:23</time>
      </trkpt>
      <trkpt lat="42.28434" lon="0.93829">
        <ele>738.6</ele>
        <time>2022-05-23 06:48:24</time>
      </trkpt>
      <trkpt lat="42.28431" lon="0.9383">
        <ele>738.6</ele>
        <time>2022-05-23 06:48:25</time>
      </trkpt>
      <trkpt lat="42.28429" lon="0.93833">
        <ele>738.6</ele>
        <time>2022-05-23 06:48:26</time>
      </trkpt>
      <trkpt lat="42.28427" lon="0.93835">
        <ele>738.6</ele>
        <time>2022-05-23 06:48:27</time>
      </trkpt>
      <trkpt lat="42.28424" lon="0.93838">
        <ele>738.6</ele>
        <time>2022-05-23 06:48:28</time>
      </trkpt>
      <trkpt lat="42.28421" lon="0.93842">
        <ele>738.6</ele>
        <time>2022-05-23 06:48:29</time>
      </trkpt>
      <trkpt lat="42.28418" lon="0.93845">
        <ele>738.6</ele>
        <time>2022-05-23 06:48:30</time>
      </trkpt>
      <trkpt lat="42.28415" lon="0.93848">
        <ele>738.6</ele>
        <time>2022-05-23 06:48:31</time>
      </trkpt>
      <trkpt lat="42.28412" lon="0.93851">
        <ele>738.6</ele>
        <time>2022-05-23 06:48:32</time>
      </trkpt>
      <trkpt lat="42.28408" lon="0.93853">
        <ele>738.6</ele>
        <time>2022-05-23 06:48:33</time>
      </trkpt>
      <trkpt lat="42.28404" lon="0.93856">
        <ele>738.6</ele>
        <time>2022-05-23 06:48:34</time>
      </trkpt>
      <trkpt lat="42.28401" lon="0.93859">
        <ele>738.6</ele>
        <time>2022-05-23 06:48:35</time>
      </trkpt>
      <trkpt lat="42.28397" lon="0.93862">
        <ele>738.4</ele>
        <time>2022-05-23 06:48:36</time>
      </trkpt>
      <trkpt lat="42.28393" lon="0.93865">
        <ele>738.2</ele>
        <time>2022-05-23 06:48:37</time>
      </trkpt>
      <trkpt lat="42.2839" lon="0.93869">
        <ele>738.2</ele>
        <time>2022-05-23 06:48:38</time>
      </trkpt>
      <trkpt lat="42.28387" lon="0.93873">
        <ele>738</ele>
        <time>2022-05-23 06:48:39</time>
      </trkpt>
      <trkpt lat="42.28384" lon="0.93878">
        <ele>738</ele>
        <time>2022-05-23 06:48:40</time>
      </trkpt>
      <trkpt lat="42.2838" lon="0.93882">
        <ele>737.8</ele>
        <time>2022-05-23 06:48:41</time>
      </trkpt>
      <trkpt lat="42.28377" lon="0.93887">
        <ele>737.8</ele>
        <time>2022-05-23 06:48:42</time>
      </trkpt>
      <trkpt lat="42.28373" lon="0.93891">
        <ele>737.6</ele>
        <time>2022-05-23 06:48:43</time>
      </trkpt>
      <trkpt lat="42.28369" lon="0.93896">
        <ele>737.6</ele>
        <time>2022-05-23 06:48:44</time>
      </trkpt>
      <trkpt lat="42.28365" lon="0.93901">
        <ele>737.6</ele>
        <time>2022-05-23 06:48:45</time>
      </trkpt>
      <trkpt lat="42.28362" lon="0.93906">
        <ele>737.6</ele>
        <time>2022-05-23 06:48:46</time>
      </trkpt>
      <trkpt lat="42.28357" lon="0.9391">
        <ele>737.6</ele>
        <time>2022-05-23 06:48:47</time>
      </trkpt>
      <trkpt lat="42.28354" lon="0.93916">
        <ele>737.6</ele>
        <time>2022-05-23 06:48:48</time>
      </trkpt>
      <trkpt lat="42.2835" lon="0.93921">
        <ele>737.4</ele>
        <time>2022-05-23 06:48:49</time>
      </trkpt>
      <trkpt lat="42.28345" lon="0.93926">
        <ele>737.2</ele>
        <time>2022-05-23 06:48:50</time>
      </trkpt>
      <trkpt lat="42.28341" lon="0.93931">
        <ele>737.2</ele>
        <time>2022-05-23 06:48:51</time>
      </trkpt>
      <trkpt lat="42.28337" lon="0.93936">
        <ele>737.2</ele>
        <time>2022-05-23 06:48:52</time>
      </trkpt>
      <trkpt lat="42.28333" lon="0.93941">
        <ele>737.2</ele>
        <time>2022-05-23 06:48:53</time>
      </trkpt>
      <trkpt lat="42.2833" lon="0.93945">
        <ele>737.4</ele>
        <time>2022-05-23 06:48:54</time>
      </trkpt>
      <trkpt lat="42.28327" lon="0.93949">
        <ele>737.4</ele>
        <time>2022-05-23 06:48:55</time>
      </trkpt>
      <trkpt lat="42.28325" lon="0.93953">
        <ele>737.6</ele>
        <time>2022-05-23 06:48:56</time>
      </trkpt>
      <trkpt lat="42.28323" lon="0.93957">
        <ele>737.6</ele>
        <time>2022-05-23 06:48:57</time>
      </trkpt>
      <trkpt lat="42.2832" lon="0.9396">
        <ele>737.8</ele>
        <time>2022-05-23 06:48:58</time>
      </trkpt>
      <trkpt lat="42.28318" lon="0.93963">
        <ele>738</ele>
        <time>2022-05-23 06:48:59</time>
      </trkpt>
      <trkpt lat="42.28316" lon="0.93965">
        <ele>738</ele>
        <time>2022-05-23 06:49:00</time>
      </trkpt>
      <trkpt lat="42.28314" lon="0.93968">
        <ele>738</ele>
        <time>2022-05-23 06:49:01</time>
      </trkpt>
      <trkpt lat="42.28311" lon="0.9397">
        <ele>738.2</ele>
        <time>2022-05-23 06:49:02</time>
      </trkpt>
      <trkpt lat="42.2831" lon="0.93973">
        <ele>738.2</ele>
        <time>2022-05-23 06:49:03</time>
      </trkpt>
      <trkpt lat="42.28308" lon="0.93976">
        <ele>738.4</ele>
        <time>2022-05-23 06:49:04</time>
      </trkpt>
      <trkpt lat="42.28306" lon="0.93979">
        <ele>738.6</ele>
        <time>2022-05-23 06:49:05</time>
      </trkpt>
      <trkpt lat="42.28304" lon="0.93981">
        <ele>738.6</ele>
        <time>2022-05-23 06:49:06</time>
      </trkpt>
      <trkpt lat="42.28302" lon="0.93983">
        <ele>738.8</ele>
        <time>2022-05-23 06:49:07</time>
      </trkpt>
      <trkpt lat="42.283" lon="0.93986">
        <ele>738.8</ele>
        <time>2022-05-23 06:49:08</time>
      </trkpt>
      <trkpt lat="42.28298" lon="0.93988">
        <ele>739</ele>
        <time>2022-05-23 06:49:09</time>
      </trkpt>
      <trkpt lat="42.28296" lon="0.9399">
        <ele>739.2</ele>
        <time>2022-05-23 06:49:10</time>
      </trkpt>
      <trkpt lat="42.28294" lon="0.93993">
        <ele>739.2</ele>
        <time>2022-05-23 06:49:11</time>
      </trkpt>
      <trkpt lat="42.28293" lon="0.93995">
        <ele>739.4</ele>
        <time>2022-05-23 06:49:12</time>
      </trkpt>
      <trkpt lat="42.28291" lon="0.93997">
        <ele>739.6</ele>
        <time>2022-05-23 06:49:13</time>
      </trkpt>
      <trkpt lat="42.28289" lon="0.93999">
        <ele>739.6</ele>
        <time>2022-05-23 06:49:14</time>
      </trkpt>
      <trkpt lat="42.28287" lon="0.94002">
        <ele>739.8</ele>
        <time>2022-05-23 06:49:15</time>
      </trkpt>
      <trkpt lat="42.28286" lon="0.94004">
        <ele>739.8</ele>
        <time>2022-05-23 06:49:16</time>
      </trkpt>
      <trkpt lat="42.28284" lon="0.94006">
        <ele>740</ele>
        <time>2022-05-23 06:49:17</time>
      </trkpt>
      <trkpt lat="42.28282" lon="0.94008">
        <ele>740.2</ele>
        <time>2022-05-23 06:49:18</time>
      </trkpt>
      <trkpt lat="42.28281" lon="0.94011">
        <ele>740.2</ele>
        <time>2022-05-23 06:49:19</time>
      </trkpt>
      <trkpt lat="42.28279" lon="0.94013">
        <ele>740.2</ele>
        <time>2022-05-23 06:49:20</time>
      </trkpt>
      <trkpt lat="42.28277" lon="0.94015">
        <ele>740.2</ele>
        <time>2022-05-23 06:49:21</time>
      </trkpt>
      <trkpt lat="42.28276" lon="0.94017">
        <ele>740.4</ele>
        <time>2022-05-23 06:49:22</time>
      </trkpt>
      <trkpt lat="42.28274" lon="0.94019">
        <ele>740.4</ele>
        <time>2022-05-23 06:49:23</time>
      </trkpt>
      <trkpt lat="42.28272" lon="0.94021">
        <ele>740.4</ele>
        <time>2022-05-23 06:49:24</time>
      </trkpt>
      <trkpt lat="42.2827" lon="0.94023">
        <ele>740.6</ele>
        <time>2022-05-23 06:49:25</time>
      </trkpt>
      <trkpt lat="42.28268" lon="0.94025">
        <ele>740.6</ele>
        <time>2022-05-23 06:49:26</time>
      </trkpt>
      <trkpt lat="42.28266" lon="0.94026">
        <ele>740.8</ele>
        <time>2022-05-23 06:49:27</time>
      </trkpt>
      <trkpt lat="42.28264" lon="0.94028">
        <ele>740.8</ele>
        <time>2022-05-23 06:49:28</time>
      </trkpt>
      <trkpt lat="42.28261" lon="0.94029">
        <ele>741</ele>
        <time>2022-05-23 06:49:29</time>
      </trkpt>
      <trkpt lat="42.2826" lon="0.94029">
        <ele>741</ele>
        <time>2022-05-23 06:49:30</time>
      </trkpt>
      <trkpt lat="42.28258" lon="0.94031">
        <ele>741.2</ele>
        <time>2022-05-23 06:49:31</time>
      </trkpt>
      <trkpt lat="42.28256" lon="0.94031">
        <ele>741.4</ele>
        <time>2022-05-23 06:49:32</time>
      </trkpt>
      <trkpt lat="42.28253" lon="0.94032">
        <ele>741.6</ele>
        <time>2022-05-23 06:49:33</time>
      </trkpt>
      <trkpt lat="42.28251" lon="0.94033">
        <ele>741.6</ele>
        <time>2022-05-23 06:49:34</time>
      </trkpt>
      <trkpt lat="42.28249" lon="0.94034">
        <ele>741.8</ele>
        <time>2022-05-23 06:49:35</time>
      </trkpt>
      <trkpt lat="42.28247" lon="0.94035">
        <ele>742</ele>
        <time>2022-05-23 06:49:36</time>
      </trkpt>
      <trkpt lat="42.28244" lon="0.94035">
        <ele>742</ele>
        <time>2022-05-23 06:49:37</time>
      </trkpt>
      <trkpt lat="42.28242" lon="0.94037">
        <ele>742</ele>
        <time>2022-05-23 06:49:38</time>
      </trkpt>
      <trkpt lat="42.2824" lon="0.94038">
        <ele>742.2</ele>
        <time>2022-05-23 06:49:39</time>
      </trkpt>
      <trkpt lat="42.28237" lon="0.94039">
        <ele>742.2</ele>
        <time>2022-05-23 06:49:40</time>
      </trkpt>
      <trkpt lat="42.28235" lon="0.94041">
        <ele>742.4</ele>
        <time>2022-05-23 06:49:41</time>
      </trkpt>
      <trkpt lat="42.28232" lon="0.94042">
        <ele>742.4</ele>
        <time>2022-05-23 06:49:42</time>
      </trkpt>
      <trkpt lat="42.2823" lon="0.94043">
        <ele>742.6</ele>
        <time>2022-05-23 06:49:43</time>
      </trkpt>
      <trkpt lat="42.28227" lon="0.94045">
        <ele>742.6</ele>
        <time>2022-05-23 06:49:44</time>
      </trkpt>
      <trkpt lat="42.28225" lon="0.94047">
        <ele>742.6</ele>
        <time>2022-05-23 06:49:45</time>
      </trkpt>
      <trkpt lat="42.28223" lon="0.94048">
        <ele>742.6</ele>
        <time>2022-05-23 06:49:46</time>
      </trkpt>
      <trkpt lat="42.2822" lon="0.9405">
        <ele>742.8</ele>
        <time>2022-05-23 06:49:47</time>
      </trkpt>
      <trkpt lat="42.28218" lon="0.94052">
        <ele>742.8</ele>
        <time>2022-05-23 06:49:48</time>
      </trkpt>
      <trkpt lat="42.28215" lon="0.94055">
        <ele>742.8</ele>
        <time>2022-05-23 06:49:49</time>
      </trkpt>
      <trkpt lat="42.28213" lon="0.94058">
        <ele>742.8</ele>
        <time>2022-05-23 06:49:50</time>
      </trkpt>
      <trkpt lat="42.2821" lon="0.9406">
        <ele>742.6</ele>
        <time>2022-05-23 06:49:51</time>
      </trkpt>
      <trkpt lat="42.28208" lon="0.94063">
        <ele>742.6</ele>
        <time>2022-05-23 06:49:52</time>
      </trkpt>
      <trkpt lat="42.28205" lon="0.94065">
        <ele>742.6</ele>
        <time>2022-05-23 06:49:53</time>
      </trkpt>
      <trkpt lat="42.28203" lon="0.94068">
        <ele>742.6</ele>
        <time>2022-05-23 06:49:54</time>
      </trkpt>
      <trkpt lat="42.28201" lon="0.94071">
        <ele>742.6</ele>
        <time>2022-05-23 06:49:55</time>
      </trkpt>
      <trkpt lat="42.28199" lon="0.94075">
        <ele>742.6</ele>
        <time>2022-05-23 06:49:56</time>
      </trkpt>
      <trkpt lat="42.28196" lon="0.94078">
        <ele>742.6</ele>
        <time>2022-05-23 06:49:57</time>
      </trkpt>
      <trkpt lat="42.28194" lon="0.94081">
        <ele>742.6</ele>
        <time>2022-05-23 06:49:58</time>
      </trkpt>
      <trkpt lat="42.28191" lon="0.94085">
        <ele>742.6</ele>
        <time>2022-05-23 06:49:59</time>
      </trkpt>
      <trkpt lat="42.28189" lon="0.94089">
        <ele>742.6</ele>
        <time>2022-05-23 06:50:00</time>
      </trkpt>
      <trkpt lat="42.28187" lon="0.94092">
        <ele>742.6</ele>
        <time>2022-05-23 06:50:01</time>
      </trkpt>
      <trkpt lat="42.28185" lon="0.94095">
        <ele>742.8</ele>
        <time>2022-05-23 06:50:02</time>
      </trkpt>
      <trkpt lat="42.28182" lon="0.94098">
        <ele>742.8</ele>
        <time>2022-05-23 06:50:03</time>
      </trkpt>
      <trkpt lat="42.2818" lon="0.94099">
        <ele>742.8</ele>
        <time>2022-05-23 06:50:04</time>
      </trkpt>
      <trkpt lat="42.28177" lon="0.941">
        <ele>743</ele>
        <time>2022-05-23 06:50:05</time>
      </trkpt>
      <trkpt lat="42.28175" lon="0.94102">
        <ele>743.2</ele>
        <time>2022-05-23 06:50:06</time>
      </trkpt>
      <trkpt lat="42.28173" lon="0.94103">
        <ele>743.2</ele>
        <time>2022-05-23 06:50:07</time>
      </trkpt>
      <trkpt lat="42.28171" lon="0.94104">
        <ele>743.2</ele>
        <time>2022-05-23 06:50:08</time>
      </trkpt>
      <trkpt lat="42.28169" lon="0.94105">
        <ele>743.4</ele>
        <time>2022-05-23 06:50:09</time>
      </trkpt>
      <trkpt lat="42.28167" lon="0.94107">
        <ele>743.6</ele>
        <time>2022-05-23 06:50:10</time>
      </trkpt>
      <trkpt lat="42.28165" lon="0.94108">
        <ele>743.8</ele>
        <time>2022-05-23 06:50:11</time>
      </trkpt>
      <trkpt lat="42.28163" lon="0.94109">
        <ele>744</ele>
        <time>2022-05-23 06:50:12</time>
      </trkpt>
      <trkpt lat="42.28161" lon="0.9411">
        <ele>744</ele>
        <time>2022-05-23 06:50:13</time>
      </trkpt>
      <trkpt lat="42.28159" lon="0.94112">
        <ele>744.2</ele>
        <time>2022-05-23 06:50:14</time>
      </trkpt>
      <trkpt lat="42.28157" lon="0.94114">
        <ele>744.4</ele>
        <time>2022-05-23 06:50:15</time>
      </trkpt>
      <trkpt lat="42.28155" lon="0.94115">
        <ele>744.4</ele>
        <time>2022-05-23 06:50:16</time>
      </trkpt>
      <trkpt lat="42.28153" lon="0.94117">
        <ele>744.6</ele>
        <time>2022-05-23 06:50:17</time>
      </trkpt>
      <trkpt lat="42.28151" lon="0.94118">
        <ele>744.8</ele>
        <time>2022-05-23 06:50:18</time>
      </trkpt>
      <trkpt lat="42.28149" lon="0.9412">
        <ele>744.8</ele>
        <time>2022-05-23 06:50:19</time>
      </trkpt>
      <trkpt lat="42.28147" lon="0.94121">
        <ele>745</ele>
        <time>2022-05-23 06:50:20</time>
      </trkpt>
      <trkpt lat="42.28145" lon="0.94122">
        <ele>745.2</ele>
        <time>2022-05-23 06:50:21</time>
      </trkpt>
      <trkpt lat="42.28142" lon="0.94123">
        <ele>745.4</ele>
        <time>2022-05-23 06:50:22</time>
      </trkpt>
      <trkpt lat="42.28141" lon="0.94125">
        <ele>745.4</ele>
        <time>2022-05-23 06:50:23</time>
      </trkpt>
      <trkpt lat="42.28139" lon="0.94126">
        <ele>745.6</ele>
        <time>2022-05-23 06:50:24</time>
      </trkpt>
      <trkpt lat="42.28137" lon="0.94127">
        <ele>745.8</ele>
        <time>2022-05-23 06:50:25</time>
      </trkpt>
      <trkpt lat="42.28135" lon="0.94128">
        <ele>745.8</ele>
        <time>2022-05-23 06:50:26</time>
      </trkpt>
      <trkpt lat="42.28133" lon="0.94129">
        <ele>746</ele>
        <time>2022-05-23 06:50:27</time>
      </trkpt>
      <trkpt lat="42.28131" lon="0.9413">
        <ele>746.2</ele>
        <time>2022-05-23 06:50:28</time>
      </trkpt>
      <trkpt lat="42.28129" lon="0.94132">
        <ele>746.2</ele>
        <time>2022-05-23 06:50:29</time>
      </trkpt>
      <trkpt lat="42.28126" lon="0.94133">
        <ele>746.4</ele>
        <time>2022-05-23 06:50:30</time>
      </trkpt>
      <trkpt lat="42.28125" lon="0.94135">
        <ele>746.4</ele>
        <time>2022-05-23 06:50:31</time>
      </trkpt>
      <trkpt lat="42.28123" lon="0.94137">
        <ele>746.6</ele>
        <time>2022-05-23 06:50:32</time>
      </trkpt>
      <trkpt lat="42.2812" lon="0.94138">
        <ele>746.8</ele>
        <time>2022-05-23 06:50:33</time>
      </trkpt>
      <trkpt lat="42.28118" lon="0.9414">
        <ele>746.8</ele>
        <time>2022-05-23 06:50:34</time>
      </trkpt>
      <trkpt lat="42.28116" lon="0.94142">
        <ele>747</ele>
        <time>2022-05-23 06:50:35</time>
      </trkpt>
      <trkpt lat="42.28114" lon="0.94144">
        <ele>747</ele>
        <time>2022-05-23 06:50:36</time>
      </trkpt>
      <trkpt lat="42.28112" lon="0.94146">
        <ele>747.2</ele>
        <time>2022-05-23 06:50:37</time>
      </trkpt>
      <trkpt lat="42.28109" lon="0.94148">
        <ele>747.2</ele>
        <time>2022-05-23 06:50:38</time>
      </trkpt>
      <trkpt lat="42.28107" lon="0.94149">
        <ele>747.4</ele>
        <time>2022-05-23 06:50:39</time>
      </trkpt>
      <trkpt lat="42.28104" lon="0.94151">
        <ele>747.6</ele>
        <time>2022-05-23 06:50:40</time>
      </trkpt>
      <trkpt lat="42.28102" lon="0.94152">
        <ele>747.8</ele>
        <time>2022-05-23 06:50:41</time>
      </trkpt>
      <trkpt lat="42.281" lon="0.94154">
        <ele>747.8</ele>
        <time>2022-05-23 06:50:42</time>
      </trkpt>
      <trkpt lat="42.28098" lon="0.94155">
        <ele>748.2</ele>
        <time>2022-05-23 06:50:43</time>
      </trkpt>
      <trkpt lat="42.28095" lon="0.94157">
        <ele>748.4</ele>
        <time>2022-05-23 06:50:44</time>
      </trkpt>
      <trkpt lat="42.28093" lon="0.94158">
        <ele>748.6</ele>
        <time>2022-05-23 06:50:45</time>
      </trkpt>
      <trkpt lat="42.28092" lon="0.9416">
        <ele>748.6</ele>
        <time>2022-05-23 06:50:46</time>
      </trkpt>
      <trkpt lat="42.2809" lon="0.94161">
        <ele>748.8</ele>
        <time>2022-05-23 06:50:47</time>
      </trkpt>
      <trkpt lat="42.28088" lon="0.94163">
        <ele>749</ele>
        <time>2022-05-23 06:50:48</time>
      </trkpt>
      <trkpt lat="42.28086" lon="0.94164">
        <ele>749</ele>
        <time>2022-05-23 06:50:49</time>
      </trkpt>
      <trkpt lat="42.28084" lon="0.94165">
        <ele>749.2</ele>
        <time>2022-05-23 06:50:50</time>
      </trkpt>
      <trkpt lat="42.28082" lon="0.94167">
        <ele>749.4</ele>
        <time>2022-05-23 06:50:51</time>
      </trkpt>
      <trkpt lat="42.2808" lon="0.94168">
        <ele>749.6</ele>
        <time>2022-05-23 06:50:52</time>
      </trkpt>
      <trkpt lat="42.28078" lon="0.9417">
        <ele>749.8</ele>
        <time>2022-05-23 06:50:53</time>
      </trkpt>
      <trkpt lat="42.28076" lon="0.94173">
        <ele>749.8</ele>
        <time>2022-05-23 06:50:54</time>
      </trkpt>
      <trkpt lat="42.28075" lon="0.94175">
        <ele>750</ele>
        <time>2022-05-23 06:50:55</time>
      </trkpt>
      <trkpt lat="42.28074" lon="0.94178">
        <ele>750</ele>
        <time>2022-05-23 06:50:56</time>
      </trkpt>
      <trkpt lat="42.28073" lon="0.94182">
        <ele>750</ele>
        <time>2022-05-23 06:50:57</time>
      </trkpt>
      <trkpt lat="42.28072" lon="0.94186">
        <ele>750.2</ele>
        <time>2022-05-23 06:50:58</time>
      </trkpt>
      <trkpt lat="42.28072" lon="0.9419">
        <ele>750.2</ele>
        <time>2022-05-23 06:50:59</time>
      </trkpt>
      <trkpt lat="42.28071" lon="0.94194">
        <ele>750.2</ele>
        <time>2022-05-23 06:51:00</time>
      </trkpt>
      <trkpt lat="42.2807" lon="0.94199">
        <ele>750.2</ele>
        <time>2022-05-23 06:51:01</time>
      </trkpt>
      <trkpt lat="42.28069" lon="0.94203">
        <ele>750.4</ele>
        <time>2022-05-23 06:51:02</time>
      </trkpt>
      <trkpt lat="42.28068" lon="0.94207">
        <ele>750.4</ele>
        <time>2022-05-23 06:51:03</time>
      </trkpt>
      <trkpt lat="42.28067" lon="0.94212">
        <ele>750.4</ele>
        <time>2022-05-23 06:51:04</time>
      </trkpt>
      <trkpt lat="42.28066" lon="0.94216">
        <ele>750.4</ele>
        <time>2022-05-23 06:51:05</time>
      </trkpt>
      <trkpt lat="42.28065" lon="0.94221">
        <ele>750.4</ele>
        <time>2022-05-23 06:51:06</time>
      </trkpt>
      <trkpt lat="42.28063" lon="0.94226">
        <ele>750.4</ele>
        <time>2022-05-23 06:51:07</time>
      </trkpt>
      <trkpt lat="42.28062" lon="0.94231">
        <ele>750.2</ele>
        <time>2022-05-23 06:51:08</time>
      </trkpt>
      <trkpt lat="42.28059" lon="0.94235">
        <ele>750.2</ele>
        <time>2022-05-23 06:51:09</time>
      </trkpt>
      <trkpt lat="42.28057" lon="0.94239">
        <ele>750.2</ele>
        <time>2022-05-23 06:51:10</time>
      </trkpt>
      <trkpt lat="42.28055" lon="0.94242">
        <ele>750.2</ele>
        <time>2022-05-23 06:51:11</time>
      </trkpt>
      <trkpt lat="42.28052" lon="0.94245">
        <ele>750.2</ele>
        <time>2022-05-23 06:51:12</time>
      </trkpt>
      <trkpt lat="42.28049" lon="0.94248">
        <ele>750.2</ele>
        <time>2022-05-23 06:51:13</time>
      </trkpt>
      <trkpt lat="42.28046" lon="0.9425">
        <ele>750.2</ele>
        <time>2022-05-23 06:51:14</time>
      </trkpt>
      <trkpt lat="42.28043" lon="0.94251">
        <ele>750.2</ele>
        <time>2022-05-23 06:51:15</time>
      </trkpt>
      <trkpt lat="42.28039" lon="0.94251">
        <ele>750.2</ele>
        <time>2022-05-23 06:51:16</time>
      </trkpt>
      <trkpt lat="42.28035" lon="0.94251">
        <ele>750</ele>
        <time>2022-05-23 06:51:17</time>
      </trkpt>
      <trkpt lat="42.28031" lon="0.9425">
        <ele>750</ele>
        <time>2022-05-23 06:51:18</time>
      </trkpt>
      <trkpt lat="42.28027" lon="0.94249">
        <ele>750</ele>
        <time>2022-05-23 06:51:19</time>
      </trkpt>
      <trkpt lat="42.28023" lon="0.94246">
        <ele>750</ele>
        <time>2022-05-23 06:51:20</time>
      </trkpt>
      <trkpt lat="42.28019" lon="0.94243">
        <ele>750</ele>
        <time>2022-05-23 06:51:21</time>
      </trkpt>
      <trkpt lat="42.28015" lon="0.9424">
        <ele>750</ele>
        <time>2022-05-23 06:51:22</time>
      </trkpt>
      <trkpt lat="42.28012" lon="0.94236">
        <ele>750</ele>
        <time>2022-05-23 06:51:23</time>
      </trkpt>
      <trkpt lat="42.28008" lon="0.94233">
        <ele>750</ele>
        <time>2022-05-23 06:51:24</time>
      </trkpt>
      <trkpt lat="42.28005" lon="0.9423">
        <ele>750</ele>
        <time>2022-05-23 06:51:25</time>
      </trkpt>
      <trkpt lat="42.28001" lon="0.94228">
        <ele>750</ele>
        <time>2022-05-23 06:51:26</time>
      </trkpt>
      <trkpt lat="42.27997" lon="0.94226">
        <ele>750</ele>
        <time>2022-05-23 06:51:27</time>
      </trkpt>
      <trkpt lat="42.27992" lon="0.94224">
        <ele>750</ele>
        <time>2022-05-23 06:51:28</time>
      </trkpt>
      <trkpt lat="42.27987" lon="0.94224">
        <ele>750</ele>
        <time>2022-05-23 06:51:29</time>
      </trkpt>
      <trkpt lat="42.27983" lon="0.94225">
        <ele>749.8</ele>
        <time>2022-05-23 06:51:30</time>
      </trkpt>
      <trkpt lat="42.27978" lon="0.94226">
        <ele>749.8</ele>
        <time>2022-05-23 06:51:31</time>
      </trkpt>
      <trkpt lat="42.27974" lon="0.94229">
        <ele>749.8</ele>
        <time>2022-05-23 06:51:32</time>
      </trkpt>
      <trkpt lat="42.2797" lon="0.94231">
        <ele>749.8</ele>
        <time>2022-05-23 06:51:33</time>
      </trkpt>
      <trkpt lat="42.27966" lon="0.94233">
        <ele>749.8</ele>
        <time>2022-05-23 06:51:34</time>
      </trkpt>
      <trkpt lat="42.27961" lon="0.94235">
        <ele>749.6</ele>
        <time>2022-05-23 06:51:35</time>
      </trkpt>
      <trkpt lat="42.27957" lon="0.94237">
        <ele>749.6</ele>
        <time>2022-05-23 06:51:36</time>
      </trkpt>
      <trkpt lat="42.27953" lon="0.94238">
        <ele>749.4</ele>
        <time>2022-05-23 06:51:37</time>
      </trkpt>
      <trkpt lat="42.27949" lon="0.9424">
        <ele>749.4</ele>
        <time>2022-05-23 06:51:38</time>
      </trkpt>
      <trkpt lat="42.27944" lon="0.94241">
        <ele>749.2</ele>
        <time>2022-05-23 06:51:39</time>
      </trkpt>
      <trkpt lat="42.2794" lon="0.94243">
        <ele>749.2</ele>
        <time>2022-05-23 06:51:40</time>
      </trkpt>
      <trkpt lat="42.27936" lon="0.94244">
        <ele>749.2</ele>
        <time>2022-05-23 06:51:41</time>
      </trkpt>
      <trkpt lat="42.27932" lon="0.94246">
        <ele>749.2</ele>
        <time>2022-05-23 06:51:42</time>
      </trkpt>
      <trkpt lat="42.27927" lon="0.94247">
        <ele>749.4</ele>
        <time>2022-05-23 06:51:43</time>
      </trkpt>
      <trkpt lat="42.27923" lon="0.94249">
        <ele>749.4</ele>
        <time>2022-05-23 06:51:44</time>
      </trkpt>
      <trkpt lat="42.27918" lon="0.9425">
        <ele>749.4</ele>
        <time>2022-05-23 06:51:45</time>
      </trkpt>
      <trkpt lat="42.27914" lon="0.94251">
        <ele>749.4</ele>
        <time>2022-05-23 06:51:46</time>
      </trkpt>
      <trkpt lat="42.2791" lon="0.94252">
        <ele>749.4</ele>
        <time>2022-05-23 06:51:47</time>
      </trkpt>
      <trkpt lat="42.27905" lon="0.94253">
        <ele>749.2</ele>
        <time>2022-05-23 06:51:48</time>
      </trkpt>
      <trkpt lat="42.27901" lon="0.94254">
        <ele>749.2</ele>
        <time>2022-05-23 06:51:49</time>
      </trkpt>
      <trkpt lat="42.27897" lon="0.94256">
        <ele>749.2</ele>
        <time>2022-05-23 06:51:50</time>
      </trkpt>
      <trkpt lat="42.27893" lon="0.94258">
        <ele>749.2</ele>
        <time>2022-05-23 06:51:51</time>
      </trkpt>
      <trkpt lat="42.27888" lon="0.9426">
        <ele>749.2</ele>
        <time>2022-05-23 06:51:52</time>
      </trkpt>
      <trkpt lat="42.27883" lon="0.94262">
        <ele>749.2</ele>
        <time>2022-05-23 06:51:53</time>
      </trkpt>
      <trkpt lat="42.27879" lon="0.94265">
        <ele>749</ele>
        <time>2022-05-23 06:51:54</time>
      </trkpt>
      <trkpt lat="42.27875" lon="0.94268">
        <ele>749</ele>
        <time>2022-05-23 06:51:55</time>
      </trkpt>
      <trkpt lat="42.27871" lon="0.94272">
        <ele>749</ele>
        <time>2022-05-23 06:51:56</time>
      </trkpt>
      <trkpt lat="42.27867" lon="0.94276">
        <ele>749</ele>
        <time>2022-05-23 06:51:57</time>
      </trkpt>
      <trkpt lat="42.27864" lon="0.94279">
        <ele>749</ele>
        <time>2022-05-23 06:51:58</time>
      </trkpt>
      <trkpt lat="42.2786" lon="0.94283">
        <ele>749</ele>
        <time>2022-05-23 06:51:59</time>
      </trkpt>
      <trkpt lat="42.27856" lon="0.94286">
        <ele>748.8</ele>
        <time>2022-05-23 06:52:00</time>
      </trkpt>
      <trkpt lat="42.27852" lon="0.94288">
        <ele>748.8</ele>
        <time>2022-05-23 06:52:01</time>
      </trkpt>
      <trkpt lat="42.27847" lon="0.94288">
        <ele>748.8</ele>
        <time>2022-05-23 06:52:02</time>
      </trkpt>
      <trkpt lat="42.27844" lon="0.94288">
        <ele>748.8</ele>
        <time>2022-05-23 06:52:03</time>
      </trkpt>
      <trkpt lat="42.2784" lon="0.94286">
        <ele>748.8</ele>
        <time>2022-05-23 06:52:04</time>
      </trkpt>
      <trkpt lat="42.27836" lon="0.94284">
        <ele>748.8</ele>
        <time>2022-05-23 06:52:05</time>
      </trkpt>
      <trkpt lat="42.27833" lon="0.94281">
        <ele>748.8</ele>
        <time>2022-05-23 06:52:06</time>
      </trkpt>
      <trkpt lat="42.2783" lon="0.94279">
        <ele>748.8</ele>
        <time>2022-05-23 06:52:07</time>
      </trkpt>
      <trkpt lat="42.27827" lon="0.94276">
        <ele>749</ele>
        <time>2022-05-23 06:52:08</time>
      </trkpt>
      <trkpt lat="42.27823" lon="0.94274">
        <ele>748.8</ele>
        <time>2022-05-23 06:52:09</time>
      </trkpt>
      <trkpt lat="42.2782" lon="0.9427">
        <ele>748.8</ele>
        <time>2022-05-23 06:52:10</time>
      </trkpt>
      <trkpt lat="42.27817" lon="0.94267">
        <ele>748.8</ele>
        <time>2022-05-23 06:52:11</time>
      </trkpt>
      <trkpt lat="42.27813" lon="0.94264">
        <ele>748.8</ele>
        <time>2022-05-23 06:52:12</time>
      </trkpt>
      <trkpt lat="42.27809" lon="0.94263">
        <ele>749</ele>
        <time>2022-05-23 06:52:13</time>
      </trkpt>
      <trkpt lat="42.27805" lon="0.94262">
        <ele>748.8</ele>
        <time>2022-05-23 06:52:14</time>
      </trkpt>
      <trkpt lat="42.27801" lon="0.94262">
        <ele>748.8</ele>
        <time>2022-05-23 06:52:15</time>
      </trkpt>
      <trkpt lat="42.27796" lon="0.94262">
        <ele>749</ele>
        <time>2022-05-23 06:52:16</time>
      </trkpt>
      <trkpt lat="42.27792" lon="0.94263">
        <ele>749</ele>
        <time>2022-05-23 06:52:17</time>
      </trkpt>
      <trkpt lat="42.27788" lon="0.94263">
        <ele>749</ele>
        <time>2022-05-23 06:52:18</time>
      </trkpt>
      <trkpt lat="42.27783" lon="0.94265">
        <ele>749</ele>
        <time>2022-05-23 06:52:19</time>
      </trkpt>
      <trkpt lat="42.27779" lon="0.94265">
        <ele>749</ele>
        <time>2022-05-23 06:52:20</time>
      </trkpt>
      <trkpt lat="42.27774" lon="0.94266">
        <ele>748.8</ele>
        <time>2022-05-23 06:52:21</time>
      </trkpt>
      <trkpt lat="42.27769" lon="0.94267">
        <ele>748.8</ele>
        <time>2022-05-23 06:52:22</time>
      </trkpt>
      <trkpt lat="42.27765" lon="0.94269">
        <ele>748.8</ele>
        <time>2022-05-23 06:52:23</time>
      </trkpt>
      <trkpt lat="42.2776" lon="0.9427">
        <ele>748.8</ele>
        <time>2022-05-23 06:52:24</time>
      </trkpt>
      <trkpt lat="42.27756" lon="0.94271">
        <ele>748.6</ele>
        <time>2022-05-23 06:52:25</time>
      </trkpt>
      <trkpt lat="42.27752" lon="0.94273">
        <ele>748.6</ele>
        <time>2022-05-23 06:52:26</time>
      </trkpt>
      <trkpt lat="42.27747" lon="0.94275">
        <ele>748.6</ele>
        <time>2022-05-23 06:52:27</time>
      </trkpt>
      <trkpt lat="42.27743" lon="0.94276">
        <ele>748.8</ele>
        <time>2022-05-23 06:52:28</time>
      </trkpt>
      <trkpt lat="42.27739" lon="0.94277">
        <ele>748.8</ele>
        <time>2022-05-23 06:52:29</time>
      </trkpt>
      <trkpt lat="42.27735" lon="0.94279">
        <ele>748.8</ele>
        <time>2022-05-23 06:52:30</time>
      </trkpt>
      <trkpt lat="42.27731" lon="0.9428">
        <ele>748.8</ele>
        <time>2022-05-23 06:52:31</time>
      </trkpt>
      <trkpt lat="42.27727" lon="0.94283">
        <ele>748.8</ele>
        <time>2022-05-23 06:52:32</time>
      </trkpt>
      <trkpt lat="42.27723" lon="0.94285">
        <ele>748.8</ele>
        <time>2022-05-23 06:52:33</time>
      </trkpt>
      <trkpt lat="42.27719" lon="0.94287">
        <ele>748.8</ele>
        <time>2022-05-23 06:52:34</time>
      </trkpt>
      <trkpt lat="42.27715" lon="0.94288">
        <ele>748.8</ele>
        <time>2022-05-23 06:52:35</time>
      </trkpt>
      <trkpt lat="42.27712" lon="0.94289">
        <ele>749</ele>
        <time>2022-05-23 06:52:36</time>
      </trkpt>
      <trkpt lat="42.27708" lon="0.9429">
        <ele>749</ele>
        <time>2022-05-23 06:52:37</time>
      </trkpt>
      <trkpt lat="42.27704" lon="0.94291">
        <ele>749.2</ele>
        <time>2022-05-23 06:52:38</time>
      </trkpt>
      <trkpt lat="42.27701" lon="0.94293">
        <ele>749.4</ele>
        <time>2022-05-23 06:52:39</time>
      </trkpt>
      <trkpt lat="42.27697" lon="0.94294">
        <ele>749.4</ele>
        <time>2022-05-23 06:52:40</time>
      </trkpt>
      <trkpt lat="42.27694" lon="0.94295">
        <ele>749.6</ele>
        <time>2022-05-23 06:52:41</time>
      </trkpt>
      <trkpt lat="42.2769" lon="0.94296">
        <ele>749.8</ele>
        <time>2022-05-23 06:52:42</time>
      </trkpt>
      <trkpt lat="42.27686" lon="0.94296">
        <ele>749.8</ele>
        <time>2022-05-23 06:52:43</time>
      </trkpt>
      <trkpt lat="42.27683" lon="0.94297">
        <ele>750</ele>
        <time>2022-05-23 06:52:44</time>
      </trkpt>
      <trkpt lat="42.2768" lon="0.94298">
        <ele>750</ele>
        <time>2022-05-23 06:52:45</time>
      </trkpt>
      <trkpt lat="42.27676" lon="0.94299">
        <ele>750.2</ele>
        <time>2022-05-23 06:52:46</time>
      </trkpt>
      <trkpt lat="42.27672" lon="0.94299">
        <ele>750.4</ele>
        <time>2022-05-23 06:52:47</time>
      </trkpt>
      <trkpt lat="42.27669" lon="0.943">
        <ele>750.6</ele>
        <time>2022-05-23 06:52:48</time>
      </trkpt>
      <trkpt lat="42.27666" lon="0.943">
        <ele>750.8</ele>
        <time>2022-05-23 06:52:49</time>
      </trkpt>
      <trkpt lat="42.27663" lon="0.94301">
        <ele>751</ele>
        <time>2022-05-23 06:52:50</time>
      </trkpt>
      <trkpt lat="42.27659" lon="0.94303">
        <ele>751.2</ele>
        <time>2022-05-23 06:52:51</time>
      </trkpt>
      <trkpt lat="42.27656" lon="0.94305">
        <ele>751.4</ele>
        <time>2022-05-23 06:52:52</time>
      </trkpt>
      <trkpt lat="42.27653" lon="0.94307">
        <ele>751.4</ele>
        <time>2022-05-23 06:52:53</time>
      </trkpt>
      <trkpt lat="42.2765" lon="0.9431">
        <ele>751.6</ele>
        <time>2022-05-23 06:52:54</time>
      </trkpt>
      <trkpt lat="42.27647" lon="0.94312">
        <ele>751.6</ele>
        <time>2022-05-23 06:52:55</time>
      </trkpt>
      <trkpt lat="42.27644" lon="0.94316">
        <ele>751.8</ele>
        <time>2022-05-23 06:52:56</time>
      </trkpt>
      <trkpt lat="42.27641" lon="0.94319">
        <ele>751.8</ele>
        <time>2022-05-23 06:52:57</time>
      </trkpt>
      <trkpt lat="42.27638" lon="0.94322">
        <ele>752</ele>
        <time>2022-05-23 06:52:58</time>
      </trkpt>
      <trkpt lat="42.27635" lon="0.94325">
        <ele>752.2</ele>
        <time>2022-05-23 06:52:59</time>
      </trkpt>
      <trkpt lat="42.27632" lon="0.94328">
        <ele>752.4</ele>
        <time>2022-05-23 06:53:00</time>
      </trkpt>
      <trkpt lat="42.27629" lon="0.94331">
        <ele>752.6</ele>
        <time>2022-05-23 06:53:01</time>
      </trkpt>
      <trkpt lat="42.27626" lon="0.94334">
        <ele>752.8</ele>
        <time>2022-05-23 06:53:02</time>
      </trkpt>
      <trkpt lat="42.27623" lon="0.94338">
        <ele>752.8</ele>
        <time>2022-05-23 06:53:03</time>
      </trkpt>
      <trkpt lat="42.2762" lon="0.94341">
        <ele>753</ele>
        <time>2022-05-23 06:53:04</time>
      </trkpt>
      <trkpt lat="42.27617" lon="0.94345">
        <ele>753.2</ele>
        <time>2022-05-23 06:53:05</time>
      </trkpt>
      <trkpt lat="42.27614" lon="0.94348">
        <ele>753.2</ele>
        <time>2022-05-23 06:53:06</time>
      </trkpt>
      <trkpt lat="42.27612" lon="0.94352">
        <ele>753.4</ele>
        <time>2022-05-23 06:53:07</time>
      </trkpt>
      <trkpt lat="42.2761" lon="0.94356">
        <ele>753.6</ele>
        <time>2022-05-23 06:53:08</time>
      </trkpt>
      <trkpt lat="42.27608" lon="0.94359">
        <ele>753.8</ele>
        <time>2022-05-23 06:53:09</time>
      </trkpt>
      <trkpt lat="42.27607" lon="0.94362">
        <ele>754</ele>
        <time>2022-05-23 06:53:10</time>
      </trkpt>
      <trkpt lat="42.27605" lon="0.94366">
        <ele>754.2</ele>
        <time>2022-05-23 06:53:11</time>
      </trkpt>
      <trkpt lat="42.27603" lon="0.94369">
        <ele>754.4</ele>
        <time>2022-05-23 06:53:12</time>
      </trkpt>
      <trkpt lat="42.27602" lon="0.94373">
        <ele>754.4</ele>
        <time>2022-05-23 06:53:13</time>
      </trkpt>
      <trkpt lat="42.27601" lon="0.94377">
        <ele>754.6</ele>
        <time>2022-05-23 06:53:14</time>
      </trkpt>
      <trkpt lat="42.276" lon="0.9438">
        <ele>754.8</ele>
        <time>2022-05-23 06:53:15</time>
      </trkpt>
      <trkpt lat="42.27599" lon="0.94384">
        <ele>755</ele>
        <time>2022-05-23 06:53:16</time>
      </trkpt>
      <trkpt lat="42.27597" lon="0.94388">
        <ele>755</ele>
        <time>2022-05-23 06:53:17</time>
      </trkpt>
      <trkpt lat="42.27596" lon="0.94392">
        <ele>755.2</ele>
        <time>2022-05-23 06:53:18</time>
      </trkpt>
      <trkpt lat="42.27595" lon="0.94396">
        <ele>755.2</ele>
        <time>2022-05-23 06:53:19</time>
      </trkpt>
      <trkpt lat="42.27594" lon="0.944">
        <ele>755.4</ele>
        <time>2022-05-23 06:53:20</time>
      </trkpt>
      <trkpt lat="42.27593" lon="0.94404">
        <ele>755.4</ele>
        <time>2022-05-23 06:53:21</time>
      </trkpt>
      <trkpt lat="42.27592" lon="0.94408">
        <ele>755.6</ele>
        <time>2022-05-23 06:53:22</time>
      </trkpt>
      <trkpt lat="42.27591" lon="0.94411">
        <ele>755.8</ele>
        <time>2022-05-23 06:53:23</time>
      </trkpt>
      <trkpt lat="42.2759" lon="0.94415">
        <ele>756</ele>
        <time>2022-05-23 06:53:24</time>
      </trkpt>
      <trkpt lat="42.27589" lon="0.94419">
        <ele>756</ele>
        <time>2022-05-23 06:53:25</time>
      </trkpt>
      <trkpt lat="42.27589" lon="0.94423">
        <ele>756.2</ele>
        <time>2022-05-23 06:53:26</time>
      </trkpt>
      <trkpt lat="42.27588" lon="0.94426">
        <ele>756.4</ele>
        <time>2022-05-23 06:53:27</time>
      </trkpt>
      <trkpt lat="42.27588" lon="0.9443">
        <ele>756.4</ele>
        <time>2022-05-23 06:53:28</time>
      </trkpt>
      <trkpt lat="42.27588" lon="0.94434">
        <ele>756.4</ele>
        <time>2022-05-23 06:53:29</time>
      </trkpt>
      <trkpt lat="42.27587" lon="0.94438">
        <ele>756.6</ele>
        <time>2022-05-23 06:53:30</time>
      </trkpt>
      <trkpt lat="42.27587" lon="0.94442">
        <ele>756.6</ele>
        <time>2022-05-23 06:53:31</time>
      </trkpt>
      <trkpt lat="42.27587" lon="0.94447">
        <ele>756.6</ele>
        <time>2022-05-23 06:53:32</time>
      </trkpt>
      <trkpt lat="42.27586" lon="0.94451">
        <ele>756.8</ele>
        <time>2022-05-23 06:53:33</time>
      </trkpt>
      <trkpt lat="42.27586" lon="0.94455">
        <ele>757</ele>
        <time>2022-05-23 06:53:34</time>
      </trkpt>
      <trkpt lat="42.27587" lon="0.94459">
        <ele>757</ele>
        <time>2022-05-23 06:53:35</time>
      </trkpt>
      <trkpt lat="42.27588" lon="0.94463">
        <ele>757.2</ele>
        <time>2022-05-23 06:53:36</time>
      </trkpt>
      <trkpt lat="42.27588" lon="0.94467">
        <ele>757.4</ele>
        <time>2022-05-23 06:53:37</time>
      </trkpt>
      <trkpt lat="42.27589" lon="0.94471">
        <ele>757.4</ele>
        <time>2022-05-23 06:53:38</time>
      </trkpt>
      <trkpt lat="42.27589" lon="0.94475">
        <ele>757.6</ele>
        <time>2022-05-23 06:53:39</time>
      </trkpt>
      <trkpt lat="42.27589" lon="0.9448">
        <ele>757.6</ele>
        <time>2022-05-23 06:53:40</time>
      </trkpt>
      <trkpt lat="42.27589" lon="0.94484">
        <ele>757.8</ele>
        <time>2022-05-23 06:53:41</time>
      </trkpt>
      <trkpt lat="42.27589" lon="0.94488">
        <ele>757.8</ele>
        <time>2022-05-23 06:53:42</time>
      </trkpt>
      <trkpt lat="42.27589" lon="0.94492">
        <ele>758</ele>
        <time>2022-05-23 06:53:43</time>
      </trkpt>
      <trkpt lat="42.27588" lon="0.94496">
        <ele>758</ele>
        <time>2022-05-23 06:53:44</time>
      </trkpt>
      <trkpt lat="42.27588" lon="0.945">
        <ele>758.2</ele>
        <time>2022-05-23 06:53:45</time>
      </trkpt>
      <trkpt lat="42.27589" lon="0.94504">
        <ele>758.4</ele>
        <time>2022-05-23 06:53:46</time>
      </trkpt>
      <trkpt lat="42.27589" lon="0.94508">
        <ele>758.4</ele>
        <time>2022-05-23 06:53:47</time>
      </trkpt>
      <trkpt lat="42.27589" lon="0.94512">
        <ele>758.6</ele>
        <time>2022-05-23 06:53:48</time>
      </trkpt>
      <trkpt lat="42.27589" lon="0.94516">
        <ele>758.6</ele>
        <time>2022-05-23 06:53:49</time>
      </trkpt>
      <trkpt lat="42.27589" lon="0.94521">
        <ele>758.6</ele>
        <time>2022-05-23 06:53:50</time>
      </trkpt>
      <trkpt lat="42.27589" lon="0.94525">
        <ele>758.6</ele>
        <time>2022-05-23 06:53:51</time>
      </trkpt>
      <trkpt lat="42.27589" lon="0.94531">
        <ele>758.6</ele>
        <time>2022-05-23 06:53:52</time>
      </trkpt>
      <trkpt lat="42.2759" lon="0.94536">
        <ele>758.6</ele>
        <time>2022-05-23 06:53:53</time>
      </trkpt>
      <trkpt lat="42.2759" lon="0.94541">
        <ele>758.4</ele>
        <time>2022-05-23 06:53:54</time>
      </trkpt>
      <trkpt lat="42.27591" lon="0.94547">
        <ele>758.4</ele>
        <time>2022-05-23 06:53:55</time>
      </trkpt>
      <trkpt lat="42.27591" lon="0.94554">
        <ele>758.2</ele>
        <time>2022-05-23 06:53:56</time>
      </trkpt>
      <trkpt lat="42.27591" lon="0.9456">
        <ele>758</ele>
        <time>2022-05-23 06:53:57</time>
      </trkpt>
      <trkpt lat="42.27591" lon="0.94567">
        <ele>757.8</ele>
        <time>2022-05-23 06:53:58</time>
      </trkpt>
      <trkpt lat="42.27591" lon="0.94574">
        <ele>757.6</ele>
        <time>2022-05-23 06:53:59</time>
      </trkpt>
      <trkpt lat="42.27591" lon="0.94581">
        <ele>757.4</ele>
        <time>2022-05-23 06:54:00</time>
      </trkpt>
      <trkpt lat="42.27591" lon="0.94588">
        <ele>757.4</ele>
        <time>2022-05-23 06:54:01</time>
      </trkpt>
      <trkpt lat="42.27591" lon="0.94596">
        <ele>757.2</ele>
        <time>2022-05-23 06:54:02</time>
      </trkpt>
      <trkpt lat="42.2759" lon="0.94604">
        <ele>757</ele>
        <time>2022-05-23 06:54:03</time>
      </trkpt>
      <trkpt lat="42.2759" lon="0.94612">
        <ele>756.8</ele>
        <time>2022-05-23 06:54:04</time>
      </trkpt>
      <trkpt lat="42.27589" lon="0.94619">
        <ele>756.8</ele>
        <time>2022-05-23 06:54:05</time>
      </trkpt>
      <trkpt lat="42.27588" lon="0.94626">
        <ele>756.6</ele>
        <time>2022-05-23 06:54:06</time>
      </trkpt>
      <trkpt lat="42.27586" lon="0.94634">
        <ele>756.6</ele>
        <time>2022-05-23 06:54:07</time>
      </trkpt>
      <trkpt lat="42.27585" lon="0.94641">
        <ele>756.6</ele>
        <time>2022-05-23 06:54:08</time>
      </trkpt>
      <trkpt lat="42.27583" lon="0.94648">
        <ele>756.6</ele>
        <time>2022-05-23 06:54:09</time>
      </trkpt>
      <trkpt lat="42.27583" lon="0.94654">
        <ele>756.6</ele>
        <time>2022-05-23 06:54:10</time>
      </trkpt>
      <trkpt lat="42.27583" lon="0.94661">
        <ele>756.6</ele>
        <time>2022-05-23 06:54:11</time>
      </trkpt>
      <trkpt lat="42.27583" lon="0.94667">
        <ele>756.6</ele>
        <time>2022-05-23 06:54:12</time>
      </trkpt>
      <trkpt lat="42.27583" lon="0.94673">
        <ele>756.6</ele>
        <time>2022-05-23 06:54:13</time>
      </trkpt>
      <trkpt lat="42.27583" lon="0.9468">
        <ele>756.6</ele>
        <time>2022-05-23 06:54:14</time>
      </trkpt>
      <trkpt lat="42.27583" lon="0.94687">
        <ele>756.6</ele>
        <time>2022-05-23 06:54:15</time>
      </trkpt>
      <trkpt lat="42.27584" lon="0.94693">
        <ele>756.4</ele>
        <time>2022-05-23 06:54:16</time>
      </trkpt>
      <trkpt lat="42.27585" lon="0.947">
        <ele>756.4</ele>
        <time>2022-05-23 06:54:17</time>
      </trkpt>
      <trkpt lat="42.27585" lon="0.94708">
        <ele>756.4</ele>
        <time>2022-05-23 06:54:18</time>
      </trkpt>
      <trkpt lat="42.27585" lon="0.94715">
        <ele>756.2</ele>
        <time>2022-05-23 06:54:19</time>
      </trkpt>
      <trkpt lat="42.27584" lon="0.94724">
        <ele>756.4</ele>
        <time>2022-05-23 06:54:20</time>
      </trkpt>
      <trkpt lat="42.27585" lon="0.94731">
        <ele>756.4</ele>
        <time>2022-05-23 06:54:21</time>
      </trkpt>
      <trkpt lat="42.27586" lon="0.94738">
        <ele>756.4</ele>
        <time>2022-05-23 06:54:22</time>
      </trkpt>
      <trkpt lat="42.27587" lon="0.94745">
        <ele>756.4</ele>
        <time>2022-05-23 06:54:23</time>
      </trkpt>
      <trkpt lat="42.2759" lon="0.94752">
        <ele>756.4</ele>
        <time>2022-05-23 06:54:24</time>
      </trkpt>
      <trkpt lat="42.27591" lon="0.94758">
        <ele>756.6</ele>
        <time>2022-05-23 06:54:25</time>
      </trkpt>
      <trkpt lat="42.27594" lon="0.94764">
        <ele>756.6</ele>
        <time>2022-05-23 06:54:26</time>
      </trkpt>
      <trkpt lat="42.27596" lon="0.9477">
        <ele>756.6</ele>
        <time>2022-05-23 06:54:27</time>
      </trkpt>
      <trkpt lat="42.27598" lon="0.94775">
        <ele>756.6</ele>
        <time>2022-05-23 06:54:28</time>
      </trkpt>
      <trkpt lat="42.27599" lon="0.9478">
        <ele>756.6</ele>
        <time>2022-05-23 06:54:29</time>
      </trkpt>
      <trkpt lat="42.27601" lon="0.94786">
        <ele>756.6</ele>
        <time>2022-05-23 06:54:30</time>
      </trkpt>
      <trkpt lat="42.27603" lon="0.94791">
        <ele>756.8</ele>
        <time>2022-05-23 06:54:31</time>
      </trkpt>
      <trkpt lat="42.27605" lon="0.94796">
        <ele>756.8</ele>
        <time>2022-05-23 06:54:32</time>
      </trkpt>
      <trkpt lat="42.27607" lon="0.94801">
        <ele>756.8</ele>
        <time>2022-05-23 06:54:33</time>
      </trkpt>
      <trkpt lat="42.2761" lon="0.94806">
        <ele>756.6</ele>
        <time>2022-05-23 06:54:34</time>
      </trkpt>
      <trkpt lat="42.27612" lon="0.94811">
        <ele>756.6</ele>
        <time>2022-05-23 06:54:35</time>
      </trkpt>
      <trkpt lat="42.27614" lon="0.94817">
        <ele>756.6</ele>
        <time>2022-05-23 06:54:36</time>
      </trkpt>
      <trkpt lat="42.27617" lon="0.94823">
        <ele>756.6</ele>
        <time>2022-05-23 06:54:37</time>
      </trkpt>
      <trkpt lat="42.2762" lon="0.94829">
        <ele>756.6</ele>
        <time>2022-05-23 06:54:38</time>
      </trkpt>
      <trkpt lat="42.27623" lon="0.94835">
        <ele>756.6</ele>
        <time>2022-05-23 06:54:39</time>
      </trkpt>
      <trkpt lat="42.27625" lon="0.94842">
        <ele>756.6</ele>
        <time>2022-05-23 06:54:40</time>
      </trkpt>
      <trkpt lat="42.27628" lon="0.94849">
        <ele>756.6</ele>
        <time>2022-05-23 06:54:41</time>
      </trkpt>
      <trkpt lat="42.2763" lon="0.94856">
        <ele>756.6</ele>
        <time>2022-05-23 06:54:42</time>
      </trkpt>
      <trkpt lat="42.27633" lon="0.94863">
        <ele>756.6</ele>
        <time>2022-05-23 06:54:43</time>
      </trkpt>
      <trkpt lat="42.27636" lon="0.9487">
        <ele>756.6</ele>
        <time>2022-05-23 06:54:44</time>
      </trkpt>
      <trkpt lat="42.27639" lon="0.94877">
        <ele>756.6</ele>
        <time>2022-05-23 06:54:45</time>
      </trkpt>
      <trkpt lat="42.27642" lon="0.94885">
        <ele>756.6</ele>
        <time>2022-05-23 06:54:46</time>
      </trkpt>
      <trkpt lat="42.27645" lon="0.94892">
        <ele>756.6</ele>
        <time>2022-05-23 06:54:47</time>
      </trkpt>
      <trkpt lat="42.27649" lon="0.94898">
        <ele>756.6</ele>
        <time>2022-05-23 06:54:48</time>
      </trkpt>
      <trkpt lat="42.27653" lon="0.94905">
        <ele>756.4</ele>
        <time>2022-05-23 06:54:49</time>
      </trkpt>
      <trkpt lat="42.27657" lon="0.94911">
        <ele>756.2</ele>
        <time>2022-05-23 06:54:50</time>
      </trkpt>
      <trkpt lat="42.27662" lon="0.94917">
        <ele>755.8</ele>
        <time>2022-05-23 06:54:51</time>
      </trkpt>
      <trkpt lat="42.27667" lon="0.94923">
        <ele>755.4</ele>
        <time>2022-05-23 06:54:52</time>
      </trkpt>
      <trkpt lat="42.27671" lon="0.94931">
        <ele>755</ele>
        <time>2022-05-23 06:54:53</time>
      </trkpt>
      <trkpt lat="42.27673" lon="0.94941">
        <ele>754.4</ele>
        <time>2022-05-23 06:54:54</time>
      </trkpt>
      <trkpt lat="42.27674" lon="0.94951">
        <ele>754</ele>
        <time>2022-05-23 06:54:55</time>
      </trkpt>
      <trkpt lat="42.27673" lon="0.94962">
        <ele>753.4</ele>
        <time>2022-05-23 06:54:56</time>
      </trkpt>
      <trkpt lat="42.27672" lon="0.94974">
        <ele>753</ele>
        <time>2022-05-23 06:54:57</time>
      </trkpt>
      <trkpt lat="42.27675" lon="0.94985">
        <ele>752.4</ele>
        <time>2022-05-23 06:54:58</time>
      </trkpt>
      <trkpt lat="42.27679" lon="0.94996">
        <ele>751.8</ele>
        <time>2022-05-23 06:54:59</time>
      </trkpt>
      <trkpt lat="42.27683" lon="0.95007">
        <ele>751</ele>
        <time>2022-05-23 06:55:00</time>
      </trkpt>
      <trkpt lat="42.27689" lon="0.95017">
        <ele>750.2</ele>
        <time>2022-05-23 06:55:01</time>
      </trkpt>
      <trkpt lat="42.27692" lon="0.95031">
        <ele>749.6</ele>
        <time>2022-05-23 06:55:02</time>
      </trkpt>
      <trkpt lat="42.27689" lon="0.95044">
        <ele>749</ele>
        <time>2022-05-23 06:55:03</time>
      </trkpt>
      <trkpt lat="42.27681" lon="0.95054">
        <ele>748.8</ele>
        <time>2022-05-23 06:55:04</time>
      </trkpt>
      <trkpt lat="42.27673" lon="0.95059">
        <ele>748.6</ele>
        <time>2022-05-23 06:55:05</time>
      </trkpt>
      <trkpt lat="42.27665" lon="0.95061">
        <ele>748.6</ele>
        <time>2022-05-23 06:55:06</time>
      </trkpt>
      <trkpt lat="42.27656" lon="0.9506">
        <ele>748.6</ele>
        <time>2022-05-23 06:55:07</time>
      </trkpt>
      <trkpt lat="42.27649" lon="0.95058">
        <ele>748.6</ele>
        <time>2022-05-23 06:55:08</time>
      </trkpt>
      <trkpt lat="42.27641" lon="0.95056">
        <ele>748.6</ele>
        <time>2022-05-23 06:55:09</time>
      </trkpt>
      <trkpt lat="42.27634" lon="0.95054">
        <ele>748.8</ele>
        <time>2022-05-23 06:55:10</time>
      </trkpt>
      <trkpt lat="42.27627" lon="0.95053">
        <ele>748.8</ele>
        <time>2022-05-23 06:55:11</time>
      </trkpt>
      <trkpt lat="42.2762" lon="0.95051">
        <ele>748.8</ele>
        <time>2022-05-23 06:55:12</time>
      </trkpt>
      <trkpt lat="42.27613" lon="0.95049">
        <ele>748.8</ele>
        <time>2022-05-23 06:55:13</time>
      </trkpt>
      <trkpt lat="42.27606" lon="0.95048">
        <ele>748.8</ele>
        <time>2022-05-23 06:55:14</time>
      </trkpt>
      <trkpt lat="42.27599" lon="0.95046">
        <ele>749</ele>
        <time>2022-05-23 06:55:15</time>
      </trkpt>
      <trkpt lat="42.27593" lon="0.95043">
        <ele>749.2</ele>
        <time>2022-05-23 06:55:16</time>
      </trkpt>
      <trkpt lat="42.27588" lon="0.95041">
        <ele>749.4</ele>
        <time>2022-05-23 06:55:17</time>
      </trkpt>
      <trkpt lat="42.27582" lon="0.9504">
        <ele>749.8</ele>
        <time>2022-05-23 06:55:18</time>
      </trkpt>
      <trkpt lat="42.27577" lon="0.95039">
        <ele>750.2</ele>
        <time>2022-05-23 06:55:19</time>
      </trkpt>
      <trkpt lat="42.27572" lon="0.95038">
        <ele>750.6</ele>
        <time>2022-05-23 06:55:20</time>
      </trkpt>
      <trkpt lat="42.27567" lon="0.95037">
        <ele>750.8</ele>
        <time>2022-05-23 06:55:21</time>
      </trkpt>
      <trkpt lat="42.27563" lon="0.95036">
        <ele>751.2</ele>
        <time>2022-05-23 06:55:22</time>
      </trkpt>
      <trkpt lat="42.27558" lon="0.95035">
        <ele>751.6</ele>
        <time>2022-05-23 06:55:23</time>
      </trkpt>
      <trkpt lat="42.27554" lon="0.95035">
        <ele>751.8</ele>
        <time>2022-05-23 06:55:24</time>
      </trkpt>
      <trkpt lat="42.2755" lon="0.95035">
        <ele>752.2</ele>
        <time>2022-05-23 06:55:25</time>
      </trkpt>
      <trkpt lat="42.27545" lon="0.95036">
        <ele>752.6</ele>
        <time>2022-05-23 06:55:26</time>
      </trkpt>
      <trkpt lat="42.27542" lon="0.95037">
        <ele>752.8</ele>
        <time>2022-05-23 06:55:27</time>
      </trkpt>
      <trkpt lat="42.27538" lon="0.95038">
        <ele>753.2</ele>
        <time>2022-05-23 06:55:28</time>
      </trkpt>
      <trkpt lat="42.27534" lon="0.9504">
        <ele>753.4</ele>
        <time>2022-05-23 06:55:29</time>
      </trkpt>
      <trkpt lat="42.2753" lon="0.95042">
        <ele>753.8</ele>
        <time>2022-05-23 06:55:30</time>
      </trkpt>
      <trkpt lat="42.27527" lon="0.95044">
        <ele>754</ele>
        <time>2022-05-23 06:55:31</time>
      </trkpt>
      <trkpt lat="42.27523" lon="0.95045">
        <ele>754.4</ele>
        <time>2022-05-23 06:55:32</time>
      </trkpt>
      <trkpt lat="42.2752" lon="0.95046">
        <ele>754.6</ele>
        <time>2022-05-23 06:55:33</time>
      </trkpt>
      <trkpt lat="42.27516" lon="0.95048">
        <ele>754.8</ele>
        <time>2022-05-23 06:55:34</time>
      </trkpt>
      <trkpt lat="42.27513" lon="0.9505">
        <ele>755</ele>
        <time>2022-05-23 06:55:35</time>
      </trkpt>
      <trkpt lat="42.2751" lon="0.95053">
        <ele>755.2</ele>
        <time>2022-05-23 06:55:36</time>
      </trkpt>
      <trkpt lat="42.27507" lon="0.95055">
        <ele>755.4</ele>
        <time>2022-05-23 06:55:37</time>
      </trkpt>
      <trkpt lat="42.27504" lon="0.95058">
        <ele>755.6</ele>
        <time>2022-05-23 06:55:38</time>
      </trkpt>
      <trkpt lat="42.27502" lon="0.95061">
        <ele>755.8</ele>
        <time>2022-05-23 06:55:39</time>
      </trkpt>
      <trkpt lat="42.27499" lon="0.95065">
        <ele>756</ele>
        <time>2022-05-23 06:55:40</time>
      </trkpt>
      <trkpt lat="42.27497" lon="0.95069">
        <ele>756.2</ele>
        <time>2022-05-23 06:55:41</time>
      </trkpt>
      <trkpt lat="42.27495" lon="0.95073">
        <ele>756.6</ele>
        <time>2022-05-23 06:55:42</time>
      </trkpt>
      <trkpt lat="42.27493" lon="0.95077">
        <ele>756.8</ele>
        <time>2022-05-23 06:55:43</time>
      </trkpt>
      <trkpt lat="42.27491" lon="0.95081">
        <ele>757</ele>
        <time>2022-05-23 06:55:44</time>
      </trkpt>
      <trkpt lat="42.27488" lon="0.95084">
        <ele>757.2</ele>
        <time>2022-05-23 06:55:45</time>
      </trkpt>
      <trkpt lat="42.27485" lon="0.95087">
        <ele>757.4</ele>
        <time>2022-05-23 06:55:46</time>
      </trkpt>
      <trkpt lat="42.27481" lon="0.95089">
        <ele>757.8</ele>
        <time>2022-05-23 06:55:47</time>
      </trkpt>
      <trkpt lat="42.27478" lon="0.9509">
        <ele>758</ele>
        <time>2022-05-23 06:55:48</time>
      </trkpt>
      <trkpt lat="42.27474" lon="0.95089">
        <ele>758.2</ele>
        <time>2022-05-23 06:55:49</time>
      </trkpt>
      <trkpt lat="42.2747" lon="0.95088">
        <ele>758.6</ele>
        <time>2022-05-23 06:55:50</time>
      </trkpt>
      <trkpt lat="42.27467" lon="0.95086">
        <ele>758.8</ele>
        <time>2022-05-23 06:55:51</time>
      </trkpt>
      <trkpt lat="42.27463" lon="0.95085">
        <ele>759.2</ele>
        <time>2022-05-23 06:55:52</time>
      </trkpt>
      <trkpt lat="42.2746" lon="0.95083">
        <ele>759.4</ele>
        <time>2022-05-23 06:55:53</time>
      </trkpt>
      <trkpt lat="42.27457" lon="0.95081">
        <ele>759.8</ele>
        <time>2022-05-23 06:55:54</time>
      </trkpt>
      <trkpt lat="42.27454" lon="0.9508">
        <ele>760</ele>
        <time>2022-05-23 06:55:55</time>
      </trkpt>
      <trkpt lat="42.27451" lon="0.95078">
        <ele>760.2</ele>
        <time>2022-05-23 06:55:56</time>
      </trkpt>
      <trkpt lat="42.27448" lon="0.95076">
        <ele>760.4</ele>
        <time>2022-05-23 06:55:57</time>
      </trkpt>
      <trkpt lat="42.27445" lon="0.95075">
        <ele>760.6</ele>
        <time>2022-05-23 06:55:58</time>
      </trkpt>
      <trkpt lat="42.27442" lon="0.95073">
        <ele>760.8</ele>
        <time>2022-05-23 06:55:59</time>
      </trkpt>
      <trkpt lat="42.27439" lon="0.95072">
        <ele>761</ele>
        <time>2022-05-23 06:56:00</time>
      </trkpt>
      <trkpt lat="42.27436" lon="0.95071">
        <ele>761.2</ele>
        <time>2022-05-23 06:56:01</time>
      </trkpt>
      <trkpt lat="42.27433" lon="0.95071">
        <ele>761.4</ele>
        <time>2022-05-23 06:56:02</time>
      </trkpt>
      <trkpt lat="42.2743" lon="0.95072">
        <ele>761.6</ele>
        <time>2022-05-23 06:56:03</time>
      </trkpt>
      <trkpt lat="42.27427" lon="0.95072">
        <ele>761.8</ele>
        <time>2022-05-23 06:56:04</time>
      </trkpt>
      <trkpt lat="42.27424" lon="0.95073">
        <ele>762</ele>
        <time>2022-05-23 06:56:05</time>
      </trkpt>
      <trkpt lat="42.27421" lon="0.95073">
        <ele>762.2</ele>
        <time>2022-05-23 06:56:06</time>
      </trkpt>
      <trkpt lat="42.27418" lon="0.95074">
        <ele>762.4</ele>
        <time>2022-05-23 06:56:07</time>
      </trkpt>
      <trkpt lat="42.27416" lon="0.95076">
        <ele>762.6</ele>
        <time>2022-05-23 06:56:08</time>
      </trkpt>
      <trkpt lat="42.27413" lon="0.95077">
        <ele>762.8</ele>
        <time>2022-05-23 06:56:09</time>
      </trkpt>
      <trkpt lat="42.27412" lon="0.95079">
        <ele>763</ele>
        <time>2022-05-23 06:56:10</time>
      </trkpt>
      <trkpt lat="42.27409" lon="0.95081">
        <ele>763.4</ele>
        <time>2022-05-23 06:56:11</time>
      </trkpt>
      <trkpt lat="42.27407" lon="0.95083">
        <ele>763.6</ele>
        <time>2022-05-23 06:56:12</time>
      </trkpt>
      <trkpt lat="42.27404" lon="0.95085">
        <ele>763.8</ele>
        <time>2022-05-23 06:56:13</time>
      </trkpt>
      <trkpt lat="42.27402" lon="0.95087">
        <ele>764</ele>
        <time>2022-05-23 06:56:14</time>
      </trkpt>
      <trkpt lat="42.274" lon="0.95089">
        <ele>764.2</ele>
        <time>2022-05-23 06:56:15</time>
      </trkpt>
      <trkpt lat="42.27397" lon="0.95091">
        <ele>764.4</ele>
        <time>2022-05-23 06:56:16</time>
      </trkpt>
      <trkpt lat="42.27394" lon="0.95093">
        <ele>764.6</ele>
        <time>2022-05-23 06:56:17</time>
      </trkpt>
      <trkpt lat="42.27392" lon="0.95094">
        <ele>764.8</ele>
        <time>2022-05-23 06:56:18</time>
      </trkpt>
      <trkpt lat="42.27389" lon="0.95094">
        <ele>765</ele>
        <time>2022-05-23 06:56:19</time>
      </trkpt>
      <trkpt lat="42.27386" lon="0.95093">
        <ele>765.2</ele>
        <time>2022-05-23 06:56:20</time>
      </trkpt>
      <trkpt lat="42.27383" lon="0.95091">
        <ele>765.2</ele>
        <time>2022-05-23 06:56:21</time>
      </trkpt>
      <trkpt lat="42.2738" lon="0.95088">
        <ele>765.4</ele>
        <time>2022-05-23 06:56:22</time>
      </trkpt>
      <trkpt lat="42.27378" lon="0.95084">
        <ele>765.4</ele>
        <time>2022-05-23 06:56:23</time>
      </trkpt>
      <trkpt lat="42.27376" lon="0.9508">
        <ele>765.6</ele>
        <time>2022-05-23 06:56:24</time>
      </trkpt>
      <trkpt lat="42.27374" lon="0.95076">
        <ele>765.6</ele>
        <time>2022-05-23 06:56:25</time>
      </trkpt>
      <trkpt lat="42.27372" lon="0.95072">
        <ele>765.8</ele>
        <time>2022-05-23 06:56:26</time>
      </trkpt>
      <trkpt lat="42.27369" lon="0.95069">
        <ele>765.8</ele>
        <time>2022-05-23 06:56:27</time>
      </trkpt>
      <trkpt lat="42.27366" lon="0.95066">
        <ele>765.8</ele>
        <time>2022-05-23 06:56:28</time>
      </trkpt>
      <trkpt lat="42.27362" lon="0.95063">
        <ele>765.8</ele>
        <time>2022-05-23 06:56:29</time>
      </trkpt>
      <trkpt lat="42.27358" lon="0.95063">
        <ele>765.6</ele>
        <time>2022-05-23 06:56:30</time>
      </trkpt>
      <trkpt lat="42.27353" lon="0.95064">
        <ele>765.6</ele>
        <time>2022-05-23 06:56:31</time>
      </trkpt>
      <trkpt lat="42.27348" lon="0.95066">
        <ele>765.4</ele>
        <time>2022-05-23 06:56:32</time>
      </trkpt>
      <trkpt lat="42.27344" lon="0.95069">
        <ele>765.2</ele>
        <time>2022-05-23 06:56:33</time>
      </trkpt>
      <trkpt lat="42.27339" lon="0.95073">
        <ele>764.8</ele>
        <time>2022-05-23 06:56:34</time>
      </trkpt>
      <trkpt lat="42.27334" lon="0.95078">
        <ele>764.4</ele>
        <time>2022-05-23 06:56:35</time>
      </trkpt>
      <trkpt lat="42.2733" lon="0.95084">
        <ele>764</ele>
        <time>2022-05-23 06:56:36</time>
      </trkpt>
      <trkpt lat="42.27325" lon="0.9509">
        <ele>763.6</ele>
        <time>2022-05-23 06:56:37</time>
      </trkpt>
      <trkpt lat="42.2732" lon="0.95097">
        <ele>763.2</ele>
        <time>2022-05-23 06:56:38</time>
      </trkpt>
      <trkpt lat="42.27315" lon="0.95105">
        <ele>762.6</ele>
        <time>2022-05-23 06:56:39</time>
      </trkpt>
      <trkpt lat="42.27311" lon="0.95113">
        <ele>762</ele>
        <time>2022-05-23 06:56:40</time>
      </trkpt>
      <trkpt lat="42.27306" lon="0.95122">
        <ele>761.4</ele>
        <time>2022-05-23 06:56:41</time>
      </trkpt>
      <trkpt lat="42.27302" lon="0.95131">
        <ele>760.8</ele>
        <time>2022-05-23 06:56:42</time>
      </trkpt>
      <trkpt lat="42.27296" lon="0.9514">
        <ele>760.2</ele>
        <time>2022-05-23 06:56:43</time>
      </trkpt>
      <trkpt lat="42.2729" lon="0.95149">
        <ele>759.6</ele>
        <time>2022-05-23 06:56:44</time>
      </trkpt>
      <trkpt lat="42.27283" lon="0.95158">
        <ele>759</ele>
        <time>2022-05-23 06:56:45</time>
      </trkpt>
      <trkpt lat="42.27277" lon="0.95167">
        <ele>758.2</ele>
        <time>2022-05-23 06:56:46</time>
      </trkpt>
      <trkpt lat="42.27269" lon="0.95175">
        <ele>757.6</ele>
        <time>2022-05-23 06:56:47</time>
      </trkpt>
      <trkpt lat="42.27261" lon="0.95183">
        <ele>756.8</ele>
        <time>2022-05-23 06:56:48</time>
      </trkpt>
      <trkpt lat="42.27253" lon="0.95192">
        <ele>756</ele>
        <time>2022-05-23 06:56:49</time>
      </trkpt>
      <trkpt lat="42.27243" lon="0.95198">
        <ele>755.4</ele>
        <time>2022-05-23 06:56:50</time>
      </trkpt>
      <trkpt lat="42.27233" lon="0.95202">
        <ele>754.8</ele>
        <time>2022-05-23 06:56:51</time>
      </trkpt>
      <trkpt lat="42.27224" lon="0.95202">
        <ele>754</ele>
        <time>2022-05-23 06:56:52</time>
      </trkpt>
      <trkpt lat="42.27215" lon="0.952">
        <ele>753.2</ele>
        <time>2022-05-23 06:56:53</time>
      </trkpt>
      <trkpt lat="42.27204" lon="0.952">
        <ele>752.4</ele>
        <time>2022-05-23 06:56:54</time>
      </trkpt>
      <trkpt lat="42.27193" lon="0.952">
        <ele>751.6</ele>
        <time>2022-05-23 06:56:55</time>
      </trkpt>
      <trkpt lat="42.27182" lon="0.952">
        <ele>750.8</ele>
        <time>2022-05-23 06:56:56</time>
      </trkpt>
      <trkpt lat="42.2717" lon="0.95199">
        <ele>750.2</ele>
        <time>2022-05-23 06:56:57</time>
      </trkpt>
      <trkpt lat="42.2716" lon="0.95196">
        <ele>749.2</ele>
        <time>2022-05-23 06:56:58</time>
      </trkpt>
      <trkpt lat="42.2715" lon="0.95192">
        <ele>748.4</ele>
        <time>2022-05-23 06:56:59</time>
      </trkpt>
      <trkpt lat="42.27139" lon="0.95184">
        <ele>747.4</ele>
        <time>2022-05-23 06:57:00</time>
      </trkpt>
      <trkpt lat="42.27131" lon="0.95174">
        <ele>746.6</ele>
        <time>2022-05-23 06:57:01</time>
      </trkpt>
      <trkpt lat="42.27124" lon="0.95164">
        <ele>746</ele>
        <time>2022-05-23 06:57:02</time>
      </trkpt>
      <trkpt lat="42.27117" lon="0.95154">
        <ele>745.4</ele>
        <time>2022-05-23 06:57:03</time>
      </trkpt>
      <trkpt lat="42.2711" lon="0.95143">
        <ele>744.8</ele>
        <time>2022-05-23 06:57:04</time>
      </trkpt>
      <trkpt lat="42.27104" lon="0.95133">
        <ele>744.4</ele>
        <time>2022-05-23 06:57:05</time>
      </trkpt>
      <trkpt lat="42.27097" lon="0.95128">
        <ele>744</ele>
        <time>2022-05-23 06:57:06</time>
      </trkpt>
      <trkpt lat="42.27089" lon="0.9513">
        <ele>743.6</ele>
        <time>2022-05-23 06:57:07</time>
      </trkpt>
      <trkpt lat="42.27081" lon="0.95135">
        <ele>743.4</ele>
        <time>2022-05-23 06:57:08</time>
      </trkpt>
      <trkpt lat="42.27075" lon="0.95143">
        <ele>743.2</ele>
        <time>2022-05-23 06:57:09</time>
      </trkpt>
      <trkpt lat="42.27068" lon="0.95152">
        <ele>742.8</ele>
        <time>2022-05-23 06:57:10</time>
      </trkpt>
      <trkpt lat="42.27062" lon="0.95161">
        <ele>741.8</ele>
        <time>2022-05-23 06:57:11</time>
      </trkpt>
      <trkpt lat="42.27055" lon="0.9517">
        <ele>741</ele>
        <time>2022-05-23 06:57:12</time>
      </trkpt>
      <trkpt lat="42.27048" lon="0.95178">
        <ele>740.2</ele>
        <time>2022-05-23 06:57:13</time>
      </trkpt>
      <trkpt lat="42.2704" lon="0.95185">
        <ele>739.2</ele>
        <time>2022-05-23 06:57:14</time>
      </trkpt>
      <trkpt lat="42.27031" lon="0.95193">
        <ele>738.2</ele>
        <time>2022-05-23 06:57:15</time>
      </trkpt>
      <trkpt lat="42.27022" lon="0.95198">
        <ele>737.4</ele>
        <time>2022-05-23 06:57:16</time>
      </trkpt>
      <trkpt lat="42.27012" lon="0.95204">
        <ele>736.6</ele>
        <time>2022-05-23 06:57:17</time>
      </trkpt>
      <trkpt lat="42.27001" lon="0.95207">
        <ele>735.8</ele>
        <time>2022-05-23 06:57:18</time>
      </trkpt>
      <trkpt lat="42.2699" lon="0.9521">
        <ele>735</ele>
        <time>2022-05-23 06:57:19</time>
      </trkpt>
      <trkpt lat="42.2698" lon="0.95216">
        <ele>734.4</ele>
        <time>2022-05-23 06:57:20</time>
      </trkpt>
      <trkpt lat="42.2697" lon="0.95223">
        <ele>733.6</ele>
        <time>2022-05-23 06:57:21</time>
      </trkpt>
      <trkpt lat="42.2696" lon="0.95231">
        <ele>732.8</ele>
        <time>2022-05-23 06:57:22</time>
      </trkpt>
      <trkpt lat="42.26951" lon="0.9524">
        <ele>731.8</ele>
        <time>2022-05-23 06:57:23</time>
      </trkpt>
      <trkpt lat="42.26943" lon="0.9525">
        <ele>731</ele>
        <time>2022-05-23 06:57:24</time>
      </trkpt>
      <trkpt lat="42.26934" lon="0.95262">
        <ele>730</ele>
        <time>2022-05-23 06:57:25</time>
      </trkpt>
      <trkpt lat="42.26926" lon="0.95272">
        <ele>729.2</ele>
        <time>2022-05-23 06:57:26</time>
      </trkpt>
      <trkpt lat="42.26914" lon="0.95278">
        <ele>728.4</ele>
        <time>2022-05-23 06:57:27</time>
      </trkpt>
      <trkpt lat="42.26904" lon="0.95281">
        <ele>727.8</ele>
        <time>2022-05-23 06:57:28</time>
      </trkpt>
      <trkpt lat="42.26892" lon="0.95283">
        <ele>727.2</ele>
        <time>2022-05-23 06:57:29</time>
      </trkpt>
      <trkpt lat="42.26881" lon="0.95285">
        <ele>727</ele>
        <time>2022-05-23 06:57:30</time>
      </trkpt>
      <trkpt lat="42.26871" lon="0.95288">
        <ele>726.8</ele>
        <time>2022-05-23 06:57:31</time>
      </trkpt>
      <trkpt lat="42.2686" lon="0.95291">
        <ele>726.8</ele>
        <time>2022-05-23 06:57:32</time>
      </trkpt>
      <trkpt lat="42.26851" lon="0.95295">
        <ele>726.6</ele>
        <time>2022-05-23 06:57:33</time>
      </trkpt>
      <trkpt lat="42.26842" lon="0.95299">
        <ele>726.6</ele>
        <time>2022-05-23 06:57:34</time>
      </trkpt>
      <trkpt lat="42.26835" lon="0.95307">
        <ele>726.6</ele>
        <time>2022-05-23 06:57:35</time>
      </trkpt>
      <trkpt lat="42.26827" lon="0.95315">
        <ele>726.6</ele>
        <time>2022-05-23 06:57:36</time>
      </trkpt>
      <trkpt lat="42.26821" lon="0.95323">
        <ele>726.6</ele>
        <time>2022-05-23 06:57:37</time>
      </trkpt>
      <trkpt lat="42.26815" lon="0.9533">
        <ele>726.6</ele>
        <time>2022-05-23 06:57:38</time>
      </trkpt>
      <trkpt lat="42.26809" lon="0.95337">
        <ele>726.8</ele>
        <time>2022-05-23 06:57:39</time>
      </trkpt>
      <trkpt lat="42.26803" lon="0.95343">
        <ele>726.8</ele>
        <time>2022-05-23 06:57:40</time>
      </trkpt>
      <trkpt lat="42.26796" lon="0.95349">
        <ele>727</ele>
        <time>2022-05-23 06:57:41</time>
      </trkpt>
      <trkpt lat="42.2679" lon="0.95355">
        <ele>727</ele>
        <time>2022-05-23 06:57:42</time>
      </trkpt>
      <trkpt lat="42.26783" lon="0.95361">
        <ele>727</ele>
        <time>2022-05-23 06:57:43</time>
      </trkpt>
      <trkpt lat="42.26776" lon="0.95366">
        <ele>727.2</ele>
        <time>2022-05-23 06:57:44</time>
      </trkpt>
      <trkpt lat="42.2677" lon="0.9537">
        <ele>727.2</ele>
        <time>2022-05-23 06:57:45</time>
      </trkpt>
      <trkpt lat="42.26763" lon="0.95372">
        <ele>727.2</ele>
        <time>2022-05-23 06:57:46</time>
      </trkpt>
      <trkpt lat="42.26756" lon="0.95375">
        <ele>727</ele>
        <time>2022-05-23 06:57:47</time>
      </trkpt>
      <trkpt lat="42.26749" lon="0.95376">
        <ele>726.8</ele>
        <time>2022-05-23 06:57:48</time>
      </trkpt>
      <trkpt lat="42.26742" lon="0.95378">
        <ele>726.6</ele>
        <time>2022-05-23 06:57:49</time>
      </trkpt>
      <trkpt lat="42.26733" lon="0.95378">
        <ele>726.4</ele>
        <time>2022-05-23 06:57:50</time>
      </trkpt>
      <trkpt lat="42.26725" lon="0.95378">
        <ele>726.2</ele>
        <time>2022-05-23 06:57:51</time>
      </trkpt>
      <trkpt lat="42.26717" lon="0.95378">
        <ele>726</ele>
        <time>2022-05-23 06:57:52</time>
      </trkpt>
      <trkpt lat="42.26709" lon="0.95379">
        <ele>726</ele>
        <time>2022-05-23 06:57:53</time>
      </trkpt>
      <trkpt lat="42.26701" lon="0.95379">
        <ele>725.6</ele>
        <time>2022-05-23 06:57:54</time>
      </trkpt>
      <trkpt lat="42.26694" lon="0.9538">
        <ele>725.4</ele>
        <time>2022-05-23 06:57:55</time>
      </trkpt>
      <trkpt lat="42.26686" lon="0.95382">
        <ele>725.2</ele>
        <time>2022-05-23 06:57:56</time>
      </trkpt>
      <trkpt lat="42.26678" lon="0.95383">
        <ele>724.8</ele>
        <time>2022-05-23 06:57:57</time>
      </trkpt>
      <trkpt lat="42.2667" lon="0.95384">
        <ele>724.6</ele>
        <time>2022-05-23 06:57:58</time>
      </trkpt>
      <trkpt lat="42.26662" lon="0.95384">
        <ele>724.2</ele>
        <time>2022-05-23 06:57:59</time>
      </trkpt>
      <trkpt lat="42.26654" lon="0.95384">
        <ele>724</ele>
        <time>2022-05-23 06:58:00</time>
      </trkpt>
      <trkpt lat="42.26645" lon="0.95382">
        <ele>723.6</ele>
        <time>2022-05-23 06:58:01</time>
      </trkpt>
      <trkpt lat="42.26637" lon="0.9538">
        <ele>723.4</ele>
        <time>2022-05-23 06:58:02</time>
      </trkpt>
      <trkpt lat="42.2663" lon="0.95376">
        <ele>723.2</ele>
        <time>2022-05-23 06:58:03</time>
      </trkpt>
      <trkpt lat="42.26622" lon="0.95372">
        <ele>723</ele>
        <time>2022-05-23 06:58:04</time>
      </trkpt>
      <trkpt lat="42.26614" lon="0.95368">
        <ele>722.6</ele>
        <time>2022-05-23 06:58:05</time>
      </trkpt>
      <trkpt lat="42.26607" lon="0.95363">
        <ele>722.4</ele>
        <time>2022-05-23 06:58:06</time>
      </trkpt>
      <trkpt lat="42.266" lon="0.95358">
        <ele>722.2</ele>
        <time>2022-05-23 06:58:07</time>
      </trkpt>
      <trkpt lat="42.26592" lon="0.95354">
        <ele>721.8</ele>
        <time>2022-05-23 06:58:08</time>
      </trkpt>
      <trkpt lat="42.26585" lon="0.95349">
        <ele>721.4</ele>
        <time>2022-05-23 06:58:09</time>
      </trkpt>
      <trkpt lat="42.26577" lon="0.95344">
        <ele>721</ele>
        <time>2022-05-23 06:58:10</time>
      </trkpt>
      <trkpt lat="42.26569" lon="0.95339">
        <ele>720.6</ele>
        <time>2022-05-23 06:58:11</time>
      </trkpt>
      <trkpt lat="42.26562" lon="0.95335">
        <ele>720.2</ele>
        <time>2022-05-23 06:58:12</time>
      </trkpt>
      <trkpt lat="42.26554" lon="0.9533">
        <ele>719.8</ele>
        <time>2022-05-23 06:58:13</time>
      </trkpt>
      <trkpt lat="42.26546" lon="0.95325">
        <ele>719.4</ele>
        <time>2022-05-23 06:58:14</time>
      </trkpt>
      <trkpt lat="42.26538" lon="0.9532">
        <ele>719</ele>
        <time>2022-05-23 06:58:15</time>
      </trkpt>
      <trkpt lat="42.26529" lon="0.95315">
        <ele>718.6</ele>
        <time>2022-05-23 06:58:16</time>
      </trkpt>
      <trkpt lat="42.2652" lon="0.95309">
        <ele>718.2</ele>
        <time>2022-05-23 06:58:17</time>
      </trkpt>
      <trkpt lat="42.26511" lon="0.95305">
        <ele>718</ele>
        <time>2022-05-23 06:58:18</time>
      </trkpt>
      <trkpt lat="42.26501" lon="0.953">
        <ele>717.6</ele>
        <time>2022-05-23 06:58:19</time>
      </trkpt>
      <trkpt lat="42.26492" lon="0.95297">
        <ele>717.4</ele>
        <time>2022-05-23 06:58:20</time>
      </trkpt>
      <trkpt lat="42.26482" lon="0.95295">
        <ele>717.2</ele>
        <time>2022-05-23 06:58:21</time>
      </trkpt>
      <trkpt lat="42.26473" lon="0.95295">
        <ele>717</ele>
        <time>2022-05-23 06:58:22</time>
      </trkpt>
      <trkpt lat="42.26464" lon="0.95297">
        <ele>716.6</ele>
        <time>2022-05-23 06:58:23</time>
      </trkpt>
      <trkpt lat="42.26454" lon="0.95298">
        <ele>716.2</ele>
        <time>2022-05-23 06:58:24</time>
      </trkpt>
      <trkpt lat="42.26444" lon="0.95301">
        <ele>715.8</ele>
        <time>2022-05-23 06:58:25</time>
      </trkpt>
      <trkpt lat="42.26436" lon="0.95306">
        <ele>715.4</ele>
        <time>2022-05-23 06:58:26</time>
      </trkpt>
      <trkpt lat="42.26429" lon="0.95314">
        <ele>714.8</ele>
        <time>2022-05-23 06:58:27</time>
      </trkpt>
      <trkpt lat="42.26421" lon="0.95325">
        <ele>714.4</ele>
        <time>2022-05-23 06:58:28</time>
      </trkpt>
      <trkpt lat="42.26415" lon="0.95336">
        <ele>714</ele>
        <time>2022-05-23 06:58:29</time>
      </trkpt>
      <trkpt lat="42.26409" lon="0.95347">
        <ele>713.4</ele>
        <time>2022-05-23 06:58:30</time>
      </trkpt>
      <trkpt lat="42.26402" lon="0.95359">
        <ele>712.6</ele>
        <time>2022-05-23 06:58:31</time>
      </trkpt>
      <trkpt lat="42.26397" lon="0.95368">
        <ele>712.2</ele>
        <time>2022-05-23 06:58:32</time>
      </trkpt>
      <trkpt lat="42.26389" lon="0.9538">
        <ele>711.6</ele>
        <time>2022-05-23 06:58:33</time>
      </trkpt>
      <trkpt lat="42.26382" lon="0.95392">
        <ele>711.2</ele>
        <time>2022-05-23 06:58:34</time>
      </trkpt>
      <trkpt lat="42.26376" lon="0.95402">
        <ele>710.8</ele>
        <time>2022-05-23 06:58:35</time>
      </trkpt>
      <trkpt lat="42.2637" lon="0.95412">
        <ele>710.4</ele>
        <time>2022-05-23 06:58:36</time>
      </trkpt>
      <trkpt lat="42.26365" lon="0.95424">
        <ele>710</ele>
        <time>2022-05-23 06:58:37</time>
      </trkpt>
      <trkpt lat="42.26361" lon="0.95435">
        <ele>709.8</ele>
        <time>2022-05-23 06:58:38</time>
      </trkpt>
      <trkpt lat="42.26358" lon="0.95447">
        <ele>709.6</ele>
        <time>2022-05-23 06:58:39</time>
      </trkpt>
      <trkpt lat="42.26355" lon="0.95459">
        <ele>709.2</ele>
        <time>2022-05-23 06:58:40</time>
      </trkpt>
      <trkpt lat="42.26353" lon="0.95471">
        <ele>709</ele>
        <time>2022-05-23 06:58:41</time>
      </trkpt>
      <trkpt lat="42.26352" lon="0.95484">
        <ele>708.8</ele>
        <time>2022-05-23 06:58:42</time>
      </trkpt>
      <trkpt lat="42.26352" lon="0.95496">
        <ele>708.4</ele>
        <time>2022-05-23 06:58:43</time>
      </trkpt>
      <trkpt lat="42.26353" lon="0.95508">
        <ele>708.2</ele>
        <time>2022-05-23 06:58:44</time>
      </trkpt>
      <trkpt lat="42.26355" lon="0.95519">
        <ele>708</ele>
        <time>2022-05-23 06:58:45</time>
      </trkpt>
      <trkpt lat="42.26356" lon="0.95531">
        <ele>707.8</ele>
        <time>2022-05-23 06:58:46</time>
      </trkpt>
      <trkpt lat="42.26356" lon="0.95542">
        <ele>707.6</ele>
        <time>2022-05-23 06:58:47</time>
      </trkpt>
      <trkpt lat="42.26355" lon="0.95551">
        <ele>707.4</ele>
        <time>2022-05-23 06:58:48</time>
      </trkpt>
      <trkpt lat="42.26348" lon="0.95559">
        <ele>707.2</ele>
        <time>2022-05-23 06:58:49</time>
      </trkpt>
      <trkpt lat="42.26342" lon="0.95562">
        <ele>707</ele>
        <time>2022-05-23 06:58:50</time>
      </trkpt>
      <trkpt lat="42.26334" lon="0.9556">
        <ele>706.8</ele>
        <time>2022-05-23 06:58:51</time>
      </trkpt>
      <trkpt lat="42.26328" lon="0.95555">
        <ele>706.8</ele>
        <time>2022-05-23 06:58:52</time>
      </trkpt>
      <trkpt lat="42.26323" lon="0.95548">
        <ele>706.6</ele>
        <time>2022-05-23 06:58:53</time>
      </trkpt>
      <trkpt lat="42.26318" lon="0.9554">
        <ele>706.6</ele>
        <time>2022-05-23 06:58:54</time>
      </trkpt>
      <trkpt lat="42.26313" lon="0.95531">
        <ele>706.6</ele>
        <time>2022-05-23 06:58:55</time>
      </trkpt>
      <trkpt lat="42.26307" lon="0.95525">
        <ele>706.4</ele>
        <time>2022-05-23 06:58:56</time>
      </trkpt>
      <trkpt lat="42.26299" lon="0.9552">
        <ele>706.4</ele>
        <time>2022-05-23 06:58:57</time>
      </trkpt>
      <trkpt lat="42.26292" lon="0.95517">
        <ele>706.4</ele>
        <time>2022-05-23 06:58:58</time>
      </trkpt>
      <trkpt lat="42.26284" lon="0.95515">
        <ele>706.2</ele>
        <time>2022-05-23 06:58:59</time>
      </trkpt>
      <trkpt lat="42.26276" lon="0.95514">
        <ele>706.2</ele>
        <time>2022-05-23 06:59:00</time>
      </trkpt>
      <trkpt lat="42.26268" lon="0.95513">
        <ele>706</ele>
        <time>2022-05-23 06:59:01</time>
      </trkpt>
      <trkpt lat="42.26259" lon="0.95512">
        <ele>705.8</ele>
        <time>2022-05-23 06:59:02</time>
      </trkpt>
      <trkpt lat="42.26252" lon="0.95511">
        <ele>705.6</ele>
        <time>2022-05-23 06:59:03</time>
      </trkpt>
      <trkpt lat="42.26244" lon="0.95512">
        <ele>705.6</ele>
        <time>2022-05-23 06:59:04</time>
      </trkpt>
      <trkpt lat="42.26236" lon="0.95515">
        <ele>705.4</ele>
        <time>2022-05-23 06:59:05</time>
      </trkpt>
      <trkpt lat="42.2623" lon="0.95519">
        <ele>705.2</ele>
        <time>2022-05-23 06:59:06</time>
      </trkpt>
      <trkpt lat="42.26223" lon="0.95525">
        <ele>705</ele>
        <time>2022-05-23 06:59:07</time>
      </trkpt>
      <trkpt lat="42.26218" lon="0.95533">
        <ele>704.8</ele>
        <time>2022-05-23 06:59:08</time>
      </trkpt>
      <trkpt lat="42.26213" lon="0.95541">
        <ele>704.6</ele>
        <time>2022-05-23 06:59:09</time>
      </trkpt>
      <trkpt lat="42.2621" lon="0.9555">
        <ele>704.4</ele>
        <time>2022-05-23 06:59:10</time>
      </trkpt>
      <trkpt lat="42.26207" lon="0.9556">
        <ele>704.2</ele>
        <time>2022-05-23 06:59:11</time>
      </trkpt>
      <trkpt lat="42.26207" lon="0.9557">
        <ele>704</ele>
        <time>2022-05-23 06:59:12</time>
      </trkpt>
      <trkpt lat="42.26208" lon="0.95581">
        <ele>703.6</ele>
        <time>2022-05-23 06:59:13</time>
      </trkpt>
      <trkpt lat="42.26209" lon="0.95591">
        <ele>703.4</ele>
        <time>2022-05-23 06:59:14</time>
      </trkpt>
      <trkpt lat="42.2621" lon="0.95601">
        <ele>703.4</ele>
        <time>2022-05-23 06:59:15</time>
      </trkpt>
      <trkpt lat="42.26212" lon="0.95611">
        <ele>703.2</ele>
        <time>2022-05-23 06:59:16</time>
      </trkpt>
      <trkpt lat="42.26212" lon="0.95621">
        <ele>703</ele>
        <time>2022-05-23 06:59:17</time>
      </trkpt>
      <trkpt lat="42.26212" lon="0.95631">
        <ele>702.8</ele>
        <time>2022-05-23 06:59:18</time>
      </trkpt>
      <trkpt lat="42.26212" lon="0.9564">
        <ele>702.6</ele>
        <time>2022-05-23 06:59:19</time>
      </trkpt>
      <trkpt lat="42.26212" lon="0.95649">
        <ele>702.4</ele>
        <time>2022-05-23 06:59:20</time>
      </trkpt>
      <trkpt lat="42.26211" lon="0.95659">
        <ele>702.2</ele>
        <time>2022-05-23 06:59:21</time>
      </trkpt>
      <trkpt lat="42.2621" lon="0.95669">
        <ele>702</ele>
        <time>2022-05-23 06:59:22</time>
      </trkpt>
      <trkpt lat="42.2621" lon="0.95678">
        <ele>701.8</ele>
        <time>2022-05-23 06:59:23</time>
      </trkpt>
      <trkpt lat="42.2621" lon="0.95689">
        <ele>701.4</ele>
        <time>2022-05-23 06:59:24</time>
      </trkpt>
      <trkpt lat="42.26209" lon="0.95699">
        <ele>701</ele>
        <time>2022-05-23 06:59:25</time>
      </trkpt>
      <trkpt lat="42.26208" lon="0.9571">
        <ele>700.8</ele>
        <time>2022-05-23 06:59:26</time>
      </trkpt>
      <trkpt lat="42.26206" lon="0.9572">
        <ele>700.4</ele>
        <time>2022-05-23 06:59:27</time>
      </trkpt>
      <trkpt lat="42.26204" lon="0.95728">
        <ele>700</ele>
        <time>2022-05-23 06:59:28</time>
      </trkpt>
      <trkpt lat="42.262" lon="0.95738">
        <ele>699.6</ele>
        <time>2022-05-23 06:59:29</time>
      </trkpt>
      <trkpt lat="42.26192" lon="0.95746">
        <ele>699.2</ele>
        <time>2022-05-23 06:59:30</time>
      </trkpt>
      <trkpt lat="42.26185" lon="0.95754">
        <ele>699</ele>
        <time>2022-05-23 06:59:31</time>
      </trkpt>
      <trkpt lat="42.26178" lon="0.95762">
        <ele>698.6</ele>
        <time>2022-05-23 06:59:32</time>
      </trkpt>
      <trkpt lat="42.26171" lon="0.9577">
        <ele>698.2</ele>
        <time>2022-05-23 06:59:33</time>
      </trkpt>
      <trkpt lat="42.26165" lon="0.95779">
        <ele>697.8</ele>
        <time>2022-05-23 06:59:34</time>
      </trkpt>
      <trkpt lat="42.26158" lon="0.95788">
        <ele>697.4</ele>
        <time>2022-05-23 06:59:35</time>
      </trkpt>
      <trkpt lat="42.2615" lon="0.95798">
        <ele>697</ele>
        <time>2022-05-23 06:59:36</time>
      </trkpt>
      <trkpt lat="42.26143" lon="0.95809">
        <ele>696.6</ele>
        <time>2022-05-23 06:59:37</time>
      </trkpt>
      <trkpt lat="42.26138" lon="0.9582">
        <ele>696</ele>
        <time>2022-05-23 06:59:38</time>
      </trkpt>
      <trkpt lat="42.26133" lon="0.9583">
        <ele>695.6</ele>
        <time>2022-05-23 06:59:39</time>
      </trkpt>
      <trkpt lat="42.26129" lon="0.95843">
        <ele>695.2</ele>
        <time>2022-05-23 06:59:40</time>
      </trkpt>
      <trkpt lat="42.26124" lon="0.95856">
        <ele>694.6</ele>
        <time>2022-05-23 06:59:41</time>
      </trkpt>
      <trkpt lat="42.26121" lon="0.95868">
        <ele>694</ele>
        <time>2022-05-23 06:59:42</time>
      </trkpt>
      <trkpt lat="42.26119" lon="0.95881">
        <ele>693.6</ele>
        <time>2022-05-23 06:59:43</time>
      </trkpt>
      <trkpt lat="42.26119" lon="0.95893">
        <ele>693.2</ele>
        <time>2022-05-23 06:59:44</time>
      </trkpt>
      <trkpt lat="42.26117" lon="0.95902">
        <ele>693</ele>
        <time>2022-05-23 06:59:45</time>
      </trkpt>
      <trkpt lat="42.26113" lon="0.95908">
        <ele>692.6</ele>
        <time>2022-05-23 06:59:46</time>
      </trkpt>
      <trkpt lat="42.26106" lon="0.95912">
        <ele>692.4</ele>
        <time>2022-05-23 06:59:47</time>
      </trkpt>
      <trkpt lat="42.26099" lon="0.95914">
        <ele>692</ele>
        <time>2022-05-23 06:59:48</time>
      </trkpt>
      <trkpt lat="42.26091" lon="0.95917">
        <ele>691.6</ele>
        <time>2022-05-23 06:59:49</time>
      </trkpt>
      <trkpt lat="42.26083" lon="0.95922">
        <ele>691.2</ele>
        <time>2022-05-23 06:59:50</time>
      </trkpt>
      <trkpt lat="42.26077" lon="0.95929">
        <ele>690.6</ele>
        <time>2022-05-23 06:59:51</time>
      </trkpt>
      <trkpt lat="42.26072" lon="0.95938">
        <ele>690.2</ele>
        <time>2022-05-23 06:59:52</time>
      </trkpt>
      <trkpt lat="42.26068" lon="0.95949">
        <ele>689.6</ele>
        <time>2022-05-23 06:59:53</time>
      </trkpt>
      <trkpt lat="42.26063" lon="0.95959">
        <ele>689.2</ele>
        <time>2022-05-23 06:59:54</time>
      </trkpt>
      <trkpt lat="42.26058" lon="0.9597">
        <ele>688.6</ele>
        <time>2022-05-23 06:59:55</time>
      </trkpt>
      <trkpt lat="42.26051" lon="0.95978">
        <ele>688</ele>
        <time>2022-05-23 06:59:56</time>
      </trkpt>
      <trkpt lat="42.26044" lon="0.95985">
        <ele>687.4</ele>
        <time>2022-05-23 06:59:57</time>
      </trkpt>
      <trkpt lat="42.26035" lon="0.95992">
        <ele>687</ele>
        <time>2022-05-23 06:59:58</time>
      </trkpt>
      <trkpt lat="42.26027" lon="0.95999">
        <ele>686.4</ele>
        <time>2022-05-23 06:59:59</time>
      </trkpt>
      <trkpt lat="42.26019" lon="0.96008">
        <ele>685.8</ele>
        <time>2022-05-23 07:00:00</time>
      </trkpt>
      <trkpt lat="42.26011" lon="0.96016">
        <ele>685.2</ele>
        <time>2022-05-23 07:00:01</time>
      </trkpt>
      <trkpt lat="42.26004" lon="0.96026">
        <ele>684.8</ele>
        <time>2022-05-23 07:00:02</time>
      </trkpt>
      <trkpt lat="42.25997" lon="0.96035">
        <ele>684.2</ele>
        <time>2022-05-23 07:00:03</time>
      </trkpt>
      <trkpt lat="42.25991" lon="0.96046">
        <ele>683.6</ele>
        <time>2022-05-23 07:00:04</time>
      </trkpt>
      <trkpt lat="42.25985" lon="0.96056">
        <ele>683.2</ele>
        <time>2022-05-23 07:00:05</time>
      </trkpt>
      <trkpt lat="42.25978" lon="0.96067">
        <ele>682.6</ele>
        <time>2022-05-23 07:00:06</time>
      </trkpt>
      <trkpt lat="42.25972" lon="0.96077">
        <ele>682</ele>
        <time>2022-05-23 07:00:07</time>
      </trkpt>
      <trkpt lat="42.25965" lon="0.96088">
        <ele>681.4</ele>
        <time>2022-05-23 07:00:08</time>
      </trkpt>
      <trkpt lat="42.25958" lon="0.96098">
        <ele>680.6</ele>
        <time>2022-05-23 07:00:09</time>
      </trkpt>
      <trkpt lat="42.2595" lon="0.96107">
        <ele>680</ele>
        <time>2022-05-23 07:00:10</time>
      </trkpt>
      <trkpt lat="42.25941" lon="0.96115">
        <ele>679.4</ele>
        <time>2022-05-23 07:00:11</time>
      </trkpt>
      <trkpt lat="42.25932" lon="0.96123">
        <ele>678.8</ele>
        <time>2022-05-23 07:00:12</time>
      </trkpt>
      <trkpt lat="42.25923" lon="0.96131">
        <ele>678.2</ele>
        <time>2022-05-23 07:00:13</time>
      </trkpt>
      <trkpt lat="42.25913" lon="0.96138">
        <ele>677.6</ele>
        <time>2022-05-23 07:00:14</time>
      </trkpt>
      <trkpt lat="42.25903" lon="0.96145">
        <ele>677</ele>
        <time>2022-05-23 07:00:15</time>
      </trkpt>
      <trkpt lat="42.25894" lon="0.96153">
        <ele>676.4</ele>
        <time>2022-05-23 07:00:16</time>
      </trkpt>
      <trkpt lat="42.25884" lon="0.96161">
        <ele>675.6</ele>
        <time>2022-05-23 07:00:17</time>
      </trkpt>
      <trkpt lat="42.25875" lon="0.9617">
        <ele>675</ele>
        <time>2022-05-23 07:00:18</time>
      </trkpt>
      <trkpt lat="42.25866" lon="0.96178">
        <ele>674.4</ele>
        <time>2022-05-23 07:00:19</time>
      </trkpt>
      <trkpt lat="42.25858" lon="0.96185">
        <ele>673.8</ele>
        <time>2022-05-23 07:00:20</time>
      </trkpt>
      <trkpt lat="42.25849" lon="0.96193">
        <ele>673.2</ele>
        <time>2022-05-23 07:00:21</time>
      </trkpt>
      <trkpt lat="42.25839" lon="0.96201">
        <ele>672.6</ele>
        <time>2022-05-23 07:00:22</time>
      </trkpt>
      <trkpt lat="42.2583" lon="0.96208">
        <ele>672</ele>
        <time>2022-05-23 07:00:23</time>
      </trkpt>
      <trkpt lat="42.25821" lon="0.96216">
        <ele>671.4</ele>
        <time>2022-05-23 07:00:24</time>
      </trkpt>
      <trkpt lat="42.25811" lon="0.96224">
        <ele>670.8</ele>
        <time>2022-05-23 07:00:25</time>
      </trkpt>
      <trkpt lat="42.25801" lon="0.96233">
        <ele>670.2</ele>
        <time>2022-05-23 07:00:26</time>
      </trkpt>
      <trkpt lat="42.25792" lon="0.96239">
        <ele>669.6</ele>
        <time>2022-05-23 07:00:27</time>
      </trkpt>
      <trkpt lat="42.25782" lon="0.96245">
        <ele>669</ele>
        <time>2022-05-23 07:00:28</time>
      </trkpt>
      <trkpt lat="42.25771" lon="0.9625">
        <ele>668.4</ele>
        <time>2022-05-23 07:00:29</time>
      </trkpt>
      <trkpt lat="42.25761" lon="0.96254">
        <ele>667.8</ele>
        <time>2022-05-23 07:00:30</time>
      </trkpt>
      <trkpt lat="42.2575" lon="0.96256">
        <ele>667.2</ele>
        <time>2022-05-23 07:00:31</time>
      </trkpt>
      <trkpt lat="42.25739" lon="0.96259">
        <ele>666.6</ele>
        <time>2022-05-23 07:00:32</time>
      </trkpt>
      <trkpt lat="42.25728" lon="0.96262">
        <ele>666</ele>
        <time>2022-05-23 07:00:33</time>
      </trkpt>
      <trkpt lat="42.25717" lon="0.96265">
        <ele>665.4</ele>
        <time>2022-05-23 07:00:34</time>
      </trkpt>
      <trkpt lat="42.25706" lon="0.96268">
        <ele>665</ele>
        <time>2022-05-23 07:00:35</time>
      </trkpt>
      <trkpt lat="42.25696" lon="0.9627">
        <ele>664.4</ele>
        <time>2022-05-23 07:00:36</time>
      </trkpt>
      <trkpt lat="42.25686" lon="0.96274">
        <ele>663.8</ele>
        <time>2022-05-23 07:00:37</time>
      </trkpt>
      <trkpt lat="42.25676" lon="0.9628">
        <ele>663.2</ele>
        <time>2022-05-23 07:00:38</time>
      </trkpt>
      <trkpt lat="42.25667" lon="0.96288">
        <ele>662.6</ele>
        <time>2022-05-23 07:00:39</time>
      </trkpt>
      <trkpt lat="42.25658" lon="0.96296">
        <ele>662</ele>
        <time>2022-05-23 07:00:40</time>
      </trkpt>
      <trkpt lat="42.25651" lon="0.96306">
        <ele>661.4</ele>
        <time>2022-05-23 07:00:41</time>
      </trkpt>
      <trkpt lat="42.25642" lon="0.96316">
        <ele>660.8</ele>
        <time>2022-05-23 07:00:42</time>
      </trkpt>
      <trkpt lat="42.25633" lon="0.96325">
        <ele>660.2</ele>
        <time>2022-05-23 07:00:43</time>
      </trkpt>
      <trkpt lat="42.25623" lon="0.96333">
        <ele>659.6</ele>
        <time>2022-05-23 07:00:44</time>
      </trkpt>
      <trkpt lat="42.25613" lon="0.9634">
        <ele>659</ele>
        <time>2022-05-23 07:00:45</time>
      </trkpt>
      <trkpt lat="42.25604" lon="0.96346">
        <ele>658.4</ele>
        <time>2022-05-23 07:00:46</time>
      </trkpt>
      <trkpt lat="42.25593" lon="0.96353">
        <ele>657.8</ele>
        <time>2022-05-23 07:00:47</time>
      </trkpt>
      <trkpt lat="42.25583" lon="0.96359">
        <ele>657.2</ele>
        <time>2022-05-23 07:00:48</time>
      </trkpt>
      <trkpt lat="42.25573" lon="0.96364">
        <ele>656.6</ele>
        <time>2022-05-23 07:00:49</time>
      </trkpt>
      <trkpt lat="42.25563" lon="0.9637">
        <ele>656</ele>
        <time>2022-05-23 07:00:50</time>
      </trkpt>
      <trkpt lat="42.25553" lon="0.96376">
        <ele>655.4</ele>
        <time>2022-05-23 07:00:51</time>
      </trkpt>
      <trkpt lat="42.25542" lon="0.96381">
        <ele>654.8</ele>
        <time>2022-05-23 07:00:52</time>
      </trkpt>
      <trkpt lat="42.25532" lon="0.96388">
        <ele>654.2</ele>
        <time>2022-05-23 07:00:53</time>
      </trkpt>
      <trkpt lat="42.25521" lon="0.96393">
        <ele>653.6</ele>
        <time>2022-05-23 07:00:54</time>
      </trkpt>
      <trkpt lat="42.25511" lon="0.964">
        <ele>653</ele>
        <time>2022-05-23 07:00:55</time>
      </trkpt>
      <trkpt lat="42.25501" lon="0.96406">
        <ele>652.4</ele>
        <time>2022-05-23 07:00:56</time>
      </trkpt>
      <trkpt lat="42.25491" lon="0.96412">
        <ele>651.8</ele>
        <time>2022-05-23 07:00:57</time>
      </trkpt>
      <trkpt lat="42.25481" lon="0.96418">
        <ele>651.2</ele>
        <time>2022-05-23 07:00:58</time>
      </trkpt>
      <trkpt lat="42.25471" lon="0.96424">
        <ele>650.6</ele>
        <time>2022-05-23 07:00:59</time>
      </trkpt>
      <trkpt lat="42.25459" lon="0.96429">
        <ele>650</ele>
        <time>2022-05-23 07:01:00</time>
      </trkpt>
      <trkpt lat="42.2545" lon="0.96434">
        <ele>649.4</ele>
        <time>2022-05-23 07:01:01</time>
      </trkpt>
      <trkpt lat="42.2544" lon="0.9644">
        <ele>648.6</ele>
        <time>2022-05-23 07:01:02</time>
      </trkpt>
      <trkpt lat="42.2543" lon="0.96446">
        <ele>648</ele>
        <time>2022-05-23 07:01:03</time>
      </trkpt>
      <trkpt lat="42.2542" lon="0.96452">
        <ele>647.6</ele>
        <time>2022-05-23 07:01:04</time>
      </trkpt>
      <trkpt lat="42.25409" lon="0.96458">
        <ele>646.8</ele>
        <time>2022-05-23 07:01:05</time>
      </trkpt>
      <trkpt lat="42.254" lon="0.96465">
        <ele>646.2</ele>
        <time>2022-05-23 07:01:06</time>
      </trkpt>
      <trkpt lat="42.25389" lon="0.96474">
        <ele>645.6</ele>
        <time>2022-05-23 07:01:07</time>
      </trkpt>
      <trkpt lat="42.2538" lon="0.96482">
        <ele>645</ele>
        <time>2022-05-23 07:01:08</time>
      </trkpt>
      <trkpt lat="42.25371" lon="0.9649">
        <ele>644.4</ele>
        <time>2022-05-23 07:01:09</time>
      </trkpt>
      <trkpt lat="42.25361" lon="0.96497">
        <ele>643.8</ele>
        <time>2022-05-23 07:01:10</time>
      </trkpt>
      <trkpt lat="42.25351" lon="0.96504">
        <ele>643.2</ele>
        <time>2022-05-23 07:01:11</time>
      </trkpt>
      <trkpt lat="42.25341" lon="0.96509">
        <ele>642.8</ele>
        <time>2022-05-23 07:01:12</time>
      </trkpt>
      <trkpt lat="42.25331" lon="0.96515">
        <ele>642.2</ele>
        <time>2022-05-23 07:01:13</time>
      </trkpt>
      <trkpt lat="42.25321" lon="0.96519">
        <ele>641.6</ele>
        <time>2022-05-23 07:01:14</time>
      </trkpt>
      <trkpt lat="42.2531" lon="0.96524">
        <ele>641</ele>
        <time>2022-05-23 07:01:15</time>
      </trkpt>
      <trkpt lat="42.253" lon="0.96529">
        <ele>640.4</ele>
        <time>2022-05-23 07:01:16</time>
      </trkpt>
      <trkpt lat="42.2529" lon="0.96535">
        <ele>639.8</ele>
        <time>2022-05-23 07:01:17</time>
      </trkpt>
      <trkpt lat="42.25279" lon="0.9654">
        <ele>639.2</ele>
        <time>2022-05-23 07:01:18</time>
      </trkpt>
      <trkpt lat="42.25269" lon="0.96545">
        <ele>638.8</ele>
        <time>2022-05-23 07:01:19</time>
      </trkpt>
      <trkpt lat="42.25263" lon="0.96547">
        <ele>638.6</ele>
        <time>2022-05-23 07:01:20</time>
      </trkpt>
      <trkpt lat="42.25257" lon="0.96544">
        <ele>638.4</ele>
        <time>2022-05-23 07:01:21</time>
      </trkpt>
      <trkpt lat="42.25253" lon="0.96542">
        <ele>638.2</ele>
        <time>2022-05-23 07:01:22</time>
      </trkpt>
      <trkpt lat="42.2525" lon="0.96539">
        <ele>637.8</ele>
        <time>2022-05-23 07:01:23</time>
      </trkpt>
      <trkpt lat="42.25249" lon="0.96536">
        <ele>637.6</ele>
        <time>2022-05-23 07:01:24</time>
      </trkpt>
      <trkpt lat="42.25247" lon="0.96533">
        <ele>637.4</ele>
        <time>2022-05-23 07:01:25</time>
      </trkpt>
      <trkpt lat="42.25245" lon="0.9653">
        <ele>637.2</ele>
        <time>2022-05-23 07:01:26</time>
      </trkpt>
      <trkpt lat="42.25244" lon="0.96526">
        <ele>637</ele>
        <time>2022-05-23 07:01:27</time>
      </trkpt>
      <trkpt lat="42.25243" lon="0.96523">
        <ele>636.8</ele>
        <time>2022-05-23 07:01:28</time>
      </trkpt>
      <trkpt lat="42.25241" lon="0.96522">
        <ele>636.6</ele>
        <time>2022-05-23 07:01:29</time>
      </trkpt>
      <trkpt lat="42.25239" lon="0.96523">
        <ele>636.6</ele>
        <time>2022-05-23 07:01:30</time>
      </trkpt>
      <trkpt lat="42.25238" lon="0.96524">
        <ele>636.4</ele>
        <time>2022-05-23 07:01:31</time>
      </trkpt>
      <trkpt lat="42.25238" lon="0.96526">
        <ele>636.4</ele>
        <time>2022-05-23 07:01:32</time>
      </trkpt>
      <trkpt lat="42.2524" lon="0.96527">
        <ele>636.2</ele>
        <time>2022-05-23 07:01:33</time>
      </trkpt>
      <trkpt lat="42.25242" lon="0.96528">
        <ele>636.4</ele>
        <time>2022-05-23 07:01:34</time>
      </trkpt>
      <trkpt lat="42.25243" lon="0.96528">
        <ele>636.4</ele>
        <time>2022-05-23 07:01:35</time>
      </trkpt>
      <trkpt lat="42.25245" lon="0.96529">
        <ele>636.4</ele>
        <time>2022-05-23 07:01:36</time>
      </trkpt>
      <trkpt lat="42.25246" lon="0.9653">
        <ele>636.6</ele>
        <time>2022-05-23 07:01:37</time>
      </trkpt>
      <trkpt lat="42.25248" lon="0.96531">
        <ele>636.6</ele>
        <time>2022-05-23 07:01:38</time>
      </trkpt>
      <trkpt lat="42.25249" lon="0.96532">
        <ele>636.8</ele>
        <time>2022-05-23 07:01:39</time>
      </trkpt>
      <trkpt lat="42.2525" lon="0.96532">
        <ele>637</ele>
        <time>2022-05-23 07:01:40</time>
      </trkpt>
      <trkpt lat="42.25251" lon="0.96533">
        <ele>637</ele>
        <time>2022-05-23 07:01:41</time>
      </trkpt>
      <trkpt lat="42.25252" lon="0.96534">
        <ele>637.2</ele>
        <time>2022-05-23 07:01:42</time>
      </trkpt>
      <trkpt lat="42.25254" lon="0.96535">
        <ele>637.2</ele>
        <time>2022-05-23 07:01:43</time>
      </trkpt>
      <trkpt lat="42.25254" lon="0.96537">
        <ele>637.4</ele>
        <time>2022-05-23 07:01:44</time>
      </trkpt>
      <trkpt lat="42.25255" lon="0.96539">
        <ele>637.4</ele>
        <time>2022-05-23 07:01:45</time>
      </trkpt>
      <trkpt lat="42.25254" lon="0.96541">
        <ele>637.6</ele>
        <time>2022-05-23 07:01:46</time>
      </trkpt>
      <trkpt lat="42.25253" lon="0.96544">
        <ele>637.6</ele>
        <time>2022-05-23 07:01:47</time>
      </trkpt>
      <trkpt lat="42.25252" lon="0.96547">
        <ele>637.6</ele>
        <time>2022-05-23 07:01:48</time>
      </trkpt>
      <trkpt lat="42.2525" lon="0.96551">
        <ele>637.6</ele>
        <time>2022-05-23 07:01:49</time>
      </trkpt>
      <trkpt lat="42.25248" lon="0.96555">
        <ele>637.6</ele>
        <time>2022-05-23 07:01:50</time>
      </trkpt>
      <trkpt lat="42.25247" lon="0.9656">
        <ele>637.6</ele>
        <time>2022-05-23 07:01:51</time>
      </trkpt>
      <trkpt lat="42.25245" lon="0.96564">
        <ele>637.4</ele>
        <time>2022-05-23 07:01:52</time>
      </trkpt>
      <trkpt lat="42.25244" lon="0.96569">
        <ele>637.2</ele>
        <time>2022-05-23 07:01:53</time>
      </trkpt>
      <trkpt lat="42.25241" lon="0.96574">
        <ele>637</ele>
        <time>2022-05-23 07:01:54</time>
      </trkpt>
      <trkpt lat="42.25238" lon="0.96578">
        <ele>636.6</ele>
        <time>2022-05-23 07:01:55</time>
      </trkpt>
      <trkpt lat="42.25235" lon="0.96584">
        <ele>636.4</ele>
        <time>2022-05-23 07:01:56</time>
      </trkpt>
      <trkpt lat="42.25231" lon="0.9659">
        <ele>636</ele>
        <time>2022-05-23 07:01:57</time>
      </trkpt>
      <trkpt lat="42.25226" lon="0.96595">
        <ele>635.8</ele>
        <time>2022-05-23 07:01:58</time>
      </trkpt>
      <trkpt lat="42.2522" lon="0.966">
        <ele>635.4</ele>
        <time>2022-05-23 07:01:59</time>
      </trkpt>
      <trkpt lat="42.25214" lon="0.96604">
        <ele>635</ele>
        <time>2022-05-23 07:02:00</time>
      </trkpt>
      <trkpt lat="42.25207" lon="0.96607">
        <ele>634.6</ele>
        <time>2022-05-23 07:02:01</time>
      </trkpt>
      <trkpt lat="42.25201" lon="0.96609">
        <ele>634.2</ele>
        <time>2022-05-23 07:02:02</time>
      </trkpt>
      <trkpt lat="42.25193" lon="0.96611">
        <ele>633.8</ele>
        <time>2022-05-23 07:02:03</time>
      </trkpt>
      <trkpt lat="42.25185" lon="0.96611">
        <ele>633.2</ele>
        <time>2022-05-23 07:02:04</time>
      </trkpt>
      <trkpt lat="42.25178" lon="0.96612">
        <ele>632.8</ele>
        <time>2022-05-23 07:02:05</time>
      </trkpt>
      <trkpt lat="42.2517" lon="0.96613">
        <ele>632.2</ele>
        <time>2022-05-23 07:02:06</time>
      </trkpt>
      <trkpt lat="42.25162" lon="0.96614">
        <ele>631.8</ele>
        <time>2022-05-23 07:02:07</time>
      </trkpt>
      <trkpt lat="42.25153" lon="0.96616">
        <ele>631.2</ele>
        <time>2022-05-23 07:02:08</time>
      </trkpt>
      <trkpt lat="42.25145" lon="0.96617">
        <ele>630.8</ele>
        <time>2022-05-23 07:02:09</time>
      </trkpt>
      <trkpt lat="42.25137" lon="0.96619">
        <ele>630.2</ele>
        <time>2022-05-23 07:02:10</time>
      </trkpt>
      <trkpt lat="42.25128" lon="0.9662">
        <ele>629.8</ele>
        <time>2022-05-23 07:02:11</time>
      </trkpt>
      <trkpt lat="42.25119" lon="0.9662">
        <ele>629.2</ele>
        <time>2022-05-23 07:02:12</time>
      </trkpt>
      <trkpt lat="42.2511" lon="0.96621">
        <ele>628.6</ele>
        <time>2022-05-23 07:02:13</time>
      </trkpt>
      <trkpt lat="42.25101" lon="0.96622">
        <ele>628.2</ele>
        <time>2022-05-23 07:02:14</time>
      </trkpt>
      <trkpt lat="42.25093" lon="0.96623">
        <ele>627.8</ele>
        <time>2022-05-23 07:02:15</time>
      </trkpt>
      <trkpt lat="42.25083" lon="0.96624">
        <ele>627.4</ele>
        <time>2022-05-23 07:02:16</time>
      </trkpt>
      <trkpt lat="42.25074" lon="0.96624">
        <ele>627</ele>
        <time>2022-05-23 07:02:17</time>
      </trkpt>
      <trkpt lat="42.25065" lon="0.96624">
        <ele>626.6</ele>
        <time>2022-05-23 07:02:18</time>
      </trkpt>
      <trkpt lat="42.25056" lon="0.96625">
        <ele>626.4</ele>
        <time>2022-05-23 07:02:19</time>
      </trkpt>
      <trkpt lat="42.25047" lon="0.96626">
        <ele>626.2</ele>
        <time>2022-05-23 07:02:20</time>
      </trkpt>
      <trkpt lat="42.25038" lon="0.96627">
        <ele>625.8</ele>
        <time>2022-05-23 07:02:21</time>
      </trkpt>
      <trkpt lat="42.25029" lon="0.96628">
        <ele>625.4</ele>
        <time>2022-05-23 07:02:22</time>
      </trkpt>
      <trkpt lat="42.25021" lon="0.96629">
        <ele>625.2</ele>
        <time>2022-05-23 07:02:23</time>
      </trkpt>
      <trkpt lat="42.25012" lon="0.9663">
        <ele>625</ele>
        <time>2022-05-23 07:02:24</time>
      </trkpt>
      <trkpt lat="42.25003" lon="0.96631">
        <ele>624.6</ele>
        <time>2022-05-23 07:02:25</time>
      </trkpt>
      <trkpt lat="42.24994" lon="0.96631">
        <ele>624.4</ele>
        <time>2022-05-23 07:02:26</time>
      </trkpt>
      <trkpt lat="42.24985" lon="0.96632">
        <ele>624</ele>
        <time>2022-05-23 07:02:27</time>
      </trkpt>
      <trkpt lat="42.24978" lon="0.96632">
        <ele>623.8</ele>
        <time>2022-05-23 07:02:28</time>
      </trkpt>
      <trkpt lat="42.24966" lon="0.96633">
        <ele>623.4</ele>
        <time>2022-05-23 07:02:29</time>
      </trkpt>
      <trkpt lat="42.24957" lon="0.96634">
        <ele>623.2</ele>
        <time>2022-05-23 07:02:30</time>
      </trkpt>
      <trkpt lat="42.24948" lon="0.96634">
        <ele>623</ele>
        <time>2022-05-23 07:02:31</time>
      </trkpt>
      <trkpt lat="42.24939" lon="0.96636">
        <ele>622.6</ele>
        <time>2022-05-23 07:02:32</time>
      </trkpt>
      <trkpt lat="42.2493" lon="0.96637">
        <ele>622.4</ele>
        <time>2022-05-23 07:02:33</time>
      </trkpt>
      <trkpt lat="42.24922" lon="0.96638">
        <ele>622.2</ele>
        <time>2022-05-23 07:02:34</time>
      </trkpt>
      <trkpt lat="42.24914" lon="0.96639">
        <ele>622</ele>
        <time>2022-05-23 07:02:35</time>
      </trkpt>
      <trkpt lat="42.24906" lon="0.96641">
        <ele>621.6</ele>
        <time>2022-05-23 07:02:36</time>
      </trkpt>
      <trkpt lat="42.24897" lon="0.96642">
        <ele>621.4</ele>
        <time>2022-05-23 07:02:37</time>
      </trkpt>
      <trkpt lat="42.24889" lon="0.96644">
        <ele>621.2</ele>
        <time>2022-05-23 07:02:38</time>
      </trkpt>
      <trkpt lat="42.24881" lon="0.96645">
        <ele>620.8</ele>
        <time>2022-05-23 07:02:39</time>
      </trkpt>
      <trkpt lat="42.24872" lon="0.96646">
        <ele>620.6</ele>
        <time>2022-05-23 07:02:40</time>
      </trkpt>
      <trkpt lat="42.24864" lon="0.96649">
        <ele>620.4</ele>
        <time>2022-05-23 07:02:41</time>
      </trkpt>
      <trkpt lat="42.24857" lon="0.96652">
        <ele>620.4</ele>
        <time>2022-05-23 07:02:42</time>
      </trkpt>
      <trkpt lat="42.24851" lon="0.96655">
        <ele>620.2</ele>
        <time>2022-05-23 07:02:43</time>
      </trkpt>
      <trkpt lat="42.24844" lon="0.9666">
        <ele>620</ele>
        <time>2022-05-23 07:02:44</time>
      </trkpt>
      <trkpt lat="42.24838" lon="0.96665">
        <ele>619.8</ele>
        <time>2022-05-23 07:02:45</time>
      </trkpt>
      <trkpt lat="42.24832" lon="0.96671">
        <ele>619.6</ele>
        <time>2022-05-23 07:02:46</time>
      </trkpt>
      <trkpt lat="42.24825" lon="0.96676">
        <ele>619.4</ele>
        <time>2022-05-23 07:02:47</time>
      </trkpt>
      <trkpt lat="42.24819" lon="0.96682">
        <ele>619.2</ele>
        <time>2022-05-23 07:02:48</time>
      </trkpt>
      <trkpt lat="42.24814" lon="0.96688">
        <ele>619</ele>
        <time>2022-05-23 07:02:49</time>
      </trkpt>
      <trkpt lat="42.24808" lon="0.96694">
        <ele>618.8</ele>
        <time>2022-05-23 07:02:50</time>
      </trkpt>
      <trkpt lat="42.24803" lon="0.967">
        <ele>618.6</ele>
        <time>2022-05-23 07:02:51</time>
      </trkpt>
      <trkpt lat="42.24798" lon="0.96709">
        <ele>618.4</ele>
        <time>2022-05-23 07:02:52</time>
      </trkpt>
      <trkpt lat="42.24794" lon="0.96715">
        <ele>618.4</ele>
        <time>2022-05-23 07:02:53</time>
      </trkpt>
      <trkpt lat="42.24789" lon="0.96721">
        <ele>618.2</ele>
        <time>2022-05-23 07:02:54</time>
      </trkpt>
      <trkpt lat="42.24785" lon="0.96728">
        <ele>618.2</ele>
        <time>2022-05-23 07:02:55</time>
      </trkpt>
      <trkpt lat="42.24783" lon="0.96733">
        <ele>618</ele>
        <time>2022-05-23 07:02:56</time>
      </trkpt>
      <trkpt lat="42.24781" lon="0.96738">
        <ele>618</ele>
        <time>2022-05-23 07:02:57</time>
      </trkpt>
      <trkpt lat="42.24779" lon="0.96741">
        <ele>618</ele>
        <time>2022-05-23 07:02:58</time>
      </trkpt>
      <trkpt lat="42.24768" lon="0.96747">
        <ele>617.8</ele>
        <time>2022-05-23 07:02:59</time>
      </trkpt>
      <trkpt lat="42.24766" lon="0.9675">
        <ele>617.8</ele>
        <time>2022-05-23 07:03:00</time>
      </trkpt>
      <trkpt lat="42.24765" lon="0.96752">
        <ele>617.6</ele>
        <time>2022-05-23 07:03:01</time>
      </trkpt>
      <trkpt lat="42.24763" lon="0.96754">
        <ele>617.6</ele>
        <time>2022-05-23 07:03:02</time>
      </trkpt>
      <trkpt lat="42.24761" lon="0.96757">
        <ele>617.4</ele>
        <time>2022-05-23 07:03:03</time>
      </trkpt>
      <trkpt lat="42.24759" lon="0.9676">
        <ele>617.4</ele>
        <time>2022-05-23 07:03:04</time>
      </trkpt>
      <trkpt lat="42.24756" lon="0.96764">
        <ele>617.2</ele>
        <time>2022-05-23 07:03:05</time>
      </trkpt>
      <trkpt lat="42.24753" lon="0.96768">
        <ele>617</ele>
        <time>2022-05-23 07:03:06</time>
      </trkpt>
      <trkpt lat="42.2475" lon="0.96772">
        <ele>616.8</ele>
        <time>2022-05-23 07:03:07</time>
      </trkpt>
      <trkpt lat="42.24747" lon="0.96775">
        <ele>616.6</ele>
        <time>2022-05-23 07:03:08</time>
      </trkpt>
      <trkpt lat="42.24744" lon="0.9678">
        <ele>616.2</ele>
        <time>2022-05-23 07:03:09</time>
      </trkpt>
      <trkpt lat="42.24741" lon="0.96785">
        <ele>616</ele>
        <time>2022-05-23 07:03:10</time>
      </trkpt>
      <trkpt lat="42.24738" lon="0.9679">
        <ele>615.6</ele>
        <time>2022-05-23 07:03:11</time>
      </trkpt>
      <trkpt lat="42.24735" lon="0.96796">
        <ele>615.2</ele>
        <time>2022-05-23 07:03:12</time>
      </trkpt>
      <trkpt lat="42.24732" lon="0.96801">
        <ele>614.8</ele>
        <time>2022-05-23 07:03:13</time>
      </trkpt>
      <trkpt lat="42.24728" lon="0.96807">
        <ele>614.4</ele>
        <time>2022-05-23 07:03:14</time>
      </trkpt>
      <trkpt lat="42.24725" lon="0.96812">
        <ele>614</ele>
        <time>2022-05-23 07:03:15</time>
      </trkpt>
      <trkpt lat="42.2472" lon="0.96816">
        <ele>613.8</ele>
        <time>2022-05-23 07:03:16</time>
      </trkpt>
      <trkpt lat="42.24715" lon="0.96818">
        <ele>613.6</ele>
        <time>2022-05-23 07:03:17</time>
      </trkpt>
      <trkpt lat="42.24711" lon="0.96819">
        <ele>613.4</ele>
        <time>2022-05-23 07:03:18</time>
      </trkpt>
      <trkpt lat="42.24707" lon="0.96817">
        <ele>613.2</ele>
        <time>2022-05-23 07:03:19</time>
      </trkpt>
      <trkpt lat="42.24703" lon="0.96816">
        <ele>613</ele>
        <time>2022-05-23 07:03:20</time>
      </trkpt>
      <trkpt lat="42.24699" lon="0.96814">
        <ele>613</ele>
        <time>2022-05-23 07:03:21</time>
      </trkpt>
      <trkpt lat="42.24695" lon="0.96813">
        <ele>612.8</ele>
        <time>2022-05-23 07:03:22</time>
      </trkpt>
      <trkpt lat="42.24692" lon="0.9681">
        <ele>612.6</ele>
        <time>2022-05-23 07:03:37</time>
      </trkpt>
      <trkpt lat="42.24689" lon="0.96809">
        <ele>612.4</ele>
        <time>2022-05-23 07:03:38</time>
      </trkpt>
      <trkpt lat="42.24685" lon="0.96807">
        <ele>612.2</ele>
        <time>2022-05-23 07:03:39</time>
      </trkpt>
      <trkpt lat="42.24682" lon="0.96804">
        <ele>612</ele>
        <time>2022-05-23 07:03:40</time>
      </trkpt>
      <trkpt lat="42.2468" lon="0.968">
        <ele>611.8</ele>
        <time>2022-05-23 07:03:41</time>
      </trkpt>
      <trkpt lat="42.24678" lon="0.96795">
        <ele>611.6</ele>
        <time>2022-05-23 07:03:42</time>
      </trkpt>
      <trkpt lat="42.24676" lon="0.9679">
        <ele>611.2</ele>
        <time>2022-05-23 07:03:43</time>
      </trkpt>
      <trkpt lat="42.24674" lon="0.96784">
        <ele>611</ele>
        <time>2022-05-23 07:03:44</time>
      </trkpt>
      <trkpt lat="42.24672" lon="0.96779">
        <ele>610.6</ele>
        <time>2022-05-23 07:03:45</time>
      </trkpt>
      <trkpt lat="42.24669" lon="0.96773">
        <ele>610.4</ele>
        <time>2022-05-23 07:03:46</time>
      </trkpt>
      <trkpt lat="42.24667" lon="0.96768">
        <ele>610</ele>
        <time>2022-05-23 07:03:47</time>
      </trkpt>
      <trkpt lat="42.24663" lon="0.96762">
        <ele>609.8</ele>
        <time>2022-05-23 07:03:48</time>
      </trkpt>
      <trkpt lat="42.2466" lon="0.96755">
        <ele>609.4</ele>
        <time>2022-05-23 07:03:49</time>
      </trkpt>
      <trkpt lat="42.24656" lon="0.9675">
        <ele>609.2</ele>
        <time>2022-05-23 07:03:50</time>
      </trkpt>
      <trkpt lat="42.24652" lon="0.96744">
        <ele>608.8</ele>
        <time>2022-05-23 07:03:51</time>
      </trkpt>
      <trkpt lat="42.24648" lon="0.96737">
        <ele>608.4</ele>
        <time>2022-05-23 07:03:52</time>
      </trkpt>
      <trkpt lat="42.24644" lon="0.96732">
        <ele>608</ele>
        <time>2022-05-23 07:03:53</time>
      </trkpt>
      <trkpt lat="42.2464" lon="0.96725">
        <ele>607.8</ele>
        <time>2022-05-23 07:03:54</time>
      </trkpt>
      <trkpt lat="42.24636" lon="0.96718">
        <ele>607.4</ele>
        <time>2022-05-23 07:03:55</time>
      </trkpt>
      <trkpt lat="42.24631" lon="0.9671">
        <ele>607</ele>
        <time>2022-05-23 07:03:56</time>
      </trkpt>
      <trkpt lat="42.24627" lon="0.96702">
        <ele>606.6</ele>
        <time>2022-05-23 07:03:57</time>
      </trkpt>
      <trkpt lat="42.24624" lon="0.96694">
        <ele>606.2</ele>
        <time>2022-05-23 07:03:58</time>
      </trkpt>
      <trkpt lat="42.2462" lon="0.96685">
        <ele>605.8</ele>
        <time>2022-05-23 07:03:59</time>
      </trkpt>
      <trkpt lat="42.24615" lon="0.96677">
        <ele>605.4</ele>
        <time>2022-05-23 07:04:00</time>
      </trkpt>
      <trkpt lat="42.2461" lon="0.96669">
        <ele>605</ele>
        <time>2022-05-23 07:04:01</time>
      </trkpt>
      <trkpt lat="42.24606" lon="0.96661">
        <ele>604.8</ele>
        <time>2022-05-23 07:04:02</time>
      </trkpt>
      <trkpt lat="42.24602" lon="0.96653">
        <ele>604.8</ele>
        <time>2022-05-23 07:04:03</time>
      </trkpt>
      <trkpt lat="42.24598" lon="0.96645">
        <ele>604.8</ele>
        <time>2022-05-23 07:04:04</time>
      </trkpt>
      <trkpt lat="42.24593" lon="0.96638">
        <ele>604.8</ele>
        <time>2022-05-23 07:04:05</time>
      </trkpt>
      <trkpt lat="42.24589" lon="0.9663">
        <ele>604.8</ele>
        <time>2022-05-23 07:04:06</time>
      </trkpt>
      <trkpt lat="42.24585" lon="0.96624">
        <ele>604.8</ele>
        <time>2022-05-23 07:04:07</time>
      </trkpt>
      <trkpt lat="42.24581" lon="0.96617">
        <ele>605</ele>
        <time>2022-05-23 07:04:08</time>
      </trkpt>
      <trkpt lat="42.24578" lon="0.96611">
        <ele>605</ele>
        <time>2022-05-23 07:04:09</time>
      </trkpt>
      <trkpt lat="42.24573" lon="0.96603">
        <ele>605</ele>
        <time>2022-05-23 07:04:10</time>
      </trkpt>
      <trkpt lat="42.2457" lon="0.96596">
        <ele>605</ele>
        <time>2022-05-23 07:04:11</time>
      </trkpt>
      <trkpt lat="42.24566" lon="0.96589">
        <ele>605.2</ele>
        <time>2022-05-23 07:04:12</time>
      </trkpt>
      <trkpt lat="42.24562" lon="0.96582">
        <ele>605.2</ele>
        <time>2022-05-23 07:04:13</time>
      </trkpt>
      <trkpt lat="42.24559" lon="0.96575">
        <ele>605.2</ele>
        <time>2022-05-23 07:04:14</time>
      </trkpt>
      <trkpt lat="42.24555" lon="0.96568">
        <ele>605.4</ele>
        <time>2022-05-23 07:04:15</time>
      </trkpt>
      <trkpt lat="42.24551" lon="0.96561">
        <ele>605.4</ele>
        <time>2022-05-23 07:04:16</time>
      </trkpt>
      <trkpt lat="42.24548" lon="0.96555">
        <ele>605.4</ele>
        <time>2022-05-23 07:04:17</time>
      </trkpt>
      <trkpt lat="42.24544" lon="0.96548">
        <ele>605.4</ele>
        <time>2022-05-23 07:04:18</time>
      </trkpt>
      <trkpt lat="42.24541" lon="0.96541">
        <ele>605.4</ele>
        <time>2022-05-23 07:04:19</time>
      </trkpt>
      <trkpt lat="42.24538" lon="0.96534">
        <ele>605.4</ele>
        <time>2022-05-23 07:04:20</time>
      </trkpt>
      <trkpt lat="42.24535" lon="0.96527">
        <ele>605.4</ele>
        <time>2022-05-23 07:04:21</time>
      </trkpt>
      <trkpt lat="42.24532" lon="0.9652">
        <ele>605.4</ele>
        <time>2022-05-23 07:04:22</time>
      </trkpt>
      <trkpt lat="42.24529" lon="0.96513">
        <ele>605.4</ele>
        <time>2022-05-23 07:04:23</time>
      </trkpt>
      <trkpt lat="42.24526" lon="0.96507">
        <ele>605.4</ele>
        <time>2022-05-23 07:04:24</time>
      </trkpt>
      <trkpt lat="42.2452" lon="0.96505">
        <ele>605.4</ele>
        <time>2022-05-23 07:04:25</time>
      </trkpt>
      <trkpt lat="42.24515" lon="0.96503">
        <ele>605.4</ele>
        <time>2022-05-23 07:04:26</time>
      </trkpt>
      <trkpt lat="42.2451" lon="0.96503">
        <ele>605.4</ele>
        <time>2022-05-23 07:04:27</time>
      </trkpt>
      <trkpt lat="42.24505" lon="0.96504">
        <ele>605.4</ele>
        <time>2022-05-23 07:04:28</time>
      </trkpt>
      <trkpt lat="42.245" lon="0.96507">
        <ele>605.4</ele>
        <time>2022-05-23 07:04:29</time>
      </trkpt>
      <trkpt lat="42.24494" lon="0.96511">
        <ele>605.2</ele>
        <time>2022-05-23 07:04:30</time>
      </trkpt>
      <trkpt lat="42.24489" lon="0.96513">
        <ele>605.2</ele>
        <time>2022-05-23 07:04:31</time>
      </trkpt>
      <trkpt lat="42.24483" lon="0.96515">
        <ele>605.2</ele>
        <time>2022-05-23 07:04:32</time>
      </trkpt>
      <trkpt lat="42.24478" lon="0.96516">
        <ele>605</ele>
        <time>2022-05-23 07:04:33</time>
      </trkpt>
      <trkpt lat="42.24474" lon="0.96518">
        <ele>605</ele>
        <time>2022-05-23 07:04:34</time>
      </trkpt>
      <trkpt lat="42.24468" lon="0.9652">
        <ele>605</ele>
        <time>2022-05-23 07:04:35</time>
      </trkpt>
      <trkpt lat="42.24462" lon="0.96522">
        <ele>604.8</ele>
        <time>2022-05-23 07:04:36</time>
      </trkpt>
      <trkpt lat="42.24456" lon="0.96523">
        <ele>604.8</ele>
        <time>2022-05-23 07:04:37</time>
      </trkpt>
      <trkpt lat="42.24449" lon="0.96525">
        <ele>604.6</ele>
        <time>2022-05-23 07:04:38</time>
      </trkpt>
      <trkpt lat="42.24443" lon="0.96527">
        <ele>604.6</ele>
        <time>2022-05-23 07:04:39</time>
      </trkpt>
      <trkpt lat="42.24437" lon="0.96529">
        <ele>604.4</ele>
        <time>2022-05-23 07:04:40</time>
      </trkpt>
      <trkpt lat="42.24431" lon="0.96532">
        <ele>604.4</ele>
        <time>2022-05-23 07:04:41</time>
      </trkpt>
      <trkpt lat="42.24425" lon="0.96533">
        <ele>604.2</ele>
        <time>2022-05-23 07:04:42</time>
      </trkpt>
      <trkpt lat="42.24418" lon="0.96535">
        <ele>604</ele>
        <time>2022-05-23 07:04:43</time>
      </trkpt>
      <trkpt lat="42.24412" lon="0.96537">
        <ele>604</ele>
        <time>2022-05-23 07:04:44</time>
      </trkpt>
      <trkpt lat="42.24406" lon="0.96538">
        <ele>603.8</ele>
        <time>2022-05-23 07:04:45</time>
      </trkpt>
      <trkpt lat="42.244" lon="0.9654">
        <ele>603.8</ele>
        <time>2022-05-23 07:04:46</time>
      </trkpt>
      <trkpt lat="42.24394" lon="0.96542">
        <ele>603.6</ele>
        <time>2022-05-23 07:04:47</time>
      </trkpt>
      <trkpt lat="42.24389" lon="0.96543">
        <ele>603.6</ele>
        <time>2022-05-23 07:04:48</time>
      </trkpt>
      <trkpt lat="42.24383" lon="0.96544">
        <ele>603.6</ele>
        <time>2022-05-23 07:04:49</time>
      </trkpt>
      <trkpt lat="42.24379" lon="0.96545">
        <ele>603.6</ele>
        <time>2022-05-23 07:04:50</time>
      </trkpt>
      <trkpt lat="42.24376" lon="0.96546">
        <ele>603.6</ele>
        <time>2022-05-23 07:04:51</time>
      </trkpt>
      <trkpt lat="42.24374" lon="0.96547">
        <ele>603.6</ele>
        <time>2022-05-23 07:04:52</time>
      </trkpt>
      <trkpt lat="42.24371" lon="0.96548">
        <ele>603.6</ele>
        <time>2022-05-23 07:04:53</time>
      </trkpt>
      <trkpt lat="42.24369" lon="0.96548">
        <ele>603.6</ele>
        <time>2022-05-23 07:04:54</time>
      </trkpt>
      <trkpt lat="42.24367" lon="0.96548">
        <ele>603.6</ele>
        <time>2022-05-23 07:04:55</time>
      </trkpt>
      <trkpt lat="42.24365" lon="0.96548">
        <ele>603.6</ele>
        <time>2022-05-23 07:04:56</time>
      </trkpt>
      <trkpt lat="42.24363" lon="0.96548">
        <ele>603.6</ele>
        <time>2022-05-23 07:04:57</time>
      </trkpt>
      <trkpt lat="42.24361" lon="0.96548">
        <ele>603.6</ele>
        <time>2022-05-23 07:04:58</time>
      </trkpt>
      <trkpt lat="42.24358" lon="0.96547">
        <ele>603.6</ele>
        <time>2022-05-23 07:04:59</time>
      </trkpt>
      <trkpt lat="42.24356" lon="0.96547">
        <ele>603.4</ele>
        <time>2022-05-23 07:05:00</time>
      </trkpt>
      <trkpt lat="42.24352" lon="0.96547">
        <ele>603.4</ele>
        <time>2022-05-23 07:05:01</time>
      </trkpt>
      <trkpt lat="42.2435" lon="0.96547">
        <ele>603.4</ele>
        <time>2022-05-23 07:05:02</time>
      </trkpt>
      <trkpt lat="42.24345" lon="0.96548">
        <ele>603.2</ele>
        <time>2022-05-23 07:05:03</time>
      </trkpt>
      <trkpt lat="42.24342" lon="0.96548">
        <ele>603.2</ele>
        <time>2022-05-23 07:05:04</time>
      </trkpt>
      <trkpt lat="42.24336" lon="0.96548">
        <ele>603</ele>
        <time>2022-05-23 07:05:05</time>
      </trkpt>
      <trkpt lat="42.24332" lon="0.96549">
        <ele>603</ele>
        <time>2022-05-23 07:05:06</time>
      </trkpt>
      <trkpt lat="42.24326" lon="0.9655">
        <ele>603</ele>
        <time>2022-05-23 07:05:07</time>
      </trkpt>
      <trkpt lat="42.24322" lon="0.9655">
        <ele>602.8</ele>
        <time>2022-05-23 07:05:08</time>
      </trkpt>
      <trkpt lat="42.24316" lon="0.96552">
        <ele>602.8</ele>
        <time>2022-05-23 07:05:09</time>
      </trkpt>
      <trkpt lat="42.24311" lon="0.96552">
        <ele>602.6</ele>
        <time>2022-05-23 07:05:10</time>
      </trkpt>
      <trkpt lat="42.24305" lon="0.96552">
        <ele>602.6</ele>
        <time>2022-05-23 07:05:11</time>
      </trkpt>
      <trkpt lat="42.243" lon="0.96552">
        <ele>602.4</ele>
        <time>2022-05-23 07:05:12</time>
      </trkpt>
      <trkpt lat="42.24295" lon="0.96552">
        <ele>602.4</ele>
        <time>2022-05-23 07:05:13</time>
      </trkpt>
      <trkpt lat="42.24289" lon="0.96551">
        <ele>602.4</ele>
        <time>2022-05-23 07:05:14</time>
      </trkpt>
      <trkpt lat="42.24284" lon="0.96551">
        <ele>602.4</ele>
        <time>2022-05-23 07:05:15</time>
      </trkpt>
      <trkpt lat="42.24279" lon="0.96551">
        <ele>602.2</ele>
        <time>2022-05-23 07:05:16</time>
      </trkpt>
      <trkpt lat="42.24274" lon="0.96552">
        <ele>602.2</ele>
        <time>2022-05-23 07:05:17</time>
      </trkpt>
      <trkpt lat="42.24269" lon="0.96552">
        <ele>602.2</ele>
        <time>2022-05-23 07:05:18</time>
      </trkpt>
      <trkpt lat="42.24264" lon="0.96552">
        <ele>602</ele>
        <time>2022-05-23 07:05:19</time>
      </trkpt>
      <trkpt lat="42.24259" lon="0.96553">
        <ele>602</ele>
        <time>2022-05-23 07:05:20</time>
      </trkpt>
      <trkpt lat="42.24253" lon="0.96555">
        <ele>602</ele>
        <time>2022-05-23 07:05:21</time>
      </trkpt>
      <trkpt lat="42.24248" lon="0.96555">
        <ele>601.8</ele>
        <time>2022-05-23 07:05:22</time>
      </trkpt>
      <trkpt lat="42.24243" lon="0.96555">
        <ele>601.8</ele>
        <time>2022-05-23 07:05:23</time>
      </trkpt>
      <trkpt lat="42.24238" lon="0.96555">
        <ele>601.8</ele>
        <time>2022-05-23 07:05:24</time>
      </trkpt>
      <trkpt lat="42.24233" lon="0.96555">
        <ele>601.6</ele>
        <time>2022-05-23 07:05:25</time>
      </trkpt>
      <trkpt lat="42.24227" lon="0.96555">
        <ele>601.6</ele>
        <time>2022-05-23 07:05:26</time>
      </trkpt>
      <trkpt lat="42.24222" lon="0.96555">
        <ele>601.6</ele>
        <time>2022-05-23 07:05:27</time>
      </trkpt>
      <trkpt lat="42.24217" lon="0.96555">
        <ele>601.6</ele>
        <time>2022-05-23 07:05:28</time>
      </trkpt>
      <trkpt lat="42.24212" lon="0.96555">
        <ele>601.4</ele>
        <time>2022-05-23 07:05:29</time>
      </trkpt>
      <trkpt lat="42.24207" lon="0.96555">
        <ele>601.4</ele>
        <time>2022-05-23 07:05:30</time>
      </trkpt>
      <trkpt lat="42.24202" lon="0.96555">
        <ele>601.2</ele>
        <time>2022-05-23 07:05:31</time>
      </trkpt>
      <trkpt lat="42.24196" lon="0.96555">
        <ele>601.2</ele>
        <time>2022-05-23 07:05:32</time>
      </trkpt>
      <trkpt lat="42.24191" lon="0.96555">
        <ele>601.2</ele>
        <time>2022-05-23 07:05:33</time>
      </trkpt>
      <trkpt lat="42.24186" lon="0.96555">
        <ele>601</ele>
        <time>2022-05-23 07:05:34</time>
      </trkpt>
      <trkpt lat="42.24181" lon="0.96554">
        <ele>601</ele>
        <time>2022-05-23 07:05:35</time>
      </trkpt>
      <trkpt lat="42.24176" lon="0.96554">
        <ele>600.8</ele>
        <time>2022-05-23 07:05:36</time>
      </trkpt>
      <trkpt lat="42.24171" lon="0.96554">
        <ele>600.8</ele>
        <time>2022-05-23 07:05:37</time>
      </trkpt>
      <trkpt lat="42.24166" lon="0.96554">
        <ele>600.8</ele>
        <time>2022-05-23 07:05:38</time>
      </trkpt>
      <trkpt lat="42.2416" lon="0.96553">
        <ele>600.8</ele>
        <time>2022-05-23 07:05:39</time>
      </trkpt>
      <trkpt lat="42.24155" lon="0.96553">
        <ele>600.6</ele>
        <time>2022-05-23 07:05:40</time>
      </trkpt>
      <trkpt lat="42.2415" lon="0.96553">
        <ele>600.6</ele>
        <time>2022-05-23 07:05:41</time>
      </trkpt>
      <trkpt lat="42.24144" lon="0.96553">
        <ele>600.6</ele>
        <time>2022-05-23 07:05:42</time>
      </trkpt>
      <trkpt lat="42.24139" lon="0.96553">
        <ele>600.4</ele>
        <time>2022-05-23 07:05:43</time>
      </trkpt>
      <trkpt lat="42.24133" lon="0.96553">
        <ele>600.4</ele>
        <time>2022-05-23 07:05:44</time>
      </trkpt>
      <trkpt lat="42.24128" lon="0.96553">
        <ele>600.4</ele>
        <time>2022-05-23 07:05:45</time>
      </trkpt>
      <trkpt lat="42.24123" lon="0.96554">
        <ele>600.4</ele>
        <time>2022-05-23 07:05:46</time>
      </trkpt>
      <trkpt lat="42.24119" lon="0.96554">
        <ele>600.2</ele>
        <time>2022-05-23 07:05:47</time>
      </trkpt>
      <trkpt lat="42.24114" lon="0.96554">
        <ele>600.2</ele>
        <time>2022-05-23 07:05:48</time>
      </trkpt>
      <trkpt lat="42.24108" lon="0.96553">
        <ele>600.2</ele>
        <time>2022-05-23 07:05:49</time>
      </trkpt>
      <trkpt lat="42.24103" lon="0.96553">
        <ele>600.2</ele>
        <time>2022-05-23 07:05:50</time>
      </trkpt>
      <trkpt lat="42.24099" lon="0.96554">
        <ele>600.2</ele>
        <time>2022-05-23 07:05:51</time>
      </trkpt>
      <trkpt lat="42.24094" lon="0.96553">
        <ele>600.2</ele>
        <time>2022-05-23 07:05:52</time>
      </trkpt>
      <trkpt lat="42.24089" lon="0.96554">
        <ele>600.2</ele>
        <time>2022-05-23 07:05:53</time>
      </trkpt>
      <trkpt lat="42.24085" lon="0.96553">
        <ele>600.2</ele>
        <time>2022-05-23 07:05:54</time>
      </trkpt>
      <trkpt lat="42.24082" lon="0.96553">
        <ele>600.2</ele>
        <time>2022-05-23 07:05:55</time>
      </trkpt>
      <trkpt lat="42.2408" lon="0.96551">
        <ele>600.2</ele>
        <time>2022-05-23 07:05:56</time>
      </trkpt>
      <trkpt lat="42.24079" lon="0.9655">
        <ele>600.2</ele>
        <time>2022-05-23 07:05:57</time>
      </trkpt>
      <trkpt lat="42.24066" lon="0.96554">
        <ele>600.2</ele>
        <time>2022-05-23 07:05:58</time>
      </trkpt>
      <trkpt lat="42.24063" lon="0.96553">
        <ele>600.2</ele>
        <time>2022-05-23 07:05:59</time>
      </trkpt>
      <trkpt lat="42.2406" lon="0.96553">
        <ele>600.2</ele>
        <time>2022-05-23 07:06:00</time>
      </trkpt>
      <trkpt lat="42.24058" lon="0.96553">
        <ele>600.2</ele>
        <time>2022-05-23 07:06:01</time>
      </trkpt>
      <trkpt lat="42.24054" lon="0.96552">
        <ele>600.2</ele>
        <time>2022-05-23 07:06:02</time>
      </trkpt>
      <trkpt lat="42.24051" lon="0.96552">
        <ele>600.2</ele>
        <time>2022-05-23 07:06:03</time>
      </trkpt>
      <trkpt lat="42.24048" lon="0.96552">
        <ele>600</ele>
        <time>2022-05-23 07:06:04</time>
      </trkpt>
      <trkpt lat="42.24044" lon="0.96552">
        <ele>600</ele>
        <time>2022-05-23 07:06:05</time>
      </trkpt>
      <trkpt lat="42.24041" lon="0.96552">
        <ele>600</ele>
        <time>2022-05-23 07:06:06</time>
      </trkpt>
      <trkpt lat="42.24037" lon="0.96552">
        <ele>600</ele>
        <time>2022-05-23 07:06:07</time>
      </trkpt>
      <trkpt lat="42.24033" lon="0.96552">
        <ele>600</ele>
        <time>2022-05-23 07:06:08</time>
      </trkpt>
      <trkpt lat="42.24029" lon="0.96552">
        <ele>599.8</ele>
        <time>2022-05-23 07:06:09</time>
      </trkpt>
      <trkpt lat="42.24025" lon="0.96552">
        <ele>599.8</ele>
        <time>2022-05-23 07:06:10</time>
      </trkpt>
      <trkpt lat="42.2402" lon="0.96552">
        <ele>599.8</ele>
        <time>2022-05-23 07:06:11</time>
      </trkpt>
      <trkpt lat="42.24016" lon="0.96552">
        <ele>599.8</ele>
        <time>2022-05-23 07:06:12</time>
      </trkpt>
      <trkpt lat="42.24012" lon="0.96551">
        <ele>599.6</ele>
        <time>2022-05-23 07:06:13</time>
      </trkpt>
      <trkpt lat="42.24008" lon="0.96551">
        <ele>599.6</ele>
        <time>2022-05-23 07:06:14</time>
      </trkpt>
      <trkpt lat="42.24004" lon="0.9655">
        <ele>599.8</ele>
        <time>2022-05-23 07:06:15</time>
      </trkpt>
      <trkpt lat="42.24" lon="0.9655">
        <ele>599.8</ele>
        <time>2022-05-23 07:06:16</time>
      </trkpt>
      <trkpt lat="42.23995" lon="0.96549">
        <ele>599.6</ele>
        <time>2022-05-23 07:06:17</time>
      </trkpt>
      <trkpt lat="42.23991" lon="0.96549">
        <ele>599.6</ele>
        <time>2022-05-23 07:06:18</time>
      </trkpt>
      <trkpt lat="42.23987" lon="0.96549">
        <ele>599.6</ele>
        <time>2022-05-23 07:06:19</time>
      </trkpt>
      <trkpt lat="42.23982" lon="0.96549">
        <ele>599.6</ele>
        <time>2022-05-23 07:06:20</time>
      </trkpt>
      <trkpt lat="42.23978" lon="0.96548">
        <ele>599.4</ele>
        <time>2022-05-23 07:06:21</time>
      </trkpt>
      <trkpt lat="42.23974" lon="0.96548">
        <ele>599.4</ele>
        <time>2022-05-23 07:44:09</time>
      </trkpt>
      <trkpt lat="42.23969" lon="0.96547">
        <ele>599.4</ele>
        <time>2022-05-23 07:44:10</time>
      </trkpt>
      <trkpt lat="42.23964" lon="0.96547">
        <ele>599.2</ele>
        <time>2022-05-23 07:44:11</time>
      </trkpt>
      <trkpt lat="42.2396" lon="0.96546">
        <ele>599.2</ele>
        <time>2022-05-23 07:44:12</time>
      </trkpt>
      <trkpt lat="42.23955" lon="0.96545">
        <ele>599.2</ele>
        <time>2022-05-23 07:44:13</time>
      </trkpt>
      <trkpt lat="42.2395" lon="0.96545">
        <ele>599.2</ele>
        <time>2022-05-23 07:44:14</time>
      </trkpt>
      <trkpt lat="42.23946" lon="0.96545">
        <ele>599.2</ele>
        <time>2022-05-23 07:44:15</time>
      </trkpt>
      <trkpt lat="42.23941" lon="0.96546">
        <ele>599.2</ele>
        <time>2022-05-23 07:44:16</time>
      </trkpt>
      <trkpt lat="42.23936" lon="0.96546">
        <ele>599.4</ele>
        <time>2022-05-23 07:44:17</time>
      </trkpt>
      <trkpt lat="42.23931" lon="0.96546">
        <ele>599.2</ele>
        <time>2022-05-23 07:44:18</time>
      </trkpt>
      <trkpt lat="42.23926" lon="0.96546">
        <ele>599.4</ele>
        <time>2022-05-23 07:44:19</time>
      </trkpt>
      <trkpt lat="42.23921" lon="0.96546">
        <ele>599.2</ele>
        <time>2022-05-23 07:44:20</time>
      </trkpt>
      <trkpt lat="42.23916" lon="0.96547">
        <ele>599.2</ele>
        <time>2022-05-23 07:44:21</time>
      </trkpt>
      <trkpt lat="42.23911" lon="0.96547">
        <ele>599.2</ele>
        <time>2022-05-23 07:44:22</time>
      </trkpt>
      <trkpt lat="42.23906" lon="0.96547">
        <ele>599.2</ele>
        <time>2022-05-23 07:44:23</time>
      </trkpt>
      <trkpt lat="42.23901" lon="0.96547">
        <ele>599.2</ele>
        <time>2022-05-23 07:44:24</time>
      </trkpt>
      <trkpt lat="42.23896" lon="0.96547">
        <ele>599.2</ele>
        <time>2022-05-23 07:44:25</time>
      </trkpt>
      <trkpt lat="42.23891" lon="0.96548">
        <ele>599.2</ele>
        <time>2022-05-23 07:44:26</time>
      </trkpt>
      <trkpt lat="42.23886" lon="0.96548">
        <ele>599.2</ele>
        <time>2022-05-23 07:44:27</time>
      </trkpt>
      <trkpt lat="42.23881" lon="0.96548">
        <ele>599.2</ele>
        <time>2022-05-23 07:44:28</time>
      </trkpt>
      <trkpt lat="42.23876" lon="0.96548">
        <ele>599.2</ele>
        <time>2022-05-23 07:44:29</time>
      </trkpt>
      <trkpt lat="42.23871" lon="0.96548">
        <ele>599.2</ele>
        <time>2022-05-23 07:44:30</time>
      </trkpt>
      <trkpt lat="42.23866" lon="0.96548">
        <ele>599.2</ele>
        <time>2022-05-23 07:44:31</time>
      </trkpt>
      <trkpt lat="42.23861" lon="0.96548">
        <ele>599.2</ele>
        <time>2022-05-23 07:44:32</time>
      </trkpt>
      <trkpt lat="42.23856" lon="0.96548">
        <ele>599</ele>
        <time>2022-05-23 07:44:33</time>
      </trkpt>
      <trkpt lat="42.23852" lon="0.96548">
        <ele>599</ele>
        <time>2022-05-23 07:44:34</time>
      </trkpt>
      <trkpt lat="42.23847" lon="0.96548">
        <ele>599</ele>
        <time>2022-05-23 07:44:35</time>
      </trkpt>
      <trkpt lat="42.23842" lon="0.96547">
        <ele>599</ele>
        <time>2022-05-23 07:44:36</time>
      </trkpt>
      <trkpt lat="42.23837" lon="0.96547">
        <ele>599</ele>
        <time>2022-05-23 07:44:37</time>
      </trkpt>
      <trkpt lat="42.23832" lon="0.96547">
        <ele>599</ele>
        <time>2022-05-23 07:44:38</time>
      </trkpt>
      <trkpt lat="42.23827" lon="0.96546">
        <ele>598.8</ele>
        <time>2022-05-23 07:44:39</time>
      </trkpt>
      <trkpt lat="42.23823" lon="0.96546">
        <ele>598.8</ele>
        <time>2022-05-23 07:44:40</time>
      </trkpt>
      <trkpt lat="42.23818" lon="0.96545">
        <ele>598.8</ele>
        <time>2022-05-23 07:44:41</time>
      </trkpt>
      <trkpt lat="42.23813" lon="0.96545">
        <ele>599</ele>
        <time>2022-05-23 07:44:42</time>
      </trkpt>
      <trkpt lat="42.23808" lon="0.96544">
        <ele>598.8</ele>
        <time>2022-05-23 07:44:43</time>
      </trkpt>
      <trkpt lat="42.23803" lon="0.96543">
        <ele>598.8</ele>
        <time>2022-05-23 07:44:44</time>
      </trkpt>
      <trkpt lat="42.23798" lon="0.96542">
        <ele>598.8</ele>
        <time>2022-05-23 07:44:45</time>
      </trkpt>
      <trkpt lat="42.23793" lon="0.96541">
        <ele>598.8</ele>
        <time>2022-05-23 07:44:46</time>
      </trkpt>
      <trkpt lat="42.23788" lon="0.9654">
        <ele>598.8</ele>
        <time>2022-05-23 07:44:47</time>
      </trkpt>
      <trkpt lat="42.23784" lon="0.96539">
        <ele>598.8</ele>
        <time>2022-05-23 07:44:48</time>
      </trkpt>
      <trkpt lat="42.23779" lon="0.96536">
        <ele>599</ele>
        <time>2022-05-23 07:44:49</time>
      </trkpt>
      <trkpt lat="42.23774" lon="0.96534">
        <ele>599</ele>
        <time>2022-05-23 07:44:50</time>
      </trkpt>
      <trkpt lat="42.2377" lon="0.96532">
        <ele>599</ele>
        <time>2022-05-23 07:44:51</time>
      </trkpt>
      <trkpt lat="42.23765" lon="0.9653">
        <ele>599</ele>
        <time>2022-05-23 07:44:52</time>
      </trkpt>
      <trkpt lat="42.23761" lon="0.96528">
        <ele>599</ele>
        <time>2022-05-23 07:44:53</time>
      </trkpt>
      <trkpt lat="42.23757" lon="0.96525">
        <ele>599</ele>
        <time>2022-05-23 07:44:54</time>
      </trkpt>
      <trkpt lat="42.23753" lon="0.96523">
        <ele>599</ele>
        <time>2022-05-23 07:44:55</time>
      </trkpt>
      <trkpt lat="42.23748" lon="0.9652">
        <ele>599</ele>
        <time>2022-05-23 07:44:56</time>
      </trkpt>
      <trkpt lat="42.23743" lon="0.96517">
        <ele>599</ele>
        <time>2022-05-23 07:44:57</time>
      </trkpt>
      <trkpt lat="42.23738" lon="0.96515">
        <ele>599</ele>
        <time>2022-05-23 07:44:58</time>
      </trkpt>
      <trkpt lat="42.23733" lon="0.96512">
        <ele>599</ele>
        <time>2022-05-23 07:44:59</time>
      </trkpt>
      <trkpt lat="42.23728" lon="0.9651">
        <ele>598.8</ele>
        <time>2022-05-23 07:45:00</time>
      </trkpt>
      <trkpt lat="42.23724" lon="0.96508">
        <ele>598.8</ele>
        <time>2022-05-23 07:45:01</time>
      </trkpt>
      <trkpt lat="42.23719" lon="0.96505">
        <ele>598.8</ele>
        <time>2022-05-23 07:45:02</time>
      </trkpt>
      <trkpt lat="42.23714" lon="0.96503">
        <ele>598.8</ele>
        <time>2022-05-23 07:45:03</time>
      </trkpt>
      <trkpt lat="42.23708" lon="0.965">
        <ele>598.8</ele>
        <time>2022-05-23 07:45:04</time>
      </trkpt>
      <trkpt lat="42.23704" lon="0.96498">
        <ele>598.8</ele>
        <time>2022-05-23 07:45:05</time>
      </trkpt>
      <trkpt lat="42.23699" lon="0.96495">
        <ele>598.8</ele>
        <time>2022-05-23 07:45:06</time>
      </trkpt>
      <trkpt lat="42.23694" lon="0.96493">
        <ele>598.8</ele>
        <time>2022-05-23 07:45:07</time>
      </trkpt>
      <trkpt lat="42.23689" lon="0.96491">
        <ele>598.8</ele>
        <time>2022-05-23 07:45:08</time>
      </trkpt>
      <trkpt lat="42.23684" lon="0.96489">
        <ele>598.8</ele>
        <time>2022-05-23 07:45:09</time>
      </trkpt>
      <trkpt lat="42.23678" lon="0.96487">
        <ele>598.8</ele>
        <time>2022-05-23 07:45:10</time>
      </trkpt>
      <trkpt lat="42.23673" lon="0.96486">
        <ele>598.8</ele>
        <time>2022-05-23 07:45:11</time>
      </trkpt>
      <trkpt lat="42.23668" lon="0.96484">
        <ele>598.6</ele>
        <time>2022-05-23 07:45:12</time>
      </trkpt>
      <trkpt lat="42.23663" lon="0.96481">
        <ele>598.6</ele>
        <time>2022-05-23 07:45:13</time>
      </trkpt>
      <trkpt lat="42.23658" lon="0.96479">
        <ele>598.6</ele>
        <time>2022-05-23 07:45:14</time>
      </trkpt>
      <trkpt lat="42.23653" lon="0.96476">
        <ele>598.6</ele>
        <time>2022-05-23 07:45:15</time>
      </trkpt>
      <trkpt lat="42.23647" lon="0.96474">
        <ele>598.6</ele>
        <time>2022-05-23 07:45:16</time>
      </trkpt>
      <trkpt lat="42.23642" lon="0.96472">
        <ele>598.4</ele>
        <time>2022-05-23 07:45:17</time>
      </trkpt>
      <trkpt lat="42.23637" lon="0.96471">
        <ele>598.4</ele>
        <time>2022-05-23 07:45:18</time>
      </trkpt>
      <trkpt lat="42.23632" lon="0.96469">
        <ele>598.4</ele>
        <time>2022-05-23 07:45:19</time>
      </trkpt>
      <trkpt lat="42.23626" lon="0.96468">
        <ele>598.2</ele>
        <time>2022-05-23 07:45:20</time>
      </trkpt>
      <trkpt lat="42.23621" lon="0.96467">
        <ele>598</ele>
        <time>2022-05-23 07:45:21</time>
      </trkpt>
      <trkpt lat="42.23616" lon="0.96466">
        <ele>598</ele>
        <time>2022-05-23 07:45:22</time>
      </trkpt>
      <trkpt lat="42.23611" lon="0.96466">
        <ele>598</ele>
        <time>2022-05-23 07:45:23</time>
      </trkpt>
      <trkpt lat="42.23606" lon="0.96465">
        <ele>597.8</ele>
        <time>2022-05-23 07:45:24</time>
      </trkpt>
      <trkpt lat="42.236" lon="0.96465">
        <ele>597.6</ele>
        <time>2022-05-23 07:45:25</time>
      </trkpt>
      <trkpt lat="42.23595" lon="0.96465">
        <ele>597.6</ele>
        <time>2022-05-23 07:45:26</time>
      </trkpt>
      <trkpt lat="42.23589" lon="0.96466">
        <ele>597.6</ele>
        <time>2022-05-23 07:45:27</time>
      </trkpt>
      <trkpt lat="42.23584" lon="0.96466">
        <ele>597.4</ele>
        <time>2022-05-23 07:45:28</time>
      </trkpt>
      <trkpt lat="42.23578" lon="0.96467">
        <ele>597.2</ele>
        <time>2022-05-23 07:45:29</time>
      </trkpt>
      <trkpt lat="42.23572" lon="0.96467">
        <ele>597</ele>
        <time>2022-05-23 07:45:30</time>
      </trkpt>
      <trkpt lat="42.23566" lon="0.96468">
        <ele>597</ele>
        <time>2022-05-23 07:45:31</time>
      </trkpt>
      <trkpt lat="42.2356" lon="0.96469">
        <ele>596.8</ele>
        <time>2022-05-23 07:45:32</time>
      </trkpt>
      <trkpt lat="42.23554" lon="0.9647">
        <ele>596.6</ele>
        <time>2022-05-23 07:45:33</time>
      </trkpt>
      <trkpt lat="42.23548" lon="0.96471">
        <ele>596.4</ele>
        <time>2022-05-23 07:45:34</time>
      </trkpt>
      <trkpt lat="42.23541" lon="0.96472">
        <ele>596.2</ele>
        <time>2022-05-23 07:45:35</time>
      </trkpt>
      <trkpt lat="42.23535" lon="0.96473">
        <ele>596</ele>
        <time>2022-05-23 07:45:36</time>
      </trkpt>
      <trkpt lat="42.23528" lon="0.96475">
        <ele>595.8</ele>
        <time>2022-05-23 07:45:37</time>
      </trkpt>
      <trkpt lat="42.23522" lon="0.96476">
        <ele>595.8</ele>
        <time>2022-05-23 07:45:38</time>
      </trkpt>
      <trkpt lat="42.23515" lon="0.96478">
        <ele>595.6</ele>
        <time>2022-05-23 07:45:39</time>
      </trkpt>
      <trkpt lat="42.23508" lon="0.9648">
        <ele>595.4</ele>
        <time>2022-05-23 07:45:40</time>
      </trkpt>
      <trkpt lat="42.23501" lon="0.96481">
        <ele>595.2</ele>
        <time>2022-05-23 07:45:41</time>
      </trkpt>
      <trkpt lat="42.23494" lon="0.96483">
        <ele>595</ele>
        <time>2022-05-23 07:45:42</time>
      </trkpt>
      <trkpt lat="42.23488" lon="0.96486">
        <ele>594.8</ele>
        <time>2022-05-23 07:45:43</time>
      </trkpt>
      <trkpt lat="42.23481" lon="0.96488">
        <ele>594.8</ele>
        <time>2022-05-23 07:45:44</time>
      </trkpt>
      <trkpt lat="42.23474" lon="0.9649">
        <ele>594.6</ele>
        <time>2022-05-23 07:45:45</time>
      </trkpt>
      <trkpt lat="42.23467" lon="0.96492">
        <ele>594.6</ele>
        <time>2022-05-23 07:45:46</time>
      </trkpt>
      <trkpt lat="42.23461" lon="0.96494">
        <ele>594.4</ele>
        <time>2022-05-23 07:45:47</time>
      </trkpt>
      <trkpt lat="42.23454" lon="0.96497">
        <ele>594.4</ele>
        <time>2022-05-23 07:45:48</time>
      </trkpt>
      <trkpt lat="42.23447" lon="0.96499">
        <ele>594.2</ele>
        <time>2022-05-23 07:45:49</time>
      </trkpt>
      <trkpt lat="42.23441" lon="0.96501">
        <ele>594.2</ele>
        <time>2022-05-23 07:45:50</time>
      </trkpt>
      <trkpt lat="42.23434" lon="0.96503">
        <ele>594.2</ele>
        <time>2022-05-23 07:45:51</time>
      </trkpt>
      <trkpt lat="42.23428" lon="0.96505">
        <ele>594.2</ele>
        <time>2022-05-23 07:45:52</time>
      </trkpt>
      <trkpt lat="42.23421" lon="0.96507">
        <ele>594</ele>
        <time>2022-05-23 07:45:53</time>
      </trkpt>
      <trkpt lat="42.23415" lon="0.96509">
        <ele>594</ele>
        <time>2022-05-23 07:45:54</time>
      </trkpt>
      <trkpt lat="42.23409" lon="0.96511">
        <ele>594</ele>
        <time>2022-05-23 07:45:55</time>
      </trkpt>
      <trkpt lat="42.23403" lon="0.96513">
        <ele>594.2</ele>
        <time>2022-05-23 07:45:56</time>
      </trkpt>
      <trkpt lat="42.23398" lon="0.96514">
        <ele>594.2</ele>
        <time>2022-05-23 07:45:57</time>
      </trkpt>
      <trkpt lat="42.23392" lon="0.96516">
        <ele>594.2</ele>
        <time>2022-05-23 07:45:58</time>
      </trkpt>
      <trkpt lat="42.23386" lon="0.96517">
        <ele>594.2</ele>
        <time>2022-05-23 07:45:59</time>
      </trkpt>
      <trkpt lat="42.2338" lon="0.96519">
        <ele>594.2</ele>
        <time>2022-05-23 07:46:00</time>
      </trkpt>
      <trkpt lat="42.23374" lon="0.9652">
        <ele>594.4</ele>
        <time>2022-05-23 07:46:01</time>
      </trkpt>
      <trkpt lat="42.23368" lon="0.96521">
        <ele>594.4</ele>
        <time>2022-05-23 07:46:02</time>
      </trkpt>
      <trkpt lat="42.23362" lon="0.96522">
        <ele>594.6</ele>
        <time>2022-05-23 07:46:03</time>
      </trkpt>
      <trkpt lat="42.23356" lon="0.96523">
        <ele>594.6</ele>
        <time>2022-05-23 07:46:04</time>
      </trkpt>
      <trkpt lat="42.23351" lon="0.96523">
        <ele>594.8</ele>
        <time>2022-05-23 07:46:05</time>
      </trkpt>
      <trkpt lat="42.23345" lon="0.96523">
        <ele>595</ele>
        <time>2022-05-23 07:46:06</time>
      </trkpt>
      <trkpt lat="42.2334" lon="0.96523">
        <ele>595</ele>
        <time>2022-05-23 07:46:07</time>
      </trkpt>
      <trkpt lat="42.23334" lon="0.96522">
        <ele>595.2</ele>
        <time>2022-05-23 07:46:08</time>
      </trkpt>
      <trkpt lat="42.23329" lon="0.96522">
        <ele>595.2</ele>
        <time>2022-05-23 07:46:09</time>
      </trkpt>
      <trkpt lat="42.23324" lon="0.96522">
        <ele>595.4</ele>
        <time>2022-05-23 07:46:10</time>
      </trkpt>
      <trkpt lat="42.23319" lon="0.96521">
        <ele>595.6</ele>
        <time>2022-05-23 07:46:11</time>
      </trkpt>
      <trkpt lat="42.23314" lon="0.9652">
        <ele>595.6</ele>
        <time>2022-05-23 07:46:12</time>
      </trkpt>
      <trkpt lat="42.23309" lon="0.9652">
        <ele>595.8</ele>
        <time>2022-05-23 07:46:13</time>
      </trkpt>
      <trkpt lat="42.23304" lon="0.96519">
        <ele>595.8</ele>
        <time>2022-05-23 07:46:14</time>
      </trkpt>
      <trkpt lat="42.23299" lon="0.96518">
        <ele>596</ele>
        <time>2022-05-23 07:46:15</time>
      </trkpt>
      <trkpt lat="42.23294" lon="0.96517">
        <ele>596.2</ele>
        <time>2022-05-23 07:46:16</time>
      </trkpt>
      <trkpt lat="42.23289" lon="0.96515">
        <ele>596.2</ele>
        <time>2022-05-23 07:46:17</time>
      </trkpt>
      <trkpt lat="42.23284" lon="0.96514">
        <ele>596.4</ele>
        <time>2022-05-23 07:46:18</time>
      </trkpt>
      <trkpt lat="42.2328" lon="0.96512">
        <ele>596.4</ele>
        <time>2022-05-23 07:46:19</time>
      </trkpt>
      <trkpt lat="42.23275" lon="0.96511">
        <ele>596.6</ele>
        <time>2022-05-23 07:46:20</time>
      </trkpt>
      <trkpt lat="42.2327" lon="0.9651">
        <ele>596.8</ele>
        <time>2022-05-23 07:46:21</time>
      </trkpt>
      <trkpt lat="42.23266" lon="0.96508">
        <ele>596.8</ele>
        <time>2022-05-23 07:46:22</time>
      </trkpt>
      <trkpt lat="42.23261" lon="0.96507">
        <ele>597</ele>
        <time>2022-05-23 07:46:23</time>
      </trkpt>
      <trkpt lat="42.23257" lon="0.96505">
        <ele>597</ele>
        <time>2022-05-23 07:46:24</time>
      </trkpt>
      <trkpt lat="42.23252" lon="0.96504">
        <ele>597.2</ele>
        <time>2022-05-23 07:46:25</time>
      </trkpt>
      <trkpt lat="42.23247" lon="0.96503">
        <ele>597.2</ele>
        <time>2022-05-23 07:46:26</time>
      </trkpt>
      <trkpt lat="42.23242" lon="0.96501">
        <ele>597.4</ele>
        <time>2022-05-23 07:46:27</time>
      </trkpt>
      <trkpt lat="42.23238" lon="0.96499">
        <ele>597.4</ele>
        <time>2022-05-23 07:46:28</time>
      </trkpt>
      <trkpt lat="42.23234" lon="0.96497">
        <ele>597.4</ele>
        <time>2022-05-23 07:46:29</time>
      </trkpt>
      <trkpt lat="42.23229" lon="0.96496">
        <ele>597.4</ele>
        <time>2022-05-23 07:46:30</time>
      </trkpt>
      <trkpt lat="42.23225" lon="0.96494">
        <ele>597.6</ele>
        <time>2022-05-23 07:46:31</time>
      </trkpt>
      <trkpt lat="42.2322" lon="0.96493">
        <ele>597.6</ele>
        <time>2022-05-23 07:46:32</time>
      </trkpt>
      <trkpt lat="42.23216" lon="0.96491">
        <ele>597.6</ele>
        <time>2022-05-23 07:46:33</time>
      </trkpt>
      <trkpt lat="42.23211" lon="0.96489">
        <ele>597.8</ele>
        <time>2022-05-23 07:46:34</time>
      </trkpt>
      <trkpt lat="42.23207" lon="0.96488">
        <ele>597.8</ele>
        <time>2022-05-23 07:46:35</time>
      </trkpt>
      <trkpt lat="42.23203" lon="0.96486">
        <ele>597.8</ele>
        <time>2022-05-23 07:46:36</time>
      </trkpt>
      <trkpt lat="42.23198" lon="0.96484">
        <ele>597.8</ele>
        <time>2022-05-23 07:46:37</time>
      </trkpt>
      <trkpt lat="42.23194" lon="0.96483">
        <ele>598</ele>
        <time>2022-05-23 07:46:38</time>
      </trkpt>
      <trkpt lat="42.23189" lon="0.96481">
        <ele>598</ele>
        <time>2022-05-23 07:46:39</time>
      </trkpt>
      <trkpt lat="42.23185" lon="0.9648">
        <ele>598</ele>
        <time>2022-05-23 07:46:40</time>
      </trkpt>
      <trkpt lat="42.2318" lon="0.96478">
        <ele>598.2</ele>
        <time>2022-05-23 07:46:41</time>
      </trkpt>
      <trkpt lat="42.23176" lon="0.96477">
        <ele>598.2</ele>
        <time>2022-05-23 07:46:42</time>
      </trkpt>
      <trkpt lat="42.23171" lon="0.96475">
        <ele>598.2</ele>
        <time>2022-05-23 07:46:43</time>
      </trkpt>
      <trkpt lat="42.23167" lon="0.96473">
        <ele>598.2</ele>
        <time>2022-05-23 07:46:44</time>
      </trkpt>
      <trkpt lat="42.23162" lon="0.96471">
        <ele>598.4</ele>
        <time>2022-05-23 07:46:45</time>
      </trkpt>
      <trkpt lat="42.23158" lon="0.9647">
        <ele>598.4</ele>
        <time>2022-05-23 07:46:46</time>
      </trkpt>
      <trkpt lat="42.23153" lon="0.96468">
        <ele>598.4</ele>
        <time>2022-05-23 07:46:47</time>
      </trkpt>
      <trkpt lat="42.23149" lon="0.96467">
        <ele>598.6</ele>
        <time>2022-05-23 07:46:48</time>
      </trkpt>
      <trkpt lat="42.23145" lon="0.96466">
        <ele>598.6</ele>
        <time>2022-05-23 07:46:49</time>
      </trkpt>
      <trkpt lat="42.23141" lon="0.96464">
        <ele>598.6</ele>
        <time>2022-05-23 07:46:50</time>
      </trkpt>
      <trkpt lat="42.23136" lon="0.96462">
        <ele>598.6</ele>
        <time>2022-05-23 07:46:51</time>
      </trkpt>
      <trkpt lat="42.23132" lon="0.96461">
        <ele>598.8</ele>
        <time>2022-05-23 07:46:52</time>
      </trkpt>
      <trkpt lat="42.23127" lon="0.96459">
        <ele>598.8</ele>
        <time>2022-05-23 07:46:53</time>
      </trkpt>
      <trkpt lat="42.23123" lon="0.96458">
        <ele>598.8</ele>
        <time>2022-05-23 07:46:54</time>
      </trkpt>
      <trkpt lat="42.23118" lon="0.96456">
        <ele>598.8</ele>
        <time>2022-05-23 07:46:55</time>
      </trkpt>
      <trkpt lat="42.23114" lon="0.96455">
        <ele>599</ele>
        <time>2022-05-23 07:46:56</time>
      </trkpt>
      <trkpt lat="42.23109" lon="0.96453">
        <ele>599</ele>
        <time>2022-05-23 07:46:57</time>
      </trkpt>
      <trkpt lat="42.23105" lon="0.96452">
        <ele>599</ele>
        <time>2022-05-23 07:46:58</time>
      </trkpt>
      <trkpt lat="42.231" lon="0.9645">
        <ele>599</ele>
        <time>2022-05-23 07:46:59</time>
      </trkpt>
      <trkpt lat="42.23096" lon="0.96449">
        <ele>599.2</ele>
        <time>2022-05-23 07:47:00</time>
      </trkpt>
      <trkpt lat="42.23091" lon="0.96447">
        <ele>599.2</ele>
        <time>2022-05-23 07:47:01</time>
      </trkpt>
      <trkpt lat="42.23087" lon="0.96445">
        <ele>599.2</ele>
        <time>2022-05-23 07:47:02</time>
      </trkpt>
      <trkpt lat="42.23082" lon="0.96444">
        <ele>599.2</ele>
        <time>2022-05-23 07:47:03</time>
      </trkpt>
      <trkpt lat="42.23077" lon="0.96442">
        <ele>599.4</ele>
        <time>2022-05-23 07:47:04</time>
      </trkpt>
      <trkpt lat="42.23073" lon="0.9644">
        <ele>599.4</ele>
        <time>2022-05-23 07:47:05</time>
      </trkpt>
      <trkpt lat="42.23068" lon="0.96438">
        <ele>599.4</ele>
        <time>2022-05-23 07:47:06</time>
      </trkpt>
      <trkpt lat="42.23063" lon="0.96436">
        <ele>599.4</ele>
        <time>2022-05-23 07:47:07</time>
      </trkpt>
      <trkpt lat="42.23059" lon="0.96435">
        <ele>599.6</ele>
        <time>2022-05-23 07:47:08</time>
      </trkpt>
      <trkpt lat="42.23054" lon="0.96433">
        <ele>599.6</ele>
        <time>2022-05-23 07:47:09</time>
      </trkpt>
      <trkpt lat="42.23049" lon="0.96431">
        <ele>599.6</ele>
        <time>2022-05-23 07:47:10</time>
      </trkpt>
      <trkpt lat="42.23045" lon="0.9643">
        <ele>599.8</ele>
        <time>2022-05-23 07:47:11</time>
      </trkpt>
      <trkpt lat="42.2304" lon="0.96428">
        <ele>599.8</ele>
        <time>2022-05-23 07:47:12</time>
      </trkpt>
      <trkpt lat="42.23036" lon="0.96426">
        <ele>599.8</ele>
        <time>2022-05-23 07:47:13</time>
      </trkpt>
      <trkpt lat="42.23031" lon="0.96425">
        <ele>599.8</ele>
        <time>2022-05-23 07:47:14</time>
      </trkpt>
      <trkpt lat="42.23026" lon="0.96423">
        <ele>599.8</ele>
        <time>2022-05-23 07:47:15</time>
      </trkpt>
      <trkpt lat="42.23022" lon="0.96421">
        <ele>599.8</ele>
        <time>2022-05-23 07:47:16</time>
      </trkpt>
      <trkpt lat="42.23017" lon="0.9642">
        <ele>599.8</ele>
        <time>2022-05-23 07:47:17</time>
      </trkpt>
      <trkpt lat="42.23012" lon="0.96418">
        <ele>599.8</ele>
        <time>2022-05-23 07:47:18</time>
      </trkpt>
      <trkpt lat="42.23007" lon="0.96417">
        <ele>599.8</ele>
        <time>2022-05-23 07:47:19</time>
      </trkpt>
      <trkpt lat="42.23003" lon="0.96415">
        <ele>599.8</ele>
        <time>2022-05-23 07:47:20</time>
      </trkpt>
      <trkpt lat="42.22998" lon="0.96413">
        <ele>599.8</ele>
        <time>2022-05-23 07:47:21</time>
      </trkpt>
      <trkpt lat="42.22993" lon="0.96412">
        <ele>599.8</ele>
        <time>2022-05-23 07:47:22</time>
      </trkpt>
      <trkpt lat="42.22988" lon="0.9641">
        <ele>599.8</ele>
        <time>2022-05-23 07:47:23</time>
      </trkpt>
      <trkpt lat="42.22983" lon="0.96408">
        <ele>599.8</ele>
        <time>2022-05-23 07:47:24</time>
      </trkpt>
      <trkpt lat="42.22979" lon="0.96407">
        <ele>599.8</ele>
        <time>2022-05-23 07:47:25</time>
      </trkpt>
      <trkpt lat="42.22973" lon="0.96405">
        <ele>599.8</ele>
        <time>2022-05-23 07:47:26</time>
      </trkpt>
      <trkpt lat="42.22969" lon="0.96403">
        <ele>599.8</ele>
        <time>2022-05-23 07:47:27</time>
      </trkpt>
      <trkpt lat="42.22965" lon="0.96402">
        <ele>599.8</ele>
        <time>2022-05-23 07:47:28</time>
      </trkpt>
      <trkpt lat="42.22959" lon="0.964">
        <ele>599.6</ele>
        <time>2022-05-23 07:47:29</time>
      </trkpt>
      <trkpt lat="42.22954" lon="0.96398">
        <ele>599.6</ele>
        <time>2022-05-23 07:47:30</time>
      </trkpt>
      <trkpt lat="42.22948" lon="0.96396">
        <ele>599.6</ele>
        <time>2022-05-23 07:47:31</time>
      </trkpt>
      <trkpt lat="42.22943" lon="0.96394">
        <ele>599.4</ele>
        <time>2022-05-23 07:47:32</time>
      </trkpt>
      <trkpt lat="42.22938" lon="0.96392">
        <ele>599.4</ele>
        <time>2022-05-23 07:47:33</time>
      </trkpt>
      <trkpt lat="42.22933" lon="0.9639">
        <ele>599.2</ele>
        <time>2022-05-23 07:47:34</time>
      </trkpt>
      <trkpt lat="42.22928" lon="0.96388">
        <ele>599.2</ele>
        <time>2022-05-23 07:47:35</time>
      </trkpt>
      <trkpt lat="42.22922" lon="0.96386">
        <ele>599</ele>
        <time>2022-05-23 07:47:36</time>
      </trkpt>
      <trkpt lat="42.22917" lon="0.96384">
        <ele>599</ele>
        <time>2022-05-23 07:47:37</time>
      </trkpt>
      <trkpt lat="42.22911" lon="0.96382">
        <ele>598.8</ele>
        <time>2022-05-23 07:47:38</time>
      </trkpt>
      <trkpt lat="42.22906" lon="0.9638">
        <ele>598.8</ele>
        <time>2022-05-23 07:47:39</time>
      </trkpt>
      <trkpt lat="42.229" lon="0.96379">
        <ele>598.6</ele>
        <time>2022-05-23 07:47:40</time>
      </trkpt>
      <trkpt lat="42.22895" lon="0.96377">
        <ele>598.6</ele>
        <time>2022-05-23 07:47:41</time>
      </trkpt>
      <trkpt lat="42.22889" lon="0.96375">
        <ele>598.6</ele>
        <time>2022-05-23 07:47:42</time>
      </trkpt>
      <trkpt lat="42.22884" lon="0.96373">
        <ele>598.4</ele>
        <time>2022-05-23 07:47:43</time>
      </trkpt>
      <trkpt lat="42.22878" lon="0.96371">
        <ele>598.4</ele>
        <time>2022-05-23 07:47:44</time>
      </trkpt>
      <trkpt lat="42.22873" lon="0.96369">
        <ele>598.2</ele>
        <time>2022-05-23 07:47:45</time>
      </trkpt>
      <trkpt lat="42.22867" lon="0.96367">
        <ele>598.2</ele>
        <time>2022-05-23 07:47:46</time>
      </trkpt>
      <trkpt lat="42.22862" lon="0.96365">
        <ele>598.2</ele>
        <time>2022-05-23 07:47:47</time>
      </trkpt>
      <trkpt lat="42.22857" lon="0.96363">
        <ele>598.2</ele>
        <time>2022-05-23 07:47:48</time>
      </trkpt>
      <trkpt lat="42.22852" lon="0.96362">
        <ele>598.2</ele>
        <time>2022-05-23 07:47:49</time>
      </trkpt>
      <trkpt lat="42.22846" lon="0.96359">
        <ele>598.2</ele>
        <time>2022-05-23 07:47:50</time>
      </trkpt>
      <trkpt lat="42.22841" lon="0.96357">
        <ele>598.2</ele>
        <time>2022-05-23 07:47:51</time>
      </trkpt>
      <trkpt lat="42.22836" lon="0.96355">
        <ele>598.2</ele>
        <time>2022-05-23 07:47:52</time>
      </trkpt>
      <trkpt lat="42.22831" lon="0.96353">
        <ele>598.4</ele>
        <time>2022-05-23 07:47:53</time>
      </trkpt>
      <trkpt lat="42.22826" lon="0.96351">
        <ele>598.4</ele>
        <time>2022-05-23 07:47:54</time>
      </trkpt>
      <trkpt lat="42.2282" lon="0.96349">
        <ele>598.4</ele>
        <time>2022-05-23 07:47:55</time>
      </trkpt>
      <trkpt lat="42.22815" lon="0.96346">
        <ele>598.4</ele>
        <time>2022-05-23 07:47:56</time>
      </trkpt>
      <trkpt lat="42.22809" lon="0.96344">
        <ele>598.4</ele>
        <time>2022-05-23 07:47:57</time>
      </trkpt>
      <trkpt lat="42.22804" lon="0.96342">
        <ele>598.4</ele>
        <time>2022-05-23 07:47:58</time>
      </trkpt>
      <trkpt lat="42.22798" lon="0.96341">
        <ele>598.6</ele>
        <time>2022-05-23 07:47:59</time>
      </trkpt>
      <trkpt lat="42.22793" lon="0.9634">
        <ele>598.6</ele>
        <time>2022-05-23 07:48:00</time>
      </trkpt>
      <trkpt lat="42.22788" lon="0.96338">
        <ele>598.8</ele>
        <time>2022-05-23 07:48:01</time>
      </trkpt>
      <trkpt lat="42.22783" lon="0.96338">
        <ele>598.8</ele>
        <time>2022-05-23 07:48:02</time>
      </trkpt>
      <trkpt lat="42.22778" lon="0.96336">
        <ele>599</ele>
        <time>2022-05-23 07:48:03</time>
      </trkpt>
      <trkpt lat="42.22772" lon="0.96335">
        <ele>599</ele>
        <time>2022-05-23 07:48:04</time>
      </trkpt>
      <trkpt lat="42.22767" lon="0.96334">
        <ele>599.2</ele>
        <time>2022-05-23 07:48:05</time>
      </trkpt>
      <trkpt lat="42.22762" lon="0.96333">
        <ele>599.2</ele>
        <time>2022-05-23 07:48:06</time>
      </trkpt>
      <trkpt lat="42.22757" lon="0.96332">
        <ele>599.4</ele>
        <time>2022-05-23 07:48:07</time>
      </trkpt>
      <trkpt lat="42.22751" lon="0.96331">
        <ele>599.4</ele>
        <time>2022-05-23 07:48:08</time>
      </trkpt>
      <trkpt lat="42.22746" lon="0.96331">
        <ele>599.6</ele>
        <time>2022-05-23 07:48:09</time>
      </trkpt>
      <trkpt lat="42.22741" lon="0.9633">
        <ele>599.8</ele>
        <time>2022-05-23 07:48:10</time>
      </trkpt>
      <trkpt lat="42.22735" lon="0.9633">
        <ele>599.8</ele>
        <time>2022-05-23 07:48:11</time>
      </trkpt>
      <trkpt lat="42.2273" lon="0.96329">
        <ele>600</ele>
        <time>2022-05-23 07:48:12</time>
      </trkpt>
      <trkpt lat="42.22724" lon="0.96329">
        <ele>600</ele>
        <time>2022-05-23 07:48:13</time>
      </trkpt>
      <trkpt lat="42.2272" lon="0.96329">
        <ele>600.2</ele>
        <time>2022-05-23 07:48:14</time>
      </trkpt>
      <trkpt lat="42.22714" lon="0.96328">
        <ele>600.4</ele>
        <time>2022-05-23 07:48:15</time>
      </trkpt>
      <trkpt lat="42.22709" lon="0.96328">
        <ele>600.6</ele>
        <time>2022-05-23 07:48:16</time>
      </trkpt>
      <trkpt lat="42.22703" lon="0.96328">
        <ele>600.6</ele>
        <time>2022-05-23 07:48:17</time>
      </trkpt>
      <trkpt lat="42.22699" lon="0.96328">
        <ele>600.8</ele>
        <time>2022-05-23 07:48:18</time>
      </trkpt>
      <trkpt lat="42.22694" lon="0.96328">
        <ele>600.8</ele>
        <time>2022-05-23 07:48:19</time>
      </trkpt>
      <trkpt lat="42.22689" lon="0.96328">
        <ele>601</ele>
        <time>2022-05-23 07:48:20</time>
      </trkpt>
      <trkpt lat="42.22683" lon="0.96327">
        <ele>601</ele>
        <time>2022-05-23 07:48:21</time>
      </trkpt>
      <trkpt lat="42.22679" lon="0.96327">
        <ele>601</ele>
        <time>2022-05-23 07:48:22</time>
      </trkpt>
      <trkpt lat="42.22674" lon="0.96327">
        <ele>601.2</ele>
        <time>2022-05-23 07:48:23</time>
      </trkpt>
      <trkpt lat="42.22669" lon="0.96327">
        <ele>601.2</ele>
        <time>2022-05-23 07:48:24</time>
      </trkpt>
      <trkpt lat="42.22664" lon="0.96327">
        <ele>601.4</ele>
        <time>2022-05-23 07:48:25</time>
      </trkpt>
      <trkpt lat="42.22659" lon="0.96327">
        <ele>601.4</ele>
        <time>2022-05-23 07:48:26</time>
      </trkpt>
      <trkpt lat="42.22655" lon="0.96327">
        <ele>601.6</ele>
        <time>2022-05-23 07:48:27</time>
      </trkpt>
      <trkpt lat="42.2265" lon="0.96327">
        <ele>601.6</ele>
        <time>2022-05-23 07:48:28</time>
      </trkpt>
      <trkpt lat="42.22645" lon="0.96327">
        <ele>601.8</ele>
        <time>2022-05-23 07:48:29</time>
      </trkpt>
      <trkpt lat="42.2264" lon="0.96327">
        <ele>601.8</ele>
        <time>2022-05-23 07:48:30</time>
      </trkpt>
      <trkpt lat="42.22635" lon="0.96327">
        <ele>601.8</ele>
        <time>2022-05-23 07:48:31</time>
      </trkpt>
      <trkpt lat="42.22631" lon="0.96328">
        <ele>602</ele>
        <time>2022-05-23 07:48:32</time>
      </trkpt>
      <trkpt lat="42.22626" lon="0.96327">
        <ele>602</ele>
        <time>2022-05-23 07:48:33</time>
      </trkpt>
      <trkpt lat="42.22622" lon="0.96327">
        <ele>602.2</ele>
        <time>2022-05-23 07:48:34</time>
      </trkpt>
      <trkpt lat="42.22618" lon="0.96327">
        <ele>602.4</ele>
        <time>2022-05-23 07:48:35</time>
      </trkpt>
      <trkpt lat="42.22613" lon="0.96327">
        <ele>602.4</ele>
        <time>2022-05-23 07:48:36</time>
      </trkpt>
      <trkpt lat="42.22608" lon="0.96328">
        <ele>602.6</ele>
        <time>2022-05-23 07:48:37</time>
      </trkpt>
      <trkpt lat="42.22605" lon="0.96328">
        <ele>602.6</ele>
        <time>2022-05-23 07:48:38</time>
      </trkpt>
      <trkpt lat="42.22598" lon="0.96328">
        <ele>602.8</ele>
        <time>2022-05-23 07:48:39</time>
      </trkpt>
      <trkpt lat="42.22594" lon="0.96328">
        <ele>602.8</ele>
        <time>2022-05-23 07:48:40</time>
      </trkpt>
      <trkpt lat="42.22589" lon="0.96328">
        <ele>602.8</ele>
        <time>2022-05-23 07:48:41</time>
      </trkpt>
      <trkpt lat="42.22585" lon="0.96328">
        <ele>603</ele>
        <time>2022-05-23 07:48:42</time>
      </trkpt>
      <trkpt lat="42.22582" lon="0.96328">
        <ele>603</ele>
        <time>2022-05-23 07:48:43</time>
      </trkpt>
      <trkpt lat="42.22575" lon="0.96328">
        <ele>603</ele>
        <time>2022-05-23 07:48:44</time>
      </trkpt>
      <trkpt lat="42.22571" lon="0.96328">
        <ele>603.2</ele>
        <time>2022-05-23 07:48:45</time>
      </trkpt>
      <trkpt lat="42.22567" lon="0.96328">
        <ele>603.2</ele>
        <time>2022-05-23 07:48:46</time>
      </trkpt>
      <trkpt lat="42.22562" lon="0.96327">
        <ele>603.4</ele>
        <time>2022-05-23 07:48:47</time>
      </trkpt>
      <trkpt lat="42.22558" lon="0.96327">
        <ele>603.6</ele>
        <time>2022-05-23 07:48:48</time>
      </trkpt>
      <trkpt lat="42.22553" lon="0.96327">
        <ele>603.6</ele>
        <time>2022-05-23 07:48:49</time>
      </trkpt>
      <trkpt lat="42.22549" lon="0.96326">
        <ele>603.6</ele>
        <time>2022-05-23 07:48:50</time>
      </trkpt>
      <trkpt lat="42.22545" lon="0.96326">
        <ele>603.8</ele>
        <time>2022-05-23 07:48:51</time>
      </trkpt>
      <trkpt lat="42.2254" lon="0.96325">
        <ele>603.8</ele>
        <time>2022-05-23 07:48:52</time>
      </trkpt>
      <trkpt lat="42.22536" lon="0.96324">
        <ele>604</ele>
        <time>2022-05-23 07:48:53</time>
      </trkpt>
      <trkpt lat="42.22531" lon="0.96323">
        <ele>604</ele>
        <time>2022-05-23 07:48:54</time>
      </trkpt>
      <trkpt lat="42.22527" lon="0.96322">
        <ele>604.2</ele>
        <time>2022-05-23 07:48:55</time>
      </trkpt>
      <trkpt lat="42.22522" lon="0.96322">
        <ele>604.2</ele>
        <time>2022-05-23 07:48:56</time>
      </trkpt>
      <trkpt lat="42.22518" lon="0.96321">
        <ele>604.4</ele>
        <time>2022-05-23 07:48:57</time>
      </trkpt>
      <trkpt lat="42.22513" lon="0.9632">
        <ele>604.4</ele>
        <time>2022-05-23 07:48:58</time>
      </trkpt>
      <trkpt lat="42.22509" lon="0.9632">
        <ele>604.6</ele>
        <time>2022-05-23 07:48:59</time>
      </trkpt>
      <trkpt lat="42.22504" lon="0.96319">
        <ele>604.6</ele>
        <time>2022-05-23 07:49:00</time>
      </trkpt>
      <trkpt lat="42.225" lon="0.96318">
        <ele>604.6</ele>
        <time>2022-05-23 07:49:01</time>
      </trkpt>
      <trkpt lat="42.22495" lon="0.96317">
        <ele>604.8</ele>
        <time>2022-05-23 07:49:02</time>
      </trkpt>
      <trkpt lat="42.2249" lon="0.96316">
        <ele>604.8</ele>
        <time>2022-05-23 07:49:03</time>
      </trkpt>
      <trkpt lat="42.22486" lon="0.96314">
        <ele>605</ele>
        <time>2022-05-23 07:49:04</time>
      </trkpt>
      <trkpt lat="42.22482" lon="0.96313">
        <ele>605</ele>
        <time>2022-05-23 07:49:05</time>
      </trkpt>
      <trkpt lat="42.22477" lon="0.96312">
        <ele>605.2</ele>
        <time>2022-05-23 07:49:06</time>
      </trkpt>
      <trkpt lat="42.22473" lon="0.9631">
        <ele>605.2</ele>
        <time>2022-05-23 07:49:07</time>
      </trkpt>
      <trkpt lat="42.22468" lon="0.96309">
        <ele>605.4</ele>
        <time>2022-05-23 07:49:08</time>
      </trkpt>
      <trkpt lat="42.22464" lon="0.96307">
        <ele>605.4</ele>
        <time>2022-05-23 07:49:09</time>
      </trkpt>
      <trkpt lat="42.22459" lon="0.96306">
        <ele>605.6</ele>
        <time>2022-05-23 07:49:10</time>
      </trkpt>
      <trkpt lat="42.22455" lon="0.96304">
        <ele>605.6</ele>
        <time>2022-05-23 07:49:11</time>
      </trkpt>
      <trkpt lat="42.2245" lon="0.96303">
        <ele>605.8</ele>
        <time>2022-05-23 07:49:12</time>
      </trkpt>
      <trkpt lat="42.22446" lon="0.96301">
        <ele>605.8</ele>
        <time>2022-05-23 07:49:13</time>
      </trkpt>
      <trkpt lat="42.22441" lon="0.963">
        <ele>605.8</ele>
        <time>2022-05-23 07:49:14</time>
      </trkpt>
      <trkpt lat="42.22437" lon="0.96298">
        <ele>606</ele>
        <time>2022-05-23 07:49:15</time>
      </trkpt>
      <trkpt lat="42.22433" lon="0.96296">
        <ele>606</ele>
        <time>2022-05-23 07:49:16</time>
      </trkpt>
      <trkpt lat="42.22428" lon="0.96294">
        <ele>606.2</ele>
        <time>2022-05-23 07:49:17</time>
      </trkpt>
      <trkpt lat="42.22424" lon="0.96292">
        <ele>606.2</ele>
        <time>2022-05-23 07:49:18</time>
      </trkpt>
      <trkpt lat="42.22419" lon="0.9629">
        <ele>606.4</ele>
        <time>2022-05-23 07:49:19</time>
      </trkpt>
      <trkpt lat="42.22415" lon="0.96288">
        <ele>606.4</ele>
        <time>2022-05-23 07:49:20</time>
      </trkpt>
      <trkpt lat="42.2241" lon="0.96286">
        <ele>606.4</ele>
        <time>2022-05-23 07:49:21</time>
      </trkpt>
      <trkpt lat="42.22405" lon="0.96284">
        <ele>606.4</ele>
        <time>2022-05-23 07:49:22</time>
      </trkpt>
      <trkpt lat="42.22401" lon="0.96282">
        <ele>606.6</ele>
        <time>2022-05-23 07:49:23</time>
      </trkpt>
      <trkpt lat="42.22397" lon="0.9628">
        <ele>606.6</ele>
        <time>2022-05-23 07:49:24</time>
      </trkpt>
      <trkpt lat="42.22393" lon="0.96278">
        <ele>606.6</ele>
        <time>2022-05-23 07:49:25</time>
      </trkpt>
      <trkpt lat="42.22387" lon="0.96275">
        <ele>606.6</ele>
        <time>2022-05-23 07:49:26</time>
      </trkpt>
      <trkpt lat="42.22382" lon="0.96272">
        <ele>606.6</ele>
        <time>2022-05-23 07:49:27</time>
      </trkpt>
      <trkpt lat="42.22378" lon="0.9627">
        <ele>606.6</ele>
        <time>2022-05-23 07:49:28</time>
      </trkpt>
      <trkpt lat="42.22373" lon="0.96267">
        <ele>606.6</ele>
        <time>2022-05-23 07:49:29</time>
      </trkpt>
      <trkpt lat="42.22368" lon="0.96265">
        <ele>606.4</ele>
        <time>2022-05-23 07:49:30</time>
      </trkpt>
      <trkpt lat="42.22363" lon="0.96262">
        <ele>606.4</ele>
        <time>2022-05-23 07:49:31</time>
      </trkpt>
      <trkpt lat="42.22358" lon="0.9626">
        <ele>606.4</ele>
        <time>2022-05-23 07:49:32</time>
      </trkpt>
      <trkpt lat="42.22354" lon="0.96258">
        <ele>606.4</ele>
        <time>2022-05-23 07:49:33</time>
      </trkpt>
      <trkpt lat="42.22349" lon="0.96255">
        <ele>606.2</ele>
        <time>2022-05-23 07:49:34</time>
      </trkpt>
      <trkpt lat="42.22344" lon="0.96253">
        <ele>606.2</ele>
        <time>2022-05-23 07:49:35</time>
      </trkpt>
      <trkpt lat="42.22339" lon="0.9625">
        <ele>606</ele>
        <time>2022-05-23 07:49:36</time>
      </trkpt>
      <trkpt lat="42.22333" lon="0.96247">
        <ele>606</ele>
        <time>2022-05-23 07:49:37</time>
      </trkpt>
      <trkpt lat="42.22328" lon="0.96244">
        <ele>605.8</ele>
        <time>2022-05-23 07:49:38</time>
      </trkpt>
      <trkpt lat="42.22322" lon="0.96241">
        <ele>605.6</ele>
        <time>2022-05-23 07:49:39</time>
      </trkpt>
      <trkpt lat="42.22316" lon="0.96238">
        <ele>605.6</ele>
        <time>2022-05-23 07:49:40</time>
      </trkpt>
      <trkpt lat="42.22311" lon="0.96236">
        <ele>605.4</ele>
        <time>2022-05-23 07:49:41</time>
      </trkpt>
      <trkpt lat="42.22305" lon="0.96233">
        <ele>605.2</ele>
        <time>2022-05-23 07:49:42</time>
      </trkpt>
      <trkpt lat="42.22299" lon="0.9623">
        <ele>605</ele>
        <time>2022-05-23 07:49:43</time>
      </trkpt>
      <trkpt lat="42.22293" lon="0.96227">
        <ele>605</ele>
        <time>2022-05-23 07:49:44</time>
      </trkpt>
      <trkpt lat="42.22287" lon="0.96225">
        <ele>604.8</ele>
        <time>2022-05-23 07:49:45</time>
      </trkpt>
      <trkpt lat="42.22281" lon="0.96221">
        <ele>604.6</ele>
        <time>2022-05-23 07:49:46</time>
      </trkpt>
      <trkpt lat="42.22275" lon="0.96218">
        <ele>604.4</ele>
        <time>2022-05-23 07:49:47</time>
      </trkpt>
      <trkpt lat="42.22269" lon="0.96216">
        <ele>604.2</ele>
        <time>2022-05-23 07:49:48</time>
      </trkpt>
      <trkpt lat="42.22263" lon="0.96212">
        <ele>604.2</ele>
        <time>2022-05-23 07:49:49</time>
      </trkpt>
      <trkpt lat="42.22257" lon="0.96209">
        <ele>604</ele>
        <time>2022-05-23 07:49:50</time>
      </trkpt>
      <trkpt lat="42.22251" lon="0.96206">
        <ele>603.8</ele>
        <time>2022-05-23 07:49:51</time>
      </trkpt>
      <trkpt lat="42.22245" lon="0.96203">
        <ele>603.6</ele>
        <time>2022-05-23 07:49:52</time>
      </trkpt>
      <trkpt lat="42.22239" lon="0.962">
        <ele>603.6</ele>
        <time>2022-05-23 07:49:53</time>
      </trkpt>
      <trkpt lat="42.22233" lon="0.96197">
        <ele>603.4</ele>
        <time>2022-05-23 07:49:54</time>
      </trkpt>
      <trkpt lat="42.22227" lon="0.96194">
        <ele>603.2</ele>
        <time>2022-05-23 07:49:55</time>
      </trkpt>
      <trkpt lat="42.22221" lon="0.96191">
        <ele>603.2</ele>
        <time>2022-05-23 07:49:56</time>
      </trkpt>
      <trkpt lat="42.22215" lon="0.96188">
        <ele>603</ele>
        <time>2022-05-23 07:49:57</time>
      </trkpt>
      <trkpt lat="42.22209" lon="0.96186">
        <ele>603</ele>
        <time>2022-05-23 07:49:58</time>
      </trkpt>
      <trkpt lat="42.22202" lon="0.96182">
        <ele>602.8</ele>
        <time>2022-05-23 07:49:59</time>
      </trkpt>
      <trkpt lat="42.22196" lon="0.96179">
        <ele>602.8</ele>
        <time>2022-05-23 07:50:00</time>
      </trkpt>
      <trkpt lat="42.22191" lon="0.96176">
        <ele>602.6</ele>
        <time>2022-05-23 07:50:01</time>
      </trkpt>
      <trkpt lat="42.22185" lon="0.96174">
        <ele>602.6</ele>
        <time>2022-05-23 07:50:02</time>
      </trkpt>
      <trkpt lat="42.22179" lon="0.96171">
        <ele>602.4</ele>
        <time>2022-05-23 07:50:03</time>
      </trkpt>
      <trkpt lat="42.22173" lon="0.96168">
        <ele>602.4</ele>
        <time>2022-05-23 07:50:04</time>
      </trkpt>
      <trkpt lat="42.22167" lon="0.96165">
        <ele>602.4</ele>
        <time>2022-05-23 07:50:05</time>
      </trkpt>
      <trkpt lat="42.22162" lon="0.96162">
        <ele>602.4</ele>
        <time>2022-05-23 07:50:06</time>
      </trkpt>
      <trkpt lat="42.22156" lon="0.9616">
        <ele>602.4</ele>
        <time>2022-05-23 07:50:07</time>
      </trkpt>
      <trkpt lat="42.22151" lon="0.96157">
        <ele>602.4</ele>
        <time>2022-05-23 07:50:08</time>
      </trkpt>
      <trkpt lat="42.22145" lon="0.96154">
        <ele>602.4</ele>
        <time>2022-05-23 07:50:09</time>
      </trkpt>
      <trkpt lat="42.22139" lon="0.96152">
        <ele>602.4</ele>
        <time>2022-05-23 07:50:10</time>
      </trkpt>
      <trkpt lat="42.22134" lon="0.96149">
        <ele>602.6</ele>
        <time>2022-05-23 07:50:11</time>
      </trkpt>
      <trkpt lat="42.22128" lon="0.96147">
        <ele>602.6</ele>
        <time>2022-05-23 07:50:12</time>
      </trkpt>
      <trkpt lat="42.22124" lon="0.96144">
        <ele>602.6</ele>
        <time>2022-05-23 07:50:13</time>
      </trkpt>
      <trkpt lat="42.22119" lon="0.96142">
        <ele>602.6</ele>
        <time>2022-05-23 07:50:14</time>
      </trkpt>
      <trkpt lat="42.22114" lon="0.96139">
        <ele>602.8</ele>
        <time>2022-05-23 07:50:15</time>
      </trkpt>
      <trkpt lat="42.22109" lon="0.96137">
        <ele>602.8</ele>
        <time>2022-05-23 07:50:16</time>
      </trkpt>
      <trkpt lat="42.22103" lon="0.96134">
        <ele>602.8</ele>
        <time>2022-05-23 07:50:17</time>
      </trkpt>
      <trkpt lat="42.22098" lon="0.96132">
        <ele>603</ele>
        <time>2022-05-23 07:50:18</time>
      </trkpt>
      <trkpt lat="42.22093" lon="0.9613">
        <ele>603</ele>
        <time>2022-05-23 07:50:19</time>
      </trkpt>
      <trkpt lat="42.22088" lon="0.96127">
        <ele>603</ele>
        <time>2022-05-23 07:50:20</time>
      </trkpt>
      <trkpt lat="42.22083" lon="0.96124">
        <ele>603.2</ele>
        <time>2022-05-23 07:50:21</time>
      </trkpt>
      <trkpt lat="42.22078" lon="0.96122">
        <ele>603.2</ele>
        <time>2022-05-23 07:50:22</time>
      </trkpt>
      <trkpt lat="42.22074" lon="0.9612">
        <ele>603.4</ele>
        <time>2022-05-23 07:50:23</time>
      </trkpt>
      <trkpt lat="42.22069" lon="0.96117">
        <ele>603.4</ele>
        <time>2022-05-23 07:50:24</time>
      </trkpt>
      <trkpt lat="42.22064" lon="0.96115">
        <ele>603.6</ele>
        <time>2022-05-23 07:50:25</time>
      </trkpt>
      <trkpt lat="42.22059" lon="0.96112">
        <ele>603.6</ele>
        <time>2022-05-23 07:50:26</time>
      </trkpt>
      <trkpt lat="42.22054" lon="0.9611">
        <ele>603.8</ele>
        <time>2022-05-23 07:50:27</time>
      </trkpt>
      <trkpt lat="42.22049" lon="0.96108">
        <ele>603.8</ele>
        <time>2022-05-23 07:50:28</time>
      </trkpt>
      <trkpt lat="42.22044" lon="0.96105">
        <ele>604</ele>
        <time>2022-05-23 07:50:29</time>
      </trkpt>
      <trkpt lat="42.2204" lon="0.96103">
        <ele>604</ele>
        <time>2022-05-23 07:50:30</time>
      </trkpt>
      <trkpt lat="42.22035" lon="0.961">
        <ele>604.4</ele>
        <time>2022-05-23 07:50:31</time>
      </trkpt>
      <trkpt lat="42.2203" lon="0.96097">
        <ele>604.6</ele>
        <time>2022-05-23 07:50:32</time>
      </trkpt>
      <trkpt lat="42.22025" lon="0.96095">
        <ele>604.8</ele>
        <time>2022-05-23 07:50:33</time>
      </trkpt>
      <trkpt lat="42.2202" lon="0.96092">
        <ele>604.8</ele>
        <time>2022-05-23 07:50:34</time>
      </trkpt>
      <trkpt lat="42.22015" lon="0.96088">
        <ele>605</ele>
        <time>2022-05-23 07:50:35</time>
      </trkpt>
      <trkpt lat="42.22009" lon="0.96085">
        <ele>605.2</ele>
        <time>2022-05-23 07:50:36</time>
      </trkpt>
      <trkpt lat="42.22004" lon="0.96081">
        <ele>605.2</ele>
        <time>2022-05-23 07:50:37</time>
      </trkpt>
      <trkpt lat="42.22" lon="0.96078">
        <ele>605.2</ele>
        <time>2022-05-23 07:50:38</time>
      </trkpt>
      <trkpt lat="42.21995" lon="0.96075">
        <ele>605.4</ele>
        <time>2022-05-23 07:50:39</time>
      </trkpt>
      <trkpt lat="42.2199" lon="0.96071">
        <ele>605.6</ele>
        <time>2022-05-23 07:50:40</time>
      </trkpt>
      <trkpt lat="42.21985" lon="0.96067">
        <ele>605.6</ele>
        <time>2022-05-23 07:50:41</time>
      </trkpt>
      <trkpt lat="42.2198" lon="0.96063">
        <ele>605.8</ele>
        <time>2022-05-23 07:50:42</time>
      </trkpt>
      <trkpt lat="42.21975" lon="0.96058">
        <ele>605.8</ele>
        <time>2022-05-23 07:50:43</time>
      </trkpt>
      <trkpt lat="42.21971" lon="0.96054">
        <ele>605.8</ele>
        <time>2022-05-23 07:50:44</time>
      </trkpt>
      <trkpt lat="42.21966" lon="0.9605">
        <ele>606</ele>
        <time>2022-05-23 07:50:45</time>
      </trkpt>
      <trkpt lat="42.21962" lon="0.96045">
        <ele>606.2</ele>
        <time>2022-05-23 07:50:46</time>
      </trkpt>
      <trkpt lat="42.21958" lon="0.96041">
        <ele>606.2</ele>
        <time>2022-05-23 07:50:47</time>
      </trkpt>
      <trkpt lat="42.21953" lon="0.96036">
        <ele>606.4</ele>
        <time>2022-05-23 07:50:48</time>
      </trkpt>
      <trkpt lat="42.2195" lon="0.96031">
        <ele>606.6</ele>
        <time>2022-05-23 07:50:49</time>
      </trkpt>
      <trkpt lat="42.21945" lon="0.96027">
        <ele>606.6</ele>
        <time>2022-05-23 07:50:50</time>
      </trkpt>
      <trkpt lat="42.21942" lon="0.96022">
        <ele>606.8</ele>
        <time>2022-05-23 07:50:51</time>
      </trkpt>
      <trkpt lat="42.21938" lon="0.96017">
        <ele>607</ele>
        <time>2022-05-23 07:50:52</time>
      </trkpt>
      <trkpt lat="42.21934" lon="0.96012">
        <ele>607</ele>
        <time>2022-05-23 07:50:53</time>
      </trkpt>
      <trkpt lat="42.21931" lon="0.96007">
        <ele>607.2</ele>
        <time>2022-05-23 07:50:54</time>
      </trkpt>
      <trkpt lat="42.21927" lon="0.96002">
        <ele>607.2</ele>
        <time>2022-05-23 07:50:55</time>
      </trkpt>
      <trkpt lat="42.21924" lon="0.95997">
        <ele>607.4</ele>
        <time>2022-05-23 07:50:56</time>
      </trkpt>
      <trkpt lat="42.21921" lon="0.95992">
        <ele>607.4</ele>
        <time>2022-05-23 07:50:57</time>
      </trkpt>
      <trkpt lat="42.21917" lon="0.95987">
        <ele>607.6</ele>
        <time>2022-05-23 07:50:58</time>
      </trkpt>
      <trkpt lat="42.21914" lon="0.95981">
        <ele>607.6</ele>
        <time>2022-05-23 07:50:59</time>
      </trkpt>
      <trkpt lat="42.2191" lon="0.95976">
        <ele>607.6</ele>
        <time>2022-05-23 07:51:00</time>
      </trkpt>
      <trkpt lat="42.21908" lon="0.9597">
        <ele>607.8</ele>
        <time>2022-05-23 07:51:01</time>
      </trkpt>
      <trkpt lat="42.21905" lon="0.95965">
        <ele>607.8</ele>
        <time>2022-05-23 07:51:02</time>
      </trkpt>
      <trkpt lat="42.21902" lon="0.95959">
        <ele>607.8</ele>
        <time>2022-05-23 07:51:03</time>
      </trkpt>
      <trkpt lat="42.21899" lon="0.95953">
        <ele>608</ele>
        <time>2022-05-23 07:51:04</time>
      </trkpt>
      <trkpt lat="42.21896" lon="0.95948">
        <ele>608</ele>
        <time>2022-05-23 07:51:05</time>
      </trkpt>
      <trkpt lat="42.21893" lon="0.95942">
        <ele>608</ele>
        <time>2022-05-23 07:51:06</time>
      </trkpt>
      <trkpt lat="42.2189" lon="0.95936">
        <ele>608</ele>
        <time>2022-05-23 07:51:07</time>
      </trkpt>
      <trkpt lat="42.21887" lon="0.9593">
        <ele>608.2</ele>
        <time>2022-05-23 07:51:08</time>
      </trkpt>
      <trkpt lat="42.21884" lon="0.95924">
        <ele>608.2</ele>
        <time>2022-05-23 07:51:09</time>
      </trkpt>
      <trkpt lat="42.21881" lon="0.95918">
        <ele>608.2</ele>
        <time>2022-05-23 07:51:10</time>
      </trkpt>
      <trkpt lat="42.21879" lon="0.95912">
        <ele>608.2</ele>
        <time>2022-05-23 07:51:11</time>
      </trkpt>
      <trkpt lat="42.21876" lon="0.95906">
        <ele>608.4</ele>
        <time>2022-05-23 07:51:12</time>
      </trkpt>
      <trkpt lat="42.21873" lon="0.959">
        <ele>608.4</ele>
        <time>2022-05-23 07:51:13</time>
      </trkpt>
      <trkpt lat="42.2187" lon="0.95894">
        <ele>608.4</ele>
        <time>2022-05-23 07:51:14</time>
      </trkpt>
      <trkpt lat="42.21868" lon="0.95888">
        <ele>608.4</ele>
        <time>2022-05-23 07:51:15</time>
      </trkpt>
      <trkpt lat="42.21865" lon="0.95881">
        <ele>608.4</ele>
        <time>2022-05-23 07:51:16</time>
      </trkpt>
      <trkpt lat="42.21862" lon="0.95875">
        <ele>608.4</ele>
        <time>2022-05-23 07:51:17</time>
      </trkpt>
      <trkpt lat="42.21859" lon="0.95868">
        <ele>608.4</ele>
        <time>2022-05-23 07:51:18</time>
      </trkpt>
      <trkpt lat="42.21856" lon="0.95862">
        <ele>608.4</ele>
        <time>2022-05-23 07:51:19</time>
      </trkpt>
      <trkpt lat="42.21853" lon="0.95856">
        <ele>608.4</ele>
        <time>2022-05-23 07:51:20</time>
      </trkpt>
      <trkpt lat="42.2185" lon="0.95849">
        <ele>608.4</ele>
        <time>2022-05-23 07:51:21</time>
      </trkpt>
      <trkpt lat="42.21847" lon="0.95842">
        <ele>608.4</ele>
        <time>2022-05-23 07:51:22</time>
      </trkpt>
      <trkpt lat="42.21844" lon="0.95836">
        <ele>608.4</ele>
        <time>2022-05-23 07:51:23</time>
      </trkpt>
      <trkpt lat="42.21841" lon="0.95829">
        <ele>608.4</ele>
        <time>2022-05-23 07:51:24</time>
      </trkpt>
      <trkpt lat="42.21838" lon="0.95822">
        <ele>608.2</ele>
        <time>2022-05-23 07:51:25</time>
      </trkpt>
      <trkpt lat="42.21834" lon="0.95816">
        <ele>608.2</ele>
        <time>2022-05-23 07:51:26</time>
      </trkpt>
      <trkpt lat="42.21831" lon="0.95809">
        <ele>608.2</ele>
        <time>2022-05-23 07:51:27</time>
      </trkpt>
      <trkpt lat="42.21828" lon="0.95803">
        <ele>608.2</ele>
        <time>2022-05-23 07:51:28</time>
      </trkpt>
      <trkpt lat="42.21825" lon="0.95796">
        <ele>608.2</ele>
        <time>2022-05-23 07:51:29</time>
      </trkpt>
      <trkpt lat="42.21822" lon="0.9579">
        <ele>608</ele>
        <time>2022-05-23 07:51:30</time>
      </trkpt>
      <trkpt lat="42.21819" lon="0.95783">
        <ele>608</ele>
        <time>2022-05-23 07:51:31</time>
      </trkpt>
      <trkpt lat="42.21816" lon="0.95776">
        <ele>608</ele>
        <time>2022-05-23 07:51:32</time>
      </trkpt>
      <trkpt lat="42.21813" lon="0.9577">
        <ele>608</ele>
        <time>2022-05-23 07:51:33</time>
      </trkpt>
      <trkpt lat="42.2181" lon="0.95763">
        <ele>608</ele>
        <time>2022-05-23 07:51:34</time>
      </trkpt>
      <trkpt lat="42.21807" lon="0.95756">
        <ele>608</ele>
        <time>2022-05-23 07:51:35</time>
      </trkpt>
      <trkpt lat="42.21803" lon="0.95749">
        <ele>607.8</ele>
        <time>2022-05-23 07:51:36</time>
      </trkpt>
      <trkpt lat="42.218" lon="0.95743">
        <ele>607.8</ele>
        <time>2022-05-23 07:51:37</time>
      </trkpt>
      <trkpt lat="42.21797" lon="0.95736">
        <ele>607.8</ele>
        <time>2022-05-23 07:51:38</time>
      </trkpt>
      <trkpt lat="42.21794" lon="0.95729">
        <ele>607.8</ele>
        <time>2022-05-23 07:51:39</time>
      </trkpt>
      <trkpt lat="42.21791" lon="0.95723">
        <ele>607.6</ele>
        <time>2022-05-23 07:51:40</time>
      </trkpt>
      <trkpt lat="42.21788" lon="0.95716">
        <ele>607.6</ele>
        <time>2022-05-23 07:51:41</time>
      </trkpt>
      <trkpt lat="42.21785" lon="0.9571">
        <ele>607.6</ele>
        <time>2022-05-23 07:51:42</time>
      </trkpt>
      <trkpt lat="42.21781" lon="0.95703">
        <ele>607.6</ele>
        <time>2022-05-23 07:51:43</time>
      </trkpt>
      <trkpt lat="42.21778" lon="0.95697">
        <ele>607.6</ele>
        <time>2022-05-23 07:51:44</time>
      </trkpt>
      <trkpt lat="42.21775" lon="0.9569">
        <ele>607.6</ele>
        <time>2022-05-23 07:51:45</time>
      </trkpt>
      <trkpt lat="42.21772" lon="0.95684">
        <ele>607.6</ele>
        <time>2022-05-23 07:51:46</time>
      </trkpt>
      <trkpt lat="42.21769" lon="0.95678">
        <ele>607.6</ele>
        <time>2022-05-23 07:51:47</time>
      </trkpt>
      <trkpt lat="42.21765" lon="0.95672">
        <ele>607.6</ele>
        <time>2022-05-23 07:51:48</time>
      </trkpt>
      <trkpt lat="42.21762" lon="0.95665">
        <ele>607.6</ele>
        <time>2022-05-23 07:51:49</time>
      </trkpt>
      <trkpt lat="42.21759" lon="0.95659">
        <ele>607.6</ele>
        <time>2022-05-23 07:51:50</time>
      </trkpt>
      <trkpt lat="42.21755" lon="0.95653">
        <ele>607.8</ele>
        <time>2022-05-23 07:51:51</time>
      </trkpt>
      <trkpt lat="42.21752" lon="0.95647">
        <ele>607.8</ele>
        <time>2022-05-23 07:51:52</time>
      </trkpt>
      <trkpt lat="42.21748" lon="0.95641">
        <ele>607.8</ele>
        <time>2022-05-23 07:51:53</time>
      </trkpt>
      <trkpt lat="42.21744" lon="0.95635">
        <ele>607.8</ele>
        <time>2022-05-23 07:51:54</time>
      </trkpt>
      <trkpt lat="42.21741" lon="0.9563">
        <ele>607.8</ele>
        <time>2022-05-23 07:51:55</time>
      </trkpt>
      <trkpt lat="42.21737" lon="0.95624">
        <ele>607.8</ele>
        <time>2022-05-23 07:51:56</time>
      </trkpt>
      <trkpt lat="42.21733" lon="0.95618">
        <ele>608</ele>
        <time>2022-05-23 07:51:57</time>
      </trkpt>
      <trkpt lat="42.2173" lon="0.95613">
        <ele>608</ele>
        <time>2022-05-23 07:51:58</time>
      </trkpt>
      <trkpt lat="42.21725" lon="0.95607">
        <ele>608</ele>
        <time>2022-05-23 07:51:59</time>
      </trkpt>
      <trkpt lat="42.21721" lon="0.95602">
        <ele>608</ele>
        <time>2022-05-23 07:52:00</time>
      </trkpt>
      <trkpt lat="42.21717" lon="0.95597">
        <ele>608</ele>
        <time>2022-05-23 07:52:01</time>
      </trkpt>
      <trkpt lat="42.21713" lon="0.95592">
        <ele>608</ele>
        <time>2022-05-23 07:52:02</time>
      </trkpt>
      <trkpt lat="42.21709" lon="0.95587">
        <ele>608.2</ele>
        <time>2022-05-23 07:52:03</time>
      </trkpt>
      <trkpt lat="42.21705" lon="0.95582">
        <ele>608.2</ele>
        <time>2022-05-23 07:52:04</time>
      </trkpt>
      <trkpt lat="42.21701" lon="0.95577">
        <ele>608.2</ele>
        <time>2022-05-23 07:52:05</time>
      </trkpt>
      <trkpt lat="42.21697" lon="0.95572">
        <ele>608.2</ele>
        <time>2022-05-23 07:52:06</time>
      </trkpt>
      <trkpt lat="42.21692" lon="0.95567">
        <ele>608.4</ele>
        <time>2022-05-23 07:52:07</time>
      </trkpt>
      <trkpt lat="42.21688" lon="0.95563">
        <ele>608.4</ele>
        <time>2022-05-23 07:52:08</time>
      </trkpt>
      <trkpt lat="42.21683" lon="0.95558">
        <ele>608.4</ele>
        <time>2022-05-23 07:52:09</time>
      </trkpt>
      <trkpt lat="42.21679" lon="0.95553">
        <ele>608.6</ele>
        <time>2022-05-23 07:52:10</time>
      </trkpt>
      <trkpt lat="42.21674" lon="0.95548">
        <ele>608.6</ele>
        <time>2022-05-23 07:52:11</time>
      </trkpt>
      <trkpt lat="42.2167" lon="0.95544">
        <ele>608.6</ele>
        <time>2022-05-23 07:52:12</time>
      </trkpt>
      <trkpt lat="42.21666" lon="0.95539">
        <ele>608.6</ele>
        <time>2022-05-23 07:52:13</time>
      </trkpt>
      <trkpt lat="42.21661" lon="0.95534">
        <ele>608.6</ele>
        <time>2022-05-23 07:52:14</time>
      </trkpt>
      <trkpt lat="42.21657" lon="0.95529">
        <ele>608.6</ele>
        <time>2022-05-23 07:52:15</time>
      </trkpt>
      <trkpt lat="42.21652" lon="0.95524">
        <ele>608.8</ele>
        <time>2022-05-23 07:52:16</time>
      </trkpt>
      <trkpt lat="42.21648" lon="0.95519">
        <ele>608.8</ele>
        <time>2022-05-23 07:52:17</time>
      </trkpt>
      <trkpt lat="42.21644" lon="0.95515">
        <ele>608.8</ele>
        <time>2022-05-23 07:52:18</time>
      </trkpt>
      <trkpt lat="42.21639" lon="0.9551">
        <ele>608.8</ele>
        <time>2022-05-23 07:52:19</time>
      </trkpt>
      <trkpt lat="42.21634" lon="0.95505">
        <ele>609</ele>
        <time>2022-05-23 07:52:20</time>
      </trkpt>
      <trkpt lat="42.2163" lon="0.955">
        <ele>609</ele>
        <time>2022-05-23 07:52:21</time>
      </trkpt>
      <trkpt lat="42.21625" lon="0.95496">
        <ele>609</ele>
        <time>2022-05-23 07:52:22</time>
      </trkpt>
      <trkpt lat="42.21621" lon="0.95491">
        <ele>609.2</ele>
        <time>2022-05-23 07:52:23</time>
      </trkpt>
      <trkpt lat="42.21617" lon="0.95486">
        <ele>609.2</ele>
        <time>2022-05-23 07:52:24</time>
      </trkpt>
      <trkpt lat="42.21612" lon="0.95481">
        <ele>609.2</ele>
        <time>2022-05-23 07:52:25</time>
      </trkpt>
      <trkpt lat="42.21608" lon="0.95476">
        <ele>609.2</ele>
        <time>2022-05-23 07:52:26</time>
      </trkpt>
      <trkpt lat="42.21604" lon="0.95471">
        <ele>609.4</ele>
        <time>2022-05-23 07:52:27</time>
      </trkpt>
      <trkpt lat="42.21599" lon="0.95467">
        <ele>609.4</ele>
        <time>2022-05-23 07:52:28</time>
      </trkpt>
      <trkpt lat="42.21595" lon="0.95462">
        <ele>609.4</ele>
        <time>2022-05-23 07:52:29</time>
      </trkpt>
      <trkpt lat="42.21591" lon="0.95457">
        <ele>609.4</ele>
        <time>2022-05-23 07:52:30</time>
      </trkpt>
      <trkpt lat="42.21587" lon="0.95452">
        <ele>609.4</ele>
        <time>2022-05-23 07:52:31</time>
      </trkpt>
      <trkpt lat="42.21583" lon="0.95446">
        <ele>609.6</ele>
        <time>2022-05-23 07:52:32</time>
      </trkpt>
      <trkpt lat="42.21579" lon="0.95442">
        <ele>609.6</ele>
        <time>2022-05-23 07:52:33</time>
      </trkpt>
      <trkpt lat="42.21575" lon="0.95437">
        <ele>609.6</ele>
        <time>2022-05-23 07:52:34</time>
      </trkpt>
      <trkpt lat="42.21571" lon="0.95432">
        <ele>609.6</ele>
        <time>2022-05-23 07:52:35</time>
      </trkpt>
      <trkpt lat="42.21567" lon="0.95427">
        <ele>609.6</ele>
        <time>2022-05-23 07:52:36</time>
      </trkpt>
      <trkpt lat="42.21562" lon="0.95423">
        <ele>609.6</ele>
        <time>2022-05-23 07:52:37</time>
      </trkpt>
      <trkpt lat="42.21558" lon="0.95418">
        <ele>609.8</ele>
        <time>2022-05-23 07:52:38</time>
      </trkpt>
      <trkpt lat="42.21554" lon="0.95414">
        <ele>609.8</ele>
        <time>2022-05-23 07:52:39</time>
      </trkpt>
      <trkpt lat="42.2155" lon="0.95409">
        <ele>609.8</ele>
        <time>2022-05-23 07:52:40</time>
      </trkpt>
      <trkpt lat="42.21546" lon="0.95405">
        <ele>609.8</ele>
        <time>2022-05-23 07:52:41</time>
      </trkpt>
      <trkpt lat="42.21541" lon="0.954">
        <ele>610</ele>
        <time>2022-05-23 07:52:42</time>
      </trkpt>
      <trkpt lat="42.21537" lon="0.95396">
        <ele>610</ele>
        <time>2022-05-23 07:52:43</time>
      </trkpt>
      <trkpt lat="42.21533" lon="0.95391">
        <ele>610</ele>
        <time>2022-05-23 07:52:44</time>
      </trkpt>
      <trkpt lat="42.21529" lon="0.95387">
        <ele>610.2</ele>
        <time>2022-05-23 07:52:45</time>
      </trkpt>
      <trkpt lat="42.21524" lon="0.95382">
        <ele>610.2</ele>
        <time>2022-05-23 07:52:46</time>
      </trkpt>
      <trkpt lat="42.2152" lon="0.95378">
        <ele>610.2</ele>
        <time>2022-05-23 07:52:47</time>
      </trkpt>
      <trkpt lat="42.21516" lon="0.95373">
        <ele>610.2</ele>
        <time>2022-05-23 07:52:48</time>
      </trkpt>
      <trkpt lat="42.21512" lon="0.95368">
        <ele>610.4</ele>
        <time>2022-05-23 07:52:49</time>
      </trkpt>
      <trkpt lat="42.21507" lon="0.95364">
        <ele>610.4</ele>
        <time>2022-05-23 07:52:50</time>
      </trkpt>
      <trkpt lat="42.21503" lon="0.95359">
        <ele>610.4</ele>
        <time>2022-05-23 07:52:51</time>
      </trkpt>
      <trkpt lat="42.21498" lon="0.95354">
        <ele>610.4</ele>
        <time>2022-05-23 07:52:52</time>
      </trkpt>
      <trkpt lat="42.21494" lon="0.9535">
        <ele>610.6</ele>
        <time>2022-05-23 07:52:53</time>
      </trkpt>
      <trkpt lat="42.2149" lon="0.95345">
        <ele>610.6</ele>
        <time>2022-05-23 07:52:54</time>
      </trkpt>
      <trkpt lat="42.21486" lon="0.95341">
        <ele>610.6</ele>
        <time>2022-05-23 07:52:55</time>
      </trkpt>
      <trkpt lat="42.21482" lon="0.95336">
        <ele>610.6</ele>
        <time>2022-05-23 07:52:56</time>
      </trkpt>
      <trkpt lat="42.21477" lon="0.95332">
        <ele>610.6</ele>
        <time>2022-05-23 07:52:57</time>
      </trkpt>
      <trkpt lat="42.21473" lon="0.95327">
        <ele>610.8</ele>
        <time>2022-05-23 07:52:58</time>
      </trkpt>
      <trkpt lat="42.21469" lon="0.95323">
        <ele>610.8</ele>
        <time>2022-05-23 07:52:59</time>
      </trkpt>
      <trkpt lat="42.21465" lon="0.95318">
        <ele>610.8</ele>
        <time>2022-05-23 07:53:00</time>
      </trkpt>
      <trkpt lat="42.21461" lon="0.95314">
        <ele>611</ele>
        <time>2022-05-23 07:53:01</time>
      </trkpt>
      <trkpt lat="42.21456" lon="0.9531">
        <ele>611</ele>
        <time>2022-05-23 07:53:02</time>
      </trkpt>
      <trkpt lat="42.21452" lon="0.95305">
        <ele>611</ele>
        <time>2022-05-23 07:53:03</time>
      </trkpt>
      <trkpt lat="42.21448" lon="0.95301">
        <ele>611</ele>
        <time>2022-05-23 07:53:04</time>
      </trkpt>
      <trkpt lat="42.21444" lon="0.95296">
        <ele>611</ele>
        <time>2022-05-23 07:53:05</time>
      </trkpt>
      <trkpt lat="42.2144" lon="0.95292">
        <ele>611.2</ele>
        <time>2022-05-23 07:53:06</time>
      </trkpt>
      <trkpt lat="42.21436" lon="0.95287">
        <ele>611.2</ele>
        <time>2022-05-23 07:53:07</time>
      </trkpt>
      <trkpt lat="42.21432" lon="0.95283">
        <ele>611.2</ele>
        <time>2022-05-23 07:53:08</time>
      </trkpt>
      <trkpt lat="42.21427" lon="0.95278">
        <ele>611.2</ele>
        <time>2022-05-23 07:53:09</time>
      </trkpt>
      <trkpt lat="42.21423" lon="0.95274">
        <ele>611.2</ele>
        <time>2022-05-23 07:53:10</time>
      </trkpt>
      <trkpt lat="42.21419" lon="0.95269">
        <ele>611.2</ele>
        <time>2022-05-23 07:53:11</time>
      </trkpt>
      <trkpt lat="42.21414" lon="0.95265">
        <ele>611.2</ele>
        <time>2022-05-23 07:53:12</time>
      </trkpt>
      <trkpt lat="42.2141" lon="0.9526">
        <ele>611.2</ele>
        <time>2022-05-23 07:53:13</time>
      </trkpt>
      <trkpt lat="42.21406" lon="0.95256">
        <ele>611</ele>
        <time>2022-05-23 07:53:14</time>
      </trkpt>
      <trkpt lat="42.21401" lon="0.95251">
        <ele>611.2</ele>
        <time>2022-05-23 07:53:15</time>
      </trkpt>
      <trkpt lat="42.21396" lon="0.95247">
        <ele>611</ele>
        <time>2022-05-23 07:53:16</time>
      </trkpt>
      <trkpt lat="42.21392" lon="0.95243">
        <ele>611</ele>
        <time>2022-05-23 07:53:17</time>
      </trkpt>
      <trkpt lat="42.21387" lon="0.95239">
        <ele>611</ele>
        <time>2022-05-23 07:53:18</time>
      </trkpt>
      <trkpt lat="42.21382" lon="0.95234">
        <ele>611</ele>
        <time>2022-05-23 07:53:19</time>
      </trkpt>
      <trkpt lat="42.21378" lon="0.9523">
        <ele>611.2</ele>
        <time>2022-05-23 07:53:20</time>
      </trkpt>
      <trkpt lat="42.21373" lon="0.95225">
        <ele>611.2</ele>
        <time>2022-05-23 07:53:21</time>
      </trkpt>
      <trkpt lat="42.21369" lon="0.9522">
        <ele>611</ele>
        <time>2022-05-23 07:53:22</time>
      </trkpt>
      <trkpt lat="42.21364" lon="0.95215">
        <ele>611</ele>
        <time>2022-05-23 07:53:23</time>
      </trkpt>
      <trkpt lat="42.21359" lon="0.95211">
        <ele>610.8</ele>
        <time>2022-05-23 07:53:24</time>
      </trkpt>
      <trkpt lat="42.21354" lon="0.95206">
        <ele>610.8</ele>
        <time>2022-05-23 07:53:25</time>
      </trkpt>
      <trkpt lat="42.21349" lon="0.95201">
        <ele>610.6</ele>
        <time>2022-05-23 07:53:26</time>
      </trkpt>
      <trkpt lat="42.21344" lon="0.95195">
        <ele>610.6</ele>
        <time>2022-05-23 07:53:27</time>
      </trkpt>
      <trkpt lat="42.21339" lon="0.9519">
        <ele>610.6</ele>
        <time>2022-05-23 07:53:28</time>
      </trkpt>
      <trkpt lat="42.21334" lon="0.95184">
        <ele>610.4</ele>
        <time>2022-05-23 07:53:29</time>
      </trkpt>
      <trkpt lat="42.21329" lon="0.95179">
        <ele>610.4</ele>
        <time>2022-05-23 07:53:30</time>
      </trkpt>
      <trkpt lat="42.21324" lon="0.95173">
        <ele>610.2</ele>
        <time>2022-05-23 07:53:31</time>
      </trkpt>
      <trkpt lat="42.21319" lon="0.95168">
        <ele>610</ele>
        <time>2022-05-23 07:53:32</time>
      </trkpt>
      <trkpt lat="42.21314" lon="0.95162">
        <ele>610</ele>
        <time>2022-05-23 07:53:33</time>
      </trkpt>
      <trkpt lat="42.21308" lon="0.95156">
        <ele>609.8</ele>
        <time>2022-05-23 07:53:34</time>
      </trkpt>
      <trkpt lat="42.21303" lon="0.95149">
        <ele>609.6</ele>
        <time>2022-05-23 07:53:35</time>
      </trkpt>
      <trkpt lat="42.21298" lon="0.95143">
        <ele>609.4</ele>
        <time>2022-05-23 07:53:36</time>
      </trkpt>
      <trkpt lat="42.21293" lon="0.95136">
        <ele>609.4</ele>
        <time>2022-05-23 07:53:37</time>
      </trkpt>
      <trkpt lat="42.21288" lon="0.9513">
        <ele>609.2</ele>
        <time>2022-05-23 07:53:38</time>
      </trkpt>
      <trkpt lat="42.21283" lon="0.95123">
        <ele>609</ele>
        <time>2022-05-23 07:53:39</time>
      </trkpt>
      <trkpt lat="42.21278" lon="0.95116">
        <ele>609</ele>
        <time>2022-05-23 07:53:40</time>
      </trkpt>
      <trkpt lat="42.21274" lon="0.95109">
        <ele>608.8</ele>
        <time>2022-05-23 07:53:41</time>
      </trkpt>
      <trkpt lat="42.21269" lon="0.95102">
        <ele>608.8</ele>
        <time>2022-05-23 07:53:42</time>
      </trkpt>
      <trkpt lat="42.21264" lon="0.95094">
        <ele>608.6</ele>
        <time>2022-05-23 07:53:43</time>
      </trkpt>
      <trkpt lat="42.2126" lon="0.95087">
        <ele>608.6</ele>
        <time>2022-05-23 07:53:44</time>
      </trkpt>
      <trkpt lat="42.21256" lon="0.9508">
        <ele>608.6</ele>
        <time>2022-05-23 07:53:45</time>
      </trkpt>
      <trkpt lat="42.21252" lon="0.95073">
        <ele>608.4</ele>
        <time>2022-05-23 07:53:46</time>
      </trkpt>
      <trkpt lat="42.21248" lon="0.95065">
        <ele>608.4</ele>
        <time>2022-05-23 07:53:47</time>
      </trkpt>
      <trkpt lat="42.21245" lon="0.95058">
        <ele>608.4</ele>
        <time>2022-05-23 07:53:48</time>
      </trkpt>
      <trkpt lat="42.21241" lon="0.95051">
        <ele>608.4</ele>
        <time>2022-05-23 07:53:49</time>
      </trkpt>
      <trkpt lat="42.21238" lon="0.95043">
        <ele>608.6</ele>
        <time>2022-05-23 07:53:50</time>
      </trkpt>
      <trkpt lat="42.21234" lon="0.95036">
        <ele>608.6</ele>
        <time>2022-05-23 07:53:51</time>
      </trkpt>
      <trkpt lat="42.21231" lon="0.95029">
        <ele>608.6</ele>
        <time>2022-05-23 07:53:52</time>
      </trkpt>
      <trkpt lat="42.21228" lon="0.95022">
        <ele>608.8</ele>
        <time>2022-05-23 07:53:53</time>
      </trkpt>
      <trkpt lat="42.21225" lon="0.95015">
        <ele>608.8</ele>
        <time>2022-05-23 07:53:54</time>
      </trkpt>
      <trkpt lat="42.21223" lon="0.95009">
        <ele>609</ele>
        <time>2022-05-23 07:53:55</time>
      </trkpt>
      <trkpt lat="42.2122" lon="0.95002">
        <ele>609</ele>
        <time>2022-05-23 07:53:56</time>
      </trkpt>
      <trkpt lat="42.21217" lon="0.94995">
        <ele>609.2</ele>
        <time>2022-05-23 07:53:57</time>
      </trkpt>
      <trkpt lat="42.21214" lon="0.94989">
        <ele>609.2</ele>
        <time>2022-05-23 07:53:58</time>
      </trkpt>
      <trkpt lat="42.21212" lon="0.94983">
        <ele>609.4</ele>
        <time>2022-05-23 07:53:59</time>
      </trkpt>
      <trkpt lat="42.21209" lon="0.94977">
        <ele>609.6</ele>
        <time>2022-05-23 07:54:00</time>
      </trkpt>
      <trkpt lat="42.21206" lon="0.94971">
        <ele>609.6</ele>
        <time>2022-05-23 07:54:01</time>
      </trkpt>
      <trkpt lat="42.21203" lon="0.94965">
        <ele>609.8</ele>
        <time>2022-05-23 07:54:02</time>
      </trkpt>
      <trkpt lat="42.212" lon="0.94959">
        <ele>609.8</ele>
        <time>2022-05-23 07:54:03</time>
      </trkpt>
      <trkpt lat="42.21198" lon="0.94953">
        <ele>610</ele>
        <time>2022-05-23 07:54:04</time>
      </trkpt>
      <trkpt lat="42.21195" lon="0.94946">
        <ele>610</ele>
        <time>2022-05-23 07:54:05</time>
      </trkpt>
      <trkpt lat="42.21193" lon="0.9494">
        <ele>610.2</ele>
        <time>2022-05-23 07:54:06</time>
      </trkpt>
      <trkpt lat="42.21191" lon="0.94934">
        <ele>610.2</ele>
        <time>2022-05-23 07:54:07</time>
      </trkpt>
      <trkpt lat="42.21188" lon="0.94928">
        <ele>610.4</ele>
        <time>2022-05-23 07:54:08</time>
      </trkpt>
      <trkpt lat="42.21186" lon="0.94922">
        <ele>610.4</ele>
        <time>2022-05-23 07:54:09</time>
      </trkpt>
      <trkpt lat="42.21183" lon="0.94916">
        <ele>610.6</ele>
        <time>2022-05-23 07:54:10</time>
      </trkpt>
      <trkpt lat="42.2118" lon="0.94909">
        <ele>610.6</ele>
        <time>2022-05-23 07:54:11</time>
      </trkpt>
      <trkpt lat="42.21178" lon="0.94903">
        <ele>610.8</ele>
        <time>2022-05-23 07:54:12</time>
      </trkpt>
      <trkpt lat="42.21175" lon="0.94896">
        <ele>610.8</ele>
        <time>2022-05-23 07:54:13</time>
      </trkpt>
      <trkpt lat="42.21172" lon="0.9489">
        <ele>611</ele>
        <time>2022-05-23 07:54:14</time>
      </trkpt>
      <trkpt lat="42.2117" lon="0.94884">
        <ele>611</ele>
        <time>2022-05-23 07:54:15</time>
      </trkpt>
      <trkpt lat="42.21167" lon="0.94878">
        <ele>611.2</ele>
        <time>2022-05-23 07:54:16</time>
      </trkpt>
      <trkpt lat="42.21165" lon="0.94872">
        <ele>611.2</ele>
        <time>2022-05-23 07:54:17</time>
      </trkpt>
      <trkpt lat="42.21162" lon="0.94865">
        <ele>611.4</ele>
        <time>2022-05-23 07:54:18</time>
      </trkpt>
      <trkpt lat="42.21159" lon="0.94859">
        <ele>611.6</ele>
        <time>2022-05-23 07:54:19</time>
      </trkpt>
      <trkpt lat="42.21156" lon="0.94853">
        <ele>611.8</ele>
        <time>2022-05-23 07:54:20</time>
      </trkpt>
      <trkpt lat="42.21154" lon="0.94846">
        <ele>612</ele>
        <time>2022-05-23 07:54:21</time>
      </trkpt>
      <trkpt lat="42.2115" lon="0.9484">
        <ele>612</ele>
        <time>2022-05-23 07:54:22</time>
      </trkpt>
      <trkpt lat="42.21148" lon="0.94834">
        <ele>612.2</ele>
        <time>2022-05-23 07:54:23</time>
      </trkpt>
      <trkpt lat="42.21145" lon="0.94827">
        <ele>612.4</ele>
        <time>2022-05-23 07:54:24</time>
      </trkpt>
      <trkpt lat="42.21143" lon="0.94821">
        <ele>612.4</ele>
        <time>2022-05-23 07:54:25</time>
      </trkpt>
      <trkpt lat="42.2114" lon="0.94815">
        <ele>612.6</ele>
        <time>2022-05-23 07:54:26</time>
      </trkpt>
      <trkpt lat="42.21138" lon="0.94808">
        <ele>612.6</ele>
        <time>2022-05-23 07:54:27</time>
      </trkpt>
      <trkpt lat="42.21135" lon="0.94802">
        <ele>612.8</ele>
        <time>2022-05-23 07:54:28</time>
      </trkpt>
      <trkpt lat="42.21133" lon="0.94796">
        <ele>613</ele>
        <time>2022-05-23 07:54:29</time>
      </trkpt>
      <trkpt lat="42.2113" lon="0.9479">
        <ele>613</ele>
        <time>2022-05-23 07:54:30</time>
      </trkpt>
      <trkpt lat="42.21128" lon="0.94783">
        <ele>613.2</ele>
        <time>2022-05-23 07:54:31</time>
      </trkpt>
      <trkpt lat="42.21125" lon="0.94777">
        <ele>613.2</ele>
        <time>2022-05-23 07:54:32</time>
      </trkpt>
      <trkpt lat="42.21123" lon="0.94771">
        <ele>613.4</ele>
        <time>2022-05-23 07:54:33</time>
      </trkpt>
      <trkpt lat="42.2112" lon="0.94765">
        <ele>613.4</ele>
        <time>2022-05-23 07:54:34</time>
      </trkpt>
      <trkpt lat="42.21118" lon="0.94759">
        <ele>613.6</ele>
        <time>2022-05-23 07:54:35</time>
      </trkpt>
      <trkpt lat="42.21115" lon="0.94753">
        <ele>613.8</ele>
        <time>2022-05-23 07:54:36</time>
      </trkpt>
      <trkpt lat="42.21113" lon="0.94747">
        <ele>613.8</ele>
        <time>2022-05-23 07:54:37</time>
      </trkpt>
      <trkpt lat="42.2111" lon="0.94741">
        <ele>614</ele>
        <time>2022-05-23 07:54:38</time>
      </trkpt>
      <trkpt lat="42.21107" lon="0.94735">
        <ele>614</ele>
        <time>2022-05-23 07:54:39</time>
      </trkpt>
      <trkpt lat="42.21105" lon="0.94729">
        <ele>614</ele>
        <time>2022-05-23 07:54:40</time>
      </trkpt>
      <trkpt lat="42.21102" lon="0.94724">
        <ele>614.2</ele>
        <time>2022-05-23 07:54:41</time>
      </trkpt>
      <trkpt lat="42.211" lon="0.94718">
        <ele>614.2</ele>
        <time>2022-05-23 07:54:42</time>
      </trkpt>
      <trkpt lat="42.21097" lon="0.94712">
        <ele>614.2</ele>
        <time>2022-05-23 07:54:43</time>
      </trkpt>
      <trkpt lat="42.21095" lon="0.94706">
        <ele>614.4</ele>
        <time>2022-05-23 07:54:44</time>
      </trkpt>
      <trkpt lat="42.21092" lon="0.947">
        <ele>614.4</ele>
        <time>2022-05-23 07:54:45</time>
      </trkpt>
      <trkpt lat="42.21089" lon="0.94694">
        <ele>614.4</ele>
        <time>2022-05-23 07:54:46</time>
      </trkpt>
      <trkpt lat="42.21087" lon="0.94688">
        <ele>614.6</ele>
        <time>2022-05-23 07:54:47</time>
      </trkpt>
      <trkpt lat="42.21085" lon="0.94682">
        <ele>614.6</ele>
        <time>2022-05-23 07:54:48</time>
      </trkpt>
      <trkpt lat="42.21082" lon="0.94675">
        <ele>614.6</ele>
        <time>2022-05-23 07:54:49</time>
      </trkpt>
      <trkpt lat="42.21079" lon="0.94669">
        <ele>614.6</ele>
        <time>2022-05-23 07:54:50</time>
      </trkpt>
      <trkpt lat="42.21076" lon="0.94663">
        <ele>614.6</ele>
        <time>2022-05-23 07:54:51</time>
      </trkpt>
      <trkpt lat="42.21073" lon="0.94657">
        <ele>614.6</ele>
        <time>2022-05-23 07:54:52</time>
      </trkpt>
      <trkpt lat="42.21071" lon="0.94651">
        <ele>614.6</ele>
        <time>2022-05-23 07:54:53</time>
      </trkpt>
      <trkpt lat="42.2107" lon="0.94648">
        <ele>614.6</ele>
        <time>2022-05-23 07:54:54</time>
      </trkpt>
      <trkpt lat="42.21068" lon="0.94644">
        <ele>614.6</ele>
        <time>2022-05-23 07:54:55</time>
      </trkpt>
      <trkpt lat="42.21062" lon="0.94632">
        <ele>614.6</ele>
        <time>2022-05-23 07:54:56</time>
      </trkpt>
      <trkpt lat="42.2106" lon="0.94625">
        <ele>614.6</ele>
        <time>2022-05-23 07:54:57</time>
      </trkpt>
      <trkpt lat="42.21057" lon="0.94618">
        <ele>614.6</ele>
        <time>2022-05-23 07:54:58</time>
      </trkpt>
      <trkpt lat="42.21054" lon="0.94612">
        <ele>614.6</ele>
        <time>2022-05-23 07:54:59</time>
      </trkpt>
      <trkpt lat="42.21051" lon="0.94605">
        <ele>614.6</ele>
        <time>2022-05-23 07:55:00</time>
      </trkpt>
      <trkpt lat="42.21048" lon="0.94598">
        <ele>614.6</ele>
        <time>2022-05-23 07:55:01</time>
      </trkpt>
      <trkpt lat="42.21046" lon="0.94591">
        <ele>614.6</ele>
        <time>2022-05-23 07:55:02</time>
      </trkpt>
      <trkpt lat="42.21043" lon="0.94584">
        <ele>614.4</ele>
        <time>2022-05-23 07:55:03</time>
      </trkpt>
      <trkpt lat="42.2104" lon="0.94577">
        <ele>614.4</ele>
        <time>2022-05-23 07:55:04</time>
      </trkpt>
      <trkpt lat="42.21038" lon="0.94569">
        <ele>614.4</ele>
        <time>2022-05-23 07:55:05</time>
      </trkpt>
      <trkpt lat="42.21035" lon="0.94562">
        <ele>614.4</ele>
        <time>2022-05-23 07:55:06</time>
      </trkpt>
      <trkpt lat="42.21032" lon="0.94555">
        <ele>614.2</ele>
        <time>2022-05-23 07:55:07</time>
      </trkpt>
      <trkpt lat="42.2103" lon="0.94547">
        <ele>614.2</ele>
        <time>2022-05-23 07:55:08</time>
      </trkpt>
      <trkpt lat="42.21027" lon="0.9454">
        <ele>614.2</ele>
        <time>2022-05-23 07:55:09</time>
      </trkpt>
      <trkpt lat="42.21024" lon="0.94532">
        <ele>614</ele>
        <time>2022-05-23 07:55:10</time>
      </trkpt>
      <trkpt lat="42.21021" lon="0.94524">
        <ele>614</ele>
        <time>2022-05-23 07:55:11</time>
      </trkpt>
      <trkpt lat="42.21018" lon="0.94516">
        <ele>614</ele>
        <time>2022-05-23 07:55:12</time>
      </trkpt>
      <trkpt lat="42.21015" lon="0.94509">
        <ele>613.8</ele>
        <time>2022-05-23 07:55:13</time>
      </trkpt>
      <trkpt lat="42.21012" lon="0.94501">
        <ele>613.8</ele>
        <time>2022-05-23 07:55:14</time>
      </trkpt>
      <trkpt lat="42.2101" lon="0.94493">
        <ele>613.8</ele>
        <time>2022-05-23 07:55:15</time>
      </trkpt>
      <trkpt lat="42.21007" lon="0.94485">
        <ele>613.6</ele>
        <time>2022-05-23 07:55:16</time>
      </trkpt>
      <trkpt lat="42.21006" lon="0.94477">
        <ele>613.6</ele>
        <time>2022-05-23 07:55:17</time>
      </trkpt>
      <trkpt lat="42.21003" lon="0.94469">
        <ele>613.6</ele>
        <time>2022-05-23 07:55:18</time>
      </trkpt>
      <trkpt lat="42.21002" lon="0.94461">
        <ele>613.6</ele>
        <time>2022-05-23 07:55:19</time>
      </trkpt>
      <trkpt lat="42.21" lon="0.94452">
        <ele>613.6</ele>
        <time>2022-05-23 07:55:20</time>
      </trkpt>
      <trkpt lat="42.20999" lon="0.94444">
        <ele>613.4</ele>
        <time>2022-05-23 07:55:21</time>
      </trkpt>
      <trkpt lat="42.20998" lon="0.94436">
        <ele>613.6</ele>
        <time>2022-05-23 07:55:22</time>
      </trkpt>
      <trkpt lat="42.20996" lon="0.94427">
        <ele>613.6</ele>
        <time>2022-05-23 07:55:23</time>
      </trkpt>
      <trkpt lat="42.20995" lon="0.94419">
        <ele>613.6</ele>
        <time>2022-05-23 07:55:24</time>
      </trkpt>
      <trkpt lat="42.20994" lon="0.9441">
        <ele>613.6</ele>
        <time>2022-05-23 07:55:25</time>
      </trkpt>
      <trkpt lat="42.20993" lon="0.94402">
        <ele>613.6</ele>
        <time>2022-05-23 07:55:26</time>
      </trkpt>
      <trkpt lat="42.20992" lon="0.94393">
        <ele>613.6</ele>
        <time>2022-05-23 07:55:27</time>
      </trkpt>
      <trkpt lat="42.20991" lon="0.94385">
        <ele>613.6</ele>
        <time>2022-05-23 07:55:28</time>
      </trkpt>
      <trkpt lat="42.20991" lon="0.94377">
        <ele>613.4</ele>
        <time>2022-05-23 07:55:29</time>
      </trkpt>
      <trkpt lat="42.2099" lon="0.94369">
        <ele>613.6</ele>
        <time>2022-05-23 07:55:30</time>
      </trkpt>
      <trkpt lat="42.2099" lon="0.94361">
        <ele>613.4</ele>
        <time>2022-05-23 07:55:31</time>
      </trkpt>
      <trkpt lat="42.20989" lon="0.94353">
        <ele>613.4</ele>
        <time>2022-05-23 07:55:32</time>
      </trkpt>
      <trkpt lat="42.20988" lon="0.94344">
        <ele>613.4</ele>
        <time>2022-05-23 07:55:33</time>
      </trkpt>
      <trkpt lat="42.20987" lon="0.94337">
        <ele>613.4</ele>
        <time>2022-05-23 07:55:34</time>
      </trkpt>
      <trkpt lat="42.20987" lon="0.94328">
        <ele>613.4</ele>
        <time>2022-05-23 07:55:35</time>
      </trkpt>
      <trkpt lat="42.20986" lon="0.9432">
        <ele>613.4</ele>
        <time>2022-05-23 07:55:36</time>
      </trkpt>
      <trkpt lat="42.20985" lon="0.94312">
        <ele>613.4</ele>
        <time>2022-05-23 07:55:37</time>
      </trkpt>
      <trkpt lat="42.20983" lon="0.94304">
        <ele>613.4</ele>
        <time>2022-05-23 07:55:38</time>
      </trkpt>
      <trkpt lat="42.20983" lon="0.94296">
        <ele>613.4</ele>
        <time>2022-05-23 07:55:39</time>
      </trkpt>
      <trkpt lat="42.20982" lon="0.94287">
        <ele>613.4</ele>
        <time>2022-05-23 07:55:40</time>
      </trkpt>
      <trkpt lat="42.2098" lon="0.94279">
        <ele>613.2</ele>
        <time>2022-05-23 07:55:41</time>
      </trkpt>
      <trkpt lat="42.20979" lon="0.94271">
        <ele>613.2</ele>
        <time>2022-05-23 07:55:42</time>
      </trkpt>
      <trkpt lat="42.20977" lon="0.94262">
        <ele>613</ele>
        <time>2022-05-23 07:55:43</time>
      </trkpt>
      <trkpt lat="42.20975" lon="0.94254">
        <ele>613</ele>
        <time>2022-05-23 07:55:44</time>
      </trkpt>
      <trkpt lat="42.20974" lon="0.94246">
        <ele>613</ele>
        <time>2022-05-23 07:55:45</time>
      </trkpt>
      <trkpt lat="42.20972" lon="0.94238">
        <ele>612.8</ele>
        <time>2022-05-23 07:55:46</time>
      </trkpt>
      <trkpt lat="42.20969" lon="0.94229">
        <ele>612.8</ele>
        <time>2022-05-23 07:55:47</time>
      </trkpt>
      <trkpt lat="42.20967" lon="0.94221">
        <ele>612.8</ele>
        <time>2022-05-23 07:55:48</time>
      </trkpt>
      <trkpt lat="42.20965" lon="0.94213">
        <ele>612.8</ele>
        <time>2022-05-23 07:55:49</time>
      </trkpt>
      <trkpt lat="42.20963" lon="0.94205">
        <ele>612.6</ele>
        <time>2022-05-23 07:55:50</time>
      </trkpt>
      <trkpt lat="42.20961" lon="0.94196">
        <ele>612.6</ele>
        <time>2022-05-23 07:55:51</time>
      </trkpt>
      <trkpt lat="42.20959" lon="0.94188">
        <ele>612.6</ele>
        <time>2022-05-23 07:55:52</time>
      </trkpt>
      <trkpt lat="42.20957" lon="0.9418">
        <ele>612.6</ele>
        <time>2022-05-23 07:55:53</time>
      </trkpt>
      <trkpt lat="42.20955" lon="0.94172">
        <ele>612.6</ele>
        <time>2022-05-23 07:55:54</time>
      </trkpt>
      <trkpt lat="42.20954" lon="0.94164">
        <ele>612.6</ele>
        <time>2022-05-23 07:55:55</time>
      </trkpt>
      <trkpt lat="42.20952" lon="0.94156">
        <ele>612.6</ele>
        <time>2022-05-23 07:55:56</time>
      </trkpt>
      <trkpt lat="42.2095" lon="0.94148">
        <ele>612.6</ele>
        <time>2022-05-23 07:55:57</time>
      </trkpt>
      <trkpt lat="42.20948" lon="0.94141">
        <ele>612.8</ele>
        <time>2022-05-23 07:55:58</time>
      </trkpt>
      <trkpt lat="42.20947" lon="0.94134">
        <ele>612.8</ele>
        <time>2022-05-23 07:55:59</time>
      </trkpt>
      <trkpt lat="42.20945" lon="0.94126">
        <ele>612.8</ele>
        <time>2022-05-23 07:56:00</time>
      </trkpt>
      <trkpt lat="42.20943" lon="0.94119">
        <ele>613</ele>
        <time>2022-05-23 07:56:01</time>
      </trkpt>
      <trkpt lat="42.20941" lon="0.94112">
        <ele>613</ele>
        <time>2022-05-23 07:56:02</time>
      </trkpt>
      <trkpt lat="42.2094" lon="0.94105">
        <ele>613.2</ele>
        <time>2022-05-23 07:56:03</time>
      </trkpt>
      <trkpt lat="42.20938" lon="0.94098">
        <ele>613.2</ele>
        <time>2022-05-23 07:56:04</time>
      </trkpt>
      <trkpt lat="42.20937" lon="0.94091">
        <ele>613.4</ele>
        <time>2022-05-23 07:56:05</time>
      </trkpt>
      <trkpt lat="42.20935" lon="0.94084">
        <ele>613.4</ele>
        <time>2022-05-23 07:56:06</time>
      </trkpt>
      <trkpt lat="42.20933" lon="0.94078">
        <ele>613.4</ele>
        <time>2022-05-23 07:56:07</time>
      </trkpt>
      <trkpt lat="42.20932" lon="0.94071">
        <ele>613.4</ele>
        <time>2022-05-23 07:56:08</time>
      </trkpt>
      <trkpt lat="42.2093" lon="0.94065">
        <ele>613.6</ele>
        <time>2022-05-23 07:56:09</time>
      </trkpt>
      <trkpt lat="42.20928" lon="0.94059">
        <ele>613.6</ele>
        <time>2022-05-23 07:56:10</time>
      </trkpt>
      <trkpt lat="42.20927" lon="0.94052">
        <ele>613.8</ele>
        <time>2022-05-23 07:56:11</time>
      </trkpt>
      <trkpt lat="42.20925" lon="0.94046">
        <ele>613.8</ele>
        <time>2022-05-23 07:56:12</time>
      </trkpt>
      <trkpt lat="42.20923" lon="0.94039">
        <ele>613.8</ele>
        <time>2022-05-23 07:56:13</time>
      </trkpt>
      <trkpt lat="42.20921" lon="0.94033">
        <ele>613.8</ele>
        <time>2022-05-23 07:56:14</time>
      </trkpt>
      <trkpt lat="42.20919" lon="0.94027">
        <ele>613.8</ele>
        <time>2022-05-23 07:56:15</time>
      </trkpt>
      <trkpt lat="42.20916" lon="0.94021">
        <ele>613.8</ele>
        <time>2022-05-23 07:56:16</time>
      </trkpt>
      <trkpt lat="42.20914" lon="0.94015">
        <ele>614</ele>
        <time>2022-05-23 07:56:17</time>
      </trkpt>
      <trkpt lat="42.20912" lon="0.94008">
        <ele>614</ele>
        <time>2022-05-23 07:56:18</time>
      </trkpt>
      <trkpt lat="42.20909" lon="0.94002">
        <ele>614</ele>
        <time>2022-05-23 07:56:19</time>
      </trkpt>
      <trkpt lat="42.20907" lon="0.93996">
        <ele>614</ele>
        <time>2022-05-23 07:56:20</time>
      </trkpt>
      <trkpt lat="42.20904" lon="0.9399">
        <ele>614</ele>
        <time>2022-05-23 07:56:21</time>
      </trkpt>
      <trkpt lat="42.20902" lon="0.93984">
        <ele>614</ele>
        <time>2022-05-23 07:56:22</time>
      </trkpt>
      <trkpt lat="42.20899" lon="0.93978">
        <ele>614</ele>
        <time>2022-05-23 07:56:23</time>
      </trkpt>
      <trkpt lat="42.20896" lon="0.93972">
        <ele>613.8</ele>
        <time>2022-05-23 07:56:24</time>
      </trkpt>
      <trkpt lat="42.20893" lon="0.93966">
        <ele>613.8</ele>
        <time>2022-05-23 07:56:25</time>
      </trkpt>
      <trkpt lat="42.2089" lon="0.9396">
        <ele>613.8</ele>
        <time>2022-05-23 07:56:26</time>
      </trkpt>
      <trkpt lat="42.20887" lon="0.93955">
        <ele>613.8</ele>
        <time>2022-05-23 07:56:27</time>
      </trkpt>
      <trkpt lat="42.20883" lon="0.93949">
        <ele>613.8</ele>
        <time>2022-05-23 07:56:28</time>
      </trkpt>
      <trkpt lat="42.2088" lon="0.93943">
        <ele>613.6</ele>
        <time>2022-05-23 07:56:29</time>
      </trkpt>
      <trkpt lat="42.20876" lon="0.93937">
        <ele>613.6</ele>
        <time>2022-05-23 07:56:30</time>
      </trkpt>
      <trkpt lat="42.20873" lon="0.93932">
        <ele>613.6</ele>
        <time>2022-05-23 07:56:31</time>
      </trkpt>
      <trkpt lat="42.20869" lon="0.93926">
        <ele>613.4</ele>
        <time>2022-05-23 07:56:32</time>
      </trkpt>
      <trkpt lat="42.20865" lon="0.93921">
        <ele>613.4</ele>
        <time>2022-05-23 07:56:33</time>
      </trkpt>
      <trkpt lat="42.20861" lon="0.93915">
        <ele>613.2</ele>
        <time>2022-05-23 07:56:34</time>
      </trkpt>
      <trkpt lat="42.20857" lon="0.9391">
        <ele>613.2</ele>
        <time>2022-05-23 07:56:35</time>
      </trkpt>
      <trkpt lat="42.20853" lon="0.93905">
        <ele>613</ele>
        <time>2022-05-23 07:56:36</time>
      </trkpt>
      <trkpt lat="42.20849" lon="0.939">
        <ele>613</ele>
        <time>2022-05-23 07:56:37</time>
      </trkpt>
      <trkpt lat="42.20844" lon="0.93895">
        <ele>612.8</ele>
        <time>2022-05-23 07:56:38</time>
      </trkpt>
      <trkpt lat="42.20839" lon="0.9389">
        <ele>612.6</ele>
        <time>2022-05-23 07:56:39</time>
      </trkpt>
      <trkpt lat="42.20835" lon="0.93885">
        <ele>612.6</ele>
        <time>2022-05-23 07:56:40</time>
      </trkpt>
      <trkpt lat="42.2083" lon="0.9388">
        <ele>612.4</ele>
        <time>2022-05-23 07:56:41</time>
      </trkpt>
      <trkpt lat="42.20825" lon="0.93876">
        <ele>612.2</ele>
        <time>2022-05-23 07:56:42</time>
      </trkpt>
      <trkpt lat="42.2082" lon="0.93871">
        <ele>612</ele>
        <time>2022-05-23 07:56:43</time>
      </trkpt>
      <trkpt lat="42.20815" lon="0.93866">
        <ele>612</ele>
        <time>2022-05-23 07:56:44</time>
      </trkpt>
      <trkpt lat="42.2081" lon="0.93862">
        <ele>611.8</ele>
        <time>2022-05-23 07:56:45</time>
      </trkpt>
      <trkpt lat="42.20804" lon="0.93858">
        <ele>611.6</ele>
        <time>2022-05-23 07:56:46</time>
      </trkpt>
      <trkpt lat="42.20799" lon="0.93854">
        <ele>611.6</ele>
        <time>2022-05-23 07:56:47</time>
      </trkpt>
      <trkpt lat="42.20793" lon="0.9385">
        <ele>611.4</ele>
        <time>2022-05-23 07:56:48</time>
      </trkpt>
      <trkpt lat="42.20787" lon="0.93846">
        <ele>611.4</ele>
        <time>2022-05-23 07:56:49</time>
      </trkpt>
      <trkpt lat="42.20781" lon="0.93842">
        <ele>611.4</ele>
        <time>2022-05-23 07:56:50</time>
      </trkpt>
      <trkpt lat="42.20775" lon="0.93838">
        <ele>611.4</ele>
        <time>2022-05-23 07:56:51</time>
      </trkpt>
      <trkpt lat="42.20769" lon="0.93835">
        <ele>611.2</ele>
        <time>2022-05-23 07:56:52</time>
      </trkpt>
      <trkpt lat="42.20763" lon="0.93831">
        <ele>611</ele>
        <time>2022-05-23 07:56:53</time>
      </trkpt>
      <trkpt lat="42.20757" lon="0.93828">
        <ele>611</ele>
        <time>2022-05-23 07:56:54</time>
      </trkpt>
      <trkpt lat="42.2075" lon="0.93824">
        <ele>610.8</ele>
        <time>2022-05-23 07:56:55</time>
      </trkpt>
      <trkpt lat="42.20744" lon="0.93821">
        <ele>610.4</ele>
        <time>2022-05-23 07:56:56</time>
      </trkpt>
      <trkpt lat="42.20738" lon="0.93818">
        <ele>610.2</ele>
        <time>2022-05-23 07:56:57</time>
      </trkpt>
      <trkpt lat="42.20731" lon="0.93815">
        <ele>610</ele>
        <time>2022-05-23 07:56:58</time>
      </trkpt>
      <trkpt lat="42.20724" lon="0.93812">
        <ele>609.8</ele>
        <time>2022-05-23 07:56:59</time>
      </trkpt>
      <trkpt lat="42.20718" lon="0.93809">
        <ele>609.8</ele>
        <time>2022-05-23 07:57:00</time>
      </trkpt>
      <trkpt lat="42.20711" lon="0.93807">
        <ele>609.6</ele>
        <time>2022-05-23 07:57:01</time>
      </trkpt>
      <trkpt lat="42.20704" lon="0.93804">
        <ele>609.4</ele>
        <time>2022-05-23 07:57:02</time>
      </trkpt>
      <trkpt lat="42.20697" lon="0.93801">
        <ele>609.2</ele>
        <time>2022-05-23 07:57:03</time>
      </trkpt>
      <trkpt lat="42.2069" lon="0.93798">
        <ele>609</ele>
        <time>2022-05-23 07:57:04</time>
      </trkpt>
      <trkpt lat="42.20683" lon="0.93795">
        <ele>608.8</ele>
        <time>2022-05-23 07:57:05</time>
      </trkpt>
      <trkpt lat="42.20676" lon="0.93792">
        <ele>608.6</ele>
        <time>2022-05-23 07:57:06</time>
      </trkpt>
      <trkpt lat="42.20669" lon="0.93789">
        <ele>608.4</ele>
        <time>2022-05-23 07:57:07</time>
      </trkpt>
      <trkpt lat="42.20662" lon="0.93786">
        <ele>608.2</ele>
        <time>2022-05-23 07:57:08</time>
      </trkpt>
      <trkpt lat="42.20656" lon="0.93783">
        <ele>608</ele>
        <time>2022-05-23 07:57:09</time>
      </trkpt>
      <trkpt lat="42.20648" lon="0.9378">
        <ele>607.8</ele>
        <time>2022-05-23 07:57:10</time>
      </trkpt>
      <trkpt lat="42.20641" lon="0.93777">
        <ele>607.6</ele>
        <time>2022-05-23 07:57:11</time>
      </trkpt>
      <trkpt lat="42.20635" lon="0.93774">
        <ele>607.4</ele>
        <time>2022-05-23 07:57:12</time>
      </trkpt>
      <trkpt lat="42.20627" lon="0.93771">
        <ele>607.2</ele>
        <time>2022-05-23 07:57:13</time>
      </trkpt>
      <trkpt lat="42.2062" lon="0.93768">
        <ele>607</ele>
        <time>2022-05-23 07:57:14</time>
      </trkpt>
      <trkpt lat="42.20613" lon="0.93765">
        <ele>607</ele>
        <time>2022-05-23 07:57:15</time>
      </trkpt>
      <trkpt lat="42.20606" lon="0.93762">
        <ele>606.8</ele>
        <time>2022-05-23 07:57:16</time>
      </trkpt>
      <trkpt lat="42.20598" lon="0.93759">
        <ele>606.6</ele>
        <time>2022-05-23 07:57:17</time>
      </trkpt>
      <trkpt lat="42.20591" lon="0.93757">
        <ele>606.6</ele>
        <time>2022-05-23 07:57:18</time>
      </trkpt>
      <trkpt lat="42.20583" lon="0.93754">
        <ele>606.4</ele>
        <time>2022-05-23 07:57:19</time>
      </trkpt>
      <trkpt lat="42.20576" lon="0.93751">
        <ele>606.2</ele>
        <time>2022-05-23 07:57:20</time>
      </trkpt>
      <trkpt lat="42.20568" lon="0.93748">
        <ele>606</ele>
        <time>2022-05-23 07:57:21</time>
      </trkpt>
      <trkpt lat="42.20561" lon="0.93745">
        <ele>605.8</ele>
        <time>2022-05-23 07:57:22</time>
      </trkpt>
      <trkpt lat="42.20553" lon="0.93742">
        <ele>605.6</ele>
        <time>2022-05-23 07:57:23</time>
      </trkpt>
      <trkpt lat="42.20546" lon="0.93739">
        <ele>605.4</ele>
        <time>2022-05-23 07:57:24</time>
      </trkpt>
      <trkpt lat="42.20539" lon="0.93735">
        <ele>605.2</ele>
        <time>2022-05-23 07:57:25</time>
      </trkpt>
      <trkpt lat="42.20531" lon="0.93732">
        <ele>605</ele>
        <time>2022-05-23 07:57:26</time>
      </trkpt>
      <trkpt lat="42.20524" lon="0.93728">
        <ele>604.8</ele>
        <time>2022-05-23 07:57:27</time>
      </trkpt>
      <trkpt lat="42.20517" lon="0.93724">
        <ele>604.6</ele>
        <time>2022-05-23 07:57:28</time>
      </trkpt>
      <trkpt lat="42.2051" lon="0.9372">
        <ele>604.6</ele>
        <time>2022-05-23 07:57:29</time>
      </trkpt>
      <trkpt lat="42.20503" lon="0.93715">
        <ele>604.4</ele>
        <time>2022-05-23 07:57:30</time>
      </trkpt>
      <trkpt lat="42.20496" lon="0.9371">
        <ele>604.2</ele>
        <time>2022-05-23 07:57:31</time>
      </trkpt>
      <trkpt lat="42.20489" lon="0.93705">
        <ele>604.2</ele>
        <time>2022-05-23 07:57:32</time>
      </trkpt>
      <trkpt lat="42.20483" lon="0.937">
        <ele>604.2</ele>
        <time>2022-05-23 07:57:33</time>
      </trkpt>
      <trkpt lat="42.20476" lon="0.93694">
        <ele>604</ele>
        <time>2022-05-23 07:57:34</time>
      </trkpt>
      <trkpt lat="42.2047" lon="0.93689">
        <ele>604</ele>
        <time>2022-05-23 07:57:35</time>
      </trkpt>
      <trkpt lat="42.20464" lon="0.93684">
        <ele>604</ele>
        <time>2022-05-23 07:57:36</time>
      </trkpt>
      <trkpt lat="42.20458" lon="0.93679">
        <ele>604</ele>
        <time>2022-05-23 07:57:37</time>
      </trkpt>
      <trkpt lat="42.20451" lon="0.93674">
        <ele>604</ele>
        <time>2022-05-23 07:57:38</time>
      </trkpt>
      <trkpt lat="42.20446" lon="0.93669">
        <ele>604</ele>
        <time>2022-05-23 07:57:39</time>
      </trkpt>
      <trkpt lat="42.2044" lon="0.93663">
        <ele>604</ele>
        <time>2022-05-23 07:57:40</time>
      </trkpt>
      <trkpt lat="42.20434" lon="0.93658">
        <ele>604</ele>
        <time>2022-05-23 07:57:41</time>
      </trkpt>
      <trkpt lat="42.20429" lon="0.93653">
        <ele>604</ele>
        <time>2022-05-23 07:57:42</time>
      </trkpt>
      <trkpt lat="42.20423" lon="0.93648">
        <ele>604.2</ele>
        <time>2022-05-23 07:57:43</time>
      </trkpt>
      <trkpt lat="42.20418" lon="0.93643">
        <ele>604.2</ele>
        <time>2022-05-23 07:57:44</time>
      </trkpt>
      <trkpt lat="42.20412" lon="0.93638">
        <ele>604</ele>
        <time>2022-05-23 07:57:45</time>
      </trkpt>
      <trkpt lat="42.20407" lon="0.93632">
        <ele>604.2</ele>
        <time>2022-05-23 07:57:46</time>
      </trkpt>
      <trkpt lat="42.20402" lon="0.93628">
        <ele>604.2</ele>
        <time>2022-05-23 07:57:47</time>
      </trkpt>
      <trkpt lat="42.20396" lon="0.93623">
        <ele>604.2</ele>
        <time>2022-05-23 07:57:48</time>
      </trkpt>
      <trkpt lat="42.20391" lon="0.93618">
        <ele>604.2</ele>
        <time>2022-05-23 07:57:49</time>
      </trkpt>
      <trkpt lat="42.20386" lon="0.93613">
        <ele>604.2</ele>
        <time>2022-05-23 07:57:50</time>
      </trkpt>
      <trkpt lat="42.20381" lon="0.93608">
        <ele>604.2</ele>
        <time>2022-05-23 07:57:51</time>
      </trkpt>
      <trkpt lat="42.20376" lon="0.93604">
        <ele>604.2</ele>
        <time>2022-05-23 07:57:52</time>
      </trkpt>
      <trkpt lat="42.20371" lon="0.93599">
        <ele>604.2</ele>
        <time>2022-05-23 07:57:53</time>
      </trkpt>
      <trkpt lat="42.20366" lon="0.93595">
        <ele>604.2</ele>
        <time>2022-05-23 07:57:54</time>
      </trkpt>
      <trkpt lat="42.20361" lon="0.9359">
        <ele>604.2</ele>
        <time>2022-05-23 07:57:55</time>
      </trkpt>
      <trkpt lat="42.20357" lon="0.93586">
        <ele>604.2</ele>
        <time>2022-05-23 07:57:56</time>
      </trkpt>
      <trkpt lat="42.20352" lon="0.93582">
        <ele>604.2</ele>
        <time>2022-05-23 07:57:57</time>
      </trkpt>
      <trkpt lat="42.20347" lon="0.93577">
        <ele>604.4</ele>
        <time>2022-05-23 07:57:58</time>
      </trkpt>
      <trkpt lat="42.20343" lon="0.93573">
        <ele>604.4</ele>
        <time>2022-05-23 07:57:59</time>
      </trkpt>
      <trkpt lat="42.20338" lon="0.93569">
        <ele>604.4</ele>
        <time>2022-05-23 07:58:00</time>
      </trkpt>
      <trkpt lat="42.20334" lon="0.93565">
        <ele>604.4</ele>
        <time>2022-05-23 07:58:01</time>
      </trkpt>
      <trkpt lat="42.20329" lon="0.9356">
        <ele>604.4</ele>
        <time>2022-05-23 07:58:02</time>
      </trkpt>
      <trkpt lat="42.20325" lon="0.93556">
        <ele>604.6</ele>
        <time>2022-05-23 07:58:03</time>
      </trkpt>
      <trkpt lat="42.20321" lon="0.93552">
        <ele>604.6</ele>
        <time>2022-05-23 07:58:04</time>
      </trkpt>
      <trkpt lat="42.20316" lon="0.93548">
        <ele>604.6</ele>
        <time>2022-05-23 07:58:05</time>
      </trkpt>
      <trkpt lat="42.20312" lon="0.93544">
        <ele>604.6</ele>
        <time>2022-05-23 07:58:06</time>
      </trkpt>
      <trkpt lat="42.20307" lon="0.9354">
        <ele>604.6</ele>
        <time>2022-05-23 07:58:07</time>
      </trkpt>
      <trkpt lat="42.20302" lon="0.93536">
        <ele>604.8</ele>
        <time>2022-05-23 07:58:08</time>
      </trkpt>
      <trkpt lat="42.20298" lon="0.93532">
        <ele>604.8</ele>
        <time>2022-05-23 07:58:09</time>
      </trkpt>
      <trkpt lat="42.20293" lon="0.93528">
        <ele>604.8</ele>
        <time>2022-05-23 07:58:10</time>
      </trkpt>
      <trkpt lat="42.20289" lon="0.93523">
        <ele>604.8</ele>
        <time>2022-05-23 07:58:11</time>
      </trkpt>
      <trkpt lat="42.20284" lon="0.93519">
        <ele>605</ele>
        <time>2022-05-23 07:58:12</time>
      </trkpt>
      <trkpt lat="42.2028" lon="0.93515">
        <ele>605</ele>
        <time>2022-05-23 07:58:13</time>
      </trkpt>
      <trkpt lat="42.20275" lon="0.9351">
        <ele>605</ele>
        <time>2022-05-23 07:58:14</time>
      </trkpt>
      <trkpt lat="42.2027" lon="0.93506">
        <ele>605</ele>
        <time>2022-05-23 07:58:15</time>
      </trkpt>
      <trkpt lat="42.20265" lon="0.93502">
        <ele>605.2</ele>
        <time>2022-05-23 07:58:16</time>
      </trkpt>
      <trkpt lat="42.20261" lon="0.93498">
        <ele>605.2</ele>
        <time>2022-05-23 07:58:17</time>
      </trkpt>
      <trkpt lat="42.20256" lon="0.93493">
        <ele>605.2</ele>
        <time>2022-05-23 07:58:18</time>
      </trkpt>
      <trkpt lat="42.20252" lon="0.93489">
        <ele>605.2</ele>
        <time>2022-05-23 07:58:19</time>
      </trkpt>
      <trkpt lat="42.20247" lon="0.93485">
        <ele>605.2</ele>
        <time>2022-05-23 07:58:20</time>
      </trkpt>
      <trkpt lat="42.20242" lon="0.9348">
        <ele>605.4</ele>
        <time>2022-05-23 07:58:21</time>
      </trkpt>
      <trkpt lat="42.20238" lon="0.93476">
        <ele>605.4</ele>
        <time>2022-05-23 07:58:22</time>
      </trkpt>
      <trkpt lat="42.20233" lon="0.93472">
        <ele>605.4</ele>
        <time>2022-05-23 07:58:23</time>
      </trkpt>
      <trkpt lat="42.20228" lon="0.93468">
        <ele>605.4</ele>
        <time>2022-05-23 07:58:24</time>
      </trkpt>
      <trkpt lat="42.20223" lon="0.93464">
        <ele>605.4</ele>
        <time>2022-05-23 07:58:25</time>
      </trkpt>
      <trkpt lat="42.20219" lon="0.93461">
        <ele>605.6</ele>
        <time>2022-05-23 07:58:26</time>
      </trkpt>
      <trkpt lat="42.20213" lon="0.93456">
        <ele>605.6</ele>
        <time>2022-05-23 07:58:27</time>
      </trkpt>
      <trkpt lat="42.20208" lon="0.93453">
        <ele>605.6</ele>
        <time>2022-05-23 07:58:28</time>
      </trkpt>
      <trkpt lat="42.20203" lon="0.93449">
        <ele>605.6</ele>
        <time>2022-05-23 07:58:29</time>
      </trkpt>
      <trkpt lat="42.202" lon="0.93446">
        <ele>605.6</ele>
        <time>2022-05-23 07:58:30</time>
      </trkpt>
      <trkpt lat="42.20193" lon="0.93442">
        <ele>605.4</ele>
        <time>2022-05-23 07:58:31</time>
      </trkpt>
      <trkpt lat="42.20188" lon="0.93438">
        <ele>605.2</ele>
        <time>2022-05-23 07:58:32</time>
      </trkpt>
      <trkpt lat="42.20183" lon="0.93435">
        <ele>605.2</ele>
        <time>2022-05-23 07:58:33</time>
      </trkpt>
      <trkpt lat="42.20178" lon="0.93432">
        <ele>605.2</ele>
        <time>2022-05-23 07:58:34</time>
      </trkpt>
      <trkpt lat="42.20172" lon="0.93429">
        <ele>605</ele>
        <time>2022-05-23 07:58:35</time>
      </trkpt>
      <trkpt lat="42.20167" lon="0.93426">
        <ele>605</ele>
        <time>2022-05-23 07:58:36</time>
      </trkpt>
      <trkpt lat="42.20162" lon="0.93423">
        <ele>605</ele>
        <time>2022-05-23 07:58:37</time>
      </trkpt>
      <trkpt lat="42.20157" lon="0.9342">
        <ele>604.8</ele>
        <time>2022-05-23 07:58:38</time>
      </trkpt>
      <trkpt lat="42.20152" lon="0.93417">
        <ele>604.8</ele>
        <time>2022-05-23 07:58:39</time>
      </trkpt>
      <trkpt lat="42.20146" lon="0.93414">
        <ele>604.8</ele>
        <time>2022-05-23 07:58:40</time>
      </trkpt>
      <trkpt lat="42.20141" lon="0.93411">
        <ele>604.8</ele>
        <time>2022-05-23 07:58:41</time>
      </trkpt>
      <trkpt lat="42.20136" lon="0.93408">
        <ele>604.8</ele>
        <time>2022-05-23 07:58:42</time>
      </trkpt>
      <trkpt lat="42.2013" lon="0.93406">
        <ele>604.6</ele>
        <time>2022-05-23 07:58:43</time>
      </trkpt>
      <trkpt lat="42.20125" lon="0.93403">
        <ele>604.6</ele>
        <time>2022-05-23 07:58:44</time>
      </trkpt>
      <trkpt lat="42.20119" lon="0.934">
        <ele>604.6</ele>
        <time>2022-05-23 07:58:45</time>
      </trkpt>
      <trkpt lat="42.20113" lon="0.93398">
        <ele>604.4</ele>
        <time>2022-05-23 07:58:46</time>
      </trkpt>
      <trkpt lat="42.20107" lon="0.93395">
        <ele>604.4</ele>
        <time>2022-05-23 07:58:47</time>
      </trkpt>
      <trkpt lat="42.20101" lon="0.93393">
        <ele>604.4</ele>
        <time>2022-05-23 07:58:48</time>
      </trkpt>
      <trkpt lat="42.20096" lon="0.93391">
        <ele>604.2</ele>
        <time>2022-05-23 07:58:49</time>
      </trkpt>
      <trkpt lat="42.20089" lon="0.93389">
        <ele>604.2</ele>
        <time>2022-05-23 07:58:50</time>
      </trkpt>
      <trkpt lat="42.20083" lon="0.93387">
        <ele>604.2</ele>
        <time>2022-05-23 07:58:51</time>
      </trkpt>
      <trkpt lat="42.20077" lon="0.93385">
        <ele>604</ele>
        <time>2022-05-23 07:58:52</time>
      </trkpt>
      <trkpt lat="42.20071" lon="0.93383">
        <ele>603.8</ele>
        <time>2022-05-23 07:58:53</time>
      </trkpt>
      <trkpt lat="42.20065" lon="0.93381">
        <ele>603.8</ele>
        <time>2022-05-23 07:58:54</time>
      </trkpt>
      <trkpt lat="42.20058" lon="0.93378">
        <ele>603.6</ele>
        <time>2022-05-23 07:58:55</time>
      </trkpt>
      <trkpt lat="42.20052" lon="0.93376">
        <ele>603.4</ele>
        <time>2022-05-23 07:58:56</time>
      </trkpt>
      <trkpt lat="42.20045" lon="0.93373">
        <ele>603.4</ele>
        <time>2022-05-23 07:58:57</time>
      </trkpt>
      <trkpt lat="42.20038" lon="0.93371">
        <ele>603.4</ele>
        <time>2022-05-23 07:58:58</time>
      </trkpt>
      <trkpt lat="42.20031" lon="0.93369">
        <ele>603</ele>
        <time>2022-05-23 07:58:59</time>
      </trkpt>
      <trkpt lat="42.20025" lon="0.93366">
        <ele>603</ele>
        <time>2022-05-23 07:59:00</time>
      </trkpt>
      <trkpt lat="42.20018" lon="0.93363">
        <ele>603</ele>
        <time>2022-05-23 07:59:01</time>
      </trkpt>
      <trkpt lat="42.20012" lon="0.93361">
        <ele>602.8</ele>
        <time>2022-05-23 07:59:02</time>
      </trkpt>
      <trkpt lat="42.20005" lon="0.93358">
        <ele>602.8</ele>
        <time>2022-05-23 07:59:03</time>
      </trkpt>
      <trkpt lat="42.19998" lon="0.93356">
        <ele>602.6</ele>
        <time>2022-05-23 07:59:04</time>
      </trkpt>
      <trkpt lat="42.19992" lon="0.93354">
        <ele>602.6</ele>
        <time>2022-05-23 07:59:05</time>
      </trkpt>
      <trkpt lat="42.19985" lon="0.93351">
        <ele>602.4</ele>
        <time>2022-05-23 07:59:06</time>
      </trkpt>
      <trkpt lat="42.19979" lon="0.93349">
        <ele>602.2</ele>
        <time>2022-05-23 07:59:07</time>
      </trkpt>
      <trkpt lat="42.19972" lon="0.93347">
        <ele>602</ele>
        <time>2022-05-23 07:59:08</time>
      </trkpt>
      <trkpt lat="42.19965" lon="0.93345">
        <ele>602</ele>
        <time>2022-05-23 07:59:09</time>
      </trkpt>
      <trkpt lat="42.19959" lon="0.93342">
        <ele>601.8</ele>
        <time>2022-05-23 07:59:10</time>
      </trkpt>
      <trkpt lat="42.19952" lon="0.9334">
        <ele>601.8</ele>
        <time>2022-05-23 07:59:11</time>
      </trkpt>
      <trkpt lat="42.19945" lon="0.93337">
        <ele>601.6</ele>
        <time>2022-05-23 07:59:12</time>
      </trkpt>
      <trkpt lat="42.19938" lon="0.93335">
        <ele>601.4</ele>
        <time>2022-05-23 07:59:13</time>
      </trkpt>
      <trkpt lat="42.19932" lon="0.93332">
        <ele>601.4</ele>
        <time>2022-05-23 07:59:14</time>
      </trkpt>
      <trkpt lat="42.19925" lon="0.93329">
        <ele>601.2</ele>
        <time>2022-05-23 07:59:15</time>
      </trkpt>
      <trkpt lat="42.19918" lon="0.93326">
        <ele>601.2</ele>
        <time>2022-05-23 07:59:16</time>
      </trkpt>
      <trkpt lat="42.19912" lon="0.93324">
        <ele>601</ele>
        <time>2022-05-23 07:59:17</time>
      </trkpt>
      <trkpt lat="42.19904" lon="0.93321">
        <ele>601</ele>
        <time>2022-05-23 07:59:18</time>
      </trkpt>
      <trkpt lat="42.19897" lon="0.93319">
        <ele>600.8</ele>
        <time>2022-05-23 07:59:19</time>
      </trkpt>
      <trkpt lat="42.19891" lon="0.93316">
        <ele>600.6</ele>
        <time>2022-05-23 07:59:20</time>
      </trkpt>
      <trkpt lat="42.19883" lon="0.93313">
        <ele>600.4</ele>
        <time>2022-05-23 07:59:21</time>
      </trkpt>
      <trkpt lat="42.19877" lon="0.93311">
        <ele>600.4</ele>
        <time>2022-05-23 07:59:22</time>
      </trkpt>
      <trkpt lat="42.1987" lon="0.93309">
        <ele>600.2</ele>
        <time>2022-05-23 07:59:23</time>
      </trkpt>
      <trkpt lat="42.19864" lon="0.93307">
        <ele>600</ele>
        <time>2022-05-23 07:59:24</time>
      </trkpt>
      <trkpt lat="42.19857" lon="0.93305">
        <ele>600</ele>
        <time>2022-05-23 07:59:25</time>
      </trkpt>
      <trkpt lat="42.1985" lon="0.93302">
        <ele>600</ele>
        <time>2022-05-23 07:59:26</time>
      </trkpt>
      <trkpt lat="42.19844" lon="0.933">
        <ele>599.8</ele>
        <time>2022-05-23 07:59:27</time>
      </trkpt>
      <trkpt lat="42.19837" lon="0.93297">
        <ele>599.8</ele>
        <time>2022-05-23 07:59:28</time>
      </trkpt>
      <trkpt lat="42.1983" lon="0.93295">
        <ele>599.8</ele>
        <time>2022-05-23 07:59:29</time>
      </trkpt>
      <trkpt lat="42.19824" lon="0.93293">
        <ele>599.8</ele>
        <time>2022-05-23 07:59:30</time>
      </trkpt>
      <trkpt lat="42.19818" lon="0.9329">
        <ele>599.8</ele>
        <time>2022-05-23 07:59:31</time>
      </trkpt>
      <trkpt lat="42.19812" lon="0.93288">
        <ele>599.8</ele>
        <time>2022-05-23 07:59:32</time>
      </trkpt>
      <trkpt lat="42.19806" lon="0.93286">
        <ele>599.8</ele>
        <time>2022-05-23 07:59:33</time>
      </trkpt>
      <trkpt lat="42.198" lon="0.93283">
        <ele>599.8</ele>
        <time>2022-05-23 07:59:34</time>
      </trkpt>
      <trkpt lat="42.19793" lon="0.9328">
        <ele>599.8</ele>
        <time>2022-05-23 07:59:35</time>
      </trkpt>
      <trkpt lat="42.19788" lon="0.93277">
        <ele>599.8</ele>
        <time>2022-05-23 07:59:36</time>
      </trkpt>
      <trkpt lat="42.19782" lon="0.93275">
        <ele>600</ele>
        <time>2022-05-23 07:59:37</time>
      </trkpt>
      <trkpt lat="42.19776" lon="0.93272">
        <ele>600</ele>
        <time>2022-05-23 07:59:38</time>
      </trkpt>
      <trkpt lat="42.19771" lon="0.93269">
        <ele>600</ele>
        <time>2022-05-23 07:59:39</time>
      </trkpt>
      <trkpt lat="42.19765" lon="0.93265">
        <ele>600</ele>
        <time>2022-05-23 07:59:40</time>
      </trkpt>
      <trkpt lat="42.19759" lon="0.93262">
        <ele>600.2</ele>
        <time>2022-05-23 07:59:41</time>
      </trkpt>
      <trkpt lat="42.19754" lon="0.93259">
        <ele>600.2</ele>
        <time>2022-05-23 07:59:42</time>
      </trkpt>
      <trkpt lat="42.19748" lon="0.93255">
        <ele>600.2</ele>
        <time>2022-05-23 07:59:43</time>
      </trkpt>
      <trkpt lat="42.19743" lon="0.93251">
        <ele>600.4</ele>
        <time>2022-05-23 07:59:44</time>
      </trkpt>
      <trkpt lat="42.19738" lon="0.93247">
        <ele>600.4</ele>
        <time>2022-05-23 07:59:45</time>
      </trkpt>
      <trkpt lat="42.19733" lon="0.93243">
        <ele>600.6</ele>
        <time>2022-05-23 07:59:46</time>
      </trkpt>
      <trkpt lat="42.19728" lon="0.93238">
        <ele>600.6</ele>
        <time>2022-05-23 07:59:47</time>
      </trkpt>
      <trkpt lat="42.19723" lon="0.93233">
        <ele>600.8</ele>
        <time>2022-05-23 07:59:48</time>
      </trkpt>
      <trkpt lat="42.19718" lon="0.93229">
        <ele>600.8</ele>
        <time>2022-05-23 07:59:49</time>
      </trkpt>
      <trkpt lat="42.19713" lon="0.93224">
        <ele>601</ele>
        <time>2022-05-23 07:59:50</time>
      </trkpt>
      <trkpt lat="42.19709" lon="0.93219">
        <ele>601</ele>
        <time>2022-05-23 07:59:51</time>
      </trkpt>
      <trkpt lat="42.19704" lon="0.93214">
        <ele>601</ele>
        <time>2022-05-23 07:59:52</time>
      </trkpt>
      <trkpt lat="42.19699" lon="0.93208">
        <ele>601.2</ele>
        <time>2022-05-23 07:59:53</time>
      </trkpt>
      <trkpt lat="42.19695" lon="0.93202">
        <ele>601.2</ele>
        <time>2022-05-23 07:59:54</time>
      </trkpt>
      <trkpt lat="42.1969" lon="0.93196">
        <ele>601.2</ele>
        <time>2022-05-23 07:59:55</time>
      </trkpt>
      <trkpt lat="42.19686" lon="0.9319">
        <ele>601.2</ele>
        <time>2022-05-23 07:59:56</time>
      </trkpt>
      <trkpt lat="42.19682" lon="0.93183">
        <ele>601.2</ele>
        <time>2022-05-23 07:59:57</time>
      </trkpt>
      <trkpt lat="42.19678" lon="0.93178">
        <ele>601.2</ele>
        <time>2022-05-23 07:59:58</time>
      </trkpt>
      <trkpt lat="42.19674" lon="0.93171">
        <ele>601.2</ele>
        <time>2022-05-23 07:59:59</time>
      </trkpt>
      <trkpt lat="42.1967" lon="0.93165">
        <ele>601.2</ele>
        <time>2022-05-23 08:00:00</time>
      </trkpt>
      <trkpt lat="42.19666" lon="0.93159">
        <ele>601.2</ele>
        <time>2022-05-23 08:00:01</time>
      </trkpt>
      <trkpt lat="42.19662" lon="0.93153">
        <ele>601.2</ele>
        <time>2022-05-23 08:00:02</time>
      </trkpt>
      <trkpt lat="42.19658" lon="0.93147">
        <ele>601.4</ele>
        <time>2022-05-23 08:00:03</time>
      </trkpt>
      <trkpt lat="42.19654" lon="0.93141">
        <ele>601.2</ele>
        <time>2022-05-23 08:00:04</time>
      </trkpt>
      <trkpt lat="42.19649" lon="0.93135">
        <ele>601</ele>
        <time>2022-05-23 08:00:05</time>
      </trkpt>
      <trkpt lat="42.19645" lon="0.93129">
        <ele>601</ele>
        <time>2022-05-23 08:00:06</time>
      </trkpt>
      <trkpt lat="42.19641" lon="0.93123">
        <ele>601</ele>
        <time>2022-05-23 08:00:07</time>
      </trkpt>
      <trkpt lat="42.19637" lon="0.93117">
        <ele>601</ele>
        <time>2022-05-23 08:00:08</time>
      </trkpt>
      <trkpt lat="42.19632" lon="0.93111">
        <ele>601</ele>
        <time>2022-05-23 08:00:09</time>
      </trkpt>
      <trkpt lat="42.19628" lon="0.93105">
        <ele>600.8</ele>
        <time>2022-05-23 08:00:10</time>
      </trkpt>
      <trkpt lat="42.19625" lon="0.93099">
        <ele>600.8</ele>
        <time>2022-05-23 08:00:11</time>
      </trkpt>
      <trkpt lat="42.19621" lon="0.93093">
        <ele>600.6</ele>
        <time>2022-05-23 08:00:12</time>
      </trkpt>
      <trkpt lat="42.19617" lon="0.93087">
        <ele>600.2</ele>
        <time>2022-05-23 08:00:13</time>
      </trkpt>
      <trkpt lat="42.19614" lon="0.9308">
        <ele>600</ele>
        <time>2022-05-23 08:00:14</time>
      </trkpt>
      <trkpt lat="42.19612" lon="0.93067">
        <ele>599.8</ele>
        <time>2022-05-23 08:00:15</time>
      </trkpt>
      <trkpt lat="42.1961" lon="0.93053">
        <ele>599.6</ele>
        <time>2022-05-23 08:00:16</time>
      </trkpt>
      <trkpt lat="42.19608" lon="0.93039">
        <ele>599.4</ele>
        <time>2022-05-23 08:00:17</time>
      </trkpt>
      <trkpt lat="42.19606" lon="0.93025">
        <ele>599.2</ele>
        <time>2022-05-23 08:00:18</time>
      </trkpt>
      <trkpt lat="42.19604" lon="0.93011">
        <ele>599</ele>
        <time>2022-05-23 08:00:19</time>
      </trkpt>
      <trkpt lat="42.19603" lon="0.92998">
        <ele>598.6</ele>
        <time>2022-05-23 08:00:20</time>
      </trkpt>
      <trkpt lat="42.19601" lon="0.92984">
        <ele>598.2</ele>
        <time>2022-05-23 08:00:21</time>
      </trkpt>
      <trkpt lat="42.19599" lon="0.9297">
        <ele>598</ele>
        <time>2022-05-23 08:00:22</time>
      </trkpt>
      <trkpt lat="42.19597" lon="0.92956">
        <ele>597.6</ele>
        <time>2022-05-23 08:00:23</time>
      </trkpt>
      <trkpt lat="42.19595" lon="0.92943">
        <ele>597.4</ele>
        <time>2022-05-23 08:00:24</time>
      </trkpt>
      <trkpt lat="42.19593" lon="0.92936">
        <ele>597</ele>
        <time>2022-05-23 08:00:25</time>
      </trkpt>
      <trkpt lat="42.19587" lon="0.92921">
        <ele>596.8</ele>
        <time>2022-05-23 08:00:26</time>
      </trkpt>
      <trkpt lat="42.19583" lon="0.92913">
        <ele>596.4</ele>
        <time>2022-05-23 08:00:27</time>
      </trkpt>
      <trkpt lat="42.19581" lon="0.92907">
        <ele>596.2</ele>
        <time>2022-05-23 08:00:28</time>
      </trkpt>
      <trkpt lat="42.19578" lon="0.92898">
        <ele>596</ele>
        <time>2022-05-23 08:00:29</time>
      </trkpt>
      <trkpt lat="42.19574" lon="0.9289">
        <ele>595.8</ele>
        <time>2022-05-23 08:00:30</time>
      </trkpt>
      <trkpt lat="42.1957" lon="0.92883">
        <ele>595.6</ele>
        <time>2022-05-23 08:00:31</time>
      </trkpt>
      <trkpt lat="42.19565" lon="0.92874">
        <ele>595.4</ele>
        <time>2022-05-23 08:00:32</time>
      </trkpt>
      <trkpt lat="42.19561" lon="0.92867">
        <ele>595.4</ele>
        <time>2022-05-23 08:00:33</time>
      </trkpt>
      <trkpt lat="42.19556" lon="0.92859">
        <ele>595.2</ele>
        <time>2022-05-23 08:00:34</time>
      </trkpt>
      <trkpt lat="42.19551" lon="0.92852">
        <ele>595.2</ele>
        <time>2022-05-23 08:00:35</time>
      </trkpt>
      <trkpt lat="42.19545" lon="0.92844">
        <ele>595</ele>
        <time>2022-05-23 08:00:36</time>
      </trkpt>
      <trkpt lat="42.1954" lon="0.92838">
        <ele>595</ele>
        <time>2022-05-23 08:00:37</time>
      </trkpt>
      <trkpt lat="42.19534" lon="0.92831">
        <ele>594.8</ele>
        <time>2022-05-23 08:00:38</time>
      </trkpt>
      <trkpt lat="42.19529" lon="0.92824">
        <ele>594.8</ele>
        <time>2022-05-23 08:00:39</time>
      </trkpt>
      <trkpt lat="42.19523" lon="0.92818">
        <ele>594.8</ele>
        <time>2022-05-23 08:00:40</time>
      </trkpt>
      <trkpt lat="42.19516" lon="0.92812">
        <ele>594.6</ele>
        <time>2022-05-23 08:00:41</time>
      </trkpt>
      <trkpt lat="42.19511" lon="0.92806">
        <ele>594.6</ele>
        <time>2022-05-23 08:00:42</time>
      </trkpt>
      <trkpt lat="42.19504" lon="0.92801">
        <ele>594.4</ele>
        <time>2022-05-23 08:00:43</time>
      </trkpt>
      <trkpt lat="42.19498" lon="0.92795">
        <ele>594.4</ele>
        <time>2022-05-23 08:00:44</time>
      </trkpt>
      <trkpt lat="42.19492" lon="0.9279">
        <ele>594.4</ele>
        <time>2022-05-23 08:00:45</time>
      </trkpt>
      <trkpt lat="42.19486" lon="0.92785">
        <ele>594.2</ele>
        <time>2022-05-23 08:00:46</time>
      </trkpt>
      <trkpt lat="42.19479" lon="0.92781">
        <ele>594.2</ele>
        <time>2022-05-23 08:00:47</time>
      </trkpt>
      <trkpt lat="42.19472" lon="0.92777">
        <ele>594</ele>
        <time>2022-05-23 08:00:48</time>
      </trkpt>
      <trkpt lat="42.19466" lon="0.92773">
        <ele>594</ele>
        <time>2022-05-23 08:00:49</time>
      </trkpt>
      <trkpt lat="42.19459" lon="0.9277">
        <ele>594</ele>
        <time>2022-05-23 08:00:50</time>
      </trkpt>
      <trkpt lat="42.19453" lon="0.92766">
        <ele>593.8</ele>
        <time>2022-05-23 08:00:51</time>
      </trkpt>
      <trkpt lat="42.19446" lon="0.92763">
        <ele>593.8</ele>
        <time>2022-05-23 08:00:52</time>
      </trkpt>
      <trkpt lat="42.19439" lon="0.9276">
        <ele>593.8</ele>
        <time>2022-05-23 08:00:53</time>
      </trkpt>
      <trkpt lat="42.19433" lon="0.92758">
        <ele>593.8</ele>
        <time>2022-05-23 08:00:54</time>
      </trkpt>
      <trkpt lat="42.19426" lon="0.92755">
        <ele>593.8</ele>
        <time>2022-05-23 08:00:55</time>
      </trkpt>
      <trkpt lat="42.19419" lon="0.92753">
        <ele>593.8</ele>
        <time>2022-05-23 08:00:56</time>
      </trkpt>
      <trkpt lat="42.19412" lon="0.92751">
        <ele>594</ele>
        <time>2022-05-23 08:00:57</time>
      </trkpt>
      <trkpt lat="42.19405" lon="0.92749">
        <ele>594</ele>
        <time>2022-05-23 08:00:58</time>
      </trkpt>
      <trkpt lat="42.19398" lon="0.92747">
        <ele>594.2</ele>
        <time>2022-05-23 08:00:59</time>
      </trkpt>
      <trkpt lat="42.19391" lon="0.92745">
        <ele>594</ele>
        <time>2022-05-23 08:01:00</time>
      </trkpt>
      <trkpt lat="42.19384" lon="0.92743">
        <ele>594</ele>
        <time>2022-05-23 08:01:01</time>
      </trkpt>
      <trkpt lat="42.19377" lon="0.92742">
        <ele>594</ele>
        <time>2022-05-23 08:01:02</time>
      </trkpt>
      <trkpt lat="42.1937" lon="0.92741">
        <ele>594</ele>
        <time>2022-05-23 08:01:03</time>
      </trkpt>
      <trkpt lat="42.19363" lon="0.92739">
        <ele>594.2</ele>
        <time>2022-05-23 08:01:04</time>
      </trkpt>
      <trkpt lat="42.19357" lon="0.92738">
        <ele>594.2</ele>
        <time>2022-05-23 08:01:05</time>
      </trkpt>
      <trkpt lat="42.1935" lon="0.92737">
        <ele>594.2</ele>
        <time>2022-05-23 08:01:06</time>
      </trkpt>
      <trkpt lat="42.19343" lon="0.92736">
        <ele>594.2</ele>
        <time>2022-05-23 08:01:07</time>
      </trkpt>
      <trkpt lat="42.19336" lon="0.92736">
        <ele>594.2</ele>
        <time>2022-05-23 08:01:08</time>
      </trkpt>
      <trkpt lat="42.1933" lon="0.92735">
        <ele>594.2</ele>
        <time>2022-05-23 08:01:09</time>
      </trkpt>
      <trkpt lat="42.19324" lon="0.92735">
        <ele>594.4</ele>
        <time>2022-05-23 08:01:10</time>
      </trkpt>
      <trkpt lat="42.19318" lon="0.92734">
        <ele>594.4</ele>
        <time>2022-05-23 08:01:11</time>
      </trkpt>
      <trkpt lat="42.19311" lon="0.92734">
        <ele>594.6</ele>
        <time>2022-05-23 08:01:12</time>
      </trkpt>
      <trkpt lat="42.19304" lon="0.92734">
        <ele>594.6</ele>
        <time>2022-05-23 08:01:13</time>
      </trkpt>
      <trkpt lat="42.19298" lon="0.92734">
        <ele>594.6</ele>
        <time>2022-05-23 08:01:14</time>
      </trkpt>
      <trkpt lat="42.19292" lon="0.92735">
        <ele>594.6</ele>
        <time>2022-05-23 08:01:15</time>
      </trkpt>
      <trkpt lat="42.19285" lon="0.92735">
        <ele>594.6</ele>
        <time>2022-05-23 08:01:16</time>
      </trkpt>
      <trkpt lat="42.19279" lon="0.92735">
        <ele>594.6</ele>
        <time>2022-05-23 08:01:17</time>
      </trkpt>
      <trkpt lat="42.19273" lon="0.92736">
        <ele>594.6</ele>
        <time>2022-05-23 08:01:18</time>
      </trkpt>
      <trkpt lat="42.19267" lon="0.92737">
        <ele>594.8</ele>
        <time>2022-05-23 08:01:19</time>
      </trkpt>
      <trkpt lat="42.1926" lon="0.92737">
        <ele>594.8</ele>
        <time>2022-05-23 08:01:20</time>
      </trkpt>
      <trkpt lat="42.19254" lon="0.92738">
        <ele>594.8</ele>
        <time>2022-05-23 08:01:21</time>
      </trkpt>
      <trkpt lat="42.19248" lon="0.92738">
        <ele>594.8</ele>
        <time>2022-05-23 08:01:22</time>
      </trkpt>
      <trkpt lat="42.19242" lon="0.92739">
        <ele>594.8</ele>
        <time>2022-05-23 08:01:23</time>
      </trkpt>
      <trkpt lat="42.19236" lon="0.9274">
        <ele>594.8</ele>
        <time>2022-05-23 08:01:24</time>
      </trkpt>
      <trkpt lat="42.1923" lon="0.92741">
        <ele>595</ele>
        <time>2022-05-23 08:01:25</time>
      </trkpt>
      <trkpt lat="42.19224" lon="0.92742">
        <ele>595</ele>
        <time>2022-05-23 08:01:26</time>
      </trkpt>
      <trkpt lat="42.19218" lon="0.92743">
        <ele>595</ele>
        <time>2022-05-23 08:01:27</time>
      </trkpt>
      <trkpt lat="42.19212" lon="0.92744">
        <ele>595</ele>
        <time>2022-05-23 08:01:28</time>
      </trkpt>
      <trkpt lat="42.19207" lon="0.92745">
        <ele>595</ele>
        <time>2022-05-23 08:01:29</time>
      </trkpt>
      <trkpt lat="42.19201" lon="0.92746">
        <ele>595</ele>
        <time>2022-05-23 08:01:30</time>
      </trkpt>
      <trkpt lat="42.19195" lon="0.92747">
        <ele>595.2</ele>
        <time>2022-05-23 08:01:31</time>
      </trkpt>
      <trkpt lat="42.19189" lon="0.92748">
        <ele>595.2</ele>
        <time>2022-05-23 08:01:32</time>
      </trkpt>
      <trkpt lat="42.19183" lon="0.92749">
        <ele>595.2</ele>
        <time>2022-05-23 08:01:33</time>
      </trkpt>
      <trkpt lat="42.19178" lon="0.9275">
        <ele>595.2</ele>
        <time>2022-05-23 08:01:34</time>
      </trkpt>
      <trkpt lat="42.19172" lon="0.9275">
        <ele>595.2</ele>
        <time>2022-05-23 08:01:35</time>
      </trkpt>
      <trkpt lat="42.19166" lon="0.92751">
        <ele>595.2</ele>
        <time>2022-05-23 08:01:36</time>
      </trkpt>
      <trkpt lat="42.1916" lon="0.92752">
        <ele>595.2</ele>
        <time>2022-05-23 08:01:37</time>
      </trkpt>
      <trkpt lat="42.19154" lon="0.92752">
        <ele>595.2</ele>
        <time>2022-05-23 08:01:38</time>
      </trkpt>
      <trkpt lat="42.19149" lon="0.92752">
        <ele>595.2</ele>
        <time>2022-05-23 08:01:39</time>
      </trkpt>
      <trkpt lat="42.19144" lon="0.92753">
        <ele>595.2</ele>
        <time>2022-05-23 08:01:40</time>
      </trkpt>
      <trkpt lat="42.19138" lon="0.92753">
        <ele>595.4</ele>
        <time>2022-05-23 08:01:41</time>
      </trkpt>
      <trkpt lat="42.19132" lon="0.92753">
        <ele>595.4</ele>
        <time>2022-05-23 08:01:42</time>
      </trkpt>
      <trkpt lat="42.19126" lon="0.92753">
        <ele>595.4</ele>
        <time>2022-05-23 08:01:43</time>
      </trkpt>
      <trkpt lat="42.1912" lon="0.92753">
        <ele>595.4</ele>
        <time>2022-05-23 08:01:44</time>
      </trkpt>
      <trkpt lat="42.19114" lon="0.92753">
        <ele>595.4</ele>
        <time>2022-05-23 08:01:45</time>
      </trkpt>
      <trkpt lat="42.19109" lon="0.92752">
        <ele>595.4</ele>
        <time>2022-05-23 08:01:46</time>
      </trkpt>
      <trkpt lat="42.19103" lon="0.92751">
        <ele>595.6</ele>
        <time>2022-05-23 08:01:47</time>
      </trkpt>
      <trkpt lat="42.19097" lon="0.9275">
        <ele>595.6</ele>
        <time>2022-05-23 08:01:48</time>
      </trkpt>
      <trkpt lat="42.19091" lon="0.92749">
        <ele>595.4</ele>
        <time>2022-05-23 08:01:49</time>
      </trkpt>
      <trkpt lat="42.19085" lon="0.92747">
        <ele>595.4</ele>
        <time>2022-05-23 08:01:50</time>
      </trkpt>
      <trkpt lat="42.19079" lon="0.92745">
        <ele>595.4</ele>
        <time>2022-05-23 08:01:51</time>
      </trkpt>
      <trkpt lat="42.19072" lon="0.92742">
        <ele>595.2</ele>
        <time>2022-05-23 08:01:52</time>
      </trkpt>
      <trkpt lat="42.19066" lon="0.9274">
        <ele>595.2</ele>
        <time>2022-05-23 08:01:53</time>
      </trkpt>
      <trkpt lat="42.1906" lon="0.92736">
        <ele>595</ele>
        <time>2022-05-23 08:01:54</time>
      </trkpt>
      <trkpt lat="42.19054" lon="0.92733">
        <ele>595</ele>
        <time>2022-05-23 08:01:55</time>
      </trkpt>
      <trkpt lat="42.19048" lon="0.9273">
        <ele>595</ele>
        <time>2022-05-23 08:01:56</time>
      </trkpt>
      <trkpt lat="42.19042" lon="0.92726">
        <ele>594.8</ele>
        <time>2022-05-23 08:01:57</time>
      </trkpt>
      <trkpt lat="42.19035" lon="0.92723">
        <ele>594.8</ele>
        <time>2022-05-23 08:01:58</time>
      </trkpt>
      <trkpt lat="42.19029" lon="0.92718">
        <ele>594.8</ele>
        <time>2022-05-23 08:01:59</time>
      </trkpt>
      <trkpt lat="42.19023" lon="0.92714">
        <ele>594.6</ele>
        <time>2022-05-23 08:02:00</time>
      </trkpt>
      <trkpt lat="42.19017" lon="0.9271">
        <ele>594.6</ele>
        <time>2022-05-23 08:02:01</time>
      </trkpt>
      <trkpt lat="42.19011" lon="0.92705">
        <ele>594.6</ele>
        <time>2022-05-23 08:02:02</time>
      </trkpt>
      <trkpt lat="42.19006" lon="0.92701">
        <ele>594.6</ele>
        <time>2022-05-23 08:02:03</time>
      </trkpt>
      <trkpt lat="42.19" lon="0.92696">
        <ele>594.4</ele>
        <time>2022-05-23 08:02:04</time>
      </trkpt>
      <trkpt lat="42.18995" lon="0.92691">
        <ele>594.4</ele>
        <time>2022-05-23 08:02:05</time>
      </trkpt>
      <trkpt lat="42.18989" lon="0.92686">
        <ele>594.4</ele>
        <time>2022-05-23 08:02:06</time>
      </trkpt>
      <trkpt lat="42.18983" lon="0.92681">
        <ele>594.4</ele>
        <time>2022-05-23 08:02:07</time>
      </trkpt>
      <trkpt lat="42.18978" lon="0.92675">
        <ele>594.4</ele>
        <time>2022-05-23 08:02:08</time>
      </trkpt>
      <trkpt lat="42.18973" lon="0.9267">
        <ele>594.4</ele>
        <time>2022-05-23 08:02:09</time>
      </trkpt>
      <trkpt lat="42.18967" lon="0.92665">
        <ele>594.6</ele>
        <time>2022-05-23 08:02:10</time>
      </trkpt>
      <trkpt lat="42.18962" lon="0.92659">
        <ele>594.6</ele>
        <time>2022-05-23 08:02:11</time>
      </trkpt>
      <trkpt lat="42.18957" lon="0.92654">
        <ele>594.8</ele>
        <time>2022-05-23 08:02:12</time>
      </trkpt>
      <trkpt lat="42.18952" lon="0.92648">
        <ele>594.8</ele>
        <time>2022-05-23 08:02:13</time>
      </trkpt>
      <trkpt lat="42.18948" lon="0.92642">
        <ele>594.8</ele>
        <time>2022-05-23 08:02:14</time>
      </trkpt>
      <trkpt lat="42.18944" lon="0.92637">
        <ele>595</ele>
        <time>2022-05-23 08:02:15</time>
      </trkpt>
      <trkpt lat="42.18939" lon="0.92631">
        <ele>595</ele>
        <time>2022-05-23 08:02:16</time>
      </trkpt>
      <trkpt lat="42.18935" lon="0.92625">
        <ele>595.2</ele>
        <time>2022-05-23 08:02:17</time>
      </trkpt>
      <trkpt lat="42.18931" lon="0.92619">
        <ele>595.4</ele>
        <time>2022-05-23 08:02:18</time>
      </trkpt>
      <trkpt lat="42.18927" lon="0.92612">
        <ele>595.6</ele>
        <time>2022-05-23 08:02:19</time>
      </trkpt>
      <trkpt lat="42.18923" lon="0.92606">
        <ele>595.8</ele>
        <time>2022-05-23 08:02:20</time>
      </trkpt>
      <trkpt lat="42.18919" lon="0.926">
        <ele>596</ele>
        <time>2022-05-23 08:02:21</time>
      </trkpt>
      <trkpt lat="42.18915" lon="0.92594">
        <ele>596.2</ele>
        <time>2022-05-23 08:02:22</time>
      </trkpt>
      <trkpt lat="42.18912" lon="0.92588">
        <ele>596.4</ele>
        <time>2022-05-23 08:02:23</time>
      </trkpt>
      <trkpt lat="42.18909" lon="0.92582">
        <ele>596.6</ele>
        <time>2022-05-23 08:02:24</time>
      </trkpt>
      <trkpt lat="42.18906" lon="0.92576">
        <ele>596.8</ele>
        <time>2022-05-23 08:02:25</time>
      </trkpt>
      <trkpt lat="42.18903" lon="0.9257">
        <ele>597</ele>
        <time>2022-05-23 08:02:26</time>
      </trkpt>
      <trkpt lat="42.18901" lon="0.92564">
        <ele>597.2</ele>
        <time>2022-05-23 08:02:27</time>
      </trkpt>
      <trkpt lat="42.18899" lon="0.92559">
        <ele>597.4</ele>
        <time>2022-05-23 08:02:28</time>
      </trkpt>
      <trkpt lat="42.18896" lon="0.92551">
        <ele>597.6</ele>
        <time>2022-05-23 08:02:29</time>
      </trkpt>
      <trkpt lat="42.18894" lon="0.92545">
        <ele>597.8</ele>
        <time>2022-05-23 08:02:30</time>
      </trkpt>
      <trkpt lat="42.18891" lon="0.92539">
        <ele>598.2</ele>
        <time>2022-05-23 08:02:31</time>
      </trkpt>
      <trkpt lat="42.18889" lon="0.92532">
        <ele>598.4</ele>
        <time>2022-05-23 08:02:32</time>
      </trkpt>
      <trkpt lat="42.18887" lon="0.92526">
        <ele>598.6</ele>
        <time>2022-05-23 08:02:33</time>
      </trkpt>
      <trkpt lat="42.18885" lon="0.9252">
        <ele>598.8</ele>
        <time>2022-05-23 08:02:34</time>
      </trkpt>
      <trkpt lat="42.18883" lon="0.92513">
        <ele>599</ele>
        <time>2022-05-23 08:02:35</time>
      </trkpt>
      <trkpt lat="42.18881" lon="0.92507">
        <ele>599.2</ele>
        <time>2022-05-23 08:02:36</time>
      </trkpt>
      <trkpt lat="42.18879" lon="0.92501">
        <ele>599.4</ele>
        <time>2022-05-23 08:02:37</time>
      </trkpt>
      <trkpt lat="42.18878" lon="0.92494">
        <ele>599.8</ele>
        <time>2022-05-23 08:02:38</time>
      </trkpt>
      <trkpt lat="42.18877" lon="0.92488">
        <ele>600</ele>
        <time>2022-05-23 08:02:39</time>
      </trkpt>
      <trkpt lat="42.18875" lon="0.92481">
        <ele>600.2</ele>
        <time>2022-05-23 08:02:40</time>
      </trkpt>
      <trkpt lat="42.18874" lon="0.92475">
        <ele>600.6</ele>
        <time>2022-05-23 08:02:41</time>
      </trkpt>
      <trkpt lat="42.18873" lon="0.9247">
        <ele>600.8</ele>
        <time>2022-05-23 08:02:42</time>
      </trkpt>
      <trkpt lat="42.18872" lon="0.92464">
        <ele>601</ele>
        <time>2022-05-23 08:02:43</time>
      </trkpt>
      <trkpt lat="42.18871" lon="0.92458">
        <ele>601.2</ele>
        <time>2022-05-23 08:02:44</time>
      </trkpt>
      <trkpt lat="42.1887" lon="0.92452">
        <ele>601.4</ele>
        <time>2022-05-23 08:02:45</time>
      </trkpt>
      <trkpt lat="42.18869" lon="0.92447">
        <ele>601.8</ele>
        <time>2022-05-23 08:02:46</time>
      </trkpt>
      <trkpt lat="42.18868" lon="0.92441">
        <ele>602</ele>
        <time>2022-05-23 08:02:47</time>
      </trkpt>
      <trkpt lat="42.18867" lon="0.92435">
        <ele>602.2</ele>
        <time>2022-05-23 08:02:48</time>
      </trkpt>
      <trkpt lat="42.18866" lon="0.9243">
        <ele>602.4</ele>
        <time>2022-05-23 08:02:49</time>
      </trkpt>
      <trkpt lat="42.18866" lon="0.92423">
        <ele>602.6</ele>
        <time>2022-05-23 08:02:50</time>
      </trkpt>
      <trkpt lat="42.18865" lon="0.92418">
        <ele>602.8</ele>
        <time>2022-05-23 08:02:51</time>
      </trkpt>
      <trkpt lat="42.18865" lon="0.92412">
        <ele>603</ele>
        <time>2022-05-23 08:02:52</time>
      </trkpt>
      <trkpt lat="42.18864" lon="0.92406">
        <ele>603.2</ele>
        <time>2022-05-23 08:02:53</time>
      </trkpt>
      <trkpt lat="42.18864" lon="0.924">
        <ele>603.6</ele>
        <time>2022-05-23 08:02:54</time>
      </trkpt>
      <trkpt lat="42.18864" lon="0.92394">
        <ele>603.8</ele>
        <time>2022-05-23 08:02:55</time>
      </trkpt>
      <trkpt lat="42.18864" lon="0.92389">
        <ele>604</ele>
        <time>2022-05-23 08:02:56</time>
      </trkpt>
      <trkpt lat="42.18864" lon="0.92383">
        <ele>604.2</ele>
        <time>2022-05-23 08:02:57</time>
      </trkpt>
      <trkpt lat="42.18864" lon="0.92377">
        <ele>604.4</ele>
        <time>2022-05-23 08:02:58</time>
      </trkpt>
      <trkpt lat="42.18864" lon="0.92372">
        <ele>604.4</ele>
        <time>2022-05-23 08:02:59</time>
      </trkpt>
      <trkpt lat="42.18864" lon="0.92366">
        <ele>604.6</ele>
        <time>2022-05-23 08:03:00</time>
      </trkpt>
      <trkpt lat="42.18864" lon="0.92361">
        <ele>604.8</ele>
        <time>2022-05-23 08:03:01</time>
      </trkpt>
      <trkpt lat="42.18865" lon="0.92355">
        <ele>605</ele>
        <time>2022-05-23 08:03:02</time>
      </trkpt>
      <trkpt lat="42.18865" lon="0.9235">
        <ele>605.2</ele>
        <time>2022-05-23 08:03:03</time>
      </trkpt>
      <trkpt lat="42.18866" lon="0.92344">
        <ele>605.4</ele>
        <time>2022-05-23 08:03:04</time>
      </trkpt>
      <trkpt lat="42.18866" lon="0.92339">
        <ele>605.8</ele>
        <time>2022-05-23 08:03:05</time>
      </trkpt>
      <trkpt lat="42.18867" lon="0.92333">
        <ele>606</ele>
        <time>2022-05-23 08:03:06</time>
      </trkpt>
      <trkpt lat="42.18867" lon="0.92327">
        <ele>606.2</ele>
        <time>2022-05-23 08:03:07</time>
      </trkpt>
      <trkpt lat="42.18868" lon="0.92322">
        <ele>606.4</ele>
        <time>2022-05-23 08:03:08</time>
      </trkpt>
      <trkpt lat="42.18869" lon="0.92316">
        <ele>606.6</ele>
        <time>2022-05-23 08:03:09</time>
      </trkpt>
      <trkpt lat="42.1887" lon="0.92311">
        <ele>606.8</ele>
        <time>2022-05-23 08:03:10</time>
      </trkpt>
      <trkpt lat="42.1887" lon="0.92306">
        <ele>607</ele>
        <time>2022-05-23 08:03:11</time>
      </trkpt>
      <trkpt lat="42.18871" lon="0.923">
        <ele>607.2</ele>
        <time>2022-05-23 08:03:12</time>
      </trkpt>
      <trkpt lat="42.18871" lon="0.92295">
        <ele>607.4</ele>
        <time>2022-05-23 08:03:13</time>
      </trkpt>
      <trkpt lat="42.18872" lon="0.92291">
        <ele>607.6</ele>
        <time>2022-05-23 08:03:14</time>
      </trkpt>
      <trkpt lat="42.18872" lon="0.92284">
        <ele>607.8</ele>
        <time>2022-05-23 08:03:15</time>
      </trkpt>
      <trkpt lat="42.18872" lon="0.92279">
        <ele>608</ele>
        <time>2022-05-23 08:03:16</time>
      </trkpt>
      <trkpt lat="42.18873" lon="0.92274">
        <ele>608.4</ele>
        <time>2022-05-23 08:03:17</time>
      </trkpt>
      <trkpt lat="42.18874" lon="0.92269">
        <ele>608.6</ele>
        <time>2022-05-23 08:03:18</time>
      </trkpt>
      <trkpt lat="42.18874" lon="0.92264">
        <ele>608.6</ele>
        <time>2022-05-23 08:03:19</time>
      </trkpt>
      <trkpt lat="42.18875" lon="0.92258">
        <ele>608.8</ele>
        <time>2022-05-23 08:03:20</time>
      </trkpt>
      <trkpt lat="42.18876" lon="0.92253">
        <ele>609</ele>
        <time>2022-05-23 08:03:21</time>
      </trkpt>
      <trkpt lat="42.18877" lon="0.92248">
        <ele>609.2</ele>
        <time>2022-05-23 08:03:22</time>
      </trkpt>
      <trkpt lat="42.18877" lon="0.92243">
        <ele>609.4</ele>
        <time>2022-05-23 08:03:23</time>
      </trkpt>
      <trkpt lat="42.18878" lon="0.92237">
        <ele>609.4</ele>
        <time>2022-05-23 08:03:24</time>
      </trkpt>
      <trkpt lat="42.1888" lon="0.92232">
        <ele>609.6</ele>
        <time>2022-05-23 08:03:25</time>
      </trkpt>
      <trkpt lat="42.1888" lon="0.92227">
        <ele>609.8</ele>
        <time>2022-05-23 08:03:26</time>
      </trkpt>
      <trkpt lat="42.18881" lon="0.92221">
        <ele>610</ele>
        <time>2022-05-23 08:03:27</time>
      </trkpt>
      <trkpt lat="42.18882" lon="0.92216">
        <ele>610.2</ele>
        <time>2022-05-23 08:03:28</time>
      </trkpt>
      <trkpt lat="42.18883" lon="0.92211">
        <ele>610.4</ele>
        <time>2022-05-23 08:03:29</time>
      </trkpt>
      <trkpt lat="42.18884" lon="0.92205">
        <ele>610.4</ele>
        <time>2022-05-23 08:03:30</time>
      </trkpt>
      <trkpt lat="42.18885" lon="0.922">
        <ele>610.6</ele>
        <time>2022-05-23 08:03:31</time>
      </trkpt>
      <trkpt lat="42.18885" lon="0.92195">
        <ele>610.8</ele>
        <time>2022-05-23 08:03:32</time>
      </trkpt>
      <trkpt lat="42.18886" lon="0.92189">
        <ele>611</ele>
        <time>2022-05-23 08:03:33</time>
      </trkpt>
      <trkpt lat="42.18886" lon="0.92184">
        <ele>611.2</ele>
        <time>2022-05-23 08:03:34</time>
      </trkpt>
      <trkpt lat="42.18887" lon="0.92179">
        <ele>611.2</ele>
        <time>2022-05-23 08:03:35</time>
      </trkpt>
      <trkpt lat="42.18888" lon="0.92174">
        <ele>611.4</ele>
        <time>2022-05-23 08:03:36</time>
      </trkpt>
      <trkpt lat="42.18889" lon="0.92168">
        <ele>611.6</ele>
        <time>2022-05-23 08:03:37</time>
      </trkpt>
      <trkpt lat="42.18889" lon="0.92163">
        <ele>611.8</ele>
        <time>2022-05-23 08:03:38</time>
      </trkpt>
      <trkpt lat="42.1889" lon="0.92158">
        <ele>612</ele>
        <time>2022-05-23 08:03:39</time>
      </trkpt>
      <trkpt lat="42.18891" lon="0.92153">
        <ele>612</ele>
        <time>2022-05-23 08:03:40</time>
      </trkpt>
      <trkpt lat="42.18891" lon="0.92148">
        <ele>612.2</ele>
        <time>2022-05-23 08:03:41</time>
      </trkpt>
      <trkpt lat="42.18891" lon="0.92143">
        <ele>612.2</ele>
        <time>2022-05-23 08:03:42</time>
      </trkpt>
      <trkpt lat="42.18891" lon="0.92138">
        <ele>612.4</ele>
        <time>2022-05-23 08:03:43</time>
      </trkpt>
      <trkpt lat="42.18891" lon="0.92133">
        <ele>612.4</ele>
        <time>2022-05-23 08:03:44</time>
      </trkpt>
      <trkpt lat="42.18892" lon="0.92127">
        <ele>612.6</ele>
        <time>2022-05-23 08:03:45</time>
      </trkpt>
      <trkpt lat="42.18892" lon="0.92122">
        <ele>612.6</ele>
        <time>2022-05-23 08:03:46</time>
      </trkpt>
      <trkpt lat="42.18893" lon="0.92117">
        <ele>612.8</ele>
        <time>2022-05-23 08:03:47</time>
      </trkpt>
      <trkpt lat="42.18893" lon="0.92111">
        <ele>613</ele>
        <time>2022-05-23 08:03:48</time>
      </trkpt>
      <trkpt lat="42.18893" lon="0.92106">
        <ele>613.2</ele>
        <time>2022-05-23 08:03:49</time>
      </trkpt>
      <trkpt lat="42.18893" lon="0.921">
        <ele>613.2</ele>
        <time>2022-05-23 08:03:50</time>
      </trkpt>
      <trkpt lat="42.18894" lon="0.92095">
        <ele>613.4</ele>
        <time>2022-05-23 08:03:51</time>
      </trkpt>
      <trkpt lat="42.18894" lon="0.9209">
        <ele>613.4</ele>
        <time>2022-05-23 08:03:52</time>
      </trkpt>
      <trkpt lat="42.18895" lon="0.92084">
        <ele>613.4</ele>
        <time>2022-05-23 08:03:53</time>
      </trkpt>
      <trkpt lat="42.18894" lon="0.92079">
        <ele>613.6</ele>
        <time>2022-05-23 08:03:54</time>
      </trkpt>
      <trkpt lat="42.18894" lon="0.92073">
        <ele>613.6</ele>
        <time>2022-05-23 08:03:55</time>
      </trkpt>
      <trkpt lat="42.18894" lon="0.92068">
        <ele>613.6</ele>
        <time>2022-05-23 08:03:56</time>
      </trkpt>
      <trkpt lat="42.18894" lon="0.92062">
        <ele>613.6</ele>
        <time>2022-05-23 08:03:57</time>
      </trkpt>
      <trkpt lat="42.18893" lon="0.92056">
        <ele>613.8</ele>
        <time>2022-05-23 08:03:58</time>
      </trkpt>
      <trkpt lat="42.18893" lon="0.92049">
        <ele>613.8</ele>
        <time>2022-05-23 08:03:59</time>
      </trkpt>
      <trkpt lat="42.18891" lon="0.92043">
        <ele>613.8</ele>
        <time>2022-05-23 08:04:00</time>
      </trkpt>
      <trkpt lat="42.18891" lon="0.92037">
        <ele>613.8</ele>
        <time>2022-05-23 08:04:01</time>
      </trkpt>
      <trkpt lat="42.1889" lon="0.92031">
        <ele>613.8</ele>
        <time>2022-05-23 08:04:02</time>
      </trkpt>
      <trkpt lat="42.18888" lon="0.92024">
        <ele>613.8</ele>
        <time>2022-05-23 08:04:03</time>
      </trkpt>
      <trkpt lat="42.18887" lon="0.92018">
        <ele>613.8</ele>
        <time>2022-05-23 08:04:04</time>
      </trkpt>
      <trkpt lat="42.18885" lon="0.92012">
        <ele>613.8</ele>
        <time>2022-05-23 08:04:05</time>
      </trkpt>
      <trkpt lat="42.18884" lon="0.92006">
        <ele>613.8</ele>
        <time>2022-05-23 08:04:06</time>
      </trkpt>
      <trkpt lat="42.18882" lon="0.91999">
        <ele>613.8</ele>
        <time>2022-05-23 08:04:07</time>
      </trkpt>
      <trkpt lat="42.1888" lon="0.91993">
        <ele>613.8</ele>
        <time>2022-05-23 08:04:08</time>
      </trkpt>
      <trkpt lat="42.18878" lon="0.91986">
        <ele>613.8</ele>
        <time>2022-05-23 08:04:09</time>
      </trkpt>
      <trkpt lat="42.18877" lon="0.9198">
        <ele>613.8</ele>
        <time>2022-05-23 08:04:10</time>
      </trkpt>
      <trkpt lat="42.18874" lon="0.91974">
        <ele>613.8</ele>
        <time>2022-05-23 08:04:11</time>
      </trkpt>
      <trkpt lat="42.18872" lon="0.91968">
        <ele>614</ele>
        <time>2022-05-23 08:04:12</time>
      </trkpt>
      <trkpt lat="42.1887" lon="0.91961">
        <ele>614</ele>
        <time>2022-05-23 08:04:13</time>
      </trkpt>
      <trkpt lat="42.18867" lon="0.91955">
        <ele>614</ele>
        <time>2022-05-23 08:04:14</time>
      </trkpt>
      <trkpt lat="42.18864" lon="0.91949">
        <ele>614</ele>
        <time>2022-05-23 08:04:15</time>
      </trkpt>
      <trkpt lat="42.18862" lon="0.91943">
        <ele>614</ele>
        <time>2022-05-23 08:04:16</time>
      </trkpt>
      <trkpt lat="42.18859" lon="0.91937">
        <ele>614</ele>
        <time>2022-05-23 08:04:17</time>
      </trkpt>
      <trkpt lat="42.18856" lon="0.91931">
        <ele>614</ele>
        <time>2022-05-23 08:04:18</time>
      </trkpt>
      <trkpt lat="42.18853" lon="0.91926">
        <ele>614.2</ele>
        <time>2022-05-23 08:04:19</time>
      </trkpt>
      <trkpt lat="42.18849" lon="0.9192">
        <ele>614.2</ele>
        <time>2022-05-23 08:04:20</time>
      </trkpt>
      <trkpt lat="42.18846" lon="0.91915">
        <ele>614.2</ele>
        <time>2022-05-23 08:04:21</time>
      </trkpt>
      <trkpt lat="42.18842" lon="0.91909">
        <ele>614.2</ele>
        <time>2022-05-23 08:04:22</time>
      </trkpt>
      <trkpt lat="42.18838" lon="0.91904">
        <ele>614.2</ele>
        <time>2022-05-23 08:04:23</time>
      </trkpt>
      <trkpt lat="42.18835" lon="0.91898">
        <ele>614.4</ele>
        <time>2022-05-23 08:04:24</time>
      </trkpt>
      <trkpt lat="42.1883" lon="0.91893">
        <ele>614.4</ele>
        <time>2022-05-23 08:04:25</time>
      </trkpt>
      <trkpt lat="42.18826" lon="0.91888">
        <ele>614.4</ele>
        <time>2022-05-23 08:04:26</time>
      </trkpt>
      <trkpt lat="42.18821" lon="0.91883">
        <ele>614.4</ele>
        <time>2022-05-23 08:04:27</time>
      </trkpt>
      <trkpt lat="42.18817" lon="0.91878">
        <ele>614.4</ele>
        <time>2022-05-23 08:04:28</time>
      </trkpt>
      <trkpt lat="42.18812" lon="0.91873">
        <ele>614.4</ele>
        <time>2022-05-23 08:04:29</time>
      </trkpt>
      <trkpt lat="42.18807" lon="0.91869">
        <ele>614.6</ele>
        <time>2022-05-23 08:04:30</time>
      </trkpt>
      <trkpt lat="42.18803" lon="0.91865">
        <ele>614.6</ele>
        <time>2022-05-23 08:04:31</time>
      </trkpt>
      <trkpt lat="42.18798" lon="0.91861">
        <ele>614.6</ele>
        <time>2022-05-23 08:04:32</time>
      </trkpt>
      <trkpt lat="42.18793" lon="0.91857">
        <ele>614.6</ele>
        <time>2022-05-23 08:04:33</time>
      </trkpt>
      <trkpt lat="42.18788" lon="0.91854">
        <ele>614.8</ele>
        <time>2022-05-23 08:04:34</time>
      </trkpt>
      <trkpt lat="42.18783" lon="0.9185">
        <ele>614.8</ele>
        <time>2022-05-23 08:04:35</time>
      </trkpt>
      <trkpt lat="42.18778" lon="0.91847">
        <ele>614.8</ele>
        <time>2022-05-23 08:04:36</time>
      </trkpt>
      <trkpt lat="42.18773" lon="0.91844">
        <ele>615</ele>
        <time>2022-05-23 08:04:37</time>
      </trkpt>
      <trkpt lat="42.18768" lon="0.91842">
        <ele>615.2</ele>
        <time>2022-05-23 08:04:38</time>
      </trkpt>
      <trkpt lat="42.18762" lon="0.91839">
        <ele>615.2</ele>
        <time>2022-05-23 08:04:39</time>
      </trkpt>
      <trkpt lat="42.18757" lon="0.91837">
        <ele>615.4</ele>
        <time>2022-05-23 08:04:40</time>
      </trkpt>
      <trkpt lat="42.18752" lon="0.91835">
        <ele>615.4</ele>
        <time>2022-05-23 08:04:41</time>
      </trkpt>
      <trkpt lat="42.18746" lon="0.91833">
        <ele>615.6</ele>
        <time>2022-05-23 08:04:42</time>
      </trkpt>
      <trkpt lat="42.18741" lon="0.91832">
        <ele>615.8</ele>
        <time>2022-05-23 08:04:43</time>
      </trkpt>
      <trkpt lat="42.18735" lon="0.9183">
        <ele>615.8</ele>
        <time>2022-05-23 08:04:44</time>
      </trkpt>
      <trkpt lat="42.1873" lon="0.91829">
        <ele>616</ele>
        <time>2022-05-23 08:04:45</time>
      </trkpt>
      <trkpt lat="42.18724" lon="0.91828">
        <ele>616</ele>
        <time>2022-05-23 08:04:46</time>
      </trkpt>
      <trkpt lat="42.18718" lon="0.91827">
        <ele>616</ele>
        <time>2022-05-23 08:04:47</time>
      </trkpt>
      <trkpt lat="42.18713" lon="0.91826">
        <ele>616.2</ele>
        <time>2022-05-23 08:04:48</time>
      </trkpt>
      <trkpt lat="42.18707" lon="0.91826">
        <ele>616.2</ele>
        <time>2022-05-23 08:04:49</time>
      </trkpt>
      <trkpt lat="42.18701" lon="0.91825">
        <ele>616.2</ele>
        <time>2022-05-23 08:04:50</time>
      </trkpt>
      <trkpt lat="42.18696" lon="0.91825">
        <ele>616.4</ele>
        <time>2022-05-23 08:04:51</time>
      </trkpt>
      <trkpt lat="42.1869" lon="0.91825">
        <ele>616.4</ele>
        <time>2022-05-23 08:04:52</time>
      </trkpt>
      <trkpt lat="42.18685" lon="0.91824">
        <ele>616.4</ele>
        <time>2022-05-23 08:04:53</time>
      </trkpt>
      <trkpt lat="42.18679" lon="0.91824">
        <ele>616.4</ele>
        <time>2022-05-23 08:04:54</time>
      </trkpt>
      <trkpt lat="42.18674" lon="0.91823">
        <ele>616.4</ele>
        <time>2022-05-23 08:04:55</time>
      </trkpt>
      <trkpt lat="42.18668" lon="0.91823">
        <ele>616.6</ele>
        <time>2022-05-23 08:04:56</time>
      </trkpt>
      <trkpt lat="42.18662" lon="0.91823">
        <ele>616.4</ele>
        <time>2022-05-23 08:04:57</time>
      </trkpt>
      <trkpt lat="42.18657" lon="0.91823">
        <ele>616.6</ele>
        <time>2022-05-23 08:04:58</time>
      </trkpt>
      <trkpt lat="42.18651" lon="0.91822">
        <ele>616.6</ele>
        <time>2022-05-23 08:04:59</time>
      </trkpt>
      <trkpt lat="42.18645" lon="0.91822">
        <ele>616.6</ele>
        <time>2022-05-23 08:05:00</time>
      </trkpt>
      <trkpt lat="42.18639" lon="0.91821">
        <ele>616.6</ele>
        <time>2022-05-23 08:05:01</time>
      </trkpt>
      <trkpt lat="42.18633" lon="0.91821">
        <ele>616.8</ele>
        <time>2022-05-23 08:05:02</time>
      </trkpt>
      <trkpt lat="42.18628" lon="0.9182">
        <ele>616.8</ele>
        <time>2022-05-23 08:05:03</time>
      </trkpt>
      <trkpt lat="42.18622" lon="0.9182">
        <ele>616.8</ele>
        <time>2022-05-23 08:05:04</time>
      </trkpt>
      <trkpt lat="42.18616" lon="0.91819">
        <ele>616.8</ele>
        <time>2022-05-23 08:05:05</time>
      </trkpt>
      <trkpt lat="42.1861" lon="0.91817">
        <ele>616.8</ele>
        <time>2022-05-23 08:05:06</time>
      </trkpt>
      <trkpt lat="42.18604" lon="0.91816">
        <ele>616.6</ele>
        <time>2022-05-23 08:05:07</time>
      </trkpt>
      <trkpt lat="42.18598" lon="0.91814">
        <ele>616.6</ele>
        <time>2022-05-23 08:05:08</time>
      </trkpt>
      <trkpt lat="42.18592" lon="0.91812">
        <ele>616.6</ele>
        <time>2022-05-23 08:05:09</time>
      </trkpt>
      <trkpt lat="42.18586" lon="0.9181">
        <ele>616.6</ele>
        <time>2022-05-23 08:05:10</time>
      </trkpt>
      <trkpt lat="42.18579" lon="0.91808">
        <ele>616.4</ele>
        <time>2022-05-23 08:05:11</time>
      </trkpt>
      <trkpt lat="42.18573" lon="0.91805">
        <ele>616.4</ele>
        <time>2022-05-23 08:05:12</time>
      </trkpt>
      <trkpt lat="42.18567" lon="0.91802">
        <ele>616.2</ele>
        <time>2022-05-23 08:05:13</time>
      </trkpt>
      <trkpt lat="42.1856" lon="0.91799">
        <ele>616</ele>
        <time>2022-05-23 08:05:14</time>
      </trkpt>
      <trkpt lat="42.18554" lon="0.91795">
        <ele>616</ele>
        <time>2022-05-23 08:05:15</time>
      </trkpt>
      <trkpt lat="42.18548" lon="0.91791">
        <ele>615.8</ele>
        <time>2022-05-23 08:05:16</time>
      </trkpt>
      <trkpt lat="42.18541" lon="0.91787">
        <ele>615.6</ele>
        <time>2022-05-23 08:05:17</time>
      </trkpt>
      <trkpt lat="42.18534" lon="0.91783">
        <ele>615.4</ele>
        <time>2022-05-23 08:05:18</time>
      </trkpt>
      <trkpt lat="42.18528" lon="0.91779">
        <ele>615.4</ele>
        <time>2022-05-23 08:05:19</time>
      </trkpt>
      <trkpt lat="42.18522" lon="0.91774">
        <ele>615</ele>
        <time>2022-05-23 08:05:20</time>
      </trkpt>
      <trkpt lat="42.18515" lon="0.91768">
        <ele>614.8</ele>
        <time>2022-05-23 08:05:21</time>
      </trkpt>
      <trkpt lat="42.18509" lon="0.91763">
        <ele>614.4</ele>
        <time>2022-05-23 08:05:22</time>
      </trkpt>
      <trkpt lat="42.18503" lon="0.91757">
        <ele>614</ele>
        <time>2022-05-23 08:05:23</time>
      </trkpt>
      <trkpt lat="42.18497" lon="0.91751">
        <ele>613.6</ele>
        <time>2022-05-23 08:05:24</time>
      </trkpt>
      <trkpt lat="42.18491" lon="0.91745">
        <ele>613.2</ele>
        <time>2022-05-23 08:05:25</time>
      </trkpt>
      <trkpt lat="42.18485" lon="0.91737">
        <ele>612.6</ele>
        <time>2022-05-23 08:05:26</time>
      </trkpt>
      <trkpt lat="42.18479" lon="0.91729">
        <ele>612.2</ele>
        <time>2022-05-23 08:05:27</time>
      </trkpt>
      <trkpt lat="42.18473" lon="0.91721">
        <ele>611.6</ele>
        <time>2022-05-23 08:05:28</time>
      </trkpt>
      <trkpt lat="42.18467" lon="0.91713">
        <ele>611.2</ele>
        <time>2022-05-23 08:05:29</time>
      </trkpt>
      <trkpt lat="42.18461" lon="0.91703">
        <ele>610.6</ele>
        <time>2022-05-23 08:05:30</time>
      </trkpt>
      <trkpt lat="42.18456" lon="0.91694">
        <ele>610</ele>
        <time>2022-05-23 08:05:31</time>
      </trkpt>
      <trkpt lat="42.18451" lon="0.91683">
        <ele>609.4</ele>
        <time>2022-05-23 08:05:32</time>
      </trkpt>
      <trkpt lat="42.18447" lon="0.91673">
        <ele>608.8</ele>
        <time>2022-05-23 08:05:33</time>
      </trkpt>
      <trkpt lat="42.18442" lon="0.91661">
        <ele>608.2</ele>
        <time>2022-05-23 08:05:34</time>
      </trkpt>
      <trkpt lat="42.18437" lon="0.91651">
        <ele>607.6</ele>
        <time>2022-05-23 08:05:35</time>
      </trkpt>
      <trkpt lat="42.18431" lon="0.91638">
        <ele>607</ele>
        <time>2022-05-23 08:05:36</time>
      </trkpt>
      <trkpt lat="42.18427" lon="0.91624">
        <ele>606.2</ele>
        <time>2022-05-23 08:05:37</time>
      </trkpt>
      <trkpt lat="42.18423" lon="0.91611">
        <ele>605.6</ele>
        <time>2022-05-23 08:05:38</time>
      </trkpt>
      <trkpt lat="42.18419" lon="0.91597">
        <ele>605</ele>
        <time>2022-05-23 08:05:39</time>
      </trkpt>
      <trkpt lat="42.18415" lon="0.91583">
        <ele>604.2</ele>
        <time>2022-05-23 08:05:40</time>
      </trkpt>
      <trkpt lat="42.1841" lon="0.91568">
        <ele>603.6</ele>
        <time>2022-05-23 08:05:41</time>
      </trkpt>
      <trkpt lat="42.18408" lon="0.91553">
        <ele>602.8</ele>
        <time>2022-05-23 08:05:42</time>
      </trkpt>
      <trkpt lat="42.18407" lon="0.91538">
        <ele>602.2</ele>
        <time>2022-05-23 08:05:43</time>
      </trkpt>
      <trkpt lat="42.18407" lon="0.91523">
        <ele>601.4</ele>
        <time>2022-05-23 08:05:44</time>
      </trkpt>
      <trkpt lat="42.18407" lon="0.91508">
        <ele>600.8</ele>
        <time>2022-05-23 08:05:45</time>
      </trkpt>
      <trkpt lat="42.18408" lon="0.91492">
        <ele>600.2</ele>
        <time>2022-05-23 08:05:46</time>
      </trkpt>
      <trkpt lat="42.18409" lon="0.91477">
        <ele>599.4</ele>
        <time>2022-05-23 08:05:47</time>
      </trkpt>
      <trkpt lat="42.18411" lon="0.91462">
        <ele>599</ele>
        <time>2022-05-23 08:05:48</time>
      </trkpt>
      <trkpt lat="42.18411" lon="0.91446">
        <ele>598.6</ele>
        <time>2022-05-23 08:05:49</time>
      </trkpt>
      <trkpt lat="42.18412" lon="0.91431">
        <ele>598.2</ele>
        <time>2022-05-23 08:05:50</time>
      </trkpt>
      <trkpt lat="42.18413" lon="0.91416">
        <ele>598</ele>
        <time>2022-05-23 08:05:51</time>
      </trkpt>
      <trkpt lat="42.18414" lon="0.91402">
        <ele>597.6</ele>
        <time>2022-05-23 08:05:52</time>
      </trkpt>
      <trkpt lat="42.18415" lon="0.91387">
        <ele>597.4</ele>
        <time>2022-05-23 08:05:53</time>
      </trkpt>
      <trkpt lat="42.18416" lon="0.91375">
        <ele>597.2</ele>
        <time>2022-05-23 08:05:54</time>
      </trkpt>
      <trkpt lat="42.18417" lon="0.91362">
        <ele>597</ele>
        <time>2022-05-23 08:05:55</time>
      </trkpt>
      <trkpt lat="42.18418" lon="0.91348">
        <ele>597</ele>
        <time>2022-05-23 08:05:56</time>
      </trkpt>
      <trkpt lat="42.1842" lon="0.91336">
        <ele>596.8</ele>
        <time>2022-05-23 08:05:57</time>
      </trkpt>
      <trkpt lat="42.18421" lon="0.91324">
        <ele>596.8</ele>
        <time>2022-05-23 08:05:58</time>
      </trkpt>
      <trkpt lat="42.18424" lon="0.91312">
        <ele>596.6</ele>
        <time>2022-05-23 08:05:59</time>
      </trkpt>
      <trkpt lat="42.18425" lon="0.91301">
        <ele>596.6</ele>
        <time>2022-05-23 08:06:00</time>
      </trkpt>
      <trkpt lat="42.18425" lon="0.9129">
        <ele>596.6</ele>
        <time>2022-05-23 08:06:01</time>
      </trkpt>
      <trkpt lat="42.18426" lon="0.91278">
        <ele>596.6</ele>
        <time>2022-05-23 08:06:02</time>
      </trkpt>
      <trkpt lat="42.18428" lon="0.91266">
        <ele>596.6</ele>
        <time>2022-05-23 08:06:03</time>
      </trkpt>
      <trkpt lat="42.18428" lon="0.91255">
        <ele>596.6</ele>
        <time>2022-05-23 08:06:04</time>
      </trkpt>
      <trkpt lat="42.1843" lon="0.91243">
        <ele>596.4</ele>
        <time>2022-05-23 08:06:05</time>
      </trkpt>
      <trkpt lat="42.18432" lon="0.91232">
        <ele>596.4</ele>
        <time>2022-05-23 08:06:06</time>
      </trkpt>
      <trkpt lat="42.18432" lon="0.9122">
        <ele>596.4</ele>
        <time>2022-05-23 08:06:07</time>
      </trkpt>
      <trkpt lat="42.18433" lon="0.91209">
        <ele>596.2</ele>
        <time>2022-05-23 08:06:08</time>
      </trkpt>
      <trkpt lat="42.18434" lon="0.91197">
        <ele>595.8</ele>
        <time>2022-05-23 08:06:09</time>
      </trkpt>
      <trkpt lat="42.18435" lon="0.91185">
        <ele>595.6</ele>
        <time>2022-05-23 08:06:10</time>
      </trkpt>
      <trkpt lat="42.18437" lon="0.91172">
        <ele>595.2</ele>
        <time>2022-05-23 08:06:11</time>
      </trkpt>
      <trkpt lat="42.18438" lon="0.91159">
        <ele>594.8</ele>
        <time>2022-05-23 08:06:12</time>
      </trkpt>
      <trkpt lat="42.1844" lon="0.91146">
        <ele>594.4</ele>
        <time>2022-05-23 08:06:13</time>
      </trkpt>
      <trkpt lat="42.18442" lon="0.91134">
        <ele>594</ele>
        <time>2022-05-23 08:06:14</time>
      </trkpt>
      <trkpt lat="42.18444" lon="0.91122">
        <ele>593.6</ele>
        <time>2022-05-23 08:06:15</time>
      </trkpt>
      <trkpt lat="42.18447" lon="0.91108">
        <ele>593.2</ele>
        <time>2022-05-23 08:06:16</time>
      </trkpt>
      <trkpt lat="42.1845" lon="0.91096">
        <ele>592.6</ele>
        <time>2022-05-23 08:06:17</time>
      </trkpt>
      <trkpt lat="42.18454" lon="0.91084">
        <ele>592.2</ele>
        <time>2022-05-23 08:06:18</time>
      </trkpt>
      <trkpt lat="42.18458" lon="0.91071">
        <ele>591.6</ele>
        <time>2022-05-23 08:06:19</time>
      </trkpt>
      <trkpt lat="42.18461" lon="0.91058">
        <ele>591.2</ele>
        <time>2022-05-23 08:06:20</time>
      </trkpt>
      <trkpt lat="42.18466" lon="0.91046">
        <ele>590.6</ele>
        <time>2022-05-23 08:06:21</time>
      </trkpt>
      <trkpt lat="42.18471" lon="0.91033">
        <ele>589.8</ele>
        <time>2022-05-23 08:06:22</time>
      </trkpt>
      <trkpt lat="42.18477" lon="0.91021">
        <ele>589.2</ele>
        <time>2022-05-23 08:06:23</time>
      </trkpt>
      <trkpt lat="42.18483" lon="0.91009">
        <ele>588.4</ele>
        <time>2022-05-23 08:06:24</time>
      </trkpt>
      <trkpt lat="42.1849" lon="0.90997">
        <ele>587.6</ele>
        <time>2022-05-23 08:06:25</time>
      </trkpt>
      <trkpt lat="42.18497" lon="0.90985">
        <ele>586.8</ele>
        <time>2022-05-23 08:06:26</time>
      </trkpt>
      <trkpt lat="42.18505" lon="0.90973">
        <ele>586</ele>
        <time>2022-05-23 08:06:27</time>
      </trkpt>
      <trkpt lat="42.18513" lon="0.90962">
        <ele>585.2</ele>
        <time>2022-05-23 08:06:28</time>
      </trkpt>
      <trkpt lat="42.18521" lon="0.90951">
        <ele>584.6</ele>
        <time>2022-05-23 08:06:29</time>
      </trkpt>
      <trkpt lat="42.18528" lon="0.9094">
        <ele>583.8</ele>
        <time>2022-05-23 08:06:30</time>
      </trkpt>
      <trkpt lat="42.18537" lon="0.9093">
        <ele>583</ele>
        <time>2022-05-23 08:06:31</time>
      </trkpt>
      <trkpt lat="42.18546" lon="0.90919">
        <ele>582.2</ele>
        <time>2022-05-23 08:06:32</time>
      </trkpt>
      <trkpt lat="42.18554" lon="0.90909">
        <ele>581.6</ele>
        <time>2022-05-23 08:06:33</time>
      </trkpt>
      <trkpt lat="42.18562" lon="0.90898">
        <ele>581</ele>
        <time>2022-05-23 08:06:34</time>
      </trkpt>
      <trkpt lat="42.18571" lon="0.90888">
        <ele>580.2</ele>
        <time>2022-05-23 08:06:35</time>
      </trkpt>
      <trkpt lat="42.18579" lon="0.90878">
        <ele>579.4</ele>
        <time>2022-05-23 08:06:36</time>
      </trkpt>
      <trkpt lat="42.18588" lon="0.90867">
        <ele>578.8</ele>
        <time>2022-05-23 08:06:37</time>
      </trkpt>
      <trkpt lat="42.18597" lon="0.90857">
        <ele>578.2</ele>
        <time>2022-05-23 08:06:38</time>
      </trkpt>
      <trkpt lat="42.18605" lon="0.90846">
        <ele>577.4</ele>
        <time>2022-05-23 08:06:39</time>
      </trkpt>
      <trkpt lat="42.18613" lon="0.90835">
        <ele>576.8</ele>
        <time>2022-05-23 08:06:40</time>
      </trkpt>
      <trkpt lat="42.18622" lon="0.90824">
        <ele>576</ele>
        <time>2022-05-23 08:06:41</time>
      </trkpt>
      <trkpt lat="42.1863" lon="0.90812">
        <ele>575.2</ele>
        <time>2022-05-23 08:06:42</time>
      </trkpt>
      <trkpt lat="42.18638" lon="0.90801">
        <ele>574.2</ele>
        <time>2022-05-23 08:06:43</time>
      </trkpt>
      <trkpt lat="42.18646" lon="0.9079">
        <ele>573.4</ele>
        <time>2022-05-23 08:06:44</time>
      </trkpt>
      <trkpt lat="42.18653" lon="0.90778">
        <ele>572.8</ele>
        <time>2022-05-23 08:06:45</time>
      </trkpt>
      <trkpt lat="42.18661" lon="0.90766">
        <ele>572.2</ele>
        <time>2022-05-23 08:06:46</time>
      </trkpt>
      <trkpt lat="42.18669" lon="0.90754">
        <ele>571.6</ele>
        <time>2022-05-23 08:06:47</time>
      </trkpt>
      <trkpt lat="42.18677" lon="0.90743">
        <ele>570.8</ele>
        <time>2022-05-23 08:06:48</time>
      </trkpt>
      <trkpt lat="42.18684" lon="0.90731">
        <ele>570</ele>
        <time>2022-05-23 08:06:49</time>
      </trkpt>
      <trkpt lat="42.18692" lon="0.90719">
        <ele>569.2</ele>
        <time>2022-05-23 08:06:50</time>
      </trkpt>
      <trkpt lat="42.187" lon="0.90707">
        <ele>568.4</ele>
        <time>2022-05-23 08:06:51</time>
      </trkpt>
      <trkpt lat="42.18707" lon="0.90695">
        <ele>567.6</ele>
        <time>2022-05-23 08:06:52</time>
      </trkpt>
      <trkpt lat="42.18715" lon="0.90683">
        <ele>566.8</ele>
        <time>2022-05-23 08:06:53</time>
      </trkpt>
      <trkpt lat="42.18723" lon="0.90672">
        <ele>566</ele>
        <time>2022-05-23 08:06:54</time>
      </trkpt>
      <trkpt lat="42.18731" lon="0.9066">
        <ele>565.2</ele>
        <time>2022-05-23 08:06:55</time>
      </trkpt>
      <trkpt lat="42.18738" lon="0.90649">
        <ele>564.4</ele>
        <time>2022-05-23 08:06:56</time>
      </trkpt>
      <trkpt lat="42.18747" lon="0.90637">
        <ele>563.8</ele>
        <time>2022-05-23 08:06:57</time>
      </trkpt>
      <trkpt lat="42.18754" lon="0.90625">
        <ele>563</ele>
        <time>2022-05-23 08:06:58</time>
      </trkpt>
      <trkpt lat="42.18762" lon="0.90613">
        <ele>562.2</ele>
        <time>2022-05-23 08:06:59</time>
      </trkpt>
      <trkpt lat="42.1877" lon="0.90601">
        <ele>561.4</ele>
        <time>2022-05-23 08:07:00</time>
      </trkpt>
      <trkpt lat="42.18778" lon="0.9059">
        <ele>560.6</ele>
        <time>2022-05-23 08:07:01</time>
      </trkpt>
      <trkpt lat="42.18787" lon="0.90577">
        <ele>560</ele>
        <time>2022-05-23 08:07:02</time>
      </trkpt>
      <trkpt lat="42.18795" lon="0.90565">
        <ele>559.2</ele>
        <time>2022-05-23 08:07:03</time>
      </trkpt>
      <trkpt lat="42.18803" lon="0.90553">
        <ele>558.4</ele>
        <time>2022-05-23 08:07:04</time>
      </trkpt>
      <trkpt lat="42.18811" lon="0.90542">
        <ele>557.6</ele>
        <time>2022-05-23 08:07:05</time>
      </trkpt>
      <trkpt lat="42.18819" lon="0.90531">
        <ele>557</ele>
        <time>2022-05-23 08:07:06</time>
      </trkpt>
      <trkpt lat="42.18827" lon="0.90518">
        <ele>556.2</ele>
        <time>2022-05-23 08:07:07</time>
      </trkpt>
      <trkpt lat="42.18834" lon="0.90506">
        <ele>555.4</ele>
        <time>2022-05-23 08:07:08</time>
      </trkpt>
      <trkpt lat="42.18841" lon="0.90493">
        <ele>554.6</ele>
        <time>2022-05-23 08:07:09</time>
      </trkpt>
      <trkpt lat="42.18848" lon="0.9048">
        <ele>554</ele>
        <time>2022-05-23 08:07:10</time>
      </trkpt>
      <trkpt lat="42.18854" lon="0.90467">
        <ele>553.4</ele>
        <time>2022-05-23 08:07:11</time>
      </trkpt>
      <trkpt lat="42.18859" lon="0.90454">
        <ele>553</ele>
        <time>2022-05-23 08:07:12</time>
      </trkpt>
      <trkpt lat="42.18863" lon="0.9044">
        <ele>552.6</ele>
        <time>2022-05-23 08:07:13</time>
      </trkpt>
      <trkpt lat="42.18866" lon="0.90426">
        <ele>552.6</ele>
        <time>2022-05-23 08:07:14</time>
      </trkpt>
      <trkpt lat="42.18867" lon="0.90413">
        <ele>552.4</ele>
        <time>2022-05-23 08:07:15</time>
      </trkpt>
      <trkpt lat="42.18867" lon="0.904">
        <ele>552.4</ele>
        <time>2022-05-23 08:07:16</time>
      </trkpt>
      <trkpt lat="42.18867" lon="0.90387">
        <ele>552.4</ele>
        <time>2022-05-23 08:07:17</time>
      </trkpt>
      <trkpt lat="42.18865" lon="0.90375">
        <ele>552.6</ele>
        <time>2022-05-23 08:07:18</time>
      </trkpt>
      <trkpt lat="42.18862" lon="0.90363">
        <ele>552.6</ele>
        <time>2022-05-23 08:07:19</time>
      </trkpt>
      <trkpt lat="42.18857" lon="0.90353">
        <ele>552.6</ele>
        <time>2022-05-23 08:07:20</time>
      </trkpt>
      <trkpt lat="42.1885" lon="0.90345">
        <ele>552.8</ele>
        <time>2022-05-23 08:07:21</time>
      </trkpt>
      <trkpt lat="42.18843" lon="0.90339">
        <ele>553</ele>
        <time>2022-05-23 08:07:22</time>
      </trkpt>
      <trkpt lat="42.18835" lon="0.90336">
        <ele>553.2</ele>
        <time>2022-05-23 08:07:23</time>
      </trkpt>
      <trkpt lat="42.18827" lon="0.90335">
        <ele>553.4</ele>
        <time>2022-05-23 08:07:24</time>
      </trkpt>
      <trkpt lat="42.1882" lon="0.90335">
        <ele>553.6</ele>
        <time>2022-05-23 08:07:25</time>
      </trkpt>
      <trkpt lat="42.18812" lon="0.90336">
        <ele>553.6</ele>
        <time>2022-05-23 08:07:26</time>
      </trkpt>
      <trkpt lat="42.18804" lon="0.90336">
        <ele>553.8</ele>
        <time>2022-05-23 08:07:27</time>
      </trkpt>
      <trkpt lat="42.18797" lon="0.90336">
        <ele>554</ele>
        <time>2022-05-23 08:07:28</time>
      </trkpt>
      <trkpt lat="42.18789" lon="0.90335">
        <ele>554.2</ele>
        <time>2022-05-23 08:07:29</time>
      </trkpt>
      <trkpt lat="42.18783" lon="0.90335">
        <ele>554.4</ele>
        <time>2022-05-23 08:07:30</time>
      </trkpt>
      <trkpt lat="42.18776" lon="0.90334">
        <ele>554.6</ele>
        <time>2022-05-23 08:07:31</time>
      </trkpt>
      <trkpt lat="42.18769" lon="0.90334">
        <ele>554.8</ele>
        <time>2022-05-23 08:07:32</time>
      </trkpt>
      <trkpt lat="42.18763" lon="0.90334">
        <ele>555</ele>
        <time>2022-05-23 08:07:33</time>
      </trkpt>
      <trkpt lat="42.18757" lon="0.90334">
        <ele>555.4</ele>
        <time>2022-05-23 08:07:34</time>
      </trkpt>
      <trkpt lat="42.1875" lon="0.90333">
        <ele>555.6</ele>
        <time>2022-05-23 08:07:35</time>
      </trkpt>
      <trkpt lat="42.18745" lon="0.90333">
        <ele>556</ele>
        <time>2022-05-23 08:07:36</time>
      </trkpt>
      <trkpt lat="42.18738" lon="0.90332">
        <ele>556.2</ele>
        <time>2022-05-23 08:07:37</time>
      </trkpt>
      <trkpt lat="42.18733" lon="0.90331">
        <ele>556.6</ele>
        <time>2022-05-23 08:07:38</time>
      </trkpt>
      <trkpt lat="42.18727" lon="0.9033">
        <ele>556.8</ele>
        <time>2022-05-23 08:07:39</time>
      </trkpt>
      <trkpt lat="42.18722" lon="0.9033">
        <ele>557</ele>
        <time>2022-05-23 08:07:40</time>
      </trkpt>
      <trkpt lat="42.18717" lon="0.90328">
        <ele>557.4</ele>
        <time>2022-05-23 08:07:41</time>
      </trkpt>
      <trkpt lat="42.18712" lon="0.90327">
        <ele>557.6</ele>
        <time>2022-05-23 08:07:42</time>
      </trkpt>
      <trkpt lat="42.18707" lon="0.90325">
        <ele>558</ele>
        <time>2022-05-23 08:07:43</time>
      </trkpt>
      <trkpt lat="42.18702" lon="0.90321">
        <ele>558.2</ele>
        <time>2022-05-23 08:07:44</time>
      </trkpt>
      <trkpt lat="42.18699" lon="0.90318">
        <ele>558.6</ele>
        <time>2022-05-23 08:07:45</time>
      </trkpt>
      <trkpt lat="42.18695" lon="0.90313">
        <ele>558.8</ele>
        <time>2022-05-23 08:07:46</time>
      </trkpt>
      <trkpt lat="42.18692" lon="0.90309">
        <ele>559.2</ele>
        <time>2022-05-23 08:07:47</time>
      </trkpt>
      <trkpt lat="42.18688" lon="0.90305">
        <ele>559.6</ele>
        <time>2022-05-23 08:07:48</time>
      </trkpt>
      <trkpt lat="42.18684" lon="0.90301">
        <ele>559.8</ele>
        <time>2022-05-23 08:07:49</time>
      </trkpt>
      <trkpt lat="42.1868" lon="0.90297">
        <ele>560.2</ele>
        <time>2022-05-23 08:07:50</time>
      </trkpt>
      <trkpt lat="42.18677" lon="0.90294">
        <ele>560.6</ele>
        <time>2022-05-23 08:07:51</time>
      </trkpt>
      <trkpt lat="42.18674" lon="0.90291">
        <ele>561</ele>
        <time>2022-05-23 08:07:52</time>
      </trkpt>
      <trkpt lat="42.1867" lon="0.90288">
        <ele>561.2</ele>
        <time>2022-05-23 08:07:53</time>
      </trkpt>
      <trkpt lat="42.18667" lon="0.90286">
        <ele>561.6</ele>
        <time>2022-05-23 08:07:54</time>
      </trkpt>
      <trkpt lat="42.18664" lon="0.90283">
        <ele>561.8</ele>
        <time>2022-05-23 08:07:55</time>
      </trkpt>
      <trkpt lat="42.18661" lon="0.90281">
        <ele>562</ele>
        <time>2022-05-23 08:07:56</time>
      </trkpt>
      <trkpt lat="42.18658" lon="0.90279">
        <ele>562.4</ele>
        <time>2022-05-23 08:07:57</time>
      </trkpt>
      <trkpt lat="42.18655" lon="0.90278">
        <ele>562.6</ele>
        <time>2022-05-23 08:07:58</time>
      </trkpt>
      <trkpt lat="42.18652" lon="0.90277">
        <ele>562.8</ele>
        <time>2022-05-23 08:07:59</time>
      </trkpt>
      <trkpt lat="42.18648" lon="0.90276">
        <ele>563</ele>
        <time>2022-05-23 08:08:00</time>
      </trkpt>
      <trkpt lat="42.18645" lon="0.90276">
        <ele>563.2</ele>
        <time>2022-05-23 08:08:01</time>
      </trkpt>
      <trkpt lat="42.18641" lon="0.90276">
        <ele>563.4</ele>
        <time>2022-05-23 08:08:02</time>
      </trkpt>
      <trkpt lat="42.18638" lon="0.90276">
        <ele>563.6</ele>
        <time>2022-05-23 08:08:03</time>
      </trkpt>
      <trkpt lat="42.18635" lon="0.90276">
        <ele>563.8</ele>
        <time>2022-05-23 08:08:04</time>
      </trkpt>
      <trkpt lat="42.18632" lon="0.90276">
        <ele>564</ele>
        <time>2022-05-23 08:08:05</time>
      </trkpt>
      <trkpt lat="42.18628" lon="0.90277">
        <ele>564</ele>
        <time>2022-05-23 08:08:06</time>
      </trkpt>
      <trkpt lat="42.18625" lon="0.90277">
        <ele>564.2</ele>
        <time>2022-05-23 08:08:07</time>
      </trkpt>
      <trkpt lat="42.18622" lon="0.90278">
        <ele>564.4</ele>
        <time>2022-05-23 08:08:08</time>
      </trkpt>
      <trkpt lat="42.18619" lon="0.90278">
        <ele>564.4</ele>
        <time>2022-05-23 08:08:09</time>
      </trkpt>
      <trkpt lat="42.18615" lon="0.90279">
        <ele>564.6</ele>
        <time>2022-05-23 08:08:10</time>
      </trkpt>
      <trkpt lat="42.18613" lon="0.9028">
        <ele>564.8</ele>
        <time>2022-05-23 08:08:11</time>
      </trkpt>
      <trkpt lat="42.18609" lon="0.9028">
        <ele>565</ele>
        <time>2022-05-23 08:08:12</time>
      </trkpt>
      <trkpt lat="42.18606" lon="0.90281">
        <ele>565.2</ele>
        <time>2022-05-23 08:08:13</time>
      </trkpt>
      <trkpt lat="42.18603" lon="0.90281">
        <ele>565.2</ele>
        <time>2022-05-23 08:08:14</time>
      </trkpt>
      <trkpt lat="42.186" lon="0.90282">
        <ele>565.4</ele>
        <time>2022-05-23 08:08:15</time>
      </trkpt>
      <trkpt lat="42.18597" lon="0.90282">
        <ele>565.6</ele>
        <time>2022-05-23 08:08:16</time>
      </trkpt>
      <trkpt lat="42.18594" lon="0.90282">
        <ele>565.8</ele>
        <time>2022-05-23 08:08:17</time>
      </trkpt>
      <trkpt lat="42.18591" lon="0.90282">
        <ele>566</ele>
        <time>2022-05-23 08:08:18</time>
      </trkpt>
      <trkpt lat="42.18588" lon="0.90282">
        <ele>566.2</ele>
        <time>2022-05-23 08:08:19</time>
      </trkpt>
      <trkpt lat="42.18585" lon="0.90282">
        <ele>566.4</ele>
        <time>2022-05-23 08:08:20</time>
      </trkpt>
      <trkpt lat="42.18582" lon="0.90282">
        <ele>566.6</ele>
        <time>2022-05-23 08:08:21</time>
      </trkpt>
      <trkpt lat="42.18579" lon="0.90281">
        <ele>566.8</ele>
        <time>2022-05-23 08:08:22</time>
      </trkpt>
      <trkpt lat="42.18576" lon="0.90281">
        <ele>567</ele>
        <time>2022-05-23 08:08:23</time>
      </trkpt>
      <trkpt lat="42.18573" lon="0.9028">
        <ele>567.2</ele>
        <time>2022-05-23 08:08:24</time>
      </trkpt>
      <trkpt lat="42.18571" lon="0.90279">
        <ele>567.4</ele>
        <time>2022-05-23 08:08:25</time>
      </trkpt>
      <trkpt lat="42.18568" lon="0.90278">
        <ele>567.6</ele>
        <time>2022-05-23 08:08:26</time>
      </trkpt>
      <trkpt lat="42.18565" lon="0.90277">
        <ele>567.8</ele>
        <time>2022-05-23 08:08:27</time>
      </trkpt>
      <trkpt lat="42.18562" lon="0.90276">
        <ele>567.8</ele>
        <time>2022-05-23 08:08:28</time>
      </trkpt>
      <trkpt lat="42.18559" lon="0.90274">
        <ele>568</ele>
        <time>2022-05-23 08:08:29</time>
      </trkpt>
      <trkpt lat="42.18556" lon="0.90273">
        <ele>568.2</ele>
        <time>2022-05-23 08:08:30</time>
      </trkpt>
      <trkpt lat="42.18553" lon="0.90272">
        <ele>568.4</ele>
        <time>2022-05-23 08:08:31</time>
      </trkpt>
      <trkpt lat="42.18551" lon="0.9027">
        <ele>568.6</ele>
        <time>2022-05-23 08:08:32</time>
      </trkpt>
      <trkpt lat="42.18548" lon="0.90269">
        <ele>568.8</ele>
        <time>2022-05-23 08:08:33</time>
      </trkpt>
      <trkpt lat="42.18545" lon="0.90268">
        <ele>569</ele>
        <time>2022-05-23 08:08:34</time>
      </trkpt>
      <trkpt lat="42.18542" lon="0.90266">
        <ele>569.2</ele>
        <time>2022-05-23 08:08:35</time>
      </trkpt>
      <trkpt lat="42.18539" lon="0.90265">
        <ele>569.4</ele>
        <time>2022-05-23 08:08:36</time>
      </trkpt>
      <trkpt lat="42.18536" lon="0.90263">
        <ele>569.6</ele>
        <time>2022-05-23 08:08:37</time>
      </trkpt>
      <trkpt lat="42.18534" lon="0.90261">
        <ele>569.8</ele>
        <time>2022-05-23 08:08:38</time>
      </trkpt>
      <trkpt lat="42.18531" lon="0.9026">
        <ele>569.8</ele>
        <time>2022-05-23 08:08:39</time>
      </trkpt>
      <trkpt lat="42.18528" lon="0.90259">
        <ele>570</ele>
        <time>2022-05-23 08:08:40</time>
      </trkpt>
      <trkpt lat="42.18525" lon="0.90257">
        <ele>570.2</ele>
        <time>2022-05-23 08:08:41</time>
      </trkpt>
      <trkpt lat="42.18523" lon="0.90256">
        <ele>570.4</ele>
        <time>2022-05-23 08:08:42</time>
      </trkpt>
      <trkpt lat="42.1852" lon="0.90254">
        <ele>570.4</ele>
        <time>2022-05-23 08:08:43</time>
      </trkpt>
      <trkpt lat="42.18517" lon="0.90252">
        <ele>570.6</ele>
        <time>2022-05-23 08:08:44</time>
      </trkpt>
      <trkpt lat="42.18514" lon="0.9025">
        <ele>570.8</ele>
        <time>2022-05-23 08:08:45</time>
      </trkpt>
      <trkpt lat="42.18512" lon="0.90248">
        <ele>570.8</ele>
        <time>2022-05-23 08:08:46</time>
      </trkpt>
      <trkpt lat="42.1851" lon="0.90246">
        <ele>571</ele>
        <time>2022-05-23 08:08:47</time>
      </trkpt>
      <trkpt lat="42.18507" lon="0.90244">
        <ele>571.2</ele>
        <time>2022-05-23 08:08:48</time>
      </trkpt>
      <trkpt lat="42.18505" lon="0.90242">
        <ele>571.4</ele>
        <time>2022-05-23 08:08:49</time>
      </trkpt>
      <trkpt lat="42.18503" lon="0.90241">
        <ele>571.6</ele>
        <time>2022-05-23 08:08:50</time>
      </trkpt>
      <trkpt lat="42.18501" lon="0.90239">
        <ele>571.8</ele>
        <time>2022-05-23 08:08:51</time>
      </trkpt>
      <trkpt lat="42.18499" lon="0.90237">
        <ele>572</ele>
        <time>2022-05-23 08:08:52</time>
      </trkpt>
      <trkpt lat="42.18497" lon="0.90235">
        <ele>572</ele>
        <time>2022-05-23 08:08:53</time>
      </trkpt>
      <trkpt lat="42.18495" lon="0.90233">
        <ele>572.2</ele>
        <time>2022-05-23 08:08:54</time>
      </trkpt>
      <trkpt lat="42.18492" lon="0.90232">
        <ele>572.4</ele>
        <time>2022-05-23 08:08:55</time>
      </trkpt>
      <trkpt lat="42.1849" lon="0.9023">
        <ele>572.6</ele>
        <time>2022-05-23 08:08:56</time>
      </trkpt>
      <trkpt lat="42.18488" lon="0.90227">
        <ele>572.8</ele>
        <time>2022-05-23 08:08:57</time>
      </trkpt>
      <trkpt lat="42.18487" lon="0.90225">
        <ele>573</ele>
        <time>2022-05-23 08:08:58</time>
      </trkpt>
      <trkpt lat="42.18484" lon="0.90223">
        <ele>573.2</ele>
        <time>2022-05-23 08:08:59</time>
      </trkpt>
      <trkpt lat="42.18482" lon="0.90221">
        <ele>573.4</ele>
        <time>2022-05-23 08:09:00</time>
      </trkpt>
      <trkpt lat="42.1848" lon="0.90219">
        <ele>573.4</ele>
        <time>2022-05-23 08:09:01</time>
      </trkpt>
      <trkpt lat="42.18478" lon="0.90217">
        <ele>573.6</ele>
        <time>2022-05-23 08:09:02</time>
      </trkpt>
      <trkpt lat="42.18476" lon="0.90214">
        <ele>573.8</ele>
        <time>2022-05-23 08:09:03</time>
      </trkpt>
      <trkpt lat="42.18474" lon="0.90212">
        <ele>574</ele>
        <time>2022-05-23 08:09:04</time>
      </trkpt>
      <trkpt lat="42.18471" lon="0.9021">
        <ele>574</ele>
        <time>2022-05-23 08:09:05</time>
      </trkpt>
      <trkpt lat="42.1847" lon="0.90208">
        <ele>574.2</ele>
        <time>2022-05-23 08:09:06</time>
      </trkpt>
      <trkpt lat="42.18468" lon="0.90206">
        <ele>574.4</ele>
        <time>2022-05-23 08:09:07</time>
      </trkpt>
      <trkpt lat="42.18466" lon="0.90204">
        <ele>574.6</ele>
        <time>2022-05-23 08:09:08</time>
      </trkpt>
      <trkpt lat="42.18463" lon="0.90202">
        <ele>574.8</ele>
        <time>2022-05-23 08:09:09</time>
      </trkpt>
      <trkpt lat="42.18461" lon="0.90201">
        <ele>575</ele>
        <time>2022-05-23 08:09:10</time>
      </trkpt>
      <trkpt lat="42.18459" lon="0.90199">
        <ele>575.2</ele>
        <time>2022-05-23 08:09:11</time>
      </trkpt>
      <trkpt lat="42.18457" lon="0.90197">
        <ele>575.2</ele>
        <time>2022-05-23 08:09:12</time>
      </trkpt>
      <trkpt lat="42.18455" lon="0.90195">
        <ele>575.4</ele>
        <time>2022-05-23 08:09:13</time>
      </trkpt>
      <trkpt lat="42.18454" lon="0.90194">
        <ele>575.6</ele>
        <time>2022-05-23 08:09:14</time>
      </trkpt>
      <trkpt lat="42.1845" lon="0.90192">
        <ele>575.8</ele>
        <time>2022-05-23 08:09:15</time>
      </trkpt>
      <trkpt lat="42.18448" lon="0.90189">
        <ele>575.8</ele>
        <time>2022-05-23 08:09:16</time>
      </trkpt>
      <trkpt lat="42.18446" lon="0.90186">
        <ele>576</ele>
        <time>2022-05-23 08:09:17</time>
      </trkpt>
      <trkpt lat="42.18444" lon="0.90184">
        <ele>576.2</ele>
        <time>2022-05-23 08:09:18</time>
      </trkpt>
      <trkpt lat="42.18442" lon="0.90182">
        <ele>576.2</ele>
        <time>2022-05-23 08:09:19</time>
      </trkpt>
      <trkpt lat="42.1844" lon="0.9018">
        <ele>576.4</ele>
        <time>2022-05-23 08:09:20</time>
      </trkpt>
      <trkpt lat="42.18438" lon="0.90178">
        <ele>576.6</ele>
        <time>2022-05-23 08:09:21</time>
      </trkpt>
      <trkpt lat="42.18436" lon="0.90176">
        <ele>576.8</ele>
        <time>2022-05-23 08:09:22</time>
      </trkpt>
      <trkpt lat="42.18434" lon="0.90174">
        <ele>576.8</ele>
        <time>2022-05-23 08:09:23</time>
      </trkpt>
      <trkpt lat="42.18431" lon="0.90172">
        <ele>577</ele>
        <time>2022-05-23 08:09:24</time>
      </trkpt>
      <trkpt lat="42.1843" lon="0.9017">
        <ele>577.2</ele>
        <time>2022-05-23 08:09:25</time>
      </trkpt>
      <trkpt lat="42.18428" lon="0.90168">
        <ele>577.4</ele>
        <time>2022-05-23 08:09:26</time>
      </trkpt>
      <trkpt lat="42.18425" lon="0.90165">
        <ele>577.6</ele>
        <time>2022-05-23 08:09:27</time>
      </trkpt>
      <trkpt lat="42.18423" lon="0.90163">
        <ele>577.6</ele>
        <time>2022-05-23 08:09:28</time>
      </trkpt>
      <trkpt lat="42.18421" lon="0.90161">
        <ele>577.8</ele>
        <time>2022-05-23 08:09:29</time>
      </trkpt>
      <trkpt lat="42.1842" lon="0.90158">
        <ele>578</ele>
        <time>2022-05-23 08:09:30</time>
      </trkpt>
      <trkpt lat="42.18418" lon="0.90156">
        <ele>578.2</ele>
        <time>2022-05-23 08:09:31</time>
      </trkpt>
      <trkpt lat="42.18416" lon="0.90154">
        <ele>578.4</ele>
        <time>2022-05-23 08:09:32</time>
      </trkpt>
      <trkpt lat="42.18415" lon="0.90151">
        <ele>578.4</ele>
        <time>2022-05-23 08:09:33</time>
      </trkpt>
      <trkpt lat="42.18413" lon="0.90149">
        <ele>578.6</ele>
        <time>2022-05-23 08:09:34</time>
      </trkpt>
      <trkpt lat="42.18411" lon="0.90147">
        <ele>578.8</ele>
        <time>2022-05-23 08:09:35</time>
      </trkpt>
      <trkpt lat="42.1841" lon="0.90144">
        <ele>579</ele>
        <time>2022-05-23 08:09:36</time>
      </trkpt>
      <trkpt lat="42.18409" lon="0.90141">
        <ele>579.2</ele>
        <time>2022-05-23 08:09:37</time>
      </trkpt>
      <trkpt lat="42.18407" lon="0.90139">
        <ele>579.4</ele>
        <time>2022-05-23 08:09:38</time>
      </trkpt>
      <trkpt lat="42.18406" lon="0.90136">
        <ele>579.6</ele>
        <time>2022-05-23 08:09:39</time>
      </trkpt>
      <trkpt lat="42.18405" lon="0.90133">
        <ele>579.8</ele>
        <time>2022-05-23 08:09:40</time>
      </trkpt>
      <trkpt lat="42.18404" lon="0.9013">
        <ele>579.8</ele>
        <time>2022-05-23 08:09:41</time>
      </trkpt>
      <trkpt lat="42.18402" lon="0.90127">
        <ele>580</ele>
        <time>2022-05-23 08:09:42</time>
      </trkpt>
      <trkpt lat="42.18401" lon="0.90124">
        <ele>580.2</ele>
        <time>2022-05-23 08:09:43</time>
      </trkpt>
      <trkpt lat="42.18401" lon="0.90121">
        <ele>580.4</ele>
        <time>2022-05-23 08:09:44</time>
      </trkpt>
      <trkpt lat="42.18399" lon="0.90117">
        <ele>580.6</ele>
        <time>2022-05-23 08:09:45</time>
      </trkpt>
      <trkpt lat="42.18399" lon="0.90114">
        <ele>580.8</ele>
        <time>2022-05-23 08:09:46</time>
      </trkpt>
      <trkpt lat="42.18397" lon="0.90111">
        <ele>581</ele>
        <time>2022-05-23 08:09:47</time>
      </trkpt>
      <trkpt lat="42.18396" lon="0.90108">
        <ele>581</ele>
        <time>2022-05-23 08:09:48</time>
      </trkpt>
      <trkpt lat="42.18396" lon="0.90104">
        <ele>581.2</ele>
        <time>2022-05-23 08:09:49</time>
      </trkpt>
      <trkpt lat="42.18395" lon="0.90101">
        <ele>581.4</ele>
        <time>2022-05-23 08:09:50</time>
      </trkpt>
      <trkpt lat="42.18394" lon="0.90098">
        <ele>581.4</ele>
        <time>2022-05-23 08:09:51</time>
      </trkpt>
      <trkpt lat="42.18393" lon="0.90095">
        <ele>581.6</ele>
        <time>2022-05-23 08:09:52</time>
      </trkpt>
      <trkpt lat="42.18392" lon="0.90092">
        <ele>581.8</ele>
        <time>2022-05-23 08:09:53</time>
      </trkpt>
      <trkpt lat="42.18391" lon="0.90089">
        <ele>582</ele>
        <time>2022-05-23 08:09:54</time>
      </trkpt>
      <trkpt lat="42.18391" lon="0.90085">
        <ele>582.2</ele>
        <time>2022-05-23 08:09:55</time>
      </trkpt>
      <trkpt lat="42.18389" lon="0.90082">
        <ele>582.4</ele>
        <time>2022-05-23 08:09:56</time>
      </trkpt>
      <trkpt lat="42.18389" lon="0.90079">
        <ele>582.6</ele>
        <time>2022-05-23 08:09:57</time>
      </trkpt>
      <trkpt lat="42.18388" lon="0.90076">
        <ele>582.8</ele>
        <time>2022-05-23 08:09:58</time>
      </trkpt>
      <trkpt lat="42.18387" lon="0.90073">
        <ele>582.8</ele>
        <time>2022-05-23 08:09:59</time>
      </trkpt>
      <trkpt lat="42.18386" lon="0.9007">
        <ele>583</ele>
        <time>2022-05-23 08:10:00</time>
      </trkpt>
      <trkpt lat="42.18385" lon="0.90067">
        <ele>583.2</ele>
        <time>2022-05-23 08:10:01</time>
      </trkpt>
      <trkpt lat="42.18384" lon="0.90064">
        <ele>583.4</ele>
        <time>2022-05-23 08:10:02</time>
      </trkpt>
      <trkpt lat="42.18383" lon="0.90061">
        <ele>583.4</ele>
        <time>2022-05-23 08:10:03</time>
      </trkpt>
      <trkpt lat="42.18381" lon="0.90057">
        <ele>583.6</ele>
        <time>2022-05-23 08:10:04</time>
      </trkpt>
      <trkpt lat="42.1838" lon="0.90054">
        <ele>583.6</ele>
        <time>2022-05-23 08:10:05</time>
      </trkpt>
      <trkpt lat="42.18378" lon="0.9005">
        <ele>583.8</ele>
        <time>2022-05-23 08:10:06</time>
      </trkpt>
      <trkpt lat="42.18376" lon="0.90047">
        <ele>583.8</ele>
        <time>2022-05-23 08:10:07</time>
      </trkpt>
      <trkpt lat="42.18375" lon="0.90043">
        <ele>583.8</ele>
        <time>2022-05-23 08:10:08</time>
      </trkpt>
      <trkpt lat="42.18372" lon="0.90039">
        <ele>583.8</ele>
        <time>2022-05-23 08:10:09</time>
      </trkpt>
      <trkpt lat="42.18369" lon="0.90035">
        <ele>583.6</ele>
        <time>2022-05-23 08:10:10</time>
      </trkpt>
      <trkpt lat="42.18366" lon="0.90031">
        <ele>583.6</ele>
        <time>2022-05-23 08:10:11</time>
      </trkpt>
      <trkpt lat="42.18363" lon="0.90027">
        <ele>583.4</ele>
        <time>2022-05-23 08:10:12</time>
      </trkpt>
      <trkpt lat="42.1836" lon="0.90023">
        <ele>583.4</ele>
        <time>2022-05-23 08:10:13</time>
      </trkpt>
      <trkpt lat="42.18356" lon="0.90018">
        <ele>583.2</ele>
        <time>2022-05-23 08:10:14</time>
      </trkpt>
      <trkpt lat="42.18352" lon="0.90014">
        <ele>583</ele>
        <time>2022-05-23 08:10:15</time>
      </trkpt>
      <trkpt lat="42.18348" lon="0.9001">
        <ele>582.8</ele>
        <time>2022-05-23 08:10:16</time>
      </trkpt>
      <trkpt lat="42.18343" lon="0.90006">
        <ele>582.8</ele>
        <time>2022-05-23 08:10:17</time>
      </trkpt>
      <trkpt lat="42.18338" lon="0.90002">
        <ele>582.4</ele>
        <time>2022-05-23 08:10:18</time>
      </trkpt>
      <trkpt lat="42.18333" lon="0.89998">
        <ele>582.2</ele>
        <time>2022-05-23 08:10:19</time>
      </trkpt>
      <trkpt lat="42.18328" lon="0.89994">
        <ele>582</ele>
        <time>2022-05-23 08:10:20</time>
      </trkpt>
      <trkpt lat="42.18323" lon="0.8999">
        <ele>581.8</ele>
        <time>2022-05-23 08:10:21</time>
      </trkpt>
      <trkpt lat="42.18318" lon="0.89986">
        <ele>581.6</ele>
        <time>2022-05-23 08:10:22</time>
      </trkpt>
      <trkpt lat="42.18313" lon="0.89982">
        <ele>581.6</ele>
        <time>2022-05-23 08:10:23</time>
      </trkpt>
      <trkpt lat="42.18308" lon="0.89978">
        <ele>581.6</ele>
        <time>2022-05-23 08:10:24</time>
      </trkpt>
      <trkpt lat="42.18304" lon="0.89974">
        <ele>581.6</ele>
        <time>2022-05-23 08:10:25</time>
      </trkpt>
      <trkpt lat="42.18299" lon="0.8997">
        <ele>581.6</ele>
        <time>2022-05-23 08:10:26</time>
      </trkpt>
      <trkpt lat="42.18295" lon="0.89966">
        <ele>581.6</ele>
        <time>2022-05-23 08:10:27</time>
      </trkpt>
      <trkpt lat="42.18291" lon="0.89961">
        <ele>581.8</ele>
        <time>2022-05-23 08:10:28</time>
      </trkpt>
      <trkpt lat="42.18288" lon="0.89957">
        <ele>582</ele>
        <time>2022-05-23 08:10:29</time>
      </trkpt>
      <trkpt lat="42.18285" lon="0.89952">
        <ele>582</ele>
        <time>2022-05-23 08:10:30</time>
      </trkpt>
      <trkpt lat="42.18282" lon="0.89948">
        <ele>582.2</ele>
        <time>2022-05-23 08:10:31</time>
      </trkpt>
      <trkpt lat="42.18279" lon="0.89943">
        <ele>582.4</ele>
        <time>2022-05-23 08:10:32</time>
      </trkpt>
      <trkpt lat="42.18277" lon="0.89938">
        <ele>582.8</ele>
        <time>2022-05-23 08:10:33</time>
      </trkpt>
      <trkpt lat="42.18274" lon="0.89934">
        <ele>583</ele>
        <time>2022-05-23 08:10:34</time>
      </trkpt>
      <trkpt lat="42.18272" lon="0.8993">
        <ele>583.2</ele>
        <time>2022-05-23 08:10:35</time>
      </trkpt>
      <trkpt lat="42.1827" lon="0.89925">
        <ele>583.4</ele>
        <time>2022-05-23 08:10:36</time>
      </trkpt>
      <trkpt lat="42.18267" lon="0.89921">
        <ele>583.8</ele>
        <time>2022-05-23 08:10:37</time>
      </trkpt>
      <trkpt lat="42.18265" lon="0.89917">
        <ele>584</ele>
        <time>2022-05-23 08:10:38</time>
      </trkpt>
      <trkpt lat="42.18263" lon="0.89913">
        <ele>584.2</ele>
        <time>2022-05-23 08:10:39</time>
      </trkpt>
      <trkpt lat="42.18261" lon="0.89909">
        <ele>584.6</ele>
        <time>2022-05-23 08:10:40</time>
      </trkpt>
      <trkpt lat="42.18258" lon="0.89905">
        <ele>584.8</ele>
        <time>2022-05-23 08:10:41</time>
      </trkpt>
      <trkpt lat="42.18255" lon="0.89901">
        <ele>585</ele>
        <time>2022-05-23 08:10:42</time>
      </trkpt>
      <trkpt lat="42.18252" lon="0.89897">
        <ele>585.2</ele>
        <time>2022-05-23 08:10:43</time>
      </trkpt>
      <trkpt lat="42.18249" lon="0.89894">
        <ele>585.4</ele>
        <time>2022-05-23 08:10:44</time>
      </trkpt>
      <trkpt lat="42.18246" lon="0.8989">
        <ele>585.6</ele>
        <time>2022-05-23 08:10:45</time>
      </trkpt>
      <trkpt lat="42.18244" lon="0.89886">
        <ele>585.8</ele>
        <time>2022-05-23 08:10:46</time>
      </trkpt>
      <trkpt lat="42.18239" lon="0.89882">
        <ele>586</ele>
        <time>2022-05-23 08:10:47</time>
      </trkpt>
      <trkpt lat="42.18236" lon="0.89878">
        <ele>586</ele>
        <time>2022-05-23 08:10:48</time>
      </trkpt>
      <trkpt lat="42.18232" lon="0.89874">
        <ele>586.2</ele>
        <time>2022-05-23 08:10:49</time>
      </trkpt>
      <trkpt lat="42.18228" lon="0.89871">
        <ele>586.2</ele>
        <time>2022-05-23 08:10:50</time>
      </trkpt>
      <trkpt lat="42.18225" lon="0.89867">
        <ele>586.4</ele>
        <time>2022-05-23 08:10:51</time>
      </trkpt>
      <trkpt lat="42.18221" lon="0.89863">
        <ele>586.4</ele>
        <time>2022-05-23 08:10:52</time>
      </trkpt>
      <trkpt lat="42.18218" lon="0.89859">
        <ele>586.6</ele>
        <time>2022-05-23 08:10:53</time>
      </trkpt>
      <trkpt lat="42.18215" lon="0.89854">
        <ele>586.6</ele>
        <time>2022-05-23 08:10:54</time>
      </trkpt>
      <trkpt lat="42.18212" lon="0.8985">
        <ele>586.8</ele>
        <time>2022-05-23 08:10:55</time>
      </trkpt>
      <trkpt lat="42.18208" lon="0.89846">
        <ele>586.8</ele>
        <time>2022-05-23 08:10:56</time>
      </trkpt>
      <trkpt lat="42.18205" lon="0.89842">
        <ele>587</ele>
        <time>2022-05-23 08:10:57</time>
      </trkpt>
      <trkpt lat="42.18202" lon="0.89838">
        <ele>587</ele>
        <time>2022-05-23 08:10:58</time>
      </trkpt>
      <trkpt lat="42.18198" lon="0.89834">
        <ele>587</ele>
        <time>2022-05-23 08:10:59</time>
      </trkpt>
      <trkpt lat="42.18194" lon="0.8983">
        <ele>587.2</ele>
        <time>2022-05-23 08:11:00</time>
      </trkpt>
      <trkpt lat="42.18191" lon="0.89826">
        <ele>587.2</ele>
        <time>2022-05-23 08:11:01</time>
      </trkpt>
      <trkpt lat="42.18187" lon="0.89823">
        <ele>587.4</ele>
        <time>2022-05-23 08:11:02</time>
      </trkpt>
      <trkpt lat="42.18184" lon="0.89819">
        <ele>587.4</ele>
        <time>2022-05-23 08:11:03</time>
      </trkpt>
      <trkpt lat="42.18181" lon="0.89815">
        <ele>587.6</ele>
        <time>2022-05-23 08:11:04</time>
      </trkpt>
      <trkpt lat="42.18177" lon="0.89811">
        <ele>587.8</ele>
        <time>2022-05-23 08:11:05</time>
      </trkpt>
      <trkpt lat="42.18174" lon="0.89808">
        <ele>587.8</ele>
        <time>2022-05-23 08:11:06</time>
      </trkpt>
      <trkpt lat="42.18171" lon="0.89804">
        <ele>588</ele>
        <time>2022-05-23 08:11:07</time>
      </trkpt>
      <trkpt lat="42.18167" lon="0.898">
        <ele>588</ele>
        <time>2022-05-23 08:11:08</time>
      </trkpt>
      <trkpt lat="42.18164" lon="0.89796">
        <ele>588.2</ele>
        <time>2022-05-23 08:11:09</time>
      </trkpt>
      <trkpt lat="42.18161" lon="0.89793">
        <ele>588.2</ele>
        <time>2022-05-23 08:11:10</time>
      </trkpt>
      <trkpt lat="42.18158" lon="0.89789">
        <ele>588.4</ele>
        <time>2022-05-23 08:11:11</time>
      </trkpt>
      <trkpt lat="42.18154" lon="0.89785">
        <ele>588.6</ele>
        <time>2022-05-23 08:11:12</time>
      </trkpt>
      <trkpt lat="42.18151" lon="0.89782">
        <ele>588.6</ele>
        <time>2022-05-23 08:11:13</time>
      </trkpt>
      <trkpt lat="42.18148" lon="0.89779">
        <ele>588.8</ele>
        <time>2022-05-23 08:11:14</time>
      </trkpt>
      <trkpt lat="42.18144" lon="0.89775">
        <ele>588.8</ele>
        <time>2022-05-23 08:11:15</time>
      </trkpt>
      <trkpt lat="42.18141" lon="0.89772">
        <ele>589</ele>
        <time>2022-05-23 08:11:16</time>
      </trkpt>
      <trkpt lat="42.18138" lon="0.89768">
        <ele>589</ele>
        <time>2022-05-23 08:11:17</time>
      </trkpt>
      <trkpt lat="42.18134" lon="0.89765">
        <ele>589.2</ele>
        <time>2022-05-23 08:11:18</time>
      </trkpt>
      <trkpt lat="42.1813" lon="0.89761">
        <ele>589.2</ele>
        <time>2022-05-23 08:11:19</time>
      </trkpt>
      <trkpt lat="42.18127" lon="0.89758">
        <ele>589.4</ele>
        <time>2022-05-23 08:11:20</time>
      </trkpt>
      <trkpt lat="42.18123" lon="0.89755">
        <ele>589.4</ele>
        <time>2022-05-23 08:11:21</time>
      </trkpt>
      <trkpt lat="42.18119" lon="0.89752">
        <ele>589.6</ele>
        <time>2022-05-23 08:11:22</time>
      </trkpt>
      <trkpt lat="42.18115" lon="0.89748">
        <ele>589.6</ele>
        <time>2022-05-23 08:11:23</time>
      </trkpt>
      <trkpt lat="42.18111" lon="0.89745">
        <ele>589.8</ele>
        <time>2022-05-23 08:11:24</time>
      </trkpt>
      <trkpt lat="42.18107" lon="0.89742">
        <ele>589.8</ele>
        <time>2022-05-23 08:11:25</time>
      </trkpt>
      <trkpt lat="42.18103" lon="0.89739">
        <ele>589.8</ele>
        <time>2022-05-23 08:11:26</time>
      </trkpt>
      <trkpt lat="42.18099" lon="0.89735">
        <ele>590</ele>
        <time>2022-05-23 08:11:27</time>
      </trkpt>
      <trkpt lat="42.18095" lon="0.89732">
        <ele>590</ele>
        <time>2022-05-23 08:11:28</time>
      </trkpt>
      <trkpt lat="42.18091" lon="0.89729">
        <ele>590</ele>
        <time>2022-05-23 08:11:29</time>
      </trkpt>
      <trkpt lat="42.18086" lon="0.89726">
        <ele>590</ele>
        <time>2022-05-23 08:11:30</time>
      </trkpt>
      <trkpt lat="42.18081" lon="0.89723">
        <ele>590</ele>
        <time>2022-05-23 08:11:31</time>
      </trkpt>
      <trkpt lat="42.18077" lon="0.8972">
        <ele>589.8</ele>
        <time>2022-05-23 08:11:32</time>
      </trkpt>
      <trkpt lat="42.18072" lon="0.89717">
        <ele>589.8</ele>
        <time>2022-05-23 08:11:33</time>
      </trkpt>
      <trkpt lat="42.18067" lon="0.89714">
        <ele>589.8</ele>
        <time>2022-05-23 08:11:34</time>
      </trkpt>
      <trkpt lat="42.18062" lon="0.89711">
        <ele>589.6</ele>
        <time>2022-05-23 08:11:35</time>
      </trkpt>
      <trkpt lat="42.18057" lon="0.89708">
        <ele>589.6</ele>
        <time>2022-05-23 08:11:36</time>
      </trkpt>
      <trkpt lat="42.18052" lon="0.89706">
        <ele>589.4</ele>
        <time>2022-05-23 08:11:37</time>
      </trkpt>
      <trkpt lat="42.18046" lon="0.89703">
        <ele>589.2</ele>
        <time>2022-05-23 08:11:38</time>
      </trkpt>
      <trkpt lat="42.18041" lon="0.897">
        <ele>589</ele>
        <time>2022-05-23 08:11:39</time>
      </trkpt>
      <trkpt lat="42.18035" lon="0.89697">
        <ele>588.8</ele>
        <time>2022-05-23 08:11:40</time>
      </trkpt>
      <trkpt lat="42.18029" lon="0.89694">
        <ele>588.6</ele>
        <time>2022-05-23 08:11:41</time>
      </trkpt>
      <trkpt lat="42.18023" lon="0.89691">
        <ele>588.2</ele>
        <time>2022-05-23 08:11:42</time>
      </trkpt>
      <trkpt lat="42.18016" lon="0.89688">
        <ele>587.8</ele>
        <time>2022-05-23 08:11:43</time>
      </trkpt>
      <trkpt lat="42.18009" lon="0.89685">
        <ele>587.4</ele>
        <time>2022-05-23 08:11:44</time>
      </trkpt>
      <trkpt lat="42.18001" lon="0.89682">
        <ele>587</ele>
        <time>2022-05-23 08:11:45</time>
      </trkpt>
      <trkpt lat="42.17993" lon="0.89679">
        <ele>586.4</ele>
        <time>2022-05-23 08:11:46</time>
      </trkpt>
      <trkpt lat="42.17985" lon="0.89676">
        <ele>585.8</ele>
        <time>2022-05-23 08:11:47</time>
      </trkpt>
      <trkpt lat="42.17976" lon="0.89673">
        <ele>585.2</ele>
        <time>2022-05-23 08:11:48</time>
      </trkpt>
      <trkpt lat="42.17968" lon="0.89671">
        <ele>584.6</ele>
        <time>2022-05-23 08:11:49</time>
      </trkpt>
      <trkpt lat="42.17958" lon="0.89669">
        <ele>583.8</ele>
        <time>2022-05-23 08:11:50</time>
      </trkpt>
      <trkpt lat="42.17948" lon="0.89668">
        <ele>583</ele>
        <time>2022-05-23 08:11:51</time>
      </trkpt>
      <trkpt lat="42.17938" lon="0.89667">
        <ele>582.2</ele>
        <time>2022-05-23 08:11:52</time>
      </trkpt>
      <trkpt lat="42.17927" lon="0.89666">
        <ele>581.4</ele>
        <time>2022-05-23 08:11:53</time>
      </trkpt>
      <trkpt lat="42.17916" lon="0.89666">
        <ele>580.4</ele>
        <time>2022-05-23 08:11:54</time>
      </trkpt>
      <trkpt lat="42.17906" lon="0.89665">
        <ele>579.8</ele>
        <time>2022-05-23 08:11:55</time>
      </trkpt>
      <trkpt lat="42.17895" lon="0.89664">
        <ele>579</ele>
        <time>2022-05-23 08:11:56</time>
      </trkpt>
      <trkpt lat="42.17884" lon="0.89665">
        <ele>578.2</ele>
        <time>2022-05-23 08:11:57</time>
      </trkpt>
      <trkpt lat="42.17872" lon="0.89665">
        <ele>577.6</ele>
        <time>2022-05-23 08:11:58</time>
      </trkpt>
      <trkpt lat="42.17863" lon="0.89665">
        <ele>577</ele>
        <time>2022-05-23 08:11:59</time>
      </trkpt>
      <trkpt lat="42.17852" lon="0.89665">
        <ele>576.8</ele>
        <time>2022-05-23 08:12:00</time>
      </trkpt>
      <trkpt lat="42.17842" lon="0.89665">
        <ele>576.4</ele>
        <time>2022-05-23 08:12:01</time>
      </trkpt>
      <trkpt lat="42.17833" lon="0.89665">
        <ele>576.4</ele>
        <time>2022-05-23 08:12:02</time>
      </trkpt>
      <trkpt lat="42.17823" lon="0.89665">
        <ele>576.4</ele>
        <time>2022-05-23 08:12:03</time>
      </trkpt>
      <trkpt lat="42.17814" lon="0.89665">
        <ele>576.4</ele>
        <time>2022-05-23 08:12:04</time>
      </trkpt>
      <trkpt lat="42.17805" lon="0.89665">
        <ele>576.4</ele>
        <time>2022-05-23 08:12:05</time>
      </trkpt>
      <trkpt lat="42.17798" lon="0.89665">
        <ele>576.4</ele>
        <time>2022-05-23 08:12:06</time>
      </trkpt>
      <trkpt lat="42.1779" lon="0.89665">
        <ele>576.6</ele>
        <time>2022-05-23 08:12:07</time>
      </trkpt>
      <trkpt lat="42.17782" lon="0.89665">
        <ele>576.6</ele>
        <time>2022-05-23 08:12:08</time>
      </trkpt>
      <trkpt lat="42.17774" lon="0.89665">
        <ele>576.6</ele>
        <time>2022-05-23 08:12:09</time>
      </trkpt>
      <trkpt lat="42.17766" lon="0.89664">
        <ele>576.6</ele>
        <time>2022-05-23 08:12:10</time>
      </trkpt>
      <trkpt lat="42.17759" lon="0.89664">
        <ele>576.6</ele>
        <time>2022-05-23 08:12:11</time>
      </trkpt>
      <trkpt lat="42.17751" lon="0.89664">
        <ele>576.6</ele>
        <time>2022-05-23 08:12:12</time>
      </trkpt>
      <trkpt lat="42.17743" lon="0.89664">
        <ele>576.6</ele>
        <time>2022-05-23 08:12:13</time>
      </trkpt>
      <trkpt lat="42.17736" lon="0.89664">
        <ele>576.6</ele>
        <time>2022-05-23 08:12:14</time>
      </trkpt>
      <trkpt lat="42.17729" lon="0.89664">
        <ele>576.6</ele>
        <time>2022-05-23 08:12:15</time>
      </trkpt>
      <trkpt lat="42.17722" lon="0.89664">
        <ele>576.8</ele>
        <time>2022-05-23 08:12:16</time>
      </trkpt>
      <trkpt lat="42.17715" lon="0.89664">
        <ele>576.8</ele>
        <time>2022-05-23 08:12:17</time>
      </trkpt>
      <trkpt lat="42.17708" lon="0.89664">
        <ele>576.6</ele>
        <time>2022-05-23 08:12:18</time>
      </trkpt>
      <trkpt lat="42.17701" lon="0.89664">
        <ele>576.6</ele>
        <time>2022-05-23 08:12:19</time>
      </trkpt>
      <trkpt lat="42.17693" lon="0.89664">
        <ele>576.6</ele>
        <time>2022-05-23 08:12:20</time>
      </trkpt>
      <trkpt lat="42.17686" lon="0.89664">
        <ele>576.4</ele>
        <time>2022-05-23 08:12:21</time>
      </trkpt>
      <trkpt lat="42.17679" lon="0.89664">
        <ele>576.4</ele>
        <time>2022-05-23 08:12:22</time>
      </trkpt>
      <trkpt lat="42.17672" lon="0.89663">
        <ele>576.4</ele>
        <time>2022-05-23 08:12:23</time>
      </trkpt>
      <trkpt lat="42.17664" lon="0.89663">
        <ele>576.2</ele>
        <time>2022-05-23 08:12:24</time>
      </trkpt>
      <trkpt lat="42.17657" lon="0.89663">
        <ele>576</ele>
        <time>2022-05-23 08:12:25</time>
      </trkpt>
      <trkpt lat="42.17649" lon="0.89663">
        <ele>575.8</ele>
        <time>2022-05-23 08:12:26</time>
      </trkpt>
      <trkpt lat="42.17641" lon="0.89663">
        <ele>575.8</ele>
        <time>2022-05-23 08:12:27</time>
      </trkpt>
      <trkpt lat="42.17634" lon="0.89663">
        <ele>575.6</ele>
        <time>2022-05-23 08:12:28</time>
      </trkpt>
      <trkpt lat="42.17626" lon="0.89663">
        <ele>575.4</ele>
        <time>2022-05-23 08:12:29</time>
      </trkpt>
      <trkpt lat="42.17619" lon="0.89664">
        <ele>575.4</ele>
        <time>2022-05-23 08:12:30</time>
      </trkpt>
      <trkpt lat="42.17612" lon="0.89665">
        <ele>575.2</ele>
        <time>2022-05-23 08:12:31</time>
      </trkpt>
      <trkpt lat="42.17605" lon="0.89668">
        <ele>575.2</ele>
        <time>2022-05-23 08:12:32</time>
      </trkpt>
      <trkpt lat="42.17599" lon="0.89672">
        <ele>575</ele>
        <time>2022-05-23 08:12:33</time>
      </trkpt>
      <trkpt lat="42.17591" lon="0.89678">
        <ele>574.8</ele>
        <time>2022-05-23 08:12:34</time>
      </trkpt>
      <trkpt lat="42.17586" lon="0.89683">
        <ele>574.6</ele>
        <time>2022-05-23 08:12:35</time>
      </trkpt>
      <trkpt lat="42.1758" lon="0.89691">
        <ele>574.4</ele>
        <time>2022-05-23 08:12:36</time>
      </trkpt>
      <trkpt lat="42.17574" lon="0.89699">
        <ele>574.2</ele>
        <time>2022-05-23 08:12:37</time>
      </trkpt>
      <trkpt lat="42.17568" lon="0.89706">
        <ele>574</ele>
        <time>2022-05-23 08:12:38</time>
      </trkpt>
      <trkpt lat="42.17563" lon="0.89714">
        <ele>573.8</ele>
        <time>2022-05-23 08:12:39</time>
      </trkpt>
      <trkpt lat="42.17557" lon="0.89721">
        <ele>573.6</ele>
        <time>2022-05-23 08:12:40</time>
      </trkpt>
      <trkpt lat="42.17551" lon="0.89728">
        <ele>573.4</ele>
        <time>2022-05-23 08:12:41</time>
      </trkpt>
      <trkpt lat="42.17545" lon="0.89735">
        <ele>573</ele>
        <time>2022-05-23 08:12:42</time>
      </trkpt>
      <trkpt lat="42.17538" lon="0.8974">
        <ele>572.8</ele>
        <time>2022-05-23 08:12:43</time>
      </trkpt>
      <trkpt lat="42.17529" lon="0.89743">
        <ele>572.4</ele>
        <time>2022-05-23 08:12:44</time>
      </trkpt>
      <trkpt lat="42.17521" lon="0.89744">
        <ele>572</ele>
        <time>2022-05-23 08:12:45</time>
      </trkpt>
      <trkpt lat="42.17513" lon="0.89744">
        <ele>571.6</ele>
        <time>2022-05-23 08:12:46</time>
      </trkpt>
      <trkpt lat="42.17504" lon="0.8974">
        <ele>571.2</ele>
        <time>2022-05-23 08:12:47</time>
      </trkpt>
      <trkpt lat="42.17496" lon="0.89735">
        <ele>570.6</ele>
        <time>2022-05-23 08:12:48</time>
      </trkpt>
      <trkpt lat="42.17488" lon="0.89729">
        <ele>570.2</ele>
        <time>2022-05-23 08:12:49</time>
      </trkpt>
      <trkpt lat="42.17479" lon="0.89722">
        <ele>569.6</ele>
        <time>2022-05-23 08:12:50</time>
      </trkpt>
      <trkpt lat="42.17471" lon="0.89716">
        <ele>569.2</ele>
        <time>2022-05-23 08:12:51</time>
      </trkpt>
      <trkpt lat="42.17462" lon="0.8971">
        <ele>568.6</ele>
        <time>2022-05-23 08:12:52</time>
      </trkpt>
      <trkpt lat="42.17453" lon="0.89704">
        <ele>568</ele>
        <time>2022-05-23 08:12:53</time>
      </trkpt>
      <trkpt lat="42.17444" lon="0.89699">
        <ele>567.4</ele>
        <time>2022-05-23 08:12:54</time>
      </trkpt>
      <trkpt lat="42.17435" lon="0.89693">
        <ele>566.8</ele>
        <time>2022-05-23 08:12:55</time>
      </trkpt>
      <trkpt lat="42.17426" lon="0.89687">
        <ele>566.2</ele>
        <time>2022-05-23 08:12:56</time>
      </trkpt>
      <trkpt lat="42.17416" lon="0.89681">
        <ele>565.6</ele>
        <time>2022-05-23 08:12:57</time>
      </trkpt>
      <trkpt lat="42.17406" lon="0.89676">
        <ele>565</ele>
        <time>2022-05-23 08:12:58</time>
      </trkpt>
      <trkpt lat="42.17397" lon="0.89671">
        <ele>564.4</ele>
        <time>2022-05-23 08:12:59</time>
      </trkpt>
      <trkpt lat="42.17388" lon="0.89665">
        <ele>563.8</ele>
        <time>2022-05-23 08:13:00</time>
      </trkpt>
      <trkpt lat="42.17379" lon="0.89659">
        <ele>563.2</ele>
        <time>2022-05-23 08:13:01</time>
      </trkpt>
      <trkpt lat="42.1737" lon="0.89653">
        <ele>562.6</ele>
        <time>2022-05-23 08:13:02</time>
      </trkpt>
      <trkpt lat="42.17359" lon="0.89648">
        <ele>562</ele>
        <time>2022-05-23 08:13:03</time>
      </trkpt>
      <trkpt lat="42.17349" lon="0.89642">
        <ele>561.6</ele>
        <time>2022-05-23 08:13:04</time>
      </trkpt>
      <trkpt lat="42.1734" lon="0.89637">
        <ele>560.8</ele>
        <time>2022-05-23 08:13:05</time>
      </trkpt>
      <trkpt lat="42.1733" lon="0.89631">
        <ele>560.2</ele>
        <time>2022-05-23 08:13:06</time>
      </trkpt>
      <trkpt lat="42.1732" lon="0.89624">
        <ele>559.6</ele>
        <time>2022-05-23 08:13:07</time>
      </trkpt>
      <trkpt lat="42.17309" lon="0.89617">
        <ele>558.8</ele>
        <time>2022-05-23 08:13:08</time>
      </trkpt>
      <trkpt lat="42.17299" lon="0.8961">
        <ele>558.2</ele>
        <time>2022-05-23 08:13:09</time>
      </trkpt>
      <trkpt lat="42.17289" lon="0.89604">
        <ele>557.6</ele>
        <time>2022-05-23 08:13:10</time>
      </trkpt>
      <trkpt lat="42.17279" lon="0.89598">
        <ele>557</ele>
        <time>2022-05-23 08:13:11</time>
      </trkpt>
      <trkpt lat="42.17269" lon="0.89592">
        <ele>556.4</ele>
        <time>2022-05-23 08:13:12</time>
      </trkpt>
      <trkpt lat="42.1726" lon="0.89585">
        <ele>556</ele>
        <time>2022-05-23 08:13:13</time>
      </trkpt>
      <trkpt lat="42.1725" lon="0.8958">
        <ele>555.4</ele>
        <time>2022-05-23 08:13:14</time>
      </trkpt>
      <trkpt lat="42.1724" lon="0.89575">
        <ele>554.6</ele>
        <time>2022-05-23 08:13:15</time>
      </trkpt>
      <trkpt lat="42.17229" lon="0.8957">
        <ele>554</ele>
        <time>2022-05-23 08:13:16</time>
      </trkpt>
      <trkpt lat="42.17221" lon="0.89564">
        <ele>553.2</ele>
        <time>2022-05-23 08:13:17</time>
      </trkpt>
      <trkpt lat="42.17212" lon="0.89557">
        <ele>552.8</ele>
        <time>2022-05-23 08:13:18</time>
      </trkpt>
      <trkpt lat="42.17201" lon="0.89552">
        <ele>552.2</ele>
        <time>2022-05-23 08:13:19</time>
      </trkpt>
      <trkpt lat="42.17192" lon="0.89546">
        <ele>551.8</ele>
        <time>2022-05-23 08:13:20</time>
      </trkpt>
      <trkpt lat="42.17182" lon="0.89542">
        <ele>551.2</ele>
        <time>2022-05-23 08:13:21</time>
      </trkpt>
      <trkpt lat="42.17171" lon="0.89539">
        <ele>550.6</ele>
        <time>2022-05-23 08:13:22</time>
      </trkpt>
      <trkpt lat="42.17161" lon="0.89536">
        <ele>550.2</ele>
        <time>2022-05-23 08:13:23</time>
      </trkpt>
      <trkpt lat="42.17152" lon="0.89536">
        <ele>549.6</ele>
        <time>2022-05-23 08:13:24</time>
      </trkpt>
      <trkpt lat="42.17142" lon="0.89535">
        <ele>549</ele>
        <time>2022-05-23 08:13:25</time>
      </trkpt>
      <trkpt lat="42.17132" lon="0.89534">
        <ele>548.2</ele>
        <time>2022-05-23 08:13:26</time>
      </trkpt>
      <trkpt lat="42.17121" lon="0.89534">
        <ele>547.6</ele>
        <time>2022-05-23 08:13:27</time>
      </trkpt>
      <trkpt lat="42.17111" lon="0.89534">
        <ele>547</ele>
        <time>2022-05-23 08:13:28</time>
      </trkpt>
      <trkpt lat="42.17099" lon="0.89532">
        <ele>546.6</ele>
        <time>2022-05-23 08:13:29</time>
      </trkpt>
      <trkpt lat="42.1709" lon="0.89528">
        <ele>546.4</ele>
        <time>2022-05-23 08:13:30</time>
      </trkpt>
      <trkpt lat="42.17081" lon="0.89525">
        <ele>546.2</ele>
        <time>2022-05-23 08:13:31</time>
      </trkpt>
      <trkpt lat="42.17071" lon="0.89523">
        <ele>546.2</ele>
        <time>2022-05-23 08:13:32</time>
      </trkpt>
      <trkpt lat="42.17061" lon="0.89521">
        <ele>546.2</ele>
        <time>2022-05-23 08:13:33</time>
      </trkpt>
      <trkpt lat="42.17053" lon="0.8952">
        <ele>546.4</ele>
        <time>2022-05-23 08:13:34</time>
      </trkpt>
      <trkpt lat="42.17044" lon="0.89518">
        <ele>546.6</ele>
        <time>2022-05-23 08:13:35</time>
      </trkpt>
      <trkpt lat="42.17037" lon="0.89516">
        <ele>546.6</ele>
        <time>2022-05-23 08:13:36</time>
      </trkpt>
      <trkpt lat="42.17029" lon="0.89514">
        <ele>546.8</ele>
        <time>2022-05-23 08:13:37</time>
      </trkpt>
      <trkpt lat="42.17022" lon="0.89512">
        <ele>546.8</ele>
        <time>2022-05-23 08:13:38</time>
      </trkpt>
      <trkpt lat="42.17014" lon="0.89511">
        <ele>547</ele>
        <time>2022-05-23 08:13:39</time>
      </trkpt>
      <trkpt lat="42.17007" lon="0.89509">
        <ele>547.2</ele>
        <time>2022-05-23 08:13:40</time>
      </trkpt>
      <trkpt lat="42.17" lon="0.89507">
        <ele>547.2</ele>
        <time>2022-05-23 08:13:41</time>
      </trkpt>
      <trkpt lat="42.16994" lon="0.89505">
        <ele>547.4</ele>
        <time>2022-05-23 08:13:42</time>
      </trkpt>
      <trkpt lat="42.16987" lon="0.89505">
        <ele>547.6</ele>
        <time>2022-05-23 08:13:43</time>
      </trkpt>
      <trkpt lat="42.16981" lon="0.89504">
        <ele>547.8</ele>
        <time>2022-05-23 08:13:44</time>
      </trkpt>
      <trkpt lat="42.16974" lon="0.89504">
        <ele>547.8</ele>
        <time>2022-05-23 08:13:45</time>
      </trkpt>
      <trkpt lat="42.16968" lon="0.89503">
        <ele>548</ele>
        <time>2022-05-23 08:13:46</time>
      </trkpt>
      <trkpt lat="42.16962" lon="0.89502">
        <ele>548</ele>
        <time>2022-05-23 08:13:47</time>
      </trkpt>
      <trkpt lat="42.16956" lon="0.895">
        <ele>548.2</ele>
        <time>2022-05-23 08:13:48</time>
      </trkpt>
      <trkpt lat="42.1695" lon="0.895">
        <ele>548.4</ele>
        <time>2022-05-23 08:13:49</time>
      </trkpt>
      <trkpt lat="42.16943" lon="0.89498">
        <ele>548.6</ele>
        <time>2022-05-23 08:13:50</time>
      </trkpt>
      <trkpt lat="42.16937" lon="0.89497">
        <ele>548.8</ele>
        <time>2022-05-23 08:13:51</time>
      </trkpt>
      <trkpt lat="42.16931" lon="0.89496">
        <ele>549.2</ele>
        <time>2022-05-23 08:13:52</time>
      </trkpt>
      <trkpt lat="42.16925" lon="0.89495">
        <ele>549.4</ele>
        <time>2022-05-23 08:13:53</time>
      </trkpt>
      <trkpt lat="42.16919" lon="0.89493">
        <ele>549.6</ele>
        <time>2022-05-23 08:13:54</time>
      </trkpt>
      <trkpt lat="42.16913" lon="0.89492">
        <ele>549.8</ele>
        <time>2022-05-23 08:13:55</time>
      </trkpt>
      <trkpt lat="42.16907" lon="0.89491">
        <ele>550</ele>
        <time>2022-05-23 08:13:56</time>
      </trkpt>
      <trkpt lat="42.16901" lon="0.8949">
        <ele>550.2</ele>
        <time>2022-05-23 08:13:57</time>
      </trkpt>
      <trkpt lat="42.16895" lon="0.89489">
        <ele>550.4</ele>
        <time>2022-05-23 08:13:58</time>
      </trkpt>
      <trkpt lat="42.16889" lon="0.89488">
        <ele>550.6</ele>
        <time>2022-05-23 08:13:59</time>
      </trkpt>
      <trkpt lat="42.16883" lon="0.89487">
        <ele>550.8</ele>
        <time>2022-05-23 08:14:00</time>
      </trkpt>
      <trkpt lat="42.16877" lon="0.89486">
        <ele>551</ele>
        <time>2022-05-23 08:14:01</time>
      </trkpt>
      <trkpt lat="42.16871" lon="0.89487">
        <ele>551.2</ele>
        <time>2022-05-23 08:14:02</time>
      </trkpt>
      <trkpt lat="42.16866" lon="0.89488">
        <ele>551.4</ele>
        <time>2022-05-23 08:14:03</time>
      </trkpt>
      <trkpt lat="42.1686" lon="0.8949">
        <ele>551.4</ele>
        <time>2022-05-23 08:14:04</time>
      </trkpt>
      <trkpt lat="42.16855" lon="0.89493">
        <ele>551.4</ele>
        <time>2022-05-23 08:14:05</time>
      </trkpt>
      <trkpt lat="42.1685" lon="0.89497">
        <ele>551.6</ele>
        <time>2022-05-23 08:14:06</time>
      </trkpt>
      <trkpt lat="42.16845" lon="0.89502">
        <ele>551.6</ele>
        <time>2022-05-23 08:14:07</time>
      </trkpt>
      <trkpt lat="42.1684" lon="0.89507">
        <ele>551.6</ele>
        <time>2022-05-23 08:14:08</time>
      </trkpt>
      <trkpt lat="42.16834" lon="0.89511">
        <ele>551.6</ele>
        <time>2022-05-23 08:14:09</time>
      </trkpt>
      <trkpt lat="42.16828" lon="0.89515">
        <ele>551.6</ele>
        <time>2022-05-23 08:14:10</time>
      </trkpt>
      <trkpt lat="42.16824" lon="0.89521">
        <ele>551.6</ele>
        <time>2022-05-23 08:14:11</time>
      </trkpt>
      <trkpt lat="42.16819" lon="0.89526">
        <ele>551.6</ele>
        <time>2022-05-23 08:14:12</time>
      </trkpt>
      <trkpt lat="42.16815" lon="0.89532">
        <ele>551.4</ele>
        <time>2022-05-23 08:14:13</time>
      </trkpt>
      <trkpt lat="42.1681" lon="0.89537">
        <ele>551.4</ele>
        <time>2022-05-23 08:14:14</time>
      </trkpt>
      <trkpt lat="42.16807" lon="0.89543">
        <ele>551.4</ele>
        <time>2022-05-23 08:14:15</time>
      </trkpt>
      <trkpt lat="42.16803" lon="0.89548">
        <ele>551.2</ele>
        <time>2022-05-23 08:14:16</time>
      </trkpt>
      <trkpt lat="42.16798" lon="0.89554">
        <ele>551</ele>
        <time>2022-05-23 08:14:17</time>
      </trkpt>
      <trkpt lat="42.16794" lon="0.8956">
        <ele>551</ele>
        <time>2022-05-23 08:14:18</time>
      </trkpt>
      <trkpt lat="42.1679" lon="0.89566">
        <ele>551</ele>
        <time>2022-05-23 08:14:19</time>
      </trkpt>
      <trkpt lat="42.16785" lon="0.89571">
        <ele>551</ele>
        <time>2022-05-23 08:14:20</time>
      </trkpt>
      <trkpt lat="42.16781" lon="0.89578">
        <ele>550.8</ele>
        <time>2022-05-23 08:14:21</time>
      </trkpt>
      <trkpt lat="42.16776" lon="0.89583">
        <ele>550.8</ele>
        <time>2022-05-23 08:14:22</time>
      </trkpt>
      <trkpt lat="42.16772" lon="0.89589">
        <ele>550.8</ele>
        <time>2022-05-23 08:14:23</time>
      </trkpt>
      <trkpt lat="42.16767" lon="0.89595">
        <ele>550.8</ele>
        <time>2022-05-23 08:14:24</time>
      </trkpt>
      <trkpt lat="42.16762" lon="0.896">
        <ele>550.8</ele>
        <time>2022-05-23 08:14:25</time>
      </trkpt>
      <trkpt lat="42.16756" lon="0.89605">
        <ele>550.6</ele>
        <time>2022-05-23 08:14:26</time>
      </trkpt>
      <trkpt lat="42.1675" lon="0.89609">
        <ele>550.6</ele>
        <time>2022-05-23 08:14:27</time>
      </trkpt>
      <trkpt lat="42.16744" lon="0.89612">
        <ele>550.6</ele>
        <time>2022-05-23 08:14:28</time>
      </trkpt>
      <trkpt lat="42.16739" lon="0.89615">
        <ele>550.6</ele>
        <time>2022-05-23 08:14:29</time>
      </trkpt>
      <trkpt lat="42.16733" lon="0.89616">
        <ele>550.6</ele>
        <time>2022-05-23 08:14:30</time>
      </trkpt>
      <trkpt lat="42.16727" lon="0.89617">
        <ele>550.6</ele>
        <time>2022-05-23 08:14:31</time>
      </trkpt>
      <trkpt lat="42.1672" lon="0.89617">
        <ele>550.6</ele>
        <time>2022-05-23 08:14:32</time>
      </trkpt>
      <trkpt lat="42.16714" lon="0.89616">
        <ele>550.6</ele>
        <time>2022-05-23 08:14:33</time>
      </trkpt>
      <trkpt lat="42.16708" lon="0.89614">
        <ele>550.4</ele>
        <time>2022-05-23 08:14:34</time>
      </trkpt>
      <trkpt lat="42.16701" lon="0.89612">
        <ele>550.4</ele>
        <time>2022-05-23 08:14:35</time>
      </trkpt>
      <trkpt lat="42.16695" lon="0.8961">
        <ele>550.4</ele>
        <time>2022-05-23 08:14:36</time>
      </trkpt>
      <trkpt lat="42.16689" lon="0.89608">
        <ele>550.2</ele>
        <time>2022-05-23 08:14:37</time>
      </trkpt>
      <trkpt lat="42.16682" lon="0.89603">
        <ele>550</ele>
        <time>2022-05-23 08:14:38</time>
      </trkpt>
      <trkpt lat="42.16675" lon="0.89598">
        <ele>550</ele>
        <time>2022-05-23 08:14:39</time>
      </trkpt>
      <trkpt lat="42.16668" lon="0.89593">
        <ele>550</ele>
        <time>2022-05-23 08:14:40</time>
      </trkpt>
      <trkpt lat="42.16663" lon="0.89589">
        <ele>549.8</ele>
        <time>2022-05-23 08:14:41</time>
      </trkpt>
      <trkpt lat="42.16659" lon="0.89585">
        <ele>549.8</ele>
        <time>2022-05-23 08:14:42</time>
      </trkpt>
      <trkpt lat="42.16652" lon="0.89582">
        <ele>549.8</ele>
        <time>2022-05-23 08:14:43</time>
      </trkpt>
      <trkpt lat="42.16648" lon="0.89579">
        <ele>549.8</ele>
        <time>2022-05-23 08:14:44</time>
      </trkpt>
      <trkpt lat="42.16645" lon="0.89575">
        <ele>549.8</ele>
        <time>2022-05-23 08:14:45</time>
      </trkpt>
      <trkpt lat="42.16641" lon="0.89572">
        <ele>549.8</ele>
        <time>2022-05-23 08:14:46</time>
      </trkpt>
      <trkpt lat="42.16639" lon="0.8957">
        <ele>549.8</ele>
        <time>2022-05-23 08:14:47</time>
      </trkpt>
      <trkpt lat="42.16636" lon="0.89567">
        <ele>549.6</ele>
        <time>2022-05-23 08:14:48</time>
      </trkpt>
      <trkpt lat="42.16634" lon="0.89564">
        <ele>549.6</ele>
        <time>2022-05-23 08:14:49</time>
      </trkpt>
      <trkpt lat="42.16631" lon="0.89562">
        <ele>549.6</ele>
        <time>2022-05-23 08:14:50</time>
      </trkpt>
      <trkpt lat="42.16629" lon="0.89559">
        <ele>549.4</ele>
        <time>2022-05-23 08:14:51</time>
      </trkpt>
      <trkpt lat="42.16626" lon="0.89556">
        <ele>549.2</ele>
        <time>2022-05-23 08:14:52</time>
      </trkpt>
      <trkpt lat="42.16624" lon="0.89553">
        <ele>549.2</ele>
        <time>2022-05-23 08:14:53</time>
      </trkpt>
      <trkpt lat="42.1662" lon="0.89549">
        <ele>549.2</ele>
        <time>2022-05-23 08:14:54</time>
      </trkpt>
      <trkpt lat="42.16617" lon="0.89546">
        <ele>549</ele>
        <time>2022-05-23 08:14:55</time>
      </trkpt>
      <trkpt lat="42.16615" lon="0.89543">
        <ele>549</ele>
        <time>2022-05-23 08:14:56</time>
      </trkpt>
      <trkpt lat="42.16611" lon="0.8954">
        <ele>549</ele>
        <time>2022-05-23 08:14:57</time>
      </trkpt>
      <trkpt lat="42.16607" lon="0.89538">
        <ele>548.8</ele>
        <time>2022-05-23 08:14:58</time>
      </trkpt>
      <trkpt lat="42.16602" lon="0.89537">
        <ele>548.6</ele>
        <time>2022-05-23 08:14:59</time>
      </trkpt>
      <trkpt lat="42.16597" lon="0.89535">
        <ele>548.4</ele>
        <time>2022-05-23 08:15:00</time>
      </trkpt>
      <trkpt lat="42.16591" lon="0.89533">
        <ele>548.2</ele>
        <time>2022-05-23 08:15:01</time>
      </trkpt>
      <trkpt lat="42.16586" lon="0.89532">
        <ele>548</ele>
        <time>2022-05-23 08:15:02</time>
      </trkpt>
      <trkpt lat="42.16581" lon="0.8953">
        <ele>547.6</ele>
        <time>2022-05-23 08:15:03</time>
      </trkpt>
      <trkpt lat="42.16574" lon="0.89529">
        <ele>547.2</ele>
        <time>2022-05-23 08:15:04</time>
      </trkpt>
      <trkpt lat="42.16568" lon="0.89527">
        <ele>546.8</ele>
        <time>2022-05-23 08:15:05</time>
      </trkpt>
      <trkpt lat="42.16563" lon="0.89525">
        <ele>546.4</ele>
        <time>2022-05-23 08:15:06</time>
      </trkpt>
      <trkpt lat="42.16556" lon="0.89523">
        <ele>546</ele>
        <time>2022-05-23 08:15:07</time>
      </trkpt>
      <trkpt lat="42.16548" lon="0.89521">
        <ele>545.8</ele>
        <time>2022-05-23 08:15:08</time>
      </trkpt>
      <trkpt lat="42.16541" lon="0.89519">
        <ele>545.4</ele>
        <time>2022-05-23 08:15:09</time>
      </trkpt>
      <trkpt lat="42.16533" lon="0.89517">
        <ele>545</ele>
        <time>2022-05-23 08:15:10</time>
      </trkpt>
      <trkpt lat="42.16525" lon="0.89515">
        <ele>544.4</ele>
        <time>2022-05-23 08:15:11</time>
      </trkpt>
      <trkpt lat="42.16517" lon="0.89512">
        <ele>544</ele>
        <time>2022-05-23 08:15:12</time>
      </trkpt>
      <trkpt lat="42.1651" lon="0.8951">
        <ele>543.6</ele>
        <time>2022-05-23 08:15:13</time>
      </trkpt>
      <trkpt lat="42.16501" lon="0.89508">
        <ele>543</ele>
        <time>2022-05-23 08:15:14</time>
      </trkpt>
      <trkpt lat="42.16493" lon="0.89505">
        <ele>542.6</ele>
        <time>2022-05-23 08:15:15</time>
      </trkpt>
      <trkpt lat="42.16485" lon="0.89503">
        <ele>542.2</ele>
        <time>2022-05-23 08:15:16</time>
      </trkpt>
      <trkpt lat="42.16476" lon="0.89501">
        <ele>541.8</ele>
        <time>2022-05-23 08:15:17</time>
      </trkpt>
      <trkpt lat="42.16468" lon="0.89498">
        <ele>541.4</ele>
        <time>2022-05-23 08:15:18</time>
      </trkpt>
      <trkpt lat="42.16459" lon="0.89495">
        <ele>540.8</ele>
        <time>2022-05-23 08:15:19</time>
      </trkpt>
      <trkpt lat="42.1645" lon="0.89493">
        <ele>540.2</ele>
        <time>2022-05-23 08:15:20</time>
      </trkpt>
      <trkpt lat="42.16441" lon="0.8949">
        <ele>539.8</ele>
        <time>2022-05-23 08:15:21</time>
      </trkpt>
      <trkpt lat="42.16432" lon="0.89487">
        <ele>539.2</ele>
        <time>2022-05-23 08:15:22</time>
      </trkpt>
      <trkpt lat="42.16423" lon="0.89484">
        <ele>538.8</ele>
        <time>2022-05-23 08:15:23</time>
      </trkpt>
      <trkpt lat="42.16416" lon="0.89482">
        <ele>538.6</ele>
        <time>2022-05-23 08:15:24</time>
      </trkpt>
      <trkpt lat="42.16408" lon="0.89479">
        <ele>538.2</ele>
        <time>2022-05-23 08:15:25</time>
      </trkpt>
      <trkpt lat="42.16401" lon="0.89476">
        <ele>538</ele>
        <time>2022-05-23 08:15:26</time>
      </trkpt>
      <trkpt lat="42.16392" lon="0.89471">
        <ele>537.6</ele>
        <time>2022-05-23 08:15:27</time>
      </trkpt>
      <trkpt lat="42.16384" lon="0.89469">
        <ele>537.4</ele>
        <time>2022-05-23 08:15:28</time>
      </trkpt>
      <trkpt lat="42.16377" lon="0.89469">
        <ele>537</ele>
        <time>2022-05-23 08:15:29</time>
      </trkpt>
      <trkpt lat="42.16367" lon="0.89466">
        <ele>536.6</ele>
        <time>2022-05-23 08:15:30</time>
      </trkpt>
      <trkpt lat="42.16359" lon="0.89464">
        <ele>536.4</ele>
        <time>2022-05-23 08:15:31</time>
      </trkpt>
      <trkpt lat="42.1635" lon="0.89462">
        <ele>536</ele>
        <time>2022-05-23 08:15:32</time>
      </trkpt>
      <trkpt lat="42.16342" lon="0.8946">
        <ele>535.6</ele>
        <time>2022-05-23 08:15:33</time>
      </trkpt>
      <trkpt lat="42.16333" lon="0.89458">
        <ele>535.4</ele>
        <time>2022-05-23 08:15:34</time>
      </trkpt>
      <trkpt lat="42.16325" lon="0.89456">
        <ele>535.2</ele>
        <time>2022-05-23 08:15:35</time>
      </trkpt>
      <trkpt lat="42.16317" lon="0.89454">
        <ele>535</ele>
        <time>2022-05-23 08:15:36</time>
      </trkpt>
      <trkpt lat="42.16309" lon="0.89453">
        <ele>535</ele>
        <time>2022-05-23 08:15:37</time>
      </trkpt>
      <trkpt lat="42.16301" lon="0.89451">
        <ele>535</ele>
        <time>2022-05-23 08:15:38</time>
      </trkpt>
      <trkpt lat="42.16294" lon="0.8945">
        <ele>534.8</ele>
        <time>2022-05-23 08:15:39</time>
      </trkpt>
      <trkpt lat="42.16287" lon="0.89449">
        <ele>534.8</ele>
        <time>2022-05-23 08:15:40</time>
      </trkpt>
      <trkpt lat="42.1628" lon="0.89448">
        <ele>534.8</ele>
        <time>2022-05-23 08:15:41</time>
      </trkpt>
      <trkpt lat="42.16273" lon="0.89447">
        <ele>534.6</ele>
        <time>2022-05-23 08:15:42</time>
      </trkpt>
      <trkpt lat="42.16266" lon="0.89445">
        <ele>534.6</ele>
        <time>2022-05-23 08:15:43</time>
      </trkpt>
      <trkpt lat="42.16259" lon="0.89444">
        <ele>534.4</ele>
        <time>2022-05-23 08:15:44</time>
      </trkpt>
      <trkpt lat="42.16253" lon="0.89443">
        <ele>534.4</ele>
        <time>2022-05-23 08:15:45</time>
      </trkpt>
      <trkpt lat="42.16245" lon="0.89441">
        <ele>534.4</ele>
        <time>2022-05-23 08:15:46</time>
      </trkpt>
      <trkpt lat="42.16239" lon="0.89439">
        <ele>534.2</ele>
        <time>2022-05-23 08:15:47</time>
      </trkpt>
      <trkpt lat="42.16231" lon="0.89438">
        <ele>534.2</ele>
        <time>2022-05-23 08:15:48</time>
      </trkpt>
      <trkpt lat="42.16224" lon="0.89437">
        <ele>534</ele>
        <time>2022-05-23 08:15:49</time>
      </trkpt>
      <trkpt lat="42.16217" lon="0.89437">
        <ele>534</ele>
        <time>2022-05-23 08:15:50</time>
      </trkpt>
      <trkpt lat="42.16211" lon="0.89438">
        <ele>533.8</ele>
        <time>2022-05-23 08:15:51</time>
      </trkpt>
      <trkpt lat="42.16204" lon="0.89442">
        <ele>533.6</ele>
        <time>2022-05-23 08:15:52</time>
      </trkpt>
      <trkpt lat="42.16198" lon="0.89448">
        <ele>533.4</ele>
        <time>2022-05-23 08:15:53</time>
      </trkpt>
      <trkpt lat="42.16193" lon="0.89454">
        <ele>533.2</ele>
        <time>2022-05-23 08:15:54</time>
      </trkpt>
      <trkpt lat="42.16188" lon="0.89461">
        <ele>533.2</ele>
        <time>2022-05-23 08:15:55</time>
      </trkpt>
      <trkpt lat="42.16183" lon="0.89468">
        <ele>533</ele>
        <time>2022-05-23 08:15:56</time>
      </trkpt>
      <trkpt lat="42.16179" lon="0.89475">
        <ele>532.8</ele>
        <time>2022-05-23 08:15:57</time>
      </trkpt>
      <trkpt lat="42.16176" lon="0.89483">
        <ele>532.6</ele>
        <time>2022-05-23 08:15:58</time>
      </trkpt>
      <trkpt lat="42.16172" lon="0.8949">
        <ele>532.4</ele>
        <time>2022-05-23 08:15:59</time>
      </trkpt>
      <trkpt lat="42.16168" lon="0.89499">
        <ele>532.2</ele>
        <time>2022-05-23 08:16:00</time>
      </trkpt>
      <trkpt lat="42.16164" lon="0.89507">
        <ele>531.8</ele>
        <time>2022-05-23 08:16:01</time>
      </trkpt>
      <trkpt lat="42.1616" lon="0.89515">
        <ele>531.6</ele>
        <time>2022-05-23 08:16:02</time>
      </trkpt>
      <trkpt lat="42.16156" lon="0.89523">
        <ele>531.2</ele>
        <time>2022-05-23 08:16:03</time>
      </trkpt>
      <trkpt lat="42.16152" lon="0.89531">
        <ele>531</ele>
        <time>2022-05-23 08:16:04</time>
      </trkpt>
      <trkpt lat="42.16148" lon="0.8954">
        <ele>530.6</ele>
        <time>2022-05-23 08:16:05</time>
      </trkpt>
      <trkpt lat="42.16144" lon="0.89548">
        <ele>530.4</ele>
        <time>2022-05-23 08:16:06</time>
      </trkpt>
      <trkpt lat="42.16141" lon="0.89556">
        <ele>530</ele>
        <time>2022-05-23 08:16:07</time>
      </trkpt>
      <trkpt lat="42.16137" lon="0.89564">
        <ele>529.8</ele>
        <time>2022-05-23 08:16:08</time>
      </trkpt>
      <trkpt lat="42.16132" lon="0.89573">
        <ele>529.6</ele>
        <time>2022-05-23 08:16:09</time>
      </trkpt>
      <trkpt lat="42.16127" lon="0.89581">
        <ele>529.4</ele>
        <time>2022-05-23 08:16:10</time>
      </trkpt>
      <trkpt lat="42.16121" lon="0.8959">
        <ele>529</ele>
        <time>2022-05-23 08:16:11</time>
      </trkpt>
      <trkpt lat="42.16115" lon="0.89598">
        <ele>528.6</ele>
        <time>2022-05-23 08:16:12</time>
      </trkpt>
      <trkpt lat="42.1611" lon="0.89606">
        <ele>528.2</ele>
        <time>2022-05-23 08:16:13</time>
      </trkpt>
      <trkpt lat="42.16104" lon="0.89615">
        <ele>527.8</ele>
        <time>2022-05-23 08:16:14</time>
      </trkpt>
      <trkpt lat="42.16099" lon="0.89625">
        <ele>527.4</ele>
        <time>2022-05-23 08:16:15</time>
      </trkpt>
      <trkpt lat="42.16094" lon="0.89633">
        <ele>527</ele>
        <time>2022-05-23 08:16:16</time>
      </trkpt>
      <trkpt lat="42.16089" lon="0.89642">
        <ele>526.6</ele>
        <time>2022-05-23 08:16:17</time>
      </trkpt>
      <trkpt lat="42.16083" lon="0.89652">
        <ele>526</ele>
        <time>2022-05-23 08:16:18</time>
      </trkpt>
      <trkpt lat="42.16078" lon="0.89661">
        <ele>525.6</ele>
        <time>2022-05-23 08:16:19</time>
      </trkpt>
      <trkpt lat="42.16071" lon="0.89668">
        <ele>525.2</ele>
        <time>2022-05-23 08:16:20</time>
      </trkpt>
      <trkpt lat="42.16064" lon="0.89674">
        <ele>524.8</ele>
        <time>2022-05-23 08:16:21</time>
      </trkpt>
      <trkpt lat="42.16056" lon="0.89679">
        <ele>524.4</ele>
        <time>2022-05-23 08:16:22</time>
      </trkpt>
      <trkpt lat="42.16047" lon="0.89682">
        <ele>524</ele>
        <time>2022-05-23 08:16:23</time>
      </trkpt>
      <trkpt lat="42.16038" lon="0.89683">
        <ele>523.8</ele>
        <time>2022-05-23 08:16:24</time>
      </trkpt>
      <trkpt lat="42.16029" lon="0.89682">
        <ele>523.6</ele>
        <time>2022-05-23 08:16:25</time>
      </trkpt>
      <trkpt lat="42.1602" lon="0.8968">
        <ele>523.2</ele>
        <time>2022-05-23 08:16:26</time>
      </trkpt>
      <trkpt lat="42.16011" lon="0.89677">
        <ele>523</ele>
        <time>2022-05-23 08:16:27</time>
      </trkpt>
      <trkpt lat="42.16002" lon="0.89676">
        <ele>522.6</ele>
        <time>2022-05-23 08:16:28</time>
      </trkpt>
      <trkpt lat="42.15993" lon="0.89674">
        <ele>522.4</ele>
        <time>2022-05-23 08:16:29</time>
      </trkpt>
      <trkpt lat="42.15985" lon="0.89673">
        <ele>522</ele>
        <time>2022-05-23 08:16:30</time>
      </trkpt>
      <trkpt lat="42.15975" lon="0.89671">
        <ele>521.6</ele>
        <time>2022-05-23 08:16:31</time>
      </trkpt>
      <trkpt lat="42.15967" lon="0.89671">
        <ele>521.4</ele>
        <time>2022-05-23 08:16:32</time>
      </trkpt>
      <trkpt lat="42.15958" lon="0.89671">
        <ele>521</ele>
        <time>2022-05-23 08:16:33</time>
      </trkpt>
      <trkpt lat="42.15952" lon="0.89672">
        <ele>520.8</ele>
        <time>2022-05-23 08:16:34</time>
      </trkpt>
      <trkpt lat="42.15947" lon="0.89674">
        <ele>520.8</ele>
        <time>2022-05-23 08:16:35</time>
      </trkpt>
      <trkpt lat="42.15943" lon="0.89676">
        <ele>520.8</ele>
        <time>2022-05-23 08:16:36</time>
      </trkpt>
      <trkpt lat="42.15941" lon="0.89677">
        <ele>520.6</ele>
        <time>2022-05-23 08:16:37</time>
      </trkpt>
      <trkpt lat="42.15939" lon="0.8968">
        <ele>520.6</ele>
        <time>2022-05-23 08:16:38</time>
      </trkpt>
      <trkpt lat="42.15938" lon="0.89682">
        <ele>520.4</ele>
        <time>2022-05-23 08:16:39</time>
      </trkpt>
      <trkpt lat="42.15937" lon="0.89684">
        <ele>520.2</ele>
        <time>2022-05-23 08:16:40</time>
      </trkpt>
      <trkpt lat="42.15935" lon="0.89685">
        <ele>520.2</ele>
        <time>2022-05-23 08:16:41</time>
      </trkpt>
      <trkpt lat="42.15936" lon="0.8968">
        <ele>520.2</ele>
        <time>2022-05-23 08:16:42</time>
      </trkpt>
      <trkpt lat="42.15936" lon="0.89679">
        <ele>520.2</ele>
        <time>2022-05-23 08:16:43</time>
      </trkpt>
      <trkpt lat="42.15936" lon="0.89678">
        <ele>520.2</ele>
        <time>2022-05-23 08:16:44</time>
      </trkpt>
      <trkpt lat="42.15936" lon="0.89678">
        <ele>520.2</ele>
        <time>2022-05-23 08:16:45</time>
      </trkpt>
      <trkpt lat="42.15936" lon="0.89678">
        <ele>520.2</ele>
        <time>2022-05-23 08:16:46</time>
      </trkpt>
      <trkpt lat="42.15936" lon="0.89678">
        <ele>520.2</ele>
        <time>2022-05-23 08:16:47</time>
      </trkpt>
      <trkpt lat="42.15936" lon="0.89678">
        <ele>520.2</ele>
        <time>2022-05-23 08:16:48</time>
      </trkpt>
      <trkpt lat="42.15936" lon="0.89678">
        <ele>520.2</ele>
        <time>2022-05-23 08:16:49</time>
      </trkpt>
      <trkpt lat="42.15936" lon="0.89678">
        <ele>520.2</ele>
        <time>2022-05-23 08:16:50</time>
      </trkpt>
      <trkpt lat="42.15936" lon="0.89678">
        <ele>520.2</ele>
        <time>2022-05-23 08:16:51</time>
      </trkpt>
      <trkpt lat="42.15929" lon="0.89674">
        <ele>520.2</ele>
        <time>2022-05-23 08:16:52</time>
      </trkpt>
      <trkpt lat="42.15928" lon="0.89673">
        <ele>520.2</ele>
        <time>2022-05-23 08:16:53</time>
      </trkpt>
      <trkpt lat="42.15926" lon="0.89672">
        <ele>520.2</ele>
        <time>2022-05-23 08:16:54</time>
      </trkpt>
      <trkpt lat="42.15925" lon="0.8967">
        <ele>520.2</ele>
        <time>2022-05-23 08:16:55</time>
      </trkpt>
      <trkpt lat="42.15923" lon="0.89668">
        <ele>520</ele>
        <time>2022-05-23 08:16:56</time>
      </trkpt>
      <trkpt lat="42.1592" lon="0.89666">
        <ele>520</ele>
        <time>2022-05-23 08:16:57</time>
      </trkpt>
      <trkpt lat="42.15917" lon="0.89665">
        <ele>519.8</ele>
        <time>2022-05-23 08:16:58</time>
      </trkpt>
      <trkpt lat="42.15913" lon="0.89664">
        <ele>519.6</ele>
        <time>2022-05-23 08:16:59</time>
      </trkpt>
      <trkpt lat="42.15909" lon="0.89663">
        <ele>519.6</ele>
        <time>2022-05-23 08:17:00</time>
      </trkpt>
      <trkpt lat="42.15905" lon="0.89662">
        <ele>519.4</ele>
        <time>2022-05-23 08:17:01</time>
      </trkpt>
      <trkpt lat="42.15901" lon="0.89662">
        <ele>519.2</ele>
        <time>2022-05-23 08:17:02</time>
      </trkpt>
      <trkpt lat="42.15896" lon="0.89661">
        <ele>519.2</ele>
        <time>2022-05-23 08:17:03</time>
      </trkpt>
      <trkpt lat="42.15892" lon="0.89661">
        <ele>519</ele>
        <time>2022-05-23 08:17:04</time>
      </trkpt>
      <trkpt lat="42.15888" lon="0.8966">
        <ele>518.8</ele>
        <time>2022-05-23 08:17:05</time>
      </trkpt>
      <trkpt lat="42.15883" lon="0.89659">
        <ele>518.8</ele>
        <time>2022-05-23 08:25:11</time>
      </trkpt>
      <trkpt lat="42.15878" lon="0.89658">
        <ele>518.8</ele>
        <time>2022-05-23 08:25:12</time>
      </trkpt>
      <trkpt lat="42.15874" lon="0.89658">
        <ele>518.8</ele>
        <time>2022-05-23 08:25:13</time>
      </trkpt>
      <trkpt lat="42.15869" lon="0.89657">
        <ele>518.8</ele>
        <time>2022-05-23 08:25:14</time>
      </trkpt>
      <trkpt lat="42.15865" lon="0.89657">
        <ele>518.8</ele>
        <time>2022-05-23 08:25:15</time>
      </trkpt>
      <trkpt lat="42.15861" lon="0.89657">
        <ele>518.8</ele>
        <time>2022-05-23 08:25:16</time>
      </trkpt>
      <trkpt lat="42.15856" lon="0.89656">
        <ele>518.8</ele>
        <time>2022-05-23 08:25:17</time>
      </trkpt>
      <trkpt lat="42.15853" lon="0.89656">
        <ele>519</ele>
        <time>2022-05-23 08:25:24</time>
      </trkpt>
      <trkpt lat="42.1585" lon="0.89656">
        <ele>519</ele>
        <time>2022-05-23 08:25:25</time>
      </trkpt>
      <trkpt lat="42.15846" lon="0.89656">
        <ele>519</ele>
        <time>2022-05-23 08:25:26</time>
      </trkpt>
      <trkpt lat="42.15843" lon="0.89657">
        <ele>519.2</ele>
        <time>2022-05-23 08:25:27</time>
      </trkpt>
      <trkpt lat="42.1584" lon="0.89658">
        <ele>519.2</ele>
        <time>2022-05-23 08:25:28</time>
      </trkpt>
      <trkpt lat="42.15837" lon="0.89659">
        <ele>519.4</ele>
        <time>2022-05-23 08:25:29</time>
      </trkpt>
      <trkpt lat="42.15834" lon="0.8966">
        <ele>519.6</ele>
        <time>2022-05-23 08:25:30</time>
      </trkpt>
      <trkpt lat="42.15832" lon="0.89661">
        <ele>519.6</ele>
        <time>2022-05-23 08:25:31</time>
      </trkpt>
      <trkpt lat="42.15829" lon="0.89663">
        <ele>519.8</ele>
        <time>2022-05-23 08:25:32</time>
      </trkpt>
      <trkpt lat="42.15827" lon="0.89665">
        <ele>520</ele>
        <time>2022-05-23 08:25:33</time>
      </trkpt>
      <trkpt lat="42.15824" lon="0.89666">
        <ele>520</ele>
        <time>2022-05-23 08:25:34</time>
      </trkpt>
      <trkpt lat="42.15823" lon="0.89668">
        <ele>520.2</ele>
        <time>2022-05-23 08:25:35</time>
      </trkpt>
      <trkpt lat="42.15821" lon="0.8967">
        <ele>520.4</ele>
        <time>2022-05-23 08:25:36</time>
      </trkpt>
      <trkpt lat="42.15819" lon="0.89672">
        <ele>520.6</ele>
        <time>2022-05-23 08:25:37</time>
      </trkpt>
      <trkpt lat="42.15818" lon="0.89674">
        <ele>520.6</ele>
        <time>2022-05-23 08:25:38</time>
      </trkpt>
      <trkpt lat="42.15816" lon="0.89676">
        <ele>520.8</ele>
        <time>2022-05-23 08:25:39</time>
      </trkpt>
      <trkpt lat="42.15815" lon="0.89679">
        <ele>520.8</ele>
        <time>2022-05-23 08:25:40</time>
      </trkpt>
      <trkpt lat="42.15812" lon="0.89681">
        <ele>521</ele>
        <time>2022-05-23 08:25:41</time>
      </trkpt>
      <trkpt lat="42.15809" lon="0.89684">
        <ele>521.2</ele>
        <time>2022-05-23 08:25:42</time>
      </trkpt>
      <trkpt lat="42.15806" lon="0.89688">
        <ele>521.2</ele>
        <time>2022-05-23 08:25:43</time>
      </trkpt>
      <trkpt lat="42.15803" lon="0.89691">
        <ele>521.4</ele>
        <time>2022-05-23 08:25:44</time>
      </trkpt>
      <trkpt lat="42.15802" lon="0.89696">
        <ele>521.6</ele>
        <time>2022-05-23 08:25:45</time>
      </trkpt>
      <trkpt lat="42.15802" lon="0.897">
        <ele>521.6</ele>
        <time>2022-05-23 08:25:46</time>
      </trkpt>
      <trkpt lat="42.15802" lon="0.89704">
        <ele>521.8</ele>
        <time>2022-05-23 08:25:47</time>
      </trkpt>
      <trkpt lat="42.15801" lon="0.89707">
        <ele>522</ele>
        <time>2022-05-23 08:25:48</time>
      </trkpt>
      <trkpt lat="42.158" lon="0.8971">
        <ele>522</ele>
        <time>2022-05-23 08:25:49</time>
      </trkpt>
      <trkpt lat="42.15799" lon="0.89714">
        <ele>522.2</ele>
        <time>2022-05-23 08:25:50</time>
      </trkpt>
      <trkpt lat="42.15798" lon="0.89718">
        <ele>522.4</ele>
        <time>2022-05-23 08:25:51</time>
      </trkpt>
      <trkpt lat="42.15796" lon="0.89721">
        <ele>522.6</ele>
        <time>2022-05-23 08:25:52</time>
      </trkpt>
      <trkpt lat="42.15794" lon="0.89725">
        <ele>522.8</ele>
        <time>2022-05-23 08:25:53</time>
      </trkpt>
      <trkpt lat="42.15794" lon="0.89728">
        <ele>523</ele>
        <time>2022-05-23 08:25:54</time>
      </trkpt>
      <trkpt lat="42.15792" lon="0.89732">
        <ele>523.2</ele>
        <time>2022-05-23 08:25:55</time>
      </trkpt>
      <trkpt lat="42.1579" lon="0.89735">
        <ele>523.2</ele>
        <time>2022-05-23 08:25:56</time>
      </trkpt>
      <trkpt lat="42.15789" lon="0.89739">
        <ele>523.4</ele>
        <time>2022-05-23 08:25:57</time>
      </trkpt>
      <trkpt lat="42.15787" lon="0.89742">
        <ele>523.6</ele>
        <time>2022-05-23 08:25:58</time>
      </trkpt>
      <trkpt lat="42.15786" lon="0.89745">
        <ele>523.8</ele>
        <time>2022-05-23 08:25:59</time>
      </trkpt>
      <trkpt lat="42.15785" lon="0.89749">
        <ele>524</ele>
        <time>2022-05-23 08:26:00</time>
      </trkpt>
      <trkpt lat="42.15784" lon="0.89752">
        <ele>524.2</ele>
        <time>2022-05-23 08:26:01</time>
      </trkpt>
      <trkpt lat="42.15782" lon="0.89756">
        <ele>524.4</ele>
        <time>2022-05-23 08:26:02</time>
      </trkpt>
      <trkpt lat="42.15782" lon="0.8976">
        <ele>524.6</ele>
        <time>2022-05-23 08:26:03</time>
      </trkpt>
      <trkpt lat="42.15781" lon="0.89763">
        <ele>524.6</ele>
        <time>2022-05-23 08:26:04</time>
      </trkpt>
      <trkpt lat="42.1578" lon="0.89767">
        <ele>524.8</ele>
        <time>2022-05-23 08:26:05</time>
      </trkpt>
      <trkpt lat="42.15779" lon="0.89771">
        <ele>525</ele>
        <time>2022-05-23 08:26:06</time>
      </trkpt>
      <trkpt lat="42.15778" lon="0.89774">
        <ele>525.2</ele>
        <time>2022-05-23 08:26:07</time>
      </trkpt>
      <trkpt lat="42.15777" lon="0.89777">
        <ele>525.4</ele>
        <time>2022-05-23 08:26:08</time>
      </trkpt>
      <trkpt lat="42.15776" lon="0.89781">
        <ele>525.6</ele>
        <time>2022-05-23 08:26:09</time>
      </trkpt>
      <trkpt lat="42.15775" lon="0.89785">
        <ele>525.6</ele>
        <time>2022-05-23 08:26:10</time>
      </trkpt>
      <trkpt lat="42.15774" lon="0.89789">
        <ele>525.8</ele>
        <time>2022-05-23 08:26:11</time>
      </trkpt>
      <trkpt lat="42.15773" lon="0.89792">
        <ele>526</ele>
        <time>2022-05-23 08:26:12</time>
      </trkpt>
      <trkpt lat="42.15772" lon="0.89795">
        <ele>526.2</ele>
        <time>2022-05-23 08:26:13</time>
      </trkpt>
      <trkpt lat="42.15771" lon="0.89799">
        <ele>526.4</ele>
        <time>2022-05-23 08:26:14</time>
      </trkpt>
      <trkpt lat="42.1577" lon="0.89803">
        <ele>526.4</ele>
        <time>2022-05-23 08:26:15</time>
      </trkpt>
      <trkpt lat="42.1577" lon="0.89807">
        <ele>526.6</ele>
        <time>2022-05-23 08:26:16</time>
      </trkpt>
      <trkpt lat="42.1577" lon="0.8981">
        <ele>526.8</ele>
        <time>2022-05-23 08:26:17</time>
      </trkpt>
      <trkpt lat="42.1577" lon="0.89814">
        <ele>526.8</ele>
        <time>2022-05-23 08:26:18</time>
      </trkpt>
      <trkpt lat="42.1577" lon="0.89818">
        <ele>527</ele>
        <time>2022-05-23 08:26:19</time>
      </trkpt>
      <trkpt lat="42.1577" lon="0.89822">
        <ele>527.2</ele>
        <time>2022-05-23 08:26:20</time>
      </trkpt>
      <trkpt lat="42.1577" lon="0.89826">
        <ele>527.4</ele>
        <time>2022-05-23 08:26:21</time>
      </trkpt>
      <trkpt lat="42.1577" lon="0.8983">
        <ele>527.6</ele>
        <time>2022-05-23 08:26:22</time>
      </trkpt>
      <trkpt lat="42.1577" lon="0.89834">
        <ele>527.6</ele>
        <time>2022-05-23 08:26:23</time>
      </trkpt>
      <trkpt lat="42.15769" lon="0.89837">
        <ele>527.8</ele>
        <time>2022-05-23 08:26:24</time>
      </trkpt>
      <trkpt lat="42.15769" lon="0.89841">
        <ele>528</ele>
        <time>2022-05-23 08:26:25</time>
      </trkpt>
      <trkpt lat="42.15769" lon="0.89845">
        <ele>528.2</ele>
        <time>2022-05-23 08:26:26</time>
      </trkpt>
      <trkpt lat="42.15769" lon="0.89849">
        <ele>528.2</ele>
        <time>2022-05-23 08:26:27</time>
      </trkpt>
      <trkpt lat="42.15768" lon="0.89853">
        <ele>528.4</ele>
        <time>2022-05-23 08:26:28</time>
      </trkpt>
      <trkpt lat="42.15768" lon="0.89857">
        <ele>528.6</ele>
        <time>2022-05-23 08:26:29</time>
      </trkpt>
      <trkpt lat="42.15768" lon="0.89861">
        <ele>528.8</ele>
        <time>2022-05-23 08:26:30</time>
      </trkpt>
      <trkpt lat="42.15767" lon="0.89865">
        <ele>529</ele>
        <time>2022-05-23 08:26:31</time>
      </trkpt>
      <trkpt lat="42.15767" lon="0.89868">
        <ele>529</ele>
        <time>2022-05-23 08:26:32</time>
      </trkpt>
      <trkpt lat="42.15765" lon="0.89872">
        <ele>529.2</ele>
        <time>2022-05-23 08:26:33</time>
      </trkpt>
      <trkpt lat="42.15764" lon="0.89876">
        <ele>529.4</ele>
        <time>2022-05-23 08:26:34</time>
      </trkpt>
      <trkpt lat="42.15763" lon="0.89879">
        <ele>529.6</ele>
        <time>2022-05-23 08:26:35</time>
      </trkpt>
      <trkpt lat="42.15762" lon="0.89882">
        <ele>529.8</ele>
        <time>2022-05-23 08:26:36</time>
      </trkpt>
      <trkpt lat="42.1576" lon="0.89885">
        <ele>530</ele>
        <time>2022-05-23 08:26:37</time>
      </trkpt>
      <trkpt lat="42.15758" lon="0.89888">
        <ele>530.2</ele>
        <time>2022-05-23 08:26:38</time>
      </trkpt>
      <trkpt lat="42.15756" lon="0.8989">
        <ele>530.4</ele>
        <time>2022-05-23 08:26:39</time>
      </trkpt>
      <trkpt lat="42.15755" lon="0.89892">
        <ele>530.6</ele>
        <time>2022-05-23 08:26:40</time>
      </trkpt>
      <trkpt lat="42.15752" lon="0.89893">
        <ele>530.6</ele>
        <time>2022-05-23 08:26:41</time>
      </trkpt>
      <trkpt lat="42.15749" lon="0.89895">
        <ele>530.8</ele>
        <time>2022-05-23 08:26:42</time>
      </trkpt>
      <trkpt lat="42.15747" lon="0.89896">
        <ele>531</ele>
        <time>2022-05-23 08:26:43</time>
      </trkpt>
      <trkpt lat="42.15745" lon="0.89897">
        <ele>531.2</ele>
        <time>2022-05-23 08:26:44</time>
      </trkpt>
      <trkpt lat="42.15743" lon="0.89898">
        <ele>531.4</ele>
        <time>2022-05-23 08:26:45</time>
      </trkpt>
      <trkpt lat="42.1574" lon="0.89898">
        <ele>531.4</ele>
        <time>2022-05-23 08:26:46</time>
      </trkpt>
      <trkpt lat="42.15737" lon="0.89899">
        <ele>531.6</ele>
        <time>2022-05-23 08:26:47</time>
      </trkpt>
      <trkpt lat="42.15734" lon="0.89899">
        <ele>531.8</ele>
        <time>2022-05-23 08:26:48</time>
      </trkpt>
      <trkpt lat="42.15731" lon="0.89899">
        <ele>531.8</ele>
        <time>2022-05-23 08:26:49</time>
      </trkpt>
      <trkpt lat="42.15728" lon="0.89899">
        <ele>532</ele>
        <time>2022-05-23 08:26:50</time>
      </trkpt>
      <trkpt lat="42.15725" lon="0.89899">
        <ele>532.2</ele>
        <time>2022-05-23 08:26:51</time>
      </trkpt>
      <trkpt lat="42.15721" lon="0.89899">
        <ele>532.4</ele>
        <time>2022-05-23 08:26:52</time>
      </trkpt>
      <trkpt lat="42.15718" lon="0.89899">
        <ele>532.4</ele>
        <time>2022-05-23 08:26:53</time>
      </trkpt>
      <trkpt lat="42.15715" lon="0.89898">
        <ele>532.6</ele>
        <time>2022-05-23 08:26:54</time>
      </trkpt>
      <trkpt lat="42.15711" lon="0.89898">
        <ele>532.8</ele>
        <time>2022-05-23 08:26:55</time>
      </trkpt>
      <trkpt lat="42.15708" lon="0.89897">
        <ele>532.8</ele>
        <time>2022-05-23 08:26:56</time>
      </trkpt>
      <trkpt lat="42.15705" lon="0.89895">
        <ele>533</ele>
        <time>2022-05-23 08:26:57</time>
      </trkpt>
      <trkpt lat="42.15702" lon="0.89894">
        <ele>533.2</ele>
        <time>2022-05-23 08:26:58</time>
      </trkpt>
      <trkpt lat="42.15699" lon="0.89893">
        <ele>533.4</ele>
        <time>2022-05-23 08:26:59</time>
      </trkpt>
      <trkpt lat="42.15696" lon="0.89891">
        <ele>533.4</ele>
        <time>2022-05-23 08:27:00</time>
      </trkpt>
      <trkpt lat="42.15693" lon="0.8989">
        <ele>533.6</ele>
        <time>2022-05-23 08:27:01</time>
      </trkpt>
      <trkpt lat="42.1569" lon="0.89889">
        <ele>533.8</ele>
        <time>2022-05-23 08:27:02</time>
      </trkpt>
      <trkpt lat="42.15687" lon="0.89887">
        <ele>533.8</ele>
        <time>2022-05-23 08:27:03</time>
      </trkpt>
      <trkpt lat="42.15684" lon="0.89886">
        <ele>534</ele>
        <time>2022-05-23 08:27:04</time>
      </trkpt>
      <trkpt lat="42.15682" lon="0.89884">
        <ele>534.2</ele>
        <time>2022-05-23 08:27:05</time>
      </trkpt>
      <trkpt lat="42.15678" lon="0.89882">
        <ele>534.4</ele>
        <time>2022-05-23 08:27:06</time>
      </trkpt>
      <trkpt lat="42.15675" lon="0.89881">
        <ele>534.4</ele>
        <time>2022-05-23 08:27:07</time>
      </trkpt>
      <trkpt lat="42.15672" lon="0.89879">
        <ele>534.6</ele>
        <time>2022-05-23 08:27:08</time>
      </trkpt>
      <trkpt lat="42.15669" lon="0.89877">
        <ele>534.8</ele>
        <time>2022-05-23 08:27:09</time>
      </trkpt>
      <trkpt lat="42.15666" lon="0.89876">
        <ele>534.8</ele>
        <time>2022-05-23 08:27:10</time>
      </trkpt>
      <trkpt lat="42.15663" lon="0.89874">
        <ele>535</ele>
        <time>2022-05-23 08:27:11</time>
      </trkpt>
      <trkpt lat="42.1566" lon="0.89872">
        <ele>535.2</ele>
        <time>2022-05-23 08:27:12</time>
      </trkpt>
      <trkpt lat="42.15657" lon="0.8987">
        <ele>535.2</ele>
        <time>2022-05-23 08:27:13</time>
      </trkpt>
      <trkpt lat="42.15654" lon="0.89867">
        <ele>535.4</ele>
        <time>2022-05-23 08:27:14</time>
      </trkpt>
      <trkpt lat="42.15652" lon="0.89864">
        <ele>535.6</ele>
        <time>2022-05-23 08:27:15</time>
      </trkpt>
      <trkpt lat="42.1565" lon="0.89861">
        <ele>535.6</ele>
        <time>2022-05-23 08:27:16</time>
      </trkpt>
      <trkpt lat="42.15649" lon="0.89857">
        <ele>535.8</ele>
        <time>2022-05-23 08:27:17</time>
      </trkpt>
      <trkpt lat="42.15648" lon="0.89853">
        <ele>535.8</ele>
        <time>2022-05-23 08:27:18</time>
      </trkpt>
      <trkpt lat="42.15648" lon="0.89849">
        <ele>536</ele>
        <time>2022-05-23 08:27:19</time>
      </trkpt>
      <trkpt lat="42.15648" lon="0.89845">
        <ele>536.2</ele>
        <time>2022-05-23 08:27:20</time>
      </trkpt>
      <trkpt lat="42.15648" lon="0.89842">
        <ele>536.4</ele>
        <time>2022-05-23 08:27:21</time>
      </trkpt>
      <trkpt lat="42.15648" lon="0.89839">
        <ele>536.8</ele>
        <time>2022-05-23 08:27:22</time>
      </trkpt>
      <trkpt lat="42.15649" lon="0.89835">
        <ele>537</ele>
        <time>2022-05-23 08:27:23</time>
      </trkpt>
      <trkpt lat="42.1565" lon="0.89833">
        <ele>537.2</ele>
        <time>2022-05-23 08:27:24</time>
      </trkpt>
      <trkpt lat="42.15651" lon="0.8983">
        <ele>537.4</ele>
        <time>2022-05-23 08:27:25</time>
      </trkpt>
      <trkpt lat="42.15653" lon="0.89828">
        <ele>537.6</ele>
        <time>2022-05-23 08:27:26</time>
      </trkpt>
      <trkpt lat="42.15654" lon="0.89825">
        <ele>537.8</ele>
        <time>2022-05-23 08:27:27</time>
      </trkpt>
      <trkpt lat="42.15655" lon="0.89822">
        <ele>538</ele>
        <time>2022-05-23 08:27:28</time>
      </trkpt>
      <trkpt lat="42.15657" lon="0.8982">
        <ele>538.2</ele>
        <time>2022-05-23 08:27:29</time>
      </trkpt>
      <trkpt lat="42.15658" lon="0.89818">
        <ele>538.4</ele>
        <time>2022-05-23 08:27:30</time>
      </trkpt>
      <trkpt lat="42.15659" lon="0.89816">
        <ele>538.6</ele>
        <time>2022-05-23 08:27:31</time>
      </trkpt>
      <trkpt lat="42.15661" lon="0.89814">
        <ele>538.8</ele>
        <time>2022-05-23 08:27:32</time>
      </trkpt>
      <trkpt lat="42.15663" lon="0.89811">
        <ele>539</ele>
        <time>2022-05-23 08:27:33</time>
      </trkpt>
      <trkpt lat="42.15665" lon="0.89809">
        <ele>539.2</ele>
        <time>2022-05-23 08:27:34</time>
      </trkpt>
      <trkpt lat="42.15667" lon="0.89807">
        <ele>539.4</ele>
        <time>2022-05-23 08:27:35</time>
      </trkpt>
      <trkpt lat="42.15669" lon="0.89804">
        <ele>539.4</ele>
        <time>2022-05-23 08:27:36</time>
      </trkpt>
      <trkpt lat="42.15671" lon="0.89802">
        <ele>539.6</ele>
        <time>2022-05-23 08:27:37</time>
      </trkpt>
      <trkpt lat="42.15673" lon="0.898">
        <ele>539.8</ele>
        <time>2022-05-23 08:27:38</time>
      </trkpt>
      <trkpt lat="42.15675" lon="0.89798">
        <ele>540</ele>
        <time>2022-05-23 08:27:39</time>
      </trkpt>
      <trkpt lat="42.15677" lon="0.89796">
        <ele>540.2</ele>
        <time>2022-05-23 08:27:40</time>
      </trkpt>
      <trkpt lat="42.15679" lon="0.89793">
        <ele>540.4</ele>
        <time>2022-05-23 08:27:41</time>
      </trkpt>
      <trkpt lat="42.15681" lon="0.89791">
        <ele>540.4</ele>
        <time>2022-05-23 08:27:42</time>
      </trkpt>
      <trkpt lat="42.15683" lon="0.89788">
        <ele>540.6</ele>
        <time>2022-05-23 08:27:43</time>
      </trkpt>
      <trkpt lat="42.15685" lon="0.89786">
        <ele>540.8</ele>
        <time>2022-05-23 08:27:44</time>
      </trkpt>
      <trkpt lat="42.15686" lon="0.89785">
        <ele>540.8</ele>
        <time>2022-05-23 08:27:45</time>
      </trkpt>
      <trkpt lat="42.1569" lon="0.89781">
        <ele>541</ele>
        <time>2022-05-23 08:27:46</time>
      </trkpt>
      <trkpt lat="42.15691" lon="0.89779">
        <ele>541.2</ele>
        <time>2022-05-23 08:27:47</time>
      </trkpt>
      <trkpt lat="42.15693" lon="0.89776">
        <ele>541.4</ele>
        <time>2022-05-23 08:27:48</time>
      </trkpt>
      <trkpt lat="42.15695" lon="0.89774">
        <ele>541.6</ele>
        <time>2022-05-23 08:27:49</time>
      </trkpt>
      <trkpt lat="42.15697" lon="0.89771">
        <ele>541.8</ele>
        <time>2022-05-23 08:27:50</time>
      </trkpt>
      <trkpt lat="42.15698" lon="0.89769">
        <ele>541.8</ele>
        <time>2022-05-23 08:27:51</time>
      </trkpt>
      <trkpt lat="42.157" lon="0.89766">
        <ele>542</ele>
        <time>2022-05-23 08:27:52</time>
      </trkpt>
      <trkpt lat="42.15702" lon="0.89764">
        <ele>542.2</ele>
        <time>2022-05-23 08:27:53</time>
      </trkpt>
      <trkpt lat="42.15703" lon="0.89761">
        <ele>542.4</ele>
        <time>2022-05-23 08:27:54</time>
      </trkpt>
      <trkpt lat="42.15704" lon="0.89759">
        <ele>542.6</ele>
        <time>2022-05-23 08:27:55</time>
      </trkpt>
      <trkpt lat="42.15705" lon="0.89755">
        <ele>542.8</ele>
        <time>2022-05-23 08:27:56</time>
      </trkpt>
      <trkpt lat="42.15706" lon="0.89752">
        <ele>543</ele>
        <time>2022-05-23 08:27:57</time>
      </trkpt>
      <trkpt lat="42.15707" lon="0.89749">
        <ele>543.2</ele>
        <time>2022-05-23 08:27:58</time>
      </trkpt>
      <trkpt lat="42.15708" lon="0.89746">
        <ele>543.4</ele>
        <time>2022-05-23 08:27:59</time>
      </trkpt>
      <trkpt lat="42.15709" lon="0.89744">
        <ele>543.4</ele>
        <time>2022-05-23 08:28:00</time>
      </trkpt>
      <trkpt lat="42.15709" lon="0.89741">
        <ele>543.6</ele>
        <time>2022-05-23 08:28:01</time>
      </trkpt>
      <trkpt lat="42.15709" lon="0.89738">
        <ele>543.8</ele>
        <time>2022-05-23 08:28:02</time>
      </trkpt>
      <trkpt lat="42.1571" lon="0.89735">
        <ele>544</ele>
        <time>2022-05-23 08:28:03</time>
      </trkpt>
      <trkpt lat="42.1571" lon="0.89733">
        <ele>544.2</ele>
        <time>2022-05-23 08:28:04</time>
      </trkpt>
      <trkpt lat="42.1571" lon="0.8973">
        <ele>544.4</ele>
        <time>2022-05-23 08:28:05</time>
      </trkpt>
      <trkpt lat="42.1571" lon="0.89727">
        <ele>544.4</ele>
        <time>2022-05-23 08:28:06</time>
      </trkpt>
      <trkpt lat="42.1571" lon="0.89724">
        <ele>544.6</ele>
        <time>2022-05-23 08:28:07</time>
      </trkpt>
      <trkpt lat="42.15711" lon="0.89721">
        <ele>544.8</ele>
        <time>2022-05-23 08:28:08</time>
      </trkpt>
      <trkpt lat="42.15711" lon="0.89718">
        <ele>545</ele>
        <time>2022-05-23 08:28:09</time>
      </trkpt>
      <trkpt lat="42.15711" lon="0.89715">
        <ele>545.2</ele>
        <time>2022-05-23 08:28:10</time>
      </trkpt>
      <trkpt lat="42.15711" lon="0.89712">
        <ele>545.2</ele>
        <time>2022-05-23 08:28:11</time>
      </trkpt>
      <trkpt lat="42.15711" lon="0.89709">
        <ele>545.4</ele>
        <time>2022-05-23 08:28:12</time>
      </trkpt>
      <trkpt lat="42.1571" lon="0.89706">
        <ele>545.6</ele>
        <time>2022-05-23 08:28:13</time>
      </trkpt>
      <trkpt lat="42.1571" lon="0.89703">
        <ele>545.8</ele>
        <time>2022-05-23 08:28:14</time>
      </trkpt>
      <trkpt lat="42.15709" lon="0.897">
        <ele>545.8</ele>
        <time>2022-05-23 08:28:15</time>
      </trkpt>
      <trkpt lat="42.15708" lon="0.89697">
        <ele>546</ele>
        <time>2022-05-23 08:28:16</time>
      </trkpt>
      <trkpt lat="42.15707" lon="0.89695">
        <ele>546.2</ele>
        <time>2022-05-23 08:28:17</time>
      </trkpt>
      <trkpt lat="42.15707" lon="0.89692">
        <ele>546.4</ele>
        <time>2022-05-23 08:28:18</time>
      </trkpt>
      <trkpt lat="42.15705" lon="0.89689">
        <ele>546.4</ele>
        <time>2022-05-23 08:28:19</time>
      </trkpt>
      <trkpt lat="42.15704" lon="0.89687">
        <ele>546.6</ele>
        <time>2022-05-23 08:28:20</time>
      </trkpt>
      <trkpt lat="42.15703" lon="0.89684">
        <ele>546.6</ele>
        <time>2022-05-23 08:28:21</time>
      </trkpt>
      <trkpt lat="42.15702" lon="0.89681">
        <ele>546.8</ele>
        <time>2022-05-23 08:28:22</time>
      </trkpt>
      <trkpt lat="42.157" lon="0.89678">
        <ele>546.8</ele>
        <time>2022-05-23 08:28:23</time>
      </trkpt>
      <trkpt lat="42.15699" lon="0.89675">
        <ele>547</ele>
        <time>2022-05-23 08:28:24</time>
      </trkpt>
      <trkpt lat="42.15698" lon="0.89672">
        <ele>547</ele>
        <time>2022-05-23 08:28:25</time>
      </trkpt>
      <trkpt lat="42.15696" lon="0.89669">
        <ele>547.2</ele>
        <time>2022-05-23 08:28:26</time>
      </trkpt>
      <trkpt lat="42.15694" lon="0.89667">
        <ele>547.2</ele>
        <time>2022-05-23 08:28:27</time>
      </trkpt>
      <trkpt lat="42.15693" lon="0.89664">
        <ele>547.2</ele>
        <time>2022-05-23 08:28:28</time>
      </trkpt>
      <trkpt lat="42.15691" lon="0.89661">
        <ele>547.2</ele>
        <time>2022-05-23 08:28:29</time>
      </trkpt>
      <trkpt lat="42.15689" lon="0.89658">
        <ele>547.2</ele>
        <time>2022-05-23 08:28:30</time>
      </trkpt>
      <trkpt lat="42.15688" lon="0.89655">
        <ele>547.2</ele>
        <time>2022-05-23 08:28:31</time>
      </trkpt>
      <trkpt lat="42.15686" lon="0.89651">
        <ele>547.4</ele>
        <time>2022-05-23 08:28:32</time>
      </trkpt>
      <trkpt lat="42.15684" lon="0.89647">
        <ele>547.4</ele>
        <time>2022-05-23 08:28:33</time>
      </trkpt>
      <trkpt lat="42.15683" lon="0.89642">
        <ele>547.4</ele>
        <time>2022-05-23 08:28:34</time>
      </trkpt>
      <trkpt lat="42.15682" lon="0.89637">
        <ele>547.4</ele>
        <time>2022-05-23 08:28:35</time>
      </trkpt>
      <trkpt lat="42.15682" lon="0.89633">
        <ele>547.2</ele>
        <time>2022-05-23 08:28:36</time>
      </trkpt>
      <trkpt lat="42.15681" lon="0.89627">
        <ele>547.2</ele>
        <time>2022-05-23 08:28:37</time>
      </trkpt>
      <trkpt lat="42.1568" lon="0.89621">
        <ele>547.2</ele>
        <time>2022-05-23 08:28:38</time>
      </trkpt>
      <trkpt lat="42.1568" lon="0.89616">
        <ele>547.2</ele>
        <time>2022-05-23 08:28:39</time>
      </trkpt>
      <trkpt lat="42.1568" lon="0.8961">
        <ele>547.2</ele>
        <time>2022-05-23 08:28:40</time>
      </trkpt>
      <trkpt lat="42.1568" lon="0.89604">
        <ele>547.2</ele>
        <time>2022-05-23 08:28:41</time>
      </trkpt>
      <trkpt lat="42.1568" lon="0.89598">
        <ele>547.2</ele>
        <time>2022-05-23 08:28:42</time>
      </trkpt>
      <trkpt lat="42.1568" lon="0.89591">
        <ele>547.2</ele>
        <time>2022-05-23 08:28:43</time>
      </trkpt>
      <trkpt lat="42.1568" lon="0.89586">
        <ele>547.2</ele>
        <time>2022-05-23 08:28:44</time>
      </trkpt>
      <trkpt lat="42.15681" lon="0.8958">
        <ele>547.2</ele>
        <time>2022-05-23 08:28:45</time>
      </trkpt>
      <trkpt lat="42.15681" lon="0.89574">
        <ele>547.2</ele>
        <time>2022-05-23 08:28:46</time>
      </trkpt>
      <trkpt lat="42.15681" lon="0.89568">
        <ele>547.2</ele>
        <time>2022-05-23 08:28:47</time>
      </trkpt>
      <trkpt lat="42.15682" lon="0.89563">
        <ele>547.2</ele>
        <time>2022-05-23 08:28:48</time>
      </trkpt>
      <trkpt lat="42.15682" lon="0.89556">
        <ele>547.2</ele>
        <time>2022-05-23 08:28:49</time>
      </trkpt>
      <trkpt lat="42.15683" lon="0.89551">
        <ele>547.2</ele>
        <time>2022-05-23 08:28:50</time>
      </trkpt>
      <trkpt lat="42.15683" lon="0.89545">
        <ele>547.2</ele>
        <time>2022-05-23 08:28:51</time>
      </trkpt>
      <trkpt lat="42.15683" lon="0.89539">
        <ele>547.2</ele>
        <time>2022-05-23 08:28:52</time>
      </trkpt>
      <trkpt lat="42.15684" lon="0.89533">
        <ele>547.2</ele>
        <time>2022-05-23 08:28:53</time>
      </trkpt>
      <trkpt lat="42.15684" lon="0.89528">
        <ele>547.4</ele>
        <time>2022-05-23 08:28:54</time>
      </trkpt>
      <trkpt lat="42.15684" lon="0.89521">
        <ele>547.4</ele>
        <time>2022-05-23 08:28:55</time>
      </trkpt>
      <trkpt lat="42.15685" lon="0.89516">
        <ele>547.4</ele>
        <time>2022-05-23 08:28:56</time>
      </trkpt>
      <trkpt lat="42.15685" lon="0.8951">
        <ele>547.4</ele>
        <time>2022-05-23 08:28:57</time>
      </trkpt>
      <trkpt lat="42.15685" lon="0.89504">
        <ele>547.4</ele>
        <time>2022-05-23 08:28:58</time>
      </trkpt>
      <trkpt lat="42.15686" lon="0.89498">
        <ele>547.4</ele>
        <time>2022-05-23 08:28:59</time>
      </trkpt>
      <trkpt lat="42.15686" lon="0.89492">
        <ele>547.4</ele>
        <time>2022-05-23 08:29:00</time>
      </trkpt>
      <trkpt lat="42.15687" lon="0.89486">
        <ele>547.4</ele>
        <time>2022-05-23 08:29:01</time>
      </trkpt>
      <trkpt lat="42.15688" lon="0.89479">
        <ele>547.4</ele>
        <time>2022-05-23 08:29:02</time>
      </trkpt>
      <trkpt lat="42.15688" lon="0.89473">
        <ele>547.4</ele>
        <time>2022-05-23 08:29:03</time>
      </trkpt>
      <trkpt lat="42.15688" lon="0.89467">
        <ele>547.4</ele>
        <time>2022-05-23 08:29:04</time>
      </trkpt>
      <trkpt lat="42.15688" lon="0.89461">
        <ele>547.6</ele>
        <time>2022-05-23 08:29:05</time>
      </trkpt>
      <trkpt lat="42.15689" lon="0.89455">
        <ele>547.6</ele>
        <time>2022-05-23 08:29:06</time>
      </trkpt>
      <trkpt lat="42.1569" lon="0.89449">
        <ele>547.6</ele>
        <time>2022-05-23 08:29:07</time>
      </trkpt>
      <trkpt lat="42.1569" lon="0.89443">
        <ele>547.6</ele>
        <time>2022-05-23 08:29:08</time>
      </trkpt>
      <trkpt lat="42.15691" lon="0.89436">
        <ele>547.6</ele>
        <time>2022-05-23 08:29:09</time>
      </trkpt>
      <trkpt lat="42.15692" lon="0.8943">
        <ele>547.6</ele>
        <time>2022-05-23 08:29:10</time>
      </trkpt>
      <trkpt lat="42.15692" lon="0.89424">
        <ele>547.6</ele>
        <time>2022-05-23 08:29:11</time>
      </trkpt>
      <trkpt lat="42.15693" lon="0.89418">
        <ele>547.6</ele>
        <time>2022-05-23 08:29:12</time>
      </trkpt>
      <trkpt lat="42.15693" lon="0.89412">
        <ele>547.8</ele>
        <time>2022-05-23 08:29:13</time>
      </trkpt>
      <trkpt lat="42.15693" lon="0.89406">
        <ele>547.8</ele>
        <time>2022-05-23 08:29:14</time>
      </trkpt>
      <trkpt lat="42.15694" lon="0.894">
        <ele>547.8</ele>
        <time>2022-05-23 08:29:15</time>
      </trkpt>
      <trkpt lat="42.15694" lon="0.89394">
        <ele>547.8</ele>
        <time>2022-05-23 08:29:16</time>
      </trkpt>
      <trkpt lat="42.15694" lon="0.89388">
        <ele>547.8</ele>
        <time>2022-05-23 08:29:17</time>
      </trkpt>
      <trkpt lat="42.15694" lon="0.89383">
        <ele>547.8</ele>
        <time>2022-05-23 08:29:18</time>
      </trkpt>
      <trkpt lat="42.15694" lon="0.89377">
        <ele>548</ele>
        <time>2022-05-23 08:29:19</time>
      </trkpt>
      <trkpt lat="42.15695" lon="0.89371">
        <ele>548</ele>
        <time>2022-05-23 08:29:20</time>
      </trkpt>
      <trkpt lat="42.15695" lon="0.89365">
        <ele>548</ele>
        <time>2022-05-23 08:29:21</time>
      </trkpt>
      <trkpt lat="42.15695" lon="0.89359">
        <ele>548.2</ele>
        <time>2022-05-23 08:29:22</time>
      </trkpt>
      <trkpt lat="42.15696" lon="0.89354">
        <ele>548.2</ele>
        <time>2022-05-23 08:29:23</time>
      </trkpt>
      <trkpt lat="42.15696" lon="0.89348">
        <ele>548.4</ele>
        <time>2022-05-23 08:29:24</time>
      </trkpt>
      <trkpt lat="42.15696" lon="0.89342">
        <ele>548.4</ele>
        <time>2022-05-23 08:29:25</time>
      </trkpt>
      <trkpt lat="42.15696" lon="0.89337">
        <ele>548.4</ele>
        <time>2022-05-23 08:29:26</time>
      </trkpt>
      <trkpt lat="42.15696" lon="0.89332">
        <ele>548.6</ele>
        <time>2022-05-23 08:29:27</time>
      </trkpt>
      <trkpt lat="42.15697" lon="0.89326">
        <ele>548.6</ele>
        <time>2022-05-23 08:29:28</time>
      </trkpt>
      <trkpt lat="42.15698" lon="0.8932">
        <ele>548.8</ele>
        <time>2022-05-23 08:29:29</time>
      </trkpt>
      <trkpt lat="42.15698" lon="0.89315">
        <ele>548.8</ele>
        <time>2022-05-23 08:29:30</time>
      </trkpt>
      <trkpt lat="42.15699" lon="0.8931">
        <ele>549</ele>
        <time>2022-05-23 08:29:31</time>
      </trkpt>
      <trkpt lat="42.15699" lon="0.89304">
        <ele>549</ele>
        <time>2022-05-23 08:29:32</time>
      </trkpt>
      <trkpt lat="42.15699" lon="0.89299">
        <ele>549.2</ele>
        <time>2022-05-23 08:29:33</time>
      </trkpt>
      <trkpt lat="42.157" lon="0.89293">
        <ele>549.2</ele>
        <time>2022-05-23 08:29:34</time>
      </trkpt>
      <trkpt lat="42.157" lon="0.89288">
        <ele>549.4</ele>
        <time>2022-05-23 08:29:35</time>
      </trkpt>
      <trkpt lat="42.15701" lon="0.89283">
        <ele>549.4</ele>
        <time>2022-05-23 08:29:36</time>
      </trkpt>
      <trkpt lat="42.15701" lon="0.89278">
        <ele>549.6</ele>
        <time>2022-05-23 08:29:37</time>
      </trkpt>
      <trkpt lat="42.15701" lon="0.89272">
        <ele>549.6</ele>
        <time>2022-05-23 08:29:38</time>
      </trkpt>
      <trkpt lat="42.15702" lon="0.89266">
        <ele>549.6</ele>
        <time>2022-05-23 08:29:39</time>
      </trkpt>
      <trkpt lat="42.15702" lon="0.89261">
        <ele>549.8</ele>
        <time>2022-05-23 08:29:40</time>
      </trkpt>
      <trkpt lat="42.15703" lon="0.89256">
        <ele>549.8</ele>
        <time>2022-05-23 08:29:41</time>
      </trkpt>
      <trkpt lat="42.15703" lon="0.8925">
        <ele>550</ele>
        <time>2022-05-23 08:29:42</time>
      </trkpt>
      <trkpt lat="42.15704" lon="0.89245">
        <ele>550.2</ele>
        <time>2022-05-23 08:29:43</time>
      </trkpt>
      <trkpt lat="42.15704" lon="0.89239">
        <ele>550.2</ele>
        <time>2022-05-23 08:29:44</time>
      </trkpt>
      <trkpt lat="42.15704" lon="0.89234">
        <ele>550.4</ele>
        <time>2022-05-23 08:29:45</time>
      </trkpt>
      <trkpt lat="42.15705" lon="0.89229">
        <ele>550.4</ele>
        <time>2022-05-23 08:29:46</time>
      </trkpt>
      <trkpt lat="42.15705" lon="0.89223">
        <ele>550.6</ele>
        <time>2022-05-23 08:29:47</time>
      </trkpt>
      <trkpt lat="42.15705" lon="0.89218">
        <ele>550.6</ele>
        <time>2022-05-23 08:29:48</time>
      </trkpt>
      <trkpt lat="42.15706" lon="0.89213">
        <ele>550.8</ele>
        <time>2022-05-23 08:29:49</time>
      </trkpt>
      <trkpt lat="42.15706" lon="0.89207">
        <ele>550.8</ele>
        <time>2022-05-23 08:29:50</time>
      </trkpt>
      <trkpt lat="42.15706" lon="0.89202">
        <ele>551</ele>
        <time>2022-05-23 08:29:51</time>
      </trkpt>
      <trkpt lat="42.15707" lon="0.89196">
        <ele>551</ele>
        <time>2022-05-23 08:29:52</time>
      </trkpt>
      <trkpt lat="42.15707" lon="0.89191">
        <ele>551.2</ele>
        <time>2022-05-23 08:29:53</time>
      </trkpt>
      <trkpt lat="42.15707" lon="0.89185">
        <ele>551.2</ele>
        <time>2022-05-23 08:29:54</time>
      </trkpt>
      <trkpt lat="42.15708" lon="0.8918">
        <ele>551.4</ele>
        <time>2022-05-23 08:29:55</time>
      </trkpt>
      <trkpt lat="42.15708" lon="0.89174">
        <ele>551.6</ele>
        <time>2022-05-23 08:29:56</time>
      </trkpt>
      <trkpt lat="42.15708" lon="0.89169">
        <ele>551.6</ele>
        <time>2022-05-23 08:29:57</time>
      </trkpt>
      <trkpt lat="42.15709" lon="0.89163">
        <ele>551.8</ele>
        <time>2022-05-23 08:29:58</time>
      </trkpt>
      <trkpt lat="42.15709" lon="0.89158">
        <ele>551.8</ele>
        <time>2022-05-23 08:29:59</time>
      </trkpt>
      <trkpt lat="42.15709" lon="0.89152">
        <ele>552</ele>
        <time>2022-05-23 08:30:00</time>
      </trkpt>
      <trkpt lat="42.1571" lon="0.89147">
        <ele>552.2</ele>
        <time>2022-05-23 08:30:01</time>
      </trkpt>
      <trkpt lat="42.1571" lon="0.89141">
        <ele>552.4</ele>
        <time>2022-05-23 08:30:02</time>
      </trkpt>
      <trkpt lat="42.1571" lon="0.89136">
        <ele>552.4</ele>
        <time>2022-05-23 08:30:03</time>
      </trkpt>
      <trkpt lat="42.15711" lon="0.89131">
        <ele>552.6</ele>
        <time>2022-05-23 08:30:04</time>
      </trkpt>
      <trkpt lat="42.15711" lon="0.89125">
        <ele>552.6</ele>
        <time>2022-05-23 08:30:05</time>
      </trkpt>
      <trkpt lat="42.15711" lon="0.8912">
        <ele>552.8</ele>
        <time>2022-05-23 08:30:06</time>
      </trkpt>
      <trkpt lat="42.15711" lon="0.89114">
        <ele>553</ele>
        <time>2022-05-23 08:30:07</time>
      </trkpt>
      <trkpt lat="42.15712" lon="0.89109">
        <ele>553.2</ele>
        <time>2022-05-23 08:30:08</time>
      </trkpt>
      <trkpt lat="42.15712" lon="0.89104">
        <ele>553.2</ele>
        <time>2022-05-23 08:30:09</time>
      </trkpt>
      <trkpt lat="42.15712" lon="0.89099">
        <ele>553.4</ele>
        <time>2022-05-23 08:30:10</time>
      </trkpt>
      <trkpt lat="42.15713" lon="0.89094">
        <ele>553.6</ele>
        <time>2022-05-23 08:30:11</time>
      </trkpt>
      <trkpt lat="42.15714" lon="0.89089">
        <ele>553.6</ele>
        <time>2022-05-23 08:30:12</time>
      </trkpt>
      <trkpt lat="42.15714" lon="0.89083">
        <ele>553.8</ele>
        <time>2022-05-23 08:30:13</time>
      </trkpt>
      <trkpt lat="42.15714" lon="0.89078">
        <ele>554</ele>
        <time>2022-05-23 08:30:14</time>
      </trkpt>
      <trkpt lat="42.15715" lon="0.89072">
        <ele>554.2</ele>
        <time>2022-05-23 08:30:15</time>
      </trkpt>
      <trkpt lat="42.15715" lon="0.89067">
        <ele>554.2</ele>
        <time>2022-05-23 08:30:16</time>
      </trkpt>
      <trkpt lat="42.15716" lon="0.89062">
        <ele>554.4</ele>
        <time>2022-05-23 08:30:17</time>
      </trkpt>
      <trkpt lat="42.15716" lon="0.89057">
        <ele>554.6</ele>
        <time>2022-05-23 08:30:18</time>
      </trkpt>
      <trkpt lat="42.15716" lon="0.89052">
        <ele>554.6</ele>
        <time>2022-05-23 08:30:19</time>
      </trkpt>
      <trkpt lat="42.15717" lon="0.89047">
        <ele>554.8</ele>
        <time>2022-05-23 08:30:20</time>
      </trkpt>
      <trkpt lat="42.15717" lon="0.89042">
        <ele>555</ele>
        <time>2022-05-23 08:30:21</time>
      </trkpt>
      <trkpt lat="42.15717" lon="0.89037">
        <ele>555.2</ele>
        <time>2022-05-23 08:30:22</time>
      </trkpt>
      <trkpt lat="42.15717" lon="0.89033">
        <ele>555.2</ele>
        <time>2022-05-23 08:30:23</time>
      </trkpt>
      <trkpt lat="42.15718" lon="0.89028">
        <ele>555.4</ele>
        <time>2022-05-23 08:30:24</time>
      </trkpt>
      <trkpt lat="42.15718" lon="0.89023">
        <ele>555.4</ele>
        <time>2022-05-23 08:30:25</time>
      </trkpt>
      <trkpt lat="42.15719" lon="0.89018">
        <ele>555.6</ele>
        <time>2022-05-23 08:30:26</time>
      </trkpt>
      <trkpt lat="42.15719" lon="0.89013">
        <ele>555.8</ele>
        <time>2022-05-23 08:30:27</time>
      </trkpt>
      <trkpt lat="42.1572" lon="0.89008">
        <ele>555.8</ele>
        <time>2022-05-23 08:30:28</time>
      </trkpt>
      <trkpt lat="42.1572" lon="0.89004">
        <ele>556</ele>
        <time>2022-05-23 08:30:29</time>
      </trkpt>
      <trkpt lat="42.1572" lon="0.88999">
        <ele>556.2</ele>
        <time>2022-05-23 08:30:30</time>
      </trkpt>
      <trkpt lat="42.15721" lon="0.88995">
        <ele>556.2</ele>
        <time>2022-05-23 08:30:31</time>
      </trkpt>
      <trkpt lat="42.15721" lon="0.88989">
        <ele>556.4</ele>
        <time>2022-05-23 08:30:32</time>
      </trkpt>
      <trkpt lat="42.15721" lon="0.88985">
        <ele>556.6</ele>
        <time>2022-05-23 08:30:33</time>
      </trkpt>
      <trkpt lat="42.15722" lon="0.8898">
        <ele>556.6</ele>
        <time>2022-05-23 08:30:34</time>
      </trkpt>
      <trkpt lat="42.15722" lon="0.88975">
        <ele>556.8</ele>
        <time>2022-05-23 08:30:35</time>
      </trkpt>
      <trkpt lat="42.15722" lon="0.88971">
        <ele>557</ele>
        <time>2022-05-23 08:30:36</time>
      </trkpt>
      <trkpt lat="42.15722" lon="0.88966">
        <ele>557</ele>
        <time>2022-05-23 08:30:37</time>
      </trkpt>
      <trkpt lat="42.15723" lon="0.88961">
        <ele>557.2</ele>
        <time>2022-05-23 08:30:38</time>
      </trkpt>
      <trkpt lat="42.15723" lon="0.88956">
        <ele>557.4</ele>
        <time>2022-05-23 08:30:39</time>
      </trkpt>
      <trkpt lat="42.15723" lon="0.88952">
        <ele>557.4</ele>
        <time>2022-05-23 08:30:40</time>
      </trkpt>
      <trkpt lat="42.15724" lon="0.88947">
        <ele>557.6</ele>
        <time>2022-05-23 08:30:41</time>
      </trkpt>
      <trkpt lat="42.15724" lon="0.88943">
        <ele>557.8</ele>
        <time>2022-05-23 08:30:42</time>
      </trkpt>
      <trkpt lat="42.15724" lon="0.88938">
        <ele>557.8</ele>
        <time>2022-05-23 08:30:43</time>
      </trkpt>
      <trkpt lat="42.15725" lon="0.88933">
        <ele>558</ele>
        <time>2022-05-23 08:30:44</time>
      </trkpt>
      <trkpt lat="42.15725" lon="0.88928">
        <ele>558</ele>
        <time>2022-05-23 08:30:45</time>
      </trkpt>
      <trkpt lat="42.15725" lon="0.88923">
        <ele>558.2</ele>
        <time>2022-05-23 08:30:46</time>
      </trkpt>
      <trkpt lat="42.15725" lon="0.88918">
        <ele>558.4</ele>
        <time>2022-05-23 08:30:47</time>
      </trkpt>
      <trkpt lat="42.15726" lon="0.88914">
        <ele>558.4</ele>
        <time>2022-05-23 08:30:48</time>
      </trkpt>
      <trkpt lat="42.15726" lon="0.88909">
        <ele>558.6</ele>
        <time>2022-05-23 08:30:49</time>
      </trkpt>
      <trkpt lat="42.15726" lon="0.88904">
        <ele>558.6</ele>
        <time>2022-05-23 08:30:50</time>
      </trkpt>
      <trkpt lat="42.15727" lon="0.889">
        <ele>558.8</ele>
        <time>2022-05-23 08:30:51</time>
      </trkpt>
      <trkpt lat="42.15727" lon="0.88895">
        <ele>559</ele>
        <time>2022-05-23 08:30:52</time>
      </trkpt>
      <trkpt lat="42.15727" lon="0.88891">
        <ele>559</ele>
        <time>2022-05-23 08:30:53</time>
      </trkpt>
      <trkpt lat="42.15727" lon="0.88886">
        <ele>559.2</ele>
        <time>2022-05-23 08:30:54</time>
      </trkpt>
      <trkpt lat="42.15727" lon="0.88881">
        <ele>559.4</ele>
        <time>2022-05-23 08:30:55</time>
      </trkpt>
      <trkpt lat="42.15728" lon="0.88876">
        <ele>559.4</ele>
        <time>2022-05-23 08:30:56</time>
      </trkpt>
      <trkpt lat="42.15728" lon="0.88871">
        <ele>559.6</ele>
        <time>2022-05-23 08:30:57</time>
      </trkpt>
      <trkpt lat="42.15729" lon="0.88866">
        <ele>559.6</ele>
        <time>2022-05-23 08:30:58</time>
      </trkpt>
      <trkpt lat="42.15729" lon="0.88861">
        <ele>559.8</ele>
        <time>2022-05-23 08:30:59</time>
      </trkpt>
      <trkpt lat="42.1573" lon="0.88856">
        <ele>560</ele>
        <time>2022-05-23 08:31:00</time>
      </trkpt>
      <trkpt lat="42.1573" lon="0.88851">
        <ele>560</ele>
        <time>2022-05-23 08:31:01</time>
      </trkpt>
      <trkpt lat="42.1573" lon="0.88846">
        <ele>560.2</ele>
        <time>2022-05-23 08:31:02</time>
      </trkpt>
      <trkpt lat="42.15731" lon="0.88841">
        <ele>560.4</ele>
        <time>2022-05-23 08:31:03</time>
      </trkpt>
      <trkpt lat="42.15731" lon="0.88836">
        <ele>560.4</ele>
        <time>2022-05-23 08:31:04</time>
      </trkpt>
      <trkpt lat="42.15731" lon="0.88831">
        <ele>560.6</ele>
        <time>2022-05-23 08:31:05</time>
      </trkpt>
      <trkpt lat="42.15731" lon="0.88827">
        <ele>560.8</ele>
        <time>2022-05-23 08:31:06</time>
      </trkpt>
      <trkpt lat="42.15732" lon="0.88822">
        <ele>560.8</ele>
        <time>2022-05-23 08:31:07</time>
      </trkpt>
      <trkpt lat="42.15732" lon="0.88817">
        <ele>561</ele>
        <time>2022-05-23 08:31:08</time>
      </trkpt>
      <trkpt lat="42.15733" lon="0.88813">
        <ele>561</ele>
        <time>2022-05-23 08:31:09</time>
      </trkpt>
      <trkpt lat="42.15733" lon="0.88808">
        <ele>561.2</ele>
        <time>2022-05-23 08:31:10</time>
      </trkpt>
      <trkpt lat="42.15733" lon="0.88803">
        <ele>561.4</ele>
        <time>2022-05-23 08:31:11</time>
      </trkpt>
      <trkpt lat="42.15733" lon="0.88799">
        <ele>561.4</ele>
        <time>2022-05-23 08:31:12</time>
      </trkpt>
      <trkpt lat="42.15734" lon="0.88794">
        <ele>561.6</ele>
        <time>2022-05-23 08:31:13</time>
      </trkpt>
      <trkpt lat="42.15734" lon="0.8879">
        <ele>561.8</ele>
        <time>2022-05-23 08:31:14</time>
      </trkpt>
      <trkpt lat="42.15734" lon="0.88785">
        <ele>561.8</ele>
        <time>2022-05-23 08:31:15</time>
      </trkpt>
      <trkpt lat="42.15734" lon="0.88781">
        <ele>562</ele>
        <time>2022-05-23 08:31:16</time>
      </trkpt>
      <trkpt lat="42.15735" lon="0.88777">
        <ele>562.2</ele>
        <time>2022-05-23 08:31:17</time>
      </trkpt>
      <trkpt lat="42.15735" lon="0.88772">
        <ele>562.2</ele>
        <time>2022-05-23 08:31:18</time>
      </trkpt>
      <trkpt lat="42.15735" lon="0.88768">
        <ele>562.4</ele>
        <time>2022-05-23 08:31:19</time>
      </trkpt>
      <trkpt lat="42.15736" lon="0.88763">
        <ele>562.6</ele>
        <time>2022-05-23 08:31:20</time>
      </trkpt>
      <trkpt lat="42.15736" lon="0.88759">
        <ele>562.6</ele>
        <time>2022-05-23 08:31:21</time>
      </trkpt>
      <trkpt lat="42.15736" lon="0.88754">
        <ele>562.8</ele>
        <time>2022-05-23 08:31:22</time>
      </trkpt>
      <trkpt lat="42.15736" lon="0.8875">
        <ele>562.8</ele>
        <time>2022-05-23 08:31:23</time>
      </trkpt>
      <trkpt lat="42.15737" lon="0.88745">
        <ele>563</ele>
        <time>2022-05-23 08:31:24</time>
      </trkpt>
      <trkpt lat="42.15737" lon="0.88741">
        <ele>563.2</ele>
        <time>2022-05-23 08:31:25</time>
      </trkpt>
      <trkpt lat="42.15737" lon="0.88737">
        <ele>563.2</ele>
        <time>2022-05-23 08:31:26</time>
      </trkpt>
      <trkpt lat="42.15738" lon="0.88733">
        <ele>563.4</ele>
        <time>2022-05-23 08:31:27</time>
      </trkpt>
      <trkpt lat="42.15738" lon="0.88728">
        <ele>563.6</ele>
        <time>2022-05-23 08:31:28</time>
      </trkpt>
      <trkpt lat="42.15738" lon="0.88724">
        <ele>563.6</ele>
        <time>2022-05-23 08:31:29</time>
      </trkpt>
      <trkpt lat="42.15739" lon="0.8872">
        <ele>563.8</ele>
        <time>2022-05-23 08:31:30</time>
      </trkpt>
      <trkpt lat="42.15739" lon="0.88716">
        <ele>563.8</ele>
        <time>2022-05-23 08:31:31</time>
      </trkpt>
      <trkpt lat="42.15739" lon="0.88712">
        <ele>564</ele>
        <time>2022-05-23 08:31:32</time>
      </trkpt>
      <trkpt lat="42.15739" lon="0.88707">
        <ele>564.2</ele>
        <time>2022-05-23 08:31:33</time>
      </trkpt>
      <trkpt lat="42.1574" lon="0.88703">
        <ele>564.2</ele>
        <time>2022-05-23 08:31:34</time>
      </trkpt>
      <trkpt lat="42.1574" lon="0.88699">
        <ele>564.4</ele>
        <time>2022-05-23 08:31:35</time>
      </trkpt>
      <trkpt lat="42.15741" lon="0.88695">
        <ele>564.6</ele>
        <time>2022-05-23 08:31:36</time>
      </trkpt>
      <trkpt lat="42.15741" lon="0.88691">
        <ele>564.6</ele>
        <time>2022-05-23 08:31:37</time>
      </trkpt>
      <trkpt lat="42.15741" lon="0.88687">
        <ele>564.8</ele>
        <time>2022-05-23 08:31:38</time>
      </trkpt>
      <trkpt lat="42.15742" lon="0.88682">
        <ele>564.8</ele>
        <time>2022-05-23 08:31:39</time>
      </trkpt>
      <trkpt lat="42.15743" lon="0.88678">
        <ele>565</ele>
        <time>2022-05-23 08:31:40</time>
      </trkpt>
      <trkpt lat="42.15744" lon="0.88674">
        <ele>565</ele>
        <time>2022-05-23 08:31:41</time>
      </trkpt>
      <trkpt lat="42.15745" lon="0.8867">
        <ele>565.2</ele>
        <time>2022-05-23 08:31:42</time>
      </trkpt>
      <trkpt lat="42.15747" lon="0.88666">
        <ele>565.4</ele>
        <time>2022-05-23 08:31:43</time>
      </trkpt>
      <trkpt lat="42.15748" lon="0.88662">
        <ele>565.4</ele>
        <time>2022-05-23 08:31:44</time>
      </trkpt>
      <trkpt lat="42.15749" lon="0.88659">
        <ele>565.6</ele>
        <time>2022-05-23 08:31:45</time>
      </trkpt>
      <trkpt lat="42.1575" lon="0.88655">
        <ele>565.6</ele>
        <time>2022-05-23 08:31:46</time>
      </trkpt>
      <trkpt lat="42.15752" lon="0.88651">
        <ele>565.8</ele>
        <time>2022-05-23 08:31:47</time>
      </trkpt>
      <trkpt lat="42.15753" lon="0.88647">
        <ele>565.8</ele>
        <time>2022-05-23 08:31:48</time>
      </trkpt>
      <trkpt lat="42.15754" lon="0.88643">
        <ele>566</ele>
        <time>2022-05-23 08:31:49</time>
      </trkpt>
      <trkpt lat="42.15756" lon="0.8864">
        <ele>566.2</ele>
        <time>2022-05-23 08:31:50</time>
      </trkpt>
      <trkpt lat="42.15757" lon="0.88636">
        <ele>566.2</ele>
        <time>2022-05-23 08:31:51</time>
      </trkpt>
      <trkpt lat="42.15758" lon="0.88633">
        <ele>566.4</ele>
        <time>2022-05-23 08:31:52</time>
      </trkpt>
      <trkpt lat="42.1576" lon="0.88628">
        <ele>566.4</ele>
        <time>2022-05-23 08:31:53</time>
      </trkpt>
      <trkpt lat="42.15761" lon="0.88624">
        <ele>566.6</ele>
        <time>2022-05-23 08:31:54</time>
      </trkpt>
      <trkpt lat="42.15762" lon="0.88621">
        <ele>566.6</ele>
        <time>2022-05-23 08:31:55</time>
      </trkpt>
      <trkpt lat="42.15764" lon="0.88617">
        <ele>566.8</ele>
        <time>2022-05-23 08:31:56</time>
      </trkpt>
      <trkpt lat="42.15766" lon="0.88613">
        <ele>566.8</ele>
        <time>2022-05-23 08:31:57</time>
      </trkpt>
      <trkpt lat="42.15767" lon="0.88609">
        <ele>567</ele>
        <time>2022-05-23 08:31:58</time>
      </trkpt>
      <trkpt lat="42.15769" lon="0.88606">
        <ele>567</ele>
        <time>2022-05-23 08:31:59</time>
      </trkpt>
      <trkpt lat="42.1577" lon="0.88602">
        <ele>567.2</ele>
        <time>2022-05-23 08:32:00</time>
      </trkpt>
      <trkpt lat="42.15771" lon="0.88598">
        <ele>567.2</ele>
        <time>2022-05-23 08:32:01</time>
      </trkpt>
      <trkpt lat="42.15773" lon="0.88594">
        <ele>567.4</ele>
        <time>2022-05-23 08:32:02</time>
      </trkpt>
      <trkpt lat="42.15774" lon="0.8859">
        <ele>567.4</ele>
        <time>2022-05-23 08:32:03</time>
      </trkpt>
      <trkpt lat="42.15775" lon="0.88586">
        <ele>567.6</ele>
        <time>2022-05-23 08:32:04</time>
      </trkpt>
      <trkpt lat="42.15777" lon="0.88582">
        <ele>567.8</ele>
        <time>2022-05-23 08:32:05</time>
      </trkpt>
      <trkpt lat="42.15778" lon="0.88579">
        <ele>567.8</ele>
        <time>2022-05-23 08:32:06</time>
      </trkpt>
      <trkpt lat="42.1578" lon="0.88575">
        <ele>568</ele>
        <time>2022-05-23 08:32:07</time>
      </trkpt>
      <trkpt lat="42.15781" lon="0.88571">
        <ele>568</ele>
        <time>2022-05-23 08:32:08</time>
      </trkpt>
      <trkpt lat="42.15783" lon="0.88567">
        <ele>568.2</ele>
        <time>2022-05-23 08:32:09</time>
      </trkpt>
      <trkpt lat="42.15784" lon="0.88564">
        <ele>568.4</ele>
        <time>2022-05-23 08:32:10</time>
      </trkpt>
      <trkpt lat="42.15785" lon="0.8856">
        <ele>568.4</ele>
        <time>2022-05-23 08:32:11</time>
      </trkpt>
      <trkpt lat="42.15787" lon="0.88556">
        <ele>568.6</ele>
        <time>2022-05-23 08:32:12</time>
      </trkpt>
      <trkpt lat="42.15788" lon="0.88552">
        <ele>568.6</ele>
        <time>2022-05-23 08:32:13</time>
      </trkpt>
      <trkpt lat="42.1579" lon="0.88548">
        <ele>568.8</ele>
        <time>2022-05-23 08:32:14</time>
      </trkpt>
      <trkpt lat="42.15791" lon="0.88545">
        <ele>569</ele>
        <time>2022-05-23 08:32:15</time>
      </trkpt>
      <trkpt lat="42.15793" lon="0.88541">
        <ele>569</ele>
        <time>2022-05-23 08:32:16</time>
      </trkpt>
      <trkpt lat="42.15794" lon="0.88537">
        <ele>569.2</ele>
        <time>2022-05-23 08:32:17</time>
      </trkpt>
      <trkpt lat="42.15795" lon="0.88534">
        <ele>569.2</ele>
        <time>2022-05-23 08:32:18</time>
      </trkpt>
      <trkpt lat="42.15797" lon="0.8853">
        <ele>569.4</ele>
        <time>2022-05-23 08:32:19</time>
      </trkpt>
      <trkpt lat="42.15798" lon="0.88526">
        <ele>569.6</ele>
        <time>2022-05-23 08:32:20</time>
      </trkpt>
      <trkpt lat="42.15799" lon="0.88522">
        <ele>569.6</ele>
        <time>2022-05-23 08:32:21</time>
      </trkpt>
      <trkpt lat="42.15801" lon="0.88518">
        <ele>569.8</ele>
        <time>2022-05-23 08:32:22</time>
      </trkpt>
      <trkpt lat="42.15802" lon="0.88514">
        <ele>570</ele>
        <time>2022-05-23 08:32:23</time>
      </trkpt>
      <trkpt lat="42.15803" lon="0.8851">
        <ele>570</ele>
        <time>2022-05-23 08:32:24</time>
      </trkpt>
      <trkpt lat="42.15805" lon="0.88506">
        <ele>570.2</ele>
        <time>2022-05-23 08:32:25</time>
      </trkpt>
      <trkpt lat="42.15806" lon="0.88502">
        <ele>570.2</ele>
        <time>2022-05-23 08:32:26</time>
      </trkpt>
      <trkpt lat="42.15808" lon="0.88499">
        <ele>570.4</ele>
        <time>2022-05-23 08:32:27</time>
      </trkpt>
      <trkpt lat="42.15809" lon="0.88496">
        <ele>570.6</ele>
        <time>2022-05-23 08:32:28</time>
      </trkpt>
      <trkpt lat="42.15811" lon="0.88491">
        <ele>570.6</ele>
        <time>2022-05-23 08:32:29</time>
      </trkpt>
      <trkpt lat="42.15812" lon="0.88487">
        <ele>570.8</ele>
        <time>2022-05-23 08:32:30</time>
      </trkpt>
      <trkpt lat="42.15814" lon="0.88484">
        <ele>571</ele>
        <time>2022-05-23 08:32:31</time>
      </trkpt>
      <trkpt lat="42.15815" lon="0.8848">
        <ele>571</ele>
        <time>2022-05-23 08:32:32</time>
      </trkpt>
      <trkpt lat="42.15817" lon="0.88476">
        <ele>571.2</ele>
        <time>2022-05-23 08:32:33</time>
      </trkpt>
      <trkpt lat="42.15818" lon="0.88472">
        <ele>571.4</ele>
        <time>2022-05-23 08:32:34</time>
      </trkpt>
      <trkpt lat="42.15819" lon="0.88469">
        <ele>571.4</ele>
        <time>2022-05-23 08:32:35</time>
      </trkpt>
      <trkpt lat="42.1582" lon="0.88465">
        <ele>571.6</ele>
        <time>2022-05-23 08:32:36</time>
      </trkpt>
      <trkpt lat="42.15822" lon="0.88461">
        <ele>571.6</ele>
        <time>2022-05-23 08:32:37</time>
      </trkpt>
      <trkpt lat="42.15823" lon="0.88458">
        <ele>571.8</ele>
        <time>2022-05-23 08:32:38</time>
      </trkpt>
      <trkpt lat="42.15825" lon="0.88454">
        <ele>572</ele>
        <time>2022-05-23 08:32:39</time>
      </trkpt>
      <trkpt lat="42.15826" lon="0.8845">
        <ele>572</ele>
        <time>2022-05-23 08:32:40</time>
      </trkpt>
      <trkpt lat="42.15828" lon="0.88447">
        <ele>572.2</ele>
        <time>2022-05-23 08:32:41</time>
      </trkpt>
      <trkpt lat="42.1583" lon="0.88443">
        <ele>572.4</ele>
        <time>2022-05-23 08:32:42</time>
      </trkpt>
      <trkpt lat="42.15831" lon="0.8844">
        <ele>572.4</ele>
        <time>2022-05-23 08:32:43</time>
      </trkpt>
      <trkpt lat="42.15833" lon="0.88436">
        <ele>572.6</ele>
        <time>2022-05-23 08:32:44</time>
      </trkpt>
      <trkpt lat="42.15834" lon="0.88432">
        <ele>572.6</ele>
        <time>2022-05-23 08:32:45</time>
      </trkpt>
      <trkpt lat="42.15835" lon="0.88428">
        <ele>572.8</ele>
        <time>2022-05-23 08:32:46</time>
      </trkpt>
      <trkpt lat="42.15837" lon="0.88425">
        <ele>573</ele>
        <time>2022-05-23 08:32:47</time>
      </trkpt>
      <trkpt lat="42.15838" lon="0.88421">
        <ele>573</ele>
        <time>2022-05-23 08:32:48</time>
      </trkpt>
      <trkpt lat="42.15839" lon="0.88416">
        <ele>573.2</ele>
        <time>2022-05-23 08:32:49</time>
      </trkpt>
      <trkpt lat="42.15841" lon="0.88412">
        <ele>573.4</ele>
        <time>2022-05-23 08:32:50</time>
      </trkpt>
      <trkpt lat="42.15843" lon="0.88408">
        <ele>573.4</ele>
        <time>2022-05-23 08:32:51</time>
      </trkpt>
      <trkpt lat="42.15844" lon="0.88404">
        <ele>573.6</ele>
        <time>2022-05-23 08:32:52</time>
      </trkpt>
      <trkpt lat="42.15846" lon="0.884">
        <ele>573.6</ele>
        <time>2022-05-23 08:32:53</time>
      </trkpt>
      <trkpt lat="42.15848" lon="0.88395">
        <ele>573.8</ele>
        <time>2022-05-23 08:32:54</time>
      </trkpt>
      <trkpt lat="42.15849" lon="0.88391">
        <ele>574</ele>
        <time>2022-05-23 08:32:55</time>
      </trkpt>
      <trkpt lat="42.15851" lon="0.88386">
        <ele>574</ele>
        <time>2022-05-23 08:32:56</time>
      </trkpt>
      <trkpt lat="42.15852" lon="0.88381">
        <ele>574.2</ele>
        <time>2022-05-23 08:32:57</time>
      </trkpt>
      <trkpt lat="42.15854" lon="0.88377">
        <ele>574.4</ele>
        <time>2022-05-23 08:32:58</time>
      </trkpt>
      <trkpt lat="42.15855" lon="0.88372">
        <ele>574.6</ele>
        <time>2022-05-23 08:32:59</time>
      </trkpt>
      <trkpt lat="42.15857" lon="0.88368">
        <ele>574.6</ele>
        <time>2022-05-23 08:33:00</time>
      </trkpt>
      <trkpt lat="42.15858" lon="0.88364">
        <ele>574.8</ele>
        <time>2022-05-23 08:33:01</time>
      </trkpt>
      <trkpt lat="42.1586" lon="0.8836">
        <ele>574.8</ele>
        <time>2022-05-23 08:33:02</time>
      </trkpt>
      <trkpt lat="42.15861" lon="0.88356">
        <ele>575</ele>
        <time>2022-05-23 08:33:03</time>
      </trkpt>
      <trkpt lat="42.15862" lon="0.88352">
        <ele>575.2</ele>
        <time>2022-05-23 08:33:04</time>
      </trkpt>
      <trkpt lat="42.15864" lon="0.88348">
        <ele>575.2</ele>
        <time>2022-05-23 08:33:05</time>
      </trkpt>
      <trkpt lat="42.15865" lon="0.88344">
        <ele>575.4</ele>
        <time>2022-05-23 08:33:06</time>
      </trkpt>
      <trkpt lat="42.15867" lon="0.8834">
        <ele>575.6</ele>
        <time>2022-05-23 08:33:07</time>
      </trkpt>
      <trkpt lat="42.15869" lon="0.88336">
        <ele>575.6</ele>
        <time>2022-05-23 08:33:08</time>
      </trkpt>
      <trkpt lat="42.1587" lon="0.88331">
        <ele>575.8</ele>
        <time>2022-05-23 08:33:09</time>
      </trkpt>
      <trkpt lat="42.15872" lon="0.88327">
        <ele>576</ele>
        <time>2022-05-23 08:33:10</time>
      </trkpt>
      <trkpt lat="42.15873" lon="0.88323">
        <ele>576</ele>
        <time>2022-05-23 08:33:11</time>
      </trkpt>
      <trkpt lat="42.15875" lon="0.8832">
        <ele>576.2</ele>
        <time>2022-05-23 08:33:12</time>
      </trkpt>
      <trkpt lat="42.15876" lon="0.88316">
        <ele>576.4</ele>
        <time>2022-05-23 08:33:13</time>
      </trkpt>
      <trkpt lat="42.15878" lon="0.88311">
        <ele>576.6</ele>
        <time>2022-05-23 08:33:14</time>
      </trkpt>
      <trkpt lat="42.15879" lon="0.88307">
        <ele>576.6</ele>
        <time>2022-05-23 08:33:15</time>
      </trkpt>
      <trkpt lat="42.1588" lon="0.88303">
        <ele>576.8</ele>
        <time>2022-05-23 08:33:16</time>
      </trkpt>
      <trkpt lat="42.15881" lon="0.88299">
        <ele>577</ele>
        <time>2022-05-23 08:33:17</time>
      </trkpt>
      <trkpt lat="42.15881" lon="0.88294">
        <ele>577.2</ele>
        <time>2022-05-23 08:33:18</time>
      </trkpt>
      <trkpt lat="42.15882" lon="0.8829">
        <ele>577.2</ele>
        <time>2022-05-23 08:33:19</time>
      </trkpt>
      <trkpt lat="42.15883" lon="0.88286">
        <ele>577.4</ele>
        <time>2022-05-23 08:33:20</time>
      </trkpt>
      <trkpt lat="42.15884" lon="0.88281">
        <ele>577.4</ele>
        <time>2022-05-23 08:33:21</time>
      </trkpt>
      <trkpt lat="42.15884" lon="0.88276">
        <ele>577.6</ele>
        <time>2022-05-23 08:33:22</time>
      </trkpt>
      <trkpt lat="42.15884" lon="0.88271">
        <ele>577.8</ele>
        <time>2022-05-23 08:33:23</time>
      </trkpt>
      <trkpt lat="42.15885" lon="0.88266">
        <ele>577.8</ele>
        <time>2022-05-23 08:33:24</time>
      </trkpt>
      <trkpt lat="42.15885" lon="0.88262">
        <ele>578</ele>
        <time>2022-05-23 08:33:25</time>
      </trkpt>
      <trkpt lat="42.15885" lon="0.88257">
        <ele>578.2</ele>
        <time>2022-05-23 08:33:26</time>
      </trkpt>
      <trkpt lat="42.15885" lon="0.88252">
        <ele>578.2</ele>
        <time>2022-05-23 08:33:27</time>
      </trkpt>
      <trkpt lat="42.15886" lon="0.88248">
        <ele>578.4</ele>
        <time>2022-05-23 08:33:28</time>
      </trkpt>
      <trkpt lat="42.15885" lon="0.88243">
        <ele>578.6</ele>
        <time>2022-05-23 08:33:29</time>
      </trkpt>
      <trkpt lat="42.15885" lon="0.88239">
        <ele>578.6</ele>
        <time>2022-05-23 08:33:30</time>
      </trkpt>
      <trkpt lat="42.15885" lon="0.88234">
        <ele>578.8</ele>
        <time>2022-05-23 08:33:31</time>
      </trkpt>
      <trkpt lat="42.15885" lon="0.88229">
        <ele>578.8</ele>
        <time>2022-05-23 08:33:32</time>
      </trkpt>
      <trkpt lat="42.15886" lon="0.88225">
        <ele>579</ele>
        <time>2022-05-23 08:33:33</time>
      </trkpt>
      <trkpt lat="42.15886" lon="0.8822">
        <ele>579.2</ele>
        <time>2022-05-23 08:33:34</time>
      </trkpt>
      <trkpt lat="42.15886" lon="0.88216">
        <ele>579.2</ele>
        <time>2022-05-23 08:33:35</time>
      </trkpt>
      <trkpt lat="42.15886" lon="0.88212">
        <ele>579.4</ele>
        <time>2022-05-23 08:33:36</time>
      </trkpt>
      <trkpt lat="42.15886" lon="0.88206">
        <ele>579.6</ele>
        <time>2022-05-23 08:33:37</time>
      </trkpt>
      <trkpt lat="42.15886" lon="0.88202">
        <ele>579.6</ele>
        <time>2022-05-23 08:33:38</time>
      </trkpt>
      <trkpt lat="42.15886" lon="0.88197">
        <ele>579.8</ele>
        <time>2022-05-23 08:33:39</time>
      </trkpt>
      <trkpt lat="42.15886" lon="0.88193">
        <ele>580</ele>
        <time>2022-05-23 08:33:40</time>
      </trkpt>
      <trkpt lat="42.15885" lon="0.88188">
        <ele>580</ele>
        <time>2022-05-23 08:33:41</time>
      </trkpt>
      <trkpt lat="42.15885" lon="0.88183">
        <ele>580.2</ele>
        <time>2022-05-23 08:33:42</time>
      </trkpt>
      <trkpt lat="42.15885" lon="0.88179">
        <ele>580.4</ele>
        <time>2022-05-23 08:33:43</time>
      </trkpt>
      <trkpt lat="42.15885" lon="0.88174">
        <ele>580.4</ele>
        <time>2022-05-23 08:33:44</time>
      </trkpt>
      <trkpt lat="42.15886" lon="0.8817">
        <ele>580.6</ele>
        <time>2022-05-23 08:33:45</time>
      </trkpt>
      <trkpt lat="42.15886" lon="0.88166">
        <ele>580.8</ele>
        <time>2022-05-23 08:33:46</time>
      </trkpt>
      <trkpt lat="42.15886" lon="0.8816">
        <ele>580.8</ele>
        <time>2022-05-23 08:33:47</time>
      </trkpt>
      <trkpt lat="42.15886" lon="0.88155">
        <ele>581</ele>
        <time>2022-05-23 08:33:48</time>
      </trkpt>
      <trkpt lat="42.15886" lon="0.88151">
        <ele>581.2</ele>
        <time>2022-05-23 08:33:49</time>
      </trkpt>
      <trkpt lat="42.15886" lon="0.88146">
        <ele>581.2</ele>
        <time>2022-05-23 08:33:50</time>
      </trkpt>
      <trkpt lat="42.15886" lon="0.88142">
        <ele>581.4</ele>
        <time>2022-05-23 08:33:51</time>
      </trkpt>
      <trkpt lat="42.15886" lon="0.88137">
        <ele>581.6</ele>
        <time>2022-05-23 08:33:52</time>
      </trkpt>
      <trkpt lat="42.15887" lon="0.88133">
        <ele>581.6</ele>
        <time>2022-05-23 08:33:53</time>
      </trkpt>
      <trkpt lat="42.15886" lon="0.88128">
        <ele>581.8</ele>
        <time>2022-05-23 08:33:54</time>
      </trkpt>
      <trkpt lat="42.15886" lon="0.88124">
        <ele>582</ele>
        <time>2022-05-23 08:33:55</time>
      </trkpt>
      <trkpt lat="42.15887" lon="0.88119">
        <ele>582.2</ele>
        <time>2022-05-23 08:33:56</time>
      </trkpt>
      <trkpt lat="42.15887" lon="0.88115">
        <ele>582.2</ele>
        <time>2022-05-23 08:33:57</time>
      </trkpt>
      <trkpt lat="42.15887" lon="0.88111">
        <ele>582.4</ele>
        <time>2022-05-23 08:33:58</time>
      </trkpt>
      <trkpt lat="42.15887" lon="0.88106">
        <ele>582.6</ele>
        <time>2022-05-23 08:33:59</time>
      </trkpt>
      <trkpt lat="42.15887" lon="0.88102">
        <ele>582.6</ele>
        <time>2022-05-23 08:34:00</time>
      </trkpt>
      <trkpt lat="42.15887" lon="0.88097">
        <ele>582.8</ele>
        <time>2022-05-23 08:34:01</time>
      </trkpt>
      <trkpt lat="42.15887" lon="0.88093">
        <ele>583</ele>
        <time>2022-05-23 08:34:02</time>
      </trkpt>
      <trkpt lat="42.15887" lon="0.88089">
        <ele>583.2</ele>
        <time>2022-05-23 08:34:03</time>
      </trkpt>
      <trkpt lat="42.15887" lon="0.88085">
        <ele>583.2</ele>
        <time>2022-05-23 08:34:04</time>
      </trkpt>
      <trkpt lat="42.15887" lon="0.88081">
        <ele>583.4</ele>
        <time>2022-05-23 08:34:05</time>
      </trkpt>
      <trkpt lat="42.15887" lon="0.88077">
        <ele>583.6</ele>
        <time>2022-05-23 08:34:06</time>
      </trkpt>
      <trkpt lat="42.15887" lon="0.88072">
        <ele>583.6</ele>
        <time>2022-05-23 08:34:07</time>
      </trkpt>
      <trkpt lat="42.15887" lon="0.88068">
        <ele>583.8</ele>
        <time>2022-05-23 08:34:08</time>
      </trkpt>
      <trkpt lat="42.15887" lon="0.88063">
        <ele>584</ele>
        <time>2022-05-23 08:34:09</time>
      </trkpt>
      <trkpt lat="42.15887" lon="0.88059">
        <ele>584.2</ele>
        <time>2022-05-23 08:34:10</time>
      </trkpt>
      <trkpt lat="42.15888" lon="0.88054">
        <ele>584.2</ele>
        <time>2022-05-23 08:34:11</time>
      </trkpt>
      <trkpt lat="42.15888" lon="0.88049">
        <ele>584.4</ele>
        <time>2022-05-23 08:34:12</time>
      </trkpt>
      <trkpt lat="42.15888" lon="0.88044">
        <ele>584.6</ele>
        <time>2022-05-23 08:34:13</time>
      </trkpt>
      <trkpt lat="42.15888" lon="0.88039">
        <ele>584.8</ele>
        <time>2022-05-23 08:34:14</time>
      </trkpt>
      <trkpt lat="42.15888" lon="0.88034">
        <ele>584.8</ele>
        <time>2022-05-23 08:34:15</time>
      </trkpt>
      <trkpt lat="42.15888" lon="0.8803">
        <ele>585</ele>
        <time>2022-05-23 08:34:16</time>
      </trkpt>
      <trkpt lat="42.15888" lon="0.88024">
        <ele>585.2</ele>
        <time>2022-05-23 08:34:17</time>
      </trkpt>
      <trkpt lat="42.15888" lon="0.88019">
        <ele>585.2</ele>
        <time>2022-05-23 08:34:18</time>
      </trkpt>
      <trkpt lat="42.15888" lon="0.88014">
        <ele>585.4</ele>
        <time>2022-05-23 08:34:19</time>
      </trkpt>
      <trkpt lat="42.15888" lon="0.88009">
        <ele>585.6</ele>
        <time>2022-05-23 08:34:20</time>
      </trkpt>
      <trkpt lat="42.15889" lon="0.88004">
        <ele>585.8</ele>
        <time>2022-05-23 08:34:21</time>
      </trkpt>
      <trkpt lat="42.15889" lon="0.87999">
        <ele>585.8</ele>
        <time>2022-05-23 08:34:22</time>
      </trkpt>
      <trkpt lat="42.15889" lon="0.87994">
        <ele>586</ele>
        <time>2022-05-23 08:34:23</time>
      </trkpt>
      <trkpt lat="42.15889" lon="0.87989">
        <ele>586.2</ele>
        <time>2022-05-23 08:34:24</time>
      </trkpt>
      <trkpt lat="42.15889" lon="0.87984">
        <ele>586.4</ele>
        <time>2022-05-23 08:34:25</time>
      </trkpt>
      <trkpt lat="42.15889" lon="0.87979">
        <ele>586.4</ele>
        <time>2022-05-23 08:34:26</time>
      </trkpt>
      <trkpt lat="42.15889" lon="0.87974">
        <ele>586.6</ele>
        <time>2022-05-23 08:34:27</time>
      </trkpt>
      <trkpt lat="42.15889" lon="0.8797">
        <ele>586.8</ele>
        <time>2022-05-23 08:34:28</time>
      </trkpt>
      <trkpt lat="42.15889" lon="0.87965">
        <ele>586.8</ele>
        <time>2022-05-23 08:34:29</time>
      </trkpt>
      <trkpt lat="42.15889" lon="0.8796">
        <ele>587</ele>
        <time>2022-05-23 08:34:30</time>
      </trkpt>
      <trkpt lat="42.15889" lon="0.87956">
        <ele>587.2</ele>
        <time>2022-05-23 08:34:31</time>
      </trkpt>
      <trkpt lat="42.15889" lon="0.87951">
        <ele>587.2</ele>
        <time>2022-05-23 08:34:32</time>
      </trkpt>
      <trkpt lat="42.15889" lon="0.87946">
        <ele>587.4</ele>
        <time>2022-05-23 08:34:33</time>
      </trkpt>
      <trkpt lat="42.15889" lon="0.87941">
        <ele>587.6</ele>
        <time>2022-05-23 08:34:34</time>
      </trkpt>
      <trkpt lat="42.15889" lon="0.87936">
        <ele>587.6</ele>
        <time>2022-05-23 08:34:35</time>
      </trkpt>
      <trkpt lat="42.1589" lon="0.87932">
        <ele>587.8</ele>
        <time>2022-05-23 08:34:36</time>
      </trkpt>
      <trkpt lat="42.1589" lon="0.87927">
        <ele>587.8</ele>
        <time>2022-05-23 08:34:37</time>
      </trkpt>
      <trkpt lat="42.1589" lon="0.87923">
        <ele>588</ele>
        <time>2022-05-23 08:34:38</time>
      </trkpt>
      <trkpt lat="42.15891" lon="0.87918">
        <ele>588.2</ele>
        <time>2022-05-23 08:34:39</time>
      </trkpt>
      <trkpt lat="42.15891" lon="0.87913">
        <ele>588.2</ele>
        <time>2022-05-23 08:34:40</time>
      </trkpt>
      <trkpt lat="42.15891" lon="0.87909">
        <ele>588.4</ele>
        <time>2022-05-23 08:34:41</time>
      </trkpt>
      <trkpt lat="42.15891" lon="0.87904">
        <ele>588.4</ele>
        <time>2022-05-23 08:34:42</time>
      </trkpt>
      <trkpt lat="42.15891" lon="0.879">
        <ele>588.6</ele>
        <time>2022-05-23 08:34:43</time>
      </trkpt>
      <trkpt lat="42.15891" lon="0.87895">
        <ele>588.8</ele>
        <time>2022-05-23 08:34:44</time>
      </trkpt>
      <trkpt lat="42.15891" lon="0.8789">
        <ele>588.8</ele>
        <time>2022-05-23 08:34:45</time>
      </trkpt>
      <trkpt lat="42.15891" lon="0.87886">
        <ele>589</ele>
        <time>2022-05-23 08:34:46</time>
      </trkpt>
      <trkpt lat="42.15891" lon="0.87881">
        <ele>589.2</ele>
        <time>2022-05-23 08:34:47</time>
      </trkpt>
      <trkpt lat="42.15891" lon="0.87877">
        <ele>589.2</ele>
        <time>2022-05-23 08:34:48</time>
      </trkpt>
      <trkpt lat="42.15891" lon="0.87872">
        <ele>589.4</ele>
        <time>2022-05-23 08:34:49</time>
      </trkpt>
      <trkpt lat="42.15891" lon="0.87868">
        <ele>589.6</ele>
        <time>2022-05-23 08:34:50</time>
      </trkpt>
      <trkpt lat="42.15891" lon="0.87863">
        <ele>589.8</ele>
        <time>2022-05-23 08:34:51</time>
      </trkpt>
      <trkpt lat="42.1589" lon="0.87858">
        <ele>589.8</ele>
        <time>2022-05-23 08:34:52</time>
      </trkpt>
      <trkpt lat="42.1589" lon="0.87854">
        <ele>590</ele>
        <time>2022-05-23 08:34:53</time>
      </trkpt>
      <trkpt lat="42.15889" lon="0.87849">
        <ele>590.2</ele>
        <time>2022-05-23 08:34:54</time>
      </trkpt>
      <trkpt lat="42.15888" lon="0.87844">
        <ele>590.2</ele>
        <time>2022-05-23 08:34:55</time>
      </trkpt>
      <trkpt lat="42.15887" lon="0.8784">
        <ele>590.4</ele>
        <time>2022-05-23 08:34:56</time>
      </trkpt>
      <trkpt lat="42.15886" lon="0.87835">
        <ele>590.4</ele>
        <time>2022-05-23 08:34:57</time>
      </trkpt>
      <trkpt lat="42.15884" lon="0.87831">
        <ele>590.6</ele>
        <time>2022-05-23 08:34:58</time>
      </trkpt>
      <trkpt lat="42.15882" lon="0.87827">
        <ele>590.6</ele>
        <time>2022-05-23 08:34:59</time>
      </trkpt>
      <trkpt lat="42.1588" lon="0.87822">
        <ele>590.8</ele>
        <time>2022-05-23 08:35:00</time>
      </trkpt>
      <trkpt lat="42.15878" lon="0.87819">
        <ele>591</ele>
        <time>2022-05-23 08:35:01</time>
      </trkpt>
      <trkpt lat="42.15876" lon="0.87816">
        <ele>591</ele>
        <time>2022-05-23 08:35:02</time>
      </trkpt>
      <trkpt lat="42.15872" lon="0.87812">
        <ele>591.2</ele>
        <time>2022-05-23 08:35:03</time>
      </trkpt>
      <trkpt lat="42.15869" lon="0.8781">
        <ele>591.2</ele>
        <time>2022-05-23 08:35:04</time>
      </trkpt>
      <trkpt lat="42.15866" lon="0.87808">
        <ele>591.4</ele>
        <time>2022-05-23 08:35:05</time>
      </trkpt>
      <trkpt lat="42.15863" lon="0.87806">
        <ele>591.4</ele>
        <time>2022-05-23 08:35:06</time>
      </trkpt>
      <trkpt lat="42.15859" lon="0.87805">
        <ele>591.6</ele>
        <time>2022-05-23 08:35:07</time>
      </trkpt>
      <trkpt lat="42.15856" lon="0.87804">
        <ele>591.8</ele>
        <time>2022-05-23 08:35:08</time>
      </trkpt>
      <trkpt lat="42.15853" lon="0.87803">
        <ele>592</ele>
        <time>2022-05-23 08:35:09</time>
      </trkpt>
      <trkpt lat="42.1585" lon="0.87803">
        <ele>592</ele>
        <time>2022-05-23 08:35:10</time>
      </trkpt>
      <trkpt lat="42.15846" lon="0.87802">
        <ele>592.2</ele>
        <time>2022-05-23 08:35:11</time>
      </trkpt>
      <trkpt lat="42.15843" lon="0.87802">
        <ele>592.4</ele>
        <time>2022-05-23 08:35:12</time>
      </trkpt>
      <trkpt lat="42.15839" lon="0.87801">
        <ele>592.4</ele>
        <time>2022-05-23 08:35:13</time>
      </trkpt>
      <trkpt lat="42.15836" lon="0.87801">
        <ele>592.6</ele>
        <time>2022-05-23 08:35:14</time>
      </trkpt>
      <trkpt lat="42.15832" lon="0.87801">
        <ele>592.8</ele>
        <time>2022-05-23 08:35:15</time>
      </trkpt>
      <trkpt lat="42.15828" lon="0.87801">
        <ele>592.8</ele>
        <time>2022-05-23 08:35:16</time>
      </trkpt>
      <trkpt lat="42.15824" lon="0.87801">
        <ele>593</ele>
        <time>2022-05-23 08:35:17</time>
      </trkpt>
      <trkpt lat="42.15821" lon="0.87802">
        <ele>593.2</ele>
        <time>2022-05-23 08:35:18</time>
      </trkpt>
      <trkpt lat="42.15817" lon="0.87802">
        <ele>593.4</ele>
        <time>2022-05-23 08:35:19</time>
      </trkpt>
      <trkpt lat="42.15814" lon="0.87802">
        <ele>593.6</ele>
        <time>2022-05-23 08:35:20</time>
      </trkpt>
      <trkpt lat="42.1581" lon="0.87802">
        <ele>593.8</ele>
        <time>2022-05-23 08:35:21</time>
      </trkpt>
      <trkpt lat="42.15807" lon="0.87802">
        <ele>593.8</ele>
        <time>2022-05-23 08:35:22</time>
      </trkpt>
      <trkpt lat="42.15803" lon="0.87802">
        <ele>594</ele>
        <time>2022-05-23 08:35:23</time>
      </trkpt>
      <trkpt lat="42.15799" lon="0.87801">
        <ele>594.4</ele>
        <time>2022-05-23 08:35:24</time>
      </trkpt>
      <trkpt lat="42.15796" lon="0.87801">
        <ele>594.6</ele>
        <time>2022-05-23 08:35:25</time>
      </trkpt>
      <trkpt lat="42.15792" lon="0.87801">
        <ele>594.8</ele>
        <time>2022-05-23 08:35:26</time>
      </trkpt>
      <trkpt lat="42.15788" lon="0.87801">
        <ele>595</ele>
        <time>2022-05-23 08:35:27</time>
      </trkpt>
      <trkpt lat="42.15785" lon="0.87801">
        <ele>595.2</ele>
        <time>2022-05-23 08:35:28</time>
      </trkpt>
      <trkpt lat="42.15782" lon="0.87801">
        <ele>595.4</ele>
        <time>2022-05-23 08:35:29</time>
      </trkpt>
      <trkpt lat="42.15778" lon="0.87801">
        <ele>595.6</ele>
        <time>2022-05-23 08:35:30</time>
      </trkpt>
      <trkpt lat="42.15774" lon="0.87801">
        <ele>595.8</ele>
        <time>2022-05-23 08:35:31</time>
      </trkpt>
      <trkpt lat="42.15771" lon="0.87801">
        <ele>596.2</ele>
        <time>2022-05-23 08:35:32</time>
      </trkpt>
      <trkpt lat="42.15767" lon="0.87801">
        <ele>596.4</ele>
        <time>2022-05-23 08:35:33</time>
      </trkpt>
      <trkpt lat="42.15764" lon="0.87801">
        <ele>596.6</ele>
        <time>2022-05-23 08:35:34</time>
      </trkpt>
      <trkpt lat="42.1576" lon="0.87801">
        <ele>596.8</ele>
        <time>2022-05-23 08:35:35</time>
      </trkpt>
      <trkpt lat="42.15757" lon="0.878">
        <ele>597</ele>
        <time>2022-05-23 08:35:36</time>
      </trkpt>
      <trkpt lat="42.15753" lon="0.878">
        <ele>597.2</ele>
        <time>2022-05-23 08:35:37</time>
      </trkpt>
      <trkpt lat="42.1575" lon="0.87799">
        <ele>597.4</ele>
        <time>2022-05-23 08:35:38</time>
      </trkpt>
      <trkpt lat="42.15746" lon="0.87797">
        <ele>597.6</ele>
        <time>2022-05-23 08:35:39</time>
      </trkpt>
      <trkpt lat="42.15743" lon="0.87796">
        <ele>597.8</ele>
        <time>2022-05-23 08:35:40</time>
      </trkpt>
      <trkpt lat="42.15739" lon="0.87795">
        <ele>598</ele>
        <time>2022-05-23 08:35:41</time>
      </trkpt>
      <trkpt lat="42.15735" lon="0.87793">
        <ele>598.2</ele>
        <time>2022-05-23 08:35:42</time>
      </trkpt>
      <trkpt lat="42.15732" lon="0.87791">
        <ele>598.4</ele>
        <time>2022-05-23 08:35:43</time>
      </trkpt>
      <trkpt lat="42.15729" lon="0.87789">
        <ele>598.6</ele>
        <time>2022-05-23 08:35:44</time>
      </trkpt>
      <trkpt lat="42.15725" lon="0.87787">
        <ele>598.8</ele>
        <time>2022-05-23 08:35:45</time>
      </trkpt>
      <trkpt lat="42.15723" lon="0.87784">
        <ele>599.2</ele>
        <time>2022-05-23 08:35:46</time>
      </trkpt>
      <trkpt lat="42.1572" lon="0.87782">
        <ele>599.4</ele>
        <time>2022-05-23 08:35:47</time>
      </trkpt>
      <trkpt lat="42.15717" lon="0.8778">
        <ele>599.6</ele>
        <time>2022-05-23 08:35:48</time>
      </trkpt>
      <trkpt lat="42.15715" lon="0.87778">
        <ele>599.8</ele>
        <time>2022-05-23 08:35:49</time>
      </trkpt>
      <trkpt lat="42.15712" lon="0.87776">
        <ele>600</ele>
        <time>2022-05-23 08:35:50</time>
      </trkpt>
      <trkpt lat="42.15709" lon="0.87773">
        <ele>600.2</ele>
        <time>2022-05-23 08:35:51</time>
      </trkpt>
      <trkpt lat="42.15707" lon="0.87771">
        <ele>600.4</ele>
        <time>2022-05-23 08:35:52</time>
      </trkpt>
      <trkpt lat="42.15704" lon="0.87769">
        <ele>600.6</ele>
        <time>2022-05-23 08:35:53</time>
      </trkpt>
      <trkpt lat="42.15702" lon="0.87766">
        <ele>600.8</ele>
        <time>2022-05-23 08:35:54</time>
      </trkpt>
      <trkpt lat="42.15699" lon="0.87763">
        <ele>601</ele>
        <time>2022-05-23 08:35:55</time>
      </trkpt>
      <trkpt lat="42.15697" lon="0.87761">
        <ele>601.2</ele>
        <time>2022-05-23 08:35:56</time>
      </trkpt>
      <trkpt lat="42.15695" lon="0.87758">
        <ele>601.4</ele>
        <time>2022-05-23 08:35:57</time>
      </trkpt>
      <trkpt lat="42.15692" lon="0.87755">
        <ele>601.6</ele>
        <time>2022-05-23 08:35:58</time>
      </trkpt>
      <trkpt lat="42.1569" lon="0.87752">
        <ele>601.8</ele>
        <time>2022-05-23 08:35:59</time>
      </trkpt>
      <trkpt lat="42.15688" lon="0.8775">
        <ele>602</ele>
        <time>2022-05-23 08:36:00</time>
      </trkpt>
      <trkpt lat="42.15686" lon="0.87747">
        <ele>602.2</ele>
        <time>2022-05-23 08:36:01</time>
      </trkpt>
      <trkpt lat="42.15684" lon="0.87744">
        <ele>602.4</ele>
        <time>2022-05-23 08:36:02</time>
      </trkpt>
      <trkpt lat="42.15682" lon="0.87742">
        <ele>602.6</ele>
        <time>2022-05-23 08:36:03</time>
      </trkpt>
      <trkpt lat="42.1568" lon="0.87739">
        <ele>602.8</ele>
        <time>2022-05-23 08:36:04</time>
      </trkpt>
      <trkpt lat="42.15678" lon="0.87737">
        <ele>603</ele>
        <time>2022-05-23 08:36:05</time>
      </trkpt>
      <trkpt lat="42.15676" lon="0.87734">
        <ele>603.2</ele>
        <time>2022-05-23 08:36:06</time>
      </trkpt>
      <trkpt lat="42.15674" lon="0.87731">
        <ele>603.4</ele>
        <time>2022-05-23 08:36:07</time>
      </trkpt>
      <trkpt lat="42.15672" lon="0.87729">
        <ele>603.6</ele>
        <time>2022-05-23 08:36:08</time>
      </trkpt>
      <trkpt lat="42.1567" lon="0.87726">
        <ele>603.8</ele>
        <time>2022-05-23 08:36:09</time>
      </trkpt>
      <trkpt lat="42.15668" lon="0.87724">
        <ele>604</ele>
        <time>2022-05-23 08:36:10</time>
      </trkpt>
      <trkpt lat="42.15666" lon="0.87722">
        <ele>604.2</ele>
        <time>2022-05-23 08:36:11</time>
      </trkpt>
      <trkpt lat="42.15664" lon="0.8772">
        <ele>604.4</ele>
        <time>2022-05-23 08:36:12</time>
      </trkpt>
      <trkpt lat="42.15662" lon="0.87718">
        <ele>604.6</ele>
        <time>2022-05-23 08:36:13</time>
      </trkpt>
      <trkpt lat="42.1566" lon="0.87716">
        <ele>604.8</ele>
        <time>2022-05-23 08:36:14</time>
      </trkpt>
      <trkpt lat="42.15658" lon="0.87714">
        <ele>604.8</ele>
        <time>2022-05-23 08:36:15</time>
      </trkpt>
      <trkpt lat="42.15656" lon="0.87712">
        <ele>605</ele>
        <time>2022-05-23 08:36:16</time>
      </trkpt>
      <trkpt lat="42.15654" lon="0.8771">
        <ele>605.2</ele>
        <time>2022-05-23 08:36:17</time>
      </trkpt>
      <trkpt lat="42.15652" lon="0.87707">
        <ele>605.4</ele>
        <time>2022-05-23 08:36:18</time>
      </trkpt>
      <trkpt lat="42.1565" lon="0.87705">
        <ele>605.6</ele>
        <time>2022-05-23 08:36:19</time>
      </trkpt>
      <trkpt lat="42.15649" lon="0.87703">
        <ele>605.8</ele>
        <time>2022-05-23 08:36:20</time>
      </trkpt>
      <trkpt lat="42.15646" lon="0.87701">
        <ele>605.8</ele>
        <time>2022-05-23 08:36:21</time>
      </trkpt>
      <trkpt lat="42.15644" lon="0.877">
        <ele>606</ele>
        <time>2022-05-23 08:36:22</time>
      </trkpt>
      <trkpt lat="42.15642" lon="0.87698">
        <ele>606.2</ele>
        <time>2022-05-23 08:36:23</time>
      </trkpt>
      <trkpt lat="42.15639" lon="0.87696">
        <ele>606.4</ele>
        <time>2022-05-23 08:36:24</time>
      </trkpt>
      <trkpt lat="42.15637" lon="0.87694">
        <ele>606.6</ele>
        <time>2022-05-23 08:36:25</time>
      </trkpt>
      <trkpt lat="42.15636" lon="0.87692">
        <ele>606.6</ele>
        <time>2022-05-23 08:36:26</time>
      </trkpt>
      <trkpt lat="42.15633" lon="0.87689">
        <ele>606.8</ele>
        <time>2022-05-23 08:36:27</time>
      </trkpt>
      <trkpt lat="42.15631" lon="0.87687">
        <ele>607</ele>
        <time>2022-05-23 08:36:28</time>
      </trkpt>
      <trkpt lat="42.15629" lon="0.87685">
        <ele>607.2</ele>
        <time>2022-05-23 08:36:29</time>
      </trkpt>
      <trkpt lat="42.15626" lon="0.87683">
        <ele>607.2</ele>
        <time>2022-05-23 08:36:30</time>
      </trkpt>
      <trkpt lat="42.15624" lon="0.87681">
        <ele>607.4</ele>
        <time>2022-05-23 08:36:31</time>
      </trkpt>
      <trkpt lat="42.15622" lon="0.87678">
        <ele>607.6</ele>
        <time>2022-05-23 08:36:32</time>
      </trkpt>
      <trkpt lat="42.1562" lon="0.87676">
        <ele>607.6</ele>
        <time>2022-05-23 08:36:33</time>
      </trkpt>
      <trkpt lat="42.15618" lon="0.87674">
        <ele>607.8</ele>
        <time>2022-05-23 08:36:34</time>
      </trkpt>
      <trkpt lat="42.15616" lon="0.87671">
        <ele>608</ele>
        <time>2022-05-23 08:36:35</time>
      </trkpt>
      <trkpt lat="42.15614" lon="0.87669">
        <ele>608</ele>
        <time>2022-05-23 08:36:36</time>
      </trkpt>
      <trkpt lat="42.15611" lon="0.87666">
        <ele>608.2</ele>
        <time>2022-05-23 08:36:37</time>
      </trkpt>
      <trkpt lat="42.15609" lon="0.87663">
        <ele>608.4</ele>
        <time>2022-05-23 08:36:38</time>
      </trkpt>
      <trkpt lat="42.15608" lon="0.8766">
        <ele>608.6</ele>
        <time>2022-05-23 08:36:39</time>
      </trkpt>
      <trkpt lat="42.15607" lon="0.87657">
        <ele>608.6</ele>
        <time>2022-05-23 08:36:40</time>
      </trkpt>
      <trkpt lat="42.15606" lon="0.87654">
        <ele>608.8</ele>
        <time>2022-05-23 08:36:41</time>
      </trkpt>
      <trkpt lat="42.15605" lon="0.8765">
        <ele>609</ele>
        <time>2022-05-23 08:36:42</time>
      </trkpt>
      <trkpt lat="42.15604" lon="0.87647">
        <ele>609.2</ele>
        <time>2022-05-23 08:36:43</time>
      </trkpt>
      <trkpt lat="42.15604" lon="0.87643">
        <ele>609.4</ele>
        <time>2022-05-23 08:36:44</time>
      </trkpt>
      <trkpt lat="42.15604" lon="0.8764">
        <ele>609.6</ele>
        <time>2022-05-23 08:36:45</time>
      </trkpt>
      <trkpt lat="42.15604" lon="0.87636">
        <ele>609.8</ele>
        <time>2022-05-23 08:36:46</time>
      </trkpt>
      <trkpt lat="42.15604" lon="0.87633">
        <ele>610</ele>
        <time>2022-05-23 08:36:47</time>
      </trkpt>
      <trkpt lat="42.15605" lon="0.87629">
        <ele>610</ele>
        <time>2022-05-23 08:36:48</time>
      </trkpt>
      <trkpt lat="42.15606" lon="0.87626">
        <ele>610.2</ele>
        <time>2022-05-23 08:36:49</time>
      </trkpt>
      <trkpt lat="42.15608" lon="0.87622">
        <ele>610.4</ele>
        <time>2022-05-23 08:36:50</time>
      </trkpt>
      <trkpt lat="42.15609" lon="0.87619">
        <ele>610.6</ele>
        <time>2022-05-23 08:36:51</time>
      </trkpt>
      <trkpt lat="42.15611" lon="0.87616">
        <ele>610.8</ele>
        <time>2022-05-23 08:36:52</time>
      </trkpt>
      <trkpt lat="42.15612" lon="0.87612">
        <ele>610.8</ele>
        <time>2022-05-23 08:36:53</time>
      </trkpt>
      <trkpt lat="42.15614" lon="0.87609">
        <ele>611</ele>
        <time>2022-05-23 08:36:54</time>
      </trkpt>
      <trkpt lat="42.15615" lon="0.87606">
        <ele>611.2</ele>
        <time>2022-05-23 08:36:55</time>
      </trkpt>
      <trkpt lat="42.15617" lon="0.87602">
        <ele>611.2</ele>
        <time>2022-05-23 08:36:56</time>
      </trkpt>
      <trkpt lat="42.15619" lon="0.87599">
        <ele>611.4</ele>
        <time>2022-05-23 08:36:57</time>
      </trkpt>
      <trkpt lat="42.15621" lon="0.87595">
        <ele>611.4</ele>
        <time>2022-05-23 08:36:58</time>
      </trkpt>
      <trkpt lat="42.15623" lon="0.87592">
        <ele>611.6</ele>
        <time>2022-05-23 08:36:59</time>
      </trkpt>
      <trkpt lat="42.15624" lon="0.87589">
        <ele>611.6</ele>
        <time>2022-05-23 08:37:00</time>
      </trkpt>
      <trkpt lat="42.15626" lon="0.87585">
        <ele>611.8</ele>
        <time>2022-05-23 08:37:01</time>
      </trkpt>
      <trkpt lat="42.15628" lon="0.87582">
        <ele>612</ele>
        <time>2022-05-23 08:37:02</time>
      </trkpt>
      <trkpt lat="42.15629" lon="0.87578">
        <ele>612</ele>
        <time>2022-05-23 08:37:03</time>
      </trkpt>
      <trkpt lat="42.15631" lon="0.87575">
        <ele>612.2</ele>
        <time>2022-05-23 08:37:04</time>
      </trkpt>
      <trkpt lat="42.15633" lon="0.87572">
        <ele>612.2</ele>
        <time>2022-05-23 08:37:05</time>
      </trkpt>
      <trkpt lat="42.15634" lon="0.87568">
        <ele>612.4</ele>
        <time>2022-05-23 08:37:06</time>
      </trkpt>
      <trkpt lat="42.15636" lon="0.87565">
        <ele>612.6</ele>
        <time>2022-05-23 08:37:07</time>
      </trkpt>
      <trkpt lat="42.15637" lon="0.87562">
        <ele>612.6</ele>
        <time>2022-05-23 08:37:08</time>
      </trkpt>
      <trkpt lat="42.15639" lon="0.87558">
        <ele>612.8</ele>
        <time>2022-05-23 08:37:09</time>
      </trkpt>
      <trkpt lat="42.1564" lon="0.87555">
        <ele>613</ele>
        <time>2022-05-23 08:37:10</time>
      </trkpt>
      <trkpt lat="42.15641" lon="0.87551">
        <ele>613</ele>
        <time>2022-05-23 08:37:11</time>
      </trkpt>
      <trkpt lat="42.15642" lon="0.87547">
        <ele>613.2</ele>
        <time>2022-05-23 08:37:12</time>
      </trkpt>
      <trkpt lat="42.15643" lon="0.87543">
        <ele>613.2</ele>
        <time>2022-05-23 08:37:13</time>
      </trkpt>
      <trkpt lat="42.15644" lon="0.87539">
        <ele>613.4</ele>
        <time>2022-05-23 08:37:14</time>
      </trkpt>
      <trkpt lat="42.15644" lon="0.87535">
        <ele>613.4</ele>
        <time>2022-05-23 08:37:15</time>
      </trkpt>
      <trkpt lat="42.15645" lon="0.8753">
        <ele>613.6</ele>
        <time>2022-05-23 08:37:16</time>
      </trkpt>
      <trkpt lat="42.15645" lon="0.87526">
        <ele>613.6</ele>
        <time>2022-05-23 08:37:17</time>
      </trkpt>
      <trkpt lat="42.15645" lon="0.87523">
        <ele>613.8</ele>
        <time>2022-05-23 08:37:18</time>
      </trkpt>
      <trkpt lat="42.15644" lon="0.87518">
        <ele>613.8</ele>
        <time>2022-05-23 08:37:19</time>
      </trkpt>
      <trkpt lat="42.15644" lon="0.87514">
        <ele>614</ele>
        <time>2022-05-23 08:37:20</time>
      </trkpt>
      <trkpt lat="42.15642" lon="0.87511">
        <ele>614</ele>
        <time>2022-05-23 08:37:21</time>
      </trkpt>
      <trkpt lat="42.15641" lon="0.87507">
        <ele>614.2</ele>
        <time>2022-05-23 08:37:22</time>
      </trkpt>
      <trkpt lat="42.15639" lon="0.87503">
        <ele>614.2</ele>
        <time>2022-05-23 08:37:23</time>
      </trkpt>
      <trkpt lat="42.15637" lon="0.875">
        <ele>614.2</ele>
        <time>2022-05-23 08:37:24</time>
      </trkpt>
      <trkpt lat="42.15635" lon="0.87497">
        <ele>614.4</ele>
        <time>2022-05-23 08:37:25</time>
      </trkpt>
      <trkpt lat="42.15633" lon="0.87493">
        <ele>614.4</ele>
        <time>2022-05-23 08:37:26</time>
      </trkpt>
      <trkpt lat="42.1563" lon="0.8749">
        <ele>614.4</ele>
        <time>2022-05-23 08:37:27</time>
      </trkpt>
      <trkpt lat="42.15628" lon="0.87487">
        <ele>614.6</ele>
        <time>2022-05-23 08:37:28</time>
      </trkpt>
      <trkpt lat="42.15626" lon="0.87484">
        <ele>614.6</ele>
        <time>2022-05-23 08:37:29</time>
      </trkpt>
      <trkpt lat="42.15624" lon="0.8748">
        <ele>614.8</ele>
        <time>2022-05-23 08:37:30</time>
      </trkpt>
      <trkpt lat="42.15621" lon="0.87477">
        <ele>614.8</ele>
        <time>2022-05-23 08:37:31</time>
      </trkpt>
      <trkpt lat="42.15619" lon="0.87474">
        <ele>615</ele>
        <time>2022-05-23 08:37:32</time>
      </trkpt>
      <trkpt lat="42.15616" lon="0.87471">
        <ele>615</ele>
        <time>2022-05-23 08:37:33</time>
      </trkpt>
      <trkpt lat="42.15614" lon="0.87468">
        <ele>615.2</ele>
        <time>2022-05-23 08:37:34</time>
      </trkpt>
      <trkpt lat="42.15611" lon="0.87464">
        <ele>615.2</ele>
        <time>2022-05-23 08:37:35</time>
      </trkpt>
      <trkpt lat="42.15609" lon="0.87461">
        <ele>615.4</ele>
        <time>2022-05-23 08:37:36</time>
      </trkpt>
      <trkpt lat="42.15606" lon="0.87459">
        <ele>615.4</ele>
        <time>2022-05-23 08:37:37</time>
      </trkpt>
      <trkpt lat="42.15603" lon="0.87455">
        <ele>615.4</ele>
        <time>2022-05-23 08:37:38</time>
      </trkpt>
      <trkpt lat="42.156" lon="0.87452">
        <ele>615.6</ele>
        <time>2022-05-23 08:37:39</time>
      </trkpt>
      <trkpt lat="42.15598" lon="0.87448">
        <ele>615.6</ele>
        <time>2022-05-23 08:37:40</time>
      </trkpt>
      <trkpt lat="42.15595" lon="0.87444">
        <ele>615.8</ele>
        <time>2022-05-23 08:37:41</time>
      </trkpt>
      <trkpt lat="42.15592" lon="0.87441">
        <ele>615.8</ele>
        <time>2022-05-23 08:37:42</time>
      </trkpt>
      <trkpt lat="42.15589" lon="0.87436">
        <ele>615.8</ele>
        <time>2022-05-23 08:37:43</time>
      </trkpt>
      <trkpt lat="42.15588" lon="0.87431">
        <ele>616</ele>
        <time>2022-05-23 08:37:44</time>
      </trkpt>
      <trkpt lat="42.15586" lon="0.87426">
        <ele>616</ele>
        <time>2022-05-23 08:37:45</time>
      </trkpt>
      <trkpt lat="42.15585" lon="0.8742">
        <ele>616</ele>
        <time>2022-05-23 08:37:46</time>
      </trkpt>
      <trkpt lat="42.15584" lon="0.87414">
        <ele>616.2</ele>
        <time>2022-05-23 08:37:47</time>
      </trkpt>
      <trkpt lat="42.15584" lon="0.87408">
        <ele>616.4</ele>
        <time>2022-05-23 08:37:48</time>
      </trkpt>
      <trkpt lat="42.15585" lon="0.87403">
        <ele>616.4</ele>
        <time>2022-05-23 08:37:49</time>
      </trkpt>
      <trkpt lat="42.15586" lon="0.87396">
        <ele>616.6</ele>
        <time>2022-05-23 08:37:50</time>
      </trkpt>
      <trkpt lat="42.15588" lon="0.87391">
        <ele>616.8</ele>
        <time>2022-05-23 08:37:51</time>
      </trkpt>
      <trkpt lat="42.15589" lon="0.87385">
        <ele>616.8</ele>
        <time>2022-05-23 08:37:52</time>
      </trkpt>
      <trkpt lat="42.15591" lon="0.87379">
        <ele>617</ele>
        <time>2022-05-23 08:37:53</time>
      </trkpt>
      <trkpt lat="42.15591" lon="0.87374">
        <ele>617.2</ele>
        <time>2022-05-23 08:37:54</time>
      </trkpt>
      <trkpt lat="42.15592" lon="0.87367">
        <ele>617.4</ele>
        <time>2022-05-23 08:37:55</time>
      </trkpt>
      <trkpt lat="42.15593" lon="0.87362">
        <ele>617.4</ele>
        <time>2022-05-23 08:37:56</time>
      </trkpt>
      <trkpt lat="42.15594" lon="0.87355">
        <ele>617.6</ele>
        <time>2022-05-23 08:37:57</time>
      </trkpt>
      <trkpt lat="42.15594" lon="0.87349">
        <ele>617.8</ele>
        <time>2022-05-23 08:37:58</time>
      </trkpt>
      <trkpt lat="42.15594" lon="0.87344">
        <ele>618</ele>
        <time>2022-05-23 08:37:59</time>
      </trkpt>
      <trkpt lat="42.15594" lon="0.87337">
        <ele>618.2</ele>
        <time>2022-05-23 08:38:00</time>
      </trkpt>
      <trkpt lat="42.15594" lon="0.87331">
        <ele>618.2</ele>
        <time>2022-05-23 08:38:01</time>
      </trkpt>
      <trkpt lat="42.15594" lon="0.87325">
        <ele>618.4</ele>
        <time>2022-05-23 08:38:02</time>
      </trkpt>
      <trkpt lat="42.15593" lon="0.87319">
        <ele>618.6</ele>
        <time>2022-05-23 08:38:03</time>
      </trkpt>
      <trkpt lat="42.15593" lon="0.87313">
        <ele>618.8</ele>
        <time>2022-05-23 08:38:04</time>
      </trkpt>
      <trkpt lat="42.15593" lon="0.87306">
        <ele>619</ele>
        <time>2022-05-23 08:38:05</time>
      </trkpt>
      <trkpt lat="42.15592" lon="0.87301">
        <ele>619</ele>
        <time>2022-05-23 08:38:06</time>
      </trkpt>
      <trkpt lat="42.15592" lon="0.87294">
        <ele>619.2</ele>
        <time>2022-05-23 08:38:07</time>
      </trkpt>
      <trkpt lat="42.15591" lon="0.87288">
        <ele>619.4</ele>
        <time>2022-05-23 08:38:08</time>
      </trkpt>
      <trkpt lat="42.15591" lon="0.87281">
        <ele>619.6</ele>
        <time>2022-05-23 08:38:09</time>
      </trkpt>
      <trkpt lat="42.15591" lon="0.87276">
        <ele>619.8</ele>
        <time>2022-05-23 08:38:10</time>
      </trkpt>
      <trkpt lat="42.15591" lon="0.87269">
        <ele>619.8</ele>
        <time>2022-05-23 08:38:11</time>
      </trkpt>
      <trkpt lat="42.15591" lon="0.87263">
        <ele>620</ele>
        <time>2022-05-23 08:38:12</time>
      </trkpt>
      <trkpt lat="42.15591" lon="0.87256">
        <ele>620.2</ele>
        <time>2022-05-23 08:38:13</time>
      </trkpt>
      <trkpt lat="42.15592" lon="0.8725">
        <ele>620.4</ele>
        <time>2022-05-23 08:38:14</time>
      </trkpt>
      <trkpt lat="42.15592" lon="0.87243">
        <ele>620.4</ele>
        <time>2022-05-23 08:38:15</time>
      </trkpt>
      <trkpt lat="42.15593" lon="0.87237">
        <ele>620.6</ele>
        <time>2022-05-23 08:38:16</time>
      </trkpt>
      <trkpt lat="42.15593" lon="0.87231">
        <ele>620.6</ele>
        <time>2022-05-23 08:38:17</time>
      </trkpt>
      <trkpt lat="42.15594" lon="0.87225">
        <ele>620.8</ele>
        <time>2022-05-23 08:38:18</time>
      </trkpt>
      <trkpt lat="42.15594" lon="0.87219">
        <ele>621</ele>
        <time>2022-05-23 08:38:19</time>
      </trkpt>
      <trkpt lat="42.15595" lon="0.87213">
        <ele>621.2</ele>
        <time>2022-05-23 08:38:20</time>
      </trkpt>
      <trkpt lat="42.15596" lon="0.87207">
        <ele>621.4</ele>
        <time>2022-05-23 08:38:21</time>
      </trkpt>
      <trkpt lat="42.15596" lon="0.87201">
        <ele>621.4</ele>
        <time>2022-05-23 08:38:22</time>
      </trkpt>
      <trkpt lat="42.15597" lon="0.87195">
        <ele>621.6</ele>
        <time>2022-05-23 08:38:23</time>
      </trkpt>
      <trkpt lat="42.15597" lon="0.87191">
        <ele>621.8</ele>
        <time>2022-05-23 08:38:24</time>
      </trkpt>
      <trkpt lat="42.15597" lon="0.87183">
        <ele>622</ele>
        <time>2022-05-23 08:38:25</time>
      </trkpt>
      <trkpt lat="42.15596" lon="0.87177">
        <ele>622.2</ele>
        <time>2022-05-23 08:38:26</time>
      </trkpt>
      <trkpt lat="42.15595" lon="0.87171">
        <ele>622.2</ele>
        <time>2022-05-23 08:38:27</time>
      </trkpt>
      <trkpt lat="42.15594" lon="0.87165">
        <ele>622.4</ele>
        <time>2022-05-23 08:38:28</time>
      </trkpt>
      <trkpt lat="42.15593" lon="0.8716">
        <ele>622.6</ele>
        <time>2022-05-23 08:38:29</time>
      </trkpt>
      <trkpt lat="42.15591" lon="0.87154">
        <ele>622.8</ele>
        <time>2022-05-23 08:38:30</time>
      </trkpt>
      <trkpt lat="42.1559" lon="0.87148">
        <ele>622.8</ele>
        <time>2022-05-23 08:38:31</time>
      </trkpt>
      <trkpt lat="42.15588" lon="0.87143">
        <ele>623</ele>
        <time>2022-05-23 08:38:32</time>
      </trkpt>
      <trkpt lat="42.15587" lon="0.87138">
        <ele>623.2</ele>
        <time>2022-05-23 08:38:33</time>
      </trkpt>
      <trkpt lat="42.15585" lon="0.87132">
        <ele>623.4</ele>
        <time>2022-05-23 08:38:34</time>
      </trkpt>
      <trkpt lat="42.15583" lon="0.87127">
        <ele>623.4</ele>
        <time>2022-05-23 08:38:35</time>
      </trkpt>
      <trkpt lat="42.15582" lon="0.87122">
        <ele>623.6</ele>
        <time>2022-05-23 08:38:36</time>
      </trkpt>
      <trkpt lat="42.1558" lon="0.87117">
        <ele>623.8</ele>
        <time>2022-05-23 08:38:37</time>
      </trkpt>
      <trkpt lat="42.15579" lon="0.87112">
        <ele>624</ele>
        <time>2022-05-23 08:38:38</time>
      </trkpt>
      <trkpt lat="42.15577" lon="0.87107">
        <ele>624.2</ele>
        <time>2022-05-23 08:38:39</time>
      </trkpt>
      <trkpt lat="42.15576" lon="0.87102">
        <ele>624.4</ele>
        <time>2022-05-23 08:38:40</time>
      </trkpt>
      <trkpt lat="42.15574" lon="0.87097">
        <ele>624.6</ele>
        <time>2022-05-23 08:38:41</time>
      </trkpt>
      <trkpt lat="42.15573" lon="0.87092">
        <ele>624.6</ele>
        <time>2022-05-23 08:38:42</time>
      </trkpt>
      <trkpt lat="42.15572" lon="0.87086">
        <ele>624.8</ele>
        <time>2022-05-23 08:38:43</time>
      </trkpt>
      <trkpt lat="42.1557" lon="0.87082">
        <ele>625</ele>
        <time>2022-05-23 08:38:44</time>
      </trkpt>
      <trkpt lat="42.15568" lon="0.87076">
        <ele>625</ele>
        <time>2022-05-23 08:38:45</time>
      </trkpt>
      <trkpt lat="42.15566" lon="0.87072">
        <ele>625.2</ele>
        <time>2022-05-23 08:38:46</time>
      </trkpt>
      <trkpt lat="42.15563" lon="0.87068">
        <ele>625.4</ele>
        <time>2022-05-23 08:38:47</time>
      </trkpt>
      <trkpt lat="42.1556" lon="0.87063">
        <ele>625.4</ele>
        <time>2022-05-23 08:38:48</time>
      </trkpt>
      <trkpt lat="42.15557" lon="0.8706">
        <ele>625.6</ele>
        <time>2022-05-23 08:38:49</time>
      </trkpt>
      <trkpt lat="42.15554" lon="0.87058">
        <ele>625.8</ele>
        <time>2022-05-23 08:38:50</time>
      </trkpt>
      <trkpt lat="42.15549" lon="0.87055">
        <ele>625.8</ele>
        <time>2022-05-23 08:38:51</time>
      </trkpt>
      <trkpt lat="42.15545" lon="0.87054">
        <ele>626</ele>
        <time>2022-05-23 08:38:52</time>
      </trkpt>
      <trkpt lat="42.1554" lon="0.87053">
        <ele>626.2</ele>
        <time>2022-05-23 08:38:53</time>
      </trkpt>
      <trkpt lat="42.15536" lon="0.87053">
        <ele>626.4</ele>
        <time>2022-05-23 08:38:54</time>
      </trkpt>
      <trkpt lat="42.15531" lon="0.87054">
        <ele>626.4</ele>
        <time>2022-05-23 08:38:55</time>
      </trkpt>
      <trkpt lat="42.15528" lon="0.87055">
        <ele>626.6</ele>
        <time>2022-05-23 08:38:56</time>
      </trkpt>
      <trkpt lat="42.15523" lon="0.87056">
        <ele>626.6</ele>
        <time>2022-05-23 08:38:57</time>
      </trkpt>
      <trkpt lat="42.15519" lon="0.87057">
        <ele>626.8</ele>
        <time>2022-05-23 08:38:58</time>
      </trkpt>
      <trkpt lat="42.15515" lon="0.87057">
        <ele>627</ele>
        <time>2022-05-23 08:38:59</time>
      </trkpt>
      <trkpt lat="42.15512" lon="0.87058">
        <ele>627.2</ele>
        <time>2022-05-23 08:39:00</time>
      </trkpt>
      <trkpt lat="42.15507" lon="0.87059">
        <ele>627.4</ele>
        <time>2022-05-23 08:39:01</time>
      </trkpt>
      <trkpt lat="42.15504" lon="0.8706">
        <ele>627.6</ele>
        <time>2022-05-23 08:39:02</time>
      </trkpt>
      <trkpt lat="42.155" lon="0.87061">
        <ele>627.8</ele>
        <time>2022-05-23 08:39:03</time>
      </trkpt>
      <trkpt lat="42.15496" lon="0.87061">
        <ele>628</ele>
        <time>2022-05-23 08:39:04</time>
      </trkpt>
      <trkpt lat="42.15493" lon="0.87062">
        <ele>628.2</ele>
        <time>2022-05-23 08:39:05</time>
      </trkpt>
      <trkpt lat="42.1549" lon="0.87063">
        <ele>628.4</ele>
        <time>2022-05-23 08:39:06</time>
      </trkpt>
      <trkpt lat="42.15486" lon="0.87063">
        <ele>628.6</ele>
        <time>2022-05-23 08:39:07</time>
      </trkpt>
      <trkpt lat="42.15483" lon="0.87064">
        <ele>628.6</ele>
        <time>2022-05-23 08:39:08</time>
      </trkpt>
      <trkpt lat="42.15479" lon="0.87065">
        <ele>628.8</ele>
        <time>2022-05-23 08:39:09</time>
      </trkpt>
      <trkpt lat="42.15476" lon="0.87065">
        <ele>629</ele>
        <time>2022-05-23 08:39:10</time>
      </trkpt>
      <trkpt lat="42.15473" lon="0.87066">
        <ele>629.4</ele>
        <time>2022-05-23 08:39:11</time>
      </trkpt>
      <trkpt lat="42.15469" lon="0.87067">
        <ele>629.6</ele>
        <time>2022-05-23 08:39:12</time>
      </trkpt>
      <trkpt lat="42.15467" lon="0.87068">
        <ele>629.8</ele>
        <time>2022-05-23 08:39:13</time>
      </trkpt>
      <trkpt lat="42.15464" lon="0.87068">
        <ele>630</ele>
        <time>2022-05-23 08:39:14</time>
      </trkpt>
      <trkpt lat="42.1546" lon="0.87068">
        <ele>630</ele>
        <time>2022-05-23 08:39:15</time>
      </trkpt>
      <trkpt lat="42.15457" lon="0.87067">
        <ele>630.2</ele>
        <time>2022-05-23 08:39:16</time>
      </trkpt>
      <trkpt lat="42.15454" lon="0.87067">
        <ele>630.4</ele>
        <time>2022-05-23 08:39:17</time>
      </trkpt>
      <trkpt lat="42.15451" lon="0.87066">
        <ele>630.6</ele>
        <time>2022-05-23 08:39:18</time>
      </trkpt>
      <trkpt lat="42.15448" lon="0.87065">
        <ele>631</ele>
        <time>2022-05-23 08:39:19</time>
      </trkpt>
      <trkpt lat="42.15446" lon="0.87063">
        <ele>631.2</ele>
        <time>2022-05-23 08:39:20</time>
      </trkpt>
      <trkpt lat="42.15443" lon="0.87062">
        <ele>631.4</ele>
        <time>2022-05-23 08:39:21</time>
      </trkpt>
      <trkpt lat="42.1544" lon="0.8706">
        <ele>631.6</ele>
        <time>2022-05-23 08:39:22</time>
      </trkpt>
      <trkpt lat="42.15437" lon="0.87058">
        <ele>631.8</ele>
        <time>2022-05-23 08:39:23</time>
      </trkpt>
      <trkpt lat="42.15435" lon="0.87057">
        <ele>632</ele>
        <time>2022-05-23 08:39:24</time>
      </trkpt>
      <trkpt lat="42.15432" lon="0.87054">
        <ele>632.2</ele>
        <time>2022-05-23 08:39:25</time>
      </trkpt>
      <trkpt lat="42.1543" lon="0.8705">
        <ele>632.4</ele>
        <time>2022-05-23 08:39:26</time>
      </trkpt>
      <trkpt lat="42.15429" lon="0.87047">
        <ele>632.6</ele>
        <time>2022-05-23 08:39:27</time>
      </trkpt>
      <trkpt lat="42.15428" lon="0.87044">
        <ele>633</ele>
        <time>2022-05-23 08:39:28</time>
      </trkpt>
      <trkpt lat="42.15427" lon="0.8704">
        <ele>633.2</ele>
        <time>2022-05-23 08:39:29</time>
      </trkpt>
      <trkpt lat="42.15425" lon="0.87037">
        <ele>633.4</ele>
        <time>2022-05-23 08:39:30</time>
      </trkpt>
      <trkpt lat="42.15425" lon="0.87033">
        <ele>633.6</ele>
        <time>2022-05-23 08:39:31</time>
      </trkpt>
      <trkpt lat="42.15425" lon="0.87029">
        <ele>633.8</ele>
        <time>2022-05-23 08:39:32</time>
      </trkpt>
      <trkpt lat="42.15425" lon="0.87025">
        <ele>634</ele>
        <time>2022-05-23 08:39:33</time>
      </trkpt>
      <trkpt lat="42.15426" lon="0.87021">
        <ele>634.2</ele>
        <time>2022-05-23 08:39:34</time>
      </trkpt>
      <trkpt lat="42.15426" lon="0.87017">
        <ele>634.4</ele>
        <time>2022-05-23 08:39:35</time>
      </trkpt>
      <trkpt lat="42.15426" lon="0.87014">
        <ele>634.6</ele>
        <time>2022-05-23 08:39:36</time>
      </trkpt>
      <trkpt lat="42.15427" lon="0.8701">
        <ele>634.8</ele>
        <time>2022-05-23 08:39:37</time>
      </trkpt>
      <trkpt lat="42.15428" lon="0.87007">
        <ele>635</ele>
        <time>2022-05-23 08:39:38</time>
      </trkpt>
      <trkpt lat="42.15428" lon="0.87004">
        <ele>635.2</ele>
        <time>2022-05-23 08:39:39</time>
      </trkpt>
      <trkpt lat="42.15429" lon="0.87001">
        <ele>635.4</ele>
        <time>2022-05-23 08:39:40</time>
      </trkpt>
      <trkpt lat="42.1543" lon="0.86998">
        <ele>635.6</ele>
        <time>2022-05-23 08:39:41</time>
      </trkpt>
      <trkpt lat="42.1543" lon="0.86995">
        <ele>635.8</ele>
        <time>2022-05-23 08:39:42</time>
      </trkpt>
      <trkpt lat="42.15431" lon="0.86992">
        <ele>636</ele>
        <time>2022-05-23 08:39:43</time>
      </trkpt>
      <trkpt lat="42.15432" lon="0.86989">
        <ele>636.2</ele>
        <time>2022-05-23 08:39:44</time>
      </trkpt>
      <trkpt lat="42.15432" lon="0.86985">
        <ele>636.4</ele>
        <time>2022-05-23 08:39:45</time>
      </trkpt>
      <trkpt lat="42.15433" lon="0.86982">
        <ele>636.6</ele>
        <time>2022-05-23 08:39:46</time>
      </trkpt>
      <trkpt lat="42.15434" lon="0.8698">
        <ele>636.8</ele>
        <time>2022-05-23 08:39:47</time>
      </trkpt>
      <trkpt lat="42.15434" lon="0.86977">
        <ele>636.8</ele>
        <time>2022-05-23 08:39:48</time>
      </trkpt>
      <trkpt lat="42.15435" lon="0.86974">
        <ele>637</ele>
        <time>2022-05-23 08:39:49</time>
      </trkpt>
      <trkpt lat="42.15435" lon="0.86971">
        <ele>637.2</ele>
        <time>2022-05-23 08:39:50</time>
      </trkpt>
      <trkpt lat="42.15435" lon="0.86967">
        <ele>637.4</ele>
        <time>2022-05-23 08:39:51</time>
      </trkpt>
      <trkpt lat="42.15436" lon="0.86964">
        <ele>637.6</ele>
        <time>2022-05-23 08:39:52</time>
      </trkpt>
      <trkpt lat="42.15437" lon="0.86961">
        <ele>637.8</ele>
        <time>2022-05-23 08:39:53</time>
      </trkpt>
      <trkpt lat="42.15437" lon="0.86958">
        <ele>637.8</ele>
        <time>2022-05-23 08:39:54</time>
      </trkpt>
      <trkpt lat="42.15436" lon="0.86954">
        <ele>638</ele>
        <time>2022-05-23 08:39:55</time>
      </trkpt>
      <trkpt lat="42.15435" lon="0.86951">
        <ele>638.2</ele>
        <time>2022-05-23 08:39:56</time>
      </trkpt>
      <trkpt lat="42.15435" lon="0.86947">
        <ele>638.2</ele>
        <time>2022-05-23 08:39:57</time>
      </trkpt>
      <trkpt lat="42.15433" lon="0.86944">
        <ele>638.4</ele>
        <time>2022-05-23 08:39:58</time>
      </trkpt>
      <trkpt lat="42.15432" lon="0.86941">
        <ele>638.6</ele>
        <time>2022-05-23 08:39:59</time>
      </trkpt>
      <trkpt lat="42.1543" lon="0.86939">
        <ele>638.6</ele>
        <time>2022-05-23 08:40:00</time>
      </trkpt>
      <trkpt lat="42.15428" lon="0.86936">
        <ele>638.8</ele>
        <time>2022-05-23 08:40:01</time>
      </trkpt>
      <trkpt lat="42.15427" lon="0.86934">
        <ele>639</ele>
        <time>2022-05-23 08:40:02</time>
      </trkpt>
      <trkpt lat="42.15425" lon="0.86932">
        <ele>639</ele>
        <time>2022-05-23 08:40:03</time>
      </trkpt>
      <trkpt lat="42.15423" lon="0.8693">
        <ele>639.2</ele>
        <time>2022-05-23 08:40:04</time>
      </trkpt>
      <trkpt lat="42.15421" lon="0.86928">
        <ele>639.4</ele>
        <time>2022-05-23 08:40:05</time>
      </trkpt>
      <trkpt lat="42.15419" lon="0.86927">
        <ele>639.4</ele>
        <time>2022-05-23 08:40:06</time>
      </trkpt>
      <trkpt lat="42.15416" lon="0.86925">
        <ele>639.6</ele>
        <time>2022-05-23 08:40:07</time>
      </trkpt>
      <trkpt lat="42.15414" lon="0.86924">
        <ele>639.8</ele>
        <time>2022-05-23 08:40:08</time>
      </trkpt>
      <trkpt lat="42.15412" lon="0.86922">
        <ele>639.8</ele>
        <time>2022-05-23 08:40:09</time>
      </trkpt>
      <trkpt lat="42.15409" lon="0.86921">
        <ele>640</ele>
        <time>2022-05-23 08:40:10</time>
      </trkpt>
      <trkpt lat="42.15407" lon="0.8692">
        <ele>640</ele>
        <time>2022-05-23 08:40:11</time>
      </trkpt>
      <trkpt lat="42.15404" lon="0.86919">
        <ele>640.2</ele>
        <time>2022-05-23 08:40:12</time>
      </trkpt>
      <trkpt lat="42.15402" lon="0.86919">
        <ele>640.4</ele>
        <time>2022-05-23 08:40:13</time>
      </trkpt>
      <trkpt lat="42.15399" lon="0.86918">
        <ele>640.4</ele>
        <time>2022-05-23 08:40:14</time>
      </trkpt>
      <trkpt lat="42.15396" lon="0.86917">
        <ele>640.6</ele>
        <time>2022-05-23 08:40:15</time>
      </trkpt>
      <trkpt lat="42.15394" lon="0.86916">
        <ele>640.6</ele>
        <time>2022-05-23 08:40:16</time>
      </trkpt>
      <trkpt lat="42.15391" lon="0.86914">
        <ele>640.8</ele>
        <time>2022-05-23 08:40:17</time>
      </trkpt>
      <trkpt lat="42.15388" lon="0.86913">
        <ele>640.8</ele>
        <time>2022-05-23 08:40:18</time>
      </trkpt>
      <trkpt lat="42.15386" lon="0.86911">
        <ele>640.8</ele>
        <time>2022-05-23 08:40:19</time>
      </trkpt>
      <trkpt lat="42.15383" lon="0.86909">
        <ele>640.8</ele>
        <time>2022-05-23 08:40:20</time>
      </trkpt>
      <trkpt lat="42.1538" lon="0.86907">
        <ele>641</ele>
        <time>2022-05-23 08:40:21</time>
      </trkpt>
      <trkpt lat="42.15377" lon="0.86904">
        <ele>641</ele>
        <time>2022-05-23 08:40:22</time>
      </trkpt>
      <trkpt lat="42.15375" lon="0.86902">
        <ele>641</ele>
        <time>2022-05-23 08:40:23</time>
      </trkpt>
      <trkpt lat="42.15372" lon="0.869">
        <ele>641.2</ele>
        <time>2022-05-23 08:40:24</time>
      </trkpt>
      <trkpt lat="42.1537" lon="0.86898">
        <ele>641.2</ele>
        <time>2022-05-23 08:40:25</time>
      </trkpt>
      <trkpt lat="42.15368" lon="0.86895">
        <ele>641.4</ele>
        <time>2022-05-23 08:40:26</time>
      </trkpt>
      <trkpt lat="42.15365" lon="0.86892">
        <ele>641.4</ele>
        <time>2022-05-23 08:40:27</time>
      </trkpt>
      <trkpt lat="42.15363" lon="0.8689">
        <ele>641.4</ele>
        <time>2022-05-23 08:40:28</time>
      </trkpt>
      <trkpt lat="42.15361" lon="0.86886">
        <ele>641.6</ele>
        <time>2022-05-23 08:40:29</time>
      </trkpt>
      <trkpt lat="42.15359" lon="0.86883">
        <ele>641.8</ele>
        <time>2022-05-23 08:40:30</time>
      </trkpt>
      <trkpt lat="42.15357" lon="0.8688">
        <ele>641.8</ele>
        <time>2022-05-23 08:40:31</time>
      </trkpt>
      <trkpt lat="42.15356" lon="0.86876">
        <ele>641.8</ele>
        <time>2022-05-23 08:40:32</time>
      </trkpt>
      <trkpt lat="42.15354" lon="0.86872">
        <ele>642</ele>
        <time>2022-05-23 08:40:33</time>
      </trkpt>
      <trkpt lat="42.15352" lon="0.86869">
        <ele>642</ele>
        <time>2022-05-23 08:40:34</time>
      </trkpt>
      <trkpt lat="42.1535" lon="0.86865">
        <ele>642</ele>
        <time>2022-05-23 08:40:35</time>
      </trkpt>
      <trkpt lat="42.15349" lon="0.86862">
        <ele>642.2</ele>
        <time>2022-05-23 08:40:36</time>
      </trkpt>
      <trkpt lat="42.15347" lon="0.86858">
        <ele>642.2</ele>
        <time>2022-05-23 08:40:37</time>
      </trkpt>
      <trkpt lat="42.15345" lon="0.86855">
        <ele>642.4</ele>
        <time>2022-05-23 08:40:38</time>
      </trkpt>
      <trkpt lat="42.15344" lon="0.86851">
        <ele>642.4</ele>
        <time>2022-05-23 08:40:39</time>
      </trkpt>
      <trkpt lat="42.15342" lon="0.86847">
        <ele>642.4</ele>
        <time>2022-05-23 08:40:40</time>
      </trkpt>
      <trkpt lat="42.1534" lon="0.86843">
        <ele>642.6</ele>
        <time>2022-05-23 08:40:41</time>
      </trkpt>
      <trkpt lat="42.15339" lon="0.86839">
        <ele>642.6</ele>
        <time>2022-05-23 08:40:42</time>
      </trkpt>
      <trkpt lat="42.15338" lon="0.86835">
        <ele>642.8</ele>
        <time>2022-05-23 08:40:43</time>
      </trkpt>
      <trkpt lat="42.15336" lon="0.86831">
        <ele>642.8</ele>
        <time>2022-05-23 08:40:44</time>
      </trkpt>
      <trkpt lat="42.15335" lon="0.86827">
        <ele>642.8</ele>
        <time>2022-05-23 08:40:45</time>
      </trkpt>
      <trkpt lat="42.15334" lon="0.86823">
        <ele>643</ele>
        <time>2022-05-23 08:40:46</time>
      </trkpt>
      <trkpt lat="42.15333" lon="0.86818">
        <ele>643</ele>
        <time>2022-05-23 08:40:47</time>
      </trkpt>
      <trkpt lat="42.15333" lon="0.86814">
        <ele>643.2</ele>
        <time>2022-05-23 08:40:48</time>
      </trkpt>
      <trkpt lat="42.15333" lon="0.86809">
        <ele>643.2</ele>
        <time>2022-05-23 08:40:49</time>
      </trkpt>
      <trkpt lat="42.15333" lon="0.86805">
        <ele>643.4</ele>
        <time>2022-05-23 08:40:50</time>
      </trkpt>
      <trkpt lat="42.15333" lon="0.868">
        <ele>643.4</ele>
        <time>2022-05-23 08:40:51</time>
      </trkpt>
      <trkpt lat="42.15334" lon="0.86796">
        <ele>643.6</ele>
        <time>2022-05-23 08:40:52</time>
      </trkpt>
      <trkpt lat="42.15334" lon="0.86792">
        <ele>643.6</ele>
        <time>2022-05-23 08:40:53</time>
      </trkpt>
      <trkpt lat="42.15335" lon="0.86787">
        <ele>643.8</ele>
        <time>2022-05-23 08:40:54</time>
      </trkpt>
      <trkpt lat="42.15336" lon="0.86782">
        <ele>643.8</ele>
        <time>2022-05-23 08:40:55</time>
      </trkpt>
      <trkpt lat="42.15336" lon="0.86778">
        <ele>644</ele>
        <time>2022-05-23 08:40:56</time>
      </trkpt>
      <trkpt lat="42.15336" lon="0.86773">
        <ele>644</ele>
        <time>2022-05-23 08:40:57</time>
      </trkpt>
      <trkpt lat="42.15337" lon="0.86768">
        <ele>644.2</ele>
        <time>2022-05-23 08:40:58</time>
      </trkpt>
      <trkpt lat="42.15336" lon="0.86763">
        <ele>644.2</ele>
        <time>2022-05-23 08:40:59</time>
      </trkpt>
      <trkpt lat="42.15336" lon="0.86759">
        <ele>644.4</ele>
        <time>2022-05-23 08:41:00</time>
      </trkpt>
      <trkpt lat="42.15335" lon="0.86754">
        <ele>644.4</ele>
        <time>2022-05-23 08:41:01</time>
      </trkpt>
      <trkpt lat="42.15335" lon="0.86749">
        <ele>644.6</ele>
        <time>2022-05-23 08:41:02</time>
      </trkpt>
      <trkpt lat="42.15334" lon="0.86745">
        <ele>644.6</ele>
        <time>2022-05-23 08:41:03</time>
      </trkpt>
      <trkpt lat="42.15334" lon="0.8674">
        <ele>644.8</ele>
        <time>2022-05-23 08:41:04</time>
      </trkpt>
      <trkpt lat="42.15333" lon="0.86736">
        <ele>645</ele>
        <time>2022-05-23 08:41:05</time>
      </trkpt>
      <trkpt lat="42.15332" lon="0.86731">
        <ele>645</ele>
        <time>2022-05-23 08:41:06</time>
      </trkpt>
      <trkpt lat="42.15331" lon="0.86726">
        <ele>645.2</ele>
        <time>2022-05-23 08:41:07</time>
      </trkpt>
      <trkpt lat="42.1533" lon="0.86722">
        <ele>645.2</ele>
        <time>2022-05-23 08:41:08</time>
      </trkpt>
      <trkpt lat="42.15329" lon="0.86717">
        <ele>645.4</ele>
        <time>2022-05-23 08:41:09</time>
      </trkpt>
      <trkpt lat="42.15328" lon="0.86713">
        <ele>645.4</ele>
        <time>2022-05-23 08:41:10</time>
      </trkpt>
      <trkpt lat="42.15327" lon="0.86708">
        <ele>645.6</ele>
        <time>2022-05-23 08:41:11</time>
      </trkpt>
      <trkpt lat="42.15326" lon="0.86705">
        <ele>645.8</ele>
        <time>2022-05-23 08:41:12</time>
      </trkpt>
      <trkpt lat="42.15324" lon="0.86701">
        <ele>645.8</ele>
        <time>2022-05-23 08:41:13</time>
      </trkpt>
      <trkpt lat="42.15323" lon="0.86697">
        <ele>646</ele>
        <time>2022-05-23 08:41:14</time>
      </trkpt>
      <trkpt lat="42.15322" lon="0.86693">
        <ele>646.2</ele>
        <time>2022-05-23 08:41:15</time>
      </trkpt>
      <trkpt lat="42.1532" lon="0.86689">
        <ele>646.4</ele>
        <time>2022-05-23 08:41:16</time>
      </trkpt>
      <trkpt lat="42.15318" lon="0.86685">
        <ele>646.4</ele>
        <time>2022-05-23 08:41:17</time>
      </trkpt>
      <trkpt lat="42.15316" lon="0.86681">
        <ele>646.6</ele>
        <time>2022-05-23 08:41:18</time>
      </trkpt>
      <trkpt lat="42.15314" lon="0.86677">
        <ele>646.8</ele>
        <time>2022-05-23 08:41:19</time>
      </trkpt>
      <trkpt lat="42.15311" lon="0.86673">
        <ele>646.8</ele>
        <time>2022-05-23 08:41:20</time>
      </trkpt>
      <trkpt lat="42.15309" lon="0.8667">
        <ele>647</ele>
        <time>2022-05-23 08:41:21</time>
      </trkpt>
      <trkpt lat="42.15306" lon="0.86667">
        <ele>647.2</ele>
        <time>2022-05-23 08:41:22</time>
      </trkpt>
      <trkpt lat="42.15304" lon="0.86664">
        <ele>647.2</ele>
        <time>2022-05-23 08:41:23</time>
      </trkpt>
      <trkpt lat="42.15301" lon="0.86661">
        <ele>647.4</ele>
        <time>2022-05-23 08:41:24</time>
      </trkpt>
      <trkpt lat="42.15299" lon="0.86657">
        <ele>647.6</ele>
        <time>2022-05-23 08:41:25</time>
      </trkpt>
      <trkpt lat="42.15296" lon="0.86655">
        <ele>647.8</ele>
        <time>2022-05-23 08:41:26</time>
      </trkpt>
      <trkpt lat="42.15293" lon="0.86651">
        <ele>647.8</ele>
        <time>2022-05-23 08:41:27</time>
      </trkpt>
      <trkpt lat="42.15291" lon="0.86649">
        <ele>648</ele>
        <time>2022-05-23 08:41:28</time>
      </trkpt>
      <trkpt lat="42.15288" lon="0.86646">
        <ele>648.2</ele>
        <time>2022-05-23 08:41:29</time>
      </trkpt>
      <trkpt lat="42.15285" lon="0.86643">
        <ele>648.4</ele>
        <time>2022-05-23 08:41:30</time>
      </trkpt>
      <trkpt lat="42.15282" lon="0.8664">
        <ele>648.4</ele>
        <time>2022-05-23 08:41:31</time>
      </trkpt>
      <trkpt lat="42.15279" lon="0.86637">
        <ele>648.6</ele>
        <time>2022-05-23 08:41:32</time>
      </trkpt>
      <trkpt lat="42.15275" lon="0.86634">
        <ele>648.8</ele>
        <time>2022-05-23 08:41:33</time>
      </trkpt>
      <trkpt lat="42.15272" lon="0.86631">
        <ele>648.8</ele>
        <time>2022-05-23 08:41:34</time>
      </trkpt>
      <trkpt lat="42.15269" lon="0.86629">
        <ele>649</ele>
        <time>2022-05-23 08:41:35</time>
      </trkpt>
      <trkpt lat="42.15266" lon="0.86626">
        <ele>649.2</ele>
        <time>2022-05-23 08:41:36</time>
      </trkpt>
      <trkpt lat="42.15263" lon="0.86623">
        <ele>649.2</ele>
        <time>2022-05-23 08:41:37</time>
      </trkpt>
      <trkpt lat="42.1526" lon="0.8662">
        <ele>649.4</ele>
        <time>2022-05-23 08:41:38</time>
      </trkpt>
      <trkpt lat="42.15257" lon="0.86616">
        <ele>649.6</ele>
        <time>2022-05-23 08:41:39</time>
      </trkpt>
      <trkpt lat="42.15255" lon="0.86613">
        <ele>649.8</ele>
        <time>2022-05-23 08:41:40</time>
      </trkpt>
      <trkpt lat="42.15252" lon="0.8661">
        <ele>650</ele>
        <time>2022-05-23 08:41:41</time>
      </trkpt>
      <trkpt lat="42.1525" lon="0.86606">
        <ele>650</ele>
        <time>2022-05-23 08:41:42</time>
      </trkpt>
      <trkpt lat="42.15249" lon="0.86602">
        <ele>650.2</ele>
        <time>2022-05-23 08:41:43</time>
      </trkpt>
      <trkpt lat="42.15249" lon="0.86599">
        <ele>650.4</ele>
        <time>2022-05-23 08:41:44</time>
      </trkpt>
      <trkpt lat="42.15248" lon="0.86595">
        <ele>650.6</ele>
        <time>2022-05-23 08:41:45</time>
      </trkpt>
      <trkpt lat="42.15247" lon="0.86591">
        <ele>650.8</ele>
        <time>2022-05-23 08:41:46</time>
      </trkpt>
      <trkpt lat="42.15246" lon="0.86587">
        <ele>651</ele>
        <time>2022-05-23 08:41:47</time>
      </trkpt>
      <trkpt lat="42.15246" lon="0.86583">
        <ele>651.2</ele>
        <time>2022-05-23 08:41:48</time>
      </trkpt>
      <trkpt lat="42.15247" lon="0.86578">
        <ele>651.2</ele>
        <time>2022-05-23 08:41:49</time>
      </trkpt>
      <trkpt lat="42.15247" lon="0.86574">
        <ele>651.4</ele>
        <time>2022-05-23 08:41:50</time>
      </trkpt>
      <trkpt lat="42.15248" lon="0.8657">
        <ele>651.6</ele>
        <time>2022-05-23 08:41:51</time>
      </trkpt>
      <trkpt lat="42.15249" lon="0.86565">
        <ele>651.8</ele>
        <time>2022-05-23 08:41:52</time>
      </trkpt>
      <trkpt lat="42.1525" lon="0.8656">
        <ele>651.8</ele>
        <time>2022-05-23 08:41:53</time>
      </trkpt>
      <trkpt lat="42.15251" lon="0.86556">
        <ele>652</ele>
        <time>2022-05-23 08:41:54</time>
      </trkpt>
      <trkpt lat="42.15253" lon="0.86551">
        <ele>652.2</ele>
        <time>2022-05-23 08:41:55</time>
      </trkpt>
      <trkpt lat="42.15254" lon="0.86547">
        <ele>652.4</ele>
        <time>2022-05-23 08:41:56</time>
      </trkpt>
      <trkpt lat="42.15255" lon="0.86542">
        <ele>652.4</ele>
        <time>2022-05-23 08:41:57</time>
      </trkpt>
      <trkpt lat="42.15257" lon="0.86538">
        <ele>652.6</ele>
        <time>2022-05-23 08:41:58</time>
      </trkpt>
      <trkpt lat="42.15258" lon="0.86533">
        <ele>652.8</ele>
        <time>2022-05-23 08:41:59</time>
      </trkpt>
      <trkpt lat="42.15259" lon="0.86529">
        <ele>652.8</ele>
        <time>2022-05-23 08:42:00</time>
      </trkpt>
      <trkpt lat="42.1526" lon="0.86525">
        <ele>653</ele>
        <time>2022-05-23 08:42:01</time>
      </trkpt>
      <trkpt lat="42.15261" lon="0.8652">
        <ele>653.2</ele>
        <time>2022-05-23 08:42:02</time>
      </trkpt>
      <trkpt lat="42.15263" lon="0.86516">
        <ele>653.4</ele>
        <time>2022-05-23 08:42:03</time>
      </trkpt>
      <trkpt lat="42.15264" lon="0.86512">
        <ele>653.4</ele>
        <time>2022-05-23 08:42:04</time>
      </trkpt>
      <trkpt lat="42.15267" lon="0.86509">
        <ele>653.6</ele>
        <time>2022-05-23 08:42:05</time>
      </trkpt>
      <trkpt lat="42.15269" lon="0.86505">
        <ele>653.8</ele>
        <time>2022-05-23 08:42:06</time>
      </trkpt>
      <trkpt lat="42.15271" lon="0.86503">
        <ele>654</ele>
        <time>2022-05-23 08:42:07</time>
      </trkpt>
      <trkpt lat="42.15274" lon="0.865">
        <ele>654.2</ele>
        <time>2022-05-23 08:42:08</time>
      </trkpt>
      <trkpt lat="42.15277" lon="0.86498">
        <ele>654.4</ele>
        <time>2022-05-23 08:42:09</time>
      </trkpt>
      <trkpt lat="42.1528" lon="0.86496">
        <ele>654.4</ele>
        <time>2022-05-23 08:42:10</time>
      </trkpt>
      <trkpt lat="42.15284" lon="0.86495">
        <ele>654.6</ele>
        <time>2022-05-23 08:42:11</time>
      </trkpt>
      <trkpt lat="42.15287" lon="0.86493">
        <ele>654.8</ele>
        <time>2022-05-23 08:42:12</time>
      </trkpt>
      <trkpt lat="42.15291" lon="0.86493">
        <ele>655</ele>
        <time>2022-05-23 08:42:13</time>
      </trkpt>
      <trkpt lat="42.15294" lon="0.86492">
        <ele>655</ele>
        <time>2022-05-23 08:42:14</time>
      </trkpt>
      <trkpt lat="42.15297" lon="0.86491">
        <ele>655.2</ele>
        <time>2022-05-23 08:42:15</time>
      </trkpt>
      <trkpt lat="42.153" lon="0.86489">
        <ele>655.4</ele>
        <time>2022-05-23 08:42:16</time>
      </trkpt>
      <trkpt lat="42.15304" lon="0.86488">
        <ele>655.4</ele>
        <time>2022-05-23 08:42:17</time>
      </trkpt>
      <trkpt lat="42.15307" lon="0.86487">
        <ele>655.6</ele>
        <time>2022-05-23 08:42:18</time>
      </trkpt>
      <trkpt lat="42.1531" lon="0.86486">
        <ele>655.6</ele>
        <time>2022-05-23 08:42:19</time>
      </trkpt>
      <trkpt lat="42.15314" lon="0.86485">
        <ele>655.8</ele>
        <time>2022-05-23 08:42:20</time>
      </trkpt>
      <trkpt lat="42.15317" lon="0.86483">
        <ele>655.8</ele>
        <time>2022-05-23 08:42:21</time>
      </trkpt>
      <trkpt lat="42.1532" lon="0.86482">
        <ele>656</ele>
        <time>2022-05-23 08:42:22</time>
      </trkpt>
      <trkpt lat="42.15324" lon="0.86479">
        <ele>656</ele>
        <time>2022-05-23 08:42:23</time>
      </trkpt>
      <trkpt lat="42.15327" lon="0.86477">
        <ele>656.2</ele>
        <time>2022-05-23 08:42:24</time>
      </trkpt>
      <trkpt lat="42.15331" lon="0.86475">
        <ele>656.2</ele>
        <time>2022-05-23 08:42:25</time>
      </trkpt>
      <trkpt lat="42.15334" lon="0.86473">
        <ele>656.2</ele>
        <time>2022-05-23 08:42:26</time>
      </trkpt>
      <trkpt lat="42.15337" lon="0.8647">
        <ele>656.2</ele>
        <time>2022-05-23 08:42:27</time>
      </trkpt>
      <trkpt lat="42.1534" lon="0.86467">
        <ele>656.4</ele>
        <time>2022-05-23 08:42:28</time>
      </trkpt>
      <trkpt lat="42.15344" lon="0.86464">
        <ele>656.4</ele>
        <time>2022-05-23 08:42:29</time>
      </trkpt>
      <trkpt lat="42.15347" lon="0.86462">
        <ele>656.4</ele>
        <time>2022-05-23 08:42:30</time>
      </trkpt>
      <trkpt lat="42.1535" lon="0.86459">
        <ele>656.4</ele>
        <time>2022-05-23 08:42:31</time>
      </trkpt>
      <trkpt lat="42.15353" lon="0.86456">
        <ele>656.6</ele>
        <time>2022-05-23 08:42:32</time>
      </trkpt>
      <trkpt lat="42.15356" lon="0.86453">
        <ele>656.6</ele>
        <time>2022-05-23 08:42:33</time>
      </trkpt>
      <trkpt lat="42.15359" lon="0.8645">
        <ele>656.8</ele>
        <time>2022-05-23 08:42:34</time>
      </trkpt>
      <trkpt lat="42.15362" lon="0.86447">
        <ele>656.8</ele>
        <time>2022-05-23 08:42:35</time>
      </trkpt>
      <trkpt lat="42.15364" lon="0.86444">
        <ele>656.8</ele>
        <time>2022-05-23 08:42:36</time>
      </trkpt>
      <trkpt lat="42.15367" lon="0.8644">
        <ele>656.8</ele>
        <time>2022-05-23 08:42:37</time>
      </trkpt>
      <trkpt lat="42.1537" lon="0.86437">
        <ele>656.8</ele>
        <time>2022-05-23 08:42:38</time>
      </trkpt>
      <trkpt lat="42.15372" lon="0.86433">
        <ele>656.8</ele>
        <time>2022-05-23 08:42:39</time>
      </trkpt>
      <trkpt lat="42.15375" lon="0.86429">
        <ele>657</ele>
        <time>2022-05-23 08:42:40</time>
      </trkpt>
      <trkpt lat="42.15377" lon="0.86425">
        <ele>657</ele>
        <time>2022-05-23 08:42:41</time>
      </trkpt>
      <trkpt lat="42.15379" lon="0.86421">
        <ele>657</ele>
        <time>2022-05-23 08:42:42</time>
      </trkpt>
      <trkpt lat="42.15382" lon="0.86417">
        <ele>657</ele>
        <time>2022-05-23 08:42:43</time>
      </trkpt>
      <trkpt lat="42.15384" lon="0.86413">
        <ele>657.2</ele>
        <time>2022-05-23 08:42:44</time>
      </trkpt>
      <trkpt lat="42.15386" lon="0.86409">
        <ele>657.2</ele>
        <time>2022-05-23 08:42:45</time>
      </trkpt>
      <trkpt lat="42.15388" lon="0.86404">
        <ele>657.2</ele>
        <time>2022-05-23 08:42:46</time>
      </trkpt>
      <trkpt lat="42.15389" lon="0.864">
        <ele>657.2</ele>
        <time>2022-05-23 08:42:47</time>
      </trkpt>
      <trkpt lat="42.1539" lon="0.86395">
        <ele>657.2</ele>
        <time>2022-05-23 08:42:48</time>
      </trkpt>
      <trkpt lat="42.15392" lon="0.8639">
        <ele>657.2</ele>
        <time>2022-05-23 08:42:49</time>
      </trkpt>
      <trkpt lat="42.15392" lon="0.86385">
        <ele>657.4</ele>
        <time>2022-05-23 08:42:50</time>
      </trkpt>
      <trkpt lat="42.15392" lon="0.8638">
        <ele>657.4</ele>
        <time>2022-05-23 08:42:51</time>
      </trkpt>
      <trkpt lat="42.15392" lon="0.86375">
        <ele>657.4</ele>
        <time>2022-05-23 08:42:52</time>
      </trkpt>
      <trkpt lat="42.15391" lon="0.8637">
        <ele>657.6</ele>
        <time>2022-05-23 08:42:53</time>
      </trkpt>
      <trkpt lat="42.15391" lon="0.86365">
        <ele>657.6</ele>
        <time>2022-05-23 08:42:54</time>
      </trkpt>
      <trkpt lat="42.1539" lon="0.8636">
        <ele>657.8</ele>
        <time>2022-05-23 08:42:55</time>
      </trkpt>
      <trkpt lat="42.1539" lon="0.86356">
        <ele>657.8</ele>
        <time>2022-05-23 08:42:56</time>
      </trkpt>
      <trkpt lat="42.15388" lon="0.86351">
        <ele>658</ele>
        <time>2022-05-23 08:42:57</time>
      </trkpt>
      <trkpt lat="42.15387" lon="0.86346">
        <ele>658</ele>
        <time>2022-05-23 08:42:58</time>
      </trkpt>
      <trkpt lat="42.15387" lon="0.86341">
        <ele>658</ele>
        <time>2022-05-23 08:42:59</time>
      </trkpt>
      <trkpt lat="42.15385" lon="0.86337">
        <ele>658.2</ele>
        <time>2022-05-23 08:43:00</time>
      </trkpt>
      <trkpt lat="42.15385" lon="0.86332">
        <ele>658.2</ele>
        <time>2022-05-23 08:43:01</time>
      </trkpt>
      <trkpt lat="42.15383" lon="0.86327">
        <ele>658.4</ele>
        <time>2022-05-23 08:43:02</time>
      </trkpt>
      <trkpt lat="42.15383" lon="0.86323">
        <ele>658.4</ele>
        <time>2022-05-23 08:43:03</time>
      </trkpt>
      <trkpt lat="42.15381" lon="0.86319">
        <ele>658.4</ele>
        <time>2022-05-23 08:43:04</time>
      </trkpt>
      <trkpt lat="42.1538" lon="0.86315">
        <ele>658.6</ele>
        <time>2022-05-23 08:43:05</time>
      </trkpt>
      <trkpt lat="42.15378" lon="0.86311">
        <ele>658.6</ele>
        <time>2022-05-23 08:43:06</time>
      </trkpt>
      <trkpt lat="42.15375" lon="0.86307">
        <ele>658.6</ele>
        <time>2022-05-23 08:43:07</time>
      </trkpt>
      <trkpt lat="42.15372" lon="0.86303">
        <ele>658.6</ele>
        <time>2022-05-23 08:43:08</time>
      </trkpt>
      <trkpt lat="42.1537" lon="0.86299">
        <ele>658.6</ele>
        <time>2022-05-23 08:43:09</time>
      </trkpt>
      <trkpt lat="42.15367" lon="0.86296">
        <ele>658.8</ele>
        <time>2022-05-23 08:43:10</time>
      </trkpt>
      <trkpt lat="42.15364" lon="0.86293">
        <ele>658.8</ele>
        <time>2022-05-23 08:43:11</time>
      </trkpt>
      <trkpt lat="42.15361" lon="0.8629">
        <ele>658.8</ele>
        <time>2022-05-23 08:43:12</time>
      </trkpt>
      <trkpt lat="42.15359" lon="0.86286">
        <ele>659</ele>
        <time>2022-05-23 08:43:13</time>
      </trkpt>
      <trkpt lat="42.15356" lon="0.86282">
        <ele>659</ele>
        <time>2022-05-23 08:43:14</time>
      </trkpt>
      <trkpt lat="42.15355" lon="0.86278">
        <ele>659.2</ele>
        <time>2022-05-23 08:43:15</time>
      </trkpt>
      <trkpt lat="42.15353" lon="0.86273">
        <ele>659.2</ele>
        <time>2022-05-23 08:43:16</time>
      </trkpt>
      <trkpt lat="42.15353" lon="0.86269">
        <ele>659.2</ele>
        <time>2022-05-23 08:43:17</time>
      </trkpt>
      <trkpt lat="42.15352" lon="0.86264">
        <ele>659.2</ele>
        <time>2022-05-23 08:43:18</time>
      </trkpt>
      <trkpt lat="42.15352" lon="0.86259">
        <ele>659.4</ele>
        <time>2022-05-23 08:43:19</time>
      </trkpt>
      <trkpt lat="42.15353" lon="0.86254">
        <ele>659.4</ele>
        <time>2022-05-23 08:43:20</time>
      </trkpt>
      <trkpt lat="42.15354" lon="0.86249">
        <ele>659.4</ele>
        <time>2022-05-23 08:43:21</time>
      </trkpt>
      <trkpt lat="42.15355" lon="0.86245">
        <ele>659.6</ele>
        <time>2022-05-23 08:43:22</time>
      </trkpt>
      <trkpt lat="42.15356" lon="0.8624">
        <ele>659.6</ele>
        <time>2022-05-23 08:43:23</time>
      </trkpt>
      <trkpt lat="42.15358" lon="0.86236">
        <ele>659.8</ele>
        <time>2022-05-23 08:43:24</time>
      </trkpt>
      <trkpt lat="42.15359" lon="0.86231">
        <ele>659.8</ele>
        <time>2022-05-23 08:43:25</time>
      </trkpt>
      <trkpt lat="42.1536" lon="0.86227">
        <ele>659.8</ele>
        <time>2022-05-23 08:43:26</time>
      </trkpt>
      <trkpt lat="42.15362" lon="0.86223">
        <ele>660</ele>
        <time>2022-05-23 08:43:27</time>
      </trkpt>
      <trkpt lat="42.15364" lon="0.86219">
        <ele>660</ele>
        <time>2022-05-23 08:43:28</time>
      </trkpt>
      <trkpt lat="42.15365" lon="0.86214">
        <ele>660.2</ele>
        <time>2022-05-23 08:43:29</time>
      </trkpt>
      <trkpt lat="42.15366" lon="0.8621">
        <ele>660.2</ele>
        <time>2022-05-23 08:43:30</time>
      </trkpt>
      <trkpt lat="42.15368" lon="0.86206">
        <ele>660.4</ele>
        <time>2022-05-23 08:43:31</time>
      </trkpt>
      <trkpt lat="42.15369" lon="0.86201">
        <ele>660.4</ele>
        <time>2022-05-23 08:43:32</time>
      </trkpt>
      <trkpt lat="42.1537" lon="0.86197">
        <ele>660.6</ele>
        <time>2022-05-23 08:43:33</time>
      </trkpt>
      <trkpt lat="42.15371" lon="0.86193">
        <ele>660.6</ele>
        <time>2022-05-23 08:43:34</time>
      </trkpt>
      <trkpt lat="42.15373" lon="0.86189">
        <ele>660.8</ele>
        <time>2022-05-23 08:43:35</time>
      </trkpt>
      <trkpt lat="42.15374" lon="0.86185">
        <ele>661</ele>
        <time>2022-05-23 08:43:36</time>
      </trkpt>
      <trkpt lat="42.15375" lon="0.86181">
        <ele>661</ele>
        <time>2022-05-23 08:43:37</time>
      </trkpt>
      <trkpt lat="42.15376" lon="0.86177">
        <ele>661.2</ele>
        <time>2022-05-23 08:43:38</time>
      </trkpt>
      <trkpt lat="42.15377" lon="0.86173">
        <ele>661.4</ele>
        <time>2022-05-23 08:43:39</time>
      </trkpt>
      <trkpt lat="42.15378" lon="0.8617">
        <ele>661.4</ele>
        <time>2022-05-23 08:43:40</time>
      </trkpt>
      <trkpt lat="42.15379" lon="0.86166">
        <ele>661.6</ele>
        <time>2022-05-23 08:43:41</time>
      </trkpt>
      <trkpt lat="42.1538" lon="0.86163">
        <ele>661.8</ele>
        <time>2022-05-23 08:43:42</time>
      </trkpt>
      <trkpt lat="42.15381" lon="0.86159">
        <ele>662</ele>
        <time>2022-05-23 08:43:43</time>
      </trkpt>
      <trkpt lat="42.15383" lon="0.86155">
        <ele>662.2</ele>
        <time>2022-05-23 08:43:44</time>
      </trkpt>
      <trkpt lat="42.15384" lon="0.86152">
        <ele>662.4</ele>
        <time>2022-05-23 08:43:45</time>
      </trkpt>
      <trkpt lat="42.15385" lon="0.86148">
        <ele>662.6</ele>
        <time>2022-05-23 08:43:46</time>
      </trkpt>
      <trkpt lat="42.15386" lon="0.86145">
        <ele>662.8</ele>
        <time>2022-05-23 08:43:47</time>
      </trkpt>
      <trkpt lat="42.15387" lon="0.86142">
        <ele>663</ele>
        <time>2022-05-23 08:43:48</time>
      </trkpt>
      <trkpt lat="42.15388" lon="0.86139">
        <ele>663.2</ele>
        <time>2022-05-23 08:43:49</time>
      </trkpt>
      <trkpt lat="42.15389" lon="0.86136">
        <ele>663.4</ele>
        <time>2022-05-23 08:43:50</time>
      </trkpt>
      <trkpt lat="42.1539" lon="0.86132">
        <ele>663.6</ele>
        <time>2022-05-23 08:43:51</time>
      </trkpt>
      <trkpt lat="42.1539" lon="0.86129">
        <ele>663.8</ele>
        <time>2022-05-23 08:43:52</time>
      </trkpt>
      <trkpt lat="42.15391" lon="0.86126">
        <ele>664</ele>
        <time>2022-05-23 08:43:53</time>
      </trkpt>
      <trkpt lat="42.15393" lon="0.86123">
        <ele>664.2</ele>
        <time>2022-05-23 08:43:54</time>
      </trkpt>
      <trkpt lat="42.15394" lon="0.86121">
        <ele>664.4</ele>
        <time>2022-05-23 08:43:55</time>
      </trkpt>
      <trkpt lat="42.15395" lon="0.86118">
        <ele>664.6</ele>
        <time>2022-05-23 08:43:56</time>
      </trkpt>
      <trkpt lat="42.15396" lon="0.86115">
        <ele>664.8</ele>
        <time>2022-05-23 08:43:57</time>
      </trkpt>
      <trkpt lat="42.15397" lon="0.86112">
        <ele>665</ele>
        <time>2022-05-23 08:43:58</time>
      </trkpt>
      <trkpt lat="42.15398" lon="0.86109">
        <ele>665.2</ele>
        <time>2022-05-23 08:43:59</time>
      </trkpt>
      <trkpt lat="42.154" lon="0.86106">
        <ele>665.4</ele>
        <time>2022-05-23 08:44:00</time>
      </trkpt>
      <trkpt lat="42.15402" lon="0.86103">
        <ele>665.4</ele>
        <time>2022-05-23 08:44:01</time>
      </trkpt>
      <trkpt lat="42.15403" lon="0.86101">
        <ele>665.6</ele>
        <time>2022-05-23 08:44:02</time>
      </trkpt>
      <trkpt lat="42.15406" lon="0.86098">
        <ele>665.8</ele>
        <time>2022-05-23 08:44:03</time>
      </trkpt>
      <trkpt lat="42.15407" lon="0.86096">
        <ele>666</ele>
        <time>2022-05-23 08:44:04</time>
      </trkpt>
      <trkpt lat="42.15409" lon="0.86094">
        <ele>666.2</ele>
        <time>2022-05-23 08:44:05</time>
      </trkpt>
      <trkpt lat="42.15411" lon="0.86092">
        <ele>666.4</ele>
        <time>2022-05-23 08:44:06</time>
      </trkpt>
      <trkpt lat="42.15414" lon="0.8609">
        <ele>666.6</ele>
        <time>2022-05-23 08:44:07</time>
      </trkpt>
      <trkpt lat="42.15416" lon="0.86088">
        <ele>666.8</ele>
        <time>2022-05-23 08:44:08</time>
      </trkpt>
      <trkpt lat="42.15418" lon="0.86086">
        <ele>667</ele>
        <time>2022-05-23 08:44:09</time>
      </trkpt>
      <trkpt lat="42.1542" lon="0.86084">
        <ele>667.2</ele>
        <time>2022-05-23 08:44:10</time>
      </trkpt>
      <trkpt lat="42.15422" lon="0.86082">
        <ele>667.4</ele>
        <time>2022-05-23 08:44:11</time>
      </trkpt>
      <trkpt lat="42.15424" lon="0.8608">
        <ele>667.6</ele>
        <time>2022-05-23 08:44:12</time>
      </trkpt>
      <trkpt lat="42.15427" lon="0.86078">
        <ele>667.6</ele>
        <time>2022-05-23 08:44:13</time>
      </trkpt>
      <trkpt lat="42.15429" lon="0.86076">
        <ele>667.8</ele>
        <time>2022-05-23 08:44:14</time>
      </trkpt>
      <trkpt lat="42.15432" lon="0.86074">
        <ele>668</ele>
        <time>2022-05-23 08:44:15</time>
      </trkpt>
      <trkpt lat="42.15434" lon="0.86072">
        <ele>668.2</ele>
        <time>2022-05-23 08:44:16</time>
      </trkpt>
      <trkpt lat="42.15436" lon="0.8607">
        <ele>668.4</ele>
        <time>2022-05-23 08:44:17</time>
      </trkpt>
      <trkpt lat="42.15437" lon="0.86068">
        <ele>668.6</ele>
        <time>2022-05-23 08:44:18</time>
      </trkpt>
      <trkpt lat="42.1544" lon="0.86066">
        <ele>668.6</ele>
        <time>2022-05-23 08:44:19</time>
      </trkpt>
      <trkpt lat="42.15442" lon="0.86064">
        <ele>668.8</ele>
        <time>2022-05-23 08:44:20</time>
      </trkpt>
      <trkpt lat="42.15444" lon="0.86062">
        <ele>669</ele>
        <time>2022-05-23 08:44:21</time>
      </trkpt>
      <trkpt lat="42.15446" lon="0.86061">
        <ele>669.2</ele>
        <time>2022-05-23 08:44:22</time>
      </trkpt>
      <trkpt lat="42.15449" lon="0.86058">
        <ele>669.4</ele>
        <time>2022-05-23 08:44:23</time>
      </trkpt>
      <trkpt lat="42.1545" lon="0.86055">
        <ele>669.6</ele>
        <time>2022-05-23 08:44:24</time>
      </trkpt>
      <trkpt lat="42.15453" lon="0.86052">
        <ele>669.6</ele>
        <time>2022-05-23 08:44:25</time>
      </trkpt>
      <trkpt lat="42.15455" lon="0.86049">
        <ele>669.8</ele>
        <time>2022-05-23 08:44:26</time>
      </trkpt>
      <trkpt lat="42.15457" lon="0.86045">
        <ele>670</ele>
        <time>2022-05-23 08:44:27</time>
      </trkpt>
      <trkpt lat="42.15459" lon="0.86041">
        <ele>670</ele>
        <time>2022-05-23 08:44:28</time>
      </trkpt>
      <trkpt lat="42.1546" lon="0.86037">
        <ele>670</ele>
        <time>2022-05-23 08:44:29</time>
      </trkpt>
      <trkpt lat="42.15461" lon="0.86033">
        <ele>670.2</ele>
        <time>2022-05-23 08:44:30</time>
      </trkpt>
      <trkpt lat="42.15463" lon="0.86028">
        <ele>670.2</ele>
        <time>2022-05-23 08:44:31</time>
      </trkpt>
      <trkpt lat="42.15463" lon="0.86024">
        <ele>670.4</ele>
        <time>2022-05-23 08:44:32</time>
      </trkpt>
      <trkpt lat="42.15464" lon="0.86019">
        <ele>670.4</ele>
        <time>2022-05-23 08:44:33</time>
      </trkpt>
      <trkpt lat="42.15465" lon="0.86016">
        <ele>670.4</ele>
        <time>2022-05-23 08:44:34</time>
      </trkpt>
      <trkpt lat="42.15466" lon="0.86011">
        <ele>670.6</ele>
        <time>2022-05-23 08:44:35</time>
      </trkpt>
      <trkpt lat="42.15466" lon="0.86005">
        <ele>670.6</ele>
        <time>2022-05-23 08:44:36</time>
      </trkpt>
      <trkpt lat="42.15466" lon="0.86">
        <ele>670.8</ele>
        <time>2022-05-23 08:44:37</time>
      </trkpt>
      <trkpt lat="42.15466" lon="0.85996">
        <ele>670.8</ele>
        <time>2022-05-23 08:44:38</time>
      </trkpt>
      <trkpt lat="42.15466" lon="0.8599">
        <ele>670.8</ele>
        <time>2022-05-23 08:44:39</time>
      </trkpt>
      <trkpt lat="42.15466" lon="0.85986">
        <ele>671</ele>
        <time>2022-05-23 08:44:40</time>
      </trkpt>
      <trkpt lat="42.15466" lon="0.85981">
        <ele>671</ele>
        <time>2022-05-23 08:44:41</time>
      </trkpt>
      <trkpt lat="42.15465" lon="0.85977">
        <ele>671.2</ele>
        <time>2022-05-23 08:44:42</time>
      </trkpt>
      <trkpt lat="42.15465" lon="0.85972">
        <ele>671.2</ele>
        <time>2022-05-23 08:44:43</time>
      </trkpt>
      <trkpt lat="42.15465" lon="0.85967">
        <ele>671.4</ele>
        <time>2022-05-23 08:44:44</time>
      </trkpt>
      <trkpt lat="42.15465" lon="0.85962">
        <ele>671.6</ele>
        <time>2022-05-23 08:44:45</time>
      </trkpt>
      <trkpt lat="42.15465" lon="0.85958">
        <ele>671.6</ele>
        <time>2022-05-23 08:44:46</time>
      </trkpt>
      <trkpt lat="42.15465" lon="0.85954">
        <ele>671.8</ele>
        <time>2022-05-23 08:44:47</time>
      </trkpt>
      <trkpt lat="42.15464" lon="0.8595">
        <ele>671.8</ele>
        <time>2022-05-23 08:44:48</time>
      </trkpt>
      <trkpt lat="42.15464" lon="0.85945">
        <ele>672</ele>
        <time>2022-05-23 08:44:49</time>
      </trkpt>
      <trkpt lat="42.15463" lon="0.85941">
        <ele>672.2</ele>
        <time>2022-05-23 08:44:50</time>
      </trkpt>
      <trkpt lat="42.15463" lon="0.85936">
        <ele>672.2</ele>
        <time>2022-05-23 08:44:51</time>
      </trkpt>
      <trkpt lat="42.15462" lon="0.85932">
        <ele>672.4</ele>
        <time>2022-05-23 08:44:52</time>
      </trkpt>
      <trkpt lat="42.15463" lon="0.85927">
        <ele>672.6</ele>
        <time>2022-05-23 08:44:53</time>
      </trkpt>
      <trkpt lat="42.15463" lon="0.85923">
        <ele>672.6</ele>
        <time>2022-05-23 08:44:54</time>
      </trkpt>
      <trkpt lat="42.15463" lon="0.85918">
        <ele>672.8</ele>
        <time>2022-05-23 08:44:55</time>
      </trkpt>
      <trkpt lat="42.15462" lon="0.85914">
        <ele>673</ele>
        <time>2022-05-23 08:44:56</time>
      </trkpt>
      <trkpt lat="42.15462" lon="0.8591">
        <ele>673</ele>
        <time>2022-05-23 08:44:57</time>
      </trkpt>
      <trkpt lat="42.15462" lon="0.85905">
        <ele>673.2</ele>
        <time>2022-05-23 08:44:58</time>
      </trkpt>
      <trkpt lat="42.15462" lon="0.85901">
        <ele>673.4</ele>
        <time>2022-05-23 08:44:59</time>
      </trkpt>
      <trkpt lat="42.15462" lon="0.85897">
        <ele>673.4</ele>
        <time>2022-05-23 08:45:00</time>
      </trkpt>
      <trkpt lat="42.15461" lon="0.85892">
        <ele>673.6</ele>
        <time>2022-05-23 08:45:01</time>
      </trkpt>
      <trkpt lat="42.15461" lon="0.85888">
        <ele>673.6</ele>
        <time>2022-05-23 08:45:02</time>
      </trkpt>
      <trkpt lat="42.15461" lon="0.85884">
        <ele>673.8</ele>
        <time>2022-05-23 08:45:03</time>
      </trkpt>
      <trkpt lat="42.1546" lon="0.85879">
        <ele>674</ele>
        <time>2022-05-23 08:45:04</time>
      </trkpt>
      <trkpt lat="42.1546" lon="0.85875">
        <ele>674</ele>
        <time>2022-05-23 08:45:05</time>
      </trkpt>
      <trkpt lat="42.1546" lon="0.8587">
        <ele>674.2</ele>
        <time>2022-05-23 08:45:06</time>
      </trkpt>
      <trkpt lat="42.1546" lon="0.85866">
        <ele>674.2</ele>
        <time>2022-05-23 08:45:07</time>
      </trkpt>
      <trkpt lat="42.1546" lon="0.85862">
        <ele>674.4</ele>
        <time>2022-05-23 08:45:08</time>
      </trkpt>
      <trkpt lat="42.15459" lon="0.85857">
        <ele>674.6</ele>
        <time>2022-05-23 08:45:09</time>
      </trkpt>
      <trkpt lat="42.15459" lon="0.85853">
        <ele>674.6</ele>
        <time>2022-05-23 08:45:10</time>
      </trkpt>
      <trkpt lat="42.15459" lon="0.85848">
        <ele>674.8</ele>
        <time>2022-05-23 08:45:11</time>
      </trkpt>
      <trkpt lat="42.15459" lon="0.85843">
        <ele>674.8</ele>
        <time>2022-05-23 08:45:12</time>
      </trkpt>
      <trkpt lat="42.15459" lon="0.85839">
        <ele>675</ele>
        <time>2022-05-23 08:45:13</time>
      </trkpt>
      <trkpt lat="42.15458" lon="0.85834">
        <ele>675</ele>
        <time>2022-05-23 08:45:14</time>
      </trkpt>
      <trkpt lat="42.15458" lon="0.8583">
        <ele>675.2</ele>
        <time>2022-05-23 08:45:15</time>
      </trkpt>
      <trkpt lat="42.15458" lon="0.85826">
        <ele>675.2</ele>
        <time>2022-05-23 08:45:16</time>
      </trkpt>
      <trkpt lat="42.15457" lon="0.85822">
        <ele>675.4</ele>
        <time>2022-05-23 08:45:17</time>
      </trkpt>
      <trkpt lat="42.15457" lon="0.85818">
        <ele>675.6</ele>
        <time>2022-05-23 08:45:18</time>
      </trkpt>
      <trkpt lat="42.15457" lon="0.85813">
        <ele>675.6</ele>
        <time>2022-05-23 08:45:19</time>
      </trkpt>
      <trkpt lat="42.15457" lon="0.85809">
        <ele>675.8</ele>
        <time>2022-05-23 08:45:20</time>
      </trkpt>
      <trkpt lat="42.15457" lon="0.85805">
        <ele>675.8</ele>
        <time>2022-05-23 08:45:21</time>
      </trkpt>
      <trkpt lat="42.15457" lon="0.858">
        <ele>676</ele>
        <time>2022-05-23 08:45:22</time>
      </trkpt>
      <trkpt lat="42.15457" lon="0.85796">
        <ele>676</ele>
        <time>2022-05-23 08:45:23</time>
      </trkpt>
      <trkpt lat="42.15457" lon="0.85791">
        <ele>676.2</ele>
        <time>2022-05-23 08:45:24</time>
      </trkpt>
      <trkpt lat="42.15457" lon="0.85787">
        <ele>676.4</ele>
        <time>2022-05-23 08:45:25</time>
      </trkpt>
      <trkpt lat="42.15456" lon="0.85782">
        <ele>676.4</ele>
        <time>2022-05-23 08:45:26</time>
      </trkpt>
      <trkpt lat="42.15456" lon="0.85778">
        <ele>676.6</ele>
        <time>2022-05-23 08:45:27</time>
      </trkpt>
      <trkpt lat="42.15455" lon="0.85773">
        <ele>676.6</ele>
        <time>2022-05-23 08:45:28</time>
      </trkpt>
      <trkpt lat="42.15454" lon="0.85769">
        <ele>676.8</ele>
        <time>2022-05-23 08:45:29</time>
      </trkpt>
      <trkpt lat="42.15454" lon="0.85765">
        <ele>677</ele>
        <time>2022-05-23 08:45:30</time>
      </trkpt>
      <trkpt lat="42.15453" lon="0.8576">
        <ele>677</ele>
        <time>2022-05-23 08:45:31</time>
      </trkpt>
      <trkpt lat="42.15452" lon="0.85756">
        <ele>677.2</ele>
        <time>2022-05-23 08:45:32</time>
      </trkpt>
      <trkpt lat="42.1545" lon="0.85752">
        <ele>677.2</ele>
        <time>2022-05-23 08:45:33</time>
      </trkpt>
      <trkpt lat="42.15448" lon="0.85749">
        <ele>677.4</ele>
        <time>2022-05-23 08:45:34</time>
      </trkpt>
      <trkpt lat="42.15447" lon="0.85745">
        <ele>677.6</ele>
        <time>2022-05-23 08:45:35</time>
      </trkpt>
      <trkpt lat="42.15445" lon="0.85742">
        <ele>677.6</ele>
        <time>2022-05-23 08:45:36</time>
      </trkpt>
      <trkpt lat="42.15444" lon="0.85738">
        <ele>677.8</ele>
        <time>2022-05-23 08:45:37</time>
      </trkpt>
      <trkpt lat="42.15442" lon="0.85735">
        <ele>678</ele>
        <time>2022-05-23 08:45:38</time>
      </trkpt>
      <trkpt lat="42.1544" lon="0.85731">
        <ele>678</ele>
        <time>2022-05-23 08:45:39</time>
      </trkpt>
      <trkpt lat="42.15438" lon="0.85728">
        <ele>678.2</ele>
        <time>2022-05-23 08:45:40</time>
      </trkpt>
      <trkpt lat="42.15436" lon="0.85724">
        <ele>678.2</ele>
        <time>2022-05-23 08:45:41</time>
      </trkpt>
      <trkpt lat="42.15434" lon="0.85721">
        <ele>678.4</ele>
        <time>2022-05-23 08:45:42</time>
      </trkpt>
      <trkpt lat="42.15432" lon="0.85717">
        <ele>678.4</ele>
        <time>2022-05-23 08:45:43</time>
      </trkpt>
      <trkpt lat="42.1543" lon="0.85714">
        <ele>678.6</ele>
        <time>2022-05-23 08:45:44</time>
      </trkpt>
      <trkpt lat="42.15428" lon="0.85709">
        <ele>678.6</ele>
        <time>2022-05-23 08:45:45</time>
      </trkpt>
      <trkpt lat="42.15427" lon="0.85705">
        <ele>678.6</ele>
        <time>2022-05-23 08:45:46</time>
      </trkpt>
      <trkpt lat="42.15426" lon="0.85701">
        <ele>678.8</ele>
        <time>2022-05-23 08:45:47</time>
      </trkpt>
      <trkpt lat="42.15424" lon="0.85697">
        <ele>678.8</ele>
        <time>2022-05-23 08:45:48</time>
      </trkpt>
      <trkpt lat="42.15423" lon="0.85692">
        <ele>678.8</ele>
        <time>2022-05-23 08:45:49</time>
      </trkpt>
      <trkpt lat="42.15422" lon="0.85687">
        <ele>679</ele>
        <time>2022-05-23 08:45:50</time>
      </trkpt>
      <trkpt lat="42.15421" lon="0.85682">
        <ele>679</ele>
        <time>2022-05-23 08:45:51</time>
      </trkpt>
      <trkpt lat="42.1542" lon="0.85677">
        <ele>679</ele>
        <time>2022-05-23 08:45:52</time>
      </trkpt>
      <trkpt lat="42.15419" lon="0.85672">
        <ele>679</ele>
        <time>2022-05-23 08:45:53</time>
      </trkpt>
      <trkpt lat="42.15419" lon="0.85667">
        <ele>679</ele>
        <time>2022-05-23 08:45:54</time>
      </trkpt>
      <trkpt lat="42.15417" lon="0.85662">
        <ele>679</ele>
        <time>2022-05-23 08:45:55</time>
      </trkpt>
      <trkpt lat="42.15417" lon="0.85656">
        <ele>679</ele>
        <time>2022-05-23 08:45:56</time>
      </trkpt>
      <trkpt lat="42.15416" lon="0.8565">
        <ele>679.2</ele>
        <time>2022-05-23 08:45:57</time>
      </trkpt>
      <trkpt lat="42.15416" lon="0.85644">
        <ele>679.2</ele>
        <time>2022-05-23 08:45:58</time>
      </trkpt>
      <trkpt lat="42.15416" lon="0.85638">
        <ele>679.2</ele>
        <time>2022-05-23 08:45:59</time>
      </trkpt>
      <trkpt lat="42.15415" lon="0.85632">
        <ele>679.2</ele>
        <time>2022-05-23 08:46:00</time>
      </trkpt>
      <trkpt lat="42.15415" lon="0.85626">
        <ele>679.2</ele>
        <time>2022-05-23 08:46:01</time>
      </trkpt>
      <trkpt lat="42.15415" lon="0.85619">
        <ele>679.2</ele>
        <time>2022-05-23 08:46:02</time>
      </trkpt>
      <trkpt lat="42.15414" lon="0.85614">
        <ele>679.4</ele>
        <time>2022-05-23 08:46:03</time>
      </trkpt>
      <trkpt lat="42.15414" lon="0.85607">
        <ele>679.4</ele>
        <time>2022-05-23 08:46:04</time>
      </trkpt>
      <trkpt lat="42.15414" lon="0.85601">
        <ele>679.4</ele>
        <time>2022-05-23 08:46:05</time>
      </trkpt>
      <trkpt lat="42.15413" lon="0.85595">
        <ele>679.6</ele>
        <time>2022-05-23 08:46:06</time>
      </trkpt>
      <trkpt lat="42.15413" lon="0.85589">
        <ele>679.6</ele>
        <time>2022-05-23 08:46:07</time>
      </trkpt>
      <trkpt lat="42.15412" lon="0.85583">
        <ele>679.6</ele>
        <time>2022-05-23 08:46:08</time>
      </trkpt>
      <trkpt lat="42.15412" lon="0.85576">
        <ele>679.6</ele>
        <time>2022-05-23 08:46:09</time>
      </trkpt>
      <trkpt lat="42.15411" lon="0.85571">
        <ele>679.8</ele>
        <time>2022-05-23 08:46:10</time>
      </trkpt>
      <trkpt lat="42.15411" lon="0.85564">
        <ele>679.8</ele>
        <time>2022-05-23 08:46:11</time>
      </trkpt>
      <trkpt lat="42.15411" lon="0.85559">
        <ele>679.8</ele>
        <time>2022-05-23 08:46:12</time>
      </trkpt>
      <trkpt lat="42.15411" lon="0.85552">
        <ele>679.8</ele>
        <time>2022-05-23 08:46:13</time>
      </trkpt>
      <trkpt lat="42.1541" lon="0.85546">
        <ele>680</ele>
        <time>2022-05-23 08:46:14</time>
      </trkpt>
      <trkpt lat="42.1541" lon="0.8554">
        <ele>680</ele>
        <time>2022-05-23 08:46:15</time>
      </trkpt>
      <trkpt lat="42.15409" lon="0.85534">
        <ele>680</ele>
        <time>2022-05-23 08:46:16</time>
      </trkpt>
      <trkpt lat="42.15408" lon="0.85528">
        <ele>680.2</ele>
        <time>2022-05-23 08:46:17</time>
      </trkpt>
      <trkpt lat="42.15408" lon="0.85522">
        <ele>680.2</ele>
        <time>2022-05-23 08:46:18</time>
      </trkpt>
      <trkpt lat="42.15407" lon="0.85516">
        <ele>680.2</ele>
        <time>2022-05-23 08:46:19</time>
      </trkpt>
      <trkpt lat="42.15407" lon="0.85509">
        <ele>680.4</ele>
        <time>2022-05-23 08:46:20</time>
      </trkpt>
      <trkpt lat="42.15407" lon="0.85503">
        <ele>680.4</ele>
        <time>2022-05-23 08:46:21</time>
      </trkpt>
      <trkpt lat="42.15407" lon="0.85497">
        <ele>680.6</ele>
        <time>2022-05-23 08:46:22</time>
      </trkpt>
      <trkpt lat="42.15408" lon="0.85491">
        <ele>680.8</ele>
        <time>2022-05-23 08:46:23</time>
      </trkpt>
      <trkpt lat="42.15409" lon="0.85485">
        <ele>680.8</ele>
        <time>2022-05-23 08:46:24</time>
      </trkpt>
      <trkpt lat="42.1541" lon="0.85479">
        <ele>681</ele>
        <time>2022-05-23 08:46:25</time>
      </trkpt>
      <trkpt lat="42.15411" lon="0.85474">
        <ele>681.2</ele>
        <time>2022-05-23 08:46:26</time>
      </trkpt>
      <trkpt lat="42.15413" lon="0.85468">
        <ele>681.2</ele>
        <time>2022-05-23 08:46:27</time>
      </trkpt>
      <trkpt lat="42.15415" lon="0.85462">
        <ele>681.4</ele>
        <time>2022-05-23 08:46:28</time>
      </trkpt>
      <trkpt lat="42.15418" lon="0.85456">
        <ele>681.4</ele>
        <time>2022-05-23 08:46:29</time>
      </trkpt>
      <trkpt lat="42.1542" lon="0.85451">
        <ele>681.6</ele>
        <time>2022-05-23 08:46:30</time>
      </trkpt>
      <trkpt lat="42.15423" lon="0.85447">
        <ele>681.6</ele>
        <time>2022-05-23 08:46:31</time>
      </trkpt>
      <trkpt lat="42.15426" lon="0.8544">
        <ele>681.8</ele>
        <time>2022-05-23 08:46:32</time>
      </trkpt>
      <trkpt lat="42.15429" lon="0.85435">
        <ele>682</ele>
        <time>2022-05-23 08:46:33</time>
      </trkpt>
      <trkpt lat="42.15431" lon="0.8543">
        <ele>682</ele>
        <time>2022-05-23 08:46:34</time>
      </trkpt>
      <trkpt lat="42.15434" lon="0.85425">
        <ele>682</ele>
        <time>2022-05-23 08:46:35</time>
      </trkpt>
      <trkpt lat="42.15437" lon="0.85419">
        <ele>682.2</ele>
        <time>2022-05-23 08:46:36</time>
      </trkpt>
      <trkpt lat="42.15441" lon="0.85414">
        <ele>682.4</ele>
        <time>2022-05-23 08:46:37</time>
      </trkpt>
      <trkpt lat="42.15444" lon="0.85409">
        <ele>682.4</ele>
        <time>2022-05-23 08:46:38</time>
      </trkpt>
      <trkpt lat="42.15447" lon="0.85404">
        <ele>682.6</ele>
        <time>2022-05-23 08:46:39</time>
      </trkpt>
      <trkpt lat="42.1545" lon="0.85399">
        <ele>682.6</ele>
        <time>2022-05-23 08:46:40</time>
      </trkpt>
      <trkpt lat="42.15453" lon="0.85395">
        <ele>682.8</ele>
        <time>2022-05-23 08:46:41</time>
      </trkpt>
      <trkpt lat="42.15456" lon="0.85391">
        <ele>683</ele>
        <time>2022-05-23 08:46:42</time>
      </trkpt>
      <trkpt lat="42.1546" lon="0.85386">
        <ele>683.2</ele>
        <time>2022-05-23 08:46:43</time>
      </trkpt>
      <trkpt lat="42.15463" lon="0.85382">
        <ele>683.2</ele>
        <time>2022-05-23 08:46:44</time>
      </trkpt>
      <trkpt lat="42.15467" lon="0.85378">
        <ele>683.4</ele>
        <time>2022-05-23 08:46:45</time>
      </trkpt>
      <trkpt lat="42.1547" lon="0.85374">
        <ele>683.6</ele>
        <time>2022-05-23 08:46:46</time>
      </trkpt>
      <trkpt lat="42.15473" lon="0.8537">
        <ele>683.6</ele>
        <time>2022-05-23 08:46:47</time>
      </trkpt>
      <trkpt lat="42.15477" lon="0.85366">
        <ele>683.8</ele>
        <time>2022-05-23 08:46:48</time>
      </trkpt>
      <trkpt lat="42.1548" lon="0.85362">
        <ele>684</ele>
        <time>2022-05-23 08:46:49</time>
      </trkpt>
      <trkpt lat="42.15484" lon="0.85358">
        <ele>684</ele>
        <time>2022-05-23 08:46:50</time>
      </trkpt>
      <trkpt lat="42.15488" lon="0.85355">
        <ele>684.2</ele>
        <time>2022-05-23 08:46:51</time>
      </trkpt>
      <trkpt lat="42.15492" lon="0.85351">
        <ele>684.4</ele>
        <time>2022-05-23 08:46:52</time>
      </trkpt>
      <trkpt lat="42.15496" lon="0.85348">
        <ele>684.6</ele>
        <time>2022-05-23 08:46:53</time>
      </trkpt>
      <trkpt lat="42.15501" lon="0.85345">
        <ele>684.6</ele>
        <time>2022-05-23 08:46:54</time>
      </trkpt>
      <trkpt lat="42.15505" lon="0.85343">
        <ele>684.8</ele>
        <time>2022-05-23 08:46:55</time>
      </trkpt>
      <trkpt lat="42.1551" lon="0.8534">
        <ele>685</ele>
        <time>2022-05-23 08:46:56</time>
      </trkpt>
      <trkpt lat="42.15514" lon="0.85338">
        <ele>685</ele>
        <time>2022-05-23 08:46:57</time>
      </trkpt>
      <trkpt lat="42.15519" lon="0.85336">
        <ele>685.2</ele>
        <time>2022-05-23 08:46:58</time>
      </trkpt>
      <trkpt lat="42.15524" lon="0.85334">
        <ele>685.2</ele>
        <time>2022-05-23 08:46:59</time>
      </trkpt>
      <trkpt lat="42.15528" lon="0.85332">
        <ele>685.4</ele>
        <time>2022-05-23 08:47:00</time>
      </trkpt>
      <trkpt lat="42.15533" lon="0.85331">
        <ele>685.4</ele>
        <time>2022-05-23 08:47:01</time>
      </trkpt>
      <trkpt lat="42.15537" lon="0.85329">
        <ele>685.4</ele>
        <time>2022-05-23 08:47:02</time>
      </trkpt>
      <trkpt lat="42.15542" lon="0.85327">
        <ele>685.4</ele>
        <time>2022-05-23 08:47:03</time>
      </trkpt>
      <trkpt lat="42.15546" lon="0.85326">
        <ele>685.4</ele>
        <time>2022-05-23 08:47:04</time>
      </trkpt>
      <trkpt lat="42.1555" lon="0.85324">
        <ele>685.4</ele>
        <time>2022-05-23 08:47:05</time>
      </trkpt>
      <trkpt lat="42.15555" lon="0.85322">
        <ele>685.6</ele>
        <time>2022-05-23 08:47:06</time>
      </trkpt>
      <trkpt lat="42.15559" lon="0.8532">
        <ele>685.6</ele>
        <time>2022-05-23 08:47:07</time>
      </trkpt>
      <trkpt lat="42.15564" lon="0.85319">
        <ele>685.6</ele>
        <time>2022-05-23 08:47:08</time>
      </trkpt>
      <trkpt lat="42.15568" lon="0.85317">
        <ele>685.6</ele>
        <time>2022-05-23 08:47:09</time>
      </trkpt>
      <trkpt lat="42.15573" lon="0.85316">
        <ele>685.8</ele>
        <time>2022-05-23 08:47:10</time>
      </trkpt>
      <trkpt lat="42.15577" lon="0.85314">
        <ele>685.8</ele>
        <time>2022-05-23 08:47:11</time>
      </trkpt>
      <trkpt lat="42.15581" lon="0.85312">
        <ele>685.8</ele>
        <time>2022-05-23 08:47:12</time>
      </trkpt>
      <trkpt lat="42.15585" lon="0.85309">
        <ele>686</ele>
        <time>2022-05-23 08:47:13</time>
      </trkpt>
      <trkpt lat="42.15588" lon="0.85305">
        <ele>686.2</ele>
        <time>2022-05-23 08:47:14</time>
      </trkpt>
      <trkpt lat="42.15592" lon="0.85302">
        <ele>686.2</ele>
        <time>2022-05-23 08:47:15</time>
      </trkpt>
      <trkpt lat="42.15594" lon="0.85299">
        <ele>686.4</ele>
        <time>2022-05-23 08:47:16</time>
      </trkpt>
      <trkpt lat="42.15597" lon="0.85296">
        <ele>686.6</ele>
        <time>2022-05-23 08:47:17</time>
      </trkpt>
      <trkpt lat="42.15599" lon="0.85293">
        <ele>686.8</ele>
        <time>2022-05-23 08:47:18</time>
      </trkpt>
      <trkpt lat="42.15602" lon="0.85289">
        <ele>686.8</ele>
        <time>2022-05-23 08:47:19</time>
      </trkpt>
      <trkpt lat="42.15604" lon="0.85285">
        <ele>687</ele>
        <time>2022-05-23 08:47:20</time>
      </trkpt>
      <trkpt lat="42.15607" lon="0.85281">
        <ele>687.2</ele>
        <time>2022-05-23 08:47:21</time>
      </trkpt>
      <trkpt lat="42.15609" lon="0.85277">
        <ele>687.4</ele>
        <time>2022-05-23 08:47:22</time>
      </trkpt>
      <trkpt lat="42.15612" lon="0.85274">
        <ele>687.6</ele>
        <time>2022-05-23 08:47:23</time>
      </trkpt>
      <trkpt lat="42.15613" lon="0.8527">
        <ele>687.6</ele>
        <time>2022-05-23 08:47:24</time>
      </trkpt>
      <trkpt lat="42.15616" lon="0.85266">
        <ele>687.8</ele>
        <time>2022-05-23 08:47:25</time>
      </trkpt>
      <trkpt lat="42.15618" lon="0.85262">
        <ele>688</ele>
        <time>2022-05-23 08:47:26</time>
      </trkpt>
      <trkpt lat="42.1562" lon="0.85258">
        <ele>688.2</ele>
        <time>2022-05-23 08:47:27</time>
      </trkpt>
      <trkpt lat="42.15622" lon="0.85254">
        <ele>688.4</ele>
        <time>2022-05-23 08:47:28</time>
      </trkpt>
      <trkpt lat="42.15624" lon="0.85251">
        <ele>688.4</ele>
        <time>2022-05-23 08:47:29</time>
      </trkpt>
      <trkpt lat="42.15627" lon="0.85247">
        <ele>688.6</ele>
        <time>2022-05-23 08:47:30</time>
      </trkpt>
      <trkpt lat="42.15629" lon="0.85243">
        <ele>688.8</ele>
        <time>2022-05-23 08:47:31</time>
      </trkpt>
      <trkpt lat="42.1563" lon="0.8524">
        <ele>689</ele>
        <time>2022-05-23 08:47:32</time>
      </trkpt>
      <trkpt lat="42.15633" lon="0.85236">
        <ele>689</ele>
        <time>2022-05-23 08:47:33</time>
      </trkpt>
      <trkpt lat="42.15635" lon="0.85232">
        <ele>689.2</ele>
        <time>2022-05-23 08:47:34</time>
      </trkpt>
      <trkpt lat="42.15637" lon="0.85229">
        <ele>689.4</ele>
        <time>2022-05-23 08:47:35</time>
      </trkpt>
      <trkpt lat="42.15638" lon="0.85225">
        <ele>689.6</ele>
        <time>2022-05-23 08:47:36</time>
      </trkpt>
      <trkpt lat="42.15641" lon="0.85221">
        <ele>689.6</ele>
        <time>2022-05-23 08:47:37</time>
      </trkpt>
      <trkpt lat="42.15642" lon="0.85218">
        <ele>689.8</ele>
        <time>2022-05-23 08:47:38</time>
      </trkpt>
      <trkpt lat="42.15644" lon="0.85214">
        <ele>690</ele>
        <time>2022-05-23 08:47:39</time>
      </trkpt>
      <trkpt lat="42.15646" lon="0.8521">
        <ele>690.2</ele>
        <time>2022-05-23 08:47:40</time>
      </trkpt>
      <trkpt lat="42.15648" lon="0.85207">
        <ele>690.4</ele>
        <time>2022-05-23 08:47:41</time>
      </trkpt>
      <trkpt lat="42.1565" lon="0.85203">
        <ele>690.4</ele>
        <time>2022-05-23 08:47:42</time>
      </trkpt>
      <trkpt lat="42.15652" lon="0.85199">
        <ele>690.6</ele>
        <time>2022-05-23 08:47:43</time>
      </trkpt>
      <trkpt lat="42.15654" lon="0.85196">
        <ele>690.6</ele>
        <time>2022-05-23 08:47:44</time>
      </trkpt>
      <trkpt lat="42.15657" lon="0.85193">
        <ele>690.8</ele>
        <time>2022-05-23 08:47:45</time>
      </trkpt>
      <trkpt lat="42.15659" lon="0.85189">
        <ele>691</ele>
        <time>2022-05-23 08:47:46</time>
      </trkpt>
      <trkpt lat="42.15662" lon="0.85186">
        <ele>691</ele>
        <time>2022-05-23 08:47:47</time>
      </trkpt>
      <trkpt lat="42.15664" lon="0.85182">
        <ele>691.2</ele>
        <time>2022-05-23 08:47:48</time>
      </trkpt>
      <trkpt lat="42.15666" lon="0.85179">
        <ele>691.4</ele>
        <time>2022-05-23 08:47:49</time>
      </trkpt>
      <trkpt lat="42.15669" lon="0.85176">
        <ele>691.4</ele>
        <time>2022-05-23 08:47:50</time>
      </trkpt>
      <trkpt lat="42.15671" lon="0.85173">
        <ele>691.6</ele>
        <time>2022-05-23 08:47:51</time>
      </trkpt>
      <trkpt lat="42.15674" lon="0.85169">
        <ele>691.8</ele>
        <time>2022-05-23 08:47:52</time>
      </trkpt>
      <trkpt lat="42.15676" lon="0.85166">
        <ele>692</ele>
        <time>2022-05-23 08:47:53</time>
      </trkpt>
      <trkpt lat="42.15678" lon="0.85163">
        <ele>692</ele>
        <time>2022-05-23 08:47:54</time>
      </trkpt>
      <trkpt lat="42.15681" lon="0.85159">
        <ele>692.2</ele>
        <time>2022-05-23 08:47:55</time>
      </trkpt>
      <trkpt lat="42.15684" lon="0.85157">
        <ele>692.4</ele>
        <time>2022-05-23 08:47:56</time>
      </trkpt>
      <trkpt lat="42.15687" lon="0.85154">
        <ele>692.4</ele>
        <time>2022-05-23 08:47:57</time>
      </trkpt>
      <trkpt lat="42.1569" lon="0.85151">
        <ele>692.6</ele>
        <time>2022-05-23 08:47:58</time>
      </trkpt>
      <trkpt lat="42.15692" lon="0.85148">
        <ele>692.6</ele>
        <time>2022-05-23 08:47:59</time>
      </trkpt>
      <trkpt lat="42.15695" lon="0.85145">
        <ele>692.8</ele>
        <time>2022-05-23 08:48:00</time>
      </trkpt>
      <trkpt lat="42.15698" lon="0.85141">
        <ele>693</ele>
        <time>2022-05-23 08:48:01</time>
      </trkpt>
      <trkpt lat="42.157" lon="0.85138">
        <ele>693</ele>
        <time>2022-05-23 08:48:02</time>
      </trkpt>
      <trkpt lat="42.15703" lon="0.85134">
        <ele>693.2</ele>
        <time>2022-05-23 08:48:03</time>
      </trkpt>
      <trkpt lat="42.15706" lon="0.85131">
        <ele>693.4</ele>
        <time>2022-05-23 08:48:04</time>
      </trkpt>
      <trkpt lat="42.15709" lon="0.85127">
        <ele>693.4</ele>
        <time>2022-05-23 08:48:05</time>
      </trkpt>
      <trkpt lat="42.15712" lon="0.85124">
        <ele>693.6</ele>
        <time>2022-05-23 08:48:06</time>
      </trkpt>
      <trkpt lat="42.15715" lon="0.8512">
        <ele>693.8</ele>
        <time>2022-05-23 08:48:07</time>
      </trkpt>
      <trkpt lat="42.15717" lon="0.85117">
        <ele>694</ele>
        <time>2022-05-23 08:48:08</time>
      </trkpt>
      <trkpt lat="42.15721" lon="0.85113">
        <ele>694.2</ele>
        <time>2022-05-23 08:48:09</time>
      </trkpt>
      <trkpt lat="42.15724" lon="0.85109">
        <ele>694.4</ele>
        <time>2022-05-23 08:48:10</time>
      </trkpt>
      <trkpt lat="42.15726" lon="0.85106">
        <ele>694.6</ele>
        <time>2022-05-23 08:48:11</time>
      </trkpt>
      <trkpt lat="42.15729" lon="0.85102">
        <ele>694.8</ele>
        <time>2022-05-23 08:48:12</time>
      </trkpt>
      <trkpt lat="42.15732" lon="0.85098">
        <ele>695</ele>
        <time>2022-05-23 08:48:13</time>
      </trkpt>
      <trkpt lat="42.15735" lon="0.85094">
        <ele>695</ele>
        <time>2022-05-23 08:48:14</time>
      </trkpt>
      <trkpt lat="42.15738" lon="0.85091">
        <ele>695.2</ele>
        <time>2022-05-23 08:48:15</time>
      </trkpt>
      <trkpt lat="42.15741" lon="0.85087">
        <ele>695.4</ele>
        <time>2022-05-23 08:48:16</time>
      </trkpt>
      <trkpt lat="42.15744" lon="0.85083">
        <ele>695.4</ele>
        <time>2022-05-23 08:48:17</time>
      </trkpt>
      <trkpt lat="42.15747" lon="0.85079">
        <ele>695.6</ele>
        <time>2022-05-23 08:48:18</time>
      </trkpt>
      <trkpt lat="42.15749" lon="0.85074">
        <ele>695.8</ele>
        <time>2022-05-23 08:48:19</time>
      </trkpt>
      <trkpt lat="42.15752" lon="0.8507">
        <ele>696</ele>
        <time>2022-05-23 08:48:20</time>
      </trkpt>
      <trkpt lat="42.15754" lon="0.85065">
        <ele>696.2</ele>
        <time>2022-05-23 08:48:21</time>
      </trkpt>
      <trkpt lat="42.15757" lon="0.85061">
        <ele>696.4</ele>
        <time>2022-05-23 08:48:22</time>
      </trkpt>
      <trkpt lat="42.15759" lon="0.85056">
        <ele>696.6</ele>
        <time>2022-05-23 08:48:23</time>
      </trkpt>
      <trkpt lat="42.1576" lon="0.85051">
        <ele>696.8</ele>
        <time>2022-05-23 08:48:24</time>
      </trkpt>
      <trkpt lat="42.15762" lon="0.85046">
        <ele>697.2</ele>
        <time>2022-05-23 08:48:25</time>
      </trkpt>
      <trkpt lat="42.15763" lon="0.85042">
        <ele>697.4</ele>
        <time>2022-05-23 08:48:26</time>
      </trkpt>
      <trkpt lat="42.15764" lon="0.85037">
        <ele>697.6</ele>
        <time>2022-05-23 08:48:27</time>
      </trkpt>
      <trkpt lat="42.15765" lon="0.85033">
        <ele>697.8</ele>
        <time>2022-05-23 08:48:28</time>
      </trkpt>
      <trkpt lat="42.15766" lon="0.85028">
        <ele>698</ele>
        <time>2022-05-23 08:48:29</time>
      </trkpt>
      <trkpt lat="42.15767" lon="0.85024">
        <ele>698.2</ele>
        <time>2022-05-23 08:48:30</time>
      </trkpt>
      <trkpt lat="42.15767" lon="0.85019">
        <ele>698.4</ele>
        <time>2022-05-23 08:48:31</time>
      </trkpt>
      <trkpt lat="42.15768" lon="0.85014">
        <ele>698.6</ele>
        <time>2022-05-23 08:48:32</time>
      </trkpt>
      <trkpt lat="42.15769" lon="0.8501">
        <ele>698.8</ele>
        <time>2022-05-23 08:48:33</time>
      </trkpt>
      <trkpt lat="42.15769" lon="0.85005">
        <ele>699</ele>
        <time>2022-05-23 08:48:34</time>
      </trkpt>
      <trkpt lat="42.15769" lon="0.85">
        <ele>699</ele>
        <time>2022-05-23 08:48:35</time>
      </trkpt>
      <trkpt lat="42.1577" lon="0.84995">
        <ele>699.2</ele>
        <time>2022-05-23 08:48:36</time>
      </trkpt>
      <trkpt lat="42.1577" lon="0.8499">
        <ele>699.4</ele>
        <time>2022-05-23 08:48:37</time>
      </trkpt>
      <trkpt lat="42.1577" lon="0.84985">
        <ele>699.6</ele>
        <time>2022-05-23 08:48:38</time>
      </trkpt>
      <trkpt lat="42.1577" lon="0.8498">
        <ele>699.8</ele>
        <time>2022-05-23 08:48:39</time>
      </trkpt>
      <trkpt lat="42.1577" lon="0.84974">
        <ele>700</ele>
        <time>2022-05-23 08:48:40</time>
      </trkpt>
      <trkpt lat="42.15771" lon="0.84969">
        <ele>700.2</ele>
        <time>2022-05-23 08:48:41</time>
      </trkpt>
      <trkpt lat="42.15771" lon="0.84964">
        <ele>700.4</ele>
        <time>2022-05-23 08:48:42</time>
      </trkpt>
      <trkpt lat="42.15771" lon="0.84959">
        <ele>700.6</ele>
        <time>2022-05-23 08:48:43</time>
      </trkpt>
      <trkpt lat="42.15771" lon="0.84954">
        <ele>700.8</ele>
        <time>2022-05-23 08:48:44</time>
      </trkpt>
      <trkpt lat="42.15772" lon="0.84949">
        <ele>701</ele>
        <time>2022-05-23 08:48:45</time>
      </trkpt>
      <trkpt lat="42.15772" lon="0.84943">
        <ele>701.2</ele>
        <time>2022-05-23 08:48:46</time>
      </trkpt>
      <trkpt lat="42.15772" lon="0.84938">
        <ele>701.4</ele>
        <time>2022-05-23 08:48:47</time>
      </trkpt>
      <trkpt lat="42.15773" lon="0.84933">
        <ele>701.4</ele>
        <time>2022-05-23 08:48:48</time>
      </trkpt>
      <trkpt lat="42.15773" lon="0.84928">
        <ele>701.6</ele>
        <time>2022-05-23 08:48:49</time>
      </trkpt>
      <trkpt lat="42.15773" lon="0.84923">
        <ele>701.8</ele>
        <time>2022-05-23 08:48:50</time>
      </trkpt>
      <trkpt lat="42.15773" lon="0.84918">
        <ele>702</ele>
        <time>2022-05-23 08:48:51</time>
      </trkpt>
      <trkpt lat="42.15773" lon="0.84912">
        <ele>702.2</ele>
        <time>2022-05-23 08:48:52</time>
      </trkpt>
      <trkpt lat="42.15773" lon="0.84907">
        <ele>702.4</ele>
        <time>2022-05-23 08:48:53</time>
      </trkpt>
      <trkpt lat="42.15773" lon="0.84902">
        <ele>702.6</ele>
        <time>2022-05-23 08:48:54</time>
      </trkpt>
      <trkpt lat="42.15774" lon="0.84897">
        <ele>702.8</ele>
        <time>2022-05-23 08:48:55</time>
      </trkpt>
      <trkpt lat="42.15774" lon="0.84892">
        <ele>703</ele>
        <time>2022-05-23 08:48:56</time>
      </trkpt>
      <trkpt lat="42.15775" lon="0.84887">
        <ele>703.2</ele>
        <time>2022-05-23 08:48:57</time>
      </trkpt>
      <trkpt lat="42.15775" lon="0.84883">
        <ele>703.4</ele>
        <time>2022-05-23 08:48:58</time>
      </trkpt>
      <trkpt lat="42.15775" lon="0.84877">
        <ele>703.6</ele>
        <time>2022-05-23 08:48:59</time>
      </trkpt>
      <trkpt lat="42.15775" lon="0.84872">
        <ele>703.6</ele>
        <time>2022-05-23 08:49:00</time>
      </trkpt>
      <trkpt lat="42.15775" lon="0.84867">
        <ele>704</ele>
        <time>2022-05-23 08:49:01</time>
      </trkpt>
      <trkpt lat="42.15776" lon="0.84862">
        <ele>704.2</ele>
        <time>2022-05-23 08:49:02</time>
      </trkpt>
      <trkpt lat="42.15776" lon="0.84858">
        <ele>704.4</ele>
        <time>2022-05-23 08:49:03</time>
      </trkpt>
      <trkpt lat="42.15776" lon="0.84853">
        <ele>704.4</ele>
        <time>2022-05-23 08:49:04</time>
      </trkpt>
      <trkpt lat="42.15776" lon="0.84848">
        <ele>704.6</ele>
        <time>2022-05-23 08:49:05</time>
      </trkpt>
      <trkpt lat="42.15776" lon="0.84843">
        <ele>704.8</ele>
        <time>2022-05-23 08:49:06</time>
      </trkpt>
      <trkpt lat="42.15777" lon="0.84838">
        <ele>705</ele>
        <time>2022-05-23 08:49:07</time>
      </trkpt>
      <trkpt lat="42.15778" lon="0.84833">
        <ele>705.2</ele>
        <time>2022-05-23 08:49:08</time>
      </trkpt>
      <trkpt lat="42.15778" lon="0.84828">
        <ele>705.4</ele>
        <time>2022-05-23 08:49:09</time>
      </trkpt>
      <trkpt lat="42.15778" lon="0.84824">
        <ele>705.6</ele>
        <time>2022-05-23 08:49:10</time>
      </trkpt>
      <trkpt lat="42.15778" lon="0.84819">
        <ele>705.8</ele>
        <time>2022-05-23 08:49:11</time>
      </trkpt>
      <trkpt lat="42.15778" lon="0.84815">
        <ele>706</ele>
        <time>2022-05-23 08:49:12</time>
      </trkpt>
      <trkpt lat="42.15778" lon="0.8481">
        <ele>706.2</ele>
        <time>2022-05-23 08:49:13</time>
      </trkpt>
      <trkpt lat="42.15779" lon="0.84805">
        <ele>706.4</ele>
        <time>2022-05-23 08:49:14</time>
      </trkpt>
      <trkpt lat="42.15779" lon="0.848">
        <ele>706.6</ele>
        <time>2022-05-23 08:49:15</time>
      </trkpt>
      <trkpt lat="42.15779" lon="0.84796">
        <ele>706.8</ele>
        <time>2022-05-23 08:49:16</time>
      </trkpt>
      <trkpt lat="42.15779" lon="0.84791">
        <ele>707</ele>
        <time>2022-05-23 08:49:17</time>
      </trkpt>
      <trkpt lat="42.15779" lon="0.84787">
        <ele>707.2</ele>
        <time>2022-05-23 08:49:18</time>
      </trkpt>
      <trkpt lat="42.15779" lon="0.84782">
        <ele>707.4</ele>
        <time>2022-05-23 08:49:19</time>
      </trkpt>
      <trkpt lat="42.15779" lon="0.84778">
        <ele>707.6</ele>
        <time>2022-05-23 08:49:20</time>
      </trkpt>
      <trkpt lat="42.15779" lon="0.84773">
        <ele>707.6</ele>
        <time>2022-05-23 08:49:21</time>
      </trkpt>
      <trkpt lat="42.15779" lon="0.84768">
        <ele>707.8</ele>
        <time>2022-05-23 08:49:22</time>
      </trkpt>
      <trkpt lat="42.15779" lon="0.84763">
        <ele>708</ele>
        <time>2022-05-23 08:49:23</time>
      </trkpt>
      <trkpt lat="42.15779" lon="0.84759">
        <ele>708.2</ele>
        <time>2022-05-23 08:49:24</time>
      </trkpt>
      <trkpt lat="42.15779" lon="0.84754">
        <ele>708.4</ele>
        <time>2022-05-23 08:49:25</time>
      </trkpt>
      <trkpt lat="42.15779" lon="0.84749">
        <ele>708.6</ele>
        <time>2022-05-23 08:49:26</time>
      </trkpt>
      <trkpt lat="42.15779" lon="0.84744">
        <ele>708.8</ele>
        <time>2022-05-23 08:49:27</time>
      </trkpt>
      <trkpt lat="42.15778" lon="0.8474">
        <ele>709</ele>
        <time>2022-05-23 08:49:28</time>
      </trkpt>
      <trkpt lat="42.15778" lon="0.84735">
        <ele>709.2</ele>
        <time>2022-05-23 08:49:29</time>
      </trkpt>
      <trkpt lat="42.15777" lon="0.84731">
        <ele>709.4</ele>
        <time>2022-05-23 08:49:30</time>
      </trkpt>
      <trkpt lat="42.15776" lon="0.84727">
        <ele>709.6</ele>
        <time>2022-05-23 08:49:31</time>
      </trkpt>
      <trkpt lat="42.15776" lon="0.84722">
        <ele>709.8</ele>
        <time>2022-05-23 08:49:32</time>
      </trkpt>
      <trkpt lat="42.15775" lon="0.84718">
        <ele>710</ele>
        <time>2022-05-23 08:49:33</time>
      </trkpt>
      <trkpt lat="42.15774" lon="0.84714">
        <ele>710.2</ele>
        <time>2022-05-23 08:49:34</time>
      </trkpt>
      <trkpt lat="42.15774" lon="0.84709">
        <ele>710.4</ele>
        <time>2022-05-23 08:49:35</time>
      </trkpt>
      <trkpt lat="42.15773" lon="0.84705">
        <ele>710.6</ele>
        <time>2022-05-23 08:49:36</time>
      </trkpt>
      <trkpt lat="42.15772" lon="0.84701">
        <ele>710.8</ele>
        <time>2022-05-23 08:49:37</time>
      </trkpt>
      <trkpt lat="42.15771" lon="0.84697">
        <ele>711</ele>
        <time>2022-05-23 08:49:38</time>
      </trkpt>
      <trkpt lat="42.15771" lon="0.84692">
        <ele>711.2</ele>
        <time>2022-05-23 08:49:39</time>
      </trkpt>
      <trkpt lat="42.1577" lon="0.84688">
        <ele>711.4</ele>
        <time>2022-05-23 08:49:40</time>
      </trkpt>
      <trkpt lat="42.15769" lon="0.84683">
        <ele>711.6</ele>
        <time>2022-05-23 08:49:41</time>
      </trkpt>
      <trkpt lat="42.15768" lon="0.84679">
        <ele>711.8</ele>
        <time>2022-05-23 08:49:42</time>
      </trkpt>
      <trkpt lat="42.15767" lon="0.84674">
        <ele>712</ele>
        <time>2022-05-23 08:49:43</time>
      </trkpt>
      <trkpt lat="42.15766" lon="0.8467">
        <ele>712.2</ele>
        <time>2022-05-23 08:49:44</time>
      </trkpt>
      <trkpt lat="42.15766" lon="0.84665">
        <ele>712.4</ele>
        <time>2022-05-23 08:49:45</time>
      </trkpt>
      <trkpt lat="42.15765" lon="0.8466">
        <ele>712.6</ele>
        <time>2022-05-23 08:49:46</time>
      </trkpt>
      <trkpt lat="42.15765" lon="0.84656">
        <ele>712.8</ele>
        <time>2022-05-23 08:49:47</time>
      </trkpt>
      <trkpt lat="42.15765" lon="0.84651">
        <ele>713</ele>
        <time>2022-05-23 08:49:48</time>
      </trkpt>
      <trkpt lat="42.15764" lon="0.84646">
        <ele>713</ele>
        <time>2022-05-23 08:49:49</time>
      </trkpt>
      <trkpt lat="42.15764" lon="0.84641">
        <ele>713.2</ele>
        <time>2022-05-23 08:49:50</time>
      </trkpt>
      <trkpt lat="42.15763" lon="0.84636">
        <ele>713.4</ele>
        <time>2022-05-23 08:49:51</time>
      </trkpt>
      <trkpt lat="42.15763" lon="0.84631">
        <ele>713.4</ele>
        <time>2022-05-23 08:49:52</time>
      </trkpt>
      <trkpt lat="42.15763" lon="0.84625">
        <ele>713.4</ele>
        <time>2022-05-23 08:49:53</time>
      </trkpt>
      <trkpt lat="42.15762" lon="0.84619">
        <ele>713.4</ele>
        <time>2022-05-23 08:49:54</time>
      </trkpt>
      <trkpt lat="42.15762" lon="0.84612">
        <ele>713.4</ele>
        <time>2022-05-23 08:49:55</time>
      </trkpt>
      <trkpt lat="42.15761" lon="0.84606">
        <ele>713.4</ele>
        <time>2022-05-23 08:49:56</time>
      </trkpt>
      <trkpt lat="42.15761" lon="0.84599">
        <ele>713.2</ele>
        <time>2022-05-23 08:49:57</time>
      </trkpt>
      <trkpt lat="42.15761" lon="0.84591">
        <ele>713</ele>
        <time>2022-05-23 08:49:58</time>
      </trkpt>
      <trkpt lat="42.15761" lon="0.84583">
        <ele>713</ele>
        <time>2022-05-23 08:49:59</time>
      </trkpt>
      <trkpt lat="42.15761" lon="0.84575">
        <ele>712.8</ele>
        <time>2022-05-23 08:50:00</time>
      </trkpt>
      <trkpt lat="42.15761" lon="0.84567">
        <ele>712.8</ele>
        <time>2022-05-23 08:50:01</time>
      </trkpt>
      <trkpt lat="42.15761" lon="0.84559">
        <ele>712.6</ele>
        <time>2022-05-23 08:50:02</time>
      </trkpt>
      <trkpt lat="42.15761" lon="0.84551">
        <ele>712.6</ele>
        <time>2022-05-23 08:50:03</time>
      </trkpt>
      <trkpt lat="42.15761" lon="0.84543">
        <ele>712.6</ele>
        <time>2022-05-23 08:50:04</time>
      </trkpt>
      <trkpt lat="42.15761" lon="0.84535">
        <ele>712.4</ele>
        <time>2022-05-23 08:50:05</time>
      </trkpt>
      <trkpt lat="42.15761" lon="0.84527">
        <ele>712.4</ele>
        <time>2022-05-23 08:50:06</time>
      </trkpt>
      <trkpt lat="42.15761" lon="0.8452">
        <ele>712.4</ele>
        <time>2022-05-23 08:50:07</time>
      </trkpt>
      <trkpt lat="42.15761" lon="0.84511">
        <ele>712.2</ele>
        <time>2022-05-23 08:50:08</time>
      </trkpt>
      <trkpt lat="42.15761" lon="0.84504">
        <ele>712.2</ele>
        <time>2022-05-23 08:50:09</time>
      </trkpt>
      <trkpt lat="42.15761" lon="0.84496">
        <ele>712</ele>
        <time>2022-05-23 08:50:10</time>
      </trkpt>
      <trkpt lat="42.1576" lon="0.84488">
        <ele>712</ele>
        <time>2022-05-23 08:50:11</time>
      </trkpt>
      <trkpt lat="42.1576" lon="0.84479">
        <ele>711.8</ele>
        <time>2022-05-23 08:50:12</time>
      </trkpt>
      <trkpt lat="42.1576" lon="0.84471">
        <ele>711.6</ele>
        <time>2022-05-23 08:50:13</time>
      </trkpt>
      <trkpt lat="42.1576" lon="0.84462">
        <ele>711.6</ele>
        <time>2022-05-23 08:50:14</time>
      </trkpt>
      <trkpt lat="42.1576" lon="0.84453">
        <ele>711.4</ele>
        <time>2022-05-23 08:50:15</time>
      </trkpt>
      <trkpt lat="42.1576" lon="0.84445">
        <ele>711.2</ele>
        <time>2022-05-23 08:50:16</time>
      </trkpt>
      <trkpt lat="42.1576" lon="0.84436">
        <ele>711.2</ele>
        <time>2022-05-23 08:50:17</time>
      </trkpt>
      <trkpt lat="42.15759" lon="0.84427">
        <ele>711</ele>
        <time>2022-05-23 08:50:18</time>
      </trkpt>
      <trkpt lat="42.15759" lon="0.84418">
        <ele>710.8</ele>
        <time>2022-05-23 08:50:19</time>
      </trkpt>
      <trkpt lat="42.15759" lon="0.84409">
        <ele>710.6</ele>
        <time>2022-05-23 08:50:20</time>
      </trkpt>
      <trkpt lat="42.15759" lon="0.84399">
        <ele>710.4</ele>
        <time>2022-05-23 08:50:21</time>
      </trkpt>
      <trkpt lat="42.15759" lon="0.84389">
        <ele>710</ele>
        <time>2022-05-23 08:50:22</time>
      </trkpt>
      <trkpt lat="42.15758" lon="0.84378">
        <ele>709.8</ele>
        <time>2022-05-23 08:50:23</time>
      </trkpt>
      <trkpt lat="42.15758" lon="0.84366">
        <ele>709.6</ele>
        <time>2022-05-23 08:50:24</time>
      </trkpt>
      <trkpt lat="42.15758" lon="0.84355">
        <ele>709.2</ele>
        <time>2022-05-23 08:50:25</time>
      </trkpt>
      <trkpt lat="42.15757" lon="0.84343">
        <ele>708.8</ele>
        <time>2022-05-23 08:50:26</time>
      </trkpt>
      <trkpt lat="42.15757" lon="0.84331">
        <ele>708.2</ele>
        <time>2022-05-23 08:50:27</time>
      </trkpt>
      <trkpt lat="42.15756" lon="0.84318">
        <ele>707.8</ele>
        <time>2022-05-23 08:50:28</time>
      </trkpt>
      <trkpt lat="42.15755" lon="0.84305">
        <ele>707.2</ele>
        <time>2022-05-23 08:50:29</time>
      </trkpt>
      <trkpt lat="42.15754" lon="0.84292">
        <ele>706.6</ele>
        <time>2022-05-23 08:50:30</time>
      </trkpt>
      <trkpt lat="42.15754" lon="0.84278">
        <ele>705.8</ele>
        <time>2022-05-23 08:50:31</time>
      </trkpt>
      <trkpt lat="42.15753" lon="0.84264">
        <ele>705.2</ele>
        <time>2022-05-23 08:50:32</time>
      </trkpt>
      <trkpt lat="42.15752" lon="0.8425">
        <ele>704.4</ele>
        <time>2022-05-23 08:50:33</time>
      </trkpt>
      <trkpt lat="42.15752" lon="0.84235">
        <ele>703.6</ele>
        <time>2022-05-23 08:50:34</time>
      </trkpt>
      <trkpt lat="42.1575" lon="0.8422">
        <ele>702.8</ele>
        <time>2022-05-23 08:50:35</time>
      </trkpt>
      <trkpt lat="42.15749" lon="0.84205">
        <ele>702</ele>
        <time>2022-05-23 08:50:36</time>
      </trkpt>
      <trkpt lat="42.15747" lon="0.84189">
        <ele>701.2</ele>
        <time>2022-05-23 08:50:37</time>
      </trkpt>
      <trkpt lat="42.15744" lon="0.84174">
        <ele>700.4</ele>
        <time>2022-05-23 08:50:38</time>
      </trkpt>
      <trkpt lat="42.1574" lon="0.8416">
        <ele>699.4</ele>
        <time>2022-05-23 08:50:39</time>
      </trkpt>
      <trkpt lat="42.15735" lon="0.84145">
        <ele>698.8</ele>
        <time>2022-05-23 08:50:40</time>
      </trkpt>
      <trkpt lat="42.1573" lon="0.84131">
        <ele>698</ele>
        <time>2022-05-23 08:50:41</time>
      </trkpt>
      <trkpt lat="42.15725" lon="0.84115">
        <ele>697</ele>
        <time>2022-05-23 08:50:42</time>
      </trkpt>
      <trkpt lat="42.1572" lon="0.841">
        <ele>696.2</ele>
        <time>2022-05-23 08:50:43</time>
      </trkpt>
      <trkpt lat="42.15717" lon="0.84084">
        <ele>695.2</ele>
        <time>2022-05-23 08:50:44</time>
      </trkpt>
      <trkpt lat="42.15715" lon="0.84069">
        <ele>694.4</ele>
        <time>2022-05-23 08:50:45</time>
      </trkpt>
      <trkpt lat="42.15715" lon="0.8405">
        <ele>693.6</ele>
        <time>2022-05-23 08:50:46</time>
      </trkpt>
      <trkpt lat="42.15717" lon="0.84034">
        <ele>693</ele>
        <time>2022-05-23 08:50:47</time>
      </trkpt>
      <trkpt lat="42.15722" lon="0.84018">
        <ele>692.4</ele>
        <time>2022-05-23 08:50:48</time>
      </trkpt>
      <trkpt lat="42.15728" lon="0.84003">
        <ele>691.8</ele>
        <time>2022-05-23 08:50:49</time>
      </trkpt>
      <trkpt lat="42.15734" lon="0.8399">
        <ele>691.4</ele>
        <time>2022-05-23 08:50:50</time>
      </trkpt>
      <trkpt lat="42.15741" lon="0.83975">
        <ele>690.8</ele>
        <time>2022-05-23 08:50:51</time>
      </trkpt>
      <trkpt lat="42.15747" lon="0.83961">
        <ele>690.4</ele>
        <time>2022-05-23 08:50:52</time>
      </trkpt>
      <trkpt lat="42.15753" lon="0.83948">
        <ele>690</ele>
        <time>2022-05-23 08:50:53</time>
      </trkpt>
      <trkpt lat="42.15758" lon="0.83933">
        <ele>689.8</ele>
        <time>2022-05-23 08:50:54</time>
      </trkpt>
      <trkpt lat="42.15762" lon="0.83919">
        <ele>689.4</ele>
        <time>2022-05-23 08:50:55</time>
      </trkpt>
      <trkpt lat="42.15765" lon="0.83904">
        <ele>689</ele>
        <time>2022-05-23 08:50:56</time>
      </trkpt>
      <trkpt lat="42.15767" lon="0.83889">
        <ele>688.6</ele>
        <time>2022-05-23 08:50:57</time>
      </trkpt>
      <trkpt lat="42.15767" lon="0.83874">
        <ele>688.4</ele>
        <time>2022-05-23 08:50:58</time>
      </trkpt>
      <trkpt lat="42.15766" lon="0.83859">
        <ele>688</ele>
        <time>2022-05-23 08:50:59</time>
      </trkpt>
      <trkpt lat="42.15764" lon="0.83845">
        <ele>687.8</ele>
        <time>2022-05-23 08:51:00</time>
      </trkpt>
      <trkpt lat="42.15762" lon="0.83831">
        <ele>687.8</ele>
        <time>2022-05-23 08:51:01</time>
      </trkpt>
      <trkpt lat="42.1576" lon="0.83817">
        <ele>687.6</ele>
        <time>2022-05-23 08:51:02</time>
      </trkpt>
      <trkpt lat="42.15758" lon="0.83804">
        <ele>687.6</ele>
        <time>2022-05-23 08:51:03</time>
      </trkpt>
      <trkpt lat="42.15757" lon="0.83791">
        <ele>687.6</ele>
        <time>2022-05-23 08:51:04</time>
      </trkpt>
      <trkpt lat="42.15756" lon="0.83779">
        <ele>687.6</ele>
        <time>2022-05-23 08:51:05</time>
      </trkpt>
      <trkpt lat="42.15754" lon="0.83767">
        <ele>687.6</ele>
        <time>2022-05-23 08:51:06</time>
      </trkpt>
      <trkpt lat="42.15753" lon="0.83755">
        <ele>687.6</ele>
        <time>2022-05-23 08:51:07</time>
      </trkpt>
      <trkpt lat="42.15752" lon="0.83743">
        <ele>687.6</ele>
        <time>2022-05-23 08:51:08</time>
      </trkpt>
      <trkpt lat="42.15752" lon="0.83733">
        <ele>687.4</ele>
        <time>2022-05-23 08:51:09</time>
      </trkpt>
      <trkpt lat="42.15753" lon="0.8372">
        <ele>687.4</ele>
        <time>2022-05-23 08:51:10</time>
      </trkpt>
      <trkpt lat="42.15755" lon="0.8371">
        <ele>687.4</ele>
        <time>2022-05-23 08:51:11</time>
      </trkpt>
      <trkpt lat="42.15758" lon="0.83701">
        <ele>687.4</ele>
        <time>2022-05-23 08:51:12</time>
      </trkpt>
      <trkpt lat="42.15763" lon="0.83691">
        <ele>687.4</ele>
        <time>2022-05-23 08:51:13</time>
      </trkpt>
      <trkpt lat="42.15768" lon="0.83682">
        <ele>687.4</ele>
        <time>2022-05-23 08:51:14</time>
      </trkpt>
      <trkpt lat="42.15773" lon="0.83674">
        <ele>687.4</ele>
        <time>2022-05-23 08:51:15</time>
      </trkpt>
      <trkpt lat="42.15778" lon="0.83666">
        <ele>687.2</ele>
        <time>2022-05-23 08:51:16</time>
      </trkpt>
      <trkpt lat="42.15783" lon="0.83658">
        <ele>687.2</ele>
        <time>2022-05-23 08:51:17</time>
      </trkpt>
      <trkpt lat="42.15788" lon="0.8365">
        <ele>687.2</ele>
        <time>2022-05-23 08:51:18</time>
      </trkpt>
      <trkpt lat="42.15793" lon="0.83642">
        <ele>687.2</ele>
        <time>2022-05-23 08:51:19</time>
      </trkpt>
      <trkpt lat="42.15798" lon="0.83633">
        <ele>687.2</ele>
        <time>2022-05-23 08:51:20</time>
      </trkpt>
      <trkpt lat="42.15801" lon="0.83625">
        <ele>687.2</ele>
        <time>2022-05-23 08:51:21</time>
      </trkpt>
      <trkpt lat="42.15805" lon="0.83617">
        <ele>687.4</ele>
        <time>2022-05-23 08:51:22</time>
      </trkpt>
      <trkpt lat="42.15808" lon="0.83608">
        <ele>687.4</ele>
        <time>2022-05-23 08:51:23</time>
      </trkpt>
      <trkpt lat="42.1581" lon="0.83598">
        <ele>687.4</ele>
        <time>2022-05-23 08:51:24</time>
      </trkpt>
      <trkpt lat="42.15811" lon="0.83589">
        <ele>687.6</ele>
        <time>2022-05-23 08:51:25</time>
      </trkpt>
      <trkpt lat="42.15811" lon="0.83581">
        <ele>687.8</ele>
        <time>2022-05-23 08:51:26</time>
      </trkpt>
      <trkpt lat="42.15811" lon="0.83572">
        <ele>688</ele>
        <time>2022-05-23 08:51:27</time>
      </trkpt>
      <trkpt lat="42.15811" lon="0.83564">
        <ele>688.2</ele>
        <time>2022-05-23 08:51:28</time>
      </trkpt>
      <trkpt lat="42.1581" lon="0.83555">
        <ele>688.4</ele>
        <time>2022-05-23 08:51:29</time>
      </trkpt>
      <trkpt lat="42.15809" lon="0.83548">
        <ele>688.6</ele>
        <time>2022-05-23 08:51:30</time>
      </trkpt>
      <trkpt lat="42.15808" lon="0.8354">
        <ele>688.8</ele>
        <time>2022-05-23 08:51:31</time>
      </trkpt>
      <trkpt lat="42.15807" lon="0.83533">
        <ele>688.8</ele>
        <time>2022-05-23 08:51:32</time>
      </trkpt>
      <trkpt lat="42.15807" lon="0.83526">
        <ele>689</ele>
        <time>2022-05-23 08:51:33</time>
      </trkpt>
      <trkpt lat="42.15805" lon="0.83519">
        <ele>689.2</ele>
        <time>2022-05-23 08:51:34</time>
      </trkpt>
      <trkpt lat="42.15804" lon="0.83512">
        <ele>689.4</ele>
        <time>2022-05-23 08:51:35</time>
      </trkpt>
      <trkpt lat="42.15803" lon="0.83505">
        <ele>689.6</ele>
        <time>2022-05-23 08:51:36</time>
      </trkpt>
      <trkpt lat="42.15802" lon="0.83498">
        <ele>689.8</ele>
        <time>2022-05-23 08:51:37</time>
      </trkpt>
      <trkpt lat="42.158" lon="0.83492">
        <ele>690</ele>
        <time>2022-05-23 08:51:38</time>
      </trkpt>
      <trkpt lat="42.158" lon="0.83485">
        <ele>690.2</ele>
        <time>2022-05-23 08:51:39</time>
      </trkpt>
      <trkpt lat="42.15799" lon="0.83479">
        <ele>690.4</ele>
        <time>2022-05-23 08:51:40</time>
      </trkpt>
      <trkpt lat="42.15799" lon="0.83472">
        <ele>690.4</ele>
        <time>2022-05-23 08:51:41</time>
      </trkpt>
      <trkpt lat="42.15798" lon="0.83466">
        <ele>690.8</ele>
        <time>2022-05-23 08:51:42</time>
      </trkpt>
      <trkpt lat="42.15797" lon="0.8346">
        <ele>691</ele>
        <time>2022-05-23 08:51:43</time>
      </trkpt>
      <trkpt lat="42.15796" lon="0.83455">
        <ele>691.2</ele>
        <time>2022-05-23 08:51:44</time>
      </trkpt>
      <trkpt lat="42.15795" lon="0.83449">
        <ele>691.4</ele>
        <time>2022-05-23 08:51:45</time>
      </trkpt>
      <trkpt lat="42.15794" lon="0.83444">
        <ele>691.4</ele>
        <time>2022-05-23 08:51:46</time>
      </trkpt>
      <trkpt lat="42.15793" lon="0.83438">
        <ele>691.8</ele>
        <time>2022-05-23 08:51:47</time>
      </trkpt>
      <trkpt lat="42.15792" lon="0.83433">
        <ele>692</ele>
        <time>2022-05-23 08:51:48</time>
      </trkpt>
      <trkpt lat="42.15792" lon="0.83428">
        <ele>692.2</ele>
        <time>2022-05-23 08:51:49</time>
      </trkpt>
      <trkpt lat="42.15791" lon="0.83423">
        <ele>692.4</ele>
        <time>2022-05-23 08:51:50</time>
      </trkpt>
      <trkpt lat="42.15791" lon="0.83419">
        <ele>692.6</ele>
        <time>2022-05-23 08:51:51</time>
      </trkpt>
      <trkpt lat="42.15791" lon="0.83415">
        <ele>692.6</ele>
        <time>2022-05-23 08:51:52</time>
      </trkpt>
      <trkpt lat="42.1579" lon="0.8341">
        <ele>692.8</ele>
        <time>2022-05-23 08:51:53</time>
      </trkpt>
      <trkpt lat="42.1579" lon="0.83406">
        <ele>693</ele>
        <time>2022-05-23 08:51:54</time>
      </trkpt>
      <trkpt lat="42.15789" lon="0.83402">
        <ele>693.2</ele>
        <time>2022-05-23 08:51:55</time>
      </trkpt>
      <trkpt lat="42.15789" lon="0.83398">
        <ele>693.4</ele>
        <time>2022-05-23 08:51:56</time>
      </trkpt>
      <trkpt lat="42.15788" lon="0.83394">
        <ele>693.6</ele>
        <time>2022-05-23 08:51:57</time>
      </trkpt>
      <trkpt lat="42.15788" lon="0.8339">
        <ele>693.8</ele>
        <time>2022-05-23 08:51:58</time>
      </trkpt>
      <trkpt lat="42.15787" lon="0.83386">
        <ele>694</ele>
        <time>2022-05-23 08:51:59</time>
      </trkpt>
      <trkpt lat="42.15787" lon="0.83382">
        <ele>694</ele>
        <time>2022-05-23 08:52:00</time>
      </trkpt>
      <trkpt lat="42.15787" lon="0.83378">
        <ele>694.2</ele>
        <time>2022-05-23 08:52:01</time>
      </trkpt>
      <trkpt lat="42.15786" lon="0.83374">
        <ele>694.4</ele>
        <time>2022-05-23 08:52:02</time>
      </trkpt>
      <trkpt lat="42.15785" lon="0.8337">
        <ele>694.6</ele>
        <time>2022-05-23 08:52:03</time>
      </trkpt>
      <trkpt lat="42.15785" lon="0.83367">
        <ele>694.6</ele>
        <time>2022-05-23 08:52:04</time>
      </trkpt>
      <trkpt lat="42.15784" lon="0.83362">
        <ele>694.8</ele>
        <time>2022-05-23 08:52:05</time>
      </trkpt>
      <trkpt lat="42.15784" lon="0.83358">
        <ele>695</ele>
        <time>2022-05-23 08:52:06</time>
      </trkpt>
      <trkpt lat="42.15783" lon="0.83354">
        <ele>695.2</ele>
        <time>2022-05-23 08:52:07</time>
      </trkpt>
      <trkpt lat="42.15782" lon="0.83351">
        <ele>695.2</ele>
        <time>2022-05-23 08:52:08</time>
      </trkpt>
      <trkpt lat="42.15782" lon="0.83347">
        <ele>695.4</ele>
        <time>2022-05-23 08:52:09</time>
      </trkpt>
      <trkpt lat="42.15781" lon="0.83343">
        <ele>695.6</ele>
        <time>2022-05-23 08:52:10</time>
      </trkpt>
      <trkpt lat="42.15781" lon="0.83339">
        <ele>695.8</ele>
        <time>2022-05-23 08:52:11</time>
      </trkpt>
      <trkpt lat="42.15781" lon="0.83336">
        <ele>695.8</ele>
        <time>2022-05-23 08:52:12</time>
      </trkpt>
      <trkpt lat="42.1578" lon="0.83332">
        <ele>696</ele>
        <time>2022-05-23 08:52:13</time>
      </trkpt>
      <trkpt lat="42.15779" lon="0.83328">
        <ele>696.2</ele>
        <time>2022-05-23 08:52:14</time>
      </trkpt>
      <trkpt lat="42.15778" lon="0.83325">
        <ele>696.4</ele>
        <time>2022-05-23 08:52:15</time>
      </trkpt>
      <trkpt lat="42.15778" lon="0.83321">
        <ele>696.6</ele>
        <time>2022-05-23 08:52:16</time>
      </trkpt>
      <trkpt lat="42.15778" lon="0.83317">
        <ele>696.8</ele>
        <time>2022-05-23 08:52:17</time>
      </trkpt>
      <trkpt lat="42.15778" lon="0.83314">
        <ele>696.8</ele>
        <time>2022-05-23 08:52:18</time>
      </trkpt>
      <trkpt lat="42.15777" lon="0.8331">
        <ele>697</ele>
        <time>2022-05-23 08:52:19</time>
      </trkpt>
      <trkpt lat="42.15776" lon="0.83307">
        <ele>697.2</ele>
        <time>2022-05-23 08:52:20</time>
      </trkpt>
      <trkpt lat="42.15776" lon="0.83303">
        <ele>697.4</ele>
        <time>2022-05-23 08:52:21</time>
      </trkpt>
      <trkpt lat="42.15775" lon="0.83299">
        <ele>697.6</ele>
        <time>2022-05-23 08:52:22</time>
      </trkpt>
      <trkpt lat="42.15775" lon="0.83296">
        <ele>697.8</ele>
        <time>2022-05-23 08:52:23</time>
      </trkpt>
      <trkpt lat="42.15774" lon="0.83293">
        <ele>698</ele>
        <time>2022-05-23 08:52:24</time>
      </trkpt>
      <trkpt lat="42.15774" lon="0.83289">
        <ele>698.2</ele>
        <time>2022-05-23 08:52:25</time>
      </trkpt>
      <trkpt lat="42.15773" lon="0.83286">
        <ele>698.2</ele>
        <time>2022-05-23 08:52:26</time>
      </trkpt>
      <trkpt lat="42.15773" lon="0.83283">
        <ele>698.4</ele>
        <time>2022-05-23 08:52:27</time>
      </trkpt>
      <trkpt lat="42.15772" lon="0.83279">
        <ele>698.6</ele>
        <time>2022-05-23 08:52:28</time>
      </trkpt>
      <trkpt lat="42.15771" lon="0.83276">
        <ele>698.8</ele>
        <time>2022-05-23 08:52:29</time>
      </trkpt>
      <trkpt lat="42.15771" lon="0.83273">
        <ele>699</ele>
        <time>2022-05-23 08:52:30</time>
      </trkpt>
      <trkpt lat="42.15771" lon="0.8327">
        <ele>699.2</ele>
        <time>2022-05-23 08:52:31</time>
      </trkpt>
      <trkpt lat="42.1577" lon="0.83267">
        <ele>699.4</ele>
        <time>2022-05-23 08:52:32</time>
      </trkpt>
      <trkpt lat="42.1577" lon="0.83264">
        <ele>699.6</ele>
        <time>2022-05-23 08:52:33</time>
      </trkpt>
      <trkpt lat="42.15769" lon="0.83261">
        <ele>699.8</ele>
        <time>2022-05-23 08:52:34</time>
      </trkpt>
      <trkpt lat="42.15768" lon="0.83257">
        <ele>700</ele>
        <time>2022-05-23 08:52:35</time>
      </trkpt>
      <trkpt lat="42.15767" lon="0.83255">
        <ele>700</ele>
        <time>2022-05-23 08:52:36</time>
      </trkpt>
      <trkpt lat="42.15766" lon="0.83252">
        <ele>700.4</ele>
        <time>2022-05-23 08:52:37</time>
      </trkpt>
      <trkpt lat="42.15765" lon="0.83249">
        <ele>700.6</ele>
        <time>2022-05-23 08:52:38</time>
      </trkpt>
      <trkpt lat="42.15764" lon="0.83246">
        <ele>700.8</ele>
        <time>2022-05-23 08:52:39</time>
      </trkpt>
      <trkpt lat="42.15763" lon="0.83244">
        <ele>701</ele>
        <time>2022-05-23 08:52:40</time>
      </trkpt>
      <trkpt lat="42.15762" lon="0.83242">
        <ele>701.2</ele>
        <time>2022-05-23 08:52:41</time>
      </trkpt>
      <trkpt lat="42.1576" lon="0.83241">
        <ele>701.4</ele>
        <time>2022-05-23 08:52:42</time>
      </trkpt>
      <trkpt lat="42.15758" lon="0.83239">
        <ele>701.6</ele>
        <time>2022-05-23 08:52:43</time>
      </trkpt>
      <trkpt lat="42.15756" lon="0.83237">
        <ele>701.8</ele>
        <time>2022-05-23 08:52:44</time>
      </trkpt>
      <trkpt lat="42.15754" lon="0.83236">
        <ele>702</ele>
        <time>2022-05-23 08:52:45</time>
      </trkpt>
      <trkpt lat="42.15752" lon="0.83234">
        <ele>702.2</ele>
        <time>2022-05-23 08:52:46</time>
      </trkpt>
      <trkpt lat="42.1575" lon="0.83233">
        <ele>702.4</ele>
        <time>2022-05-23 08:52:47</time>
      </trkpt>
      <trkpt lat="42.15748" lon="0.83232">
        <ele>702.6</ele>
        <time>2022-05-23 08:52:48</time>
      </trkpt>
      <trkpt lat="42.15746" lon="0.8323">
        <ele>702.8</ele>
        <time>2022-05-23 08:52:49</time>
      </trkpt>
      <trkpt lat="42.15744" lon="0.83229">
        <ele>703</ele>
        <time>2022-05-23 08:52:50</time>
      </trkpt>
      <trkpt lat="42.15742" lon="0.83228">
        <ele>703.2</ele>
        <time>2022-05-23 08:52:51</time>
      </trkpt>
      <trkpt lat="42.1574" lon="0.83228">
        <ele>703.4</ele>
        <time>2022-05-23 08:52:52</time>
      </trkpt>
      <trkpt lat="42.15737" lon="0.83227">
        <ele>703.6</ele>
        <time>2022-05-23 08:52:53</time>
      </trkpt>
      <trkpt lat="42.15735" lon="0.83227">
        <ele>703.8</ele>
        <time>2022-05-23 08:52:54</time>
      </trkpt>
      <trkpt lat="42.15732" lon="0.83227">
        <ele>704</ele>
        <time>2022-05-23 08:52:55</time>
      </trkpt>
      <trkpt lat="42.1573" lon="0.83227">
        <ele>704.2</ele>
        <time>2022-05-23 08:52:56</time>
      </trkpt>
      <trkpt lat="42.15728" lon="0.83227">
        <ele>704.4</ele>
        <time>2022-05-23 08:52:57</time>
      </trkpt>
      <trkpt lat="42.15725" lon="0.83227">
        <ele>704.4</ele>
        <time>2022-05-23 08:52:58</time>
      </trkpt>
      <trkpt lat="42.15723" lon="0.83228">
        <ele>704.6</ele>
        <time>2022-05-23 08:52:59</time>
      </trkpt>
      <trkpt lat="42.1572" lon="0.83229">
        <ele>704.8</ele>
        <time>2022-05-23 08:53:00</time>
      </trkpt>
      <trkpt lat="42.15718" lon="0.8323">
        <ele>705</ele>
        <time>2022-05-23 08:53:01</time>
      </trkpt>
      <trkpt lat="42.15716" lon="0.83231">
        <ele>705.2</ele>
        <time>2022-05-23 08:53:02</time>
      </trkpt>
      <trkpt lat="42.15714" lon="0.83232">
        <ele>705.4</ele>
        <time>2022-05-23 08:53:03</time>
      </trkpt>
      <trkpt lat="42.15712" lon="0.83233">
        <ele>705.6</ele>
        <time>2022-05-23 08:53:04</time>
      </trkpt>
      <trkpt lat="42.1571" lon="0.83234">
        <ele>705.8</ele>
        <time>2022-05-23 08:53:05</time>
      </trkpt>
      <trkpt lat="42.15707" lon="0.83235">
        <ele>706</ele>
        <time>2022-05-23 08:53:06</time>
      </trkpt>
      <trkpt lat="42.15705" lon="0.83236">
        <ele>706</ele>
        <time>2022-05-23 08:53:07</time>
      </trkpt>
      <trkpt lat="42.15703" lon="0.83237">
        <ele>706.2</ele>
        <time>2022-05-23 08:53:08</time>
      </trkpt>
      <trkpt lat="42.15701" lon="0.83239">
        <ele>706.4</ele>
        <time>2022-05-23 08:53:09</time>
      </trkpt>
      <trkpt lat="42.15699" lon="0.8324">
        <ele>706.6</ele>
        <time>2022-05-23 08:53:10</time>
      </trkpt>
      <trkpt lat="42.15696" lon="0.83241">
        <ele>706.8</ele>
        <time>2022-05-23 08:53:11</time>
      </trkpt>
      <trkpt lat="42.15694" lon="0.83243">
        <ele>707</ele>
        <time>2022-05-23 08:53:12</time>
      </trkpt>
      <trkpt lat="42.15693" lon="0.83244">
        <ele>707.2</ele>
        <time>2022-05-23 08:53:13</time>
      </trkpt>
      <trkpt lat="42.1569" lon="0.83246">
        <ele>707.4</ele>
        <time>2022-05-23 08:53:14</time>
      </trkpt>
      <trkpt lat="42.15688" lon="0.83247">
        <ele>707.6</ele>
        <time>2022-05-23 08:53:15</time>
      </trkpt>
      <trkpt lat="42.15686" lon="0.83248">
        <ele>707.8</ele>
        <time>2022-05-23 08:53:16</time>
      </trkpt>
      <trkpt lat="42.15684" lon="0.83249">
        <ele>708</ele>
        <time>2022-05-23 08:53:17</time>
      </trkpt>
      <trkpt lat="42.15681" lon="0.83251">
        <ele>708</ele>
        <time>2022-05-23 08:53:18</time>
      </trkpt>
      <trkpt lat="42.15679" lon="0.83252">
        <ele>708.2</ele>
        <time>2022-05-23 08:53:19</time>
      </trkpt>
      <trkpt lat="42.15677" lon="0.83253">
        <ele>708.4</ele>
        <time>2022-05-23 08:53:20</time>
      </trkpt>
      <trkpt lat="42.15675" lon="0.83255">
        <ele>708.6</ele>
        <time>2022-05-23 08:53:21</time>
      </trkpt>
      <trkpt lat="42.15673" lon="0.83256">
        <ele>708.8</ele>
        <time>2022-05-23 08:53:22</time>
      </trkpt>
      <trkpt lat="42.15671" lon="0.83257">
        <ele>709</ele>
        <time>2022-05-23 08:53:23</time>
      </trkpt>
      <trkpt lat="42.15668" lon="0.83258">
        <ele>709.2</ele>
        <time>2022-05-23 08:53:24</time>
      </trkpt>
      <trkpt lat="42.15667" lon="0.83259">
        <ele>709.4</ele>
        <time>2022-05-23 08:53:25</time>
      </trkpt>
      <trkpt lat="42.15664" lon="0.8326">
        <ele>709.6</ele>
        <time>2022-05-23 08:53:26</time>
      </trkpt>
      <trkpt lat="42.15662" lon="0.8326">
        <ele>709.8</ele>
        <time>2022-05-23 08:53:27</time>
      </trkpt>
      <trkpt lat="42.1566" lon="0.83261">
        <ele>710</ele>
        <time>2022-05-23 08:53:28</time>
      </trkpt>
      <trkpt lat="42.15658" lon="0.83261">
        <ele>710.2</ele>
        <time>2022-05-23 08:53:29</time>
      </trkpt>
      <trkpt lat="42.15656" lon="0.83261">
        <ele>710.4</ele>
        <time>2022-05-23 08:53:30</time>
      </trkpt>
      <trkpt lat="42.15654" lon="0.8326">
        <ele>710.6</ele>
        <time>2022-05-23 08:53:31</time>
      </trkpt>
      <trkpt lat="42.15651" lon="0.83259">
        <ele>710.8</ele>
        <time>2022-05-23 08:53:32</time>
      </trkpt>
      <trkpt lat="42.15649" lon="0.83258">
        <ele>711</ele>
        <time>2022-05-23 08:53:33</time>
      </trkpt>
      <trkpt lat="42.15647" lon="0.83257">
        <ele>711.4</ele>
        <time>2022-05-23 08:53:34</time>
      </trkpt>
      <trkpt lat="42.15645" lon="0.83256">
        <ele>711.6</ele>
        <time>2022-05-23 08:53:35</time>
      </trkpt>
      <trkpt lat="42.15643" lon="0.83255">
        <ele>711.8</ele>
        <time>2022-05-23 08:53:36</time>
      </trkpt>
      <trkpt lat="42.15641" lon="0.83253">
        <ele>712</ele>
        <time>2022-05-23 08:53:37</time>
      </trkpt>
      <trkpt lat="42.15639" lon="0.83251">
        <ele>712.2</ele>
        <time>2022-05-23 08:53:38</time>
      </trkpt>
      <trkpt lat="42.15637" lon="0.83248">
        <ele>712.4</ele>
        <time>2022-05-23 08:53:39</time>
      </trkpt>
      <trkpt lat="42.15636" lon="0.83246">
        <ele>712.6</ele>
        <time>2022-05-23 08:53:40</time>
      </trkpt>
      <trkpt lat="42.15635" lon="0.83243">
        <ele>712.8</ele>
        <time>2022-05-23 08:53:41</time>
      </trkpt>
      <trkpt lat="42.15634" lon="0.8324">
        <ele>712.8</ele>
        <time>2022-05-23 08:53:42</time>
      </trkpt>
      <trkpt lat="42.15633" lon="0.83237">
        <ele>713</ele>
        <time>2022-05-23 08:53:43</time>
      </trkpt>
      <trkpt lat="42.15632" lon="0.83234">
        <ele>713.2</ele>
        <time>2022-05-23 08:53:44</time>
      </trkpt>
      <trkpt lat="42.15632" lon="0.8323">
        <ele>713.4</ele>
        <time>2022-05-23 08:53:45</time>
      </trkpt>
      <trkpt lat="42.15632" lon="0.83226">
        <ele>713.4</ele>
        <time>2022-05-23 08:53:46</time>
      </trkpt>
      <trkpt lat="42.15631" lon="0.83223">
        <ele>713.6</ele>
        <time>2022-05-23 08:53:47</time>
      </trkpt>
      <trkpt lat="42.15631" lon="0.83219">
        <ele>713.8</ele>
        <time>2022-05-23 08:53:48</time>
      </trkpt>
      <trkpt lat="42.15631" lon="0.83215">
        <ele>714</ele>
        <time>2022-05-23 08:53:49</time>
      </trkpt>
      <trkpt lat="42.15631" lon="0.83211">
        <ele>714</ele>
        <time>2022-05-23 08:53:50</time>
      </trkpt>
      <trkpt lat="42.15631" lon="0.83208">
        <ele>714.2</ele>
        <time>2022-05-23 08:53:51</time>
      </trkpt>
      <trkpt lat="42.15632" lon="0.83204">
        <ele>714.4</ele>
        <time>2022-05-23 08:53:52</time>
      </trkpt>
      <trkpt lat="42.15633" lon="0.832">
        <ele>714.6</ele>
        <time>2022-05-23 08:53:53</time>
      </trkpt>
      <trkpt lat="42.15633" lon="0.83197">
        <ele>714.8</ele>
        <time>2022-05-23 08:53:54</time>
      </trkpt>
      <trkpt lat="42.15634" lon="0.83193">
        <ele>715</ele>
        <time>2022-05-23 08:53:55</time>
      </trkpt>
      <trkpt lat="42.15634" lon="0.8319">
        <ele>715</ele>
        <time>2022-05-23 08:53:56</time>
      </trkpt>
      <trkpt lat="42.15635" lon="0.83187">
        <ele>715.2</ele>
        <time>2022-05-23 08:53:57</time>
      </trkpt>
      <trkpt lat="42.15636" lon="0.83184">
        <ele>715.4</ele>
        <time>2022-05-23 08:53:58</time>
      </trkpt>
      <trkpt lat="42.15637" lon="0.8318">
        <ele>715.6</ele>
        <time>2022-05-23 08:53:59</time>
      </trkpt>
      <trkpt lat="42.15638" lon="0.83177">
        <ele>715.8</ele>
        <time>2022-05-23 08:54:00</time>
      </trkpt>
      <trkpt lat="42.15638" lon="0.83174">
        <ele>716</ele>
        <time>2022-05-23 08:54:01</time>
      </trkpt>
      <trkpt lat="42.15638" lon="0.8317">
        <ele>716.2</ele>
        <time>2022-05-23 08:54:02</time>
      </trkpt>
      <trkpt lat="42.15639" lon="0.83167">
        <ele>716.4</ele>
        <time>2022-05-23 08:54:03</time>
      </trkpt>
      <trkpt lat="42.1564" lon="0.83163">
        <ele>716.6</ele>
        <time>2022-05-23 08:54:04</time>
      </trkpt>
      <trkpt lat="42.15641" lon="0.83161">
        <ele>716.8</ele>
        <time>2022-05-23 08:54:05</time>
      </trkpt>
      <trkpt lat="42.15642" lon="0.83157">
        <ele>717</ele>
        <time>2022-05-23 08:54:06</time>
      </trkpt>
      <trkpt lat="42.15643" lon="0.83154">
        <ele>717.2</ele>
        <time>2022-05-23 08:54:07</time>
      </trkpt>
      <trkpt lat="42.15644" lon="0.83151">
        <ele>717.4</ele>
        <time>2022-05-23 08:54:08</time>
      </trkpt>
      <trkpt lat="42.15644" lon="0.83148">
        <ele>717.6</ele>
        <time>2022-05-23 08:54:09</time>
      </trkpt>
      <trkpt lat="42.15645" lon="0.83145">
        <ele>717.8</ele>
        <time>2022-05-23 08:54:10</time>
      </trkpt>
      <trkpt lat="42.15646" lon="0.83142">
        <ele>718</ele>
        <time>2022-05-23 08:54:11</time>
      </trkpt>
      <trkpt lat="42.15647" lon="0.83139">
        <ele>718.2</ele>
        <time>2022-05-23 08:54:12</time>
      </trkpt>
      <trkpt lat="42.15648" lon="0.83136">
        <ele>718.2</ele>
        <time>2022-05-23 08:54:13</time>
      </trkpt>
      <trkpt lat="42.15648" lon="0.83133">
        <ele>718.4</ele>
        <time>2022-05-23 08:54:14</time>
      </trkpt>
      <trkpt lat="42.15649" lon="0.8313">
        <ele>718.6</ele>
        <time>2022-05-23 08:54:15</time>
      </trkpt>
      <trkpt lat="42.1565" lon="0.83126">
        <ele>718.8</ele>
        <time>2022-05-23 08:54:16</time>
      </trkpt>
      <trkpt lat="42.15651" lon="0.83123">
        <ele>719</ele>
        <time>2022-05-23 08:54:17</time>
      </trkpt>
      <trkpt lat="42.15651" lon="0.8312">
        <ele>719.2</ele>
        <time>2022-05-23 08:54:18</time>
      </trkpt>
      <trkpt lat="42.15652" lon="0.83117">
        <ele>719.4</ele>
        <time>2022-05-23 08:54:19</time>
      </trkpt>
      <trkpt lat="42.15653" lon="0.83114">
        <ele>719.6</ele>
        <time>2022-05-23 08:54:20</time>
      </trkpt>
      <trkpt lat="42.15654" lon="0.83111">
        <ele>719.8</ele>
        <time>2022-05-23 08:54:21</time>
      </trkpt>
      <trkpt lat="42.15656" lon="0.83107">
        <ele>720</ele>
        <time>2022-05-23 08:54:22</time>
      </trkpt>
      <trkpt lat="42.15656" lon="0.83104">
        <ele>720.2</ele>
        <time>2022-05-23 08:54:23</time>
      </trkpt>
      <trkpt lat="42.15657" lon="0.83101">
        <ele>720.4</ele>
        <time>2022-05-23 08:54:24</time>
      </trkpt>
      <trkpt lat="42.15658" lon="0.83098">
        <ele>720.6</ele>
        <time>2022-05-23 08:54:25</time>
      </trkpt>
      <trkpt lat="42.15659" lon="0.83094">
        <ele>720.8</ele>
        <time>2022-05-23 08:54:26</time>
      </trkpt>
      <trkpt lat="42.15659" lon="0.83091">
        <ele>721</ele>
        <time>2022-05-23 08:54:27</time>
      </trkpt>
      <trkpt lat="42.1566" lon="0.83088">
        <ele>721.2</ele>
        <time>2022-05-23 08:54:28</time>
      </trkpt>
      <trkpt lat="42.15661" lon="0.83085">
        <ele>721.4</ele>
        <time>2022-05-23 08:54:29</time>
      </trkpt>
      <trkpt lat="42.15661" lon="0.83082">
        <ele>721.6</ele>
        <time>2022-05-23 08:54:30</time>
      </trkpt>
      <trkpt lat="42.15662" lon="0.83078">
        <ele>721.8</ele>
        <time>2022-05-23 08:54:31</time>
      </trkpt>
      <trkpt lat="42.15663" lon="0.83075">
        <ele>722</ele>
        <time>2022-05-23 08:54:32</time>
      </trkpt>
      <trkpt lat="42.15664" lon="0.83072">
        <ele>722.2</ele>
        <time>2022-05-23 08:54:33</time>
      </trkpt>
      <trkpt lat="42.15664" lon="0.83069">
        <ele>722.2</ele>
        <time>2022-05-23 08:54:34</time>
      </trkpt>
      <trkpt lat="42.15665" lon="0.83065">
        <ele>722.4</ele>
        <time>2022-05-23 08:54:35</time>
      </trkpt>
      <trkpt lat="42.15665" lon="0.83062">
        <ele>722.6</ele>
        <time>2022-05-23 08:54:36</time>
      </trkpt>
      <trkpt lat="42.15665" lon="0.83059">
        <ele>722.8</ele>
        <time>2022-05-23 08:54:37</time>
      </trkpt>
      <trkpt lat="42.15666" lon="0.83056">
        <ele>723</ele>
        <time>2022-05-23 08:54:38</time>
      </trkpt>
      <trkpt lat="42.15668" lon="0.83053">
        <ele>723.2</ele>
        <time>2022-05-23 08:54:39</time>
      </trkpt>
      <trkpt lat="42.15669" lon="0.8305">
        <ele>723.4</ele>
        <time>2022-05-23 08:54:40</time>
      </trkpt>
      <trkpt lat="42.15671" lon="0.83047">
        <ele>723.6</ele>
        <time>2022-05-23 08:54:41</time>
      </trkpt>
      <trkpt lat="42.15672" lon="0.83044">
        <ele>723.8</ele>
        <time>2022-05-23 08:54:42</time>
      </trkpt>
      <trkpt lat="42.15674" lon="0.83042">
        <ele>724</ele>
        <time>2022-05-23 08:54:43</time>
      </trkpt>
      <trkpt lat="42.15675" lon="0.83039">
        <ele>724.2</ele>
        <time>2022-05-23 08:54:44</time>
      </trkpt>
      <trkpt lat="42.15677" lon="0.83036">
        <ele>724.4</ele>
        <time>2022-05-23 08:54:45</time>
      </trkpt>
      <trkpt lat="42.15679" lon="0.83034">
        <ele>724.4</ele>
        <time>2022-05-23 08:54:46</time>
      </trkpt>
      <trkpt lat="42.1568" lon="0.83032">
        <ele>724.6</ele>
        <time>2022-05-23 08:54:47</time>
      </trkpt>
      <trkpt lat="42.15682" lon="0.8303">
        <ele>724.8</ele>
        <time>2022-05-23 08:54:48</time>
      </trkpt>
      <trkpt lat="42.15684" lon="0.83028">
        <ele>725</ele>
        <time>2022-05-23 08:54:49</time>
      </trkpt>
      <trkpt lat="42.15686" lon="0.83026">
        <ele>725.2</ele>
        <time>2022-05-23 08:54:50</time>
      </trkpt>
      <trkpt lat="42.15688" lon="0.83026">
        <ele>725.4</ele>
        <time>2022-05-23 08:54:51</time>
      </trkpt>
      <trkpt lat="42.1569" lon="0.83025">
        <ele>725.6</ele>
        <time>2022-05-23 08:54:52</time>
      </trkpt>
      <trkpt lat="42.15693" lon="0.83024">
        <ele>726</ele>
        <time>2022-05-23 08:54:53</time>
      </trkpt>
      <trkpt lat="42.15695" lon="0.83023">
        <ele>726.2</ele>
        <time>2022-05-23 08:54:54</time>
      </trkpt>
      <trkpt lat="42.15698" lon="0.83023">
        <ele>726.4</ele>
        <time>2022-05-23 08:54:55</time>
      </trkpt>
      <trkpt lat="42.157" lon="0.83022">
        <ele>726.6</ele>
        <time>2022-05-23 08:54:56</time>
      </trkpt>
      <trkpt lat="42.15703" lon="0.83021">
        <ele>726.8</ele>
        <time>2022-05-23 08:54:57</time>
      </trkpt>
      <trkpt lat="42.15705" lon="0.8302">
        <ele>727</ele>
        <time>2022-05-23 08:54:58</time>
      </trkpt>
      <trkpt lat="42.15708" lon="0.8302">
        <ele>727.2</ele>
        <time>2022-05-23 08:54:59</time>
      </trkpt>
      <trkpt lat="42.1571" lon="0.83019">
        <ele>727.4</ele>
        <time>2022-05-23 08:55:00</time>
      </trkpt>
      <trkpt lat="42.15712" lon="0.83019">
        <ele>727.6</ele>
        <time>2022-05-23 08:55:01</time>
      </trkpt>
      <trkpt lat="42.15714" lon="0.83018">
        <ele>727.8</ele>
        <time>2022-05-23 08:55:02</time>
      </trkpt>
      <trkpt lat="42.15716" lon="0.83017">
        <ele>728.2</ele>
        <time>2022-05-23 08:55:03</time>
      </trkpt>
      <trkpt lat="42.15718" lon="0.83015">
        <ele>728.4</ele>
        <time>2022-05-23 08:55:04</time>
      </trkpt>
      <trkpt lat="42.1572" lon="0.83013">
        <ele>728.6</ele>
        <time>2022-05-23 08:55:05</time>
      </trkpt>
      <trkpt lat="42.15722" lon="0.83012">
        <ele>728.8</ele>
        <time>2022-05-23 08:55:06</time>
      </trkpt>
      <trkpt lat="42.15724" lon="0.8301">
        <ele>729</ele>
        <time>2022-05-23 08:55:07</time>
      </trkpt>
      <trkpt lat="42.15726" lon="0.83008">
        <ele>729.2</ele>
        <time>2022-05-23 08:55:08</time>
      </trkpt>
      <trkpt lat="42.15727" lon="0.83006">
        <ele>729.4</ele>
        <time>2022-05-23 08:55:09</time>
      </trkpt>
      <trkpt lat="42.15728" lon="0.83003">
        <ele>729.6</ele>
        <time>2022-05-23 08:55:10</time>
      </trkpt>
      <trkpt lat="42.15729" lon="0.83">
        <ele>729.8</ele>
        <time>2022-05-23 08:55:11</time>
      </trkpt>
      <trkpt lat="42.1573" lon="0.82997">
        <ele>730</ele>
        <time>2022-05-23 08:55:12</time>
      </trkpt>
      <trkpt lat="42.1573" lon="0.82994">
        <ele>730.2</ele>
        <time>2022-05-23 08:55:13</time>
      </trkpt>
      <trkpt lat="42.1573" lon="0.82991">
        <ele>730.4</ele>
        <time>2022-05-23 08:55:14</time>
      </trkpt>
      <trkpt lat="42.1573" lon="0.82988">
        <ele>730.8</ele>
        <time>2022-05-23 08:55:15</time>
      </trkpt>
      <trkpt lat="42.1573" lon="0.82985">
        <ele>731</ele>
        <time>2022-05-23 08:55:16</time>
      </trkpt>
      <trkpt lat="42.1573" lon="0.82982">
        <ele>731.2</ele>
        <time>2022-05-23 08:55:17</time>
      </trkpt>
      <trkpt lat="42.1573" lon="0.82978">
        <ele>731.4</ele>
        <time>2022-05-23 08:55:18</time>
      </trkpt>
      <trkpt lat="42.15729" lon="0.82975">
        <ele>731.6</ele>
        <time>2022-05-23 08:55:19</time>
      </trkpt>
      <trkpt lat="42.15728" lon="0.82972">
        <ele>731.8</ele>
        <time>2022-05-23 08:55:20</time>
      </trkpt>
      <trkpt lat="42.15728" lon="0.82969">
        <ele>732</ele>
        <time>2022-05-23 08:55:21</time>
      </trkpt>
      <trkpt lat="42.15727" lon="0.82967">
        <ele>732.2</ele>
        <time>2022-05-23 08:55:22</time>
      </trkpt>
      <trkpt lat="42.15726" lon="0.82964">
        <ele>732.4</ele>
        <time>2022-05-23 08:55:23</time>
      </trkpt>
      <trkpt lat="42.15724" lon="0.82961">
        <ele>732.6</ele>
        <time>2022-05-23 08:55:24</time>
      </trkpt>
      <trkpt lat="42.15723" lon="0.82958">
        <ele>732.8</ele>
        <time>2022-05-23 08:55:25</time>
      </trkpt>
      <trkpt lat="42.15721" lon="0.82956">
        <ele>733</ele>
        <time>2022-05-23 08:55:26</time>
      </trkpt>
      <trkpt lat="42.1572" lon="0.82954">
        <ele>733.2</ele>
        <time>2022-05-23 08:55:27</time>
      </trkpt>
      <trkpt lat="42.15718" lon="0.82951">
        <ele>733.4</ele>
        <time>2022-05-23 08:55:28</time>
      </trkpt>
      <trkpt lat="42.15716" lon="0.8295">
        <ele>733.6</ele>
        <time>2022-05-23 08:55:29</time>
      </trkpt>
      <trkpt lat="42.15714" lon="0.82948">
        <ele>733.8</ele>
        <time>2022-05-23 08:55:30</time>
      </trkpt>
      <trkpt lat="42.15712" lon="0.82946">
        <ele>734</ele>
        <time>2022-05-23 08:55:31</time>
      </trkpt>
      <trkpt lat="42.1571" lon="0.82945">
        <ele>734.2</ele>
        <time>2022-05-23 08:55:32</time>
      </trkpt>
      <trkpt lat="42.15709" lon="0.82943">
        <ele>734.4</ele>
        <time>2022-05-23 08:55:33</time>
      </trkpt>
      <trkpt lat="42.15708" lon="0.82941">
        <ele>734.6</ele>
        <time>2022-05-23 08:55:34</time>
      </trkpt>
      <trkpt lat="42.15706" lon="0.82939">
        <ele>735</ele>
        <time>2022-05-23 08:55:35</time>
      </trkpt>
      <trkpt lat="42.15704" lon="0.82937">
        <ele>735.2</ele>
        <time>2022-05-23 08:55:36</time>
      </trkpt>
      <trkpt lat="42.15702" lon="0.82934">
        <ele>735.4</ele>
        <time>2022-05-23 08:55:37</time>
      </trkpt>
      <trkpt lat="42.15701" lon="0.82932">
        <ele>735.6</ele>
        <time>2022-05-23 08:55:38</time>
      </trkpt>
      <trkpt lat="42.15699" lon="0.8293">
        <ele>735.6</ele>
        <time>2022-05-23 08:55:39</time>
      </trkpt>
      <trkpt lat="42.15698" lon="0.82927">
        <ele>735.8</ele>
        <time>2022-05-23 08:55:40</time>
      </trkpt>
      <trkpt lat="42.15697" lon="0.82925">
        <ele>736</ele>
        <time>2022-05-23 08:55:41</time>
      </trkpt>
      <trkpt lat="42.15695" lon="0.82923">
        <ele>736.2</ele>
        <time>2022-05-23 08:55:42</time>
      </trkpt>
      <trkpt lat="42.15694" lon="0.8292">
        <ele>736.4</ele>
        <time>2022-05-23 08:55:43</time>
      </trkpt>
      <trkpt lat="42.15693" lon="0.82917">
        <ele>736.4</ele>
        <time>2022-05-23 08:55:44</time>
      </trkpt>
      <trkpt lat="42.15692" lon="0.82914">
        <ele>736.6</ele>
        <time>2022-05-23 08:55:45</time>
      </trkpt>
      <trkpt lat="42.15692" lon="0.82911">
        <ele>736.8</ele>
        <time>2022-05-23 08:55:46</time>
      </trkpt>
      <trkpt lat="42.15691" lon="0.82908">
        <ele>737</ele>
        <time>2022-05-23 08:55:47</time>
      </trkpt>
      <trkpt lat="42.1569" lon="0.82904">
        <ele>737</ele>
        <time>2022-05-23 08:55:48</time>
      </trkpt>
      <trkpt lat="42.1569" lon="0.82901">
        <ele>737.2</ele>
        <time>2022-05-23 08:55:49</time>
      </trkpt>
      <trkpt lat="42.15689" lon="0.82898">
        <ele>737.4</ele>
        <time>2022-05-23 08:55:50</time>
      </trkpt>
      <trkpt lat="42.15688" lon="0.82895">
        <ele>737.6</ele>
        <time>2022-05-23 08:55:51</time>
      </trkpt>
      <trkpt lat="42.15688" lon="0.82892">
        <ele>737.8</ele>
        <time>2022-05-23 08:55:52</time>
      </trkpt>
      <trkpt lat="42.15688" lon="0.82888">
        <ele>738</ele>
        <time>2022-05-23 08:55:53</time>
      </trkpt>
      <trkpt lat="42.15688" lon="0.82885">
        <ele>738.2</ele>
        <time>2022-05-23 08:55:54</time>
      </trkpt>
      <trkpt lat="42.15688" lon="0.82882">
        <ele>738.2</ele>
        <time>2022-05-23 08:55:55</time>
      </trkpt>
      <trkpt lat="42.15688" lon="0.82878">
        <ele>738.4</ele>
        <time>2022-05-23 08:55:56</time>
      </trkpt>
      <trkpt lat="42.15688" lon="0.82875">
        <ele>738.6</ele>
        <time>2022-05-23 08:55:57</time>
      </trkpt>
      <trkpt lat="42.15689" lon="0.82872">
        <ele>738.8</ele>
        <time>2022-05-23 08:55:58</time>
      </trkpt>
      <trkpt lat="42.15689" lon="0.82869">
        <ele>739</ele>
        <time>2022-05-23 08:55:59</time>
      </trkpt>
      <trkpt lat="42.1569" lon="0.82866">
        <ele>739.2</ele>
        <time>2022-05-23 08:56:00</time>
      </trkpt>
      <trkpt lat="42.15691" lon="0.82863">
        <ele>739.4</ele>
        <time>2022-05-23 08:56:01</time>
      </trkpt>
      <trkpt lat="42.15692" lon="0.8286">
        <ele>739.6</ele>
        <time>2022-05-23 08:56:02</time>
      </trkpt>
      <trkpt lat="42.15693" lon="0.82858">
        <ele>739.8</ele>
        <time>2022-05-23 08:56:03</time>
      </trkpt>
      <trkpt lat="42.15694" lon="0.82855">
        <ele>740</ele>
        <time>2022-05-23 08:56:04</time>
      </trkpt>
      <trkpt lat="42.15695" lon="0.82853">
        <ele>740.2</ele>
        <time>2022-05-23 08:56:05</time>
      </trkpt>
      <trkpt lat="42.15696" lon="0.8285">
        <ele>740.4</ele>
        <time>2022-05-23 08:56:06</time>
      </trkpt>
      <trkpt lat="42.15697" lon="0.82848">
        <ele>740.6</ele>
        <time>2022-05-23 08:56:07</time>
      </trkpt>
      <trkpt lat="42.15698" lon="0.82845">
        <ele>740.6</ele>
        <time>2022-05-23 08:56:08</time>
      </trkpt>
      <trkpt lat="42.15699" lon="0.82843">
        <ele>740.8</ele>
        <time>2022-05-23 08:56:09</time>
      </trkpt>
      <trkpt lat="42.157" lon="0.8284">
        <ele>741</ele>
        <time>2022-05-23 08:56:10</time>
      </trkpt>
      <trkpt lat="42.15701" lon="0.82837">
        <ele>741.2</ele>
        <time>2022-05-23 08:56:11</time>
      </trkpt>
      <trkpt lat="42.15701" lon="0.82835">
        <ele>741.4</ele>
        <time>2022-05-23 08:56:12</time>
      </trkpt>
      <trkpt lat="42.15702" lon="0.82832">
        <ele>741.6</ele>
        <time>2022-05-23 08:56:13</time>
      </trkpt>
      <trkpt lat="42.15702" lon="0.82829">
        <ele>741.8</ele>
        <time>2022-05-23 08:56:14</time>
      </trkpt>
      <trkpt lat="42.15703" lon="0.82826">
        <ele>741.8</ele>
        <time>2022-05-23 08:56:15</time>
      </trkpt>
      <trkpt lat="42.15704" lon="0.82823">
        <ele>742</ele>
        <time>2022-05-23 08:56:16</time>
      </trkpt>
      <trkpt lat="42.15704" lon="0.8282">
        <ele>742.2</ele>
        <time>2022-05-23 08:56:17</time>
      </trkpt>
      <trkpt lat="42.15705" lon="0.82817">
        <ele>742.2</ele>
        <time>2022-05-23 08:56:18</time>
      </trkpt>
      <trkpt lat="42.15706" lon="0.82814">
        <ele>742.4</ele>
        <time>2022-05-23 08:56:19</time>
      </trkpt>
      <trkpt lat="42.15706" lon="0.8281">
        <ele>742.6</ele>
        <time>2022-05-23 08:56:20</time>
      </trkpt>
      <trkpt lat="42.15707" lon="0.82807">
        <ele>742.6</ele>
        <time>2022-05-23 08:56:21</time>
      </trkpt>
      <trkpt lat="42.15707" lon="0.82804">
        <ele>742.8</ele>
        <time>2022-05-23 08:56:22</time>
      </trkpt>
      <trkpt lat="42.15707" lon="0.82801">
        <ele>742.8</ele>
        <time>2022-05-23 08:56:23</time>
      </trkpt>
      <trkpt lat="42.15708" lon="0.82797">
        <ele>743</ele>
        <time>2022-05-23 08:56:24</time>
      </trkpt>
      <trkpt lat="42.15708" lon="0.82794">
        <ele>743</ele>
        <time>2022-05-23 08:56:25</time>
      </trkpt>
      <trkpt lat="42.15709" lon="0.8279">
        <ele>743.2</ele>
        <time>2022-05-23 08:56:26</time>
      </trkpt>
      <trkpt lat="42.15709" lon="0.82786">
        <ele>743.2</ele>
        <time>2022-05-23 08:56:27</time>
      </trkpt>
      <trkpt lat="42.15709" lon="0.82782">
        <ele>743.4</ele>
        <time>2022-05-23 08:56:28</time>
      </trkpt>
      <trkpt lat="42.1571" lon="0.82779">
        <ele>743.4</ele>
        <time>2022-05-23 08:56:29</time>
      </trkpt>
      <trkpt lat="42.1571" lon="0.82775">
        <ele>743.6</ele>
        <time>2022-05-23 08:56:30</time>
      </trkpt>
      <trkpt lat="42.15711" lon="0.82772">
        <ele>743.8</ele>
        <time>2022-05-23 08:56:31</time>
      </trkpt>
      <trkpt lat="42.15711" lon="0.82769">
        <ele>743.8</ele>
        <time>2022-05-23 08:56:32</time>
      </trkpt>
      <trkpt lat="42.15711" lon="0.82765">
        <ele>744</ele>
        <time>2022-05-23 08:56:33</time>
      </trkpt>
      <trkpt lat="42.15712" lon="0.82762">
        <ele>744.2</ele>
        <time>2022-05-23 08:56:34</time>
      </trkpt>
      <trkpt lat="42.15712" lon="0.82759">
        <ele>744.2</ele>
        <time>2022-05-23 08:56:35</time>
      </trkpt>
      <trkpt lat="42.15712" lon="0.82756">
        <ele>744.4</ele>
        <time>2022-05-23 08:56:36</time>
      </trkpt>
      <trkpt lat="42.15713" lon="0.82753">
        <ele>744.6</ele>
        <time>2022-05-23 08:56:37</time>
      </trkpt>
      <trkpt lat="42.15713" lon="0.8275">
        <ele>744.6</ele>
        <time>2022-05-23 08:56:38</time>
      </trkpt>
      <trkpt lat="42.15714" lon="0.82747">
        <ele>744.8</ele>
        <time>2022-05-23 08:56:39</time>
      </trkpt>
      <trkpt lat="42.15714" lon="0.82744">
        <ele>745</ele>
        <time>2022-05-23 08:56:40</time>
      </trkpt>
      <trkpt lat="42.15714" lon="0.82741">
        <ele>745.2</ele>
        <time>2022-05-23 08:56:41</time>
      </trkpt>
      <trkpt lat="42.15714" lon="0.82738">
        <ele>745.4</ele>
        <time>2022-05-23 08:56:42</time>
      </trkpt>
      <trkpt lat="42.15715" lon="0.82735">
        <ele>745.6</ele>
        <time>2022-05-23 08:56:43</time>
      </trkpt>
      <trkpt lat="42.15715" lon="0.82732">
        <ele>745.6</ele>
        <time>2022-05-23 08:56:44</time>
      </trkpt>
      <trkpt lat="42.15715" lon="0.82729">
        <ele>745.8</ele>
        <time>2022-05-23 08:56:45</time>
      </trkpt>
      <trkpt lat="42.15716" lon="0.82726">
        <ele>746</ele>
        <time>2022-05-23 08:56:46</time>
      </trkpt>
      <trkpt lat="42.15716" lon="0.82724">
        <ele>746.2</ele>
        <time>2022-05-23 08:56:47</time>
      </trkpt>
      <trkpt lat="42.15716" lon="0.82721">
        <ele>746.4</ele>
        <time>2022-05-23 08:56:48</time>
      </trkpt>
      <trkpt lat="42.15717" lon="0.82718">
        <ele>746.4</ele>
        <time>2022-05-23 08:56:49</time>
      </trkpt>
      <trkpt lat="42.15717" lon="0.82715">
        <ele>746.6</ele>
        <time>2022-05-23 08:56:50</time>
      </trkpt>
      <trkpt lat="42.15717" lon="0.82712">
        <ele>746.8</ele>
        <time>2022-05-23 08:56:51</time>
      </trkpt>
      <trkpt lat="42.15717" lon="0.8271">
        <ele>746.8</ele>
        <time>2022-05-23 08:56:52</time>
      </trkpt>
      <trkpt lat="42.15718" lon="0.82707">
        <ele>747</ele>
        <time>2022-05-23 08:56:53</time>
      </trkpt>
      <trkpt lat="42.15718" lon="0.82704">
        <ele>747.2</ele>
        <time>2022-05-23 08:56:54</time>
      </trkpt>
      <trkpt lat="42.15718" lon="0.82701">
        <ele>747.4</ele>
        <time>2022-05-23 08:56:55</time>
      </trkpt>
      <trkpt lat="42.15719" lon="0.82698">
        <ele>747.6</ele>
        <time>2022-05-23 08:56:56</time>
      </trkpt>
      <trkpt lat="42.15719" lon="0.82695">
        <ele>747.8</ele>
        <time>2022-05-23 08:56:57</time>
      </trkpt>
      <trkpt lat="42.15719" lon="0.82692">
        <ele>748</ele>
        <time>2022-05-23 08:56:58</time>
      </trkpt>
      <trkpt lat="42.15719" lon="0.8269">
        <ele>748</ele>
        <time>2022-05-23 08:56:59</time>
      </trkpt>
      <trkpt lat="42.1572" lon="0.82687">
        <ele>748.2</ele>
        <time>2022-05-23 08:57:00</time>
      </trkpt>
      <trkpt lat="42.1572" lon="0.82684">
        <ele>748.4</ele>
        <time>2022-05-23 08:57:01</time>
      </trkpt>
      <trkpt lat="42.15719" lon="0.82681">
        <ele>748.6</ele>
        <time>2022-05-23 08:57:02</time>
      </trkpt>
      <trkpt lat="42.15719" lon="0.82678">
        <ele>748.8</ele>
        <time>2022-05-23 08:57:03</time>
      </trkpt>
      <trkpt lat="42.15719" lon="0.82675">
        <ele>748.8</ele>
        <time>2022-05-23 08:57:04</time>
      </trkpt>
      <trkpt lat="42.15719" lon="0.82672">
        <ele>749</ele>
        <time>2022-05-23 08:57:05</time>
      </trkpt>
      <trkpt lat="42.15718" lon="0.82669">
        <ele>749.2</ele>
        <time>2022-05-23 08:57:06</time>
      </trkpt>
      <trkpt lat="42.15718" lon="0.82666">
        <ele>749.4</ele>
        <time>2022-05-23 08:57:07</time>
      </trkpt>
      <trkpt lat="42.15718" lon="0.82663">
        <ele>749.6</ele>
        <time>2022-05-23 08:57:08</time>
      </trkpt>
      <trkpt lat="42.15717" lon="0.8266">
        <ele>749.6</ele>
        <time>2022-05-23 08:57:09</time>
      </trkpt>
      <trkpt lat="42.15717" lon="0.82657">
        <ele>749.8</ele>
        <time>2022-05-23 08:57:10</time>
      </trkpt>
      <trkpt lat="42.15716" lon="0.82654">
        <ele>749.8</ele>
        <time>2022-05-23 08:57:11</time>
      </trkpt>
      <trkpt lat="42.15715" lon="0.82651">
        <ele>750</ele>
        <time>2022-05-23 08:57:12</time>
      </trkpt>
      <trkpt lat="42.15714" lon="0.82648">
        <ele>750.2</ele>
        <time>2022-05-23 08:57:13</time>
      </trkpt>
      <trkpt lat="42.15713" lon="0.82646">
        <ele>750.4</ele>
        <time>2022-05-23 08:57:14</time>
      </trkpt>
      <trkpt lat="42.15713" lon="0.82643">
        <ele>750.4</ele>
        <time>2022-05-23 08:57:15</time>
      </trkpt>
      <trkpt lat="42.15713" lon="0.8264">
        <ele>750.6</ele>
        <time>2022-05-23 08:57:16</time>
      </trkpt>
      <trkpt lat="42.15712" lon="0.82637">
        <ele>750.8</ele>
        <time>2022-05-23 08:57:17</time>
      </trkpt>
      <trkpt lat="42.15711" lon="0.82634">
        <ele>751</ele>
        <time>2022-05-23 08:57:18</time>
      </trkpt>
      <trkpt lat="42.15711" lon="0.82632">
        <ele>751.2</ele>
        <time>2022-05-23 08:57:19</time>
      </trkpt>
      <trkpt lat="42.1571" lon="0.82629">
        <ele>751.2</ele>
        <time>2022-05-23 08:57:20</time>
      </trkpt>
      <trkpt lat="42.1571" lon="0.82627">
        <ele>751.4</ele>
        <time>2022-05-23 08:57:21</time>
      </trkpt>
      <trkpt lat="42.15709" lon="0.82624">
        <ele>751.6</ele>
        <time>2022-05-23 08:57:22</time>
      </trkpt>
      <trkpt lat="42.15709" lon="0.82621">
        <ele>751.8</ele>
        <time>2022-05-23 08:57:23</time>
      </trkpt>
      <trkpt lat="42.15709" lon="0.82619">
        <ele>751.8</ele>
        <time>2022-05-23 08:57:24</time>
      </trkpt>
      <trkpt lat="42.15708" lon="0.82616">
        <ele>752</ele>
        <time>2022-05-23 08:57:25</time>
      </trkpt>
      <trkpt lat="42.15707" lon="0.82613">
        <ele>752.2</ele>
        <time>2022-05-23 08:57:26</time>
      </trkpt>
      <trkpt lat="42.15706" lon="0.82611">
        <ele>752.4</ele>
        <time>2022-05-23 08:57:27</time>
      </trkpt>
      <trkpt lat="42.15705" lon="0.82608">
        <ele>752.6</ele>
        <time>2022-05-23 08:57:28</time>
      </trkpt>
      <trkpt lat="42.15704" lon="0.82606">
        <ele>752.8</ele>
        <time>2022-05-23 08:57:29</time>
      </trkpt>
      <trkpt lat="42.15703" lon="0.82603">
        <ele>753</ele>
        <time>2022-05-23 08:57:30</time>
      </trkpt>
      <trkpt lat="42.15702" lon="0.826">
        <ele>753</ele>
        <time>2022-05-23 08:57:31</time>
      </trkpt>
      <trkpt lat="42.15701" lon="0.82598">
        <ele>753.2</ele>
        <time>2022-05-23 08:57:32</time>
      </trkpt>
      <trkpt lat="42.157" lon="0.82595">
        <ele>753.4</ele>
        <time>2022-05-23 08:57:33</time>
      </trkpt>
      <trkpt lat="42.15699" lon="0.82592">
        <ele>753.6</ele>
        <time>2022-05-23 08:57:34</time>
      </trkpt>
      <trkpt lat="42.15697" lon="0.8259">
        <ele>753.6</ele>
        <time>2022-05-23 08:57:35</time>
      </trkpt>
      <trkpt lat="42.15696" lon="0.82587">
        <ele>753.8</ele>
        <time>2022-05-23 08:57:36</time>
      </trkpt>
      <trkpt lat="42.15695" lon="0.82585">
        <ele>754</ele>
        <time>2022-05-23 08:57:37</time>
      </trkpt>
      <trkpt lat="42.15693" lon="0.82583">
        <ele>754</ele>
        <time>2022-05-23 08:57:38</time>
      </trkpt>
      <trkpt lat="42.15691" lon="0.8258">
        <ele>754.2</ele>
        <time>2022-05-23 08:57:39</time>
      </trkpt>
      <trkpt lat="42.1569" lon="0.82578">
        <ele>754.4</ele>
        <time>2022-05-23 08:57:40</time>
      </trkpt>
      <trkpt lat="42.15688" lon="0.82576">
        <ele>754.4</ele>
        <time>2022-05-23 08:57:41</time>
      </trkpt>
      <trkpt lat="42.15686" lon="0.82574">
        <ele>754.6</ele>
        <time>2022-05-23 08:57:42</time>
      </trkpt>
      <trkpt lat="42.15685" lon="0.82572">
        <ele>754.8</ele>
        <time>2022-05-23 08:57:43</time>
      </trkpt>
      <trkpt lat="42.15683" lon="0.82571">
        <ele>755</ele>
        <time>2022-05-23 08:57:44</time>
      </trkpt>
      <trkpt lat="42.15682" lon="0.82569">
        <ele>755</ele>
        <time>2022-05-23 08:57:45</time>
      </trkpt>
      <trkpt lat="42.1568" lon="0.82567">
        <ele>755.2</ele>
        <time>2022-05-23 08:57:46</time>
      </trkpt>
      <trkpt lat="42.15679" lon="0.82565">
        <ele>755.4</ele>
        <time>2022-05-23 08:57:47</time>
      </trkpt>
      <trkpt lat="42.15678" lon="0.82563">
        <ele>755.6</ele>
        <time>2022-05-23 08:57:48</time>
      </trkpt>
      <trkpt lat="42.15676" lon="0.82561">
        <ele>755.6</ele>
        <time>2022-05-23 08:57:49</time>
      </trkpt>
      <trkpt lat="42.15675" lon="0.8256">
        <ele>755.8</ele>
        <time>2022-05-23 08:57:50</time>
      </trkpt>
      <trkpt lat="42.15673" lon="0.82558">
        <ele>756</ele>
        <time>2022-05-23 08:57:51</time>
      </trkpt>
      <trkpt lat="42.15671" lon="0.82557">
        <ele>756.2</ele>
        <time>2022-05-23 08:57:52</time>
      </trkpt>
      <trkpt lat="42.1567" lon="0.82555">
        <ele>756.4</ele>
        <time>2022-05-23 08:57:53</time>
      </trkpt>
      <trkpt lat="42.15668" lon="0.82553">
        <ele>756.6</ele>
        <time>2022-05-23 08:57:54</time>
      </trkpt>
      <trkpt lat="42.15667" lon="0.82551">
        <ele>756.6</ele>
        <time>2022-05-23 08:57:55</time>
      </trkpt>
      <trkpt lat="42.15665" lon="0.82549">
        <ele>756.8</ele>
        <time>2022-05-23 08:57:56</time>
      </trkpt>
      <trkpt lat="42.15664" lon="0.82547">
        <ele>757</ele>
        <time>2022-05-23 08:57:57</time>
      </trkpt>
      <trkpt lat="42.15662" lon="0.82545">
        <ele>757</ele>
        <time>2022-05-23 08:57:58</time>
      </trkpt>
      <trkpt lat="42.15661" lon="0.82542">
        <ele>757.2</ele>
        <time>2022-05-23 08:57:59</time>
      </trkpt>
      <trkpt lat="42.1566" lon="0.8254">
        <ele>757.4</ele>
        <time>2022-05-23 08:58:00</time>
      </trkpt>
      <trkpt lat="42.15658" lon="0.82537">
        <ele>757.6</ele>
        <time>2022-05-23 08:58:01</time>
      </trkpt>
      <trkpt lat="42.15657" lon="0.82535">
        <ele>757.6</ele>
        <time>2022-05-23 08:58:02</time>
      </trkpt>
      <trkpt lat="42.15656" lon="0.82532">
        <ele>757.8</ele>
        <time>2022-05-23 08:58:03</time>
      </trkpt>
      <trkpt lat="42.15654" lon="0.82529">
        <ele>758</ele>
        <time>2022-05-23 08:58:04</time>
      </trkpt>
      <trkpt lat="42.15653" lon="0.82527">
        <ele>758</ele>
        <time>2022-05-23 08:58:05</time>
      </trkpt>
      <trkpt lat="42.15652" lon="0.82524">
        <ele>758.2</ele>
        <time>2022-05-23 08:58:06</time>
      </trkpt>
      <trkpt lat="42.15651" lon="0.82522">
        <ele>758.4</ele>
        <time>2022-05-23 08:58:07</time>
      </trkpt>
      <trkpt lat="42.1565" lon="0.82519">
        <ele>758.4</ele>
        <time>2022-05-23 08:58:08</time>
      </trkpt>
      <trkpt lat="42.1565" lon="0.82517">
        <ele>758.6</ele>
        <time>2022-05-23 08:58:09</time>
      </trkpt>
      <trkpt lat="42.15649" lon="0.82514">
        <ele>758.8</ele>
        <time>2022-05-23 08:58:10</time>
      </trkpt>
      <trkpt lat="42.15649" lon="0.8251">
        <ele>758.8</ele>
        <time>2022-05-23 08:58:11</time>
      </trkpt>
      <trkpt lat="42.15648" lon="0.82508">
        <ele>759</ele>
        <time>2022-05-23 08:58:12</time>
      </trkpt>
      <trkpt lat="42.15647" lon="0.82505">
        <ele>759.2</ele>
        <time>2022-05-23 08:58:13</time>
      </trkpt>
      <trkpt lat="42.15647" lon="0.82502">
        <ele>759.2</ele>
        <time>2022-05-23 08:58:14</time>
      </trkpt>
      <trkpt lat="42.15647" lon="0.82499">
        <ele>759.4</ele>
        <time>2022-05-23 08:58:15</time>
      </trkpt>
      <trkpt lat="42.15646" lon="0.82496">
        <ele>759.6</ele>
        <time>2022-05-23 08:58:16</time>
      </trkpt>
      <trkpt lat="42.15646" lon="0.82493">
        <ele>759.8</ele>
        <time>2022-05-23 08:58:17</time>
      </trkpt>
      <trkpt lat="42.15646" lon="0.8249">
        <ele>759.8</ele>
        <time>2022-05-23 08:58:18</time>
      </trkpt>
      <trkpt lat="42.15646" lon="0.82487">
        <ele>760</ele>
        <time>2022-05-23 08:58:19</time>
      </trkpt>
      <trkpt lat="42.15645" lon="0.82484">
        <ele>760.2</ele>
        <time>2022-05-23 08:58:20</time>
      </trkpt>
      <trkpt lat="42.15645" lon="0.82481">
        <ele>760.2</ele>
        <time>2022-05-23 08:58:21</time>
      </trkpt>
      <trkpt lat="42.15645" lon="0.82478">
        <ele>760.4</ele>
        <time>2022-05-23 08:58:22</time>
      </trkpt>
      <trkpt lat="42.15644" lon="0.82475">
        <ele>760.6</ele>
        <time>2022-05-23 08:58:23</time>
      </trkpt>
      <trkpt lat="42.15644" lon="0.82472">
        <ele>760.8</ele>
        <time>2022-05-23 08:58:24</time>
      </trkpt>
      <trkpt lat="42.15643" lon="0.82468">
        <ele>760.8</ele>
        <time>2022-05-23 08:58:25</time>
      </trkpt>
      <trkpt lat="42.15643" lon="0.82465">
        <ele>761</ele>
        <time>2022-05-23 08:58:26</time>
      </trkpt>
      <trkpt lat="42.15642" lon="0.82462">
        <ele>761.2</ele>
        <time>2022-05-23 08:58:27</time>
      </trkpt>
      <trkpt lat="42.15641" lon="0.82459">
        <ele>761.2</ele>
        <time>2022-05-23 08:58:28</time>
      </trkpt>
      <trkpt lat="42.15641" lon="0.82456">
        <ele>761.4</ele>
        <time>2022-05-23 08:58:29</time>
      </trkpt>
      <trkpt lat="42.15641" lon="0.82453">
        <ele>761.6</ele>
        <time>2022-05-23 08:58:30</time>
      </trkpt>
      <trkpt lat="42.1564" lon="0.8245">
        <ele>761.6</ele>
        <time>2022-05-23 08:58:31</time>
      </trkpt>
      <trkpt lat="42.15639" lon="0.82447">
        <ele>761.8</ele>
        <time>2022-05-23 08:58:32</time>
      </trkpt>
      <trkpt lat="42.15639" lon="0.82444">
        <ele>762</ele>
        <time>2022-05-23 08:58:33</time>
      </trkpt>
      <trkpt lat="42.15639" lon="0.82441">
        <ele>762</ele>
        <time>2022-05-23 08:58:34</time>
      </trkpt>
      <trkpt lat="42.15638" lon="0.82438">
        <ele>762.2</ele>
        <time>2022-05-23 08:58:35</time>
      </trkpt>
      <trkpt lat="42.15637" lon="0.82435">
        <ele>762.2</ele>
        <time>2022-05-23 08:58:36</time>
      </trkpt>
      <trkpt lat="42.15636" lon="0.82432">
        <ele>762.4</ele>
        <time>2022-05-23 08:58:37</time>
      </trkpt>
      <trkpt lat="42.15636" lon="0.8243">
        <ele>762.6</ele>
        <time>2022-05-23 08:58:38</time>
      </trkpt>
      <trkpt lat="42.15634" lon="0.82427">
        <ele>762.6</ele>
        <time>2022-05-23 08:58:39</time>
      </trkpt>
      <trkpt lat="42.15633" lon="0.82424">
        <ele>762.8</ele>
        <time>2022-05-23 08:58:40</time>
      </trkpt>
      <trkpt lat="42.15632" lon="0.82422">
        <ele>762.8</ele>
        <time>2022-05-23 08:58:41</time>
      </trkpt>
      <trkpt lat="42.15631" lon="0.82419">
        <ele>762.8</ele>
        <time>2022-05-23 08:58:42</time>
      </trkpt>
      <trkpt lat="42.1563" lon="0.82416">
        <ele>763</ele>
        <time>2022-05-23 08:58:43</time>
      </trkpt>
      <trkpt lat="42.15628" lon="0.82413">
        <ele>763</ele>
        <time>2022-05-23 08:58:44</time>
      </trkpt>
      <trkpt lat="42.15627" lon="0.8241">
        <ele>763.2</ele>
        <time>2022-05-23 08:58:45</time>
      </trkpt>
      <trkpt lat="42.15626" lon="0.82408">
        <ele>763.2</ele>
        <time>2022-05-23 08:58:46</time>
      </trkpt>
      <trkpt lat="42.15624" lon="0.82405">
        <ele>763.4</ele>
        <time>2022-05-23 08:58:47</time>
      </trkpt>
      <trkpt lat="42.15623" lon="0.82402">
        <ele>763.4</ele>
        <time>2022-05-23 08:58:48</time>
      </trkpt>
      <trkpt lat="42.15622" lon="0.82399">
        <ele>763.6</ele>
        <time>2022-05-23 08:58:49</time>
      </trkpt>
      <trkpt lat="42.1562" lon="0.82397">
        <ele>763.6</ele>
        <time>2022-05-23 08:58:50</time>
      </trkpt>
      <trkpt lat="42.1562" lon="0.82394">
        <ele>763.8</ele>
        <time>2022-05-23 08:58:51</time>
      </trkpt>
      <trkpt lat="42.15619" lon="0.82391">
        <ele>763.8</ele>
        <time>2022-05-23 08:58:52</time>
      </trkpt>
      <trkpt lat="42.15618" lon="0.82388">
        <ele>764</ele>
        <time>2022-05-23 08:58:53</time>
      </trkpt>
      <trkpt lat="42.15617" lon="0.82385">
        <ele>764.2</ele>
        <time>2022-05-23 08:58:54</time>
      </trkpt>
      <trkpt lat="42.15617" lon="0.82382">
        <ele>764.2</ele>
        <time>2022-05-23 08:58:55</time>
      </trkpt>
      <trkpt lat="42.15617" lon="0.82379">
        <ele>764.4</ele>
        <time>2022-05-23 08:58:56</time>
      </trkpt>
      <trkpt lat="42.15616" lon="0.82375">
        <ele>764.4</ele>
        <time>2022-05-23 08:58:57</time>
      </trkpt>
      <trkpt lat="42.15616" lon="0.82372">
        <ele>764.6</ele>
        <time>2022-05-23 08:58:58</time>
      </trkpt>
      <trkpt lat="42.15616" lon="0.82369">
        <ele>764.8</ele>
        <time>2022-05-23 08:58:59</time>
      </trkpt>
      <trkpt lat="42.15615" lon="0.82366">
        <ele>765</ele>
        <time>2022-05-23 08:59:00</time>
      </trkpt>
      <trkpt lat="42.15615" lon="0.82363">
        <ele>765.2</ele>
        <time>2022-05-23 08:59:01</time>
      </trkpt>
      <trkpt lat="42.15615" lon="0.8236">
        <ele>765.2</ele>
        <time>2022-05-23 08:59:02</time>
      </trkpt>
      <trkpt lat="42.15615" lon="0.82357">
        <ele>765.4</ele>
        <time>2022-05-23 08:59:03</time>
      </trkpt>
      <trkpt lat="42.15615" lon="0.82354">
        <ele>765.6</ele>
        <time>2022-05-23 08:59:04</time>
      </trkpt>
      <trkpt lat="42.15615" lon="0.82351">
        <ele>765.8</ele>
        <time>2022-05-23 08:59:05</time>
      </trkpt>
      <trkpt lat="42.15615" lon="0.82348">
        <ele>766</ele>
        <time>2022-05-23 08:59:06</time>
      </trkpt>
      <trkpt lat="42.15615" lon="0.82345">
        <ele>766</ele>
        <time>2022-05-23 08:59:07</time>
      </trkpt>
      <trkpt lat="42.15615" lon="0.82342">
        <ele>766.2</ele>
        <time>2022-05-23 08:59:08</time>
      </trkpt>
      <trkpt lat="42.15615" lon="0.82338">
        <ele>766.4</ele>
        <time>2022-05-23 08:59:09</time>
      </trkpt>
      <trkpt lat="42.15615" lon="0.82335">
        <ele>766.6</ele>
        <time>2022-05-23 08:59:10</time>
      </trkpt>
      <trkpt lat="42.15615" lon="0.82332">
        <ele>766.6</ele>
        <time>2022-05-23 08:59:11</time>
      </trkpt>
      <trkpt lat="42.15615" lon="0.82328">
        <ele>766.8</ele>
        <time>2022-05-23 08:59:12</time>
      </trkpt>
      <trkpt lat="42.15615" lon="0.82325">
        <ele>767</ele>
        <time>2022-05-23 08:59:13</time>
      </trkpt>
      <trkpt lat="42.15615" lon="0.82323">
        <ele>767.2</ele>
        <time>2022-05-23 08:59:14</time>
      </trkpt>
      <trkpt lat="42.15615" lon="0.8232">
        <ele>767.2</ele>
        <time>2022-05-23 08:59:15</time>
      </trkpt>
      <trkpt lat="42.15616" lon="0.82317">
        <ele>767.4</ele>
        <time>2022-05-23 08:59:16</time>
      </trkpt>
      <trkpt lat="42.15616" lon="0.82314">
        <ele>767.6</ele>
        <time>2022-05-23 08:59:17</time>
      </trkpt>
      <trkpt lat="42.15616" lon="0.82311">
        <ele>767.8</ele>
        <time>2022-05-23 08:59:18</time>
      </trkpt>
      <trkpt lat="42.15617" lon="0.82309">
        <ele>767.8</ele>
        <time>2022-05-23 08:59:19</time>
      </trkpt>
      <trkpt lat="42.15617" lon="0.82306">
        <ele>768</ele>
        <time>2022-05-23 08:59:20</time>
      </trkpt>
      <trkpt lat="42.15617" lon="0.82303">
        <ele>768.2</ele>
        <time>2022-05-23 08:59:21</time>
      </trkpt>
      <trkpt lat="42.15617" lon="0.823">
        <ele>768.4</ele>
        <time>2022-05-23 08:59:22</time>
      </trkpt>
      <trkpt lat="42.15617" lon="0.82298">
        <ele>768.6</ele>
        <time>2022-05-23 08:59:23</time>
      </trkpt>
      <trkpt lat="42.15617" lon="0.82294">
        <ele>768.8</ele>
        <time>2022-05-23 08:59:24</time>
      </trkpt>
      <trkpt lat="42.15617" lon="0.82291">
        <ele>769</ele>
        <time>2022-05-23 08:59:25</time>
      </trkpt>
      <trkpt lat="42.15617" lon="0.82288">
        <ele>769</ele>
        <time>2022-05-23 08:59:26</time>
      </trkpt>
      <trkpt lat="42.15617" lon="0.82285">
        <ele>769.2</ele>
        <time>2022-05-23 08:59:27</time>
      </trkpt>
      <trkpt lat="42.15617" lon="0.82282">
        <ele>769.4</ele>
        <time>2022-05-23 08:59:28</time>
      </trkpt>
      <trkpt lat="42.15617" lon="0.82279">
        <ele>769.6</ele>
        <time>2022-05-23 08:59:29</time>
      </trkpt>
      <trkpt lat="42.15617" lon="0.82276">
        <ele>769.8</ele>
        <time>2022-05-23 08:59:30</time>
      </trkpt>
      <trkpt lat="42.15617" lon="0.82273">
        <ele>770</ele>
        <time>2022-05-23 08:59:31</time>
      </trkpt>
      <trkpt lat="42.15617" lon="0.8227">
        <ele>770.2</ele>
        <time>2022-05-23 08:59:32</time>
      </trkpt>
      <trkpt lat="42.15617" lon="0.82268">
        <ele>770.2</ele>
        <time>2022-05-23 08:59:33</time>
      </trkpt>
      <trkpt lat="42.15617" lon="0.82265">
        <ele>770.4</ele>
        <time>2022-05-23 08:59:34</time>
      </trkpt>
      <trkpt lat="42.15617" lon="0.82262">
        <ele>770.6</ele>
        <time>2022-05-23 08:59:35</time>
      </trkpt>
      <trkpt lat="42.15618" lon="0.8226">
        <ele>770.8</ele>
        <time>2022-05-23 08:59:36</time>
      </trkpt>
      <trkpt lat="42.15618" lon="0.82257">
        <ele>771</ele>
        <time>2022-05-23 08:59:37</time>
      </trkpt>
      <trkpt lat="42.15618" lon="0.82254">
        <ele>771.2</ele>
        <time>2022-05-23 08:59:38</time>
      </trkpt>
      <trkpt lat="42.15618" lon="0.82252">
        <ele>771.2</ele>
        <time>2022-05-23 08:59:39</time>
      </trkpt>
      <trkpt lat="42.15618" lon="0.82249">
        <ele>771.4</ele>
        <time>2022-05-23 08:59:40</time>
      </trkpt>
      <trkpt lat="42.15618" lon="0.82246">
        <ele>771.6</ele>
        <time>2022-05-23 08:59:41</time>
      </trkpt>
      <trkpt lat="42.15618" lon="0.82244">
        <ele>771.8</ele>
        <time>2022-05-23 08:59:42</time>
      </trkpt>
      <trkpt lat="42.15618" lon="0.82241">
        <ele>772</ele>
        <time>2022-05-23 08:59:43</time>
      </trkpt>
      <trkpt lat="42.15618" lon="0.82238">
        <ele>772.2</ele>
        <time>2022-05-23 08:59:44</time>
      </trkpt>
      <trkpt lat="42.15618" lon="0.82235">
        <ele>772.2</ele>
        <time>2022-05-23 08:59:45</time>
      </trkpt>
      <trkpt lat="42.15618" lon="0.82232">
        <ele>772.4</ele>
        <time>2022-05-23 08:59:46</time>
      </trkpt>
      <trkpt lat="42.15619" lon="0.8223">
        <ele>772.6</ele>
        <time>2022-05-23 08:59:47</time>
      </trkpt>
      <trkpt lat="42.15619" lon="0.82227">
        <ele>772.8</ele>
        <time>2022-05-23 08:59:48</time>
      </trkpt>
      <trkpt lat="42.1562" lon="0.82224">
        <ele>773</ele>
        <time>2022-05-23 08:59:49</time>
      </trkpt>
      <trkpt lat="42.1562" lon="0.82221">
        <ele>773.2</ele>
        <time>2022-05-23 08:59:50</time>
      </trkpt>
      <trkpt lat="42.15621" lon="0.82218">
        <ele>773.4</ele>
        <time>2022-05-23 08:59:51</time>
      </trkpt>
      <trkpt lat="42.15621" lon="0.82215">
        <ele>773.6</ele>
        <time>2022-05-23 08:59:52</time>
      </trkpt>
      <trkpt lat="42.15622" lon="0.82213">
        <ele>773.8</ele>
        <time>2022-05-23 08:59:53</time>
      </trkpt>
      <trkpt lat="42.15622" lon="0.8221">
        <ele>774</ele>
        <time>2022-05-23 08:59:54</time>
      </trkpt>
      <trkpt lat="42.15623" lon="0.82207">
        <ele>774.2</ele>
        <time>2022-05-23 08:59:55</time>
      </trkpt>
      <trkpt lat="42.15624" lon="0.82205">
        <ele>774.4</ele>
        <time>2022-05-23 08:59:56</time>
      </trkpt>
      <trkpt lat="42.15625" lon="0.82202">
        <ele>774.6</ele>
        <time>2022-05-23 08:59:57</time>
      </trkpt>
      <trkpt lat="42.15625" lon="0.82199">
        <ele>774.8</ele>
        <time>2022-05-23 08:59:58</time>
      </trkpt>
      <trkpt lat="42.15627" lon="0.82197">
        <ele>775</ele>
        <time>2022-05-23 08:59:59</time>
      </trkpt>
      <trkpt lat="42.15628" lon="0.82195">
        <ele>775.2</ele>
        <time>2022-05-23 09:00:00</time>
      </trkpt>
      <trkpt lat="42.1563" lon="0.82192">
        <ele>775.4</ele>
        <time>2022-05-23 09:00:01</time>
      </trkpt>
      <trkpt lat="42.15631" lon="0.8219">
        <ele>775.6</ele>
        <time>2022-05-23 09:00:02</time>
      </trkpt>
      <trkpt lat="42.15633" lon="0.82187">
        <ele>775.6</ele>
        <time>2022-05-23 09:00:03</time>
      </trkpt>
      <trkpt lat="42.15635" lon="0.82185">
        <ele>775.8</ele>
        <time>2022-05-23 09:00:04</time>
      </trkpt>
      <trkpt lat="42.15637" lon="0.82182">
        <ele>775.8</ele>
        <time>2022-05-23 09:00:05</time>
      </trkpt>
      <trkpt lat="42.15639" lon="0.82178">
        <ele>776</ele>
        <time>2022-05-23 09:00:06</time>
      </trkpt>
      <trkpt lat="42.15641" lon="0.82175">
        <ele>776</ele>
        <time>2022-05-23 09:00:07</time>
      </trkpt>
      <trkpt lat="42.15644" lon="0.82172">
        <ele>776</ele>
        <time>2022-05-23 09:00:08</time>
      </trkpt>
      <trkpt lat="42.15646" lon="0.82168">
        <ele>776</ele>
        <time>2022-05-23 09:00:09</time>
      </trkpt>
      <trkpt lat="42.15649" lon="0.82164">
        <ele>776</ele>
        <time>2022-05-23 09:00:10</time>
      </trkpt>
      <trkpt lat="42.15652" lon="0.82161">
        <ele>776</ele>
        <time>2022-05-23 09:00:11</time>
      </trkpt>
      <trkpt lat="42.15656" lon="0.82157">
        <ele>775.8</ele>
        <time>2022-05-23 09:00:12</time>
      </trkpt>
      <trkpt lat="42.15659" lon="0.82153">
        <ele>775.8</ele>
        <time>2022-05-23 09:00:13</time>
      </trkpt>
      <trkpt lat="42.15663" lon="0.82149">
        <ele>775.8</ele>
        <time>2022-05-23 09:00:14</time>
      </trkpt>
      <trkpt lat="42.15666" lon="0.82145">
        <ele>775.6</ele>
        <time>2022-05-23 09:00:15</time>
      </trkpt>
      <trkpt lat="42.15669" lon="0.82141">
        <ele>775.6</ele>
        <time>2022-05-23 09:00:16</time>
      </trkpt>
      <trkpt lat="42.15672" lon="0.82138">
        <ele>775.6</ele>
        <time>2022-05-23 09:00:17</time>
      </trkpt>
      <trkpt lat="42.15676" lon="0.82133">
        <ele>775.6</ele>
        <time>2022-05-23 09:00:18</time>
      </trkpt>
      <trkpt lat="42.15679" lon="0.82129">
        <ele>775.4</ele>
        <time>2022-05-23 09:00:19</time>
      </trkpt>
      <trkpt lat="42.15682" lon="0.82125">
        <ele>775.4</ele>
        <time>2022-05-23 09:00:20</time>
      </trkpt>
      <trkpt lat="42.15685" lon="0.82121">
        <ele>775.4</ele>
        <time>2022-05-23 09:00:21</time>
      </trkpt>
      <trkpt lat="42.15688" lon="0.82115">
        <ele>775.4</ele>
        <time>2022-05-23 09:00:22</time>
      </trkpt>
      <trkpt lat="42.1569" lon="0.8211">
        <ele>775.4</ele>
        <time>2022-05-23 09:00:23</time>
      </trkpt>
      <trkpt lat="42.15693" lon="0.82103">
        <ele>775.2</ele>
        <time>2022-05-23 09:00:24</time>
      </trkpt>
      <trkpt lat="42.15694" lon="0.82097">
        <ele>775.2</ele>
        <time>2022-05-23 09:00:25</time>
      </trkpt>
      <trkpt lat="42.15694" lon="0.82091">
        <ele>775.2</ele>
        <time>2022-05-23 09:00:26</time>
      </trkpt>
      <trkpt lat="42.15695" lon="0.82084">
        <ele>775.2</ele>
        <time>2022-05-23 09:00:27</time>
      </trkpt>
      <trkpt lat="42.15694" lon="0.82077">
        <ele>775.2</ele>
        <time>2022-05-23 09:00:28</time>
      </trkpt>
      <trkpt lat="42.15694" lon="0.8207">
        <ele>775.2</ele>
        <time>2022-05-23 09:00:29</time>
      </trkpt>
      <trkpt lat="42.15693" lon="0.82064">
        <ele>775.2</ele>
        <time>2022-05-23 09:00:30</time>
      </trkpt>
      <trkpt lat="42.15691" lon="0.82057">
        <ele>775</ele>
        <time>2022-05-23 09:00:31</time>
      </trkpt>
      <trkpt lat="42.15689" lon="0.82051">
        <ele>775</ele>
        <time>2022-05-23 09:00:32</time>
      </trkpt>
      <trkpt lat="42.15687" lon="0.82046">
        <ele>775</ele>
        <time>2022-05-23 09:00:33</time>
      </trkpt>
      <trkpt lat="42.15684" lon="0.8204">
        <ele>775</ele>
        <time>2022-05-23 09:00:34</time>
      </trkpt>
      <trkpt lat="42.15682" lon="0.82035">
        <ele>775</ele>
        <time>2022-05-23 09:00:35</time>
      </trkpt>
      <trkpt lat="42.15679" lon="0.82031">
        <ele>775</ele>
        <time>2022-05-23 09:00:36</time>
      </trkpt>
      <trkpt lat="42.15676" lon="0.82027">
        <ele>775</ele>
        <time>2022-05-23 09:00:37</time>
      </trkpt>
      <trkpt lat="42.15673" lon="0.82022">
        <ele>775</ele>
        <time>2022-05-23 09:00:38</time>
      </trkpt>
      <trkpt lat="42.1567" lon="0.82018">
        <ele>775</ele>
        <time>2022-05-23 09:00:39</time>
      </trkpt>
      <trkpt lat="42.15667" lon="0.82014">
        <ele>775</ele>
        <time>2022-05-23 09:00:40</time>
      </trkpt>
      <trkpt lat="42.15665" lon="0.82009">
        <ele>775</ele>
        <time>2022-05-23 09:00:41</time>
      </trkpt>
      <trkpt lat="42.15663" lon="0.82004">
        <ele>775</ele>
        <time>2022-05-23 09:00:42</time>
      </trkpt>
      <trkpt lat="42.15662" lon="0.81998">
        <ele>775</ele>
        <time>2022-05-23 09:00:43</time>
      </trkpt>
      <trkpt lat="42.15662" lon="0.81991">
        <ele>775</ele>
        <time>2022-05-23 09:00:44</time>
      </trkpt>
      <trkpt lat="42.15662" lon="0.81985">
        <ele>775</ele>
        <time>2022-05-23 09:00:45</time>
      </trkpt>
      <trkpt lat="42.15664" lon="0.8198">
        <ele>775</ele>
        <time>2022-05-23 09:00:46</time>
      </trkpt>
      <trkpt lat="42.15666" lon="0.81974">
        <ele>775</ele>
        <time>2022-05-23 09:00:47</time>
      </trkpt>
      <trkpt lat="42.15668" lon="0.81969">
        <ele>775.2</ele>
        <time>2022-05-23 09:00:48</time>
      </trkpt>
      <trkpt lat="42.15671" lon="0.81964">
        <ele>775.2</ele>
        <time>2022-05-23 09:00:49</time>
      </trkpt>
      <trkpt lat="42.15674" lon="0.8196">
        <ele>775.2</ele>
        <time>2022-05-23 09:00:50</time>
      </trkpt>
      <trkpt lat="42.15677" lon="0.81957">
        <ele>775.2</ele>
        <time>2022-05-23 09:00:51</time>
      </trkpt>
      <trkpt lat="42.15681" lon="0.81954">
        <ele>775.2</ele>
        <time>2022-05-23 09:00:52</time>
      </trkpt>
      <trkpt lat="42.15685" lon="0.81951">
        <ele>775.2</ele>
        <time>2022-05-23 09:00:53</time>
      </trkpt>
      <trkpt lat="42.1569" lon="0.81948">
        <ele>775.2</ele>
        <time>2022-05-23 09:00:54</time>
      </trkpt>
      <trkpt lat="42.15693" lon="0.81945">
        <ele>775.4</ele>
        <time>2022-05-23 09:00:55</time>
      </trkpt>
      <trkpt lat="42.15697" lon="0.81943">
        <ele>775.4</ele>
        <time>2022-05-23 09:00:56</time>
      </trkpt>
      <trkpt lat="42.15702" lon="0.8194">
        <ele>775.4</ele>
        <time>2022-05-23 09:00:57</time>
      </trkpt>
      <trkpt lat="42.15706" lon="0.81937">
        <ele>775.4</ele>
        <time>2022-05-23 09:00:58</time>
      </trkpt>
      <trkpt lat="42.15709" lon="0.81935">
        <ele>775.4</ele>
        <time>2022-05-23 09:00:59</time>
      </trkpt>
      <trkpt lat="42.15713" lon="0.81932">
        <ele>775.4</ele>
        <time>2022-05-23 09:01:00</time>
      </trkpt>
      <trkpt lat="42.15718" lon="0.81929">
        <ele>775.4</ele>
        <time>2022-05-23 09:01:01</time>
      </trkpt>
      <trkpt lat="42.15721" lon="0.81926">
        <ele>775.4</ele>
        <time>2022-05-23 09:01:02</time>
      </trkpt>
      <trkpt lat="42.15726" lon="0.81923">
        <ele>775.4</ele>
        <time>2022-05-23 09:01:03</time>
      </trkpt>
      <trkpt lat="42.15729" lon="0.8192">
        <ele>775.6</ele>
        <time>2022-05-23 09:01:04</time>
      </trkpt>
      <trkpt lat="42.15733" lon="0.81917">
        <ele>775.6</ele>
        <time>2022-05-23 09:01:05</time>
      </trkpt>
      <trkpt lat="42.15737" lon="0.81914">
        <ele>775.6</ele>
        <time>2022-05-23 09:01:06</time>
      </trkpt>
      <trkpt lat="42.15741" lon="0.81911">
        <ele>775.6</ele>
        <time>2022-05-23 09:01:07</time>
      </trkpt>
      <trkpt lat="42.15744" lon="0.81907">
        <ele>775.8</ele>
        <time>2022-05-23 09:01:08</time>
      </trkpt>
      <trkpt lat="42.15748" lon="0.81904">
        <ele>775.8</ele>
        <time>2022-05-23 09:01:09</time>
      </trkpt>
      <trkpt lat="42.15751" lon="0.819">
        <ele>775.8</ele>
        <time>2022-05-23 09:01:10</time>
      </trkpt>
      <trkpt lat="42.15754" lon="0.81896">
        <ele>775.8</ele>
        <time>2022-05-23 09:01:11</time>
      </trkpt>
      <trkpt lat="42.15757" lon="0.81891">
        <ele>776</ele>
        <time>2022-05-23 09:01:12</time>
      </trkpt>
      <trkpt lat="42.1576" lon="0.81887">
        <ele>776</ele>
        <time>2022-05-23 09:01:13</time>
      </trkpt>
      <trkpt lat="42.15762" lon="0.81882">
        <ele>776</ele>
        <time>2022-05-23 09:01:14</time>
      </trkpt>
      <trkpt lat="42.15765" lon="0.81877">
        <ele>776.2</ele>
        <time>2022-05-23 09:01:15</time>
      </trkpt>
      <trkpt lat="42.15767" lon="0.81872">
        <ele>776.2</ele>
        <time>2022-05-23 09:01:16</time>
      </trkpt>
      <trkpt lat="42.15769" lon="0.81867">
        <ele>776.2</ele>
        <time>2022-05-23 09:01:17</time>
      </trkpt>
      <trkpt lat="42.15771" lon="0.81861">
        <ele>776.2</ele>
        <time>2022-05-23 09:01:18</time>
      </trkpt>
      <trkpt lat="42.15773" lon="0.81856">
        <ele>776.4</ele>
        <time>2022-05-23 09:01:19</time>
      </trkpt>
      <trkpt lat="42.15775" lon="0.81851">
        <ele>776.4</ele>
        <time>2022-05-23 09:01:20</time>
      </trkpt>
      <trkpt lat="42.15777" lon="0.81846">
        <ele>776.4</ele>
        <time>2022-05-23 09:01:21</time>
      </trkpt>
      <trkpt lat="42.15779" lon="0.81841">
        <ele>776.6</ele>
        <time>2022-05-23 09:01:22</time>
      </trkpt>
      <trkpt lat="42.1578" lon="0.81835">
        <ele>776.6</ele>
        <time>2022-05-23 09:01:23</time>
      </trkpt>
      <trkpt lat="42.15782" lon="0.8183">
        <ele>776.8</ele>
        <time>2022-05-23 09:01:24</time>
      </trkpt>
      <trkpt lat="42.15783" lon="0.81825">
        <ele>776.8</ele>
        <time>2022-05-23 09:01:25</time>
      </trkpt>
      <trkpt lat="42.15784" lon="0.81819">
        <ele>777</ele>
        <time>2022-05-23 09:01:26</time>
      </trkpt>
      <trkpt lat="42.15784" lon="0.81814">
        <ele>777</ele>
        <time>2022-05-23 09:01:27</time>
      </trkpt>
      <trkpt lat="42.15784" lon="0.81808">
        <ele>777.2</ele>
        <time>2022-05-23 09:01:28</time>
      </trkpt>
      <trkpt lat="42.15783" lon="0.81802">
        <ele>777.2</ele>
        <time>2022-05-23 09:01:29</time>
      </trkpt>
      <trkpt lat="42.15782" lon="0.81797">
        <ele>777.4</ele>
        <time>2022-05-23 09:01:30</time>
      </trkpt>
      <trkpt lat="42.15781" lon="0.81791">
        <ele>777.6</ele>
        <time>2022-05-23 09:01:31</time>
      </trkpt>
      <trkpt lat="42.1578" lon="0.81786">
        <ele>777.8</ele>
        <time>2022-05-23 09:01:32</time>
      </trkpt>
      <trkpt lat="42.15779" lon="0.81781">
        <ele>778</ele>
        <time>2022-05-23 09:01:33</time>
      </trkpt>
      <trkpt lat="42.15778" lon="0.81776">
        <ele>778.2</ele>
        <time>2022-05-23 09:01:34</time>
      </trkpt>
      <trkpt lat="42.15776" lon="0.81772">
        <ele>778.2</ele>
        <time>2022-05-23 09:01:35</time>
      </trkpt>
      <trkpt lat="42.15774" lon="0.81767">
        <ele>778.4</ele>
        <time>2022-05-23 09:01:36</time>
      </trkpt>
      <trkpt lat="42.15773" lon="0.81762">
        <ele>778.6</ele>
        <time>2022-05-23 09:01:37</time>
      </trkpt>
      <trkpt lat="42.15771" lon="0.81758">
        <ele>778.8</ele>
        <time>2022-05-23 09:01:38</time>
      </trkpt>
      <trkpt lat="42.1577" lon="0.81753">
        <ele>779</ele>
        <time>2022-05-23 09:01:39</time>
      </trkpt>
      <trkpt lat="42.15768" lon="0.81748">
        <ele>779.2</ele>
        <time>2022-05-23 09:01:40</time>
      </trkpt>
      <trkpt lat="42.15766" lon="0.81744">
        <ele>779.4</ele>
        <time>2022-05-23 09:01:41</time>
      </trkpt>
      <trkpt lat="42.15765" lon="0.81739">
        <ele>779.4</ele>
        <time>2022-05-23 09:01:42</time>
      </trkpt>
      <trkpt lat="42.15763" lon="0.81735">
        <ele>779.6</ele>
        <time>2022-05-23 09:01:43</time>
      </trkpt>
      <trkpt lat="42.15762" lon="0.8173">
        <ele>779.8</ele>
        <time>2022-05-23 09:01:44</time>
      </trkpt>
      <trkpt lat="42.1576" lon="0.81725">
        <ele>780</ele>
        <time>2022-05-23 09:01:45</time>
      </trkpt>
      <trkpt lat="42.15759" lon="0.8172">
        <ele>780.2</ele>
        <time>2022-05-23 09:01:46</time>
      </trkpt>
      <trkpt lat="42.15758" lon="0.81715">
        <ele>780.2</ele>
        <time>2022-05-23 09:01:47</time>
      </trkpt>
      <trkpt lat="42.15757" lon="0.81711">
        <ele>780.4</ele>
        <time>2022-05-23 09:01:48</time>
      </trkpt>
      <trkpt lat="42.15755" lon="0.81706">
        <ele>780.6</ele>
        <time>2022-05-23 09:01:49</time>
      </trkpt>
      <trkpt lat="42.15754" lon="0.81702">
        <ele>780.8</ele>
        <time>2022-05-23 09:01:50</time>
      </trkpt>
      <trkpt lat="42.15753" lon="0.81697">
        <ele>781</ele>
        <time>2022-05-23 09:01:51</time>
      </trkpt>
      <trkpt lat="42.15752" lon="0.81693">
        <ele>781.2</ele>
        <time>2022-05-23 09:01:52</time>
      </trkpt>
      <trkpt lat="42.15751" lon="0.81689">
        <ele>781.2</ele>
        <time>2022-05-23 09:01:53</time>
      </trkpt>
      <trkpt lat="42.1575" lon="0.81684">
        <ele>781.4</ele>
        <time>2022-05-23 09:01:54</time>
      </trkpt>
      <trkpt lat="42.1575" lon="0.81679">
        <ele>781.6</ele>
        <time>2022-05-23 09:01:55</time>
      </trkpt>
      <trkpt lat="42.15749" lon="0.81675">
        <ele>781.8</ele>
        <time>2022-05-23 09:01:56</time>
      </trkpt>
      <trkpt lat="42.15748" lon="0.8167">
        <ele>782</ele>
        <time>2022-05-23 09:01:57</time>
      </trkpt>
      <trkpt lat="42.15748" lon="0.81666">
        <ele>782</ele>
        <time>2022-05-23 09:01:58</time>
      </trkpt>
      <trkpt lat="42.15747" lon="0.81661">
        <ele>782.2</ele>
        <time>2022-05-23 09:01:59</time>
      </trkpt>
      <trkpt lat="42.15746" lon="0.81657">
        <ele>782.4</ele>
        <time>2022-05-23 09:02:00</time>
      </trkpt>
      <trkpt lat="42.15745" lon="0.81653">
        <ele>782.6</ele>
        <time>2022-05-23 09:02:01</time>
      </trkpt>
      <trkpt lat="42.15744" lon="0.81649">
        <ele>782.8</ele>
        <time>2022-05-23 09:02:02</time>
      </trkpt>
      <trkpt lat="42.15744" lon="0.81645">
        <ele>783</ele>
        <time>2022-05-23 09:02:03</time>
      </trkpt>
      <trkpt lat="42.15744" lon="0.81641">
        <ele>783</ele>
        <time>2022-05-23 09:02:04</time>
      </trkpt>
      <trkpt lat="42.15744" lon="0.81637">
        <ele>783.2</ele>
        <time>2022-05-23 09:02:05</time>
      </trkpt>
      <trkpt lat="42.15744" lon="0.81633">
        <ele>783.4</ele>
        <time>2022-05-23 09:02:06</time>
      </trkpt>
      <trkpt lat="42.15745" lon="0.81629">
        <ele>783.6</ele>
        <time>2022-05-23 09:02:07</time>
      </trkpt>
      <trkpt lat="42.15746" lon="0.81625">
        <ele>783.8</ele>
        <time>2022-05-23 09:02:08</time>
      </trkpt>
      <trkpt lat="42.15747" lon="0.81621">
        <ele>784</ele>
        <time>2022-05-23 09:02:09</time>
      </trkpt>
      <trkpt lat="42.15748" lon="0.81617">
        <ele>784</ele>
        <time>2022-05-23 09:02:10</time>
      </trkpt>
      <trkpt lat="42.15749" lon="0.81614">
        <ele>784.2</ele>
        <time>2022-05-23 09:02:11</time>
      </trkpt>
      <trkpt lat="42.15751" lon="0.81611">
        <ele>784.4</ele>
        <time>2022-05-23 09:02:12</time>
      </trkpt>
      <trkpt lat="42.15753" lon="0.81607">
        <ele>784.6</ele>
        <time>2022-05-23 09:02:13</time>
      </trkpt>
      <trkpt lat="42.15755" lon="0.81604">
        <ele>784.8</ele>
        <time>2022-05-23 09:02:14</time>
      </trkpt>
      <trkpt lat="42.15757" lon="0.81601">
        <ele>784.8</ele>
        <time>2022-05-23 09:02:15</time>
      </trkpt>
      <trkpt lat="42.15759" lon="0.81598">
        <ele>785</ele>
        <time>2022-05-23 09:02:16</time>
      </trkpt>
      <trkpt lat="42.15761" lon="0.81595">
        <ele>785.2</ele>
        <time>2022-05-23 09:02:17</time>
      </trkpt>
      <trkpt lat="42.15764" lon="0.81592">
        <ele>785.2</ele>
        <time>2022-05-23 09:02:18</time>
      </trkpt>
      <trkpt lat="42.15767" lon="0.8159">
        <ele>785.4</ele>
        <time>2022-05-23 09:02:19</time>
      </trkpt>
      <trkpt lat="42.15769" lon="0.81587">
        <ele>785.6</ele>
        <time>2022-05-23 09:02:20</time>
      </trkpt>
      <trkpt lat="42.15772" lon="0.81584">
        <ele>785.6</ele>
        <time>2022-05-23 09:02:21</time>
      </trkpt>
      <trkpt lat="42.15775" lon="0.81581">
        <ele>785.8</ele>
        <time>2022-05-23 09:02:22</time>
      </trkpt>
      <trkpt lat="42.15779" lon="0.81579">
        <ele>785.8</ele>
        <time>2022-05-23 09:02:23</time>
      </trkpt>
      <trkpt lat="42.15782" lon="0.81576">
        <ele>786</ele>
        <time>2022-05-23 09:02:24</time>
      </trkpt>
      <trkpt lat="42.15785" lon="0.81574">
        <ele>786</ele>
        <time>2022-05-23 09:02:25</time>
      </trkpt>
      <trkpt lat="42.15787" lon="0.81571">
        <ele>786</ele>
        <time>2022-05-23 09:02:26</time>
      </trkpt>
      <trkpt lat="42.1579" lon="0.81568">
        <ele>786.2</ele>
        <time>2022-05-23 09:02:27</time>
      </trkpt>
      <trkpt lat="42.15793" lon="0.81565">
        <ele>786.2</ele>
        <time>2022-05-23 09:02:28</time>
      </trkpt>
      <trkpt lat="42.15794" lon="0.81561">
        <ele>786.4</ele>
        <time>2022-05-23 09:02:29</time>
      </trkpt>
      <trkpt lat="42.15796" lon="0.81557">
        <ele>786.4</ele>
        <time>2022-05-23 09:02:30</time>
      </trkpt>
      <trkpt lat="42.15797" lon="0.81552">
        <ele>786.6</ele>
        <time>2022-05-23 09:02:31</time>
      </trkpt>
      <trkpt lat="42.15797" lon="0.81547">
        <ele>786.6</ele>
        <time>2022-05-23 09:02:32</time>
      </trkpt>
      <trkpt lat="42.15797" lon="0.81542">
        <ele>786.8</ele>
        <time>2022-05-23 09:02:33</time>
      </trkpt>
      <trkpt lat="42.15797" lon="0.81538">
        <ele>787</ele>
        <time>2022-05-23 09:02:34</time>
      </trkpt>
      <trkpt lat="42.15796" lon="0.81533">
        <ele>787</ele>
        <time>2022-05-23 09:02:35</time>
      </trkpt>
      <trkpt lat="42.15794" lon="0.81529">
        <ele>787.2</ele>
        <time>2022-05-23 09:02:36</time>
      </trkpt>
      <trkpt lat="42.15793" lon="0.81526">
        <ele>787.4</ele>
        <time>2022-05-23 09:02:37</time>
      </trkpt>
      <trkpt lat="42.15791" lon="0.81523">
        <ele>787.6</ele>
        <time>2022-05-23 09:02:38</time>
      </trkpt>
      <trkpt lat="42.15789" lon="0.8152">
        <ele>787.8</ele>
        <time>2022-05-23 09:02:39</time>
      </trkpt>
      <trkpt lat="42.15787" lon="0.81517">
        <ele>788</ele>
        <time>2022-05-23 09:02:40</time>
      </trkpt>
      <trkpt lat="42.15786" lon="0.81514">
        <ele>788.2</ele>
        <time>2022-05-23 09:02:41</time>
      </trkpt>
      <trkpt lat="42.15784" lon="0.81511">
        <ele>788.2</ele>
        <time>2022-05-23 09:02:42</time>
      </trkpt>
      <trkpt lat="42.15782" lon="0.81509">
        <ele>788.4</ele>
        <time>2022-05-23 09:02:43</time>
      </trkpt>
      <trkpt lat="42.1578" lon="0.81506">
        <ele>788.6</ele>
        <time>2022-05-23 09:02:44</time>
      </trkpt>
      <trkpt lat="42.15779" lon="0.81504">
        <ele>788.8</ele>
        <time>2022-05-23 09:02:45</time>
      </trkpt>
      <trkpt lat="42.15777" lon="0.81501">
        <ele>789</ele>
        <time>2022-05-23 09:02:46</time>
      </trkpt>
      <trkpt lat="42.15776" lon="0.81498">
        <ele>789.2</ele>
        <time>2022-05-23 09:02:47</time>
      </trkpt>
      <trkpt lat="42.15774" lon="0.81495">
        <ele>789.4</ele>
        <time>2022-05-23 09:02:48</time>
      </trkpt>
      <trkpt lat="42.15773" lon="0.81493">
        <ele>789.4</ele>
        <time>2022-05-23 09:02:49</time>
      </trkpt>
      <trkpt lat="42.15772" lon="0.8149">
        <ele>789.6</ele>
        <time>2022-05-23 09:02:50</time>
      </trkpt>
      <trkpt lat="42.15772" lon="0.81487">
        <ele>789.8</ele>
        <time>2022-05-23 09:02:51</time>
      </trkpt>
      <trkpt lat="42.15771" lon="0.81484">
        <ele>790</ele>
        <time>2022-05-23 09:02:52</time>
      </trkpt>
      <trkpt lat="42.15771" lon="0.81481">
        <ele>790.2</ele>
        <time>2022-05-23 09:02:53</time>
      </trkpt>
      <trkpt lat="42.1577" lon="0.81478">
        <ele>790.4</ele>
        <time>2022-05-23 09:02:54</time>
      </trkpt>
      <trkpt lat="42.1577" lon="0.81475">
        <ele>790.4</ele>
        <time>2022-05-23 09:02:55</time>
      </trkpt>
      <trkpt lat="42.15769" lon="0.81472">
        <ele>790.6</ele>
        <time>2022-05-23 09:02:56</time>
      </trkpt>
      <trkpt lat="42.15768" lon="0.81469">
        <ele>790.8</ele>
        <time>2022-05-23 09:02:57</time>
      </trkpt>
      <trkpt lat="42.15768" lon="0.81465">
        <ele>791</ele>
        <time>2022-05-23 09:02:58</time>
      </trkpt>
      <trkpt lat="42.15767" lon="0.81462">
        <ele>791</ele>
        <time>2022-05-23 09:02:59</time>
      </trkpt>
      <trkpt lat="42.15768" lon="0.81458">
        <ele>791.2</ele>
        <time>2022-05-23 09:03:00</time>
      </trkpt>
      <trkpt lat="42.15768" lon="0.81455">
        <ele>791.4</ele>
        <time>2022-05-23 09:03:01</time>
      </trkpt>
      <trkpt lat="42.15768" lon="0.81452">
        <ele>791.4</ele>
        <time>2022-05-23 09:03:02</time>
      </trkpt>
      <trkpt lat="42.15768" lon="0.81449">
        <ele>791.6</ele>
        <time>2022-05-23 09:03:03</time>
      </trkpt>
      <trkpt lat="42.15768" lon="0.81445">
        <ele>791.8</ele>
        <time>2022-05-23 09:03:04</time>
      </trkpt>
      <trkpt lat="42.15768" lon="0.81442">
        <ele>792</ele>
        <time>2022-05-23 09:03:05</time>
      </trkpt>
      <trkpt lat="42.15768" lon="0.81439">
        <ele>792</ele>
        <time>2022-05-23 09:03:06</time>
      </trkpt>
      <trkpt lat="42.15768" lon="0.81435">
        <ele>792.2</ele>
        <time>2022-05-23 09:03:07</time>
      </trkpt>
      <trkpt lat="42.15769" lon="0.81432">
        <ele>792.4</ele>
        <time>2022-05-23 09:03:08</time>
      </trkpt>
      <trkpt lat="42.1577" lon="0.81428">
        <ele>792.6</ele>
        <time>2022-05-23 09:03:09</time>
      </trkpt>
      <trkpt lat="42.15771" lon="0.81425">
        <ele>792.8</ele>
        <time>2022-05-23 09:03:10</time>
      </trkpt>
      <trkpt lat="42.15771" lon="0.81421">
        <ele>792.8</ele>
        <time>2022-05-23 09:03:11</time>
      </trkpt>
      <trkpt lat="42.15771" lon="0.81418">
        <ele>793</ele>
        <time>2022-05-23 09:03:12</time>
      </trkpt>
      <trkpt lat="42.15772" lon="0.81414">
        <ele>793.2</ele>
        <time>2022-05-23 09:03:13</time>
      </trkpt>
      <trkpt lat="42.15772" lon="0.8141">
        <ele>793.4</ele>
        <time>2022-05-23 09:03:14</time>
      </trkpt>
      <trkpt lat="42.15772" lon="0.81406">
        <ele>793.6</ele>
        <time>2022-05-23 09:03:15</time>
      </trkpt>
      <trkpt lat="42.15772" lon="0.81403">
        <ele>793.8</ele>
        <time>2022-05-23 09:03:16</time>
      </trkpt>
      <trkpt lat="42.15772" lon="0.81399">
        <ele>794</ele>
        <time>2022-05-23 09:03:17</time>
      </trkpt>
      <trkpt lat="42.15771" lon="0.81395">
        <ele>794.2</ele>
        <time>2022-05-23 09:03:18</time>
      </trkpt>
      <trkpt lat="42.15771" lon="0.81392">
        <ele>794.2</ele>
        <time>2022-05-23 09:03:19</time>
      </trkpt>
      <trkpt lat="42.15771" lon="0.81389">
        <ele>794.4</ele>
        <time>2022-05-23 09:03:20</time>
      </trkpt>
      <trkpt lat="42.1577" lon="0.81385">
        <ele>794.6</ele>
        <time>2022-05-23 09:03:21</time>
      </trkpt>
      <trkpt lat="42.15768" lon="0.81382">
        <ele>794.6</ele>
        <time>2022-05-23 09:03:22</time>
      </trkpt>
      <trkpt lat="42.15766" lon="0.81378">
        <ele>794.8</ele>
        <time>2022-05-23 09:03:23</time>
      </trkpt>
      <trkpt lat="42.15765" lon="0.81375">
        <ele>795</ele>
        <time>2022-05-23 09:03:24</time>
      </trkpt>
      <trkpt lat="42.15763" lon="0.81371">
        <ele>795.2</ele>
        <time>2022-05-23 09:03:25</time>
      </trkpt>
      <trkpt lat="42.15761" lon="0.81368">
        <ele>795.4</ele>
        <time>2022-05-23 09:03:26</time>
      </trkpt>
      <trkpt lat="42.15759" lon="0.81365">
        <ele>795.4</ele>
        <time>2022-05-23 09:03:27</time>
      </trkpt>
      <trkpt lat="42.15757" lon="0.81361">
        <ele>795.6</ele>
        <time>2022-05-23 09:03:28</time>
      </trkpt>
      <trkpt lat="42.15755" lon="0.81358">
        <ele>795.8</ele>
        <time>2022-05-23 09:03:29</time>
      </trkpt>
      <trkpt lat="42.15754" lon="0.81354">
        <ele>796</ele>
        <time>2022-05-23 09:03:30</time>
      </trkpt>
      <trkpt lat="42.15751" lon="0.81351">
        <ele>796.2</ele>
        <time>2022-05-23 09:03:31</time>
      </trkpt>
      <trkpt lat="42.15749" lon="0.81348">
        <ele>796.4</ele>
        <time>2022-05-23 09:03:32</time>
      </trkpt>
      <trkpt lat="42.15747" lon="0.81345">
        <ele>796.4</ele>
        <time>2022-05-23 09:03:33</time>
      </trkpt>
      <trkpt lat="42.15744" lon="0.81342">
        <ele>796.6</ele>
        <time>2022-05-23 09:03:34</time>
      </trkpt>
      <trkpt lat="42.15741" lon="0.8134">
        <ele>796.8</ele>
        <time>2022-05-23 09:03:35</time>
      </trkpt>
      <trkpt lat="42.15738" lon="0.81338">
        <ele>797</ele>
        <time>2022-05-23 09:03:36</time>
      </trkpt>
      <trkpt lat="42.15735" lon="0.81336">
        <ele>797.2</ele>
        <time>2022-05-23 09:03:37</time>
      </trkpt>
      <trkpt lat="42.15732" lon="0.81335">
        <ele>797.4</ele>
        <time>2022-05-23 09:03:38</time>
      </trkpt>
      <trkpt lat="42.1573" lon="0.81334">
        <ele>797.6</ele>
        <time>2022-05-23 09:03:39</time>
      </trkpt>
      <trkpt lat="42.15727" lon="0.81334">
        <ele>797.8</ele>
        <time>2022-05-23 09:03:40</time>
      </trkpt>
      <trkpt lat="42.15724" lon="0.81333">
        <ele>798.2</ele>
        <time>2022-05-23 09:03:41</time>
      </trkpt>
      <trkpt lat="42.1572" lon="0.81333">
        <ele>798.4</ele>
        <time>2022-05-23 09:03:42</time>
      </trkpt>
      <trkpt lat="42.15717" lon="0.81333">
        <ele>798.6</ele>
        <time>2022-05-23 09:03:43</time>
      </trkpt>
      <trkpt lat="42.15714" lon="0.81333">
        <ele>798.8</ele>
        <time>2022-05-23 09:03:44</time>
      </trkpt>
      <trkpt lat="42.15711" lon="0.81333">
        <ele>799</ele>
        <time>2022-05-23 09:03:45</time>
      </trkpt>
      <trkpt lat="42.15708" lon="0.81333">
        <ele>799.2</ele>
        <time>2022-05-23 09:03:46</time>
      </trkpt>
      <trkpt lat="42.15705" lon="0.81333">
        <ele>799.4</ele>
        <time>2022-05-23 09:03:47</time>
      </trkpt>
      <trkpt lat="42.15702" lon="0.81333">
        <ele>799.6</ele>
        <time>2022-05-23 09:03:48</time>
      </trkpt>
      <trkpt lat="42.15699" lon="0.81334">
        <ele>799.8</ele>
        <time>2022-05-23 09:03:49</time>
      </trkpt>
      <trkpt lat="42.15696" lon="0.81334">
        <ele>800.2</ele>
        <time>2022-05-23 09:03:50</time>
      </trkpt>
      <trkpt lat="42.15693" lon="0.81334">
        <ele>800.4</ele>
        <time>2022-05-23 09:03:51</time>
      </trkpt>
      <trkpt lat="42.1569" lon="0.81334">
        <ele>800.6</ele>
        <time>2022-05-23 09:03:52</time>
      </trkpt>
      <trkpt lat="42.15686" lon="0.81334">
        <ele>800.8</ele>
        <time>2022-05-23 09:03:53</time>
      </trkpt>
      <trkpt lat="42.15683" lon="0.81334">
        <ele>800.8</ele>
        <time>2022-05-23 09:03:54</time>
      </trkpt>
      <trkpt lat="42.1568" lon="0.81334">
        <ele>801</ele>
        <time>2022-05-23 09:03:55</time>
      </trkpt>
      <trkpt lat="42.15677" lon="0.81333">
        <ele>801.2</ele>
        <time>2022-05-23 09:03:56</time>
      </trkpt>
      <trkpt lat="42.15674" lon="0.81332">
        <ele>801.4</ele>
        <time>2022-05-23 09:03:57</time>
      </trkpt>
      <trkpt lat="42.15671" lon="0.8133">
        <ele>801.6</ele>
        <time>2022-05-23 09:03:58</time>
      </trkpt>
      <trkpt lat="42.15668" lon="0.81328">
        <ele>801.6</ele>
        <time>2022-05-23 09:03:59</time>
      </trkpt>
      <trkpt lat="42.15666" lon="0.81325">
        <ele>801.8</ele>
        <time>2022-05-23 09:04:00</time>
      </trkpt>
      <trkpt lat="42.15663" lon="0.81322">
        <ele>801.8</ele>
        <time>2022-05-23 09:04:01</time>
      </trkpt>
      <trkpt lat="42.15661" lon="0.8132">
        <ele>802</ele>
        <time>2022-05-23 09:04:02</time>
      </trkpt>
      <trkpt lat="42.1566" lon="0.81316">
        <ele>802</ele>
        <time>2022-05-23 09:04:03</time>
      </trkpt>
      <trkpt lat="42.15657" lon="0.81311">
        <ele>802</ele>
        <time>2022-05-23 09:04:04</time>
      </trkpt>
      <trkpt lat="42.15654" lon="0.81306">
        <ele>802</ele>
        <time>2022-05-23 09:04:05</time>
      </trkpt>
      <trkpt lat="42.15652" lon="0.81301">
        <ele>802</ele>
        <time>2022-05-23 09:04:06</time>
      </trkpt>
      <trkpt lat="42.15649" lon="0.81295">
        <ele>801.8</ele>
        <time>2022-05-23 09:04:07</time>
      </trkpt>
      <trkpt lat="42.15647" lon="0.81289">
        <ele>801.6</ele>
        <time>2022-05-23 09:04:08</time>
      </trkpt>
      <trkpt lat="42.15644" lon="0.81284">
        <ele>801.6</ele>
        <time>2022-05-23 09:04:09</time>
      </trkpt>
      <trkpt lat="42.1564" lon="0.81279">
        <ele>801.4</ele>
        <time>2022-05-23 09:04:10</time>
      </trkpt>
      <trkpt lat="42.15635" lon="0.81276">
        <ele>801.4</ele>
        <time>2022-05-23 09:04:11</time>
      </trkpt>
      <trkpt lat="42.1563" lon="0.81273">
        <ele>801.2</ele>
        <time>2022-05-23 09:04:12</time>
      </trkpt>
      <trkpt lat="42.15625" lon="0.81271">
        <ele>801</ele>
        <time>2022-05-23 09:04:13</time>
      </trkpt>
      <trkpt lat="42.15619" lon="0.8127">
        <ele>801</ele>
        <time>2022-05-23 09:04:14</time>
      </trkpt>
      <trkpt lat="42.15614" lon="0.8127">
        <ele>800.8</ele>
        <time>2022-05-23 09:04:15</time>
      </trkpt>
      <trkpt lat="42.15609" lon="0.81273">
        <ele>800.8</ele>
        <time>2022-05-23 09:04:16</time>
      </trkpt>
      <trkpt lat="42.15605" lon="0.81276">
        <ele>800.6</ele>
        <time>2022-05-23 09:04:17</time>
      </trkpt>
      <trkpt lat="42.15601" lon="0.81281">
        <ele>800.4</ele>
        <time>2022-05-23 09:04:18</time>
      </trkpt>
      <trkpt lat="42.15597" lon="0.81287">
        <ele>800.4</ele>
        <time>2022-05-23 09:04:19</time>
      </trkpt>
      <trkpt lat="42.15594" lon="0.81293">
        <ele>800.2</ele>
        <time>2022-05-23 09:04:20</time>
      </trkpt>
      <trkpt lat="42.15592" lon="0.813">
        <ele>800</ele>
        <time>2022-05-23 09:04:21</time>
      </trkpt>
      <trkpt lat="42.15589" lon="0.81306">
        <ele>800</ele>
        <time>2022-05-23 09:04:22</time>
      </trkpt>
      <trkpt lat="42.15587" lon="0.81313">
        <ele>800</ele>
        <time>2022-05-23 09:04:23</time>
      </trkpt>
      <trkpt lat="42.15583" lon="0.81319">
        <ele>800.2</ele>
        <time>2022-05-23 09:04:24</time>
      </trkpt>
      <trkpt lat="42.1558" lon="0.81324">
        <ele>800.4</ele>
        <time>2022-05-23 09:04:25</time>
      </trkpt>
      <trkpt lat="42.15576" lon="0.81328">
        <ele>800.6</ele>
        <time>2022-05-23 09:04:26</time>
      </trkpt>
      <trkpt lat="42.15573" lon="0.81331">
        <ele>800.8</ele>
        <time>2022-05-23 09:04:27</time>
      </trkpt>
      <trkpt lat="42.15568" lon="0.81334">
        <ele>801</ele>
        <time>2022-05-23 09:04:28</time>
      </trkpt>
      <trkpt lat="42.15565" lon="0.81335">
        <ele>801.4</ele>
        <time>2022-05-23 09:04:29</time>
      </trkpt>
      <trkpt lat="42.15562" lon="0.81335">
        <ele>801.6</ele>
        <time>2022-05-23 09:04:30</time>
      </trkpt>
      <trkpt lat="42.15558" lon="0.81335">
        <ele>802</ele>
        <time>2022-05-23 09:04:31</time>
      </trkpt>
      <trkpt lat="42.15555" lon="0.81335">
        <ele>802.2</ele>
        <time>2022-05-23 09:04:32</time>
      </trkpt>
      <trkpt lat="42.15553" lon="0.81334">
        <ele>802.6</ele>
        <time>2022-05-23 09:04:33</time>
      </trkpt>
      <trkpt lat="42.1555" lon="0.81334">
        <ele>802.8</ele>
        <time>2022-05-23 09:04:34</time>
      </trkpt>
      <trkpt lat="42.15548" lon="0.81333">
        <ele>803.2</ele>
        <time>2022-05-23 09:04:35</time>
      </trkpt>
      <trkpt lat="42.15546" lon="0.81332">
        <ele>803.4</ele>
        <time>2022-05-23 09:04:36</time>
      </trkpt>
      <trkpt lat="42.15544" lon="0.81331">
        <ele>803.6</ele>
        <time>2022-05-23 09:04:37</time>
      </trkpt>
      <trkpt lat="42.15542" lon="0.8133">
        <ele>803.8</ele>
        <time>2022-05-23 09:04:38</time>
      </trkpt>
      <trkpt lat="42.1554" lon="0.81329">
        <ele>804.2</ele>
        <time>2022-05-23 09:04:39</time>
      </trkpt>
      <trkpt lat="42.15538" lon="0.81328">
        <ele>804.4</ele>
        <time>2022-05-23 09:04:40</time>
      </trkpt>
      <trkpt lat="42.15536" lon="0.81326">
        <ele>804.6</ele>
        <time>2022-05-23 09:04:41</time>
      </trkpt>
      <trkpt lat="42.15534" lon="0.81325">
        <ele>804.8</ele>
        <time>2022-05-23 09:04:42</time>
      </trkpt>
      <trkpt lat="42.15531" lon="0.81324">
        <ele>805</ele>
        <time>2022-05-23 09:04:43</time>
      </trkpt>
      <trkpt lat="42.15529" lon="0.81323">
        <ele>805.2</ele>
        <time>2022-05-23 09:04:44</time>
      </trkpt>
      <trkpt lat="42.15527" lon="0.81322">
        <ele>805.4</ele>
        <time>2022-05-23 09:04:45</time>
      </trkpt>
      <trkpt lat="42.15525" lon="0.8132">
        <ele>805.6</ele>
        <time>2022-05-23 09:04:46</time>
      </trkpt>
      <trkpt lat="42.15522" lon="0.81319">
        <ele>805.8</ele>
        <time>2022-05-23 09:04:47</time>
      </trkpt>
      <trkpt lat="42.1552" lon="0.81318">
        <ele>806</ele>
        <time>2022-05-23 09:04:48</time>
      </trkpt>
      <trkpt lat="42.15518" lon="0.81318">
        <ele>806.2</ele>
        <time>2022-05-23 09:04:49</time>
      </trkpt>
      <trkpt lat="42.15516" lon="0.81318">
        <ele>806.4</ele>
        <time>2022-05-23 09:04:50</time>
      </trkpt>
      <trkpt lat="42.15513" lon="0.81317">
        <ele>806.6</ele>
        <time>2022-05-23 09:04:51</time>
      </trkpt>
      <trkpt lat="42.15511" lon="0.81317">
        <ele>806.6</ele>
        <time>2022-05-23 09:04:52</time>
      </trkpt>
      <trkpt lat="42.15509" lon="0.81316">
        <ele>806.8</ele>
        <time>2022-05-23 09:04:53</time>
      </trkpt>
      <trkpt lat="42.15507" lon="0.81316">
        <ele>807</ele>
        <time>2022-05-23 09:04:54</time>
      </trkpt>
      <trkpt lat="42.15505" lon="0.81316">
        <ele>807.2</ele>
        <time>2022-05-23 09:04:55</time>
      </trkpt>
      <trkpt lat="42.15502" lon="0.81316">
        <ele>807.4</ele>
        <time>2022-05-23 09:04:56</time>
      </trkpt>
      <trkpt lat="42.15501" lon="0.81316">
        <ele>807.6</ele>
        <time>2022-05-23 09:04:57</time>
      </trkpt>
      <trkpt lat="42.15498" lon="0.81317">
        <ele>807.8</ele>
        <time>2022-05-23 09:04:58</time>
      </trkpt>
      <trkpt lat="42.15496" lon="0.81318">
        <ele>808</ele>
        <time>2022-05-23 09:04:59</time>
      </trkpt>
      <trkpt lat="42.15494" lon="0.81319">
        <ele>808.2</ele>
        <time>2022-05-23 09:05:00</time>
      </trkpt>
      <trkpt lat="42.15492" lon="0.8132">
        <ele>808.4</ele>
        <time>2022-05-23 09:05:01</time>
      </trkpt>
      <trkpt lat="42.1549" lon="0.8132">
        <ele>808.6</ele>
        <time>2022-05-23 09:05:02</time>
      </trkpt>
      <trkpt lat="42.15488" lon="0.8132">
        <ele>809</ele>
        <time>2022-05-23 09:05:03</time>
      </trkpt>
      <trkpt lat="42.15486" lon="0.81321">
        <ele>809.2</ele>
        <time>2022-05-23 09:05:04</time>
      </trkpt>
      <trkpt lat="42.15484" lon="0.81321">
        <ele>809.4</ele>
        <time>2022-05-23 09:05:05</time>
      </trkpt>
      <trkpt lat="42.15482" lon="0.81322">
        <ele>809.6</ele>
        <time>2022-05-23 09:05:06</time>
      </trkpt>
      <trkpt lat="42.1548" lon="0.81323">
        <ele>809.8</ele>
        <time>2022-05-23 09:05:07</time>
      </trkpt>
      <trkpt lat="42.15478" lon="0.81324">
        <ele>810</ele>
        <time>2022-05-23 09:05:08</time>
      </trkpt>
      <trkpt lat="42.15476" lon="0.81324">
        <ele>810.2</ele>
        <time>2022-05-23 09:05:09</time>
      </trkpt>
      <trkpt lat="42.15474" lon="0.81325">
        <ele>810.4</ele>
        <time>2022-05-23 09:05:10</time>
      </trkpt>
      <trkpt lat="42.15472" lon="0.81327">
        <ele>810.6</ele>
        <time>2022-05-23 09:05:11</time>
      </trkpt>
      <trkpt lat="42.1547" lon="0.81328">
        <ele>810.8</ele>
        <time>2022-05-23 09:05:12</time>
      </trkpt>
      <trkpt lat="42.15468" lon="0.81329">
        <ele>811</ele>
        <time>2022-05-23 09:05:13</time>
      </trkpt>
      <trkpt lat="42.15466" lon="0.8133">
        <ele>811.2</ele>
        <time>2022-05-23 09:05:14</time>
      </trkpt>
      <trkpt lat="42.15464" lon="0.81331">
        <ele>811.4</ele>
        <time>2022-05-23 09:05:15</time>
      </trkpt>
      <trkpt lat="42.15461" lon="0.81331">
        <ele>811.6</ele>
        <time>2022-05-23 09:05:16</time>
      </trkpt>
      <trkpt lat="42.15459" lon="0.81331">
        <ele>811.8</ele>
        <time>2022-05-23 09:05:17</time>
      </trkpt>
      <trkpt lat="42.15457" lon="0.81332">
        <ele>812</ele>
        <time>2022-05-23 09:05:18</time>
      </trkpt>
      <trkpt lat="42.15455" lon="0.81332">
        <ele>812.2</ele>
        <time>2022-05-23 09:05:19</time>
      </trkpt>
      <trkpt lat="42.15453" lon="0.81332">
        <ele>812.4</ele>
        <time>2022-05-23 09:05:20</time>
      </trkpt>
      <trkpt lat="42.15451" lon="0.81332">
        <ele>812.4</ele>
        <time>2022-05-23 09:05:21</time>
      </trkpt>
      <trkpt lat="42.15448" lon="0.81332">
        <ele>812.6</ele>
        <time>2022-05-23 09:05:22</time>
      </trkpt>
      <trkpt lat="42.15446" lon="0.81332">
        <ele>812.8</ele>
        <time>2022-05-23 09:05:23</time>
      </trkpt>
      <trkpt lat="42.15444" lon="0.81331">
        <ele>812.8</ele>
        <time>2022-05-23 09:05:24</time>
      </trkpt>
      <trkpt lat="42.15442" lon="0.8133">
        <ele>813</ele>
        <time>2022-05-23 09:05:25</time>
      </trkpt>
      <trkpt lat="42.1544" lon="0.81329">
        <ele>813.2</ele>
        <time>2022-05-23 09:05:26</time>
      </trkpt>
      <trkpt lat="42.15438" lon="0.81327">
        <ele>813.2</ele>
        <time>2022-05-23 09:05:27</time>
      </trkpt>
      <trkpt lat="42.15436" lon="0.81326">
        <ele>813.4</ele>
        <time>2022-05-23 09:05:28</time>
      </trkpt>
      <trkpt lat="42.15434" lon="0.81324">
        <ele>813.4</ele>
        <time>2022-05-23 09:05:29</time>
      </trkpt>
      <trkpt lat="42.15432" lon="0.81321">
        <ele>813.6</ele>
        <time>2022-05-23 09:05:30</time>
      </trkpt>
      <trkpt lat="42.15431" lon="0.81319">
        <ele>813.6</ele>
        <time>2022-05-23 09:05:31</time>
      </trkpt>
      <trkpt lat="42.15429" lon="0.81316">
        <ele>813.8</ele>
        <time>2022-05-23 09:05:32</time>
      </trkpt>
      <trkpt lat="42.15428" lon="0.81314">
        <ele>813.8</ele>
        <time>2022-05-23 09:05:33</time>
      </trkpt>
      <trkpt lat="42.15427" lon="0.81311">
        <ele>814</ele>
        <time>2022-05-23 09:05:34</time>
      </trkpt>
      <trkpt lat="42.15425" lon="0.81309">
        <ele>814</ele>
        <time>2022-05-23 09:05:35</time>
      </trkpt>
      <trkpt lat="42.15425" lon="0.81306">
        <ele>814.2</ele>
        <time>2022-05-23 09:05:36</time>
      </trkpt>
      <trkpt lat="42.15424" lon="0.81303">
        <ele>814.2</ele>
        <time>2022-05-23 09:05:37</time>
      </trkpt>
      <trkpt lat="42.15424" lon="0.813">
        <ele>814.4</ele>
        <time>2022-05-23 09:05:38</time>
      </trkpt>
      <trkpt lat="42.15423" lon="0.81297">
        <ele>814.4</ele>
        <time>2022-05-23 09:05:39</time>
      </trkpt>
      <trkpt lat="42.15422" lon="0.81294">
        <ele>814.6</ele>
        <time>2022-05-23 09:05:40</time>
      </trkpt>
      <trkpt lat="42.15421" lon="0.81292">
        <ele>814.6</ele>
        <time>2022-05-23 09:05:41</time>
      </trkpt>
      <trkpt lat="42.1542" lon="0.81289">
        <ele>814.8</ele>
        <time>2022-05-23 09:05:42</time>
      </trkpt>
      <trkpt lat="42.15419" lon="0.81286">
        <ele>815</ele>
        <time>2022-05-23 09:05:43</time>
      </trkpt>
      <trkpt lat="42.15419" lon="0.81283">
        <ele>815</ele>
        <time>2022-05-23 09:05:44</time>
      </trkpt>
      <trkpt lat="42.15418" lon="0.8128">
        <ele>815.2</ele>
        <time>2022-05-23 09:05:45</time>
      </trkpt>
      <trkpt lat="42.15418" lon="0.81277">
        <ele>815.4</ele>
        <time>2022-05-23 09:05:46</time>
      </trkpt>
      <trkpt lat="42.15417" lon="0.81274">
        <ele>815.4</ele>
        <time>2022-05-23 09:05:47</time>
      </trkpt>
      <trkpt lat="42.15416" lon="0.81271">
        <ele>815.6</ele>
        <time>2022-05-23 09:05:48</time>
      </trkpt>
      <trkpt lat="42.15415" lon="0.81268">
        <ele>815.8</ele>
        <time>2022-05-23 09:05:49</time>
      </trkpt>
      <trkpt lat="42.15414" lon="0.81265">
        <ele>815.8</ele>
        <time>2022-05-23 09:05:50</time>
      </trkpt>
      <trkpt lat="42.15414" lon="0.81262">
        <ele>815.8</ele>
        <time>2022-05-23 09:05:51</time>
      </trkpt>
      <trkpt lat="42.15413" lon="0.81259">
        <ele>816</ele>
        <time>2022-05-23 09:05:52</time>
      </trkpt>
      <trkpt lat="42.15413" lon="0.81256">
        <ele>816</ele>
        <time>2022-05-23 09:05:53</time>
      </trkpt>
      <trkpt lat="42.15412" lon="0.81253">
        <ele>816.2</ele>
        <time>2022-05-23 09:05:54</time>
      </trkpt>
      <trkpt lat="42.15412" lon="0.81251">
        <ele>816.4</ele>
        <time>2022-05-23 09:05:55</time>
      </trkpt>
      <trkpt lat="42.15411" lon="0.81248">
        <ele>816.6</ele>
        <time>2022-05-23 09:05:56</time>
      </trkpt>
      <trkpt lat="42.1541" lon="0.81245">
        <ele>816.8</ele>
        <time>2022-05-23 09:05:57</time>
      </trkpt>
      <trkpt lat="42.1541" lon="0.81242">
        <ele>816.8</ele>
        <time>2022-05-23 09:05:58</time>
      </trkpt>
      <trkpt lat="42.15409" lon="0.81239">
        <ele>817</ele>
        <time>2022-05-23 09:05:59</time>
      </trkpt>
      <trkpt lat="42.15409" lon="0.81236">
        <ele>817.2</ele>
        <time>2022-05-23 09:06:00</time>
      </trkpt>
      <trkpt lat="42.15409" lon="0.81233">
        <ele>817.2</ele>
        <time>2022-05-23 09:06:01</time>
      </trkpt>
      <trkpt lat="42.15408" lon="0.8123">
        <ele>817.4</ele>
        <time>2022-05-23 09:06:02</time>
      </trkpt>
      <trkpt lat="42.15408" lon="0.81227">
        <ele>817.6</ele>
        <time>2022-05-23 09:06:03</time>
      </trkpt>
      <trkpt lat="42.15408" lon="0.81224">
        <ele>817.8</ele>
        <time>2022-05-23 09:06:04</time>
      </trkpt>
      <trkpt lat="42.15407" lon="0.81221">
        <ele>817.8</ele>
        <time>2022-05-23 09:06:05</time>
      </trkpt>
      <trkpt lat="42.15407" lon="0.81218">
        <ele>818</ele>
        <time>2022-05-23 09:06:06</time>
      </trkpt>
      <trkpt lat="42.15406" lon="0.81215">
        <ele>818</ele>
        <time>2022-05-23 09:06:07</time>
      </trkpt>
      <trkpt lat="42.15405" lon="0.81212">
        <ele>818.2</ele>
        <time>2022-05-23 09:06:08</time>
      </trkpt>
      <trkpt lat="42.15405" lon="0.81209">
        <ele>818.4</ele>
        <time>2022-05-23 09:06:09</time>
      </trkpt>
      <trkpt lat="42.15405" lon="0.81206">
        <ele>818.4</ele>
        <time>2022-05-23 09:06:10</time>
      </trkpt>
      <trkpt lat="42.15404" lon="0.81203">
        <ele>818.6</ele>
        <time>2022-05-23 09:06:11</time>
      </trkpt>
      <trkpt lat="42.15403" lon="0.812">
        <ele>818.8</ele>
        <time>2022-05-23 09:06:12</time>
      </trkpt>
      <trkpt lat="42.15401" lon="0.81197">
        <ele>818.8</ele>
        <time>2022-05-23 09:06:13</time>
      </trkpt>
      <trkpt lat="42.15399" lon="0.81194">
        <ele>819</ele>
        <time>2022-05-23 09:06:14</time>
      </trkpt>
      <trkpt lat="42.15396" lon="0.81192">
        <ele>819</ele>
        <time>2022-05-23 09:06:15</time>
      </trkpt>
      <trkpt lat="42.15394" lon="0.81191">
        <ele>819.2</ele>
        <time>2022-05-23 09:06:16</time>
      </trkpt>
      <trkpt lat="42.15392" lon="0.8119">
        <ele>819.4</ele>
        <time>2022-05-23 09:06:17</time>
      </trkpt>
      <trkpt lat="42.15389" lon="0.8119">
        <ele>819.6</ele>
        <time>2022-05-23 09:06:18</time>
      </trkpt>
      <trkpt lat="42.15387" lon="0.81189">
        <ele>819.8</ele>
        <time>2022-05-23 09:06:19</time>
      </trkpt>
      <trkpt lat="42.15385" lon="0.81189">
        <ele>820</ele>
        <time>2022-05-23 09:06:20</time>
      </trkpt>
      <trkpt lat="42.15382" lon="0.81189">
        <ele>820.2</ele>
        <time>2022-05-23 09:06:21</time>
      </trkpt>
      <trkpt lat="42.1538" lon="0.81189">
        <ele>820.2</ele>
        <time>2022-05-23 09:06:22</time>
      </trkpt>
      <trkpt lat="42.15377" lon="0.8119">
        <ele>820.4</ele>
        <time>2022-05-23 09:06:23</time>
      </trkpt>
      <trkpt lat="42.15375" lon="0.81191">
        <ele>820.6</ele>
        <time>2022-05-23 09:06:24</time>
      </trkpt>
      <trkpt lat="42.15374" lon="0.81192">
        <ele>820.8</ele>
        <time>2022-05-23 09:06:25</time>
      </trkpt>
      <trkpt lat="42.15372" lon="0.81193">
        <ele>821</ele>
        <time>2022-05-23 09:06:26</time>
      </trkpt>
      <trkpt lat="42.1537" lon="0.81195">
        <ele>821</ele>
        <time>2022-05-23 09:06:27</time>
      </trkpt>
      <trkpt lat="42.15367" lon="0.81196">
        <ele>821.2</ele>
        <time>2022-05-23 09:06:28</time>
      </trkpt>
      <trkpt lat="42.15365" lon="0.81198">
        <ele>821.4</ele>
        <time>2022-05-23 09:06:29</time>
      </trkpt>
      <trkpt lat="42.15364" lon="0.81199">
        <ele>821.6</ele>
        <time>2022-05-23 09:06:30</time>
      </trkpt>
      <trkpt lat="42.15362" lon="0.81201">
        <ele>821.8</ele>
        <time>2022-05-23 09:06:31</time>
      </trkpt>
      <trkpt lat="42.1536" lon="0.81203">
        <ele>821.8</ele>
        <time>2022-05-23 09:06:32</time>
      </trkpt>
      <trkpt lat="42.15358" lon="0.81205">
        <ele>822</ele>
        <time>2022-05-23 09:06:33</time>
      </trkpt>
      <trkpt lat="42.15356" lon="0.81207">
        <ele>822.2</ele>
        <time>2022-05-23 09:06:34</time>
      </trkpt>
      <trkpt lat="42.15355" lon="0.81209">
        <ele>822.4</ele>
        <time>2022-05-23 09:06:35</time>
      </trkpt>
      <trkpt lat="42.15353" lon="0.81211">
        <ele>822.4</ele>
        <time>2022-05-23 09:06:36</time>
      </trkpt>
      <trkpt lat="42.15351" lon="0.81213">
        <ele>822.6</ele>
        <time>2022-05-23 09:06:37</time>
      </trkpt>
      <trkpt lat="42.1535" lon="0.81216">
        <ele>822.8</ele>
        <time>2022-05-23 09:06:38</time>
      </trkpt>
      <trkpt lat="42.15348" lon="0.81218">
        <ele>822.8</ele>
        <time>2022-05-23 09:06:39</time>
      </trkpt>
      <trkpt lat="42.15347" lon="0.8122">
        <ele>823</ele>
        <time>2022-05-23 09:06:40</time>
      </trkpt>
      <trkpt lat="42.15346" lon="0.81223">
        <ele>823.2</ele>
        <time>2022-05-23 09:06:41</time>
      </trkpt>
      <trkpt lat="42.15344" lon="0.81225">
        <ele>823.2</ele>
        <time>2022-05-23 09:06:42</time>
      </trkpt>
      <trkpt lat="42.15343" lon="0.81228">
        <ele>823.4</ele>
        <time>2022-05-23 09:06:43</time>
      </trkpt>
      <trkpt lat="42.15342" lon="0.81231">
        <ele>823.4</ele>
        <time>2022-05-23 09:06:44</time>
      </trkpt>
      <trkpt lat="42.15341" lon="0.81234">
        <ele>823.6</ele>
        <time>2022-05-23 09:06:45</time>
      </trkpt>
      <trkpt lat="42.1534" lon="0.81236">
        <ele>823.6</ele>
        <time>2022-05-23 09:06:46</time>
      </trkpt>
      <trkpt lat="42.15338" lon="0.81239">
        <ele>823.8</ele>
        <time>2022-05-23 09:06:47</time>
      </trkpt>
      <trkpt lat="42.15337" lon="0.81242">
        <ele>824</ele>
        <time>2022-05-23 09:06:48</time>
      </trkpt>
      <trkpt lat="42.15336" lon="0.81245">
        <ele>824</ele>
        <time>2022-05-23 09:06:49</time>
      </trkpt>
      <trkpt lat="42.15335" lon="0.81248">
        <ele>824.2</ele>
        <time>2022-05-23 09:06:50</time>
      </trkpt>
      <trkpt lat="42.15334" lon="0.81251">
        <ele>824.2</ele>
        <time>2022-05-23 09:06:51</time>
      </trkpt>
      <trkpt lat="42.15333" lon="0.81254">
        <ele>824.4</ele>
        <time>2022-05-23 09:06:52</time>
      </trkpt>
      <trkpt lat="42.15332" lon="0.81258">
        <ele>824.4</ele>
        <time>2022-05-23 09:06:53</time>
      </trkpt>
      <trkpt lat="42.15332" lon="0.81261">
        <ele>824.6</ele>
        <time>2022-05-23 09:06:54</time>
      </trkpt>
      <trkpt lat="42.15332" lon="0.81265">
        <ele>824.6</ele>
        <time>2022-05-23 09:06:55</time>
      </trkpt>
      <trkpt lat="42.15331" lon="0.81269">
        <ele>824.8</ele>
        <time>2022-05-23 09:06:56</time>
      </trkpt>
      <trkpt lat="42.1533" lon="0.81273">
        <ele>824.8</ele>
        <time>2022-05-23 09:06:57</time>
      </trkpt>
      <trkpt lat="42.1533" lon="0.81277">
        <ele>825</ele>
        <time>2022-05-23 09:06:58</time>
      </trkpt>
      <trkpt lat="42.1533" lon="0.81281">
        <ele>825</ele>
        <time>2022-05-23 09:06:59</time>
      </trkpt>
      <trkpt lat="42.15329" lon="0.81285">
        <ele>825</ele>
        <time>2022-05-23 09:07:00</time>
      </trkpt>
      <trkpt lat="42.15328" lon="0.8129">
        <ele>825.2</ele>
        <time>2022-05-23 09:07:01</time>
      </trkpt>
      <trkpt lat="42.15327" lon="0.81294">
        <ele>825.2</ele>
        <time>2022-05-23 09:07:02</time>
      </trkpt>
      <trkpt lat="42.15326" lon="0.813">
        <ele>825.2</ele>
        <time>2022-05-23 09:07:03</time>
      </trkpt>
      <trkpt lat="42.15325" lon="0.81305">
        <ele>825.2</ele>
        <time>2022-05-23 09:07:04</time>
      </trkpt>
      <trkpt lat="42.15323" lon="0.81309">
        <ele>825.2</ele>
        <time>2022-05-23 09:07:05</time>
      </trkpt>
      <trkpt lat="42.15322" lon="0.81314">
        <ele>825.2</ele>
        <time>2022-05-23 09:07:06</time>
      </trkpt>
      <trkpt lat="42.1532" lon="0.81319">
        <ele>825.2</ele>
        <time>2022-05-23 09:07:07</time>
      </trkpt>
      <trkpt lat="42.15319" lon="0.81324">
        <ele>825.2</ele>
        <time>2022-05-23 09:07:08</time>
      </trkpt>
      <trkpt lat="42.15317" lon="0.81329">
        <ele>825.2</ele>
        <time>2022-05-23 09:07:09</time>
      </trkpt>
      <trkpt lat="42.15316" lon="0.81333">
        <ele>825.2</ele>
        <time>2022-05-23 09:07:10</time>
      </trkpt>
      <trkpt lat="42.15314" lon="0.81338">
        <ele>825.2</ele>
        <time>2022-05-23 09:07:11</time>
      </trkpt>
      <trkpt lat="42.15312" lon="0.81343">
        <ele>825</ele>
        <time>2022-05-23 09:07:12</time>
      </trkpt>
      <trkpt lat="42.15311" lon="0.81348">
        <ele>825</ele>
        <time>2022-05-23 09:07:13</time>
      </trkpt>
      <trkpt lat="42.15309" lon="0.81353">
        <ele>825</ele>
        <time>2022-05-23 09:07:14</time>
      </trkpt>
      <trkpt lat="42.15307" lon="0.81357">
        <ele>825</ele>
        <time>2022-05-23 09:07:15</time>
      </trkpt>
      <trkpt lat="42.15304" lon="0.81361">
        <ele>825</ele>
        <time>2022-05-23 09:07:16</time>
      </trkpt>
      <trkpt lat="42.153" lon="0.81363">
        <ele>825.2</ele>
        <time>2022-05-23 09:07:17</time>
      </trkpt>
      <trkpt lat="42.15297" lon="0.81365">
        <ele>825.2</ele>
        <time>2022-05-23 09:07:18</time>
      </trkpt>
      <trkpt lat="42.15293" lon="0.81365">
        <ele>825.4</ele>
        <time>2022-05-23 09:07:19</time>
      </trkpt>
      <trkpt lat="42.1529" lon="0.81363">
        <ele>825.4</ele>
        <time>2022-05-23 09:07:20</time>
      </trkpt>
      <trkpt lat="42.15287" lon="0.81359">
        <ele>825.6</ele>
        <time>2022-05-23 09:07:21</time>
      </trkpt>
      <trkpt lat="42.15285" lon="0.81356">
        <ele>825.8</ele>
        <time>2022-05-23 09:07:22</time>
      </trkpt>
      <trkpt lat="42.15284" lon="0.8135">
        <ele>826</ele>
        <time>2022-05-23 09:07:23</time>
      </trkpt>
      <trkpt lat="42.15284" lon="0.81345">
        <ele>826.2</ele>
        <time>2022-05-23 09:07:24</time>
      </trkpt>
      <trkpt lat="42.15284" lon="0.8134">
        <ele>826.4</ele>
        <time>2022-05-23 09:07:25</time>
      </trkpt>
      <trkpt lat="42.15285" lon="0.81336">
        <ele>826.6</ele>
        <time>2022-05-23 09:07:26</time>
      </trkpt>
      <trkpt lat="42.15286" lon="0.81331">
        <ele>826.8</ele>
        <time>2022-05-23 09:07:27</time>
      </trkpt>
      <trkpt lat="42.15287" lon="0.81326">
        <ele>827</ele>
        <time>2022-05-23 09:07:28</time>
      </trkpt>
      <trkpt lat="42.15287" lon="0.81321">
        <ele>827.2</ele>
        <time>2022-05-23 09:07:29</time>
      </trkpt>
      <trkpt lat="42.15289" lon="0.81317">
        <ele>827.4</ele>
        <time>2022-05-23 09:07:30</time>
      </trkpt>
      <trkpt lat="42.1529" lon="0.81311">
        <ele>827.4</ele>
        <time>2022-05-23 09:07:31</time>
      </trkpt>
      <trkpt lat="42.15292" lon="0.81306">
        <ele>827.6</ele>
        <time>2022-05-23 09:07:32</time>
      </trkpt>
      <trkpt lat="42.15293" lon="0.81301">
        <ele>827.8</ele>
        <time>2022-05-23 09:07:33</time>
      </trkpt>
      <trkpt lat="42.15294" lon="0.81296">
        <ele>827.8</ele>
        <time>2022-05-23 09:07:34</time>
      </trkpt>
      <trkpt lat="42.15296" lon="0.81292">
        <ele>827.8</ele>
        <time>2022-05-23 09:07:35</time>
      </trkpt>
      <trkpt lat="42.15297" lon="0.81287">
        <ele>828</ele>
        <time>2022-05-23 09:07:36</time>
      </trkpt>
      <trkpt lat="42.15299" lon="0.81282">
        <ele>828</ele>
        <time>2022-05-23 09:07:37</time>
      </trkpt>
      <trkpt lat="42.15299" lon="0.81277">
        <ele>828</ele>
        <time>2022-05-23 09:07:38</time>
      </trkpt>
      <trkpt lat="42.153" lon="0.81271">
        <ele>828</ele>
        <time>2022-05-23 09:07:39</time>
      </trkpt>
      <trkpt lat="42.15301" lon="0.81266">
        <ele>828</ele>
        <time>2022-05-23 09:07:40</time>
      </trkpt>
      <trkpt lat="42.15302" lon="0.81261">
        <ele>828</ele>
        <time>2022-05-23 09:07:41</time>
      </trkpt>
      <trkpt lat="42.15302" lon="0.81256">
        <ele>828.2</ele>
        <time>2022-05-23 09:07:42</time>
      </trkpt>
      <trkpt lat="42.15303" lon="0.81251">
        <ele>828.2</ele>
        <time>2022-05-23 09:07:43</time>
      </trkpt>
      <trkpt lat="42.15303" lon="0.81247">
        <ele>828.4</ele>
        <time>2022-05-23 09:07:44</time>
      </trkpt>
      <trkpt lat="42.15303" lon="0.81241">
        <ele>828.4</ele>
        <time>2022-05-23 09:07:45</time>
      </trkpt>
      <trkpt lat="42.15304" lon="0.81237">
        <ele>828.6</ele>
        <time>2022-05-23 09:07:46</time>
      </trkpt>
      <trkpt lat="42.15304" lon="0.81231">
        <ele>828.8</ele>
        <time>2022-05-23 09:07:47</time>
      </trkpt>
      <trkpt lat="42.15304" lon="0.81226">
        <ele>829</ele>
        <time>2022-05-23 09:07:48</time>
      </trkpt>
      <trkpt lat="42.15304" lon="0.81221">
        <ele>829</ele>
        <time>2022-05-23 09:07:49</time>
      </trkpt>
      <trkpt lat="42.15305" lon="0.81217">
        <ele>829.2</ele>
        <time>2022-05-23 09:07:50</time>
      </trkpt>
      <trkpt lat="42.15305" lon="0.81213">
        <ele>829.4</ele>
        <time>2022-05-23 09:07:51</time>
      </trkpt>
      <trkpt lat="42.15304" lon="0.81209">
        <ele>829.6</ele>
        <time>2022-05-23 09:07:52</time>
      </trkpt>
      <trkpt lat="42.15304" lon="0.81204">
        <ele>829.8</ele>
        <time>2022-05-23 09:07:53</time>
      </trkpt>
      <trkpt lat="42.15303" lon="0.812">
        <ele>830</ele>
        <time>2022-05-23 09:07:54</time>
      </trkpt>
      <trkpt lat="42.15303" lon="0.81196">
        <ele>830.2</ele>
        <time>2022-05-23 09:07:55</time>
      </trkpt>
      <trkpt lat="42.15303" lon="0.81192">
        <ele>830.4</ele>
        <time>2022-05-23 09:07:56</time>
      </trkpt>
      <trkpt lat="42.15302" lon="0.81188">
        <ele>830.6</ele>
        <time>2022-05-23 09:07:57</time>
      </trkpt>
      <trkpt lat="42.15301" lon="0.81184">
        <ele>831</ele>
        <time>2022-05-23 09:07:58</time>
      </trkpt>
      <trkpt lat="42.153" lon="0.8118">
        <ele>831.2</ele>
        <time>2022-05-23 09:07:59</time>
      </trkpt>
      <trkpt lat="42.153" lon="0.81176">
        <ele>831.4</ele>
        <time>2022-05-23 09:08:00</time>
      </trkpt>
      <trkpt lat="42.15299" lon="0.81172">
        <ele>831.4</ele>
        <time>2022-05-23 09:08:01</time>
      </trkpt>
      <trkpt lat="42.15297" lon="0.81169">
        <ele>831.6</ele>
        <time>2022-05-23 09:08:02</time>
      </trkpt>
      <trkpt lat="42.15296" lon="0.81165">
        <ele>831.8</ele>
        <time>2022-05-23 09:08:03</time>
      </trkpt>
      <trkpt lat="42.15295" lon="0.81161">
        <ele>831.8</ele>
        <time>2022-05-23 09:08:04</time>
      </trkpt>
      <trkpt lat="42.15293" lon="0.81157">
        <ele>832</ele>
        <time>2022-05-23 09:08:05</time>
      </trkpt>
      <trkpt lat="42.15292" lon="0.81154">
        <ele>832.2</ele>
        <time>2022-05-23 09:08:06</time>
      </trkpt>
      <trkpt lat="42.1529" lon="0.8115">
        <ele>832.4</ele>
        <time>2022-05-23 09:08:07</time>
      </trkpt>
      <trkpt lat="42.15288" lon="0.81147">
        <ele>832.4</ele>
        <time>2022-05-23 09:08:08</time>
      </trkpt>
      <trkpt lat="42.15287" lon="0.81143">
        <ele>832.6</ele>
        <time>2022-05-23 09:08:09</time>
      </trkpt>
      <trkpt lat="42.15285" lon="0.81139">
        <ele>832.6</ele>
        <time>2022-05-23 09:08:10</time>
      </trkpt>
      <trkpt lat="42.15283" lon="0.81135">
        <ele>832.6</ele>
        <time>2022-05-23 09:08:11</time>
      </trkpt>
      <trkpt lat="42.15282" lon="0.8113">
        <ele>832.8</ele>
        <time>2022-05-23 09:08:12</time>
      </trkpt>
      <trkpt lat="42.1528" lon="0.81126">
        <ele>832.8</ele>
        <time>2022-05-23 09:08:13</time>
      </trkpt>
      <trkpt lat="42.15278" lon="0.81122">
        <ele>832.8</ele>
        <time>2022-05-23 09:08:14</time>
      </trkpt>
      <trkpt lat="42.15276" lon="0.81118">
        <ele>832.8</ele>
        <time>2022-05-23 09:08:15</time>
      </trkpt>
      <trkpt lat="42.15274" lon="0.81113">
        <ele>832.6</ele>
        <time>2022-05-23 09:08:16</time>
      </trkpt>
      <trkpt lat="42.15272" lon="0.81109">
        <ele>832.6</ele>
        <time>2022-05-23 09:08:17</time>
      </trkpt>
      <trkpt lat="42.15271" lon="0.81105">
        <ele>832.6</ele>
        <time>2022-05-23 09:08:18</time>
      </trkpt>
      <trkpt lat="42.15269" lon="0.811">
        <ele>832.8</ele>
        <time>2022-05-23 09:08:19</time>
      </trkpt>
      <trkpt lat="42.15268" lon="0.81096">
        <ele>832.8</ele>
        <time>2022-05-23 09:08:20</time>
      </trkpt>
      <trkpt lat="42.15267" lon="0.8109">
        <ele>832.8</ele>
        <time>2022-05-23 09:08:21</time>
      </trkpt>
      <trkpt lat="42.15267" lon="0.81085">
        <ele>832.8</ele>
        <time>2022-05-23 09:08:22</time>
      </trkpt>
      <trkpt lat="42.15267" lon="0.8108">
        <ele>832.8</ele>
        <time>2022-05-23 09:08:23</time>
      </trkpt>
      <trkpt lat="42.15268" lon="0.81075">
        <ele>832.8</ele>
        <time>2022-05-23 09:08:24</time>
      </trkpt>
      <trkpt lat="42.15268" lon="0.81069">
        <ele>832.8</ele>
        <time>2022-05-23 09:08:25</time>
      </trkpt>
      <trkpt lat="42.1527" lon="0.81064">
        <ele>832.8</ele>
        <time>2022-05-23 09:08:26</time>
      </trkpt>
      <trkpt lat="42.15271" lon="0.81058">
        <ele>832.8</ele>
        <time>2022-05-23 09:08:27</time>
      </trkpt>
      <trkpt lat="42.15273" lon="0.81053">
        <ele>832.8</ele>
        <time>2022-05-23 09:08:28</time>
      </trkpt>
      <trkpt lat="42.15275" lon="0.81048">
        <ele>832.6</ele>
        <time>2022-05-23 09:08:29</time>
      </trkpt>
      <trkpt lat="42.15277" lon="0.81042">
        <ele>832.6</ele>
        <time>2022-05-23 09:08:30</time>
      </trkpt>
      <trkpt lat="42.15278" lon="0.81037">
        <ele>832.6</ele>
        <time>2022-05-23 09:08:31</time>
      </trkpt>
      <trkpt lat="42.1528" lon="0.81031">
        <ele>832.6</ele>
        <time>2022-05-23 09:08:32</time>
      </trkpt>
      <trkpt lat="42.15281" lon="0.81025">
        <ele>832.6</ele>
        <time>2022-05-23 09:08:33</time>
      </trkpt>
      <trkpt lat="42.15283" lon="0.8102">
        <ele>832.6</ele>
        <time>2022-05-23 09:08:34</time>
      </trkpt>
      <trkpt lat="42.15284" lon="0.81014">
        <ele>832.6</ele>
        <time>2022-05-23 09:08:35</time>
      </trkpt>
      <trkpt lat="42.15284" lon="0.81008">
        <ele>832.6</ele>
        <time>2022-05-23 09:08:36</time>
      </trkpt>
      <trkpt lat="42.15284" lon="0.81002">
        <ele>832.6</ele>
        <time>2022-05-23 09:08:37</time>
      </trkpt>
      <trkpt lat="42.15284" lon="0.80997">
        <ele>832.6</ele>
        <time>2022-05-23 09:08:38</time>
      </trkpt>
      <trkpt lat="42.15284" lon="0.80991">
        <ele>832.6</ele>
        <time>2022-05-23 09:08:39</time>
      </trkpt>
      <trkpt lat="42.15282" lon="0.80985">
        <ele>832.8</ele>
        <time>2022-05-23 09:08:40</time>
      </trkpt>
      <trkpt lat="42.15281" lon="0.8098">
        <ele>832.8</ele>
        <time>2022-05-23 09:08:41</time>
      </trkpt>
      <trkpt lat="42.15279" lon="0.80975">
        <ele>832.8</ele>
        <time>2022-05-23 09:08:42</time>
      </trkpt>
      <trkpt lat="42.15277" lon="0.8097">
        <ele>833</ele>
        <time>2022-05-23 09:08:43</time>
      </trkpt>
      <trkpt lat="42.15275" lon="0.80966">
        <ele>833.2</ele>
        <time>2022-05-23 09:08:44</time>
      </trkpt>
      <trkpt lat="42.15272" lon="0.80961">
        <ele>833.2</ele>
        <time>2022-05-23 09:08:45</time>
      </trkpt>
      <trkpt lat="42.1527" lon="0.80958">
        <ele>833.4</ele>
        <time>2022-05-23 09:08:46</time>
      </trkpt>
      <trkpt lat="42.15267" lon="0.80953">
        <ele>833.6</ele>
        <time>2022-05-23 09:08:47</time>
      </trkpt>
      <trkpt lat="42.15265" lon="0.80949">
        <ele>833.8</ele>
        <time>2022-05-23 09:08:48</time>
      </trkpt>
      <trkpt lat="42.15263" lon="0.80945">
        <ele>834</ele>
        <time>2022-05-23 09:08:49</time>
      </trkpt>
      <trkpt lat="42.15262" lon="0.80941">
        <ele>834.2</ele>
        <time>2022-05-23 09:08:50</time>
      </trkpt>
      <trkpt lat="42.15261" lon="0.80937">
        <ele>834.4</ele>
        <time>2022-05-23 09:08:51</time>
      </trkpt>
      <trkpt lat="42.1526" lon="0.80932">
        <ele>834.6</ele>
        <time>2022-05-23 09:08:52</time>
      </trkpt>
      <trkpt lat="42.1526" lon="0.80927">
        <ele>834.8</ele>
        <time>2022-05-23 09:08:53</time>
      </trkpt>
      <trkpt lat="42.1526" lon="0.80922">
        <ele>835</ele>
        <time>2022-05-23 09:08:54</time>
      </trkpt>
      <trkpt lat="42.1526" lon="0.80918">
        <ele>835.2</ele>
        <time>2022-05-23 09:08:55</time>
      </trkpt>
      <trkpt lat="42.1526" lon="0.80914">
        <ele>835.6</ele>
        <time>2022-05-23 09:08:56</time>
      </trkpt>
      <trkpt lat="42.1526" lon="0.8091">
        <ele>835.8</ele>
        <time>2022-05-23 09:08:57</time>
      </trkpt>
      <trkpt lat="42.15261" lon="0.80906">
        <ele>836.2</ele>
        <time>2022-05-23 09:08:58</time>
      </trkpt>
      <trkpt lat="42.15261" lon="0.80901">
        <ele>836.4</ele>
        <time>2022-05-23 09:08:59</time>
      </trkpt>
      <trkpt lat="42.15261" lon="0.80897">
        <ele>836.6</ele>
        <time>2022-05-23 09:09:00</time>
      </trkpt>
      <trkpt lat="42.15261" lon="0.80893">
        <ele>836.8</ele>
        <time>2022-05-23 09:09:01</time>
      </trkpt>
      <trkpt lat="42.15261" lon="0.80889">
        <ele>837.2</ele>
        <time>2022-05-23 09:09:02</time>
      </trkpt>
      <trkpt lat="42.15262" lon="0.80886">
        <ele>837.4</ele>
        <time>2022-05-23 09:09:03</time>
      </trkpt>
      <trkpt lat="42.15262" lon="0.80883">
        <ele>837.6</ele>
        <time>2022-05-23 09:09:04</time>
      </trkpt>
      <trkpt lat="42.15262" lon="0.80878">
        <ele>837.8</ele>
        <time>2022-05-23 09:09:05</time>
      </trkpt>
      <trkpt lat="42.15262" lon="0.80875">
        <ele>838.2</ele>
        <time>2022-05-23 09:09:06</time>
      </trkpt>
      <trkpt lat="42.15262" lon="0.80871">
        <ele>838.4</ele>
        <time>2022-05-23 09:09:07</time>
      </trkpt>
      <trkpt lat="42.15261" lon="0.80868">
        <ele>838.6</ele>
        <time>2022-05-23 09:09:08</time>
      </trkpt>
      <trkpt lat="42.15261" lon="0.80864">
        <ele>838.8</ele>
        <time>2022-05-23 09:09:09</time>
      </trkpt>
      <trkpt lat="42.15261" lon="0.80861">
        <ele>839</ele>
        <time>2022-05-23 09:09:10</time>
      </trkpt>
      <trkpt lat="42.15262" lon="0.80858">
        <ele>839.4</ele>
        <time>2022-05-23 09:09:11</time>
      </trkpt>
      <trkpt lat="42.15262" lon="0.80854">
        <ele>839.6</ele>
        <time>2022-05-23 09:09:12</time>
      </trkpt>
      <trkpt lat="42.15261" lon="0.8085">
        <ele>839.8</ele>
        <time>2022-05-23 09:09:13</time>
      </trkpt>
      <trkpt lat="42.15261" lon="0.80847">
        <ele>840</ele>
        <time>2022-05-23 09:09:14</time>
      </trkpt>
      <trkpt lat="42.1526" lon="0.80843">
        <ele>840.2</ele>
        <time>2022-05-23 09:09:15</time>
      </trkpt>
      <trkpt lat="42.1526" lon="0.8084">
        <ele>840.6</ele>
        <time>2022-05-23 09:09:16</time>
      </trkpt>
      <trkpt lat="42.1526" lon="0.80837">
        <ele>840.8</ele>
        <time>2022-05-23 09:09:17</time>
      </trkpt>
      <trkpt lat="42.1526" lon="0.80834">
        <ele>841</ele>
        <time>2022-05-23 09:09:18</time>
      </trkpt>
      <trkpt lat="42.1526" lon="0.8083">
        <ele>841.2</ele>
        <time>2022-05-23 09:09:19</time>
      </trkpt>
      <trkpt lat="42.1526" lon="0.80827">
        <ele>841.4</ele>
        <time>2022-05-23 09:09:20</time>
      </trkpt>
      <trkpt lat="42.15259" lon="0.80824">
        <ele>841.8</ele>
        <time>2022-05-23 09:09:21</time>
      </trkpt>
      <trkpt lat="42.15259" lon="0.80821">
        <ele>842</ele>
        <time>2022-05-23 09:09:22</time>
      </trkpt>
      <trkpt lat="42.15258" lon="0.80817">
        <ele>842.2</ele>
        <time>2022-05-23 09:09:23</time>
      </trkpt>
      <trkpt lat="42.15258" lon="0.80814">
        <ele>842.4</ele>
        <time>2022-05-23 09:09:24</time>
      </trkpt>
      <trkpt lat="42.15258" lon="0.80811">
        <ele>842.8</ele>
        <time>2022-05-23 09:09:25</time>
      </trkpt>
      <trkpt lat="42.15257" lon="0.80808">
        <ele>843</ele>
        <time>2022-05-23 09:09:26</time>
      </trkpt>
      <trkpt lat="42.15256" lon="0.80804">
        <ele>843</ele>
        <time>2022-05-23 09:09:27</time>
      </trkpt>
      <trkpt lat="42.15254" lon="0.80802">
        <ele>843.2</ele>
        <time>2022-05-23 09:09:28</time>
      </trkpt>
      <trkpt lat="42.15252" lon="0.80798">
        <ele>843.4</ele>
        <time>2022-05-23 09:09:29</time>
      </trkpt>
      <trkpt lat="42.1525" lon="0.80795">
        <ele>843.6</ele>
        <time>2022-05-23 09:09:30</time>
      </trkpt>
      <trkpt lat="42.15248" lon="0.80792">
        <ele>843.6</ele>
        <time>2022-05-23 09:09:31</time>
      </trkpt>
      <trkpt lat="42.15246" lon="0.80789">
        <ele>843.8</ele>
        <time>2022-05-23 09:09:32</time>
      </trkpt>
      <trkpt lat="42.15243" lon="0.80787">
        <ele>843.8</ele>
        <time>2022-05-23 09:09:33</time>
      </trkpt>
      <trkpt lat="42.15239" lon="0.80786">
        <ele>843.8</ele>
        <time>2022-05-23 09:09:34</time>
      </trkpt>
      <trkpt lat="42.15236" lon="0.80785">
        <ele>843.8</ele>
        <time>2022-05-23 09:09:35</time>
      </trkpt>
      <trkpt lat="42.15232" lon="0.80785">
        <ele>843.8</ele>
        <time>2022-05-23 09:09:36</time>
      </trkpt>
      <trkpt lat="42.15228" lon="0.80785">
        <ele>843.8</ele>
        <time>2022-05-23 09:09:37</time>
      </trkpt>
      <trkpt lat="42.15225" lon="0.80786">
        <ele>843.8</ele>
        <time>2022-05-23 09:09:38</time>
      </trkpt>
      <trkpt lat="42.15221" lon="0.80788">
        <ele>843.8</ele>
        <time>2022-05-23 09:09:39</time>
      </trkpt>
      <trkpt lat="42.15218" lon="0.80791">
        <ele>844</ele>
        <time>2022-05-23 09:09:40</time>
      </trkpt>
      <trkpt lat="42.15216" lon="0.80793">
        <ele>844</ele>
        <time>2022-05-23 09:09:41</time>
      </trkpt>
      <trkpt lat="42.15213" lon="0.80795">
        <ele>843.8</ele>
        <time>2022-05-23 09:09:42</time>
      </trkpt>
      <trkpt lat="42.15211" lon="0.80798">
        <ele>844</ele>
        <time>2022-05-23 09:09:43</time>
      </trkpt>
      <trkpt lat="42.15209" lon="0.80801">
        <ele>844</ele>
        <time>2022-05-23 09:09:44</time>
      </trkpt>
      <trkpt lat="42.15206" lon="0.80805">
        <ele>844</ele>
        <time>2022-05-23 09:09:45</time>
      </trkpt>
      <trkpt lat="42.15205" lon="0.80808">
        <ele>844</ele>
        <time>2022-05-23 09:09:46</time>
      </trkpt>
      <trkpt lat="42.15203" lon="0.80812">
        <ele>844</ele>
        <time>2022-05-23 09:09:47</time>
      </trkpt>
      <trkpt lat="42.15202" lon="0.80816">
        <ele>844</ele>
        <time>2022-05-23 09:09:48</time>
      </trkpt>
      <trkpt lat="42.152" lon="0.8082">
        <ele>844</ele>
        <time>2022-05-23 09:09:49</time>
      </trkpt>
      <trkpt lat="42.15199" lon="0.80822">
        <ele>844</ele>
        <time>2022-05-23 09:09:50</time>
      </trkpt>
      <trkpt lat="42.15197" lon="0.80827">
        <ele>844.2</ele>
        <time>2022-05-23 09:09:51</time>
      </trkpt>
      <trkpt lat="42.15195" lon="0.80831">
        <ele>844.2</ele>
        <time>2022-05-23 09:09:52</time>
      </trkpt>
      <trkpt lat="42.15194" lon="0.80835">
        <ele>844.2</ele>
        <time>2022-05-23 09:09:53</time>
      </trkpt>
      <trkpt lat="42.15193" lon="0.80838">
        <ele>844.4</ele>
        <time>2022-05-23 09:09:54</time>
      </trkpt>
      <trkpt lat="42.15192" lon="0.80842">
        <ele>844.6</ele>
        <time>2022-05-23 09:09:55</time>
      </trkpt>
      <trkpt lat="42.15191" lon="0.80845">
        <ele>844.6</ele>
        <time>2022-05-23 09:09:56</time>
      </trkpt>
      <trkpt lat="42.1519" lon="0.80848">
        <ele>844.6</ele>
        <time>2022-05-23 09:09:57</time>
      </trkpt>
      <trkpt lat="42.15189" lon="0.80852">
        <ele>844.8</ele>
        <time>2022-05-23 09:09:58</time>
      </trkpt>
      <trkpt lat="42.15189" lon="0.80855">
        <ele>845</ele>
        <time>2022-05-23 09:09:59</time>
      </trkpt>
      <trkpt lat="42.15188" lon="0.80859">
        <ele>845</ele>
        <time>2022-05-23 09:10:00</time>
      </trkpt>
      <trkpt lat="42.15187" lon="0.80862">
        <ele>845.2</ele>
        <time>2022-05-23 09:10:01</time>
      </trkpt>
      <trkpt lat="42.15186" lon="0.80865">
        <ele>845.4</ele>
        <time>2022-05-23 09:10:02</time>
      </trkpt>
      <trkpt lat="42.15186" lon="0.80868">
        <ele>845.4</ele>
        <time>2022-05-23 09:10:03</time>
      </trkpt>
      <trkpt lat="42.15185" lon="0.80872">
        <ele>845.6</ele>
        <time>2022-05-23 09:10:04</time>
      </trkpt>
      <trkpt lat="42.15184" lon="0.80875">
        <ele>845.8</ele>
        <time>2022-05-23 09:10:05</time>
      </trkpt>
      <trkpt lat="42.15183" lon="0.80878">
        <ele>845.8</ele>
        <time>2022-05-23 09:10:06</time>
      </trkpt>
      <trkpt lat="42.15182" lon="0.80882">
        <ele>846</ele>
        <time>2022-05-23 09:10:07</time>
      </trkpt>
      <trkpt lat="42.15181" lon="0.80886">
        <ele>846.2</ele>
        <time>2022-05-23 09:10:08</time>
      </trkpt>
      <trkpt lat="42.15181" lon="0.80889">
        <ele>846.2</ele>
        <time>2022-05-23 09:10:09</time>
      </trkpt>
      <trkpt lat="42.1518" lon="0.80892">
        <ele>846.4</ele>
        <time>2022-05-23 09:10:10</time>
      </trkpt>
      <trkpt lat="42.15179" lon="0.80895">
        <ele>846.6</ele>
        <time>2022-05-23 09:10:11</time>
      </trkpt>
      <trkpt lat="42.15178" lon="0.80898">
        <ele>846.8</ele>
        <time>2022-05-23 09:10:12</time>
      </trkpt>
      <trkpt lat="42.15177" lon="0.80902">
        <ele>847</ele>
        <time>2022-05-23 09:10:13</time>
      </trkpt>
      <trkpt lat="42.15176" lon="0.80905">
        <ele>847.2</ele>
        <time>2022-05-23 09:10:14</time>
      </trkpt>
      <trkpt lat="42.15175" lon="0.80908">
        <ele>847.2</ele>
        <time>2022-05-23 09:10:15</time>
      </trkpt>
      <trkpt lat="42.15175" lon="0.80911">
        <ele>847.4</ele>
        <time>2022-05-23 09:10:16</time>
      </trkpt>
      <trkpt lat="42.15174" lon="0.80915">
        <ele>847.6</ele>
        <time>2022-05-23 09:10:17</time>
      </trkpt>
      <trkpt lat="42.15173" lon="0.80918">
        <ele>847.8</ele>
        <time>2022-05-23 09:10:18</time>
      </trkpt>
      <trkpt lat="42.15172" lon="0.80921">
        <ele>848</ele>
        <time>2022-05-23 09:10:19</time>
      </trkpt>
      <trkpt lat="42.15171" lon="0.80923">
        <ele>848.2</ele>
        <time>2022-05-23 09:10:20</time>
      </trkpt>
      <trkpt lat="42.15169" lon="0.80926">
        <ele>848.4</ele>
        <time>2022-05-23 09:10:21</time>
      </trkpt>
      <trkpt lat="42.15167" lon="0.80928">
        <ele>848.6</ele>
        <time>2022-05-23 09:10:22</time>
      </trkpt>
      <trkpt lat="42.15165" lon="0.8093">
        <ele>848.8</ele>
        <time>2022-05-23 09:10:23</time>
      </trkpt>
      <trkpt lat="42.15163" lon="0.80932">
        <ele>849</ele>
        <time>2022-05-23 09:10:24</time>
      </trkpt>
      <trkpt lat="42.1516" lon="0.80934">
        <ele>849.2</ele>
        <time>2022-05-23 09:10:25</time>
      </trkpt>
      <trkpt lat="42.15158" lon="0.80935">
        <ele>849.4</ele>
        <time>2022-05-23 09:10:26</time>
      </trkpt>
      <trkpt lat="42.15156" lon="0.80936">
        <ele>849.6</ele>
        <time>2022-05-23 09:10:27</time>
      </trkpt>
      <trkpt lat="42.15153" lon="0.80936">
        <ele>849.6</ele>
        <time>2022-05-23 09:10:28</time>
      </trkpt>
      <trkpt lat="42.15151" lon="0.80936">
        <ele>849.8</ele>
        <time>2022-05-23 09:10:29</time>
      </trkpt>
      <trkpt lat="42.15148" lon="0.80935">
        <ele>850</ele>
        <time>2022-05-23 09:10:30</time>
      </trkpt>
      <trkpt lat="42.15146" lon="0.80934">
        <ele>850.2</ele>
        <time>2022-05-23 09:10:31</time>
      </trkpt>
      <trkpt lat="42.15143" lon="0.80933">
        <ele>850.4</ele>
        <time>2022-05-23 09:10:32</time>
      </trkpt>
      <trkpt lat="42.15142" lon="0.80931">
        <ele>850.6</ele>
        <time>2022-05-23 09:10:33</time>
      </trkpt>
      <trkpt lat="42.15139" lon="0.80929">
        <ele>850.8</ele>
        <time>2022-05-23 09:10:34</time>
      </trkpt>
      <trkpt lat="42.15137" lon="0.80926">
        <ele>851</ele>
        <time>2022-05-23 09:10:35</time>
      </trkpt>
      <trkpt lat="42.15135" lon="0.80924">
        <ele>851.2</ele>
        <time>2022-05-23 09:10:36</time>
      </trkpt>
      <trkpt lat="42.15134" lon="0.80921">
        <ele>851.4</ele>
        <time>2022-05-23 09:10:37</time>
      </trkpt>
      <trkpt lat="42.15132" lon="0.80918">
        <ele>851.6</ele>
        <time>2022-05-23 09:10:38</time>
      </trkpt>
      <trkpt lat="42.15131" lon="0.80915">
        <ele>851.8</ele>
        <time>2022-05-23 09:10:39</time>
      </trkpt>
      <trkpt lat="42.15129" lon="0.80912">
        <ele>852</ele>
        <time>2022-05-23 09:10:40</time>
      </trkpt>
      <trkpt lat="42.15128" lon="0.80909">
        <ele>852.2</ele>
        <time>2022-05-23 09:10:41</time>
      </trkpt>
      <trkpt lat="42.15127" lon="0.80906">
        <ele>852.4</ele>
        <time>2022-05-23 09:10:42</time>
      </trkpt>
      <trkpt lat="42.15125" lon="0.80903">
        <ele>852.6</ele>
        <time>2022-05-23 09:10:43</time>
      </trkpt>
      <trkpt lat="42.15124" lon="0.809">
        <ele>852.8</ele>
        <time>2022-05-23 09:10:44</time>
      </trkpt>
      <trkpt lat="42.15123" lon="0.80897">
        <ele>852.8</ele>
        <time>2022-05-23 09:10:45</time>
      </trkpt>
      <trkpt lat="42.15121" lon="0.80894">
        <ele>853</ele>
        <time>2022-05-23 09:10:46</time>
      </trkpt>
      <trkpt lat="42.1512" lon="0.80891">
        <ele>853.2</ele>
        <time>2022-05-23 09:10:47</time>
      </trkpt>
      <trkpt lat="42.15119" lon="0.80887">
        <ele>853.6</ele>
        <time>2022-05-23 09:10:48</time>
      </trkpt>
      <trkpt lat="42.15118" lon="0.80884">
        <ele>853.8</ele>
        <time>2022-05-23 09:10:49</time>
      </trkpt>
      <trkpt lat="42.15116" lon="0.80881">
        <ele>854</ele>
        <time>2022-05-23 09:10:50</time>
      </trkpt>
      <trkpt lat="42.15115" lon="0.80878">
        <ele>854.2</ele>
        <time>2022-05-23 09:10:51</time>
      </trkpt>
      <trkpt lat="42.15114" lon="0.80875">
        <ele>854.4</ele>
        <time>2022-05-23 09:10:52</time>
      </trkpt>
      <trkpt lat="42.15113" lon="0.80873">
        <ele>854.6</ele>
        <time>2022-05-23 09:10:53</time>
      </trkpt>
      <trkpt lat="42.15111" lon="0.8087">
        <ele>854.8</ele>
        <time>2022-05-23 09:10:54</time>
      </trkpt>
      <trkpt lat="42.1511" lon="0.80868">
        <ele>855</ele>
        <time>2022-05-23 09:10:55</time>
      </trkpt>
      <trkpt lat="42.15108" lon="0.80865">
        <ele>855.2</ele>
        <time>2022-05-23 09:10:56</time>
      </trkpt>
      <trkpt lat="42.15106" lon="0.80863">
        <ele>855.4</ele>
        <time>2022-05-23 09:10:57</time>
      </trkpt>
      <trkpt lat="42.15104" lon="0.8086">
        <ele>855.6</ele>
        <time>2022-05-23 09:10:58</time>
      </trkpt>
      <trkpt lat="42.15102" lon="0.80858">
        <ele>855.8</ele>
        <time>2022-05-23 09:10:59</time>
      </trkpt>
      <trkpt lat="42.151" lon="0.80856">
        <ele>856</ele>
        <time>2022-05-23 09:11:00</time>
      </trkpt>
      <trkpt lat="42.15098" lon="0.80853">
        <ele>856.2</ele>
        <time>2022-05-23 09:11:01</time>
      </trkpt>
      <trkpt lat="42.15095" lon="0.80852">
        <ele>856.4</ele>
        <time>2022-05-23 09:11:02</time>
      </trkpt>
      <trkpt lat="42.15092" lon="0.8085">
        <ele>856.4</ele>
        <time>2022-05-23 09:11:03</time>
      </trkpt>
      <trkpt lat="42.1509" lon="0.8085">
        <ele>856.6</ele>
        <time>2022-05-23 09:11:04</time>
      </trkpt>
      <trkpt lat="42.15087" lon="0.80851">
        <ele>856.8</ele>
        <time>2022-05-23 09:11:05</time>
      </trkpt>
      <trkpt lat="42.15085" lon="0.80851">
        <ele>857</ele>
        <time>2022-05-23 09:11:06</time>
      </trkpt>
      <trkpt lat="42.15082" lon="0.80853">
        <ele>857</ele>
        <time>2022-05-23 09:11:07</time>
      </trkpt>
      <trkpt lat="42.1508" lon="0.80854">
        <ele>857.2</ele>
        <time>2022-05-23 09:11:08</time>
      </trkpt>
      <trkpt lat="42.15078" lon="0.80855">
        <ele>857.4</ele>
        <time>2022-05-23 09:11:09</time>
      </trkpt>
      <trkpt lat="42.15076" lon="0.80857">
        <ele>857.6</ele>
        <time>2022-05-23 09:11:10</time>
      </trkpt>
      <trkpt lat="42.15073" lon="0.80858">
        <ele>857.8</ele>
        <time>2022-05-23 09:11:11</time>
      </trkpt>
      <trkpt lat="42.15071" lon="0.8086">
        <ele>858</ele>
        <time>2022-05-23 09:11:12</time>
      </trkpt>
      <trkpt lat="42.15069" lon="0.80862">
        <ele>858.2</ele>
        <time>2022-05-23 09:11:13</time>
      </trkpt>
      <trkpt lat="42.15067" lon="0.80864">
        <ele>858.4</ele>
        <time>2022-05-23 09:11:14</time>
      </trkpt>
      <trkpt lat="42.15065" lon="0.80866">
        <ele>858.6</ele>
        <time>2022-05-23 09:11:15</time>
      </trkpt>
      <trkpt lat="42.15064" lon="0.80868">
        <ele>858.8</ele>
        <time>2022-05-23 09:11:16</time>
      </trkpt>
      <trkpt lat="42.15062" lon="0.80871">
        <ele>859</ele>
        <time>2022-05-23 09:11:17</time>
      </trkpt>
      <trkpt lat="42.15061" lon="0.80874">
        <ele>859.2</ele>
        <time>2022-05-23 09:11:18</time>
      </trkpt>
      <trkpt lat="42.1506" lon="0.80877">
        <ele>859.2</ele>
        <time>2022-05-23 09:11:19</time>
      </trkpt>
      <trkpt lat="42.15058" lon="0.80881">
        <ele>859.4</ele>
        <time>2022-05-23 09:11:20</time>
      </trkpt>
      <trkpt lat="42.15058" lon="0.80884">
        <ele>859.6</ele>
        <time>2022-05-23 09:11:21</time>
      </trkpt>
      <trkpt lat="42.15057" lon="0.80887">
        <ele>859.8</ele>
        <time>2022-05-23 09:11:22</time>
      </trkpt>
      <trkpt lat="42.15056" lon="0.80891">
        <ele>859.8</ele>
        <time>2022-05-23 09:11:23</time>
      </trkpt>
      <trkpt lat="42.15055" lon="0.80894">
        <ele>860</ele>
        <time>2022-05-23 09:11:24</time>
      </trkpt>
      <trkpt lat="42.15054" lon="0.80898">
        <ele>860</ele>
        <time>2022-05-23 09:11:25</time>
      </trkpt>
      <trkpt lat="42.15053" lon="0.80901">
        <ele>860.2</ele>
        <time>2022-05-23 09:11:26</time>
      </trkpt>
      <trkpt lat="42.15052" lon="0.80905">
        <ele>860.4</ele>
        <time>2022-05-23 09:11:27</time>
      </trkpt>
      <trkpt lat="42.15051" lon="0.80908">
        <ele>860.6</ele>
        <time>2022-05-23 09:11:28</time>
      </trkpt>
      <trkpt lat="42.1505" lon="0.80912">
        <ele>860.8</ele>
        <time>2022-05-23 09:11:29</time>
      </trkpt>
      <trkpt lat="42.15049" lon="0.80915">
        <ele>861</ele>
        <time>2022-05-23 09:11:30</time>
      </trkpt>
      <trkpt lat="42.15047" lon="0.80917">
        <ele>861.2</ele>
        <time>2022-05-23 09:11:31</time>
      </trkpt>
      <trkpt lat="42.15046" lon="0.8092">
        <ele>861.4</ele>
        <time>2022-05-23 09:11:32</time>
      </trkpt>
      <trkpt lat="42.15045" lon="0.80923">
        <ele>861.6</ele>
        <time>2022-05-23 09:11:33</time>
      </trkpt>
      <trkpt lat="42.15044" lon="0.80925">
        <ele>861.8</ele>
        <time>2022-05-23 09:11:34</time>
      </trkpt>
      <trkpt lat="42.15043" lon="0.80927">
        <ele>862</ele>
        <time>2022-05-23 09:11:35</time>
      </trkpt>
      <trkpt lat="42.15041" lon="0.80929">
        <ele>862.2</ele>
        <time>2022-05-23 09:11:36</time>
      </trkpt>
      <trkpt lat="42.15039" lon="0.80931">
        <ele>862.2</ele>
        <time>2022-05-23 09:11:37</time>
      </trkpt>
      <trkpt lat="42.15037" lon="0.80932">
        <ele>862.4</ele>
        <time>2022-05-23 09:11:38</time>
      </trkpt>
      <trkpt lat="42.15036" lon="0.80933">
        <ele>862.6</ele>
        <time>2022-05-23 09:11:39</time>
      </trkpt>
      <trkpt lat="42.15034" lon="0.80934">
        <ele>862.8</ele>
        <time>2022-05-23 09:11:40</time>
      </trkpt>
      <trkpt lat="42.15033" lon="0.80935">
        <ele>862.8</ele>
        <time>2022-05-23 09:11:41</time>
      </trkpt>
      <trkpt lat="42.15031" lon="0.80936">
        <ele>863</ele>
        <time>2022-05-23 09:11:42</time>
      </trkpt>
      <trkpt lat="42.15029" lon="0.80936">
        <ele>863</ele>
        <time>2022-05-23 09:11:43</time>
      </trkpt>
      <trkpt lat="42.15027" lon="0.80936">
        <ele>863.4</ele>
        <time>2022-05-23 09:11:44</time>
      </trkpt>
      <trkpt lat="42.15025" lon="0.80935">
        <ele>863.4</ele>
        <time>2022-05-23 09:11:45</time>
      </trkpt>
      <trkpt lat="42.15023" lon="0.80935">
        <ele>863.8</ele>
        <time>2022-05-23 09:11:46</time>
      </trkpt>
      <trkpt lat="42.15021" lon="0.80935">
        <ele>864</ele>
        <time>2022-05-23 09:11:47</time>
      </trkpt>
      <trkpt lat="42.15019" lon="0.80934">
        <ele>864.2</ele>
        <time>2022-05-23 09:11:48</time>
      </trkpt>
      <trkpt lat="42.15017" lon="0.80933">
        <ele>864.4</ele>
        <time>2022-05-23 09:11:49</time>
      </trkpt>
      <trkpt lat="42.15016" lon="0.80932">
        <ele>864.6</ele>
        <time>2022-05-23 09:11:50</time>
      </trkpt>
      <trkpt lat="42.15014" lon="0.80931">
        <ele>864.8</ele>
        <time>2022-05-23 09:11:51</time>
      </trkpt>
      <trkpt lat="42.15012" lon="0.8093">
        <ele>865</ele>
        <time>2022-05-23 09:11:52</time>
      </trkpt>
      <trkpt lat="42.1501" lon="0.80929">
        <ele>865.2</ele>
        <time>2022-05-23 09:11:53</time>
      </trkpt>
      <trkpt lat="42.15009" lon="0.80927">
        <ele>865.2</ele>
        <time>2022-05-23 09:11:54</time>
      </trkpt>
      <trkpt lat="42.15007" lon="0.80926">
        <ele>865.4</ele>
        <time>2022-05-23 09:11:55</time>
      </trkpt>
      <trkpt lat="42.15006" lon="0.80925">
        <ele>865.6</ele>
        <time>2022-05-23 09:11:56</time>
      </trkpt>
      <trkpt lat="42.15003" lon="0.80924">
        <ele>865.8</ele>
        <time>2022-05-23 09:11:57</time>
      </trkpt>
      <trkpt lat="42.15002" lon="0.80923">
        <ele>866</ele>
        <time>2022-05-23 09:11:58</time>
      </trkpt>
      <trkpt lat="42.15" lon="0.80921">
        <ele>866.2</ele>
        <time>2022-05-23 09:11:59</time>
      </trkpt>
      <trkpt lat="42.14999" lon="0.8092">
        <ele>866.2</ele>
        <time>2022-05-23 09:12:00</time>
      </trkpt>
      <trkpt lat="42.14997" lon="0.80919">
        <ele>866.4</ele>
        <time>2022-05-23 09:12:01</time>
      </trkpt>
      <trkpt lat="42.14995" lon="0.80917">
        <ele>866.6</ele>
        <time>2022-05-23 09:12:02</time>
      </trkpt>
      <trkpt lat="42.14994" lon="0.80916">
        <ele>866.8</ele>
        <time>2022-05-23 09:12:03</time>
      </trkpt>
      <trkpt lat="42.14992" lon="0.80914">
        <ele>867</ele>
        <time>2022-05-23 09:12:04</time>
      </trkpt>
      <trkpt lat="42.1499" lon="0.80913">
        <ele>867</ele>
        <time>2022-05-23 09:12:05</time>
      </trkpt>
      <trkpt lat="42.14988" lon="0.80912">
        <ele>867.2</ele>
        <time>2022-05-23 09:12:06</time>
      </trkpt>
      <trkpt lat="42.14987" lon="0.80911">
        <ele>867.4</ele>
        <time>2022-05-23 09:12:07</time>
      </trkpt>
      <trkpt lat="42.14986" lon="0.8091">
        <ele>867.6</ele>
        <time>2022-05-23 09:12:08</time>
      </trkpt>
      <trkpt lat="42.14983" lon="0.80908">
        <ele>867.6</ele>
        <time>2022-05-23 09:12:09</time>
      </trkpt>
      <trkpt lat="42.14982" lon="0.80907">
        <ele>867.8</ele>
        <time>2022-05-23 09:12:10</time>
      </trkpt>
      <trkpt lat="42.1498" lon="0.80905">
        <ele>868</ele>
        <time>2022-05-23 09:12:11</time>
      </trkpt>
      <trkpt lat="42.14979" lon="0.80904">
        <ele>868.2</ele>
        <time>2022-05-23 09:12:12</time>
      </trkpt>
      <trkpt lat="42.14978" lon="0.80903">
        <ele>868.4</ele>
        <time>2022-05-23 09:12:13</time>
      </trkpt>
      <trkpt lat="42.14976" lon="0.80901">
        <ele>868.6</ele>
        <time>2022-05-23 09:12:14</time>
      </trkpt>
      <trkpt lat="42.14974" lon="0.809">
        <ele>868.8</ele>
        <time>2022-05-23 09:12:15</time>
      </trkpt>
      <trkpt lat="42.14973" lon="0.80899">
        <ele>869</ele>
        <time>2022-05-23 09:12:16</time>
      </trkpt>
      <trkpt lat="42.14971" lon="0.80899">
        <ele>869</ele>
        <time>2022-05-23 09:12:17</time>
      </trkpt>
      <trkpt lat="42.14969" lon="0.80898">
        <ele>869.4</ele>
        <time>2022-05-23 09:12:18</time>
      </trkpt>
      <trkpt lat="42.14967" lon="0.80897">
        <ele>869.6</ele>
        <time>2022-05-23 09:12:19</time>
      </trkpt>
      <trkpt lat="42.14965" lon="0.80895">
        <ele>869.6</ele>
        <time>2022-05-23 09:12:20</time>
      </trkpt>
      <trkpt lat="42.14964" lon="0.80894">
        <ele>869.8</ele>
        <time>2022-05-23 09:12:21</time>
      </trkpt>
      <trkpt lat="42.14962" lon="0.80893">
        <ele>870</ele>
        <time>2022-05-23 09:12:22</time>
      </trkpt>
      <trkpt lat="42.14961" lon="0.80892">
        <ele>870.2</ele>
        <time>2022-05-23 09:12:23</time>
      </trkpt>
      <trkpt lat="42.14959" lon="0.8089">
        <ele>870.4</ele>
        <time>2022-05-23 09:12:24</time>
      </trkpt>
      <trkpt lat="42.14958" lon="0.80888">
        <ele>870.6</ele>
        <time>2022-05-23 09:12:25</time>
      </trkpt>
      <trkpt lat="42.14956" lon="0.80887">
        <ele>870.8</ele>
        <time>2022-05-23 09:12:26</time>
      </trkpt>
      <trkpt lat="42.14955" lon="0.80886">
        <ele>871</ele>
        <time>2022-05-23 09:12:27</time>
      </trkpt>
      <trkpt lat="42.14953" lon="0.80885">
        <ele>871</ele>
        <time>2022-05-23 09:12:28</time>
      </trkpt>
      <trkpt lat="42.14952" lon="0.80884">
        <ele>871.2</ele>
        <time>2022-05-23 09:12:29</time>
      </trkpt>
      <trkpt lat="42.14951" lon="0.80883">
        <ele>871.2</ele>
        <time>2022-05-23 09:12:30</time>
      </trkpt>
      <trkpt lat="42.1495" lon="0.80882">
        <ele>871.4</ele>
        <time>2022-05-23 09:12:31</time>
      </trkpt>
      <trkpt lat="42.14949" lon="0.80881">
        <ele>871.4</ele>
        <time>2022-05-23 09:12:32</time>
      </trkpt>
      <trkpt lat="42.14948" lon="0.8088">
        <ele>871.4</ele>
        <time>2022-05-23 09:12:33</time>
      </trkpt>
      <trkpt lat="42.14947" lon="0.80879">
        <ele>871.4</ele>
        <time>2022-05-23 09:12:34</time>
      </trkpt>
      <trkpt lat="42.14945" lon="0.80878">
        <ele>871.6</ele>
        <time>2022-05-23 09:12:35</time>
      </trkpt>
      <trkpt lat="42.14944" lon="0.80877">
        <ele>871.6</ele>
        <time>2022-05-23 09:12:36</time>
      </trkpt>
      <trkpt lat="42.14942" lon="0.80876">
        <ele>871.6</ele>
        <time>2022-05-23 09:12:37</time>
      </trkpt>
      <trkpt lat="42.14941" lon="0.80875">
        <ele>871.8</ele>
        <time>2022-05-23 09:12:38</time>
      </trkpt>
      <trkpt lat="42.14939" lon="0.80873">
        <ele>871.8</ele>
        <time>2022-05-23 09:12:39</time>
      </trkpt>
      <trkpt lat="42.14937" lon="0.80872">
        <ele>872</ele>
        <time>2022-05-23 09:12:40</time>
      </trkpt>
      <trkpt lat="42.14936" lon="0.80871">
        <ele>872</ele>
        <time>2022-05-23 09:12:41</time>
      </trkpt>
      <trkpt lat="42.14934" lon="0.8087">
        <ele>872.2</ele>
        <time>2022-05-23 09:12:42</time>
      </trkpt>
      <trkpt lat="42.14933" lon="0.80869">
        <ele>872.2</ele>
        <time>2022-05-23 09:12:43</time>
      </trkpt>
      <trkpt lat="42.14932" lon="0.80867">
        <ele>872.4</ele>
        <time>2022-05-23 09:12:44</time>
      </trkpt>
      <trkpt lat="42.14931" lon="0.80865">
        <ele>872.4</ele>
        <time>2022-05-23 09:12:45</time>
      </trkpt>
      <trkpt lat="42.1493" lon="0.80863">
        <ele>872.6</ele>
        <time>2022-05-23 09:12:46</time>
      </trkpt>
      <trkpt lat="42.14929" lon="0.80861">
        <ele>872.8</ele>
        <time>2022-05-23 09:12:47</time>
      </trkpt>
      <trkpt lat="42.14928" lon="0.80859">
        <ele>872.8</ele>
        <time>2022-05-23 09:12:48</time>
      </trkpt>
      <trkpt lat="42.14927" lon="0.80857">
        <ele>873</ele>
        <time>2022-05-23 09:12:49</time>
      </trkpt>
      <trkpt lat="42.14926" lon="0.80855">
        <ele>873.2</ele>
        <time>2022-05-23 09:12:50</time>
      </trkpt>
      <trkpt lat="42.14925" lon="0.80853">
        <ele>873.4</ele>
        <time>2022-05-23 09:12:51</time>
      </trkpt>
      <trkpt lat="42.14925" lon="0.80851">
        <ele>873.6</ele>
        <time>2022-05-23 09:12:52</time>
      </trkpt>
      <trkpt lat="42.14925" lon="0.80849">
        <ele>873.8</ele>
        <time>2022-05-23 09:12:53</time>
      </trkpt>
      <trkpt lat="42.14924" lon="0.80846">
        <ele>873.8</ele>
        <time>2022-05-23 09:12:54</time>
      </trkpt>
      <trkpt lat="42.14924" lon="0.80844">
        <ele>874</ele>
        <time>2022-05-23 09:12:55</time>
      </trkpt>
      <trkpt lat="42.14924" lon="0.80842">
        <ele>874</ele>
        <time>2022-05-23 09:12:56</time>
      </trkpt>
      <trkpt lat="42.14924" lon="0.8084">
        <ele>874.2</ele>
        <time>2022-05-23 09:12:57</time>
      </trkpt>
      <trkpt lat="42.14924" lon="0.80838">
        <ele>874.2</ele>
        <time>2022-05-23 09:12:58</time>
      </trkpt>
      <trkpt lat="42.14924" lon="0.80835">
        <ele>874.4</ele>
        <time>2022-05-23 09:12:59</time>
      </trkpt>
      <trkpt lat="42.14925" lon="0.80833">
        <ele>874.4</ele>
        <time>2022-05-23 09:13:00</time>
      </trkpt>
      <trkpt lat="42.14925" lon="0.80831">
        <ele>874.6</ele>
        <time>2022-05-23 09:13:01</time>
      </trkpt>
      <trkpt lat="42.14926" lon="0.80828">
        <ele>874.6</ele>
        <time>2022-05-23 09:13:02</time>
      </trkpt>
      <trkpt lat="42.14926" lon="0.80826">
        <ele>874.8</ele>
        <time>2022-05-23 09:13:03</time>
      </trkpt>
      <trkpt lat="42.14926" lon="0.80824">
        <ele>875</ele>
        <time>2022-05-23 09:13:04</time>
      </trkpt>
      <trkpt lat="42.14927" lon="0.80821">
        <ele>875.2</ele>
        <time>2022-05-23 09:13:05</time>
      </trkpt>
      <trkpt lat="42.14927" lon="0.80819">
        <ele>875.4</ele>
        <time>2022-05-23 09:13:06</time>
      </trkpt>
      <trkpt lat="42.14927" lon="0.80816">
        <ele>875.4</ele>
        <time>2022-05-23 09:13:07</time>
      </trkpt>
      <trkpt lat="42.14927" lon="0.80814">
        <ele>875.6</ele>
        <time>2022-05-23 09:13:08</time>
      </trkpt>
      <trkpt lat="42.14928" lon="0.80811">
        <ele>875.8</ele>
        <time>2022-05-23 09:13:09</time>
      </trkpt>
      <trkpt lat="42.14927" lon="0.80809">
        <ele>875.8</ele>
        <time>2022-05-23 09:13:10</time>
      </trkpt>
      <trkpt lat="42.14928" lon="0.80806">
        <ele>876</ele>
        <time>2022-05-23 09:13:11</time>
      </trkpt>
      <trkpt lat="42.14928" lon="0.80804">
        <ele>876</ele>
        <time>2022-05-23 09:13:12</time>
      </trkpt>
      <trkpt lat="42.14928" lon="0.80802">
        <ele>876.2</ele>
        <time>2022-05-23 09:13:13</time>
      </trkpt>
      <trkpt lat="42.14928" lon="0.80799">
        <ele>876.4</ele>
        <time>2022-05-23 09:13:14</time>
      </trkpt>
      <trkpt lat="42.14928" lon="0.80797">
        <ele>876.4</ele>
        <time>2022-05-23 09:13:15</time>
      </trkpt>
      <trkpt lat="42.14928" lon="0.80795">
        <ele>876.6</ele>
        <time>2022-05-23 09:13:16</time>
      </trkpt>
      <trkpt lat="42.14929" lon="0.80792">
        <ele>876.8</ele>
        <time>2022-05-23 09:13:17</time>
      </trkpt>
      <trkpt lat="42.14929" lon="0.8079">
        <ele>877</ele>
        <time>2022-05-23 09:13:18</time>
      </trkpt>
      <trkpt lat="42.14929" lon="0.80787">
        <ele>877.2</ele>
        <time>2022-05-23 09:13:19</time>
      </trkpt>
      <trkpt lat="42.14929" lon="0.80785">
        <ele>877.4</ele>
        <time>2022-05-23 09:13:20</time>
      </trkpt>
      <trkpt lat="42.14929" lon="0.80783">
        <ele>877.6</ele>
        <time>2022-05-23 09:13:21</time>
      </trkpt>
      <trkpt lat="42.14929" lon="0.8078">
        <ele>877.8</ele>
        <time>2022-05-23 09:13:22</time>
      </trkpt>
      <trkpt lat="42.14928" lon="0.80778">
        <ele>878</ele>
        <time>2022-05-23 09:13:23</time>
      </trkpt>
      <trkpt lat="42.14928" lon="0.80775">
        <ele>878</ele>
        <time>2022-05-23 09:13:24</time>
      </trkpt>
      <trkpt lat="42.14928" lon="0.80773">
        <ele>878.2</ele>
        <time>2022-05-23 09:13:25</time>
      </trkpt>
      <trkpt lat="42.14929" lon="0.8077">
        <ele>878.4</ele>
        <time>2022-05-23 09:13:26</time>
      </trkpt>
      <trkpt lat="42.14929" lon="0.80767">
        <ele>878.6</ele>
        <time>2022-05-23 09:13:27</time>
      </trkpt>
      <trkpt lat="42.14929" lon="0.80765">
        <ele>878.6</ele>
        <time>2022-05-23 09:13:28</time>
      </trkpt>
      <trkpt lat="42.14929" lon="0.80762">
        <ele>878.8</ele>
        <time>2022-05-23 09:13:29</time>
      </trkpt>
      <trkpt lat="42.14929" lon="0.8076">
        <ele>879</ele>
        <time>2022-05-23 09:13:30</time>
      </trkpt>
      <trkpt lat="42.1493" lon="0.80758">
        <ele>879.2</ele>
        <time>2022-05-23 09:13:31</time>
      </trkpt>
      <trkpt lat="42.1493" lon="0.80755">
        <ele>879.4</ele>
        <time>2022-05-23 09:13:32</time>
      </trkpt>
      <trkpt lat="42.14929" lon="0.80752">
        <ele>879.6</ele>
        <time>2022-05-23 09:13:33</time>
      </trkpt>
      <trkpt lat="42.14929" lon="0.8075">
        <ele>879.8</ele>
        <time>2022-05-23 09:13:34</time>
      </trkpt>
      <trkpt lat="42.14928" lon="0.80747">
        <ele>880</ele>
        <time>2022-05-23 09:13:35</time>
      </trkpt>
      <trkpt lat="42.14928" lon="0.80744">
        <ele>880.2</ele>
        <time>2022-05-23 09:13:36</time>
      </trkpt>
      <trkpt lat="42.14928" lon="0.80742">
        <ele>880.6</ele>
        <time>2022-05-23 09:13:37</time>
      </trkpt>
      <trkpt lat="42.14928" lon="0.80739">
        <ele>880.8</ele>
        <time>2022-05-23 09:13:38</time>
      </trkpt>
      <trkpt lat="42.14928" lon="0.80737">
        <ele>881</ele>
        <time>2022-05-23 09:13:39</time>
      </trkpt>
      <trkpt lat="42.14928" lon="0.80735">
        <ele>881.2</ele>
        <time>2022-05-23 09:13:40</time>
      </trkpt>
      <trkpt lat="42.14928" lon="0.80732">
        <ele>881.4</ele>
        <time>2022-05-23 09:13:41</time>
      </trkpt>
      <trkpt lat="42.14927" lon="0.8073">
        <ele>881.6</ele>
        <time>2022-05-23 09:13:42</time>
      </trkpt>
      <trkpt lat="42.14927" lon="0.80728">
        <ele>881.8</ele>
        <time>2022-05-23 09:13:43</time>
      </trkpt>
      <trkpt lat="42.14926" lon="0.80726">
        <ele>882</ele>
        <time>2022-05-23 09:13:44</time>
      </trkpt>
      <trkpt lat="42.14925" lon="0.80724">
        <ele>882.2</ele>
        <time>2022-05-23 09:13:45</time>
      </trkpt>
      <trkpt lat="42.14924" lon="0.80722">
        <ele>882.4</ele>
        <time>2022-05-23 09:13:46</time>
      </trkpt>
      <trkpt lat="42.14923" lon="0.8072">
        <ele>882.6</ele>
        <time>2022-05-23 09:13:47</time>
      </trkpt>
      <trkpt lat="42.14921" lon="0.80717">
        <ele>882.8</ele>
        <time>2022-05-23 09:13:48</time>
      </trkpt>
      <trkpt lat="42.1492" lon="0.80715">
        <ele>883</ele>
        <time>2022-05-23 09:13:49</time>
      </trkpt>
      <trkpt lat="42.14918" lon="0.80714">
        <ele>883</ele>
        <time>2022-05-23 09:13:50</time>
      </trkpt>
      <trkpt lat="42.14916" lon="0.80712">
        <ele>883.2</ele>
        <time>2022-05-23 09:13:51</time>
      </trkpt>
      <trkpt lat="42.14914" lon="0.80711">
        <ele>883.4</ele>
        <time>2022-05-23 09:13:52</time>
      </trkpt>
      <trkpt lat="42.14912" lon="0.8071">
        <ele>883.4</ele>
        <time>2022-05-23 09:13:53</time>
      </trkpt>
      <trkpt lat="42.14911" lon="0.80709">
        <ele>883.6</ele>
        <time>2022-05-23 09:13:54</time>
      </trkpt>
      <trkpt lat="42.14909" lon="0.80708">
        <ele>883.8</ele>
        <time>2022-05-23 09:13:55</time>
      </trkpt>
      <trkpt lat="42.14907" lon="0.80707">
        <ele>884</ele>
        <time>2022-05-23 09:13:56</time>
      </trkpt>
      <trkpt lat="42.14905" lon="0.80707">
        <ele>884</ele>
        <time>2022-05-23 09:13:57</time>
      </trkpt>
      <trkpt lat="42.14903" lon="0.80707">
        <ele>884.2</ele>
        <time>2022-05-23 09:13:58</time>
      </trkpt>
      <trkpt lat="42.14901" lon="0.80707">
        <ele>884.2</ele>
        <time>2022-05-23 09:13:59</time>
      </trkpt>
      <trkpt lat="42.14899" lon="0.80708">
        <ele>884.4</ele>
        <time>2022-05-23 09:14:00</time>
      </trkpt>
      <trkpt lat="42.14896" lon="0.80708">
        <ele>884.4</ele>
        <time>2022-05-23 09:14:01</time>
      </trkpt>
      <trkpt lat="42.14894" lon="0.80709">
        <ele>884.6</ele>
        <time>2022-05-23 09:14:02</time>
      </trkpt>
      <trkpt lat="42.14892" lon="0.8071">
        <ele>884.6</ele>
        <time>2022-05-23 09:14:03</time>
      </trkpt>
      <trkpt lat="42.14889" lon="0.8071">
        <ele>884.6</ele>
        <time>2022-05-23 09:14:04</time>
      </trkpt>
      <trkpt lat="42.14887" lon="0.80711">
        <ele>884.8</ele>
        <time>2022-05-23 09:14:05</time>
      </trkpt>
      <trkpt lat="42.14884" lon="0.80713">
        <ele>884.8</ele>
        <time>2022-05-23 09:14:06</time>
      </trkpt>
      <trkpt lat="42.14881" lon="0.80715">
        <ele>884.8</ele>
        <time>2022-05-23 09:14:07</time>
      </trkpt>
      <trkpt lat="42.14879" lon="0.80716">
        <ele>885</ele>
        <time>2022-05-23 09:14:08</time>
      </trkpt>
      <trkpt lat="42.14877" lon="0.80719">
        <ele>885</ele>
        <time>2022-05-23 09:14:09</time>
      </trkpt>
      <trkpt lat="42.14875" lon="0.80721">
        <ele>885.2</ele>
        <time>2022-05-23 09:14:10</time>
      </trkpt>
      <trkpt lat="42.14873" lon="0.80723">
        <ele>885.4</ele>
        <time>2022-05-23 09:14:11</time>
      </trkpt>
      <trkpt lat="42.14871" lon="0.80725">
        <ele>885.4</ele>
        <time>2022-05-23 09:14:12</time>
      </trkpt>
      <trkpt lat="42.1487" lon="0.80727">
        <ele>885.6</ele>
        <time>2022-05-23 09:14:13</time>
      </trkpt>
      <trkpt lat="42.14868" lon="0.80729">
        <ele>885.8</ele>
        <time>2022-05-23 09:14:14</time>
      </trkpt>
      <trkpt lat="42.14867" lon="0.80731">
        <ele>886</ele>
        <time>2022-05-23 09:14:15</time>
      </trkpt>
      <trkpt lat="42.14865" lon="0.80733">
        <ele>886</ele>
        <time>2022-05-23 09:14:16</time>
      </trkpt>
      <trkpt lat="42.14864" lon="0.80735">
        <ele>886.2</ele>
        <time>2022-05-23 09:14:17</time>
      </trkpt>
      <trkpt lat="42.14862" lon="0.80737">
        <ele>886.4</ele>
        <time>2022-05-23 09:14:18</time>
      </trkpt>
      <trkpt lat="42.1486" lon="0.80738">
        <ele>886.4</ele>
        <time>2022-05-23 09:14:19</time>
      </trkpt>
      <trkpt lat="42.14858" lon="0.80739">
        <ele>886.6</ele>
        <time>2022-05-23 09:14:20</time>
      </trkpt>
      <trkpt lat="42.14856" lon="0.80741">
        <ele>886.8</ele>
        <time>2022-05-23 09:14:21</time>
      </trkpt>
      <trkpt lat="42.14854" lon="0.80742">
        <ele>887</ele>
        <time>2022-05-23 09:14:22</time>
      </trkpt>
      <trkpt lat="42.14852" lon="0.80743">
        <ele>887</ele>
        <time>2022-05-23 09:14:23</time>
      </trkpt>
      <trkpt lat="42.14851" lon="0.80745">
        <ele>887.2</ele>
        <time>2022-05-23 09:14:24</time>
      </trkpt>
      <trkpt lat="42.14849" lon="0.80747">
        <ele>887.4</ele>
        <time>2022-05-23 09:14:25</time>
      </trkpt>
      <trkpt lat="42.14848" lon="0.80749">
        <ele>887.6</ele>
        <time>2022-05-23 09:14:26</time>
      </trkpt>
      <trkpt lat="42.14847" lon="0.80751">
        <ele>887.6</ele>
        <time>2022-05-23 09:14:27</time>
      </trkpt>
      <trkpt lat="42.14846" lon="0.80753">
        <ele>887.8</ele>
        <time>2022-05-23 09:14:28</time>
      </trkpt>
      <trkpt lat="42.14844" lon="0.80755">
        <ele>888</ele>
        <time>2022-05-23 09:14:29</time>
      </trkpt>
      <trkpt lat="42.14842" lon="0.80757">
        <ele>888</ele>
        <time>2022-05-23 09:14:30</time>
      </trkpt>
      <trkpt lat="42.14841" lon="0.80759">
        <ele>888.2</ele>
        <time>2022-05-23 09:14:31</time>
      </trkpt>
      <trkpt lat="42.14839" lon="0.80761">
        <ele>888.4</ele>
        <time>2022-05-23 09:14:32</time>
      </trkpt>
      <trkpt lat="42.14837" lon="0.80763">
        <ele>888.4</ele>
        <time>2022-05-23 09:14:33</time>
      </trkpt>
      <trkpt lat="42.14836" lon="0.80765">
        <ele>888.6</ele>
        <time>2022-05-23 09:14:34</time>
      </trkpt>
      <trkpt lat="42.14834" lon="0.80767">
        <ele>888.8</ele>
        <time>2022-05-23 09:14:35</time>
      </trkpt>
      <trkpt lat="42.14833" lon="0.80769">
        <ele>889</ele>
        <time>2022-05-23 09:14:36</time>
      </trkpt>
      <trkpt lat="42.14831" lon="0.8077">
        <ele>889.2</ele>
        <time>2022-05-23 09:14:37</time>
      </trkpt>
      <trkpt lat="42.1483" lon="0.80772">
        <ele>889.2</ele>
        <time>2022-05-23 09:14:38</time>
      </trkpt>
      <trkpt lat="42.14828" lon="0.80773">
        <ele>889.4</ele>
        <time>2022-05-23 09:14:39</time>
      </trkpt>
      <trkpt lat="42.14827" lon="0.80775">
        <ele>889.6</ele>
        <time>2022-05-23 09:14:40</time>
      </trkpt>
      <trkpt lat="42.14826" lon="0.80777">
        <ele>889.6</ele>
        <time>2022-05-23 09:14:41</time>
      </trkpt>
      <trkpt lat="42.14825" lon="0.80779">
        <ele>889.8</ele>
        <time>2022-05-23 09:14:42</time>
      </trkpt>
      <trkpt lat="42.14824" lon="0.80781">
        <ele>890</ele>
        <time>2022-05-23 09:14:43</time>
      </trkpt>
      <trkpt lat="42.14823" lon="0.80782">
        <ele>890</ele>
        <time>2022-05-23 09:14:44</time>
      </trkpt>
      <trkpt lat="42.14822" lon="0.80784">
        <ele>890.2</ele>
        <time>2022-05-23 09:14:45</time>
      </trkpt>
      <trkpt lat="42.14821" lon="0.80786">
        <ele>890.4</ele>
        <time>2022-05-23 09:14:46</time>
      </trkpt>
      <trkpt lat="42.1482" lon="0.80788">
        <ele>890.4</ele>
        <time>2022-05-23 09:14:47</time>
      </trkpt>
      <trkpt lat="42.14819" lon="0.8079">
        <ele>890.6</ele>
        <time>2022-05-23 09:14:48</time>
      </trkpt>
      <trkpt lat="42.14817" lon="0.80792">
        <ele>890.8</ele>
        <time>2022-05-23 09:14:49</time>
      </trkpt>
      <trkpt lat="42.14816" lon="0.80794">
        <ele>890.8</ele>
        <time>2022-05-23 09:14:50</time>
      </trkpt>
      <trkpt lat="42.14815" lon="0.80796">
        <ele>891</ele>
        <time>2022-05-23 09:14:51</time>
      </trkpt>
      <trkpt lat="42.14814" lon="0.80798">
        <ele>891.2</ele>
        <time>2022-05-23 09:14:52</time>
      </trkpt>
      <trkpt lat="42.14813" lon="0.80801">
        <ele>891.2</ele>
        <time>2022-05-23 09:14:53</time>
      </trkpt>
      <trkpt lat="42.14812" lon="0.80803">
        <ele>891.4</ele>
        <time>2022-05-23 09:14:54</time>
      </trkpt>
      <trkpt lat="42.14811" lon="0.80805">
        <ele>891.4</ele>
        <time>2022-05-23 09:14:55</time>
      </trkpt>
      <trkpt lat="42.14809" lon="0.80807">
        <ele>891.6</ele>
        <time>2022-05-23 09:14:56</time>
      </trkpt>
      <trkpt lat="42.14808" lon="0.80809">
        <ele>891.6</ele>
        <time>2022-05-23 09:14:57</time>
      </trkpt>
      <trkpt lat="42.14807" lon="0.80812">
        <ele>891.8</ele>
        <time>2022-05-23 09:14:58</time>
      </trkpt>
      <trkpt lat="42.14806" lon="0.80814">
        <ele>891.8</ele>
        <time>2022-05-23 09:14:59</time>
      </trkpt>
      <trkpt lat="42.14805" lon="0.80816">
        <ele>892</ele>
        <time>2022-05-23 09:15:00</time>
      </trkpt>
      <trkpt lat="42.14803" lon="0.80818">
        <ele>892</ele>
        <time>2022-05-23 09:15:01</time>
      </trkpt>
      <trkpt lat="42.14802" lon="0.8082">
        <ele>892.2</ele>
        <time>2022-05-23 09:15:02</time>
      </trkpt>
      <trkpt lat="42.148" lon="0.80822">
        <ele>892.2</ele>
        <time>2022-05-23 09:15:03</time>
      </trkpt>
      <trkpt lat="42.14799" lon="0.80824">
        <ele>892.4</ele>
        <time>2022-05-23 09:15:04</time>
      </trkpt>
      <trkpt lat="42.14797" lon="0.80826">
        <ele>892.6</ele>
        <time>2022-05-23 09:15:05</time>
      </trkpt>
      <trkpt lat="42.14796" lon="0.80828">
        <ele>892.6</ele>
        <time>2022-05-23 09:15:06</time>
      </trkpt>
      <trkpt lat="42.14795" lon="0.8083">
        <ele>892.8</ele>
        <time>2022-05-23 09:15:07</time>
      </trkpt>
      <trkpt lat="42.14793" lon="0.80832">
        <ele>893</ele>
        <time>2022-05-23 09:15:08</time>
      </trkpt>
      <trkpt lat="42.14792" lon="0.80834">
        <ele>893.2</ele>
        <time>2022-05-23 09:15:09</time>
      </trkpt>
      <trkpt lat="42.14791" lon="0.80836">
        <ele>893.2</ele>
        <time>2022-05-23 09:15:10</time>
      </trkpt>
      <trkpt lat="42.1479" lon="0.80838">
        <ele>893.4</ele>
        <time>2022-05-23 09:15:11</time>
      </trkpt>
      <trkpt lat="42.14789" lon="0.8084">
        <ele>893.6</ele>
        <time>2022-05-23 09:15:12</time>
      </trkpt>
      <trkpt lat="42.14788" lon="0.80842">
        <ele>893.6</ele>
        <time>2022-05-23 09:15:13</time>
      </trkpt>
      <trkpt lat="42.14786" lon="0.80844">
        <ele>893.8</ele>
        <time>2022-05-23 09:15:14</time>
      </trkpt>
      <trkpt lat="42.14785" lon="0.80846">
        <ele>894</ele>
        <time>2022-05-23 09:15:15</time>
      </trkpt>
      <trkpt lat="42.14784" lon="0.80848">
        <ele>894</ele>
        <time>2022-05-23 09:15:16</time>
      </trkpt>
      <trkpt lat="42.14783" lon="0.8085">
        <ele>894</ele>
        <time>2022-05-23 09:15:17</time>
      </trkpt>
      <trkpt lat="42.14781" lon="0.80852">
        <ele>894.2</ele>
        <time>2022-05-23 09:15:18</time>
      </trkpt>
      <trkpt lat="42.1478" lon="0.80853">
        <ele>894.2</ele>
        <time>2022-05-23 09:15:19</time>
      </trkpt>
      <trkpt lat="42.14779" lon="0.80855">
        <ele>894.4</ele>
        <time>2022-05-23 09:15:20</time>
      </trkpt>
      <trkpt lat="42.14778" lon="0.80858">
        <ele>894.6</ele>
        <time>2022-05-23 09:15:21</time>
      </trkpt>
      <trkpt lat="42.14777" lon="0.8086">
        <ele>894.8</ele>
        <time>2022-05-23 09:15:22</time>
      </trkpt>
      <trkpt lat="42.14775" lon="0.80862">
        <ele>895</ele>
        <time>2022-05-23 09:15:23</time>
      </trkpt>
      <trkpt lat="42.14774" lon="0.80864">
        <ele>895</ele>
        <time>2022-05-23 09:15:24</time>
      </trkpt>
      <trkpt lat="42.14773" lon="0.80866">
        <ele>895.2</ele>
        <time>2022-05-23 09:15:25</time>
      </trkpt>
      <trkpt lat="42.14772" lon="0.80868">
        <ele>895.4</ele>
        <time>2022-05-23 09:15:26</time>
      </trkpt>
      <trkpt lat="42.14771" lon="0.8087">
        <ele>895.4</ele>
        <time>2022-05-23 09:15:27</time>
      </trkpt>
      <trkpt lat="42.1477" lon="0.80872">
        <ele>895.6</ele>
        <time>2022-05-23 09:15:28</time>
      </trkpt>
      <trkpt lat="42.14769" lon="0.80875">
        <ele>895.6</ele>
        <time>2022-05-23 09:15:29</time>
      </trkpt>
      <trkpt lat="42.14768" lon="0.80877">
        <ele>895.6</ele>
        <time>2022-05-23 09:15:30</time>
      </trkpt>
      <trkpt lat="42.14767" lon="0.80879">
        <ele>895.8</ele>
        <time>2022-05-23 09:15:31</time>
      </trkpt>
      <trkpt lat="42.14766" lon="0.80881">
        <ele>895.8</ele>
        <time>2022-05-23 09:15:32</time>
      </trkpt>
      <trkpt lat="42.14764" lon="0.80883">
        <ele>896</ele>
        <time>2022-05-23 09:15:33</time>
      </trkpt>
      <trkpt lat="42.14763" lon="0.80886">
        <ele>896.2</ele>
        <time>2022-05-23 09:15:34</time>
      </trkpt>
      <trkpt lat="42.14761" lon="0.80888">
        <ele>896.2</ele>
        <time>2022-05-23 09:15:35</time>
      </trkpt>
      <trkpt lat="42.1476" lon="0.8089">
        <ele>896.4</ele>
        <time>2022-05-23 09:15:36</time>
      </trkpt>
      <trkpt lat="42.14759" lon="0.80892">
        <ele>896.6</ele>
        <time>2022-05-23 09:15:37</time>
      </trkpt>
      <trkpt lat="42.14758" lon="0.80895">
        <ele>896.6</ele>
        <time>2022-05-23 09:15:38</time>
      </trkpt>
      <trkpt lat="42.14757" lon="0.80897">
        <ele>896.8</ele>
        <time>2022-05-23 09:15:39</time>
      </trkpt>
      <trkpt lat="42.14756" lon="0.80899">
        <ele>896.8</ele>
        <time>2022-05-23 09:15:40</time>
      </trkpt>
      <trkpt lat="42.14755" lon="0.80902">
        <ele>897</ele>
        <time>2022-05-23 09:15:41</time>
      </trkpt>
      <trkpt lat="42.14754" lon="0.80904">
        <ele>897.2</ele>
        <time>2022-05-23 09:15:42</time>
      </trkpt>
      <trkpt lat="42.14753" lon="0.80907">
        <ele>897.2</ele>
        <time>2022-05-23 09:15:43</time>
      </trkpt>
      <trkpt lat="42.14752" lon="0.80909">
        <ele>897.4</ele>
        <time>2022-05-23 09:15:44</time>
      </trkpt>
      <trkpt lat="42.14751" lon="0.80911">
        <ele>897.4</ele>
        <time>2022-05-23 09:15:45</time>
      </trkpt>
      <trkpt lat="42.1475" lon="0.80913">
        <ele>897.6</ele>
        <time>2022-05-23 09:15:46</time>
      </trkpt>
      <trkpt lat="42.14749" lon="0.80916">
        <ele>897.8</ele>
        <time>2022-05-23 09:15:47</time>
      </trkpt>
      <trkpt lat="42.14748" lon="0.80918">
        <ele>897.8</ele>
        <time>2022-05-23 09:15:48</time>
      </trkpt>
      <trkpt lat="42.14747" lon="0.8092">
        <ele>898</ele>
        <time>2022-05-23 09:15:49</time>
      </trkpt>
      <trkpt lat="42.14746" lon="0.80922">
        <ele>898.2</ele>
        <time>2022-05-23 09:15:50</time>
      </trkpt>
      <trkpt lat="42.14744" lon="0.80925">
        <ele>898.2</ele>
        <time>2022-05-23 09:15:51</time>
      </trkpt>
      <trkpt lat="42.14743" lon="0.80927">
        <ele>898.2</ele>
        <time>2022-05-23 09:15:52</time>
      </trkpt>
      <trkpt lat="42.14741" lon="0.80929">
        <ele>898.4</ele>
        <time>2022-05-23 09:15:53</time>
      </trkpt>
      <trkpt lat="42.1474" lon="0.80931">
        <ele>898.4</ele>
        <time>2022-05-23 09:15:54</time>
      </trkpt>
      <trkpt lat="42.14738" lon="0.80932">
        <ele>898.4</ele>
        <time>2022-05-23 09:15:55</time>
      </trkpt>
      <trkpt lat="42.14736" lon="0.80933">
        <ele>898.6</ele>
        <time>2022-05-23 09:15:56</time>
      </trkpt>
      <trkpt lat="42.14733" lon="0.80934">
        <ele>898.6</ele>
        <time>2022-05-23 09:15:57</time>
      </trkpt>
      <trkpt lat="42.14731" lon="0.80934">
        <ele>898.6</ele>
        <time>2022-05-23 09:15:58</time>
      </trkpt>
      <trkpt lat="42.14729" lon="0.80934">
        <ele>898.6</ele>
        <time>2022-05-23 09:15:59</time>
      </trkpt>
      <trkpt lat="42.14726" lon="0.80934">
        <ele>898.6</ele>
        <time>2022-05-23 09:16:00</time>
      </trkpt>
      <trkpt lat="42.14724" lon="0.80934">
        <ele>898.6</ele>
        <time>2022-05-23 09:16:01</time>
      </trkpt>
      <trkpt lat="42.14722" lon="0.80933">
        <ele>898.6</ele>
        <time>2022-05-23 09:16:02</time>
      </trkpt>
      <trkpt lat="42.14719" lon="0.80932">
        <ele>898.6</ele>
        <time>2022-05-23 09:16:03</time>
      </trkpt>
      <trkpt lat="42.14717" lon="0.80931">
        <ele>898.6</ele>
        <time>2022-05-23 09:16:04</time>
      </trkpt>
      <trkpt lat="42.14714" lon="0.80929">
        <ele>898.6</ele>
        <time>2022-05-23 09:16:05</time>
      </trkpt>
      <trkpt lat="42.14712" lon="0.80927">
        <ele>898.6</ele>
        <time>2022-05-23 09:16:06</time>
      </trkpt>
      <trkpt lat="42.1471" lon="0.80925">
        <ele>898.6</ele>
        <time>2022-05-23 09:16:07</time>
      </trkpt>
      <trkpt lat="42.14708" lon="0.80922">
        <ele>898.6</ele>
        <time>2022-05-23 09:16:08</time>
      </trkpt>
      <trkpt lat="42.14706" lon="0.80919">
        <ele>898.8</ele>
        <time>2022-05-23 09:16:09</time>
      </trkpt>
      <trkpt lat="42.14705" lon="0.80916">
        <ele>898.8</ele>
        <time>2022-05-23 09:16:10</time>
      </trkpt>
      <trkpt lat="42.14704" lon="0.80912">
        <ele>898.8</ele>
        <time>2022-05-23 09:16:11</time>
      </trkpt>
      <trkpt lat="42.14703" lon="0.80909">
        <ele>898.8</ele>
        <time>2022-05-23 09:16:12</time>
      </trkpt>
      <trkpt lat="42.14703" lon="0.80905">
        <ele>898.8</ele>
        <time>2022-05-23 09:16:13</time>
      </trkpt>
      <trkpt lat="42.14703" lon="0.80902">
        <ele>898.8</ele>
        <time>2022-05-23 09:16:14</time>
      </trkpt>
      <trkpt lat="42.14703" lon="0.80898">
        <ele>898.8</ele>
        <time>2022-05-23 09:16:15</time>
      </trkpt>
      <trkpt lat="42.14703" lon="0.80895">
        <ele>899</ele>
        <time>2022-05-23 09:16:16</time>
      </trkpt>
      <trkpt lat="42.14705" lon="0.80892">
        <ele>899</ele>
        <time>2022-05-23 09:16:17</time>
      </trkpt>
      <trkpt lat="42.14706" lon="0.80888">
        <ele>899</ele>
        <time>2022-05-23 09:16:18</time>
      </trkpt>
      <trkpt lat="42.14707" lon="0.80885">
        <ele>899.2</ele>
        <time>2022-05-23 09:16:19</time>
      </trkpt>
      <trkpt lat="42.14708" lon="0.80882">
        <ele>899.4</ele>
        <time>2022-05-23 09:16:20</time>
      </trkpt>
      <trkpt lat="42.1471" lon="0.80879">
        <ele>899.4</ele>
        <time>2022-05-23 09:16:21</time>
      </trkpt>
      <trkpt lat="42.14711" lon="0.80876">
        <ele>899.6</ele>
        <time>2022-05-23 09:16:22</time>
      </trkpt>
      <trkpt lat="42.14713" lon="0.80874">
        <ele>899.6</ele>
        <time>2022-05-23 09:16:23</time>
      </trkpt>
      <trkpt lat="42.14715" lon="0.80872">
        <ele>899.8</ele>
        <time>2022-05-23 09:16:24</time>
      </trkpt>
      <trkpt lat="42.14717" lon="0.80871">
        <ele>899.8</ele>
        <time>2022-05-23 09:16:25</time>
      </trkpt>
      <trkpt lat="42.14719" lon="0.80869">
        <ele>900</ele>
        <time>2022-05-23 09:16:26</time>
      </trkpt>
      <trkpt lat="42.14721" lon="0.80868">
        <ele>900.2</ele>
        <time>2022-05-23 09:16:27</time>
      </trkpt>
      <trkpt lat="42.14722" lon="0.80867">
        <ele>900.4</ele>
        <time>2022-05-23 09:16:28</time>
      </trkpt>
      <trkpt lat="42.14724" lon="0.80866">
        <ele>900.6</ele>
        <time>2022-05-23 09:16:29</time>
      </trkpt>
      <trkpt lat="42.14726" lon="0.80865">
        <ele>900.8</ele>
        <time>2022-05-23 09:16:30</time>
      </trkpt>
      <trkpt lat="42.14728" lon="0.80863">
        <ele>900.8</ele>
        <time>2022-05-23 09:16:31</time>
      </trkpt>
      <trkpt lat="42.1473" lon="0.80862">
        <ele>901</ele>
        <time>2022-05-23 09:16:32</time>
      </trkpt>
      <trkpt lat="42.14732" lon="0.80861">
        <ele>901.2</ele>
        <time>2022-05-23 09:16:33</time>
      </trkpt>
      <trkpt lat="42.14734" lon="0.8086">
        <ele>901.2</ele>
        <time>2022-05-23 09:16:34</time>
      </trkpt>
      <trkpt lat="42.14736" lon="0.80858">
        <ele>901.4</ele>
        <time>2022-05-23 09:16:35</time>
      </trkpt>
      <trkpt lat="42.14738" lon="0.80857">
        <ele>901.6</ele>
        <time>2022-05-23 09:16:36</time>
      </trkpt>
      <trkpt lat="42.1474" lon="0.80856">
        <ele>901.6</ele>
        <time>2022-05-23 09:16:37</time>
      </trkpt>
      <trkpt lat="42.14742" lon="0.80854">
        <ele>901.8</ele>
        <time>2022-05-23 09:16:38</time>
      </trkpt>
      <trkpt lat="42.14744" lon="0.80853">
        <ele>902</ele>
        <time>2022-05-23 09:16:39</time>
      </trkpt>
      <trkpt lat="42.14745" lon="0.80851">
        <ele>902.2</ele>
        <time>2022-05-23 09:16:40</time>
      </trkpt>
      <trkpt lat="42.14747" lon="0.80849">
        <ele>902.4</ele>
        <time>2022-05-23 09:16:41</time>
      </trkpt>
      <trkpt lat="42.14749" lon="0.80848">
        <ele>902.6</ele>
        <time>2022-05-23 09:16:42</time>
      </trkpt>
      <trkpt lat="42.14751" lon="0.80847">
        <ele>902.8</ele>
        <time>2022-05-23 09:16:43</time>
      </trkpt>
      <trkpt lat="42.14753" lon="0.80846">
        <ele>903</ele>
        <time>2022-05-23 09:16:44</time>
      </trkpt>
      <trkpt lat="42.14755" lon="0.80844">
        <ele>903.2</ele>
        <time>2022-05-23 09:16:45</time>
      </trkpt>
      <trkpt lat="42.14757" lon="0.80842">
        <ele>903.2</ele>
        <time>2022-05-23 09:16:46</time>
      </trkpt>
      <trkpt lat="42.14759" lon="0.80841">
        <ele>903.4</ele>
        <time>2022-05-23 09:16:47</time>
      </trkpt>
      <trkpt lat="42.14761" lon="0.80839">
        <ele>903.6</ele>
        <time>2022-05-23 09:16:48</time>
      </trkpt>
      <trkpt lat="42.14762" lon="0.80837">
        <ele>903.8</ele>
        <time>2022-05-23 09:16:49</time>
      </trkpt>
      <trkpt lat="42.14764" lon="0.80835">
        <ele>904</ele>
        <time>2022-05-23 09:16:50</time>
      </trkpt>
      <trkpt lat="42.14765" lon="0.80833">
        <ele>904</ele>
        <time>2022-05-23 09:16:51</time>
      </trkpt>
      <trkpt lat="42.14767" lon="0.80831">
        <ele>904.2</ele>
        <time>2022-05-23 09:16:52</time>
      </trkpt>
      <trkpt lat="42.14768" lon="0.80829">
        <ele>904.4</ele>
        <time>2022-05-23 09:16:53</time>
      </trkpt>
      <trkpt lat="42.14769" lon="0.80827">
        <ele>904.6</ele>
        <time>2022-05-23 09:16:54</time>
      </trkpt>
      <trkpt lat="42.1477" lon="0.80825">
        <ele>904.8</ele>
        <time>2022-05-23 09:16:55</time>
      </trkpt>
      <trkpt lat="42.14772" lon="0.80822">
        <ele>905</ele>
        <time>2022-05-23 09:16:56</time>
      </trkpt>
      <trkpt lat="42.14773" lon="0.8082">
        <ele>905.2</ele>
        <time>2022-05-23 09:16:57</time>
      </trkpt>
      <trkpt lat="42.14774" lon="0.80819">
        <ele>905.4</ele>
        <time>2022-05-23 09:16:58</time>
      </trkpt>
      <trkpt lat="42.14775" lon="0.80816">
        <ele>905.4</ele>
        <time>2022-05-23 09:16:59</time>
      </trkpt>
      <trkpt lat="42.14776" lon="0.80814">
        <ele>905.6</ele>
        <time>2022-05-23 09:17:00</time>
      </trkpt>
      <trkpt lat="42.14777" lon="0.80812">
        <ele>905.8</ele>
        <time>2022-05-23 09:17:01</time>
      </trkpt>
      <trkpt lat="42.14779" lon="0.80809">
        <ele>906</ele>
        <time>2022-05-23 09:17:02</time>
      </trkpt>
      <trkpt lat="42.1478" lon="0.80807">
        <ele>906.2</ele>
        <time>2022-05-23 09:17:03</time>
      </trkpt>
      <trkpt lat="42.1478" lon="0.80805">
        <ele>906.2</ele>
        <time>2022-05-23 09:17:04</time>
      </trkpt>
      <trkpt lat="42.14782" lon="0.80803">
        <ele>906.4</ele>
        <time>2022-05-23 09:17:05</time>
      </trkpt>
      <trkpt lat="42.14783" lon="0.80801">
        <ele>906.6</ele>
        <time>2022-05-23 09:17:06</time>
      </trkpt>
      <trkpt lat="42.14784" lon="0.80799">
        <ele>906.8</ele>
        <time>2022-05-23 09:17:07</time>
      </trkpt>
      <trkpt lat="42.14786" lon="0.80797">
        <ele>907</ele>
        <time>2022-05-23 09:17:08</time>
      </trkpt>
      <trkpt lat="42.14788" lon="0.80795">
        <ele>907.2</ele>
        <time>2022-05-23 09:17:09</time>
      </trkpt>
      <trkpt lat="42.14789" lon="0.80793">
        <ele>907.4</ele>
        <time>2022-05-23 09:17:10</time>
      </trkpt>
      <trkpt lat="42.1479" lon="0.80791">
        <ele>907.6</ele>
        <time>2022-05-23 09:17:11</time>
      </trkpt>
      <trkpt lat="42.14792" lon="0.80788">
        <ele>907.8</ele>
        <time>2022-05-23 09:17:12</time>
      </trkpt>
      <trkpt lat="42.14793" lon="0.80786">
        <ele>908</ele>
        <time>2022-05-23 09:17:13</time>
      </trkpt>
      <trkpt lat="42.14794" lon="0.80783">
        <ele>908</ele>
        <time>2022-05-23 09:17:14</time>
      </trkpt>
      <trkpt lat="42.14795" lon="0.80781">
        <ele>908.2</ele>
        <time>2022-05-23 09:17:15</time>
      </trkpt>
      <trkpt lat="42.14796" lon="0.8078">
        <ele>908.4</ele>
        <time>2022-05-23 09:17:16</time>
      </trkpt>
      <trkpt lat="42.14798" lon="0.80778">
        <ele>908.4</ele>
        <time>2022-05-23 09:17:17</time>
      </trkpt>
      <trkpt lat="42.14799" lon="0.80776">
        <ele>908.6</ele>
        <time>2022-05-23 09:17:18</time>
      </trkpt>
      <trkpt lat="42.148" lon="0.80774">
        <ele>908.8</ele>
        <time>2022-05-23 09:17:19</time>
      </trkpt>
      <trkpt lat="42.14802" lon="0.80771">
        <ele>909</ele>
        <time>2022-05-23 09:17:20</time>
      </trkpt>
      <trkpt lat="42.14803" lon="0.80769">
        <ele>909</ele>
        <time>2022-05-23 09:17:21</time>
      </trkpt>
      <trkpt lat="42.14804" lon="0.80767">
        <ele>909.2</ele>
        <time>2022-05-23 09:17:22</time>
      </trkpt>
      <trkpt lat="42.14806" lon="0.80765">
        <ele>909.4</ele>
        <time>2022-05-23 09:17:23</time>
      </trkpt>
      <trkpt lat="42.14807" lon="0.80762">
        <ele>909.6</ele>
        <time>2022-05-23 09:17:24</time>
      </trkpt>
      <trkpt lat="42.14808" lon="0.8076">
        <ele>909.8</ele>
        <time>2022-05-23 09:17:25</time>
      </trkpt>
      <trkpt lat="42.1481" lon="0.80758">
        <ele>910</ele>
        <time>2022-05-23 09:17:26</time>
      </trkpt>
      <trkpt lat="42.14811" lon="0.80756">
        <ele>910</ele>
        <time>2022-05-23 09:17:27</time>
      </trkpt>
      <trkpt lat="42.14812" lon="0.80753">
        <ele>910.2</ele>
        <time>2022-05-23 09:17:28</time>
      </trkpt>
      <trkpt lat="42.14813" lon="0.80751">
        <ele>910.4</ele>
        <time>2022-05-23 09:17:29</time>
      </trkpt>
      <trkpt lat="42.14814" lon="0.80748">
        <ele>910.8</ele>
        <time>2022-05-23 09:17:30</time>
      </trkpt>
      <trkpt lat="42.14815" lon="0.80746">
        <ele>911</ele>
        <time>2022-05-23 09:17:31</time>
      </trkpt>
      <trkpt lat="42.14816" lon="0.80744">
        <ele>911.2</ele>
        <time>2022-05-23 09:17:32</time>
      </trkpt>
      <trkpt lat="42.14817" lon="0.80742">
        <ele>911.4</ele>
        <time>2022-05-23 09:17:33</time>
      </trkpt>
      <trkpt lat="42.14817" lon="0.8074">
        <ele>911.6</ele>
        <time>2022-05-23 09:17:34</time>
      </trkpt>
      <trkpt lat="42.14818" lon="0.80738">
        <ele>911.8</ele>
        <time>2022-05-23 09:17:35</time>
      </trkpt>
      <trkpt lat="42.1482" lon="0.80736">
        <ele>911.8</ele>
        <time>2022-05-23 09:17:36</time>
      </trkpt>
      <trkpt lat="42.14822" lon="0.80735">
        <ele>912</ele>
        <time>2022-05-23 09:17:37</time>
      </trkpt>
      <trkpt lat="42.14823" lon="0.80734">
        <ele>912</ele>
        <time>2022-05-23 09:17:38</time>
      </trkpt>
      <trkpt lat="42.14824" lon="0.80732">
        <ele>912.2</ele>
        <time>2022-05-23 09:17:39</time>
      </trkpt>
      <trkpt lat="42.14825" lon="0.8073">
        <ele>912.4</ele>
        <time>2022-05-23 09:17:40</time>
      </trkpt>
      <trkpt lat="42.14827" lon="0.80728">
        <ele>912.6</ele>
        <time>2022-05-23 09:17:41</time>
      </trkpt>
      <trkpt lat="42.14828" lon="0.80726">
        <ele>912.8</ele>
        <time>2022-05-23 09:17:42</time>
      </trkpt>
      <trkpt lat="42.1483" lon="0.80723">
        <ele>913</ele>
        <time>2022-05-23 09:17:43</time>
      </trkpt>
      <trkpt lat="42.14831" lon="0.8072">
        <ele>913.2</ele>
        <time>2022-05-23 09:17:44</time>
      </trkpt>
      <trkpt lat="42.14833" lon="0.80718">
        <ele>913.4</ele>
        <time>2022-05-23 09:17:45</time>
      </trkpt>
      <trkpt lat="42.14834" lon="0.80716">
        <ele>913.6</ele>
        <time>2022-05-23 09:17:46</time>
      </trkpt>
      <trkpt lat="42.14837" lon="0.80713">
        <ele>913.8</ele>
        <time>2022-05-23 09:17:47</time>
      </trkpt>
      <trkpt lat="42.14838" lon="0.80711">
        <ele>913.8</ele>
        <time>2022-05-23 09:17:48</time>
      </trkpt>
      <trkpt lat="42.14841" lon="0.80708">
        <ele>914</ele>
        <time>2022-05-23 09:17:49</time>
      </trkpt>
      <trkpt lat="42.14843" lon="0.80705">
        <ele>914</ele>
        <time>2022-05-23 09:17:50</time>
      </trkpt>
      <trkpt lat="42.14845" lon="0.80703">
        <ele>914.2</ele>
        <time>2022-05-23 09:17:51</time>
      </trkpt>
      <trkpt lat="42.14846" lon="0.807">
        <ele>914.4</ele>
        <time>2022-05-23 09:17:52</time>
      </trkpt>
      <trkpt lat="42.14849" lon="0.80697">
        <ele>914.6</ele>
        <time>2022-05-23 09:17:53</time>
      </trkpt>
      <trkpt lat="42.14851" lon="0.80695">
        <ele>914.6</ele>
        <time>2022-05-23 09:17:54</time>
      </trkpt>
      <trkpt lat="42.14854" lon="0.80693">
        <ele>914.8</ele>
        <time>2022-05-23 09:17:55</time>
      </trkpt>
      <trkpt lat="42.14856" lon="0.80691">
        <ele>915</ele>
        <time>2022-05-23 09:17:56</time>
      </trkpt>
      <trkpt lat="42.1486" lon="0.80689">
        <ele>915</ele>
        <time>2022-05-23 09:17:57</time>
      </trkpt>
      <trkpt lat="42.14862" lon="0.80687">
        <ele>915.2</ele>
        <time>2022-05-23 09:17:58</time>
      </trkpt>
      <trkpt lat="42.14865" lon="0.80685">
        <ele>915.4</ele>
        <time>2022-05-23 09:17:59</time>
      </trkpt>
      <trkpt lat="42.14867" lon="0.80683">
        <ele>915.6</ele>
        <time>2022-05-23 09:18:00</time>
      </trkpt>
      <trkpt lat="42.1487" lon="0.80681">
        <ele>915.8</ele>
        <time>2022-05-23 09:18:01</time>
      </trkpt>
      <trkpt lat="42.14872" lon="0.8068">
        <ele>916.2</ele>
        <time>2022-05-23 09:18:02</time>
      </trkpt>
      <trkpt lat="42.14875" lon="0.80678">
        <ele>916.4</ele>
        <time>2022-05-23 09:18:03</time>
      </trkpt>
      <trkpt lat="42.14877" lon="0.80676">
        <ele>916.6</ele>
        <time>2022-05-23 09:18:04</time>
      </trkpt>
      <trkpt lat="42.14879" lon="0.80674">
        <ele>916.8</ele>
        <time>2022-05-23 09:18:05</time>
      </trkpt>
      <trkpt lat="42.14881" lon="0.80672">
        <ele>917</ele>
        <time>2022-05-23 09:18:06</time>
      </trkpt>
      <trkpt lat="42.14883" lon="0.80669">
        <ele>917.2</ele>
        <time>2022-05-23 09:18:07</time>
      </trkpt>
      <trkpt lat="42.14885" lon="0.80667">
        <ele>917.2</ele>
        <time>2022-05-23 09:18:08</time>
      </trkpt>
      <trkpt lat="42.14887" lon="0.80664">
        <ele>917.4</ele>
        <time>2022-05-23 09:18:09</time>
      </trkpt>
      <trkpt lat="42.14889" lon="0.80662">
        <ele>917.6</ele>
        <time>2022-05-23 09:18:10</time>
      </trkpt>
      <trkpt lat="42.1489" lon="0.80659">
        <ele>917.8</ele>
        <time>2022-05-23 09:18:11</time>
      </trkpt>
      <trkpt lat="42.14892" lon="0.80656">
        <ele>917.8</ele>
        <time>2022-05-23 09:18:12</time>
      </trkpt>
      <trkpt lat="42.14894" lon="0.80653">
        <ele>918</ele>
        <time>2022-05-23 09:18:13</time>
      </trkpt>
      <trkpt lat="42.14895" lon="0.80651">
        <ele>918.2</ele>
        <time>2022-05-23 09:18:14</time>
      </trkpt>
      <trkpt lat="42.14898" lon="0.80648">
        <ele>918.2</ele>
        <time>2022-05-23 09:18:15</time>
      </trkpt>
      <trkpt lat="42.149" lon="0.80645">
        <ele>918.4</ele>
        <time>2022-05-23 09:18:16</time>
      </trkpt>
      <trkpt lat="42.14902" lon="0.80642">
        <ele>918.6</ele>
        <time>2022-05-23 09:18:17</time>
      </trkpt>
      <trkpt lat="42.14904" lon="0.8064">
        <ele>918.6</ele>
        <time>2022-05-23 09:18:18</time>
      </trkpt>
      <trkpt lat="42.14906" lon="0.80637">
        <ele>918.8</ele>
        <time>2022-05-23 09:18:19</time>
      </trkpt>
      <trkpt lat="42.14908" lon="0.80635">
        <ele>918.8</ele>
        <time>2022-05-23 09:18:20</time>
      </trkpt>
      <trkpt lat="42.14911" lon="0.80633">
        <ele>919</ele>
        <time>2022-05-23 09:18:21</time>
      </trkpt>
      <trkpt lat="42.14913" lon="0.80632">
        <ele>919</ele>
        <time>2022-05-23 09:18:22</time>
      </trkpt>
      <trkpt lat="42.14915" lon="0.80631">
        <ele>919.2</ele>
        <time>2022-05-23 09:18:23</time>
      </trkpt>
      <trkpt lat="42.14919" lon="0.80629">
        <ele>919.2</ele>
        <time>2022-05-23 09:18:24</time>
      </trkpt>
      <trkpt lat="42.14922" lon="0.80628">
        <ele>919.2</ele>
        <time>2022-05-23 09:18:25</time>
      </trkpt>
      <trkpt lat="42.14924" lon="0.80627">
        <ele>919.4</ele>
        <time>2022-05-23 09:18:26</time>
      </trkpt>
      <trkpt lat="42.14927" lon="0.80627">
        <ele>919.4</ele>
        <time>2022-05-23 09:18:27</time>
      </trkpt>
      <trkpt lat="42.1493" lon="0.80627">
        <ele>919.6</ele>
        <time>2022-05-23 09:18:28</time>
      </trkpt>
      <trkpt lat="42.14934" lon="0.80627">
        <ele>919.6</ele>
        <time>2022-05-23 09:18:29</time>
      </trkpt>
      <trkpt lat="42.14936" lon="0.80628">
        <ele>919.8</ele>
        <time>2022-05-23 09:18:30</time>
      </trkpt>
      <trkpt lat="42.1494" lon="0.80629">
        <ele>919.8</ele>
        <time>2022-05-23 09:18:31</time>
      </trkpt>
      <trkpt lat="42.14943" lon="0.8063">
        <ele>920</ele>
        <time>2022-05-23 09:18:32</time>
      </trkpt>
      <trkpt lat="42.14946" lon="0.80631">
        <ele>920</ele>
        <time>2022-05-23 09:18:33</time>
      </trkpt>
      <trkpt lat="42.14949" lon="0.80633">
        <ele>920</ele>
        <time>2022-05-23 09:18:34</time>
      </trkpt>
      <trkpt lat="42.14951" lon="0.80635">
        <ele>920</ele>
        <time>2022-05-23 09:18:35</time>
      </trkpt>
      <trkpt lat="42.14954" lon="0.80638">
        <ele>920.2</ele>
        <time>2022-05-23 09:18:36</time>
      </trkpt>
      <trkpt lat="42.14956" lon="0.80641">
        <ele>920.2</ele>
        <time>2022-05-23 09:18:37</time>
      </trkpt>
      <trkpt lat="42.14959" lon="0.80644">
        <ele>920.4</ele>
        <time>2022-05-23 09:18:38</time>
      </trkpt>
      <trkpt lat="42.14961" lon="0.80647">
        <ele>920.6</ele>
        <time>2022-05-23 09:18:39</time>
      </trkpt>
      <trkpt lat="42.14962" lon="0.8065">
        <ele>920.8</ele>
        <time>2022-05-23 09:18:40</time>
      </trkpt>
      <trkpt lat="42.14963" lon="0.80654">
        <ele>921</ele>
        <time>2022-05-23 09:18:41</time>
      </trkpt>
      <trkpt lat="42.14965" lon="0.80657">
        <ele>921</ele>
        <time>2022-05-23 09:18:42</time>
      </trkpt>
      <trkpt lat="42.14965" lon="0.8066">
        <ele>921.2</ele>
        <time>2022-05-23 09:18:43</time>
      </trkpt>
      <trkpt lat="42.14967" lon="0.80664">
        <ele>921.4</ele>
        <time>2022-05-23 09:18:44</time>
      </trkpt>
      <trkpt lat="42.14967" lon="0.80667">
        <ele>921.6</ele>
        <time>2022-05-23 09:18:45</time>
      </trkpt>
      <trkpt lat="42.14969" lon="0.8067">
        <ele>921.6</ele>
        <time>2022-05-23 09:18:46</time>
      </trkpt>
      <trkpt lat="42.1497" lon="0.80674">
        <ele>921.8</ele>
        <time>2022-05-23 09:18:47</time>
      </trkpt>
      <trkpt lat="42.14971" lon="0.80677">
        <ele>922</ele>
        <time>2022-05-23 09:18:48</time>
      </trkpt>
      <trkpt lat="42.14972" lon="0.80681">
        <ele>922.2</ele>
        <time>2022-05-23 09:18:49</time>
      </trkpt>
      <trkpt lat="42.14973" lon="0.80684">
        <ele>922.4</ele>
        <time>2022-05-23 09:18:50</time>
      </trkpt>
      <trkpt lat="42.14974" lon="0.80688">
        <ele>922.6</ele>
        <time>2022-05-23 09:18:51</time>
      </trkpt>
      <trkpt lat="42.14975" lon="0.80691">
        <ele>922.6</ele>
        <time>2022-05-23 09:18:52</time>
      </trkpt>
      <trkpt lat="42.14976" lon="0.80695">
        <ele>922.8</ele>
        <time>2022-05-23 09:18:53</time>
      </trkpt>
      <trkpt lat="42.14977" lon="0.80699">
        <ele>923</ele>
        <time>2022-05-23 09:18:54</time>
      </trkpt>
      <trkpt lat="42.14978" lon="0.80702">
        <ele>923.2</ele>
        <time>2022-05-23 09:18:55</time>
      </trkpt>
      <trkpt lat="42.14979" lon="0.80706">
        <ele>923.4</ele>
        <time>2022-05-23 09:18:56</time>
      </trkpt>
      <trkpt lat="42.1498" lon="0.80709">
        <ele>923.4</ele>
        <time>2022-05-23 09:18:57</time>
      </trkpt>
      <trkpt lat="42.14982" lon="0.80712">
        <ele>923.6</ele>
        <time>2022-05-23 09:18:58</time>
      </trkpt>
      <trkpt lat="42.14984" lon="0.80715">
        <ele>923.8</ele>
        <time>2022-05-23 09:18:59</time>
      </trkpt>
      <trkpt lat="42.14985" lon="0.80719">
        <ele>923.8</ele>
        <time>2022-05-23 09:19:00</time>
      </trkpt>
      <trkpt lat="42.14987" lon="0.80722">
        <ele>924</ele>
        <time>2022-05-23 09:19:01</time>
      </trkpt>
      <trkpt lat="42.14989" lon="0.80725">
        <ele>924.2</ele>
        <time>2022-05-23 09:19:02</time>
      </trkpt>
      <trkpt lat="42.14991" lon="0.80728">
        <ele>924.4</ele>
        <time>2022-05-23 09:19:03</time>
      </trkpt>
      <trkpt lat="42.14993" lon="0.8073">
        <ele>924.6</ele>
        <time>2022-05-23 09:19:04</time>
      </trkpt>
      <trkpt lat="42.14996" lon="0.80732">
        <ele>924.8</ele>
        <time>2022-05-23 09:19:05</time>
      </trkpt>
      <trkpt lat="42.14998" lon="0.80733">
        <ele>924.8</ele>
        <time>2022-05-23 09:19:06</time>
      </trkpt>
      <trkpt lat="42.15001" lon="0.80734">
        <ele>925</ele>
        <time>2022-05-23 09:19:07</time>
      </trkpt>
      <trkpt lat="42.15003" lon="0.80734">
        <ele>925.2</ele>
        <time>2022-05-23 09:19:08</time>
      </trkpt>
      <trkpt lat="42.15006" lon="0.80735">
        <ele>925.4</ele>
        <time>2022-05-23 09:19:09</time>
      </trkpt>
      <trkpt lat="42.15009" lon="0.80734">
        <ele>925.6</ele>
        <time>2022-05-23 09:19:10</time>
      </trkpt>
      <trkpt lat="42.15012" lon="0.80734">
        <ele>925.8</ele>
        <time>2022-05-23 09:19:11</time>
      </trkpt>
      <trkpt lat="42.15015" lon="0.80733">
        <ele>925.8</ele>
        <time>2022-05-23 09:19:12</time>
      </trkpt>
      <trkpt lat="42.15018" lon="0.80731">
        <ele>926</ele>
        <time>2022-05-23 09:19:13</time>
      </trkpt>
      <trkpt lat="42.1502" lon="0.80729">
        <ele>926.2</ele>
        <time>2022-05-23 09:19:14</time>
      </trkpt>
      <trkpt lat="42.15024" lon="0.80726">
        <ele>926.2</ele>
        <time>2022-05-23 09:19:15</time>
      </trkpt>
      <trkpt lat="42.15026" lon="0.80723">
        <ele>926.4</ele>
        <time>2022-05-23 09:19:16</time>
      </trkpt>
      <trkpt lat="42.15029" lon="0.8072">
        <ele>926.4</ele>
        <time>2022-05-23 09:19:17</time>
      </trkpt>
      <trkpt lat="42.15031" lon="0.80717">
        <ele>926.4</ele>
        <time>2022-05-23 09:19:18</time>
      </trkpt>
      <trkpt lat="42.15033" lon="0.80714">
        <ele>926.6</ele>
        <time>2022-05-23 09:19:19</time>
      </trkpt>
      <trkpt lat="42.15035" lon="0.80712">
        <ele>926.6</ele>
        <time>2022-05-23 09:19:20</time>
      </trkpt>
      <trkpt lat="42.15037" lon="0.80709">
        <ele>926.6</ele>
        <time>2022-05-23 09:19:21</time>
      </trkpt>
      <trkpt lat="42.15039" lon="0.80706">
        <ele>926.8</ele>
        <time>2022-05-23 09:19:22</time>
      </trkpt>
      <trkpt lat="42.15041" lon="0.80703">
        <ele>926.8</ele>
        <time>2022-05-23 09:19:23</time>
      </trkpt>
      <trkpt lat="42.15042" lon="0.807">
        <ele>926.8</ele>
        <time>2022-05-23 09:19:24</time>
      </trkpt>
      <trkpt lat="42.15045" lon="0.80696">
        <ele>927</ele>
        <time>2022-05-23 09:19:25</time>
      </trkpt>
      <trkpt lat="42.15047" lon="0.80693">
        <ele>927</ele>
        <time>2022-05-23 09:19:26</time>
      </trkpt>
      <trkpt lat="42.15049" lon="0.80689">
        <ele>927</ele>
        <time>2022-05-23 09:19:27</time>
      </trkpt>
      <trkpt lat="42.15052" lon="0.80686">
        <ele>927.2</ele>
        <time>2022-05-23 09:19:28</time>
      </trkpt>
      <trkpt lat="42.15054" lon="0.80682">
        <ele>927.2</ele>
        <time>2022-05-23 09:19:29</time>
      </trkpt>
      <trkpt lat="42.15056" lon="0.80679">
        <ele>927.2</ele>
        <time>2022-05-23 09:19:30</time>
      </trkpt>
      <trkpt lat="42.15059" lon="0.80675">
        <ele>927.4</ele>
        <time>2022-05-23 09:19:31</time>
      </trkpt>
      <trkpt lat="42.15061" lon="0.80672">
        <ele>927.4</ele>
        <time>2022-05-23 09:19:32</time>
      </trkpt>
      <trkpt lat="42.15064" lon="0.80668">
        <ele>927.4</ele>
        <time>2022-05-23 09:19:33</time>
      </trkpt>
      <trkpt lat="42.15066" lon="0.80665">
        <ele>927.4</ele>
        <time>2022-05-23 09:19:34</time>
      </trkpt>
      <trkpt lat="42.15069" lon="0.80661">
        <ele>927.4</ele>
        <time>2022-05-23 09:19:35</time>
      </trkpt>
      <trkpt lat="42.15071" lon="0.80659">
        <ele>927.6</ele>
        <time>2022-05-23 09:19:36</time>
      </trkpt>
      <trkpt lat="42.15075" lon="0.80656">
        <ele>927.6</ele>
        <time>2022-05-23 09:19:37</time>
      </trkpt>
      <trkpt lat="42.15079" lon="0.80654">
        <ele>927.6</ele>
        <time>2022-05-23 09:19:38</time>
      </trkpt>
      <trkpt lat="42.15083" lon="0.80652">
        <ele>927.6</ele>
        <time>2022-05-23 09:19:39</time>
      </trkpt>
      <trkpt lat="42.15086" lon="0.80651">
        <ele>927.6</ele>
        <time>2022-05-23 09:19:40</time>
      </trkpt>
      <trkpt lat="42.1509" lon="0.80652">
        <ele>927.8</ele>
        <time>2022-05-23 09:19:41</time>
      </trkpt>
      <trkpt lat="42.15093" lon="0.80652">
        <ele>927.8</ele>
        <time>2022-05-23 09:19:42</time>
      </trkpt>
      <trkpt lat="42.15096" lon="0.80654">
        <ele>928</ele>
        <time>2022-05-23 09:19:43</time>
      </trkpt>
      <trkpt lat="42.15099" lon="0.80655">
        <ele>928.2</ele>
        <time>2022-05-23 09:19:44</time>
      </trkpt>
      <trkpt lat="42.15101" lon="0.80656">
        <ele>928.4</ele>
        <time>2022-05-23 09:19:45</time>
      </trkpt>
      <trkpt lat="42.15104" lon="0.80657">
        <ele>928.6</ele>
        <time>2022-05-23 09:19:46</time>
      </trkpt>
      <trkpt lat="42.15107" lon="0.80659">
        <ele>929</ele>
        <time>2022-05-23 09:19:47</time>
      </trkpt>
      <trkpt lat="42.1511" lon="0.8066">
        <ele>929.2</ele>
        <time>2022-05-23 09:19:48</time>
      </trkpt>
      <trkpt lat="42.15112" lon="0.80661">
        <ele>929.4</ele>
        <time>2022-05-23 09:19:49</time>
      </trkpt>
      <trkpt lat="42.15115" lon="0.80661">
        <ele>929.8</ele>
        <time>2022-05-23 09:19:50</time>
      </trkpt>
      <trkpt lat="42.15118" lon="0.8066">
        <ele>930</ele>
        <time>2022-05-23 09:19:51</time>
      </trkpt>
      <trkpt lat="42.1512" lon="0.80659">
        <ele>930.2</ele>
        <time>2022-05-23 09:19:52</time>
      </trkpt>
      <trkpt lat="42.15123" lon="0.80657">
        <ele>930.4</ele>
        <time>2022-05-23 09:19:53</time>
      </trkpt>
      <trkpt lat="42.15125" lon="0.80655">
        <ele>930.6</ele>
        <time>2022-05-23 09:19:54</time>
      </trkpt>
      <trkpt lat="42.15127" lon="0.80653">
        <ele>930.8</ele>
        <time>2022-05-23 09:19:55</time>
      </trkpt>
      <trkpt lat="42.15129" lon="0.80651">
        <ele>931.2</ele>
        <time>2022-05-23 09:19:56</time>
      </trkpt>
      <trkpt lat="42.15131" lon="0.80648">
        <ele>931.4</ele>
        <time>2022-05-23 09:19:57</time>
      </trkpt>
      <trkpt lat="42.15132" lon="0.80646">
        <ele>931.6</ele>
        <time>2022-05-23 09:19:58</time>
      </trkpt>
      <trkpt lat="42.15134" lon="0.80643">
        <ele>931.8</ele>
        <time>2022-05-23 09:19:59</time>
      </trkpt>
      <trkpt lat="42.15136" lon="0.8064">
        <ele>932.2</ele>
        <time>2022-05-23 09:20:00</time>
      </trkpt>
      <trkpt lat="42.15138" lon="0.80637">
        <ele>932.4</ele>
        <time>2022-05-23 09:20:01</time>
      </trkpt>
      <trkpt lat="42.15139" lon="0.80634">
        <ele>932.6</ele>
        <time>2022-05-23 09:20:02</time>
      </trkpt>
      <trkpt lat="42.15141" lon="0.8063">
        <ele>932.8</ele>
        <time>2022-05-23 09:20:03</time>
      </trkpt>
      <trkpt lat="42.15142" lon="0.80627">
        <ele>933.2</ele>
        <time>2022-05-23 09:20:04</time>
      </trkpt>
      <trkpt lat="42.15144" lon="0.80623">
        <ele>933.4</ele>
        <time>2022-05-23 09:20:05</time>
      </trkpt>
      <trkpt lat="42.15145" lon="0.8062">
        <ele>933.6</ele>
        <time>2022-05-23 09:20:06</time>
      </trkpt>
      <trkpt lat="42.15146" lon="0.80616">
        <ele>933.8</ele>
        <time>2022-05-23 09:20:07</time>
      </trkpt>
      <trkpt lat="42.15147" lon="0.80613">
        <ele>934</ele>
        <time>2022-05-23 09:20:08</time>
      </trkpt>
      <trkpt lat="42.15149" lon="0.80609">
        <ele>934.4</ele>
        <time>2022-05-23 09:20:09</time>
      </trkpt>
      <trkpt lat="42.1515" lon="0.80606">
        <ele>934.6</ele>
        <time>2022-05-23 09:20:10</time>
      </trkpt>
      <trkpt lat="42.15152" lon="0.80603">
        <ele>934.8</ele>
        <time>2022-05-23 09:20:11</time>
      </trkpt>
      <trkpt lat="42.15153" lon="0.80599">
        <ele>935.2</ele>
        <time>2022-05-23 09:20:12</time>
      </trkpt>
      <trkpt lat="42.15154" lon="0.80596">
        <ele>935.4</ele>
        <time>2022-05-23 09:20:13</time>
      </trkpt>
      <trkpt lat="42.15155" lon="0.80593">
        <ele>935.6</ele>
        <time>2022-05-23 09:20:14</time>
      </trkpt>
      <trkpt lat="42.15156" lon="0.8059">
        <ele>935.6</ele>
        <time>2022-05-23 09:20:15</time>
      </trkpt>
      <trkpt lat="42.15157" lon="0.80587">
        <ele>935.8</ele>
        <time>2022-05-23 09:20:16</time>
      </trkpt>
      <trkpt lat="42.15158" lon="0.80584">
        <ele>936.2</ele>
        <time>2022-05-23 09:20:17</time>
      </trkpt>
      <trkpt lat="42.15159" lon="0.80581">
        <ele>936.4</ele>
        <time>2022-05-23 09:20:18</time>
      </trkpt>
      <trkpt lat="42.1516" lon="0.80577">
        <ele>936.8</ele>
        <time>2022-05-23 09:20:19</time>
      </trkpt>
      <trkpt lat="42.1516" lon="0.80574">
        <ele>937</ele>
        <time>2022-05-23 09:20:20</time>
      </trkpt>
      <trkpt lat="42.15161" lon="0.80571">
        <ele>937.2</ele>
        <time>2022-05-23 09:20:21</time>
      </trkpt>
      <trkpt lat="42.15161" lon="0.80569">
        <ele>937.4</ele>
        <time>2022-05-23 09:20:22</time>
      </trkpt>
      <trkpt lat="42.15161" lon="0.80565">
        <ele>937.6</ele>
        <time>2022-05-23 09:20:23</time>
      </trkpt>
      <trkpt lat="42.15161" lon="0.80562">
        <ele>937.8</ele>
        <time>2022-05-23 09:20:24</time>
      </trkpt>
      <trkpt lat="42.1516" lon="0.80558">
        <ele>938</ele>
        <time>2022-05-23 09:20:25</time>
      </trkpt>
      <trkpt lat="42.1516" lon="0.80555">
        <ele>938.2</ele>
        <time>2022-05-23 09:20:26</time>
      </trkpt>
      <trkpt lat="42.1516" lon="0.80552">
        <ele>938.4</ele>
        <time>2022-05-23 09:20:27</time>
      </trkpt>
      <trkpt lat="42.1516" lon="0.80549">
        <ele>938.6</ele>
        <time>2022-05-23 09:20:28</time>
      </trkpt>
      <trkpt lat="42.15162" lon="0.80546">
        <ele>938.8</ele>
        <time>2022-05-23 09:20:29</time>
      </trkpt>
      <trkpt lat="42.15163" lon="0.80543">
        <ele>938.8</ele>
        <time>2022-05-23 09:20:30</time>
      </trkpt>
      <trkpt lat="42.15164" lon="0.8054">
        <ele>939</ele>
        <time>2022-05-23 09:20:31</time>
      </trkpt>
      <trkpt lat="42.15165" lon="0.80537">
        <ele>939.2</ele>
        <time>2022-05-23 09:20:32</time>
      </trkpt>
      <trkpt lat="42.15167" lon="0.80534">
        <ele>939.4</ele>
        <time>2022-05-23 09:20:33</time>
      </trkpt>
      <trkpt lat="42.15169" lon="0.80532">
        <ele>939.6</ele>
        <time>2022-05-23 09:20:34</time>
      </trkpt>
      <trkpt lat="42.1517" lon="0.80529">
        <ele>939.8</ele>
        <time>2022-05-23 09:20:35</time>
      </trkpt>
      <trkpt lat="42.15171" lon="0.80527">
        <ele>940</ele>
        <time>2022-05-23 09:20:36</time>
      </trkpt>
      <trkpt lat="42.15173" lon="0.80525">
        <ele>940.2</ele>
        <time>2022-05-23 09:20:37</time>
      </trkpt>
      <trkpt lat="42.15175" lon="0.80524">
        <ele>940.4</ele>
        <time>2022-05-23 09:20:38</time>
      </trkpt>
      <trkpt lat="42.15176" lon="0.80523">
        <ele>940.6</ele>
        <time>2022-05-23 09:20:39</time>
      </trkpt>
      <trkpt lat="42.15178" lon="0.80521">
        <ele>940.8</ele>
        <time>2022-05-23 09:20:40</time>
      </trkpt>
      <trkpt lat="42.1518" lon="0.8052">
        <ele>941</ele>
        <time>2022-05-23 09:20:41</time>
      </trkpt>
      <trkpt lat="42.15182" lon="0.80519">
        <ele>941.2</ele>
        <time>2022-05-23 09:20:42</time>
      </trkpt>
      <trkpt lat="42.15184" lon="0.80518">
        <ele>941.2</ele>
        <time>2022-05-23 09:20:43</time>
      </trkpt>
      <trkpt lat="42.15186" lon="0.80517">
        <ele>941.4</ele>
        <time>2022-05-23 09:20:44</time>
      </trkpt>
      <trkpt lat="42.15188" lon="0.80516">
        <ele>941.6</ele>
        <time>2022-05-23 09:20:45</time>
      </trkpt>
      <trkpt lat="42.15191" lon="0.80516">
        <ele>941.6</ele>
        <time>2022-05-23 09:20:46</time>
      </trkpt>
      <trkpt lat="42.15192" lon="0.80515">
        <ele>941.8</ele>
        <time>2022-05-23 09:20:47</time>
      </trkpt>
      <trkpt lat="42.15195" lon="0.80515">
        <ele>942</ele>
        <time>2022-05-23 09:20:48</time>
      </trkpt>
      <trkpt lat="42.15197" lon="0.80514">
        <ele>942</ele>
        <time>2022-05-23 09:20:49</time>
      </trkpt>
      <trkpt lat="42.15199" lon="0.80513">
        <ele>942.2</ele>
        <time>2022-05-23 09:20:50</time>
      </trkpt>
      <trkpt lat="42.15201" lon="0.80512">
        <ele>942.4</ele>
        <time>2022-05-23 09:20:51</time>
      </trkpt>
      <trkpt lat="42.15203" lon="0.80512">
        <ele>942.6</ele>
        <time>2022-05-23 09:20:52</time>
      </trkpt>
      <trkpt lat="42.15205" lon="0.80511">
        <ele>942.8</ele>
        <time>2022-05-23 09:20:53</time>
      </trkpt>
      <trkpt lat="42.15207" lon="0.80511">
        <ele>942.8</ele>
        <time>2022-05-23 09:20:54</time>
      </trkpt>
      <trkpt lat="42.1521" lon="0.8051">
        <ele>943</ele>
        <time>2022-05-23 09:20:55</time>
      </trkpt>
      <trkpt lat="42.15212" lon="0.8051">
        <ele>943.2</ele>
        <time>2022-05-23 09:20:56</time>
      </trkpt>
      <trkpt lat="42.15214" lon="0.80509">
        <ele>943.4</ele>
        <time>2022-05-23 09:20:57</time>
      </trkpt>
      <trkpt lat="42.15216" lon="0.80508">
        <ele>943.6</ele>
        <time>2022-05-23 09:20:58</time>
      </trkpt>
      <trkpt lat="42.15218" lon="0.80508">
        <ele>943.6</ele>
        <time>2022-05-23 09:20:59</time>
      </trkpt>
      <trkpt lat="42.1522" lon="0.80508">
        <ele>943.8</ele>
        <time>2022-05-23 09:21:00</time>
      </trkpt>
      <trkpt lat="42.15222" lon="0.80507">
        <ele>944</ele>
        <time>2022-05-23 09:21:01</time>
      </trkpt>
      <trkpt lat="42.15224" lon="0.80507">
        <ele>944.2</ele>
        <time>2022-05-23 09:21:02</time>
      </trkpt>
      <trkpt lat="42.15226" lon="0.80507">
        <ele>944.4</ele>
        <time>2022-05-23 09:21:03</time>
      </trkpt>
      <trkpt lat="42.15228" lon="0.80506">
        <ele>944.6</ele>
        <time>2022-05-23 09:21:04</time>
      </trkpt>
      <trkpt lat="42.1523" lon="0.80506">
        <ele>944.8</ele>
        <time>2022-05-23 09:21:05</time>
      </trkpt>
      <trkpt lat="42.15231" lon="0.80505">
        <ele>944.8</ele>
        <time>2022-05-23 09:21:06</time>
      </trkpt>
      <trkpt lat="42.15233" lon="0.80504">
        <ele>945</ele>
        <time>2022-05-23 09:21:07</time>
      </trkpt>
      <trkpt lat="42.15235" lon="0.80503">
        <ele>945.2</ele>
        <time>2022-05-23 09:21:08</time>
      </trkpt>
      <trkpt lat="42.15237" lon="0.80503">
        <ele>945.4</ele>
        <time>2022-05-23 09:21:09</time>
      </trkpt>
      <trkpt lat="42.15239" lon="0.80502">
        <ele>945.4</ele>
        <time>2022-05-23 09:21:10</time>
      </trkpt>
      <trkpt lat="42.1524" lon="0.80501">
        <ele>945.6</ele>
        <time>2022-05-23 09:21:11</time>
      </trkpt>
      <trkpt lat="42.15242" lon="0.805">
        <ele>945.8</ele>
        <time>2022-05-23 09:21:12</time>
      </trkpt>
      <trkpt lat="42.15244" lon="0.80499">
        <ele>946</ele>
        <time>2022-05-23 09:21:13</time>
      </trkpt>
      <trkpt lat="42.15246" lon="0.80498">
        <ele>946</ele>
        <time>2022-05-23 09:21:14</time>
      </trkpt>
      <trkpt lat="42.15247" lon="0.80497">
        <ele>946.2</ele>
        <time>2022-05-23 09:21:15</time>
      </trkpt>
      <trkpt lat="42.15249" lon="0.80497">
        <ele>946.4</ele>
        <time>2022-05-23 09:21:16</time>
      </trkpt>
      <trkpt lat="42.15251" lon="0.80496">
        <ele>946.6</ele>
        <time>2022-05-23 09:21:17</time>
      </trkpt>
      <trkpt lat="42.15253" lon="0.80495">
        <ele>946.6</ele>
        <time>2022-05-23 09:21:18</time>
      </trkpt>
      <trkpt lat="42.15254" lon="0.80494">
        <ele>946.8</ele>
        <time>2022-05-23 09:21:19</time>
      </trkpt>
      <trkpt lat="42.15256" lon="0.80493">
        <ele>947</ele>
        <time>2022-05-23 09:21:20</time>
      </trkpt>
      <trkpt lat="42.15258" lon="0.80492">
        <ele>947</ele>
        <time>2022-05-23 09:21:21</time>
      </trkpt>
      <trkpt lat="42.1526" lon="0.8049">
        <ele>947.2</ele>
        <time>2022-05-23 09:21:22</time>
      </trkpt>
      <trkpt lat="42.15262" lon="0.80489">
        <ele>947.4</ele>
        <time>2022-05-23 09:21:23</time>
      </trkpt>
      <trkpt lat="42.15263" lon="0.80488">
        <ele>947.6</ele>
        <time>2022-05-23 09:21:24</time>
      </trkpt>
      <trkpt lat="42.15265" lon="0.80488">
        <ele>947.6</ele>
        <time>2022-05-23 09:21:25</time>
      </trkpt>
      <trkpt lat="42.15268" lon="0.80488">
        <ele>947.8</ele>
        <time>2022-05-23 09:21:26</time>
      </trkpt>
      <trkpt lat="42.15269" lon="0.80488">
        <ele>948</ele>
        <time>2022-05-23 09:21:27</time>
      </trkpt>
      <trkpt lat="42.15271" lon="0.80488">
        <ele>948</ele>
        <time>2022-05-23 09:21:28</time>
      </trkpt>
      <trkpt lat="42.15273" lon="0.80488">
        <ele>948.2</ele>
        <time>2022-05-23 09:21:29</time>
      </trkpt>
      <trkpt lat="42.15275" lon="0.80489">
        <ele>948.2</ele>
        <time>2022-05-23 09:21:30</time>
      </trkpt>
      <trkpt lat="42.15278" lon="0.8049">
        <ele>948.4</ele>
        <time>2022-05-23 09:21:31</time>
      </trkpt>
      <trkpt lat="42.15279" lon="0.80491">
        <ele>948.4</ele>
        <time>2022-05-23 09:21:32</time>
      </trkpt>
      <trkpt lat="42.15281" lon="0.80492">
        <ele>948.6</ele>
        <time>2022-05-23 09:21:33</time>
      </trkpt>
      <trkpt lat="42.15283" lon="0.80494">
        <ele>948.8</ele>
        <time>2022-05-23 09:21:34</time>
      </trkpt>
      <trkpt lat="42.15284" lon="0.80496">
        <ele>949</ele>
        <time>2022-05-23 09:21:35</time>
      </trkpt>
      <trkpt lat="42.15286" lon="0.80498">
        <ele>949.2</ele>
        <time>2022-05-23 09:21:36</time>
      </trkpt>
      <trkpt lat="42.15287" lon="0.805">
        <ele>949.4</ele>
        <time>2022-05-23 09:21:37</time>
      </trkpt>
      <trkpt lat="42.15288" lon="0.80502">
        <ele>949.4</ele>
        <time>2022-05-23 09:21:38</time>
      </trkpt>
      <trkpt lat="42.15289" lon="0.80505">
        <ele>949.6</ele>
        <time>2022-05-23 09:21:39</time>
      </trkpt>
      <trkpt lat="42.15289" lon="0.80507">
        <ele>949.8</ele>
        <time>2022-05-23 09:21:40</time>
      </trkpt>
      <trkpt lat="42.1529" lon="0.8051">
        <ele>950</ele>
        <time>2022-05-23 09:21:41</time>
      </trkpt>
      <trkpt lat="42.1529" lon="0.80513">
        <ele>950.2</ele>
        <time>2022-05-23 09:21:42</time>
      </trkpt>
      <trkpt lat="42.15291" lon="0.80515">
        <ele>950.2</ele>
        <time>2022-05-23 09:21:43</time>
      </trkpt>
      <trkpt lat="42.15292" lon="0.80517">
        <ele>950.4</ele>
        <time>2022-05-23 09:21:44</time>
      </trkpt>
      <trkpt lat="42.15292" lon="0.8052">
        <ele>950.6</ele>
        <time>2022-05-23 09:21:45</time>
      </trkpt>
      <trkpt lat="42.15293" lon="0.80523">
        <ele>950.8</ele>
        <time>2022-05-23 09:21:46</time>
      </trkpt>
      <trkpt lat="42.15294" lon="0.80525">
        <ele>951</ele>
        <time>2022-05-23 09:21:47</time>
      </trkpt>
      <trkpt lat="42.15294" lon="0.80527">
        <ele>951.2</ele>
        <time>2022-05-23 09:21:48</time>
      </trkpt>
      <trkpt lat="42.15295" lon="0.80529">
        <ele>951.4</ele>
        <time>2022-05-23 09:21:49</time>
      </trkpt>
      <trkpt lat="42.15296" lon="0.80532">
        <ele>951.6</ele>
        <time>2022-05-23 09:21:50</time>
      </trkpt>
      <trkpt lat="42.15297" lon="0.80534">
        <ele>951.6</ele>
        <time>2022-05-23 09:21:51</time>
      </trkpt>
      <trkpt lat="42.15297" lon="0.80536">
        <ele>951.8</ele>
        <time>2022-05-23 09:21:52</time>
      </trkpt>
      <trkpt lat="42.15298" lon="0.80539">
        <ele>952</ele>
        <time>2022-05-23 09:21:53</time>
      </trkpt>
      <trkpt lat="42.15299" lon="0.80541">
        <ele>952.2</ele>
        <time>2022-05-23 09:21:54</time>
      </trkpt>
      <trkpt lat="42.153" lon="0.80543">
        <ele>952.2</ele>
        <time>2022-05-23 09:21:55</time>
      </trkpt>
      <trkpt lat="42.15301" lon="0.80546">
        <ele>952.4</ele>
        <time>2022-05-23 09:21:56</time>
      </trkpt>
      <trkpt lat="42.15302" lon="0.80548">
        <ele>952.6</ele>
        <time>2022-05-23 09:21:57</time>
      </trkpt>
      <trkpt lat="42.15303" lon="0.8055">
        <ele>952.8</ele>
        <time>2022-05-23 09:21:58</time>
      </trkpt>
      <trkpt lat="42.15304" lon="0.80551">
        <ele>953</ele>
        <time>2022-05-23 09:21:59</time>
      </trkpt>
      <trkpt lat="42.15305" lon="0.80554">
        <ele>953.2</ele>
        <time>2022-05-23 09:22:00</time>
      </trkpt>
      <trkpt lat="42.15306" lon="0.80556">
        <ele>953.4</ele>
        <time>2022-05-23 09:22:01</time>
      </trkpt>
      <trkpt lat="42.15307" lon="0.80558">
        <ele>953.6</ele>
        <time>2022-05-23 09:22:02</time>
      </trkpt>
      <trkpt lat="42.15308" lon="0.80559">
        <ele>953.6</ele>
        <time>2022-05-23 09:22:03</time>
      </trkpt>
      <trkpt lat="42.15309" lon="0.80561">
        <ele>953.8</ele>
        <time>2022-05-23 09:22:04</time>
      </trkpt>
      <trkpt lat="42.15311" lon="0.80563">
        <ele>954</ele>
        <time>2022-05-23 09:22:05</time>
      </trkpt>
      <trkpt lat="42.15312" lon="0.80565">
        <ele>954.2</ele>
        <time>2022-05-23 09:22:06</time>
      </trkpt>
      <trkpt lat="42.15313" lon="0.80567">
        <ele>954.4</ele>
        <time>2022-05-23 09:22:07</time>
      </trkpt>
      <trkpt lat="42.15315" lon="0.8057">
        <ele>954.6</ele>
        <time>2022-05-23 09:22:08</time>
      </trkpt>
      <trkpt lat="42.15315" lon="0.80572">
        <ele>954.6</ele>
        <time>2022-05-23 09:22:09</time>
      </trkpt>
      <trkpt lat="42.15316" lon="0.80575">
        <ele>954.8</ele>
        <time>2022-05-23 09:22:10</time>
      </trkpt>
      <trkpt lat="42.15316" lon="0.80578">
        <ele>955</ele>
        <time>2022-05-23 09:22:11</time>
      </trkpt>
      <trkpt lat="42.15317" lon="0.8058">
        <ele>955.2</ele>
        <time>2022-05-23 09:22:12</time>
      </trkpt>
      <trkpt lat="42.15318" lon="0.80582">
        <ele>955.4</ele>
        <time>2022-05-23 09:22:13</time>
      </trkpt>
      <trkpt lat="42.15318" lon="0.80584">
        <ele>955.4</ele>
        <time>2022-05-23 09:22:14</time>
      </trkpt>
      <trkpt lat="42.15318" lon="0.80587">
        <ele>955.6</ele>
        <time>2022-05-23 09:22:15</time>
      </trkpt>
      <trkpt lat="42.15318" lon="0.80589">
        <ele>955.8</ele>
        <time>2022-05-23 09:22:16</time>
      </trkpt>
      <trkpt lat="42.15318" lon="0.80591">
        <ele>956</ele>
        <time>2022-05-23 09:22:17</time>
      </trkpt>
      <trkpt lat="42.15318" lon="0.80594">
        <ele>956.2</ele>
        <time>2022-05-23 09:22:18</time>
      </trkpt>
      <trkpt lat="42.15318" lon="0.80596">
        <ele>956.4</ele>
        <time>2022-05-23 09:22:19</time>
      </trkpt>
      <trkpt lat="42.15318" lon="0.80599">
        <ele>956.4</ele>
        <time>2022-05-23 09:22:20</time>
      </trkpt>
      <trkpt lat="42.15319" lon="0.80602">
        <ele>956.6</ele>
        <time>2022-05-23 09:22:21</time>
      </trkpt>
      <trkpt lat="42.15319" lon="0.80604">
        <ele>956.8</ele>
        <time>2022-05-23 09:22:22</time>
      </trkpt>
      <trkpt lat="42.15319" lon="0.80607">
        <ele>957</ele>
        <time>2022-05-23 09:22:23</time>
      </trkpt>
      <trkpt lat="42.15319" lon="0.8061">
        <ele>957.2</ele>
        <time>2022-05-23 09:22:24</time>
      </trkpt>
      <trkpt lat="42.1532" lon="0.80613">
        <ele>957.4</ele>
        <time>2022-05-23 09:22:25</time>
      </trkpt>
      <trkpt lat="42.1532" lon="0.80615">
        <ele>957.6</ele>
        <time>2022-05-23 09:22:26</time>
      </trkpt>
      <trkpt lat="42.1532" lon="0.80618">
        <ele>957.6</ele>
        <time>2022-05-23 09:22:27</time>
      </trkpt>
      <trkpt lat="42.15321" lon="0.80621">
        <ele>957.8</ele>
        <time>2022-05-23 09:22:28</time>
      </trkpt>
      <trkpt lat="42.15322" lon="0.80624">
        <ele>958</ele>
        <time>2022-05-23 09:22:29</time>
      </trkpt>
      <trkpt lat="42.15323" lon="0.80626">
        <ele>958</ele>
        <time>2022-05-23 09:22:30</time>
      </trkpt>
      <trkpt lat="42.15324" lon="0.80628">
        <ele>958.2</ele>
        <time>2022-05-23 09:22:31</time>
      </trkpt>
      <trkpt lat="42.15326" lon="0.8063">
        <ele>958.4</ele>
        <time>2022-05-23 09:22:32</time>
      </trkpt>
      <trkpt lat="42.15327" lon="0.80632">
        <ele>958.6</ele>
        <time>2022-05-23 09:22:33</time>
      </trkpt>
      <trkpt lat="42.15329" lon="0.80634">
        <ele>958.8</ele>
        <time>2022-05-23 09:22:34</time>
      </trkpt>
      <trkpt lat="42.1533" lon="0.80636">
        <ele>958.8</ele>
        <time>2022-05-23 09:22:35</time>
      </trkpt>
      <trkpt lat="42.15331" lon="0.80638">
        <ele>959</ele>
        <time>2022-05-23 09:22:36</time>
      </trkpt>
      <trkpt lat="42.15332" lon="0.8064">
        <ele>959</ele>
        <time>2022-05-23 09:22:37</time>
      </trkpt>
      <trkpt lat="42.15334" lon="0.80643">
        <ele>959.2</ele>
        <time>2022-05-23 09:22:38</time>
      </trkpt>
      <trkpt lat="42.15335" lon="0.80644">
        <ele>959.4</ele>
        <time>2022-05-23 09:22:39</time>
      </trkpt>
      <trkpt lat="42.15336" lon="0.80646">
        <ele>959.4</ele>
        <time>2022-05-23 09:22:40</time>
      </trkpt>
      <trkpt lat="42.15337" lon="0.80648">
        <ele>959.6</ele>
        <time>2022-05-23 09:22:41</time>
      </trkpt>
      <trkpt lat="42.15339" lon="0.8065">
        <ele>959.8</ele>
        <time>2022-05-23 09:22:42</time>
      </trkpt>
      <trkpt lat="42.1534" lon="0.80652">
        <ele>959.8</ele>
        <time>2022-05-23 09:22:43</time>
      </trkpt>
      <trkpt lat="42.15342" lon="0.80654">
        <ele>960</ele>
        <time>2022-05-23 09:22:44</time>
      </trkpt>
      <trkpt lat="42.15343" lon="0.80655">
        <ele>960.2</ele>
        <time>2022-05-23 09:22:45</time>
      </trkpt>
      <trkpt lat="42.15344" lon="0.80657">
        <ele>960.4</ele>
        <time>2022-05-23 09:22:46</time>
      </trkpt>
      <trkpt lat="42.15345" lon="0.80659">
        <ele>960.4</ele>
        <time>2022-05-23 09:22:47</time>
      </trkpt>
      <trkpt lat="42.15346" lon="0.80661">
        <ele>960.6</ele>
        <time>2022-05-23 09:22:48</time>
      </trkpt>
      <trkpt lat="42.15347" lon="0.80663">
        <ele>960.8</ele>
        <time>2022-05-23 09:22:49</time>
      </trkpt>
      <trkpt lat="42.15348" lon="0.80665">
        <ele>961</ele>
        <time>2022-05-23 09:22:50</time>
      </trkpt>
      <trkpt lat="42.1535" lon="0.80667">
        <ele>961</ele>
        <time>2022-05-23 09:22:51</time>
      </trkpt>
      <trkpt lat="42.15351" lon="0.80669">
        <ele>961.2</ele>
        <time>2022-05-23 09:22:52</time>
      </trkpt>
      <trkpt lat="42.15352" lon="0.80671">
        <ele>961.4</ele>
        <time>2022-05-23 09:22:53</time>
      </trkpt>
      <trkpt lat="42.15353" lon="0.80672">
        <ele>961.6</ele>
        <time>2022-05-23 09:22:54</time>
      </trkpt>
      <trkpt lat="42.15355" lon="0.80674">
        <ele>961.6</ele>
        <time>2022-05-23 09:22:55</time>
      </trkpt>
      <trkpt lat="42.15356" lon="0.80676">
        <ele>961.8</ele>
        <time>2022-05-23 09:22:56</time>
      </trkpt>
      <trkpt lat="42.15358" lon="0.80678">
        <ele>962</ele>
        <time>2022-05-23 09:22:57</time>
      </trkpt>
      <trkpt lat="42.15359" lon="0.8068">
        <ele>962.2</ele>
        <time>2022-05-23 09:22:58</time>
      </trkpt>
      <trkpt lat="42.1536" lon="0.80681">
        <ele>962.2</ele>
        <time>2022-05-23 09:22:59</time>
      </trkpt>
      <trkpt lat="42.15362" lon="0.80682">
        <ele>962.4</ele>
        <time>2022-05-23 09:23:00</time>
      </trkpt>
      <trkpt lat="42.15364" lon="0.80684">
        <ele>962.6</ele>
        <time>2022-05-23 09:23:01</time>
      </trkpt>
      <trkpt lat="42.15365" lon="0.80685">
        <ele>962.8</ele>
        <time>2022-05-23 09:23:02</time>
      </trkpt>
      <trkpt lat="42.15367" lon="0.80687">
        <ele>962.8</ele>
        <time>2022-05-23 09:23:03</time>
      </trkpt>
      <trkpt lat="42.15369" lon="0.80688">
        <ele>963</ele>
        <time>2022-05-23 09:23:04</time>
      </trkpt>
      <trkpt lat="42.15371" lon="0.80689">
        <ele>963</ele>
        <time>2022-05-23 09:23:05</time>
      </trkpt>
      <trkpt lat="42.15373" lon="0.8069">
        <ele>963.2</ele>
        <time>2022-05-23 09:23:06</time>
      </trkpt>
      <trkpt lat="42.15374" lon="0.80691">
        <ele>963.4</ele>
        <time>2022-05-23 09:23:07</time>
      </trkpt>
      <trkpt lat="42.15376" lon="0.80692">
        <ele>963.4</ele>
        <time>2022-05-23 09:23:08</time>
      </trkpt>
      <trkpt lat="42.15378" lon="0.80693">
        <ele>963.6</ele>
        <time>2022-05-23 09:23:09</time>
      </trkpt>
      <trkpt lat="42.1538" lon="0.80693">
        <ele>963.8</ele>
        <time>2022-05-23 09:23:10</time>
      </trkpt>
      <trkpt lat="42.15382" lon="0.80694">
        <ele>963.8</ele>
        <time>2022-05-23 09:23:11</time>
      </trkpt>
      <trkpt lat="42.15384" lon="0.80694">
        <ele>964</ele>
        <time>2022-05-23 09:23:12</time>
      </trkpt>
      <trkpt lat="42.15386" lon="0.80695">
        <ele>964.2</ele>
        <time>2022-05-23 09:23:13</time>
      </trkpt>
      <trkpt lat="42.15388" lon="0.80695">
        <ele>964.4</ele>
        <time>2022-05-23 09:23:14</time>
      </trkpt>
      <trkpt lat="42.1539" lon="0.80696">
        <ele>964.6</ele>
        <time>2022-05-23 09:23:15</time>
      </trkpt>
      <trkpt lat="42.15392" lon="0.80696">
        <ele>964.8</ele>
        <time>2022-05-23 09:23:16</time>
      </trkpt>
      <trkpt lat="42.15394" lon="0.80697">
        <ele>964.8</ele>
        <time>2022-05-23 09:23:17</time>
      </trkpt>
      <trkpt lat="42.15396" lon="0.80698">
        <ele>965</ele>
        <time>2022-05-23 09:23:18</time>
      </trkpt>
      <trkpt lat="42.15398" lon="0.80698">
        <ele>965.2</ele>
        <time>2022-05-23 09:23:19</time>
      </trkpt>
      <trkpt lat="42.154" lon="0.80699">
        <ele>965.4</ele>
        <time>2022-05-23 09:23:20</time>
      </trkpt>
      <trkpt lat="42.15401" lon="0.807">
        <ele>965.6</ele>
        <time>2022-05-23 09:23:21</time>
      </trkpt>
      <trkpt lat="42.15403" lon="0.80701">
        <ele>965.8</ele>
        <time>2022-05-23 09:23:22</time>
      </trkpt>
      <trkpt lat="42.15405" lon="0.80702">
        <ele>966</ele>
        <time>2022-05-23 09:23:23</time>
      </trkpt>
      <trkpt lat="42.15407" lon="0.80703">
        <ele>966</ele>
        <time>2022-05-23 09:23:24</time>
      </trkpt>
      <trkpt lat="42.15409" lon="0.80704">
        <ele>966.2</ele>
        <time>2022-05-23 09:23:25</time>
      </trkpt>
      <trkpt lat="42.15411" lon="0.80705">
        <ele>966.2</ele>
        <time>2022-05-23 09:23:26</time>
      </trkpt>
      <trkpt lat="42.15413" lon="0.80706">
        <ele>966.4</ele>
        <time>2022-05-23 09:23:27</time>
      </trkpt>
      <trkpt lat="42.15414" lon="0.80707">
        <ele>966.6</ele>
        <time>2022-05-23 09:23:28</time>
      </trkpt>
      <trkpt lat="42.15416" lon="0.80709">
        <ele>966.8</ele>
        <time>2022-05-23 09:23:29</time>
      </trkpt>
      <trkpt lat="42.15417" lon="0.80711">
        <ele>967</ele>
        <time>2022-05-23 09:23:30</time>
      </trkpt>
      <trkpt lat="42.15418" lon="0.80713">
        <ele>967.2</ele>
        <time>2022-05-23 09:23:31</time>
      </trkpt>
      <trkpt lat="42.15419" lon="0.80715">
        <ele>967.4</ele>
        <time>2022-05-23 09:23:32</time>
      </trkpt>
      <trkpt lat="42.1542" lon="0.80717">
        <ele>967.6</ele>
        <time>2022-05-23 09:23:33</time>
      </trkpt>
      <trkpt lat="42.15421" lon="0.80719">
        <ele>967.6</ele>
        <time>2022-05-23 09:23:34</time>
      </trkpt>
      <trkpt lat="42.15422" lon="0.80721">
        <ele>967.8</ele>
        <time>2022-05-23 09:23:35</time>
      </trkpt>
      <trkpt lat="42.15423" lon="0.80722">
        <ele>968</ele>
        <time>2022-05-23 09:23:36</time>
      </trkpt>
      <trkpt lat="42.15424" lon="0.80724">
        <ele>968.2</ele>
        <time>2022-05-23 09:23:37</time>
      </trkpt>
      <trkpt lat="42.15425" lon="0.80726">
        <ele>968.4</ele>
        <time>2022-05-23 09:23:38</time>
      </trkpt>
      <trkpt lat="42.15425" lon="0.80728">
        <ele>968.6</ele>
        <time>2022-05-23 09:23:39</time>
      </trkpt>
      <trkpt lat="42.15427" lon="0.80731">
        <ele>968.8</ele>
        <time>2022-05-23 09:23:40</time>
      </trkpt>
      <trkpt lat="42.15428" lon="0.80733">
        <ele>969</ele>
        <time>2022-05-23 09:23:41</time>
      </trkpt>
      <trkpt lat="42.15429" lon="0.80735">
        <ele>969.2</ele>
        <time>2022-05-23 09:23:42</time>
      </trkpt>
      <trkpt lat="42.1543" lon="0.80737">
        <ele>969.4</ele>
        <time>2022-05-23 09:23:43</time>
      </trkpt>
      <trkpt lat="42.15431" lon="0.80739">
        <ele>969.6</ele>
        <time>2022-05-23 09:23:44</time>
      </trkpt>
      <trkpt lat="42.15432" lon="0.8074">
        <ele>969.8</ele>
        <time>2022-05-23 09:23:45</time>
      </trkpt>
      <trkpt lat="42.15434" lon="0.80743">
        <ele>969.8</ele>
        <time>2022-05-23 09:23:46</time>
      </trkpt>
      <trkpt lat="42.15435" lon="0.80745">
        <ele>970</ele>
        <time>2022-05-23 09:23:47</time>
      </trkpt>
      <trkpt lat="42.15435" lon="0.80747">
        <ele>970.2</ele>
        <time>2022-05-23 09:23:48</time>
      </trkpt>
      <trkpt lat="42.15436" lon="0.80749">
        <ele>970.4</ele>
        <time>2022-05-23 09:23:49</time>
      </trkpt>
      <trkpt lat="42.15437" lon="0.80751">
        <ele>970.6</ele>
        <time>2022-05-23 09:23:50</time>
      </trkpt>
      <trkpt lat="42.15438" lon="0.80753">
        <ele>970.8</ele>
        <time>2022-05-23 09:23:51</time>
      </trkpt>
      <trkpt lat="42.1544" lon="0.80755">
        <ele>971</ele>
        <time>2022-05-23 09:23:52</time>
      </trkpt>
      <trkpt lat="42.15441" lon="0.80756">
        <ele>971.2</ele>
        <time>2022-05-23 09:23:53</time>
      </trkpt>
      <trkpt lat="42.15443" lon="0.80758">
        <ele>971.4</ele>
        <time>2022-05-23 09:23:54</time>
      </trkpt>
      <trkpt lat="42.15444" lon="0.80759">
        <ele>971.6</ele>
        <time>2022-05-23 09:23:55</time>
      </trkpt>
      <trkpt lat="42.15446" lon="0.80761">
        <ele>971.8</ele>
        <time>2022-05-23 09:23:56</time>
      </trkpt>
      <trkpt lat="42.15448" lon="0.80763">
        <ele>972</ele>
        <time>2022-05-23 09:23:57</time>
      </trkpt>
      <trkpt lat="42.1545" lon="0.80765">
        <ele>972.2</ele>
        <time>2022-05-23 09:23:58</time>
      </trkpt>
      <trkpt lat="42.15452" lon="0.80765">
        <ele>972.4</ele>
        <time>2022-05-23 09:23:59</time>
      </trkpt>
      <trkpt lat="42.15454" lon="0.80766">
        <ele>972.6</ele>
        <time>2022-05-23 09:24:00</time>
      </trkpt>
      <trkpt lat="42.15456" lon="0.80766">
        <ele>972.6</ele>
        <time>2022-05-23 09:24:01</time>
      </trkpt>
      <trkpt lat="42.15458" lon="0.80766">
        <ele>972.8</ele>
        <time>2022-05-23 09:24:02</time>
      </trkpt>
      <trkpt lat="42.1546" lon="0.80767">
        <ele>973</ele>
        <time>2022-05-23 09:24:03</time>
      </trkpt>
      <trkpt lat="42.15462" lon="0.80767">
        <ele>973.2</ele>
        <time>2022-05-23 09:24:04</time>
      </trkpt>
      <trkpt lat="42.15464" lon="0.80768">
        <ele>973.4</ele>
        <time>2022-05-23 09:24:05</time>
      </trkpt>
      <trkpt lat="42.15465" lon="0.80768">
        <ele>973.6</ele>
        <time>2022-05-23 09:24:06</time>
      </trkpt>
      <trkpt lat="42.15467" lon="0.80768">
        <ele>973.8</ele>
        <time>2022-05-23 09:24:07</time>
      </trkpt>
      <trkpt lat="42.15469" lon="0.80768">
        <ele>974</ele>
        <time>2022-05-23 09:24:08</time>
      </trkpt>
      <trkpt lat="42.15471" lon="0.80768">
        <ele>974.2</ele>
        <time>2022-05-23 09:24:09</time>
      </trkpt>
      <trkpt lat="42.15472" lon="0.80768">
        <ele>974.4</ele>
        <time>2022-05-23 09:24:10</time>
      </trkpt>
      <trkpt lat="42.15474" lon="0.80769">
        <ele>974.6</ele>
        <time>2022-05-23 09:24:11</time>
      </trkpt>
      <trkpt lat="42.15476" lon="0.80769">
        <ele>974.8</ele>
        <time>2022-05-23 09:24:12</time>
      </trkpt>
      <trkpt lat="42.15478" lon="0.80769">
        <ele>975</ele>
        <time>2022-05-23 09:24:13</time>
      </trkpt>
      <trkpt lat="42.1548" lon="0.80769">
        <ele>975.2</ele>
        <time>2022-05-23 09:24:14</time>
      </trkpt>
      <trkpt lat="42.15482" lon="0.8077">
        <ele>975.4</ele>
        <time>2022-05-23 09:24:15</time>
      </trkpt>
      <trkpt lat="42.15484" lon="0.8077">
        <ele>975.6</ele>
        <time>2022-05-23 09:24:16</time>
      </trkpt>
      <trkpt lat="42.15486" lon="0.8077">
        <ele>975.8</ele>
        <time>2022-05-23 09:24:17</time>
      </trkpt>
      <trkpt lat="42.15489" lon="0.8077">
        <ele>976</ele>
        <time>2022-05-23 09:24:18</time>
      </trkpt>
      <trkpt lat="42.1549" lon="0.80769">
        <ele>976.2</ele>
        <time>2022-05-23 09:24:19</time>
      </trkpt>
      <trkpt lat="42.15492" lon="0.80769">
        <ele>976.4</ele>
        <time>2022-05-23 09:24:20</time>
      </trkpt>
      <trkpt lat="42.15494" lon="0.80769">
        <ele>976.6</ele>
        <time>2022-05-23 09:24:21</time>
      </trkpt>
      <trkpt lat="42.15496" lon="0.80769">
        <ele>976.8</ele>
        <time>2022-05-23 09:24:22</time>
      </trkpt>
      <trkpt lat="42.15498" lon="0.80768">
        <ele>977</ele>
        <time>2022-05-23 09:24:23</time>
      </trkpt>
      <trkpt lat="42.155" lon="0.80768">
        <ele>977.2</ele>
        <time>2022-05-23 09:24:24</time>
      </trkpt>
      <trkpt lat="42.15502" lon="0.80768">
        <ele>977.4</ele>
        <time>2022-05-23 09:24:25</time>
      </trkpt>
      <trkpt lat="42.15504" lon="0.80768">
        <ele>977.6</ele>
        <time>2022-05-23 09:24:26</time>
      </trkpt>
      <trkpt lat="42.15506" lon="0.80767">
        <ele>977.8</ele>
        <time>2022-05-23 09:24:27</time>
      </trkpt>
      <trkpt lat="42.15508" lon="0.80766">
        <ele>978</ele>
        <time>2022-05-23 09:24:28</time>
      </trkpt>
      <trkpt lat="42.15509" lon="0.80766">
        <ele>978.2</ele>
        <time>2022-05-23 09:24:29</time>
      </trkpt>
      <trkpt lat="42.15511" lon="0.80764">
        <ele>978.4</ele>
        <time>2022-05-23 09:24:30</time>
      </trkpt>
      <trkpt lat="42.15513" lon="0.80763">
        <ele>978.6</ele>
        <time>2022-05-23 09:24:31</time>
      </trkpt>
      <trkpt lat="42.15514" lon="0.80762">
        <ele>978.8</ele>
        <time>2022-05-23 09:24:32</time>
      </trkpt>
      <trkpt lat="42.15516" lon="0.80759">
        <ele>978.8</ele>
        <time>2022-05-23 09:24:33</time>
      </trkpt>
      <trkpt lat="42.15517" lon="0.80757">
        <ele>979</ele>
        <time>2022-05-23 09:24:34</time>
      </trkpt>
      <trkpt lat="42.15519" lon="0.80755">
        <ele>979.2</ele>
        <time>2022-05-23 09:24:35</time>
      </trkpt>
      <trkpt lat="42.15519" lon="0.80753">
        <ele>979.2</ele>
        <time>2022-05-23 09:24:36</time>
      </trkpt>
      <trkpt lat="42.1552" lon="0.80751">
        <ele>979.4</ele>
        <time>2022-05-23 09:24:37</time>
      </trkpt>
      <trkpt lat="42.15521" lon="0.80749">
        <ele>979.6</ele>
        <time>2022-05-23 09:24:38</time>
      </trkpt>
      <trkpt lat="42.15522" lon="0.80747">
        <ele>979.6</ele>
        <time>2022-05-23 09:24:39</time>
      </trkpt>
      <trkpt lat="42.15522" lon="0.80745">
        <ele>979.8</ele>
        <time>2022-05-23 09:24:40</time>
      </trkpt>
      <trkpt lat="42.15523" lon="0.80743">
        <ele>979.8</ele>
        <time>2022-05-23 09:24:41</time>
      </trkpt>
      <trkpt lat="42.15523" lon="0.8074">
        <ele>980</ele>
        <time>2022-05-23 09:24:42</time>
      </trkpt>
      <trkpt lat="42.15523" lon="0.80738">
        <ele>980</ele>
        <time>2022-05-23 09:24:43</time>
      </trkpt>
      <trkpt lat="42.15523" lon="0.80736">
        <ele>980.2</ele>
        <time>2022-05-23 09:24:44</time>
      </trkpt>
      <trkpt lat="42.15523" lon="0.80733">
        <ele>980.4</ele>
        <time>2022-05-23 09:24:45</time>
      </trkpt>
      <trkpt lat="42.15522" lon="0.80731">
        <ele>980.6</ele>
        <time>2022-05-23 09:24:46</time>
      </trkpt>
      <trkpt lat="42.15522" lon="0.80729">
        <ele>980.8</ele>
        <time>2022-05-23 09:24:47</time>
      </trkpt>
      <trkpt lat="42.15521" lon="0.80727">
        <ele>981</ele>
        <time>2022-05-23 09:24:48</time>
      </trkpt>
      <trkpt lat="42.15521" lon="0.80724">
        <ele>981.4</ele>
        <time>2022-05-23 09:24:49</time>
      </trkpt>
      <trkpt lat="42.1552" lon="0.80722">
        <ele>981.6</ele>
        <time>2022-05-23 09:24:50</time>
      </trkpt>
      <trkpt lat="42.1552" lon="0.8072">
        <ele>981.8</ele>
        <time>2022-05-23 09:24:51</time>
      </trkpt>
      <trkpt lat="42.15519" lon="0.80718">
        <ele>982</ele>
        <time>2022-05-23 09:24:52</time>
      </trkpt>
      <trkpt lat="42.15519" lon="0.80716">
        <ele>982.2</ele>
        <time>2022-05-23 09:24:53</time>
      </trkpt>
      <trkpt lat="42.15519" lon="0.80714">
        <ele>982.4</ele>
        <time>2022-05-23 09:24:54</time>
      </trkpt>
      <trkpt lat="42.15518" lon="0.80711">
        <ele>982.6</ele>
        <time>2022-05-23 09:24:55</time>
      </trkpt>
      <trkpt lat="42.15517" lon="0.80709">
        <ele>982.8</ele>
        <time>2022-05-23 09:24:56</time>
      </trkpt>
      <trkpt lat="42.15517" lon="0.80707">
        <ele>983</ele>
        <time>2022-05-23 09:24:57</time>
      </trkpt>
      <trkpt lat="42.15516" lon="0.80704">
        <ele>983.2</ele>
        <time>2022-05-23 09:24:58</time>
      </trkpt>
      <trkpt lat="42.15515" lon="0.80702">
        <ele>983.4</ele>
        <time>2022-05-23 09:24:59</time>
      </trkpt>
      <trkpt lat="42.15514" lon="0.807">
        <ele>983.6</ele>
        <time>2022-05-23 09:25:00</time>
      </trkpt>
      <trkpt lat="42.15513" lon="0.80698">
        <ele>983.8</ele>
        <time>2022-05-23 09:25:01</time>
      </trkpt>
      <trkpt lat="42.15513" lon="0.80696">
        <ele>984</ele>
        <time>2022-05-23 09:25:02</time>
      </trkpt>
      <trkpt lat="42.15512" lon="0.80693">
        <ele>984.2</ele>
        <time>2022-05-23 09:25:03</time>
      </trkpt>
      <trkpt lat="42.15512" lon="0.80691">
        <ele>984.4</ele>
        <time>2022-05-23 09:25:04</time>
      </trkpt>
      <trkpt lat="42.15511" lon="0.80688">
        <ele>984.4</ele>
        <time>2022-05-23 09:25:05</time>
      </trkpt>
      <trkpt lat="42.1551" lon="0.80686">
        <ele>984.6</ele>
        <time>2022-05-23 09:25:06</time>
      </trkpt>
      <trkpt lat="42.15509" lon="0.80684">
        <ele>984.8</ele>
        <time>2022-05-23 09:25:07</time>
      </trkpt>
      <trkpt lat="42.15509" lon="0.80682">
        <ele>985</ele>
        <time>2022-05-23 09:25:08</time>
      </trkpt>
      <trkpt lat="42.15508" lon="0.80679">
        <ele>985.2</ele>
        <time>2022-05-23 09:25:09</time>
      </trkpt>
      <trkpt lat="42.15507" lon="0.80677">
        <ele>985.4</ele>
        <time>2022-05-23 09:25:10</time>
      </trkpt>
      <trkpt lat="42.15506" lon="0.80675">
        <ele>985.6</ele>
        <time>2022-05-23 09:25:11</time>
      </trkpt>
      <trkpt lat="42.15505" lon="0.80673">
        <ele>985.8</ele>
        <time>2022-05-23 09:25:12</time>
      </trkpt>
      <trkpt lat="42.15504" lon="0.80671">
        <ele>985.8</ele>
        <time>2022-05-23 09:25:13</time>
      </trkpt>
      <trkpt lat="42.15503" lon="0.80668">
        <ele>986</ele>
        <time>2022-05-23 09:25:14</time>
      </trkpt>
      <trkpt lat="42.15503" lon="0.80666">
        <ele>986.2</ele>
        <time>2022-05-23 09:25:15</time>
      </trkpt>
      <trkpt lat="42.15503" lon="0.80663">
        <ele>986.4</ele>
        <time>2022-05-23 09:25:16</time>
      </trkpt>
      <trkpt lat="42.15503" lon="0.80661">
        <ele>986.6</ele>
        <time>2022-05-23 09:25:17</time>
      </trkpt>
      <trkpt lat="42.15503" lon="0.80659">
        <ele>986.8</ele>
        <time>2022-05-23 09:25:18</time>
      </trkpt>
      <trkpt lat="42.15502" lon="0.80657">
        <ele>987</ele>
        <time>2022-05-23 09:25:19</time>
      </trkpt>
      <trkpt lat="42.15501" lon="0.80655">
        <ele>987.2</ele>
        <time>2022-05-23 09:25:20</time>
      </trkpt>
      <trkpt lat="42.15501" lon="0.80652">
        <ele>987.4</ele>
        <time>2022-05-23 09:25:21</time>
      </trkpt>
      <trkpt lat="42.155" lon="0.8065">
        <ele>987.6</ele>
        <time>2022-05-23 09:25:22</time>
      </trkpt>
      <trkpt lat="42.15499" lon="0.80648">
        <ele>987.8</ele>
        <time>2022-05-23 09:25:23</time>
      </trkpt>
      <trkpt lat="42.15499" lon="0.80646">
        <ele>988</ele>
        <time>2022-05-23 09:25:24</time>
      </trkpt>
      <trkpt lat="42.15498" lon="0.80643">
        <ele>988.2</ele>
        <time>2022-05-23 09:25:25</time>
      </trkpt>
      <trkpt lat="42.15498" lon="0.80641">
        <ele>988.4</ele>
        <time>2022-05-23 09:25:26</time>
      </trkpt>
      <trkpt lat="42.15498" lon="0.80638">
        <ele>988.6</ele>
        <time>2022-05-23 09:25:27</time>
      </trkpt>
      <trkpt lat="42.15498" lon="0.80636">
        <ele>988.8</ele>
        <time>2022-05-23 09:25:28</time>
      </trkpt>
      <trkpt lat="42.15497" lon="0.80634">
        <ele>989</ele>
        <time>2022-05-23 09:25:29</time>
      </trkpt>
      <trkpt lat="42.15497" lon="0.80631">
        <ele>989</ele>
        <time>2022-05-23 09:25:30</time>
      </trkpt>
      <trkpt lat="42.15497" lon="0.80629">
        <ele>989.2</ele>
        <time>2022-05-23 09:25:31</time>
      </trkpt>
      <trkpt lat="42.15496" lon="0.80626">
        <ele>989.4</ele>
        <time>2022-05-23 09:25:32</time>
      </trkpt>
      <trkpt lat="42.15496" lon="0.80624">
        <ele>989.6</ele>
        <time>2022-05-23 09:25:33</time>
      </trkpt>
      <trkpt lat="42.15495" lon="0.80622">
        <ele>989.8</ele>
        <time>2022-05-23 09:25:34</time>
      </trkpt>
      <trkpt lat="42.15495" lon="0.80619">
        <ele>989.8</ele>
        <time>2022-05-23 09:25:35</time>
      </trkpt>
      <trkpt lat="42.15495" lon="0.80617">
        <ele>990</ele>
        <time>2022-05-23 09:25:36</time>
      </trkpt>
      <trkpt lat="42.15496" lon="0.80613">
        <ele>990.2</ele>
        <time>2022-05-23 09:25:37</time>
      </trkpt>
      <trkpt lat="42.15496" lon="0.8061">
        <ele>990.2</ele>
        <time>2022-05-23 09:25:38</time>
      </trkpt>
      <trkpt lat="42.15496" lon="0.80608">
        <ele>990.4</ele>
        <time>2022-05-23 09:25:39</time>
      </trkpt>
      <trkpt lat="42.15496" lon="0.80605">
        <ele>990.4</ele>
        <time>2022-05-23 09:25:40</time>
      </trkpt>
      <trkpt lat="42.15496" lon="0.80603">
        <ele>990.6</ele>
        <time>2022-05-23 09:25:41</time>
      </trkpt>
      <trkpt lat="42.15496" lon="0.806">
        <ele>990.8</ele>
        <time>2022-05-23 09:25:42</time>
      </trkpt>
      <trkpt lat="42.15496" lon="0.80598">
        <ele>990.8</ele>
        <time>2022-05-23 09:25:43</time>
      </trkpt>
      <trkpt lat="42.15496" lon="0.80595">
        <ele>991</ele>
        <time>2022-05-23 09:25:44</time>
      </trkpt>
      <trkpt lat="42.15497" lon="0.80593">
        <ele>991</ele>
        <time>2022-05-23 09:25:45</time>
      </trkpt>
      <trkpt lat="42.15498" lon="0.80591">
        <ele>991.2</ele>
        <time>2022-05-23 09:25:46</time>
      </trkpt>
      <trkpt lat="42.15498" lon="0.80588">
        <ele>991.4</ele>
        <time>2022-05-23 09:25:47</time>
      </trkpt>
      <trkpt lat="42.15498" lon="0.80585">
        <ele>991.4</ele>
        <time>2022-05-23 09:25:48</time>
      </trkpt>
      <trkpt lat="42.155" lon="0.80582">
        <ele>991.6</ele>
        <time>2022-05-23 09:25:49</time>
      </trkpt>
      <trkpt lat="42.15501" lon="0.80579">
        <ele>991.8</ele>
        <time>2022-05-23 09:25:50</time>
      </trkpt>
      <trkpt lat="42.15502" lon="0.80576">
        <ele>992</ele>
        <time>2022-05-23 09:25:51</time>
      </trkpt>
      <trkpt lat="42.15502" lon="0.80575">
        <ele>992.2</ele>
        <time>2022-05-23 09:25:52</time>
      </trkpt>
      <trkpt lat="42.15501" lon="0.80572">
        <ele>992.2</ele>
        <time>2022-05-23 09:25:53</time>
      </trkpt>
      <trkpt lat="42.15501" lon="0.8057">
        <ele>992.4</ele>
        <time>2022-05-23 09:25:54</time>
      </trkpt>
      <trkpt lat="42.155" lon="0.80567">
        <ele>992.6</ele>
        <time>2022-05-23 09:25:55</time>
      </trkpt>
      <trkpt lat="42.15499" lon="0.80564">
        <ele>992.8</ele>
        <time>2022-05-23 09:25:56</time>
      </trkpt>
      <trkpt lat="42.15499" lon="0.80561">
        <ele>992.8</ele>
        <time>2022-05-23 09:25:57</time>
      </trkpt>
      <trkpt lat="42.15498" lon="0.80559">
        <ele>993</ele>
        <time>2022-05-23 09:25:58</time>
      </trkpt>
      <trkpt lat="42.15498" lon="0.80556">
        <ele>993.2</ele>
        <time>2022-05-23 09:25:59</time>
      </trkpt>
      <trkpt lat="42.15497" lon="0.80554">
        <ele>993.4</ele>
        <time>2022-05-23 09:26:00</time>
      </trkpt>
      <trkpt lat="42.15496" lon="0.80551">
        <ele>993.6</ele>
        <time>2022-05-23 09:26:01</time>
      </trkpt>
      <trkpt lat="42.15495" lon="0.80549">
        <ele>993.6</ele>
        <time>2022-05-23 09:26:02</time>
      </trkpt>
      <trkpt lat="42.15494" lon="0.80547">
        <ele>993.8</ele>
        <time>2022-05-23 09:26:03</time>
      </trkpt>
      <trkpt lat="42.15493" lon="0.80545">
        <ele>994</ele>
        <time>2022-05-23 09:26:04</time>
      </trkpt>
      <trkpt lat="42.15493" lon="0.80542">
        <ele>994</ele>
        <time>2022-05-23 09:26:05</time>
      </trkpt>
      <trkpt lat="42.15492" lon="0.8054">
        <ele>994.2</ele>
        <time>2022-05-23 09:26:06</time>
      </trkpt>
      <trkpt lat="42.15491" lon="0.80538">
        <ele>994.2</ele>
        <time>2022-05-23 09:26:07</time>
      </trkpt>
      <trkpt lat="42.1549" lon="0.80535">
        <ele>994.4</ele>
        <time>2022-05-23 09:26:08</time>
      </trkpt>
      <trkpt lat="42.15489" lon="0.80533">
        <ele>994.6</ele>
        <time>2022-05-23 09:26:09</time>
      </trkpt>
      <trkpt lat="42.15489" lon="0.80531">
        <ele>994.6</ele>
        <time>2022-05-23 09:26:10</time>
      </trkpt>
      <trkpt lat="42.15488" lon="0.80528">
        <ele>994.8</ele>
        <time>2022-05-23 09:26:11</time>
      </trkpt>
      <trkpt lat="42.15487" lon="0.80526">
        <ele>995</ele>
        <time>2022-05-23 09:26:12</time>
      </trkpt>
      <trkpt lat="42.15486" lon="0.80524">
        <ele>995.2</ele>
        <time>2022-05-23 09:26:13</time>
      </trkpt>
      <trkpt lat="42.15485" lon="0.80521">
        <ele>995.2</ele>
        <time>2022-05-23 09:26:14</time>
      </trkpt>
      <trkpt lat="42.15485" lon="0.80519">
        <ele>995.4</ele>
        <time>2022-05-23 09:26:15</time>
      </trkpt>
      <trkpt lat="42.15484" lon="0.80517">
        <ele>995.6</ele>
        <time>2022-05-23 09:26:16</time>
      </trkpt>
      <trkpt lat="42.15483" lon="0.80514">
        <ele>995.6</ele>
        <time>2022-05-23 09:26:17</time>
      </trkpt>
      <trkpt lat="42.15482" lon="0.80512">
        <ele>995.8</ele>
        <time>2022-05-23 09:26:18</time>
      </trkpt>
      <trkpt lat="42.15482" lon="0.80509">
        <ele>995.8</ele>
        <time>2022-05-23 09:26:19</time>
      </trkpt>
      <trkpt lat="42.15481" lon="0.80507">
        <ele>996</ele>
        <time>2022-05-23 09:26:20</time>
      </trkpt>
      <trkpt lat="42.1548" lon="0.80504">
        <ele>996.2</ele>
        <time>2022-05-23 09:26:21</time>
      </trkpt>
      <trkpt lat="42.1548" lon="0.80502">
        <ele>996.2</ele>
        <time>2022-05-23 09:26:22</time>
      </trkpt>
      <trkpt lat="42.15479" lon="0.805">
        <ele>996.4</ele>
        <time>2022-05-23 09:26:23</time>
      </trkpt>
      <trkpt lat="42.15478" lon="0.80497">
        <ele>996.6</ele>
        <time>2022-05-23 09:26:24</time>
      </trkpt>
      <trkpt lat="42.15478" lon="0.80495">
        <ele>996.6</ele>
        <time>2022-05-23 09:26:25</time>
      </trkpt>
      <trkpt lat="42.15477" lon="0.80493">
        <ele>996.8</ele>
        <time>2022-05-23 09:26:26</time>
      </trkpt>
      <trkpt lat="42.15476" lon="0.8049">
        <ele>997</ele>
        <time>2022-05-23 09:26:27</time>
      </trkpt>
      <trkpt lat="42.15475" lon="0.80488">
        <ele>997</ele>
        <time>2022-05-23 09:26:28</time>
      </trkpt>
      <trkpt lat="42.15475" lon="0.80485">
        <ele>997.2</ele>
        <time>2022-05-23 09:26:29</time>
      </trkpt>
      <trkpt lat="42.15474" lon="0.80483">
        <ele>997.2</ele>
        <time>2022-05-23 09:26:30</time>
      </trkpt>
      <trkpt lat="42.15473" lon="0.80481">
        <ele>997.4</ele>
        <time>2022-05-23 09:26:31</time>
      </trkpt>
      <trkpt lat="42.15472" lon="0.80478">
        <ele>997.6</ele>
        <time>2022-05-23 09:26:32</time>
      </trkpt>
      <trkpt lat="42.15472" lon="0.80476">
        <ele>997.6</ele>
        <time>2022-05-23 09:26:33</time>
      </trkpt>
      <trkpt lat="42.1547" lon="0.80474">
        <ele>997.8</ele>
        <time>2022-05-23 09:26:34</time>
      </trkpt>
      <trkpt lat="42.1547" lon="0.80471">
        <ele>998</ele>
        <time>2022-05-23 09:26:35</time>
      </trkpt>
      <trkpt lat="42.15469" lon="0.80469">
        <ele>998.2</ele>
        <time>2022-05-23 09:26:36</time>
      </trkpt>
      <trkpt lat="42.15469" lon="0.80466">
        <ele>998.2</ele>
        <time>2022-05-23 09:26:37</time>
      </trkpt>
      <trkpt lat="42.15468" lon="0.80464">
        <ele>998.4</ele>
        <time>2022-05-23 09:26:38</time>
      </trkpt>
      <trkpt lat="42.15468" lon="0.80461">
        <ele>998.6</ele>
        <time>2022-05-23 09:26:39</time>
      </trkpt>
      <trkpt lat="42.15468" lon="0.80459">
        <ele>998.6</ele>
        <time>2022-05-23 09:26:40</time>
      </trkpt>
      <trkpt lat="42.15468" lon="0.80456">
        <ele>998.8</ele>
        <time>2022-05-23 09:26:41</time>
      </trkpt>
      <trkpt lat="42.15468" lon="0.80453">
        <ele>999</ele>
        <time>2022-05-23 09:26:42</time>
      </trkpt>
      <trkpt lat="42.15468" lon="0.8045">
        <ele>999</ele>
        <time>2022-05-23 09:26:43</time>
      </trkpt>
      <trkpt lat="42.15468" lon="0.80448">
        <ele>999.2</ele>
        <time>2022-05-23 09:26:44</time>
      </trkpt>
      <trkpt lat="42.15468" lon="0.80445">
        <ele>999.4</ele>
        <time>2022-05-23 09:26:45</time>
      </trkpt>
      <trkpt lat="42.15469" lon="0.80443">
        <ele>999.4</ele>
        <time>2022-05-23 09:26:46</time>
      </trkpt>
      <trkpt lat="42.15469" lon="0.80441">
        <ele>999.6</ele>
        <time>2022-05-23 09:26:47</time>
      </trkpt>
      <trkpt lat="42.15469" lon="0.80438">
        <ele>999.8</ele>
        <time>2022-05-23 09:26:48</time>
      </trkpt>
      <trkpt lat="42.1547" lon="0.80436">
        <ele>1000</ele>
        <time>2022-05-23 09:26:49</time>
      </trkpt>
      <trkpt lat="42.15471" lon="0.80433">
        <ele>1000</ele>
        <time>2022-05-23 09:26:50</time>
      </trkpt>
      <trkpt lat="42.15471" lon="0.80431">
        <ele>1000.2</ele>
        <time>2022-05-23 09:26:51</time>
      </trkpt>
      <trkpt lat="42.15472" lon="0.80429">
        <ele>1000.4</ele>
        <time>2022-05-23 09:26:52</time>
      </trkpt>
      <trkpt lat="42.15473" lon="0.80427">
        <ele>1000.4</ele>
        <time>2022-05-23 09:26:53</time>
      </trkpt>
      <trkpt lat="42.15474" lon="0.80425">
        <ele>1000.6</ele>
        <time>2022-05-23 09:26:54</time>
      </trkpt>
      <trkpt lat="42.15474" lon="0.80423">
        <ele>1000.8</ele>
        <time>2022-05-23 09:26:55</time>
      </trkpt>
      <trkpt lat="42.15475" lon="0.80421">
        <ele>1001</ele>
        <time>2022-05-23 09:26:56</time>
      </trkpt>
      <trkpt lat="42.15476" lon="0.80419">
        <ele>1001.2</ele>
        <time>2022-05-23 09:26:57</time>
      </trkpt>
      <trkpt lat="42.15477" lon="0.80418">
        <ele>1001.4</ele>
        <time>2022-05-23 09:26:58</time>
      </trkpt>
      <trkpt lat="42.15478" lon="0.80417">
        <ele>1001.4</ele>
        <time>2022-05-23 09:26:59</time>
      </trkpt>
      <trkpt lat="42.1548" lon="0.80416">
        <ele>1001.6</ele>
        <time>2022-05-23 09:27:00</time>
      </trkpt>
      <trkpt lat="42.15481" lon="0.80415">
        <ele>1001.8</ele>
        <time>2022-05-23 09:27:01</time>
      </trkpt>
      <trkpt lat="42.15483" lon="0.80413">
        <ele>1002</ele>
        <time>2022-05-23 09:27:02</time>
      </trkpt>
      <trkpt lat="42.15484" lon="0.80413">
        <ele>1002.2</ele>
        <time>2022-05-23 09:27:03</time>
      </trkpt>
      <trkpt lat="42.15486" lon="0.80412">
        <ele>1002.2</ele>
        <time>2022-05-23 09:27:04</time>
      </trkpt>
      <trkpt lat="42.15487" lon="0.8041">
        <ele>1002.4</ele>
        <time>2022-05-23 09:27:05</time>
      </trkpt>
      <trkpt lat="42.15489" lon="0.80409">
        <ele>1002.6</ele>
        <time>2022-05-23 09:27:06</time>
      </trkpt>
      <trkpt lat="42.1549" lon="0.80408">
        <ele>1002.8</ele>
        <time>2022-05-23 09:27:07</time>
      </trkpt>
      <trkpt lat="42.15492" lon="0.80406">
        <ele>1003</ele>
        <time>2022-05-23 09:27:08</time>
      </trkpt>
      <trkpt lat="42.15494" lon="0.80406">
        <ele>1003</ele>
        <time>2022-05-23 09:27:09</time>
      </trkpt>
      <trkpt lat="42.15496" lon="0.80405">
        <ele>1003.2</ele>
        <time>2022-05-23 09:27:10</time>
      </trkpt>
      <trkpt lat="42.15498" lon="0.80404">
        <ele>1003.4</ele>
        <time>2022-05-23 09:27:11</time>
      </trkpt>
      <trkpt lat="42.15499" lon="0.80403">
        <ele>1003.6</ele>
        <time>2022-05-23 09:27:12</time>
      </trkpt>
      <trkpt lat="42.15501" lon="0.80402">
        <ele>1003.6</ele>
        <time>2022-05-23 09:27:13</time>
      </trkpt>
      <trkpt lat="42.15503" lon="0.80401">
        <ele>1003.8</ele>
        <time>2022-05-23 09:27:14</time>
      </trkpt>
      <trkpt lat="42.15505" lon="0.80401">
        <ele>1004</ele>
        <time>2022-05-23 09:27:15</time>
      </trkpt>
      <trkpt lat="42.15506" lon="0.804">
        <ele>1004.2</ele>
        <time>2022-05-23 09:27:16</time>
      </trkpt>
      <trkpt lat="42.15508" lon="0.804">
        <ele>1004.2</ele>
        <time>2022-05-23 09:27:17</time>
      </trkpt>
      <trkpt lat="42.1551" lon="0.80399">
        <ele>1004.4</ele>
        <time>2022-05-23 09:27:18</time>
      </trkpt>
      <trkpt lat="42.15512" lon="0.80399">
        <ele>1004.6</ele>
        <time>2022-05-23 09:27:19</time>
      </trkpt>
      <trkpt lat="42.15514" lon="0.80398">
        <ele>1004.8</ele>
        <time>2022-05-23 09:27:20</time>
      </trkpt>
      <trkpt lat="42.15516" lon="0.80397">
        <ele>1005</ele>
        <time>2022-05-23 09:27:21</time>
      </trkpt>
      <trkpt lat="42.15517" lon="0.80396">
        <ele>1005.2</ele>
        <time>2022-05-23 09:27:22</time>
      </trkpt>
      <trkpt lat="42.15519" lon="0.80396">
        <ele>1005.4</ele>
        <time>2022-05-23 09:27:23</time>
      </trkpt>
      <trkpt lat="42.15521" lon="0.80395">
        <ele>1005.6</ele>
        <time>2022-05-23 09:27:24</time>
      </trkpt>
      <trkpt lat="42.15522" lon="0.80394">
        <ele>1005.8</ele>
        <time>2022-05-23 09:27:25</time>
      </trkpt>
      <trkpt lat="42.15524" lon="0.80394">
        <ele>1006</ele>
        <time>2022-05-23 09:27:26</time>
      </trkpt>
      <trkpt lat="42.15526" lon="0.80393">
        <ele>1006.2</ele>
        <time>2022-05-23 09:27:27</time>
      </trkpt>
      <trkpt lat="42.15527" lon="0.80392">
        <ele>1006.6</ele>
        <time>2022-05-23 09:27:28</time>
      </trkpt>
      <trkpt lat="42.15529" lon="0.80391">
        <ele>1006.8</ele>
        <time>2022-05-23 09:27:29</time>
      </trkpt>
      <trkpt lat="42.15531" lon="0.80391">
        <ele>1007</ele>
        <time>2022-05-23 09:27:30</time>
      </trkpt>
      <trkpt lat="42.15533" lon="0.8039">
        <ele>1007.2</ele>
        <time>2022-05-23 09:27:31</time>
      </trkpt>
      <trkpt lat="42.15535" lon="0.8039">
        <ele>1007.6</ele>
        <time>2022-05-23 09:27:32</time>
      </trkpt>
      <trkpt lat="42.15537" lon="0.80389">
        <ele>1007.8</ele>
        <time>2022-05-23 09:27:33</time>
      </trkpt>
      <trkpt lat="42.15538" lon="0.80388">
        <ele>1007.8</ele>
        <time>2022-05-23 09:27:34</time>
      </trkpt>
      <trkpt lat="42.1554" lon="0.80388">
        <ele>1008</ele>
        <time>2022-05-23 09:27:35</time>
      </trkpt>
      <trkpt lat="42.15542" lon="0.80387">
        <ele>1008.2</ele>
        <time>2022-05-23 09:27:36</time>
      </trkpt>
      <trkpt lat="42.15543" lon="0.80386">
        <ele>1008.4</ele>
        <time>2022-05-23 09:27:37</time>
      </trkpt>
      <trkpt lat="42.15545" lon="0.80385">
        <ele>1008.6</ele>
        <time>2022-05-23 09:27:38</time>
      </trkpt>
      <trkpt lat="42.15547" lon="0.80384">
        <ele>1008.8</ele>
        <time>2022-05-23 09:27:39</time>
      </trkpt>
      <trkpt lat="42.15548" lon="0.80383">
        <ele>1008.8</ele>
        <time>2022-05-23 09:27:40</time>
      </trkpt>
      <trkpt lat="42.1555" lon="0.80382">
        <ele>1009</ele>
        <time>2022-05-23 09:27:41</time>
      </trkpt>
      <trkpt lat="42.15551" lon="0.8038">
        <ele>1009</ele>
        <time>2022-05-23 09:27:42</time>
      </trkpt>
      <trkpt lat="42.15553" lon="0.80378">
        <ele>1009</ele>
        <time>2022-05-23 09:27:43</time>
      </trkpt>
      <trkpt lat="42.15554" lon="0.80376">
        <ele>1009.2</ele>
        <time>2022-05-23 09:27:44</time>
      </trkpt>
      <trkpt lat="42.15555" lon="0.80374">
        <ele>1009.2</ele>
        <time>2022-05-23 09:27:45</time>
      </trkpt>
      <trkpt lat="42.15556" lon="0.80372">
        <ele>1009.4</ele>
        <time>2022-05-23 09:27:46</time>
      </trkpt>
      <trkpt lat="42.15557" lon="0.8037">
        <ele>1009.4</ele>
        <time>2022-05-23 09:27:47</time>
      </trkpt>
      <trkpt lat="42.15558" lon="0.80367">
        <ele>1009.6</ele>
        <time>2022-05-23 09:27:48</time>
      </trkpt>
      <trkpt lat="42.15558" lon="0.80365">
        <ele>1009.8</ele>
        <time>2022-05-23 09:27:49</time>
      </trkpt>
      <trkpt lat="42.15559" lon="0.80362">
        <ele>1009.8</ele>
        <time>2022-05-23 09:27:50</time>
      </trkpt>
      <trkpt lat="42.15559" lon="0.80359">
        <ele>1009.8</ele>
        <time>2022-05-23 09:27:51</time>
      </trkpt>
      <trkpt lat="42.15559" lon="0.80356">
        <ele>1010</ele>
        <time>2022-05-23 09:27:52</time>
      </trkpt>
      <trkpt lat="42.15559" lon="0.80353">
        <ele>1010.2</ele>
        <time>2022-05-23 09:27:53</time>
      </trkpt>
      <trkpt lat="42.15559" lon="0.8035">
        <ele>1010.2</ele>
        <time>2022-05-23 09:27:54</time>
      </trkpt>
      <trkpt lat="42.15559" lon="0.80347">
        <ele>1010.4</ele>
        <time>2022-05-23 09:27:55</time>
      </trkpt>
      <trkpt lat="42.15559" lon="0.80344">
        <ele>1010.6</ele>
        <time>2022-05-23 09:27:56</time>
      </trkpt>
      <trkpt lat="42.15558" lon="0.80341">
        <ele>1010.8</ele>
        <time>2022-05-23 09:27:57</time>
      </trkpt>
      <trkpt lat="42.15557" lon="0.80339">
        <ele>1010.8</ele>
        <time>2022-05-23 09:27:58</time>
      </trkpt>
      <trkpt lat="42.15556" lon="0.80335">
        <ele>1011</ele>
        <time>2022-05-23 09:27:59</time>
      </trkpt>
      <trkpt lat="42.15555" lon="0.80332">
        <ele>1011.2</ele>
        <time>2022-05-23 09:28:00</time>
      </trkpt>
      <trkpt lat="42.15554" lon="0.80329">
        <ele>1011.4</ele>
        <time>2022-05-23 09:28:01</time>
      </trkpt>
      <trkpt lat="42.15553" lon="0.80326">
        <ele>1011.4</ele>
        <time>2022-05-23 09:28:02</time>
      </trkpt>
      <trkpt lat="42.15551" lon="0.80323">
        <ele>1011.6</ele>
        <time>2022-05-23 09:28:03</time>
      </trkpt>
      <trkpt lat="42.15549" lon="0.8032">
        <ele>1011.8</ele>
        <time>2022-05-23 09:28:04</time>
      </trkpt>
      <trkpt lat="42.15547" lon="0.80317">
        <ele>1011.8</ele>
        <time>2022-05-23 09:28:05</time>
      </trkpt>
      <trkpt lat="42.15546" lon="0.80315">
        <ele>1011.8</ele>
        <time>2022-05-23 09:28:06</time>
      </trkpt>
      <trkpt lat="42.15545" lon="0.80312">
        <ele>1011.8</ele>
        <time>2022-05-23 09:28:07</time>
      </trkpt>
      <trkpt lat="42.15543" lon="0.80308">
        <ele>1012</ele>
        <time>2022-05-23 09:28:08</time>
      </trkpt>
      <trkpt lat="42.15541" lon="0.80305">
        <ele>1012</ele>
        <time>2022-05-23 09:28:09</time>
      </trkpt>
      <trkpt lat="42.1554" lon="0.80303">
        <ele>1012.2</ele>
        <time>2022-05-23 09:28:10</time>
      </trkpt>
      <trkpt lat="42.15539" lon="0.803">
        <ele>1012.2</ele>
        <time>2022-05-23 09:28:11</time>
      </trkpt>
      <trkpt lat="42.15537" lon="0.80297">
        <ele>1012.2</ele>
        <time>2022-05-23 09:28:12</time>
      </trkpt>
      <trkpt lat="42.15536" lon="0.80294">
        <ele>1012.2</ele>
        <time>2022-05-23 09:28:13</time>
      </trkpt>
      <trkpt lat="42.15534" lon="0.80291">
        <ele>1012.2</ele>
        <time>2022-05-23 09:28:14</time>
      </trkpt>
      <trkpt lat="42.15533" lon="0.80289">
        <ele>1012.2</ele>
        <time>2022-05-23 09:28:15</time>
      </trkpt>
      <trkpt lat="42.15531" lon="0.80286">
        <ele>1012.2</ele>
        <time>2022-05-23 09:28:16</time>
      </trkpt>
      <trkpt lat="42.1553" lon="0.80283">
        <ele>1012.4</ele>
        <time>2022-05-23 09:28:17</time>
      </trkpt>
      <trkpt lat="42.15529" lon="0.8028">
        <ele>1012.4</ele>
        <time>2022-05-23 09:28:18</time>
      </trkpt>
      <trkpt lat="42.15528" lon="0.80277">
        <ele>1012.6</ele>
        <time>2022-05-23 09:28:19</time>
      </trkpt>
      <trkpt lat="42.15526" lon="0.80275">
        <ele>1012.6</ele>
        <time>2022-05-23 09:28:20</time>
      </trkpt>
      <trkpt lat="42.15525" lon="0.80272">
        <ele>1012.8</ele>
        <time>2022-05-23 09:28:21</time>
      </trkpt>
      <trkpt lat="42.15523" lon="0.8027">
        <ele>1012.8</ele>
        <time>2022-05-23 09:28:22</time>
      </trkpt>
      <trkpt lat="42.15522" lon="0.80267">
        <ele>1012.8</ele>
        <time>2022-05-23 09:28:23</time>
      </trkpt>
      <trkpt lat="42.1552" lon="0.80264">
        <ele>1013</ele>
        <time>2022-05-23 09:28:24</time>
      </trkpt>
      <trkpt lat="42.15519" lon="0.80262">
        <ele>1013</ele>
        <time>2022-05-23 09:28:25</time>
      </trkpt>
      <trkpt lat="42.15517" lon="0.8026">
        <ele>1013.2</ele>
        <time>2022-05-23 09:28:26</time>
      </trkpt>
      <trkpt lat="42.15516" lon="0.80257">
        <ele>1013.2</ele>
        <time>2022-05-23 09:28:27</time>
      </trkpt>
      <trkpt lat="42.15514" lon="0.80254">
        <ele>1013.4</ele>
        <time>2022-05-23 09:28:28</time>
      </trkpt>
      <trkpt lat="42.15513" lon="0.80251">
        <ele>1013.6</ele>
        <time>2022-05-23 09:28:29</time>
      </trkpt>
      <trkpt lat="42.15511" lon="0.80248">
        <ele>1013.8</ele>
        <time>2022-05-23 09:28:30</time>
      </trkpt>
      <trkpt lat="42.1551" lon="0.80245">
        <ele>1013.8</ele>
        <time>2022-05-23 09:28:31</time>
      </trkpt>
      <trkpt lat="42.15508" lon="0.80242">
        <ele>1014</ele>
        <time>2022-05-23 09:28:32</time>
      </trkpt>
      <trkpt lat="42.15506" lon="0.80239">
        <ele>1014.2</ele>
        <time>2022-05-23 09:28:33</time>
      </trkpt>
      <trkpt lat="42.15505" lon="0.80235">
        <ele>1014.4</ele>
        <time>2022-05-23 09:28:34</time>
      </trkpt>
      <trkpt lat="42.15503" lon="0.80232">
        <ele>1014.4</ele>
        <time>2022-05-23 09:28:35</time>
      </trkpt>
      <trkpt lat="42.15501" lon="0.8023">
        <ele>1014.6</ele>
        <time>2022-05-23 09:28:36</time>
      </trkpt>
      <trkpt lat="42.155" lon="0.80226">
        <ele>1014.8</ele>
        <time>2022-05-23 09:28:37</time>
      </trkpt>
      <trkpt lat="42.15498" lon="0.80223">
        <ele>1015</ele>
        <time>2022-05-23 09:28:38</time>
      </trkpt>
      <trkpt lat="42.15497" lon="0.8022">
        <ele>1015.2</ele>
        <time>2022-05-23 09:28:39</time>
      </trkpt>
      <trkpt lat="42.15496" lon="0.80217">
        <ele>1015.2</ele>
        <time>2022-05-23 09:28:40</time>
      </trkpt>
      <trkpt lat="42.15494" lon="0.80214">
        <ele>1015.4</ele>
        <time>2022-05-23 09:28:41</time>
      </trkpt>
      <trkpt lat="42.15493" lon="0.80211">
        <ele>1015.6</ele>
        <time>2022-05-23 09:28:42</time>
      </trkpt>
      <trkpt lat="42.15491" lon="0.80207">
        <ele>1015.8</ele>
        <time>2022-05-23 09:28:43</time>
      </trkpt>
      <trkpt lat="42.1549" lon="0.80205">
        <ele>1016</ele>
        <time>2022-05-23 09:28:44</time>
      </trkpt>
      <trkpt lat="42.15488" lon="0.80201">
        <ele>1016</ele>
        <time>2022-05-23 09:28:45</time>
      </trkpt>
      <trkpt lat="42.15487" lon="0.80198">
        <ele>1016.2</ele>
        <time>2022-05-23 09:28:46</time>
      </trkpt>
      <trkpt lat="42.15486" lon="0.80195">
        <ele>1016.4</ele>
        <time>2022-05-23 09:28:47</time>
      </trkpt>
      <trkpt lat="42.15485" lon="0.80192">
        <ele>1016.6</ele>
        <time>2022-05-23 09:28:48</time>
      </trkpt>
      <trkpt lat="42.15484" lon="0.80188">
        <ele>1016.6</ele>
        <time>2022-05-23 09:28:49</time>
      </trkpt>
      <trkpt lat="42.15483" lon="0.80185">
        <ele>1016.8</ele>
        <time>2022-05-23 09:28:50</time>
      </trkpt>
      <trkpt lat="42.15482" lon="0.80181">
        <ele>1016.8</ele>
        <time>2022-05-23 09:28:51</time>
      </trkpt>
      <trkpt lat="42.15482" lon="0.80178">
        <ele>1017</ele>
        <time>2022-05-23 09:28:52</time>
      </trkpt>
      <trkpt lat="42.15481" lon="0.80174">
        <ele>1017.2</ele>
        <time>2022-05-23 09:28:53</time>
      </trkpt>
      <trkpt lat="42.1548" lon="0.80171">
        <ele>1017.2</ele>
        <time>2022-05-23 09:28:54</time>
      </trkpt>
      <trkpt lat="42.15479" lon="0.80168">
        <ele>1017.4</ele>
        <time>2022-05-23 09:28:55</time>
      </trkpt>
      <trkpt lat="42.15479" lon="0.80163">
        <ele>1017.6</ele>
        <time>2022-05-23 09:28:56</time>
      </trkpt>
      <trkpt lat="42.15479" lon="0.8016">
        <ele>1017.8</ele>
        <time>2022-05-23 09:28:57</time>
      </trkpt>
      <trkpt lat="42.15478" lon="0.80156">
        <ele>1017.8</ele>
        <time>2022-05-23 09:28:58</time>
      </trkpt>
      <trkpt lat="42.15478" lon="0.80153">
        <ele>1018</ele>
        <time>2022-05-23 09:28:59</time>
      </trkpt>
      <trkpt lat="42.15477" lon="0.8015">
        <ele>1018.2</ele>
        <time>2022-05-23 09:29:00</time>
      </trkpt>
      <trkpt lat="42.15477" lon="0.80146">
        <ele>1018.2</ele>
        <time>2022-05-23 09:29:01</time>
      </trkpt>
      <trkpt lat="42.15477" lon="0.80142">
        <ele>1018.4</ele>
        <time>2022-05-23 09:29:02</time>
      </trkpt>
      <trkpt lat="42.15476" lon="0.80138">
        <ele>1018.6</ele>
        <time>2022-05-23 09:29:03</time>
      </trkpt>
      <trkpt lat="42.15476" lon="0.80135">
        <ele>1018.8</ele>
        <time>2022-05-23 09:29:04</time>
      </trkpt>
      <trkpt lat="42.15476" lon="0.80132">
        <ele>1019</ele>
        <time>2022-05-23 09:29:05</time>
      </trkpt>
      <trkpt lat="42.15475" lon="0.80128">
        <ele>1019.2</ele>
        <time>2022-05-23 09:29:06</time>
      </trkpt>
      <trkpt lat="42.15475" lon="0.80125">
        <ele>1019.4</ele>
        <time>2022-05-23 09:29:07</time>
      </trkpt>
      <trkpt lat="42.15476" lon="0.80122">
        <ele>1019.6</ele>
        <time>2022-05-23 09:29:08</time>
      </trkpt>
      <trkpt lat="42.15476" lon="0.80119">
        <ele>1019.8</ele>
        <time>2022-05-23 09:29:09</time>
      </trkpt>
      <trkpt lat="42.15476" lon="0.80115">
        <ele>1020</ele>
        <time>2022-05-23 09:29:10</time>
      </trkpt>
      <trkpt lat="42.15476" lon="0.80112">
        <ele>1020.2</ele>
        <time>2022-05-23 09:29:11</time>
      </trkpt>
      <trkpt lat="42.15475" lon="0.80109">
        <ele>1020.4</ele>
        <time>2022-05-23 09:29:12</time>
      </trkpt>
      <trkpt lat="42.15475" lon="0.80105">
        <ele>1020.6</ele>
        <time>2022-05-23 09:29:13</time>
      </trkpt>
      <trkpt lat="42.15475" lon="0.80102">
        <ele>1020.8</ele>
        <time>2022-05-23 09:29:14</time>
      </trkpt>
      <trkpt lat="42.15476" lon="0.80098">
        <ele>1021</ele>
        <time>2022-05-23 09:29:15</time>
      </trkpt>
      <trkpt lat="42.15476" lon="0.80095">
        <ele>1021.2</ele>
        <time>2022-05-23 09:29:16</time>
      </trkpt>
      <trkpt lat="42.15476" lon="0.80092">
        <ele>1021.4</ele>
        <time>2022-05-23 09:29:17</time>
      </trkpt>
      <trkpt lat="42.15476" lon="0.80088">
        <ele>1021.6</ele>
        <time>2022-05-23 09:29:18</time>
      </trkpt>
      <trkpt lat="42.15476" lon="0.80085">
        <ele>1021.6</ele>
        <time>2022-05-23 09:29:19</time>
      </trkpt>
      <trkpt lat="42.15476" lon="0.80081">
        <ele>1021.8</ele>
        <time>2022-05-23 09:29:20</time>
      </trkpt>
      <trkpt lat="42.15477" lon="0.80078">
        <ele>1022</ele>
        <time>2022-05-23 09:29:21</time>
      </trkpt>
      <trkpt lat="42.15477" lon="0.80075">
        <ele>1022.2</ele>
        <time>2022-05-23 09:29:22</time>
      </trkpt>
      <trkpt lat="42.15477" lon="0.80071">
        <ele>1022.2</ele>
        <time>2022-05-23 09:29:23</time>
      </trkpt>
      <trkpt lat="42.15478" lon="0.80068">
        <ele>1022.4</ele>
        <time>2022-05-23 09:29:24</time>
      </trkpt>
      <trkpt lat="42.15479" lon="0.80065">
        <ele>1022.6</ele>
        <time>2022-05-23 09:29:25</time>
      </trkpt>
      <trkpt lat="42.15479" lon="0.80062">
        <ele>1022.8</ele>
        <time>2022-05-23 09:29:26</time>
      </trkpt>
      <trkpt lat="42.1548" lon="0.80059">
        <ele>1023</ele>
        <time>2022-05-23 09:29:27</time>
      </trkpt>
      <trkpt lat="42.1548" lon="0.80055">
        <ele>1023</ele>
        <time>2022-05-23 09:29:28</time>
      </trkpt>
      <trkpt lat="42.15481" lon="0.80052">
        <ele>1023.2</ele>
        <time>2022-05-23 09:29:29</time>
      </trkpt>
      <trkpt lat="42.15482" lon="0.80049">
        <ele>1023.4</ele>
        <time>2022-05-23 09:29:30</time>
      </trkpt>
      <trkpt lat="42.15483" lon="0.80047">
        <ele>1023.6</ele>
        <time>2022-05-23 09:29:31</time>
      </trkpt>
      <trkpt lat="42.15484" lon="0.80044">
        <ele>1023.8</ele>
        <time>2022-05-23 09:29:32</time>
      </trkpt>
      <trkpt lat="42.15485" lon="0.8004">
        <ele>1024</ele>
        <time>2022-05-23 09:29:33</time>
      </trkpt>
      <trkpt lat="42.15485" lon="0.80037">
        <ele>1024.2</ele>
        <time>2022-05-23 09:29:34</time>
      </trkpt>
      <trkpt lat="42.15486" lon="0.80034">
        <ele>1024.4</ele>
        <time>2022-05-23 09:29:35</time>
      </trkpt>
      <trkpt lat="42.15487" lon="0.80031">
        <ele>1024.6</ele>
        <time>2022-05-23 09:29:36</time>
      </trkpt>
      <trkpt lat="42.15488" lon="0.80028">
        <ele>1024.8</ele>
        <time>2022-05-23 09:29:37</time>
      </trkpt>
      <trkpt lat="42.15489" lon="0.80025">
        <ele>1025</ele>
        <time>2022-05-23 09:29:38</time>
      </trkpt>
      <trkpt lat="42.1549" lon="0.80022">
        <ele>1025.2</ele>
        <time>2022-05-23 09:29:39</time>
      </trkpt>
      <trkpt lat="42.15491" lon="0.8002">
        <ele>1025.4</ele>
        <time>2022-05-23 09:29:40</time>
      </trkpt>
      <trkpt lat="42.15492" lon="0.80017">
        <ele>1025.6</ele>
        <time>2022-05-23 09:29:41</time>
      </trkpt>
      <trkpt lat="42.15493" lon="0.80014">
        <ele>1026</ele>
        <time>2022-05-23 09:29:42</time>
      </trkpt>
      <trkpt lat="42.15494" lon="0.80012">
        <ele>1026.2</ele>
        <time>2022-05-23 09:29:43</time>
      </trkpt>
      <trkpt lat="42.15495" lon="0.80009">
        <ele>1026.6</ele>
        <time>2022-05-23 09:29:44</time>
      </trkpt>
      <trkpt lat="42.15497" lon="0.80006">
        <ele>1026.8</ele>
        <time>2022-05-23 09:29:45</time>
      </trkpt>
      <trkpt lat="42.15498" lon="0.80004">
        <ele>1027</ele>
        <time>2022-05-23 09:29:46</time>
      </trkpt>
      <trkpt lat="42.155" lon="0.80002">
        <ele>1027.2</ele>
        <time>2022-05-23 09:29:47</time>
      </trkpt>
      <trkpt lat="42.15501" lon="0.8">
        <ele>1027.4</ele>
        <time>2022-05-23 09:29:48</time>
      </trkpt>
      <trkpt lat="42.15503" lon="0.79998">
        <ele>1027.6</ele>
        <time>2022-05-23 09:29:49</time>
      </trkpt>
      <trkpt lat="42.15505" lon="0.79997">
        <ele>1027.8</ele>
        <time>2022-05-23 09:29:50</time>
      </trkpt>
      <trkpt lat="42.15506" lon="0.79995">
        <ele>1028</ele>
        <time>2022-05-23 09:29:51</time>
      </trkpt>
      <trkpt lat="42.15508" lon="0.79994">
        <ele>1028.2</ele>
        <time>2022-05-23 09:29:52</time>
      </trkpt>
      <trkpt lat="42.1551" lon="0.79993">
        <ele>1028.4</ele>
        <time>2022-05-23 09:29:53</time>
      </trkpt>
      <trkpt lat="42.15512" lon="0.79991">
        <ele>1028.4</ele>
        <time>2022-05-23 09:29:54</time>
      </trkpt>
      <trkpt lat="42.15514" lon="0.7999">
        <ele>1028.6</ele>
        <time>2022-05-23 09:29:55</time>
      </trkpt>
      <trkpt lat="42.15516" lon="0.79989">
        <ele>1028.8</ele>
        <time>2022-05-23 09:29:56</time>
      </trkpt>
      <trkpt lat="42.15518" lon="0.79988">
        <ele>1029</ele>
        <time>2022-05-23 09:29:57</time>
      </trkpt>
      <trkpt lat="42.15521" lon="0.79988">
        <ele>1029.2</ele>
        <time>2022-05-23 09:29:58</time>
      </trkpt>
      <trkpt lat="42.15522" lon="0.79987">
        <ele>1029.4</ele>
        <time>2022-05-23 09:29:59</time>
      </trkpt>
      <trkpt lat="42.15524" lon="0.79986">
        <ele>1029.6</ele>
        <time>2022-05-23 09:30:00</time>
      </trkpt>
      <trkpt lat="42.15526" lon="0.79985">
        <ele>1029.8</ele>
        <time>2022-05-23 09:30:01</time>
      </trkpt>
      <trkpt lat="42.15527" lon="0.79984">
        <ele>1030</ele>
        <time>2022-05-23 09:30:02</time>
      </trkpt>
      <trkpt lat="42.15529" lon="0.79982">
        <ele>1030.2</ele>
        <time>2022-05-23 09:30:03</time>
      </trkpt>
      <trkpt lat="42.15531" lon="0.79981">
        <ele>1030.4</ele>
        <time>2022-05-23 09:30:04</time>
      </trkpt>
      <trkpt lat="42.15533" lon="0.79979">
        <ele>1030.6</ele>
        <time>2022-05-23 09:30:05</time>
      </trkpt>
      <trkpt lat="42.15534" lon="0.79978">
        <ele>1030.8</ele>
        <time>2022-05-23 09:30:06</time>
      </trkpt>
      <trkpt lat="42.15535" lon="0.79976">
        <ele>1031</ele>
        <time>2022-05-23 09:30:07</time>
      </trkpt>
      <trkpt lat="42.15537" lon="0.79974">
        <ele>1031.2</ele>
        <time>2022-05-23 09:30:08</time>
      </trkpt>
      <trkpt lat="42.15538" lon="0.79971">
        <ele>1031.2</ele>
        <time>2022-05-23 09:30:09</time>
      </trkpt>
      <trkpt lat="42.15539" lon="0.79969">
        <ele>1031.4</ele>
        <time>2022-05-23 09:30:10</time>
      </trkpt>
      <trkpt lat="42.15541" lon="0.79967">
        <ele>1031.4</ele>
        <time>2022-05-23 09:30:11</time>
      </trkpt>
      <trkpt lat="42.15542" lon="0.79965">
        <ele>1031.6</ele>
        <time>2022-05-23 09:30:12</time>
      </trkpt>
      <trkpt lat="42.15543" lon="0.79962">
        <ele>1031.8</ele>
        <time>2022-05-23 09:30:13</time>
      </trkpt>
      <trkpt lat="42.15544" lon="0.7996">
        <ele>1031.8</ele>
        <time>2022-05-23 09:30:14</time>
      </trkpt>
      <trkpt lat="42.15545" lon="0.79957">
        <ele>1032</ele>
        <time>2022-05-23 09:30:15</time>
      </trkpt>
      <trkpt lat="42.15546" lon="0.79954">
        <ele>1032</ele>
        <time>2022-05-23 09:30:16</time>
      </trkpt>
      <trkpt lat="42.15547" lon="0.79951">
        <ele>1032.2</ele>
        <time>2022-05-23 09:30:17</time>
      </trkpt>
      <trkpt lat="42.15548" lon="0.79948">
        <ele>1032.4</ele>
        <time>2022-05-23 09:30:18</time>
      </trkpt>
      <trkpt lat="42.15548" lon="0.79945">
        <ele>1032.4</ele>
        <time>2022-05-23 09:30:19</time>
      </trkpt>
      <trkpt lat="42.15549" lon="0.79942">
        <ele>1032.6</ele>
        <time>2022-05-23 09:30:20</time>
      </trkpt>
      <trkpt lat="42.15549" lon="0.79939">
        <ele>1032.6</ele>
        <time>2022-05-23 09:30:21</time>
      </trkpt>
      <trkpt lat="42.1555" lon="0.79935">
        <ele>1032.6</ele>
        <time>2022-05-23 09:30:22</time>
      </trkpt>
      <trkpt lat="42.1555" lon="0.79932">
        <ele>1032.8</ele>
        <time>2022-05-23 09:30:23</time>
      </trkpt>
      <trkpt lat="42.1555" lon="0.79929">
        <ele>1032.8</ele>
        <time>2022-05-23 09:30:24</time>
      </trkpt>
      <trkpt lat="42.1555" lon="0.79926">
        <ele>1033</ele>
        <time>2022-05-23 09:30:25</time>
      </trkpt>
      <trkpt lat="42.1555" lon="0.79923">
        <ele>1033</ele>
        <time>2022-05-23 09:30:26</time>
      </trkpt>
      <trkpt lat="42.15551" lon="0.79919">
        <ele>1033.2</ele>
        <time>2022-05-23 09:30:27</time>
      </trkpt>
      <trkpt lat="42.15551" lon="0.79917">
        <ele>1033.2</ele>
        <time>2022-05-23 09:30:28</time>
      </trkpt>
      <trkpt lat="42.15552" lon="0.79913">
        <ele>1033.6</ele>
        <time>2022-05-23 09:30:29</time>
      </trkpt>
      <trkpt lat="42.15552" lon="0.7991">
        <ele>1033.6</ele>
        <time>2022-05-23 09:30:30</time>
      </trkpt>
      <trkpt lat="42.15553" lon="0.79907">
        <ele>1034</ele>
        <time>2022-05-23 09:30:31</time>
      </trkpt>
      <trkpt lat="42.15554" lon="0.79904">
        <ele>1034.2</ele>
        <time>2022-05-23 09:30:32</time>
      </trkpt>
      <trkpt lat="42.15555" lon="0.79901">
        <ele>1034.4</ele>
        <time>2022-05-23 09:30:33</time>
      </trkpt>
      <trkpt lat="42.15555" lon="0.79899">
        <ele>1034.6</ele>
        <time>2022-05-23 09:30:34</time>
      </trkpt>
      <trkpt lat="42.15556" lon="0.79896">
        <ele>1034.8</ele>
        <time>2022-05-23 09:30:35</time>
      </trkpt>
      <trkpt lat="42.15558" lon="0.79893">
        <ele>1035</ele>
        <time>2022-05-23 09:30:36</time>
      </trkpt>
      <trkpt lat="42.15559" lon="0.79891">
        <ele>1035</ele>
        <time>2022-05-23 09:30:37</time>
      </trkpt>
      <trkpt lat="42.1556" lon="0.79888">
        <ele>1035.2</ele>
        <time>2022-05-23 09:30:38</time>
      </trkpt>
      <trkpt lat="42.15561" lon="0.79886">
        <ele>1035.4</ele>
        <time>2022-05-23 09:30:39</time>
      </trkpt>
      <trkpt lat="42.15562" lon="0.79883">
        <ele>1035.6</ele>
        <time>2022-05-23 09:30:40</time>
      </trkpt>
      <trkpt lat="42.15564" lon="0.79881">
        <ele>1035.6</ele>
        <time>2022-05-23 09:30:41</time>
      </trkpt>
      <trkpt lat="42.15565" lon="0.79879">
        <ele>1035.8</ele>
        <time>2022-05-23 09:30:42</time>
      </trkpt>
      <trkpt lat="42.15567" lon="0.79876">
        <ele>1035.8</ele>
        <time>2022-05-23 09:30:43</time>
      </trkpt>
      <trkpt lat="42.15569" lon="0.79874">
        <ele>1036</ele>
        <time>2022-05-23 09:30:44</time>
      </trkpt>
      <trkpt lat="42.15571" lon="0.79872">
        <ele>1036</ele>
        <time>2022-05-23 09:30:45</time>
      </trkpt>
      <trkpt lat="42.15572" lon="0.7987">
        <ele>1036.2</ele>
        <time>2022-05-23 09:30:46</time>
      </trkpt>
      <trkpt lat="42.15574" lon="0.79868">
        <ele>1036.2</ele>
        <time>2022-05-23 09:30:47</time>
      </trkpt>
      <trkpt lat="42.15576" lon="0.79867">
        <ele>1036.4</ele>
        <time>2022-05-23 09:30:48</time>
      </trkpt>
      <trkpt lat="42.15577" lon="0.79866">
        <ele>1036.6</ele>
        <time>2022-05-23 09:30:49</time>
      </trkpt>
      <trkpt lat="42.15579" lon="0.79864">
        <ele>1036.6</ele>
        <time>2022-05-23 09:30:50</time>
      </trkpt>
      <trkpt lat="42.1558" lon="0.79864">
        <ele>1036.8</ele>
        <time>2022-05-23 09:30:51</time>
      </trkpt>
      <trkpt lat="42.15582" lon="0.79862">
        <ele>1037</ele>
        <time>2022-05-23 09:30:52</time>
      </trkpt>
      <trkpt lat="42.15583" lon="0.79861">
        <ele>1037.2</ele>
        <time>2022-05-23 09:30:53</time>
      </trkpt>
      <trkpt lat="42.15585" lon="0.7986">
        <ele>1037.4</ele>
        <time>2022-05-23 09:30:54</time>
      </trkpt>
      <trkpt lat="42.15588" lon="0.79859">
        <ele>1037.6</ele>
        <time>2022-05-23 09:30:55</time>
      </trkpt>
      <trkpt lat="42.1559" lon="0.79858">
        <ele>1038</ele>
        <time>2022-05-23 09:30:56</time>
      </trkpt>
      <trkpt lat="42.15592" lon="0.79857">
        <ele>1038</ele>
        <time>2022-05-23 09:30:57</time>
      </trkpt>
      <trkpt lat="42.15594" lon="0.79856">
        <ele>1038.2</ele>
        <time>2022-05-23 09:30:58</time>
      </trkpt>
      <trkpt lat="42.15595" lon="0.79855">
        <ele>1038.4</ele>
        <time>2022-05-23 09:30:59</time>
      </trkpt>
      <trkpt lat="42.15597" lon="0.79854">
        <ele>1038.4</ele>
        <time>2022-05-23 09:31:00</time>
      </trkpt>
      <trkpt lat="42.15599" lon="0.79853">
        <ele>1038.6</ele>
        <time>2022-05-23 09:31:01</time>
      </trkpt>
      <trkpt lat="42.156" lon="0.79851">
        <ele>1038.6</ele>
        <time>2022-05-23 09:31:02</time>
      </trkpt>
      <trkpt lat="42.15602" lon="0.7985">
        <ele>1038.8</ele>
        <time>2022-05-23 09:31:03</time>
      </trkpt>
      <trkpt lat="42.15604" lon="0.79848">
        <ele>1039</ele>
        <time>2022-05-23 09:31:04</time>
      </trkpt>
      <trkpt lat="42.15605" lon="0.79847">
        <ele>1039</ele>
        <time>2022-05-23 09:31:05</time>
      </trkpt>
      <trkpt lat="42.15607" lon="0.79845">
        <ele>1039</ele>
        <time>2022-05-23 09:31:06</time>
      </trkpt>
      <trkpt lat="42.15608" lon="0.79843">
        <ele>1039.2</ele>
        <time>2022-05-23 09:31:07</time>
      </trkpt>
      <trkpt lat="42.15609" lon="0.79841">
        <ele>1039.2</ele>
        <time>2022-05-23 09:31:08</time>
      </trkpt>
      <trkpt lat="42.15611" lon="0.79838">
        <ele>1039.4</ele>
        <time>2022-05-23 09:31:09</time>
      </trkpt>
      <trkpt lat="42.15612" lon="0.79836">
        <ele>1039.4</ele>
        <time>2022-05-23 09:31:10</time>
      </trkpt>
      <trkpt lat="42.15614" lon="0.79834">
        <ele>1039.6</ele>
        <time>2022-05-23 09:31:11</time>
      </trkpt>
      <trkpt lat="42.15615" lon="0.79832">
        <ele>1039.6</ele>
        <time>2022-05-23 09:31:12</time>
      </trkpt>
      <trkpt lat="42.15616" lon="0.79829">
        <ele>1039.8</ele>
        <time>2022-05-23 09:31:13</time>
      </trkpt>
      <trkpt lat="42.15617" lon="0.79826">
        <ele>1040</ele>
        <time>2022-05-23 09:31:14</time>
      </trkpt>
      <trkpt lat="42.15618" lon="0.79824">
        <ele>1040</ele>
        <time>2022-05-23 09:31:15</time>
      </trkpt>
      <trkpt lat="42.15619" lon="0.79821">
        <ele>1040.2</ele>
        <time>2022-05-23 09:31:16</time>
      </trkpt>
      <trkpt lat="42.15619" lon="0.79817">
        <ele>1040.2</ele>
        <time>2022-05-23 09:31:17</time>
      </trkpt>
      <trkpt lat="42.15619" lon="0.79813">
        <ele>1040.4</ele>
        <time>2022-05-23 09:31:18</time>
      </trkpt>
      <trkpt lat="42.15619" lon="0.7981">
        <ele>1040.4</ele>
        <time>2022-05-23 09:31:19</time>
      </trkpt>
      <trkpt lat="42.15619" lon="0.79806">
        <ele>1040.4</ele>
        <time>2022-05-23 09:31:20</time>
      </trkpt>
      <trkpt lat="42.15619" lon="0.79802">
        <ele>1040.6</ele>
        <time>2022-05-23 09:31:21</time>
      </trkpt>
      <trkpt lat="42.15619" lon="0.79799">
        <ele>1040.6</ele>
        <time>2022-05-23 09:31:22</time>
      </trkpt>
      <trkpt lat="42.15618" lon="0.79795">
        <ele>1040.4</ele>
        <time>2022-05-23 09:31:23</time>
      </trkpt>
      <trkpt lat="42.15617" lon="0.79791">
        <ele>1040.4</ele>
        <time>2022-05-23 09:31:24</time>
      </trkpt>
      <trkpt lat="42.15616" lon="0.79785">
        <ele>1040.4</ele>
        <time>2022-05-23 09:31:25</time>
      </trkpt>
      <trkpt lat="42.15614" lon="0.79781">
        <ele>1040.4</ele>
        <time>2022-05-23 09:31:26</time>
      </trkpt>
      <trkpt lat="42.15613" lon="0.79775">
        <ele>1040.2</ele>
        <time>2022-05-23 09:31:27</time>
      </trkpt>
      <trkpt lat="42.15611" lon="0.79769">
        <ele>1040.2</ele>
        <time>2022-05-23 09:31:28</time>
      </trkpt>
      <trkpt lat="42.15609" lon="0.79765">
        <ele>1040</ele>
        <time>2022-05-23 09:31:29</time>
      </trkpt>
      <trkpt lat="42.15608" lon="0.7976">
        <ele>1040</ele>
        <time>2022-05-23 09:31:30</time>
      </trkpt>
      <trkpt lat="42.15607" lon="0.79755">
        <ele>1039.8</ele>
        <time>2022-05-23 09:31:31</time>
      </trkpt>
      <trkpt lat="42.15605" lon="0.7975">
        <ele>1039.6</ele>
        <time>2022-05-23 09:31:32</time>
      </trkpt>
      <trkpt lat="42.15604" lon="0.79744">
        <ele>1039.4</ele>
        <time>2022-05-23 09:31:33</time>
      </trkpt>
      <trkpt lat="42.15602" lon="0.79738">
        <ele>1039.2</ele>
        <time>2022-05-23 09:31:34</time>
      </trkpt>
      <trkpt lat="42.156" lon="0.79733">
        <ele>1038.8</ele>
        <time>2022-05-23 09:31:35</time>
      </trkpt>
      <trkpt lat="42.15599" lon="0.79727">
        <ele>1038.6</ele>
        <time>2022-05-23 09:31:36</time>
      </trkpt>
      <trkpt lat="42.15597" lon="0.79721">
        <ele>1038.4</ele>
        <time>2022-05-23 09:31:37</time>
      </trkpt>
      <trkpt lat="42.15595" lon="0.79715">
        <ele>1038.2</ele>
        <time>2022-05-23 09:31:38</time>
      </trkpt>
      <trkpt lat="42.15593" lon="0.79709">
        <ele>1038</ele>
        <time>2022-05-23 09:31:39</time>
      </trkpt>
      <trkpt lat="42.15591" lon="0.79702">
        <ele>1037.8</ele>
        <time>2022-05-23 09:31:40</time>
      </trkpt>
      <trkpt lat="42.15589" lon="0.79695">
        <ele>1037.6</ele>
        <time>2022-05-23 09:31:41</time>
      </trkpt>
      <trkpt lat="42.15587" lon="0.79688">
        <ele>1037.4</ele>
        <time>2022-05-23 09:31:42</time>
      </trkpt>
      <trkpt lat="42.15584" lon="0.79681">
        <ele>1037.2</ele>
        <time>2022-05-23 09:31:43</time>
      </trkpt>
      <trkpt lat="42.15583" lon="0.79674">
        <ele>1036.8</ele>
        <time>2022-05-23 09:31:44</time>
      </trkpt>
      <trkpt lat="42.1558" lon="0.79667">
        <ele>1036.6</ele>
        <time>2022-05-23 09:31:45</time>
      </trkpt>
      <trkpt lat="42.15578" lon="0.79659">
        <ele>1036.4</ele>
        <time>2022-05-23 09:31:46</time>
      </trkpt>
      <trkpt lat="42.15575" lon="0.79652">
        <ele>1036.2</ele>
        <time>2022-05-23 09:31:47</time>
      </trkpt>
      <trkpt lat="42.15573" lon="0.79645">
        <ele>1036</ele>
        <time>2022-05-23 09:31:48</time>
      </trkpt>
      <trkpt lat="42.1557" lon="0.79638">
        <ele>1035.8</ele>
        <time>2022-05-23 09:31:49</time>
      </trkpt>
      <trkpt lat="42.15567" lon="0.79632">
        <ele>1035.8</ele>
        <time>2022-05-23 09:31:50</time>
      </trkpt>
      <trkpt lat="42.15565" lon="0.79625">
        <ele>1035.8</ele>
        <time>2022-05-23 09:31:51</time>
      </trkpt>
      <trkpt lat="42.15562" lon="0.79619">
        <ele>1035.6</ele>
        <time>2022-05-23 09:31:52</time>
      </trkpt>
      <trkpt lat="42.1556" lon="0.79612">
        <ele>1035.6</ele>
        <time>2022-05-23 09:31:53</time>
      </trkpt>
      <trkpt lat="42.15557" lon="0.79606">
        <ele>1035.6</ele>
        <time>2022-05-23 09:31:54</time>
      </trkpt>
      <trkpt lat="42.15555" lon="0.796">
        <ele>1035.6</ele>
        <time>2022-05-23 09:31:55</time>
      </trkpt>
      <trkpt lat="42.15552" lon="0.79594">
        <ele>1035.6</ele>
        <time>2022-05-23 09:31:56</time>
      </trkpt>
      <trkpt lat="42.1555" lon="0.79588">
        <ele>1035.6</ele>
        <time>2022-05-23 09:31:57</time>
      </trkpt>
      <trkpt lat="42.15547" lon="0.79582">
        <ele>1035.4</ele>
        <time>2022-05-23 09:31:58</time>
      </trkpt>
      <trkpt lat="42.15545" lon="0.79576">
        <ele>1035.4</ele>
        <time>2022-05-23 09:31:59</time>
      </trkpt>
      <trkpt lat="42.15543" lon="0.79572">
        <ele>1035.6</ele>
        <time>2022-05-23 09:32:00</time>
      </trkpt>
      <trkpt lat="42.15543" lon="0.79566">
        <ele>1035.6</ele>
        <time>2022-05-23 09:32:01</time>
      </trkpt>
      <trkpt lat="42.15542" lon="0.79562">
        <ele>1035.8</ele>
        <time>2022-05-23 09:32:02</time>
      </trkpt>
      <trkpt lat="42.15539" lon="0.79557">
        <ele>1035.8</ele>
        <time>2022-05-23 09:32:03</time>
      </trkpt>
      <trkpt lat="42.15538" lon="0.79552">
        <ele>1036</ele>
        <time>2022-05-23 09:32:04</time>
      </trkpt>
      <trkpt lat="42.15536" lon="0.79547">
        <ele>1036.2</ele>
        <time>2022-05-23 09:32:05</time>
      </trkpt>
      <trkpt lat="42.15535" lon="0.79542">
        <ele>1036.2</ele>
        <time>2022-05-23 09:32:06</time>
      </trkpt>
      <trkpt lat="42.15534" lon="0.79536">
        <ele>1036.4</ele>
        <time>2022-05-23 09:32:07</time>
      </trkpt>
      <trkpt lat="42.15532" lon="0.79531">
        <ele>1036.8</ele>
        <time>2022-05-23 09:32:08</time>
      </trkpt>
      <trkpt lat="42.15529" lon="0.79527">
        <ele>1037</ele>
        <time>2022-05-23 09:32:09</time>
      </trkpt>
      <trkpt lat="42.15528" lon="0.79523">
        <ele>1037.2</ele>
        <time>2022-05-23 09:32:10</time>
      </trkpt>
      <trkpt lat="42.15527" lon="0.79519">
        <ele>1037.4</ele>
        <time>2022-05-23 09:32:11</time>
      </trkpt>
      <trkpt lat="42.15526" lon="0.79515">
        <ele>1037.6</ele>
        <time>2022-05-23 09:32:12</time>
      </trkpt>
      <trkpt lat="42.15525" lon="0.7951">
        <ele>1037.8</ele>
        <time>2022-05-23 09:32:13</time>
      </trkpt>
      <trkpt lat="42.15524" lon="0.79506">
        <ele>1038.2</ele>
        <time>2022-05-23 09:32:14</time>
      </trkpt>
      <trkpt lat="42.15523" lon="0.79501">
        <ele>1038.4</ele>
        <time>2022-05-23 09:32:15</time>
      </trkpt>
      <trkpt lat="42.15522" lon="0.79497">
        <ele>1038.8</ele>
        <time>2022-05-23 09:32:16</time>
      </trkpt>
      <trkpt lat="42.15522" lon="0.79493">
        <ele>1039</ele>
        <time>2022-05-23 09:32:17</time>
      </trkpt>
      <trkpt lat="42.15522" lon="0.79489">
        <ele>1039.4</ele>
        <time>2022-05-23 09:32:18</time>
      </trkpt>
      <trkpt lat="42.15522" lon="0.79485">
        <ele>1039.6</ele>
        <time>2022-05-23 09:32:19</time>
      </trkpt>
      <trkpt lat="42.15521" lon="0.79481">
        <ele>1039.8</ele>
        <time>2022-05-23 09:32:20</time>
      </trkpt>
      <trkpt lat="42.15522" lon="0.79476">
        <ele>1040</ele>
        <time>2022-05-23 09:32:21</time>
      </trkpt>
      <trkpt lat="42.15522" lon="0.79473">
        <ele>1040.4</ele>
        <time>2022-05-23 09:32:22</time>
      </trkpt>
      <trkpt lat="42.15522" lon="0.79469">
        <ele>1040.6</ele>
        <time>2022-05-23 09:32:23</time>
      </trkpt>
      <trkpt lat="42.15522" lon="0.79465">
        <ele>1040.8</ele>
        <time>2022-05-23 09:32:24</time>
      </trkpt>
      <trkpt lat="42.15522" lon="0.79461">
        <ele>1041.2</ele>
        <time>2022-05-23 09:32:25</time>
      </trkpt>
      <trkpt lat="42.1552" lon="0.79458">
        <ele>1041.4</ele>
        <time>2022-05-23 09:32:26</time>
      </trkpt>
      <trkpt lat="42.1552" lon="0.79454">
        <ele>1041.8</ele>
        <time>2022-05-23 09:32:27</time>
      </trkpt>
      <trkpt lat="42.1552" lon="0.7945">
        <ele>1042</ele>
        <time>2022-05-23 09:32:28</time>
      </trkpt>
      <trkpt lat="42.1552" lon="0.79445">
        <ele>1042.2</ele>
        <time>2022-05-23 09:32:29</time>
      </trkpt>
      <trkpt lat="42.1552" lon="0.7944">
        <ele>1042.6</ele>
        <time>2022-05-23 09:32:30</time>
      </trkpt>
      <trkpt lat="42.1552" lon="0.79435">
        <ele>1042.8</ele>
        <time>2022-05-23 09:32:31</time>
      </trkpt>
      <trkpt lat="42.1552" lon="0.7943">
        <ele>1043</ele>
        <time>2022-05-23 09:32:32</time>
      </trkpt>
      <trkpt lat="42.1552" lon="0.79426">
        <ele>1043.4</ele>
        <time>2022-05-23 09:32:33</time>
      </trkpt>
      <trkpt lat="42.1552" lon="0.79421">
        <ele>1043.6</ele>
        <time>2022-05-23 09:32:34</time>
      </trkpt>
      <trkpt lat="42.1552" lon="0.79416">
        <ele>1043.8</ele>
        <time>2022-05-23 09:32:35</time>
      </trkpt>
      <trkpt lat="42.1552" lon="0.79412">
        <ele>1044.2</ele>
        <time>2022-05-23 09:32:36</time>
      </trkpt>
      <trkpt lat="42.1552" lon="0.79408">
        <ele>1044.4</ele>
        <time>2022-05-23 09:32:37</time>
      </trkpt>
      <trkpt lat="42.15521" lon="0.79404">
        <ele>1044.6</ele>
        <time>2022-05-23 09:32:38</time>
      </trkpt>
      <trkpt lat="42.15522" lon="0.794">
        <ele>1045</ele>
        <time>2022-05-23 09:32:39</time>
      </trkpt>
      <trkpt lat="42.15523" lon="0.79397">
        <ele>1045.2</ele>
        <time>2022-05-23 09:32:40</time>
      </trkpt>
      <trkpt lat="42.15525" lon="0.79394">
        <ele>1045.4</ele>
        <time>2022-05-23 09:32:41</time>
      </trkpt>
      <trkpt lat="42.15526" lon="0.79391">
        <ele>1045.8</ele>
        <time>2022-05-23 09:32:42</time>
      </trkpt>
      <trkpt lat="42.15528" lon="0.79388">
        <ele>1046</ele>
        <time>2022-05-23 09:32:43</time>
      </trkpt>
      <trkpt lat="42.1553" lon="0.79386">
        <ele>1046.2</ele>
        <time>2022-05-23 09:32:44</time>
      </trkpt>
      <trkpt lat="42.15532" lon="0.79384">
        <ele>1046.4</ele>
        <time>2022-05-23 09:32:45</time>
      </trkpt>
      <trkpt lat="42.15534" lon="0.79382">
        <ele>1046.6</ele>
        <time>2022-05-23 09:32:46</time>
      </trkpt>
      <trkpt lat="42.15536" lon="0.7938">
        <ele>1046.8</ele>
        <time>2022-05-23 09:32:47</time>
      </trkpt>
      <trkpt lat="42.15538" lon="0.79379">
        <ele>1047</ele>
        <time>2022-05-23 09:32:48</time>
      </trkpt>
      <trkpt lat="42.1554" lon="0.79377">
        <ele>1047.2</ele>
        <time>2022-05-23 09:32:49</time>
      </trkpt>
      <trkpt lat="42.15542" lon="0.79376">
        <ele>1047.4</ele>
        <time>2022-05-23 09:32:50</time>
      </trkpt>
      <trkpt lat="42.15545" lon="0.79374">
        <ele>1047.6</ele>
        <time>2022-05-23 09:32:51</time>
      </trkpt>
      <trkpt lat="42.15547" lon="0.79373">
        <ele>1047.8</ele>
        <time>2022-05-23 09:32:52</time>
      </trkpt>
      <trkpt lat="42.15549" lon="0.79371">
        <ele>1048</ele>
        <time>2022-05-23 09:32:53</time>
      </trkpt>
      <trkpt lat="42.15551" lon="0.7937">
        <ele>1048.2</ele>
        <time>2022-05-23 09:32:54</time>
      </trkpt>
      <trkpt lat="42.15553" lon="0.79369">
        <ele>1048.2</ele>
        <time>2022-05-23 09:32:55</time>
      </trkpt>
      <trkpt lat="42.15555" lon="0.79367">
        <ele>1048.4</ele>
        <time>2022-05-23 09:32:56</time>
      </trkpt>
      <trkpt lat="42.15558" lon="0.79367">
        <ele>1048.6</ele>
        <time>2022-05-23 09:32:57</time>
      </trkpt>
      <trkpt lat="42.1556" lon="0.79366">
        <ele>1048.8</ele>
        <time>2022-05-23 09:32:58</time>
      </trkpt>
      <trkpt lat="42.15563" lon="0.79364">
        <ele>1049</ele>
        <time>2022-05-23 09:32:59</time>
      </trkpt>
      <trkpt lat="42.15565" lon="0.79363">
        <ele>1049.2</ele>
        <time>2022-05-23 09:33:00</time>
      </trkpt>
      <trkpt lat="42.15568" lon="0.79362">
        <ele>1049.4</ele>
        <time>2022-05-23 09:33:01</time>
      </trkpt>
      <trkpt lat="42.1557" lon="0.79361">
        <ele>1049.4</ele>
        <time>2022-05-23 09:33:02</time>
      </trkpt>
      <trkpt lat="42.15571" lon="0.79359">
        <ele>1049.6</ele>
        <time>2022-05-23 09:33:03</time>
      </trkpt>
      <trkpt lat="42.15573" lon="0.79358">
        <ele>1049.8</ele>
        <time>2022-05-23 09:33:04</time>
      </trkpt>
      <trkpt lat="42.15575" lon="0.79357">
        <ele>1050</ele>
        <time>2022-05-23 09:33:05</time>
      </trkpt>
      <trkpt lat="42.15577" lon="0.79357">
        <ele>1050.2</ele>
        <time>2022-05-23 09:33:06</time>
      </trkpt>
      <trkpt lat="42.1558" lon="0.79355">
        <ele>1050.2</ele>
        <time>2022-05-23 09:33:07</time>
      </trkpt>
      <trkpt lat="42.15581" lon="0.79355">
        <ele>1050.4</ele>
        <time>2022-05-23 09:33:08</time>
      </trkpt>
      <trkpt lat="42.15584" lon="0.79353">
        <ele>1050.6</ele>
        <time>2022-05-23 09:33:09</time>
      </trkpt>
      <trkpt lat="42.15585" lon="0.79351">
        <ele>1050.8</ele>
        <time>2022-05-23 09:33:10</time>
      </trkpt>
      <trkpt lat="42.15586" lon="0.7935">
        <ele>1051</ele>
        <time>2022-05-23 09:33:11</time>
      </trkpt>
      <trkpt lat="42.15588" lon="0.79347">
        <ele>1051</ele>
        <time>2022-05-23 09:33:12</time>
      </trkpt>
      <trkpt lat="42.1559" lon="0.79344">
        <ele>1051.2</ele>
        <time>2022-05-23 09:33:13</time>
      </trkpt>
      <trkpt lat="42.15591" lon="0.79341">
        <ele>1051.4</ele>
        <time>2022-05-23 09:33:14</time>
      </trkpt>
      <trkpt lat="42.15593" lon="0.79339">
        <ele>1051.6</ele>
        <time>2022-05-23 09:33:15</time>
      </trkpt>
      <trkpt lat="42.15594" lon="0.79336">
        <ele>1051.8</ele>
        <time>2022-05-23 09:33:16</time>
      </trkpt>
      <trkpt lat="42.15595" lon="0.79333">
        <ele>1051.8</ele>
        <time>2022-05-23 09:33:17</time>
      </trkpt>
      <trkpt lat="42.15596" lon="0.79329">
        <ele>1052</ele>
        <time>2022-05-23 09:33:18</time>
      </trkpt>
      <trkpt lat="42.15597" lon="0.79326">
        <ele>1052.2</ele>
        <time>2022-05-23 09:33:19</time>
      </trkpt>
      <trkpt lat="42.15598" lon="0.79323">
        <ele>1052.4</ele>
        <time>2022-05-23 09:33:20</time>
      </trkpt>
      <trkpt lat="42.15598" lon="0.79319">
        <ele>1052.4</ele>
        <time>2022-05-23 09:33:21</time>
      </trkpt>
      <trkpt lat="42.15598" lon="0.79316">
        <ele>1052.6</ele>
        <time>2022-05-23 09:33:22</time>
      </trkpt>
      <trkpt lat="42.15598" lon="0.79313">
        <ele>1052.8</ele>
        <time>2022-05-23 09:33:23</time>
      </trkpt>
      <trkpt lat="42.15598" lon="0.79309">
        <ele>1052.8</ele>
        <time>2022-05-23 09:33:24</time>
      </trkpt>
      <trkpt lat="42.15597" lon="0.79306">
        <ele>1053</ele>
        <time>2022-05-23 09:33:25</time>
      </trkpt>
      <trkpt lat="42.15597" lon="0.79302">
        <ele>1053.2</ele>
        <time>2022-05-23 09:33:26</time>
      </trkpt>
      <trkpt lat="42.15596" lon="0.79299">
        <ele>1053.4</ele>
        <time>2022-05-23 09:33:27</time>
      </trkpt>
      <trkpt lat="42.15595" lon="0.79296">
        <ele>1053.4</ele>
        <time>2022-05-23 09:33:28</time>
      </trkpt>
      <trkpt lat="42.15594" lon="0.79293">
        <ele>1053.6</ele>
        <time>2022-05-23 09:33:29</time>
      </trkpt>
      <trkpt lat="42.15593" lon="0.7929">
        <ele>1053.8</ele>
        <time>2022-05-23 09:33:30</time>
      </trkpt>
      <trkpt lat="42.15592" lon="0.79287">
        <ele>1054</ele>
        <time>2022-05-23 09:33:31</time>
      </trkpt>
      <trkpt lat="42.15591" lon="0.79284">
        <ele>1054</ele>
        <time>2022-05-23 09:33:32</time>
      </trkpt>
      <trkpt lat="42.15591" lon="0.79281">
        <ele>1054.2</ele>
        <time>2022-05-23 09:33:33</time>
      </trkpt>
      <trkpt lat="42.15589" lon="0.79279">
        <ele>1054.4</ele>
        <time>2022-05-23 09:33:34</time>
      </trkpt>
      <trkpt lat="42.15588" lon="0.79276">
        <ele>1054.6</ele>
        <time>2022-05-23 09:33:35</time>
      </trkpt>
      <trkpt lat="42.15587" lon="0.79273">
        <ele>1054.8</ele>
        <time>2022-05-23 09:33:36</time>
      </trkpt>
      <trkpt lat="42.15586" lon="0.7927">
        <ele>1055</ele>
        <time>2022-05-23 09:33:37</time>
      </trkpt>
      <trkpt lat="42.15585" lon="0.79267">
        <ele>1055</ele>
        <time>2022-05-23 09:33:38</time>
      </trkpt>
      <trkpt lat="42.15584" lon="0.79264">
        <ele>1055.2</ele>
        <time>2022-05-23 09:33:39</time>
      </trkpt>
      <trkpt lat="42.15583" lon="0.79261">
        <ele>1055.4</ele>
        <time>2022-05-23 09:33:40</time>
      </trkpt>
      <trkpt lat="42.15582" lon="0.79258">
        <ele>1055.6</ele>
        <time>2022-05-23 09:33:41</time>
      </trkpt>
      <trkpt lat="42.15581" lon="0.79256">
        <ele>1055.8</ele>
        <time>2022-05-23 09:33:42</time>
      </trkpt>
      <trkpt lat="42.1558" lon="0.79253">
        <ele>1055.8</ele>
        <time>2022-05-23 09:33:43</time>
      </trkpt>
      <trkpt lat="42.15579" lon="0.7925">
        <ele>1056</ele>
        <time>2022-05-23 09:33:44</time>
      </trkpt>
      <trkpt lat="42.15578" lon="0.79247">
        <ele>1056.2</ele>
        <time>2022-05-23 09:33:45</time>
      </trkpt>
      <trkpt lat="42.15577" lon="0.79244">
        <ele>1056.4</ele>
        <time>2022-05-23 09:33:46</time>
      </trkpt>
      <trkpt lat="42.15576" lon="0.79241">
        <ele>1056.6</ele>
        <time>2022-05-23 09:33:47</time>
      </trkpt>
      <trkpt lat="42.15575" lon="0.79238">
        <ele>1056.8</ele>
        <time>2022-05-23 09:33:48</time>
      </trkpt>
      <trkpt lat="42.15574" lon="0.79236">
        <ele>1056.8</ele>
        <time>2022-05-23 09:33:49</time>
      </trkpt>
      <trkpt lat="42.15573" lon="0.79232">
        <ele>1057</ele>
        <time>2022-05-23 09:33:50</time>
      </trkpt>
      <trkpt lat="42.15572" lon="0.7923">
        <ele>1057.2</ele>
        <time>2022-05-23 09:33:51</time>
      </trkpt>
      <trkpt lat="42.15571" lon="0.79227">
        <ele>1057.2</ele>
        <time>2022-05-23 09:33:52</time>
      </trkpt>
      <trkpt lat="42.15571" lon="0.79224">
        <ele>1057.4</ele>
        <time>2022-05-23 09:33:53</time>
      </trkpt>
      <trkpt lat="42.15569" lon="0.79221">
        <ele>1057.6</ele>
        <time>2022-05-23 09:33:54</time>
      </trkpt>
      <trkpt lat="42.15568" lon="0.79219">
        <ele>1057.8</ele>
        <time>2022-05-23 09:33:55</time>
      </trkpt>
      <trkpt lat="42.15567" lon="0.79216">
        <ele>1058</ele>
        <time>2022-05-23 09:33:56</time>
      </trkpt>
      <trkpt lat="42.15566" lon="0.79213">
        <ele>1058</ele>
        <time>2022-05-23 09:33:57</time>
      </trkpt>
      <trkpt lat="42.15565" lon="0.79211">
        <ele>1058.2</ele>
        <time>2022-05-23 09:33:58</time>
      </trkpt>
      <trkpt lat="42.15564" lon="0.79208">
        <ele>1058.4</ele>
        <time>2022-05-23 09:33:59</time>
      </trkpt>
      <trkpt lat="42.15564" lon="0.79206">
        <ele>1058.4</ele>
        <time>2022-05-23 09:34:00</time>
      </trkpt>
      <trkpt lat="42.15563" lon="0.79203">
        <ele>1058.6</ele>
        <time>2022-05-23 09:34:01</time>
      </trkpt>
      <trkpt lat="42.15562" lon="0.792">
        <ele>1058.6</ele>
        <time>2022-05-23 09:34:02</time>
      </trkpt>
      <trkpt lat="42.15562" lon="0.79197">
        <ele>1058.8</ele>
        <time>2022-05-23 09:34:03</time>
      </trkpt>
      <trkpt lat="42.15561" lon="0.79194">
        <ele>1058.8</ele>
        <time>2022-05-23 09:34:04</time>
      </trkpt>
      <trkpt lat="42.1556" lon="0.79191">
        <ele>1059</ele>
        <time>2022-05-23 09:34:05</time>
      </trkpt>
      <trkpt lat="42.1556" lon="0.79188">
        <ele>1059.2</ele>
        <time>2022-05-23 09:34:06</time>
      </trkpt>
      <trkpt lat="42.15559" lon="0.79184">
        <ele>1059.2</ele>
        <time>2022-05-23 09:34:07</time>
      </trkpt>
      <trkpt lat="42.15559" lon="0.79182">
        <ele>1059.4</ele>
        <time>2022-05-23 09:34:08</time>
      </trkpt>
      <trkpt lat="42.15559" lon="0.79178">
        <ele>1059.6</ele>
        <time>2022-05-23 09:34:09</time>
      </trkpt>
      <trkpt lat="42.15559" lon="0.79175">
        <ele>1059.6</ele>
        <time>2022-05-23 09:34:10</time>
      </trkpt>
      <trkpt lat="42.15559" lon="0.79172">
        <ele>1059.8</ele>
        <time>2022-05-23 09:34:11</time>
      </trkpt>
      <trkpt lat="42.15558" lon="0.79169">
        <ele>1060</ele>
        <time>2022-05-23 09:34:12</time>
      </trkpt>
      <trkpt lat="42.15558" lon="0.79166">
        <ele>1060.2</ele>
        <time>2022-05-23 09:34:13</time>
      </trkpt>
      <trkpt lat="42.15558" lon="0.79162">
        <ele>1060.2</ele>
        <time>2022-05-23 09:34:14</time>
      </trkpt>
      <trkpt lat="42.15558" lon="0.79159">
        <ele>1060.4</ele>
        <time>2022-05-23 09:34:15</time>
      </trkpt>
      <trkpt lat="42.15557" lon="0.79156">
        <ele>1060.6</ele>
        <time>2022-05-23 09:34:16</time>
      </trkpt>
      <trkpt lat="42.15557" lon="0.79153">
        <ele>1060.8</ele>
        <time>2022-05-23 09:34:17</time>
      </trkpt>
      <trkpt lat="42.15558" lon="0.7915">
        <ele>1060.8</ele>
        <time>2022-05-23 09:34:18</time>
      </trkpt>
      <trkpt lat="42.15558" lon="0.79146">
        <ele>1061</ele>
        <time>2022-05-23 09:34:19</time>
      </trkpt>
      <trkpt lat="42.15558" lon="0.79143">
        <ele>1061</ele>
        <time>2022-05-23 09:34:20</time>
      </trkpt>
      <trkpt lat="42.15559" lon="0.7914">
        <ele>1061.2</ele>
        <time>2022-05-23 09:34:21</time>
      </trkpt>
      <trkpt lat="42.15559" lon="0.79137">
        <ele>1061.4</ele>
        <time>2022-05-23 09:34:22</time>
      </trkpt>
      <trkpt lat="42.15559" lon="0.79134">
        <ele>1061.6</ele>
        <time>2022-05-23 09:34:23</time>
      </trkpt>
      <trkpt lat="42.1556" lon="0.79131">
        <ele>1061.6</ele>
        <time>2022-05-23 09:34:24</time>
      </trkpt>
      <trkpt lat="42.15561" lon="0.79128">
        <ele>1061.8</ele>
        <time>2022-05-23 09:34:25</time>
      </trkpt>
      <trkpt lat="42.15562" lon="0.79125">
        <ele>1061.8</ele>
        <time>2022-05-23 09:34:26</time>
      </trkpt>
      <trkpt lat="42.15563" lon="0.79122">
        <ele>1062</ele>
        <time>2022-05-23 09:34:27</time>
      </trkpt>
      <trkpt lat="42.15564" lon="0.79119">
        <ele>1062.2</ele>
        <time>2022-05-23 09:34:28</time>
      </trkpt>
      <trkpt lat="42.15565" lon="0.79116">
        <ele>1062.4</ele>
        <time>2022-05-23 09:34:29</time>
      </trkpt>
      <trkpt lat="42.15566" lon="0.79114">
        <ele>1062.6</ele>
        <time>2022-05-23 09:34:30</time>
      </trkpt>
      <trkpt lat="42.15567" lon="0.79111">
        <ele>1062.8</ele>
        <time>2022-05-23 09:34:31</time>
      </trkpt>
      <trkpt lat="42.15569" lon="0.79108">
        <ele>1063</ele>
        <time>2022-05-23 09:34:32</time>
      </trkpt>
      <trkpt lat="42.15571" lon="0.79106">
        <ele>1063.2</ele>
        <time>2022-05-23 09:34:33</time>
      </trkpt>
      <trkpt lat="42.15572" lon="0.79103">
        <ele>1063.4</ele>
        <time>2022-05-23 09:34:34</time>
      </trkpt>
      <trkpt lat="42.15574" lon="0.79101">
        <ele>1063.6</ele>
        <time>2022-05-23 09:34:35</time>
      </trkpt>
      <trkpt lat="42.15576" lon="0.79099">
        <ele>1063.6</ele>
        <time>2022-05-23 09:34:36</time>
      </trkpt>
      <trkpt lat="42.15578" lon="0.79098">
        <ele>1063.8</ele>
        <time>2022-05-23 09:34:37</time>
      </trkpt>
      <trkpt lat="42.1558" lon="0.79096">
        <ele>1064</ele>
        <time>2022-05-23 09:34:38</time>
      </trkpt>
      <trkpt lat="42.15582" lon="0.79095">
        <ele>1064.2</ele>
        <time>2022-05-23 09:34:39</time>
      </trkpt>
      <trkpt lat="42.15585" lon="0.79093">
        <ele>1064.2</ele>
        <time>2022-05-23 09:34:40</time>
      </trkpt>
      <trkpt lat="42.15587" lon="0.79092">
        <ele>1064.4</ele>
        <time>2022-05-23 09:34:41</time>
      </trkpt>
      <trkpt lat="42.15589" lon="0.79092">
        <ele>1064.6</ele>
        <time>2022-05-23 09:34:42</time>
      </trkpt>
      <trkpt lat="42.15592" lon="0.7909">
        <ele>1064.8</ele>
        <time>2022-05-23 09:34:43</time>
      </trkpt>
      <trkpt lat="42.15594" lon="0.7909">
        <ele>1065</ele>
        <time>2022-05-23 09:34:44</time>
      </trkpt>
      <trkpt lat="42.15597" lon="0.79089">
        <ele>1065.2</ele>
        <time>2022-05-23 09:34:45</time>
      </trkpt>
      <trkpt lat="42.15599" lon="0.79089">
        <ele>1065.2</ele>
        <time>2022-05-23 09:34:46</time>
      </trkpt>
      <trkpt lat="42.15602" lon="0.79088">
        <ele>1065.4</ele>
        <time>2022-05-23 09:34:47</time>
      </trkpt>
      <trkpt lat="42.15605" lon="0.79088">
        <ele>1065.6</ele>
        <time>2022-05-23 09:34:48</time>
      </trkpt>
      <trkpt lat="42.15607" lon="0.79089">
        <ele>1065.8</ele>
        <time>2022-05-23 09:34:49</time>
      </trkpt>
      <trkpt lat="42.15609" lon="0.79089">
        <ele>1065.8</ele>
        <time>2022-05-23 09:34:50</time>
      </trkpt>
      <trkpt lat="42.15612" lon="0.79089">
        <ele>1066</ele>
        <time>2022-05-23 09:34:51</time>
      </trkpt>
      <trkpt lat="42.15615" lon="0.79089">
        <ele>1066</ele>
        <time>2022-05-23 09:34:52</time>
      </trkpt>
      <trkpt lat="42.15617" lon="0.79089">
        <ele>1066.2</ele>
        <time>2022-05-23 09:34:53</time>
      </trkpt>
      <trkpt lat="42.1562" lon="0.79089">
        <ele>1066.4</ele>
        <time>2022-05-23 09:34:54</time>
      </trkpt>
      <trkpt lat="42.15622" lon="0.79089">
        <ele>1066.4</ele>
        <time>2022-05-23 09:34:55</time>
      </trkpt>
      <trkpt lat="42.15625" lon="0.7909">
        <ele>1066.6</ele>
        <time>2022-05-23 09:34:56</time>
      </trkpt>
      <trkpt lat="42.15627" lon="0.7909">
        <ele>1066.6</ele>
        <time>2022-05-23 09:34:57</time>
      </trkpt>
      <trkpt lat="42.1563" lon="0.7909">
        <ele>1066.8</ele>
        <time>2022-05-23 09:34:58</time>
      </trkpt>
      <trkpt lat="42.15632" lon="0.7909">
        <ele>1067</ele>
        <time>2022-05-23 09:34:59</time>
      </trkpt>
      <trkpt lat="42.15634" lon="0.7909">
        <ele>1067</ele>
        <time>2022-05-23 09:35:00</time>
      </trkpt>
      <trkpt lat="42.15637" lon="0.7909">
        <ele>1067.2</ele>
        <time>2022-05-23 09:35:01</time>
      </trkpt>
      <trkpt lat="42.1564" lon="0.7909">
        <ele>1067.4</ele>
        <time>2022-05-23 09:35:02</time>
      </trkpt>
      <trkpt lat="42.15643" lon="0.79089">
        <ele>1067.4</ele>
        <time>2022-05-23 09:35:03</time>
      </trkpt>
      <trkpt lat="42.15645" lon="0.79089">
        <ele>1067.6</ele>
        <time>2022-05-23 09:35:04</time>
      </trkpt>
      <trkpt lat="42.15648" lon="0.79089">
        <ele>1067.8</ele>
        <time>2022-05-23 09:35:05</time>
      </trkpt>
      <trkpt lat="42.15651" lon="0.79089">
        <ele>1068</ele>
        <time>2022-05-23 09:35:06</time>
      </trkpt>
      <trkpt lat="42.15654" lon="0.7909">
        <ele>1068</ele>
        <time>2022-05-23 09:35:07</time>
      </trkpt>
      <trkpt lat="42.15656" lon="0.7909">
        <ele>1068.2</ele>
        <time>2022-05-23 09:35:08</time>
      </trkpt>
      <trkpt lat="42.15659" lon="0.7909">
        <ele>1068.4</ele>
        <time>2022-05-23 09:35:09</time>
      </trkpt>
      <trkpt lat="42.15661" lon="0.7909">
        <ele>1068.4</ele>
        <time>2022-05-23 09:35:10</time>
      </trkpt>
      <trkpt lat="42.15663" lon="0.7909">
        <ele>1068.6</ele>
        <time>2022-05-23 09:35:11</time>
      </trkpt>
      <trkpt lat="42.15666" lon="0.7909">
        <ele>1068.8</ele>
        <time>2022-05-23 09:35:12</time>
      </trkpt>
      <trkpt lat="42.15668" lon="0.7909">
        <ele>1069</ele>
        <time>2022-05-23 09:35:13</time>
      </trkpt>
      <trkpt lat="42.15671" lon="0.7909">
        <ele>1069</ele>
        <time>2022-05-23 09:35:14</time>
      </trkpt>
      <trkpt lat="42.15673" lon="0.7909">
        <ele>1069.2</ele>
        <time>2022-05-23 09:35:15</time>
      </trkpt>
      <trkpt lat="42.15675" lon="0.7909">
        <ele>1069.4</ele>
        <time>2022-05-23 09:35:16</time>
      </trkpt>
      <trkpt lat="42.15677" lon="0.7909">
        <ele>1069.6</ele>
        <time>2022-05-23 09:35:17</time>
      </trkpt>
      <trkpt lat="42.1568" lon="0.7909">
        <ele>1069.8</ele>
        <time>2022-05-23 09:35:18</time>
      </trkpt>
      <trkpt lat="42.15682" lon="0.7909">
        <ele>1070</ele>
        <time>2022-05-23 09:35:19</time>
      </trkpt>
      <trkpt lat="42.15684" lon="0.7909">
        <ele>1070</ele>
        <time>2022-05-23 09:35:20</time>
      </trkpt>
      <trkpt lat="42.15687" lon="0.7909">
        <ele>1070.2</ele>
        <time>2022-05-23 09:35:21</time>
      </trkpt>
      <trkpt lat="42.15689" lon="0.7909">
        <ele>1070.4</ele>
        <time>2022-05-23 09:35:22</time>
      </trkpt>
      <trkpt lat="42.15691" lon="0.7909">
        <ele>1070.6</ele>
        <time>2022-05-23 09:35:23</time>
      </trkpt>
      <trkpt lat="42.15693" lon="0.7909">
        <ele>1070.8</ele>
        <time>2022-05-23 09:35:24</time>
      </trkpt>
      <trkpt lat="42.15695" lon="0.7909">
        <ele>1071</ele>
        <time>2022-05-23 09:35:25</time>
      </trkpt>
      <trkpt lat="42.15698" lon="0.7909">
        <ele>1071</ele>
        <time>2022-05-23 09:35:26</time>
      </trkpt>
      <trkpt lat="42.157" lon="0.7909">
        <ele>1071.2</ele>
        <time>2022-05-23 09:35:27</time>
      </trkpt>
      <trkpt lat="42.15702" lon="0.7909">
        <ele>1071.4</ele>
        <time>2022-05-23 09:35:28</time>
      </trkpt>
      <trkpt lat="42.15704" lon="0.7909">
        <ele>1071.6</ele>
        <time>2022-05-23 09:35:29</time>
      </trkpt>
      <trkpt lat="42.15706" lon="0.7909">
        <ele>1071.6</ele>
        <time>2022-05-23 09:35:30</time>
      </trkpt>
      <trkpt lat="42.15708" lon="0.7909">
        <ele>1071.8</ele>
        <time>2022-05-23 09:35:31</time>
      </trkpt>
      <trkpt lat="42.1571" lon="0.7909">
        <ele>1072</ele>
        <time>2022-05-23 09:35:32</time>
      </trkpt>
      <trkpt lat="42.15712" lon="0.7909">
        <ele>1072.2</ele>
        <time>2022-05-23 09:35:33</time>
      </trkpt>
      <trkpt lat="42.15714" lon="0.7909">
        <ele>1072.2</ele>
        <time>2022-05-23 09:35:34</time>
      </trkpt>
      <trkpt lat="42.15716" lon="0.7909">
        <ele>1072.4</ele>
        <time>2022-05-23 09:35:35</time>
      </trkpt>
      <trkpt lat="42.15717" lon="0.7909">
        <ele>1072.6</ele>
        <time>2022-05-23 09:35:36</time>
      </trkpt>
      <trkpt lat="42.1572" lon="0.7909">
        <ele>1072.8</ele>
        <time>2022-05-23 09:35:37</time>
      </trkpt>
      <trkpt lat="42.15722" lon="0.79091">
        <ele>1072.8</ele>
        <time>2022-05-23 09:35:38</time>
      </trkpt>
      <trkpt lat="42.15724" lon="0.79091">
        <ele>1073</ele>
        <time>2022-05-23 09:35:39</time>
      </trkpt>
      <trkpt lat="42.15726" lon="0.79091">
        <ele>1073.2</ele>
        <time>2022-05-23 09:35:40</time>
      </trkpt>
      <trkpt lat="42.15728" lon="0.79091">
        <ele>1073.4</ele>
        <time>2022-05-23 09:35:41</time>
      </trkpt>
      <trkpt lat="42.1573" lon="0.79091">
        <ele>1073.4</ele>
        <time>2022-05-23 09:35:42</time>
      </trkpt>
      <trkpt lat="42.15732" lon="0.79091">
        <ele>1073.6</ele>
        <time>2022-05-23 09:35:43</time>
      </trkpt>
      <trkpt lat="42.15735" lon="0.79091">
        <ele>1073.8</ele>
        <time>2022-05-23 09:35:44</time>
      </trkpt>
      <trkpt lat="42.15737" lon="0.79091">
        <ele>1073.8</ele>
        <time>2022-05-23 09:35:45</time>
      </trkpt>
      <trkpt lat="42.15739" lon="0.79091">
        <ele>1074</ele>
        <time>2022-05-23 09:35:46</time>
      </trkpt>
      <trkpt lat="42.15741" lon="0.79091">
        <ele>1074.2</ele>
        <time>2022-05-23 09:35:47</time>
      </trkpt>
      <trkpt lat="42.15743" lon="0.79091">
        <ele>1074.2</ele>
        <time>2022-05-23 09:35:48</time>
      </trkpt>
      <trkpt lat="42.15745" lon="0.79091">
        <ele>1074.4</ele>
        <time>2022-05-23 09:35:49</time>
      </trkpt>
      <trkpt lat="42.15747" lon="0.79091">
        <ele>1074.6</ele>
        <time>2022-05-23 09:35:50</time>
      </trkpt>
      <trkpt lat="42.15749" lon="0.79091">
        <ele>1074.8</ele>
        <time>2022-05-23 09:35:51</time>
      </trkpt>
      <trkpt lat="42.15751" lon="0.79091">
        <ele>1075</ele>
        <time>2022-05-23 09:35:52</time>
      </trkpt>
      <trkpt lat="42.15754" lon="0.79092">
        <ele>1075</ele>
        <time>2022-05-23 09:35:53</time>
      </trkpt>
      <trkpt lat="42.15756" lon="0.79091">
        <ele>1075.2</ele>
        <time>2022-05-23 09:35:54</time>
      </trkpt>
      <trkpt lat="42.15758" lon="0.79091">
        <ele>1075.4</ele>
        <time>2022-05-23 09:35:55</time>
      </trkpt>
      <trkpt lat="42.1576" lon="0.79092">
        <ele>1075.4</ele>
        <time>2022-05-23 09:35:56</time>
      </trkpt>
      <trkpt lat="42.15762" lon="0.79092">
        <ele>1075.6</ele>
        <time>2022-05-23 09:35:57</time>
      </trkpt>
      <trkpt lat="42.15765" lon="0.79092">
        <ele>1075.8</ele>
        <time>2022-05-23 09:35:58</time>
      </trkpt>
      <trkpt lat="42.15767" lon="0.79092">
        <ele>1075.8</ele>
        <time>2022-05-23 09:35:59</time>
      </trkpt>
      <trkpt lat="42.15769" lon="0.79091">
        <ele>1076</ele>
        <time>2022-05-23 09:36:00</time>
      </trkpt>
      <trkpt lat="42.15772" lon="0.79091">
        <ele>1076.2</ele>
        <time>2022-05-23 09:36:01</time>
      </trkpt>
      <trkpt lat="42.15774" lon="0.79091">
        <ele>1076.2</ele>
        <time>2022-05-23 09:36:02</time>
      </trkpt>
      <trkpt lat="42.15776" lon="0.79091">
        <ele>1076.4</ele>
        <time>2022-05-23 09:36:03</time>
      </trkpt>
      <trkpt lat="42.15778" lon="0.79091">
        <ele>1076.6</ele>
        <time>2022-05-23 09:36:04</time>
      </trkpt>
      <trkpt lat="42.15781" lon="0.79091">
        <ele>1076.6</ele>
        <time>2022-05-23 09:36:05</time>
      </trkpt>
      <trkpt lat="42.15783" lon="0.79091">
        <ele>1076.8</ele>
        <time>2022-05-23 09:36:06</time>
      </trkpt>
      <trkpt lat="42.15785" lon="0.79091">
        <ele>1077</ele>
        <time>2022-05-23 09:36:07</time>
      </trkpt>
      <trkpt lat="42.15787" lon="0.79091">
        <ele>1077</ele>
        <time>2022-05-23 09:36:08</time>
      </trkpt>
      <trkpt lat="42.15789" lon="0.79091">
        <ele>1077.2</ele>
        <time>2022-05-23 09:36:09</time>
      </trkpt>
      <trkpt lat="42.15791" lon="0.79092">
        <ele>1077.2</ele>
        <time>2022-05-23 09:36:10</time>
      </trkpt>
      <trkpt lat="42.15793" lon="0.79092">
        <ele>1077.4</ele>
        <time>2022-05-23 09:36:11</time>
      </trkpt>
      <trkpt lat="42.15796" lon="0.79092">
        <ele>1077.6</ele>
        <time>2022-05-23 09:36:12</time>
      </trkpt>
      <trkpt lat="42.15798" lon="0.79092">
        <ele>1077.8</ele>
        <time>2022-05-23 09:36:13</time>
      </trkpt>
      <trkpt lat="42.158" lon="0.79092">
        <ele>1077.8</ele>
        <time>2022-05-23 09:36:14</time>
      </trkpt>
      <trkpt lat="42.15802" lon="0.79092">
        <ele>1078</ele>
        <time>2022-05-23 09:36:15</time>
      </trkpt>
      <trkpt lat="42.15805" lon="0.79092">
        <ele>1078.2</ele>
        <time>2022-05-23 09:36:16</time>
      </trkpt>
      <trkpt lat="42.15807" lon="0.79092">
        <ele>1078.4</ele>
        <time>2022-05-23 09:36:17</time>
      </trkpt>
      <trkpt lat="42.15809" lon="0.79092">
        <ele>1078.4</ele>
        <time>2022-05-23 09:36:18</time>
      </trkpt>
      <trkpt lat="42.15811" lon="0.79092">
        <ele>1078.6</ele>
        <time>2022-05-23 09:36:19</time>
      </trkpt>
      <trkpt lat="42.15814" lon="0.79092">
        <ele>1078.8</ele>
        <time>2022-05-23 09:36:20</time>
      </trkpt>
      <trkpt lat="42.15815" lon="0.79092">
        <ele>1078.8</ele>
        <time>2022-05-23 09:36:21</time>
      </trkpt>
      <trkpt lat="42.15818" lon="0.79091">
        <ele>1079</ele>
        <time>2022-05-23 09:36:22</time>
      </trkpt>
      <trkpt lat="42.1582" lon="0.79091">
        <ele>1079.2</ele>
        <time>2022-05-23 09:36:23</time>
      </trkpt>
      <trkpt lat="42.15822" lon="0.79092">
        <ele>1079.4</ele>
        <time>2022-05-23 09:36:24</time>
      </trkpt>
      <trkpt lat="42.15824" lon="0.79092">
        <ele>1079.4</ele>
        <time>2022-05-23 09:36:25</time>
      </trkpt>
      <trkpt lat="42.15826" lon="0.79092">
        <ele>1079.6</ele>
        <time>2022-05-23 09:36:26</time>
      </trkpt>
      <trkpt lat="42.15828" lon="0.79092">
        <ele>1079.8</ele>
        <time>2022-05-23 09:36:27</time>
      </trkpt>
      <trkpt lat="42.1583" lon="0.79092">
        <ele>1080</ele>
        <time>2022-05-23 09:36:28</time>
      </trkpt>
      <trkpt lat="42.15833" lon="0.79092">
        <ele>1080.2</ele>
        <time>2022-05-23 09:36:29</time>
      </trkpt>
      <trkpt lat="42.15835" lon="0.79092">
        <ele>1080.2</ele>
        <time>2022-05-23 09:36:30</time>
      </trkpt>
      <trkpt lat="42.15837" lon="0.79093">
        <ele>1080.4</ele>
        <time>2022-05-23 09:36:31</time>
      </trkpt>
      <trkpt lat="42.15839" lon="0.79093">
        <ele>1080.6</ele>
        <time>2022-05-23 09:36:32</time>
      </trkpt>
      <trkpt lat="42.15841" lon="0.79092">
        <ele>1080.8</ele>
        <time>2022-05-23 09:36:33</time>
      </trkpt>
      <trkpt lat="42.15843" lon="0.79092">
        <ele>1081</ele>
        <time>2022-05-23 09:36:34</time>
      </trkpt>
      <trkpt lat="42.15845" lon="0.79091">
        <ele>1081.2</ele>
        <time>2022-05-23 09:36:35</time>
      </trkpt>
      <trkpt lat="42.15847" lon="0.79091">
        <ele>1081.4</ele>
        <time>2022-05-23 09:36:36</time>
      </trkpt>
      <trkpt lat="42.15849" lon="0.79091">
        <ele>1081.6</ele>
        <time>2022-05-23 09:36:37</time>
      </trkpt>
      <trkpt lat="42.15851" lon="0.79092">
        <ele>1081.6</ele>
        <time>2022-05-23 09:36:38</time>
      </trkpt>
      <trkpt lat="42.15852" lon="0.79092">
        <ele>1081.8</ele>
        <time>2022-05-23 09:36:39</time>
      </trkpt>
      <trkpt lat="42.15854" lon="0.79092">
        <ele>1082</ele>
        <time>2022-05-23 09:36:40</time>
      </trkpt>
      <trkpt lat="42.15856" lon="0.79092">
        <ele>1082.2</ele>
        <time>2022-05-23 09:36:41</time>
      </trkpt>
      <trkpt lat="42.15858" lon="0.79093">
        <ele>1082.4</ele>
        <time>2022-05-23 09:36:42</time>
      </trkpt>
      <trkpt lat="42.1586" lon="0.79092">
        <ele>1082.6</ele>
        <time>2022-05-23 09:36:43</time>
      </trkpt>
      <trkpt lat="42.15862" lon="0.79092">
        <ele>1082.8</ele>
        <time>2022-05-23 09:36:44</time>
      </trkpt>
      <trkpt lat="42.15863" lon="0.79092">
        <ele>1082.8</ele>
        <time>2022-05-23 09:36:45</time>
      </trkpt>
      <trkpt lat="42.15865" lon="0.79092">
        <ele>1083</ele>
        <time>2022-05-23 09:36:46</time>
      </trkpt>
      <trkpt lat="42.15867" lon="0.79093">
        <ele>1083.2</ele>
        <time>2022-05-23 09:36:47</time>
      </trkpt>
      <trkpt lat="42.15869" lon="0.79093">
        <ele>1083.4</ele>
        <time>2022-05-23 09:36:48</time>
      </trkpt>
      <trkpt lat="42.15871" lon="0.79093">
        <ele>1083.6</ele>
        <time>2022-05-23 09:36:49</time>
      </trkpt>
      <trkpt lat="42.15872" lon="0.79093">
        <ele>1083.8</ele>
        <time>2022-05-23 09:36:50</time>
      </trkpt>
      <trkpt lat="42.15875" lon="0.79093">
        <ele>1084</ele>
        <time>2022-05-23 09:36:51</time>
      </trkpt>
      <trkpt lat="42.15877" lon="0.79093">
        <ele>1084.2</ele>
        <time>2022-05-23 09:36:52</time>
      </trkpt>
      <trkpt lat="42.15879" lon="0.79092">
        <ele>1084.4</ele>
        <time>2022-05-23 09:36:53</time>
      </trkpt>
      <trkpt lat="42.15881" lon="0.79092">
        <ele>1084.4</ele>
        <time>2022-05-23 09:36:54</time>
      </trkpt>
      <trkpt lat="42.15883" lon="0.79092">
        <ele>1084.6</ele>
        <time>2022-05-23 09:36:55</time>
      </trkpt>
      <trkpt lat="42.15884" lon="0.79092">
        <ele>1084.8</ele>
        <time>2022-05-23 09:36:56</time>
      </trkpt>
      <trkpt lat="42.15886" lon="0.79092">
        <ele>1085</ele>
        <time>2022-05-23 09:36:57</time>
      </trkpt>
      <trkpt lat="42.15888" lon="0.79092">
        <ele>1085.2</ele>
        <time>2022-05-23 09:36:58</time>
      </trkpt>
      <trkpt lat="42.15891" lon="0.79092">
        <ele>1085.4</ele>
        <time>2022-05-23 09:36:59</time>
      </trkpt>
      <trkpt lat="42.15893" lon="0.79092">
        <ele>1085.6</ele>
        <time>2022-05-23 09:37:00</time>
      </trkpt>
      <trkpt lat="42.15894" lon="0.79092">
        <ele>1085.8</ele>
        <time>2022-05-23 09:37:01</time>
      </trkpt>
      <trkpt lat="42.15897" lon="0.79092">
        <ele>1086</ele>
        <time>2022-05-23 09:37:02</time>
      </trkpt>
      <trkpt lat="42.15899" lon="0.79092">
        <ele>1086.2</ele>
        <time>2022-05-23 09:37:03</time>
      </trkpt>
      <trkpt lat="42.15901" lon="0.79092">
        <ele>1086.4</ele>
        <time>2022-05-23 09:37:04</time>
      </trkpt>
      <trkpt lat="42.15903" lon="0.79092">
        <ele>1086.6</ele>
        <time>2022-05-23 09:37:05</time>
      </trkpt>
      <trkpt lat="42.15905" lon="0.79092">
        <ele>1086.6</ele>
        <time>2022-05-23 09:37:06</time>
      </trkpt>
      <trkpt lat="42.15907" lon="0.79092">
        <ele>1086.8</ele>
        <time>2022-05-23 09:37:07</time>
      </trkpt>
      <trkpt lat="42.15909" lon="0.79092">
        <ele>1087</ele>
        <time>2022-05-23 09:37:08</time>
      </trkpt>
      <trkpt lat="42.15912" lon="0.79092">
        <ele>1087.2</ele>
        <time>2022-05-23 09:37:09</time>
      </trkpt>
      <trkpt lat="42.15914" lon="0.79092">
        <ele>1087.4</ele>
        <time>2022-05-23 09:37:10</time>
      </trkpt>
      <trkpt lat="42.15916" lon="0.79092">
        <ele>1087.6</ele>
        <time>2022-05-23 09:37:11</time>
      </trkpt>
      <trkpt lat="42.15918" lon="0.79093">
        <ele>1087.8</ele>
        <time>2022-05-23 09:37:12</time>
      </trkpt>
      <trkpt lat="42.1592" lon="0.79093">
        <ele>1088</ele>
        <time>2022-05-23 09:37:13</time>
      </trkpt>
      <trkpt lat="42.15922" lon="0.79093">
        <ele>1088.2</ele>
        <time>2022-05-23 09:37:14</time>
      </trkpt>
      <trkpt lat="42.15924" lon="0.79093">
        <ele>1088.4</ele>
        <time>2022-05-23 09:37:15</time>
      </trkpt>
      <trkpt lat="42.15926" lon="0.79093">
        <ele>1088.4</ele>
        <time>2022-05-23 09:37:16</time>
      </trkpt>
      <trkpt lat="42.15928" lon="0.79093">
        <ele>1088.6</ele>
        <time>2022-05-23 09:37:17</time>
      </trkpt>
      <trkpt lat="42.1593" lon="0.79093">
        <ele>1088.8</ele>
        <time>2022-05-23 09:37:18</time>
      </trkpt>
      <trkpt lat="42.15932" lon="0.79093">
        <ele>1089</ele>
        <time>2022-05-23 09:37:19</time>
      </trkpt>
      <trkpt lat="42.15934" lon="0.79093">
        <ele>1089.2</ele>
        <time>2022-05-23 09:37:20</time>
      </trkpt>
      <trkpt lat="42.15936" lon="0.79093">
        <ele>1089.4</ele>
        <time>2022-05-23 09:37:21</time>
      </trkpt>
      <trkpt lat="42.15937" lon="0.79093">
        <ele>1089.6</ele>
        <time>2022-05-23 09:37:22</time>
      </trkpt>
      <trkpt lat="42.15939" lon="0.79093">
        <ele>1089.8</ele>
        <time>2022-05-23 09:37:23</time>
      </trkpt>
      <trkpt lat="42.15941" lon="0.79093">
        <ele>1090</ele>
        <time>2022-05-23 09:37:24</time>
      </trkpt>
      <trkpt lat="42.15943" lon="0.79094">
        <ele>1090</ele>
        <time>2022-05-23 09:37:25</time>
      </trkpt>
      <trkpt lat="42.15945" lon="0.79094">
        <ele>1090.2</ele>
        <time>2022-05-23 09:37:26</time>
      </trkpt>
      <trkpt lat="42.15946" lon="0.79093">
        <ele>1090.4</ele>
        <time>2022-05-23 09:37:27</time>
      </trkpt>
      <trkpt lat="42.15948" lon="0.79093">
        <ele>1090.6</ele>
        <time>2022-05-23 09:37:28</time>
      </trkpt>
      <trkpt lat="42.1595" lon="0.79093">
        <ele>1090.8</ele>
        <time>2022-05-23 09:37:29</time>
      </trkpt>
      <trkpt lat="42.15952" lon="0.79093">
        <ele>1091</ele>
        <time>2022-05-23 09:37:30</time>
      </trkpt>
      <trkpt lat="42.15954" lon="0.79093">
        <ele>1091.2</ele>
        <time>2022-05-23 09:37:31</time>
      </trkpt>
      <trkpt lat="42.15956" lon="0.79092">
        <ele>1091.2</ele>
        <time>2022-05-23 09:37:32</time>
      </trkpt>
      <trkpt lat="42.15958" lon="0.79092">
        <ele>1091.4</ele>
        <time>2022-05-23 09:37:33</time>
      </trkpt>
      <trkpt lat="42.1596" lon="0.79092">
        <ele>1091.6</ele>
        <time>2022-05-23 09:37:34</time>
      </trkpt>
      <trkpt lat="42.15962" lon="0.79092">
        <ele>1091.6</ele>
        <time>2022-05-23 09:37:35</time>
      </trkpt>
      <trkpt lat="42.15964" lon="0.79091">
        <ele>1091.8</ele>
        <time>2022-05-23 09:37:36</time>
      </trkpt>
      <trkpt lat="42.15966" lon="0.79091">
        <ele>1092</ele>
        <time>2022-05-23 09:37:37</time>
      </trkpt>
      <trkpt lat="42.15968" lon="0.79091">
        <ele>1092.2</ele>
        <time>2022-05-23 09:37:38</time>
      </trkpt>
      <trkpt lat="42.1597" lon="0.79091">
        <ele>1092.4</ele>
        <time>2022-05-23 09:37:39</time>
      </trkpt>
      <trkpt lat="42.15971" lon="0.79091">
        <ele>1092.4</ele>
        <time>2022-05-23 09:37:40</time>
      </trkpt>
      <trkpt lat="42.15973" lon="0.79092">
        <ele>1092.6</ele>
        <time>2022-05-23 09:37:41</time>
      </trkpt>
      <trkpt lat="42.15975" lon="0.79092">
        <ele>1092.8</ele>
        <time>2022-05-23 09:37:42</time>
      </trkpt>
      <trkpt lat="42.15976" lon="0.79092">
        <ele>1093</ele>
        <time>2022-05-23 09:37:43</time>
      </trkpt>
      <trkpt lat="42.15979" lon="0.79092">
        <ele>1093.2</ele>
        <time>2022-05-23 09:37:44</time>
      </trkpt>
      <trkpt lat="42.1598" lon="0.79092">
        <ele>1093.4</ele>
        <time>2022-05-23 09:37:45</time>
      </trkpt>
      <trkpt lat="42.15983" lon="0.79092">
        <ele>1093.6</ele>
        <time>2022-05-23 09:37:46</time>
      </trkpt>
      <trkpt lat="42.15984" lon="0.79092">
        <ele>1093.8</ele>
        <time>2022-05-23 09:37:47</time>
      </trkpt>
      <trkpt lat="42.15986" lon="0.79092">
        <ele>1094</ele>
        <time>2022-05-23 09:37:48</time>
      </trkpt>
      <trkpt lat="42.15988" lon="0.79092">
        <ele>1094.2</ele>
        <time>2022-05-23 09:37:49</time>
      </trkpt>
      <trkpt lat="42.1599" lon="0.79092">
        <ele>1094.4</ele>
        <time>2022-05-23 09:37:50</time>
      </trkpt>
      <trkpt lat="42.15992" lon="0.79092">
        <ele>1094.6</ele>
        <time>2022-05-23 09:37:51</time>
      </trkpt>
      <trkpt lat="42.15994" lon="0.79092">
        <ele>1094.8</ele>
        <time>2022-05-23 09:37:52</time>
      </trkpt>
      <trkpt lat="42.15996" lon="0.79092">
        <ele>1094.8</ele>
        <time>2022-05-23 09:37:53</time>
      </trkpt>
      <trkpt lat="42.15997" lon="0.79092">
        <ele>1095</ele>
        <time>2022-05-23 09:37:54</time>
      </trkpt>
      <trkpt lat="42.15999" lon="0.79093">
        <ele>1095.2</ele>
        <time>2022-05-23 09:37:55</time>
      </trkpt>
      <trkpt lat="42.16001" lon="0.79093">
        <ele>1095.4</ele>
        <time>2022-05-23 09:37:56</time>
      </trkpt>
      <trkpt lat="42.16003" lon="0.79093">
        <ele>1095.8</ele>
        <time>2022-05-23 09:37:57</time>
      </trkpt>
      <trkpt lat="42.16005" lon="0.79093">
        <ele>1096</ele>
        <time>2022-05-23 09:37:58</time>
      </trkpt>
      <trkpt lat="42.16007" lon="0.79093">
        <ele>1096.2</ele>
        <time>2022-05-23 09:37:59</time>
      </trkpt>
      <trkpt lat="42.16008" lon="0.79093">
        <ele>1096.2</ele>
        <time>2022-05-23 09:38:00</time>
      </trkpt>
      <trkpt lat="42.1601" lon="0.79093">
        <ele>1096.4</ele>
        <time>2022-05-23 09:38:01</time>
      </trkpt>
      <trkpt lat="42.16012" lon="0.79093">
        <ele>1096.6</ele>
        <time>2022-05-23 09:38:02</time>
      </trkpt>
      <trkpt lat="42.16014" lon="0.79093">
        <ele>1096.8</ele>
        <time>2022-05-23 09:38:03</time>
      </trkpt>
      <trkpt lat="42.16016" lon="0.79093">
        <ele>1096.8</ele>
        <time>2022-05-23 09:38:04</time>
      </trkpt>
      <trkpt lat="42.16018" lon="0.79093">
        <ele>1097</ele>
        <time>2022-05-23 09:38:05</time>
      </trkpt>
      <trkpt lat="42.1602" lon="0.79093">
        <ele>1097.2</ele>
        <time>2022-05-23 09:38:06</time>
      </trkpt>
      <trkpt lat="42.16022" lon="0.79093">
        <ele>1097.4</ele>
        <time>2022-05-23 09:38:07</time>
      </trkpt>
      <trkpt lat="42.16024" lon="0.79093">
        <ele>1097.6</ele>
        <time>2022-05-23 09:38:08</time>
      </trkpt>
      <trkpt lat="42.16026" lon="0.79092">
        <ele>1097.6</ele>
        <time>2022-05-23 09:38:09</time>
      </trkpt>
      <trkpt lat="42.16028" lon="0.79092">
        <ele>1097.8</ele>
        <time>2022-05-23 09:38:10</time>
      </trkpt>
      <trkpt lat="42.1603" lon="0.79092">
        <ele>1098</ele>
        <time>2022-05-23 09:38:11</time>
      </trkpt>
      <trkpt lat="42.16032" lon="0.79092">
        <ele>1098.2</ele>
        <time>2022-05-23 09:38:12</time>
      </trkpt>
      <trkpt lat="42.16034" lon="0.79091">
        <ele>1098.4</ele>
        <time>2022-05-23 09:38:13</time>
      </trkpt>
      <trkpt lat="42.16036" lon="0.7909">
        <ele>1098.6</ele>
        <time>2022-05-23 09:38:14</time>
      </trkpt>
      <trkpt lat="42.16039" lon="0.7909">
        <ele>1098.8</ele>
        <time>2022-05-23 09:38:15</time>
      </trkpt>
      <trkpt lat="42.16041" lon="0.79089">
        <ele>1099</ele>
        <time>2022-05-23 09:38:16</time>
      </trkpt>
      <trkpt lat="42.16043" lon="0.79089">
        <ele>1099.2</ele>
        <time>2022-05-23 09:38:17</time>
      </trkpt>
      <trkpt lat="42.16045" lon="0.79088">
        <ele>1099.4</ele>
        <time>2022-05-23 09:38:18</time>
      </trkpt>
      <trkpt lat="42.16048" lon="0.79087">
        <ele>1099.6</ele>
        <time>2022-05-23 09:38:19</time>
      </trkpt>
      <trkpt lat="42.1605" lon="0.79086">
        <ele>1099.6</ele>
        <time>2022-05-23 09:38:20</time>
      </trkpt>
      <trkpt lat="42.16052" lon="0.79085">
        <ele>1099.8</ele>
        <time>2022-05-23 09:38:21</time>
      </trkpt>
      <trkpt lat="42.16055" lon="0.79084">
        <ele>1100</ele>
        <time>2022-05-23 09:38:22</time>
      </trkpt>
      <trkpt lat="42.16057" lon="0.79083">
        <ele>1100</ele>
        <time>2022-05-23 09:38:23</time>
      </trkpt>
      <trkpt lat="42.1606" lon="0.79082">
        <ele>1100.2</ele>
        <time>2022-05-23 09:38:24</time>
      </trkpt>
      <trkpt lat="42.16062" lon="0.79081">
        <ele>1100.4</ele>
        <time>2022-05-23 09:38:25</time>
      </trkpt>
      <trkpt lat="42.16065" lon="0.7908">
        <ele>1100.6</ele>
        <time>2022-05-23 09:38:26</time>
      </trkpt>
      <trkpt lat="42.16067" lon="0.79078">
        <ele>1100.6</ele>
        <time>2022-05-23 09:38:27</time>
      </trkpt>
      <trkpt lat="42.1607" lon="0.79077">
        <ele>1100.8</ele>
        <time>2022-05-23 09:38:28</time>
      </trkpt>
      <trkpt lat="42.16072" lon="0.79075">
        <ele>1101</ele>
        <time>2022-05-23 09:38:29</time>
      </trkpt>
      <trkpt lat="42.16074" lon="0.79073">
        <ele>1101.2</ele>
        <time>2022-05-23 09:38:30</time>
      </trkpt>
      <trkpt lat="42.16077" lon="0.79072">
        <ele>1101.2</ele>
        <time>2022-05-23 09:38:31</time>
      </trkpt>
      <trkpt lat="42.16079" lon="0.7907">
        <ele>1101.2</ele>
        <time>2022-05-23 09:38:32</time>
      </trkpt>
      <trkpt lat="42.16081" lon="0.79068">
        <ele>1101.4</ele>
        <time>2022-05-23 09:38:33</time>
      </trkpt>
      <trkpt lat="42.16083" lon="0.79065">
        <ele>1101.4</ele>
        <time>2022-05-23 09:38:34</time>
      </trkpt>
      <trkpt lat="42.16085" lon="0.79063">
        <ele>1101.6</ele>
        <time>2022-05-23 09:38:35</time>
      </trkpt>
      <trkpt lat="42.16087" lon="0.79061">
        <ele>1101.8</ele>
        <time>2022-05-23 09:38:36</time>
      </trkpt>
      <trkpt lat="42.16089" lon="0.79059">
        <ele>1102</ele>
        <time>2022-05-23 09:38:37</time>
      </trkpt>
      <trkpt lat="42.16091" lon="0.79057">
        <ele>1102.2</ele>
        <time>2022-05-23 09:38:38</time>
      </trkpt>
      <trkpt lat="42.16093" lon="0.79055">
        <ele>1102.2</ele>
        <time>2022-05-23 09:38:39</time>
      </trkpt>
      <trkpt lat="42.16094" lon="0.79052">
        <ele>1102.4</ele>
        <time>2022-05-23 09:38:40</time>
      </trkpt>
      <trkpt lat="42.16096" lon="0.79049">
        <ele>1102.6</ele>
        <time>2022-05-23 09:38:41</time>
      </trkpt>
      <trkpt lat="42.16098" lon="0.79047">
        <ele>1102.6</ele>
        <time>2022-05-23 09:38:42</time>
      </trkpt>
      <trkpt lat="42.161" lon="0.79044">
        <ele>1102.8</ele>
        <time>2022-05-23 09:38:43</time>
      </trkpt>
      <trkpt lat="42.16102" lon="0.79042">
        <ele>1103</ele>
        <time>2022-05-23 09:38:44</time>
      </trkpt>
      <trkpt lat="42.16103" lon="0.7904">
        <ele>1103.2</ele>
        <time>2022-05-23 09:38:45</time>
      </trkpt>
      <trkpt lat="42.16105" lon="0.79037">
        <ele>1103.2</ele>
        <time>2022-05-23 09:38:46</time>
      </trkpt>
      <trkpt lat="42.16107" lon="0.79034">
        <ele>1103.4</ele>
        <time>2022-05-23 09:38:47</time>
      </trkpt>
      <trkpt lat="42.16109" lon="0.79031">
        <ele>1103.4</ele>
        <time>2022-05-23 09:38:48</time>
      </trkpt>
      <trkpt lat="42.1611" lon="0.79029">
        <ele>1103.6</ele>
        <time>2022-05-23 09:38:49</time>
      </trkpt>
      <trkpt lat="42.16112" lon="0.79026">
        <ele>1103.8</ele>
        <time>2022-05-23 09:38:50</time>
      </trkpt>
      <trkpt lat="42.16113" lon="0.79024">
        <ele>1103.8</ele>
        <time>2022-05-23 09:38:51</time>
      </trkpt>
      <trkpt lat="42.16116" lon="0.79021">
        <ele>1104</ele>
        <time>2022-05-23 09:38:52</time>
      </trkpt>
      <trkpt lat="42.16118" lon="0.79017">
        <ele>1104.2</ele>
        <time>2022-05-23 09:38:53</time>
      </trkpt>
      <trkpt lat="42.1612" lon="0.79014">
        <ele>1104.2</ele>
        <time>2022-05-23 09:38:54</time>
      </trkpt>
      <trkpt lat="42.16123" lon="0.79011">
        <ele>1104.4</ele>
        <time>2022-05-23 09:38:55</time>
      </trkpt>
      <trkpt lat="42.16125" lon="0.79008">
        <ele>1104.6</ele>
        <time>2022-05-23 09:38:56</time>
      </trkpt>
      <trkpt lat="42.16127" lon="0.79005">
        <ele>1104.8</ele>
        <time>2022-05-23 09:38:57</time>
      </trkpt>
      <trkpt lat="42.16128" lon="0.79001">
        <ele>1105</ele>
        <time>2022-05-23 09:38:58</time>
      </trkpt>
      <trkpt lat="42.1613" lon="0.78997">
        <ele>1105</ele>
        <time>2022-05-23 09:38:59</time>
      </trkpt>
      <trkpt lat="42.16131" lon="0.78994">
        <ele>1105.2</ele>
        <time>2022-05-23 09:39:00</time>
      </trkpt>
      <trkpt lat="42.16132" lon="0.78991">
        <ele>1105.4</ele>
        <time>2022-05-23 09:39:01</time>
      </trkpt>
      <trkpt lat="42.16134" lon="0.78988">
        <ele>1105.6</ele>
        <time>2022-05-23 09:39:02</time>
      </trkpt>
      <trkpt lat="42.16135" lon="0.78985">
        <ele>1105.8</ele>
        <time>2022-05-23 09:39:03</time>
      </trkpt>
      <trkpt lat="42.16136" lon="0.78982">
        <ele>1106</ele>
        <time>2022-05-23 09:39:04</time>
      </trkpt>
      <trkpt lat="42.16138" lon="0.78979">
        <ele>1106.2</ele>
        <time>2022-05-23 09:39:05</time>
      </trkpt>
      <trkpt lat="42.16139" lon="0.78976">
        <ele>1106.4</ele>
        <time>2022-05-23 09:39:06</time>
      </trkpt>
      <trkpt lat="42.16141" lon="0.78974">
        <ele>1106.6</ele>
        <time>2022-05-23 09:39:07</time>
      </trkpt>
      <trkpt lat="42.16142" lon="0.78971">
        <ele>1106.8</ele>
        <time>2022-05-23 09:39:08</time>
      </trkpt>
      <trkpt lat="42.16143" lon="0.78968">
        <ele>1107</ele>
        <time>2022-05-23 09:39:09</time>
      </trkpt>
      <trkpt lat="42.16144" lon="0.78965">
        <ele>1107.2</ele>
        <time>2022-05-23 09:39:10</time>
      </trkpt>
      <trkpt lat="42.16145" lon="0.78962">
        <ele>1107.4</ele>
        <time>2022-05-23 09:39:11</time>
      </trkpt>
      <trkpt lat="42.16147" lon="0.78959">
        <ele>1107.4</ele>
        <time>2022-05-23 09:39:12</time>
      </trkpt>
      <trkpt lat="42.16148" lon="0.78956">
        <ele>1107.6</ele>
        <time>2022-05-23 09:39:13</time>
      </trkpt>
      <trkpt lat="42.1615" lon="0.78952">
        <ele>1107.8</ele>
        <time>2022-05-23 09:39:14</time>
      </trkpt>
      <trkpt lat="42.16151" lon="0.78949">
        <ele>1108</ele>
        <time>2022-05-23 09:39:15</time>
      </trkpt>
      <trkpt lat="42.16151" lon="0.78946">
        <ele>1108</ele>
        <time>2022-05-23 09:39:16</time>
      </trkpt>
      <trkpt lat="42.16153" lon="0.78943">
        <ele>1108.2</ele>
        <time>2022-05-23 09:39:17</time>
      </trkpt>
      <trkpt lat="42.16155" lon="0.7894">
        <ele>1108.4</ele>
        <time>2022-05-23 09:39:18</time>
      </trkpt>
      <trkpt lat="42.16156" lon="0.78937">
        <ele>1108.6</ele>
        <time>2022-05-23 09:39:19</time>
      </trkpt>
      <trkpt lat="42.16158" lon="0.78934">
        <ele>1108.8</ele>
        <time>2022-05-23 09:39:20</time>
      </trkpt>
      <trkpt lat="42.1616" lon="0.7893">
        <ele>1109</ele>
        <time>2022-05-23 09:39:21</time>
      </trkpt>
      <trkpt lat="42.16162" lon="0.78927">
        <ele>1109.2</ele>
        <time>2022-05-23 09:39:22</time>
      </trkpt>
      <trkpt lat="42.16164" lon="0.78923">
        <ele>1109.2</ele>
        <time>2022-05-23 09:39:23</time>
      </trkpt>
      <trkpt lat="42.16166" lon="0.7892">
        <ele>1109.4</ele>
        <time>2022-05-23 09:39:24</time>
      </trkpt>
      <trkpt lat="42.16168" lon="0.78917">
        <ele>1109.4</ele>
        <time>2022-05-23 09:39:25</time>
      </trkpt>
      <trkpt lat="42.1617" lon="0.78914">
        <ele>1109.6</ele>
        <time>2022-05-23 09:39:26</time>
      </trkpt>
      <trkpt lat="42.16173" lon="0.78911">
        <ele>1109.6</ele>
        <time>2022-05-23 09:39:27</time>
      </trkpt>
      <trkpt lat="42.16175" lon="0.78907">
        <ele>1109.8</ele>
        <time>2022-05-23 09:39:28</time>
      </trkpt>
      <trkpt lat="42.16177" lon="0.78904">
        <ele>1109.8</ele>
        <time>2022-05-23 09:39:29</time>
      </trkpt>
      <trkpt lat="42.1618" lon="0.78901">
        <ele>1109.8</ele>
        <time>2022-05-23 09:39:30</time>
      </trkpt>
      <trkpt lat="42.16182" lon="0.78897">
        <ele>1110</ele>
        <time>2022-05-23 09:39:31</time>
      </trkpt>
      <trkpt lat="42.16185" lon="0.78894">
        <ele>1110</ele>
        <time>2022-05-23 09:39:32</time>
      </trkpt>
      <trkpt lat="42.16188" lon="0.78891">
        <ele>1110</ele>
        <time>2022-05-23 09:39:33</time>
      </trkpt>
      <trkpt lat="42.16191" lon="0.78887">
        <ele>1110</ele>
        <time>2022-05-23 09:39:34</time>
      </trkpt>
      <trkpt lat="42.16194" lon="0.78884">
        <ele>1110</ele>
        <time>2022-05-23 09:39:35</time>
      </trkpt>
      <trkpt lat="42.16196" lon="0.78881">
        <ele>1110</ele>
        <time>2022-05-23 09:39:36</time>
      </trkpt>
      <trkpt lat="42.16199" lon="0.78877">
        <ele>1109.8</ele>
        <time>2022-05-23 09:39:37</time>
      </trkpt>
      <trkpt lat="42.16202" lon="0.78873">
        <ele>1109.8</ele>
        <time>2022-05-23 09:39:38</time>
      </trkpt>
      <trkpt lat="42.16204" lon="0.7887">
        <ele>1109.8</ele>
        <time>2022-05-23 09:39:39</time>
      </trkpt>
      <trkpt lat="42.16206" lon="0.78866">
        <ele>1109.8</ele>
        <time>2022-05-23 09:39:40</time>
      </trkpt>
      <trkpt lat="42.16209" lon="0.78862">
        <ele>1109.8</ele>
        <time>2022-05-23 09:39:41</time>
      </trkpt>
      <trkpt lat="42.16211" lon="0.78858">
        <ele>1109.8</ele>
        <time>2022-05-23 09:39:42</time>
      </trkpt>
      <trkpt lat="42.16214" lon="0.78854">
        <ele>1109.8</ele>
        <time>2022-05-23 09:39:43</time>
      </trkpt>
      <trkpt lat="42.16216" lon="0.7885">
        <ele>1109.8</ele>
        <time>2022-05-23 09:39:44</time>
      </trkpt>
      <trkpt lat="42.16219" lon="0.78846">
        <ele>1109.8</ele>
        <time>2022-05-23 09:39:45</time>
      </trkpt>
      <trkpt lat="42.16221" lon="0.78842">
        <ele>1109.8</ele>
        <time>2022-05-23 09:39:46</time>
      </trkpt>
      <trkpt lat="42.16222" lon="0.78837">
        <ele>1109.8</ele>
        <time>2022-05-23 09:39:47</time>
      </trkpt>
      <trkpt lat="42.16224" lon="0.78832">
        <ele>1109.8</ele>
        <time>2022-05-23 09:39:48</time>
      </trkpt>
      <trkpt lat="42.16225" lon="0.78826">
        <ele>1109.6</ele>
        <time>2022-05-23 09:39:49</time>
      </trkpt>
      <trkpt lat="42.16226" lon="0.7882">
        <ele>1109.6</ele>
        <time>2022-05-23 09:39:50</time>
      </trkpt>
      <trkpt lat="42.16227" lon="0.78814">
        <ele>1109.6</ele>
        <time>2022-05-23 09:39:51</time>
      </trkpt>
      <trkpt lat="42.16227" lon="0.78808">
        <ele>1109.8</ele>
        <time>2022-05-23 09:39:52</time>
      </trkpt>
      <trkpt lat="42.16226" lon="0.78802">
        <ele>1109.8</ele>
        <time>2022-05-23 09:39:53</time>
      </trkpt>
      <trkpt lat="42.16226" lon="0.78796">
        <ele>1109.8</ele>
        <time>2022-05-23 09:39:54</time>
      </trkpt>
      <trkpt lat="42.16226" lon="0.7879">
        <ele>1109.8</ele>
        <time>2022-05-23 09:39:55</time>
      </trkpt>
      <trkpt lat="42.16226" lon="0.78784">
        <ele>1110</ele>
        <time>2022-05-23 09:39:56</time>
      </trkpt>
      <trkpt lat="42.16225" lon="0.78778">
        <ele>1110</ele>
        <time>2022-05-23 09:39:57</time>
      </trkpt>
      <trkpt lat="42.16225" lon="0.78772">
        <ele>1110</ele>
        <time>2022-05-23 09:39:58</time>
      </trkpt>
      <trkpt lat="42.16225" lon="0.78767">
        <ele>1110</ele>
        <time>2022-05-23 09:39:59</time>
      </trkpt>
      <trkpt lat="42.16225" lon="0.7876">
        <ele>1110.2</ele>
        <time>2022-05-23 09:40:00</time>
      </trkpt>
      <trkpt lat="42.16226" lon="0.78754">
        <ele>1110.2</ele>
        <time>2022-05-23 09:40:01</time>
      </trkpt>
      <trkpt lat="42.16227" lon="0.78749">
        <ele>1110.2</ele>
        <time>2022-05-23 09:40:02</time>
      </trkpt>
      <trkpt lat="42.16227" lon="0.78743">
        <ele>1110.2</ele>
        <time>2022-05-23 09:40:03</time>
      </trkpt>
      <trkpt lat="42.16227" lon="0.78737">
        <ele>1110.2</ele>
        <time>2022-05-23 09:40:04</time>
      </trkpt>
      <trkpt lat="42.16227" lon="0.78731">
        <ele>1110.4</ele>
        <time>2022-05-23 09:40:05</time>
      </trkpt>
      <trkpt lat="42.16226" lon="0.78725">
        <ele>1110.4</ele>
        <time>2022-05-23 09:40:06</time>
      </trkpt>
      <trkpt lat="42.16227" lon="0.78719">
        <ele>1110.4</ele>
        <time>2022-05-23 09:40:07</time>
      </trkpt>
      <trkpt lat="42.16227" lon="0.78713">
        <ele>1110.4</ele>
        <time>2022-05-23 09:40:08</time>
      </trkpt>
      <trkpt lat="42.16228" lon="0.78707">
        <ele>1110.6</ele>
        <time>2022-05-23 09:40:09</time>
      </trkpt>
      <trkpt lat="42.16229" lon="0.78702">
        <ele>1110.6</ele>
        <time>2022-05-23 09:40:10</time>
      </trkpt>
      <trkpt lat="42.1623" lon="0.78696">
        <ele>1110.6</ele>
        <time>2022-05-23 09:40:11</time>
      </trkpt>
      <trkpt lat="42.16231" lon="0.7869">
        <ele>1110.4</ele>
        <time>2022-05-23 09:40:12</time>
      </trkpt>
      <trkpt lat="42.16233" lon="0.78684">
        <ele>1110.4</ele>
        <time>2022-05-23 09:40:13</time>
      </trkpt>
      <trkpt lat="42.16234" lon="0.78678">
        <ele>1110.4</ele>
        <time>2022-05-23 09:40:14</time>
      </trkpt>
      <trkpt lat="42.16236" lon="0.78671">
        <ele>1110.4</ele>
        <time>2022-05-23 09:40:15</time>
      </trkpt>
      <trkpt lat="42.16237" lon="0.78665">
        <ele>1110.4</ele>
        <time>2022-05-23 09:40:16</time>
      </trkpt>
      <trkpt lat="42.16238" lon="0.78659">
        <ele>1110.2</ele>
        <time>2022-05-23 09:40:17</time>
      </trkpt>
      <trkpt lat="42.16239" lon="0.78652">
        <ele>1110.2</ele>
        <time>2022-05-23 09:40:18</time>
      </trkpt>
      <trkpt lat="42.1624" lon="0.78646">
        <ele>1110.2</ele>
        <time>2022-05-23 09:40:19</time>
      </trkpt>
      <trkpt lat="42.1624" lon="0.7864">
        <ele>1110.2</ele>
        <time>2022-05-23 09:40:20</time>
      </trkpt>
      <trkpt lat="42.16239" lon="0.78633">
        <ele>1110.2</ele>
        <time>2022-05-23 09:40:21</time>
      </trkpt>
      <trkpt lat="42.16238" lon="0.78627">
        <ele>1110.2</ele>
        <time>2022-05-23 09:40:22</time>
      </trkpt>
      <trkpt lat="42.16236" lon="0.78621">
        <ele>1110.4</ele>
        <time>2022-05-23 09:40:23</time>
      </trkpt>
      <trkpt lat="42.16235" lon="0.78615">
        <ele>1110.4</ele>
        <time>2022-05-23 09:40:24</time>
      </trkpt>
      <trkpt lat="42.16234" lon="0.78609">
        <ele>1110.6</ele>
        <time>2022-05-23 09:40:25</time>
      </trkpt>
      <trkpt lat="42.16233" lon="0.78603">
        <ele>1110.8</ele>
        <time>2022-05-23 09:40:26</time>
      </trkpt>
      <trkpt lat="42.16231" lon="0.78598">
        <ele>1110.8</ele>
        <time>2022-05-23 09:40:27</time>
      </trkpt>
      <trkpt lat="42.16228" lon="0.78593">
        <ele>1111</ele>
        <time>2022-05-23 09:40:28</time>
      </trkpt>
      <trkpt lat="42.16227" lon="0.78588">
        <ele>1111</ele>
        <time>2022-05-23 09:40:29</time>
      </trkpt>
      <trkpt lat="42.16225" lon="0.78583">
        <ele>1111.2</ele>
        <time>2022-05-23 09:40:30</time>
      </trkpt>
      <trkpt lat="42.16223" lon="0.78577">
        <ele>1111.4</ele>
        <time>2022-05-23 09:40:31</time>
      </trkpt>
      <trkpt lat="42.16222" lon="0.78572">
        <ele>1111.6</ele>
        <time>2022-05-23 09:40:32</time>
      </trkpt>
      <trkpt lat="42.1622" lon="0.78567">
        <ele>1111.8</ele>
        <time>2022-05-23 09:40:33</time>
      </trkpt>
      <trkpt lat="42.16218" lon="0.78562">
        <ele>1112</ele>
        <time>2022-05-23 09:40:34</time>
      </trkpt>
      <trkpt lat="42.16216" lon="0.78557">
        <ele>1112.2</ele>
        <time>2022-05-23 09:40:35</time>
      </trkpt>
      <trkpt lat="42.16214" lon="0.78552">
        <ele>1112.4</ele>
        <time>2022-05-23 09:40:36</time>
      </trkpt>
      <trkpt lat="42.16213" lon="0.78548">
        <ele>1112.8</ele>
        <time>2022-05-23 09:40:37</time>
      </trkpt>
      <trkpt lat="42.16211" lon="0.78544">
        <ele>1113</ele>
        <time>2022-05-23 09:40:38</time>
      </trkpt>
      <trkpt lat="42.1621" lon="0.7854">
        <ele>1113.2</ele>
        <time>2022-05-23 09:40:39</time>
      </trkpt>
      <trkpt lat="42.16209" lon="0.78536">
        <ele>1113.4</ele>
        <time>2022-05-23 09:40:40</time>
      </trkpt>
      <trkpt lat="42.16208" lon="0.78532">
        <ele>1113.6</ele>
        <time>2022-05-23 09:40:41</time>
      </trkpt>
      <trkpt lat="42.16207" lon="0.78528">
        <ele>1113.8</ele>
        <time>2022-05-23 09:40:42</time>
      </trkpt>
      <trkpt lat="42.16206" lon="0.78524">
        <ele>1114</ele>
        <time>2022-05-23 09:40:43</time>
      </trkpt>
      <trkpt lat="42.16204" lon="0.78521">
        <ele>1114.2</ele>
        <time>2022-05-23 09:40:44</time>
      </trkpt>
      <trkpt lat="42.16203" lon="0.78518">
        <ele>1114.4</ele>
        <time>2022-05-23 09:40:45</time>
      </trkpt>
      <trkpt lat="42.16202" lon="0.78515">
        <ele>1114.6</ele>
        <time>2022-05-23 09:40:46</time>
      </trkpt>
      <trkpt lat="42.16201" lon="0.78512">
        <ele>1115</ele>
        <time>2022-05-23 09:40:47</time>
      </trkpt>
      <trkpt lat="42.162" lon="0.78509">
        <ele>1115.2</ele>
        <time>2022-05-23 09:40:48</time>
      </trkpt>
      <trkpt lat="42.16199" lon="0.78506">
        <ele>1115.4</ele>
        <time>2022-05-23 09:40:49</time>
      </trkpt>
      <trkpt lat="42.16198" lon="0.78502">
        <ele>1115.6</ele>
        <time>2022-05-23 09:40:50</time>
      </trkpt>
      <trkpt lat="42.16196" lon="0.78499">
        <ele>1115.8</ele>
        <time>2022-05-23 09:40:51</time>
      </trkpt>
      <trkpt lat="42.16195" lon="0.78497">
        <ele>1116</ele>
        <time>2022-05-23 09:40:52</time>
      </trkpt>
      <trkpt lat="42.16194" lon="0.78494">
        <ele>1116.2</ele>
        <time>2022-05-23 09:40:53</time>
      </trkpt>
      <trkpt lat="42.16193" lon="0.7849">
        <ele>1116.2</ele>
        <time>2022-05-23 09:40:54</time>
      </trkpt>
      <trkpt lat="42.16191" lon="0.78487">
        <ele>1116.4</ele>
        <time>2022-05-23 09:40:55</time>
      </trkpt>
      <trkpt lat="42.1619" lon="0.78484">
        <ele>1116.6</ele>
        <time>2022-05-23 09:40:56</time>
      </trkpt>
      <trkpt lat="42.1619" lon="0.78481">
        <ele>1116.8</ele>
        <time>2022-05-23 09:40:57</time>
      </trkpt>
      <trkpt lat="42.16189" lon="0.78478">
        <ele>1117</ele>
        <time>2022-05-23 09:40:58</time>
      </trkpt>
      <trkpt lat="42.16188" lon="0.78475">
        <ele>1117.2</ele>
        <time>2022-05-23 09:40:59</time>
      </trkpt>
      <trkpt lat="42.16187" lon="0.78472">
        <ele>1117.6</ele>
        <time>2022-05-23 09:41:00</time>
      </trkpt>
      <trkpt lat="42.16186" lon="0.7847">
        <ele>1117.8</ele>
        <time>2022-05-23 09:41:01</time>
      </trkpt>
      <trkpt lat="42.16185" lon="0.78467">
        <ele>1118</ele>
        <time>2022-05-23 09:41:02</time>
      </trkpt>
      <trkpt lat="42.16184" lon="0.78464">
        <ele>1118.2</ele>
        <time>2022-05-23 09:41:03</time>
      </trkpt>
      <trkpt lat="42.16183" lon="0.78462">
        <ele>1118.4</ele>
        <time>2022-05-23 09:41:04</time>
      </trkpt>
      <trkpt lat="42.16182" lon="0.78459">
        <ele>1118.6</ele>
        <time>2022-05-23 09:41:05</time>
      </trkpt>
      <trkpt lat="42.16182" lon="0.78455">
        <ele>1118.8</ele>
        <time>2022-05-23 09:41:06</time>
      </trkpt>
      <trkpt lat="42.1618" lon="0.78453">
        <ele>1118.8</ele>
        <time>2022-05-23 09:41:07</time>
      </trkpt>
      <trkpt lat="42.1618" lon="0.7845">
        <ele>1119</ele>
        <time>2022-05-23 09:41:08</time>
      </trkpt>
      <trkpt lat="42.16178" lon="0.78447">
        <ele>1119.2</ele>
        <time>2022-05-23 09:41:09</time>
      </trkpt>
      <trkpt lat="42.16177" lon="0.78444">
        <ele>1119.4</ele>
        <time>2022-05-23 09:41:10</time>
      </trkpt>
      <trkpt lat="42.16176" lon="0.78441">
        <ele>1119.8</ele>
        <time>2022-05-23 09:41:11</time>
      </trkpt>
      <trkpt lat="42.16175" lon="0.78438">
        <ele>1120</ele>
        <time>2022-05-23 09:41:12</time>
      </trkpt>
      <trkpt lat="42.16174" lon="0.78435">
        <ele>1120.2</ele>
        <time>2022-05-23 09:41:13</time>
      </trkpt>
      <trkpt lat="42.16173" lon="0.78432">
        <ele>1120.4</ele>
        <time>2022-05-23 09:41:14</time>
      </trkpt>
      <trkpt lat="42.16172" lon="0.78429">
        <ele>1120.6</ele>
        <time>2022-05-23 09:41:15</time>
      </trkpt>
      <trkpt lat="42.16171" lon="0.78426">
        <ele>1120.8</ele>
        <time>2022-05-23 09:41:16</time>
      </trkpt>
      <trkpt lat="42.1617" lon="0.78423">
        <ele>1121</ele>
        <time>2022-05-23 09:41:17</time>
      </trkpt>
      <trkpt lat="42.16169" lon="0.7842">
        <ele>1121.2</ele>
        <time>2022-05-23 09:41:18</time>
      </trkpt>
      <trkpt lat="42.16168" lon="0.78416">
        <ele>1121.4</ele>
        <time>2022-05-23 09:41:19</time>
      </trkpt>
      <trkpt lat="42.16167" lon="0.78413">
        <ele>1121.6</ele>
        <time>2022-05-23 09:41:20</time>
      </trkpt>
      <trkpt lat="42.16166" lon="0.7841">
        <ele>1121.8</ele>
        <time>2022-05-23 09:41:21</time>
      </trkpt>
      <trkpt lat="42.16165" lon="0.78407">
        <ele>1122</ele>
        <time>2022-05-23 09:41:22</time>
      </trkpt>
      <trkpt lat="42.16164" lon="0.78404">
        <ele>1122.2</ele>
        <time>2022-05-23 09:41:23</time>
      </trkpt>
      <trkpt lat="42.16163" lon="0.78401">
        <ele>1122.4</ele>
        <time>2022-05-23 09:41:24</time>
      </trkpt>
      <trkpt lat="42.16162" lon="0.78398">
        <ele>1122.6</ele>
        <time>2022-05-23 09:41:25</time>
      </trkpt>
      <trkpt lat="42.16161" lon="0.78395">
        <ele>1122.8</ele>
        <time>2022-05-23 09:41:26</time>
      </trkpt>
      <trkpt lat="42.16161" lon="0.78392">
        <ele>1123</ele>
        <time>2022-05-23 09:41:27</time>
      </trkpt>
      <trkpt lat="42.1616" lon="0.7839">
        <ele>1123.2</ele>
        <time>2022-05-23 09:41:28</time>
      </trkpt>
      <trkpt lat="42.16159" lon="0.78387">
        <ele>1123.4</ele>
        <time>2022-05-23 09:41:29</time>
      </trkpt>
      <trkpt lat="42.16159" lon="0.78383">
        <ele>1123.6</ele>
        <time>2022-05-23 09:41:30</time>
      </trkpt>
      <trkpt lat="42.16158" lon="0.7838">
        <ele>1123.8</ele>
        <time>2022-05-23 09:41:31</time>
      </trkpt>
      <trkpt lat="42.16158" lon="0.78376">
        <ele>1124</ele>
        <time>2022-05-23 09:41:32</time>
      </trkpt>
      <trkpt lat="42.16157" lon="0.78373">
        <ele>1124.2</ele>
        <time>2022-05-23 09:41:33</time>
      </trkpt>
      <trkpt lat="42.16156" lon="0.7837">
        <ele>1124.4</ele>
        <time>2022-05-23 09:41:34</time>
      </trkpt>
      <trkpt lat="42.16156" lon="0.78367">
        <ele>1124.6</ele>
        <time>2022-05-23 09:41:35</time>
      </trkpt>
      <trkpt lat="42.16156" lon="0.78364">
        <ele>1124.6</ele>
        <time>2022-05-23 09:41:36</time>
      </trkpt>
      <trkpt lat="42.16155" lon="0.7836">
        <ele>1124.8</ele>
        <time>2022-05-23 09:41:37</time>
      </trkpt>
      <trkpt lat="42.16155" lon="0.78357">
        <ele>1125</ele>
        <time>2022-05-23 09:41:38</time>
      </trkpt>
      <trkpt lat="42.16154" lon="0.78353">
        <ele>1125</ele>
        <time>2022-05-23 09:41:39</time>
      </trkpt>
      <trkpt lat="42.16154" lon="0.7835">
        <ele>1125.2</ele>
        <time>2022-05-23 09:41:40</time>
      </trkpt>
      <trkpt lat="42.16154" lon="0.78346">
        <ele>1125.2</ele>
        <time>2022-05-23 09:41:41</time>
      </trkpt>
      <trkpt lat="42.16154" lon="0.78342">
        <ele>1125.4</ele>
        <time>2022-05-23 09:41:42</time>
      </trkpt>
      <trkpt lat="42.16154" lon="0.78339">
        <ele>1125.4</ele>
        <time>2022-05-23 09:41:43</time>
      </trkpt>
      <trkpt lat="42.16154" lon="0.78335">
        <ele>1125.6</ele>
        <time>2022-05-23 09:41:44</time>
      </trkpt>
      <trkpt lat="42.16154" lon="0.78331">
        <ele>1125.8</ele>
        <time>2022-05-23 09:41:45</time>
      </trkpt>
      <trkpt lat="42.16154" lon="0.78328">
        <ele>1126.2</ele>
        <time>2022-05-23 09:41:46</time>
      </trkpt>
      <trkpt lat="42.16155" lon="0.78325">
        <ele>1126.4</ele>
        <time>2022-05-23 09:41:47</time>
      </trkpt>
      <trkpt lat="42.16155" lon="0.78322">
        <ele>1126.6</ele>
        <time>2022-05-23 09:41:48</time>
      </trkpt>
      <trkpt lat="42.16155" lon="0.78318">
        <ele>1126.8</ele>
        <time>2022-05-23 09:41:49</time>
      </trkpt>
      <trkpt lat="42.16156" lon="0.78315">
        <ele>1126.8</ele>
        <time>2022-05-23 09:41:50</time>
      </trkpt>
      <trkpt lat="42.16156" lon="0.78311">
        <ele>1127</ele>
        <time>2022-05-23 09:41:51</time>
      </trkpt>
      <trkpt lat="42.16156" lon="0.78307">
        <ele>1127</ele>
        <time>2022-05-23 09:41:52</time>
      </trkpt>
      <trkpt lat="42.16156" lon="0.78303">
        <ele>1127.2</ele>
        <time>2022-05-23 09:41:53</time>
      </trkpt>
      <trkpt lat="42.16157" lon="0.78299">
        <ele>1127.2</ele>
        <time>2022-05-23 09:41:54</time>
      </trkpt>
      <trkpt lat="42.16158" lon="0.78295">
        <ele>1127.2</ele>
        <time>2022-05-23 09:41:55</time>
      </trkpt>
      <trkpt lat="42.16158" lon="0.7829">
        <ele>1127.2</ele>
        <time>2022-05-23 09:41:56</time>
      </trkpt>
      <trkpt lat="42.1616" lon="0.78285">
        <ele>1127.2</ele>
        <time>2022-05-23 09:41:57</time>
      </trkpt>
      <trkpt lat="42.16161" lon="0.7828">
        <ele>1127.2</ele>
        <time>2022-05-23 09:41:58</time>
      </trkpt>
      <trkpt lat="42.16164" lon="0.78275">
        <ele>1127.2</ele>
        <time>2022-05-23 09:41:59</time>
      </trkpt>
      <trkpt lat="42.16166" lon="0.7827">
        <ele>1127.2</ele>
        <time>2022-05-23 09:42:00</time>
      </trkpt>
      <trkpt lat="42.16167" lon="0.78264">
        <ele>1127.2</ele>
        <time>2022-05-23 09:42:01</time>
      </trkpt>
      <trkpt lat="42.1617" lon="0.78258">
        <ele>1127</ele>
        <time>2022-05-23 09:42:02</time>
      </trkpt>
      <trkpt lat="42.16174" lon="0.78252">
        <ele>1127</ele>
        <time>2022-05-23 09:42:03</time>
      </trkpt>
      <trkpt lat="42.16177" lon="0.78247">
        <ele>1127</ele>
        <time>2022-05-23 09:42:04</time>
      </trkpt>
      <trkpt lat="42.1618" lon="0.78242">
        <ele>1127</ele>
        <time>2022-05-23 09:42:05</time>
      </trkpt>
      <trkpt lat="42.16182" lon="0.78237">
        <ele>1127</ele>
        <time>2022-05-23 09:42:06</time>
      </trkpt>
      <trkpt lat="42.16185" lon="0.78232">
        <ele>1127</ele>
        <time>2022-05-23 09:42:07</time>
      </trkpt>
      <trkpt lat="42.16188" lon="0.78227">
        <ele>1127</ele>
        <time>2022-05-23 09:42:08</time>
      </trkpt>
      <trkpt lat="42.16192" lon="0.78223">
        <ele>1127</ele>
        <time>2022-05-23 09:42:09</time>
      </trkpt>
      <trkpt lat="42.16195" lon="0.78219">
        <ele>1127</ele>
        <time>2022-05-23 09:42:10</time>
      </trkpt>
      <trkpt lat="42.16198" lon="0.78214">
        <ele>1127</ele>
        <time>2022-05-23 09:42:11</time>
      </trkpt>
      <trkpt lat="42.16202" lon="0.7821">
        <ele>1126.8</ele>
        <time>2022-05-23 09:42:12</time>
      </trkpt>
      <trkpt lat="42.16205" lon="0.78205">
        <ele>1126.8</ele>
        <time>2022-05-23 09:42:13</time>
      </trkpt>
      <trkpt lat="42.16208" lon="0.78201">
        <ele>1126.8</ele>
        <time>2022-05-23 09:42:14</time>
      </trkpt>
      <trkpt lat="42.16211" lon="0.78197">
        <ele>1126.6</ele>
        <time>2022-05-23 09:42:15</time>
      </trkpt>
      <trkpt lat="42.16215" lon="0.78192">
        <ele>1126.6</ele>
        <time>2022-05-23 09:42:16</time>
      </trkpt>
      <trkpt lat="42.16218" lon="0.78188">
        <ele>1126.4</ele>
        <time>2022-05-23 09:42:17</time>
      </trkpt>
      <trkpt lat="42.16222" lon="0.78183">
        <ele>1126.2</ele>
        <time>2022-05-23 09:42:18</time>
      </trkpt>
      <trkpt lat="42.16226" lon="0.78178">
        <ele>1126.2</ele>
        <time>2022-05-23 09:42:19</time>
      </trkpt>
      <trkpt lat="42.1623" lon="0.78173">
        <ele>1126</ele>
        <time>2022-05-23 09:42:20</time>
      </trkpt>
      <trkpt lat="42.16234" lon="0.78167">
        <ele>1126</ele>
        <time>2022-05-23 09:42:21</time>
      </trkpt>
      <trkpt lat="42.16237" lon="0.78161">
        <ele>1125.8</ele>
        <time>2022-05-23 09:42:22</time>
      </trkpt>
      <trkpt lat="42.16241" lon="0.78156">
        <ele>1125.8</ele>
        <time>2022-05-23 09:42:23</time>
      </trkpt>
      <trkpt lat="42.16245" lon="0.7815">
        <ele>1126</ele>
        <time>2022-05-23 09:42:24</time>
      </trkpt>
      <trkpt lat="42.16249" lon="0.78145">
        <ele>1126</ele>
        <time>2022-05-23 09:42:25</time>
      </trkpt>
      <trkpt lat="42.16253" lon="0.78139">
        <ele>1126</ele>
        <time>2022-05-23 09:42:26</time>
      </trkpt>
      <trkpt lat="42.16256" lon="0.78134">
        <ele>1126.2</ele>
        <time>2022-05-23 09:42:27</time>
      </trkpt>
      <trkpt lat="42.1626" lon="0.78128">
        <ele>1126.4</ele>
        <time>2022-05-23 09:42:28</time>
      </trkpt>
      <trkpt lat="42.16263" lon="0.78123">
        <ele>1126.8</ele>
        <time>2022-05-23 09:42:29</time>
      </trkpt>
      <trkpt lat="42.16266" lon="0.78117">
        <ele>1127</ele>
        <time>2022-05-23 09:42:30</time>
      </trkpt>
      <trkpt lat="42.16269" lon="0.78112">
        <ele>1127.2</ele>
        <time>2022-05-23 09:42:31</time>
      </trkpt>
      <trkpt lat="42.16272" lon="0.78106">
        <ele>1127.4</ele>
        <time>2022-05-23 09:42:32</time>
      </trkpt>
      <trkpt lat="42.16275" lon="0.78101">
        <ele>1127.8</ele>
        <time>2022-05-23 09:42:33</time>
      </trkpt>
      <trkpt lat="42.16277" lon="0.78096">
        <ele>1128</ele>
        <time>2022-05-23 09:42:34</time>
      </trkpt>
      <trkpt lat="42.16279" lon="0.78091">
        <ele>1128.2</ele>
        <time>2022-05-23 09:42:35</time>
      </trkpt>
      <trkpt lat="42.16282" lon="0.78086">
        <ele>1128.4</ele>
        <time>2022-05-23 09:42:36</time>
      </trkpt>
      <trkpt lat="42.16283" lon="0.7808">
        <ele>1128.4</ele>
        <time>2022-05-23 09:42:37</time>
      </trkpt>
      <trkpt lat="42.16285" lon="0.78074">
        <ele>1128.4</ele>
        <time>2022-05-23 09:42:38</time>
      </trkpt>
      <trkpt lat="42.16287" lon="0.78067">
        <ele>1128.4</ele>
        <time>2022-05-23 09:42:39</time>
      </trkpt>
      <trkpt lat="42.16288" lon="0.7806">
        <ele>1128.4</ele>
        <time>2022-05-23 09:42:40</time>
      </trkpt>
      <trkpt lat="42.1629" lon="0.78052">
        <ele>1128.4</ele>
        <time>2022-05-23 09:42:41</time>
      </trkpt>
      <trkpt lat="42.1629" lon="0.78044">
        <ele>1128.2</ele>
        <time>2022-05-23 09:42:42</time>
      </trkpt>
      <trkpt lat="42.1629" lon="0.78035">
        <ele>1128</ele>
        <time>2022-05-23 09:42:43</time>
      </trkpt>
      <trkpt lat="42.1629" lon="0.78026">
        <ele>1127.8</ele>
        <time>2022-05-23 09:42:44</time>
      </trkpt>
      <trkpt lat="42.1629" lon="0.78017">
        <ele>1127.6</ele>
        <time>2022-05-23 09:42:45</time>
      </trkpt>
      <trkpt lat="42.16289" lon="0.78007">
        <ele>1127.2</ele>
        <time>2022-05-23 09:42:46</time>
      </trkpt>
      <trkpt lat="42.16288" lon="0.77996">
        <ele>1126.8</ele>
        <time>2022-05-23 09:42:47</time>
      </trkpt>
      <trkpt lat="42.16286" lon="0.77986">
        <ele>1126.2</ele>
        <time>2022-05-23 09:42:48</time>
      </trkpt>
      <trkpt lat="42.16283" lon="0.77975">
        <ele>1125.6</ele>
        <time>2022-05-23 09:42:49</time>
      </trkpt>
      <trkpt lat="42.16281" lon="0.77963">
        <ele>1125</ele>
        <time>2022-05-23 09:42:50</time>
      </trkpt>
      <trkpt lat="42.16278" lon="0.77952">
        <ele>1124.4</ele>
        <time>2022-05-23 09:42:51</time>
      </trkpt>
      <trkpt lat="42.16276" lon="0.77939">
        <ele>1123.8</ele>
        <time>2022-05-23 09:42:52</time>
      </trkpt>
      <trkpt lat="42.16273" lon="0.77927">
        <ele>1123</ele>
        <time>2022-05-23 09:42:53</time>
      </trkpt>
      <trkpt lat="42.16271" lon="0.77914">
        <ele>1122.2</ele>
        <time>2022-05-23 09:42:54</time>
      </trkpt>
      <trkpt lat="42.16267" lon="0.779">
        <ele>1121.4</ele>
        <time>2022-05-23 09:42:55</time>
      </trkpt>
      <trkpt lat="42.16262" lon="0.77887">
        <ele>1120.8</ele>
        <time>2022-05-23 09:42:56</time>
      </trkpt>
      <trkpt lat="42.16256" lon="0.77875">
        <ele>1120</ele>
        <time>2022-05-23 09:42:57</time>
      </trkpt>
      <trkpt lat="42.1625" lon="0.77862">
        <ele>1119.2</ele>
        <time>2022-05-23 09:42:58</time>
      </trkpt>
      <trkpt lat="42.16243" lon="0.7785">
        <ele>1118.6</ele>
        <time>2022-05-23 09:42:59</time>
      </trkpt>
      <trkpt lat="42.16238" lon="0.77837">
        <ele>1118</ele>
        <time>2022-05-23 09:43:00</time>
      </trkpt>
      <trkpt lat="42.16234" lon="0.77824">
        <ele>1117.2</ele>
        <time>2022-05-23 09:43:01</time>
      </trkpt>
      <trkpt lat="42.1623" lon="0.77809">
        <ele>1116.6</ele>
        <time>2022-05-23 09:43:02</time>
      </trkpt>
      <trkpt lat="42.1623" lon="0.77794">
        <ele>1115.8</ele>
        <time>2022-05-23 09:43:03</time>
      </trkpt>
      <trkpt lat="42.1623" lon="0.7778">
        <ele>1115.2</ele>
        <time>2022-05-23 09:43:04</time>
      </trkpt>
      <trkpt lat="42.16233" lon="0.77766">
        <ele>1114.6</ele>
        <time>2022-05-23 09:43:05</time>
      </trkpt>
      <trkpt lat="42.16236" lon="0.77752">
        <ele>1114</ele>
        <time>2022-05-23 09:43:06</time>
      </trkpt>
      <trkpt lat="42.16238" lon="0.77738">
        <ele>1113.4</ele>
        <time>2022-05-23 09:43:07</time>
      </trkpt>
      <trkpt lat="42.16239" lon="0.77724">
        <ele>1113</ele>
        <time>2022-05-23 09:43:08</time>
      </trkpt>
      <trkpt lat="42.16238" lon="0.77709">
        <ele>1112.6</ele>
        <time>2022-05-23 09:43:09</time>
      </trkpt>
      <trkpt lat="42.16236" lon="0.77695">
        <ele>1112.2</ele>
        <time>2022-05-23 09:43:10</time>
      </trkpt>
      <trkpt lat="42.16231" lon="0.77683">
        <ele>1111.8</ele>
        <time>2022-05-23 09:43:11</time>
      </trkpt>
      <trkpt lat="42.16223" lon="0.77673">
        <ele>1111.4</ele>
        <time>2022-05-23 09:43:12</time>
      </trkpt>
      <trkpt lat="42.16215" lon="0.77667">
        <ele>1111</ele>
        <time>2022-05-23 09:43:13</time>
      </trkpt>
      <trkpt lat="42.16206" lon="0.77662">
        <ele>1111</ele>
        <time>2022-05-23 09:43:14</time>
      </trkpt>
      <trkpt lat="42.16197" lon="0.77658">
        <ele>1111</ele>
        <time>2022-05-23 09:43:15</time>
      </trkpt>
      <trkpt lat="42.16187" lon="0.77655">
        <ele>1111</ele>
        <time>2022-05-23 09:43:16</time>
      </trkpt>
      <trkpt lat="42.16178" lon="0.77653">
        <ele>1110.8</ele>
        <time>2022-05-23 09:43:17</time>
      </trkpt>
      <trkpt lat="42.1617" lon="0.7765">
        <ele>1111</ele>
        <time>2022-05-23 09:43:18</time>
      </trkpt>
      <trkpt lat="42.16161" lon="0.77648">
        <ele>1111</ele>
        <time>2022-05-23 09:43:19</time>
      </trkpt>
      <trkpt lat="42.16153" lon="0.77645">
        <ele>1111</ele>
        <time>2022-05-23 09:43:20</time>
      </trkpt>
      <trkpt lat="42.16145" lon="0.77643">
        <ele>1111</ele>
        <time>2022-05-23 09:43:21</time>
      </trkpt>
      <trkpt lat="42.16136" lon="0.7764">
        <ele>1111</ele>
        <time>2022-05-23 09:43:22</time>
      </trkpt>
      <trkpt lat="42.16128" lon="0.77638">
        <ele>1111.2</ele>
        <time>2022-05-23 09:43:23</time>
      </trkpt>
      <trkpt lat="42.1612" lon="0.77635">
        <ele>1111.2</ele>
        <time>2022-05-23 09:43:24</time>
      </trkpt>
      <trkpt lat="42.16112" lon="0.77633">
        <ele>1111.2</ele>
        <time>2022-05-23 09:43:25</time>
      </trkpt>
      <trkpt lat="42.16105" lon="0.77631">
        <ele>1111.4</ele>
        <time>2022-05-23 09:43:26</time>
      </trkpt>
      <trkpt lat="42.16096" lon="0.77628">
        <ele>1111.6</ele>
        <time>2022-05-23 09:43:27</time>
      </trkpt>
      <trkpt lat="42.16089" lon="0.77626">
        <ele>1111.8</ele>
        <time>2022-05-23 09:43:28</time>
      </trkpt>
      <trkpt lat="42.16082" lon="0.77623">
        <ele>1112</ele>
        <time>2022-05-23 09:43:29</time>
      </trkpt>
      <trkpt lat="42.16075" lon="0.77621">
        <ele>1112.4</ele>
        <time>2022-05-23 09:43:30</time>
      </trkpt>
      <trkpt lat="42.16069" lon="0.77619">
        <ele>1112.8</ele>
        <time>2022-05-23 09:43:31</time>
      </trkpt>
      <trkpt lat="42.16062" lon="0.77616">
        <ele>1113.2</ele>
        <time>2022-05-23 09:43:32</time>
      </trkpt>
      <trkpt lat="42.16056" lon="0.77614">
        <ele>1113.6</ele>
        <time>2022-05-23 09:43:33</time>
      </trkpt>
      <trkpt lat="42.1605" lon="0.77612">
        <ele>1114</ele>
        <time>2022-05-23 09:43:34</time>
      </trkpt>
      <trkpt lat="42.16044" lon="0.77609">
        <ele>1114.2</ele>
        <time>2022-05-23 09:43:35</time>
      </trkpt>
      <trkpt lat="42.16039" lon="0.77607">
        <ele>1114.6</ele>
        <time>2022-05-23 09:43:36</time>
      </trkpt>
      <trkpt lat="42.16034" lon="0.77605">
        <ele>1114.8</ele>
        <time>2022-05-23 09:43:37</time>
      </trkpt>
      <trkpt lat="42.16028" lon="0.77602">
        <ele>1115.2</ele>
        <time>2022-05-23 09:43:38</time>
      </trkpt>
      <trkpt lat="42.16024" lon="0.77599">
        <ele>1115.4</ele>
        <time>2022-05-23 09:43:39</time>
      </trkpt>
      <trkpt lat="42.16019" lon="0.77596">
        <ele>1115.8</ele>
        <time>2022-05-23 09:43:40</time>
      </trkpt>
      <trkpt lat="42.16014" lon="0.77594">
        <ele>1116.2</ele>
        <time>2022-05-23 09:43:41</time>
      </trkpt>
      <trkpt lat="42.1601" lon="0.77591">
        <ele>1116.4</ele>
        <time>2022-05-23 09:43:42</time>
      </trkpt>
      <trkpt lat="42.16006" lon="0.77588">
        <ele>1116.6</ele>
        <time>2022-05-23 09:43:43</time>
      </trkpt>
      <trkpt lat="42.16002" lon="0.77585">
        <ele>1116.8</ele>
        <time>2022-05-23 09:43:44</time>
      </trkpt>
      <trkpt lat="42.15998" lon="0.77582">
        <ele>1117.2</ele>
        <time>2022-05-23 09:43:45</time>
      </trkpt>
      <trkpt lat="42.15994" lon="0.77579">
        <ele>1117.4</ele>
        <time>2022-05-23 09:43:46</time>
      </trkpt>
      <trkpt lat="42.1599" lon="0.77577">
        <ele>1117.4</ele>
        <time>2022-05-23 09:43:47</time>
      </trkpt>
      <trkpt lat="42.15986" lon="0.77574">
        <ele>1117.6</ele>
        <time>2022-05-23 09:43:48</time>
      </trkpt>
      <trkpt lat="42.15981" lon="0.77571">
        <ele>1117.8</ele>
        <time>2022-05-23 09:43:49</time>
      </trkpt>
      <trkpt lat="42.15977" lon="0.77567">
        <ele>1117.8</ele>
        <time>2022-05-23 09:43:50</time>
      </trkpt>
      <trkpt lat="42.15973" lon="0.77564">
        <ele>1118</ele>
        <time>2022-05-23 09:43:51</time>
      </trkpt>
      <trkpt lat="42.1597" lon="0.77562">
        <ele>1118</ele>
        <time>2022-05-23 09:43:52</time>
      </trkpt>
      <trkpt lat="42.15965" lon="0.77559">
        <ele>1118.2</ele>
        <time>2022-05-23 09:43:53</time>
      </trkpt>
      <trkpt lat="42.15961" lon="0.77556">
        <ele>1118.4</ele>
        <time>2022-05-23 09:43:54</time>
      </trkpt>
      <trkpt lat="42.15956" lon="0.77553">
        <ele>1118.4</ele>
        <time>2022-05-23 09:43:55</time>
      </trkpt>
      <trkpt lat="42.15952" lon="0.77551">
        <ele>1118.6</ele>
        <time>2022-05-23 09:43:56</time>
      </trkpt>
      <trkpt lat="42.15948" lon="0.77548">
        <ele>1118.8</ele>
        <time>2022-05-23 09:43:57</time>
      </trkpt>
      <trkpt lat="42.15944" lon="0.77546">
        <ele>1119</ele>
        <time>2022-05-23 09:43:58</time>
      </trkpt>
      <trkpt lat="42.1594" lon="0.77543">
        <ele>1119</ele>
        <time>2022-05-23 09:43:59</time>
      </trkpt>
      <trkpt lat="42.15935" lon="0.7754">
        <ele>1119</ele>
        <time>2022-05-23 09:44:00</time>
      </trkpt>
      <trkpt lat="42.15932" lon="0.77537">
        <ele>1119.2</ele>
        <time>2022-05-23 09:44:01</time>
      </trkpt>
      <trkpt lat="42.15928" lon="0.77533">
        <ele>1119.2</ele>
        <time>2022-05-23 09:44:02</time>
      </trkpt>
      <trkpt lat="42.15923" lon="0.77529">
        <ele>1119.2</ele>
        <time>2022-05-23 09:44:03</time>
      </trkpt>
      <trkpt lat="42.15919" lon="0.77526">
        <ele>1119.2</ele>
        <time>2022-05-23 09:44:04</time>
      </trkpt>
      <trkpt lat="42.15914" lon="0.77522">
        <ele>1119.2</ele>
        <time>2022-05-23 09:44:05</time>
      </trkpt>
      <trkpt lat="42.1591" lon="0.77519">
        <ele>1119.2</ele>
        <time>2022-05-23 09:44:06</time>
      </trkpt>
      <trkpt lat="42.15905" lon="0.77515">
        <ele>1119.2</ele>
        <time>2022-05-23 09:44:07</time>
      </trkpt>
      <trkpt lat="42.159" lon="0.77512">
        <ele>1119.2</ele>
        <time>2022-05-23 09:44:08</time>
      </trkpt>
      <trkpt lat="42.15896" lon="0.77509">
        <ele>1119.4</ele>
        <time>2022-05-23 09:44:09</time>
      </trkpt>
      <trkpt lat="42.15892" lon="0.77506">
        <ele>1119.4</ele>
        <time>2022-05-23 09:44:10</time>
      </trkpt>
      <trkpt lat="42.15887" lon="0.77503">
        <ele>1119.4</ele>
        <time>2022-05-23 09:44:11</time>
      </trkpt>
      <trkpt lat="42.15883" lon="0.775">
        <ele>1119.4</ele>
        <time>2022-05-23 09:44:12</time>
      </trkpt>
      <trkpt lat="42.15878" lon="0.77498">
        <ele>1119.2</ele>
        <time>2022-05-23 09:44:13</time>
      </trkpt>
      <trkpt lat="42.15873" lon="0.77495">
        <ele>1119.2</ele>
        <time>2022-05-23 09:44:14</time>
      </trkpt>
      <trkpt lat="42.15867" lon="0.77493">
        <ele>1119</ele>
        <time>2022-05-23 09:44:15</time>
      </trkpt>
      <trkpt lat="42.15861" lon="0.77491">
        <ele>1118.8</ele>
        <time>2022-05-23 09:44:16</time>
      </trkpt>
      <trkpt lat="42.15855" lon="0.77489">
        <ele>1118.6</ele>
        <time>2022-05-23 09:44:17</time>
      </trkpt>
      <trkpt lat="42.15849" lon="0.77488">
        <ele>1118.2</ele>
        <time>2022-05-23 09:44:18</time>
      </trkpt>
      <trkpt lat="42.15842" lon="0.77488">
        <ele>1117.8</ele>
        <time>2022-05-23 09:44:19</time>
      </trkpt>
      <trkpt lat="42.15835" lon="0.77489">
        <ele>1117.4</ele>
        <time>2022-05-23 09:44:20</time>
      </trkpt>
      <trkpt lat="42.15827" lon="0.77492">
        <ele>1117</ele>
        <time>2022-05-23 09:44:21</time>
      </trkpt>
      <trkpt lat="42.15819" lon="0.77495">
        <ele>1116.6</ele>
        <time>2022-05-23 09:44:22</time>
      </trkpt>
      <trkpt lat="42.15811" lon="0.77496">
        <ele>1115.8</ele>
        <time>2022-05-23 09:44:23</time>
      </trkpt>
      <trkpt lat="42.15803" lon="0.77495">
        <ele>1115.2</ele>
        <time>2022-05-23 09:44:24</time>
      </trkpt>
      <trkpt lat="42.15796" lon="0.77488">
        <ele>1114.2</ele>
        <time>2022-05-23 09:44:25</time>
      </trkpt>
      <trkpt lat="42.1579" lon="0.77476">
        <ele>1113.4</ele>
        <time>2022-05-23 09:44:26</time>
      </trkpt>
      <trkpt lat="42.15788" lon="0.77462">
        <ele>1112.8</ele>
        <time>2022-05-23 09:44:27</time>
      </trkpt>
      <trkpt lat="42.15788" lon="0.77448">
        <ele>1112</ele>
        <time>2022-05-23 09:44:28</time>
      </trkpt>
      <trkpt lat="42.15789" lon="0.77434">
        <ele>1111.4</ele>
        <time>2022-05-23 09:44:29</time>
      </trkpt>
      <trkpt lat="42.15791" lon="0.7742">
        <ele>1110.6</ele>
        <time>2022-05-23 09:44:30</time>
      </trkpt>
      <trkpt lat="42.15793" lon="0.77405">
        <ele>1110</ele>
        <time>2022-05-23 09:44:31</time>
      </trkpt>
      <trkpt lat="42.15794" lon="0.77391">
        <ele>1109.2</ele>
        <time>2022-05-23 09:44:32</time>
      </trkpt>
      <trkpt lat="42.15797" lon="0.77377">
        <ele>1108.6</ele>
        <time>2022-05-23 09:44:33</time>
      </trkpt>
      <trkpt lat="42.15799" lon="0.77363">
        <ele>1108</ele>
        <time>2022-05-23 09:44:34</time>
      </trkpt>
      <trkpt lat="42.15799" lon="0.77346">
        <ele>1107.4</ele>
        <time>2022-05-23 09:44:35</time>
      </trkpt>
      <trkpt lat="42.15796" lon="0.77331">
        <ele>1107</ele>
        <time>2022-05-23 09:44:36</time>
      </trkpt>
      <trkpt lat="42.15792" lon="0.77318">
        <ele>1106.4</ele>
        <time>2022-05-23 09:44:37</time>
      </trkpt>
      <trkpt lat="42.15787" lon="0.77306">
        <ele>1106</ele>
        <time>2022-05-23 09:44:38</time>
      </trkpt>
      <trkpt lat="42.1578" lon="0.77295">
        <ele>1105.6</ele>
        <time>2022-05-23 09:44:39</time>
      </trkpt>
      <trkpt lat="42.15773" lon="0.77285">
        <ele>1105.2</ele>
        <time>2022-05-23 09:44:40</time>
      </trkpt>
      <trkpt lat="42.15765" lon="0.77274">
        <ele>1104.8</ele>
        <time>2022-05-23 09:44:41</time>
      </trkpt>
      <trkpt lat="42.15758" lon="0.77264">
        <ele>1104.6</ele>
        <time>2022-05-23 09:44:42</time>
      </trkpt>
      <trkpt lat="42.15752" lon="0.77254">
        <ele>1104.6</ele>
        <time>2022-05-23 09:44:43</time>
      </trkpt>
      <trkpt lat="42.15749" lon="0.77244">
        <ele>1104.6</ele>
        <time>2022-05-23 09:44:44</time>
      </trkpt>
      <trkpt lat="42.15747" lon="0.77232">
        <ele>1105</ele>
        <time>2022-05-23 09:44:45</time>
      </trkpt>
      <trkpt lat="42.15746" lon="0.77223">
        <ele>1105.2</ele>
        <time>2022-05-23 09:44:46</time>
      </trkpt>
      <trkpt lat="42.15747" lon="0.77213">
        <ele>1105.8</ele>
        <time>2022-05-23 09:44:47</time>
      </trkpt>
      <trkpt lat="42.15748" lon="0.77204">
        <ele>1106.2</ele>
        <time>2022-05-23 09:44:48</time>
      </trkpt>
      <trkpt lat="42.15749" lon="0.77196">
        <ele>1106.6</ele>
        <time>2022-05-23 09:44:49</time>
      </trkpt>
      <trkpt lat="42.15749" lon="0.77188">
        <ele>1107.2</ele>
        <time>2022-05-23 09:44:50</time>
      </trkpt>
      <trkpt lat="42.15749" lon="0.77181">
        <ele>1107.6</ele>
        <time>2022-05-23 09:44:51</time>
      </trkpt>
      <trkpt lat="42.15748" lon="0.77174">
        <ele>1108.2</ele>
        <time>2022-05-23 09:44:52</time>
      </trkpt>
      <trkpt lat="42.15747" lon="0.77168">
        <ele>1108.8</ele>
        <time>2022-05-23 09:44:53</time>
      </trkpt>
      <trkpt lat="42.15746" lon="0.77163">
        <ele>1109.4</ele>
        <time>2022-05-23 09:44:54</time>
      </trkpt>
      <trkpt lat="42.15744" lon="0.77158">
        <ele>1109.8</ele>
        <time>2022-05-23 09:44:55</time>
      </trkpt>
      <trkpt lat="42.15743" lon="0.77154">
        <ele>1110.2</ele>
        <time>2022-05-23 09:44:56</time>
      </trkpt>
      <trkpt lat="42.15742" lon="0.77151">
        <ele>1110.6</ele>
        <time>2022-05-23 09:44:57</time>
      </trkpt>
      <trkpt lat="42.1574" lon="0.77147">
        <ele>1111</ele>
        <time>2022-05-23 09:44:58</time>
      </trkpt>
      <trkpt lat="42.15739" lon="0.77144">
        <ele>1111.2</ele>
        <time>2022-05-23 09:44:59</time>
      </trkpt>
      <trkpt lat="42.15737" lon="0.77141">
        <ele>1111.6</ele>
        <time>2022-05-23 09:45:00</time>
      </trkpt>
      <trkpt lat="42.15735" lon="0.77138">
        <ele>1111.8</ele>
        <time>2022-05-23 09:45:01</time>
      </trkpt>
      <trkpt lat="42.15732" lon="0.77135">
        <ele>1112</ele>
        <time>2022-05-23 09:45:02</time>
      </trkpt>
      <trkpt lat="42.15731" lon="0.77132">
        <ele>1112.4</ele>
        <time>2022-05-23 09:45:03</time>
      </trkpt>
      <trkpt lat="42.15729" lon="0.77129">
        <ele>1112.6</ele>
        <time>2022-05-23 09:45:04</time>
      </trkpt>
      <trkpt lat="42.15727" lon="0.77126">
        <ele>1112.8</ele>
        <time>2022-05-23 09:45:05</time>
      </trkpt>
      <trkpt lat="42.15725" lon="0.77123">
        <ele>1113.2</ele>
        <time>2022-05-23 09:45:06</time>
      </trkpt>
      <trkpt lat="42.15723" lon="0.7712">
        <ele>1113.2</ele>
        <time>2022-05-23 09:45:07</time>
      </trkpt>
      <trkpt lat="42.15722" lon="0.77117">
        <ele>1113.4</ele>
        <time>2022-05-23 09:45:08</time>
      </trkpt>
      <trkpt lat="42.1572" lon="0.77114">
        <ele>1113.6</ele>
        <time>2022-05-23 09:45:09</time>
      </trkpt>
      <trkpt lat="42.15718" lon="0.7711">
        <ele>1113.8</ele>
        <time>2022-05-23 09:45:10</time>
      </trkpt>
      <trkpt lat="42.15717" lon="0.77107">
        <ele>1114</ele>
        <time>2022-05-23 09:45:11</time>
      </trkpt>
      <trkpt lat="42.15715" lon="0.77104">
        <ele>1114.2</ele>
        <time>2022-05-23 09:45:12</time>
      </trkpt>
      <trkpt lat="42.15713" lon="0.771">
        <ele>1114.4</ele>
        <time>2022-05-23 09:45:13</time>
      </trkpt>
      <trkpt lat="42.15712" lon="0.77097">
        <ele>1114.6</ele>
        <time>2022-05-23 09:45:14</time>
      </trkpt>
      <trkpt lat="42.15711" lon="0.77093">
        <ele>1114.8</ele>
        <time>2022-05-23 09:45:15</time>
      </trkpt>
      <trkpt lat="42.15709" lon="0.7709">
        <ele>1115</ele>
        <time>2022-05-23 09:45:16</time>
      </trkpt>
      <trkpt lat="42.15708" lon="0.77086">
        <ele>1115.2</ele>
        <time>2022-05-23 09:45:17</time>
      </trkpt>
      <trkpt lat="42.15706" lon="0.77083">
        <ele>1115.4</ele>
        <time>2022-05-23 09:45:18</time>
      </trkpt>
      <trkpt lat="42.15704" lon="0.77079">
        <ele>1115.4</ele>
        <time>2022-05-23 09:45:19</time>
      </trkpt>
      <trkpt lat="42.15703" lon="0.77075">
        <ele>1115.6</ele>
        <time>2022-05-23 09:45:20</time>
      </trkpt>
      <trkpt lat="42.15702" lon="0.77071">
        <ele>1115.8</ele>
        <time>2022-05-23 09:45:21</time>
      </trkpt>
      <trkpt lat="42.15701" lon="0.77067">
        <ele>1116</ele>
        <time>2022-05-23 09:45:22</time>
      </trkpt>
      <trkpt lat="42.157" lon="0.77063">
        <ele>1116.2</ele>
        <time>2022-05-23 09:45:23</time>
      </trkpt>
      <trkpt lat="42.15699" lon="0.77058">
        <ele>1116.4</ele>
        <time>2022-05-23 09:45:24</time>
      </trkpt>
      <trkpt lat="42.15698" lon="0.77054">
        <ele>1116.6</ele>
        <time>2022-05-23 09:45:25</time>
      </trkpt>
      <trkpt lat="42.15697" lon="0.7705">
        <ele>1116.8</ele>
        <time>2022-05-23 09:45:26</time>
      </trkpt>
      <trkpt lat="42.15696" lon="0.77046">
        <ele>1117</ele>
        <time>2022-05-23 09:45:27</time>
      </trkpt>
      <trkpt lat="42.15694" lon="0.77042">
        <ele>1117.2</ele>
        <time>2022-05-23 09:45:28</time>
      </trkpt>
      <trkpt lat="42.15693" lon="0.77038">
        <ele>1117.2</ele>
        <time>2022-05-23 09:45:29</time>
      </trkpt>
      <trkpt lat="42.15692" lon="0.77033">
        <ele>1117.4</ele>
        <time>2022-05-23 09:45:30</time>
      </trkpt>
      <trkpt lat="42.15692" lon="0.7703">
        <ele>1117.6</ele>
        <time>2022-05-23 09:45:31</time>
      </trkpt>
      <trkpt lat="42.15691" lon="0.77026">
        <ele>1117.8</ele>
        <time>2022-05-23 09:45:32</time>
      </trkpt>
      <trkpt lat="42.15691" lon="0.77021">
        <ele>1118</ele>
        <time>2022-05-23 09:45:33</time>
      </trkpt>
      <trkpt lat="42.15691" lon="0.77017">
        <ele>1118.2</ele>
        <time>2022-05-23 09:45:34</time>
      </trkpt>
      <trkpt lat="42.1569" lon="0.77013">
        <ele>1118.4</ele>
        <time>2022-05-23 09:45:35</time>
      </trkpt>
      <trkpt lat="42.1569" lon="0.77009">
        <ele>1118.6</ele>
        <time>2022-05-23 09:45:36</time>
      </trkpt>
      <trkpt lat="42.15686" lon="0.77003">
        <ele>1118.8</ele>
        <time>2022-05-23 09:45:37</time>
      </trkpt>
      <trkpt lat="42.15686" lon="0.76999">
        <ele>1119</ele>
        <time>2022-05-23 09:45:38</time>
      </trkpt>
      <trkpt lat="42.15685" lon="0.76995">
        <ele>1119.2</ele>
        <time>2022-05-23 09:45:39</time>
      </trkpt>
      <trkpt lat="42.15686" lon="0.76991">
        <ele>1119.4</ele>
        <time>2022-05-23 09:45:40</time>
      </trkpt>
      <trkpt lat="42.15687" lon="0.76986">
        <ele>1119.6</ele>
        <time>2022-05-23 09:45:41</time>
      </trkpt>
      <trkpt lat="42.15688" lon="0.76981">
        <ele>1119.8</ele>
        <time>2022-05-23 09:45:42</time>
      </trkpt>
      <trkpt lat="42.15688" lon="0.76976">
        <ele>1120</ele>
        <time>2022-05-23 09:45:43</time>
      </trkpt>
      <trkpt lat="42.15688" lon="0.76971">
        <ele>1120</ele>
        <time>2022-05-23 09:45:44</time>
      </trkpt>
      <trkpt lat="42.15688" lon="0.76967">
        <ele>1120.2</ele>
        <time>2022-05-23 09:45:45</time>
      </trkpt>
      <trkpt lat="42.15688" lon="0.76961">
        <ele>1120.2</ele>
        <time>2022-05-23 09:45:46</time>
      </trkpt>
      <trkpt lat="42.15688" lon="0.76956">
        <ele>1120.2</ele>
        <time>2022-05-23 09:45:47</time>
      </trkpt>
      <trkpt lat="42.15689" lon="0.76949">
        <ele>1120.2</ele>
        <time>2022-05-23 09:45:48</time>
      </trkpt>
      <trkpt lat="42.15689" lon="0.76943">
        <ele>1120.2</ele>
        <time>2022-05-23 09:45:49</time>
      </trkpt>
      <trkpt lat="42.15688" lon="0.76936">
        <ele>1120</ele>
        <time>2022-05-23 09:45:50</time>
      </trkpt>
      <trkpt lat="42.15687" lon="0.76929">
        <ele>1119.8</ele>
        <time>2022-05-23 09:45:51</time>
      </trkpt>
      <trkpt lat="42.15686" lon="0.76921">
        <ele>1119.6</ele>
        <time>2022-05-23 09:45:52</time>
      </trkpt>
      <trkpt lat="42.15685" lon="0.76912">
        <ele>1119.2</ele>
        <time>2022-05-23 09:45:53</time>
      </trkpt>
      <trkpt lat="42.15684" lon="0.76903">
        <ele>1118.8</ele>
        <time>2022-05-23 09:45:54</time>
      </trkpt>
      <trkpt lat="42.15683" lon="0.76893">
        <ele>1118.2</ele>
        <time>2022-05-23 09:45:55</time>
      </trkpt>
      <trkpt lat="42.15682" lon="0.76882">
        <ele>1117.6</ele>
        <time>2022-05-23 09:45:56</time>
      </trkpt>
      <trkpt lat="42.15681" lon="0.76871">
        <ele>1117.2</ele>
        <time>2022-05-23 09:45:57</time>
      </trkpt>
      <trkpt lat="42.1568" lon="0.76861">
        <ele>1116.8</ele>
        <time>2022-05-23 09:45:58</time>
      </trkpt>
      <trkpt lat="42.15679" lon="0.76849">
        <ele>1116.4</ele>
        <time>2022-05-23 09:45:59</time>
      </trkpt>
      <trkpt lat="42.15678" lon="0.76839">
        <ele>1116.2</ele>
        <time>2022-05-23 09:46:00</time>
      </trkpt>
      <trkpt lat="42.15677" lon="0.76828">
        <ele>1116</ele>
        <time>2022-05-23 09:46:01</time>
      </trkpt>
      <trkpt lat="42.15675" lon="0.76818">
        <ele>1115.8</ele>
        <time>2022-05-23 09:46:02</time>
      </trkpt>
      <trkpt lat="42.15674" lon="0.76808">
        <ele>1115.6</ele>
        <time>2022-05-23 09:46:03</time>
      </trkpt>
      <trkpt lat="42.15673" lon="0.76798">
        <ele>1115.4</ele>
        <time>2022-05-23 09:46:04</time>
      </trkpt>
      <trkpt lat="42.15671" lon="0.76789">
        <ele>1115.2</ele>
        <time>2022-05-23 09:46:05</time>
      </trkpt>
      <trkpt lat="42.15669" lon="0.76778">
        <ele>1114.8</ele>
        <time>2022-05-23 09:46:06</time>
      </trkpt>
      <trkpt lat="42.15668" lon="0.76772">
        <ele>1114.6</ele>
        <time>2022-05-23 09:46:07</time>
      </trkpt>
      <trkpt lat="42.15665" lon="0.7676">
        <ele>1113.8</ele>
        <time>2022-05-23 09:46:08</time>
      </trkpt>
      <trkpt lat="42.15661" lon="0.76744">
        <ele>1113</ele>
        <time>2022-05-23 09:46:09</time>
      </trkpt>
      <trkpt lat="42.15659" lon="0.76731">
        <ele>1112.2</ele>
        <time>2022-05-23 09:46:10</time>
      </trkpt>
      <trkpt lat="42.15657" lon="0.76718">
        <ele>1111.6</ele>
        <time>2022-05-23 09:46:11</time>
      </trkpt>
      <trkpt lat="42.15656" lon="0.76704">
        <ele>1111</ele>
        <time>2022-05-23 09:46:12</time>
      </trkpt>
      <trkpt lat="42.15654" lon="0.7669">
        <ele>1110.4</ele>
        <time>2022-05-23 09:46:13</time>
      </trkpt>
      <trkpt lat="42.15652" lon="0.76676">
        <ele>1109.6</ele>
        <time>2022-05-23 09:46:14</time>
      </trkpt>
      <trkpt lat="42.15647" lon="0.76665">
        <ele>1108.6</ele>
        <time>2022-05-23 09:46:15</time>
      </trkpt>
      <trkpt lat="42.15639" lon="0.76652">
        <ele>1107.8</ele>
        <time>2022-05-23 09:46:16</time>
      </trkpt>
      <trkpt lat="42.15631" lon="0.76643">
        <ele>1106.8</ele>
        <time>2022-05-23 09:46:17</time>
      </trkpt>
      <trkpt lat="42.15621" lon="0.76633">
        <ele>1106</ele>
        <time>2022-05-23 09:46:18</time>
      </trkpt>
      <trkpt lat="42.15613" lon="0.76625">
        <ele>1105.2</ele>
        <time>2022-05-23 09:46:19</time>
      </trkpt>
      <trkpt lat="42.15602" lon="0.76616">
        <ele>1104.2</ele>
        <time>2022-05-23 09:46:20</time>
      </trkpt>
      <trkpt lat="42.15592" lon="0.76607">
        <ele>1103.2</ele>
        <time>2022-05-23 09:46:21</time>
      </trkpt>
      <trkpt lat="42.15583" lon="0.76596">
        <ele>1102.4</ele>
        <time>2022-05-23 09:46:22</time>
      </trkpt>
      <trkpt lat="42.15575" lon="0.76584">
        <ele>1101.2</ele>
        <time>2022-05-23 09:46:23</time>
      </trkpt>
      <trkpt lat="42.15568" lon="0.7657">
        <ele>1100.2</ele>
        <time>2022-05-23 09:46:24</time>
      </trkpt>
      <trkpt lat="42.15561" lon="0.76555">
        <ele>1099</ele>
        <time>2022-05-23 09:46:25</time>
      </trkpt>
      <trkpt lat="42.15555" lon="0.76543">
        <ele>1098</ele>
        <time>2022-05-23 09:46:26</time>
      </trkpt>
      <trkpt lat="42.15545" lon="0.76531">
        <ele>1096.8</ele>
        <time>2022-05-23 09:46:27</time>
      </trkpt>
      <trkpt lat="42.15539" lon="0.76524">
        <ele>1095.8</ele>
        <time>2022-05-23 09:46:28</time>
      </trkpt>
      <trkpt lat="42.15527" lon="0.7651">
        <ele>1094.6</ele>
        <time>2022-05-23 09:46:29</time>
      </trkpt>
      <trkpt lat="42.15518" lon="0.76496">
        <ele>1093.8</ele>
        <time>2022-05-23 09:46:30</time>
      </trkpt>
      <trkpt lat="42.1551" lon="0.76482">
        <ele>1092.6</ele>
        <time>2022-05-23 09:46:31</time>
      </trkpt>
      <trkpt lat="42.15504" lon="0.76469">
        <ele>1091.8</ele>
        <time>2022-05-23 09:46:32</time>
      </trkpt>
      <trkpt lat="42.15498" lon="0.76455">
        <ele>1090.8</ele>
        <time>2022-05-23 09:46:33</time>
      </trkpt>
      <trkpt lat="42.15491" lon="0.76441">
        <ele>1089.8</ele>
        <time>2022-05-23 09:46:34</time>
      </trkpt>
      <trkpt lat="42.15483" lon="0.76428">
        <ele>1088.8</ele>
        <time>2022-05-23 09:46:35</time>
      </trkpt>
      <trkpt lat="42.15475" lon="0.7641">
        <ele>1087.8</ele>
        <time>2022-05-23 09:46:36</time>
      </trkpt>
      <trkpt lat="42.15468" lon="0.76395">
        <ele>1086.4</ele>
        <time>2022-05-23 09:46:37</time>
      </trkpt>
      <trkpt lat="42.15463" lon="0.76378">
        <ele>1085.2</ele>
        <time>2022-05-23 09:46:38</time>
      </trkpt>
      <trkpt lat="42.1546" lon="0.76358">
        <ele>1083.8</ele>
        <time>2022-05-23 09:46:39</time>
      </trkpt>
      <trkpt lat="42.15459" lon="0.76338">
        <ele>1082.6</ele>
        <time>2022-05-23 09:46:40</time>
      </trkpt>
      <trkpt lat="42.15459" lon="0.76318">
        <ele>1081.4</ele>
        <time>2022-05-23 09:46:41</time>
      </trkpt>
      <trkpt lat="42.15459" lon="0.76299">
        <ele>1080.2</ele>
        <time>2022-05-23 09:46:42</time>
      </trkpt>
      <trkpt lat="42.15458" lon="0.76282">
        <ele>1079</ele>
        <time>2022-05-23 09:46:43</time>
      </trkpt>
      <trkpt lat="42.15457" lon="0.76262">
        <ele>1078</ele>
        <time>2022-05-23 09:46:44</time>
      </trkpt>
      <trkpt lat="42.15456" lon="0.76243">
        <ele>1076.8</ele>
        <time>2022-05-23 09:46:45</time>
      </trkpt>
      <trkpt lat="42.15456" lon="0.76222">
        <ele>1075.6</ele>
        <time>2022-05-23 09:46:46</time>
      </trkpt>
      <trkpt lat="42.15458" lon="0.76204">
        <ele>1074.4</ele>
        <time>2022-05-23 09:46:47</time>
      </trkpt>
      <trkpt lat="42.15459" lon="0.76184">
        <ele>1073.4</ele>
        <time>2022-05-23 09:46:48</time>
      </trkpt>
      <trkpt lat="42.15462" lon="0.76164">
        <ele>1072.4</ele>
        <time>2022-05-23 09:46:49</time>
      </trkpt>
      <trkpt lat="42.15463" lon="0.76143">
        <ele>1071.4</ele>
        <time>2022-05-23 09:46:50</time>
      </trkpt>
      <trkpt lat="42.15464" lon="0.76123">
        <ele>1070.4</ele>
        <time>2022-05-23 09:46:51</time>
      </trkpt>
      <trkpt lat="42.15463" lon="0.76105">
        <ele>1069.4</ele>
        <time>2022-05-23 09:46:52</time>
      </trkpt>
      <trkpt lat="42.15459" lon="0.76089">
        <ele>1068.4</ele>
        <time>2022-05-23 09:46:53</time>
      </trkpt>
      <trkpt lat="42.15455" lon="0.76073">
        <ele>1067.2</ele>
        <time>2022-05-23 09:46:54</time>
      </trkpt>
      <trkpt lat="42.15449" lon="0.76055">
        <ele>1066</ele>
        <time>2022-05-23 09:46:55</time>
      </trkpt>
      <trkpt lat="42.15443" lon="0.76042">
        <ele>1065.2</ele>
        <time>2022-05-23 09:46:56</time>
      </trkpt>
      <trkpt lat="42.15437" lon="0.76025">
        <ele>1064</ele>
        <time>2022-05-23 09:46:57</time>
      </trkpt>
      <trkpt lat="42.15428" lon="0.76009">
        <ele>1063</ele>
        <time>2022-05-23 09:46:58</time>
      </trkpt>
      <trkpt lat="42.15417" lon="0.75996">
        <ele>1061.8</ele>
        <time>2022-05-23 09:46:59</time>
      </trkpt>
      <trkpt lat="42.15402" lon="0.75987">
        <ele>1060.8</ele>
        <time>2022-05-23 09:47:00</time>
      </trkpt>
      <trkpt lat="42.15389" lon="0.75975">
        <ele>1059.6</ele>
        <time>2022-05-23 09:47:01</time>
      </trkpt>
      <trkpt lat="42.15377" lon="0.75963">
        <ele>1058.2</ele>
        <time>2022-05-23 09:47:02</time>
      </trkpt>
      <trkpt lat="42.15369" lon="0.75947">
        <ele>1056.8</ele>
        <time>2022-05-23 09:47:03</time>
      </trkpt>
      <trkpt lat="42.15362" lon="0.75933">
        <ele>1055.6</ele>
        <time>2022-05-23 09:47:04</time>
      </trkpt>
      <trkpt lat="42.15354" lon="0.75915">
        <ele>1054.4</ele>
        <time>2022-05-23 09:47:05</time>
      </trkpt>
      <trkpt lat="42.15347" lon="0.759">
        <ele>1053.4</ele>
        <time>2022-05-23 09:47:06</time>
      </trkpt>
      <trkpt lat="42.15338" lon="0.75883">
        <ele>1052.6</ele>
        <time>2022-05-23 09:47:07</time>
      </trkpt>
      <trkpt lat="42.15328" lon="0.75866">
        <ele>1051.8</ele>
        <time>2022-05-23 09:47:08</time>
      </trkpt>
      <trkpt lat="42.15321" lon="0.75852">
        <ele>1051.2</ele>
        <time>2022-05-23 09:47:09</time>
      </trkpt>
      <trkpt lat="42.15314" lon="0.75838">
        <ele>1050.8</ele>
        <time>2022-05-23 09:47:10</time>
      </trkpt>
      <trkpt lat="42.15307" lon="0.75824">
        <ele>1050.4</ele>
        <time>2022-05-23 09:47:11</time>
      </trkpt>
      <trkpt lat="42.153" lon="0.75811">
        <ele>1050</ele>
        <time>2022-05-23 09:47:12</time>
      </trkpt>
      <trkpt lat="42.15295" lon="0.75798">
        <ele>1049.6</ele>
        <time>2022-05-23 09:47:13</time>
      </trkpt>
      <trkpt lat="42.1529" lon="0.75785">
        <ele>1049.4</ele>
        <time>2022-05-23 09:47:14</time>
      </trkpt>
      <trkpt lat="42.15285" lon="0.75769">
        <ele>1049</ele>
        <time>2022-05-23 09:47:15</time>
      </trkpt>
      <trkpt lat="42.15282" lon="0.75753">
        <ele>1048.8</ele>
        <time>2022-05-23 09:47:16</time>
      </trkpt>
      <trkpt lat="42.15278" lon="0.75739">
        <ele>1048.4</ele>
        <time>2022-05-23 09:47:17</time>
      </trkpt>
      <trkpt lat="42.15274" lon="0.75726">
        <ele>1048.2</ele>
        <time>2022-05-23 09:47:18</time>
      </trkpt>
      <trkpt lat="42.15269" lon="0.75712">
        <ele>1047.8</ele>
        <time>2022-05-23 09:47:19</time>
      </trkpt>
      <trkpt lat="42.15266" lon="0.757">
        <ele>1047.6</ele>
        <time>2022-05-23 09:47:20</time>
      </trkpt>
      <trkpt lat="42.15264" lon="0.75687">
        <ele>1047.2</ele>
        <time>2022-05-23 09:47:21</time>
      </trkpt>
      <trkpt lat="42.15262" lon="0.75674">
        <ele>1046.6</ele>
        <time>2022-05-23 09:47:22</time>
      </trkpt>
      <trkpt lat="42.15262" lon="0.75661">
        <ele>1046</ele>
        <time>2022-05-23 09:47:23</time>
      </trkpt>
      <trkpt lat="42.15263" lon="0.75648">
        <ele>1045.6</ele>
        <time>2022-05-23 09:47:24</time>
      </trkpt>
      <trkpt lat="42.15267" lon="0.75633">
        <ele>1045.2</ele>
        <time>2022-05-23 09:47:25</time>
      </trkpt>
      <trkpt lat="42.15271" lon="0.75619">
        <ele>1044.8</ele>
        <time>2022-05-23 09:47:26</time>
      </trkpt>
      <trkpt lat="42.15272" lon="0.75605">
        <ele>1044.2</ele>
        <time>2022-05-23 09:47:27</time>
      </trkpt>
      <trkpt lat="42.1527" lon="0.75591">
        <ele>1043.6</ele>
        <time>2022-05-23 09:47:28</time>
      </trkpt>
      <trkpt lat="42.15264" lon="0.75579">
        <ele>1043.2</ele>
        <time>2022-05-23 09:47:29</time>
      </trkpt>
      <trkpt lat="42.15257" lon="0.75567">
        <ele>1042.4</ele>
        <time>2022-05-23 09:47:30</time>
      </trkpt>
      <trkpt lat="42.15248" lon="0.75557">
        <ele>1041.4</ele>
        <time>2022-05-23 09:47:31</time>
      </trkpt>
      <trkpt lat="42.1524" lon="0.75549">
        <ele>1040.4</ele>
        <time>2022-05-23 09:47:32</time>
      </trkpt>
      <trkpt lat="42.15232" lon="0.75538">
        <ele>1039.2</ele>
        <time>2022-05-23 09:47:33</time>
      </trkpt>
      <trkpt lat="42.15227" lon="0.75524">
        <ele>1037.8</ele>
        <time>2022-05-23 09:47:34</time>
      </trkpt>
      <trkpt lat="42.15225" lon="0.75507">
        <ele>1036.6</ele>
        <time>2022-05-23 09:47:35</time>
      </trkpt>
      <trkpt lat="42.15226" lon="0.75491">
        <ele>1035.2</ele>
        <time>2022-05-23 09:47:36</time>
      </trkpt>
      <trkpt lat="42.15231" lon="0.75474">
        <ele>1033.8</ele>
        <time>2022-05-23 09:47:37</time>
      </trkpt>
      <trkpt lat="42.15238" lon="0.75455">
        <ele>1032.6</ele>
        <time>2022-05-23 09:47:38</time>
      </trkpt>
      <trkpt lat="42.15239" lon="0.75436">
        <ele>1031.4</ele>
        <time>2022-05-23 09:47:39</time>
      </trkpt>
      <trkpt lat="42.15239" lon="0.75418">
        <ele>1030</ele>
        <time>2022-05-23 09:47:40</time>
      </trkpt>
      <trkpt lat="42.15236" lon="0.75401">
        <ele>1028.6</ele>
        <time>2022-05-23 09:47:41</time>
      </trkpt>
      <trkpt lat="42.15234" lon="0.75383">
        <ele>1027.4</ele>
        <time>2022-05-23 09:47:42</time>
      </trkpt>
      <trkpt lat="42.15232" lon="0.75365">
        <ele>1026.2</ele>
        <time>2022-05-23 09:47:43</time>
      </trkpt>
      <trkpt lat="42.15231" lon="0.75348">
        <ele>1025</ele>
        <time>2022-05-23 09:47:44</time>
      </trkpt>
      <trkpt lat="42.1523" lon="0.75329">
        <ele>1023.8</ele>
        <time>2022-05-23 09:47:45</time>
      </trkpt>
      <trkpt lat="42.15229" lon="0.75312">
        <ele>1022.6</ele>
        <time>2022-05-23 09:47:46</time>
      </trkpt>
      <trkpt lat="42.15229" lon="0.75292">
        <ele>1021.2</ele>
        <time>2022-05-23 09:47:47</time>
      </trkpt>
      <trkpt lat="42.15229" lon="0.75273">
        <ele>1020</ele>
        <time>2022-05-23 09:47:48</time>
      </trkpt>
      <trkpt lat="42.15229" lon="0.75253">
        <ele>1018.8</ele>
        <time>2022-05-23 09:47:49</time>
      </trkpt>
      <trkpt lat="42.15229" lon="0.75233">
        <ele>1017.4</ele>
        <time>2022-05-23 09:47:50</time>
      </trkpt>
      <trkpt lat="42.15227" lon="0.75214">
        <ele>1016</ele>
        <time>2022-05-23 09:47:51</time>
      </trkpt>
      <trkpt lat="42.15225" lon="0.75195">
        <ele>1014.4</ele>
        <time>2022-05-23 09:47:52</time>
      </trkpt>
      <trkpt lat="42.1522" lon="0.75177">
        <ele>1013</ele>
        <time>2022-05-23 09:47:53</time>
      </trkpt>
      <trkpt lat="42.15214" lon="0.75159">
        <ele>1011.6</ele>
        <time>2022-05-23 09:47:54</time>
      </trkpt>
      <trkpt lat="42.15211" lon="0.75143">
        <ele>1010.2</ele>
        <time>2022-05-23 09:47:55</time>
      </trkpt>
      <trkpt lat="42.15213" lon="0.75126">
        <ele>1008.8</ele>
        <time>2022-05-23 09:47:56</time>
      </trkpt>
      <trkpt lat="42.15221" lon="0.75109">
        <ele>1007</ele>
        <time>2022-05-23 09:47:57</time>
      </trkpt>
      <trkpt lat="42.15231" lon="0.75094">
        <ele>1005.6</ele>
        <time>2022-05-23 09:47:58</time>
      </trkpt>
      <trkpt lat="42.15243" lon="0.75082">
        <ele>1004</ele>
        <time>2022-05-23 09:47:59</time>
      </trkpt>
      <trkpt lat="42.15253" lon="0.75071">
        <ele>1002.8</ele>
        <time>2022-05-23 09:48:00</time>
      </trkpt>
      <trkpt lat="42.15261" lon="0.7506">
        <ele>1001.4</ele>
        <time>2022-05-23 09:48:01</time>
      </trkpt>
      <trkpt lat="42.15266" lon="0.75046">
        <ele>1000.2</ele>
        <time>2022-05-23 09:48:02</time>
      </trkpt>
      <trkpt lat="42.15269" lon="0.75032">
        <ele>999</ele>
        <time>2022-05-23 09:48:03</time>
      </trkpt>
      <trkpt lat="42.15266" lon="0.75018">
        <ele>998</ele>
        <time>2022-05-23 09:48:04</time>
      </trkpt>
      <trkpt lat="42.15262" lon="0.75004">
        <ele>996.8</ele>
        <time>2022-05-23 09:48:05</time>
      </trkpt>
      <trkpt lat="42.15253" lon="0.74994">
        <ele>995.8</ele>
        <time>2022-05-23 09:48:06</time>
      </trkpt>
      <trkpt lat="42.15242" lon="0.74987">
        <ele>994.8</ele>
        <time>2022-05-23 09:48:07</time>
      </trkpt>
      <trkpt lat="42.1523" lon="0.74987">
        <ele>993.6</ele>
        <time>2022-05-23 09:48:08</time>
      </trkpt>
      <trkpt lat="42.15218" lon="0.74992">
        <ele>992.6</ele>
        <time>2022-05-23 09:48:09</time>
      </trkpt>
      <trkpt lat="42.15207" lon="0.75">
        <ele>991.6</ele>
        <time>2022-05-23 09:48:10</time>
      </trkpt>
      <trkpt lat="42.15198" lon="0.75008">
        <ele>990.8</ele>
        <time>2022-05-23 09:48:11</time>
      </trkpt>
      <trkpt lat="42.15187" lon="0.75012">
        <ele>990</ele>
        <time>2022-05-23 09:48:12</time>
      </trkpt>
      <trkpt lat="42.15176" lon="0.75009">
        <ele>989</ele>
        <time>2022-05-23 09:48:13</time>
      </trkpt>
      <trkpt lat="42.15166" lon="0.75002">
        <ele>988.2</ele>
        <time>2022-05-23 09:48:14</time>
      </trkpt>
      <trkpt lat="42.15158" lon="0.74991">
        <ele>987.2</ele>
        <time>2022-05-23 09:48:15</time>
      </trkpt>
      <trkpt lat="42.15152" lon="0.74978">
        <ele>986.2</ele>
        <time>2022-05-23 09:48:16</time>
      </trkpt>
      <trkpt lat="42.15148" lon="0.74963">
        <ele>985.2</ele>
        <time>2022-05-23 09:48:17</time>
      </trkpt>
      <trkpt lat="42.15146" lon="0.74949">
        <ele>984.4</ele>
        <time>2022-05-23 09:48:18</time>
      </trkpt>
      <trkpt lat="42.15147" lon="0.74932">
        <ele>983.8</ele>
        <time>2022-05-23 09:48:19</time>
      </trkpt>
      <trkpt lat="42.1515" lon="0.74915">
        <ele>983</ele>
        <time>2022-05-23 09:48:20</time>
      </trkpt>
      <trkpt lat="42.15151" lon="0.74899">
        <ele>982.4</ele>
        <time>2022-05-23 09:48:21</time>
      </trkpt>
      <trkpt lat="42.1515" lon="0.74884">
        <ele>982</ele>
        <time>2022-05-23 09:48:22</time>
      </trkpt>
      <trkpt lat="42.15145" lon="0.7487">
        <ele>981.2</ele>
        <time>2022-05-23 09:48:23</time>
      </trkpt>
      <trkpt lat="42.15137" lon="0.74859">
        <ele>980.2</ele>
        <time>2022-05-23 09:48:24</time>
      </trkpt>
      <trkpt lat="42.15128" lon="0.74848">
        <ele>979</ele>
        <time>2022-05-23 09:48:25</time>
      </trkpt>
      <trkpt lat="42.15119" lon="0.74836">
        <ele>977.8</ele>
        <time>2022-05-23 09:48:26</time>
      </trkpt>
      <trkpt lat="42.15113" lon="0.74821">
        <ele>976.8</ele>
        <time>2022-05-23 09:48:27</time>
      </trkpt>
      <trkpt lat="42.1511" lon="0.74805">
        <ele>975.8</ele>
        <time>2022-05-23 09:48:28</time>
      </trkpt>
      <trkpt lat="42.1511" lon="0.74788">
        <ele>975</ele>
        <time>2022-05-23 09:48:29</time>
      </trkpt>
      <trkpt lat="42.15112" lon="0.7477">
        <ele>974.2</ele>
        <time>2022-05-23 09:48:30</time>
      </trkpt>
      <trkpt lat="42.15114" lon="0.74754">
        <ele>973.2</ele>
        <time>2022-05-23 09:48:31</time>
      </trkpt>
      <trkpt lat="42.15119" lon="0.74737">
        <ele>972.2</ele>
        <time>2022-05-23 09:48:32</time>
      </trkpt>
      <trkpt lat="42.15126" lon="0.74721">
        <ele>971</ele>
        <time>2022-05-23 09:48:33</time>
      </trkpt>
      <trkpt lat="42.15135" lon="0.74708">
        <ele>970.2</ele>
        <time>2022-05-23 09:48:34</time>
      </trkpt>
      <trkpt lat="42.15146" lon="0.74696">
        <ele>969.2</ele>
        <time>2022-05-23 09:48:35</time>
      </trkpt>
      <trkpt lat="42.15158" lon="0.74686">
        <ele>968.2</ele>
        <time>2022-05-23 09:48:36</time>
      </trkpt>
      <trkpt lat="42.1517" lon="0.74678">
        <ele>967.6</ele>
        <time>2022-05-23 09:48:37</time>
      </trkpt>
      <trkpt lat="42.15182" lon="0.74671">
        <ele>967.2</ele>
        <time>2022-05-23 09:48:38</time>
      </trkpt>
      <trkpt lat="42.15194" lon="0.74664">
        <ele>966.8</ele>
        <time>2022-05-23 09:48:39</time>
      </trkpt>
      <trkpt lat="42.15204" lon="0.74656">
        <ele>966.4</ele>
        <time>2022-05-23 09:48:40</time>
      </trkpt>
      <trkpt lat="42.15213" lon="0.74646">
        <ele>966</ele>
        <time>2022-05-23 09:48:41</time>
      </trkpt>
      <trkpt lat="42.15221" lon="0.74636">
        <ele>965.4</ele>
        <time>2022-05-23 09:48:42</time>
      </trkpt>
      <trkpt lat="42.1523" lon="0.74628">
        <ele>965</ele>
        <time>2022-05-23 09:48:43</time>
      </trkpt>
      <trkpt lat="42.15237" lon="0.74613">
        <ele>964.6</ele>
        <time>2022-05-23 09:48:44</time>
      </trkpt>
      <trkpt lat="42.15242" lon="0.746">
        <ele>964.2</ele>
        <time>2022-05-23 09:48:45</time>
      </trkpt>
      <trkpt lat="42.15246" lon="0.74587">
        <ele>964</ele>
        <time>2022-05-23 09:48:46</time>
      </trkpt>
      <trkpt lat="42.15247" lon="0.74573">
        <ele>963.6</ele>
        <time>2022-05-23 09:48:47</time>
      </trkpt>
      <trkpt lat="42.15249" lon="0.7456">
        <ele>963.2</ele>
        <time>2022-05-23 09:48:48</time>
      </trkpt>
      <trkpt lat="42.1525" lon="0.74545">
        <ele>962.8</ele>
        <time>2022-05-23 09:48:49</time>
      </trkpt>
      <trkpt lat="42.15251" lon="0.7453">
        <ele>962.6</ele>
        <time>2022-05-23 09:48:50</time>
      </trkpt>
      <trkpt lat="42.15251" lon="0.74516">
        <ele>962.4</ele>
        <time>2022-05-23 09:48:51</time>
      </trkpt>
      <trkpt lat="42.15251" lon="0.74504">
        <ele>962</ele>
        <time>2022-05-23 09:48:52</time>
      </trkpt>
      <trkpt lat="42.15253" lon="0.7449">
        <ele>961.8</ele>
        <time>2022-05-23 09:48:53</time>
      </trkpt>
      <trkpt lat="42.15256" lon="0.74479">
        <ele>961.6</ele>
        <time>2022-05-23 09:48:54</time>
      </trkpt>
      <trkpt lat="42.15259" lon="0.74466">
        <ele>961.6</ele>
        <time>2022-05-23 09:48:55</time>
      </trkpt>
      <trkpt lat="42.15265" lon="0.74457">
        <ele>961.4</ele>
        <time>2022-05-23 09:48:56</time>
      </trkpt>
      <trkpt lat="42.15272" lon="0.7445">
        <ele>961.4</ele>
        <time>2022-05-23 09:48:57</time>
      </trkpt>
      <trkpt lat="42.1528" lon="0.74444">
        <ele>961.4</ele>
        <time>2022-05-23 09:48:58</time>
      </trkpt>
      <trkpt lat="42.15289" lon="0.7444">
        <ele>961.4</ele>
        <time>2022-05-23 09:48:59</time>
      </trkpt>
      <trkpt lat="42.15298" lon="0.74437">
        <ele>961.2</ele>
        <time>2022-05-23 09:49:00</time>
      </trkpt>
      <trkpt lat="42.15306" lon="0.74435">
        <ele>961</ele>
        <time>2022-05-23 09:49:01</time>
      </trkpt>
      <trkpt lat="42.15315" lon="0.74433">
        <ele>960.8</ele>
        <time>2022-05-23 09:49:02</time>
      </trkpt>
      <trkpt lat="42.15325" lon="0.74431">
        <ele>960.6</ele>
        <time>2022-05-23 09:49:03</time>
      </trkpt>
      <trkpt lat="42.15333" lon="0.7443">
        <ele>960.2</ele>
        <time>2022-05-23 09:49:04</time>
      </trkpt>
      <trkpt lat="42.15344" lon="0.74428">
        <ele>960</ele>
        <time>2022-05-23 09:49:05</time>
      </trkpt>
      <trkpt lat="42.15353" lon="0.74425">
        <ele>959.8</ele>
        <time>2022-05-23 09:49:06</time>
      </trkpt>
      <trkpt lat="42.15363" lon="0.74423">
        <ele>959.6</ele>
        <time>2022-05-23 09:49:07</time>
      </trkpt>
      <trkpt lat="42.15372" lon="0.74419">
        <ele>959.2</ele>
        <time>2022-05-23 09:49:08</time>
      </trkpt>
      <trkpt lat="42.15381" lon="0.74414">
        <ele>959</ele>
        <time>2022-05-23 09:49:09</time>
      </trkpt>
      <trkpt lat="42.15389" lon="0.74407">
        <ele>958.8</ele>
        <time>2022-05-23 09:49:10</time>
      </trkpt>
      <trkpt lat="42.15395" lon="0.74399">
        <ele>958.4</ele>
        <time>2022-05-23 09:49:11</time>
      </trkpt>
      <trkpt lat="42.15401" lon="0.7439">
        <ele>958.2</ele>
        <time>2022-05-23 09:49:12</time>
      </trkpt>
      <trkpt lat="42.15406" lon="0.74381">
        <ele>958</ele>
        <time>2022-05-23 09:49:13</time>
      </trkpt>
      <trkpt lat="42.15412" lon="0.74371">
        <ele>957.8</ele>
        <time>2022-05-23 09:49:14</time>
      </trkpt>
      <trkpt lat="42.15416" lon="0.74363">
        <ele>957.6</ele>
        <time>2022-05-23 09:49:15</time>
      </trkpt>
      <trkpt lat="42.15421" lon="0.74353">
        <ele>957.6</ele>
        <time>2022-05-23 09:49:16</time>
      </trkpt>
      <trkpt lat="42.15425" lon="0.74344">
        <ele>957.6</ele>
        <time>2022-05-23 09:49:17</time>
      </trkpt>
      <trkpt lat="42.15427" lon="0.74334">
        <ele>957.6</ele>
        <time>2022-05-23 09:49:18</time>
      </trkpt>
      <trkpt lat="42.15429" lon="0.74324">
        <ele>957.6</ele>
        <time>2022-05-23 09:49:19</time>
      </trkpt>
      <trkpt lat="42.1543" lon="0.74315">
        <ele>957.8</ele>
        <time>2022-05-23 09:49:20</time>
      </trkpt>
      <trkpt lat="42.1543" lon="0.74307">
        <ele>958</ele>
        <time>2022-05-23 09:49:21</time>
      </trkpt>
      <trkpt lat="42.15429" lon="0.74299">
        <ele>958</ele>
        <time>2022-05-23 09:49:22</time>
      </trkpt>
      <trkpt lat="42.15427" lon="0.74291">
        <ele>958.2</ele>
        <time>2022-05-23 09:49:23</time>
      </trkpt>
      <trkpt lat="42.15424" lon="0.74285">
        <ele>958.4</ele>
        <time>2022-05-23 09:49:24</time>
      </trkpt>
      <trkpt lat="42.1542" lon="0.74278">
        <ele>958.6</ele>
        <time>2022-05-23 09:49:25</time>
      </trkpt>
      <trkpt lat="42.15416" lon="0.74272">
        <ele>958.6</ele>
        <time>2022-05-23 09:49:26</time>
      </trkpt>
      <trkpt lat="42.15412" lon="0.74265">
        <ele>958.6</ele>
        <time>2022-05-23 09:49:27</time>
      </trkpt>
      <trkpt lat="42.15407" lon="0.74259">
        <ele>958.6</ele>
        <time>2022-05-23 09:49:28</time>
      </trkpt>
      <trkpt lat="42.15402" lon="0.74253">
        <ele>958.4</ele>
        <time>2022-05-23 09:49:29</time>
      </trkpt>
      <trkpt lat="42.15397" lon="0.74246">
        <ele>958.2</ele>
        <time>2022-05-23 09:49:30</time>
      </trkpt>
      <trkpt lat="42.15392" lon="0.7424">
        <ele>957.8</ele>
        <time>2022-05-23 09:49:31</time>
      </trkpt>
      <trkpt lat="42.15387" lon="0.74233">
        <ele>957.6</ele>
        <time>2022-05-23 09:49:32</time>
      </trkpt>
      <trkpt lat="42.15381" lon="0.74225">
        <ele>957.4</ele>
        <time>2022-05-23 09:49:33</time>
      </trkpt>
      <trkpt lat="42.15375" lon="0.74218">
        <ele>957.4</ele>
        <time>2022-05-23 09:49:34</time>
      </trkpt>
      <trkpt lat="42.15369" lon="0.74212">
        <ele>957.2</ele>
        <time>2022-05-23 09:49:35</time>
      </trkpt>
      <trkpt lat="42.15363" lon="0.74204">
        <ele>956.8</ele>
        <time>2022-05-23 09:49:36</time>
      </trkpt>
      <trkpt lat="42.15357" lon="0.74197">
        <ele>956.6</ele>
        <time>2022-05-23 09:49:37</time>
      </trkpt>
      <trkpt lat="42.15352" lon="0.74188">
        <ele>956.2</ele>
        <time>2022-05-23 09:49:38</time>
      </trkpt>
      <trkpt lat="42.15347" lon="0.74179">
        <ele>955.8</ele>
        <time>2022-05-23 09:49:39</time>
      </trkpt>
      <trkpt lat="42.15344" lon="0.74169">
        <ele>955.4</ele>
        <time>2022-05-23 09:49:40</time>
      </trkpt>
      <trkpt lat="42.15342" lon="0.74158">
        <ele>954.8</ele>
        <time>2022-05-23 09:49:41</time>
      </trkpt>
      <trkpt lat="42.15341" lon="0.74145">
        <ele>954.4</ele>
        <time>2022-05-23 09:49:42</time>
      </trkpt>
      <trkpt lat="42.15341" lon="0.74133">
        <ele>954</ele>
        <time>2022-05-23 09:49:43</time>
      </trkpt>
      <trkpt lat="42.15342" lon="0.74121">
        <ele>953.6</ele>
        <time>2022-05-23 09:49:44</time>
      </trkpt>
      <trkpt lat="42.15343" lon="0.74109">
        <ele>953</ele>
        <time>2022-05-23 09:49:45</time>
      </trkpt>
      <trkpt lat="42.15345" lon="0.74096">
        <ele>952.6</ele>
        <time>2022-05-23 09:49:46</time>
      </trkpt>
      <trkpt lat="42.15348" lon="0.74084">
        <ele>952</ele>
        <time>2022-05-23 09:49:47</time>
      </trkpt>
      <trkpt lat="42.15351" lon="0.74072">
        <ele>951.6</ele>
        <time>2022-05-23 09:49:48</time>
      </trkpt>
      <trkpt lat="42.15353" lon="0.7406">
        <ele>951</ele>
        <time>2022-05-23 09:49:49</time>
      </trkpt>
      <trkpt lat="42.15355" lon="0.74048">
        <ele>950.4</ele>
        <time>2022-05-23 09:49:50</time>
      </trkpt>
      <trkpt lat="42.15355" lon="0.74035">
        <ele>950</ele>
        <time>2022-05-23 09:49:51</time>
      </trkpt>
      <trkpt lat="42.15351" lon="0.74023">
        <ele>949.4</ele>
        <time>2022-05-23 09:49:52</time>
      </trkpt>
      <trkpt lat="42.15346" lon="0.74012">
        <ele>949</ele>
        <time>2022-05-23 09:49:53</time>
      </trkpt>
      <trkpt lat="42.15339" lon="0.74003">
        <ele>948.6</ele>
        <time>2022-05-23 09:49:54</time>
      </trkpt>
      <trkpt lat="42.15332" lon="0.73995">
        <ele>948</ele>
        <time>2022-05-23 09:49:55</time>
      </trkpt>
      <trkpt lat="42.15323" lon="0.73988">
        <ele>947.2</ele>
        <time>2022-05-23 09:49:56</time>
      </trkpt>
      <trkpt lat="42.15313" lon="0.7398">
        <ele>946.2</ele>
        <time>2022-05-23 09:49:57</time>
      </trkpt>
      <trkpt lat="42.15303" lon="0.73971">
        <ele>945.4</ele>
        <time>2022-05-23 09:49:58</time>
      </trkpt>
      <trkpt lat="42.15293" lon="0.73964">
        <ele>944.6</ele>
        <time>2022-05-23 09:49:59</time>
      </trkpt>
      <trkpt lat="42.15282" lon="0.73957">
        <ele>943.8</ele>
        <time>2022-05-23 09:50:00</time>
      </trkpt>
      <trkpt lat="42.15271" lon="0.7395">
        <ele>943</ele>
        <time>2022-05-23 09:50:01</time>
      </trkpt>
      <trkpt lat="42.1526" lon="0.73945">
        <ele>942.2</ele>
        <time>2022-05-23 09:50:02</time>
      </trkpt>
      <trkpt lat="42.1525" lon="0.73943">
        <ele>941.6</ele>
        <time>2022-05-23 09:50:03</time>
      </trkpt>
      <trkpt lat="42.15238" lon="0.73943">
        <ele>941.2</ele>
        <time>2022-05-23 09:50:04</time>
      </trkpt>
      <trkpt lat="42.15227" lon="0.73943">
        <ele>940.8</ele>
        <time>2022-05-23 09:50:05</time>
      </trkpt>
      <trkpt lat="42.15215" lon="0.73943">
        <ele>940.2</ele>
        <time>2022-05-23 09:50:06</time>
      </trkpt>
      <trkpt lat="42.15203" lon="0.73942">
        <ele>939.4</ele>
        <time>2022-05-23 09:50:07</time>
      </trkpt>
      <trkpt lat="42.15192" lon="0.73939">
        <ele>938.8</ele>
        <time>2022-05-23 09:50:08</time>
      </trkpt>
      <trkpt lat="42.15181" lon="0.73936">
        <ele>938.2</ele>
        <time>2022-05-23 09:50:09</time>
      </trkpt>
      <trkpt lat="42.1517" lon="0.73932">
        <ele>937.6</ele>
        <time>2022-05-23 09:50:10</time>
      </trkpt>
      <trkpt lat="42.15158" lon="0.73928">
        <ele>937</ele>
        <time>2022-05-23 09:50:11</time>
      </trkpt>
      <trkpt lat="42.15147" lon="0.73924">
        <ele>936.2</ele>
        <time>2022-05-23 09:50:12</time>
      </trkpt>
      <trkpt lat="42.15137" lon="0.73921">
        <ele>935.6</ele>
        <time>2022-05-23 09:50:13</time>
      </trkpt>
      <trkpt lat="42.15126" lon="0.73917">
        <ele>935.2</ele>
        <time>2022-05-23 09:50:14</time>
      </trkpt>
      <trkpt lat="42.15115" lon="0.73912">
        <ele>934.6</ele>
        <time>2022-05-23 09:50:15</time>
      </trkpt>
      <trkpt lat="42.15104" lon="0.73908">
        <ele>934.2</ele>
        <time>2022-05-23 09:50:16</time>
      </trkpt>
      <trkpt lat="42.15094" lon="0.73903">
        <ele>933.6</ele>
        <time>2022-05-23 09:50:17</time>
      </trkpt>
      <trkpt lat="42.15082" lon="0.73896">
        <ele>933</ele>
        <time>2022-05-23 09:50:18</time>
      </trkpt>
      <trkpt lat="42.15072" lon="0.7389">
        <ele>932.2</ele>
        <time>2022-05-23 09:50:19</time>
      </trkpt>
      <trkpt lat="42.1506" lon="0.73883">
        <ele>931.6</ele>
        <time>2022-05-23 09:50:20</time>
      </trkpt>
      <trkpt lat="42.15048" lon="0.73876">
        <ele>931</ele>
        <time>2022-05-23 09:50:21</time>
      </trkpt>
      <trkpt lat="42.15037" lon="0.73869">
        <ele>930.4</ele>
        <time>2022-05-23 09:50:22</time>
      </trkpt>
      <trkpt lat="42.15026" lon="0.73861">
        <ele>930</ele>
        <time>2022-05-23 09:50:23</time>
      </trkpt>
      <trkpt lat="42.15016" lon="0.73855">
        <ele>929.4</ele>
        <time>2022-05-23 09:50:24</time>
      </trkpt>
      <trkpt lat="42.15005" lon="0.73849">
        <ele>929</ele>
        <time>2022-05-23 09:50:25</time>
      </trkpt>
      <trkpt lat="42.14994" lon="0.73843">
        <ele>928.8</ele>
        <time>2022-05-23 09:50:26</time>
      </trkpt>
      <trkpt lat="42.14983" lon="0.73838">
        <ele>928.4</ele>
        <time>2022-05-23 09:50:27</time>
      </trkpt>
      <trkpt lat="42.14972" lon="0.73835">
        <ele>928</ele>
        <time>2022-05-23 09:50:28</time>
      </trkpt>
      <trkpt lat="42.14962" lon="0.73832">
        <ele>927.6</ele>
        <time>2022-05-23 09:50:29</time>
      </trkpt>
      <trkpt lat="42.14951" lon="0.7383">
        <ele>927</ele>
        <time>2022-05-23 09:50:30</time>
      </trkpt>
      <trkpt lat="42.14939" lon="0.73828">
        <ele>926.4</ele>
        <time>2022-05-23 09:50:31</time>
      </trkpt>
      <trkpt lat="42.14928" lon="0.73825">
        <ele>925.8</ele>
        <time>2022-05-23 09:50:32</time>
      </trkpt>
      <trkpt lat="42.14916" lon="0.73821">
        <ele>925</ele>
        <time>2022-05-23 09:50:33</time>
      </trkpt>
      <trkpt lat="42.14905" lon="0.73816">
        <ele>924.4</ele>
        <time>2022-05-23 09:50:34</time>
      </trkpt>
      <trkpt lat="42.14894" lon="0.7381">
        <ele>923.8</ele>
        <time>2022-05-23 09:50:35</time>
      </trkpt>
      <trkpt lat="42.14884" lon="0.73801">
        <ele>923.2</ele>
        <time>2022-05-23 09:50:36</time>
      </trkpt>
      <trkpt lat="42.14875" lon="0.73791">
        <ele>922.6</ele>
        <time>2022-05-23 09:50:37</time>
      </trkpt>
      <trkpt lat="42.14867" lon="0.73781">
        <ele>922</ele>
        <time>2022-05-23 09:50:38</time>
      </trkpt>
      <trkpt lat="42.14859" lon="0.7377">
        <ele>921.2</ele>
        <time>2022-05-23 09:50:39</time>
      </trkpt>
      <trkpt lat="42.14853" lon="0.73757">
        <ele>920.6</ele>
        <time>2022-05-23 09:50:40</time>
      </trkpt>
      <trkpt lat="42.14851" lon="0.73742">
        <ele>919.8</ele>
        <time>2022-05-23 09:50:41</time>
      </trkpt>
      <trkpt lat="42.14849" lon="0.73724">
        <ele>919.2</ele>
        <time>2022-05-23 09:50:42</time>
      </trkpt>
      <trkpt lat="42.14848" lon="0.73708">
        <ele>918.8</ele>
        <time>2022-05-23 09:50:43</time>
      </trkpt>
      <trkpt lat="42.14846" lon="0.7369">
        <ele>918.2</ele>
        <time>2022-05-23 09:50:44</time>
      </trkpt>
      <trkpt lat="42.14844" lon="0.73675">
        <ele>917.8</ele>
        <time>2022-05-23 09:50:45</time>
      </trkpt>
      <trkpt lat="42.14843" lon="0.73659">
        <ele>917.4</ele>
        <time>2022-05-23 09:50:46</time>
      </trkpt>
      <trkpt lat="42.14841" lon="0.73644">
        <ele>916.8</ele>
        <time>2022-05-23 09:50:47</time>
      </trkpt>
      <trkpt lat="42.1484" lon="0.73628">
        <ele>916.2</ele>
        <time>2022-05-23 09:50:48</time>
      </trkpt>
      <trkpt lat="42.14838" lon="0.73613">
        <ele>915.6</ele>
        <time>2022-05-23 09:50:49</time>
      </trkpt>
      <trkpt lat="42.14837" lon="0.73598">
        <ele>915</ele>
        <time>2022-05-23 09:50:50</time>
      </trkpt>
      <trkpt lat="42.14835" lon="0.73584">
        <ele>914.4</ele>
        <time>2022-05-23 09:50:51</time>
      </trkpt>
      <trkpt lat="42.14834" lon="0.7357">
        <ele>913.6</ele>
        <time>2022-05-23 09:50:52</time>
      </trkpt>
      <trkpt lat="42.14832" lon="0.73555">
        <ele>913</ele>
        <time>2022-05-23 09:50:53</time>
      </trkpt>
      <trkpt lat="42.14831" lon="0.73541">
        <ele>912.4</ele>
        <time>2022-05-23 09:50:54</time>
      </trkpt>
      <trkpt lat="42.14828" lon="0.73526">
        <ele>911.8</ele>
        <time>2022-05-23 09:50:55</time>
      </trkpt>
      <trkpt lat="42.14827" lon="0.73512">
        <ele>911.2</ele>
        <time>2022-05-23 09:50:56</time>
      </trkpt>
      <trkpt lat="42.14825" lon="0.73498">
        <ele>910.6</ele>
        <time>2022-05-23 09:50:57</time>
      </trkpt>
      <trkpt lat="42.14824" lon="0.73485">
        <ele>909.8</ele>
        <time>2022-05-23 09:50:58</time>
      </trkpt>
      <trkpt lat="42.14822" lon="0.73471">
        <ele>909</ele>
        <time>2022-05-23 09:50:59</time>
      </trkpt>
      <trkpt lat="42.1482" lon="0.73457">
        <ele>908.2</ele>
        <time>2022-05-23 09:51:00</time>
      </trkpt>
      <trkpt lat="42.14818" lon="0.73443">
        <ele>907.4</ele>
        <time>2022-05-23 09:51:01</time>
      </trkpt>
      <trkpt lat="42.14816" lon="0.73428">
        <ele>906.6</ele>
        <time>2022-05-23 09:51:02</time>
      </trkpt>
      <trkpt lat="42.14813" lon="0.73414">
        <ele>905.6</ele>
        <time>2022-05-23 09:51:03</time>
      </trkpt>
      <trkpt lat="42.14809" lon="0.73398">
        <ele>904.8</ele>
        <time>2022-05-23 09:51:04</time>
      </trkpt>
      <trkpt lat="42.14806" lon="0.73382">
        <ele>904</ele>
        <time>2022-05-23 09:51:05</time>
      </trkpt>
      <trkpt lat="42.14803" lon="0.73366">
        <ele>903</ele>
        <time>2022-05-23 09:51:06</time>
      </trkpt>
      <trkpt lat="42.14799" lon="0.7335">
        <ele>902</ele>
        <time>2022-05-23 09:51:07</time>
      </trkpt>
      <trkpt lat="42.14796" lon="0.73333">
        <ele>901</ele>
        <time>2022-05-23 09:51:08</time>
      </trkpt>
      <trkpt lat="42.14791" lon="0.73317">
        <ele>900.4</ele>
        <time>2022-05-23 09:51:09</time>
      </trkpt>
      <trkpt lat="42.14786" lon="0.73302">
        <ele>899.6</ele>
        <time>2022-05-23 09:51:10</time>
      </trkpt>
      <trkpt lat="42.14779" lon="0.73288">
        <ele>899</ele>
        <time>2022-05-23 09:51:11</time>
      </trkpt>
      <trkpt lat="42.14771" lon="0.73277">
        <ele>898.6</ele>
        <time>2022-05-23 09:51:12</time>
      </trkpt>
      <trkpt lat="42.14764" lon="0.73267">
        <ele>898.4</ele>
        <time>2022-05-23 09:51:13</time>
      </trkpt>
      <trkpt lat="42.14755" lon="0.73258">
        <ele>898.2</ele>
        <time>2022-05-23 09:51:14</time>
      </trkpt>
      <trkpt lat="42.14746" lon="0.73249">
        <ele>898</ele>
        <time>2022-05-23 09:51:15</time>
      </trkpt>
      <trkpt lat="42.14739" lon="0.73238">
        <ele>897.8</ele>
        <time>2022-05-23 09:51:16</time>
      </trkpt>
      <trkpt lat="42.14731" lon="0.73229">
        <ele>897.6</ele>
        <time>2022-05-23 09:51:17</time>
      </trkpt>
      <trkpt lat="42.14723" lon="0.73222">
        <ele>897.4</ele>
        <time>2022-05-23 09:51:18</time>
      </trkpt>
      <trkpt lat="42.14714" lon="0.73216">
        <ele>897.6</ele>
        <time>2022-05-23 09:51:19</time>
      </trkpt>
      <trkpt lat="42.14705" lon="0.73211">
        <ele>898</ele>
        <time>2022-05-23 09:51:20</time>
      </trkpt>
      <trkpt lat="42.14697" lon="0.73208">
        <ele>898.2</ele>
        <time>2022-05-23 09:51:21</time>
      </trkpt>
      <trkpt lat="42.14689" lon="0.73206">
        <ele>898.4</ele>
        <time>2022-05-23 09:51:22</time>
      </trkpt>
      <trkpt lat="42.14682" lon="0.73204">
        <ele>898.6</ele>
        <time>2022-05-23 09:51:23</time>
      </trkpt>
      <trkpt lat="42.14675" lon="0.73201">
        <ele>899</ele>
        <time>2022-05-23 09:51:24</time>
      </trkpt>
      <trkpt lat="42.14668" lon="0.73199">
        <ele>899.2</ele>
        <time>2022-05-23 09:51:25</time>
      </trkpt>
      <trkpt lat="42.14661" lon="0.73197">
        <ele>899.4</ele>
        <time>2022-05-23 09:51:26</time>
      </trkpt>
      <trkpt lat="42.14655" lon="0.73195">
        <ele>899.6</ele>
        <time>2022-05-23 09:51:27</time>
      </trkpt>
      <trkpt lat="42.14648" lon="0.73193">
        <ele>899.8</ele>
        <time>2022-05-23 09:51:28</time>
      </trkpt>
      <trkpt lat="42.14642" lon="0.73191">
        <ele>900</ele>
        <time>2022-05-23 09:51:29</time>
      </trkpt>
      <trkpt lat="42.14636" lon="0.73189">
        <ele>900.4</ele>
        <time>2022-05-23 09:51:30</time>
      </trkpt>
      <trkpt lat="42.1463" lon="0.73187">
        <ele>900.8</ele>
        <time>2022-05-23 09:51:31</time>
      </trkpt>
      <trkpt lat="42.14624" lon="0.73186">
        <ele>901</ele>
        <time>2022-05-23 09:51:32</time>
      </trkpt>
      <trkpt lat="42.14619" lon="0.73184">
        <ele>901.2</ele>
        <time>2022-05-23 09:51:33</time>
      </trkpt>
      <trkpt lat="42.14613" lon="0.73183">
        <ele>901.4</ele>
        <time>2022-05-23 09:51:34</time>
      </trkpt>
      <trkpt lat="42.14607" lon="0.73181">
        <ele>901.6</ele>
        <time>2022-05-23 09:51:35</time>
      </trkpt>
      <trkpt lat="42.14603" lon="0.7318">
        <ele>901.8</ele>
        <time>2022-05-23 09:51:36</time>
      </trkpt>
      <trkpt lat="42.14597" lon="0.73178">
        <ele>902</ele>
        <time>2022-05-23 09:51:37</time>
      </trkpt>
      <trkpt lat="42.14592" lon="0.73177">
        <ele>902.2</ele>
        <time>2022-05-23 09:51:38</time>
      </trkpt>
      <trkpt lat="42.14587" lon="0.73175">
        <ele>902.2</ele>
        <time>2022-05-23 09:51:39</time>
      </trkpt>
      <trkpt lat="42.14582" lon="0.73174">
        <ele>902.2</ele>
        <time>2022-05-23 09:51:40</time>
      </trkpt>
      <trkpt lat="42.14577" lon="0.73173">
        <ele>902.2</ele>
        <time>2022-05-23 09:51:41</time>
      </trkpt>
      <trkpt lat="42.14572" lon="0.73171">
        <ele>902.2</ele>
        <time>2022-05-23 09:51:42</time>
      </trkpt>
      <trkpt lat="42.14567" lon="0.73169">
        <ele>902.2</ele>
        <time>2022-05-23 09:51:43</time>
      </trkpt>
      <trkpt lat="42.14562" lon="0.73167">
        <ele>902.2</ele>
        <time>2022-05-23 09:51:44</time>
      </trkpt>
      <trkpt lat="42.14557" lon="0.73164">
        <ele>902</ele>
        <time>2022-05-23 09:51:45</time>
      </trkpt>
      <trkpt lat="42.1455" lon="0.7316">
        <ele>901.8</ele>
        <time>2022-05-23 09:51:46</time>
      </trkpt>
      <trkpt lat="42.14545" lon="0.73156">
        <ele>901.6</ele>
        <time>2022-05-23 09:51:47</time>
      </trkpt>
      <trkpt lat="42.14539" lon="0.73152">
        <ele>901.4</ele>
        <time>2022-05-23 09:51:48</time>
      </trkpt>
      <trkpt lat="42.14533" lon="0.73147">
        <ele>901</ele>
        <time>2022-05-23 09:51:49</time>
      </trkpt>
      <trkpt lat="42.14528" lon="0.73141">
        <ele>900.8</ele>
        <time>2022-05-23 09:51:50</time>
      </trkpt>
      <trkpt lat="42.14522" lon="0.73135">
        <ele>900.4</ele>
        <time>2022-05-23 09:51:51</time>
      </trkpt>
      <trkpt lat="42.14516" lon="0.73128">
        <ele>899.8</ele>
        <time>2022-05-23 09:51:52</time>
      </trkpt>
      <trkpt lat="42.1451" lon="0.73121">
        <ele>899.2</ele>
        <time>2022-05-23 09:51:53</time>
      </trkpt>
      <trkpt lat="42.14504" lon="0.73114">
        <ele>898.6</ele>
        <time>2022-05-23 09:51:54</time>
      </trkpt>
      <trkpt lat="42.14497" lon="0.73105">
        <ele>897.8</ele>
        <time>2022-05-23 09:51:55</time>
      </trkpt>
      <trkpt lat="42.14491" lon="0.73097">
        <ele>897</ele>
        <time>2022-05-23 09:51:56</time>
      </trkpt>
      <trkpt lat="42.14484" lon="0.73088">
        <ele>896.4</ele>
        <time>2022-05-23 09:51:57</time>
      </trkpt>
      <trkpt lat="42.14477" lon="0.7308">
        <ele>895.6</ele>
        <time>2022-05-23 09:51:58</time>
      </trkpt>
      <trkpt lat="42.1447" lon="0.7307">
        <ele>895</ele>
        <time>2022-05-23 09:51:59</time>
      </trkpt>
      <trkpt lat="42.14465" lon="0.73061">
        <ele>894.2</ele>
        <time>2022-05-23 09:52:00</time>
      </trkpt>
      <trkpt lat="42.14459" lon="0.73048">
        <ele>893.2</ele>
        <time>2022-05-23 09:52:01</time>
      </trkpt>
      <trkpt lat="42.14453" lon="0.73037">
        <ele>892.4</ele>
        <time>2022-05-23 09:52:02</time>
      </trkpt>
      <trkpt lat="42.14448" lon="0.73025">
        <ele>891.6</ele>
        <time>2022-05-23 09:52:03</time>
      </trkpt>
      <trkpt lat="42.14443" lon="0.73012">
        <ele>890.8</ele>
        <time>2022-05-23 09:52:04</time>
      </trkpt>
      <trkpt lat="42.14439" lon="0.72998">
        <ele>889.8</ele>
        <time>2022-05-23 09:52:05</time>
      </trkpt>
      <trkpt lat="42.14436" lon="0.72984">
        <ele>888.8</ele>
        <time>2022-05-23 09:52:06</time>
      </trkpt>
      <trkpt lat="42.14433" lon="0.72968">
        <ele>887.8</ele>
        <time>2022-05-23 09:52:07</time>
      </trkpt>
      <trkpt lat="42.14432" lon="0.72952">
        <ele>886.6</ele>
        <time>2022-05-23 09:52:08</time>
      </trkpt>
      <trkpt lat="42.14432" lon="0.72937">
        <ele>885.6</ele>
        <time>2022-05-23 09:52:09</time>
      </trkpt>
      <trkpt lat="42.14434" lon="0.72922">
        <ele>884.4</ele>
        <time>2022-05-23 09:52:10</time>
      </trkpt>
      <trkpt lat="42.14438" lon="0.72908">
        <ele>883.4</ele>
        <time>2022-05-23 09:52:11</time>
      </trkpt>
      <trkpt lat="42.14447" lon="0.72897">
        <ele>882.2</ele>
        <time>2022-05-23 09:52:12</time>
      </trkpt>
      <trkpt lat="42.14458" lon="0.72889">
        <ele>881.2</ele>
        <time>2022-05-23 09:52:13</time>
      </trkpt>
      <trkpt lat="42.1447" lon="0.72883">
        <ele>880</ele>
        <time>2022-05-23 09:52:14</time>
      </trkpt>
      <trkpt lat="42.14484" lon="0.72877">
        <ele>879</ele>
        <time>2022-05-23 09:52:15</time>
      </trkpt>
      <trkpt lat="42.14496" lon="0.72871">
        <ele>877.6</ele>
        <time>2022-05-23 09:52:16</time>
      </trkpt>
      <trkpt lat="42.14509" lon="0.72865">
        <ele>876.4</ele>
        <time>2022-05-23 09:52:17</time>
      </trkpt>
      <trkpt lat="42.14521" lon="0.72858">
        <ele>875.6</ele>
        <time>2022-05-23 09:52:18</time>
      </trkpt>
      <trkpt lat="42.14532" lon="0.72848">
        <ele>874.6</ele>
        <time>2022-05-23 09:52:19</time>
      </trkpt>
      <trkpt lat="42.14542" lon="0.72837">
        <ele>873.6</ele>
        <time>2022-05-23 09:52:20</time>
      </trkpt>
      <trkpt lat="42.1455" lon="0.72825">
        <ele>873</ele>
        <time>2022-05-23 09:52:21</time>
      </trkpt>
      <trkpt lat="42.14557" lon="0.72811">
        <ele>872.6</ele>
        <time>2022-05-23 09:52:22</time>
      </trkpt>
      <trkpt lat="42.14561" lon="0.72797">
        <ele>872</ele>
        <time>2022-05-23 09:52:23</time>
      </trkpt>
      <trkpt lat="42.14564" lon="0.72781">
        <ele>871.4</ele>
        <time>2022-05-23 09:52:24</time>
      </trkpt>
      <trkpt lat="42.14567" lon="0.72766">
        <ele>870.8</ele>
        <time>2022-05-23 09:52:25</time>
      </trkpt>
      <trkpt lat="42.14569" lon="0.72749">
        <ele>870.4</ele>
        <time>2022-05-23 09:52:26</time>
      </trkpt>
      <trkpt lat="42.14568" lon="0.72733">
        <ele>870</ele>
        <time>2022-05-23 09:52:27</time>
      </trkpt>
      <trkpt lat="42.14566" lon="0.72721">
        <ele>869.6</ele>
        <time>2022-05-23 09:52:28</time>
      </trkpt>
      <trkpt lat="42.14562" lon="0.72704">
        <ele>869.2</ele>
        <time>2022-05-23 09:52:29</time>
      </trkpt>
      <trkpt lat="42.14557" lon="0.72692">
        <ele>868.8</ele>
        <time>2022-05-23 09:52:30</time>
      </trkpt>
      <trkpt lat="42.14551" lon="0.7268">
        <ele>868.6</ele>
        <time>2022-05-23 09:52:31</time>
      </trkpt>
      <trkpt lat="42.14544" lon="0.7267">
        <ele>868.2</ele>
        <time>2022-05-23 09:52:32</time>
      </trkpt>
      <trkpt lat="42.14535" lon="0.72661">
        <ele>867.6</ele>
        <time>2022-05-23 09:52:33</time>
      </trkpt>
      <trkpt lat="42.14526" lon="0.72654">
        <ele>867.2</ele>
        <time>2022-05-23 09:52:34</time>
      </trkpt>
      <trkpt lat="42.14515" lon="0.72648">
        <ele>866.6</ele>
        <time>2022-05-23 09:52:35</time>
      </trkpt>
      <trkpt lat="42.14503" lon="0.72643">
        <ele>866</ele>
        <time>2022-05-23 09:52:36</time>
      </trkpt>
      <trkpt lat="42.14491" lon="0.7264">
        <ele>865.4</ele>
        <time>2022-05-23 09:52:37</time>
      </trkpt>
      <trkpt lat="42.1448" lon="0.72638">
        <ele>864.8</ele>
        <time>2022-05-23 09:52:38</time>
      </trkpt>
      <trkpt lat="42.14469" lon="0.72638">
        <ele>864.2</ele>
        <time>2022-05-23 09:52:39</time>
      </trkpt>
      <trkpt lat="42.14456" lon="0.72638">
        <ele>863.4</ele>
        <time>2022-05-23 09:52:40</time>
      </trkpt>
      <trkpt lat="42.14445" lon="0.72638">
        <ele>863</ele>
        <time>2022-05-23 09:52:41</time>
      </trkpt>
      <trkpt lat="42.14432" lon="0.72638">
        <ele>862.4</ele>
        <time>2022-05-23 09:52:42</time>
      </trkpt>
      <trkpt lat="42.14421" lon="0.72637">
        <ele>861.8</ele>
        <time>2022-05-23 09:52:43</time>
      </trkpt>
      <trkpt lat="42.14409" lon="0.72635">
        <ele>861.2</ele>
        <time>2022-05-23 09:52:44</time>
      </trkpt>
      <trkpt lat="42.14396" lon="0.72634">
        <ele>860.6</ele>
        <time>2022-05-23 09:52:45</time>
      </trkpt>
      <trkpt lat="42.14385" lon="0.72634">
        <ele>859.8</ele>
        <time>2022-05-23 09:52:46</time>
      </trkpt>
      <trkpt lat="42.14372" lon="0.72632">
        <ele>859.2</ele>
        <time>2022-05-23 09:52:47</time>
      </trkpt>
      <trkpt lat="42.14362" lon="0.72628">
        <ele>858.4</ele>
        <time>2022-05-23 09:52:48</time>
      </trkpt>
      <trkpt lat="42.1435" lon="0.7262">
        <ele>857.8</ele>
        <time>2022-05-23 09:52:49</time>
      </trkpt>
      <trkpt lat="42.14341" lon="0.72611">
        <ele>857.2</ele>
        <time>2022-05-23 09:52:50</time>
      </trkpt>
      <trkpt lat="42.14333" lon="0.726">
        <ele>856.6</ele>
        <time>2022-05-23 09:52:51</time>
      </trkpt>
      <trkpt lat="42.14322" lon="0.72588">
        <ele>855.8</ele>
        <time>2022-05-23 09:52:52</time>
      </trkpt>
      <trkpt lat="42.14313" lon="0.72577">
        <ele>855</ele>
        <time>2022-05-23 09:52:53</time>
      </trkpt>
      <trkpt lat="42.14306" lon="0.72567">
        <ele>854.4</ele>
        <time>2022-05-23 09:52:54</time>
      </trkpt>
      <trkpt lat="42.14298" lon="0.72558">
        <ele>853.8</ele>
        <time>2022-05-23 09:52:55</time>
      </trkpt>
      <trkpt lat="42.1429" lon="0.72548">
        <ele>853.4</ele>
        <time>2022-05-23 09:52:56</time>
      </trkpt>
      <trkpt lat="42.14281" lon="0.72539">
        <ele>852.8</ele>
        <time>2022-05-23 09:52:57</time>
      </trkpt>
      <trkpt lat="42.14274" lon="0.72531">
        <ele>852.4</ele>
        <time>2022-05-23 09:52:58</time>
      </trkpt>
      <trkpt lat="42.14267" lon="0.72521">
        <ele>852</ele>
        <time>2022-05-23 09:52:59</time>
      </trkpt>
      <trkpt lat="42.14257" lon="0.72508">
        <ele>851.4</ele>
        <time>2022-05-23 09:53:00</time>
      </trkpt>
      <trkpt lat="42.1425" lon="0.72496">
        <ele>851</ele>
        <time>2022-05-23 09:53:01</time>
      </trkpt>
      <trkpt lat="42.14245" lon="0.72483">
        <ele>850.4</ele>
        <time>2022-05-23 09:53:02</time>
      </trkpt>
      <trkpt lat="42.1424" lon="0.72471">
        <ele>849.8</ele>
        <time>2022-05-23 09:53:03</time>
      </trkpt>
      <trkpt lat="42.14235" lon="0.72457">
        <ele>849</ele>
        <time>2022-05-23 09:53:04</time>
      </trkpt>
      <trkpt lat="42.14231" lon="0.72443">
        <ele>848.4</ele>
        <time>2022-05-23 09:53:05</time>
      </trkpt>
      <trkpt lat="42.14227" lon="0.72427">
        <ele>847.6</ele>
        <time>2022-05-23 09:53:06</time>
      </trkpt>
      <trkpt lat="42.14223" lon="0.72414">
        <ele>846.8</ele>
        <time>2022-05-23 09:53:07</time>
      </trkpt>
      <trkpt lat="42.14219" lon="0.72398">
        <ele>845.8</ele>
        <time>2022-05-23 09:53:08</time>
      </trkpt>
      <trkpt lat="42.14216" lon="0.7238">
        <ele>844.8</ele>
        <time>2022-05-23 09:53:09</time>
      </trkpt>
      <trkpt lat="42.14213" lon="0.72366">
        <ele>843.8</ele>
        <time>2022-05-23 09:53:10</time>
      </trkpt>
      <trkpt lat="42.14209" lon="0.7235">
        <ele>842.8</ele>
        <time>2022-05-23 09:53:11</time>
      </trkpt>
      <trkpt lat="42.14206" lon="0.72334">
        <ele>841.8</ele>
        <time>2022-05-23 09:53:12</time>
      </trkpt>
      <trkpt lat="42.14203" lon="0.72318">
        <ele>840.6</ele>
        <time>2022-05-23 09:53:13</time>
      </trkpt>
      <trkpt lat="42.14199" lon="0.723">
        <ele>839.6</ele>
        <time>2022-05-23 09:53:14</time>
      </trkpt>
      <trkpt lat="42.14197" lon="0.72282">
        <ele>838.4</ele>
        <time>2022-05-23 09:53:15</time>
      </trkpt>
      <trkpt lat="42.14196" lon="0.72262">
        <ele>837</ele>
        <time>2022-05-23 09:53:16</time>
      </trkpt>
      <trkpt lat="42.14197" lon="0.72245">
        <ele>835.8</ele>
        <time>2022-05-23 09:53:17</time>
      </trkpt>
      <trkpt lat="42.14198" lon="0.72224">
        <ele>834.6</ele>
        <time>2022-05-23 09:53:18</time>
      </trkpt>
      <trkpt lat="42.14198" lon="0.72207">
        <ele>833.4</ele>
        <time>2022-05-23 09:53:19</time>
      </trkpt>
      <trkpt lat="42.142" lon="0.72187">
        <ele>832.2</ele>
        <time>2022-05-23 09:53:20</time>
      </trkpt>
      <trkpt lat="42.14204" lon="0.72169">
        <ele>831.2</ele>
        <time>2022-05-23 09:53:21</time>
      </trkpt>
      <trkpt lat="42.14209" lon="0.72153">
        <ele>830</ele>
        <time>2022-05-23 09:53:22</time>
      </trkpt>
      <trkpt lat="42.14214" lon="0.72136">
        <ele>828.8</ele>
        <time>2022-05-23 09:53:23</time>
      </trkpt>
      <trkpt lat="42.14218" lon="0.72118">
        <ele>827.8</ele>
        <time>2022-05-23 09:53:24</time>
      </trkpt>
      <trkpt lat="42.14221" lon="0.72102">
        <ele>826.8</ele>
        <time>2022-05-23 09:53:25</time>
      </trkpt>
      <trkpt lat="42.14225" lon="0.72082">
        <ele>826</ele>
        <time>2022-05-23 09:53:26</time>
      </trkpt>
      <trkpt lat="42.14227" lon="0.72063">
        <ele>825</ele>
        <time>2022-05-23 09:53:27</time>
      </trkpt>
      <trkpt lat="42.14231" lon="0.72046">
        <ele>824</ele>
        <time>2022-05-23 09:53:28</time>
      </trkpt>
      <trkpt lat="42.14235" lon="0.72031">
        <ele>823</ele>
        <time>2022-05-23 09:53:29</time>
      </trkpt>
      <trkpt lat="42.14236" lon="0.72012">
        <ele>822</ele>
        <time>2022-05-23 09:53:30</time>
      </trkpt>
      <trkpt lat="42.14236" lon="0.71996">
        <ele>821</ele>
        <time>2022-05-23 09:53:31</time>
      </trkpt>
      <trkpt lat="42.14234" lon="0.71975">
        <ele>820.2</ele>
        <time>2022-05-23 09:53:32</time>
      </trkpt>
      <trkpt lat="42.14228" lon="0.71959">
        <ele>819.4</ele>
        <time>2022-05-23 09:53:33</time>
      </trkpt>
      <trkpt lat="42.14223" lon="0.71944">
        <ele>818.6</ele>
        <time>2022-05-23 09:53:34</time>
      </trkpt>
      <trkpt lat="42.14217" lon="0.71926">
        <ele>818</ele>
        <time>2022-05-23 09:53:35</time>
      </trkpt>
      <trkpt lat="42.14215" lon="0.71908">
        <ele>817.2</ele>
        <time>2022-05-23 09:53:36</time>
      </trkpt>
      <trkpt lat="42.14216" lon="0.71891">
        <ele>816.2</ele>
        <time>2022-05-23 09:53:37</time>
      </trkpt>
      <trkpt lat="42.1422" lon="0.71872">
        <ele>815.4</ele>
        <time>2022-05-23 09:53:38</time>
      </trkpt>
      <trkpt lat="42.14222" lon="0.71856">
        <ele>814.4</ele>
        <time>2022-05-23 09:53:39</time>
      </trkpt>
      <trkpt lat="42.14221" lon="0.71836">
        <ele>813.6</ele>
        <time>2022-05-23 09:53:40</time>
      </trkpt>
      <trkpt lat="42.14219" lon="0.71821">
        <ele>812.8</ele>
        <time>2022-05-23 09:53:41</time>
      </trkpt>
      <trkpt lat="42.14216" lon="0.71803">
        <ele>812.2</ele>
        <time>2022-05-23 09:53:42</time>
      </trkpt>
      <trkpt lat="42.14212" lon="0.71788">
        <ele>811.6</ele>
        <time>2022-05-23 09:53:43</time>
      </trkpt>
      <trkpt lat="42.14209" lon="0.7177">
        <ele>811</ele>
        <time>2022-05-23 09:53:44</time>
      </trkpt>
      <trkpt lat="42.14207" lon="0.71751">
        <ele>810.4</ele>
        <time>2022-05-23 09:53:45</time>
      </trkpt>
      <trkpt lat="42.14208" lon="0.71737">
        <ele>809.8</ele>
        <time>2022-05-23 09:53:46</time>
      </trkpt>
      <trkpt lat="42.14212" lon="0.71724">
        <ele>809</ele>
        <time>2022-05-23 09:53:47</time>
      </trkpt>
      <trkpt lat="42.14216" lon="0.71712">
        <ele>808.4</ele>
        <time>2022-05-23 09:53:48</time>
      </trkpt>
      <trkpt lat="42.14221" lon="0.71701">
        <ele>807.6</ele>
        <time>2022-05-23 09:53:49</time>
      </trkpt>
      <trkpt lat="42.14229" lon="0.71691">
        <ele>806.6</ele>
        <time>2022-05-23 09:53:50</time>
      </trkpt>
      <trkpt lat="42.14241" lon="0.71691">
        <ele>805.8</ele>
        <time>2022-05-23 09:53:51</time>
      </trkpt>
      <trkpt lat="42.14252" lon="0.71689">
        <ele>804.6</ele>
        <time>2022-05-23 09:53:52</time>
      </trkpt>
      <trkpt lat="42.14266" lon="0.71686">
        <ele>803.6</ele>
        <time>2022-05-23 09:53:53</time>
      </trkpt>
      <trkpt lat="42.14277" lon="0.71682">
        <ele>802.6</ele>
        <time>2022-05-23 09:53:54</time>
      </trkpt>
      <trkpt lat="42.14292" lon="0.71677">
        <ele>801.6</ele>
        <time>2022-05-23 09:53:55</time>
      </trkpt>
      <trkpt lat="42.14304" lon="0.71674">
        <ele>800.8</ele>
        <time>2022-05-23 09:53:56</time>
      </trkpt>
      <trkpt lat="42.14318" lon="0.71668">
        <ele>800</ele>
        <time>2022-05-23 09:53:57</time>
      </trkpt>
      <trkpt lat="42.14329" lon="0.71663">
        <ele>799</ele>
        <time>2022-05-23 09:53:58</time>
      </trkpt>
      <trkpt lat="42.14339" lon="0.71656">
        <ele>798.2</ele>
        <time>2022-05-23 09:53:59</time>
      </trkpt>
      <trkpt lat="42.14349" lon="0.71645">
        <ele>797.2</ele>
        <time>2022-05-23 09:54:00</time>
      </trkpt>
      <trkpt lat="42.14357" lon="0.71632">
        <ele>796.2</ele>
        <time>2022-05-23 09:54:01</time>
      </trkpt>
      <trkpt lat="42.14361" lon="0.71619">
        <ele>795.2</ele>
        <time>2022-05-23 09:54:02</time>
      </trkpt>
      <trkpt lat="42.14361" lon="0.71605">
        <ele>794.2</ele>
        <time>2022-05-23 09:54:03</time>
      </trkpt>
      <trkpt lat="42.14358" lon="0.71589">
        <ele>793.2</ele>
        <time>2022-05-23 09:54:04</time>
      </trkpt>
      <trkpt lat="42.14352" lon="0.71576">
        <ele>792</ele>
        <time>2022-05-23 09:54:05</time>
      </trkpt>
      <trkpt lat="42.14344" lon="0.71566">
        <ele>791</ele>
        <time>2022-05-23 09:54:06</time>
      </trkpt>
      <trkpt lat="42.14335" lon="0.71558">
        <ele>789.8</ele>
        <time>2022-05-23 09:54:07</time>
      </trkpt>
      <trkpt lat="42.14323" lon="0.71549">
        <ele>788.8</ele>
        <time>2022-05-23 09:54:08</time>
      </trkpt>
      <trkpt lat="42.14312" lon="0.71543">
        <ele>788</ele>
        <time>2022-05-23 09:54:09</time>
      </trkpt>
      <trkpt lat="42.14302" lon="0.71537">
        <ele>787</ele>
        <time>2022-05-23 09:54:10</time>
      </trkpt>
      <trkpt lat="42.14289" lon="0.7153">
        <ele>786</ele>
        <time>2022-05-23 09:54:11</time>
      </trkpt>
      <trkpt lat="42.14277" lon="0.71523">
        <ele>785</ele>
        <time>2022-05-23 09:54:12</time>
      </trkpt>
      <trkpt lat="42.14266" lon="0.71516">
        <ele>784.2</ele>
        <time>2022-05-23 09:54:13</time>
      </trkpt>
      <trkpt lat="42.14255" lon="0.7151">
        <ele>783.4</ele>
        <time>2022-05-23 09:54:14</time>
      </trkpt>
      <trkpt lat="42.14242" lon="0.71503">
        <ele>782.6</ele>
        <time>2022-05-23 09:54:15</time>
      </trkpt>
      <trkpt lat="42.1423" lon="0.71496">
        <ele>781.8</ele>
        <time>2022-05-23 09:54:16</time>
      </trkpt>
      <trkpt lat="42.1422" lon="0.71489">
        <ele>781</ele>
        <time>2022-05-23 09:54:17</time>
      </trkpt>
      <trkpt lat="42.1421" lon="0.71483">
        <ele>780.2</ele>
        <time>2022-05-23 09:54:18</time>
      </trkpt>
      <trkpt lat="42.14199" lon="0.71476">
        <ele>779.6</ele>
        <time>2022-05-23 09:54:19</time>
      </trkpt>
      <trkpt lat="42.14186" lon="0.71468">
        <ele>778.8</ele>
        <time>2022-05-23 09:54:20</time>
      </trkpt>
      <trkpt lat="42.14174" lon="0.71459">
        <ele>777.8</ele>
        <time>2022-05-23 09:54:21</time>
      </trkpt>
      <trkpt lat="42.14162" lon="0.71453">
        <ele>777</ele>
        <time>2022-05-23 09:54:22</time>
      </trkpt>
      <trkpt lat="42.14151" lon="0.71446">
        <ele>776.2</ele>
        <time>2022-05-23 09:54:23</time>
      </trkpt>
      <trkpt lat="42.14139" lon="0.71439">
        <ele>775.4</ele>
        <time>2022-05-23 09:54:24</time>
      </trkpt>
      <trkpt lat="42.14128" lon="0.71432">
        <ele>774.8</ele>
        <time>2022-05-23 09:54:25</time>
      </trkpt>
      <trkpt lat="42.14116" lon="0.71426">
        <ele>774.2</ele>
        <time>2022-05-23 09:54:26</time>
      </trkpt>
      <trkpt lat="42.14106" lon="0.71419">
        <ele>773.6</ele>
        <time>2022-05-23 09:54:27</time>
      </trkpt>
      <trkpt lat="42.141" lon="0.71412">
        <ele>773.2</ele>
        <time>2022-05-23 09:54:28</time>
      </trkpt>
      <trkpt lat="42.14094" lon="0.71395">
        <ele>772.6</ele>
        <time>2022-05-23 09:54:29</time>
      </trkpt>
      <trkpt lat="42.14092" lon="0.71376">
        <ele>772</ele>
        <time>2022-05-23 09:54:30</time>
      </trkpt>
      <trkpt lat="42.14095" lon="0.71358">
        <ele>771.4</ele>
        <time>2022-05-23 09:54:31</time>
      </trkpt>
      <trkpt lat="42.14098" lon="0.71339">
        <ele>770.8</ele>
        <time>2022-05-23 09:54:32</time>
      </trkpt>
      <trkpt lat="42.14104" lon="0.71323">
        <ele>770.2</ele>
        <time>2022-05-23 09:54:33</time>
      </trkpt>
      <trkpt lat="42.1411" lon="0.71308">
        <ele>769.6</ele>
        <time>2022-05-23 09:54:34</time>
      </trkpt>
      <trkpt lat="42.14116" lon="0.7129">
        <ele>768.8</ele>
        <time>2022-05-23 09:54:35</time>
      </trkpt>
      <trkpt lat="42.14121" lon="0.71274">
        <ele>768</ele>
        <time>2022-05-23 09:54:36</time>
      </trkpt>
      <trkpt lat="42.14127" lon="0.71257">
        <ele>767.2</ele>
        <time>2022-05-23 09:54:37</time>
      </trkpt>
      <trkpt lat="42.14133" lon="0.71241">
        <ele>766.4</ele>
        <time>2022-05-23 09:54:38</time>
      </trkpt>
      <trkpt lat="42.14138" lon="0.71225">
        <ele>765.4</ele>
        <time>2022-05-23 09:54:39</time>
      </trkpt>
      <trkpt lat="42.14143" lon="0.71208">
        <ele>764.4</ele>
        <time>2022-05-23 09:54:40</time>
      </trkpt>
      <trkpt lat="42.14148" lon="0.71192">
        <ele>763.4</ele>
        <time>2022-05-23 09:54:41</time>
      </trkpt>
      <trkpt lat="42.14154" lon="0.71174">
        <ele>762.4</ele>
        <time>2022-05-23 09:54:42</time>
      </trkpt>
      <trkpt lat="42.14161" lon="0.71158">
        <ele>761.4</ele>
        <time>2022-05-23 09:54:43</time>
      </trkpt>
      <trkpt lat="42.14166" lon="0.7114">
        <ele>760.4</ele>
        <time>2022-05-23 09:54:44</time>
      </trkpt>
      <trkpt lat="42.14172" lon="0.71124">
        <ele>759.4</ele>
        <time>2022-05-23 09:54:45</time>
      </trkpt>
      <trkpt lat="42.14178" lon="0.71106">
        <ele>758.6</ele>
        <time>2022-05-23 09:54:46</time>
      </trkpt>
      <trkpt lat="42.14183" lon="0.7109">
        <ele>757.8</ele>
        <time>2022-05-23 09:54:47</time>
      </trkpt>
      <trkpt lat="42.14187" lon="0.71074">
        <ele>757</ele>
        <time>2022-05-23 09:54:48</time>
      </trkpt>
      <trkpt lat="42.14189" lon="0.71057">
        <ele>756</ele>
        <time>2022-05-23 09:54:49</time>
      </trkpt>
      <trkpt lat="42.14187" lon="0.71039">
        <ele>755.2</ele>
        <time>2022-05-23 09:54:50</time>
      </trkpt>
      <trkpt lat="42.14182" lon="0.71022">
        <ele>754.4</ele>
        <time>2022-05-23 09:54:51</time>
      </trkpt>
      <trkpt lat="42.14176" lon="0.71008">
        <ele>753.6</ele>
        <time>2022-05-23 09:54:52</time>
      </trkpt>
      <trkpt lat="42.1417" lon="0.70991">
        <ele>752.8</ele>
        <time>2022-05-23 09:54:53</time>
      </trkpt>
      <trkpt lat="42.14164" lon="0.70976">
        <ele>752</ele>
        <time>2022-05-23 09:54:54</time>
      </trkpt>
      <trkpt lat="42.14158" lon="0.70961">
        <ele>751.4</ele>
        <time>2022-05-23 09:54:55</time>
      </trkpt>
      <trkpt lat="42.14154" lon="0.70944">
        <ele>750.8</ele>
        <time>2022-05-23 09:54:56</time>
      </trkpt>
      <trkpt lat="42.14152" lon="0.70929">
        <ele>750.4</ele>
        <time>2022-05-23 09:54:57</time>
      </trkpt>
      <trkpt lat="42.14156" lon="0.70917">
        <ele>750.2</ele>
        <time>2022-05-23 09:54:58</time>
      </trkpt>
      <trkpt lat="42.14164" lon="0.70909">
        <ele>749.8</ele>
        <time>2022-05-23 09:54:59</time>
      </trkpt>
      <trkpt lat="42.14173" lon="0.70907">
        <ele>749.6</ele>
        <time>2022-05-23 09:55:00</time>
      </trkpt>
      <trkpt lat="42.14183" lon="0.7091">
        <ele>749.2</ele>
        <time>2022-05-23 09:55:01</time>
      </trkpt>
      <trkpt lat="42.14192" lon="0.70917">
        <ele>749</ele>
        <time>2022-05-23 09:55:02</time>
      </trkpt>
      <trkpt lat="42.142" lon="0.70926">
        <ele>748.6</ele>
        <time>2022-05-23 09:55:03</time>
      </trkpt>
      <trkpt lat="42.14206" lon="0.70937">
        <ele>748</ele>
        <time>2022-05-23 09:55:04</time>
      </trkpt>
      <trkpt lat="42.14212" lon="0.70948">
        <ele>747.6</ele>
        <time>2022-05-23 09:55:05</time>
      </trkpt>
      <trkpt lat="42.14218" lon="0.70959">
        <ele>747.2</ele>
        <time>2022-05-23 09:55:06</time>
      </trkpt>
      <trkpt lat="42.14224" lon="0.7097">
        <ele>746.6</ele>
        <time>2022-05-23 09:55:07</time>
      </trkpt>
      <trkpt lat="42.14231" lon="0.70981">
        <ele>746</ele>
        <time>2022-05-23 09:55:08</time>
      </trkpt>
      <trkpt lat="42.14237" lon="0.70992">
        <ele>745.2</ele>
        <time>2022-05-23 09:55:09</time>
      </trkpt>
      <trkpt lat="42.14244" lon="0.71004">
        <ele>744.6</ele>
        <time>2022-05-23 09:55:10</time>
      </trkpt>
      <trkpt lat="42.14249" lon="0.71016">
        <ele>744</ele>
        <time>2022-05-23 09:55:11</time>
      </trkpt>
      <trkpt lat="42.14253" lon="0.71029">
        <ele>743.4</ele>
        <time>2022-05-23 09:55:12</time>
      </trkpt>
      <trkpt lat="42.14258" lon="0.71043">
        <ele>742.6</ele>
        <time>2022-05-23 09:55:13</time>
      </trkpt>
      <trkpt lat="42.14262" lon="0.71057">
        <ele>741.8</ele>
        <time>2022-05-23 09:55:14</time>
      </trkpt>
      <trkpt lat="42.14264" lon="0.71072">
        <ele>741</ele>
        <time>2022-05-23 09:55:15</time>
      </trkpt>
      <trkpt lat="42.14266" lon="0.71087">
        <ele>740.2</ele>
        <time>2022-05-23 09:55:16</time>
      </trkpt>
      <trkpt lat="42.14269" lon="0.71101">
        <ele>739.4</ele>
        <time>2022-05-23 09:55:17</time>
      </trkpt>
      <trkpt lat="42.14273" lon="0.71114">
        <ele>738.6</ele>
        <time>2022-05-23 09:55:18</time>
      </trkpt>
      <trkpt lat="42.14279" lon="0.71126">
        <ele>738</ele>
        <time>2022-05-23 09:55:19</time>
      </trkpt>
      <trkpt lat="42.14287" lon="0.71132">
        <ele>737.4</ele>
        <time>2022-05-23 09:55:20</time>
      </trkpt>
      <trkpt lat="42.14297" lon="0.71134">
        <ele>736.8</ele>
        <time>2022-05-23 09:55:21</time>
      </trkpt>
      <trkpt lat="42.14308" lon="0.71131">
        <ele>736</ele>
        <time>2022-05-23 09:55:22</time>
      </trkpt>
      <trkpt lat="42.14318" lon="0.71125">
        <ele>735.4</ele>
        <time>2022-05-23 09:55:23</time>
      </trkpt>
      <trkpt lat="42.1433" lon="0.71115">
        <ele>734.8</ele>
        <time>2022-05-23 09:55:24</time>
      </trkpt>
      <trkpt lat="42.14339" lon="0.71105">
        <ele>734.4</ele>
        <time>2022-05-23 09:55:25</time>
      </trkpt>
      <trkpt lat="42.14349" lon="0.71092">
        <ele>734.2</ele>
        <time>2022-05-23 09:55:26</time>
      </trkpt>
      <trkpt lat="42.14357" lon="0.71083">
        <ele>733.8</ele>
        <time>2022-05-23 09:55:27</time>
      </trkpt>
      <trkpt lat="42.14364" lon="0.71074">
        <ele>733.6</ele>
        <time>2022-05-23 09:55:28</time>
      </trkpt>
      <trkpt lat="42.1437" lon="0.71065">
        <ele>733.4</ele>
        <time>2022-05-23 09:55:29</time>
      </trkpt>
      <trkpt lat="42.14376" lon="0.71056">
        <ele>733.4</ele>
        <time>2022-05-23 09:55:30</time>
      </trkpt>
      <trkpt lat="42.14381" lon="0.71046">
        <ele>733.2</ele>
        <time>2022-05-23 09:55:31</time>
      </trkpt>
      <trkpt lat="42.14385" lon="0.71036">
        <ele>733.2</ele>
        <time>2022-05-23 09:55:32</time>
      </trkpt>
      <trkpt lat="42.14386" lon="0.71025">
        <ele>733.2</ele>
        <time>2022-05-23 09:55:33</time>
      </trkpt>
      <trkpt lat="42.14387" lon="0.71014">
        <ele>733.4</ele>
        <time>2022-05-23 09:55:34</time>
      </trkpt>
      <trkpt lat="42.14386" lon="0.71003">
        <ele>733.4</ele>
        <time>2022-05-23 09:55:35</time>
      </trkpt>
      <trkpt lat="42.14383" lon="0.70992">
        <ele>733.2</ele>
        <time>2022-05-23 09:55:36</time>
      </trkpt>
      <trkpt lat="42.1438" lon="0.70982">
        <ele>733.2</ele>
        <time>2022-05-23 09:55:37</time>
      </trkpt>
      <trkpt lat="42.14376" lon="0.70973">
        <ele>733.2</ele>
        <time>2022-05-23 09:55:38</time>
      </trkpt>
      <trkpt lat="42.14372" lon="0.70964">
        <ele>733.2</ele>
        <time>2022-05-23 09:55:39</time>
      </trkpt>
      <trkpt lat="42.14368" lon="0.70955">
        <ele>733</ele>
        <time>2022-05-23 09:55:40</time>
      </trkpt>
      <trkpt lat="42.14364" lon="0.70947">
        <ele>733</ele>
        <time>2022-05-23 09:55:41</time>
      </trkpt>
      <trkpt lat="42.14359" lon="0.70939">
        <ele>732.8</ele>
        <time>2022-05-23 09:55:42</time>
      </trkpt>
      <trkpt lat="42.14354" lon="0.70931">
        <ele>732.6</ele>
        <time>2022-05-23 09:55:43</time>
      </trkpt>
      <trkpt lat="42.14348" lon="0.70923">
        <ele>732.6</ele>
        <time>2022-05-23 09:55:44</time>
      </trkpt>
      <trkpt lat="42.14342" lon="0.70916">
        <ele>732.4</ele>
        <time>2022-05-23 09:55:45</time>
      </trkpt>
      <trkpt lat="42.14336" lon="0.70909">
        <ele>732.2</ele>
        <time>2022-05-23 09:55:46</time>
      </trkpt>
      <trkpt lat="42.1433" lon="0.70901">
        <ele>732</ele>
        <time>2022-05-23 09:55:47</time>
      </trkpt>
      <trkpt lat="42.14325" lon="0.70893">
        <ele>731.8</ele>
        <time>2022-05-23 09:55:48</time>
      </trkpt>
      <trkpt lat="42.14319" lon="0.70883">
        <ele>731.4</ele>
        <time>2022-05-23 09:55:49</time>
      </trkpt>
      <trkpt lat="42.14314" lon="0.70872">
        <ele>730.8</ele>
        <time>2022-05-23 09:55:50</time>
      </trkpt>
      <trkpt lat="42.14309" lon="0.70862">
        <ele>730.2</ele>
        <time>2022-05-23 09:55:51</time>
      </trkpt>
      <trkpt lat="42.14304" lon="0.7085">
        <ele>729.4</ele>
        <time>2022-05-23 09:55:52</time>
      </trkpt>
      <trkpt lat="42.143" lon="0.70837">
        <ele>728.6</ele>
        <time>2022-05-23 09:55:53</time>
      </trkpt>
      <trkpt lat="42.14295" lon="0.70824">
        <ele>727.8</ele>
        <time>2022-05-23 09:55:54</time>
      </trkpt>
      <trkpt lat="42.14291" lon="0.70811">
        <ele>727</ele>
        <time>2022-05-23 09:55:55</time>
      </trkpt>
      <trkpt lat="42.14286" lon="0.70796">
        <ele>726</ele>
        <time>2022-05-23 09:55:56</time>
      </trkpt>
      <trkpt lat="42.14282" lon="0.70781">
        <ele>725.2</ele>
        <time>2022-05-23 09:55:57</time>
      </trkpt>
      <trkpt lat="42.14277" lon="0.70765">
        <ele>724.2</ele>
        <time>2022-05-23 09:55:58</time>
      </trkpt>
      <trkpt lat="42.14271" lon="0.70748">
        <ele>723</ele>
        <time>2022-05-23 09:55:59</time>
      </trkpt>
      <trkpt lat="42.14267" lon="0.7073">
        <ele>722</ele>
        <time>2022-05-23 09:56:00</time>
      </trkpt>
      <trkpt lat="42.14262" lon="0.70713">
        <ele>720.8</ele>
        <time>2022-05-23 09:56:01</time>
      </trkpt>
      <trkpt lat="42.14257" lon="0.70696">
        <ele>719.8</ele>
        <time>2022-05-23 09:56:02</time>
      </trkpt>
      <trkpt lat="42.14251" lon="0.7068">
        <ele>718.6</ele>
        <time>2022-05-23 09:56:03</time>
      </trkpt>
      <trkpt lat="42.14245" lon="0.70666">
        <ele>717.4</ele>
        <time>2022-05-23 09:56:04</time>
      </trkpt>
      <trkpt lat="42.14236" lon="0.70655">
        <ele>716.4</ele>
        <time>2022-05-23 09:56:05</time>
      </trkpt>
      <trkpt lat="42.14224" lon="0.70642">
        <ele>715.4</ele>
        <time>2022-05-23 09:56:06</time>
      </trkpt>
      <trkpt lat="42.14214" lon="0.70631">
        <ele>714.4</ele>
        <time>2022-05-23 09:56:07</time>
      </trkpt>
      <trkpt lat="42.14205" lon="0.70617">
        <ele>713.4</ele>
        <time>2022-05-23 09:56:08</time>
      </trkpt>
      <trkpt lat="42.14198" lon="0.70601">
        <ele>712.4</ele>
        <time>2022-05-23 09:56:09</time>
      </trkpt>
      <trkpt lat="42.14192" lon="0.70583">
        <ele>711.2</ele>
        <time>2022-05-23 09:56:10</time>
      </trkpt>
      <trkpt lat="42.14188" lon="0.70565">
        <ele>710</ele>
        <time>2022-05-23 09:56:11</time>
      </trkpt>
      <trkpt lat="42.14183" lon="0.70549">
        <ele>709</ele>
        <time>2022-05-23 09:56:12</time>
      </trkpt>
      <trkpt lat="42.14174" lon="0.70533">
        <ele>708</ele>
        <time>2022-05-23 09:56:13</time>
      </trkpt>
      <trkpt lat="42.14165" lon="0.70518">
        <ele>706.8</ele>
        <time>2022-05-23 09:56:14</time>
      </trkpt>
      <trkpt lat="42.14156" lon="0.70502">
        <ele>705.6</ele>
        <time>2022-05-23 09:56:15</time>
      </trkpt>
      <trkpt lat="42.14149" lon="0.70488">
        <ele>704.4</ele>
        <time>2022-05-23 09:56:16</time>
      </trkpt>
      <trkpt lat="42.14142" lon="0.70471">
        <ele>703.4</ele>
        <time>2022-05-23 09:56:17</time>
      </trkpt>
      <trkpt lat="42.14135" lon="0.70454">
        <ele>702.6</ele>
        <time>2022-05-23 09:56:18</time>
      </trkpt>
      <trkpt lat="42.14127" lon="0.70438">
        <ele>701.8</ele>
        <time>2022-05-23 09:56:19</time>
      </trkpt>
      <trkpt lat="42.14119" lon="0.70422">
        <ele>700.8</ele>
        <time>2022-05-23 09:56:20</time>
      </trkpt>
      <trkpt lat="42.1411" lon="0.70408">
        <ele>699.8</ele>
        <time>2022-05-23 09:56:21</time>
      </trkpt>
      <trkpt lat="42.14101" lon="0.70394">
        <ele>699.2</ele>
        <time>2022-05-23 09:56:22</time>
      </trkpt>
      <trkpt lat="42.1409" lon="0.70381">
        <ele>698.4</ele>
        <time>2022-05-23 09:56:23</time>
      </trkpt>
      <trkpt lat="42.1408" lon="0.70369">
        <ele>697.6</ele>
        <time>2022-05-23 09:56:24</time>
      </trkpt>
      <trkpt lat="42.14072" lon="0.70356">
        <ele>696.6</ele>
        <time>2022-05-23 09:56:25</time>
      </trkpt>
      <trkpt lat="42.14067" lon="0.7034">
        <ele>695.6</ele>
        <time>2022-05-23 09:56:26</time>
      </trkpt>
      <trkpt lat="42.14064" lon="0.70323">
        <ele>694.8</ele>
        <time>2022-05-23 09:56:27</time>
      </trkpt>
      <trkpt lat="42.14065" lon="0.70307">
        <ele>693.8</ele>
        <time>2022-05-23 09:56:28</time>
      </trkpt>
      <trkpt lat="42.14073" lon="0.70291">
        <ele>692.8</ele>
        <time>2022-05-23 09:56:29</time>
      </trkpt>
      <trkpt lat="42.14082" lon="0.70276">
        <ele>691.8</ele>
        <time>2022-05-23 09:56:30</time>
      </trkpt>
      <trkpt lat="42.14091" lon="0.70262">
        <ele>690.8</ele>
        <time>2022-05-23 09:56:31</time>
      </trkpt>
      <trkpt lat="42.14102" lon="0.70251">
        <ele>689.8</ele>
        <time>2022-05-23 09:56:32</time>
      </trkpt>
      <trkpt lat="42.14114" lon="0.70243">
        <ele>688.8</ele>
        <time>2022-05-23 09:56:33</time>
      </trkpt>
      <trkpt lat="42.14128" lon="0.70236">
        <ele>687.6</ele>
        <time>2022-05-23 09:56:34</time>
      </trkpt>
      <trkpt lat="42.14142" lon="0.70229">
        <ele>686.2</ele>
        <time>2022-05-23 09:56:35</time>
      </trkpt>
      <trkpt lat="42.14157" lon="0.70224">
        <ele>685</ele>
        <time>2022-05-23 09:56:36</time>
      </trkpt>
      <trkpt lat="42.1417" lon="0.70219">
        <ele>683.8</ele>
        <time>2022-05-23 09:56:37</time>
      </trkpt>
      <trkpt lat="42.14184" lon="0.70214">
        <ele>682.6</ele>
        <time>2022-05-23 09:56:38</time>
      </trkpt>
      <trkpt lat="42.14198" lon="0.70209">
        <ele>681.4</ele>
        <time>2022-05-23 09:56:39</time>
      </trkpt>
      <trkpt lat="42.14212" lon="0.70204">
        <ele>680.4</ele>
        <time>2022-05-23 09:56:40</time>
      </trkpt>
      <trkpt lat="42.14227" lon="0.70197">
        <ele>679.4</ele>
        <time>2022-05-23 09:56:41</time>
      </trkpt>
      <trkpt lat="42.14241" lon="0.70189">
        <ele>678.2</ele>
        <time>2022-05-23 09:56:42</time>
      </trkpt>
      <trkpt lat="42.14254" lon="0.7018">
        <ele>677.2</ele>
        <time>2022-05-23 09:56:43</time>
      </trkpt>
      <trkpt lat="42.14268" lon="0.7017">
        <ele>676.4</ele>
        <time>2022-05-23 09:56:44</time>
      </trkpt>
      <trkpt lat="42.14281" lon="0.70161">
        <ele>675.4</ele>
        <time>2022-05-23 09:56:45</time>
      </trkpt>
      <trkpt lat="42.14294" lon="0.70153">
        <ele>674.2</ele>
        <time>2022-05-23 09:56:46</time>
      </trkpt>
      <trkpt lat="42.14307" lon="0.70146">
        <ele>673.2</ele>
        <time>2022-05-23 09:56:47</time>
      </trkpt>
      <trkpt lat="42.14321" lon="0.70141">
        <ele>672.2</ele>
        <time>2022-05-23 09:56:48</time>
      </trkpt>
      <trkpt lat="42.14334" lon="0.70135">
        <ele>671.4</ele>
        <time>2022-05-23 09:56:49</time>
      </trkpt>
      <trkpt lat="42.14346" lon="0.70126">
        <ele>670.6</ele>
        <time>2022-05-23 09:56:50</time>
      </trkpt>
      <trkpt lat="42.14355" lon="0.70114">
        <ele>669.6</ele>
        <time>2022-05-23 09:56:51</time>
      </trkpt>
      <trkpt lat="42.14364" lon="0.701">
        <ele>669</ele>
        <time>2022-05-23 09:56:52</time>
      </trkpt>
      <trkpt lat="42.14373" lon="0.70086">
        <ele>667.8</ele>
        <time>2022-05-23 09:56:53</time>
      </trkpt>
      <trkpt lat="42.14382" lon="0.70072">
        <ele>667</ele>
        <time>2022-05-23 09:56:54</time>
      </trkpt>
      <trkpt lat="42.14391" lon="0.70057">
        <ele>666.2</ele>
        <time>2022-05-23 09:56:55</time>
      </trkpt>
      <trkpt lat="42.14399" lon="0.70043">
        <ele>665.4</ele>
        <time>2022-05-23 09:56:56</time>
      </trkpt>
      <trkpt lat="42.14408" lon="0.70029">
        <ele>664.4</ele>
        <time>2022-05-23 09:56:57</time>
      </trkpt>
      <trkpt lat="42.14417" lon="0.70016">
        <ele>663.6</ele>
        <time>2022-05-23 09:56:58</time>
      </trkpt>
      <trkpt lat="42.14428" lon="0.70007">
        <ele>662.8</ele>
        <time>2022-05-23 09:56:59</time>
      </trkpt>
      <trkpt lat="42.14438" lon="0.70004">
        <ele>662</ele>
        <time>2022-05-23 09:57:00</time>
      </trkpt>
      <trkpt lat="42.14451" lon="0.70003">
        <ele>661.2</ele>
        <time>2022-05-23 09:57:01</time>
      </trkpt>
      <trkpt lat="42.14466" lon="0.70004">
        <ele>660.4</ele>
        <time>2022-05-23 09:57:02</time>
      </trkpt>
      <trkpt lat="42.14479" lon="0.70003">
        <ele>659.4</ele>
        <time>2022-05-23 09:57:03</time>
      </trkpt>
      <trkpt lat="42.14492" lon="0.7">
        <ele>658.6</ele>
        <time>2022-05-23 09:57:04</time>
      </trkpt>
      <trkpt lat="42.14506" lon="0.69994">
        <ele>657.8</ele>
        <time>2022-05-23 09:57:05</time>
      </trkpt>
      <trkpt lat="42.14519" lon="0.69986">
        <ele>657</ele>
        <time>2022-05-23 09:57:06</time>
      </trkpt>
      <trkpt lat="42.14531" lon="0.69978">
        <ele>656.2</ele>
        <time>2022-05-23 09:57:07</time>
      </trkpt>
      <trkpt lat="42.14543" lon="0.69971">
        <ele>655.2</ele>
        <time>2022-05-23 09:57:08</time>
      </trkpt>
      <trkpt lat="42.14555" lon="0.69963">
        <ele>654</ele>
        <time>2022-05-23 09:57:09</time>
      </trkpt>
      <trkpt lat="42.14567" lon="0.69957">
        <ele>653</ele>
        <time>2022-05-23 09:57:10</time>
      </trkpt>
      <trkpt lat="42.14577" lon="0.69953">
        <ele>652</ele>
        <time>2022-05-23 09:57:11</time>
      </trkpt>
      <trkpt lat="42.14589" lon="0.69951">
        <ele>651</ele>
        <time>2022-05-23 09:57:12</time>
      </trkpt>
      <trkpt lat="42.146" lon="0.69951">
        <ele>649.8</ele>
        <time>2022-05-23 09:57:13</time>
      </trkpt>
      <trkpt lat="42.14612" lon="0.69953">
        <ele>648.8</ele>
        <time>2022-05-23 09:57:14</time>
      </trkpt>
      <trkpt lat="42.14624" lon="0.69956">
        <ele>647.8</ele>
        <time>2022-05-23 09:57:15</time>
      </trkpt>
      <trkpt lat="42.14636" lon="0.69958">
        <ele>647</ele>
        <time>2022-05-23 09:57:16</time>
      </trkpt>
      <trkpt lat="42.14648" lon="0.6996">
        <ele>646.2</ele>
        <time>2022-05-23 09:57:17</time>
      </trkpt>
      <trkpt lat="42.14659" lon="0.69961">
        <ele>645.4</ele>
        <time>2022-05-23 09:57:18</time>
      </trkpt>
      <trkpt lat="42.14667" lon="0.69964">
        <ele>644.8</ele>
        <time>2022-05-23 09:57:19</time>
      </trkpt>
      <trkpt lat="42.14674" lon="0.69966">
        <ele>644.4</ele>
        <time>2022-05-23 09:57:20</time>
      </trkpt>
      <trkpt lat="42.14679" lon="0.69966">
        <ele>643.8</ele>
        <time>2022-05-23 09:57:21</time>
      </trkpt>
      <trkpt lat="42.14682" lon="0.69963">
        <ele>643.6</ele>
        <time>2022-05-23 09:57:22</time>
      </trkpt>
      <trkpt lat="42.14682" lon="0.6996">
        <ele>643.2</ele>
        <time>2022-05-23 09:57:23</time>
      </trkpt>
      <trkpt lat="42.1468" lon="0.69957">
        <ele>643</ele>
        <time>2022-05-23 09:57:24</time>
      </trkpt>
      <trkpt lat="42.14677" lon="0.69955">
        <ele>642.8</ele>
        <time>2022-05-23 09:57:25</time>
      </trkpt>
      <trkpt lat="42.14675" lon="0.69953">
        <ele>642.6</ele>
        <time>2022-05-23 09:57:26</time>
      </trkpt>
      <trkpt lat="42.14672" lon="0.69951">
        <ele>642.6</ele>
        <time>2022-05-23 09:57:27</time>
      </trkpt>
      <trkpt lat="42.14669" lon="0.69949">
        <ele>642.6</ele>
        <time>2022-05-23 09:57:28</time>
      </trkpt>
      <trkpt lat="42.14666" lon="0.69948">
        <ele>642.4</ele>
        <time>2022-05-23 09:57:29</time>
      </trkpt>
      <trkpt lat="42.14662" lon="0.69946">
        <ele>642.4</ele>
        <time>2022-05-23 09:57:30</time>
      </trkpt>
      <trkpt lat="42.14659" lon="0.69944">
        <ele>642.4</ele>
        <time>2022-05-23 09:57:31</time>
      </trkpt>
      <trkpt lat="42.14655" lon="0.69942">
        <ele>642.4</ele>
        <time>2022-05-23 09:57:32</time>
      </trkpt>
      <trkpt lat="42.14651" lon="0.69939">
        <ele>642.2</ele>
        <time>2022-05-23 09:57:33</time>
      </trkpt>
      <trkpt lat="42.14647" lon="0.69937">
        <ele>642.2</ele>
        <time>2022-05-23 09:57:34</time>
      </trkpt>
      <trkpt lat="42.14643" lon="0.69934">
        <ele>642.2</ele>
        <time>2022-05-23 09:57:35</time>
      </trkpt>
      <trkpt lat="42.1464" lon="0.69932">
        <ele>642.4</ele>
        <time>2022-05-23 09:57:36</time>
      </trkpt>
      <trkpt lat="42.14636" lon="0.69929">
        <ele>642.2</ele>
        <time>2022-05-23 09:57:37</time>
      </trkpt>
      <trkpt lat="42.14632" lon="0.69926">
        <ele>642.2</ele>
        <time>2022-05-23 09:57:38</time>
      </trkpt>
      <trkpt lat="42.14629" lon="0.69923">
        <ele>642.2</ele>
        <time>2022-05-23 09:57:39</time>
      </trkpt>
      <trkpt lat="42.14625" lon="0.6992">
        <ele>642.2</ele>
        <time>2022-05-23 09:57:40</time>
      </trkpt>
      <trkpt lat="42.14622" lon="0.69918">
        <ele>642.2</ele>
        <time>2022-05-23 09:57:41</time>
      </trkpt>
      <trkpt lat="42.14618" lon="0.69915">
        <ele>642.2</ele>
        <time>2022-05-23 09:57:42</time>
      </trkpt>
      <trkpt lat="42.14614" lon="0.69912">
        <ele>642.2</ele>
        <time>2022-05-23 09:57:43</time>
      </trkpt>
      <trkpt lat="42.1461" lon="0.6991">
        <ele>642</ele>
        <time>2022-05-23 09:57:44</time>
      </trkpt>
      <trkpt lat="42.14607" lon="0.69907">
        <ele>642</ele>
        <time>2022-05-23 09:57:45</time>
      </trkpt>
      <trkpt lat="42.14603" lon="0.69905">
        <ele>642</ele>
        <time>2022-05-23 09:57:46</time>
      </trkpt>
      <trkpt lat="42.14598" lon="0.69902">
        <ele>641.8</ele>
        <time>2022-05-23 09:57:47</time>
      </trkpt>
      <trkpt lat="42.14594" lon="0.69899">
        <ele>641.6</ele>
        <time>2022-05-23 09:57:48</time>
      </trkpt>
      <trkpt lat="42.14589" lon="0.69896">
        <ele>641.4</ele>
        <time>2022-05-23 09:57:49</time>
      </trkpt>
      <trkpt lat="42.14584" lon="0.69893">
        <ele>641.2</ele>
        <time>2022-05-23 09:57:50</time>
      </trkpt>
      <trkpt lat="42.1458" lon="0.69891">
        <ele>641</ele>
        <time>2022-05-23 09:57:51</time>
      </trkpt>
      <trkpt lat="42.14574" lon="0.69889">
        <ele>640.8</ele>
        <time>2022-05-23 09:57:52</time>
      </trkpt>
      <trkpt lat="42.14569" lon="0.69888">
        <ele>640.6</ele>
        <time>2022-05-23 09:57:53</time>
      </trkpt>
      <trkpt lat="42.14563" lon="0.69887">
        <ele>640.4</ele>
        <time>2022-05-23 09:57:54</time>
      </trkpt>
      <trkpt lat="42.14557" lon="0.69886">
        <ele>640</ele>
        <time>2022-05-23 09:57:55</time>
      </trkpt>
      <trkpt lat="42.14551" lon="0.69886">
        <ele>639.8</ele>
        <time>2022-05-23 09:57:56</time>
      </trkpt>
      <trkpt lat="42.14544" lon="0.69886">
        <ele>639.4</ele>
        <time>2022-05-23 09:57:57</time>
      </trkpt>
      <trkpt lat="42.14539" lon="0.69886">
        <ele>639.2</ele>
        <time>2022-05-23 09:57:58</time>
      </trkpt>
      <trkpt lat="42.1453" lon="0.69887">
        <ele>638.8</ele>
        <time>2022-05-23 09:57:59</time>
      </trkpt>
      <trkpt lat="42.14523" lon="0.69887">
        <ele>638.4</ele>
        <time>2022-05-23 09:58:00</time>
      </trkpt>
      <trkpt lat="42.14516" lon="0.69887">
        <ele>638.2</ele>
        <time>2022-05-23 09:58:01</time>
      </trkpt>
      <trkpt lat="42.14508" lon="0.69887">
        <ele>637.8</ele>
        <time>2022-05-23 09:58:02</time>
      </trkpt>
      <trkpt lat="42.145" lon="0.69887">
        <ele>637.4</ele>
        <time>2022-05-23 09:58:03</time>
      </trkpt>
      <trkpt lat="42.14492" lon="0.69887">
        <ele>637</ele>
        <time>2022-05-23 09:58:04</time>
      </trkpt>
      <trkpt lat="42.14485" lon="0.69887">
        <ele>636.8</ele>
        <time>2022-05-23 09:58:05</time>
      </trkpt>
      <trkpt lat="42.14477" lon="0.69887">
        <ele>636.4</ele>
        <time>2022-05-23 09:58:06</time>
      </trkpt>
      <trkpt lat="42.14469" lon="0.69887">
        <ele>636.2</ele>
        <time>2022-05-23 09:58:07</time>
      </trkpt>
      <trkpt lat="42.14461" lon="0.69887">
        <ele>635.8</ele>
        <time>2022-05-23 09:58:08</time>
      </trkpt>
      <trkpt lat="42.14453" lon="0.69887">
        <ele>635.4</ele>
        <time>2022-05-23 09:58:09</time>
      </trkpt>
      <trkpt lat="42.14445" lon="0.69888">
        <ele>635.2</ele>
        <time>2022-05-23 09:58:10</time>
      </trkpt>
      <trkpt lat="42.14438" lon="0.69891">
        <ele>635</ele>
        <time>2022-05-23 09:58:11</time>
      </trkpt>
      <trkpt lat="42.1443" lon="0.69895">
        <ele>634.8</ele>
        <time>2022-05-23 09:58:12</time>
      </trkpt>
      <trkpt lat="42.14423" lon="0.69901">
        <ele>634.4</ele>
        <time>2022-05-23 09:58:13</time>
      </trkpt>
      <trkpt lat="42.14416" lon="0.69907">
        <ele>634.2</ele>
        <time>2022-05-23 09:58:14</time>
      </trkpt>
      <trkpt lat="42.1441" lon="0.69913">
        <ele>633.8</ele>
        <time>2022-05-23 09:58:15</time>
      </trkpt>
      <trkpt lat="42.14403" lon="0.69919">
        <ele>633.6</ele>
        <time>2022-05-23 09:58:16</time>
      </trkpt>
      <trkpt lat="42.14396" lon="0.69925">
        <ele>633.4</ele>
        <time>2022-05-23 09:58:17</time>
      </trkpt>
      <trkpt lat="42.14389" lon="0.69928">
        <ele>633</ele>
        <time>2022-05-23 09:58:18</time>
      </trkpt>
      <trkpt lat="42.14382" lon="0.69929">
        <ele>632.8</ele>
        <time>2022-05-23 09:58:19</time>
      </trkpt>
      <trkpt lat="42.14374" lon="0.69929">
        <ele>632.6</ele>
        <time>2022-05-23 09:58:20</time>
      </trkpt>
      <trkpt lat="42.14365" lon="0.69928">
        <ele>632.4</ele>
        <time>2022-05-23 09:58:21</time>
      </trkpt>
      <trkpt lat="42.14357" lon="0.69926">
        <ele>632.2</ele>
        <time>2022-05-23 09:58:22</time>
      </trkpt>
      <trkpt lat="42.1435" lon="0.69923">
        <ele>632</ele>
        <time>2022-05-23 09:58:23</time>
      </trkpt>
      <trkpt lat="42.14343" lon="0.69921">
        <ele>631.8</ele>
        <time>2022-05-23 09:58:24</time>
      </trkpt>
      <trkpt lat="42.14335" lon="0.69919">
        <ele>631.6</ele>
        <time>2022-05-23 09:58:25</time>
      </trkpt>
      <trkpt lat="42.14328" lon="0.69917">
        <ele>631.4</ele>
        <time>2022-05-23 09:58:26</time>
      </trkpt>
      <trkpt lat="42.1432" lon="0.69916">
        <ele>631.2</ele>
        <time>2022-05-23 09:58:27</time>
      </trkpt>
      <trkpt lat="42.14312" lon="0.69915">
        <ele>631</ele>
        <time>2022-05-23 09:58:28</time>
      </trkpt>
      <trkpt lat="42.14304" lon="0.69915">
        <ele>630.8</ele>
        <time>2022-05-23 09:58:29</time>
      </trkpt>
      <trkpt lat="42.14296" lon="0.69916">
        <ele>630.6</ele>
        <time>2022-05-23 09:58:30</time>
      </trkpt>
      <trkpt lat="42.14288" lon="0.69916">
        <ele>630.4</ele>
        <time>2022-05-23 09:58:31</time>
      </trkpt>
      <trkpt lat="42.1428" lon="0.69918">
        <ele>630</ele>
        <time>2022-05-23 09:58:32</time>
      </trkpt>
      <trkpt lat="42.14273" lon="0.69919">
        <ele>629.8</ele>
        <time>2022-05-23 09:58:33</time>
      </trkpt>
      <trkpt lat="42.14266" lon="0.69919">
        <ele>629.6</ele>
        <time>2022-05-23 09:58:34</time>
      </trkpt>
      <trkpt lat="42.14258" lon="0.69919">
        <ele>629.4</ele>
        <time>2022-05-23 09:58:35</time>
      </trkpt>
      <trkpt lat="42.1425" lon="0.69919">
        <ele>629.2</ele>
        <time>2022-05-23 09:58:36</time>
      </trkpt>
      <trkpt lat="42.14243" lon="0.69917">
        <ele>629.2</ele>
        <time>2022-05-23 09:58:37</time>
      </trkpt>
      <trkpt lat="42.14236" lon="0.69914">
        <ele>629</ele>
        <time>2022-05-23 09:58:38</time>
      </trkpt>
      <trkpt lat="42.14229" lon="0.6991">
        <ele>628.6</ele>
        <time>2022-05-23 09:58:39</time>
      </trkpt>
      <trkpt lat="42.14222" lon="0.69905">
        <ele>628.4</ele>
        <time>2022-05-23 09:58:40</time>
      </trkpt>
      <trkpt lat="42.14216" lon="0.699">
        <ele>628.2</ele>
        <time>2022-05-23 09:58:41</time>
      </trkpt>
      <trkpt lat="42.14209" lon="0.69895">
        <ele>628</ele>
        <time>2022-05-23 09:58:42</time>
      </trkpt>
      <trkpt lat="42.14202" lon="0.6989">
        <ele>627.8</ele>
        <time>2022-05-23 09:58:43</time>
      </trkpt>
      <trkpt lat="42.14195" lon="0.69886">
        <ele>627.6</ele>
        <time>2022-05-23 09:58:44</time>
      </trkpt>
      <trkpt lat="42.14188" lon="0.69883">
        <ele>627.4</ele>
        <time>2022-05-23 09:58:45</time>
      </trkpt>
      <trkpt lat="42.14182" lon="0.6988">
        <ele>627.2</ele>
        <time>2022-05-23 09:58:46</time>
      </trkpt>
      <trkpt lat="42.14174" lon="0.69879">
        <ele>627</ele>
        <time>2022-05-23 09:58:47</time>
      </trkpt>
      <trkpt lat="42.14167" lon="0.69879">
        <ele>626.8</ele>
        <time>2022-05-23 09:58:48</time>
      </trkpt>
      <trkpt lat="42.1416" lon="0.69879">
        <ele>626.6</ele>
        <time>2022-05-23 09:58:49</time>
      </trkpt>
      <trkpt lat="42.14153" lon="0.69881">
        <ele>626.4</ele>
        <time>2022-05-23 09:58:50</time>
      </trkpt>
      <trkpt lat="42.14146" lon="0.69882">
        <ele>626.4</ele>
        <time>2022-05-23 09:58:51</time>
      </trkpt>
      <trkpt lat="42.14139" lon="0.69884">
        <ele>626.4</ele>
        <time>2022-05-23 09:58:52</time>
      </trkpt>
      <trkpt lat="42.14132" lon="0.69885">
        <ele>626.4</ele>
        <time>2022-05-23 09:58:53</time>
      </trkpt>
      <trkpt lat="42.14126" lon="0.69886">
        <ele>626.4</ele>
        <time>2022-05-23 09:58:54</time>
      </trkpt>
      <trkpt lat="42.14119" lon="0.69888">
        <ele>626.4</ele>
        <time>2022-05-23 09:58:55</time>
      </trkpt>
      <trkpt lat="42.14113" lon="0.69889">
        <ele>626.2</ele>
        <time>2022-05-23 09:58:56</time>
      </trkpt>
      <trkpt lat="42.14107" lon="0.6989">
        <ele>626.2</ele>
        <time>2022-05-23 09:58:57</time>
      </trkpt>
      <trkpt lat="42.14101" lon="0.69891">
        <ele>626.2</ele>
        <time>2022-05-23 09:58:58</time>
      </trkpt>
      <trkpt lat="42.14095" lon="0.69892">
        <ele>626.2</ele>
        <time>2022-05-23 09:58:59</time>
      </trkpt>
      <trkpt lat="42.14089" lon="0.69892">
        <ele>626.2</ele>
        <time>2022-05-23 09:59:00</time>
      </trkpt>
      <trkpt lat="42.14083" lon="0.69893">
        <ele>626.2</ele>
        <time>2022-05-23 09:59:01</time>
      </trkpt>
      <trkpt lat="42.14077" lon="0.69894">
        <ele>626</ele>
        <time>2022-05-23 09:59:02</time>
      </trkpt>
      <trkpt lat="42.14072" lon="0.69896">
        <ele>626</ele>
        <time>2022-05-23 09:59:03</time>
      </trkpt>
      <trkpt lat="42.14066" lon="0.69897">
        <ele>626.2</ele>
        <time>2022-05-23 09:59:04</time>
      </trkpt>
      <trkpt lat="42.14061" lon="0.69898">
        <ele>626.2</ele>
        <time>2022-05-23 09:59:05</time>
      </trkpt>
      <trkpt lat="42.14056" lon="0.699">
        <ele>626.2</ele>
        <time>2022-05-23 09:59:06</time>
      </trkpt>
      <trkpt lat="42.1405" lon="0.69902">
        <ele>626.2</ele>
        <time>2022-05-23 09:59:07</time>
      </trkpt>
      <trkpt lat="42.14045" lon="0.69903">
        <ele>626.2</ele>
        <time>2022-05-23 09:59:08</time>
      </trkpt>
      <trkpt lat="42.1404" lon="0.69904">
        <ele>626.2</ele>
        <time>2022-05-23 09:59:09</time>
      </trkpt>
      <trkpt lat="42.14034" lon="0.69905">
        <ele>626.2</ele>
        <time>2022-05-23 09:59:10</time>
      </trkpt>
      <trkpt lat="42.14029" lon="0.69906">
        <ele>626.2</ele>
        <time>2022-05-23 09:59:11</time>
      </trkpt>
      <trkpt lat="42.14025" lon="0.69908">
        <ele>626.2</ele>
        <time>2022-05-23 09:59:12</time>
      </trkpt>
      <trkpt lat="42.1402" lon="0.6991">
        <ele>626</ele>
        <time>2022-05-23 09:59:13</time>
      </trkpt>
      <trkpt lat="42.14015" lon="0.69911">
        <ele>626</ele>
        <time>2022-05-23 09:59:14</time>
      </trkpt>
      <trkpt lat="42.1401" lon="0.69912">
        <ele>626</ele>
        <time>2022-05-23 09:59:15</time>
      </trkpt>
      <trkpt lat="42.14005" lon="0.69913">
        <ele>626</ele>
        <time>2022-05-23 09:59:16</time>
      </trkpt>
      <trkpt lat="42.14001" lon="0.69915">
        <ele>626</ele>
        <time>2022-05-23 09:59:17</time>
      </trkpt>
      <trkpt lat="42.13996" lon="0.69917">
        <ele>625.8</ele>
        <time>2022-05-23 09:59:18</time>
      </trkpt>
      <trkpt lat="42.13991" lon="0.69918">
        <ele>625.8</ele>
        <time>2022-05-23 09:59:19</time>
      </trkpt>
      <trkpt lat="42.13986" lon="0.69919">
        <ele>625.8</ele>
        <time>2022-05-23 09:59:20</time>
      </trkpt>
      <trkpt lat="42.13981" lon="0.6992">
        <ele>625.6</ele>
        <time>2022-05-23 09:59:21</time>
      </trkpt>
      <trkpt lat="42.13976" lon="0.69921">
        <ele>625.6</ele>
        <time>2022-05-23 09:59:22</time>
      </trkpt>
      <trkpt lat="42.13972" lon="0.69922">
        <ele>625.6</ele>
        <time>2022-05-23 09:59:23</time>
      </trkpt>
      <trkpt lat="42.13967" lon="0.69923">
        <ele>625.6</ele>
        <time>2022-05-23 09:59:24</time>
      </trkpt>
      <trkpt lat="42.13962" lon="0.69924">
        <ele>625.6</ele>
        <time>2022-05-23 09:59:25</time>
      </trkpt>
      <trkpt lat="42.13957" lon="0.69926">
        <ele>625.6</ele>
        <time>2022-05-23 09:59:26</time>
      </trkpt>
      <trkpt lat="42.13952" lon="0.69928">
        <ele>625.4</ele>
        <time>2022-05-23 09:59:27</time>
      </trkpt>
      <trkpt lat="42.13948" lon="0.69929">
        <ele>625.4</ele>
        <time>2022-05-23 09:59:28</time>
      </trkpt>
      <trkpt lat="42.13942" lon="0.6993">
        <ele>625.4</ele>
        <time>2022-05-23 09:59:29</time>
      </trkpt>
      <trkpt lat="42.13937" lon="0.69932">
        <ele>625.4</ele>
        <time>2022-05-23 09:59:30</time>
      </trkpt>
      <trkpt lat="42.13932" lon="0.69934">
        <ele>625.4</ele>
        <time>2022-05-23 09:59:31</time>
      </trkpt>
      <trkpt lat="42.13927" lon="0.69935">
        <ele>625.2</ele>
        <time>2022-05-23 09:59:32</time>
      </trkpt>
      <trkpt lat="42.13921" lon="0.69937">
        <ele>625.2</ele>
        <time>2022-05-23 09:59:33</time>
      </trkpt>
      <trkpt lat="42.13916" lon="0.69938">
        <ele>625.2</ele>
        <time>2022-05-23 09:59:34</time>
      </trkpt>
      <trkpt lat="42.13912" lon="0.69939">
        <ele>625.2</ele>
        <time>2022-05-23 09:59:35</time>
      </trkpt>
      <trkpt lat="42.13907" lon="0.69941">
        <ele>625.2</ele>
        <time>2022-05-23 09:59:36</time>
      </trkpt>
      <trkpt lat="42.13902" lon="0.69942">
        <ele>625.2</ele>
        <time>2022-05-23 09:59:37</time>
      </trkpt>
      <trkpt lat="42.13897" lon="0.69943">
        <ele>625.2</ele>
        <time>2022-05-23 09:59:38</time>
      </trkpt>
      <trkpt lat="42.13892" lon="0.69944">
        <ele>625.2</ele>
        <time>2022-05-23 09:59:39</time>
      </trkpt>
      <trkpt lat="42.13887" lon="0.69944">
        <ele>625</ele>
        <time>2022-05-23 09:59:40</time>
      </trkpt>
      <trkpt lat="42.13882" lon="0.69944">
        <ele>625</ele>
        <time>2022-05-23 09:59:41</time>
      </trkpt>
      <trkpt lat="42.13877" lon="0.69944">
        <ele>625</ele>
        <time>2022-05-23 09:59:42</time>
      </trkpt>
      <trkpt lat="42.13873" lon="0.69943">
        <ele>625</ele>
        <time>2022-05-23 09:59:43</time>
      </trkpt>
      <trkpt lat="42.13868" lon="0.69942">
        <ele>625</ele>
        <time>2022-05-23 09:59:44</time>
      </trkpt>
      <trkpt lat="42.13863" lon="0.69942">
        <ele>625</ele>
        <time>2022-05-23 09:59:45</time>
      </trkpt>
      <trkpt lat="42.13858" lon="0.69941">
        <ele>625</ele>
        <time>2022-05-23 09:59:46</time>
      </trkpt>
      <trkpt lat="42.13853" lon="0.6994">
        <ele>625</ele>
        <time>2022-05-23 09:59:47</time>
      </trkpt>
      <trkpt lat="42.13848" lon="0.69939">
        <ele>625</ele>
        <time>2022-05-23 09:59:48</time>
      </trkpt>
      <trkpt lat="42.13844" lon="0.69938">
        <ele>624.8</ele>
        <time>2022-05-23 09:59:49</time>
      </trkpt>
      <trkpt lat="42.13839" lon="0.69937">
        <ele>624.8</ele>
        <time>2022-05-23 09:59:50</time>
      </trkpt>
      <trkpt lat="42.13834" lon="0.69936">
        <ele>624.8</ele>
        <time>2022-05-23 09:59:51</time>
      </trkpt>
      <trkpt lat="42.1383" lon="0.69935">
        <ele>625</ele>
        <time>2022-05-23 09:59:52</time>
      </trkpt>
      <trkpt lat="42.13826" lon="0.69933">
        <ele>625</ele>
        <time>2022-05-23 09:59:53</time>
      </trkpt>
      <trkpt lat="42.13821" lon="0.69932">
        <ele>625</ele>
        <time>2022-05-23 09:59:54</time>
      </trkpt>
      <trkpt lat="42.13817" lon="0.69931">
        <ele>625</ele>
        <time>2022-05-23 09:59:55</time>
      </trkpt>
      <trkpt lat="42.13812" lon="0.6993">
        <ele>625</ele>
        <time>2022-05-23 09:59:56</time>
      </trkpt>
      <trkpt lat="42.13808" lon="0.69928">
        <ele>624.8</ele>
        <time>2022-05-23 09:59:57</time>
      </trkpt>
      <trkpt lat="42.13803" lon="0.69927">
        <ele>624.8</ele>
        <time>2022-05-23 09:59:58</time>
      </trkpt>
      <trkpt lat="42.13798" lon="0.69926">
        <ele>624.8</ele>
        <time>2022-05-23 09:59:59</time>
      </trkpt>
      <trkpt lat="42.13794" lon="0.69925">
        <ele>624.8</ele>
        <time>2022-05-23 10:00:00</time>
      </trkpt>
      <trkpt lat="42.1379" lon="0.69924">
        <ele>624.6</ele>
        <time>2022-05-23 10:00:01</time>
      </trkpt>
      <trkpt lat="42.13786" lon="0.69924">
        <ele>624.6</ele>
        <time>2022-05-23 10:00:02</time>
      </trkpt>
      <trkpt lat="42.13782" lon="0.69923">
        <ele>624.6</ele>
        <time>2022-05-23 10:00:03</time>
      </trkpt>
      <trkpt lat="42.13777" lon="0.69922">
        <ele>624.6</ele>
        <time>2022-05-23 10:00:04</time>
      </trkpt>
      <trkpt lat="42.13773" lon="0.69921">
        <ele>624.6</ele>
        <time>2022-05-23 10:00:05</time>
      </trkpt>
      <trkpt lat="42.13769" lon="0.69919">
        <ele>624.6</ele>
        <time>2022-05-23 10:00:06</time>
      </trkpt>
      <trkpt lat="42.13765" lon="0.69917">
        <ele>624.4</ele>
        <time>2022-05-23 10:00:07</time>
      </trkpt>
      <trkpt lat="42.1376" lon="0.69916">
        <ele>624.4</ele>
        <time>2022-05-23 10:00:08</time>
      </trkpt>
      <trkpt lat="42.13756" lon="0.69915">
        <ele>624.4</ele>
        <time>2022-05-23 10:00:09</time>
      </trkpt>
      <trkpt lat="42.13752" lon="0.69914">
        <ele>624.4</ele>
        <time>2022-05-23 10:00:10</time>
      </trkpt>
      <trkpt lat="42.13748" lon="0.69913">
        <ele>624.4</ele>
        <time>2022-05-23 10:00:11</time>
      </trkpt>
      <trkpt lat="42.13743" lon="0.69912">
        <ele>624.4</ele>
        <time>2022-05-23 10:00:12</time>
      </trkpt>
      <trkpt lat="42.13739" lon="0.69911">
        <ele>624.4</ele>
        <time>2022-05-23 10:00:13</time>
      </trkpt>
      <trkpt lat="42.13734" lon="0.69911">
        <ele>624.4</ele>
        <time>2022-05-23 10:00:14</time>
      </trkpt>
      <trkpt lat="42.13729" lon="0.6991">
        <ele>624.4</ele>
        <time>2022-05-23 10:00:15</time>
      </trkpt>
      <trkpt lat="42.13725" lon="0.69909">
        <ele>624.4</ele>
        <time>2022-05-23 10:00:16</time>
      </trkpt>
      <trkpt lat="42.1372" lon="0.69908">
        <ele>624.4</ele>
        <time>2022-05-23 10:00:17</time>
      </trkpt>
      <trkpt lat="42.13716" lon="0.69907">
        <ele>624.4</ele>
        <time>2022-05-23 10:00:18</time>
      </trkpt>
      <trkpt lat="42.13712" lon="0.69906">
        <ele>624.4</ele>
        <time>2022-05-23 10:00:19</time>
      </trkpt>
      <trkpt lat="42.13707" lon="0.69905">
        <ele>624.4</ele>
        <time>2022-05-23 10:00:20</time>
      </trkpt>
      <trkpt lat="42.13703" lon="0.69904">
        <ele>624.4</ele>
        <time>2022-05-23 10:00:21</time>
      </trkpt>
      <trkpt lat="42.13699" lon="0.69902">
        <ele>624.2</ele>
        <time>2022-05-23 10:00:22</time>
      </trkpt>
      <trkpt lat="42.13695" lon="0.69901">
        <ele>624.2</ele>
        <time>2022-05-23 10:00:23</time>
      </trkpt>
      <trkpt lat="42.1369" lon="0.699">
        <ele>624.2</ele>
        <time>2022-05-23 10:00:24</time>
      </trkpt>
      <trkpt lat="42.13686" lon="0.69899">
        <ele>624.2</ele>
        <time>2022-05-23 10:00:25</time>
      </trkpt>
      <trkpt lat="42.13681" lon="0.69897">
        <ele>624.2</ele>
        <time>2022-05-23 10:00:26</time>
      </trkpt>
      <trkpt lat="42.13677" lon="0.69896">
        <ele>624.2</ele>
        <time>2022-05-23 10:00:27</time>
      </trkpt>
      <trkpt lat="42.13672" lon="0.69896">
        <ele>624.2</ele>
        <time>2022-05-23 10:00:28</time>
      </trkpt>
      <trkpt lat="42.13667" lon="0.69895">
        <ele>624</ele>
        <time>2022-05-23 10:00:29</time>
      </trkpt>
      <trkpt lat="42.13662" lon="0.69895">
        <ele>624</ele>
        <time>2022-05-23 10:00:30</time>
      </trkpt>
      <trkpt lat="42.13658" lon="0.69895">
        <ele>624</ele>
        <time>2022-05-23 10:00:31</time>
      </trkpt>
      <trkpt lat="42.13653" lon="0.69894">
        <ele>624</ele>
        <time>2022-05-23 10:00:32</time>
      </trkpt>
      <trkpt lat="42.13648" lon="0.69894">
        <ele>623.8</ele>
        <time>2022-05-23 10:00:33</time>
      </trkpt>
      <trkpt lat="42.13644" lon="0.69894">
        <ele>623.8</ele>
        <time>2022-05-23 10:00:34</time>
      </trkpt>
      <trkpt lat="42.13639" lon="0.69893">
        <ele>623.8</ele>
        <time>2022-05-23 10:00:35</time>
      </trkpt>
      <trkpt lat="42.13634" lon="0.69893">
        <ele>623.6</ele>
        <time>2022-05-23 10:00:36</time>
      </trkpt>
      <trkpt lat="42.13629" lon="0.69893">
        <ele>623.4</ele>
        <time>2022-05-23 10:00:37</time>
      </trkpt>
      <trkpt lat="42.13624" lon="0.69893">
        <ele>623.4</ele>
        <time>2022-05-23 10:00:38</time>
      </trkpt>
      <trkpt lat="42.13618" lon="0.69893">
        <ele>623.2</ele>
        <time>2022-05-23 10:00:39</time>
      </trkpt>
      <trkpt lat="42.13614" lon="0.69893">
        <ele>623.2</ele>
        <time>2022-05-23 10:00:40</time>
      </trkpt>
      <trkpt lat="42.13608" lon="0.69893">
        <ele>623</ele>
        <time>2022-05-23 10:00:41</time>
      </trkpt>
      <trkpt lat="42.13603" lon="0.69892">
        <ele>623</ele>
        <time>2022-05-23 10:00:42</time>
      </trkpt>
      <trkpt lat="42.13597" lon="0.69892">
        <ele>622.8</ele>
        <time>2022-05-23 10:00:43</time>
      </trkpt>
      <trkpt lat="42.13592" lon="0.69891">
        <ele>622.8</ele>
        <time>2022-05-23 10:00:44</time>
      </trkpt>
      <trkpt lat="42.13587" lon="0.69891">
        <ele>622.6</ele>
        <time>2022-05-23 10:00:45</time>
      </trkpt>
      <trkpt lat="42.13582" lon="0.69891">
        <ele>622.6</ele>
        <time>2022-05-23 10:00:46</time>
      </trkpt>
      <trkpt lat="42.13576" lon="0.6989">
        <ele>622.6</ele>
        <time>2022-05-23 10:00:47</time>
      </trkpt>
      <trkpt lat="42.13571" lon="0.6989">
        <ele>622.4</ele>
        <time>2022-05-23 10:00:48</time>
      </trkpt>
      <trkpt lat="42.13566" lon="0.69889">
        <ele>622.4</ele>
        <time>2022-05-23 10:00:49</time>
      </trkpt>
      <trkpt lat="42.13562" lon="0.69889">
        <ele>622.4</ele>
        <time>2022-05-23 10:00:50</time>
      </trkpt>
      <trkpt lat="42.13558" lon="0.69888">
        <ele>622.4</ele>
        <time>2022-05-23 10:00:51</time>
      </trkpt>
      <trkpt lat="42.13553" lon="0.69888">
        <ele>622.6</ele>
        <time>2022-05-23 10:00:52</time>
      </trkpt>
      <trkpt lat="42.13549" lon="0.69888">
        <ele>622.6</ele>
        <time>2022-05-23 10:00:53</time>
      </trkpt>
      <trkpt lat="42.13545" lon="0.69887">
        <ele>622.6</ele>
        <time>2022-05-23 10:00:54</time>
      </trkpt>
      <trkpt lat="42.13541" lon="0.69887">
        <ele>622.8</ele>
        <time>2022-05-23 10:00:55</time>
      </trkpt>
      <trkpt lat="42.13537" lon="0.69887">
        <ele>622.8</ele>
        <time>2022-05-23 10:00:56</time>
      </trkpt>
      <trkpt lat="42.13533" lon="0.69886">
        <ele>623</ele>
        <time>2022-05-23 10:00:57</time>
      </trkpt>
      <trkpt lat="42.1353" lon="0.69886">
        <ele>623</ele>
        <time>2022-05-23 10:00:58</time>
      </trkpt>
      <trkpt lat="42.13526" lon="0.69886">
        <ele>623.2</ele>
        <time>2022-05-23 10:00:59</time>
      </trkpt>
      <trkpt lat="42.13522" lon="0.69885">
        <ele>623.2</ele>
        <time>2022-05-23 10:01:00</time>
      </trkpt>
      <trkpt lat="42.13518" lon="0.69885">
        <ele>623.4</ele>
        <time>2022-05-23 10:01:01</time>
      </trkpt>
      <trkpt lat="42.13515" lon="0.69885">
        <ele>623.4</ele>
        <time>2022-05-23 10:01:02</time>
      </trkpt>
      <trkpt lat="42.13511" lon="0.69884">
        <ele>623.6</ele>
        <time>2022-05-23 10:01:03</time>
      </trkpt>
      <trkpt lat="42.13507" lon="0.69884">
        <ele>623.6</ele>
        <time>2022-05-23 10:01:04</time>
      </trkpt>
      <trkpt lat="42.13503" lon="0.69883">
        <ele>623.8</ele>
        <time>2022-05-23 10:01:05</time>
      </trkpt>
      <trkpt lat="42.135" lon="0.69883">
        <ele>623.8</ele>
        <time>2022-05-23 10:01:06</time>
      </trkpt>
      <trkpt lat="42.13496" lon="0.69883">
        <ele>624</ele>
        <time>2022-05-23 10:01:07</time>
      </trkpt>
      <trkpt lat="42.13492" lon="0.69883">
        <ele>624</ele>
        <time>2022-05-23 10:01:08</time>
      </trkpt>
      <trkpt lat="42.13489" lon="0.69884">
        <ele>624.2</ele>
        <time>2022-05-23 10:01:09</time>
      </trkpt>
      <trkpt lat="42.13486" lon="0.69884">
        <ele>624.2</ele>
        <time>2022-05-23 10:01:10</time>
      </trkpt>
      <trkpt lat="42.13481" lon="0.69884">
        <ele>624.2</ele>
        <time>2022-05-23 10:01:11</time>
      </trkpt>
      <trkpt lat="42.13478" lon="0.69883">
        <ele>624.4</ele>
        <time>2022-05-23 10:01:12</time>
      </trkpt>
      <trkpt lat="42.13474" lon="0.69883">
        <ele>624.4</ele>
        <time>2022-05-23 10:01:13</time>
      </trkpt>
      <trkpt lat="42.1347" lon="0.69882">
        <ele>624.4</ele>
        <time>2022-05-23 10:01:14</time>
      </trkpt>
      <trkpt lat="42.13466" lon="0.69882">
        <ele>624.6</ele>
        <time>2022-05-23 10:01:15</time>
      </trkpt>
      <trkpt lat="42.13462" lon="0.69881">
        <ele>624.6</ele>
        <time>2022-05-23 10:01:16</time>
      </trkpt>
      <trkpt lat="42.13458" lon="0.69881">
        <ele>624.6</ele>
        <time>2022-05-23 10:01:17</time>
      </trkpt>
      <trkpt lat="42.13454" lon="0.69881">
        <ele>624.6</ele>
        <time>2022-05-23 10:01:18</time>
      </trkpt>
      <trkpt lat="42.1345" lon="0.69881">
        <ele>624.6</ele>
        <time>2022-05-23 10:01:19</time>
      </trkpt>
      <trkpt lat="42.13446" lon="0.69881">
        <ele>624.6</ele>
        <time>2022-05-23 10:01:20</time>
      </trkpt>
      <trkpt lat="42.13442" lon="0.6988">
        <ele>624.6</ele>
        <time>2022-05-23 10:01:21</time>
      </trkpt>
      <trkpt lat="42.13437" lon="0.6988">
        <ele>624.6</ele>
        <time>2022-05-23 10:01:22</time>
      </trkpt>
      <trkpt lat="42.13433" lon="0.6988">
        <ele>624.6</ele>
        <time>2022-05-23 10:01:23</time>
      </trkpt>
      <trkpt lat="42.13428" lon="0.6988">
        <ele>624.6</ele>
        <time>2022-05-23 10:01:24</time>
      </trkpt>
      <trkpt lat="42.13424" lon="0.6988">
        <ele>624.6</ele>
        <time>2022-05-23 10:01:25</time>
      </trkpt>
      <trkpt lat="42.1342" lon="0.6988">
        <ele>624.8</ele>
        <time>2022-05-23 10:01:26</time>
      </trkpt>
      <trkpt lat="42.13415" lon="0.6988">
        <ele>624.8</ele>
        <time>2022-05-23 10:01:27</time>
      </trkpt>
      <trkpt lat="42.13411" lon="0.6988">
        <ele>624.8</ele>
        <time>2022-05-23 10:01:28</time>
      </trkpt>
      <trkpt lat="42.13407" lon="0.6988">
        <ele>624.8</ele>
        <time>2022-05-23 10:01:29</time>
      </trkpt>
      <trkpt lat="42.13402" lon="0.69879">
        <ele>624.8</ele>
        <time>2022-05-23 10:01:30</time>
      </trkpt>
      <trkpt lat="42.13398" lon="0.69878">
        <ele>624.8</ele>
        <time>2022-05-23 10:01:31</time>
      </trkpt>
      <trkpt lat="42.13394" lon="0.69878">
        <ele>624.8</ele>
        <time>2022-05-23 10:01:32</time>
      </trkpt>
      <trkpt lat="42.1339" lon="0.69877">
        <ele>624.8</ele>
        <time>2022-05-23 10:01:33</time>
      </trkpt>
      <trkpt lat="42.13385" lon="0.69877">
        <ele>625</ele>
        <time>2022-05-23 10:01:34</time>
      </trkpt>
      <trkpt lat="42.13381" lon="0.69877">
        <ele>625</ele>
        <time>2022-05-23 10:01:35</time>
      </trkpt>
      <trkpt lat="42.13377" lon="0.69876">
        <ele>624.8</ele>
        <time>2022-05-23 10:01:36</time>
      </trkpt>
      <trkpt lat="42.13372" lon="0.69876">
        <ele>624.8</ele>
        <time>2022-05-23 10:01:37</time>
      </trkpt>
      <trkpt lat="42.13368" lon="0.69876">
        <ele>624.8</ele>
        <time>2022-05-23 10:01:38</time>
      </trkpt>
      <trkpt lat="42.13364" lon="0.69875">
        <ele>624.8</ele>
        <time>2022-05-23 10:01:39</time>
      </trkpt>
      <trkpt lat="42.13359" lon="0.69874">
        <ele>624.8</ele>
        <time>2022-05-23 10:01:40</time>
      </trkpt>
      <trkpt lat="42.13355" lon="0.69873">
        <ele>624.8</ele>
        <time>2022-05-23 10:01:41</time>
      </trkpt>
      <trkpt lat="42.13352" lon="0.69872">
        <ele>624.8</ele>
        <time>2022-05-23 10:01:42</time>
      </trkpt>
      <trkpt lat="42.13347" lon="0.69871">
        <ele>624.8</ele>
        <time>2022-05-23 10:01:43</time>
      </trkpt>
      <trkpt lat="42.13344" lon="0.6987">
        <ele>624.8</ele>
        <time>2022-05-23 10:01:44</time>
      </trkpt>
      <trkpt lat="42.1334" lon="0.69867">
        <ele>624.8</ele>
        <time>2022-05-23 10:01:45</time>
      </trkpt>
      <trkpt lat="42.13336" lon="0.69865">
        <ele>624.8</ele>
        <time>2022-05-23 10:01:46</time>
      </trkpt>
      <trkpt lat="42.13333" lon="0.69862">
        <ele>624.8</ele>
        <time>2022-05-23 10:01:47</time>
      </trkpt>
      <trkpt lat="42.1333" lon="0.69859">
        <ele>624.8</ele>
        <time>2022-05-23 10:01:48</time>
      </trkpt>
      <trkpt lat="42.13327" lon="0.69856">
        <ele>624.8</ele>
        <time>2022-05-23 10:01:49</time>
      </trkpt>
      <trkpt lat="42.13324" lon="0.69853">
        <ele>624.8</ele>
        <time>2022-05-23 10:01:50</time>
      </trkpt>
      <trkpt lat="42.13321" lon="0.6985">
        <ele>624.8</ele>
        <time>2022-05-23 10:01:51</time>
      </trkpt>
      <trkpt lat="42.13318" lon="0.69847">
        <ele>624.8</ele>
        <time>2022-05-23 10:01:52</time>
      </trkpt>
      <trkpt lat="42.13314" lon="0.69844">
        <ele>624.8</ele>
        <time>2022-05-23 10:01:53</time>
      </trkpt>
      <trkpt lat="42.13311" lon="0.69842">
        <ele>625</ele>
        <time>2022-05-23 10:01:54</time>
      </trkpt>
      <trkpt lat="42.13308" lon="0.69839">
        <ele>625</ele>
        <time>2022-05-23 10:01:55</time>
      </trkpt>
      <trkpt lat="42.13304" lon="0.69837">
        <ele>625</ele>
        <time>2022-05-23 10:01:56</time>
      </trkpt>
      <trkpt lat="42.133" lon="0.69834">
        <ele>625</ele>
        <time>2022-05-23 10:01:57</time>
      </trkpt>
      <trkpt lat="42.13296" lon="0.69832">
        <ele>625</ele>
        <time>2022-05-23 10:01:58</time>
      </trkpt>
      <trkpt lat="42.13293" lon="0.69831">
        <ele>625</ele>
        <time>2022-05-23 10:01:59</time>
      </trkpt>
      <trkpt lat="42.1329" lon="0.69831">
        <ele>625</ele>
        <time>2022-05-23 10:02:00</time>
      </trkpt>
      <trkpt lat="42.13285" lon="0.6983">
        <ele>625</ele>
        <time>2022-05-23 10:02:01</time>
      </trkpt>
      <trkpt lat="42.13281" lon="0.6983">
        <ele>625.2</ele>
        <time>2022-05-23 10:02:02</time>
      </trkpt>
      <trkpt lat="42.13277" lon="0.6983">
        <ele>625.2</ele>
        <time>2022-05-23 10:02:03</time>
      </trkpt>
      <trkpt lat="42.13273" lon="0.6983">
        <ele>625.2</ele>
        <time>2022-05-23 10:02:04</time>
      </trkpt>
      <trkpt lat="42.13269" lon="0.69831">
        <ele>625.2</ele>
        <time>2022-05-23 10:02:05</time>
      </trkpt>
      <trkpt lat="42.13265" lon="0.69832">
        <ele>625.4</ele>
        <time>2022-05-23 10:02:06</time>
      </trkpt>
      <trkpt lat="42.13261" lon="0.69833">
        <ele>625.4</ele>
        <time>2022-05-23 10:02:07</time>
      </trkpt>
      <trkpt lat="42.13258" lon="0.69834">
        <ele>625.6</ele>
        <time>2022-05-23 10:02:08</time>
      </trkpt>
      <trkpt lat="42.13254" lon="0.69836">
        <ele>625.6</ele>
        <time>2022-05-23 10:02:09</time>
      </trkpt>
      <trkpt lat="42.1325" lon="0.69837">
        <ele>625.6</ele>
        <time>2022-05-23 10:02:10</time>
      </trkpt>
      <trkpt lat="42.13247" lon="0.69838">
        <ele>625.8</ele>
        <time>2022-05-23 10:02:11</time>
      </trkpt>
      <trkpt lat="42.13243" lon="0.69838">
        <ele>625.8</ele>
        <time>2022-05-23 10:02:12</time>
      </trkpt>
      <trkpt lat="42.13239" lon="0.69839">
        <ele>626</ele>
        <time>2022-05-23 10:02:13</time>
      </trkpt>
      <trkpt lat="42.13236" lon="0.6984">
        <ele>626</ele>
        <time>2022-05-23 10:02:14</time>
      </trkpt>
      <trkpt lat="42.13234" lon="0.69841">
        <ele>626</ele>
        <time>2022-05-23 10:02:15</time>
      </trkpt>
      <trkpt lat="42.13229" lon="0.69842">
        <ele>626.2</ele>
        <time>2022-05-23 10:02:16</time>
      </trkpt>
      <trkpt lat="42.13225" lon="0.69843">
        <ele>626.2</ele>
        <time>2022-05-23 10:02:17</time>
      </trkpt>
      <trkpt lat="42.13221" lon="0.69844">
        <ele>626.2</ele>
        <time>2022-05-23 10:02:18</time>
      </trkpt>
      <trkpt lat="42.13217" lon="0.69845">
        <ele>626.2</ele>
        <time>2022-05-23 10:02:19</time>
      </trkpt>
      <trkpt lat="42.13214" lon="0.69845">
        <ele>626.2</ele>
        <time>2022-05-23 10:02:20</time>
      </trkpt>
      <trkpt lat="42.1321" lon="0.69845">
        <ele>626.4</ele>
        <time>2022-05-23 10:02:21</time>
      </trkpt>
      <trkpt lat="42.13208" lon="0.69846">
        <ele>626.4</ele>
        <time>2022-05-23 10:02:22</time>
      </trkpt>
      <trkpt lat="42.13207" lon="0.69846">
        <ele>626.4</ele>
        <time>2022-05-23 10:02:23</time>
      </trkpt>
      <trkpt lat="42.13199" lon="0.69848">
        <ele>626.6</ele>
        <time>2022-05-23 10:02:24</time>
      </trkpt>
      <trkpt lat="42.13195" lon="0.69848">
        <ele>626.6</ele>
        <time>2022-05-23 10:02:25</time>
      </trkpt>
      <trkpt lat="42.13192" lon="0.69849">
        <ele>626.8</ele>
        <time>2022-05-23 10:02:26</time>
      </trkpt>
      <trkpt lat="42.13189" lon="0.6985">
        <ele>626.8</ele>
        <time>2022-05-23 10:02:27</time>
      </trkpt>
      <trkpt lat="42.13186" lon="0.69851">
        <ele>627</ele>
        <time>2022-05-23 10:02:28</time>
      </trkpt>
      <trkpt lat="42.13183" lon="0.69851">
        <ele>627</ele>
        <time>2022-05-23 10:02:29</time>
      </trkpt>
      <trkpt lat="42.13181" lon="0.69852">
        <ele>627.2</ele>
        <time>2022-05-23 10:02:30</time>
      </trkpt>
      <trkpt lat="42.13177" lon="0.69853">
        <ele>627.4</ele>
        <time>2022-05-23 10:02:31</time>
      </trkpt>
      <trkpt lat="42.13174" lon="0.69854">
        <ele>627.4</ele>
        <time>2022-05-23 10:02:32</time>
      </trkpt>
      <trkpt lat="42.13171" lon="0.69854">
        <ele>627.4</ele>
        <time>2022-05-23 10:02:33</time>
      </trkpt>
      <trkpt lat="42.13168" lon="0.69855">
        <ele>627.6</ele>
        <time>2022-05-23 10:02:34</time>
      </trkpt>
      <trkpt lat="42.13165" lon="0.69855">
        <ele>627.8</ele>
        <time>2022-05-23 10:02:35</time>
      </trkpt>
      <trkpt lat="42.13163" lon="0.69855">
        <ele>627.8</ele>
        <time>2022-05-23 10:02:36</time>
      </trkpt>
      <trkpt lat="42.13159" lon="0.69856">
        <ele>627.8</ele>
        <time>2022-05-23 10:02:37</time>
      </trkpt>
      <trkpt lat="42.13156" lon="0.69857">
        <ele>627.8</ele>
        <time>2022-05-23 10:02:38</time>
      </trkpt>
      <trkpt lat="42.13152" lon="0.69858">
        <ele>628</ele>
        <time>2022-05-23 10:02:39</time>
      </trkpt>
      <trkpt lat="42.13148" lon="0.69859">
        <ele>628</ele>
        <time>2022-05-23 10:02:40</time>
      </trkpt>
      <trkpt lat="42.13145" lon="0.6986">
        <ele>628</ele>
        <time>2022-05-23 10:02:41</time>
      </trkpt>
      <trkpt lat="42.13141" lon="0.69861">
        <ele>628</ele>
        <time>2022-05-23 10:02:42</time>
      </trkpt>
      <trkpt lat="42.13137" lon="0.69862">
        <ele>628</ele>
        <time>2022-05-23 10:02:43</time>
      </trkpt>
      <trkpt lat="42.13133" lon="0.69863">
        <ele>628</ele>
        <time>2022-05-23 10:02:44</time>
      </trkpt>
      <trkpt lat="42.1313" lon="0.69863">
        <ele>628</ele>
        <time>2022-05-23 10:02:45</time>
      </trkpt>
      <trkpt lat="42.13125" lon="0.69864">
        <ele>628</ele>
        <time>2022-05-23 10:02:46</time>
      </trkpt>
      <trkpt lat="42.13121" lon="0.69865">
        <ele>628</ele>
        <time>2022-05-23 10:02:47</time>
      </trkpt>
      <trkpt lat="42.13117" lon="0.69865">
        <ele>627.8</ele>
        <time>2022-05-23 10:02:48</time>
      </trkpt>
      <trkpt lat="42.13112" lon="0.69866">
        <ele>627.8</ele>
        <time>2022-05-23 10:02:49</time>
      </trkpt>
      <trkpt lat="42.13107" lon="0.69867">
        <ele>627.8</ele>
        <time>2022-05-23 10:02:50</time>
      </trkpt>
      <trkpt lat="42.13103" lon="0.69869">
        <ele>627.6</ele>
        <time>2022-05-23 10:02:51</time>
      </trkpt>
      <trkpt lat="42.13099" lon="0.6987">
        <ele>627.6</ele>
        <time>2022-05-23 10:02:52</time>
      </trkpt>
      <trkpt lat="42.13095" lon="0.6987">
        <ele>627.6</ele>
        <time>2022-05-23 10:02:53</time>
      </trkpt>
      <trkpt lat="42.13091" lon="0.69871">
        <ele>627.6</ele>
        <time>2022-05-23 10:02:54</time>
      </trkpt>
      <trkpt lat="42.13086" lon="0.69872">
        <ele>627.4</ele>
        <time>2022-05-23 10:02:55</time>
      </trkpt>
      <trkpt lat="42.13082" lon="0.69873">
        <ele>627.4</ele>
        <time>2022-05-23 10:02:56</time>
      </trkpt>
      <trkpt lat="42.13078" lon="0.69874">
        <ele>627.4</ele>
        <time>2022-05-23 10:02:57</time>
      </trkpt>
      <trkpt lat="42.13073" lon="0.69875">
        <ele>627.2</ele>
        <time>2022-05-23 10:02:58</time>
      </trkpt>
      <trkpt lat="42.13069" lon="0.69876">
        <ele>627.2</ele>
        <time>2022-05-23 10:02:59</time>
      </trkpt>
      <trkpt lat="42.13064" lon="0.69876">
        <ele>627</ele>
        <time>2022-05-23 10:03:00</time>
      </trkpt>
      <trkpt lat="42.1306" lon="0.69877">
        <ele>627</ele>
        <time>2022-05-23 10:03:01</time>
      </trkpt>
      <trkpt lat="42.13056" lon="0.69878">
        <ele>627</ele>
        <time>2022-05-23 10:03:02</time>
      </trkpt>
      <trkpt lat="42.13051" lon="0.69879">
        <ele>626.8</ele>
        <time>2022-05-23 10:03:03</time>
      </trkpt>
      <trkpt lat="42.13046" lon="0.6988">
        <ele>626.8</ele>
        <time>2022-05-23 10:03:04</time>
      </trkpt>
      <trkpt lat="42.13042" lon="0.69881">
        <ele>626.8</ele>
        <time>2022-05-23 10:03:05</time>
      </trkpt>
      <trkpt lat="42.13037" lon="0.69882">
        <ele>626.6</ele>
        <time>2022-05-23 10:03:06</time>
      </trkpt>
      <trkpt lat="42.13033" lon="0.69883">
        <ele>626.6</ele>
        <time>2022-05-23 10:03:07</time>
      </trkpt>
      <trkpt lat="42.13028" lon="0.69883">
        <ele>626.6</ele>
        <time>2022-05-23 10:03:08</time>
      </trkpt>
      <trkpt lat="42.13024" lon="0.69884">
        <ele>626.6</ele>
        <time>2022-05-23 10:03:09</time>
      </trkpt>
      <trkpt lat="42.1302" lon="0.69885">
        <ele>626.6</ele>
        <time>2022-05-23 10:03:10</time>
      </trkpt>
      <trkpt lat="42.13015" lon="0.69886">
        <ele>626.4</ele>
        <time>2022-05-23 10:03:11</time>
      </trkpt>
      <trkpt lat="42.13011" lon="0.69887">
        <ele>626.2</ele>
        <time>2022-05-23 10:03:12</time>
      </trkpt>
      <trkpt lat="42.13006" lon="0.69888">
        <ele>626.2</ele>
        <time>2022-05-23 10:03:13</time>
      </trkpt>
      <trkpt lat="42.13001" lon="0.6989">
        <ele>626</ele>
        <time>2022-05-23 10:03:14</time>
      </trkpt>
      <trkpt lat="42.12996" lon="0.69892">
        <ele>625.8</ele>
        <time>2022-05-23 10:03:15</time>
      </trkpt>
      <trkpt lat="42.12991" lon="0.69893">
        <ele>625.4</ele>
        <time>2022-05-23 10:03:16</time>
      </trkpt>
      <trkpt lat="42.12985" lon="0.69894">
        <ele>625.2</ele>
        <time>2022-05-23 10:03:17</time>
      </trkpt>
      <trkpt lat="42.1298" lon="0.69895">
        <ele>625</ele>
        <time>2022-05-23 10:03:18</time>
      </trkpt>
      <trkpt lat="42.12975" lon="0.69896">
        <ele>625</ele>
        <time>2022-05-23 10:03:19</time>
      </trkpt>
      <trkpt lat="42.12969" lon="0.69897">
        <ele>624.8</ele>
        <time>2022-05-23 10:03:20</time>
      </trkpt>
      <trkpt lat="42.12963" lon="0.69898">
        <ele>624.6</ele>
        <time>2022-05-23 10:03:21</time>
      </trkpt>
      <trkpt lat="42.12958" lon="0.69899">
        <ele>624.4</ele>
        <time>2022-05-23 10:03:22</time>
      </trkpt>
      <trkpt lat="42.12952" lon="0.69901">
        <ele>624.2</ele>
        <time>2022-05-23 10:03:23</time>
      </trkpt>
      <trkpt lat="42.12946" lon="0.69902">
        <ele>624</ele>
        <time>2022-05-23 10:03:24</time>
      </trkpt>
      <trkpt lat="42.1294" lon="0.69904">
        <ele>623.8</ele>
        <time>2022-05-23 10:03:25</time>
      </trkpt>
      <trkpt lat="42.12934" lon="0.69905">
        <ele>623.6</ele>
        <time>2022-05-23 10:03:26</time>
      </trkpt>
      <trkpt lat="42.12927" lon="0.69906">
        <ele>623.4</ele>
        <time>2022-05-23 10:03:27</time>
      </trkpt>
      <trkpt lat="42.12922" lon="0.69907">
        <ele>623.2</ele>
        <time>2022-05-23 10:03:28</time>
      </trkpt>
      <trkpt lat="42.12914" lon="0.69909">
        <ele>623</ele>
        <time>2022-05-23 10:03:29</time>
      </trkpt>
      <trkpt lat="42.12908" lon="0.69911">
        <ele>622.8</ele>
        <time>2022-05-23 10:03:30</time>
      </trkpt>
      <trkpt lat="42.12901" lon="0.69912">
        <ele>622.4</ele>
        <time>2022-05-23 10:03:31</time>
      </trkpt>
      <trkpt lat="42.12893" lon="0.69914">
        <ele>622</ele>
        <time>2022-05-23 10:03:32</time>
      </trkpt>
      <trkpt lat="42.12885" lon="0.69915">
        <ele>621.6</ele>
        <time>2022-05-23 10:03:33</time>
      </trkpt>
      <trkpt lat="42.12877" lon="0.69916">
        <ele>621</ele>
        <time>2022-05-23 10:03:34</time>
      </trkpt>
      <trkpt lat="42.1287" lon="0.69918">
        <ele>620.4</ele>
        <time>2022-05-23 10:03:35</time>
      </trkpt>
      <trkpt lat="42.12861" lon="0.6992">
        <ele>619.8</ele>
        <time>2022-05-23 10:03:36</time>
      </trkpt>
      <trkpt lat="42.12852" lon="0.69922">
        <ele>619.2</ele>
        <time>2022-05-23 10:03:37</time>
      </trkpt>
      <trkpt lat="42.12843" lon="0.69926">
        <ele>618.6</ele>
        <time>2022-05-23 10:03:38</time>
      </trkpt>
      <trkpt lat="42.12835" lon="0.6993">
        <ele>618</ele>
        <time>2022-05-23 10:03:39</time>
      </trkpt>
      <trkpt lat="42.12826" lon="0.69937">
        <ele>617.4</ele>
        <time>2022-05-23 10:03:40</time>
      </trkpt>
      <trkpt lat="42.12818" lon="0.69946">
        <ele>616.8</ele>
        <time>2022-05-23 10:03:41</time>
      </trkpt>
      <trkpt lat="42.12811" lon="0.69956">
        <ele>616.2</ele>
        <time>2022-05-23 10:03:42</time>
      </trkpt>
      <trkpt lat="42.12803" lon="0.69965">
        <ele>615.4</ele>
        <time>2022-05-23 10:03:43</time>
      </trkpt>
      <trkpt lat="42.12796" lon="0.69974">
        <ele>614.8</ele>
        <time>2022-05-23 10:03:44</time>
      </trkpt>
      <trkpt lat="42.1279" lon="0.6998">
        <ele>614.2</ele>
        <time>2022-05-23 10:03:45</time>
      </trkpt>
      <trkpt lat="42.1278" lon="0.69991">
        <ele>613.6</ele>
        <time>2022-05-23 10:03:46</time>
      </trkpt>
      <trkpt lat="42.12772" lon="0.7">
        <ele>613</ele>
        <time>2022-05-23 10:03:47</time>
      </trkpt>
      <trkpt lat="42.12764" lon="0.70008">
        <ele>612.4</ele>
        <time>2022-05-23 10:03:48</time>
      </trkpt>
      <trkpt lat="42.12754" lon="0.70018">
        <ele>612</ele>
        <time>2022-05-23 10:03:49</time>
      </trkpt>
      <trkpt lat="42.12745" lon="0.70026">
        <ele>611.8</ele>
        <time>2022-05-23 10:03:50</time>
      </trkpt>
      <trkpt lat="42.12737" lon="0.70034">
        <ele>611.4</ele>
        <time>2022-05-23 10:03:51</time>
      </trkpt>
      <trkpt lat="42.12729" lon="0.7004">
        <ele>611.2</ele>
        <time>2022-05-23 10:03:52</time>
      </trkpt>
      <trkpt lat="42.1272" lon="0.70047">
        <ele>611</ele>
        <time>2022-05-23 10:03:53</time>
      </trkpt>
      <trkpt lat="42.12712" lon="0.7005">
        <ele>610.8</ele>
        <time>2022-05-23 10:03:54</time>
      </trkpt>
      <trkpt lat="42.12704" lon="0.70051">
        <ele>610.8</ele>
        <time>2022-05-23 10:03:55</time>
      </trkpt>
      <trkpt lat="42.12696" lon="0.7005">
        <ele>610.8</ele>
        <time>2022-05-23 10:03:56</time>
      </trkpt>
      <trkpt lat="42.12688" lon="0.70049">
        <ele>610.8</ele>
        <time>2022-05-23 10:03:57</time>
      </trkpt>
      <trkpt lat="42.12681" lon="0.70048">
        <ele>611</ele>
        <time>2022-05-23 10:03:58</time>
      </trkpt>
      <trkpt lat="42.12674" lon="0.70048">
        <ele>611</ele>
        <time>2022-05-23 10:03:59</time>
      </trkpt>
      <trkpt lat="42.12667" lon="0.70048">
        <ele>611</ele>
        <time>2022-05-23 10:04:00</time>
      </trkpt>
      <trkpt lat="42.1266" lon="0.70049">
        <ele>611</ele>
        <time>2022-05-23 10:04:01</time>
      </trkpt>
      <trkpt lat="42.12653" lon="0.70053">
        <ele>611.2</ele>
        <time>2022-05-23 10:04:02</time>
      </trkpt>
      <trkpt lat="42.12648" lon="0.70057">
        <ele>611</ele>
        <time>2022-05-23 10:04:03</time>
      </trkpt>
      <trkpt lat="42.12642" lon="0.70061">
        <ele>611</ele>
        <time>2022-05-23 10:04:04</time>
      </trkpt>
      <trkpt lat="42.12636" lon="0.70066">
        <ele>610.8</ele>
        <time>2022-05-23 10:04:05</time>
      </trkpt>
      <trkpt lat="42.12631" lon="0.7007">
        <ele>610.8</ele>
        <time>2022-05-23 10:04:06</time>
      </trkpt>
      <trkpt lat="42.12625" lon="0.70074">
        <ele>610.8</ele>
        <time>2022-05-23 10:04:07</time>
      </trkpt>
      <trkpt lat="42.1262" lon="0.70079">
        <ele>610.6</ele>
        <time>2022-05-23 10:04:08</time>
      </trkpt>
      <trkpt lat="42.12615" lon="0.70083">
        <ele>610.6</ele>
        <time>2022-05-23 10:04:09</time>
      </trkpt>
      <trkpt lat="42.12609" lon="0.70087">
        <ele>610.6</ele>
        <time>2022-05-23 10:04:10</time>
      </trkpt>
      <trkpt lat="42.12604" lon="0.7009">
        <ele>610.4</ele>
        <time>2022-05-23 10:04:11</time>
      </trkpt>
      <trkpt lat="42.12599" lon="0.70094">
        <ele>610.4</ele>
        <time>2022-05-23 10:04:12</time>
      </trkpt>
      <trkpt lat="42.12595" lon="0.70099">
        <ele>610.4</ele>
        <time>2022-05-23 10:04:13</time>
      </trkpt>
      <trkpt lat="42.1259" lon="0.70103">
        <ele>610.2</ele>
        <time>2022-05-23 10:04:14</time>
      </trkpt>
      <trkpt lat="42.12585" lon="0.70107">
        <ele>610.2</ele>
        <time>2022-05-23 10:04:15</time>
      </trkpt>
      <trkpt lat="42.12581" lon="0.7011">
        <ele>610.2</ele>
        <time>2022-05-23 10:04:16</time>
      </trkpt>
      <trkpt lat="42.12575" lon="0.70114">
        <ele>610</ele>
        <time>2022-05-23 10:04:17</time>
      </trkpt>
      <trkpt lat="42.12571" lon="0.70117">
        <ele>610</ele>
        <time>2022-05-23 10:04:18</time>
      </trkpt>
      <trkpt lat="42.12566" lon="0.7012">
        <ele>610</ele>
        <time>2022-05-23 10:04:19</time>
      </trkpt>
      <trkpt lat="42.12561" lon="0.70123">
        <ele>609.8</ele>
        <time>2022-05-23 10:04:20</time>
      </trkpt>
      <trkpt lat="42.12556" lon="0.70126">
        <ele>609.8</ele>
        <time>2022-05-23 10:04:21</time>
      </trkpt>
      <trkpt lat="42.12552" lon="0.7013">
        <ele>609.8</ele>
        <time>2022-05-23 10:04:22</time>
      </trkpt>
      <trkpt lat="42.12547" lon="0.70133">
        <ele>609.8</ele>
        <time>2022-05-23 10:04:23</time>
      </trkpt>
      <trkpt lat="42.12543" lon="0.70136">
        <ele>609.8</ele>
        <time>2022-05-23 10:04:24</time>
      </trkpt>
      <trkpt lat="42.12538" lon="0.70139">
        <ele>609.6</ele>
        <time>2022-05-23 10:04:25</time>
      </trkpt>
      <trkpt lat="42.12534" lon="0.70142">
        <ele>609.6</ele>
        <time>2022-05-23 10:04:26</time>
      </trkpt>
      <trkpt lat="42.12529" lon="0.70145">
        <ele>609.6</ele>
        <time>2022-05-23 10:04:27</time>
      </trkpt>
      <trkpt lat="42.12525" lon="0.70149">
        <ele>609.6</ele>
        <time>2022-05-23 10:04:28</time>
      </trkpt>
      <trkpt lat="42.1252" lon="0.70152">
        <ele>609.4</ele>
        <time>2022-05-23 10:04:29</time>
      </trkpt>
      <trkpt lat="42.12516" lon="0.70155">
        <ele>609.4</ele>
        <time>2022-05-23 10:04:30</time>
      </trkpt>
      <trkpt lat="42.12511" lon="0.70159">
        <ele>609.2</ele>
        <time>2022-05-23 10:04:31</time>
      </trkpt>
      <trkpt lat="42.12506" lon="0.70162">
        <ele>609</ele>
        <time>2022-05-23 10:04:32</time>
      </trkpt>
      <trkpt lat="42.12501" lon="0.70166">
        <ele>609</ele>
        <time>2022-05-23 10:04:33</time>
      </trkpt>
      <trkpt lat="42.12496" lon="0.7017">
        <ele>608.6</ele>
        <time>2022-05-23 10:04:34</time>
      </trkpt>
      <trkpt lat="42.1249" lon="0.70173">
        <ele>608.4</ele>
        <time>2022-05-23 10:04:35</time>
      </trkpt>
      <trkpt lat="42.12484" lon="0.70178">
        <ele>608</ele>
        <time>2022-05-23 10:04:36</time>
      </trkpt>
      <trkpt lat="42.12478" lon="0.70182">
        <ele>607.8</ele>
        <time>2022-05-23 10:04:37</time>
      </trkpt>
      <trkpt lat="42.12472" lon="0.70187">
        <ele>607.4</ele>
        <time>2022-05-23 10:04:38</time>
      </trkpt>
      <trkpt lat="42.12466" lon="0.70192">
        <ele>607</ele>
        <time>2022-05-23 10:04:39</time>
      </trkpt>
      <trkpt lat="42.12458" lon="0.70197">
        <ele>606.6</ele>
        <time>2022-05-23 10:04:40</time>
      </trkpt>
      <trkpt lat="42.12452" lon="0.70201">
        <ele>606.2</ele>
        <time>2022-05-23 10:04:41</time>
      </trkpt>
      <trkpt lat="42.12445" lon="0.70205">
        <ele>605.8</ele>
        <time>2022-05-23 10:04:42</time>
      </trkpt>
      <trkpt lat="42.12438" lon="0.7021">
        <ele>605.4</ele>
        <time>2022-05-23 10:04:43</time>
      </trkpt>
      <trkpt lat="42.12431" lon="0.70214">
        <ele>605.2</ele>
        <time>2022-05-23 10:04:44</time>
      </trkpt>
      <trkpt lat="42.12424" lon="0.70218">
        <ele>604.8</ele>
        <time>2022-05-23 10:04:45</time>
      </trkpt>
      <trkpt lat="42.12417" lon="0.70223">
        <ele>604.4</ele>
        <time>2022-05-23 10:04:46</time>
      </trkpt>
      <trkpt lat="42.12411" lon="0.70227">
        <ele>604</ele>
        <time>2022-05-23 10:04:47</time>
      </trkpt>
      <trkpt lat="42.12404" lon="0.70231">
        <ele>603.8</ele>
        <time>2022-05-23 10:04:48</time>
      </trkpt>
      <trkpt lat="42.12396" lon="0.70236">
        <ele>603.4</ele>
        <time>2022-05-23 10:04:49</time>
      </trkpt>
      <trkpt lat="42.12388" lon="0.7024">
        <ele>603</ele>
        <time>2022-05-23 10:04:50</time>
      </trkpt>
      <trkpt lat="42.12381" lon="0.70243">
        <ele>602.8</ele>
        <time>2022-05-23 10:04:51</time>
      </trkpt>
      <trkpt lat="42.12374" lon="0.70247">
        <ele>602.6</ele>
        <time>2022-05-23 10:04:52</time>
      </trkpt>
      <trkpt lat="42.12367" lon="0.7025">
        <ele>602.4</ele>
        <time>2022-05-23 10:04:53</time>
      </trkpt>
      <trkpt lat="42.1236" lon="0.70254">
        <ele>602.4</ele>
        <time>2022-05-23 10:04:54</time>
      </trkpt>
      <trkpt lat="42.12354" lon="0.70258">
        <ele>602.6</ele>
        <time>2022-05-23 10:04:55</time>
      </trkpt>
      <trkpt lat="42.12348" lon="0.7026">
        <ele>602.6</ele>
        <time>2022-05-23 10:04:56</time>
      </trkpt>
      <trkpt lat="42.12341" lon="0.70263">
        <ele>602.8</ele>
        <time>2022-05-23 10:04:57</time>
      </trkpt>
      <trkpt lat="42.12336" lon="0.70265">
        <ele>602.8</ele>
        <time>2022-05-23 10:04:58</time>
      </trkpt>
      <trkpt lat="42.1233" lon="0.70268">
        <ele>602.8</ele>
        <time>2022-05-23 10:04:59</time>
      </trkpt>
      <trkpt lat="42.12325" lon="0.7027">
        <ele>603</ele>
        <time>2022-05-23 10:05:00</time>
      </trkpt>
      <trkpt lat="42.12319" lon="0.70273">
        <ele>602.8</ele>
        <time>2022-05-23 10:05:01</time>
      </trkpt>
      <trkpt lat="42.12314" lon="0.70276">
        <ele>602.8</ele>
        <time>2022-05-23 10:05:02</time>
      </trkpt>
      <trkpt lat="42.12308" lon="0.70279">
        <ele>602.8</ele>
        <time>2022-05-23 10:05:03</time>
      </trkpt>
      <trkpt lat="42.12303" lon="0.70283">
        <ele>602.6</ele>
        <time>2022-05-23 10:05:04</time>
      </trkpt>
      <trkpt lat="42.12297" lon="0.70288">
        <ele>602.6</ele>
        <time>2022-05-23 10:05:05</time>
      </trkpt>
      <trkpt lat="42.12292" lon="0.70291">
        <ele>602.4</ele>
        <time>2022-05-23 10:05:06</time>
      </trkpt>
      <trkpt lat="42.12285" lon="0.70295">
        <ele>602.2</ele>
        <time>2022-05-23 10:05:07</time>
      </trkpt>
      <trkpt lat="42.1228" lon="0.70298">
        <ele>602.2</ele>
        <time>2022-05-23 10:05:08</time>
      </trkpt>
      <trkpt lat="42.12274" lon="0.70299">
        <ele>602.2</ele>
        <time>2022-05-23 10:05:09</time>
      </trkpt>
      <trkpt lat="42.12269" lon="0.70299">
        <ele>602</ele>
        <time>2022-05-23 10:05:10</time>
      </trkpt>
      <trkpt lat="42.12265" lon="0.70298">
        <ele>602.2</ele>
        <time>2022-05-23 10:05:11</time>
      </trkpt>
      <trkpt lat="42.1226" lon="0.70297">
        <ele>602.2</ele>
        <time>2022-05-23 10:05:12</time>
      </trkpt>
      <trkpt lat="42.12255" lon="0.70297">
        <ele>602.2</ele>
        <time>2022-05-23 10:05:13</time>
      </trkpt>
      <trkpt lat="42.1225" lon="0.70296">
        <ele>602.4</ele>
        <time>2022-05-23 10:05:14</time>
      </trkpt>
      <trkpt lat="42.12245" lon="0.70296">
        <ele>602.4</ele>
        <time>2022-05-23 10:05:15</time>
      </trkpt>
      <trkpt lat="42.1224" lon="0.70296">
        <ele>602.6</ele>
        <time>2022-05-23 10:05:16</time>
      </trkpt>
      <trkpt lat="42.12235" lon="0.70297">
        <ele>602.8</ele>
        <time>2022-05-23 10:05:17</time>
      </trkpt>
      <trkpt lat="42.12231" lon="0.70299">
        <ele>602.8</ele>
        <time>2022-05-23 10:05:18</time>
      </trkpt>
      <trkpt lat="42.12226" lon="0.70301">
        <ele>602.8</ele>
        <time>2022-05-23 10:05:19</time>
      </trkpt>
      <trkpt lat="42.12222" lon="0.70305">
        <ele>602.8</ele>
        <time>2022-05-23 10:05:20</time>
      </trkpt>
      <trkpt lat="42.12218" lon="0.70309">
        <ele>603</ele>
        <time>2022-05-23 10:05:21</time>
      </trkpt>
      <trkpt lat="42.12214" lon="0.70313">
        <ele>603</ele>
        <time>2022-05-23 10:05:22</time>
      </trkpt>
      <trkpt lat="42.1221" lon="0.70318">
        <ele>603.2</ele>
        <time>2022-05-23 10:05:23</time>
      </trkpt>
      <trkpt lat="42.12207" lon="0.70323">
        <ele>603.2</ele>
        <time>2022-05-23 10:05:24</time>
      </trkpt>
      <trkpt lat="42.12204" lon="0.70327">
        <ele>603.4</ele>
        <time>2022-05-23 10:05:25</time>
      </trkpt>
      <trkpt lat="42.122" lon="0.70332">
        <ele>603.4</ele>
        <time>2022-05-23 10:05:26</time>
      </trkpt>
      <trkpt lat="42.12198" lon="0.70337">
        <ele>603.6</ele>
        <time>2022-05-23 10:05:27</time>
      </trkpt>
      <trkpt lat="42.12196" lon="0.70342">
        <ele>603.6</ele>
        <time>2022-05-23 10:05:28</time>
      </trkpt>
      <trkpt lat="42.12194" lon="0.70347">
        <ele>603.8</ele>
        <time>2022-05-23 10:05:29</time>
      </trkpt>
      <trkpt lat="42.12192" lon="0.70353">
        <ele>603.8</ele>
        <time>2022-05-23 10:05:30</time>
      </trkpt>
      <trkpt lat="42.12189" lon="0.70358">
        <ele>603.8</ele>
        <time>2022-05-23 10:05:31</time>
      </trkpt>
      <trkpt lat="42.12188" lon="0.70363">
        <ele>604</ele>
        <time>2022-05-23 10:05:32</time>
      </trkpt>
      <trkpt lat="42.12186" lon="0.70369">
        <ele>604</ele>
        <time>2022-05-23 10:05:33</time>
      </trkpt>
      <trkpt lat="42.12184" lon="0.70374">
        <ele>604</ele>
        <time>2022-05-23 10:05:34</time>
      </trkpt>
      <trkpt lat="42.12181" lon="0.70379">
        <ele>604.2</ele>
        <time>2022-05-23 10:05:35</time>
      </trkpt>
      <trkpt lat="42.12178" lon="0.70383">
        <ele>604.2</ele>
        <time>2022-05-23 10:05:36</time>
      </trkpt>
      <trkpt lat="42.12174" lon="0.70387">
        <ele>604.2</ele>
        <time>2022-05-23 10:05:37</time>
      </trkpt>
      <trkpt lat="42.12171" lon="0.7039">
        <ele>604.2</ele>
        <time>2022-05-23 10:05:38</time>
      </trkpt>
      <trkpt lat="42.12167" lon="0.70392">
        <ele>604.4</ele>
        <time>2022-05-23 10:05:39</time>
      </trkpt>
      <trkpt lat="42.12162" lon="0.70393">
        <ele>604.4</ele>
        <time>2022-05-23 10:05:40</time>
      </trkpt>
      <trkpt lat="42.12158" lon="0.70395">
        <ele>604.6</ele>
        <time>2022-05-23 10:05:41</time>
      </trkpt>
      <trkpt lat="42.12154" lon="0.70396">
        <ele>604.6</ele>
        <time>2022-05-23 10:05:42</time>
      </trkpt>
      <trkpt lat="42.1215" lon="0.70397">
        <ele>604.8</ele>
        <time>2022-05-23 10:05:43</time>
      </trkpt>
      <trkpt lat="42.12146" lon="0.70397">
        <ele>605</ele>
        <time>2022-05-23 10:05:44</time>
      </trkpt>
      <trkpt lat="42.12143" lon="0.70398">
        <ele>605.2</ele>
        <time>2022-05-23 10:05:45</time>
      </trkpt>
      <trkpt lat="42.1214" lon="0.70398">
        <ele>605.2</ele>
        <time>2022-05-23 10:05:46</time>
      </trkpt>
      <trkpt lat="42.12137" lon="0.70398">
        <ele>605.4</ele>
        <time>2022-05-23 10:05:47</time>
      </trkpt>
      <trkpt lat="42.12134" lon="0.70398">
        <ele>605.6</ele>
        <time>2022-05-23 10:05:48</time>
      </trkpt>
      <trkpt lat="42.12131" lon="0.70398">
        <ele>605.8</ele>
        <time>2022-05-23 10:05:49</time>
      </trkpt>
      <trkpt lat="42.12129" lon="0.70398">
        <ele>606</ele>
        <time>2022-05-23 10:05:50</time>
      </trkpt>
      <trkpt lat="42.12126" lon="0.70398">
        <ele>606.4</ele>
        <time>2022-05-23 10:05:51</time>
      </trkpt>
      <trkpt lat="42.12123" lon="0.70397">
        <ele>606.6</ele>
        <time>2022-05-23 10:05:52</time>
      </trkpt>
      <trkpt lat="42.12121" lon="0.70397">
        <ele>606.8</ele>
        <time>2022-05-23 10:05:53</time>
      </trkpt>
      <trkpt lat="42.12118" lon="0.70396">
        <ele>606.8</ele>
        <time>2022-05-23 10:05:54</time>
      </trkpt>
      <trkpt lat="42.12116" lon="0.70395">
        <ele>607</ele>
        <time>2022-05-23 10:05:55</time>
      </trkpt>
      <trkpt lat="42.12113" lon="0.70395">
        <ele>607.2</ele>
        <time>2022-05-23 10:05:56</time>
      </trkpt>
      <trkpt lat="42.12111" lon="0.70394">
        <ele>607.4</ele>
        <time>2022-05-23 10:05:57</time>
      </trkpt>
      <trkpt lat="42.12109" lon="0.70392">
        <ele>607.4</ele>
        <time>2022-05-23 10:05:58</time>
      </trkpt>
      <trkpt lat="42.12106" lon="0.70391">
        <ele>607.6</ele>
        <time>2022-05-23 10:05:59</time>
      </trkpt>
      <trkpt lat="42.12104" lon="0.70389">
        <ele>607.6</ele>
        <time>2022-05-23 10:06:00</time>
      </trkpt>
      <trkpt lat="42.12102" lon="0.70387">
        <ele>607.8</ele>
        <time>2022-05-23 10:06:01</time>
      </trkpt>
      <trkpt lat="42.12099" lon="0.70385">
        <ele>607.8</ele>
        <time>2022-05-23 10:06:02</time>
      </trkpt>
      <trkpt lat="42.12097" lon="0.70384">
        <ele>608</ele>
        <time>2022-05-23 10:06:03</time>
      </trkpt>
      <trkpt lat="42.12095" lon="0.70382">
        <ele>608</ele>
        <time>2022-05-23 10:06:04</time>
      </trkpt>
      <trkpt lat="42.12093" lon="0.7038">
        <ele>608</ele>
        <time>2022-05-23 10:06:05</time>
      </trkpt>
      <trkpt lat="42.12091" lon="0.70377">
        <ele>608.2</ele>
        <time>2022-05-23 10:06:06</time>
      </trkpt>
      <trkpt lat="42.12089" lon="0.70375">
        <ele>608.2</ele>
        <time>2022-05-23 10:06:07</time>
      </trkpt>
      <trkpt lat="42.12087" lon="0.70373">
        <ele>608.2</ele>
        <time>2022-05-23 10:06:08</time>
      </trkpt>
      <trkpt lat="42.12084" lon="0.70372">
        <ele>608.2</ele>
        <time>2022-05-23 10:06:09</time>
      </trkpt>
      <trkpt lat="42.12082" lon="0.7037">
        <ele>608.4</ele>
        <time>2022-05-23 10:06:10</time>
      </trkpt>
      <trkpt lat="42.12079" lon="0.70369">
        <ele>608.4</ele>
        <time>2022-05-23 10:06:11</time>
      </trkpt>
      <trkpt lat="42.12077" lon="0.70368">
        <ele>608.4</ele>
        <time>2022-05-23 10:06:12</time>
      </trkpt>
      <trkpt lat="42.12075" lon="0.70367">
        <ele>608.4</ele>
        <time>2022-05-23 10:06:13</time>
      </trkpt>
      <trkpt lat="42.12072" lon="0.70366">
        <ele>608.4</ele>
        <time>2022-05-23 10:06:14</time>
      </trkpt>
      <trkpt lat="42.1207" lon="0.70364">
        <ele>608.4</ele>
        <time>2022-05-23 10:06:15</time>
      </trkpt>
      <trkpt lat="42.12068" lon="0.70361">
        <ele>608.4</ele>
        <time>2022-05-23 10:06:16</time>
      </trkpt>
      <trkpt lat="42.12065" lon="0.70359">
        <ele>608.2</ele>
        <time>2022-05-23 10:06:17</time>
      </trkpt>
      <trkpt lat="42.12062" lon="0.70356">
        <ele>608.2</ele>
        <time>2022-05-23 10:06:18</time>
      </trkpt>
      <trkpt lat="42.12059" lon="0.70354">
        <ele>608</ele>
        <time>2022-05-23 10:06:19</time>
      </trkpt>
      <trkpt lat="42.12056" lon="0.70351">
        <ele>607.8</ele>
        <time>2022-05-23 10:06:20</time>
      </trkpt>
      <trkpt lat="42.12053" lon="0.70348">
        <ele>607.8</ele>
        <time>2022-05-23 10:06:21</time>
      </trkpt>
      <trkpt lat="42.12049" lon="0.70345">
        <ele>607.6</ele>
        <time>2022-05-23 10:06:22</time>
      </trkpt>
      <trkpt lat="42.12046" lon="0.70342">
        <ele>607.4</ele>
        <time>2022-05-23 10:06:23</time>
      </trkpt>
      <trkpt lat="42.12041" lon="0.70339">
        <ele>607</ele>
        <time>2022-05-23 10:06:24</time>
      </trkpt>
      <trkpt lat="42.12037" lon="0.70336">
        <ele>606.8</ele>
        <time>2022-05-23 10:06:25</time>
      </trkpt>
      <trkpt lat="42.12032" lon="0.70332">
        <ele>606.4</ele>
        <time>2022-05-23 10:06:26</time>
      </trkpt>
      <trkpt lat="42.12027" lon="0.70329">
        <ele>606</ele>
        <time>2022-05-23 10:06:27</time>
      </trkpt>
      <trkpt lat="42.12022" lon="0.70326">
        <ele>605.6</ele>
        <time>2022-05-23 10:06:28</time>
      </trkpt>
      <trkpt lat="42.12014" lon="0.70321">
        <ele>605</ele>
        <time>2022-05-23 10:06:29</time>
      </trkpt>
      <trkpt lat="42.12008" lon="0.70317">
        <ele>604.2</ele>
        <time>2022-05-23 10:06:30</time>
      </trkpt>
      <trkpt lat="42.12" lon="0.70314">
        <ele>603.6</ele>
        <time>2022-05-23 10:06:31</time>
      </trkpt>
      <trkpt lat="42.11991" lon="0.70312">
        <ele>602.8</ele>
        <time>2022-05-23 10:06:32</time>
      </trkpt>
      <trkpt lat="42.11982" lon="0.70312">
        <ele>602</ele>
        <time>2022-05-23 10:06:33</time>
      </trkpt>
      <trkpt lat="42.11973" lon="0.70314">
        <ele>601.4</ele>
        <time>2022-05-23 10:06:34</time>
      </trkpt>
      <trkpt lat="42.11964" lon="0.70319">
        <ele>600.8</ele>
        <time>2022-05-23 10:06:35</time>
      </trkpt>
      <trkpt lat="42.11955" lon="0.70324">
        <ele>600.2</ele>
        <time>2022-05-23 10:06:36</time>
      </trkpt>
      <trkpt lat="42.11946" lon="0.70327">
        <ele>599.8</ele>
        <time>2022-05-23 10:06:37</time>
      </trkpt>
      <trkpt lat="42.11938" lon="0.7033">
        <ele>599.4</ele>
        <time>2022-05-23 10:06:38</time>
      </trkpt>
      <trkpt lat="42.11929" lon="0.70332">
        <ele>599</ele>
        <time>2022-05-23 10:06:39</time>
      </trkpt>
      <trkpt lat="42.1192" lon="0.70333">
        <ele>598.8</ele>
        <time>2022-05-23 10:06:40</time>
      </trkpt>
      <trkpt lat="42.11912" lon="0.70334">
        <ele>598.8</ele>
        <time>2022-05-23 10:06:41</time>
      </trkpt>
      <trkpt lat="42.11904" lon="0.70334">
        <ele>598.8</ele>
        <time>2022-05-23 10:06:42</time>
      </trkpt>
      <trkpt lat="42.11896" lon="0.70334">
        <ele>599</ele>
        <time>2022-05-23 10:06:43</time>
      </trkpt>
      <trkpt lat="42.1189" lon="0.70334">
        <ele>599.2</ele>
        <time>2022-05-23 10:06:44</time>
      </trkpt>
      <trkpt lat="42.11883" lon="0.70333">
        <ele>599.6</ele>
        <time>2022-05-23 10:06:45</time>
      </trkpt>
      <trkpt lat="42.11878" lon="0.70333">
        <ele>600</ele>
        <time>2022-05-23 10:06:46</time>
      </trkpt>
      <trkpt lat="42.11874" lon="0.70333">
        <ele>600.4</ele>
        <time>2022-05-23 10:06:47</time>
      </trkpt>
      <trkpt lat="42.11868" lon="0.70332">
        <ele>600.8</ele>
        <time>2022-05-23 10:06:48</time>
      </trkpt>
      <trkpt lat="42.11864" lon="0.70332">
        <ele>601.2</ele>
        <time>2022-05-23 10:06:49</time>
      </trkpt>
      <trkpt lat="42.1186" lon="0.70333">
        <ele>601.6</ele>
        <time>2022-05-23 10:06:50</time>
      </trkpt>
      <trkpt lat="42.11857" lon="0.70333">
        <ele>602</ele>
        <time>2022-05-23 10:06:51</time>
      </trkpt>
      <trkpt lat="42.11854" lon="0.70334">
        <ele>602.2</ele>
        <time>2022-05-23 10:06:52</time>
      </trkpt>
      <trkpt lat="42.11851" lon="0.70334">
        <ele>602.6</ele>
        <time>2022-05-23 10:06:53</time>
      </trkpt>
      <trkpt lat="42.11849" lon="0.70334">
        <ele>602.8</ele>
        <time>2022-05-23 10:06:54</time>
      </trkpt>
      <trkpt lat="42.11846" lon="0.70334">
        <ele>603</ele>
        <time>2022-05-23 10:06:55</time>
      </trkpt>
      <trkpt lat="42.11843" lon="0.70334">
        <ele>603.2</ele>
        <time>2022-05-23 10:06:56</time>
      </trkpt>
      <trkpt lat="42.11841" lon="0.70334">
        <ele>603.4</ele>
        <time>2022-05-23 10:06:57</time>
      </trkpt>
      <trkpt lat="42.11838" lon="0.70335">
        <ele>603.6</ele>
        <time>2022-05-23 10:06:58</time>
      </trkpt>
      <trkpt lat="42.11835" lon="0.70335">
        <ele>603.8</ele>
        <time>2022-05-23 10:06:59</time>
      </trkpt>
      <trkpt lat="42.11833" lon="0.70336">
        <ele>604</ele>
        <time>2022-05-23 10:07:00</time>
      </trkpt>
      <trkpt lat="42.1183" lon="0.70336">
        <ele>604.2</ele>
        <time>2022-05-23 10:07:01</time>
      </trkpt>
      <trkpt lat="42.11827" lon="0.70337">
        <ele>604.4</ele>
        <time>2022-05-23 10:07:02</time>
      </trkpt>
      <trkpt lat="42.11825" lon="0.70337">
        <ele>604.6</ele>
        <time>2022-05-23 10:07:03</time>
      </trkpt>
      <trkpt lat="42.11821" lon="0.70338">
        <ele>604.8</ele>
        <time>2022-05-23 10:07:04</time>
      </trkpt>
      <trkpt lat="42.11818" lon="0.70339">
        <ele>604.8</ele>
        <time>2022-05-23 10:07:05</time>
      </trkpt>
      <trkpt lat="42.11816" lon="0.70341">
        <ele>605</ele>
        <time>2022-05-23 10:07:06</time>
      </trkpt>
      <trkpt lat="42.11813" lon="0.70342">
        <ele>605.2</ele>
        <time>2022-05-23 10:07:07</time>
      </trkpt>
      <trkpt lat="42.1181" lon="0.70343">
        <ele>605.4</ele>
        <time>2022-05-23 10:07:08</time>
      </trkpt>
      <trkpt lat="42.11808" lon="0.70344">
        <ele>605.4</ele>
        <time>2022-05-23 10:07:09</time>
      </trkpt>
      <trkpt lat="42.11806" lon="0.70344">
        <ele>605.6</ele>
        <time>2022-05-23 10:07:10</time>
      </trkpt>
      <trkpt lat="42.11804" lon="0.70344">
        <ele>605.8</ele>
        <time>2022-05-23 10:07:11</time>
      </trkpt>
      <trkpt lat="42.11803" lon="0.70344">
        <ele>605.8</ele>
        <time>2022-05-23 10:07:12</time>
      </trkpt>
      <trkpt lat="42.11792" lon="0.70352">
        <ele>606</ele>
        <time>2022-05-23 10:07:13</time>
      </trkpt>
      <trkpt lat="42.11789" lon="0.70353">
        <ele>606</ele>
        <time>2022-05-23 10:07:14</time>
      </trkpt>
      <trkpt lat="42.11787" lon="0.70354">
        <ele>606.2</ele>
        <time>2022-05-23 10:07:15</time>
      </trkpt>
      <trkpt lat="42.11784" lon="0.70355">
        <ele>606.2</ele>
        <time>2022-05-23 10:07:16</time>
      </trkpt>
      <trkpt lat="42.11782" lon="0.70356">
        <ele>606.2</ele>
        <time>2022-05-23 10:07:17</time>
      </trkpt>
      <trkpt lat="42.11779" lon="0.70357">
        <ele>606.4</ele>
        <time>2022-05-23 10:07:18</time>
      </trkpt>
      <trkpt lat="42.11776" lon="0.70358">
        <ele>606.4</ele>
        <time>2022-05-23 10:07:19</time>
      </trkpt>
      <trkpt lat="42.11774" lon="0.70359">
        <ele>606.4</ele>
        <time>2022-05-23 10:07:20</time>
      </trkpt>
      <trkpt lat="42.11771" lon="0.7036">
        <ele>606.6</ele>
        <time>2022-05-23 10:07:21</time>
      </trkpt>
      <trkpt lat="42.11769" lon="0.70361">
        <ele>606.6</ele>
        <time>2022-05-23 10:07:22</time>
      </trkpt>
      <trkpt lat="42.11766" lon="0.70362">
        <ele>606.6</ele>
        <time>2022-05-23 10:07:23</time>
      </trkpt>
      <trkpt lat="42.11763" lon="0.70363">
        <ele>606.6</ele>
        <time>2022-05-23 10:07:24</time>
      </trkpt>
      <trkpt lat="42.11761" lon="0.70364">
        <ele>606.6</ele>
        <time>2022-05-23 10:07:25</time>
      </trkpt>
      <trkpt lat="42.11758" lon="0.70366">
        <ele>606.8</ele>
        <time>2022-05-23 10:07:26</time>
      </trkpt>
      <trkpt lat="42.11755" lon="0.70367">
        <ele>606.8</ele>
        <time>2022-05-23 10:07:27</time>
      </trkpt>
      <trkpt lat="42.11752" lon="0.70369">
        <ele>606.8</ele>
        <time>2022-05-23 10:07:28</time>
      </trkpt>
      <trkpt lat="42.1175" lon="0.7037">
        <ele>606.8</ele>
        <time>2022-05-23 10:07:29</time>
      </trkpt>
      <trkpt lat="42.11747" lon="0.70372">
        <ele>606.8</ele>
        <time>2022-05-23 10:07:30</time>
      </trkpt>
      <trkpt lat="42.11745" lon="0.70374">
        <ele>607</ele>
        <time>2022-05-23 10:07:31</time>
      </trkpt>
      <trkpt lat="42.11742" lon="0.70376">
        <ele>607</ele>
        <time>2022-05-23 10:07:32</time>
      </trkpt>
      <trkpt lat="42.1174" lon="0.70377">
        <ele>607.2</ele>
        <time>2022-05-23 10:07:33</time>
      </trkpt>
      <trkpt lat="42.11738" lon="0.70379">
        <ele>607.2</ele>
        <time>2022-05-23 10:07:34</time>
      </trkpt>
      <trkpt lat="42.11735" lon="0.7038">
        <ele>607.2</ele>
        <time>2022-05-23 10:07:35</time>
      </trkpt>
      <trkpt lat="42.11733" lon="0.70382">
        <ele>607.4</ele>
        <time>2022-05-23 10:07:36</time>
      </trkpt>
      <trkpt lat="42.11732" lon="0.70383">
        <ele>607.6</ele>
        <time>2022-05-23 10:13:50</time>
      </trkpt>
      <trkpt lat="42.11729" lon="0.70386">
        <ele>607.6</ele>
        <time>2022-05-23 10:13:51</time>
      </trkpt>
      <trkpt lat="42.11727" lon="0.70388">
        <ele>607.6</ele>
        <time>2022-05-23 10:13:52</time>
      </trkpt>
      <trkpt lat="42.11725" lon="0.7039">
        <ele>607.8</ele>
        <time>2022-05-23 10:13:53</time>
      </trkpt>
      <trkpt lat="42.11723" lon="0.70392">
        <ele>608</ele>
        <time>2022-05-23 10:13:54</time>
      </trkpt>
      <trkpt lat="42.11721" lon="0.70393">
        <ele>608</ele>
        <time>2022-05-23 10:13:55</time>
      </trkpt>
      <trkpt lat="42.11718" lon="0.70395">
        <ele>608.2</ele>
        <time>2022-05-23 10:13:56</time>
      </trkpt>
      <trkpt lat="42.11715" lon="0.70397">
        <ele>608.4</ele>
        <time>2022-05-23 10:13:57</time>
      </trkpt>
      <trkpt lat="42.11713" lon="0.70398">
        <ele>608.6</ele>
        <time>2022-05-23 10:13:58</time>
      </trkpt>
      <trkpt lat="42.11711" lon="0.704">
        <ele>608.8</ele>
        <time>2022-05-23 10:13:59</time>
      </trkpt>
      <trkpt lat="42.11708" lon="0.70402">
        <ele>609</ele>
        <time>2022-05-23 10:14:00</time>
      </trkpt>
      <trkpt lat="42.11706" lon="0.70403">
        <ele>609.2</ele>
        <time>2022-05-23 10:14:01</time>
      </trkpt>
      <trkpt lat="42.11704" lon="0.70404">
        <ele>609.4</ele>
        <time>2022-05-23 10:14:02</time>
      </trkpt>
      <trkpt lat="42.11701" lon="0.70405">
        <ele>609.6</ele>
        <time>2022-05-23 10:14:03</time>
      </trkpt>
      <trkpt lat="42.117" lon="0.70406">
        <ele>609.8</ele>
        <time>2022-05-23 10:14:04</time>
      </trkpt>
      <trkpt lat="42.11697" lon="0.70407">
        <ele>610</ele>
        <time>2022-05-23 10:14:05</time>
      </trkpt>
      <trkpt lat="42.11695" lon="0.70408">
        <ele>610.2</ele>
        <time>2022-05-23 10:14:06</time>
      </trkpt>
      <trkpt lat="42.11692" lon="0.70409">
        <ele>610.2</ele>
        <time>2022-05-23 10:14:07</time>
      </trkpt>
      <trkpt lat="42.1169" lon="0.7041">
        <ele>610.4</ele>
        <time>2022-05-23 10:14:08</time>
      </trkpt>
      <trkpt lat="42.11687" lon="0.70412">
        <ele>610.6</ele>
        <time>2022-05-23 10:14:09</time>
      </trkpt>
      <trkpt lat="42.11685" lon="0.70413">
        <ele>610.8</ele>
        <time>2022-05-23 10:14:10</time>
      </trkpt>
      <trkpt lat="42.11682" lon="0.70415">
        <ele>611</ele>
        <time>2022-05-23 10:14:11</time>
      </trkpt>
      <trkpt lat="42.1168" lon="0.70416">
        <ele>611.2</ele>
        <time>2022-05-23 10:14:12</time>
      </trkpt>
      <trkpt lat="42.11678" lon="0.70418">
        <ele>611.2</ele>
        <time>2022-05-23 10:14:13</time>
      </trkpt>
      <trkpt lat="42.11676" lon="0.7042">
        <ele>611.4</ele>
        <time>2022-05-23 10:14:14</time>
      </trkpt>
      <trkpt lat="42.11674" lon="0.70422">
        <ele>611.6</ele>
        <time>2022-05-23 10:14:15</time>
      </trkpt>
      <trkpt lat="42.11673" lon="0.70423">
        <ele>611.6</ele>
        <time>2022-05-23 10:14:16</time>
      </trkpt>
      <trkpt lat="42.1167" lon="0.70425">
        <ele>611.8</ele>
        <time>2022-05-23 10:14:17</time>
      </trkpt>
      <trkpt lat="42.11668" lon="0.70426">
        <ele>612</ele>
        <time>2022-05-23 10:14:18</time>
      </trkpt>
      <trkpt lat="42.11666" lon="0.70428">
        <ele>612</ele>
        <time>2022-05-23 10:14:19</time>
      </trkpt>
      <trkpt lat="42.11664" lon="0.70429">
        <ele>612.2</ele>
        <time>2022-05-23 10:14:20</time>
      </trkpt>
      <trkpt lat="42.11662" lon="0.70431">
        <ele>612.2</ele>
        <time>2022-05-23 10:14:21</time>
      </trkpt>
      <trkpt lat="42.1166" lon="0.70432">
        <ele>612.4</ele>
        <time>2022-05-23 10:14:22</time>
      </trkpt>
      <trkpt lat="42.11658" lon="0.70434">
        <ele>612.4</ele>
        <time>2022-05-23 10:14:23</time>
      </trkpt>
      <trkpt lat="42.11656" lon="0.70435">
        <ele>612.6</ele>
        <time>2022-05-23 10:14:24</time>
      </trkpt>
      <trkpt lat="42.11653" lon="0.70436">
        <ele>612.8</ele>
        <time>2022-05-23 10:14:25</time>
      </trkpt>
      <trkpt lat="42.11651" lon="0.70437">
        <ele>613</ele>
        <time>2022-05-23 10:14:26</time>
      </trkpt>
      <trkpt lat="42.11649" lon="0.70439">
        <ele>613</ele>
        <time>2022-05-23 10:14:27</time>
      </trkpt>
      <trkpt lat="42.11647" lon="0.7044">
        <ele>613.2</ele>
        <time>2022-05-23 10:14:28</time>
      </trkpt>
      <trkpt lat="42.11645" lon="0.70441">
        <ele>613.2</ele>
        <time>2022-05-23 10:14:29</time>
      </trkpt>
      <trkpt lat="42.11643" lon="0.70443">
        <ele>613.4</ele>
        <time>2022-05-23 10:14:30</time>
      </trkpt>
      <trkpt lat="42.11641" lon="0.70444">
        <ele>613.6</ele>
        <time>2022-05-23 10:14:31</time>
      </trkpt>
      <trkpt lat="42.11639" lon="0.70445">
        <ele>613.6</ele>
        <time>2022-05-23 10:14:32</time>
      </trkpt>
      <trkpt lat="42.11637" lon="0.70446">
        <ele>613.8</ele>
        <time>2022-05-23 10:14:33</time>
      </trkpt>
      <trkpt lat="42.11635" lon="0.70447">
        <ele>613.8</ele>
        <time>2022-05-23 10:14:34</time>
      </trkpt>
      <trkpt lat="42.11632" lon="0.70449">
        <ele>614</ele>
        <time>2022-05-23 10:14:35</time>
      </trkpt>
      <trkpt lat="42.11631" lon="0.70451">
        <ele>614</ele>
        <time>2022-05-23 10:14:36</time>
      </trkpt>
      <trkpt lat="42.11628" lon="0.70453">
        <ele>614.2</ele>
        <time>2022-05-23 10:14:37</time>
      </trkpt>
      <trkpt lat="42.11626" lon="0.70454">
        <ele>614.2</ele>
        <time>2022-05-23 10:14:38</time>
      </trkpt>
      <trkpt lat="42.11623" lon="0.70456">
        <ele>614.4</ele>
        <time>2022-05-23 10:14:39</time>
      </trkpt>
      <trkpt lat="42.11621" lon="0.70458">
        <ele>614.4</ele>
        <time>2022-05-23 10:14:40</time>
      </trkpt>
      <trkpt lat="42.11619" lon="0.7046">
        <ele>614.4</ele>
        <time>2022-05-23 10:14:41</time>
      </trkpt>
      <trkpt lat="42.11617" lon="0.70462">
        <ele>614.6</ele>
        <time>2022-05-23 10:14:42</time>
      </trkpt>
      <trkpt lat="42.11614" lon="0.70464">
        <ele>614.6</ele>
        <time>2022-05-23 10:14:43</time>
      </trkpt>
      <trkpt lat="42.11612" lon="0.70466">
        <ele>614.6</ele>
        <time>2022-05-23 10:14:44</time>
      </trkpt>
      <trkpt lat="42.11609" lon="0.70469">
        <ele>614.6</ele>
        <time>2022-05-23 10:14:45</time>
      </trkpt>
      <trkpt lat="42.11606" lon="0.70471">
        <ele>614.6</ele>
        <time>2022-05-23 10:14:46</time>
      </trkpt>
      <trkpt lat="42.11603" lon="0.70474">
        <ele>614.6</ele>
        <time>2022-05-23 10:14:47</time>
      </trkpt>
      <trkpt lat="42.11599" lon="0.70476">
        <ele>614.4</ele>
        <time>2022-05-23 10:14:48</time>
      </trkpt>
      <trkpt lat="42.11596" lon="0.70478">
        <ele>614.4</ele>
        <time>2022-05-23 10:14:49</time>
      </trkpt>
      <trkpt lat="42.11593" lon="0.7048">
        <ele>614.4</ele>
        <time>2022-05-23 10:14:50</time>
      </trkpt>
      <trkpt lat="42.1159" lon="0.70483">
        <ele>614.2</ele>
        <time>2022-05-23 10:14:51</time>
      </trkpt>
      <trkpt lat="42.11587" lon="0.70485">
        <ele>614.2</ele>
        <time>2022-05-23 10:14:52</time>
      </trkpt>
      <trkpt lat="42.11583" lon="0.70489">
        <ele>614</ele>
        <time>2022-05-23 10:14:53</time>
      </trkpt>
      <trkpt lat="42.11579" lon="0.70492">
        <ele>613.8</ele>
        <time>2022-05-23 10:14:54</time>
      </trkpt>
      <trkpt lat="42.11576" lon="0.70496">
        <ele>613.6</ele>
        <time>2022-05-23 10:14:55</time>
      </trkpt>
      <trkpt lat="42.11572" lon="0.70501">
        <ele>613.4</ele>
        <time>2022-05-23 10:14:56</time>
      </trkpt>
      <trkpt lat="42.11568" lon="0.70506">
        <ele>613.2</ele>
        <time>2022-05-23 10:14:57</time>
      </trkpt>
      <trkpt lat="42.11563" lon="0.70512">
        <ele>613</ele>
        <time>2022-05-23 10:14:58</time>
      </trkpt>
      <trkpt lat="42.11559" lon="0.70518">
        <ele>612.8</ele>
        <time>2022-05-23 10:14:59</time>
      </trkpt>
      <trkpt lat="42.11555" lon="0.70524">
        <ele>612.8</ele>
        <time>2022-05-23 10:15:00</time>
      </trkpt>
      <trkpt lat="42.11551" lon="0.7053">
        <ele>612.6</ele>
        <time>2022-05-23 10:15:01</time>
      </trkpt>
      <trkpt lat="42.11548" lon="0.70536">
        <ele>612.4</ele>
        <time>2022-05-23 10:15:02</time>
      </trkpt>
      <trkpt lat="42.11544" lon="0.70542">
        <ele>612.4</ele>
        <time>2022-05-23 10:15:03</time>
      </trkpt>
      <trkpt lat="42.11541" lon="0.70547">
        <ele>612.2</ele>
        <time>2022-05-23 10:15:04</time>
      </trkpt>
      <trkpt lat="42.11536" lon="0.70551">
        <ele>612</ele>
        <time>2022-05-23 10:15:05</time>
      </trkpt>
      <trkpt lat="42.11531" lon="0.70554">
        <ele>611.8</ele>
        <time>2022-05-23 10:15:06</time>
      </trkpt>
      <trkpt lat="42.11524" lon="0.70555">
        <ele>611.6</ele>
        <time>2022-05-23 10:15:07</time>
      </trkpt>
      <trkpt lat="42.11518" lon="0.70555">
        <ele>611.6</ele>
        <time>2022-05-23 10:15:08</time>
      </trkpt>
      <trkpt lat="42.11513" lon="0.70554">
        <ele>611.4</ele>
        <time>2022-05-23 10:15:09</time>
      </trkpt>
      <trkpt lat="42.11507" lon="0.70553">
        <ele>611.6</ele>
        <time>2022-05-23 10:15:10</time>
      </trkpt>
      <trkpt lat="42.11503" lon="0.70551">
        <ele>611.6</ele>
        <time>2022-05-23 10:15:11</time>
      </trkpt>
      <trkpt lat="42.11499" lon="0.7055">
        <ele>611.8</ele>
        <time>2022-05-23 10:15:12</time>
      </trkpt>
      <trkpt lat="42.11495" lon="0.70548">
        <ele>612</ele>
        <time>2022-05-23 10:15:13</time>
      </trkpt>
      <trkpt lat="42.11492" lon="0.70546">
        <ele>612.2</ele>
        <time>2022-05-23 10:15:14</time>
      </trkpt>
      <trkpt lat="42.11489" lon="0.70545">
        <ele>612.4</ele>
        <time>2022-05-23 10:15:15</time>
      </trkpt>
      <trkpt lat="42.11486" lon="0.70544">
        <ele>612.6</ele>
        <time>2022-05-23 10:15:16</time>
      </trkpt>
      <trkpt lat="42.11483" lon="0.70543">
        <ele>613</ele>
        <time>2022-05-23 10:15:17</time>
      </trkpt>
      <trkpt lat="42.1148" lon="0.70543">
        <ele>613.2</ele>
        <time>2022-05-23 10:15:18</time>
      </trkpt>
      <trkpt lat="42.11478" lon="0.70542">
        <ele>613.4</ele>
        <time>2022-05-23 10:15:19</time>
      </trkpt>
      <trkpt lat="42.11475" lon="0.70542">
        <ele>613.8</ele>
        <time>2022-05-23 10:15:20</time>
      </trkpt>
      <trkpt lat="42.11472" lon="0.70541">
        <ele>614</ele>
        <time>2022-05-23 10:15:21</time>
      </trkpt>
      <trkpt lat="42.1147" lon="0.70541">
        <ele>614.2</ele>
        <time>2022-05-23 10:15:22</time>
      </trkpt>
      <trkpt lat="42.11467" lon="0.7054">
        <ele>614.6</ele>
        <time>2022-05-23 10:15:23</time>
      </trkpt>
      <trkpt lat="42.11464" lon="0.7054">
        <ele>614.8</ele>
        <time>2022-05-23 10:15:24</time>
      </trkpt>
      <trkpt lat="42.11462" lon="0.7054">
        <ele>615</ele>
        <time>2022-05-23 10:15:25</time>
      </trkpt>
      <trkpt lat="42.11459" lon="0.7054">
        <ele>615.2</ele>
        <time>2022-05-23 10:15:26</time>
      </trkpt>
      <trkpt lat="42.11457" lon="0.7054">
        <ele>615.4</ele>
        <time>2022-05-23 10:15:27</time>
      </trkpt>
      <trkpt lat="42.11454" lon="0.7054">
        <ele>615.6</ele>
        <time>2022-05-23 10:15:28</time>
      </trkpt>
      <trkpt lat="42.11451" lon="0.7054">
        <ele>615.6</ele>
        <time>2022-05-23 10:15:29</time>
      </trkpt>
      <trkpt lat="42.11449" lon="0.70541">
        <ele>615.8</ele>
        <time>2022-05-23 10:15:30</time>
      </trkpt>
      <trkpt lat="42.11446" lon="0.70541">
        <ele>616</ele>
        <time>2022-05-23 10:15:31</time>
      </trkpt>
      <trkpt lat="42.11444" lon="0.70542">
        <ele>616.2</ele>
        <time>2022-05-23 10:15:32</time>
      </trkpt>
      <trkpt lat="42.11441" lon="0.70542">
        <ele>616.4</ele>
        <time>2022-05-23 10:15:33</time>
      </trkpt>
      <trkpt lat="42.11438" lon="0.70542">
        <ele>616.4</ele>
        <time>2022-05-23 10:15:34</time>
      </trkpt>
      <trkpt lat="42.11435" lon="0.70542">
        <ele>616.6</ele>
        <time>2022-05-23 10:15:35</time>
      </trkpt>
      <trkpt lat="42.11432" lon="0.70542">
        <ele>616.6</ele>
        <time>2022-05-23 10:15:36</time>
      </trkpt>
      <trkpt lat="42.11429" lon="0.70543">
        <ele>616.8</ele>
        <time>2022-05-23 10:15:37</time>
      </trkpt>
      <trkpt lat="42.11426" lon="0.70543">
        <ele>616.8</ele>
        <time>2022-05-23 10:15:38</time>
      </trkpt>
      <trkpt lat="42.11423" lon="0.70544">
        <ele>616.8</ele>
        <time>2022-05-23 10:15:39</time>
      </trkpt>
      <trkpt lat="42.1142" lon="0.70545">
        <ele>617</ele>
        <time>2022-05-23 10:15:40</time>
      </trkpt>
      <trkpt lat="42.11416" lon="0.70546">
        <ele>617</ele>
        <time>2022-05-23 10:15:41</time>
      </trkpt>
      <trkpt lat="42.11414" lon="0.70548">
        <ele>617</ele>
        <time>2022-05-23 10:15:42</time>
      </trkpt>
      <trkpt lat="42.1141" lon="0.7055">
        <ele>617</ele>
        <time>2022-05-23 10:15:43</time>
      </trkpt>
      <trkpt lat="42.11407" lon="0.70552">
        <ele>617</ele>
        <time>2022-05-23 10:15:44</time>
      </trkpt>
      <trkpt lat="42.11404" lon="0.70554">
        <ele>617</ele>
        <time>2022-05-23 10:15:45</time>
      </trkpt>
      <trkpt lat="42.114" lon="0.70555">
        <ele>617</ele>
        <time>2022-05-23 10:15:46</time>
      </trkpt>
      <trkpt lat="42.11397" lon="0.70555">
        <ele>617</ele>
        <time>2022-05-23 10:15:47</time>
      </trkpt>
      <trkpt lat="42.11393" lon="0.70555">
        <ele>616.8</ele>
        <time>2022-05-23 10:15:48</time>
      </trkpt>
      <trkpt lat="42.11389" lon="0.70554">
        <ele>616.8</ele>
        <time>2022-05-23 10:15:49</time>
      </trkpt>
      <trkpt lat="42.11386" lon="0.70552">
        <ele>616.8</ele>
        <time>2022-05-23 10:15:50</time>
      </trkpt>
      <trkpt lat="42.11383" lon="0.70551">
        <ele>616.8</ele>
        <time>2022-05-23 10:15:51</time>
      </trkpt>
      <trkpt lat="42.1138" lon="0.70549">
        <ele>617</ele>
        <time>2022-05-23 10:15:52</time>
      </trkpt>
      <trkpt lat="42.11377" lon="0.70547">
        <ele>617</ele>
        <time>2022-05-23 10:15:53</time>
      </trkpt>
      <trkpt lat="42.11375" lon="0.70545">
        <ele>617.2</ele>
        <time>2022-05-23 10:15:54</time>
      </trkpt>
      <trkpt lat="42.11373" lon="0.70542">
        <ele>617.4</ele>
        <time>2022-05-23 10:15:55</time>
      </trkpt>
      <trkpt lat="42.1137" lon="0.70539">
        <ele>617.4</ele>
        <time>2022-05-23 10:15:56</time>
      </trkpt>
      <trkpt lat="42.11368" lon="0.70537">
        <ele>617.6</ele>
        <time>2022-05-23 10:15:57</time>
      </trkpt>
      <trkpt lat="42.11365" lon="0.70534">
        <ele>617.6</ele>
        <time>2022-05-23 10:15:58</time>
      </trkpt>
      <trkpt lat="42.11362" lon="0.70532">
        <ele>617.6</ele>
        <time>2022-05-23 10:15:59</time>
      </trkpt>
      <trkpt lat="42.11361" lon="0.70531">
        <ele>617.8</ele>
        <time>2022-05-23 10:16:00</time>
      </trkpt>
      <trkpt lat="42.11357" lon="0.70529">
        <ele>617.6</ele>
        <time>2022-05-23 10:16:01</time>
      </trkpt>
      <trkpt lat="42.11354" lon="0.70527">
        <ele>617.6</ele>
        <time>2022-05-23 10:16:02</time>
      </trkpt>
      <trkpt lat="42.11351" lon="0.70525">
        <ele>617.6</ele>
        <time>2022-05-23 10:16:03</time>
      </trkpt>
      <trkpt lat="42.11348" lon="0.70523">
        <ele>617.6</ele>
        <time>2022-05-23 10:16:04</time>
      </trkpt>
      <trkpt lat="42.11344" lon="0.70522">
        <ele>617.6</ele>
        <time>2022-05-23 10:16:05</time>
      </trkpt>
      <trkpt lat="42.11341" lon="0.7052">
        <ele>617.6</ele>
        <time>2022-05-23 10:16:06</time>
      </trkpt>
      <trkpt lat="42.11338" lon="0.70518">
        <ele>617.4</ele>
        <time>2022-05-23 10:16:07</time>
      </trkpt>
      <trkpt lat="42.11334" lon="0.70516">
        <ele>617.4</ele>
        <time>2022-05-23 10:16:08</time>
      </trkpt>
      <trkpt lat="42.1133" lon="0.70514">
        <ele>617.4</ele>
        <time>2022-05-23 10:16:09</time>
      </trkpt>
      <trkpt lat="42.11326" lon="0.70512">
        <ele>617.2</ele>
        <time>2022-05-23 10:16:10</time>
      </trkpt>
      <trkpt lat="42.11322" lon="0.70509">
        <ele>617</ele>
        <time>2022-05-23 10:16:11</time>
      </trkpt>
      <trkpt lat="42.11317" lon="0.70506">
        <ele>616.8</ele>
        <time>2022-05-23 10:16:12</time>
      </trkpt>
      <trkpt lat="42.11311" lon="0.70502">
        <ele>616.4</ele>
        <time>2022-05-23 10:16:13</time>
      </trkpt>
      <trkpt lat="42.11306" lon="0.70499">
        <ele>616</ele>
        <time>2022-05-23 10:16:14</time>
      </trkpt>
      <trkpt lat="42.11301" lon="0.70494">
        <ele>615.6</ele>
        <time>2022-05-23 10:16:15</time>
      </trkpt>
      <trkpt lat="42.11296" lon="0.70489">
        <ele>615.2</ele>
        <time>2022-05-23 10:16:16</time>
      </trkpt>
      <trkpt lat="42.1129" lon="0.70483">
        <ele>614.8</ele>
        <time>2022-05-23 10:16:17</time>
      </trkpt>
      <trkpt lat="42.11285" lon="0.70477">
        <ele>614.6</ele>
        <time>2022-05-23 10:16:18</time>
      </trkpt>
      <trkpt lat="42.11279" lon="0.7047">
        <ele>614.4</ele>
        <time>2022-05-23 10:16:19</time>
      </trkpt>
      <trkpt lat="42.11273" lon="0.70463">
        <ele>614</ele>
        <time>2022-05-23 10:16:20</time>
      </trkpt>
      <trkpt lat="42.11268" lon="0.70457">
        <ele>613.6</ele>
        <time>2022-05-23 10:16:21</time>
      </trkpt>
      <trkpt lat="42.11261" lon="0.70451">
        <ele>613.2</ele>
        <time>2022-05-23 10:16:22</time>
      </trkpt>
      <trkpt lat="42.11254" lon="0.70445">
        <ele>612.8</ele>
        <time>2022-05-23 10:16:23</time>
      </trkpt>
      <trkpt lat="42.11247" lon="0.7044">
        <ele>612.4</ele>
        <time>2022-05-23 10:16:24</time>
      </trkpt>
      <trkpt lat="42.1124" lon="0.70434">
        <ele>611.8</ele>
        <time>2022-05-23 10:16:25</time>
      </trkpt>
      <trkpt lat="42.11234" lon="0.70428">
        <ele>611.2</ele>
        <time>2022-05-23 10:16:26</time>
      </trkpt>
      <trkpt lat="42.11228" lon="0.70421">
        <ele>610.8</ele>
        <time>2022-05-23 10:16:27</time>
      </trkpt>
      <trkpt lat="42.11222" lon="0.70415">
        <ele>610.2</ele>
        <time>2022-05-23 10:16:28</time>
      </trkpt>
      <trkpt lat="42.11216" lon="0.7041">
        <ele>609.6</ele>
        <time>2022-05-23 10:16:29</time>
      </trkpt>
      <trkpt lat="42.11208" lon="0.70406">
        <ele>609</ele>
        <time>2022-05-23 10:16:30</time>
      </trkpt>
      <trkpt lat="42.11201" lon="0.70403">
        <ele>608.6</ele>
        <time>2022-05-23 10:16:31</time>
      </trkpt>
      <trkpt lat="42.11192" lon="0.704">
        <ele>608</ele>
        <time>2022-05-23 10:16:32</time>
      </trkpt>
      <trkpt lat="42.11184" lon="0.70397">
        <ele>607.6</ele>
        <time>2022-05-23 10:16:33</time>
      </trkpt>
      <trkpt lat="42.11175" lon="0.70395">
        <ele>607</ele>
        <time>2022-05-23 10:16:34</time>
      </trkpt>
      <trkpt lat="42.11166" lon="0.70393">
        <ele>606.6</ele>
        <time>2022-05-23 10:16:35</time>
      </trkpt>
      <trkpt lat="42.11156" lon="0.70391">
        <ele>606</ele>
        <time>2022-05-23 10:16:36</time>
      </trkpt>
      <trkpt lat="42.11146" lon="0.7039">
        <ele>605.8</ele>
        <time>2022-05-23 10:16:37</time>
      </trkpt>
      <trkpt lat="42.11136" lon="0.70389">
        <ele>605.4</ele>
        <time>2022-05-23 10:16:38</time>
      </trkpt>
      <trkpt lat="42.11127" lon="0.70387">
        <ele>605.2</ele>
        <time>2022-05-23 10:16:39</time>
      </trkpt>
      <trkpt lat="42.11118" lon="0.70384">
        <ele>605</ele>
        <time>2022-05-23 10:16:40</time>
      </trkpt>
      <trkpt lat="42.1111" lon="0.70382">
        <ele>604.8</ele>
        <time>2022-05-23 10:16:41</time>
      </trkpt>
      <trkpt lat="42.11102" lon="0.70381">
        <ele>604.6</ele>
        <time>2022-05-23 10:16:42</time>
      </trkpt>
      <trkpt lat="42.11093" lon="0.70378">
        <ele>604.6</ele>
        <time>2022-05-23 10:16:43</time>
      </trkpt>
      <trkpt lat="42.11085" lon="0.70375">
        <ele>604.4</ele>
        <time>2022-05-23 10:16:44</time>
      </trkpt>
      <trkpt lat="42.11078" lon="0.70372">
        <ele>604.4</ele>
        <time>2022-05-23 10:16:45</time>
      </trkpt>
      <trkpt lat="42.11071" lon="0.70367">
        <ele>604.2</ele>
        <time>2022-05-23 10:16:46</time>
      </trkpt>
      <trkpt lat="42.11065" lon="0.70361">
        <ele>604.2</ele>
        <time>2022-05-23 10:16:47</time>
      </trkpt>
      <trkpt lat="42.11059" lon="0.70354">
        <ele>604</ele>
        <time>2022-05-23 10:16:48</time>
      </trkpt>
      <trkpt lat="42.11055" lon="0.70347">
        <ele>604</ele>
        <time>2022-05-23 10:16:49</time>
      </trkpt>
      <trkpt lat="42.1105" lon="0.70339">
        <ele>603.8</ele>
        <time>2022-05-23 10:16:50</time>
      </trkpt>
      <trkpt lat="42.11044" lon="0.70332">
        <ele>603.8</ele>
        <time>2022-05-23 10:16:51</time>
      </trkpt>
      <trkpt lat="42.1104" lon="0.70324">
        <ele>603.6</ele>
        <time>2022-05-23 10:16:52</time>
      </trkpt>
      <trkpt lat="42.11034" lon="0.70317">
        <ele>603.4</ele>
        <time>2022-05-23 10:16:53</time>
      </trkpt>
      <trkpt lat="42.1103" lon="0.7031">
        <ele>603.2</ele>
        <time>2022-05-23 10:16:54</time>
      </trkpt>
      <trkpt lat="42.11024" lon="0.70302">
        <ele>603</ele>
        <time>2022-05-23 10:16:55</time>
      </trkpt>
      <trkpt lat="42.11019" lon="0.70294">
        <ele>602.8</ele>
        <time>2022-05-23 10:16:56</time>
      </trkpt>
      <trkpt lat="42.11014" lon="0.70287">
        <ele>602.8</ele>
        <time>2022-05-23 10:16:57</time>
      </trkpt>
      <trkpt lat="42.11009" lon="0.7028">
        <ele>602.6</ele>
        <time>2022-05-23 10:16:58</time>
      </trkpt>
      <trkpt lat="42.11005" lon="0.70274">
        <ele>602.6</ele>
        <time>2022-05-23 10:16:59</time>
      </trkpt>
      <trkpt lat="42.11" lon="0.70268">
        <ele>602.4</ele>
        <time>2022-05-23 10:17:00</time>
      </trkpt>
      <trkpt lat="42.10996" lon="0.70261">
        <ele>602.4</ele>
        <time>2022-05-23 10:17:01</time>
      </trkpt>
      <trkpt lat="42.1099" lon="0.70256">
        <ele>602.4</ele>
        <time>2022-05-23 10:17:02</time>
      </trkpt>
      <trkpt lat="42.10985" lon="0.70253">
        <ele>602.2</ele>
        <time>2022-05-23 10:17:03</time>
      </trkpt>
      <trkpt lat="42.10979" lon="0.7025">
        <ele>602.2</ele>
        <time>2022-05-23 10:17:04</time>
      </trkpt>
      <trkpt lat="42.10973" lon="0.70248">
        <ele>602</ele>
        <time>2022-05-23 10:17:05</time>
      </trkpt>
      <trkpt lat="42.10966" lon="0.70247">
        <ele>601.8</ele>
        <time>2022-05-23 10:17:06</time>
      </trkpt>
      <trkpt lat="42.10959" lon="0.70246">
        <ele>601.8</ele>
        <time>2022-05-23 10:17:07</time>
      </trkpt>
      <trkpt lat="42.10953" lon="0.70246">
        <ele>601.6</ele>
        <time>2022-05-23 10:17:08</time>
      </trkpt>
      <trkpt lat="42.10946" lon="0.70246">
        <ele>601.6</ele>
        <time>2022-05-23 10:17:09</time>
      </trkpt>
      <trkpt lat="42.1094" lon="0.70246">
        <ele>601.4</ele>
        <time>2022-05-23 10:17:10</time>
      </trkpt>
      <trkpt lat="42.10934" lon="0.70245">
        <ele>601.4</ele>
        <time>2022-05-23 10:17:11</time>
      </trkpt>
      <trkpt lat="42.10928" lon="0.70244">
        <ele>601.4</ele>
        <time>2022-05-23 10:17:12</time>
      </trkpt>
      <trkpt lat="42.10923" lon="0.70243">
        <ele>601.4</ele>
        <time>2022-05-23 10:17:13</time>
      </trkpt>
      <trkpt lat="42.10917" lon="0.70242">
        <ele>601.4</ele>
        <time>2022-05-23 10:17:14</time>
      </trkpt>
      <trkpt lat="42.10912" lon="0.7024">
        <ele>601.6</ele>
        <time>2022-05-23 10:17:15</time>
      </trkpt>
      <trkpt lat="42.10907" lon="0.70239">
        <ele>601.6</ele>
        <time>2022-05-23 10:17:16</time>
      </trkpt>
      <trkpt lat="42.10902" lon="0.70237">
        <ele>601.6</ele>
        <time>2022-05-23 10:17:17</time>
      </trkpt>
      <trkpt lat="42.10897" lon="0.70235">
        <ele>601.6</ele>
        <time>2022-05-23 10:17:18</time>
      </trkpt>
      <trkpt lat="42.10892" lon="0.70234">
        <ele>601.6</ele>
        <time>2022-05-23 10:17:19</time>
      </trkpt>
      <trkpt lat="42.10887" lon="0.70232">
        <ele>601.6</ele>
        <time>2022-05-23 10:17:20</time>
      </trkpt>
      <trkpt lat="42.10883" lon="0.70231">
        <ele>601.6</ele>
        <time>2022-05-23 10:17:21</time>
      </trkpt>
      <trkpt lat="42.10878" lon="0.7023">
        <ele>601.6</ele>
        <time>2022-05-23 10:17:22</time>
      </trkpt>
      <trkpt lat="42.10872" lon="0.70229">
        <ele>601.6</ele>
        <time>2022-05-23 10:17:23</time>
      </trkpt>
      <trkpt lat="42.10867" lon="0.70228">
        <ele>601.6</ele>
        <time>2022-05-23 10:17:24</time>
      </trkpt>
      <trkpt lat="42.10862" lon="0.70226">
        <ele>601.6</ele>
        <time>2022-05-23 10:17:25</time>
      </trkpt>
      <trkpt lat="42.10856" lon="0.70225">
        <ele>601.6</ele>
        <time>2022-05-23 10:17:26</time>
      </trkpt>
      <trkpt lat="42.10851" lon="0.70224">
        <ele>601.6</ele>
        <time>2022-05-23 10:17:27</time>
      </trkpt>
      <trkpt lat="42.10846" lon="0.70222">
        <ele>601.6</ele>
        <time>2022-05-23 10:17:28</time>
      </trkpt>
      <trkpt lat="42.1084" lon="0.7022">
        <ele>601.4</ele>
        <time>2022-05-23 10:17:29</time>
      </trkpt>
      <trkpt lat="42.10835" lon="0.70218">
        <ele>601.4</ele>
        <time>2022-05-23 10:17:30</time>
      </trkpt>
      <trkpt lat="42.1083" lon="0.70216">
        <ele>601.2</ele>
        <time>2022-05-23 10:17:31</time>
      </trkpt>
      <trkpt lat="42.10824" lon="0.70214">
        <ele>601.2</ele>
        <time>2022-05-23 10:17:32</time>
      </trkpt>
      <trkpt lat="42.10819" lon="0.70212">
        <ele>601</ele>
        <time>2022-05-23 10:17:33</time>
      </trkpt>
      <trkpt lat="42.10814" lon="0.7021">
        <ele>601</ele>
        <time>2022-05-23 10:17:34</time>
      </trkpt>
      <trkpt lat="42.10808" lon="0.70208">
        <ele>600.8</ele>
        <time>2022-05-23 10:17:35</time>
      </trkpt>
      <trkpt lat="42.10802" lon="0.70207">
        <ele>600.6</ele>
        <time>2022-05-23 10:17:36</time>
      </trkpt>
      <trkpt lat="42.10796" lon="0.70206">
        <ele>600.6</ele>
        <time>2022-05-23 10:17:37</time>
      </trkpt>
      <trkpt lat="42.10791" lon="0.70205">
        <ele>600.4</ele>
        <time>2022-05-23 10:17:38</time>
      </trkpt>
      <trkpt lat="42.10785" lon="0.70204">
        <ele>600.4</ele>
        <time>2022-05-23 10:17:39</time>
      </trkpt>
      <trkpt lat="42.1078" lon="0.70202">
        <ele>600.2</ele>
        <time>2022-05-23 10:17:40</time>
      </trkpt>
      <trkpt lat="42.10774" lon="0.70202">
        <ele>600.2</ele>
        <time>2022-05-23 10:17:41</time>
      </trkpt>
      <trkpt lat="42.10768" lon="0.70201">
        <ele>600.2</ele>
        <time>2022-05-23 10:17:42</time>
      </trkpt>
      <trkpt lat="42.10763" lon="0.70201">
        <ele>600.4</ele>
        <time>2022-05-23 10:17:43</time>
      </trkpt>
      <trkpt lat="42.10757" lon="0.70201">
        <ele>600.4</ele>
        <time>2022-05-23 10:17:44</time>
      </trkpt>
      <trkpt lat="42.10752" lon="0.70201">
        <ele>600.4</ele>
        <time>2022-05-23 10:17:45</time>
      </trkpt>
      <trkpt lat="42.10747" lon="0.70201">
        <ele>600.4</ele>
        <time>2022-05-23 10:17:46</time>
      </trkpt>
      <trkpt lat="42.10742" lon="0.70201">
        <ele>600.4</ele>
        <time>2022-05-23 10:17:47</time>
      </trkpt>
      <trkpt lat="42.10737" lon="0.70201">
        <ele>600.4</ele>
        <time>2022-05-23 10:17:48</time>
      </trkpt>
      <trkpt lat="42.10732" lon="0.70202">
        <ele>600.6</ele>
        <time>2022-05-23 10:17:49</time>
      </trkpt>
      <trkpt lat="42.10727" lon="0.70202">
        <ele>600.6</ele>
        <time>2022-05-23 10:17:50</time>
      </trkpt>
      <trkpt lat="42.10722" lon="0.70202">
        <ele>600.6</ele>
        <time>2022-05-23 10:17:51</time>
      </trkpt>
      <trkpt lat="42.10717" lon="0.70202">
        <ele>600.6</ele>
        <time>2022-05-23 10:17:52</time>
      </trkpt>
      <trkpt lat="42.10712" lon="0.70203">
        <ele>600.6</ele>
        <time>2022-05-23 10:17:53</time>
      </trkpt>
      <trkpt lat="42.10708" lon="0.70204">
        <ele>600.8</ele>
        <time>2022-05-23 10:17:54</time>
      </trkpt>
      <trkpt lat="42.10703" lon="0.70205">
        <ele>600.8</ele>
        <time>2022-05-23 10:17:55</time>
      </trkpt>
      <trkpt lat="42.10699" lon="0.70206">
        <ele>600.8</ele>
        <time>2022-05-23 10:17:56</time>
      </trkpt>
      <trkpt lat="42.10694" lon="0.70207">
        <ele>601</ele>
        <time>2022-05-23 10:17:57</time>
      </trkpt>
      <trkpt lat="42.1069" lon="0.70209">
        <ele>601</ele>
        <time>2022-05-23 10:17:58</time>
      </trkpt>
      <trkpt lat="42.10686" lon="0.70211">
        <ele>601</ele>
        <time>2022-05-23 10:17:59</time>
      </trkpt>
      <trkpt lat="42.10681" lon="0.70213">
        <ele>601</ele>
        <time>2022-05-23 10:18:00</time>
      </trkpt>
      <trkpt lat="42.10677" lon="0.70216">
        <ele>601</ele>
        <time>2022-05-23 10:18:01</time>
      </trkpt>
      <trkpt lat="42.10673" lon="0.7022">
        <ele>601</ele>
        <time>2022-05-23 10:18:02</time>
      </trkpt>
      <trkpt lat="42.10669" lon="0.70224">
        <ele>601</ele>
        <time>2022-05-23 10:18:03</time>
      </trkpt>
      <trkpt lat="42.10665" lon="0.70228">
        <ele>601</ele>
        <time>2022-05-23 10:18:04</time>
      </trkpt>
      <trkpt lat="42.10663" lon="0.70231">
        <ele>601</ele>
        <time>2022-05-23 10:18:05</time>
      </trkpt>
      <trkpt lat="42.1066" lon="0.70238">
        <ele>601.2</ele>
        <time>2022-05-23 10:18:06</time>
      </trkpt>
      <trkpt lat="42.10657" lon="0.70242">
        <ele>601.2</ele>
        <time>2022-05-23 10:18:07</time>
      </trkpt>
      <trkpt lat="42.10654" lon="0.70247">
        <ele>601.2</ele>
        <time>2022-05-23 10:18:08</time>
      </trkpt>
      <trkpt lat="42.10652" lon="0.70252">
        <ele>601.2</ele>
        <time>2022-05-23 10:18:09</time>
      </trkpt>
      <trkpt lat="42.1065" lon="0.70258">
        <ele>601.2</ele>
        <time>2022-05-23 10:18:10</time>
      </trkpt>
      <trkpt lat="42.10648" lon="0.70263">
        <ele>601.4</ele>
        <time>2022-05-23 10:18:11</time>
      </trkpt>
      <trkpt lat="42.10646" lon="0.70269">
        <ele>601.4</ele>
        <time>2022-05-23 10:18:12</time>
      </trkpt>
      <trkpt lat="42.10645" lon="0.70275">
        <ele>601.4</ele>
        <time>2022-05-23 10:18:13</time>
      </trkpt>
      <trkpt lat="42.10644" lon="0.7028">
        <ele>601.6</ele>
        <time>2022-05-23 10:18:14</time>
      </trkpt>
      <trkpt lat="42.10643" lon="0.70287">
        <ele>601.6</ele>
        <time>2022-05-23 10:18:15</time>
      </trkpt>
      <trkpt lat="42.10641" lon="0.70293">
        <ele>601.6</ele>
        <time>2022-05-23 10:18:16</time>
      </trkpt>
      <trkpt lat="42.1064" lon="0.70298">
        <ele>601.8</ele>
        <time>2022-05-23 10:18:17</time>
      </trkpt>
      <trkpt lat="42.1064" lon="0.70304">
        <ele>601.8</ele>
        <time>2022-05-23 10:18:18</time>
      </trkpt>
      <trkpt lat="42.1064" lon="0.7031">
        <ele>601.8</ele>
        <time>2022-05-23 10:18:19</time>
      </trkpt>
      <trkpt lat="42.1064" lon="0.70316">
        <ele>601.8</ele>
        <time>2022-05-23 10:18:20</time>
      </trkpt>
      <trkpt lat="42.1064" lon="0.70322">
        <ele>601.8</ele>
        <time>2022-05-23 10:18:21</time>
      </trkpt>
      <trkpt lat="42.1064" lon="0.70328">
        <ele>602</ele>
        <time>2022-05-23 10:18:22</time>
      </trkpt>
      <trkpt lat="42.1064" lon="0.70334">
        <ele>602</ele>
        <time>2022-05-23 10:18:23</time>
      </trkpt>
      <trkpt lat="42.10641" lon="0.70341">
        <ele>602</ele>
        <time>2022-05-23 10:18:24</time>
      </trkpt>
      <trkpt lat="42.10641" lon="0.70346">
        <ele>602</ele>
        <time>2022-05-23 10:18:25</time>
      </trkpt>
      <trkpt lat="42.10643" lon="0.70353">
        <ele>602</ele>
        <time>2022-05-23 10:18:26</time>
      </trkpt>
      <trkpt lat="42.10643" lon="0.70359">
        <ele>602</ele>
        <time>2022-05-23 10:18:27</time>
      </trkpt>
      <trkpt lat="42.10644" lon="0.70366">
        <ele>602</ele>
        <time>2022-05-23 10:18:28</time>
      </trkpt>
      <trkpt lat="42.10645" lon="0.70372">
        <ele>602</ele>
        <time>2022-05-23 10:18:29</time>
      </trkpt>
      <trkpt lat="42.10646" lon="0.70378">
        <ele>602</ele>
        <time>2022-05-23 10:18:30</time>
      </trkpt>
      <trkpt lat="42.10646" lon="0.70385">
        <ele>602</ele>
        <time>2022-05-23 10:18:31</time>
      </trkpt>
      <trkpt lat="42.10646" lon="0.70392">
        <ele>602</ele>
        <time>2022-05-23 10:18:32</time>
      </trkpt>
      <trkpt lat="42.10646" lon="0.70399">
        <ele>602</ele>
        <time>2022-05-23 10:18:33</time>
      </trkpt>
      <trkpt lat="42.10646" lon="0.70406">
        <ele>602</ele>
        <time>2022-05-23 10:18:34</time>
      </trkpt>
      <trkpt lat="42.10646" lon="0.70412">
        <ele>602</ele>
        <time>2022-05-23 10:18:35</time>
      </trkpt>
      <trkpt lat="42.10646" lon="0.70419">
        <ele>601.8</ele>
        <time>2022-05-23 10:18:36</time>
      </trkpt>
      <trkpt lat="42.10646" lon="0.70425">
        <ele>601.8</ele>
        <time>2022-05-23 10:18:37</time>
      </trkpt>
      <trkpt lat="42.10647" lon="0.70432">
        <ele>601.8</ele>
        <time>2022-05-23 10:18:38</time>
      </trkpt>
      <trkpt lat="42.10647" lon="0.70438">
        <ele>601.6</ele>
        <time>2022-05-23 10:18:39</time>
      </trkpt>
      <trkpt lat="42.10647" lon="0.70444">
        <ele>601.6</ele>
        <time>2022-05-23 10:18:40</time>
      </trkpt>
      <trkpt lat="42.10647" lon="0.70452">
        <ele>601.6</ele>
        <time>2022-05-23 10:18:41</time>
      </trkpt>
      <trkpt lat="42.10648" lon="0.70458">
        <ele>601.6</ele>
        <time>2022-05-23 10:18:42</time>
      </trkpt>
      <trkpt lat="42.10648" lon="0.70465">
        <ele>601.6</ele>
        <time>2022-05-23 10:18:43</time>
      </trkpt>
      <trkpt lat="42.10648" lon="0.70472">
        <ele>601.4</ele>
        <time>2022-05-23 10:18:44</time>
      </trkpt>
      <trkpt lat="42.10649" lon="0.70478">
        <ele>601.4</ele>
        <time>2022-05-23 10:18:45</time>
      </trkpt>
      <trkpt lat="42.1065" lon="0.70485">
        <ele>601.2</ele>
        <time>2022-05-23 10:18:46</time>
      </trkpt>
      <trkpt lat="42.10651" lon="0.70492">
        <ele>601.2</ele>
        <time>2022-05-23 10:18:47</time>
      </trkpt>
      <trkpt lat="42.10653" lon="0.70499">
        <ele>601.2</ele>
        <time>2022-05-23 10:18:48</time>
      </trkpt>
      <trkpt lat="42.10654" lon="0.70505">
        <ele>601.2</ele>
        <time>2022-05-23 10:18:49</time>
      </trkpt>
      <trkpt lat="42.10655" lon="0.70512">
        <ele>601.2</ele>
        <time>2022-05-23 10:18:50</time>
      </trkpt>
      <trkpt lat="42.10656" lon="0.70518">
        <ele>601.2</ele>
        <time>2022-05-23 10:18:51</time>
      </trkpt>
      <trkpt lat="42.10658" lon="0.70524">
        <ele>601.2</ele>
        <time>2022-05-23 10:18:52</time>
      </trkpt>
      <trkpt lat="42.10659" lon="0.7053">
        <ele>601.2</ele>
        <time>2022-05-23 10:18:53</time>
      </trkpt>
      <trkpt lat="42.1066" lon="0.70537">
        <ele>601.2</ele>
        <time>2022-05-23 10:18:54</time>
      </trkpt>
      <trkpt lat="42.10661" lon="0.70543">
        <ele>601.2</ele>
        <time>2022-05-23 10:18:55</time>
      </trkpt>
      <trkpt lat="42.10662" lon="0.7055">
        <ele>601.2</ele>
        <time>2022-05-23 10:18:56</time>
      </trkpt>
      <trkpt lat="42.10663" lon="0.70556">
        <ele>601.2</ele>
        <time>2022-05-23 10:18:57</time>
      </trkpt>
      <trkpt lat="42.10664" lon="0.70563">
        <ele>601.2</ele>
        <time>2022-05-23 10:18:58</time>
      </trkpt>
      <trkpt lat="42.10666" lon="0.7057">
        <ele>601</ele>
        <time>2022-05-23 10:18:59</time>
      </trkpt>
      <trkpt lat="42.10667" lon="0.70576">
        <ele>601</ele>
        <time>2022-05-23 10:19:00</time>
      </trkpt>
      <trkpt lat="42.10669" lon="0.70583">
        <ele>600.8</ele>
        <time>2022-05-23 10:19:01</time>
      </trkpt>
      <trkpt lat="42.1067" lon="0.7059">
        <ele>600.8</ele>
        <time>2022-05-23 10:19:02</time>
      </trkpt>
      <trkpt lat="42.1067" lon="0.70597">
        <ele>600.6</ele>
        <time>2022-05-23 10:19:03</time>
      </trkpt>
      <trkpt lat="42.1067" lon="0.70604">
        <ele>600.6</ele>
        <time>2022-05-23 10:19:04</time>
      </trkpt>
      <trkpt lat="42.1067" lon="0.70611">
        <ele>600.4</ele>
        <time>2022-05-23 10:19:05</time>
      </trkpt>
      <trkpt lat="42.10668" lon="0.70618">
        <ele>600.4</ele>
        <time>2022-05-23 10:19:06</time>
      </trkpt>
      <trkpt lat="42.10665" lon="0.70624">
        <ele>600.4</ele>
        <time>2022-05-23 10:19:07</time>
      </trkpt>
      <trkpt lat="42.10661" lon="0.70627">
        <ele>600.2</ele>
        <time>2022-05-23 10:19:08</time>
      </trkpt>
      <trkpt lat="42.10656" lon="0.70631">
        <ele>600.2</ele>
        <time>2022-05-23 10:19:09</time>
      </trkpt>
      <trkpt lat="42.10651" lon="0.70633">
        <ele>600</ele>
        <time>2022-05-23 10:19:10</time>
      </trkpt>
      <trkpt lat="42.10646" lon="0.70635">
        <ele>599.8</ele>
        <time>2022-05-23 10:19:11</time>
      </trkpt>
      <trkpt lat="42.1064" lon="0.70636">
        <ele>599.8</ele>
        <time>2022-05-23 10:19:12</time>
      </trkpt>
      <trkpt lat="42.10635" lon="0.70637">
        <ele>599.8</ele>
        <time>2022-05-23 10:19:13</time>
      </trkpt>
      <trkpt lat="42.1063" lon="0.70638">
        <ele>599.8</ele>
        <time>2022-05-23 10:19:14</time>
      </trkpt>
      <trkpt lat="42.10625" lon="0.70639">
        <ele>599.8</ele>
        <time>2022-05-23 10:19:15</time>
      </trkpt>
      <trkpt lat="42.1062" lon="0.70639">
        <ele>599.8</ele>
        <time>2022-05-23 10:19:16</time>
      </trkpt>
      <trkpt lat="42.10615" lon="0.70639">
        <ele>599.8</ele>
        <time>2022-05-23 10:19:17</time>
      </trkpt>
      <trkpt lat="42.1061" lon="0.70639">
        <ele>600</ele>
        <time>2022-05-23 10:19:18</time>
      </trkpt>
      <trkpt lat="42.10606" lon="0.70639">
        <ele>600</ele>
        <time>2022-05-23 10:19:19</time>
      </trkpt>
      <trkpt lat="42.10601" lon="0.70637">
        <ele>600.2</ele>
        <time>2022-05-23 10:19:20</time>
      </trkpt>
      <trkpt lat="42.10597" lon="0.70635">
        <ele>600.2</ele>
        <time>2022-05-23 10:19:21</time>
      </trkpt>
      <trkpt lat="42.10594" lon="0.70632">
        <ele>600.4</ele>
        <time>2022-05-23 10:19:22</time>
      </trkpt>
      <trkpt lat="42.10591" lon="0.70629">
        <ele>600.6</ele>
        <time>2022-05-23 10:19:23</time>
      </trkpt>
      <trkpt lat="42.10588" lon="0.70627">
        <ele>600.8</ele>
        <time>2022-05-23 10:19:24</time>
      </trkpt>
      <trkpt lat="42.10586" lon="0.70624">
        <ele>601</ele>
        <time>2022-05-23 10:19:25</time>
      </trkpt>
      <trkpt lat="42.10584" lon="0.70622">
        <ele>601.2</ele>
        <time>2022-05-23 10:19:26</time>
      </trkpt>
      <trkpt lat="42.10582" lon="0.70619">
        <ele>601.6</ele>
        <time>2022-05-23 10:19:27</time>
      </trkpt>
      <trkpt lat="42.1058" lon="0.70617">
        <ele>601.6</ele>
        <time>2022-05-23 10:19:28</time>
      </trkpt>
      <trkpt lat="42.10579" lon="0.70615">
        <ele>601.8</ele>
        <time>2022-05-23 10:19:29</time>
      </trkpt>
      <trkpt lat="42.10577" lon="0.70613">
        <ele>602</ele>
        <time>2022-05-23 10:19:30</time>
      </trkpt>
      <trkpt lat="42.10576" lon="0.70612">
        <ele>602</ele>
        <time>2022-05-23 10:19:31</time>
      </trkpt>
      <trkpt lat="42.10574" lon="0.70609">
        <ele>602.2</ele>
        <time>2022-05-23 10:19:32</time>
      </trkpt>
      <trkpt lat="42.10572" lon="0.70607">
        <ele>602.4</ele>
        <time>2022-05-23 10:19:33</time>
      </trkpt>
      <trkpt lat="42.10571" lon="0.70605">
        <ele>602.6</ele>
        <time>2022-05-23 10:19:34</time>
      </trkpt>
      <trkpt lat="42.1057" lon="0.70602">
        <ele>602.8</ele>
        <time>2022-05-23 10:19:35</time>
      </trkpt>
      <trkpt lat="42.10568" lon="0.706">
        <ele>603</ele>
        <time>2022-05-23 10:19:36</time>
      </trkpt>
      <trkpt lat="42.10567" lon="0.70598">
        <ele>603.2</ele>
        <time>2022-05-23 10:19:37</time>
      </trkpt>
      <trkpt lat="42.10565" lon="0.70596">
        <ele>603.4</ele>
        <time>2022-05-23 10:19:38</time>
      </trkpt>
      <trkpt lat="42.10564" lon="0.70594">
        <ele>603.6</ele>
        <time>2022-05-23 10:19:39</time>
      </trkpt>
      <trkpt lat="42.10562" lon="0.70592">
        <ele>603.8</ele>
        <time>2022-05-23 10:19:40</time>
      </trkpt>
      <trkpt lat="42.10561" lon="0.70591">
        <ele>603.8</ele>
        <time>2022-05-23 10:19:41</time>
      </trkpt>
      <trkpt lat="42.10559" lon="0.70588">
        <ele>604</ele>
        <time>2022-05-23 10:19:42</time>
      </trkpt>
      <trkpt lat="42.10557" lon="0.70586">
        <ele>604</ele>
        <time>2022-05-23 10:19:43</time>
      </trkpt>
      <trkpt lat="42.10556" lon="0.70584">
        <ele>604.2</ele>
        <time>2022-05-23 10:19:44</time>
      </trkpt>
      <trkpt lat="42.10555" lon="0.70582">
        <ele>604.2</ele>
        <time>2022-05-23 10:19:45</time>
      </trkpt>
      <trkpt lat="42.10554" lon="0.7058">
        <ele>604.4</ele>
        <time>2022-05-23 10:19:46</time>
      </trkpt>
      <trkpt lat="42.10552" lon="0.70578">
        <ele>604.4</ele>
        <time>2022-05-23 10:19:47</time>
      </trkpt>
      <trkpt lat="42.10551" lon="0.70576">
        <ele>604.6</ele>
        <time>2022-05-23 10:19:48</time>
      </trkpt>
      <trkpt lat="42.10549" lon="0.70574">
        <ele>604.6</ele>
        <time>2022-05-23 10:19:49</time>
      </trkpt>
      <trkpt lat="42.10548" lon="0.70572">
        <ele>604.8</ele>
        <time>2022-05-23 10:19:50</time>
      </trkpt>
      <trkpt lat="42.10546" lon="0.7057">
        <ele>605</ele>
        <time>2022-05-23 10:19:51</time>
      </trkpt>
      <trkpt lat="42.10545" lon="0.70568">
        <ele>605</ele>
        <time>2022-05-23 10:19:52</time>
      </trkpt>
      <trkpt lat="42.10544" lon="0.70566">
        <ele>605.2</ele>
        <time>2022-05-23 10:19:53</time>
      </trkpt>
      <trkpt lat="42.10543" lon="0.70564">
        <ele>605.2</ele>
        <time>2022-05-23 10:19:54</time>
      </trkpt>
      <trkpt lat="42.10541" lon="0.70562">
        <ele>605.4</ele>
        <time>2022-05-23 10:19:55</time>
      </trkpt>
      <trkpt lat="42.1054" lon="0.7056">
        <ele>605.4</ele>
        <time>2022-05-23 10:19:56</time>
      </trkpt>
      <trkpt lat="42.10538" lon="0.70558">
        <ele>605.6</ele>
        <time>2022-05-23 10:19:57</time>
      </trkpt>
      <trkpt lat="42.10537" lon="0.70556">
        <ele>605.6</ele>
        <time>2022-05-23 10:19:58</time>
      </trkpt>
      <trkpt lat="42.10535" lon="0.70554">
        <ele>605.8</ele>
        <time>2022-05-23 10:19:59</time>
      </trkpt>
      <trkpt lat="42.10534" lon="0.70552">
        <ele>606</ele>
        <time>2022-05-23 10:20:00</time>
      </trkpt>
      <trkpt lat="42.10533" lon="0.7055">
        <ele>606</ele>
        <time>2022-05-23 10:20:01</time>
      </trkpt>
      <trkpt lat="42.10531" lon="0.70549">
        <ele>606.2</ele>
        <time>2022-05-23 10:20:02</time>
      </trkpt>
      <trkpt lat="42.1053" lon="0.70546">
        <ele>606.4</ele>
        <time>2022-05-23 10:20:03</time>
      </trkpt>
      <trkpt lat="42.10528" lon="0.70544">
        <ele>606.4</ele>
        <time>2022-05-23 10:20:04</time>
      </trkpt>
      <trkpt lat="42.10527" lon="0.70542">
        <ele>606.6</ele>
        <time>2022-05-23 10:20:05</time>
      </trkpt>
      <trkpt lat="42.10525" lon="0.7054">
        <ele>606.8</ele>
        <time>2022-05-23 10:20:06</time>
      </trkpt>
      <trkpt lat="42.10524" lon="0.70537">
        <ele>606.8</ele>
        <time>2022-05-23 10:20:07</time>
      </trkpt>
      <trkpt lat="42.10523" lon="0.70535">
        <ele>607</ele>
        <time>2022-05-23 10:20:08</time>
      </trkpt>
      <trkpt lat="42.10521" lon="0.70533">
        <ele>607</ele>
        <time>2022-05-23 10:20:09</time>
      </trkpt>
      <trkpt lat="42.1052" lon="0.7053">
        <ele>607.2</ele>
        <time>2022-05-23 10:20:10</time>
      </trkpt>
      <trkpt lat="42.10518" lon="0.70528">
        <ele>607.4</ele>
        <time>2022-05-23 10:20:11</time>
      </trkpt>
      <trkpt lat="42.10517" lon="0.70526">
        <ele>607.6</ele>
        <time>2022-05-23 10:20:12</time>
      </trkpt>
      <trkpt lat="42.10515" lon="0.70523">
        <ele>607.8</ele>
        <time>2022-05-23 10:20:13</time>
      </trkpt>
      <trkpt lat="42.10514" lon="0.70521">
        <ele>607.8</ele>
        <time>2022-05-23 10:20:14</time>
      </trkpt>
      <trkpt lat="42.10513" lon="0.70519">
        <ele>608</ele>
        <time>2022-05-23 10:20:15</time>
      </trkpt>
      <trkpt lat="42.10512" lon="0.70517">
        <ele>608.2</ele>
        <time>2022-05-23 10:20:16</time>
      </trkpt>
      <trkpt lat="42.10511" lon="0.70515">
        <ele>608.4</ele>
        <time>2022-05-23 10:20:17</time>
      </trkpt>
      <trkpt lat="42.1051" lon="0.70513">
        <ele>608.4</ele>
        <time>2022-05-23 10:20:18</time>
      </trkpt>
      <trkpt lat="42.10509" lon="0.70511">
        <ele>608.6</ele>
        <time>2022-05-23 10:20:19</time>
      </trkpt>
      <trkpt lat="42.10508" lon="0.70509">
        <ele>608.6</ele>
        <time>2022-05-23 10:20:20</time>
      </trkpt>
      <trkpt lat="42.10507" lon="0.70507">
        <ele>608.8</ele>
        <time>2022-05-23 10:20:21</time>
      </trkpt>
      <trkpt lat="42.10506" lon="0.70505">
        <ele>609</ele>
        <time>2022-05-23 10:20:22</time>
      </trkpt>
      <trkpt lat="42.10505" lon="0.70503">
        <ele>609</ele>
        <time>2022-05-23 10:20:23</time>
      </trkpt>
      <trkpt lat="42.10504" lon="0.70501">
        <ele>609.2</ele>
        <time>2022-05-23 10:20:24</time>
      </trkpt>
      <trkpt lat="42.10504" lon="0.70498">
        <ele>609.4</ele>
        <time>2022-05-23 10:20:25</time>
      </trkpt>
      <trkpt lat="42.10503" lon="0.70496">
        <ele>609.4</ele>
        <time>2022-05-23 10:20:26</time>
      </trkpt>
      <trkpt lat="42.10502" lon="0.70494">
        <ele>609.6</ele>
        <time>2022-05-23 10:20:27</time>
      </trkpt>
      <trkpt lat="42.10501" lon="0.70492">
        <ele>609.6</ele>
        <time>2022-05-23 10:20:28</time>
      </trkpt>
      <trkpt lat="42.10501" lon="0.7049">
        <ele>609.8</ele>
        <time>2022-05-23 10:20:29</time>
      </trkpt>
      <trkpt lat="42.105" lon="0.70488">
        <ele>610</ele>
        <time>2022-05-23 10:20:30</time>
      </trkpt>
      <trkpt lat="42.10498" lon="0.70486">
        <ele>610</ele>
        <time>2022-05-23 10:20:31</time>
      </trkpt>
      <trkpt lat="42.10498" lon="0.70484">
        <ele>610.2</ele>
        <time>2022-05-23 10:20:32</time>
      </trkpt>
      <trkpt lat="42.10497" lon="0.70482">
        <ele>610.2</ele>
        <time>2022-05-23 10:20:33</time>
      </trkpt>
      <trkpt lat="42.10497" lon="0.70479">
        <ele>610.4</ele>
        <time>2022-05-23 10:20:34</time>
      </trkpt>
      <trkpt lat="42.10497" lon="0.70477">
        <ele>610.4</ele>
        <time>2022-05-23 10:20:35</time>
      </trkpt>
      <trkpt lat="42.10497" lon="0.70474">
        <ele>610.6</ele>
        <time>2022-05-23 10:20:36</time>
      </trkpt>
      <trkpt lat="42.10496" lon="0.70471">
        <ele>610.6</ele>
        <time>2022-05-23 10:20:37</time>
      </trkpt>
      <trkpt lat="42.10496" lon="0.70468">
        <ele>610.8</ele>
        <time>2022-05-23 10:20:38</time>
      </trkpt>
      <trkpt lat="42.10495" lon="0.70466">
        <ele>611</ele>
        <time>2022-05-23 10:20:39</time>
      </trkpt>
      <trkpt lat="42.10495" lon="0.70463">
        <ele>611</ele>
        <time>2022-05-23 10:20:40</time>
      </trkpt>
      <trkpt lat="42.10495" lon="0.70461">
        <ele>611.2</ele>
        <time>2022-05-23 10:20:41</time>
      </trkpt>
      <trkpt lat="42.10495" lon="0.70458">
        <ele>611.4</ele>
        <time>2022-05-23 10:20:42</time>
      </trkpt>
      <trkpt lat="42.10495" lon="0.70456">
        <ele>611.6</ele>
        <time>2022-05-23 10:20:43</time>
      </trkpt>
      <trkpt lat="42.10495" lon="0.70453">
        <ele>611.6</ele>
        <time>2022-05-23 10:20:44</time>
      </trkpt>
      <trkpt lat="42.10495" lon="0.70451">
        <ele>611.8</ele>
        <time>2022-05-23 10:20:45</time>
      </trkpt>
      <trkpt lat="42.10495" lon="0.70448">
        <ele>612</ele>
        <time>2022-05-23 10:20:46</time>
      </trkpt>
      <trkpt lat="42.10495" lon="0.70446">
        <ele>612.2</ele>
        <time>2022-05-23 10:20:47</time>
      </trkpt>
      <trkpt lat="42.10495" lon="0.70443">
        <ele>612.2</ele>
        <time>2022-05-23 10:20:48</time>
      </trkpt>
      <trkpt lat="42.10494" lon="0.7044">
        <ele>612.4</ele>
        <time>2022-05-23 10:20:49</time>
      </trkpt>
      <trkpt lat="42.10494" lon="0.70438">
        <ele>612.6</ele>
        <time>2022-05-23 10:20:50</time>
      </trkpt>
      <trkpt lat="42.10494" lon="0.70435">
        <ele>612.6</ele>
        <time>2022-05-23 10:20:51</time>
      </trkpt>
      <trkpt lat="42.10494" lon="0.70432">
        <ele>612.8</ele>
        <time>2022-05-23 10:20:52</time>
      </trkpt>
      <trkpt lat="42.10494" lon="0.7043">
        <ele>612.8</ele>
        <time>2022-05-23 10:20:53</time>
      </trkpt>
      <trkpt lat="42.10495" lon="0.70427">
        <ele>612.8</ele>
        <time>2022-05-23 10:20:54</time>
      </trkpt>
      <trkpt lat="42.10495" lon="0.70425">
        <ele>613</ele>
        <time>2022-05-23 10:20:55</time>
      </trkpt>
      <trkpt lat="42.10495" lon="0.70422">
        <ele>613.2</ele>
        <time>2022-05-23 10:20:56</time>
      </trkpt>
      <trkpt lat="42.10494" lon="0.7042">
        <ele>613.4</ele>
        <time>2022-05-23 10:20:57</time>
      </trkpt>
      <trkpt lat="42.10494" lon="0.70418">
        <ele>613.4</ele>
        <time>2022-05-23 10:20:58</time>
      </trkpt>
      <trkpt lat="42.10494" lon="0.70415">
        <ele>613.6</ele>
        <time>2022-05-23 10:20:59</time>
      </trkpt>
      <trkpt lat="42.10493" lon="0.70413">
        <ele>613.8</ele>
        <time>2022-05-23 10:21:00</time>
      </trkpt>
      <trkpt lat="42.10493" lon="0.7041">
        <ele>613.8</ele>
        <time>2022-05-23 10:21:01</time>
      </trkpt>
      <trkpt lat="42.10492" lon="0.70408">
        <ele>614</ele>
        <time>2022-05-23 10:21:02</time>
      </trkpt>
      <trkpt lat="42.10492" lon="0.70405">
        <ele>614.2</ele>
        <time>2022-05-23 10:21:03</time>
      </trkpt>
      <trkpt lat="42.10492" lon="0.70403">
        <ele>614.4</ele>
        <time>2022-05-23 10:21:04</time>
      </trkpt>
      <trkpt lat="42.10491" lon="0.704">
        <ele>614.4</ele>
        <time>2022-05-23 10:21:05</time>
      </trkpt>
      <trkpt lat="42.1049" lon="0.70398">
        <ele>614.6</ele>
        <time>2022-05-23 10:21:06</time>
      </trkpt>
      <trkpt lat="42.10489" lon="0.70395">
        <ele>614.8</ele>
        <time>2022-05-23 10:21:07</time>
      </trkpt>
      <trkpt lat="42.10488" lon="0.70393">
        <ele>615</ele>
        <time>2022-05-23 10:21:08</time>
      </trkpt>
      <trkpt lat="42.10487" lon="0.7039">
        <ele>615</ele>
        <time>2022-05-23 10:21:09</time>
      </trkpt>
      <trkpt lat="42.10485" lon="0.70388">
        <ele>615.2</ele>
        <time>2022-05-23 10:21:10</time>
      </trkpt>
      <trkpt lat="42.10484" lon="0.70386">
        <ele>615.4</ele>
        <time>2022-05-23 10:21:11</time>
      </trkpt>
      <trkpt lat="42.10483" lon="0.70384">
        <ele>615.4</ele>
        <time>2022-05-23 10:21:12</time>
      </trkpt>
      <trkpt lat="42.10481" lon="0.70382">
        <ele>615.6</ele>
        <time>2022-05-23 10:21:13</time>
      </trkpt>
      <trkpt lat="42.1048" lon="0.7038">
        <ele>615.8</ele>
        <time>2022-05-23 10:21:14</time>
      </trkpt>
      <trkpt lat="42.10479" lon="0.70378">
        <ele>615.8</ele>
        <time>2022-05-23 10:21:15</time>
      </trkpt>
      <trkpt lat="42.10477" lon="0.70376">
        <ele>616</ele>
        <time>2022-05-23 10:21:16</time>
      </trkpt>
      <trkpt lat="42.10476" lon="0.70374">
        <ele>616</ele>
        <time>2022-05-23 10:21:17</time>
      </trkpt>
      <trkpt lat="42.10475" lon="0.70373">
        <ele>616.2</ele>
        <time>2022-05-23 10:21:18</time>
      </trkpt>
      <trkpt lat="42.10474" lon="0.7037">
        <ele>616.2</ele>
        <time>2022-05-23 10:21:19</time>
      </trkpt>
      <trkpt lat="42.10473" lon="0.70368">
        <ele>616.4</ele>
        <time>2022-05-23 10:21:20</time>
      </trkpt>
      <trkpt lat="42.10472" lon="0.70367">
        <ele>616.6</ele>
        <time>2022-05-23 10:21:21</time>
      </trkpt>
      <trkpt lat="42.1047" lon="0.70365">
        <ele>616.8</ele>
        <time>2022-05-23 10:21:22</time>
      </trkpt>
      <trkpt lat="42.10469" lon="0.70363">
        <ele>616.8</ele>
        <time>2022-05-23 10:21:23</time>
      </trkpt>
      <trkpt lat="42.10467" lon="0.70361">
        <ele>617</ele>
        <time>2022-05-23 10:21:24</time>
      </trkpt>
      <trkpt lat="42.10466" lon="0.70359">
        <ele>617.2</ele>
        <time>2022-05-23 10:21:25</time>
      </trkpt>
      <trkpt lat="42.10465" lon="0.70357">
        <ele>617.2</ele>
        <time>2022-05-23 10:21:26</time>
      </trkpt>
      <trkpt lat="42.10464" lon="0.70355">
        <ele>617.2</ele>
        <time>2022-05-23 10:21:27</time>
      </trkpt>
      <trkpt lat="42.10463" lon="0.70353">
        <ele>617.4</ele>
        <time>2022-05-23 10:21:28</time>
      </trkpt>
      <trkpt lat="42.10462" lon="0.70351">
        <ele>617.4</ele>
        <time>2022-05-23 10:21:29</time>
      </trkpt>
      <trkpt lat="42.1046" lon="0.7035">
        <ele>617.6</ele>
        <time>2022-05-23 10:21:30</time>
      </trkpt>
      <trkpt lat="42.10458" lon="0.70348">
        <ele>617.6</ele>
        <time>2022-05-23 10:21:31</time>
      </trkpt>
      <trkpt lat="42.10457" lon="0.70347">
        <ele>617.8</ele>
        <time>2022-05-23 10:21:32</time>
      </trkpt>
      <trkpt lat="42.10455" lon="0.70345">
        <ele>617.8</ele>
        <time>2022-05-23 10:21:33</time>
      </trkpt>
      <trkpt lat="42.10454" lon="0.70343">
        <ele>618</ele>
        <time>2022-05-23 10:21:34</time>
      </trkpt>
      <trkpt lat="42.10453" lon="0.70341">
        <ele>618.2</ele>
        <time>2022-05-23 10:21:35</time>
      </trkpt>
      <trkpt lat="42.10452" lon="0.70339">
        <ele>618.4</ele>
        <time>2022-05-23 10:21:36</time>
      </trkpt>
      <trkpt lat="42.10451" lon="0.70337">
        <ele>618.4</ele>
        <time>2022-05-23 10:21:37</time>
      </trkpt>
      <trkpt lat="42.1045" lon="0.70334">
        <ele>618.6</ele>
        <time>2022-05-23 10:21:38</time>
      </trkpt>
      <trkpt lat="42.10448" lon="0.70333">
        <ele>618.6</ele>
        <time>2022-05-23 10:21:39</time>
      </trkpt>
      <trkpt lat="42.10447" lon="0.70331">
        <ele>618.6</ele>
        <time>2022-05-23 10:21:40</time>
      </trkpt>
      <trkpt lat="42.10446" lon="0.70329">
        <ele>618.6</ele>
        <time>2022-05-23 10:21:41</time>
      </trkpt>
      <trkpt lat="42.10444" lon="0.70327">
        <ele>618.6</ele>
        <time>2022-05-23 10:21:42</time>
      </trkpt>
      <trkpt lat="42.10443" lon="0.70325">
        <ele>618.8</ele>
        <time>2022-05-23 10:21:43</time>
      </trkpt>
      <trkpt lat="42.10442" lon="0.70322">
        <ele>618.8</ele>
        <time>2022-05-23 10:21:44</time>
      </trkpt>
      <trkpt lat="42.10441" lon="0.7032">
        <ele>618.8</ele>
        <time>2022-05-23 10:21:45</time>
      </trkpt>
      <trkpt lat="42.1044" lon="0.70317">
        <ele>618.8</ele>
        <time>2022-05-23 10:21:46</time>
      </trkpt>
      <trkpt lat="42.10438" lon="0.70314">
        <ele>618.8</ele>
        <time>2022-05-23 10:21:47</time>
      </trkpt>
      <trkpt lat="42.10437" lon="0.7031">
        <ele>618.6</ele>
        <time>2022-05-23 10:21:48</time>
      </trkpt>
      <trkpt lat="42.10435" lon="0.70306">
        <ele>618.4</ele>
        <time>2022-05-23 10:21:49</time>
      </trkpt>
      <trkpt lat="42.10433" lon="0.70302">
        <ele>618.2</ele>
        <time>2022-05-23 10:21:50</time>
      </trkpt>
      <trkpt lat="42.10431" lon="0.70296">
        <ele>617.8</ele>
        <time>2022-05-23 10:21:51</time>
      </trkpt>
      <trkpt lat="42.1043" lon="0.7029">
        <ele>617.4</ele>
        <time>2022-05-23 10:21:52</time>
      </trkpt>
      <trkpt lat="42.10428" lon="0.70283">
        <ele>617</ele>
        <time>2022-05-23 10:21:53</time>
      </trkpt>
      <trkpt lat="42.10426" lon="0.70276">
        <ele>616.6</ele>
        <time>2022-05-23 10:21:54</time>
      </trkpt>
      <trkpt lat="42.10425" lon="0.70267">
        <ele>616</ele>
        <time>2022-05-23 10:21:55</time>
      </trkpt>
      <trkpt lat="42.10424" lon="0.70258">
        <ele>615.4</ele>
        <time>2022-05-23 10:21:56</time>
      </trkpt>
      <trkpt lat="42.10424" lon="0.70248">
        <ele>615</ele>
        <time>2022-05-23 10:21:57</time>
      </trkpt>
      <trkpt lat="42.10425" lon="0.70237">
        <ele>614.4</ele>
        <time>2022-05-23 10:21:58</time>
      </trkpt>
      <trkpt lat="42.10426" lon="0.70226">
        <ele>613.6</ele>
        <time>2022-05-23 10:21:59</time>
      </trkpt>
      <trkpt lat="42.10429" lon="0.70215">
        <ele>613</ele>
        <time>2022-05-23 10:22:00</time>
      </trkpt>
      <trkpt lat="42.10431" lon="0.70203">
        <ele>612.4</ele>
        <time>2022-05-23 10:22:01</time>
      </trkpt>
      <trkpt lat="42.10434" lon="0.7019">
        <ele>611.6</ele>
        <time>2022-05-23 10:22:02</time>
      </trkpt>
      <trkpt lat="42.10437" lon="0.70176">
        <ele>610.6</ele>
        <time>2022-05-23 10:22:03</time>
      </trkpt>
      <trkpt lat="42.1044" lon="0.70162">
        <ele>609.8</ele>
        <time>2022-05-23 10:22:04</time>
      </trkpt>
      <trkpt lat="42.10443" lon="0.70148">
        <ele>609.2</ele>
        <time>2022-05-23 10:22:05</time>
      </trkpt>
      <trkpt lat="42.10445" lon="0.70136">
        <ele>608.6</ele>
        <time>2022-05-23 10:22:06</time>
      </trkpt>
      <trkpt lat="42.10447" lon="0.70123">
        <ele>607.8</ele>
        <time>2022-05-23 10:22:07</time>
      </trkpt>
      <trkpt lat="42.10447" lon="0.70111">
        <ele>607.2</ele>
        <time>2022-05-23 10:22:08</time>
      </trkpt>
      <trkpt lat="42.10444" lon="0.70101">
        <ele>606.6</ele>
        <time>2022-05-23 10:22:09</time>
      </trkpt>
      <trkpt lat="42.1044" lon="0.70092">
        <ele>606</ele>
        <time>2022-05-23 10:22:10</time>
      </trkpt>
      <trkpt lat="42.10434" lon="0.70085">
        <ele>605.6</ele>
        <time>2022-05-23 10:22:11</time>
      </trkpt>
      <trkpt lat="42.10427" lon="0.70078">
        <ele>604.8</ele>
        <time>2022-05-23 10:22:12</time>
      </trkpt>
      <trkpt lat="42.1042" lon="0.70073">
        <ele>604</ele>
        <time>2022-05-23 10:22:13</time>
      </trkpt>
      <trkpt lat="42.10412" lon="0.70068">
        <ele>603.4</ele>
        <time>2022-05-23 10:22:14</time>
      </trkpt>
      <trkpt lat="42.10403" lon="0.70063">
        <ele>602.8</ele>
        <time>2022-05-23 10:22:15</time>
      </trkpt>
      <trkpt lat="42.10394" lon="0.70058">
        <ele>602.2</ele>
        <time>2022-05-23 10:22:16</time>
      </trkpt>
      <trkpt lat="42.10385" lon="0.70052">
        <ele>601.4</ele>
        <time>2022-05-23 10:22:17</time>
      </trkpt>
      <trkpt lat="42.10375" lon="0.70046">
        <ele>600.8</ele>
        <time>2022-05-23 10:22:18</time>
      </trkpt>
      <trkpt lat="42.10366" lon="0.70039">
        <ele>600.2</ele>
        <time>2022-05-23 10:22:19</time>
      </trkpt>
      <trkpt lat="42.10358" lon="0.70031">
        <ele>599.6</ele>
        <time>2022-05-23 10:22:20</time>
      </trkpt>
      <trkpt lat="42.1035" lon="0.70023">
        <ele>598.8</ele>
        <time>2022-05-23 10:22:21</time>
      </trkpt>
      <trkpt lat="42.10342" lon="0.70014">
        <ele>598.4</ele>
        <time>2022-05-23 10:22:22</time>
      </trkpt>
      <trkpt lat="42.10334" lon="0.70006">
        <ele>597.8</ele>
        <time>2022-05-23 10:22:23</time>
      </trkpt>
      <trkpt lat="42.10327" lon="0.69997">
        <ele>597.2</ele>
        <time>2022-05-23 10:22:24</time>
      </trkpt>
      <trkpt lat="42.1032" lon="0.6999">
        <ele>596.8</ele>
        <time>2022-05-23 10:22:25</time>
      </trkpt>
      <trkpt lat="42.10313" lon="0.69982">
        <ele>596.6</ele>
        <time>2022-05-23 10:22:26</time>
      </trkpt>
      <trkpt lat="42.10306" lon="0.69974">
        <ele>596.4</ele>
        <time>2022-05-23 10:22:27</time>
      </trkpt>
      <trkpt lat="42.10301" lon="0.69969">
        <ele>596.4</ele>
        <time>2022-05-23 10:22:28</time>
      </trkpt>
      <trkpt lat="42.10292" lon="0.69961">
        <ele>596.4</ele>
        <time>2022-05-23 10:22:29</time>
      </trkpt>
      <trkpt lat="42.10286" lon="0.69954">
        <ele>596.4</ele>
        <time>2022-05-23 10:22:30</time>
      </trkpt>
      <trkpt lat="42.1028" lon="0.69947">
        <ele>596.4</ele>
        <time>2022-05-23 10:22:31</time>
      </trkpt>
      <trkpt lat="42.10274" lon="0.69941">
        <ele>596.4</ele>
        <time>2022-05-23 10:22:32</time>
      </trkpt>
      <trkpt lat="42.10268" lon="0.69934">
        <ele>596.4</ele>
        <time>2022-05-23 10:22:33</time>
      </trkpt>
      <trkpt lat="42.10263" lon="0.69928">
        <ele>596.4</ele>
        <time>2022-05-23 10:22:34</time>
      </trkpt>
      <trkpt lat="42.10258" lon="0.69922">
        <ele>596.6</ele>
        <time>2022-05-23 10:22:35</time>
      </trkpt>
      <trkpt lat="42.10253" lon="0.69916">
        <ele>596.6</ele>
        <time>2022-05-23 10:22:36</time>
      </trkpt>
      <trkpt lat="42.1025" lon="0.69911">
        <ele>596.8</ele>
        <time>2022-05-23 10:22:37</time>
      </trkpt>
      <trkpt lat="42.10246" lon="0.69906">
        <ele>597</ele>
        <time>2022-05-23 10:22:38</time>
      </trkpt>
      <trkpt lat="42.10243" lon="0.69901">
        <ele>597.2</ele>
        <time>2022-05-23 10:22:39</time>
      </trkpt>
      <trkpt lat="42.1024" lon="0.69897">
        <ele>597.4</ele>
        <time>2022-05-23 10:22:40</time>
      </trkpt>
      <trkpt lat="42.10238" lon="0.69893">
        <ele>597.6</ele>
        <time>2022-05-23 10:22:41</time>
      </trkpt>
      <trkpt lat="42.10236" lon="0.6989">
        <ele>597.8</ele>
        <time>2022-05-23 10:22:42</time>
      </trkpt>
      <trkpt lat="42.10234" lon="0.69887">
        <ele>598</ele>
        <time>2022-05-23 10:22:43</time>
      </trkpt>
      <trkpt lat="42.10232" lon="0.69884">
        <ele>598.2</ele>
        <time>2022-05-23 10:22:44</time>
      </trkpt>
      <trkpt lat="42.10231" lon="0.69881">
        <ele>598.4</ele>
        <time>2022-05-23 10:22:45</time>
      </trkpt>
      <trkpt lat="42.10229" lon="0.69878">
        <ele>598.6</ele>
        <time>2022-05-23 10:22:46</time>
      </trkpt>
      <trkpt lat="42.10228" lon="0.69876">
        <ele>598.8</ele>
        <time>2022-05-23 10:22:47</time>
      </trkpt>
      <trkpt lat="42.10226" lon="0.69873">
        <ele>599</ele>
        <time>2022-05-23 10:22:48</time>
      </trkpt>
      <trkpt lat="42.10225" lon="0.6987">
        <ele>599.2</ele>
        <time>2022-05-23 10:22:49</time>
      </trkpt>
      <trkpt lat="42.10224" lon="0.69867">
        <ele>599.4</ele>
        <time>2022-05-23 10:22:50</time>
      </trkpt>
      <trkpt lat="42.10223" lon="0.69865">
        <ele>599.6</ele>
        <time>2022-05-23 10:22:51</time>
      </trkpt>
      <trkpt lat="42.10221" lon="0.69862">
        <ele>599.8</ele>
        <time>2022-05-23 10:22:52</time>
      </trkpt>
      <trkpt lat="42.1022" lon="0.69859">
        <ele>600</ele>
        <time>2022-05-23 10:22:53</time>
      </trkpt>
      <trkpt lat="42.10219" lon="0.69857">
        <ele>600.2</ele>
        <time>2022-05-23 10:22:54</time>
      </trkpt>
      <trkpt lat="42.10218" lon="0.69854">
        <ele>600.4</ele>
        <time>2022-05-23 10:22:55</time>
      </trkpt>
      <trkpt lat="42.10217" lon="0.69851">
        <ele>600.4</ele>
        <time>2022-05-23 10:22:56</time>
      </trkpt>
      <trkpt lat="42.10216" lon="0.69849">
        <ele>600.6</ele>
        <time>2022-05-23 10:22:57</time>
      </trkpt>
      <trkpt lat="42.10215" lon="0.69846">
        <ele>600.8</ele>
        <time>2022-05-23 10:22:58</time>
      </trkpt>
      <trkpt lat="42.10214" lon="0.69844">
        <ele>601</ele>
        <time>2022-05-23 10:22:59</time>
      </trkpt>
      <trkpt lat="42.10213" lon="0.69841">
        <ele>601.2</ele>
        <time>2022-05-23 10:23:00</time>
      </trkpt>
      <trkpt lat="42.10212" lon="0.69839">
        <ele>601.4</ele>
        <time>2022-05-23 10:23:01</time>
      </trkpt>
      <trkpt lat="42.10211" lon="0.69837">
        <ele>601.6</ele>
        <time>2022-05-23 10:23:02</time>
      </trkpt>
      <trkpt lat="42.1021" lon="0.69835">
        <ele>601.8</ele>
        <time>2022-05-23 10:23:03</time>
      </trkpt>
      <trkpt lat="42.1021" lon="0.69833">
        <ele>602</ele>
        <time>2022-05-23 10:23:04</time>
      </trkpt>
      <trkpt lat="42.10208" lon="0.69831">
        <ele>602.2</ele>
        <time>2022-05-23 10:23:05</time>
      </trkpt>
      <trkpt lat="42.10207" lon="0.69829">
        <ele>602.4</ele>
        <time>2022-05-23 10:23:06</time>
      </trkpt>
      <trkpt lat="42.10207" lon="0.69827">
        <ele>602.6</ele>
        <time>2022-05-23 10:23:07</time>
      </trkpt>
      <trkpt lat="42.10207" lon="0.69825">
        <ele>602.8</ele>
        <time>2022-05-23 10:23:08</time>
      </trkpt>
      <trkpt lat="42.10207" lon="0.69822">
        <ele>602.8</ele>
        <time>2022-05-23 10:23:09</time>
      </trkpt>
      <trkpt lat="42.10206" lon="0.6982">
        <ele>603</ele>
        <time>2022-05-23 10:23:10</time>
      </trkpt>
      <trkpt lat="42.10205" lon="0.69818">
        <ele>603.2</ele>
        <time>2022-05-23 10:23:11</time>
      </trkpt>
      <trkpt lat="42.10204" lon="0.69815">
        <ele>603.4</ele>
        <time>2022-05-23 10:23:12</time>
      </trkpt>
      <trkpt lat="42.10204" lon="0.69813">
        <ele>603.4</ele>
        <time>2022-05-23 10:23:13</time>
      </trkpt>
      <trkpt lat="42.10203" lon="0.6981">
        <ele>603.6</ele>
        <time>2022-05-23 10:23:14</time>
      </trkpt>
      <trkpt lat="42.10202" lon="0.69808">
        <ele>603.8</ele>
        <time>2022-05-23 10:23:15</time>
      </trkpt>
      <trkpt lat="42.10201" lon="0.69806">
        <ele>604</ele>
        <time>2022-05-23 10:23:16</time>
      </trkpt>
      <trkpt lat="42.102" lon="0.69803">
        <ele>604.2</ele>
        <time>2022-05-23 10:23:17</time>
      </trkpt>
      <trkpt lat="42.10199" lon="0.69801">
        <ele>604.4</ele>
        <time>2022-05-23 10:23:18</time>
      </trkpt>
      <trkpt lat="42.10198" lon="0.69799">
        <ele>604.6</ele>
        <time>2022-05-23 10:23:19</time>
      </trkpt>
      <trkpt lat="42.10197" lon="0.69797">
        <ele>604.8</ele>
        <time>2022-05-23 10:23:20</time>
      </trkpt>
      <trkpt lat="42.10195" lon="0.69795">
        <ele>605</ele>
        <time>2022-05-23 10:23:21</time>
      </trkpt>
      <trkpt lat="42.10194" lon="0.69792">
        <ele>605.2</ele>
        <time>2022-05-23 10:23:22</time>
      </trkpt>
      <trkpt lat="42.10194" lon="0.6979">
        <ele>605.4</ele>
        <time>2022-05-23 10:23:23</time>
      </trkpt>
      <trkpt lat="42.10193" lon="0.69787">
        <ele>605.6</ele>
        <time>2022-05-23 10:23:24</time>
      </trkpt>
      <trkpt lat="42.10192" lon="0.69785">
        <ele>605.8</ele>
        <time>2022-05-23 10:23:25</time>
      </trkpt>
      <trkpt lat="42.10191" lon="0.69783">
        <ele>606</ele>
        <time>2022-05-23 10:23:26</time>
      </trkpt>
      <trkpt lat="42.1019" lon="0.69781">
        <ele>606.2</ele>
        <time>2022-05-23 10:23:27</time>
      </trkpt>
      <trkpt lat="42.1019" lon="0.69778">
        <ele>606.4</ele>
        <time>2022-05-23 10:23:28</time>
      </trkpt>
      <trkpt lat="42.10189" lon="0.69776">
        <ele>606.6</ele>
        <time>2022-05-23 10:23:29</time>
      </trkpt>
      <trkpt lat="42.10188" lon="0.69773">
        <ele>606.8</ele>
        <time>2022-05-23 10:23:30</time>
      </trkpt>
      <trkpt lat="42.10187" lon="0.69771">
        <ele>607</ele>
        <time>2022-05-23 10:23:31</time>
      </trkpt>
      <trkpt lat="42.10187" lon="0.69769">
        <ele>607.2</ele>
        <time>2022-05-23 10:23:32</time>
      </trkpt>
      <trkpt lat="42.10186" lon="0.69767">
        <ele>607.4</ele>
        <time>2022-05-23 10:23:33</time>
      </trkpt>
      <trkpt lat="42.10185" lon="0.69764">
        <ele>607.6</ele>
        <time>2022-05-23 10:23:34</time>
      </trkpt>
      <trkpt lat="42.10184" lon="0.69762">
        <ele>607.6</ele>
        <time>2022-05-23 10:23:35</time>
      </trkpt>
      <trkpt lat="42.10184" lon="0.69759">
        <ele>607.8</ele>
        <time>2022-05-23 10:23:36</time>
      </trkpt>
      <trkpt lat="42.10183" lon="0.69757">
        <ele>608</ele>
        <time>2022-05-23 10:23:37</time>
      </trkpt>
      <trkpt lat="42.10182" lon="0.69754">
        <ele>608.2</ele>
        <time>2022-05-23 10:23:38</time>
      </trkpt>
      <trkpt lat="42.10182" lon="0.69752">
        <ele>608.2</ele>
        <time>2022-05-23 10:23:39</time>
      </trkpt>
      <trkpt lat="42.10181" lon="0.6975">
        <ele>608.4</ele>
        <time>2022-05-23 10:23:40</time>
      </trkpt>
      <trkpt lat="42.1018" lon="0.69747">
        <ele>608.6</ele>
        <time>2022-05-23 10:23:41</time>
      </trkpt>
      <trkpt lat="42.1018" lon="0.69745">
        <ele>608.8</ele>
        <time>2022-05-23 10:23:42</time>
      </trkpt>
      <trkpt lat="42.10179" lon="0.69743">
        <ele>608.8</ele>
        <time>2022-05-23 10:23:43</time>
      </trkpt>
      <trkpt lat="42.10178" lon="0.69741">
        <ele>609</ele>
        <time>2022-05-23 10:23:44</time>
      </trkpt>
      <trkpt lat="42.10178" lon="0.69739">
        <ele>609.2</ele>
        <time>2022-05-23 10:23:45</time>
      </trkpt>
      <trkpt lat="42.10177" lon="0.69737">
        <ele>609.4</ele>
        <time>2022-05-23 10:23:46</time>
      </trkpt>
      <trkpt lat="42.10176" lon="0.69735">
        <ele>609.6</ele>
        <time>2022-05-23 10:23:47</time>
      </trkpt>
      <trkpt lat="42.10175" lon="0.69733">
        <ele>609.8</ele>
        <time>2022-05-23 10:23:48</time>
      </trkpt>
      <trkpt lat="42.10174" lon="0.69731">
        <ele>610</ele>
        <time>2022-05-23 10:23:49</time>
      </trkpt>
      <trkpt lat="42.10173" lon="0.69729">
        <ele>610</ele>
        <time>2022-05-23 10:23:50</time>
      </trkpt>
      <trkpt lat="42.10171" lon="0.69727">
        <ele>610.2</ele>
        <time>2022-05-23 10:23:51</time>
      </trkpt>
      <trkpt lat="42.10171" lon="0.69725">
        <ele>610.4</ele>
        <time>2022-05-23 10:23:52</time>
      </trkpt>
      <trkpt lat="42.1017" lon="0.69723">
        <ele>610.6</ele>
        <time>2022-05-23 10:23:53</time>
      </trkpt>
      <trkpt lat="42.10169" lon="0.69721">
        <ele>610.8</ele>
        <time>2022-05-23 10:23:54</time>
      </trkpt>
      <trkpt lat="42.10169" lon="0.69719">
        <ele>611</ele>
        <time>2022-05-23 10:23:55</time>
      </trkpt>
      <trkpt lat="42.10168" lon="0.69717">
        <ele>611.2</ele>
        <time>2022-05-23 10:23:56</time>
      </trkpt>
      <trkpt lat="42.10167" lon="0.69715">
        <ele>611.4</ele>
        <time>2022-05-23 10:23:57</time>
      </trkpt>
      <trkpt lat="42.10165" lon="0.69713">
        <ele>611.6</ele>
        <time>2022-05-23 10:23:58</time>
      </trkpt>
      <trkpt lat="42.10164" lon="0.69712">
        <ele>611.8</ele>
        <time>2022-05-23 10:23:59</time>
      </trkpt>
      <trkpt lat="42.10163" lon="0.6971">
        <ele>611.8</ele>
        <time>2022-05-23 10:24:00</time>
      </trkpt>
      <trkpt lat="42.10162" lon="0.69708">
        <ele>612</ele>
        <time>2022-05-23 10:24:01</time>
      </trkpt>
      <trkpt lat="42.1016" lon="0.69706">
        <ele>612.2</ele>
        <time>2022-05-23 10:24:02</time>
      </trkpt>
      <trkpt lat="42.10159" lon="0.69705">
        <ele>612.4</ele>
        <time>2022-05-23 10:24:03</time>
      </trkpt>
      <trkpt lat="42.10158" lon="0.69703">
        <ele>612.6</ele>
        <time>2022-05-23 10:24:04</time>
      </trkpt>
      <trkpt lat="42.10156" lon="0.69702">
        <ele>612.8</ele>
        <time>2022-05-23 10:24:05</time>
      </trkpt>
      <trkpt lat="42.10155" lon="0.697">
        <ele>613</ele>
        <time>2022-05-23 10:24:06</time>
      </trkpt>
      <trkpt lat="42.10154" lon="0.69699">
        <ele>613</ele>
        <time>2022-05-23 10:24:07</time>
      </trkpt>
      <trkpt lat="42.10152" lon="0.69697">
        <ele>613.2</ele>
        <time>2022-05-23 10:24:08</time>
      </trkpt>
      <trkpt lat="42.10151" lon="0.69696">
        <ele>613.2</ele>
        <time>2022-05-23 10:24:09</time>
      </trkpt>
      <trkpt lat="42.10149" lon="0.69694">
        <ele>613.2</ele>
        <time>2022-05-23 10:24:10</time>
      </trkpt>
      <trkpt lat="42.10148" lon="0.69693">
        <ele>613.4</ele>
        <time>2022-05-23 10:24:11</time>
      </trkpt>
      <trkpt lat="42.10147" lon="0.69691">
        <ele>613.6</ele>
        <time>2022-05-23 10:24:12</time>
      </trkpt>
      <trkpt lat="42.10146" lon="0.6969">
        <ele>613.8</ele>
        <time>2022-05-23 10:24:13</time>
      </trkpt>
      <trkpt lat="42.10145" lon="0.69688">
        <ele>613.8</ele>
        <time>2022-05-23 10:24:14</time>
      </trkpt>
      <trkpt lat="42.10143" lon="0.69687">
        <ele>614</ele>
        <time>2022-05-23 10:24:15</time>
      </trkpt>
      <trkpt lat="42.10142" lon="0.69686">
        <ele>614.2</ele>
        <time>2022-05-23 10:24:16</time>
      </trkpt>
      <trkpt lat="42.1014" lon="0.69686">
        <ele>614.4</ele>
        <time>2022-05-23 10:24:17</time>
      </trkpt>
      <trkpt lat="42.10138" lon="0.69685">
        <ele>614.4</ele>
        <time>2022-05-23 10:24:18</time>
      </trkpt>
      <trkpt lat="42.10137" lon="0.69684">
        <ele>614.6</ele>
        <time>2022-05-23 10:24:19</time>
      </trkpt>
      <trkpt lat="42.10135" lon="0.69683">
        <ele>614.8</ele>
        <time>2022-05-23 10:24:20</time>
      </trkpt>
      <trkpt lat="42.10133" lon="0.69682">
        <ele>614.8</ele>
        <time>2022-05-23 10:24:21</time>
      </trkpt>
      <trkpt lat="42.10132" lon="0.69682">
        <ele>615</ele>
        <time>2022-05-23 10:24:22</time>
      </trkpt>
      <trkpt lat="42.1013" lon="0.69681">
        <ele>615.2</ele>
        <time>2022-05-23 10:24:23</time>
      </trkpt>
      <trkpt lat="42.10128" lon="0.69681">
        <ele>615.4</ele>
        <time>2022-05-23 10:24:24</time>
      </trkpt>
      <trkpt lat="42.10126" lon="0.69681">
        <ele>615.6</ele>
        <time>2022-05-23 10:24:25</time>
      </trkpt>
      <trkpt lat="42.10124" lon="0.69681">
        <ele>615.6</ele>
        <time>2022-05-23 10:24:26</time>
      </trkpt>
      <trkpt lat="42.10122" lon="0.69681">
        <ele>615.8</ele>
        <time>2022-05-23 10:24:27</time>
      </trkpt>
      <trkpt lat="42.1012" lon="0.69682">
        <ele>616</ele>
        <time>2022-05-23 10:24:28</time>
      </trkpt>
      <trkpt lat="42.10118" lon="0.69682">
        <ele>616</ele>
        <time>2022-05-23 10:24:29</time>
      </trkpt>
      <trkpt lat="42.10116" lon="0.69683">
        <ele>616.2</ele>
        <time>2022-05-23 10:24:30</time>
      </trkpt>
      <trkpt lat="42.10115" lon="0.69683">
        <ele>616.4</ele>
        <time>2022-05-23 10:24:31</time>
      </trkpt>
      <trkpt lat="42.10113" lon="0.69684">
        <ele>616.4</ele>
        <time>2022-05-23 10:24:32</time>
      </trkpt>
      <trkpt lat="42.10111" lon="0.69684">
        <ele>616.6</ele>
        <time>2022-05-23 10:24:33</time>
      </trkpt>
      <trkpt lat="42.10109" lon="0.69685">
        <ele>616.8</ele>
        <time>2022-05-23 10:24:34</time>
      </trkpt>
      <trkpt lat="42.10107" lon="0.69686">
        <ele>616.8</ele>
        <time>2022-05-23 10:24:35</time>
      </trkpt>
      <trkpt lat="42.10106" lon="0.69686">
        <ele>617</ele>
        <time>2022-05-23 10:24:36</time>
      </trkpt>
      <trkpt lat="42.10104" lon="0.69687">
        <ele>617.2</ele>
        <time>2022-05-23 10:24:37</time>
      </trkpt>
      <trkpt lat="42.10102" lon="0.69687">
        <ele>617.2</ele>
        <time>2022-05-23 10:24:38</time>
      </trkpt>
      <trkpt lat="42.101" lon="0.69688">
        <ele>617.4</ele>
        <time>2022-05-23 10:24:39</time>
      </trkpt>
      <trkpt lat="42.10099" lon="0.69689">
        <ele>617.6</ele>
        <time>2022-05-23 10:24:40</time>
      </trkpt>
      <trkpt lat="42.10097" lon="0.69689">
        <ele>617.8</ele>
        <time>2022-05-23 10:24:41</time>
      </trkpt>
      <trkpt lat="42.10096" lon="0.6969">
        <ele>617.8</ele>
        <time>2022-05-23 10:24:42</time>
      </trkpt>
      <trkpt lat="42.10094" lon="0.69691">
        <ele>618</ele>
        <time>2022-05-23 10:24:43</time>
      </trkpt>
      <trkpt lat="42.10093" lon="0.69692">
        <ele>618.2</ele>
        <time>2022-05-23 10:24:44</time>
      </trkpt>
      <trkpt lat="42.10091" lon="0.69693">
        <ele>618.2</ele>
        <time>2022-05-23 10:24:45</time>
      </trkpt>
      <trkpt lat="42.1009" lon="0.69693">
        <ele>618.4</ele>
        <time>2022-05-23 10:24:46</time>
      </trkpt>
      <trkpt lat="42.10088" lon="0.69694">
        <ele>618.6</ele>
        <time>2022-05-23 10:24:47</time>
      </trkpt>
      <trkpt lat="42.10087" lon="0.69694">
        <ele>618.6</ele>
        <time>2022-05-23 10:24:48</time>
      </trkpt>
      <trkpt lat="42.10085" lon="0.69695">
        <ele>618.8</ele>
        <time>2022-05-23 10:24:49</time>
      </trkpt>
      <trkpt lat="42.10083" lon="0.69696">
        <ele>619</ele>
        <time>2022-05-23 10:24:50</time>
      </trkpt>
      <trkpt lat="42.10082" lon="0.69697">
        <ele>619.2</ele>
        <time>2022-05-23 10:24:51</time>
      </trkpt>
      <trkpt lat="42.1008" lon="0.69698">
        <ele>619.4</ele>
        <time>2022-05-23 10:24:52</time>
      </trkpt>
      <trkpt lat="42.10079" lon="0.69698">
        <ele>619.6</ele>
        <time>2022-05-23 10:24:53</time>
      </trkpt>
      <trkpt lat="42.10077" lon="0.69699">
        <ele>619.8</ele>
        <time>2022-05-23 10:24:54</time>
      </trkpt>
      <trkpt lat="42.10076" lon="0.697">
        <ele>620</ele>
        <time>2022-05-23 10:24:55</time>
      </trkpt>
      <trkpt lat="42.10074" lon="0.69701">
        <ele>620.2</ele>
        <time>2022-05-23 10:24:56</time>
      </trkpt>
      <trkpt lat="42.10073" lon="0.69702">
        <ele>620.4</ele>
        <time>2022-05-23 10:24:57</time>
      </trkpt>
      <trkpt lat="42.10072" lon="0.69702">
        <ele>620.6</ele>
        <time>2022-05-23 10:24:58</time>
      </trkpt>
      <trkpt lat="42.1007" lon="0.69703">
        <ele>620.8</ele>
        <time>2022-05-23 10:24:59</time>
      </trkpt>
      <trkpt lat="42.10069" lon="0.69704">
        <ele>620.8</ele>
        <time>2022-05-23 10:25:00</time>
      </trkpt>
      <trkpt lat="42.10067" lon="0.69705">
        <ele>621.2</ele>
        <time>2022-05-23 10:25:01</time>
      </trkpt>
      <trkpt lat="42.10066" lon="0.69706">
        <ele>621.2</ele>
        <time>2022-05-23 10:25:02</time>
      </trkpt>
      <trkpt lat="42.10064" lon="0.69708">
        <ele>621.6</ele>
        <time>2022-05-23 10:25:03</time>
      </trkpt>
      <trkpt lat="42.10063" lon="0.69709">
        <ele>621.8</ele>
        <time>2022-05-23 10:25:04</time>
      </trkpt>
      <trkpt lat="42.10062" lon="0.69709">
        <ele>622</ele>
        <time>2022-05-23 10:25:05</time>
      </trkpt>
      <trkpt lat="42.1006" lon="0.6971">
        <ele>622.2</ele>
        <time>2022-05-23 10:25:06</time>
      </trkpt>
      <trkpt lat="42.10059" lon="0.6971">
        <ele>622.4</ele>
        <time>2022-05-23 10:25:07</time>
      </trkpt>
      <trkpt lat="42.10057" lon="0.69711">
        <ele>622.6</ele>
        <time>2022-05-23 10:25:08</time>
      </trkpt>
      <trkpt lat="42.10056" lon="0.69712">
        <ele>622.8</ele>
        <time>2022-05-23 10:25:09</time>
      </trkpt>
      <trkpt lat="42.10055" lon="0.69713">
        <ele>623</ele>
        <time>2022-05-23 10:25:10</time>
      </trkpt>
      <trkpt lat="42.10053" lon="0.69714">
        <ele>623.2</ele>
        <time>2022-05-23 10:25:11</time>
      </trkpt>
      <trkpt lat="42.10052" lon="0.69715">
        <ele>623.4</ele>
        <time>2022-05-23 10:25:12</time>
      </trkpt>
      <trkpt lat="42.10051" lon="0.69715">
        <ele>623.6</ele>
        <time>2022-05-23 10:25:13</time>
      </trkpt>
      <trkpt lat="42.10049" lon="0.69716">
        <ele>623.8</ele>
        <time>2022-05-23 10:25:14</time>
      </trkpt>
      <trkpt lat="42.10047" lon="0.69717">
        <ele>624</ele>
        <time>2022-05-23 10:25:15</time>
      </trkpt>
      <trkpt lat="42.10046" lon="0.69717">
        <ele>624.2</ele>
        <time>2022-05-23 10:25:16</time>
      </trkpt>
      <trkpt lat="42.10045" lon="0.69718">
        <ele>624.2</ele>
        <time>2022-05-23 10:25:17</time>
      </trkpt>
      <trkpt lat="42.10043" lon="0.69719">
        <ele>624.4</ele>
        <time>2022-05-23 10:25:18</time>
      </trkpt>
      <trkpt lat="42.10042" lon="0.69719">
        <ele>624.6</ele>
        <time>2022-05-23 10:25:19</time>
      </trkpt>
      <trkpt lat="42.10041" lon="0.69719">
        <ele>624.8</ele>
        <time>2022-05-23 10:25:20</time>
      </trkpt>
      <trkpt lat="42.10039" lon="0.6972">
        <ele>625</ele>
        <time>2022-05-23 10:25:21</time>
      </trkpt>
      <trkpt lat="42.10038" lon="0.69721">
        <ele>625.2</ele>
        <time>2022-05-23 10:25:22</time>
      </trkpt>
      <trkpt lat="42.10036" lon="0.69722">
        <ele>625.4</ele>
        <time>2022-05-23 10:25:23</time>
      </trkpt>
      <trkpt lat="42.10035" lon="0.69722">
        <ele>625.6</ele>
        <time>2022-05-23 10:25:24</time>
      </trkpt>
      <trkpt lat="42.10033" lon="0.69723">
        <ele>625.8</ele>
        <time>2022-05-23 10:25:25</time>
      </trkpt>
      <trkpt lat="42.10032" lon="0.69723">
        <ele>626</ele>
        <time>2022-05-23 10:25:26</time>
      </trkpt>
      <trkpt lat="42.10031" lon="0.69723">
        <ele>626.2</ele>
        <time>2022-05-23 10:25:27</time>
      </trkpt>
      <trkpt lat="42.1003" lon="0.69723">
        <ele>626.4</ele>
        <time>2022-05-23 10:25:28</time>
      </trkpt>
      <trkpt lat="42.10028" lon="0.69724">
        <ele>626.6</ele>
        <time>2022-05-23 10:25:29</time>
      </trkpt>
      <trkpt lat="42.10027" lon="0.69724">
        <ele>626.8</ele>
        <time>2022-05-23 10:25:30</time>
      </trkpt>
      <trkpt lat="42.10026" lon="0.69724">
        <ele>627</ele>
        <time>2022-05-23 10:25:31</time>
      </trkpt>
      <trkpt lat="42.10024" lon="0.69725">
        <ele>627.2</ele>
        <time>2022-05-23 10:25:32</time>
      </trkpt>
      <trkpt lat="42.10023" lon="0.69725">
        <ele>627.2</ele>
        <time>2022-05-23 10:25:33</time>
      </trkpt>
      <trkpt lat="42.10021" lon="0.69726">
        <ele>627.4</ele>
        <time>2022-05-23 10:25:34</time>
      </trkpt>
      <trkpt lat="42.1002" lon="0.69726">
        <ele>627.6</ele>
        <time>2022-05-23 10:25:35</time>
      </trkpt>
      <trkpt lat="42.10018" lon="0.69726">
        <ele>627.8</ele>
        <time>2022-05-23 10:25:36</time>
      </trkpt>
      <trkpt lat="42.10017" lon="0.69726">
        <ele>628</ele>
        <time>2022-05-23 10:25:37</time>
      </trkpt>
      <trkpt lat="42.10015" lon="0.69727">
        <ele>628.2</ele>
        <time>2022-05-23 10:25:38</time>
      </trkpt>
      <trkpt lat="42.10014" lon="0.69727">
        <ele>628.4</ele>
        <time>2022-05-23 10:25:39</time>
      </trkpt>
      <trkpt lat="42.10013" lon="0.69727">
        <ele>628.6</ele>
        <time>2022-05-23 10:25:40</time>
      </trkpt>
      <trkpt lat="42.10012" lon="0.69727">
        <ele>628.8</ele>
        <time>2022-05-23 10:25:41</time>
      </trkpt>
      <trkpt lat="42.1001" lon="0.69727">
        <ele>629</ele>
        <time>2022-05-23 10:25:42</time>
      </trkpt>
      <trkpt lat="42.10009" lon="0.69727">
        <ele>629.2</ele>
        <time>2022-05-23 10:25:43</time>
      </trkpt>
      <trkpt lat="42.10008" lon="0.69728">
        <ele>629.4</ele>
        <time>2022-05-23 10:25:44</time>
      </trkpt>
      <trkpt lat="42.10006" lon="0.69728">
        <ele>629.6</ele>
        <time>2022-05-23 10:25:45</time>
      </trkpt>
      <trkpt lat="42.10005" lon="0.69729">
        <ele>629.8</ele>
        <time>2022-05-23 10:25:46</time>
      </trkpt>
      <trkpt lat="42.10004" lon="0.69729">
        <ele>630</ele>
        <time>2022-05-23 10:25:47</time>
      </trkpt>
      <trkpt lat="42.10002" lon="0.6973">
        <ele>630</ele>
        <time>2022-05-23 10:25:48</time>
      </trkpt>
      <trkpt lat="42.10001" lon="0.6973">
        <ele>630.2</ele>
        <time>2022-05-23 10:25:49</time>
      </trkpt>
      <trkpt lat="42.1" lon="0.69731">
        <ele>630.4</ele>
        <time>2022-05-23 10:25:50</time>
      </trkpt>
      <trkpt lat="42.09999" lon="0.69731">
        <ele>630.6</ele>
        <time>2022-05-23 10:25:51</time>
      </trkpt>
      <trkpt lat="42.09998" lon="0.69731">
        <ele>630.8</ele>
        <time>2022-05-23 10:25:52</time>
      </trkpt>
      <trkpt lat="42.09997" lon="0.6973">
        <ele>630.8</ele>
        <time>2022-05-23 10:25:53</time>
      </trkpt>
      <trkpt lat="42.09996" lon="0.69729">
        <ele>631</ele>
        <time>2022-05-23 10:25:54</time>
      </trkpt>
      <trkpt lat="42.09995" lon="0.69728">
        <ele>631</ele>
        <time>2022-05-23 10:25:55</time>
      </trkpt>
      <trkpt lat="42.09995" lon="0.69728">
        <ele>631</ele>
        <time>2022-05-23 10:25:56</time>
      </trkpt>
      <trkpt lat="42.09995" lon="0.69728">
        <ele>631.2</ele>
        <time>2022-05-23 10:25:57</time>
      </trkpt>
      <trkpt lat="42.09995" lon="0.69728">
        <ele>631.2</ele>
        <time>2022-05-23 10:25:58</time>
      </trkpt>
      <trkpt lat="42.09995" lon="0.69728">
        <ele>631.2</ele>
        <time>2022-05-23 10:25:59</time>
      </trkpt>
      <trkpt lat="42.09987" lon="0.69741">
        <ele>631.4</ele>
        <time>2022-05-23 10:26:00</time>
      </trkpt>
      <trkpt lat="42.09986" lon="0.69743">
        <ele>631.4</ele>
        <time>2022-05-23 10:26:01</time>
      </trkpt>
      <trkpt lat="42.09985" lon="0.69744">
        <ele>631.4</ele>
        <time>2022-05-23 10:26:02</time>
      </trkpt>
      <trkpt lat="42.09984" lon="0.69746">
        <ele>631.4</ele>
        <time>2022-05-23 10:26:03</time>
      </trkpt>
      <trkpt lat="42.09983" lon="0.69748">
        <ele>631.6</ele>
        <time>2022-05-23 10:26:04</time>
      </trkpt>
      <trkpt lat="42.09982" lon="0.6975">
        <ele>631.8</ele>
        <time>2022-05-23 10:26:05</time>
      </trkpt>
      <trkpt lat="42.09981" lon="0.69752">
        <ele>631.8</ele>
        <time>2022-05-23 10:26:06</time>
      </trkpt>
      <trkpt lat="42.09981" lon="0.69754">
        <ele>632</ele>
        <time>2022-05-23 10:26:07</time>
      </trkpt>
      <trkpt lat="42.0998" lon="0.69756">
        <ele>632.2</ele>
        <time>2022-05-23 10:26:08</time>
      </trkpt>
      <trkpt lat="42.0998" lon="0.69758">
        <ele>632.2</ele>
        <time>2022-05-23 10:26:09</time>
      </trkpt>
      <trkpt lat="42.09979" lon="0.6976">
        <ele>632.4</ele>
        <time>2022-05-23 10:26:10</time>
      </trkpt>
      <trkpt lat="42.09978" lon="0.69762">
        <ele>632.6</ele>
        <time>2022-05-23 10:26:11</time>
      </trkpt>
      <trkpt lat="42.09977" lon="0.69764">
        <ele>632.8</ele>
        <time>2022-05-23 10:26:12</time>
      </trkpt>
      <trkpt lat="42.09977" lon="0.69766">
        <ele>633</ele>
        <time>2022-05-23 10:26:13</time>
      </trkpt>
      <trkpt lat="42.09976" lon="0.69768">
        <ele>633.2</ele>
        <time>2022-05-23 10:26:14</time>
      </trkpt>
      <trkpt lat="42.09975" lon="0.6977">
        <ele>633.4</ele>
        <time>2022-05-23 10:26:15</time>
      </trkpt>
      <trkpt lat="42.09975" lon="0.69772">
        <ele>633.6</ele>
        <time>2022-05-23 10:26:16</time>
      </trkpt>
      <trkpt lat="42.09974" lon="0.69775">
        <ele>633.6</ele>
        <time>2022-05-23 10:26:17</time>
      </trkpt>
      <trkpt lat="42.09974" lon="0.69777">
        <ele>633.8</ele>
        <time>2022-05-23 10:26:18</time>
      </trkpt>
      <trkpt lat="42.09974" lon="0.6978">
        <ele>633.8</ele>
        <time>2022-05-23 10:26:19</time>
      </trkpt>
      <trkpt lat="42.09974" lon="0.69782">
        <ele>634</ele>
        <time>2022-05-23 10:26:20</time>
      </trkpt>
      <trkpt lat="42.09974" lon="0.69784">
        <ele>634.2</ele>
        <time>2022-05-23 10:26:21</time>
      </trkpt>
      <trkpt lat="42.09974" lon="0.69786">
        <ele>634.4</ele>
        <time>2022-05-23 10:26:22</time>
      </trkpt>
      <trkpt lat="42.09973" lon="0.6979">
        <ele>634.4</ele>
        <time>2022-05-23 10:26:23</time>
      </trkpt>
      <trkpt lat="42.09973" lon="0.69793">
        <ele>634.4</ele>
        <time>2022-05-23 10:28:38</time>
      </trkpt>
      <trkpt lat="42.09974" lon="0.69796">
        <ele>634.6</ele>
        <time>2022-05-23 10:28:39</time>
      </trkpt>
      <trkpt lat="42.09974" lon="0.69799">
        <ele>634.6</ele>
        <time>2022-05-23 10:28:40</time>
      </trkpt>
      <trkpt lat="42.09975" lon="0.69801">
        <ele>634.8</ele>
        <time>2022-05-23 10:28:41</time>
      </trkpt>
      <trkpt lat="42.09975" lon="0.69804">
        <ele>634.8</ele>
        <time>2022-05-23 10:28:42</time>
      </trkpt>
      <trkpt lat="42.09976" lon="0.69807">
        <ele>634.8</ele>
        <time>2022-05-23 10:28:43</time>
      </trkpt>
      <trkpt lat="42.09977" lon="0.69809">
        <ele>634.8</ele>
        <time>2022-05-23 10:28:44</time>
      </trkpt>
      <trkpt lat="42.09977" lon="0.69812">
        <ele>635</ele>
        <time>2022-05-23 10:28:45</time>
      </trkpt>
      <trkpt lat="42.09977" lon="0.69814">
        <ele>635</ele>
        <time>2022-05-23 10:28:46</time>
      </trkpt>
      <trkpt lat="42.09978" lon="0.69816">
        <ele>635</ele>
        <time>2022-05-23 10:28:47</time>
      </trkpt>
      <trkpt lat="42.09978" lon="0.69818">
        <ele>635</ele>
        <time>2022-05-23 10:28:48</time>
      </trkpt>
      <trkpt lat="42.09978" lon="0.69821">
        <ele>634.8</ele>
        <time>2022-05-23 10:28:49</time>
      </trkpt>
      <trkpt lat="42.09978" lon="0.69824">
        <ele>634.8</ele>
        <time>2022-05-23 10:28:50</time>
      </trkpt>
      <trkpt lat="42.09977" lon="0.69828">
        <ele>634.6</ele>
        <time>2022-05-23 10:28:51</time>
      </trkpt>
      <trkpt lat="42.09977" lon="0.69832">
        <ele>634.6</ele>
        <time>2022-05-23 10:28:52</time>
      </trkpt>
      <trkpt lat="42.09977" lon="0.69835">
        <ele>634.4</ele>
        <time>2022-05-23 10:28:53</time>
      </trkpt>
      <trkpt lat="42.09976" lon="0.69839">
        <ele>634.4</ele>
        <time>2022-05-23 10:28:54</time>
      </trkpt>
      <trkpt lat="42.09975" lon="0.69842">
        <ele>634.4</ele>
        <time>2022-05-23 10:28:55</time>
      </trkpt>
      <trkpt lat="42.09974" lon="0.69845">
        <ele>634.2</ele>
        <time>2022-05-23 10:28:56</time>
      </trkpt>
      <trkpt lat="42.09974" lon="0.69848">
        <ele>634.2</ele>
        <time>2022-05-23 10:28:57</time>
      </trkpt>
      <trkpt lat="42.09973" lon="0.69851">
        <ele>634</ele>
        <time>2022-05-23 10:28:58</time>
      </trkpt>
      <trkpt lat="42.09973" lon="0.69854">
        <ele>634</ele>
        <time>2022-05-23 10:28:59</time>
      </trkpt>
      <trkpt lat="42.09972" lon="0.69857">
        <ele>634</ele>
        <time>2022-05-23 10:29:00</time>
      </trkpt>
      <trkpt lat="42.09971" lon="0.6986">
        <ele>633.8</ele>
        <time>2022-05-23 10:29:01</time>
      </trkpt>
      <trkpt lat="42.09971" lon="0.69864">
        <ele>633.6</ele>
        <time>2022-05-23 10:29:02</time>
      </trkpt>
      <trkpt lat="42.09971" lon="0.69869">
        <ele>633.6</ele>
        <time>2022-05-23 10:29:03</time>
      </trkpt>
      <trkpt lat="42.09972" lon="0.69873">
        <ele>633.4</ele>
        <time>2022-05-23 10:29:04</time>
      </trkpt>
      <trkpt lat="42.09973" lon="0.69878">
        <ele>633.4</ele>
        <time>2022-05-23 10:29:05</time>
      </trkpt>
      <trkpt lat="42.09973" lon="0.69883">
        <ele>633.6</ele>
        <time>2022-05-23 10:29:06</time>
      </trkpt>
      <trkpt lat="42.09972" lon="0.69887">
        <ele>633.6</ele>
        <time>2022-05-23 10:29:07</time>
      </trkpt>
      <trkpt lat="42.09973" lon="0.69891">
        <ele>633.8</ele>
        <time>2022-05-23 10:29:08</time>
      </trkpt>
      <trkpt lat="42.09972" lon="0.69895">
        <ele>634</ele>
        <time>2022-05-23 10:29:09</time>
      </trkpt>
      <trkpt lat="42.09973" lon="0.69898">
        <ele>634.2</ele>
        <time>2022-05-23 10:29:10</time>
      </trkpt>
      <trkpt lat="42.09973" lon="0.69902">
        <ele>634.2</ele>
        <time>2022-05-23 10:29:11</time>
      </trkpt>
      <trkpt lat="42.09972" lon="0.69905">
        <ele>634.4</ele>
        <time>2022-05-23 10:29:12</time>
      </trkpt>
      <trkpt lat="42.09972" lon="0.69909">
        <ele>634.4</ele>
        <time>2022-05-23 10:29:13</time>
      </trkpt>
      <trkpt lat="42.09971" lon="0.69912">
        <ele>634.6</ele>
        <time>2022-05-23 10:29:14</time>
      </trkpt>
      <trkpt lat="42.09971" lon="0.69916">
        <ele>634.6</ele>
        <time>2022-05-23 10:29:15</time>
      </trkpt>
      <trkpt lat="42.0997" lon="0.6992">
        <ele>634.8</ele>
        <time>2022-05-23 10:29:16</time>
      </trkpt>
      <trkpt lat="42.0997" lon="0.69924">
        <ele>634.8</ele>
        <time>2022-05-23 10:29:17</time>
      </trkpt>
      <trkpt lat="42.09969" lon="0.69929">
        <ele>634.8</ele>
        <time>2022-05-23 10:29:18</time>
      </trkpt>
      <trkpt lat="42.09969" lon="0.69933">
        <ele>634.6</ele>
        <time>2022-05-23 10:29:19</time>
      </trkpt>
      <trkpt lat="42.09969" lon="0.69938">
        <ele>634.4</ele>
        <time>2022-05-23 10:29:20</time>
      </trkpt>
      <trkpt lat="42.0997" lon="0.69942">
        <ele>634.2</ele>
        <time>2022-05-23 10:29:21</time>
      </trkpt>
      <trkpt lat="42.0997" lon="0.69947">
        <ele>633.8</ele>
        <time>2022-05-23 10:29:22</time>
      </trkpt>
      <trkpt lat="42.09971" lon="0.69953">
        <ele>633.4</ele>
        <time>2022-05-23 10:29:23</time>
      </trkpt>
      <trkpt lat="42.0997" lon="0.6996">
        <ele>633</ele>
        <time>2022-05-23 10:29:24</time>
      </trkpt>
      <trkpt lat="42.09968" lon="0.69966">
        <ele>632.6</ele>
        <time>2022-05-23 10:29:25</time>
      </trkpt>
      <trkpt lat="42.09966" lon="0.69973">
        <ele>632</ele>
        <time>2022-05-23 10:29:26</time>
      </trkpt>
      <trkpt lat="42.09963" lon="0.69981">
        <ele>631.6</ele>
        <time>2022-05-23 10:29:27</time>
      </trkpt>
      <trkpt lat="42.09958" lon="0.69988">
        <ele>631.2</ele>
        <time>2022-05-23 10:29:28</time>
      </trkpt>
      <trkpt lat="42.09954" lon="0.69993">
        <ele>630.8</ele>
        <time>2022-05-23 10:29:29</time>
      </trkpt>
      <trkpt lat="42.09949" lon="0.69999">
        <ele>630.2</ele>
        <time>2022-05-23 10:29:30</time>
      </trkpt>
      <trkpt lat="42.09944" lon="0.70005">
        <ele>629.8</ele>
        <time>2022-05-23 10:29:31</time>
      </trkpt>
      <trkpt lat="42.0994" lon="0.7001">
        <ele>629.2</ele>
        <time>2022-05-23 10:29:32</time>
      </trkpt>
      <trkpt lat="42.09936" lon="0.70014">
        <ele>628.8</ele>
        <time>2022-05-23 10:29:33</time>
      </trkpt>
      <trkpt lat="42.09932" lon="0.70017">
        <ele>628.2</ele>
        <time>2022-05-23 10:29:34</time>
      </trkpt>
      <trkpt lat="42.09927" lon="0.7002">
        <ele>627.8</ele>
        <time>2022-05-23 10:29:35</time>
      </trkpt>
      <trkpt lat="42.09922" lon="0.7002">
        <ele>627.4</ele>
        <time>2022-05-23 10:29:36</time>
      </trkpt>
      <trkpt lat="42.09918" lon="0.70019">
        <ele>626.8</ele>
        <time>2022-05-23 10:29:37</time>
      </trkpt>
      <trkpt lat="42.09915" lon="0.70014">
        <ele>626.4</ele>
        <time>2022-05-23 10:29:38</time>
      </trkpt>
      <trkpt lat="42.09913" lon="0.70009">
        <ele>626</ele>
        <time>2022-05-23 10:29:39</time>
      </trkpt>
      <trkpt lat="42.09912" lon="0.70003">
        <ele>625.8</ele>
        <time>2022-05-23 10:29:40</time>
      </trkpt>
      <trkpt lat="42.09912" lon="0.69997">
        <ele>625.8</ele>
        <time>2022-05-23 10:29:41</time>
      </trkpt>
      <trkpt lat="42.09913" lon="0.69991">
        <ele>625.8</ele>
        <time>2022-05-23 10:29:42</time>
      </trkpt>
      <trkpt lat="42.09914" lon="0.69986">
        <ele>625.8</ele>
        <time>2022-05-23 10:29:43</time>
      </trkpt>
      <trkpt lat="42.09914" lon="0.69981">
        <ele>625.8</ele>
        <time>2022-05-23 10:29:44</time>
      </trkpt>
      <trkpt lat="42.09915" lon="0.69977">
        <ele>626</ele>
        <time>2022-05-23 10:29:45</time>
      </trkpt>
      <trkpt lat="42.09915" lon="0.69974">
        <ele>626.2</ele>
        <time>2022-05-23 10:29:46</time>
      </trkpt>
      <trkpt lat="42.09916" lon="0.69971">
        <ele>626.4</ele>
        <time>2022-05-23 10:29:47</time>
      </trkpt>
      <trkpt lat="42.09915" lon="0.69968">
        <ele>626.6</ele>
        <time>2022-05-23 10:29:48</time>
      </trkpt>
      <trkpt lat="42.09915" lon="0.69966">
        <ele>627</ele>
        <time>2022-05-23 10:29:49</time>
      </trkpt>
      <trkpt lat="42.09915" lon="0.69963">
        <ele>627.2</ele>
        <time>2022-05-23 10:29:50</time>
      </trkpt>
      <trkpt lat="42.09914" lon="0.69961">
        <ele>627.6</ele>
        <time>2022-05-23 10:29:51</time>
      </trkpt>
      <trkpt lat="42.09913" lon="0.69959">
        <ele>627.8</ele>
        <time>2022-05-23 10:29:52</time>
      </trkpt>
      <trkpt lat="42.09912" lon="0.69957">
        <ele>628</ele>
        <time>2022-05-23 10:29:53</time>
      </trkpt>
      <trkpt lat="42.09912" lon="0.69955">
        <ele>628.2</ele>
        <time>2022-05-23 10:29:54</time>
      </trkpt>
      <trkpt lat="42.0991" lon="0.69954">
        <ele>628.4</ele>
        <time>2022-05-23 10:29:55</time>
      </trkpt>
      <trkpt lat="42.09909" lon="0.69952">
        <ele>628.6</ele>
        <time>2022-05-23 10:29:56</time>
      </trkpt>
      <trkpt lat="42.09907" lon="0.69951">
        <ele>628.8</ele>
        <time>2022-05-23 10:29:57</time>
      </trkpt>
      <trkpt lat="42.09906" lon="0.6995">
        <ele>629</ele>
        <time>2022-05-23 10:29:58</time>
      </trkpt>
      <trkpt lat="42.09905" lon="0.69949">
        <ele>629.2</ele>
        <time>2022-05-23 10:29:59</time>
      </trkpt>
      <trkpt lat="42.09904" lon="0.69947">
        <ele>629.4</ele>
        <time>2022-05-23 10:30:00</time>
      </trkpt>
      <trkpt lat="42.09903" lon="0.69946">
        <ele>629.6</ele>
        <time>2022-05-23 10:30:01</time>
      </trkpt>
      <trkpt lat="42.09901" lon="0.69944">
        <ele>629.8</ele>
        <time>2022-05-23 10:30:02</time>
      </trkpt>
      <trkpt lat="42.099" lon="0.69943">
        <ele>630</ele>
        <time>2022-05-23 10:30:03</time>
      </trkpt>
      <trkpt lat="42.09899" lon="0.69942">
        <ele>630.2</ele>
        <time>2022-05-23 10:30:04</time>
      </trkpt>
      <trkpt lat="42.09897" lon="0.69941">
        <ele>630.4</ele>
        <time>2022-05-23 10:30:05</time>
      </trkpt>
      <trkpt lat="42.09895" lon="0.6994">
        <ele>630.6</ele>
        <time>2022-05-23 10:30:06</time>
      </trkpt>
      <trkpt lat="42.09894" lon="0.69939">
        <ele>630.6</ele>
        <time>2022-05-23 10:30:07</time>
      </trkpt>
      <trkpt lat="42.09892" lon="0.69938">
        <ele>630.8</ele>
        <time>2022-05-23 10:30:08</time>
      </trkpt>
      <trkpt lat="42.0989" lon="0.69938">
        <ele>630.8</ele>
        <time>2022-05-23 10:30:09</time>
      </trkpt>
      <trkpt lat="42.09888" lon="0.69938">
        <ele>631</ele>
        <time>2022-05-23 10:30:10</time>
      </trkpt>
      <trkpt lat="42.09886" lon="0.69938">
        <ele>631</ele>
        <time>2022-05-23 10:30:11</time>
      </trkpt>
      <trkpt lat="42.09883" lon="0.69938">
        <ele>631.2</ele>
        <time>2022-05-23 10:30:12</time>
      </trkpt>
      <trkpt lat="42.09882" lon="0.69939">
        <ele>631.4</ele>
        <time>2022-05-23 10:30:13</time>
      </trkpt>
      <trkpt lat="42.0988" lon="0.6994">
        <ele>631.6</ele>
        <time>2022-05-23 10:30:14</time>
      </trkpt>
      <trkpt lat="42.09877" lon="0.6994">
        <ele>631.6</ele>
        <time>2022-05-23 10:30:15</time>
      </trkpt>
      <trkpt lat="42.09875" lon="0.69941">
        <ele>631.6</ele>
        <time>2022-05-23 10:30:16</time>
      </trkpt>
      <trkpt lat="42.09873" lon="0.69941">
        <ele>631.6</ele>
        <time>2022-05-23 10:30:17</time>
      </trkpt>
      <trkpt lat="42.09871" lon="0.69941">
        <ele>631.8</ele>
        <time>2022-05-23 10:30:18</time>
      </trkpt>
      <trkpt lat="42.09869" lon="0.69941">
        <ele>631.8</ele>
        <time>2022-05-23 10:30:19</time>
      </trkpt>
      <trkpt lat="42.09867" lon="0.69941">
        <ele>631.8</ele>
        <time>2022-05-23 10:30:20</time>
      </trkpt>
      <trkpt lat="42.09864" lon="0.69942">
        <ele>631.8</ele>
        <time>2022-05-23 10:30:21</time>
      </trkpt>
      <trkpt lat="42.09862" lon="0.69943">
        <ele>631.8</ele>
        <time>2022-05-23 10:30:22</time>
      </trkpt>
      <trkpt lat="42.0986" lon="0.69943">
        <ele>632</ele>
        <time>2022-05-23 10:30:23</time>
      </trkpt>
      <trkpt lat="42.09858" lon="0.69944">
        <ele>632</ele>
        <time>2022-05-23 10:30:24</time>
      </trkpt>
      <trkpt lat="42.09856" lon="0.69944">
        <ele>632</ele>
        <time>2022-05-23 10:30:25</time>
      </trkpt>
      <trkpt lat="42.09854" lon="0.69945">
        <ele>632.2</ele>
        <time>2022-05-23 10:30:26</time>
      </trkpt>
      <trkpt lat="42.09852" lon="0.69945">
        <ele>632.2</ele>
        <time>2022-05-23 10:30:27</time>
      </trkpt>
      <trkpt lat="42.0985" lon="0.69946">
        <ele>632.4</ele>
        <time>2022-05-23 10:30:28</time>
      </trkpt>
      <trkpt lat="42.09848" lon="0.69947">
        <ele>632.4</ele>
        <time>2022-05-23 10:30:29</time>
      </trkpt>
      <trkpt lat="42.09846" lon="0.69948">
        <ele>632.4</ele>
        <time>2022-05-23 10:30:30</time>
      </trkpt>
      <trkpt lat="42.09845" lon="0.69949">
        <ele>632.4</ele>
        <time>2022-05-23 10:30:31</time>
      </trkpt>
      <trkpt lat="42.09843" lon="0.6995">
        <ele>632.6</ele>
        <time>2022-05-23 10:30:32</time>
      </trkpt>
      <trkpt lat="42.09841" lon="0.69951">
        <ele>632.6</ele>
        <time>2022-05-23 10:30:33</time>
      </trkpt>
      <trkpt lat="42.09839" lon="0.69951">
        <ele>632.8</ele>
        <time>2022-05-23 10:30:34</time>
      </trkpt>
      <trkpt lat="42.09837" lon="0.69952">
        <ele>632.8</ele>
        <time>2022-05-23 10:30:35</time>
      </trkpt>
      <trkpt lat="42.09835" lon="0.69952">
        <ele>633</ele>
        <time>2022-05-23 10:30:36</time>
      </trkpt>
      <trkpt lat="42.09833" lon="0.69953">
        <ele>633</ele>
        <time>2022-05-23 10:30:37</time>
      </trkpt>
      <trkpt lat="42.09832" lon="0.69954">
        <ele>633</ele>
        <time>2022-05-23 10:30:38</time>
      </trkpt>
      <trkpt lat="42.0983" lon="0.69954">
        <ele>633.2</ele>
        <time>2022-05-23 10:30:39</time>
      </trkpt>
      <trkpt lat="42.09829" lon="0.69955">
        <ele>633.2</ele>
        <time>2022-05-23 10:30:40</time>
      </trkpt>
      <trkpt lat="42.09827" lon="0.69956">
        <ele>633.4</ele>
        <time>2022-05-23 10:30:41</time>
      </trkpt>
      <trkpt lat="42.09825" lon="0.69957">
        <ele>633.4</ele>
        <time>2022-05-23 10:30:42</time>
      </trkpt>
      <trkpt lat="42.09824" lon="0.69958">
        <ele>633.6</ele>
        <time>2022-05-23 10:30:43</time>
      </trkpt>
      <trkpt lat="42.09823" lon="0.69958">
        <ele>633.8</ele>
        <time>2022-05-23 10:30:44</time>
      </trkpt>
      <trkpt lat="42.09821" lon="0.69959">
        <ele>634</ele>
        <time>2022-05-23 10:30:45</time>
      </trkpt>
      <trkpt lat="42.09819" lon="0.69959">
        <ele>634.2</ele>
        <time>2022-05-23 10:30:46</time>
      </trkpt>
      <trkpt lat="42.09817" lon="0.69959">
        <ele>634.4</ele>
        <time>2022-05-23 10:30:47</time>
      </trkpt>
      <trkpt lat="42.09816" lon="0.6996">
        <ele>634.6</ele>
        <time>2022-05-23 10:30:48</time>
      </trkpt>
      <trkpt lat="42.09814" lon="0.6996">
        <ele>634.6</ele>
        <time>2022-05-23 10:30:49</time>
      </trkpt>
      <trkpt lat="42.09812" lon="0.6996">
        <ele>634.8</ele>
        <time>2022-05-23 10:30:50</time>
      </trkpt>
      <trkpt lat="42.09811" lon="0.6996">
        <ele>634.8</ele>
        <time>2022-05-23 10:30:51</time>
      </trkpt>
      <trkpt lat="42.09809" lon="0.69961">
        <ele>635</ele>
        <time>2022-05-23 10:30:52</time>
      </trkpt>
      <trkpt lat="42.09807" lon="0.69961">
        <ele>635</ele>
        <time>2022-05-23 10:30:53</time>
      </trkpt>
      <trkpt lat="42.09806" lon="0.69961">
        <ele>635.2</ele>
        <time>2022-05-23 10:30:54</time>
      </trkpt>
      <trkpt lat="42.09804" lon="0.69961">
        <ele>635.2</ele>
        <time>2022-05-23 10:30:55</time>
      </trkpt>
      <trkpt lat="42.09802" lon="0.69962">
        <ele>635.4</ele>
        <time>2022-05-23 10:30:56</time>
      </trkpt>
      <trkpt lat="42.098" lon="0.69962">
        <ele>635.6</ele>
        <time>2022-05-23 10:30:57</time>
      </trkpt>
      <trkpt lat="42.09799" lon="0.69963">
        <ele>635.8</ele>
        <time>2022-05-23 10:30:58</time>
      </trkpt>
      <trkpt lat="42.09797" lon="0.69963">
        <ele>636</ele>
        <time>2022-05-23 10:30:59</time>
      </trkpt>
      <trkpt lat="42.09796" lon="0.69964">
        <ele>636.2</ele>
        <time>2022-05-23 10:31:00</time>
      </trkpt>
      <trkpt lat="42.09795" lon="0.69964">
        <ele>636.4</ele>
        <time>2022-05-23 10:31:01</time>
      </trkpt>
      <trkpt lat="42.09793" lon="0.69964">
        <ele>636.6</ele>
        <time>2022-05-23 10:31:02</time>
      </trkpt>
      <trkpt lat="42.09791" lon="0.69964">
        <ele>636.8</ele>
        <time>2022-05-23 10:31:03</time>
      </trkpt>
      <trkpt lat="42.0979" lon="0.69965">
        <ele>637</ele>
        <time>2022-05-23 10:31:04</time>
      </trkpt>
      <trkpt lat="42.09788" lon="0.69965">
        <ele>637.2</ele>
        <time>2022-05-23 10:31:05</time>
      </trkpt>
      <trkpt lat="42.09786" lon="0.69965">
        <ele>637.2</ele>
        <time>2022-05-23 10:31:06</time>
      </trkpt>
      <trkpt lat="42.09784" lon="0.69965">
        <ele>637.4</ele>
        <time>2022-05-23 10:31:07</time>
      </trkpt>
      <trkpt lat="42.09783" lon="0.69965">
        <ele>637.6</ele>
        <time>2022-05-23 10:31:08</time>
      </trkpt>
      <trkpt lat="42.09781" lon="0.69966">
        <ele>637.6</ele>
        <time>2022-05-23 10:31:09</time>
      </trkpt>
      <trkpt lat="42.09779" lon="0.69966">
        <ele>637.8</ele>
        <time>2022-05-23 10:31:10</time>
      </trkpt>
      <trkpt lat="42.09778" lon="0.69966">
        <ele>638</ele>
        <time>2022-05-23 10:31:11</time>
      </trkpt>
      <trkpt lat="42.09776" lon="0.69966">
        <ele>638</ele>
        <time>2022-05-23 10:31:12</time>
      </trkpt>
      <trkpt lat="42.09775" lon="0.69966">
        <ele>638.2</ele>
        <time>2022-05-23 10:31:13</time>
      </trkpt>
      <trkpt lat="42.09773" lon="0.69966">
        <ele>638.4</ele>
        <time>2022-05-23 10:31:14</time>
      </trkpt>
      <trkpt lat="42.09771" lon="0.69966">
        <ele>638.6</ele>
        <time>2022-05-23 10:31:15</time>
      </trkpt>
      <trkpt lat="42.0977" lon="0.69965">
        <ele>638.6</ele>
        <time>2022-05-23 10:31:16</time>
      </trkpt>
      <trkpt lat="42.09768" lon="0.69965">
        <ele>638.8</ele>
        <time>2022-05-23 10:31:17</time>
      </trkpt>
      <trkpt lat="42.09767" lon="0.69965">
        <ele>639</ele>
        <time>2022-05-23 10:31:18</time>
      </trkpt>
      <trkpt lat="42.09765" lon="0.69965">
        <ele>639</ele>
        <time>2022-05-23 10:31:19</time>
      </trkpt>
      <trkpt lat="42.09763" lon="0.69966">
        <ele>639.2</ele>
        <time>2022-05-23 10:31:20</time>
      </trkpt>
      <trkpt lat="42.09762" lon="0.69966">
        <ele>639.4</ele>
        <time>2022-05-23 10:31:21</time>
      </trkpt>
      <trkpt lat="42.0976" lon="0.69966">
        <ele>639.6</ele>
        <time>2022-05-23 10:31:22</time>
      </trkpt>
      <trkpt lat="42.09758" lon="0.69966">
        <ele>639.6</ele>
        <time>2022-05-23 10:31:23</time>
      </trkpt>
      <trkpt lat="42.09757" lon="0.69965">
        <ele>639.8</ele>
        <time>2022-05-23 10:31:24</time>
      </trkpt>
      <trkpt lat="42.09755" lon="0.69965">
        <ele>640</ele>
        <time>2022-05-23 10:31:25</time>
      </trkpt>
      <trkpt lat="42.09753" lon="0.69965">
        <ele>640.2</ele>
        <time>2022-05-23 10:31:26</time>
      </trkpt>
      <trkpt lat="42.09752" lon="0.69965">
        <ele>640.2</ele>
        <time>2022-05-23 10:31:27</time>
      </trkpt>
      <trkpt lat="42.0975" lon="0.69965">
        <ele>640.4</ele>
        <time>2022-05-23 10:31:28</time>
      </trkpt>
      <trkpt lat="42.09749" lon="0.69965">
        <ele>640.6</ele>
        <time>2022-05-23 10:31:29</time>
      </trkpt>
      <trkpt lat="42.09747" lon="0.69965">
        <ele>640.8</ele>
        <time>2022-05-23 10:31:30</time>
      </trkpt>
      <trkpt lat="42.09745" lon="0.69965">
        <ele>640.8</ele>
        <time>2022-05-23 10:31:31</time>
      </trkpt>
      <trkpt lat="42.09743" lon="0.69966">
        <ele>641</ele>
        <time>2022-05-23 10:31:32</time>
      </trkpt>
      <trkpt lat="42.09742" lon="0.69966">
        <ele>641.2</ele>
        <time>2022-05-23 10:31:33</time>
      </trkpt>
      <trkpt lat="42.0974" lon="0.69966">
        <ele>641.2</ele>
        <time>2022-05-23 10:31:34</time>
      </trkpt>
      <trkpt lat="42.09738" lon="0.69966">
        <ele>641.4</ele>
        <time>2022-05-23 10:31:35</time>
      </trkpt>
      <trkpt lat="42.09736" lon="0.69967">
        <ele>641.6</ele>
        <time>2022-05-23 10:31:36</time>
      </trkpt>
      <trkpt lat="42.09734" lon="0.69967">
        <ele>641.8</ele>
        <time>2022-05-23 10:31:37</time>
      </trkpt>
      <trkpt lat="42.09732" lon="0.69967">
        <ele>641.8</ele>
        <time>2022-05-23 10:31:38</time>
      </trkpt>
      <trkpt lat="42.09731" lon="0.69968">
        <ele>642</ele>
        <time>2022-05-23 10:31:39</time>
      </trkpt>
      <trkpt lat="42.09729" lon="0.69968">
        <ele>642.2</ele>
        <time>2022-05-23 10:31:40</time>
      </trkpt>
      <trkpt lat="42.09727" lon="0.69969">
        <ele>642.4</ele>
        <time>2022-05-23 10:31:41</time>
      </trkpt>
      <trkpt lat="42.09726" lon="0.69969">
        <ele>642.4</ele>
        <time>2022-05-23 10:31:42</time>
      </trkpt>
      <trkpt lat="42.09724" lon="0.69969">
        <ele>642.6</ele>
        <time>2022-05-23 10:31:43</time>
      </trkpt>
      <trkpt lat="42.09723" lon="0.69969">
        <ele>642.6</ele>
        <time>2022-05-23 10:31:44</time>
      </trkpt>
      <trkpt lat="42.09721" lon="0.6997">
        <ele>642.8</ele>
        <time>2022-05-23 10:31:45</time>
      </trkpt>
      <trkpt lat="42.09719" lon="0.6997">
        <ele>642.8</ele>
        <time>2022-05-23 10:31:46</time>
      </trkpt>
      <trkpt lat="42.09717" lon="0.69971">
        <ele>642.8</ele>
        <time>2022-05-23 10:31:47</time>
      </trkpt>
      <trkpt lat="42.09716" lon="0.69971">
        <ele>643</ele>
        <time>2022-05-23 10:31:48</time>
      </trkpt>
      <trkpt lat="42.09714" lon="0.69971">
        <ele>643.2</ele>
        <time>2022-05-23 10:31:49</time>
      </trkpt>
      <trkpt lat="42.09712" lon="0.69972">
        <ele>643.2</ele>
        <time>2022-05-23 10:31:50</time>
      </trkpt>
      <trkpt lat="42.0971" lon="0.69973">
        <ele>643.2</ele>
        <time>2022-05-23 10:31:51</time>
      </trkpt>
      <trkpt lat="42.09708" lon="0.69973">
        <ele>643.4</ele>
        <time>2022-05-23 10:31:52</time>
      </trkpt>
      <trkpt lat="42.09706" lon="0.69973">
        <ele>643.4</ele>
        <time>2022-05-23 10:31:53</time>
      </trkpt>
      <trkpt lat="42.09704" lon="0.69973">
        <ele>643.6</ele>
        <time>2022-05-23 10:31:54</time>
      </trkpt>
      <trkpt lat="42.09703" lon="0.69973">
        <ele>643.6</ele>
        <time>2022-05-23 10:31:55</time>
      </trkpt>
      <trkpt lat="42.09701" lon="0.69973">
        <ele>643.8</ele>
        <time>2022-05-23 10:31:56</time>
      </trkpt>
      <trkpt lat="42.09698" lon="0.69973">
        <ele>643.8</ele>
        <time>2022-05-23 10:31:57</time>
      </trkpt>
      <trkpt lat="42.09697" lon="0.69974">
        <ele>644</ele>
        <time>2022-05-23 10:31:58</time>
      </trkpt>
      <trkpt lat="42.09695" lon="0.69974">
        <ele>644</ele>
        <time>2022-05-23 10:31:59</time>
      </trkpt>
      <trkpt lat="42.09693" lon="0.69974">
        <ele>644.2</ele>
        <time>2022-05-23 10:32:00</time>
      </trkpt>
      <trkpt lat="42.09691" lon="0.69974">
        <ele>644.2</ele>
        <time>2022-05-23 10:32:01</time>
      </trkpt>
      <trkpt lat="42.09689" lon="0.69975">
        <ele>644.2</ele>
        <time>2022-05-23 10:32:02</time>
      </trkpt>
      <trkpt lat="42.09687" lon="0.69975">
        <ele>644.4</ele>
        <time>2022-05-23 10:32:03</time>
      </trkpt>
      <trkpt lat="42.09685" lon="0.69976">
        <ele>644.4</ele>
        <time>2022-05-23 10:32:04</time>
      </trkpt>
      <trkpt lat="42.09683" lon="0.69977">
        <ele>644.4</ele>
        <time>2022-05-23 10:32:05</time>
      </trkpt>
      <trkpt lat="42.09682" lon="0.69977">
        <ele>644.6</ele>
        <time>2022-05-23 10:32:06</time>
      </trkpt>
      <trkpt lat="42.0968" lon="0.69978">
        <ele>644.6</ele>
        <time>2022-05-23 10:32:07</time>
      </trkpt>
      <trkpt lat="42.09678" lon="0.69978">
        <ele>644.8</ele>
        <time>2022-05-23 10:32:08</time>
      </trkpt>
      <trkpt lat="42.09676" lon="0.69979">
        <ele>644.8</ele>
        <time>2022-05-23 10:32:09</time>
      </trkpt>
      <trkpt lat="42.09674" lon="0.69979">
        <ele>644.8</ele>
        <time>2022-05-23 10:32:10</time>
      </trkpt>
      <trkpt lat="42.09672" lon="0.6998">
        <ele>645</ele>
        <time>2022-05-23 10:32:11</time>
      </trkpt>
      <trkpt lat="42.09671" lon="0.6998">
        <ele>645</ele>
        <time>2022-05-23 10:32:12</time>
      </trkpt>
      <trkpt lat="42.09669" lon="0.69981">
        <ele>645.2</ele>
        <time>2022-05-23 10:32:13</time>
      </trkpt>
      <trkpt lat="42.09667" lon="0.69981">
        <ele>645.2</ele>
        <time>2022-05-23 10:32:14</time>
      </trkpt>
      <trkpt lat="42.09665" lon="0.69982">
        <ele>645.2</ele>
        <time>2022-05-23 10:32:15</time>
      </trkpt>
      <trkpt lat="42.09663" lon="0.69983">
        <ele>645.2</ele>
        <time>2022-05-23 10:32:16</time>
      </trkpt>
      <trkpt lat="42.09661" lon="0.69983">
        <ele>645.4</ele>
        <time>2022-05-23 10:32:17</time>
      </trkpt>
      <trkpt lat="42.09659" lon="0.69984">
        <ele>645.4</ele>
        <time>2022-05-23 10:32:18</time>
      </trkpt>
      <trkpt lat="42.09657" lon="0.69985">
        <ele>645.4</ele>
        <time>2022-05-23 10:32:19</time>
      </trkpt>
      <trkpt lat="42.09655" lon="0.69986">
        <ele>645.6</ele>
        <time>2022-05-23 10:32:20</time>
      </trkpt>
      <trkpt lat="42.09653" lon="0.69987">
        <ele>645.6</ele>
        <time>2022-05-23 10:32:21</time>
      </trkpt>
      <trkpt lat="42.09651" lon="0.69988">
        <ele>645.6</ele>
        <time>2022-05-23 10:32:22</time>
      </trkpt>
      <trkpt lat="42.0965" lon="0.69989">
        <ele>645.8</ele>
        <time>2022-05-23 10:32:23</time>
      </trkpt>
      <trkpt lat="42.09648" lon="0.6999">
        <ele>645.8</ele>
        <time>2022-05-23 10:32:24</time>
      </trkpt>
      <trkpt lat="42.09646" lon="0.6999">
        <ele>645.8</ele>
        <time>2022-05-23 10:32:25</time>
      </trkpt>
      <trkpt lat="42.09644" lon="0.69991">
        <ele>645.8</ele>
        <time>2022-05-23 10:32:26</time>
      </trkpt>
      <trkpt lat="42.09642" lon="0.69992">
        <ele>646</ele>
        <time>2022-05-23 10:32:27</time>
      </trkpt>
      <trkpt lat="42.0964" lon="0.69993">
        <ele>646</ele>
        <time>2022-05-23 10:32:28</time>
      </trkpt>
      <trkpt lat="42.09639" lon="0.69994">
        <ele>646</ele>
        <time>2022-05-23 10:32:29</time>
      </trkpt>
      <trkpt lat="42.09637" lon="0.69995">
        <ele>646.2</ele>
        <time>2022-05-23 10:32:30</time>
      </trkpt>
      <trkpt lat="42.09635" lon="0.69996">
        <ele>646.2</ele>
        <time>2022-05-23 10:32:31</time>
      </trkpt>
      <trkpt lat="42.09633" lon="0.69997">
        <ele>646.2</ele>
        <time>2022-05-23 10:32:32</time>
      </trkpt>
      <trkpt lat="42.09631" lon="0.69997">
        <ele>646.2</ele>
        <time>2022-05-23 10:32:33</time>
      </trkpt>
      <trkpt lat="42.0963" lon="0.69998">
        <ele>646.4</ele>
        <time>2022-05-23 10:32:34</time>
      </trkpt>
      <trkpt lat="42.09628" lon="0.69999">
        <ele>646.4</ele>
        <time>2022-05-23 10:32:35</time>
      </trkpt>
      <trkpt lat="42.09626" lon="0.69999">
        <ele>646.4</ele>
        <time>2022-05-23 10:32:36</time>
      </trkpt>
      <trkpt lat="42.09624" lon="0.7">
        <ele>646.4</ele>
        <time>2022-05-23 10:32:37</time>
      </trkpt>
      <trkpt lat="42.09622" lon="0.70001">
        <ele>646.6</ele>
        <time>2022-05-23 10:32:38</time>
      </trkpt>
      <trkpt lat="42.09621" lon="0.70001">
        <ele>646.6</ele>
        <time>2022-05-23 10:32:39</time>
      </trkpt>
      <trkpt lat="42.09619" lon="0.70002">
        <ele>646.6</ele>
        <time>2022-05-23 10:32:40</time>
      </trkpt>
      <trkpt lat="42.09617" lon="0.70003">
        <ele>646.6</ele>
        <time>2022-05-23 10:32:41</time>
      </trkpt>
      <trkpt lat="42.09615" lon="0.70004">
        <ele>646.6</ele>
        <time>2022-05-23 10:32:42</time>
      </trkpt>
      <trkpt lat="42.09614" lon="0.70005">
        <ele>646.8</ele>
        <time>2022-05-23 10:32:43</time>
      </trkpt>
      <trkpt lat="42.09612" lon="0.70006">
        <ele>646.8</ele>
        <time>2022-05-23 10:32:44</time>
      </trkpt>
      <trkpt lat="42.0961" lon="0.70007">
        <ele>647</ele>
        <time>2022-05-23 10:32:45</time>
      </trkpt>
      <trkpt lat="42.09608" lon="0.70007">
        <ele>647</ele>
        <time>2022-05-23 10:32:46</time>
      </trkpt>
      <trkpt lat="42.09607" lon="0.70008">
        <ele>647.2</ele>
        <time>2022-05-23 10:32:47</time>
      </trkpt>
      <trkpt lat="42.09605" lon="0.70009">
        <ele>647.2</ele>
        <time>2022-05-23 10:32:48</time>
      </trkpt>
      <trkpt lat="42.09603" lon="0.7001">
        <ele>647.4</ele>
        <time>2022-05-23 10:32:49</time>
      </trkpt>
      <trkpt lat="42.09601" lon="0.7001">
        <ele>647.6</ele>
        <time>2022-05-23 10:32:50</time>
      </trkpt>
      <trkpt lat="42.09599" lon="0.7001">
        <ele>647.6</ele>
        <time>2022-05-23 10:32:51</time>
      </trkpt>
      <trkpt lat="42.09597" lon="0.7001">
        <ele>647.8</ele>
        <time>2022-05-23 10:32:52</time>
      </trkpt>
      <trkpt lat="42.09595" lon="0.7001">
        <ele>647.8</ele>
        <time>2022-05-23 10:32:53</time>
      </trkpt>
      <trkpt lat="42.09593" lon="0.70009">
        <ele>648</ele>
        <time>2022-05-23 10:32:54</time>
      </trkpt>
      <trkpt lat="42.09592" lon="0.70008">
        <ele>648</ele>
        <time>2022-05-23 10:32:55</time>
      </trkpt>
      <trkpt lat="42.0959" lon="0.70007">
        <ele>648.2</ele>
        <time>2022-05-23 10:32:56</time>
      </trkpt>
      <trkpt lat="42.09588" lon="0.70006">
        <ele>648.2</ele>
        <time>2022-05-23 10:32:57</time>
      </trkpt>
      <trkpt lat="42.09587" lon="0.70004">
        <ele>648.4</ele>
        <time>2022-05-23 10:32:58</time>
      </trkpt>
      <trkpt lat="42.09586" lon="0.70003">
        <ele>648.4</ele>
        <time>2022-05-23 10:32:59</time>
      </trkpt>
      <trkpt lat="42.09584" lon="0.70001">
        <ele>648.6</ele>
        <time>2022-05-23 10:33:00</time>
      </trkpt>
      <trkpt lat="42.09583" lon="0.7">
        <ele>648.6</ele>
        <time>2022-05-23 10:33:01</time>
      </trkpt>
      <trkpt lat="42.09581" lon="0.69999">
        <ele>648.8</ele>
        <time>2022-05-23 10:33:02</time>
      </trkpt>
      <trkpt lat="42.0958" lon="0.69998">
        <ele>649</ele>
        <time>2022-05-23 10:33:03</time>
      </trkpt>
      <trkpt lat="42.09578" lon="0.69996">
        <ele>649.2</ele>
        <time>2022-05-23 10:33:04</time>
      </trkpt>
      <trkpt lat="42.09577" lon="0.69995">
        <ele>649.2</ele>
        <time>2022-05-23 10:33:05</time>
      </trkpt>
      <trkpt lat="42.09575" lon="0.69994">
        <ele>649.4</ele>
        <time>2022-05-23 10:33:06</time>
      </trkpt>
      <trkpt lat="42.09574" lon="0.69993">
        <ele>649.6</ele>
        <time>2022-05-23 10:33:07</time>
      </trkpt>
      <trkpt lat="42.09572" lon="0.69993">
        <ele>649.6</ele>
        <time>2022-05-23 10:33:08</time>
      </trkpt>
      <trkpt lat="42.0957" lon="0.69993">
        <ele>649.8</ele>
        <time>2022-05-23 10:33:09</time>
      </trkpt>
      <trkpt lat="42.09569" lon="0.69993">
        <ele>650</ele>
        <time>2022-05-23 10:33:10</time>
      </trkpt>
      <trkpt lat="42.09567" lon="0.69992">
        <ele>650.2</ele>
        <time>2022-05-23 10:33:11</time>
      </trkpt>
      <trkpt lat="42.09565" lon="0.69992">
        <ele>650.4</ele>
        <time>2022-05-23 10:33:12</time>
      </trkpt>
      <trkpt lat="42.09563" lon="0.69991">
        <ele>650.8</ele>
        <time>2022-05-23 10:33:13</time>
      </trkpt>
      <trkpt lat="42.09562" lon="0.69991">
        <ele>651</ele>
        <time>2022-05-23 10:33:14</time>
      </trkpt>
      <trkpt lat="42.0956" lon="0.69991">
        <ele>651.4</ele>
        <time>2022-05-23 10:33:15</time>
      </trkpt>
      <trkpt lat="42.09558" lon="0.6999">
        <ele>651.6</ele>
        <time>2022-05-23 10:33:16</time>
      </trkpt>
      <trkpt lat="42.09556" lon="0.6999">
        <ele>651.8</ele>
        <time>2022-05-23 10:33:17</time>
      </trkpt>
      <trkpt lat="42.09555" lon="0.69991">
        <ele>652</ele>
        <time>2022-05-23 10:33:18</time>
      </trkpt>
      <trkpt lat="42.09553" lon="0.69991">
        <ele>652.2</ele>
        <time>2022-05-23 10:33:19</time>
      </trkpt>
      <trkpt lat="42.09551" lon="0.69991">
        <ele>652.4</ele>
        <time>2022-05-23 10:33:20</time>
      </trkpt>
      <trkpt lat="42.09549" lon="0.69991">
        <ele>652.6</ele>
        <time>2022-05-23 10:33:21</time>
      </trkpt>
      <trkpt lat="42.09548" lon="0.69992">
        <ele>652.8</ele>
        <time>2022-05-23 10:33:22</time>
      </trkpt>
      <trkpt lat="42.09546" lon="0.69992">
        <ele>653</ele>
        <time>2022-05-23 10:33:23</time>
      </trkpt>
      <trkpt lat="42.09545" lon="0.69992">
        <ele>653.2</ele>
        <time>2022-05-23 10:33:24</time>
      </trkpt>
      <trkpt lat="42.09543" lon="0.69992">
        <ele>653.2</ele>
        <time>2022-05-23 10:33:25</time>
      </trkpt>
      <trkpt lat="42.09542" lon="0.69993">
        <ele>653.4</ele>
        <time>2022-05-23 10:33:26</time>
      </trkpt>
      <trkpt lat="42.0954" lon="0.69994">
        <ele>653.6</ele>
        <time>2022-05-23 10:33:27</time>
      </trkpt>
      <trkpt lat="42.09539" lon="0.69994">
        <ele>653.8</ele>
        <time>2022-05-23 10:33:28</time>
      </trkpt>
      <trkpt lat="42.09537" lon="0.69994">
        <ele>653.8</ele>
        <time>2022-05-23 10:33:29</time>
      </trkpt>
      <trkpt lat="42.09535" lon="0.69994">
        <ele>654</ele>
        <time>2022-05-23 10:33:30</time>
      </trkpt>
      <trkpt lat="42.09534" lon="0.69994">
        <ele>654.2</ele>
        <time>2022-05-23 10:33:31</time>
      </trkpt>
      <trkpt lat="42.09532" lon="0.69995">
        <ele>654.4</ele>
        <time>2022-05-23 10:33:32</time>
      </trkpt>
      <trkpt lat="42.0953" lon="0.69995">
        <ele>654.4</ele>
        <time>2022-05-23 10:33:33</time>
      </trkpt>
      <trkpt lat="42.09528" lon="0.69995">
        <ele>654.6</ele>
        <time>2022-05-23 10:33:34</time>
      </trkpt>
      <trkpt lat="42.09526" lon="0.69996">
        <ele>654.8</ele>
        <time>2022-05-23 10:33:35</time>
      </trkpt>
      <trkpt lat="42.09524" lon="0.69996">
        <ele>654.8</ele>
        <time>2022-05-23 10:33:36</time>
      </trkpt>
      <trkpt lat="42.09523" lon="0.69996">
        <ele>655</ele>
        <time>2022-05-23 10:33:37</time>
      </trkpt>
      <trkpt lat="42.09521" lon="0.69997">
        <ele>655.2</ele>
        <time>2022-05-23 10:33:38</time>
      </trkpt>
      <trkpt lat="42.09519" lon="0.69997">
        <ele>655.2</ele>
        <time>2022-05-23 10:33:39</time>
      </trkpt>
      <trkpt lat="42.09518" lon="0.69997">
        <ele>655.4</ele>
        <time>2022-05-23 10:33:40</time>
      </trkpt>
      <trkpt lat="42.09516" lon="0.69997">
        <ele>655.6</ele>
        <time>2022-05-23 10:33:41</time>
      </trkpt>
      <trkpt lat="42.09515" lon="0.69997">
        <ele>655.8</ele>
        <time>2022-05-23 10:33:42</time>
      </trkpt>
      <trkpt lat="42.09513" lon="0.69997">
        <ele>655.8</ele>
        <time>2022-05-23 10:33:43</time>
      </trkpt>
      <trkpt lat="42.09511" lon="0.69997">
        <ele>656</ele>
        <time>2022-05-23 10:33:44</time>
      </trkpt>
      <trkpt lat="42.09509" lon="0.69997">
        <ele>656.2</ele>
        <time>2022-05-23 10:33:45</time>
      </trkpt>
      <trkpt lat="42.09507" lon="0.69997">
        <ele>656.4</ele>
        <time>2022-05-23 10:33:46</time>
      </trkpt>
      <trkpt lat="42.09505" lon="0.69997">
        <ele>656.4</ele>
        <time>2022-05-23 10:33:47</time>
      </trkpt>
      <trkpt lat="42.09504" lon="0.69997">
        <ele>656.6</ele>
        <time>2022-05-23 10:33:48</time>
      </trkpt>
      <trkpt lat="42.09502" lon="0.69996">
        <ele>656.8</ele>
        <time>2022-05-23 10:33:49</time>
      </trkpt>
      <trkpt lat="42.095" lon="0.69996">
        <ele>656.8</ele>
        <time>2022-05-23 10:33:50</time>
      </trkpt>
      <trkpt lat="42.09499" lon="0.69995">
        <ele>657</ele>
        <time>2022-05-23 10:33:51</time>
      </trkpt>
      <trkpt lat="42.09497" lon="0.69995">
        <ele>657.2</ele>
        <time>2022-05-23 10:33:52</time>
      </trkpt>
      <trkpt lat="42.09494" lon="0.69995">
        <ele>657.2</ele>
        <time>2022-05-23 10:33:53</time>
      </trkpt>
      <trkpt lat="42.09493" lon="0.69995">
        <ele>657.4</ele>
        <time>2022-05-23 10:33:54</time>
      </trkpt>
      <trkpt lat="42.09491" lon="0.69995">
        <ele>657.6</ele>
        <time>2022-05-23 10:33:55</time>
      </trkpt>
      <trkpt lat="42.09489" lon="0.69995">
        <ele>657.6</ele>
        <time>2022-05-23 10:33:56</time>
      </trkpt>
      <trkpt lat="42.09487" lon="0.69995">
        <ele>657.8</ele>
        <time>2022-05-23 10:33:57</time>
      </trkpt>
      <trkpt lat="42.09486" lon="0.69995">
        <ele>657.8</ele>
        <time>2022-05-23 10:33:58</time>
      </trkpt>
      <trkpt lat="42.09484" lon="0.69995">
        <ele>658</ele>
        <time>2022-05-23 10:33:59</time>
      </trkpt>
      <trkpt lat="42.09482" lon="0.69996">
        <ele>658.2</ele>
        <time>2022-05-23 10:34:00</time>
      </trkpt>
      <trkpt lat="42.0948" lon="0.69996">
        <ele>658.2</ele>
        <time>2022-05-23 10:34:01</time>
      </trkpt>
      <trkpt lat="42.09478" lon="0.69996">
        <ele>658.4</ele>
        <time>2022-05-23 10:34:02</time>
      </trkpt>
      <trkpt lat="42.09477" lon="0.69997">
        <ele>658.4</ele>
        <time>2022-05-23 10:34:03</time>
      </trkpt>
      <trkpt lat="42.09475" lon="0.69998">
        <ele>658.6</ele>
        <time>2022-05-23 10:34:04</time>
      </trkpt>
      <trkpt lat="42.09473" lon="0.69999">
        <ele>658.6</ele>
        <time>2022-05-23 10:34:05</time>
      </trkpt>
      <trkpt lat="42.09471" lon="0.7">
        <ele>658.6</ele>
        <time>2022-05-23 10:34:06</time>
      </trkpt>
      <trkpt lat="42.0947" lon="0.70001">
        <ele>658.8</ele>
        <time>2022-05-23 10:34:07</time>
      </trkpt>
      <trkpt lat="42.09468" lon="0.70002">
        <ele>658.8</ele>
        <time>2022-05-23 10:34:08</time>
      </trkpt>
      <trkpt lat="42.09466" lon="0.70003">
        <ele>659</ele>
        <time>2022-05-23 10:34:09</time>
      </trkpt>
      <trkpt lat="42.09465" lon="0.70005">
        <ele>659.2</ele>
        <time>2022-05-23 10:34:10</time>
      </trkpt>
      <trkpt lat="42.09463" lon="0.70006">
        <ele>659.2</ele>
        <time>2022-05-23 10:34:11</time>
      </trkpt>
      <trkpt lat="42.09461" lon="0.70007">
        <ele>659.4</ele>
        <time>2022-05-23 10:34:12</time>
      </trkpt>
      <trkpt lat="42.09459" lon="0.70007">
        <ele>659.4</ele>
        <time>2022-05-23 10:34:13</time>
      </trkpt>
      <trkpt lat="42.09457" lon="0.70008">
        <ele>659.4</ele>
        <time>2022-05-23 10:34:14</time>
      </trkpt>
      <trkpt lat="42.09455" lon="0.70008">
        <ele>659.6</ele>
        <time>2022-05-23 10:34:15</time>
      </trkpt>
      <trkpt lat="42.09453" lon="0.70008">
        <ele>659.6</ele>
        <time>2022-05-23 10:34:16</time>
      </trkpt>
      <trkpt lat="42.09451" lon="0.70008">
        <ele>659.6</ele>
        <time>2022-05-23 10:34:17</time>
      </trkpt>
      <trkpt lat="42.09449" lon="0.70007">
        <ele>659.8</ele>
        <time>2022-05-23 10:34:18</time>
      </trkpt>
      <trkpt lat="42.09447" lon="0.70006">
        <ele>659.8</ele>
        <time>2022-05-23 10:34:19</time>
      </trkpt>
      <trkpt lat="42.09445" lon="0.70004">
        <ele>660</ele>
        <time>2022-05-23 10:34:20</time>
      </trkpt>
      <trkpt lat="42.09444" lon="0.70002">
        <ele>660</ele>
        <time>2022-05-23 10:34:21</time>
      </trkpt>
      <trkpt lat="42.09442" lon="0.7">
        <ele>660</ele>
        <time>2022-05-23 10:34:22</time>
      </trkpt>
      <trkpt lat="42.09441" lon="0.69998">
        <ele>660.2</ele>
        <time>2022-05-23 10:34:23</time>
      </trkpt>
      <trkpt lat="42.0944" lon="0.69995">
        <ele>660.2</ele>
        <time>2022-05-23 10:34:24</time>
      </trkpt>
      <trkpt lat="42.09439" lon="0.69992">
        <ele>660.2</ele>
        <time>2022-05-23 10:34:25</time>
      </trkpt>
      <trkpt lat="42.09438" lon="0.6999">
        <ele>660.4</ele>
        <time>2022-05-23 10:34:26</time>
      </trkpt>
      <trkpt lat="42.09439" lon="0.69987">
        <ele>660.4</ele>
        <time>2022-05-23 10:34:27</time>
      </trkpt>
      <trkpt lat="42.09439" lon="0.69984">
        <ele>660.6</ele>
        <time>2022-05-23 10:34:28</time>
      </trkpt>
      <trkpt lat="42.09438" lon="0.69981">
        <ele>660.8</ele>
        <time>2022-05-23 10:34:29</time>
      </trkpt>
      <trkpt lat="42.09438" lon="0.69978">
        <ele>660.8</ele>
        <time>2022-05-23 10:34:30</time>
      </trkpt>
      <trkpt lat="42.09438" lon="0.69975">
        <ele>661</ele>
        <time>2022-05-23 10:34:31</time>
      </trkpt>
      <trkpt lat="42.09438" lon="0.69972">
        <ele>661.2</ele>
        <time>2022-05-23 10:34:32</time>
      </trkpt>
      <trkpt lat="42.09438" lon="0.69969">
        <ele>661.4</ele>
        <time>2022-05-23 10:34:33</time>
      </trkpt>
      <trkpt lat="42.09437" lon="0.69966">
        <ele>661.6</ele>
        <time>2022-05-23 10:34:34</time>
      </trkpt>
      <trkpt lat="42.09437" lon="0.69963">
        <ele>661.6</ele>
        <time>2022-05-23 10:34:35</time>
      </trkpt>
      <trkpt lat="42.09438" lon="0.6996">
        <ele>661.8</ele>
        <time>2022-05-23 10:34:36</time>
      </trkpt>
      <trkpt lat="42.09437" lon="0.69957">
        <ele>662</ele>
        <time>2022-05-23 10:34:37</time>
      </trkpt>
      <trkpt lat="42.09437" lon="0.69954">
        <ele>662.2</ele>
        <time>2022-05-23 10:34:38</time>
      </trkpt>
      <trkpt lat="42.09437" lon="0.69951">
        <ele>662.2</ele>
        <time>2022-05-23 10:34:39</time>
      </trkpt>
      <trkpt lat="42.09437" lon="0.69948">
        <ele>662.4</ele>
        <time>2022-05-23 10:34:40</time>
      </trkpt>
      <trkpt lat="42.09436" lon="0.69945">
        <ele>662.6</ele>
        <time>2022-05-23 10:34:41</time>
      </trkpt>
      <trkpt lat="42.09436" lon="0.69942">
        <ele>662.8</ele>
        <time>2022-05-23 10:34:42</time>
      </trkpt>
      <trkpt lat="42.09436" lon="0.6994">
        <ele>662.8</ele>
        <time>2022-05-23 10:34:43</time>
      </trkpt>
      <trkpt lat="42.09436" lon="0.69937">
        <ele>663</ele>
        <time>2022-05-23 10:34:44</time>
      </trkpt>
      <trkpt lat="42.09436" lon="0.69934">
        <ele>663.2</ele>
        <time>2022-05-23 10:34:45</time>
      </trkpt>
      <trkpt lat="42.09435" lon="0.69931">
        <ele>663.2</ele>
        <time>2022-05-23 10:34:46</time>
      </trkpt>
      <trkpt lat="42.09435" lon="0.69929">
        <ele>663.4</ele>
        <time>2022-05-23 10:34:47</time>
      </trkpt>
      <trkpt lat="42.09434" lon="0.69926">
        <ele>663.4</ele>
        <time>2022-05-23 10:34:48</time>
      </trkpt>
      <trkpt lat="42.09434" lon="0.69923">
        <ele>663.6</ele>
        <time>2022-05-23 10:34:49</time>
      </trkpt>
      <trkpt lat="42.09433" lon="0.6992">
        <ele>663.8</ele>
        <time>2022-05-23 10:34:50</time>
      </trkpt>
      <trkpt lat="42.09433" lon="0.69918">
        <ele>664</ele>
        <time>2022-05-23 10:34:51</time>
      </trkpt>
      <trkpt lat="42.09431" lon="0.69915">
        <ele>664.2</ele>
        <time>2022-05-23 10:34:52</time>
      </trkpt>
      <trkpt lat="42.0943" lon="0.69913">
        <ele>664.2</ele>
        <time>2022-05-23 10:34:53</time>
      </trkpt>
      <trkpt lat="42.09429" lon="0.69911">
        <ele>664.4</ele>
        <time>2022-05-23 10:34:54</time>
      </trkpt>
      <trkpt lat="42.09427" lon="0.69909">
        <ele>664.4</ele>
        <time>2022-05-23 10:34:55</time>
      </trkpt>
      <trkpt lat="42.09425" lon="0.69907">
        <ele>664.6</ele>
        <time>2022-05-23 10:34:56</time>
      </trkpt>
      <trkpt lat="42.09424" lon="0.69905">
        <ele>664.8</ele>
        <time>2022-05-23 10:34:57</time>
      </trkpt>
      <trkpt lat="42.09422" lon="0.69903">
        <ele>664.8</ele>
        <time>2022-05-23 10:34:58</time>
      </trkpt>
      <trkpt lat="42.0942" lon="0.69902">
        <ele>665</ele>
        <time>2022-05-23 10:34:59</time>
      </trkpt>
      <trkpt lat="42.09418" lon="0.69901">
        <ele>665</ele>
        <time>2022-05-23 10:35:00</time>
      </trkpt>
      <trkpt lat="42.09416" lon="0.699">
        <ele>665.2</ele>
        <time>2022-05-23 10:35:01</time>
      </trkpt>
      <trkpt lat="42.09414" lon="0.699">
        <ele>665.2</ele>
        <time>2022-05-23 10:35:02</time>
      </trkpt>
      <trkpt lat="42.09412" lon="0.69899">
        <ele>665.4</ele>
        <time>2022-05-23 10:35:03</time>
      </trkpt>
      <trkpt lat="42.0941" lon="0.69899">
        <ele>665.4</ele>
        <time>2022-05-23 10:35:04</time>
      </trkpt>
      <trkpt lat="42.09408" lon="0.69898">
        <ele>665.6</ele>
        <time>2022-05-23 10:35:05</time>
      </trkpt>
      <trkpt lat="42.09405" lon="0.69898">
        <ele>665.6</ele>
        <time>2022-05-23 10:35:06</time>
      </trkpt>
      <trkpt lat="42.09404" lon="0.69898">
        <ele>665.6</ele>
        <time>2022-05-23 10:35:07</time>
      </trkpt>
      <trkpt lat="42.09401" lon="0.69898">
        <ele>665.6</ele>
        <time>2022-05-23 10:35:08</time>
      </trkpt>
      <trkpt lat="42.09399" lon="0.69898">
        <ele>665.8</ele>
        <time>2022-05-23 10:35:09</time>
      </trkpt>
      <trkpt lat="42.09397" lon="0.69899">
        <ele>665.8</ele>
        <time>2022-05-23 10:35:10</time>
      </trkpt>
      <trkpt lat="42.09395" lon="0.69899">
        <ele>666</ele>
        <time>2022-05-23 10:35:11</time>
      </trkpt>
      <trkpt lat="42.09393" lon="0.69899">
        <ele>666</ele>
        <time>2022-05-23 10:35:12</time>
      </trkpt>
      <trkpt lat="42.09391" lon="0.69899">
        <ele>666.2</ele>
        <time>2022-05-23 10:35:13</time>
      </trkpt>
      <trkpt lat="42.09389" lon="0.69899">
        <ele>666.4</ele>
        <time>2022-05-23 10:35:14</time>
      </trkpt>
      <trkpt lat="42.09388" lon="0.699">
        <ele>666.4</ele>
        <time>2022-05-23 10:35:15</time>
      </trkpt>
      <trkpt lat="42.09386" lon="0.699">
        <ele>666.6</ele>
        <time>2022-05-23 10:35:16</time>
      </trkpt>
      <trkpt lat="42.09384" lon="0.69901">
        <ele>666.8</ele>
        <time>2022-05-23 10:35:17</time>
      </trkpt>
      <trkpt lat="42.09382" lon="0.69901">
        <ele>667</ele>
        <time>2022-05-23 10:35:18</time>
      </trkpt>
      <trkpt lat="42.0938" lon="0.69902">
        <ele>667</ele>
        <time>2022-05-23 10:35:19</time>
      </trkpt>
      <trkpt lat="42.09378" lon="0.69903">
        <ele>667.2</ele>
        <time>2022-05-23 10:35:20</time>
      </trkpt>
      <trkpt lat="42.09376" lon="0.69904">
        <ele>667.4</ele>
        <time>2022-05-23 10:35:21</time>
      </trkpt>
      <trkpt lat="42.09375" lon="0.69904">
        <ele>667.6</ele>
        <time>2022-05-23 10:35:22</time>
      </trkpt>
      <trkpt lat="42.09373" lon="0.69905">
        <ele>667.8</ele>
        <time>2022-05-23 10:35:23</time>
      </trkpt>
      <trkpt lat="42.09371" lon="0.69906">
        <ele>668</ele>
        <time>2022-05-23 10:35:24</time>
      </trkpt>
      <trkpt lat="42.09369" lon="0.69907">
        <ele>668.2</ele>
        <time>2022-05-23 10:35:25</time>
      </trkpt>
      <trkpt lat="42.09368" lon="0.69908">
        <ele>668.4</ele>
        <time>2022-05-23 10:35:26</time>
      </trkpt>
      <trkpt lat="42.09366" lon="0.69908">
        <ele>668.6</ele>
        <time>2022-05-23 10:35:27</time>
      </trkpt>
      <trkpt lat="42.09364" lon="0.69909">
        <ele>668.8</ele>
        <time>2022-05-23 10:35:28</time>
      </trkpt>
      <trkpt lat="42.09363" lon="0.6991">
        <ele>668.8</ele>
        <time>2022-05-23 10:35:29</time>
      </trkpt>
      <trkpt lat="42.09362" lon="0.69911">
        <ele>669</ele>
        <time>2022-05-23 10:35:30</time>
      </trkpt>
      <trkpt lat="42.0936" lon="0.69913">
        <ele>669.2</ele>
        <time>2022-05-23 10:35:31</time>
      </trkpt>
      <trkpt lat="42.09359" lon="0.69914">
        <ele>669.4</ele>
        <time>2022-05-23 10:35:32</time>
      </trkpt>
      <trkpt lat="42.09358" lon="0.69916">
        <ele>669.6</ele>
        <time>2022-05-23 10:35:33</time>
      </trkpt>
      <trkpt lat="42.09357" lon="0.69918">
        <ele>669.8</ele>
        <time>2022-05-23 10:35:34</time>
      </trkpt>
      <trkpt lat="42.09356" lon="0.69919">
        <ele>670</ele>
        <time>2022-05-23 10:35:35</time>
      </trkpt>
      <trkpt lat="42.09355" lon="0.69921">
        <ele>670.2</ele>
        <time>2022-05-23 10:35:36</time>
      </trkpt>
      <trkpt lat="42.09354" lon="0.69922">
        <ele>670.4</ele>
        <time>2022-05-23 10:35:37</time>
      </trkpt>
      <trkpt lat="42.09352" lon="0.69924">
        <ele>670.6</ele>
        <time>2022-05-23 10:35:38</time>
      </trkpt>
      <trkpt lat="42.09351" lon="0.69926">
        <ele>670.8</ele>
        <time>2022-05-23 10:35:39</time>
      </trkpt>
      <trkpt lat="42.0935" lon="0.69927">
        <ele>671</ele>
        <time>2022-05-23 10:35:40</time>
      </trkpt>
      <trkpt lat="42.09349" lon="0.69929">
        <ele>671.2</ele>
        <time>2022-05-23 10:35:41</time>
      </trkpt>
      <trkpt lat="42.09348" lon="0.69931">
        <ele>671.4</ele>
        <time>2022-05-23 10:35:42</time>
      </trkpt>
      <trkpt lat="42.09347" lon="0.69932">
        <ele>671.6</ele>
        <time>2022-05-23 10:35:43</time>
      </trkpt>
      <trkpt lat="42.09346" lon="0.69934">
        <ele>671.8</ele>
        <time>2022-05-23 10:35:44</time>
      </trkpt>
      <trkpt lat="42.09345" lon="0.69935">
        <ele>672</ele>
        <time>2022-05-23 10:35:45</time>
      </trkpt>
      <trkpt lat="42.09344" lon="0.69936">
        <ele>672.2</ele>
        <time>2022-05-23 10:35:46</time>
      </trkpt>
      <trkpt lat="42.09343" lon="0.69938">
        <ele>672.4</ele>
        <time>2022-05-23 10:35:47</time>
      </trkpt>
      <trkpt lat="42.09342" lon="0.69939">
        <ele>672.6</ele>
        <time>2022-05-23 10:35:48</time>
      </trkpt>
      <trkpt lat="42.09341" lon="0.69941">
        <ele>672.6</ele>
        <time>2022-05-23 10:35:49</time>
      </trkpt>
      <trkpt lat="42.0934" lon="0.69943">
        <ele>672.8</ele>
        <time>2022-05-23 10:35:50</time>
      </trkpt>
      <trkpt lat="42.0934" lon="0.69945">
        <ele>673</ele>
        <time>2022-05-23 10:35:51</time>
      </trkpt>
      <trkpt lat="42.09339" lon="0.69947">
        <ele>673.2</ele>
        <time>2022-05-23 10:35:52</time>
      </trkpt>
      <trkpt lat="42.09338" lon="0.69948">
        <ele>673.4</ele>
        <time>2022-05-23 10:35:53</time>
      </trkpt>
      <trkpt lat="42.09337" lon="0.6995">
        <ele>673.6</ele>
        <time>2022-05-23 10:35:54</time>
      </trkpt>
      <trkpt lat="42.09336" lon="0.69952">
        <ele>673.6</ele>
        <time>2022-05-23 10:35:55</time>
      </trkpt>
      <trkpt lat="42.09335" lon="0.69954">
        <ele>673.8</ele>
        <time>2022-05-23 10:35:56</time>
      </trkpt>
      <trkpt lat="42.09334" lon="0.69955">
        <ele>674</ele>
        <time>2022-05-23 10:35:57</time>
      </trkpt>
      <trkpt lat="42.09333" lon="0.69957">
        <ele>674</ele>
        <time>2022-05-23 10:35:58</time>
      </trkpt>
      <trkpt lat="42.09332" lon="0.69959">
        <ele>674.2</ele>
        <time>2022-05-23 10:35:59</time>
      </trkpt>
      <trkpt lat="42.09331" lon="0.69961">
        <ele>674.4</ele>
        <time>2022-05-23 10:36:00</time>
      </trkpt>
      <trkpt lat="42.0933" lon="0.69963">
        <ele>674.4</ele>
        <time>2022-05-23 10:36:01</time>
      </trkpt>
      <trkpt lat="42.0933" lon="0.69965">
        <ele>674.6</ele>
        <time>2022-05-23 10:36:02</time>
      </trkpt>
      <trkpt lat="42.09329" lon="0.69967">
        <ele>674.8</ele>
        <time>2022-05-23 10:36:03</time>
      </trkpt>
      <trkpt lat="42.09328" lon="0.69969">
        <ele>675</ele>
        <time>2022-05-23 10:36:04</time>
      </trkpt>
      <trkpt lat="42.09327" lon="0.69971">
        <ele>675</ele>
        <time>2022-05-23 10:36:05</time>
      </trkpt>
      <trkpt lat="42.09326" lon="0.69973">
        <ele>675.2</ele>
        <time>2022-05-23 10:36:06</time>
      </trkpt>
      <trkpt lat="42.09325" lon="0.69974">
        <ele>675.2</ele>
        <time>2022-05-23 10:36:07</time>
      </trkpt>
      <trkpt lat="42.09324" lon="0.69976">
        <ele>675.4</ele>
        <time>2022-05-23 10:36:08</time>
      </trkpt>
      <trkpt lat="42.09323" lon="0.69978">
        <ele>675.4</ele>
        <time>2022-05-23 10:36:09</time>
      </trkpt>
      <trkpt lat="42.09322" lon="0.6998">
        <ele>675.6</ele>
        <time>2022-05-23 10:36:10</time>
      </trkpt>
      <trkpt lat="42.09321" lon="0.69982">
        <ele>675.6</ele>
        <time>2022-05-23 10:36:11</time>
      </trkpt>
      <trkpt lat="42.0932" lon="0.69983">
        <ele>675.6</ele>
        <time>2022-05-23 10:36:12</time>
      </trkpt>
      <trkpt lat="42.09319" lon="0.69985">
        <ele>675.6</ele>
        <time>2022-05-23 10:36:13</time>
      </trkpt>
      <trkpt lat="42.09318" lon="0.69987">
        <ele>675.6</ele>
        <time>2022-05-23 10:36:14</time>
      </trkpt>
      <trkpt lat="42.09317" lon="0.69988">
        <ele>675.8</ele>
        <time>2022-05-23 10:36:15</time>
      </trkpt>
      <trkpt lat="42.09315" lon="0.69989">
        <ele>675.8</ele>
        <time>2022-05-23 10:36:16</time>
      </trkpt>
      <trkpt lat="42.09314" lon="0.6999">
        <ele>676</ele>
        <time>2022-05-23 10:36:17</time>
      </trkpt>
      <trkpt lat="42.09313" lon="0.69991">
        <ele>676.2</ele>
        <time>2022-05-23 10:36:18</time>
      </trkpt>
      <trkpt lat="42.09312" lon="0.69993">
        <ele>676.4</ele>
        <time>2022-05-23 10:36:19</time>
      </trkpt>
      <trkpt lat="42.09311" lon="0.69995">
        <ele>676.6</ele>
        <time>2022-05-23 10:36:20</time>
      </trkpt>
      <trkpt lat="42.0931" lon="0.69997">
        <ele>676.6</ele>
        <time>2022-05-23 10:36:21</time>
      </trkpt>
      <trkpt lat="42.09309" lon="0.69998">
        <ele>676.8</ele>
        <time>2022-05-23 10:36:22</time>
      </trkpt>
      <trkpt lat="42.09308" lon="0.69999">
        <ele>677.2</ele>
        <time>2022-05-23 10:36:23</time>
      </trkpt>
      <trkpt lat="42.09306" lon="0.7">
        <ele>677.2</ele>
        <time>2022-05-23 10:36:24</time>
      </trkpt>
      <trkpt lat="42.09305" lon="0.70001">
        <ele>677.4</ele>
        <time>2022-05-23 10:36:25</time>
      </trkpt>
      <trkpt lat="42.09304" lon="0.70002">
        <ele>677.6</ele>
        <time>2022-05-23 10:36:26</time>
      </trkpt>
      <trkpt lat="42.09302" lon="0.70004">
        <ele>677.6</ele>
        <time>2022-05-23 10:36:27</time>
      </trkpt>
      <trkpt lat="42.09301" lon="0.70005">
        <ele>677.8</ele>
        <time>2022-05-23 10:36:28</time>
      </trkpt>
      <trkpt lat="42.09299" lon="0.70006">
        <ele>678</ele>
        <time>2022-05-23 10:36:29</time>
      </trkpt>
      <trkpt lat="42.09298" lon="0.70006">
        <ele>678.4</ele>
        <time>2022-05-23 10:36:30</time>
      </trkpt>
      <trkpt lat="42.09296" lon="0.70007">
        <ele>678.6</ele>
        <time>2022-05-23 10:36:31</time>
      </trkpt>
      <trkpt lat="42.09295" lon="0.70008">
        <ele>678.6</ele>
        <time>2022-05-23 10:36:32</time>
      </trkpt>
      <trkpt lat="42.09294" lon="0.70009">
        <ele>678.6</ele>
        <time>2022-05-23 10:36:33</time>
      </trkpt>
      <trkpt lat="42.09292" lon="0.70009">
        <ele>678.8</ele>
        <time>2022-05-23 10:36:34</time>
      </trkpt>
      <trkpt lat="42.0929" lon="0.7001">
        <ele>678.8</ele>
        <time>2022-05-23 10:36:35</time>
      </trkpt>
      <trkpt lat="42.09289" lon="0.70011">
        <ele>679</ele>
        <time>2022-05-23 10:36:36</time>
      </trkpt>
      <trkpt lat="42.09288" lon="0.70012">
        <ele>679</ele>
        <time>2022-05-23 10:36:37</time>
      </trkpt>
      <trkpt lat="42.09286" lon="0.70013">
        <ele>679.2</ele>
        <time>2022-05-23 10:36:38</time>
      </trkpt>
      <trkpt lat="42.09284" lon="0.70014">
        <ele>679.2</ele>
        <time>2022-05-23 10:36:39</time>
      </trkpt>
      <trkpt lat="42.09283" lon="0.70015">
        <ele>679.2</ele>
        <time>2022-05-23 10:36:40</time>
      </trkpt>
      <trkpt lat="42.09281" lon="0.70017">
        <ele>679.4</ele>
        <time>2022-05-23 10:36:41</time>
      </trkpt>
      <trkpt lat="42.0928" lon="0.70018">
        <ele>679.6</ele>
        <time>2022-05-23 10:36:42</time>
      </trkpt>
      <trkpt lat="42.09278" lon="0.70019">
        <ele>680</ele>
        <time>2022-05-23 10:36:43</time>
      </trkpt>
      <trkpt lat="42.09277" lon="0.7002">
        <ele>680.6</ele>
        <time>2022-05-23 10:36:44</time>
      </trkpt>
      <trkpt lat="42.09275" lon="0.70021">
        <ele>681</ele>
        <time>2022-05-23 10:36:45</time>
      </trkpt>
      <trkpt lat="42.09273" lon="0.70022">
        <ele>681.2</ele>
        <time>2022-05-23 10:36:46</time>
      </trkpt>
      <trkpt lat="42.09272" lon="0.70023">
        <ele>681.4</ele>
        <time>2022-05-23 10:36:47</time>
      </trkpt>
      <trkpt lat="42.0927" lon="0.70024">
        <ele>681.4</ele>
        <time>2022-05-23 10:36:48</time>
      </trkpt>
      <trkpt lat="42.09268" lon="0.70025">
        <ele>681.6</ele>
        <time>2022-05-23 10:36:49</time>
      </trkpt>
      <trkpt lat="42.09267" lon="0.70026">
        <ele>681.8</ele>
        <time>2022-05-23 10:36:50</time>
      </trkpt>
      <trkpt lat="42.09265" lon="0.70028">
        <ele>681.8</ele>
        <time>2022-05-23 10:36:51</time>
      </trkpt>
      <trkpt lat="42.09264" lon="0.70029">
        <ele>682</ele>
        <time>2022-05-23 10:36:52</time>
      </trkpt>
      <trkpt lat="42.09263" lon="0.7003">
        <ele>682.2</ele>
        <time>2022-05-23 10:36:53</time>
      </trkpt>
      <trkpt lat="42.09261" lon="0.70032">
        <ele>682.2</ele>
        <time>2022-05-23 10:36:54</time>
      </trkpt>
      <trkpt lat="42.0926" lon="0.70033">
        <ele>682.4</ele>
        <time>2022-05-23 10:36:55</time>
      </trkpt>
      <trkpt lat="42.09258" lon="0.70034">
        <ele>682.4</ele>
        <time>2022-05-23 10:36:56</time>
      </trkpt>
      <trkpt lat="42.09257" lon="0.70035">
        <ele>682.4</ele>
        <time>2022-05-23 10:36:57</time>
      </trkpt>
      <trkpt lat="42.09255" lon="0.70037">
        <ele>682.6</ele>
        <time>2022-05-23 10:36:58</time>
      </trkpt>
      <trkpt lat="42.09254" lon="0.70038">
        <ele>682.6</ele>
        <time>2022-05-23 10:36:59</time>
      </trkpt>
      <trkpt lat="42.09253" lon="0.70039">
        <ele>682.8</ele>
        <time>2022-05-23 10:37:00</time>
      </trkpt>
      <trkpt lat="42.09251" lon="0.7004">
        <ele>682.8</ele>
        <time>2022-05-23 10:37:01</time>
      </trkpt>
      <trkpt lat="42.0925" lon="0.70042">
        <ele>683</ele>
        <time>2022-05-23 10:37:02</time>
      </trkpt>
      <trkpt lat="42.09249" lon="0.70043">
        <ele>683</ele>
        <time>2022-05-23 10:37:03</time>
      </trkpt>
      <trkpt lat="42.09248" lon="0.70044">
        <ele>683.2</ele>
        <time>2022-05-23 10:37:04</time>
      </trkpt>
      <trkpt lat="42.09246" lon="0.70045">
        <ele>683.2</ele>
        <time>2022-05-23 10:37:05</time>
      </trkpt>
      <trkpt lat="42.09245" lon="0.70047">
        <ele>683.4</ele>
        <time>2022-05-23 10:37:06</time>
      </trkpt>
      <trkpt lat="42.09243" lon="0.70048">
        <ele>683.4</ele>
        <time>2022-05-23 10:37:07</time>
      </trkpt>
      <trkpt lat="42.09241" lon="0.70049">
        <ele>683.6</ele>
        <time>2022-05-23 10:37:08</time>
      </trkpt>
      <trkpt lat="42.0924" lon="0.7005">
        <ele>683.8</ele>
        <time>2022-05-23 10:37:09</time>
      </trkpt>
      <trkpt lat="42.09238" lon="0.70051">
        <ele>683.8</ele>
        <time>2022-05-23 10:37:10</time>
      </trkpt>
      <trkpt lat="42.09236" lon="0.70051">
        <ele>684</ele>
        <time>2022-05-23 10:37:11</time>
      </trkpt>
      <trkpt lat="42.09235" lon="0.70052">
        <ele>684.2</ele>
        <time>2022-05-23 10:37:12</time>
      </trkpt>
      <trkpt lat="42.09233" lon="0.70052">
        <ele>684.4</ele>
        <time>2022-05-23 10:37:13</time>
      </trkpt>
      <trkpt lat="42.09231" lon="0.70053">
        <ele>684.4</ele>
        <time>2022-05-23 10:37:14</time>
      </trkpt>
      <trkpt lat="42.0923" lon="0.70053">
        <ele>684.8</ele>
        <time>2022-05-23 10:37:15</time>
      </trkpt>
      <trkpt lat="42.09228" lon="0.70054">
        <ele>685</ele>
        <time>2022-05-23 10:37:16</time>
      </trkpt>
      <trkpt lat="42.09227" lon="0.70054">
        <ele>685</ele>
        <time>2022-05-23 10:37:17</time>
      </trkpt>
      <trkpt lat="42.09225" lon="0.70055">
        <ele>685.2</ele>
        <time>2022-05-23 10:37:18</time>
      </trkpt>
      <trkpt lat="42.09223" lon="0.70055">
        <ele>685.4</ele>
        <time>2022-05-23 10:37:19</time>
      </trkpt>
      <trkpt lat="42.09221" lon="0.70055">
        <ele>685.4</ele>
        <time>2022-05-23 10:37:20</time>
      </trkpt>
      <trkpt lat="42.0922" lon="0.70054">
        <ele>685.6</ele>
        <time>2022-05-23 10:37:21</time>
      </trkpt>
      <trkpt lat="42.09218" lon="0.70054">
        <ele>685.8</ele>
        <time>2022-05-23 10:37:22</time>
      </trkpt>
      <trkpt lat="42.09217" lon="0.70054">
        <ele>686</ele>
        <time>2022-05-23 10:37:23</time>
      </trkpt>
      <trkpt lat="42.09215" lon="0.70053">
        <ele>686.2</ele>
        <time>2022-05-23 10:37:24</time>
      </trkpt>
      <trkpt lat="42.09213" lon="0.70052">
        <ele>686.2</ele>
        <time>2022-05-23 10:37:25</time>
      </trkpt>
      <trkpt lat="42.09211" lon="0.70051">
        <ele>686.4</ele>
        <time>2022-05-23 10:37:26</time>
      </trkpt>
      <trkpt lat="42.0921" lon="0.7005">
        <ele>686.6</ele>
        <time>2022-05-23 10:37:27</time>
      </trkpt>
      <trkpt lat="42.09208" lon="0.70049">
        <ele>686.6</ele>
        <time>2022-05-23 10:37:28</time>
      </trkpt>
      <trkpt lat="42.09207" lon="0.70047">
        <ele>686.8</ele>
        <time>2022-05-23 10:37:29</time>
      </trkpt>
      <trkpt lat="42.09206" lon="0.70046">
        <ele>687</ele>
        <time>2022-05-23 10:37:30</time>
      </trkpt>
      <trkpt lat="42.09204" lon="0.70045">
        <ele>687.2</ele>
        <time>2022-05-23 10:37:31</time>
      </trkpt>
      <trkpt lat="42.09203" lon="0.70043">
        <ele>687.4</ele>
        <time>2022-05-23 10:37:32</time>
      </trkpt>
      <trkpt lat="42.09201" lon="0.70041">
        <ele>687.4</ele>
        <time>2022-05-23 10:37:33</time>
      </trkpt>
      <trkpt lat="42.092" lon="0.70039">
        <ele>687.6</ele>
        <time>2022-05-23 10:37:34</time>
      </trkpt>
      <trkpt lat="42.09199" lon="0.70037">
        <ele>687.8</ele>
        <time>2022-05-23 10:37:35</time>
      </trkpt>
      <trkpt lat="42.09198" lon="0.70035">
        <ele>687.8</ele>
        <time>2022-05-23 10:37:36</time>
      </trkpt>
      <trkpt lat="42.09197" lon="0.70033">
        <ele>688</ele>
        <time>2022-05-23 10:37:37</time>
      </trkpt>
      <trkpt lat="42.09196" lon="0.70031">
        <ele>688</ele>
        <time>2022-05-23 10:37:38</time>
      </trkpt>
      <trkpt lat="42.09195" lon="0.70029">
        <ele>688.2</ele>
        <time>2022-05-23 10:37:39</time>
      </trkpt>
      <trkpt lat="42.09195" lon="0.70026">
        <ele>688.4</ele>
        <time>2022-05-23 10:37:40</time>
      </trkpt>
      <trkpt lat="42.09194" lon="0.70024">
        <ele>688.4</ele>
        <time>2022-05-23 10:37:41</time>
      </trkpt>
      <trkpt lat="42.09193" lon="0.70021">
        <ele>688.6</ele>
        <time>2022-05-23 10:37:42</time>
      </trkpt>
      <trkpt lat="42.09193" lon="0.70018">
        <ele>688.8</ele>
        <time>2022-05-23 10:37:43</time>
      </trkpt>
      <trkpt lat="42.09192" lon="0.70015">
        <ele>689</ele>
        <time>2022-05-23 10:37:44</time>
      </trkpt>
      <trkpt lat="42.09192" lon="0.70012">
        <ele>689</ele>
        <time>2022-05-23 10:37:45</time>
      </trkpt>
      <trkpt lat="42.09192" lon="0.7001">
        <ele>689.2</ele>
        <time>2022-05-23 10:37:46</time>
      </trkpt>
      <trkpt lat="42.09191" lon="0.70007">
        <ele>689.2</ele>
        <time>2022-05-23 10:37:47</time>
      </trkpt>
      <trkpt lat="42.09191" lon="0.70004">
        <ele>689.4</ele>
        <time>2022-05-23 10:37:48</time>
      </trkpt>
      <trkpt lat="42.0919" lon="0.70002">
        <ele>689.4</ele>
        <time>2022-05-23 10:37:49</time>
      </trkpt>
      <trkpt lat="42.0919" lon="0.69999">
        <ele>689.4</ele>
        <time>2022-05-23 10:37:50</time>
      </trkpt>
      <trkpt lat="42.0919" lon="0.69996">
        <ele>689.6</ele>
        <time>2022-05-23 10:37:51</time>
      </trkpt>
      <trkpt lat="42.0919" lon="0.69993">
        <ele>689.6</ele>
        <time>2022-05-23 10:37:52</time>
      </trkpt>
      <trkpt lat="42.09189" lon="0.69991">
        <ele>689.8</ele>
        <time>2022-05-23 10:37:53</time>
      </trkpt>
      <trkpt lat="42.09188" lon="0.69989">
        <ele>689.8</ele>
        <time>2022-05-23 10:37:54</time>
      </trkpt>
      <trkpt lat="42.09188" lon="0.69986">
        <ele>689.8</ele>
        <time>2022-05-23 10:37:55</time>
      </trkpt>
      <trkpt lat="42.09188" lon="0.69983">
        <ele>690</ele>
        <time>2022-05-23 10:37:56</time>
      </trkpt>
      <trkpt lat="42.09188" lon="0.6998">
        <ele>690</ele>
        <time>2022-05-23 10:37:57</time>
      </trkpt>
      <trkpt lat="42.09188" lon="0.69976">
        <ele>690</ele>
        <time>2022-05-23 10:37:58</time>
      </trkpt>
      <trkpt lat="42.09187" lon="0.69973">
        <ele>690.2</ele>
        <time>2022-05-23 10:37:59</time>
      </trkpt>
      <trkpt lat="42.09187" lon="0.6997">
        <ele>690.2</ele>
        <time>2022-05-23 10:38:00</time>
      </trkpt>
      <trkpt lat="42.09187" lon="0.69967">
        <ele>690.4</ele>
        <time>2022-05-23 10:38:01</time>
      </trkpt>
      <trkpt lat="42.09186" lon="0.69964">
        <ele>690.6</ele>
        <time>2022-05-23 10:38:02</time>
      </trkpt>
      <trkpt lat="42.09186" lon="0.69961">
        <ele>690.6</ele>
        <time>2022-05-23 10:38:03</time>
      </trkpt>
      <trkpt lat="42.09185" lon="0.69958">
        <ele>690.6</ele>
        <time>2022-05-23 10:38:04</time>
      </trkpt>
      <trkpt lat="42.09184" lon="0.69955">
        <ele>690.6</ele>
        <time>2022-05-23 10:38:05</time>
      </trkpt>
      <trkpt lat="42.09183" lon="0.69952">
        <ele>690.8</ele>
        <time>2022-05-23 10:38:06</time>
      </trkpt>
      <trkpt lat="42.09182" lon="0.6995">
        <ele>690.8</ele>
        <time>2022-05-23 10:38:07</time>
      </trkpt>
      <trkpt lat="42.09181" lon="0.69947">
        <ele>690.8</ele>
        <time>2022-05-23 10:38:08</time>
      </trkpt>
      <trkpt lat="42.0918" lon="0.69945">
        <ele>691</ele>
        <time>2022-05-23 10:38:09</time>
      </trkpt>
      <trkpt lat="42.09178" lon="0.69943">
        <ele>691</ele>
        <time>2022-05-23 10:38:10</time>
      </trkpt>
      <trkpt lat="42.09176" lon="0.69942">
        <ele>691.2</ele>
        <time>2022-05-23 10:38:11</time>
      </trkpt>
      <trkpt lat="42.09174" lon="0.69942">
        <ele>691.4</ele>
        <time>2022-05-23 10:38:12</time>
      </trkpt>
      <trkpt lat="42.09172" lon="0.69942">
        <ele>691.6</ele>
        <time>2022-05-23 10:38:13</time>
      </trkpt>
      <trkpt lat="42.0917" lon="0.69942">
        <ele>691.8</ele>
        <time>2022-05-23 10:38:14</time>
      </trkpt>
      <trkpt lat="42.09168" lon="0.69943">
        <ele>692</ele>
        <time>2022-05-23 10:38:15</time>
      </trkpt>
      <trkpt lat="42.09166" lon="0.69944">
        <ele>692</ele>
        <time>2022-05-23 10:38:16</time>
      </trkpt>
      <trkpt lat="42.09164" lon="0.69945">
        <ele>692.2</ele>
        <time>2022-05-23 10:38:17</time>
      </trkpt>
      <trkpt lat="42.09163" lon="0.69947">
        <ele>692.4</ele>
        <time>2022-05-23 10:38:18</time>
      </trkpt>
      <trkpt lat="42.09162" lon="0.69949">
        <ele>692.4</ele>
        <time>2022-05-23 10:38:19</time>
      </trkpt>
      <trkpt lat="42.09161" lon="0.69951">
        <ele>692.6</ele>
        <time>2022-05-23 10:38:20</time>
      </trkpt>
      <trkpt lat="42.0916" lon="0.69953">
        <ele>692.8</ele>
        <time>2022-05-23 10:38:21</time>
      </trkpt>
      <trkpt lat="42.09159" lon="0.69955">
        <ele>692.8</ele>
        <time>2022-05-23 10:38:22</time>
      </trkpt>
      <trkpt lat="42.09158" lon="0.69957">
        <ele>693</ele>
        <time>2022-05-23 10:38:23</time>
      </trkpt>
      <trkpt lat="42.09157" lon="0.6996">
        <ele>693.2</ele>
        <time>2022-05-23 10:38:24</time>
      </trkpt>
      <trkpt lat="42.09156" lon="0.69962">
        <ele>693.2</ele>
        <time>2022-05-23 10:38:25</time>
      </trkpt>
      <trkpt lat="42.09155" lon="0.69965">
        <ele>693.4</ele>
        <time>2022-05-23 10:38:26</time>
      </trkpt>
      <trkpt lat="42.09154" lon="0.69967">
        <ele>693.6</ele>
        <time>2022-05-23 10:38:27</time>
      </trkpt>
      <trkpt lat="42.09153" lon="0.69969">
        <ele>693.8</ele>
        <time>2022-05-23 10:38:28</time>
      </trkpt>
      <trkpt lat="42.09152" lon="0.69972">
        <ele>694</ele>
        <time>2022-05-23 10:38:29</time>
      </trkpt>
      <trkpt lat="42.09152" lon="0.69974">
        <ele>694.2</ele>
        <time>2022-05-23 10:38:30</time>
      </trkpt>
      <trkpt lat="42.09151" lon="0.69977">
        <ele>694.4</ele>
        <time>2022-05-23 10:38:31</time>
      </trkpt>
      <trkpt lat="42.0915" lon="0.6998">
        <ele>694.4</ele>
        <time>2022-05-23 10:38:32</time>
      </trkpt>
      <trkpt lat="42.0915" lon="0.69982">
        <ele>694.6</ele>
        <time>2022-05-23 10:38:33</time>
      </trkpt>
      <trkpt lat="42.0915" lon="0.69984">
        <ele>694.8</ele>
        <time>2022-05-23 10:38:34</time>
      </trkpt>
      <trkpt lat="42.09149" lon="0.69987">
        <ele>695</ele>
        <time>2022-05-23 10:38:35</time>
      </trkpt>
      <trkpt lat="42.09148" lon="0.69989">
        <ele>695.2</ele>
        <time>2022-05-23 10:38:36</time>
      </trkpt>
      <trkpt lat="42.09148" lon="0.69992">
        <ele>695.4</ele>
        <time>2022-05-23 10:38:37</time>
      </trkpt>
      <trkpt lat="42.09148" lon="0.69994">
        <ele>695.6</ele>
        <time>2022-05-23 10:38:38</time>
      </trkpt>
      <trkpt lat="42.09148" lon="0.69996">
        <ele>695.6</ele>
        <time>2022-05-23 10:38:39</time>
      </trkpt>
      <trkpt lat="42.09147" lon="0.69998">
        <ele>695.8</ele>
        <time>2022-05-23 10:38:40</time>
      </trkpt>
      <trkpt lat="42.09146" lon="0.7">
        <ele>696</ele>
        <time>2022-05-23 10:38:41</time>
      </trkpt>
      <trkpt lat="42.09145" lon="0.70002">
        <ele>696.2</ele>
        <time>2022-05-23 10:38:42</time>
      </trkpt>
      <trkpt lat="42.09145" lon="0.70003">
        <ele>696.4</ele>
        <time>2022-05-23 10:38:43</time>
      </trkpt>
      <trkpt lat="42.09144" lon="0.70005">
        <ele>696.6</ele>
        <time>2022-05-23 10:38:44</time>
      </trkpt>
      <trkpt lat="42.09143" lon="0.70007">
        <ele>696.8</ele>
        <time>2022-05-23 10:38:45</time>
      </trkpt>
      <trkpt lat="42.09143" lon="0.70009">
        <ele>697</ele>
        <time>2022-05-23 10:38:46</time>
      </trkpt>
      <trkpt lat="42.09142" lon="0.70012">
        <ele>697.2</ele>
        <time>2022-05-23 10:38:47</time>
      </trkpt>
      <trkpt lat="42.09142" lon="0.70014">
        <ele>697.4</ele>
        <time>2022-05-23 10:38:48</time>
      </trkpt>
      <trkpt lat="42.09141" lon="0.70016">
        <ele>697.8</ele>
        <time>2022-05-23 10:38:49</time>
      </trkpt>
      <trkpt lat="42.09141" lon="0.70018">
        <ele>698</ele>
        <time>2022-05-23 10:38:50</time>
      </trkpt>
      <trkpt lat="42.09141" lon="0.7002">
        <ele>698.2</ele>
        <time>2022-05-23 10:38:51</time>
      </trkpt>
      <trkpt lat="42.09141" lon="0.70023">
        <ele>698.4</ele>
        <time>2022-05-23 10:38:52</time>
      </trkpt>
      <trkpt lat="42.0914" lon="0.70024">
        <ele>698.6</ele>
        <time>2022-05-23 10:38:53</time>
      </trkpt>
      <trkpt lat="42.0914" lon="0.70026">
        <ele>698.8</ele>
        <time>2022-05-23 10:38:54</time>
      </trkpt>
      <trkpt lat="42.09139" lon="0.70028">
        <ele>699</ele>
        <time>2022-05-23 10:38:55</time>
      </trkpt>
      <trkpt lat="42.09139" lon="0.7003">
        <ele>699.2</ele>
        <time>2022-05-23 10:38:56</time>
      </trkpt>
      <trkpt lat="42.09139" lon="0.70033">
        <ele>699.4</ele>
        <time>2022-05-23 10:38:57</time>
      </trkpt>
      <trkpt lat="42.09138" lon="0.70035">
        <ele>699.6</ele>
        <time>2022-05-23 10:38:58</time>
      </trkpt>
      <trkpt lat="42.09138" lon="0.70038">
        <ele>699.8</ele>
        <time>2022-05-23 10:38:59</time>
      </trkpt>
      <trkpt lat="42.09138" lon="0.7004">
        <ele>700</ele>
        <time>2022-05-23 10:39:00</time>
      </trkpt>
      <trkpt lat="42.09138" lon="0.70042">
        <ele>700.2</ele>
        <time>2022-05-23 10:39:01</time>
      </trkpt>
      <trkpt lat="42.09138" lon="0.70044">
        <ele>700.4</ele>
        <time>2022-05-23 10:39:02</time>
      </trkpt>
      <trkpt lat="42.09138" lon="0.70046">
        <ele>700.6</ele>
        <time>2022-05-23 10:39:03</time>
      </trkpt>
      <trkpt lat="42.09139" lon="0.70048">
        <ele>700.6</ele>
        <time>2022-05-23 10:39:04</time>
      </trkpt>
      <trkpt lat="42.09139" lon="0.70051">
        <ele>700.8</ele>
        <time>2022-05-23 10:39:05</time>
      </trkpt>
      <trkpt lat="42.0914" lon="0.70053">
        <ele>701</ele>
        <time>2022-05-23 10:39:06</time>
      </trkpt>
      <trkpt lat="42.0914" lon="0.70055">
        <ele>701.2</ele>
        <time>2022-05-23 10:39:07</time>
      </trkpt>
      <trkpt lat="42.0914" lon="0.70057">
        <ele>701.4</ele>
        <time>2022-05-23 10:39:08</time>
      </trkpt>
      <trkpt lat="42.0914" lon="0.70059">
        <ele>701.6</ele>
        <time>2022-05-23 10:39:09</time>
      </trkpt>
      <trkpt lat="42.09141" lon="0.70062">
        <ele>701.8</ele>
        <time>2022-05-23 10:39:10</time>
      </trkpt>
      <trkpt lat="42.09142" lon="0.70064">
        <ele>702</ele>
        <time>2022-05-23 10:39:11</time>
      </trkpt>
      <trkpt lat="42.09142" lon="0.70066">
        <ele>702.2</ele>
        <time>2022-05-23 10:39:12</time>
      </trkpt>
      <trkpt lat="42.09143" lon="0.70068">
        <ele>702.4</ele>
        <time>2022-05-23 10:39:13</time>
      </trkpt>
      <trkpt lat="42.09144" lon="0.7007">
        <ele>702.6</ele>
        <time>2022-05-23 10:39:14</time>
      </trkpt>
      <trkpt lat="42.09144" lon="0.70072">
        <ele>702.8</ele>
        <time>2022-05-23 10:39:15</time>
      </trkpt>
      <trkpt lat="42.09145" lon="0.70074">
        <ele>702.8</ele>
        <time>2022-05-23 10:39:16</time>
      </trkpt>
      <trkpt lat="42.09146" lon="0.70076">
        <ele>703</ele>
        <time>2022-05-23 10:39:17</time>
      </trkpt>
      <trkpt lat="42.09147" lon="0.70078">
        <ele>703.2</ele>
        <time>2022-05-23 10:39:18</time>
      </trkpt>
      <trkpt lat="42.09148" lon="0.7008">
        <ele>703.4</ele>
        <time>2022-05-23 10:39:19</time>
      </trkpt>
      <trkpt lat="42.09149" lon="0.70082">
        <ele>703.6</ele>
        <time>2022-05-23 10:39:20</time>
      </trkpt>
      <trkpt lat="42.0915" lon="0.70084">
        <ele>703.8</ele>
        <time>2022-05-23 10:39:21</time>
      </trkpt>
      <trkpt lat="42.0915" lon="0.70086">
        <ele>704</ele>
        <time>2022-05-23 10:39:22</time>
      </trkpt>
      <trkpt lat="42.09151" lon="0.70088">
        <ele>704</ele>
        <time>2022-05-23 10:39:23</time>
      </trkpt>
      <trkpt lat="42.09151" lon="0.7009">
        <ele>704.2</ele>
        <time>2022-05-23 10:39:24</time>
      </trkpt>
      <trkpt lat="42.09152" lon="0.70092">
        <ele>704.4</ele>
        <time>2022-05-23 10:39:25</time>
      </trkpt>
      <trkpt lat="42.09153" lon="0.70094">
        <ele>704.6</ele>
        <time>2022-05-23 10:39:26</time>
      </trkpt>
      <trkpt lat="42.09153" lon="0.70096">
        <ele>704.6</ele>
        <time>2022-05-23 10:39:27</time>
      </trkpt>
      <trkpt lat="42.09153" lon="0.70098">
        <ele>704.8</ele>
        <time>2022-05-23 10:39:28</time>
      </trkpt>
      <trkpt lat="42.09154" lon="0.701">
        <ele>705</ele>
        <time>2022-05-23 10:39:29</time>
      </trkpt>
      <trkpt lat="42.09154" lon="0.70101">
        <ele>705.2</ele>
        <time>2022-05-23 10:39:30</time>
      </trkpt>
      <trkpt lat="42.09155" lon="0.70104">
        <ele>705.2</ele>
        <time>2022-05-23 10:39:31</time>
      </trkpt>
      <trkpt lat="42.09156" lon="0.70107">
        <ele>705.4</ele>
        <time>2022-05-23 10:39:32</time>
      </trkpt>
      <trkpt lat="42.09157" lon="0.70108">
        <ele>705.6</ele>
        <time>2022-05-23 10:39:33</time>
      </trkpt>
      <trkpt lat="42.09158" lon="0.7011">
        <ele>705.6</ele>
        <time>2022-05-23 10:39:34</time>
      </trkpt>
      <trkpt lat="42.09158" lon="0.70113">
        <ele>705.8</ele>
        <time>2022-05-23 10:39:35</time>
      </trkpt>
      <trkpt lat="42.09159" lon="0.70114">
        <ele>706</ele>
        <time>2022-05-23 10:39:36</time>
      </trkpt>
      <trkpt lat="42.0916" lon="0.70117">
        <ele>706.2</ele>
        <time>2022-05-23 10:39:37</time>
      </trkpt>
      <trkpt lat="42.09161" lon="0.70119">
        <ele>706.2</ele>
        <time>2022-05-23 10:39:38</time>
      </trkpt>
      <trkpt lat="42.09161" lon="0.70121">
        <ele>706.4</ele>
        <time>2022-05-23 10:39:39</time>
      </trkpt>
      <trkpt lat="42.09162" lon="0.70123">
        <ele>706.6</ele>
        <time>2022-05-23 10:39:40</time>
      </trkpt>
      <trkpt lat="42.09162" lon="0.70125">
        <ele>706.8</ele>
        <time>2022-05-23 10:39:41</time>
      </trkpt>
      <trkpt lat="42.09163" lon="0.70127">
        <ele>707</ele>
        <time>2022-05-23 10:39:42</time>
      </trkpt>
      <trkpt lat="42.09163" lon="0.70129">
        <ele>707</ele>
        <time>2022-05-23 10:39:43</time>
      </trkpt>
      <trkpt lat="42.09163" lon="0.70131">
        <ele>707.2</ele>
        <time>2022-05-23 10:39:44</time>
      </trkpt>
      <trkpt lat="42.09164" lon="0.70134">
        <ele>707.4</ele>
        <time>2022-05-23 10:39:45</time>
      </trkpt>
      <trkpt lat="42.09164" lon="0.70136">
        <ele>707.6</ele>
        <time>2022-05-23 10:39:46</time>
      </trkpt>
      <trkpt lat="42.09164" lon="0.70139">
        <ele>707.6</ele>
        <time>2022-05-23 10:39:47</time>
      </trkpt>
      <trkpt lat="42.09164" lon="0.70141">
        <ele>707.8</ele>
        <time>2022-05-23 10:39:48</time>
      </trkpt>
      <trkpt lat="42.09164" lon="0.70143">
        <ele>708</ele>
        <time>2022-05-23 10:39:49</time>
      </trkpt>
      <trkpt lat="42.09164" lon="0.70145">
        <ele>708.2</ele>
        <time>2022-05-23 10:39:50</time>
      </trkpt>
      <trkpt lat="42.09164" lon="0.70148">
        <ele>708.2</ele>
        <time>2022-05-23 10:39:51</time>
      </trkpt>
      <trkpt lat="42.09164" lon="0.7015">
        <ele>708.4</ele>
        <time>2022-05-23 10:39:52</time>
      </trkpt>
      <trkpt lat="42.09164" lon="0.70152">
        <ele>708.6</ele>
        <time>2022-05-23 10:39:53</time>
      </trkpt>
      <trkpt lat="42.09164" lon="0.70154">
        <ele>708.8</ele>
        <time>2022-05-23 10:39:54</time>
      </trkpt>
      <trkpt lat="42.09165" lon="0.70156">
        <ele>709</ele>
        <time>2022-05-23 10:39:55</time>
      </trkpt>
      <trkpt lat="42.09165" lon="0.70158">
        <ele>709</ele>
        <time>2022-05-23 10:39:56</time>
      </trkpt>
      <trkpt lat="42.09165" lon="0.7016">
        <ele>709.2</ele>
        <time>2022-05-23 10:39:57</time>
      </trkpt>
      <trkpt lat="42.09165" lon="0.70162">
        <ele>709.4</ele>
        <time>2022-05-23 10:39:58</time>
      </trkpt>
      <trkpt lat="42.09165" lon="0.70164">
        <ele>709.6</ele>
        <time>2022-05-23 10:39:59</time>
      </trkpt>
      <trkpt lat="42.09165" lon="0.70166">
        <ele>709.6</ele>
        <time>2022-05-23 10:40:00</time>
      </trkpt>
      <trkpt lat="42.09165" lon="0.70168">
        <ele>709.8</ele>
        <time>2022-05-23 10:40:01</time>
      </trkpt>
      <trkpt lat="42.09165" lon="0.7017">
        <ele>710</ele>
        <time>2022-05-23 10:40:02</time>
      </trkpt>
      <trkpt lat="42.09164" lon="0.70172">
        <ele>710.2</ele>
        <time>2022-05-23 10:40:03</time>
      </trkpt>
      <trkpt lat="42.09164" lon="0.70174">
        <ele>710.2</ele>
        <time>2022-05-23 10:40:04</time>
      </trkpt>
      <trkpt lat="42.09164" lon="0.70176">
        <ele>710.4</ele>
        <time>2022-05-23 10:40:05</time>
      </trkpt>
      <trkpt lat="42.09163" lon="0.70178">
        <ele>710.6</ele>
        <time>2022-05-23 10:40:06</time>
      </trkpt>
      <trkpt lat="42.09163" lon="0.70181">
        <ele>710.8</ele>
        <time>2022-05-23 10:40:07</time>
      </trkpt>
      <trkpt lat="42.09163" lon="0.70183">
        <ele>710.8</ele>
        <time>2022-05-23 10:40:08</time>
      </trkpt>
      <trkpt lat="42.09162" lon="0.70185">
        <ele>711</ele>
        <time>2022-05-23 10:40:09</time>
      </trkpt>
      <trkpt lat="42.09161" lon="0.70188">
        <ele>711.2</ele>
        <time>2022-05-23 10:40:10</time>
      </trkpt>
      <trkpt lat="42.09161" lon="0.7019">
        <ele>711.4</ele>
        <time>2022-05-23 10:40:11</time>
      </trkpt>
      <trkpt lat="42.09159" lon="0.70192">
        <ele>711.4</ele>
        <time>2022-05-23 10:40:12</time>
      </trkpt>
      <trkpt lat="42.09158" lon="0.70194">
        <ele>711.6</ele>
        <time>2022-05-23 10:40:13</time>
      </trkpt>
      <trkpt lat="42.09158" lon="0.70196">
        <ele>711.8</ele>
        <time>2022-05-23 10:40:14</time>
      </trkpt>
      <trkpt lat="42.09157" lon="0.70198">
        <ele>712</ele>
        <time>2022-05-23 10:40:15</time>
      </trkpt>
      <trkpt lat="42.09156" lon="0.702">
        <ele>712.2</ele>
        <time>2022-05-23 10:40:16</time>
      </trkpt>
      <trkpt lat="42.09155" lon="0.70202">
        <ele>712.4</ele>
        <time>2022-05-23 10:40:17</time>
      </trkpt>
      <trkpt lat="42.09154" lon="0.70204">
        <ele>712.4</ele>
        <time>2022-05-23 10:40:18</time>
      </trkpt>
      <trkpt lat="42.09153" lon="0.70206">
        <ele>712.6</ele>
        <time>2022-05-23 10:40:19</time>
      </trkpt>
      <trkpt lat="42.09153" lon="0.70207">
        <ele>712.8</ele>
        <time>2022-05-23 10:40:20</time>
      </trkpt>
      <trkpt lat="42.09151" lon="0.70209">
        <ele>713</ele>
        <time>2022-05-23 10:40:21</time>
      </trkpt>
      <trkpt lat="42.0915" lon="0.70211">
        <ele>713</ele>
        <time>2022-05-23 10:40:22</time>
      </trkpt>
      <trkpt lat="42.09149" lon="0.70212">
        <ele>713.2</ele>
        <time>2022-05-23 10:40:23</time>
      </trkpt>
      <trkpt lat="42.09148" lon="0.70215">
        <ele>713.4</ele>
        <time>2022-05-23 10:40:24</time>
      </trkpt>
      <trkpt lat="42.09147" lon="0.70217">
        <ele>713.6</ele>
        <time>2022-05-23 10:40:25</time>
      </trkpt>
      <trkpt lat="42.09146" lon="0.70218">
        <ele>713.6</ele>
        <time>2022-05-23 10:40:26</time>
      </trkpt>
      <trkpt lat="42.09145" lon="0.7022">
        <ele>713.8</ele>
        <time>2022-05-23 10:40:27</time>
      </trkpt>
      <trkpt lat="42.09144" lon="0.70222">
        <ele>714</ele>
        <time>2022-05-23 10:40:28</time>
      </trkpt>
      <trkpt lat="42.09143" lon="0.70224">
        <ele>714.2</ele>
        <time>2022-05-23 10:40:29</time>
      </trkpt>
      <trkpt lat="42.09142" lon="0.70226">
        <ele>714.4</ele>
        <time>2022-05-23 10:40:30</time>
      </trkpt>
      <trkpt lat="42.09141" lon="0.70227">
        <ele>714.4</ele>
        <time>2022-05-23 10:40:31</time>
      </trkpt>
      <trkpt lat="42.0914" lon="0.70229">
        <ele>714.6</ele>
        <time>2022-05-23 10:40:32</time>
      </trkpt>
      <trkpt lat="42.09138" lon="0.70231">
        <ele>714.8</ele>
        <time>2022-05-23 10:40:33</time>
      </trkpt>
      <trkpt lat="42.09137" lon="0.70233">
        <ele>715</ele>
        <time>2022-05-23 10:40:34</time>
      </trkpt>
      <trkpt lat="42.09137" lon="0.70235">
        <ele>715.2</ele>
        <time>2022-05-23 10:40:35</time>
      </trkpt>
      <trkpt lat="42.09136" lon="0.70237">
        <ele>715.4</ele>
        <time>2022-05-23 10:40:36</time>
      </trkpt>
      <trkpt lat="42.09135" lon="0.70238">
        <ele>715.6</ele>
        <time>2022-05-23 10:40:37</time>
      </trkpt>
      <trkpt lat="42.09134" lon="0.7024">
        <ele>715.8</ele>
        <time>2022-05-23 10:40:38</time>
      </trkpt>
      <trkpt lat="42.09133" lon="0.70242">
        <ele>715.8</ele>
        <time>2022-05-23 10:40:39</time>
      </trkpt>
      <trkpt lat="42.09132" lon="0.70244">
        <ele>716</ele>
        <time>2022-05-23 10:40:40</time>
      </trkpt>
      <trkpt lat="42.09132" lon="0.70246">
        <ele>716.2</ele>
        <time>2022-05-23 10:40:41</time>
      </trkpt>
      <trkpt lat="42.09131" lon="0.70248">
        <ele>716.4</ele>
        <time>2022-05-23 10:40:42</time>
      </trkpt>
      <trkpt lat="42.0913" lon="0.7025">
        <ele>716.6</ele>
        <time>2022-05-23 10:40:43</time>
      </trkpt>
      <trkpt lat="42.09129" lon="0.70251">
        <ele>716.6</ele>
        <time>2022-05-23 10:40:44</time>
      </trkpt>
      <trkpt lat="42.09129" lon="0.70254">
        <ele>716.8</ele>
        <time>2022-05-23 10:40:45</time>
      </trkpt>
      <trkpt lat="42.09129" lon="0.70256">
        <ele>717</ele>
        <time>2022-05-23 10:40:46</time>
      </trkpt>
      <trkpt lat="42.09128" lon="0.70257">
        <ele>717.2</ele>
        <time>2022-05-23 10:40:47</time>
      </trkpt>
      <trkpt lat="42.09128" lon="0.7026">
        <ele>717.4</ele>
        <time>2022-05-23 10:40:48</time>
      </trkpt>
      <trkpt lat="42.09127" lon="0.70262">
        <ele>717.6</ele>
        <time>2022-05-23 10:40:49</time>
      </trkpt>
      <trkpt lat="42.09127" lon="0.70263">
        <ele>717.6</ele>
        <time>2022-05-23 10:40:50</time>
      </trkpt>
      <trkpt lat="42.09127" lon="0.70266">
        <ele>717.8</ele>
        <time>2022-05-23 10:40:51</time>
      </trkpt>
      <trkpt lat="42.09127" lon="0.70268">
        <ele>718</ele>
        <time>2022-05-23 10:40:52</time>
      </trkpt>
      <trkpt lat="42.09127" lon="0.7027">
        <ele>718.2</ele>
        <time>2022-05-23 10:40:53</time>
      </trkpt>
      <trkpt lat="42.09128" lon="0.70273">
        <ele>718.4</ele>
        <time>2022-05-23 10:40:54</time>
      </trkpt>
      <trkpt lat="42.09128" lon="0.70275">
        <ele>718.4</ele>
        <time>2022-05-23 10:40:55</time>
      </trkpt>
      <trkpt lat="42.09128" lon="0.70277">
        <ele>718.6</ele>
        <time>2022-05-23 10:40:56</time>
      </trkpt>
      <trkpt lat="42.09128" lon="0.70279">
        <ele>718.8</ele>
        <time>2022-05-23 10:40:57</time>
      </trkpt>
      <trkpt lat="42.09128" lon="0.70282">
        <ele>719</ele>
        <time>2022-05-23 10:40:58</time>
      </trkpt>
      <trkpt lat="42.09128" lon="0.70284">
        <ele>719</ele>
        <time>2022-05-23 10:40:59</time>
      </trkpt>
      <trkpt lat="42.09128" lon="0.70286">
        <ele>719.2</ele>
        <time>2022-05-23 10:41:00</time>
      </trkpt>
      <trkpt lat="42.09128" lon="0.70289">
        <ele>719.4</ele>
        <time>2022-05-23 10:41:01</time>
      </trkpt>
      <trkpt lat="42.09128" lon="0.70291">
        <ele>719.4</ele>
        <time>2022-05-23 10:41:02</time>
      </trkpt>
      <trkpt lat="42.09128" lon="0.70293">
        <ele>719.6</ele>
        <time>2022-05-23 10:41:03</time>
      </trkpt>
      <trkpt lat="42.09129" lon="0.70296">
        <ele>719.6</ele>
        <time>2022-05-23 10:41:04</time>
      </trkpt>
      <trkpt lat="42.09129" lon="0.70298">
        <ele>719.8</ele>
        <time>2022-05-23 10:41:05</time>
      </trkpt>
      <trkpt lat="42.09129" lon="0.703">
        <ele>720</ele>
        <time>2022-05-23 10:41:06</time>
      </trkpt>
      <trkpt lat="42.09129" lon="0.70302">
        <ele>720</ele>
        <time>2022-05-23 10:41:07</time>
      </trkpt>
      <trkpt lat="42.09129" lon="0.70304">
        <ele>720.2</ele>
        <time>2022-05-23 10:41:08</time>
      </trkpt>
      <trkpt lat="42.0913" lon="0.70307">
        <ele>720.4</ele>
        <time>2022-05-23 10:41:09</time>
      </trkpt>
      <trkpt lat="42.0913" lon="0.7031">
        <ele>720.4</ele>
        <time>2022-05-23 10:41:10</time>
      </trkpt>
      <trkpt lat="42.0913" lon="0.70312">
        <ele>720.6</ele>
        <time>2022-05-23 10:41:11</time>
      </trkpt>
      <trkpt lat="42.0913" lon="0.70314">
        <ele>720.8</ele>
        <time>2022-05-23 10:41:12</time>
      </trkpt>
      <trkpt lat="42.09131" lon="0.70316">
        <ele>720.8</ele>
        <time>2022-05-23 10:41:13</time>
      </trkpt>
      <trkpt lat="42.09131" lon="0.70319">
        <ele>721</ele>
        <time>2022-05-23 10:41:14</time>
      </trkpt>
      <trkpt lat="42.09131" lon="0.70321">
        <ele>721.2</ele>
        <time>2022-05-23 10:41:15</time>
      </trkpt>
      <trkpt lat="42.09131" lon="0.70323">
        <ele>721.4</ele>
        <time>2022-05-23 10:41:16</time>
      </trkpt>
      <trkpt lat="42.09132" lon="0.70325">
        <ele>721.4</ele>
        <time>2022-05-23 10:41:17</time>
      </trkpt>
      <trkpt lat="42.09132" lon="0.70328">
        <ele>721.6</ele>
        <time>2022-05-23 10:41:18</time>
      </trkpt>
      <trkpt lat="42.09132" lon="0.7033">
        <ele>721.8</ele>
        <time>2022-05-23 10:41:19</time>
      </trkpt>
      <trkpt lat="42.09132" lon="0.70333">
        <ele>721.8</ele>
        <time>2022-05-23 10:41:20</time>
      </trkpt>
      <trkpt lat="42.09132" lon="0.70335">
        <ele>722</ele>
        <time>2022-05-23 10:41:21</time>
      </trkpt>
      <trkpt lat="42.09133" lon="0.70337">
        <ele>722.2</ele>
        <time>2022-05-23 10:41:22</time>
      </trkpt>
      <trkpt lat="42.09133" lon="0.70339">
        <ele>722.4</ele>
        <time>2022-05-23 10:41:23</time>
      </trkpt>
      <trkpt lat="42.09133" lon="0.70342">
        <ele>722.4</ele>
        <time>2022-05-23 10:41:24</time>
      </trkpt>
      <trkpt lat="42.09134" lon="0.70344">
        <ele>722.6</ele>
        <time>2022-05-23 10:41:25</time>
      </trkpt>
      <trkpt lat="42.09135" lon="0.70346">
        <ele>722.8</ele>
        <time>2022-05-23 10:41:26</time>
      </trkpt>
      <trkpt lat="42.09135" lon="0.70348">
        <ele>723</ele>
        <time>2022-05-23 10:41:27</time>
      </trkpt>
      <trkpt lat="42.09136" lon="0.7035">
        <ele>723</ele>
        <time>2022-05-23 10:41:28</time>
      </trkpt>
      <trkpt lat="42.09137" lon="0.70352">
        <ele>723.2</ele>
        <time>2022-05-23 10:41:29</time>
      </trkpt>
      <trkpt lat="42.09139" lon="0.70353">
        <ele>723.4</ele>
        <time>2022-05-23 10:41:30</time>
      </trkpt>
      <trkpt lat="42.09139" lon="0.70355">
        <ele>723.4</ele>
        <time>2022-05-23 10:41:31</time>
      </trkpt>
      <trkpt lat="42.0914" lon="0.70357">
        <ele>723.6</ele>
        <time>2022-05-23 10:41:32</time>
      </trkpt>
      <trkpt lat="42.09142" lon="0.70358">
        <ele>723.8</ele>
        <time>2022-05-23 10:41:33</time>
      </trkpt>
      <trkpt lat="42.09143" lon="0.70359">
        <ele>724</ele>
        <time>2022-05-23 10:41:34</time>
      </trkpt>
      <trkpt lat="42.09144" lon="0.7036">
        <ele>724.2</ele>
        <time>2022-05-23 10:41:35</time>
      </trkpt>
      <trkpt lat="42.09145" lon="0.70361">
        <ele>724.2</ele>
        <time>2022-05-23 10:41:36</time>
      </trkpt>
      <trkpt lat="42.09146" lon="0.70362">
        <ele>724.4</ele>
        <time>2022-05-23 10:41:37</time>
      </trkpt>
      <trkpt lat="42.09148" lon="0.70363">
        <ele>724.6</ele>
        <time>2022-05-23 10:41:38</time>
      </trkpt>
      <trkpt lat="42.09149" lon="0.70364">
        <ele>724.8</ele>
        <time>2022-05-23 10:41:39</time>
      </trkpt>
      <trkpt lat="42.09151" lon="0.70364">
        <ele>724.8</ele>
        <time>2022-05-23 10:41:40</time>
      </trkpt>
      <trkpt lat="42.09152" lon="0.70365">
        <ele>725</ele>
        <time>2022-05-23 10:41:41</time>
      </trkpt>
      <trkpt lat="42.09153" lon="0.70366">
        <ele>725.2</ele>
        <time>2022-05-23 10:41:42</time>
      </trkpt>
      <trkpt lat="42.09155" lon="0.70367">
        <ele>725.4</ele>
        <time>2022-05-23 10:41:43</time>
      </trkpt>
      <trkpt lat="42.09156" lon="0.70368">
        <ele>725.6</ele>
        <time>2022-05-23 10:41:44</time>
      </trkpt>
      <trkpt lat="42.09157" lon="0.70369">
        <ele>725.8</ele>
        <time>2022-05-23 10:41:45</time>
      </trkpt>
      <trkpt lat="42.09159" lon="0.7037">
        <ele>725.8</ele>
        <time>2022-05-23 10:41:46</time>
      </trkpt>
      <trkpt lat="42.0916" lon="0.7037">
        <ele>726</ele>
        <time>2022-05-23 10:41:47</time>
      </trkpt>
      <trkpt lat="42.09161" lon="0.70371">
        <ele>726.2</ele>
        <time>2022-05-23 10:41:48</time>
      </trkpt>
      <trkpt lat="42.09163" lon="0.70372">
        <ele>726.4</ele>
        <time>2022-05-23 10:41:49</time>
      </trkpt>
      <trkpt lat="42.09164" lon="0.70373">
        <ele>726.4</ele>
        <time>2022-05-23 10:41:50</time>
      </trkpt>
      <trkpt lat="42.09166" lon="0.70373">
        <ele>726.6</ele>
        <time>2022-05-23 10:41:51</time>
      </trkpt>
      <trkpt lat="42.09167" lon="0.70375">
        <ele>726.8</ele>
        <time>2022-05-23 10:41:52</time>
      </trkpt>
      <trkpt lat="42.09168" lon="0.70376">
        <ele>727</ele>
        <time>2022-05-23 10:41:53</time>
      </trkpt>
      <trkpt lat="42.09169" lon="0.70377">
        <ele>727</ele>
        <time>2022-05-23 10:41:54</time>
      </trkpt>
      <trkpt lat="42.0917" lon="0.70378">
        <ele>727.2</ele>
        <time>2022-05-23 10:41:55</time>
      </trkpt>
      <trkpt lat="42.09172" lon="0.70379">
        <ele>727.4</ele>
        <time>2022-05-23 10:41:56</time>
      </trkpt>
      <trkpt lat="42.09173" lon="0.7038">
        <ele>727.6</ele>
        <time>2022-05-23 10:41:57</time>
      </trkpt>
      <trkpt lat="42.09174" lon="0.70382">
        <ele>727.6</ele>
        <time>2022-05-23 10:41:58</time>
      </trkpt>
      <trkpt lat="42.09176" lon="0.70383">
        <ele>727.8</ele>
        <time>2022-05-23 10:41:59</time>
      </trkpt>
      <trkpt lat="42.09177" lon="0.70385">
        <ele>728</ele>
        <time>2022-05-23 10:42:00</time>
      </trkpt>
      <trkpt lat="42.09178" lon="0.70386">
        <ele>728.2</ele>
        <time>2022-05-23 10:42:01</time>
      </trkpt>
      <trkpt lat="42.09179" lon="0.70388">
        <ele>728.2</ele>
        <time>2022-05-23 10:42:02</time>
      </trkpt>
      <trkpt lat="42.0918" lon="0.70389">
        <ele>728.4</ele>
        <time>2022-05-23 10:42:03</time>
      </trkpt>
      <trkpt lat="42.09181" lon="0.70391">
        <ele>728.6</ele>
        <time>2022-05-23 10:42:04</time>
      </trkpt>
      <trkpt lat="42.09182" lon="0.70392">
        <ele>728.6</ele>
        <time>2022-05-23 10:42:05</time>
      </trkpt>
      <trkpt lat="42.09184" lon="0.70394">
        <ele>728.8</ele>
        <time>2022-05-23 10:42:06</time>
      </trkpt>
      <trkpt lat="42.09185" lon="0.70396">
        <ele>728.8</ele>
        <time>2022-05-23 10:42:07</time>
      </trkpt>
      <trkpt lat="42.09187" lon="0.70398">
        <ele>729</ele>
        <time>2022-05-23 10:42:08</time>
      </trkpt>
      <trkpt lat="42.09188" lon="0.70399">
        <ele>729.2</ele>
        <time>2022-05-23 10:42:09</time>
      </trkpt>
      <trkpt lat="42.0919" lon="0.70402">
        <ele>729.2</ele>
        <time>2022-05-23 10:42:10</time>
      </trkpt>
      <trkpt lat="42.09191" lon="0.70404">
        <ele>729.4</ele>
        <time>2022-05-23 10:42:11</time>
      </trkpt>
      <trkpt lat="42.09192" lon="0.70406">
        <ele>729.4</ele>
        <time>2022-05-23 10:42:12</time>
      </trkpt>
      <trkpt lat="42.09193" lon="0.70407">
        <ele>729.6</ele>
        <time>2022-05-23 10:42:13</time>
      </trkpt>
      <trkpt lat="42.09194" lon="0.70409">
        <ele>729.6</ele>
        <time>2022-05-23 10:42:14</time>
      </trkpt>
      <trkpt lat="42.09196" lon="0.70411">
        <ele>729.8</ele>
        <time>2022-05-23 10:42:15</time>
      </trkpt>
      <trkpt lat="42.09197" lon="0.70412">
        <ele>730</ele>
        <time>2022-05-23 10:42:16</time>
      </trkpt>
      <trkpt lat="42.09198" lon="0.70414">
        <ele>730</ele>
        <time>2022-05-23 10:42:17</time>
      </trkpt>
      <trkpt lat="42.09199" lon="0.70416">
        <ele>730.2</ele>
        <time>2022-05-23 10:42:18</time>
      </trkpt>
      <trkpt lat="42.092" lon="0.70418">
        <ele>730.2</ele>
        <time>2022-05-23 10:42:19</time>
      </trkpt>
      <trkpt lat="42.09201" lon="0.7042">
        <ele>730.4</ele>
        <time>2022-05-23 10:42:20</time>
      </trkpt>
      <trkpt lat="42.09201" lon="0.70422">
        <ele>730.6</ele>
        <time>2022-05-23 10:42:21</time>
      </trkpt>
      <trkpt lat="42.09202" lon="0.70424">
        <ele>730.6</ele>
        <time>2022-05-23 10:42:22</time>
      </trkpt>
      <trkpt lat="42.09203" lon="0.70427">
        <ele>730.8</ele>
        <time>2022-05-23 10:42:23</time>
      </trkpt>
      <trkpt lat="42.09203" lon="0.70429">
        <ele>731</ele>
        <time>2022-05-23 10:42:24</time>
      </trkpt>
      <trkpt lat="42.09203" lon="0.70431">
        <ele>731.2</ele>
        <time>2022-05-23 10:42:25</time>
      </trkpt>
      <trkpt lat="42.09203" lon="0.70434">
        <ele>731.2</ele>
        <time>2022-05-23 10:42:26</time>
      </trkpt>
      <trkpt lat="42.09203" lon="0.70436">
        <ele>731.4</ele>
        <time>2022-05-23 10:42:27</time>
      </trkpt>
      <trkpt lat="42.09202" lon="0.70438">
        <ele>731.6</ele>
        <time>2022-05-23 10:42:28</time>
      </trkpt>
      <trkpt lat="42.09201" lon="0.7044">
        <ele>731.8</ele>
        <time>2022-05-23 10:42:29</time>
      </trkpt>
      <trkpt lat="42.092" lon="0.70442">
        <ele>732</ele>
        <time>2022-05-23 10:42:30</time>
      </trkpt>
      <trkpt lat="42.09198" lon="0.70443">
        <ele>732.2</ele>
        <time>2022-05-23 10:42:31</time>
      </trkpt>
      <trkpt lat="42.09197" lon="0.70445">
        <ele>732.4</ele>
        <time>2022-05-23 10:42:32</time>
      </trkpt>
      <trkpt lat="42.09196" lon="0.70446">
        <ele>732.4</ele>
        <time>2022-05-23 10:42:33</time>
      </trkpt>
      <trkpt lat="42.09195" lon="0.70448">
        <ele>732.6</ele>
        <time>2022-05-23 10:42:34</time>
      </trkpt>
      <trkpt lat="42.09193" lon="0.70449">
        <ele>732.8</ele>
        <time>2022-05-23 10:42:35</time>
      </trkpt>
      <trkpt lat="42.09192" lon="0.7045">
        <ele>733</ele>
        <time>2022-05-23 10:42:36</time>
      </trkpt>
      <trkpt lat="42.0919" lon="0.70451">
        <ele>733</ele>
        <time>2022-05-23 10:42:37</time>
      </trkpt>
      <trkpt lat="42.09189" lon="0.70452">
        <ele>733.2</ele>
        <time>2022-05-23 10:42:38</time>
      </trkpt>
      <trkpt lat="42.09187" lon="0.70453">
        <ele>733.4</ele>
        <time>2022-05-23 10:42:39</time>
      </trkpt>
      <trkpt lat="42.09186" lon="0.70454">
        <ele>733.6</ele>
        <time>2022-05-23 10:42:40</time>
      </trkpt>
      <trkpt lat="42.09184" lon="0.70455">
        <ele>733.6</ele>
        <time>2022-05-23 10:42:41</time>
      </trkpt>
      <trkpt lat="42.09183" lon="0.70456">
        <ele>733.8</ele>
        <time>2022-05-23 10:42:42</time>
      </trkpt>
      <trkpt lat="42.09181" lon="0.70457">
        <ele>734</ele>
        <time>2022-05-23 10:42:43</time>
      </trkpt>
      <trkpt lat="42.0918" lon="0.70458">
        <ele>734</ele>
        <time>2022-05-23 10:42:44</time>
      </trkpt>
      <trkpt lat="42.09177" lon="0.70458">
        <ele>734.2</ele>
        <time>2022-05-23 10:42:45</time>
      </trkpt>
      <trkpt lat="42.09175" lon="0.70459">
        <ele>734.4</ele>
        <time>2022-05-23 10:42:46</time>
      </trkpt>
      <trkpt lat="42.09174" lon="0.7046">
        <ele>734.4</ele>
        <time>2022-05-23 10:42:47</time>
      </trkpt>
      <trkpt lat="42.09173" lon="0.70461">
        <ele>734.6</ele>
        <time>2022-05-23 10:42:48</time>
      </trkpt>
      <trkpt lat="42.09171" lon="0.70462">
        <ele>734.8</ele>
        <time>2022-05-23 10:42:49</time>
      </trkpt>
      <trkpt lat="42.0917" lon="0.70464">
        <ele>734.8</ele>
        <time>2022-05-23 10:42:50</time>
      </trkpt>
      <trkpt lat="42.09168" lon="0.70464">
        <ele>735</ele>
        <time>2022-05-23 10:42:51</time>
      </trkpt>
      <trkpt lat="42.09166" lon="0.70465">
        <ele>735</ele>
        <time>2022-05-23 10:42:52</time>
      </trkpt>
      <trkpt lat="42.09165" lon="0.70466">
        <ele>735.2</ele>
        <time>2022-05-23 10:42:53</time>
      </trkpt>
      <trkpt lat="42.09164" lon="0.70467">
        <ele>735.2</ele>
        <time>2022-05-23 10:42:54</time>
      </trkpt>
      <trkpt lat="42.09162" lon="0.70468">
        <ele>735.4</ele>
        <time>2022-05-23 10:42:55</time>
      </trkpt>
      <trkpt lat="42.0916" lon="0.7047">
        <ele>735.6</ele>
        <time>2022-05-23 10:42:56</time>
      </trkpt>
      <trkpt lat="42.09158" lon="0.70471">
        <ele>735.6</ele>
        <time>2022-05-23 10:42:57</time>
      </trkpt>
      <trkpt lat="42.09157" lon="0.70472">
        <ele>735.8</ele>
        <time>2022-05-23 10:42:58</time>
      </trkpt>
      <trkpt lat="42.09156" lon="0.70473">
        <ele>735.8</ele>
        <time>2022-05-23 10:42:59</time>
      </trkpt>
      <trkpt lat="42.09155" lon="0.70474">
        <ele>736</ele>
        <time>2022-05-23 10:43:00</time>
      </trkpt>
      <trkpt lat="42.09153" lon="0.70475">
        <ele>736.2</ele>
        <time>2022-05-23 10:43:01</time>
      </trkpt>
      <trkpt lat="42.09152" lon="0.70476">
        <ele>736.2</ele>
        <time>2022-05-23 10:43:02</time>
      </trkpt>
      <trkpt lat="42.09151" lon="0.70477">
        <ele>736.4</ele>
        <time>2022-05-23 10:43:03</time>
      </trkpt>
      <trkpt lat="42.0915" lon="0.70478">
        <ele>736.4</ele>
        <time>2022-05-23 10:43:04</time>
      </trkpt>
      <trkpt lat="42.09148" lon="0.70479">
        <ele>736.6</ele>
        <time>2022-05-23 10:43:05</time>
      </trkpt>
      <trkpt lat="42.09147" lon="0.7048">
        <ele>736.6</ele>
        <time>2022-05-23 10:43:06</time>
      </trkpt>
      <trkpt lat="42.09146" lon="0.70481">
        <ele>736.8</ele>
        <time>2022-05-23 10:43:07</time>
      </trkpt>
      <trkpt lat="42.09144" lon="0.70482">
        <ele>737</ele>
        <time>2022-05-23 10:43:08</time>
      </trkpt>
      <trkpt lat="42.09142" lon="0.70484">
        <ele>737</ele>
        <time>2022-05-23 10:43:09</time>
      </trkpt>
      <trkpt lat="42.0914" lon="0.70484">
        <ele>737.2</ele>
        <time>2022-05-23 10:43:10</time>
      </trkpt>
      <trkpt lat="42.09139" lon="0.70485">
        <ele>737.4</ele>
        <time>2022-05-23 10:43:11</time>
      </trkpt>
      <trkpt lat="42.09137" lon="0.70487">
        <ele>737.6</ele>
        <time>2022-05-23 10:43:12</time>
      </trkpt>
      <trkpt lat="42.09136" lon="0.70488">
        <ele>737.8</ele>
        <time>2022-05-23 10:43:13</time>
      </trkpt>
      <trkpt lat="42.09134" lon="0.70489">
        <ele>738</ele>
        <time>2022-05-23 10:43:14</time>
      </trkpt>
      <trkpt lat="42.09132" lon="0.70491">
        <ele>738.2</ele>
        <time>2022-05-23 10:43:15</time>
      </trkpt>
      <trkpt lat="42.09131" lon="0.70493">
        <ele>738.4</ele>
        <time>2022-05-23 10:43:16</time>
      </trkpt>
      <trkpt lat="42.0913" lon="0.70495">
        <ele>738.6</ele>
        <time>2022-05-23 10:43:17</time>
      </trkpt>
      <trkpt lat="42.09129" lon="0.70497">
        <ele>738.8</ele>
        <time>2022-05-23 10:43:18</time>
      </trkpt>
      <trkpt lat="42.09127" lon="0.705">
        <ele>738.8</ele>
        <time>2022-05-23 10:43:19</time>
      </trkpt>
      <trkpt lat="42.09127" lon="0.70502">
        <ele>739</ele>
        <time>2022-05-23 10:43:20</time>
      </trkpt>
      <trkpt lat="42.09125" lon="0.70504">
        <ele>739.2</ele>
        <time>2022-05-23 10:43:21</time>
      </trkpt>
      <trkpt lat="42.09125" lon="0.70506">
        <ele>739.4</ele>
        <time>2022-05-23 10:43:22</time>
      </trkpt>
      <trkpt lat="42.09124" lon="0.70507">
        <ele>739.6</ele>
        <time>2022-05-23 10:43:23</time>
      </trkpt>
      <trkpt lat="42.09123" lon="0.7051">
        <ele>739.8</ele>
        <time>2022-05-23 10:43:24</time>
      </trkpt>
      <trkpt lat="42.09122" lon="0.70512">
        <ele>740</ele>
        <time>2022-05-23 10:43:25</time>
      </trkpt>
      <trkpt lat="42.09121" lon="0.70514">
        <ele>740.2</ele>
        <time>2022-05-23 10:43:26</time>
      </trkpt>
      <trkpt lat="42.0912" lon="0.70516">
        <ele>740.4</ele>
        <time>2022-05-23 10:43:27</time>
      </trkpt>
      <trkpt lat="42.09119" lon="0.70518">
        <ele>740.6</ele>
        <time>2022-05-23 10:43:28</time>
      </trkpt>
      <trkpt lat="42.09117" lon="0.70521">
        <ele>740.8</ele>
        <time>2022-05-23 10:43:29</time>
      </trkpt>
      <trkpt lat="42.09116" lon="0.70523">
        <ele>741</ele>
        <time>2022-05-23 10:43:30</time>
      </trkpt>
      <trkpt lat="42.09115" lon="0.70525">
        <ele>741</ele>
        <time>2022-05-23 10:43:31</time>
      </trkpt>
      <trkpt lat="42.09114" lon="0.70527">
        <ele>741.2</ele>
        <time>2022-05-23 10:43:32</time>
      </trkpt>
      <trkpt lat="42.09113" lon="0.70529">
        <ele>741.4</ele>
        <time>2022-05-23 10:43:33</time>
      </trkpt>
      <trkpt lat="42.09113" lon="0.70531">
        <ele>741.6</ele>
        <time>2022-05-23 10:43:34</time>
      </trkpt>
      <trkpt lat="42.09112" lon="0.70533">
        <ele>741.8</ele>
        <time>2022-05-23 10:43:35</time>
      </trkpt>
      <trkpt lat="42.09111" lon="0.70535">
        <ele>742</ele>
        <time>2022-05-23 10:43:36</time>
      </trkpt>
      <trkpt lat="42.0911" lon="0.70536">
        <ele>742.2</ele>
        <time>2022-05-23 10:43:37</time>
      </trkpt>
      <trkpt lat="42.09109" lon="0.70539">
        <ele>742.4</ele>
        <time>2022-05-23 10:43:38</time>
      </trkpt>
      <trkpt lat="42.09108" lon="0.70541">
        <ele>742.4</ele>
        <time>2022-05-23 10:43:39</time>
      </trkpt>
      <trkpt lat="42.09107" lon="0.70543">
        <ele>742.6</ele>
        <time>2022-05-23 10:43:40</time>
      </trkpt>
      <trkpt lat="42.09106" lon="0.70544">
        <ele>742.8</ele>
        <time>2022-05-23 10:43:41</time>
      </trkpt>
      <trkpt lat="42.09105" lon="0.70546">
        <ele>743</ele>
        <time>2022-05-23 10:43:42</time>
      </trkpt>
      <trkpt lat="42.09104" lon="0.70548">
        <ele>743</ele>
        <time>2022-05-23 10:43:43</time>
      </trkpt>
      <trkpt lat="42.09103" lon="0.70549">
        <ele>743.2</ele>
        <time>2022-05-23 10:43:44</time>
      </trkpt>
      <trkpt lat="42.09102" lon="0.70551">
        <ele>743.4</ele>
        <time>2022-05-23 10:43:45</time>
      </trkpt>
      <trkpt lat="42.09101" lon="0.70553">
        <ele>743.4</ele>
        <time>2022-05-23 10:43:46</time>
      </trkpt>
      <trkpt lat="42.091" lon="0.70554">
        <ele>743.6</ele>
        <time>2022-05-23 10:43:47</time>
      </trkpt>
      <trkpt lat="42.09099" lon="0.70556">
        <ele>743.8</ele>
        <time>2022-05-23 10:43:48</time>
      </trkpt>
      <trkpt lat="42.09098" lon="0.70558">
        <ele>743.8</ele>
        <time>2022-05-23 10:43:49</time>
      </trkpt>
      <trkpt lat="42.09097" lon="0.7056">
        <ele>744</ele>
        <time>2022-05-23 10:43:50</time>
      </trkpt>
      <trkpt lat="42.09096" lon="0.70562">
        <ele>744</ele>
        <time>2022-05-23 10:43:51</time>
      </trkpt>
      <trkpt lat="42.09095" lon="0.70564">
        <ele>744.2</ele>
        <time>2022-05-23 10:43:52</time>
      </trkpt>
      <trkpt lat="42.09094" lon="0.70565">
        <ele>744.2</ele>
        <time>2022-05-23 10:43:53</time>
      </trkpt>
      <trkpt lat="42.09093" lon="0.70567">
        <ele>744.4</ele>
        <time>2022-05-23 10:43:54</time>
      </trkpt>
      <trkpt lat="42.09093" lon="0.7057">
        <ele>744.6</ele>
        <time>2022-05-23 10:43:55</time>
      </trkpt>
      <trkpt lat="42.09092" lon="0.70572">
        <ele>744.6</ele>
        <time>2022-05-23 10:43:56</time>
      </trkpt>
      <trkpt lat="42.09091" lon="0.70573">
        <ele>744.8</ele>
        <time>2022-05-23 10:43:57</time>
      </trkpt>
      <trkpt lat="42.0909" lon="0.70576">
        <ele>744.8</ele>
        <time>2022-05-23 10:43:58</time>
      </trkpt>
      <trkpt lat="42.09089" lon="0.70578">
        <ele>745</ele>
        <time>2022-05-23 10:43:59</time>
      </trkpt>
      <trkpt lat="42.09088" lon="0.7058">
        <ele>745.2</ele>
        <time>2022-05-23 10:44:00</time>
      </trkpt>
      <trkpt lat="42.09087" lon="0.70581">
        <ele>745.2</ele>
        <time>2022-05-23 10:44:01</time>
      </trkpt>
      <trkpt lat="42.09086" lon="0.70583">
        <ele>745.4</ele>
        <time>2022-05-23 10:44:02</time>
      </trkpt>
      <trkpt lat="42.09085" lon="0.70585">
        <ele>745.6</ele>
        <time>2022-05-23 10:44:03</time>
      </trkpt>
      <trkpt lat="42.09084" lon="0.70587">
        <ele>745.6</ele>
        <time>2022-05-23 10:44:04</time>
      </trkpt>
      <trkpt lat="42.09083" lon="0.70589">
        <ele>745.8</ele>
        <time>2022-05-23 10:44:05</time>
      </trkpt>
      <trkpt lat="42.09082" lon="0.70591">
        <ele>745.8</ele>
        <time>2022-05-23 10:44:06</time>
      </trkpt>
      <trkpt lat="42.0908" lon="0.70593">
        <ele>746</ele>
        <time>2022-05-23 10:44:07</time>
      </trkpt>
      <trkpt lat="42.0908" lon="0.70594">
        <ele>746</ele>
        <time>2022-05-23 10:44:08</time>
      </trkpt>
      <trkpt lat="42.09078" lon="0.70596">
        <ele>746.2</ele>
        <time>2022-05-23 10:44:09</time>
      </trkpt>
      <trkpt lat="42.09077" lon="0.70597">
        <ele>746.4</ele>
        <time>2022-05-23 10:44:10</time>
      </trkpt>
      <trkpt lat="42.09076" lon="0.70599">
        <ele>746.4</ele>
        <time>2022-05-23 10:44:11</time>
      </trkpt>
      <trkpt lat="42.09075" lon="0.70601">
        <ele>746.6</ele>
        <time>2022-05-23 10:44:12</time>
      </trkpt>
      <trkpt lat="42.09074" lon="0.70603">
        <ele>746.6</ele>
        <time>2022-05-23 10:44:13</time>
      </trkpt>
      <trkpt lat="42.09074" lon="0.70605">
        <ele>746.8</ele>
        <time>2022-05-23 10:44:14</time>
      </trkpt>
      <trkpt lat="42.09073" lon="0.70606">
        <ele>747</ele>
        <time>2022-05-23 10:44:15</time>
      </trkpt>
      <trkpt lat="42.09071" lon="0.70608">
        <ele>747.2</ele>
        <time>2022-05-23 10:44:16</time>
      </trkpt>
      <trkpt lat="42.0907" lon="0.7061">
        <ele>747.4</ele>
        <time>2022-05-23 10:44:17</time>
      </trkpt>
      <trkpt lat="42.09069" lon="0.70612">
        <ele>747.4</ele>
        <time>2022-05-23 10:44:18</time>
      </trkpt>
      <trkpt lat="42.09067" lon="0.70614">
        <ele>747.6</ele>
        <time>2022-05-23 10:44:19</time>
      </trkpt>
      <trkpt lat="42.09066" lon="0.70616">
        <ele>747.8</ele>
        <time>2022-05-23 10:44:20</time>
      </trkpt>
      <trkpt lat="42.09065" lon="0.70617">
        <ele>748</ele>
        <time>2022-05-23 10:44:21</time>
      </trkpt>
      <trkpt lat="42.09064" lon="0.70619">
        <ele>748.2</ele>
        <time>2022-05-23 10:44:22</time>
      </trkpt>
      <trkpt lat="42.09063" lon="0.7062">
        <ele>748.4</ele>
        <time>2022-05-23 10:44:23</time>
      </trkpt>
      <trkpt lat="42.09063" lon="0.70622">
        <ele>748.4</ele>
        <time>2022-05-23 10:44:24</time>
      </trkpt>
      <trkpt lat="42.09061" lon="0.70624">
        <ele>748.6</ele>
        <time>2022-05-23 10:44:25</time>
      </trkpt>
      <trkpt lat="42.09061" lon="0.70625">
        <ele>748.8</ele>
        <time>2022-05-23 10:44:26</time>
      </trkpt>
      <trkpt lat="42.0906" lon="0.70627">
        <ele>749</ele>
        <time>2022-05-23 10:44:27</time>
      </trkpt>
      <trkpt lat="42.09059" lon="0.70628">
        <ele>749.2</ele>
        <time>2022-05-23 10:44:28</time>
      </trkpt>
      <trkpt lat="42.09058" lon="0.7063">
        <ele>749.2</ele>
        <time>2022-05-23 10:44:29</time>
      </trkpt>
      <trkpt lat="42.09057" lon="0.70632">
        <ele>749.4</ele>
        <time>2022-05-23 10:44:30</time>
      </trkpt>
      <trkpt lat="42.09056" lon="0.70634">
        <ele>749.6</ele>
        <time>2022-05-23 10:44:31</time>
      </trkpt>
      <trkpt lat="42.09056" lon="0.70635">
        <ele>749.8</ele>
        <time>2022-05-23 10:44:32</time>
      </trkpt>
      <trkpt lat="42.09055" lon="0.70637">
        <ele>750</ele>
        <time>2022-05-23 10:44:33</time>
      </trkpt>
      <trkpt lat="42.09053" lon="0.70639">
        <ele>750.2</ele>
        <time>2022-05-23 10:44:34</time>
      </trkpt>
      <trkpt lat="42.09053" lon="0.7064">
        <ele>750.4</ele>
        <time>2022-05-23 10:44:35</time>
      </trkpt>
      <trkpt lat="42.09051" lon="0.70642">
        <ele>750.6</ele>
        <time>2022-05-23 10:44:36</time>
      </trkpt>
      <trkpt lat="42.09051" lon="0.70644">
        <ele>750.8</ele>
        <time>2022-05-23 10:44:37</time>
      </trkpt>
      <trkpt lat="42.0905" lon="0.70646">
        <ele>751</ele>
        <time>2022-05-23 10:44:38</time>
      </trkpt>
      <trkpt lat="42.09049" lon="0.70647">
        <ele>751.2</ele>
        <time>2022-05-23 10:44:39</time>
      </trkpt>
      <trkpt lat="42.09048" lon="0.70649">
        <ele>751.4</ele>
        <time>2022-05-23 10:44:40</time>
      </trkpt>
      <trkpt lat="42.09048" lon="0.70651">
        <ele>751.6</ele>
        <time>2022-05-23 10:44:41</time>
      </trkpt>
      <trkpt lat="42.09047" lon="0.70653">
        <ele>751.8</ele>
        <time>2022-05-23 10:44:42</time>
      </trkpt>
      <trkpt lat="42.09047" lon="0.70655">
        <ele>751.8</ele>
        <time>2022-05-23 10:44:43</time>
      </trkpt>
      <trkpt lat="42.09046" lon="0.70657">
        <ele>752</ele>
        <time>2022-05-23 10:44:44</time>
      </trkpt>
      <trkpt lat="42.09046" lon="0.70659">
        <ele>752.2</ele>
        <time>2022-05-23 10:44:45</time>
      </trkpt>
      <trkpt lat="42.09046" lon="0.70661">
        <ele>752.4</ele>
        <time>2022-05-23 10:44:46</time>
      </trkpt>
      <trkpt lat="42.09045" lon="0.70664">
        <ele>752.6</ele>
        <time>2022-05-23 10:44:47</time>
      </trkpt>
      <trkpt lat="42.09045" lon="0.70666">
        <ele>752.8</ele>
        <time>2022-05-23 10:44:48</time>
      </trkpt>
      <trkpt lat="42.09045" lon="0.70668">
        <ele>753</ele>
        <time>2022-05-23 10:44:49</time>
      </trkpt>
      <trkpt lat="42.09045" lon="0.7067">
        <ele>753.2</ele>
        <time>2022-05-23 10:44:50</time>
      </trkpt>
      <trkpt lat="42.09046" lon="0.70672">
        <ele>753.4</ele>
        <time>2022-05-23 10:44:51</time>
      </trkpt>
      <trkpt lat="42.09046" lon="0.70674">
        <ele>753.6</ele>
        <time>2022-05-23 10:44:52</time>
      </trkpt>
      <trkpt lat="42.09046" lon="0.70676">
        <ele>753.8</ele>
        <time>2022-05-23 10:44:53</time>
      </trkpt>
      <trkpt lat="42.09047" lon="0.70678">
        <ele>754</ele>
        <time>2022-05-23 10:44:54</time>
      </trkpt>
      <trkpt lat="42.09047" lon="0.7068">
        <ele>754.2</ele>
        <time>2022-05-23 10:44:55</time>
      </trkpt>
      <trkpt lat="42.09048" lon="0.70682">
        <ele>754.4</ele>
        <time>2022-05-23 10:44:56</time>
      </trkpt>
      <trkpt lat="42.09049" lon="0.70683">
        <ele>754.6</ele>
        <time>2022-05-23 10:44:57</time>
      </trkpt>
      <trkpt lat="42.0905" lon="0.70684">
        <ele>754.8</ele>
        <time>2022-05-23 10:44:58</time>
      </trkpt>
      <trkpt lat="42.09052" lon="0.70686">
        <ele>755</ele>
        <time>2022-05-23 10:44:59</time>
      </trkpt>
      <trkpt lat="42.09053" lon="0.70687">
        <ele>755.2</ele>
        <time>2022-05-23 10:45:00</time>
      </trkpt>
      <trkpt lat="42.09054" lon="0.70687">
        <ele>755.4</ele>
        <time>2022-05-23 10:45:01</time>
      </trkpt>
      <trkpt lat="42.09055" lon="0.70688">
        <ele>755.6</ele>
        <time>2022-05-23 10:45:02</time>
      </trkpt>
      <trkpt lat="42.09057" lon="0.70688">
        <ele>755.8</ele>
        <time>2022-05-23 10:45:03</time>
      </trkpt>
      <trkpt lat="42.09058" lon="0.70688">
        <ele>756</ele>
        <time>2022-05-23 10:45:04</time>
      </trkpt>
      <trkpt lat="42.0906" lon="0.70689">
        <ele>756.2</ele>
        <time>2022-05-23 10:45:05</time>
      </trkpt>
      <trkpt lat="42.09061" lon="0.7069">
        <ele>756.4</ele>
        <time>2022-05-23 10:45:06</time>
      </trkpt>
      <trkpt lat="42.09062" lon="0.70691">
        <ele>756.6</ele>
        <time>2022-05-23 10:45:07</time>
      </trkpt>
      <trkpt lat="42.09063" lon="0.70691">
        <ele>756.6</ele>
        <time>2022-05-23 10:45:08</time>
      </trkpt>
      <trkpt lat="42.09065" lon="0.70691">
        <ele>756.8</ele>
        <time>2022-05-23 10:45:09</time>
      </trkpt>
      <trkpt lat="42.09066" lon="0.70691">
        <ele>757</ele>
        <time>2022-05-23 10:45:10</time>
      </trkpt>
      <trkpt lat="42.09068" lon="0.7069">
        <ele>757</ele>
        <time>2022-05-23 10:45:11</time>
      </trkpt>
      <trkpt lat="42.0907" lon="0.7069">
        <ele>757.2</ele>
        <time>2022-05-23 10:45:12</time>
      </trkpt>
      <trkpt lat="42.09071" lon="0.7069">
        <ele>757.4</ele>
        <time>2022-05-23 10:45:13</time>
      </trkpt>
      <trkpt lat="42.09073" lon="0.7069">
        <ele>757.6</ele>
        <time>2022-05-23 10:45:14</time>
      </trkpt>
      <trkpt lat="42.09074" lon="0.7069">
        <ele>757.8</ele>
        <time>2022-05-23 10:45:15</time>
      </trkpt>
      <trkpt lat="42.09076" lon="0.7069">
        <ele>757.8</ele>
        <time>2022-05-23 10:45:16</time>
      </trkpt>
      <trkpt lat="42.09077" lon="0.70689">
        <ele>758</ele>
        <time>2022-05-23 10:45:17</time>
      </trkpt>
      <trkpt lat="42.09079" lon="0.70689">
        <ele>758.2</ele>
        <time>2022-05-23 10:45:18</time>
      </trkpt>
      <trkpt lat="42.09081" lon="0.70688">
        <ele>758.4</ele>
        <time>2022-05-23 10:45:19</time>
      </trkpt>
      <trkpt lat="42.09082" lon="0.70687">
        <ele>758.4</ele>
        <time>2022-05-23 10:45:20</time>
      </trkpt>
      <trkpt lat="42.09084" lon="0.70687">
        <ele>758.6</ele>
        <time>2022-05-23 10:45:21</time>
      </trkpt>
      <trkpt lat="42.09086" lon="0.70687">
        <ele>758.6</ele>
        <time>2022-05-23 10:45:22</time>
      </trkpt>
      <trkpt lat="42.09088" lon="0.70688">
        <ele>758.8</ele>
        <time>2022-05-23 10:45:23</time>
      </trkpt>
      <trkpt lat="42.0909" lon="0.70688">
        <ele>759</ele>
        <time>2022-05-23 10:45:24</time>
      </trkpt>
      <trkpt lat="42.09091" lon="0.70688">
        <ele>759</ele>
        <time>2022-05-23 10:45:25</time>
      </trkpt>
      <trkpt lat="42.09093" lon="0.70688">
        <ele>759.2</ele>
        <time>2022-05-23 10:45:26</time>
      </trkpt>
      <trkpt lat="42.09095" lon="0.70688">
        <ele>759.4</ele>
        <time>2022-05-23 10:45:27</time>
      </trkpt>
      <trkpt lat="42.09097" lon="0.70688">
        <ele>759.4</ele>
        <time>2022-05-23 10:45:28</time>
      </trkpt>
      <trkpt lat="42.09098" lon="0.70688">
        <ele>759.6</ele>
        <time>2022-05-23 10:45:29</time>
      </trkpt>
      <trkpt lat="42.091" lon="0.70688">
        <ele>759.6</ele>
        <time>2022-05-23 10:45:30</time>
      </trkpt>
      <trkpt lat="42.09102" lon="0.70688">
        <ele>759.8</ele>
        <time>2022-05-23 10:45:31</time>
      </trkpt>
      <trkpt lat="42.09103" lon="0.70688">
        <ele>759.8</ele>
        <time>2022-05-23 10:45:32</time>
      </trkpt>
      <trkpt lat="42.09105" lon="0.70688">
        <ele>760</ele>
        <time>2022-05-23 10:45:33</time>
      </trkpt>
      <trkpt lat="42.09106" lon="0.70688">
        <ele>760</ele>
        <time>2022-05-23 10:45:34</time>
      </trkpt>
      <trkpt lat="42.09108" lon="0.70687">
        <ele>760.2</ele>
        <time>2022-05-23 10:45:35</time>
      </trkpt>
      <trkpt lat="42.0911" lon="0.70687">
        <ele>760.4</ele>
        <time>2022-05-23 10:45:36</time>
      </trkpt>
      <trkpt lat="42.09111" lon="0.70687">
        <ele>760.4</ele>
        <time>2022-05-23 10:45:37</time>
      </trkpt>
      <trkpt lat="42.09112" lon="0.70687">
        <ele>760.6</ele>
        <time>2022-05-23 10:45:38</time>
      </trkpt>
      <trkpt lat="42.09114" lon="0.70687">
        <ele>760.8</ele>
        <time>2022-05-23 10:45:39</time>
      </trkpt>
      <trkpt lat="42.09115" lon="0.70687">
        <ele>760.8</ele>
        <time>2022-05-23 10:45:40</time>
      </trkpt>
      <trkpt lat="42.09117" lon="0.70687">
        <ele>761</ele>
        <time>2022-05-23 10:45:41</time>
      </trkpt>
      <trkpt lat="42.09118" lon="0.70687">
        <ele>761.2</ele>
        <time>2022-05-23 10:45:42</time>
      </trkpt>
      <trkpt lat="42.0912" lon="0.70688">
        <ele>761.4</ele>
        <time>2022-05-23 10:45:43</time>
      </trkpt>
      <trkpt lat="42.09121" lon="0.70688">
        <ele>761.6</ele>
        <time>2022-05-23 10:45:44</time>
      </trkpt>
      <trkpt lat="42.09123" lon="0.70688">
        <ele>761.6</ele>
        <time>2022-05-23 10:45:45</time>
      </trkpt>
      <trkpt lat="42.09124" lon="0.70688">
        <ele>761.8</ele>
        <time>2022-05-23 10:45:46</time>
      </trkpt>
      <trkpt lat="42.09126" lon="0.70689">
        <ele>762</ele>
        <time>2022-05-23 10:45:47</time>
      </trkpt>
      <trkpt lat="42.09127" lon="0.70689">
        <ele>762</ele>
        <time>2022-05-23 10:45:48</time>
      </trkpt>
      <trkpt lat="42.09127" lon="0.70689">
        <ele>762.2</ele>
        <time>2022-05-23 10:45:49</time>
      </trkpt>
      <trkpt lat="42.09129" lon="0.7069">
        <ele>762.4</ele>
        <time>2022-05-23 10:45:50</time>
      </trkpt>
      <trkpt lat="42.09129" lon="0.70691">
        <ele>762.6</ele>
        <time>2022-05-23 10:45:51</time>
      </trkpt>
      <trkpt lat="42.09131" lon="0.70692">
        <ele>762.8</ele>
        <time>2022-05-23 10:45:52</time>
      </trkpt>
      <trkpt lat="42.09132" lon="0.70693">
        <ele>763</ele>
        <time>2022-05-23 10:45:53</time>
      </trkpt>
      <trkpt lat="42.09133" lon="0.70694">
        <ele>763.2</ele>
        <time>2022-05-23 10:45:54</time>
      </trkpt>
      <trkpt lat="42.09134" lon="0.70695">
        <ele>763.4</ele>
        <time>2022-05-23 10:45:55</time>
      </trkpt>
      <trkpt lat="42.09134" lon="0.70697">
        <ele>763.4</ele>
        <time>2022-05-23 10:45:56</time>
      </trkpt>
      <trkpt lat="42.09135" lon="0.70698">
        <ele>763.6</ele>
        <time>2022-05-23 10:45:57</time>
      </trkpt>
      <trkpt lat="42.09136" lon="0.707">
        <ele>763.8</ele>
        <time>2022-05-23 10:45:58</time>
      </trkpt>
      <trkpt lat="42.09137" lon="0.70701">
        <ele>764</ele>
        <time>2022-05-23 10:45:59</time>
      </trkpt>
      <trkpt lat="42.09137" lon="0.70703">
        <ele>764.2</ele>
        <time>2022-05-23 10:46:00</time>
      </trkpt>
      <trkpt lat="42.09138" lon="0.70705">
        <ele>764.4</ele>
        <time>2022-05-23 10:46:01</time>
      </trkpt>
      <trkpt lat="42.09139" lon="0.70707">
        <ele>764.6</ele>
        <time>2022-05-23 10:46:02</time>
      </trkpt>
      <trkpt lat="42.09139" lon="0.70708">
        <ele>764.8</ele>
        <time>2022-05-23 10:46:03</time>
      </trkpt>
      <trkpt lat="42.0914" lon="0.7071">
        <ele>764.8</ele>
        <time>2022-05-23 10:46:04</time>
      </trkpt>
      <trkpt lat="42.0914" lon="0.70712">
        <ele>765</ele>
        <time>2022-05-23 10:46:05</time>
      </trkpt>
      <trkpt lat="42.09141" lon="0.70714">
        <ele>765.2</ele>
        <time>2022-05-23 10:46:06</time>
      </trkpt>
      <trkpt lat="42.09142" lon="0.70716">
        <ele>765.4</ele>
        <time>2022-05-23 10:46:07</time>
      </trkpt>
      <trkpt lat="42.09142" lon="0.70718">
        <ele>765.6</ele>
        <time>2022-05-23 10:46:08</time>
      </trkpt>
      <trkpt lat="42.09142" lon="0.7072">
        <ele>765.6</ele>
        <time>2022-05-23 10:46:09</time>
      </trkpt>
      <trkpt lat="42.09142" lon="0.70722">
        <ele>765.8</ele>
        <time>2022-05-23 10:46:10</time>
      </trkpt>
      <trkpt lat="42.09142" lon="0.70724">
        <ele>766</ele>
        <time>2022-05-23 10:46:11</time>
      </trkpt>
      <trkpt lat="42.09142" lon="0.70726">
        <ele>766</ele>
        <time>2022-05-23 10:46:12</time>
      </trkpt>
      <trkpt lat="42.09141" lon="0.70728">
        <ele>766.2</ele>
        <time>2022-05-23 10:46:13</time>
      </trkpt>
      <trkpt lat="42.09141" lon="0.70731">
        <ele>766.4</ele>
        <time>2022-05-23 10:46:14</time>
      </trkpt>
      <trkpt lat="42.09141" lon="0.70733">
        <ele>766.6</ele>
        <time>2022-05-23 10:46:15</time>
      </trkpt>
      <trkpt lat="42.0914" lon="0.70735">
        <ele>766.6</ele>
        <time>2022-05-23 10:46:16</time>
      </trkpt>
      <trkpt lat="42.0914" lon="0.70737">
        <ele>766.8</ele>
        <time>2022-05-23 10:46:17</time>
      </trkpt>
      <trkpt lat="42.09139" lon="0.70739">
        <ele>767</ele>
        <time>2022-05-23 10:46:18</time>
      </trkpt>
      <trkpt lat="42.09138" lon="0.70741">
        <ele>767.2</ele>
        <time>2022-05-23 10:46:19</time>
      </trkpt>
      <trkpt lat="42.09138" lon="0.70743">
        <ele>767.2</ele>
        <time>2022-05-23 10:46:20</time>
      </trkpt>
      <trkpt lat="42.09137" lon="0.70745">
        <ele>767.4</ele>
        <time>2022-05-23 10:46:21</time>
      </trkpt>
      <trkpt lat="42.09137" lon="0.70747">
        <ele>767.6</ele>
        <time>2022-05-23 10:46:22</time>
      </trkpt>
      <trkpt lat="42.09136" lon="0.70749">
        <ele>767.6</ele>
        <time>2022-05-23 10:46:23</time>
      </trkpt>
      <trkpt lat="42.09135" lon="0.70751">
        <ele>767.8</ele>
        <time>2022-05-23 10:46:24</time>
      </trkpt>
      <trkpt lat="42.09135" lon="0.70753">
        <ele>768</ele>
        <time>2022-05-23 10:46:25</time>
      </trkpt>
      <trkpt lat="42.09134" lon="0.70755">
        <ele>768</ele>
        <time>2022-05-23 10:46:26</time>
      </trkpt>
      <trkpt lat="42.09133" lon="0.70757">
        <ele>768.2</ele>
        <time>2022-05-23 10:46:27</time>
      </trkpt>
      <trkpt lat="42.09132" lon="0.70759">
        <ele>768.4</ele>
        <time>2022-05-23 10:46:28</time>
      </trkpt>
      <trkpt lat="42.09132" lon="0.70761">
        <ele>768.4</ele>
        <time>2022-05-23 10:46:29</time>
      </trkpt>
      <trkpt lat="42.09131" lon="0.70763">
        <ele>768.6</ele>
        <time>2022-05-23 10:46:30</time>
      </trkpt>
      <trkpt lat="42.0913" lon="0.70764">
        <ele>768.6</ele>
        <time>2022-05-23 10:46:31</time>
      </trkpt>
      <trkpt lat="42.09129" lon="0.70766">
        <ele>768.8</ele>
        <time>2022-05-23 10:46:32</time>
      </trkpt>
      <trkpt lat="42.09129" lon="0.70768">
        <ele>768.8</ele>
        <time>2022-05-23 10:46:33</time>
      </trkpt>
      <trkpt lat="42.09128" lon="0.7077">
        <ele>769</ele>
        <time>2022-05-23 10:46:34</time>
      </trkpt>
      <trkpt lat="42.09127" lon="0.70772">
        <ele>769</ele>
        <time>2022-05-23 10:46:35</time>
      </trkpt>
      <trkpt lat="42.09127" lon="0.70774">
        <ele>769.2</ele>
        <time>2022-05-23 10:46:36</time>
      </trkpt>
      <trkpt lat="42.09126" lon="0.70776">
        <ele>769.4</ele>
        <time>2022-05-23 10:46:37</time>
      </trkpt>
      <trkpt lat="42.09125" lon="0.70779">
        <ele>769.4</ele>
        <time>2022-05-23 10:46:38</time>
      </trkpt>
      <trkpt lat="42.09124" lon="0.70781">
        <ele>769.6</ele>
        <time>2022-05-23 10:46:39</time>
      </trkpt>
      <trkpt lat="42.09124" lon="0.70783">
        <ele>769.8</ele>
        <time>2022-05-23 10:46:40</time>
      </trkpt>
      <trkpt lat="42.09123" lon="0.70785">
        <ele>770</ele>
        <time>2022-05-23 10:46:41</time>
      </trkpt>
      <trkpt lat="42.09122" lon="0.70788">
        <ele>770</ele>
        <time>2022-05-23 10:46:42</time>
      </trkpt>
      <trkpt lat="42.09121" lon="0.7079">
        <ele>770.2</ele>
        <time>2022-05-23 10:46:43</time>
      </trkpt>
      <trkpt lat="42.09121" lon="0.70791">
        <ele>770.4</ele>
        <time>2022-05-23 10:46:44</time>
      </trkpt>
      <trkpt lat="42.0912" lon="0.70793">
        <ele>770.6</ele>
        <time>2022-05-23 10:46:45</time>
      </trkpt>
      <trkpt lat="42.09119" lon="0.70795">
        <ele>770.6</ele>
        <time>2022-05-23 10:46:46</time>
      </trkpt>
      <trkpt lat="42.09119" lon="0.70797">
        <ele>770.8</ele>
        <time>2022-05-23 10:46:47</time>
      </trkpt>
      <trkpt lat="42.09119" lon="0.70799">
        <ele>771</ele>
        <time>2022-05-23 10:46:48</time>
      </trkpt>
      <trkpt lat="42.09118" lon="0.70801">
        <ele>771.2</ele>
        <time>2022-05-23 10:46:49</time>
      </trkpt>
      <trkpt lat="42.09117" lon="0.70803">
        <ele>771.4</ele>
        <time>2022-05-23 10:46:50</time>
      </trkpt>
      <trkpt lat="42.09117" lon="0.70805">
        <ele>771.4</ele>
        <time>2022-05-23 10:46:51</time>
      </trkpt>
      <trkpt lat="42.09116" lon="0.70806">
        <ele>771.6</ele>
        <time>2022-05-23 10:46:52</time>
      </trkpt>
      <trkpt lat="42.09115" lon="0.70808">
        <ele>771.8</ele>
        <time>2022-05-23 10:46:53</time>
      </trkpt>
      <trkpt lat="42.09114" lon="0.7081">
        <ele>772</ele>
        <time>2022-05-23 10:46:54</time>
      </trkpt>
      <trkpt lat="42.09114" lon="0.70811">
        <ele>772.2</ele>
        <time>2022-05-23 10:46:55</time>
      </trkpt>
      <trkpt lat="42.09113" lon="0.70813">
        <ele>772.2</ele>
        <time>2022-05-23 10:46:56</time>
      </trkpt>
      <trkpt lat="42.09113" lon="0.70815">
        <ele>772.4</ele>
        <time>2022-05-23 10:46:57</time>
      </trkpt>
      <trkpt lat="42.09113" lon="0.70817">
        <ele>772.6</ele>
        <time>2022-05-23 10:46:58</time>
      </trkpt>
      <trkpt lat="42.09112" lon="0.70819">
        <ele>772.8</ele>
        <time>2022-05-23 10:46:59</time>
      </trkpt>
      <trkpt lat="42.09112" lon="0.70821">
        <ele>773</ele>
        <time>2022-05-23 10:47:00</time>
      </trkpt>
      <trkpt lat="42.09111" lon="0.70824">
        <ele>773.2</ele>
        <time>2022-05-23 10:47:01</time>
      </trkpt>
      <trkpt lat="42.0911" lon="0.70825">
        <ele>773.2</ele>
        <time>2022-05-23 10:47:02</time>
      </trkpt>
      <trkpt lat="42.09109" lon="0.70828">
        <ele>773.4</ele>
        <time>2022-05-23 10:47:03</time>
      </trkpt>
      <trkpt lat="42.09109" lon="0.70829">
        <ele>773.6</ele>
        <time>2022-05-23 10:47:04</time>
      </trkpt>
      <trkpt lat="42.09108" lon="0.70831">
        <ele>773.8</ele>
        <time>2022-05-23 10:47:05</time>
      </trkpt>
      <trkpt lat="42.09107" lon="0.70833">
        <ele>774</ele>
        <time>2022-05-23 10:47:06</time>
      </trkpt>
      <trkpt lat="42.09106" lon="0.70835">
        <ele>774.2</ele>
        <time>2022-05-23 10:47:07</time>
      </trkpt>
      <trkpt lat="42.09106" lon="0.70837">
        <ele>774.4</ele>
        <time>2022-05-23 10:47:08</time>
      </trkpt>
      <trkpt lat="42.09105" lon="0.70839">
        <ele>774.6</ele>
        <time>2022-05-23 10:47:09</time>
      </trkpt>
      <trkpt lat="42.09105" lon="0.70841">
        <ele>774.8</ele>
        <time>2022-05-23 10:47:10</time>
      </trkpt>
      <trkpt lat="42.09104" lon="0.70843">
        <ele>775</ele>
        <time>2022-05-23 10:47:11</time>
      </trkpt>
      <trkpt lat="42.09104" lon="0.70845">
        <ele>775</ele>
        <time>2022-05-23 10:47:12</time>
      </trkpt>
      <trkpt lat="42.09103" lon="0.70847">
        <ele>775.2</ele>
        <time>2022-05-23 10:47:13</time>
      </trkpt>
      <trkpt lat="42.09103" lon="0.70849">
        <ele>775.4</ele>
        <time>2022-05-23 10:47:14</time>
      </trkpt>
      <trkpt lat="42.09102" lon="0.70851">
        <ele>775.6</ele>
        <time>2022-05-23 10:47:15</time>
      </trkpt>
      <trkpt lat="42.09101" lon="0.70853">
        <ele>775.8</ele>
        <time>2022-05-23 10:47:16</time>
      </trkpt>
      <trkpt lat="42.09101" lon="0.70855">
        <ele>776</ele>
        <time>2022-05-23 10:47:17</time>
      </trkpt>
      <trkpt lat="42.09101" lon="0.70857">
        <ele>776.2</ele>
        <time>2022-05-23 10:47:18</time>
      </trkpt>
      <trkpt lat="42.09101" lon="0.70859">
        <ele>776.4</ele>
        <time>2022-05-23 10:47:19</time>
      </trkpt>
      <trkpt lat="42.091" lon="0.70861">
        <ele>776.4</ele>
        <time>2022-05-23 10:47:20</time>
      </trkpt>
      <trkpt lat="42.091" lon="0.70863">
        <ele>776.6</ele>
        <time>2022-05-23 10:47:21</time>
      </trkpt>
      <trkpt lat="42.091" lon="0.70865">
        <ele>776.8</ele>
        <time>2022-05-23 10:47:22</time>
      </trkpt>
      <trkpt lat="42.09099" lon="0.70867">
        <ele>777</ele>
        <time>2022-05-23 10:47:23</time>
      </trkpt>
      <trkpt lat="42.09098" lon="0.70869">
        <ele>777.2</ele>
        <time>2022-05-23 10:47:24</time>
      </trkpt>
      <trkpt lat="42.09098" lon="0.70871">
        <ele>777.4</ele>
        <time>2022-05-23 10:47:25</time>
      </trkpt>
      <trkpt lat="42.09097" lon="0.70873">
        <ele>777.6</ele>
        <time>2022-05-23 10:47:26</time>
      </trkpt>
      <trkpt lat="42.09097" lon="0.70875">
        <ele>777.8</ele>
        <time>2022-05-23 10:47:27</time>
      </trkpt>
      <trkpt lat="42.09096" lon="0.70877">
        <ele>778</ele>
        <time>2022-05-23 10:47:28</time>
      </trkpt>
      <trkpt lat="42.09096" lon="0.70879">
        <ele>778.2</ele>
        <time>2022-05-23 10:47:29</time>
      </trkpt>
      <trkpt lat="42.09096" lon="0.70882">
        <ele>778.2</ele>
        <time>2022-05-23 10:47:30</time>
      </trkpt>
      <trkpt lat="42.09095" lon="0.70884">
        <ele>778.4</ele>
        <time>2022-05-23 10:47:31</time>
      </trkpt>
      <trkpt lat="42.09095" lon="0.70886">
        <ele>778.6</ele>
        <time>2022-05-23 10:47:32</time>
      </trkpt>
      <trkpt lat="42.09095" lon="0.70888">
        <ele>778.8</ele>
        <time>2022-05-23 10:47:33</time>
      </trkpt>
      <trkpt lat="42.09094" lon="0.7089">
        <ele>779</ele>
        <time>2022-05-23 10:47:34</time>
      </trkpt>
      <trkpt lat="42.09093" lon="0.70892">
        <ele>779.2</ele>
        <time>2022-05-23 10:47:35</time>
      </trkpt>
      <trkpt lat="42.09092" lon="0.70894">
        <ele>779.4</ele>
        <time>2022-05-23 10:47:36</time>
      </trkpt>
      <trkpt lat="42.09092" lon="0.70896">
        <ele>779.6</ele>
        <time>2022-05-23 10:47:37</time>
      </trkpt>
      <trkpt lat="42.0909" lon="0.70897">
        <ele>779.6</ele>
        <time>2022-05-23 10:47:38</time>
      </trkpt>
      <trkpt lat="42.09089" lon="0.70899">
        <ele>779.8</ele>
        <time>2022-05-23 10:47:39</time>
      </trkpt>
      <trkpt lat="42.09088" lon="0.709">
        <ele>780</ele>
        <time>2022-05-23 10:47:40</time>
      </trkpt>
      <trkpt lat="42.09087" lon="0.70901">
        <ele>780.2</ele>
        <time>2022-05-23 10:47:41</time>
      </trkpt>
      <trkpt lat="42.09085" lon="0.70902">
        <ele>780.4</ele>
        <time>2022-05-23 10:47:42</time>
      </trkpt>
      <trkpt lat="42.09083" lon="0.70902">
        <ele>780.6</ele>
        <time>2022-05-23 10:47:43</time>
      </trkpt>
      <trkpt lat="42.09082" lon="0.70902">
        <ele>780.6</ele>
        <time>2022-05-23 10:47:44</time>
      </trkpt>
      <trkpt lat="42.09081" lon="0.70902">
        <ele>780.8</ele>
        <time>2022-05-23 10:47:45</time>
      </trkpt>
      <trkpt lat="42.09079" lon="0.70902">
        <ele>781</ele>
        <time>2022-05-23 10:47:46</time>
      </trkpt>
      <trkpt lat="42.09077" lon="0.70902">
        <ele>781.2</ele>
        <time>2022-05-23 10:47:47</time>
      </trkpt>
      <trkpt lat="42.09076" lon="0.70902">
        <ele>781.4</ele>
        <time>2022-05-23 10:47:48</time>
      </trkpt>
      <trkpt lat="42.09074" lon="0.70902">
        <ele>781.6</ele>
        <time>2022-05-23 10:47:49</time>
      </trkpt>
      <trkpt lat="42.09073" lon="0.70902">
        <ele>781.8</ele>
        <time>2022-05-23 10:47:50</time>
      </trkpt>
      <trkpt lat="42.09071" lon="0.70903">
        <ele>782</ele>
        <time>2022-05-23 10:47:51</time>
      </trkpt>
      <trkpt lat="42.0907" lon="0.70903">
        <ele>782</ele>
        <time>2022-05-23 10:47:52</time>
      </trkpt>
      <trkpt lat="42.09069" lon="0.70903">
        <ele>782.2</ele>
        <time>2022-05-23 10:47:53</time>
      </trkpt>
      <trkpt lat="42.09067" lon="0.70904">
        <ele>782.4</ele>
        <time>2022-05-23 10:47:54</time>
      </trkpt>
      <trkpt lat="42.09066" lon="0.70905">
        <ele>782.6</ele>
        <time>2022-05-23 10:47:55</time>
      </trkpt>
      <trkpt lat="42.09064" lon="0.70906">
        <ele>782.8</ele>
        <time>2022-05-23 10:47:56</time>
      </trkpt>
      <trkpt lat="42.09063" lon="0.70907">
        <ele>782.8</ele>
        <time>2022-05-23 10:47:57</time>
      </trkpt>
      <trkpt lat="42.09061" lon="0.70907">
        <ele>783</ele>
        <time>2022-05-23 10:47:58</time>
      </trkpt>
      <trkpt lat="42.0906" lon="0.70908">
        <ele>783.2</ele>
        <time>2022-05-23 10:47:59</time>
      </trkpt>
      <trkpt lat="42.09058" lon="0.70909">
        <ele>783.4</ele>
        <time>2022-05-23 10:48:00</time>
      </trkpt>
      <trkpt lat="42.09057" lon="0.7091">
        <ele>783.6</ele>
        <time>2022-05-23 10:48:01</time>
      </trkpt>
      <trkpt lat="42.09056" lon="0.70912">
        <ele>783.8</ele>
        <time>2022-05-23 10:48:02</time>
      </trkpt>
      <trkpt lat="42.09055" lon="0.70913">
        <ele>783.8</ele>
        <time>2022-05-23 10:48:03</time>
      </trkpt>
      <trkpt lat="42.09054" lon="0.70915">
        <ele>784</ele>
        <time>2022-05-23 10:48:04</time>
      </trkpt>
      <trkpt lat="42.09053" lon="0.70917">
        <ele>784.2</ele>
        <time>2022-05-23 10:48:05</time>
      </trkpt>
      <trkpt lat="42.09053" lon="0.70919">
        <ele>784.4</ele>
        <time>2022-05-23 10:48:06</time>
      </trkpt>
      <trkpt lat="42.09052" lon="0.70921">
        <ele>784.4</ele>
        <time>2022-05-23 10:48:07</time>
      </trkpt>
      <trkpt lat="42.09051" lon="0.70923">
        <ele>784.6</ele>
        <time>2022-05-23 10:48:08</time>
      </trkpt>
      <trkpt lat="42.0905" lon="0.70924">
        <ele>784.8</ele>
        <time>2022-05-23 10:48:09</time>
      </trkpt>
      <trkpt lat="42.09049" lon="0.70926">
        <ele>785</ele>
        <time>2022-05-23 10:48:10</time>
      </trkpt>
      <trkpt lat="42.09049" lon="0.70928">
        <ele>785.2</ele>
        <time>2022-05-23 10:48:11</time>
      </trkpt>
      <trkpt lat="42.09048" lon="0.7093">
        <ele>785.2</ele>
        <time>2022-05-23 10:48:12</time>
      </trkpt>
      <trkpt lat="42.09048" lon="0.70933">
        <ele>785.4</ele>
        <time>2022-05-23 10:48:13</time>
      </trkpt>
      <trkpt lat="42.09048" lon="0.70936">
        <ele>785.6</ele>
        <time>2022-05-23 10:48:14</time>
      </trkpt>
      <trkpt lat="42.09048" lon="0.70938">
        <ele>785.8</ele>
        <time>2022-05-23 10:48:15</time>
      </trkpt>
      <trkpt lat="42.09047" lon="0.7094">
        <ele>786</ele>
        <time>2022-05-23 10:48:16</time>
      </trkpt>
      <trkpt lat="42.09047" lon="0.70943">
        <ele>786</ele>
        <time>2022-05-23 10:48:17</time>
      </trkpt>
      <trkpt lat="42.09047" lon="0.70945">
        <ele>786.2</ele>
        <time>2022-05-23 10:48:18</time>
      </trkpt>
      <trkpt lat="42.09047" lon="0.70947">
        <ele>786.4</ele>
        <time>2022-05-23 10:48:19</time>
      </trkpt>
      <trkpt lat="42.09047" lon="0.70949">
        <ele>786.6</ele>
        <time>2022-05-23 10:48:20</time>
      </trkpt>
      <trkpt lat="42.09047" lon="0.70951">
        <ele>786.6</ele>
        <time>2022-05-23 10:48:21</time>
      </trkpt>
      <trkpt lat="42.09047" lon="0.70953">
        <ele>786.8</ele>
        <time>2022-05-23 10:48:22</time>
      </trkpt>
      <trkpt lat="42.09047" lon="0.70955">
        <ele>787</ele>
        <time>2022-05-23 10:48:23</time>
      </trkpt>
      <trkpt lat="42.09047" lon="0.70957">
        <ele>787.2</ele>
        <time>2022-05-23 10:48:24</time>
      </trkpt>
      <trkpt lat="42.09047" lon="0.70959">
        <ele>787.2</ele>
        <time>2022-05-23 10:48:25</time>
      </trkpt>
      <trkpt lat="42.09047" lon="0.70962">
        <ele>787.4</ele>
        <time>2022-05-23 10:48:26</time>
      </trkpt>
      <trkpt lat="42.09047" lon="0.70964">
        <ele>787.6</ele>
        <time>2022-05-23 10:48:27</time>
      </trkpt>
      <trkpt lat="42.09047" lon="0.70966">
        <ele>787.6</ele>
        <time>2022-05-23 10:48:28</time>
      </trkpt>
      <trkpt lat="42.09046" lon="0.70968">
        <ele>787.8</ele>
        <time>2022-05-23 10:48:29</time>
      </trkpt>
      <trkpt lat="42.09046" lon="0.7097">
        <ele>788</ele>
        <time>2022-05-23 10:48:30</time>
      </trkpt>
      <trkpt lat="42.09046" lon="0.70972">
        <ele>788.2</ele>
        <time>2022-05-23 10:48:31</time>
      </trkpt>
      <trkpt lat="42.09046" lon="0.70974">
        <ele>788.4</ele>
        <time>2022-05-23 10:48:32</time>
      </trkpt>
      <trkpt lat="42.09045" lon="0.70976">
        <ele>788.6</ele>
        <time>2022-05-23 10:48:33</time>
      </trkpt>
      <trkpt lat="42.09045" lon="0.70977">
        <ele>788.6</ele>
        <time>2022-05-23 10:48:34</time>
      </trkpt>
      <trkpt lat="42.09045" lon="0.7098">
        <ele>788.8</ele>
        <time>2022-05-23 10:48:35</time>
      </trkpt>
      <trkpt lat="42.09044" lon="0.70982">
        <ele>789</ele>
        <time>2022-05-23 10:48:36</time>
      </trkpt>
      <trkpt lat="42.09044" lon="0.70985">
        <ele>789.2</ele>
        <time>2022-05-23 10:48:37</time>
      </trkpt>
      <trkpt lat="42.09045" lon="0.70987">
        <ele>789.2</ele>
        <time>2022-05-23 10:48:38</time>
      </trkpt>
      <trkpt lat="42.09044" lon="0.70988">
        <ele>789.4</ele>
        <time>2022-05-23 10:48:39</time>
      </trkpt>
      <trkpt lat="42.09044" lon="0.70991">
        <ele>789.6</ele>
        <time>2022-05-23 10:48:40</time>
      </trkpt>
      <trkpt lat="42.09044" lon="0.70993">
        <ele>789.6</ele>
        <time>2022-05-23 10:48:41</time>
      </trkpt>
      <trkpt lat="42.09044" lon="0.70994">
        <ele>789.8</ele>
        <time>2022-05-23 10:48:42</time>
      </trkpt>
      <trkpt lat="42.09043" lon="0.70996">
        <ele>790</ele>
        <time>2022-05-23 10:48:43</time>
      </trkpt>
      <trkpt lat="42.09043" lon="0.70998">
        <ele>790</ele>
        <time>2022-05-23 10:48:44</time>
      </trkpt>
      <trkpt lat="42.09043" lon="0.71">
        <ele>790.2</ele>
        <time>2022-05-23 10:48:45</time>
      </trkpt>
      <trkpt lat="42.09042" lon="0.71002">
        <ele>790.2</ele>
        <time>2022-05-23 10:48:46</time>
      </trkpt>
      <trkpt lat="42.09042" lon="0.71004">
        <ele>790.4</ele>
        <time>2022-05-23 10:48:47</time>
      </trkpt>
      <trkpt lat="42.09042" lon="0.71006">
        <ele>790.6</ele>
        <time>2022-05-23 10:48:48</time>
      </trkpt>
      <trkpt lat="42.09042" lon="0.71008">
        <ele>790.6</ele>
        <time>2022-05-23 10:48:49</time>
      </trkpt>
      <trkpt lat="42.09041" lon="0.7101">
        <ele>790.6</ele>
        <time>2022-05-23 10:48:50</time>
      </trkpt>
      <trkpt lat="42.09041" lon="0.71012">
        <ele>790.8</ele>
        <time>2022-05-23 10:48:51</time>
      </trkpt>
      <trkpt lat="42.0904" lon="0.71014">
        <ele>790.8</ele>
        <time>2022-05-23 10:48:52</time>
      </trkpt>
      <trkpt lat="42.0904" lon="0.71017">
        <ele>791</ele>
        <time>2022-05-23 10:48:53</time>
      </trkpt>
      <trkpt lat="42.0904" lon="0.71019">
        <ele>791</ele>
        <time>2022-05-23 10:48:54</time>
      </trkpt>
      <trkpt lat="42.0904" lon="0.71021">
        <ele>791.2</ele>
        <time>2022-05-23 10:48:55</time>
      </trkpt>
      <trkpt lat="42.09039" lon="0.71024">
        <ele>791.2</ele>
        <time>2022-05-23 10:48:56</time>
      </trkpt>
      <trkpt lat="42.09039" lon="0.71027">
        <ele>791.4</ele>
        <time>2022-05-23 10:48:57</time>
      </trkpt>
      <trkpt lat="42.09039" lon="0.71029">
        <ele>791.4</ele>
        <time>2022-05-23 10:48:58</time>
      </trkpt>
      <trkpt lat="42.09039" lon="0.71032">
        <ele>791.6</ele>
        <time>2022-05-23 10:48:59</time>
      </trkpt>
      <trkpt lat="42.09038" lon="0.71035">
        <ele>791.6</ele>
        <time>2022-05-23 10:49:00</time>
      </trkpt>
      <trkpt lat="42.09037" lon="0.71038">
        <ele>791.6</ele>
        <time>2022-05-23 10:49:01</time>
      </trkpt>
      <trkpt lat="42.09037" lon="0.71041">
        <ele>791.8</ele>
        <time>2022-05-23 10:49:02</time>
      </trkpt>
      <trkpt lat="42.09037" lon="0.71044">
        <ele>791.8</ele>
        <time>2022-05-23 10:49:03</time>
      </trkpt>
      <trkpt lat="42.09037" lon="0.71047">
        <ele>791.8</ele>
        <time>2022-05-23 10:49:04</time>
      </trkpt>
      <trkpt lat="42.09037" lon="0.71049">
        <ele>791.8</ele>
        <time>2022-05-23 10:49:05</time>
      </trkpt>
      <trkpt lat="42.09037" lon="0.71052">
        <ele>792</ele>
        <time>2022-05-23 10:49:06</time>
      </trkpt>
      <trkpt lat="42.09036" lon="0.71055">
        <ele>792</ele>
        <time>2022-05-23 10:49:07</time>
      </trkpt>
      <trkpt lat="42.09036" lon="0.71058">
        <ele>792.2</ele>
        <time>2022-05-23 10:49:08</time>
      </trkpt>
      <trkpt lat="42.09036" lon="0.7106">
        <ele>792.2</ele>
        <time>2022-05-23 10:49:09</time>
      </trkpt>
      <trkpt lat="42.09035" lon="0.71063">
        <ele>792.2</ele>
        <time>2022-05-23 10:49:10</time>
      </trkpt>
      <trkpt lat="42.09035" lon="0.71066">
        <ele>792.4</ele>
        <time>2022-05-23 10:49:11</time>
      </trkpt>
      <trkpt lat="42.09035" lon="0.71069">
        <ele>792.4</ele>
        <time>2022-05-23 10:49:12</time>
      </trkpt>
      <trkpt lat="42.09034" lon="0.71073">
        <ele>792.4</ele>
        <time>2022-05-23 10:49:13</time>
      </trkpt>
      <trkpt lat="42.09034" lon="0.71076">
        <ele>792.6</ele>
        <time>2022-05-23 10:49:14</time>
      </trkpt>
      <trkpt lat="42.09034" lon="0.71079">
        <ele>792.6</ele>
        <time>2022-05-23 10:49:15</time>
      </trkpt>
      <trkpt lat="42.09034" lon="0.71081">
        <ele>792.6</ele>
        <time>2022-05-23 10:49:16</time>
      </trkpt>
      <trkpt lat="42.09034" lon="0.71085">
        <ele>792.6</ele>
        <time>2022-05-23 10:49:17</time>
      </trkpt>
      <trkpt lat="42.09034" lon="0.71087">
        <ele>792.8</ele>
        <time>2022-05-23 10:49:18</time>
      </trkpt>
      <trkpt lat="42.09035" lon="0.7109">
        <ele>792.8</ele>
        <time>2022-05-23 10:49:19</time>
      </trkpt>
      <trkpt lat="42.09035" lon="0.71093">
        <ele>793</ele>
        <time>2022-05-23 10:49:20</time>
      </trkpt>
      <trkpt lat="42.09035" lon="0.71096">
        <ele>793</ele>
        <time>2022-05-23 10:49:21</time>
      </trkpt>
      <trkpt lat="42.09035" lon="0.71099">
        <ele>793</ele>
        <time>2022-05-23 10:49:22</time>
      </trkpt>
      <trkpt lat="42.09036" lon="0.71102">
        <ele>793</ele>
        <time>2022-05-23 10:49:23</time>
      </trkpt>
      <trkpt lat="42.09036" lon="0.71105">
        <ele>793.2</ele>
        <time>2022-05-23 10:49:24</time>
      </trkpt>
      <trkpt lat="42.09036" lon="0.71108">
        <ele>793.2</ele>
        <time>2022-05-23 10:49:25</time>
      </trkpt>
      <trkpt lat="42.09036" lon="0.71111">
        <ele>793.2</ele>
        <time>2022-05-23 10:49:26</time>
      </trkpt>
      <trkpt lat="42.09037" lon="0.71114">
        <ele>793.2</ele>
        <time>2022-05-23 10:49:27</time>
      </trkpt>
      <trkpt lat="42.09037" lon="0.71117">
        <ele>793.4</ele>
        <time>2022-05-23 10:49:28</time>
      </trkpt>
      <trkpt lat="42.09037" lon="0.71119">
        <ele>793.4</ele>
        <time>2022-05-23 10:49:29</time>
      </trkpt>
      <trkpt lat="42.09037" lon="0.71122">
        <ele>793.4</ele>
        <time>2022-05-23 10:49:30</time>
      </trkpt>
      <trkpt lat="42.09037" lon="0.71125">
        <ele>793.6</ele>
        <time>2022-05-23 10:49:31</time>
      </trkpt>
      <trkpt lat="42.09038" lon="0.71128">
        <ele>793.6</ele>
        <time>2022-05-23 10:49:32</time>
      </trkpt>
      <trkpt lat="42.09038" lon="0.71131">
        <ele>793.6</ele>
        <time>2022-05-23 10:49:33</time>
      </trkpt>
      <trkpt lat="42.09038" lon="0.71134">
        <ele>793.8</ele>
        <time>2022-05-23 10:49:34</time>
      </trkpt>
      <trkpt lat="42.09038" lon="0.71136">
        <ele>793.8</ele>
        <time>2022-05-23 10:49:35</time>
      </trkpt>
      <trkpt lat="42.09038" lon="0.71139">
        <ele>794</ele>
        <time>2022-05-23 10:49:36</time>
      </trkpt>
      <trkpt lat="42.09038" lon="0.71142">
        <ele>794</ele>
        <time>2022-05-23 10:49:37</time>
      </trkpt>
      <trkpt lat="42.09039" lon="0.71144">
        <ele>794.2</ele>
        <time>2022-05-23 10:49:38</time>
      </trkpt>
      <trkpt lat="42.0904" lon="0.71147">
        <ele>794.2</ele>
        <time>2022-05-23 10:49:39</time>
      </trkpt>
      <trkpt lat="42.0904" lon="0.7115">
        <ele>794.4</ele>
        <time>2022-05-23 10:49:40</time>
      </trkpt>
      <trkpt lat="42.09041" lon="0.71153">
        <ele>794.4</ele>
        <time>2022-05-23 10:49:41</time>
      </trkpt>
      <trkpt lat="42.09042" lon="0.71156">
        <ele>794.6</ele>
        <time>2022-05-23 10:49:42</time>
      </trkpt>
      <trkpt lat="42.09042" lon="0.71159">
        <ele>794.8</ele>
        <time>2022-05-23 10:49:43</time>
      </trkpt>
      <trkpt lat="42.09042" lon="0.71162">
        <ele>794.8</ele>
        <time>2022-05-23 10:49:44</time>
      </trkpt>
      <trkpt lat="42.09041" lon="0.71165">
        <ele>795</ele>
        <time>2022-05-23 10:49:45</time>
      </trkpt>
      <trkpt lat="42.09041" lon="0.71169">
        <ele>795.2</ele>
        <time>2022-05-23 10:49:46</time>
      </trkpt>
      <trkpt lat="42.09041" lon="0.71172">
        <ele>795.2</ele>
        <time>2022-05-23 10:49:47</time>
      </trkpt>
      <trkpt lat="42.09041" lon="0.71175">
        <ele>795.4</ele>
        <time>2022-05-23 10:49:48</time>
      </trkpt>
      <trkpt lat="42.09041" lon="0.71178">
        <ele>795.6</ele>
        <time>2022-05-23 10:49:49</time>
      </trkpt>
      <trkpt lat="42.09042" lon="0.71181">
        <ele>795.8</ele>
        <time>2022-05-23 10:49:50</time>
      </trkpt>
      <trkpt lat="42.09042" lon="0.71183">
        <ele>796</ele>
        <time>2022-05-23 10:49:51</time>
      </trkpt>
      <trkpt lat="42.09042" lon="0.71186">
        <ele>796</ele>
        <time>2022-05-23 10:49:52</time>
      </trkpt>
      <trkpt lat="42.09042" lon="0.71188">
        <ele>796.2</ele>
        <time>2022-05-23 10:49:53</time>
      </trkpt>
      <trkpt lat="42.09042" lon="0.71191">
        <ele>796.4</ele>
        <time>2022-05-23 10:49:54</time>
      </trkpt>
      <trkpt lat="42.09042" lon="0.71193">
        <ele>796.6</ele>
        <time>2022-05-23 10:49:55</time>
      </trkpt>
      <trkpt lat="42.09043" lon="0.71195">
        <ele>796.8</ele>
        <time>2022-05-23 10:49:56</time>
      </trkpt>
      <trkpt lat="42.09043" lon="0.71197">
        <ele>797</ele>
        <time>2022-05-23 10:49:57</time>
      </trkpt>
      <trkpt lat="42.09042" lon="0.71199">
        <ele>797.2</ele>
        <time>2022-05-23 10:49:58</time>
      </trkpt>
      <trkpt lat="42.09042" lon="0.71201">
        <ele>797.2</ele>
        <time>2022-05-23 10:49:59</time>
      </trkpt>
      <trkpt lat="42.09041" lon="0.71203">
        <ele>797.4</ele>
        <time>2022-05-23 10:50:00</time>
      </trkpt>
      <trkpt lat="42.09041" lon="0.71205">
        <ele>797.6</ele>
        <time>2022-05-23 10:50:01</time>
      </trkpt>
      <trkpt lat="42.09041" lon="0.71208">
        <ele>797.8</ele>
        <time>2022-05-23 10:50:02</time>
      </trkpt>
      <trkpt lat="42.09041" lon="0.7121">
        <ele>798</ele>
        <time>2022-05-23 10:50:03</time>
      </trkpt>
      <trkpt lat="42.0904" lon="0.71212">
        <ele>798.2</ele>
        <time>2022-05-23 10:50:04</time>
      </trkpt>
      <trkpt lat="42.0904" lon="0.71214">
        <ele>798.4</ele>
        <time>2022-05-23 10:50:05</time>
      </trkpt>
      <trkpt lat="42.0904" lon="0.71216">
        <ele>798.6</ele>
        <time>2022-05-23 10:50:06</time>
      </trkpt>
      <trkpt lat="42.0904" lon="0.71218">
        <ele>798.8</ele>
        <time>2022-05-23 10:50:07</time>
      </trkpt>
      <trkpt lat="42.0904" lon="0.7122">
        <ele>799</ele>
        <time>2022-05-23 10:50:08</time>
      </trkpt>
      <trkpt lat="42.0904" lon="0.71222">
        <ele>799.2</ele>
        <time>2022-05-23 10:50:09</time>
      </trkpt>
      <trkpt lat="42.09039" lon="0.71224">
        <ele>799.4</ele>
        <time>2022-05-23 10:50:10</time>
      </trkpt>
      <trkpt lat="42.09039" lon="0.71226">
        <ele>799.6</ele>
        <time>2022-05-23 10:50:11</time>
      </trkpt>
      <trkpt lat="42.09039" lon="0.71228">
        <ele>799.8</ele>
        <time>2022-05-23 10:50:12</time>
      </trkpt>
      <trkpt lat="42.09038" lon="0.7123">
        <ele>800</ele>
        <time>2022-05-23 10:50:13</time>
      </trkpt>
      <trkpt lat="42.09038" lon="0.71232">
        <ele>800</ele>
        <time>2022-05-23 10:50:14</time>
      </trkpt>
      <trkpt lat="42.09038" lon="0.71234">
        <ele>800.2</ele>
        <time>2022-05-23 10:50:15</time>
      </trkpt>
      <trkpt lat="42.09038" lon="0.71235">
        <ele>800.4</ele>
        <time>2022-05-23 10:50:16</time>
      </trkpt>
      <trkpt lat="42.09038" lon="0.71237">
        <ele>800.6</ele>
        <time>2022-05-23 10:50:17</time>
      </trkpt>
      <trkpt lat="42.09038" lon="0.71239">
        <ele>800.8</ele>
        <time>2022-05-23 10:50:18</time>
      </trkpt>
      <trkpt lat="42.09038" lon="0.71241">
        <ele>801</ele>
        <time>2022-05-23 10:50:19</time>
      </trkpt>
      <trkpt lat="42.09037" lon="0.71243">
        <ele>801.2</ele>
        <time>2022-05-23 10:50:20</time>
      </trkpt>
      <trkpt lat="42.09037" lon="0.71245">
        <ele>801.4</ele>
        <time>2022-05-23 10:50:21</time>
      </trkpt>
      <trkpt lat="42.09037" lon="0.71247">
        <ele>801.4</ele>
        <time>2022-05-23 10:50:22</time>
      </trkpt>
      <trkpt lat="42.09037" lon="0.71248">
        <ele>801.6</ele>
        <time>2022-05-23 10:50:23</time>
      </trkpt>
      <trkpt lat="42.09037" lon="0.7125">
        <ele>801.8</ele>
        <time>2022-05-23 10:50:24</time>
      </trkpt>
      <trkpt lat="42.09036" lon="0.71252">
        <ele>802</ele>
        <time>2022-05-23 10:50:25</time>
      </trkpt>
      <trkpt lat="42.09035" lon="0.71254">
        <ele>802.2</ele>
        <time>2022-05-23 10:50:26</time>
      </trkpt>
      <trkpt lat="42.09035" lon="0.71255">
        <ele>802.4</ele>
        <time>2022-05-23 10:50:27</time>
      </trkpt>
      <trkpt lat="42.09034" lon="0.71257">
        <ele>802.6</ele>
        <time>2022-05-23 10:50:28</time>
      </trkpt>
      <trkpt lat="42.09034" lon="0.71259">
        <ele>802.8</ele>
        <time>2022-05-23 10:50:29</time>
      </trkpt>
      <trkpt lat="42.09034" lon="0.71261">
        <ele>803</ele>
        <time>2022-05-23 10:50:30</time>
      </trkpt>
      <trkpt lat="42.09033" lon="0.71263">
        <ele>803.2</ele>
        <time>2022-05-23 10:50:31</time>
      </trkpt>
      <trkpt lat="42.09033" lon="0.71265">
        <ele>803.4</ele>
        <time>2022-05-23 10:50:32</time>
      </trkpt>
      <trkpt lat="42.09033" lon="0.71267">
        <ele>803.6</ele>
        <time>2022-05-23 10:50:33</time>
      </trkpt>
      <trkpt lat="42.09033" lon="0.71269">
        <ele>803.6</ele>
        <time>2022-05-23 10:50:34</time>
      </trkpt>
      <trkpt lat="42.09033" lon="0.71271">
        <ele>803.8</ele>
        <time>2022-05-23 10:50:35</time>
      </trkpt>
      <trkpt lat="42.09033" lon="0.71272">
        <ele>804</ele>
        <time>2022-05-23 10:50:36</time>
      </trkpt>
      <trkpt lat="42.09033" lon="0.71274">
        <ele>804.2</ele>
        <time>2022-05-23 10:50:37</time>
      </trkpt>
      <trkpt lat="42.09033" lon="0.71276">
        <ele>804.4</ele>
        <time>2022-05-23 10:50:38</time>
      </trkpt>
      <trkpt lat="42.09033" lon="0.71278">
        <ele>804.6</ele>
        <time>2022-05-23 10:50:39</time>
      </trkpt>
      <trkpt lat="42.09033" lon="0.7128">
        <ele>804.8</ele>
        <time>2022-05-23 10:50:40</time>
      </trkpt>
      <trkpt lat="42.09033" lon="0.71281">
        <ele>805</ele>
        <time>2022-05-23 10:50:41</time>
      </trkpt>
      <trkpt lat="42.09033" lon="0.71283">
        <ele>805.2</ele>
        <time>2022-05-23 10:50:42</time>
      </trkpt>
      <trkpt lat="42.09033" lon="0.71285">
        <ele>805.2</ele>
        <time>2022-05-23 10:50:43</time>
      </trkpt>
      <trkpt lat="42.09034" lon="0.71287">
        <ele>805.4</ele>
        <time>2022-05-23 10:50:44</time>
      </trkpt>
      <trkpt lat="42.09033" lon="0.71289">
        <ele>805.6</ele>
        <time>2022-05-23 10:50:45</time>
      </trkpt>
      <trkpt lat="42.09034" lon="0.7129">
        <ele>805.8</ele>
        <time>2022-05-23 10:50:46</time>
      </trkpt>
      <trkpt lat="42.09033" lon="0.71292">
        <ele>805.8</ele>
        <time>2022-05-23 10:50:47</time>
      </trkpt>
      <trkpt lat="42.09033" lon="0.71294">
        <ele>806</ele>
        <time>2022-05-23 10:50:48</time>
      </trkpt>
      <trkpt lat="42.09033" lon="0.71296">
        <ele>806.2</ele>
        <time>2022-05-23 10:50:49</time>
      </trkpt>
      <trkpt lat="42.09033" lon="0.71298">
        <ele>806.4</ele>
        <time>2022-05-23 10:50:50</time>
      </trkpt>
      <trkpt lat="42.09033" lon="0.713">
        <ele>806.6</ele>
        <time>2022-05-23 10:50:51</time>
      </trkpt>
      <trkpt lat="42.09033" lon="0.71302">
        <ele>806.6</ele>
        <time>2022-05-23 10:50:52</time>
      </trkpt>
      <trkpt lat="42.09033" lon="0.71304">
        <ele>806.8</ele>
        <time>2022-05-23 10:50:53</time>
      </trkpt>
      <trkpt lat="42.09033" lon="0.71305">
        <ele>807</ele>
        <time>2022-05-23 10:50:54</time>
      </trkpt>
      <trkpt lat="42.09034" lon="0.71307">
        <ele>807.2</ele>
        <time>2022-05-23 10:50:55</time>
      </trkpt>
      <trkpt lat="42.09034" lon="0.71309">
        <ele>807.2</ele>
        <time>2022-05-23 10:50:56</time>
      </trkpt>
      <trkpt lat="42.09033" lon="0.71311">
        <ele>807.4</ele>
        <time>2022-05-23 10:50:57</time>
      </trkpt>
      <trkpt lat="42.09033" lon="0.71313">
        <ele>807.6</ele>
        <time>2022-05-23 10:50:58</time>
      </trkpt>
      <trkpt lat="42.09032" lon="0.71314">
        <ele>807.6</ele>
        <time>2022-05-23 10:50:59</time>
      </trkpt>
      <trkpt lat="42.09032" lon="0.71316">
        <ele>807.8</ele>
        <time>2022-05-23 10:51:00</time>
      </trkpt>
      <trkpt lat="42.09032" lon="0.71317">
        <ele>808</ele>
        <time>2022-05-23 10:51:01</time>
      </trkpt>
      <trkpt lat="42.0903" lon="0.71319">
        <ele>808.2</ele>
        <time>2022-05-23 10:51:02</time>
      </trkpt>
      <trkpt lat="42.09029" lon="0.71321">
        <ele>808.4</ele>
        <time>2022-05-23 10:51:03</time>
      </trkpt>
      <trkpt lat="42.09029" lon="0.71323">
        <ele>808.6</ele>
        <time>2022-05-23 10:51:04</time>
      </trkpt>
      <trkpt lat="42.09027" lon="0.71325">
        <ele>808.8</ele>
        <time>2022-05-23 10:51:05</time>
      </trkpt>
      <trkpt lat="42.09026" lon="0.71326">
        <ele>808.8</ele>
        <time>2022-05-23 10:51:06</time>
      </trkpt>
      <trkpt lat="42.09025" lon="0.71328">
        <ele>809</ele>
        <time>2022-05-23 10:51:07</time>
      </trkpt>
      <trkpt lat="42.09024" lon="0.71329">
        <ele>809.2</ele>
        <time>2022-05-23 10:51:08</time>
      </trkpt>
      <trkpt lat="42.09023" lon="0.71331">
        <ele>809.4</ele>
        <time>2022-05-23 10:51:09</time>
      </trkpt>
      <trkpt lat="42.09022" lon="0.71332">
        <ele>809.4</ele>
        <time>2022-05-23 10:51:10</time>
      </trkpt>
      <trkpt lat="42.09021" lon="0.71334">
        <ele>809.6</ele>
        <time>2022-05-23 10:51:11</time>
      </trkpt>
      <trkpt lat="42.09019" lon="0.71335">
        <ele>809.8</ele>
        <time>2022-05-23 10:51:12</time>
      </trkpt>
      <trkpt lat="42.09017" lon="0.71336">
        <ele>810</ele>
        <time>2022-05-23 10:51:13</time>
      </trkpt>
      <trkpt lat="42.09016" lon="0.71337">
        <ele>810.2</ele>
        <time>2022-05-23 10:51:14</time>
      </trkpt>
      <trkpt lat="42.09014" lon="0.71339">
        <ele>810.4</ele>
        <time>2022-05-23 10:51:15</time>
      </trkpt>
      <trkpt lat="42.09013" lon="0.7134">
        <ele>810.4</ele>
        <time>2022-05-23 10:51:16</time>
      </trkpt>
      <trkpt lat="42.09011" lon="0.71341">
        <ele>810.6</ele>
        <time>2022-05-23 10:51:17</time>
      </trkpt>
      <trkpt lat="42.0901" lon="0.71342">
        <ele>810.8</ele>
        <time>2022-05-23 10:51:18</time>
      </trkpt>
      <trkpt lat="42.09008" lon="0.71344">
        <ele>811</ele>
        <time>2022-05-23 10:51:19</time>
      </trkpt>
      <trkpt lat="42.09007" lon="0.71345">
        <ele>811.2</ele>
        <time>2022-05-23 10:51:20</time>
      </trkpt>
      <trkpt lat="42.09006" lon="0.71347">
        <ele>811.2</ele>
        <time>2022-05-23 10:51:21</time>
      </trkpt>
      <trkpt lat="42.09005" lon="0.71348">
        <ele>811.4</ele>
        <time>2022-05-23 10:51:22</time>
      </trkpt>
      <trkpt lat="42.09004" lon="0.7135">
        <ele>811.6</ele>
        <time>2022-05-23 10:51:23</time>
      </trkpt>
      <trkpt lat="42.09003" lon="0.71352">
        <ele>811.6</ele>
        <time>2022-05-23 10:51:24</time>
      </trkpt>
      <trkpt lat="42.09002" lon="0.71354">
        <ele>811.8</ele>
        <time>2022-05-23 10:51:25</time>
      </trkpt>
      <trkpt lat="42.09001" lon="0.71356">
        <ele>812</ele>
        <time>2022-05-23 10:51:26</time>
      </trkpt>
      <trkpt lat="42.08999" lon="0.71358">
        <ele>812.2</ele>
        <time>2022-05-23 10:51:27</time>
      </trkpt>
      <trkpt lat="42.08998" lon="0.71359">
        <ele>812.2</ele>
        <time>2022-05-23 10:51:28</time>
      </trkpt>
      <trkpt lat="42.08996" lon="0.71361">
        <ele>812.4</ele>
        <time>2022-05-23 10:51:29</time>
      </trkpt>
      <trkpt lat="42.08995" lon="0.71363">
        <ele>812.6</ele>
        <time>2022-05-23 10:51:30</time>
      </trkpt>
      <trkpt lat="42.08993" lon="0.71364">
        <ele>812.8</ele>
        <time>2022-05-23 10:51:31</time>
      </trkpt>
      <trkpt lat="42.08992" lon="0.71366">
        <ele>812.8</ele>
        <time>2022-05-23 10:51:32</time>
      </trkpt>
      <trkpt lat="42.08992" lon="0.71368">
        <ele>813</ele>
        <time>2022-05-23 10:51:33</time>
      </trkpt>
      <trkpt lat="42.08991" lon="0.71369">
        <ele>813.2</ele>
        <time>2022-05-23 10:51:34</time>
      </trkpt>
      <trkpt lat="42.0899" lon="0.71371">
        <ele>813.2</ele>
        <time>2022-05-23 10:51:35</time>
      </trkpt>
      <trkpt lat="42.08989" lon="0.71372">
        <ele>813.4</ele>
        <time>2022-05-23 10:51:36</time>
      </trkpt>
      <trkpt lat="42.08988" lon="0.71374">
        <ele>813.6</ele>
        <time>2022-05-23 10:51:37</time>
      </trkpt>
      <trkpt lat="42.08987" lon="0.71376">
        <ele>813.6</ele>
        <time>2022-05-23 10:51:38</time>
      </trkpt>
      <trkpt lat="42.08987" lon="0.71377">
        <ele>813.8</ele>
        <time>2022-05-23 10:51:39</time>
      </trkpt>
      <trkpt lat="42.08985" lon="0.71379">
        <ele>814</ele>
        <time>2022-05-23 10:51:40</time>
      </trkpt>
      <trkpt lat="42.08985" lon="0.7138">
        <ele>814.2</ele>
        <time>2022-05-23 10:51:41</time>
      </trkpt>
      <trkpt lat="42.08984" lon="0.71382">
        <ele>814.2</ele>
        <time>2022-05-23 10:51:42</time>
      </trkpt>
      <trkpt lat="42.08984" lon="0.71383">
        <ele>814.4</ele>
        <time>2022-05-23 10:51:43</time>
      </trkpt>
      <trkpt lat="42.08983" lon="0.71385">
        <ele>814.6</ele>
        <time>2022-05-23 10:51:44</time>
      </trkpt>
      <trkpt lat="42.08982" lon="0.71386">
        <ele>814.8</ele>
        <time>2022-05-23 10:51:45</time>
      </trkpt>
      <trkpt lat="42.08982" lon="0.71388">
        <ele>814.8</ele>
        <time>2022-05-23 10:51:46</time>
      </trkpt>
      <trkpt lat="42.08981" lon="0.7139">
        <ele>815</ele>
        <time>2022-05-23 10:51:47</time>
      </trkpt>
      <trkpt lat="42.0898" lon="0.71392">
        <ele>815.2</ele>
        <time>2022-05-23 10:51:48</time>
      </trkpt>
      <trkpt lat="42.08979" lon="0.71394">
        <ele>815.2</ele>
        <time>2022-05-23 10:51:49</time>
      </trkpt>
      <trkpt lat="42.08979" lon="0.71396">
        <ele>815.4</ele>
        <time>2022-05-23 10:51:50</time>
      </trkpt>
      <trkpt lat="42.08979" lon="0.71398">
        <ele>815.6</ele>
        <time>2022-05-23 10:51:51</time>
      </trkpt>
      <trkpt lat="42.08979" lon="0.714">
        <ele>815.6</ele>
        <time>2022-05-23 10:51:52</time>
      </trkpt>
      <trkpt lat="42.08978" lon="0.71402">
        <ele>815.8</ele>
        <time>2022-05-23 10:51:53</time>
      </trkpt>
      <trkpt lat="42.08978" lon="0.71404">
        <ele>816</ele>
        <time>2022-05-23 10:51:54</time>
      </trkpt>
      <trkpt lat="42.08977" lon="0.71406">
        <ele>816.2</ele>
        <time>2022-05-23 10:51:55</time>
      </trkpt>
      <trkpt lat="42.08977" lon="0.71409">
        <ele>816.2</ele>
        <time>2022-05-23 10:51:56</time>
      </trkpt>
      <trkpt lat="42.08977" lon="0.71411">
        <ele>816.4</ele>
        <time>2022-05-23 10:51:57</time>
      </trkpt>
      <trkpt lat="42.08976" lon="0.71413">
        <ele>816.6</ele>
        <time>2022-05-23 10:51:58</time>
      </trkpt>
      <trkpt lat="42.08976" lon="0.71415">
        <ele>816.8</ele>
        <time>2022-05-23 10:51:59</time>
      </trkpt>
      <trkpt lat="42.08976" lon="0.71417">
        <ele>816.8</ele>
        <time>2022-05-23 10:52:00</time>
      </trkpt>
      <trkpt lat="42.08975" lon="0.7142">
        <ele>817</ele>
        <time>2022-05-23 10:52:01</time>
      </trkpt>
      <trkpt lat="42.08975" lon="0.71422">
        <ele>817.2</ele>
        <time>2022-05-23 10:52:02</time>
      </trkpt>
      <trkpt lat="42.08974" lon="0.71423">
        <ele>817.2</ele>
        <time>2022-05-23 10:52:03</time>
      </trkpt>
      <trkpt lat="42.08974" lon="0.71425">
        <ele>817.4</ele>
        <time>2022-05-23 10:52:04</time>
      </trkpt>
      <trkpt lat="42.08973" lon="0.71427">
        <ele>817.6</ele>
        <time>2022-05-23 10:52:05</time>
      </trkpt>
      <trkpt lat="42.08973" lon="0.71429">
        <ele>817.8</ele>
        <time>2022-05-23 10:52:06</time>
      </trkpt>
      <trkpt lat="42.08973" lon="0.71432">
        <ele>817.8</ele>
        <time>2022-05-23 10:52:07</time>
      </trkpt>
      <trkpt lat="42.08973" lon="0.71434">
        <ele>818</ele>
        <time>2022-05-23 10:52:08</time>
      </trkpt>
      <trkpt lat="42.08973" lon="0.71436">
        <ele>818.2</ele>
        <time>2022-05-23 10:52:09</time>
      </trkpt>
      <trkpt lat="42.08973" lon="0.71438">
        <ele>818.4</ele>
        <time>2022-05-23 10:52:10</time>
      </trkpt>
      <trkpt lat="42.08973" lon="0.71439">
        <ele>818.6</ele>
        <time>2022-05-23 10:52:11</time>
      </trkpt>
      <trkpt lat="42.08972" lon="0.71441">
        <ele>818.6</ele>
        <time>2022-05-23 10:52:12</time>
      </trkpt>
      <trkpt lat="42.08972" lon="0.71443">
        <ele>818.8</ele>
        <time>2022-05-23 10:52:13</time>
      </trkpt>
      <trkpt lat="42.08972" lon="0.71445">
        <ele>819</ele>
        <time>2022-05-23 10:52:14</time>
      </trkpt>
      <trkpt lat="42.08972" lon="0.71447">
        <ele>819.2</ele>
        <time>2022-05-23 10:52:15</time>
      </trkpt>
      <trkpt lat="42.08971" lon="0.71449">
        <ele>819.4</ele>
        <time>2022-05-23 10:52:16</time>
      </trkpt>
      <trkpt lat="42.08971" lon="0.71451">
        <ele>819.4</ele>
        <time>2022-05-23 10:52:17</time>
      </trkpt>
      <trkpt lat="42.08971" lon="0.71453">
        <ele>819.6</ele>
        <time>2022-05-23 10:52:18</time>
      </trkpt>
      <trkpt lat="42.08971" lon="0.71455">
        <ele>819.8</ele>
        <time>2022-05-23 10:52:19</time>
      </trkpt>
      <trkpt lat="42.08971" lon="0.71457">
        <ele>820</ele>
        <time>2022-05-23 10:52:20</time>
      </trkpt>
      <trkpt lat="42.0897" lon="0.71459">
        <ele>820</ele>
        <time>2022-05-23 10:52:21</time>
      </trkpt>
      <trkpt lat="42.0897" lon="0.71461">
        <ele>820.2</ele>
        <time>2022-05-23 10:52:22</time>
      </trkpt>
      <trkpt lat="42.0897" lon="0.71462">
        <ele>820.4</ele>
        <time>2022-05-23 10:52:23</time>
      </trkpt>
      <trkpt lat="42.0897" lon="0.71464">
        <ele>820.6</ele>
        <time>2022-05-23 10:52:24</time>
      </trkpt>
      <trkpt lat="42.08969" lon="0.71466">
        <ele>820.8</ele>
        <time>2022-05-23 10:52:25</time>
      </trkpt>
      <trkpt lat="42.08969" lon="0.71468">
        <ele>821</ele>
        <time>2022-05-23 10:52:26</time>
      </trkpt>
      <trkpt lat="42.08969" lon="0.7147">
        <ele>821</ele>
        <time>2022-05-23 10:52:27</time>
      </trkpt>
      <trkpt lat="42.08969" lon="0.71472">
        <ele>821.2</ele>
        <time>2022-05-23 10:52:28</time>
      </trkpt>
      <trkpt lat="42.08968" lon="0.71474">
        <ele>821.4</ele>
        <time>2022-05-23 10:52:29</time>
      </trkpt>
      <trkpt lat="42.08968" lon="0.71476">
        <ele>821.6</ele>
        <time>2022-05-23 10:52:30</time>
      </trkpt>
      <trkpt lat="42.08968" lon="0.71478">
        <ele>821.8</ele>
        <time>2022-05-23 10:52:31</time>
      </trkpt>
      <trkpt lat="42.08968" lon="0.7148">
        <ele>822</ele>
        <time>2022-05-23 10:52:32</time>
      </trkpt>
      <trkpt lat="42.08967" lon="0.71482">
        <ele>822.2</ele>
        <time>2022-05-23 10:52:33</time>
      </trkpt>
      <trkpt lat="42.08967" lon="0.71484">
        <ele>822.4</ele>
        <time>2022-05-23 10:52:34</time>
      </trkpt>
      <trkpt lat="42.08967" lon="0.71486">
        <ele>822.6</ele>
        <time>2022-05-23 10:52:35</time>
      </trkpt>
      <trkpt lat="42.08967" lon="0.71488">
        <ele>822.8</ele>
        <time>2022-05-23 10:52:36</time>
      </trkpt>
      <trkpt lat="42.08967" lon="0.71489">
        <ele>823</ele>
        <time>2022-05-23 10:52:37</time>
      </trkpt>
      <trkpt lat="42.08967" lon="0.71491">
        <ele>823.2</ele>
        <time>2022-05-23 10:52:38</time>
      </trkpt>
      <trkpt lat="42.08967" lon="0.71493">
        <ele>823.2</ele>
        <time>2022-05-23 10:52:39</time>
      </trkpt>
      <trkpt lat="42.08967" lon="0.71495">
        <ele>823.4</ele>
        <time>2022-05-23 10:52:40</time>
      </trkpt>
      <trkpt lat="42.08967" lon="0.71498">
        <ele>823.6</ele>
        <time>2022-05-23 10:52:41</time>
      </trkpt>
      <trkpt lat="42.08967" lon="0.715">
        <ele>823.8</ele>
        <time>2022-05-23 10:52:42</time>
      </trkpt>
      <trkpt lat="42.08967" lon="0.71502">
        <ele>824.2</ele>
        <time>2022-05-23 10:52:43</time>
      </trkpt>
      <trkpt lat="42.08966" lon="0.71504">
        <ele>824.4</ele>
        <time>2022-05-23 10:52:44</time>
      </trkpt>
      <trkpt lat="42.08966" lon="0.71506">
        <ele>824.6</ele>
        <time>2022-05-23 10:52:45</time>
      </trkpt>
      <trkpt lat="42.08966" lon="0.71508">
        <ele>824.6</ele>
        <time>2022-05-23 10:52:46</time>
      </trkpt>
      <trkpt lat="42.08966" lon="0.7151">
        <ele>825</ele>
        <time>2022-05-23 10:52:47</time>
      </trkpt>
      <trkpt lat="42.08966" lon="0.71512">
        <ele>825.2</ele>
        <time>2022-05-23 10:52:48</time>
      </trkpt>
      <trkpt lat="42.08966" lon="0.71514">
        <ele>825.4</ele>
        <time>2022-05-23 10:52:49</time>
      </trkpt>
      <trkpt lat="42.08966" lon="0.71517">
        <ele>825.6</ele>
        <time>2022-05-23 10:52:50</time>
      </trkpt>
      <trkpt lat="42.08966" lon="0.71519">
        <ele>825.8</ele>
        <time>2022-05-23 10:52:51</time>
      </trkpt>
      <trkpt lat="42.08966" lon="0.71521">
        <ele>826</ele>
        <time>2022-05-23 10:52:52</time>
      </trkpt>
      <trkpt lat="42.08965" lon="0.71524">
        <ele>826</ele>
        <time>2022-05-23 10:52:53</time>
      </trkpt>
      <trkpt lat="42.08965" lon="0.71526">
        <ele>826.2</ele>
        <time>2022-05-23 10:52:54</time>
      </trkpt>
      <trkpt lat="42.08965" lon="0.71528">
        <ele>826.4</ele>
        <time>2022-05-23 10:52:55</time>
      </trkpt>
      <trkpt lat="42.08965" lon="0.7153">
        <ele>826.8</ele>
        <time>2022-05-23 10:52:56</time>
      </trkpt>
      <trkpt lat="42.08965" lon="0.71532">
        <ele>827</ele>
        <time>2022-05-23 10:52:57</time>
      </trkpt>
      <trkpt lat="42.08965" lon="0.71535">
        <ele>827.2</ele>
        <time>2022-05-23 10:52:58</time>
      </trkpt>
      <trkpt lat="42.08965" lon="0.71536">
        <ele>827.4</ele>
        <time>2022-05-23 10:52:59</time>
      </trkpt>
      <trkpt lat="42.08964" lon="0.71538">
        <ele>827.6</ele>
        <time>2022-05-23 10:53:00</time>
      </trkpt>
      <trkpt lat="42.08965" lon="0.7154">
        <ele>827.8</ele>
        <time>2022-05-23 10:53:01</time>
      </trkpt>
      <trkpt lat="42.08965" lon="0.71542">
        <ele>828</ele>
        <time>2022-05-23 10:53:02</time>
      </trkpt>
      <trkpt lat="42.08965" lon="0.71544">
        <ele>828.4</ele>
        <time>2022-05-23 10:53:03</time>
      </trkpt>
      <trkpt lat="42.08965" lon="0.71546">
        <ele>828.6</ele>
        <time>2022-05-23 10:53:04</time>
      </trkpt>
      <trkpt lat="42.08964" lon="0.71547">
        <ele>828.8</ele>
        <time>2022-05-23 10:53:05</time>
      </trkpt>
      <trkpt lat="42.08964" lon="0.71549">
        <ele>829</ele>
        <time>2022-05-23 10:53:06</time>
      </trkpt>
      <trkpt lat="42.08964" lon="0.71551">
        <ele>829.2</ele>
        <time>2022-05-23 10:53:07</time>
      </trkpt>
      <trkpt lat="42.08964" lon="0.71553">
        <ele>829.4</ele>
        <time>2022-05-23 10:53:08</time>
      </trkpt>
      <trkpt lat="42.08964" lon="0.71556">
        <ele>829.6</ele>
        <time>2022-05-23 10:53:09</time>
      </trkpt>
      <trkpt lat="42.08964" lon="0.71558">
        <ele>829.8</ele>
        <time>2022-05-23 10:53:10</time>
      </trkpt>
      <trkpt lat="42.08964" lon="0.71559">
        <ele>830</ele>
        <time>2022-05-23 10:53:11</time>
      </trkpt>
      <trkpt lat="42.08963" lon="0.71561">
        <ele>830.2</ele>
        <time>2022-05-23 10:53:12</time>
      </trkpt>
      <trkpt lat="42.08963" lon="0.71563">
        <ele>830.4</ele>
        <time>2022-05-23 10:53:13</time>
      </trkpt>
      <trkpt lat="42.08963" lon="0.71565">
        <ele>830.6</ele>
        <time>2022-05-23 10:53:14</time>
      </trkpt>
      <trkpt lat="42.08962" lon="0.71567">
        <ele>830.8</ele>
        <time>2022-05-23 10:53:15</time>
      </trkpt>
      <trkpt lat="42.08961" lon="0.71569">
        <ele>831</ele>
        <time>2022-05-23 10:53:16</time>
      </trkpt>
      <trkpt lat="42.08961" lon="0.71571">
        <ele>831.2</ele>
        <time>2022-05-23 10:53:17</time>
      </trkpt>
      <trkpt lat="42.08961" lon="0.71572">
        <ele>831.4</ele>
        <time>2022-05-23 10:53:18</time>
      </trkpt>
      <trkpt lat="42.0896" lon="0.71574">
        <ele>831.6</ele>
        <time>2022-05-23 10:53:19</time>
      </trkpt>
      <trkpt lat="42.08959" lon="0.71575">
        <ele>831.8</ele>
        <time>2022-05-23 10:53:20</time>
      </trkpt>
      <trkpt lat="42.08959" lon="0.71576">
        <ele>832</ele>
        <time>2022-05-23 10:53:21</time>
      </trkpt>
      <trkpt lat="42.08958" lon="0.71578">
        <ele>832.2</ele>
        <time>2022-05-23 10:53:22</time>
      </trkpt>
      <trkpt lat="42.08958" lon="0.71579">
        <ele>832.4</ele>
        <time>2022-05-23 10:53:23</time>
      </trkpt>
      <trkpt lat="42.08958" lon="0.7158">
        <ele>832.6</ele>
        <time>2022-05-23 10:53:24</time>
      </trkpt>
      <trkpt lat="42.08957" lon="0.71581">
        <ele>832.8</ele>
        <time>2022-05-23 10:53:25</time>
      </trkpt>
      <trkpt lat="42.08956" lon="0.71583">
        <ele>833</ele>
        <time>2022-05-23 10:53:26</time>
      </trkpt>
      <trkpt lat="42.08956" lon="0.71584">
        <ele>833.2</ele>
        <time>2022-05-23 10:53:27</time>
      </trkpt>
      <trkpt lat="42.08955" lon="0.71586">
        <ele>833.4</ele>
        <time>2022-05-23 10:53:28</time>
      </trkpt>
      <trkpt lat="42.08954" lon="0.71587">
        <ele>833.6</ele>
        <time>2022-05-23 10:53:29</time>
      </trkpt>
      <trkpt lat="42.08953" lon="0.71589">
        <ele>833.6</ele>
        <time>2022-05-23 10:53:30</time>
      </trkpt>
      <trkpt lat="42.08953" lon="0.7159">
        <ele>833.8</ele>
        <time>2022-05-23 10:53:31</time>
      </trkpt>
      <trkpt lat="42.08953" lon="0.71592">
        <ele>834</ele>
        <time>2022-05-23 10:53:32</time>
      </trkpt>
      <trkpt lat="42.08952" lon="0.71593">
        <ele>834.2</ele>
        <time>2022-05-23 10:53:33</time>
      </trkpt>
      <trkpt lat="42.08952" lon="0.71594">
        <ele>834.4</ele>
        <time>2022-05-23 10:53:34</time>
      </trkpt>
      <trkpt lat="42.08951" lon="0.71596">
        <ele>834.6</ele>
        <time>2022-05-23 10:53:35</time>
      </trkpt>
      <trkpt lat="42.0895" lon="0.71599">
        <ele>834.8</ele>
        <time>2022-05-23 10:53:36</time>
      </trkpt>
      <trkpt lat="42.08949" lon="0.716">
        <ele>834.8</ele>
        <time>2022-05-23 10:53:37</time>
      </trkpt>
      <trkpt lat="42.08948" lon="0.71602">
        <ele>835</ele>
        <time>2022-05-23 10:53:38</time>
      </trkpt>
      <trkpt lat="42.08948" lon="0.71604">
        <ele>835.2</ele>
        <time>2022-05-23 10:53:39</time>
      </trkpt>
      <trkpt lat="42.08947" lon="0.71606">
        <ele>835.4</ele>
        <time>2022-05-23 10:53:40</time>
      </trkpt>
      <trkpt lat="42.08947" lon="0.71608">
        <ele>835.6</ele>
        <time>2022-05-23 10:53:41</time>
      </trkpt>
      <trkpt lat="42.08946" lon="0.7161">
        <ele>835.6</ele>
        <time>2022-05-23 10:53:42</time>
      </trkpt>
      <trkpt lat="42.08946" lon="0.71611">
        <ele>835.8</ele>
        <time>2022-05-23 10:53:43</time>
      </trkpt>
      <trkpt lat="42.08945" lon="0.71613">
        <ele>836</ele>
        <time>2022-05-23 10:53:44</time>
      </trkpt>
      <trkpt lat="42.08945" lon="0.71615">
        <ele>836.2</ele>
        <time>2022-05-23 10:53:45</time>
      </trkpt>
      <trkpt lat="42.08944" lon="0.71617">
        <ele>836.4</ele>
        <time>2022-05-23 10:53:46</time>
      </trkpt>
      <trkpt lat="42.08944" lon="0.71619">
        <ele>836.6</ele>
        <time>2022-05-23 10:53:47</time>
      </trkpt>
      <trkpt lat="42.08943" lon="0.7162">
        <ele>836.6</ele>
        <time>2022-05-23 10:53:48</time>
      </trkpt>
      <trkpt lat="42.08943" lon="0.71622">
        <ele>836.8</ele>
        <time>2022-05-23 10:53:49</time>
      </trkpt>
      <trkpt lat="42.08942" lon="0.71624">
        <ele>837</ele>
        <time>2022-05-23 10:53:50</time>
      </trkpt>
      <trkpt lat="42.08942" lon="0.71625">
        <ele>837.2</ele>
        <time>2022-05-23 10:53:51</time>
      </trkpt>
      <trkpt lat="42.08942" lon="0.71627">
        <ele>837.4</ele>
        <time>2022-05-23 10:53:52</time>
      </trkpt>
      <trkpt lat="42.08942" lon="0.71629">
        <ele>837.6</ele>
        <time>2022-05-23 10:53:53</time>
      </trkpt>
      <trkpt lat="42.08941" lon="0.71631">
        <ele>837.6</ele>
        <time>2022-05-23 10:53:54</time>
      </trkpt>
      <trkpt lat="42.08941" lon="0.71633">
        <ele>837.8</ele>
        <time>2022-05-23 10:53:55</time>
      </trkpt>
      <trkpt lat="42.0894" lon="0.71635">
        <ele>838</ele>
        <time>2022-05-23 10:53:56</time>
      </trkpt>
      <trkpt lat="42.0894" lon="0.71637">
        <ele>838.2</ele>
        <time>2022-05-23 10:53:57</time>
      </trkpt>
      <trkpt lat="42.0894" lon="0.71639">
        <ele>838.2</ele>
        <time>2022-05-23 10:53:58</time>
      </trkpt>
      <trkpt lat="42.08939" lon="0.71641">
        <ele>838.4</ele>
        <time>2022-05-23 10:53:59</time>
      </trkpt>
      <trkpt lat="42.08939" lon="0.71643">
        <ele>838.6</ele>
        <time>2022-05-23 10:54:00</time>
      </trkpt>
      <trkpt lat="42.08938" lon="0.71645">
        <ele>838.6</ele>
        <time>2022-05-23 10:54:01</time>
      </trkpt>
      <trkpt lat="42.08938" lon="0.71647">
        <ele>838.8</ele>
        <time>2022-05-23 10:54:02</time>
      </trkpt>
      <trkpt lat="42.08937" lon="0.71649">
        <ele>839</ele>
        <time>2022-05-23 10:54:03</time>
      </trkpt>
      <trkpt lat="42.08937" lon="0.71651">
        <ele>839</ele>
        <time>2022-05-23 10:54:04</time>
      </trkpt>
      <trkpt lat="42.08936" lon="0.71653">
        <ele>839.2</ele>
        <time>2022-05-23 10:54:05</time>
      </trkpt>
      <trkpt lat="42.08936" lon="0.71655">
        <ele>839.4</ele>
        <time>2022-05-23 10:54:06</time>
      </trkpt>
      <trkpt lat="42.08936" lon="0.71657">
        <ele>839.6</ele>
        <time>2022-05-23 10:54:07</time>
      </trkpt>
      <trkpt lat="42.08935" lon="0.71659">
        <ele>839.6</ele>
        <time>2022-05-23 10:54:08</time>
      </trkpt>
      <trkpt lat="42.08934" lon="0.71661">
        <ele>839.8</ele>
        <time>2022-05-23 10:54:09</time>
      </trkpt>
      <trkpt lat="42.08933" lon="0.71664">
        <ele>840</ele>
        <time>2022-05-23 10:54:10</time>
      </trkpt>
      <trkpt lat="42.08932" lon="0.71666">
        <ele>840</ele>
        <time>2022-05-23 10:54:11</time>
      </trkpt>
      <trkpt lat="42.08932" lon="0.71668">
        <ele>840.2</ele>
        <time>2022-05-23 10:54:12</time>
      </trkpt>
      <trkpt lat="42.08931" lon="0.7167">
        <ele>840.4</ele>
        <time>2022-05-23 10:54:13</time>
      </trkpt>
      <trkpt lat="42.08931" lon="0.71671">
        <ele>840.6</ele>
        <time>2022-05-23 10:54:14</time>
      </trkpt>
      <trkpt lat="42.0893" lon="0.71673">
        <ele>840.6</ele>
        <time>2022-05-23 10:54:15</time>
      </trkpt>
      <trkpt lat="42.08929" lon="0.71675">
        <ele>840.8</ele>
        <time>2022-05-23 10:54:16</time>
      </trkpt>
      <trkpt lat="42.08929" lon="0.71677">
        <ele>841</ele>
        <time>2022-05-23 10:54:17</time>
      </trkpt>
      <trkpt lat="42.08928" lon="0.71679">
        <ele>841.2</ele>
        <time>2022-05-23 10:54:18</time>
      </trkpt>
      <trkpt lat="42.08928" lon="0.7168">
        <ele>841.4</ele>
        <time>2022-05-23 10:54:19</time>
      </trkpt>
      <trkpt lat="42.08927" lon="0.71682">
        <ele>841.4</ele>
        <time>2022-05-23 10:54:20</time>
      </trkpt>
      <trkpt lat="42.08926" lon="0.71684">
        <ele>841.6</ele>
        <time>2022-05-23 10:54:21</time>
      </trkpt>
      <trkpt lat="42.08926" lon="0.71686">
        <ele>841.8</ele>
        <time>2022-05-23 10:54:22</time>
      </trkpt>
      <trkpt lat="42.08925" lon="0.71687">
        <ele>842</ele>
        <time>2022-05-23 10:54:23</time>
      </trkpt>
      <trkpt lat="42.08924" lon="0.71689">
        <ele>842.2</ele>
        <time>2022-05-23 10:54:24</time>
      </trkpt>
      <trkpt lat="42.08923" lon="0.71691">
        <ele>842.4</ele>
        <time>2022-05-23 10:54:25</time>
      </trkpt>
      <trkpt lat="42.08923" lon="0.71693">
        <ele>842.6</ele>
        <time>2022-05-23 10:54:26</time>
      </trkpt>
      <trkpt lat="42.08922" lon="0.71694">
        <ele>842.8</ele>
        <time>2022-05-23 10:54:27</time>
      </trkpt>
      <trkpt lat="42.08921" lon="0.71696">
        <ele>843</ele>
        <time>2022-05-23 10:54:28</time>
      </trkpt>
      <trkpt lat="42.08921" lon="0.71698">
        <ele>843.2</ele>
        <time>2022-05-23 10:54:29</time>
      </trkpt>
      <trkpt lat="42.08921" lon="0.717">
        <ele>843.2</ele>
        <time>2022-05-23 10:54:30</time>
      </trkpt>
      <trkpt lat="42.0892" lon="0.71702">
        <ele>843.4</ele>
        <time>2022-05-23 10:54:31</time>
      </trkpt>
      <trkpt lat="42.08919" lon="0.71704">
        <ele>843.6</ele>
        <time>2022-05-23 10:54:32</time>
      </trkpt>
      <trkpt lat="42.08918" lon="0.71706">
        <ele>843.8</ele>
        <time>2022-05-23 10:54:33</time>
      </trkpt>
      <trkpt lat="42.08918" lon="0.71708">
        <ele>844</ele>
        <time>2022-05-23 10:54:34</time>
      </trkpt>
      <trkpt lat="42.08918" lon="0.7171">
        <ele>844.2</ele>
        <time>2022-05-23 10:54:35</time>
      </trkpt>
      <trkpt lat="42.08917" lon="0.71712">
        <ele>844.4</ele>
        <time>2022-05-23 10:54:36</time>
      </trkpt>
      <trkpt lat="42.08917" lon="0.71714">
        <ele>844.6</ele>
        <time>2022-05-23 10:54:37</time>
      </trkpt>
      <trkpt lat="42.08916" lon="0.71716">
        <ele>844.8</ele>
        <time>2022-05-23 10:54:38</time>
      </trkpt>
      <trkpt lat="42.08915" lon="0.71718">
        <ele>845</ele>
        <time>2022-05-23 10:54:39</time>
      </trkpt>
      <trkpt lat="42.08915" lon="0.7172">
        <ele>845.2</ele>
        <time>2022-05-23 10:54:40</time>
      </trkpt>
      <trkpt lat="42.08915" lon="0.71722">
        <ele>845.4</ele>
        <time>2022-05-23 10:54:41</time>
      </trkpt>
      <trkpt lat="42.08914" lon="0.71724">
        <ele>845.4</ele>
        <time>2022-05-23 10:54:42</time>
      </trkpt>
      <trkpt lat="42.08914" lon="0.71727">
        <ele>845.6</ele>
        <time>2022-05-23 10:54:43</time>
      </trkpt>
      <trkpt lat="42.08914" lon="0.71729">
        <ele>845.8</ele>
        <time>2022-05-23 10:54:44</time>
      </trkpt>
      <trkpt lat="42.08913" lon="0.71731">
        <ele>846</ele>
        <time>2022-05-23 10:54:45</time>
      </trkpt>
      <trkpt lat="42.08913" lon="0.71733">
        <ele>846.2</ele>
        <time>2022-05-23 10:54:46</time>
      </trkpt>
      <trkpt lat="42.08912" lon="0.71735">
        <ele>846.2</ele>
        <time>2022-05-23 10:54:47</time>
      </trkpt>
      <trkpt lat="42.08912" lon="0.71737">
        <ele>846.4</ele>
        <time>2022-05-23 10:54:48</time>
      </trkpt>
      <trkpt lat="42.08912" lon="0.71739">
        <ele>846.6</ele>
        <time>2022-05-23 10:54:49</time>
      </trkpt>
      <trkpt lat="42.08912" lon="0.71741">
        <ele>846.8</ele>
        <time>2022-05-23 10:54:50</time>
      </trkpt>
      <trkpt lat="42.08912" lon="0.71743">
        <ele>846.8</ele>
        <time>2022-05-23 10:54:51</time>
      </trkpt>
      <trkpt lat="42.08911" lon="0.71745">
        <ele>847</ele>
        <time>2022-05-23 10:54:52</time>
      </trkpt>
      <trkpt lat="42.08911" lon="0.71747">
        <ele>847.2</ele>
        <time>2022-05-23 10:54:53</time>
      </trkpt>
      <trkpt lat="42.08911" lon="0.71749">
        <ele>847.4</ele>
        <time>2022-05-23 10:54:54</time>
      </trkpt>
      <trkpt lat="42.08911" lon="0.71751">
        <ele>847.4</ele>
        <time>2022-05-23 10:54:55</time>
      </trkpt>
      <trkpt lat="42.0891" lon="0.71752">
        <ele>847.6</ele>
        <time>2022-05-23 10:54:56</time>
      </trkpt>
      <trkpt lat="42.0891" lon="0.71754">
        <ele>847.6</ele>
        <time>2022-05-23 10:54:57</time>
      </trkpt>
      <trkpt lat="42.0891" lon="0.71756">
        <ele>847.8</ele>
        <time>2022-05-23 10:54:58</time>
      </trkpt>
      <trkpt lat="42.0891" lon="0.71757">
        <ele>848</ele>
        <time>2022-05-23 10:54:59</time>
      </trkpt>
      <trkpt lat="42.08909" lon="0.71759">
        <ele>848</ele>
        <time>2022-05-23 10:55:00</time>
      </trkpt>
      <trkpt lat="42.08909" lon="0.71761">
        <ele>848.2</ele>
        <time>2022-05-23 10:55:01</time>
      </trkpt>
      <trkpt lat="42.08909" lon="0.71763">
        <ele>848.4</ele>
        <time>2022-05-23 10:55:02</time>
      </trkpt>
      <trkpt lat="42.08909" lon="0.71765">
        <ele>848.6</ele>
        <time>2022-05-23 10:55:03</time>
      </trkpt>
      <trkpt lat="42.08908" lon="0.71768">
        <ele>848.6</ele>
        <time>2022-05-23 10:55:04</time>
      </trkpt>
      <trkpt lat="42.08908" lon="0.7177">
        <ele>848.8</ele>
        <time>2022-05-23 10:55:05</time>
      </trkpt>
      <trkpt lat="42.08908" lon="0.71772">
        <ele>849</ele>
        <time>2022-05-23 10:55:06</time>
      </trkpt>
      <trkpt lat="42.08907" lon="0.71773">
        <ele>849.2</ele>
        <time>2022-05-23 10:55:07</time>
      </trkpt>
      <trkpt lat="42.08907" lon="0.71775">
        <ele>849.4</ele>
        <time>2022-05-23 10:55:08</time>
      </trkpt>
      <trkpt lat="42.08907" lon="0.71777">
        <ele>849.4</ele>
        <time>2022-05-23 10:55:09</time>
      </trkpt>
      <trkpt lat="42.08907" lon="0.71779">
        <ele>849.6</ele>
        <time>2022-05-23 10:55:10</time>
      </trkpt>
      <trkpt lat="42.08907" lon="0.71781">
        <ele>849.8</ele>
        <time>2022-05-23 10:55:11</time>
      </trkpt>
      <trkpt lat="42.08907" lon="0.71783">
        <ele>850</ele>
        <time>2022-05-23 10:55:12</time>
      </trkpt>
      <trkpt lat="42.08907" lon="0.71785">
        <ele>850.2</ele>
        <time>2022-05-23 10:55:13</time>
      </trkpt>
      <trkpt lat="42.08908" lon="0.71786">
        <ele>850.2</ele>
        <time>2022-05-23 10:55:14</time>
      </trkpt>
      <trkpt lat="42.08908" lon="0.71788">
        <ele>850.4</ele>
        <time>2022-05-23 10:55:15</time>
      </trkpt>
      <trkpt lat="42.08908" lon="0.71789">
        <ele>850.6</ele>
        <time>2022-05-23 10:55:16</time>
      </trkpt>
      <trkpt lat="42.08907" lon="0.71791">
        <ele>850.8</ele>
        <time>2022-05-23 10:55:17</time>
      </trkpt>
      <trkpt lat="42.08907" lon="0.71793">
        <ele>851</ele>
        <time>2022-05-23 10:55:18</time>
      </trkpt>
      <trkpt lat="42.08907" lon="0.71795">
        <ele>851</ele>
        <time>2022-05-23 10:55:19</time>
      </trkpt>
      <trkpt lat="42.08906" lon="0.71796">
        <ele>851.2</ele>
        <time>2022-05-23 10:55:20</time>
      </trkpt>
      <trkpt lat="42.08906" lon="0.71798">
        <ele>851.4</ele>
        <time>2022-05-23 10:55:21</time>
      </trkpt>
      <trkpt lat="42.08906" lon="0.718">
        <ele>851.6</ele>
        <time>2022-05-23 10:55:22</time>
      </trkpt>
      <trkpt lat="42.08905" lon="0.71802">
        <ele>851.8</ele>
        <time>2022-05-23 10:55:23</time>
      </trkpt>
      <trkpt lat="42.08905" lon="0.71804">
        <ele>852</ele>
        <time>2022-05-23 10:55:24</time>
      </trkpt>
      <trkpt lat="42.08905" lon="0.71806">
        <ele>852.2</ele>
        <time>2022-05-23 10:55:25</time>
      </trkpt>
      <trkpt lat="42.08904" lon="0.71808">
        <ele>852.2</ele>
        <time>2022-05-23 10:55:26</time>
      </trkpt>
      <trkpt lat="42.08904" lon="0.7181">
        <ele>852.4</ele>
        <time>2022-05-23 10:55:27</time>
      </trkpt>
      <trkpt lat="42.08904" lon="0.71812">
        <ele>852.6</ele>
        <time>2022-05-23 10:55:28</time>
      </trkpt>
      <trkpt lat="42.08904" lon="0.71814">
        <ele>852.8</ele>
        <time>2022-05-23 10:55:29</time>
      </trkpt>
      <trkpt lat="42.08904" lon="0.71816">
        <ele>853</ele>
        <time>2022-05-23 10:55:30</time>
      </trkpt>
      <trkpt lat="42.08903" lon="0.71818">
        <ele>853.2</ele>
        <time>2022-05-23 10:55:31</time>
      </trkpt>
      <trkpt lat="42.08903" lon="0.7182">
        <ele>853.4</ele>
        <time>2022-05-23 10:55:32</time>
      </trkpt>
      <trkpt lat="42.08902" lon="0.71822">
        <ele>853.6</ele>
        <time>2022-05-23 10:55:33</time>
      </trkpt>
      <trkpt lat="42.08902" lon="0.71824">
        <ele>853.8</ele>
        <time>2022-05-23 10:55:34</time>
      </trkpt>
      <trkpt lat="42.08902" lon="0.71826">
        <ele>853.8</ele>
        <time>2022-05-23 10:55:35</time>
      </trkpt>
      <trkpt lat="42.08902" lon="0.71828">
        <ele>854</ele>
        <time>2022-05-23 10:55:36</time>
      </trkpt>
      <trkpt lat="42.08901" lon="0.71829">
        <ele>854.2</ele>
        <time>2022-05-23 10:55:37</time>
      </trkpt>
      <trkpt lat="42.08901" lon="0.71831">
        <ele>854.4</ele>
        <time>2022-05-23 10:55:38</time>
      </trkpt>
      <trkpt lat="42.089" lon="0.71833">
        <ele>854.6</ele>
        <time>2022-05-23 10:55:39</time>
      </trkpt>
      <trkpt lat="42.089" lon="0.71835">
        <ele>854.8</ele>
        <time>2022-05-23 10:55:40</time>
      </trkpt>
      <trkpt lat="42.089" lon="0.71837">
        <ele>855</ele>
        <time>2022-05-23 10:55:41</time>
      </trkpt>
      <trkpt lat="42.08899" lon="0.71839">
        <ele>855.2</ele>
        <time>2022-05-23 10:55:42</time>
      </trkpt>
      <trkpt lat="42.08899" lon="0.71841">
        <ele>855.2</ele>
        <time>2022-05-23 10:55:43</time>
      </trkpt>
      <trkpt lat="42.08898" lon="0.71843">
        <ele>855.4</ele>
        <time>2022-05-23 10:55:44</time>
      </trkpt>
      <trkpt lat="42.08898" lon="0.71845">
        <ele>855.6</ele>
        <time>2022-05-23 10:55:45</time>
      </trkpt>
      <trkpt lat="42.08898" lon="0.71847">
        <ele>855.6</ele>
        <time>2022-05-23 10:55:46</time>
      </trkpt>
      <trkpt lat="42.08898" lon="0.71849">
        <ele>855.8</ele>
        <time>2022-05-23 10:55:47</time>
      </trkpt>
      <trkpt lat="42.08897" lon="0.7185">
        <ele>856</ele>
        <time>2022-05-23 10:55:48</time>
      </trkpt>
      <trkpt lat="42.08897" lon="0.71852">
        <ele>856.2</ele>
        <time>2022-05-23 10:55:49</time>
      </trkpt>
      <trkpt lat="42.08896" lon="0.71854">
        <ele>856.4</ele>
        <time>2022-05-23 10:55:50</time>
      </trkpt>
      <trkpt lat="42.08895" lon="0.71856">
        <ele>856.4</ele>
        <time>2022-05-23 10:55:51</time>
      </trkpt>
      <trkpt lat="42.08895" lon="0.71857">
        <ele>856.6</ele>
        <time>2022-05-23 10:55:52</time>
      </trkpt>
      <trkpt lat="42.08894" lon="0.71859">
        <ele>856.8</ele>
        <time>2022-05-23 10:55:53</time>
      </trkpt>
      <trkpt lat="42.08894" lon="0.71861">
        <ele>857</ele>
        <time>2022-05-23 10:55:54</time>
      </trkpt>
      <trkpt lat="42.08894" lon="0.71862">
        <ele>857</ele>
        <time>2022-05-23 10:55:55</time>
      </trkpt>
      <trkpt lat="42.08893" lon="0.71864">
        <ele>857.2</ele>
        <time>2022-05-23 10:55:56</time>
      </trkpt>
      <trkpt lat="42.08892" lon="0.71866">
        <ele>857.4</ele>
        <time>2022-05-23 10:55:57</time>
      </trkpt>
      <trkpt lat="42.08892" lon="0.71868">
        <ele>857.4</ele>
        <time>2022-05-23 10:55:58</time>
      </trkpt>
      <trkpt lat="42.08892" lon="0.7187">
        <ele>857.6</ele>
        <time>2022-05-23 10:55:59</time>
      </trkpt>
      <trkpt lat="42.08892" lon="0.71871">
        <ele>857.8</ele>
        <time>2022-05-23 10:56:00</time>
      </trkpt>
      <trkpt lat="42.08891" lon="0.71873">
        <ele>858</ele>
        <time>2022-05-23 10:56:01</time>
      </trkpt>
      <trkpt lat="42.08891" lon="0.71875">
        <ele>858.2</ele>
        <time>2022-05-23 10:56:02</time>
      </trkpt>
      <trkpt lat="42.0889" lon="0.71876">
        <ele>858.2</ele>
        <time>2022-05-23 10:56:03</time>
      </trkpt>
      <trkpt lat="42.0889" lon="0.71878">
        <ele>858.4</ele>
        <time>2022-05-23 10:56:04</time>
      </trkpt>
      <trkpt lat="42.08889" lon="0.7188">
        <ele>858.6</ele>
        <time>2022-05-23 10:56:05</time>
      </trkpt>
      <trkpt lat="42.08889" lon="0.71882">
        <ele>858.6</ele>
        <time>2022-05-23 10:56:06</time>
      </trkpt>
      <trkpt lat="42.08889" lon="0.71883">
        <ele>858.8</ele>
        <time>2022-05-23 10:56:07</time>
      </trkpt>
      <trkpt lat="42.08888" lon="0.71885">
        <ele>859</ele>
        <time>2022-05-23 10:56:08</time>
      </trkpt>
      <trkpt lat="42.08887" lon="0.71887">
        <ele>859.2</ele>
        <time>2022-05-23 10:56:09</time>
      </trkpt>
      <trkpt lat="42.08887" lon="0.71889">
        <ele>859.4</ele>
        <time>2022-05-23 10:56:10</time>
      </trkpt>
      <trkpt lat="42.08887" lon="0.7189">
        <ele>859.6</ele>
        <time>2022-05-23 10:56:11</time>
      </trkpt>
      <trkpt lat="42.08886" lon="0.71892">
        <ele>859.8</ele>
        <time>2022-05-23 10:56:12</time>
      </trkpt>
      <trkpt lat="42.08886" lon="0.71894">
        <ele>860</ele>
        <time>2022-05-23 10:56:13</time>
      </trkpt>
      <trkpt lat="42.08886" lon="0.71896">
        <ele>860.2</ele>
        <time>2022-05-23 10:56:14</time>
      </trkpt>
      <trkpt lat="42.08885" lon="0.71898">
        <ele>860.4</ele>
        <time>2022-05-23 10:56:15</time>
      </trkpt>
      <trkpt lat="42.08884" lon="0.719">
        <ele>860.6</ele>
        <time>2022-05-23 10:56:16</time>
      </trkpt>
      <trkpt lat="42.08884" lon="0.71902">
        <ele>860.6</ele>
        <time>2022-05-23 10:56:17</time>
      </trkpt>
      <trkpt lat="42.08883" lon="0.71904">
        <ele>860.8</ele>
        <time>2022-05-23 10:56:18</time>
      </trkpt>
      <trkpt lat="42.08882" lon="0.71906">
        <ele>861</ele>
        <time>2022-05-23 10:56:19</time>
      </trkpt>
      <trkpt lat="42.08882" lon="0.71909">
        <ele>861.2</ele>
        <time>2022-05-23 10:56:20</time>
      </trkpt>
      <trkpt lat="42.08881" lon="0.71911">
        <ele>861.4</ele>
        <time>2022-05-23 10:56:21</time>
      </trkpt>
      <trkpt lat="42.0888" lon="0.71913">
        <ele>861.6</ele>
        <time>2022-05-23 10:56:22</time>
      </trkpt>
      <trkpt lat="42.0888" lon="0.71915">
        <ele>861.8</ele>
        <time>2022-05-23 10:56:23</time>
      </trkpt>
      <trkpt lat="42.08879" lon="0.71917">
        <ele>862</ele>
        <time>2022-05-23 10:56:24</time>
      </trkpt>
      <trkpt lat="42.08878" lon="0.71919">
        <ele>862.2</ele>
        <time>2022-05-23 10:56:25</time>
      </trkpt>
      <trkpt lat="42.08878" lon="0.71921">
        <ele>862.4</ele>
        <time>2022-05-23 10:56:26</time>
      </trkpt>
      <trkpt lat="42.08877" lon="0.71924">
        <ele>862.6</ele>
        <time>2022-05-23 10:56:27</time>
      </trkpt>
      <trkpt lat="42.08876" lon="0.71926">
        <ele>862.8</ele>
        <time>2022-05-23 10:56:28</time>
      </trkpt>
      <trkpt lat="42.08876" lon="0.71928">
        <ele>863.2</ele>
        <time>2022-05-23 10:56:29</time>
      </trkpt>
      <trkpt lat="42.08875" lon="0.7193">
        <ele>863.4</ele>
        <time>2022-05-23 10:56:30</time>
      </trkpt>
      <trkpt lat="42.08874" lon="0.71931">
        <ele>863.6</ele>
        <time>2022-05-23 10:56:31</time>
      </trkpt>
      <trkpt lat="42.08873" lon="0.71933">
        <ele>863.8</ele>
        <time>2022-05-23 10:56:32</time>
      </trkpt>
      <trkpt lat="42.08873" lon="0.71935">
        <ele>864</ele>
        <time>2022-05-23 10:56:33</time>
      </trkpt>
      <trkpt lat="42.08872" lon="0.71937">
        <ele>864.2</ele>
        <time>2022-05-23 10:56:34</time>
      </trkpt>
      <trkpt lat="42.08872" lon="0.7194">
        <ele>864.4</ele>
        <time>2022-05-23 10:56:35</time>
      </trkpt>
      <trkpt lat="42.08872" lon="0.71942">
        <ele>864.4</ele>
        <time>2022-05-23 10:56:36</time>
      </trkpt>
      <trkpt lat="42.08871" lon="0.71944">
        <ele>864.6</ele>
        <time>2022-05-23 10:56:37</time>
      </trkpt>
      <trkpt lat="42.08871" lon="0.71946">
        <ele>864.8</ele>
        <time>2022-05-23 10:56:38</time>
      </trkpt>
      <trkpt lat="42.0887" lon="0.71949">
        <ele>865</ele>
        <time>2022-05-23 10:56:39</time>
      </trkpt>
      <trkpt lat="42.08869" lon="0.71951">
        <ele>865.2</ele>
        <time>2022-05-23 10:56:40</time>
      </trkpt>
      <trkpt lat="42.08868" lon="0.71953">
        <ele>865.4</ele>
        <time>2022-05-23 10:56:41</time>
      </trkpt>
      <trkpt lat="42.08868" lon="0.71955">
        <ele>865.6</ele>
        <time>2022-05-23 10:56:42</time>
      </trkpt>
      <trkpt lat="42.08866" lon="0.71957">
        <ele>865.8</ele>
        <time>2022-05-23 10:56:43</time>
      </trkpt>
      <trkpt lat="42.08865" lon="0.71959">
        <ele>866</ele>
        <time>2022-05-23 10:56:44</time>
      </trkpt>
      <trkpt lat="42.08864" lon="0.71961">
        <ele>866.2</ele>
        <time>2022-05-23 10:56:45</time>
      </trkpt>
      <trkpt lat="42.08863" lon="0.71963">
        <ele>866.4</ele>
        <time>2022-05-23 10:56:46</time>
      </trkpt>
      <trkpt lat="42.08862" lon="0.71964">
        <ele>866.6</ele>
        <time>2022-05-23 10:56:47</time>
      </trkpt>
      <trkpt lat="42.08861" lon="0.71966">
        <ele>866.8</ele>
        <time>2022-05-23 10:56:48</time>
      </trkpt>
      <trkpt lat="42.0886" lon="0.71968">
        <ele>867</ele>
        <time>2022-05-23 10:56:49</time>
      </trkpt>
      <trkpt lat="42.0886" lon="0.7197">
        <ele>867.2</ele>
        <time>2022-05-23 10:56:50</time>
      </trkpt>
      <trkpt lat="42.08858" lon="0.71972">
        <ele>867.2</ele>
        <time>2022-05-23 10:56:51</time>
      </trkpt>
      <trkpt lat="42.08858" lon="0.71975">
        <ele>867.4</ele>
        <time>2022-05-23 10:56:52</time>
      </trkpt>
      <trkpt lat="42.08857" lon="0.71977">
        <ele>867.6</ele>
        <time>2022-05-23 10:56:53</time>
      </trkpt>
      <trkpt lat="42.08857" lon="0.71979">
        <ele>867.8</ele>
        <time>2022-05-23 10:56:54</time>
      </trkpt>
      <trkpt lat="42.08856" lon="0.71981">
        <ele>868</ele>
        <time>2022-05-23 10:56:55</time>
      </trkpt>
      <trkpt lat="42.08855" lon="0.71983">
        <ele>868.2</ele>
        <time>2022-05-23 10:56:56</time>
      </trkpt>
      <trkpt lat="42.08854" lon="0.71986">
        <ele>868.4</ele>
        <time>2022-05-23 10:56:57</time>
      </trkpt>
      <trkpt lat="42.08853" lon="0.71988">
        <ele>868.6</ele>
        <time>2022-05-23 10:56:58</time>
      </trkpt>
      <trkpt lat="42.08852" lon="0.7199">
        <ele>868.8</ele>
        <time>2022-05-23 10:56:59</time>
      </trkpt>
      <trkpt lat="42.08851" lon="0.71993">
        <ele>869</ele>
        <time>2022-05-23 10:57:00</time>
      </trkpt>
      <trkpt lat="42.0885" lon="0.71995">
        <ele>869.2</ele>
        <time>2022-05-23 10:57:01</time>
      </trkpt>
      <trkpt lat="42.08849" lon="0.71997">
        <ele>869.4</ele>
        <time>2022-05-23 10:57:02</time>
      </trkpt>
      <trkpt lat="42.08847" lon="0.72">
        <ele>869.6</ele>
        <time>2022-05-23 10:57:03</time>
      </trkpt>
      <trkpt lat="42.08847" lon="0.72002">
        <ele>869.8</ele>
        <time>2022-05-23 10:57:04</time>
      </trkpt>
      <trkpt lat="42.08846" lon="0.72004">
        <ele>870</ele>
        <time>2022-05-23 10:57:05</time>
      </trkpt>
      <trkpt lat="42.08845" lon="0.72006">
        <ele>870.2</ele>
        <time>2022-05-23 10:57:06</time>
      </trkpt>
      <trkpt lat="42.08844" lon="0.72008">
        <ele>870.4</ele>
        <time>2022-05-23 10:57:07</time>
      </trkpt>
      <trkpt lat="42.08843" lon="0.7201">
        <ele>870.6</ele>
        <time>2022-05-23 10:57:08</time>
      </trkpt>
      <trkpt lat="42.08842" lon="0.72012">
        <ele>870.8</ele>
        <time>2022-05-23 10:57:09</time>
      </trkpt>
      <trkpt lat="42.08841" lon="0.72014">
        <ele>871</ele>
        <time>2022-05-23 10:57:10</time>
      </trkpt>
      <trkpt lat="42.0884" lon="0.72016">
        <ele>871.2</ele>
        <time>2022-05-23 10:57:11</time>
      </trkpt>
      <trkpt lat="42.08839" lon="0.72018">
        <ele>871.4</ele>
        <time>2022-05-23 10:57:12</time>
      </trkpt>
      <trkpt lat="42.08838" lon="0.7202">
        <ele>871.4</ele>
        <time>2022-05-23 10:57:13</time>
      </trkpt>
      <trkpt lat="42.08837" lon="0.72022">
        <ele>871.6</ele>
        <time>2022-05-23 10:57:14</time>
      </trkpt>
      <trkpt lat="42.08836" lon="0.72025">
        <ele>871.8</ele>
        <time>2022-05-23 10:57:15</time>
      </trkpt>
      <trkpt lat="42.08835" lon="0.72027">
        <ele>872</ele>
        <time>2022-05-23 10:57:16</time>
      </trkpt>
      <trkpt lat="42.08834" lon="0.72029">
        <ele>872</ele>
        <time>2022-05-23 10:57:17</time>
      </trkpt>
      <trkpt lat="42.08833" lon="0.72031">
        <ele>872.2</ele>
        <time>2022-05-23 10:57:18</time>
      </trkpt>
      <trkpt lat="42.08832" lon="0.72033">
        <ele>872.4</ele>
        <time>2022-05-23 10:57:19</time>
      </trkpt>
      <trkpt lat="42.08831" lon="0.72035">
        <ele>872.6</ele>
        <time>2022-05-23 10:57:20</time>
      </trkpt>
      <trkpt lat="42.0883" lon="0.72037">
        <ele>872.8</ele>
        <time>2022-05-23 10:57:21</time>
      </trkpt>
      <trkpt lat="42.08829" lon="0.72039">
        <ele>873</ele>
        <time>2022-05-23 10:57:22</time>
      </trkpt>
      <trkpt lat="42.08828" lon="0.72041">
        <ele>873.2</ele>
        <time>2022-05-23 10:57:23</time>
      </trkpt>
      <trkpt lat="42.08827" lon="0.72042">
        <ele>873.2</ele>
        <time>2022-05-23 10:57:24</time>
      </trkpt>
      <trkpt lat="42.08825" lon="0.72044">
        <ele>873.4</ele>
        <time>2022-05-23 10:57:25</time>
      </trkpt>
      <trkpt lat="42.08824" lon="0.72045">
        <ele>873.6</ele>
        <time>2022-05-23 10:57:26</time>
      </trkpt>
      <trkpt lat="42.08823" lon="0.72047">
        <ele>873.6</ele>
        <time>2022-05-23 10:57:27</time>
      </trkpt>
      <trkpt lat="42.08821" lon="0.72048">
        <ele>873.8</ele>
        <time>2022-05-23 10:57:28</time>
      </trkpt>
      <trkpt lat="42.0882" lon="0.7205">
        <ele>874</ele>
        <time>2022-05-23 10:57:29</time>
      </trkpt>
      <trkpt lat="42.08819" lon="0.72052">
        <ele>874</ele>
        <time>2022-05-23 10:57:30</time>
      </trkpt>
      <trkpt lat="42.08818" lon="0.72054">
        <ele>874.2</ele>
        <time>2022-05-23 10:57:31</time>
      </trkpt>
      <trkpt lat="42.08817" lon="0.72056">
        <ele>874.4</ele>
        <time>2022-05-23 10:57:32</time>
      </trkpt>
      <trkpt lat="42.08816" lon="0.72057">
        <ele>874.4</ele>
        <time>2022-05-23 10:57:33</time>
      </trkpt>
      <trkpt lat="42.08814" lon="0.72059">
        <ele>874.6</ele>
        <time>2022-05-23 10:57:34</time>
      </trkpt>
      <trkpt lat="42.08813" lon="0.7206">
        <ele>874.8</ele>
        <time>2022-05-23 10:57:35</time>
      </trkpt>
      <trkpt lat="42.08812" lon="0.72062">
        <ele>874.8</ele>
        <time>2022-05-23 10:57:36</time>
      </trkpt>
      <trkpt lat="42.0881" lon="0.72064">
        <ele>875</ele>
        <time>2022-05-23 10:57:37</time>
      </trkpt>
      <trkpt lat="42.08809" lon="0.72066">
        <ele>875.2</ele>
        <time>2022-05-23 10:57:38</time>
      </trkpt>
      <trkpt lat="42.08808" lon="0.72067">
        <ele>875.2</ele>
        <time>2022-05-23 10:57:39</time>
      </trkpt>
      <trkpt lat="42.08807" lon="0.72069">
        <ele>875.4</ele>
        <time>2022-05-23 10:57:40</time>
      </trkpt>
      <trkpt lat="42.08806" lon="0.72071">
        <ele>875.6</ele>
        <time>2022-05-23 10:57:41</time>
      </trkpt>
      <trkpt lat="42.08804" lon="0.72072">
        <ele>875.8</ele>
        <time>2022-05-23 10:57:42</time>
      </trkpt>
      <trkpt lat="42.08803" lon="0.72073">
        <ele>875.8</ele>
        <time>2022-05-23 10:57:43</time>
      </trkpt>
      <trkpt lat="42.08802" lon="0.72074">
        <ele>876</ele>
        <time>2022-05-23 10:57:44</time>
      </trkpt>
      <trkpt lat="42.088" lon="0.72076">
        <ele>876</ele>
        <time>2022-05-23 10:57:45</time>
      </trkpt>
      <trkpt lat="42.08799" lon="0.72077">
        <ele>876.2</ele>
        <time>2022-05-23 10:57:46</time>
      </trkpt>
      <trkpt lat="42.08798" lon="0.72078">
        <ele>876.4</ele>
        <time>2022-05-23 10:57:47</time>
      </trkpt>
      <trkpt lat="42.08796" lon="0.7208">
        <ele>876.4</ele>
        <time>2022-05-23 10:57:48</time>
      </trkpt>
      <trkpt lat="42.08795" lon="0.72081">
        <ele>876.6</ele>
        <time>2022-05-23 10:57:49</time>
      </trkpt>
      <trkpt lat="42.08794" lon="0.72083">
        <ele>876.6</ele>
        <time>2022-05-23 10:57:50</time>
      </trkpt>
      <trkpt lat="42.08793" lon="0.72084">
        <ele>876.8</ele>
        <time>2022-05-23 10:57:51</time>
      </trkpt>
      <trkpt lat="42.08792" lon="0.72086">
        <ele>877</ele>
        <time>2022-05-23 10:57:52</time>
      </trkpt>
      <trkpt lat="42.08791" lon="0.72087">
        <ele>877</ele>
        <time>2022-05-23 10:57:53</time>
      </trkpt>
      <trkpt lat="42.08789" lon="0.72088">
        <ele>877.2</ele>
        <time>2022-05-23 10:57:54</time>
      </trkpt>
      <trkpt lat="42.08787" lon="0.72089">
        <ele>877.4</ele>
        <time>2022-05-23 10:57:55</time>
      </trkpt>
      <trkpt lat="42.08786" lon="0.72091">
        <ele>877.6</ele>
        <time>2022-05-23 10:57:56</time>
      </trkpt>
      <trkpt lat="42.08785" lon="0.72092">
        <ele>877.6</ele>
        <time>2022-05-23 10:57:57</time>
      </trkpt>
      <trkpt lat="42.08783" lon="0.72094">
        <ele>877.8</ele>
        <time>2022-05-23 10:57:58</time>
      </trkpt>
      <trkpt lat="42.08782" lon="0.72095">
        <ele>878</ele>
        <time>2022-05-23 10:57:59</time>
      </trkpt>
      <trkpt lat="42.08781" lon="0.72096">
        <ele>878.2</ele>
        <time>2022-05-23 10:58:00</time>
      </trkpt>
      <trkpt lat="42.08779" lon="0.72098">
        <ele>878.4</ele>
        <time>2022-05-23 10:58:01</time>
      </trkpt>
      <trkpt lat="42.08778" lon="0.72099">
        <ele>878.4</ele>
        <time>2022-05-23 10:58:02</time>
      </trkpt>
      <trkpt lat="42.08777" lon="0.721">
        <ele>878.6</ele>
        <time>2022-05-23 10:58:03</time>
      </trkpt>
      <trkpt lat="42.08776" lon="0.72102">
        <ele>878.8</ele>
        <time>2022-05-23 10:58:04</time>
      </trkpt>
      <trkpt lat="42.08775" lon="0.72103">
        <ele>879</ele>
        <time>2022-05-23 10:58:05</time>
      </trkpt>
      <trkpt lat="42.08773" lon="0.72105">
        <ele>879.2</ele>
        <time>2022-05-23 10:58:06</time>
      </trkpt>
      <trkpt lat="42.08772" lon="0.72106">
        <ele>879.4</ele>
        <time>2022-05-23 10:58:07</time>
      </trkpt>
      <trkpt lat="42.0877" lon="0.72107">
        <ele>879.6</ele>
        <time>2022-05-23 10:58:08</time>
      </trkpt>
      <trkpt lat="42.08769" lon="0.72108">
        <ele>879.8</ele>
        <time>2022-05-23 10:58:09</time>
      </trkpt>
      <trkpt lat="42.08767" lon="0.72109">
        <ele>880</ele>
        <time>2022-05-23 10:58:10</time>
      </trkpt>
      <trkpt lat="42.08766" lon="0.7211">
        <ele>880.2</ele>
        <time>2022-05-23 10:58:11</time>
      </trkpt>
      <trkpt lat="42.08765" lon="0.72111">
        <ele>880.4</ele>
        <time>2022-05-23 10:58:12</time>
      </trkpt>
      <trkpt lat="42.08763" lon="0.72112">
        <ele>880.6</ele>
        <time>2022-05-23 10:58:13</time>
      </trkpt>
      <trkpt lat="42.08762" lon="0.72113">
        <ele>880.8</ele>
        <time>2022-05-23 10:58:14</time>
      </trkpt>
      <trkpt lat="42.0876" lon="0.72114">
        <ele>881</ele>
        <time>2022-05-23 10:58:15</time>
      </trkpt>
      <trkpt lat="42.08758" lon="0.72115">
        <ele>881.2</ele>
        <time>2022-05-23 10:58:16</time>
      </trkpt>
      <trkpt lat="42.08756" lon="0.72117">
        <ele>881.4</ele>
        <time>2022-05-23 10:58:17</time>
      </trkpt>
      <trkpt lat="42.08754" lon="0.72118">
        <ele>881.6</ele>
        <time>2022-05-23 10:58:18</time>
      </trkpt>
      <trkpt lat="42.08752" lon="0.7212">
        <ele>881.6</ele>
        <time>2022-05-23 10:58:19</time>
      </trkpt>
      <trkpt lat="42.0875" lon="0.72121">
        <ele>881.8</ele>
        <time>2022-05-23 10:58:20</time>
      </trkpt>
      <trkpt lat="42.08749" lon="0.72122">
        <ele>881.8</ele>
        <time>2022-05-23 10:58:21</time>
      </trkpt>
      <trkpt lat="42.08747" lon="0.72124">
        <ele>882</ele>
        <time>2022-05-23 10:58:22</time>
      </trkpt>
      <trkpt lat="42.08745" lon="0.72125">
        <ele>882</ele>
        <time>2022-05-23 10:58:23</time>
      </trkpt>
      <trkpt lat="42.08743" lon="0.72127">
        <ele>882</ele>
        <time>2022-05-23 10:58:24</time>
      </trkpt>
      <trkpt lat="42.08741" lon="0.72128">
        <ele>882.2</ele>
        <time>2022-05-23 10:58:25</time>
      </trkpt>
      <trkpt lat="42.08739" lon="0.72129">
        <ele>882.4</ele>
        <time>2022-05-23 10:58:26</time>
      </trkpt>
      <trkpt lat="42.08737" lon="0.7213">
        <ele>882.4</ele>
        <time>2022-05-23 10:58:27</time>
      </trkpt>
      <trkpt lat="42.08735" lon="0.72131">
        <ele>882.6</ele>
        <time>2022-05-23 10:58:28</time>
      </trkpt>
      <trkpt lat="42.08733" lon="0.72133">
        <ele>882.8</ele>
        <time>2022-05-23 10:58:29</time>
      </trkpt>
      <trkpt lat="42.08731" lon="0.72134">
        <ele>883</ele>
        <time>2022-05-23 10:58:30</time>
      </trkpt>
      <trkpt lat="42.08729" lon="0.72136">
        <ele>883.2</ele>
        <time>2022-05-23 10:58:31</time>
      </trkpt>
      <trkpt lat="42.08727" lon="0.72137">
        <ele>883.2</ele>
        <time>2022-05-23 10:58:32</time>
      </trkpt>
      <trkpt lat="42.08725" lon="0.72138">
        <ele>883.6</ele>
        <time>2022-05-23 10:58:33</time>
      </trkpt>
      <trkpt lat="42.08724" lon="0.72139">
        <ele>883.8</ele>
        <time>2022-05-23 10:58:34</time>
      </trkpt>
      <trkpt lat="42.08722" lon="0.7214">
        <ele>884</ele>
        <time>2022-05-23 10:58:35</time>
      </trkpt>
      <trkpt lat="42.0872" lon="0.72141">
        <ele>884</ele>
        <time>2022-05-23 10:58:36</time>
      </trkpt>
      <trkpt lat="42.08719" lon="0.72141">
        <ele>884.2</ele>
        <time>2022-05-23 10:58:37</time>
      </trkpt>
      <trkpt lat="42.08717" lon="0.72142">
        <ele>884.4</ele>
        <time>2022-05-23 10:58:38</time>
      </trkpt>
      <trkpt lat="42.08716" lon="0.72143">
        <ele>884.8</ele>
        <time>2022-05-23 10:58:39</time>
      </trkpt>
      <trkpt lat="42.08714" lon="0.72144">
        <ele>885</ele>
        <time>2022-05-23 10:58:40</time>
      </trkpt>
      <trkpt lat="42.08713" lon="0.72146">
        <ele>885.2</ele>
        <time>2022-05-23 10:58:41</time>
      </trkpt>
      <trkpt lat="42.08711" lon="0.72147">
        <ele>885.4</ele>
        <time>2022-05-23 10:58:42</time>
      </trkpt>
      <trkpt lat="42.08709" lon="0.72148">
        <ele>885.6</ele>
        <time>2022-05-23 10:58:43</time>
      </trkpt>
      <trkpt lat="42.08708" lon="0.7215">
        <ele>885.8</ele>
        <time>2022-05-23 10:58:44</time>
      </trkpt>
      <trkpt lat="42.08706" lon="0.72152">
        <ele>886.2</ele>
        <time>2022-05-23 10:58:45</time>
      </trkpt>
      <trkpt lat="42.08705" lon="0.72153">
        <ele>886.4</ele>
        <time>2022-05-23 10:58:46</time>
      </trkpt>
      <trkpt lat="42.08703" lon="0.72155">
        <ele>886.4</ele>
        <time>2022-05-23 10:58:47</time>
      </trkpt>
      <trkpt lat="42.08702" lon="0.72157">
        <ele>886.6</ele>
        <time>2022-05-23 10:58:48</time>
      </trkpt>
      <trkpt lat="42.08701" lon="0.72159">
        <ele>886.8</ele>
        <time>2022-05-23 10:58:49</time>
      </trkpt>
      <trkpt lat="42.08699" lon="0.7216">
        <ele>887</ele>
        <time>2022-05-23 10:58:50</time>
      </trkpt>
      <trkpt lat="42.08697" lon="0.72162">
        <ele>887</ele>
        <time>2022-05-23 10:58:51</time>
      </trkpt>
      <trkpt lat="42.08696" lon="0.72164">
        <ele>887.2</ele>
        <time>2022-05-23 10:58:52</time>
      </trkpt>
      <trkpt lat="42.08694" lon="0.72166">
        <ele>887.4</ele>
        <time>2022-05-23 10:58:53</time>
      </trkpt>
      <trkpt lat="42.08693" lon="0.72168">
        <ele>887.4</ele>
        <time>2022-05-23 10:58:54</time>
      </trkpt>
      <trkpt lat="42.08691" lon="0.7217">
        <ele>887.6</ele>
        <time>2022-05-23 10:58:55</time>
      </trkpt>
      <trkpt lat="42.08689" lon="0.72171">
        <ele>887.6</ele>
        <time>2022-05-23 10:58:56</time>
      </trkpt>
      <trkpt lat="42.08688" lon="0.72173">
        <ele>887.8</ele>
        <time>2022-05-23 10:58:57</time>
      </trkpt>
      <trkpt lat="42.08686" lon="0.72175">
        <ele>887.8</ele>
        <time>2022-05-23 10:58:58</time>
      </trkpt>
      <trkpt lat="42.08684" lon="0.72178">
        <ele>888</ele>
        <time>2022-05-23 10:58:59</time>
      </trkpt>
      <trkpt lat="42.08683" lon="0.7218">
        <ele>888</ele>
        <time>2022-05-23 10:59:00</time>
      </trkpt>
      <trkpt lat="42.08681" lon="0.72182">
        <ele>888.2</ele>
        <time>2022-05-23 10:59:01</time>
      </trkpt>
      <trkpt lat="42.0868" lon="0.72184">
        <ele>888.4</ele>
        <time>2022-05-23 10:59:02</time>
      </trkpt>
      <trkpt lat="42.08679" lon="0.72186">
        <ele>888.4</ele>
        <time>2022-05-23 10:59:03</time>
      </trkpt>
      <trkpt lat="42.08678" lon="0.72188">
        <ele>888.6</ele>
        <time>2022-05-23 10:59:04</time>
      </trkpt>
      <trkpt lat="42.08676" lon="0.7219">
        <ele>888.8</ele>
        <time>2022-05-23 10:59:05</time>
      </trkpt>
      <trkpt lat="42.08675" lon="0.72192">
        <ele>888.8</ele>
        <time>2022-05-23 10:59:06</time>
      </trkpt>
      <trkpt lat="42.08674" lon="0.72194">
        <ele>889</ele>
        <time>2022-05-23 10:59:07</time>
      </trkpt>
      <trkpt lat="42.08673" lon="0.72196">
        <ele>889</ele>
        <time>2022-05-23 10:59:08</time>
      </trkpt>
      <trkpt lat="42.08672" lon="0.72198">
        <ele>889</ele>
        <time>2022-05-23 10:59:09</time>
      </trkpt>
      <trkpt lat="42.0867" lon="0.722">
        <ele>889.2</ele>
        <time>2022-05-23 10:59:10</time>
      </trkpt>
      <trkpt lat="42.08669" lon="0.72202">
        <ele>889.2</ele>
        <time>2022-05-23 10:59:11</time>
      </trkpt>
      <trkpt lat="42.08668" lon="0.72204">
        <ele>889.4</ele>
        <time>2022-05-23 10:59:12</time>
      </trkpt>
      <trkpt lat="42.08667" lon="0.72206">
        <ele>889.4</ele>
        <time>2022-05-23 10:59:13</time>
      </trkpt>
      <trkpt lat="42.08665" lon="0.72208">
        <ele>889.6</ele>
        <time>2022-05-23 10:59:14</time>
      </trkpt>
      <trkpt lat="42.08664" lon="0.72209">
        <ele>889.6</ele>
        <time>2022-05-23 10:59:15</time>
      </trkpt>
      <trkpt lat="42.08663" lon="0.72211">
        <ele>889.6</ele>
        <time>2022-05-23 10:59:16</time>
      </trkpt>
      <trkpt lat="42.08662" lon="0.72213">
        <ele>889.8</ele>
        <time>2022-05-23 10:59:17</time>
      </trkpt>
      <trkpt lat="42.0866" lon="0.72215">
        <ele>889.8</ele>
        <time>2022-05-23 10:59:18</time>
      </trkpt>
      <trkpt lat="42.08659" lon="0.72216">
        <ele>890</ele>
        <time>2022-05-23 10:59:19</time>
      </trkpt>
      <trkpt lat="42.08657" lon="0.72218">
        <ele>890.2</ele>
        <time>2022-05-23 10:59:20</time>
      </trkpt>
      <trkpt lat="42.08656" lon="0.72219">
        <ele>890.2</ele>
        <time>2022-05-23 10:59:21</time>
      </trkpt>
      <trkpt lat="42.08655" lon="0.7222">
        <ele>890.4</ele>
        <time>2022-05-23 10:59:22</time>
      </trkpt>
      <trkpt lat="42.08653" lon="0.72221">
        <ele>890.6</ele>
        <time>2022-05-23 10:59:23</time>
      </trkpt>
      <trkpt lat="42.08652" lon="0.72223">
        <ele>890.6</ele>
        <time>2022-05-23 10:59:24</time>
      </trkpt>
      <trkpt lat="42.0865" lon="0.72224">
        <ele>890.8</ele>
        <time>2022-05-23 10:59:25</time>
      </trkpt>
      <trkpt lat="42.08649" lon="0.72226">
        <ele>891</ele>
        <time>2022-05-23 10:59:26</time>
      </trkpt>
      <trkpt lat="42.08647" lon="0.72227">
        <ele>891.2</ele>
        <time>2022-05-23 10:59:27</time>
      </trkpt>
      <trkpt lat="42.08646" lon="0.72228">
        <ele>891.2</ele>
        <time>2022-05-23 10:59:28</time>
      </trkpt>
      <trkpt lat="42.08644" lon="0.72229">
        <ele>891.4</ele>
        <time>2022-05-23 10:59:29</time>
      </trkpt>
      <trkpt lat="42.08643" lon="0.72231">
        <ele>891.6</ele>
        <time>2022-05-23 10:59:30</time>
      </trkpt>
      <trkpt lat="42.08641" lon="0.72232">
        <ele>891.6</ele>
        <time>2022-05-23 10:59:31</time>
      </trkpt>
      <trkpt lat="42.0864" lon="0.72232">
        <ele>891.8</ele>
        <time>2022-05-23 10:59:32</time>
      </trkpt>
      <trkpt lat="42.08638" lon="0.72233">
        <ele>891.8</ele>
        <time>2022-05-23 10:59:33</time>
      </trkpt>
      <trkpt lat="42.08637" lon="0.72234">
        <ele>892</ele>
        <time>2022-05-23 10:59:34</time>
      </trkpt>
      <trkpt lat="42.08636" lon="0.72236">
        <ele>892.2</ele>
        <time>2022-05-23 10:59:35</time>
      </trkpt>
      <trkpt lat="42.08635" lon="0.72237">
        <ele>892.2</ele>
        <time>2022-05-23 10:59:36</time>
      </trkpt>
      <trkpt lat="42.08633" lon="0.72238">
        <ele>892.4</ele>
        <time>2022-05-23 10:59:37</time>
      </trkpt>
      <trkpt lat="42.08632" lon="0.7224">
        <ele>892.6</ele>
        <time>2022-05-23 10:59:38</time>
      </trkpt>
      <trkpt lat="42.0863" lon="0.72241">
        <ele>892.8</ele>
        <time>2022-05-23 10:59:39</time>
      </trkpt>
      <trkpt lat="42.08629" lon="0.72242">
        <ele>892.8</ele>
        <time>2022-05-23 10:59:40</time>
      </trkpt>
      <trkpt lat="42.08628" lon="0.72243">
        <ele>893</ele>
        <time>2022-05-23 10:59:41</time>
      </trkpt>
      <trkpt lat="42.08627" lon="0.72245">
        <ele>893.2</ele>
        <time>2022-05-23 10:59:42</time>
      </trkpt>
      <trkpt lat="42.08626" lon="0.72246">
        <ele>893.4</ele>
        <time>2022-05-23 10:59:43</time>
      </trkpt>
      <trkpt lat="42.08624" lon="0.72247">
        <ele>893.4</ele>
        <time>2022-05-23 10:59:44</time>
      </trkpt>
      <trkpt lat="42.08623" lon="0.72249">
        <ele>893.6</ele>
        <time>2022-05-23 10:59:45</time>
      </trkpt>
      <trkpt lat="42.08622" lon="0.7225">
        <ele>893.6</ele>
        <time>2022-05-23 10:59:46</time>
      </trkpt>
      <trkpt lat="42.08621" lon="0.72252">
        <ele>893.8</ele>
        <time>2022-05-23 10:59:47</time>
      </trkpt>
      <trkpt lat="42.0862" lon="0.72254">
        <ele>894</ele>
        <time>2022-05-23 10:59:48</time>
      </trkpt>
      <trkpt lat="42.08619" lon="0.72255">
        <ele>894.2</ele>
        <time>2022-05-23 10:59:49</time>
      </trkpt>
      <trkpt lat="42.08618" lon="0.72257">
        <ele>894.4</ele>
        <time>2022-05-23 10:59:50</time>
      </trkpt>
      <trkpt lat="42.08617" lon="0.72258">
        <ele>894.6</ele>
        <time>2022-05-23 10:59:51</time>
      </trkpt>
      <trkpt lat="42.08615" lon="0.7226">
        <ele>894.8</ele>
        <time>2022-05-23 10:59:52</time>
      </trkpt>
      <trkpt lat="42.08615" lon="0.72262">
        <ele>895</ele>
        <time>2022-05-23 10:59:53</time>
      </trkpt>
      <trkpt lat="42.08614" lon="0.72264">
        <ele>895.2</ele>
        <time>2022-05-23 10:59:54</time>
      </trkpt>
      <trkpt lat="42.08612" lon="0.72265">
        <ele>895.4</ele>
        <time>2022-05-23 10:59:55</time>
      </trkpt>
      <trkpt lat="42.08611" lon="0.72267">
        <ele>895.6</ele>
        <time>2022-05-23 10:59:56</time>
      </trkpt>
      <trkpt lat="42.0861" lon="0.72268">
        <ele>895.8</ele>
        <time>2022-05-23 10:59:57</time>
      </trkpt>
      <trkpt lat="42.08609" lon="0.7227">
        <ele>896</ele>
        <time>2022-05-23 10:59:58</time>
      </trkpt>
      <trkpt lat="42.08609" lon="0.72272">
        <ele>896.2</ele>
        <time>2022-05-23 10:59:59</time>
      </trkpt>
      <trkpt lat="42.08608" lon="0.72274">
        <ele>896.4</ele>
        <time>2022-05-23 11:00:00</time>
      </trkpt>
      <trkpt lat="42.08607" lon="0.72276">
        <ele>896.4</ele>
        <time>2022-05-23 11:00:01</time>
      </trkpt>
      <trkpt lat="42.08607" lon="0.72278">
        <ele>896.6</ele>
        <time>2022-05-23 11:00:02</time>
      </trkpt>
      <trkpt lat="42.08606" lon="0.72279">
        <ele>896.8</ele>
        <time>2022-05-23 11:00:03</time>
      </trkpt>
      <trkpt lat="42.08605" lon="0.72282">
        <ele>897</ele>
        <time>2022-05-23 11:00:04</time>
      </trkpt>
      <trkpt lat="42.08604" lon="0.72284">
        <ele>897</ele>
        <time>2022-05-23 11:00:05</time>
      </trkpt>
      <trkpt lat="42.08603" lon="0.72285">
        <ele>897.2</ele>
        <time>2022-05-23 11:00:06</time>
      </trkpt>
      <trkpt lat="42.08602" lon="0.72287">
        <ele>897.4</ele>
        <time>2022-05-23 11:00:07</time>
      </trkpt>
      <trkpt lat="42.08602" lon="0.72288">
        <ele>897.6</ele>
        <time>2022-05-23 11:00:08</time>
      </trkpt>
      <trkpt lat="42.08601" lon="0.7229">
        <ele>897.8</ele>
        <time>2022-05-23 11:00:09</time>
      </trkpt>
      <trkpt lat="42.086" lon="0.72291">
        <ele>897.8</ele>
        <time>2022-05-23 11:00:10</time>
      </trkpt>
      <trkpt lat="42.08599" lon="0.72293">
        <ele>898</ele>
        <time>2022-05-23 11:00:11</time>
      </trkpt>
      <trkpt lat="42.08598" lon="0.72295">
        <ele>898.2</ele>
        <time>2022-05-23 11:00:12</time>
      </trkpt>
      <trkpt lat="42.08598" lon="0.72296">
        <ele>898.2</ele>
        <time>2022-05-23 11:00:13</time>
      </trkpt>
      <trkpt lat="42.08597" lon="0.72298">
        <ele>898.4</ele>
        <time>2022-05-23 11:00:14</time>
      </trkpt>
      <trkpt lat="42.08596" lon="0.723">
        <ele>898.6</ele>
        <time>2022-05-23 11:00:15</time>
      </trkpt>
      <trkpt lat="42.08595" lon="0.72301">
        <ele>898.8</ele>
        <time>2022-05-23 11:00:16</time>
      </trkpt>
      <trkpt lat="42.08594" lon="0.72303">
        <ele>898.8</ele>
        <time>2022-05-23 11:00:17</time>
      </trkpt>
      <trkpt lat="42.08594" lon="0.72305">
        <ele>899</ele>
        <time>2022-05-23 11:00:18</time>
      </trkpt>
      <trkpt lat="42.08593" lon="0.72307">
        <ele>899.2</ele>
        <time>2022-05-23 11:00:19</time>
      </trkpt>
      <trkpt lat="42.08592" lon="0.72309">
        <ele>899.2</ele>
        <time>2022-05-23 11:00:20</time>
      </trkpt>
      <trkpt lat="42.08591" lon="0.7231">
        <ele>899.4</ele>
        <time>2022-05-23 11:00:21</time>
      </trkpt>
      <trkpt lat="42.0859" lon="0.72312">
        <ele>899.6</ele>
        <time>2022-05-23 11:00:22</time>
      </trkpt>
      <trkpt lat="42.0859" lon="0.72314">
        <ele>899.6</ele>
        <time>2022-05-23 11:00:23</time>
      </trkpt>
      <trkpt lat="42.08589" lon="0.72316">
        <ele>899.8</ele>
        <time>2022-05-23 11:00:24</time>
      </trkpt>
      <trkpt lat="42.08588" lon="0.72318">
        <ele>900</ele>
        <time>2022-05-23 11:00:25</time>
      </trkpt>
      <trkpt lat="42.08588" lon="0.7232">
        <ele>900</ele>
        <time>2022-05-23 11:00:26</time>
      </trkpt>
      <trkpt lat="42.08587" lon="0.72322">
        <ele>900.2</ele>
        <time>2022-05-23 11:00:27</time>
      </trkpt>
      <trkpt lat="42.08585" lon="0.72324">
        <ele>900.2</ele>
        <time>2022-05-23 11:00:28</time>
      </trkpt>
      <trkpt lat="42.08585" lon="0.72326">
        <ele>900.4</ele>
        <time>2022-05-23 11:00:29</time>
      </trkpt>
      <trkpt lat="42.08584" lon="0.72328">
        <ele>900.6</ele>
        <time>2022-05-23 11:00:30</time>
      </trkpt>
      <trkpt lat="42.08583" lon="0.7233">
        <ele>900.6</ele>
        <time>2022-05-23 11:00:31</time>
      </trkpt>
      <trkpt lat="42.08583" lon="0.72332">
        <ele>900.8</ele>
        <time>2022-05-23 11:00:32</time>
      </trkpt>
      <trkpt lat="42.08581" lon="0.72335">
        <ele>900.8</ele>
        <time>2022-05-23 11:00:33</time>
      </trkpt>
      <trkpt lat="42.0858" lon="0.72337">
        <ele>901</ele>
        <time>2022-05-23 11:00:34</time>
      </trkpt>
      <trkpt lat="42.0858" lon="0.72339">
        <ele>901.2</ele>
        <time>2022-05-23 11:00:35</time>
      </trkpt>
      <trkpt lat="42.08578" lon="0.72341">
        <ele>901.4</ele>
        <time>2022-05-23 11:00:36</time>
      </trkpt>
      <trkpt lat="42.08578" lon="0.72342">
        <ele>901.4</ele>
        <time>2022-05-23 11:00:37</time>
      </trkpt>
      <trkpt lat="42.08577" lon="0.72345">
        <ele>901.6</ele>
        <time>2022-05-23 11:00:38</time>
      </trkpt>
      <trkpt lat="42.08576" lon="0.72347">
        <ele>901.8</ele>
        <time>2022-05-23 11:00:39</time>
      </trkpt>
      <trkpt lat="42.08575" lon="0.72349">
        <ele>902</ele>
        <time>2022-05-23 11:00:40</time>
      </trkpt>
      <trkpt lat="42.08575" lon="0.72351">
        <ele>902</ele>
        <time>2022-05-23 11:00:41</time>
      </trkpt>
      <trkpt lat="42.08575" lon="0.72353">
        <ele>902.2</ele>
        <time>2022-05-23 11:00:42</time>
      </trkpt>
      <trkpt lat="42.08574" lon="0.72355">
        <ele>902.2</ele>
        <time>2022-05-23 11:00:43</time>
      </trkpt>
      <trkpt lat="42.08573" lon="0.72357">
        <ele>902.4</ele>
        <time>2022-05-23 11:00:44</time>
      </trkpt>
      <trkpt lat="42.08572" lon="0.72359">
        <ele>902.6</ele>
        <time>2022-05-23 11:00:45</time>
      </trkpt>
      <trkpt lat="42.0857" lon="0.72361">
        <ele>902.6</ele>
        <time>2022-05-23 11:00:46</time>
      </trkpt>
      <trkpt lat="42.0857" lon="0.72362">
        <ele>902.8</ele>
        <time>2022-05-23 11:00:47</time>
      </trkpt>
      <trkpt lat="42.08569" lon="0.72364">
        <ele>903</ele>
        <time>2022-05-23 11:00:48</time>
      </trkpt>
      <trkpt lat="42.08568" lon="0.72366">
        <ele>903</ele>
        <time>2022-05-23 11:00:49</time>
      </trkpt>
      <trkpt lat="42.08567" lon="0.72368">
        <ele>903.2</ele>
        <time>2022-05-23 11:00:50</time>
      </trkpt>
      <trkpt lat="42.08566" lon="0.72369">
        <ele>903.4</ele>
        <time>2022-05-23 11:00:51</time>
      </trkpt>
      <trkpt lat="42.08565" lon="0.72371">
        <ele>903.4</ele>
        <time>2022-05-23 11:00:52</time>
      </trkpt>
      <trkpt lat="42.08564" lon="0.72373">
        <ele>903.6</ele>
        <time>2022-05-23 11:00:53</time>
      </trkpt>
      <trkpt lat="42.08563" lon="0.72375">
        <ele>903.8</ele>
        <time>2022-05-23 11:00:54</time>
      </trkpt>
      <trkpt lat="42.08562" lon="0.72376">
        <ele>904</ele>
        <time>2022-05-23 11:00:55</time>
      </trkpt>
      <trkpt lat="42.08561" lon="0.72378">
        <ele>904</ele>
        <time>2022-05-23 11:00:56</time>
      </trkpt>
      <trkpt lat="42.0856" lon="0.7238">
        <ele>904.2</ele>
        <time>2022-05-23 11:00:57</time>
      </trkpt>
      <trkpt lat="42.08559" lon="0.72381">
        <ele>904.4</ele>
        <time>2022-05-23 11:00:58</time>
      </trkpt>
      <trkpt lat="42.08558" lon="0.72383">
        <ele>904.6</ele>
        <time>2022-05-23 11:00:59</time>
      </trkpt>
      <trkpt lat="42.08557" lon="0.72385">
        <ele>904.6</ele>
        <time>2022-05-23 11:01:00</time>
      </trkpt>
      <trkpt lat="42.08556" lon="0.72387">
        <ele>904.8</ele>
        <time>2022-05-23 11:01:01</time>
      </trkpt>
      <trkpt lat="42.08556" lon="0.72389">
        <ele>905</ele>
        <time>2022-05-23 11:01:02</time>
      </trkpt>
      <trkpt lat="42.08555" lon="0.72391">
        <ele>905.2</ele>
        <time>2022-05-23 11:01:03</time>
      </trkpt>
      <trkpt lat="42.08555" lon="0.72392">
        <ele>905.4</ele>
        <time>2022-05-23 11:01:04</time>
      </trkpt>
      <trkpt lat="42.08554" lon="0.72394">
        <ele>905.4</ele>
        <time>2022-05-23 11:01:05</time>
      </trkpt>
      <trkpt lat="42.08553" lon="0.72396">
        <ele>905.6</ele>
        <time>2022-05-23 11:01:06</time>
      </trkpt>
      <trkpt lat="42.08553" lon="0.72398">
        <ele>905.8</ele>
        <time>2022-05-23 11:01:07</time>
      </trkpt>
      <trkpt lat="42.08552" lon="0.72399">
        <ele>906</ele>
        <time>2022-05-23 11:01:08</time>
      </trkpt>
      <trkpt lat="42.08551" lon="0.72401">
        <ele>906.2</ele>
        <time>2022-05-23 11:01:09</time>
      </trkpt>
      <trkpt lat="42.0855" lon="0.72403">
        <ele>906.4</ele>
        <time>2022-05-23 11:01:10</time>
      </trkpt>
      <trkpt lat="42.08549" lon="0.72405">
        <ele>906.6</ele>
        <time>2022-05-23 11:01:11</time>
      </trkpt>
      <trkpt lat="42.08548" lon="0.72407">
        <ele>906.6</ele>
        <time>2022-05-23 11:01:12</time>
      </trkpt>
      <trkpt lat="42.08548" lon="0.72409">
        <ele>906.8</ele>
        <time>2022-05-23 11:01:13</time>
      </trkpt>
      <trkpt lat="42.08547" lon="0.72411">
        <ele>907</ele>
        <time>2022-05-23 11:01:14</time>
      </trkpt>
      <trkpt lat="42.08546" lon="0.72413">
        <ele>907.2</ele>
        <time>2022-05-23 11:01:15</time>
      </trkpt>
      <trkpt lat="42.08545" lon="0.72415">
        <ele>907.4</ele>
        <time>2022-05-23 11:01:16</time>
      </trkpt>
      <trkpt lat="42.08544" lon="0.72417">
        <ele>907.6</ele>
        <time>2022-05-23 11:01:17</time>
      </trkpt>
      <trkpt lat="42.08543" lon="0.72418">
        <ele>907.8</ele>
        <time>2022-05-23 11:01:18</time>
      </trkpt>
      <trkpt lat="42.08542" lon="0.7242">
        <ele>908</ele>
        <time>2022-05-23 11:01:19</time>
      </trkpt>
      <trkpt lat="42.08541" lon="0.72422">
        <ele>908.2</ele>
        <time>2022-05-23 11:01:20</time>
      </trkpt>
      <trkpt lat="42.0854" lon="0.72424">
        <ele>908.4</ele>
        <time>2022-05-23 11:01:21</time>
      </trkpt>
      <trkpt lat="42.0854" lon="0.72425">
        <ele>908.6</ele>
        <time>2022-05-23 11:01:22</time>
      </trkpt>
      <trkpt lat="42.0854" lon="0.72427">
        <ele>908.8</ele>
        <time>2022-05-23 11:01:23</time>
      </trkpt>
      <trkpt lat="42.08539" lon="0.72429">
        <ele>909</ele>
        <time>2022-05-23 11:01:24</time>
      </trkpt>
      <trkpt lat="42.08538" lon="0.72432">
        <ele>909.2</ele>
        <time>2022-05-23 11:01:25</time>
      </trkpt>
      <trkpt lat="42.08537" lon="0.72434">
        <ele>909.2</ele>
        <time>2022-05-23 11:01:26</time>
      </trkpt>
      <trkpt lat="42.08536" lon="0.72436">
        <ele>909.4</ele>
        <time>2022-05-23 11:01:27</time>
      </trkpt>
      <trkpt lat="42.08535" lon="0.72438">
        <ele>909.6</ele>
        <time>2022-05-23 11:01:28</time>
      </trkpt>
      <trkpt lat="42.08534" lon="0.7244">
        <ele>909.8</ele>
        <time>2022-05-23 11:01:29</time>
      </trkpt>
      <trkpt lat="42.08533" lon="0.72443">
        <ele>910</ele>
        <time>2022-05-23 11:01:30</time>
      </trkpt>
      <trkpt lat="42.08533" lon="0.72445">
        <ele>910.2</ele>
        <time>2022-05-23 11:01:31</time>
      </trkpt>
      <trkpt lat="42.08532" lon="0.72447">
        <ele>910.4</ele>
        <time>2022-05-23 11:01:32</time>
      </trkpt>
      <trkpt lat="42.08532" lon="0.72449">
        <ele>910.6</ele>
        <time>2022-05-23 11:01:33</time>
      </trkpt>
      <trkpt lat="42.08531" lon="0.72452">
        <ele>910.8</ele>
        <time>2022-05-23 11:01:34</time>
      </trkpt>
      <trkpt lat="42.08531" lon="0.72454">
        <ele>910.8</ele>
        <time>2022-05-23 11:01:35</time>
      </trkpt>
      <trkpt lat="42.0853" lon="0.72457">
        <ele>911</ele>
        <time>2022-05-23 11:01:36</time>
      </trkpt>
      <trkpt lat="42.0853" lon="0.72459">
        <ele>911.2</ele>
        <time>2022-05-23 11:01:37</time>
      </trkpt>
      <trkpt lat="42.08529" lon="0.72462">
        <ele>911.4</ele>
        <time>2022-05-23 11:01:38</time>
      </trkpt>
      <trkpt lat="42.08529" lon="0.72464">
        <ele>911.4</ele>
        <time>2022-05-23 11:01:39</time>
      </trkpt>
      <trkpt lat="42.08528" lon="0.72466">
        <ele>911.6</ele>
        <time>2022-05-23 11:01:40</time>
      </trkpt>
      <trkpt lat="42.08527" lon="0.72468">
        <ele>911.6</ele>
        <time>2022-05-23 11:01:41</time>
      </trkpt>
      <trkpt lat="42.08527" lon="0.7247">
        <ele>911.8</ele>
        <time>2022-05-23 11:01:42</time>
      </trkpt>
      <trkpt lat="42.08527" lon="0.72473">
        <ele>911.8</ele>
        <time>2022-05-23 11:01:43</time>
      </trkpt>
      <trkpt lat="42.08527" lon="0.72475">
        <ele>912</ele>
        <time>2022-05-23 11:01:44</time>
      </trkpt>
      <trkpt lat="42.08526" lon="0.72477">
        <ele>912.2</ele>
        <time>2022-05-23 11:01:45</time>
      </trkpt>
      <trkpt lat="42.08526" lon="0.7248">
        <ele>912.2</ele>
        <time>2022-05-23 11:01:46</time>
      </trkpt>
      <trkpt lat="42.08525" lon="0.72482">
        <ele>912.4</ele>
        <time>2022-05-23 11:01:47</time>
      </trkpt>
      <trkpt lat="42.08524" lon="0.72484">
        <ele>912.4</ele>
        <time>2022-05-23 11:01:48</time>
      </trkpt>
      <trkpt lat="42.08524" lon="0.72487">
        <ele>912.4</ele>
        <time>2022-05-23 11:01:49</time>
      </trkpt>
      <trkpt lat="42.08524" lon="0.72489">
        <ele>912.4</ele>
        <time>2022-05-23 11:01:50</time>
      </trkpt>
      <trkpt lat="42.08524" lon="0.72492">
        <ele>912.6</ele>
        <time>2022-05-23 11:01:51</time>
      </trkpt>
      <trkpt lat="42.08523" lon="0.72495">
        <ele>912.6</ele>
        <time>2022-05-23 11:01:52</time>
      </trkpt>
      <trkpt lat="42.08523" lon="0.72498">
        <ele>912.8</ele>
        <time>2022-05-23 11:01:53</time>
      </trkpt>
      <trkpt lat="42.08522" lon="0.725">
        <ele>912.8</ele>
        <time>2022-05-23 11:01:54</time>
      </trkpt>
      <trkpt lat="42.08522" lon="0.72503">
        <ele>913</ele>
        <time>2022-05-23 11:01:55</time>
      </trkpt>
      <trkpt lat="42.08521" lon="0.72506">
        <ele>913</ele>
        <time>2022-05-23 11:01:56</time>
      </trkpt>
      <trkpt lat="42.0852" lon="0.72509">
        <ele>913.2</ele>
        <time>2022-05-23 11:01:57</time>
      </trkpt>
      <trkpt lat="42.0852" lon="0.72512">
        <ele>913.2</ele>
        <time>2022-05-23 11:01:58</time>
      </trkpt>
      <trkpt lat="42.08519" lon="0.72514">
        <ele>913.4</ele>
        <time>2022-05-23 11:01:59</time>
      </trkpt>
      <trkpt lat="42.08519" lon="0.72517">
        <ele>913.4</ele>
        <time>2022-05-23 11:02:00</time>
      </trkpt>
      <trkpt lat="42.08519" lon="0.7252">
        <ele>913.6</ele>
        <time>2022-05-23 11:02:01</time>
      </trkpt>
      <trkpt lat="42.08518" lon="0.72523">
        <ele>913.6</ele>
        <time>2022-05-23 11:02:02</time>
      </trkpt>
      <trkpt lat="42.08517" lon="0.72526">
        <ele>913.6</ele>
        <time>2022-05-23 11:02:03</time>
      </trkpt>
      <trkpt lat="42.08516" lon="0.72529">
        <ele>913.8</ele>
        <time>2022-05-23 11:02:04</time>
      </trkpt>
      <trkpt lat="42.08516" lon="0.72532">
        <ele>913.8</ele>
        <time>2022-05-23 11:02:05</time>
      </trkpt>
      <trkpt lat="42.08516" lon="0.72535">
        <ele>914</ele>
        <time>2022-05-23 11:02:06</time>
      </trkpt>
      <trkpt lat="42.08515" lon="0.72537">
        <ele>914</ele>
        <time>2022-05-23 11:02:07</time>
      </trkpt>
      <trkpt lat="42.08514" lon="0.7254">
        <ele>914.2</ele>
        <time>2022-05-23 11:02:08</time>
      </trkpt>
      <trkpt lat="42.08514" lon="0.72543">
        <ele>914.2</ele>
        <time>2022-05-23 11:02:09</time>
      </trkpt>
      <trkpt lat="42.08514" lon="0.72546">
        <ele>914.4</ele>
        <time>2022-05-23 11:02:10</time>
      </trkpt>
      <trkpt lat="42.08514" lon="0.72548">
        <ele>914.4</ele>
        <time>2022-05-23 11:02:11</time>
      </trkpt>
      <trkpt lat="42.08513" lon="0.72551">
        <ele>914.6</ele>
        <time>2022-05-23 11:02:12</time>
      </trkpt>
      <trkpt lat="42.08512" lon="0.72553">
        <ele>914.6</ele>
        <time>2022-05-23 11:02:13</time>
      </trkpt>
      <trkpt lat="42.08512" lon="0.72556">
        <ele>914.8</ele>
        <time>2022-05-23 11:02:14</time>
      </trkpt>
      <trkpt lat="42.08511" lon="0.72559">
        <ele>914.8</ele>
        <time>2022-05-23 11:02:15</time>
      </trkpt>
      <trkpt lat="42.08511" lon="0.72561">
        <ele>914.8</ele>
        <time>2022-05-23 11:02:16</time>
      </trkpt>
      <trkpt lat="42.0851" lon="0.72564">
        <ele>915</ele>
        <time>2022-05-23 11:02:17</time>
      </trkpt>
      <trkpt lat="42.08509" lon="0.72566">
        <ele>915</ele>
        <time>2022-05-23 11:02:18</time>
      </trkpt>
      <trkpt lat="42.08507" lon="0.72568">
        <ele>915.2</ele>
        <time>2022-05-23 11:02:19</time>
      </trkpt>
      <trkpt lat="42.08506" lon="0.7257">
        <ele>915.2</ele>
        <time>2022-05-23 11:02:20</time>
      </trkpt>
      <trkpt lat="42.08504" lon="0.72572">
        <ele>915.4</ele>
        <time>2022-05-23 11:02:21</time>
      </trkpt>
      <trkpt lat="42.08503" lon="0.72574">
        <ele>915.4</ele>
        <time>2022-05-23 11:02:22</time>
      </trkpt>
      <trkpt lat="42.08502" lon="0.72576">
        <ele>915.6</ele>
        <time>2022-05-23 11:02:23</time>
      </trkpt>
      <trkpt lat="42.085" lon="0.72578">
        <ele>915.6</ele>
        <time>2022-05-23 11:02:24</time>
      </trkpt>
      <trkpt lat="42.08498" lon="0.7258">
        <ele>915.8</ele>
        <time>2022-05-23 11:02:25</time>
      </trkpt>
      <trkpt lat="42.08496" lon="0.72581">
        <ele>915.8</ele>
        <time>2022-05-23 11:02:26</time>
      </trkpt>
      <trkpt lat="42.08494" lon="0.72582">
        <ele>916</ele>
        <time>2022-05-23 11:02:27</time>
      </trkpt>
      <trkpt lat="42.08492" lon="0.72582">
        <ele>916</ele>
        <time>2022-05-23 11:02:28</time>
      </trkpt>
      <trkpt lat="42.0849" lon="0.72582">
        <ele>916</ele>
        <time>2022-05-23 11:02:29</time>
      </trkpt>
      <trkpt lat="42.08487" lon="0.72582">
        <ele>916.2</ele>
        <time>2022-05-23 11:02:30</time>
      </trkpt>
      <trkpt lat="42.08485" lon="0.72582">
        <ele>916.2</ele>
        <time>2022-05-23 11:02:31</time>
      </trkpt>
      <trkpt lat="42.08483" lon="0.72581">
        <ele>916.4</ele>
        <time>2022-05-23 11:02:32</time>
      </trkpt>
      <trkpt lat="42.0848" lon="0.72581">
        <ele>916.4</ele>
        <time>2022-05-23 11:02:33</time>
      </trkpt>
      <trkpt lat="42.08478" lon="0.72579">
        <ele>916.4</ele>
        <time>2022-05-23 11:02:34</time>
      </trkpt>
      <trkpt lat="42.08476" lon="0.72578">
        <ele>916.4</ele>
        <time>2022-05-23 11:02:35</time>
      </trkpt>
      <trkpt lat="42.08473" lon="0.72577">
        <ele>916.6</ele>
        <time>2022-05-23 11:02:36</time>
      </trkpt>
      <trkpt lat="42.08471" lon="0.72576">
        <ele>916.6</ele>
        <time>2022-05-23 11:02:37</time>
      </trkpt>
      <trkpt lat="42.08469" lon="0.72575">
        <ele>916.6</ele>
        <time>2022-05-23 11:02:38</time>
      </trkpt>
      <trkpt lat="42.08467" lon="0.72574">
        <ele>916.6</ele>
        <time>2022-05-23 11:02:39</time>
      </trkpt>
      <trkpt lat="42.08465" lon="0.72574">
        <ele>916.8</ele>
        <time>2022-05-23 11:02:40</time>
      </trkpt>
      <trkpt lat="42.08463" lon="0.72573">
        <ele>916.8</ele>
        <time>2022-05-23 11:02:41</time>
      </trkpt>
      <trkpt lat="42.08461" lon="0.72572">
        <ele>917</ele>
        <time>2022-05-23 11:02:42</time>
      </trkpt>
      <trkpt lat="42.08459" lon="0.72572">
        <ele>917</ele>
        <time>2022-05-23 11:02:43</time>
      </trkpt>
      <trkpt lat="42.08457" lon="0.72573">
        <ele>917.2</ele>
        <time>2022-05-23 11:02:44</time>
      </trkpt>
      <trkpt lat="42.08454" lon="0.72573">
        <ele>917.2</ele>
        <time>2022-05-23 11:02:45</time>
      </trkpt>
      <trkpt lat="42.08453" lon="0.72574">
        <ele>917.4</ele>
        <time>2022-05-23 11:02:46</time>
      </trkpt>
      <trkpt lat="42.08451" lon="0.72574">
        <ele>917.6</ele>
        <time>2022-05-23 11:02:47</time>
      </trkpt>
      <trkpt lat="42.08449" lon="0.72576">
        <ele>917.6</ele>
        <time>2022-05-23 11:02:48</time>
      </trkpt>
      <trkpt lat="42.08447" lon="0.72577">
        <ele>917.8</ele>
        <time>2022-05-23 11:02:49</time>
      </trkpt>
      <trkpt lat="42.08445" lon="0.72578">
        <ele>918</ele>
        <time>2022-05-23 11:02:50</time>
      </trkpt>
      <trkpt lat="42.08444" lon="0.7258">
        <ele>918</ele>
        <time>2022-05-23 11:02:51</time>
      </trkpt>
      <trkpt lat="42.08443" lon="0.72582">
        <ele>918.2</ele>
        <time>2022-05-23 11:02:52</time>
      </trkpt>
      <trkpt lat="42.08442" lon="0.72584">
        <ele>918.4</ele>
        <time>2022-05-23 11:02:53</time>
      </trkpt>
      <trkpt lat="42.08441" lon="0.72586">
        <ele>918.6</ele>
        <time>2022-05-23 11:02:54</time>
      </trkpt>
      <trkpt lat="42.0844" lon="0.72588">
        <ele>918.8</ele>
        <time>2022-05-23 11:02:55</time>
      </trkpt>
      <trkpt lat="42.08439" lon="0.7259">
        <ele>919</ele>
        <time>2022-05-23 11:02:56</time>
      </trkpt>
      <trkpt lat="42.08437" lon="0.72592">
        <ele>919</ele>
        <time>2022-05-23 11:02:57</time>
      </trkpt>
      <trkpt lat="42.08436" lon="0.72594">
        <ele>919.2</ele>
        <time>2022-05-23 11:02:58</time>
      </trkpt>
      <trkpt lat="42.08435" lon="0.72595">
        <ele>919.4</ele>
        <time>2022-05-23 11:02:59</time>
      </trkpt>
      <trkpt lat="42.08435" lon="0.72597">
        <ele>919.4</ele>
        <time>2022-05-23 11:03:00</time>
      </trkpt>
      <trkpt lat="42.08434" lon="0.72598">
        <ele>919.6</ele>
        <time>2022-05-23 11:03:01</time>
      </trkpt>
      <trkpt lat="42.08433" lon="0.72599">
        <ele>919.8</ele>
        <time>2022-05-23 11:03:02</time>
      </trkpt>
      <trkpt lat="42.08432" lon="0.72601">
        <ele>919.8</ele>
        <time>2022-05-23 11:03:03</time>
      </trkpt>
      <trkpt lat="42.08431" lon="0.72602">
        <ele>920</ele>
        <time>2022-05-23 11:03:04</time>
      </trkpt>
      <trkpt lat="42.0843" lon="0.72603">
        <ele>920</ele>
        <time>2022-05-23 11:03:05</time>
      </trkpt>
      <trkpt lat="42.08429" lon="0.72605">
        <ele>920.2</ele>
        <time>2022-05-23 11:03:06</time>
      </trkpt>
      <trkpt lat="42.08429" lon="0.72607">
        <ele>920.4</ele>
        <time>2022-05-23 11:03:07</time>
      </trkpt>
      <trkpt lat="42.08428" lon="0.72609">
        <ele>920.6</ele>
        <time>2022-05-23 11:03:08</time>
      </trkpt>
      <trkpt lat="42.08427" lon="0.72611">
        <ele>920.6</ele>
        <time>2022-05-23 11:03:09</time>
      </trkpt>
      <trkpt lat="42.08427" lon="0.72612">
        <ele>920.8</ele>
        <time>2022-05-23 11:03:10</time>
      </trkpt>
      <trkpt lat="42.08426" lon="0.72614">
        <ele>921</ele>
        <time>2022-05-23 11:03:11</time>
      </trkpt>
      <trkpt lat="42.08426" lon="0.72616">
        <ele>921</ele>
        <time>2022-05-23 11:03:12</time>
      </trkpt>
      <trkpt lat="42.08425" lon="0.72618">
        <ele>921.2</ele>
        <time>2022-05-23 11:03:13</time>
      </trkpt>
      <trkpt lat="42.08425" lon="0.7262">
        <ele>921.2</ele>
        <time>2022-05-23 11:03:14</time>
      </trkpt>
      <trkpt lat="42.08425" lon="0.72622">
        <ele>921.4</ele>
        <time>2022-05-23 11:03:15</time>
      </trkpt>
      <trkpt lat="42.08425" lon="0.72624">
        <ele>921.6</ele>
        <time>2022-05-23 11:03:16</time>
      </trkpt>
      <trkpt lat="42.08424" lon="0.72626">
        <ele>921.6</ele>
        <time>2022-05-23 11:03:17</time>
      </trkpt>
      <trkpt lat="42.08424" lon="0.72628">
        <ele>921.6</ele>
        <time>2022-05-23 11:03:18</time>
      </trkpt>
      <trkpt lat="42.08424" lon="0.7263">
        <ele>921.8</ele>
        <time>2022-05-23 11:03:19</time>
      </trkpt>
      <trkpt lat="42.08423" lon="0.72631">
        <ele>921.8</ele>
        <time>2022-05-23 11:03:20</time>
      </trkpt>
      <trkpt lat="42.08422" lon="0.72633">
        <ele>922</ele>
        <time>2022-05-23 11:03:21</time>
      </trkpt>
      <trkpt lat="42.08422" lon="0.72636">
        <ele>922</ele>
        <time>2022-05-23 11:03:22</time>
      </trkpt>
      <trkpt lat="42.08421" lon="0.72638">
        <ele>922</ele>
        <time>2022-05-23 11:03:23</time>
      </trkpt>
      <trkpt lat="42.08421" lon="0.7264">
        <ele>922.2</ele>
        <time>2022-05-23 11:03:24</time>
      </trkpt>
      <trkpt lat="42.08421" lon="0.72642">
        <ele>922.2</ele>
        <time>2022-05-23 11:03:25</time>
      </trkpt>
      <trkpt lat="42.0842" lon="0.72644">
        <ele>922.4</ele>
        <time>2022-05-23 11:03:26</time>
      </trkpt>
      <trkpt lat="42.08419" lon="0.72647">
        <ele>922.4</ele>
        <time>2022-05-23 11:03:27</time>
      </trkpt>
      <trkpt lat="42.08418" lon="0.72649">
        <ele>922.6</ele>
        <time>2022-05-23 11:03:28</time>
      </trkpt>
      <trkpt lat="42.08417" lon="0.72651">
        <ele>922.6</ele>
        <time>2022-05-23 11:03:29</time>
      </trkpt>
      <trkpt lat="42.08416" lon="0.72653">
        <ele>922.8</ele>
        <time>2022-05-23 11:03:30</time>
      </trkpt>
      <trkpt lat="42.08416" lon="0.72655">
        <ele>922.8</ele>
        <time>2022-05-23 11:03:31</time>
      </trkpt>
      <trkpt lat="42.08415" lon="0.72657">
        <ele>923</ele>
        <time>2022-05-23 11:03:32</time>
      </trkpt>
      <trkpt lat="42.08414" lon="0.72659">
        <ele>923</ele>
        <time>2022-05-23 11:03:33</time>
      </trkpt>
      <trkpt lat="42.08412" lon="0.72661">
        <ele>923.2</ele>
        <time>2022-05-23 11:03:34</time>
      </trkpt>
      <trkpt lat="42.08411" lon="0.72663">
        <ele>923.2</ele>
        <time>2022-05-23 11:03:35</time>
      </trkpt>
      <trkpt lat="42.0841" lon="0.72665">
        <ele>923.2</ele>
        <time>2022-05-23 11:03:36</time>
      </trkpt>
      <trkpt lat="42.08409" lon="0.72667">
        <ele>923.4</ele>
        <time>2022-05-23 11:03:37</time>
      </trkpt>
      <trkpt lat="42.08407" lon="0.72668">
        <ele>923.4</ele>
        <time>2022-05-23 11:03:38</time>
      </trkpt>
      <trkpt lat="42.08406" lon="0.7267">
        <ele>923.4</ele>
        <time>2022-05-23 11:03:39</time>
      </trkpt>
      <trkpt lat="42.08405" lon="0.72672">
        <ele>923.6</ele>
        <time>2022-05-23 11:03:40</time>
      </trkpt>
      <trkpt lat="42.08404" lon="0.72674">
        <ele>923.6</ele>
        <time>2022-05-23 11:03:41</time>
      </trkpt>
      <trkpt lat="42.08403" lon="0.72677">
        <ele>923.8</ele>
        <time>2022-05-23 11:03:42</time>
      </trkpt>
      <trkpt lat="42.08401" lon="0.72678">
        <ele>923.8</ele>
        <time>2022-05-23 11:03:43</time>
      </trkpt>
      <trkpt lat="42.084" lon="0.7268">
        <ele>924</ele>
        <time>2022-05-23 11:03:44</time>
      </trkpt>
      <trkpt lat="42.08399" lon="0.72682">
        <ele>924</ele>
        <time>2022-05-23 11:03:45</time>
      </trkpt>
      <trkpt lat="42.08398" lon="0.72684">
        <ele>924</ele>
        <time>2022-05-23 11:03:46</time>
      </trkpt>
      <trkpt lat="42.08396" lon="0.72685">
        <ele>924.2</ele>
        <time>2022-05-23 11:03:47</time>
      </trkpt>
      <trkpt lat="42.08395" lon="0.72687">
        <ele>924.4</ele>
        <time>2022-05-23 11:03:48</time>
      </trkpt>
      <trkpt lat="42.08393" lon="0.72689">
        <ele>924.4</ele>
        <time>2022-05-23 11:03:49</time>
      </trkpt>
      <trkpt lat="42.08392" lon="0.72691">
        <ele>924.6</ele>
        <time>2022-05-23 11:03:50</time>
      </trkpt>
      <trkpt lat="42.08391" lon="0.72693">
        <ele>924.6</ele>
        <time>2022-05-23 11:03:51</time>
      </trkpt>
      <trkpt lat="42.0839" lon="0.72694">
        <ele>924.8</ele>
        <time>2022-05-23 11:03:52</time>
      </trkpt>
      <trkpt lat="42.08388" lon="0.72696">
        <ele>925</ele>
        <time>2022-05-23 11:03:53</time>
      </trkpt>
      <trkpt lat="42.08387" lon="0.72697">
        <ele>925</ele>
        <time>2022-05-23 11:03:54</time>
      </trkpt>
      <trkpt lat="42.08385" lon="0.72699">
        <ele>925.2</ele>
        <time>2022-05-23 11:03:55</time>
      </trkpt>
      <trkpt lat="42.08384" lon="0.727">
        <ele>925.2</ele>
        <time>2022-05-23 11:03:56</time>
      </trkpt>
      <trkpt lat="42.08382" lon="0.72701">
        <ele>925.4</ele>
        <time>2022-05-23 11:03:57</time>
      </trkpt>
      <trkpt lat="42.08381" lon="0.72703">
        <ele>925.6</ele>
        <time>2022-05-23 11:03:58</time>
      </trkpt>
      <trkpt lat="42.0838" lon="0.72704">
        <ele>925.6</ele>
        <time>2022-05-23 11:03:59</time>
      </trkpt>
      <trkpt lat="42.08378" lon="0.72705">
        <ele>925.8</ele>
        <time>2022-05-23 11:04:00</time>
      </trkpt>
      <trkpt lat="42.08377" lon="0.72707">
        <ele>926</ele>
        <time>2022-05-23 11:04:01</time>
      </trkpt>
      <trkpt lat="42.08376" lon="0.72709">
        <ele>926</ele>
        <time>2022-05-23 11:04:02</time>
      </trkpt>
      <trkpt lat="42.08375" lon="0.7271">
        <ele>926.2</ele>
        <time>2022-05-23 11:04:03</time>
      </trkpt>
      <trkpt lat="42.08373" lon="0.72712">
        <ele>926.4</ele>
        <time>2022-05-23 11:04:04</time>
      </trkpt>
      <trkpt lat="42.08371" lon="0.72713">
        <ele>926.4</ele>
        <time>2022-05-23 11:04:05</time>
      </trkpt>
      <trkpt lat="42.08369" lon="0.72715">
        <ele>926.6</ele>
        <time>2022-05-23 11:04:06</time>
      </trkpt>
      <trkpt lat="42.08367" lon="0.72716">
        <ele>926.8</ele>
        <time>2022-05-23 11:04:07</time>
      </trkpt>
      <trkpt lat="42.08366" lon="0.72718">
        <ele>926.8</ele>
        <time>2022-05-23 11:04:08</time>
      </trkpt>
      <trkpt lat="42.08364" lon="0.72719">
        <ele>927</ele>
        <time>2022-05-23 11:04:09</time>
      </trkpt>
      <trkpt lat="42.08362" lon="0.72721">
        <ele>927.2</ele>
        <time>2022-05-23 11:04:10</time>
      </trkpt>
      <trkpt lat="42.0836" lon="0.72722">
        <ele>927.2</ele>
        <time>2022-05-23 11:04:11</time>
      </trkpt>
      <trkpt lat="42.08358" lon="0.72723">
        <ele>927.4</ele>
        <time>2022-05-23 11:04:12</time>
      </trkpt>
      <trkpt lat="42.08357" lon="0.72724">
        <ele>927.4</ele>
        <time>2022-05-23 11:04:13</time>
      </trkpt>
      <trkpt lat="42.08355" lon="0.72726">
        <ele>927.6</ele>
        <time>2022-05-23 11:04:14</time>
      </trkpt>
      <trkpt lat="42.08353" lon="0.72727">
        <ele>927.6</ele>
        <time>2022-05-23 11:04:15</time>
      </trkpt>
      <trkpt lat="42.08351" lon="0.72729">
        <ele>927.6</ele>
        <time>2022-05-23 11:04:16</time>
      </trkpt>
      <trkpt lat="42.0835" lon="0.7273">
        <ele>927.8</ele>
        <time>2022-05-23 11:04:17</time>
      </trkpt>
      <trkpt lat="42.08348" lon="0.72731">
        <ele>927.8</ele>
        <time>2022-05-23 11:04:18</time>
      </trkpt>
      <trkpt lat="42.08346" lon="0.72733">
        <ele>928</ele>
        <time>2022-05-23 11:04:19</time>
      </trkpt>
      <trkpt lat="42.08343" lon="0.72735">
        <ele>928</ele>
        <time>2022-05-23 11:04:20</time>
      </trkpt>
      <trkpt lat="42.08342" lon="0.72736">
        <ele>928</ele>
        <time>2022-05-23 11:04:21</time>
      </trkpt>
      <trkpt lat="42.0834" lon="0.72738">
        <ele>928.2</ele>
        <time>2022-05-23 11:04:22</time>
      </trkpt>
      <trkpt lat="42.08338" lon="0.72739">
        <ele>928.2</ele>
        <time>2022-05-23 11:04:23</time>
      </trkpt>
      <trkpt lat="42.08336" lon="0.72741">
        <ele>928.2</ele>
        <time>2022-05-23 11:04:24</time>
      </trkpt>
      <trkpt lat="42.08334" lon="0.72743">
        <ele>928.4</ele>
        <time>2022-05-23 11:04:25</time>
      </trkpt>
      <trkpt lat="42.08332" lon="0.72745">
        <ele>928.4</ele>
        <time>2022-05-23 11:04:26</time>
      </trkpt>
      <trkpt lat="42.0833" lon="0.72747">
        <ele>928.4</ele>
        <time>2022-05-23 11:04:27</time>
      </trkpt>
      <trkpt lat="42.08327" lon="0.72749">
        <ele>928.4</ele>
        <time>2022-05-23 11:04:28</time>
      </trkpt>
      <trkpt lat="42.08325" lon="0.72751">
        <ele>928.6</ele>
        <time>2022-05-23 11:04:29</time>
      </trkpt>
      <trkpt lat="42.08324" lon="0.72752">
        <ele>928.6</ele>
        <time>2022-05-23 11:04:30</time>
      </trkpt>
      <trkpt lat="42.08322" lon="0.72755">
        <ele>928.6</ele>
        <time>2022-05-23 11:04:31</time>
      </trkpt>
      <trkpt lat="42.0832" lon="0.72757">
        <ele>928.6</ele>
        <time>2022-05-23 11:04:32</time>
      </trkpt>
      <trkpt lat="42.08318" lon="0.72759">
        <ele>928.6</ele>
        <time>2022-05-23 11:04:33</time>
      </trkpt>
      <trkpt lat="42.08316" lon="0.72762">
        <ele>928.6</ele>
        <time>2022-05-23 11:04:34</time>
      </trkpt>
      <trkpt lat="42.08315" lon="0.72764">
        <ele>928.6</ele>
        <time>2022-05-23 11:04:35</time>
      </trkpt>
      <trkpt lat="42.08314" lon="0.72768">
        <ele>928.6</ele>
        <time>2022-05-23 11:04:36</time>
      </trkpt>
      <trkpt lat="42.08313" lon="0.72771">
        <ele>928.6</ele>
        <time>2022-05-23 11:04:37</time>
      </trkpt>
      <trkpt lat="42.08312" lon="0.72774">
        <ele>928.6</ele>
        <time>2022-05-23 11:04:38</time>
      </trkpt>
      <trkpt lat="42.08311" lon="0.72778">
        <ele>928.6</ele>
        <time>2022-05-23 11:04:39</time>
      </trkpt>
      <trkpt lat="42.0831" lon="0.72782">
        <ele>928.4</ele>
        <time>2022-05-23 11:04:40</time>
      </trkpt>
      <trkpt lat="42.0831" lon="0.72786">
        <ele>928.4</ele>
        <time>2022-05-23 11:04:41</time>
      </trkpt>
      <trkpt lat="42.08309" lon="0.72791">
        <ele>928.2</ele>
        <time>2022-05-23 11:04:42</time>
      </trkpt>
      <trkpt lat="42.08308" lon="0.72796">
        <ele>928.2</ele>
        <time>2022-05-23 11:04:43</time>
      </trkpt>
      <trkpt lat="42.08308" lon="0.72802">
        <ele>928</ele>
        <time>2022-05-23 11:04:44</time>
      </trkpt>
      <trkpt lat="42.08308" lon="0.72808">
        <ele>927.8</ele>
        <time>2022-05-23 11:04:45</time>
      </trkpt>
      <trkpt lat="42.08308" lon="0.72815">
        <ele>927.6</ele>
        <time>2022-05-23 11:04:46</time>
      </trkpt>
      <trkpt lat="42.08308" lon="0.72823">
        <ele>927.4</ele>
        <time>2022-05-23 11:04:47</time>
      </trkpt>
      <trkpt lat="42.08308" lon="0.7283">
        <ele>927</ele>
        <time>2022-05-23 11:04:48</time>
      </trkpt>
      <trkpt lat="42.08308" lon="0.72837">
        <ele>926.8</ele>
        <time>2022-05-23 11:04:49</time>
      </trkpt>
      <trkpt lat="42.08307" lon="0.72845">
        <ele>926.6</ele>
        <time>2022-05-23 11:04:50</time>
      </trkpt>
      <trkpt lat="42.08307" lon="0.72853">
        <ele>926.6</ele>
        <time>2022-05-23 11:04:51</time>
      </trkpt>
      <trkpt lat="42.08307" lon="0.7286">
        <ele>926.6</ele>
        <time>2022-05-23 11:04:52</time>
      </trkpt>
      <trkpt lat="42.08308" lon="0.72869">
        <ele>926.4</ele>
        <time>2022-05-23 11:04:53</time>
      </trkpt>
      <trkpt lat="42.08308" lon="0.72876">
        <ele>926.6</ele>
        <time>2022-05-23 11:04:54</time>
      </trkpt>
      <trkpt lat="42.08309" lon="0.72883">
        <ele>926.6</ele>
        <time>2022-05-23 11:04:55</time>
      </trkpt>
      <trkpt lat="42.08308" lon="0.7289">
        <ele>926.6</ele>
        <time>2022-05-23 11:04:56</time>
      </trkpt>
      <trkpt lat="42.08308" lon="0.72897">
        <ele>926.6</ele>
        <time>2022-05-23 11:04:57</time>
      </trkpt>
      <trkpt lat="42.08308" lon="0.72903">
        <ele>926.6</ele>
        <time>2022-05-23 11:04:58</time>
      </trkpt>
      <trkpt lat="42.08308" lon="0.7291">
        <ele>926.6</ele>
        <time>2022-05-23 11:04:59</time>
      </trkpt>
      <trkpt lat="42.08308" lon="0.72916">
        <ele>926.6</ele>
        <time>2022-05-23 11:05:00</time>
      </trkpt>
      <trkpt lat="42.08307" lon="0.72922">
        <ele>926.6</ele>
        <time>2022-05-23 11:05:01</time>
      </trkpt>
      <trkpt lat="42.08307" lon="0.72927">
        <ele>926.6</ele>
        <time>2022-05-23 11:05:02</time>
      </trkpt>
      <trkpt lat="42.08307" lon="0.72931">
        <ele>926.8</ele>
        <time>2022-05-23 11:05:03</time>
      </trkpt>
      <trkpt lat="42.08307" lon="0.72938">
        <ele>926.8</ele>
        <time>2022-05-23 11:05:04</time>
      </trkpt>
      <trkpt lat="42.08308" lon="0.72943">
        <ele>926.8</ele>
        <time>2022-05-23 11:05:05</time>
      </trkpt>
      <trkpt lat="42.08308" lon="0.72948">
        <ele>926.8</ele>
        <time>2022-05-23 11:05:06</time>
      </trkpt>
      <trkpt lat="42.08308" lon="0.72953">
        <ele>926.8</ele>
        <time>2022-05-23 11:05:07</time>
      </trkpt>
      <trkpt lat="42.08308" lon="0.72957">
        <ele>927</ele>
        <time>2022-05-23 11:05:08</time>
      </trkpt>
      <trkpt lat="42.08308" lon="0.72962">
        <ele>927</ele>
        <time>2022-05-23 11:05:09</time>
      </trkpt>
      <trkpt lat="42.08309" lon="0.72966">
        <ele>927</ele>
        <time>2022-05-23 11:05:10</time>
      </trkpt>
      <trkpt lat="42.0831" lon="0.72971">
        <ele>927</ele>
        <time>2022-05-23 11:05:11</time>
      </trkpt>
      <trkpt lat="42.0831" lon="0.72975">
        <ele>927</ele>
        <time>2022-05-23 11:05:12</time>
      </trkpt>
      <trkpt lat="42.08311" lon="0.7298">
        <ele>927</ele>
        <time>2022-05-23 11:05:13</time>
      </trkpt>
      <trkpt lat="42.0831" lon="0.72984">
        <ele>927</ele>
        <time>2022-05-23 11:05:14</time>
      </trkpt>
      <trkpt lat="42.08309" lon="0.72989">
        <ele>927</ele>
        <time>2022-05-23 11:05:15</time>
      </trkpt>
      <trkpt lat="42.08308" lon="0.72993">
        <ele>927.2</ele>
        <time>2022-05-23 11:05:16</time>
      </trkpt>
      <trkpt lat="42.08306" lon="0.72997">
        <ele>927.2</ele>
        <time>2022-05-23 11:05:17</time>
      </trkpt>
      <trkpt lat="42.08305" lon="0.73001">
        <ele>927.4</ele>
        <time>2022-05-23 11:05:18</time>
      </trkpt>
      <trkpt lat="42.08303" lon="0.73005">
        <ele>927.4</ele>
        <time>2022-05-23 11:05:19</time>
      </trkpt>
      <trkpt lat="42.08301" lon="0.73008">
        <ele>927.6</ele>
        <time>2022-05-23 11:05:20</time>
      </trkpt>
      <trkpt lat="42.083" lon="0.73012">
        <ele>927.6</ele>
        <time>2022-05-23 11:05:21</time>
      </trkpt>
      <trkpt lat="42.08298" lon="0.73015">
        <ele>927.8</ele>
        <time>2022-05-23 11:05:22</time>
      </trkpt>
      <trkpt lat="42.08296" lon="0.73018">
        <ele>927.8</ele>
        <time>2022-05-23 11:05:23</time>
      </trkpt>
      <trkpt lat="42.08295" lon="0.73021">
        <ele>928</ele>
        <time>2022-05-23 11:05:24</time>
      </trkpt>
      <trkpt lat="42.08293" lon="0.73024">
        <ele>928.2</ele>
        <time>2022-05-23 11:05:25</time>
      </trkpt>
      <trkpt lat="42.08292" lon="0.73027">
        <ele>928.2</ele>
        <time>2022-05-23 11:05:26</time>
      </trkpt>
      <trkpt lat="42.0829" lon="0.7303">
        <ele>928.4</ele>
        <time>2022-05-23 11:05:27</time>
      </trkpt>
      <trkpt lat="42.08289" lon="0.73033">
        <ele>928.6</ele>
        <time>2022-05-23 11:05:28</time>
      </trkpt>
      <trkpt lat="42.08288" lon="0.73036">
        <ele>928.6</ele>
        <time>2022-05-23 11:05:29</time>
      </trkpt>
      <trkpt lat="42.08286" lon="0.73039">
        <ele>928.8</ele>
        <time>2022-05-23 11:05:30</time>
      </trkpt>
      <trkpt lat="42.08285" lon="0.73042">
        <ele>929</ele>
        <time>2022-05-23 11:05:31</time>
      </trkpt>
      <trkpt lat="42.08284" lon="0.73045">
        <ele>929.2</ele>
        <time>2022-05-23 11:05:32</time>
      </trkpt>
      <trkpt lat="42.08283" lon="0.73048">
        <ele>929.4</ele>
        <time>2022-05-23 11:05:33</time>
      </trkpt>
      <trkpt lat="42.08282" lon="0.73051">
        <ele>929.4</ele>
        <time>2022-05-23 11:05:34</time>
      </trkpt>
      <trkpt lat="42.0828" lon="0.73054">
        <ele>929.6</ele>
        <time>2022-05-23 11:05:35</time>
      </trkpt>
      <trkpt lat="42.08279" lon="0.73057">
        <ele>929.8</ele>
        <time>2022-05-23 11:05:36</time>
      </trkpt>
      <trkpt lat="42.08277" lon="0.7306">
        <ele>929.8</ele>
        <time>2022-05-23 11:05:37</time>
      </trkpt>
      <trkpt lat="42.08276" lon="0.73064">
        <ele>930</ele>
        <time>2022-05-23 11:05:38</time>
      </trkpt>
      <trkpt lat="42.08274" lon="0.73066">
        <ele>930.2</ele>
        <time>2022-05-23 11:05:39</time>
      </trkpt>
      <trkpt lat="42.08273" lon="0.73069">
        <ele>930.2</ele>
        <time>2022-05-23 11:05:40</time>
      </trkpt>
      <trkpt lat="42.08271" lon="0.73071">
        <ele>930.2</ele>
        <time>2022-05-23 11:05:41</time>
      </trkpt>
      <trkpt lat="42.08269" lon="0.73074">
        <ele>930.4</ele>
        <time>2022-05-23 11:05:42</time>
      </trkpt>
      <trkpt lat="42.08268" lon="0.73077">
        <ele>930.6</ele>
        <time>2022-05-23 11:05:43</time>
      </trkpt>
      <trkpt lat="42.08265" lon="0.73079">
        <ele>930.6</ele>
        <time>2022-05-23 11:05:44</time>
      </trkpt>
      <trkpt lat="42.08263" lon="0.73082">
        <ele>930.8</ele>
        <time>2022-05-23 11:05:45</time>
      </trkpt>
      <trkpt lat="42.08261" lon="0.73084">
        <ele>930.8</ele>
        <time>2022-05-23 11:05:46</time>
      </trkpt>
      <trkpt lat="42.08259" lon="0.73087">
        <ele>931</ele>
        <time>2022-05-23 11:05:47</time>
      </trkpt>
      <trkpt lat="42.08258" lon="0.73089">
        <ele>931</ele>
        <time>2022-05-23 11:05:48</time>
      </trkpt>
      <trkpt lat="42.08256" lon="0.73091">
        <ele>931.2</ele>
        <time>2022-05-23 11:05:49</time>
      </trkpt>
      <trkpt lat="42.08253" lon="0.73093">
        <ele>931.4</ele>
        <time>2022-05-23 11:05:50</time>
      </trkpt>
      <trkpt lat="42.08252" lon="0.73095">
        <ele>931.4</ele>
        <time>2022-05-23 11:05:51</time>
      </trkpt>
      <trkpt lat="42.0825" lon="0.73097">
        <ele>931.6</ele>
        <time>2022-05-23 11:05:52</time>
      </trkpt>
      <trkpt lat="42.08249" lon="0.731">
        <ele>931.8</ele>
        <time>2022-05-23 11:05:53</time>
      </trkpt>
      <trkpt lat="42.08248" lon="0.73103">
        <ele>931.8</ele>
        <time>2022-05-23 11:05:54</time>
      </trkpt>
      <trkpt lat="42.08247" lon="0.73106">
        <ele>932</ele>
        <time>2022-05-23 11:05:55</time>
      </trkpt>
      <trkpt lat="42.08245" lon="0.73109">
        <ele>932.2</ele>
        <time>2022-05-23 11:05:56</time>
      </trkpt>
      <trkpt lat="42.08243" lon="0.73111">
        <ele>932.2</ele>
        <time>2022-05-23 11:05:57</time>
      </trkpt>
      <trkpt lat="42.08241" lon="0.73115">
        <ele>932.2</ele>
        <time>2022-05-23 11:05:58</time>
      </trkpt>
      <trkpt lat="42.0824" lon="0.73118">
        <ele>932.4</ele>
        <time>2022-05-23 11:05:59</time>
      </trkpt>
      <trkpt lat="42.08238" lon="0.73121">
        <ele>932.4</ele>
        <time>2022-05-23 11:06:00</time>
      </trkpt>
      <trkpt lat="42.08237" lon="0.73125">
        <ele>932.4</ele>
        <time>2022-05-23 11:06:01</time>
      </trkpt>
      <trkpt lat="42.08236" lon="0.73128">
        <ele>932.4</ele>
        <time>2022-05-23 11:06:02</time>
      </trkpt>
      <trkpt lat="42.08235" lon="0.73132">
        <ele>932.4</ele>
        <time>2022-05-23 11:06:03</time>
      </trkpt>
      <trkpt lat="42.08234" lon="0.73135">
        <ele>932.4</ele>
        <time>2022-05-23 11:06:04</time>
      </trkpt>
      <trkpt lat="42.08233" lon="0.73138">
        <ele>932.4</ele>
        <time>2022-05-23 11:06:05</time>
      </trkpt>
      <trkpt lat="42.08232" lon="0.73142">
        <ele>932.4</ele>
        <time>2022-05-23 11:06:06</time>
      </trkpt>
      <trkpt lat="42.08231" lon="0.73145">
        <ele>932.4</ele>
        <time>2022-05-23 11:06:07</time>
      </trkpt>
      <trkpt lat="42.08229" lon="0.73148">
        <ele>932.4</ele>
        <time>2022-05-23 11:06:08</time>
      </trkpt>
      <trkpt lat="42.08228" lon="0.7315">
        <ele>932.4</ele>
        <time>2022-05-23 11:06:09</time>
      </trkpt>
      <trkpt lat="42.08226" lon="0.73154">
        <ele>932.4</ele>
        <time>2022-05-23 11:06:10</time>
      </trkpt>
      <trkpt lat="42.08225" lon="0.73157">
        <ele>932.4</ele>
        <time>2022-05-23 11:06:11</time>
      </trkpt>
      <trkpt lat="42.08223" lon="0.7316">
        <ele>932.4</ele>
        <time>2022-05-23 11:06:12</time>
      </trkpt>
      <trkpt lat="42.08221" lon="0.73163">
        <ele>932.4</ele>
        <time>2022-05-23 11:06:13</time>
      </trkpt>
      <trkpt lat="42.08219" lon="0.73165">
        <ele>932.4</ele>
        <time>2022-05-23 11:06:14</time>
      </trkpt>
      <trkpt lat="42.08216" lon="0.73168">
        <ele>932.6</ele>
        <time>2022-05-23 11:06:15</time>
      </trkpt>
      <trkpt lat="42.08214" lon="0.73169">
        <ele>932.8</ele>
        <time>2022-05-23 11:06:16</time>
      </trkpt>
      <trkpt lat="42.08211" lon="0.73171">
        <ele>933</ele>
        <time>2022-05-23 11:06:17</time>
      </trkpt>
      <trkpt lat="42.08209" lon="0.73172">
        <ele>933</ele>
        <time>2022-05-23 11:06:18</time>
      </trkpt>
      <trkpt lat="42.08207" lon="0.73173">
        <ele>933.2</ele>
        <time>2022-05-23 11:06:19</time>
      </trkpt>
      <trkpt lat="42.08205" lon="0.73174">
        <ele>933.4</ele>
        <time>2022-05-23 11:06:20</time>
      </trkpt>
      <trkpt lat="42.08203" lon="0.73174">
        <ele>933.6</ele>
        <time>2022-05-23 11:06:21</time>
      </trkpt>
      <trkpt lat="42.08202" lon="0.73174">
        <ele>933.8</ele>
        <time>2022-05-23 11:06:22</time>
      </trkpt>
      <trkpt lat="42.082" lon="0.73174">
        <ele>934</ele>
        <time>2022-05-23 11:06:23</time>
      </trkpt>
      <trkpt lat="42.08198" lon="0.73174">
        <ele>934.2</ele>
        <time>2022-05-23 11:06:24</time>
      </trkpt>
      <trkpt lat="42.08196" lon="0.73174">
        <ele>934.4</ele>
        <time>2022-05-23 11:06:25</time>
      </trkpt>
      <trkpt lat="42.08195" lon="0.73173">
        <ele>934.6</ele>
        <time>2022-05-23 11:06:26</time>
      </trkpt>
      <trkpt lat="42.08193" lon="0.73173">
        <ele>934.8</ele>
        <time>2022-05-23 11:06:27</time>
      </trkpt>
      <trkpt lat="42.08191" lon="0.73173">
        <ele>935</ele>
        <time>2022-05-23 11:06:28</time>
      </trkpt>
      <trkpt lat="42.0819" lon="0.73173">
        <ele>935.2</ele>
        <time>2022-05-23 11:06:29</time>
      </trkpt>
      <trkpt lat="42.08188" lon="0.73173">
        <ele>935.6</ele>
        <time>2022-05-23 11:06:30</time>
      </trkpt>
      <trkpt lat="42.08187" lon="0.73173">
        <ele>935.8</ele>
        <time>2022-05-23 11:06:31</time>
      </trkpt>
      <trkpt lat="42.08186" lon="0.73173">
        <ele>936</ele>
        <time>2022-05-23 11:06:32</time>
      </trkpt>
      <trkpt lat="42.08187" lon="0.73176">
        <ele>936.2</ele>
        <time>2022-05-23 11:06:33</time>
      </trkpt>
      <trkpt lat="42.08185" lon="0.73176">
        <ele>936.4</ele>
        <time>2022-05-23 11:06:34</time>
      </trkpt>
      <trkpt lat="42.08183" lon="0.73176">
        <ele>936.6</ele>
        <time>2022-05-23 11:06:35</time>
      </trkpt>
      <trkpt lat="42.08181" lon="0.73176">
        <ele>936.8</ele>
        <time>2022-05-23 11:06:36</time>
      </trkpt>
      <trkpt lat="42.08179" lon="0.73176">
        <ele>937</ele>
        <time>2022-05-23 11:06:37</time>
      </trkpt>
      <trkpt lat="42.08178" lon="0.73176">
        <ele>937.2</ele>
        <time>2022-05-23 11:06:38</time>
      </trkpt>
      <trkpt lat="42.08176" lon="0.73176">
        <ele>937.4</ele>
        <time>2022-05-23 11:06:39</time>
      </trkpt>
      <trkpt lat="42.08175" lon="0.73176">
        <ele>937.6</ele>
        <time>2022-05-23 11:06:40</time>
      </trkpt>
      <trkpt lat="42.08173" lon="0.73176">
        <ele>937.8</ele>
        <time>2022-05-23 11:06:41</time>
      </trkpt>
      <trkpt lat="42.08172" lon="0.73176">
        <ele>938</ele>
        <time>2022-05-23 11:06:42</time>
      </trkpt>
      <trkpt lat="42.0817" lon="0.73176">
        <ele>938.2</ele>
        <time>2022-05-23 11:06:43</time>
      </trkpt>
      <trkpt lat="42.08169" lon="0.73176">
        <ele>938.4</ele>
        <time>2022-05-23 11:06:44</time>
      </trkpt>
      <trkpt lat="42.08168" lon="0.73178">
        <ele>938.6</ele>
        <time>2022-05-23 11:06:45</time>
      </trkpt>
      <trkpt lat="42.08166" lon="0.73178">
        <ele>938.8</ele>
        <time>2022-05-23 11:06:46</time>
      </trkpt>
      <trkpt lat="42.08166" lon="0.73179">
        <ele>939.2</ele>
        <time>2022-05-23 11:06:47</time>
      </trkpt>
      <trkpt lat="42.08165" lon="0.7318">
        <ele>939.4</ele>
        <time>2022-05-23 11:06:48</time>
      </trkpt>
      <trkpt lat="42.08164" lon="0.73182">
        <ele>939.6</ele>
        <time>2022-05-23 11:06:49</time>
      </trkpt>
      <trkpt lat="42.08163" lon="0.73183">
        <ele>939.8</ele>
        <time>2022-05-23 11:06:50</time>
      </trkpt>
      <trkpt lat="42.08162" lon="0.73183">
        <ele>940</ele>
        <time>2022-05-23 11:06:51</time>
      </trkpt>
      <trkpt lat="42.08161" lon="0.73184">
        <ele>940.2</ele>
        <time>2022-05-23 11:06:52</time>
      </trkpt>
      <trkpt lat="42.0816" lon="0.73185">
        <ele>940.4</ele>
        <time>2022-05-23 11:06:53</time>
      </trkpt>
      <trkpt lat="42.08159" lon="0.73186">
        <ele>940.6</ele>
        <time>2022-05-23 11:06:54</time>
      </trkpt>
      <trkpt lat="42.08158" lon="0.73187">
        <ele>940.6</ele>
        <time>2022-05-23 11:06:55</time>
      </trkpt>
      <trkpt lat="42.08157" lon="0.73189">
        <ele>940.8</ele>
        <time>2022-05-23 11:06:56</time>
      </trkpt>
      <trkpt lat="42.08157" lon="0.7319">
        <ele>941</ele>
        <time>2022-05-23 11:06:57</time>
      </trkpt>
      <trkpt lat="42.08156" lon="0.73192">
        <ele>941.2</ele>
        <time>2022-05-23 11:06:58</time>
      </trkpt>
      <trkpt lat="42.08155" lon="0.73194">
        <ele>941.4</ele>
        <time>2022-05-23 11:06:59</time>
      </trkpt>
      <trkpt lat="42.08155" lon="0.73195">
        <ele>941.6</ele>
        <time>2022-05-23 11:07:00</time>
      </trkpt>
      <trkpt lat="42.08155" lon="0.73197">
        <ele>941.8</ele>
        <time>2022-05-23 11:07:01</time>
      </trkpt>
      <trkpt lat="42.08154" lon="0.73199">
        <ele>942</ele>
        <time>2022-05-23 11:07:02</time>
      </trkpt>
      <trkpt lat="42.08154" lon="0.73201">
        <ele>942.2</ele>
        <time>2022-05-23 11:07:03</time>
      </trkpt>
      <trkpt lat="42.08155" lon="0.73203">
        <ele>942.4</ele>
        <time>2022-05-23 11:07:04</time>
      </trkpt>
      <trkpt lat="42.08155" lon="0.73205">
        <ele>942.6</ele>
        <time>2022-05-23 11:07:05</time>
      </trkpt>
      <trkpt lat="42.08155" lon="0.73207">
        <ele>942.6</ele>
        <time>2022-05-23 11:07:06</time>
      </trkpt>
      <trkpt lat="42.08155" lon="0.73209">
        <ele>942.8</ele>
        <time>2022-05-23 11:07:07</time>
      </trkpt>
      <trkpt lat="42.08155" lon="0.73211">
        <ele>943</ele>
        <time>2022-05-23 11:07:08</time>
      </trkpt>
      <trkpt lat="42.08156" lon="0.73213">
        <ele>943.2</ele>
        <time>2022-05-23 11:07:09</time>
      </trkpt>
      <trkpt lat="42.08157" lon="0.73215">
        <ele>943.4</ele>
        <time>2022-05-23 11:07:10</time>
      </trkpt>
      <trkpt lat="42.08158" lon="0.73217">
        <ele>943.6</ele>
        <time>2022-05-23 11:07:11</time>
      </trkpt>
      <trkpt lat="42.08159" lon="0.73219">
        <ele>943.8</ele>
        <time>2022-05-23 11:07:12</time>
      </trkpt>
      <trkpt lat="42.08159" lon="0.7322">
        <ele>944</ele>
        <time>2022-05-23 11:07:13</time>
      </trkpt>
      <trkpt lat="42.0816" lon="0.73222">
        <ele>944.2</ele>
        <time>2022-05-23 11:07:14</time>
      </trkpt>
      <trkpt lat="42.08161" lon="0.73224">
        <ele>944.4</ele>
        <time>2022-05-23 11:07:15</time>
      </trkpt>
      <trkpt lat="42.08162" lon="0.73226">
        <ele>944.4</ele>
        <time>2022-05-23 11:07:16</time>
      </trkpt>
      <trkpt lat="42.08163" lon="0.73227">
        <ele>944.6</ele>
        <time>2022-05-23 11:07:17</time>
      </trkpt>
      <trkpt lat="42.08164" lon="0.73229">
        <ele>944.8</ele>
        <time>2022-05-23 11:07:18</time>
      </trkpt>
      <trkpt lat="42.08165" lon="0.73231">
        <ele>944.8</ele>
        <time>2022-05-23 11:07:19</time>
      </trkpt>
      <trkpt lat="42.08167" lon="0.73232">
        <ele>945</ele>
        <time>2022-05-23 11:07:20</time>
      </trkpt>
      <trkpt lat="42.08168" lon="0.73233">
        <ele>945</ele>
        <time>2022-05-23 11:07:21</time>
      </trkpt>
      <trkpt lat="42.0817" lon="0.73234">
        <ele>945.2</ele>
        <time>2022-05-23 11:07:22</time>
      </trkpt>
      <trkpt lat="42.08171" lon="0.73235">
        <ele>945.4</ele>
        <time>2022-05-23 11:07:23</time>
      </trkpt>
      <trkpt lat="42.08173" lon="0.73236">
        <ele>945.4</ele>
        <time>2022-05-23 11:07:24</time>
      </trkpt>
      <trkpt lat="42.08175" lon="0.73237">
        <ele>945.4</ele>
        <time>2022-05-23 11:07:25</time>
      </trkpt>
      <trkpt lat="42.08176" lon="0.73237">
        <ele>945.6</ele>
        <time>2022-05-23 11:07:26</time>
      </trkpt>
      <trkpt lat="42.08178" lon="0.73238">
        <ele>945.8</ele>
        <time>2022-05-23 11:07:27</time>
      </trkpt>
      <trkpt lat="42.08179" lon="0.73239">
        <ele>945.8</ele>
        <time>2022-05-23 11:07:28</time>
      </trkpt>
      <trkpt lat="42.08181" lon="0.73239">
        <ele>946</ele>
        <time>2022-05-23 11:07:29</time>
      </trkpt>
      <trkpt lat="42.08182" lon="0.7324">
        <ele>946.2</ele>
        <time>2022-05-23 11:07:30</time>
      </trkpt>
      <trkpt lat="42.08183" lon="0.73241">
        <ele>946.4</ele>
        <time>2022-05-23 11:07:31</time>
      </trkpt>
      <trkpt lat="42.08185" lon="0.73242">
        <ele>946.4</ele>
        <time>2022-05-23 11:07:32</time>
      </trkpt>
      <trkpt lat="42.08186" lon="0.73243">
        <ele>946.6</ele>
        <time>2022-05-23 11:07:33</time>
      </trkpt>
      <trkpt lat="42.08188" lon="0.73244">
        <ele>946.6</ele>
        <time>2022-05-23 11:07:34</time>
      </trkpt>
      <trkpt lat="42.08189" lon="0.73245">
        <ele>946.8</ele>
        <time>2022-05-23 11:07:35</time>
      </trkpt>
      <trkpt lat="42.0819" lon="0.73247">
        <ele>946.8</ele>
        <time>2022-05-23 11:07:36</time>
      </trkpt>
      <trkpt lat="42.08192" lon="0.73248">
        <ele>947</ele>
        <time>2022-05-23 11:07:37</time>
      </trkpt>
      <trkpt lat="42.08193" lon="0.73249">
        <ele>947</ele>
        <time>2022-05-23 11:07:38</time>
      </trkpt>
      <trkpt lat="42.08194" lon="0.7325">
        <ele>947.2</ele>
        <time>2022-05-23 11:07:39</time>
      </trkpt>
      <trkpt lat="42.08196" lon="0.73251">
        <ele>947.4</ele>
        <time>2022-05-23 11:07:40</time>
      </trkpt>
      <trkpt lat="42.08197" lon="0.73253">
        <ele>947.6</ele>
        <time>2022-05-23 11:07:41</time>
      </trkpt>
      <trkpt lat="42.08198" lon="0.73254">
        <ele>947.8</ele>
        <time>2022-05-23 11:07:42</time>
      </trkpt>
      <trkpt lat="42.08199" lon="0.73255">
        <ele>948</ele>
        <time>2022-05-23 11:07:43</time>
      </trkpt>
      <trkpt lat="42.082" lon="0.73257">
        <ele>948</ele>
        <time>2022-05-23 11:07:44</time>
      </trkpt>
      <trkpt lat="42.08201" lon="0.73259">
        <ele>948.2</ele>
        <time>2022-05-23 11:07:45</time>
      </trkpt>
      <trkpt lat="42.08202" lon="0.7326">
        <ele>948.4</ele>
        <time>2022-05-23 11:07:46</time>
      </trkpt>
      <trkpt lat="42.08203" lon="0.73262">
        <ele>948.6</ele>
        <time>2022-05-23 11:07:47</time>
      </trkpt>
      <trkpt lat="42.08204" lon="0.73264">
        <ele>948.6</ele>
        <time>2022-05-23 11:07:48</time>
      </trkpt>
      <trkpt lat="42.08205" lon="0.73266">
        <ele>948.8</ele>
        <time>2022-05-23 11:07:49</time>
      </trkpt>
      <trkpt lat="42.08205" lon="0.73267">
        <ele>949</ele>
        <time>2022-05-23 11:07:50</time>
      </trkpt>
      <trkpt lat="42.08206" lon="0.73269">
        <ele>949.2</ele>
        <time>2022-05-23 11:07:51</time>
      </trkpt>
      <trkpt lat="42.08207" lon="0.73271">
        <ele>949.4</ele>
        <time>2022-05-23 11:07:52</time>
      </trkpt>
      <trkpt lat="42.08207" lon="0.73272">
        <ele>949.4</ele>
        <time>2022-05-23 11:07:53</time>
      </trkpt>
      <trkpt lat="42.08207" lon="0.73274">
        <ele>949.6</ele>
        <time>2022-05-23 11:07:54</time>
      </trkpt>
      <trkpt lat="42.08206" lon="0.73276">
        <ele>949.8</ele>
        <time>2022-05-23 11:07:55</time>
      </trkpt>
      <trkpt lat="42.08206" lon="0.73279">
        <ele>949.8</ele>
        <time>2022-05-23 11:07:56</time>
      </trkpt>
      <trkpt lat="42.08206" lon="0.73281">
        <ele>950</ele>
        <time>2022-05-23 11:07:57</time>
      </trkpt>
      <trkpt lat="42.08205" lon="0.73283">
        <ele>950.2</ele>
        <time>2022-05-23 11:07:58</time>
      </trkpt>
      <trkpt lat="42.08205" lon="0.73285">
        <ele>950.4</ele>
        <time>2022-05-23 11:07:59</time>
      </trkpt>
      <trkpt lat="42.08204" lon="0.73288">
        <ele>950.6</ele>
        <time>2022-05-23 11:08:00</time>
      </trkpt>
      <trkpt lat="42.08203" lon="0.7329">
        <ele>950.8</ele>
        <time>2022-05-23 11:08:01</time>
      </trkpt>
      <trkpt lat="42.08203" lon="0.73292">
        <ele>951</ele>
        <time>2022-05-23 11:08:02</time>
      </trkpt>
      <trkpt lat="42.08202" lon="0.73294">
        <ele>951.2</ele>
        <time>2022-05-23 11:08:03</time>
      </trkpt>
      <trkpt lat="42.08202" lon="0.73295">
        <ele>951.6</ele>
        <time>2022-05-23 11:08:04</time>
      </trkpt>
      <trkpt lat="42.08201" lon="0.73297">
        <ele>951.8</ele>
        <time>2022-05-23 11:08:05</time>
      </trkpt>
      <trkpt lat="42.08201" lon="0.73299">
        <ele>952</ele>
        <time>2022-05-23 11:08:06</time>
      </trkpt>
      <trkpt lat="42.082" lon="0.73301">
        <ele>952.4</ele>
        <time>2022-05-23 11:08:07</time>
      </trkpt>
      <trkpt lat="42.08199" lon="0.73303">
        <ele>952.6</ele>
        <time>2022-05-23 11:08:08</time>
      </trkpt>
      <trkpt lat="42.08198" lon="0.73304">
        <ele>952.8</ele>
        <time>2022-05-23 11:08:09</time>
      </trkpt>
      <trkpt lat="42.08197" lon="0.73306">
        <ele>953</ele>
        <time>2022-05-23 11:08:10</time>
      </trkpt>
      <trkpt lat="42.08196" lon="0.73307">
        <ele>953.2</ele>
        <time>2022-05-23 11:08:11</time>
      </trkpt>
      <trkpt lat="42.08194" lon="0.73308">
        <ele>953.4</ele>
        <time>2022-05-23 11:08:12</time>
      </trkpt>
      <trkpt lat="42.08193" lon="0.73309">
        <ele>953.6</ele>
        <time>2022-05-23 11:08:13</time>
      </trkpt>
      <trkpt lat="42.08191" lon="0.73309">
        <ele>953.8</ele>
        <time>2022-05-23 11:08:14</time>
      </trkpt>
      <trkpt lat="42.08189" lon="0.73309">
        <ele>954</ele>
        <time>2022-05-23 11:08:15</time>
      </trkpt>
      <trkpt lat="42.08187" lon="0.7331">
        <ele>954.2</ele>
        <time>2022-05-23 11:08:16</time>
      </trkpt>
      <trkpt lat="42.08186" lon="0.73311">
        <ele>954.4</ele>
        <time>2022-05-23 11:08:17</time>
      </trkpt>
      <trkpt lat="42.08184" lon="0.73311">
        <ele>954.6</ele>
        <time>2022-05-23 11:08:18</time>
      </trkpt>
      <trkpt lat="42.08182" lon="0.7331">
        <ele>954.8</ele>
        <time>2022-05-23 11:08:19</time>
      </trkpt>
      <trkpt lat="42.08181" lon="0.7331">
        <ele>955</ele>
        <time>2022-05-23 11:08:20</time>
      </trkpt>
      <trkpt lat="42.08179" lon="0.73309">
        <ele>955.2</ele>
        <time>2022-05-23 11:08:21</time>
      </trkpt>
      <trkpt lat="42.08178" lon="0.73308">
        <ele>955.4</ele>
        <time>2022-05-23 11:08:22</time>
      </trkpt>
      <trkpt lat="42.08176" lon="0.73308">
        <ele>955.6</ele>
        <time>2022-05-23 11:08:23</time>
      </trkpt>
      <trkpt lat="42.08175" lon="0.73307">
        <ele>956</ele>
        <time>2022-05-23 11:08:24</time>
      </trkpt>
      <trkpt lat="42.08174" lon="0.73307">
        <ele>956.2</ele>
        <time>2022-05-23 11:08:25</time>
      </trkpt>
      <trkpt lat="42.08172" lon="0.73307">
        <ele>956.6</ele>
        <time>2022-05-23 11:08:26</time>
      </trkpt>
      <trkpt lat="42.08171" lon="0.73306">
        <ele>956.8</ele>
        <time>2022-05-23 11:08:27</time>
      </trkpt>
      <trkpt lat="42.08169" lon="0.73306">
        <ele>957</ele>
        <time>2022-05-23 11:08:28</time>
      </trkpt>
      <trkpt lat="42.08168" lon="0.73305">
        <ele>957.4</ele>
        <time>2022-05-23 11:08:29</time>
      </trkpt>
      <trkpt lat="42.08167" lon="0.73304">
        <ele>957.6</ele>
        <time>2022-05-23 11:08:30</time>
      </trkpt>
      <trkpt lat="42.08166" lon="0.73303">
        <ele>957.8</ele>
        <time>2022-05-23 11:08:31</time>
      </trkpt>
      <trkpt lat="42.08165" lon="0.73302">
        <ele>958</ele>
        <time>2022-05-23 11:08:32</time>
      </trkpt>
      <trkpt lat="42.08163" lon="0.73301">
        <ele>958</ele>
        <time>2022-05-23 11:08:33</time>
      </trkpt>
      <trkpt lat="42.08162" lon="0.733">
        <ele>958.2</ele>
        <time>2022-05-23 11:08:34</time>
      </trkpt>
      <trkpt lat="42.08161" lon="0.73299">
        <ele>958.4</ele>
        <time>2022-05-23 11:08:35</time>
      </trkpt>
      <trkpt lat="42.0816" lon="0.73297">
        <ele>958.4</ele>
        <time>2022-05-23 11:08:36</time>
      </trkpt>
      <trkpt lat="42.08159" lon="0.73296">
        <ele>958.6</ele>
        <time>2022-05-23 11:08:37</time>
      </trkpt>
      <trkpt lat="42.08157" lon="0.73295">
        <ele>958.8</ele>
        <time>2022-05-23 11:08:38</time>
      </trkpt>
      <trkpt lat="42.08155" lon="0.73294">
        <ele>958.8</ele>
        <time>2022-05-23 11:08:39</time>
      </trkpt>
      <trkpt lat="42.08153" lon="0.73293">
        <ele>959</ele>
        <time>2022-05-23 11:08:40</time>
      </trkpt>
      <trkpt lat="42.08152" lon="0.73292">
        <ele>959.2</ele>
        <time>2022-05-23 11:08:41</time>
      </trkpt>
      <trkpt lat="42.0815" lon="0.73291">
        <ele>959.2</ele>
        <time>2022-05-23 11:08:42</time>
      </trkpt>
      <trkpt lat="42.08149" lon="0.7329">
        <ele>959.4</ele>
        <time>2022-05-23 11:08:43</time>
      </trkpt>
      <trkpt lat="42.08148" lon="0.73289">
        <ele>959.4</ele>
        <time>2022-05-23 11:08:44</time>
      </trkpt>
      <trkpt lat="42.08147" lon="0.73288">
        <ele>959.6</ele>
        <time>2022-05-23 11:08:45</time>
      </trkpt>
      <trkpt lat="42.08145" lon="0.73287">
        <ele>959.8</ele>
        <time>2022-05-23 11:08:46</time>
      </trkpt>
      <trkpt lat="42.08144" lon="0.73286">
        <ele>959.8</ele>
        <time>2022-05-23 11:08:47</time>
      </trkpt>
      <trkpt lat="42.08142" lon="0.73285">
        <ele>960</ele>
        <time>2022-05-23 11:08:48</time>
      </trkpt>
      <trkpt lat="42.0814" lon="0.73285">
        <ele>960.2</ele>
        <time>2022-05-23 11:08:49</time>
      </trkpt>
      <trkpt lat="42.08139" lon="0.73284">
        <ele>960.4</ele>
        <time>2022-05-23 11:08:50</time>
      </trkpt>
      <trkpt lat="42.08137" lon="0.73283">
        <ele>960.6</ele>
        <time>2022-05-23 11:08:51</time>
      </trkpt>
      <trkpt lat="42.08136" lon="0.73282">
        <ele>960.6</ele>
        <time>2022-05-23 11:08:52</time>
      </trkpt>
      <trkpt lat="42.08134" lon="0.73281">
        <ele>960.8</ele>
        <time>2022-05-23 11:08:53</time>
      </trkpt>
      <trkpt lat="42.08132" lon="0.7328">
        <ele>961</ele>
        <time>2022-05-23 11:08:54</time>
      </trkpt>
      <trkpt lat="42.08131" lon="0.73279">
        <ele>961</ele>
        <time>2022-05-23 11:08:55</time>
      </trkpt>
      <trkpt lat="42.08129" lon="0.73278">
        <ele>961.2</ele>
        <time>2022-05-23 11:08:56</time>
      </trkpt>
      <trkpt lat="42.08128" lon="0.73278">
        <ele>961.4</ele>
        <time>2022-05-23 11:08:57</time>
      </trkpt>
      <trkpt lat="42.08126" lon="0.73277">
        <ele>961.6</ele>
        <time>2022-05-23 11:08:58</time>
      </trkpt>
      <trkpt lat="42.08125" lon="0.73276">
        <ele>961.8</ele>
        <time>2022-05-23 11:08:59</time>
      </trkpt>
      <trkpt lat="42.08123" lon="0.73276">
        <ele>962</ele>
        <time>2022-05-23 11:09:00</time>
      </trkpt>
      <trkpt lat="42.08122" lon="0.73275">
        <ele>962.2</ele>
        <time>2022-05-23 11:09:01</time>
      </trkpt>
      <trkpt lat="42.0812" lon="0.73275">
        <ele>962.4</ele>
        <time>2022-05-23 11:09:02</time>
      </trkpt>
      <trkpt lat="42.08119" lon="0.73275">
        <ele>962.6</ele>
        <time>2022-05-23 11:09:03</time>
      </trkpt>
      <trkpt lat="42.08118" lon="0.73274">
        <ele>962.8</ele>
        <time>2022-05-23 11:09:04</time>
      </trkpt>
      <trkpt lat="42.08116" lon="0.73274">
        <ele>962.8</ele>
        <time>2022-05-23 11:09:05</time>
      </trkpt>
      <trkpt lat="42.08115" lon="0.73273">
        <ele>963</ele>
        <time>2022-05-23 11:09:06</time>
      </trkpt>
      <trkpt lat="42.08113" lon="0.73273">
        <ele>963</ele>
        <time>2022-05-23 11:09:07</time>
      </trkpt>
      <trkpt lat="42.08111" lon="0.73273">
        <ele>963</ele>
        <time>2022-05-23 11:09:08</time>
      </trkpt>
      <trkpt lat="42.0811" lon="0.73272">
        <ele>963.2</ele>
        <time>2022-05-23 11:09:09</time>
      </trkpt>
      <trkpt lat="42.08108" lon="0.73272">
        <ele>963.2</ele>
        <time>2022-05-23 11:09:10</time>
      </trkpt>
      <trkpt lat="42.08106" lon="0.73272">
        <ele>963.4</ele>
        <time>2022-05-23 11:09:11</time>
      </trkpt>
      <trkpt lat="42.08105" lon="0.73271">
        <ele>963.4</ele>
        <time>2022-05-23 11:09:12</time>
      </trkpt>
      <trkpt lat="42.08103" lon="0.73271">
        <ele>963.6</ele>
        <time>2022-05-23 11:09:13</time>
      </trkpt>
      <trkpt lat="42.08102" lon="0.73271">
        <ele>963.8</ele>
        <time>2022-05-23 11:09:14</time>
      </trkpt>
      <trkpt lat="42.081" lon="0.73271">
        <ele>963.8</ele>
        <time>2022-05-23 11:09:15</time>
      </trkpt>
      <trkpt lat="42.08098" lon="0.73271">
        <ele>964</ele>
        <time>2022-05-23 11:09:16</time>
      </trkpt>
      <trkpt lat="42.08097" lon="0.73272">
        <ele>964.2</ele>
        <time>2022-05-23 11:09:17</time>
      </trkpt>
      <trkpt lat="42.08095" lon="0.73272">
        <ele>964.2</ele>
        <time>2022-05-23 11:09:18</time>
      </trkpt>
      <trkpt lat="42.08094" lon="0.73273">
        <ele>964.4</ele>
        <time>2022-05-23 11:09:19</time>
      </trkpt>
      <trkpt lat="42.08092" lon="0.73274">
        <ele>964.4</ele>
        <time>2022-05-23 11:09:20</time>
      </trkpt>
      <trkpt lat="42.08091" lon="0.73274">
        <ele>964.6</ele>
        <time>2022-05-23 11:09:21</time>
      </trkpt>
      <trkpt lat="42.0809" lon="0.73275">
        <ele>964.8</ele>
        <time>2022-05-23 11:09:22</time>
      </trkpt>
      <trkpt lat="42.08089" lon="0.73275">
        <ele>965</ele>
        <time>2022-05-23 11:09:23</time>
      </trkpt>
      <trkpt lat="42.08087" lon="0.73276">
        <ele>965</ele>
        <time>2022-05-23 11:09:24</time>
      </trkpt>
      <trkpt lat="42.08086" lon="0.73277">
        <ele>965.2</ele>
        <time>2022-05-23 11:09:25</time>
      </trkpt>
      <trkpt lat="42.08085" lon="0.73278">
        <ele>965.4</ele>
        <time>2022-05-23 11:09:26</time>
      </trkpt>
      <trkpt lat="42.08083" lon="0.73279">
        <ele>965.4</ele>
        <time>2022-05-23 11:09:27</time>
      </trkpt>
      <trkpt lat="42.08082" lon="0.73279">
        <ele>965.6</ele>
        <time>2022-05-23 11:09:28</time>
      </trkpt>
      <trkpt lat="42.08081" lon="0.7328">
        <ele>965.8</ele>
        <time>2022-05-23 11:09:29</time>
      </trkpt>
      <trkpt lat="42.08079" lon="0.73282">
        <ele>965.8</ele>
        <time>2022-05-23 11:09:30</time>
      </trkpt>
      <trkpt lat="42.08078" lon="0.73283">
        <ele>966</ele>
        <time>2022-05-23 11:09:31</time>
      </trkpt>
      <trkpt lat="42.08077" lon="0.73284">
        <ele>966.2</ele>
        <time>2022-05-23 11:09:32</time>
      </trkpt>
      <trkpt lat="42.08076" lon="0.73285">
        <ele>966.4</ele>
        <time>2022-05-23 11:09:33</time>
      </trkpt>
      <trkpt lat="42.08075" lon="0.73287">
        <ele>966.6</ele>
        <time>2022-05-23 11:09:34</time>
      </trkpt>
      <trkpt lat="42.08073" lon="0.73289">
        <ele>966.8</ele>
        <time>2022-05-23 11:09:35</time>
      </trkpt>
      <trkpt lat="42.08072" lon="0.73291">
        <ele>967</ele>
        <time>2022-05-23 11:09:36</time>
      </trkpt>
      <trkpt lat="42.08071" lon="0.73293">
        <ele>967.2</ele>
        <time>2022-05-23 11:09:37</time>
      </trkpt>
      <trkpt lat="42.0807" lon="0.73294">
        <ele>967.4</ele>
        <time>2022-05-23 11:09:38</time>
      </trkpt>
      <trkpt lat="42.08068" lon="0.73297">
        <ele>967.4</ele>
        <time>2022-05-23 11:09:39</time>
      </trkpt>
      <trkpt lat="42.08066" lon="0.73298">
        <ele>967.6</ele>
        <time>2022-05-23 11:09:40</time>
      </trkpt>
      <trkpt lat="42.08065" lon="0.733">
        <ele>967.8</ele>
        <time>2022-05-23 11:09:41</time>
      </trkpt>
      <trkpt lat="42.08063" lon="0.73302">
        <ele>968</ele>
        <time>2022-05-23 11:09:42</time>
      </trkpt>
      <trkpt lat="42.08062" lon="0.73303">
        <ele>968</ele>
        <time>2022-05-23 11:09:43</time>
      </trkpt>
      <trkpt lat="42.08061" lon="0.73305">
        <ele>968.2</ele>
        <time>2022-05-23 11:09:44</time>
      </trkpt>
      <trkpt lat="42.08059" lon="0.73307">
        <ele>968.4</ele>
        <time>2022-05-23 11:09:45</time>
      </trkpt>
      <trkpt lat="42.08058" lon="0.73309">
        <ele>968.4</ele>
        <time>2022-05-23 11:09:46</time>
      </trkpt>
      <trkpt lat="42.08057" lon="0.73311">
        <ele>968.6</ele>
        <time>2022-05-23 11:09:47</time>
      </trkpt>
      <trkpt lat="42.08056" lon="0.73313">
        <ele>968.8</ele>
        <time>2022-05-23 11:09:48</time>
      </trkpt>
      <trkpt lat="42.08054" lon="0.73316">
        <ele>969</ele>
        <time>2022-05-23 11:09:49</time>
      </trkpt>
      <trkpt lat="42.08053" lon="0.73318">
        <ele>969</ele>
        <time>2022-05-23 11:09:50</time>
      </trkpt>
      <trkpt lat="42.08052" lon="0.7332">
        <ele>969.2</ele>
        <time>2022-05-23 11:09:51</time>
      </trkpt>
      <trkpt lat="42.08052" lon="0.73323">
        <ele>969.4</ele>
        <time>2022-05-23 11:09:52</time>
      </trkpt>
      <trkpt lat="42.08051" lon="0.73325">
        <ele>969.4</ele>
        <time>2022-05-23 11:09:53</time>
      </trkpt>
      <trkpt lat="42.0805" lon="0.73328">
        <ele>969.6</ele>
        <time>2022-05-23 11:09:54</time>
      </trkpt>
      <trkpt lat="42.0805" lon="0.73331">
        <ele>969.8</ele>
        <time>2022-05-23 11:09:55</time>
      </trkpt>
      <trkpt lat="42.08049" lon="0.73334">
        <ele>970</ele>
        <time>2022-05-23 11:09:56</time>
      </trkpt>
      <trkpt lat="42.08048" lon="0.73337">
        <ele>970.2</ele>
        <time>2022-05-23 11:09:57</time>
      </trkpt>
      <trkpt lat="42.08048" lon="0.73339">
        <ele>970.4</ele>
        <time>2022-05-23 11:09:58</time>
      </trkpt>
      <trkpt lat="42.08047" lon="0.73343">
        <ele>970.4</ele>
        <time>2022-05-23 11:09:59</time>
      </trkpt>
      <trkpt lat="42.08046" lon="0.73346">
        <ele>970.6</ele>
        <time>2022-05-23 11:10:00</time>
      </trkpt>
      <trkpt lat="42.08046" lon="0.73349">
        <ele>970.8</ele>
        <time>2022-05-23 11:10:01</time>
      </trkpt>
      <trkpt lat="42.08046" lon="0.73351">
        <ele>971</ele>
        <time>2022-05-23 11:10:02</time>
      </trkpt>
      <trkpt lat="42.08046" lon="0.73354">
        <ele>971.2</ele>
        <time>2022-05-23 11:10:03</time>
      </trkpt>
      <trkpt lat="42.08045" lon="0.73357">
        <ele>971.4</ele>
        <time>2022-05-23 11:10:04</time>
      </trkpt>
      <trkpt lat="42.08045" lon="0.7336">
        <ele>971.4</ele>
        <time>2022-05-23 11:10:05</time>
      </trkpt>
      <trkpt lat="42.08045" lon="0.73362">
        <ele>971.6</ele>
        <time>2022-05-23 11:10:06</time>
      </trkpt>
      <trkpt lat="42.08045" lon="0.73365">
        <ele>971.8</ele>
        <time>2022-05-23 11:10:07</time>
      </trkpt>
      <trkpt lat="42.08045" lon="0.73368">
        <ele>971.8</ele>
        <time>2022-05-23 11:10:08</time>
      </trkpt>
      <trkpt lat="42.08045" lon="0.7337">
        <ele>972</ele>
        <time>2022-05-23 11:10:09</time>
      </trkpt>
      <trkpt lat="42.08044" lon="0.73373">
        <ele>972.2</ele>
        <time>2022-05-23 11:10:10</time>
      </trkpt>
      <trkpt lat="42.08044" lon="0.73375">
        <ele>972.4</ele>
        <time>2022-05-23 11:10:11</time>
      </trkpt>
      <trkpt lat="42.08044" lon="0.73378">
        <ele>972.6</ele>
        <time>2022-05-23 11:10:12</time>
      </trkpt>
      <trkpt lat="42.08044" lon="0.7338">
        <ele>972.8</ele>
        <time>2022-05-23 11:10:13</time>
      </trkpt>
      <trkpt lat="42.08043" lon="0.73383">
        <ele>973</ele>
        <time>2022-05-23 11:10:14</time>
      </trkpt>
      <trkpt lat="42.08043" lon="0.73386">
        <ele>973.2</ele>
        <time>2022-05-23 11:10:15</time>
      </trkpt>
      <trkpt lat="42.08043" lon="0.73388">
        <ele>973.2</ele>
        <time>2022-05-23 11:10:16</time>
      </trkpt>
      <trkpt lat="42.08042" lon="0.73391">
        <ele>973.4</ele>
        <time>2022-05-23 11:10:17</time>
      </trkpt>
      <trkpt lat="42.08042" lon="0.73394">
        <ele>973.6</ele>
        <time>2022-05-23 11:10:18</time>
      </trkpt>
      <trkpt lat="42.08041" lon="0.73396">
        <ele>973.8</ele>
        <time>2022-05-23 11:10:19</time>
      </trkpt>
      <trkpt lat="42.08041" lon="0.73399">
        <ele>974</ele>
        <time>2022-05-23 11:10:20</time>
      </trkpt>
      <trkpt lat="42.0804" lon="0.73401">
        <ele>974.2</ele>
        <time>2022-05-23 11:10:21</time>
      </trkpt>
      <trkpt lat="42.0804" lon="0.73403">
        <ele>974.4</ele>
        <time>2022-05-23 11:10:22</time>
      </trkpt>
      <trkpt lat="42.08039" lon="0.73405">
        <ele>974.6</ele>
        <time>2022-05-23 11:10:23</time>
      </trkpt>
      <trkpt lat="42.08039" lon="0.73408">
        <ele>974.8</ele>
        <time>2022-05-23 11:10:24</time>
      </trkpt>
      <trkpt lat="42.08038" lon="0.7341">
        <ele>975</ele>
        <time>2022-05-23 11:10:25</time>
      </trkpt>
      <trkpt lat="42.08038" lon="0.73412">
        <ele>975.2</ele>
        <time>2022-05-23 11:10:26</time>
      </trkpt>
      <trkpt lat="42.08038" lon="0.73414">
        <ele>975.4</ele>
        <time>2022-05-23 11:10:27</time>
      </trkpt>
      <trkpt lat="42.08037" lon="0.73416">
        <ele>975.6</ele>
        <time>2022-05-23 11:10:28</time>
      </trkpt>
      <trkpt lat="42.08036" lon="0.73418">
        <ele>975.8</ele>
        <time>2022-05-23 11:10:29</time>
      </trkpt>
      <trkpt lat="42.08036" lon="0.7342">
        <ele>976</ele>
        <time>2022-05-23 11:10:30</time>
      </trkpt>
      <trkpt lat="42.08035" lon="0.73423">
        <ele>976.2</ele>
        <time>2022-05-23 11:10:31</time>
      </trkpt>
      <trkpt lat="42.08034" lon="0.73425">
        <ele>976.4</ele>
        <time>2022-05-23 11:10:32</time>
      </trkpt>
      <trkpt lat="42.08034" lon="0.73427">
        <ele>976.6</ele>
        <time>2022-05-23 11:10:33</time>
      </trkpt>
      <trkpt lat="42.08033" lon="0.73429">
        <ele>976.8</ele>
        <time>2022-05-23 11:10:34</time>
      </trkpt>
      <trkpt lat="42.08033" lon="0.73432">
        <ele>977</ele>
        <time>2022-05-23 11:10:35</time>
      </trkpt>
      <trkpt lat="42.08032" lon="0.73434">
        <ele>977.2</ele>
        <time>2022-05-23 11:10:36</time>
      </trkpt>
      <trkpt lat="42.08032" lon="0.73436">
        <ele>977.4</ele>
        <time>2022-05-23 11:10:37</time>
      </trkpt>
      <trkpt lat="42.08032" lon="0.73438">
        <ele>977.4</ele>
        <time>2022-05-23 11:10:38</time>
      </trkpt>
      <trkpt lat="42.08031" lon="0.7344">
        <ele>977.6</ele>
        <time>2022-05-23 11:10:39</time>
      </trkpt>
      <trkpt lat="42.0803" lon="0.73442">
        <ele>977.8</ele>
        <time>2022-05-23 11:10:40</time>
      </trkpt>
      <trkpt lat="42.0803" lon="0.73444">
        <ele>978</ele>
        <time>2022-05-23 11:10:41</time>
      </trkpt>
      <trkpt lat="42.08029" lon="0.73447">
        <ele>978.2</ele>
        <time>2022-05-23 11:10:42</time>
      </trkpt>
      <trkpt lat="42.08028" lon="0.73449">
        <ele>978.4</ele>
        <time>2022-05-23 11:10:43</time>
      </trkpt>
      <trkpt lat="42.08028" lon="0.73451">
        <ele>978.4</ele>
        <time>2022-05-23 11:10:44</time>
      </trkpt>
      <trkpt lat="42.08027" lon="0.73453">
        <ele>978.6</ele>
        <time>2022-05-23 11:10:45</time>
      </trkpt>
      <trkpt lat="42.08026" lon="0.73455">
        <ele>978.8</ele>
        <time>2022-05-23 11:10:46</time>
      </trkpt>
      <trkpt lat="42.08026" lon="0.73456">
        <ele>979</ele>
        <time>2022-05-23 11:10:47</time>
      </trkpt>
      <trkpt lat="42.08026" lon="0.73458">
        <ele>979.2</ele>
        <time>2022-05-23 11:10:48</time>
      </trkpt>
      <trkpt lat="42.08025" lon="0.7346">
        <ele>979.4</ele>
        <time>2022-05-23 11:10:49</time>
      </trkpt>
      <trkpt lat="42.08025" lon="0.73462">
        <ele>979.6</ele>
        <time>2022-05-23 11:10:50</time>
      </trkpt>
      <trkpt lat="42.08025" lon="0.73464">
        <ele>979.8</ele>
        <time>2022-05-23 11:10:51</time>
      </trkpt>
      <trkpt lat="42.08025" lon="0.73467">
        <ele>980</ele>
        <time>2022-05-23 11:10:52</time>
      </trkpt>
      <trkpt lat="42.08024" lon="0.73469">
        <ele>980</ele>
        <time>2022-05-23 11:10:53</time>
      </trkpt>
      <trkpt lat="42.08024" lon="0.73472">
        <ele>980.2</ele>
        <time>2022-05-23 11:10:54</time>
      </trkpt>
      <trkpt lat="42.08023" lon="0.73475">
        <ele>980.4</ele>
        <time>2022-05-23 11:10:55</time>
      </trkpt>
      <trkpt lat="42.08023" lon="0.73478">
        <ele>980.6</ele>
        <time>2022-05-23 11:10:56</time>
      </trkpt>
      <trkpt lat="42.08023" lon="0.73481">
        <ele>980.6</ele>
        <time>2022-05-23 11:10:57</time>
      </trkpt>
      <trkpt lat="42.08022" lon="0.73484">
        <ele>980.8</ele>
        <time>2022-05-23 11:10:58</time>
      </trkpt>
      <trkpt lat="42.08022" lon="0.73487">
        <ele>981</ele>
        <time>2022-05-23 11:10:59</time>
      </trkpt>
      <trkpt lat="42.08022" lon="0.7349">
        <ele>981.2</ele>
        <time>2022-05-23 11:11:00</time>
      </trkpt>
      <trkpt lat="42.08022" lon="0.73493">
        <ele>981.2</ele>
        <time>2022-05-23 11:11:01</time>
      </trkpt>
      <trkpt lat="42.08021" lon="0.73496">
        <ele>981.4</ele>
        <time>2022-05-23 11:11:02</time>
      </trkpt>
      <trkpt lat="42.08021" lon="0.73499">
        <ele>981.6</ele>
        <time>2022-05-23 11:11:03</time>
      </trkpt>
      <trkpt lat="42.0802" lon="0.73501">
        <ele>981.8</ele>
        <time>2022-05-23 11:11:04</time>
      </trkpt>
      <trkpt lat="42.0802" lon="0.73504">
        <ele>981.8</ele>
        <time>2022-05-23 11:11:05</time>
      </trkpt>
      <trkpt lat="42.0802" lon="0.73506">
        <ele>982</ele>
        <time>2022-05-23 11:11:06</time>
      </trkpt>
      <trkpt lat="42.0802" lon="0.73509">
        <ele>982.2</ele>
        <time>2022-05-23 11:11:07</time>
      </trkpt>
      <trkpt lat="42.0802" lon="0.73511">
        <ele>982.2</ele>
        <time>2022-05-23 11:11:08</time>
      </trkpt>
      <trkpt lat="42.08019" lon="0.73514">
        <ele>982.4</ele>
        <time>2022-05-23 11:11:09</time>
      </trkpt>
      <trkpt lat="42.08018" lon="0.73516">
        <ele>982.6</ele>
        <time>2022-05-23 11:11:10</time>
      </trkpt>
      <trkpt lat="42.08018" lon="0.73519">
        <ele>982.6</ele>
        <time>2022-05-23 11:11:11</time>
      </trkpt>
      <trkpt lat="42.08017" lon="0.73521">
        <ele>982.8</ele>
        <time>2022-05-23 11:11:12</time>
      </trkpt>
      <trkpt lat="42.08017" lon="0.73524">
        <ele>983</ele>
        <time>2022-05-23 11:11:13</time>
      </trkpt>
      <trkpt lat="42.08016" lon="0.73526">
        <ele>983</ele>
        <time>2022-05-23 11:11:14</time>
      </trkpt>
      <trkpt lat="42.08015" lon="0.73528">
        <ele>983.2</ele>
        <time>2022-05-23 11:11:15</time>
      </trkpt>
      <trkpt lat="42.08015" lon="0.73531">
        <ele>983.2</ele>
        <time>2022-05-23 11:11:16</time>
      </trkpt>
      <trkpt lat="42.08014" lon="0.73533">
        <ele>983.4</ele>
        <time>2022-05-23 11:11:17</time>
      </trkpt>
      <trkpt lat="42.08014" lon="0.73536">
        <ele>983.6</ele>
        <time>2022-05-23 11:11:18</time>
      </trkpt>
      <trkpt lat="42.08014" lon="0.73538">
        <ele>983.8</ele>
        <time>2022-05-23 11:11:19</time>
      </trkpt>
      <trkpt lat="42.08014" lon="0.73541">
        <ele>984</ele>
        <time>2022-05-23 11:11:20</time>
      </trkpt>
      <trkpt lat="42.08014" lon="0.73543">
        <ele>984.2</ele>
        <time>2022-05-23 11:11:21</time>
      </trkpt>
      <trkpt lat="42.08014" lon="0.73546">
        <ele>984.4</ele>
        <time>2022-05-23 11:11:22</time>
      </trkpt>
      <trkpt lat="42.08014" lon="0.73548">
        <ele>984.4</ele>
        <time>2022-05-23 11:11:23</time>
      </trkpt>
      <trkpt lat="42.08015" lon="0.73551">
        <ele>984.6</ele>
        <time>2022-05-23 11:11:24</time>
      </trkpt>
      <trkpt lat="42.08015" lon="0.73553">
        <ele>984.8</ele>
        <time>2022-05-23 11:11:25</time>
      </trkpt>
      <trkpt lat="42.08015" lon="0.73556">
        <ele>985</ele>
        <time>2022-05-23 11:11:26</time>
      </trkpt>
      <trkpt lat="42.08016" lon="0.73558">
        <ele>985.2</ele>
        <time>2022-05-23 11:11:27</time>
      </trkpt>
      <trkpt lat="42.08017" lon="0.73561">
        <ele>985.4</ele>
        <time>2022-05-23 11:11:28</time>
      </trkpt>
      <trkpt lat="42.08019" lon="0.73563">
        <ele>985.6</ele>
        <time>2022-05-23 11:11:29</time>
      </trkpt>
      <trkpt lat="42.0802" lon="0.73566">
        <ele>985.8</ele>
        <time>2022-05-23 11:11:30</time>
      </trkpt>
      <trkpt lat="42.0802" lon="0.73568">
        <ele>986</ele>
        <time>2022-05-23 11:11:31</time>
      </trkpt>
      <trkpt lat="42.08022" lon="0.73571">
        <ele>986</ele>
        <time>2022-05-23 11:11:32</time>
      </trkpt>
      <trkpt lat="42.08023" lon="0.73574">
        <ele>986.2</ele>
        <time>2022-05-23 11:11:33</time>
      </trkpt>
      <trkpt lat="42.08024" lon="0.73576">
        <ele>986.4</ele>
        <time>2022-05-23 11:11:34</time>
      </trkpt>
      <trkpt lat="42.08025" lon="0.73578">
        <ele>986.6</ele>
        <time>2022-05-23 11:11:35</time>
      </trkpt>
      <trkpt lat="42.08027" lon="0.73581">
        <ele>986.6</ele>
        <time>2022-05-23 11:11:36</time>
      </trkpt>
      <trkpt lat="42.08028" lon="0.73583">
        <ele>986.8</ele>
        <time>2022-05-23 11:11:37</time>
      </trkpt>
      <trkpt lat="42.08029" lon="0.73585">
        <ele>987</ele>
        <time>2022-05-23 11:11:38</time>
      </trkpt>
      <trkpt lat="42.0803" lon="0.73587">
        <ele>987.2</ele>
        <time>2022-05-23 11:11:39</time>
      </trkpt>
      <trkpt lat="42.08031" lon="0.73589">
        <ele>987.4</ele>
        <time>2022-05-23 11:11:40</time>
      </trkpt>
      <trkpt lat="42.08032" lon="0.73591">
        <ele>987.6</ele>
        <time>2022-05-23 11:11:41</time>
      </trkpt>
      <trkpt lat="42.08033" lon="0.73594">
        <ele>987.8</ele>
        <time>2022-05-23 11:11:42</time>
      </trkpt>
      <trkpt lat="42.08034" lon="0.73596">
        <ele>987.8</ele>
        <time>2022-05-23 11:11:43</time>
      </trkpt>
      <trkpt lat="42.08036" lon="0.73598">
        <ele>988</ele>
        <time>2022-05-23 11:11:44</time>
      </trkpt>
      <trkpt lat="42.08037" lon="0.736">
        <ele>988</ele>
        <time>2022-05-23 11:11:45</time>
      </trkpt>
      <trkpt lat="42.08038" lon="0.73603">
        <ele>988.2</ele>
        <time>2022-05-23 11:11:46</time>
      </trkpt>
      <trkpt lat="42.08038" lon="0.73606">
        <ele>988.4</ele>
        <time>2022-05-23 11:11:47</time>
      </trkpt>
      <trkpt lat="42.08039" lon="0.73608">
        <ele>988.4</ele>
        <time>2022-05-23 11:11:48</time>
      </trkpt>
      <trkpt lat="42.08039" lon="0.73611">
        <ele>988.6</ele>
        <time>2022-05-23 11:11:49</time>
      </trkpt>
      <trkpt lat="42.08039" lon="0.73614">
        <ele>988.8</ele>
        <time>2022-05-23 11:11:50</time>
      </trkpt>
      <trkpt lat="42.08039" lon="0.73617">
        <ele>989</ele>
        <time>2022-05-23 11:11:51</time>
      </trkpt>
      <trkpt lat="42.0804" lon="0.7362">
        <ele>989.2</ele>
        <time>2022-05-23 11:11:52</time>
      </trkpt>
      <trkpt lat="42.0804" lon="0.73623">
        <ele>989.2</ele>
        <time>2022-05-23 11:11:53</time>
      </trkpt>
      <trkpt lat="42.0804" lon="0.73627">
        <ele>989.4</ele>
        <time>2022-05-23 11:11:54</time>
      </trkpt>
      <trkpt lat="42.0804" lon="0.7363">
        <ele>989.6</ele>
        <time>2022-05-23 11:11:55</time>
      </trkpt>
      <trkpt lat="42.08041" lon="0.73633">
        <ele>989.8</ele>
        <time>2022-05-23 11:11:56</time>
      </trkpt>
      <trkpt lat="42.08041" lon="0.73636">
        <ele>990</ele>
        <time>2022-05-23 11:11:57</time>
      </trkpt>
      <trkpt lat="42.08041" lon="0.7364">
        <ele>990</ele>
        <time>2022-05-23 11:11:58</time>
      </trkpt>
      <trkpt lat="42.08041" lon="0.73643">
        <ele>990.2</ele>
        <time>2022-05-23 11:11:59</time>
      </trkpt>
      <trkpt lat="42.08041" lon="0.73646">
        <ele>990.2</ele>
        <time>2022-05-23 11:12:00</time>
      </trkpt>
      <trkpt lat="42.08041" lon="0.73649">
        <ele>990.4</ele>
        <time>2022-05-23 11:12:01</time>
      </trkpt>
      <trkpt lat="42.08041" lon="0.73653">
        <ele>990.6</ele>
        <time>2022-05-23 11:12:02</time>
      </trkpt>
      <trkpt lat="42.08042" lon="0.73656">
        <ele>990.6</ele>
        <time>2022-05-23 11:12:03</time>
      </trkpt>
      <trkpt lat="42.08043" lon="0.7366">
        <ele>990.8</ele>
        <time>2022-05-23 11:12:04</time>
      </trkpt>
      <trkpt lat="42.08043" lon="0.73663">
        <ele>991</ele>
        <time>2022-05-23 11:12:05</time>
      </trkpt>
      <trkpt lat="42.08043" lon="0.73667">
        <ele>991</ele>
        <time>2022-05-23 11:12:06</time>
      </trkpt>
      <trkpt lat="42.08044" lon="0.7367">
        <ele>991.2</ele>
        <time>2022-05-23 11:12:07</time>
      </trkpt>
      <trkpt lat="42.08044" lon="0.73674">
        <ele>991.4</ele>
        <time>2022-05-23 11:12:08</time>
      </trkpt>
      <trkpt lat="42.08044" lon="0.73678">
        <ele>991.6</ele>
        <time>2022-05-23 11:12:09</time>
      </trkpt>
      <trkpt lat="42.08044" lon="0.73681">
        <ele>991.6</ele>
        <time>2022-05-23 11:12:10</time>
      </trkpt>
      <trkpt lat="42.08044" lon="0.73684">
        <ele>991.8</ele>
        <time>2022-05-23 11:12:11</time>
      </trkpt>
      <trkpt lat="42.08044" lon="0.73687">
        <ele>991.8</ele>
        <time>2022-05-23 11:12:12</time>
      </trkpt>
      <trkpt lat="42.08044" lon="0.7369">
        <ele>992</ele>
        <time>2022-05-23 11:12:13</time>
      </trkpt>
      <trkpt lat="42.08044" lon="0.73693">
        <ele>992.2</ele>
        <time>2022-05-23 11:12:14</time>
      </trkpt>
      <trkpt lat="42.08044" lon="0.73697">
        <ele>992.4</ele>
        <time>2022-05-23 11:12:15</time>
      </trkpt>
      <trkpt lat="42.08044" lon="0.737">
        <ele>992.6</ele>
        <time>2022-05-23 11:12:16</time>
      </trkpt>
      <trkpt lat="42.08044" lon="0.73703">
        <ele>992.8</ele>
        <time>2022-05-23 11:12:17</time>
      </trkpt>
      <trkpt lat="42.08044" lon="0.73706">
        <ele>993.2</ele>
        <time>2022-05-23 11:12:18</time>
      </trkpt>
      <trkpt lat="42.08044" lon="0.73709">
        <ele>993.4</ele>
        <time>2022-05-23 11:12:19</time>
      </trkpt>
      <trkpt lat="42.08044" lon="0.73713">
        <ele>993.6</ele>
        <time>2022-05-23 11:12:20</time>
      </trkpt>
      <trkpt lat="42.08044" lon="0.73716">
        <ele>993.8</ele>
        <time>2022-05-23 11:12:21</time>
      </trkpt>
      <trkpt lat="42.08044" lon="0.7372">
        <ele>993.8</ele>
        <time>2022-05-23 11:12:22</time>
      </trkpt>
      <trkpt lat="42.08043" lon="0.73724">
        <ele>994</ele>
        <time>2022-05-23 11:12:23</time>
      </trkpt>
      <trkpt lat="42.08043" lon="0.73728">
        <ele>994</ele>
        <time>2022-05-23 11:12:24</time>
      </trkpt>
      <trkpt lat="42.08042" lon="0.73731">
        <ele>994.2</ele>
        <time>2022-05-23 11:12:25</time>
      </trkpt>
      <trkpt lat="42.08042" lon="0.73736">
        <ele>994.2</ele>
        <time>2022-05-23 11:12:26</time>
      </trkpt>
      <trkpt lat="42.08042" lon="0.7374">
        <ele>994.2</ele>
        <time>2022-05-23 11:12:27</time>
      </trkpt>
      <trkpt lat="42.08041" lon="0.73744">
        <ele>994.4</ele>
        <time>2022-05-23 11:12:28</time>
      </trkpt>
      <trkpt lat="42.08041" lon="0.73749">
        <ele>994.4</ele>
        <time>2022-05-23 11:12:29</time>
      </trkpt>
      <trkpt lat="42.0804" lon="0.73753">
        <ele>994.4</ele>
        <time>2022-05-23 11:12:30</time>
      </trkpt>
      <trkpt lat="42.08039" lon="0.73758">
        <ele>994.4</ele>
        <time>2022-05-23 11:12:31</time>
      </trkpt>
      <trkpt lat="42.08038" lon="0.73762">
        <ele>994.4</ele>
        <time>2022-05-23 11:12:32</time>
      </trkpt>
      <trkpt lat="42.08038" lon="0.73766">
        <ele>994.6</ele>
        <time>2022-05-23 11:12:33</time>
      </trkpt>
      <trkpt lat="42.08037" lon="0.73771">
        <ele>994.6</ele>
        <time>2022-05-23 11:12:34</time>
      </trkpt>
      <trkpt lat="42.08036" lon="0.73775">
        <ele>994.6</ele>
        <time>2022-05-23 11:12:35</time>
      </trkpt>
      <trkpt lat="42.08036" lon="0.7378">
        <ele>994.6</ele>
        <time>2022-05-23 11:12:36</time>
      </trkpt>
      <trkpt lat="42.08035" lon="0.73784">
        <ele>994.8</ele>
        <time>2022-05-23 11:12:37</time>
      </trkpt>
      <trkpt lat="42.08034" lon="0.73788">
        <ele>994.8</ele>
        <time>2022-05-23 11:12:38</time>
      </trkpt>
      <trkpt lat="42.08033" lon="0.73792">
        <ele>994.8</ele>
        <time>2022-05-23 11:12:39</time>
      </trkpt>
      <trkpt lat="42.08032" lon="0.73796">
        <ele>995</ele>
        <time>2022-05-23 11:12:40</time>
      </trkpt>
      <trkpt lat="42.08032" lon="0.738">
        <ele>995</ele>
        <time>2022-05-23 11:12:41</time>
      </trkpt>
      <trkpt lat="42.08031" lon="0.73804">
        <ele>995.2</ele>
        <time>2022-05-23 11:12:42</time>
      </trkpt>
      <trkpt lat="42.08031" lon="0.73808">
        <ele>995.4</ele>
        <time>2022-05-23 11:12:43</time>
      </trkpt>
      <trkpt lat="42.0803" lon="0.73811">
        <ele>995.4</ele>
        <time>2022-05-23 11:12:44</time>
      </trkpt>
      <trkpt lat="42.08029" lon="0.73815">
        <ele>995.4</ele>
        <time>2022-05-23 11:12:45</time>
      </trkpt>
      <trkpt lat="42.08028" lon="0.73819">
        <ele>995.6</ele>
        <time>2022-05-23 11:12:46</time>
      </trkpt>
      <trkpt lat="42.08028" lon="0.73823">
        <ele>995.6</ele>
        <time>2022-05-23 11:12:47</time>
      </trkpt>
      <trkpt lat="42.08027" lon="0.73827">
        <ele>995.8</ele>
        <time>2022-05-23 11:12:48</time>
      </trkpt>
      <trkpt lat="42.08026" lon="0.73831">
        <ele>995.8</ele>
        <time>2022-05-23 11:12:49</time>
      </trkpt>
      <trkpt lat="42.08026" lon="0.73835">
        <ele>996</ele>
        <time>2022-05-23 11:12:50</time>
      </trkpt>
      <trkpt lat="42.08025" lon="0.73839">
        <ele>996</ele>
        <time>2022-05-23 11:12:51</time>
      </trkpt>
      <trkpt lat="42.08024" lon="0.73843">
        <ele>996.2</ele>
        <time>2022-05-23 11:12:52</time>
      </trkpt>
      <trkpt lat="42.08024" lon="0.73847">
        <ele>996.2</ele>
        <time>2022-05-23 11:12:53</time>
      </trkpt>
      <trkpt lat="42.08023" lon="0.73851">
        <ele>996.4</ele>
        <time>2022-05-23 11:12:54</time>
      </trkpt>
      <trkpt lat="42.08023" lon="0.73855">
        <ele>996.4</ele>
        <time>2022-05-23 11:12:55</time>
      </trkpt>
      <trkpt lat="42.08022" lon="0.73859">
        <ele>996.4</ele>
        <time>2022-05-23 11:12:56</time>
      </trkpt>
      <trkpt lat="42.08022" lon="0.73863">
        <ele>996.4</ele>
        <time>2022-05-23 11:12:57</time>
      </trkpt>
      <trkpt lat="42.08021" lon="0.73867">
        <ele>996.6</ele>
        <time>2022-05-23 11:12:58</time>
      </trkpt>
      <trkpt lat="42.08021" lon="0.73872">
        <ele>996.6</ele>
        <time>2022-05-23 11:12:59</time>
      </trkpt>
      <trkpt lat="42.0802" lon="0.73876">
        <ele>996.6</ele>
        <time>2022-05-23 11:13:00</time>
      </trkpt>
      <trkpt lat="42.0802" lon="0.7388">
        <ele>996.6</ele>
        <time>2022-05-23 11:13:01</time>
      </trkpt>
      <trkpt lat="42.08019" lon="0.73884">
        <ele>996.8</ele>
        <time>2022-05-23 11:13:02</time>
      </trkpt>
      <trkpt lat="42.08018" lon="0.73888">
        <ele>996.8</ele>
        <time>2022-05-23 11:13:03</time>
      </trkpt>
      <trkpt lat="42.08018" lon="0.73892">
        <ele>997</ele>
        <time>2022-05-23 11:13:04</time>
      </trkpt>
      <trkpt lat="42.08017" lon="0.73896">
        <ele>997</ele>
        <time>2022-05-23 11:13:05</time>
      </trkpt>
      <trkpt lat="42.08017" lon="0.739">
        <ele>997.2</ele>
        <time>2022-05-23 11:13:06</time>
      </trkpt>
      <trkpt lat="42.08016" lon="0.73904">
        <ele>997.2</ele>
        <time>2022-05-23 11:13:07</time>
      </trkpt>
      <trkpt lat="42.08015" lon="0.73907">
        <ele>997.4</ele>
        <time>2022-05-23 11:13:08</time>
      </trkpt>
      <trkpt lat="42.08014" lon="0.73911">
        <ele>997.6</ele>
        <time>2022-05-23 11:13:09</time>
      </trkpt>
      <trkpt lat="42.08013" lon="0.73914">
        <ele>997.8</ele>
        <time>2022-05-23 11:13:10</time>
      </trkpt>
      <trkpt lat="42.08011" lon="0.73918">
        <ele>998</ele>
        <time>2022-05-23 11:13:11</time>
      </trkpt>
      <trkpt lat="42.0801" lon="0.73921">
        <ele>998.2</ele>
        <time>2022-05-23 11:13:12</time>
      </trkpt>
      <trkpt lat="42.08008" lon="0.73924">
        <ele>998.6</ele>
        <time>2022-05-23 11:13:13</time>
      </trkpt>
      <trkpt lat="42.08006" lon="0.73927">
        <ele>998.8</ele>
        <time>2022-05-23 11:13:14</time>
      </trkpt>
      <trkpt lat="42.08004" lon="0.7393">
        <ele>999</ele>
        <time>2022-05-23 11:13:15</time>
      </trkpt>
      <trkpt lat="42.08002" lon="0.73933">
        <ele>999.4</ele>
        <time>2022-05-23 11:13:16</time>
      </trkpt>
      <trkpt lat="42.08001" lon="0.73936">
        <ele>999.6</ele>
        <time>2022-05-23 11:13:17</time>
      </trkpt>
      <trkpt lat="42.07999" lon="0.73939">
        <ele>1000</ele>
        <time>2022-05-23 11:13:18</time>
      </trkpt>
      <trkpt lat="42.07997" lon="0.73942">
        <ele>1000.2</ele>
        <time>2022-05-23 11:13:19</time>
      </trkpt>
      <trkpt lat="42.07996" lon="0.73945">
        <ele>1000.4</ele>
        <time>2022-05-23 11:13:20</time>
      </trkpt>
      <trkpt lat="42.07994" lon="0.73948">
        <ele>1000.6</ele>
        <time>2022-05-23 11:13:21</time>
      </trkpt>
      <trkpt lat="42.07992" lon="0.73951">
        <ele>1000.6</ele>
        <time>2022-05-23 11:13:22</time>
      </trkpt>
      <trkpt lat="42.07989" lon="0.73954">
        <ele>1000.8</ele>
        <time>2022-05-23 11:13:23</time>
      </trkpt>
      <trkpt lat="42.07988" lon="0.73958">
        <ele>1001</ele>
        <time>2022-05-23 11:13:24</time>
      </trkpt>
      <trkpt lat="42.07986" lon="0.73961">
        <ele>1001</ele>
        <time>2022-05-23 11:13:25</time>
      </trkpt>
      <trkpt lat="42.07984" lon="0.73964">
        <ele>1001.2</ele>
        <time>2022-05-23 11:13:26</time>
      </trkpt>
      <trkpt lat="42.07982" lon="0.73968">
        <ele>1001.2</ele>
        <time>2022-05-23 11:13:27</time>
      </trkpt>
      <trkpt lat="42.0798" lon="0.73971">
        <ele>1001.4</ele>
        <time>2022-05-23 11:13:28</time>
      </trkpt>
      <trkpt lat="42.07978" lon="0.73975">
        <ele>1001.6</ele>
        <time>2022-05-23 11:13:29</time>
      </trkpt>
      <trkpt lat="42.07976" lon="0.73978">
        <ele>1001.6</ele>
        <time>2022-05-23 11:13:30</time>
      </trkpt>
      <trkpt lat="42.07975" lon="0.73981">
        <ele>1001.8</ele>
        <time>2022-05-23 11:13:31</time>
      </trkpt>
      <trkpt lat="42.07973" lon="0.73984">
        <ele>1002</ele>
        <time>2022-05-23 11:13:32</time>
      </trkpt>
      <trkpt lat="42.07971" lon="0.73987">
        <ele>1002.2</ele>
        <time>2022-05-23 11:13:33</time>
      </trkpt>
      <trkpt lat="42.0797" lon="0.7399">
        <ele>1002.4</ele>
        <time>2022-05-23 11:13:34</time>
      </trkpt>
      <trkpt lat="42.07967" lon="0.73993">
        <ele>1002.6</ele>
        <time>2022-05-23 11:13:35</time>
      </trkpt>
      <trkpt lat="42.07965" lon="0.73995">
        <ele>1002.8</ele>
        <time>2022-05-23 11:13:36</time>
      </trkpt>
      <trkpt lat="42.07964" lon="0.73999">
        <ele>1002.8</ele>
        <time>2022-05-23 11:13:37</time>
      </trkpt>
      <trkpt lat="42.07962" lon="0.74001">
        <ele>1003</ele>
        <time>2022-05-23 11:13:38</time>
      </trkpt>
      <trkpt lat="42.07959" lon="0.74004">
        <ele>1003.2</ele>
        <time>2022-05-23 11:13:39</time>
      </trkpt>
      <trkpt lat="42.07957" lon="0.74008">
        <ele>1003.4</ele>
        <time>2022-05-23 11:13:40</time>
      </trkpt>
      <trkpt lat="42.07956" lon="0.74011">
        <ele>1003.6</ele>
        <time>2022-05-23 11:13:41</time>
      </trkpt>
      <trkpt lat="42.07953" lon="0.74014">
        <ele>1003.6</ele>
        <time>2022-05-23 11:13:42</time>
      </trkpt>
      <trkpt lat="42.07951" lon="0.74018">
        <ele>1003.8</ele>
        <time>2022-05-23 11:13:43</time>
      </trkpt>
      <trkpt lat="42.07949" lon="0.74021">
        <ele>1004</ele>
        <time>2022-05-23 11:13:44</time>
      </trkpt>
      <trkpt lat="42.07948" lon="0.74024">
        <ele>1004.2</ele>
        <time>2022-05-23 11:13:45</time>
      </trkpt>
      <trkpt lat="42.07946" lon="0.74027">
        <ele>1004.2</ele>
        <time>2022-05-23 11:13:46</time>
      </trkpt>
      <trkpt lat="42.07945" lon="0.74029">
        <ele>1004.4</ele>
        <time>2022-05-23 11:13:47</time>
      </trkpt>
      <trkpt lat="42.07943" lon="0.74032">
        <ele>1004.6</ele>
        <time>2022-05-23 11:13:48</time>
      </trkpt>
      <trkpt lat="42.07942" lon="0.74035">
        <ele>1004.8</ele>
        <time>2022-05-23 11:13:49</time>
      </trkpt>
      <trkpt lat="42.0794" lon="0.74037">
        <ele>1005</ele>
        <time>2022-05-23 11:13:50</time>
      </trkpt>
      <trkpt lat="42.07938" lon="0.7404">
        <ele>1005.2</ele>
        <time>2022-05-23 11:13:51</time>
      </trkpt>
      <trkpt lat="42.07937" lon="0.74042">
        <ele>1005.4</ele>
        <time>2022-05-23 11:13:52</time>
      </trkpt>
      <trkpt lat="42.07936" lon="0.74045">
        <ele>1005.6</ele>
        <time>2022-05-23 11:13:53</time>
      </trkpt>
      <trkpt lat="42.07935" lon="0.74047">
        <ele>1005.8</ele>
        <time>2022-05-23 11:13:54</time>
      </trkpt>
      <trkpt lat="42.07934" lon="0.74049">
        <ele>1006</ele>
        <time>2022-05-23 11:13:55</time>
      </trkpt>
      <trkpt lat="42.07933" lon="0.74051">
        <ele>1006.2</ele>
        <time>2022-05-23 11:13:56</time>
      </trkpt>
      <trkpt lat="42.07932" lon="0.74053">
        <ele>1006.4</ele>
        <time>2022-05-23 11:13:57</time>
      </trkpt>
      <trkpt lat="42.0793" lon="0.74055">
        <ele>1006.6</ele>
        <time>2022-05-23 11:13:58</time>
      </trkpt>
      <trkpt lat="42.07929" lon="0.74056">
        <ele>1006.6</ele>
        <time>2022-05-23 11:13:59</time>
      </trkpt>
      <trkpt lat="42.07928" lon="0.74058">
        <ele>1006.8</ele>
        <time>2022-05-23 11:14:00</time>
      </trkpt>
      <trkpt lat="42.07928" lon="0.7406">
        <ele>1007</ele>
        <time>2022-05-23 11:14:01</time>
      </trkpt>
      <trkpt lat="42.07927" lon="0.74063">
        <ele>1007.2</ele>
        <time>2022-05-23 11:14:02</time>
      </trkpt>
      <trkpt lat="42.07926" lon="0.74065">
        <ele>1007.4</ele>
        <time>2022-05-23 11:14:03</time>
      </trkpt>
      <trkpt lat="42.07925" lon="0.74067">
        <ele>1007.6</ele>
        <time>2022-05-23 11:14:04</time>
      </trkpt>
      <trkpt lat="42.07924" lon="0.74069">
        <ele>1007.6</ele>
        <time>2022-05-23 11:14:05</time>
      </trkpt>
      <trkpt lat="42.07923" lon="0.74071">
        <ele>1007.8</ele>
        <time>2022-05-23 11:14:06</time>
      </trkpt>
      <trkpt lat="42.07922" lon="0.74073">
        <ele>1008</ele>
        <time>2022-05-23 11:14:07</time>
      </trkpt>
      <trkpt lat="42.07921" lon="0.74075">
        <ele>1008</ele>
        <time>2022-05-23 11:14:08</time>
      </trkpt>
      <trkpt lat="42.07919" lon="0.74077">
        <ele>1008.2</ele>
        <time>2022-05-23 11:14:09</time>
      </trkpt>
      <trkpt lat="42.07918" lon="0.74079">
        <ele>1008.4</ele>
        <time>2022-05-23 11:14:10</time>
      </trkpt>
      <trkpt lat="42.07917" lon="0.74081">
        <ele>1008.6</ele>
        <time>2022-05-23 11:14:11</time>
      </trkpt>
      <trkpt lat="42.07916" lon="0.74083">
        <ele>1008.8</ele>
        <time>2022-05-23 11:14:12</time>
      </trkpt>
      <trkpt lat="42.07914" lon="0.74086">
        <ele>1008.8</ele>
        <time>2022-05-23 11:14:13</time>
      </trkpt>
      <trkpt lat="42.07913" lon="0.74088">
        <ele>1009</ele>
        <time>2022-05-23 11:14:14</time>
      </trkpt>
      <trkpt lat="42.07912" lon="0.7409">
        <ele>1009.2</ele>
        <time>2022-05-23 11:14:15</time>
      </trkpt>
      <trkpt lat="42.07912" lon="0.74093">
        <ele>1009.4</ele>
        <time>2022-05-23 11:14:16</time>
      </trkpt>
      <trkpt lat="42.07911" lon="0.74095">
        <ele>1009.6</ele>
        <time>2022-05-23 11:14:17</time>
      </trkpt>
      <trkpt lat="42.07909" lon="0.74098">
        <ele>1009.6</ele>
        <time>2022-05-23 11:14:18</time>
      </trkpt>
      <trkpt lat="42.07909" lon="0.741">
        <ele>1009.8</ele>
        <time>2022-05-23 11:14:19</time>
      </trkpt>
      <trkpt lat="42.07908" lon="0.74103">
        <ele>1010</ele>
        <time>2022-05-23 11:14:20</time>
      </trkpt>
      <trkpt lat="42.07907" lon="0.74105">
        <ele>1010</ele>
        <time>2022-05-23 11:14:21</time>
      </trkpt>
      <trkpt lat="42.07907" lon="0.74108">
        <ele>1010.2</ele>
        <time>2022-05-23 11:14:22</time>
      </trkpt>
      <trkpt lat="42.07906" lon="0.7411">
        <ele>1010.6</ele>
        <time>2022-05-23 11:14:23</time>
      </trkpt>
      <trkpt lat="42.07905" lon="0.74113">
        <ele>1010.8</ele>
        <time>2022-05-23 11:14:24</time>
      </trkpt>
      <trkpt lat="42.07904" lon="0.74116">
        <ele>1010.8</ele>
        <time>2022-05-23 11:14:25</time>
      </trkpt>
      <trkpt lat="42.07903" lon="0.74119">
        <ele>1011</ele>
        <time>2022-05-23 11:14:26</time>
      </trkpt>
      <trkpt lat="42.07903" lon="0.74121">
        <ele>1011.2</ele>
        <time>2022-05-23 11:14:27</time>
      </trkpt>
      <trkpt lat="42.07902" lon="0.74124">
        <ele>1011.4</ele>
        <time>2022-05-23 11:14:28</time>
      </trkpt>
      <trkpt lat="42.07901" lon="0.74127">
        <ele>1011.6</ele>
        <time>2022-05-23 11:14:29</time>
      </trkpt>
      <trkpt lat="42.07901" lon="0.74129">
        <ele>1011.8</ele>
        <time>2022-05-23 11:14:30</time>
      </trkpt>
      <trkpt lat="42.079" lon="0.74132">
        <ele>1012</ele>
        <time>2022-05-23 11:14:31</time>
      </trkpt>
      <trkpt lat="42.07899" lon="0.74135">
        <ele>1012.2</ele>
        <time>2022-05-23 11:14:32</time>
      </trkpt>
      <trkpt lat="42.07899" lon="0.74137">
        <ele>1012.4</ele>
        <time>2022-05-23 11:14:33</time>
      </trkpt>
      <trkpt lat="42.07898" lon="0.7414">
        <ele>1012.4</ele>
        <time>2022-05-23 11:14:34</time>
      </trkpt>
      <trkpt lat="42.07898" lon="0.74143">
        <ele>1012.6</ele>
        <time>2022-05-23 11:14:35</time>
      </trkpt>
      <trkpt lat="42.07898" lon="0.74145">
        <ele>1012.8</ele>
        <time>2022-05-23 11:14:36</time>
      </trkpt>
      <trkpt lat="42.07897" lon="0.74148">
        <ele>1012.8</ele>
        <time>2022-05-23 11:14:37</time>
      </trkpt>
      <trkpt lat="42.07896" lon="0.7415">
        <ele>1013</ele>
        <time>2022-05-23 11:14:38</time>
      </trkpt>
      <trkpt lat="42.07896" lon="0.74153">
        <ele>1013</ele>
        <time>2022-05-23 11:14:39</time>
      </trkpt>
      <trkpt lat="42.07895" lon="0.74156">
        <ele>1013.2</ele>
        <time>2022-05-23 11:14:40</time>
      </trkpt>
      <trkpt lat="42.07894" lon="0.74158">
        <ele>1013.4</ele>
        <time>2022-05-23 11:14:41</time>
      </trkpt>
      <trkpt lat="42.07894" lon="0.74161">
        <ele>1013.6</ele>
        <time>2022-05-23 11:14:42</time>
      </trkpt>
      <trkpt lat="42.07893" lon="0.74164">
        <ele>1013.6</ele>
        <time>2022-05-23 11:14:43</time>
      </trkpt>
      <trkpt lat="42.07892" lon="0.74167">
        <ele>1013.8</ele>
        <time>2022-05-23 11:14:44</time>
      </trkpt>
      <trkpt lat="42.07892" lon="0.74169">
        <ele>1014</ele>
        <time>2022-05-23 11:14:45</time>
      </trkpt>
      <trkpt lat="42.07891" lon="0.74172">
        <ele>1014</ele>
        <time>2022-05-23 11:14:46</time>
      </trkpt>
      <trkpt lat="42.0789" lon="0.74175">
        <ele>1014.2</ele>
        <time>2022-05-23 11:14:47</time>
      </trkpt>
      <trkpt lat="42.0789" lon="0.74179">
        <ele>1014.2</ele>
        <time>2022-05-23 11:14:48</time>
      </trkpt>
      <trkpt lat="42.07889" lon="0.74182">
        <ele>1014.4</ele>
        <time>2022-05-23 11:14:49</time>
      </trkpt>
      <trkpt lat="42.07888" lon="0.74185">
        <ele>1014.6</ele>
        <time>2022-05-23 11:14:50</time>
      </trkpt>
      <trkpt lat="42.07888" lon="0.74188">
        <ele>1014.6</ele>
        <time>2022-05-23 11:14:51</time>
      </trkpt>
      <trkpt lat="42.07887" lon="0.74192">
        <ele>1014.8</ele>
        <time>2022-05-23 11:14:52</time>
      </trkpt>
      <trkpt lat="42.07887" lon="0.74195">
        <ele>1014.8</ele>
        <time>2022-05-23 11:14:53</time>
      </trkpt>
      <trkpt lat="42.07886" lon="0.74198">
        <ele>1015</ele>
        <time>2022-05-23 11:14:54</time>
      </trkpt>
      <trkpt lat="42.07885" lon="0.74202">
        <ele>1015</ele>
        <time>2022-05-23 11:14:55</time>
      </trkpt>
      <trkpt lat="42.07884" lon="0.74205">
        <ele>1015.2</ele>
        <time>2022-05-23 11:14:56</time>
      </trkpt>
      <trkpt lat="42.07883" lon="0.74208">
        <ele>1015.2</ele>
        <time>2022-05-23 11:14:57</time>
      </trkpt>
      <trkpt lat="42.07883" lon="0.74212">
        <ele>1015.4</ele>
        <time>2022-05-23 11:14:58</time>
      </trkpt>
      <trkpt lat="42.07882" lon="0.74215">
        <ele>1015.4</ele>
        <time>2022-05-23 11:14:59</time>
      </trkpt>
      <trkpt lat="42.07881" lon="0.74218">
        <ele>1015.6</ele>
        <time>2022-05-23 11:15:00</time>
      </trkpt>
      <trkpt lat="42.0788" lon="0.74221">
        <ele>1015.6</ele>
        <time>2022-05-23 11:15:01</time>
      </trkpt>
      <trkpt lat="42.07878" lon="0.74224">
        <ele>1015.8</ele>
        <time>2022-05-23 11:15:02</time>
      </trkpt>
      <trkpt lat="42.07877" lon="0.74227">
        <ele>1015.8</ele>
        <time>2022-05-23 11:15:03</time>
      </trkpt>
      <trkpt lat="42.07876" lon="0.74229">
        <ele>1016</ele>
        <time>2022-05-23 11:15:04</time>
      </trkpt>
      <trkpt lat="42.07875" lon="0.74232">
        <ele>1016</ele>
        <time>2022-05-23 11:15:05</time>
      </trkpt>
      <trkpt lat="42.07874" lon="0.74235">
        <ele>1016.2</ele>
        <time>2022-05-23 11:15:06</time>
      </trkpt>
      <trkpt lat="42.07873" lon="0.74238">
        <ele>1016.2</ele>
        <time>2022-05-23 11:15:07</time>
      </trkpt>
      <trkpt lat="42.07873" lon="0.74241">
        <ele>1016.2</ele>
        <time>2022-05-23 11:15:08</time>
      </trkpt>
      <trkpt lat="42.07872" lon="0.74244">
        <ele>1016.4</ele>
        <time>2022-05-23 11:15:09</time>
      </trkpt>
      <trkpt lat="42.07872" lon="0.74248">
        <ele>1016.4</ele>
        <time>2022-05-23 11:15:10</time>
      </trkpt>
      <trkpt lat="42.07871" lon="0.74251">
        <ele>1016.6</ele>
        <time>2022-05-23 11:15:11</time>
      </trkpt>
      <trkpt lat="42.0787" lon="0.74253">
        <ele>1016.8</ele>
        <time>2022-05-23 11:15:12</time>
      </trkpt>
      <trkpt lat="42.07869" lon="0.74256">
        <ele>1016.8</ele>
        <time>2022-05-23 11:15:13</time>
      </trkpt>
      <trkpt lat="42.07868" lon="0.7426">
        <ele>1017</ele>
        <time>2022-05-23 11:15:14</time>
      </trkpt>
      <trkpt lat="42.07867" lon="0.74263">
        <ele>1017</ele>
        <time>2022-05-23 11:15:15</time>
      </trkpt>
      <trkpt lat="42.07866" lon="0.74266">
        <ele>1017.2</ele>
        <time>2022-05-23 11:15:16</time>
      </trkpt>
      <trkpt lat="42.07865" lon="0.74269">
        <ele>1017.2</ele>
        <time>2022-05-23 11:15:17</time>
      </trkpt>
      <trkpt lat="42.07863" lon="0.74272">
        <ele>1017.2</ele>
        <time>2022-05-23 11:15:18</time>
      </trkpt>
      <trkpt lat="42.07862" lon="0.74275">
        <ele>1017.4</ele>
        <time>2022-05-23 11:15:19</time>
      </trkpt>
      <trkpt lat="42.07861" lon="0.74278">
        <ele>1017.4</ele>
        <time>2022-05-23 11:15:20</time>
      </trkpt>
      <trkpt lat="42.0786" lon="0.74281">
        <ele>1017.6</ele>
        <time>2022-05-23 11:15:21</time>
      </trkpt>
      <trkpt lat="42.07858" lon="0.74284">
        <ele>1017.6</ele>
        <time>2022-05-23 11:15:22</time>
      </trkpt>
      <trkpt lat="42.07857" lon="0.74286">
        <ele>1017.8</ele>
        <time>2022-05-23 11:15:23</time>
      </trkpt>
      <trkpt lat="42.07856" lon="0.74289">
        <ele>1018</ele>
        <time>2022-05-23 11:15:24</time>
      </trkpt>
      <trkpt lat="42.07854" lon="0.74292">
        <ele>1018</ele>
        <time>2022-05-23 11:15:25</time>
      </trkpt>
      <trkpt lat="42.07853" lon="0.74295">
        <ele>1018.2</ele>
        <time>2022-05-23 11:15:26</time>
      </trkpt>
      <trkpt lat="42.07852" lon="0.74297">
        <ele>1018.2</ele>
        <time>2022-05-23 11:15:27</time>
      </trkpt>
      <trkpt lat="42.07851" lon="0.74301">
        <ele>1018.4</ele>
        <time>2022-05-23 11:15:28</time>
      </trkpt>
      <trkpt lat="42.07849" lon="0.74304">
        <ele>1018.6</ele>
        <time>2022-05-23 11:15:29</time>
      </trkpt>
      <trkpt lat="42.07848" lon="0.74307">
        <ele>1018.8</ele>
        <time>2022-05-23 11:15:30</time>
      </trkpt>
      <trkpt lat="42.07847" lon="0.74309">
        <ele>1019</ele>
        <time>2022-05-23 11:15:31</time>
      </trkpt>
      <trkpt lat="42.07846" lon="0.74311">
        <ele>1019.2</ele>
        <time>2022-05-23 11:15:32</time>
      </trkpt>
      <trkpt lat="42.07845" lon="0.74315">
        <ele>1019.4</ele>
        <time>2022-05-23 11:15:33</time>
      </trkpt>
      <trkpt lat="42.07843" lon="0.74317">
        <ele>1019.6</ele>
        <time>2022-05-23 11:15:34</time>
      </trkpt>
      <trkpt lat="42.07842" lon="0.7432">
        <ele>1019.8</ele>
        <time>2022-05-23 11:15:35</time>
      </trkpt>
      <trkpt lat="42.07841" lon="0.74323">
        <ele>1020</ele>
        <time>2022-05-23 11:15:36</time>
      </trkpt>
      <trkpt lat="42.0784" lon="0.74326">
        <ele>1020.2</ele>
        <time>2022-05-23 11:15:37</time>
      </trkpt>
      <trkpt lat="42.0784" lon="0.74329">
        <ele>1020.2</ele>
        <time>2022-05-23 11:15:38</time>
      </trkpt>
      <trkpt lat="42.07839" lon="0.7433">
        <ele>1020.4</ele>
        <time>2022-05-23 11:15:39</time>
      </trkpt>
      <trkpt lat="42.07839" lon="0.74332">
        <ele>1020.4</ele>
        <time>2022-05-23 11:15:40</time>
      </trkpt>
      <trkpt lat="42.07838" lon="0.74337">
        <ele>1020.8</ele>
        <time>2022-05-23 11:15:41</time>
      </trkpt>
      <trkpt lat="42.07837" lon="0.7434">
        <ele>1020.8</ele>
        <time>2022-05-23 11:15:42</time>
      </trkpt>
      <trkpt lat="42.07836" lon="0.74342">
        <ele>1021</ele>
        <time>2022-05-23 11:15:43</time>
      </trkpt>
      <trkpt lat="42.07835" lon="0.74345">
        <ele>1021.2</ele>
        <time>2022-05-23 11:15:44</time>
      </trkpt>
      <trkpt lat="42.07835" lon="0.74348">
        <ele>1021.4</ele>
        <time>2022-05-23 11:15:45</time>
      </trkpt>
      <trkpt lat="42.07833" lon="0.7435">
        <ele>1021.4</ele>
        <time>2022-05-23 11:15:46</time>
      </trkpt>
      <trkpt lat="42.07832" lon="0.74353">
        <ele>1021.6</ele>
        <time>2022-05-23 11:15:47</time>
      </trkpt>
      <trkpt lat="42.07831" lon="0.74355">
        <ele>1021.8</ele>
        <time>2022-05-23 11:15:48</time>
      </trkpt>
      <trkpt lat="42.07829" lon="0.74354">
        <ele>1021.8</ele>
        <time>2022-05-23 11:15:49</time>
      </trkpt>
      <trkpt lat="42.07828" lon="0.74353">
        <ele>1022</ele>
        <time>2022-05-23 11:15:50</time>
      </trkpt>
      <trkpt lat="42.07827" lon="0.74352">
        <ele>1022.2</ele>
        <time>2022-05-23 11:15:51</time>
      </trkpt>
      <trkpt lat="42.07827" lon="0.7435">
        <ele>1022.2</ele>
        <time>2022-05-23 11:15:52</time>
      </trkpt>
      <trkpt lat="42.07827" lon="0.74348">
        <ele>1022.4</ele>
        <time>2022-05-23 11:15:53</time>
      </trkpt>
      <trkpt lat="42.07828" lon="0.74345">
        <ele>1022.4</ele>
        <time>2022-05-23 11:15:54</time>
      </trkpt>
      <trkpt lat="42.07828" lon="0.74342">
        <ele>1022.6</ele>
        <time>2022-05-23 11:15:55</time>
      </trkpt>
      <trkpt lat="42.07828" lon="0.7434">
        <ele>1022.8</ele>
        <time>2022-05-23 11:15:56</time>
      </trkpt>
      <trkpt lat="42.07829" lon="0.74337">
        <ele>1023</ele>
        <time>2022-05-23 11:15:57</time>
      </trkpt>
      <trkpt lat="42.07829" lon="0.74334">
        <ele>1023</ele>
        <time>2022-05-23 11:15:58</time>
      </trkpt>
      <trkpt lat="42.07829" lon="0.7433">
        <ele>1023.4</ele>
        <time>2022-05-23 11:15:59</time>
      </trkpt>
      <trkpt lat="42.07829" lon="0.74327">
        <ele>1023.6</ele>
        <time>2022-05-23 11:16:00</time>
      </trkpt>
      <trkpt lat="42.07828" lon="0.74324">
        <ele>1023.8</ele>
        <time>2022-05-23 11:16:01</time>
      </trkpt>
      <trkpt lat="42.07828" lon="0.74322">
        <ele>1023.8</ele>
        <time>2022-05-23 11:16:02</time>
      </trkpt>
      <trkpt lat="42.07828" lon="0.74319">
        <ele>1024</ele>
        <time>2022-05-23 11:16:03</time>
      </trkpt>
      <trkpt lat="42.07828" lon="0.74316">
        <ele>1024.2</ele>
        <time>2022-05-23 11:16:04</time>
      </trkpt>
      <trkpt lat="42.07827" lon="0.74314">
        <ele>1024.2</ele>
        <time>2022-05-23 11:16:05</time>
      </trkpt>
      <trkpt lat="42.07827" lon="0.74311">
        <ele>1024.4</ele>
        <time>2022-05-23 11:16:06</time>
      </trkpt>
      <trkpt lat="42.07827" lon="0.74308">
        <ele>1024.4</ele>
        <time>2022-05-23 11:16:07</time>
      </trkpt>
      <trkpt lat="42.07827" lon="0.74306">
        <ele>1024.6</ele>
        <time>2022-05-23 11:16:08</time>
      </trkpt>
      <trkpt lat="42.07827" lon="0.74303">
        <ele>1024.8</ele>
        <time>2022-05-23 11:16:09</time>
      </trkpt>
      <trkpt lat="42.07827" lon="0.743">
        <ele>1025</ele>
        <time>2022-05-23 11:16:10</time>
      </trkpt>
      <trkpt lat="42.07827" lon="0.74298">
        <ele>1025</ele>
        <time>2022-05-23 11:16:11</time>
      </trkpt>
      <trkpt lat="42.07827" lon="0.74295">
        <ele>1025.2</ele>
        <time>2022-05-23 11:16:12</time>
      </trkpt>
      <trkpt lat="42.07826" lon="0.74292">
        <ele>1025.2</ele>
        <time>2022-05-23 11:16:13</time>
      </trkpt>
      <trkpt lat="42.07826" lon="0.7429">
        <ele>1025.4</ele>
        <time>2022-05-23 11:16:14</time>
      </trkpt>
      <trkpt lat="42.07825" lon="0.74287">
        <ele>1025.4</ele>
        <time>2022-05-23 11:16:15</time>
      </trkpt>
      <trkpt lat="42.07825" lon="0.74285">
        <ele>1025.6</ele>
        <time>2022-05-23 11:16:16</time>
      </trkpt>
      <trkpt lat="42.07825" lon="0.74283">
        <ele>1025.6</ele>
        <time>2022-05-23 11:16:17</time>
      </trkpt>
      <trkpt lat="42.07825" lon="0.7428">
        <ele>1025.8</ele>
        <time>2022-05-23 11:16:18</time>
      </trkpt>
      <trkpt lat="42.07825" lon="0.74277">
        <ele>1025.8</ele>
        <time>2022-05-23 11:16:19</time>
      </trkpt>
      <trkpt lat="42.07825" lon="0.74275">
        <ele>1026</ele>
        <time>2022-05-23 11:16:20</time>
      </trkpt>
      <trkpt lat="42.07825" lon="0.74273">
        <ele>1026.2</ele>
        <time>2022-05-23 11:16:21</time>
      </trkpt>
      <trkpt lat="42.07825" lon="0.7427">
        <ele>1026.2</ele>
        <time>2022-05-23 11:16:22</time>
      </trkpt>
      <trkpt lat="42.07825" lon="0.74268">
        <ele>1026.4</ele>
        <time>2022-05-23 11:16:23</time>
      </trkpt>
      <trkpt lat="42.07825" lon="0.74266">
        <ele>1026.4</ele>
        <time>2022-05-23 11:16:24</time>
      </trkpt>
      <trkpt lat="42.07824" lon="0.74263">
        <ele>1026.6</ele>
        <time>2022-05-23 11:16:25</time>
      </trkpt>
      <trkpt lat="42.07824" lon="0.74261">
        <ele>1026.6</ele>
        <time>2022-05-23 11:16:26</time>
      </trkpt>
      <trkpt lat="42.07824" lon="0.74258">
        <ele>1026.6</ele>
        <time>2022-05-23 11:16:27</time>
      </trkpt>
      <trkpt lat="42.07824" lon="0.74256">
        <ele>1026.8</ele>
        <time>2022-05-23 11:16:28</time>
      </trkpt>
      <trkpt lat="42.07824" lon="0.74253">
        <ele>1026.8</ele>
        <time>2022-05-23 11:16:29</time>
      </trkpt>
      <trkpt lat="42.07823" lon="0.7425">
        <ele>1027</ele>
        <time>2022-05-23 11:16:30</time>
      </trkpt>
      <trkpt lat="42.07823" lon="0.74248">
        <ele>1027.2</ele>
        <time>2022-05-23 11:16:31</time>
      </trkpt>
      <trkpt lat="42.07823" lon="0.74245">
        <ele>1027.4</ele>
        <time>2022-05-23 11:16:32</time>
      </trkpt>
      <trkpt lat="42.07823" lon="0.74242">
        <ele>1027.4</ele>
        <time>2022-05-23 11:16:33</time>
      </trkpt>
      <trkpt lat="42.07823" lon="0.7424">
        <ele>1027.6</ele>
        <time>2022-05-23 11:16:34</time>
      </trkpt>
      <trkpt lat="42.07823" lon="0.74237">
        <ele>1027.8</ele>
        <time>2022-05-23 11:16:35</time>
      </trkpt>
      <trkpt lat="42.07823" lon="0.74234">
        <ele>1028</ele>
        <time>2022-05-23 11:16:36</time>
      </trkpt>
      <trkpt lat="42.07823" lon="0.74232">
        <ele>1028.2</ele>
        <time>2022-05-23 11:16:37</time>
      </trkpt>
      <trkpt lat="42.07823" lon="0.74229">
        <ele>1028.2</ele>
        <time>2022-05-23 11:16:38</time>
      </trkpt>
      <trkpt lat="42.07823" lon="0.74226">
        <ele>1028.4</ele>
        <time>2022-05-23 11:16:39</time>
      </trkpt>
      <trkpt lat="42.07824" lon="0.74223">
        <ele>1028.6</ele>
        <time>2022-05-23 11:16:40</time>
      </trkpt>
      <trkpt lat="42.07824" lon="0.7422">
        <ele>1028.8</ele>
        <time>2022-05-23 11:16:41</time>
      </trkpt>
      <trkpt lat="42.07824" lon="0.74218">
        <ele>1028.8</ele>
        <time>2022-05-23 11:16:42</time>
      </trkpt>
      <trkpt lat="42.07824" lon="0.74215">
        <ele>1029</ele>
        <time>2022-05-23 11:16:43</time>
      </trkpt>
      <trkpt lat="42.07824" lon="0.74213">
        <ele>1029.2</ele>
        <time>2022-05-23 11:16:44</time>
      </trkpt>
      <trkpt lat="42.07824" lon="0.7421">
        <ele>1029.4</ele>
        <time>2022-05-23 11:16:45</time>
      </trkpt>
      <trkpt lat="42.07824" lon="0.74208">
        <ele>1029.4</ele>
        <time>2022-05-23 11:16:46</time>
      </trkpt>
      <trkpt lat="42.07824" lon="0.74205">
        <ele>1029.6</ele>
        <time>2022-05-23 11:16:47</time>
      </trkpt>
      <trkpt lat="42.07824" lon="0.74203">
        <ele>1029.6</ele>
        <time>2022-05-23 11:16:48</time>
      </trkpt>
      <trkpt lat="42.07824" lon="0.74201">
        <ele>1029.8</ele>
        <time>2022-05-23 11:16:49</time>
      </trkpt>
      <trkpt lat="42.07824" lon="0.74198">
        <ele>1030</ele>
        <time>2022-05-23 11:16:50</time>
      </trkpt>
      <trkpt lat="42.07824" lon="0.74195">
        <ele>1030</ele>
        <time>2022-05-23 11:16:51</time>
      </trkpt>
      <trkpt lat="42.07824" lon="0.74193">
        <ele>1030.2</ele>
        <time>2022-05-23 11:16:52</time>
      </trkpt>
      <trkpt lat="42.07824" lon="0.7419">
        <ele>1030.4</ele>
        <time>2022-05-23 11:16:53</time>
      </trkpt>
      <trkpt lat="42.07824" lon="0.74188">
        <ele>1030.4</ele>
        <time>2022-05-23 11:16:54</time>
      </trkpt>
      <trkpt lat="42.07824" lon="0.74185">
        <ele>1030.6</ele>
        <time>2022-05-23 11:16:55</time>
      </trkpt>
      <trkpt lat="42.07824" lon="0.74182">
        <ele>1030.8</ele>
        <time>2022-05-23 11:16:56</time>
      </trkpt>
      <trkpt lat="42.07825" lon="0.7418">
        <ele>1031</ele>
        <time>2022-05-23 11:16:57</time>
      </trkpt>
      <trkpt lat="42.07824" lon="0.74178">
        <ele>1031.2</ele>
        <time>2022-05-23 11:16:58</time>
      </trkpt>
      <trkpt lat="42.07824" lon="0.74175">
        <ele>1031.2</ele>
        <time>2022-05-23 11:16:59</time>
      </trkpt>
      <trkpt lat="42.07824" lon="0.74173">
        <ele>1031.4</ele>
        <time>2022-05-23 11:17:00</time>
      </trkpt>
      <trkpt lat="42.07824" lon="0.7417">
        <ele>1031.4</ele>
        <time>2022-05-23 11:17:01</time>
      </trkpt>
      <trkpt lat="42.07825" lon="0.74168">
        <ele>1031.6</ele>
        <time>2022-05-23 11:17:02</time>
      </trkpt>
      <trkpt lat="42.07825" lon="0.74165">
        <ele>1031.8</ele>
        <time>2022-05-23 11:17:03</time>
      </trkpt>
      <trkpt lat="42.07825" lon="0.74162">
        <ele>1031.8</ele>
        <time>2022-05-23 11:17:04</time>
      </trkpt>
      <trkpt lat="42.07825" lon="0.74159">
        <ele>1032</ele>
        <time>2022-05-23 11:17:05</time>
      </trkpt>
      <trkpt lat="42.07825" lon="0.74156">
        <ele>1032.2</ele>
        <time>2022-05-23 11:17:06</time>
      </trkpt>
      <trkpt lat="42.07825" lon="0.74153">
        <ele>1032.2</ele>
        <time>2022-05-23 11:17:07</time>
      </trkpt>
      <trkpt lat="42.07825" lon="0.74151">
        <ele>1032.4</ele>
        <time>2022-05-23 11:17:08</time>
      </trkpt>
      <trkpt lat="42.07825" lon="0.74149">
        <ele>1032.6</ele>
        <time>2022-05-23 11:17:09</time>
      </trkpt>
      <trkpt lat="42.07826" lon="0.74146">
        <ele>1032.8</ele>
        <time>2022-05-23 11:17:10</time>
      </trkpt>
      <trkpt lat="42.07825" lon="0.74143">
        <ele>1032.8</ele>
        <time>2022-05-23 11:17:11</time>
      </trkpt>
      <trkpt lat="42.07825" lon="0.7414">
        <ele>1033</ele>
        <time>2022-05-23 11:17:12</time>
      </trkpt>
      <trkpt lat="42.07825" lon="0.74138">
        <ele>1033.2</ele>
        <time>2022-05-23 11:17:13</time>
      </trkpt>
      <trkpt lat="42.07825" lon="0.74136">
        <ele>1033.2</ele>
        <time>2022-05-23 11:17:14</time>
      </trkpt>
      <trkpt lat="42.07825" lon="0.74133">
        <ele>1033.4</ele>
        <time>2022-05-23 11:17:15</time>
      </trkpt>
      <trkpt lat="42.07826" lon="0.74131">
        <ele>1033.6</ele>
        <time>2022-05-23 11:17:16</time>
      </trkpt>
      <trkpt lat="42.07826" lon="0.74129">
        <ele>1033.6</ele>
        <time>2022-05-23 11:17:17</time>
      </trkpt>
      <trkpt lat="42.07825" lon="0.74126">
        <ele>1033.8</ele>
        <time>2022-05-23 11:17:18</time>
      </trkpt>
      <trkpt lat="42.07825" lon="0.74124">
        <ele>1034</ele>
        <time>2022-05-23 11:17:19</time>
      </trkpt>
      <trkpt lat="42.07825" lon="0.74122">
        <ele>1034.2</ele>
        <time>2022-05-23 11:17:20</time>
      </trkpt>
      <trkpt lat="42.07826" lon="0.7412">
        <ele>1034.2</ele>
        <time>2022-05-23 11:17:21</time>
      </trkpt>
      <trkpt lat="42.07826" lon="0.74118">
        <ele>1034.4</ele>
        <time>2022-05-23 11:17:22</time>
      </trkpt>
      <trkpt lat="42.07826" lon="0.74115">
        <ele>1034.4</ele>
        <time>2022-05-23 11:17:23</time>
      </trkpt>
      <trkpt lat="42.07826" lon="0.74113">
        <ele>1034.6</ele>
        <time>2022-05-23 11:17:24</time>
      </trkpt>
      <trkpt lat="42.07827" lon="0.7411">
        <ele>1034.8</ele>
        <time>2022-05-23 11:17:25</time>
      </trkpt>
      <trkpt lat="42.07827" lon="0.74108">
        <ele>1035</ele>
        <time>2022-05-23 11:17:26</time>
      </trkpt>
      <trkpt lat="42.07827" lon="0.74105">
        <ele>1035.2</ele>
        <time>2022-05-23 11:17:27</time>
      </trkpt>
      <trkpt lat="42.07826" lon="0.74103">
        <ele>1035.4</ele>
        <time>2022-05-23 11:17:28</time>
      </trkpt>
      <trkpt lat="42.07826" lon="0.741">
        <ele>1035.6</ele>
        <time>2022-05-23 11:17:29</time>
      </trkpt>
      <trkpt lat="42.07826" lon="0.74098">
        <ele>1035.6</ele>
        <time>2022-05-23 11:17:30</time>
      </trkpt>
      <trkpt lat="42.07825" lon="0.74096">
        <ele>1035.8</ele>
        <time>2022-05-23 11:17:31</time>
      </trkpt>
      <trkpt lat="42.07825" lon="0.74093">
        <ele>1036</ele>
        <time>2022-05-23 11:17:32</time>
      </trkpt>
      <trkpt lat="42.07825" lon="0.74091">
        <ele>1036.2</ele>
        <time>2022-05-23 11:17:33</time>
      </trkpt>
      <trkpt lat="42.07825" lon="0.74089">
        <ele>1036.2</ele>
        <time>2022-05-23 11:17:34</time>
      </trkpt>
      <trkpt lat="42.07824" lon="0.74086">
        <ele>1036.4</ele>
        <time>2022-05-23 11:17:35</time>
      </trkpt>
      <trkpt lat="42.07824" lon="0.74084">
        <ele>1036.6</ele>
        <time>2022-05-23 11:17:36</time>
      </trkpt>
      <trkpt lat="42.07824" lon="0.74082">
        <ele>1036.8</ele>
        <time>2022-05-23 11:17:37</time>
      </trkpt>
      <trkpt lat="42.07824" lon="0.74079">
        <ele>1036.8</ele>
        <time>2022-05-23 11:17:38</time>
      </trkpt>
      <trkpt lat="42.07823" lon="0.74077">
        <ele>1037</ele>
        <time>2022-05-23 11:17:39</time>
      </trkpt>
      <trkpt lat="42.07823" lon="0.74075">
        <ele>1037</ele>
        <time>2022-05-23 11:17:40</time>
      </trkpt>
      <trkpt lat="42.07823" lon="0.74072">
        <ele>1037.2</ele>
        <time>2022-05-23 11:17:41</time>
      </trkpt>
      <trkpt lat="42.07822" lon="0.7407">
        <ele>1037.4</ele>
        <time>2022-05-23 11:17:42</time>
      </trkpt>
      <trkpt lat="42.07822" lon="0.74067">
        <ele>1037.6</ele>
        <time>2022-05-23 11:17:43</time>
      </trkpt>
      <trkpt lat="42.07822" lon="0.74065">
        <ele>1037.8</ele>
        <time>2022-05-23 11:17:44</time>
      </trkpt>
      <trkpt lat="42.07821" lon="0.74063">
        <ele>1037.8</ele>
        <time>2022-05-23 11:17:45</time>
      </trkpt>
      <trkpt lat="42.07821" lon="0.7406">
        <ele>1038</ele>
        <time>2022-05-23 11:17:46</time>
      </trkpt>
      <trkpt lat="42.07821" lon="0.74058">
        <ele>1038</ele>
        <time>2022-05-23 11:17:47</time>
      </trkpt>
      <trkpt lat="42.07821" lon="0.74055">
        <ele>1038.2</ele>
        <time>2022-05-23 11:17:48</time>
      </trkpt>
      <trkpt lat="42.0782" lon="0.74053">
        <ele>1038.2</ele>
        <time>2022-05-23 11:17:49</time>
      </trkpt>
      <trkpt lat="42.0782" lon="0.7405">
        <ele>1038.2</ele>
        <time>2022-05-23 11:17:50</time>
      </trkpt>
      <trkpt lat="42.0782" lon="0.74048">
        <ele>1038.4</ele>
        <time>2022-05-23 11:17:51</time>
      </trkpt>
      <trkpt lat="42.07819" lon="0.74045">
        <ele>1038.6</ele>
        <time>2022-05-23 11:17:52</time>
      </trkpt>
      <trkpt lat="42.07818" lon="0.74043">
        <ele>1038.6</ele>
        <time>2022-05-23 11:17:53</time>
      </trkpt>
      <trkpt lat="42.07817" lon="0.7404">
        <ele>1038.6</ele>
        <time>2022-05-23 11:17:54</time>
      </trkpt>
      <trkpt lat="42.07816" lon="0.74038">
        <ele>1038.8</ele>
        <time>2022-05-23 11:17:55</time>
      </trkpt>
      <trkpt lat="42.07815" lon="0.74036">
        <ele>1038.8</ele>
        <time>2022-05-23 11:17:56</time>
      </trkpt>
      <trkpt lat="42.07814" lon="0.74033">
        <ele>1039</ele>
        <time>2022-05-23 11:17:57</time>
      </trkpt>
      <trkpt lat="42.07812" lon="0.74032">
        <ele>1039</ele>
        <time>2022-05-23 11:17:58</time>
      </trkpt>
      <trkpt lat="42.07811" lon="0.7403">
        <ele>1039.2</ele>
        <time>2022-05-23 11:17:59</time>
      </trkpt>
      <trkpt lat="42.07809" lon="0.74029">
        <ele>1039.2</ele>
        <time>2022-05-23 11:18:00</time>
      </trkpt>
      <trkpt lat="42.07807" lon="0.74028">
        <ele>1039.4</ele>
        <time>2022-05-23 11:18:01</time>
      </trkpt>
      <trkpt lat="42.07805" lon="0.74029">
        <ele>1039.6</ele>
        <time>2022-05-23 11:18:02</time>
      </trkpt>
      <trkpt lat="42.07803" lon="0.7403">
        <ele>1039.8</ele>
        <time>2022-05-23 11:18:03</time>
      </trkpt>
      <trkpt lat="42.07802" lon="0.74031">
        <ele>1040</ele>
        <time>2022-05-23 11:18:04</time>
      </trkpt>
      <trkpt lat="42.07801" lon="0.74032">
        <ele>1040.2</ele>
        <time>2022-05-23 11:18:05</time>
      </trkpt>
      <trkpt lat="42.07799" lon="0.74034">
        <ele>1040.4</ele>
        <time>2022-05-23 11:18:06</time>
      </trkpt>
      <trkpt lat="42.07798" lon="0.74036">
        <ele>1040.6</ele>
        <time>2022-05-23 11:18:07</time>
      </trkpt>
      <trkpt lat="42.07798" lon="0.74038">
        <ele>1040.8</ele>
        <time>2022-05-23 11:18:08</time>
      </trkpt>
      <trkpt lat="42.07798" lon="0.7404">
        <ele>1041</ele>
        <time>2022-05-23 11:18:09</time>
      </trkpt>
      <trkpt lat="42.07797" lon="0.74043">
        <ele>1041.2</ele>
        <time>2022-05-23 11:18:10</time>
      </trkpt>
      <trkpt lat="42.07797" lon="0.74045">
        <ele>1041.4</ele>
        <time>2022-05-23 11:18:11</time>
      </trkpt>
      <trkpt lat="42.07796" lon="0.74047">
        <ele>1041.6</ele>
        <time>2022-05-23 11:18:12</time>
      </trkpt>
      <trkpt lat="42.07796" lon="0.7405">
        <ele>1041.8</ele>
        <time>2022-05-23 11:18:13</time>
      </trkpt>
      <trkpt lat="42.07796" lon="0.74052">
        <ele>1042</ele>
        <time>2022-05-23 11:18:14</time>
      </trkpt>
      <trkpt lat="42.07795" lon="0.74054">
        <ele>1042.2</ele>
        <time>2022-05-23 11:18:15</time>
      </trkpt>
      <trkpt lat="42.07795" lon="0.74056">
        <ele>1042.4</ele>
        <time>2022-05-23 11:18:16</time>
      </trkpt>
      <trkpt lat="42.07796" lon="0.74057">
        <ele>1042.6</ele>
        <time>2022-05-23 11:18:17</time>
      </trkpt>
      <trkpt lat="42.07796" lon="0.7406">
        <ele>1042.8</ele>
        <time>2022-05-23 11:18:18</time>
      </trkpt>
      <trkpt lat="42.07795" lon="0.74061">
        <ele>1043</ele>
        <time>2022-05-23 11:18:19</time>
      </trkpt>
      <trkpt lat="42.07795" lon="0.74063">
        <ele>1043.2</ele>
        <time>2022-05-23 11:18:20</time>
      </trkpt>
      <trkpt lat="42.07795" lon="0.74066">
        <ele>1043.4</ele>
        <time>2022-05-23 11:18:21</time>
      </trkpt>
      <trkpt lat="42.07795" lon="0.74069">
        <ele>1043.4</ele>
        <time>2022-05-23 11:18:22</time>
      </trkpt>
      <trkpt lat="42.07794" lon="0.74072">
        <ele>1043.6</ele>
        <time>2022-05-23 11:18:23</time>
      </trkpt>
      <trkpt lat="42.07794" lon="0.74074">
        <ele>1043.6</ele>
        <time>2022-05-23 11:18:24</time>
      </trkpt>
      <trkpt lat="42.07793" lon="0.74076">
        <ele>1043.8</ele>
        <time>2022-05-23 11:18:25</time>
      </trkpt>
      <trkpt lat="42.07793" lon="0.74078">
        <ele>1044</ele>
        <time>2022-05-23 11:18:26</time>
      </trkpt>
      <trkpt lat="42.07791" lon="0.74081">
        <ele>1044.2</ele>
        <time>2022-05-23 11:18:27</time>
      </trkpt>
      <trkpt lat="42.07791" lon="0.74083">
        <ele>1044.2</ele>
        <time>2022-05-23 11:18:28</time>
      </trkpt>
      <trkpt lat="42.0779" lon="0.74085">
        <ele>1044.4</ele>
        <time>2022-05-23 11:18:29</time>
      </trkpt>
      <trkpt lat="42.07789" lon="0.74087">
        <ele>1044.4</ele>
        <time>2022-05-23 11:18:30</time>
      </trkpt>
      <trkpt lat="42.07788" lon="0.7409">
        <ele>1044.6</ele>
        <time>2022-05-23 11:18:31</time>
      </trkpt>
      <trkpt lat="42.07787" lon="0.74092">
        <ele>1044.8</ele>
        <time>2022-05-23 11:18:32</time>
      </trkpt>
      <trkpt lat="42.07787" lon="0.74094">
        <ele>1044.8</ele>
        <time>2022-05-23 11:18:33</time>
      </trkpt>
      <trkpt lat="42.07785" lon="0.74095">
        <ele>1045</ele>
        <time>2022-05-23 11:18:34</time>
      </trkpt>
      <trkpt lat="42.07784" lon="0.74097">
        <ele>1045.2</ele>
        <time>2022-05-23 11:18:35</time>
      </trkpt>
      <trkpt lat="42.07783" lon="0.74099">
        <ele>1045.2</ele>
        <time>2022-05-23 11:18:36</time>
      </trkpt>
      <trkpt lat="42.07783" lon="0.74101">
        <ele>1045.4</ele>
        <time>2022-05-23 11:18:37</time>
      </trkpt>
      <trkpt lat="42.07782" lon="0.74103">
        <ele>1045.4</ele>
        <time>2022-05-23 11:18:38</time>
      </trkpt>
      <trkpt lat="42.07781" lon="0.74104">
        <ele>1045.6</ele>
        <time>2022-05-23 11:18:39</time>
      </trkpt>
      <trkpt lat="42.0778" lon="0.74105">
        <ele>1045.6</ele>
        <time>2022-05-23 11:18:40</time>
      </trkpt>
      <trkpt lat="42.07779" lon="0.74107">
        <ele>1045.8</ele>
        <time>2022-05-23 11:18:41</time>
      </trkpt>
      <trkpt lat="42.07778" lon="0.74108">
        <ele>1045.8</ele>
        <time>2022-05-23 11:18:42</time>
      </trkpt>
      <trkpt lat="42.07777" lon="0.7411">
        <ele>1045.8</ele>
        <time>2022-05-23 11:18:43</time>
      </trkpt>
      <trkpt lat="42.07777" lon="0.74112">
        <ele>1046</ele>
        <time>2022-05-23 11:18:44</time>
      </trkpt>
      <trkpt lat="42.07776" lon="0.74114">
        <ele>1046</ele>
        <time>2022-05-23 11:18:45</time>
      </trkpt>
      <trkpt lat="42.07775" lon="0.74116">
        <ele>1046.2</ele>
        <time>2022-05-23 11:18:46</time>
      </trkpt>
      <trkpt lat="42.07774" lon="0.74119">
        <ele>1046.2</ele>
        <time>2022-05-23 11:18:47</time>
      </trkpt>
      <trkpt lat="42.07773" lon="0.74121">
        <ele>1046.4</ele>
        <time>2022-05-23 11:18:48</time>
      </trkpt>
      <trkpt lat="42.07772" lon="0.74123">
        <ele>1046.6</ele>
        <time>2022-05-23 11:18:49</time>
      </trkpt>
      <trkpt lat="42.07772" lon="0.74126">
        <ele>1046.6</ele>
        <time>2022-05-23 11:18:50</time>
      </trkpt>
      <trkpt lat="42.07771" lon="0.74128">
        <ele>1046.8</ele>
        <time>2022-05-23 11:18:51</time>
      </trkpt>
      <trkpt lat="42.0777" lon="0.7413">
        <ele>1047</ele>
        <time>2022-05-23 11:18:52</time>
      </trkpt>
      <trkpt lat="42.0777" lon="0.74132">
        <ele>1047.2</ele>
        <time>2022-05-23 11:18:53</time>
      </trkpt>
      <trkpt lat="42.07769" lon="0.74135">
        <ele>1047.2</ele>
        <time>2022-05-23 11:18:54</time>
      </trkpt>
      <trkpt lat="42.07768" lon="0.74137">
        <ele>1047.4</ele>
        <time>2022-05-23 11:18:55</time>
      </trkpt>
      <trkpt lat="42.07768" lon="0.74139">
        <ele>1047.6</ele>
        <time>2022-05-23 11:18:56</time>
      </trkpt>
      <trkpt lat="42.07767" lon="0.74141">
        <ele>1047.6</ele>
        <time>2022-05-23 11:18:57</time>
      </trkpt>
      <trkpt lat="42.07766" lon="0.74143">
        <ele>1047.8</ele>
        <time>2022-05-23 11:18:58</time>
      </trkpt>
      <trkpt lat="42.07766" lon="0.74145">
        <ele>1048</ele>
        <time>2022-05-23 11:18:59</time>
      </trkpt>
      <trkpt lat="42.07765" lon="0.74147">
        <ele>1048.2</ele>
        <time>2022-05-23 11:19:00</time>
      </trkpt>
      <trkpt lat="42.07764" lon="0.74149">
        <ele>1048.2</ele>
        <time>2022-05-23 11:19:01</time>
      </trkpt>
      <trkpt lat="42.07764" lon="0.74151">
        <ele>1048.4</ele>
        <time>2022-05-23 11:19:02</time>
      </trkpt>
      <trkpt lat="42.07763" lon="0.74152">
        <ele>1048.6</ele>
        <time>2022-05-23 11:19:03</time>
      </trkpt>
      <trkpt lat="42.07762" lon="0.74154">
        <ele>1048.6</ele>
        <time>2022-05-23 11:19:04</time>
      </trkpt>
      <trkpt lat="42.07761" lon="0.74156">
        <ele>1048.8</ele>
        <time>2022-05-23 11:19:05</time>
      </trkpt>
      <trkpt lat="42.0776" lon="0.74158">
        <ele>1049</ele>
        <time>2022-05-23 11:19:06</time>
      </trkpt>
      <trkpt lat="42.0776" lon="0.74159">
        <ele>1049.2</ele>
        <time>2022-05-23 11:19:07</time>
      </trkpt>
      <trkpt lat="42.07759" lon="0.74161">
        <ele>1049.2</ele>
        <time>2022-05-23 11:19:08</time>
      </trkpt>
      <trkpt lat="42.07758" lon="0.74163">
        <ele>1049.4</ele>
        <time>2022-05-23 11:19:09</time>
      </trkpt>
      <trkpt lat="42.07758" lon="0.74165">
        <ele>1049.6</ele>
        <time>2022-05-23 11:19:10</time>
      </trkpt>
      <trkpt lat="42.07757" lon="0.74168">
        <ele>1049.8</ele>
        <time>2022-05-23 11:19:11</time>
      </trkpt>
      <trkpt lat="42.07756" lon="0.7417">
        <ele>1050</ele>
        <time>2022-05-23 11:19:12</time>
      </trkpt>
      <trkpt lat="42.07756" lon="0.74172">
        <ele>1050</ele>
        <time>2022-05-23 11:19:13</time>
      </trkpt>
      <trkpt lat="42.07755" lon="0.74174">
        <ele>1050.2</ele>
        <time>2022-05-23 11:19:14</time>
      </trkpt>
      <trkpt lat="42.07754" lon="0.74176">
        <ele>1050.4</ele>
        <time>2022-05-23 11:19:15</time>
      </trkpt>
      <trkpt lat="42.07753" lon="0.74178">
        <ele>1050.6</ele>
        <time>2022-05-23 11:19:16</time>
      </trkpt>
      <trkpt lat="42.07753" lon="0.7418">
        <ele>1050.6</ele>
        <time>2022-05-23 11:19:17</time>
      </trkpt>
      <trkpt lat="42.07752" lon="0.74182">
        <ele>1050.8</ele>
        <time>2022-05-23 11:19:18</time>
      </trkpt>
      <trkpt lat="42.07751" lon="0.74184">
        <ele>1051</ele>
        <time>2022-05-23 11:19:19</time>
      </trkpt>
      <trkpt lat="42.0775" lon="0.74186">
        <ele>1051</ele>
        <time>2022-05-23 11:19:20</time>
      </trkpt>
      <trkpt lat="42.07749" lon="0.74188">
        <ele>1051.2</ele>
        <time>2022-05-23 11:19:21</time>
      </trkpt>
      <trkpt lat="42.07748" lon="0.7419">
        <ele>1051.4</ele>
        <time>2022-05-23 11:19:22</time>
      </trkpt>
      <trkpt lat="42.07748" lon="0.74192">
        <ele>1051.4</ele>
        <time>2022-05-23 11:19:23</time>
      </trkpt>
      <trkpt lat="42.07746" lon="0.74194">
        <ele>1051.6</ele>
        <time>2022-05-23 11:19:24</time>
      </trkpt>
      <trkpt lat="42.07746" lon="0.74197">
        <ele>1051.6</ele>
        <time>2022-05-23 11:19:25</time>
      </trkpt>
      <trkpt lat="42.07745" lon="0.74199">
        <ele>1051.8</ele>
        <time>2022-05-23 11:19:26</time>
      </trkpt>
      <trkpt lat="42.07744" lon="0.74201">
        <ele>1052</ele>
        <time>2022-05-23 11:19:27</time>
      </trkpt>
      <trkpt lat="42.07743" lon="0.74203">
        <ele>1052</ele>
        <time>2022-05-23 11:19:28</time>
      </trkpt>
      <trkpt lat="42.07743" lon="0.74204">
        <ele>1052.2</ele>
        <time>2022-05-23 11:19:29</time>
      </trkpt>
      <trkpt lat="42.07742" lon="0.74206">
        <ele>1052.2</ele>
        <time>2022-05-23 11:19:30</time>
      </trkpt>
      <trkpt lat="42.07741" lon="0.74208">
        <ele>1052.4</ele>
        <time>2022-05-23 11:19:31</time>
      </trkpt>
      <trkpt lat="42.07741" lon="0.7421">
        <ele>1052.4</ele>
        <time>2022-05-23 11:19:32</time>
      </trkpt>
      <trkpt lat="42.0774" lon="0.74212">
        <ele>1052.6</ele>
        <time>2022-05-23 11:19:33</time>
      </trkpt>
      <trkpt lat="42.07739" lon="0.74214">
        <ele>1052.6</ele>
        <time>2022-05-23 11:19:34</time>
      </trkpt>
      <trkpt lat="42.07738" lon="0.74216">
        <ele>1052.8</ele>
        <time>2022-05-23 11:19:35</time>
      </trkpt>
      <trkpt lat="42.07738" lon="0.74218">
        <ele>1053</ele>
        <time>2022-05-23 11:19:36</time>
      </trkpt>
      <trkpt lat="42.07737" lon="0.7422">
        <ele>1053</ele>
        <time>2022-05-23 11:19:37</time>
      </trkpt>
      <trkpt lat="42.07736" lon="0.74222">
        <ele>1053.2</ele>
        <time>2022-05-23 11:19:38</time>
      </trkpt>
      <trkpt lat="42.07736" lon="0.74224">
        <ele>1053.4</ele>
        <time>2022-05-23 11:19:39</time>
      </trkpt>
      <trkpt lat="42.07735" lon="0.74227">
        <ele>1053.4</ele>
        <time>2022-05-23 11:19:40</time>
      </trkpt>
      <trkpt lat="42.07734" lon="0.74229">
        <ele>1053.6</ele>
        <time>2022-05-23 11:19:41</time>
      </trkpt>
      <trkpt lat="42.07734" lon="0.74232">
        <ele>1053.8</ele>
        <time>2022-05-23 11:19:42</time>
      </trkpt>
      <trkpt lat="42.07733" lon="0.74234">
        <ele>1054</ele>
        <time>2022-05-23 11:19:43</time>
      </trkpt>
      <trkpt lat="42.07732" lon="0.74236">
        <ele>1054</ele>
        <time>2022-05-23 11:19:44</time>
      </trkpt>
      <trkpt lat="42.07732" lon="0.74239">
        <ele>1054.2</ele>
        <time>2022-05-23 11:19:45</time>
      </trkpt>
      <trkpt lat="42.07731" lon="0.7424">
        <ele>1054.4</ele>
        <time>2022-05-23 11:19:46</time>
      </trkpt>
      <trkpt lat="42.0773" lon="0.74242">
        <ele>1054.6</ele>
        <time>2022-05-23 11:19:47</time>
      </trkpt>
      <trkpt lat="42.07729" lon="0.74244">
        <ele>1054.6</ele>
        <time>2022-05-23 11:19:48</time>
      </trkpt>
      <trkpt lat="42.07729" lon="0.74246">
        <ele>1054.8</ele>
        <time>2022-05-23 11:19:49</time>
      </trkpt>
      <trkpt lat="42.07728" lon="0.74248">
        <ele>1054.8</ele>
        <time>2022-05-23 11:19:50</time>
      </trkpt>
      <trkpt lat="42.07727" lon="0.7425">
        <ele>1055</ele>
        <time>2022-05-23 11:19:51</time>
      </trkpt>
      <trkpt lat="42.07727" lon="0.74252">
        <ele>1055.2</ele>
        <time>2022-05-23 11:19:52</time>
      </trkpt>
      <trkpt lat="42.07726" lon="0.74254">
        <ele>1055.2</ele>
        <time>2022-05-23 11:19:53</time>
      </trkpt>
      <trkpt lat="42.07725" lon="0.74256">
        <ele>1055.4</ele>
        <time>2022-05-23 11:19:54</time>
      </trkpt>
      <trkpt lat="42.07724" lon="0.74259">
        <ele>1055.4</ele>
        <time>2022-05-23 11:19:55</time>
      </trkpt>
      <trkpt lat="42.07724" lon="0.74261">
        <ele>1055.6</ele>
        <time>2022-05-23 11:19:56</time>
      </trkpt>
      <trkpt lat="42.07722" lon="0.74263">
        <ele>1055.6</ele>
        <time>2022-05-23 11:19:57</time>
      </trkpt>
      <trkpt lat="42.07721" lon="0.74265">
        <ele>1055.8</ele>
        <time>2022-05-23 11:19:58</time>
      </trkpt>
      <trkpt lat="42.0772" lon="0.74266">
        <ele>1055.8</ele>
        <time>2022-05-23 11:19:59</time>
      </trkpt>
      <trkpt lat="42.07719" lon="0.74268">
        <ele>1056</ele>
        <time>2022-05-23 11:20:00</time>
      </trkpt>
      <trkpt lat="42.07718" lon="0.7427">
        <ele>1056.2</ele>
        <time>2022-05-23 11:20:01</time>
      </trkpt>
      <trkpt lat="42.07717" lon="0.74272">
        <ele>1056.2</ele>
        <time>2022-05-23 11:20:02</time>
      </trkpt>
      <trkpt lat="42.07716" lon="0.74274">
        <ele>1056.4</ele>
        <time>2022-05-23 11:20:03</time>
      </trkpt>
      <trkpt lat="42.07715" lon="0.74276">
        <ele>1056.6</ele>
        <time>2022-05-23 11:20:04</time>
      </trkpt>
      <trkpt lat="42.07714" lon="0.74278">
        <ele>1056.6</ele>
        <time>2022-05-23 11:20:05</time>
      </trkpt>
      <trkpt lat="42.07713" lon="0.7428">
        <ele>1056.8</ele>
        <time>2022-05-23 11:20:06</time>
      </trkpt>
      <trkpt lat="42.07711" lon="0.74282">
        <ele>1057</ele>
        <time>2022-05-23 11:20:07</time>
      </trkpt>
      <trkpt lat="42.07711" lon="0.74284">
        <ele>1057</ele>
        <time>2022-05-23 11:20:08</time>
      </trkpt>
      <trkpt lat="42.0771" lon="0.74286">
        <ele>1057.2</ele>
        <time>2022-05-23 11:20:09</time>
      </trkpt>
      <trkpt lat="42.07709" lon="0.74288">
        <ele>1057.4</ele>
        <time>2022-05-23 11:20:10</time>
      </trkpt>
      <trkpt lat="42.07709" lon="0.74291">
        <ele>1057.6</ele>
        <time>2022-05-23 11:20:11</time>
      </trkpt>
      <trkpt lat="42.07708" lon="0.74293">
        <ele>1057.6</ele>
        <time>2022-05-23 11:20:12</time>
      </trkpt>
      <trkpt lat="42.07707" lon="0.74295">
        <ele>1057.8</ele>
        <time>2022-05-23 11:20:13</time>
      </trkpt>
      <trkpt lat="42.07706" lon="0.74297">
        <ele>1058</ele>
        <time>2022-05-23 11:20:14</time>
      </trkpt>
      <trkpt lat="42.07706" lon="0.743">
        <ele>1058.2</ele>
        <time>2022-05-23 11:20:15</time>
      </trkpt>
      <trkpt lat="42.07705" lon="0.74303">
        <ele>1058.2</ele>
        <time>2022-05-23 11:20:16</time>
      </trkpt>
      <trkpt lat="42.07704" lon="0.74305">
        <ele>1058.4</ele>
        <time>2022-05-23 11:20:17</time>
      </trkpt>
      <trkpt lat="42.07704" lon="0.74308">
        <ele>1058.6</ele>
        <time>2022-05-23 11:20:18</time>
      </trkpt>
      <trkpt lat="42.07703" lon="0.7431">
        <ele>1058.8</ele>
        <time>2022-05-23 11:20:19</time>
      </trkpt>
      <trkpt lat="42.07701" lon="0.74313">
        <ele>1059</ele>
        <time>2022-05-23 11:20:20</time>
      </trkpt>
      <trkpt lat="42.07701" lon="0.74315">
        <ele>1059.2</ele>
        <time>2022-05-23 11:20:21</time>
      </trkpt>
      <trkpt lat="42.077" lon="0.74318">
        <ele>1059.2</ele>
        <time>2022-05-23 11:20:22</time>
      </trkpt>
      <trkpt lat="42.07698" lon="0.7432">
        <ele>1059.4</ele>
        <time>2022-05-23 11:20:23</time>
      </trkpt>
      <trkpt lat="42.07698" lon="0.74323">
        <ele>1059.6</ele>
        <time>2022-05-23 11:20:24</time>
      </trkpt>
      <trkpt lat="42.07696" lon="0.74326">
        <ele>1059.8</ele>
        <time>2022-05-23 11:20:25</time>
      </trkpt>
      <trkpt lat="42.07696" lon="0.74328">
        <ele>1060</ele>
        <time>2022-05-23 11:20:26</time>
      </trkpt>
      <trkpt lat="42.07695" lon="0.7433">
        <ele>1060.2</ele>
        <time>2022-05-23 11:20:27</time>
      </trkpt>
      <trkpt lat="42.07695" lon="0.74331">
        <ele>1060.4</ele>
        <time>2022-05-23 11:20:28</time>
      </trkpt>
      <trkpt lat="42.07693" lon="0.74333">
        <ele>1060.4</ele>
        <time>2022-05-23 11:20:29</time>
      </trkpt>
      <trkpt lat="42.07693" lon="0.74336">
        <ele>1060.6</ele>
        <time>2022-05-23 11:20:30</time>
      </trkpt>
      <trkpt lat="42.07692" lon="0.74338">
        <ele>1060.8</ele>
        <time>2022-05-23 11:20:31</time>
      </trkpt>
      <trkpt lat="42.07691" lon="0.7434">
        <ele>1061</ele>
        <time>2022-05-23 11:20:32</time>
      </trkpt>
      <trkpt lat="42.0769" lon="0.74342">
        <ele>1061</ele>
        <time>2022-05-23 11:20:33</time>
      </trkpt>
      <trkpt lat="42.07689" lon="0.74344">
        <ele>1061.2</ele>
        <time>2022-05-23 11:20:34</time>
      </trkpt>
      <trkpt lat="42.07688" lon="0.74346">
        <ele>1061.4</ele>
        <time>2022-05-23 11:20:35</time>
      </trkpt>
      <trkpt lat="42.07687" lon="0.74349">
        <ele>1061.4</ele>
        <time>2022-05-23 11:20:36</time>
      </trkpt>
      <trkpt lat="42.07685" lon="0.74351">
        <ele>1061.6</ele>
        <time>2022-05-23 11:20:37</time>
      </trkpt>
      <trkpt lat="42.07684" lon="0.74352">
        <ele>1061.8</ele>
        <time>2022-05-23 11:20:38</time>
      </trkpt>
      <trkpt lat="42.07683" lon="0.74354">
        <ele>1061.8</ele>
        <time>2022-05-23 11:20:39</time>
      </trkpt>
      <trkpt lat="42.07682" lon="0.74356">
        <ele>1062</ele>
        <time>2022-05-23 11:20:40</time>
      </trkpt>
      <trkpt lat="42.0768" lon="0.74358">
        <ele>1062</ele>
        <time>2022-05-23 11:20:41</time>
      </trkpt>
      <trkpt lat="42.07679" lon="0.74359">
        <ele>1062.2</ele>
        <time>2022-05-23 11:20:42</time>
      </trkpt>
      <trkpt lat="42.07679" lon="0.74361">
        <ele>1062.4</ele>
        <time>2022-05-23 11:20:43</time>
      </trkpt>
      <trkpt lat="42.07678" lon="0.74363">
        <ele>1062.4</ele>
        <time>2022-05-23 11:20:44</time>
      </trkpt>
      <trkpt lat="42.07677" lon="0.74365">
        <ele>1062.6</ele>
        <time>2022-05-23 11:20:45</time>
      </trkpt>
      <trkpt lat="42.07676" lon="0.74366">
        <ele>1062.8</ele>
        <time>2022-05-23 11:20:46</time>
      </trkpt>
      <trkpt lat="42.07675" lon="0.74368">
        <ele>1063</ele>
        <time>2022-05-23 11:20:47</time>
      </trkpt>
      <trkpt lat="42.07674" lon="0.7437">
        <ele>1063.2</ele>
        <time>2022-05-23 11:20:48</time>
      </trkpt>
      <trkpt lat="42.07673" lon="0.74372">
        <ele>1063.2</ele>
        <time>2022-05-23 11:20:49</time>
      </trkpt>
      <trkpt lat="42.07672" lon="0.74373">
        <ele>1063.4</ele>
        <time>2022-05-23 11:20:50</time>
      </trkpt>
      <trkpt lat="42.07671" lon="0.74374">
        <ele>1063.6</ele>
        <time>2022-05-23 11:20:51</time>
      </trkpt>
      <trkpt lat="42.0767" lon="0.74375">
        <ele>1063.6</ele>
        <time>2022-05-23 11:20:52</time>
      </trkpt>
      <trkpt lat="42.07669" lon="0.74377">
        <ele>1063.8</ele>
        <time>2022-05-23 11:20:53</time>
      </trkpt>
      <trkpt lat="42.07667" lon="0.74378">
        <ele>1063.8</ele>
        <time>2022-05-23 11:20:54</time>
      </trkpt>
      <trkpt lat="42.07666" lon="0.74379">
        <ele>1064</ele>
        <time>2022-05-23 11:20:55</time>
      </trkpt>
      <trkpt lat="42.07665" lon="0.74381">
        <ele>1064.2</ele>
        <time>2022-05-23 11:20:56</time>
      </trkpt>
      <trkpt lat="42.07664" lon="0.74382">
        <ele>1064.2</ele>
        <time>2022-05-23 11:20:57</time>
      </trkpt>
      <trkpt lat="42.07663" lon="0.74384">
        <ele>1064.4</ele>
        <time>2022-05-23 11:20:58</time>
      </trkpt>
      <trkpt lat="42.07661" lon="0.74385">
        <ele>1064.6</ele>
        <time>2022-05-23 11:20:59</time>
      </trkpt>
      <trkpt lat="42.07661" lon="0.74387">
        <ele>1064.6</ele>
        <time>2022-05-23 11:21:00</time>
      </trkpt>
      <trkpt lat="42.07659" lon="0.74388">
        <ele>1064.8</ele>
        <time>2022-05-23 11:21:01</time>
      </trkpt>
      <trkpt lat="42.07658" lon="0.74389">
        <ele>1064.8</ele>
        <time>2022-05-23 11:21:02</time>
      </trkpt>
      <trkpt lat="42.07657" lon="0.74391">
        <ele>1065</ele>
        <time>2022-05-23 11:21:03</time>
      </trkpt>
      <trkpt lat="42.07655" lon="0.74392">
        <ele>1065</ele>
        <time>2022-05-23 11:21:04</time>
      </trkpt>
      <trkpt lat="42.07653" lon="0.74394">
        <ele>1065.2</ele>
        <time>2022-05-23 11:21:05</time>
      </trkpt>
      <trkpt lat="42.07652" lon="0.74395">
        <ele>1065.2</ele>
        <time>2022-05-23 11:21:06</time>
      </trkpt>
      <trkpt lat="42.07651" lon="0.74397">
        <ele>1065.4</ele>
        <time>2022-05-23 11:21:07</time>
      </trkpt>
      <trkpt lat="42.0765" lon="0.74399">
        <ele>1065.6</ele>
        <time>2022-05-23 11:21:08</time>
      </trkpt>
      <trkpt lat="42.07649" lon="0.744">
        <ele>1065.6</ele>
        <time>2022-05-23 11:21:09</time>
      </trkpt>
      <trkpt lat="42.07647" lon="0.74402">
        <ele>1065.8</ele>
        <time>2022-05-23 11:21:10</time>
      </trkpt>
      <trkpt lat="42.07646" lon="0.74404">
        <ele>1065.8</ele>
        <time>2022-05-23 11:21:11</time>
      </trkpt>
      <trkpt lat="42.07644" lon="0.74406">
        <ele>1066</ele>
        <time>2022-05-23 11:21:12</time>
      </trkpt>
      <trkpt lat="42.07643" lon="0.74408">
        <ele>1066</ele>
        <time>2022-05-23 11:21:13</time>
      </trkpt>
      <trkpt lat="42.07642" lon="0.74409">
        <ele>1066.2</ele>
        <time>2022-05-23 11:21:14</time>
      </trkpt>
      <trkpt lat="42.0764" lon="0.74412">
        <ele>1066.2</ele>
        <time>2022-05-23 11:21:15</time>
      </trkpt>
      <trkpt lat="42.07638" lon="0.74414">
        <ele>1066.4</ele>
        <time>2022-05-23 11:21:16</time>
      </trkpt>
      <trkpt lat="42.07637" lon="0.74416">
        <ele>1066.4</ele>
        <time>2022-05-23 11:21:17</time>
      </trkpt>
      <trkpt lat="42.07636" lon="0.74417">
        <ele>1066.6</ele>
        <time>2022-05-23 11:21:18</time>
      </trkpt>
      <trkpt lat="42.07635" lon="0.74419">
        <ele>1066.6</ele>
        <time>2022-05-23 11:21:19</time>
      </trkpt>
      <trkpt lat="42.07634" lon="0.74421">
        <ele>1066.8</ele>
        <time>2022-05-23 11:21:20</time>
      </trkpt>
      <trkpt lat="42.07633" lon="0.74423">
        <ele>1067</ele>
        <time>2022-05-23 11:21:21</time>
      </trkpt>
      <trkpt lat="42.07632" lon="0.74425">
        <ele>1067</ele>
        <time>2022-05-23 11:21:22</time>
      </trkpt>
      <trkpt lat="42.07632" lon="0.74426">
        <ele>1067.2</ele>
        <time>2022-05-23 11:21:23</time>
      </trkpt>
      <trkpt lat="42.07631" lon="0.74428">
        <ele>1067.4</ele>
        <time>2022-05-23 11:21:24</time>
      </trkpt>
      <trkpt lat="42.0763" lon="0.74431">
        <ele>1067.4</ele>
        <time>2022-05-23 11:21:25</time>
      </trkpt>
      <trkpt lat="42.0763" lon="0.74433">
        <ele>1067.6</ele>
        <time>2022-05-23 11:21:26</time>
      </trkpt>
      <trkpt lat="42.07629" lon="0.74435">
        <ele>1067.6</ele>
        <time>2022-05-23 11:21:27</time>
      </trkpt>
      <trkpt lat="42.07628" lon="0.74438">
        <ele>1067.8</ele>
        <time>2022-05-23 11:21:28</time>
      </trkpt>
      <trkpt lat="42.07627" lon="0.7444">
        <ele>1068</ele>
        <time>2022-05-23 11:21:29</time>
      </trkpt>
      <trkpt lat="42.07626" lon="0.74443">
        <ele>1068.2</ele>
        <time>2022-05-23 11:21:30</time>
      </trkpt>
      <trkpt lat="42.07626" lon="0.74445">
        <ele>1068.4</ele>
        <time>2022-05-23 11:21:31</time>
      </trkpt>
      <trkpt lat="42.07626" lon="0.74448">
        <ele>1068.4</ele>
        <time>2022-05-23 11:21:32</time>
      </trkpt>
      <trkpt lat="42.07625" lon="0.7445">
        <ele>1068.6</ele>
        <time>2022-05-23 11:21:33</time>
      </trkpt>
      <trkpt lat="42.07624" lon="0.74453">
        <ele>1068.8</ele>
        <time>2022-05-23 11:21:34</time>
      </trkpt>
      <trkpt lat="42.07624" lon="0.74455">
        <ele>1069</ele>
        <time>2022-05-23 11:21:35</time>
      </trkpt>
      <trkpt lat="42.07623" lon="0.74457">
        <ele>1069.2</ele>
        <time>2022-05-23 11:21:36</time>
      </trkpt>
      <trkpt lat="42.07622" lon="0.74459">
        <ele>1069.2</ele>
        <time>2022-05-23 11:21:37</time>
      </trkpt>
      <trkpt lat="42.07622" lon="0.74461">
        <ele>1069.4</ele>
        <time>2022-05-23 11:21:38</time>
      </trkpt>
      <trkpt lat="42.07621" lon="0.74463">
        <ele>1069.6</ele>
        <time>2022-05-23 11:21:39</time>
      </trkpt>
      <trkpt lat="42.0762" lon="0.74465">
        <ele>1069.8</ele>
        <time>2022-05-23 11:21:40</time>
      </trkpt>
      <trkpt lat="42.0762" lon="0.74468">
        <ele>1069.8</ele>
        <time>2022-05-23 11:21:41</time>
      </trkpt>
      <trkpt lat="42.07619" lon="0.74469">
        <ele>1070</ele>
        <time>2022-05-23 11:21:42</time>
      </trkpt>
      <trkpt lat="42.07618" lon="0.74471">
        <ele>1070.2</ele>
        <time>2022-05-23 11:21:43</time>
      </trkpt>
      <trkpt lat="42.07618" lon="0.74473">
        <ele>1070.2</ele>
        <time>2022-05-23 11:21:44</time>
      </trkpt>
      <trkpt lat="42.07617" lon="0.74475">
        <ele>1070.4</ele>
        <time>2022-05-23 11:21:45</time>
      </trkpt>
      <trkpt lat="42.07616" lon="0.74477">
        <ele>1070.6</ele>
        <time>2022-05-23 11:21:46</time>
      </trkpt>
      <trkpt lat="42.07615" lon="0.7448">
        <ele>1070.6</ele>
        <time>2022-05-23 11:21:47</time>
      </trkpt>
      <trkpt lat="42.07614" lon="0.74481">
        <ele>1070.8</ele>
        <time>2022-05-23 11:21:48</time>
      </trkpt>
      <trkpt lat="42.07613" lon="0.74483">
        <ele>1070.8</ele>
        <time>2022-05-23 11:21:49</time>
      </trkpt>
      <trkpt lat="42.07612" lon="0.74485">
        <ele>1071</ele>
        <time>2022-05-23 11:21:50</time>
      </trkpt>
      <trkpt lat="42.07611" lon="0.74488">
        <ele>1071</ele>
        <time>2022-05-23 11:21:51</time>
      </trkpt>
      <trkpt lat="42.07609" lon="0.7449">
        <ele>1071.2</ele>
        <time>2022-05-23 11:21:52</time>
      </trkpt>
      <trkpt lat="42.07608" lon="0.74492">
        <ele>1071.2</ele>
        <time>2022-05-23 11:21:53</time>
      </trkpt>
      <trkpt lat="42.07607" lon="0.74494">
        <ele>1071.4</ele>
        <time>2022-05-23 11:21:54</time>
      </trkpt>
      <trkpt lat="42.07606" lon="0.74497">
        <ele>1071.4</ele>
        <time>2022-05-23 11:21:55</time>
      </trkpt>
      <trkpt lat="42.07604" lon="0.74499">
        <ele>1071.6</ele>
        <time>2022-05-23 11:21:56</time>
      </trkpt>
      <trkpt lat="42.07603" lon="0.74501">
        <ele>1071.6</ele>
        <time>2022-05-23 11:21:57</time>
      </trkpt>
      <trkpt lat="42.07601" lon="0.74503">
        <ele>1071.8</ele>
        <time>2022-05-23 11:21:58</time>
      </trkpt>
      <trkpt lat="42.076" lon="0.74505">
        <ele>1071.8</ele>
        <time>2022-05-23 11:21:59</time>
      </trkpt>
      <trkpt lat="42.07598" lon="0.74506">
        <ele>1071.8</ele>
        <time>2022-05-23 11:22:00</time>
      </trkpt>
      <trkpt lat="42.07597" lon="0.74507">
        <ele>1072</ele>
        <time>2022-05-23 11:22:01</time>
      </trkpt>
      <trkpt lat="42.07595" lon="0.74508">
        <ele>1072.2</ele>
        <time>2022-05-23 11:22:02</time>
      </trkpt>
      <trkpt lat="42.07593" lon="0.74508">
        <ele>1072.4</ele>
        <time>2022-05-23 11:22:03</time>
      </trkpt>
      <trkpt lat="42.07592" lon="0.74508">
        <ele>1072.6</ele>
        <time>2022-05-23 11:22:04</time>
      </trkpt>
      <trkpt lat="42.07591" lon="0.74507">
        <ele>1072.8</ele>
        <time>2022-05-23 11:22:05</time>
      </trkpt>
      <trkpt lat="42.0759" lon="0.74506">
        <ele>1073</ele>
        <time>2022-05-23 11:22:06</time>
      </trkpt>
      <trkpt lat="42.07589" lon="0.74505">
        <ele>1073.2</ele>
        <time>2022-05-23 11:22:07</time>
      </trkpt>
      <trkpt lat="42.07589" lon="0.74504">
        <ele>1073.4</ele>
        <time>2022-05-23 11:22:08</time>
      </trkpt>
      <trkpt lat="42.07587" lon="0.74502">
        <ele>1073.6</ele>
        <time>2022-05-23 11:22:09</time>
      </trkpt>
      <trkpt lat="42.07587" lon="0.74501">
        <ele>1073.8</ele>
        <time>2022-05-23 11:22:10</time>
      </trkpt>
      <trkpt lat="42.07586" lon="0.74499">
        <ele>1074</ele>
        <time>2022-05-23 11:22:11</time>
      </trkpt>
      <trkpt lat="42.07585" lon="0.74497">
        <ele>1074.2</ele>
        <time>2022-05-23 11:22:12</time>
      </trkpt>
      <trkpt lat="42.07584" lon="0.74496">
        <ele>1074.4</ele>
        <time>2022-05-23 11:22:13</time>
      </trkpt>
      <trkpt lat="42.07584" lon="0.74495">
        <ele>1074.6</ele>
        <time>2022-05-23 11:22:14</time>
      </trkpt>
      <trkpt lat="42.07583" lon="0.74493">
        <ele>1074.8</ele>
        <time>2022-05-23 11:22:15</time>
      </trkpt>
      <trkpt lat="42.07583" lon="0.74491">
        <ele>1075</ele>
        <time>2022-05-23 11:22:16</time>
      </trkpt>
      <trkpt lat="42.07583" lon="0.7449">
        <ele>1075.2</ele>
        <time>2022-05-23 11:22:17</time>
      </trkpt>
      <trkpt lat="42.07583" lon="0.74488">
        <ele>1075.4</ele>
        <time>2022-05-23 11:22:18</time>
      </trkpt>
      <trkpt lat="42.07584" lon="0.74486">
        <ele>1075.6</ele>
        <time>2022-05-23 11:22:19</time>
      </trkpt>
      <trkpt lat="42.07584" lon="0.74485">
        <ele>1075.6</ele>
        <time>2022-05-23 11:22:20</time>
      </trkpt>
      <trkpt lat="42.07584" lon="0.74483">
        <ele>1075.8</ele>
        <time>2022-05-23 11:22:21</time>
      </trkpt>
      <trkpt lat="42.07584" lon="0.74482">
        <ele>1076</ele>
        <time>2022-05-23 11:22:22</time>
      </trkpt>
      <trkpt lat="42.07583" lon="0.74481">
        <ele>1076.2</ele>
        <time>2022-05-23 11:22:23</time>
      </trkpt>
      <trkpt lat="42.07583" lon="0.74479">
        <ele>1076.2</ele>
        <time>2022-05-23 11:22:24</time>
      </trkpt>
      <trkpt lat="42.07583" lon="0.74478">
        <ele>1076.4</ele>
        <time>2022-05-23 11:22:25</time>
      </trkpt>
      <trkpt lat="42.07583" lon="0.74477">
        <ele>1076.6</ele>
        <time>2022-05-23 11:22:26</time>
      </trkpt>
      <trkpt lat="42.07583" lon="0.74475">
        <ele>1076.6</ele>
        <time>2022-05-23 11:22:27</time>
      </trkpt>
      <trkpt lat="42.07583" lon="0.74474">
        <ele>1076.8</ele>
        <time>2022-05-23 11:22:28</time>
      </trkpt>
      <trkpt lat="42.07583" lon="0.74472">
        <ele>1077</ele>
        <time>2022-05-23 11:22:29</time>
      </trkpt>
      <trkpt lat="42.07583" lon="0.7447">
        <ele>1077.2</ele>
        <time>2022-05-23 11:22:30</time>
      </trkpt>
      <trkpt lat="42.07583" lon="0.74468">
        <ele>1077.2</ele>
        <time>2022-05-23 11:22:31</time>
      </trkpt>
      <trkpt lat="42.07583" lon="0.74467">
        <ele>1077.4</ele>
        <time>2022-05-23 11:22:32</time>
      </trkpt>
      <trkpt lat="42.07583" lon="0.74465">
        <ele>1077.6</ele>
        <time>2022-05-23 11:22:33</time>
      </trkpt>
      <trkpt lat="42.07583" lon="0.74463">
        <ele>1077.6</ele>
        <time>2022-05-23 11:22:34</time>
      </trkpt>
      <trkpt lat="42.07583" lon="0.74461">
        <ele>1077.8</ele>
        <time>2022-05-23 11:22:35</time>
      </trkpt>
      <trkpt lat="42.07584" lon="0.7446">
        <ele>1078</ele>
        <time>2022-05-23 11:22:36</time>
      </trkpt>
      <trkpt lat="42.07584" lon="0.74458">
        <ele>1078</ele>
        <time>2022-05-23 11:22:37</time>
      </trkpt>
      <trkpt lat="42.07584" lon="0.74457">
        <ele>1078.2</ele>
        <time>2022-05-23 11:22:38</time>
      </trkpt>
      <trkpt lat="42.07583" lon="0.74455">
        <ele>1078.4</ele>
        <time>2022-05-23 11:22:39</time>
      </trkpt>
      <trkpt lat="42.07583" lon="0.74454">
        <ele>1078.6</ele>
        <time>2022-05-23 11:22:40</time>
      </trkpt>
      <trkpt lat="42.07583" lon="0.74452">
        <ele>1078.6</ele>
        <time>2022-05-23 11:22:41</time>
      </trkpt>
      <trkpt lat="42.07583" lon="0.7445">
        <ele>1078.8</ele>
        <time>2022-05-23 11:22:42</time>
      </trkpt>
      <trkpt lat="42.07583" lon="0.74448">
        <ele>1079</ele>
        <time>2022-05-23 11:22:43</time>
      </trkpt>
      <trkpt lat="42.07583" lon="0.74446">
        <ele>1079</ele>
        <time>2022-05-23 11:22:44</time>
      </trkpt>
      <trkpt lat="42.07583" lon="0.74445">
        <ele>1079.2</ele>
        <time>2022-05-23 11:22:45</time>
      </trkpt>
      <trkpt lat="42.07583" lon="0.74443">
        <ele>1079.2</ele>
        <time>2022-05-23 11:22:46</time>
      </trkpt>
      <trkpt lat="42.07583" lon="0.74441">
        <ele>1079.4</ele>
        <time>2022-05-23 11:22:47</time>
      </trkpt>
      <trkpt lat="42.07583" lon="0.74439">
        <ele>1079.4</ele>
        <time>2022-05-23 11:22:48</time>
      </trkpt>
      <trkpt lat="42.07583" lon="0.74437">
        <ele>1079.6</ele>
        <time>2022-05-23 11:22:49</time>
      </trkpt>
      <trkpt lat="42.07583" lon="0.74435">
        <ele>1079.8</ele>
        <time>2022-05-23 11:22:50</time>
      </trkpt>
      <trkpt lat="42.07583" lon="0.74433">
        <ele>1079.8</ele>
        <time>2022-05-23 11:22:51</time>
      </trkpt>
      <trkpt lat="42.07583" lon="0.74432">
        <ele>1080</ele>
        <time>2022-05-23 11:22:52</time>
      </trkpt>
      <trkpt lat="42.07583" lon="0.7443">
        <ele>1080</ele>
        <time>2022-05-23 11:22:53</time>
      </trkpt>
      <trkpt lat="42.07582" lon="0.74428">
        <ele>1080.2</ele>
        <time>2022-05-23 11:22:54</time>
      </trkpt>
      <trkpt lat="42.07582" lon="0.74426">
        <ele>1080.4</ele>
        <time>2022-05-23 11:22:55</time>
      </trkpt>
      <trkpt lat="42.07582" lon="0.74424">
        <ele>1080.4</ele>
        <time>2022-05-23 11:22:56</time>
      </trkpt>
      <trkpt lat="42.07582" lon="0.74422">
        <ele>1080.4</ele>
        <time>2022-05-23 11:22:57</time>
      </trkpt>
      <trkpt lat="42.07582" lon="0.7442">
        <ele>1080.6</ele>
        <time>2022-05-23 11:22:58</time>
      </trkpt>
      <trkpt lat="42.07581" lon="0.74418">
        <ele>1080.6</ele>
        <time>2022-05-23 11:22:59</time>
      </trkpt>
      <trkpt lat="42.07581" lon="0.74416">
        <ele>1080.8</ele>
        <time>2022-05-23 11:23:00</time>
      </trkpt>
      <trkpt lat="42.07581" lon="0.74414">
        <ele>1080.8</ele>
        <time>2022-05-23 11:23:01</time>
      </trkpt>
      <trkpt lat="42.07581" lon="0.74412">
        <ele>1081</ele>
        <time>2022-05-23 11:23:02</time>
      </trkpt>
      <trkpt lat="42.07581" lon="0.7441">
        <ele>1081</ele>
        <time>2022-05-23 11:23:03</time>
      </trkpt>
      <trkpt lat="42.07581" lon="0.74408">
        <ele>1081.2</ele>
        <time>2022-05-23 11:23:04</time>
      </trkpt>
      <trkpt lat="42.07581" lon="0.74406">
        <ele>1081.2</ele>
        <time>2022-05-23 11:23:05</time>
      </trkpt>
      <trkpt lat="42.07581" lon="0.74404">
        <ele>1081.4</ele>
        <time>2022-05-23 11:23:06</time>
      </trkpt>
      <trkpt lat="42.07581" lon="0.74401">
        <ele>1081.4</ele>
        <time>2022-05-23 11:23:07</time>
      </trkpt>
      <trkpt lat="42.0758" lon="0.74399">
        <ele>1081.6</ele>
        <time>2022-05-23 11:23:08</time>
      </trkpt>
      <trkpt lat="42.0758" lon="0.74397">
        <ele>1081.6</ele>
        <time>2022-05-23 11:23:09</time>
      </trkpt>
      <trkpt lat="42.0758" lon="0.74395">
        <ele>1081.8</ele>
        <time>2022-05-23 11:23:10</time>
      </trkpt>
      <trkpt lat="42.0758" lon="0.74393">
        <ele>1082</ele>
        <time>2022-05-23 11:23:11</time>
      </trkpt>
      <trkpt lat="42.07579" lon="0.74391">
        <ele>1082</ele>
        <time>2022-05-23 11:23:12</time>
      </trkpt>
      <trkpt lat="42.07579" lon="0.7439">
        <ele>1082.2</ele>
        <time>2022-05-23 11:23:13</time>
      </trkpt>
      <trkpt lat="42.07579" lon="0.74388">
        <ele>1082.2</ele>
        <time>2022-05-23 11:23:14</time>
      </trkpt>
      <trkpt lat="42.07579" lon="0.74387">
        <ele>1082.4</ele>
        <time>2022-05-23 11:23:15</time>
      </trkpt>
      <trkpt lat="42.07579" lon="0.74385">
        <ele>1082.6</ele>
        <time>2022-05-23 11:23:16</time>
      </trkpt>
      <trkpt lat="42.07579" lon="0.74383">
        <ele>1082.6</ele>
        <time>2022-05-23 11:23:17</time>
      </trkpt>
      <trkpt lat="42.07579" lon="0.74381">
        <ele>1082.8</ele>
        <time>2022-05-23 11:23:18</time>
      </trkpt>
      <trkpt lat="42.07579" lon="0.74379">
        <ele>1083</ele>
        <time>2022-05-23 11:23:19</time>
      </trkpt>
      <trkpt lat="42.07579" lon="0.74377">
        <ele>1083</ele>
        <time>2022-05-23 11:23:20</time>
      </trkpt>
      <trkpt lat="42.07579" lon="0.74376">
        <ele>1083.2</ele>
        <time>2022-05-23 11:23:21</time>
      </trkpt>
      <trkpt lat="42.0758" lon="0.74372">
        <ele>1083.4</ele>
        <time>2022-05-23 11:23:22</time>
      </trkpt>
      <trkpt lat="42.07579" lon="0.74369">
        <ele>1083.4</ele>
        <time>2022-05-23 11:23:23</time>
      </trkpt>
      <trkpt lat="42.0758" lon="0.74367">
        <ele>1083.6</ele>
        <time>2022-05-23 11:23:24</time>
      </trkpt>
      <trkpt lat="42.07581" lon="0.74364">
        <ele>1083.6</ele>
        <time>2022-05-23 11:23:25</time>
      </trkpt>
      <trkpt lat="42.07581" lon="0.74361">
        <ele>1083.8</ele>
        <time>2022-05-23 11:23:26</time>
      </trkpt>
      <trkpt lat="42.07581" lon="0.74359">
        <ele>1084</ele>
        <time>2022-05-23 11:23:27</time>
      </trkpt>
      <trkpt lat="42.07581" lon="0.74357">
        <ele>1084</ele>
        <time>2022-05-23 11:23:28</time>
      </trkpt>
      <trkpt lat="42.07582" lon="0.74355">
        <ele>1084.2</ele>
        <time>2022-05-23 11:23:29</time>
      </trkpt>
      <trkpt lat="42.07583" lon="0.74353">
        <ele>1084.2</ele>
        <time>2022-05-23 11:23:30</time>
      </trkpt>
      <trkpt lat="42.07583" lon="0.74351">
        <ele>1084.4</ele>
        <time>2022-05-23 11:23:31</time>
      </trkpt>
      <trkpt lat="42.07583" lon="0.74349">
        <ele>1084.6</ele>
        <time>2022-05-23 11:23:32</time>
      </trkpt>
      <trkpt lat="42.07583" lon="0.74347">
        <ele>1084.6</ele>
        <time>2022-05-23 11:23:33</time>
      </trkpt>
      <trkpt lat="42.07583" lon="0.74345">
        <ele>1084.8</ele>
        <time>2022-05-23 11:23:34</time>
      </trkpt>
      <trkpt lat="42.07582" lon="0.74344">
        <ele>1085</ele>
        <time>2022-05-23 11:23:35</time>
      </trkpt>
      <trkpt lat="42.07583" lon="0.74342">
        <ele>1085</ele>
        <time>2022-05-23 11:23:36</time>
      </trkpt>
      <trkpt lat="42.07583" lon="0.7434">
        <ele>1085.2</ele>
        <time>2022-05-23 11:23:37</time>
      </trkpt>
      <trkpt lat="42.07583" lon="0.74338">
        <ele>1085.4</ele>
        <time>2022-05-23 11:23:38</time>
      </trkpt>
      <trkpt lat="42.07583" lon="0.74335">
        <ele>1085.4</ele>
        <time>2022-05-23 11:23:39</time>
      </trkpt>
      <trkpt lat="42.07583" lon="0.74333">
        <ele>1085.6</ele>
        <time>2022-05-23 11:23:40</time>
      </trkpt>
      <trkpt lat="42.07583" lon="0.74331">
        <ele>1085.6</ele>
        <time>2022-05-23 11:23:41</time>
      </trkpt>
      <trkpt lat="42.07582" lon="0.74328">
        <ele>1085.8</ele>
        <time>2022-05-23 11:23:42</time>
      </trkpt>
      <trkpt lat="42.07582" lon="0.74326">
        <ele>1086</ele>
        <time>2022-05-23 11:23:43</time>
      </trkpt>
      <trkpt lat="42.07582" lon="0.74324">
        <ele>1086</ele>
        <time>2022-05-23 11:23:44</time>
      </trkpt>
      <trkpt lat="42.07582" lon="0.74321">
        <ele>1086.2</ele>
        <time>2022-05-23 11:23:45</time>
      </trkpt>
      <trkpt lat="42.07582" lon="0.74319">
        <ele>1086.4</ele>
        <time>2022-05-23 11:23:46</time>
      </trkpt>
      <trkpt lat="42.07582" lon="0.74317">
        <ele>1086.4</ele>
        <time>2022-05-23 11:23:47</time>
      </trkpt>
      <trkpt lat="42.07582" lon="0.74315">
        <ele>1086.6</ele>
        <time>2022-05-23 11:23:48</time>
      </trkpt>
      <trkpt lat="42.07582" lon="0.74313">
        <ele>1086.8</ele>
        <time>2022-05-23 11:23:49</time>
      </trkpt>
      <trkpt lat="42.07582" lon="0.74311">
        <ele>1086.8</ele>
        <time>2022-05-23 11:23:50</time>
      </trkpt>
      <trkpt lat="42.07582" lon="0.74309">
        <ele>1087</ele>
        <time>2022-05-23 11:23:51</time>
      </trkpt>
      <trkpt lat="42.07582" lon="0.74307">
        <ele>1087.2</ele>
        <time>2022-05-23 11:23:52</time>
      </trkpt>
      <trkpt lat="42.07582" lon="0.74305">
        <ele>1087.2</ele>
        <time>2022-05-23 11:23:53</time>
      </trkpt>
      <trkpt lat="42.07582" lon="0.74303">
        <ele>1087.4</ele>
        <time>2022-05-23 11:23:54</time>
      </trkpt>
      <trkpt lat="42.07582" lon="0.743">
        <ele>1087.6</ele>
        <time>2022-05-23 11:23:55</time>
      </trkpt>
      <trkpt lat="42.07581" lon="0.74298">
        <ele>1087.8</ele>
        <time>2022-05-23 11:23:56</time>
      </trkpt>
      <trkpt lat="42.07581" lon="0.74296">
        <ele>1087.8</ele>
        <time>2022-05-23 11:23:57</time>
      </trkpt>
      <trkpt lat="42.07581" lon="0.74294">
        <ele>1088</ele>
        <time>2022-05-23 11:23:58</time>
      </trkpt>
      <trkpt lat="42.07581" lon="0.74292">
        <ele>1088.2</ele>
        <time>2022-05-23 11:23:59</time>
      </trkpt>
      <trkpt lat="42.07581" lon="0.74289">
        <ele>1088.4</ele>
        <time>2022-05-23 11:24:00</time>
      </trkpt>
      <trkpt lat="42.07581" lon="0.74287">
        <ele>1088.4</ele>
        <time>2022-05-23 11:24:01</time>
      </trkpt>
      <trkpt lat="42.07581" lon="0.74285">
        <ele>1088.6</ele>
        <time>2022-05-23 11:24:02</time>
      </trkpt>
      <trkpt lat="42.07581" lon="0.74283">
        <ele>1088.8</ele>
        <time>2022-05-23 11:24:03</time>
      </trkpt>
      <trkpt lat="42.07581" lon="0.74281">
        <ele>1088.8</ele>
        <time>2022-05-23 11:24:04</time>
      </trkpt>
      <trkpt lat="42.07581" lon="0.74279">
        <ele>1089</ele>
        <time>2022-05-23 11:24:05</time>
      </trkpt>
      <trkpt lat="42.07581" lon="0.74277">
        <ele>1089.2</ele>
        <time>2022-05-23 11:24:06</time>
      </trkpt>
      <trkpt lat="42.07581" lon="0.74274">
        <ele>1089.4</ele>
        <time>2022-05-23 11:24:07</time>
      </trkpt>
      <trkpt lat="42.07581" lon="0.74273">
        <ele>1089.4</ele>
        <time>2022-05-23 11:24:08</time>
      </trkpt>
      <trkpt lat="42.07581" lon="0.74271">
        <ele>1089.6</ele>
        <time>2022-05-23 11:24:09</time>
      </trkpt>
      <trkpt lat="42.07581" lon="0.74269">
        <ele>1089.8</ele>
        <time>2022-05-23 11:24:10</time>
      </trkpt>
      <trkpt lat="42.0758" lon="0.74267">
        <ele>1089.8</ele>
        <time>2022-05-23 11:24:11</time>
      </trkpt>
      <trkpt lat="42.0758" lon="0.74265">
        <ele>1090</ele>
        <time>2022-05-23 11:24:12</time>
      </trkpt>
      <trkpt lat="42.0758" lon="0.74262">
        <ele>1090</ele>
        <time>2022-05-23 11:24:13</time>
      </trkpt>
      <trkpt lat="42.07581" lon="0.7426">
        <ele>1090.2</ele>
        <time>2022-05-23 11:24:14</time>
      </trkpt>
      <trkpt lat="42.07581" lon="0.74258">
        <ele>1090.4</ele>
        <time>2022-05-23 11:24:15</time>
      </trkpt>
      <trkpt lat="42.07581" lon="0.74255">
        <ele>1090.4</ele>
        <time>2022-05-23 11:24:16</time>
      </trkpt>
      <trkpt lat="42.07581" lon="0.74254">
        <ele>1090.6</ele>
        <time>2022-05-23 11:24:17</time>
      </trkpt>
      <trkpt lat="42.07581" lon="0.74251">
        <ele>1090.6</ele>
        <time>2022-05-23 11:24:18</time>
      </trkpt>
      <trkpt lat="42.07581" lon="0.74249">
        <ele>1090.8</ele>
        <time>2022-05-23 11:24:19</time>
      </trkpt>
      <trkpt lat="42.07581" lon="0.74247">
        <ele>1091</ele>
        <time>2022-05-23 11:24:20</time>
      </trkpt>
      <trkpt lat="42.0758" lon="0.74245">
        <ele>1091</ele>
        <time>2022-05-23 11:24:21</time>
      </trkpt>
      <trkpt lat="42.07581" lon="0.74243">
        <ele>1091.2</ele>
        <time>2022-05-23 11:24:22</time>
      </trkpt>
      <trkpt lat="42.07581" lon="0.74241">
        <ele>1091.4</ele>
        <time>2022-05-23 11:24:23</time>
      </trkpt>
      <trkpt lat="42.07581" lon="0.74239">
        <ele>1091.4</ele>
        <time>2022-05-23 11:24:24</time>
      </trkpt>
      <trkpt lat="42.07581" lon="0.74236">
        <ele>1091.6</ele>
        <time>2022-05-23 11:24:25</time>
      </trkpt>
      <trkpt lat="42.07581" lon="0.74234">
        <ele>1091.6</ele>
        <time>2022-05-23 11:24:26</time>
      </trkpt>
      <trkpt lat="42.07581" lon="0.74233">
        <ele>1091.8</ele>
        <time>2022-05-23 11:24:27</time>
      </trkpt>
      <trkpt lat="42.07581" lon="0.74231">
        <ele>1091.8</ele>
        <time>2022-05-23 11:24:28</time>
      </trkpt>
      <trkpt lat="42.07582" lon="0.74229">
        <ele>1092</ele>
        <time>2022-05-23 11:24:29</time>
      </trkpt>
      <trkpt lat="42.07581" lon="0.74227">
        <ele>1092.2</ele>
        <time>2022-05-23 11:24:30</time>
      </trkpt>
      <trkpt lat="42.07581" lon="0.74226">
        <ele>1092.2</ele>
        <time>2022-05-23 11:24:31</time>
      </trkpt>
      <trkpt lat="42.07582" lon="0.74224">
        <ele>1092.4</ele>
        <time>2022-05-23 11:24:32</time>
      </trkpt>
      <trkpt lat="42.07582" lon="0.74222">
        <ele>1092.6</ele>
        <time>2022-05-23 11:24:33</time>
      </trkpt>
      <trkpt lat="42.07582" lon="0.74221">
        <ele>1092.6</ele>
        <time>2022-05-23 11:24:34</time>
      </trkpt>
      <trkpt lat="42.07582" lon="0.74219">
        <ele>1092.8</ele>
        <time>2022-05-23 11:24:35</time>
      </trkpt>
      <trkpt lat="42.07582" lon="0.74217">
        <ele>1093</ele>
        <time>2022-05-23 11:24:36</time>
      </trkpt>
      <trkpt lat="42.07582" lon="0.74216">
        <ele>1093.2</ele>
        <time>2022-05-23 11:24:37</time>
      </trkpt>
      <trkpt lat="42.07582" lon="0.74214">
        <ele>1093.4</ele>
        <time>2022-05-23 11:24:38</time>
      </trkpt>
      <trkpt lat="42.07582" lon="0.74212">
        <ele>1093.6</ele>
        <time>2022-05-23 11:24:39</time>
      </trkpt>
      <trkpt lat="42.07582" lon="0.7421">
        <ele>1093.6</ele>
        <time>2022-05-23 11:24:40</time>
      </trkpt>
      <trkpt lat="42.07582" lon="0.74208">
        <ele>1093.8</ele>
        <time>2022-05-23 11:24:41</time>
      </trkpt>
      <trkpt lat="42.07582" lon="0.74206">
        <ele>1094</ele>
        <time>2022-05-23 11:24:42</time>
      </trkpt>
      <trkpt lat="42.07583" lon="0.74204">
        <ele>1094</ele>
        <time>2022-05-23 11:24:43</time>
      </trkpt>
      <trkpt lat="42.07583" lon="0.74202">
        <ele>1094.2</ele>
        <time>2022-05-23 11:24:44</time>
      </trkpt>
      <trkpt lat="42.07583" lon="0.742">
        <ele>1094.2</ele>
        <time>2022-05-23 11:24:45</time>
      </trkpt>
      <trkpt lat="42.07584" lon="0.74198">
        <ele>1094.4</ele>
        <time>2022-05-23 11:24:46</time>
      </trkpt>
      <trkpt lat="42.07584" lon="0.74196">
        <ele>1094.6</ele>
        <time>2022-05-23 11:24:47</time>
      </trkpt>
      <trkpt lat="42.07584" lon="0.74194">
        <ele>1094.6</ele>
        <time>2022-05-23 11:24:48</time>
      </trkpt>
      <trkpt lat="42.07584" lon="0.74191">
        <ele>1094.8</ele>
        <time>2022-05-23 11:24:49</time>
      </trkpt>
      <trkpt lat="42.07584" lon="0.74189">
        <ele>1095</ele>
        <time>2022-05-23 11:24:50</time>
      </trkpt>
      <trkpt lat="42.07584" lon="0.74187">
        <ele>1095.2</ele>
        <time>2022-05-23 11:24:51</time>
      </trkpt>
      <trkpt lat="42.07584" lon="0.74185">
        <ele>1095.2</ele>
        <time>2022-05-23 11:24:52</time>
      </trkpt>
      <trkpt lat="42.07585" lon="0.74183">
        <ele>1095.4</ele>
        <time>2022-05-23 11:24:53</time>
      </trkpt>
      <trkpt lat="42.07585" lon="0.7418">
        <ele>1095.4</ele>
        <time>2022-05-23 11:24:54</time>
      </trkpt>
      <trkpt lat="42.07585" lon="0.74178">
        <ele>1095.6</ele>
        <time>2022-05-23 11:24:55</time>
      </trkpt>
      <trkpt lat="42.07585" lon="0.74176">
        <ele>1095.8</ele>
        <time>2022-05-23 11:24:56</time>
      </trkpt>
      <trkpt lat="42.07585" lon="0.74174">
        <ele>1095.8</ele>
        <time>2022-05-23 11:24:57</time>
      </trkpt>
      <trkpt lat="42.07585" lon="0.74172">
        <ele>1096</ele>
        <time>2022-05-23 11:24:58</time>
      </trkpt>
      <trkpt lat="42.07585" lon="0.7417">
        <ele>1096.2</ele>
        <time>2022-05-23 11:24:59</time>
      </trkpt>
      <trkpt lat="42.07586" lon="0.74168">
        <ele>1096.2</ele>
        <time>2022-05-23 11:25:00</time>
      </trkpt>
      <trkpt lat="42.07586" lon="0.74166">
        <ele>1096.4</ele>
        <time>2022-05-23 11:25:01</time>
      </trkpt>
      <trkpt lat="42.07586" lon="0.74164">
        <ele>1096.4</ele>
        <time>2022-05-23 11:25:02</time>
      </trkpt>
      <trkpt lat="42.07586" lon="0.74162">
        <ele>1096.6</ele>
        <time>2022-05-23 11:25:03</time>
      </trkpt>
      <trkpt lat="42.07586" lon="0.74159">
        <ele>1096.8</ele>
        <time>2022-05-23 11:25:04</time>
      </trkpt>
      <trkpt lat="42.07586" lon="0.74156">
        <ele>1097</ele>
        <time>2022-05-23 11:25:05</time>
      </trkpt>
      <trkpt lat="42.07586" lon="0.74154">
        <ele>1097.2</ele>
        <time>2022-05-23 11:25:06</time>
      </trkpt>
      <trkpt lat="42.07586" lon="0.74151">
        <ele>1097.2</ele>
        <time>2022-05-23 11:25:07</time>
      </trkpt>
      <trkpt lat="42.07586" lon="0.74149">
        <ele>1097.4</ele>
        <time>2022-05-23 11:25:08</time>
      </trkpt>
      <trkpt lat="42.07587" lon="0.74147">
        <ele>1097.6</ele>
        <time>2022-05-23 11:25:09</time>
      </trkpt>
      <trkpt lat="42.07587" lon="0.74145">
        <ele>1097.6</ele>
        <time>2022-05-23 11:25:10</time>
      </trkpt>
      <trkpt lat="42.07587" lon="0.74142">
        <ele>1097.8</ele>
        <time>2022-05-23 11:25:11</time>
      </trkpt>
      <trkpt lat="42.07587" lon="0.7414">
        <ele>1098</ele>
        <time>2022-05-23 11:25:12</time>
      </trkpt>
      <trkpt lat="42.07587" lon="0.74138">
        <ele>1098.2</ele>
        <time>2022-05-23 11:25:13</time>
      </trkpt>
      <trkpt lat="42.07587" lon="0.74135">
        <ele>1098.4</ele>
        <time>2022-05-23 11:25:14</time>
      </trkpt>
      <trkpt lat="42.07587" lon="0.74133">
        <ele>1098.6</ele>
        <time>2022-05-23 11:25:15</time>
      </trkpt>
      <trkpt lat="42.07587" lon="0.74131">
        <ele>1098.6</ele>
        <time>2022-05-23 11:25:16</time>
      </trkpt>
      <trkpt lat="42.07587" lon="0.74129">
        <ele>1098.8</ele>
        <time>2022-05-23 11:25:17</time>
      </trkpt>
      <trkpt lat="42.07587" lon="0.74126">
        <ele>1099</ele>
        <time>2022-05-23 11:25:18</time>
      </trkpt>
      <trkpt lat="42.07587" lon="0.74124">
        <ele>1099.2</ele>
        <time>2022-05-23 11:25:19</time>
      </trkpt>
      <trkpt lat="42.07586" lon="0.74122">
        <ele>1099.2</ele>
        <time>2022-05-23 11:25:20</time>
      </trkpt>
      <trkpt lat="42.07586" lon="0.7412">
        <ele>1099.4</ele>
        <time>2022-05-23 11:25:21</time>
      </trkpt>
      <trkpt lat="42.07586" lon="0.74118">
        <ele>1099.6</ele>
        <time>2022-05-23 11:25:22</time>
      </trkpt>
      <trkpt lat="42.07587" lon="0.74116">
        <ele>1099.8</ele>
        <time>2022-05-23 11:25:23</time>
      </trkpt>
      <trkpt lat="42.07587" lon="0.74113">
        <ele>1099.8</ele>
        <time>2022-05-23 11:25:24</time>
      </trkpt>
      <trkpt lat="42.07587" lon="0.7411">
        <ele>1100</ele>
        <time>2022-05-23 11:25:25</time>
      </trkpt>
      <trkpt lat="42.07586" lon="0.74108">
        <ele>1100.2</ele>
        <time>2022-05-23 11:25:26</time>
      </trkpt>
      <trkpt lat="42.07586" lon="0.74106">
        <ele>1100.4</ele>
        <time>2022-05-23 11:25:27</time>
      </trkpt>
      <trkpt lat="42.07586" lon="0.74103">
        <ele>1100.4</ele>
        <time>2022-05-23 11:25:28</time>
      </trkpt>
      <trkpt lat="42.07586" lon="0.74101">
        <ele>1100.6</ele>
        <time>2022-05-23 11:25:29</time>
      </trkpt>
      <trkpt lat="42.07585" lon="0.74099">
        <ele>1100.8</ele>
        <time>2022-05-23 11:25:30</time>
      </trkpt>
      <trkpt lat="42.07585" lon="0.74096">
        <ele>1101</ele>
        <time>2022-05-23 11:25:31</time>
      </trkpt>
      <trkpt lat="42.07585" lon="0.74094">
        <ele>1101</ele>
        <time>2022-05-23 11:25:32</time>
      </trkpt>
      <trkpt lat="42.07585" lon="0.74092">
        <ele>1101.2</ele>
        <time>2022-05-23 11:25:33</time>
      </trkpt>
      <trkpt lat="42.07585" lon="0.7409">
        <ele>1101.4</ele>
        <time>2022-05-23 11:25:34</time>
      </trkpt>
      <trkpt lat="42.07584" lon="0.74088">
        <ele>1101.6</ele>
        <time>2022-05-23 11:25:35</time>
      </trkpt>
      <trkpt lat="42.07584" lon="0.74086">
        <ele>1101.8</ele>
        <time>2022-05-23 11:25:36</time>
      </trkpt>
      <trkpt lat="42.07583" lon="0.74084">
        <ele>1101.8</ele>
        <time>2022-05-23 11:25:37</time>
      </trkpt>
      <trkpt lat="42.07583" lon="0.74082">
        <ele>1102</ele>
        <time>2022-05-23 11:25:38</time>
      </trkpt>
      <trkpt lat="42.07582" lon="0.74079">
        <ele>1102.2</ele>
        <time>2022-05-23 11:25:39</time>
      </trkpt>
      <trkpt lat="42.07582" lon="0.74077">
        <ele>1102.2</ele>
        <time>2022-05-23 11:25:40</time>
      </trkpt>
      <trkpt lat="42.07581" lon="0.74075">
        <ele>1102.4</ele>
        <time>2022-05-23 11:25:41</time>
      </trkpt>
      <trkpt lat="42.0758" lon="0.74073">
        <ele>1102.6</ele>
        <time>2022-05-23 11:25:42</time>
      </trkpt>
      <trkpt lat="42.0758" lon="0.74071">
        <ele>1102.8</ele>
        <time>2022-05-23 11:25:43</time>
      </trkpt>
      <trkpt lat="42.07579" lon="0.74069">
        <ele>1103</ele>
        <time>2022-05-23 11:25:44</time>
      </trkpt>
      <trkpt lat="42.07579" lon="0.74067">
        <ele>1103</ele>
        <time>2022-05-23 11:25:45</time>
      </trkpt>
      <trkpt lat="42.07578" lon="0.74065">
        <ele>1103.2</ele>
        <time>2022-05-23 11:25:46</time>
      </trkpt>
      <trkpt lat="42.07577" lon="0.74063">
        <ele>1103.4</ele>
        <time>2022-05-23 11:25:47</time>
      </trkpt>
      <trkpt lat="42.07577" lon="0.7406">
        <ele>1103.4</ele>
        <time>2022-05-23 11:25:48</time>
      </trkpt>
      <trkpt lat="42.07578" lon="0.74058">
        <ele>1103.6</ele>
        <time>2022-05-23 11:25:49</time>
      </trkpt>
      <trkpt lat="42.07578" lon="0.74056">
        <ele>1103.8</ele>
        <time>2022-05-23 11:25:50</time>
      </trkpt>
      <trkpt lat="42.07578" lon="0.74054">
        <ele>1103.8</ele>
        <time>2022-05-23 11:25:51</time>
      </trkpt>
      <trkpt lat="42.07578" lon="0.74052">
        <ele>1103.8</ele>
        <time>2022-05-23 11:25:52</time>
      </trkpt>
      <trkpt lat="42.07578" lon="0.7405">
        <ele>1104</ele>
        <time>2022-05-23 11:25:53</time>
      </trkpt>
      <trkpt lat="42.07579" lon="0.74048">
        <ele>1104</ele>
        <time>2022-05-23 11:25:54</time>
      </trkpt>
      <trkpt lat="42.07579" lon="0.74045">
        <ele>1104.2</ele>
        <time>2022-05-23 11:25:55</time>
      </trkpt>
      <trkpt lat="42.0758" lon="0.74043">
        <ele>1104.4</ele>
        <time>2022-05-23 11:25:56</time>
      </trkpt>
      <trkpt lat="42.0758" lon="0.74041">
        <ele>1104.6</ele>
        <time>2022-05-23 11:25:57</time>
      </trkpt>
      <trkpt lat="42.0758" lon="0.74038">
        <ele>1104.6</ele>
        <time>2022-05-23 11:25:58</time>
      </trkpt>
      <trkpt lat="42.0758" lon="0.74037">
        <ele>1104.6</ele>
        <time>2022-05-23 11:25:59</time>
      </trkpt>
      <trkpt lat="42.0758" lon="0.74035">
        <ele>1104.8</ele>
        <time>2022-05-23 11:26:00</time>
      </trkpt>
      <trkpt lat="42.0758" lon="0.74032">
        <ele>1104.8</ele>
        <time>2022-05-23 11:26:01</time>
      </trkpt>
      <trkpt lat="42.0758" lon="0.7403">
        <ele>1105</ele>
        <time>2022-05-23 11:26:02</time>
      </trkpt>
      <trkpt lat="42.07581" lon="0.74028">
        <ele>1105</ele>
        <time>2022-05-23 11:26:03</time>
      </trkpt>
      <trkpt lat="42.07581" lon="0.74026">
        <ele>1105</ele>
        <time>2022-05-23 11:26:04</time>
      </trkpt>
      <trkpt lat="42.07581" lon="0.74024">
        <ele>1105.2</ele>
        <time>2022-05-23 11:26:05</time>
      </trkpt>
      <trkpt lat="42.07581" lon="0.74022">
        <ele>1105.4</ele>
        <time>2022-05-23 11:26:06</time>
      </trkpt>
      <trkpt lat="42.07581" lon="0.7402">
        <ele>1105.6</ele>
        <time>2022-05-23 11:26:07</time>
      </trkpt>
      <trkpt lat="42.07581" lon="0.74018">
        <ele>1105.8</ele>
        <time>2022-05-23 11:26:08</time>
      </trkpt>
      <trkpt lat="42.07581" lon="0.74015">
        <ele>1106</ele>
        <time>2022-05-23 11:26:09</time>
      </trkpt>
      <trkpt lat="42.07582" lon="0.74013">
        <ele>1106</ele>
        <time>2022-05-23 11:26:10</time>
      </trkpt>
      <trkpt lat="42.07585" lon="0.74013">
        <ele>1106.2</ele>
        <time>2022-05-23 11:26:11</time>
      </trkpt>
      <trkpt lat="42.07589" lon="0.74013">
        <ele>1106.2</ele>
        <time>2022-05-23 11:26:12</time>
      </trkpt>
      <trkpt lat="42.07592" lon="0.74012">
        <ele>1106.4</ele>
        <time>2022-05-23 11:26:13</time>
      </trkpt>
      <trkpt lat="42.0759" lon="0.74012">
        <ele>1106.4</ele>
        <time>2022-05-23 11:26:14</time>
      </trkpt>
      <trkpt lat="42.07589" lon="0.74009">
        <ele>1106.6</ele>
        <time>2022-05-23 11:26:15</time>
      </trkpt>
      <trkpt lat="42.07588" lon="0.74006">
        <ele>1106.6</ele>
        <time>2022-05-23 11:26:16</time>
      </trkpt>
      <trkpt lat="42.07588" lon="0.74003">
        <ele>1106.8</ele>
        <time>2022-05-23 11:26:17</time>
      </trkpt>
      <trkpt lat="42.07586" lon="0.74001">
        <ele>1106.8</ele>
        <time>2022-05-23 11:26:18</time>
      </trkpt>
      <trkpt lat="42.07586" lon="0.73998">
        <ele>1107</ele>
        <time>2022-05-23 11:26:19</time>
      </trkpt>
      <trkpt lat="42.07583" lon="0.73994">
        <ele>1107.2</ele>
        <time>2022-05-23 11:26:20</time>
      </trkpt>
      <trkpt lat="42.07584" lon="0.73993">
        <ele>1107.4</ele>
        <time>2022-05-23 11:26:21</time>
      </trkpt>
      <trkpt lat="42.07584" lon="0.73991">
        <ele>1107.6</ele>
        <time>2022-05-23 11:26:22</time>
      </trkpt>
      <trkpt lat="42.07583" lon="0.73989">
        <ele>1107.6</ele>
        <time>2022-05-23 11:26:23</time>
      </trkpt>
      <trkpt lat="42.07582" lon="0.73987">
        <ele>1107.8</ele>
        <time>2022-05-23 11:26:24</time>
      </trkpt>
      <trkpt lat="42.07584" lon="0.73974">
        <ele>1108.4</ele>
        <time>2022-05-23 11:26:25</time>
      </trkpt>
      <trkpt lat="42.07584" lon="0.73972">
        <ele>1108.4</ele>
        <time>2022-05-23 11:26:26</time>
      </trkpt>
      <trkpt lat="42.07584" lon="0.7397">
        <ele>1108.4</ele>
        <time>2022-05-23 11:26:27</time>
      </trkpt>
      <trkpt lat="42.07584" lon="0.73969">
        <ele>1108.4</ele>
        <time>2022-05-23 11:26:28</time>
      </trkpt>
      <trkpt lat="42.07584" lon="0.73968">
        <ele>1108.4</ele>
        <time>2022-05-23 11:26:29</time>
      </trkpt>
      <trkpt lat="42.07583" lon="0.73966">
        <ele>1108.6</ele>
        <time>2022-05-23 11:26:30</time>
      </trkpt>
      <trkpt lat="42.07583" lon="0.73964">
        <ele>1108.6</ele>
        <time>2022-05-23 11:26:31</time>
      </trkpt>
      <trkpt lat="42.07583" lon="0.73962">
        <ele>1108.6</ele>
        <time>2022-05-23 11:26:32</time>
      </trkpt>
      <trkpt lat="42.07583" lon="0.73961">
        <ele>1108.8</ele>
        <time>2022-05-23 11:26:33</time>
      </trkpt>
      <trkpt lat="42.07582" lon="0.73959">
        <ele>1108.8</ele>
        <time>2022-05-23 11:26:34</time>
      </trkpt>
      <trkpt lat="42.07582" lon="0.73957">
        <ele>1108.8</ele>
        <time>2022-05-23 11:26:35</time>
      </trkpt>
      <trkpt lat="42.07582" lon="0.73956">
        <ele>1109</ele>
        <time>2022-05-23 11:26:36</time>
      </trkpt>
      <trkpt lat="42.07582" lon="0.73954">
        <ele>1109.2</ele>
        <time>2022-05-23 11:26:37</time>
      </trkpt>
      <trkpt lat="42.07581" lon="0.73952">
        <ele>1109.2</ele>
        <time>2022-05-23 11:26:38</time>
      </trkpt>
      <trkpt lat="42.07581" lon="0.7395">
        <ele>1109.4</ele>
        <time>2022-05-23 11:26:39</time>
      </trkpt>
      <trkpt lat="42.07581" lon="0.73948">
        <ele>1109.4</ele>
        <time>2022-05-23 11:26:40</time>
      </trkpt>
      <trkpt lat="42.0758" lon="0.73946">
        <ele>1109.6</ele>
        <time>2022-05-23 11:26:41</time>
      </trkpt>
      <trkpt lat="42.0758" lon="0.73944">
        <ele>1109.8</ele>
        <time>2022-05-23 11:26:42</time>
      </trkpt>
      <trkpt lat="42.07579" lon="0.73941">
        <ele>1110</ele>
        <time>2022-05-23 11:26:43</time>
      </trkpt>
      <trkpt lat="42.07579" lon="0.73939">
        <ele>1110</ele>
        <time>2022-05-23 11:26:44</time>
      </trkpt>
      <trkpt lat="42.07578" lon="0.73937">
        <ele>1110.2</ele>
        <time>2022-05-23 11:26:45</time>
      </trkpt>
      <trkpt lat="42.07578" lon="0.73935">
        <ele>1110.2</ele>
        <time>2022-05-23 11:26:46</time>
      </trkpt>
      <trkpt lat="42.07577" lon="0.73932">
        <ele>1110.4</ele>
        <time>2022-05-23 11:26:47</time>
      </trkpt>
      <trkpt lat="42.07577" lon="0.7393">
        <ele>1110.4</ele>
        <time>2022-05-23 11:26:48</time>
      </trkpt>
      <trkpt lat="42.07576" lon="0.73928">
        <ele>1110.6</ele>
        <time>2022-05-23 11:29:34</time>
      </trkpt>
      <trkpt lat="42.07576" lon="0.73926">
        <ele>1110.6</ele>
        <time>2022-05-23 11:29:35</time>
      </trkpt>
      <trkpt lat="42.07575" lon="0.73924">
        <ele>1110.8</ele>
        <time>2022-05-23 11:29:36</time>
      </trkpt>
      <trkpt lat="42.07575" lon="0.73922">
        <ele>1111</ele>
        <time>2022-05-23 11:29:37</time>
      </trkpt>
      <trkpt lat="42.07574" lon="0.7392">
        <ele>1111.4</ele>
        <time>2022-05-23 11:29:38</time>
      </trkpt>
      <trkpt lat="42.07574" lon="0.73918">
        <ele>1111.6</ele>
        <time>2022-05-23 11:29:39</time>
      </trkpt>
      <trkpt lat="42.07573" lon="0.73916">
        <ele>1111.8</ele>
        <time>2022-05-23 11:29:40</time>
      </trkpt>
      <trkpt lat="42.07573" lon="0.73914">
        <ele>1111.8</ele>
        <time>2022-05-23 11:29:41</time>
      </trkpt>
      <trkpt lat="42.07572" lon="0.73912">
        <ele>1112</ele>
        <time>2022-05-23 11:29:42</time>
      </trkpt>
      <trkpt lat="42.07571" lon="0.73911">
        <ele>1112.2</ele>
        <time>2022-05-23 11:29:43</time>
      </trkpt>
      <trkpt lat="42.0757" lon="0.73909">
        <ele>1112.4</ele>
        <time>2022-05-23 11:29:44</time>
      </trkpt>
      <trkpt lat="42.07569" lon="0.73907">
        <ele>1112.4</ele>
        <time>2022-05-23 11:29:45</time>
      </trkpt>
      <trkpt lat="42.07568" lon="0.73905">
        <ele>1112.6</ele>
        <time>2022-05-23 11:29:46</time>
      </trkpt>
      <trkpt lat="42.07568" lon="0.73904">
        <ele>1112.8</ele>
        <time>2022-05-23 11:29:47</time>
      </trkpt>
      <trkpt lat="42.07567" lon="0.73902">
        <ele>1112.8</ele>
        <time>2022-05-23 11:29:48</time>
      </trkpt>
      <trkpt lat="42.07566" lon="0.739">
        <ele>1113</ele>
        <time>2022-05-23 11:29:49</time>
      </trkpt>
      <trkpt lat="42.07565" lon="0.73899">
        <ele>1113.2</ele>
        <time>2022-05-23 11:29:50</time>
      </trkpt>
      <trkpt lat="42.07564" lon="0.73898">
        <ele>1113.4</ele>
        <time>2022-05-23 11:29:51</time>
      </trkpt>
      <trkpt lat="42.07563" lon="0.73896">
        <ele>1113.6</ele>
        <time>2022-05-23 11:29:52</time>
      </trkpt>
      <trkpt lat="42.07563" lon="0.73895">
        <ele>1113.6</ele>
        <time>2022-05-23 11:29:53</time>
      </trkpt>
      <trkpt lat="42.07561" lon="0.73893">
        <ele>1113.8</ele>
        <time>2022-05-23 11:29:54</time>
      </trkpt>
      <trkpt lat="42.07561" lon="0.73891">
        <ele>1114</ele>
        <time>2022-05-23 11:29:55</time>
      </trkpt>
      <trkpt lat="42.07561" lon="0.7389">
        <ele>1114.2</ele>
        <time>2022-05-23 11:29:56</time>
      </trkpt>
      <trkpt lat="42.0756" lon="0.73888">
        <ele>1114.4</ele>
        <time>2022-05-23 11:29:57</time>
      </trkpt>
      <trkpt lat="42.07559" lon="0.73886">
        <ele>1114.6</ele>
        <time>2022-05-23 11:29:58</time>
      </trkpt>
      <trkpt lat="42.07558" lon="0.73884">
        <ele>1114.8</ele>
        <time>2022-05-23 11:29:59</time>
      </trkpt>
      <trkpt lat="42.07558" lon="0.73882">
        <ele>1115</ele>
        <time>2022-05-23 11:30:00</time>
      </trkpt>
      <trkpt lat="42.07558" lon="0.7388">
        <ele>1115.2</ele>
        <time>2022-05-23 11:30:01</time>
      </trkpt>
      <trkpt lat="42.07558" lon="0.73878">
        <ele>1115.4</ele>
        <time>2022-05-23 11:30:02</time>
      </trkpt>
      <trkpt lat="42.07559" lon="0.73876">
        <ele>1115.6</ele>
        <time>2022-05-23 11:30:03</time>
      </trkpt>
      <trkpt lat="42.0756" lon="0.73874">
        <ele>1115.8</ele>
        <time>2022-05-23 11:30:04</time>
      </trkpt>
      <trkpt lat="42.0756" lon="0.73872">
        <ele>1116</ele>
        <time>2022-05-23 11:30:05</time>
      </trkpt>
      <trkpt lat="42.07561" lon="0.7387">
        <ele>1116.2</ele>
        <time>2022-05-23 11:30:06</time>
      </trkpt>
      <trkpt lat="42.07562" lon="0.73868">
        <ele>1116.4</ele>
        <time>2022-05-23 11:30:07</time>
      </trkpt>
      <trkpt lat="42.07563" lon="0.73866">
        <ele>1116.4</ele>
        <time>2022-05-23 11:30:08</time>
      </trkpt>
      <trkpt lat="42.07563" lon="0.73864">
        <ele>1116.6</ele>
        <time>2022-05-23 11:30:09</time>
      </trkpt>
      <trkpt lat="42.07564" lon="0.73862">
        <ele>1116.8</ele>
        <time>2022-05-23 11:30:10</time>
      </trkpt>
      <trkpt lat="42.07565" lon="0.7386">
        <ele>1116.8</ele>
        <time>2022-05-23 11:30:11</time>
      </trkpt>
      <trkpt lat="42.07566" lon="0.73858">
        <ele>1117</ele>
        <time>2022-05-23 11:30:12</time>
      </trkpt>
      <trkpt lat="42.07566" lon="0.73856">
        <ele>1117</ele>
        <time>2022-05-23 11:30:13</time>
      </trkpt>
      <trkpt lat="42.07567" lon="0.73854">
        <ele>1117.2</ele>
        <time>2022-05-23 11:30:14</time>
      </trkpt>
      <trkpt lat="42.07567" lon="0.73852">
        <ele>1117.2</ele>
        <time>2022-05-23 11:30:15</time>
      </trkpt>
      <trkpt lat="42.07568" lon="0.7385">
        <ele>1117.4</ele>
        <time>2022-05-23 11:30:16</time>
      </trkpt>
      <trkpt lat="42.07568" lon="0.73848">
        <ele>1117.4</ele>
        <time>2022-05-23 11:30:17</time>
      </trkpt>
      <trkpt lat="42.07568" lon="0.73846">
        <ele>1117.6</ele>
        <time>2022-05-23 11:30:18</time>
      </trkpt>
      <trkpt lat="42.07568" lon="0.73844">
        <ele>1117.6</ele>
        <time>2022-05-23 11:30:19</time>
      </trkpt>
      <trkpt lat="42.07568" lon="0.73842">
        <ele>1117.8</ele>
        <time>2022-05-23 11:30:20</time>
      </trkpt>
      <trkpt lat="42.07569" lon="0.7384">
        <ele>1117.8</ele>
        <time>2022-05-23 11:30:21</time>
      </trkpt>
      <trkpt lat="42.07569" lon="0.73838">
        <ele>1118</ele>
        <time>2022-05-23 11:30:22</time>
      </trkpt>
      <trkpt lat="42.07569" lon="0.73836">
        <ele>1118</ele>
        <time>2022-05-23 11:30:23</time>
      </trkpt>
      <trkpt lat="42.07569" lon="0.73834">
        <ele>1118.2</ele>
        <time>2022-05-23 11:30:24</time>
      </trkpt>
      <trkpt lat="42.07569" lon="0.73832">
        <ele>1118.4</ele>
        <time>2022-05-23 11:30:25</time>
      </trkpt>
      <trkpt lat="42.07569" lon="0.7383">
        <ele>1118.6</ele>
        <time>2022-05-23 11:30:26</time>
      </trkpt>
      <trkpt lat="42.07568" lon="0.73828">
        <ele>1118.6</ele>
        <time>2022-05-23 11:30:27</time>
      </trkpt>
      <trkpt lat="42.07568" lon="0.73826">
        <ele>1118.8</ele>
        <time>2022-05-23 11:30:28</time>
      </trkpt>
      <trkpt lat="42.07568" lon="0.73824">
        <ele>1118.8</ele>
        <time>2022-05-23 11:30:29</time>
      </trkpt>
      <trkpt lat="42.07568" lon="0.73822">
        <ele>1119</ele>
        <time>2022-05-23 11:30:30</time>
      </trkpt>
      <trkpt lat="42.07568" lon="0.7382">
        <ele>1119.2</ele>
        <time>2022-05-23 11:30:31</time>
      </trkpt>
      <trkpt lat="42.07568" lon="0.73818">
        <ele>1119.2</ele>
        <time>2022-05-23 11:30:32</time>
      </trkpt>
      <trkpt lat="42.07568" lon="0.73816">
        <ele>1119.2</ele>
        <time>2022-05-23 11:30:33</time>
      </trkpt>
      <trkpt lat="42.07567" lon="0.73814">
        <ele>1119.4</ele>
        <time>2022-05-23 11:30:34</time>
      </trkpt>
      <trkpt lat="42.07567" lon="0.73811">
        <ele>1119.4</ele>
        <time>2022-05-23 11:30:35</time>
      </trkpt>
      <trkpt lat="42.07566" lon="0.73809">
        <ele>1119.4</ele>
        <time>2022-05-23 11:30:36</time>
      </trkpt>
      <trkpt lat="42.07566" lon="0.73807">
        <ele>1119.6</ele>
        <time>2022-05-23 11:30:37</time>
      </trkpt>
      <trkpt lat="42.07566" lon="0.73805">
        <ele>1119.6</ele>
        <time>2022-05-23 11:30:38</time>
      </trkpt>
      <trkpt lat="42.07566" lon="0.73802">
        <ele>1119.8</ele>
        <time>2022-05-23 11:30:39</time>
      </trkpt>
      <trkpt lat="42.07565" lon="0.738">
        <ele>1120</ele>
        <time>2022-05-23 11:30:40</time>
      </trkpt>
      <trkpt lat="42.07565" lon="0.73798">
        <ele>1120.2</ele>
        <time>2022-05-23 11:30:41</time>
      </trkpt>
      <trkpt lat="42.07565" lon="0.73796">
        <ele>1120.2</ele>
        <time>2022-05-23 11:30:42</time>
      </trkpt>
      <trkpt lat="42.07564" lon="0.73794">
        <ele>1120.2</ele>
        <time>2022-05-23 11:30:43</time>
      </trkpt>
      <trkpt lat="42.07564" lon="0.73792">
        <ele>1120.2</ele>
        <time>2022-05-23 11:30:44</time>
      </trkpt>
      <trkpt lat="42.07563" lon="0.7379">
        <ele>1120.4</ele>
        <time>2022-05-23 11:30:45</time>
      </trkpt>
      <trkpt lat="42.07563" lon="0.73788">
        <ele>1120.4</ele>
        <time>2022-05-23 11:30:46</time>
      </trkpt>
      <trkpt lat="42.07563" lon="0.73786">
        <ele>1120.6</ele>
        <time>2022-05-23 11:30:47</time>
      </trkpt>
      <trkpt lat="42.07563" lon="0.73783">
        <ele>1120.8</ele>
        <time>2022-05-23 11:30:48</time>
      </trkpt>
      <trkpt lat="42.07563" lon="0.73781">
        <ele>1121</ele>
        <time>2022-05-23 11:30:49</time>
      </trkpt>
      <trkpt lat="42.07563" lon="0.73779">
        <ele>1121</ele>
        <time>2022-05-23 11:30:50</time>
      </trkpt>
      <trkpt lat="42.07563" lon="0.73777">
        <ele>1121.2</ele>
        <time>2022-05-23 11:30:51</time>
      </trkpt>
      <trkpt lat="42.07563" lon="0.73775">
        <ele>1121.4</ele>
        <time>2022-05-23 11:30:52</time>
      </trkpt>
      <trkpt lat="42.07562" lon="0.73773">
        <ele>1121.4</ele>
        <time>2022-05-23 11:30:53</time>
      </trkpt>
      <trkpt lat="42.07562" lon="0.73771">
        <ele>1121.6</ele>
        <time>2022-05-23 11:30:54</time>
      </trkpt>
      <trkpt lat="42.07561" lon="0.73769">
        <ele>1121.8</ele>
        <time>2022-05-23 11:30:55</time>
      </trkpt>
      <trkpt lat="42.07561" lon="0.73767">
        <ele>1121.8</ele>
        <time>2022-05-23 11:30:56</time>
      </trkpt>
      <trkpt lat="42.07561" lon="0.73765">
        <ele>1122</ele>
        <time>2022-05-23 11:30:57</time>
      </trkpt>
      <trkpt lat="42.07561" lon="0.73763">
        <ele>1122</ele>
        <time>2022-05-23 11:30:58</time>
      </trkpt>
      <trkpt lat="42.07561" lon="0.73761">
        <ele>1122.2</ele>
        <time>2022-05-23 11:30:59</time>
      </trkpt>
      <trkpt lat="42.0756" lon="0.73758">
        <ele>1122.2</ele>
        <time>2022-05-23 11:31:00</time>
      </trkpt>
      <trkpt lat="42.0756" lon="0.73756">
        <ele>1122.4</ele>
        <time>2022-05-23 11:31:01</time>
      </trkpt>
      <trkpt lat="42.0756" lon="0.73754">
        <ele>1122.6</ele>
        <time>2022-05-23 11:31:02</time>
      </trkpt>
      <trkpt lat="42.07559" lon="0.73752">
        <ele>1122.6</ele>
        <time>2022-05-23 11:31:03</time>
      </trkpt>
      <trkpt lat="42.07559" lon="0.73751">
        <ele>1122.8</ele>
        <time>2022-05-23 11:31:04</time>
      </trkpt>
      <trkpt lat="42.07559" lon="0.73749">
        <ele>1123</ele>
        <time>2022-05-23 11:31:05</time>
      </trkpt>
      <trkpt lat="42.07558" lon="0.73747">
        <ele>1123</ele>
        <time>2022-05-23 11:31:06</time>
      </trkpt>
      <trkpt lat="42.07558" lon="0.73745">
        <ele>1123.2</ele>
        <time>2022-05-23 11:31:07</time>
      </trkpt>
      <trkpt lat="42.07558" lon="0.73743">
        <ele>1123.4</ele>
        <time>2022-05-23 11:31:08</time>
      </trkpt>
      <trkpt lat="42.07558" lon="0.73741">
        <ele>1123.6</ele>
        <time>2022-05-23 11:31:09</time>
      </trkpt>
      <trkpt lat="42.07557" lon="0.73739">
        <ele>1123.8</ele>
        <time>2022-05-23 11:31:10</time>
      </trkpt>
      <trkpt lat="42.07557" lon="0.73737">
        <ele>1123.8</ele>
        <time>2022-05-23 11:31:11</time>
      </trkpt>
      <trkpt lat="42.07557" lon="0.73735">
        <ele>1124</ele>
        <time>2022-05-23 11:31:12</time>
      </trkpt>
      <trkpt lat="42.07557" lon="0.73733">
        <ele>1124.2</ele>
        <time>2022-05-23 11:31:13</time>
      </trkpt>
      <trkpt lat="42.07556" lon="0.73731">
        <ele>1124.2</ele>
        <time>2022-05-23 11:31:14</time>
      </trkpt>
      <trkpt lat="42.07556" lon="0.73729">
        <ele>1124.4</ele>
        <time>2022-05-23 11:31:15</time>
      </trkpt>
      <trkpt lat="42.07556" lon="0.73728">
        <ele>1124.6</ele>
        <time>2022-05-23 11:31:16</time>
      </trkpt>
      <trkpt lat="42.07555" lon="0.73726">
        <ele>1124.6</ele>
        <time>2022-05-23 11:31:17</time>
      </trkpt>
      <trkpt lat="42.07555" lon="0.73724">
        <ele>1124.6</ele>
        <time>2022-05-23 11:31:18</time>
      </trkpt>
      <trkpt lat="42.07555" lon="0.73722">
        <ele>1124.8</ele>
        <time>2022-05-23 11:31:19</time>
      </trkpt>
      <trkpt lat="42.07554" lon="0.73721">
        <ele>1124.8</ele>
        <time>2022-05-23 11:31:20</time>
      </trkpt>
      <trkpt lat="42.07553" lon="0.73719">
        <ele>1125</ele>
        <time>2022-05-23 11:31:21</time>
      </trkpt>
      <trkpt lat="42.07553" lon="0.73717">
        <ele>1125</ele>
        <time>2022-05-23 11:31:22</time>
      </trkpt>
      <trkpt lat="42.07553" lon="0.73715">
        <ele>1125.2</ele>
        <time>2022-05-23 11:31:23</time>
      </trkpt>
      <trkpt lat="42.07553" lon="0.73713">
        <ele>1125.4</ele>
        <time>2022-05-23 11:31:24</time>
      </trkpt>
      <trkpt lat="42.07552" lon="0.73712">
        <ele>1125.4</ele>
        <time>2022-05-23 11:31:25</time>
      </trkpt>
      <trkpt lat="42.07551" lon="0.7371">
        <ele>1125.6</ele>
        <time>2022-05-23 11:31:26</time>
      </trkpt>
      <trkpt lat="42.0755" lon="0.73708">
        <ele>1125.8</ele>
        <time>2022-05-23 11:31:27</time>
      </trkpt>
      <trkpt lat="42.0755" lon="0.73707">
        <ele>1126</ele>
        <time>2022-05-23 11:31:28</time>
      </trkpt>
      <trkpt lat="42.07549" lon="0.73704">
        <ele>1126.2</ele>
        <time>2022-05-23 11:31:29</time>
      </trkpt>
      <trkpt lat="42.07549" lon="0.73702">
        <ele>1126.2</ele>
        <time>2022-05-23 11:31:30</time>
      </trkpt>
      <trkpt lat="42.07548" lon="0.737">
        <ele>1126.4</ele>
        <time>2022-05-23 11:31:31</time>
      </trkpt>
      <trkpt lat="42.07548" lon="0.73698">
        <ele>1126.6</ele>
        <time>2022-05-23 11:31:32</time>
      </trkpt>
      <trkpt lat="42.07547" lon="0.73697">
        <ele>1126.8</ele>
        <time>2022-05-23 11:31:33</time>
      </trkpt>
      <trkpt lat="42.07546" lon="0.73695">
        <ele>1127</ele>
        <time>2022-05-23 11:31:34</time>
      </trkpt>
      <trkpt lat="42.07545" lon="0.73693">
        <ele>1127.2</ele>
        <time>2022-05-23 11:31:35</time>
      </trkpt>
      <trkpt lat="42.07544" lon="0.73691">
        <ele>1127.4</ele>
        <time>2022-05-23 11:31:36</time>
      </trkpt>
      <trkpt lat="42.07543" lon="0.7369">
        <ele>1127.6</ele>
        <time>2022-05-23 11:31:37</time>
      </trkpt>
      <trkpt lat="42.07541" lon="0.73688">
        <ele>1127.6</ele>
        <time>2022-05-23 11:31:38</time>
      </trkpt>
      <trkpt lat="42.0754" lon="0.73686">
        <ele>1127.8</ele>
        <time>2022-05-23 11:31:39</time>
      </trkpt>
      <trkpt lat="42.07539" lon="0.73685">
        <ele>1127.8</ele>
        <time>2022-05-23 11:31:40</time>
      </trkpt>
      <trkpt lat="42.07537" lon="0.73683">
        <ele>1128</ele>
        <time>2022-05-23 11:31:41</time>
      </trkpt>
      <trkpt lat="42.07536" lon="0.73681">
        <ele>1128.2</ele>
        <time>2022-05-23 11:31:42</time>
      </trkpt>
      <trkpt lat="42.07536" lon="0.7368">
        <ele>1128.4</ele>
        <time>2022-05-23 11:31:43</time>
      </trkpt>
      <trkpt lat="42.07535" lon="0.73678">
        <ele>1128.4</ele>
        <time>2022-05-23 11:31:44</time>
      </trkpt>
      <trkpt lat="42.07534" lon="0.73677">
        <ele>1128.6</ele>
        <time>2022-05-23 11:31:45</time>
      </trkpt>
      <trkpt lat="42.07533" lon="0.73675">
        <ele>1128.8</ele>
        <time>2022-05-23 11:31:46</time>
      </trkpt>
      <trkpt lat="42.07532" lon="0.73674">
        <ele>1129</ele>
        <time>2022-05-23 11:31:47</time>
      </trkpt>
      <trkpt lat="42.07531" lon="0.73672">
        <ele>1129.2</ele>
        <time>2022-05-23 11:31:48</time>
      </trkpt>
      <trkpt lat="42.07531" lon="0.73671">
        <ele>1129.2</ele>
        <time>2022-05-23 11:31:49</time>
      </trkpt>
      <trkpt lat="42.07531" lon="0.73669">
        <ele>1129.4</ele>
        <time>2022-05-23 11:31:50</time>
      </trkpt>
      <trkpt lat="42.07531" lon="0.73667">
        <ele>1129.6</ele>
        <time>2022-05-23 11:31:51</time>
      </trkpt>
      <trkpt lat="42.07531" lon="0.73665">
        <ele>1129.6</ele>
        <time>2022-05-23 11:31:52</time>
      </trkpt>
      <trkpt lat="42.07531" lon="0.73664">
        <ele>1129.8</ele>
        <time>2022-05-23 11:31:53</time>
      </trkpt>
      <trkpt lat="42.07531" lon="0.73661">
        <ele>1129.8</ele>
        <time>2022-05-23 11:31:54</time>
      </trkpt>
      <trkpt lat="42.07531" lon="0.73659">
        <ele>1130</ele>
        <time>2022-05-23 11:31:55</time>
      </trkpt>
      <trkpt lat="42.07531" lon="0.73658">
        <ele>1130.2</ele>
        <time>2022-05-23 11:31:56</time>
      </trkpt>
      <trkpt lat="42.07531" lon="0.73656">
        <ele>1130.2</ele>
        <time>2022-05-23 11:31:57</time>
      </trkpt>
      <trkpt lat="42.07532" lon="0.73653">
        <ele>1130.4</ele>
        <time>2022-05-23 11:31:58</time>
      </trkpt>
      <trkpt lat="42.07532" lon="0.73651">
        <ele>1130.6</ele>
        <time>2022-05-23 11:31:59</time>
      </trkpt>
      <trkpt lat="42.07532" lon="0.73649">
        <ele>1130.8</ele>
        <time>2022-05-23 11:32:00</time>
      </trkpt>
      <trkpt lat="42.07532" lon="0.73647">
        <ele>1131</ele>
        <time>2022-05-23 11:32:01</time>
      </trkpt>
      <trkpt lat="42.07532" lon="0.73645">
        <ele>1131</ele>
        <time>2022-05-23 11:32:02</time>
      </trkpt>
      <trkpt lat="42.07532" lon="0.73643">
        <ele>1131.2</ele>
        <time>2022-05-23 11:32:03</time>
      </trkpt>
      <trkpt lat="42.07532" lon="0.7364">
        <ele>1131.2</ele>
        <time>2022-05-23 11:32:04</time>
      </trkpt>
      <trkpt lat="42.07532" lon="0.73638">
        <ele>1131.4</ele>
        <time>2022-05-23 11:32:05</time>
      </trkpt>
      <trkpt lat="42.07533" lon="0.73636">
        <ele>1131.4</ele>
        <time>2022-05-23 11:32:06</time>
      </trkpt>
      <trkpt lat="42.07533" lon="0.73634">
        <ele>1131.6</ele>
        <time>2022-05-23 11:32:07</time>
      </trkpt>
      <trkpt lat="42.07532" lon="0.73632">
        <ele>1131.6</ele>
        <time>2022-05-23 11:32:08</time>
      </trkpt>
      <trkpt lat="42.07532" lon="0.7363">
        <ele>1131.8</ele>
        <time>2022-05-23 11:32:09</time>
      </trkpt>
      <trkpt lat="42.07532" lon="0.73627">
        <ele>1132</ele>
        <time>2022-05-23 11:32:10</time>
      </trkpt>
      <trkpt lat="42.07531" lon="0.73625">
        <ele>1132</ele>
        <time>2022-05-23 11:32:11</time>
      </trkpt>
      <trkpt lat="42.07531" lon="0.73623">
        <ele>1132</ele>
        <time>2022-05-23 11:32:12</time>
      </trkpt>
      <trkpt lat="42.0753" lon="0.73621">
        <ele>1132.2</ele>
        <time>2022-05-23 11:32:13</time>
      </trkpt>
      <trkpt lat="42.07529" lon="0.73619">
        <ele>1132.2</ele>
        <time>2022-05-23 11:32:14</time>
      </trkpt>
      <trkpt lat="42.07529" lon="0.73617">
        <ele>1132.2</ele>
        <time>2022-05-23 11:32:15</time>
      </trkpt>
      <trkpt lat="42.07528" lon="0.73616">
        <ele>1132.4</ele>
        <time>2022-05-23 11:32:16</time>
      </trkpt>
      <trkpt lat="42.07527" lon="0.73614">
        <ele>1132.4</ele>
        <time>2022-05-23 11:32:17</time>
      </trkpt>
      <trkpt lat="42.07526" lon="0.73614">
        <ele>1132.4</ele>
        <time>2022-05-23 11:32:18</time>
      </trkpt>
      <trkpt lat="42.07524" lon="0.73612">
        <ele>1132.6</ele>
        <time>2022-05-23 11:32:19</time>
      </trkpt>
      <trkpt lat="42.07523" lon="0.73611">
        <ele>1132.8</ele>
        <time>2022-05-23 11:32:20</time>
      </trkpt>
      <trkpt lat="42.07522" lon="0.7361">
        <ele>1133</ele>
        <time>2022-05-23 11:32:21</time>
      </trkpt>
      <trkpt lat="42.0752" lon="0.7361">
        <ele>1133</ele>
        <time>2022-05-23 11:32:22</time>
      </trkpt>
      <trkpt lat="42.07519" lon="0.7361">
        <ele>1133.2</ele>
        <time>2022-05-23 11:32:23</time>
      </trkpt>
      <trkpt lat="42.07517" lon="0.7361">
        <ele>1133.4</ele>
        <time>2022-05-23 11:32:24</time>
      </trkpt>
      <trkpt lat="42.07515" lon="0.73611">
        <ele>1133.4</ele>
        <time>2022-05-23 11:32:25</time>
      </trkpt>
      <trkpt lat="42.07514" lon="0.73611">
        <ele>1133.6</ele>
        <time>2022-05-23 11:32:26</time>
      </trkpt>
      <trkpt lat="42.07513" lon="0.73612">
        <ele>1133.8</ele>
        <time>2022-05-23 11:32:27</time>
      </trkpt>
      <trkpt lat="42.07512" lon="0.73613">
        <ele>1134</ele>
        <time>2022-05-23 11:32:28</time>
      </trkpt>
      <trkpt lat="42.0751" lon="0.73613">
        <ele>1134.2</ele>
        <time>2022-05-23 11:32:29</time>
      </trkpt>
      <trkpt lat="42.07509" lon="0.73614">
        <ele>1134.4</ele>
        <time>2022-05-23 11:32:30</time>
      </trkpt>
      <trkpt lat="42.07508" lon="0.73615">
        <ele>1134.6</ele>
        <time>2022-05-23 11:32:31</time>
      </trkpt>
      <trkpt lat="42.07507" lon="0.73616">
        <ele>1134.6</ele>
        <time>2022-05-23 11:32:32</time>
      </trkpt>
      <trkpt lat="42.07507" lon="0.73618">
        <ele>1134.8</ele>
        <time>2022-05-23 11:32:33</time>
      </trkpt>
      <trkpt lat="42.07506" lon="0.73619">
        <ele>1135</ele>
        <time>2022-05-23 11:32:34</time>
      </trkpt>
      <trkpt lat="42.07506" lon="0.7362">
        <ele>1135.2</ele>
        <time>2022-05-23 11:32:35</time>
      </trkpt>
      <trkpt lat="42.07505" lon="0.73622">
        <ele>1135.4</ele>
        <time>2022-05-23 11:32:36</time>
      </trkpt>
      <trkpt lat="42.07505" lon="0.73624">
        <ele>1135.4</ele>
        <time>2022-05-23 11:32:37</time>
      </trkpt>
      <trkpt lat="42.07505" lon="0.73626">
        <ele>1135.6</ele>
        <time>2022-05-23 11:32:38</time>
      </trkpt>
      <trkpt lat="42.07503" lon="0.73627">
        <ele>1135.8</ele>
        <time>2022-05-23 11:32:39</time>
      </trkpt>
      <trkpt lat="42.07503" lon="0.73629">
        <ele>1135.8</ele>
        <time>2022-05-23 11:32:40</time>
      </trkpt>
      <trkpt lat="42.07502" lon="0.73631">
        <ele>1136</ele>
        <time>2022-05-23 11:32:41</time>
      </trkpt>
      <trkpt lat="42.07501" lon="0.73632">
        <ele>1136.2</ele>
        <time>2022-05-23 11:32:42</time>
      </trkpt>
      <trkpt lat="42.075" lon="0.73633">
        <ele>1136.2</ele>
        <time>2022-05-23 11:32:43</time>
      </trkpt>
      <trkpt lat="42.07499" lon="0.73634">
        <ele>1136.4</ele>
        <time>2022-05-23 11:32:44</time>
      </trkpt>
      <trkpt lat="42.07498" lon="0.73636">
        <ele>1136.4</ele>
        <time>2022-05-23 11:32:45</time>
      </trkpt>
      <trkpt lat="42.07497" lon="0.73637">
        <ele>1136.6</ele>
        <time>2022-05-23 11:32:46</time>
      </trkpt>
      <trkpt lat="42.07496" lon="0.73639">
        <ele>1136.6</ele>
        <time>2022-05-23 11:32:47</time>
      </trkpt>
      <trkpt lat="42.07495" lon="0.7364">
        <ele>1136.8</ele>
        <time>2022-05-23 11:32:48</time>
      </trkpt>
      <trkpt lat="42.07494" lon="0.73642">
        <ele>1136.8</ele>
        <time>2022-05-23 11:32:49</time>
      </trkpt>
      <trkpt lat="42.07494" lon="0.73644">
        <ele>1137</ele>
        <time>2022-05-23 11:32:50</time>
      </trkpt>
      <trkpt lat="42.07494" lon="0.73646">
        <ele>1137</ele>
        <time>2022-05-23 11:32:51</time>
      </trkpt>
      <trkpt lat="42.07494" lon="0.73648">
        <ele>1137.2</ele>
        <time>2022-05-23 11:32:52</time>
      </trkpt>
      <trkpt lat="42.07493" lon="0.7365">
        <ele>1137.2</ele>
        <time>2022-05-23 11:32:53</time>
      </trkpt>
      <trkpt lat="42.07492" lon="0.73652">
        <ele>1137.4</ele>
        <time>2022-05-23 11:32:54</time>
      </trkpt>
      <trkpt lat="42.07492" lon="0.73654">
        <ele>1137.4</ele>
        <time>2022-05-23 11:32:55</time>
      </trkpt>
      <trkpt lat="42.07492" lon="0.73656">
        <ele>1137.6</ele>
        <time>2022-05-23 11:32:56</time>
      </trkpt>
      <trkpt lat="42.07492" lon="0.73658">
        <ele>1137.6</ele>
        <time>2022-05-23 11:32:57</time>
      </trkpt>
      <trkpt lat="42.07492" lon="0.7366">
        <ele>1137.8</ele>
        <time>2022-05-23 11:32:58</time>
      </trkpt>
      <trkpt lat="42.07492" lon="0.73663">
        <ele>1137.8</ele>
        <time>2022-05-23 11:32:59</time>
      </trkpt>
      <trkpt lat="42.07493" lon="0.73665">
        <ele>1138</ele>
        <time>2022-05-23 11:33:00</time>
      </trkpt>
      <trkpt lat="42.07493" lon="0.73668">
        <ele>1138.2</ele>
        <time>2022-05-23 11:33:01</time>
      </trkpt>
      <trkpt lat="42.07494" lon="0.7367">
        <ele>1138.2</ele>
        <time>2022-05-23 11:33:02</time>
      </trkpt>
      <trkpt lat="42.07494" lon="0.73672">
        <ele>1138.4</ele>
        <time>2022-05-23 11:33:03</time>
      </trkpt>
      <trkpt lat="42.07494" lon="0.73674">
        <ele>1138.6</ele>
        <time>2022-05-23 11:33:04</time>
      </trkpt>
      <trkpt lat="42.07494" lon="0.73676">
        <ele>1138.8</ele>
        <time>2022-05-23 11:33:05</time>
      </trkpt>
      <trkpt lat="42.07495" lon="0.73678">
        <ele>1138.8</ele>
        <time>2022-05-23 11:33:06</time>
      </trkpt>
      <trkpt lat="42.07496" lon="0.73681">
        <ele>1139</ele>
        <time>2022-05-23 11:33:07</time>
      </trkpt>
      <trkpt lat="42.07496" lon="0.73683">
        <ele>1139.2</ele>
        <time>2022-05-23 11:33:08</time>
      </trkpt>
      <trkpt lat="42.07496" lon="0.73685">
        <ele>1139.4</ele>
        <time>2022-05-23 11:33:09</time>
      </trkpt>
      <trkpt lat="42.07496" lon="0.73687">
        <ele>1139.4</ele>
        <time>2022-05-23 11:33:10</time>
      </trkpt>
      <trkpt lat="42.07496" lon="0.7369">
        <ele>1139.6</ele>
        <time>2022-05-23 11:33:11</time>
      </trkpt>
      <trkpt lat="42.07496" lon="0.73692">
        <ele>1139.8</ele>
        <time>2022-05-23 11:33:12</time>
      </trkpt>
      <trkpt lat="42.07496" lon="0.73694">
        <ele>1139.8</ele>
        <time>2022-05-23 11:33:13</time>
      </trkpt>
      <trkpt lat="42.07496" lon="0.73696">
        <ele>1140</ele>
        <time>2022-05-23 11:33:14</time>
      </trkpt>
      <trkpt lat="42.07496" lon="0.73698">
        <ele>1140</ele>
        <time>2022-05-23 11:33:15</time>
      </trkpt>
      <trkpt lat="42.07497" lon="0.73699">
        <ele>1140.2</ele>
        <time>2022-05-23 11:33:16</time>
      </trkpt>
      <trkpt lat="42.07497" lon="0.73701">
        <ele>1140.2</ele>
        <time>2022-05-23 11:33:17</time>
      </trkpt>
      <trkpt lat="42.07495" lon="0.73703">
        <ele>1140.4</ele>
        <time>2022-05-23 11:33:18</time>
      </trkpt>
      <trkpt lat="42.07494" lon="0.73705">
        <ele>1140.6</ele>
        <time>2022-05-23 11:33:19</time>
      </trkpt>
      <trkpt lat="42.07493" lon="0.73707">
        <ele>1140.6</ele>
        <time>2022-05-23 11:33:20</time>
      </trkpt>
      <trkpt lat="42.07492" lon="0.73709">
        <ele>1140.8</ele>
        <time>2022-05-23 11:33:21</time>
      </trkpt>
      <trkpt lat="42.07492" lon="0.73712">
        <ele>1140.8</ele>
        <time>2022-05-23 11:33:22</time>
      </trkpt>
      <trkpt lat="42.07492" lon="0.73714">
        <ele>1141</ele>
        <time>2022-05-23 11:33:23</time>
      </trkpt>
      <trkpt lat="42.07491" lon="0.73716">
        <ele>1141</ele>
        <time>2022-05-23 11:33:24</time>
      </trkpt>
      <trkpt lat="42.0749" lon="0.73718">
        <ele>1141.2</ele>
        <time>2022-05-23 11:33:25</time>
      </trkpt>
      <trkpt lat="42.07489" lon="0.7372">
        <ele>1141.2</ele>
        <time>2022-05-23 11:33:26</time>
      </trkpt>
      <trkpt lat="42.07488" lon="0.73722">
        <ele>1141.4</ele>
        <time>2022-05-23 11:33:27</time>
      </trkpt>
      <trkpt lat="42.07487" lon="0.73723">
        <ele>1141.4</ele>
        <time>2022-05-23 11:33:28</time>
      </trkpt>
      <trkpt lat="42.07486" lon="0.73725">
        <ele>1141.6</ele>
        <time>2022-05-23 11:33:29</time>
      </trkpt>
      <trkpt lat="42.07486" lon="0.73727">
        <ele>1141.6</ele>
        <time>2022-05-23 11:33:30</time>
      </trkpt>
      <trkpt lat="42.07485" lon="0.7373">
        <ele>1141.8</ele>
        <time>2022-05-23 11:33:31</time>
      </trkpt>
      <trkpt lat="42.07485" lon="0.73733">
        <ele>1141.8</ele>
        <time>2022-05-23 11:33:32</time>
      </trkpt>
      <trkpt lat="42.07485" lon="0.73735">
        <ele>1142</ele>
        <time>2022-05-23 11:33:33</time>
      </trkpt>
      <trkpt lat="42.07484" lon="0.73737">
        <ele>1142.2</ele>
        <time>2022-05-23 11:33:34</time>
      </trkpt>
      <trkpt lat="42.07484" lon="0.7374">
        <ele>1142.2</ele>
        <time>2022-05-23 11:33:35</time>
      </trkpt>
      <trkpt lat="42.07483" lon="0.73742">
        <ele>1142.4</ele>
        <time>2022-05-23 11:33:36</time>
      </trkpt>
      <trkpt lat="42.07482" lon="0.73743">
        <ele>1142.4</ele>
        <time>2022-05-23 11:33:37</time>
      </trkpt>
      <trkpt lat="42.07481" lon="0.73745">
        <ele>1142.6</ele>
        <time>2022-05-23 11:33:38</time>
      </trkpt>
      <trkpt lat="42.07481" lon="0.73747">
        <ele>1142.8</ele>
        <time>2022-05-23 11:33:39</time>
      </trkpt>
      <trkpt lat="42.0748" lon="0.73749">
        <ele>1142.8</ele>
        <time>2022-05-23 11:33:40</time>
      </trkpt>
      <trkpt lat="42.07479" lon="0.73751">
        <ele>1143</ele>
        <time>2022-05-23 11:33:41</time>
      </trkpt>
      <trkpt lat="42.07479" lon="0.73753">
        <ele>1143</ele>
        <time>2022-05-23 11:33:42</time>
      </trkpt>
      <trkpt lat="42.07478" lon="0.73755">
        <ele>1143.2</ele>
        <time>2022-05-23 11:33:43</time>
      </trkpt>
      <trkpt lat="42.07477" lon="0.73757">
        <ele>1143.4</ele>
        <time>2022-05-23 11:33:44</time>
      </trkpt>
      <trkpt lat="42.07476" lon="0.73758">
        <ele>1143.6</ele>
        <time>2022-05-23 11:33:45</time>
      </trkpt>
      <trkpt lat="42.07475" lon="0.7376">
        <ele>1143.6</ele>
        <time>2022-05-23 11:33:46</time>
      </trkpt>
      <trkpt lat="42.07474" lon="0.73761">
        <ele>1143.8</ele>
        <time>2022-05-23 11:33:47</time>
      </trkpt>
      <trkpt lat="42.07473" lon="0.73763">
        <ele>1144</ele>
        <time>2022-05-23 11:33:48</time>
      </trkpt>
      <trkpt lat="42.07472" lon="0.73765">
        <ele>1144.2</ele>
        <time>2022-05-23 11:33:49</time>
      </trkpt>
      <trkpt lat="42.0747" lon="0.73766">
        <ele>1144.4</ele>
        <time>2022-05-23 11:33:50</time>
      </trkpt>
      <trkpt lat="42.07469" lon="0.73767">
        <ele>1144.6</ele>
        <time>2022-05-23 11:33:51</time>
      </trkpt>
      <trkpt lat="42.07468" lon="0.73769">
        <ele>1144.6</ele>
        <time>2022-05-23 11:33:52</time>
      </trkpt>
      <trkpt lat="42.07467" lon="0.7377">
        <ele>1144.8</ele>
        <time>2022-05-23 11:33:53</time>
      </trkpt>
      <trkpt lat="42.07466" lon="0.73772">
        <ele>1145</ele>
        <time>2022-05-23 11:33:54</time>
      </trkpt>
      <trkpt lat="42.07465" lon="0.73773">
        <ele>1145</ele>
        <time>2022-05-23 11:33:55</time>
      </trkpt>
      <trkpt lat="42.07464" lon="0.73775">
        <ele>1145.2</ele>
        <time>2022-05-23 11:33:56</time>
      </trkpt>
      <trkpt lat="42.07463" lon="0.73776">
        <ele>1145.4</ele>
        <time>2022-05-23 11:33:57</time>
      </trkpt>
      <trkpt lat="42.07461" lon="0.73777">
        <ele>1145.4</ele>
        <time>2022-05-23 11:33:58</time>
      </trkpt>
      <trkpt lat="42.0746" lon="0.73778">
        <ele>1145.6</ele>
        <time>2022-05-23 11:33:59</time>
      </trkpt>
      <trkpt lat="42.07459" lon="0.73779">
        <ele>1145.8</ele>
        <time>2022-05-23 11:34:00</time>
      </trkpt>
      <trkpt lat="42.07457" lon="0.7378">
        <ele>1145.8</ele>
        <time>2022-05-23 11:34:01</time>
      </trkpt>
      <trkpt lat="42.07456" lon="0.73781">
        <ele>1146</ele>
        <time>2022-05-23 11:34:02</time>
      </trkpt>
      <trkpt lat="42.07454" lon="0.73782">
        <ele>1146</ele>
        <time>2022-05-23 11:34:03</time>
      </trkpt>
      <trkpt lat="42.07453" lon="0.73783">
        <ele>1146.2</ele>
        <time>2022-05-23 11:34:04</time>
      </trkpt>
      <trkpt lat="42.07451" lon="0.73784">
        <ele>1146.4</ele>
        <time>2022-05-23 11:34:05</time>
      </trkpt>
      <trkpt lat="42.07449" lon="0.73785">
        <ele>1146.4</ele>
        <time>2022-05-23 11:34:06</time>
      </trkpt>
      <trkpt lat="42.07447" lon="0.73786">
        <ele>1146.6</ele>
        <time>2022-05-23 11:34:07</time>
      </trkpt>
      <trkpt lat="42.07445" lon="0.73787">
        <ele>1146.8</ele>
        <time>2022-05-23 11:34:08</time>
      </trkpt>
      <trkpt lat="42.07444" lon="0.73787">
        <ele>1146.8</ele>
        <time>2022-05-23 11:34:09</time>
      </trkpt>
      <trkpt lat="42.07442" lon="0.73788">
        <ele>1147</ele>
        <time>2022-05-23 11:34:10</time>
      </trkpt>
      <trkpt lat="42.07441" lon="0.73789">
        <ele>1147.2</ele>
        <time>2022-05-23 11:34:11</time>
      </trkpt>
      <trkpt lat="42.07439" lon="0.7379">
        <ele>1147.2</ele>
        <time>2022-05-23 11:34:12</time>
      </trkpt>
      <trkpt lat="42.07437" lon="0.7379">
        <ele>1147.4</ele>
        <time>2022-05-23 11:34:13</time>
      </trkpt>
      <trkpt lat="42.07436" lon="0.73791">
        <ele>1147.6</ele>
        <time>2022-05-23 11:34:14</time>
      </trkpt>
      <trkpt lat="42.07434" lon="0.73792">
        <ele>1147.6</ele>
        <time>2022-05-23 11:34:15</time>
      </trkpt>
      <trkpt lat="42.07433" lon="0.73792">
        <ele>1147.8</ele>
        <time>2022-05-23 11:34:16</time>
      </trkpt>
      <trkpt lat="42.07431" lon="0.73793">
        <ele>1148</ele>
        <time>2022-05-23 11:34:17</time>
      </trkpt>
      <trkpt lat="42.07429" lon="0.73794">
        <ele>1148.2</ele>
        <time>2022-05-23 11:34:18</time>
      </trkpt>
      <trkpt lat="42.07427" lon="0.73794">
        <ele>1148.4</ele>
        <time>2022-05-23 11:34:19</time>
      </trkpt>
      <trkpt lat="42.07426" lon="0.73795">
        <ele>1148.6</ele>
        <time>2022-05-23 11:34:20</time>
      </trkpt>
      <trkpt lat="42.07424" lon="0.73796">
        <ele>1148.8</ele>
        <time>2022-05-23 11:34:21</time>
      </trkpt>
      <trkpt lat="42.07423" lon="0.73797">
        <ele>1149</ele>
        <time>2022-05-23 11:34:22</time>
      </trkpt>
      <trkpt lat="42.07422" lon="0.73798">
        <ele>1149.2</ele>
        <time>2022-05-23 11:34:23</time>
      </trkpt>
      <trkpt lat="42.0742" lon="0.73799">
        <ele>1149.4</ele>
        <time>2022-05-23 11:34:24</time>
      </trkpt>
      <trkpt lat="42.07419" lon="0.738">
        <ele>1149.6</ele>
        <time>2022-05-23 11:34:25</time>
      </trkpt>
      <trkpt lat="42.07417" lon="0.73801">
        <ele>1149.6</ele>
        <time>2022-05-23 11:34:26</time>
      </trkpt>
      <trkpt lat="42.07416" lon="0.73803">
        <ele>1149.8</ele>
        <time>2022-05-23 11:34:27</time>
      </trkpt>
      <trkpt lat="42.07414" lon="0.73804">
        <ele>1150</ele>
        <time>2022-05-23 11:34:28</time>
      </trkpt>
      <trkpt lat="42.07413" lon="0.73806">
        <ele>1150.2</ele>
        <time>2022-05-23 11:34:29</time>
      </trkpt>
      <trkpt lat="42.07412" lon="0.73808">
        <ele>1150.4</ele>
        <time>2022-05-23 11:34:30</time>
      </trkpt>
      <trkpt lat="42.07412" lon="0.7381">
        <ele>1150.4</ele>
        <time>2022-05-23 11:34:31</time>
      </trkpt>
      <trkpt lat="42.07412" lon="0.73812">
        <ele>1150.6</ele>
        <time>2022-05-23 11:34:32</time>
      </trkpt>
      <trkpt lat="42.07412" lon="0.73814">
        <ele>1150.6</ele>
        <time>2022-05-23 11:34:33</time>
      </trkpt>
      <trkpt lat="42.07412" lon="0.73816">
        <ele>1150.6</ele>
        <time>2022-05-23 11:34:34</time>
      </trkpt>
      <trkpt lat="42.07412" lon="0.73818">
        <ele>1150.8</ele>
        <time>2022-05-23 11:34:35</time>
      </trkpt>
      <trkpt lat="42.07412" lon="0.7382">
        <ele>1150.8</ele>
        <time>2022-05-23 11:34:36</time>
      </trkpt>
      <trkpt lat="42.07411" lon="0.73822">
        <ele>1151</ele>
        <time>2022-05-23 11:34:37</time>
      </trkpt>
      <trkpt lat="42.07411" lon="0.73824">
        <ele>1151</ele>
        <time>2022-05-23 11:34:38</time>
      </trkpt>
      <trkpt lat="42.07412" lon="0.73826">
        <ele>1151.2</ele>
        <time>2022-05-23 11:34:39</time>
      </trkpt>
      <trkpt lat="42.07412" lon="0.73828">
        <ele>1151.4</ele>
        <time>2022-05-23 11:34:40</time>
      </trkpt>
      <trkpt lat="42.07412" lon="0.7383">
        <ele>1151.6</ele>
        <time>2022-05-23 11:34:41</time>
      </trkpt>
      <trkpt lat="42.07412" lon="0.73832">
        <ele>1151.8</ele>
        <time>2022-05-23 11:34:42</time>
      </trkpt>
      <trkpt lat="42.07412" lon="0.73835">
        <ele>1152</ele>
        <time>2022-05-23 11:34:43</time>
      </trkpt>
      <trkpt lat="42.07412" lon="0.73837">
        <ele>1152.2</ele>
        <time>2022-05-23 11:34:44</time>
      </trkpt>
      <trkpt lat="42.07412" lon="0.73839">
        <ele>1152.4</ele>
        <time>2022-05-23 11:34:45</time>
      </trkpt>
      <trkpt lat="42.07412" lon="0.73841">
        <ele>1152.6</ele>
        <time>2022-05-23 11:34:46</time>
      </trkpt>
      <trkpt lat="42.07412" lon="0.73843">
        <ele>1152.8</ele>
        <time>2022-05-23 11:34:47</time>
      </trkpt>
      <trkpt lat="42.07412" lon="0.73845">
        <ele>1153</ele>
        <time>2022-05-23 11:34:48</time>
      </trkpt>
      <trkpt lat="42.07412" lon="0.73847">
        <ele>1153</ele>
        <time>2022-05-23 11:34:49</time>
      </trkpt>
      <trkpt lat="42.07412" lon="0.73849">
        <ele>1153.2</ele>
        <time>2022-05-23 11:34:50</time>
      </trkpt>
      <trkpt lat="42.07413" lon="0.73851">
        <ele>1153.4</ele>
        <time>2022-05-23 11:34:51</time>
      </trkpt>
      <trkpt lat="42.07413" lon="0.73853">
        <ele>1153.6</ele>
        <time>2022-05-23 11:34:52</time>
      </trkpt>
      <trkpt lat="42.07413" lon="0.73855">
        <ele>1153.8</ele>
        <time>2022-05-23 11:34:53</time>
      </trkpt>
      <trkpt lat="42.07413" lon="0.73857">
        <ele>1153.8</ele>
        <time>2022-05-23 11:34:54</time>
      </trkpt>
      <trkpt lat="42.07413" lon="0.73859">
        <ele>1154</ele>
        <time>2022-05-23 11:34:55</time>
      </trkpt>
      <trkpt lat="42.07412" lon="0.73861">
        <ele>1154.2</ele>
        <time>2022-05-23 11:34:56</time>
      </trkpt>
      <trkpt lat="42.07412" lon="0.73863">
        <ele>1154.4</ele>
        <time>2022-05-23 11:34:57</time>
      </trkpt>
      <trkpt lat="42.07411" lon="0.73865">
        <ele>1154.6</ele>
        <time>2022-05-23 11:34:58</time>
      </trkpt>
      <trkpt lat="42.07411" lon="0.73867">
        <ele>1154.8</ele>
        <time>2022-05-23 11:34:59</time>
      </trkpt>
      <trkpt lat="42.0741" lon="0.73869">
        <ele>1155</ele>
        <time>2022-05-23 11:35:00</time>
      </trkpt>
      <trkpt lat="42.07409" lon="0.73871">
        <ele>1155.2</ele>
        <time>2022-05-23 11:35:01</time>
      </trkpt>
      <trkpt lat="42.07408" lon="0.73873">
        <ele>1155.4</ele>
        <time>2022-05-23 11:35:02</time>
      </trkpt>
      <trkpt lat="42.07407" lon="0.73875">
        <ele>1155.6</ele>
        <time>2022-05-23 11:35:03</time>
      </trkpt>
      <trkpt lat="42.07406" lon="0.73877">
        <ele>1155.6</ele>
        <time>2022-05-23 11:35:04</time>
      </trkpt>
      <trkpt lat="42.07405" lon="0.73879">
        <ele>1155.8</ele>
        <time>2022-05-23 11:35:05</time>
      </trkpt>
      <trkpt lat="42.07404" lon="0.73881">
        <ele>1156</ele>
        <time>2022-05-23 11:35:06</time>
      </trkpt>
      <trkpt lat="42.07404" lon="0.73883">
        <ele>1156.2</ele>
        <time>2022-05-23 11:35:07</time>
      </trkpt>
      <trkpt lat="42.07403" lon="0.73884">
        <ele>1156.4</ele>
        <time>2022-05-23 11:35:08</time>
      </trkpt>
      <trkpt lat="42.07402" lon="0.73886">
        <ele>1156.6</ele>
        <time>2022-05-23 11:35:09</time>
      </trkpt>
      <trkpt lat="42.07401" lon="0.73887">
        <ele>1156.6</ele>
        <time>2022-05-23 11:35:10</time>
      </trkpt>
      <trkpt lat="42.074" lon="0.73888">
        <ele>1156.8</ele>
        <time>2022-05-23 11:35:11</time>
      </trkpt>
      <trkpt lat="42.07399" lon="0.73889">
        <ele>1157</ele>
        <time>2022-05-23 11:35:12</time>
      </trkpt>
      <trkpt lat="42.07398" lon="0.73891">
        <ele>1157.2</ele>
        <time>2022-05-23 11:35:13</time>
      </trkpt>
      <trkpt lat="42.07397" lon="0.73892">
        <ele>1157.2</ele>
        <time>2022-05-23 11:35:14</time>
      </trkpt>
      <trkpt lat="42.07396" lon="0.73893">
        <ele>1157.4</ele>
        <time>2022-05-23 11:35:15</time>
      </trkpt>
      <trkpt lat="42.07394" lon="0.73894">
        <ele>1157.6</ele>
        <time>2022-05-23 11:35:16</time>
      </trkpt>
      <trkpt lat="42.07393" lon="0.73895">
        <ele>1157.8</ele>
        <time>2022-05-23 11:35:17</time>
      </trkpt>
      <trkpt lat="42.07392" lon="0.73896">
        <ele>1158</ele>
        <time>2022-05-23 11:35:18</time>
      </trkpt>
      <trkpt lat="42.07391" lon="0.73898">
        <ele>1158.2</ele>
        <time>2022-05-23 11:35:19</time>
      </trkpt>
      <trkpt lat="42.07389" lon="0.73899">
        <ele>1158.4</ele>
        <time>2022-05-23 11:35:20</time>
      </trkpt>
      <trkpt lat="42.07388" lon="0.739">
        <ele>1158.6</ele>
        <time>2022-05-23 11:35:21</time>
      </trkpt>
      <trkpt lat="42.07386" lon="0.73901">
        <ele>1158.6</ele>
        <time>2022-05-23 11:35:22</time>
      </trkpt>
      <trkpt lat="42.07385" lon="0.73902">
        <ele>1158.8</ele>
        <time>2022-05-23 11:35:23</time>
      </trkpt>
      <trkpt lat="42.07383" lon="0.73903">
        <ele>1159</ele>
        <time>2022-05-23 11:35:24</time>
      </trkpt>
      <trkpt lat="42.07381" lon="0.73904">
        <ele>1159.2</ele>
        <time>2022-05-23 11:35:25</time>
      </trkpt>
      <trkpt lat="42.07381" lon="0.73905">
        <ele>1159.4</ele>
        <time>2022-05-23 11:35:26</time>
      </trkpt>
      <trkpt lat="42.0738" lon="0.73907">
        <ele>1159.4</ele>
        <time>2022-05-23 11:35:27</time>
      </trkpt>
      <trkpt lat="42.07379" lon="0.73909">
        <ele>1159.6</ele>
        <time>2022-05-23 11:35:28</time>
      </trkpt>
      <trkpt lat="42.07378" lon="0.7391">
        <ele>1159.8</ele>
        <time>2022-05-23 11:35:29</time>
      </trkpt>
      <trkpt lat="42.07378" lon="0.73912">
        <ele>1160</ele>
        <time>2022-05-23 11:35:30</time>
      </trkpt>
      <trkpt lat="42.07376" lon="0.73913">
        <ele>1160</ele>
        <time>2022-05-23 11:35:31</time>
      </trkpt>
      <trkpt lat="42.07375" lon="0.73915">
        <ele>1160.2</ele>
        <time>2022-05-23 11:35:32</time>
      </trkpt>
      <trkpt lat="42.07374" lon="0.73916">
        <ele>1160.4</ele>
        <time>2022-05-23 11:35:33</time>
      </trkpt>
      <trkpt lat="42.07373" lon="0.73918">
        <ele>1160.4</ele>
        <time>2022-05-23 11:35:34</time>
      </trkpt>
      <trkpt lat="42.07372" lon="0.73919">
        <ele>1160.6</ele>
        <time>2022-05-23 11:35:35</time>
      </trkpt>
      <trkpt lat="42.07372" lon="0.73921">
        <ele>1160.6</ele>
        <time>2022-05-23 11:35:36</time>
      </trkpt>
      <trkpt lat="42.07371" lon="0.73923">
        <ele>1160.8</ele>
        <time>2022-05-23 11:35:37</time>
      </trkpt>
      <trkpt lat="42.0737" lon="0.73924">
        <ele>1161</ele>
        <time>2022-05-23 11:35:38</time>
      </trkpt>
      <trkpt lat="42.07369" lon="0.73927">
        <ele>1161.2</ele>
        <time>2022-05-23 11:35:39</time>
      </trkpt>
      <trkpt lat="42.07369" lon="0.73929">
        <ele>1161.2</ele>
        <time>2022-05-23 11:35:40</time>
      </trkpt>
      <trkpt lat="42.07368" lon="0.73931">
        <ele>1161.4</ele>
        <time>2022-05-23 11:35:41</time>
      </trkpt>
      <trkpt lat="42.07367" lon="0.73933">
        <ele>1161.6</ele>
        <time>2022-05-23 11:35:42</time>
      </trkpt>
      <trkpt lat="42.07367" lon="0.73935">
        <ele>1161.8</ele>
        <time>2022-05-23 11:35:43</time>
      </trkpt>
      <trkpt lat="42.07366" lon="0.73937">
        <ele>1161.8</ele>
        <time>2022-05-23 11:35:44</time>
      </trkpt>
      <trkpt lat="42.07365" lon="0.73939">
        <ele>1162</ele>
        <time>2022-05-23 11:35:45</time>
      </trkpt>
      <trkpt lat="42.07364" lon="0.73941">
        <ele>1162.2</ele>
        <time>2022-05-23 11:35:46</time>
      </trkpt>
      <trkpt lat="42.07363" lon="0.73942">
        <ele>1162.2</ele>
        <time>2022-05-23 11:35:47</time>
      </trkpt>
      <trkpt lat="42.07363" lon="0.73944">
        <ele>1162.4</ele>
        <time>2022-05-23 11:35:48</time>
      </trkpt>
      <trkpt lat="42.07362" lon="0.73946">
        <ele>1162.6</ele>
        <time>2022-05-23 11:35:49</time>
      </trkpt>
      <trkpt lat="42.07362" lon="0.73948">
        <ele>1162.6</ele>
        <time>2022-05-23 11:35:50</time>
      </trkpt>
      <trkpt lat="42.07362" lon="0.7395">
        <ele>1162.8</ele>
        <time>2022-05-23 11:35:51</time>
      </trkpt>
      <trkpt lat="42.07361" lon="0.73952">
        <ele>1162.8</ele>
        <time>2022-05-23 11:35:52</time>
      </trkpt>
      <trkpt lat="42.0736" lon="0.73955">
        <ele>1163</ele>
        <time>2022-05-23 11:35:53</time>
      </trkpt>
      <trkpt lat="42.0736" lon="0.73957">
        <ele>1163.2</ele>
        <time>2022-05-23 11:35:54</time>
      </trkpt>
      <trkpt lat="42.07359" lon="0.73959">
        <ele>1163.2</ele>
        <time>2022-05-23 11:35:55</time>
      </trkpt>
      <trkpt lat="42.07358" lon="0.73961">
        <ele>1163.4</ele>
        <time>2022-05-23 11:35:56</time>
      </trkpt>
      <trkpt lat="42.07357" lon="0.73963">
        <ele>1163.4</ele>
        <time>2022-05-23 11:35:57</time>
      </trkpt>
      <trkpt lat="42.07357" lon="0.73965">
        <ele>1163.6</ele>
        <time>2022-05-23 11:35:58</time>
      </trkpt>
      <trkpt lat="42.07356" lon="0.73967">
        <ele>1163.6</ele>
        <time>2022-05-23 11:35:59</time>
      </trkpt>
      <trkpt lat="42.07356" lon="0.73969">
        <ele>1163.8</ele>
        <time>2022-05-23 11:36:00</time>
      </trkpt>
      <trkpt lat="42.07355" lon="0.73972">
        <ele>1163.8</ele>
        <time>2022-05-23 11:36:01</time>
      </trkpt>
      <trkpt lat="42.07354" lon="0.73974">
        <ele>1164</ele>
        <time>2022-05-23 11:36:02</time>
      </trkpt>
      <trkpt lat="42.07354" lon="0.73976">
        <ele>1164.2</ele>
        <time>2022-05-23 11:36:03</time>
      </trkpt>
      <trkpt lat="42.07353" lon="0.73978">
        <ele>1164.4</ele>
        <time>2022-05-23 11:36:04</time>
      </trkpt>
      <trkpt lat="42.07353" lon="0.7398">
        <ele>1164.6</ele>
        <time>2022-05-23 11:36:05</time>
      </trkpt>
      <trkpt lat="42.07352" lon="0.73982">
        <ele>1164.6</ele>
        <time>2022-05-23 11:36:06</time>
      </trkpt>
      <trkpt lat="42.07351" lon="0.73984">
        <ele>1164.8</ele>
        <time>2022-05-23 11:36:07</time>
      </trkpt>
      <trkpt lat="42.07351" lon="0.73986">
        <ele>1165</ele>
        <time>2022-05-23 11:36:08</time>
      </trkpt>
      <trkpt lat="42.0735" lon="0.73988">
        <ele>1165</ele>
        <time>2022-05-23 11:36:09</time>
      </trkpt>
      <trkpt lat="42.07349" lon="0.7399">
        <ele>1165.2</ele>
        <time>2022-05-23 11:36:10</time>
      </trkpt>
      <trkpt lat="42.07348" lon="0.73992">
        <ele>1165.4</ele>
        <time>2022-05-23 11:36:11</time>
      </trkpt>
      <trkpt lat="42.07347" lon="0.73994">
        <ele>1165.6</ele>
        <time>2022-05-23 11:36:12</time>
      </trkpt>
      <trkpt lat="42.07346" lon="0.73996">
        <ele>1165.8</ele>
        <time>2022-05-23 11:36:13</time>
      </trkpt>
      <trkpt lat="42.07345" lon="0.73999">
        <ele>1166</ele>
        <time>2022-05-23 11:36:14</time>
      </trkpt>
      <trkpt lat="42.07344" lon="0.74001">
        <ele>1166</ele>
        <time>2022-05-23 11:36:15</time>
      </trkpt>
      <trkpt lat="42.07343" lon="0.74003">
        <ele>1166.2</ele>
        <time>2022-05-23 11:36:16</time>
      </trkpt>
      <trkpt lat="42.07341" lon="0.74004">
        <ele>1166.4</ele>
        <time>2022-05-23 11:36:17</time>
      </trkpt>
      <trkpt lat="42.0734" lon="0.74006">
        <ele>1166.4</ele>
        <time>2022-05-23 11:36:18</time>
      </trkpt>
      <trkpt lat="42.07339" lon="0.74007">
        <ele>1166.6</ele>
        <time>2022-05-23 11:36:19</time>
      </trkpt>
      <trkpt lat="42.07337" lon="0.74008">
        <ele>1166.8</ele>
        <time>2022-05-23 11:36:20</time>
      </trkpt>
      <trkpt lat="42.07336" lon="0.7401">
        <ele>1167</ele>
        <time>2022-05-23 11:36:21</time>
      </trkpt>
      <trkpt lat="42.07334" lon="0.74011">
        <ele>1167.2</ele>
        <time>2022-05-23 11:36:22</time>
      </trkpt>
      <trkpt lat="42.07332" lon="0.74011">
        <ele>1167.2</ele>
        <time>2022-05-23 11:36:23</time>
      </trkpt>
      <trkpt lat="42.0733" lon="0.74012">
        <ele>1167.4</ele>
        <time>2022-05-23 11:36:24</time>
      </trkpt>
      <trkpt lat="42.07328" lon="0.74012">
        <ele>1167.6</ele>
        <time>2022-05-23 11:36:25</time>
      </trkpt>
      <trkpt lat="42.07326" lon="0.74011">
        <ele>1167.8</ele>
        <time>2022-05-23 11:36:26</time>
      </trkpt>
      <trkpt lat="42.07325" lon="0.7401">
        <ele>1167.8</ele>
        <time>2022-05-23 11:36:27</time>
      </trkpt>
      <trkpt lat="42.07323" lon="0.74008">
        <ele>1168</ele>
        <time>2022-05-23 11:36:28</time>
      </trkpt>
      <trkpt lat="42.07322" lon="0.74007">
        <ele>1168.2</ele>
        <time>2022-05-23 11:36:29</time>
      </trkpt>
      <trkpt lat="42.07321" lon="0.74006">
        <ele>1168.2</ele>
        <time>2022-05-23 11:36:30</time>
      </trkpt>
      <trkpt lat="42.0732" lon="0.74005">
        <ele>1168.4</ele>
        <time>2022-05-23 11:36:31</time>
      </trkpt>
      <trkpt lat="42.07318" lon="0.74004">
        <ele>1168.6</ele>
        <time>2022-05-23 11:36:32</time>
      </trkpt>
      <trkpt lat="42.07317" lon="0.74002">
        <ele>1168.6</ele>
        <time>2022-05-23 11:36:33</time>
      </trkpt>
      <trkpt lat="42.07316" lon="0.74001">
        <ele>1168.8</ele>
        <time>2022-05-23 11:36:34</time>
      </trkpt>
      <trkpt lat="42.07315" lon="0.74">
        <ele>1169</ele>
        <time>2022-05-23 11:36:35</time>
      </trkpt>
      <trkpt lat="42.07313" lon="0.73998">
        <ele>1169.2</ele>
        <time>2022-05-23 11:36:36</time>
      </trkpt>
      <trkpt lat="42.07312" lon="0.73997">
        <ele>1169.4</ele>
        <time>2022-05-23 11:36:37</time>
      </trkpt>
      <trkpt lat="42.0731" lon="0.73995">
        <ele>1169.4</ele>
        <time>2022-05-23 11:36:38</time>
      </trkpt>
      <trkpt lat="42.07309" lon="0.73994">
        <ele>1169.6</ele>
        <time>2022-05-23 11:36:39</time>
      </trkpt>
      <trkpt lat="42.07308" lon="0.73993">
        <ele>1169.8</ele>
        <time>2022-05-23 11:36:40</time>
      </trkpt>
      <trkpt lat="42.07307" lon="0.73991">
        <ele>1170</ele>
        <time>2022-05-23 11:36:41</time>
      </trkpt>
      <trkpt lat="42.07306" lon="0.7399">
        <ele>1170.2</ele>
        <time>2022-05-23 11:36:42</time>
      </trkpt>
      <trkpt lat="42.07304" lon="0.73989">
        <ele>1170.2</ele>
        <time>2022-05-23 11:36:43</time>
      </trkpt>
      <trkpt lat="42.07303" lon="0.73987">
        <ele>1170.4</ele>
        <time>2022-05-23 11:36:44</time>
      </trkpt>
      <trkpt lat="42.07302" lon="0.73986">
        <ele>1170.6</ele>
        <time>2022-05-23 11:36:45</time>
      </trkpt>
      <trkpt lat="42.073" lon="0.73985">
        <ele>1170.6</ele>
        <time>2022-05-23 11:36:46</time>
      </trkpt>
      <trkpt lat="42.07299" lon="0.73984">
        <ele>1170.8</ele>
        <time>2022-05-23 11:36:47</time>
      </trkpt>
      <trkpt lat="42.07298" lon="0.73982">
        <ele>1171</ele>
        <time>2022-05-23 11:36:48</time>
      </trkpt>
      <trkpt lat="42.07297" lon="0.73981">
        <ele>1171.2</ele>
        <time>2022-05-23 11:36:49</time>
      </trkpt>
      <trkpt lat="42.07296" lon="0.73979">
        <ele>1171.4</ele>
        <time>2022-05-23 11:36:50</time>
      </trkpt>
      <trkpt lat="42.07294" lon="0.73978">
        <ele>1171.6</ele>
        <time>2022-05-23 11:36:51</time>
      </trkpt>
      <trkpt lat="42.07293" lon="0.73976">
        <ele>1171.8</ele>
        <time>2022-05-23 11:36:52</time>
      </trkpt>
      <trkpt lat="42.07292" lon="0.73975">
        <ele>1172</ele>
        <time>2022-05-23 11:36:53</time>
      </trkpt>
      <trkpt lat="42.07291" lon="0.73974">
        <ele>1172.2</ele>
        <time>2022-05-23 11:36:54</time>
      </trkpt>
      <trkpt lat="42.07289" lon="0.73972">
        <ele>1172.2</ele>
        <time>2022-05-23 11:36:55</time>
      </trkpt>
      <trkpt lat="42.07288" lon="0.73971">
        <ele>1172.4</ele>
        <time>2022-05-23 11:36:56</time>
      </trkpt>
      <trkpt lat="42.07287" lon="0.7397">
        <ele>1172.6</ele>
        <time>2022-05-23 11:36:57</time>
      </trkpt>
      <trkpt lat="42.07286" lon="0.73968">
        <ele>1172.8</ele>
        <time>2022-05-23 11:36:58</time>
      </trkpt>
      <trkpt lat="42.07285" lon="0.73967">
        <ele>1173</ele>
        <time>2022-05-23 11:36:59</time>
      </trkpt>
      <trkpt lat="42.07283" lon="0.73965">
        <ele>1173.2</ele>
        <time>2022-05-23 11:37:00</time>
      </trkpt>
      <trkpt lat="42.07282" lon="0.73964">
        <ele>1173.4</ele>
        <time>2022-05-23 11:37:01</time>
      </trkpt>
      <trkpt lat="42.07281" lon="0.73962">
        <ele>1173.6</ele>
        <time>2022-05-23 11:37:02</time>
      </trkpt>
      <trkpt lat="42.0728" lon="0.73961">
        <ele>1173.8</ele>
        <time>2022-05-23 11:37:03</time>
      </trkpt>
      <trkpt lat="42.07278" lon="0.7396">
        <ele>1173.8</ele>
        <time>2022-05-23 11:37:04</time>
      </trkpt>
      <trkpt lat="42.07277" lon="0.73958">
        <ele>1174</ele>
        <time>2022-05-23 11:37:05</time>
      </trkpt>
      <trkpt lat="42.07276" lon="0.73958">
        <ele>1174.2</ele>
        <time>2022-05-23 11:37:06</time>
      </trkpt>
      <trkpt lat="42.07275" lon="0.73956">
        <ele>1174.4</ele>
        <time>2022-05-23 11:37:07</time>
      </trkpt>
      <trkpt lat="42.07273" lon="0.73955">
        <ele>1174.4</ele>
        <time>2022-05-23 11:37:08</time>
      </trkpt>
      <trkpt lat="42.07272" lon="0.73955">
        <ele>1174.6</ele>
        <time>2022-05-23 11:37:09</time>
      </trkpt>
      <trkpt lat="42.07271" lon="0.73953">
        <ele>1174.8</ele>
        <time>2022-05-23 11:37:10</time>
      </trkpt>
      <trkpt lat="42.0727" lon="0.73952">
        <ele>1175</ele>
        <time>2022-05-23 11:37:11</time>
      </trkpt>
      <trkpt lat="42.07268" lon="0.73951">
        <ele>1175.2</ele>
        <time>2022-05-23 11:37:12</time>
      </trkpt>
      <trkpt lat="42.07267" lon="0.7395">
        <ele>1175.2</ele>
        <time>2022-05-23 11:37:13</time>
      </trkpt>
      <trkpt lat="42.07265" lon="0.73949">
        <ele>1175.4</ele>
        <time>2022-05-23 11:37:14</time>
      </trkpt>
      <trkpt lat="42.07264" lon="0.73948">
        <ele>1175.6</ele>
        <time>2022-05-23 11:37:15</time>
      </trkpt>
      <trkpt lat="42.07263" lon="0.73948">
        <ele>1175.6</ele>
        <time>2022-05-23 11:37:16</time>
      </trkpt>
      <trkpt lat="42.07261" lon="0.73947">
        <ele>1175.8</ele>
        <time>2022-05-23 11:37:17</time>
      </trkpt>
      <trkpt lat="42.0726" lon="0.73946">
        <ele>1176</ele>
        <time>2022-05-23 11:37:18</time>
      </trkpt>
      <trkpt lat="42.07258" lon="0.73944">
        <ele>1176</ele>
        <time>2022-05-23 11:37:19</time>
      </trkpt>
      <trkpt lat="42.07257" lon="0.73943">
        <ele>1176.2</ele>
        <time>2022-05-23 11:37:20</time>
      </trkpt>
      <trkpt lat="42.07255" lon="0.73942">
        <ele>1176.4</ele>
        <time>2022-05-23 11:37:21</time>
      </trkpt>
      <trkpt lat="42.07254" lon="0.73941">
        <ele>1176.6</ele>
        <time>2022-05-23 11:37:22</time>
      </trkpt>
      <trkpt lat="42.07253" lon="0.73941">
        <ele>1176.6</ele>
        <time>2022-05-23 11:37:23</time>
      </trkpt>
      <trkpt lat="42.07251" lon="0.7394">
        <ele>1176.8</ele>
        <time>2022-05-23 11:37:24</time>
      </trkpt>
      <trkpt lat="42.0725" lon="0.73939">
        <ele>1177</ele>
        <time>2022-05-23 11:37:25</time>
      </trkpt>
      <trkpt lat="42.07249" lon="0.73938">
        <ele>1177.2</ele>
        <time>2022-05-23 11:37:26</time>
      </trkpt>
      <trkpt lat="42.07248" lon="0.73936">
        <ele>1177.2</ele>
        <time>2022-05-23 11:37:27</time>
      </trkpt>
      <trkpt lat="42.07247" lon="0.73936">
        <ele>1177.4</ele>
        <time>2022-05-23 11:37:28</time>
      </trkpt>
      <trkpt lat="42.07245" lon="0.73936">
        <ele>1177.4</ele>
        <time>2022-05-23 11:37:29</time>
      </trkpt>
      <trkpt lat="42.07244" lon="0.73936">
        <ele>1177.6</ele>
        <time>2022-05-23 11:37:30</time>
      </trkpt>
      <trkpt lat="42.07243" lon="0.73936">
        <ele>1177.8</ele>
        <time>2022-05-23 11:37:31</time>
      </trkpt>
      <trkpt lat="42.07241" lon="0.73935">
        <ele>1177.8</ele>
        <time>2022-05-23 11:37:32</time>
      </trkpt>
      <trkpt lat="42.07239" lon="0.73934">
        <ele>1178</ele>
        <time>2022-05-23 11:37:33</time>
      </trkpt>
      <trkpt lat="42.07238" lon="0.73934">
        <ele>1178.2</ele>
        <time>2022-05-23 11:37:34</time>
      </trkpt>
      <trkpt lat="42.07237" lon="0.73934">
        <ele>1178.2</ele>
        <time>2022-05-23 11:37:35</time>
      </trkpt>
      <trkpt lat="42.07235" lon="0.73933">
        <ele>1178.4</ele>
        <time>2022-05-23 11:37:36</time>
      </trkpt>
      <trkpt lat="42.07233" lon="0.73932">
        <ele>1178.6</ele>
        <time>2022-05-23 11:37:37</time>
      </trkpt>
      <trkpt lat="42.07231" lon="0.73932">
        <ele>1178.8</ele>
        <time>2022-05-23 11:37:38</time>
      </trkpt>
      <trkpt lat="42.0723" lon="0.73932">
        <ele>1178.8</ele>
        <time>2022-05-23 11:37:39</time>
      </trkpt>
      <trkpt lat="42.07228" lon="0.73932">
        <ele>1179</ele>
        <time>2022-05-23 11:37:40</time>
      </trkpt>
      <trkpt lat="42.07227" lon="0.73931">
        <ele>1179.2</ele>
        <time>2022-05-23 11:37:41</time>
      </trkpt>
      <trkpt lat="42.07226" lon="0.7393">
        <ele>1179.4</ele>
        <time>2022-05-23 11:37:42</time>
      </trkpt>
      <trkpt lat="42.07224" lon="0.7393">
        <ele>1179.6</ele>
        <time>2022-05-23 11:37:43</time>
      </trkpt>
      <trkpt lat="42.07223" lon="0.73931">
        <ele>1179.6</ele>
        <time>2022-05-23 11:37:44</time>
      </trkpt>
      <trkpt lat="42.07221" lon="0.73931">
        <ele>1179.8</ele>
        <time>2022-05-23 11:37:45</time>
      </trkpt>
      <trkpt lat="42.07219" lon="0.73931">
        <ele>1180</ele>
        <time>2022-05-23 11:37:46</time>
      </trkpt>
      <trkpt lat="42.07218" lon="0.73931">
        <ele>1180.2</ele>
        <time>2022-05-23 11:37:47</time>
      </trkpt>
      <trkpt lat="42.07216" lon="0.7393">
        <ele>1180.4</ele>
        <time>2022-05-23 11:37:48</time>
      </trkpt>
      <trkpt lat="42.07214" lon="0.7393">
        <ele>1180.6</ele>
        <time>2022-05-23 11:37:49</time>
      </trkpt>
      <trkpt lat="42.07212" lon="0.7393">
        <ele>1180.8</ele>
        <time>2022-05-23 11:37:50</time>
      </trkpt>
      <trkpt lat="42.0721" lon="0.7393">
        <ele>1181</ele>
        <time>2022-05-23 11:37:51</time>
      </trkpt>
      <trkpt lat="42.07209" lon="0.7393">
        <ele>1181.2</ele>
        <time>2022-05-23 11:37:52</time>
      </trkpt>
      <trkpt lat="42.07207" lon="0.73931">
        <ele>1181.2</ele>
        <time>2022-05-23 11:37:53</time>
      </trkpt>
      <trkpt lat="42.07206" lon="0.73931">
        <ele>1181.4</ele>
        <time>2022-05-23 11:37:54</time>
      </trkpt>
      <trkpt lat="42.07204" lon="0.7393">
        <ele>1181.6</ele>
        <time>2022-05-23 11:37:55</time>
      </trkpt>
      <trkpt lat="42.07202" lon="0.7393">
        <ele>1181.8</ele>
        <time>2022-05-23 11:37:56</time>
      </trkpt>
      <trkpt lat="42.072" lon="0.7393">
        <ele>1182</ele>
        <time>2022-05-23 11:37:57</time>
      </trkpt>
      <trkpt lat="42.07198" lon="0.73929">
        <ele>1182.2</ele>
        <time>2022-05-23 11:37:58</time>
      </trkpt>
      <trkpt lat="42.07196" lon="0.73929">
        <ele>1182.4</ele>
        <time>2022-05-23 11:37:59</time>
      </trkpt>
      <trkpt lat="42.07194" lon="0.73929">
        <ele>1182.6</ele>
        <time>2022-05-23 11:38:00</time>
      </trkpt>
      <trkpt lat="42.07192" lon="0.73929">
        <ele>1182.8</ele>
        <time>2022-05-23 11:38:01</time>
      </trkpt>
      <trkpt lat="42.0719" lon="0.73928">
        <ele>1183</ele>
        <time>2022-05-23 11:38:02</time>
      </trkpt>
      <trkpt lat="42.07188" lon="0.73928">
        <ele>1183</ele>
        <time>2022-05-23 11:38:03</time>
      </trkpt>
      <trkpt lat="42.07186" lon="0.73928">
        <ele>1183.2</ele>
        <time>2022-05-23 11:38:04</time>
      </trkpt>
      <trkpt lat="42.07184" lon="0.73929">
        <ele>1183.4</ele>
        <time>2022-05-23 11:38:05</time>
      </trkpt>
      <trkpt lat="42.07182" lon="0.73929">
        <ele>1183.6</ele>
        <time>2022-05-23 11:38:06</time>
      </trkpt>
      <trkpt lat="42.07181" lon="0.7393">
        <ele>1183.6</ele>
        <time>2022-05-23 11:38:07</time>
      </trkpt>
      <trkpt lat="42.07179" lon="0.7393">
        <ele>1183.8</ele>
        <time>2022-05-23 11:38:08</time>
      </trkpt>
      <trkpt lat="42.07177" lon="0.73931">
        <ele>1184</ele>
        <time>2022-05-23 11:38:09</time>
      </trkpt>
      <trkpt lat="42.07175" lon="0.73931">
        <ele>1184</ele>
        <time>2022-05-23 11:38:10</time>
      </trkpt>
      <trkpt lat="42.07173" lon="0.73932">
        <ele>1184.2</ele>
        <time>2022-05-23 11:38:11</time>
      </trkpt>
      <trkpt lat="42.07171" lon="0.73933">
        <ele>1184.4</ele>
        <time>2022-05-23 11:38:12</time>
      </trkpt>
      <trkpt lat="42.07169" lon="0.73934">
        <ele>1184.6</ele>
        <time>2022-05-23 11:38:13</time>
      </trkpt>
      <trkpt lat="42.07168" lon="0.73934">
        <ele>1184.8</ele>
        <time>2022-05-23 11:38:14</time>
      </trkpt>
      <trkpt lat="42.07166" lon="0.73936">
        <ele>1185</ele>
        <time>2022-05-23 11:38:15</time>
      </trkpt>
      <trkpt lat="42.07165" lon="0.73937">
        <ele>1185.2</ele>
        <time>2022-05-23 11:38:16</time>
      </trkpt>
      <trkpt lat="42.07164" lon="0.73938">
        <ele>1185.4</ele>
        <time>2022-05-23 11:38:17</time>
      </trkpt>
      <trkpt lat="42.07163" lon="0.73939">
        <ele>1185.4</ele>
        <time>2022-05-23 11:38:18</time>
      </trkpt>
      <trkpt lat="42.07161" lon="0.7394">
        <ele>1185.6</ele>
        <time>2022-05-23 11:38:19</time>
      </trkpt>
      <trkpt lat="42.0716" lon="0.73942">
        <ele>1185.8</ele>
        <time>2022-05-23 11:38:20</time>
      </trkpt>
      <trkpt lat="42.07159" lon="0.73942">
        <ele>1186</ele>
        <time>2022-05-23 11:38:21</time>
      </trkpt>
      <trkpt lat="42.07158" lon="0.73944">
        <ele>1186.2</ele>
        <time>2022-05-23 11:38:22</time>
      </trkpt>
      <trkpt lat="42.07157" lon="0.73945">
        <ele>1186.4</ele>
        <time>2022-05-23 11:38:23</time>
      </trkpt>
      <trkpt lat="42.07156" lon="0.73947">
        <ele>1186.6</ele>
        <time>2022-05-23 11:38:24</time>
      </trkpt>
      <trkpt lat="42.07154" lon="0.73949">
        <ele>1186.6</ele>
        <time>2022-05-23 11:38:25</time>
      </trkpt>
      <trkpt lat="42.07152" lon="0.7395">
        <ele>1186.8</ele>
        <time>2022-05-23 11:38:26</time>
      </trkpt>
      <trkpt lat="42.0715" lon="0.73952">
        <ele>1186.8</ele>
        <time>2022-05-23 11:38:27</time>
      </trkpt>
      <trkpt lat="42.07148" lon="0.73952">
        <ele>1186.8</ele>
        <time>2022-05-23 11:38:28</time>
      </trkpt>
      <trkpt lat="42.07144" lon="0.73951">
        <ele>1186.8</ele>
        <time>2022-05-23 11:38:29</time>
      </trkpt>
      <trkpt lat="42.07139" lon="0.73948">
        <ele>1186.6</ele>
        <time>2022-05-23 11:38:30</time>
      </trkpt>
      <trkpt lat="42.07136" lon="0.73944">
        <ele>1186.4</ele>
        <time>2022-05-23 11:38:31</time>
      </trkpt>
      <trkpt lat="42.07134" lon="0.7394">
        <ele>1186.2</ele>
        <time>2022-05-23 11:38:32</time>
      </trkpt>
      <trkpt lat="42.07132" lon="0.73935">
        <ele>1185.8</ele>
        <time>2022-05-23 11:38:33</time>
      </trkpt>
      <trkpt lat="42.0713" lon="0.73927">
        <ele>1185.6</ele>
        <time>2022-05-23 11:38:34</time>
      </trkpt>
      <trkpt lat="42.07128" lon="0.7392">
        <ele>1185</ele>
        <time>2022-05-23 11:38:35</time>
      </trkpt>
      <trkpt lat="42.07125" lon="0.73912">
        <ele>1184.6</ele>
        <time>2022-05-23 11:38:36</time>
      </trkpt>
      <trkpt lat="42.07122" lon="0.73904">
        <ele>1184</ele>
        <time>2022-05-23 11:38:37</time>
      </trkpt>
      <trkpt lat="42.07119" lon="0.73898">
        <ele>1183.6</ele>
        <time>2022-05-23 11:38:38</time>
      </trkpt>
      <trkpt lat="42.07115" lon="0.7389">
        <ele>1182.8</ele>
        <time>2022-05-23 11:38:39</time>
      </trkpt>
      <trkpt lat="42.0711" lon="0.73882">
        <ele>1182.2</ele>
        <time>2022-05-23 11:38:40</time>
      </trkpt>
      <trkpt lat="42.07105" lon="0.73874">
        <ele>1181.4</ele>
        <time>2022-05-23 11:38:41</time>
      </trkpt>
      <trkpt lat="42.07099" lon="0.73865">
        <ele>1180.6</ele>
        <time>2022-05-23 11:38:42</time>
      </trkpt>
      <trkpt lat="42.07094" lon="0.73856">
        <ele>1179.8</ele>
        <time>2022-05-23 11:38:43</time>
      </trkpt>
      <trkpt lat="42.07089" lon="0.73846">
        <ele>1179</ele>
        <time>2022-05-23 11:38:44</time>
      </trkpt>
      <trkpt lat="42.07084" lon="0.73837">
        <ele>1178.4</ele>
        <time>2022-05-23 11:38:45</time>
      </trkpt>
      <trkpt lat="42.07079" lon="0.73828">
        <ele>1177.6</ele>
        <time>2022-05-23 11:38:46</time>
      </trkpt>
      <trkpt lat="42.07073" lon="0.73819">
        <ele>1176.8</ele>
        <time>2022-05-23 11:38:47</time>
      </trkpt>
      <trkpt lat="42.07066" lon="0.73811">
        <ele>1176</ele>
        <time>2022-05-23 11:38:48</time>
      </trkpt>
      <trkpt lat="42.07057" lon="0.73805">
        <ele>1175.4</ele>
        <time>2022-05-23 11:38:49</time>
      </trkpt>
      <trkpt lat="42.07047" lon="0.73802">
        <ele>1174.6</ele>
        <time>2022-05-23 11:38:50</time>
      </trkpt>
      <trkpt lat="42.07038" lon="0.738">
        <ele>1174.2</ele>
        <time>2022-05-23 11:38:51</time>
      </trkpt>
      <trkpt lat="42.07028" lon="0.73798">
        <ele>1174</ele>
        <time>2022-05-23 11:38:52</time>
      </trkpt>
      <trkpt lat="42.07019" lon="0.73798">
        <ele>1174.4</ele>
        <time>2022-05-23 11:38:53</time>
      </trkpt>
      <trkpt lat="42.07012" lon="0.738">
        <ele>1174.8</ele>
        <time>2022-05-23 11:38:54</time>
      </trkpt>
      <trkpt lat="42.07007" lon="0.73805">
        <ele>1175.2</ele>
        <time>2022-05-23 11:38:55</time>
      </trkpt>
      <trkpt lat="42.07004" lon="0.73809">
        <ele>1175.8</ele>
        <time>2022-05-23 11:38:56</time>
      </trkpt>
      <trkpt lat="42.07001" lon="0.73813">
        <ele>1176.2</ele>
        <time>2022-05-23 11:38:57</time>
      </trkpt>
      <trkpt lat="42.06999" lon="0.73817">
        <ele>1176.8</ele>
        <time>2022-05-23 11:38:58</time>
      </trkpt>
      <trkpt lat="42.06997" lon="0.7382">
        <ele>1177.2</ele>
        <time>2022-05-23 11:38:59</time>
      </trkpt>
      <trkpt lat="42.06996" lon="0.73823">
        <ele>1177.6</ele>
        <time>2022-05-23 11:39:00</time>
      </trkpt>
      <trkpt lat="42.06994" lon="0.73826">
        <ele>1177.8</ele>
        <time>2022-05-23 11:39:01</time>
      </trkpt>
      <trkpt lat="42.06993" lon="0.73829">
        <ele>1178.2</ele>
        <time>2022-05-23 11:39:02</time>
      </trkpt>
      <trkpt lat="42.06992" lon="0.73831">
        <ele>1178.6</ele>
        <time>2022-05-23 11:39:03</time>
      </trkpt>
      <trkpt lat="42.06991" lon="0.73834">
        <ele>1178.8</ele>
        <time>2022-05-23 11:39:04</time>
      </trkpt>
      <trkpt lat="42.0699" lon="0.73836">
        <ele>1179</ele>
        <time>2022-05-23 11:39:05</time>
      </trkpt>
      <trkpt lat="42.0699" lon="0.73838">
        <ele>1179.4</ele>
        <time>2022-05-23 11:39:06</time>
      </trkpt>
      <trkpt lat="42.06989" lon="0.7384">
        <ele>1179.6</ele>
        <time>2022-05-23 11:39:07</time>
      </trkpt>
      <trkpt lat="42.06989" lon="0.73842">
        <ele>1179.8</ele>
        <time>2022-05-23 11:39:08</time>
      </trkpt>
      <trkpt lat="42.06988" lon="0.73844">
        <ele>1179.8</ele>
        <time>2022-05-23 11:39:09</time>
      </trkpt>
      <trkpt lat="42.06988" lon="0.73846">
        <ele>1180.2</ele>
        <time>2022-05-23 11:39:10</time>
      </trkpt>
      <trkpt lat="42.06987" lon="0.73848">
        <ele>1180.4</ele>
        <time>2022-05-23 11:39:11</time>
      </trkpt>
      <trkpt lat="42.06987" lon="0.7385">
        <ele>1180.6</ele>
        <time>2022-05-23 11:39:12</time>
      </trkpt>
      <trkpt lat="42.06986" lon="0.73852">
        <ele>1180.8</ele>
        <time>2022-05-23 11:39:13</time>
      </trkpt>
      <trkpt lat="42.06986" lon="0.73854">
        <ele>1181</ele>
        <time>2022-05-23 11:39:14</time>
      </trkpt>
      <trkpt lat="42.06985" lon="0.73855">
        <ele>1181.2</ele>
        <time>2022-05-23 11:39:15</time>
      </trkpt>
      <trkpt lat="42.06984" lon="0.73857">
        <ele>1181.4</ele>
        <time>2022-05-23 11:39:16</time>
      </trkpt>
      <trkpt lat="42.06984" lon="0.73859">
        <ele>1181.6</ele>
        <time>2022-05-23 11:39:17</time>
      </trkpt>
      <trkpt lat="42.06983" lon="0.73861">
        <ele>1181.8</ele>
        <time>2022-05-23 11:39:18</time>
      </trkpt>
      <trkpt lat="42.06983" lon="0.73863">
        <ele>1182</ele>
        <time>2022-05-23 11:39:19</time>
      </trkpt>
      <trkpt lat="42.06983" lon="0.73865">
        <ele>1182.2</ele>
        <time>2022-05-23 11:39:20</time>
      </trkpt>
      <trkpt lat="42.06982" lon="0.73867">
        <ele>1182.4</ele>
        <time>2022-05-23 11:39:21</time>
      </trkpt>
      <trkpt lat="42.06982" lon="0.73869">
        <ele>1182.4</ele>
        <time>2022-05-23 11:39:22</time>
      </trkpt>
      <trkpt lat="42.06982" lon="0.73871">
        <ele>1182.6</ele>
        <time>2022-05-23 11:39:23</time>
      </trkpt>
      <trkpt lat="42.06981" lon="0.73873">
        <ele>1182.8</ele>
        <time>2022-05-23 11:39:24</time>
      </trkpt>
      <trkpt lat="42.06981" lon="0.73876">
        <ele>1183</ele>
        <time>2022-05-23 11:39:25</time>
      </trkpt>
      <trkpt lat="42.06981" lon="0.73878">
        <ele>1183</ele>
        <time>2022-05-23 11:39:26</time>
      </trkpt>
      <trkpt lat="42.06981" lon="0.73879">
        <ele>1183.2</ele>
        <time>2022-05-23 11:39:27</time>
      </trkpt>
      <trkpt lat="42.0698" lon="0.73881">
        <ele>1183.4</ele>
        <time>2022-05-23 11:39:28</time>
      </trkpt>
      <trkpt lat="42.0698" lon="0.73883">
        <ele>1183.4</ele>
        <time>2022-05-23 11:39:29</time>
      </trkpt>
      <trkpt lat="42.06979" lon="0.73885">
        <ele>1183.6</ele>
        <time>2022-05-23 11:39:30</time>
      </trkpt>
      <trkpt lat="42.06978" lon="0.73887">
        <ele>1183.8</ele>
        <time>2022-05-23 11:39:31</time>
      </trkpt>
      <trkpt lat="42.06978" lon="0.73889">
        <ele>1184</ele>
        <time>2022-05-23 11:39:32</time>
      </trkpt>
      <trkpt lat="42.06978" lon="0.73891">
        <ele>1184</ele>
        <time>2022-05-23 11:39:33</time>
      </trkpt>
      <trkpt lat="42.06977" lon="0.73894">
        <ele>1184.2</ele>
        <time>2022-05-23 11:39:34</time>
      </trkpt>
      <trkpt lat="42.06977" lon="0.73896">
        <ele>1184.4</ele>
        <time>2022-05-23 11:39:35</time>
      </trkpt>
      <trkpt lat="42.06976" lon="0.73897">
        <ele>1184.4</ele>
        <time>2022-05-23 11:39:36</time>
      </trkpt>
      <trkpt lat="42.06976" lon="0.73899">
        <ele>1184.6</ele>
        <time>2022-05-23 11:39:37</time>
      </trkpt>
      <trkpt lat="42.06976" lon="0.73901">
        <ele>1184.8</ele>
        <time>2022-05-23 11:39:38</time>
      </trkpt>
      <trkpt lat="42.06975" lon="0.73903">
        <ele>1184.8</ele>
        <time>2022-05-23 11:39:39</time>
      </trkpt>
      <trkpt lat="42.06975" lon="0.73904">
        <ele>1185</ele>
        <time>2022-05-23 11:39:40</time>
      </trkpt>
      <trkpt lat="42.06975" lon="0.73906">
        <ele>1185.2</ele>
        <time>2022-05-23 11:39:41</time>
      </trkpt>
      <trkpt lat="42.06974" lon="0.73908">
        <ele>1185.2</ele>
        <time>2022-05-23 11:39:42</time>
      </trkpt>
      <trkpt lat="42.06974" lon="0.73911">
        <ele>1185.4</ele>
        <time>2022-05-23 11:39:43</time>
      </trkpt>
      <trkpt lat="42.06974" lon="0.73912">
        <ele>1185.6</ele>
        <time>2022-05-23 11:39:44</time>
      </trkpt>
      <trkpt lat="42.06973" lon="0.73914">
        <ele>1185.6</ele>
        <time>2022-05-23 11:39:45</time>
      </trkpt>
      <trkpt lat="42.06972" lon="0.73916">
        <ele>1185.8</ele>
        <time>2022-05-23 11:39:46</time>
      </trkpt>
      <trkpt lat="42.06972" lon="0.73918">
        <ele>1186</ele>
        <time>2022-05-23 11:39:47</time>
      </trkpt>
      <trkpt lat="42.06971" lon="0.7392">
        <ele>1186</ele>
        <time>2022-05-23 11:39:48</time>
      </trkpt>
      <trkpt lat="42.06971" lon="0.73922">
        <ele>1186.2</ele>
        <time>2022-05-23 11:39:49</time>
      </trkpt>
      <trkpt lat="42.06971" lon="0.73924">
        <ele>1186.4</ele>
        <time>2022-05-23 11:39:50</time>
      </trkpt>
      <trkpt lat="42.06971" lon="0.73927">
        <ele>1186.6</ele>
        <time>2022-05-23 11:39:51</time>
      </trkpt>
      <trkpt lat="42.0697" lon="0.73929">
        <ele>1186.8</ele>
        <time>2022-05-23 11:39:52</time>
      </trkpt>
      <trkpt lat="42.0697" lon="0.73931">
        <ele>1186.8</ele>
        <time>2022-05-23 11:39:53</time>
      </trkpt>
      <trkpt lat="42.06969" lon="0.73933">
        <ele>1187</ele>
        <time>2022-05-23 11:39:54</time>
      </trkpt>
      <trkpt lat="42.06969" lon="0.73934">
        <ele>1187.2</ele>
        <time>2022-05-23 11:39:55</time>
      </trkpt>
      <trkpt lat="42.06968" lon="0.73937">
        <ele>1187.4</ele>
        <time>2022-05-23 11:39:56</time>
      </trkpt>
      <trkpt lat="42.06968" lon="0.73939">
        <ele>1187.4</ele>
        <time>2022-05-23 11:39:57</time>
      </trkpt>
      <trkpt lat="42.06968" lon="0.73941">
        <ele>1187.6</ele>
        <time>2022-05-23 11:39:58</time>
      </trkpt>
      <trkpt lat="42.06967" lon="0.73943">
        <ele>1187.8</ele>
        <time>2022-05-23 11:39:59</time>
      </trkpt>
      <trkpt lat="42.06967" lon="0.73945">
        <ele>1187.8</ele>
        <time>2022-05-23 11:40:00</time>
      </trkpt>
      <trkpt lat="42.06966" lon="0.73947">
        <ele>1188</ele>
        <time>2022-05-23 11:40:01</time>
      </trkpt>
      <trkpt lat="42.06966" lon="0.73949">
        <ele>1188.2</ele>
        <time>2022-05-23 11:40:02</time>
      </trkpt>
      <trkpt lat="42.06966" lon="0.73952">
        <ele>1188.4</ele>
        <time>2022-05-23 11:40:03</time>
      </trkpt>
      <trkpt lat="42.06966" lon="0.73954">
        <ele>1188.4</ele>
        <time>2022-05-23 11:40:04</time>
      </trkpt>
      <trkpt lat="42.06966" lon="0.73955">
        <ele>1188.6</ele>
        <time>2022-05-23 11:40:05</time>
      </trkpt>
      <trkpt lat="42.06965" lon="0.73957">
        <ele>1188.8</ele>
        <time>2022-05-23 11:40:06</time>
      </trkpt>
      <trkpt lat="42.06964" lon="0.73959">
        <ele>1188.8</ele>
        <time>2022-05-23 11:40:07</time>
      </trkpt>
      <trkpt lat="42.06964" lon="0.73961">
        <ele>1189</ele>
        <time>2022-05-23 11:40:08</time>
      </trkpt>
      <trkpt lat="42.06964" lon="0.73963">
        <ele>1189.2</ele>
        <time>2022-05-23 11:40:09</time>
      </trkpt>
      <trkpt lat="42.06963" lon="0.73965">
        <ele>1189.4</ele>
        <time>2022-05-23 11:40:10</time>
      </trkpt>
      <trkpt lat="42.06963" lon="0.73967">
        <ele>1189.4</ele>
        <time>2022-05-23 11:40:11</time>
      </trkpt>
      <trkpt lat="42.06963" lon="0.73969">
        <ele>1189.6</ele>
        <time>2022-05-23 11:40:12</time>
      </trkpt>
      <trkpt lat="42.06962" lon="0.73971">
        <ele>1189.8</ele>
        <time>2022-05-23 11:40:13</time>
      </trkpt>
      <trkpt lat="42.06962" lon="0.73973">
        <ele>1189.8</ele>
        <time>2022-05-23 11:40:14</time>
      </trkpt>
      <trkpt lat="42.06961" lon="0.73976">
        <ele>1190</ele>
        <time>2022-05-23 11:40:15</time>
      </trkpt>
      <trkpt lat="42.06961" lon="0.73978">
        <ele>1190.2</ele>
        <time>2022-05-23 11:40:16</time>
      </trkpt>
      <trkpt lat="42.0696" lon="0.7398">
        <ele>1190.4</ele>
        <time>2022-05-23 11:40:17</time>
      </trkpt>
      <trkpt lat="42.0696" lon="0.73982">
        <ele>1190.6</ele>
        <time>2022-05-23 11:40:18</time>
      </trkpt>
      <trkpt lat="42.06959" lon="0.73984">
        <ele>1190.8</ele>
        <time>2022-05-23 11:40:19</time>
      </trkpt>
      <trkpt lat="42.06959" lon="0.73986">
        <ele>1191</ele>
        <time>2022-05-23 11:40:20</time>
      </trkpt>
      <trkpt lat="42.06958" lon="0.73988">
        <ele>1191</ele>
        <time>2022-05-23 11:40:21</time>
      </trkpt>
      <trkpt lat="42.06957" lon="0.7399">
        <ele>1191.2</ele>
        <time>2022-05-23 11:40:22</time>
      </trkpt>
      <trkpt lat="42.06956" lon="0.73992">
        <ele>1191.4</ele>
        <time>2022-05-23 11:40:23</time>
      </trkpt>
      <trkpt lat="42.06956" lon="0.73993">
        <ele>1191.6</ele>
        <time>2022-05-23 11:40:24</time>
      </trkpt>
      <trkpt lat="42.06955" lon="0.73995">
        <ele>1191.6</ele>
        <time>2022-05-23 11:40:25</time>
      </trkpt>
      <trkpt lat="42.06955" lon="0.73998">
        <ele>1191.8</ele>
        <time>2022-05-23 11:40:26</time>
      </trkpt>
      <trkpt lat="42.06954" lon="0.73999">
        <ele>1192</ele>
        <time>2022-05-23 11:40:27</time>
      </trkpt>
      <trkpt lat="42.06953" lon="0.74001">
        <ele>1192.2</ele>
        <time>2022-05-23 11:40:28</time>
      </trkpt>
      <trkpt lat="42.06953" lon="0.74004">
        <ele>1192.4</ele>
        <time>2022-05-23 11:40:29</time>
      </trkpt>
      <trkpt lat="42.06952" lon="0.74005">
        <ele>1192.4</ele>
        <time>2022-05-23 11:40:30</time>
      </trkpt>
      <trkpt lat="42.06951" lon="0.74008">
        <ele>1192.6</ele>
        <time>2022-05-23 11:40:31</time>
      </trkpt>
      <trkpt lat="42.0695" lon="0.7401">
        <ele>1192.8</ele>
        <time>2022-05-23 11:40:32</time>
      </trkpt>
      <trkpt lat="42.0695" lon="0.74012">
        <ele>1193</ele>
        <time>2022-05-23 11:40:33</time>
      </trkpt>
      <trkpt lat="42.06949" lon="0.74014">
        <ele>1193</ele>
        <time>2022-05-23 11:40:34</time>
      </trkpt>
      <trkpt lat="42.06948" lon="0.74017">
        <ele>1193.2</ele>
        <time>2022-05-23 11:40:35</time>
      </trkpt>
      <trkpt lat="42.06948" lon="0.74019">
        <ele>1193.4</ele>
        <time>2022-05-23 11:40:36</time>
      </trkpt>
      <trkpt lat="42.06947" lon="0.74021">
        <ele>1193.6</ele>
        <time>2022-05-23 11:40:37</time>
      </trkpt>
      <trkpt lat="42.06947" lon="0.74023">
        <ele>1193.6</ele>
        <time>2022-05-23 11:40:38</time>
      </trkpt>
      <trkpt lat="42.06946" lon="0.74025">
        <ele>1193.8</ele>
        <time>2022-05-23 11:40:39</time>
      </trkpt>
      <trkpt lat="42.06946" lon="0.74028">
        <ele>1194</ele>
        <time>2022-05-23 11:40:40</time>
      </trkpt>
      <trkpt lat="42.06945" lon="0.7403">
        <ele>1194.2</ele>
        <time>2022-05-23 11:40:41</time>
      </trkpt>
      <trkpt lat="42.06944" lon="0.74032">
        <ele>1194.4</ele>
        <time>2022-05-23 11:40:42</time>
      </trkpt>
      <trkpt lat="42.06944" lon="0.74033">
        <ele>1194.4</ele>
        <time>2022-05-23 11:40:43</time>
      </trkpt>
      <trkpt lat="42.06943" lon="0.74035">
        <ele>1194.6</ele>
        <time>2022-05-23 11:40:44</time>
      </trkpt>
      <trkpt lat="42.06943" lon="0.74037">
        <ele>1194.8</ele>
        <time>2022-05-23 11:40:45</time>
      </trkpt>
      <trkpt lat="42.06942" lon="0.74039">
        <ele>1194.8</ele>
        <time>2022-05-23 11:40:46</time>
      </trkpt>
      <trkpt lat="42.06942" lon="0.74042">
        <ele>1195</ele>
        <time>2022-05-23 11:40:47</time>
      </trkpt>
      <trkpt lat="42.06941" lon="0.74044">
        <ele>1195.2</ele>
        <time>2022-05-23 11:40:48</time>
      </trkpt>
      <trkpt lat="42.0694" lon="0.74045">
        <ele>1195.4</ele>
        <time>2022-05-23 11:40:49</time>
      </trkpt>
      <trkpt lat="42.0694" lon="0.74047">
        <ele>1195.6</ele>
        <time>2022-05-23 11:40:50</time>
      </trkpt>
      <trkpt lat="42.06939" lon="0.74049">
        <ele>1195.6</ele>
        <time>2022-05-23 11:40:51</time>
      </trkpt>
      <trkpt lat="42.06939" lon="0.74051">
        <ele>1195.8</ele>
        <time>2022-05-23 11:40:52</time>
      </trkpt>
      <trkpt lat="42.06938" lon="0.74053">
        <ele>1196</ele>
        <time>2022-05-23 11:40:53</time>
      </trkpt>
      <trkpt lat="42.06937" lon="0.74055">
        <ele>1196</ele>
        <time>2022-05-23 11:40:54</time>
      </trkpt>
      <trkpt lat="42.06937" lon="0.74057">
        <ele>1196.2</ele>
        <time>2022-05-23 11:40:55</time>
      </trkpt>
      <trkpt lat="42.06936" lon="0.74059">
        <ele>1196.4</ele>
        <time>2022-05-23 11:40:56</time>
      </trkpt>
      <trkpt lat="42.06935" lon="0.74061">
        <ele>1196.6</ele>
        <time>2022-05-23 11:40:57</time>
      </trkpt>
      <trkpt lat="42.06935" lon="0.74063">
        <ele>1196.6</ele>
        <time>2022-05-23 11:40:58</time>
      </trkpt>
      <trkpt lat="42.06934" lon="0.74065">
        <ele>1196.8</ele>
        <time>2022-05-23 11:40:59</time>
      </trkpt>
      <trkpt lat="42.06934" lon="0.74068">
        <ele>1197</ele>
        <time>2022-05-23 11:41:00</time>
      </trkpt>
      <trkpt lat="42.06933" lon="0.7407">
        <ele>1197</ele>
        <time>2022-05-23 11:41:01</time>
      </trkpt>
      <trkpt lat="42.06932" lon="0.74072">
        <ele>1197.2</ele>
        <time>2022-05-23 11:41:02</time>
      </trkpt>
      <trkpt lat="42.06932" lon="0.74073">
        <ele>1197.4</ele>
        <time>2022-05-23 11:41:03</time>
      </trkpt>
      <trkpt lat="42.06932" lon="0.74075">
        <ele>1197.6</ele>
        <time>2022-05-23 11:41:04</time>
      </trkpt>
      <trkpt lat="42.06931" lon="0.74077">
        <ele>1197.8</ele>
        <time>2022-05-23 11:41:05</time>
      </trkpt>
      <trkpt lat="42.06931" lon="0.74079">
        <ele>1197.8</ele>
        <time>2022-05-23 11:41:06</time>
      </trkpt>
      <trkpt lat="42.0693" lon="0.74081">
        <ele>1198</ele>
        <time>2022-05-23 11:41:07</time>
      </trkpt>
      <trkpt lat="42.06929" lon="0.74084">
        <ele>1198.2</ele>
        <time>2022-05-23 11:41:08</time>
      </trkpt>
      <trkpt lat="42.06929" lon="0.74086">
        <ele>1198.4</ele>
        <time>2022-05-23 11:41:09</time>
      </trkpt>
      <trkpt lat="42.06929" lon="0.74088">
        <ele>1198.6</ele>
        <time>2022-05-23 11:41:10</time>
      </trkpt>
      <trkpt lat="42.06928" lon="0.7409">
        <ele>1198.8</ele>
        <time>2022-05-23 11:41:11</time>
      </trkpt>
      <trkpt lat="42.06927" lon="0.74092">
        <ele>1198.8</ele>
        <time>2022-05-23 11:41:12</time>
      </trkpt>
      <trkpt lat="42.06927" lon="0.74094">
        <ele>1199</ele>
        <time>2022-05-23 11:41:13</time>
      </trkpt>
      <trkpt lat="42.06927" lon="0.74096">
        <ele>1199.2</ele>
        <time>2022-05-23 11:41:14</time>
      </trkpt>
      <trkpt lat="42.06926" lon="0.74098">
        <ele>1199.4</ele>
        <time>2022-05-23 11:41:15</time>
      </trkpt>
      <trkpt lat="42.06926" lon="0.741">
        <ele>1199.6</ele>
        <time>2022-05-23 11:41:16</time>
      </trkpt>
      <trkpt lat="42.06925" lon="0.74103">
        <ele>1199.8</ele>
        <time>2022-05-23 11:41:17</time>
      </trkpt>
      <trkpt lat="42.06924" lon="0.74105">
        <ele>1199.8</ele>
        <time>2022-05-23 11:41:18</time>
      </trkpt>
      <trkpt lat="42.06924" lon="0.74107">
        <ele>1200</ele>
        <time>2022-05-23 11:41:19</time>
      </trkpt>
      <trkpt lat="42.06923" lon="0.7411">
        <ele>1200.2</ele>
        <time>2022-05-23 11:41:20</time>
      </trkpt>
      <trkpt lat="42.06922" lon="0.74112">
        <ele>1200.4</ele>
        <time>2022-05-23 11:41:21</time>
      </trkpt>
      <trkpt lat="42.06922" lon="0.74114">
        <ele>1200.6</ele>
        <time>2022-05-23 11:41:22</time>
      </trkpt>
      <trkpt lat="42.06921" lon="0.74115">
        <ele>1200.8</ele>
        <time>2022-05-23 11:41:23</time>
      </trkpt>
      <trkpt lat="42.06921" lon="0.74117">
        <ele>1201</ele>
        <time>2022-05-23 11:41:24</time>
      </trkpt>
      <trkpt lat="42.0692" lon="0.74119">
        <ele>1201.2</ele>
        <time>2022-05-23 11:41:25</time>
      </trkpt>
      <trkpt lat="42.06919" lon="0.74121">
        <ele>1201.2</ele>
        <time>2022-05-23 11:41:26</time>
      </trkpt>
      <trkpt lat="42.06919" lon="0.74123">
        <ele>1201.4</ele>
        <time>2022-05-23 11:41:27</time>
      </trkpt>
      <trkpt lat="42.06918" lon="0.74125">
        <ele>1201.6</ele>
        <time>2022-05-23 11:41:28</time>
      </trkpt>
      <trkpt lat="42.06918" lon="0.74127">
        <ele>1201.8</ele>
        <time>2022-05-23 11:41:29</time>
      </trkpt>
      <trkpt lat="42.06917" lon="0.74129">
        <ele>1202</ele>
        <time>2022-05-23 11:41:30</time>
      </trkpt>
      <trkpt lat="42.06917" lon="0.74131">
        <ele>1202</ele>
        <time>2022-05-23 11:41:31</time>
      </trkpt>
      <trkpt lat="42.06917" lon="0.74133">
        <ele>1202.2</ele>
        <time>2022-05-23 11:41:32</time>
      </trkpt>
      <trkpt lat="42.06917" lon="0.74135">
        <ele>1202.4</ele>
        <time>2022-05-23 11:41:33</time>
      </trkpt>
      <trkpt lat="42.06917" lon="0.74137">
        <ele>1202.6</ele>
        <time>2022-05-23 11:41:34</time>
      </trkpt>
      <trkpt lat="42.06916" lon="0.74139">
        <ele>1202.8</ele>
        <time>2022-05-23 11:41:35</time>
      </trkpt>
      <trkpt lat="42.06916" lon="0.74141">
        <ele>1203</ele>
        <time>2022-05-23 11:41:36</time>
      </trkpt>
      <trkpt lat="42.06915" lon="0.74143">
        <ele>1203.2</ele>
        <time>2022-05-23 11:41:37</time>
      </trkpt>
      <trkpt lat="42.06914" lon="0.74145">
        <ele>1203.2</ele>
        <time>2022-05-23 11:41:38</time>
      </trkpt>
      <trkpt lat="42.06914" lon="0.74147">
        <ele>1203.4</ele>
        <time>2022-05-23 11:41:39</time>
      </trkpt>
      <trkpt lat="42.06913" lon="0.74149">
        <ele>1203.6</ele>
        <time>2022-05-23 11:41:40</time>
      </trkpt>
      <trkpt lat="42.06913" lon="0.74152">
        <ele>1203.8</ele>
        <time>2022-05-23 11:41:41</time>
      </trkpt>
      <trkpt lat="42.06912" lon="0.74154">
        <ele>1204</ele>
        <time>2022-05-23 11:41:42</time>
      </trkpt>
      <trkpt lat="42.06912" lon="0.74156">
        <ele>1204.2</ele>
        <time>2022-05-23 11:41:43</time>
      </trkpt>
      <trkpt lat="42.06911" lon="0.74158">
        <ele>1204.4</ele>
        <time>2022-05-23 11:41:44</time>
      </trkpt>
      <trkpt lat="42.06911" lon="0.74161">
        <ele>1204.6</ele>
        <time>2022-05-23 11:41:45</time>
      </trkpt>
      <trkpt lat="42.0691" lon="0.74162">
        <ele>1204.6</ele>
        <time>2022-05-23 11:41:46</time>
      </trkpt>
      <trkpt lat="42.0691" lon="0.74164">
        <ele>1204.8</ele>
        <time>2022-05-23 11:41:47</time>
      </trkpt>
      <trkpt lat="42.0691" lon="0.74166">
        <ele>1205</ele>
        <time>2022-05-23 11:41:48</time>
      </trkpt>
      <trkpt lat="42.06909" lon="0.74168">
        <ele>1205.2</ele>
        <time>2022-05-23 11:41:49</time>
      </trkpt>
      <trkpt lat="42.06909" lon="0.74169">
        <ele>1205.4</ele>
        <time>2022-05-23 11:41:50</time>
      </trkpt>
      <trkpt lat="42.06908" lon="0.74171">
        <ele>1205.4</ele>
        <time>2022-05-23 11:41:51</time>
      </trkpt>
      <trkpt lat="42.06908" lon="0.74173">
        <ele>1205.6</ele>
        <time>2022-05-23 11:41:52</time>
      </trkpt>
      <trkpt lat="42.06907" lon="0.74175">
        <ele>1205.8</ele>
        <time>2022-05-23 11:41:53</time>
      </trkpt>
      <trkpt lat="42.06907" lon="0.74177">
        <ele>1206</ele>
        <time>2022-05-23 11:41:54</time>
      </trkpt>
      <trkpt lat="42.06907" lon="0.74179">
        <ele>1206</ele>
        <time>2022-05-23 11:41:55</time>
      </trkpt>
      <trkpt lat="42.06906" lon="0.74181">
        <ele>1206.2</ele>
        <time>2022-05-23 11:41:56</time>
      </trkpt>
      <trkpt lat="42.06906" lon="0.74182">
        <ele>1206.4</ele>
        <time>2022-05-23 11:41:57</time>
      </trkpt>
      <trkpt lat="42.06906" lon="0.74184">
        <ele>1206.6</ele>
        <time>2022-05-23 11:41:58</time>
      </trkpt>
      <trkpt lat="42.06905" lon="0.74186">
        <ele>1206.6</ele>
        <time>2022-05-23 11:41:59</time>
      </trkpt>
      <trkpt lat="42.06905" lon="0.74188">
        <ele>1206.8</ele>
        <time>2022-05-23 11:42:00</time>
      </trkpt>
      <trkpt lat="42.06904" lon="0.7419">
        <ele>1207</ele>
        <time>2022-05-23 11:42:01</time>
      </trkpt>
      <trkpt lat="42.06904" lon="0.74191">
        <ele>1207.2</ele>
        <time>2022-05-23 11:42:02</time>
      </trkpt>
      <trkpt lat="42.06903" lon="0.74194">
        <ele>1207.2</ele>
        <time>2022-05-23 11:42:03</time>
      </trkpt>
      <trkpt lat="42.06903" lon="0.74196">
        <ele>1207.4</ele>
        <time>2022-05-23 11:42:04</time>
      </trkpt>
      <trkpt lat="42.06902" lon="0.74198">
        <ele>1207.6</ele>
        <time>2022-05-23 11:42:05</time>
      </trkpt>
      <trkpt lat="42.06902" lon="0.742">
        <ele>1207.6</ele>
        <time>2022-05-23 11:42:06</time>
      </trkpt>
      <trkpt lat="42.06901" lon="0.74202">
        <ele>1207.8</ele>
        <time>2022-05-23 11:42:07</time>
      </trkpt>
      <trkpt lat="42.06901" lon="0.74204">
        <ele>1208</ele>
        <time>2022-05-23 11:42:08</time>
      </trkpt>
      <trkpt lat="42.069" lon="0.74205">
        <ele>1208</ele>
        <time>2022-05-23 11:42:09</time>
      </trkpt>
      <trkpt lat="42.06899" lon="0.74207">
        <ele>1208.2</ele>
        <time>2022-05-23 11:42:10</time>
      </trkpt>
      <trkpt lat="42.06898" lon="0.74209">
        <ele>1208.4</ele>
        <time>2022-05-23 11:42:11</time>
      </trkpt>
      <trkpt lat="42.06897" lon="0.74212">
        <ele>1208.4</ele>
        <time>2022-05-23 11:42:12</time>
      </trkpt>
      <trkpt lat="42.06897" lon="0.74214">
        <ele>1208.6</ele>
        <time>2022-05-23 11:42:13</time>
      </trkpt>
      <trkpt lat="42.06896" lon="0.74216">
        <ele>1208.8</ele>
        <time>2022-05-23 11:42:14</time>
      </trkpt>
      <trkpt lat="42.06896" lon="0.74218">
        <ele>1209</ele>
        <time>2022-05-23 11:42:15</time>
      </trkpt>
      <trkpt lat="42.06895" lon="0.7422">
        <ele>1209</ele>
        <time>2022-05-23 11:42:16</time>
      </trkpt>
      <trkpt lat="42.06895" lon="0.74221">
        <ele>1209.2</ele>
        <time>2022-05-23 11:42:17</time>
      </trkpt>
      <trkpt lat="42.06894" lon="0.74223">
        <ele>1209.4</ele>
        <time>2022-05-23 11:42:18</time>
      </trkpt>
      <trkpt lat="42.06894" lon="0.74225">
        <ele>1209.4</ele>
        <time>2022-05-23 11:42:19</time>
      </trkpt>
      <trkpt lat="42.06893" lon="0.74227">
        <ele>1209.6</ele>
        <time>2022-05-23 11:42:20</time>
      </trkpt>
      <trkpt lat="42.06892" lon="0.74229">
        <ele>1209.8</ele>
        <time>2022-05-23 11:42:21</time>
      </trkpt>
      <trkpt lat="42.06891" lon="0.74231">
        <ele>1210</ele>
        <time>2022-05-23 11:42:22</time>
      </trkpt>
      <trkpt lat="42.0689" lon="0.74233">
        <ele>1210</ele>
        <time>2022-05-23 11:42:23</time>
      </trkpt>
      <trkpt lat="42.06889" lon="0.74235">
        <ele>1210.2</ele>
        <time>2022-05-23 11:42:24</time>
      </trkpt>
      <trkpt lat="42.06888" lon="0.74237">
        <ele>1210.4</ele>
        <time>2022-05-23 11:42:25</time>
      </trkpt>
      <trkpt lat="42.06887" lon="0.74239">
        <ele>1210.6</ele>
        <time>2022-05-23 11:42:26</time>
      </trkpt>
      <trkpt lat="42.06886" lon="0.74241">
        <ele>1210.8</ele>
        <time>2022-05-23 11:42:27</time>
      </trkpt>
      <trkpt lat="42.06885" lon="0.74243">
        <ele>1211</ele>
        <time>2022-05-23 11:42:28</time>
      </trkpt>
      <trkpt lat="42.06884" lon="0.74245">
        <ele>1211</ele>
        <time>2022-05-23 11:42:29</time>
      </trkpt>
      <trkpt lat="42.06884" lon="0.74247">
        <ele>1211.2</ele>
        <time>2022-05-23 11:42:30</time>
      </trkpt>
      <trkpt lat="42.06882" lon="0.74248">
        <ele>1211.4</ele>
        <time>2022-05-23 11:42:31</time>
      </trkpt>
      <trkpt lat="42.06881" lon="0.7425">
        <ele>1211.6</ele>
        <time>2022-05-23 11:42:32</time>
      </trkpt>
      <trkpt lat="42.0688" lon="0.74252">
        <ele>1211.8</ele>
        <time>2022-05-23 11:42:33</time>
      </trkpt>
      <trkpt lat="42.06879" lon="0.74253">
        <ele>1211.8</ele>
        <time>2022-05-23 11:42:34</time>
      </trkpt>
      <trkpt lat="42.06877" lon="0.74255">
        <ele>1212</ele>
        <time>2022-05-23 11:42:35</time>
      </trkpt>
      <trkpt lat="42.06876" lon="0.74256">
        <ele>1212.2</ele>
        <time>2022-05-23 11:42:36</time>
      </trkpt>
      <trkpt lat="42.06874" lon="0.74258">
        <ele>1212.2</ele>
        <time>2022-05-23 11:42:37</time>
      </trkpt>
      <trkpt lat="42.06873" lon="0.7426">
        <ele>1212.4</ele>
        <time>2022-05-23 11:42:38</time>
      </trkpt>
      <trkpt lat="42.06871" lon="0.74262">
        <ele>1212.6</ele>
        <time>2022-05-23 11:42:39</time>
      </trkpt>
      <trkpt lat="42.0687" lon="0.74264">
        <ele>1212.8</ele>
        <time>2022-05-23 11:42:40</time>
      </trkpt>
      <trkpt lat="42.06869" lon="0.74267">
        <ele>1213</ele>
        <time>2022-05-23 11:42:41</time>
      </trkpt>
      <trkpt lat="42.06868" lon="0.74269">
        <ele>1213.2</ele>
        <time>2022-05-23 11:42:42</time>
      </trkpt>
      <trkpt lat="42.06867" lon="0.74271">
        <ele>1213.2</ele>
        <time>2022-05-23 11:42:43</time>
      </trkpt>
      <trkpt lat="42.06866" lon="0.74274">
        <ele>1213.4</ele>
        <time>2022-05-23 11:42:44</time>
      </trkpt>
      <trkpt lat="42.06865" lon="0.74277">
        <ele>1213.4</ele>
        <time>2022-05-23 11:42:45</time>
      </trkpt>
      <trkpt lat="42.06865" lon="0.7428">
        <ele>1213.6</ele>
        <time>2022-05-23 11:42:46</time>
      </trkpt>
      <trkpt lat="42.06865" lon="0.74282">
        <ele>1213.6</ele>
        <time>2022-05-23 11:42:47</time>
      </trkpt>
      <trkpt lat="42.06865" lon="0.74285">
        <ele>1213.8</ele>
        <time>2022-05-23 11:42:48</time>
      </trkpt>
      <trkpt lat="42.06864" lon="0.74287">
        <ele>1213.8</ele>
        <time>2022-05-23 11:42:49</time>
      </trkpt>
      <trkpt lat="42.06864" lon="0.7429">
        <ele>1214</ele>
        <time>2022-05-23 11:42:50</time>
      </trkpt>
      <trkpt lat="42.06863" lon="0.74292">
        <ele>1214</ele>
        <time>2022-05-23 11:42:51</time>
      </trkpt>
      <trkpt lat="42.06863" lon="0.74295">
        <ele>1214</ele>
        <time>2022-05-23 11:42:52</time>
      </trkpt>
      <trkpt lat="42.06863" lon="0.74297">
        <ele>1214.2</ele>
        <time>2022-05-23 11:42:53</time>
      </trkpt>
      <trkpt lat="42.06863" lon="0.743">
        <ele>1214.2</ele>
        <time>2022-05-23 11:42:54</time>
      </trkpt>
      <trkpt lat="42.06862" lon="0.74301">
        <ele>1214.4</ele>
        <time>2022-05-23 11:42:55</time>
      </trkpt>
      <trkpt lat="42.06862" lon="0.74303">
        <ele>1214.4</ele>
        <time>2022-05-23 11:42:56</time>
      </trkpt>
      <trkpt lat="42.06862" lon="0.74313">
        <ele>1214.8</ele>
        <time>2022-05-23 11:42:57</time>
      </trkpt>
      <trkpt lat="42.06861" lon="0.74315">
        <ele>1214.8</ele>
        <time>2022-05-23 11:42:58</time>
      </trkpt>
      <trkpt lat="42.06861" lon="0.74316">
        <ele>1214.8</ele>
        <time>2022-05-23 11:42:59</time>
      </trkpt>
      <trkpt lat="42.06861" lon="0.74318">
        <ele>1214.8</ele>
        <time>2022-05-23 11:43:00</time>
      </trkpt>
      <trkpt lat="42.06861" lon="0.74321">
        <ele>1214.8</ele>
        <time>2022-05-23 11:43:01</time>
      </trkpt>
      <trkpt lat="42.06861" lon="0.74323">
        <ele>1215</ele>
        <time>2022-05-23 11:43:02</time>
      </trkpt>
      <trkpt lat="42.06861" lon="0.74325">
        <ele>1215</ele>
        <time>2022-05-23 11:43:03</time>
      </trkpt>
      <trkpt lat="42.0686" lon="0.74327">
        <ele>1215</ele>
        <time>2022-05-23 11:43:04</time>
      </trkpt>
      <trkpt lat="42.0686" lon="0.7433">
        <ele>1215</ele>
        <time>2022-05-23 11:43:05</time>
      </trkpt>
      <trkpt lat="42.0686" lon="0.74333">
        <ele>1215.2</ele>
        <time>2022-05-23 11:43:06</time>
      </trkpt>
      <trkpt lat="42.0686" lon="0.74335">
        <ele>1215.2</ele>
        <time>2022-05-23 11:43:07</time>
      </trkpt>
      <trkpt lat="42.0686" lon="0.74338">
        <ele>1215.2</ele>
        <time>2022-05-23 11:43:08</time>
      </trkpt>
      <trkpt lat="42.0686" lon="0.7434">
        <ele>1215.4</ele>
        <time>2022-05-23 11:43:09</time>
      </trkpt>
      <trkpt lat="42.0686" lon="0.74343">
        <ele>1215.4</ele>
        <time>2022-05-23 11:43:10</time>
      </trkpt>
      <trkpt lat="42.0686" lon="0.74345">
        <ele>1215.6</ele>
        <time>2022-05-23 11:43:11</time>
      </trkpt>
      <trkpt lat="42.06859" lon="0.74347">
        <ele>1215.6</ele>
        <time>2022-05-23 11:43:12</time>
      </trkpt>
      <trkpt lat="42.06859" lon="0.7435">
        <ele>1215.8</ele>
        <time>2022-05-23 11:43:13</time>
      </trkpt>
      <trkpt lat="42.06859" lon="0.74352">
        <ele>1215.8</ele>
        <time>2022-05-23 11:43:14</time>
      </trkpt>
      <trkpt lat="42.06859" lon="0.74354">
        <ele>1216</ele>
        <time>2022-05-23 11:43:15</time>
      </trkpt>
      <trkpt lat="42.06859" lon="0.74356">
        <ele>1216</ele>
        <time>2022-05-23 11:43:16</time>
      </trkpt>
      <trkpt lat="42.06859" lon="0.74359">
        <ele>1216.2</ele>
        <time>2022-05-23 11:43:17</time>
      </trkpt>
      <trkpt lat="42.06859" lon="0.74361">
        <ele>1216.2</ele>
        <time>2022-05-23 11:43:18</time>
      </trkpt>
      <trkpt lat="42.06858" lon="0.74363">
        <ele>1216.4</ele>
        <time>2022-05-23 11:43:19</time>
      </trkpt>
      <trkpt lat="42.06858" lon="0.74365">
        <ele>1216.6</ele>
        <time>2022-05-23 11:43:20</time>
      </trkpt>
      <trkpt lat="42.06858" lon="0.74367">
        <ele>1216.6</ele>
        <time>2022-05-23 11:45:22</time>
      </trkpt>
      <trkpt lat="42.06858" lon="0.7437">
        <ele>1216.8</ele>
        <time>2022-05-23 11:45:23</time>
      </trkpt>
      <trkpt lat="42.06858" lon="0.74372">
        <ele>1217</ele>
        <time>2022-05-23 11:45:24</time>
      </trkpt>
      <trkpt lat="42.06858" lon="0.74374">
        <ele>1217.2</ele>
        <time>2022-05-23 11:45:25</time>
      </trkpt>
      <trkpt lat="42.06858" lon="0.74376">
        <ele>1217.4</ele>
        <time>2022-05-23 11:45:26</time>
      </trkpt>
      <trkpt lat="42.06858" lon="0.74379">
        <ele>1217.6</ele>
        <time>2022-05-23 11:45:27</time>
      </trkpt>
      <trkpt lat="42.06858" lon="0.74381">
        <ele>1217.6</ele>
        <time>2022-05-23 11:45:28</time>
      </trkpt>
      <trkpt lat="42.06858" lon="0.74384">
        <ele>1217.8</ele>
        <time>2022-05-23 11:45:29</time>
      </trkpt>
      <trkpt lat="42.06857" lon="0.74386">
        <ele>1218.2</ele>
        <time>2022-05-23 11:45:30</time>
      </trkpt>
      <trkpt lat="42.06857" lon="0.74388">
        <ele>1218.4</ele>
        <time>2022-05-23 11:45:31</time>
      </trkpt>
      <trkpt lat="42.06857" lon="0.7439">
        <ele>1218.6</ele>
        <time>2022-05-23 11:45:32</time>
      </trkpt>
      <trkpt lat="42.06857" lon="0.74392">
        <ele>1218.8</ele>
        <time>2022-05-23 11:45:33</time>
      </trkpt>
      <trkpt lat="42.06857" lon="0.74394">
        <ele>1219</ele>
        <time>2022-05-23 11:45:34</time>
      </trkpt>
      <trkpt lat="42.06857" lon="0.74397">
        <ele>1219.2</ele>
        <time>2022-05-23 11:45:35</time>
      </trkpt>
      <trkpt lat="42.06857" lon="0.74399">
        <ele>1219.4</ele>
        <time>2022-05-23 11:45:36</time>
      </trkpt>
      <trkpt lat="42.06857" lon="0.74401">
        <ele>1219.6</ele>
        <time>2022-05-23 11:45:37</time>
      </trkpt>
      <trkpt lat="42.06856" lon="0.74404">
        <ele>1219.8</ele>
        <time>2022-05-23 11:45:38</time>
      </trkpt>
      <trkpt lat="42.06856" lon="0.74406">
        <ele>1220</ele>
        <time>2022-05-23 11:45:39</time>
      </trkpt>
      <trkpt lat="42.06856" lon="0.74408">
        <ele>1220.4</ele>
        <time>2022-05-23 11:45:40</time>
      </trkpt>
      <trkpt lat="42.06856" lon="0.74411">
        <ele>1220.6</ele>
        <time>2022-05-23 11:45:41</time>
      </trkpt>
      <trkpt lat="42.06856" lon="0.74414">
        <ele>1220.8</ele>
        <time>2022-05-23 11:45:42</time>
      </trkpt>
      <trkpt lat="42.06856" lon="0.74416">
        <ele>1221</ele>
        <time>2022-05-23 11:45:43</time>
      </trkpt>
      <trkpt lat="42.06856" lon="0.74418">
        <ele>1221.2</ele>
        <time>2022-05-23 11:45:44</time>
      </trkpt>
      <trkpt lat="42.06856" lon="0.7442">
        <ele>1221.4</ele>
        <time>2022-05-23 11:45:45</time>
      </trkpt>
      <trkpt lat="42.06856" lon="0.74423">
        <ele>1221.4</ele>
        <time>2022-05-23 11:45:46</time>
      </trkpt>
      <trkpt lat="42.06855" lon="0.74426">
        <ele>1221.6</ele>
        <time>2022-05-23 11:45:47</time>
      </trkpt>
      <trkpt lat="42.06855" lon="0.74429">
        <ele>1221.8</ele>
        <time>2022-05-23 11:45:48</time>
      </trkpt>
      <trkpt lat="42.06855" lon="0.74431">
        <ele>1222</ele>
        <time>2022-05-23 11:45:49</time>
      </trkpt>
      <trkpt lat="42.06855" lon="0.74434">
        <ele>1222</ele>
        <time>2022-05-23 11:45:50</time>
      </trkpt>
      <trkpt lat="42.06855" lon="0.74436">
        <ele>1222.2</ele>
        <time>2022-05-23 11:45:51</time>
      </trkpt>
      <trkpt lat="42.06854" lon="0.74439">
        <ele>1222.4</ele>
        <time>2022-05-23 11:45:52</time>
      </trkpt>
      <trkpt lat="42.06854" lon="0.74441">
        <ele>1222.6</ele>
        <time>2022-05-23 11:45:53</time>
      </trkpt>
      <trkpt lat="42.06853" lon="0.74444">
        <ele>1222.6</ele>
        <time>2022-05-23 11:45:54</time>
      </trkpt>
      <trkpt lat="42.06853" lon="0.74446">
        <ele>1222.8</ele>
        <time>2022-05-23 11:45:55</time>
      </trkpt>
      <trkpt lat="42.06853" lon="0.74448">
        <ele>1223</ele>
        <time>2022-05-23 11:45:56</time>
      </trkpt>
      <trkpt lat="42.06852" lon="0.7445">
        <ele>1223.2</ele>
        <time>2022-05-23 11:45:57</time>
      </trkpt>
      <trkpt lat="42.06852" lon="0.74452">
        <ele>1223.4</ele>
        <time>2022-05-23 11:45:58</time>
      </trkpt>
      <trkpt lat="42.06851" lon="0.74454">
        <ele>1223.6</ele>
        <time>2022-05-23 11:45:59</time>
      </trkpt>
      <trkpt lat="42.06851" lon="0.74456">
        <ele>1223.8</ele>
        <time>2022-05-23 11:46:00</time>
      </trkpt>
      <trkpt lat="42.0685" lon="0.74458">
        <ele>1224</ele>
        <time>2022-05-23 11:46:01</time>
      </trkpt>
      <trkpt lat="42.0685" lon="0.74461">
        <ele>1224.2</ele>
        <time>2022-05-23 11:46:02</time>
      </trkpt>
      <trkpt lat="42.06849" lon="0.74463">
        <ele>1224.4</ele>
        <time>2022-05-23 11:46:03</time>
      </trkpt>
      <trkpt lat="42.06849" lon="0.74465">
        <ele>1224.6</ele>
        <time>2022-05-23 11:46:04</time>
      </trkpt>
      <trkpt lat="42.06848" lon="0.74467">
        <ele>1224.8</ele>
        <time>2022-05-23 11:46:05</time>
      </trkpt>
      <trkpt lat="42.06847" lon="0.74469">
        <ele>1225</ele>
        <time>2022-05-23 11:46:06</time>
      </trkpt>
      <trkpt lat="42.06845" lon="0.7447">
        <ele>1225.2</ele>
        <time>2022-05-23 11:46:07</time>
      </trkpt>
      <trkpt lat="42.06843" lon="0.74471">
        <ele>1225.2</ele>
        <time>2022-05-23 11:46:08</time>
      </trkpt>
      <trkpt lat="42.06842" lon="0.74471">
        <ele>1225.4</ele>
        <time>2022-05-23 11:46:09</time>
      </trkpt>
      <trkpt lat="42.0684" lon="0.74471">
        <ele>1225.6</ele>
        <time>2022-05-23 11:46:10</time>
      </trkpt>
      <trkpt lat="42.06839" lon="0.7447">
        <ele>1225.8</ele>
        <time>2022-05-23 11:46:11</time>
      </trkpt>
      <trkpt lat="42.06838" lon="0.74468">
        <ele>1226</ele>
        <time>2022-05-23 11:46:12</time>
      </trkpt>
      <trkpt lat="42.06837" lon="0.74466">
        <ele>1226.2</ele>
        <time>2022-05-23 11:46:13</time>
      </trkpt>
      <trkpt lat="42.06837" lon="0.74464">
        <ele>1226.2</ele>
        <time>2022-05-23 11:46:14</time>
      </trkpt>
      <trkpt lat="42.06837" lon="0.74461">
        <ele>1226.4</ele>
        <time>2022-05-23 11:46:15</time>
      </trkpt>
      <trkpt lat="42.06836" lon="0.7446">
        <ele>1226.6</ele>
        <time>2022-05-23 11:46:16</time>
      </trkpt>
      <trkpt lat="42.06836" lon="0.74458">
        <ele>1226.8</ele>
        <time>2022-05-23 11:46:17</time>
      </trkpt>
      <trkpt lat="42.06836" lon="0.74455">
        <ele>1227</ele>
        <time>2022-05-23 11:46:18</time>
      </trkpt>
      <trkpt lat="42.06836" lon="0.74453">
        <ele>1227.2</ele>
        <time>2022-05-23 11:46:19</time>
      </trkpt>
      <trkpt lat="42.06836" lon="0.74452">
        <ele>1227.4</ele>
        <time>2022-05-23 11:46:20</time>
      </trkpt>
      <trkpt lat="42.06837" lon="0.7445">
        <ele>1227.6</ele>
        <time>2022-05-23 11:46:21</time>
      </trkpt>
      <trkpt lat="42.06836" lon="0.74448">
        <ele>1227.8</ele>
        <time>2022-05-23 11:46:22</time>
      </trkpt>
      <trkpt lat="42.06836" lon="0.74446">
        <ele>1228</ele>
        <time>2022-05-23 11:46:23</time>
      </trkpt>
      <trkpt lat="42.06836" lon="0.74444">
        <ele>1228</ele>
        <time>2022-05-23 11:46:24</time>
      </trkpt>
      <trkpt lat="42.06836" lon="0.74442">
        <ele>1228.2</ele>
        <time>2022-05-23 11:46:25</time>
      </trkpt>
      <trkpt lat="42.06837" lon="0.7444">
        <ele>1228.2</ele>
        <time>2022-05-23 11:46:26</time>
      </trkpt>
      <trkpt lat="42.06837" lon="0.74438">
        <ele>1228.4</ele>
        <time>2022-05-23 11:46:27</time>
      </trkpt>
      <trkpt lat="42.06837" lon="0.74436">
        <ele>1228.6</ele>
        <time>2022-05-23 11:46:28</time>
      </trkpt>
      <trkpt lat="42.06836" lon="0.74433">
        <ele>1228.8</ele>
        <time>2022-05-23 11:46:29</time>
      </trkpt>
      <trkpt lat="42.06836" lon="0.74431">
        <ele>1228.8</ele>
        <time>2022-05-23 11:46:30</time>
      </trkpt>
      <trkpt lat="42.06836" lon="0.74429">
        <ele>1228.8</ele>
        <time>2022-05-23 11:46:31</time>
      </trkpt>
      <trkpt lat="42.06836" lon="0.74427">
        <ele>1229</ele>
        <time>2022-05-23 11:46:32</time>
      </trkpt>
      <trkpt lat="42.06836" lon="0.74425">
        <ele>1229</ele>
        <time>2022-05-23 11:46:33</time>
      </trkpt>
      <trkpt lat="42.06836" lon="0.74423">
        <ele>1229</ele>
        <time>2022-05-23 11:46:34</time>
      </trkpt>
      <trkpt lat="42.06835" lon="0.74421">
        <ele>1229</ele>
        <time>2022-05-23 11:46:35</time>
      </trkpt>
      <trkpt lat="42.06835" lon="0.7442">
        <ele>1229.2</ele>
        <time>2022-05-23 11:46:36</time>
      </trkpt>
      <trkpt lat="42.06834" lon="0.74418">
        <ele>1229.2</ele>
        <time>2022-05-23 11:46:37</time>
      </trkpt>
      <trkpt lat="42.06834" lon="0.74416">
        <ele>1229.2</ele>
        <time>2022-05-23 11:46:38</time>
      </trkpt>
      <trkpt lat="42.06834" lon="0.74414">
        <ele>1229.4</ele>
        <time>2022-05-23 11:46:39</time>
      </trkpt>
      <trkpt lat="42.06834" lon="0.74413">
        <ele>1229.4</ele>
        <time>2022-05-23 11:46:40</time>
      </trkpt>
      <trkpt lat="42.06834" lon="0.7441">
        <ele>1229.6</ele>
        <time>2022-05-23 11:46:41</time>
      </trkpt>
      <trkpt lat="42.06834" lon="0.74409">
        <ele>1229.8</ele>
        <time>2022-05-23 11:46:42</time>
      </trkpt>
      <trkpt lat="42.06833" lon="0.74407">
        <ele>1230</ele>
        <time>2022-05-23 11:46:43</time>
      </trkpt>
      <trkpt lat="42.06833" lon="0.74405">
        <ele>1230.2</ele>
        <time>2022-05-23 11:46:44</time>
      </trkpt>
      <trkpt lat="42.06832" lon="0.74403">
        <ele>1230.6</ele>
        <time>2022-05-23 11:46:45</time>
      </trkpt>
      <trkpt lat="42.06832" lon="0.74401">
        <ele>1230.8</ele>
        <time>2022-05-23 11:46:46</time>
      </trkpt>
      <trkpt lat="42.06832" lon="0.74399">
        <ele>1231</ele>
        <time>2022-05-23 11:46:47</time>
      </trkpt>
      <trkpt lat="42.06831" lon="0.74397">
        <ele>1231.4</ele>
        <time>2022-05-23 11:46:48</time>
      </trkpt>
      <trkpt lat="42.06831" lon="0.74395">
        <ele>1231.6</ele>
        <time>2022-05-23 11:46:49</time>
      </trkpt>
      <trkpt lat="42.0683" lon="0.74393">
        <ele>1231.8</ele>
        <time>2022-05-23 11:46:50</time>
      </trkpt>
      <trkpt lat="42.0683" lon="0.74391">
        <ele>1232.2</ele>
        <time>2022-05-23 11:46:51</time>
      </trkpt>
      <trkpt lat="42.06829" lon="0.74389">
        <ele>1232.4</ele>
        <time>2022-05-23 11:46:52</time>
      </trkpt>
      <trkpt lat="42.06829" lon="0.74387">
        <ele>1232.6</ele>
        <time>2022-05-23 11:46:53</time>
      </trkpt>
      <trkpt lat="42.06829" lon="0.74384">
        <ele>1232.8</ele>
        <time>2022-05-23 11:46:54</time>
      </trkpt>
      <trkpt lat="42.06828" lon="0.74382">
        <ele>1233</ele>
        <time>2022-05-23 11:46:55</time>
      </trkpt>
      <trkpt lat="42.06828" lon="0.7438">
        <ele>1233.2</ele>
        <time>2022-05-23 11:46:56</time>
      </trkpt>
      <trkpt lat="42.06827" lon="0.74378">
        <ele>1233.4</ele>
        <time>2022-05-23 11:46:57</time>
      </trkpt>
      <trkpt lat="42.06827" lon="0.74376">
        <ele>1233.4</ele>
        <time>2022-05-23 11:46:58</time>
      </trkpt>
      <trkpt lat="42.06826" lon="0.74375">
        <ele>1233.6</ele>
        <time>2022-05-23 11:46:59</time>
      </trkpt>
      <trkpt lat="42.06826" lon="0.74372">
        <ele>1233.6</ele>
        <time>2022-05-23 11:47:00</time>
      </trkpt>
      <trkpt lat="42.06825" lon="0.7437">
        <ele>1233.8</ele>
        <time>2022-05-23 11:47:01</time>
      </trkpt>
      <trkpt lat="42.06825" lon="0.74368">
        <ele>1233.8</ele>
        <time>2022-05-23 11:47:02</time>
      </trkpt>
      <trkpt lat="42.06824" lon="0.74366">
        <ele>1234</ele>
        <time>2022-05-23 11:47:03</time>
      </trkpt>
      <trkpt lat="42.06824" lon="0.74363">
        <ele>1234</ele>
        <time>2022-05-23 11:47:04</time>
      </trkpt>
      <trkpt lat="42.06824" lon="0.74362">
        <ele>1234.2</ele>
        <time>2022-05-23 11:47:05</time>
      </trkpt>
      <trkpt lat="42.06824" lon="0.7436">
        <ele>1234.4</ele>
        <time>2022-05-23 11:47:06</time>
      </trkpt>
      <trkpt lat="42.06824" lon="0.74358">
        <ele>1234.6</ele>
        <time>2022-05-23 11:47:07</time>
      </trkpt>
      <trkpt lat="42.06823" lon="0.74356">
        <ele>1234.8</ele>
        <time>2022-05-23 11:47:08</time>
      </trkpt>
      <trkpt lat="42.06823" lon="0.74354">
        <ele>1235</ele>
        <time>2022-05-23 11:47:09</time>
      </trkpt>
      <trkpt lat="42.06823" lon="0.74352">
        <ele>1235.2</ele>
        <time>2022-05-23 11:47:10</time>
      </trkpt>
      <trkpt lat="42.06823" lon="0.7435">
        <ele>1235.4</ele>
        <time>2022-05-23 11:47:11</time>
      </trkpt>
      <trkpt lat="42.06823" lon="0.74349">
        <ele>1235.6</ele>
        <time>2022-05-23 11:47:12</time>
      </trkpt>
      <trkpt lat="42.06823" lon="0.74347">
        <ele>1235.8</ele>
        <time>2022-05-23 11:47:13</time>
      </trkpt>
      <trkpt lat="42.06822" lon="0.74345">
        <ele>1236</ele>
        <time>2022-05-23 11:47:14</time>
      </trkpt>
      <trkpt lat="42.06822" lon="0.74343">
        <ele>1236.2</ele>
        <time>2022-05-23 11:47:15</time>
      </trkpt>
      <trkpt lat="42.06822" lon="0.74341">
        <ele>1236.4</ele>
        <time>2022-05-23 11:47:16</time>
      </trkpt>
      <trkpt lat="42.06821" lon="0.74339">
        <ele>1236.4</ele>
        <time>2022-05-23 11:47:17</time>
      </trkpt>
      <trkpt lat="42.06821" lon="0.74337">
        <ele>1236.6</ele>
        <time>2022-05-23 11:47:18</time>
      </trkpt>
      <trkpt lat="42.06821" lon="0.74335">
        <ele>1236.8</ele>
        <time>2022-05-23 11:47:19</time>
      </trkpt>
      <trkpt lat="42.06821" lon="0.74332">
        <ele>1236.8</ele>
        <time>2022-05-23 11:47:20</time>
      </trkpt>
      <trkpt lat="42.06821" lon="0.7433">
        <ele>1237</ele>
        <time>2022-05-23 11:47:21</time>
      </trkpt>
      <trkpt lat="42.0682" lon="0.74328">
        <ele>1237.2</ele>
        <time>2022-05-23 11:47:22</time>
      </trkpt>
      <trkpt lat="42.0682" lon="0.74326">
        <ele>1237.2</ele>
        <time>2022-05-23 11:47:23</time>
      </trkpt>
      <trkpt lat="42.0682" lon="0.74324">
        <ele>1237.4</ele>
        <time>2022-05-23 11:47:24</time>
      </trkpt>
      <trkpt lat="42.06819" lon="0.74323">
        <ele>1237.6</ele>
        <time>2022-05-23 11:47:25</time>
      </trkpt>
      <trkpt lat="42.06818" lon="0.7432">
        <ele>1237.8</ele>
        <time>2022-05-23 11:47:26</time>
      </trkpt>
      <trkpt lat="42.06818" lon="0.74319">
        <ele>1238</ele>
        <time>2022-05-23 11:47:27</time>
      </trkpt>
      <trkpt lat="42.06818" lon="0.74317">
        <ele>1238.2</ele>
        <time>2022-05-23 11:47:28</time>
      </trkpt>
      <trkpt lat="42.06817" lon="0.74314">
        <ele>1238.4</ele>
        <time>2022-05-23 11:47:29</time>
      </trkpt>
      <trkpt lat="42.06817" lon="0.74312">
        <ele>1238.4</ele>
        <time>2022-05-23 11:47:30</time>
      </trkpt>
      <trkpt lat="42.06817" lon="0.74311">
        <ele>1238.6</ele>
        <time>2022-05-23 11:47:31</time>
      </trkpt>
      <trkpt lat="42.06816" lon="0.74308">
        <ele>1238.8</ele>
        <time>2022-05-23 11:47:32</time>
      </trkpt>
      <trkpt lat="42.06816" lon="0.74306">
        <ele>1239</ele>
        <time>2022-05-23 11:47:33</time>
      </trkpt>
      <trkpt lat="42.06817" lon="0.74304">
        <ele>1239.2</ele>
        <time>2022-05-23 11:47:34</time>
      </trkpt>
      <trkpt lat="42.06817" lon="0.74302">
        <ele>1239.4</ele>
        <time>2022-05-23 11:47:35</time>
      </trkpt>
      <trkpt lat="42.06817" lon="0.743">
        <ele>1239.6</ele>
        <time>2022-05-23 11:47:36</time>
      </trkpt>
      <trkpt lat="42.06818" lon="0.74298">
        <ele>1239.8</ele>
        <time>2022-05-23 11:47:37</time>
      </trkpt>
      <trkpt lat="42.06818" lon="0.74295">
        <ele>1239.8</ele>
        <time>2022-05-23 11:47:38</time>
      </trkpt>
      <trkpt lat="42.06817" lon="0.74294">
        <ele>1240</ele>
        <time>2022-05-23 11:47:39</time>
      </trkpt>
      <trkpt lat="42.06817" lon="0.74292">
        <ele>1240</ele>
        <time>2022-05-23 11:47:40</time>
      </trkpt>
      <trkpt lat="42.06817" lon="0.7429">
        <ele>1240.2</ele>
        <time>2022-05-23 11:47:41</time>
      </trkpt>
      <trkpt lat="42.06817" lon="0.74288">
        <ele>1240.4</ele>
        <time>2022-05-23 11:47:42</time>
      </trkpt>
      <trkpt lat="42.06817" lon="0.74286">
        <ele>1240.6</ele>
        <time>2022-05-23 11:47:43</time>
      </trkpt>
      <trkpt lat="42.06817" lon="0.74283">
        <ele>1240.6</ele>
        <time>2022-05-23 11:47:44</time>
      </trkpt>
      <trkpt lat="42.06817" lon="0.74281">
        <ele>1240.8</ele>
        <time>2022-05-23 11:47:45</time>
      </trkpt>
      <trkpt lat="42.06818" lon="0.74278">
        <ele>1241</ele>
        <time>2022-05-23 11:47:46</time>
      </trkpt>
      <trkpt lat="42.06818" lon="0.74276">
        <ele>1241.2</ele>
        <time>2022-05-23 11:47:47</time>
      </trkpt>
      <trkpt lat="42.06818" lon="0.74274">
        <ele>1241.2</ele>
        <time>2022-05-23 11:47:48</time>
      </trkpt>
      <trkpt lat="42.06819" lon="0.74272">
        <ele>1241.4</ele>
        <time>2022-05-23 11:47:49</time>
      </trkpt>
      <trkpt lat="42.06819" lon="0.74269">
        <ele>1241.4</ele>
        <time>2022-05-23 11:47:50</time>
      </trkpt>
      <trkpt lat="42.0682" lon="0.74267">
        <ele>1241.4</ele>
        <time>2022-05-23 11:47:51</time>
      </trkpt>
      <trkpt lat="42.0682" lon="0.74265">
        <ele>1241.4</ele>
        <time>2022-05-23 11:47:52</time>
      </trkpt>
      <trkpt lat="42.06821" lon="0.74263">
        <ele>1241.6</ele>
        <time>2022-05-23 11:47:53</time>
      </trkpt>
      <trkpt lat="42.06822" lon="0.74261">
        <ele>1241.6</ele>
        <time>2022-05-23 11:47:54</time>
      </trkpt>
      <trkpt lat="42.06822" lon="0.74259">
        <ele>1241.6</ele>
        <time>2022-05-23 11:47:55</time>
      </trkpt>
      <trkpt lat="42.06823" lon="0.74257">
        <ele>1241.8</ele>
        <time>2022-05-23 11:47:56</time>
      </trkpt>
      <trkpt lat="42.06823" lon="0.74255">
        <ele>1241.8</ele>
        <time>2022-05-23 11:47:57</time>
      </trkpt>
      <trkpt lat="42.06823" lon="0.74253">
        <ele>1242</ele>
        <time>2022-05-23 11:47:58</time>
      </trkpt>
      <trkpt lat="42.06824" lon="0.74251">
        <ele>1242</ele>
        <time>2022-05-23 11:47:59</time>
      </trkpt>
      <trkpt lat="42.06825" lon="0.74249">
        <ele>1242.2</ele>
        <time>2022-05-23 11:48:00</time>
      </trkpt>
      <trkpt lat="42.06825" lon="0.74247">
        <ele>1242.2</ele>
        <time>2022-05-23 11:48:01</time>
      </trkpt>
      <trkpt lat="42.06825" lon="0.74244">
        <ele>1242.4</ele>
        <time>2022-05-23 11:48:02</time>
      </trkpt>
      <trkpt lat="42.06825" lon="0.74242">
        <ele>1242.4</ele>
        <time>2022-05-23 11:48:03</time>
      </trkpt>
      <trkpt lat="42.06825" lon="0.7424">
        <ele>1242.6</ele>
        <time>2022-05-23 11:48:04</time>
      </trkpt>
      <trkpt lat="42.06825" lon="0.74237">
        <ele>1242.6</ele>
        <time>2022-05-23 11:48:05</time>
      </trkpt>
      <trkpt lat="42.06825" lon="0.74235">
        <ele>1242.8</ele>
        <time>2022-05-23 11:48:06</time>
      </trkpt>
      <trkpt lat="42.06825" lon="0.74233">
        <ele>1243</ele>
        <time>2022-05-23 11:48:07</time>
      </trkpt>
      <trkpt lat="42.06826" lon="0.74231">
        <ele>1243</ele>
        <time>2022-05-23 11:48:08</time>
      </trkpt>
      <trkpt lat="42.06826" lon="0.74229">
        <ele>1243.2</ele>
        <time>2022-05-23 11:48:09</time>
      </trkpt>
      <trkpt lat="42.06826" lon="0.74226">
        <ele>1243.4</ele>
        <time>2022-05-23 11:48:10</time>
      </trkpt>
      <trkpt lat="42.06827" lon="0.74224">
        <ele>1243.4</ele>
        <time>2022-05-23 11:48:11</time>
      </trkpt>
      <trkpt lat="42.06827" lon="0.74221">
        <ele>1243.6</ele>
        <time>2022-05-23 11:48:12</time>
      </trkpt>
      <trkpt lat="42.06828" lon="0.74218">
        <ele>1243.8</ele>
        <time>2022-05-23 11:48:13</time>
      </trkpt>
      <trkpt lat="42.06828" lon="0.74215">
        <ele>1243.8</ele>
        <time>2022-05-23 11:48:14</time>
      </trkpt>
      <trkpt lat="42.06828" lon="0.74213">
        <ele>1244</ele>
        <time>2022-05-23 11:48:15</time>
      </trkpt>
      <trkpt lat="42.06829" lon="0.7421">
        <ele>1244.2</ele>
        <time>2022-05-23 11:48:16</time>
      </trkpt>
      <trkpt lat="42.0683" lon="0.74208">
        <ele>1244.4</ele>
        <time>2022-05-23 11:48:17</time>
      </trkpt>
      <trkpt lat="42.06831" lon="0.74206">
        <ele>1244.4</ele>
        <time>2022-05-23 11:48:18</time>
      </trkpt>
      <trkpt lat="42.06831" lon="0.74204">
        <ele>1244.6</ele>
        <time>2022-05-23 11:48:19</time>
      </trkpt>
      <trkpt lat="42.06831" lon="0.74202">
        <ele>1244.8</ele>
        <time>2022-05-23 11:48:20</time>
      </trkpt>
      <trkpt lat="42.06831" lon="0.742">
        <ele>1245</ele>
        <time>2022-05-23 11:48:21</time>
      </trkpt>
      <trkpt lat="42.06831" lon="0.74198">
        <ele>1245</ele>
        <time>2022-05-23 11:48:22</time>
      </trkpt>
      <trkpt lat="42.06831" lon="0.74196">
        <ele>1245.2</ele>
        <time>2022-05-23 11:48:23</time>
      </trkpt>
      <trkpt lat="42.06831" lon="0.74194">
        <ele>1245.4</ele>
        <time>2022-05-23 11:48:24</time>
      </trkpt>
      <trkpt lat="42.06832" lon="0.74191">
        <ele>1245.6</ele>
        <time>2022-05-23 11:48:25</time>
      </trkpt>
      <trkpt lat="42.06831" lon="0.74189">
        <ele>1245.8</ele>
        <time>2022-05-23 11:48:26</time>
      </trkpt>
      <trkpt lat="42.06831" lon="0.74187">
        <ele>1246</ele>
        <time>2022-05-23 11:48:27</time>
      </trkpt>
      <trkpt lat="42.06831" lon="0.74185">
        <ele>1246.2</ele>
        <time>2022-05-23 11:48:28</time>
      </trkpt>
      <trkpt lat="42.06831" lon="0.74183">
        <ele>1246.4</ele>
        <time>2022-05-23 11:48:29</time>
      </trkpt>
      <trkpt lat="42.06831" lon="0.74181">
        <ele>1246.6</ele>
        <time>2022-05-23 11:48:30</time>
      </trkpt>
      <trkpt lat="42.06831" lon="0.74178">
        <ele>1246.8</ele>
        <time>2022-05-23 11:48:31</time>
      </trkpt>
      <trkpt lat="42.06831" lon="0.74176">
        <ele>1247</ele>
        <time>2022-05-23 11:48:32</time>
      </trkpt>
      <trkpt lat="42.06831" lon="0.74174">
        <ele>1247</ele>
        <time>2022-05-23 11:48:33</time>
      </trkpt>
      <trkpt lat="42.06831" lon="0.74172">
        <ele>1247.2</ele>
        <time>2022-05-23 11:48:34</time>
      </trkpt>
      <trkpt lat="42.06831" lon="0.74169">
        <ele>1247.4</ele>
        <time>2022-05-23 11:48:35</time>
      </trkpt>
      <trkpt lat="42.0683" lon="0.74167">
        <ele>1247.4</ele>
        <time>2022-05-23 11:48:36</time>
      </trkpt>
      <trkpt lat="42.0683" lon="0.74165">
        <ele>1247.6</ele>
        <time>2022-05-23 11:48:37</time>
      </trkpt>
      <trkpt lat="42.0683" lon="0.74163">
        <ele>1247.6</ele>
        <time>2022-05-23 11:48:38</time>
      </trkpt>
      <trkpt lat="42.0683" lon="0.7416">
        <ele>1247.8</ele>
        <time>2022-05-23 11:48:39</time>
      </trkpt>
      <trkpt lat="42.06829" lon="0.74158">
        <ele>1248</ele>
        <time>2022-05-23 11:48:40</time>
      </trkpt>
      <trkpt lat="42.06829" lon="0.74156">
        <ele>1248.2</ele>
        <time>2022-05-23 11:48:41</time>
      </trkpt>
      <trkpt lat="42.06829" lon="0.74153">
        <ele>1248.2</ele>
        <time>2022-05-23 11:48:42</time>
      </trkpt>
      <trkpt lat="42.0683" lon="0.74151">
        <ele>1248.4</ele>
        <time>2022-05-23 11:48:43</time>
      </trkpt>
      <trkpt lat="42.0683" lon="0.74149">
        <ele>1248.6</ele>
        <time>2022-05-23 11:48:44</time>
      </trkpt>
      <trkpt lat="42.06829" lon="0.74147">
        <ele>1248.8</ele>
        <time>2022-05-23 11:48:45</time>
      </trkpt>
      <trkpt lat="42.06829" lon="0.74144">
        <ele>1249</ele>
        <time>2022-05-23 11:48:46</time>
      </trkpt>
      <trkpt lat="42.06829" lon="0.74142">
        <ele>1249.2</ele>
        <time>2022-05-23 11:48:47</time>
      </trkpt>
      <trkpt lat="42.06829" lon="0.7414">
        <ele>1249.4</ele>
        <time>2022-05-23 11:48:48</time>
      </trkpt>
      <trkpt lat="42.06829" lon="0.74137">
        <ele>1249.6</ele>
        <time>2022-05-23 11:48:49</time>
      </trkpt>
      <trkpt lat="42.06828" lon="0.74135">
        <ele>1249.8</ele>
        <time>2022-05-23 11:48:50</time>
      </trkpt>
      <trkpt lat="42.06828" lon="0.74133">
        <ele>1250</ele>
        <time>2022-05-23 11:48:51</time>
      </trkpt>
      <trkpt lat="42.06828" lon="0.74131">
        <ele>1250.2</ele>
        <time>2022-05-23 11:48:52</time>
      </trkpt>
      <trkpt lat="42.06828" lon="0.74129">
        <ele>1250.4</ele>
        <time>2022-05-23 11:48:53</time>
      </trkpt>
      <trkpt lat="42.06827" lon="0.74126">
        <ele>1250.6</ele>
        <time>2022-05-23 11:48:54</time>
      </trkpt>
      <trkpt lat="42.06827" lon="0.74124">
        <ele>1250.6</ele>
        <time>2022-05-23 11:48:55</time>
      </trkpt>
      <trkpt lat="42.06826" lon="0.74122">
        <ele>1250.8</ele>
        <time>2022-05-23 11:48:56</time>
      </trkpt>
      <trkpt lat="42.06826" lon="0.7412">
        <ele>1251</ele>
        <time>2022-05-23 11:48:57</time>
      </trkpt>
      <trkpt lat="42.06826" lon="0.74117">
        <ele>1251.2</ele>
        <time>2022-05-23 11:48:58</time>
      </trkpt>
      <trkpt lat="42.06826" lon="0.74115">
        <ele>1251.4</ele>
        <time>2022-05-23 11:48:59</time>
      </trkpt>
      <trkpt lat="42.06826" lon="0.74113">
        <ele>1251.6</ele>
        <time>2022-05-23 11:49:00</time>
      </trkpt>
      <trkpt lat="42.06826" lon="0.7411">
        <ele>1251.8</ele>
        <time>2022-05-23 11:49:01</time>
      </trkpt>
      <trkpt lat="42.06826" lon="0.74108">
        <ele>1252</ele>
        <time>2022-05-23 11:49:02</time>
      </trkpt>
      <trkpt lat="42.06825" lon="0.74106">
        <ele>1252</ele>
        <time>2022-05-23 11:49:03</time>
      </trkpt>
      <trkpt lat="42.06825" lon="0.74104">
        <ele>1252.2</ele>
        <time>2022-05-23 11:49:04</time>
      </trkpt>
      <trkpt lat="42.06825" lon="0.74101">
        <ele>1252.4</ele>
        <time>2022-05-23 11:49:05</time>
      </trkpt>
      <trkpt lat="42.06825" lon="0.74099">
        <ele>1252.6</ele>
        <time>2022-05-23 11:49:06</time>
      </trkpt>
      <trkpt lat="42.06825" lon="0.74097">
        <ele>1252.8</ele>
        <time>2022-05-23 11:49:07</time>
      </trkpt>
      <trkpt lat="42.06825" lon="0.74095">
        <ele>1252.8</ele>
        <time>2022-05-23 11:49:08</time>
      </trkpt>
      <trkpt lat="42.06825" lon="0.74092">
        <ele>1253</ele>
        <time>2022-05-23 11:49:09</time>
      </trkpt>
      <trkpt lat="42.06826" lon="0.7409">
        <ele>1253.2</ele>
        <time>2022-05-23 11:49:10</time>
      </trkpt>
      <trkpt lat="42.06826" lon="0.74088">
        <ele>1253.2</ele>
        <time>2022-05-23 11:49:11</time>
      </trkpt>
      <trkpt lat="42.06825" lon="0.74086">
        <ele>1253.4</ele>
        <time>2022-05-23 11:49:12</time>
      </trkpt>
      <trkpt lat="42.06825" lon="0.74084">
        <ele>1253.6</ele>
        <time>2022-05-23 11:49:13</time>
      </trkpt>
      <trkpt lat="42.06825" lon="0.74081">
        <ele>1253.6</ele>
        <time>2022-05-23 11:49:14</time>
      </trkpt>
      <trkpt lat="42.06825" lon="0.74079">
        <ele>1253.8</ele>
        <time>2022-05-23 11:49:15</time>
      </trkpt>
      <trkpt lat="42.06826" lon="0.74077">
        <ele>1253.8</ele>
        <time>2022-05-23 11:49:16</time>
      </trkpt>
      <trkpt lat="42.06826" lon="0.74075">
        <ele>1254</ele>
        <time>2022-05-23 11:49:17</time>
      </trkpt>
      <trkpt lat="42.06826" lon="0.74073">
        <ele>1254</ele>
        <time>2022-05-23 11:49:18</time>
      </trkpt>
      <trkpt lat="42.06826" lon="0.74071">
        <ele>1254.2</ele>
        <time>2022-05-23 11:49:19</time>
      </trkpt>
      <trkpt lat="42.06825" lon="0.74068">
        <ele>1254.2</ele>
        <time>2022-05-23 11:49:20</time>
      </trkpt>
      <trkpt lat="42.06825" lon="0.74066">
        <ele>1254.4</ele>
        <time>2022-05-23 11:49:21</time>
      </trkpt>
      <trkpt lat="42.06825" lon="0.74064">
        <ele>1254.6</ele>
        <time>2022-05-23 11:49:22</time>
      </trkpt>
      <trkpt lat="42.06825" lon="0.74062">
        <ele>1254.6</ele>
        <time>2022-05-23 11:49:23</time>
      </trkpt>
      <trkpt lat="42.06825" lon="0.74059">
        <ele>1254.8</ele>
        <time>2022-05-23 11:49:24</time>
      </trkpt>
      <trkpt lat="42.06825" lon="0.74057">
        <ele>1255</ele>
        <time>2022-05-23 11:49:25</time>
      </trkpt>
      <trkpt lat="42.06825" lon="0.74055">
        <ele>1255</ele>
        <time>2022-05-23 11:49:26</time>
      </trkpt>
      <trkpt lat="42.06825" lon="0.74052">
        <ele>1255.2</ele>
        <time>2022-05-23 11:49:27</time>
      </trkpt>
      <trkpt lat="42.06825" lon="0.7405">
        <ele>1255.4</ele>
        <time>2022-05-23 11:49:28</time>
      </trkpt>
      <trkpt lat="42.06825" lon="0.74047">
        <ele>1255.6</ele>
        <time>2022-05-23 11:49:29</time>
      </trkpt>
      <trkpt lat="42.06825" lon="0.74045">
        <ele>1255.6</ele>
        <time>2022-05-23 11:49:30</time>
      </trkpt>
      <trkpt lat="42.06826" lon="0.74043">
        <ele>1255.8</ele>
        <time>2022-05-23 11:49:31</time>
      </trkpt>
      <trkpt lat="42.06826" lon="0.74041">
        <ele>1256</ele>
        <time>2022-05-23 11:49:32</time>
      </trkpt>
      <trkpt lat="42.06826" lon="0.74039">
        <ele>1256.2</ele>
        <time>2022-05-23 11:49:33</time>
      </trkpt>
      <trkpt lat="42.06825" lon="0.74037">
        <ele>1256.4</ele>
        <time>2022-05-23 11:49:34</time>
      </trkpt>
      <trkpt lat="42.06825" lon="0.74035">
        <ele>1256.6</ele>
        <time>2022-05-23 11:49:35</time>
      </trkpt>
      <trkpt lat="42.06825" lon="0.74033">
        <ele>1256.8</ele>
        <time>2022-05-23 11:49:36</time>
      </trkpt>
      <trkpt lat="42.06825" lon="0.74031">
        <ele>1257</ele>
        <time>2022-05-23 11:49:37</time>
      </trkpt>
      <trkpt lat="42.06825" lon="0.74029">
        <ele>1257.2</ele>
        <time>2022-05-23 11:49:38</time>
      </trkpt>
      <trkpt lat="42.06825" lon="0.74027">
        <ele>1257.4</ele>
        <time>2022-05-23 11:49:39</time>
      </trkpt>
      <trkpt lat="42.06824" lon="0.74024">
        <ele>1257.6</ele>
        <time>2022-05-23 11:49:40</time>
      </trkpt>
      <trkpt lat="42.06824" lon="0.74022">
        <ele>1257.8</ele>
        <time>2022-05-23 11:49:41</time>
      </trkpt>
      <trkpt lat="42.06824" lon="0.7402">
        <ele>1257.8</ele>
        <time>2022-05-23 11:49:42</time>
      </trkpt>
      <trkpt lat="42.06824" lon="0.74018">
        <ele>1258</ele>
        <time>2022-05-23 11:49:43</time>
      </trkpt>
      <trkpt lat="42.06824" lon="0.74015">
        <ele>1258.2</ele>
        <time>2022-05-23 11:49:44</time>
      </trkpt>
      <trkpt lat="42.06824" lon="0.74013">
        <ele>1258.4</ele>
        <time>2022-05-23 11:49:45</time>
      </trkpt>
      <trkpt lat="42.06824" lon="0.74011">
        <ele>1258.6</ele>
        <time>2022-05-23 11:49:46</time>
      </trkpt>
      <trkpt lat="42.06824" lon="0.74008">
        <ele>1258.8</ele>
        <time>2022-05-23 11:49:47</time>
      </trkpt>
      <trkpt lat="42.06823" lon="0.74006">
        <ele>1259</ele>
        <time>2022-05-23 11:49:48</time>
      </trkpt>
      <trkpt lat="42.06823" lon="0.74004">
        <ele>1259.2</ele>
        <time>2022-05-23 11:49:49</time>
      </trkpt>
      <trkpt lat="42.06823" lon="0.74002">
        <ele>1259.4</ele>
        <time>2022-05-23 11:49:50</time>
      </trkpt>
      <trkpt lat="42.06823" lon="0.74">
        <ele>1259.6</ele>
        <time>2022-05-23 11:49:51</time>
      </trkpt>
      <trkpt lat="42.06823" lon="0.73998">
        <ele>1259.8</ele>
        <time>2022-05-23 11:49:52</time>
      </trkpt>
      <trkpt lat="42.06823" lon="0.73996">
        <ele>1259.8</ele>
        <time>2022-05-23 11:49:53</time>
      </trkpt>
      <trkpt lat="42.06822" lon="0.73994">
        <ele>1260</ele>
        <time>2022-05-23 11:49:54</time>
      </trkpt>
      <trkpt lat="42.06823" lon="0.73992">
        <ele>1260.2</ele>
        <time>2022-05-23 11:49:55</time>
      </trkpt>
      <trkpt lat="42.06823" lon="0.7399">
        <ele>1260.4</ele>
        <time>2022-05-23 11:49:56</time>
      </trkpt>
      <trkpt lat="42.06823" lon="0.73988">
        <ele>1260.6</ele>
        <time>2022-05-23 11:49:57</time>
      </trkpt>
      <trkpt lat="42.06823" lon="0.73985">
        <ele>1260.6</ele>
        <time>2022-05-23 11:49:58</time>
      </trkpt>
      <trkpt lat="42.06823" lon="0.73983">
        <ele>1260.8</ele>
        <time>2022-05-23 11:49:59</time>
      </trkpt>
      <trkpt lat="42.06824" lon="0.7398">
        <ele>1261</ele>
        <time>2022-05-23 11:50:00</time>
      </trkpt>
      <trkpt lat="42.06824" lon="0.73978">
        <ele>1261.2</ele>
        <time>2022-05-23 11:50:01</time>
      </trkpt>
      <trkpt lat="42.06824" lon="0.73975">
        <ele>1261.2</ele>
        <time>2022-05-23 11:50:02</time>
      </trkpt>
      <trkpt lat="42.06824" lon="0.73973">
        <ele>1261.4</ele>
        <time>2022-05-23 11:50:03</time>
      </trkpt>
      <trkpt lat="42.06824" lon="0.73971">
        <ele>1261.4</ele>
        <time>2022-05-23 11:50:04</time>
      </trkpt>
      <trkpt lat="42.06824" lon="0.73969">
        <ele>1261.6</ele>
        <time>2022-05-23 11:50:05</time>
      </trkpt>
      <trkpt lat="42.06824" lon="0.73966">
        <ele>1261.8</ele>
        <time>2022-05-23 11:50:06</time>
      </trkpt>
      <trkpt lat="42.06824" lon="0.73964">
        <ele>1261.8</ele>
        <time>2022-05-23 11:50:07</time>
      </trkpt>
      <trkpt lat="42.06824" lon="0.73961">
        <ele>1262</ele>
        <time>2022-05-23 11:50:08</time>
      </trkpt>
      <trkpt lat="42.06824" lon="0.73959">
        <ele>1262</ele>
        <time>2022-05-23 11:50:09</time>
      </trkpt>
      <trkpt lat="42.06824" lon="0.73956">
        <ele>1262.2</ele>
        <time>2022-05-23 11:50:10</time>
      </trkpt>
      <trkpt lat="42.06824" lon="0.73954">
        <ele>1262.2</ele>
        <time>2022-05-23 11:50:11</time>
      </trkpt>
      <trkpt lat="42.06824" lon="0.73952">
        <ele>1262.4</ele>
        <time>2022-05-23 11:50:12</time>
      </trkpt>
      <trkpt lat="42.06824" lon="0.73949">
        <ele>1262.6</ele>
        <time>2022-05-23 11:50:13</time>
      </trkpt>
      <trkpt lat="42.06823" lon="0.73947">
        <ele>1262.8</ele>
        <time>2022-05-23 11:50:14</time>
      </trkpt>
      <trkpt lat="42.06823" lon="0.73945">
        <ele>1262.8</ele>
        <time>2022-05-23 11:50:15</time>
      </trkpt>
      <trkpt lat="42.06823" lon="0.73942">
        <ele>1263</ele>
        <time>2022-05-23 11:50:16</time>
      </trkpt>
      <trkpt lat="42.06823" lon="0.7394">
        <ele>1263.2</ele>
        <time>2022-05-23 11:50:17</time>
      </trkpt>
      <trkpt lat="42.06823" lon="0.73937">
        <ele>1263.4</ele>
        <time>2022-05-23 11:50:18</time>
      </trkpt>
      <trkpt lat="42.06822" lon="0.73935">
        <ele>1263.4</ele>
        <time>2022-05-23 11:50:19</time>
      </trkpt>
      <trkpt lat="42.06822" lon="0.73933">
        <ele>1263.6</ele>
        <time>2022-05-23 11:50:20</time>
      </trkpt>
      <trkpt lat="42.06822" lon="0.73931">
        <ele>1263.6</ele>
        <time>2022-05-23 11:50:21</time>
      </trkpt>
      <trkpt lat="42.06822" lon="0.73928">
        <ele>1263.8</ele>
        <time>2022-05-23 11:50:22</time>
      </trkpt>
      <trkpt lat="42.06822" lon="0.73926">
        <ele>1264</ele>
        <time>2022-05-23 11:50:23</time>
      </trkpt>
      <trkpt lat="42.06822" lon="0.73924">
        <ele>1264.2</ele>
        <time>2022-05-23 11:50:24</time>
      </trkpt>
      <trkpt lat="42.06822" lon="0.73922">
        <ele>1264.4</ele>
        <time>2022-05-23 11:50:25</time>
      </trkpt>
      <trkpt lat="42.06821" lon="0.7392">
        <ele>1264.6</ele>
        <time>2022-05-23 11:50:26</time>
      </trkpt>
      <trkpt lat="42.06821" lon="0.73918">
        <ele>1264.6</ele>
        <time>2022-05-23 11:50:27</time>
      </trkpt>
      <trkpt lat="42.06821" lon="0.73916">
        <ele>1264.8</ele>
        <time>2022-05-23 11:50:28</time>
      </trkpt>
      <trkpt lat="42.0682" lon="0.73913">
        <ele>1264.8</ele>
        <time>2022-05-23 11:50:29</time>
      </trkpt>
      <trkpt lat="42.0682" lon="0.73911">
        <ele>1264.8</ele>
        <time>2022-05-23 11:50:30</time>
      </trkpt>
      <trkpt lat="42.06819" lon="0.73909">
        <ele>1265</ele>
        <time>2022-05-23 11:50:31</time>
      </trkpt>
      <trkpt lat="42.06818" lon="0.73907">
        <ele>1265</ele>
        <time>2022-05-23 11:50:32</time>
      </trkpt>
      <trkpt lat="42.06818" lon="0.73905">
        <ele>1265.2</ele>
        <time>2022-05-23 11:50:33</time>
      </trkpt>
      <trkpt lat="42.06818" lon="0.73903">
        <ele>1265.4</ele>
        <time>2022-05-23 11:50:34</time>
      </trkpt>
      <trkpt lat="42.06817" lon="0.73901">
        <ele>1265.4</ele>
        <time>2022-05-23 11:50:35</time>
      </trkpt>
      <trkpt lat="42.06816" lon="0.73898">
        <ele>1265.6</ele>
        <time>2022-05-23 11:50:36</time>
      </trkpt>
      <trkpt lat="42.06816" lon="0.73896">
        <ele>1265.8</ele>
        <time>2022-05-23 11:50:37</time>
      </trkpt>
      <trkpt lat="42.06816" lon="0.73894">
        <ele>1266</ele>
        <time>2022-05-23 11:50:38</time>
      </trkpt>
      <trkpt lat="42.06815" lon="0.73891">
        <ele>1266.2</ele>
        <time>2022-05-23 11:50:39</time>
      </trkpt>
      <trkpt lat="42.06815" lon="0.73889">
        <ele>1266.4</ele>
        <time>2022-05-23 11:50:40</time>
      </trkpt>
      <trkpt lat="42.06814" lon="0.73886">
        <ele>1266.4</ele>
        <time>2022-05-23 11:50:41</time>
      </trkpt>
      <trkpt lat="42.06814" lon="0.73884">
        <ele>1266.6</ele>
        <time>2022-05-23 11:50:42</time>
      </trkpt>
      <trkpt lat="42.06813" lon="0.73882">
        <ele>1266.8</ele>
        <time>2022-05-23 11:50:43</time>
      </trkpt>
      <trkpt lat="42.06813" lon="0.7388">
        <ele>1267</ele>
        <time>2022-05-23 11:50:44</time>
      </trkpt>
      <trkpt lat="42.06812" lon="0.73877">
        <ele>1267</ele>
        <time>2022-05-23 11:50:45</time>
      </trkpt>
      <trkpt lat="42.06811" lon="0.73875">
        <ele>1267.2</ele>
        <time>2022-05-23 11:50:46</time>
      </trkpt>
      <trkpt lat="42.06811" lon="0.73873">
        <ele>1267.4</ele>
        <time>2022-05-23 11:50:47</time>
      </trkpt>
      <trkpt lat="42.0681" lon="0.73871">
        <ele>1267.4</ele>
        <time>2022-05-23 11:50:48</time>
      </trkpt>
      <trkpt lat="42.0681" lon="0.73869">
        <ele>1267.6</ele>
        <time>2022-05-23 11:50:49</time>
      </trkpt>
      <trkpt lat="42.0681" lon="0.73867">
        <ele>1267.8</ele>
        <time>2022-05-23 11:50:50</time>
      </trkpt>
      <trkpt lat="42.06809" lon="0.73865">
        <ele>1267.8</ele>
        <time>2022-05-23 11:50:51</time>
      </trkpt>
      <trkpt lat="42.06808" lon="0.73863">
        <ele>1268</ele>
        <time>2022-05-23 11:50:52</time>
      </trkpt>
      <trkpt lat="42.06808" lon="0.73861">
        <ele>1268.2</ele>
        <time>2022-05-23 11:50:53</time>
      </trkpt>
      <trkpt lat="42.06807" lon="0.73859">
        <ele>1268.4</ele>
        <time>2022-05-23 11:50:54</time>
      </trkpt>
      <trkpt lat="42.06807" lon="0.73858">
        <ele>1268.6</ele>
        <time>2022-05-23 11:50:55</time>
      </trkpt>
      <trkpt lat="42.06806" lon="0.73856">
        <ele>1268.6</ele>
        <time>2022-05-23 11:50:56</time>
      </trkpt>
      <trkpt lat="42.06805" lon="0.73854">
        <ele>1268.8</ele>
        <time>2022-05-23 11:50:57</time>
      </trkpt>
      <trkpt lat="42.06804" lon="0.73852">
        <ele>1269</ele>
        <time>2022-05-23 11:50:58</time>
      </trkpt>
      <trkpt lat="42.06803" lon="0.7385">
        <ele>1269.2</ele>
        <time>2022-05-23 11:50:59</time>
      </trkpt>
      <trkpt lat="42.06802" lon="0.73848">
        <ele>1269.4</ele>
        <time>2022-05-23 11:51:00</time>
      </trkpt>
      <trkpt lat="42.06801" lon="0.73845">
        <ele>1269.6</ele>
        <time>2022-05-23 11:51:01</time>
      </trkpt>
      <trkpt lat="42.068" lon="0.73843">
        <ele>1269.8</ele>
        <time>2022-05-23 11:51:02</time>
      </trkpt>
      <trkpt lat="42.06799" lon="0.73841">
        <ele>1270</ele>
        <time>2022-05-23 11:51:03</time>
      </trkpt>
      <trkpt lat="42.06799" lon="0.73839">
        <ele>1270</ele>
        <time>2022-05-23 11:51:04</time>
      </trkpt>
      <trkpt lat="42.06799" lon="0.73837">
        <ele>1270.2</ele>
        <time>2022-05-23 11:51:05</time>
      </trkpt>
      <trkpt lat="42.06798" lon="0.73834">
        <ele>1270.4</ele>
        <time>2022-05-23 11:51:06</time>
      </trkpt>
      <trkpt lat="42.06797" lon="0.73831">
        <ele>1270.6</ele>
        <time>2022-05-23 11:51:07</time>
      </trkpt>
      <trkpt lat="42.06797" lon="0.73829">
        <ele>1270.6</ele>
        <time>2022-05-23 11:51:08</time>
      </trkpt>
      <trkpt lat="42.06796" lon="0.73827">
        <ele>1270.8</ele>
        <time>2022-05-23 11:51:09</time>
      </trkpt>
      <trkpt lat="42.06795" lon="0.73825">
        <ele>1271</ele>
        <time>2022-05-23 11:51:10</time>
      </trkpt>
      <trkpt lat="42.06795" lon="0.73822">
        <ele>1271.2</ele>
        <time>2022-05-23 11:51:11</time>
      </trkpt>
      <trkpt lat="42.06794" lon="0.7382">
        <ele>1271.4</ele>
        <time>2022-05-23 11:51:12</time>
      </trkpt>
      <trkpt lat="42.06794" lon="0.73818">
        <ele>1271.6</ele>
        <time>2022-05-23 11:51:13</time>
      </trkpt>
      <trkpt lat="42.06794" lon="0.73815">
        <ele>1271.8</ele>
        <time>2022-05-23 11:51:14</time>
      </trkpt>
      <trkpt lat="42.06793" lon="0.73814">
        <ele>1272</ele>
        <time>2022-05-23 11:51:15</time>
      </trkpt>
      <trkpt lat="42.06793" lon="0.73812">
        <ele>1272.2</ele>
        <time>2022-05-23 11:51:16</time>
      </trkpt>
      <trkpt lat="42.06792" lon="0.7381">
        <ele>1272.2</ele>
        <time>2022-05-23 11:51:17</time>
      </trkpt>
      <trkpt lat="42.06792" lon="0.73808">
        <ele>1272.4</ele>
        <time>2022-05-23 11:51:18</time>
      </trkpt>
      <trkpt lat="42.06791" lon="0.73806">
        <ele>1272.6</ele>
        <time>2022-05-23 11:51:19</time>
      </trkpt>
      <trkpt lat="42.0679" lon="0.73804">
        <ele>1272.6</ele>
        <time>2022-05-23 11:51:20</time>
      </trkpt>
      <trkpt lat="42.0679" lon="0.73801">
        <ele>1272.8</ele>
        <time>2022-05-23 11:51:21</time>
      </trkpt>
      <trkpt lat="42.06789" lon="0.73798">
        <ele>1273</ele>
        <time>2022-05-23 11:51:22</time>
      </trkpt>
      <trkpt lat="42.06788" lon="0.73796">
        <ele>1273.2</ele>
        <time>2022-05-23 11:51:23</time>
      </trkpt>
      <trkpt lat="42.06788" lon="0.73794">
        <ele>1273.2</ele>
        <time>2022-05-23 11:51:24</time>
      </trkpt>
      <trkpt lat="42.06787" lon="0.73792">
        <ele>1273.4</ele>
        <time>2022-05-23 11:51:25</time>
      </trkpt>
      <trkpt lat="42.06787" lon="0.73789">
        <ele>1273.6</ele>
        <time>2022-05-23 11:51:26</time>
      </trkpt>
      <trkpt lat="42.06786" lon="0.73787">
        <ele>1273.6</ele>
        <time>2022-05-23 11:51:27</time>
      </trkpt>
      <trkpt lat="42.06786" lon="0.73785">
        <ele>1273.8</ele>
        <time>2022-05-23 11:51:28</time>
      </trkpt>
      <trkpt lat="42.06785" lon="0.73783">
        <ele>1273.8</ele>
        <time>2022-05-23 11:51:29</time>
      </trkpt>
      <trkpt lat="42.06785" lon="0.7378">
        <ele>1274</ele>
        <time>2022-05-23 11:51:30</time>
      </trkpt>
      <trkpt lat="42.06784" lon="0.73778">
        <ele>1274</ele>
        <time>2022-05-23 11:51:31</time>
      </trkpt>
      <trkpt lat="42.06784" lon="0.73775">
        <ele>1274.2</ele>
        <time>2022-05-23 11:51:32</time>
      </trkpt>
      <trkpt lat="42.06784" lon="0.73773">
        <ele>1274.2</ele>
        <time>2022-05-23 11:51:33</time>
      </trkpt>
      <trkpt lat="42.06783" lon="0.73771">
        <ele>1274.4</ele>
        <time>2022-05-23 11:51:34</time>
      </trkpt>
      <trkpt lat="42.06783" lon="0.73769">
        <ele>1274.4</ele>
        <time>2022-05-23 11:51:35</time>
      </trkpt>
      <trkpt lat="42.06782" lon="0.73767">
        <ele>1274.6</ele>
        <time>2022-05-23 11:51:36</time>
      </trkpt>
      <trkpt lat="42.06782" lon="0.73764">
        <ele>1274.8</ele>
        <time>2022-05-23 11:51:37</time>
      </trkpt>
      <trkpt lat="42.06781" lon="0.73762">
        <ele>1274.8</ele>
        <time>2022-05-23 11:51:38</time>
      </trkpt>
      <trkpt lat="42.0678" lon="0.7376">
        <ele>1275</ele>
        <time>2022-05-23 11:51:39</time>
      </trkpt>
      <trkpt lat="42.06779" lon="0.73759">
        <ele>1275</ele>
        <time>2022-05-23 11:51:40</time>
      </trkpt>
      <trkpt lat="42.06779" lon="0.73757">
        <ele>1275.2</ele>
        <time>2022-05-23 11:51:41</time>
      </trkpt>
      <trkpt lat="42.06778" lon="0.73755">
        <ele>1275.4</ele>
        <time>2022-05-23 11:51:42</time>
      </trkpt>
      <trkpt lat="42.06778" lon="0.73753">
        <ele>1275.4</ele>
        <time>2022-05-23 11:51:43</time>
      </trkpt>
      <trkpt lat="42.06777" lon="0.7375">
        <ele>1275.6</ele>
        <time>2022-05-23 11:51:44</time>
      </trkpt>
      <trkpt lat="42.06776" lon="0.73749">
        <ele>1275.8</ele>
        <time>2022-05-23 11:51:45</time>
      </trkpt>
      <trkpt lat="42.06775" lon="0.73746">
        <ele>1276</ele>
        <time>2022-05-23 11:51:46</time>
      </trkpt>
      <trkpt lat="42.06774" lon="0.73744">
        <ele>1276</ele>
        <time>2022-05-23 11:51:47</time>
      </trkpt>
      <trkpt lat="42.06774" lon="0.73742">
        <ele>1276.2</ele>
        <time>2022-05-23 11:51:48</time>
      </trkpt>
      <trkpt lat="42.06773" lon="0.73739">
        <ele>1276.4</ele>
        <time>2022-05-23 11:51:49</time>
      </trkpt>
      <trkpt lat="42.06773" lon="0.73737">
        <ele>1276.6</ele>
        <time>2022-05-23 11:51:50</time>
      </trkpt>
      <trkpt lat="42.06772" lon="0.73735">
        <ele>1276.8</ele>
        <time>2022-05-23 11:51:51</time>
      </trkpt>
      <trkpt lat="42.06771" lon="0.73733">
        <ele>1276.8</ele>
        <time>2022-05-23 11:51:52</time>
      </trkpt>
      <trkpt lat="42.0677" lon="0.73731">
        <ele>1277</ele>
        <time>2022-05-23 11:51:53</time>
      </trkpt>
      <trkpt lat="42.0677" lon="0.7373">
        <ele>1277.2</ele>
        <time>2022-05-23 11:51:54</time>
      </trkpt>
      <trkpt lat="42.06769" lon="0.73728">
        <ele>1277.4</ele>
        <time>2022-05-23 11:51:55</time>
      </trkpt>
      <trkpt lat="42.06768" lon="0.73726">
        <ele>1277.6</ele>
        <time>2022-05-23 11:51:56</time>
      </trkpt>
      <trkpt lat="42.06767" lon="0.73724">
        <ele>1277.8</ele>
        <time>2022-05-23 11:51:57</time>
      </trkpt>
      <trkpt lat="42.06766" lon="0.73722">
        <ele>1277.8</ele>
        <time>2022-05-23 11:51:58</time>
      </trkpt>
      <trkpt lat="42.06766" lon="0.73719">
        <ele>1278</ele>
        <time>2022-05-23 11:51:59</time>
      </trkpt>
      <trkpt lat="42.06765" lon="0.73717">
        <ele>1278.2</ele>
        <time>2022-05-23 11:52:00</time>
      </trkpt>
      <trkpt lat="42.06765" lon="0.73715">
        <ele>1278.2</ele>
        <time>2022-05-23 11:52:01</time>
      </trkpt>
      <trkpt lat="42.06763" lon="0.73713">
        <ele>1278.4</ele>
        <time>2022-05-23 11:52:02</time>
      </trkpt>
      <trkpt lat="42.06763" lon="0.73712">
        <ele>1278.4</ele>
        <time>2022-05-23 11:52:03</time>
      </trkpt>
      <trkpt lat="42.06762" lon="0.7371">
        <ele>1278.6</ele>
        <time>2022-05-23 11:52:04</time>
      </trkpt>
      <trkpt lat="42.06761" lon="0.73708">
        <ele>1278.6</ele>
        <time>2022-05-23 11:52:05</time>
      </trkpt>
      <trkpt lat="42.0676" lon="0.73706">
        <ele>1278.8</ele>
        <time>2022-05-23 11:52:06</time>
      </trkpt>
      <trkpt lat="42.0676" lon="0.73704">
        <ele>1279</ele>
        <time>2022-05-23 11:52:07</time>
      </trkpt>
      <trkpt lat="42.06759" lon="0.73702">
        <ele>1279.2</ele>
        <time>2022-05-23 11:52:08</time>
      </trkpt>
      <trkpt lat="42.06758" lon="0.737">
        <ele>1279.4</ele>
        <time>2022-05-23 11:52:09</time>
      </trkpt>
      <trkpt lat="42.06757" lon="0.73697">
        <ele>1279.6</ele>
        <time>2022-05-23 11:52:10</time>
      </trkpt>
      <trkpt lat="42.06757" lon="0.73696">
        <ele>1279.8</ele>
        <time>2022-05-23 11:52:11</time>
      </trkpt>
      <trkpt lat="42.06756" lon="0.73694">
        <ele>1279.8</ele>
        <time>2022-05-23 11:52:12</time>
      </trkpt>
      <trkpt lat="42.06755" lon="0.73692">
        <ele>1280</ele>
        <time>2022-05-23 11:52:13</time>
      </trkpt>
      <trkpt lat="42.06754" lon="0.7369">
        <ele>1280.2</ele>
        <time>2022-05-23 11:52:14</time>
      </trkpt>
      <trkpt lat="42.06753" lon="0.73688">
        <ele>1280.4</ele>
        <time>2022-05-23 11:52:15</time>
      </trkpt>
      <trkpt lat="42.06752" lon="0.73686">
        <ele>1280.4</ele>
        <time>2022-05-23 11:52:16</time>
      </trkpt>
      <trkpt lat="42.06751" lon="0.73684">
        <ele>1280.6</ele>
        <time>2022-05-23 11:52:17</time>
      </trkpt>
      <trkpt lat="42.0675" lon="0.73682">
        <ele>1280.8</ele>
        <time>2022-05-23 11:52:18</time>
      </trkpt>
      <trkpt lat="42.06749" lon="0.7368">
        <ele>1280.8</ele>
        <time>2022-05-23 11:52:19</time>
      </trkpt>
      <trkpt lat="42.06748" lon="0.73678">
        <ele>1281</ele>
        <time>2022-05-23 11:52:20</time>
      </trkpt>
      <trkpt lat="42.06747" lon="0.73676">
        <ele>1281.2</ele>
        <time>2022-05-23 11:52:21</time>
      </trkpt>
      <trkpt lat="42.06746" lon="0.73674">
        <ele>1281.4</ele>
        <time>2022-05-23 11:52:22</time>
      </trkpt>
      <trkpt lat="42.06745" lon="0.73673">
        <ele>1281.6</ele>
        <time>2022-05-23 11:52:23</time>
      </trkpt>
      <trkpt lat="42.06744" lon="0.73672">
        <ele>1281.6</ele>
        <time>2022-05-23 11:52:24</time>
      </trkpt>
      <trkpt lat="42.06742" lon="0.7367">
        <ele>1281.8</ele>
        <time>2022-05-23 11:52:25</time>
      </trkpt>
      <trkpt lat="42.06741" lon="0.73668">
        <ele>1282</ele>
        <time>2022-05-23 11:52:26</time>
      </trkpt>
      <trkpt lat="42.0674" lon="0.73667">
        <ele>1282</ele>
        <time>2022-05-23 11:52:27</time>
      </trkpt>
      <trkpt lat="42.06739" lon="0.73665">
        <ele>1282.2</ele>
        <time>2022-05-23 11:52:28</time>
      </trkpt>
      <trkpt lat="42.06738" lon="0.73663">
        <ele>1282.4</ele>
        <time>2022-05-23 11:52:29</time>
      </trkpt>
      <trkpt lat="42.06737" lon="0.73662">
        <ele>1282.4</ele>
        <time>2022-05-23 11:52:30</time>
      </trkpt>
      <trkpt lat="42.06736" lon="0.7366">
        <ele>1282.6</ele>
        <time>2022-05-23 11:52:31</time>
      </trkpt>
      <trkpt lat="42.06734" lon="0.73658">
        <ele>1282.8</ele>
        <time>2022-05-23 11:52:32</time>
      </trkpt>
      <trkpt lat="42.06733" lon="0.73656">
        <ele>1283</ele>
        <time>2022-05-23 11:52:33</time>
      </trkpt>
      <trkpt lat="42.06732" lon="0.73655">
        <ele>1283.2</ele>
        <time>2022-05-23 11:52:34</time>
      </trkpt>
      <trkpt lat="42.06731" lon="0.73653">
        <ele>1283.4</ele>
        <time>2022-05-23 11:52:35</time>
      </trkpt>
      <trkpt lat="42.0673" lon="0.73651">
        <ele>1283.6</ele>
        <time>2022-05-23 11:52:36</time>
      </trkpt>
      <trkpt lat="42.06729" lon="0.73649">
        <ele>1283.8</ele>
        <time>2022-05-23 11:52:37</time>
      </trkpt>
      <trkpt lat="42.06728" lon="0.73647">
        <ele>1283.8</ele>
        <time>2022-05-23 11:52:38</time>
      </trkpt>
      <trkpt lat="42.06727" lon="0.73644">
        <ele>1284</ele>
        <time>2022-05-23 11:52:39</time>
      </trkpt>
      <trkpt lat="42.06726" lon="0.73642">
        <ele>1284.4</ele>
        <time>2022-05-23 11:52:40</time>
      </trkpt>
      <trkpt lat="42.06725" lon="0.7364">
        <ele>1284.6</ele>
        <time>2022-05-23 11:52:41</time>
      </trkpt>
      <trkpt lat="42.06724" lon="0.73637">
        <ele>1284.8</ele>
        <time>2022-05-23 11:52:42</time>
      </trkpt>
      <trkpt lat="42.06723" lon="0.73635">
        <ele>1285</ele>
        <time>2022-05-23 11:52:43</time>
      </trkpt>
      <trkpt lat="42.06722" lon="0.73633">
        <ele>1285.2</ele>
        <time>2022-05-23 11:52:44</time>
      </trkpt>
      <trkpt lat="42.06721" lon="0.7363">
        <ele>1285.6</ele>
        <time>2022-05-23 11:52:45</time>
      </trkpt>
      <trkpt lat="42.06721" lon="0.73628">
        <ele>1285.8</ele>
        <time>2022-05-23 11:52:46</time>
      </trkpt>
      <trkpt lat="42.0672" lon="0.73625">
        <ele>1285.8</ele>
        <time>2022-05-23 11:52:47</time>
      </trkpt>
      <trkpt lat="42.0672" lon="0.73623">
        <ele>1286</ele>
        <time>2022-05-23 11:52:48</time>
      </trkpt>
      <trkpt lat="42.06719" lon="0.73621">
        <ele>1286.2</ele>
        <time>2022-05-23 11:52:49</time>
      </trkpt>
      <trkpt lat="42.06719" lon="0.73619">
        <ele>1286.2</ele>
        <time>2022-05-23 11:52:50</time>
      </trkpt>
      <trkpt lat="42.06718" lon="0.73617">
        <ele>1286.4</ele>
        <time>2022-05-23 11:52:51</time>
      </trkpt>
      <trkpt lat="42.06718" lon="0.73616">
        <ele>1286.4</ele>
        <time>2022-05-23 11:52:52</time>
      </trkpt>
      <trkpt lat="42.06716" lon="0.73613">
        <ele>1286.6</ele>
        <time>2022-05-23 11:52:53</time>
      </trkpt>
      <trkpt lat="42.06715" lon="0.73611">
        <ele>1286.6</ele>
        <time>2022-05-23 11:52:54</time>
      </trkpt>
      <trkpt lat="42.06714" lon="0.73609">
        <ele>1286.8</ele>
        <time>2022-05-23 11:52:55</time>
      </trkpt>
      <trkpt lat="42.06713" lon="0.73607">
        <ele>1286.8</ele>
        <time>2022-05-23 11:52:56</time>
      </trkpt>
      <trkpt lat="42.06711" lon="0.73605">
        <ele>1287</ele>
        <time>2022-05-23 11:52:57</time>
      </trkpt>
      <trkpt lat="42.0671" lon="0.73604">
        <ele>1287.2</ele>
        <time>2022-05-23 11:52:58</time>
      </trkpt>
      <trkpt lat="42.06708" lon="0.73602">
        <ele>1287.2</ele>
        <time>2022-05-23 11:52:59</time>
      </trkpt>
      <trkpt lat="42.06707" lon="0.736">
        <ele>1287.4</ele>
        <time>2022-05-23 11:53:00</time>
      </trkpt>
      <trkpt lat="42.06706" lon="0.73599">
        <ele>1287.6</ele>
        <time>2022-05-23 11:53:01</time>
      </trkpt>
      <trkpt lat="42.06704" lon="0.73598">
        <ele>1287.8</ele>
        <time>2022-05-23 11:53:02</time>
      </trkpt>
      <trkpt lat="42.06703" lon="0.73597">
        <ele>1287.8</ele>
        <time>2022-05-23 11:53:03</time>
      </trkpt>
      <trkpt lat="42.06702" lon="0.73596">
        <ele>1288</ele>
        <time>2022-05-23 11:53:04</time>
      </trkpt>
      <trkpt lat="42.067" lon="0.73594">
        <ele>1288</ele>
        <time>2022-05-23 11:53:05</time>
      </trkpt>
      <trkpt lat="42.06699" lon="0.73593">
        <ele>1288.2</ele>
        <time>2022-05-23 11:53:06</time>
      </trkpt>
      <trkpt lat="42.06697" lon="0.73592">
        <ele>1288.4</ele>
        <time>2022-05-23 11:53:07</time>
      </trkpt>
      <trkpt lat="42.06695" lon="0.73591">
        <ele>1288.6</ele>
        <time>2022-05-23 11:53:08</time>
      </trkpt>
      <trkpt lat="42.06694" lon="0.7359">
        <ele>1288.8</ele>
        <time>2022-05-23 11:53:09</time>
      </trkpt>
      <trkpt lat="42.06693" lon="0.73588">
        <ele>1288.8</ele>
        <time>2022-05-23 11:53:10</time>
      </trkpt>
      <trkpt lat="42.06691" lon="0.73588">
        <ele>1289</ele>
        <time>2022-05-23 11:53:11</time>
      </trkpt>
      <trkpt lat="42.06691" lon="0.73587">
        <ele>1289.2</ele>
        <time>2022-05-23 11:53:12</time>
      </trkpt>
      <trkpt lat="42.0669" lon="0.73587">
        <ele>1289.4</ele>
        <time>2022-05-23 11:53:13</time>
      </trkpt>
      <trkpt lat="42.06689" lon="0.73586">
        <ele>1289.6</ele>
        <time>2022-05-23 11:53:14</time>
      </trkpt>
      <trkpt lat="42.06687" lon="0.73585">
        <ele>1289.6</ele>
        <time>2022-05-23 11:53:15</time>
      </trkpt>
      <trkpt lat="42.06686" lon="0.73584">
        <ele>1289.8</ele>
        <time>2022-05-23 11:53:16</time>
      </trkpt>
      <trkpt lat="42.06684" lon="0.73584">
        <ele>1289.8</ele>
        <time>2022-05-23 11:53:17</time>
      </trkpt>
      <trkpt lat="42.06682" lon="0.73584">
        <ele>1289.8</ele>
        <time>2022-05-23 11:53:18</time>
      </trkpt>
      <trkpt lat="42.06681" lon="0.73584">
        <ele>1289.8</ele>
        <time>2022-05-23 11:53:19</time>
      </trkpt>
      <trkpt lat="42.06678" lon="0.73585">
        <ele>1289.6</ele>
        <time>2022-05-23 11:53:20</time>
      </trkpt>
      <trkpt lat="42.06674" lon="0.73586">
        <ele>1289.2</ele>
        <time>2022-05-23 11:53:21</time>
      </trkpt>
      <trkpt lat="42.0667" lon="0.73587">
        <ele>1288.6</ele>
        <time>2022-05-23 11:53:22</time>
      </trkpt>
      <trkpt lat="42.06665" lon="0.73589">
        <ele>1288.2</ele>
        <time>2022-05-23 11:53:23</time>
      </trkpt>
      <trkpt lat="42.0666" lon="0.73591">
        <ele>1287.8</ele>
        <time>2022-05-23 11:53:24</time>
      </trkpt>
      <trkpt lat="42.06655" lon="0.73593">
        <ele>1287.6</ele>
        <time>2022-05-23 11:53:25</time>
      </trkpt>
      <trkpt lat="42.0665" lon="0.73595">
        <ele>1287.2</ele>
        <time>2022-05-23 11:53:26</time>
      </trkpt>
      <trkpt lat="42.06645" lon="0.73596">
        <ele>1287</ele>
        <time>2022-05-23 11:53:27</time>
      </trkpt>
      <trkpt lat="42.0664" lon="0.73599">
        <ele>1287</ele>
        <time>2022-05-23 11:53:28</time>
      </trkpt>
      <trkpt lat="42.06634" lon="0.73601">
        <ele>1286.8</ele>
        <time>2022-05-23 11:53:29</time>
      </trkpt>
      <trkpt lat="42.06629" lon="0.73603">
        <ele>1286.6</ele>
        <time>2022-05-23 11:53:30</time>
      </trkpt>
      <trkpt lat="42.06624" lon="0.73605">
        <ele>1286.2</ele>
        <time>2022-05-23 11:53:31</time>
      </trkpt>
      <trkpt lat="42.06617" lon="0.73608">
        <ele>1286.2</ele>
        <time>2022-05-23 11:53:32</time>
      </trkpt>
      <trkpt lat="42.06613" lon="0.73609">
        <ele>1286</ele>
        <time>2022-05-23 11:53:33</time>
      </trkpt>
      <trkpt lat="42.06607" lon="0.73611">
        <ele>1286</ele>
        <time>2022-05-23 11:53:34</time>
      </trkpt>
      <trkpt lat="42.06602" lon="0.73613">
        <ele>1285.8</ele>
        <time>2022-05-23 11:53:35</time>
      </trkpt>
      <trkpt lat="42.06597" lon="0.73616">
        <ele>1285.8</ele>
        <time>2022-05-23 11:53:36</time>
      </trkpt>
      <trkpt lat="42.06592" lon="0.73618">
        <ele>1285.6</ele>
        <time>2022-05-23 11:53:37</time>
      </trkpt>
      <trkpt lat="42.06586" lon="0.73621">
        <ele>1285.4</ele>
        <time>2022-05-23 11:53:38</time>
      </trkpt>
      <trkpt lat="42.06581" lon="0.73624">
        <ele>1285</ele>
        <time>2022-05-23 11:53:39</time>
      </trkpt>
      <trkpt lat="42.06574" lon="0.73628">
        <ele>1284.6</ele>
        <time>2022-05-23 11:53:40</time>
      </trkpt>
      <trkpt lat="42.06569" lon="0.73633">
        <ele>1284.2</ele>
        <time>2022-05-23 11:53:41</time>
      </trkpt>
      <trkpt lat="42.06562" lon="0.73638">
        <ele>1284</ele>
        <time>2022-05-23 11:53:42</time>
      </trkpt>
      <trkpt lat="42.06556" lon="0.73643">
        <ele>1283.8</ele>
        <time>2022-05-23 11:53:43</time>
      </trkpt>
      <trkpt lat="42.06551" lon="0.7365">
        <ele>1283.4</ele>
        <time>2022-05-23 11:53:44</time>
      </trkpt>
      <trkpt lat="42.06547" lon="0.73657">
        <ele>1283.2</ele>
        <time>2022-05-23 11:53:45</time>
      </trkpt>
      <trkpt lat="42.06542" lon="0.73666">
        <ele>1283</ele>
        <time>2022-05-23 11:53:46</time>
      </trkpt>
      <trkpt lat="42.06539" lon="0.73674">
        <ele>1282.6</ele>
        <time>2022-05-23 11:53:47</time>
      </trkpt>
      <trkpt lat="42.06534" lon="0.73683">
        <ele>1282.2</ele>
        <time>2022-05-23 11:53:48</time>
      </trkpt>
      <trkpt lat="42.06531" lon="0.73692">
        <ele>1282</ele>
        <time>2022-05-23 11:53:49</time>
      </trkpt>
      <trkpt lat="42.06528" lon="0.73702">
        <ele>1281.6</ele>
        <time>2022-05-23 11:53:50</time>
      </trkpt>
      <trkpt lat="42.06526" lon="0.73712">
        <ele>1281.2</ele>
        <time>2022-05-23 11:53:51</time>
      </trkpt>
      <trkpt lat="42.06525" lon="0.73723">
        <ele>1281</ele>
        <time>2022-05-23 11:53:52</time>
      </trkpt>
      <trkpt lat="42.06525" lon="0.73733">
        <ele>1280.6</ele>
        <time>2022-05-23 11:53:53</time>
      </trkpt>
      <trkpt lat="42.06525" lon="0.73744">
        <ele>1280.2</ele>
        <time>2022-05-23 11:53:54</time>
      </trkpt>
      <trkpt lat="42.06526" lon="0.73754">
        <ele>1280</ele>
        <time>2022-05-23 11:53:55</time>
      </trkpt>
      <trkpt lat="42.06527" lon="0.73764">
        <ele>1279.6</ele>
        <time>2022-05-23 11:53:56</time>
      </trkpt>
      <trkpt lat="42.06528" lon="0.73772">
        <ele>1279.2</ele>
        <time>2022-05-23 11:53:57</time>
      </trkpt>
      <trkpt lat="42.06527" lon="0.7378">
        <ele>1278.8</ele>
        <time>2022-05-23 11:53:58</time>
      </trkpt>
      <trkpt lat="42.06526" lon="0.73785">
        <ele>1278.4</ele>
        <time>2022-05-23 11:53:59</time>
      </trkpt>
      <trkpt lat="42.06522" lon="0.7379">
        <ele>1277.8</ele>
        <time>2022-05-23 11:54:00</time>
      </trkpt>
      <trkpt lat="42.06516" lon="0.73791">
        <ele>1277.2</ele>
        <time>2022-05-23 11:54:01</time>
      </trkpt>
      <trkpt lat="42.06512" lon="0.73791">
        <ele>1276.6</ele>
        <time>2022-05-23 11:54:02</time>
      </trkpt>
      <trkpt lat="42.06504" lon="0.73787">
        <ele>1275.8</ele>
        <time>2022-05-23 11:54:03</time>
      </trkpt>
      <trkpt lat="42.06499" lon="0.73783">
        <ele>1275.2</ele>
        <time>2022-05-23 11:54:04</time>
      </trkpt>
      <trkpt lat="42.06494" lon="0.73775">
        <ele>1274.4</ele>
        <time>2022-05-23 11:54:05</time>
      </trkpt>
      <trkpt lat="42.06491" lon="0.73768">
        <ele>1273.6</ele>
        <time>2022-05-23 11:54:06</time>
      </trkpt>
      <trkpt lat="42.06486" lon="0.73758">
        <ele>1272.4</ele>
        <time>2022-05-23 11:54:07</time>
      </trkpt>
      <trkpt lat="42.06483" lon="0.7375">
        <ele>1271.4</ele>
        <time>2022-05-23 11:54:08</time>
      </trkpt>
      <trkpt lat="42.06479" lon="0.73738">
        <ele>1270.6</ele>
        <time>2022-05-23 11:54:09</time>
      </trkpt>
      <trkpt lat="42.06477" lon="0.73729">
        <ele>1270</ele>
        <time>2022-05-23 11:54:10</time>
      </trkpt>
      <trkpt lat="42.06472" lon="0.73717">
        <ele>1269.4</ele>
        <time>2022-05-23 11:54:11</time>
      </trkpt>
      <trkpt lat="42.06468" lon="0.73708">
        <ele>1268.8</ele>
        <time>2022-05-23 11:54:12</time>
      </trkpt>
      <trkpt lat="42.06461" lon="0.737">
        <ele>1268.2</ele>
        <time>2022-05-23 11:54:13</time>
      </trkpt>
      <trkpt lat="42.06454" lon="0.73698">
        <ele>1267.6</ele>
        <time>2022-05-23 11:54:14</time>
      </trkpt>
      <trkpt lat="42.06445" lon="0.737">
        <ele>1267.4</ele>
        <time>2022-05-23 11:54:15</time>
      </trkpt>
      <trkpt lat="42.06439" lon="0.73704">
        <ele>1267.4</ele>
        <time>2022-05-23 11:54:16</time>
      </trkpt>
      <trkpt lat="42.06431" lon="0.7371">
        <ele>1267.4</ele>
        <time>2022-05-23 11:54:17</time>
      </trkpt>
      <trkpt lat="42.06427" lon="0.73716">
        <ele>1267.6</ele>
        <time>2022-05-23 11:54:18</time>
      </trkpt>
      <trkpt lat="42.06424" lon="0.73725">
        <ele>1267.6</ele>
        <time>2022-05-23 11:54:19</time>
      </trkpt>
      <trkpt lat="42.06422" lon="0.73732">
        <ele>1267.6</ele>
        <time>2022-05-23 11:54:20</time>
      </trkpt>
      <trkpt lat="42.0642" lon="0.7374">
        <ele>1267.8</ele>
        <time>2022-05-23 11:54:21</time>
      </trkpt>
      <trkpt lat="42.06418" lon="0.73747">
        <ele>1267.8</ele>
        <time>2022-05-23 11:54:22</time>
      </trkpt>
      <trkpt lat="42.06417" lon="0.73754">
        <ele>1268</ele>
        <time>2022-05-23 11:54:23</time>
      </trkpt>
      <trkpt lat="42.06416" lon="0.73761">
        <ele>1268.2</ele>
        <time>2022-05-23 11:54:24</time>
      </trkpt>
      <trkpt lat="42.06415" lon="0.73768">
        <ele>1268.2</ele>
        <time>2022-05-23 11:54:25</time>
      </trkpt>
      <trkpt lat="42.06413" lon="0.73775">
        <ele>1268.4</ele>
        <time>2022-05-23 11:54:26</time>
      </trkpt>
      <trkpt lat="42.06411" lon="0.73783">
        <ele>1268.6</ele>
        <time>2022-05-23 11:54:27</time>
      </trkpt>
      <trkpt lat="42.06409" lon="0.73788">
        <ele>1268.6</ele>
        <time>2022-05-23 11:54:28</time>
      </trkpt>
      <trkpt lat="42.06405" lon="0.73796">
        <ele>1268.8</ele>
        <time>2022-05-23 11:54:29</time>
      </trkpt>
      <trkpt lat="42.06402" lon="0.73801">
        <ele>1269</ele>
        <time>2022-05-23 11:54:30</time>
      </trkpt>
      <trkpt lat="42.06397" lon="0.73807">
        <ele>1269</ele>
        <time>2022-05-23 11:54:31</time>
      </trkpt>
      <trkpt lat="42.06394" lon="0.73811">
        <ele>1269.2</ele>
        <time>2022-05-23 11:54:32</time>
      </trkpt>
      <trkpt lat="42.0639" lon="0.73814">
        <ele>1269.4</ele>
        <time>2022-05-23 11:54:33</time>
      </trkpt>
      <trkpt lat="42.06386" lon="0.73817">
        <ele>1269.6</ele>
        <time>2022-05-23 11:54:34</time>
      </trkpt>
      <trkpt lat="42.06382" lon="0.73821">
        <ele>1269.8</ele>
        <time>2022-05-23 11:54:35</time>
      </trkpt>
      <trkpt lat="42.06378" lon="0.73823">
        <ele>1270</ele>
        <time>2022-05-23 11:54:36</time>
      </trkpt>
      <trkpt lat="42.06374" lon="0.73826">
        <ele>1270</ele>
        <time>2022-05-23 11:54:37</time>
      </trkpt>
      <trkpt lat="42.06371" lon="0.73829">
        <ele>1270</ele>
        <time>2022-05-23 11:54:38</time>
      </trkpt>
      <trkpt lat="42.06367" lon="0.73832">
        <ele>1269.8</ele>
        <time>2022-05-23 11:54:39</time>
      </trkpt>
      <trkpt lat="42.06364" lon="0.73835">
        <ele>1269.6</ele>
        <time>2022-05-23 11:54:40</time>
      </trkpt>
      <trkpt lat="42.0636" lon="0.73839">
        <ele>1269.2</ele>
        <time>2022-05-23 11:54:41</time>
      </trkpt>
      <trkpt lat="42.06357" lon="0.73843">
        <ele>1268.8</ele>
        <time>2022-05-23 11:54:42</time>
      </trkpt>
      <trkpt lat="42.06353" lon="0.73849">
        <ele>1268.2</ele>
        <time>2022-05-23 11:54:43</time>
      </trkpt>
      <trkpt lat="42.06349" lon="0.73855">
        <ele>1267.6</ele>
        <time>2022-05-23 11:54:44</time>
      </trkpt>
      <trkpt lat="42.06344" lon="0.73864">
        <ele>1267</ele>
        <time>2022-05-23 11:54:45</time>
      </trkpt>
      <trkpt lat="42.06339" lon="0.73871">
        <ele>1266.4</ele>
        <time>2022-05-23 11:54:46</time>
      </trkpt>
      <trkpt lat="42.06333" lon="0.7388">
        <ele>1266</ele>
        <time>2022-05-23 11:54:47</time>
      </trkpt>
      <trkpt lat="42.06328" lon="0.73886">
        <ele>1265.6</ele>
        <time>2022-05-23 11:54:48</time>
      </trkpt>
      <trkpt lat="42.06321" lon="0.73895">
        <ele>1265.4</ele>
        <time>2022-05-23 11:54:49</time>
      </trkpt>
      <trkpt lat="42.06315" lon="0.73901">
        <ele>1265.2</ele>
        <time>2022-05-23 11:54:50</time>
      </trkpt>
      <trkpt lat="42.06308" lon="0.73907">
        <ele>1264.8</ele>
        <time>2022-05-23 11:54:51</time>
      </trkpt>
      <trkpt lat="42.06303" lon="0.73911">
        <ele>1264.8</ele>
        <time>2022-05-23 11:54:52</time>
      </trkpt>
      <trkpt lat="42.06295" lon="0.73916">
        <ele>1264.8</ele>
        <time>2022-05-23 11:54:53</time>
      </trkpt>
      <trkpt lat="42.06289" lon="0.73919">
        <ele>1265</ele>
        <time>2022-05-23 11:54:54</time>
      </trkpt>
      <trkpt lat="42.06282" lon="0.73921">
        <ele>1265.4</ele>
        <time>2022-05-23 11:54:55</time>
      </trkpt>
      <trkpt lat="42.06276" lon="0.73922">
        <ele>1265.8</ele>
        <time>2022-05-23 11:54:56</time>
      </trkpt>
      <trkpt lat="42.0627" lon="0.73923">
        <ele>1266.2</ele>
        <time>2022-05-23 11:54:57</time>
      </trkpt>
      <trkpt lat="42.06266" lon="0.73923">
        <ele>1266.4</ele>
        <time>2022-05-23 11:54:58</time>
      </trkpt>
      <trkpt lat="42.06259" lon="0.73925">
        <ele>1266.6</ele>
        <time>2022-05-23 11:54:59</time>
      </trkpt>
      <trkpt lat="42.06255" lon="0.73926">
        <ele>1266.6</ele>
        <time>2022-05-23 11:55:00</time>
      </trkpt>
      <trkpt lat="42.0625" lon="0.73929">
        <ele>1266.6</ele>
        <time>2022-05-23 11:55:01</time>
      </trkpt>
      <trkpt lat="42.06247" lon="0.73933">
        <ele>1266.6</ele>
        <time>2022-05-23 11:55:02</time>
      </trkpt>
      <trkpt lat="42.06245" lon="0.73939">
        <ele>1266.6</ele>
        <time>2022-05-23 11:55:03</time>
      </trkpt>
      <trkpt lat="42.06243" lon="0.73944">
        <ele>1266.8</ele>
        <time>2022-05-23 11:55:04</time>
      </trkpt>
      <trkpt lat="42.0624" lon="0.7395">
        <ele>1266.8</ele>
        <time>2022-05-23 11:55:05</time>
      </trkpt>
      <trkpt lat="42.06238" lon="0.73953">
        <ele>1266.8</ele>
        <time>2022-05-23 11:55:06</time>
      </trkpt>
      <trkpt lat="42.06236" lon="0.73957">
        <ele>1266.8</ele>
        <time>2022-05-23 11:55:07</time>
      </trkpt>
      <trkpt lat="42.06235" lon="0.7396">
        <ele>1266.8</ele>
        <time>2022-05-23 11:55:08</time>
      </trkpt>
      <trkpt lat="42.06233" lon="0.73963">
        <ele>1266.8</ele>
        <time>2022-05-23 11:55:09</time>
      </trkpt>
      <trkpt lat="42.06231" lon="0.73966">
        <ele>1266.8</ele>
        <time>2022-05-23 11:55:10</time>
      </trkpt>
      <trkpt lat="42.06229" lon="0.73969">
        <ele>1266.6</ele>
        <time>2022-05-23 11:55:11</time>
      </trkpt>
      <trkpt lat="42.06227" lon="0.73972">
        <ele>1266.6</ele>
        <time>2022-05-23 11:55:12</time>
      </trkpt>
      <trkpt lat="42.06225" lon="0.73976">
        <ele>1266.6</ele>
        <time>2022-05-23 11:55:13</time>
      </trkpt>
      <trkpt lat="42.06224" lon="0.73978">
        <ele>1266.6</ele>
        <time>2022-05-23 11:55:14</time>
      </trkpt>
      <trkpt lat="42.06222" lon="0.7398">
        <ele>1266.6</ele>
        <time>2022-05-23 11:55:15</time>
      </trkpt>
      <trkpt lat="42.0622" lon="0.73983">
        <ele>1266.6</ele>
        <time>2022-05-23 11:55:16</time>
      </trkpt>
      <trkpt lat="42.06217" lon="0.73987">
        <ele>1266.6</ele>
        <time>2022-05-23 11:55:17</time>
      </trkpt>
      <trkpt lat="42.06215" lon="0.73991">
        <ele>1266.4</ele>
        <time>2022-05-23 11:55:18</time>
      </trkpt>
      <trkpt lat="42.06213" lon="0.73995">
        <ele>1266.4</ele>
        <time>2022-05-23 11:55:19</time>
      </trkpt>
      <trkpt lat="42.0621" lon="0.73999">
        <ele>1266.4</ele>
        <time>2022-05-23 11:55:20</time>
      </trkpt>
      <trkpt lat="42.06207" lon="0.74004">
        <ele>1266.4</ele>
        <time>2022-05-23 11:55:21</time>
      </trkpt>
      <trkpt lat="42.06205" lon="0.74009">
        <ele>1266.4</ele>
        <time>2022-05-23 11:55:22</time>
      </trkpt>
      <trkpt lat="42.06201" lon="0.74015">
        <ele>1266.6</ele>
        <time>2022-05-23 11:55:23</time>
      </trkpt>
      <trkpt lat="42.06199" lon="0.7402">
        <ele>1266.6</ele>
        <time>2022-05-23 11:55:24</time>
      </trkpt>
      <trkpt lat="42.06196" lon="0.74025">
        <ele>1266.8</ele>
        <time>2022-05-23 11:55:25</time>
      </trkpt>
      <trkpt lat="42.06193" lon="0.74029">
        <ele>1267</ele>
        <time>2022-05-23 11:55:26</time>
      </trkpt>
      <trkpt lat="42.0619" lon="0.74034">
        <ele>1267</ele>
        <time>2022-05-23 11:55:27</time>
      </trkpt>
      <trkpt lat="42.06189" lon="0.74037">
        <ele>1267.2</ele>
        <time>2022-05-23 11:55:28</time>
      </trkpt>
      <trkpt lat="42.06188" lon="0.7404">
        <ele>1267.4</ele>
        <time>2022-05-23 11:55:29</time>
      </trkpt>
      <trkpt lat="42.06186" lon="0.74044">
        <ele>1267.6</ele>
        <time>2022-05-23 11:55:30</time>
      </trkpt>
      <trkpt lat="42.06184" lon="0.74048">
        <ele>1267.8</ele>
        <time>2022-05-23 11:55:31</time>
      </trkpt>
      <trkpt lat="42.06182" lon="0.74051">
        <ele>1268</ele>
        <time>2022-05-23 11:55:32</time>
      </trkpt>
      <trkpt lat="42.06181" lon="0.74053">
        <ele>1268.2</ele>
        <time>2022-05-23 11:55:33</time>
      </trkpt>
      <trkpt lat="42.06179" lon="0.74056">
        <ele>1268.6</ele>
        <time>2022-05-23 11:55:34</time>
      </trkpt>
      <trkpt lat="42.06178" lon="0.74059">
        <ele>1268.8</ele>
        <time>2022-05-23 11:55:35</time>
      </trkpt>
      <trkpt lat="42.06177" lon="0.74061">
        <ele>1269</ele>
        <time>2022-05-23 11:55:36</time>
      </trkpt>
      <trkpt lat="42.06176" lon="0.74063">
        <ele>1269.2</ele>
        <time>2022-05-23 11:55:37</time>
      </trkpt>
      <trkpt lat="42.06174" lon="0.74066">
        <ele>1269.4</ele>
        <time>2022-05-23 11:55:38</time>
      </trkpt>
      <trkpt lat="42.06173" lon="0.74068">
        <ele>1269.4</ele>
        <time>2022-05-23 11:55:39</time>
      </trkpt>
      <trkpt lat="42.06172" lon="0.74071">
        <ele>1269.6</ele>
        <time>2022-05-23 11:55:40</time>
      </trkpt>
      <trkpt lat="42.06171" lon="0.74073">
        <ele>1269.8</ele>
        <time>2022-05-23 11:55:41</time>
      </trkpt>
      <trkpt lat="42.0617" lon="0.74076">
        <ele>1270</ele>
        <time>2022-05-23 11:55:42</time>
      </trkpt>
      <trkpt lat="42.06169" lon="0.74079">
        <ele>1270.2</ele>
        <time>2022-05-23 11:55:43</time>
      </trkpt>
      <trkpt lat="42.06168" lon="0.74081">
        <ele>1270.4</ele>
        <time>2022-05-23 11:55:44</time>
      </trkpt>
      <trkpt lat="42.06167" lon="0.74085">
        <ele>1270.4</ele>
        <time>2022-05-23 11:55:45</time>
      </trkpt>
      <trkpt lat="42.06165" lon="0.74087">
        <ele>1270.6</ele>
        <time>2022-05-23 11:55:46</time>
      </trkpt>
      <trkpt lat="42.06164" lon="0.7409">
        <ele>1270.8</ele>
        <time>2022-05-23 11:55:47</time>
      </trkpt>
      <trkpt lat="42.06163" lon="0.74092">
        <ele>1271</ele>
        <time>2022-05-23 11:55:48</time>
      </trkpt>
      <trkpt lat="42.06161" lon="0.74094">
        <ele>1271.2</ele>
        <time>2022-05-23 11:55:49</time>
      </trkpt>
      <trkpt lat="42.06159" lon="0.74097">
        <ele>1271.4</ele>
        <time>2022-05-23 11:55:50</time>
      </trkpt>
      <trkpt lat="42.06157" lon="0.74099">
        <ele>1271.6</ele>
        <time>2022-05-23 11:55:51</time>
      </trkpt>
      <trkpt lat="42.06156" lon="0.74101">
        <ele>1271.8</ele>
        <time>2022-05-23 11:55:52</time>
      </trkpt>
      <trkpt lat="42.06155" lon="0.74103">
        <ele>1272</ele>
        <time>2022-05-23 11:55:53</time>
      </trkpt>
      <trkpt lat="42.06154" lon="0.74104">
        <ele>1272.2</ele>
        <time>2022-05-23 11:55:54</time>
      </trkpt>
      <trkpt lat="42.06152" lon="0.74106">
        <ele>1272.2</ele>
        <time>2022-05-23 11:55:55</time>
      </trkpt>
      <trkpt lat="42.06151" lon="0.74107">
        <ele>1272.4</ele>
        <time>2022-05-23 11:55:56</time>
      </trkpt>
      <trkpt lat="42.06149" lon="0.74109">
        <ele>1272.6</ele>
        <time>2022-05-23 11:55:57</time>
      </trkpt>
      <trkpt lat="42.06147" lon="0.7411">
        <ele>1272.8</ele>
        <time>2022-05-23 11:55:58</time>
      </trkpt>
      <trkpt lat="42.06146" lon="0.74112">
        <ele>1273</ele>
        <time>2022-05-23 11:55:59</time>
      </trkpt>
      <trkpt lat="42.06144" lon="0.74113">
        <ele>1273.2</ele>
        <time>2022-05-23 11:56:00</time>
      </trkpt>
      <trkpt lat="42.06143" lon="0.74115">
        <ele>1273.2</ele>
        <time>2022-05-23 11:56:01</time>
      </trkpt>
      <trkpt lat="42.06141" lon="0.74117">
        <ele>1273.4</ele>
        <time>2022-05-23 11:56:02</time>
      </trkpt>
      <trkpt lat="42.06139" lon="0.74119">
        <ele>1273.6</ele>
        <time>2022-05-23 11:56:03</time>
      </trkpt>
      <trkpt lat="42.06138" lon="0.74121">
        <ele>1273.8</ele>
        <time>2022-05-23 11:56:04</time>
      </trkpt>
      <trkpt lat="42.06136" lon="0.74123">
        <ele>1273.8</ele>
        <time>2022-05-23 11:56:05</time>
      </trkpt>
      <trkpt lat="42.06134" lon="0.74124">
        <ele>1274</ele>
        <time>2022-05-23 11:56:06</time>
      </trkpt>
      <trkpt lat="42.06132" lon="0.74127">
        <ele>1274</ele>
        <time>2022-05-23 11:56:07</time>
      </trkpt>
      <trkpt lat="42.06131" lon="0.74129">
        <ele>1274.2</ele>
        <time>2022-05-23 11:56:08</time>
      </trkpt>
      <trkpt lat="42.0613" lon="0.74131">
        <ele>1274.2</ele>
        <time>2022-05-23 11:56:09</time>
      </trkpt>
      <trkpt lat="42.06128" lon="0.74133">
        <ele>1274.4</ele>
        <time>2022-05-23 11:56:10</time>
      </trkpt>
      <trkpt lat="42.06126" lon="0.74135">
        <ele>1274.4</ele>
        <time>2022-05-23 11:56:11</time>
      </trkpt>
      <trkpt lat="42.06125" lon="0.74137">
        <ele>1274.6</ele>
        <time>2022-05-23 11:56:12</time>
      </trkpt>
      <trkpt lat="42.06123" lon="0.74139">
        <ele>1274.8</ele>
        <time>2022-05-23 11:56:13</time>
      </trkpt>
      <trkpt lat="42.06122" lon="0.7414">
        <ele>1274.8</ele>
        <time>2022-05-23 11:56:14</time>
      </trkpt>
      <trkpt lat="42.0612" lon="0.74142">
        <ele>1275</ele>
        <time>2022-05-23 11:56:15</time>
      </trkpt>
      <trkpt lat="42.06118" lon="0.74144">
        <ele>1275</ele>
        <time>2022-05-23 11:56:16</time>
      </trkpt>
      <trkpt lat="42.06116" lon="0.74145">
        <ele>1275.2</ele>
        <time>2022-05-23 11:56:17</time>
      </trkpt>
      <trkpt lat="42.06114" lon="0.74146">
        <ele>1275.4</ele>
        <time>2022-05-23 11:56:18</time>
      </trkpt>
      <trkpt lat="42.06112" lon="0.74147">
        <ele>1275.6</ele>
        <time>2022-05-23 11:56:19</time>
      </trkpt>
      <trkpt lat="42.0611" lon="0.74149">
        <ele>1275.8</ele>
        <time>2022-05-23 11:56:20</time>
      </trkpt>
      <trkpt lat="42.06108" lon="0.7415">
        <ele>1276</ele>
        <time>2022-05-23 11:56:21</time>
      </trkpt>
      <trkpt lat="42.06106" lon="0.74152">
        <ele>1276</ele>
        <time>2022-05-23 11:56:22</time>
      </trkpt>
      <trkpt lat="42.06105" lon="0.74153">
        <ele>1276.2</ele>
        <time>2022-05-23 11:56:23</time>
      </trkpt>
      <trkpt lat="42.06103" lon="0.74155">
        <ele>1276.4</ele>
        <time>2022-05-23 11:56:24</time>
      </trkpt>
      <trkpt lat="42.06101" lon="0.74156">
        <ele>1276.6</ele>
        <time>2022-05-23 11:56:25</time>
      </trkpt>
      <trkpt lat="42.06099" lon="0.74158">
        <ele>1276.8</ele>
        <time>2022-05-23 11:56:26</time>
      </trkpt>
      <trkpt lat="42.06098" lon="0.7416">
        <ele>1276.8</ele>
        <time>2022-05-23 11:56:27</time>
      </trkpt>
      <trkpt lat="42.06096" lon="0.74162">
        <ele>1277</ele>
        <time>2022-05-23 11:56:28</time>
      </trkpt>
      <trkpt lat="42.06095" lon="0.74164">
        <ele>1277.2</ele>
        <time>2022-05-23 11:56:29</time>
      </trkpt>
      <trkpt lat="42.06093" lon="0.74166">
        <ele>1277.4</ele>
        <time>2022-05-23 11:56:30</time>
      </trkpt>
      <trkpt lat="42.06092" lon="0.74169">
        <ele>1277.6</ele>
        <time>2022-05-23 11:56:31</time>
      </trkpt>
      <trkpt lat="42.06092" lon="0.74172">
        <ele>1277.6</ele>
        <time>2022-05-23 11:56:32</time>
      </trkpt>
      <trkpt lat="42.06092" lon="0.74176">
        <ele>1277.8</ele>
        <time>2022-05-23 11:56:33</time>
      </trkpt>
      <trkpt lat="42.06092" lon="0.74178">
        <ele>1278</ele>
        <time>2022-05-23 11:56:34</time>
      </trkpt>
      <trkpt lat="42.06093" lon="0.74182">
        <ele>1278.2</ele>
        <time>2022-05-23 11:56:35</time>
      </trkpt>
      <trkpt lat="42.06094" lon="0.74185">
        <ele>1278.4</ele>
        <time>2022-05-23 11:56:36</time>
      </trkpt>
      <trkpt lat="42.06095" lon="0.74187">
        <ele>1278.6</ele>
        <time>2022-05-23 11:56:37</time>
      </trkpt>
      <trkpt lat="42.06095" lon="0.7419">
        <ele>1278.6</ele>
        <time>2022-05-23 11:56:38</time>
      </trkpt>
      <trkpt lat="42.06096" lon="0.74192">
        <ele>1278.8</ele>
        <time>2022-05-23 11:56:39</time>
      </trkpt>
      <trkpt lat="42.06098" lon="0.74195">
        <ele>1278.8</ele>
        <time>2022-05-23 11:56:40</time>
      </trkpt>
      <trkpt lat="42.06099" lon="0.74198">
        <ele>1279</ele>
        <time>2022-05-23 11:56:41</time>
      </trkpt>
      <trkpt lat="42.06099" lon="0.74201">
        <ele>1279.2</ele>
        <time>2022-05-23 11:56:42</time>
      </trkpt>
      <trkpt lat="42.06099" lon="0.74204">
        <ele>1279.2</ele>
        <time>2022-05-23 11:56:43</time>
      </trkpt>
      <trkpt lat="42.06099" lon="0.74207">
        <ele>1279.4</ele>
        <time>2022-05-23 11:56:44</time>
      </trkpt>
      <trkpt lat="42.06099" lon="0.74209">
        <ele>1279.4</ele>
        <time>2022-05-23 11:56:45</time>
      </trkpt>
      <trkpt lat="42.06099" lon="0.74212">
        <ele>1279.6</ele>
        <time>2022-05-23 11:56:46</time>
      </trkpt>
      <trkpt lat="42.06098" lon="0.74215">
        <ele>1279.6</ele>
        <time>2022-05-23 11:56:47</time>
      </trkpt>
      <trkpt lat="42.06098" lon="0.74217">
        <ele>1279.8</ele>
        <time>2022-05-23 11:56:48</time>
      </trkpt>
      <trkpt lat="42.06097" lon="0.7422">
        <ele>1279.8</ele>
        <time>2022-05-23 11:56:49</time>
      </trkpt>
      <trkpt lat="42.06096" lon="0.74222">
        <ele>1280</ele>
        <time>2022-05-23 11:56:50</time>
      </trkpt>
      <trkpt lat="42.06096" lon="0.74225">
        <ele>1280</ele>
        <time>2022-05-23 11:56:51</time>
      </trkpt>
      <trkpt lat="42.06095" lon="0.74227">
        <ele>1280.2</ele>
        <time>2022-05-23 11:56:52</time>
      </trkpt>
      <trkpt lat="42.06094" lon="0.74229">
        <ele>1280.2</ele>
        <time>2022-05-23 11:56:53</time>
      </trkpt>
      <trkpt lat="42.06094" lon="0.74232">
        <ele>1280.4</ele>
        <time>2022-05-23 11:56:54</time>
      </trkpt>
      <trkpt lat="42.06093" lon="0.74234">
        <ele>1280.6</ele>
        <time>2022-05-23 11:56:55</time>
      </trkpt>
      <trkpt lat="42.06092" lon="0.74237">
        <ele>1280.6</ele>
        <time>2022-05-23 11:56:56</time>
      </trkpt>
      <trkpt lat="42.06092" lon="0.7424">
        <ele>1280.8</ele>
        <time>2022-05-23 11:56:57</time>
      </trkpt>
      <trkpt lat="42.06091" lon="0.74242">
        <ele>1281</ele>
        <time>2022-05-23 11:56:58</time>
      </trkpt>
      <trkpt lat="42.0609" lon="0.74244">
        <ele>1281.2</ele>
        <time>2022-05-23 11:56:59</time>
      </trkpt>
      <trkpt lat="42.06089" lon="0.74246">
        <ele>1281.4</ele>
        <time>2022-05-23 11:57:00</time>
      </trkpt>
      <trkpt lat="42.06088" lon="0.74247">
        <ele>1281.6</ele>
        <time>2022-05-23 11:57:01</time>
      </trkpt>
      <trkpt lat="42.06087" lon="0.7425">
        <ele>1281.6</ele>
        <time>2022-05-23 11:57:02</time>
      </trkpt>
      <trkpt lat="42.06086" lon="0.74252">
        <ele>1281.8</ele>
        <time>2022-05-23 11:57:03</time>
      </trkpt>
      <trkpt lat="42.06086" lon="0.74254">
        <ele>1282</ele>
        <time>2022-05-23 11:57:04</time>
      </trkpt>
      <trkpt lat="42.06085" lon="0.74257">
        <ele>1282.2</ele>
        <time>2022-05-23 11:57:05</time>
      </trkpt>
      <trkpt lat="42.06085" lon="0.74259">
        <ele>1282.2</ele>
        <time>2022-05-23 11:57:06</time>
      </trkpt>
      <trkpt lat="42.06084" lon="0.74261">
        <ele>1282.4</ele>
        <time>2022-05-23 11:57:07</time>
      </trkpt>
      <trkpt lat="42.06084" lon="0.74264">
        <ele>1282.6</ele>
        <time>2022-05-23 11:57:08</time>
      </trkpt>
      <trkpt lat="42.06083" lon="0.74266">
        <ele>1282.6</ele>
        <time>2022-05-23 11:57:09</time>
      </trkpt>
      <trkpt lat="42.06083" lon="0.74269">
        <ele>1282.8</ele>
        <time>2022-05-23 11:57:10</time>
      </trkpt>
      <trkpt lat="42.06082" lon="0.74272">
        <ele>1283</ele>
        <time>2022-05-23 11:57:11</time>
      </trkpt>
      <trkpt lat="42.06081" lon="0.74274">
        <ele>1283.2</ele>
        <time>2022-05-23 11:57:12</time>
      </trkpt>
      <trkpt lat="42.06081" lon="0.74277">
        <ele>1283.2</ele>
        <time>2022-05-23 11:57:13</time>
      </trkpt>
      <trkpt lat="42.0608" lon="0.74279">
        <ele>1283.4</ele>
        <time>2022-05-23 11:57:14</time>
      </trkpt>
      <trkpt lat="42.06079" lon="0.74282">
        <ele>1283.6</ele>
        <time>2022-05-23 11:57:15</time>
      </trkpt>
      <trkpt lat="42.06079" lon="0.74284">
        <ele>1283.6</ele>
        <time>2022-05-23 11:57:16</time>
      </trkpt>
      <trkpt lat="42.06079" lon="0.74288">
        <ele>1283.6</ele>
        <time>2022-05-23 11:57:17</time>
      </trkpt>
      <trkpt lat="42.06078" lon="0.7429">
        <ele>1283.8</ele>
        <time>2022-05-23 11:57:18</time>
      </trkpt>
      <trkpt lat="42.06078" lon="0.74293">
        <ele>1283.8</ele>
        <time>2022-05-23 11:57:19</time>
      </trkpt>
      <trkpt lat="42.06078" lon="0.74295">
        <ele>1283.8</ele>
        <time>2022-05-23 11:57:20</time>
      </trkpt>
      <trkpt lat="42.06077" lon="0.74298">
        <ele>1284</ele>
        <time>2022-05-23 11:57:21</time>
      </trkpt>
      <trkpt lat="42.06076" lon="0.743">
        <ele>1284</ele>
        <time>2022-05-23 11:57:22</time>
      </trkpt>
      <trkpt lat="42.06075" lon="0.74302">
        <ele>1284.2</ele>
        <time>2022-05-23 11:57:23</time>
      </trkpt>
      <trkpt lat="42.06075" lon="0.74304">
        <ele>1284.2</ele>
        <time>2022-05-23 11:57:24</time>
      </trkpt>
      <trkpt lat="42.06075" lon="0.74307">
        <ele>1284.2</ele>
        <time>2022-05-23 11:57:25</time>
      </trkpt>
      <trkpt lat="42.06074" lon="0.7431">
        <ele>1284.4</ele>
        <time>2022-05-23 11:57:26</time>
      </trkpt>
      <trkpt lat="42.06074" lon="0.74312">
        <ele>1284.4</ele>
        <time>2022-05-23 11:57:27</time>
      </trkpt>
      <trkpt lat="42.06073" lon="0.74315">
        <ele>1284.6</ele>
        <time>2022-05-23 11:57:28</time>
      </trkpt>
      <trkpt lat="42.06072" lon="0.74317">
        <ele>1284.8</ele>
        <time>2022-05-23 11:57:29</time>
      </trkpt>
      <trkpt lat="42.06071" lon="0.7432">
        <ele>1284.8</ele>
        <time>2022-05-23 11:57:30</time>
      </trkpt>
      <trkpt lat="42.06071" lon="0.74323">
        <ele>1285</ele>
        <time>2022-05-23 11:57:31</time>
      </trkpt>
      <trkpt lat="42.06071" lon="0.74326">
        <ele>1285</ele>
        <time>2022-05-23 11:57:32</time>
      </trkpt>
      <trkpt lat="42.0607" lon="0.7433">
        <ele>1285.2</ele>
        <time>2022-05-23 11:57:33</time>
      </trkpt>
      <trkpt lat="42.0607" lon="0.74333">
        <ele>1285.4</ele>
        <time>2022-05-23 11:57:34</time>
      </trkpt>
      <trkpt lat="42.0607" lon="0.74337">
        <ele>1285.4</ele>
        <time>2022-05-23 11:57:35</time>
      </trkpt>
      <trkpt lat="42.0607" lon="0.74339">
        <ele>1285.6</ele>
        <time>2022-05-23 11:57:36</time>
      </trkpt>
      <trkpt lat="42.0607" lon="0.74343">
        <ele>1285.8</ele>
        <time>2022-05-23 11:57:37</time>
      </trkpt>
      <trkpt lat="42.0607" lon="0.74345">
        <ele>1286</ele>
        <time>2022-05-23 11:57:38</time>
      </trkpt>
      <trkpt lat="42.06069" lon="0.74349">
        <ele>1286</ele>
        <time>2022-05-23 11:57:39</time>
      </trkpt>
      <trkpt lat="42.06069" lon="0.74351">
        <ele>1286.2</ele>
        <time>2022-05-23 11:57:40</time>
      </trkpt>
      <trkpt lat="42.06069" lon="0.74354">
        <ele>1286.4</ele>
        <time>2022-05-23 11:57:41</time>
      </trkpt>
      <trkpt lat="42.06069" lon="0.74357">
        <ele>1286.4</ele>
        <time>2022-05-23 11:57:42</time>
      </trkpt>
      <trkpt lat="42.06069" lon="0.7436">
        <ele>1286.6</ele>
        <time>2022-05-23 11:57:43</time>
      </trkpt>
      <trkpt lat="42.06069" lon="0.74363">
        <ele>1287</ele>
        <time>2022-05-23 11:57:44</time>
      </trkpt>
      <trkpt lat="42.06069" lon="0.74366">
        <ele>1287</ele>
        <time>2022-05-23 11:57:45</time>
      </trkpt>
      <trkpt lat="42.06069" lon="0.74369">
        <ele>1287.2</ele>
        <time>2022-05-23 11:57:46</time>
      </trkpt>
      <trkpt lat="42.06069" lon="0.74372">
        <ele>1287.4</ele>
        <time>2022-05-23 11:57:47</time>
      </trkpt>
      <trkpt lat="42.06069" lon="0.74376">
        <ele>1287.6</ele>
        <time>2022-05-23 11:57:48</time>
      </trkpt>
      <trkpt lat="42.0607" lon="0.74379">
        <ele>1287.6</ele>
        <time>2022-05-23 11:57:49</time>
      </trkpt>
      <trkpt lat="42.0607" lon="0.74382">
        <ele>1287.8</ele>
        <time>2022-05-23 11:57:50</time>
      </trkpt>
      <trkpt lat="42.06071" lon="0.74386">
        <ele>1288</ele>
        <time>2022-05-23 11:57:51</time>
      </trkpt>
      <trkpt lat="42.06072" lon="0.74389">
        <ele>1288</ele>
        <time>2022-05-23 11:57:52</time>
      </trkpt>
      <trkpt lat="42.06073" lon="0.74393">
        <ele>1288.2</ele>
        <time>2022-05-23 11:57:53</time>
      </trkpt>
      <trkpt lat="42.06074" lon="0.74396">
        <ele>1288.4</ele>
        <time>2022-05-23 11:57:54</time>
      </trkpt>
      <trkpt lat="42.06075" lon="0.74399">
        <ele>1288.6</ele>
        <time>2022-05-23 11:57:55</time>
      </trkpt>
      <trkpt lat="42.06076" lon="0.74402">
        <ele>1288.8</ele>
        <time>2022-05-23 11:57:56</time>
      </trkpt>
      <trkpt lat="42.06077" lon="0.74405">
        <ele>1289</ele>
        <time>2022-05-23 11:57:57</time>
      </trkpt>
      <trkpt lat="42.06078" lon="0.74407">
        <ele>1289.2</ele>
        <time>2022-05-23 11:57:58</time>
      </trkpt>
      <trkpt lat="42.06078" lon="0.7441">
        <ele>1289.2</ele>
        <time>2022-05-23 11:57:59</time>
      </trkpt>
      <trkpt lat="42.06079" lon="0.74412">
        <ele>1289.4</ele>
        <time>2022-05-23 11:58:00</time>
      </trkpt>
      <trkpt lat="42.0608" lon="0.74414">
        <ele>1289.6</ele>
        <time>2022-05-23 11:58:01</time>
      </trkpt>
      <trkpt lat="42.06081" lon="0.74416">
        <ele>1289.8</ele>
        <time>2022-05-23 11:58:02</time>
      </trkpt>
      <trkpt lat="42.06081" lon="0.74419">
        <ele>1290</ele>
        <time>2022-05-23 11:58:03</time>
      </trkpt>
      <trkpt lat="42.06082" lon="0.74421">
        <ele>1290</ele>
        <time>2022-05-23 11:58:04</time>
      </trkpt>
      <trkpt lat="42.06083" lon="0.74424">
        <ele>1290.2</ele>
        <time>2022-05-23 11:58:05</time>
      </trkpt>
      <trkpt lat="42.06084" lon="0.74426">
        <ele>1290.4</ele>
        <time>2022-05-23 11:58:06</time>
      </trkpt>
      <trkpt lat="42.06085" lon="0.74428">
        <ele>1290.6</ele>
        <time>2022-05-23 11:58:07</time>
      </trkpt>
      <trkpt lat="42.06086" lon="0.7443">
        <ele>1290.6</ele>
        <time>2022-05-23 11:58:08</time>
      </trkpt>
      <trkpt lat="42.06086" lon="0.74433">
        <ele>1290.8</ele>
        <time>2022-05-23 11:58:09</time>
      </trkpt>
      <trkpt lat="42.06088" lon="0.74435">
        <ele>1291</ele>
        <time>2022-05-23 11:58:10</time>
      </trkpt>
      <trkpt lat="42.06088" lon="0.74438">
        <ele>1291.2</ele>
        <time>2022-05-23 11:58:11</time>
      </trkpt>
      <trkpt lat="42.06089" lon="0.7444">
        <ele>1291.2</ele>
        <time>2022-05-23 11:58:12</time>
      </trkpt>
      <trkpt lat="42.0609" lon="0.74443">
        <ele>1291.4</ele>
        <time>2022-05-23 11:58:13</time>
      </trkpt>
      <trkpt lat="42.0609" lon="0.74445">
        <ele>1291.4</ele>
        <time>2022-05-23 11:58:14</time>
      </trkpt>
      <trkpt lat="42.06091" lon="0.74447">
        <ele>1291.6</ele>
        <time>2022-05-23 11:58:15</time>
      </trkpt>
      <trkpt lat="42.06091" lon="0.7445">
        <ele>1291.8</ele>
        <time>2022-05-23 11:58:16</time>
      </trkpt>
      <trkpt lat="42.06091" lon="0.74452">
        <ele>1291.8</ele>
        <time>2022-05-23 11:58:17</time>
      </trkpt>
      <trkpt lat="42.06092" lon="0.74454">
        <ele>1292</ele>
        <time>2022-05-23 11:58:18</time>
      </trkpt>
      <trkpt lat="42.06092" lon="0.74457">
        <ele>1292.2</ele>
        <time>2022-05-23 11:58:19</time>
      </trkpt>
      <trkpt lat="42.06092" lon="0.74459">
        <ele>1292.2</ele>
        <time>2022-05-23 11:58:20</time>
      </trkpt>
      <trkpt lat="42.06093" lon="0.74462">
        <ele>1292.4</ele>
        <time>2022-05-23 11:58:21</time>
      </trkpt>
      <trkpt lat="42.06093" lon="0.74464">
        <ele>1292.4</ele>
        <time>2022-05-23 11:58:22</time>
      </trkpt>
      <trkpt lat="42.06094" lon="0.74466">
        <ele>1292.6</ele>
        <time>2022-05-23 11:58:23</time>
      </trkpt>
      <trkpt lat="42.06094" lon="0.74468">
        <ele>1292.8</ele>
        <time>2022-05-23 11:58:24</time>
      </trkpt>
      <trkpt lat="42.06094" lon="0.74471">
        <ele>1292.8</ele>
        <time>2022-05-23 11:58:25</time>
      </trkpt>
      <trkpt lat="42.06095" lon="0.74472">
        <ele>1293</ele>
        <time>2022-05-23 11:58:26</time>
      </trkpt>
      <trkpt lat="42.06096" lon="0.74475">
        <ele>1293.2</ele>
        <time>2022-05-23 11:58:27</time>
      </trkpt>
      <trkpt lat="42.06096" lon="0.74477">
        <ele>1293.4</ele>
        <time>2022-05-23 11:58:28</time>
      </trkpt>
      <trkpt lat="42.06096" lon="0.74479">
        <ele>1293.4</ele>
        <time>2022-05-23 11:58:29</time>
      </trkpt>
      <trkpt lat="42.06096" lon="0.74482">
        <ele>1293.6</ele>
        <time>2022-05-23 11:58:30</time>
      </trkpt>
      <trkpt lat="42.06097" lon="0.74484">
        <ele>1293.8</ele>
        <time>2022-05-23 11:58:31</time>
      </trkpt>
      <trkpt lat="42.06097" lon="0.74486">
        <ele>1294</ele>
        <time>2022-05-23 11:58:32</time>
      </trkpt>
      <trkpt lat="42.06097" lon="0.74488">
        <ele>1294</ele>
        <time>2022-05-23 11:58:33</time>
      </trkpt>
      <trkpt lat="42.06098" lon="0.7449">
        <ele>1294.2</ele>
        <time>2022-05-23 11:58:34</time>
      </trkpt>
      <trkpt lat="42.06098" lon="0.74492">
        <ele>1294.4</ele>
        <time>2022-05-23 11:58:35</time>
      </trkpt>
      <trkpt lat="42.06098" lon="0.74494">
        <ele>1294.6</ele>
        <time>2022-05-23 11:58:36</time>
      </trkpt>
      <trkpt lat="42.06099" lon="0.74496">
        <ele>1294.6</ele>
        <time>2022-05-23 11:58:37</time>
      </trkpt>
      <trkpt lat="42.06099" lon="0.74498">
        <ele>1294.8</ele>
        <time>2022-05-23 11:58:38</time>
      </trkpt>
      <trkpt lat="42.061" lon="0.745">
        <ele>1295</ele>
        <time>2022-05-23 11:58:39</time>
      </trkpt>
      <trkpt lat="42.061" lon="0.74503">
        <ele>1295</ele>
        <time>2022-05-23 11:58:40</time>
      </trkpt>
      <trkpt lat="42.061" lon="0.74505">
        <ele>1295.2</ele>
        <time>2022-05-23 11:58:41</time>
      </trkpt>
      <trkpt lat="42.06101" lon="0.74507">
        <ele>1295.4</ele>
        <time>2022-05-23 11:58:42</time>
      </trkpt>
      <trkpt lat="42.06101" lon="0.74509">
        <ele>1295.6</ele>
        <time>2022-05-23 11:58:43</time>
      </trkpt>
      <trkpt lat="42.06102" lon="0.74511">
        <ele>1295.6</ele>
        <time>2022-05-23 11:58:44</time>
      </trkpt>
      <trkpt lat="42.06102" lon="0.74514">
        <ele>1295.8</ele>
        <time>2022-05-23 11:58:45</time>
      </trkpt>
      <trkpt lat="42.06102" lon="0.74516">
        <ele>1296</ele>
        <time>2022-05-23 11:58:46</time>
      </trkpt>
      <trkpt lat="42.06103" lon="0.74518">
        <ele>1296</ele>
        <time>2022-05-23 11:58:47</time>
      </trkpt>
      <trkpt lat="42.06103" lon="0.7452">
        <ele>1296.2</ele>
        <time>2022-05-23 11:58:48</time>
      </trkpt>
      <trkpt lat="42.06103" lon="0.74521">
        <ele>1296.2</ele>
        <time>2022-05-23 11:58:49</time>
      </trkpt>
      <trkpt lat="42.06103" lon="0.74523">
        <ele>1296.4</ele>
        <time>2022-05-23 11:58:50</time>
      </trkpt>
      <trkpt lat="42.06103" lon="0.74525">
        <ele>1296.6</ele>
        <time>2022-05-23 11:58:51</time>
      </trkpt>
      <trkpt lat="42.06103" lon="0.74526">
        <ele>1296.6</ele>
        <time>2022-05-23 11:58:52</time>
      </trkpt>
      <trkpt lat="42.06102" lon="0.74528">
        <ele>1296.8</ele>
        <time>2022-05-23 11:58:53</time>
      </trkpt>
      <trkpt lat="42.06102" lon="0.74529">
        <ele>1297</ele>
        <time>2022-05-23 11:58:54</time>
      </trkpt>
      <trkpt lat="42.06102" lon="0.7453">
        <ele>1297.2</ele>
        <time>2022-05-23 11:58:55</time>
      </trkpt>
      <trkpt lat="42.06102" lon="0.7453">
        <ele>1297.2</ele>
        <time>2022-05-23 11:58:56</time>
      </trkpt>
      <trkpt lat="42.06102" lon="0.74533">
        <ele>1297.4</ele>
        <time>2022-05-23 11:58:57</time>
      </trkpt>
      <trkpt lat="42.06101" lon="0.74536">
        <ele>1297.6</ele>
        <time>2022-05-23 11:58:58</time>
      </trkpt>
      <trkpt lat="42.06101" lon="0.74537">
        <ele>1297.6</ele>
        <time>2022-05-23 11:58:59</time>
      </trkpt>
      <trkpt lat="42.06101" lon="0.7454">
        <ele>1297.8</ele>
        <time>2022-05-23 11:59:00</time>
      </trkpt>
      <trkpt lat="42.061" lon="0.74541">
        <ele>1297.8</ele>
        <time>2022-05-23 11:59:01</time>
      </trkpt>
      <trkpt lat="42.061" lon="0.74543">
        <ele>1298</ele>
        <time>2022-05-23 11:59:02</time>
      </trkpt>
      <trkpt lat="42.061" lon="0.74545">
        <ele>1298.2</ele>
        <time>2022-05-23 11:59:03</time>
      </trkpt>
      <trkpt lat="42.06099" lon="0.74546">
        <ele>1298.2</ele>
        <time>2022-05-23 11:59:04</time>
      </trkpt>
      <trkpt lat="42.06099" lon="0.74548">
        <ele>1298.4</ele>
        <time>2022-05-23 11:59:05</time>
      </trkpt>
      <trkpt lat="42.06098" lon="0.7455">
        <ele>1298.6</ele>
        <time>2022-05-23 11:59:06</time>
      </trkpt>
      <trkpt lat="42.06099" lon="0.74552">
        <ele>1298.6</ele>
        <time>2022-05-23 11:59:07</time>
      </trkpt>
      <trkpt lat="42.06099" lon="0.74555">
        <ele>1298.8</ele>
        <time>2022-05-23 11:59:08</time>
      </trkpt>
      <trkpt lat="42.06099" lon="0.74557">
        <ele>1299</ele>
        <time>2022-05-23 11:59:09</time>
      </trkpt>
      <trkpt lat="42.06098" lon="0.7456">
        <ele>1299</ele>
        <time>2022-05-23 11:59:10</time>
      </trkpt>
      <trkpt lat="42.06098" lon="0.74562">
        <ele>1299.2</ele>
        <time>2022-05-23 11:59:11</time>
      </trkpt>
      <trkpt lat="42.06099" lon="0.74564">
        <ele>1299.2</ele>
        <time>2022-05-23 11:59:12</time>
      </trkpt>
      <trkpt lat="42.06099" lon="0.74567">
        <ele>1299.4</ele>
        <time>2022-05-23 11:59:13</time>
      </trkpt>
      <trkpt lat="42.06099" lon="0.7457">
        <ele>1299.4</ele>
        <time>2022-05-23 11:59:14</time>
      </trkpt>
      <trkpt lat="42.06099" lon="0.74573">
        <ele>1299.6</ele>
        <time>2022-05-23 11:59:15</time>
      </trkpt>
      <trkpt lat="42.06098" lon="0.74576">
        <ele>1299.8</ele>
        <time>2022-05-23 11:59:16</time>
      </trkpt>
      <trkpt lat="42.06098" lon="0.74578">
        <ele>1299.8</ele>
        <time>2022-05-23 11:59:17</time>
      </trkpt>
      <trkpt lat="42.06097" lon="0.74581">
        <ele>1300</ele>
        <time>2022-05-23 11:59:18</time>
      </trkpt>
      <trkpt lat="42.06097" lon="0.74583">
        <ele>1300.2</ele>
        <time>2022-05-23 11:59:19</time>
      </trkpt>
      <trkpt lat="42.06097" lon="0.74586">
        <ele>1300.2</ele>
        <time>2022-05-23 11:59:20</time>
      </trkpt>
      <trkpt lat="42.06097" lon="0.74588">
        <ele>1300.4</ele>
        <time>2022-05-23 11:59:21</time>
      </trkpt>
      <trkpt lat="42.06097" lon="0.7459">
        <ele>1300.4</ele>
        <time>2022-05-23 11:59:22</time>
      </trkpt>
      <trkpt lat="42.06096" lon="0.74592">
        <ele>1300.6</ele>
        <time>2022-05-23 11:59:23</time>
      </trkpt>
      <trkpt lat="42.06097" lon="0.74594">
        <ele>1300.6</ele>
        <time>2022-05-23 11:59:24</time>
      </trkpt>
      <trkpt lat="42.06097" lon="0.74596">
        <ele>1300.8</ele>
        <time>2022-05-23 11:59:25</time>
      </trkpt>
      <trkpt lat="42.06097" lon="0.74599">
        <ele>1300.8</ele>
        <time>2022-05-23 11:59:26</time>
      </trkpt>
      <trkpt lat="42.06097" lon="0.74601">
        <ele>1301</ele>
        <time>2022-05-23 11:59:27</time>
      </trkpt>
      <trkpt lat="42.06097" lon="0.74602">
        <ele>1301</ele>
        <time>2022-05-23 11:59:28</time>
      </trkpt>
      <trkpt lat="42.06097" lon="0.74604">
        <ele>1301.2</ele>
        <time>2022-05-23 11:59:29</time>
      </trkpt>
      <trkpt lat="42.06097" lon="0.74607">
        <ele>1301.4</ele>
        <time>2022-05-23 11:59:30</time>
      </trkpt>
      <trkpt lat="42.06097" lon="0.74609">
        <ele>1301.4</ele>
        <time>2022-05-23 11:59:31</time>
      </trkpt>
      <trkpt lat="42.06097" lon="0.74611">
        <ele>1301.6</ele>
        <time>2022-05-23 11:59:32</time>
      </trkpt>
      <trkpt lat="42.06097" lon="0.74613">
        <ele>1301.6</ele>
        <time>2022-05-23 11:59:33</time>
      </trkpt>
      <trkpt lat="42.06097" lon="0.74615">
        <ele>1301.8</ele>
        <time>2022-05-23 11:59:34</time>
      </trkpt>
      <trkpt lat="42.06096" lon="0.74618">
        <ele>1301.8</ele>
        <time>2022-05-23 11:59:35</time>
      </trkpt>
      <trkpt lat="42.06096" lon="0.74621">
        <ele>1302</ele>
        <time>2022-05-23 11:59:36</time>
      </trkpt>
      <trkpt lat="42.06095" lon="0.74624">
        <ele>1302</ele>
        <time>2022-05-23 11:59:37</time>
      </trkpt>
      <trkpt lat="42.06095" lon="0.74627">
        <ele>1302.2</ele>
        <time>2022-05-23 11:59:38</time>
      </trkpt>
      <trkpt lat="42.06095" lon="0.7463">
        <ele>1302.2</ele>
        <time>2022-05-23 11:59:39</time>
      </trkpt>
      <trkpt lat="42.06094" lon="0.74632">
        <ele>1302.4</ele>
        <time>2022-05-23 11:59:40</time>
      </trkpt>
      <trkpt lat="42.06094" lon="0.74634">
        <ele>1302.6</ele>
        <time>2022-05-23 11:59:41</time>
      </trkpt>
      <trkpt lat="42.06094" lon="0.74637">
        <ele>1302.6</ele>
        <time>2022-05-23 11:59:42</time>
      </trkpt>
      <trkpt lat="42.06093" lon="0.74639">
        <ele>1302.8</ele>
        <time>2022-05-23 11:59:43</time>
      </trkpt>
      <trkpt lat="42.06093" lon="0.74641">
        <ele>1303</ele>
        <time>2022-05-23 11:59:44</time>
      </trkpt>
      <trkpt lat="42.06092" lon="0.74643">
        <ele>1303</ele>
        <time>2022-05-23 11:59:45</time>
      </trkpt>
      <trkpt lat="42.06092" lon="0.74645">
        <ele>1303.2</ele>
        <time>2022-05-23 11:59:46</time>
      </trkpt>
      <trkpt lat="42.06091" lon="0.74648">
        <ele>1303.2</ele>
        <time>2022-05-23 11:59:47</time>
      </trkpt>
      <trkpt lat="42.0609" lon="0.7465">
        <ele>1303.4</ele>
        <time>2022-05-23 11:59:48</time>
      </trkpt>
      <trkpt lat="42.06089" lon="0.74653">
        <ele>1303.6</ele>
        <time>2022-05-23 11:59:49</time>
      </trkpt>
      <trkpt lat="42.06089" lon="0.74655">
        <ele>1303.6</ele>
        <time>2022-05-23 11:59:50</time>
      </trkpt>
      <trkpt lat="42.06088" lon="0.74657">
        <ele>1303.8</ele>
        <time>2022-05-23 11:59:51</time>
      </trkpt>
      <trkpt lat="42.06088" lon="0.7466">
        <ele>1303.8</ele>
        <time>2022-05-23 11:59:52</time>
      </trkpt>
      <trkpt lat="42.06087" lon="0.74662">
        <ele>1304</ele>
        <time>2022-05-23 11:59:53</time>
      </trkpt>
      <trkpt lat="42.06087" lon="0.74665">
        <ele>1304</ele>
        <time>2022-05-23 11:59:54</time>
      </trkpt>
      <trkpt lat="42.06087" lon="0.74667">
        <ele>1304.2</ele>
        <time>2022-05-23 11:59:55</time>
      </trkpt>
      <trkpt lat="42.06086" lon="0.74669">
        <ele>1304.4</ele>
        <time>2022-05-23 11:59:56</time>
      </trkpt>
      <trkpt lat="42.06086" lon="0.74671">
        <ele>1304.4</ele>
        <time>2022-05-23 11:59:57</time>
      </trkpt>
      <trkpt lat="42.06086" lon="0.74673">
        <ele>1304.4</ele>
        <time>2022-05-23 11:59:58</time>
      </trkpt>
      <trkpt lat="42.06086" lon="0.74676">
        <ele>1304.6</ele>
        <time>2022-05-23 11:59:59</time>
      </trkpt>
      <trkpt lat="42.06085" lon="0.74678">
        <ele>1304.6</ele>
        <time>2022-05-23 12:00:00</time>
      </trkpt>
      <trkpt lat="42.06085" lon="0.7468">
        <ele>1304.8</ele>
        <time>2022-05-23 12:00:01</time>
      </trkpt>
      <trkpt lat="42.06084" lon="0.74683">
        <ele>1304.8</ele>
        <time>2022-05-23 12:00:02</time>
      </trkpt>
      <trkpt lat="42.06084" lon="0.74685">
        <ele>1305</ele>
        <time>2022-05-23 12:00:03</time>
      </trkpt>
      <trkpt lat="42.06084" lon="0.74688">
        <ele>1305.2</ele>
        <time>2022-05-23 12:00:04</time>
      </trkpt>
      <trkpt lat="42.06083" lon="0.7469">
        <ele>1305.2</ele>
        <time>2022-05-23 12:00:05</time>
      </trkpt>
      <trkpt lat="42.06083" lon="0.74692">
        <ele>1305.4</ele>
        <time>2022-05-23 12:00:06</time>
      </trkpt>
      <trkpt lat="42.06083" lon="0.74694">
        <ele>1305.4</ele>
        <time>2022-05-23 12:00:07</time>
      </trkpt>
      <trkpt lat="42.06083" lon="0.74697">
        <ele>1305.6</ele>
        <time>2022-05-23 12:00:08</time>
      </trkpt>
      <trkpt lat="42.06082" lon="0.74699">
        <ele>1305.6</ele>
        <time>2022-05-23 12:00:09</time>
      </trkpt>
      <trkpt lat="42.06082" lon="0.74701">
        <ele>1305.6</ele>
        <time>2022-05-23 12:00:10</time>
      </trkpt>
      <trkpt lat="42.06081" lon="0.74703">
        <ele>1305.8</ele>
        <time>2022-05-23 12:00:11</time>
      </trkpt>
      <trkpt lat="42.06081" lon="0.74706">
        <ele>1305.8</ele>
        <time>2022-05-23 12:00:12</time>
      </trkpt>
      <trkpt lat="42.06081" lon="0.74708">
        <ele>1306</ele>
        <time>2022-05-23 12:00:13</time>
      </trkpt>
      <trkpt lat="42.0608" lon="0.7471">
        <ele>1306</ele>
        <time>2022-05-23 12:00:14</time>
      </trkpt>
      <trkpt lat="42.06079" lon="0.74712">
        <ele>1306.2</ele>
        <time>2022-05-23 12:00:15</time>
      </trkpt>
      <trkpt lat="42.06079" lon="0.74714">
        <ele>1306.4</ele>
        <time>2022-05-23 12:00:16</time>
      </trkpt>
      <trkpt lat="42.06078" lon="0.74716">
        <ele>1306.4</ele>
        <time>2022-05-23 12:00:17</time>
      </trkpt>
      <trkpt lat="42.06078" lon="0.74718">
        <ele>1306.6</ele>
        <time>2022-05-23 12:00:18</time>
      </trkpt>
      <trkpt lat="42.06077" lon="0.7472">
        <ele>1306.6</ele>
        <time>2022-05-23 12:00:19</time>
      </trkpt>
      <trkpt lat="42.06076" lon="0.74723">
        <ele>1306.8</ele>
        <time>2022-05-23 12:00:20</time>
      </trkpt>
      <trkpt lat="42.06076" lon="0.74725">
        <ele>1307</ele>
        <time>2022-05-23 12:00:21</time>
      </trkpt>
      <trkpt lat="42.06075" lon="0.74727">
        <ele>1307</ele>
        <time>2022-05-23 12:00:22</time>
      </trkpt>
      <trkpt lat="42.06074" lon="0.74729">
        <ele>1307.2</ele>
        <time>2022-05-23 12:00:23</time>
      </trkpt>
      <trkpt lat="42.06074" lon="0.74731">
        <ele>1307.2</ele>
        <time>2022-05-23 12:00:24</time>
      </trkpt>
      <trkpt lat="42.06073" lon="0.74734">
        <ele>1307.4</ele>
        <time>2022-05-23 12:00:25</time>
      </trkpt>
      <trkpt lat="42.06073" lon="0.74736">
        <ele>1307.6</ele>
        <time>2022-05-23 12:00:26</time>
      </trkpt>
      <trkpt lat="42.06073" lon="0.74739">
        <ele>1307.8</ele>
        <time>2022-05-23 12:00:27</time>
      </trkpt>
      <trkpt lat="42.06072" lon="0.74741">
        <ele>1307.8</ele>
        <time>2022-05-23 12:00:28</time>
      </trkpt>
      <trkpt lat="42.06071" lon="0.74743">
        <ele>1308</ele>
        <time>2022-05-23 12:00:29</time>
      </trkpt>
      <trkpt lat="42.0607" lon="0.74745">
        <ele>1308.2</ele>
        <time>2022-05-23 12:00:30</time>
      </trkpt>
      <trkpt lat="42.0607" lon="0.74747">
        <ele>1308.4</ele>
        <time>2022-05-23 12:00:31</time>
      </trkpt>
      <trkpt lat="42.0607" lon="0.74749">
        <ele>1308.6</ele>
        <time>2022-05-23 12:00:32</time>
      </trkpt>
      <trkpt lat="42.06069" lon="0.74751">
        <ele>1308.8</ele>
        <time>2022-05-23 12:00:33</time>
      </trkpt>
      <trkpt lat="42.06068" lon="0.74753">
        <ele>1309</ele>
        <time>2022-05-23 12:00:34</time>
      </trkpt>
      <trkpt lat="42.06068" lon="0.74756">
        <ele>1309.2</ele>
        <time>2022-05-23 12:00:35</time>
      </trkpt>
      <trkpt lat="42.06067" lon="0.74758">
        <ele>1309.2</ele>
        <time>2022-05-23 12:00:36</time>
      </trkpt>
      <trkpt lat="42.06066" lon="0.74761">
        <ele>1309.4</ele>
        <time>2022-05-23 12:00:37</time>
      </trkpt>
      <trkpt lat="42.06066" lon="0.74763">
        <ele>1309.6</ele>
        <time>2022-05-23 12:00:38</time>
      </trkpt>
      <trkpt lat="42.06065" lon="0.74765">
        <ele>1309.8</ele>
        <time>2022-05-23 12:00:39</time>
      </trkpt>
      <trkpt lat="42.06064" lon="0.74767">
        <ele>1310</ele>
        <time>2022-05-23 12:00:40</time>
      </trkpt>
      <trkpt lat="42.06063" lon="0.7477">
        <ele>1310</ele>
        <time>2022-05-23 12:00:41</time>
      </trkpt>
      <trkpt lat="42.06063" lon="0.74772">
        <ele>1310.2</ele>
        <time>2022-05-23 12:00:42</time>
      </trkpt>
      <trkpt lat="42.06062" lon="0.74774">
        <ele>1310.4</ele>
        <time>2022-05-23 12:00:43</time>
      </trkpt>
      <trkpt lat="42.06062" lon="0.74776">
        <ele>1310.6</ele>
        <time>2022-05-23 12:00:44</time>
      </trkpt>
      <trkpt lat="42.06061" lon="0.74778">
        <ele>1310.8</ele>
        <time>2022-05-23 12:00:45</time>
      </trkpt>
      <trkpt lat="42.0606" lon="0.7478">
        <ele>1310.8</ele>
        <time>2022-05-23 12:00:46</time>
      </trkpt>
      <trkpt lat="42.06059" lon="0.74782">
        <ele>1311</ele>
        <time>2022-05-23 12:00:47</time>
      </trkpt>
      <trkpt lat="42.06059" lon="0.74784">
        <ele>1311.2</ele>
        <time>2022-05-23 12:00:48</time>
      </trkpt>
      <trkpt lat="42.06058" lon="0.74786">
        <ele>1311.2</ele>
        <time>2022-05-23 12:00:49</time>
      </trkpt>
      <trkpt lat="42.06058" lon="0.74788">
        <ele>1311.4</ele>
        <time>2022-05-23 12:00:50</time>
      </trkpt>
      <trkpt lat="42.06057" lon="0.74789">
        <ele>1311.4</ele>
        <time>2022-05-23 12:00:51</time>
      </trkpt>
      <trkpt lat="42.06056" lon="0.74791">
        <ele>1311.6</ele>
        <time>2022-05-23 12:00:52</time>
      </trkpt>
      <trkpt lat="42.06055" lon="0.74792">
        <ele>1311.8</ele>
        <time>2022-05-23 12:00:53</time>
      </trkpt>
      <trkpt lat="42.06054" lon="0.74794">
        <ele>1311.8</ele>
        <time>2022-05-23 12:00:54</time>
      </trkpt>
      <trkpt lat="42.06054" lon="0.74796">
        <ele>1312</ele>
        <time>2022-05-23 12:00:55</time>
      </trkpt>
      <trkpt lat="42.06053" lon="0.74798">
        <ele>1312</ele>
        <time>2022-05-23 12:00:56</time>
      </trkpt>
      <trkpt lat="42.06052" lon="0.748">
        <ele>1312.2</ele>
        <time>2022-05-23 12:00:57</time>
      </trkpt>
      <trkpt lat="42.06052" lon="0.74802">
        <ele>1312.2</ele>
        <time>2022-05-23 12:00:58</time>
      </trkpt>
      <trkpt lat="42.0605" lon="0.74803">
        <ele>1312.4</ele>
        <time>2022-05-23 12:00:59</time>
      </trkpt>
      <trkpt lat="42.0605" lon="0.74805">
        <ele>1312.6</ele>
        <time>2022-05-23 12:01:00</time>
      </trkpt>
      <trkpt lat="42.06049" lon="0.74807">
        <ele>1312.8</ele>
        <time>2022-05-23 12:01:01</time>
      </trkpt>
      <trkpt lat="42.06049" lon="0.74808">
        <ele>1313</ele>
        <time>2022-05-23 12:01:02</time>
      </trkpt>
      <trkpt lat="42.06048" lon="0.74809">
        <ele>1313.2</ele>
        <time>2022-05-23 12:01:03</time>
      </trkpt>
      <trkpt lat="42.06047" lon="0.74811">
        <ele>1313.4</ele>
        <time>2022-05-23 12:01:04</time>
      </trkpt>
      <trkpt lat="42.06047" lon="0.74813">
        <ele>1313.4</ele>
        <time>2022-05-23 12:01:05</time>
      </trkpt>
      <trkpt lat="42.06046" lon="0.74814">
        <ele>1313.6</ele>
        <time>2022-05-23 12:01:06</time>
      </trkpt>
      <trkpt lat="42.06046" lon="0.74816">
        <ele>1313.8</ele>
        <time>2022-05-23 12:01:07</time>
      </trkpt>
      <trkpt lat="42.06045" lon="0.74818">
        <ele>1314.2</ele>
        <time>2022-05-23 12:01:08</time>
      </trkpt>
      <trkpt lat="42.06044" lon="0.7482">
        <ele>1314.4</ele>
        <time>2022-05-23 12:01:09</time>
      </trkpt>
      <trkpt lat="42.06044" lon="0.74821">
        <ele>1314.4</ele>
        <time>2022-05-23 12:01:10</time>
      </trkpt>
      <trkpt lat="42.06043" lon="0.74823">
        <ele>1314.6</ele>
        <time>2022-05-23 12:01:11</time>
      </trkpt>
      <trkpt lat="42.06042" lon="0.74824">
        <ele>1314.8</ele>
        <time>2022-05-23 12:01:12</time>
      </trkpt>
      <trkpt lat="42.06042" lon="0.74826">
        <ele>1315</ele>
        <time>2022-05-23 12:01:13</time>
      </trkpt>
      <trkpt lat="42.06041" lon="0.74828">
        <ele>1315.2</ele>
        <time>2022-05-23 12:01:14</time>
      </trkpt>
      <trkpt lat="42.06041" lon="0.7483">
        <ele>1315.2</ele>
        <time>2022-05-23 12:01:15</time>
      </trkpt>
      <trkpt lat="42.0604" lon="0.74831">
        <ele>1315.2</ele>
        <time>2022-05-23 12:01:16</time>
      </trkpt>
      <trkpt lat="42.0604" lon="0.74834">
        <ele>1315.4</ele>
        <time>2022-05-23 12:01:17</time>
      </trkpt>
      <trkpt lat="42.06039" lon="0.74836">
        <ele>1315.6</ele>
        <time>2022-05-23 12:01:18</time>
      </trkpt>
      <trkpt lat="42.06038" lon="0.74837">
        <ele>1315.8</ele>
        <time>2022-05-23 12:01:19</time>
      </trkpt>
      <trkpt lat="42.06037" lon="0.74839">
        <ele>1315.8</ele>
        <time>2022-05-23 12:01:20</time>
      </trkpt>
      <trkpt lat="42.06036" lon="0.74841">
        <ele>1316</ele>
        <time>2022-05-23 12:01:21</time>
      </trkpt>
      <trkpt lat="42.06034" lon="0.74842">
        <ele>1316</ele>
        <time>2022-05-23 12:01:22</time>
      </trkpt>
      <trkpt lat="42.06033" lon="0.74844">
        <ele>1316.2</ele>
        <time>2022-05-23 12:01:23</time>
      </trkpt>
      <trkpt lat="42.06033" lon="0.74846">
        <ele>1316.4</ele>
        <time>2022-05-23 12:01:24</time>
      </trkpt>
      <trkpt lat="42.06032" lon="0.74848">
        <ele>1316.4</ele>
        <time>2022-05-23 12:01:25</time>
      </trkpt>
      <trkpt lat="42.06031" lon="0.74849">
        <ele>1316.6</ele>
        <time>2022-05-23 12:01:26</time>
      </trkpt>
      <trkpt lat="42.06031" lon="0.74851">
        <ele>1316.6</ele>
        <time>2022-05-23 12:01:27</time>
      </trkpt>
      <trkpt lat="42.0603" lon="0.74853">
        <ele>1316.8</ele>
        <time>2022-05-23 12:01:28</time>
      </trkpt>
      <trkpt lat="42.06029" lon="0.74855">
        <ele>1317</ele>
        <time>2022-05-23 12:01:29</time>
      </trkpt>
      <trkpt lat="42.06027" lon="0.74857">
        <ele>1317</ele>
        <time>2022-05-23 12:01:30</time>
      </trkpt>
      <trkpt lat="42.06026" lon="0.74859">
        <ele>1317.2</ele>
        <time>2022-05-23 12:01:31</time>
      </trkpt>
      <trkpt lat="42.06025" lon="0.74861">
        <ele>1317.4</ele>
        <time>2022-05-23 12:01:32</time>
      </trkpt>
      <trkpt lat="42.06025" lon="0.74863">
        <ele>1317.6</ele>
        <time>2022-05-23 12:01:33</time>
      </trkpt>
      <trkpt lat="42.06023" lon="0.74864">
        <ele>1317.8</ele>
        <time>2022-05-23 12:01:34</time>
      </trkpt>
      <trkpt lat="42.06022" lon="0.74866">
        <ele>1318</ele>
        <time>2022-05-23 12:01:35</time>
      </trkpt>
      <trkpt lat="42.06021" lon="0.74868">
        <ele>1318</ele>
        <time>2022-05-23 12:01:36</time>
      </trkpt>
      <trkpt lat="42.0602" lon="0.7487">
        <ele>1318.2</ele>
        <time>2022-05-23 12:01:37</time>
      </trkpt>
      <trkpt lat="42.06018" lon="0.74872">
        <ele>1318.4</ele>
        <time>2022-05-23 12:01:38</time>
      </trkpt>
      <trkpt lat="42.06017" lon="0.74874">
        <ele>1318.6</ele>
        <time>2022-05-23 12:01:39</time>
      </trkpt>
      <trkpt lat="42.06016" lon="0.74875">
        <ele>1318.6</ele>
        <time>2022-05-23 12:01:40</time>
      </trkpt>
      <trkpt lat="42.06015" lon="0.74877">
        <ele>1318.8</ele>
        <time>2022-05-23 12:01:41</time>
      </trkpt>
      <trkpt lat="42.06014" lon="0.7488">
        <ele>1319</ele>
        <time>2022-05-23 12:01:42</time>
      </trkpt>
      <trkpt lat="42.06014" lon="0.74881">
        <ele>1319.2</ele>
        <time>2022-05-23 12:01:43</time>
      </trkpt>
      <trkpt lat="42.06014" lon="0.74883">
        <ele>1319.2</ele>
        <time>2022-05-23 12:01:44</time>
      </trkpt>
      <trkpt lat="42.06014" lon="0.74886">
        <ele>1319.4</ele>
        <time>2022-05-23 12:01:45</time>
      </trkpt>
      <trkpt lat="42.06014" lon="0.74887">
        <ele>1319.6</ele>
        <time>2022-05-23 12:01:46</time>
      </trkpt>
      <trkpt lat="42.06014" lon="0.74888">
        <ele>1319.8</ele>
        <time>2022-05-23 12:01:47</time>
      </trkpt>
      <trkpt lat="42.06014" lon="0.74889">
        <ele>1320</ele>
        <time>2022-05-23 12:01:48</time>
      </trkpt>
      <trkpt lat="42.06013" lon="0.74893">
        <ele>1320.4</ele>
        <time>2022-05-23 12:01:49</time>
      </trkpt>
      <trkpt lat="42.06013" lon="0.74895">
        <ele>1320.6</ele>
        <time>2022-05-23 12:01:50</time>
      </trkpt>
      <trkpt lat="42.06014" lon="0.74897">
        <ele>1320.8</ele>
        <time>2022-05-23 12:01:51</time>
      </trkpt>
      <trkpt lat="42.06014" lon="0.74898">
        <ele>1321</ele>
        <time>2022-05-23 12:01:52</time>
      </trkpt>
      <trkpt lat="42.06015" lon="0.749">
        <ele>1321.2</ele>
        <time>2022-05-23 12:01:53</time>
      </trkpt>
      <trkpt lat="42.06017" lon="0.74903">
        <ele>1321.4</ele>
        <time>2022-05-23 12:01:54</time>
      </trkpt>
      <trkpt lat="42.06018" lon="0.74907">
        <ele>1321.4</ele>
        <time>2022-05-23 12:01:55</time>
      </trkpt>
      <trkpt lat="42.0602" lon="0.7491">
        <ele>1321.6</ele>
        <time>2022-05-23 12:01:56</time>
      </trkpt>
      <trkpt lat="42.0602" lon="0.74913">
        <ele>1321.8</ele>
        <time>2022-05-23 12:01:57</time>
      </trkpt>
      <trkpt lat="42.06021" lon="0.74916">
        <ele>1321.8</ele>
        <time>2022-05-23 12:01:58</time>
      </trkpt>
      <trkpt lat="42.06022" lon="0.74918">
        <ele>1322</ele>
        <time>2022-05-23 12:01:59</time>
      </trkpt>
      <trkpt lat="42.06022" lon="0.74921">
        <ele>1322.2</ele>
        <time>2022-05-23 12:02:00</time>
      </trkpt>
      <trkpt lat="42.06023" lon="0.74923">
        <ele>1322.4</ele>
        <time>2022-05-23 12:02:01</time>
      </trkpt>
      <trkpt lat="42.06023" lon="0.74926">
        <ele>1322.4</ele>
        <time>2022-05-23 12:02:02</time>
      </trkpt>
      <trkpt lat="42.06024" lon="0.74928">
        <ele>1322.6</ele>
        <time>2022-05-23 12:02:03</time>
      </trkpt>
      <trkpt lat="42.06025" lon="0.74931">
        <ele>1322.8</ele>
        <time>2022-05-23 12:02:04</time>
      </trkpt>
      <trkpt lat="42.06026" lon="0.74933">
        <ele>1322.8</ele>
        <time>2022-05-23 12:02:05</time>
      </trkpt>
      <trkpt lat="42.06027" lon="0.74935">
        <ele>1323</ele>
        <time>2022-05-23 12:02:06</time>
      </trkpt>
      <trkpt lat="42.06028" lon="0.74937">
        <ele>1323.2</ele>
        <time>2022-05-23 12:02:07</time>
      </trkpt>
      <trkpt lat="42.0603" lon="0.74938">
        <ele>1323.4</ele>
        <time>2022-05-23 12:02:08</time>
      </trkpt>
      <trkpt lat="42.06031" lon="0.7494">
        <ele>1323.4</ele>
        <time>2022-05-23 12:02:09</time>
      </trkpt>
      <trkpt lat="42.06033" lon="0.74941">
        <ele>1323.6</ele>
        <time>2022-05-23 12:02:10</time>
      </trkpt>
      <trkpt lat="42.06034" lon="0.74942">
        <ele>1323.8</ele>
        <time>2022-05-23 12:02:11</time>
      </trkpt>
      <trkpt lat="42.06035" lon="0.74944">
        <ele>1323.8</ele>
        <time>2022-05-23 12:02:12</time>
      </trkpt>
      <trkpt lat="42.06036" lon="0.74945">
        <ele>1324</ele>
        <time>2022-05-23 12:02:15</time>
      </trkpt>
      <trkpt lat="42.06038" lon="0.74946">
        <ele>1324</ele>
        <time>2022-05-23 12:02:16</time>
      </trkpt>
      <trkpt lat="42.06039" lon="0.74948">
        <ele>1324.2</ele>
        <time>2022-05-23 12:02:17</time>
      </trkpt>
      <trkpt lat="42.0604" lon="0.74948">
        <ele>1324.2</ele>
        <time>2022-05-23 12:02:18</time>
      </trkpt>
      <trkpt lat="42.06042" lon="0.74949">
        <ele>1324.2</ele>
        <time>2022-05-23 12:02:19</time>
      </trkpt>
      <trkpt lat="42.06044" lon="0.7495">
        <ele>1324.4</ele>
        <time>2022-05-23 12:02:20</time>
      </trkpt>
      <trkpt lat="42.06046" lon="0.7495">
        <ele>1324.4</ele>
        <time>2022-05-23 12:02:21</time>
      </trkpt>
      <trkpt lat="42.06049" lon="0.74952">
        <ele>1324.4</ele>
        <time>2022-05-23 12:02:22</time>
      </trkpt>
      <trkpt lat="42.06051" lon="0.74953">
        <ele>1324.2</ele>
        <time>2022-05-23 12:02:23</time>
      </trkpt>
      <trkpt lat="42.06054" lon="0.74954">
        <ele>1324</ele>
        <time>2022-05-23 12:02:24</time>
      </trkpt>
      <trkpt lat="42.06057" lon="0.74955">
        <ele>1324</ele>
        <time>2022-05-23 12:02:25</time>
      </trkpt>
      <trkpt lat="42.0606" lon="0.74957">
        <ele>1323.8</ele>
        <time>2022-05-23 12:02:26</time>
      </trkpt>
      <trkpt lat="42.06064" lon="0.74959">
        <ele>1323.8</ele>
        <time>2022-05-23 12:02:27</time>
      </trkpt>
      <trkpt lat="42.06067" lon="0.7496">
        <ele>1323.8</ele>
        <time>2022-05-23 12:02:28</time>
      </trkpt>
      <trkpt lat="42.06071" lon="0.74961">
        <ele>1323.8</ele>
        <time>2022-05-23 12:02:29</time>
      </trkpt>
      <trkpt lat="42.06075" lon="0.74962">
        <ele>1323.6</ele>
        <time>2022-05-23 12:02:30</time>
      </trkpt>
      <trkpt lat="42.06079" lon="0.74963">
        <ele>1323.6</ele>
        <time>2022-05-23 12:02:31</time>
      </trkpt>
      <trkpt lat="42.06082" lon="0.74965">
        <ele>1323.6</ele>
        <time>2022-05-23 12:02:32</time>
      </trkpt>
      <trkpt lat="42.06086" lon="0.74966">
        <ele>1323.8</ele>
        <time>2022-05-23 12:02:33</time>
      </trkpt>
      <trkpt lat="42.06089" lon="0.74968">
        <ele>1323.8</ele>
        <time>2022-05-23 12:02:34</time>
      </trkpt>
      <trkpt lat="42.06092" lon="0.74971">
        <ele>1324</ele>
        <time>2022-05-23 12:02:35</time>
      </trkpt>
      <trkpt lat="42.06096" lon="0.74973">
        <ele>1324</ele>
        <time>2022-05-23 12:02:36</time>
      </trkpt>
      <trkpt lat="42.06098" lon="0.74975">
        <ele>1324.2</ele>
        <time>2022-05-23 12:02:37</time>
      </trkpt>
      <trkpt lat="42.06101" lon="0.74977">
        <ele>1324.2</ele>
        <time>2022-05-23 12:02:38</time>
      </trkpt>
      <trkpt lat="42.06104" lon="0.74979">
        <ele>1324.4</ele>
        <time>2022-05-23 12:02:39</time>
      </trkpt>
      <trkpt lat="42.06107" lon="0.74982">
        <ele>1324.4</ele>
        <time>2022-05-23 12:02:40</time>
      </trkpt>
      <trkpt lat="42.06109" lon="0.74985">
        <ele>1324.4</ele>
        <time>2022-05-23 12:02:41</time>
      </trkpt>
      <trkpt lat="42.06112" lon="0.74988">
        <ele>1324.4</ele>
        <time>2022-05-23 12:02:42</time>
      </trkpt>
      <trkpt lat="42.06115" lon="0.74991">
        <ele>1324.4</ele>
        <time>2022-05-23 12:02:43</time>
      </trkpt>
      <trkpt lat="42.06118" lon="0.74995">
        <ele>1324.6</ele>
        <time>2022-05-23 12:02:44</time>
      </trkpt>
      <trkpt lat="42.06121" lon="0.74998">
        <ele>1324.6</ele>
        <time>2022-05-23 12:02:45</time>
      </trkpt>
      <trkpt lat="42.06125" lon="0.75002">
        <ele>1324.6</ele>
        <time>2022-05-23 12:02:46</time>
      </trkpt>
      <trkpt lat="42.06128" lon="0.75004">
        <ele>1324.6</ele>
        <time>2022-05-23 12:02:47</time>
      </trkpt>
      <trkpt lat="42.06132" lon="0.75006">
        <ele>1324.6</ele>
        <time>2022-05-23 12:02:48</time>
      </trkpt>
      <trkpt lat="42.06135" lon="0.75008">
        <ele>1324.6</ele>
        <time>2022-05-23 12:02:49</time>
      </trkpt>
      <trkpt lat="42.06139" lon="0.7501">
        <ele>1324.8</ele>
        <time>2022-05-23 12:02:50</time>
      </trkpt>
      <trkpt lat="42.06142" lon="0.75013">
        <ele>1324.8</ele>
        <time>2022-05-23 12:02:51</time>
      </trkpt>
      <trkpt lat="42.06145" lon="0.75015">
        <ele>1325</ele>
        <time>2022-05-23 12:02:52</time>
      </trkpt>
      <trkpt lat="42.06148" lon="0.75018">
        <ele>1325</ele>
        <time>2022-05-23 12:02:53</time>
      </trkpt>
      <trkpt lat="42.06151" lon="0.7502">
        <ele>1325.2</ele>
        <time>2022-05-23 12:02:54</time>
      </trkpt>
      <trkpt lat="42.06153" lon="0.75023">
        <ele>1325.2</ele>
        <time>2022-05-23 12:02:55</time>
      </trkpt>
      <trkpt lat="42.06155" lon="0.75027">
        <ele>1325.4</ele>
        <time>2022-05-23 12:02:56</time>
      </trkpt>
      <trkpt lat="42.06156" lon="0.7503">
        <ele>1325.6</ele>
        <time>2022-05-23 12:02:57</time>
      </trkpt>
      <trkpt lat="42.06157" lon="0.75033">
        <ele>1325.8</ele>
        <time>2022-05-23 12:02:58</time>
      </trkpt>
      <trkpt lat="42.06158" lon="0.75036">
        <ele>1326</ele>
        <time>2022-05-23 12:02:59</time>
      </trkpt>
      <trkpt lat="42.06159" lon="0.75039">
        <ele>1326</ele>
        <time>2022-05-23 12:03:00</time>
      </trkpt>
      <trkpt lat="42.0616" lon="0.75043">
        <ele>1326.2</ele>
        <time>2022-05-23 12:03:01</time>
      </trkpt>
      <trkpt lat="42.06161" lon="0.75048">
        <ele>1326.2</ele>
        <time>2022-05-23 12:03:02</time>
      </trkpt>
      <trkpt lat="42.06162" lon="0.75052">
        <ele>1326.4</ele>
        <time>2022-05-23 12:03:03</time>
      </trkpt>
      <trkpt lat="42.06162" lon="0.75057">
        <ele>1326.4</ele>
        <time>2022-05-23 12:03:04</time>
      </trkpt>
      <trkpt lat="42.06162" lon="0.75061">
        <ele>1326.4</ele>
        <time>2022-05-23 12:03:05</time>
      </trkpt>
      <trkpt lat="42.06162" lon="0.75065">
        <ele>1326.6</ele>
        <time>2022-05-23 12:03:06</time>
      </trkpt>
      <trkpt lat="42.06163" lon="0.7507">
        <ele>1326.6</ele>
        <time>2022-05-23 12:03:07</time>
      </trkpt>
      <trkpt lat="42.06163" lon="0.75075">
        <ele>1326.8</ele>
        <time>2022-05-23 12:03:08</time>
      </trkpt>
      <trkpt lat="42.06163" lon="0.7508">
        <ele>1326.8</ele>
        <time>2022-05-23 12:03:09</time>
      </trkpt>
      <trkpt lat="42.06163" lon="0.75085">
        <ele>1327</ele>
        <time>2022-05-23 12:03:10</time>
      </trkpt>
      <trkpt lat="42.06163" lon="0.7509">
        <ele>1327</ele>
        <time>2022-05-23 12:03:11</time>
      </trkpt>
      <trkpt lat="42.06164" lon="0.75095">
        <ele>1327</ele>
        <time>2022-05-23 12:03:12</time>
      </trkpt>
      <trkpt lat="42.06164" lon="0.751">
        <ele>1327.2</ele>
        <time>2022-05-23 12:03:13</time>
      </trkpt>
      <trkpt lat="42.06164" lon="0.75105">
        <ele>1327.2</ele>
        <time>2022-05-23 12:03:14</time>
      </trkpt>
      <trkpt lat="42.06163" lon="0.75109">
        <ele>1327.4</ele>
        <time>2022-05-23 12:03:15</time>
      </trkpt>
      <trkpt lat="42.06163" lon="0.75114">
        <ele>1327.4</ele>
        <time>2022-05-23 12:03:16</time>
      </trkpt>
      <trkpt lat="42.06162" lon="0.75119">
        <ele>1327.6</ele>
        <time>2022-05-23 12:03:17</time>
      </trkpt>
      <trkpt lat="42.06161" lon="0.75124">
        <ele>1327.6</ele>
        <time>2022-05-23 12:03:18</time>
      </trkpt>
      <trkpt lat="42.0616" lon="0.75128">
        <ele>1327.8</ele>
        <time>2022-05-23 12:03:19</time>
      </trkpt>
      <trkpt lat="42.06158" lon="0.75133">
        <ele>1327.8</ele>
        <time>2022-05-23 12:03:20</time>
      </trkpt>
      <trkpt lat="42.06157" lon="0.75137">
        <ele>1327.8</ele>
        <time>2022-05-23 12:03:21</time>
      </trkpt>
      <trkpt lat="42.06156" lon="0.75141">
        <ele>1328</ele>
        <time>2022-05-23 12:03:22</time>
      </trkpt>
      <trkpt lat="42.06156" lon="0.75145">
        <ele>1328</ele>
        <time>2022-05-23 12:03:23</time>
      </trkpt>
      <trkpt lat="42.06155" lon="0.7515">
        <ele>1328</ele>
        <time>2022-05-23 12:03:24</time>
      </trkpt>
      <trkpt lat="42.06154" lon="0.75154">
        <ele>1328</ele>
        <time>2022-05-23 12:03:25</time>
      </trkpt>
      <trkpt lat="42.06153" lon="0.75159">
        <ele>1328.2</ele>
        <time>2022-05-23 12:03:26</time>
      </trkpt>
      <trkpt lat="42.06152" lon="0.75163">
        <ele>1328.2</ele>
        <time>2022-05-23 12:03:27</time>
      </trkpt>
      <trkpt lat="42.06151" lon="0.75167">
        <ele>1328.2</ele>
        <time>2022-05-23 12:03:28</time>
      </trkpt>
      <trkpt lat="42.0615" lon="0.75171">
        <ele>1328.4</ele>
        <time>2022-05-23 12:03:29</time>
      </trkpt>
      <trkpt lat="42.06149" lon="0.75175">
        <ele>1328.4</ele>
        <time>2022-05-23 12:03:30</time>
      </trkpt>
      <trkpt lat="42.06149" lon="0.75179">
        <ele>1328.4</ele>
        <time>2022-05-23 12:03:31</time>
      </trkpt>
      <trkpt lat="42.06148" lon="0.75183">
        <ele>1328.4</ele>
        <time>2022-05-23 12:03:32</time>
      </trkpt>
      <trkpt lat="42.06148" lon="0.75187">
        <ele>1328.6</ele>
        <time>2022-05-23 12:03:33</time>
      </trkpt>
      <trkpt lat="42.06147" lon="0.75191">
        <ele>1328.6</ele>
        <time>2022-05-23 12:03:34</time>
      </trkpt>
      <trkpt lat="42.06147" lon="0.75195">
        <ele>1328.8</ele>
        <time>2022-05-23 12:03:35</time>
      </trkpt>
      <trkpt lat="42.06147" lon="0.75199">
        <ele>1328.8</ele>
        <time>2022-05-23 12:03:36</time>
      </trkpt>
      <trkpt lat="42.06146" lon="0.75203">
        <ele>1328.8</ele>
        <time>2022-05-23 12:03:37</time>
      </trkpt>
      <trkpt lat="42.06145" lon="0.75207">
        <ele>1329</ele>
        <time>2022-05-23 12:03:38</time>
      </trkpt>
      <trkpt lat="42.06144" lon="0.7521">
        <ele>1329</ele>
        <time>2022-05-23 12:03:39</time>
      </trkpt>
      <trkpt lat="42.06143" lon="0.75214">
        <ele>1329</ele>
        <time>2022-05-23 12:03:40</time>
      </trkpt>
      <trkpt lat="42.06142" lon="0.75217">
        <ele>1329.2</ele>
        <time>2022-05-23 12:03:41</time>
      </trkpt>
      <trkpt lat="42.06141" lon="0.75221">
        <ele>1329.2</ele>
        <time>2022-05-23 12:03:42</time>
      </trkpt>
      <trkpt lat="42.0614" lon="0.75224">
        <ele>1329.2</ele>
        <time>2022-05-23 12:03:43</time>
      </trkpt>
      <trkpt lat="42.06139" lon="0.75228">
        <ele>1329.2</ele>
        <time>2022-05-23 12:03:44</time>
      </trkpt>
      <trkpt lat="42.06138" lon="0.75231">
        <ele>1329.2</ele>
        <time>2022-05-23 12:03:45</time>
      </trkpt>
      <trkpt lat="42.06137" lon="0.75235">
        <ele>1329.2</ele>
        <time>2022-05-23 12:03:46</time>
      </trkpt>
      <trkpt lat="42.06136" lon="0.75238">
        <ele>1329.2</ele>
        <time>2022-05-23 12:03:47</time>
      </trkpt>
      <trkpt lat="42.06135" lon="0.75242">
        <ele>1329.2</ele>
        <time>2022-05-23 12:03:48</time>
      </trkpt>
      <trkpt lat="42.06133" lon="0.75245">
        <ele>1329.2</ele>
        <time>2022-05-23 12:03:49</time>
      </trkpt>
      <trkpt lat="42.06131" lon="0.75249">
        <ele>1329.4</ele>
        <time>2022-05-23 12:03:50</time>
      </trkpt>
      <trkpt lat="42.0613" lon="0.75252">
        <ele>1329.4</ele>
        <time>2022-05-23 12:03:51</time>
      </trkpt>
      <trkpt lat="42.06128" lon="0.75256">
        <ele>1329.4</ele>
        <time>2022-05-23 12:03:52</time>
      </trkpt>
      <trkpt lat="42.06126" lon="0.75259">
        <ele>1329.4</ele>
        <time>2022-05-23 12:03:53</time>
      </trkpt>
      <trkpt lat="42.06124" lon="0.75262">
        <ele>1329.6</ele>
        <time>2022-05-23 12:03:54</time>
      </trkpt>
      <trkpt lat="42.06122" lon="0.75265">
        <ele>1329.8</ele>
        <time>2022-05-23 12:03:55</time>
      </trkpt>
      <trkpt lat="42.06119" lon="0.75268">
        <ele>1329.8</ele>
        <time>2022-05-23 12:03:56</time>
      </trkpt>
      <trkpt lat="42.06117" lon="0.75271">
        <ele>1330</ele>
        <time>2022-05-23 12:03:57</time>
      </trkpt>
      <trkpt lat="42.06115" lon="0.75273">
        <ele>1330</ele>
        <time>2022-05-23 12:03:58</time>
      </trkpt>
      <trkpt lat="42.06112" lon="0.75274">
        <ele>1330</ele>
        <time>2022-05-23 12:03:59</time>
      </trkpt>
      <trkpt lat="42.06109" lon="0.75276">
        <ele>1330</ele>
        <time>2022-05-23 12:04:00</time>
      </trkpt>
      <trkpt lat="42.06107" lon="0.75278">
        <ele>1330.2</ele>
        <time>2022-05-23 12:04:01</time>
      </trkpt>
      <trkpt lat="42.06104" lon="0.75279">
        <ele>1330.2</ele>
        <time>2022-05-23 12:04:02</time>
      </trkpt>
      <trkpt lat="42.06101" lon="0.7528">
        <ele>1330.4</ele>
        <time>2022-05-23 12:04:03</time>
      </trkpt>
      <trkpt lat="42.06098" lon="0.7528">
        <ele>1330.4</ele>
        <time>2022-05-23 12:04:04</time>
      </trkpt>
      <trkpt lat="42.06096" lon="0.7528">
        <ele>1330.6</ele>
        <time>2022-05-23 12:04:05</time>
      </trkpt>
      <trkpt lat="42.06093" lon="0.75279">
        <ele>1330.8</ele>
        <time>2022-05-23 12:04:06</time>
      </trkpt>
      <trkpt lat="42.06091" lon="0.75279">
        <ele>1331</ele>
        <time>2022-05-23 12:04:07</time>
      </trkpt>
      <trkpt lat="42.06089" lon="0.75278">
        <ele>1331</ele>
        <time>2022-05-23 12:04:08</time>
      </trkpt>
      <trkpt lat="42.06087" lon="0.75277">
        <ele>1331.2</ele>
        <time>2022-05-23 12:04:09</time>
      </trkpt>
      <trkpt lat="42.06086" lon="0.75277">
        <ele>1331.4</ele>
        <time>2022-05-23 12:04:10</time>
      </trkpt>
      <trkpt lat="42.06084" lon="0.75276">
        <ele>1331.6</ele>
        <time>2022-05-23 12:04:11</time>
      </trkpt>
      <trkpt lat="42.06082" lon="0.75276">
        <ele>1331.6</ele>
        <time>2022-05-23 12:04:12</time>
      </trkpt>
      <trkpt lat="42.06081" lon="0.75275">
        <ele>1331.8</ele>
        <time>2022-05-23 12:04:13</time>
      </trkpt>
      <trkpt lat="42.06079" lon="0.75274">
        <ele>1332</ele>
        <time>2022-05-23 12:04:14</time>
      </trkpt>
      <trkpt lat="42.06077" lon="0.75273">
        <ele>1332</ele>
        <time>2022-05-23 12:04:15</time>
      </trkpt>
      <trkpt lat="42.06076" lon="0.75272">
        <ele>1332.2</ele>
        <time>2022-05-23 12:04:16</time>
      </trkpt>
      <trkpt lat="42.06074" lon="0.75271">
        <ele>1332.4</ele>
        <time>2022-05-23 12:04:17</time>
      </trkpt>
      <trkpt lat="42.06073" lon="0.7527">
        <ele>1332.6</ele>
        <time>2022-05-23 12:04:18</time>
      </trkpt>
      <trkpt lat="42.06071" lon="0.7527">
        <ele>1332.8</ele>
        <time>2022-05-23 12:04:19</time>
      </trkpt>
      <trkpt lat="42.0607" lon="0.75269">
        <ele>1333</ele>
        <time>2022-05-23 12:04:20</time>
      </trkpt>
      <trkpt lat="42.06068" lon="0.75268">
        <ele>1333.2</ele>
        <time>2022-05-23 12:04:21</time>
      </trkpt>
      <trkpt lat="42.06066" lon="0.75267">
        <ele>1333.2</ele>
        <time>2022-05-23 12:04:22</time>
      </trkpt>
      <trkpt lat="42.06065" lon="0.75267">
        <ele>1333.4</ele>
        <time>2022-05-23 12:04:23</time>
      </trkpt>
      <trkpt lat="42.06063" lon="0.75266">
        <ele>1333.4</ele>
        <time>2022-05-23 12:04:24</time>
      </trkpt>
      <trkpt lat="42.06062" lon="0.75265">
        <ele>1333.6</ele>
        <time>2022-05-23 12:04:25</time>
      </trkpt>
      <trkpt lat="42.06061" lon="0.75265">
        <ele>1333.6</ele>
        <time>2022-05-23 12:04:26</time>
      </trkpt>
      <trkpt lat="42.06059" lon="0.75264">
        <ele>1333.8</ele>
        <time>2022-05-23 12:04:27</time>
      </trkpt>
      <trkpt lat="42.06058" lon="0.75263">
        <ele>1334</ele>
        <time>2022-05-23 12:04:28</time>
      </trkpt>
      <trkpt lat="42.06056" lon="0.75261">
        <ele>1334</ele>
        <time>2022-05-23 12:04:29</time>
      </trkpt>
      <trkpt lat="42.06055" lon="0.7526">
        <ele>1334.2</ele>
        <time>2022-05-23 12:04:30</time>
      </trkpt>
      <trkpt lat="42.06053" lon="0.75259">
        <ele>1334.2</ele>
        <time>2022-05-23 12:04:31</time>
      </trkpt>
      <trkpt lat="42.06052" lon="0.75257">
        <ele>1334.4</ele>
        <time>2022-05-23 12:04:32</time>
      </trkpt>
      <trkpt lat="42.0605" lon="0.75257">
        <ele>1334.6</ele>
        <time>2022-05-23 12:04:33</time>
      </trkpt>
      <trkpt lat="42.06048" lon="0.75256">
        <ele>1334.8</ele>
        <time>2022-05-23 12:04:34</time>
      </trkpt>
      <trkpt lat="42.06047" lon="0.75255">
        <ele>1335</ele>
        <time>2022-05-23 12:04:35</time>
      </trkpt>
      <trkpt lat="42.06045" lon="0.75254">
        <ele>1335.2</ele>
        <time>2022-05-23 12:04:36</time>
      </trkpt>
      <trkpt lat="42.06043" lon="0.75253">
        <ele>1335.4</ele>
        <time>2022-05-23 12:04:37</time>
      </trkpt>
      <trkpt lat="42.06041" lon="0.75252">
        <ele>1335.6</ele>
        <time>2022-05-23 12:04:38</time>
      </trkpt>
      <trkpt lat="42.06039" lon="0.75251">
        <ele>1335.6</ele>
        <time>2022-05-23 12:04:39</time>
      </trkpt>
      <trkpt lat="42.06038" lon="0.75251">
        <ele>1335.8</ele>
        <time>2022-05-23 12:04:40</time>
      </trkpt>
      <trkpt lat="42.06036" lon="0.75249">
        <ele>1335.8</ele>
        <time>2022-05-23 12:04:41</time>
      </trkpt>
      <trkpt lat="42.06034" lon="0.75248">
        <ele>1336</ele>
        <time>2022-05-23 12:04:42</time>
      </trkpt>
      <trkpt lat="42.06033" lon="0.75247">
        <ele>1336.2</ele>
        <time>2022-05-23 12:04:43</time>
      </trkpt>
      <trkpt lat="42.06031" lon="0.75246">
        <ele>1336.4</ele>
        <time>2022-05-23 12:04:44</time>
      </trkpt>
      <trkpt lat="42.06029" lon="0.75244">
        <ele>1336.4</ele>
        <time>2022-05-23 12:04:45</time>
      </trkpt>
      <trkpt lat="42.06028" lon="0.75243">
        <ele>1336.6</ele>
        <time>2022-05-23 12:04:46</time>
      </trkpt>
      <trkpt lat="42.06026" lon="0.75242">
        <ele>1336.8</ele>
        <time>2022-05-23 12:04:47</time>
      </trkpt>
      <trkpt lat="42.06025" lon="0.7524">
        <ele>1337</ele>
        <time>2022-05-23 12:04:48</time>
      </trkpt>
      <trkpt lat="42.06023" lon="0.75239">
        <ele>1337.2</ele>
        <time>2022-05-23 12:04:49</time>
      </trkpt>
      <trkpt lat="42.06021" lon="0.75238">
        <ele>1337.2</ele>
        <time>2022-05-23 12:04:50</time>
      </trkpt>
      <trkpt lat="42.06019" lon="0.75237">
        <ele>1337.4</ele>
        <time>2022-05-23 12:04:51</time>
      </trkpt>
      <trkpt lat="42.06018" lon="0.75235">
        <ele>1337.4</ele>
        <time>2022-05-23 12:04:52</time>
      </trkpt>
      <trkpt lat="42.06017" lon="0.75233">
        <ele>1337.6</ele>
        <time>2022-05-23 12:04:53</time>
      </trkpt>
      <trkpt lat="42.06016" lon="0.75232">
        <ele>1337.6</ele>
        <time>2022-05-23 12:04:54</time>
      </trkpt>
      <trkpt lat="42.06015" lon="0.7523">
        <ele>1337.8</ele>
        <time>2022-05-23 12:04:55</time>
      </trkpt>
      <trkpt lat="42.06014" lon="0.75229">
        <ele>1337.8</ele>
        <time>2022-05-23 12:04:56</time>
      </trkpt>
      <trkpt lat="42.06013" lon="0.75227">
        <ele>1337.8</ele>
        <time>2022-05-23 12:04:57</time>
      </trkpt>
      <trkpt lat="42.06013" lon="0.75225">
        <ele>1338</ele>
        <time>2022-05-23 12:04:58</time>
      </trkpt>
      <trkpt lat="42.06012" lon="0.75223">
        <ele>1338.2</ele>
        <time>2022-05-23 12:04:59</time>
      </trkpt>
      <trkpt lat="42.06011" lon="0.75221">
        <ele>1338.2</ele>
        <time>2022-05-23 12:05:00</time>
      </trkpt>
      <trkpt lat="42.0601" lon="0.75219">
        <ele>1338.6</ele>
        <time>2022-05-23 12:05:01</time>
      </trkpt>
      <trkpt lat="42.0601" lon="0.75216">
        <ele>1338.8</ele>
        <time>2022-05-23 12:05:02</time>
      </trkpt>
      <trkpt lat="42.06008" lon="0.75214">
        <ele>1339</ele>
        <time>2022-05-23 12:05:03</time>
      </trkpt>
      <trkpt lat="42.06008" lon="0.75212">
        <ele>1339</ele>
        <time>2022-05-23 12:05:04</time>
      </trkpt>
      <trkpt lat="42.06007" lon="0.7521">
        <ele>1339.2</ele>
        <time>2022-05-23 12:05:05</time>
      </trkpt>
      <trkpt lat="42.06006" lon="0.75208">
        <ele>1339.4</ele>
        <time>2022-05-23 12:05:06</time>
      </trkpt>
      <trkpt lat="42.06005" lon="0.75206">
        <ele>1339.4</ele>
        <time>2022-05-23 12:05:07</time>
      </trkpt>
      <trkpt lat="42.06005" lon="0.75204">
        <ele>1339.6</ele>
        <time>2022-05-23 12:05:08</time>
      </trkpt>
      <trkpt lat="42.06004" lon="0.75201">
        <ele>1339.8</ele>
        <time>2022-05-23 12:05:09</time>
      </trkpt>
      <trkpt lat="42.06004" lon="0.75199">
        <ele>1340</ele>
        <time>2022-05-23 12:05:10</time>
      </trkpt>
      <trkpt lat="42.06004" lon="0.75197">
        <ele>1340.2</ele>
        <time>2022-05-23 12:05:11</time>
      </trkpt>
      <trkpt lat="42.06003" lon="0.75195">
        <ele>1340.4</ele>
        <time>2022-05-23 12:05:12</time>
      </trkpt>
      <trkpt lat="42.06003" lon="0.75193">
        <ele>1340.6</ele>
        <time>2022-05-23 12:05:13</time>
      </trkpt>
      <trkpt lat="42.06002" lon="0.75191">
        <ele>1340.8</ele>
        <time>2022-05-23 12:05:14</time>
      </trkpt>
      <trkpt lat="42.06002" lon="0.75189">
        <ele>1341</ele>
        <time>2022-05-23 12:05:15</time>
      </trkpt>
      <trkpt lat="42.06001" lon="0.75187">
        <ele>1341.2</ele>
        <time>2022-05-23 12:05:16</time>
      </trkpt>
      <trkpt lat="42.06001" lon="0.75185">
        <ele>1341.4</ele>
        <time>2022-05-23 12:05:17</time>
      </trkpt>
      <trkpt lat="42.06" lon="0.75183">
        <ele>1341.6</ele>
        <time>2022-05-23 12:05:18</time>
      </trkpt>
      <trkpt lat="42.06" lon="0.75181">
        <ele>1341.6</ele>
        <time>2022-05-23 12:05:19</time>
      </trkpt>
      <trkpt lat="42.05999" lon="0.75179">
        <ele>1341.8</ele>
        <time>2022-05-23 12:05:20</time>
      </trkpt>
      <trkpt lat="42.05999" lon="0.75177">
        <ele>1342</ele>
        <time>2022-05-23 12:05:21</time>
      </trkpt>
      <trkpt lat="42.05998" lon="0.75175">
        <ele>1342.2</ele>
        <time>2022-05-23 12:05:22</time>
      </trkpt>
      <trkpt lat="42.05997" lon="0.75173">
        <ele>1342.2</ele>
        <time>2022-05-23 12:05:23</time>
      </trkpt>
      <trkpt lat="42.05997" lon="0.75171">
        <ele>1342.4</ele>
        <time>2022-05-23 12:05:24</time>
      </trkpt>
      <trkpt lat="42.05997" lon="0.75169">
        <ele>1342.6</ele>
        <time>2022-05-23 12:05:25</time>
      </trkpt>
      <trkpt lat="42.05996" lon="0.75167">
        <ele>1342.8</ele>
        <time>2022-05-23 12:05:26</time>
      </trkpt>
      <trkpt lat="42.05995" lon="0.75166">
        <ele>1342.8</ele>
        <time>2022-05-23 12:05:27</time>
      </trkpt>
      <trkpt lat="42.05995" lon="0.75164">
        <ele>1343</ele>
        <time>2022-05-23 12:05:28</time>
      </trkpt>
      <trkpt lat="42.05994" lon="0.75162">
        <ele>1343.2</ele>
        <time>2022-05-23 12:05:29</time>
      </trkpt>
      <trkpt lat="42.05994" lon="0.7516">
        <ele>1343.4</ele>
        <time>2022-05-23 12:05:30</time>
      </trkpt>
      <trkpt lat="42.05994" lon="0.75158">
        <ele>1343.4</ele>
        <time>2022-05-23 12:05:31</time>
      </trkpt>
      <trkpt lat="42.05994" lon="0.75156">
        <ele>1343.6</ele>
        <time>2022-05-23 12:05:32</time>
      </trkpt>
      <trkpt lat="42.05994" lon="0.75155">
        <ele>1343.8</ele>
        <time>2022-05-23 12:05:33</time>
      </trkpt>
      <trkpt lat="42.05993" lon="0.75153">
        <ele>1344</ele>
        <time>2022-05-23 12:05:34</time>
      </trkpt>
      <trkpt lat="42.05992" lon="0.75151">
        <ele>1344.2</ele>
        <time>2022-05-23 12:05:35</time>
      </trkpt>
      <trkpt lat="42.05991" lon="0.75149">
        <ele>1344.4</ele>
        <time>2022-05-23 12:05:36</time>
      </trkpt>
      <trkpt lat="42.05991" lon="0.75148">
        <ele>1344.4</ele>
        <time>2022-05-23 12:05:37</time>
      </trkpt>
      <trkpt lat="42.05991" lon="0.75146">
        <ele>1344.6</ele>
        <time>2022-05-23 12:05:38</time>
      </trkpt>
      <trkpt lat="42.0599" lon="0.75144">
        <ele>1344.8</ele>
        <time>2022-05-23 12:05:39</time>
      </trkpt>
      <trkpt lat="42.0599" lon="0.75142">
        <ele>1345</ele>
        <time>2022-05-23 12:05:40</time>
      </trkpt>
      <trkpt lat="42.05989" lon="0.7514">
        <ele>1345</ele>
        <time>2022-05-23 12:05:41</time>
      </trkpt>
      <trkpt lat="42.05989" lon="0.75138">
        <ele>1345.2</ele>
        <time>2022-05-23 12:05:42</time>
      </trkpt>
      <trkpt lat="42.05989" lon="0.75137">
        <ele>1345.4</ele>
        <time>2022-05-23 12:05:43</time>
      </trkpt>
      <trkpt lat="42.05988" lon="0.75135">
        <ele>1345.6</ele>
        <time>2022-05-23 12:05:44</time>
      </trkpt>
      <trkpt lat="42.05988" lon="0.75133">
        <ele>1345.6</ele>
        <time>2022-05-23 12:05:45</time>
      </trkpt>
      <trkpt lat="42.05988" lon="0.75131">
        <ele>1345.8</ele>
        <time>2022-05-23 12:05:46</time>
      </trkpt>
      <trkpt lat="42.05987" lon="0.75129">
        <ele>1346</ele>
        <time>2022-05-23 12:05:47</time>
      </trkpt>
      <trkpt lat="42.05987" lon="0.75127">
        <ele>1346.2</ele>
        <time>2022-05-23 12:05:48</time>
      </trkpt>
      <trkpt lat="42.05986" lon="0.75126">
        <ele>1346.4</ele>
        <time>2022-05-23 12:05:49</time>
      </trkpt>
      <trkpt lat="42.05986" lon="0.75124">
        <ele>1346.6</ele>
        <time>2022-05-23 12:05:50</time>
      </trkpt>
      <trkpt lat="42.05986" lon="0.75122">
        <ele>1346.8</ele>
        <time>2022-05-23 12:05:51</time>
      </trkpt>
      <trkpt lat="42.05985" lon="0.7512">
        <ele>1347</ele>
        <time>2022-05-23 12:05:52</time>
      </trkpt>
      <trkpt lat="42.05984" lon="0.75118">
        <ele>1347</ele>
        <time>2022-05-23 12:05:53</time>
      </trkpt>
      <trkpt lat="42.05984" lon="0.75116">
        <ele>1347.2</ele>
        <time>2022-05-23 12:05:54</time>
      </trkpt>
      <trkpt lat="42.05983" lon="0.75114">
        <ele>1347.2</ele>
        <time>2022-05-23 12:05:55</time>
      </trkpt>
      <trkpt lat="42.05983" lon="0.75112">
        <ele>1347.4</ele>
        <time>2022-05-23 12:05:56</time>
      </trkpt>
      <trkpt lat="42.05982" lon="0.7511">
        <ele>1347.6</ele>
        <time>2022-05-23 12:05:57</time>
      </trkpt>
      <trkpt lat="42.05981" lon="0.75107">
        <ele>1347.6</ele>
        <time>2022-05-23 12:05:58</time>
      </trkpt>
      <trkpt lat="42.05981" lon="0.75106">
        <ele>1347.8</ele>
        <time>2022-05-23 12:05:59</time>
      </trkpt>
      <trkpt lat="42.05981" lon="0.75104">
        <ele>1348</ele>
        <time>2022-05-23 12:06:00</time>
      </trkpt>
      <trkpt lat="42.0598" lon="0.75103">
        <ele>1348</ele>
        <time>2022-05-23 12:06:01</time>
      </trkpt>
      <trkpt lat="42.0598" lon="0.75101">
        <ele>1348</ele>
        <time>2022-05-23 12:06:02</time>
      </trkpt>
      <trkpt lat="42.0598" lon="0.75099">
        <ele>1348.2</ele>
        <time>2022-05-23 12:06:03</time>
      </trkpt>
      <trkpt lat="42.05979" lon="0.75097">
        <ele>1348.2</ele>
        <time>2022-05-23 12:06:04</time>
      </trkpt>
      <trkpt lat="42.05978" lon="0.75095">
        <ele>1348.4</ele>
        <time>2022-05-23 12:06:05</time>
      </trkpt>
      <trkpt lat="42.05977" lon="0.75093">
        <ele>1348.6</ele>
        <time>2022-05-23 12:06:06</time>
      </trkpt>
      <trkpt lat="42.05976" lon="0.75091">
        <ele>1348.6</ele>
        <time>2022-05-23 12:06:07</time>
      </trkpt>
      <trkpt lat="42.05974" lon="0.75089">
        <ele>1348.8</ele>
        <time>2022-05-23 12:06:08</time>
      </trkpt>
      <trkpt lat="42.05973" lon="0.75087">
        <ele>1349</ele>
        <time>2022-05-23 12:06:09</time>
      </trkpt>
      <trkpt lat="42.0597" lon="0.75086">
        <ele>1349</ele>
        <time>2022-05-23 12:06:10</time>
      </trkpt>
      <trkpt lat="42.05969" lon="0.75085">
        <ele>1349.2</ele>
        <time>2022-05-23 12:06:11</time>
      </trkpt>
      <trkpt lat="42.05967" lon="0.75085">
        <ele>1349.4</ele>
        <time>2022-05-23 12:06:12</time>
      </trkpt>
      <trkpt lat="42.05965" lon="0.75085">
        <ele>1349.4</ele>
        <time>2022-05-23 12:06:13</time>
      </trkpt>
      <trkpt lat="42.05964" lon="0.75085">
        <ele>1349.6</ele>
        <time>2022-05-23 12:06:14</time>
      </trkpt>
      <trkpt lat="42.05963" lon="0.75086">
        <ele>1349.8</ele>
        <time>2022-05-23 12:06:15</time>
      </trkpt>
      <trkpt lat="42.05962" lon="0.75087">
        <ele>1349.8</ele>
        <time>2022-05-23 12:06:16</time>
      </trkpt>
      <trkpt lat="42.05961" lon="0.75088">
        <ele>1350</ele>
        <time>2022-05-23 12:06:17</time>
      </trkpt>
      <trkpt lat="42.0596" lon="0.75089">
        <ele>1350.2</ele>
        <time>2022-05-23 12:06:18</time>
      </trkpt>
      <trkpt lat="42.05958" lon="0.7509">
        <ele>1350.4</ele>
        <time>2022-05-23 12:06:19</time>
      </trkpt>
      <trkpt lat="42.05956" lon="0.75091">
        <ele>1350.4</ele>
        <time>2022-05-23 12:06:20</time>
      </trkpt>
      <trkpt lat="42.05955" lon="0.75092">
        <ele>1350.6</ele>
        <time>2022-05-23 12:06:21</time>
      </trkpt>
      <trkpt lat="42.05954" lon="0.75093">
        <ele>1350.8</ele>
        <time>2022-05-23 12:06:22</time>
      </trkpt>
      <trkpt lat="42.05953" lon="0.75094">
        <ele>1350.8</ele>
        <time>2022-05-23 12:06:23</time>
      </trkpt>
      <trkpt lat="42.05952" lon="0.75095">
        <ele>1351</ele>
        <time>2022-05-23 12:06:24</time>
      </trkpt>
      <trkpt lat="42.05951" lon="0.75096">
        <ele>1351.2</ele>
        <time>2022-05-23 12:06:25</time>
      </trkpt>
      <trkpt lat="42.0595" lon="0.75098">
        <ele>1351.2</ele>
        <time>2022-05-23 12:06:26</time>
      </trkpt>
      <trkpt lat="42.05949" lon="0.75099">
        <ele>1351.4</ele>
        <time>2022-05-23 12:06:27</time>
      </trkpt>
      <trkpt lat="42.05948" lon="0.75101">
        <ele>1351.6</ele>
        <time>2022-05-23 12:06:28</time>
      </trkpt>
      <trkpt lat="42.05947" lon="0.75103">
        <ele>1351.8</ele>
        <time>2022-05-23 12:06:29</time>
      </trkpt>
      <trkpt lat="42.05946" lon="0.75105">
        <ele>1351.8</ele>
        <time>2022-05-23 12:06:30</time>
      </trkpt>
      <trkpt lat="42.05945" lon="0.75107">
        <ele>1352</ele>
        <time>2022-05-23 12:06:31</time>
      </trkpt>
      <trkpt lat="42.05944" lon="0.75109">
        <ele>1352</ele>
        <time>2022-05-23 12:06:32</time>
      </trkpt>
      <trkpt lat="42.05942" lon="0.75111">
        <ele>1352.2</ele>
        <time>2022-05-23 12:06:33</time>
      </trkpt>
      <trkpt lat="42.05941" lon="0.75113">
        <ele>1352.4</ele>
        <time>2022-05-23 12:06:34</time>
      </trkpt>
      <trkpt lat="42.0594" lon="0.75115">
        <ele>1352.4</ele>
        <time>2022-05-23 12:06:35</time>
      </trkpt>
      <trkpt lat="42.05939" lon="0.75117">
        <ele>1352.6</ele>
        <time>2022-05-23 12:06:36</time>
      </trkpt>
      <trkpt lat="42.05938" lon="0.75119">
        <ele>1352.6</ele>
        <time>2022-05-23 12:06:37</time>
      </trkpt>
      <trkpt lat="42.05936" lon="0.75121">
        <ele>1352.8</ele>
        <time>2022-05-23 12:06:38</time>
      </trkpt>
      <trkpt lat="42.05935" lon="0.75123">
        <ele>1353</ele>
        <time>2022-05-23 12:06:39</time>
      </trkpt>
      <trkpt lat="42.05934" lon="0.75125">
        <ele>1353</ele>
        <time>2022-05-23 12:06:40</time>
      </trkpt>
      <trkpt lat="42.05933" lon="0.75127">
        <ele>1353.2</ele>
        <time>2022-05-23 12:06:41</time>
      </trkpt>
      <trkpt lat="42.05931" lon="0.75129">
        <ele>1353.2</ele>
        <time>2022-05-23 12:06:42</time>
      </trkpt>
      <trkpt lat="42.0593" lon="0.7513">
        <ele>1353.4</ele>
        <time>2022-05-23 12:06:43</time>
      </trkpt>
      <trkpt lat="42.05928" lon="0.75131">
        <ele>1353.4</ele>
        <time>2022-05-23 12:06:44</time>
      </trkpt>
      <trkpt lat="42.05926" lon="0.75132">
        <ele>1353.6</ele>
        <time>2022-05-23 12:06:45</time>
      </trkpt>
      <trkpt lat="42.05925" lon="0.75133">
        <ele>1353.6</ele>
        <time>2022-05-23 12:06:46</time>
      </trkpt>
      <trkpt lat="42.05923" lon="0.75134">
        <ele>1353.8</ele>
        <time>2022-05-23 12:06:47</time>
      </trkpt>
      <trkpt lat="42.05921" lon="0.75135">
        <ele>1353.8</ele>
        <time>2022-05-23 12:06:48</time>
      </trkpt>
      <trkpt lat="42.0592" lon="0.75136">
        <ele>1354</ele>
        <time>2022-05-23 12:06:49</time>
      </trkpt>
      <trkpt lat="42.05918" lon="0.75137">
        <ele>1354.2</ele>
        <time>2022-05-23 12:06:50</time>
      </trkpt>
      <trkpt lat="42.05917" lon="0.75138">
        <ele>1354.2</ele>
        <time>2022-05-23 12:06:51</time>
      </trkpt>
      <trkpt lat="42.05915" lon="0.75139">
        <ele>1354.4</ele>
        <time>2022-05-23 12:06:52</time>
      </trkpt>
      <trkpt lat="42.05913" lon="0.7514">
        <ele>1354.6</ele>
        <time>2022-05-23 12:06:53</time>
      </trkpt>
      <trkpt lat="42.05912" lon="0.75141">
        <ele>1354.6</ele>
        <time>2022-05-23 12:06:54</time>
      </trkpt>
      <trkpt lat="42.0591" lon="0.75142">
        <ele>1354.8</ele>
        <time>2022-05-23 12:06:55</time>
      </trkpt>
      <trkpt lat="42.05909" lon="0.75143">
        <ele>1355</ele>
        <time>2022-05-23 12:06:56</time>
      </trkpt>
      <trkpt lat="42.05907" lon="0.75144">
        <ele>1355</ele>
        <time>2022-05-23 12:06:57</time>
      </trkpt>
      <trkpt lat="42.05906" lon="0.75145">
        <ele>1355.2</ele>
        <time>2022-05-23 12:06:58</time>
      </trkpt>
      <trkpt lat="42.05904" lon="0.75146">
        <ele>1355.4</ele>
        <time>2022-05-23 12:06:59</time>
      </trkpt>
      <trkpt lat="42.05902" lon="0.75147">
        <ele>1355.6</ele>
        <time>2022-05-23 12:07:00</time>
      </trkpt>
      <trkpt lat="42.05901" lon="0.75148">
        <ele>1355.6</ele>
        <time>2022-05-23 12:07:01</time>
      </trkpt>
      <trkpt lat="42.05899" lon="0.75149">
        <ele>1355.8</ele>
        <time>2022-05-23 12:07:02</time>
      </trkpt>
      <trkpt lat="42.05897" lon="0.7515">
        <ele>1356</ele>
        <time>2022-05-23 12:07:03</time>
      </trkpt>
      <trkpt lat="42.05896" lon="0.7515">
        <ele>1356</ele>
        <time>2022-05-23 12:07:04</time>
      </trkpt>
      <trkpt lat="42.05894" lon="0.75151">
        <ele>1356.2</ele>
        <time>2022-05-23 12:07:05</time>
      </trkpt>
      <trkpt lat="42.05893" lon="0.75152">
        <ele>1356.4</ele>
        <time>2022-05-23 12:07:06</time>
      </trkpt>
      <trkpt lat="42.05891" lon="0.75153">
        <ele>1356.6</ele>
        <time>2022-05-23 12:07:07</time>
      </trkpt>
      <trkpt lat="42.05889" lon="0.75153">
        <ele>1356.8</ele>
        <time>2022-05-23 12:07:08</time>
      </trkpt>
      <trkpt lat="42.05888" lon="0.75154">
        <ele>1356.8</ele>
        <time>2022-05-23 12:07:09</time>
      </trkpt>
      <trkpt lat="42.05886" lon="0.75155">
        <ele>1357</ele>
        <time>2022-05-23 12:07:10</time>
      </trkpt>
      <trkpt lat="42.05884" lon="0.75156">
        <ele>1357</ele>
        <time>2022-05-23 12:07:11</time>
      </trkpt>
      <trkpt lat="42.05883" lon="0.75157">
        <ele>1357.2</ele>
        <time>2022-05-23 12:07:12</time>
      </trkpt>
      <trkpt lat="42.05881" lon="0.75158">
        <ele>1357.4</ele>
        <time>2022-05-23 12:07:13</time>
      </trkpt>
      <trkpt lat="42.05879" lon="0.75159">
        <ele>1357.4</ele>
        <time>2022-05-23 12:07:14</time>
      </trkpt>
      <trkpt lat="42.05877" lon="0.7516">
        <ele>1357.6</ele>
        <time>2022-05-23 12:07:15</time>
      </trkpt>
      <trkpt lat="42.05875" lon="0.75161">
        <ele>1357.8</ele>
        <time>2022-05-23 12:07:16</time>
      </trkpt>
      <trkpt lat="42.05874" lon="0.75162">
        <ele>1357.8</ele>
        <time>2022-05-23 12:07:17</time>
      </trkpt>
      <trkpt lat="42.05873" lon="0.75164">
        <ele>1358</ele>
        <time>2022-05-23 12:07:18</time>
      </trkpt>
      <trkpt lat="42.05871" lon="0.75165">
        <ele>1358.2</ele>
        <time>2022-05-23 12:07:19</time>
      </trkpt>
      <trkpt lat="42.05869" lon="0.75167">
        <ele>1358.4</ele>
        <time>2022-05-23 12:07:20</time>
      </trkpt>
      <trkpt lat="42.05867" lon="0.75169">
        <ele>1358.6</ele>
        <time>2022-05-23 12:07:21</time>
      </trkpt>
      <trkpt lat="42.05866" lon="0.7517">
        <ele>1358.8</ele>
        <time>2022-05-23 12:07:22</time>
      </trkpt>
      <trkpt lat="42.05865" lon="0.75172">
        <ele>1358.8</ele>
        <time>2022-05-23 12:07:23</time>
      </trkpt>
      <trkpt lat="42.05863" lon="0.75173">
        <ele>1359</ele>
        <time>2022-05-23 12:07:24</time>
      </trkpt>
      <trkpt lat="42.05862" lon="0.75175">
        <ele>1359.2</ele>
        <time>2022-05-23 12:07:25</time>
      </trkpt>
      <trkpt lat="42.0586" lon="0.75177">
        <ele>1359.4</ele>
        <time>2022-05-23 12:07:26</time>
      </trkpt>
      <trkpt lat="42.05859" lon="0.75178">
        <ele>1359.6</ele>
        <time>2022-05-23 12:07:27</time>
      </trkpt>
      <trkpt lat="42.05858" lon="0.7518">
        <ele>1359.6</ele>
        <time>2022-05-23 12:07:28</time>
      </trkpt>
      <trkpt lat="42.05857" lon="0.75181">
        <ele>1359.8</ele>
        <time>2022-05-23 12:07:29</time>
      </trkpt>
      <trkpt lat="42.05855" lon="0.75182">
        <ele>1360</ele>
        <time>2022-05-23 12:07:30</time>
      </trkpt>
      <trkpt lat="42.05854" lon="0.75183">
        <ele>1360.2</ele>
        <time>2022-05-23 12:07:31</time>
      </trkpt>
      <trkpt lat="42.05852" lon="0.75185">
        <ele>1360.4</ele>
        <time>2022-05-23 12:07:32</time>
      </trkpt>
      <trkpt lat="42.05851" lon="0.75186">
        <ele>1360.4</ele>
        <time>2022-05-23 12:07:33</time>
      </trkpt>
      <trkpt lat="42.05849" lon="0.75187">
        <ele>1360.6</ele>
        <time>2022-05-23 12:07:34</time>
      </trkpt>
      <trkpt lat="42.05847" lon="0.75187">
        <ele>1360.8</ele>
        <time>2022-05-23 12:07:35</time>
      </trkpt>
      <trkpt lat="42.05845" lon="0.75187">
        <ele>1360.8</ele>
        <time>2022-05-23 12:07:36</time>
      </trkpt>
      <trkpt lat="42.05843" lon="0.75187">
        <ele>1361</ele>
        <time>2022-05-23 12:07:37</time>
      </trkpt>
      <trkpt lat="42.05841" lon="0.75187">
        <ele>1361</ele>
        <time>2022-05-23 12:07:38</time>
      </trkpt>
      <trkpt lat="42.05839" lon="0.75186">
        <ele>1361</ele>
        <time>2022-05-23 12:07:39</time>
      </trkpt>
      <trkpt lat="42.05838" lon="0.75184">
        <ele>1361.2</ele>
        <time>2022-05-23 12:07:40</time>
      </trkpt>
      <trkpt lat="42.05837" lon="0.75182">
        <ele>1361.4</ele>
        <time>2022-05-23 12:07:41</time>
      </trkpt>
      <trkpt lat="42.05836" lon="0.75179">
        <ele>1361.4</ele>
        <time>2022-05-23 12:07:42</time>
      </trkpt>
      <trkpt lat="42.05836" lon="0.75176">
        <ele>1361.8</ele>
        <time>2022-05-23 12:07:43</time>
      </trkpt>
      <trkpt lat="42.05836" lon="0.75174">
        <ele>1362</ele>
        <time>2022-05-23 12:07:44</time>
      </trkpt>
      <trkpt lat="42.05836" lon="0.75171">
        <ele>1362.2</ele>
        <time>2022-05-23 12:07:45</time>
      </trkpt>
      <trkpt lat="42.05836" lon="0.75169">
        <ele>1362.4</ele>
        <time>2022-05-23 12:07:46</time>
      </trkpt>
      <trkpt lat="42.05836" lon="0.75167">
        <ele>1362.8</ele>
        <time>2022-05-23 12:07:47</time>
      </trkpt>
      <trkpt lat="42.05836" lon="0.75164">
        <ele>1363</ele>
        <time>2022-05-23 12:07:48</time>
      </trkpt>
      <trkpt lat="42.05835" lon="0.75162">
        <ele>1363.2</ele>
        <time>2022-05-23 12:07:49</time>
      </trkpt>
      <trkpt lat="42.05835" lon="0.75159">
        <ele>1363.4</ele>
        <time>2022-05-23 12:07:50</time>
      </trkpt>
      <trkpt lat="42.05835" lon="0.75157">
        <ele>1363.6</ele>
        <time>2022-05-23 12:07:51</time>
      </trkpt>
      <trkpt lat="42.05834" lon="0.75155">
        <ele>1363.8</ele>
        <time>2022-05-23 12:07:52</time>
      </trkpt>
      <trkpt lat="42.05834" lon="0.75153">
        <ele>1364</ele>
        <time>2022-05-23 12:07:53</time>
      </trkpt>
      <trkpt lat="42.05834" lon="0.7515">
        <ele>1364.2</ele>
        <time>2022-05-23 12:07:54</time>
      </trkpt>
      <trkpt lat="42.05834" lon="0.75148">
        <ele>1364.4</ele>
        <time>2022-05-23 12:07:55</time>
      </trkpt>
      <trkpt lat="42.05833" lon="0.75146">
        <ele>1364.6</ele>
        <time>2022-05-23 12:07:56</time>
      </trkpt>
      <trkpt lat="42.05833" lon="0.75145">
        <ele>1364.8</ele>
        <time>2022-05-23 12:07:57</time>
      </trkpt>
      <trkpt lat="42.05833" lon="0.75143">
        <ele>1365</ele>
        <time>2022-05-23 12:07:58</time>
      </trkpt>
      <trkpt lat="42.05833" lon="0.75143">
        <ele>1365.2</ele>
        <time>2022-05-23 12:07:59</time>
      </trkpt>
      <trkpt lat="42.05832" lon="0.75142">
        <ele>1365.4</ele>
        <time>2022-05-23 12:08:00</time>
      </trkpt>
      <trkpt lat="42.05832" lon="0.7514">
        <ele>1365.6</ele>
        <time>2022-05-23 12:08:01</time>
      </trkpt>
      <trkpt lat="42.05832" lon="0.75138">
        <ele>1365.6</ele>
        <time>2022-05-23 12:08:02</time>
      </trkpt>
      <trkpt lat="42.05832" lon="0.75137">
        <ele>1365.8</ele>
        <time>2022-05-23 12:08:03</time>
      </trkpt>
      <trkpt lat="42.05832" lon="0.75135">
        <ele>1365.8</ele>
        <time>2022-05-23 12:08:04</time>
      </trkpt>
      <trkpt lat="42.05832" lon="0.75132">
        <ele>1366</ele>
        <time>2022-05-23 12:08:05</time>
      </trkpt>
      <trkpt lat="42.05832" lon="0.75131">
        <ele>1366.2</ele>
        <time>2022-05-23 12:08:06</time>
      </trkpt>
      <trkpt lat="42.05832" lon="0.75128">
        <ele>1366.4</ele>
        <time>2022-05-23 12:08:07</time>
      </trkpt>
      <trkpt lat="42.05831" lon="0.75126">
        <ele>1366.4</ele>
        <time>2022-05-23 12:08:08</time>
      </trkpt>
      <trkpt lat="42.05831" lon="0.75124">
        <ele>1366.4</ele>
        <time>2022-05-23 12:08:09</time>
      </trkpt>
      <trkpt lat="42.0583" lon="0.75121">
        <ele>1366.6</ele>
        <time>2022-05-23 12:08:10</time>
      </trkpt>
      <trkpt lat="42.0583" lon="0.75119">
        <ele>1366.8</ele>
        <time>2022-05-23 12:08:11</time>
      </trkpt>
      <trkpt lat="42.0583" lon="0.75116">
        <ele>1366.8</ele>
        <time>2022-05-23 12:08:12</time>
      </trkpt>
      <trkpt lat="42.0583" lon="0.75114">
        <ele>1367</ele>
        <time>2022-05-23 12:08:13</time>
      </trkpt>
      <trkpt lat="42.0583" lon="0.75112">
        <ele>1367.2</ele>
        <time>2022-05-23 12:08:14</time>
      </trkpt>
      <trkpt lat="42.0583" lon="0.7511">
        <ele>1367.2</ele>
        <time>2022-05-23 12:08:15</time>
      </trkpt>
      <trkpt lat="42.0583" lon="0.75108">
        <ele>1367.4</ele>
        <time>2022-05-23 12:08:16</time>
      </trkpt>
      <trkpt lat="42.0583" lon="0.75106">
        <ele>1367.6</ele>
        <time>2022-05-23 12:08:17</time>
      </trkpt>
      <trkpt lat="42.05829" lon="0.75104">
        <ele>1367.8</ele>
        <time>2022-05-23 12:08:18</time>
      </trkpt>
      <trkpt lat="42.05828" lon="0.75102">
        <ele>1367.8</ele>
        <time>2022-05-23 12:08:19</time>
      </trkpt>
      <trkpt lat="42.05828" lon="0.751">
        <ele>1368</ele>
        <time>2022-05-23 12:08:20</time>
      </trkpt>
      <trkpt lat="42.05828" lon="0.75098">
        <ele>1368.2</ele>
        <time>2022-05-23 12:08:21</time>
      </trkpt>
      <trkpt lat="42.05828" lon="0.75096">
        <ele>1368.2</ele>
        <time>2022-05-23 12:08:22</time>
      </trkpt>
      <trkpt lat="42.05828" lon="0.75094">
        <ele>1368.4</ele>
        <time>2022-05-23 12:08:23</time>
      </trkpt>
      <trkpt lat="42.05828" lon="0.75092">
        <ele>1368.4</ele>
        <time>2022-05-23 12:08:24</time>
      </trkpt>
      <trkpt lat="42.05827" lon="0.7509">
        <ele>1368.6</ele>
        <time>2022-05-23 12:08:25</time>
      </trkpt>
      <trkpt lat="42.05827" lon="0.75088">
        <ele>1368.6</ele>
        <time>2022-05-23 12:08:26</time>
      </trkpt>
      <trkpt lat="42.05827" lon="0.75086">
        <ele>1368.8</ele>
        <time>2022-05-23 12:08:27</time>
      </trkpt>
      <trkpt lat="42.05827" lon="0.75084">
        <ele>1369</ele>
        <time>2022-05-23 12:08:28</time>
      </trkpt>
      <trkpt lat="42.05827" lon="0.75082">
        <ele>1369</ele>
        <time>2022-05-23 12:08:29</time>
      </trkpt>
      <trkpt lat="42.05826" lon="0.75081">
        <ele>1369.2</ele>
        <time>2022-05-23 12:08:30</time>
      </trkpt>
      <trkpt lat="42.05826" lon="0.75078">
        <ele>1369.4</ele>
        <time>2022-05-23 12:08:31</time>
      </trkpt>
      <trkpt lat="42.05825" lon="0.75076">
        <ele>1369.4</ele>
        <time>2022-05-23 12:08:32</time>
      </trkpt>
      <trkpt lat="42.05825" lon="0.75074">
        <ele>1369.6</ele>
        <time>2022-05-23 12:08:33</time>
      </trkpt>
      <trkpt lat="42.05825" lon="0.75072">
        <ele>1369.6</ele>
        <time>2022-05-23 12:08:34</time>
      </trkpt>
      <trkpt lat="42.05825" lon="0.75069">
        <ele>1369.8</ele>
        <time>2022-05-23 12:08:35</time>
      </trkpt>
      <trkpt lat="42.05825" lon="0.75067">
        <ele>1370</ele>
        <time>2022-05-23 12:08:36</time>
      </trkpt>
      <trkpt lat="42.05825" lon="0.75065">
        <ele>1370.2</ele>
        <time>2022-05-23 12:08:37</time>
      </trkpt>
      <trkpt lat="42.05824" lon="0.75063">
        <ele>1370.4</ele>
        <time>2022-05-23 12:08:38</time>
      </trkpt>
      <trkpt lat="42.05824" lon="0.75061">
        <ele>1370.6</ele>
        <time>2022-05-23 12:08:39</time>
      </trkpt>
      <trkpt lat="42.05823" lon="0.75059">
        <ele>1370.8</ele>
        <time>2022-05-23 12:08:40</time>
      </trkpt>
      <trkpt lat="42.05822" lon="0.75056">
        <ele>1371</ele>
        <time>2022-05-23 12:08:41</time>
      </trkpt>
      <trkpt lat="42.05822" lon="0.75054">
        <ele>1371</ele>
        <time>2022-05-23 12:08:42</time>
      </trkpt>
      <trkpt lat="42.05822" lon="0.75052">
        <ele>1371</ele>
        <time>2022-05-23 12:08:43</time>
      </trkpt>
      <trkpt lat="42.05821" lon="0.7505">
        <ele>1371.2</ele>
        <time>2022-05-23 12:08:44</time>
      </trkpt>
      <trkpt lat="42.0582" lon="0.75048">
        <ele>1371.2</ele>
        <time>2022-05-23 12:08:45</time>
      </trkpt>
      <trkpt lat="42.05819" lon="0.75046">
        <ele>1371.2</ele>
        <time>2022-05-23 12:08:46</time>
      </trkpt>
      <trkpt lat="42.05819" lon="0.75044">
        <ele>1371.4</ele>
        <time>2022-05-23 12:08:47</time>
      </trkpt>
      <trkpt lat="42.05819" lon="0.75041">
        <ele>1371.4</ele>
        <time>2022-05-23 12:08:48</time>
      </trkpt>
      <trkpt lat="42.05818" lon="0.75039">
        <ele>1371.4</ele>
        <time>2022-05-23 12:08:49</time>
      </trkpt>
      <trkpt lat="42.05817" lon="0.75038">
        <ele>1371.6</ele>
        <time>2022-05-23 12:08:50</time>
      </trkpt>
      <trkpt lat="42.05816" lon="0.75036">
        <ele>1371.6</ele>
        <time>2022-05-23 12:08:51</time>
      </trkpt>
      <trkpt lat="42.05816" lon="0.75033">
        <ele>1371.8</ele>
        <time>2022-05-23 12:08:52</time>
      </trkpt>
      <trkpt lat="42.05815" lon="0.75031">
        <ele>1372</ele>
        <time>2022-05-23 12:08:53</time>
      </trkpt>
      <trkpt lat="42.05815" lon="0.75029">
        <ele>1372</ele>
        <time>2022-05-23 12:08:54</time>
      </trkpt>
      <trkpt lat="42.05815" lon="0.75026">
        <ele>1372.2</ele>
        <time>2022-05-23 12:08:55</time>
      </trkpt>
      <trkpt lat="42.05814" lon="0.75025">
        <ele>1372.4</ele>
        <time>2022-05-23 12:08:56</time>
      </trkpt>
      <trkpt lat="42.05813" lon="0.75023">
        <ele>1372.6</ele>
        <time>2022-05-23 12:08:57</time>
      </trkpt>
      <trkpt lat="42.05813" lon="0.7502">
        <ele>1372.8</ele>
        <time>2022-05-23 12:08:58</time>
      </trkpt>
      <trkpt lat="42.05812" lon="0.75018">
        <ele>1372.8</ele>
        <time>2022-05-23 12:08:59</time>
      </trkpt>
      <trkpt lat="42.05812" lon="0.75017">
        <ele>1372.8</ele>
        <time>2022-05-23 12:09:00</time>
      </trkpt>
      <trkpt lat="42.05811" lon="0.75014">
        <ele>1373</ele>
        <time>2022-05-23 12:09:01</time>
      </trkpt>
      <trkpt lat="42.05811" lon="0.75012">
        <ele>1373</ele>
        <time>2022-05-23 12:09:02</time>
      </trkpt>
      <trkpt lat="42.0581" lon="0.7501">
        <ele>1373.2</ele>
        <time>2022-05-23 12:09:03</time>
      </trkpt>
      <trkpt lat="42.05809" lon="0.75008">
        <ele>1373.2</ele>
        <time>2022-05-23 12:09:04</time>
      </trkpt>
      <trkpt lat="42.05809" lon="0.75007">
        <ele>1373.4</ele>
        <time>2022-05-23 12:09:05</time>
      </trkpt>
      <trkpt lat="42.05808" lon="0.75005">
        <ele>1373.6</ele>
        <time>2022-05-23 12:09:06</time>
      </trkpt>
      <trkpt lat="42.05807" lon="0.75003">
        <ele>1373.6</ele>
        <time>2022-05-23 12:09:07</time>
      </trkpt>
      <trkpt lat="42.05807" lon="0.75001">
        <ele>1373.8</ele>
        <time>2022-05-23 12:09:08</time>
      </trkpt>
      <trkpt lat="42.05806" lon="0.75">
        <ele>1373.8</ele>
        <time>2022-05-23 12:09:09</time>
      </trkpt>
      <trkpt lat="42.05806" lon="0.74998">
        <ele>1374</ele>
        <time>2022-05-23 12:09:10</time>
      </trkpt>
      <trkpt lat="42.05806" lon="0.74996">
        <ele>1374</ele>
        <time>2022-05-23 12:09:11</time>
      </trkpt>
      <trkpt lat="42.05805" lon="0.74994">
        <ele>1374.2</ele>
        <time>2022-05-23 12:09:12</time>
      </trkpt>
      <trkpt lat="42.05805" lon="0.74992">
        <ele>1374.2</ele>
        <time>2022-05-23 12:09:13</time>
      </trkpt>
      <trkpt lat="42.05805" lon="0.74989">
        <ele>1374.2</ele>
        <time>2022-05-23 12:09:14</time>
      </trkpt>
      <trkpt lat="42.05804" lon="0.74987">
        <ele>1374.2</ele>
        <time>2022-05-23 12:09:15</time>
      </trkpt>
      <trkpt lat="42.05803" lon="0.74985">
        <ele>1374.4</ele>
        <time>2022-05-23 12:09:16</time>
      </trkpt>
      <trkpt lat="42.05803" lon="0.74983">
        <ele>1374.4</ele>
        <time>2022-05-23 12:09:17</time>
      </trkpt>
      <trkpt lat="42.05802" lon="0.74981">
        <ele>1374.6</ele>
        <time>2022-05-23 12:09:18</time>
      </trkpt>
      <trkpt lat="42.05802" lon="0.74979">
        <ele>1374.6</ele>
        <time>2022-05-23 12:09:19</time>
      </trkpt>
      <trkpt lat="42.05801" lon="0.74978">
        <ele>1374.8</ele>
        <time>2022-05-23 12:09:20</time>
      </trkpt>
      <trkpt lat="42.05801" lon="0.74975">
        <ele>1375</ele>
        <time>2022-05-23 12:09:21</time>
      </trkpt>
      <trkpt lat="42.058" lon="0.74973">
        <ele>1375</ele>
        <time>2022-05-23 12:09:22</time>
      </trkpt>
      <trkpt lat="42.05799" lon="0.74971">
        <ele>1375</ele>
        <time>2022-05-23 12:09:23</time>
      </trkpt>
      <trkpt lat="42.05799" lon="0.74969">
        <ele>1375</ele>
        <time>2022-05-23 12:09:24</time>
      </trkpt>
      <trkpt lat="42.05799" lon="0.74967">
        <ele>1375</ele>
        <time>2022-05-23 12:09:25</time>
      </trkpt>
      <trkpt lat="42.05798" lon="0.74966">
        <ele>1375</ele>
        <time>2022-05-23 12:09:26</time>
      </trkpt>
      <trkpt lat="42.05798" lon="0.74964">
        <ele>1375.2</ele>
        <time>2022-05-23 12:09:27</time>
      </trkpt>
      <trkpt lat="42.05797" lon="0.74961">
        <ele>1375.2</ele>
        <time>2022-05-23 12:09:28</time>
      </trkpt>
      <trkpt lat="42.05796" lon="0.74959">
        <ele>1375.4</ele>
        <time>2022-05-23 12:09:29</time>
      </trkpt>
      <trkpt lat="42.05796" lon="0.74957">
        <ele>1375.6</ele>
        <time>2022-05-23 12:09:30</time>
      </trkpt>
      <trkpt lat="42.05795" lon="0.74955">
        <ele>1375.8</ele>
        <time>2022-05-23 12:09:31</time>
      </trkpt>
      <trkpt lat="42.05795" lon="0.74952">
        <ele>1375.8</ele>
        <time>2022-05-23 12:09:32</time>
      </trkpt>
      <trkpt lat="42.05795" lon="0.74949">
        <ele>1376</ele>
        <time>2022-05-23 12:09:33</time>
      </trkpt>
      <trkpt lat="42.05794" lon="0.74945">
        <ele>1376.2</ele>
        <time>2022-05-23 12:09:34</time>
      </trkpt>
      <trkpt lat="42.05793" lon="0.74942">
        <ele>1376.4</ele>
        <time>2022-05-23 12:09:35</time>
      </trkpt>
      <trkpt lat="42.05793" lon="0.74939">
        <ele>1376.6</ele>
        <time>2022-05-23 12:09:36</time>
      </trkpt>
      <trkpt lat="42.05793" lon="0.74936">
        <ele>1376.6</ele>
        <time>2022-05-23 12:09:37</time>
      </trkpt>
      <trkpt lat="42.05792" lon="0.74933">
        <ele>1376.8</ele>
        <time>2022-05-23 12:09:38</time>
      </trkpt>
      <trkpt lat="42.05791" lon="0.74929">
        <ele>1377</ele>
        <time>2022-05-23 12:09:39</time>
      </trkpt>
      <trkpt lat="42.05791" lon="0.74925">
        <ele>1377.2</ele>
        <time>2022-05-23 12:09:40</time>
      </trkpt>
      <trkpt lat="42.0579" lon="0.74921">
        <ele>1377.2</ele>
        <time>2022-05-23 12:09:41</time>
      </trkpt>
      <trkpt lat="42.05789" lon="0.74917">
        <ele>1377.4</ele>
        <time>2022-05-23 12:09:42</time>
      </trkpt>
      <trkpt lat="42.05788" lon="0.74914">
        <ele>1377.6</ele>
        <time>2022-05-23 12:09:43</time>
      </trkpt>
      <trkpt lat="42.05787" lon="0.74911">
        <ele>1377.8</ele>
        <time>2022-05-23 12:09:44</time>
      </trkpt>
      <trkpt lat="42.05786" lon="0.74908">
        <ele>1378.2</ele>
        <time>2022-05-23 12:09:45</time>
      </trkpt>
      <trkpt lat="42.05786" lon="0.74905">
        <ele>1378.4</ele>
        <time>2022-05-23 12:09:46</time>
      </trkpt>
      <trkpt lat="42.05785" lon="0.74901">
        <ele>1378.6</ele>
        <time>2022-05-23 12:09:47</time>
      </trkpt>
      <trkpt lat="42.05784" lon="0.74898">
        <ele>1378.6</ele>
        <time>2022-05-23 12:09:48</time>
      </trkpt>
      <trkpt lat="42.05784" lon="0.74895">
        <ele>1378.8</ele>
        <time>2022-05-23 12:09:49</time>
      </trkpt>
      <trkpt lat="42.05784" lon="0.74893">
        <ele>1379</ele>
        <time>2022-05-23 12:09:50</time>
      </trkpt>
      <trkpt lat="42.05783" lon="0.7489">
        <ele>1379</ele>
        <time>2022-05-23 12:09:51</time>
      </trkpt>
      <trkpt lat="42.05783" lon="0.74887">
        <ele>1379.2</ele>
        <time>2022-05-23 12:09:52</time>
      </trkpt>
      <trkpt lat="42.05782" lon="0.74885">
        <ele>1379.4</ele>
        <time>2022-05-23 12:09:53</time>
      </trkpt>
      <trkpt lat="42.05782" lon="0.74882">
        <ele>1379.4</ele>
        <time>2022-05-23 12:09:54</time>
      </trkpt>
      <trkpt lat="42.05781" lon="0.74879">
        <ele>1379.6</ele>
        <time>2022-05-23 12:09:55</time>
      </trkpt>
      <trkpt lat="42.05781" lon="0.74876">
        <ele>1379.8</ele>
        <time>2022-05-23 12:09:56</time>
      </trkpt>
      <trkpt lat="42.0578" lon="0.74874">
        <ele>1379.8</ele>
        <time>2022-05-23 12:09:57</time>
      </trkpt>
      <trkpt lat="42.0578" lon="0.74871">
        <ele>1380</ele>
        <time>2022-05-23 12:09:58</time>
      </trkpt>
      <trkpt lat="42.0578" lon="0.74869">
        <ele>1380.2</ele>
        <time>2022-05-23 12:09:59</time>
      </trkpt>
      <trkpt lat="42.0578" lon="0.74866">
        <ele>1380.2</ele>
        <time>2022-05-23 12:10:00</time>
      </trkpt>
      <trkpt lat="42.05779" lon="0.74864">
        <ele>1380.2</ele>
        <time>2022-05-23 12:10:01</time>
      </trkpt>
      <trkpt lat="42.05778" lon="0.74861">
        <ele>1380.4</ele>
        <time>2022-05-23 12:10:02</time>
      </trkpt>
      <trkpt lat="42.05778" lon="0.74859">
        <ele>1380.4</ele>
        <time>2022-05-23 12:10:03</time>
      </trkpt>
      <trkpt lat="42.05777" lon="0.74856">
        <ele>1380.6</ele>
        <time>2022-05-23 12:10:04</time>
      </trkpt>
      <trkpt lat="42.05777" lon="0.74853">
        <ele>1380.8</ele>
        <time>2022-05-23 12:10:05</time>
      </trkpt>
      <trkpt lat="42.05777" lon="0.74851">
        <ele>1380.8</ele>
        <time>2022-05-23 12:10:06</time>
      </trkpt>
      <trkpt lat="42.05776" lon="0.74848">
        <ele>1381</ele>
        <time>2022-05-23 12:10:07</time>
      </trkpt>
      <trkpt lat="42.05776" lon="0.74846">
        <ele>1381</ele>
        <time>2022-05-23 12:10:08</time>
      </trkpt>
      <trkpt lat="42.05776" lon="0.74844">
        <ele>1381.2</ele>
        <time>2022-05-23 12:10:09</time>
      </trkpt>
      <trkpt lat="42.05775" lon="0.74842">
        <ele>1381.4</ele>
        <time>2022-05-23 12:10:10</time>
      </trkpt>
      <trkpt lat="42.05775" lon="0.7484">
        <ele>1381.6</ele>
        <time>2022-05-23 12:10:11</time>
      </trkpt>
      <trkpt lat="42.05774" lon="0.74838">
        <ele>1381.8</ele>
        <time>2022-05-23 12:10:12</time>
      </trkpt>
      <trkpt lat="42.05774" lon="0.74835">
        <ele>1382</ele>
        <time>2022-05-23 12:10:13</time>
      </trkpt>
      <trkpt lat="42.05773" lon="0.74833">
        <ele>1382</ele>
        <time>2022-05-23 12:10:14</time>
      </trkpt>
      <trkpt lat="42.05773" lon="0.7483">
        <ele>1382.2</ele>
        <time>2022-05-23 12:10:15</time>
      </trkpt>
      <trkpt lat="42.05773" lon="0.74828">
        <ele>1382.4</ele>
        <time>2022-05-23 12:10:16</time>
      </trkpt>
      <trkpt lat="42.05773" lon="0.74825">
        <ele>1382.6</ele>
        <time>2022-05-23 12:10:17</time>
      </trkpt>
      <trkpt lat="42.05773" lon="0.74823">
        <ele>1382.6</ele>
        <time>2022-05-23 12:10:18</time>
      </trkpt>
      <trkpt lat="42.05772" lon="0.74821">
        <ele>1382.8</ele>
        <time>2022-05-23 12:10:19</time>
      </trkpt>
      <trkpt lat="42.05772" lon="0.74818">
        <ele>1383</ele>
        <time>2022-05-23 12:10:20</time>
      </trkpt>
      <trkpt lat="42.05771" lon="0.74816">
        <ele>1383.2</ele>
        <time>2022-05-23 12:10:21</time>
      </trkpt>
      <trkpt lat="42.0577" lon="0.74814">
        <ele>1383.2</ele>
        <time>2022-05-23 12:10:22</time>
      </trkpt>
      <trkpt lat="42.05769" lon="0.74811">
        <ele>1383.4</ele>
        <time>2022-05-23 12:10:23</time>
      </trkpt>
      <trkpt lat="42.05768" lon="0.74809">
        <ele>1383.6</ele>
        <time>2022-05-23 12:10:24</time>
      </trkpt>
      <trkpt lat="42.05767" lon="0.74807">
        <ele>1383.6</ele>
        <time>2022-05-23 12:10:25</time>
      </trkpt>
      <trkpt lat="42.05766" lon="0.74805">
        <ele>1383.8</ele>
        <time>2022-05-23 12:10:26</time>
      </trkpt>
      <trkpt lat="42.05765" lon="0.74803">
        <ele>1384</ele>
        <time>2022-05-23 12:10:27</time>
      </trkpt>
      <trkpt lat="42.05763" lon="0.74801">
        <ele>1384</ele>
        <time>2022-05-23 12:10:28</time>
      </trkpt>
      <trkpt lat="42.05762" lon="0.74799">
        <ele>1384.4</ele>
        <time>2022-05-23 12:10:29</time>
      </trkpt>
      <trkpt lat="42.05761" lon="0.74797">
        <ele>1384.6</ele>
        <time>2022-05-23 12:10:30</time>
      </trkpt>
      <trkpt lat="42.05759" lon="0.74796">
        <ele>1384.6</ele>
        <time>2022-05-23 12:10:31</time>
      </trkpt>
      <trkpt lat="42.05758" lon="0.74794">
        <ele>1384.8</ele>
        <time>2022-05-23 12:10:32</time>
      </trkpt>
      <trkpt lat="42.05757" lon="0.74792">
        <ele>1385</ele>
        <time>2022-05-23 12:10:33</time>
      </trkpt>
      <trkpt lat="42.05756" lon="0.7479">
        <ele>1385</ele>
        <time>2022-05-23 12:10:34</time>
      </trkpt>
      <trkpt lat="42.05754" lon="0.74787">
        <ele>1385.2</ele>
        <time>2022-05-23 12:10:35</time>
      </trkpt>
      <trkpt lat="42.05753" lon="0.74785">
        <ele>1385.2</ele>
        <time>2022-05-23 12:10:36</time>
      </trkpt>
      <trkpt lat="42.05751" lon="0.74783">
        <ele>1385.4</ele>
        <time>2022-05-23 12:10:37</time>
      </trkpt>
      <trkpt lat="42.05751" lon="0.74782">
        <ele>1385.4</ele>
        <time>2022-05-23 12:10:38</time>
      </trkpt>
      <trkpt lat="42.0575" lon="0.7478">
        <ele>1385.6</ele>
        <time>2022-05-23 12:10:39</time>
      </trkpt>
      <trkpt lat="42.05748" lon="0.74778">
        <ele>1385.8</ele>
        <time>2022-05-23 12:10:40</time>
      </trkpt>
      <trkpt lat="42.05746" lon="0.74777">
        <ele>1385.8</ele>
        <time>2022-05-23 12:10:41</time>
      </trkpt>
      <trkpt lat="42.05745" lon="0.74775">
        <ele>1386</ele>
        <time>2022-05-23 12:10:42</time>
      </trkpt>
      <trkpt lat="42.05744" lon="0.74773">
        <ele>1386.2</ele>
        <time>2022-05-23 12:10:43</time>
      </trkpt>
      <trkpt lat="42.05743" lon="0.74772">
        <ele>1386.4</ele>
        <time>2022-05-23 12:10:44</time>
      </trkpt>
      <trkpt lat="42.05741" lon="0.7477">
        <ele>1386.4</ele>
        <time>2022-05-23 12:10:45</time>
      </trkpt>
      <trkpt lat="42.0574" lon="0.74768">
        <ele>1386.6</ele>
        <time>2022-05-23 12:10:46</time>
      </trkpt>
      <trkpt lat="42.05739" lon="0.74766">
        <ele>1386.8</ele>
        <time>2022-05-23 12:10:47</time>
      </trkpt>
      <trkpt lat="42.05738" lon="0.74764">
        <ele>1386.8</ele>
        <time>2022-05-23 12:10:48</time>
      </trkpt>
      <trkpt lat="42.05736" lon="0.74762">
        <ele>1387</ele>
        <time>2022-05-23 12:10:49</time>
      </trkpt>
      <trkpt lat="42.05735" lon="0.7476">
        <ele>1387</ele>
        <time>2022-05-23 12:10:50</time>
      </trkpt>
      <trkpt lat="42.05734" lon="0.74758">
        <ele>1387.2</ele>
        <time>2022-05-23 12:10:51</time>
      </trkpt>
      <trkpt lat="42.05733" lon="0.74756">
        <ele>1387.2</ele>
        <time>2022-05-23 12:10:52</time>
      </trkpt>
      <trkpt lat="42.05732" lon="0.74754">
        <ele>1387.4</ele>
        <time>2022-05-23 12:10:53</time>
      </trkpt>
      <trkpt lat="42.0573" lon="0.74753">
        <ele>1387.4</ele>
        <time>2022-05-23 12:10:54</time>
      </trkpt>
      <trkpt lat="42.05728" lon="0.74751">
        <ele>1387.6</ele>
        <time>2022-05-23 12:10:55</time>
      </trkpt>
      <trkpt lat="42.05727" lon="0.74749">
        <ele>1387.6</ele>
        <time>2022-05-23 12:10:56</time>
      </trkpt>
      <trkpt lat="42.05726" lon="0.74747">
        <ele>1387.6</ele>
        <time>2022-05-23 12:10:57</time>
      </trkpt>
      <trkpt lat="42.05725" lon="0.74745">
        <ele>1387.8</ele>
        <time>2022-05-23 12:10:58</time>
      </trkpt>
      <trkpt lat="42.05723" lon="0.74744">
        <ele>1387.8</ele>
        <time>2022-05-23 12:10:59</time>
      </trkpt>
      <trkpt lat="42.05722" lon="0.74742">
        <ele>1387.8</ele>
        <time>2022-05-23 12:11:00</time>
      </trkpt>
      <trkpt lat="42.0572" lon="0.7474">
        <ele>1387.8</ele>
        <time>2022-05-23 12:11:01</time>
      </trkpt>
      <trkpt lat="42.05719" lon="0.74737">
        <ele>1387.8</ele>
        <time>2022-05-23 12:11:02</time>
      </trkpt>
      <trkpt lat="42.05717" lon="0.74735">
        <ele>1388</ele>
        <time>2022-05-23 12:11:03</time>
      </trkpt>
      <trkpt lat="42.05715" lon="0.74732">
        <ele>1388</ele>
        <time>2022-05-23 12:11:04</time>
      </trkpt>
      <trkpt lat="42.05712" lon="0.74729">
        <ele>1388</ele>
        <time>2022-05-23 12:11:05</time>
      </trkpt>
      <trkpt lat="42.05709" lon="0.74726">
        <ele>1387.8</ele>
        <time>2022-05-23 12:11:06</time>
      </trkpt>
      <trkpt lat="42.05706" lon="0.74723">
        <ele>1387.8</ele>
        <time>2022-05-23 12:11:07</time>
      </trkpt>
      <trkpt lat="42.05702" lon="0.7472">
        <ele>1387.6</ele>
        <time>2022-05-23 12:11:08</time>
      </trkpt>
      <trkpt lat="42.05699" lon="0.74717">
        <ele>1387.4</ele>
        <time>2022-05-23 12:11:09</time>
      </trkpt>
      <trkpt lat="42.05696" lon="0.74712">
        <ele>1387.2</ele>
        <time>2022-05-23 12:11:10</time>
      </trkpt>
      <trkpt lat="42.05693" lon="0.74708">
        <ele>1387</ele>
        <time>2022-05-23 12:11:11</time>
      </trkpt>
      <trkpt lat="42.05691" lon="0.74702">
        <ele>1387</ele>
        <time>2022-05-23 12:11:12</time>
      </trkpt>
      <trkpt lat="42.0569" lon="0.74697">
        <ele>1386.8</ele>
        <time>2022-05-23 12:11:13</time>
      </trkpt>
      <trkpt lat="42.05691" lon="0.74691">
        <ele>1387</ele>
        <time>2022-05-23 12:11:14</time>
      </trkpt>
      <trkpt lat="42.05694" lon="0.74687">
        <ele>1387.2</ele>
        <time>2022-05-23 12:11:15</time>
      </trkpt>
      <trkpt lat="42.05697" lon="0.74684">
        <ele>1387.4</ele>
        <time>2022-05-23 12:11:16</time>
      </trkpt>
      <trkpt lat="42.05699" lon="0.74681">
        <ele>1387.6</ele>
        <time>2022-05-23 12:11:17</time>
      </trkpt>
      <trkpt lat="42.05701" lon="0.74679">
        <ele>1387.8</ele>
        <time>2022-05-23 12:11:18</time>
      </trkpt>
      <trkpt lat="42.05703" lon="0.74677">
        <ele>1388</ele>
        <time>2022-05-23 12:11:19</time>
      </trkpt>
      <trkpt lat="42.05705" lon="0.74676">
        <ele>1388.2</ele>
        <time>2022-05-23 12:11:20</time>
      </trkpt>
      <trkpt lat="42.05707" lon="0.74674">
        <ele>1388.4</ele>
        <time>2022-05-23 12:11:21</time>
      </trkpt>
      <trkpt lat="42.0571" lon="0.74672">
        <ele>1388.6</ele>
        <time>2022-05-23 12:11:22</time>
      </trkpt>
      <trkpt lat="42.05712" lon="0.74671">
        <ele>1388.8</ele>
        <time>2022-05-23 12:11:23</time>
      </trkpt>
      <trkpt lat="42.05714" lon="0.7467">
        <ele>1389</ele>
        <time>2022-05-23 12:11:24</time>
      </trkpt>
      <trkpt lat="42.05716" lon="0.74668">
        <ele>1389.2</ele>
        <time>2022-05-23 12:11:25</time>
      </trkpt>
      <trkpt lat="42.05717" lon="0.74667">
        <ele>1389.4</ele>
        <time>2022-05-23 12:11:26</time>
      </trkpt>
      <trkpt lat="42.05718" lon="0.74666">
        <ele>1389.4</ele>
        <time>2022-05-23 12:11:27</time>
      </trkpt>
      <trkpt lat="42.0572" lon="0.74665">
        <ele>1389.6</ele>
        <time>2022-05-23 12:11:28</time>
      </trkpt>
      <trkpt lat="42.05721" lon="0.74664">
        <ele>1389.8</ele>
        <time>2022-05-23 12:11:29</time>
      </trkpt>
      <trkpt lat="42.05723" lon="0.74664">
        <ele>1390</ele>
        <time>2022-05-23 12:11:30</time>
      </trkpt>
      <trkpt lat="42.05724" lon="0.74663">
        <ele>1390.2</ele>
        <time>2022-05-23 12:11:31</time>
      </trkpt>
      <trkpt lat="42.05726" lon="0.74662">
        <ele>1390.2</ele>
        <time>2022-05-23 12:11:32</time>
      </trkpt>
      <trkpt lat="42.05727" lon="0.74661">
        <ele>1390.4</ele>
        <time>2022-05-23 12:11:33</time>
      </trkpt>
      <trkpt lat="42.05729" lon="0.7466">
        <ele>1390.4</ele>
        <time>2022-05-23 12:11:34</time>
      </trkpt>
      <trkpt lat="42.05731" lon="0.74659">
        <ele>1390.6</ele>
        <time>2022-05-23 12:11:35</time>
      </trkpt>
      <trkpt lat="42.05734" lon="0.74658">
        <ele>1390.6</ele>
        <time>2022-05-23 12:11:36</time>
      </trkpt>
      <trkpt lat="42.05736" lon="0.74658">
        <ele>1390.8</ele>
        <time>2022-05-23 12:11:37</time>
      </trkpt>
      <trkpt lat="42.05738" lon="0.74656">
        <ele>1390.8</ele>
        <time>2022-05-23 12:11:38</time>
      </trkpt>
      <trkpt lat="42.0574" lon="0.74655">
        <ele>1391</ele>
        <time>2022-05-23 12:11:39</time>
      </trkpt>
      <trkpt lat="42.05742" lon="0.74654">
        <ele>1391.2</ele>
        <time>2022-05-23 12:11:40</time>
      </trkpt>
      <trkpt lat="42.05744" lon="0.74652">
        <ele>1391.2</ele>
        <time>2022-05-23 12:11:41</time>
      </trkpt>
      <trkpt lat="42.05746" lon="0.74651">
        <ele>1391.4</ele>
        <time>2022-05-23 12:11:42</time>
      </trkpt>
      <trkpt lat="42.05748" lon="0.74649">
        <ele>1391.6</ele>
        <time>2022-05-23 12:11:43</time>
      </trkpt>
      <trkpt lat="42.05749" lon="0.74647">
        <ele>1391.6</ele>
        <time>2022-05-23 12:11:44</time>
      </trkpt>
      <trkpt lat="42.05751" lon="0.74645">
        <ele>1391.8</ele>
        <time>2022-05-23 12:11:45</time>
      </trkpt>
      <trkpt lat="42.05753" lon="0.74643">
        <ele>1391.8</ele>
        <time>2022-05-23 12:11:46</time>
      </trkpt>
      <trkpt lat="42.05754" lon="0.74641">
        <ele>1392</ele>
        <time>2022-05-23 12:11:47</time>
      </trkpt>
      <trkpt lat="42.05755" lon="0.74638">
        <ele>1392</ele>
        <time>2022-05-23 12:11:48</time>
      </trkpt>
      <trkpt lat="42.05757" lon="0.74635">
        <ele>1392.2</ele>
        <time>2022-05-23 12:11:49</time>
      </trkpt>
      <trkpt lat="42.05758" lon="0.74633">
        <ele>1392.4</ele>
        <time>2022-05-23 12:11:50</time>
      </trkpt>
      <trkpt lat="42.05759" lon="0.74631">
        <ele>1392.4</ele>
        <time>2022-05-23 12:11:51</time>
      </trkpt>
      <trkpt lat="42.0576" lon="0.74628">
        <ele>1392.6</ele>
        <time>2022-05-23 12:11:52</time>
      </trkpt>
      <trkpt lat="42.05761" lon="0.74625">
        <ele>1392.6</ele>
        <time>2022-05-23 12:11:53</time>
      </trkpt>
      <trkpt lat="42.05762" lon="0.74622">
        <ele>1392.8</ele>
        <time>2022-05-23 12:11:54</time>
      </trkpt>
      <trkpt lat="42.05763" lon="0.74619">
        <ele>1393</ele>
        <time>2022-05-23 12:11:55</time>
      </trkpt>
      <trkpt lat="42.05764" lon="0.74617">
        <ele>1393.2</ele>
        <time>2022-05-23 12:11:56</time>
      </trkpt>
      <trkpt lat="42.05764" lon="0.74614">
        <ele>1393.2</ele>
        <time>2022-05-23 12:11:57</time>
      </trkpt>
      <trkpt lat="42.05766" lon="0.74611">
        <ele>1393.4</ele>
        <time>2022-05-23 12:11:58</time>
      </trkpt>
      <trkpt lat="42.05767" lon="0.74609">
        <ele>1393.6</ele>
        <time>2022-05-23 12:11:59</time>
      </trkpt>
      <trkpt lat="42.05768" lon="0.74606">
        <ele>1393.8</ele>
        <time>2022-05-23 12:12:00</time>
      </trkpt>
      <trkpt lat="42.05769" lon="0.74604">
        <ele>1393.8</ele>
        <time>2022-05-23 12:12:01</time>
      </trkpt>
      <trkpt lat="42.05771" lon="0.74601">
        <ele>1394</ele>
        <time>2022-05-23 12:12:02</time>
      </trkpt>
      <trkpt lat="42.05772" lon="0.74598">
        <ele>1394.2</ele>
        <time>2022-05-23 12:12:03</time>
      </trkpt>
      <trkpt lat="42.05775" lon="0.74596">
        <ele>1394.4</ele>
        <time>2022-05-23 12:12:04</time>
      </trkpt>
      <trkpt lat="42.05777" lon="0.74594">
        <ele>1394.6</ele>
        <time>2022-05-23 12:12:05</time>
      </trkpt>
      <trkpt lat="42.05779" lon="0.74591">
        <ele>1394.6</ele>
        <time>2022-05-23 12:12:06</time>
      </trkpt>
      <trkpt lat="42.05781" lon="0.74589">
        <ele>1394.8</ele>
        <time>2022-05-23 12:12:07</time>
      </trkpt>
      <trkpt lat="42.05783" lon="0.74587">
        <ele>1395</ele>
        <time>2022-05-23 12:12:08</time>
      </trkpt>
      <trkpt lat="42.05785" lon="0.74585">
        <ele>1395.2</ele>
        <time>2022-05-23 12:12:09</time>
      </trkpt>
      <trkpt lat="42.05787" lon="0.74582">
        <ele>1395.4</ele>
        <time>2022-05-23 12:12:10</time>
      </trkpt>
      <trkpt lat="42.05789" lon="0.7458">
        <ele>1395.6</ele>
        <time>2022-05-23 12:12:11</time>
      </trkpt>
      <trkpt lat="42.0579" lon="0.74578">
        <ele>1395.8</ele>
        <time>2022-05-23 12:12:12</time>
      </trkpt>
      <trkpt lat="42.05792" lon="0.74575">
        <ele>1396</ele>
        <time>2022-05-23 12:12:13</time>
      </trkpt>
      <trkpt lat="42.05794" lon="0.74573">
        <ele>1396.2</ele>
        <time>2022-05-23 12:12:14</time>
      </trkpt>
      <trkpt lat="42.05795" lon="0.74571">
        <ele>1396.4</ele>
        <time>2022-05-23 12:12:15</time>
      </trkpt>
      <trkpt lat="42.05797" lon="0.74569">
        <ele>1396.6</ele>
        <time>2022-05-23 12:12:16</time>
      </trkpt>
      <trkpt lat="42.05799" lon="0.74566">
        <ele>1396.8</ele>
        <time>2022-05-23 12:12:17</time>
      </trkpt>
      <trkpt lat="42.05801" lon="0.74564">
        <ele>1397</ele>
        <time>2022-05-23 12:12:18</time>
      </trkpt>
      <trkpt lat="42.05803" lon="0.74562">
        <ele>1397.2</ele>
        <time>2022-05-23 12:12:19</time>
      </trkpt>
      <trkpt lat="42.05805" lon="0.74559">
        <ele>1397.4</ele>
        <time>2022-05-23 12:12:20</time>
      </trkpt>
      <trkpt lat="42.05806" lon="0.74557">
        <ele>1397.6</ele>
        <time>2022-05-23 12:12:21</time>
      </trkpt>
      <trkpt lat="42.05808" lon="0.74555">
        <ele>1397.8</ele>
        <time>2022-05-23 12:12:22</time>
      </trkpt>
      <trkpt lat="42.05809" lon="0.74552">
        <ele>1398</ele>
        <time>2022-05-23 12:12:23</time>
      </trkpt>
      <trkpt lat="42.05811" lon="0.7455">
        <ele>1398.2</ele>
        <time>2022-05-23 12:12:24</time>
      </trkpt>
      <trkpt lat="42.05813" lon="0.74548">
        <ele>1398.4</ele>
        <time>2022-05-23 12:12:25</time>
      </trkpt>
      <trkpt lat="42.05815" lon="0.74546">
        <ele>1398.6</ele>
        <time>2022-05-23 12:12:26</time>
      </trkpt>
      <trkpt lat="42.05817" lon="0.74543">
        <ele>1398.6</ele>
        <time>2022-05-23 12:12:27</time>
      </trkpt>
      <trkpt lat="42.05818" lon="0.7454">
        <ele>1398.8</ele>
        <time>2022-05-23 12:12:28</time>
      </trkpt>
      <trkpt lat="42.05819" lon="0.74538">
        <ele>1399</ele>
        <time>2022-05-23 12:12:29</time>
      </trkpt>
      <trkpt lat="42.05821" lon="0.74535">
        <ele>1399.2</ele>
        <time>2022-05-23 12:12:30</time>
      </trkpt>
      <trkpt lat="42.05822" lon="0.74533">
        <ele>1399.2</ele>
        <time>2022-05-23 12:12:31</time>
      </trkpt>
      <trkpt lat="42.05823" lon="0.7453">
        <ele>1399.4</ele>
        <time>2022-05-23 12:12:32</time>
      </trkpt>
      <trkpt lat="42.05824" lon="0.74527">
        <ele>1399.6</ele>
        <time>2022-05-23 12:12:33</time>
      </trkpt>
      <trkpt lat="42.05825" lon="0.74524">
        <ele>1399.8</ele>
        <time>2022-05-23 12:12:34</time>
      </trkpt>
      <trkpt lat="42.05826" lon="0.74521">
        <ele>1400</ele>
        <time>2022-05-23 12:12:35</time>
      </trkpt>
      <trkpt lat="42.05827" lon="0.74518">
        <ele>1400</ele>
        <time>2022-05-23 12:12:36</time>
      </trkpt>
      <trkpt lat="42.05827" lon="0.74515">
        <ele>1400.2</ele>
        <time>2022-05-23 12:12:37</time>
      </trkpt>
      <trkpt lat="42.05828" lon="0.74512">
        <ele>1400.2</ele>
        <time>2022-05-23 12:12:38</time>
      </trkpt>
      <trkpt lat="42.05828" lon="0.7451">
        <ele>1400.4</ele>
        <time>2022-05-23 12:12:39</time>
      </trkpt>
      <trkpt lat="42.05829" lon="0.74507">
        <ele>1400.6</ele>
        <time>2022-05-23 12:12:40</time>
      </trkpt>
      <trkpt lat="42.05829" lon="0.74505">
        <ele>1400.8</ele>
        <time>2022-05-23 12:12:41</time>
      </trkpt>
      <trkpt lat="42.0583" lon="0.74502">
        <ele>1400.8</ele>
        <time>2022-05-23 12:12:42</time>
      </trkpt>
      <trkpt lat="42.0583" lon="0.745">
        <ele>1401</ele>
        <time>2022-05-23 12:12:43</time>
      </trkpt>
      <trkpt lat="42.0583" lon="0.74497">
        <ele>1401.2</ele>
        <time>2022-05-23 12:12:44</time>
      </trkpt>
      <trkpt lat="42.0583" lon="0.74495">
        <ele>1401.4</ele>
        <time>2022-05-23 12:12:45</time>
      </trkpt>
      <trkpt lat="42.0583" lon="0.74492">
        <ele>1401.4</ele>
        <time>2022-05-23 12:12:46</time>
      </trkpt>
      <trkpt lat="42.05831" lon="0.7449">
        <ele>1401.6</ele>
        <time>2022-05-23 12:12:47</time>
      </trkpt>
      <trkpt lat="42.05831" lon="0.74487">
        <ele>1401.6</ele>
        <time>2022-05-23 12:12:48</time>
      </trkpt>
      <trkpt lat="42.05831" lon="0.74485">
        <ele>1401.6</ele>
        <time>2022-05-23 12:12:49</time>
      </trkpt>
      <trkpt lat="42.05831" lon="0.74482">
        <ele>1401.8</ele>
        <time>2022-05-23 12:12:50</time>
      </trkpt>
      <trkpt lat="42.05832" lon="0.74479">
        <ele>1401.8</ele>
        <time>2022-05-23 12:12:51</time>
      </trkpt>
      <trkpt lat="42.05832" lon="0.74477">
        <ele>1402</ele>
        <time>2022-05-23 12:12:52</time>
      </trkpt>
      <trkpt lat="42.05832" lon="0.74474">
        <ele>1402</ele>
        <time>2022-05-23 12:12:53</time>
      </trkpt>
      <trkpt lat="42.05832" lon="0.74472">
        <ele>1402.2</ele>
        <time>2022-05-23 12:12:54</time>
      </trkpt>
      <trkpt lat="42.05831" lon="0.7447">
        <ele>1402.4</ele>
        <time>2022-05-23 12:12:55</time>
      </trkpt>
      <trkpt lat="42.05831" lon="0.74468">
        <ele>1402.6</ele>
        <time>2022-05-23 12:12:56</time>
      </trkpt>
      <trkpt lat="42.05831" lon="0.74465">
        <ele>1402.6</ele>
        <time>2022-05-23 12:12:57</time>
      </trkpt>
      <trkpt lat="42.05831" lon="0.74463">
        <ele>1402.8</ele>
        <time>2022-05-23 12:12:58</time>
      </trkpt>
      <trkpt lat="42.05832" lon="0.74461">
        <ele>1403</ele>
        <time>2022-05-23 12:12:59</time>
      </trkpt>
      <trkpt lat="42.05831" lon="0.74458">
        <ele>1403.2</ele>
        <time>2022-05-23 12:13:00</time>
      </trkpt>
      <trkpt lat="42.05831" lon="0.74456">
        <ele>1403.4</ele>
        <time>2022-05-23 12:13:01</time>
      </trkpt>
      <trkpt lat="42.05831" lon="0.74454">
        <ele>1403.6</ele>
        <time>2022-05-23 12:13:02</time>
      </trkpt>
      <trkpt lat="42.0583" lon="0.74452">
        <ele>1403.6</ele>
        <time>2022-05-23 12:13:03</time>
      </trkpt>
      <trkpt lat="42.0583" lon="0.7445">
        <ele>1403.8</ele>
        <time>2022-05-23 12:13:04</time>
      </trkpt>
      <trkpt lat="42.0583" lon="0.74448">
        <ele>1404</ele>
        <time>2022-05-23 12:13:05</time>
      </trkpt>
      <trkpt lat="42.05829" lon="0.74445">
        <ele>1404.2</ele>
        <time>2022-05-23 12:13:06</time>
      </trkpt>
      <trkpt lat="42.05829" lon="0.74443">
        <ele>1404.4</ele>
        <time>2022-05-23 12:13:07</time>
      </trkpt>
      <trkpt lat="42.05828" lon="0.74441">
        <ele>1404.6</ele>
        <time>2022-05-23 12:13:08</time>
      </trkpt>
      <trkpt lat="42.05828" lon="0.74438">
        <ele>1404.8</ele>
        <time>2022-05-23 12:13:09</time>
      </trkpt>
      <trkpt lat="42.05828" lon="0.74436">
        <ele>1404.8</ele>
        <time>2022-05-23 12:13:10</time>
      </trkpt>
      <trkpt lat="42.05828" lon="0.74433">
        <ele>1405</ele>
        <time>2022-05-23 12:13:11</time>
      </trkpt>
      <trkpt lat="42.05829" lon="0.74431">
        <ele>1405.2</ele>
        <time>2022-05-23 12:13:12</time>
      </trkpt>
      <trkpt lat="42.05829" lon="0.74429">
        <ele>1405.4</ele>
        <time>2022-05-23 12:13:13</time>
      </trkpt>
      <trkpt lat="42.05829" lon="0.74426">
        <ele>1405.6</ele>
        <time>2022-05-23 12:13:14</time>
      </trkpt>
      <trkpt lat="42.05829" lon="0.74424">
        <ele>1405.8</ele>
        <time>2022-05-23 12:13:15</time>
      </trkpt>
      <trkpt lat="42.05829" lon="0.74422">
        <ele>1405.8</ele>
        <time>2022-05-23 12:13:16</time>
      </trkpt>
      <trkpt lat="42.05829" lon="0.74419">
        <ele>1406</ele>
        <time>2022-05-23 12:13:17</time>
      </trkpt>
      <trkpt lat="42.05829" lon="0.74417">
        <ele>1406.2</ele>
        <time>2022-05-23 12:13:18</time>
      </trkpt>
      <trkpt lat="42.05828" lon="0.74415">
        <ele>1406.2</ele>
        <time>2022-05-23 12:13:19</time>
      </trkpt>
      <trkpt lat="42.05828" lon="0.74413">
        <ele>1406.4</ele>
        <time>2022-05-23 12:13:20</time>
      </trkpt>
      <trkpt lat="42.05828" lon="0.74411">
        <ele>1406.6</ele>
        <time>2022-05-23 12:13:21</time>
      </trkpt>
      <trkpt lat="42.05828" lon="0.74408">
        <ele>1406.8</ele>
        <time>2022-05-23 12:13:22</time>
      </trkpt>
      <trkpt lat="42.05827" lon="0.74406">
        <ele>1407</ele>
        <time>2022-05-23 12:13:23</time>
      </trkpt>
      <trkpt lat="42.05827" lon="0.74403">
        <ele>1407.2</ele>
        <time>2022-05-23 12:13:24</time>
      </trkpt>
      <trkpt lat="42.05827" lon="0.74401">
        <ele>1407.4</ele>
        <time>2022-05-23 12:13:25</time>
      </trkpt>
      <trkpt lat="42.05826" lon="0.74399">
        <ele>1407.4</ele>
        <time>2022-05-23 12:13:26</time>
      </trkpt>
      <trkpt lat="42.05826" lon="0.74397">
        <ele>1407.6</ele>
        <time>2022-05-23 12:13:27</time>
      </trkpt>
      <trkpt lat="42.05825" lon="0.74394">
        <ele>1407.8</ele>
        <time>2022-05-23 12:13:28</time>
      </trkpt>
      <trkpt lat="42.05824" lon="0.74392">
        <ele>1407.8</ele>
        <time>2022-05-23 12:13:29</time>
      </trkpt>
      <trkpt lat="42.05824" lon="0.7439">
        <ele>1408</ele>
        <time>2022-05-23 12:13:30</time>
      </trkpt>
      <trkpt lat="42.05823" lon="0.74388">
        <ele>1408</ele>
        <time>2022-05-23 12:13:31</time>
      </trkpt>
      <trkpt lat="42.05823" lon="0.74386">
        <ele>1408.2</ele>
        <time>2022-05-23 12:13:32</time>
      </trkpt>
      <trkpt lat="42.05822" lon="0.74384">
        <ele>1408.4</ele>
        <time>2022-05-23 12:13:33</time>
      </trkpt>
      <trkpt lat="42.05822" lon="0.74381">
        <ele>1408.6</ele>
        <time>2022-05-23 12:13:34</time>
      </trkpt>
      <trkpt lat="42.05821" lon="0.74379">
        <ele>1408.8</ele>
        <time>2022-05-23 12:13:35</time>
      </trkpt>
      <trkpt lat="42.05821" lon="0.74376">
        <ele>1409</ele>
        <time>2022-05-23 12:13:36</time>
      </trkpt>
      <trkpt lat="42.0582" lon="0.74374">
        <ele>1409.2</ele>
        <time>2022-05-23 12:13:37</time>
      </trkpt>
      <trkpt lat="42.0582" lon="0.74372">
        <ele>1409.4</ele>
        <time>2022-05-23 12:13:38</time>
      </trkpt>
      <trkpt lat="42.0582" lon="0.74369">
        <ele>1409.4</ele>
        <time>2022-05-23 12:13:39</time>
      </trkpt>
      <trkpt lat="42.05819" lon="0.74367">
        <ele>1409.6</ele>
        <time>2022-05-23 12:13:40</time>
      </trkpt>
      <trkpt lat="42.05819" lon="0.74364">
        <ele>1409.6</ele>
        <time>2022-05-23 12:13:41</time>
      </trkpt>
      <trkpt lat="42.05818" lon="0.74361">
        <ele>1409.8</ele>
        <time>2022-05-23 12:13:42</time>
      </trkpt>
      <trkpt lat="42.05818" lon="0.74359">
        <ele>1409.8</ele>
        <time>2022-05-23 12:13:43</time>
      </trkpt>
      <trkpt lat="42.05817" lon="0.74357">
        <ele>1410</ele>
        <time>2022-05-23 12:13:44</time>
      </trkpt>
      <trkpt lat="42.05817" lon="0.74354">
        <ele>1410.2</ele>
        <time>2022-05-23 12:13:45</time>
      </trkpt>
      <trkpt lat="42.05817" lon="0.74352">
        <ele>1410.2</ele>
        <time>2022-05-23 12:13:46</time>
      </trkpt>
      <trkpt lat="42.05817" lon="0.7435">
        <ele>1410.4</ele>
        <time>2022-05-23 12:13:47</time>
      </trkpt>
      <trkpt lat="42.05816" lon="0.74347">
        <ele>1410.6</ele>
        <time>2022-05-23 12:13:48</time>
      </trkpt>
      <trkpt lat="42.05816" lon="0.74345">
        <ele>1410.8</ele>
        <time>2022-05-23 12:13:49</time>
      </trkpt>
      <trkpt lat="42.05816" lon="0.74342">
        <ele>1410.8</ele>
        <time>2022-05-23 12:13:50</time>
      </trkpt>
      <trkpt lat="42.05815" lon="0.7434">
        <ele>1411</ele>
        <time>2022-05-23 12:13:51</time>
      </trkpt>
      <trkpt lat="42.05815" lon="0.74338">
        <ele>1411.2</ele>
        <time>2022-05-23 12:13:52</time>
      </trkpt>
      <trkpt lat="42.05814" lon="0.74335">
        <ele>1411.4</ele>
        <time>2022-05-23 12:13:53</time>
      </trkpt>
      <trkpt lat="42.05814" lon="0.74333">
        <ele>1411.4</ele>
        <time>2022-05-23 12:13:54</time>
      </trkpt>
      <trkpt lat="42.05814" lon="0.74331">
        <ele>1411.6</ele>
        <time>2022-05-23 12:13:55</time>
      </trkpt>
      <trkpt lat="42.05814" lon="0.74329">
        <ele>1411.8</ele>
        <time>2022-05-23 12:13:56</time>
      </trkpt>
      <trkpt lat="42.05814" lon="0.74326">
        <ele>1411.8</ele>
        <time>2022-05-23 12:13:57</time>
      </trkpt>
      <trkpt lat="42.05813" lon="0.74324">
        <ele>1412</ele>
        <time>2022-05-23 12:13:58</time>
      </trkpt>
      <trkpt lat="42.05813" lon="0.74321">
        <ele>1412</ele>
        <time>2022-05-23 12:13:59</time>
      </trkpt>
      <trkpt lat="42.05812" lon="0.74319">
        <ele>1412.2</ele>
        <time>2022-05-23 12:14:00</time>
      </trkpt>
      <trkpt lat="42.05812" lon="0.74316">
        <ele>1412.2</ele>
        <time>2022-05-23 12:14:01</time>
      </trkpt>
      <trkpt lat="42.05811" lon="0.74314">
        <ele>1412.4</ele>
        <time>2022-05-23 12:14:02</time>
      </trkpt>
      <trkpt lat="42.05811" lon="0.74312">
        <ele>1412.6</ele>
        <time>2022-05-23 12:14:03</time>
      </trkpt>
      <trkpt lat="42.0581" lon="0.74309">
        <ele>1412.6</ele>
        <time>2022-05-23 12:14:04</time>
      </trkpt>
      <trkpt lat="42.05809" lon="0.74307">
        <ele>1412.8</ele>
        <time>2022-05-23 12:14:05</time>
      </trkpt>
      <trkpt lat="42.05809" lon="0.74305">
        <ele>1413</ele>
        <time>2022-05-23 12:14:06</time>
      </trkpt>
      <trkpt lat="42.05808" lon="0.74303">
        <ele>1413.2</ele>
        <time>2022-05-23 12:14:07</time>
      </trkpt>
      <trkpt lat="42.05808" lon="0.74301">
        <ele>1413.2</ele>
        <time>2022-05-23 12:14:08</time>
      </trkpt>
      <trkpt lat="42.05808" lon="0.74298">
        <ele>1413.4</ele>
        <time>2022-05-23 12:14:09</time>
      </trkpt>
      <trkpt lat="42.05807" lon="0.74296">
        <ele>1413.4</ele>
        <time>2022-05-23 12:14:10</time>
      </trkpt>
      <trkpt lat="42.05807" lon="0.74294">
        <ele>1413.6</ele>
        <time>2022-05-23 12:14:11</time>
      </trkpt>
      <trkpt lat="42.05807" lon="0.74291">
        <ele>1413.8</ele>
        <time>2022-05-23 12:14:12</time>
      </trkpt>
      <trkpt lat="42.05807" lon="0.74289">
        <ele>1413.8</ele>
        <time>2022-05-23 12:14:13</time>
      </trkpt>
      <trkpt lat="42.05806" lon="0.74287">
        <ele>1414</ele>
        <time>2022-05-23 12:14:14</time>
      </trkpt>
      <trkpt lat="42.05806" lon="0.74284">
        <ele>1414</ele>
        <time>2022-05-23 12:14:15</time>
      </trkpt>
      <trkpt lat="42.05806" lon="0.74282">
        <ele>1414.2</ele>
        <time>2022-05-23 12:14:16</time>
      </trkpt>
      <trkpt lat="42.05805" lon="0.7428">
        <ele>1414.2</ele>
        <time>2022-05-23 12:14:17</time>
      </trkpt>
      <trkpt lat="42.05805" lon="0.74277">
        <ele>1414.2</ele>
        <time>2022-05-23 12:14:18</time>
      </trkpt>
      <trkpt lat="42.05804" lon="0.74275">
        <ele>1414.4</ele>
        <time>2022-05-23 12:14:19</time>
      </trkpt>
      <trkpt lat="42.05804" lon="0.74273">
        <ele>1414.4</ele>
        <time>2022-05-23 12:14:20</time>
      </trkpt>
      <trkpt lat="42.05804" lon="0.7427">
        <ele>1414.6</ele>
        <time>2022-05-23 12:14:21</time>
      </trkpt>
      <trkpt lat="42.05804" lon="0.74267">
        <ele>1414.6</ele>
        <time>2022-05-23 12:14:22</time>
      </trkpt>
      <trkpt lat="42.05804" lon="0.74265">
        <ele>1414.8</ele>
        <time>2022-05-23 12:14:23</time>
      </trkpt>
      <trkpt lat="42.05804" lon="0.74262">
        <ele>1415</ele>
        <time>2022-05-23 12:14:24</time>
      </trkpt>
      <trkpt lat="42.05804" lon="0.7426">
        <ele>1415</ele>
        <time>2022-05-23 12:14:25</time>
      </trkpt>
      <trkpt lat="42.05803" lon="0.74258">
        <ele>1415.2</ele>
        <time>2022-05-23 12:14:26</time>
      </trkpt>
      <trkpt lat="42.05803" lon="0.74255">
        <ele>1415.4</ele>
        <time>2022-05-23 12:14:27</time>
      </trkpt>
      <trkpt lat="42.05803" lon="0.74254">
        <ele>1415.6</ele>
        <time>2022-05-23 12:14:28</time>
      </trkpt>
      <trkpt lat="42.05802" lon="0.74251">
        <ele>1415.8</ele>
        <time>2022-05-23 12:14:29</time>
      </trkpt>
      <trkpt lat="42.05802" lon="0.74248">
        <ele>1416</ele>
        <time>2022-05-23 12:14:30</time>
      </trkpt>
      <trkpt lat="42.05801" lon="0.74246">
        <ele>1416.2</ele>
        <time>2022-05-23 12:14:31</time>
      </trkpt>
      <trkpt lat="42.05801" lon="0.74243">
        <ele>1416.2</ele>
        <time>2022-05-23 12:14:32</time>
      </trkpt>
      <trkpt lat="42.058" lon="0.74241">
        <ele>1416.4</ele>
        <time>2022-05-23 12:14:33</time>
      </trkpt>
      <trkpt lat="42.05799" lon="0.74239">
        <ele>1416.6</ele>
        <time>2022-05-23 12:14:34</time>
      </trkpt>
      <trkpt lat="42.05798" lon="0.74237">
        <ele>1416.8</ele>
        <time>2022-05-23 12:14:35</time>
      </trkpt>
      <trkpt lat="42.05798" lon="0.74234">
        <ele>1416.8</ele>
        <time>2022-05-23 12:14:36</time>
      </trkpt>
      <trkpt lat="42.05798" lon="0.74231">
        <ele>1417</ele>
        <time>2022-05-23 12:14:37</time>
      </trkpt>
      <trkpt lat="42.05797" lon="0.74228">
        <ele>1417</ele>
        <time>2022-05-23 12:14:38</time>
      </trkpt>
      <trkpt lat="42.05797" lon="0.74226">
        <ele>1417.2</ele>
        <time>2022-05-23 12:14:39</time>
      </trkpt>
      <trkpt lat="42.05797" lon="0.74223">
        <ele>1417.4</ele>
        <time>2022-05-23 12:14:40</time>
      </trkpt>
      <trkpt lat="42.05796" lon="0.7422">
        <ele>1417.6</ele>
        <time>2022-05-23 12:14:41</time>
      </trkpt>
      <trkpt lat="42.05795" lon="0.74218">
        <ele>1417.8</ele>
        <time>2022-05-23 12:14:42</time>
      </trkpt>
      <trkpt lat="42.05794" lon="0.74215">
        <ele>1417.8</ele>
        <time>2022-05-23 12:14:43</time>
      </trkpt>
      <trkpt lat="42.05793" lon="0.74213">
        <ele>1418</ele>
        <time>2022-05-23 12:14:44</time>
      </trkpt>
      <trkpt lat="42.05793" lon="0.7421">
        <ele>1418.2</ele>
        <time>2022-05-23 12:14:45</time>
      </trkpt>
      <trkpt lat="42.05792" lon="0.74208">
        <ele>1418.4</ele>
        <time>2022-05-23 12:14:46</time>
      </trkpt>
      <trkpt lat="42.05791" lon="0.74205">
        <ele>1418.6</ele>
        <time>2022-05-23 12:14:47</time>
      </trkpt>
      <trkpt lat="42.0579" lon="0.74202">
        <ele>1418.8</ele>
        <time>2022-05-23 12:14:48</time>
      </trkpt>
      <trkpt lat="42.0579" lon="0.74199">
        <ele>1419</ele>
        <time>2022-05-23 12:14:49</time>
      </trkpt>
      <trkpt lat="42.05789" lon="0.74196">
        <ele>1419</ele>
        <time>2022-05-23 12:14:50</time>
      </trkpt>
      <trkpt lat="42.05789" lon="0.74193">
        <ele>1419.2</ele>
        <time>2022-05-23 12:14:51</time>
      </trkpt>
      <trkpt lat="42.05788" lon="0.7419">
        <ele>1419.4</ele>
        <time>2022-05-23 12:14:52</time>
      </trkpt>
      <trkpt lat="42.05788" lon="0.74187">
        <ele>1419.6</ele>
        <time>2022-05-23 12:14:53</time>
      </trkpt>
      <trkpt lat="42.05787" lon="0.74185">
        <ele>1419.8</ele>
        <time>2022-05-23 12:14:54</time>
      </trkpt>
      <trkpt lat="42.05787" lon="0.74182">
        <ele>1420</ele>
        <time>2022-05-23 12:14:55</time>
      </trkpt>
      <trkpt lat="42.05787" lon="0.74179">
        <ele>1420.2</ele>
        <time>2022-05-23 12:14:56</time>
      </trkpt>
      <trkpt lat="42.05786" lon="0.74177">
        <ele>1420.4</ele>
        <time>2022-05-23 12:14:57</time>
      </trkpt>
      <trkpt lat="42.05785" lon="0.74174">
        <ele>1420.6</ele>
        <time>2022-05-23 12:14:58</time>
      </trkpt>
      <trkpt lat="42.05785" lon="0.74171">
        <ele>1420.8</ele>
        <time>2022-05-23 12:14:59</time>
      </trkpt>
      <trkpt lat="42.05784" lon="0.74169">
        <ele>1420.8</ele>
        <time>2022-05-23 12:15:00</time>
      </trkpt>
      <trkpt lat="42.05783" lon="0.74166">
        <ele>1421</ele>
        <time>2022-05-23 12:15:01</time>
      </trkpt>
      <trkpt lat="42.05782" lon="0.74164">
        <ele>1421</ele>
        <time>2022-05-23 12:15:02</time>
      </trkpt>
      <trkpt lat="42.05781" lon="0.74161">
        <ele>1421.2</ele>
        <time>2022-05-23 12:15:03</time>
      </trkpt>
      <trkpt lat="42.0578" lon="0.74158">
        <ele>1421.4</ele>
        <time>2022-05-23 12:15:04</time>
      </trkpt>
      <trkpt lat="42.0578" lon="0.74155">
        <ele>1421.4</ele>
        <time>2022-05-23 12:15:05</time>
      </trkpt>
      <trkpt lat="42.05779" lon="0.74152">
        <ele>1421.6</ele>
        <time>2022-05-23 12:15:06</time>
      </trkpt>
      <trkpt lat="42.05778" lon="0.74149">
        <ele>1421.6</ele>
        <time>2022-05-23 12:15:07</time>
      </trkpt>
      <trkpt lat="42.05778" lon="0.74146">
        <ele>1421.8</ele>
        <time>2022-05-23 12:15:08</time>
      </trkpt>
      <trkpt lat="42.05777" lon="0.74143">
        <ele>1422</ele>
        <time>2022-05-23 12:15:09</time>
      </trkpt>
      <trkpt lat="42.05777" lon="0.74141">
        <ele>1422.2</ele>
        <time>2022-05-23 12:15:10</time>
      </trkpt>
      <trkpt lat="42.05776" lon="0.74138">
        <ele>1422.2</ele>
        <time>2022-05-23 12:15:11</time>
      </trkpt>
      <trkpt lat="42.05775" lon="0.74135">
        <ele>1422.4</ele>
        <time>2022-05-23 12:15:12</time>
      </trkpt>
      <trkpt lat="42.05774" lon="0.74131">
        <ele>1422.6</ele>
        <time>2022-05-23 12:15:13</time>
      </trkpt>
      <trkpt lat="42.05774" lon="0.74128">
        <ele>1422.8</ele>
        <time>2022-05-23 12:15:14</time>
      </trkpt>
      <trkpt lat="42.05773" lon="0.74125">
        <ele>1423</ele>
        <time>2022-05-23 12:15:15</time>
      </trkpt>
      <trkpt lat="42.05772" lon="0.74122">
        <ele>1423.2</ele>
        <time>2022-05-23 12:15:16</time>
      </trkpt>
      <trkpt lat="42.05771" lon="0.74119">
        <ele>1423.4</ele>
        <time>2022-05-23 12:15:17</time>
      </trkpt>
      <trkpt lat="42.0577" lon="0.74116">
        <ele>1423.6</ele>
        <time>2022-05-23 12:15:18</time>
      </trkpt>
      <trkpt lat="42.0577" lon="0.74113">
        <ele>1423.8</ele>
        <time>2022-05-23 12:15:19</time>
      </trkpt>
      <trkpt lat="42.05769" lon="0.74111">
        <ele>1424</ele>
        <time>2022-05-23 12:15:20</time>
      </trkpt>
      <trkpt lat="42.05767" lon="0.74108">
        <ele>1424.2</ele>
        <time>2022-05-23 12:15:21</time>
      </trkpt>
      <trkpt lat="42.05767" lon="0.74106">
        <ele>1424.2</ele>
        <time>2022-05-23 12:15:22</time>
      </trkpt>
      <trkpt lat="42.05765" lon="0.74103">
        <ele>1424.4</ele>
        <time>2022-05-23 12:15:23</time>
      </trkpt>
      <trkpt lat="42.05763" lon="0.741">
        <ele>1424.6</ele>
        <time>2022-05-23 12:15:24</time>
      </trkpt>
      <trkpt lat="42.05762" lon="0.74098">
        <ele>1424.8</ele>
        <time>2022-05-23 12:15:25</time>
      </trkpt>
      <trkpt lat="42.0576" lon="0.74095">
        <ele>1424.8</ele>
        <time>2022-05-23 12:15:26</time>
      </trkpt>
      <trkpt lat="42.05759" lon="0.74092">
        <ele>1425</ele>
        <time>2022-05-23 12:15:27</time>
      </trkpt>
      <trkpt lat="42.05757" lon="0.74089">
        <ele>1425</ele>
        <time>2022-05-23 12:15:28</time>
      </trkpt>
      <trkpt lat="42.05756" lon="0.74086">
        <ele>1425.2</ele>
        <time>2022-05-23 12:15:29</time>
      </trkpt>
      <trkpt lat="42.05755" lon="0.74083">
        <ele>1425.4</ele>
        <time>2022-05-23 12:15:30</time>
      </trkpt>
      <trkpt lat="42.05754" lon="0.7408">
        <ele>1425.4</ele>
        <time>2022-05-23 12:15:31</time>
      </trkpt>
      <trkpt lat="42.05752" lon="0.74077">
        <ele>1425.6</ele>
        <time>2022-05-23 12:15:32</time>
      </trkpt>
      <trkpt lat="42.05751" lon="0.74074">
        <ele>1425.6</ele>
        <time>2022-05-23 12:15:33</time>
      </trkpt>
      <trkpt lat="42.05749" lon="0.74072">
        <ele>1425.8</ele>
        <time>2022-05-23 12:15:34</time>
      </trkpt>
      <trkpt lat="42.05748" lon="0.7407">
        <ele>1426</ele>
        <time>2022-05-23 12:15:35</time>
      </trkpt>
      <trkpt lat="42.05747" lon="0.74068">
        <ele>1426.2</ele>
        <time>2022-05-23 12:15:36</time>
      </trkpt>
      <trkpt lat="42.05746" lon="0.74065">
        <ele>1426.2</ele>
        <time>2022-05-23 12:15:37</time>
      </trkpt>
      <trkpt lat="42.05745" lon="0.74063">
        <ele>1426.4</ele>
        <time>2022-05-23 12:15:38</time>
      </trkpt>
      <trkpt lat="42.05744" lon="0.74061">
        <ele>1426.6</ele>
        <time>2022-05-23 12:15:39</time>
      </trkpt>
      <trkpt lat="42.05743" lon="0.74059">
        <ele>1426.6</ele>
        <time>2022-05-23 12:15:40</time>
      </trkpt>
      <trkpt lat="42.05742" lon="0.74058">
        <ele>1426.8</ele>
        <time>2022-05-23 12:15:41</time>
      </trkpt>
      <trkpt lat="42.0574" lon="0.74056">
        <ele>1427</ele>
        <time>2022-05-23 12:15:42</time>
      </trkpt>
      <trkpt lat="42.05739" lon="0.74053">
        <ele>1427.2</ele>
        <time>2022-05-23 12:15:43</time>
      </trkpt>
      <trkpt lat="42.05738" lon="0.74051">
        <ele>1427.2</ele>
        <time>2022-05-23 12:15:44</time>
      </trkpt>
      <trkpt lat="42.05737" lon="0.74048">
        <ele>1427.4</ele>
        <time>2022-05-23 12:15:45</time>
      </trkpt>
      <trkpt lat="42.05736" lon="0.74046">
        <ele>1427.6</ele>
        <time>2022-05-23 12:15:46</time>
      </trkpt>
      <trkpt lat="42.05735" lon="0.74044">
        <ele>1427.8</ele>
        <time>2022-05-23 12:15:47</time>
      </trkpt>
      <trkpt lat="42.05735" lon="0.74042">
        <ele>1428</ele>
        <time>2022-05-23 12:15:48</time>
      </trkpt>
      <trkpt lat="42.05734" lon="0.74039">
        <ele>1428.2</ele>
        <time>2022-05-23 12:15:49</time>
      </trkpt>
      <trkpt lat="42.05733" lon="0.74037">
        <ele>1428.4</ele>
        <time>2022-05-23 12:15:50</time>
      </trkpt>
      <trkpt lat="42.05733" lon="0.74035">
        <ele>1428.6</ele>
        <time>2022-05-23 12:15:51</time>
      </trkpt>
      <trkpt lat="42.05732" lon="0.74033">
        <ele>1428.6</ele>
        <time>2022-05-23 12:15:52</time>
      </trkpt>
      <trkpt lat="42.05732" lon="0.74031">
        <ele>1428.8</ele>
        <time>2022-05-23 12:15:53</time>
      </trkpt>
      <trkpt lat="42.05731" lon="0.74028">
        <ele>1429</ele>
        <time>2022-05-23 12:15:54</time>
      </trkpt>
      <trkpt lat="42.0573" lon="0.74026">
        <ele>1429.2</ele>
        <time>2022-05-23 12:15:55</time>
      </trkpt>
      <trkpt lat="42.0573" lon="0.74024">
        <ele>1429.2</ele>
        <time>2022-05-23 12:15:56</time>
      </trkpt>
      <trkpt lat="42.05729" lon="0.74022">
        <ele>1429.4</ele>
        <time>2022-05-23 12:15:57</time>
      </trkpt>
      <trkpt lat="42.05727" lon="0.7402">
        <ele>1429.6</ele>
        <time>2022-05-23 12:15:58</time>
      </trkpt>
      <trkpt lat="42.05727" lon="0.74017">
        <ele>1429.8</ele>
        <time>2022-05-23 12:15:59</time>
      </trkpt>
      <trkpt lat="42.05725" lon="0.74015">
        <ele>1430</ele>
        <time>2022-05-23 12:16:00</time>
      </trkpt>
      <trkpt lat="42.05725" lon="0.74012">
        <ele>1430.2</ele>
        <time>2022-05-23 12:16:01</time>
      </trkpt>
      <trkpt lat="42.05724" lon="0.7401">
        <ele>1430.4</ele>
        <time>2022-05-23 12:16:02</time>
      </trkpt>
      <trkpt lat="42.05723" lon="0.74007">
        <ele>1430.6</ele>
        <time>2022-05-23 12:16:03</time>
      </trkpt>
      <trkpt lat="42.05722" lon="0.74004">
        <ele>1430.8</ele>
        <time>2022-05-23 12:16:04</time>
      </trkpt>
      <trkpt lat="42.05721" lon="0.74002">
        <ele>1431</ele>
        <time>2022-05-23 12:16:05</time>
      </trkpt>
      <trkpt lat="42.0572" lon="0.73999">
        <ele>1431.2</ele>
        <time>2022-05-23 12:16:06</time>
      </trkpt>
      <trkpt lat="42.0572" lon="0.73996">
        <ele>1431.4</ele>
        <time>2022-05-23 12:16:07</time>
      </trkpt>
      <trkpt lat="42.05719" lon="0.73993">
        <ele>1431.6</ele>
        <time>2022-05-23 12:16:08</time>
      </trkpt>
      <trkpt lat="42.05719" lon="0.7399">
        <ele>1431.8</ele>
        <time>2022-05-23 12:16:09</time>
      </trkpt>
      <trkpt lat="42.05718" lon="0.73987">
        <ele>1432</ele>
        <time>2022-05-23 12:16:10</time>
      </trkpt>
      <trkpt lat="42.05717" lon="0.73984">
        <ele>1432.2</ele>
        <time>2022-05-23 12:16:11</time>
      </trkpt>
      <trkpt lat="42.05716" lon="0.73981">
        <ele>1432.4</ele>
        <time>2022-05-23 12:16:12</time>
      </trkpt>
      <trkpt lat="42.05716" lon="0.73978">
        <ele>1432.6</ele>
        <time>2022-05-23 12:16:13</time>
      </trkpt>
      <trkpt lat="42.05715" lon="0.73975">
        <ele>1432.8</ele>
        <time>2022-05-23 12:16:14</time>
      </trkpt>
      <trkpt lat="42.05715" lon="0.73973">
        <ele>1433</ele>
        <time>2022-05-23 12:16:15</time>
      </trkpt>
      <trkpt lat="42.05714" lon="0.7397">
        <ele>1433.2</ele>
        <time>2022-05-23 12:16:16</time>
      </trkpt>
      <trkpt lat="42.05713" lon="0.73967">
        <ele>1433.4</ele>
        <time>2022-05-23 12:16:17</time>
      </trkpt>
      <trkpt lat="42.05713" lon="0.73965">
        <ele>1433.6</ele>
        <time>2022-05-23 12:16:18</time>
      </trkpt>
      <trkpt lat="42.05712" lon="0.73962">
        <ele>1433.8</ele>
        <time>2022-05-23 12:16:19</time>
      </trkpt>
      <trkpt lat="42.05712" lon="0.7396">
        <ele>1434</ele>
        <time>2022-05-23 12:16:20</time>
      </trkpt>
      <trkpt lat="42.05711" lon="0.73957">
        <ele>1434.2</ele>
        <time>2022-05-23 12:16:21</time>
      </trkpt>
      <trkpt lat="42.0571" lon="0.73955">
        <ele>1434.2</ele>
        <time>2022-05-23 12:16:22</time>
      </trkpt>
      <trkpt lat="42.05709" lon="0.73952">
        <ele>1434.4</ele>
        <time>2022-05-23 12:16:23</time>
      </trkpt>
      <trkpt lat="42.05709" lon="0.73949">
        <ele>1434.6</ele>
        <time>2022-05-23 12:16:24</time>
      </trkpt>
      <trkpt lat="42.05708" lon="0.73947">
        <ele>1434.6</ele>
        <time>2022-05-23 12:16:25</time>
      </trkpt>
      <trkpt lat="42.05708" lon="0.73944">
        <ele>1434.8</ele>
        <time>2022-05-23 12:16:26</time>
      </trkpt>
      <trkpt lat="42.05707" lon="0.73941">
        <ele>1434.8</ele>
        <time>2022-05-23 12:16:27</time>
      </trkpt>
      <trkpt lat="42.05707" lon="0.73939">
        <ele>1435</ele>
        <time>2022-05-23 12:16:28</time>
      </trkpt>
      <trkpt lat="42.05707" lon="0.73936">
        <ele>1435</ele>
        <time>2022-05-23 12:16:29</time>
      </trkpt>
      <trkpt lat="42.05708" lon="0.73933">
        <ele>1435.2</ele>
        <time>2022-05-23 12:16:30</time>
      </trkpt>
      <trkpt lat="42.05708" lon="0.7393">
        <ele>1435.4</ele>
        <time>2022-05-23 12:16:31</time>
      </trkpt>
      <trkpt lat="42.0571" lon="0.73927">
        <ele>1435.6</ele>
        <time>2022-05-23 12:16:32</time>
      </trkpt>
      <trkpt lat="42.05711" lon="0.73925">
        <ele>1435.8</ele>
        <time>2022-05-23 12:16:33</time>
      </trkpt>
      <trkpt lat="42.05714" lon="0.73923">
        <ele>1436</ele>
        <time>2022-05-23 12:16:34</time>
      </trkpt>
      <trkpt lat="42.05716" lon="0.73921">
        <ele>1436</ele>
        <time>2022-05-23 12:16:35</time>
      </trkpt>
      <trkpt lat="42.05718" lon="0.73919">
        <ele>1436</ele>
        <time>2022-05-23 12:16:36</time>
      </trkpt>
      <trkpt lat="42.05721" lon="0.73918">
        <ele>1436.2</ele>
        <time>2022-05-23 12:16:37</time>
      </trkpt>
      <trkpt lat="42.05723" lon="0.73916">
        <ele>1436.2</ele>
        <time>2022-05-23 12:16:38</time>
      </trkpt>
      <trkpt lat="42.05724" lon="0.73915">
        <ele>1436.4</ele>
        <time>2022-05-23 12:16:39</time>
      </trkpt>
      <trkpt lat="42.05727" lon="0.73913">
        <ele>1436.6</ele>
        <time>2022-05-23 12:16:40</time>
      </trkpt>
      <trkpt lat="42.05729" lon="0.73912">
        <ele>1436.6</ele>
        <time>2022-05-23 12:16:41</time>
      </trkpt>
      <trkpt lat="42.05731" lon="0.7391">
        <ele>1436.8</ele>
        <time>2022-05-23 12:16:42</time>
      </trkpt>
      <trkpt lat="42.05733" lon="0.73909">
        <ele>1437</ele>
        <time>2022-05-23 12:16:43</time>
      </trkpt>
      <trkpt lat="42.05735" lon="0.73908">
        <ele>1437.2</ele>
        <time>2022-05-23 12:16:44</time>
      </trkpt>
      <trkpt lat="42.05737" lon="0.73907">
        <ele>1437.4</ele>
        <time>2022-05-23 12:16:45</time>
      </trkpt>
      <trkpt lat="42.05739" lon="0.73905">
        <ele>1437.4</ele>
        <time>2022-05-23 12:16:46</time>
      </trkpt>
      <trkpt lat="42.05742" lon="0.73904">
        <ele>1437.6</ele>
        <time>2022-05-23 12:16:47</time>
      </trkpt>
      <trkpt lat="42.05744" lon="0.73903">
        <ele>1437.8</ele>
        <time>2022-05-23 12:16:48</time>
      </trkpt>
      <trkpt lat="42.05747" lon="0.73902">
        <ele>1438</ele>
        <time>2022-05-23 12:16:49</time>
      </trkpt>
      <trkpt lat="42.05748" lon="0.73901">
        <ele>1438.2</ele>
        <time>2022-05-23 12:16:50</time>
      </trkpt>
      <trkpt lat="42.05751" lon="0.739">
        <ele>1438.4</ele>
        <time>2022-05-23 12:16:51</time>
      </trkpt>
      <trkpt lat="42.05753" lon="0.73899">
        <ele>1438.6</ele>
        <time>2022-05-23 12:16:52</time>
      </trkpt>
      <trkpt lat="42.05755" lon="0.73899">
        <ele>1438.6</ele>
        <time>2022-05-23 12:16:53</time>
      </trkpt>
      <trkpt lat="42.05757" lon="0.73897">
        <ele>1438.8</ele>
        <time>2022-05-23 12:16:54</time>
      </trkpt>
      <trkpt lat="42.0576" lon="0.73896">
        <ele>1439</ele>
        <time>2022-05-23 12:16:55</time>
      </trkpt>
      <trkpt lat="42.05761" lon="0.73894">
        <ele>1439.2</ele>
        <time>2022-05-23 12:16:56</time>
      </trkpt>
      <trkpt lat="42.05763" lon="0.73893">
        <ele>1439.2</ele>
        <time>2022-05-23 12:16:57</time>
      </trkpt>
      <trkpt lat="42.05765" lon="0.73891">
        <ele>1439.4</ele>
        <time>2022-05-23 12:16:58</time>
      </trkpt>
      <trkpt lat="42.05766" lon="0.73888">
        <ele>1439.6</ele>
        <time>2022-05-23 12:16:59</time>
      </trkpt>
      <trkpt lat="42.05768" lon="0.73886">
        <ele>1439.8</ele>
        <time>2022-05-23 12:17:00</time>
      </trkpt>
      <trkpt lat="42.05769" lon="0.73883">
        <ele>1439.8</ele>
        <time>2022-05-23 12:17:01</time>
      </trkpt>
      <trkpt lat="42.0577" lon="0.73881">
        <ele>1440</ele>
        <time>2022-05-23 12:17:02</time>
      </trkpt>
      <trkpt lat="42.05771" lon="0.73878">
        <ele>1440</ele>
        <time>2022-05-23 12:17:03</time>
      </trkpt>
      <trkpt lat="42.05772" lon="0.73876">
        <ele>1440.2</ele>
        <time>2022-05-23 12:17:04</time>
      </trkpt>
      <trkpt lat="42.05773" lon="0.73874">
        <ele>1440.4</ele>
        <time>2022-05-23 12:17:05</time>
      </trkpt>
      <trkpt lat="42.05774" lon="0.73871">
        <ele>1440.6</ele>
        <time>2022-05-23 12:17:06</time>
      </trkpt>
      <trkpt lat="42.05774" lon="0.73869">
        <ele>1440.8</ele>
        <time>2022-05-23 12:17:07</time>
      </trkpt>
      <trkpt lat="42.05775" lon="0.73867">
        <ele>1440.8</ele>
        <time>2022-05-23 12:17:08</time>
      </trkpt>
      <trkpt lat="42.05776" lon="0.73865">
        <ele>1441</ele>
        <time>2022-05-23 12:17:09</time>
      </trkpt>
      <trkpt lat="42.05776" lon="0.73862">
        <ele>1441.2</ele>
        <time>2022-05-23 12:17:10</time>
      </trkpt>
      <trkpt lat="42.05777" lon="0.7386">
        <ele>1441.4</ele>
        <time>2022-05-23 12:17:11</time>
      </trkpt>
      <trkpt lat="42.05778" lon="0.73857">
        <ele>1441.6</ele>
        <time>2022-05-23 12:17:12</time>
      </trkpt>
      <trkpt lat="42.05779" lon="0.73854">
        <ele>1442</ele>
        <time>2022-05-23 12:17:13</time>
      </trkpt>
      <trkpt lat="42.05779" lon="0.73851">
        <ele>1442.2</ele>
        <time>2022-05-23 12:17:14</time>
      </trkpt>
      <trkpt lat="42.0578" lon="0.73849">
        <ele>1442.4</ele>
        <time>2022-05-23 12:17:15</time>
      </trkpt>
      <trkpt lat="42.0578" lon="0.73846">
        <ele>1442.6</ele>
        <time>2022-05-23 12:17:16</time>
      </trkpt>
      <trkpt lat="42.0578" lon="0.73843">
        <ele>1442.8</ele>
        <time>2022-05-23 12:17:17</time>
      </trkpt>
      <trkpt lat="42.05781" lon="0.73841">
        <ele>1443</ele>
        <time>2022-05-23 12:17:18</time>
      </trkpt>
      <trkpt lat="42.05781" lon="0.73838">
        <ele>1443.2</ele>
        <time>2022-05-23 12:17:19</time>
      </trkpt>
      <trkpt lat="42.05782" lon="0.73835">
        <ele>1443.4</ele>
        <time>2022-05-23 12:17:20</time>
      </trkpt>
      <trkpt lat="42.05782" lon="0.73833">
        <ele>1443.6</ele>
        <time>2022-05-23 12:17:21</time>
      </trkpt>
      <trkpt lat="42.05782" lon="0.7383">
        <ele>1443.8</ele>
        <time>2022-05-23 12:17:22</time>
      </trkpt>
      <trkpt lat="42.05783" lon="0.73827">
        <ele>1444</ele>
        <time>2022-05-23 12:17:23</time>
      </trkpt>
      <trkpt lat="42.05783" lon="0.73825">
        <ele>1444.2</ele>
        <time>2022-05-23 12:17:24</time>
      </trkpt>
      <trkpt lat="42.05784" lon="0.73822">
        <ele>1444.6</ele>
        <time>2022-05-23 12:17:25</time>
      </trkpt>
      <trkpt lat="42.05784" lon="0.7382">
        <ele>1444.8</ele>
        <time>2022-05-23 12:17:26</time>
      </trkpt>
      <trkpt lat="42.05785" lon="0.73818">
        <ele>1445</ele>
        <time>2022-05-23 12:17:27</time>
      </trkpt>
      <trkpt lat="42.05785" lon="0.73816">
        <ele>1445.2</ele>
        <time>2022-05-23 12:17:28</time>
      </trkpt>
      <trkpt lat="42.05785" lon="0.73814">
        <ele>1445.4</ele>
        <time>2022-05-23 12:17:29</time>
      </trkpt>
      <trkpt lat="42.05786" lon="0.73812">
        <ele>1445.6</ele>
        <time>2022-05-23 12:17:30</time>
      </trkpt>
      <trkpt lat="42.05785" lon="0.7381">
        <ele>1445.8</ele>
        <time>2022-05-23 12:17:31</time>
      </trkpt>
      <trkpt lat="42.05785" lon="0.73807">
        <ele>1446</ele>
        <time>2022-05-23 12:17:32</time>
      </trkpt>
      <trkpt lat="42.05785" lon="0.73805">
        <ele>1446.2</ele>
        <time>2022-05-23 12:17:33</time>
      </trkpt>
      <trkpt lat="42.05786" lon="0.73802">
        <ele>1446.4</ele>
        <time>2022-05-23 12:17:34</time>
      </trkpt>
      <trkpt lat="42.05787" lon="0.73799">
        <ele>1446.6</ele>
        <time>2022-05-23 12:17:35</time>
      </trkpt>
      <trkpt lat="42.05787" lon="0.73797">
        <ele>1446.8</ele>
        <time>2022-05-23 12:17:36</time>
      </trkpt>
      <trkpt lat="42.05787" lon="0.73794">
        <ele>1447</ele>
        <time>2022-05-23 12:17:37</time>
      </trkpt>
      <trkpt lat="42.05787" lon="0.73792">
        <ele>1447</ele>
        <time>2022-05-23 12:17:38</time>
      </trkpt>
      <trkpt lat="42.05787" lon="0.7379">
        <ele>1447.2</ele>
        <time>2022-05-23 12:17:39</time>
      </trkpt>
      <trkpt lat="42.05787" lon="0.73788">
        <ele>1447.4</ele>
        <time>2022-05-23 12:17:40</time>
      </trkpt>
      <trkpt lat="42.05788" lon="0.73786">
        <ele>1447.6</ele>
        <time>2022-05-23 12:17:41</time>
      </trkpt>
      <trkpt lat="42.05788" lon="0.73784">
        <ele>1447.6</ele>
        <time>2022-05-23 12:17:42</time>
      </trkpt>
      <trkpt lat="42.05788" lon="0.73782">
        <ele>1447.8</ele>
        <time>2022-05-23 12:17:43</time>
      </trkpt>
      <trkpt lat="42.05788" lon="0.7378">
        <ele>1448</ele>
        <time>2022-05-23 12:17:44</time>
      </trkpt>
      <trkpt lat="42.05788" lon="0.73779">
        <ele>1448</ele>
        <time>2022-05-23 12:17:45</time>
      </trkpt>
      <trkpt lat="42.05788" lon="0.73777">
        <ele>1448.2</ele>
        <time>2022-05-23 12:17:46</time>
      </trkpt>
      <trkpt lat="42.05788" lon="0.73776">
        <ele>1448.4</ele>
        <time>2022-05-23 12:17:47</time>
      </trkpt>
      <trkpt lat="42.05788" lon="0.73773">
        <ele>1448.6</ele>
        <time>2022-05-23 12:17:48</time>
      </trkpt>
      <trkpt lat="42.05788" lon="0.73771">
        <ele>1448.8</ele>
        <time>2022-05-23 12:17:49</time>
      </trkpt>
      <trkpt lat="42.05788" lon="0.73768">
        <ele>1448.8</ele>
        <time>2022-05-23 12:17:50</time>
      </trkpt>
      <trkpt lat="42.05789" lon="0.73765">
        <ele>1449</ele>
        <time>2022-05-23 12:17:51</time>
      </trkpt>
      <trkpt lat="42.05789" lon="0.73762">
        <ele>1449.2</ele>
        <time>2022-05-23 12:17:52</time>
      </trkpt>
      <trkpt lat="42.05789" lon="0.73759">
        <ele>1449.4</ele>
        <time>2022-05-23 12:17:53</time>
      </trkpt>
      <trkpt lat="42.05789" lon="0.73756">
        <ele>1449.6</ele>
        <time>2022-05-23 12:17:54</time>
      </trkpt>
      <trkpt lat="42.0579" lon="0.73754">
        <ele>1449.8</ele>
        <time>2022-05-23 12:17:55</time>
      </trkpt>
      <trkpt lat="42.0579" lon="0.73752">
        <ele>1450</ele>
        <time>2022-05-23 12:17:56</time>
      </trkpt>
      <trkpt lat="42.0579" lon="0.73749">
        <ele>1450.2</ele>
        <time>2022-05-23 12:17:57</time>
      </trkpt>
      <trkpt lat="42.0579" lon="0.73746">
        <ele>1450.4</ele>
        <time>2022-05-23 12:17:58</time>
      </trkpt>
      <trkpt lat="42.0579" lon="0.73743">
        <ele>1450.6</ele>
        <time>2022-05-23 12:17:59</time>
      </trkpt>
      <trkpt lat="42.0579" lon="0.73741">
        <ele>1450.8</ele>
        <time>2022-05-23 12:18:00</time>
      </trkpt>
      <trkpt lat="42.0579" lon="0.73739">
        <ele>1451</ele>
        <time>2022-05-23 12:18:01</time>
      </trkpt>
      <trkpt lat="42.05791" lon="0.73736">
        <ele>1451</ele>
        <time>2022-05-23 12:18:02</time>
      </trkpt>
      <trkpt lat="42.05792" lon="0.73733">
        <ele>1451.2</ele>
        <time>2022-05-23 12:18:03</time>
      </trkpt>
      <trkpt lat="42.05793" lon="0.7373">
        <ele>1451.4</ele>
        <time>2022-05-23 12:18:04</time>
      </trkpt>
      <trkpt lat="42.05793" lon="0.73729">
        <ele>1451.6</ele>
        <time>2022-05-23 12:18:05</time>
      </trkpt>
      <trkpt lat="42.05794" lon="0.73725">
        <ele>1451.6</ele>
        <time>2022-05-23 12:18:06</time>
      </trkpt>
      <trkpt lat="42.05795" lon="0.73723">
        <ele>1451.8</ele>
        <time>2022-05-23 12:18:07</time>
      </trkpt>
      <trkpt lat="42.05795" lon="0.73719">
        <ele>1452</ele>
        <time>2022-05-23 12:18:08</time>
      </trkpt>
      <trkpt lat="42.05796" lon="0.73716">
        <ele>1452</ele>
        <time>2022-05-23 12:18:09</time>
      </trkpt>
      <trkpt lat="42.05796" lon="0.73712">
        <ele>1452.2</ele>
        <time>2022-05-23 12:18:10</time>
      </trkpt>
      <trkpt lat="42.05796" lon="0.73709">
        <ele>1452.4</ele>
        <time>2022-05-23 12:18:11</time>
      </trkpt>
      <trkpt lat="42.05796" lon="0.73707">
        <ele>1452.6</ele>
        <time>2022-05-23 12:18:12</time>
      </trkpt>
      <trkpt lat="42.05797" lon="0.73704">
        <ele>1452.8</ele>
        <time>2022-05-23 12:18:13</time>
      </trkpt>
      <trkpt lat="42.05797" lon="0.73701">
        <ele>1453</ele>
        <time>2022-05-23 12:18:14</time>
      </trkpt>
      <trkpt lat="42.05797" lon="0.73698">
        <ele>1453.2</ele>
        <time>2022-05-23 12:18:15</time>
      </trkpt>
      <trkpt lat="42.05798" lon="0.73695">
        <ele>1453.2</ele>
        <time>2022-05-23 12:18:16</time>
      </trkpt>
      <trkpt lat="42.05798" lon="0.73693">
        <ele>1453.4</ele>
        <time>2022-05-23 12:18:17</time>
      </trkpt>
      <trkpt lat="42.05798" lon="0.7369">
        <ele>1453.6</ele>
        <time>2022-05-23 12:18:18</time>
      </trkpt>
      <trkpt lat="42.05799" lon="0.73687">
        <ele>1453.8</ele>
        <time>2022-05-23 12:18:19</time>
      </trkpt>
      <trkpt lat="42.05799" lon="0.73684">
        <ele>1454</ele>
        <time>2022-05-23 12:18:20</time>
      </trkpt>
      <trkpt lat="42.05799" lon="0.7368">
        <ele>1454.2</ele>
        <time>2022-05-23 12:18:21</time>
      </trkpt>
      <trkpt lat="42.058" lon="0.73677">
        <ele>1454.2</ele>
        <time>2022-05-23 12:18:22</time>
      </trkpt>
      <trkpt lat="42.058" lon="0.73673">
        <ele>1454.4</ele>
        <time>2022-05-23 12:18:23</time>
      </trkpt>
      <trkpt lat="42.058" lon="0.7367">
        <ele>1454.6</ele>
        <time>2022-05-23 12:18:24</time>
      </trkpt>
      <trkpt lat="42.05801" lon="0.73667">
        <ele>1454.8</ele>
        <time>2022-05-23 12:18:25</time>
      </trkpt>
      <trkpt lat="42.05801" lon="0.73664">
        <ele>1454.8</ele>
        <time>2022-05-23 12:18:26</time>
      </trkpt>
      <trkpt lat="42.05802" lon="0.73662">
        <ele>1455</ele>
        <time>2022-05-23 12:18:27</time>
      </trkpt>
      <trkpt lat="42.05802" lon="0.73659">
        <ele>1455.2</ele>
        <time>2022-05-23 12:18:28</time>
      </trkpt>
      <trkpt lat="42.05802" lon="0.73656">
        <ele>1455.4</ele>
        <time>2022-05-23 12:18:29</time>
      </trkpt>
      <trkpt lat="42.05803" lon="0.73653">
        <ele>1455.6</ele>
        <time>2022-05-23 12:18:30</time>
      </trkpt>
      <trkpt lat="42.05803" lon="0.7365">
        <ele>1455.8</ele>
        <time>2022-05-23 12:18:31</time>
      </trkpt>
      <trkpt lat="42.05803" lon="0.73647">
        <ele>1455.8</ele>
        <time>2022-05-23 12:18:32</time>
      </trkpt>
      <trkpt lat="42.05803" lon="0.73645">
        <ele>1456</ele>
        <time>2022-05-23 12:18:33</time>
      </trkpt>
      <trkpt lat="42.05803" lon="0.73642">
        <ele>1456.2</ele>
        <time>2022-05-23 12:18:34</time>
      </trkpt>
      <trkpt lat="42.05803" lon="0.7364">
        <ele>1456.2</ele>
        <time>2022-05-23 12:18:35</time>
      </trkpt>
      <trkpt lat="42.05803" lon="0.73637">
        <ele>1456.4</ele>
        <time>2022-05-23 12:18:36</time>
      </trkpt>
      <trkpt lat="42.05804" lon="0.73635">
        <ele>1456.6</ele>
        <time>2022-05-23 12:18:37</time>
      </trkpt>
      <trkpt lat="42.05804" lon="0.73633">
        <ele>1456.8</ele>
        <time>2022-05-23 12:18:38</time>
      </trkpt>
      <trkpt lat="42.05804" lon="0.73632">
        <ele>1457</ele>
        <time>2022-05-23 12:18:39</time>
      </trkpt>
      <trkpt lat="42.05805" lon="0.7363">
        <ele>1457.2</ele>
        <time>2022-05-23 12:18:40</time>
      </trkpt>
      <trkpt lat="42.05805" lon="0.73628">
        <ele>1457.4</ele>
        <time>2022-05-23 12:18:41</time>
      </trkpt>
      <trkpt lat="42.05806" lon="0.73626">
        <ele>1457.6</ele>
        <time>2022-05-23 12:18:42</time>
      </trkpt>
      <trkpt lat="42.05806" lon="0.73623">
        <ele>1457.8</ele>
        <time>2022-05-23 12:18:43</time>
      </trkpt>
      <trkpt lat="42.05806" lon="0.7362">
        <ele>1458</ele>
        <time>2022-05-23 12:18:44</time>
      </trkpt>
      <trkpt lat="42.05806" lon="0.73618">
        <ele>1458</ele>
        <time>2022-05-23 12:18:45</time>
      </trkpt>
      <trkpt lat="42.05806" lon="0.73615">
        <ele>1458.2</ele>
        <time>2022-05-23 12:18:46</time>
      </trkpt>
      <trkpt lat="42.05807" lon="0.73612">
        <ele>1458.4</ele>
        <time>2022-05-23 12:18:47</time>
      </trkpt>
      <trkpt lat="42.05807" lon="0.7361">
        <ele>1458.4</ele>
        <time>2022-05-23 12:18:48</time>
      </trkpt>
      <trkpt lat="42.05807" lon="0.73607">
        <ele>1458.6</ele>
        <time>2022-05-23 12:18:49</time>
      </trkpt>
      <trkpt lat="42.05807" lon="0.73604">
        <ele>1458.8</ele>
        <time>2022-05-23 12:18:50</time>
      </trkpt>
      <trkpt lat="42.05806" lon="0.73602">
        <ele>1458.8</ele>
        <time>2022-05-23 12:18:51</time>
      </trkpt>
      <trkpt lat="42.05806" lon="0.73599">
        <ele>1459</ele>
        <time>2022-05-23 12:18:52</time>
      </trkpt>
      <trkpt lat="42.05806" lon="0.73596">
        <ele>1459.2</ele>
        <time>2022-05-23 12:18:53</time>
      </trkpt>
      <trkpt lat="42.05806" lon="0.73594">
        <ele>1459.4</ele>
        <time>2022-05-23 12:18:54</time>
      </trkpt>
      <trkpt lat="42.05805" lon="0.73591">
        <ele>1459.4</ele>
        <time>2022-05-23 12:18:55</time>
      </trkpt>
      <trkpt lat="42.05805" lon="0.73589">
        <ele>1459.6</ele>
        <time>2022-05-23 12:18:56</time>
      </trkpt>
      <trkpt lat="42.05804" lon="0.73587">
        <ele>1459.8</ele>
        <time>2022-05-23 12:18:57</time>
      </trkpt>
      <trkpt lat="42.05804" lon="0.73584">
        <ele>1459.8</ele>
        <time>2022-05-23 12:18:58</time>
      </trkpt>
      <trkpt lat="42.05803" lon="0.73582">
        <ele>1459.8</ele>
        <time>2022-05-23 12:18:59</time>
      </trkpt>
      <trkpt lat="42.05803" lon="0.7358">
        <ele>1459.8</ele>
        <time>2022-05-23 12:19:00</time>
      </trkpt>
      <trkpt lat="42.05802" lon="0.73578">
        <ele>1459.8</ele>
        <time>2022-05-23 12:19:01</time>
      </trkpt>
      <trkpt lat="42.05802" lon="0.73575">
        <ele>1460</ele>
        <time>2022-05-23 12:19:02</time>
      </trkpt>
      <trkpt lat="42.05802" lon="0.73573">
        <ele>1460</ele>
        <time>2022-05-23 12:19:03</time>
      </trkpt>
      <trkpt lat="42.05801" lon="0.7357">
        <ele>1460.2</ele>
        <time>2022-05-23 12:19:04</time>
      </trkpt>
      <trkpt lat="42.05801" lon="0.73567">
        <ele>1460.4</ele>
        <time>2022-05-23 12:19:05</time>
      </trkpt>
      <trkpt lat="42.058" lon="0.73564">
        <ele>1460.6</ele>
        <time>2022-05-23 12:19:06</time>
      </trkpt>
      <trkpt lat="42.058" lon="0.73561">
        <ele>1460.8</ele>
        <time>2022-05-23 12:19:07</time>
      </trkpt>
      <trkpt lat="42.05799" lon="0.73559">
        <ele>1461</ele>
        <time>2022-05-23 12:19:08</time>
      </trkpt>
      <trkpt lat="42.05799" lon="0.73556">
        <ele>1461.4</ele>
        <time>2022-05-23 12:19:09</time>
      </trkpt>
      <trkpt lat="42.05798" lon="0.73554">
        <ele>1461.4</ele>
        <time>2022-05-23 12:19:10</time>
      </trkpt>
      <trkpt lat="42.05798" lon="0.73551">
        <ele>1461.8</ele>
        <time>2022-05-23 12:19:11</time>
      </trkpt>
      <trkpt lat="42.05798" lon="0.73549">
        <ele>1462</ele>
        <time>2022-05-23 12:19:12</time>
      </trkpt>
      <trkpt lat="42.05797" lon="0.73546">
        <ele>1462.2</ele>
        <time>2022-05-23 12:19:13</time>
      </trkpt>
      <trkpt lat="42.05796" lon="0.73544">
        <ele>1462.4</ele>
        <time>2022-05-23 12:19:14</time>
      </trkpt>
      <trkpt lat="42.05796" lon="0.73541">
        <ele>1462.8</ele>
        <time>2022-05-23 12:19:15</time>
      </trkpt>
      <trkpt lat="42.05795" lon="0.73539">
        <ele>1462.8</ele>
        <time>2022-05-23 12:19:16</time>
      </trkpt>
      <trkpt lat="42.05794" lon="0.73536">
        <ele>1463</ele>
        <time>2022-05-23 12:19:17</time>
      </trkpt>
      <trkpt lat="42.05793" lon="0.73534">
        <ele>1463</ele>
        <time>2022-05-23 12:19:18</time>
      </trkpt>
      <trkpt lat="42.05793" lon="0.73531">
        <ele>1463</ele>
        <time>2022-05-23 12:19:19</time>
      </trkpt>
      <trkpt lat="42.05792" lon="0.73529">
        <ele>1463</ele>
        <time>2022-05-23 12:19:20</time>
      </trkpt>
      <trkpt lat="42.05791" lon="0.73526">
        <ele>1463</ele>
        <time>2022-05-23 12:19:21</time>
      </trkpt>
      <trkpt lat="42.05791" lon="0.73524">
        <ele>1463.2</ele>
        <time>2022-05-23 12:19:22</time>
      </trkpt>
      <trkpt lat="42.0579" lon="0.73522">
        <ele>1463.2</ele>
        <time>2022-05-23 12:19:23</time>
      </trkpt>
      <trkpt lat="42.0579" lon="0.73519">
        <ele>1463.4</ele>
        <time>2022-05-23 12:19:24</time>
      </trkpt>
      <trkpt lat="42.05789" lon="0.73517">
        <ele>1463.4</ele>
        <time>2022-05-23 12:19:25</time>
      </trkpt>
      <trkpt lat="42.05788" lon="0.73515">
        <ele>1463.6</ele>
        <time>2022-05-23 12:19:26</time>
      </trkpt>
      <trkpt lat="42.05787" lon="0.73512">
        <ele>1463.8</ele>
        <time>2022-05-23 12:19:27</time>
      </trkpt>
      <trkpt lat="42.05786" lon="0.7351">
        <ele>1463.8</ele>
        <time>2022-05-23 12:19:28</time>
      </trkpt>
      <trkpt lat="42.05785" lon="0.73508">
        <ele>1464</ele>
        <time>2022-05-23 12:19:29</time>
      </trkpt>
      <trkpt lat="42.05784" lon="0.73506">
        <ele>1464.2</ele>
        <time>2022-05-23 12:19:30</time>
      </trkpt>
      <trkpt lat="42.05783" lon="0.73503">
        <ele>1464.4</ele>
        <time>2022-05-23 12:19:31</time>
      </trkpt>
      <trkpt lat="42.05782" lon="0.73501">
        <ele>1464.6</ele>
        <time>2022-05-23 12:19:32</time>
      </trkpt>
      <trkpt lat="42.05782" lon="0.73498">
        <ele>1464.6</ele>
        <time>2022-05-23 12:19:33</time>
      </trkpt>
      <trkpt lat="42.05781" lon="0.73495">
        <ele>1465</ele>
        <time>2022-05-23 12:19:34</time>
      </trkpt>
      <trkpt lat="42.0578" lon="0.73493">
        <ele>1465.2</ele>
        <time>2022-05-23 12:19:35</time>
      </trkpt>
      <trkpt lat="42.05779" lon="0.7349">
        <ele>1465.2</ele>
        <time>2022-05-23 12:19:36</time>
      </trkpt>
      <trkpt lat="42.05778" lon="0.73488">
        <ele>1465.4</ele>
        <time>2022-05-23 12:19:37</time>
      </trkpt>
      <trkpt lat="42.05777" lon="0.73486">
        <ele>1465.4</ele>
        <time>2022-05-23 12:19:38</time>
      </trkpt>
      <trkpt lat="42.05776" lon="0.73484">
        <ele>1465.6</ele>
        <time>2022-05-23 12:19:39</time>
      </trkpt>
      <trkpt lat="42.05775" lon="0.73481">
        <ele>1465.8</ele>
        <time>2022-05-23 12:19:40</time>
      </trkpt>
      <trkpt lat="42.05774" lon="0.73479">
        <ele>1466</ele>
        <time>2022-05-23 12:19:41</time>
      </trkpt>
      <trkpt lat="42.05773" lon="0.73477">
        <ele>1466.2</ele>
        <time>2022-05-23 12:19:42</time>
      </trkpt>
      <trkpt lat="42.05772" lon="0.73475">
        <ele>1466.2</ele>
        <time>2022-05-23 12:19:43</time>
      </trkpt>
      <trkpt lat="42.05772" lon="0.73472">
        <ele>1466.4</ele>
        <time>2022-05-23 12:19:44</time>
      </trkpt>
      <trkpt lat="42.05771" lon="0.7347">
        <ele>1466.6</ele>
        <time>2022-05-23 12:19:45</time>
      </trkpt>
      <trkpt lat="42.0577" lon="0.73468">
        <ele>1466.6</ele>
        <time>2022-05-23 12:19:46</time>
      </trkpt>
      <trkpt lat="42.05769" lon="0.73466">
        <ele>1466.8</ele>
        <time>2022-05-23 12:19:47</time>
      </trkpt>
      <trkpt lat="42.05768" lon="0.73464">
        <ele>1466.8</ele>
        <time>2022-05-23 12:19:48</time>
      </trkpt>
      <trkpt lat="42.05767" lon="0.73462">
        <ele>1467</ele>
        <time>2022-05-23 12:19:49</time>
      </trkpt>
      <trkpt lat="42.05767" lon="0.73459">
        <ele>1467.2</ele>
        <time>2022-05-23 12:19:50</time>
      </trkpt>
      <trkpt lat="42.05766" lon="0.73457">
        <ele>1467.4</ele>
        <time>2022-05-23 12:19:51</time>
      </trkpt>
      <trkpt lat="42.05766" lon="0.73455">
        <ele>1467.6</ele>
        <time>2022-05-23 12:19:52</time>
      </trkpt>
      <trkpt lat="42.05765" lon="0.73452">
        <ele>1467.8</ele>
        <time>2022-05-23 12:19:53</time>
      </trkpt>
      <trkpt lat="42.05764" lon="0.7345">
        <ele>1467.8</ele>
        <time>2022-05-23 12:19:54</time>
      </trkpt>
      <trkpt lat="42.05764" lon="0.73448">
        <ele>1468</ele>
        <time>2022-05-23 12:19:55</time>
      </trkpt>
      <trkpt lat="42.05762" lon="0.73446">
        <ele>1468.2</ele>
        <time>2022-05-23 12:19:56</time>
      </trkpt>
      <trkpt lat="42.05762" lon="0.73444">
        <ele>1468.4</ele>
        <time>2022-05-23 12:19:57</time>
      </trkpt>
      <trkpt lat="42.05761" lon="0.73443">
        <ele>1468.6</ele>
        <time>2022-05-23 12:19:58</time>
      </trkpt>
      <trkpt lat="42.05759" lon="0.73441">
        <ele>1468.8</ele>
        <time>2022-05-23 12:19:59</time>
      </trkpt>
      <trkpt lat="42.05757" lon="0.7344">
        <ele>1469</ele>
        <time>2022-05-23 12:20:00</time>
      </trkpt>
      <trkpt lat="42.05755" lon="0.7344">
        <ele>1469.2</ele>
        <time>2022-05-23 12:20:01</time>
      </trkpt>
      <trkpt lat="42.05753" lon="0.7344">
        <ele>1469.6</ele>
        <time>2022-05-23 12:20:02</time>
      </trkpt>
      <trkpt lat="42.05752" lon="0.73441">
        <ele>1469.8</ele>
        <time>2022-05-23 12:20:03</time>
      </trkpt>
      <trkpt lat="42.05751" lon="0.73444">
        <ele>1470.2</ele>
        <time>2022-05-23 12:20:04</time>
      </trkpt>
      <trkpt lat="42.0575" lon="0.73446">
        <ele>1470.4</ele>
        <time>2022-05-23 12:20:05</time>
      </trkpt>
      <trkpt lat="42.0575" lon="0.73449">
        <ele>1470.6</ele>
        <time>2022-05-23 12:20:06</time>
      </trkpt>
      <trkpt lat="42.05751" lon="0.73451">
        <ele>1470.8</ele>
        <time>2022-05-23 12:20:07</time>
      </trkpt>
      <trkpt lat="42.05753" lon="0.73454">
        <ele>1471</ele>
        <time>2022-05-23 12:20:08</time>
      </trkpt>
      <trkpt lat="42.05754" lon="0.73456">
        <ele>1471.2</ele>
        <time>2022-05-23 12:20:09</time>
      </trkpt>
      <trkpt lat="42.05755" lon="0.73458">
        <ele>1471.4</ele>
        <time>2022-05-23 12:20:10</time>
      </trkpt>
      <trkpt lat="42.05756" lon="0.73461">
        <ele>1471.6</ele>
        <time>2022-05-23 12:20:11</time>
      </trkpt>
      <trkpt lat="42.05757" lon="0.73463">
        <ele>1471.6</ele>
        <time>2022-05-23 12:20:12</time>
      </trkpt>
      <trkpt lat="42.05758" lon="0.73466">
        <ele>1471.8</ele>
        <time>2022-05-23 12:20:13</time>
      </trkpt>
      <trkpt lat="42.05758" lon="0.73468">
        <ele>1472</ele>
        <time>2022-05-23 12:20:14</time>
      </trkpt>
      <trkpt lat="42.05759" lon="0.73471">
        <ele>1472.2</ele>
        <time>2022-05-23 12:20:15</time>
      </trkpt>
      <trkpt lat="42.05759" lon="0.73473">
        <ele>1472.2</ele>
        <time>2022-05-23 12:20:16</time>
      </trkpt>
      <trkpt lat="42.0576" lon="0.73476">
        <ele>1472.4</ele>
        <time>2022-05-23 12:20:17</time>
      </trkpt>
      <trkpt lat="42.0576" lon="0.73479">
        <ele>1472.4</ele>
        <time>2022-05-23 12:20:18</time>
      </trkpt>
      <trkpt lat="42.05761" lon="0.73481">
        <ele>1472.6</ele>
        <time>2022-05-23 12:20:19</time>
      </trkpt>
      <trkpt lat="42.05761" lon="0.73484">
        <ele>1472.8</ele>
        <time>2022-05-23 12:20:20</time>
      </trkpt>
      <trkpt lat="42.05761" lon="0.73487">
        <ele>1473</ele>
        <time>2022-05-23 12:20:21</time>
      </trkpt>
      <trkpt lat="42.05761" lon="0.73489">
        <ele>1473.2</ele>
        <time>2022-05-23 12:20:22</time>
      </trkpt>
      <trkpt lat="42.05761" lon="0.73492">
        <ele>1473.2</ele>
        <time>2022-05-23 12:20:23</time>
      </trkpt>
      <trkpt lat="42.05761" lon="0.73495">
        <ele>1473.4</ele>
        <time>2022-05-23 12:20:24</time>
      </trkpt>
      <trkpt lat="42.05762" lon="0.73497">
        <ele>1473.6</ele>
        <time>2022-05-23 12:20:25</time>
      </trkpt>
      <trkpt lat="42.05762" lon="0.735">
        <ele>1473.8</ele>
        <time>2022-05-23 12:20:26</time>
      </trkpt>
      <trkpt lat="42.05763" lon="0.73503">
        <ele>1474</ele>
        <time>2022-05-23 12:20:27</time>
      </trkpt>
      <trkpt lat="42.05763" lon="0.73505">
        <ele>1474</ele>
        <time>2022-05-23 12:20:28</time>
      </trkpt>
      <trkpt lat="42.05763" lon="0.73508">
        <ele>1474.2</ele>
        <time>2022-05-23 12:20:29</time>
      </trkpt>
      <trkpt lat="42.05763" lon="0.7351">
        <ele>1474.4</ele>
        <time>2022-05-23 12:20:30</time>
      </trkpt>
      <trkpt lat="42.05763" lon="0.73513">
        <ele>1474.4</ele>
        <time>2022-05-23 12:20:31</time>
      </trkpt>
      <trkpt lat="42.05763" lon="0.73515">
        <ele>1474.6</ele>
        <time>2022-05-23 12:20:32</time>
      </trkpt>
      <trkpt lat="42.05762" lon="0.73518">
        <ele>1474.8</ele>
        <time>2022-05-23 12:20:33</time>
      </trkpt>
      <trkpt lat="42.05763" lon="0.7352">
        <ele>1475</ele>
        <time>2022-05-23 12:20:34</time>
      </trkpt>
      <trkpt lat="42.05763" lon="0.73522">
        <ele>1475.2</ele>
        <time>2022-05-23 12:20:35</time>
      </trkpt>
      <trkpt lat="42.05763" lon="0.73524">
        <ele>1475.2</ele>
        <time>2022-05-23 12:20:36</time>
      </trkpt>
      <trkpt lat="42.05763" lon="0.73527">
        <ele>1475.4</ele>
        <time>2022-05-23 12:20:37</time>
      </trkpt>
      <trkpt lat="42.05763" lon="0.73529">
        <ele>1475.6</ele>
        <time>2022-05-23 12:20:38</time>
      </trkpt>
      <trkpt lat="42.05763" lon="0.73532">
        <ele>1475.6</ele>
        <time>2022-05-23 12:20:39</time>
      </trkpt>
      <trkpt lat="42.05763" lon="0.73534">
        <ele>1475.8</ele>
        <time>2022-05-23 12:20:40</time>
      </trkpt>
      <trkpt lat="42.05762" lon="0.73537">
        <ele>1475.8</ele>
        <time>2022-05-23 12:20:41</time>
      </trkpt>
      <trkpt lat="42.05762" lon="0.73539">
        <ele>1476</ele>
        <time>2022-05-23 12:20:42</time>
      </trkpt>
      <trkpt lat="42.05762" lon="0.73541">
        <ele>1476.2</ele>
        <time>2022-05-23 12:20:43</time>
      </trkpt>
      <trkpt lat="42.05761" lon="0.73544">
        <ele>1476.2</ele>
        <time>2022-05-23 12:20:44</time>
      </trkpt>
      <trkpt lat="42.05761" lon="0.73546">
        <ele>1476.4</ele>
        <time>2022-05-23 12:20:45</time>
      </trkpt>
      <trkpt lat="42.05761" lon="0.73548">
        <ele>1476.6</ele>
        <time>2022-05-23 12:20:46</time>
      </trkpt>
      <trkpt lat="42.0576" lon="0.7355">
        <ele>1476.8</ele>
        <time>2022-05-23 12:20:47</time>
      </trkpt>
      <trkpt lat="42.0576" lon="0.73553">
        <ele>1477</ele>
        <time>2022-05-23 12:20:48</time>
      </trkpt>
      <trkpt lat="42.05759" lon="0.73555">
        <ele>1477.2</ele>
        <time>2022-05-23 12:20:49</time>
      </trkpt>
      <trkpt lat="42.05759" lon="0.73557">
        <ele>1477.4</ele>
        <time>2022-05-23 12:20:50</time>
      </trkpt>
      <trkpt lat="42.05758" lon="0.73559">
        <ele>1477.4</ele>
        <time>2022-05-23 12:20:51</time>
      </trkpt>
      <trkpt lat="42.05758" lon="0.73562">
        <ele>1477.6</ele>
        <time>2022-05-23 12:20:52</time>
      </trkpt>
      <trkpt lat="42.05757" lon="0.73564">
        <ele>1477.8</ele>
        <time>2022-05-23 12:20:53</time>
      </trkpt>
      <trkpt lat="42.05756" lon="0.73566">
        <ele>1478</ele>
        <time>2022-05-23 12:20:54</time>
      </trkpt>
      <trkpt lat="42.05755" lon="0.73569">
        <ele>1478.2</ele>
        <time>2022-05-23 12:20:55</time>
      </trkpt>
      <trkpt lat="42.05754" lon="0.73571">
        <ele>1478.2</ele>
        <time>2022-05-23 12:20:56</time>
      </trkpt>
      <trkpt lat="42.05753" lon="0.73573">
        <ele>1478.4</ele>
        <time>2022-05-23 12:20:57</time>
      </trkpt>
      <trkpt lat="42.05753" lon="0.73575">
        <ele>1478.6</ele>
        <time>2022-05-23 12:20:58</time>
      </trkpt>
      <trkpt lat="42.05752" lon="0.73578">
        <ele>1478.6</ele>
        <time>2022-05-23 12:20:59</time>
      </trkpt>
      <trkpt lat="42.05751" lon="0.7358">
        <ele>1478.8</ele>
        <time>2022-05-23 12:21:00</time>
      </trkpt>
      <trkpt lat="42.05751" lon="0.73582">
        <ele>1479</ele>
        <time>2022-05-23 12:21:01</time>
      </trkpt>
      <trkpt lat="42.0575" lon="0.73584">
        <ele>1479</ele>
        <time>2022-05-23 12:21:02</time>
      </trkpt>
      <trkpt lat="42.05749" lon="0.73587">
        <ele>1479.2</ele>
        <time>2022-05-23 12:21:03</time>
      </trkpt>
      <trkpt lat="42.05749" lon="0.73589">
        <ele>1479.4</ele>
        <time>2022-05-23 12:21:04</time>
      </trkpt>
      <trkpt lat="42.05748" lon="0.73592">
        <ele>1479.6</ele>
        <time>2022-05-23 12:21:05</time>
      </trkpt>
      <trkpt lat="42.05747" lon="0.73595">
        <ele>1479.8</ele>
        <time>2022-05-23 12:21:06</time>
      </trkpt>
      <trkpt lat="42.05746" lon="0.73598">
        <ele>1480</ele>
        <time>2022-05-23 12:21:07</time>
      </trkpt>
      <trkpt lat="42.05745" lon="0.73601">
        <ele>1480.2</ele>
        <time>2022-05-23 12:21:08</time>
      </trkpt>
      <trkpt lat="42.05745" lon="0.73603">
        <ele>1480.4</ele>
        <time>2022-05-23 12:21:09</time>
      </trkpt>
      <trkpt lat="42.05743" lon="0.73606">
        <ele>1480.6</ele>
        <time>2022-05-23 12:21:10</time>
      </trkpt>
      <trkpt lat="42.05743" lon="0.73609">
        <ele>1480.8</ele>
        <time>2022-05-23 12:21:11</time>
      </trkpt>
      <trkpt lat="42.05742" lon="0.73611">
        <ele>1481</ele>
        <time>2022-05-23 12:21:12</time>
      </trkpt>
      <trkpt lat="42.05741" lon="0.73614">
        <ele>1481.2</ele>
        <time>2022-05-23 12:21:13</time>
      </trkpt>
      <trkpt lat="42.0574" lon="0.73617">
        <ele>1481.4</ele>
        <time>2022-05-23 12:21:14</time>
      </trkpt>
      <trkpt lat="42.0574" lon="0.7362">
        <ele>1481.6</ele>
        <time>2022-05-23 12:21:15</time>
      </trkpt>
      <trkpt lat="42.05739" lon="0.73623">
        <ele>1481.8</ele>
        <time>2022-05-23 12:21:16</time>
      </trkpt>
      <trkpt lat="42.05738" lon="0.73626">
        <ele>1482.2</ele>
        <time>2022-05-23 12:21:17</time>
      </trkpt>
      <trkpt lat="42.05737" lon="0.73629">
        <ele>1482.4</ele>
        <time>2022-05-23 12:21:18</time>
      </trkpt>
      <trkpt lat="42.05736" lon="0.73632">
        <ele>1482.6</ele>
        <time>2022-05-23 12:21:19</time>
      </trkpt>
      <trkpt lat="42.05734" lon="0.73635">
        <ele>1482.8</ele>
        <time>2022-05-23 12:21:20</time>
      </trkpt>
      <trkpt lat="42.05733" lon="0.73638">
        <ele>1483</ele>
        <time>2022-05-23 12:21:21</time>
      </trkpt>
      <trkpt lat="42.05732" lon="0.73641">
        <ele>1483.2</ele>
        <time>2022-05-23 12:21:22</time>
      </trkpt>
      <trkpt lat="42.05731" lon="0.73644">
        <ele>1483.4</ele>
        <time>2022-05-23 12:21:23</time>
      </trkpt>
      <trkpt lat="42.0573" lon="0.73647">
        <ele>1483.6</ele>
        <time>2022-05-23 12:21:24</time>
      </trkpt>
      <trkpt lat="42.05729" lon="0.7365">
        <ele>1483.8</ele>
        <time>2022-05-23 12:21:25</time>
      </trkpt>
      <trkpt lat="42.05728" lon="0.73653">
        <ele>1484</ele>
        <time>2022-05-23 12:21:26</time>
      </trkpt>
      <trkpt lat="42.05727" lon="0.73655">
        <ele>1484.2</ele>
        <time>2022-05-23 12:21:27</time>
      </trkpt>
      <trkpt lat="42.05726" lon="0.73658">
        <ele>1484.4</ele>
        <time>2022-05-23 12:21:28</time>
      </trkpt>
      <trkpt lat="42.05725" lon="0.7366">
        <ele>1484.6</ele>
        <time>2022-05-23 12:21:29</time>
      </trkpt>
      <trkpt lat="42.05725" lon="0.73662">
        <ele>1484.8</ele>
        <time>2022-05-23 12:21:30</time>
      </trkpt>
      <trkpt lat="42.05724" lon="0.73664">
        <ele>1485</ele>
        <time>2022-05-23 12:21:31</time>
      </trkpt>
      <trkpt lat="42.05724" lon="0.73667">
        <ele>1485</ele>
        <time>2022-05-23 12:21:32</time>
      </trkpt>
      <trkpt lat="42.05724" lon="0.73669">
        <ele>1485.2</ele>
        <time>2022-05-23 12:21:33</time>
      </trkpt>
      <trkpt lat="42.05723" lon="0.73672">
        <ele>1485.4</ele>
        <time>2022-05-23 12:21:34</time>
      </trkpt>
      <trkpt lat="42.05722" lon="0.73674">
        <ele>1485.6</ele>
        <time>2022-05-23 12:21:35</time>
      </trkpt>
      <trkpt lat="42.05722" lon="0.73676">
        <ele>1485.6</ele>
        <time>2022-05-23 12:21:36</time>
      </trkpt>
      <trkpt lat="42.05721" lon="0.73678">
        <ele>1485.8</ele>
        <time>2022-05-23 12:21:37</time>
      </trkpt>
      <trkpt lat="42.0572" lon="0.7368">
        <ele>1486</ele>
        <time>2022-05-23 12:21:38</time>
      </trkpt>
      <trkpt lat="42.05719" lon="0.73682">
        <ele>1486.2</ele>
        <time>2022-05-23 12:21:39</time>
      </trkpt>
      <trkpt lat="42.05719" lon="0.73684">
        <ele>1486.2</ele>
        <time>2022-05-23 12:21:40</time>
      </trkpt>
      <trkpt lat="42.05718" lon="0.73686">
        <ele>1486.4</ele>
        <time>2022-05-23 12:21:41</time>
      </trkpt>
      <trkpt lat="42.05718" lon="0.73688">
        <ele>1486.4</ele>
        <time>2022-05-23 12:21:42</time>
      </trkpt>
      <trkpt lat="42.05717" lon="0.7369">
        <ele>1486.6</ele>
        <time>2022-05-23 12:21:43</time>
      </trkpt>
      <trkpt lat="42.05717" lon="0.73693">
        <ele>1486.8</ele>
        <time>2022-05-23 12:21:44</time>
      </trkpt>
      <trkpt lat="42.05716" lon="0.73695">
        <ele>1486.8</ele>
        <time>2022-05-23 12:21:45</time>
      </trkpt>
      <trkpt lat="42.05716" lon="0.73698">
        <ele>1487</ele>
        <time>2022-05-23 12:21:46</time>
      </trkpt>
      <trkpt lat="42.05715" lon="0.737">
        <ele>1487</ele>
        <time>2022-05-23 12:21:47</time>
      </trkpt>
      <trkpt lat="42.05714" lon="0.73702">
        <ele>1487.2</ele>
        <time>2022-05-23 12:21:48</time>
      </trkpt>
      <trkpt lat="42.05714" lon="0.73704">
        <ele>1487.2</ele>
        <time>2022-05-23 12:21:49</time>
      </trkpt>
      <trkpt lat="42.05713" lon="0.73706">
        <ele>1487.4</ele>
        <time>2022-05-23 12:21:50</time>
      </trkpt>
      <trkpt lat="42.05713" lon="0.73707">
        <ele>1487.4</ele>
        <time>2022-05-23 12:21:51</time>
      </trkpt>
      <trkpt lat="42.05712" lon="0.73709">
        <ele>1487.6</ele>
        <time>2022-05-23 12:21:52</time>
      </trkpt>
      <trkpt lat="42.05712" lon="0.73711">
        <ele>1487.6</ele>
        <time>2022-05-23 12:21:53</time>
      </trkpt>
      <trkpt lat="42.05712" lon="0.73713">
        <ele>1487.8</ele>
        <time>2022-05-23 12:21:54</time>
      </trkpt>
      <trkpt lat="42.05711" lon="0.73716">
        <ele>1488</ele>
        <time>2022-05-23 12:21:55</time>
      </trkpt>
      <trkpt lat="42.0571" lon="0.73718">
        <ele>1488</ele>
        <time>2022-05-23 12:21:56</time>
      </trkpt>
      <trkpt lat="42.05709" lon="0.73719">
        <ele>1488.2</ele>
        <time>2022-05-23 12:21:57</time>
      </trkpt>
      <trkpt lat="42.05708" lon="0.73721">
        <ele>1488.4</ele>
        <time>2022-05-23 12:21:58</time>
      </trkpt>
      <trkpt lat="42.05708" lon="0.73723">
        <ele>1488.4</ele>
        <time>2022-05-23 12:21:59</time>
      </trkpt>
      <trkpt lat="42.05707" lon="0.73725">
        <ele>1488.6</ele>
        <time>2022-05-23 12:22:00</time>
      </trkpt>
      <trkpt lat="42.05706" lon="0.73727">
        <ele>1488.8</ele>
        <time>2022-05-23 12:22:01</time>
      </trkpt>
      <trkpt lat="42.05704" lon="0.73729">
        <ele>1488.8</ele>
        <time>2022-05-23 12:22:02</time>
      </trkpt>
      <trkpt lat="42.05704" lon="0.73731">
        <ele>1489</ele>
        <time>2022-05-23 12:22:03</time>
      </trkpt>
      <trkpt lat="42.05703" lon="0.73732">
        <ele>1489.2</ele>
        <time>2022-05-23 12:22:04</time>
      </trkpt>
      <trkpt lat="42.05701" lon="0.73734">
        <ele>1489.2</ele>
        <time>2022-05-23 12:22:05</time>
      </trkpt>
      <trkpt lat="42.057" lon="0.73736">
        <ele>1489.4</ele>
        <time>2022-05-23 12:22:06</time>
      </trkpt>
      <trkpt lat="42.05699" lon="0.73739">
        <ele>1489.6</ele>
        <time>2022-05-23 12:22:07</time>
      </trkpt>
      <trkpt lat="42.05698" lon="0.73742">
        <ele>1489.8</ele>
        <time>2022-05-23 12:22:08</time>
      </trkpt>
      <trkpt lat="42.05695" lon="0.73744">
        <ele>1489.8</ele>
        <time>2022-05-23 12:22:09</time>
      </trkpt>
      <trkpt lat="42.05693" lon="0.73745">
        <ele>1490</ele>
        <time>2022-05-23 12:22:10</time>
      </trkpt>
      <trkpt lat="42.05691" lon="0.73744">
        <ele>1490.2</ele>
        <time>2022-05-23 12:22:11</time>
      </trkpt>
      <trkpt lat="42.0569" lon="0.73743">
        <ele>1490.4</ele>
        <time>2022-05-23 12:22:12</time>
      </trkpt>
      <trkpt lat="42.05689" lon="0.73741">
        <ele>1490.6</ele>
        <time>2022-05-23 12:22:13</time>
      </trkpt>
      <trkpt lat="42.05689" lon="0.73739">
        <ele>1490.8</ele>
        <time>2022-05-23 12:22:14</time>
      </trkpt>
      <trkpt lat="42.05689" lon="0.73737">
        <ele>1491.2</ele>
        <time>2022-05-23 12:22:15</time>
      </trkpt>
      <trkpt lat="42.0569" lon="0.73735">
        <ele>1491.4</ele>
        <time>2022-05-23 12:22:16</time>
      </trkpt>
      <trkpt lat="42.0569" lon="0.73733">
        <ele>1491.6</ele>
        <time>2022-05-23 12:22:17</time>
      </trkpt>
      <trkpt lat="42.05691" lon="0.73731">
        <ele>1491.8</ele>
        <time>2022-05-23 12:22:18</time>
      </trkpt>
      <trkpt lat="42.05692" lon="0.73729">
        <ele>1492</ele>
        <time>2022-05-23 12:22:19</time>
      </trkpt>
      <trkpt lat="42.05692" lon="0.73726">
        <ele>1492.2</ele>
        <time>2022-05-23 12:22:20</time>
      </trkpt>
      <trkpt lat="42.05692" lon="0.73724">
        <ele>1492.2</ele>
        <time>2022-05-23 12:22:21</time>
      </trkpt>
      <trkpt lat="42.05693" lon="0.73721">
        <ele>1492.4</ele>
        <time>2022-05-23 12:22:22</time>
      </trkpt>
      <trkpt lat="42.05693" lon="0.73719">
        <ele>1492.6</ele>
        <time>2022-05-23 12:22:23</time>
      </trkpt>
      <trkpt lat="42.05694" lon="0.73717">
        <ele>1492.6</ele>
        <time>2022-05-23 12:22:24</time>
      </trkpt>
      <trkpt lat="42.05694" lon="0.73714">
        <ele>1492.8</ele>
        <time>2022-05-23 12:22:25</time>
      </trkpt>
      <trkpt lat="42.05694" lon="0.73712">
        <ele>1492.8</ele>
        <time>2022-05-23 12:22:26</time>
      </trkpt>
      <trkpt lat="42.05694" lon="0.73709">
        <ele>1493</ele>
        <time>2022-05-23 12:22:27</time>
      </trkpt>
      <trkpt lat="42.05694" lon="0.73706">
        <ele>1493</ele>
        <time>2022-05-23 12:22:28</time>
      </trkpt>
      <trkpt lat="42.05694" lon="0.73703">
        <ele>1493.2</ele>
        <time>2022-05-23 12:22:29</time>
      </trkpt>
      <trkpt lat="42.05694" lon="0.73701">
        <ele>1493.4</ele>
        <time>2022-05-23 12:22:30</time>
      </trkpt>
      <trkpt lat="42.05694" lon="0.73698">
        <ele>1493.6</ele>
        <time>2022-05-23 12:22:31</time>
      </trkpt>
      <trkpt lat="42.05694" lon="0.73695">
        <ele>1493.8</ele>
        <time>2022-05-23 12:22:32</time>
      </trkpt>
      <trkpt lat="42.05694" lon="0.73692">
        <ele>1494</ele>
        <time>2022-05-23 12:22:33</time>
      </trkpt>
      <trkpt lat="42.05695" lon="0.73689">
        <ele>1494.2</ele>
        <time>2022-05-23 12:22:34</time>
      </trkpt>
      <trkpt lat="42.05694" lon="0.73686">
        <ele>1494.4</ele>
        <time>2022-05-23 12:22:35</time>
      </trkpt>
      <trkpt lat="42.05694" lon="0.73682">
        <ele>1494.4</ele>
        <time>2022-05-23 12:22:36</time>
      </trkpt>
      <trkpt lat="42.05694" lon="0.73679">
        <ele>1494.6</ele>
        <time>2022-05-23 12:22:37</time>
      </trkpt>
      <trkpt lat="42.05694" lon="0.73676">
        <ele>1494.8</ele>
        <time>2022-05-23 12:22:38</time>
      </trkpt>
      <trkpt lat="42.05694" lon="0.73673">
        <ele>1495</ele>
        <time>2022-05-23 12:22:39</time>
      </trkpt>
      <trkpt lat="42.05694" lon="0.7367">
        <ele>1495.2</ele>
        <time>2022-05-23 12:22:40</time>
      </trkpt>
      <trkpt lat="42.05694" lon="0.73668">
        <ele>1495.4</ele>
        <time>2022-05-23 12:22:41</time>
      </trkpt>
      <trkpt lat="42.05694" lon="0.73665">
        <ele>1495.6</ele>
        <time>2022-05-23 12:22:42</time>
      </trkpt>
      <trkpt lat="42.05694" lon="0.73663">
        <ele>1495.8</ele>
        <time>2022-05-23 12:22:43</time>
      </trkpt>
      <trkpt lat="42.05693" lon="0.7366">
        <ele>1496</ele>
        <time>2022-05-23 12:22:44</time>
      </trkpt>
      <trkpt lat="42.05693" lon="0.73658">
        <ele>1496</ele>
        <time>2022-05-23 12:22:45</time>
      </trkpt>
      <trkpt lat="42.05693" lon="0.73655">
        <ele>1496.2</ele>
        <time>2022-05-23 12:22:46</time>
      </trkpt>
      <trkpt lat="42.05693" lon="0.73653">
        <ele>1496.4</ele>
        <time>2022-05-23 12:22:47</time>
      </trkpt>
      <trkpt lat="42.05693" lon="0.7365">
        <ele>1496.4</ele>
        <time>2022-05-23 12:22:48</time>
      </trkpt>
      <trkpt lat="42.05693" lon="0.73648">
        <ele>1496.6</ele>
        <time>2022-05-23 12:22:49</time>
      </trkpt>
      <trkpt lat="42.05693" lon="0.73645">
        <ele>1496.8</ele>
        <time>2022-05-23 12:22:50</time>
      </trkpt>
      <trkpt lat="42.05693" lon="0.73643">
        <ele>1496.8</ele>
        <time>2022-05-23 12:22:51</time>
      </trkpt>
      <trkpt lat="42.05693" lon="0.7364">
        <ele>1497</ele>
        <time>2022-05-23 12:22:52</time>
      </trkpt>
      <trkpt lat="42.05693" lon="0.73638">
        <ele>1497.2</ele>
        <time>2022-05-23 12:22:53</time>
      </trkpt>
      <trkpt lat="42.05692" lon="0.73635">
        <ele>1497.4</ele>
        <time>2022-05-23 12:22:54</time>
      </trkpt>
      <trkpt lat="42.05692" lon="0.73634">
        <ele>1497.6</ele>
        <time>2022-05-23 12:22:55</time>
      </trkpt>
      <trkpt lat="42.05692" lon="0.73632">
        <ele>1497.8</ele>
        <time>2022-05-23 12:22:56</time>
      </trkpt>
      <trkpt lat="42.05691" lon="0.7363">
        <ele>1498</ele>
        <time>2022-05-23 12:22:57</time>
      </trkpt>
      <trkpt lat="42.0569" lon="0.73628">
        <ele>1498</ele>
        <time>2022-05-23 12:22:58</time>
      </trkpt>
      <trkpt lat="42.0569" lon="0.73626">
        <ele>1498.2</ele>
        <time>2022-05-23 12:22:59</time>
      </trkpt>
      <trkpt lat="42.0569" lon="0.73624">
        <ele>1498.2</ele>
        <time>2022-05-23 12:23:00</time>
      </trkpt>
      <trkpt lat="42.05689" lon="0.73622">
        <ele>1498.4</ele>
        <time>2022-05-23 12:23:01</time>
      </trkpt>
      <trkpt lat="42.05688" lon="0.73622">
        <ele>1498.4</ele>
        <time>2022-05-23 12:23:02</time>
      </trkpt>
      <trkpt lat="42.05689" lon="0.73622">
        <ele>1498.6</ele>
        <time>2022-05-23 12:23:03</time>
      </trkpt>
      <trkpt lat="42.05688" lon="0.73622">
        <ele>1498.8</ele>
        <time>2022-05-23 12:23:04</time>
      </trkpt>
      <trkpt lat="42.05687" lon="0.73614">
        <ele>1499</ele>
        <time>2022-05-23 12:23:05</time>
      </trkpt>
      <trkpt lat="42.05687" lon="0.73612">
        <ele>1499</ele>
        <time>2022-05-23 12:23:06</time>
      </trkpt>
      <trkpt lat="42.05688" lon="0.73608">
        <ele>1499.2</ele>
        <time>2022-05-23 12:23:07</time>
      </trkpt>
      <trkpt lat="42.05688" lon="0.73606">
        <ele>1499.2</ele>
        <time>2022-05-23 12:23:08</time>
      </trkpt>
      <trkpt lat="42.05689" lon="0.73603">
        <ele>1499.4</ele>
        <time>2022-05-23 12:23:09</time>
      </trkpt>
      <trkpt lat="42.05689" lon="0.73601">
        <ele>1499.6</ele>
        <time>2022-05-23 12:23:10</time>
      </trkpt>
      <trkpt lat="42.05689" lon="0.73598">
        <ele>1499.8</ele>
        <time>2022-05-23 12:23:11</time>
      </trkpt>
      <trkpt lat="42.05689" lon="0.73596">
        <ele>1499.8</ele>
        <time>2022-05-23 12:23:12</time>
      </trkpt>
      <trkpt lat="42.05689" lon="0.73593">
        <ele>1500</ele>
        <time>2022-05-23 12:23:13</time>
      </trkpt>
      <trkpt lat="42.05689" lon="0.7359">
        <ele>1500.2</ele>
        <time>2022-05-23 12:23:14</time>
      </trkpt>
      <trkpt lat="42.05688" lon="0.73588">
        <ele>1500.2</ele>
        <time>2022-05-23 12:23:15</time>
      </trkpt>
      <trkpt lat="42.05688" lon="0.73586">
        <ele>1500.4</ele>
        <time>2022-05-23 12:23:16</time>
      </trkpt>
      <trkpt lat="42.05688" lon="0.73583">
        <ele>1500.6</ele>
        <time>2022-05-23 12:23:17</time>
      </trkpt>
      <trkpt lat="42.05688" lon="0.7358">
        <ele>1500.6</ele>
        <time>2022-05-23 12:23:18</time>
      </trkpt>
      <trkpt lat="42.05689" lon="0.73577">
        <ele>1500.6</ele>
        <time>2022-05-23 12:23:19</time>
      </trkpt>
      <trkpt lat="42.05689" lon="0.73574">
        <ele>1500.8</ele>
        <time>2022-05-23 12:23:20</time>
      </trkpt>
      <trkpt lat="42.05689" lon="0.73571">
        <ele>1500.8</ele>
        <time>2022-05-23 12:23:21</time>
      </trkpt>
      <trkpt lat="42.05689" lon="0.73568">
        <ele>1501</ele>
        <time>2022-05-23 12:23:22</time>
      </trkpt>
      <trkpt lat="42.05689" lon="0.73565">
        <ele>1501</ele>
        <time>2022-05-23 12:23:23</time>
      </trkpt>
      <trkpt lat="42.0569" lon="0.73562">
        <ele>1501</ele>
        <time>2022-05-23 12:23:24</time>
      </trkpt>
      <trkpt lat="42.0569" lon="0.73559">
        <ele>1501.2</ele>
        <time>2022-05-23 12:23:25</time>
      </trkpt>
      <trkpt lat="42.0569" lon="0.73556">
        <ele>1501.4</ele>
        <time>2022-05-23 12:23:26</time>
      </trkpt>
      <trkpt lat="42.0569" lon="0.73553">
        <ele>1501.6</ele>
        <time>2022-05-23 12:23:27</time>
      </trkpt>
      <trkpt lat="42.0569" lon="0.73551">
        <ele>1501.8</ele>
        <time>2022-05-23 12:23:28</time>
      </trkpt>
      <trkpt lat="42.0569" lon="0.73548">
        <ele>1502</ele>
        <time>2022-05-23 12:23:29</time>
      </trkpt>
      <trkpt lat="42.0569" lon="0.73545">
        <ele>1502.4</ele>
        <time>2022-05-23 12:23:30</time>
      </trkpt>
      <trkpt lat="42.0569" lon="0.73541">
        <ele>1502.6</ele>
        <time>2022-05-23 12:23:31</time>
      </trkpt>
      <trkpt lat="42.0569" lon="0.73539">
        <ele>1502.8</ele>
        <time>2022-05-23 12:23:32</time>
      </trkpt>
      <trkpt lat="42.0569" lon="0.73536">
        <ele>1503</ele>
        <time>2022-05-23 12:23:33</time>
      </trkpt>
      <trkpt lat="42.05689" lon="0.73533">
        <ele>1503</ele>
        <time>2022-05-23 12:23:34</time>
      </trkpt>
      <trkpt lat="42.05688" lon="0.73531">
        <ele>1503.2</ele>
        <time>2022-05-23 12:23:35</time>
      </trkpt>
      <trkpt lat="42.05688" lon="0.73529">
        <ele>1503.4</ele>
        <time>2022-05-23 12:23:36</time>
      </trkpt>
      <trkpt lat="42.05688" lon="0.73527">
        <ele>1503.4</ele>
        <time>2022-05-23 12:23:37</time>
      </trkpt>
      <trkpt lat="42.05688" lon="0.73524">
        <ele>1503.6</ele>
        <time>2022-05-23 12:23:38</time>
      </trkpt>
      <trkpt lat="42.05687" lon="0.73521">
        <ele>1503.8</ele>
        <time>2022-05-23 12:23:39</time>
      </trkpt>
      <trkpt lat="42.05687" lon="0.73519">
        <ele>1503.8</ele>
        <time>2022-05-23 12:23:40</time>
      </trkpt>
      <trkpt lat="42.05687" lon="0.73516">
        <ele>1504</ele>
        <time>2022-05-23 12:23:41</time>
      </trkpt>
      <trkpt lat="42.05687" lon="0.73513">
        <ele>1504.2</ele>
        <time>2022-05-23 12:23:42</time>
      </trkpt>
      <trkpt lat="42.05687" lon="0.7351">
        <ele>1504.2</ele>
        <time>2022-05-23 12:23:43</time>
      </trkpt>
      <trkpt lat="42.05687" lon="0.73507">
        <ele>1504.4</ele>
        <time>2022-05-23 12:23:44</time>
      </trkpt>
      <trkpt lat="42.05686" lon="0.73504">
        <ele>1504.6</ele>
        <time>2022-05-23 12:23:45</time>
      </trkpt>
      <trkpt lat="42.05685" lon="0.73502">
        <ele>1504.6</ele>
        <time>2022-05-23 12:23:46</time>
      </trkpt>
      <trkpt lat="42.05683" lon="0.735">
        <ele>1504.8</ele>
        <time>2022-05-23 12:23:47</time>
      </trkpt>
      <trkpt lat="42.05681" lon="0.73499">
        <ele>1505</ele>
        <time>2022-05-23 12:23:48</time>
      </trkpt>
      <trkpt lat="42.0568" lon="0.73499">
        <ele>1505.2</ele>
        <time>2022-05-23 12:23:49</time>
      </trkpt>
      <trkpt lat="42.05679" lon="0.73501">
        <ele>1505.4</ele>
        <time>2022-05-23 12:23:50</time>
      </trkpt>
      <trkpt lat="42.05678" lon="0.73503">
        <ele>1505.6</ele>
        <time>2022-05-23 12:23:51</time>
      </trkpt>
      <trkpt lat="42.05677" lon="0.73506">
        <ele>1505.8</ele>
        <time>2022-05-23 12:23:52</time>
      </trkpt>
      <trkpt lat="42.05677" lon="0.73509">
        <ele>1506.2</ele>
        <time>2022-05-23 12:23:53</time>
      </trkpt>
      <trkpt lat="42.05677" lon="0.73512">
        <ele>1506.4</ele>
        <time>2022-05-23 12:23:54</time>
      </trkpt>
      <trkpt lat="42.05677" lon="0.73515">
        <ele>1506.6</ele>
        <time>2022-05-23 12:23:55</time>
      </trkpt>
      <trkpt lat="42.05678" lon="0.73518">
        <ele>1506.6</ele>
        <time>2022-05-23 12:23:56</time>
      </trkpt>
      <trkpt lat="42.05678" lon="0.73522">
        <ele>1506.8</ele>
        <time>2022-05-23 12:23:57</time>
      </trkpt>
      <trkpt lat="42.05677" lon="0.73525">
        <ele>1507</ele>
        <time>2022-05-23 12:23:58</time>
      </trkpt>
      <trkpt lat="42.05677" lon="0.73528">
        <ele>1507</ele>
        <time>2022-05-23 12:23:59</time>
      </trkpt>
      <trkpt lat="42.05677" lon="0.73531">
        <ele>1507.2</ele>
        <time>2022-05-23 12:24:00</time>
      </trkpt>
      <trkpt lat="42.05676" lon="0.73535">
        <ele>1507.2</ele>
        <time>2022-05-23 12:24:01</time>
      </trkpt>
      <trkpt lat="42.05675" lon="0.73538">
        <ele>1507.4</ele>
        <time>2022-05-23 12:24:02</time>
      </trkpt>
      <trkpt lat="42.05675" lon="0.73541">
        <ele>1507.6</ele>
        <time>2022-05-23 12:24:03</time>
      </trkpt>
      <trkpt lat="42.05674" lon="0.73544">
        <ele>1507.6</ele>
        <time>2022-05-23 12:24:04</time>
      </trkpt>
      <trkpt lat="42.05673" lon="0.73547">
        <ele>1507.8</ele>
        <time>2022-05-23 12:24:05</time>
      </trkpt>
      <trkpt lat="42.05672" lon="0.7355">
        <ele>1507.8</ele>
        <time>2022-05-23 12:24:06</time>
      </trkpt>
      <trkpt lat="42.05671" lon="0.73553">
        <ele>1508</ele>
        <time>2022-05-23 12:24:07</time>
      </trkpt>
      <trkpt lat="42.05671" lon="0.73556">
        <ele>1508.2</ele>
        <time>2022-05-23 12:24:08</time>
      </trkpt>
      <trkpt lat="42.0567" lon="0.73559">
        <ele>1508.2</ele>
        <time>2022-05-23 12:24:09</time>
      </trkpt>
      <trkpt lat="42.05669" lon="0.73562">
        <ele>1508.4</ele>
        <time>2022-05-23 12:24:10</time>
      </trkpt>
      <trkpt lat="42.05668" lon="0.73564">
        <ele>1508.4</ele>
        <time>2022-05-23 12:24:11</time>
      </trkpt>
      <trkpt lat="42.05667" lon="0.73567">
        <ele>1508.6</ele>
        <time>2022-05-23 12:24:12</time>
      </trkpt>
      <trkpt lat="42.05667" lon="0.73571">
        <ele>1508.6</ele>
        <time>2022-05-23 12:24:13</time>
      </trkpt>
      <trkpt lat="42.05666" lon="0.73573">
        <ele>1508.6</ele>
        <time>2022-05-23 12:24:14</time>
      </trkpt>
      <trkpt lat="42.05666" lon="0.73576">
        <ele>1508.8</ele>
        <time>2022-05-23 12:24:15</time>
      </trkpt>
      <trkpt lat="42.05665" lon="0.7358">
        <ele>1509</ele>
        <time>2022-05-23 12:24:16</time>
      </trkpt>
      <trkpt lat="42.05664" lon="0.73582">
        <ele>1509.2</ele>
        <time>2022-05-23 12:24:17</time>
      </trkpt>
      <trkpt lat="42.05663" lon="0.73585">
        <ele>1509.2</ele>
        <time>2022-05-23 12:24:18</time>
      </trkpt>
      <trkpt lat="42.05663" lon="0.73587">
        <ele>1509.4</ele>
        <time>2022-05-23 12:24:19</time>
      </trkpt>
      <trkpt lat="42.05662" lon="0.7359">
        <ele>1509.4</ele>
        <time>2022-05-23 12:24:20</time>
      </trkpt>
      <trkpt lat="42.05661" lon="0.73594">
        <ele>1509.6</ele>
        <time>2022-05-23 12:24:21</time>
      </trkpt>
      <trkpt lat="42.0566" lon="0.73597">
        <ele>1509.6</ele>
        <time>2022-05-23 12:24:22</time>
      </trkpt>
      <trkpt lat="42.05659" lon="0.736">
        <ele>1509.8</ele>
        <time>2022-05-23 12:24:23</time>
      </trkpt>
      <trkpt lat="42.05659" lon="0.73603">
        <ele>1509.8</ele>
        <time>2022-05-23 12:24:24</time>
      </trkpt>
      <trkpt lat="42.05658" lon="0.73606">
        <ele>1510</ele>
        <time>2022-05-23 12:24:25</time>
      </trkpt>
      <trkpt lat="42.05657" lon="0.73608">
        <ele>1510</ele>
        <time>2022-05-23 12:24:26</time>
      </trkpt>
      <trkpt lat="42.05656" lon="0.73611">
        <ele>1510.2</ele>
        <time>2022-05-23 12:24:27</time>
      </trkpt>
      <trkpt lat="42.05655" lon="0.73614">
        <ele>1510.4</ele>
        <time>2022-05-23 12:24:28</time>
      </trkpt>
      <trkpt lat="42.05655" lon="0.73618">
        <ele>1510.6</ele>
        <time>2022-05-23 12:24:29</time>
      </trkpt>
      <trkpt lat="42.05653" lon="0.73621">
        <ele>1510.6</ele>
        <time>2022-05-23 12:24:30</time>
      </trkpt>
      <trkpt lat="42.05653" lon="0.73623">
        <ele>1510.8</ele>
        <time>2022-05-23 12:24:31</time>
      </trkpt>
      <trkpt lat="42.05652" lon="0.73627">
        <ele>1510.8</ele>
        <time>2022-05-23 12:24:32</time>
      </trkpt>
      <trkpt lat="42.0565" lon="0.7363">
        <ele>1510.8</ele>
        <time>2022-05-23 12:24:33</time>
      </trkpt>
      <trkpt lat="42.05649" lon="0.73633">
        <ele>1510.8</ele>
        <time>2022-05-23 12:24:34</time>
      </trkpt>
      <trkpt lat="42.05648" lon="0.73636">
        <ele>1511</ele>
        <time>2022-05-23 12:24:35</time>
      </trkpt>
      <trkpt lat="42.05647" lon="0.73639">
        <ele>1511</ele>
        <time>2022-05-23 12:24:36</time>
      </trkpt>
      <trkpt lat="42.05646" lon="0.73642">
        <ele>1511.2</ele>
        <time>2022-05-23 12:24:37</time>
      </trkpt>
      <trkpt lat="42.05645" lon="0.73645">
        <ele>1511.4</ele>
        <time>2022-05-23 12:24:38</time>
      </trkpt>
      <trkpt lat="42.05644" lon="0.73649">
        <ele>1511.6</ele>
        <time>2022-05-23 12:24:39</time>
      </trkpt>
      <trkpt lat="42.05642" lon="0.73652">
        <ele>1511.8</ele>
        <time>2022-05-23 12:24:40</time>
      </trkpt>
      <trkpt lat="42.05641" lon="0.73655">
        <ele>1511.8</ele>
        <time>2022-05-23 12:24:41</time>
      </trkpt>
      <trkpt lat="42.0564" lon="0.73657">
        <ele>1512</ele>
        <time>2022-05-23 12:24:42</time>
      </trkpt>
      <trkpt lat="42.05638" lon="0.73661">
        <ele>1512</ele>
        <time>2022-05-23 12:24:43</time>
      </trkpt>
      <trkpt lat="42.05637" lon="0.73663">
        <ele>1512.2</ele>
        <time>2022-05-23 12:24:44</time>
      </trkpt>
      <trkpt lat="42.05636" lon="0.73665">
        <ele>1512.4</ele>
        <time>2022-05-23 12:24:45</time>
      </trkpt>
      <trkpt lat="42.05635" lon="0.73667">
        <ele>1512.6</ele>
        <time>2022-05-23 12:24:46</time>
      </trkpt>
      <trkpt lat="42.05633" lon="0.7367">
        <ele>1512.8</ele>
        <time>2022-05-23 12:24:47</time>
      </trkpt>
      <trkpt lat="42.05632" lon="0.73672">
        <ele>1513</ele>
        <time>2022-05-23 12:24:48</time>
      </trkpt>
      <trkpt lat="42.05631" lon="0.73674">
        <ele>1513.2</ele>
        <time>2022-05-23 12:24:49</time>
      </trkpt>
      <trkpt lat="42.0563" lon="0.73676">
        <ele>1513.4</ele>
        <time>2022-05-23 12:24:50</time>
      </trkpt>
      <trkpt lat="42.05628" lon="0.73678">
        <ele>1513.6</ele>
        <time>2022-05-23 12:24:51</time>
      </trkpt>
      <trkpt lat="42.05627" lon="0.7368">
        <ele>1513.6</ele>
        <time>2022-05-23 12:24:52</time>
      </trkpt>
      <trkpt lat="42.05626" lon="0.73682">
        <ele>1513.8</ele>
        <time>2022-05-23 12:24:53</time>
      </trkpt>
      <trkpt lat="42.05624" lon="0.73684">
        <ele>1513.8</ele>
        <time>2022-05-23 12:24:54</time>
      </trkpt>
      <trkpt lat="42.05622" lon="0.73685">
        <ele>1513.8</ele>
        <time>2022-05-23 12:24:55</time>
      </trkpt>
      <trkpt lat="42.05621" lon="0.73687">
        <ele>1514</ele>
        <time>2022-05-23 12:24:56</time>
      </trkpt>
      <trkpt lat="42.05619" lon="0.73689">
        <ele>1514.2</ele>
        <time>2022-05-23 12:24:57</time>
      </trkpt>
      <trkpt lat="42.05618" lon="0.7369">
        <ele>1514.4</ele>
        <time>2022-05-23 12:24:58</time>
      </trkpt>
      <trkpt lat="42.05616" lon="0.73692">
        <ele>1514.6</ele>
        <time>2022-05-23 12:24:59</time>
      </trkpt>
      <trkpt lat="42.05615" lon="0.73694">
        <ele>1514.8</ele>
        <time>2022-05-23 12:25:00</time>
      </trkpt>
      <trkpt lat="42.05614" lon="0.73696">
        <ele>1514.8</ele>
        <time>2022-05-23 12:25:01</time>
      </trkpt>
      <trkpt lat="42.05613" lon="0.73699">
        <ele>1515</ele>
        <time>2022-05-23 12:25:02</time>
      </trkpt>
      <trkpt lat="42.05612" lon="0.73701">
        <ele>1515.2</ele>
        <time>2022-05-23 12:25:03</time>
      </trkpt>
      <trkpt lat="42.05611" lon="0.73704">
        <ele>1515.4</ele>
        <time>2022-05-23 12:25:04</time>
      </trkpt>
      <trkpt lat="42.05609" lon="0.73707">
        <ele>1515.4</ele>
        <time>2022-05-23 12:25:05</time>
      </trkpt>
      <trkpt lat="42.05608" lon="0.73709">
        <ele>1515.6</ele>
        <time>2022-05-23 12:25:06</time>
      </trkpt>
      <trkpt lat="42.05607" lon="0.73712">
        <ele>1515.8</ele>
        <time>2022-05-23 12:25:07</time>
      </trkpt>
      <trkpt lat="42.05606" lon="0.73714">
        <ele>1515.8</ele>
        <time>2022-05-23 12:25:08</time>
      </trkpt>
      <trkpt lat="42.05605" lon="0.73717">
        <ele>1516</ele>
        <time>2022-05-23 12:25:09</time>
      </trkpt>
      <trkpt lat="42.05603" lon="0.73719">
        <ele>1516.2</ele>
        <time>2022-05-23 12:25:10</time>
      </trkpt>
      <trkpt lat="42.05601" lon="0.73722">
        <ele>1516.4</ele>
        <time>2022-05-23 12:25:11</time>
      </trkpt>
      <trkpt lat="42.056" lon="0.73724">
        <ele>1516.8</ele>
        <time>2022-05-23 12:25:12</time>
      </trkpt>
      <trkpt lat="42.05598" lon="0.73727">
        <ele>1517</ele>
        <time>2022-05-23 12:25:13</time>
      </trkpt>
      <trkpt lat="42.05596" lon="0.73728">
        <ele>1517</ele>
        <time>2022-05-23 12:25:14</time>
      </trkpt>
      <trkpt lat="42.05595" lon="0.73731">
        <ele>1517.2</ele>
        <time>2022-05-23 12:25:15</time>
      </trkpt>
      <trkpt lat="42.05593" lon="0.73733">
        <ele>1517.4</ele>
        <time>2022-05-23 12:25:16</time>
      </trkpt>
      <trkpt lat="42.05591" lon="0.73735">
        <ele>1517.6</ele>
        <time>2022-05-23 12:25:17</time>
      </trkpt>
      <trkpt lat="42.0559" lon="0.73737">
        <ele>1517.8</ele>
        <time>2022-05-23 12:25:18</time>
      </trkpt>
      <trkpt lat="42.05587" lon="0.73738">
        <ele>1518</ele>
        <time>2022-05-23 12:25:19</time>
      </trkpt>
      <trkpt lat="42.05586" lon="0.73739">
        <ele>1518.2</ele>
        <time>2022-05-23 12:25:20</time>
      </trkpt>
      <trkpt lat="42.05584" lon="0.73741">
        <ele>1518.4</ele>
        <time>2022-05-23 12:25:21</time>
      </trkpt>
      <trkpt lat="42.05582" lon="0.73742">
        <ele>1518.6</ele>
        <time>2022-05-23 12:25:22</time>
      </trkpt>
      <trkpt lat="42.0558" lon="0.73744">
        <ele>1518.8</ele>
        <time>2022-05-23 12:25:23</time>
      </trkpt>
      <trkpt lat="42.05578" lon="0.73745">
        <ele>1519</ele>
        <time>2022-05-23 12:25:24</time>
      </trkpt>
      <trkpt lat="42.05576" lon="0.73747">
        <ele>1519.2</ele>
        <time>2022-05-23 12:25:25</time>
      </trkpt>
      <trkpt lat="42.05574" lon="0.73748">
        <ele>1519.4</ele>
        <time>2022-05-23 12:25:26</time>
      </trkpt>
      <trkpt lat="42.05572" lon="0.73749">
        <ele>1519.4</ele>
        <time>2022-05-23 12:25:27</time>
      </trkpt>
      <trkpt lat="42.0557" lon="0.7375">
        <ele>1519.6</ele>
        <time>2022-05-23 12:25:28</time>
      </trkpt>
      <trkpt lat="42.05567" lon="0.73751">
        <ele>1519.8</ele>
        <time>2022-05-23 12:25:29</time>
      </trkpt>
      <trkpt lat="42.05566" lon="0.73753">
        <ele>1520</ele>
        <time>2022-05-23 12:25:30</time>
      </trkpt>
      <trkpt lat="42.05564" lon="0.73753">
        <ele>1520.2</ele>
        <time>2022-05-23 12:25:31</time>
      </trkpt>
      <trkpt lat="42.05563" lon="0.73755">
        <ele>1520.4</ele>
        <time>2022-05-23 12:25:32</time>
      </trkpt>
      <trkpt lat="42.05561" lon="0.73757">
        <ele>1520.6</ele>
        <time>2022-05-23 12:25:33</time>
      </trkpt>
      <trkpt lat="42.05559" lon="0.73759">
        <ele>1520.8</ele>
        <time>2022-05-23 12:25:34</time>
      </trkpt>
      <trkpt lat="42.05558" lon="0.7376">
        <ele>1521</ele>
        <time>2022-05-23 12:25:35</time>
      </trkpt>
      <trkpt lat="42.05556" lon="0.73761">
        <ele>1521.4</ele>
        <time>2022-05-23 12:25:36</time>
      </trkpt>
      <trkpt lat="42.05554" lon="0.73762">
        <ele>1521.6</ele>
        <time>2022-05-23 12:25:37</time>
      </trkpt>
      <trkpt lat="42.05553" lon="0.73763">
        <ele>1521.8</ele>
        <time>2022-05-23 12:25:38</time>
      </trkpt>
      <trkpt lat="42.05551" lon="0.73764">
        <ele>1522</ele>
        <time>2022-05-23 12:25:39</time>
      </trkpt>
      <trkpt lat="42.0555" lon="0.73766">
        <ele>1522.2</ele>
        <time>2022-05-23 12:25:40</time>
      </trkpt>
      <trkpt lat="42.05549" lon="0.73767">
        <ele>1522.4</ele>
        <time>2022-05-23 12:25:41</time>
      </trkpt>
      <trkpt lat="42.05548" lon="0.73768">
        <ele>1522.6</ele>
        <time>2022-05-23 12:25:42</time>
      </trkpt>
      <trkpt lat="42.05547" lon="0.73769">
        <ele>1522.8</ele>
        <time>2022-05-23 12:25:43</time>
      </trkpt>
      <trkpt lat="42.05546" lon="0.7377">
        <ele>1522.8</ele>
        <time>2022-05-23 12:25:44</time>
      </trkpt>
      <trkpt lat="42.05545" lon="0.73771">
        <ele>1523</ele>
        <time>2022-05-23 12:25:45</time>
      </trkpt>
      <trkpt lat="42.05544" lon="0.73773">
        <ele>1523.2</ele>
        <time>2022-05-23 12:25:46</time>
      </trkpt>
      <trkpt lat="42.05542" lon="0.73774">
        <ele>1523.4</ele>
        <time>2022-05-23 12:25:47</time>
      </trkpt>
      <trkpt lat="42.05541" lon="0.73776">
        <ele>1523.4</ele>
        <time>2022-05-23 12:25:48</time>
      </trkpt>
      <trkpt lat="42.0554" lon="0.73777">
        <ele>1523.6</ele>
        <time>2022-05-23 12:25:49</time>
      </trkpt>
      <trkpt lat="42.05539" lon="0.73779">
        <ele>1523.8</ele>
        <time>2022-05-23 12:25:50</time>
      </trkpt>
      <trkpt lat="42.05537" lon="0.73781">
        <ele>1523.8</ele>
        <time>2022-05-23 12:25:51</time>
      </trkpt>
      <trkpt lat="42.05536" lon="0.73783">
        <ele>1524</ele>
        <time>2022-05-23 12:25:52</time>
      </trkpt>
      <trkpt lat="42.05535" lon="0.73784">
        <ele>1524.2</ele>
        <time>2022-05-23 12:25:53</time>
      </trkpt>
      <trkpt lat="42.05534" lon="0.73786">
        <ele>1524.4</ele>
        <time>2022-05-23 12:25:54</time>
      </trkpt>
      <trkpt lat="42.05533" lon="0.73788">
        <ele>1524.4</ele>
        <time>2022-05-23 12:25:55</time>
      </trkpt>
      <trkpt lat="42.05532" lon="0.73789">
        <ele>1524.6</ele>
        <time>2022-05-23 12:25:56</time>
      </trkpt>
      <trkpt lat="42.0553" lon="0.73791">
        <ele>1524.8</ele>
        <time>2022-05-23 12:25:57</time>
      </trkpt>
      <trkpt lat="42.05529" lon="0.73793">
        <ele>1525</ele>
        <time>2022-05-23 12:25:58</time>
      </trkpt>
      <trkpt lat="42.05528" lon="0.73795">
        <ele>1525.2</ele>
        <time>2022-05-23 12:25:59</time>
      </trkpt>
      <trkpt lat="42.05527" lon="0.73798">
        <ele>1525.4</ele>
        <time>2022-05-23 12:26:00</time>
      </trkpt>
      <trkpt lat="42.05526" lon="0.73799">
        <ele>1525.4</ele>
        <time>2022-05-23 12:26:01</time>
      </trkpt>
      <trkpt lat="42.05525" lon="0.73803">
        <ele>1525.6</ele>
        <time>2022-05-23 12:26:02</time>
      </trkpt>
      <trkpt lat="42.05523" lon="0.73805">
        <ele>1525.8</ele>
        <time>2022-05-23 12:26:03</time>
      </trkpt>
      <trkpt lat="42.05522" lon="0.73807">
        <ele>1525.8</ele>
        <time>2022-05-23 12:26:04</time>
      </trkpt>
      <trkpt lat="42.05521" lon="0.7381">
        <ele>1526</ele>
        <time>2022-05-23 12:26:05</time>
      </trkpt>
      <trkpt lat="42.0552" lon="0.73812">
        <ele>1526</ele>
        <time>2022-05-23 12:26:06</time>
      </trkpt>
      <trkpt lat="42.05519" lon="0.73815">
        <ele>1526.2</ele>
        <time>2022-05-23 12:26:07</time>
      </trkpt>
      <trkpt lat="42.05519" lon="0.73818">
        <ele>1526.2</ele>
        <time>2022-05-23 12:26:08</time>
      </trkpt>
      <trkpt lat="42.05518" lon="0.73821">
        <ele>1526.4</ele>
        <time>2022-05-23 12:26:09</time>
      </trkpt>
      <trkpt lat="42.05518" lon="0.73824">
        <ele>1526.6</ele>
        <time>2022-05-23 12:26:10</time>
      </trkpt>
      <trkpt lat="42.05517" lon="0.73827">
        <ele>1526.6</ele>
        <time>2022-05-23 12:26:11</time>
      </trkpt>
      <trkpt lat="42.05515" lon="0.73831">
        <ele>1526.8</ele>
        <time>2022-05-23 12:26:12</time>
      </trkpt>
      <trkpt lat="42.05515" lon="0.73834">
        <ele>1526.8</ele>
        <time>2022-05-23 12:26:13</time>
      </trkpt>
      <trkpt lat="42.05514" lon="0.73838">
        <ele>1527</ele>
        <time>2022-05-23 12:26:14</time>
      </trkpt>
      <trkpt lat="42.05513" lon="0.73841">
        <ele>1527</ele>
        <time>2022-05-23 12:26:15</time>
      </trkpt>
      <trkpt lat="42.05513" lon="0.73844">
        <ele>1527.2</ele>
        <time>2022-05-23 12:26:16</time>
      </trkpt>
      <trkpt lat="42.05512" lon="0.73848">
        <ele>1527.2</ele>
        <time>2022-05-23 12:26:17</time>
      </trkpt>
      <trkpt lat="42.05511" lon="0.73851">
        <ele>1527.4</ele>
        <time>2022-05-23 12:26:18</time>
      </trkpt>
      <trkpt lat="42.0551" lon="0.73854">
        <ele>1527.4</ele>
        <time>2022-05-23 12:26:19</time>
      </trkpt>
      <trkpt lat="42.0551" lon="0.73858">
        <ele>1527.4</ele>
        <time>2022-05-23 12:26:20</time>
      </trkpt>
      <trkpt lat="42.05509" lon="0.73863">
        <ele>1527.6</ele>
        <time>2022-05-23 12:26:21</time>
      </trkpt>
      <trkpt lat="42.05509" lon="0.73868">
        <ele>1527.8</ele>
        <time>2022-05-23 12:26:22</time>
      </trkpt>
      <trkpt lat="42.05508" lon="0.73873">
        <ele>1527.8</ele>
        <time>2022-05-23 12:26:23</time>
      </trkpt>
      <trkpt lat="42.05508" lon="0.73876">
        <ele>1528</ele>
        <time>2022-05-23 12:26:24</time>
      </trkpt>
      <trkpt lat="42.05507" lon="0.73878">
        <ele>1528.2</ele>
        <time>2022-05-23 12:26:25</time>
      </trkpt>
      <trkpt lat="42.05507" lon="0.73881">
        <ele>1528.4</ele>
        <time>2022-05-23 12:26:26</time>
      </trkpt>
      <trkpt lat="42.05507" lon="0.73883">
        <ele>1528.6</ele>
        <time>2022-05-23 12:26:27</time>
      </trkpt>
      <trkpt lat="42.05505" lon="0.73885">
        <ele>1528.6</ele>
        <time>2022-05-23 12:26:28</time>
      </trkpt>
      <trkpt lat="42.05505" lon="0.73887">
        <ele>1528.8</ele>
        <time>2022-05-23 12:26:29</time>
      </trkpt>
      <trkpt lat="42.05504" lon="0.73888">
        <ele>1529</ele>
        <time>2022-05-23 12:26:30</time>
      </trkpt>
      <trkpt lat="42.05504" lon="0.73891">
        <ele>1529</ele>
        <time>2022-05-23 12:26:31</time>
      </trkpt>
      <trkpt lat="42.05503" lon="0.73894">
        <ele>1529.2</ele>
        <time>2022-05-23 12:26:32</time>
      </trkpt>
      <trkpt lat="42.05502" lon="0.73896">
        <ele>1529.4</ele>
        <time>2022-05-23 12:26:33</time>
      </trkpt>
      <trkpt lat="42.05502" lon="0.73899">
        <ele>1529.6</ele>
        <time>2022-05-23 12:26:34</time>
      </trkpt>
      <trkpt lat="42.05502" lon="0.739">
        <ele>1529.8</ele>
        <time>2022-05-23 12:26:35</time>
      </trkpt>
      <trkpt lat="42.05501" lon="0.73903">
        <ele>1529.8</ele>
        <time>2022-05-23 12:26:36</time>
      </trkpt>
      <trkpt lat="42.05501" lon="0.73906">
        <ele>1530</ele>
        <time>2022-05-23 12:26:37</time>
      </trkpt>
      <trkpt lat="42.055" lon="0.73909">
        <ele>1530.2</ele>
        <time>2022-05-23 12:26:38</time>
      </trkpt>
      <trkpt lat="42.055" lon="0.73912">
        <ele>1530.2</ele>
        <time>2022-05-23 12:26:39</time>
      </trkpt>
      <trkpt lat="42.055" lon="0.73915">
        <ele>1530.4</ele>
        <time>2022-05-23 12:26:40</time>
      </trkpt>
      <trkpt lat="42.05499" lon="0.73918">
        <ele>1530.6</ele>
        <time>2022-05-23 12:26:41</time>
      </trkpt>
      <trkpt lat="42.05499" lon="0.7392">
        <ele>1530.6</ele>
        <time>2022-05-23 12:26:42</time>
      </trkpt>
      <trkpt lat="42.05498" lon="0.73923">
        <ele>1530.8</ele>
        <time>2022-05-23 12:26:43</time>
      </trkpt>
      <trkpt lat="42.05498" lon="0.73926">
        <ele>1531</ele>
        <time>2022-05-23 12:26:44</time>
      </trkpt>
      <trkpt lat="42.05498" lon="0.73928">
        <ele>1531</ele>
        <time>2022-05-23 12:26:45</time>
      </trkpt>
      <trkpt lat="42.05498" lon="0.7393">
        <ele>1531.2</ele>
        <time>2022-05-23 12:26:46</time>
      </trkpt>
      <trkpt lat="42.05498" lon="0.73932">
        <ele>1531.2</ele>
        <time>2022-05-23 12:26:47</time>
      </trkpt>
      <trkpt lat="42.05497" lon="0.73935">
        <ele>1531.4</ele>
        <time>2022-05-23 12:26:48</time>
      </trkpt>
      <trkpt lat="42.05497" lon="0.73938">
        <ele>1531.4</ele>
        <time>2022-05-23 12:26:49</time>
      </trkpt>
      <trkpt lat="42.05496" lon="0.7394">
        <ele>1531.6</ele>
        <time>2022-05-23 12:26:50</time>
      </trkpt>
      <trkpt lat="42.05496" lon="0.73943">
        <ele>1531.6</ele>
        <time>2022-05-23 12:26:51</time>
      </trkpt>
      <trkpt lat="42.05495" lon="0.73946">
        <ele>1531.6</ele>
        <time>2022-05-23 12:26:52</time>
      </trkpt>
      <trkpt lat="42.05495" lon="0.7395">
        <ele>1531.8</ele>
        <time>2022-05-23 12:26:53</time>
      </trkpt>
      <trkpt lat="42.05495" lon="0.73952">
        <ele>1531.8</ele>
        <time>2022-05-23 12:26:54</time>
      </trkpt>
      <trkpt lat="42.05494" lon="0.73955">
        <ele>1531.8</ele>
        <time>2022-05-23 12:26:55</time>
      </trkpt>
      <trkpt lat="42.05494" lon="0.73959">
        <ele>1532</ele>
        <time>2022-05-23 12:26:56</time>
      </trkpt>
      <trkpt lat="42.05494" lon="0.73962">
        <ele>1532</ele>
        <time>2022-05-23 12:26:57</time>
      </trkpt>
      <trkpt lat="42.05494" lon="0.73965">
        <ele>1532.2</ele>
        <time>2022-05-23 12:26:58</time>
      </trkpt>
      <trkpt lat="42.05494" lon="0.73968">
        <ele>1532.2</ele>
        <time>2022-05-23 12:26:59</time>
      </trkpt>
      <trkpt lat="42.05494" lon="0.73972">
        <ele>1532.4</ele>
        <time>2022-05-23 12:27:00</time>
      </trkpt>
      <trkpt lat="42.05494" lon="0.73975">
        <ele>1532.6</ele>
        <time>2022-05-23 12:27:01</time>
      </trkpt>
      <trkpt lat="42.05494" lon="0.73978">
        <ele>1532.8</ele>
        <time>2022-05-23 12:27:02</time>
      </trkpt>
      <trkpt lat="42.05493" lon="0.73981">
        <ele>1532.8</ele>
        <time>2022-05-23 12:27:03</time>
      </trkpt>
      <trkpt lat="42.05493" lon="0.73984">
        <ele>1533</ele>
        <time>2022-05-23 12:27:04</time>
      </trkpt>
      <trkpt lat="42.05493" lon="0.73987">
        <ele>1533.2</ele>
        <time>2022-05-23 12:27:05</time>
      </trkpt>
      <trkpt lat="42.05493" lon="0.73989">
        <ele>1533.2</ele>
        <time>2022-05-23 12:27:06</time>
      </trkpt>
      <trkpt lat="42.05492" lon="0.73991">
        <ele>1533.6</ele>
        <time>2022-05-23 12:27:07</time>
      </trkpt>
      <trkpt lat="42.05492" lon="0.73994">
        <ele>1533.6</ele>
        <time>2022-05-23 12:27:08</time>
      </trkpt>
      <trkpt lat="42.05492" lon="0.73997">
        <ele>1534</ele>
        <time>2022-05-23 12:27:09</time>
      </trkpt>
      <trkpt lat="42.05492" lon="0.74">
        <ele>1534.2</ele>
        <time>2022-05-23 12:27:10</time>
      </trkpt>
      <trkpt lat="42.05491" lon="0.74002">
        <ele>1534.4</ele>
        <time>2022-05-23 12:27:11</time>
      </trkpt>
      <trkpt lat="42.05492" lon="0.74005">
        <ele>1534.4</ele>
        <time>2022-05-23 12:27:12</time>
      </trkpt>
      <trkpt lat="42.05492" lon="0.74006">
        <ele>1534.6</ele>
        <time>2022-05-23 12:27:13</time>
      </trkpt>
      <trkpt lat="42.05492" lon="0.7401">
        <ele>1534.6</ele>
        <time>2022-05-23 12:27:14</time>
      </trkpt>
      <trkpt lat="42.05492" lon="0.74012">
        <ele>1534.8</ele>
        <time>2022-05-23 12:27:15</time>
      </trkpt>
      <trkpt lat="42.05491" lon="0.74015">
        <ele>1534.8</ele>
        <time>2022-05-23 12:27:16</time>
      </trkpt>
      <trkpt lat="42.05491" lon="0.74018">
        <ele>1535</ele>
        <time>2022-05-23 12:27:17</time>
      </trkpt>
      <trkpt lat="42.05491" lon="0.7402">
        <ele>1535</ele>
        <time>2022-05-23 12:27:18</time>
      </trkpt>
      <trkpt lat="42.05491" lon="0.74023">
        <ele>1535.4</ele>
        <time>2022-05-23 12:27:19</time>
      </trkpt>
      <trkpt lat="42.05491" lon="0.74026">
        <ele>1535.6</ele>
        <time>2022-05-23 12:27:20</time>
      </trkpt>
      <trkpt lat="42.0549" lon="0.74029">
        <ele>1535.8</ele>
        <time>2022-05-23 12:27:21</time>
      </trkpt>
      <trkpt lat="42.0549" lon="0.74032">
        <ele>1536</ele>
        <time>2022-05-23 12:27:22</time>
      </trkpt>
      <trkpt lat="42.0549" lon="0.74034">
        <ele>1536.4</ele>
        <time>2022-05-23 12:27:23</time>
      </trkpt>
      <trkpt lat="42.05489" lon="0.74038">
        <ele>1536.6</ele>
        <time>2022-05-23 12:27:24</time>
      </trkpt>
      <trkpt lat="42.05489" lon="0.74041">
        <ele>1536.8</ele>
        <time>2022-05-23 12:27:25</time>
      </trkpt>
      <trkpt lat="42.05489" lon="0.74044">
        <ele>1537</ele>
        <time>2022-05-23 12:27:26</time>
      </trkpt>
      <trkpt lat="42.05488" lon="0.74047">
        <ele>1537</ele>
        <time>2022-05-23 12:27:27</time>
      </trkpt>
      <trkpt lat="42.05488" lon="0.7405">
        <ele>1537.2</ele>
        <time>2022-05-23 12:27:28</time>
      </trkpt>
      <trkpt lat="42.05488" lon="0.74053">
        <ele>1537.2</ele>
        <time>2022-05-23 12:27:29</time>
      </trkpt>
      <trkpt lat="42.05488" lon="0.74056">
        <ele>1537.2</ele>
        <time>2022-05-23 12:27:30</time>
      </trkpt>
      <trkpt lat="42.05488" lon="0.74059">
        <ele>1537.2</ele>
        <time>2022-05-23 12:27:31</time>
      </trkpt>
      <trkpt lat="42.05488" lon="0.74062">
        <ele>1537.4</ele>
        <time>2022-05-23 12:27:32</time>
      </trkpt>
      <trkpt lat="42.05488" lon="0.74065">
        <ele>1537.6</ele>
        <time>2022-05-23 12:27:33</time>
      </trkpt>
      <trkpt lat="42.05487" lon="0.74069">
        <ele>1537.8</ele>
        <time>2022-05-23 12:27:34</time>
      </trkpt>
      <trkpt lat="42.05487" lon="0.74071">
        <ele>1537.8</ele>
        <time>2022-05-23 12:27:35</time>
      </trkpt>
      <trkpt lat="42.05487" lon="0.74075">
        <ele>1538</ele>
        <time>2022-05-23 12:27:36</time>
      </trkpt>
      <trkpt lat="42.05486" lon="0.74078">
        <ele>1538.2</ele>
        <time>2022-05-23 12:27:37</time>
      </trkpt>
      <trkpt lat="42.05486" lon="0.7408">
        <ele>1538.2</ele>
        <time>2022-05-23 12:27:38</time>
      </trkpt>
      <trkpt lat="42.05486" lon="0.74082">
        <ele>1538.4</ele>
        <time>2022-05-23 12:27:39</time>
      </trkpt>
      <trkpt lat="42.05485" lon="0.74085">
        <ele>1538.4</ele>
        <time>2022-05-23 12:27:40</time>
      </trkpt>
      <trkpt lat="42.05484" lon="0.74087">
        <ele>1538.6</ele>
        <time>2022-05-23 12:27:41</time>
      </trkpt>
      <trkpt lat="42.05484" lon="0.7409">
        <ele>1538.8</ele>
        <time>2022-05-23 12:27:42</time>
      </trkpt>
      <trkpt lat="42.05484" lon="0.74092">
        <ele>1538.8</ele>
        <time>2022-05-23 12:27:43</time>
      </trkpt>
      <trkpt lat="42.05484" lon="0.74095">
        <ele>1539</ele>
        <time>2022-05-23 12:27:44</time>
      </trkpt>
      <trkpt lat="42.05484" lon="0.74098">
        <ele>1539.2</ele>
        <time>2022-05-23 12:27:45</time>
      </trkpt>
      <trkpt lat="42.05483" lon="0.74101">
        <ele>1539.4</ele>
        <time>2022-05-23 12:27:46</time>
      </trkpt>
      <trkpt lat="42.05482" lon="0.74104">
        <ele>1539.6</ele>
        <time>2022-05-23 12:27:47</time>
      </trkpt>
      <trkpt lat="42.05482" lon="0.74107">
        <ele>1539.6</ele>
        <time>2022-05-23 12:27:48</time>
      </trkpt>
      <trkpt lat="42.05482" lon="0.7411">
        <ele>1539.8</ele>
        <time>2022-05-23 12:27:49</time>
      </trkpt>
      <trkpt lat="42.05481" lon="0.74113">
        <ele>1540</ele>
        <time>2022-05-23 12:27:50</time>
      </trkpt>
      <trkpt lat="42.05481" lon="0.74116">
        <ele>1540</ele>
        <time>2022-05-23 12:27:51</time>
      </trkpt>
      <trkpt lat="42.0548" lon="0.74119">
        <ele>1540.2</ele>
        <time>2022-05-23 12:27:52</time>
      </trkpt>
      <trkpt lat="42.05479" lon="0.74121">
        <ele>1540.2</ele>
        <time>2022-05-23 12:27:53</time>
      </trkpt>
      <trkpt lat="42.05479" lon="0.74125">
        <ele>1540.4</ele>
        <time>2022-05-23 12:27:54</time>
      </trkpt>
      <trkpt lat="42.05478" lon="0.74127">
        <ele>1540.6</ele>
        <time>2022-05-23 12:27:55</time>
      </trkpt>
      <trkpt lat="42.05478" lon="0.74131">
        <ele>1540.6</ele>
        <time>2022-05-23 12:27:56</time>
      </trkpt>
      <trkpt lat="42.05478" lon="0.74133">
        <ele>1540.8</ele>
        <time>2022-05-23 12:27:57</time>
      </trkpt>
      <trkpt lat="42.05478" lon="0.74136">
        <ele>1541</ele>
        <time>2022-05-23 12:27:58</time>
      </trkpt>
      <trkpt lat="42.05477" lon="0.74138">
        <ele>1541</ele>
        <time>2022-05-23 12:27:59</time>
      </trkpt>
      <trkpt lat="42.05477" lon="0.74141">
        <ele>1541.2</ele>
        <time>2022-05-23 12:28:00</time>
      </trkpt>
      <trkpt lat="42.05476" lon="0.74145">
        <ele>1541.4</ele>
        <time>2022-05-23 12:28:01</time>
      </trkpt>
      <trkpt lat="42.05479" lon="0.74153">
        <ele>1541.6</ele>
        <time>2022-05-23 12:28:02</time>
      </trkpt>
      <trkpt lat="42.05477" lon="0.74154">
        <ele>1541.8</ele>
        <time>2022-05-23 12:28:03</time>
      </trkpt>
      <trkpt lat="42.05476" lon="0.74158">
        <ele>1541.8</ele>
        <time>2022-05-23 12:28:04</time>
      </trkpt>
      <trkpt lat="42.05473" lon="0.7416">
        <ele>1542</ele>
        <time>2022-05-23 12:28:05</time>
      </trkpt>
      <trkpt lat="42.05472" lon="0.74164">
        <ele>1542.2</ele>
        <time>2022-05-23 12:28:06</time>
      </trkpt>
      <trkpt lat="42.05471" lon="0.74166">
        <ele>1542.4</ele>
        <time>2022-05-23 12:28:07</time>
      </trkpt>
      <trkpt lat="42.05469" lon="0.74169">
        <ele>1542.6</ele>
        <time>2022-05-23 12:28:08</time>
      </trkpt>
      <trkpt lat="42.05468" lon="0.74172">
        <ele>1542.8</ele>
        <time>2022-05-23 12:28:09</time>
      </trkpt>
      <trkpt lat="42.05468" lon="0.74175">
        <ele>1543</ele>
        <time>2022-05-23 12:28:10</time>
      </trkpt>
      <trkpt lat="42.05467" lon="0.74177">
        <ele>1543</ele>
        <time>2022-05-23 12:28:11</time>
      </trkpt>
      <trkpt lat="42.05465" lon="0.7418">
        <ele>1543.2</ele>
        <time>2022-05-23 12:28:12</time>
      </trkpt>
      <trkpt lat="42.05465" lon="0.74183">
        <ele>1543.4</ele>
        <time>2022-05-23 12:28:13</time>
      </trkpt>
      <trkpt lat="42.05463" lon="0.74185">
        <ele>1543.4</ele>
        <time>2022-05-23 12:28:14</time>
      </trkpt>
      <trkpt lat="42.05463" lon="0.74187">
        <ele>1543.6</ele>
        <time>2022-05-23 12:28:15</time>
      </trkpt>
      <trkpt lat="42.05462" lon="0.7419">
        <ele>1543.6</ele>
        <time>2022-05-23 12:28:16</time>
      </trkpt>
      <trkpt lat="42.0546" lon="0.74193">
        <ele>1543.8</ele>
        <time>2022-05-23 12:28:17</time>
      </trkpt>
      <trkpt lat="42.0546" lon="0.74196">
        <ele>1543.8</ele>
        <time>2022-05-23 12:28:18</time>
      </trkpt>
      <trkpt lat="42.05459" lon="0.74198">
        <ele>1544</ele>
        <time>2022-05-23 12:28:19</time>
      </trkpt>
      <trkpt lat="42.05458" lon="0.742">
        <ele>1544.2</ele>
        <time>2022-05-23 12:28:20</time>
      </trkpt>
      <trkpt lat="42.05457" lon="0.74203">
        <ele>1544.2</ele>
        <time>2022-05-23 12:28:21</time>
      </trkpt>
      <trkpt lat="42.05456" lon="0.74206">
        <ele>1544.2</ele>
        <time>2022-05-23 12:28:22</time>
      </trkpt>
      <trkpt lat="42.05455" lon="0.74208">
        <ele>1544.4</ele>
        <time>2022-05-23 12:28:23</time>
      </trkpt>
      <trkpt lat="42.05454" lon="0.7421">
        <ele>1544.6</ele>
        <time>2022-05-23 12:28:24</time>
      </trkpt>
      <trkpt lat="42.05453" lon="0.74213">
        <ele>1544.8</ele>
        <time>2022-05-23 12:28:25</time>
      </trkpt>
      <trkpt lat="42.05452" lon="0.74215">
        <ele>1545</ele>
        <time>2022-05-23 12:28:26</time>
      </trkpt>
      <trkpt lat="42.05451" lon="0.74218">
        <ele>1545</ele>
        <time>2022-05-23 12:28:27</time>
      </trkpt>
      <trkpt lat="42.0545" lon="0.74221">
        <ele>1545.2</ele>
        <time>2022-05-23 12:28:28</time>
      </trkpt>
      <trkpt lat="42.05449" lon="0.74223">
        <ele>1545.4</ele>
        <time>2022-05-23 12:28:29</time>
      </trkpt>
      <trkpt lat="42.05448" lon="0.74225">
        <ele>1545.4</ele>
        <time>2022-05-23 12:28:30</time>
      </trkpt>
      <trkpt lat="42.05447" lon="0.74228">
        <ele>1545.6</ele>
        <time>2022-05-23 12:28:31</time>
      </trkpt>
      <trkpt lat="42.05445" lon="0.74231">
        <ele>1546</ele>
        <time>2022-05-23 12:28:32</time>
      </trkpt>
      <trkpt lat="42.05444" lon="0.74233">
        <ele>1546.2</ele>
        <time>2022-05-23 12:28:33</time>
      </trkpt>
      <trkpt lat="42.05443" lon="0.74236">
        <ele>1546.2</ele>
        <time>2022-05-23 12:28:34</time>
      </trkpt>
      <trkpt lat="42.05442" lon="0.74238">
        <ele>1546.4</ele>
        <time>2022-05-23 12:28:35</time>
      </trkpt>
      <trkpt lat="42.05441" lon="0.74241">
        <ele>1546.6</ele>
        <time>2022-05-23 12:28:36</time>
      </trkpt>
      <trkpt lat="42.0544" lon="0.74244">
        <ele>1546.6</ele>
        <time>2022-05-23 12:28:37</time>
      </trkpt>
      <trkpt lat="42.05439" lon="0.74246">
        <ele>1546.8</ele>
        <time>2022-05-23 12:28:38</time>
      </trkpt>
      <trkpt lat="42.05438" lon="0.74249">
        <ele>1547</ele>
        <time>2022-05-23 12:28:39</time>
      </trkpt>
      <trkpt lat="42.05437" lon="0.74251">
        <ele>1547.2</ele>
        <time>2022-05-23 12:28:40</time>
      </trkpt>
      <trkpt lat="42.05435" lon="0.74255">
        <ele>1547.2</ele>
        <time>2022-05-23 12:28:41</time>
      </trkpt>
      <trkpt lat="42.05434" lon="0.74258">
        <ele>1547.4</ele>
        <time>2022-05-23 12:28:42</time>
      </trkpt>
      <trkpt lat="42.05433" lon="0.7426">
        <ele>1547.6</ele>
        <time>2022-05-23 12:28:43</time>
      </trkpt>
      <trkpt lat="42.05431" lon="0.74262">
        <ele>1547.6</ele>
        <time>2022-05-23 12:28:44</time>
      </trkpt>
      <trkpt lat="42.0543" lon="0.74266">
        <ele>1547.8</ele>
        <time>2022-05-23 12:28:45</time>
      </trkpt>
      <trkpt lat="42.05429" lon="0.74269">
        <ele>1547.8</ele>
        <time>2022-05-23 12:28:46</time>
      </trkpt>
      <trkpt lat="42.05428" lon="0.74271">
        <ele>1548</ele>
        <time>2022-05-23 12:28:47</time>
      </trkpt>
      <trkpt lat="42.05426" lon="0.74274">
        <ele>1548.2</ele>
        <time>2022-05-23 12:28:48</time>
      </trkpt>
      <trkpt lat="42.05425" lon="0.74277">
        <ele>1548.2</ele>
        <time>2022-05-23 12:28:49</time>
      </trkpt>
      <trkpt lat="42.05424" lon="0.74279">
        <ele>1548.2</ele>
        <time>2022-05-23 12:28:50</time>
      </trkpt>
      <trkpt lat="42.05423" lon="0.74282">
        <ele>1548.4</ele>
        <time>2022-05-23 12:28:51</time>
      </trkpt>
      <trkpt lat="42.05421" lon="0.74285">
        <ele>1548.6</ele>
        <time>2022-05-23 12:28:52</time>
      </trkpt>
      <trkpt lat="42.0542" lon="0.74288">
        <ele>1548.8</ele>
        <time>2022-05-23 12:28:53</time>
      </trkpt>
      <trkpt lat="42.05419" lon="0.74291">
        <ele>1549</ele>
        <time>2022-05-23 12:28:54</time>
      </trkpt>
      <trkpt lat="42.05418" lon="0.74294">
        <ele>1549.2</ele>
        <time>2022-05-23 12:28:55</time>
      </trkpt>
      <trkpt lat="42.05417" lon="0.74296">
        <ele>1549.4</ele>
        <time>2022-05-23 12:28:56</time>
      </trkpt>
      <trkpt lat="42.05415" lon="0.743">
        <ele>1549.4</ele>
        <time>2022-05-23 12:28:57</time>
      </trkpt>
      <trkpt lat="42.05414" lon="0.74303">
        <ele>1549.6</ele>
        <time>2022-05-23 12:28:58</time>
      </trkpt>
      <trkpt lat="42.05413" lon="0.74306">
        <ele>1549.8</ele>
        <time>2022-05-23 12:28:59</time>
      </trkpt>
      <trkpt lat="42.05411" lon="0.74308">
        <ele>1550</ele>
        <time>2022-05-23 12:29:00</time>
      </trkpt>
      <trkpt lat="42.0541" lon="0.74311">
        <ele>1550.2</ele>
        <time>2022-05-23 12:29:01</time>
      </trkpt>
      <trkpt lat="42.05408" lon="0.74314">
        <ele>1550.4</ele>
        <time>2022-05-23 12:29:02</time>
      </trkpt>
      <trkpt lat="42.05407" lon="0.74317">
        <ele>1550.6</ele>
        <time>2022-05-23 12:29:03</time>
      </trkpt>
      <trkpt lat="42.05406" lon="0.74319">
        <ele>1550.8</ele>
        <time>2022-05-23 12:29:04</time>
      </trkpt>
      <trkpt lat="42.05405" lon="0.74322">
        <ele>1551</ele>
        <time>2022-05-23 12:29:05</time>
      </trkpt>
      <trkpt lat="42.05404" lon="0.74325">
        <ele>1551.2</ele>
        <time>2022-05-23 12:29:06</time>
      </trkpt>
      <trkpt lat="42.05403" lon="0.74328">
        <ele>1551.4</ele>
        <time>2022-05-23 12:29:07</time>
      </trkpt>
      <trkpt lat="42.05401" lon="0.74331">
        <ele>1551.6</ele>
        <time>2022-05-23 12:29:08</time>
      </trkpt>
      <trkpt lat="42.05399" lon="0.74333">
        <ele>1551.8</ele>
        <time>2022-05-23 12:29:09</time>
      </trkpt>
      <trkpt lat="42.05398" lon="0.74336">
        <ele>1552</ele>
        <time>2022-05-23 12:29:10</time>
      </trkpt>
      <trkpt lat="42.05397" lon="0.74339">
        <ele>1552.2</ele>
        <time>2022-05-23 12:29:11</time>
      </trkpt>
      <trkpt lat="42.05395" lon="0.74341">
        <ele>1552.4</ele>
        <time>2022-05-23 12:29:12</time>
      </trkpt>
      <trkpt lat="42.05394" lon="0.74344">
        <ele>1552.6</ele>
        <time>2022-05-23 12:29:13</time>
      </trkpt>
      <trkpt lat="42.05393" lon="0.74346">
        <ele>1552.8</ele>
        <time>2022-05-23 12:29:14</time>
      </trkpt>
      <trkpt lat="42.05392" lon="0.74347">
        <ele>1553</ele>
        <time>2022-05-23 12:29:15</time>
      </trkpt>
      <trkpt lat="42.05388" lon="0.74349">
        <ele>1553.6</ele>
        <time>2022-05-23 12:29:16</time>
      </trkpt>
      <trkpt lat="42.05386" lon="0.7435">
        <ele>1553.6</ele>
        <time>2022-05-23 12:29:17</time>
      </trkpt>
      <trkpt lat="42.05385" lon="0.74352">
        <ele>1553.6</ele>
        <time>2022-05-23 12:29:18</time>
      </trkpt>
      <trkpt lat="42.05384" lon="0.74353">
        <ele>1553.6</ele>
        <time>2022-05-23 12:29:19</time>
      </trkpt>
      <trkpt lat="42.05383" lon="0.74355">
        <ele>1553.8</ele>
        <time>2022-05-23 12:29:20</time>
      </trkpt>
      <trkpt lat="42.05381" lon="0.74356">
        <ele>1553.8</ele>
        <time>2022-05-23 12:29:21</time>
      </trkpt>
      <trkpt lat="42.05379" lon="0.74358">
        <ele>1554</ele>
        <time>2022-05-23 12:29:22</time>
      </trkpt>
      <trkpt lat="42.05378" lon="0.7436">
        <ele>1554.2</ele>
        <time>2022-05-23 12:29:23</time>
      </trkpt>
      <trkpt lat="42.05377" lon="0.74362">
        <ele>1554.4</ele>
        <time>2022-05-23 12:29:24</time>
      </trkpt>
      <trkpt lat="42.05376" lon="0.74364">
        <ele>1554.6</ele>
        <time>2022-05-23 12:29:25</time>
      </trkpt>
      <trkpt lat="42.05374" lon="0.74365">
        <ele>1554.6</ele>
        <time>2022-05-23 12:29:26</time>
      </trkpt>
      <trkpt lat="42.05373" lon="0.74367">
        <ele>1554.8</ele>
        <time>2022-05-23 12:29:27</time>
      </trkpt>
      <trkpt lat="42.05371" lon="0.74369">
        <ele>1555</ele>
        <time>2022-05-23 12:29:28</time>
      </trkpt>
      <trkpt lat="42.05369" lon="0.74371">
        <ele>1555.2</ele>
        <time>2022-05-23 12:29:29</time>
      </trkpt>
      <trkpt lat="42.05367" lon="0.74372">
        <ele>1555.4</ele>
        <time>2022-05-23 12:29:30</time>
      </trkpt>
      <trkpt lat="42.05365" lon="0.74373">
        <ele>1555.6</ele>
        <time>2022-05-23 12:29:31</time>
      </trkpt>
      <trkpt lat="42.05363" lon="0.74374">
        <ele>1555.6</ele>
        <time>2022-05-23 12:29:32</time>
      </trkpt>
      <trkpt lat="42.05361" lon="0.74376">
        <ele>1555.8</ele>
        <time>2022-05-23 12:29:33</time>
      </trkpt>
      <trkpt lat="42.05359" lon="0.74378">
        <ele>1556</ele>
        <time>2022-05-23 12:29:34</time>
      </trkpt>
      <trkpt lat="42.05357" lon="0.74379">
        <ele>1556.2</ele>
        <time>2022-05-23 12:29:35</time>
      </trkpt>
      <trkpt lat="42.05354" lon="0.7438">
        <ele>1556.4</ele>
        <time>2022-05-23 12:29:36</time>
      </trkpt>
      <trkpt lat="42.05352" lon="0.74382">
        <ele>1556.4</ele>
        <time>2022-05-23 12:29:37</time>
      </trkpt>
      <trkpt lat="42.0535" lon="0.74383">
        <ele>1556.6</ele>
        <time>2022-05-23 12:29:38</time>
      </trkpt>
      <trkpt lat="42.05348" lon="0.74384">
        <ele>1556.6</ele>
        <time>2022-05-23 12:29:39</time>
      </trkpt>
      <trkpt lat="42.05346" lon="0.74385">
        <ele>1557</ele>
        <time>2022-05-23 12:31:07</time>
      </trkpt>
      <trkpt lat="42.05344" lon="0.74387">
        <ele>1557.2</ele>
        <time>2022-05-23 12:31:08</time>
      </trkpt>
      <trkpt lat="42.05342" lon="0.74388">
        <ele>1557.2</ele>
        <time>2022-05-23 12:31:09</time>
      </trkpt>
      <trkpt lat="42.0534" lon="0.74389">
        <ele>1557.4</ele>
        <time>2022-05-23 12:31:10</time>
      </trkpt>
      <trkpt lat="42.05338" lon="0.7439">
        <ele>1557.6</ele>
        <time>2022-05-23 12:31:11</time>
      </trkpt>
      <trkpt lat="42.05336" lon="0.7439">
        <ele>1557.8</ele>
        <time>2022-05-23 12:31:12</time>
      </trkpt>
      <trkpt lat="42.05334" lon="0.74391">
        <ele>1558</ele>
        <time>2022-05-23 12:31:13</time>
      </trkpt>
      <trkpt lat="42.05332" lon="0.74392">
        <ele>1558</ele>
        <time>2022-05-23 12:31:14</time>
      </trkpt>
      <trkpt lat="42.0533" lon="0.74392">
        <ele>1558.2</ele>
        <time>2022-05-23 12:31:15</time>
      </trkpt>
      <trkpt lat="42.05328" lon="0.74392">
        <ele>1558.4</ele>
        <time>2022-05-23 12:31:16</time>
      </trkpt>
      <trkpt lat="42.05325" lon="0.74392">
        <ele>1558.6</ele>
        <time>2022-05-23 12:31:17</time>
      </trkpt>
      <trkpt lat="42.05323" lon="0.74393">
        <ele>1558.8</ele>
        <time>2022-05-23 12:31:18</time>
      </trkpt>
      <trkpt lat="42.05321" lon="0.74393">
        <ele>1559</ele>
        <time>2022-05-23 12:31:19</time>
      </trkpt>
      <trkpt lat="42.0532" lon="0.74393">
        <ele>1559.2</ele>
        <time>2022-05-23 12:31:20</time>
      </trkpt>
      <trkpt lat="42.05318" lon="0.74394">
        <ele>1559.4</ele>
        <time>2022-05-23 12:31:21</time>
      </trkpt>
      <trkpt lat="42.05316" lon="0.74394">
        <ele>1559.6</ele>
        <time>2022-05-23 12:31:22</time>
      </trkpt>
      <trkpt lat="42.05314" lon="0.74393">
        <ele>1559.8</ele>
        <time>2022-05-23 12:31:23</time>
      </trkpt>
      <trkpt lat="42.05312" lon="0.74393">
        <ele>1559.8</ele>
        <time>2022-05-23 12:31:24</time>
      </trkpt>
      <trkpt lat="42.0531" lon="0.74393">
        <ele>1560</ele>
        <time>2022-05-23 12:31:25</time>
      </trkpt>
      <trkpt lat="42.05308" lon="0.74393">
        <ele>1560.2</ele>
        <time>2022-05-23 12:31:26</time>
      </trkpt>
      <trkpt lat="42.05307" lon="0.74392">
        <ele>1560.4</ele>
        <time>2022-05-23 12:31:27</time>
      </trkpt>
      <trkpt lat="42.05305" lon="0.74392">
        <ele>1560.4</ele>
        <time>2022-05-23 12:31:28</time>
      </trkpt>
      <trkpt lat="42.05303" lon="0.74391">
        <ele>1560.6</ele>
        <time>2022-05-23 12:31:29</time>
      </trkpt>
      <trkpt lat="42.05301" lon="0.74391">
        <ele>1560.8</ele>
        <time>2022-05-23 12:31:30</time>
      </trkpt>
      <trkpt lat="42.05299" lon="0.7439">
        <ele>1561</ele>
        <time>2022-05-23 12:31:31</time>
      </trkpt>
      <trkpt lat="42.05297" lon="0.74389">
        <ele>1561.2</ele>
        <time>2022-05-23 12:31:32</time>
      </trkpt>
      <trkpt lat="42.05295" lon="0.74389">
        <ele>1561.4</ele>
        <time>2022-05-23 12:31:33</time>
      </trkpt>
      <trkpt lat="42.05294" lon="0.74387">
        <ele>1561.4</ele>
        <time>2022-05-23 12:31:34</time>
      </trkpt>
      <trkpt lat="42.05292" lon="0.74386">
        <ele>1561.6</ele>
        <time>2022-05-23 12:31:35</time>
      </trkpt>
      <trkpt lat="42.0529" lon="0.74385">
        <ele>1561.6</ele>
        <time>2022-05-23 12:31:36</time>
      </trkpt>
      <trkpt lat="42.05288" lon="0.74384">
        <ele>1561.8</ele>
        <time>2022-05-23 12:31:37</time>
      </trkpt>
      <trkpt lat="42.05287" lon="0.74383">
        <ele>1562</ele>
        <time>2022-05-23 12:31:38</time>
      </trkpt>
      <trkpt lat="42.05285" lon="0.74382">
        <ele>1562.2</ele>
        <time>2022-05-23 12:31:39</time>
      </trkpt>
      <trkpt lat="42.05283" lon="0.74381">
        <ele>1562.4</ele>
        <time>2022-05-23 12:31:40</time>
      </trkpt>
      <trkpt lat="42.05282" lon="0.7438">
        <ele>1562.6</ele>
        <time>2022-05-23 12:31:41</time>
      </trkpt>
      <trkpt lat="42.05281" lon="0.74378">
        <ele>1562.8</ele>
        <time>2022-05-23 12:31:42</time>
      </trkpt>
      <trkpt lat="42.05279" lon="0.74377">
        <ele>1563</ele>
        <time>2022-05-23 12:31:43</time>
      </trkpt>
      <trkpt lat="42.05278" lon="0.74376">
        <ele>1563.2</ele>
        <time>2022-05-23 12:31:44</time>
      </trkpt>
      <trkpt lat="42.05276" lon="0.74375">
        <ele>1563.4</ele>
        <time>2022-05-23 12:31:45</time>
      </trkpt>
      <trkpt lat="42.05275" lon="0.74374">
        <ele>1563.6</ele>
        <time>2022-05-23 12:31:46</time>
      </trkpt>
      <trkpt lat="42.05273" lon="0.74371">
        <ele>1563.8</ele>
        <time>2022-05-23 12:31:47</time>
      </trkpt>
      <trkpt lat="42.0527" lon="0.7437">
        <ele>1564</ele>
        <time>2022-05-23 12:31:48</time>
      </trkpt>
      <trkpt lat="42.05269" lon="0.74367">
        <ele>1564.2</ele>
        <time>2022-05-23 12:31:49</time>
      </trkpt>
      <trkpt lat="42.05268" lon="0.74367">
        <ele>1564.2</ele>
        <time>2022-05-23 12:31:50</time>
      </trkpt>
      <trkpt lat="42.05266" lon="0.74366">
        <ele>1564.4</ele>
        <time>2022-05-23 12:31:51</time>
      </trkpt>
      <trkpt lat="42.05264" lon="0.74364">
        <ele>1564.6</ele>
        <time>2022-05-23 12:31:52</time>
      </trkpt>
      <trkpt lat="42.05263" lon="0.74362">
        <ele>1564.8</ele>
        <time>2022-05-23 12:31:53</time>
      </trkpt>
      <trkpt lat="42.05262" lon="0.74361">
        <ele>1565</ele>
        <time>2022-05-23 12:31:54</time>
      </trkpt>
      <trkpt lat="42.0526" lon="0.7436">
        <ele>1565.2</ele>
        <time>2022-05-23 12:31:55</time>
      </trkpt>
      <trkpt lat="42.05259" lon="0.74359">
        <ele>1565.4</ele>
        <time>2022-05-23 12:31:56</time>
      </trkpt>
      <trkpt lat="42.05257" lon="0.74357">
        <ele>1565.6</ele>
        <time>2022-05-23 12:31:57</time>
      </trkpt>
      <trkpt lat="42.05255" lon="0.74356">
        <ele>1565.8</ele>
        <time>2022-05-23 12:31:58</time>
      </trkpt>
      <trkpt lat="42.05253" lon="0.74355">
        <ele>1566</ele>
        <time>2022-05-23 12:31:59</time>
      </trkpt>
      <trkpt lat="42.05251" lon="0.74355">
        <ele>1566</ele>
        <time>2022-05-23 12:32:00</time>
      </trkpt>
      <trkpt lat="42.0525" lon="0.74354">
        <ele>1566</ele>
        <time>2022-05-23 12:32:01</time>
      </trkpt>
      <trkpt lat="42.05248" lon="0.74354">
        <ele>1566.2</ele>
        <time>2022-05-23 12:32:02</time>
      </trkpt>
      <trkpt lat="42.05246" lon="0.74353">
        <ele>1566.2</ele>
        <time>2022-05-23 12:32:03</time>
      </trkpt>
      <trkpt lat="42.05245" lon="0.74352">
        <ele>1566.2</ele>
        <time>2022-05-23 12:32:04</time>
      </trkpt>
      <trkpt lat="42.05242" lon="0.74351">
        <ele>1566.2</ele>
        <time>2022-05-23 12:32:05</time>
      </trkpt>
      <trkpt lat="42.05239" lon="0.74349">
        <ele>1566.2</ele>
        <time>2022-05-23 12:32:06</time>
      </trkpt>
      <trkpt lat="42.05235" lon="0.74347">
        <ele>1566</ele>
        <time>2022-05-23 12:32:07</time>
      </trkpt>
      <trkpt lat="42.05231" lon="0.74346">
        <ele>1565.6</ele>
        <time>2022-05-23 12:32:08</time>
      </trkpt>
      <trkpt lat="42.05227" lon="0.74344">
        <ele>1565.4</ele>
        <time>2022-05-23 12:32:09</time>
      </trkpt>
      <trkpt lat="42.05222" lon="0.74343">
        <ele>1565.2</ele>
        <time>2022-05-23 12:32:10</time>
      </trkpt>
      <trkpt lat="42.05217" lon="0.74342">
        <ele>1565</ele>
        <time>2022-05-23 12:32:11</time>
      </trkpt>
      <trkpt lat="42.05212" lon="0.74344">
        <ele>1564.8</ele>
        <time>2022-05-23 12:32:12</time>
      </trkpt>
      <trkpt lat="42.05206" lon="0.74346">
        <ele>1564.6</ele>
        <time>2022-05-23 12:32:13</time>
      </trkpt>
      <trkpt lat="42.05202" lon="0.7435">
        <ele>1564.4</ele>
        <time>2022-05-23 12:32:14</time>
      </trkpt>
      <trkpt lat="42.05198" lon="0.74356">
        <ele>1564.4</ele>
        <time>2022-05-23 12:32:15</time>
      </trkpt>
      <trkpt lat="42.05194" lon="0.74362">
        <ele>1564.4</ele>
        <time>2022-05-23 12:32:16</time>
      </trkpt>
      <trkpt lat="42.0519" lon="0.74367">
        <ele>1564.4</ele>
        <time>2022-05-23 12:32:17</time>
      </trkpt>
      <trkpt lat="42.05187" lon="0.74373">
        <ele>1564.4</ele>
        <time>2022-05-23 12:32:18</time>
      </trkpt>
      <trkpt lat="42.05183" lon="0.74377">
        <ele>1564.4</ele>
        <time>2022-05-23 12:32:19</time>
      </trkpt>
      <trkpt lat="42.0518" lon="0.74381">
        <ele>1564.4</ele>
        <time>2022-05-23 12:32:20</time>
      </trkpt>
      <trkpt lat="42.05177" lon="0.74385">
        <ele>1564.6</ele>
        <time>2022-05-23 12:32:21</time>
      </trkpt>
      <trkpt lat="42.05175" lon="0.74389">
        <ele>1564.8</ele>
        <time>2022-05-23 12:32:22</time>
      </trkpt>
      <trkpt lat="42.05172" lon="0.74392">
        <ele>1564.8</ele>
        <time>2022-05-23 12:32:23</time>
      </trkpt>
      <trkpt lat="42.0517" lon="0.74394">
        <ele>1565</ele>
        <time>2022-05-23 12:32:24</time>
      </trkpt>
      <trkpt lat="42.05167" lon="0.74397">
        <ele>1565.2</ele>
        <time>2022-05-23 12:32:25</time>
      </trkpt>
      <trkpt lat="42.05164" lon="0.74399">
        <ele>1565.4</ele>
        <time>2022-05-23 12:32:26</time>
      </trkpt>
      <trkpt lat="42.05162" lon="0.744">
        <ele>1565.6</ele>
        <time>2022-05-23 12:32:27</time>
      </trkpt>
      <trkpt lat="42.05159" lon="0.74402">
        <ele>1565.8</ele>
        <time>2022-05-23 12:32:28</time>
      </trkpt>
      <trkpt lat="42.05157" lon="0.74403">
        <ele>1566</ele>
        <time>2022-05-23 12:32:29</time>
      </trkpt>
      <trkpt lat="42.05155" lon="0.74403">
        <ele>1566.2</ele>
        <time>2022-05-23 12:32:30</time>
      </trkpt>
      <trkpt lat="42.05153" lon="0.74404">
        <ele>1566.4</ele>
        <time>2022-05-23 12:32:31</time>
      </trkpt>
      <trkpt lat="42.05151" lon="0.74404">
        <ele>1566.6</ele>
        <time>2022-05-23 12:32:32</time>
      </trkpt>
      <trkpt lat="42.05149" lon="0.74404">
        <ele>1566.8</ele>
        <time>2022-05-23 12:32:33</time>
      </trkpt>
      <trkpt lat="42.05147" lon="0.74404">
        <ele>1567</ele>
        <time>2022-05-23 12:32:34</time>
      </trkpt>
      <trkpt lat="42.05145" lon="0.74404">
        <ele>1567.2</ele>
        <time>2022-05-23 12:32:35</time>
      </trkpt>
      <trkpt lat="42.05143" lon="0.74405">
        <ele>1567.4</ele>
        <time>2022-05-23 12:32:36</time>
      </trkpt>
      <trkpt lat="42.05142" lon="0.74405">
        <ele>1567.8</ele>
        <time>2022-05-23 12:32:37</time>
      </trkpt>
      <trkpt lat="42.0514" lon="0.74405">
        <ele>1568</ele>
        <time>2022-05-23 12:32:38</time>
      </trkpt>
      <trkpt lat="42.05138" lon="0.74405">
        <ele>1568.4</ele>
        <time>2022-05-23 12:32:39</time>
      </trkpt>
      <trkpt lat="42.05136" lon="0.74405">
        <ele>1568.6</ele>
        <time>2022-05-23 12:32:40</time>
      </trkpt>
      <trkpt lat="42.05134" lon="0.74405">
        <ele>1569</ele>
        <time>2022-05-23 12:32:41</time>
      </trkpt>
      <trkpt lat="42.05132" lon="0.74406">
        <ele>1569.2</ele>
        <time>2022-05-23 12:32:42</time>
      </trkpt>
      <trkpt lat="42.0513" lon="0.74406">
        <ele>1569.4</ele>
        <time>2022-05-23 12:32:43</time>
      </trkpt>
      <trkpt lat="42.05128" lon="0.74406">
        <ele>1569.6</ele>
        <time>2022-05-23 12:32:44</time>
      </trkpt>
      <trkpt lat="42.05126" lon="0.74407">
        <ele>1570</ele>
        <time>2022-05-23 12:32:45</time>
      </trkpt>
      <trkpt lat="42.05125" lon="0.74407">
        <ele>1570.2</ele>
        <time>2022-05-23 12:32:46</time>
      </trkpt>
      <trkpt lat="42.05122" lon="0.74408">
        <ele>1570.4</ele>
        <time>2022-05-23 12:32:47</time>
      </trkpt>
      <trkpt lat="42.0512" lon="0.74408">
        <ele>1570.6</ele>
        <time>2022-05-23 12:32:48</time>
      </trkpt>
      <trkpt lat="42.05118" lon="0.74408">
        <ele>1570.8</ele>
        <time>2022-05-23 12:32:49</time>
      </trkpt>
      <trkpt lat="42.05117" lon="0.74408">
        <ele>1570.8</ele>
        <time>2022-05-23 12:32:50</time>
      </trkpt>
      <trkpt lat="42.05115" lon="0.74409">
        <ele>1571</ele>
        <time>2022-05-23 12:32:51</time>
      </trkpt>
      <trkpt lat="42.05113" lon="0.74409">
        <ele>1571.4</ele>
        <time>2022-05-23 12:32:52</time>
      </trkpt>
      <trkpt lat="42.05111" lon="0.74409">
        <ele>1571.4</ele>
        <time>2022-05-23 12:32:53</time>
      </trkpt>
      <trkpt lat="42.05109" lon="0.74409">
        <ele>1571.6</ele>
        <time>2022-05-23 12:32:54</time>
      </trkpt>
      <trkpt lat="42.05107" lon="0.74409">
        <ele>1571.8</ele>
        <time>2022-05-23 12:32:55</time>
      </trkpt>
      <trkpt lat="42.05106" lon="0.74409">
        <ele>1572</ele>
        <time>2022-05-23 12:32:56</time>
      </trkpt>
      <trkpt lat="42.05104" lon="0.74409">
        <ele>1572</ele>
        <time>2022-05-23 12:32:57</time>
      </trkpt>
      <trkpt lat="42.05103" lon="0.74409">
        <ele>1572.2</ele>
        <time>2022-05-23 12:32:58</time>
      </trkpt>
      <trkpt lat="42.05101" lon="0.74409">
        <ele>1572.4</ele>
        <time>2022-05-23 12:32:59</time>
      </trkpt>
      <trkpt lat="42.051" lon="0.7441">
        <ele>1572.4</ele>
        <time>2022-05-23 12:33:00</time>
      </trkpt>
      <trkpt lat="42.05098" lon="0.7441">
        <ele>1572.6</ele>
        <time>2022-05-23 12:33:01</time>
      </trkpt>
      <trkpt lat="42.05096" lon="0.74411">
        <ele>1572.6</ele>
        <time>2022-05-23 12:33:02</time>
      </trkpt>
      <trkpt lat="42.05095" lon="0.74411">
        <ele>1572.8</ele>
        <time>2022-05-23 12:33:03</time>
      </trkpt>
      <trkpt lat="42.05093" lon="0.74411">
        <ele>1573</ele>
        <time>2022-05-23 12:33:04</time>
      </trkpt>
      <trkpt lat="42.05091" lon="0.74412">
        <ele>1573</ele>
        <time>2022-05-23 12:33:05</time>
      </trkpt>
      <trkpt lat="42.05089" lon="0.74412">
        <ele>1573.2</ele>
        <time>2022-05-23 12:33:06</time>
      </trkpt>
      <trkpt lat="42.05088" lon="0.74412">
        <ele>1573.2</ele>
        <time>2022-05-23 12:33:07</time>
      </trkpt>
      <trkpt lat="42.05086" lon="0.74413">
        <ele>1573.4</ele>
        <time>2022-05-23 12:33:08</time>
      </trkpt>
      <trkpt lat="42.05085" lon="0.74413">
        <ele>1573.6</ele>
        <time>2022-05-23 12:33:09</time>
      </trkpt>
      <trkpt lat="42.05083" lon="0.74413">
        <ele>1573.8</ele>
        <time>2022-05-23 12:33:10</time>
      </trkpt>
      <trkpt lat="42.05081" lon="0.74414">
        <ele>1574</ele>
        <time>2022-05-23 12:33:11</time>
      </trkpt>
      <trkpt lat="42.05079" lon="0.74414">
        <ele>1574.2</ele>
        <time>2022-05-23 12:33:12</time>
      </trkpt>
      <trkpt lat="42.05077" lon="0.74414">
        <ele>1574.4</ele>
        <time>2022-05-23 12:33:13</time>
      </trkpt>
      <trkpt lat="42.05075" lon="0.74415">
        <ele>1574.6</ele>
        <time>2022-05-23 12:33:14</time>
      </trkpt>
      <trkpt lat="42.05074" lon="0.74415">
        <ele>1574.8</ele>
        <time>2022-05-23 12:33:15</time>
      </trkpt>
      <trkpt lat="42.05072" lon="0.74416">
        <ele>1575</ele>
        <time>2022-05-23 12:33:16</time>
      </trkpt>
      <trkpt lat="42.0507" lon="0.74416">
        <ele>1575.2</ele>
        <time>2022-05-23 12:33:17</time>
      </trkpt>
      <trkpt lat="42.05069" lon="0.74417">
        <ele>1575.4</ele>
        <time>2022-05-23 12:33:18</time>
      </trkpt>
      <trkpt lat="42.05067" lon="0.74417">
        <ele>1575.6</ele>
        <time>2022-05-23 12:33:19</time>
      </trkpt>
      <trkpt lat="42.05065" lon="0.74418">
        <ele>1575.8</ele>
        <time>2022-05-23 12:33:20</time>
      </trkpt>
      <trkpt lat="42.05064" lon="0.74419">
        <ele>1576</ele>
        <time>2022-05-23 12:33:21</time>
      </trkpt>
      <trkpt lat="42.05062" lon="0.74419">
        <ele>1576.2</ele>
        <time>2022-05-23 12:33:22</time>
      </trkpt>
      <trkpt lat="42.05061" lon="0.74419">
        <ele>1576.4</ele>
        <time>2022-05-23 12:33:23</time>
      </trkpt>
      <trkpt lat="42.05059" lon="0.7442">
        <ele>1576.6</ele>
        <time>2022-05-23 12:33:24</time>
      </trkpt>
      <trkpt lat="42.05057" lon="0.7442">
        <ele>1576.8</ele>
        <time>2022-05-23 12:33:25</time>
      </trkpt>
      <trkpt lat="42.05056" lon="0.74421">
        <ele>1577</ele>
        <time>2022-05-23 12:33:26</time>
      </trkpt>
      <trkpt lat="42.05054" lon="0.74421">
        <ele>1577</ele>
        <time>2022-05-23 12:33:27</time>
      </trkpt>
      <trkpt lat="42.05052" lon="0.74421">
        <ele>1577.2</ele>
        <time>2022-05-23 12:33:28</time>
      </trkpt>
      <trkpt lat="42.05051" lon="0.74422">
        <ele>1577.4</ele>
        <time>2022-05-23 12:33:29</time>
      </trkpt>
      <trkpt lat="42.05049" lon="0.74422">
        <ele>1577.4</ele>
        <time>2022-05-23 12:33:30</time>
      </trkpt>
      <trkpt lat="42.05048" lon="0.74422">
        <ele>1577.6</ele>
        <time>2022-05-23 12:33:31</time>
      </trkpt>
      <trkpt lat="42.05046" lon="0.74422">
        <ele>1577.8</ele>
        <time>2022-05-23 12:33:32</time>
      </trkpt>
      <trkpt lat="42.05045" lon="0.74423">
        <ele>1578</ele>
        <time>2022-05-23 12:33:33</time>
      </trkpt>
      <trkpt lat="42.05043" lon="0.74423">
        <ele>1578.2</ele>
        <time>2022-05-23 12:33:34</time>
      </trkpt>
      <trkpt lat="42.05041" lon="0.74423">
        <ele>1578.4</ele>
        <time>2022-05-23 12:33:35</time>
      </trkpt>
      <trkpt lat="42.0504" lon="0.74424">
        <ele>1578.6</ele>
        <time>2022-05-23 12:33:36</time>
      </trkpt>
      <trkpt lat="42.05038" lon="0.74424">
        <ele>1578.8</ele>
        <time>2022-05-23 12:33:37</time>
      </trkpt>
      <trkpt lat="42.05036" lon="0.74424">
        <ele>1579</ele>
        <time>2022-05-23 12:33:38</time>
      </trkpt>
      <trkpt lat="42.05034" lon="0.74424">
        <ele>1579.2</ele>
        <time>2022-05-23 12:33:39</time>
      </trkpt>
      <trkpt lat="42.05032" lon="0.74424">
        <ele>1579.4</ele>
        <time>2022-05-23 12:33:40</time>
      </trkpt>
      <trkpt lat="42.0503" lon="0.74425">
        <ele>1579.6</ele>
        <time>2022-05-23 12:33:41</time>
      </trkpt>
      <trkpt lat="42.05029" lon="0.74425">
        <ele>1579.8</ele>
        <time>2022-05-23 12:33:42</time>
      </trkpt>
      <trkpt lat="42.05027" lon="0.74426">
        <ele>1580</ele>
        <time>2022-05-23 12:33:43</time>
      </trkpt>
      <trkpt lat="42.05025" lon="0.74426">
        <ele>1580.2</ele>
        <time>2022-05-23 12:33:44</time>
      </trkpt>
      <trkpt lat="42.05023" lon="0.74426">
        <ele>1580.4</ele>
        <time>2022-05-23 12:33:45</time>
      </trkpt>
      <trkpt lat="42.05022" lon="0.74427">
        <ele>1580.6</ele>
        <time>2022-05-23 12:33:46</time>
      </trkpt>
      <trkpt lat="42.0502" lon="0.74427">
        <ele>1580.8</ele>
        <time>2022-05-23 12:33:47</time>
      </trkpt>
      <trkpt lat="42.05018" lon="0.74427">
        <ele>1581</ele>
        <time>2022-05-23 12:33:48</time>
      </trkpt>
      <trkpt lat="42.05016" lon="0.74427">
        <ele>1581</ele>
        <time>2022-05-23 12:33:49</time>
      </trkpt>
      <trkpt lat="42.05014" lon="0.74427">
        <ele>1581.2</ele>
        <time>2022-05-23 12:33:50</time>
      </trkpt>
      <trkpt lat="42.05013" lon="0.74428">
        <ele>1581.4</ele>
        <time>2022-05-23 12:33:51</time>
      </trkpt>
      <trkpt lat="42.05011" lon="0.74428">
        <ele>1581.6</ele>
        <time>2022-05-23 12:33:52</time>
      </trkpt>
      <trkpt lat="42.0501" lon="0.74428">
        <ele>1581.8</ele>
        <time>2022-05-23 12:33:53</time>
      </trkpt>
      <trkpt lat="42.05008" lon="0.74429">
        <ele>1582</ele>
        <time>2022-05-23 12:33:54</time>
      </trkpt>
      <trkpt lat="42.05006" lon="0.74429">
        <ele>1582.2</ele>
        <time>2022-05-23 12:33:55</time>
      </trkpt>
      <trkpt lat="42.05005" lon="0.7443">
        <ele>1582.4</ele>
        <time>2022-05-23 12:33:56</time>
      </trkpt>
      <trkpt lat="42.05003" lon="0.7443">
        <ele>1582.4</ele>
        <time>2022-05-23 12:33:57</time>
      </trkpt>
      <trkpt lat="42.05001" lon="0.7443">
        <ele>1582.6</ele>
        <time>2022-05-23 12:33:58</time>
      </trkpt>
      <trkpt lat="42.05" lon="0.74431">
        <ele>1582.8</ele>
        <time>2022-05-23 12:33:59</time>
      </trkpt>
      <trkpt lat="42.04998" lon="0.74431">
        <ele>1583</ele>
        <time>2022-05-23 12:34:00</time>
      </trkpt>
      <trkpt lat="42.04996" lon="0.74432">
        <ele>1583.2</ele>
        <time>2022-05-23 12:34:01</time>
      </trkpt>
      <trkpt lat="42.04995" lon="0.74432">
        <ele>1583.4</ele>
        <time>2022-05-23 12:34:02</time>
      </trkpt>
      <trkpt lat="42.04993" lon="0.74432">
        <ele>1583.6</ele>
        <time>2022-05-23 12:34:03</time>
      </trkpt>
      <trkpt lat="42.04991" lon="0.74433">
        <ele>1583.8</ele>
        <time>2022-05-23 12:34:04</time>
      </trkpt>
      <trkpt lat="42.0499" lon="0.74433">
        <ele>1583.8</ele>
        <time>2022-05-23 12:34:05</time>
      </trkpt>
      <trkpt lat="42.04988" lon="0.74433">
        <ele>1584</ele>
        <time>2022-05-23 12:34:06</time>
      </trkpt>
      <trkpt lat="42.04987" lon="0.74433">
        <ele>1584</ele>
        <time>2022-05-23 12:34:07</time>
      </trkpt>
      <trkpt lat="42.04985" lon="0.74433">
        <ele>1584.2</ele>
        <time>2022-05-23 12:34:08</time>
      </trkpt>
      <trkpt lat="42.04983" lon="0.74433">
        <ele>1584.4</ele>
        <time>2022-05-23 12:34:09</time>
      </trkpt>
      <trkpt lat="42.04982" lon="0.74434">
        <ele>1584.6</ele>
        <time>2022-05-23 12:34:10</time>
      </trkpt>
      <trkpt lat="42.04981" lon="0.74435">
        <ele>1584.8</ele>
        <time>2022-05-23 12:34:11</time>
      </trkpt>
      <trkpt lat="42.0498" lon="0.74435">
        <ele>1585</ele>
        <time>2022-05-23 12:34:12</time>
      </trkpt>
      <trkpt lat="42.04978" lon="0.74435">
        <ele>1585.2</ele>
        <time>2022-05-23 12:34:13</time>
      </trkpt>
      <trkpt lat="42.04976" lon="0.74435">
        <ele>1585.4</ele>
        <time>2022-05-23 12:34:14</time>
      </trkpt>
      <trkpt lat="42.04974" lon="0.74434">
        <ele>1585.4</ele>
        <time>2022-05-23 12:34:15</time>
      </trkpt>
      <trkpt lat="42.04972" lon="0.74436">
        <ele>1585.6</ele>
        <time>2022-05-23 12:34:16</time>
      </trkpt>
      <trkpt lat="42.04969" lon="0.74437">
        <ele>1585.8</ele>
        <time>2022-05-23 12:34:17</time>
      </trkpt>
      <trkpt lat="42.04967" lon="0.74437">
        <ele>1586</ele>
        <time>2022-05-23 12:34:18</time>
      </trkpt>
      <trkpt lat="42.04966" lon="0.74438">
        <ele>1586</ele>
        <time>2022-05-23 12:34:19</time>
      </trkpt>
      <trkpt lat="42.04964" lon="0.74439">
        <ele>1586.2</ele>
        <time>2022-05-23 12:34:20</time>
      </trkpt>
      <trkpt lat="42.04964" lon="0.7444">
        <ele>1586.4</ele>
        <time>2022-05-23 12:34:21</time>
      </trkpt>
      <trkpt lat="42.04962" lon="0.74441">
        <ele>1586.6</ele>
        <time>2022-05-23 12:34:22</time>
      </trkpt>
      <trkpt lat="42.04961" lon="0.74441">
        <ele>1586.6</ele>
        <time>2022-05-23 12:34:23</time>
      </trkpt>
      <trkpt lat="42.04959" lon="0.7444">
        <ele>1586.8</ele>
        <time>2022-05-23 12:34:24</time>
      </trkpt>
      <trkpt lat="42.04957" lon="0.74439">
        <ele>1587</ele>
        <time>2022-05-23 12:34:25</time>
      </trkpt>
      <trkpt lat="42.04955" lon="0.7444">
        <ele>1587.2</ele>
        <time>2022-05-23 12:34:26</time>
      </trkpt>
      <trkpt lat="42.04954" lon="0.74441">
        <ele>1587.4</ele>
        <time>2022-05-23 12:34:27</time>
      </trkpt>
      <trkpt lat="42.04952" lon="0.74442">
        <ele>1587.4</ele>
        <time>2022-05-23 12:34:28</time>
      </trkpt>
      <trkpt lat="42.0495" lon="0.74444">
        <ele>1587.6</ele>
        <time>2022-05-23 12:34:29</time>
      </trkpt>
      <trkpt lat="42.04949" lon="0.74445">
        <ele>1587.8</ele>
        <time>2022-05-23 12:34:30</time>
      </trkpt>
      <trkpt lat="42.04947" lon="0.74446">
        <ele>1588</ele>
        <time>2022-05-23 12:34:31</time>
      </trkpt>
      <trkpt lat="42.04945" lon="0.74447">
        <ele>1588</ele>
        <time>2022-05-23 12:34:32</time>
      </trkpt>
      <trkpt lat="42.04944" lon="0.74448">
        <ele>1588</ele>
        <time>2022-05-23 12:34:33</time>
      </trkpt>
      <trkpt lat="42.04942" lon="0.74448">
        <ele>1588.2</ele>
        <time>2022-05-23 12:34:34</time>
      </trkpt>
      <trkpt lat="42.04941" lon="0.74449">
        <ele>1588.2</ele>
        <time>2022-05-23 12:34:35</time>
      </trkpt>
      <trkpt lat="42.04939" lon="0.74449">
        <ele>1588.4</ele>
        <time>2022-05-23 12:34:36</time>
      </trkpt>
      <trkpt lat="42.04938" lon="0.7445">
        <ele>1588.6</ele>
        <time>2022-05-23 12:34:37</time>
      </trkpt>
      <trkpt lat="42.04937" lon="0.74451">
        <ele>1588.8</ele>
        <time>2022-05-23 12:34:38</time>
      </trkpt>
      <trkpt lat="42.04935" lon="0.74452">
        <ele>1589</ele>
        <time>2022-05-23 12:34:39</time>
      </trkpt>
      <trkpt lat="42.04933" lon="0.74452">
        <ele>1589</ele>
        <time>2022-05-23 12:34:40</time>
      </trkpt>
      <trkpt lat="42.04932" lon="0.74453">
        <ele>1589.2</ele>
        <time>2022-05-23 12:34:41</time>
      </trkpt>
      <trkpt lat="42.04931" lon="0.74453">
        <ele>1589.4</ele>
        <time>2022-05-23 12:34:42</time>
      </trkpt>
      <trkpt lat="42.04929" lon="0.74454">
        <ele>1589.6</ele>
        <time>2022-05-23 12:34:43</time>
      </trkpt>
      <trkpt lat="42.04928" lon="0.74454">
        <ele>1589.8</ele>
        <time>2022-05-23 12:34:44</time>
      </trkpt>
      <trkpt lat="42.04927" lon="0.74454">
        <ele>1590</ele>
        <time>2022-05-23 12:34:45</time>
      </trkpt>
      <trkpt lat="42.04925" lon="0.74455">
        <ele>1590.2</ele>
        <time>2022-05-23 12:34:46</time>
      </trkpt>
      <trkpt lat="42.04924" lon="0.74455">
        <ele>1590.4</ele>
        <time>2022-05-23 12:34:47</time>
      </trkpt>
      <trkpt lat="42.04922" lon="0.74456">
        <ele>1590.4</ele>
        <time>2022-05-23 12:34:48</time>
      </trkpt>
      <trkpt lat="42.04921" lon="0.74456">
        <ele>1590.6</ele>
        <time>2022-05-23 12:34:49</time>
      </trkpt>
      <trkpt lat="42.04919" lon="0.74457">
        <ele>1590.6</ele>
        <time>2022-05-23 12:34:50</time>
      </trkpt>
      <trkpt lat="42.04918" lon="0.74458">
        <ele>1590.6</ele>
        <time>2022-05-23 12:34:51</time>
      </trkpt>
      <trkpt lat="42.04916" lon="0.74458">
        <ele>1590.8</ele>
        <time>2022-05-23 12:34:52</time>
      </trkpt>
      <trkpt lat="42.04915" lon="0.74459">
        <ele>1590.8</ele>
        <time>2022-05-23 12:34:53</time>
      </trkpt>
      <trkpt lat="42.04913" lon="0.74458">
        <ele>1590.8</ele>
        <time>2022-05-23 12:34:54</time>
      </trkpt>
      <trkpt lat="42.04912" lon="0.74458">
        <ele>1591</ele>
        <time>2022-05-23 12:34:55</time>
      </trkpt>
      <trkpt lat="42.0491" lon="0.74457">
        <ele>1591.2</ele>
        <time>2022-05-23 12:34:56</time>
      </trkpt>
      <trkpt lat="42.04908" lon="0.74456">
        <ele>1591.4</ele>
        <time>2022-05-23 12:34:57</time>
      </trkpt>
      <trkpt lat="42.04907" lon="0.74455">
        <ele>1591.6</ele>
        <time>2022-05-23 12:34:58</time>
      </trkpt>
      <trkpt lat="42.04906" lon="0.74453">
        <ele>1591.8</ele>
        <time>2022-05-23 12:34:59</time>
      </trkpt>
      <trkpt lat="42.04905" lon="0.74451">
        <ele>1591.8</ele>
        <time>2022-05-23 12:35:00</time>
      </trkpt>
      <trkpt lat="42.04904" lon="0.7445">
        <ele>1591.8</ele>
        <time>2022-05-23 12:35:01</time>
      </trkpt>
      <trkpt lat="42.04903" lon="0.74447">
        <ele>1592</ele>
        <time>2022-05-23 12:35:02</time>
      </trkpt>
      <trkpt lat="42.04901" lon="0.74445">
        <ele>1592.2</ele>
        <time>2022-05-23 12:35:03</time>
      </trkpt>
      <trkpt lat="42.049" lon="0.74443">
        <ele>1592.4</ele>
        <time>2022-05-23 12:35:04</time>
      </trkpt>
      <trkpt lat="42.049" lon="0.74441">
        <ele>1592.6</ele>
        <time>2022-05-23 12:35:05</time>
      </trkpt>
      <trkpt lat="42.049" lon="0.7444">
        <ele>1593</ele>
        <time>2022-05-23 12:35:06</time>
      </trkpt>
      <trkpt lat="42.049" lon="0.74438">
        <ele>1593.2</ele>
        <time>2022-05-23 12:35:07</time>
      </trkpt>
      <trkpt lat="42.049" lon="0.74435">
        <ele>1593.2</ele>
        <time>2022-05-23 12:35:08</time>
      </trkpt>
      <trkpt lat="42.049" lon="0.74434">
        <ele>1593.4</ele>
        <time>2022-05-23 12:35:09</time>
      </trkpt>
      <trkpt lat="42.049" lon="0.74431">
        <ele>1593.6</ele>
        <time>2022-05-23 12:35:10</time>
      </trkpt>
      <trkpt lat="42.049" lon="0.74429">
        <ele>1593.8</ele>
        <time>2022-05-23 12:35:11</time>
      </trkpt>
      <trkpt lat="42.049" lon="0.74426">
        <ele>1594</ele>
        <time>2022-05-23 12:35:12</time>
      </trkpt>
      <trkpt lat="42.049" lon="0.74424">
        <ele>1594.2</ele>
        <time>2022-05-23 12:35:13</time>
      </trkpt>
      <trkpt lat="42.04899" lon="0.74422">
        <ele>1594.4</ele>
        <time>2022-05-23 12:35:14</time>
      </trkpt>
      <trkpt lat="42.04899" lon="0.74419">
        <ele>1594.6</ele>
        <time>2022-05-23 12:35:15</time>
      </trkpt>
      <trkpt lat="42.04898" lon="0.74417">
        <ele>1594.6</ele>
        <time>2022-05-23 12:35:16</time>
      </trkpt>
      <trkpt lat="42.04898" lon="0.74415">
        <ele>1594.8</ele>
        <time>2022-05-23 12:35:17</time>
      </trkpt>
      <trkpt lat="42.04898" lon="0.74413">
        <ele>1595</ele>
        <time>2022-05-23 12:35:18</time>
      </trkpt>
      <trkpt lat="42.04897" lon="0.74411">
        <ele>1595.2</ele>
        <time>2022-05-23 12:35:19</time>
      </trkpt>
      <trkpt lat="42.04896" lon="0.74409">
        <ele>1595.4</ele>
        <time>2022-05-23 12:35:20</time>
      </trkpt>
      <trkpt lat="42.04895" lon="0.74406">
        <ele>1595.4</ele>
        <time>2022-05-23 12:35:21</time>
      </trkpt>
      <trkpt lat="42.04895" lon="0.74404">
        <ele>1595.6</ele>
        <time>2022-05-23 12:35:22</time>
      </trkpt>
      <trkpt lat="42.04894" lon="0.74401">
        <ele>1595.6</ele>
        <time>2022-05-23 12:35:23</time>
      </trkpt>
      <trkpt lat="42.04893" lon="0.74399">
        <ele>1595.8</ele>
        <time>2022-05-23 12:35:24</time>
      </trkpt>
      <trkpt lat="42.04893" lon="0.74396">
        <ele>1596</ele>
        <time>2022-05-23 12:35:25</time>
      </trkpt>
      <trkpt lat="42.04893" lon="0.74394">
        <ele>1596.2</ele>
        <time>2022-05-23 12:35:26</time>
      </trkpt>
      <trkpt lat="42.04892" lon="0.74391">
        <ele>1596.2</ele>
        <time>2022-05-23 12:35:27</time>
      </trkpt>
      <trkpt lat="42.04891" lon="0.74389">
        <ele>1596.4</ele>
        <time>2022-05-23 12:35:28</time>
      </trkpt>
      <trkpt lat="42.04891" lon="0.74386">
        <ele>1596.6</ele>
        <time>2022-05-23 12:35:29</time>
      </trkpt>
      <trkpt lat="42.0489" lon="0.74384">
        <ele>1596.8</ele>
        <time>2022-05-23 12:35:30</time>
      </trkpt>
      <trkpt lat="42.04889" lon="0.74381">
        <ele>1597</ele>
        <time>2022-05-23 12:35:31</time>
      </trkpt>
      <trkpt lat="42.04888" lon="0.74379">
        <ele>1597.2</ele>
        <time>2022-05-23 12:35:32</time>
      </trkpt>
      <trkpt lat="42.04888" lon="0.74377">
        <ele>1597.4</ele>
        <time>2022-05-23 12:35:33</time>
      </trkpt>
      <trkpt lat="42.04887" lon="0.74375">
        <ele>1597.4</ele>
        <time>2022-05-23 12:35:34</time>
      </trkpt>
      <trkpt lat="42.04887" lon="0.74373">
        <ele>1597.6</ele>
        <time>2022-05-23 12:35:35</time>
      </trkpt>
      <trkpt lat="42.04885" lon="0.74371">
        <ele>1597.8</ele>
        <time>2022-05-23 12:35:36</time>
      </trkpt>
      <trkpt lat="42.04885" lon="0.74369">
        <ele>1598</ele>
        <time>2022-05-23 12:35:37</time>
      </trkpt>
      <trkpt lat="42.04884" lon="0.74368">
        <ele>1598.2</ele>
        <time>2022-05-23 12:35:38</time>
      </trkpt>
      <trkpt lat="42.04883" lon="0.74366">
        <ele>1598.2</ele>
        <time>2022-05-23 12:35:39</time>
      </trkpt>
      <trkpt lat="42.04882" lon="0.74364">
        <ele>1598.4</ele>
        <time>2022-05-23 12:35:40</time>
      </trkpt>
      <trkpt lat="42.04882" lon="0.74362">
        <ele>1598.6</ele>
        <time>2022-05-23 12:35:41</time>
      </trkpt>
      <trkpt lat="42.04881" lon="0.7436">
        <ele>1598.8</ele>
        <time>2022-05-23 12:35:42</time>
      </trkpt>
      <trkpt lat="42.0488" lon="0.74358">
        <ele>1598.8</ele>
        <time>2022-05-23 12:35:43</time>
      </trkpt>
      <trkpt lat="42.04879" lon="0.74356">
        <ele>1599</ele>
        <time>2022-05-23 12:35:44</time>
      </trkpt>
      <trkpt lat="42.04878" lon="0.74354">
        <ele>1599.2</ele>
        <time>2022-05-23 12:35:45</time>
      </trkpt>
      <trkpt lat="42.04877" lon="0.74353">
        <ele>1599.4</ele>
        <time>2022-05-23 12:35:46</time>
      </trkpt>
      <trkpt lat="42.04876" lon="0.7435">
        <ele>1599.6</ele>
        <time>2022-05-23 12:35:47</time>
      </trkpt>
      <trkpt lat="42.04876" lon="0.74348">
        <ele>1600</ele>
        <time>2022-05-23 12:35:48</time>
      </trkpt>
      <trkpt lat="42.04875" lon="0.74346">
        <ele>1600.2</ele>
        <time>2022-05-23 12:35:49</time>
      </trkpt>
      <trkpt lat="42.04874" lon="0.74344">
        <ele>1600.2</ele>
        <time>2022-05-23 12:35:50</time>
      </trkpt>
      <trkpt lat="42.04873" lon="0.74341">
        <ele>1600.4</ele>
        <time>2022-05-23 12:35:51</time>
      </trkpt>
      <trkpt lat="42.04872" lon="0.74339">
        <ele>1600.6</ele>
        <time>2022-05-23 12:35:52</time>
      </trkpt>
      <trkpt lat="42.04872" lon="0.74338">
        <ele>1600.8</ele>
        <time>2022-05-23 12:35:53</time>
      </trkpt>
      <trkpt lat="42.04871" lon="0.74334">
        <ele>1600.8</ele>
        <time>2022-05-23 12:35:54</time>
      </trkpt>
      <trkpt lat="42.0487" lon="0.74332">
        <ele>1600.8</ele>
        <time>2022-05-23 12:35:55</time>
      </trkpt>
      <trkpt lat="42.0487" lon="0.74329">
        <ele>1601</ele>
        <time>2022-05-23 12:35:56</time>
      </trkpt>
      <trkpt lat="42.04869" lon="0.74326">
        <ele>1601.2</ele>
        <time>2022-05-23 12:35:57</time>
      </trkpt>
      <trkpt lat="42.04868" lon="0.74323">
        <ele>1601.4</ele>
        <time>2022-05-23 12:35:58</time>
      </trkpt>
      <trkpt lat="42.04867" lon="0.7432">
        <ele>1601.6</ele>
        <time>2022-05-23 12:35:59</time>
      </trkpt>
      <trkpt lat="42.04866" lon="0.74317">
        <ele>1601.8</ele>
        <time>2022-05-23 12:36:00</time>
      </trkpt>
      <trkpt lat="42.04865" lon="0.74313">
        <ele>1602</ele>
        <time>2022-05-23 12:36:01</time>
      </trkpt>
      <trkpt lat="42.04864" lon="0.74312">
        <ele>1602.2</ele>
        <time>2022-05-23 12:36:02</time>
      </trkpt>
      <trkpt lat="42.04863" lon="0.74309">
        <ele>1602.2</ele>
        <time>2022-05-23 12:36:03</time>
      </trkpt>
      <trkpt lat="42.04862" lon="0.74306">
        <ele>1602.4</ele>
        <time>2022-05-23 12:36:04</time>
      </trkpt>
      <trkpt lat="42.04861" lon="0.74303">
        <ele>1602.6</ele>
        <time>2022-05-23 12:36:05</time>
      </trkpt>
      <trkpt lat="42.04861" lon="0.743">
        <ele>1602.6</ele>
        <time>2022-05-23 12:36:06</time>
      </trkpt>
      <trkpt lat="42.0486" lon="0.74298">
        <ele>1602.8</ele>
        <time>2022-05-23 12:36:07</time>
      </trkpt>
      <trkpt lat="42.04859" lon="0.74296">
        <ele>1602.8</ele>
        <time>2022-05-23 12:36:08</time>
      </trkpt>
      <trkpt lat="42.04858" lon="0.74293">
        <ele>1603</ele>
        <time>2022-05-23 12:36:09</time>
      </trkpt>
      <trkpt lat="42.04857" lon="0.7429">
        <ele>1603</ele>
        <time>2022-05-23 12:36:10</time>
      </trkpt>
      <trkpt lat="42.04855" lon="0.74287">
        <ele>1603.4</ele>
        <time>2022-05-23 12:36:11</time>
      </trkpt>
      <trkpt lat="42.04854" lon="0.74285">
        <ele>1603.4</ele>
        <time>2022-05-23 12:36:12</time>
      </trkpt>
      <trkpt lat="42.04853" lon="0.74282">
        <ele>1603.6</ele>
        <time>2022-05-23 12:36:13</time>
      </trkpt>
      <trkpt lat="42.04852" lon="0.74281">
        <ele>1603.8</ele>
        <time>2022-05-23 12:36:14</time>
      </trkpt>
      <trkpt lat="42.0485" lon="0.74278">
        <ele>1604.2</ele>
        <time>2022-05-23 12:36:15</time>
      </trkpt>
      <trkpt lat="42.0485" lon="0.74276">
        <ele>1604.4</ele>
        <time>2022-05-23 12:36:16</time>
      </trkpt>
      <trkpt lat="42.04849" lon="0.74275">
        <ele>1604.6</ele>
        <time>2022-05-23 12:36:17</time>
      </trkpt>
      <trkpt lat="42.04847" lon="0.74274">
        <ele>1604.6</ele>
        <time>2022-05-23 12:36:18</time>
      </trkpt>
      <trkpt lat="42.04846" lon="0.74274">
        <ele>1604.8</ele>
        <time>2022-05-23 12:36:19</time>
      </trkpt>
      <trkpt lat="42.04845" lon="0.74273">
        <ele>1604.8</ele>
        <time>2022-05-23 12:36:20</time>
      </trkpt>
      <trkpt lat="42.04842" lon="0.74273">
        <ele>1604.8</ele>
        <time>2022-05-23 12:36:21</time>
      </trkpt>
      <trkpt lat="42.0484" lon="0.74273">
        <ele>1604.8</ele>
        <time>2022-05-23 12:36:22</time>
      </trkpt>
      <trkpt lat="42.04838" lon="0.74273">
        <ele>1604.8</ele>
        <time>2022-05-23 12:36:23</time>
      </trkpt>
      <trkpt lat="42.04835" lon="0.74274">
        <ele>1604.6</ele>
        <time>2022-05-23 12:36:24</time>
      </trkpt>
      <trkpt lat="42.04834" lon="0.74275">
        <ele>1604.6</ele>
        <time>2022-05-23 12:36:25</time>
      </trkpt>
      <trkpt lat="42.0483" lon="0.74274">
        <ele>1604.6</ele>
        <time>2022-05-23 12:36:26</time>
      </trkpt>
      <trkpt lat="42.04827" lon="0.74273">
        <ele>1604.6</ele>
        <time>2022-05-23 12:36:27</time>
      </trkpt>
      <trkpt lat="42.04825" lon="0.74273">
        <ele>1604.6</ele>
        <time>2022-05-23 12:36:28</time>
      </trkpt>
      <trkpt lat="42.04822" lon="0.74272">
        <ele>1604.6</ele>
        <time>2022-05-23 12:36:29</time>
      </trkpt>
      <trkpt lat="42.04819" lon="0.74271">
        <ele>1604.6</ele>
        <time>2022-05-23 12:36:30</time>
      </trkpt>
      <trkpt lat="42.04816" lon="0.74271">
        <ele>1604.6</ele>
        <time>2022-05-23 12:36:31</time>
      </trkpt>
      <trkpt lat="42.04815" lon="0.74269">
        <ele>1604.6</ele>
        <time>2022-05-23 12:36:32</time>
      </trkpt>
      <trkpt lat="42.04814" lon="0.74265">
        <ele>1604.6</ele>
        <time>2022-05-23 12:36:33</time>
      </trkpt>
      <trkpt lat="42.04813" lon="0.7426">
        <ele>1604.6</ele>
        <time>2022-05-23 12:36:34</time>
      </trkpt>
      <trkpt lat="42.04811" lon="0.74255">
        <ele>1604.6</ele>
        <time>2022-05-23 12:36:35</time>
      </trkpt>
      <trkpt lat="42.04811" lon="0.74251">
        <ele>1604.8</ele>
        <time>2022-05-23 12:36:36</time>
      </trkpt>
      <trkpt lat="42.04811" lon="0.74244">
        <ele>1604.6</ele>
        <time>2022-05-23 12:36:37</time>
      </trkpt>
      <trkpt lat="42.04811" lon="0.74239">
        <ele>1604.6</ele>
        <time>2022-05-23 12:36:38</time>
      </trkpt>
      <trkpt lat="42.04811" lon="0.74233">
        <ele>1604.4</ele>
        <time>2022-05-23 12:36:39</time>
      </trkpt>
      <trkpt lat="42.04811" lon="0.74226">
        <ele>1604.2</ele>
        <time>2022-05-23 12:36:40</time>
      </trkpt>
      <trkpt lat="42.04811" lon="0.74222">
        <ele>1604</ele>
        <time>2022-05-23 12:36:41</time>
      </trkpt>
      <trkpt lat="42.04811" lon="0.74215">
        <ele>1604</ele>
        <time>2022-05-23 12:36:42</time>
      </trkpt>
      <trkpt lat="42.04811" lon="0.74209">
        <ele>1603.8</ele>
        <time>2022-05-23 12:36:43</time>
      </trkpt>
      <trkpt lat="42.0481" lon="0.74205">
        <ele>1603.6</ele>
        <time>2022-05-23 12:36:44</time>
      </trkpt>
      <trkpt lat="42.0481" lon="0.74199">
        <ele>1603.4</ele>
        <time>2022-05-23 12:36:45</time>
      </trkpt>
      <trkpt lat="42.04808" lon="0.74194">
        <ele>1603.2</ele>
        <time>2022-05-23 12:36:46</time>
      </trkpt>
      <trkpt lat="42.04805" lon="0.74192">
        <ele>1603</ele>
        <time>2022-05-23 12:36:47</time>
      </trkpt>
      <trkpt lat="42.048" lon="0.74191">
        <ele>1603</ele>
        <time>2022-05-23 12:36:48</time>
      </trkpt>
      <trkpt lat="42.04796" lon="0.74192">
        <ele>1602.8</ele>
        <time>2022-05-23 12:36:49</time>
      </trkpt>
      <trkpt lat="42.04794" lon="0.74195">
        <ele>1602.6</ele>
        <time>2022-05-23 12:36:50</time>
      </trkpt>
      <trkpt lat="42.04791" lon="0.742">
        <ele>1602.4</ele>
        <time>2022-05-23 12:36:51</time>
      </trkpt>
      <trkpt lat="42.04791" lon="0.74206">
        <ele>1602.2</ele>
        <time>2022-05-23 12:36:52</time>
      </trkpt>
      <trkpt lat="42.0479" lon="0.74212">
        <ele>1602</ele>
        <time>2022-05-23 12:36:53</time>
      </trkpt>
      <trkpt lat="42.0479" lon="0.74221">
        <ele>1601.8</ele>
        <time>2022-05-23 12:36:54</time>
      </trkpt>
      <trkpt lat="42.0479" lon="0.74228">
        <ele>1601.2</ele>
        <time>2022-05-23 12:36:55</time>
      </trkpt>
      <trkpt lat="42.04789" lon="0.74239">
        <ele>1600.8</ele>
        <time>2022-05-23 12:36:56</time>
      </trkpt>
      <trkpt lat="42.04788" lon="0.74246">
        <ele>1600.2</ele>
        <time>2022-05-23 12:36:57</time>
      </trkpt>
      <trkpt lat="42.04786" lon="0.74257">
        <ele>1599.8</ele>
        <time>2022-05-23 12:36:58</time>
      </trkpt>
      <trkpt lat="42.04784" lon="0.74265">
        <ele>1599.2</ele>
        <time>2022-05-23 12:36:59</time>
      </trkpt>
      <trkpt lat="42.04781" lon="0.74275">
        <ele>1598.6</ele>
        <time>2022-05-23 12:37:00</time>
      </trkpt>
      <trkpt lat="42.04778" lon="0.74282">
        <ele>1598</ele>
        <time>2022-05-23 12:37:01</time>
      </trkpt>
      <trkpt lat="42.04773" lon="0.74293">
        <ele>1597.4</ele>
        <time>2022-05-23 12:37:02</time>
      </trkpt>
      <trkpt lat="42.04769" lon="0.743">
        <ele>1596.8</ele>
        <time>2022-05-23 12:37:03</time>
      </trkpt>
      <trkpt lat="42.04765" lon="0.7431">
        <ele>1596.2</ele>
        <time>2022-05-23 12:37:04</time>
      </trkpt>
      <trkpt lat="42.04761" lon="0.74317">
        <ele>1595.6</ele>
        <time>2022-05-23 12:37:05</time>
      </trkpt>
      <trkpt lat="42.04755" lon="0.74327">
        <ele>1595</ele>
        <time>2022-05-23 12:37:06</time>
      </trkpt>
      <trkpt lat="42.0475" lon="0.74333">
        <ele>1594.4</ele>
        <time>2022-05-23 12:37:07</time>
      </trkpt>
      <trkpt lat="42.04743" lon="0.74342">
        <ele>1593.8</ele>
        <time>2022-05-23 12:37:08</time>
      </trkpt>
      <trkpt lat="42.04738" lon="0.74348">
        <ele>1593.2</ele>
        <time>2022-05-23 12:37:09</time>
      </trkpt>
      <trkpt lat="42.0473" lon="0.74357">
        <ele>1592.6</ele>
        <time>2022-05-23 12:37:10</time>
      </trkpt>
      <trkpt lat="42.04725" lon="0.74363">
        <ele>1592</ele>
        <time>2022-05-23 12:37:11</time>
      </trkpt>
      <trkpt lat="42.04718" lon="0.74372">
        <ele>1591.4</ele>
        <time>2022-05-23 12:37:12</time>
      </trkpt>
      <trkpt lat="42.04712" lon="0.74377">
        <ele>1590.8</ele>
        <time>2022-05-23 12:37:13</time>
      </trkpt>
      <trkpt lat="42.04705" lon="0.74385">
        <ele>1590.4</ele>
        <time>2022-05-23 12:37:14</time>
      </trkpt>
      <trkpt lat="42.04698" lon="0.7439">
        <ele>1589.8</ele>
        <time>2022-05-23 12:37:15</time>
      </trkpt>
      <trkpt lat="42.04692" lon="0.74397">
        <ele>1589.2</ele>
        <time>2022-05-23 12:37:16</time>
      </trkpt>
      <trkpt lat="42.04688" lon="0.74401">
        <ele>1588.8</ele>
        <time>2022-05-23 12:37:17</time>
      </trkpt>
      <trkpt lat="42.04682" lon="0.74408">
        <ele>1588.2</ele>
        <time>2022-05-23 12:37:18</time>
      </trkpt>
      <trkpt lat="42.04679" lon="0.74412">
        <ele>1587.8</ele>
        <time>2022-05-23 12:37:19</time>
      </trkpt>
      <trkpt lat="42.04674" lon="0.74416">
        <ele>1587.4</ele>
        <time>2022-05-23 12:37:20</time>
      </trkpt>
      <trkpt lat="42.0467" lon="0.74418">
        <ele>1587.2</ele>
        <time>2022-05-23 12:37:21</time>
      </trkpt>
      <trkpt lat="42.04665" lon="0.74418">
        <ele>1586.8</ele>
        <time>2022-05-23 12:37:22</time>
      </trkpt>
      <trkpt lat="42.04662" lon="0.74416">
        <ele>1586.6</ele>
        <time>2022-05-23 12:37:23</time>
      </trkpt>
      <trkpt lat="42.04659" lon="0.74413">
        <ele>1586.4</ele>
        <time>2022-05-23 12:37:24</time>
      </trkpt>
      <trkpt lat="42.04658" lon="0.74409">
        <ele>1586.2</ele>
        <time>2022-05-23 12:37:25</time>
      </trkpt>
      <trkpt lat="42.04659" lon="0.74404">
        <ele>1585.8</ele>
        <time>2022-05-23 12:37:26</time>
      </trkpt>
      <trkpt lat="42.04662" lon="0.744">
        <ele>1585.6</ele>
        <time>2022-05-23 12:37:27</time>
      </trkpt>
      <trkpt lat="42.04666" lon="0.74397">
        <ele>1585.4</ele>
        <time>2022-05-23 12:37:28</time>
      </trkpt>
      <trkpt lat="42.0467" lon="0.74393">
        <ele>1585.2</ele>
        <time>2022-05-23 12:37:29</time>
      </trkpt>
      <trkpt lat="42.04673" lon="0.7439">
        <ele>1584.8</ele>
        <time>2022-05-23 12:37:30</time>
      </trkpt>
      <trkpt lat="42.04678" lon="0.74384">
        <ele>1584.4</ele>
        <time>2022-05-23 12:37:31</time>
      </trkpt>
      <trkpt lat="42.04682" lon="0.74379">
        <ele>1584</ele>
        <time>2022-05-23 12:37:32</time>
      </trkpt>
      <trkpt lat="42.04685" lon="0.74372">
        <ele>1583.6</ele>
        <time>2022-05-23 12:37:33</time>
      </trkpt>
      <trkpt lat="42.04687" lon="0.74367">
        <ele>1583.2</ele>
        <time>2022-05-23 12:37:34</time>
      </trkpt>
      <trkpt lat="42.04691" lon="0.74359">
        <ele>1582.8</ele>
        <time>2022-05-23 12:37:35</time>
      </trkpt>
      <trkpt lat="42.04694" lon="0.74354">
        <ele>1582.4</ele>
        <time>2022-05-23 12:37:36</time>
      </trkpt>
      <trkpt lat="42.04697" lon="0.74345">
        <ele>1581.8</ele>
        <time>2022-05-23 12:37:37</time>
      </trkpt>
      <trkpt lat="42.04699" lon="0.74339">
        <ele>1581.4</ele>
        <time>2022-05-23 12:37:38</time>
      </trkpt>
      <trkpt lat="42.04701" lon="0.74329">
        <ele>1580.8</ele>
        <time>2022-05-23 12:37:39</time>
      </trkpt>
      <trkpt lat="42.04702" lon="0.74323">
        <ele>1580.6</ele>
        <time>2022-05-23 12:37:40</time>
      </trkpt>
      <trkpt lat="42.04703" lon="0.74313">
        <ele>1579.8</ele>
        <time>2022-05-23 12:37:41</time>
      </trkpt>
      <trkpt lat="42.04704" lon="0.74305">
        <ele>1579.2</ele>
        <time>2022-05-23 12:37:42</time>
      </trkpt>
      <trkpt lat="42.04705" lon="0.74295">
        <ele>1578.6</ele>
        <time>2022-05-23 12:37:43</time>
      </trkpt>
      <trkpt lat="42.04706" lon="0.74288">
        <ele>1577.8</ele>
        <time>2022-05-23 12:37:44</time>
      </trkpt>
      <trkpt lat="42.04707" lon="0.74279">
        <ele>1577.2</ele>
        <time>2022-05-23 12:37:45</time>
      </trkpt>
      <trkpt lat="42.04708" lon="0.74271">
        <ele>1576.6</ele>
        <time>2022-05-23 12:37:46</time>
      </trkpt>
      <trkpt lat="42.0471" lon="0.74261">
        <ele>1576</ele>
        <time>2022-05-23 12:37:47</time>
      </trkpt>
      <trkpt lat="42.04711" lon="0.74253">
        <ele>1575.4</ele>
        <time>2022-05-23 12:37:48</time>
      </trkpt>
      <trkpt lat="42.04712" lon="0.74242">
        <ele>1574.8</ele>
        <time>2022-05-23 12:37:49</time>
      </trkpt>
      <trkpt lat="42.04713" lon="0.74236">
        <ele>1574.4</ele>
        <time>2022-05-23 12:37:50</time>
      </trkpt>
      <trkpt lat="42.04714" lon="0.74227">
        <ele>1574</ele>
        <time>2022-05-23 12:37:51</time>
      </trkpt>
      <trkpt lat="42.04715" lon="0.74218">
        <ele>1573.6</ele>
        <time>2022-05-23 12:37:52</time>
      </trkpt>
      <trkpt lat="42.04716" lon="0.74212">
        <ele>1573</ele>
        <time>2022-05-23 12:37:53</time>
      </trkpt>
      <trkpt lat="42.04713" lon="0.74208">
        <ele>1572.8</ele>
        <time>2022-05-23 12:37:54</time>
      </trkpt>
      <trkpt lat="42.0471" lon="0.74207">
        <ele>1572.4</ele>
        <time>2022-05-23 12:37:55</time>
      </trkpt>
      <trkpt lat="42.04707" lon="0.74208">
        <ele>1572.2</ele>
        <time>2022-05-23 12:37:56</time>
      </trkpt>
      <trkpt lat="42.04704" lon="0.74212">
        <ele>1571.8</ele>
        <time>2022-05-23 12:37:57</time>
      </trkpt>
      <trkpt lat="42.04703" lon="0.74218">
        <ele>1571.4</ele>
        <time>2022-05-23 12:37:58</time>
      </trkpt>
      <trkpt lat="42.04702" lon="0.74224">
        <ele>1571</ele>
        <time>2022-05-23 12:37:59</time>
      </trkpt>
      <trkpt lat="42.04701" lon="0.74231">
        <ele>1570.4</ele>
        <time>2022-05-23 12:38:00</time>
      </trkpt>
      <trkpt lat="42.04699" lon="0.74239">
        <ele>1569.8</ele>
        <time>2022-05-23 12:38:01</time>
      </trkpt>
      <trkpt lat="42.04696" lon="0.74247">
        <ele>1569.4</ele>
        <time>2022-05-23 12:38:02</time>
      </trkpt>
      <trkpt lat="42.04693" lon="0.74255">
        <ele>1568.6</ele>
        <time>2022-05-23 12:38:03</time>
      </trkpt>
      <trkpt lat="42.04689" lon="0.74263">
        <ele>1568.2</ele>
        <time>2022-05-23 12:38:04</time>
      </trkpt>
      <trkpt lat="42.04684" lon="0.74272">
        <ele>1567.2</ele>
        <time>2022-05-23 12:38:05</time>
      </trkpt>
      <trkpt lat="42.04678" lon="0.7428">
        <ele>1566.4</ele>
        <time>2022-05-23 12:38:06</time>
      </trkpt>
      <trkpt lat="42.04672" lon="0.74289">
        <ele>1565.6</ele>
        <time>2022-05-23 12:38:07</time>
      </trkpt>
      <trkpt lat="42.04666" lon="0.74297">
        <ele>1564.8</ele>
        <time>2022-05-23 12:38:08</time>
      </trkpt>
      <trkpt lat="42.04659" lon="0.74306">
        <ele>1563.8</ele>
        <time>2022-05-23 12:38:09</time>
      </trkpt>
      <trkpt lat="42.04652" lon="0.74315">
        <ele>1562.8</ele>
        <time>2022-05-23 12:38:10</time>
      </trkpt>
      <trkpt lat="42.04644" lon="0.74325">
        <ele>1561.8</ele>
        <time>2022-05-23 12:38:11</time>
      </trkpt>
      <trkpt lat="42.04636" lon="0.74334">
        <ele>1560.8</ele>
        <time>2022-05-23 12:38:12</time>
      </trkpt>
      <trkpt lat="42.04628" lon="0.74342">
        <ele>1559.6</ele>
        <time>2022-05-23 12:38:13</time>
      </trkpt>
      <trkpt lat="42.04619" lon="0.74351">
        <ele>1558.8</ele>
        <time>2022-05-23 12:38:14</time>
      </trkpt>
      <trkpt lat="42.04611" lon="0.74358">
        <ele>1557.8</ele>
        <time>2022-05-23 12:38:15</time>
      </trkpt>
      <trkpt lat="42.04601" lon="0.74365">
        <ele>1556.8</ele>
        <time>2022-05-23 12:38:16</time>
      </trkpt>
      <trkpt lat="42.04592" lon="0.74372">
        <ele>1555.6</ele>
        <time>2022-05-23 12:38:17</time>
      </trkpt>
      <trkpt lat="42.04582" lon="0.74378">
        <ele>1554.8</ele>
        <time>2022-05-23 12:38:18</time>
      </trkpt>
      <trkpt lat="42.04572" lon="0.74385">
        <ele>1553.8</ele>
        <time>2022-05-23 12:38:19</time>
      </trkpt>
      <trkpt lat="42.04562" lon="0.74391">
        <ele>1552.8</ele>
        <time>2022-05-23 12:38:20</time>
      </trkpt>
      <trkpt lat="42.04551" lon="0.74399">
        <ele>1551.8</ele>
        <time>2022-05-23 12:38:21</time>
      </trkpt>
      <trkpt lat="42.04541" lon="0.74406">
        <ele>1550.8</ele>
        <time>2022-05-23 12:38:22</time>
      </trkpt>
      <trkpt lat="42.04531" lon="0.74414">
        <ele>1550</ele>
        <time>2022-05-23 12:38:23</time>
      </trkpt>
      <trkpt lat="42.04521" lon="0.74422">
        <ele>1549.2</ele>
        <time>2022-05-23 12:38:24</time>
      </trkpt>
      <trkpt lat="42.04511" lon="0.74431">
        <ele>1548.4</ele>
        <time>2022-05-23 12:38:25</time>
      </trkpt>
      <trkpt lat="42.04502" lon="0.74439">
        <ele>1547.6</ele>
        <time>2022-05-23 12:38:26</time>
      </trkpt>
      <trkpt lat="42.04493" lon="0.74449">
        <ele>1546.6</ele>
        <time>2022-05-23 12:38:27</time>
      </trkpt>
      <trkpt lat="42.04484" lon="0.74459">
        <ele>1545.8</ele>
        <time>2022-05-23 12:38:28</time>
      </trkpt>
      <trkpt lat="42.04475" lon="0.74469">
        <ele>1544.8</ele>
        <time>2022-05-23 12:38:29</time>
      </trkpt>
      <trkpt lat="42.04466" lon="0.7448">
        <ele>1543.6</ele>
        <time>2022-05-23 12:38:30</time>
      </trkpt>
      <trkpt lat="42.04457" lon="0.74494">
        <ele>1542.6</ele>
        <time>2022-05-23 12:38:31</time>
      </trkpt>
      <trkpt lat="42.0445" lon="0.74507">
        <ele>1541.6</ele>
        <time>2022-05-23 12:38:32</time>
      </trkpt>
      <trkpt lat="42.04443" lon="0.74521">
        <ele>1540.6</ele>
        <time>2022-05-23 12:38:33</time>
      </trkpt>
      <trkpt lat="42.04438" lon="0.74537">
        <ele>1539.6</ele>
        <time>2022-05-23 12:38:34</time>
      </trkpt>
      <trkpt lat="42.04433" lon="0.74553">
        <ele>1538.8</ele>
        <time>2022-05-23 12:38:35</time>
      </trkpt>
      <trkpt lat="42.04428" lon="0.74568">
        <ele>1538</ele>
        <time>2022-05-23 12:38:36</time>
      </trkpt>
      <trkpt lat="42.04422" lon="0.74585">
        <ele>1537.2</ele>
        <time>2022-05-23 12:38:37</time>
      </trkpt>
      <trkpt lat="42.04417" lon="0.74599">
        <ele>1536.4</ele>
        <time>2022-05-23 12:38:38</time>
      </trkpt>
      <trkpt lat="42.0441" lon="0.74616">
        <ele>1535.6</ele>
        <time>2022-05-23 12:38:39</time>
      </trkpt>
      <trkpt lat="42.04404" lon="0.74632">
        <ele>1534.6</ele>
        <time>2022-05-23 12:38:40</time>
      </trkpt>
      <trkpt lat="42.04397" lon="0.74647">
        <ele>1533.6</ele>
        <time>2022-05-23 12:38:41</time>
      </trkpt>
      <trkpt lat="42.04388" lon="0.74661">
        <ele>1532.6</ele>
        <time>2022-05-23 12:38:42</time>
      </trkpt>
      <trkpt lat="42.0438" lon="0.74676">
        <ele>1531.6</ele>
        <time>2022-05-23 12:38:43</time>
      </trkpt>
      <trkpt lat="42.04371" lon="0.74692">
        <ele>1530.4</ele>
        <time>2022-05-23 12:38:44</time>
      </trkpt>
      <trkpt lat="42.04364" lon="0.74707">
        <ele>1529.2</ele>
        <time>2022-05-23 12:38:45</time>
      </trkpt>
      <trkpt lat="42.04356" lon="0.74723">
        <ele>1528</ele>
        <time>2022-05-23 12:38:46</time>
      </trkpt>
      <trkpt lat="42.04348" lon="0.74738">
        <ele>1526.8</ele>
        <time>2022-05-23 12:38:47</time>
      </trkpt>
      <trkpt lat="42.04339" lon="0.74753">
        <ele>1525.6</ele>
        <time>2022-05-23 12:38:48</time>
      </trkpt>
      <trkpt lat="42.04331" lon="0.74768">
        <ele>1524.4</ele>
        <time>2022-05-23 12:38:49</time>
      </trkpt>
      <trkpt lat="42.04322" lon="0.74784">
        <ele>1522.8</ele>
        <time>2022-05-23 12:38:50</time>
      </trkpt>
      <trkpt lat="42.04314" lon="0.74801">
        <ele>1521.2</ele>
        <time>2022-05-23 12:38:51</time>
      </trkpt>
      <trkpt lat="42.04306" lon="0.74817">
        <ele>1519.8</ele>
        <time>2022-05-23 12:38:52</time>
      </trkpt>
      <trkpt lat="42.04298" lon="0.74835">
        <ele>1518.4</ele>
        <time>2022-05-23 12:38:53</time>
      </trkpt>
      <trkpt lat="42.04291" lon="0.74853">
        <ele>1516.8</ele>
        <time>2022-05-23 12:38:54</time>
      </trkpt>
      <trkpt lat="42.04283" lon="0.74872">
        <ele>1515.4</ele>
        <time>2022-05-23 12:38:55</time>
      </trkpt>
      <trkpt lat="42.04277" lon="0.74889">
        <ele>1514</ele>
        <time>2022-05-23 12:38:56</time>
      </trkpt>
      <trkpt lat="42.04271" lon="0.74906">
        <ele>1512.6</ele>
        <time>2022-05-23 12:38:57</time>
      </trkpt>
      <trkpt lat="42.04264" lon="0.74921">
        <ele>1511.4</ele>
        <time>2022-05-23 12:38:58</time>
      </trkpt>
      <trkpt lat="42.04256" lon="0.74936">
        <ele>1510.2</ele>
        <time>2022-05-23 12:38:59</time>
      </trkpt>
      <trkpt lat="42.04248" lon="0.74952">
        <ele>1508.8</ele>
        <time>2022-05-23 12:39:00</time>
      </trkpt>
      <trkpt lat="42.04241" lon="0.74966">
        <ele>1507.6</ele>
        <time>2022-05-23 12:39:01</time>
      </trkpt>
      <trkpt lat="42.04231" lon="0.74983">
        <ele>1506.2</ele>
        <time>2022-05-23 12:39:02</time>
      </trkpt>
      <trkpt lat="42.0422" lon="0.74996">
        <ele>1504.8</ele>
        <time>2022-05-23 12:39:03</time>
      </trkpt>
      <trkpt lat="42.0421" lon="0.75009">
        <ele>1503.4</ele>
        <time>2022-05-23 12:39:04</time>
      </trkpt>
      <trkpt lat="42.042" lon="0.75022">
        <ele>1502.2</ele>
        <time>2022-05-23 12:39:05</time>
      </trkpt>
      <trkpt lat="42.04193" lon="0.75033">
        <ele>1501.2</ele>
        <time>2022-05-23 12:39:06</time>
      </trkpt>
      <trkpt lat="42.04181" lon="0.75052">
        <ele>1499.6</ele>
        <time>2022-05-23 12:39:07</time>
      </trkpt>
      <trkpt lat="42.04173" lon="0.75064">
        <ele>1498.2</ele>
        <time>2022-05-23 12:39:08</time>
      </trkpt>
      <trkpt lat="42.04165" lon="0.75075">
        <ele>1497.2</ele>
        <time>2022-05-23 12:39:09</time>
      </trkpt>
      <trkpt lat="42.04158" lon="0.75086">
        <ele>1496.2</ele>
        <time>2022-05-23 12:39:10</time>
      </trkpt>
      <trkpt lat="42.04152" lon="0.75098">
        <ele>1495.2</ele>
        <time>2022-05-23 12:39:11</time>
      </trkpt>
      <trkpt lat="42.04148" lon="0.75109">
        <ele>1494</ele>
        <time>2022-05-23 12:39:12</time>
      </trkpt>
      <trkpt lat="42.04141" lon="0.75123">
        <ele>1493</ele>
        <time>2022-05-23 12:39:13</time>
      </trkpt>
      <trkpt lat="42.04134" lon="0.75133">
        <ele>1491.8</ele>
        <time>2022-05-23 12:39:14</time>
      </trkpt>
      <trkpt lat="42.04124" lon="0.75141">
        <ele>1490.8</ele>
        <time>2022-05-23 12:39:15</time>
      </trkpt>
      <trkpt lat="42.04113" lon="0.75148">
        <ele>1489.6</ele>
        <time>2022-05-23 12:39:16</time>
      </trkpt>
      <trkpt lat="42.04104" lon="0.75158">
        <ele>1488.2</ele>
        <time>2022-05-23 12:39:17</time>
      </trkpt>
      <trkpt lat="42.04094" lon="0.75169">
        <ele>1487.2</ele>
        <time>2022-05-23 12:39:18</time>
      </trkpt>
      <trkpt lat="42.04085" lon="0.7518">
        <ele>1486</ele>
        <time>2022-05-23 12:39:19</time>
      </trkpt>
      <trkpt lat="42.04077" lon="0.75191">
        <ele>1484.6</ele>
        <time>2022-05-23 12:39:20</time>
      </trkpt>
      <trkpt lat="42.04067" lon="0.75202">
        <ele>1483.2</ele>
        <time>2022-05-23 12:39:21</time>
      </trkpt>
      <trkpt lat="42.04054" lon="0.75211">
        <ele>1481.8</ele>
        <time>2022-05-23 12:39:22</time>
      </trkpt>
      <trkpt lat="42.04041" lon="0.75219">
        <ele>1480.6</ele>
        <time>2022-05-23 12:39:23</time>
      </trkpt>
      <trkpt lat="42.0403" lon="0.75229">
        <ele>1479.2</ele>
        <time>2022-05-23 12:39:24</time>
      </trkpt>
      <trkpt lat="42.04019" lon="0.75241">
        <ele>1478</ele>
        <time>2022-05-23 12:39:25</time>
      </trkpt>
      <trkpt lat="42.0401" lon="0.75253">
        <ele>1477</ele>
        <time>2022-05-23 12:39:26</time>
      </trkpt>
      <trkpt lat="42.04001" lon="0.75263">
        <ele>1475.6</ele>
        <time>2022-05-23 12:39:27</time>
      </trkpt>
      <trkpt lat="42.03991" lon="0.7527">
        <ele>1474.6</ele>
        <time>2022-05-23 12:39:28</time>
      </trkpt>
      <trkpt lat="42.03981" lon="0.75278">
        <ele>1473.6</ele>
        <time>2022-05-23 12:39:29</time>
      </trkpt>
      <trkpt lat="42.03973" lon="0.75284">
        <ele>1472.4</ele>
        <time>2022-05-23 12:39:30</time>
      </trkpt>
      <trkpt lat="42.03963" lon="0.75289">
        <ele>1471.4</ele>
        <time>2022-05-23 12:39:31</time>
      </trkpt>
      <trkpt lat="42.03954" lon="0.75292">
        <ele>1470.4</ele>
        <time>2022-05-23 12:39:32</time>
      </trkpt>
      <trkpt lat="42.03945" lon="0.75293">
        <ele>1469.6</ele>
        <time>2022-05-23 12:39:33</time>
      </trkpt>
      <trkpt lat="42.03936" lon="0.75294">
        <ele>1468.6</ele>
        <time>2022-05-23 12:39:34</time>
      </trkpt>
      <trkpt lat="42.03926" lon="0.75297">
        <ele>1467.6</ele>
        <time>2022-05-23 12:39:35</time>
      </trkpt>
      <trkpt lat="42.03917" lon="0.75304">
        <ele>1466.6</ele>
        <time>2022-05-23 12:39:36</time>
      </trkpt>
      <trkpt lat="42.03909" lon="0.75314">
        <ele>1465.6</ele>
        <time>2022-05-23 12:39:37</time>
      </trkpt>
      <trkpt lat="42.03901" lon="0.75324">
        <ele>1464.4</ele>
        <time>2022-05-23 12:39:38</time>
      </trkpt>
      <trkpt lat="42.03895" lon="0.75331">
        <ele>1463.6</ele>
        <time>2022-05-23 12:39:39</time>
      </trkpt>
      <trkpt lat="42.03885" lon="0.7534">
        <ele>1462.2</ele>
        <time>2022-05-23 12:39:40</time>
      </trkpt>
      <trkpt lat="42.03875" lon="0.75346">
        <ele>1461.2</ele>
        <time>2022-05-23 12:39:41</time>
      </trkpt>
      <trkpt lat="42.03866" lon="0.75352">
        <ele>1460</ele>
        <time>2022-05-23 12:39:42</time>
      </trkpt>
      <trkpt lat="42.03856" lon="0.7536">
        <ele>1459</ele>
        <time>2022-05-23 12:39:43</time>
      </trkpt>
      <trkpt lat="42.03847" lon="0.75367">
        <ele>1458</ele>
        <time>2022-05-23 12:39:44</time>
      </trkpt>
      <trkpt lat="42.03841" lon="0.75375">
        <ele>1457.2</ele>
        <time>2022-05-23 12:39:45</time>
      </trkpt>
      <trkpt lat="42.03835" lon="0.75383">
        <ele>1456.4</ele>
        <time>2022-05-23 12:39:46</time>
      </trkpt>
      <trkpt lat="42.03829" lon="0.75394">
        <ele>1455.6</ele>
        <time>2022-05-23 12:39:47</time>
      </trkpt>
      <trkpt lat="42.03823" lon="0.7541">
        <ele>1454</ele>
        <time>2022-05-23 12:39:48</time>
      </trkpt>
      <trkpt lat="42.03819" lon="0.75423">
        <ele>1452.8</ele>
        <time>2022-05-23 12:39:49</time>
      </trkpt>
      <trkpt lat="42.03814" lon="0.75438">
        <ele>1451.6</ele>
        <time>2022-05-23 12:39:50</time>
      </trkpt>
      <trkpt lat="42.03809" lon="0.75452">
        <ele>1450.6</ele>
        <time>2022-05-23 12:39:51</time>
      </trkpt>
      <trkpt lat="42.03804" lon="0.75465">
        <ele>1449.6</ele>
        <time>2022-05-23 12:39:52</time>
      </trkpt>
      <trkpt lat="42.03799" lon="0.75476">
        <ele>1448.8</ele>
        <time>2022-05-23 12:39:53</time>
      </trkpt>
      <trkpt lat="42.03795" lon="0.75486">
        <ele>1448</ele>
        <time>2022-05-23 12:39:54</time>
      </trkpt>
      <trkpt lat="42.03792" lon="0.75496">
        <ele>1447</ele>
        <time>2022-05-23 12:39:55</time>
      </trkpt>
      <trkpt lat="42.03789" lon="0.75505">
        <ele>1446</ele>
        <time>2022-05-23 12:39:56</time>
      </trkpt>
      <trkpt lat="42.03787" lon="0.75517">
        <ele>1445</ele>
        <time>2022-05-23 12:39:57</time>
      </trkpt>
      <trkpt lat="42.03784" lon="0.75527">
        <ele>1444.2</ele>
        <time>2022-05-23 12:39:58</time>
      </trkpt>
      <trkpt lat="42.03782" lon="0.7554">
        <ele>1443.2</ele>
        <time>2022-05-23 12:39:59</time>
      </trkpt>
      <trkpt lat="42.0378" lon="0.75553">
        <ele>1442.2</ele>
        <time>2022-05-23 12:40:00</time>
      </trkpt>
      <trkpt lat="42.03779" lon="0.75566">
        <ele>1441.4</ele>
        <time>2022-05-23 12:40:01</time>
      </trkpt>
      <trkpt lat="42.0378" lon="0.75579">
        <ele>1440.4</ele>
        <time>2022-05-23 12:40:02</time>
      </trkpt>
      <trkpt lat="42.03781" lon="0.75592">
        <ele>1439.6</ele>
        <time>2022-05-23 12:40:03</time>
      </trkpt>
      <trkpt lat="42.03783" lon="0.75603">
        <ele>1438.8</ele>
        <time>2022-05-23 12:40:04</time>
      </trkpt>
      <trkpt lat="42.03787" lon="0.75615">
        <ele>1438.2</ele>
        <time>2022-05-23 12:40:05</time>
      </trkpt>
      <trkpt lat="42.03792" lon="0.75623">
        <ele>1437.4</ele>
        <time>2022-05-23 12:40:06</time>
      </trkpt>
      <trkpt lat="42.03795" lon="0.75631">
        <ele>1436.8</ele>
        <time>2022-05-23 12:40:07</time>
      </trkpt>
      <trkpt lat="42.03797" lon="0.75639">
        <ele>1436.2</ele>
        <time>2022-05-23 12:40:08</time>
      </trkpt>
      <trkpt lat="42.03797" lon="0.75645">
        <ele>1435.6</ele>
        <time>2022-05-23 12:40:09</time>
      </trkpt>
      <trkpt lat="42.03794" lon="0.75649">
        <ele>1434.8</ele>
        <time>2022-05-23 12:40:10</time>
      </trkpt>
      <trkpt lat="42.03789" lon="0.75645">
        <ele>1434.4</ele>
        <time>2022-05-23 12:40:11</time>
      </trkpt>
      <trkpt lat="42.03785" lon="0.75641">
        <ele>1433.8</ele>
        <time>2022-05-23 12:40:12</time>
      </trkpt>
      <trkpt lat="42.03781" lon="0.75632">
        <ele>1433.2</ele>
        <time>2022-05-23 12:40:13</time>
      </trkpt>
      <trkpt lat="42.03777" lon="0.75624">
        <ele>1432.4</ele>
        <time>2022-05-23 12:40:14</time>
      </trkpt>
      <trkpt lat="42.03772" lon="0.75615">
        <ele>1431.8</ele>
        <time>2022-05-23 12:40:15</time>
      </trkpt>
      <trkpt lat="42.03768" lon="0.75606">
        <ele>1431</ele>
        <time>2022-05-23 12:40:16</time>
      </trkpt>
      <trkpt lat="42.03763" lon="0.75595">
        <ele>1430.2</ele>
        <time>2022-05-23 12:40:17</time>
      </trkpt>
      <trkpt lat="42.03757" lon="0.75585">
        <ele>1429.4</ele>
        <time>2022-05-23 12:40:18</time>
      </trkpt>
      <trkpt lat="42.03753" lon="0.75574">
        <ele>1428.6</ele>
        <time>2022-05-23 12:40:19</time>
      </trkpt>
      <trkpt lat="42.03749" lon="0.75563">
        <ele>1427.8</ele>
        <time>2022-05-23 12:40:20</time>
      </trkpt>
      <trkpt lat="42.03744" lon="0.75547">
        <ele>1426.6</ele>
        <time>2022-05-23 12:40:21</time>
      </trkpt>
      <trkpt lat="42.03743" lon="0.75531">
        <ele>1425.4</ele>
        <time>2022-05-23 12:40:22</time>
      </trkpt>
      <trkpt lat="42.03741" lon="0.75517">
        <ele>1424.8</ele>
        <time>2022-05-23 12:40:23</time>
      </trkpt>
      <trkpt lat="42.0374" lon="0.75501">
        <ele>1424</ele>
        <time>2022-05-23 12:40:24</time>
      </trkpt>
      <trkpt lat="42.03741" lon="0.75486">
        <ele>1423.4</ele>
        <time>2022-05-23 12:40:25</time>
      </trkpt>
      <trkpt lat="42.03743" lon="0.75471">
        <ele>1423</ele>
        <time>2022-05-23 12:40:26</time>
      </trkpt>
      <trkpt lat="42.03746" lon="0.75457">
        <ele>1422.6</ele>
        <time>2022-05-23 12:40:27</time>
      </trkpt>
      <trkpt lat="42.03749" lon="0.75444">
        <ele>1422.4</ele>
        <time>2022-05-23 12:40:28</time>
      </trkpt>
      <trkpt lat="42.03751" lon="0.75431">
        <ele>1422.2</ele>
        <time>2022-05-23 12:40:29</time>
      </trkpt>
      <trkpt lat="42.03752" lon="0.75419">
        <ele>1422</ele>
        <time>2022-05-23 12:40:30</time>
      </trkpt>
      <trkpt lat="42.03754" lon="0.75407">
        <ele>1422</ele>
        <time>2022-05-23 12:40:31</time>
      </trkpt>
      <trkpt lat="42.03756" lon="0.75396">
        <ele>1422</ele>
        <time>2022-05-23 12:40:32</time>
      </trkpt>
      <trkpt lat="42.03757" lon="0.75387">
        <ele>1422</ele>
        <time>2022-05-23 12:40:33</time>
      </trkpt>
      <trkpt lat="42.03761" lon="0.75378">
        <ele>1422.2</ele>
        <time>2022-05-23 12:40:34</time>
      </trkpt>
      <trkpt lat="42.03764" lon="0.7537">
        <ele>1422.6</ele>
        <time>2022-05-23 12:40:35</time>
      </trkpt>
      <trkpt lat="42.03767" lon="0.75363">
        <ele>1422.8</ele>
        <time>2022-05-23 12:40:36</time>
      </trkpt>
      <trkpt lat="42.03772" lon="0.75358">
        <ele>1423</ele>
        <time>2022-05-23 12:40:37</time>
      </trkpt>
      <trkpt lat="42.03775" lon="0.75351">
        <ele>1423.2</ele>
        <time>2022-05-23 12:40:38</time>
      </trkpt>
      <trkpt lat="42.03779" lon="0.75345">
        <ele>1423.4</ele>
        <time>2022-05-23 12:40:39</time>
      </trkpt>
      <trkpt lat="42.03783" lon="0.75339">
        <ele>1423.6</ele>
        <time>2022-05-23 12:40:40</time>
      </trkpt>
      <trkpt lat="42.03787" lon="0.75333">
        <ele>1423.8</ele>
        <time>2022-05-23 12:40:41</time>
      </trkpt>
      <trkpt lat="42.03792" lon="0.75328">
        <ele>1424</ele>
        <time>2022-05-23 12:40:42</time>
      </trkpt>
      <trkpt lat="42.03795" lon="0.75324">
        <ele>1424.2</ele>
        <time>2022-05-23 12:40:43</time>
      </trkpt>
      <trkpt lat="42.038" lon="0.75319">
        <ele>1424.4</ele>
        <time>2022-05-23 12:40:44</time>
      </trkpt>
      <trkpt lat="42.03804" lon="0.75315">
        <ele>1424.4</ele>
        <time>2022-05-23 12:40:45</time>
      </trkpt>
      <trkpt lat="42.03809" lon="0.7531">
        <ele>1424.6</ele>
        <time>2022-05-23 12:40:46</time>
      </trkpt>
      <trkpt lat="42.03813" lon="0.75305">
        <ele>1424.6</ele>
        <time>2022-05-23 12:40:47</time>
      </trkpt>
      <trkpt lat="42.03818" lon="0.753">
        <ele>1424.8</ele>
        <time>2022-05-23 12:40:48</time>
      </trkpt>
      <trkpt lat="42.03822" lon="0.75296">
        <ele>1424.8</ele>
        <time>2022-05-23 12:40:49</time>
      </trkpt>
      <trkpt lat="42.03827" lon="0.75291">
        <ele>1425</ele>
        <time>2022-05-23 12:40:50</time>
      </trkpt>
      <trkpt lat="42.03831" lon="0.75286">
        <ele>1425</ele>
        <time>2022-05-23 12:40:51</time>
      </trkpt>
      <trkpt lat="42.03835" lon="0.7528">
        <ele>1425</ele>
        <time>2022-05-23 12:40:52</time>
      </trkpt>
      <trkpt lat="42.03839" lon="0.75276">
        <ele>1425.2</ele>
        <time>2022-05-23 12:40:53</time>
      </trkpt>
      <trkpt lat="42.03843" lon="0.7527">
        <ele>1425.2</ele>
        <time>2022-05-23 12:40:54</time>
      </trkpt>
      <trkpt lat="42.03847" lon="0.75266">
        <ele>1425.4</ele>
        <time>2022-05-23 12:40:55</time>
      </trkpt>
      <trkpt lat="42.03851" lon="0.75261">
        <ele>1425.6</ele>
        <time>2022-05-23 12:40:56</time>
      </trkpt>
      <trkpt lat="42.03856" lon="0.75257">
        <ele>1425.6</ele>
        <time>2022-05-23 12:40:57</time>
      </trkpt>
      <trkpt lat="42.03861" lon="0.75253">
        <ele>1425.8</ele>
        <time>2022-05-23 12:40:58</time>
      </trkpt>
      <trkpt lat="42.03865" lon="0.7525">
        <ele>1425.8</ele>
        <time>2022-05-23 12:40:59</time>
      </trkpt>
      <trkpt lat="42.0387" lon="0.75246">
        <ele>1425.8</ele>
        <time>2022-05-23 12:41:00</time>
      </trkpt>
      <trkpt lat="42.03874" lon="0.75241">
        <ele>1425.8</ele>
        <time>2022-05-23 12:41:01</time>
      </trkpt>
      <trkpt lat="42.03878" lon="0.75236">
        <ele>1425.8</ele>
        <time>2022-05-23 12:41:02</time>
      </trkpt>
      <trkpt lat="42.03882" lon="0.75231">
        <ele>1425.8</ele>
        <time>2022-05-23 12:41:03</time>
      </trkpt>
      <trkpt lat="42.03886" lon="0.75226">
        <ele>1425.8</ele>
        <time>2022-05-23 12:41:04</time>
      </trkpt>
      <trkpt lat="42.0389" lon="0.75221">
        <ele>1425.8</ele>
        <time>2022-05-23 12:41:05</time>
      </trkpt>
      <trkpt lat="42.03895" lon="0.75216">
        <ele>1425.6</ele>
        <time>2022-05-23 12:41:06</time>
      </trkpt>
      <trkpt lat="42.03899" lon="0.75211">
        <ele>1425.4</ele>
        <time>2022-05-23 12:41:07</time>
      </trkpt>
      <trkpt lat="42.03903" lon="0.75205">
        <ele>1425.4</ele>
        <time>2022-05-23 12:41:08</time>
      </trkpt>
      <trkpt lat="42.03907" lon="0.75201">
        <ele>1425.2</ele>
        <time>2022-05-23 12:41:09</time>
      </trkpt>
      <trkpt lat="42.03911" lon="0.75194">
        <ele>1425</ele>
        <time>2022-05-23 12:41:10</time>
      </trkpt>
      <trkpt lat="42.03915" lon="0.7519">
        <ele>1424.8</ele>
        <time>2022-05-23 12:41:11</time>
      </trkpt>
      <trkpt lat="42.0392" lon="0.75183">
        <ele>1424.6</ele>
        <time>2022-05-23 12:41:12</time>
      </trkpt>
      <trkpt lat="42.03924" lon="0.75177">
        <ele>1424.4</ele>
        <time>2022-05-23 12:41:13</time>
      </trkpt>
      <trkpt lat="42.03928" lon="0.75171">
        <ele>1424.2</ele>
        <time>2022-05-23 12:41:14</time>
      </trkpt>
      <trkpt lat="42.03933" lon="0.75163">
        <ele>1424</ele>
        <time>2022-05-23 12:41:15</time>
      </trkpt>
      <trkpt lat="42.03938" lon="0.75157">
        <ele>1423.6</ele>
        <time>2022-05-23 12:41:16</time>
      </trkpt>
      <trkpt lat="42.03943" lon="0.7515">
        <ele>1423.2</ele>
        <time>2022-05-23 12:41:17</time>
      </trkpt>
      <trkpt lat="42.03949" lon="0.75142">
        <ele>1422.8</ele>
        <time>2022-05-23 12:41:18</time>
      </trkpt>
      <trkpt lat="42.03954" lon="0.75135">
        <ele>1422.2</ele>
        <time>2022-05-23 12:41:19</time>
      </trkpt>
      <trkpt lat="42.0396" lon="0.75128">
        <ele>1421.6</ele>
        <time>2022-05-23 12:41:20</time>
      </trkpt>
      <trkpt lat="42.03965" lon="0.75121">
        <ele>1421</ele>
        <time>2022-05-23 12:41:21</time>
      </trkpt>
      <trkpt lat="42.0397" lon="0.75112">
        <ele>1420.4</ele>
        <time>2022-05-23 12:41:22</time>
      </trkpt>
      <trkpt lat="42.03975" lon="0.75104">
        <ele>1419.8</ele>
        <time>2022-05-23 12:41:23</time>
      </trkpt>
      <trkpt lat="42.03979" lon="0.75096">
        <ele>1419.2</ele>
        <time>2022-05-23 12:41:24</time>
      </trkpt>
      <trkpt lat="42.03982" lon="0.75087">
        <ele>1418.6</ele>
        <time>2022-05-23 12:41:25</time>
      </trkpt>
      <trkpt lat="42.03985" lon="0.75077">
        <ele>1418</ele>
        <time>2022-05-23 12:41:26</time>
      </trkpt>
      <trkpt lat="42.03987" lon="0.75068">
        <ele>1417.4</ele>
        <time>2022-05-23 12:41:27</time>
      </trkpt>
      <trkpt lat="42.03988" lon="0.75058">
        <ele>1416.6</ele>
        <time>2022-05-23 12:41:28</time>
      </trkpt>
      <trkpt lat="42.03988" lon="0.7505">
        <ele>1416</ele>
        <time>2022-05-23 12:41:29</time>
      </trkpt>
      <trkpt lat="42.03989" lon="0.75039">
        <ele>1415.2</ele>
        <time>2022-05-23 12:41:30</time>
      </trkpt>
      <trkpt lat="42.0399" lon="0.75029">
        <ele>1414.2</ele>
        <time>2022-05-23 12:41:31</time>
      </trkpt>
      <trkpt lat="42.03991" lon="0.75017">
        <ele>1413.4</ele>
        <time>2022-05-23 12:41:32</time>
      </trkpt>
      <trkpt lat="42.03993" lon="0.75005">
        <ele>1412.4</ele>
        <time>2022-05-23 12:41:33</time>
      </trkpt>
      <trkpt lat="42.03995" lon="0.74993">
        <ele>1411.4</ele>
        <time>2022-05-23 12:41:34</time>
      </trkpt>
      <trkpt lat="42.03997" lon="0.74981">
        <ele>1410.2</ele>
        <time>2022-05-23 12:41:35</time>
      </trkpt>
      <trkpt lat="42.03997" lon="0.74967">
        <ele>1409.4</ele>
        <time>2022-05-23 12:41:36</time>
      </trkpt>
      <trkpt lat="42.03999" lon="0.74953">
        <ele>1408.2</ele>
        <time>2022-05-23 12:41:37</time>
      </trkpt>
      <trkpt lat="42.04001" lon="0.7494">
        <ele>1407.2</ele>
        <time>2022-05-23 12:41:38</time>
      </trkpt>
      <trkpt lat="42.04003" lon="0.74925">
        <ele>1406.2</ele>
        <time>2022-05-23 12:41:39</time>
      </trkpt>
      <trkpt lat="42.04006" lon="0.74911">
        <ele>1405.2</ele>
        <time>2022-05-23 12:41:40</time>
      </trkpt>
      <trkpt lat="42.04008" lon="0.74894">
        <ele>1404.2</ele>
        <time>2022-05-23 12:41:41</time>
      </trkpt>
      <trkpt lat="42.0401" lon="0.7488">
        <ele>1403.4</ele>
        <time>2022-05-23 12:41:42</time>
      </trkpt>
      <trkpt lat="42.0401" lon="0.74865">
        <ele>1402.4</ele>
        <time>2022-05-23 12:41:43</time>
      </trkpt>
      <trkpt lat="42.04011" lon="0.74851">
        <ele>1401.6</ele>
        <time>2022-05-23 12:41:44</time>
      </trkpt>
      <trkpt lat="42.04013" lon="0.74836">
        <ele>1400.8</ele>
        <time>2022-05-23 12:41:45</time>
      </trkpt>
      <trkpt lat="42.04013" lon="0.74819">
        <ele>1399.8</ele>
        <time>2022-05-23 12:41:46</time>
      </trkpt>
      <trkpt lat="42.04014" lon="0.74805">
        <ele>1399</ele>
        <time>2022-05-23 12:41:47</time>
      </trkpt>
      <trkpt lat="42.04015" lon="0.74791">
        <ele>1398.2</ele>
        <time>2022-05-23 12:41:48</time>
      </trkpt>
      <trkpt lat="42.04016" lon="0.74778">
        <ele>1397.6</ele>
        <time>2022-05-23 12:41:49</time>
      </trkpt>
      <trkpt lat="42.04017" lon="0.74764">
        <ele>1396.6</ele>
        <time>2022-05-23 12:41:50</time>
      </trkpt>
      <trkpt lat="42.04018" lon="0.74751">
        <ele>1395.6</ele>
        <time>2022-05-23 12:41:51</time>
      </trkpt>
      <trkpt lat="42.0402" lon="0.74735">
        <ele>1394.6</ele>
        <time>2022-05-23 12:41:52</time>
      </trkpt>
      <trkpt lat="42.04021" lon="0.7472">
        <ele>1393.4</ele>
        <time>2022-05-23 12:41:53</time>
      </trkpt>
      <trkpt lat="42.04023" lon="0.74707">
        <ele>1392.2</ele>
        <time>2022-05-23 12:41:54</time>
      </trkpt>
      <trkpt lat="42.04025" lon="0.74692">
        <ele>1391.2</ele>
        <time>2022-05-23 12:41:55</time>
      </trkpt>
      <trkpt lat="42.04026" lon="0.74679">
        <ele>1390</ele>
        <time>2022-05-23 12:41:56</time>
      </trkpt>
      <trkpt lat="42.04026" lon="0.74663">
        <ele>1388.8</ele>
        <time>2022-05-23 12:41:57</time>
      </trkpt>
      <trkpt lat="42.04025" lon="0.7465">
        <ele>1387.8</ele>
        <time>2022-05-23 12:41:58</time>
      </trkpt>
      <trkpt lat="42.04023" lon="0.74636">
        <ele>1386.8</ele>
        <time>2022-05-23 12:41:59</time>
      </trkpt>
      <trkpt lat="42.04019" lon="0.7462">
        <ele>1385.4</ele>
        <time>2022-05-23 12:42:00</time>
      </trkpt>
      <trkpt lat="42.04014" lon="0.74607">
        <ele>1384.6</ele>
        <time>2022-05-23 12:42:01</time>
      </trkpt>
      <trkpt lat="42.04008" lon="0.74593">
        <ele>1383.6</ele>
        <time>2022-05-23 12:42:02</time>
      </trkpt>
      <trkpt lat="42.04002" lon="0.74581">
        <ele>1382.6</ele>
        <time>2022-05-23 12:42:03</time>
      </trkpt>
      <trkpt lat="42.03996" lon="0.74568">
        <ele>1381.4</ele>
        <time>2022-05-23 12:42:04</time>
      </trkpt>
      <trkpt lat="42.0399" lon="0.74555">
        <ele>1380.6</ele>
        <time>2022-05-23 12:42:05</time>
      </trkpt>
      <trkpt lat="42.03985" lon="0.74544">
        <ele>1379.8</ele>
        <time>2022-05-23 12:42:06</time>
      </trkpt>
      <trkpt lat="42.0398" lon="0.74532">
        <ele>1379</ele>
        <time>2022-05-23 12:42:07</time>
      </trkpt>
      <trkpt lat="42.03976" lon="0.74522">
        <ele>1378.2</ele>
        <time>2022-05-23 12:42:08</time>
      </trkpt>
      <trkpt lat="42.03972" lon="0.74509">
        <ele>1377.6</ele>
        <time>2022-05-23 12:42:09</time>
      </trkpt>
      <trkpt lat="42.03968" lon="0.74497">
        <ele>1377</ele>
        <time>2022-05-23 12:42:10</time>
      </trkpt>
      <trkpt lat="42.03968" lon="0.74485">
        <ele>1376.4</ele>
        <time>2022-05-23 12:42:11</time>
      </trkpt>
      <trkpt lat="42.03967" lon="0.74473">
        <ele>1375.8</ele>
        <time>2022-05-23 12:42:12</time>
      </trkpt>
      <trkpt lat="42.03965" lon="0.74459">
        <ele>1375.4</ele>
        <time>2022-05-23 12:42:13</time>
      </trkpt>
      <trkpt lat="42.03963" lon="0.74447">
        <ele>1375.2</ele>
        <time>2022-05-23 12:42:14</time>
      </trkpt>
      <trkpt lat="42.03962" lon="0.74435">
        <ele>1374.8</ele>
        <time>2022-05-23 12:42:15</time>
      </trkpt>
      <trkpt lat="42.03959" lon="0.74423">
        <ele>1374.4</ele>
        <time>2022-05-23 12:42:16</time>
      </trkpt>
      <trkpt lat="42.03957" lon="0.74412">
        <ele>1374.2</ele>
        <time>2022-05-23 12:42:17</time>
      </trkpt>
      <trkpt lat="42.03954" lon="0.74401">
        <ele>1373.8</ele>
        <time>2022-05-23 12:42:18</time>
      </trkpt>
      <trkpt lat="42.03951" lon="0.74393">
        <ele>1373.2</ele>
        <time>2022-05-23 12:42:19</time>
      </trkpt>
      <trkpt lat="42.03945" lon="0.74383">
        <ele>1372.8</ele>
        <time>2022-05-23 12:42:20</time>
      </trkpt>
      <trkpt lat="42.03941" lon="0.74375">
        <ele>1372</ele>
        <time>2022-05-23 12:42:21</time>
      </trkpt>
      <trkpt lat="42.03936" lon="0.74364">
        <ele>1371.6</ele>
        <time>2022-05-23 12:42:22</time>
      </trkpt>
      <trkpt lat="42.03933" lon="0.74355">
        <ele>1371</ele>
        <time>2022-05-23 12:42:23</time>
      </trkpt>
      <trkpt lat="42.03928" lon="0.74344">
        <ele>1370.4</ele>
        <time>2022-05-23 12:42:24</time>
      </trkpt>
      <trkpt lat="42.03924" lon="0.74336">
        <ele>1369.8</ele>
        <time>2022-05-23 12:42:25</time>
      </trkpt>
      <trkpt lat="42.03919" lon="0.74326">
        <ele>1369.2</ele>
        <time>2022-05-23 12:42:26</time>
      </trkpt>
      <trkpt lat="42.03915" lon="0.74318">
        <ele>1368.6</ele>
        <time>2022-05-23 12:42:27</time>
      </trkpt>
      <trkpt lat="42.03912" lon="0.74309">
        <ele>1368</ele>
        <time>2022-05-23 12:42:28</time>
      </trkpt>
      <trkpt lat="42.0391" lon="0.743">
        <ele>1367.2</ele>
        <time>2022-05-23 12:42:29</time>
      </trkpt>
      <trkpt lat="42.0391" lon="0.7429">
        <ele>1366.6</ele>
        <time>2022-05-23 12:42:30</time>
      </trkpt>
      <trkpt lat="42.0391" lon="0.7428">
        <ele>1366</ele>
        <time>2022-05-23 12:42:31</time>
      </trkpt>
      <trkpt lat="42.03913" lon="0.74268">
        <ele>1365.2</ele>
        <time>2022-05-23 12:42:32</time>
      </trkpt>
      <trkpt lat="42.03916" lon="0.74258">
        <ele>1364.6</ele>
        <time>2022-05-23 12:42:33</time>
      </trkpt>
      <trkpt lat="42.03919" lon="0.74245">
        <ele>1363.8</ele>
        <time>2022-05-23 12:42:34</time>
      </trkpt>
      <trkpt lat="42.03922" lon="0.74236">
        <ele>1363.2</ele>
        <time>2022-05-23 12:42:35</time>
      </trkpt>
      <trkpt lat="42.03925" lon="0.74223">
        <ele>1362.4</ele>
        <time>2022-05-23 12:42:36</time>
      </trkpt>
      <trkpt lat="42.03929" lon="0.74212">
        <ele>1361.8</ele>
        <time>2022-05-23 12:42:37</time>
      </trkpt>
      <trkpt lat="42.03932" lon="0.742">
        <ele>1361</ele>
        <time>2022-05-23 12:42:38</time>
      </trkpt>
      <trkpt lat="42.03935" lon="0.74188">
        <ele>1360</ele>
        <time>2022-05-23 12:42:39</time>
      </trkpt>
      <trkpt lat="42.03938" lon="0.74177">
        <ele>1359.2</ele>
        <time>2022-05-23 12:42:40</time>
      </trkpt>
      <trkpt lat="42.0394" lon="0.74166">
        <ele>1358.4</ele>
        <time>2022-05-23 12:42:41</time>
      </trkpt>
      <trkpt lat="42.03943" lon="0.74152">
        <ele>1357.6</ele>
        <time>2022-05-23 12:42:42</time>
      </trkpt>
      <trkpt lat="42.03944" lon="0.74143">
        <ele>1356.8</ele>
        <time>2022-05-23 12:42:43</time>
      </trkpt>
      <trkpt lat="42.03945" lon="0.74131">
        <ele>1356.2</ele>
        <time>2022-05-23 12:42:44</time>
      </trkpt>
      <trkpt lat="42.03946" lon="0.74122">
        <ele>1355.6</ele>
        <time>2022-05-23 12:42:45</time>
      </trkpt>
      <trkpt lat="42.03946" lon="0.74111">
        <ele>1355</ele>
        <time>2022-05-23 12:42:46</time>
      </trkpt>
      <trkpt lat="42.03944" lon="0.74103">
        <ele>1354.4</ele>
        <time>2022-05-23 12:42:47</time>
      </trkpt>
      <trkpt lat="42.03942" lon="0.74094">
        <ele>1354</ele>
        <time>2022-05-23 12:42:48</time>
      </trkpt>
      <trkpt lat="42.03939" lon="0.74086">
        <ele>1353.6</ele>
        <time>2022-05-23 12:42:49</time>
      </trkpt>
      <trkpt lat="42.03936" lon="0.74076">
        <ele>1353.2</ele>
        <time>2022-05-23 12:42:50</time>
      </trkpt>
      <trkpt lat="42.03935" lon="0.74069">
        <ele>1352.6</ele>
        <time>2022-05-23 12:42:51</time>
      </trkpt>
      <trkpt lat="42.03933" lon="0.74059">
        <ele>1352.2</ele>
        <time>2022-05-23 12:42:52</time>
      </trkpt>
      <trkpt lat="42.03931" lon="0.74051">
        <ele>1351.6</ele>
        <time>2022-05-23 12:42:53</time>
      </trkpt>
      <trkpt lat="42.03929" lon="0.74041">
        <ele>1351</ele>
        <time>2022-05-23 12:42:54</time>
      </trkpt>
      <trkpt lat="42.03927" lon="0.74033">
        <ele>1350.6</ele>
        <time>2022-05-23 12:42:55</time>
      </trkpt>
      <trkpt lat="42.03925" lon="0.74022">
        <ele>1350.2</ele>
        <time>2022-05-23 12:42:56</time>
      </trkpt>
      <trkpt lat="42.03923" lon="0.74013">
        <ele>1349.8</ele>
        <time>2022-05-23 12:42:57</time>
      </trkpt>
      <trkpt lat="42.03921" lon="0.74003">
        <ele>1349.4</ele>
        <time>2022-05-23 12:42:58</time>
      </trkpt>
      <trkpt lat="42.0392" lon="0.73995">
        <ele>1349</ele>
        <time>2022-05-23 12:42:59</time>
      </trkpt>
      <trkpt lat="42.03918" lon="0.73984">
        <ele>1348.8</ele>
        <time>2022-05-23 12:43:00</time>
      </trkpt>
      <trkpt lat="42.03917" lon="0.73976">
        <ele>1348.6</ele>
        <time>2022-05-23 12:43:01</time>
      </trkpt>
      <trkpt lat="42.03916" lon="0.73966">
        <ele>1348.2</ele>
        <time>2022-05-23 12:43:02</time>
      </trkpt>
      <trkpt lat="42.03916" lon="0.73958">
        <ele>1348</ele>
        <time>2022-05-23 12:43:03</time>
      </trkpt>
      <trkpt lat="42.03917" lon="0.73948">
        <ele>1347.8</ele>
        <time>2022-05-23 12:43:04</time>
      </trkpt>
      <trkpt lat="42.03917" lon="0.73939">
        <ele>1347.6</ele>
        <time>2022-05-23 12:43:05</time>
      </trkpt>
      <trkpt lat="42.03917" lon="0.7393">
        <ele>1347.2</ele>
        <time>2022-05-23 12:43:06</time>
      </trkpt>
      <trkpt lat="42.03918" lon="0.73922">
        <ele>1347</ele>
        <time>2022-05-23 12:43:07</time>
      </trkpt>
      <trkpt lat="42.03919" lon="0.7391">
        <ele>1346.4</ele>
        <time>2022-05-23 12:43:08</time>
      </trkpt>
      <trkpt lat="42.0392" lon="0.739">
        <ele>1346.2</ele>
        <time>2022-05-23 12:43:09</time>
      </trkpt>
      <trkpt lat="42.03922" lon="0.73889">
        <ele>1345.8</ele>
        <time>2022-05-23 12:43:10</time>
      </trkpt>
      <trkpt lat="42.03923" lon="0.73881">
        <ele>1345.2</ele>
        <time>2022-05-23 12:43:11</time>
      </trkpt>
      <trkpt lat="42.03924" lon="0.73869">
        <ele>1344.8</ele>
        <time>2022-05-23 12:43:12</time>
      </trkpt>
      <trkpt lat="42.03925" lon="0.73862">
        <ele>1344.2</ele>
        <time>2022-05-23 12:43:13</time>
      </trkpt>
      <trkpt lat="42.03927" lon="0.7385">
        <ele>1343.8</ele>
        <time>2022-05-23 12:43:14</time>
      </trkpt>
      <trkpt lat="42.03929" lon="0.73842">
        <ele>1343.4</ele>
        <time>2022-05-23 12:43:15</time>
      </trkpt>
      <trkpt lat="42.03932" lon="0.73831">
        <ele>1342.8</ele>
        <time>2022-05-23 12:43:16</time>
      </trkpt>
      <trkpt lat="42.03935" lon="0.73822">
        <ele>1342.2</ele>
        <time>2022-05-23 12:43:17</time>
      </trkpt>
      <trkpt lat="42.03938" lon="0.73811">
        <ele>1341.4</ele>
        <time>2022-05-23 12:43:18</time>
      </trkpt>
      <trkpt lat="42.03941" lon="0.73803">
        <ele>1340.8</ele>
        <time>2022-05-23 12:43:19</time>
      </trkpt>
      <trkpt lat="42.03944" lon="0.73792">
        <ele>1340</ele>
        <time>2022-05-23 12:43:20</time>
      </trkpt>
      <trkpt lat="42.03947" lon="0.73784">
        <ele>1339.4</ele>
        <time>2022-05-23 12:43:21</time>
      </trkpt>
      <trkpt lat="42.03952" lon="0.73774">
        <ele>1338.8</ele>
        <time>2022-05-23 12:43:22</time>
      </trkpt>
      <trkpt lat="42.03955" lon="0.73766">
        <ele>1338</ele>
        <time>2022-05-23 12:43:23</time>
      </trkpt>
      <trkpt lat="42.0396" lon="0.73755">
        <ele>1337.2</ele>
        <time>2022-05-23 12:43:24</time>
      </trkpt>
      <trkpt lat="42.03964" lon="0.73746">
        <ele>1336.4</ele>
        <time>2022-05-23 12:43:25</time>
      </trkpt>
      <trkpt lat="42.03969" lon="0.73735">
        <ele>1335.6</ele>
        <time>2022-05-23 12:43:26</time>
      </trkpt>
      <trkpt lat="42.03974" lon="0.73725">
        <ele>1334.8</ele>
        <time>2022-05-23 12:43:27</time>
      </trkpt>
      <trkpt lat="42.03978" lon="0.73715">
        <ele>1334.2</ele>
        <time>2022-05-23 12:43:28</time>
      </trkpt>
      <trkpt lat="42.03983" lon="0.73704">
        <ele>1333.6</ele>
        <time>2022-05-23 12:43:29</time>
      </trkpt>
      <trkpt lat="42.03988" lon="0.73697">
        <ele>1333</ele>
        <time>2022-05-23 12:43:30</time>
      </trkpt>
      <trkpt lat="42.03994" lon="0.73687">
        <ele>1332.4</ele>
        <time>2022-05-23 12:43:31</time>
      </trkpt>
      <trkpt lat="42.03999" lon="0.7368">
        <ele>1331.8</ele>
        <time>2022-05-23 12:43:32</time>
      </trkpt>
      <trkpt lat="42.04005" lon="0.73673">
        <ele>1331.2</ele>
        <time>2022-05-23 12:43:33</time>
      </trkpt>
      <trkpt lat="42.0401" lon="0.73669">
        <ele>1330.8</ele>
        <time>2022-05-23 12:43:34</time>
      </trkpt>
      <trkpt lat="42.04015" lon="0.73662">
        <ele>1330.4</ele>
        <time>2022-05-23 12:43:35</time>
      </trkpt>
      <trkpt lat="42.04017" lon="0.73657">
        <ele>1329.8</ele>
        <time>2022-05-23 12:43:36</time>
      </trkpt>
      <trkpt lat="42.04018" lon="0.7365">
        <ele>1329.2</ele>
        <time>2022-05-23 12:43:37</time>
      </trkpt>
      <trkpt lat="42.04016" lon="0.73644">
        <ele>1328.6</ele>
        <time>2022-05-23 12:43:38</time>
      </trkpt>
      <trkpt lat="42.04011" lon="0.73639">
        <ele>1328</ele>
        <time>2022-05-23 12:43:39</time>
      </trkpt>
      <trkpt lat="42.04005" lon="0.73636">
        <ele>1327.4</ele>
        <time>2022-05-23 12:43:40</time>
      </trkpt>
      <trkpt lat="42.03996" lon="0.73632">
        <ele>1326.8</ele>
        <time>2022-05-23 12:43:41</time>
      </trkpt>
      <trkpt lat="42.0399" lon="0.7363">
        <ele>1326.4</ele>
        <time>2022-05-23 12:43:42</time>
      </trkpt>
      <trkpt lat="42.03981" lon="0.73629">
        <ele>1325.6</ele>
        <time>2022-05-23 12:43:43</time>
      </trkpt>
      <trkpt lat="42.03975" lon="0.73631">
        <ele>1325.2</ele>
        <time>2022-05-23 12:43:44</time>
      </trkpt>
      <trkpt lat="42.03967" lon="0.73635">
        <ele>1324.6</ele>
        <time>2022-05-23 12:43:45</time>
      </trkpt>
      <trkpt lat="42.03961" lon="0.7364">
        <ele>1324</ele>
        <time>2022-05-23 12:43:46</time>
      </trkpt>
      <trkpt lat="42.03954" lon="0.73648">
        <ele>1323.4</ele>
        <time>2022-05-23 12:43:47</time>
      </trkpt>
      <trkpt lat="42.03949" lon="0.73656">
        <ele>1322.8</ele>
        <time>2022-05-23 12:43:48</time>
      </trkpt>
      <trkpt lat="42.03943" lon="0.73666">
        <ele>1322.2</ele>
        <time>2022-05-23 12:43:49</time>
      </trkpt>
      <trkpt lat="42.03938" lon="0.73674">
        <ele>1321.6</ele>
        <time>2022-05-23 12:43:50</time>
      </trkpt>
      <trkpt lat="42.03932" lon="0.73685">
        <ele>1321</ele>
        <time>2022-05-23 12:43:51</time>
      </trkpt>
      <trkpt lat="42.03928" lon="0.73694">
        <ele>1320.4</ele>
        <time>2022-05-23 12:43:52</time>
      </trkpt>
      <trkpt lat="42.03923" lon="0.73705">
        <ele>1319.8</ele>
        <time>2022-05-23 12:43:53</time>
      </trkpt>
      <trkpt lat="42.03918" lon="0.73717">
        <ele>1319.2</ele>
        <time>2022-05-23 12:43:54</time>
      </trkpt>
      <trkpt lat="42.03914" lon="0.73728">
        <ele>1318.6</ele>
        <time>2022-05-23 12:43:55</time>
      </trkpt>
      <trkpt lat="42.0391" lon="0.7374">
        <ele>1318.2</ele>
        <time>2022-05-23 12:43:56</time>
      </trkpt>
      <trkpt lat="42.03906" lon="0.73753">
        <ele>1317.8</ele>
        <time>2022-05-23 12:43:57</time>
      </trkpt>
      <trkpt lat="42.03904" lon="0.73762">
        <ele>1317.4</ele>
        <time>2022-05-23 12:43:58</time>
      </trkpt>
      <trkpt lat="42.03901" lon="0.73775">
        <ele>1317.2</ele>
        <time>2022-05-23 12:43:59</time>
      </trkpt>
      <trkpt lat="42.03898" lon="0.73785">
        <ele>1317</ele>
        <time>2022-05-23 12:44:00</time>
      </trkpt>
      <trkpt lat="42.03893" lon="0.73796">
        <ele>1317</ele>
        <time>2022-05-23 12:44:01</time>
      </trkpt>
      <trkpt lat="42.03889" lon="0.73801">
        <ele>1316.8</ele>
        <time>2022-05-23 12:44:02</time>
      </trkpt>
      <trkpt lat="42.03883" lon="0.73809">
        <ele>1316.8</ele>
        <time>2022-05-23 12:44:03</time>
      </trkpt>
      <trkpt lat="42.03879" lon="0.73814">
        <ele>1317</ele>
        <time>2022-05-23 12:44:04</time>
      </trkpt>
      <trkpt lat="42.03874" lon="0.7382">
        <ele>1317.2</ele>
        <time>2022-05-23 12:44:05</time>
      </trkpt>
      <trkpt lat="42.0387" lon="0.73825">
        <ele>1317.2</ele>
        <time>2022-05-23 12:44:06</time>
      </trkpt>
      <trkpt lat="42.03865" lon="0.73831">
        <ele>1317.4</ele>
        <time>2022-05-23 12:44:07</time>
      </trkpt>
      <trkpt lat="42.03862" lon="0.73836">
        <ele>1317.6</ele>
        <time>2022-05-23 12:44:08</time>
      </trkpt>
      <trkpt lat="42.03858" lon="0.73842">
        <ele>1317.8</ele>
        <time>2022-05-23 12:44:09</time>
      </trkpt>
      <trkpt lat="42.03854" lon="0.73847">
        <ele>1317.8</ele>
        <time>2022-05-23 12:44:10</time>
      </trkpt>
      <trkpt lat="42.0385" lon="0.73852">
        <ele>1317.8</ele>
        <time>2022-05-23 12:44:11</time>
      </trkpt>
      <trkpt lat="42.03847" lon="0.73857">
        <ele>1317.8</ele>
        <time>2022-05-23 12:44:12</time>
      </trkpt>
      <trkpt lat="42.03842" lon="0.73864">
        <ele>1317.8</ele>
        <time>2022-05-23 12:44:13</time>
      </trkpt>
      <trkpt lat="42.03838" lon="0.73869">
        <ele>1317.8</ele>
        <time>2022-05-23 12:44:14</time>
      </trkpt>
      <trkpt lat="42.03833" lon="0.73875">
        <ele>1317.6</ele>
        <time>2022-05-23 12:44:15</time>
      </trkpt>
      <trkpt lat="42.0383" lon="0.73881">
        <ele>1317.6</ele>
        <time>2022-05-23 12:44:16</time>
      </trkpt>
      <trkpt lat="42.03825" lon="0.73888">
        <ele>1317.4</ele>
        <time>2022-05-23 12:44:17</time>
      </trkpt>
      <trkpt lat="42.03822" lon="0.73893">
        <ele>1317.4</ele>
        <time>2022-05-23 12:44:18</time>
      </trkpt>
      <trkpt lat="42.03818" lon="0.739">
        <ele>1317.2</ele>
        <time>2022-05-23 12:44:19</time>
      </trkpt>
      <trkpt lat="42.03815" lon="0.73905">
        <ele>1317.2</ele>
        <time>2022-05-23 12:44:20</time>
      </trkpt>
      <trkpt lat="42.03811" lon="0.73912">
        <ele>1317.2</ele>
        <time>2022-05-23 12:44:21</time>
      </trkpt>
      <trkpt lat="42.0381" lon="0.73917">
        <ele>1317.2</ele>
        <time>2022-05-23 12:44:22</time>
      </trkpt>
      <trkpt lat="42.03807" lon="0.73925">
        <ele>1317.2</ele>
        <time>2022-05-23 12:44:23</time>
      </trkpt>
      <trkpt lat="42.03806" lon="0.73931">
        <ele>1317.2</ele>
        <time>2022-05-23 12:44:24</time>
      </trkpt>
      <trkpt lat="42.03806" lon="0.73939">
        <ele>1317.4</ele>
        <time>2022-05-23 12:44:25</time>
      </trkpt>
      <trkpt lat="42.03805" lon="0.73945">
        <ele>1317.4</ele>
        <time>2022-05-23 12:44:26</time>
      </trkpt>
      <trkpt lat="42.03805" lon="0.73954">
        <ele>1317.4</ele>
        <time>2022-05-23 12:44:27</time>
      </trkpt>
      <trkpt lat="42.03806" lon="0.73959">
        <ele>1317.6</ele>
        <time>2022-05-23 12:44:28</time>
      </trkpt>
      <trkpt lat="42.03807" lon="0.73967">
        <ele>1317.6</ele>
        <time>2022-05-23 12:44:29</time>
      </trkpt>
      <trkpt lat="42.03808" lon="0.73973">
        <ele>1317.8</ele>
        <time>2022-05-23 12:44:30</time>
      </trkpt>
      <trkpt lat="42.03809" lon="0.7398">
        <ele>1318</ele>
        <time>2022-05-23 12:44:31</time>
      </trkpt>
      <trkpt lat="42.0381" lon="0.73985">
        <ele>1318</ele>
        <time>2022-05-23 12:44:32</time>
      </trkpt>
      <trkpt lat="42.03811" lon="0.73993">
        <ele>1318.2</ele>
        <time>2022-05-23 12:44:33</time>
      </trkpt>
      <trkpt lat="42.03812" lon="0.73998">
        <ele>1318.4</ele>
        <time>2022-05-23 12:44:34</time>
      </trkpt>
      <trkpt lat="42.03813" lon="0.74006">
        <ele>1318.6</ele>
        <time>2022-05-23 12:44:35</time>
      </trkpt>
      <trkpt lat="42.03813" lon="0.74011">
        <ele>1318.8</ele>
        <time>2022-05-23 12:44:36</time>
      </trkpt>
      <trkpt lat="42.03814" lon="0.74018">
        <ele>1318.8</ele>
        <time>2022-05-23 12:44:37</time>
      </trkpt>
      <trkpt lat="42.03815" lon="0.74023">
        <ele>1318.8</ele>
        <time>2022-05-23 12:44:38</time>
      </trkpt>
      <trkpt lat="42.03815" lon="0.74029">
        <ele>1318.8</ele>
        <time>2022-05-23 12:44:39</time>
      </trkpt>
      <trkpt lat="42.03816" lon="0.74035">
        <ele>1319</ele>
        <time>2022-05-23 12:44:40</time>
      </trkpt>
      <trkpt lat="42.03816" lon="0.74041">
        <ele>1319</ele>
        <time>2022-05-23 12:44:41</time>
      </trkpt>
      <trkpt lat="42.03815" lon="0.74045">
        <ele>1319.2</ele>
        <time>2022-05-23 12:44:42</time>
      </trkpt>
      <trkpt lat="42.03814" lon="0.74052">
        <ele>1319.2</ele>
        <time>2022-05-23 12:44:43</time>
      </trkpt>
      <trkpt lat="42.03814" lon="0.74057">
        <ele>1319.4</ele>
        <time>2022-05-23 12:44:44</time>
      </trkpt>
      <trkpt lat="42.03813" lon="0.74061">
        <ele>1319.6</ele>
        <time>2022-05-23 12:44:45</time>
      </trkpt>
      <trkpt lat="42.03812" lon="0.74066">
        <ele>1319.8</ele>
        <time>2022-05-23 12:44:46</time>
      </trkpt>
      <trkpt lat="42.03811" lon="0.7407">
        <ele>1320</ele>
        <time>2022-05-23 12:44:47</time>
      </trkpt>
      <trkpt lat="42.03811" lon="0.74074">
        <ele>1320.2</ele>
        <time>2022-05-23 12:44:48</time>
      </trkpt>
      <trkpt lat="42.0381" lon="0.74078">
        <ele>1320.2</ele>
        <time>2022-05-23 12:44:49</time>
      </trkpt>
      <trkpt lat="42.03809" lon="0.74082">
        <ele>1320.4</ele>
        <time>2022-05-23 12:44:50</time>
      </trkpt>
      <trkpt lat="42.03809" lon="0.74085">
        <ele>1320.6</ele>
        <time>2022-05-23 12:44:51</time>
      </trkpt>
      <trkpt lat="42.03808" lon="0.74089">
        <ele>1320.8</ele>
        <time>2022-05-23 12:44:52</time>
      </trkpt>
      <trkpt lat="42.03807" lon="0.74092">
        <ele>1321</ele>
        <time>2022-05-23 12:44:53</time>
      </trkpt>
      <trkpt lat="42.03806" lon="0.74095">
        <ele>1321.2</ele>
        <time>2022-05-23 12:44:54</time>
      </trkpt>
      <trkpt lat="42.03805" lon="0.74098">
        <ele>1321.4</ele>
        <time>2022-05-23 12:44:55</time>
      </trkpt>
      <trkpt lat="42.03804" lon="0.74102">
        <ele>1321.6</ele>
        <time>2022-05-23 12:44:56</time>
      </trkpt>
      <trkpt lat="42.03804" lon="0.74105">
        <ele>1321.8</ele>
        <time>2022-05-23 12:44:57</time>
      </trkpt>
      <trkpt lat="42.03803" lon="0.74108">
        <ele>1322.2</ele>
        <time>2022-05-23 12:44:58</time>
      </trkpt>
      <trkpt lat="42.03803" lon="0.74111">
        <ele>1322.4</ele>
        <time>2022-05-23 12:44:59</time>
      </trkpt>
      <trkpt lat="42.03802" lon="0.74114">
        <ele>1322.6</ele>
        <time>2022-05-23 12:45:00</time>
      </trkpt>
      <trkpt lat="42.03801" lon="0.74117">
        <ele>1322.8</ele>
        <time>2022-05-23 12:45:01</time>
      </trkpt>
      <trkpt lat="42.03799" lon="0.7412">
        <ele>1323</ele>
        <time>2022-05-23 12:45:02</time>
      </trkpt>
      <trkpt lat="42.03799" lon="0.74122">
        <ele>1323</ele>
        <time>2022-05-23 12:45:03</time>
      </trkpt>
      <trkpt lat="42.03798" lon="0.74125">
        <ele>1323.2</ele>
        <time>2022-05-23 12:45:04</time>
      </trkpt>
      <trkpt lat="42.03796" lon="0.74129">
        <ele>1323.4</ele>
        <time>2022-05-23 12:45:05</time>
      </trkpt>
      <trkpt lat="42.03795" lon="0.74132">
        <ele>1323.6</ele>
        <time>2022-05-23 12:45:06</time>
      </trkpt>
      <trkpt lat="42.03793" lon="0.74134">
        <ele>1323.8</ele>
        <time>2022-05-23 12:45:07</time>
      </trkpt>
      <trkpt lat="42.03791" lon="0.74137">
        <ele>1323.8</ele>
        <time>2022-05-23 12:45:08</time>
      </trkpt>
      <trkpt lat="42.03789" lon="0.74139">
        <ele>1324</ele>
        <time>2022-05-23 12:45:09</time>
      </trkpt>
      <trkpt lat="42.03787" lon="0.74141">
        <ele>1324.2</ele>
        <time>2022-05-23 12:45:10</time>
      </trkpt>
      <trkpt lat="42.03784" lon="0.74141">
        <ele>1324.2</ele>
        <time>2022-05-23 12:45:11</time>
      </trkpt>
      <trkpt lat="42.03782" lon="0.74142">
        <ele>1324.2</ele>
        <time>2022-05-23 12:45:12</time>
      </trkpt>
      <trkpt lat="42.03779" lon="0.74141">
        <ele>1324.2</ele>
        <time>2022-05-23 12:45:13</time>
      </trkpt>
      <trkpt lat="42.03777" lon="0.7414">
        <ele>1324.2</ele>
        <time>2022-05-23 12:45:14</time>
      </trkpt>
      <trkpt lat="42.03774" lon="0.74137">
        <ele>1324.4</ele>
        <time>2022-05-23 12:45:15</time>
      </trkpt>
      <trkpt lat="42.03771" lon="0.74135">
        <ele>1324.4</ele>
        <time>2022-05-23 12:45:16</time>
      </trkpt>
      <trkpt lat="42.03769" lon="0.74132">
        <ele>1324.6</ele>
        <time>2022-05-23 12:45:17</time>
      </trkpt>
      <trkpt lat="42.03767" lon="0.7413">
        <ele>1324.8</ele>
        <time>2022-05-23 12:45:18</time>
      </trkpt>
      <trkpt lat="42.03765" lon="0.74128">
        <ele>1325</ele>
        <time>2022-05-23 12:45:19</time>
      </trkpt>
      <trkpt lat="42.03763" lon="0.74126">
        <ele>1325</ele>
        <time>2022-05-23 12:45:20</time>
      </trkpt>
      <trkpt lat="42.03761" lon="0.74124">
        <ele>1325.2</ele>
        <time>2022-05-23 12:45:21</time>
      </trkpt>
      <trkpt lat="42.03759" lon="0.74122">
        <ele>1325.4</ele>
        <time>2022-05-23 12:45:22</time>
      </trkpt>
      <trkpt lat="42.03758" lon="0.7412">
        <ele>1325.6</ele>
        <time>2022-05-23 12:45:23</time>
      </trkpt>
      <trkpt lat="42.03756" lon="0.74118">
        <ele>1325.6</ele>
        <time>2022-05-23 12:45:24</time>
      </trkpt>
      <trkpt lat="42.03754" lon="0.74115">
        <ele>1325.8</ele>
        <time>2022-05-23 12:45:25</time>
      </trkpt>
      <trkpt lat="42.03751" lon="0.74113">
        <ele>1326</ele>
        <time>2022-05-23 12:45:26</time>
      </trkpt>
      <trkpt lat="42.03749" lon="0.74111">
        <ele>1326.2</ele>
        <time>2022-05-23 12:45:27</time>
      </trkpt>
      <trkpt lat="42.03746" lon="0.7411">
        <ele>1326.4</ele>
        <time>2022-05-23 12:45:28</time>
      </trkpt>
      <trkpt lat="42.03743" lon="0.74109">
        <ele>1326.4</ele>
        <time>2022-05-23 12:45:29</time>
      </trkpt>
      <trkpt lat="42.03741" lon="0.74108">
        <ele>1326.6</ele>
        <time>2022-05-23 12:45:30</time>
      </trkpt>
      <trkpt lat="42.03738" lon="0.74108">
        <ele>1326.6</ele>
        <time>2022-05-23 12:45:31</time>
      </trkpt>
      <trkpt lat="42.03735" lon="0.74108">
        <ele>1326.6</ele>
        <time>2022-05-23 12:45:32</time>
      </trkpt>
      <trkpt lat="42.03733" lon="0.74108">
        <ele>1326.8</ele>
        <time>2022-05-23 12:45:33</time>
      </trkpt>
      <trkpt lat="42.0373" lon="0.74108">
        <ele>1326.8</ele>
        <time>2022-05-23 12:45:34</time>
      </trkpt>
      <trkpt lat="42.03727" lon="0.74108">
        <ele>1326.8</ele>
        <time>2022-05-23 12:45:35</time>
      </trkpt>
      <trkpt lat="42.03723" lon="0.74109">
        <ele>1326.8</ele>
        <time>2022-05-23 12:45:36</time>
      </trkpt>
      <trkpt lat="42.0372" lon="0.7411">
        <ele>1326.6</ele>
        <time>2022-05-23 12:45:37</time>
      </trkpt>
      <trkpt lat="42.03716" lon="0.7411">
        <ele>1326.6</ele>
        <time>2022-05-23 12:45:38</time>
      </trkpt>
      <trkpt lat="42.03713" lon="0.7411">
        <ele>1326.6</ele>
        <time>2022-05-23 12:45:39</time>
      </trkpt>
      <trkpt lat="42.03709" lon="0.7411">
        <ele>1326.4</ele>
        <time>2022-05-23 12:45:40</time>
      </trkpt>
      <trkpt lat="42.03705" lon="0.7411">
        <ele>1326.4</ele>
        <time>2022-05-23 12:45:41</time>
      </trkpt>
      <trkpt lat="42.03701" lon="0.7411">
        <ele>1326.2</ele>
        <time>2022-05-23 12:45:42</time>
      </trkpt>
      <trkpt lat="42.03696" lon="0.74109">
        <ele>1326</ele>
        <time>2022-05-23 12:45:43</time>
      </trkpt>
      <trkpt lat="42.03692" lon="0.74108">
        <ele>1325.8</ele>
        <time>2022-05-23 12:45:44</time>
      </trkpt>
      <trkpt lat="42.03687" lon="0.74106">
        <ele>1325.8</ele>
        <time>2022-05-23 12:45:45</time>
      </trkpt>
      <trkpt lat="42.03683" lon="0.74104">
        <ele>1325.8</ele>
        <time>2022-05-23 12:45:46</time>
      </trkpt>
      <trkpt lat="42.03679" lon="0.74102">
        <ele>1325.8</ele>
        <time>2022-05-23 12:45:47</time>
      </trkpt>
      <trkpt lat="42.03675" lon="0.74099">
        <ele>1325.8</ele>
        <time>2022-05-23 12:45:48</time>
      </trkpt>
      <trkpt lat="42.03671" lon="0.74097">
        <ele>1325.6</ele>
        <time>2022-05-23 12:45:49</time>
      </trkpt>
      <trkpt lat="42.03667" lon="0.74094">
        <ele>1325.6</ele>
        <time>2022-05-23 12:45:50</time>
      </trkpt>
      <trkpt lat="42.03663" lon="0.74091">
        <ele>1325.4</ele>
        <time>2022-05-23 12:45:51</time>
      </trkpt>
      <trkpt lat="42.0366" lon="0.74087">
        <ele>1325.2</ele>
        <time>2022-05-23 12:45:52</time>
      </trkpt>
      <trkpt lat="42.03656" lon="0.74083">
        <ele>1325.2</ele>
        <time>2022-05-23 12:45:53</time>
      </trkpt>
      <trkpt lat="42.03652" lon="0.74078">
        <ele>1325</ele>
        <time>2022-05-23 12:45:54</time>
      </trkpt>
      <trkpt lat="42.0365" lon="0.74074">
        <ele>1325</ele>
        <time>2022-05-23 12:45:55</time>
      </trkpt>
      <trkpt lat="42.03647" lon="0.74069">
        <ele>1325</ele>
        <time>2022-05-23 12:45:56</time>
      </trkpt>
      <trkpt lat="42.03645" lon="0.74064">
        <ele>1324.8</ele>
        <time>2022-05-23 12:45:57</time>
      </trkpt>
      <trkpt lat="42.03643" lon="0.74058">
        <ele>1324.8</ele>
        <time>2022-05-23 12:45:58</time>
      </trkpt>
      <trkpt lat="42.03641" lon="0.74053">
        <ele>1324.8</ele>
        <time>2022-05-23 12:45:59</time>
      </trkpt>
      <trkpt lat="42.03638" lon="0.74048">
        <ele>1324.8</ele>
        <time>2022-05-23 12:46:00</time>
      </trkpt>
      <trkpt lat="42.03636" lon="0.74043">
        <ele>1324.8</ele>
        <time>2022-05-23 12:46:01</time>
      </trkpt>
      <trkpt lat="42.03634" lon="0.74038">
        <ele>1324.8</ele>
        <time>2022-05-23 12:46:02</time>
      </trkpt>
      <trkpt lat="42.03632" lon="0.74033">
        <ele>1324.6</ele>
        <time>2022-05-23 12:46:03</time>
      </trkpt>
      <trkpt lat="42.03631" lon="0.74027">
        <ele>1324.6</ele>
        <time>2022-05-23 12:46:04</time>
      </trkpt>
      <trkpt lat="42.03629" lon="0.74022">
        <ele>1324.6</ele>
        <time>2022-05-23 12:46:05</time>
      </trkpt>
      <trkpt lat="42.03627" lon="0.74017">
        <ele>1324.6</ele>
        <time>2022-05-23 12:46:06</time>
      </trkpt>
      <trkpt lat="42.03625" lon="0.74011">
        <ele>1324.8</ele>
        <time>2022-05-23 12:46:07</time>
      </trkpt>
      <trkpt lat="42.03624" lon="0.74006">
        <ele>1324.8</ele>
        <time>2022-05-23 12:46:08</time>
      </trkpt>
      <trkpt lat="42.03622" lon="0.74001">
        <ele>1324.8</ele>
        <time>2022-05-23 12:46:09</time>
      </trkpt>
      <trkpt lat="42.03621" lon="0.73995">
        <ele>1325</ele>
        <time>2022-05-23 12:46:10</time>
      </trkpt>
      <trkpt lat="42.0362" lon="0.7399">
        <ele>1325</ele>
        <time>2022-05-23 12:46:11</time>
      </trkpt>
      <trkpt lat="42.03619" lon="0.73984">
        <ele>1325.2</ele>
        <time>2022-05-23 12:46:12</time>
      </trkpt>
      <trkpt lat="42.03617" lon="0.73979">
        <ele>1325.2</ele>
        <time>2022-05-23 12:46:13</time>
      </trkpt>
      <trkpt lat="42.03616" lon="0.73974">
        <ele>1325.4</ele>
        <time>2022-05-23 12:46:14</time>
      </trkpt>
      <trkpt lat="42.03616" lon="0.73969">
        <ele>1325.4</ele>
        <time>2022-05-23 12:46:15</time>
      </trkpt>
      <trkpt lat="42.03615" lon="0.73963">
        <ele>1325.4</ele>
        <time>2022-05-23 12:46:16</time>
      </trkpt>
      <trkpt lat="42.03614" lon="0.73957">
        <ele>1325.6</ele>
        <time>2022-05-23 12:46:17</time>
      </trkpt>
      <trkpt lat="42.03614" lon="0.73951">
        <ele>1325.4</ele>
        <time>2022-05-23 12:46:18</time>
      </trkpt>
      <trkpt lat="42.03614" lon="0.73945">
        <ele>1325.4</ele>
        <time>2022-05-23 12:46:19</time>
      </trkpt>
      <trkpt lat="42.03613" lon="0.73939">
        <ele>1325.4</ele>
        <time>2022-05-23 12:46:20</time>
      </trkpt>
      <trkpt lat="42.03613" lon="0.73933">
        <ele>1325.4</ele>
        <time>2022-05-23 12:46:21</time>
      </trkpt>
      <trkpt lat="42.03613" lon="0.73926">
        <ele>1325.4</ele>
        <time>2022-05-23 12:46:22</time>
      </trkpt>
      <trkpt lat="42.03613" lon="0.7392">
        <ele>1325.4</ele>
        <time>2022-05-23 12:46:23</time>
      </trkpt>
      <trkpt lat="42.03613" lon="0.73914">
        <ele>1325.4</ele>
        <time>2022-05-23 12:46:24</time>
      </trkpt>
      <trkpt lat="42.03613" lon="0.73908">
        <ele>1325.4</ele>
        <time>2022-05-23 12:46:25</time>
      </trkpt>
      <trkpt lat="42.03613" lon="0.73903">
        <ele>1325.4</ele>
        <time>2022-05-23 12:46:26</time>
      </trkpt>
      <trkpt lat="42.03613" lon="0.73897">
        <ele>1325.2</ele>
        <time>2022-05-23 12:46:27</time>
      </trkpt>
      <trkpt lat="42.03612" lon="0.73891">
        <ele>1325.2</ele>
        <time>2022-05-23 12:46:28</time>
      </trkpt>
      <trkpt lat="42.03612" lon="0.73885">
        <ele>1325.2</ele>
        <time>2022-05-23 12:46:29</time>
      </trkpt>
      <trkpt lat="42.03612" lon="0.73879">
        <ele>1325</ele>
        <time>2022-05-23 12:46:30</time>
      </trkpt>
      <trkpt lat="42.03611" lon="0.73873">
        <ele>1325</ele>
        <time>2022-05-23 12:46:31</time>
      </trkpt>
      <trkpt lat="42.03611" lon="0.73866">
        <ele>1324.8</ele>
        <time>2022-05-23 12:46:32</time>
      </trkpt>
      <trkpt lat="42.03611" lon="0.73859">
        <ele>1324.6</ele>
        <time>2022-05-23 12:46:33</time>
      </trkpt>
      <trkpt lat="42.03611" lon="0.73851">
        <ele>1324.2</ele>
        <time>2022-05-23 12:46:34</time>
      </trkpt>
      <trkpt lat="42.0361" lon="0.73843">
        <ele>1323.8</ele>
        <time>2022-05-23 12:46:35</time>
      </trkpt>
      <trkpt lat="42.0361" lon="0.73834">
        <ele>1323.6</ele>
        <time>2022-05-23 12:46:36</time>
      </trkpt>
      <trkpt lat="42.0361" lon="0.73825">
        <ele>1323.2</ele>
        <time>2022-05-23 12:46:37</time>
      </trkpt>
      <trkpt lat="42.0361" lon="0.73816">
        <ele>1322.8</ele>
        <time>2022-05-23 12:46:38</time>
      </trkpt>
      <trkpt lat="42.0361" lon="0.73807">
        <ele>1322.4</ele>
        <time>2022-05-23 12:46:39</time>
      </trkpt>
      <trkpt lat="42.03611" lon="0.73797">
        <ele>1322</ele>
        <time>2022-05-23 12:46:40</time>
      </trkpt>
      <trkpt lat="42.03611" lon="0.73787">
        <ele>1321.4</ele>
        <time>2022-05-23 12:46:41</time>
      </trkpt>
      <trkpt lat="42.03611" lon="0.73777">
        <ele>1321</ele>
        <time>2022-05-23 12:46:42</time>
      </trkpt>
      <trkpt lat="42.03611" lon="0.73767">
        <ele>1320.4</ele>
        <time>2022-05-23 12:46:43</time>
      </trkpt>
      <trkpt lat="42.03609" lon="0.73756">
        <ele>1319.6</ele>
        <time>2022-05-23 12:46:44</time>
      </trkpt>
      <trkpt lat="42.03607" lon="0.73745">
        <ele>1319</ele>
        <time>2022-05-23 12:46:45</time>
      </trkpt>
      <trkpt lat="42.03605" lon="0.73734">
        <ele>1318.2</ele>
        <time>2022-05-23 12:46:46</time>
      </trkpt>
      <trkpt lat="42.03603" lon="0.73723">
        <ele>1317.6</ele>
        <time>2022-05-23 12:46:47</time>
      </trkpt>
      <trkpt lat="42.036" lon="0.73711">
        <ele>1317</ele>
        <time>2022-05-23 12:46:48</time>
      </trkpt>
      <trkpt lat="42.03598" lon="0.737">
        <ele>1316.4</ele>
        <time>2022-05-23 12:46:49</time>
      </trkpt>
      <trkpt lat="42.03596" lon="0.73689">
        <ele>1315.8</ele>
        <time>2022-05-23 12:46:50</time>
      </trkpt>
      <trkpt lat="42.03593" lon="0.73678">
        <ele>1315.2</ele>
        <time>2022-05-23 12:46:51</time>
      </trkpt>
      <trkpt lat="42.03591" lon="0.73666">
        <ele>1314.4</ele>
        <time>2022-05-23 12:46:52</time>
      </trkpt>
      <trkpt lat="42.03589" lon="0.73655">
        <ele>1313.6</ele>
        <time>2022-05-23 12:46:53</time>
      </trkpt>
      <trkpt lat="42.03587" lon="0.73643">
        <ele>1312.8</ele>
        <time>2022-05-23 12:46:54</time>
      </trkpt>
      <trkpt lat="42.03587" lon="0.73631">
        <ele>1312</ele>
        <time>2022-05-23 12:46:55</time>
      </trkpt>
      <trkpt lat="42.03586" lon="0.73618">
        <ele>1311.2</ele>
        <time>2022-05-23 12:46:56</time>
      </trkpt>
      <trkpt lat="42.03585" lon="0.73607">
        <ele>1310.6</ele>
        <time>2022-05-23 12:46:57</time>
      </trkpt>
      <trkpt lat="42.03585" lon="0.73594">
        <ele>1310</ele>
        <time>2022-05-23 12:46:58</time>
      </trkpt>
      <trkpt lat="42.03584" lon="0.73581">
        <ele>1309.4</ele>
        <time>2022-05-23 12:46:59</time>
      </trkpt>
      <trkpt lat="42.03583" lon="0.73567">
        <ele>1308.8</ele>
        <time>2022-05-23 12:47:00</time>
      </trkpt>
      <trkpt lat="42.03582" lon="0.73554">
        <ele>1308</ele>
        <time>2022-05-23 12:47:01</time>
      </trkpt>
      <trkpt lat="42.03582" lon="0.73541">
        <ele>1307.2</ele>
        <time>2022-05-23 12:47:02</time>
      </trkpt>
      <trkpt lat="42.03582" lon="0.73528">
        <ele>1306.4</ele>
        <time>2022-05-23 12:47:03</time>
      </trkpt>
      <trkpt lat="42.03582" lon="0.73516">
        <ele>1305.6</ele>
        <time>2022-05-23 12:47:04</time>
      </trkpt>
      <trkpt lat="42.03582" lon="0.73505">
        <ele>1305</ele>
        <time>2022-05-23 12:47:05</time>
      </trkpt>
      <trkpt lat="42.03582" lon="0.73495">
        <ele>1304.2</ele>
        <time>2022-05-23 12:47:06</time>
      </trkpt>
      <trkpt lat="42.03582" lon="0.73485">
        <ele>1303.6</ele>
        <time>2022-05-23 12:47:07</time>
      </trkpt>
      <trkpt lat="42.03584" lon="0.73475">
        <ele>1302.8</ele>
        <time>2022-05-23 12:47:08</time>
      </trkpt>
      <trkpt lat="42.03585" lon="0.73464">
        <ele>1302.2</ele>
        <time>2022-05-23 12:47:09</time>
      </trkpt>
      <trkpt lat="42.03586" lon="0.73453">
        <ele>1301.4</ele>
        <time>2022-05-23 12:47:10</time>
      </trkpt>
      <trkpt lat="42.03587" lon="0.73442">
        <ele>1300.8</ele>
        <time>2022-05-23 12:47:11</time>
      </trkpt>
      <trkpt lat="42.03588" lon="0.73431">
        <ele>1300.2</ele>
        <time>2022-05-23 12:47:12</time>
      </trkpt>
      <trkpt lat="42.03589" lon="0.7342">
        <ele>1299.8</ele>
        <time>2022-05-23 12:47:13</time>
      </trkpt>
      <trkpt lat="42.0359" lon="0.73411">
        <ele>1299.4</ele>
        <time>2022-05-23 12:47:14</time>
      </trkpt>
      <trkpt lat="42.03591" lon="0.73402">
        <ele>1299</ele>
        <time>2022-05-23 12:47:15</time>
      </trkpt>
      <trkpt lat="42.03592" lon="0.73396">
        <ele>1298.6</ele>
        <time>2022-05-23 12:47:16</time>
      </trkpt>
      <trkpt lat="42.0359" lon="0.7339">
        <ele>1298.2</ele>
        <time>2022-05-23 12:47:17</time>
      </trkpt>
      <trkpt lat="42.03588" lon="0.73387">
        <ele>1297.6</ele>
        <time>2022-05-23 12:47:18</time>
      </trkpt>
      <trkpt lat="42.03584" lon="0.73387">
        <ele>1297.2</ele>
        <time>2022-05-23 12:47:19</time>
      </trkpt>
      <trkpt lat="42.0358" lon="0.7339">
        <ele>1296.8</ele>
        <time>2022-05-23 12:47:20</time>
      </trkpt>
      <trkpt lat="42.03578" lon="0.73394">
        <ele>1296.4</ele>
        <time>2022-05-23 12:47:21</time>
      </trkpt>
      <trkpt lat="42.03576" lon="0.73401">
        <ele>1296</ele>
        <time>2022-05-23 12:47:22</time>
      </trkpt>
      <trkpt lat="42.03574" lon="0.73406">
        <ele>1295.6</ele>
        <time>2022-05-23 12:47:23</time>
      </trkpt>
      <trkpt lat="42.03571" lon="0.73415">
        <ele>1295.2</ele>
        <time>2022-05-23 12:47:24</time>
      </trkpt>
      <trkpt lat="42.03568" lon="0.73423">
        <ele>1294.8</ele>
        <time>2022-05-23 12:47:25</time>
      </trkpt>
      <trkpt lat="42.03565" lon="0.73432">
        <ele>1294.2</ele>
        <time>2022-05-23 12:47:26</time>
      </trkpt>
      <trkpt lat="42.03561" lon="0.7344">
        <ele>1293.6</ele>
        <time>2022-05-23 12:47:27</time>
      </trkpt>
      <trkpt lat="42.03557" lon="0.73448">
        <ele>1293.2</ele>
        <time>2022-05-23 12:47:28</time>
      </trkpt>
      <trkpt lat="42.03554" lon="0.73456">
        <ele>1292.8</ele>
        <time>2022-05-23 12:47:29</time>
      </trkpt>
      <trkpt lat="42.03552" lon="0.73464">
        <ele>1292.2</ele>
        <time>2022-05-23 12:47:30</time>
      </trkpt>
      <trkpt lat="42.03551" lon="0.73471">
        <ele>1291.8</ele>
        <time>2022-05-23 12:47:31</time>
      </trkpt>
      <trkpt lat="42.03549" lon="0.73478">
        <ele>1291.2</ele>
        <time>2022-05-23 12:47:32</time>
      </trkpt>
      <trkpt lat="42.03546" lon="0.73484">
        <ele>1290.8</ele>
        <time>2022-05-23 12:47:33</time>
      </trkpt>
      <trkpt lat="42.03543" lon="0.73489">
        <ele>1290.4</ele>
        <time>2022-05-23 12:47:34</time>
      </trkpt>
      <trkpt lat="42.03538" lon="0.73488">
        <ele>1289.8</ele>
        <time>2022-05-23 12:47:35</time>
      </trkpt>
      <trkpt lat="42.03536" lon="0.73483">
        <ele>1289.4</ele>
        <time>2022-05-23 12:47:36</time>
      </trkpt>
      <trkpt lat="42.03536" lon="0.73476">
        <ele>1288.8</ele>
        <time>2022-05-23 12:47:37</time>
      </trkpt>
      <trkpt lat="42.03537" lon="0.73468">
        <ele>1288.2</ele>
        <time>2022-05-23 12:47:38</time>
      </trkpt>
      <trkpt lat="42.03539" lon="0.7346">
        <ele>1287.6</ele>
        <time>2022-05-23 12:47:39</time>
      </trkpt>
      <trkpt lat="42.03539" lon="0.73452">
        <ele>1287</ele>
        <time>2022-05-23 12:47:40</time>
      </trkpt>
      <trkpt lat="42.0354" lon="0.73442">
        <ele>1286.4</ele>
        <time>2022-05-23 12:47:41</time>
      </trkpt>
      <trkpt lat="42.0354" lon="0.73433">
        <ele>1285.8</ele>
        <time>2022-05-23 12:47:42</time>
      </trkpt>
      <trkpt lat="42.0354" lon="0.73424">
        <ele>1285.2</ele>
        <time>2022-05-23 12:47:43</time>
      </trkpt>
      <trkpt lat="42.0354" lon="0.73415">
        <ele>1284.4</ele>
        <time>2022-05-23 12:47:44</time>
      </trkpt>
      <trkpt lat="42.03537" lon="0.73405">
        <ele>1283.8</ele>
        <time>2022-05-23 12:47:45</time>
      </trkpt>
      <trkpt lat="42.03535" lon="0.73395">
        <ele>1283</ele>
        <time>2022-05-23 12:47:46</time>
      </trkpt>
      <trkpt lat="42.03533" lon="0.73384">
        <ele>1282.4</ele>
        <time>2022-05-23 12:47:47</time>
      </trkpt>
      <trkpt lat="42.03531" lon="0.73373">
        <ele>1281.6</ele>
        <time>2022-05-23 12:47:48</time>
      </trkpt>
      <trkpt lat="42.0353" lon="0.73362">
        <ele>1281</ele>
        <time>2022-05-23 12:47:49</time>
      </trkpt>
      <trkpt lat="42.0353" lon="0.7335">
        <ele>1280.2</ele>
        <time>2022-05-23 12:47:50</time>
      </trkpt>
      <trkpt lat="42.03533" lon="0.73338">
        <ele>1279.2</ele>
        <time>2022-05-23 12:47:51</time>
      </trkpt>
      <trkpt lat="42.03535" lon="0.73326">
        <ele>1278.4</ele>
        <time>2022-05-23 12:47:52</time>
      </trkpt>
      <trkpt lat="42.03539" lon="0.73314">
        <ele>1277.6</ele>
        <time>2022-05-23 12:47:53</time>
      </trkpt>
      <trkpt lat="42.03543" lon="0.73303">
        <ele>1276.6</ele>
        <time>2022-05-23 12:47:54</time>
      </trkpt>
      <trkpt lat="42.03548" lon="0.7329">
        <ele>1275.8</ele>
        <time>2022-05-23 12:47:55</time>
      </trkpt>
      <trkpt lat="42.03552" lon="0.73278">
        <ele>1274.8</ele>
        <time>2022-05-23 12:47:56</time>
      </trkpt>
      <trkpt lat="42.03555" lon="0.73266">
        <ele>1274</ele>
        <time>2022-05-23 12:47:57</time>
      </trkpt>
      <trkpt lat="42.03558" lon="0.73254">
        <ele>1273</ele>
        <time>2022-05-23 12:47:58</time>
      </trkpt>
      <trkpt lat="42.0356" lon="0.73241">
        <ele>1272.2</ele>
        <time>2022-05-23 12:47:59</time>
      </trkpt>
      <trkpt lat="42.03562" lon="0.73227">
        <ele>1271.2</ele>
        <time>2022-05-23 12:48:00</time>
      </trkpt>
      <trkpt lat="42.03564" lon="0.73214">
        <ele>1270.4</ele>
        <time>2022-05-23 12:48:01</time>
      </trkpt>
      <trkpt lat="42.03567" lon="0.73202">
        <ele>1269.6</ele>
        <time>2022-05-23 12:48:02</time>
      </trkpt>
      <trkpt lat="42.0357" lon="0.73189">
        <ele>1268.4</ele>
        <time>2022-05-23 12:48:03</time>
      </trkpt>
      <trkpt lat="42.03574" lon="0.73177">
        <ele>1267.6</ele>
        <time>2022-05-23 12:48:04</time>
      </trkpt>
      <trkpt lat="42.03578" lon="0.73167">
        <ele>1266.8</ele>
        <time>2022-05-23 12:48:05</time>
      </trkpt>
      <trkpt lat="42.03582" lon="0.73156">
        <ele>1265.8</ele>
        <time>2022-05-23 12:48:06</time>
      </trkpt>
      <trkpt lat="42.03586" lon="0.73145">
        <ele>1265</ele>
        <time>2022-05-23 12:48:07</time>
      </trkpt>
      <trkpt lat="42.0359" lon="0.73134">
        <ele>1264</ele>
        <time>2022-05-23 12:48:08</time>
      </trkpt>
      <trkpt lat="42.03594" lon="0.73123">
        <ele>1262.8</ele>
        <time>2022-05-23 12:48:09</time>
      </trkpt>
      <trkpt lat="42.03597" lon="0.73111">
        <ele>1261.8</ele>
        <time>2022-05-23 12:48:10</time>
      </trkpt>
      <trkpt lat="42.03599" lon="0.731">
        <ele>1260.8</ele>
        <time>2022-05-23 12:48:11</time>
      </trkpt>
      <trkpt lat="42.03601" lon="0.73087">
        <ele>1259.8</ele>
        <time>2022-05-23 12:48:12</time>
      </trkpt>
      <trkpt lat="42.03601" lon="0.73075">
        <ele>1259</ele>
        <time>2022-05-23 12:48:13</time>
      </trkpt>
      <trkpt lat="42.03601" lon="0.73062">
        <ele>1258</ele>
        <time>2022-05-23 12:48:14</time>
      </trkpt>
      <trkpt lat="42.03599" lon="0.7305">
        <ele>1257</ele>
        <time>2022-05-23 12:48:15</time>
      </trkpt>
      <trkpt lat="42.03597" lon="0.73038">
        <ele>1256.2</ele>
        <time>2022-05-23 12:48:16</time>
      </trkpt>
      <trkpt lat="42.03594" lon="0.73025">
        <ele>1255</ele>
        <time>2022-05-23 12:48:17</time>
      </trkpt>
      <trkpt lat="42.03591" lon="0.73011">
        <ele>1254</ele>
        <time>2022-05-23 12:48:18</time>
      </trkpt>
      <trkpt lat="42.03587" lon="0.72998">
        <ele>1252.6</ele>
        <time>2022-05-23 12:48:19</time>
      </trkpt>
      <trkpt lat="42.03583" lon="0.72986">
        <ele>1251.4</ele>
        <time>2022-05-23 12:48:20</time>
      </trkpt>
      <trkpt lat="42.03579" lon="0.72973">
        <ele>1250.4</ele>
        <time>2022-05-23 12:48:21</time>
      </trkpt>
      <trkpt lat="42.03575" lon="0.72962">
        <ele>1249.4</ele>
        <time>2022-05-23 12:48:22</time>
      </trkpt>
      <trkpt lat="42.03571" lon="0.7295">
        <ele>1248.6</ele>
        <time>2022-05-23 12:48:23</time>
      </trkpt>
      <trkpt lat="42.03567" lon="0.7294">
        <ele>1247.8</ele>
        <time>2022-05-23 12:48:24</time>
      </trkpt>
      <trkpt lat="42.03562" lon="0.72928">
        <ele>1246.6</ele>
        <time>2022-05-23 12:48:25</time>
      </trkpt>
      <trkpt lat="42.03557" lon="0.72917">
        <ele>1245.4</ele>
        <time>2022-05-23 12:48:26</time>
      </trkpt>
      <trkpt lat="42.03552" lon="0.72905">
        <ele>1244.2</ele>
        <time>2022-05-23 12:48:27</time>
      </trkpt>
      <trkpt lat="42.03547" lon="0.72895">
        <ele>1243</ele>
        <time>2022-05-23 12:48:28</time>
      </trkpt>
      <trkpt lat="42.03541" lon="0.72882">
        <ele>1241.8</ele>
        <time>2022-05-23 12:48:29</time>
      </trkpt>
      <trkpt lat="42.03535" lon="0.72872">
        <ele>1240.8</ele>
        <time>2022-05-23 12:48:30</time>
      </trkpt>
      <trkpt lat="42.03528" lon="0.7286">
        <ele>1239.8</ele>
        <time>2022-05-23 12:48:31</time>
      </trkpt>
      <trkpt lat="42.03521" lon="0.72851">
        <ele>1238.8</ele>
        <time>2022-05-23 12:48:32</time>
      </trkpt>
      <trkpt lat="42.03515" lon="0.7284">
        <ele>1238</ele>
        <time>2022-05-23 12:48:33</time>
      </trkpt>
      <trkpt lat="42.03509" lon="0.7283">
        <ele>1237</ele>
        <time>2022-05-23 12:48:34</time>
      </trkpt>
      <trkpt lat="42.03504" lon="0.7282">
        <ele>1236.2</ele>
        <time>2022-05-23 12:48:35</time>
      </trkpt>
      <trkpt lat="42.035" lon="0.72807">
        <ele>1235.2</ele>
        <time>2022-05-23 12:48:36</time>
      </trkpt>
      <trkpt lat="42.03496" lon="0.72795">
        <ele>1234.4</ele>
        <time>2022-05-23 12:48:37</time>
      </trkpt>
      <trkpt lat="42.03493" lon="0.72784">
        <ele>1233.6</ele>
        <time>2022-05-23 12:48:38</time>
      </trkpt>
      <trkpt lat="42.03492" lon="0.72773">
        <ele>1232.8</ele>
        <time>2022-05-23 12:48:39</time>
      </trkpt>
      <trkpt lat="42.03491" lon="0.72762">
        <ele>1232</ele>
        <time>2022-05-23 12:48:40</time>
      </trkpt>
      <trkpt lat="42.03493" lon="0.72752">
        <ele>1231.2</ele>
        <time>2022-05-23 12:48:41</time>
      </trkpt>
      <trkpt lat="42.03497" lon="0.72743">
        <ele>1230.4</ele>
        <time>2022-05-23 12:48:42</time>
      </trkpt>
      <trkpt lat="42.03502" lon="0.72734">
        <ele>1229.4</ele>
        <time>2022-05-23 12:48:43</time>
      </trkpt>
      <trkpt lat="42.03507" lon="0.72725">
        <ele>1228.6</ele>
        <time>2022-05-23 12:48:44</time>
      </trkpt>
      <trkpt lat="42.03513" lon="0.72716">
        <ele>1227.6</ele>
        <time>2022-05-23 12:48:45</time>
      </trkpt>
      <trkpt lat="42.03519" lon="0.72707">
        <ele>1226.6</ele>
        <time>2022-05-23 12:48:46</time>
      </trkpt>
      <trkpt lat="42.03525" lon="0.72698">
        <ele>1225.8</ele>
        <time>2022-05-23 12:48:47</time>
      </trkpt>
      <trkpt lat="42.03531" lon="0.72688">
        <ele>1224.8</ele>
        <time>2022-05-23 12:48:48</time>
      </trkpt>
      <trkpt lat="42.03537" lon="0.72678">
        <ele>1224</ele>
        <time>2022-05-23 12:48:49</time>
      </trkpt>
      <trkpt lat="42.03542" lon="0.72667">
        <ele>1223.2</ele>
        <time>2022-05-23 12:48:50</time>
      </trkpt>
      <trkpt lat="42.03547" lon="0.72657">
        <ele>1222.4</ele>
        <time>2022-05-23 12:48:51</time>
      </trkpt>
      <trkpt lat="42.0355" lon="0.72646">
        <ele>1221.6</ele>
        <time>2022-05-23 12:48:52</time>
      </trkpt>
      <trkpt lat="42.03553" lon="0.72635">
        <ele>1220.8</ele>
        <time>2022-05-23 12:48:53</time>
      </trkpt>
      <trkpt lat="42.03555" lon="0.72624">
        <ele>1220</ele>
        <time>2022-05-23 12:48:54</time>
      </trkpt>
      <trkpt lat="42.03555" lon="0.72611">
        <ele>1219.2</ele>
        <time>2022-05-23 12:48:55</time>
      </trkpt>
      <trkpt lat="42.03556" lon="0.72599">
        <ele>1218.2</ele>
        <time>2022-05-23 12:48:56</time>
      </trkpt>
      <trkpt lat="42.03556" lon="0.72585">
        <ele>1217.4</ele>
        <time>2022-05-23 12:48:57</time>
      </trkpt>
      <trkpt lat="42.03556" lon="0.72572">
        <ele>1216.6</ele>
        <time>2022-05-23 12:48:58</time>
      </trkpt>
      <trkpt lat="42.03557" lon="0.7256">
        <ele>1215.8</ele>
        <time>2022-05-23 12:48:59</time>
      </trkpt>
      <trkpt lat="42.03558" lon="0.72545">
        <ele>1215</ele>
        <time>2022-05-23 12:49:00</time>
      </trkpt>
      <trkpt lat="42.03559" lon="0.72532">
        <ele>1214</ele>
        <time>2022-05-23 12:49:01</time>
      </trkpt>
      <trkpt lat="42.03559" lon="0.72518">
        <ele>1213.2</ele>
        <time>2022-05-23 12:49:02</time>
      </trkpt>
      <trkpt lat="42.03559" lon="0.72504">
        <ele>1212.2</ele>
        <time>2022-05-23 12:49:03</time>
      </trkpt>
      <trkpt lat="42.03559" lon="0.72489">
        <ele>1211.2</ele>
        <time>2022-05-23 12:49:04</time>
      </trkpt>
      <trkpt lat="42.03559" lon="0.72476">
        <ele>1210.2</ele>
        <time>2022-05-23 12:49:05</time>
      </trkpt>
      <trkpt lat="42.0356" lon="0.72464">
        <ele>1209.2</ele>
        <time>2022-05-23 12:49:06</time>
      </trkpt>
      <trkpt lat="42.03561" lon="0.72448">
        <ele>1208.2</ele>
        <time>2022-05-23 12:49:07</time>
      </trkpt>
      <trkpt lat="42.03562" lon="0.72434">
        <ele>1207.4</ele>
        <time>2022-05-23 12:49:08</time>
      </trkpt>
      <trkpt lat="42.03565" lon="0.72421">
        <ele>1206.4</ele>
        <time>2022-05-23 12:49:09</time>
      </trkpt>
      <trkpt lat="42.03568" lon="0.72407">
        <ele>1205.2</ele>
        <time>2022-05-23 12:49:10</time>
      </trkpt>
      <trkpt lat="42.03572" lon="0.72394">
        <ele>1204.2</ele>
        <time>2022-05-23 12:49:11</time>
      </trkpt>
      <trkpt lat="42.03576" lon="0.72382">
        <ele>1203.2</ele>
        <time>2022-05-23 12:49:12</time>
      </trkpt>
      <trkpt lat="42.0358" lon="0.72369">
        <ele>1202</ele>
        <time>2022-05-23 12:49:13</time>
      </trkpt>
      <trkpt lat="42.03584" lon="0.72357">
        <ele>1200.8</ele>
        <time>2022-05-23 12:49:14</time>
      </trkpt>
      <trkpt lat="42.03589" lon="0.72344">
        <ele>1199.8</ele>
        <time>2022-05-23 12:49:15</time>
      </trkpt>
      <trkpt lat="42.03594" lon="0.72332">
        <ele>1198.8</ele>
        <time>2022-05-23 12:49:16</time>
      </trkpt>
      <trkpt lat="42.03598" lon="0.72321">
        <ele>1198</ele>
        <time>2022-05-23 12:49:17</time>
      </trkpt>
      <trkpt lat="42.03602" lon="0.7231">
        <ele>1197.2</ele>
        <time>2022-05-23 12:49:18</time>
      </trkpt>
      <trkpt lat="42.03605" lon="0.72299">
        <ele>1196.4</ele>
        <time>2022-05-23 12:49:19</time>
      </trkpt>
      <trkpt lat="42.03608" lon="0.72288">
        <ele>1195.8</ele>
        <time>2022-05-23 12:49:20</time>
      </trkpt>
      <trkpt lat="42.03609" lon="0.72275">
        <ele>1194.8</ele>
        <time>2022-05-23 12:49:21</time>
      </trkpt>
      <trkpt lat="42.03609" lon="0.72264">
        <ele>1194</ele>
        <time>2022-05-23 12:49:22</time>
      </trkpt>
      <trkpt lat="42.03608" lon="0.72254">
        <ele>1193.2</ele>
        <time>2022-05-23 12:49:23</time>
      </trkpt>
      <trkpt lat="42.03608" lon="0.72244">
        <ele>1192.4</ele>
        <time>2022-05-23 12:49:24</time>
      </trkpt>
      <trkpt lat="42.03608" lon="0.72233">
        <ele>1191.6</ele>
        <time>2022-05-23 12:49:25</time>
      </trkpt>
      <trkpt lat="42.03608" lon="0.72221">
        <ele>1191</ele>
        <time>2022-05-23 12:49:26</time>
      </trkpt>
      <trkpt lat="42.03609" lon="0.72209">
        <ele>1190.4</ele>
        <time>2022-05-23 12:49:27</time>
      </trkpt>
      <trkpt lat="42.03609" lon="0.72198">
        <ele>1190</ele>
        <time>2022-05-23 12:49:28</time>
      </trkpt>
      <trkpt lat="42.0361" lon="0.72186">
        <ele>1189.4</ele>
        <time>2022-05-23 12:49:29</time>
      </trkpt>
      <trkpt lat="42.03611" lon="0.72175">
        <ele>1188.6</ele>
        <time>2022-05-23 12:49:30</time>
      </trkpt>
      <trkpt lat="42.03611" lon="0.72164">
        <ele>1188</ele>
        <time>2022-05-23 12:49:31</time>
      </trkpt>
      <trkpt lat="42.03611" lon="0.72152">
        <ele>1187.2</ele>
        <time>2022-05-23 12:49:32</time>
      </trkpt>
      <trkpt lat="42.03611" lon="0.72141">
        <ele>1186.6</ele>
        <time>2022-05-23 12:49:33</time>
      </trkpt>
      <trkpt lat="42.03611" lon="0.72129">
        <ele>1186</ele>
        <time>2022-05-23 12:49:34</time>
      </trkpt>
      <trkpt lat="42.03611" lon="0.72117">
        <ele>1185.2</ele>
        <time>2022-05-23 12:49:35</time>
      </trkpt>
      <trkpt lat="42.0361" lon="0.72105">
        <ele>1184.6</ele>
        <time>2022-05-23 12:49:36</time>
      </trkpt>
      <trkpt lat="42.03609" lon="0.72094">
        <ele>1184</ele>
        <time>2022-05-23 12:49:37</time>
      </trkpt>
      <trkpt lat="42.03607" lon="0.72082">
        <ele>1183.4</ele>
        <time>2022-05-23 12:49:38</time>
      </trkpt>
      <trkpt lat="42.03604" lon="0.72072">
        <ele>1182.6</ele>
        <time>2022-05-23 12:49:39</time>
      </trkpt>
      <trkpt lat="42.036" lon="0.72064">
        <ele>1182.2</ele>
        <time>2022-05-23 12:49:40</time>
      </trkpt>
      <trkpt lat="42.03596" lon="0.72057">
        <ele>1181.6</ele>
        <time>2022-05-23 12:49:41</time>
      </trkpt>
      <trkpt lat="42.03591" lon="0.72053">
        <ele>1181</ele>
        <time>2022-05-23 12:49:42</time>
      </trkpt>
      <trkpt lat="42.03586" lon="0.72053">
        <ele>1180.6</ele>
        <time>2022-05-23 12:49:43</time>
      </trkpt>
      <trkpt lat="42.03581" lon="0.72056">
        <ele>1180</ele>
        <time>2022-05-23 12:49:44</time>
      </trkpt>
      <trkpt lat="42.03578" lon="0.72062">
        <ele>1179.6</ele>
        <time>2022-05-23 12:49:45</time>
      </trkpt>
      <trkpt lat="42.03577" lon="0.72069">
        <ele>1179</ele>
        <time>2022-05-23 12:49:46</time>
      </trkpt>
      <trkpt lat="42.03578" lon="0.72079">
        <ele>1178.2</ele>
        <time>2022-05-23 12:49:47</time>
      </trkpt>
      <trkpt lat="42.0358" lon="0.7209">
        <ele>1177.6</ele>
        <time>2022-05-23 12:49:48</time>
      </trkpt>
      <trkpt lat="42.03581" lon="0.72101">
        <ele>1176.8</ele>
        <time>2022-05-23 12:49:49</time>
      </trkpt>
      <trkpt lat="42.03581" lon="0.72113">
        <ele>1176</ele>
        <time>2022-05-23 12:49:50</time>
      </trkpt>
      <trkpt lat="42.0358" lon="0.72123">
        <ele>1175.6</ele>
        <time>2022-05-23 12:49:51</time>
      </trkpt>
      <trkpt lat="42.03576" lon="0.72133">
        <ele>1175</ele>
        <time>2022-05-23 12:49:52</time>
      </trkpt>
      <trkpt lat="42.03572" lon="0.7214">
        <ele>1174.4</ele>
        <time>2022-05-23 12:49:53</time>
      </trkpt>
      <trkpt lat="42.03567" lon="0.7215">
        <ele>1173.6</ele>
        <time>2022-05-23 12:49:54</time>
      </trkpt>
      <trkpt lat="42.03562" lon="0.72158">
        <ele>1173</ele>
        <time>2022-05-23 12:49:55</time>
      </trkpt>
      <trkpt lat="42.03557" lon="0.72169">
        <ele>1172.4</ele>
        <time>2022-05-23 12:49:56</time>
      </trkpt>
      <trkpt lat="42.03552" lon="0.72177">
        <ele>1171.8</ele>
        <time>2022-05-23 12:49:57</time>
      </trkpt>
      <trkpt lat="42.03547" lon="0.72188">
        <ele>1171.2</ele>
        <time>2022-05-23 12:49:58</time>
      </trkpt>
      <trkpt lat="42.03544" lon="0.72197">
        <ele>1170.6</ele>
        <time>2022-05-23 12:49:59</time>
      </trkpt>
      <trkpt lat="42.03539" lon="0.72206">
        <ele>1170.2</ele>
        <time>2022-05-23 12:50:00</time>
      </trkpt>
      <trkpt lat="42.03534" lon="0.72213">
        <ele>1169.8</ele>
        <time>2022-05-23 12:50:01</time>
      </trkpt>
      <trkpt lat="42.03529" lon="0.72219">
        <ele>1169.4</ele>
        <time>2022-05-23 12:50:02</time>
      </trkpt>
      <trkpt lat="42.03524" lon="0.7222">
        <ele>1169</ele>
        <time>2022-05-23 12:50:03</time>
      </trkpt>
      <trkpt lat="42.0352" lon="0.72218">
        <ele>1168.6</ele>
        <time>2022-05-23 12:50:04</time>
      </trkpt>
      <trkpt lat="42.03517" lon="0.72213">
        <ele>1168.2</ele>
        <time>2022-05-23 12:50:05</time>
      </trkpt>
      <trkpt lat="42.03514" lon="0.72206">
        <ele>1167.8</ele>
        <time>2022-05-23 12:50:06</time>
      </trkpt>
      <trkpt lat="42.03513" lon="0.72197">
        <ele>1167.4</ele>
        <time>2022-05-23 12:50:07</time>
      </trkpt>
      <trkpt lat="42.03511" lon="0.72186">
        <ele>1166.8</ele>
        <time>2022-05-23 12:50:08</time>
      </trkpt>
      <trkpt lat="42.03507" lon="0.72177">
        <ele>1166.2</ele>
        <time>2022-05-23 12:50:09</time>
      </trkpt>
      <trkpt lat="42.03501" lon="0.72169">
        <ele>1165.6</ele>
        <time>2022-05-23 12:50:10</time>
      </trkpt>
      <trkpt lat="42.03497" lon="0.72162">
        <ele>1165</ele>
        <time>2022-05-23 12:50:11</time>
      </trkpt>
      <trkpt lat="42.03493" lon="0.7215">
        <ele>1164.4</ele>
        <time>2022-05-23 12:50:12</time>
      </trkpt>
      <trkpt lat="42.03491" lon="0.72141">
        <ele>1164</ele>
        <time>2022-05-23 12:50:13</time>
      </trkpt>
      <trkpt lat="42.0349" lon="0.72129">
        <ele>1163.4</ele>
        <time>2022-05-23 12:50:14</time>
      </trkpt>
      <trkpt lat="42.03489" lon="0.72118">
        <ele>1162.6</ele>
        <time>2022-05-23 12:50:15</time>
      </trkpt>
      <trkpt lat="42.0349" lon="0.72105">
        <ele>1161.6</ele>
        <time>2022-05-23 12:50:16</time>
      </trkpt>
      <trkpt lat="42.03491" lon="0.72092">
        <ele>1160.8</ele>
        <time>2022-05-23 12:50:17</time>
      </trkpt>
      <trkpt lat="42.03493" lon="0.72081">
        <ele>1159.8</ele>
        <time>2022-05-23 12:50:18</time>
      </trkpt>
      <trkpt lat="42.03497" lon="0.72069">
        <ele>1159</ele>
        <time>2022-05-23 12:50:19</time>
      </trkpt>
      <trkpt lat="42.03501" lon="0.72055">
        <ele>1158.2</ele>
        <time>2022-05-23 12:50:20</time>
      </trkpt>
      <trkpt lat="42.03505" lon="0.72043">
        <ele>1157.4</ele>
        <time>2022-05-23 12:50:21</time>
      </trkpt>
      <trkpt lat="42.03509" lon="0.72033">
        <ele>1156.6</ele>
        <time>2022-05-23 12:50:22</time>
      </trkpt>
      <trkpt lat="42.03512" lon="0.7202">
        <ele>1155.6</ele>
        <time>2022-05-23 12:50:23</time>
      </trkpt>
      <trkpt lat="42.03516" lon="0.72006">
        <ele>1154.8</ele>
        <time>2022-05-23 12:50:24</time>
      </trkpt>
      <trkpt lat="42.03517" lon="0.71994">
        <ele>1154.2</ele>
        <time>2022-05-23 12:50:25</time>
      </trkpt>
      <trkpt lat="42.03518" lon="0.7198">
        <ele>1153.4</ele>
        <time>2022-05-23 12:50:26</time>
      </trkpt>
      <trkpt lat="42.03517" lon="0.71967">
        <ele>1152.6</ele>
        <time>2022-05-23 12:50:27</time>
      </trkpt>
      <trkpt lat="42.03514" lon="0.71957">
        <ele>1151.8</ele>
        <time>2022-05-23 12:50:28</time>
      </trkpt>
      <trkpt lat="42.0351" lon="0.71946">
        <ele>1151</ele>
        <time>2022-05-23 12:50:29</time>
      </trkpt>
      <trkpt lat="42.03504" lon="0.71933">
        <ele>1150</ele>
        <time>2022-05-23 12:50:30</time>
      </trkpt>
      <trkpt lat="42.03499" lon="0.71923">
        <ele>1149.2</ele>
        <time>2022-05-23 12:50:31</time>
      </trkpt>
      <trkpt lat="42.03494" lon="0.71911">
        <ele>1148.2</ele>
        <time>2022-05-23 12:50:32</time>
      </trkpt>
      <trkpt lat="42.0349" lon="0.719">
        <ele>1147.4</ele>
        <time>2022-05-23 12:50:33</time>
      </trkpt>
      <trkpt lat="42.03487" lon="0.71888">
        <ele>1146.6</ele>
        <time>2022-05-23 12:50:34</time>
      </trkpt>
      <trkpt lat="42.03485" lon="0.71877">
        <ele>1146</ele>
        <time>2022-05-23 12:50:35</time>
      </trkpt>
      <trkpt lat="42.03483" lon="0.71865">
        <ele>1145.6</ele>
        <time>2022-05-23 12:50:36</time>
      </trkpt>
      <trkpt lat="42.0348" lon="0.71851">
        <ele>1144.8</ele>
        <time>2022-05-23 12:50:37</time>
      </trkpt>
      <trkpt lat="42.03478" lon="0.71839">
        <ele>1144</ele>
        <time>2022-05-23 12:50:38</time>
      </trkpt>
      <trkpt lat="42.03476" lon="0.71827">
        <ele>1143.2</ele>
        <time>2022-05-23 12:50:39</time>
      </trkpt>
      <trkpt lat="42.03473" lon="0.71815">
        <ele>1142.4</ele>
        <time>2022-05-23 12:50:40</time>
      </trkpt>
      <trkpt lat="42.03469" lon="0.71802">
        <ele>1141.6</ele>
        <time>2022-05-23 12:50:41</time>
      </trkpt>
      <trkpt lat="42.03466" lon="0.71792">
        <ele>1140.8</ele>
        <time>2022-05-23 12:50:42</time>
      </trkpt>
      <trkpt lat="42.03462" lon="0.71778">
        <ele>1140.2</ele>
        <time>2022-05-23 12:50:43</time>
      </trkpt>
      <trkpt lat="42.03459" lon="0.71769">
        <ele>1139.4</ele>
        <time>2022-05-23 12:50:44</time>
      </trkpt>
      <trkpt lat="42.03455" lon="0.71756">
        <ele>1138.8</ele>
        <time>2022-05-23 12:50:45</time>
      </trkpt>
      <trkpt lat="42.03452" lon="0.71747">
        <ele>1138.4</ele>
        <time>2022-05-23 12:50:46</time>
      </trkpt>
      <trkpt lat="42.03447" lon="0.71736">
        <ele>1138</ele>
        <time>2022-05-23 12:50:47</time>
      </trkpt>
      <trkpt lat="42.03443" lon="0.7173">
        <ele>1137.6</ele>
        <time>2022-05-23 12:50:48</time>
      </trkpt>
      <trkpt lat="42.03438" lon="0.71725">
        <ele>1137.2</ele>
        <time>2022-05-23 12:50:49</time>
      </trkpt>
      <trkpt lat="42.03433" lon="0.71725">
        <ele>1136.8</ele>
        <time>2022-05-23 12:50:50</time>
      </trkpt>
      <trkpt lat="42.03429" lon="0.71727">
        <ele>1136.6</ele>
        <time>2022-05-23 12:50:51</time>
      </trkpt>
      <trkpt lat="42.03426" lon="0.71732">
        <ele>1136.2</ele>
        <time>2022-05-23 12:50:52</time>
      </trkpt>
      <trkpt lat="42.03426" lon="0.71739">
        <ele>1135.8</ele>
        <time>2022-05-23 12:50:53</time>
      </trkpt>
      <trkpt lat="42.03427" lon="0.71747">
        <ele>1135.2</ele>
        <time>2022-05-23 12:50:54</time>
      </trkpt>
      <trkpt lat="42.0343" lon="0.71758">
        <ele>1134.8</ele>
        <time>2022-05-23 12:50:55</time>
      </trkpt>
      <trkpt lat="42.03431" lon="0.71767">
        <ele>1134.2</ele>
        <time>2022-05-23 12:50:56</time>
      </trkpt>
      <trkpt lat="42.03431" lon="0.71779">
        <ele>1133.4</ele>
        <time>2022-05-23 12:50:57</time>
      </trkpt>
      <trkpt lat="42.03429" lon="0.71791">
        <ele>1132.8</ele>
        <time>2022-05-23 12:50:58</time>
      </trkpt>
      <trkpt lat="42.03425" lon="0.71801">
        <ele>1132</ele>
        <time>2022-05-23 12:50:59</time>
      </trkpt>
      <trkpt lat="42.0342" lon="0.71814">
        <ele>1131</ele>
        <time>2022-05-23 12:51:00</time>
      </trkpt>
      <trkpt lat="42.03415" lon="0.71823">
        <ele>1130.2</ele>
        <time>2022-05-23 12:51:01</time>
      </trkpt>
      <trkpt lat="42.0341" lon="0.71834">
        <ele>1129.2</ele>
        <time>2022-05-23 12:51:02</time>
      </trkpt>
      <trkpt lat="42.03404" lon="0.71848">
        <ele>1128.6</ele>
        <time>2022-05-23 12:51:03</time>
      </trkpt>
      <trkpt lat="42.03399" lon="0.7186">
        <ele>1127.8</ele>
        <time>2022-05-23 12:51:04</time>
      </trkpt>
      <trkpt lat="42.03395" lon="0.7187">
        <ele>1127.2</ele>
        <time>2022-05-23 12:51:05</time>
      </trkpt>
      <trkpt lat="42.0339" lon="0.71883">
        <ele>1126.4</ele>
        <time>2022-05-23 12:51:06</time>
      </trkpt>
      <trkpt lat="42.03384" lon="0.71897">
        <ele>1125.4</ele>
        <time>2022-05-23 12:51:07</time>
      </trkpt>
      <trkpt lat="42.03379" lon="0.71909">
        <ele>1124.6</ele>
        <time>2022-05-23 12:51:08</time>
      </trkpt>
      <trkpt lat="42.03375" lon="0.7192">
        <ele>1123.8</ele>
        <time>2022-05-23 12:51:09</time>
      </trkpt>
      <trkpt lat="42.03368" lon="0.71934">
        <ele>1122.6</ele>
        <time>2022-05-23 12:51:10</time>
      </trkpt>
      <trkpt lat="42.03363" lon="0.71945">
        <ele>1121.6</ele>
        <time>2022-05-23 12:51:11</time>
      </trkpt>
      <trkpt lat="42.03356" lon="0.71956">
        <ele>1120.6</ele>
        <time>2022-05-23 12:51:12</time>
      </trkpt>
      <trkpt lat="42.03348" lon="0.71969">
        <ele>1119.6</ele>
        <time>2022-05-23 12:51:13</time>
      </trkpt>
      <trkpt lat="42.0334" lon="0.71978">
        <ele>1118.8</ele>
        <time>2022-05-23 12:51:14</time>
      </trkpt>
      <trkpt lat="42.03331" lon="0.71988">
        <ele>1118</ele>
        <time>2022-05-23 12:51:15</time>
      </trkpt>
      <trkpt lat="42.03323" lon="0.71996">
        <ele>1117.2</ele>
        <time>2022-05-23 12:51:16</time>
      </trkpt>
      <trkpt lat="42.03316" lon="0.72004">
        <ele>1116.6</ele>
        <time>2022-05-23 12:51:17</time>
      </trkpt>
      <trkpt lat="42.03309" lon="0.72014">
        <ele>1116</ele>
        <time>2022-05-23 12:51:18</time>
      </trkpt>
      <trkpt lat="42.03304" lon="0.72024">
        <ele>1115.4</ele>
        <time>2022-05-23 12:51:19</time>
      </trkpt>
      <trkpt lat="42.03301" lon="0.72032">
        <ele>1114.8</ele>
        <time>2022-05-23 12:51:20</time>
      </trkpt>
      <trkpt lat="42.03298" lon="0.72045">
        <ele>1113.8</ele>
        <time>2022-05-23 12:51:21</time>
      </trkpt>
      <trkpt lat="42.03297" lon="0.72055">
        <ele>1113.2</ele>
        <time>2022-05-23 12:51:22</time>
      </trkpt>
      <trkpt lat="42.03296" lon="0.72067">
        <ele>1112.6</ele>
        <time>2022-05-23 12:51:23</time>
      </trkpt>
      <trkpt lat="42.03297" lon="0.72081">
        <ele>1112</ele>
        <time>2022-05-23 12:51:24</time>
      </trkpt>
      <trkpt lat="42.033" lon="0.72092">
        <ele>1111.4</ele>
        <time>2022-05-23 12:51:25</time>
      </trkpt>
      <trkpt lat="42.03303" lon="0.72101">
        <ele>1110.8</ele>
        <time>2022-05-23 12:51:26</time>
      </trkpt>
      <trkpt lat="42.03305" lon="0.72113">
        <ele>1110.2</ele>
        <time>2022-05-23 12:51:27</time>
      </trkpt>
      <trkpt lat="42.03305" lon="0.72121">
        <ele>1109.4</ele>
        <time>2022-05-23 12:51:28</time>
      </trkpt>
      <trkpt lat="42.03304" lon="0.72133">
        <ele>1108.6</ele>
        <time>2022-05-23 12:51:29</time>
      </trkpt>
      <trkpt lat="42.03302" lon="0.72142">
        <ele>1108</ele>
        <time>2022-05-23 12:51:30</time>
      </trkpt>
      <trkpt lat="42.033" lon="0.72153">
        <ele>1107.2</ele>
        <time>2022-05-23 12:51:31</time>
      </trkpt>
      <trkpt lat="42.03296" lon="0.72164">
        <ele>1106.2</ele>
        <time>2022-05-23 12:51:32</time>
      </trkpt>
      <trkpt lat="42.03292" lon="0.72173">
        <ele>1105.4</ele>
        <time>2022-05-23 12:51:33</time>
      </trkpt>
      <trkpt lat="42.03286" lon="0.72183">
        <ele>1104.8</ele>
        <time>2022-05-23 12:51:34</time>
      </trkpt>
      <trkpt lat="42.03279" lon="0.72192">
        <ele>1104.2</ele>
        <time>2022-05-23 12:51:35</time>
      </trkpt>
      <trkpt lat="42.03273" lon="0.722">
        <ele>1103.8</ele>
        <time>2022-05-23 12:51:36</time>
      </trkpt>
      <trkpt lat="42.03267" lon="0.72208">
        <ele>1103.2</ele>
        <time>2022-05-23 12:51:37</time>
      </trkpt>
      <trkpt lat="42.03259" lon="0.72218">
        <ele>1102.8</ele>
        <time>2022-05-23 12:51:38</time>
      </trkpt>
      <trkpt lat="42.03253" lon="0.72226">
        <ele>1102.2</ele>
        <time>2022-05-23 12:51:39</time>
      </trkpt>
      <trkpt lat="42.03245" lon="0.72235">
        <ele>1101.6</ele>
        <time>2022-05-23 12:51:40</time>
      </trkpt>
      <trkpt lat="42.03241" lon="0.7224">
        <ele>1101.2</ele>
        <time>2022-05-23 12:51:41</time>
      </trkpt>
      <trkpt lat="42.03233" lon="0.72244">
        <ele>1100.6</ele>
        <time>2022-05-23 12:51:42</time>
      </trkpt>
      <trkpt lat="42.03228" lon="0.72244">
        <ele>1100</ele>
        <time>2022-05-23 12:51:43</time>
      </trkpt>
      <trkpt lat="42.0322" lon="0.72241">
        <ele>1099.4</ele>
        <time>2022-05-23 12:51:44</time>
      </trkpt>
      <trkpt lat="42.03216" lon="0.72237">
        <ele>1098.8</ele>
        <time>2022-05-23 12:51:45</time>
      </trkpt>
      <trkpt lat="42.03213" lon="0.72229">
        <ele>1098.2</ele>
        <time>2022-05-23 12:51:46</time>
      </trkpt>
      <trkpt lat="42.03213" lon="0.72221">
        <ele>1097.6</ele>
        <time>2022-05-23 12:51:47</time>
      </trkpt>
      <trkpt lat="42.03214" lon="0.72209">
        <ele>1096.8</ele>
        <time>2022-05-23 12:51:48</time>
      </trkpt>
      <trkpt lat="42.03215" lon="0.72201">
        <ele>1096.4</ele>
        <time>2022-05-23 12:51:49</time>
      </trkpt>
      <trkpt lat="42.03219" lon="0.72191">
        <ele>1096</ele>
        <time>2022-05-23 12:51:50</time>
      </trkpt>
      <trkpt lat="42.03223" lon="0.72184">
        <ele>1095.6</ele>
        <time>2022-05-23 12:51:51</time>
      </trkpt>
      <trkpt lat="42.03228" lon="0.72174">
        <ele>1095.2</ele>
        <time>2022-05-23 12:51:52</time>
      </trkpt>
      <trkpt lat="42.0323" lon="0.72167">
        <ele>1094.8</ele>
        <time>2022-05-23 12:51:53</time>
      </trkpt>
      <trkpt lat="42.03229" lon="0.72156">
        <ele>1094.2</ele>
        <time>2022-05-23 12:51:54</time>
      </trkpt>
      <trkpt lat="42.03228" lon="0.72148">
        <ele>1093.6</ele>
        <time>2022-05-23 12:51:55</time>
      </trkpt>
      <trkpt lat="42.03225" lon="0.72138">
        <ele>1093</ele>
        <time>2022-05-23 12:51:56</time>
      </trkpt>
      <trkpt lat="42.03223" lon="0.72131">
        <ele>1092.2</ele>
        <time>2022-05-23 12:51:57</time>
      </trkpt>
      <trkpt lat="42.03219" lon="0.72119">
        <ele>1091.4</ele>
        <time>2022-05-23 12:51:58</time>
      </trkpt>
      <trkpt lat="42.03217" lon="0.7211">
        <ele>1090.6</ele>
        <time>2022-05-23 12:51:59</time>
      </trkpt>
      <trkpt lat="42.03212" lon="0.72098">
        <ele>1089.4</ele>
        <time>2022-05-23 12:52:00</time>
      </trkpt>
      <trkpt lat="42.03209" lon="0.72087">
        <ele>1088.6</ele>
        <time>2022-05-23 12:52:01</time>
      </trkpt>
      <trkpt lat="42.03205" lon="0.72075">
        <ele>1088</ele>
        <time>2022-05-23 12:52:02</time>
      </trkpt>
      <trkpt lat="42.03203" lon="0.72063">
        <ele>1087.2</ele>
        <time>2022-05-23 12:52:03</time>
      </trkpt>
      <trkpt lat="42.032" lon="0.72051">
        <ele>1086.6</ele>
        <time>2022-05-23 12:52:04</time>
      </trkpt>
      <trkpt lat="42.03199" lon="0.72039">
        <ele>1086</ele>
        <time>2022-05-23 12:52:05</time>
      </trkpt>
      <trkpt lat="42.03198" lon="0.72026">
        <ele>1085.6</ele>
        <time>2022-05-23 12:52:06</time>
      </trkpt>
      <trkpt lat="42.03197" lon="0.72014">
        <ele>1084.8</ele>
        <time>2022-05-23 12:52:07</time>
      </trkpt>
      <trkpt lat="42.03196" lon="0.72002">
        <ele>1084</ele>
        <time>2022-05-23 12:52:08</time>
      </trkpt>
      <trkpt lat="42.03196" lon="0.71989">
        <ele>1083.2</ele>
        <time>2022-05-23 12:52:09</time>
      </trkpt>
      <trkpt lat="42.03197" lon="0.71978">
        <ele>1082.6</ele>
        <time>2022-05-23 12:52:10</time>
      </trkpt>
      <trkpt lat="42.03198" lon="0.71967">
        <ele>1082</ele>
        <time>2022-05-23 12:52:11</time>
      </trkpt>
      <trkpt lat="42.03198" lon="0.71957">
        <ele>1081.4</ele>
        <time>2022-05-23 12:52:12</time>
      </trkpt>
      <trkpt lat="42.03196" lon="0.71948">
        <ele>1080.6</ele>
        <time>2022-05-23 12:52:13</time>
      </trkpt>
      <trkpt lat="42.03193" lon="0.71939">
        <ele>1080</ele>
        <time>2022-05-23 12:52:14</time>
      </trkpt>
      <trkpt lat="42.03189" lon="0.7193">
        <ele>1079.2</ele>
        <time>2022-05-23 12:52:15</time>
      </trkpt>
      <trkpt lat="42.03186" lon="0.71921">
        <ele>1078.4</ele>
        <time>2022-05-23 12:52:16</time>
      </trkpt>
      <trkpt lat="42.03186" lon="0.71911">
        <ele>1077.6</ele>
        <time>2022-05-23 12:52:17</time>
      </trkpt>
      <trkpt lat="42.03185" lon="0.71901">
        <ele>1077.2</ele>
        <time>2022-05-23 12:52:18</time>
      </trkpt>
      <trkpt lat="42.03188" lon="0.7189">
        <ele>1076.8</ele>
        <time>2022-05-23 12:52:19</time>
      </trkpt>
      <trkpt lat="42.0319" lon="0.7188">
        <ele>1076.2</ele>
        <time>2022-05-23 12:52:20</time>
      </trkpt>
      <trkpt lat="42.03193" lon="0.71869">
        <ele>1075.8</ele>
        <time>2022-05-23 12:52:21</time>
      </trkpt>
      <trkpt lat="42.03196" lon="0.71858">
        <ele>1075.2</ele>
        <time>2022-05-23 12:52:22</time>
      </trkpt>
      <trkpt lat="42.03199" lon="0.71848">
        <ele>1074.4</ele>
        <time>2022-05-23 12:52:23</time>
      </trkpt>
      <trkpt lat="42.03202" lon="0.71838">
        <ele>1073.8</ele>
        <time>2022-05-23 12:52:24</time>
      </trkpt>
      <trkpt lat="42.03206" lon="0.7183">
        <ele>1073.4</ele>
        <time>2022-05-23 12:52:25</time>
      </trkpt>
      <trkpt lat="42.03209" lon="0.71821">
        <ele>1073</ele>
        <time>2022-05-23 12:52:26</time>
      </trkpt>
      <trkpt lat="42.0321" lon="0.71814">
        <ele>1072.6</ele>
        <time>2022-05-23 12:52:27</time>
      </trkpt>
      <trkpt lat="42.03209" lon="0.71807">
        <ele>1072.2</ele>
        <time>2022-05-23 12:52:28</time>
      </trkpt>
      <trkpt lat="42.03204" lon="0.71805">
        <ele>1071.6</ele>
        <time>2022-05-23 12:52:29</time>
      </trkpt>
      <trkpt lat="42.03199" lon="0.71807">
        <ele>1071.2</ele>
        <time>2022-05-23 12:52:30</time>
      </trkpt>
      <trkpt lat="42.03195" lon="0.71813">
        <ele>1070.8</ele>
        <time>2022-05-23 12:52:31</time>
      </trkpt>
      <trkpt lat="42.03191" lon="0.7182">
        <ele>1070.2</ele>
        <time>2022-05-23 12:52:32</time>
      </trkpt>
      <trkpt lat="42.03187" lon="0.71828">
        <ele>1069.6</ele>
        <time>2022-05-23 12:52:33</time>
      </trkpt>
      <trkpt lat="42.03183" lon="0.71836">
        <ele>1069</ele>
        <time>2022-05-23 12:52:34</time>
      </trkpt>
      <trkpt lat="42.03178" lon="0.71845">
        <ele>1068.2</ele>
        <time>2022-05-23 12:52:35</time>
      </trkpt>
      <trkpt lat="42.03173" lon="0.71854">
        <ele>1067.6</ele>
        <time>2022-05-23 12:52:36</time>
      </trkpt>
      <trkpt lat="42.03167" lon="0.71864">
        <ele>1067</ele>
        <time>2022-05-23 12:52:37</time>
      </trkpt>
      <trkpt lat="42.03161" lon="0.71873">
        <ele>1066.2</ele>
        <time>2022-05-23 12:52:38</time>
      </trkpt>
      <trkpt lat="42.03155" lon="0.71883">
        <ele>1065.4</ele>
        <time>2022-05-23 12:52:39</time>
      </trkpt>
      <trkpt lat="42.03151" lon="0.71894">
        <ele>1064.6</ele>
        <time>2022-05-23 12:52:40</time>
      </trkpt>
      <trkpt lat="42.03146" lon="0.71905">
        <ele>1063.8</ele>
        <time>2022-05-23 12:52:41</time>
      </trkpt>
      <trkpt lat="42.03142" lon="0.71916">
        <ele>1063</ele>
        <time>2022-05-23 12:52:42</time>
      </trkpt>
      <trkpt lat="42.03137" lon="0.71927">
        <ele>1062.2</ele>
        <time>2022-05-23 12:52:43</time>
      </trkpt>
      <trkpt lat="42.03131" lon="0.71937">
        <ele>1061.4</ele>
        <time>2022-05-23 12:52:44</time>
      </trkpt>
      <trkpt lat="42.03125" lon="0.71945">
        <ele>1060.8</ele>
        <time>2022-05-23 12:52:45</time>
      </trkpt>
      <trkpt lat="42.0312" lon="0.71953">
        <ele>1060.2</ele>
        <time>2022-05-23 12:52:46</time>
      </trkpt>
      <trkpt lat="42.03117" lon="0.71961">
        <ele>1059.6</ele>
        <time>2022-05-23 12:52:47</time>
      </trkpt>
      <trkpt lat="42.03114" lon="0.7197">
        <ele>1059.2</ele>
        <time>2022-05-23 12:52:48</time>
      </trkpt>
      <trkpt lat="42.03112" lon="0.7198">
        <ele>1058.4</ele>
        <time>2022-05-23 12:52:49</time>
      </trkpt>
      <trkpt lat="42.03113" lon="0.71991">
        <ele>1057.6</ele>
        <time>2022-05-23 12:52:50</time>
      </trkpt>
      <trkpt lat="42.03116" lon="0.72001">
        <ele>1057</ele>
        <time>2022-05-23 12:52:51</time>
      </trkpt>
      <trkpt lat="42.03118" lon="0.72012">
        <ele>1056.2</ele>
        <time>2022-05-23 12:52:52</time>
      </trkpt>
      <trkpt lat="42.03118" lon="0.72023">
        <ele>1055.4</ele>
        <time>2022-05-23 12:52:53</time>
      </trkpt>
      <trkpt lat="42.03117" lon="0.72034">
        <ele>1054.8</ele>
        <time>2022-05-23 12:52:54</time>
      </trkpt>
      <trkpt lat="42.03114" lon="0.72043">
        <ele>1054</ele>
        <time>2022-05-23 12:52:55</time>
      </trkpt>
      <trkpt lat="42.0311" lon="0.72054">
        <ele>1053.4</ele>
        <time>2022-05-23 12:52:56</time>
      </trkpt>
      <trkpt lat="42.03105" lon="0.72064">
        <ele>1052.6</ele>
        <time>2022-05-23 12:52:57</time>
      </trkpt>
      <trkpt lat="42.03101" lon="0.72074">
        <ele>1051.8</ele>
        <time>2022-05-23 12:52:58</time>
      </trkpt>
      <trkpt lat="42.03096" lon="0.72085">
        <ele>1051</ele>
        <time>2022-05-23 12:52:59</time>
      </trkpt>
      <trkpt lat="42.03092" lon="0.72097">
        <ele>1050.2</ele>
        <time>2022-05-23 12:53:00</time>
      </trkpt>
      <trkpt lat="42.03088" lon="0.72108">
        <ele>1049.2</ele>
        <time>2022-05-23 12:53:01</time>
      </trkpt>
      <trkpt lat="42.03083" lon="0.7212">
        <ele>1048.2</ele>
        <time>2022-05-23 12:53:02</time>
      </trkpt>
      <trkpt lat="42.03079" lon="0.72131">
        <ele>1047.4</ele>
        <time>2022-05-23 12:53:03</time>
      </trkpt>
      <trkpt lat="42.03076" lon="0.72143">
        <ele>1046.4</ele>
        <time>2022-05-23 12:53:04</time>
      </trkpt>
      <trkpt lat="42.03073" lon="0.72155">
        <ele>1045.4</ele>
        <time>2022-05-23 12:53:05</time>
      </trkpt>
      <trkpt lat="42.0307" lon="0.72167">
        <ele>1044.4</ele>
        <time>2022-05-23 12:53:06</time>
      </trkpt>
      <trkpt lat="42.03068" lon="0.72178">
        <ele>1043.6</ele>
        <time>2022-05-23 12:53:07</time>
      </trkpt>
      <trkpt lat="42.03066" lon="0.72189">
        <ele>1042.8</ele>
        <time>2022-05-23 12:53:08</time>
      </trkpt>
      <trkpt lat="42.03064" lon="0.72199">
        <ele>1042</ele>
        <time>2022-05-23 12:53:09</time>
      </trkpt>
      <trkpt lat="42.03064" lon="0.7221">
        <ele>1041.2</ele>
        <time>2022-05-23 12:53:10</time>
      </trkpt>
      <trkpt lat="42.03065" lon="0.72221">
        <ele>1040.4</ele>
        <time>2022-05-23 12:53:11</time>
      </trkpt>
      <trkpt lat="42.03067" lon="0.72231">
        <ele>1039.6</ele>
        <time>2022-05-23 12:53:12</time>
      </trkpt>
      <trkpt lat="42.0307" lon="0.72242">
        <ele>1038.6</ele>
        <time>2022-05-23 12:53:13</time>
      </trkpt>
      <trkpt lat="42.03073" lon="0.72252">
        <ele>1037.6</ele>
        <time>2022-05-23 12:53:14</time>
      </trkpt>
      <trkpt lat="42.03075" lon="0.72262">
        <ele>1036.8</ele>
        <time>2022-05-23 12:53:15</time>
      </trkpt>
      <trkpt lat="42.03076" lon="0.72271">
        <ele>1036</ele>
        <time>2022-05-23 12:53:16</time>
      </trkpt>
      <trkpt lat="42.03076" lon="0.72281">
        <ele>1035.4</ele>
        <time>2022-05-23 12:53:17</time>
      </trkpt>
      <trkpt lat="42.03076" lon="0.72289">
        <ele>1034.8</ele>
        <time>2022-05-23 12:53:18</time>
      </trkpt>
      <trkpt lat="42.03078" lon="0.72297">
        <ele>1034</ele>
        <time>2022-05-23 12:53:19</time>
      </trkpt>
      <trkpt lat="42.03082" lon="0.72305">
        <ele>1033.4</ele>
        <time>2022-05-23 12:53:20</time>
      </trkpt>
      <trkpt lat="42.03086" lon="0.7231">
        <ele>1033</ele>
        <time>2022-05-23 12:53:21</time>
      </trkpt>
      <trkpt lat="42.0309" lon="0.72314">
        <ele>1032.6</ele>
        <time>2022-05-23 12:53:22</time>
      </trkpt>
      <trkpt lat="42.03095" lon="0.72318">
        <ele>1032.2</ele>
        <time>2022-05-23 12:53:23</time>
      </trkpt>
      <trkpt lat="42.03099" lon="0.72322">
        <ele>1031.8</ele>
        <time>2022-05-23 12:53:24</time>
      </trkpt>
      <trkpt lat="42.03102" lon="0.72328">
        <ele>1031.2</ele>
        <time>2022-05-23 12:53:25</time>
      </trkpt>
      <trkpt lat="42.03105" lon="0.72335">
        <ele>1030.8</ele>
        <time>2022-05-23 12:53:26</time>
      </trkpt>
      <trkpt lat="42.03108" lon="0.72343">
        <ele>1030.2</ele>
        <time>2022-05-23 12:53:27</time>
      </trkpt>
      <trkpt lat="42.03111" lon="0.72352">
        <ele>1029.6</ele>
        <time>2022-05-23 12:53:28</time>
      </trkpt>
      <trkpt lat="42.03113" lon="0.72362">
        <ele>1029</ele>
        <time>2022-05-23 12:53:29</time>
      </trkpt>
      <trkpt lat="42.03114" lon="0.72371">
        <ele>1028.4</ele>
        <time>2022-05-23 12:53:30</time>
      </trkpt>
      <trkpt lat="42.03114" lon="0.72381">
        <ele>1027.6</ele>
        <time>2022-05-23 12:53:31</time>
      </trkpt>
      <trkpt lat="42.03113" lon="0.72391">
        <ele>1027.2</ele>
        <time>2022-05-23 12:53:32</time>
      </trkpt>
      <trkpt lat="42.03111" lon="0.72402">
        <ele>1026.4</ele>
        <time>2022-05-23 12:53:33</time>
      </trkpt>
      <trkpt lat="42.03109" lon="0.72413">
        <ele>1025.8</ele>
        <time>2022-05-23 12:53:34</time>
      </trkpt>
      <trkpt lat="42.03107" lon="0.72424">
        <ele>1025.2</ele>
        <time>2022-05-23 12:53:35</time>
      </trkpt>
      <trkpt lat="42.03104" lon="0.72434">
        <ele>1024.6</ele>
        <time>2022-05-23 12:53:36</time>
      </trkpt>
      <trkpt lat="42.03101" lon="0.72444">
        <ele>1024.2</ele>
        <time>2022-05-23 12:53:37</time>
      </trkpt>
      <trkpt lat="42.03097" lon="0.72454">
        <ele>1023.6</ele>
        <time>2022-05-23 12:53:38</time>
      </trkpt>
      <trkpt lat="42.03092" lon="0.72464">
        <ele>1023.2</ele>
        <time>2022-05-23 12:53:39</time>
      </trkpt>
      <trkpt lat="42.03088" lon="0.72474">
        <ele>1022.8</ele>
        <time>2022-05-23 12:53:40</time>
      </trkpt>
      <trkpt lat="42.03083" lon="0.72484">
        <ele>1022.4</ele>
        <time>2022-05-23 12:53:41</time>
      </trkpt>
      <trkpt lat="42.03079" lon="0.72492">
        <ele>1022</ele>
        <time>2022-05-23 12:53:42</time>
      </trkpt>
      <trkpt lat="42.03075" lon="0.72502">
        <ele>1021.6</ele>
        <time>2022-05-23 12:53:43</time>
      </trkpt>
      <trkpt lat="42.03074" lon="0.72512">
        <ele>1021.4</ele>
        <time>2022-05-23 12:53:44</time>
      </trkpt>
      <trkpt lat="42.03074" lon="0.72522">
        <ele>1021.2</ele>
        <time>2022-05-23 12:53:45</time>
      </trkpt>
      <trkpt lat="42.03076" lon="0.72531">
        <ele>1020.8</ele>
        <time>2022-05-23 12:53:46</time>
      </trkpt>
      <trkpt lat="42.03081" lon="0.7254">
        <ele>1020.6</ele>
        <time>2022-05-23 12:53:47</time>
      </trkpt>
      <trkpt lat="42.03085" lon="0.72549">
        <ele>1020.2</ele>
        <time>2022-05-23 12:53:48</time>
      </trkpt>
      <trkpt lat="42.03089" lon="0.72557">
        <ele>1019.6</ele>
        <time>2022-05-23 12:53:49</time>
      </trkpt>
      <trkpt lat="42.03092" lon="0.72566">
        <ele>1019.2</ele>
        <time>2022-05-23 12:53:50</time>
      </trkpt>
      <trkpt lat="42.03093" lon="0.72575">
        <ele>1018.8</ele>
        <time>2022-05-23 12:53:51</time>
      </trkpt>
      <trkpt lat="42.03093" lon="0.72585">
        <ele>1018.4</ele>
        <time>2022-05-23 12:53:52</time>
      </trkpt>
      <trkpt lat="42.03092" lon="0.72596">
        <ele>1017.8</ele>
        <time>2022-05-23 12:53:53</time>
      </trkpt>
      <trkpt lat="42.03091" lon="0.72607">
        <ele>1017.4</ele>
        <time>2022-05-23 12:53:54</time>
      </trkpt>
      <trkpt lat="42.03089" lon="0.72619">
        <ele>1016.8</ele>
        <time>2022-05-23 12:53:55</time>
      </trkpt>
      <trkpt lat="42.03088" lon="0.72631">
        <ele>1016.2</ele>
        <time>2022-05-23 12:53:56</time>
      </trkpt>
      <trkpt lat="42.03087" lon="0.72642">
        <ele>1015.6</ele>
        <time>2022-05-23 12:53:57</time>
      </trkpt>
      <trkpt lat="42.03084" lon="0.72654">
        <ele>1015</ele>
        <time>2022-05-23 12:53:58</time>
      </trkpt>
      <trkpt lat="42.03082" lon="0.72666">
        <ele>1014.4</ele>
        <time>2022-05-23 12:53:59</time>
      </trkpt>
      <trkpt lat="42.0308" lon="0.72678">
        <ele>1013.8</ele>
        <time>2022-05-23 12:54:00</time>
      </trkpt>
      <trkpt lat="42.03077" lon="0.7269">
        <ele>1013.2</ele>
        <time>2022-05-23 12:54:01</time>
      </trkpt>
      <trkpt lat="42.03074" lon="0.72702">
        <ele>1012.6</ele>
        <time>2022-05-23 12:54:02</time>
      </trkpt>
      <trkpt lat="42.03071" lon="0.72712">
        <ele>1011.8</ele>
        <time>2022-05-23 12:54:03</time>
      </trkpt>
      <trkpt lat="42.03066" lon="0.72724">
        <ele>1011</ele>
        <time>2022-05-23 12:54:04</time>
      </trkpt>
      <trkpt lat="42.03062" lon="0.72733">
        <ele>1010.4</ele>
        <time>2022-05-23 12:54:05</time>
      </trkpt>
      <trkpt lat="42.03057" lon="0.72745">
        <ele>1009.6</ele>
        <time>2022-05-23 12:54:06</time>
      </trkpt>
      <trkpt lat="42.03052" lon="0.72757">
        <ele>1009</ele>
        <time>2022-05-23 12:54:07</time>
      </trkpt>
      <trkpt lat="42.03049" lon="0.72767">
        <ele>1008.2</ele>
        <time>2022-05-23 12:54:08</time>
      </trkpt>
      <trkpt lat="42.03046" lon="0.72778">
        <ele>1007.6</ele>
        <time>2022-05-23 12:54:09</time>
      </trkpt>
      <trkpt lat="42.03043" lon="0.72788">
        <ele>1006.8</ele>
        <time>2022-05-23 12:54:10</time>
      </trkpt>
      <trkpt lat="42.03039" lon="0.72797">
        <ele>1006.2</ele>
        <time>2022-05-23 12:54:11</time>
      </trkpt>
      <trkpt lat="42.03034" lon="0.72806">
        <ele>1005.6</ele>
        <time>2022-05-23 12:54:12</time>
      </trkpt>
      <trkpt lat="42.0303" lon="0.72813">
        <ele>1005</ele>
        <time>2022-05-23 12:54:13</time>
      </trkpt>
      <trkpt lat="42.03026" lon="0.72822">
        <ele>1004.2</ele>
        <time>2022-05-23 12:54:14</time>
      </trkpt>
      <trkpt lat="42.03024" lon="0.72832">
        <ele>1003.6</ele>
        <time>2022-05-23 12:54:15</time>
      </trkpt>
      <trkpt lat="42.03024" lon="0.72842">
        <ele>1002.8</ele>
        <time>2022-05-23 12:54:16</time>
      </trkpt>
      <trkpt lat="42.03025" lon="0.72853">
        <ele>1002.2</ele>
        <time>2022-05-23 12:54:17</time>
      </trkpt>
      <trkpt lat="42.03025" lon="0.72866">
        <ele>1001.6</ele>
        <time>2022-05-23 12:54:18</time>
      </trkpt>
      <trkpt lat="42.03025" lon="0.72879">
        <ele>1000.8</ele>
        <time>2022-05-23 12:54:19</time>
      </trkpt>
      <trkpt lat="42.03025" lon="0.72892">
        <ele>1000.2</ele>
        <time>2022-05-23 12:54:20</time>
      </trkpt>
      <trkpt lat="42.03026" lon="0.72904">
        <ele>999.4</ele>
        <time>2022-05-23 12:54:21</time>
      </trkpt>
      <trkpt lat="42.03026" lon="0.72917">
        <ele>998.8</ele>
        <time>2022-05-23 12:54:22</time>
      </trkpt>
      <trkpt lat="42.03027" lon="0.72929">
        <ele>998</ele>
        <time>2022-05-23 12:54:23</time>
      </trkpt>
      <trkpt lat="42.03029" lon="0.72941">
        <ele>997.2</ele>
        <time>2022-05-23 12:54:24</time>
      </trkpt>
      <trkpt lat="42.0303" lon="0.72953">
        <ele>996.6</ele>
        <time>2022-05-23 12:54:25</time>
      </trkpt>
      <trkpt lat="42.03032" lon="0.72964">
        <ele>995.8</ele>
        <time>2022-05-23 12:54:26</time>
      </trkpt>
      <trkpt lat="42.03035" lon="0.72975">
        <ele>995</ele>
        <time>2022-05-23 12:54:27</time>
      </trkpt>
      <trkpt lat="42.03037" lon="0.72987">
        <ele>994.4</ele>
        <time>2022-05-23 12:54:28</time>
      </trkpt>
      <trkpt lat="42.03038" lon="0.72998">
        <ele>993.8</ele>
        <time>2022-05-23 12:54:29</time>
      </trkpt>
      <trkpt lat="42.03037" lon="0.7301">
        <ele>993.2</ele>
        <time>2022-05-23 12:54:30</time>
      </trkpt>
      <trkpt lat="42.03037" lon="0.73021">
        <ele>992.6</ele>
        <time>2022-05-23 12:54:31</time>
      </trkpt>
      <trkpt lat="42.03036" lon="0.73032">
        <ele>992</ele>
        <time>2022-05-23 12:54:32</time>
      </trkpt>
      <trkpt lat="42.03035" lon="0.73042">
        <ele>991.4</ele>
        <time>2022-05-23 12:54:33</time>
      </trkpt>
      <trkpt lat="42.03033" lon="0.73051">
        <ele>991</ele>
        <time>2022-05-23 12:54:34</time>
      </trkpt>
      <trkpt lat="42.03029" lon="0.73059">
        <ele>990.4</ele>
        <time>2022-05-23 12:54:35</time>
      </trkpt>
      <trkpt lat="42.03025" lon="0.73064">
        <ele>989.8</ele>
        <time>2022-05-23 12:54:36</time>
      </trkpt>
      <trkpt lat="42.0302" lon="0.73064">
        <ele>989.4</ele>
        <time>2022-05-23 12:54:37</time>
      </trkpt>
      <trkpt lat="42.03015" lon="0.73062">
        <ele>989</ele>
        <time>2022-05-23 12:54:38</time>
      </trkpt>
      <trkpt lat="42.03008" lon="0.73058">
        <ele>988.6</ele>
        <time>2022-05-23 12:54:39</time>
      </trkpt>
      <trkpt lat="42.03001" lon="0.73055">
        <ele>988.2</ele>
        <time>2022-05-23 12:54:40</time>
      </trkpt>
      <trkpt lat="42.02994" lon="0.73055">
        <ele>987.6</ele>
        <time>2022-05-23 12:54:41</time>
      </trkpt>
      <trkpt lat="42.02986" lon="0.73055">
        <ele>987.2</ele>
        <time>2022-05-23 12:54:42</time>
      </trkpt>
      <trkpt lat="42.02979" lon="0.73058">
        <ele>986.6</ele>
        <time>2022-05-23 12:54:43</time>
      </trkpt>
      <trkpt lat="42.02971" lon="0.73061">
        <ele>986</ele>
        <time>2022-05-23 12:54:44</time>
      </trkpt>
      <trkpt lat="42.02962" lon="0.73065">
        <ele>985.4</ele>
        <time>2022-05-23 12:54:45</time>
      </trkpt>
      <trkpt lat="42.02954" lon="0.73069">
        <ele>984.6</ele>
        <time>2022-05-23 12:54:46</time>
      </trkpt>
      <trkpt lat="42.02945" lon="0.73072">
        <ele>984</ele>
        <time>2022-05-23 12:54:47</time>
      </trkpt>
      <trkpt lat="42.02936" lon="0.73076">
        <ele>983.2</ele>
        <time>2022-05-23 12:54:48</time>
      </trkpt>
      <trkpt lat="42.02928" lon="0.73079">
        <ele>982.4</ele>
        <time>2022-05-23 12:54:49</time>
      </trkpt>
      <trkpt lat="42.0292" lon="0.73082">
        <ele>981.6</ele>
        <time>2022-05-23 12:54:50</time>
      </trkpt>
      <trkpt lat="42.02912" lon="0.73085">
        <ele>981</ele>
        <time>2022-05-23 12:54:51</time>
      </trkpt>
      <trkpt lat="42.02904" lon="0.73089">
        <ele>980.2</ele>
        <time>2022-05-23 12:54:52</time>
      </trkpt>
      <trkpt lat="42.02897" lon="0.73095">
        <ele>979.6</ele>
        <time>2022-05-23 12:54:53</time>
      </trkpt>
      <trkpt lat="42.0289" lon="0.73102">
        <ele>979</ele>
        <time>2022-05-23 12:54:54</time>
      </trkpt>
      <trkpt lat="42.02884" lon="0.7311">
        <ele>978.4</ele>
        <time>2022-05-23 12:54:55</time>
      </trkpt>
      <trkpt lat="42.02879" lon="0.73119">
        <ele>977.8</ele>
        <time>2022-05-23 12:54:56</time>
      </trkpt>
      <trkpt lat="42.02876" lon="0.73128">
        <ele>977</ele>
        <time>2022-05-23 12:54:57</time>
      </trkpt>
      <trkpt lat="42.02874" lon="0.73138">
        <ele>976.4</ele>
        <time>2022-05-23 12:54:58</time>
      </trkpt>
      <trkpt lat="42.02873" lon="0.73149">
        <ele>975.8</ele>
        <time>2022-05-23 12:54:59</time>
      </trkpt>
      <trkpt lat="42.02873" lon="0.73159">
        <ele>975</ele>
        <time>2022-05-23 12:55:00</time>
      </trkpt>
      <trkpt lat="42.02872" lon="0.7317">
        <ele>974.4</ele>
        <time>2022-05-23 12:55:01</time>
      </trkpt>
      <trkpt lat="42.02871" lon="0.73181">
        <ele>973.8</ele>
        <time>2022-05-23 12:55:02</time>
      </trkpt>
      <trkpt lat="42.02869" lon="0.7319">
        <ele>973</ele>
        <time>2022-05-23 12:55:03</time>
      </trkpt>
      <trkpt lat="42.02864" lon="0.732">
        <ele>972.4</ele>
        <time>2022-05-23 12:55:04</time>
      </trkpt>
      <trkpt lat="42.02858" lon="0.73207">
        <ele>971.6</ele>
        <time>2022-05-23 12:55:05</time>
      </trkpt>
      <trkpt lat="42.02851" lon="0.73213">
        <ele>971</ele>
        <time>2022-05-23 12:55:06</time>
      </trkpt>
      <trkpt lat="42.02844" lon="0.73219">
        <ele>970.4</ele>
        <time>2022-05-23 12:55:07</time>
      </trkpt>
      <trkpt lat="42.02836" lon="0.73225">
        <ele>969.6</ele>
        <time>2022-05-23 12:55:08</time>
      </trkpt>
      <trkpt lat="42.02828" lon="0.73232">
        <ele>969</ele>
        <time>2022-05-23 12:55:09</time>
      </trkpt>
      <trkpt lat="42.0282" lon="0.73238">
        <ele>968.2</ele>
        <time>2022-05-23 12:55:10</time>
      </trkpt>
      <trkpt lat="42.02812" lon="0.73245">
        <ele>967.4</ele>
        <time>2022-05-23 12:55:11</time>
      </trkpt>
      <trkpt lat="42.02804" lon="0.73252">
        <ele>966.6</ele>
        <time>2022-05-23 12:55:12</time>
      </trkpt>
      <trkpt lat="42.02796" lon="0.73259">
        <ele>965.8</ele>
        <time>2022-05-23 12:55:13</time>
      </trkpt>
      <trkpt lat="42.02788" lon="0.73266">
        <ele>965</ele>
        <time>2022-05-23 12:55:14</time>
      </trkpt>
      <trkpt lat="42.02781" lon="0.73272">
        <ele>964.2</ele>
        <time>2022-05-23 12:55:15</time>
      </trkpt>
      <trkpt lat="42.02775" lon="0.7328">
        <ele>963.6</ele>
        <time>2022-05-23 12:55:16</time>
      </trkpt>
      <trkpt lat="42.02771" lon="0.73288">
        <ele>963.2</ele>
        <time>2022-05-23 12:55:17</time>
      </trkpt>
      <trkpt lat="42.02769" lon="0.73296">
        <ele>962.4</ele>
        <time>2022-05-23 12:55:18</time>
      </trkpt>
      <trkpt lat="42.02771" lon="0.73305">
        <ele>962</ele>
        <time>2022-05-23 12:55:19</time>
      </trkpt>
      <trkpt lat="42.02775" lon="0.73313">
        <ele>961.2</ele>
        <time>2022-05-23 12:55:20</time>
      </trkpt>
      <trkpt lat="42.02782" lon="0.7332">
        <ele>960.6</ele>
        <time>2022-05-23 12:55:21</time>
      </trkpt>
      <trkpt lat="42.02789" lon="0.73326">
        <ele>960.2</ele>
        <time>2022-05-23 12:55:22</time>
      </trkpt>
      <trkpt lat="42.02797" lon="0.73332">
        <ele>959.8</ele>
        <time>2022-05-23 12:55:23</time>
      </trkpt>
      <trkpt lat="42.02805" lon="0.73339">
        <ele>958.4</ele>
        <time>2022-05-23 12:55:24</time>
      </trkpt>
      <trkpt lat="42.02811" lon="0.73347">
        <ele>957.6</ele>
        <time>2022-05-23 12:55:25</time>
      </trkpt>
      <trkpt lat="42.02815" lon="0.73357">
        <ele>956.8</ele>
        <time>2022-05-23 12:55:26</time>
      </trkpt>
      <trkpt lat="42.02816" lon="0.73367">
        <ele>956</ele>
        <time>2022-05-23 12:55:27</time>
      </trkpt>
      <trkpt lat="42.02814" lon="0.73377">
        <ele>955.4</ele>
        <time>2022-05-23 12:55:28</time>
      </trkpt>
      <trkpt lat="42.02811" lon="0.73388">
        <ele>954.4</ele>
        <time>2022-05-23 12:55:29</time>
      </trkpt>
      <trkpt lat="42.02806" lon="0.734">
        <ele>953.6</ele>
        <time>2022-05-23 12:55:30</time>
      </trkpt>
      <trkpt lat="42.02799" lon="0.73411">
        <ele>952.6</ele>
        <time>2022-05-23 12:55:31</time>
      </trkpt>
      <trkpt lat="42.02791" lon="0.73421">
        <ele>951.8</ele>
        <time>2022-05-23 12:55:32</time>
      </trkpt>
      <trkpt lat="42.02782" lon="0.7343">
        <ele>950.8</ele>
        <time>2022-05-23 12:55:33</time>
      </trkpt>
      <trkpt lat="42.02773" lon="0.7344">
        <ele>949.8</ele>
        <time>2022-05-23 12:55:34</time>
      </trkpt>
      <trkpt lat="42.02765" lon="0.73452">
        <ele>948.8</ele>
        <time>2022-05-23 12:55:35</time>
      </trkpt>
      <trkpt lat="42.02759" lon="0.73464">
        <ele>948</ele>
        <time>2022-05-23 12:55:36</time>
      </trkpt>
      <trkpt lat="42.02755" lon="0.73478">
        <ele>947</ele>
        <time>2022-05-23 12:55:37</time>
      </trkpt>
      <trkpt lat="42.02751" lon="0.73492">
        <ele>946</ele>
        <time>2022-05-23 12:55:38</time>
      </trkpt>
      <trkpt lat="42.02747" lon="0.73503">
        <ele>945.2</ele>
        <time>2022-05-23 12:55:39</time>
      </trkpt>
      <trkpt lat="42.02742" lon="0.73513">
        <ele>944.4</ele>
        <time>2022-05-23 12:55:40</time>
      </trkpt>
      <trkpt lat="42.02732" lon="0.73514">
        <ele>943.6</ele>
        <time>2022-05-23 12:55:41</time>
      </trkpt>
      <trkpt lat="42.02723" lon="0.73515">
        <ele>942.6</ele>
        <time>2022-05-23 12:55:42</time>
      </trkpt>
      <trkpt lat="42.02714" lon="0.73516">
        <ele>941.8</ele>
        <time>2022-05-23 12:55:43</time>
      </trkpt>
      <trkpt lat="42.02704" lon="0.73519">
        <ele>941</ele>
        <time>2022-05-23 12:55:44</time>
      </trkpt>
      <trkpt lat="42.02694" lon="0.73524">
        <ele>940.2</ele>
        <time>2022-05-23 12:55:45</time>
      </trkpt>
      <trkpt lat="42.02685" lon="0.7353">
        <ele>939.4</ele>
        <time>2022-05-23 12:55:46</time>
      </trkpt>
      <trkpt lat="42.02675" lon="0.73537">
        <ele>938.6</ele>
        <time>2022-05-23 12:55:47</time>
      </trkpt>
      <trkpt lat="42.02665" lon="0.73544">
        <ele>937.8</ele>
        <time>2022-05-23 12:55:48</time>
      </trkpt>
      <trkpt lat="42.02656" lon="0.73551">
        <ele>937.2</ele>
        <time>2022-05-23 12:55:49</time>
      </trkpt>
      <trkpt lat="42.02646" lon="0.7356">
        <ele>936.4</ele>
        <time>2022-05-23 12:55:50</time>
      </trkpt>
      <trkpt lat="42.02637" lon="0.73568">
        <ele>935.8</ele>
        <time>2022-05-23 12:55:51</time>
      </trkpt>
      <trkpt lat="42.02628" lon="0.73578">
        <ele>935</ele>
        <time>2022-05-23 12:55:52</time>
      </trkpt>
      <trkpt lat="42.02621" lon="0.73588">
        <ele>934.2</ele>
        <time>2022-05-23 12:55:53</time>
      </trkpt>
      <trkpt lat="42.02615" lon="0.736">
        <ele>933.6</ele>
        <time>2022-05-23 12:55:54</time>
      </trkpt>
      <trkpt lat="42.02611" lon="0.73614">
        <ele>932.8</ele>
        <time>2022-05-23 12:55:55</time>
      </trkpt>
      <trkpt lat="42.02607" lon="0.73628">
        <ele>931.8</ele>
        <time>2022-05-23 12:55:56</time>
      </trkpt>
      <trkpt lat="42.02603" lon="0.73643">
        <ele>930.8</ele>
        <time>2022-05-23 12:55:57</time>
      </trkpt>
      <trkpt lat="42.02599" lon="0.73658">
        <ele>930</ele>
        <time>2022-05-23 12:55:58</time>
      </trkpt>
      <trkpt lat="42.02597" lon="0.73671">
        <ele>929.2</ele>
        <time>2022-05-23 12:55:59</time>
      </trkpt>
      <trkpt lat="42.02595" lon="0.73684">
        <ele>928.2</ele>
        <time>2022-05-23 12:56:00</time>
      </trkpt>
      <trkpt lat="42.02595" lon="0.73697">
        <ele>927.6</ele>
        <time>2022-05-23 12:56:01</time>
      </trkpt>
      <trkpt lat="42.02597" lon="0.73708">
        <ele>927</ele>
        <time>2022-05-23 12:56:02</time>
      </trkpt>
      <trkpt lat="42.026" lon="0.73719">
        <ele>926.2</ele>
        <time>2022-05-23 12:56:03</time>
      </trkpt>
      <trkpt lat="42.026" lon="0.73729">
        <ele>925.4</ele>
        <time>2022-05-23 12:56:04</time>
      </trkpt>
      <trkpt lat="42.02598" lon="0.73738">
        <ele>924.8</ele>
        <time>2022-05-23 12:56:05</time>
      </trkpt>
      <trkpt lat="42.02592" lon="0.73744">
        <ele>924.2</ele>
        <time>2022-05-23 12:56:06</time>
      </trkpt>
      <trkpt lat="42.02585" lon="0.7375">
        <ele>923.4</ele>
        <time>2022-05-23 12:56:07</time>
      </trkpt>
      <trkpt lat="42.02578" lon="0.73756">
        <ele>922.6</ele>
        <time>2022-05-23 12:56:08</time>
      </trkpt>
      <trkpt lat="42.02571" lon="0.73763">
        <ele>921.8</ele>
        <time>2022-05-23 12:56:09</time>
      </trkpt>
      <trkpt lat="42.02563" lon="0.73772">
        <ele>920.8</ele>
        <time>2022-05-23 12:56:10</time>
      </trkpt>
      <trkpt lat="42.02556" lon="0.73782">
        <ele>920</ele>
        <time>2022-05-23 12:56:11</time>
      </trkpt>
      <trkpt lat="42.02549" lon="0.73794">
        <ele>919</ele>
        <time>2022-05-23 12:56:12</time>
      </trkpt>
      <trkpt lat="42.02542" lon="0.73807">
        <ele>917.8</ele>
        <time>2022-05-23 12:56:13</time>
      </trkpt>
      <trkpt lat="42.02537" lon="0.7382">
        <ele>917</ele>
        <time>2022-05-23 12:56:14</time>
      </trkpt>
      <trkpt lat="42.02533" lon="0.73835">
        <ele>915.8</ele>
        <time>2022-05-23 12:56:15</time>
      </trkpt>
      <trkpt lat="42.0253" lon="0.73851">
        <ele>914.6</ele>
        <time>2022-05-23 12:56:16</time>
      </trkpt>
      <trkpt lat="42.02528" lon="0.73867">
        <ele>913.6</ele>
        <time>2022-05-23 12:56:17</time>
      </trkpt>
      <trkpt lat="42.02527" lon="0.73883">
        <ele>912.6</ele>
        <time>2022-05-23 12:56:18</time>
      </trkpt>
      <trkpt lat="42.02524" lon="0.73898">
        <ele>911.2</ele>
        <time>2022-05-23 12:56:19</time>
      </trkpt>
      <trkpt lat="42.02519" lon="0.73912">
        <ele>910</ele>
        <time>2022-05-23 12:56:20</time>
      </trkpt>
      <trkpt lat="42.02513" lon="0.73924">
        <ele>908.8</ele>
        <time>2022-05-23 12:56:21</time>
      </trkpt>
      <trkpt lat="42.02506" lon="0.73936">
        <ele>907.6</ele>
        <time>2022-05-23 12:56:22</time>
      </trkpt>
      <trkpt lat="42.02497" lon="0.73949">
        <ele>906.4</ele>
        <time>2022-05-23 12:56:23</time>
      </trkpt>
      <trkpt lat="42.02489" lon="0.73961">
        <ele>905.2</ele>
        <time>2022-05-23 12:56:24</time>
      </trkpt>
      <trkpt lat="42.02481" lon="0.73974">
        <ele>904</ele>
        <time>2022-05-23 12:56:25</time>
      </trkpt>
      <trkpt lat="42.02475" lon="0.73989">
        <ele>902.6</ele>
        <time>2022-05-23 12:56:26</time>
      </trkpt>
      <trkpt lat="42.02471" lon="0.74004">
        <ele>901.6</ele>
        <time>2022-05-23 12:56:27</time>
      </trkpt>
      <trkpt lat="42.0247" lon="0.7402">
        <ele>900.8</ele>
        <time>2022-05-23 12:56:28</time>
      </trkpt>
      <trkpt lat="42.02472" lon="0.74035">
        <ele>900.2</ele>
        <time>2022-05-23 12:56:29</time>
      </trkpt>
      <trkpt lat="42.02475" lon="0.74048">
        <ele>899.6</ele>
        <time>2022-05-23 12:56:30</time>
      </trkpt>
      <trkpt lat="42.0248" lon="0.74062">
        <ele>899</ele>
        <time>2022-05-23 12:56:31</time>
      </trkpt>
      <trkpt lat="42.02486" lon="0.74075">
        <ele>898.6</ele>
        <time>2022-05-23 12:56:32</time>
      </trkpt>
      <trkpt lat="42.0249" lon="0.74088">
        <ele>898</ele>
        <time>2022-05-23 12:56:33</time>
      </trkpt>
      <trkpt lat="42.02495" lon="0.74101">
        <ele>897.6</ele>
        <time>2022-05-23 12:56:34</time>
      </trkpt>
      <trkpt lat="42.02498" lon="0.74114">
        <ele>897.2</ele>
        <time>2022-05-23 12:56:35</time>
      </trkpt>
      <trkpt lat="42.02499" lon="0.74128">
        <ele>896.8</ele>
        <time>2022-05-23 12:56:36</time>
      </trkpt>
      <trkpt lat="42.02498" lon="0.7414">
        <ele>896</ele>
        <time>2022-05-23 12:56:37</time>
      </trkpt>
      <trkpt lat="42.02494" lon="0.74155">
        <ele>895.2</ele>
        <time>2022-05-23 12:56:38</time>
      </trkpt>
      <trkpt lat="42.02488" lon="0.74167">
        <ele>894.2</ele>
        <time>2022-05-23 12:56:39</time>
      </trkpt>
      <trkpt lat="42.02479" lon="0.74175">
        <ele>893.4</ele>
        <time>2022-05-23 12:56:40</time>
      </trkpt>
      <trkpt lat="42.02466" lon="0.74181">
        <ele>892.2</ele>
        <time>2022-05-23 12:56:41</time>
      </trkpt>
      <trkpt lat="42.02454" lon="0.74187">
        <ele>890.8</ele>
        <time>2022-05-23 12:56:42</time>
      </trkpt>
      <trkpt lat="42.0244" lon="0.74193">
        <ele>889.6</ele>
        <time>2022-05-23 12:56:43</time>
      </trkpt>
      <trkpt lat="42.02425" lon="0.74198">
        <ele>888</ele>
        <time>2022-05-23 12:56:44</time>
      </trkpt>
      <trkpt lat="42.02411" lon="0.74202">
        <ele>886.4</ele>
        <time>2022-05-23 12:56:45</time>
      </trkpt>
      <trkpt lat="42.02396" lon="0.74203">
        <ele>884.6</ele>
        <time>2022-05-23 12:56:46</time>
      </trkpt>
      <trkpt lat="42.02382" lon="0.74202">
        <ele>883</ele>
        <time>2022-05-23 12:56:47</time>
      </trkpt>
      <trkpt lat="42.02367" lon="0.74197">
        <ele>881.8</ele>
        <time>2022-05-23 12:56:48</time>
      </trkpt>
      <trkpt lat="42.02353" lon="0.74189">
        <ele>880.2</ele>
        <time>2022-05-23 12:56:49</time>
      </trkpt>
      <trkpt lat="42.0234" lon="0.74181">
        <ele>878.6</ele>
        <time>2022-05-23 12:56:50</time>
      </trkpt>
      <trkpt lat="42.02328" lon="0.74173">
        <ele>877.2</ele>
        <time>2022-05-23 12:56:51</time>
      </trkpt>
      <trkpt lat="42.02315" lon="0.74167">
        <ele>875.8</ele>
        <time>2022-05-23 12:56:52</time>
      </trkpt>
      <trkpt lat="42.02302" lon="0.74164">
        <ele>874.2</ele>
        <time>2022-05-23 12:56:53</time>
      </trkpt>
      <trkpt lat="42.02289" lon="0.74164">
        <ele>873</ele>
        <time>2022-05-23 12:56:54</time>
      </trkpt>
      <trkpt lat="42.02275" lon="0.74166">
        <ele>872</ele>
        <time>2022-05-23 12:56:55</time>
      </trkpt>
      <trkpt lat="42.02262" lon="0.74171">
        <ele>870.8</ele>
        <time>2022-05-23 12:56:56</time>
      </trkpt>
      <trkpt lat="42.0225" lon="0.74179">
        <ele>869.8</ele>
        <time>2022-05-23 12:56:57</time>
      </trkpt>
      <trkpt lat="42.02239" lon="0.7419">
        <ele>869.2</ele>
        <time>2022-05-23 12:56:58</time>
      </trkpt>
      <trkpt lat="42.02229" lon="0.74202">
        <ele>868.6</ele>
        <time>2022-05-23 12:56:59</time>
      </trkpt>
      <trkpt lat="42.02221" lon="0.74213">
        <ele>868</ele>
        <time>2022-05-23 12:57:00</time>
      </trkpt>
      <trkpt lat="42.02215" lon="0.74224">
        <ele>867.6</ele>
        <time>2022-05-23 12:57:01</time>
      </trkpt>
      <trkpt lat="42.02206" lon="0.7424">
        <ele>867</ele>
        <time>2022-05-23 12:57:02</time>
      </trkpt>
      <trkpt lat="42.022" lon="0.74254">
        <ele>866.6</ele>
        <time>2022-05-23 12:57:03</time>
      </trkpt>
      <trkpt lat="42.02194" lon="0.74269">
        <ele>866</ele>
        <time>2022-05-23 12:57:04</time>
      </trkpt>
      <trkpt lat="42.02188" lon="0.74283">
        <ele>865.4</ele>
        <time>2022-05-23 12:57:05</time>
      </trkpt>
      <trkpt lat="42.02183" lon="0.74298">
        <ele>865</ele>
        <time>2022-05-23 12:57:06</time>
      </trkpt>
      <trkpt lat="42.02178" lon="0.74312">
        <ele>864.4</ele>
        <time>2022-05-23 12:57:07</time>
      </trkpt>
      <trkpt lat="42.02175" lon="0.74326">
        <ele>864</ele>
        <time>2022-05-23 12:57:08</time>
      </trkpt>
      <trkpt lat="42.02173" lon="0.74339">
        <ele>863.6</ele>
        <time>2022-05-23 12:57:09</time>
      </trkpt>
      <trkpt lat="42.02171" lon="0.7435">
        <ele>863.2</ele>
        <time>2022-05-23 12:57:10</time>
      </trkpt>
      <trkpt lat="42.02168" lon="0.74361">
        <ele>862.8</ele>
        <time>2022-05-23 12:57:11</time>
      </trkpt>
      <trkpt lat="42.02163" lon="0.7437">
        <ele>862.4</ele>
        <time>2022-05-23 12:57:12</time>
      </trkpt>
      <trkpt lat="42.02156" lon="0.74373">
        <ele>861.8</ele>
        <time>2022-05-23 12:57:13</time>
      </trkpt>
      <trkpt lat="42.02149" lon="0.74371">
        <ele>861.4</ele>
        <time>2022-05-23 12:57:14</time>
      </trkpt>
      <trkpt lat="42.02143" lon="0.74366">
        <ele>861</ele>
        <time>2022-05-23 12:57:15</time>
      </trkpt>
      <trkpt lat="42.02136" lon="0.74361">
        <ele>860.6</ele>
        <time>2022-05-23 12:57:16</time>
      </trkpt>
      <trkpt lat="42.02129" lon="0.74356">
        <ele>860.2</ele>
        <time>2022-05-23 12:57:17</time>
      </trkpt>
      <trkpt lat="42.02121" lon="0.74352">
        <ele>859.6</ele>
        <time>2022-05-23 12:57:18</time>
      </trkpt>
      <trkpt lat="42.02112" lon="0.74349">
        <ele>859.2</ele>
        <time>2022-05-23 12:57:19</time>
      </trkpt>
      <trkpt lat="42.02103" lon="0.74346">
        <ele>858.4</ele>
        <time>2022-05-23 12:57:20</time>
      </trkpt>
      <trkpt lat="42.02094" lon="0.74342">
        <ele>857.8</ele>
        <time>2022-05-23 12:57:21</time>
      </trkpt>
      <trkpt lat="42.02084" lon="0.74337">
        <ele>857.2</ele>
        <time>2022-05-23 12:57:22</time>
      </trkpt>
      <trkpt lat="42.02076" lon="0.7433">
        <ele>856.6</ele>
        <time>2022-05-23 12:57:23</time>
      </trkpt>
      <trkpt lat="42.02066" lon="0.74323">
        <ele>855.6</ele>
        <time>2022-05-23 12:57:24</time>
      </trkpt>
      <trkpt lat="42.02057" lon="0.74317">
        <ele>854.8</ele>
        <time>2022-05-23 12:57:25</time>
      </trkpt>
      <trkpt lat="42.02046" lon="0.74313">
        <ele>854</ele>
        <time>2022-05-23 12:57:26</time>
      </trkpt>
      <trkpt lat="42.02035" lon="0.7431">
        <ele>853.2</ele>
        <time>2022-05-23 12:57:27</time>
      </trkpt>
      <trkpt lat="42.02023" lon="0.7431">
        <ele>852.2</ele>
        <time>2022-05-23 12:57:28</time>
      </trkpt>
      <trkpt lat="42.02012" lon="0.74316">
        <ele>851.4</ele>
        <time>2022-05-23 12:57:29</time>
      </trkpt>
      <trkpt lat="42.02002" lon="0.74323">
        <ele>850.4</ele>
        <time>2022-05-23 12:57:30</time>
      </trkpt>
      <trkpt lat="42.01993" lon="0.74334">
        <ele>849.6</ele>
        <time>2022-05-23 12:57:31</time>
      </trkpt>
      <trkpt lat="42.01985" lon="0.74344">
        <ele>848.4</ele>
        <time>2022-05-23 12:57:32</time>
      </trkpt>
      <trkpt lat="42.01977" lon="0.74351">
        <ele>848</ele>
        <time>2022-05-23 12:57:33</time>
      </trkpt>
      <trkpt lat="42.01968" lon="0.74356">
        <ele>847.4</ele>
        <time>2022-05-23 12:57:34</time>
      </trkpt>
      <trkpt lat="42.01958" lon="0.74359">
        <ele>846.8</ele>
        <time>2022-05-23 12:57:35</time>
      </trkpt>
      <trkpt lat="42.01948" lon="0.74359">
        <ele>846.2</ele>
        <time>2022-05-23 12:57:36</time>
      </trkpt>
      <trkpt lat="42.01937" lon="0.74358">
        <ele>845.2</ele>
        <time>2022-05-23 12:57:37</time>
      </trkpt>
      <trkpt lat="42.01927" lon="0.74357">
        <ele>844.4</ele>
        <time>2022-05-23 12:57:38</time>
      </trkpt>
      <trkpt lat="42.01915" lon="0.74354">
        <ele>843.4</ele>
        <time>2022-05-23 12:57:39</time>
      </trkpt>
      <trkpt lat="42.01905" lon="0.74351">
        <ele>842.4</ele>
        <time>2022-05-23 12:57:40</time>
      </trkpt>
      <trkpt lat="42.01895" lon="0.74348">
        <ele>842</ele>
        <time>2022-05-23 12:57:41</time>
      </trkpt>
      <trkpt lat="42.01886" lon="0.74345">
        <ele>841.4</ele>
        <time>2022-05-23 12:57:42</time>
      </trkpt>
      <trkpt lat="42.01876" lon="0.74346">
        <ele>840.8</ele>
        <time>2022-05-23 12:57:43</time>
      </trkpt>
      <trkpt lat="42.01867" lon="0.74351">
        <ele>840.2</ele>
        <time>2022-05-23 12:57:44</time>
      </trkpt>
      <trkpt lat="42.01858" lon="0.74357">
        <ele>839.6</ele>
        <time>2022-05-23 12:57:45</time>
      </trkpt>
      <trkpt lat="42.01849" lon="0.74365">
        <ele>838.8</ele>
        <time>2022-05-23 12:57:46</time>
      </trkpt>
      <trkpt lat="42.01841" lon="0.74372">
        <ele>838.2</ele>
        <time>2022-05-23 12:57:47</time>
      </trkpt>
      <trkpt lat="42.01831" lon="0.74378">
        <ele>837.4</ele>
        <time>2022-05-23 12:57:48</time>
      </trkpt>
      <trkpt lat="42.01822" lon="0.74384">
        <ele>836.4</ele>
        <time>2022-05-23 12:57:49</time>
      </trkpt>
      <trkpt lat="42.01811" lon="0.74388">
        <ele>835.6</ele>
        <time>2022-05-23 12:57:50</time>
      </trkpt>
      <trkpt lat="42.018" lon="0.7439">
        <ele>834.8</ele>
        <time>2022-05-23 12:57:51</time>
      </trkpt>
      <trkpt lat="42.0179" lon="0.74391">
        <ele>833.8</ele>
        <time>2022-05-23 12:57:52</time>
      </trkpt>
      <trkpt lat="42.01779" lon="0.74391">
        <ele>833</ele>
        <time>2022-05-23 12:57:53</time>
      </trkpt>
      <trkpt lat="42.01769" lon="0.74391">
        <ele>832.2</ele>
        <time>2022-05-23 12:57:54</time>
      </trkpt>
      <trkpt lat="42.01761" lon="0.74391">
        <ele>831.4</ele>
        <time>2022-05-23 12:57:55</time>
      </trkpt>
      <trkpt lat="42.01754" lon="0.74391">
        <ele>830.8</ele>
        <time>2022-05-23 12:57:56</time>
      </trkpt>
      <trkpt lat="42.01745" lon="0.74391">
        <ele>830.2</ele>
        <time>2022-05-23 12:57:57</time>
      </trkpt>
      <trkpt lat="42.01738" lon="0.74391">
        <ele>829.6</ele>
        <time>2022-05-23 12:57:58</time>
      </trkpt>
      <trkpt lat="42.01732" lon="0.74391">
        <ele>829.2</ele>
        <time>2022-05-23 12:57:59</time>
      </trkpt>
      <trkpt lat="42.01727" lon="0.74392">
        <ele>828.8</ele>
        <time>2022-05-23 12:58:00</time>
      </trkpt>
      <trkpt lat="42.01722" lon="0.74393">
        <ele>828.4</ele>
        <time>2022-05-23 12:58:01</time>
      </trkpt>
      <trkpt lat="42.01718" lon="0.74393">
        <ele>828.2</ele>
        <time>2022-05-23 12:58:02</time>
      </trkpt>
      <trkpt lat="42.01715" lon="0.74393">
        <ele>828</ele>
        <time>2022-05-23 12:58:03</time>
      </trkpt>
      <trkpt lat="42.01713" lon="0.74393">
        <ele>827.8</ele>
        <time>2022-05-23 12:58:04</time>
      </trkpt>
      <trkpt lat="42.0171" lon="0.74391">
        <ele>827.4</ele>
        <time>2022-05-23 12:58:05</time>
      </trkpt>
      <trkpt lat="42.01707" lon="0.74389">
        <ele>827.2</ele>
        <time>2022-05-23 12:58:06</time>
      </trkpt>
      <trkpt lat="42.01703" lon="0.74387">
        <ele>826.8</ele>
        <time>2022-05-23 12:58:07</time>
      </trkpt>
      <trkpt lat="42.01698" lon="0.74384">
        <ele>826.4</ele>
        <time>2022-05-23 12:58:08</time>
      </trkpt>
      <trkpt lat="42.01693" lon="0.7438">
        <ele>826</ele>
        <time>2022-05-23 12:58:09</time>
      </trkpt>
      <trkpt lat="42.01687" lon="0.74377">
        <ele>825.8</ele>
        <time>2022-05-23 12:58:10</time>
      </trkpt>
      <trkpt lat="42.01681" lon="0.74373">
        <ele>825.4</ele>
        <time>2022-05-23 12:58:11</time>
      </trkpt>
      <trkpt lat="42.01674" lon="0.74369">
        <ele>825</ele>
        <time>2022-05-23 12:58:12</time>
      </trkpt>
      <trkpt lat="42.01667" lon="0.74366">
        <ele>824.6</ele>
        <time>2022-05-23 12:58:13</time>
      </trkpt>
      <trkpt lat="42.01659" lon="0.74362">
        <ele>824.2</ele>
        <time>2022-05-23 12:58:14</time>
      </trkpt>
      <trkpt lat="42.01651" lon="0.74361">
        <ele>823.6</ele>
        <time>2022-05-23 12:58:15</time>
      </trkpt>
      <trkpt lat="42.01643" lon="0.74361">
        <ele>823</ele>
        <time>2022-05-23 12:58:16</time>
      </trkpt>
      <trkpt lat="42.01633" lon="0.74364">
        <ele>822.4</ele>
        <time>2022-05-23 12:58:17</time>
      </trkpt>
      <trkpt lat="42.01625" lon="0.74367">
        <ele>821.8</ele>
        <time>2022-05-23 12:58:18</time>
      </trkpt>
      <trkpt lat="42.01616" lon="0.74372">
        <ele>821.2</ele>
        <time>2022-05-23 12:58:19</time>
      </trkpt>
      <trkpt lat="42.01606" lon="0.74376">
        <ele>820.6</ele>
        <time>2022-05-23 12:58:20</time>
      </trkpt>
      <trkpt lat="42.01597" lon="0.74379">
        <ele>820</ele>
        <time>2022-05-23 12:58:21</time>
      </trkpt>
      <trkpt lat="42.01587" lon="0.74381">
        <ele>819.2</ele>
        <time>2022-05-23 12:58:22</time>
      </trkpt>
      <trkpt lat="42.01576" lon="0.74382">
        <ele>818.4</ele>
        <time>2022-05-23 12:58:23</time>
      </trkpt>
      <trkpt lat="42.01565" lon="0.74384">
        <ele>817.6</ele>
        <time>2022-05-23 12:58:24</time>
      </trkpt>
      <trkpt lat="42.01554" lon="0.74386">
        <ele>816.8</ele>
        <time>2022-05-23 12:58:25</time>
      </trkpt>
      <trkpt lat="42.01543" lon="0.74388">
        <ele>816</ele>
        <time>2022-05-23 12:58:26</time>
      </trkpt>
      <trkpt lat="42.01532" lon="0.74391">
        <ele>815</ele>
        <time>2022-05-23 12:58:27</time>
      </trkpt>
      <trkpt lat="42.01521" lon="0.74393">
        <ele>814.2</ele>
        <time>2022-05-23 12:58:28</time>
      </trkpt>
      <trkpt lat="42.0151" lon="0.74396">
        <ele>813.4</ele>
        <time>2022-05-23 12:58:29</time>
      </trkpt>
      <trkpt lat="42.01499" lon="0.74401">
        <ele>812.8</ele>
        <time>2022-05-23 12:58:30</time>
      </trkpt>
      <trkpt lat="42.01487" lon="0.74407">
        <ele>812</ele>
        <time>2022-05-23 12:58:31</time>
      </trkpt>
      <trkpt lat="42.01477" lon="0.74413">
        <ele>811</ele>
        <time>2022-05-23 12:58:32</time>
      </trkpt>
      <trkpt lat="42.01465" lon="0.74419">
        <ele>810</ele>
        <time>2022-05-23 12:58:33</time>
      </trkpt>
      <trkpt lat="42.01453" lon="0.74423">
        <ele>809</ele>
        <time>2022-05-23 12:58:34</time>
      </trkpt>
      <trkpt lat="42.01441" lon="0.74426">
        <ele>808.2</ele>
        <time>2022-05-23 12:58:35</time>
      </trkpt>
      <trkpt lat="42.01429" lon="0.74428">
        <ele>807.2</ele>
        <time>2022-05-23 12:58:36</time>
      </trkpt>
      <trkpt lat="42.01416" lon="0.74431">
        <ele>806.2</ele>
        <time>2022-05-23 12:58:37</time>
      </trkpt>
      <trkpt lat="42.01404" lon="0.74436">
        <ele>805.4</ele>
        <time>2022-05-23 12:58:38</time>
      </trkpt>
      <trkpt lat="42.01392" lon="0.74443">
        <ele>804.6</ele>
        <time>2022-05-23 12:58:39</time>
      </trkpt>
      <trkpt lat="42.01382" lon="0.74453">
        <ele>803.6</ele>
        <time>2022-05-23 12:58:40</time>
      </trkpt>
      <trkpt lat="42.01372" lon="0.74465">
        <ele>802.6</ele>
        <time>2022-05-23 12:58:41</time>
      </trkpt>
      <trkpt lat="42.01363" lon="0.74477">
        <ele>801.8</ele>
        <time>2022-05-23 12:58:42</time>
      </trkpt>
      <trkpt lat="42.01354" lon="0.74489">
        <ele>800.8</ele>
        <time>2022-05-23 12:58:43</time>
      </trkpt>
      <trkpt lat="42.01346" lon="0.74503">
        <ele>800</ele>
        <time>2022-05-23 12:58:44</time>
      </trkpt>
      <trkpt lat="42.01339" lon="0.74516">
        <ele>799.4</ele>
        <time>2022-05-23 12:58:45</time>
      </trkpt>
      <trkpt lat="42.01331" lon="0.74531">
        <ele>799</ele>
        <time>2022-05-23 12:58:46</time>
      </trkpt>
      <trkpt lat="42.01325" lon="0.74543">
        <ele>798</ele>
        <time>2022-05-23 12:58:47</time>
      </trkpt>
      <trkpt lat="42.01316" lon="0.7456">
        <ele>797.2</ele>
        <time>2022-05-23 12:58:48</time>
      </trkpt>
      <trkpt lat="42.01307" lon="0.74573">
        <ele>796.2</ele>
        <time>2022-05-23 12:58:49</time>
      </trkpt>
      <trkpt lat="42.01298" lon="0.74586">
        <ele>795.4</ele>
        <time>2022-05-23 12:58:50</time>
      </trkpt>
      <trkpt lat="42.01288" lon="0.74598">
        <ele>794.4</ele>
        <time>2022-05-23 12:58:51</time>
      </trkpt>
      <trkpt lat="42.01278" lon="0.74609">
        <ele>793.6</ele>
        <time>2022-05-23 12:58:52</time>
      </trkpt>
      <trkpt lat="42.01266" lon="0.7462">
        <ele>792.8</ele>
        <time>2022-05-23 12:58:53</time>
      </trkpt>
      <trkpt lat="42.01254" lon="0.7463">
        <ele>791.8</ele>
        <time>2022-05-23 12:58:54</time>
      </trkpt>
      <trkpt lat="42.01242" lon="0.7464">
        <ele>790.8</ele>
        <time>2022-05-23 12:58:55</time>
      </trkpt>
      <trkpt lat="42.0123" lon="0.7465">
        <ele>790</ele>
        <time>2022-05-23 12:58:56</time>
      </trkpt>
      <trkpt lat="42.01218" lon="0.7466">
        <ele>789</ele>
        <time>2022-05-23 12:58:57</time>
      </trkpt>
      <trkpt lat="42.01206" lon="0.7467">
        <ele>788.4</ele>
        <time>2022-05-23 12:58:58</time>
      </trkpt>
      <trkpt lat="42.01195" lon="0.74679">
        <ele>787.6</ele>
        <time>2022-05-23 12:58:59</time>
      </trkpt>
      <trkpt lat="42.01183" lon="0.7469">
        <ele>786.8</ele>
        <time>2022-05-23 12:59:00</time>
      </trkpt>
      <trkpt lat="42.01171" lon="0.74699">
        <ele>785.8</ele>
        <time>2022-05-23 12:59:01</time>
      </trkpt>
      <trkpt lat="42.01159" lon="0.7471">
        <ele>784.8</ele>
        <time>2022-05-23 12:59:02</time>
      </trkpt>
      <trkpt lat="42.01147" lon="0.74719">
        <ele>783.8</ele>
        <time>2022-05-23 12:59:03</time>
      </trkpt>
      <trkpt lat="42.01136" lon="0.74728">
        <ele>782.8</ele>
        <time>2022-05-23 12:59:04</time>
      </trkpt>
      <trkpt lat="42.01123" lon="0.74739">
        <ele>781.6</ele>
        <time>2022-05-23 12:59:05</time>
      </trkpt>
      <trkpt lat="42.01112" lon="0.74748">
        <ele>780.4</ele>
        <time>2022-05-23 12:59:06</time>
      </trkpt>
      <trkpt lat="42.01101" lon="0.74756">
        <ele>779.6</ele>
        <time>2022-05-23 12:59:07</time>
      </trkpt>
      <trkpt lat="42.01091" lon="0.74764">
        <ele>779.2</ele>
        <time>2022-05-23 12:59:08</time>
      </trkpt>
      <trkpt lat="42.01082" lon="0.74771">
        <ele>778.6</ele>
        <time>2022-05-23 12:59:09</time>
      </trkpt>
      <trkpt lat="42.01074" lon="0.74777">
        <ele>778</ele>
        <time>2022-05-23 12:59:10</time>
      </trkpt>
      <trkpt lat="42.01068" lon="0.74782">
        <ele>777.8</ele>
        <time>2022-05-23 12:59:11</time>
      </trkpt>
      <trkpt lat="42.01062" lon="0.74786">
        <ele>777.4</ele>
        <time>2022-05-23 12:59:12</time>
      </trkpt>
      <trkpt lat="42.01055" lon="0.74789">
        <ele>777</ele>
        <time>2022-05-23 12:59:13</time>
      </trkpt>
      <trkpt lat="42.0105" lon="0.74792">
        <ele>776.6</ele>
        <time>2022-05-23 12:59:14</time>
      </trkpt>
      <trkpt lat="42.01044" lon="0.74794">
        <ele>776.2</ele>
        <time>2022-05-23 12:59:15</time>
      </trkpt>
      <trkpt lat="42.01039" lon="0.74797">
        <ele>775.8</ele>
        <time>2022-05-23 12:59:16</time>
      </trkpt>
      <trkpt lat="42.01033" lon="0.74799">
        <ele>775.4</ele>
        <time>2022-05-23 12:59:17</time>
      </trkpt>
      <trkpt lat="42.01028" lon="0.74802">
        <ele>775.2</ele>
        <time>2022-05-23 12:59:18</time>
      </trkpt>
      <trkpt lat="42.01023" lon="0.74804">
        <ele>774.6</ele>
        <time>2022-05-23 12:59:19</time>
      </trkpt>
      <trkpt lat="42.01018" lon="0.74806">
        <ele>774.2</ele>
        <time>2022-05-23 12:59:20</time>
      </trkpt>
      <trkpt lat="42.01012" lon="0.7481">
        <ele>773.6</ele>
        <time>2022-05-23 12:59:21</time>
      </trkpt>
      <trkpt lat="42.01006" lon="0.74814">
        <ele>773</ele>
        <time>2022-05-23 12:59:22</time>
      </trkpt>
      <trkpt lat="42.01" lon="0.74821">
        <ele>772.6</ele>
        <time>2022-05-23 12:59:23</time>
      </trkpt>
      <trkpt lat="42.00995" lon="0.74828">
        <ele>772</ele>
        <time>2022-05-23 12:59:24</time>
      </trkpt>
      <trkpt lat="42.00991" lon="0.74837">
        <ele>771.6</ele>
        <time>2022-05-23 12:59:25</time>
      </trkpt>
      <trkpt lat="42.00987" lon="0.74847">
        <ele>771.2</ele>
        <time>2022-05-23 12:59:26</time>
      </trkpt>
      <trkpt lat="42.00983" lon="0.74858">
        <ele>770.8</ele>
        <time>2022-05-23 12:59:27</time>
      </trkpt>
      <trkpt lat="42.00979" lon="0.74868">
        <ele>770.2</ele>
        <time>2022-05-23 12:59:28</time>
      </trkpt>
      <trkpt lat="42.00974" lon="0.74879">
        <ele>769.6</ele>
        <time>2022-05-23 12:59:29</time>
      </trkpt>
      <trkpt lat="42.00968" lon="0.74888">
        <ele>769.2</ele>
        <time>2022-05-23 12:59:30</time>
      </trkpt>
      <trkpt lat="42.00963" lon="0.74897">
        <ele>768.6</ele>
        <time>2022-05-23 12:59:31</time>
      </trkpt>
      <trkpt lat="42.00956" lon="0.74909">
        <ele>768.2</ele>
        <time>2022-05-23 12:59:32</time>
      </trkpt>
      <trkpt lat="42.00951" lon="0.7492">
        <ele>767.6</ele>
        <time>2022-05-23 12:59:33</time>
      </trkpt>
      <trkpt lat="42.00945" lon="0.74932">
        <ele>767</ele>
        <time>2022-05-23 12:59:34</time>
      </trkpt>
      <trkpt lat="42.0094" lon="0.74943">
        <ele>766.6</ele>
        <time>2022-05-23 12:59:35</time>
      </trkpt>
      <trkpt lat="42.00934" lon="0.74954">
        <ele>766.2</ele>
        <time>2022-05-23 12:59:36</time>
      </trkpt>
      <trkpt lat="42.00927" lon="0.74966">
        <ele>765.6</ele>
        <time>2022-05-23 12:59:37</time>
      </trkpt>
      <trkpt lat="42.00919" lon="0.74977">
        <ele>765</ele>
        <time>2022-05-23 12:59:38</time>
      </trkpt>
      <trkpt lat="42.00911" lon="0.74988">
        <ele>764.4</ele>
        <time>2022-05-23 12:59:39</time>
      </trkpt>
      <trkpt lat="42.00903" lon="0.74998">
        <ele>763.8</ele>
        <time>2022-05-23 12:59:40</time>
      </trkpt>
      <trkpt lat="42.00895" lon="0.7501">
        <ele>763.4</ele>
        <time>2022-05-23 12:59:41</time>
      </trkpt>
      <trkpt lat="42.00887" lon="0.75021">
        <ele>763</ele>
        <time>2022-05-23 12:59:42</time>
      </trkpt>
      <trkpt lat="42.00879" lon="0.75034">
        <ele>762.4</ele>
        <time>2022-05-23 12:59:43</time>
      </trkpt>
      <trkpt lat="42.00872" lon="0.75047">
        <ele>762</ele>
        <time>2022-05-23 12:59:44</time>
      </trkpt>
      <trkpt lat="42.00866" lon="0.7506">
        <ele>761.4</ele>
        <time>2022-05-23 12:59:45</time>
      </trkpt>
      <trkpt lat="42.00859" lon="0.75074">
        <ele>761</ele>
        <time>2022-05-23 12:59:46</time>
      </trkpt>
      <trkpt lat="42.00852" lon="0.75087">
        <ele>760.6</ele>
        <time>2022-05-23 12:59:47</time>
      </trkpt>
      <trkpt lat="42.00846" lon="0.75098">
        <ele>760</ele>
        <time>2022-05-23 12:59:48</time>
      </trkpt>
      <trkpt lat="42.00837" lon="0.75112">
        <ele>759</ele>
        <time>2022-05-23 12:59:49</time>
      </trkpt>
      <trkpt lat="42.00828" lon="0.75126">
        <ele>758.4</ele>
        <time>2022-05-23 12:59:50</time>
      </trkpt>
      <trkpt lat="42.0082" lon="0.75138">
        <ele>757.8</ele>
        <time>2022-05-23 12:59:51</time>
      </trkpt>
      <trkpt lat="42.00811" lon="0.75151">
        <ele>757</ele>
        <time>2022-05-23 12:59:52</time>
      </trkpt>
      <trkpt lat="42.00802" lon="0.75163">
        <ele>756</ele>
        <time>2022-05-23 12:59:53</time>
      </trkpt>
      <trkpt lat="42.00792" lon="0.75176">
        <ele>755.2</ele>
        <time>2022-05-23 12:59:54</time>
      </trkpt>
      <trkpt lat="42.00782" lon="0.75188">
        <ele>754.2</ele>
        <time>2022-05-23 12:59:55</time>
      </trkpt>
      <trkpt lat="42.00773" lon="0.752">
        <ele>753.4</ele>
        <time>2022-05-23 12:59:56</time>
      </trkpt>
      <trkpt lat="42.00763" lon="0.75212">
        <ele>752.4</ele>
        <time>2022-05-23 12:59:57</time>
      </trkpt>
      <trkpt lat="42.00752" lon="0.75224">
        <ele>751.4</ele>
        <time>2022-05-23 12:59:58</time>
      </trkpt>
      <trkpt lat="42.00741" lon="0.75234">
        <ele>750.4</ele>
        <time>2022-05-23 12:59:59</time>
      </trkpt>
      <trkpt lat="42.00729" lon="0.75244">
        <ele>749.6</ele>
        <time>2022-05-23 13:00:00</time>
      </trkpt>
      <trkpt lat="42.00717" lon="0.75253">
        <ele>748.6</ele>
        <time>2022-05-23 13:00:01</time>
      </trkpt>
      <trkpt lat="42.00705" lon="0.75263">
        <ele>747.8</ele>
        <time>2022-05-23 13:00:02</time>
      </trkpt>
      <trkpt lat="42.00695" lon="0.75272">
        <ele>747</ele>
        <time>2022-05-23 13:00:03</time>
      </trkpt>
      <trkpt lat="42.00682" lon="0.75283">
        <ele>746</ele>
        <time>2022-05-23 13:00:04</time>
      </trkpt>
      <trkpt lat="42.0067" lon="0.75293">
        <ele>745</ele>
        <time>2022-05-23 13:00:05</time>
      </trkpt>
      <trkpt lat="42.00657" lon="0.75303">
        <ele>744</ele>
        <time>2022-05-23 13:00:06</time>
      </trkpt>
      <trkpt lat="42.00646" lon="0.75312">
        <ele>743</ele>
        <time>2022-05-23 13:00:07</time>
      </trkpt>
      <trkpt lat="42.00633" lon="0.75323">
        <ele>742</ele>
        <time>2022-05-23 13:00:08</time>
      </trkpt>
      <trkpt lat="42.00621" lon="0.75332">
        <ele>741</ele>
        <time>2022-05-23 13:00:09</time>
      </trkpt>
      <trkpt lat="42.00609" lon="0.75342">
        <ele>740.4</ele>
        <time>2022-05-23 13:00:10</time>
      </trkpt>
      <trkpt lat="42.00598" lon="0.75352">
        <ele>739.6</ele>
        <time>2022-05-23 13:00:11</time>
      </trkpt>
      <trkpt lat="42.00587" lon="0.75364">
        <ele>739</ele>
        <time>2022-05-23 13:00:12</time>
      </trkpt>
      <trkpt lat="42.00577" lon="0.75377">
        <ele>738.4</ele>
        <time>2022-05-23 13:00:13</time>
      </trkpt>
      <trkpt lat="42.00568" lon="0.75392">
        <ele>737.6</ele>
        <time>2022-05-23 13:00:14</time>
      </trkpt>
      <trkpt lat="42.00561" lon="0.75408">
        <ele>737</ele>
        <time>2022-05-23 13:00:15</time>
      </trkpt>
      <trkpt lat="42.00555" lon="0.75425">
        <ele>736.2</ele>
        <time>2022-05-23 13:00:16</time>
      </trkpt>
      <trkpt lat="42.0055" lon="0.75444">
        <ele>735.4</ele>
        <time>2022-05-23 13:00:17</time>
      </trkpt>
      <trkpt lat="42.00545" lon="0.75461">
        <ele>734.6</ele>
        <time>2022-05-23 13:00:18</time>
      </trkpt>
      <trkpt lat="42.00539" lon="0.7548">
        <ele>734</ele>
        <time>2022-05-23 13:00:19</time>
      </trkpt>
      <trkpt lat="42.00534" lon="0.75499">
        <ele>733.4</ele>
        <time>2022-05-23 13:00:20</time>
      </trkpt>
      <trkpt lat="42.00529" lon="0.75517">
        <ele>732.8</ele>
        <time>2022-05-23 13:00:21</time>
      </trkpt>
      <trkpt lat="42.00524" lon="0.75534">
        <ele>732.2</ele>
        <time>2022-05-23 13:00:22</time>
      </trkpt>
      <trkpt lat="42.00521" lon="0.75553">
        <ele>731.4</ele>
        <time>2022-05-23 13:00:23</time>
      </trkpt>
      <trkpt lat="42.00518" lon="0.7557">
        <ele>730.8</ele>
        <time>2022-05-23 13:00:24</time>
      </trkpt>
      <trkpt lat="42.00515" lon="0.75589">
        <ele>730.2</ele>
        <time>2022-05-23 13:00:25</time>
      </trkpt>
      <trkpt lat="42.00511" lon="0.75607">
        <ele>729.6</ele>
        <time>2022-05-23 13:00:26</time>
      </trkpt>
      <trkpt lat="42.00508" lon="0.75625">
        <ele>729</ele>
        <time>2022-05-23 13:00:27</time>
      </trkpt>
      <trkpt lat="42.00506" lon="0.75641">
        <ele>728.6</ele>
        <time>2022-05-23 13:00:28</time>
      </trkpt>
      <trkpt lat="42.00503" lon="0.7566">
        <ele>728</ele>
        <time>2022-05-23 13:00:29</time>
      </trkpt>
      <trkpt lat="42.00502" lon="0.75677">
        <ele>727.4</ele>
        <time>2022-05-23 13:00:30</time>
      </trkpt>
      <trkpt lat="42.00502" lon="0.75694">
        <ele>727</ele>
        <time>2022-05-23 13:00:31</time>
      </trkpt>
      <trkpt lat="42.00503" lon="0.75711">
        <ele>726.4</ele>
        <time>2022-05-23 13:00:32</time>
      </trkpt>
      <trkpt lat="42.00506" lon="0.75725">
        <ele>725.8</ele>
        <time>2022-05-23 13:00:33</time>
      </trkpt>
      <trkpt lat="42.0051" lon="0.75738">
        <ele>725.2</ele>
        <time>2022-05-23 13:00:34</time>
      </trkpt>
      <trkpt lat="42.00512" lon="0.7575">
        <ele>724.6</ele>
        <time>2022-05-23 13:00:35</time>
      </trkpt>
      <trkpt lat="42.00511" lon="0.75761">
        <ele>724</ele>
        <time>2022-05-23 13:00:36</time>
      </trkpt>
      <trkpt lat="42.00507" lon="0.7577">
        <ele>723.2</ele>
        <time>2022-05-23 13:00:37</time>
      </trkpt>
      <trkpt lat="42.00499" lon="0.75775">
        <ele>722.4</ele>
        <time>2022-05-23 13:00:38</time>
      </trkpt>
      <trkpt lat="42.0049" lon="0.75777">
        <ele>721.6</ele>
        <time>2022-05-23 13:00:39</time>
      </trkpt>
      <trkpt lat="42.0048" lon="0.75778">
        <ele>720.8</ele>
        <time>2022-05-23 13:00:40</time>
      </trkpt>
      <trkpt lat="42.00471" lon="0.7578">
        <ele>720.2</ele>
        <time>2022-05-23 13:00:41</time>
      </trkpt>
      <trkpt lat="42.00462" lon="0.75785">
        <ele>719.4</ele>
        <time>2022-05-23 13:00:42</time>
      </trkpt>
      <trkpt lat="42.00453" lon="0.75793">
        <ele>718.8</ele>
        <time>2022-05-23 13:00:43</time>
      </trkpt>
      <trkpt lat="42.00445" lon="0.758">
        <ele>718.2</ele>
        <time>2022-05-23 13:00:44</time>
      </trkpt>
      <trkpt lat="42.00436" lon="0.75808">
        <ele>717.8</ele>
        <time>2022-05-23 13:00:45</time>
      </trkpt>
      <trkpt lat="42.00427" lon="0.75814">
        <ele>717.4</ele>
        <time>2022-05-23 13:00:46</time>
      </trkpt>
      <trkpt lat="42.00418" lon="0.75817">
        <ele>716.8</ele>
        <time>2022-05-23 13:00:47</time>
      </trkpt>
      <trkpt lat="42.0041" lon="0.75816">
        <ele>716.6</ele>
        <time>2022-05-23 13:00:48</time>
      </trkpt>
      <trkpt lat="42.00403" lon="0.75812">
        <ele>716.6</ele>
        <time>2022-05-23 13:00:49</time>
      </trkpt>
      <trkpt lat="42.00398" lon="0.75806">
        <ele>716.8</ele>
        <time>2022-05-23 13:00:50</time>
      </trkpt>
      <trkpt lat="42.00393" lon="0.758">
        <ele>716.8</ele>
        <time>2022-05-23 13:00:51</time>
      </trkpt>
      <trkpt lat="42.00386" lon="0.75795">
        <ele>716.8</ele>
        <time>2022-05-23 13:00:52</time>
      </trkpt>
      <trkpt lat="42.00379" lon="0.75793">
        <ele>716.8</ele>
        <time>2022-05-23 13:00:53</time>
      </trkpt>
      <trkpt lat="42.00372" lon="0.75794">
        <ele>716.8</ele>
        <time>2022-05-23 13:00:54</time>
      </trkpt>
      <trkpt lat="42.00365" lon="0.75796">
        <ele>716.6</ele>
        <time>2022-05-23 13:00:55</time>
      </trkpt>
      <trkpt lat="42.00357" lon="0.758">
        <ele>716.2</ele>
        <time>2022-05-23 13:00:56</time>
      </trkpt>
      <trkpt lat="42.0035" lon="0.75803">
        <ele>716</ele>
        <time>2022-05-23 13:00:57</time>
      </trkpt>
      <trkpt lat="42.00342" lon="0.75807">
        <ele>715.6</ele>
        <time>2022-05-23 13:00:58</time>
      </trkpt>
      <trkpt lat="42.00335" lon="0.75811">
        <ele>715.2</ele>
        <time>2022-05-23 13:00:59</time>
      </trkpt>
      <trkpt lat="42.00327" lon="0.75816">
        <ele>715</ele>
        <time>2022-05-23 13:01:00</time>
      </trkpt>
      <trkpt lat="42.0032" lon="0.75821">
        <ele>714.6</ele>
        <time>2022-05-23 13:01:01</time>
      </trkpt>
      <trkpt lat="42.00313" lon="0.75828">
        <ele>714.2</ele>
        <time>2022-05-23 13:01:02</time>
      </trkpt>
      <trkpt lat="42.00306" lon="0.75835">
        <ele>713.8</ele>
        <time>2022-05-23 13:01:03</time>
      </trkpt>
      <trkpt lat="42.00299" lon="0.75842">
        <ele>713.4</ele>
        <time>2022-05-23 13:01:04</time>
      </trkpt>
      <trkpt lat="42.00292" lon="0.75849">
        <ele>713</ele>
        <time>2022-05-23 13:01:05</time>
      </trkpt>
      <trkpt lat="42.00285" lon="0.75855">
        <ele>712.8</ele>
        <time>2022-05-23 13:01:06</time>
      </trkpt>
      <trkpt lat="42.00278" lon="0.75862">
        <ele>712.6</ele>
        <time>2022-05-23 13:01:07</time>
      </trkpt>
      <trkpt lat="42.00271" lon="0.75869">
        <ele>712.4</ele>
        <time>2022-05-23 13:01:08</time>
      </trkpt>
      <trkpt lat="42.00265" lon="0.75875">
        <ele>712.4</ele>
        <time>2022-05-23 13:01:09</time>
      </trkpt>
      <trkpt lat="42.00259" lon="0.75881">
        <ele>712.2</ele>
        <time>2022-05-23 13:01:10</time>
      </trkpt>
      <trkpt lat="42.00253" lon="0.75887">
        <ele>712.2</ele>
        <time>2022-05-23 13:01:11</time>
      </trkpt>
      <trkpt lat="42.00248" lon="0.75891">
        <ele>712.2</ele>
        <time>2022-05-23 13:01:12</time>
      </trkpt>
      <trkpt lat="42.00243" lon="0.75896">
        <ele>712.4</ele>
        <time>2022-05-23 13:01:13</time>
      </trkpt>
      <trkpt lat="42.00239" lon="0.75899">
        <ele>712.2</ele>
        <time>2022-05-23 13:01:14</time>
      </trkpt>
      <trkpt lat="42.00235" lon="0.75902">
        <ele>712.2</ele>
        <time>2022-05-23 13:01:15</time>
      </trkpt>
      <trkpt lat="42.00232" lon="0.75905">
        <ele>712</ele>
        <time>2022-05-23 13:01:16</time>
      </trkpt>
      <trkpt lat="42.00229" lon="0.75907">
        <ele>711.8</ele>
        <time>2022-05-23 13:01:17</time>
      </trkpt>
      <trkpt lat="42.00226" lon="0.75908">
        <ele>711.8</ele>
        <time>2022-05-23 13:01:18</time>
      </trkpt>
      <trkpt lat="42.00224" lon="0.75909">
        <ele>711.6</ele>
        <time>2022-05-23 13:01:19</time>
      </trkpt>
      <trkpt lat="42.00223" lon="0.75911">
        <ele>711.6</ele>
        <time>2022-05-23 13:01:20</time>
      </trkpt>
      <trkpt lat="42.00222" lon="0.75913">
        <ele>711.6</ele>
        <time>2022-05-23 13:01:21</time>
      </trkpt>
      <trkpt lat="42.00222" lon="0.75916">
        <ele>711.4</ele>
        <time>2022-05-23 13:01:22</time>
      </trkpt>
      <trkpt lat="42.00222" lon="0.7592">
        <ele>711.4</ele>
        <time>2022-05-23 13:01:23</time>
      </trkpt>
      <trkpt lat="42.00222" lon="0.75924">
        <ele>711.2</ele>
        <time>2022-05-23 13:01:24</time>
      </trkpt>
      <trkpt lat="42.00222" lon="0.75928">
        <ele>711.2</ele>
        <time>2022-05-23 13:01:25</time>
      </trkpt>
      <trkpt lat="42.00223" lon="0.75932">
        <ele>711.2</ele>
        <time>2022-05-23 13:01:26</time>
      </trkpt>
      <trkpt lat="42.00224" lon="0.75936">
        <ele>711</ele>
        <time>2022-05-23 13:01:27</time>
      </trkpt>
      <trkpt lat="42.00226" lon="0.75941">
        <ele>711</ele>
        <time>2022-05-23 13:01:28</time>
      </trkpt>
      <trkpt lat="42.00228" lon="0.75945">
        <ele>710.8</ele>
        <time>2022-05-23 13:01:29</time>
      </trkpt>
      <trkpt lat="42.00229" lon="0.75949">
        <ele>710.6</ele>
        <time>2022-05-23 13:01:30</time>
      </trkpt>
      <trkpt lat="42.00232" lon="0.75956">
        <ele>710.4</ele>
        <time>2022-05-23 13:01:31</time>
      </trkpt>
      <trkpt lat="42.00234" lon="0.75962">
        <ele>710.2</ele>
        <time>2022-05-23 13:01:32</time>
      </trkpt>
      <trkpt lat="42.00235" lon="0.75967">
        <ele>710</ele>
        <time>2022-05-23 13:01:33</time>
      </trkpt>
      <trkpt lat="42.00238" lon="0.75975">
        <ele>709.8</ele>
        <time>2022-05-23 13:01:34</time>
      </trkpt>
      <trkpt lat="42.00239" lon="0.75981">
        <ele>709.6</ele>
        <time>2022-05-23 13:01:35</time>
      </trkpt>
      <trkpt lat="42.00243" lon="0.7599">
        <ele>709.2</ele>
        <time>2022-05-23 13:01:36</time>
      </trkpt>
      <trkpt lat="42.00245" lon="0.75996">
        <ele>709</ele>
        <time>2022-05-23 13:01:37</time>
      </trkpt>
      <trkpt lat="42.00248" lon="0.76005">
        <ele>708.6</ele>
        <time>2022-05-23 13:01:38</time>
      </trkpt>
      <trkpt lat="42.00249" lon="0.76011">
        <ele>708.4</ele>
        <time>2022-05-23 13:01:39</time>
      </trkpt>
      <trkpt lat="42.00252" lon="0.76023">
        <ele>708</ele>
        <time>2022-05-23 13:01:40</time>
      </trkpt>
      <trkpt lat="42.00254" lon="0.76028">
        <ele>707.8</ele>
        <time>2022-05-23 13:01:41</time>
      </trkpt>
      <trkpt lat="42.00256" lon="0.7604">
        <ele>707.4</ele>
        <time>2022-05-23 13:01:42</time>
      </trkpt>
      <trkpt lat="42.00257" lon="0.76047">
        <ele>707</ele>
        <time>2022-05-23 13:01:43</time>
      </trkpt>
      <trkpt lat="42.00256" lon="0.76058">
        <ele>706.8</ele>
        <time>2022-05-23 13:01:44</time>
      </trkpt>
      <trkpt lat="42.00255" lon="0.76063">
        <ele>706.6</ele>
        <time>2022-05-23 13:01:45</time>
      </trkpt>
      <trkpt lat="42.00251" lon="0.76072">
        <ele>706.4</ele>
        <time>2022-05-23 13:01:46</time>
      </trkpt>
      <trkpt lat="42.0025" lon="0.76075">
        <ele>706.4</ele>
        <time>2022-05-23 13:01:47</time>
      </trkpt>
      <trkpt lat="42.00246" lon="0.76081">
        <ele>706.2</ele>
        <time>2022-05-23 13:01:48</time>
      </trkpt>
      <trkpt lat="42.00243" lon="0.76084">
        <ele>706.2</ele>
        <time>2022-05-23 13:01:49</time>
      </trkpt>
      <trkpt lat="42.00242" lon="0.76085">
        <ele>706</ele>
        <time>2022-05-23 13:01:50</time>
      </trkpt>
      <trkpt lat="42.00241" lon="0.7609">
        <ele>705.8</ele>
        <time>2022-05-23 13:01:51</time>
      </trkpt>
      <trkpt lat="42.00242" lon="0.76093">
        <ele>705.6</ele>
        <time>2022-05-23 13:01:52</time>
      </trkpt>
      <trkpt lat="42.00245" lon="0.76096">
        <ele>705.6</ele>
        <time>2022-05-23 13:01:53</time>
      </trkpt>
      <trkpt lat="42.00247" lon="0.76098">
        <ele>705.4</ele>
        <time>2022-05-23 13:01:54</time>
      </trkpt>
      <trkpt lat="42.00249" lon="0.76099">
        <ele>705.4</ele>
        <time>2022-05-23 13:01:55</time>
      </trkpt>
      <trkpt lat="42.00253" lon="0.76103">
        <ele>705.6</ele>
        <time>2022-05-23 13:01:56</time>
      </trkpt>
      <trkpt lat="42.00257" lon="0.76106">
        <ele>705.4</ele>
        <time>2022-05-23 13:01:57</time>
      </trkpt>
      <trkpt lat="42.00259" lon="0.76107">
        <ele>705.4</ele>
        <time>2022-05-23 13:01:58</time>
      </trkpt>
      <trkpt lat="42.00265" lon="0.76112">
        <ele>705.2</ele>
        <time>2022-05-23 13:01:59</time>
      </trkpt>
      <trkpt lat="42.00268" lon="0.76114">
        <ele>705</ele>
        <time>2022-05-23 13:02:00</time>
      </trkpt>
      <trkpt lat="42.00271" lon="0.76117">
        <ele>704.8</ele>
        <time>2022-05-23 13:02:01</time>
      </trkpt>
      <trkpt lat="42.00279" lon="0.76123">
        <ele>704.8</ele>
        <time>2022-05-23 13:02:02</time>
      </trkpt>
      <trkpt lat="42.00281" lon="0.76128">
        <ele>704.8</ele>
        <time>2022-05-23 13:02:03</time>
      </trkpt>
      <trkpt lat="42.00284" lon="0.76133">
        <ele>704.6</ele>
        <time>2022-05-23 13:02:04</time>
      </trkpt>
      <trkpt lat="42.00286" lon="0.76139">
        <ele>704.6</ele>
        <time>2022-05-23 13:02:05</time>
      </trkpt>
      <trkpt lat="42.00288" lon="0.76146">
        <ele>704.4</ele>
        <time>2022-05-23 13:02:06</time>
      </trkpt>
      <trkpt lat="42.0029" lon="0.76151">
        <ele>704.4</ele>
        <time>2022-05-23 13:02:07</time>
      </trkpt>
      <trkpt lat="42.00293" lon="0.76157">
        <ele>704.2</ele>
        <time>2022-05-23 13:02:08</time>
      </trkpt>
      <trkpt lat="42.00295" lon="0.76164">
        <ele>704</ele>
        <time>2022-05-23 13:02:09</time>
      </trkpt>
      <trkpt lat="42.00298" lon="0.7617">
        <ele>704</ele>
        <time>2022-05-23 13:02:10</time>
      </trkpt>
      <trkpt lat="42.003" lon="0.76176">
        <ele>703.8</ele>
        <time>2022-05-23 13:02:11</time>
      </trkpt>
      <trkpt lat="42.00303" lon="0.76184">
        <ele>703.8</ele>
        <time>2022-05-23 13:02:12</time>
      </trkpt>
      <trkpt lat="42.00305" lon="0.76191">
        <ele>703.6</ele>
        <time>2022-05-23 13:02:13</time>
      </trkpt>
      <trkpt lat="42.00308" lon="0.76199">
        <ele>703.6</ele>
        <time>2022-05-23 13:02:14</time>
      </trkpt>
      <trkpt lat="42.0031" lon="0.76205">
        <ele>703.4</ele>
        <time>2022-05-23 13:02:15</time>
      </trkpt>
      <trkpt lat="42.00313" lon="0.76213">
        <ele>703.4</ele>
        <time>2022-05-23 13:02:16</time>
      </trkpt>
      <trkpt lat="42.00314" lon="0.76219">
        <ele>703.2</ele>
        <time>2022-05-23 13:02:17</time>
      </trkpt>
      <trkpt lat="42.00317" lon="0.76227">
        <ele>703</ele>
        <time>2022-05-23 13:02:18</time>
      </trkpt>
      <trkpt lat="42.00319" lon="0.76234">
        <ele>702.8</ele>
        <time>2022-05-23 13:02:19</time>
      </trkpt>
      <trkpt lat="42.00321" lon="0.76241">
        <ele>702.6</ele>
        <time>2022-05-23 13:02:20</time>
      </trkpt>
      <trkpt lat="42.00323" lon="0.76246">
        <ele>702.6</ele>
        <time>2022-05-23 13:02:21</time>
      </trkpt>
      <trkpt lat="42.00325" lon="0.76254">
        <ele>702.4</ele>
        <time>2022-05-23 13:02:22</time>
      </trkpt>
      <trkpt lat="42.00326" lon="0.76259">
        <ele>702.4</ele>
        <time>2022-05-23 13:02:23</time>
      </trkpt>
      <trkpt lat="42.00329" lon="0.76268">
        <ele>702.2</ele>
        <time>2022-05-23 13:02:24</time>
      </trkpt>
      <trkpt lat="42.0033" lon="0.76273">
        <ele>702.2</ele>
        <time>2022-05-23 13:02:25</time>
      </trkpt>
      <trkpt lat="42.00332" lon="0.76282">
        <ele>701.8</ele>
        <time>2022-05-23 13:02:26</time>
      </trkpt>
      <trkpt lat="42.00333" lon="0.76288">
        <ele>701.8</ele>
        <time>2022-05-23 13:02:27</time>
      </trkpt>
      <trkpt lat="42.00334" lon="0.76295">
        <ele>701.6</ele>
        <time>2022-05-23 13:02:28</time>
      </trkpt>
      <trkpt lat="42.00334" lon="0.76302">
        <ele>701.4</ele>
        <time>2022-05-23 13:02:29</time>
      </trkpt>
      <trkpt lat="42.00335" lon="0.76312">
        <ele>701.4</ele>
        <time>2022-05-23 13:02:30</time>
      </trkpt>
      <trkpt lat="42.00335" lon="0.76317">
        <ele>701.2</ele>
        <time>2022-05-23 13:02:31</time>
      </trkpt>
      <trkpt lat="42.00335" lon="0.76326">
        <ele>701</ele>
        <time>2022-05-23 13:02:32</time>
      </trkpt>
      <trkpt lat="42.00334" lon="0.7633">
        <ele>701</ele>
        <time>2022-05-23 13:02:33</time>
      </trkpt>
      <trkpt lat="42.00333" lon="0.76336">
        <ele>700.8</ele>
        <time>2022-05-23 13:02:34</time>
      </trkpt>
      <trkpt lat="42.00332" lon="0.7634">
        <ele>700.8</ele>
        <time>2022-05-23 13:02:35</time>
      </trkpt>
      <trkpt lat="42.00331" lon="0.76343">
        <ele>700.8</ele>
        <time>2022-05-23 13:02:36</time>
      </trkpt>
      <trkpt lat="42.0033" lon="0.76349">
        <ele>700.6</ele>
        <time>2022-05-23 13:02:37</time>
      </trkpt>
      <trkpt lat="42.00328" lon="0.76354">
        <ele>700.6</ele>
        <time>2022-05-23 13:02:38</time>
      </trkpt>
      <trkpt lat="42.00327" lon="0.76357">
        <ele>700.4</ele>
        <time>2022-05-23 13:02:39</time>
      </trkpt>
      <trkpt lat="42.00325" lon="0.76363">
        <ele>700.4</ele>
        <time>2022-05-23 13:02:40</time>
      </trkpt>
      <trkpt lat="42.00323" lon="0.76368">
        <ele>700.4</ele>
        <time>2022-05-23 13:02:41</time>
      </trkpt>
      <trkpt lat="42.00321" lon="0.76372">
        <ele>700.2</ele>
        <time>2022-05-23 13:02:42</time>
      </trkpt>
      <trkpt lat="42.00319" lon="0.76378">
        <ele>700</ele>
        <time>2022-05-23 13:02:43</time>
      </trkpt>
      <trkpt lat="42.00316" lon="0.76383">
        <ele>699.8</ele>
        <time>2022-05-23 13:02:44</time>
      </trkpt>
      <trkpt lat="42.00314" lon="0.76385">
        <ele>699.8</ele>
        <time>2022-05-23 13:02:45</time>
      </trkpt>
      <trkpt lat="42.00312" lon="0.76389">
        <ele>699.8</ele>
        <time>2022-05-23 13:02:46</time>
      </trkpt>
      <trkpt lat="42.00307" lon="0.76397">
        <ele>699.8</ele>
        <time>2022-05-23 13:02:47</time>
      </trkpt>
      <trkpt lat="42.00304" lon="0.764">
        <ele>699.6</ele>
        <time>2022-05-23 13:02:48</time>
      </trkpt>
      <trkpt lat="42.00302" lon="0.76401">
        <ele>699.4</ele>
        <time>2022-05-23 13:02:49</time>
      </trkpt>
      <trkpt lat="42.00301" lon="0.76403">
        <ele>699.4</ele>
        <time>2022-05-23 13:02:50</time>
      </trkpt>
      <trkpt lat="42.00299" lon="0.76405">
        <ele>699.2</ele>
        <time>2022-05-23 13:02:51</time>
      </trkpt>
      <trkpt lat="42.00312" lon="0.76397">
        <ele>699.4</ele>
        <time>2022-05-23 13:02:52</time>
      </trkpt>
      <trkpt lat="42.00313" lon="0.76396">
        <ele>699.4</ele>
        <time>2022-05-23 13:02:53</time>
      </trkpt>
      <trkpt lat="42.00314" lon="0.76395">
        <ele>699.4</ele>
        <time>2022-05-23 13:02:54</time>
      </trkpt>
      <trkpt lat="42.00315" lon="0.76395">
        <ele>699.4</ele>
        <time>2022-05-23 13:02:55</time>
      </trkpt>
      <trkpt lat="42.00316" lon="0.76394">
        <ele>699.4</ele>
        <time>2022-05-23 13:02:56</time>
      </trkpt>
      <trkpt lat="42.00318" lon="0.76394">
        <ele>699.4</ele>
        <time>2022-05-23 13:02:57</time>
      </trkpt>
      <trkpt lat="42.00319" lon="0.76393">
        <ele>699.4</ele>
        <time>2022-05-23 13:02:58</time>
      </trkpt>
      <trkpt lat="42.00321" lon="0.76392">
        <ele>699.4</ele>
        <time>2022-05-23 13:02:59</time>
      </trkpt>
      <trkpt lat="42.00322" lon="0.76391">
        <ele>699.4</ele>
        <time>2022-05-23 13:03:00</time>
      </trkpt>
      <trkpt lat="42.00324" lon="0.7639">
        <ele>699.4</ele>
        <time>2022-05-23 13:03:01</time>
      </trkpt>
      <trkpt lat="42.00326" lon="0.76389">
        <ele>699.4</ele>
        <time>2022-05-23 13:03:02</time>
      </trkpt>
      <trkpt lat="42.00327" lon="0.76387">
        <ele>699.4</ele>
        <time>2022-05-23 13:03:03</time>
      </trkpt>
      <trkpt lat="42.00328" lon="0.76384">
        <ele>699.4</ele>
        <time>2022-05-23 13:03:04</time>
      </trkpt>
      <trkpt lat="42.0033" lon="0.76382">
        <ele>699.4</ele>
        <time>2022-05-23 13:03:05</time>
      </trkpt>
      <trkpt lat="42.00332" lon="0.7638">
        <ele>699.4</ele>
        <time>2022-05-23 13:03:06</time>
      </trkpt>
      <trkpt lat="42.00333" lon="0.76377">
        <ele>699.4</ele>
        <time>2022-05-23 13:03:07</time>
      </trkpt>
      <trkpt lat="42.00334" lon="0.76374">
        <ele>699.4</ele>
        <time>2022-05-23 13:03:08</time>
      </trkpt>
      <trkpt lat="42.00335" lon="0.76371">
        <ele>699.4</ele>
        <time>2022-05-23 13:03:09</time>
      </trkpt>
      <trkpt lat="42.00336" lon="0.76368">
        <ele>699.4</ele>
        <time>2022-05-23 13:03:10</time>
      </trkpt>
      <trkpt lat="42.00338" lon="0.76364">
        <ele>699.6</ele>
        <time>2022-05-23 13:03:11</time>
      </trkpt>
      <trkpt lat="42.00338" lon="0.76361">
        <ele>699.6</ele>
        <time>2022-05-23 13:03:12</time>
      </trkpt>
      <trkpt lat="42.0034" lon="0.76357">
        <ele>699.6</ele>
        <time>2022-05-23 13:03:13</time>
      </trkpt>
      <trkpt lat="42.0034" lon="0.76353">
        <ele>699.8</ele>
        <time>2022-05-23 13:03:14</time>
      </trkpt>
      <trkpt lat="42.00341" lon="0.76349">
        <ele>700</ele>
        <time>2022-05-23 13:03:15</time>
      </trkpt>
      <trkpt lat="42.00342" lon="0.76345">
        <ele>700</ele>
        <time>2022-05-23 13:59:11</time>
      </trkpt>
      <trkpt lat="42.00342" lon="0.76342">
        <ele>700</ele>
        <time>2022-05-23 13:59:12</time>
      </trkpt>
      <trkpt lat="42.00343" lon="0.76337">
        <ele>700.2</ele>
        <time>2022-05-23 13:59:13</time>
      </trkpt>
      <trkpt lat="42.00343" lon="0.76333">
        <ele>700.2</ele>
        <time>2022-05-23 13:59:14</time>
      </trkpt>
      <trkpt lat="42.00343" lon="0.76329">
        <ele>700.2</ele>
        <time>2022-05-23 13:59:15</time>
      </trkpt>
      <trkpt lat="42.00343" lon="0.76327">
        <ele>700.2</ele>
        <time>2022-05-23 13:59:16</time>
      </trkpt>
      <trkpt lat="42.00343" lon="0.76321">
        <ele>700.2</ele>
        <time>2022-05-23 13:59:17</time>
      </trkpt>
      <trkpt lat="42.00343" lon="0.76317">
        <ele>700.2</ele>
        <time>2022-05-23 13:59:18</time>
      </trkpt>
      <trkpt lat="42.00343" lon="0.76313">
        <ele>700.2</ele>
        <time>2022-05-23 13:59:19</time>
      </trkpt>
      <trkpt lat="42.00343" lon="0.76308">
        <ele>700.2</ele>
        <time>2022-05-23 13:59:20</time>
      </trkpt>
      <trkpt lat="42.00343" lon="0.76303">
        <ele>700.4</ele>
        <time>2022-05-23 13:59:21</time>
      </trkpt>
      <trkpt lat="42.00342" lon="0.76301">
        <ele>700.4</ele>
        <time>2022-05-23 13:59:22</time>
      </trkpt>
      <trkpt lat="42.00342" lon="0.76294">
        <ele>700.6</ele>
        <time>2022-05-23 13:59:23</time>
      </trkpt>
      <trkpt lat="42.00341" lon="0.7629">
        <ele>700.6</ele>
        <time>2022-05-23 13:59:24</time>
      </trkpt>
      <trkpt lat="42.00341" lon="0.76287">
        <ele>700.6</ele>
        <time>2022-05-23 13:59:25</time>
      </trkpt>
      <trkpt lat="42.0034" lon="0.76281">
        <ele>700.6</ele>
        <time>2022-05-23 13:59:26</time>
      </trkpt>
      <trkpt lat="42.00339" lon="0.76277">
        <ele>700.8</ele>
        <time>2022-05-23 13:59:27</time>
      </trkpt>
      <trkpt lat="42.00339" lon="0.76274">
        <ele>700.8</ele>
        <time>2022-05-23 13:59:28</time>
      </trkpt>
      <trkpt lat="42.00338" lon="0.76268">
        <ele>701</ele>
        <time>2022-05-23 13:59:29</time>
      </trkpt>
      <trkpt lat="42.00337" lon="0.76264">
        <ele>701</ele>
        <time>2022-05-23 13:59:30</time>
      </trkpt>
      <trkpt lat="42.00336" lon="0.76261">
        <ele>701</ele>
        <time>2022-05-23 13:59:31</time>
      </trkpt>
      <trkpt lat="42.00335" lon="0.76257">
        <ele>701.2</ele>
        <time>2022-05-23 13:59:32</time>
      </trkpt>
      <trkpt lat="42.00334" lon="0.76254">
        <ele>701.2</ele>
        <time>2022-05-23 13:59:33</time>
      </trkpt>
      <trkpt lat="42.00333" lon="0.76251">
        <ele>701.4</ele>
        <time>2022-05-23 13:59:34</time>
      </trkpt>
      <trkpt lat="42.00333" lon="0.76248">
        <ele>701.4</ele>
        <time>2022-05-23 13:59:35</time>
      </trkpt>
      <trkpt lat="42.00331" lon="0.76243">
        <ele>701.6</ele>
        <time>2022-05-23 13:59:36</time>
      </trkpt>
      <trkpt lat="42.0033" lon="0.76239">
        <ele>701.6</ele>
        <time>2022-05-23 13:59:37</time>
      </trkpt>
      <trkpt lat="42.00329" lon="0.76235">
        <ele>701.6</ele>
        <time>2022-05-23 13:59:38</time>
      </trkpt>
      <trkpt lat="42.00328" lon="0.76232">
        <ele>701.6</ele>
        <time>2022-05-23 13:59:39</time>
      </trkpt>
      <trkpt lat="42.00326" lon="0.76226">
        <ele>701.6</ele>
        <time>2022-05-23 13:59:40</time>
      </trkpt>
      <trkpt lat="42.00325" lon="0.76223">
        <ele>701.6</ele>
        <time>2022-05-23 13:59:41</time>
      </trkpt>
      <trkpt lat="42.00324" lon="0.7622">
        <ele>701.8</ele>
        <time>2022-05-23 13:59:42</time>
      </trkpt>
      <trkpt lat="42.00323" lon="0.76214">
        <ele>701.6</ele>
        <time>2022-05-23 13:59:43</time>
      </trkpt>
      <trkpt lat="42.00322" lon="0.7621">
        <ele>701.8</ele>
        <time>2022-05-23 13:59:44</time>
      </trkpt>
      <trkpt lat="42.00321" lon="0.76207">
        <ele>701.8</ele>
        <time>2022-05-23 13:59:45</time>
      </trkpt>
      <trkpt lat="42.00319" lon="0.76201">
        <ele>702</ele>
        <time>2022-05-23 13:59:46</time>
      </trkpt>
      <trkpt lat="42.00318" lon="0.76197">
        <ele>702</ele>
        <time>2022-05-23 13:59:47</time>
      </trkpt>
      <trkpt lat="42.00317" lon="0.76194">
        <ele>702</ele>
        <time>2022-05-23 13:59:48</time>
      </trkpt>
      <trkpt lat="42.00315" lon="0.76188">
        <ele>702.2</ele>
        <time>2022-05-23 13:59:49</time>
      </trkpt>
      <trkpt lat="42.00314" lon="0.76184">
        <ele>702.2</ele>
        <time>2022-05-23 13:59:50</time>
      </trkpt>
      <trkpt lat="42.00313" lon="0.76182">
        <ele>702.2</ele>
        <time>2022-05-23 13:59:51</time>
      </trkpt>
      <trkpt lat="42.00312" lon="0.76177">
        <ele>702</ele>
        <time>2022-05-23 13:59:52</time>
      </trkpt>
      <trkpt lat="42.0031" lon="0.76173">
        <ele>702</ele>
        <time>2022-05-23 13:59:53</time>
      </trkpt>
      <trkpt lat="42.0031" lon="0.7617">
        <ele>702</ele>
        <time>2022-05-23 13:59:54</time>
      </trkpt>
      <trkpt lat="42.00308" lon="0.76165">
        <ele>702</ele>
        <time>2022-05-23 13:59:55</time>
      </trkpt>
      <trkpt lat="42.00306" lon="0.76161">
        <ele>702</ele>
        <time>2022-05-23 13:59:56</time>
      </trkpt>
      <trkpt lat="42.00305" lon="0.76158">
        <ele>702.2</ele>
        <time>2022-05-23 13:59:57</time>
      </trkpt>
      <trkpt lat="42.00304" lon="0.76153">
        <ele>702.2</ele>
        <time>2022-05-23 13:59:58</time>
      </trkpt>
      <trkpt lat="42.00302" lon="0.76149">
        <ele>702.4</ele>
        <time>2022-05-23 13:59:59</time>
      </trkpt>
      <trkpt lat="42.00302" lon="0.76147">
        <ele>702.4</ele>
        <time>2022-05-23 14:00:00</time>
      </trkpt>
      <trkpt lat="42.003" lon="0.76142">
        <ele>702.6</ele>
        <time>2022-05-23 14:00:01</time>
      </trkpt>
      <trkpt lat="42.00299" lon="0.76138">
        <ele>702.6</ele>
        <time>2022-05-23 14:00:02</time>
      </trkpt>
      <trkpt lat="42.00298" lon="0.76135">
        <ele>702.6</ele>
        <time>2022-05-23 14:00:03</time>
      </trkpt>
      <trkpt lat="42.00297" lon="0.7613">
        <ele>702.8</ele>
        <time>2022-05-23 14:00:04</time>
      </trkpt>
      <trkpt lat="42.00296" lon="0.76126">
        <ele>702.8</ele>
        <time>2022-05-23 14:00:05</time>
      </trkpt>
      <trkpt lat="42.00295" lon="0.76123">
        <ele>702.8</ele>
        <time>2022-05-23 14:00:06</time>
      </trkpt>
      <trkpt lat="42.00293" lon="0.76117">
        <ele>703</ele>
        <time>2022-05-23 14:00:07</time>
      </trkpt>
      <trkpt lat="42.00292" lon="0.76113">
        <ele>703</ele>
        <time>2022-05-23 14:00:08</time>
      </trkpt>
      <trkpt lat="42.00291" lon="0.76111">
        <ele>703.2</ele>
        <time>2022-05-23 14:00:09</time>
      </trkpt>
      <trkpt lat="42.00289" lon="0.76105">
        <ele>703.2</ele>
        <time>2022-05-23 14:00:10</time>
      </trkpt>
      <trkpt lat="42.00288" lon="0.76101">
        <ele>703.2</ele>
        <time>2022-05-23 14:00:11</time>
      </trkpt>
      <trkpt lat="42.00287" lon="0.76097">
        <ele>703.4</ele>
        <time>2022-05-23 14:00:12</time>
      </trkpt>
      <trkpt lat="42.00285" lon="0.76092">
        <ele>703.4</ele>
        <time>2022-05-23 14:00:13</time>
      </trkpt>
      <trkpt lat="42.00284" lon="0.76088">
        <ele>703.4</ele>
        <time>2022-05-23 14:00:14</time>
      </trkpt>
      <trkpt lat="42.00283" lon="0.76085">
        <ele>703.4</ele>
        <time>2022-05-23 14:00:15</time>
      </trkpt>
      <trkpt lat="42.00282" lon="0.7608">
        <ele>703.2</ele>
        <time>2022-05-23 14:00:16</time>
      </trkpt>
      <trkpt lat="42.0028" lon="0.76076">
        <ele>703.4</ele>
        <time>2022-05-23 14:00:17</time>
      </trkpt>
      <trkpt lat="42.00279" lon="0.76073">
        <ele>703.4</ele>
        <time>2022-05-23 14:00:18</time>
      </trkpt>
      <trkpt lat="42.00278" lon="0.76069">
        <ele>703.4</ele>
        <time>2022-05-23 14:00:19</time>
      </trkpt>
      <trkpt lat="42.00277" lon="0.76064">
        <ele>703.4</ele>
        <time>2022-05-23 14:00:20</time>
      </trkpt>
      <trkpt lat="42.00275" lon="0.7606">
        <ele>703.6</ele>
        <time>2022-05-23 14:00:21</time>
      </trkpt>
      <trkpt lat="42.00274" lon="0.76056">
        <ele>703.8</ele>
        <time>2022-05-23 14:00:22</time>
      </trkpt>
      <trkpt lat="42.00272" lon="0.76052">
        <ele>703.8</ele>
        <time>2022-05-23 14:00:23</time>
      </trkpt>
      <trkpt lat="42.00272" lon="0.76049">
        <ele>703.8</ele>
        <time>2022-05-23 14:00:24</time>
      </trkpt>
      <trkpt lat="42.0027" lon="0.76044">
        <ele>704</ele>
        <time>2022-05-23 14:00:25</time>
      </trkpt>
      <trkpt lat="42.00269" lon="0.76039">
        <ele>704.2</ele>
        <time>2022-05-23 14:00:26</time>
      </trkpt>
      <trkpt lat="42.00267" lon="0.76035">
        <ele>704.4</ele>
        <time>2022-05-23 14:00:27</time>
      </trkpt>
      <trkpt lat="42.00266" lon="0.76031">
        <ele>704.4</ele>
        <time>2022-05-23 14:00:28</time>
      </trkpt>
      <trkpt lat="42.00265" lon="0.76027">
        <ele>704.4</ele>
        <time>2022-05-23 14:00:29</time>
      </trkpt>
      <trkpt lat="42.00263" lon="0.76023">
        <ele>704.4</ele>
        <time>2022-05-23 14:00:30</time>
      </trkpt>
      <trkpt lat="42.00262" lon="0.76018">
        <ele>704.6</ele>
        <time>2022-05-23 14:00:31</time>
      </trkpt>
      <trkpt lat="42.0026" lon="0.76014">
        <ele>704.6</ele>
        <time>2022-05-23 14:00:32</time>
      </trkpt>
      <trkpt lat="42.00259" lon="0.7601">
        <ele>704.6</ele>
        <time>2022-05-23 14:00:33</time>
      </trkpt>
      <trkpt lat="42.00257" lon="0.76007">
        <ele>704.8</ele>
        <time>2022-05-23 14:00:34</time>
      </trkpt>
      <trkpt lat="42.00256" lon="0.76003">
        <ele>704.8</ele>
        <time>2022-05-23 14:00:35</time>
      </trkpt>
      <trkpt lat="42.00255" lon="0.76">
        <ele>705</ele>
        <time>2022-05-23 14:00:36</time>
      </trkpt>
      <trkpt lat="42.00253" lon="0.75995">
        <ele>705</ele>
        <time>2022-05-23 14:00:37</time>
      </trkpt>
      <trkpt lat="42.00252" lon="0.75991">
        <ele>705</ele>
        <time>2022-05-23 14:00:38</time>
      </trkpt>
      <trkpt lat="42.00251" lon="0.75987">
        <ele>705.2</ele>
        <time>2022-05-23 14:00:39</time>
      </trkpt>
      <trkpt lat="42.00249" lon="0.75983">
        <ele>705.4</ele>
        <time>2022-05-23 14:00:40</time>
      </trkpt>
      <trkpt lat="42.00248" lon="0.75979">
        <ele>705.6</ele>
        <time>2022-05-23 14:00:41</time>
      </trkpt>
      <trkpt lat="42.00247" lon="0.75976">
        <ele>705.6</ele>
        <time>2022-05-23 14:00:42</time>
      </trkpt>
      <trkpt lat="42.00245" lon="0.75971">
        <ele>705.8</ele>
        <time>2022-05-23 14:00:43</time>
      </trkpt>
      <trkpt lat="42.00244" lon="0.75967">
        <ele>706</ele>
        <time>2022-05-23 14:00:44</time>
      </trkpt>
      <trkpt lat="42.00243" lon="0.75963">
        <ele>706</ele>
        <time>2022-05-23 14:00:45</time>
      </trkpt>
      <trkpt lat="42.00241" lon="0.75959">
        <ele>706</ele>
        <time>2022-05-23 14:00:46</time>
      </trkpt>
      <trkpt lat="42.0024" lon="0.75955">
        <ele>706</ele>
        <time>2022-05-23 14:00:47</time>
      </trkpt>
      <trkpt lat="42.00239" lon="0.75952">
        <ele>706</ele>
        <time>2022-05-23 14:00:48</time>
      </trkpt>
      <trkpt lat="42.00238" lon="0.75948">
        <ele>706</ele>
        <time>2022-05-23 14:00:49</time>
      </trkpt>
      <trkpt lat="42.00237" lon="0.75945">
        <ele>706.2</ele>
        <time>2022-05-23 14:00:50</time>
      </trkpt>
      <trkpt lat="42.00236" lon="0.75942">
        <ele>706.4</ele>
        <time>2022-05-23 14:00:51</time>
      </trkpt>
      <trkpt lat="42.00236" lon="0.7594">
        <ele>706.4</ele>
        <time>2022-05-23 14:00:52</time>
      </trkpt>
      <trkpt lat="42.00235" lon="0.75936">
        <ele>706.6</ele>
        <time>2022-05-23 14:00:53</time>
      </trkpt>
      <trkpt lat="42.00233" lon="0.75933">
        <ele>706.8</ele>
        <time>2022-05-23 14:00:54</time>
      </trkpt>
      <trkpt lat="42.00232" lon="0.7593">
        <ele>707</ele>
        <time>2022-05-23 14:00:55</time>
      </trkpt>
      <trkpt lat="42.00232" lon="0.75928">
        <ele>707</ele>
        <time>2022-05-23 14:00:56</time>
      </trkpt>
      <trkpt lat="42.0023" lon="0.75924">
        <ele>707.2</ele>
        <time>2022-05-23 14:00:57</time>
      </trkpt>
      <trkpt lat="42.0023" lon="0.75921">
        <ele>707.2</ele>
        <time>2022-05-23 14:00:58</time>
      </trkpt>
      <trkpt lat="42.00229" lon="0.75917">
        <ele>707.2</ele>
        <time>2022-05-23 14:00:59</time>
      </trkpt>
      <trkpt lat="42.00229" lon="0.75914">
        <ele>707.4</ele>
        <time>2022-05-23 14:01:00</time>
      </trkpt>
      <trkpt lat="42.00228" lon="0.75909">
        <ele>707.2</ele>
        <time>2022-05-23 14:01:01</time>
      </trkpt>
      <trkpt lat="42.00227" lon="0.75904">
        <ele>707.4</ele>
        <time>2022-05-23 14:01:02</time>
      </trkpt>
      <trkpt lat="42.00227" lon="0.759">
        <ele>707.4</ele>
        <time>2022-05-23 14:01:03</time>
      </trkpt>
      <trkpt lat="42.00227" lon="0.75895">
        <ele>707.6</ele>
        <time>2022-05-23 14:01:04</time>
      </trkpt>
      <trkpt lat="42.00227" lon="0.7589">
        <ele>707.6</ele>
        <time>2022-05-23 14:01:05</time>
      </trkpt>
      <trkpt lat="42.00226" lon="0.75886">
        <ele>707.8</ele>
        <time>2022-05-23 14:01:06</time>
      </trkpt>
      <trkpt lat="42.00225" lon="0.7588">
        <ele>708</ele>
        <time>2022-05-23 14:01:07</time>
      </trkpt>
      <trkpt lat="42.00225" lon="0.75875">
        <ele>708</ele>
        <time>2022-05-23 14:01:08</time>
      </trkpt>
      <trkpt lat="42.00225" lon="0.7587">
        <ele>708</ele>
        <time>2022-05-23 14:01:09</time>
      </trkpt>
      <trkpt lat="42.00225" lon="0.75865">
        <ele>708.2</ele>
        <time>2022-05-23 14:01:10</time>
      </trkpt>
      <trkpt lat="42.00225" lon="0.7586">
        <ele>708.2</ele>
        <time>2022-05-23 14:01:11</time>
      </trkpt>
      <trkpt lat="42.00225" lon="0.75856">
        <ele>708.2</ele>
        <time>2022-05-23 14:01:12</time>
      </trkpt>
      <trkpt lat="42.00225" lon="0.7585">
        <ele>708.4</ele>
        <time>2022-05-23 14:01:13</time>
      </trkpt>
      <trkpt lat="42.00225" lon="0.75845">
        <ele>708.4</ele>
        <time>2022-05-23 14:01:14</time>
      </trkpt>
      <trkpt lat="42.00225" lon="0.75841">
        <ele>708.4</ele>
        <time>2022-05-23 14:01:15</time>
      </trkpt>
      <trkpt lat="42.00225" lon="0.75835">
        <ele>708.4</ele>
        <time>2022-05-23 14:01:16</time>
      </trkpt>
      <trkpt lat="42.00225" lon="0.7583">
        <ele>708.4</ele>
        <time>2022-05-23 14:01:17</time>
      </trkpt>
      <trkpt lat="42.00226" lon="0.75827">
        <ele>708.6</ele>
        <time>2022-05-23 14:01:18</time>
      </trkpt>
      <trkpt lat="42.00226" lon="0.75821">
        <ele>708.8</ele>
        <time>2022-05-23 14:01:19</time>
      </trkpt>
      <trkpt lat="42.00227" lon="0.75817">
        <ele>708.8</ele>
        <time>2022-05-23 14:01:20</time>
      </trkpt>
      <trkpt lat="42.00227" lon="0.75812">
        <ele>709</ele>
        <time>2022-05-23 14:01:21</time>
      </trkpt>
      <trkpt lat="42.00227" lon="0.75807">
        <ele>709.2</ele>
        <time>2022-05-23 14:01:22</time>
      </trkpt>
      <trkpt lat="42.00227" lon="0.75802">
        <ele>709.2</ele>
        <time>2022-05-23 14:01:23</time>
      </trkpt>
      <trkpt lat="42.00228" lon="0.75798">
        <ele>709.4</ele>
        <time>2022-05-23 14:01:24</time>
      </trkpt>
      <trkpt lat="42.00229" lon="0.75793">
        <ele>709.4</ele>
        <time>2022-05-23 14:01:25</time>
      </trkpt>
      <trkpt lat="42.00229" lon="0.75789">
        <ele>709.4</ele>
        <time>2022-05-23 14:01:26</time>
      </trkpt>
      <trkpt lat="42.0023" lon="0.75784">
        <ele>709.6</ele>
        <time>2022-05-23 14:01:27</time>
      </trkpt>
      <trkpt lat="42.0023" lon="0.7578">
        <ele>709.6</ele>
        <time>2022-05-23 14:01:28</time>
      </trkpt>
      <trkpt lat="42.00231" lon="0.75774">
        <ele>709.8</ele>
        <time>2022-05-23 14:01:29</time>
      </trkpt>
      <trkpt lat="42.00231" lon="0.75771">
        <ele>709.8</ele>
        <time>2022-05-23 14:01:30</time>
      </trkpt>
      <trkpt lat="42.00232" lon="0.75765">
        <ele>710</ele>
        <time>2022-05-23 14:01:31</time>
      </trkpt>
      <trkpt lat="42.00232" lon="0.7576">
        <ele>710.2</ele>
        <time>2022-05-23 14:01:32</time>
      </trkpt>
      <trkpt lat="42.00233" lon="0.75756">
        <ele>710.4</ele>
        <time>2022-05-23 14:01:33</time>
      </trkpt>
      <trkpt lat="42.00233" lon="0.7575">
        <ele>710.4</ele>
        <time>2022-05-23 14:01:34</time>
      </trkpt>
      <trkpt lat="42.00234" lon="0.75745">
        <ele>710.4</ele>
        <time>2022-05-23 14:01:35</time>
      </trkpt>
      <trkpt lat="42.00234" lon="0.75742">
        <ele>710.4</ele>
        <time>2022-05-23 14:01:36</time>
      </trkpt>
      <trkpt lat="42.00235" lon="0.75736">
        <ele>710.4</ele>
        <time>2022-05-23 14:01:37</time>
      </trkpt>
      <trkpt lat="42.00235" lon="0.75731">
        <ele>710.4</ele>
        <time>2022-05-23 14:01:38</time>
      </trkpt>
      <trkpt lat="42.00236" lon="0.75727">
        <ele>710.6</ele>
        <time>2022-05-23 14:01:39</time>
      </trkpt>
      <trkpt lat="42.00237" lon="0.75722">
        <ele>710.6</ele>
        <time>2022-05-23 14:01:40</time>
      </trkpt>
      <trkpt lat="42.00237" lon="0.75717">
        <ele>710.8</ele>
        <time>2022-05-23 14:01:41</time>
      </trkpt>
      <trkpt lat="42.00238" lon="0.75713">
        <ele>710.8</ele>
        <time>2022-05-23 14:01:42</time>
      </trkpt>
      <trkpt lat="42.00238" lon="0.75707">
        <ele>711</ele>
        <time>2022-05-23 14:01:43</time>
      </trkpt>
      <trkpt lat="42.00239" lon="0.75702">
        <ele>711</ele>
        <time>2022-05-23 14:01:44</time>
      </trkpt>
      <trkpt lat="42.0024" lon="0.75698">
        <ele>711.2</ele>
        <time>2022-05-23 14:01:45</time>
      </trkpt>
      <trkpt lat="42.0024" lon="0.75693">
        <ele>711.4</ele>
        <time>2022-05-23 14:01:46</time>
      </trkpt>
      <trkpt lat="42.00241" lon="0.75688">
        <ele>711.2</ele>
        <time>2022-05-23 14:01:47</time>
      </trkpt>
      <trkpt lat="42.00241" lon="0.75684">
        <ele>711.4</ele>
        <time>2022-05-23 14:01:48</time>
      </trkpt>
      <trkpt lat="42.00242" lon="0.75679">
        <ele>711.6</ele>
        <time>2022-05-23 14:01:49</time>
      </trkpt>
      <trkpt lat="42.00243" lon="0.75674">
        <ele>711.6</ele>
        <time>2022-05-23 14:01:50</time>
      </trkpt>
      <trkpt lat="42.00243" lon="0.7567">
        <ele>711.6</ele>
        <time>2022-05-23 14:01:51</time>
      </trkpt>
      <trkpt lat="42.00244" lon="0.75664">
        <ele>711.6</ele>
        <time>2022-05-23 14:01:52</time>
      </trkpt>
      <trkpt lat="42.00245" lon="0.75659">
        <ele>711.6</ele>
        <time>2022-05-23 14:01:53</time>
      </trkpt>
      <trkpt lat="42.00245" lon="0.75655">
        <ele>711.6</ele>
        <time>2022-05-23 14:01:54</time>
      </trkpt>
      <trkpt lat="42.00246" lon="0.75649">
        <ele>711.8</ele>
        <time>2022-05-23 14:01:55</time>
      </trkpt>
      <trkpt lat="42.00247" lon="0.75645">
        <ele>711.8</ele>
        <time>2022-05-23 14:01:56</time>
      </trkpt>
      <trkpt lat="42.00248" lon="0.7564">
        <ele>711.8</ele>
        <time>2022-05-23 14:01:57</time>
      </trkpt>
      <trkpt lat="42.00248" lon="0.75635">
        <ele>712</ele>
        <time>2022-05-23 14:01:58</time>
      </trkpt>
      <trkpt lat="42.00249" lon="0.7563">
        <ele>711.8</ele>
        <time>2022-05-23 14:01:59</time>
      </trkpt>
      <trkpt lat="42.00249" lon="0.75626">
        <ele>711.8</ele>
        <time>2022-05-23 14:02:00</time>
      </trkpt>
      <trkpt lat="42.00249" lon="0.7562">
        <ele>711.8</ele>
        <time>2022-05-23 14:02:01</time>
      </trkpt>
      <trkpt lat="42.0025" lon="0.75615">
        <ele>712</ele>
        <time>2022-05-23 14:02:02</time>
      </trkpt>
      <trkpt lat="42.00251" lon="0.75611">
        <ele>712</ele>
        <time>2022-05-23 14:02:03</time>
      </trkpt>
      <trkpt lat="42.00251" lon="0.75604">
        <ele>712</ele>
        <time>2022-05-23 14:02:04</time>
      </trkpt>
      <trkpt lat="42.00252" lon="0.75599">
        <ele>712</ele>
        <time>2022-05-23 14:02:05</time>
      </trkpt>
      <trkpt lat="42.00253" lon="0.75595">
        <ele>712</ele>
        <time>2022-05-23 14:02:06</time>
      </trkpt>
      <trkpt lat="42.00253" lon="0.75588">
        <ele>712</ele>
        <time>2022-05-23 14:02:07</time>
      </trkpt>
      <trkpt lat="42.00254" lon="0.75583">
        <ele>712</ele>
        <time>2022-05-23 14:02:08</time>
      </trkpt>
      <trkpt lat="42.00255" lon="0.75579">
        <ele>712.2</ele>
        <time>2022-05-23 14:02:09</time>
      </trkpt>
      <trkpt lat="42.00255" lon="0.75573">
        <ele>712.2</ele>
        <time>2022-05-23 14:02:10</time>
      </trkpt>
      <trkpt lat="42.00255" lon="0.75568">
        <ele>712.4</ele>
        <time>2022-05-23 14:02:11</time>
      </trkpt>
      <trkpt lat="42.00256" lon="0.75564">
        <ele>712.4</ele>
        <time>2022-05-23 14:02:12</time>
      </trkpt>
      <trkpt lat="42.00257" lon="0.75558">
        <ele>712.4</ele>
        <time>2022-05-23 14:02:13</time>
      </trkpt>
      <trkpt lat="42.00257" lon="0.75553">
        <ele>712.4</ele>
        <time>2022-05-23 14:02:14</time>
      </trkpt>
      <trkpt lat="42.00258" lon="0.75547">
        <ele>712.4</ele>
        <time>2022-05-23 14:02:15</time>
      </trkpt>
      <trkpt lat="42.00259" lon="0.75541">
        <ele>712.4</ele>
        <time>2022-05-23 14:02:16</time>
      </trkpt>
      <trkpt lat="42.0026" lon="0.75535">
        <ele>712.4</ele>
        <time>2022-05-23 14:02:17</time>
      </trkpt>
      <trkpt lat="42.00261" lon="0.75528">
        <ele>712.4</ele>
        <time>2022-05-23 14:02:18</time>
      </trkpt>
      <trkpt lat="42.00261" lon="0.75523">
        <ele>712.4</ele>
        <time>2022-05-23 14:02:19</time>
      </trkpt>
      <trkpt lat="42.00262" lon="0.75515">
        <ele>712.4</ele>
        <time>2022-05-23 14:02:20</time>
      </trkpt>
      <trkpt lat="42.00263" lon="0.75509">
        <ele>712.4</ele>
        <time>2022-05-23 14:02:21</time>
      </trkpt>
      <trkpt lat="42.00264" lon="0.75503">
        <ele>712.6</ele>
        <time>2022-05-23 14:02:22</time>
      </trkpt>
      <trkpt lat="42.00265" lon="0.75498">
        <ele>712.8</ele>
        <time>2022-05-23 14:02:23</time>
      </trkpt>
      <trkpt lat="42.00265" lon="0.75491">
        <ele>712.8</ele>
        <time>2022-05-23 14:02:24</time>
      </trkpt>
      <trkpt lat="42.00266" lon="0.75485">
        <ele>712.8</ele>
        <time>2022-05-23 14:02:25</time>
      </trkpt>
      <trkpt lat="42.00267" lon="0.7548">
        <ele>712.8</ele>
        <time>2022-05-23 14:02:26</time>
      </trkpt>
      <trkpt lat="42.00267" lon="0.75474">
        <ele>712.8</ele>
        <time>2022-05-23 14:02:27</time>
      </trkpt>
      <trkpt lat="42.00268" lon="0.75471">
        <ele>712.8</ele>
        <time>2022-05-23 14:02:28</time>
      </trkpt>
      <trkpt lat="42.00269" lon="0.75464">
        <ele>713</ele>
        <time>2022-05-23 14:02:29</time>
      </trkpt>
      <trkpt lat="42.0027" lon="0.75458">
        <ele>713</ele>
        <time>2022-05-23 14:02:30</time>
      </trkpt>
      <trkpt lat="42.0027" lon="0.75453">
        <ele>713.2</ele>
        <time>2022-05-23 14:02:31</time>
      </trkpt>
      <trkpt lat="42.00271" lon="0.75448">
        <ele>713.2</ele>
        <time>2022-05-23 14:02:32</time>
      </trkpt>
      <trkpt lat="42.00272" lon="0.75442">
        <ele>713.2</ele>
        <time>2022-05-23 14:02:33</time>
      </trkpt>
      <trkpt lat="42.00272" lon="0.75437">
        <ele>713.2</ele>
        <time>2022-05-23 14:02:34</time>
      </trkpt>
      <trkpt lat="42.00273" lon="0.75432">
        <ele>713.2</ele>
        <time>2022-05-23 14:02:35</time>
      </trkpt>
      <trkpt lat="42.00274" lon="0.75426">
        <ele>713.2</ele>
        <time>2022-05-23 14:02:36</time>
      </trkpt>
      <trkpt lat="42.00274" lon="0.75421">
        <ele>713</ele>
        <time>2022-05-23 14:02:37</time>
      </trkpt>
      <trkpt lat="42.00275" lon="0.75417">
        <ele>713</ele>
        <time>2022-05-23 14:02:38</time>
      </trkpt>
      <trkpt lat="42.00275" lon="0.75411">
        <ele>713</ele>
        <time>2022-05-23 14:02:39</time>
      </trkpt>
      <trkpt lat="42.00276" lon="0.75406">
        <ele>713</ele>
        <time>2022-05-23 14:02:40</time>
      </trkpt>
      <trkpt lat="42.00277" lon="0.75401">
        <ele>713.2</ele>
        <time>2022-05-23 14:02:41</time>
      </trkpt>
      <trkpt lat="42.00277" lon="0.75395">
        <ele>713.2</ele>
        <time>2022-05-23 14:02:42</time>
      </trkpt>
      <trkpt lat="42.00277" lon="0.7539">
        <ele>713.4</ele>
        <time>2022-05-23 14:02:43</time>
      </trkpt>
      <trkpt lat="42.00278" lon="0.75386">
        <ele>713.6</ele>
        <time>2022-05-23 14:02:44</time>
      </trkpt>
      <trkpt lat="42.00279" lon="0.75379">
        <ele>713.8</ele>
        <time>2022-05-23 14:02:45</time>
      </trkpt>
      <trkpt lat="42.0028" lon="0.75374">
        <ele>713.8</ele>
        <time>2022-05-23 14:02:46</time>
      </trkpt>
      <trkpt lat="42.0028" lon="0.7537">
        <ele>713.8</ele>
        <time>2022-05-23 14:02:47</time>
      </trkpt>
      <trkpt lat="42.00281" lon="0.75364">
        <ele>713.8</ele>
        <time>2022-05-23 14:02:48</time>
      </trkpt>
      <trkpt lat="42.00282" lon="0.75358">
        <ele>713.8</ele>
        <time>2022-05-23 14:02:49</time>
      </trkpt>
      <trkpt lat="42.00282" lon="0.75354">
        <ele>713.8</ele>
        <time>2022-05-23 14:02:50</time>
      </trkpt>
      <trkpt lat="42.00283" lon="0.75348">
        <ele>714</ele>
        <time>2022-05-23 14:02:51</time>
      </trkpt>
      <trkpt lat="42.00283" lon="0.75343">
        <ele>714</ele>
        <time>2022-05-23 14:02:52</time>
      </trkpt>
      <trkpt lat="42.00284" lon="0.75338">
        <ele>714.2</ele>
        <time>2022-05-23 14:02:53</time>
      </trkpt>
      <trkpt lat="42.00285" lon="0.75332">
        <ele>714.2</ele>
        <time>2022-05-23 14:02:54</time>
      </trkpt>
      <trkpt lat="42.00285" lon="0.75327">
        <ele>714.2</ele>
        <time>2022-05-23 14:02:55</time>
      </trkpt>
      <trkpt lat="42.00286" lon="0.75324">
        <ele>714.4</ele>
        <time>2022-05-23 14:02:56</time>
      </trkpt>
      <trkpt lat="42.00286" lon="0.75319">
        <ele>714.4</ele>
        <time>2022-05-23 14:02:57</time>
      </trkpt>
      <trkpt lat="42.00287" lon="0.7531">
        <ele>714.4</ele>
        <time>2022-05-23 14:02:58</time>
      </trkpt>
      <trkpt lat="42.00287" lon="0.75305">
        <ele>714.4</ele>
        <time>2022-05-23 14:02:59</time>
      </trkpt>
      <trkpt lat="42.00288" lon="0.75299">
        <ele>714.4</ele>
        <time>2022-05-23 14:03:00</time>
      </trkpt>
      <trkpt lat="42.00288" lon="0.75294">
        <ele>714.4</ele>
        <time>2022-05-23 14:03:01</time>
      </trkpt>
      <trkpt lat="42.00289" lon="0.75289">
        <ele>714.4</ele>
        <time>2022-05-23 14:03:02</time>
      </trkpt>
      <trkpt lat="42.0029" lon="0.75283">
        <ele>714.6</ele>
        <time>2022-05-23 14:03:03</time>
      </trkpt>
      <trkpt lat="42.0029" lon="0.75278">
        <ele>714.6</ele>
        <time>2022-05-23 14:03:04</time>
      </trkpt>
      <trkpt lat="42.00291" lon="0.75273">
        <ele>714.6</ele>
        <time>2022-05-23 14:03:05</time>
      </trkpt>
      <trkpt lat="42.00291" lon="0.75268">
        <ele>714.8</ele>
        <time>2022-05-23 14:03:06</time>
      </trkpt>
      <trkpt lat="42.00292" lon="0.75262">
        <ele>714.8</ele>
        <time>2022-05-23 14:03:07</time>
      </trkpt>
      <trkpt lat="42.00293" lon="0.75257">
        <ele>714.8</ele>
        <time>2022-05-23 14:03:08</time>
      </trkpt>
      <trkpt lat="42.00293" lon="0.75252">
        <ele>714.6</ele>
        <time>2022-05-23 14:03:09</time>
      </trkpt>
      <trkpt lat="42.00294" lon="0.75247">
        <ele>714.6</ele>
        <time>2022-05-23 14:03:10</time>
      </trkpt>
      <trkpt lat="42.00295" lon="0.75241">
        <ele>714.6</ele>
        <time>2022-05-23 14:03:11</time>
      </trkpt>
      <trkpt lat="42.00296" lon="0.75236">
        <ele>714.6</ele>
        <time>2022-05-23 14:03:12</time>
      </trkpt>
      <trkpt lat="42.00296" lon="0.75231">
        <ele>714.6</ele>
        <time>2022-05-23 14:03:13</time>
      </trkpt>
      <trkpt lat="42.00297" lon="0.75225">
        <ele>714.4</ele>
        <time>2022-05-23 14:03:14</time>
      </trkpt>
      <trkpt lat="42.00297" lon="0.7522">
        <ele>714.4</ele>
        <time>2022-05-23 14:03:15</time>
      </trkpt>
      <trkpt lat="42.00298" lon="0.75215">
        <ele>714.4</ele>
        <time>2022-05-23 14:03:16</time>
      </trkpt>
      <trkpt lat="42.00298" lon="0.75209">
        <ele>714.4</ele>
        <time>2022-05-23 14:03:17</time>
      </trkpt>
      <trkpt lat="42.00299" lon="0.75204">
        <ele>714.4</ele>
        <time>2022-05-23 14:03:18</time>
      </trkpt>
      <trkpt lat="42.003" lon="0.75199">
        <ele>714.4</ele>
        <time>2022-05-23 14:03:19</time>
      </trkpt>
      <trkpt lat="42.003" lon="0.75193">
        <ele>714.4</ele>
        <time>2022-05-23 14:03:20</time>
      </trkpt>
      <trkpt lat="42.00301" lon="0.75187">
        <ele>714.4</ele>
        <time>2022-05-23 14:03:21</time>
      </trkpt>
      <trkpt lat="42.00302" lon="0.75182">
        <ele>714.4</ele>
        <time>2022-05-23 14:03:22</time>
      </trkpt>
      <trkpt lat="42.00303" lon="0.75177">
        <ele>714.4</ele>
        <time>2022-05-23 14:03:23</time>
      </trkpt>
      <trkpt lat="42.00303" lon="0.75172">
        <ele>714.6</ele>
        <time>2022-05-23 14:03:24</time>
      </trkpt>
      <trkpt lat="42.00303" lon="0.75167">
        <ele>714.8</ele>
        <time>2022-05-23 14:03:25</time>
      </trkpt>
      <trkpt lat="42.00304" lon="0.75162">
        <ele>715</ele>
        <time>2022-05-23 14:03:26</time>
      </trkpt>
      <trkpt lat="42.00304" lon="0.75157">
        <ele>715.2</ele>
        <time>2022-05-23 14:03:27</time>
      </trkpt>
      <trkpt lat="42.00305" lon="0.75153">
        <ele>715.2</ele>
        <time>2022-05-23 14:03:28</time>
      </trkpt>
      <trkpt lat="42.00305" lon="0.75147">
        <ele>715.4</ele>
        <time>2022-05-23 14:03:29</time>
      </trkpt>
      <trkpt lat="42.00306" lon="0.75142">
        <ele>715.6</ele>
        <time>2022-05-23 14:03:30</time>
      </trkpt>
      <trkpt lat="42.00306" lon="0.75137">
        <ele>715.6</ele>
        <time>2022-05-23 14:03:31</time>
      </trkpt>
      <trkpt lat="42.00307" lon="0.75132">
        <ele>715.8</ele>
        <time>2022-05-23 14:03:32</time>
      </trkpt>
      <trkpt lat="42.00307" lon="0.75127">
        <ele>716</ele>
        <time>2022-05-23 14:03:33</time>
      </trkpt>
      <trkpt lat="42.00308" lon="0.75122">
        <ele>716.2</ele>
        <time>2022-05-23 14:03:34</time>
      </trkpt>
      <trkpt lat="42.00309" lon="0.75116">
        <ele>716.2</ele>
        <time>2022-05-23 14:03:35</time>
      </trkpt>
      <trkpt lat="42.00309" lon="0.75112">
        <ele>716.4</ele>
        <time>2022-05-23 14:03:36</time>
      </trkpt>
      <trkpt lat="42.0031" lon="0.75107">
        <ele>716.4</ele>
        <time>2022-05-23 14:03:37</time>
      </trkpt>
      <trkpt lat="42.00311" lon="0.75101">
        <ele>716.4</ele>
        <time>2022-05-23 14:03:38</time>
      </trkpt>
      <trkpt lat="42.00311" lon="0.75096">
        <ele>716.6</ele>
        <time>2022-05-23 14:03:39</time>
      </trkpt>
      <trkpt lat="42.00311" lon="0.75092">
        <ele>716.6</ele>
        <time>2022-05-23 14:03:40</time>
      </trkpt>
      <trkpt lat="42.00312" lon="0.75087">
        <ele>716.8</ele>
        <time>2022-05-23 14:03:41</time>
      </trkpt>
      <trkpt lat="42.00312" lon="0.75083">
        <ele>717</ele>
        <time>2022-05-23 14:03:42</time>
      </trkpt>
      <trkpt lat="42.00313" lon="0.75078">
        <ele>717</ele>
        <time>2022-05-23 14:03:43</time>
      </trkpt>
      <trkpt lat="42.00314" lon="0.75073">
        <ele>717.2</ele>
        <time>2022-05-23 14:03:44</time>
      </trkpt>
      <trkpt lat="42.00314" lon="0.75068">
        <ele>717.2</ele>
        <time>2022-05-23 14:03:45</time>
      </trkpt>
      <trkpt lat="42.00314" lon="0.75063">
        <ele>717.4</ele>
        <time>2022-05-23 14:03:46</time>
      </trkpt>
      <trkpt lat="42.00315" lon="0.75059">
        <ele>717.4</ele>
        <time>2022-05-23 14:03:47</time>
      </trkpt>
      <trkpt lat="42.00316" lon="0.75054">
        <ele>717.6</ele>
        <time>2022-05-23 14:03:48</time>
      </trkpt>
      <trkpt lat="42.00316" lon="0.75049">
        <ele>717.6</ele>
        <time>2022-05-23 14:03:49</time>
      </trkpt>
      <trkpt lat="42.00317" lon="0.75045">
        <ele>717.8</ele>
        <time>2022-05-23 14:03:50</time>
      </trkpt>
      <trkpt lat="42.00317" lon="0.7504">
        <ele>717.8</ele>
        <time>2022-05-23 14:03:51</time>
      </trkpt>
      <trkpt lat="42.00317" lon="0.75035">
        <ele>718</ele>
        <time>2022-05-23 14:03:52</time>
      </trkpt>
      <trkpt lat="42.00318" lon="0.75031">
        <ele>718</ele>
        <time>2022-05-23 14:03:53</time>
      </trkpt>
      <trkpt lat="42.00319" lon="0.75026">
        <ele>718.2</ele>
        <time>2022-05-23 14:03:54</time>
      </trkpt>
      <trkpt lat="42.00319" lon="0.75021">
        <ele>718.2</ele>
        <time>2022-05-23 14:03:55</time>
      </trkpt>
      <trkpt lat="42.00319" lon="0.75017">
        <ele>718.2</ele>
        <time>2022-05-23 14:03:56</time>
      </trkpt>
      <trkpt lat="42.0032" lon="0.75013">
        <ele>718.2</ele>
        <time>2022-05-23 14:03:57</time>
      </trkpt>
      <trkpt lat="42.0032" lon="0.75008">
        <ele>718.2</ele>
        <time>2022-05-23 14:03:58</time>
      </trkpt>
      <trkpt lat="42.0032" lon="0.75004">
        <ele>718.2</ele>
        <time>2022-05-23 14:03:59</time>
      </trkpt>
      <trkpt lat="42.00321" lon="0.74999">
        <ele>718.2</ele>
        <time>2022-05-23 14:04:00</time>
      </trkpt>
      <trkpt lat="42.00322" lon="0.74995">
        <ele>718.2</ele>
        <time>2022-05-23 14:04:01</time>
      </trkpt>
      <trkpt lat="42.00322" lon="0.74991">
        <ele>718.2</ele>
        <time>2022-05-23 14:04:02</time>
      </trkpt>
      <trkpt lat="42.00323" lon="0.74987">
        <ele>718.4</ele>
        <time>2022-05-23 14:04:03</time>
      </trkpt>
      <trkpt lat="42.00323" lon="0.74983">
        <ele>718.4</ele>
        <time>2022-05-23 14:04:04</time>
      </trkpt>
      <trkpt lat="42.00324" lon="0.7498">
        <ele>718.6</ele>
        <time>2022-05-23 14:04:05</time>
      </trkpt>
      <trkpt lat="42.00325" lon="0.74976">
        <ele>718.6</ele>
        <time>2022-05-23 14:04:06</time>
      </trkpt>
      <trkpt lat="42.00325" lon="0.74971">
        <ele>718.6</ele>
        <time>2022-05-23 14:04:07</time>
      </trkpt>
      <trkpt lat="42.00326" lon="0.74967">
        <ele>718.8</ele>
        <time>2022-05-23 14:04:08</time>
      </trkpt>
      <trkpt lat="42.00326" lon="0.74964">
        <ele>718.8</ele>
        <time>2022-05-23 14:04:09</time>
      </trkpt>
      <trkpt lat="42.00326" lon="0.7496">
        <ele>718.8</ele>
        <time>2022-05-23 14:04:10</time>
      </trkpt>
      <trkpt lat="42.00326" lon="0.74956">
        <ele>718.8</ele>
        <time>2022-05-23 14:04:11</time>
      </trkpt>
      <trkpt lat="42.00327" lon="0.74952">
        <ele>718.8</ele>
        <time>2022-05-23 14:04:12</time>
      </trkpt>
      <trkpt lat="42.00327" lon="0.74948">
        <ele>719</ele>
        <time>2022-05-23 14:04:13</time>
      </trkpt>
      <trkpt lat="42.00327" lon="0.74943">
        <ele>719</ele>
        <time>2022-05-23 14:04:14</time>
      </trkpt>
      <trkpt lat="42.00328" lon="0.74939">
        <ele>719</ele>
        <time>2022-05-23 14:04:15</time>
      </trkpt>
      <trkpt lat="42.00329" lon="0.74935">
        <ele>719</ele>
        <time>2022-05-23 14:04:16</time>
      </trkpt>
      <trkpt lat="42.00329" lon="0.74931">
        <ele>719</ele>
        <time>2022-05-23 14:04:17</time>
      </trkpt>
      <trkpt lat="42.0033" lon="0.74926">
        <ele>719.2</ele>
        <time>2022-05-23 14:04:18</time>
      </trkpt>
      <trkpt lat="42.0033" lon="0.74921">
        <ele>719.2</ele>
        <time>2022-05-23 14:04:19</time>
      </trkpt>
      <trkpt lat="42.00331" lon="0.74917">
        <ele>719.2</ele>
        <time>2022-05-23 14:04:20</time>
      </trkpt>
      <trkpt lat="42.00331" lon="0.74913">
        <ele>719.2</ele>
        <time>2022-05-23 14:04:21</time>
      </trkpt>
      <trkpt lat="42.00332" lon="0.74908">
        <ele>719.2</ele>
        <time>2022-05-23 14:04:22</time>
      </trkpt>
      <trkpt lat="42.00333" lon="0.74904">
        <ele>719.2</ele>
        <time>2022-05-23 14:04:23</time>
      </trkpt>
      <trkpt lat="42.00333" lon="0.74899">
        <ele>719.4</ele>
        <time>2022-05-23 14:04:24</time>
      </trkpt>
      <trkpt lat="42.00334" lon="0.74895">
        <ele>719.4</ele>
        <time>2022-05-23 14:04:25</time>
      </trkpt>
      <trkpt lat="42.00334" lon="0.74891">
        <ele>719.4</ele>
        <time>2022-05-23 14:04:26</time>
      </trkpt>
      <trkpt lat="42.00335" lon="0.74887">
        <ele>719.6</ele>
        <time>2022-05-23 14:04:27</time>
      </trkpt>
      <trkpt lat="42.00335" lon="0.74883">
        <ele>719.6</ele>
        <time>2022-05-23 14:04:28</time>
      </trkpt>
      <trkpt lat="42.00336" lon="0.74879">
        <ele>719.6</ele>
        <time>2022-05-23 14:04:29</time>
      </trkpt>
      <trkpt lat="42.00336" lon="0.74875">
        <ele>719.6</ele>
        <time>2022-05-23 14:04:30</time>
      </trkpt>
      <trkpt lat="42.00337" lon="0.74871">
        <ele>719.8</ele>
        <time>2022-05-23 14:04:31</time>
      </trkpt>
      <trkpt lat="42.00338" lon="0.74866">
        <ele>719.8</ele>
        <time>2022-05-23 14:04:32</time>
      </trkpt>
      <trkpt lat="42.00338" lon="0.74862">
        <ele>720</ele>
        <time>2022-05-23 14:04:33</time>
      </trkpt>
      <trkpt lat="42.0034" lon="0.74858">
        <ele>720</ele>
        <time>2022-05-23 14:04:34</time>
      </trkpt>
      <trkpt lat="42.0034" lon="0.74853">
        <ele>720</ele>
        <time>2022-05-23 14:04:35</time>
      </trkpt>
      <trkpt lat="42.0034" lon="0.74848">
        <ele>720.2</ele>
        <time>2022-05-23 14:04:36</time>
      </trkpt>
      <trkpt lat="42.00341" lon="0.74843">
        <ele>720.2</ele>
        <time>2022-05-23 14:04:37</time>
      </trkpt>
      <trkpt lat="42.00341" lon="0.74838">
        <ele>720.4</ele>
        <time>2022-05-23 14:04:38</time>
      </trkpt>
      <trkpt lat="42.00342" lon="0.74834">
        <ele>720.4</ele>
        <time>2022-05-23 14:04:39</time>
      </trkpt>
      <trkpt lat="42.00343" lon="0.74829">
        <ele>720.4</ele>
        <time>2022-05-23 14:04:40</time>
      </trkpt>
      <trkpt lat="42.00343" lon="0.74825">
        <ele>720.6</ele>
        <time>2022-05-23 14:04:41</time>
      </trkpt>
      <trkpt lat="42.00344" lon="0.7482">
        <ele>720.6</ele>
        <time>2022-05-23 14:04:42</time>
      </trkpt>
      <trkpt lat="42.00344" lon="0.74816">
        <ele>720.8</ele>
        <time>2022-05-23 14:04:43</time>
      </trkpt>
      <trkpt lat="42.00345" lon="0.74811">
        <ele>720.8</ele>
        <time>2022-05-23 14:04:44</time>
      </trkpt>
      <trkpt lat="42.00345" lon="0.74806">
        <ele>720.8</ele>
        <time>2022-05-23 14:04:45</time>
      </trkpt>
      <trkpt lat="42.00346" lon="0.74801">
        <ele>721</ele>
        <time>2022-05-23 14:04:46</time>
      </trkpt>
      <trkpt lat="42.00346" lon="0.74797">
        <ele>721</ele>
        <time>2022-05-23 14:04:47</time>
      </trkpt>
      <trkpt lat="42.00346" lon="0.74793">
        <ele>721</ele>
        <time>2022-05-23 14:04:48</time>
      </trkpt>
      <trkpt lat="42.00347" lon="0.74789">
        <ele>721</ele>
        <time>2022-05-23 14:04:49</time>
      </trkpt>
      <trkpt lat="42.00348" lon="0.74784">
        <ele>721</ele>
        <time>2022-05-23 14:04:50</time>
      </trkpt>
      <trkpt lat="42.00348" lon="0.7478">
        <ele>721.2</ele>
        <time>2022-05-23 14:04:51</time>
      </trkpt>
      <trkpt lat="42.00349" lon="0.74776">
        <ele>721.2</ele>
        <time>2022-05-23 14:04:52</time>
      </trkpt>
      <trkpt lat="42.00349" lon="0.74772">
        <ele>721.2</ele>
        <time>2022-05-23 14:04:53</time>
      </trkpt>
      <trkpt lat="42.0035" lon="0.74768">
        <ele>721.4</ele>
        <time>2022-05-23 14:04:54</time>
      </trkpt>
      <trkpt lat="42.0035" lon="0.74764">
        <ele>721.4</ele>
        <time>2022-05-23 14:04:55</time>
      </trkpt>
      <trkpt lat="42.00351" lon="0.74759">
        <ele>721.4</ele>
        <time>2022-05-23 14:04:56</time>
      </trkpt>
      <trkpt lat="42.00351" lon="0.74755">
        <ele>721.4</ele>
        <time>2022-05-23 14:04:57</time>
      </trkpt>
      <trkpt lat="42.00352" lon="0.74751">
        <ele>721.4</ele>
        <time>2022-05-23 14:04:58</time>
      </trkpt>
      <trkpt lat="42.00352" lon="0.74747">
        <ele>721.6</ele>
        <time>2022-05-23 14:04:59</time>
      </trkpt>
      <trkpt lat="42.00352" lon="0.74743">
        <ele>721.6</ele>
        <time>2022-05-23 14:05:00</time>
      </trkpt>
      <trkpt lat="42.00353" lon="0.74738">
        <ele>721.6</ele>
        <time>2022-05-23 14:05:01</time>
      </trkpt>
      <trkpt lat="42.00353" lon="0.74734">
        <ele>721.6</ele>
        <time>2022-05-23 14:05:02</time>
      </trkpt>
      <trkpt lat="42.00354" lon="0.7473">
        <ele>721.4</ele>
        <time>2022-05-23 14:05:03</time>
      </trkpt>
      <trkpt lat="42.00354" lon="0.74725">
        <ele>721.6</ele>
        <time>2022-05-23 14:05:04</time>
      </trkpt>
      <trkpt lat="42.00355" lon="0.74721">
        <ele>721.8</ele>
        <time>2022-05-23 14:05:05</time>
      </trkpt>
      <trkpt lat="42.00355" lon="0.74717">
        <ele>721.8</ele>
        <time>2022-05-23 14:05:06</time>
      </trkpt>
      <trkpt lat="42.00356" lon="0.74712">
        <ele>721.8</ele>
        <time>2022-05-23 14:05:07</time>
      </trkpt>
      <trkpt lat="42.00356" lon="0.74708">
        <ele>721.8</ele>
        <time>2022-05-23 14:05:08</time>
      </trkpt>
      <trkpt lat="42.00357" lon="0.74704">
        <ele>721.8</ele>
        <time>2022-05-23 14:05:09</time>
      </trkpt>
      <trkpt lat="42.00357" lon="0.747">
        <ele>721.8</ele>
        <time>2022-05-23 14:05:10</time>
      </trkpt>
      <trkpt lat="42.00357" lon="0.74695">
        <ele>722</ele>
        <time>2022-05-23 14:05:11</time>
      </trkpt>
      <trkpt lat="42.00358" lon="0.74691">
        <ele>722.2</ele>
        <time>2022-05-23 14:05:12</time>
      </trkpt>
      <trkpt lat="42.00359" lon="0.74687">
        <ele>722.2</ele>
        <time>2022-05-23 14:05:13</time>
      </trkpt>
      <trkpt lat="42.00359" lon="0.74683">
        <ele>722.4</ele>
        <time>2022-05-23 14:05:14</time>
      </trkpt>
      <trkpt lat="42.00359" lon="0.74679">
        <ele>722.4</ele>
        <time>2022-05-23 14:05:15</time>
      </trkpt>
      <trkpt lat="42.00359" lon="0.74674">
        <ele>722.4</ele>
        <time>2022-05-23 14:05:16</time>
      </trkpt>
      <trkpt lat="42.0036" lon="0.7467">
        <ele>722.4</ele>
        <time>2022-05-23 14:05:17</time>
      </trkpt>
      <trkpt lat="42.0036" lon="0.74666">
        <ele>722.6</ele>
        <time>2022-05-23 14:05:18</time>
      </trkpt>
      <trkpt lat="42.0036" lon="0.74662">
        <ele>722.6</ele>
        <time>2022-05-23 14:05:19</time>
      </trkpt>
      <trkpt lat="42.00361" lon="0.74657">
        <ele>722.6</ele>
        <time>2022-05-23 14:05:20</time>
      </trkpt>
      <trkpt lat="42.00361" lon="0.74653">
        <ele>722.6</ele>
        <time>2022-05-23 14:05:21</time>
      </trkpt>
      <trkpt lat="42.00361" lon="0.74649">
        <ele>722.8</ele>
        <time>2022-05-23 14:05:22</time>
      </trkpt>
      <trkpt lat="42.00361" lon="0.74645">
        <ele>723</ele>
        <time>2022-05-23 14:05:23</time>
      </trkpt>
      <trkpt lat="42.00361" lon="0.74641">
        <ele>723</ele>
        <time>2022-05-23 14:05:24</time>
      </trkpt>
      <trkpt lat="42.00361" lon="0.74637">
        <ele>723</ele>
        <time>2022-05-23 14:05:25</time>
      </trkpt>
      <trkpt lat="42.00361" lon="0.74632">
        <ele>723.2</ele>
        <time>2022-05-23 14:05:26</time>
      </trkpt>
      <trkpt lat="42.00361" lon="0.74628">
        <ele>723.2</ele>
        <time>2022-05-23 14:05:27</time>
      </trkpt>
      <trkpt lat="42.00361" lon="0.74624">
        <ele>723.2</ele>
        <time>2022-05-23 14:05:28</time>
      </trkpt>
      <trkpt lat="42.00361" lon="0.74619">
        <ele>723.2</ele>
        <time>2022-05-23 14:05:29</time>
      </trkpt>
      <trkpt lat="42.00361" lon="0.74614">
        <ele>723.2</ele>
        <time>2022-05-23 14:05:30</time>
      </trkpt>
      <trkpt lat="42.0036" lon="0.7461">
        <ele>723.2</ele>
        <time>2022-05-23 14:05:31</time>
      </trkpt>
      <trkpt lat="42.0036" lon="0.74605">
        <ele>723.4</ele>
        <time>2022-05-23 14:05:32</time>
      </trkpt>
      <trkpt lat="42.0036" lon="0.74601">
        <ele>723.4</ele>
        <time>2022-05-23 14:05:33</time>
      </trkpt>
      <trkpt lat="42.0036" lon="0.74596">
        <ele>723.6</ele>
        <time>2022-05-23 14:05:34</time>
      </trkpt>
      <trkpt lat="42.00359" lon="0.74592">
        <ele>723.6</ele>
        <time>2022-05-23 14:05:35</time>
      </trkpt>
      <trkpt lat="42.00359" lon="0.74587">
        <ele>723.6</ele>
        <time>2022-05-23 14:05:36</time>
      </trkpt>
      <trkpt lat="42.00358" lon="0.74583">
        <ele>723.8</ele>
        <time>2022-05-23 14:05:37</time>
      </trkpt>
      <trkpt lat="42.00357" lon="0.74578">
        <ele>723.8</ele>
        <time>2022-05-23 14:05:38</time>
      </trkpt>
      <trkpt lat="42.00357" lon="0.74574">
        <ele>723.8</ele>
        <time>2022-05-23 14:05:39</time>
      </trkpt>
      <trkpt lat="42.00356" lon="0.7457">
        <ele>724</ele>
        <time>2022-05-23 14:05:40</time>
      </trkpt>
      <trkpt lat="42.00355" lon="0.74566">
        <ele>724</ele>
        <time>2022-05-23 14:05:41</time>
      </trkpt>
      <trkpt lat="42.00355" lon="0.74561">
        <ele>724</ele>
        <time>2022-05-23 14:05:42</time>
      </trkpt>
      <trkpt lat="42.00354" lon="0.74557">
        <ele>724</ele>
        <time>2022-05-23 14:05:43</time>
      </trkpt>
      <trkpt lat="42.00353" lon="0.74553">
        <ele>724</ele>
        <time>2022-05-23 14:05:44</time>
      </trkpt>
      <trkpt lat="42.00352" lon="0.74548">
        <ele>724</ele>
        <time>2022-05-23 14:05:45</time>
      </trkpt>
      <trkpt lat="42.00352" lon="0.74544">
        <ele>724</ele>
        <time>2022-05-23 14:05:46</time>
      </trkpt>
      <trkpt lat="42.00351" lon="0.7454">
        <ele>724</ele>
        <time>2022-05-23 14:05:47</time>
      </trkpt>
      <trkpt lat="42.00351" lon="0.74536">
        <ele>724</ele>
        <time>2022-05-23 14:05:48</time>
      </trkpt>
      <trkpt lat="42.0035" lon="0.74532">
        <ele>724</ele>
        <time>2022-05-23 14:05:49</time>
      </trkpt>
      <trkpt lat="42.00349" lon="0.74527">
        <ele>724.2</ele>
        <time>2022-05-23 14:05:50</time>
      </trkpt>
      <trkpt lat="42.00348" lon="0.74523">
        <ele>724.2</ele>
        <time>2022-05-23 14:05:51</time>
      </trkpt>
      <trkpt lat="42.00347" lon="0.74519">
        <ele>724.2</ele>
        <time>2022-05-23 14:05:52</time>
      </trkpt>
      <trkpt lat="42.00346" lon="0.74516">
        <ele>724.2</ele>
        <time>2022-05-23 14:05:53</time>
      </trkpt>
      <trkpt lat="42.00345" lon="0.74512">
        <ele>724.4</ele>
        <time>2022-05-23 14:05:54</time>
      </trkpt>
      <trkpt lat="42.00344" lon="0.74508">
        <ele>724.4</ele>
        <time>2022-05-23 14:05:55</time>
      </trkpt>
      <trkpt lat="42.00343" lon="0.74504">
        <ele>724.4</ele>
        <time>2022-05-23 14:05:56</time>
      </trkpt>
      <trkpt lat="42.00342" lon="0.74501">
        <ele>724.6</ele>
        <time>2022-05-23 14:05:57</time>
      </trkpt>
      <trkpt lat="42.00341" lon="0.74498">
        <ele>724.6</ele>
        <time>2022-05-23 14:05:58</time>
      </trkpt>
      <trkpt lat="42.00341" lon="0.74494">
        <ele>724.6</ele>
        <time>2022-05-23 14:05:59</time>
      </trkpt>
      <trkpt lat="42.0034" lon="0.74491">
        <ele>724.8</ele>
        <time>2022-05-23 14:06:00</time>
      </trkpt>
      <trkpt lat="42.00338" lon="0.74488">
        <ele>724.8</ele>
        <time>2022-05-23 14:06:01</time>
      </trkpt>
      <trkpt lat="42.00337" lon="0.74484">
        <ele>724.8</ele>
        <time>2022-05-23 14:06:02</time>
      </trkpt>
      <trkpt lat="42.00336" lon="0.74481">
        <ele>725</ele>
        <time>2022-05-23 14:06:03</time>
      </trkpt>
      <trkpt lat="42.00335" lon="0.74478">
        <ele>725</ele>
        <time>2022-05-23 14:06:04</time>
      </trkpt>
      <trkpt lat="42.00334" lon="0.74474">
        <ele>725</ele>
        <time>2022-05-23 14:06:05</time>
      </trkpt>
      <trkpt lat="42.00333" lon="0.74471">
        <ele>725.2</ele>
        <time>2022-05-23 14:06:06</time>
      </trkpt>
      <trkpt lat="42.00332" lon="0.74468">
        <ele>725.2</ele>
        <time>2022-05-23 14:06:07</time>
      </trkpt>
      <trkpt lat="42.00331" lon="0.74465">
        <ele>725.2</ele>
        <time>2022-05-23 14:06:08</time>
      </trkpt>
      <trkpt lat="42.0033" lon="0.74461">
        <ele>725.2</ele>
        <time>2022-05-23 14:06:09</time>
      </trkpt>
      <trkpt lat="42.00329" lon="0.74458">
        <ele>725.4</ele>
        <time>2022-05-23 14:06:10</time>
      </trkpt>
      <trkpt lat="42.00327" lon="0.74454">
        <ele>725.4</ele>
        <time>2022-05-23 14:06:11</time>
      </trkpt>
      <trkpt lat="42.00326" lon="0.7445">
        <ele>725.4</ele>
        <time>2022-05-23 14:06:12</time>
      </trkpt>
      <trkpt lat="42.00324" lon="0.74445">
        <ele>725.6</ele>
        <time>2022-05-23 14:06:13</time>
      </trkpt>
      <trkpt lat="42.00322" lon="0.74442">
        <ele>725.6</ele>
        <time>2022-05-23 14:06:14</time>
      </trkpt>
      <trkpt lat="42.00321" lon="0.74438">
        <ele>725.8</ele>
        <time>2022-05-23 14:06:15</time>
      </trkpt>
      <trkpt lat="42.00319" lon="0.74434">
        <ele>726</ele>
        <time>2022-05-23 14:06:16</time>
      </trkpt>
      <trkpt lat="42.00318" lon="0.74431">
        <ele>726.2</ele>
        <time>2022-05-23 14:06:17</time>
      </trkpt>
      <trkpt lat="42.00317" lon="0.74428">
        <ele>726.2</ele>
        <time>2022-05-23 14:06:18</time>
      </trkpt>
      <trkpt lat="42.00316" lon="0.74425">
        <ele>726.2</ele>
        <time>2022-05-23 14:06:19</time>
      </trkpt>
      <trkpt lat="42.00315" lon="0.74422">
        <ele>726.4</ele>
        <time>2022-05-23 14:06:20</time>
      </trkpt>
      <trkpt lat="42.00313" lon="0.74419">
        <ele>726.6</ele>
        <time>2022-05-23 14:06:21</time>
      </trkpt>
      <trkpt lat="42.00312" lon="0.74416">
        <ele>726.8</ele>
        <time>2022-05-23 14:06:22</time>
      </trkpt>
      <trkpt lat="42.00311" lon="0.74413">
        <ele>726.8</ele>
        <time>2022-05-23 14:06:23</time>
      </trkpt>
      <trkpt lat="42.0031" lon="0.7441">
        <ele>727</ele>
        <time>2022-05-23 14:06:24</time>
      </trkpt>
      <trkpt lat="42.00309" lon="0.74407">
        <ele>727.2</ele>
        <time>2022-05-23 14:06:25</time>
      </trkpt>
      <trkpt lat="42.00307" lon="0.74404">
        <ele>727.2</ele>
        <time>2022-05-23 14:06:26</time>
      </trkpt>
      <trkpt lat="42.00306" lon="0.74401">
        <ele>727.4</ele>
        <time>2022-05-23 14:06:27</time>
      </trkpt>
      <trkpt lat="42.00305" lon="0.74398">
        <ele>727.4</ele>
        <time>2022-05-23 14:06:28</time>
      </trkpt>
      <trkpt lat="42.00304" lon="0.74396">
        <ele>727.6</ele>
        <time>2022-05-23 14:06:29</time>
      </trkpt>
      <trkpt lat="42.00304" lon="0.74393">
        <ele>727.6</ele>
        <time>2022-05-23 14:06:30</time>
      </trkpt>
      <trkpt lat="42.00303" lon="0.7439">
        <ele>727.6</ele>
        <time>2022-05-23 14:06:31</time>
      </trkpt>
      <trkpt lat="42.00302" lon="0.74388">
        <ele>727.6</ele>
        <time>2022-05-23 14:06:32</time>
      </trkpt>
      <trkpt lat="42.00301" lon="0.74386">
        <ele>727.8</ele>
        <time>2022-05-23 14:06:33</time>
      </trkpt>
      <trkpt lat="42.003" lon="0.74383">
        <ele>727.8</ele>
        <time>2022-05-23 14:06:34</time>
      </trkpt>
      <trkpt lat="42.00299" lon="0.7438">
        <ele>727.8</ele>
        <time>2022-05-23 14:06:35</time>
      </trkpt>
      <trkpt lat="42.00298" lon="0.74378">
        <ele>728</ele>
        <time>2022-05-23 14:06:36</time>
      </trkpt>
      <trkpt lat="42.00298" lon="0.74375">
        <ele>728</ele>
        <time>2022-05-23 14:06:37</time>
      </trkpt>
      <trkpt lat="42.00297" lon="0.74372">
        <ele>728.2</ele>
        <time>2022-05-23 14:06:38</time>
      </trkpt>
      <trkpt lat="42.00296" lon="0.7437">
        <ele>728.4</ele>
        <time>2022-05-23 14:06:39</time>
      </trkpt>
      <trkpt lat="42.00295" lon="0.74367">
        <ele>728.6</ele>
        <time>2022-05-23 14:06:40</time>
      </trkpt>
      <trkpt lat="42.00294" lon="0.74364">
        <ele>728.8</ele>
        <time>2022-05-23 14:06:41</time>
      </trkpt>
      <trkpt lat="42.00293" lon="0.74361">
        <ele>728.8</ele>
        <time>2022-05-23 14:06:42</time>
      </trkpt>
      <trkpt lat="42.00293" lon="0.74359">
        <ele>729</ele>
        <time>2022-05-23 14:06:43</time>
      </trkpt>
      <trkpt lat="42.00292" lon="0.74356">
        <ele>729.2</ele>
        <time>2022-05-23 14:06:44</time>
      </trkpt>
      <trkpt lat="42.00291" lon="0.74353">
        <ele>729.2</ele>
        <time>2022-05-23 14:06:45</time>
      </trkpt>
      <trkpt lat="42.00291" lon="0.74351">
        <ele>729.4</ele>
        <time>2022-05-23 14:06:46</time>
      </trkpt>
      <trkpt lat="42.0029" lon="0.74348">
        <ele>729.6</ele>
        <time>2022-05-23 14:06:47</time>
      </trkpt>
      <trkpt lat="42.00289" lon="0.74345">
        <ele>730</ele>
        <time>2022-05-23 14:06:48</time>
      </trkpt>
      <trkpt lat="42.00289" lon="0.74343">
        <ele>730</ele>
        <time>2022-05-23 14:06:49</time>
      </trkpt>
      <trkpt lat="42.00288" lon="0.7434">
        <ele>730.2</ele>
        <time>2022-05-23 14:06:50</time>
      </trkpt>
      <trkpt lat="42.00288" lon="0.74338">
        <ele>730.4</ele>
        <time>2022-05-23 14:06:51</time>
      </trkpt>
      <trkpt lat="42.00288" lon="0.74335">
        <ele>730.6</ele>
        <time>2022-05-23 14:06:52</time>
      </trkpt>
      <trkpt lat="42.00287" lon="0.74332">
        <ele>730.6</ele>
        <time>2022-05-23 14:06:53</time>
      </trkpt>
      <trkpt lat="42.00286" lon="0.7433">
        <ele>730.8</ele>
        <time>2022-05-23 14:06:54</time>
      </trkpt>
      <trkpt lat="42.00286" lon="0.74327">
        <ele>731</ele>
        <time>2022-05-23 14:06:55</time>
      </trkpt>
      <trkpt lat="42.00285" lon="0.74324">
        <ele>731</ele>
        <time>2022-05-23 14:06:56</time>
      </trkpt>
      <trkpt lat="42.00285" lon="0.74321">
        <ele>731.2</ele>
        <time>2022-05-23 14:06:57</time>
      </trkpt>
      <trkpt lat="42.00284" lon="0.74319">
        <ele>731.4</ele>
        <time>2022-05-23 14:06:58</time>
      </trkpt>
      <trkpt lat="42.00284" lon="0.74316">
        <ele>731.6</ele>
        <time>2022-05-23 14:06:59</time>
      </trkpt>
      <trkpt lat="42.00284" lon="0.74313">
        <ele>731.8</ele>
        <time>2022-05-23 14:07:00</time>
      </trkpt>
      <trkpt lat="42.00284" lon="0.7431">
        <ele>732</ele>
        <time>2022-05-23 14:07:01</time>
      </trkpt>
      <trkpt lat="42.00283" lon="0.74307">
        <ele>732</ele>
        <time>2022-05-23 14:07:02</time>
      </trkpt>
      <trkpt lat="42.00283" lon="0.74304">
        <ele>732.2</ele>
        <time>2022-05-23 14:07:03</time>
      </trkpt>
      <trkpt lat="42.00283" lon="0.74301">
        <ele>732.2</ele>
        <time>2022-05-23 14:07:04</time>
      </trkpt>
      <trkpt lat="42.00283" lon="0.74298">
        <ele>732.4</ele>
        <time>2022-05-23 14:07:05</time>
      </trkpt>
      <trkpt lat="42.00283" lon="0.74294">
        <ele>732.6</ele>
        <time>2022-05-23 14:07:06</time>
      </trkpt>
      <trkpt lat="42.00282" lon="0.74291">
        <ele>732.6</ele>
        <time>2022-05-23 14:07:07</time>
      </trkpt>
      <trkpt lat="42.00282" lon="0.74288">
        <ele>732.8</ele>
        <time>2022-05-23 14:07:08</time>
      </trkpt>
      <trkpt lat="42.00282" lon="0.74285">
        <ele>733</ele>
        <time>2022-05-23 14:07:09</time>
      </trkpt>
      <trkpt lat="42.00282" lon="0.74282">
        <ele>733.2</ele>
        <time>2022-05-23 14:07:10</time>
      </trkpt>
      <trkpt lat="42.00282" lon="0.74279">
        <ele>733.4</ele>
        <time>2022-05-23 14:07:11</time>
      </trkpt>
      <trkpt lat="42.00282" lon="0.74276">
        <ele>733.6</ele>
        <time>2022-05-23 14:07:12</time>
      </trkpt>
      <trkpt lat="42.00282" lon="0.74272">
        <ele>733.8</ele>
        <time>2022-05-23 14:07:13</time>
      </trkpt>
      <trkpt lat="42.00282" lon="0.74269">
        <ele>733.8</ele>
        <time>2022-05-23 14:07:14</time>
      </trkpt>
      <trkpt lat="42.00282" lon="0.74266">
        <ele>734</ele>
        <time>2022-05-23 14:07:15</time>
      </trkpt>
      <trkpt lat="42.00282" lon="0.74263">
        <ele>734.2</ele>
        <time>2022-05-23 14:07:16</time>
      </trkpt>
      <trkpt lat="42.00281" lon="0.7426">
        <ele>734.2</ele>
        <time>2022-05-23 14:07:17</time>
      </trkpt>
      <trkpt lat="42.00282" lon="0.74258">
        <ele>734.4</ele>
        <time>2022-05-23 14:07:18</time>
      </trkpt>
      <trkpt lat="42.00282" lon="0.74255">
        <ele>734.6</ele>
        <time>2022-05-23 14:07:19</time>
      </trkpt>
      <trkpt lat="42.00281" lon="0.74252">
        <ele>734.6</ele>
        <time>2022-05-23 14:07:20</time>
      </trkpt>
      <trkpt lat="42.00281" lon="0.74249">
        <ele>734.8</ele>
        <time>2022-05-23 14:07:21</time>
      </trkpt>
      <trkpt lat="42.00281" lon="0.74246">
        <ele>735</ele>
        <time>2022-05-23 14:07:22</time>
      </trkpt>
      <trkpt lat="42.00281" lon="0.74243">
        <ele>735.2</ele>
        <time>2022-05-23 14:07:23</time>
      </trkpt>
      <trkpt lat="42.00281" lon="0.7424">
        <ele>735.2</ele>
        <time>2022-05-23 14:07:24</time>
      </trkpt>
      <trkpt lat="42.00281" lon="0.74237">
        <ele>735.4</ele>
        <time>2022-05-23 14:07:25</time>
      </trkpt>
      <trkpt lat="42.00281" lon="0.74234">
        <ele>735.4</ele>
        <time>2022-05-23 14:07:26</time>
      </trkpt>
      <trkpt lat="42.00281" lon="0.74231">
        <ele>735.6</ele>
        <time>2022-05-23 14:07:27</time>
      </trkpt>
      <trkpt lat="42.00281" lon="0.74228">
        <ele>735.8</ele>
        <time>2022-05-23 14:07:28</time>
      </trkpt>
      <trkpt lat="42.00281" lon="0.74225">
        <ele>735.8</ele>
        <time>2022-05-23 14:07:29</time>
      </trkpt>
      <trkpt lat="42.00281" lon="0.74222">
        <ele>736</ele>
        <time>2022-05-23 14:07:30</time>
      </trkpt>
      <trkpt lat="42.00281" lon="0.74218">
        <ele>736</ele>
        <time>2022-05-23 14:07:31</time>
      </trkpt>
      <trkpt lat="42.00281" lon="0.74215">
        <ele>736.2</ele>
        <time>2022-05-23 14:07:32</time>
      </trkpt>
      <trkpt lat="42.00281" lon="0.74211">
        <ele>736.4</ele>
        <time>2022-05-23 14:07:33</time>
      </trkpt>
      <trkpt lat="42.00282" lon="0.74208">
        <ele>736.6</ele>
        <time>2022-05-23 14:07:34</time>
      </trkpt>
      <trkpt lat="42.00282" lon="0.74205">
        <ele>736.6</ele>
        <time>2022-05-23 14:07:35</time>
      </trkpt>
      <trkpt lat="42.00282" lon="0.74202">
        <ele>736.8</ele>
        <time>2022-05-23 14:07:36</time>
      </trkpt>
      <trkpt lat="42.00282" lon="0.74199">
        <ele>737</ele>
        <time>2022-05-23 14:07:37</time>
      </trkpt>
      <trkpt lat="42.00282" lon="0.74197">
        <ele>737</ele>
        <time>2022-05-23 14:07:38</time>
      </trkpt>
      <trkpt lat="42.00282" lon="0.74194">
        <ele>737.2</ele>
        <time>2022-05-23 14:07:39</time>
      </trkpt>
      <trkpt lat="42.00282" lon="0.74191">
        <ele>737.2</ele>
        <time>2022-05-23 14:07:40</time>
      </trkpt>
      <trkpt lat="42.00282" lon="0.74187">
        <ele>737.4</ele>
        <time>2022-05-23 14:07:41</time>
      </trkpt>
      <trkpt lat="42.00282" lon="0.74184">
        <ele>737.6</ele>
        <time>2022-05-23 14:07:42</time>
      </trkpt>
      <trkpt lat="42.00282" lon="0.74181">
        <ele>737.8</ele>
        <time>2022-05-23 14:07:43</time>
      </trkpt>
      <trkpt lat="42.00283" lon="0.74178">
        <ele>738</ele>
        <time>2022-05-23 14:07:44</time>
      </trkpt>
      <trkpt lat="42.00283" lon="0.74175">
        <ele>738.2</ele>
        <time>2022-05-23 14:07:45</time>
      </trkpt>
      <trkpt lat="42.00283" lon="0.74172">
        <ele>738.2</ele>
        <time>2022-05-23 14:07:46</time>
      </trkpt>
      <trkpt lat="42.00283" lon="0.74169">
        <ele>738.4</ele>
        <time>2022-05-23 14:07:47</time>
      </trkpt>
      <trkpt lat="42.00283" lon="0.74166">
        <ele>738.4</ele>
        <time>2022-05-23 14:07:48</time>
      </trkpt>
      <trkpt lat="42.00283" lon="0.74163">
        <ele>738.4</ele>
        <time>2022-05-23 14:07:49</time>
      </trkpt>
      <trkpt lat="42.00283" lon="0.7416">
        <ele>738.6</ele>
        <time>2022-05-23 14:07:50</time>
      </trkpt>
      <trkpt lat="42.00284" lon="0.74157">
        <ele>738.8</ele>
        <time>2022-05-23 14:07:51</time>
      </trkpt>
      <trkpt lat="42.00284" lon="0.74154">
        <ele>738.8</ele>
        <time>2022-05-23 14:07:52</time>
      </trkpt>
      <trkpt lat="42.00284" lon="0.74151">
        <ele>739</ele>
        <time>2022-05-23 14:07:53</time>
      </trkpt>
      <trkpt lat="42.00284" lon="0.74148">
        <ele>739</ele>
        <time>2022-05-23 14:07:54</time>
      </trkpt>
      <trkpt lat="42.00285" lon="0.74145">
        <ele>739</ele>
        <time>2022-05-23 14:07:55</time>
      </trkpt>
      <trkpt lat="42.00285" lon="0.74142">
        <ele>739.2</ele>
        <time>2022-05-23 14:07:56</time>
      </trkpt>
      <trkpt lat="42.00285" lon="0.74139">
        <ele>739.4</ele>
        <time>2022-05-23 14:07:57</time>
      </trkpt>
      <trkpt lat="42.00285" lon="0.74136">
        <ele>739.6</ele>
        <time>2022-05-23 14:07:58</time>
      </trkpt>
      <trkpt lat="42.00285" lon="0.74133">
        <ele>739.8</ele>
        <time>2022-05-23 14:07:59</time>
      </trkpt>
      <trkpt lat="42.00285" lon="0.7413">
        <ele>740</ele>
        <time>2022-05-23 14:08:00</time>
      </trkpt>
      <trkpt lat="42.00284" lon="0.74127">
        <ele>740</ele>
        <time>2022-05-23 14:08:01</time>
      </trkpt>
      <trkpt lat="42.00283" lon="0.74124">
        <ele>740.2</ele>
        <time>2022-05-23 14:08:02</time>
      </trkpt>
      <trkpt lat="42.00283" lon="0.74121">
        <ele>740.2</ele>
        <time>2022-05-23 14:08:03</time>
      </trkpt>
      <trkpt lat="42.00283" lon="0.74118">
        <ele>740.4</ele>
        <time>2022-05-23 14:08:04</time>
      </trkpt>
      <trkpt lat="42.00283" lon="0.74115">
        <ele>740.6</ele>
        <time>2022-05-23 14:08:05</time>
      </trkpt>
      <trkpt lat="42.00283" lon="0.74112">
        <ele>740.8</ele>
        <time>2022-05-23 14:08:06</time>
      </trkpt>
      <trkpt lat="42.00283" lon="0.74109">
        <ele>740.8</ele>
        <time>2022-05-23 14:08:07</time>
      </trkpt>
      <trkpt lat="42.00283" lon="0.74105">
        <ele>740.8</ele>
        <time>2022-05-23 14:08:08</time>
      </trkpt>
      <trkpt lat="42.00283" lon="0.74102">
        <ele>741</ele>
        <time>2022-05-23 14:08:09</time>
      </trkpt>
      <trkpt lat="42.00283" lon="0.74099">
        <ele>741.2</ele>
        <time>2022-05-23 14:08:10</time>
      </trkpt>
      <trkpt lat="42.00284" lon="0.74096">
        <ele>741.4</ele>
        <time>2022-05-23 14:08:11</time>
      </trkpt>
      <trkpt lat="42.00285" lon="0.74092">
        <ele>741.4</ele>
        <time>2022-05-23 14:08:12</time>
      </trkpt>
      <trkpt lat="42.00285" lon="0.74089">
        <ele>741.4</ele>
        <time>2022-05-23 14:08:13</time>
      </trkpt>
      <trkpt lat="42.00286" lon="0.74085">
        <ele>741.6</ele>
        <time>2022-05-23 14:08:14</time>
      </trkpt>
      <trkpt lat="42.00287" lon="0.74082">
        <ele>741.8</ele>
        <time>2022-05-23 14:08:15</time>
      </trkpt>
      <trkpt lat="42.00287" lon="0.74079">
        <ele>741.8</ele>
        <time>2022-05-23 14:08:16</time>
      </trkpt>
      <trkpt lat="42.00288" lon="0.74076">
        <ele>742</ele>
        <time>2022-05-23 14:08:17</time>
      </trkpt>
      <trkpt lat="42.00288" lon="0.74072">
        <ele>742.4</ele>
        <time>2022-05-23 14:08:18</time>
      </trkpt>
      <trkpt lat="42.00288" lon="0.74069">
        <ele>742.6</ele>
        <time>2022-05-23 14:08:19</time>
      </trkpt>
      <trkpt lat="42.00288" lon="0.74066">
        <ele>743</ele>
        <time>2022-05-23 14:08:20</time>
      </trkpt>
      <trkpt lat="42.00288" lon="0.74062">
        <ele>743.2</ele>
        <time>2022-05-23 14:08:21</time>
      </trkpt>
      <trkpt lat="42.00289" lon="0.74059">
        <ele>743.4</ele>
        <time>2022-05-23 14:08:22</time>
      </trkpt>
      <trkpt lat="42.00289" lon="0.74055">
        <ele>743.6</ele>
        <time>2022-05-23 14:08:23</time>
      </trkpt>
      <trkpt lat="42.00289" lon="0.74052">
        <ele>743.8</ele>
        <time>2022-05-23 14:08:24</time>
      </trkpt>
      <trkpt lat="42.00289" lon="0.7405">
        <ele>744</ele>
        <time>2022-05-23 14:08:25</time>
      </trkpt>
      <trkpt lat="42.00289" lon="0.74048">
        <ele>744.2</ele>
        <time>2022-05-23 14:08:26</time>
      </trkpt>
      <trkpt lat="42.0029" lon="0.74042">
        <ele>744.4</ele>
        <time>2022-05-23 14:08:27</time>
      </trkpt>
      <trkpt lat="42.0029" lon="0.74039">
        <ele>744.6</ele>
        <time>2022-05-23 14:08:28</time>
      </trkpt>
      <trkpt lat="42.00289" lon="0.74035">
        <ele>744.8</ele>
        <time>2022-05-23 14:08:29</time>
      </trkpt>
      <trkpt lat="42.0029" lon="0.74032">
        <ele>745</ele>
        <time>2022-05-23 14:08:30</time>
      </trkpt>
      <trkpt lat="42.0029" lon="0.74028">
        <ele>745.2</ele>
        <time>2022-05-23 14:08:31</time>
      </trkpt>
      <trkpt lat="42.0029" lon="0.74025">
        <ele>745.6</ele>
        <time>2022-05-23 14:08:32</time>
      </trkpt>
      <trkpt lat="42.00289" lon="0.74022">
        <ele>745.8</ele>
        <time>2022-05-23 14:08:33</time>
      </trkpt>
      <trkpt lat="42.00289" lon="0.74019">
        <ele>746</ele>
        <time>2022-05-23 14:08:34</time>
      </trkpt>
      <trkpt lat="42.0029" lon="0.74016">
        <ele>746</ele>
        <time>2022-05-23 14:08:35</time>
      </trkpt>
      <trkpt lat="42.0029" lon="0.74013">
        <ele>746.2</ele>
        <time>2022-05-23 14:08:36</time>
      </trkpt>
      <trkpt lat="42.0029" lon="0.74011">
        <ele>746.4</ele>
        <time>2022-05-23 14:08:37</time>
      </trkpt>
      <trkpt lat="42.00291" lon="0.74007">
        <ele>746.6</ele>
        <time>2022-05-23 14:08:38</time>
      </trkpt>
      <trkpt lat="42.0029" lon="0.74003">
        <ele>746.8</ele>
        <time>2022-05-23 14:08:39</time>
      </trkpt>
      <trkpt lat="42.00291" lon="0.74">
        <ele>747</ele>
        <time>2022-05-23 14:08:40</time>
      </trkpt>
      <trkpt lat="42.00291" lon="0.73997">
        <ele>747.2</ele>
        <time>2022-05-23 14:08:41</time>
      </trkpt>
      <trkpt lat="42.00291" lon="0.73994">
        <ele>747.2</ele>
        <time>2022-05-23 14:08:42</time>
      </trkpt>
      <trkpt lat="42.00292" lon="0.73991">
        <ele>747.4</ele>
        <time>2022-05-23 14:08:43</time>
      </trkpt>
      <trkpt lat="42.00292" lon="0.73988">
        <ele>747.4</ele>
        <time>2022-05-23 14:08:44</time>
      </trkpt>
      <trkpt lat="42.00293" lon="0.73985">
        <ele>747.2</ele>
        <time>2022-05-23 14:08:45</time>
      </trkpt>
      <trkpt lat="42.00293" lon="0.73982">
        <ele>747.2</ele>
        <time>2022-05-23 14:08:46</time>
      </trkpt>
      <trkpt lat="42.00293" lon="0.73979">
        <ele>747.4</ele>
        <time>2022-05-23 14:08:47</time>
      </trkpt>
      <trkpt lat="42.00293" lon="0.73977">
        <ele>747.4</ele>
        <time>2022-05-23 14:08:48</time>
      </trkpt>
      <trkpt lat="42.00293" lon="0.73974">
        <ele>747.4</ele>
        <time>2022-05-23 14:08:49</time>
      </trkpt>
      <trkpt lat="42.00293" lon="0.73971">
        <ele>747.6</ele>
        <time>2022-05-23 14:08:50</time>
      </trkpt>
      <trkpt lat="42.00293" lon="0.73968">
        <ele>747.6</ele>
        <time>2022-05-23 14:08:51</time>
      </trkpt>
      <trkpt lat="42.00294" lon="0.73966">
        <ele>747.6</ele>
        <time>2022-05-23 14:08:52</time>
      </trkpt>
      <trkpt lat="42.00294" lon="0.73963">
        <ele>747.8</ele>
        <time>2022-05-23 14:08:53</time>
      </trkpt>
      <trkpt lat="42.00294" lon="0.7396">
        <ele>748</ele>
        <time>2022-05-23 14:08:54</time>
      </trkpt>
      <trkpt lat="42.00294" lon="0.73957">
        <ele>748.2</ele>
        <time>2022-05-23 14:08:55</time>
      </trkpt>
      <trkpt lat="42.00294" lon="0.73954">
        <ele>748.2</ele>
        <time>2022-05-23 14:08:56</time>
      </trkpt>
      <trkpt lat="42.00294" lon="0.73952">
        <ele>748.4</ele>
        <time>2022-05-23 14:08:57</time>
      </trkpt>
      <trkpt lat="42.00294" lon="0.73949">
        <ele>748.4</ele>
        <time>2022-05-23 14:08:58</time>
      </trkpt>
      <trkpt lat="42.00294" lon="0.73947">
        <ele>748.6</ele>
        <time>2022-05-23 14:08:59</time>
      </trkpt>
      <trkpt lat="42.00294" lon="0.73944">
        <ele>748.6</ele>
        <time>2022-05-23 14:09:00</time>
      </trkpt>
      <trkpt lat="42.00294" lon="0.73943">
        <ele>748.8</ele>
        <time>2022-05-23 14:09:01</time>
      </trkpt>
      <trkpt lat="42.00294" lon="0.73939">
        <ele>748.8</ele>
        <time>2022-05-23 14:09:02</time>
      </trkpt>
      <trkpt lat="42.00294" lon="0.73937">
        <ele>749</ele>
        <time>2022-05-23 14:09:03</time>
      </trkpt>
      <trkpt lat="42.00294" lon="0.73934">
        <ele>749.2</ele>
        <time>2022-05-23 14:09:04</time>
      </trkpt>
      <trkpt lat="42.00294" lon="0.73932">
        <ele>749.4</ele>
        <time>2022-05-23 14:09:05</time>
      </trkpt>
      <trkpt lat="42.00294" lon="0.73929">
        <ele>749.6</ele>
        <time>2022-05-23 14:09:06</time>
      </trkpt>
      <trkpt lat="42.00294" lon="0.73927">
        <ele>749.8</ele>
        <time>2022-05-23 14:09:07</time>
      </trkpt>
      <trkpt lat="42.00294" lon="0.73924">
        <ele>750</ele>
        <time>2022-05-23 14:09:08</time>
      </trkpt>
      <trkpt lat="42.00294" lon="0.73921">
        <ele>750.2</ele>
        <time>2022-05-23 14:09:09</time>
      </trkpt>
      <trkpt lat="42.00294" lon="0.73918">
        <ele>750.4</ele>
        <time>2022-05-23 14:09:10</time>
      </trkpt>
      <trkpt lat="42.00294" lon="0.73915">
        <ele>750.6</ele>
        <time>2022-05-23 14:09:11</time>
      </trkpt>
      <trkpt lat="42.00294" lon="0.73913">
        <ele>750.6</ele>
        <time>2022-05-23 14:09:12</time>
      </trkpt>
      <trkpt lat="42.00294" lon="0.73909">
        <ele>750.8</ele>
        <time>2022-05-23 14:09:13</time>
      </trkpt>
      <trkpt lat="42.00294" lon="0.73906">
        <ele>751</ele>
        <time>2022-05-23 14:09:14</time>
      </trkpt>
      <trkpt lat="42.00294" lon="0.73903">
        <ele>751.2</ele>
        <time>2022-05-23 14:09:15</time>
      </trkpt>
      <trkpt lat="42.00294" lon="0.739">
        <ele>751.4</ele>
        <time>2022-05-23 14:09:16</time>
      </trkpt>
      <trkpt lat="42.00294" lon="0.73897">
        <ele>751.4</ele>
        <time>2022-05-23 14:09:17</time>
      </trkpt>
      <trkpt lat="42.00294" lon="0.73895">
        <ele>751.6</ele>
        <time>2022-05-23 14:09:18</time>
      </trkpt>
      <trkpt lat="42.00295" lon="0.73892">
        <ele>751.8</ele>
        <time>2022-05-23 14:09:19</time>
      </trkpt>
      <trkpt lat="42.00295" lon="0.73889">
        <ele>751.8</ele>
        <time>2022-05-23 14:09:20</time>
      </trkpt>
      <trkpt lat="42.00295" lon="0.73887">
        <ele>751.8</ele>
        <time>2022-05-23 14:09:21</time>
      </trkpt>
      <trkpt lat="42.00295" lon="0.73883">
        <ele>751.8</ele>
        <time>2022-05-23 14:09:22</time>
      </trkpt>
      <trkpt lat="42.00295" lon="0.7388">
        <ele>752</ele>
        <time>2022-05-23 14:09:23</time>
      </trkpt>
      <trkpt lat="42.00296" lon="0.73878">
        <ele>752</ele>
        <time>2022-05-23 14:09:24</time>
      </trkpt>
      <trkpt lat="42.00296" lon="0.73875">
        <ele>752.2</ele>
        <time>2022-05-23 14:09:25</time>
      </trkpt>
      <trkpt lat="42.00296" lon="0.73872">
        <ele>752.6</ele>
        <time>2022-05-23 14:09:26</time>
      </trkpt>
      <trkpt lat="42.00296" lon="0.7387">
        <ele>752.8</ele>
        <time>2022-05-23 14:09:27</time>
      </trkpt>
      <trkpt lat="42.00296" lon="0.73866">
        <ele>753</ele>
        <time>2022-05-23 14:09:28</time>
      </trkpt>
      <trkpt lat="42.00296" lon="0.73863">
        <ele>753.2</ele>
        <time>2022-05-23 14:09:29</time>
      </trkpt>
      <trkpt lat="42.00296" lon="0.7386">
        <ele>753.4</ele>
        <time>2022-05-23 14:09:30</time>
      </trkpt>
      <trkpt lat="42.00296" lon="0.73858">
        <ele>753.4</ele>
        <time>2022-05-23 14:09:31</time>
      </trkpt>
      <trkpt lat="42.00296" lon="0.73855">
        <ele>753.6</ele>
        <time>2022-05-23 14:09:32</time>
      </trkpt>
      <trkpt lat="42.00296" lon="0.73853">
        <ele>753.8</ele>
        <time>2022-05-23 14:09:33</time>
      </trkpt>
      <trkpt lat="42.00296" lon="0.7385">
        <ele>753.8</ele>
        <time>2022-05-23 14:09:34</time>
      </trkpt>
      <trkpt lat="42.00296" lon="0.73847">
        <ele>754</ele>
        <time>2022-05-23 14:09:35</time>
      </trkpt>
      <trkpt lat="42.00295" lon="0.73845">
        <ele>754</ele>
        <time>2022-05-23 14:09:36</time>
      </trkpt>
      <trkpt lat="42.00295" lon="0.73841">
        <ele>754.2</ele>
        <time>2022-05-23 14:09:37</time>
      </trkpt>
      <trkpt lat="42.00295" lon="0.73838">
        <ele>754.4</ele>
        <time>2022-05-23 14:09:38</time>
      </trkpt>
      <trkpt lat="42.00295" lon="0.73835">
        <ele>754.6</ele>
        <time>2022-05-23 14:09:39</time>
      </trkpt>
      <trkpt lat="42.00295" lon="0.73832">
        <ele>754.8</ele>
        <time>2022-05-23 14:09:40</time>
      </trkpt>
      <trkpt lat="42.00295" lon="0.7383">
        <ele>755</ele>
        <time>2022-05-23 14:09:41</time>
      </trkpt>
      <trkpt lat="42.00294" lon="0.73826">
        <ele>755.2</ele>
        <time>2022-05-23 14:09:42</time>
      </trkpt>
      <trkpt lat="42.00294" lon="0.73823">
        <ele>755.2</ele>
        <time>2022-05-23 14:09:43</time>
      </trkpt>
      <trkpt lat="42.00294" lon="0.7382">
        <ele>755.4</ele>
        <time>2022-05-23 14:09:44</time>
      </trkpt>
      <trkpt lat="42.00294" lon="0.73817">
        <ele>755.6</ele>
        <time>2022-05-23 14:09:45</time>
      </trkpt>
      <trkpt lat="42.00293" lon="0.73813">
        <ele>755.6</ele>
        <time>2022-05-23 14:09:46</time>
      </trkpt>
      <trkpt lat="42.00293" lon="0.7381">
        <ele>755.8</ele>
        <time>2022-05-23 14:09:47</time>
      </trkpt>
      <trkpt lat="42.00293" lon="0.73807">
        <ele>756</ele>
        <time>2022-05-23 14:09:48</time>
      </trkpt>
      <trkpt lat="42.00292" lon="0.73805">
        <ele>756.2</ele>
        <time>2022-05-23 14:09:49</time>
      </trkpt>
      <trkpt lat="42.00291" lon="0.73802">
        <ele>756.4</ele>
        <time>2022-05-23 14:09:50</time>
      </trkpt>
      <trkpt lat="42.0029" lon="0.73799">
        <ele>756.6</ele>
        <time>2022-05-23 14:09:51</time>
      </trkpt>
      <trkpt lat="42.0029" lon="0.73796">
        <ele>756.8</ele>
        <time>2022-05-23 14:09:52</time>
      </trkpt>
      <trkpt lat="42.00289" lon="0.73794">
        <ele>756.8</ele>
        <time>2022-05-23 14:09:53</time>
      </trkpt>
      <trkpt lat="42.00288" lon="0.7379">
        <ele>757</ele>
        <time>2022-05-23 14:09:54</time>
      </trkpt>
      <trkpt lat="42.00287" lon="0.73788">
        <ele>757</ele>
        <time>2022-05-23 14:09:55</time>
      </trkpt>
      <trkpt lat="42.00287" lon="0.73786">
        <ele>757.2</ele>
        <time>2022-05-23 14:09:56</time>
      </trkpt>
      <trkpt lat="42.00286" lon="0.73782">
        <ele>757.2</ele>
        <time>2022-05-23 14:09:57</time>
      </trkpt>
      <trkpt lat="42.00285" lon="0.7378">
        <ele>757.4</ele>
        <time>2022-05-23 14:09:58</time>
      </trkpt>
      <trkpt lat="42.00285" lon="0.73776">
        <ele>757.6</ele>
        <time>2022-05-23 14:09:59</time>
      </trkpt>
      <trkpt lat="42.00284" lon="0.73774">
        <ele>757.8</ele>
        <time>2022-05-23 14:10:00</time>
      </trkpt>
      <trkpt lat="42.00283" lon="0.73771">
        <ele>758</ele>
        <time>2022-05-23 14:10:01</time>
      </trkpt>
      <trkpt lat="42.00282" lon="0.73769">
        <ele>758.2</ele>
        <time>2022-05-23 14:10:02</time>
      </trkpt>
      <trkpt lat="42.00281" lon="0.73766">
        <ele>758.4</ele>
        <time>2022-05-23 14:10:03</time>
      </trkpt>
      <trkpt lat="42.0028" lon="0.73763">
        <ele>758.6</ele>
        <time>2022-05-23 14:10:04</time>
      </trkpt>
      <trkpt lat="42.00279" lon="0.73761">
        <ele>758.6</ele>
        <time>2022-05-23 14:10:05</time>
      </trkpt>
      <trkpt lat="42.00278" lon="0.73758">
        <ele>758.8</ele>
        <time>2022-05-23 14:10:06</time>
      </trkpt>
      <trkpt lat="42.00277" lon="0.73756">
        <ele>759</ele>
        <time>2022-05-23 14:10:07</time>
      </trkpt>
      <trkpt lat="42.00276" lon="0.73754">
        <ele>759</ele>
        <time>2022-05-23 14:10:08</time>
      </trkpt>
      <trkpt lat="42.00274" lon="0.73752">
        <ele>759.2</ele>
        <time>2022-05-23 14:10:09</time>
      </trkpt>
      <trkpt lat="42.00273" lon="0.73749">
        <ele>759.4</ele>
        <time>2022-05-23 14:10:10</time>
      </trkpt>
      <trkpt lat="42.00272" lon="0.73747">
        <ele>759.4</ele>
        <time>2022-05-23 14:10:11</time>
      </trkpt>
      <trkpt lat="42.00271" lon="0.73744">
        <ele>759.6</ele>
        <time>2022-05-23 14:10:12</time>
      </trkpt>
      <trkpt lat="42.0027" lon="0.73742">
        <ele>759.8</ele>
        <time>2022-05-23 14:10:13</time>
      </trkpt>
      <trkpt lat="42.00269" lon="0.73739">
        <ele>760</ele>
        <time>2022-05-23 14:10:14</time>
      </trkpt>
      <trkpt lat="42.00267" lon="0.73737">
        <ele>760</ele>
        <time>2022-05-23 14:10:15</time>
      </trkpt>
      <trkpt lat="42.00266" lon="0.73734">
        <ele>760</ele>
        <time>2022-05-23 14:10:16</time>
      </trkpt>
      <trkpt lat="42.00265" lon="0.73732">
        <ele>760</ele>
        <time>2022-05-23 14:10:17</time>
      </trkpt>
      <trkpt lat="42.00263" lon="0.7373">
        <ele>760</ele>
        <time>2022-05-23 14:10:18</time>
      </trkpt>
      <trkpt lat="42.00262" lon="0.73728">
        <ele>760</ele>
        <time>2022-05-23 14:10:19</time>
      </trkpt>
      <trkpt lat="42.00261" lon="0.73726">
        <ele>760.2</ele>
        <time>2022-05-23 14:10:20</time>
      </trkpt>
      <trkpt lat="42.00259" lon="0.73724">
        <ele>760.4</ele>
        <time>2022-05-23 14:10:21</time>
      </trkpt>
      <trkpt lat="42.00258" lon="0.73722">
        <ele>760.6</ele>
        <time>2022-05-23 14:10:22</time>
      </trkpt>
      <trkpt lat="42.00257" lon="0.7372">
        <ele>760.6</ele>
        <time>2022-05-23 14:10:23</time>
      </trkpt>
      <trkpt lat="42.00255" lon="0.73718">
        <ele>761</ele>
        <time>2022-05-23 14:10:24</time>
      </trkpt>
      <trkpt lat="42.00254" lon="0.73716">
        <ele>761.2</ele>
        <time>2022-05-23 14:10:25</time>
      </trkpt>
      <trkpt lat="42.00252" lon="0.73714">
        <ele>761.4</ele>
        <time>2022-05-23 14:10:26</time>
      </trkpt>
      <trkpt lat="42.00251" lon="0.73712">
        <ele>761.4</ele>
        <time>2022-05-23 14:10:27</time>
      </trkpt>
      <trkpt lat="42.0025" lon="0.73711">
        <ele>761.6</ele>
        <time>2022-05-23 14:10:28</time>
      </trkpt>
      <trkpt lat="42.00248" lon="0.73708">
        <ele>761.6</ele>
        <time>2022-05-23 14:10:29</time>
      </trkpt>
      <trkpt lat="42.00246" lon="0.73706">
        <ele>761.8</ele>
        <time>2022-05-23 14:10:30</time>
      </trkpt>
      <trkpt lat="42.00244" lon="0.73703">
        <ele>762</ele>
        <time>2022-05-23 14:10:31</time>
      </trkpt>
      <trkpt lat="42.00242" lon="0.73702">
        <ele>762</ele>
        <time>2022-05-23 14:10:32</time>
      </trkpt>
      <trkpt lat="42.00241" lon="0.73699">
        <ele>762.2</ele>
        <time>2022-05-23 14:10:33</time>
      </trkpt>
      <trkpt lat="42.00239" lon="0.73698">
        <ele>762.4</ele>
        <time>2022-05-23 14:10:34</time>
      </trkpt>
      <trkpt lat="42.00238" lon="0.73696">
        <ele>762.6</ele>
        <time>2022-05-23 14:10:35</time>
      </trkpt>
      <trkpt lat="42.00237" lon="0.73695">
        <ele>762.8</ele>
        <time>2022-05-23 14:10:36</time>
      </trkpt>
      <trkpt lat="42.00235" lon="0.73694">
        <ele>762.8</ele>
        <time>2022-05-23 14:10:37</time>
      </trkpt>
      <trkpt lat="42.00233" lon="0.73692">
        <ele>763</ele>
        <time>2022-05-23 14:10:38</time>
      </trkpt>
      <trkpt lat="42.00232" lon="0.7369">
        <ele>763.2</ele>
        <time>2022-05-23 14:10:39</time>
      </trkpt>
      <trkpt lat="42.0023" lon="0.73689">
        <ele>763.2</ele>
        <time>2022-05-23 14:10:40</time>
      </trkpt>
      <trkpt lat="42.00229" lon="0.73687">
        <ele>763.4</ele>
        <time>2022-05-23 14:10:41</time>
      </trkpt>
      <trkpt lat="42.00227" lon="0.73686">
        <ele>763.4</ele>
        <time>2022-05-23 14:10:42</time>
      </trkpt>
      <trkpt lat="42.00225" lon="0.73684">
        <ele>763.6</ele>
        <time>2022-05-23 14:10:43</time>
      </trkpt>
      <trkpt lat="42.00223" lon="0.73683">
        <ele>763.8</ele>
        <time>2022-05-23 14:10:44</time>
      </trkpt>
      <trkpt lat="42.00221" lon="0.73681">
        <ele>763.8</ele>
        <time>2022-05-23 14:10:45</time>
      </trkpt>
      <trkpt lat="42.0022" lon="0.7368">
        <ele>764</ele>
        <time>2022-05-23 14:10:46</time>
      </trkpt>
      <trkpt lat="42.00218" lon="0.73679">
        <ele>764.2</ele>
        <time>2022-05-23 14:10:47</time>
      </trkpt>
      <trkpt lat="42.00216" lon="0.73678">
        <ele>764.2</ele>
        <time>2022-05-23 14:10:48</time>
      </trkpt>
      <trkpt lat="42.00214" lon="0.73676">
        <ele>764.4</ele>
        <time>2022-05-23 14:10:49</time>
      </trkpt>
      <trkpt lat="42.00212" lon="0.73675">
        <ele>764.4</ele>
        <time>2022-05-23 14:10:50</time>
      </trkpt>
      <trkpt lat="42.00211" lon="0.73673">
        <ele>764.4</ele>
        <time>2022-05-23 14:10:51</time>
      </trkpt>
      <trkpt lat="42.00209" lon="0.73672">
        <ele>764.6</ele>
        <time>2022-05-23 14:10:52</time>
      </trkpt>
      <trkpt lat="42.00207" lon="0.7367">
        <ele>764.6</ele>
        <time>2022-05-23 14:10:53</time>
      </trkpt>
      <trkpt lat="42.00206" lon="0.73668">
        <ele>764.8</ele>
        <time>2022-05-23 14:10:54</time>
      </trkpt>
      <trkpt lat="42.00203" lon="0.73667">
        <ele>764.8</ele>
        <time>2022-05-23 14:10:55</time>
      </trkpt>
      <trkpt lat="42.00201" lon="0.73666">
        <ele>765</ele>
        <time>2022-05-23 14:10:56</time>
      </trkpt>
      <trkpt lat="42.00199" lon="0.73665">
        <ele>765</ele>
        <time>2022-05-23 14:10:57</time>
      </trkpt>
      <trkpt lat="42.00198" lon="0.73664">
        <ele>765.2</ele>
        <time>2022-05-23 14:10:58</time>
      </trkpt>
      <trkpt lat="42.00196" lon="0.73663">
        <ele>765.4</ele>
        <time>2022-05-23 14:10:59</time>
      </trkpt>
      <trkpt lat="42.00194" lon="0.73662">
        <ele>765.4</ele>
        <time>2022-05-23 14:11:00</time>
      </trkpt>
      <trkpt lat="42.00191" lon="0.7366">
        <ele>765.4</ele>
        <time>2022-05-23 14:11:01</time>
      </trkpt>
      <trkpt lat="42.00189" lon="0.73659">
        <ele>765.6</ele>
        <time>2022-05-23 14:11:02</time>
      </trkpt>
      <trkpt lat="42.00187" lon="0.73658">
        <ele>765.8</ele>
        <time>2022-05-23 14:11:03</time>
      </trkpt>
      <trkpt lat="42.00185" lon="0.73657">
        <ele>766</ele>
        <time>2022-05-23 14:11:04</time>
      </trkpt>
      <trkpt lat="42.00183" lon="0.73656">
        <ele>766.2</ele>
        <time>2022-05-23 14:11:05</time>
      </trkpt>
      <trkpt lat="42.00181" lon="0.73655">
        <ele>766.4</ele>
        <time>2022-05-23 14:11:06</time>
      </trkpt>
      <trkpt lat="42.0018" lon="0.73654">
        <ele>766.6</ele>
        <time>2022-05-23 14:11:07</time>
      </trkpt>
      <trkpt lat="42.00178" lon="0.73654">
        <ele>766.8</ele>
        <time>2022-05-23 14:11:08</time>
      </trkpt>
      <trkpt lat="42.00176" lon="0.73653">
        <ele>767</ele>
        <time>2022-05-23 14:11:09</time>
      </trkpt>
      <trkpt lat="42.00174" lon="0.73652">
        <ele>767.2</ele>
        <time>2022-05-23 14:11:10</time>
      </trkpt>
      <trkpt lat="42.00172" lon="0.73652">
        <ele>767.2</ele>
        <time>2022-05-23 14:11:11</time>
      </trkpt>
      <trkpt lat="42.00169" lon="0.73651">
        <ele>767.4</ele>
        <time>2022-05-23 14:11:12</time>
      </trkpt>
      <trkpt lat="42.00167" lon="0.7365">
        <ele>767.6</ele>
        <time>2022-05-23 14:11:13</time>
      </trkpt>
      <trkpt lat="42.00165" lon="0.7365">
        <ele>767.8</ele>
        <time>2022-05-23 14:11:14</time>
      </trkpt>
      <trkpt lat="42.00162" lon="0.73649">
        <ele>767.8</ele>
        <time>2022-05-23 14:11:15</time>
      </trkpt>
      <trkpt lat="42.0016" lon="0.73649">
        <ele>768</ele>
        <time>2022-05-23 14:11:16</time>
      </trkpt>
      <trkpt lat="42.00158" lon="0.73648">
        <ele>768.2</ele>
        <time>2022-05-23 14:11:17</time>
      </trkpt>
      <trkpt lat="42.00155" lon="0.73647">
        <ele>768.4</ele>
        <time>2022-05-23 14:11:18</time>
      </trkpt>
      <trkpt lat="42.00153" lon="0.73647">
        <ele>768.6</ele>
        <time>2022-05-23 14:11:19</time>
      </trkpt>
      <trkpt lat="42.00151" lon="0.73647">
        <ele>768.8</ele>
        <time>2022-05-23 14:11:20</time>
      </trkpt>
      <trkpt lat="42.00148" lon="0.73647">
        <ele>769</ele>
        <time>2022-05-23 14:11:21</time>
      </trkpt>
      <trkpt lat="42.00145" lon="0.73647">
        <ele>769</ele>
        <time>2022-05-23 14:11:22</time>
      </trkpt>
      <trkpt lat="42.00143" lon="0.73647">
        <ele>769.2</ele>
        <time>2022-05-23 14:11:23</time>
      </trkpt>
      <trkpt lat="42.00141" lon="0.73648">
        <ele>769.4</ele>
        <time>2022-05-23 14:11:24</time>
      </trkpt>
      <trkpt lat="42.00139" lon="0.73648">
        <ele>769.6</ele>
        <time>2022-05-23 14:11:25</time>
      </trkpt>
      <trkpt lat="42.00137" lon="0.73648">
        <ele>769.6</ele>
        <time>2022-05-23 14:11:26</time>
      </trkpt>
      <trkpt lat="42.00135" lon="0.73648">
        <ele>769.8</ele>
        <time>2022-05-23 14:11:27</time>
      </trkpt>
      <trkpt lat="42.00133" lon="0.73648">
        <ele>770</ele>
        <time>2022-05-23 14:11:28</time>
      </trkpt>
      <trkpt lat="42.00131" lon="0.73648">
        <ele>770.2</ele>
        <time>2022-05-23 14:11:29</time>
      </trkpt>
      <trkpt lat="42.00128" lon="0.73648">
        <ele>770.4</ele>
        <time>2022-05-23 14:11:30</time>
      </trkpt>
      <trkpt lat="42.00126" lon="0.73649">
        <ele>770.6</ele>
        <time>2022-05-23 14:11:31</time>
      </trkpt>
      <trkpt lat="42.00124" lon="0.73649">
        <ele>770.8</ele>
        <time>2022-05-23 14:11:32</time>
      </trkpt>
      <trkpt lat="42.00122" lon="0.73649">
        <ele>771.2</ele>
        <time>2022-05-23 14:11:33</time>
      </trkpt>
      <trkpt lat="42.0012" lon="0.7365">
        <ele>771.2</ele>
        <time>2022-05-23 14:11:34</time>
      </trkpt>
      <trkpt lat="42.00117" lon="0.7365">
        <ele>771.4</ele>
        <time>2022-05-23 14:11:35</time>
      </trkpt>
      <trkpt lat="42.00115" lon="0.7365">
        <ele>771.6</ele>
        <time>2022-05-23 14:11:36</time>
      </trkpt>
      <trkpt lat="42.00113" lon="0.73651">
        <ele>771.6</ele>
        <time>2022-05-23 14:11:37</time>
      </trkpt>
      <trkpt lat="42.00111" lon="0.73652">
        <ele>771.8</ele>
        <time>2022-05-23 14:11:38</time>
      </trkpt>
      <trkpt lat="42.00109" lon="0.73652">
        <ele>771.8</ele>
        <time>2022-05-23 14:11:39</time>
      </trkpt>
      <trkpt lat="42.00107" lon="0.73653">
        <ele>772</ele>
        <time>2022-05-23 14:11:40</time>
      </trkpt>
      <trkpt lat="42.00105" lon="0.73654">
        <ele>772</ele>
        <time>2022-05-23 14:11:41</time>
      </trkpt>
      <trkpt lat="42.00103" lon="0.73655">
        <ele>772.2</ele>
        <time>2022-05-23 14:11:42</time>
      </trkpt>
      <trkpt lat="42.00101" lon="0.73655">
        <ele>772.4</ele>
        <time>2022-05-23 14:11:43</time>
      </trkpt>
      <trkpt lat="42.00099" lon="0.73656">
        <ele>772.6</ele>
        <time>2022-05-23 14:11:44</time>
      </trkpt>
      <trkpt lat="42.00097" lon="0.73656">
        <ele>772.8</ele>
        <time>2022-05-23 14:11:45</time>
      </trkpt>
      <trkpt lat="42.00095" lon="0.73657">
        <ele>772.8</ele>
        <time>2022-05-23 14:11:46</time>
      </trkpt>
      <trkpt lat="42.00093" lon="0.73659">
        <ele>773</ele>
        <time>2022-05-23 14:11:47</time>
      </trkpt>
      <trkpt lat="42.00091" lon="0.73659">
        <ele>773.2</ele>
        <time>2022-05-23 14:11:48</time>
      </trkpt>
      <trkpt lat="42.00088" lon="0.7366">
        <ele>773.2</ele>
        <time>2022-05-23 14:11:49</time>
      </trkpt>
      <trkpt lat="42.00087" lon="0.73661">
        <ele>773.4</ele>
        <time>2022-05-23 14:11:50</time>
      </trkpt>
      <trkpt lat="42.00084" lon="0.73662">
        <ele>773.6</ele>
        <time>2022-05-23 14:11:51</time>
      </trkpt>
      <trkpt lat="42.00082" lon="0.73663">
        <ele>773.8</ele>
        <time>2022-05-23 14:11:52</time>
      </trkpt>
      <trkpt lat="42.0008" lon="0.73664">
        <ele>774</ele>
        <time>2022-05-23 14:11:53</time>
      </trkpt>
      <trkpt lat="42.00078" lon="0.73665">
        <ele>774.2</ele>
        <time>2022-05-23 14:11:54</time>
      </trkpt>
      <trkpt lat="42.00076" lon="0.73666">
        <ele>774.6</ele>
        <time>2022-05-23 14:11:55</time>
      </trkpt>
      <trkpt lat="42.00074" lon="0.73667">
        <ele>774.8</ele>
        <time>2022-05-23 14:11:56</time>
      </trkpt>
      <trkpt lat="42.00072" lon="0.73668">
        <ele>775</ele>
        <time>2022-05-23 14:11:57</time>
      </trkpt>
      <trkpt lat="42.00069" lon="0.73669">
        <ele>775.2</ele>
        <time>2022-05-23 14:11:58</time>
      </trkpt>
      <trkpt lat="42.00067" lon="0.7367">
        <ele>775.4</ele>
        <time>2022-05-23 14:11:59</time>
      </trkpt>
      <trkpt lat="42.00065" lon="0.73672">
        <ele>775.4</ele>
        <time>2022-05-23 14:12:00</time>
      </trkpt>
      <trkpt lat="42.00063" lon="0.73673">
        <ele>775.6</ele>
        <time>2022-05-23 14:12:01</time>
      </trkpt>
      <trkpt lat="42.00062" lon="0.73674">
        <ele>775.8</ele>
        <time>2022-05-23 14:12:02</time>
      </trkpt>
      <trkpt lat="42.00059" lon="0.73676">
        <ele>775.8</ele>
        <time>2022-05-23 14:12:03</time>
      </trkpt>
      <trkpt lat="42.00057" lon="0.73677">
        <ele>776</ele>
        <time>2022-05-23 14:12:04</time>
      </trkpt>
      <trkpt lat="42.00055" lon="0.73679">
        <ele>776.2</ele>
        <time>2022-05-23 14:12:05</time>
      </trkpt>
      <trkpt lat="42.00053" lon="0.7368">
        <ele>776.4</ele>
        <time>2022-05-23 14:12:06</time>
      </trkpt>
      <trkpt lat="42.0005" lon="0.73682">
        <ele>776.6</ele>
        <time>2022-05-23 14:12:07</time>
      </trkpt>
      <trkpt lat="42.00048" lon="0.73682">
        <ele>776.8</ele>
        <time>2022-05-23 14:12:08</time>
      </trkpt>
      <trkpt lat="42.00045" lon="0.73683">
        <ele>776.8</ele>
        <time>2022-05-23 14:12:09</time>
      </trkpt>
      <trkpt lat="42.00043" lon="0.73685">
        <ele>777</ele>
        <time>2022-05-23 14:12:10</time>
      </trkpt>
      <trkpt lat="42.00041" lon="0.73686">
        <ele>777.2</ele>
        <time>2022-05-23 14:12:11</time>
      </trkpt>
      <trkpt lat="42.00039" lon="0.73688">
        <ele>777.4</ele>
        <time>2022-05-23 14:12:12</time>
      </trkpt>
      <trkpt lat="42.00037" lon="0.73689">
        <ele>777.4</ele>
        <time>2022-05-23 14:12:13</time>
      </trkpt>
      <trkpt lat="42.00034" lon="0.7369">
        <ele>777.6</ele>
        <time>2022-05-23 14:12:14</time>
      </trkpt>
      <trkpt lat="42.00032" lon="0.73691">
        <ele>777.8</ele>
        <time>2022-05-23 14:12:15</time>
      </trkpt>
      <trkpt lat="42.0003" lon="0.73693">
        <ele>778</ele>
        <time>2022-05-23 14:12:16</time>
      </trkpt>
      <trkpt lat="42.00027" lon="0.73694">
        <ele>778.2</ele>
        <time>2022-05-23 14:12:17</time>
      </trkpt>
      <trkpt lat="42.00025" lon="0.73695">
        <ele>778.4</ele>
        <time>2022-05-23 14:12:18</time>
      </trkpt>
      <trkpt lat="42.00023" lon="0.73697">
        <ele>778.6</ele>
        <time>2022-05-23 14:12:19</time>
      </trkpt>
      <trkpt lat="42.00021" lon="0.73698">
        <ele>778.8</ele>
        <time>2022-05-23 14:12:20</time>
      </trkpt>
      <trkpt lat="42.00019" lon="0.73699">
        <ele>779</ele>
        <time>2022-05-23 14:12:21</time>
      </trkpt>
      <trkpt lat="42.00017" lon="0.73701">
        <ele>779</ele>
        <time>2022-05-23 14:12:22</time>
      </trkpt>
      <trkpt lat="42.00014" lon="0.73702">
        <ele>779.2</ele>
        <time>2022-05-23 14:12:23</time>
      </trkpt>
      <trkpt lat="42.00012" lon="0.73703">
        <ele>779.2</ele>
        <time>2022-05-23 14:12:24</time>
      </trkpt>
      <trkpt lat="42.0001" lon="0.73704">
        <ele>779.4</ele>
        <time>2022-05-23 14:12:25</time>
      </trkpt>
      <trkpt lat="42.00008" lon="0.73706">
        <ele>779.4</ele>
        <time>2022-05-23 14:12:26</time>
      </trkpt>
      <trkpt lat="42.00005" lon="0.73707">
        <ele>779.6</ele>
        <time>2022-05-23 14:12:27</time>
      </trkpt>
      <trkpt lat="42.00003" lon="0.73708">
        <ele>779.8</ele>
        <time>2022-05-23 14:12:28</time>
      </trkpt>
      <trkpt lat="42.00002" lon="0.7371">
        <ele>779.8</ele>
        <time>2022-05-23 14:12:29</time>
      </trkpt>
      <trkpt lat="41.99999" lon="0.73711">
        <ele>780</ele>
        <time>2022-05-23 14:12:30</time>
      </trkpt>
      <trkpt lat="41.99997" lon="0.73712">
        <ele>780.2</ele>
        <time>2022-05-23 14:12:31</time>
      </trkpt>
      <trkpt lat="41.99995" lon="0.73713">
        <ele>780.2</ele>
        <time>2022-05-23 14:12:32</time>
      </trkpt>
      <trkpt lat="41.99993" lon="0.73715">
        <ele>780.4</ele>
        <time>2022-05-23 14:12:33</time>
      </trkpt>
      <trkpt lat="41.9999" lon="0.73716">
        <ele>780.6</ele>
        <time>2022-05-23 14:12:34</time>
      </trkpt>
      <trkpt lat="41.99988" lon="0.73717">
        <ele>780.6</ele>
        <time>2022-05-23 14:12:35</time>
      </trkpt>
      <trkpt lat="41.99986" lon="0.73718">
        <ele>780.8</ele>
        <time>2022-05-23 14:12:36</time>
      </trkpt>
      <trkpt lat="41.99983" lon="0.73719">
        <ele>781</ele>
        <time>2022-05-23 14:12:37</time>
      </trkpt>
      <trkpt lat="41.99981" lon="0.73721">
        <ele>781</ele>
        <time>2022-05-23 14:12:38</time>
      </trkpt>
      <trkpt lat="41.99978" lon="0.73721">
        <ele>781.2</ele>
        <time>2022-05-23 14:12:39</time>
      </trkpt>
      <trkpt lat="41.99976" lon="0.73722">
        <ele>781.4</ele>
        <time>2022-05-23 14:12:40</time>
      </trkpt>
      <trkpt lat="41.99974" lon="0.73723">
        <ele>781.4</ele>
        <time>2022-05-23 14:12:41</time>
      </trkpt>
      <trkpt lat="41.99972" lon="0.73723">
        <ele>781.6</ele>
        <time>2022-05-23 14:12:42</time>
      </trkpt>
      <trkpt lat="41.99969" lon="0.73724">
        <ele>781.8</ele>
        <time>2022-05-23 14:12:43</time>
      </trkpt>
      <trkpt lat="41.99967" lon="0.73725">
        <ele>782</ele>
        <time>2022-05-23 14:12:44</time>
      </trkpt>
      <trkpt lat="41.99965" lon="0.73725">
        <ele>782.2</ele>
        <time>2022-05-23 14:12:45</time>
      </trkpt>
      <trkpt lat="41.99963" lon="0.73726">
        <ele>782.2</ele>
        <time>2022-05-23 14:12:46</time>
      </trkpt>
      <trkpt lat="41.9996" lon="0.73727">
        <ele>782.4</ele>
        <time>2022-05-23 14:12:47</time>
      </trkpt>
      <trkpt lat="41.99958" lon="0.73728">
        <ele>782.6</ele>
        <time>2022-05-23 14:12:48</time>
      </trkpt>
      <trkpt lat="41.99957" lon="0.73728">
        <ele>782.8</ele>
        <time>2022-05-23 14:12:49</time>
      </trkpt>
      <trkpt lat="41.99954" lon="0.73728">
        <ele>782.8</ele>
        <time>2022-05-23 14:12:50</time>
      </trkpt>
      <trkpt lat="41.99952" lon="0.73728">
        <ele>783</ele>
        <time>2022-05-23 14:12:51</time>
      </trkpt>
      <trkpt lat="41.9995" lon="0.73729">
        <ele>783.2</ele>
        <time>2022-05-23 14:12:52</time>
      </trkpt>
      <trkpt lat="41.99948" lon="0.7373">
        <ele>783.4</ele>
        <time>2022-05-23 14:12:53</time>
      </trkpt>
      <trkpt lat="41.99946" lon="0.7373">
        <ele>783.4</ele>
        <time>2022-05-23 14:12:54</time>
      </trkpt>
      <trkpt lat="41.99944" lon="0.7373">
        <ele>783.6</ele>
        <time>2022-05-23 14:12:55</time>
      </trkpt>
      <trkpt lat="41.99942" lon="0.7373">
        <ele>783.8</ele>
        <time>2022-05-23 14:12:56</time>
      </trkpt>
      <trkpt lat="41.9994" lon="0.73731">
        <ele>784</ele>
        <time>2022-05-23 14:12:57</time>
      </trkpt>
      <trkpt lat="41.99938" lon="0.73731">
        <ele>784</ele>
        <time>2022-05-23 14:12:58</time>
      </trkpt>
      <trkpt lat="41.99936" lon="0.73731">
        <ele>784.2</ele>
        <time>2022-05-23 14:12:59</time>
      </trkpt>
      <trkpt lat="41.99934" lon="0.73731">
        <ele>784.6</ele>
        <time>2022-05-23 14:13:00</time>
      </trkpt>
      <trkpt lat="41.99932" lon="0.73731">
        <ele>784.8</ele>
        <time>2022-05-23 14:13:01</time>
      </trkpt>
      <trkpt lat="41.9993" lon="0.73732">
        <ele>785</ele>
        <time>2022-05-23 14:13:02</time>
      </trkpt>
      <trkpt lat="41.99928" lon="0.73732">
        <ele>785.2</ele>
        <time>2022-05-23 14:13:03</time>
      </trkpt>
      <trkpt lat="41.99926" lon="0.73732">
        <ele>785.2</ele>
        <time>2022-05-23 14:13:04</time>
      </trkpt>
      <trkpt lat="41.99923" lon="0.73732">
        <ele>785.4</ele>
        <time>2022-05-23 14:13:05</time>
      </trkpt>
      <trkpt lat="41.99921" lon="0.73732">
        <ele>785.6</ele>
        <time>2022-05-23 14:13:06</time>
      </trkpt>
      <trkpt lat="41.99919" lon="0.73733">
        <ele>785.8</ele>
        <time>2022-05-23 14:13:07</time>
      </trkpt>
      <trkpt lat="41.99917" lon="0.73732">
        <ele>785.8</ele>
        <time>2022-05-23 14:13:08</time>
      </trkpt>
      <trkpt lat="41.99915" lon="0.73732">
        <ele>786</ele>
        <time>2022-05-23 14:13:09</time>
      </trkpt>
      <trkpt lat="41.99913" lon="0.73732">
        <ele>786.2</ele>
        <time>2022-05-23 14:13:10</time>
      </trkpt>
      <trkpt lat="41.99911" lon="0.73732">
        <ele>786.2</ele>
        <time>2022-05-23 14:13:11</time>
      </trkpt>
      <trkpt lat="41.99909" lon="0.73732">
        <ele>786.4</ele>
        <time>2022-05-23 14:13:12</time>
      </trkpt>
      <trkpt lat="41.99907" lon="0.73731">
        <ele>786.6</ele>
        <time>2022-05-23 14:13:13</time>
      </trkpt>
      <trkpt lat="41.99905" lon="0.73731">
        <ele>786.8</ele>
        <time>2022-05-23 14:13:14</time>
      </trkpt>
      <trkpt lat="41.99903" lon="0.73731">
        <ele>786.8</ele>
        <time>2022-05-23 14:13:15</time>
      </trkpt>
      <trkpt lat="41.99901" lon="0.73731">
        <ele>787</ele>
        <time>2022-05-23 14:13:16</time>
      </trkpt>
      <trkpt lat="41.99899" lon="0.7373">
        <ele>787</ele>
        <time>2022-05-23 14:13:17</time>
      </trkpt>
      <trkpt lat="41.99897" lon="0.7373">
        <ele>787.2</ele>
        <time>2022-05-23 14:13:18</time>
      </trkpt>
      <trkpt lat="41.99894" lon="0.7373">
        <ele>787.4</ele>
        <time>2022-05-23 14:13:19</time>
      </trkpt>
      <trkpt lat="41.99892" lon="0.7373">
        <ele>787.4</ele>
        <time>2022-05-23 14:13:20</time>
      </trkpt>
      <trkpt lat="41.9989" lon="0.7373">
        <ele>787.6</ele>
        <time>2022-05-23 14:13:21</time>
      </trkpt>
      <trkpt lat="41.99888" lon="0.73729">
        <ele>787.8</ele>
        <time>2022-05-23 14:13:22</time>
      </trkpt>
      <trkpt lat="41.99886" lon="0.73729">
        <ele>787.8</ele>
        <time>2022-05-23 14:13:23</time>
      </trkpt>
      <trkpt lat="41.99884" lon="0.73729">
        <ele>788</ele>
        <time>2022-05-23 14:13:24</time>
      </trkpt>
      <trkpt lat="41.99882" lon="0.73728">
        <ele>788.2</ele>
        <time>2022-05-23 14:13:25</time>
      </trkpt>
      <trkpt lat="41.9988" lon="0.73728">
        <ele>788.4</ele>
        <time>2022-05-23 14:13:26</time>
      </trkpt>
      <trkpt lat="41.99877" lon="0.73728">
        <ele>788.6</ele>
        <time>2022-05-23 14:13:27</time>
      </trkpt>
      <trkpt lat="41.99875" lon="0.73727">
        <ele>788.6</ele>
        <time>2022-05-23 14:13:28</time>
      </trkpt>
      <trkpt lat="41.99873" lon="0.73727">
        <ele>788.8</ele>
        <time>2022-05-23 14:13:29</time>
      </trkpt>
      <trkpt lat="41.99871" lon="0.73726">
        <ele>789</ele>
        <time>2022-05-23 14:13:30</time>
      </trkpt>
      <trkpt lat="41.99869" lon="0.73726">
        <ele>789</ele>
        <time>2022-05-23 14:13:31</time>
      </trkpt>
      <trkpt lat="41.99867" lon="0.73725">
        <ele>789.2</ele>
        <time>2022-05-23 14:13:32</time>
      </trkpt>
      <trkpt lat="41.99865" lon="0.73725">
        <ele>789.4</ele>
        <time>2022-05-23 14:13:33</time>
      </trkpt>
      <trkpt lat="41.99863" lon="0.73724">
        <ele>789.6</ele>
        <time>2022-05-23 14:13:34</time>
      </trkpt>
      <trkpt lat="41.99861" lon="0.73724">
        <ele>789.8</ele>
        <time>2022-05-23 14:13:35</time>
      </trkpt>
      <trkpt lat="41.99859" lon="0.73724">
        <ele>790</ele>
        <time>2022-05-23 14:13:36</time>
      </trkpt>
      <trkpt lat="41.99857" lon="0.73723">
        <ele>790.2</ele>
        <time>2022-05-23 14:13:37</time>
      </trkpt>
      <trkpt lat="41.99855" lon="0.73721">
        <ele>790.2</ele>
        <time>2022-05-23 14:13:38</time>
      </trkpt>
      <trkpt lat="41.99852" lon="0.7372">
        <ele>790.4</ele>
        <time>2022-05-23 14:13:39</time>
      </trkpt>
      <trkpt lat="41.9985" lon="0.7372">
        <ele>790.4</ele>
        <time>2022-05-23 14:13:40</time>
      </trkpt>
      <trkpt lat="41.99848" lon="0.73719">
        <ele>790.6</ele>
        <time>2022-05-23 14:13:41</time>
      </trkpt>
      <trkpt lat="41.99846" lon="0.73718">
        <ele>790.6</ele>
        <time>2022-05-23 14:13:42</time>
      </trkpt>
      <trkpt lat="41.99844" lon="0.73717">
        <ele>790.8</ele>
        <time>2022-05-23 14:13:43</time>
      </trkpt>
      <trkpt lat="41.99842" lon="0.73717">
        <ele>790.8</ele>
        <time>2022-05-23 14:13:44</time>
      </trkpt>
      <trkpt lat="41.99839" lon="0.73716">
        <ele>791</ele>
        <time>2022-05-23 14:13:45</time>
      </trkpt>
      <trkpt lat="41.99837" lon="0.73715">
        <ele>791</ele>
        <time>2022-05-23 14:13:46</time>
      </trkpt>
      <trkpt lat="41.99835" lon="0.73714">
        <ele>791.2</ele>
        <time>2022-05-23 14:13:47</time>
      </trkpt>
      <trkpt lat="41.99833" lon="0.73714">
        <ele>791.4</ele>
        <time>2022-05-23 14:13:48</time>
      </trkpt>
      <trkpt lat="41.99831" lon="0.73713">
        <ele>791.4</ele>
        <time>2022-05-23 14:13:49</time>
      </trkpt>
      <trkpt lat="41.99828" lon="0.73712">
        <ele>791.8</ele>
        <time>2022-05-23 14:13:50</time>
      </trkpt>
      <trkpt lat="41.99827" lon="0.73712">
        <ele>792</ele>
        <time>2022-05-23 14:13:51</time>
      </trkpt>
      <trkpt lat="41.99825" lon="0.73711">
        <ele>792.2</ele>
        <time>2022-05-23 14:13:52</time>
      </trkpt>
      <trkpt lat="41.99822" lon="0.7371">
        <ele>792.4</ele>
        <time>2022-05-23 14:13:53</time>
      </trkpt>
      <trkpt lat="41.9982" lon="0.73709">
        <ele>792.8</ele>
        <time>2022-05-23 14:13:54</time>
      </trkpt>
      <trkpt lat="41.99818" lon="0.73708">
        <ele>793</ele>
        <time>2022-05-23 14:13:55</time>
      </trkpt>
      <trkpt lat="41.99816" lon="0.73708">
        <ele>793.2</ele>
        <time>2022-05-23 14:13:56</time>
      </trkpt>
      <trkpt lat="41.99814" lon="0.73707">
        <ele>793.4</ele>
        <time>2022-05-23 14:13:57</time>
      </trkpt>
      <trkpt lat="41.99812" lon="0.73706">
        <ele>793.8</ele>
        <time>2022-05-23 14:13:58</time>
      </trkpt>
      <trkpt lat="41.9981" lon="0.73706">
        <ele>794</ele>
        <time>2022-05-23 14:13:59</time>
      </trkpt>
      <trkpt lat="41.99808" lon="0.73705">
        <ele>794.2</ele>
        <time>2022-05-23 14:14:00</time>
      </trkpt>
      <trkpt lat="41.99806" lon="0.73704">
        <ele>794.4</ele>
        <time>2022-05-23 14:14:01</time>
      </trkpt>
      <trkpt lat="41.99804" lon="0.73704">
        <ele>794.6</ele>
        <time>2022-05-23 14:14:02</time>
      </trkpt>
      <trkpt lat="41.99802" lon="0.73703">
        <ele>794.8</ele>
        <time>2022-05-23 14:14:03</time>
      </trkpt>
      <trkpt lat="41.99802" lon="0.73702">
        <ele>794.8</ele>
        <time>2022-05-23 14:14:04</time>
      </trkpt>
      <trkpt lat="41.998" lon="0.73701">
        <ele>795</ele>
        <time>2022-05-23 14:14:05</time>
      </trkpt>
      <trkpt lat="41.99798" lon="0.73701">
        <ele>795.2</ele>
        <time>2022-05-23 14:14:06</time>
      </trkpt>
      <trkpt lat="41.99795" lon="0.737">
        <ele>795.2</ele>
        <time>2022-05-23 14:14:07</time>
      </trkpt>
      <trkpt lat="41.99793" lon="0.737">
        <ele>795.4</ele>
        <time>2022-05-23 14:14:08</time>
      </trkpt>
      <trkpt lat="41.99791" lon="0.737">
        <ele>795.4</ele>
        <time>2022-05-23 14:14:09</time>
      </trkpt>
      <trkpt lat="41.99789" lon="0.73699">
        <ele>795.6</ele>
        <time>2022-05-23 14:14:10</time>
      </trkpt>
      <trkpt lat="41.99787" lon="0.73699">
        <ele>795.6</ele>
        <time>2022-05-23 14:14:11</time>
      </trkpt>
      <trkpt lat="41.99785" lon="0.73698">
        <ele>795.8</ele>
        <time>2022-05-23 14:14:12</time>
      </trkpt>
      <trkpt lat="41.99783" lon="0.73698">
        <ele>795.8</ele>
        <time>2022-05-23 14:14:13</time>
      </trkpt>
      <trkpt lat="41.99781" lon="0.73698">
        <ele>796</ele>
        <time>2022-05-23 14:14:14</time>
      </trkpt>
      <trkpt lat="41.99778" lon="0.73697">
        <ele>796.2</ele>
        <time>2022-05-23 14:14:15</time>
      </trkpt>
      <trkpt lat="41.99776" lon="0.73697">
        <ele>796.2</ele>
        <time>2022-05-23 14:14:16</time>
      </trkpt>
      <trkpt lat="41.99774" lon="0.73697">
        <ele>796.4</ele>
        <time>2022-05-23 14:14:17</time>
      </trkpt>
      <trkpt lat="41.99772" lon="0.73697">
        <ele>796.6</ele>
        <time>2022-05-23 14:14:18</time>
      </trkpt>
      <trkpt lat="41.9977" lon="0.73697">
        <ele>796.6</ele>
        <time>2022-05-23 14:14:19</time>
      </trkpt>
      <trkpt lat="41.99767" lon="0.73697">
        <ele>796.8</ele>
        <time>2022-05-23 14:14:20</time>
      </trkpt>
      <trkpt lat="41.99765" lon="0.73697">
        <ele>797</ele>
        <time>2022-05-23 14:14:21</time>
      </trkpt>
      <trkpt lat="41.99763" lon="0.73697">
        <ele>797.2</ele>
        <time>2022-05-23 14:14:22</time>
      </trkpt>
      <trkpt lat="41.99761" lon="0.73697">
        <ele>797.2</ele>
        <time>2022-05-23 14:14:23</time>
      </trkpt>
      <trkpt lat="41.99758" lon="0.73697">
        <ele>797.4</ele>
        <time>2022-05-23 14:14:24</time>
      </trkpt>
      <trkpt lat="41.99756" lon="0.73698">
        <ele>797.4</ele>
        <time>2022-05-23 14:14:25</time>
      </trkpt>
      <trkpt lat="41.99753" lon="0.73698">
        <ele>797.6</ele>
        <time>2022-05-23 14:14:26</time>
      </trkpt>
      <trkpt lat="41.99751" lon="0.73698">
        <ele>797.8</ele>
        <time>2022-05-23 14:14:27</time>
      </trkpt>
      <trkpt lat="41.99749" lon="0.73698">
        <ele>797.8</ele>
        <time>2022-05-23 14:14:28</time>
      </trkpt>
      <trkpt lat="41.99747" lon="0.73699">
        <ele>798</ele>
        <time>2022-05-23 14:14:29</time>
      </trkpt>
      <trkpt lat="41.99745" lon="0.73699">
        <ele>798.2</ele>
        <time>2022-05-23 14:14:30</time>
      </trkpt>
      <trkpt lat="41.99743" lon="0.737">
        <ele>798.4</ele>
        <time>2022-05-23 14:14:31</time>
      </trkpt>
      <trkpt lat="41.99741" lon="0.737">
        <ele>798.6</ele>
        <time>2022-05-23 14:14:32</time>
      </trkpt>
      <trkpt lat="41.99739" lon="0.73701">
        <ele>798.8</ele>
        <time>2022-05-23 14:14:33</time>
      </trkpt>
      <trkpt lat="41.99737" lon="0.73702">
        <ele>798.8</ele>
        <time>2022-05-23 14:14:34</time>
      </trkpt>
      <trkpt lat="41.99734" lon="0.73703">
        <ele>799</ele>
        <time>2022-05-23 14:14:35</time>
      </trkpt>
      <trkpt lat="41.99733" lon="0.73704">
        <ele>799.2</ele>
        <time>2022-05-23 14:14:36</time>
      </trkpt>
      <trkpt lat="41.9973" lon="0.73704">
        <ele>799.2</ele>
        <time>2022-05-23 14:14:37</time>
      </trkpt>
      <trkpt lat="41.99728" lon="0.73705">
        <ele>799.4</ele>
        <time>2022-05-23 14:14:38</time>
      </trkpt>
      <trkpt lat="41.99726" lon="0.73706">
        <ele>799.4</ele>
        <time>2022-05-23 14:14:39</time>
      </trkpt>
      <trkpt lat="41.99724" lon="0.73707">
        <ele>799.6</ele>
        <time>2022-05-23 14:14:40</time>
      </trkpt>
      <trkpt lat="41.99722" lon="0.73707">
        <ele>799.6</ele>
        <time>2022-05-23 14:14:41</time>
      </trkpt>
      <trkpt lat="41.9972" lon="0.73708">
        <ele>799.8</ele>
        <time>2022-05-23 14:14:42</time>
      </trkpt>
      <trkpt lat="41.99718" lon="0.73708">
        <ele>800</ele>
        <time>2022-05-23 14:14:43</time>
      </trkpt>
      <trkpt lat="41.99716" lon="0.73709">
        <ele>800.2</ele>
        <time>2022-05-23 14:14:44</time>
      </trkpt>
      <trkpt lat="41.99714" lon="0.7371">
        <ele>800.4</ele>
        <time>2022-05-23 14:14:45</time>
      </trkpt>
      <trkpt lat="41.99712" lon="0.73711">
        <ele>800.6</ele>
        <time>2022-05-23 14:14:46</time>
      </trkpt>
      <trkpt lat="41.9971" lon="0.73712">
        <ele>800.6</ele>
        <time>2022-05-23 14:14:47</time>
      </trkpt>
      <trkpt lat="41.99708" lon="0.73713">
        <ele>800.8</ele>
        <time>2022-05-23 14:14:48</time>
      </trkpt>
      <trkpt lat="41.99706" lon="0.73714">
        <ele>801</ele>
        <time>2022-05-23 14:14:49</time>
      </trkpt>
      <trkpt lat="41.99704" lon="0.73715">
        <ele>801</ele>
        <time>2022-05-23 14:14:50</time>
      </trkpt>
      <trkpt lat="41.99703" lon="0.73716">
        <ele>801.2</ele>
        <time>2022-05-23 14:14:51</time>
      </trkpt>
      <trkpt lat="41.99701" lon="0.73717">
        <ele>801.4</ele>
        <time>2022-05-23 14:14:52</time>
      </trkpt>
      <trkpt lat="41.99699" lon="0.73719">
        <ele>801.6</ele>
        <time>2022-05-23 14:14:53</time>
      </trkpt>
      <trkpt lat="41.99697" lon="0.7372">
        <ele>801.8</ele>
        <time>2022-05-23 14:14:54</time>
      </trkpt>
      <trkpt lat="41.99696" lon="0.73721">
        <ele>802</ele>
        <time>2022-05-23 14:14:55</time>
      </trkpt>
      <trkpt lat="41.99694" lon="0.73722">
        <ele>802</ele>
        <time>2022-05-23 14:14:56</time>
      </trkpt>
      <trkpt lat="41.99692" lon="0.73723">
        <ele>802.2</ele>
        <time>2022-05-23 14:14:57</time>
      </trkpt>
      <trkpt lat="41.9969" lon="0.73724">
        <ele>802.4</ele>
        <time>2022-05-23 14:14:58</time>
      </trkpt>
      <trkpt lat="41.99689" lon="0.73725">
        <ele>802.6</ele>
        <time>2022-05-23 14:14:59</time>
      </trkpt>
      <trkpt lat="41.99687" lon="0.73727">
        <ele>802.6</ele>
        <time>2022-05-23 14:15:00</time>
      </trkpt>
      <trkpt lat="41.99685" lon="0.73728">
        <ele>802.8</ele>
        <time>2022-05-23 14:15:01</time>
      </trkpt>
      <trkpt lat="41.99684" lon="0.7373">
        <ele>802.8</ele>
        <time>2022-05-23 14:15:02</time>
      </trkpt>
      <trkpt lat="41.99682" lon="0.73731">
        <ele>803</ele>
        <time>2022-05-23 14:15:03</time>
      </trkpt>
      <trkpt lat="41.9968" lon="0.73732">
        <ele>803.2</ele>
        <time>2022-05-23 14:15:04</time>
      </trkpt>
      <trkpt lat="41.99679" lon="0.73734">
        <ele>803.4</ele>
        <time>2022-05-23 14:15:05</time>
      </trkpt>
      <trkpt lat="41.99677" lon="0.73735">
        <ele>803.4</ele>
        <time>2022-05-23 14:15:06</time>
      </trkpt>
      <trkpt lat="41.99675" lon="0.73736">
        <ele>803.6</ele>
        <time>2022-05-23 14:15:07</time>
      </trkpt>
      <trkpt lat="41.99674" lon="0.73738">
        <ele>803.8</ele>
        <time>2022-05-23 14:15:08</time>
      </trkpt>
      <trkpt lat="41.99672" lon="0.7374">
        <ele>803.8</ele>
        <time>2022-05-23 14:15:09</time>
      </trkpt>
      <trkpt lat="41.99671" lon="0.73741">
        <ele>804</ele>
        <time>2022-05-23 14:15:10</time>
      </trkpt>
      <trkpt lat="41.9967" lon="0.73743">
        <ele>804</ele>
        <time>2022-05-23 14:15:11</time>
      </trkpt>
      <trkpt lat="41.99668" lon="0.73745">
        <ele>804.2</ele>
        <time>2022-05-23 14:15:12</time>
      </trkpt>
      <trkpt lat="41.99667" lon="0.73747">
        <ele>804.2</ele>
        <time>2022-05-23 14:15:13</time>
      </trkpt>
      <trkpt lat="41.99665" lon="0.73749">
        <ele>804.4</ele>
        <time>2022-05-23 14:15:14</time>
      </trkpt>
      <trkpt lat="41.99664" lon="0.7375">
        <ele>804.6</ele>
        <time>2022-05-23 14:15:15</time>
      </trkpt>
      <trkpt lat="41.99662" lon="0.73752">
        <ele>804.8</ele>
        <time>2022-05-23 14:15:16</time>
      </trkpt>
      <trkpt lat="41.99661" lon="0.73754">
        <ele>805</ele>
        <time>2022-05-23 14:15:17</time>
      </trkpt>
      <trkpt lat="41.99659" lon="0.73756">
        <ele>805.2</ele>
        <time>2022-05-23 14:15:18</time>
      </trkpt>
      <trkpt lat="41.99658" lon="0.73757">
        <ele>805.4</ele>
        <time>2022-05-23 14:15:19</time>
      </trkpt>
      <trkpt lat="41.99657" lon="0.73759">
        <ele>805.4</ele>
        <time>2022-05-23 14:15:20</time>
      </trkpt>
      <trkpt lat="41.99655" lon="0.73761">
        <ele>805.6</ele>
        <time>2022-05-23 14:15:21</time>
      </trkpt>
      <trkpt lat="41.99654" lon="0.73763">
        <ele>805.6</ele>
        <time>2022-05-23 14:15:22</time>
      </trkpt>
      <trkpt lat="41.99652" lon="0.73765">
        <ele>805.8</ele>
        <time>2022-05-23 14:15:23</time>
      </trkpt>
      <trkpt lat="41.99651" lon="0.73767">
        <ele>805.8</ele>
        <time>2022-05-23 14:15:24</time>
      </trkpt>
      <trkpt lat="41.99649" lon="0.73769">
        <ele>806</ele>
        <time>2022-05-23 14:15:25</time>
      </trkpt>
      <trkpt lat="41.99648" lon="0.73771">
        <ele>806.2</ele>
        <time>2022-05-23 14:15:26</time>
      </trkpt>
      <trkpt lat="41.99646" lon="0.73773">
        <ele>806.4</ele>
        <time>2022-05-23 14:15:27</time>
      </trkpt>
      <trkpt lat="41.99645" lon="0.73776">
        <ele>806.6</ele>
        <time>2022-05-23 14:15:28</time>
      </trkpt>
      <trkpt lat="41.99644" lon="0.73778">
        <ele>806.8</ele>
        <time>2022-05-23 14:15:29</time>
      </trkpt>
      <trkpt lat="41.99643" lon="0.7378">
        <ele>807</ele>
        <time>2022-05-23 14:15:30</time>
      </trkpt>
      <trkpt lat="41.99642" lon="0.73782">
        <ele>807</ele>
        <time>2022-05-23 14:15:31</time>
      </trkpt>
      <trkpt lat="41.99641" lon="0.73785">
        <ele>807.2</ele>
        <time>2022-05-23 14:15:32</time>
      </trkpt>
      <trkpt lat="41.9964" lon="0.73787">
        <ele>807.4</ele>
        <time>2022-05-23 14:15:33</time>
      </trkpt>
      <trkpt lat="41.99639" lon="0.73789">
        <ele>807.4</ele>
        <time>2022-05-23 14:15:34</time>
      </trkpt>
      <trkpt lat="41.99638" lon="0.73792">
        <ele>807.6</ele>
        <time>2022-05-23 14:15:35</time>
      </trkpt>
      <trkpt lat="41.99636" lon="0.73796">
        <ele>807.8</ele>
        <time>2022-05-23 14:15:36</time>
      </trkpt>
      <trkpt lat="41.99635" lon="0.73799">
        <ele>808</ele>
        <time>2022-05-23 14:15:37</time>
      </trkpt>
      <trkpt lat="41.99634" lon="0.73802">
        <ele>808.2</ele>
        <time>2022-05-23 14:15:38</time>
      </trkpt>
      <trkpt lat="41.99633" lon="0.73804">
        <ele>808.4</ele>
        <time>2022-05-23 14:15:39</time>
      </trkpt>
      <trkpt lat="41.99632" lon="0.73806">
        <ele>808.6</ele>
        <time>2022-05-23 14:15:40</time>
      </trkpt>
      <trkpt lat="41.99632" lon="0.73808">
        <ele>808.8</ele>
        <time>2022-05-23 14:15:41</time>
      </trkpt>
      <trkpt lat="41.99631" lon="0.7381">
        <ele>808.8</ele>
        <time>2022-05-23 14:15:42</time>
      </trkpt>
      <trkpt lat="41.99631" lon="0.73813">
        <ele>809</ele>
        <time>2022-05-23 14:15:43</time>
      </trkpt>
      <trkpt lat="41.9963" lon="0.73815">
        <ele>809</ele>
        <time>2022-05-23 14:15:44</time>
      </trkpt>
      <trkpt lat="41.99629" lon="0.73818">
        <ele>809</ele>
        <time>2022-05-23 14:15:45</time>
      </trkpt>
      <trkpt lat="41.99629" lon="0.7382">
        <ele>809</ele>
        <time>2022-05-23 14:15:46</time>
      </trkpt>
      <trkpt lat="41.99628" lon="0.73822">
        <ele>809.2</ele>
        <time>2022-05-23 14:15:47</time>
      </trkpt>
      <trkpt lat="41.99628" lon="0.73824">
        <ele>809.4</ele>
        <time>2022-05-23 14:15:48</time>
      </trkpt>
      <trkpt lat="41.99627" lon="0.73827">
        <ele>809.4</ele>
        <time>2022-05-23 14:15:49</time>
      </trkpt>
      <trkpt lat="41.99627" lon="0.73829">
        <ele>809.6</ele>
        <time>2022-05-23 14:15:50</time>
      </trkpt>
      <trkpt lat="41.99626" lon="0.73831">
        <ele>809.8</ele>
        <time>2022-05-23 14:15:51</time>
      </trkpt>
      <trkpt lat="41.99625" lon="0.73833">
        <ele>810</ele>
        <time>2022-05-23 14:15:52</time>
      </trkpt>
      <trkpt lat="41.99624" lon="0.73836">
        <ele>810</ele>
        <time>2022-05-23 14:15:53</time>
      </trkpt>
      <trkpt lat="41.99623" lon="0.73838">
        <ele>810.2</ele>
        <time>2022-05-23 14:15:54</time>
      </trkpt>
      <trkpt lat="41.99622" lon="0.7384">
        <ele>810.2</ele>
        <time>2022-05-23 14:15:55</time>
      </trkpt>
      <trkpt lat="41.99622" lon="0.73843">
        <ele>810.4</ele>
        <time>2022-05-23 14:15:56</time>
      </trkpt>
      <trkpt lat="41.99621" lon="0.73845">
        <ele>810.6</ele>
        <time>2022-05-23 14:15:57</time>
      </trkpt>
      <trkpt lat="41.9962" lon="0.73847">
        <ele>810.8</ele>
        <time>2022-05-23 14:15:58</time>
      </trkpt>
      <trkpt lat="41.9962" lon="0.7385">
        <ele>811</ele>
        <time>2022-05-23 14:15:59</time>
      </trkpt>
      <trkpt lat="41.99619" lon="0.73852">
        <ele>811.2</ele>
        <time>2022-05-23 14:16:00</time>
      </trkpt>
      <trkpt lat="41.99618" lon="0.73855">
        <ele>811.2</ele>
        <time>2022-05-23 14:16:01</time>
      </trkpt>
      <trkpt lat="41.99618" lon="0.73858">
        <ele>811.4</ele>
        <time>2022-05-23 14:16:02</time>
      </trkpt>
      <trkpt lat="41.99617" lon="0.7386">
        <ele>811.6</ele>
        <time>2022-05-23 14:16:03</time>
      </trkpt>
      <trkpt lat="41.99617" lon="0.73863">
        <ele>811.6</ele>
        <time>2022-05-23 14:16:04</time>
      </trkpt>
      <trkpt lat="41.99616" lon="0.73865">
        <ele>811.8</ele>
        <time>2022-05-23 14:16:05</time>
      </trkpt>
      <trkpt lat="41.99615" lon="0.73868">
        <ele>811.8</ele>
        <time>2022-05-23 14:16:06</time>
      </trkpt>
      <trkpt lat="41.99615" lon="0.7387">
        <ele>812</ele>
        <time>2022-05-23 14:16:07</time>
      </trkpt>
      <trkpt lat="41.99614" lon="0.73872">
        <ele>812</ele>
        <time>2022-05-23 14:16:08</time>
      </trkpt>
      <trkpt lat="41.99614" lon="0.73875">
        <ele>812.2</ele>
        <time>2022-05-23 14:16:09</time>
      </trkpt>
      <trkpt lat="41.99614" lon="0.73878">
        <ele>812.2</ele>
        <time>2022-05-23 14:16:10</time>
      </trkpt>
      <trkpt lat="41.99614" lon="0.7388">
        <ele>812.4</ele>
        <time>2022-05-23 14:16:11</time>
      </trkpt>
      <trkpt lat="41.99613" lon="0.73883">
        <ele>812.4</ele>
        <time>2022-05-23 14:16:12</time>
      </trkpt>
      <trkpt lat="41.99613" lon="0.73885">
        <ele>812.6</ele>
        <time>2022-05-23 14:16:13</time>
      </trkpt>
      <trkpt lat="41.99612" lon="0.73888">
        <ele>812.6</ele>
        <time>2022-05-23 14:16:14</time>
      </trkpt>
      <trkpt lat="41.99612" lon="0.7389">
        <ele>812.8</ele>
        <time>2022-05-23 14:16:15</time>
      </trkpt>
      <trkpt lat="41.99611" lon="0.73893">
        <ele>812.8</ele>
        <time>2022-05-23 14:16:16</time>
      </trkpt>
      <trkpt lat="41.99611" lon="0.73895">
        <ele>812.8</ele>
        <time>2022-05-23 14:16:17</time>
      </trkpt>
      <trkpt lat="41.9961" lon="0.73898">
        <ele>813</ele>
        <time>2022-05-23 14:16:18</time>
      </trkpt>
      <trkpt lat="41.9961" lon="0.739">
        <ele>813</ele>
        <time>2022-05-23 14:16:19</time>
      </trkpt>
      <trkpt lat="41.99609" lon="0.73903">
        <ele>813.2</ele>
        <time>2022-05-23 14:16:20</time>
      </trkpt>
      <trkpt lat="41.99609" lon="0.73906">
        <ele>813.2</ele>
        <time>2022-05-23 14:16:21</time>
      </trkpt>
      <trkpt lat="41.99609" lon="0.73908">
        <ele>813.4</ele>
        <time>2022-05-23 14:16:22</time>
      </trkpt>
      <trkpt lat="41.99608" lon="0.73911">
        <ele>813.6</ele>
        <time>2022-05-23 14:16:23</time>
      </trkpt>
      <trkpt lat="41.99607" lon="0.73913">
        <ele>813.8</ele>
        <time>2022-05-23 14:16:24</time>
      </trkpt>
      <trkpt lat="41.99607" lon="0.73916">
        <ele>813.8</ele>
        <time>2022-05-23 14:16:25</time>
      </trkpt>
      <trkpt lat="41.99607" lon="0.73918">
        <ele>814</ele>
        <time>2022-05-23 14:16:26</time>
      </trkpt>
      <trkpt lat="41.99606" lon="0.73921">
        <ele>814.2</ele>
        <time>2022-05-23 14:16:27</time>
      </trkpt>
      <trkpt lat="41.99606" lon="0.73923">
        <ele>814.4</ele>
        <time>2022-05-23 14:16:28</time>
      </trkpt>
      <trkpt lat="41.99606" lon="0.73925">
        <ele>814.6</ele>
        <time>2022-05-23 14:16:29</time>
      </trkpt>
      <trkpt lat="41.99605" lon="0.73928">
        <ele>814.6</ele>
        <time>2022-05-23 14:16:30</time>
      </trkpt>
      <trkpt lat="41.99605" lon="0.7393">
        <ele>814.8</ele>
        <time>2022-05-23 14:16:31</time>
      </trkpt>
      <trkpt lat="41.99605" lon="0.73932">
        <ele>814.8</ele>
        <time>2022-05-23 14:16:32</time>
      </trkpt>
      <trkpt lat="41.99605" lon="0.73935">
        <ele>815</ele>
        <time>2022-05-23 14:16:33</time>
      </trkpt>
      <trkpt lat="41.99604" lon="0.73937">
        <ele>815</ele>
        <time>2022-05-23 14:16:34</time>
      </trkpt>
      <trkpt lat="41.99604" lon="0.73939">
        <ele>815.2</ele>
        <time>2022-05-23 14:16:35</time>
      </trkpt>
      <trkpt lat="41.99603" lon="0.73942">
        <ele>815.2</ele>
        <time>2022-05-23 14:16:36</time>
      </trkpt>
      <trkpt lat="41.99602" lon="0.73944">
        <ele>815.4</ele>
        <time>2022-05-23 14:16:37</time>
      </trkpt>
      <trkpt lat="41.99602" lon="0.73947">
        <ele>815.6</ele>
        <time>2022-05-23 14:16:38</time>
      </trkpt>
      <trkpt lat="41.99601" lon="0.73949">
        <ele>815.6</ele>
        <time>2022-05-23 14:16:39</time>
      </trkpt>
      <trkpt lat="41.99601" lon="0.73952">
        <ele>815.8</ele>
        <time>2022-05-23 14:16:40</time>
      </trkpt>
      <trkpt lat="41.996" lon="0.73954">
        <ele>815.8</ele>
        <time>2022-05-23 14:16:41</time>
      </trkpt>
      <trkpt lat="41.99599" lon="0.73956">
        <ele>816</ele>
        <time>2022-05-23 14:16:42</time>
      </trkpt>
      <trkpt lat="41.99599" lon="0.73959">
        <ele>816.2</ele>
        <time>2022-05-23 14:16:43</time>
      </trkpt>
      <trkpt lat="41.99598" lon="0.73961">
        <ele>816.4</ele>
        <time>2022-05-23 14:16:44</time>
      </trkpt>
      <trkpt lat="41.99597" lon="0.73963">
        <ele>816.6</ele>
        <time>2022-05-23 14:16:45</time>
      </trkpt>
      <trkpt lat="41.99597" lon="0.73966">
        <ele>816.6</ele>
        <time>2022-05-23 14:16:46</time>
      </trkpt>
      <trkpt lat="41.99596" lon="0.73968">
        <ele>816.8</ele>
        <time>2022-05-23 14:16:47</time>
      </trkpt>
      <trkpt lat="41.99596" lon="0.7397">
        <ele>817</ele>
        <time>2022-05-23 14:16:48</time>
      </trkpt>
      <trkpt lat="41.99595" lon="0.73973">
        <ele>817</ele>
        <time>2022-05-23 14:16:49</time>
      </trkpt>
      <trkpt lat="41.99594" lon="0.73975">
        <ele>817.2</ele>
        <time>2022-05-23 14:16:50</time>
      </trkpt>
      <trkpt lat="41.99594" lon="0.73977">
        <ele>817.4</ele>
        <time>2022-05-23 14:16:51</time>
      </trkpt>
      <trkpt lat="41.99593" lon="0.7398">
        <ele>817.4</ele>
        <time>2022-05-23 14:16:52</time>
      </trkpt>
      <trkpt lat="41.99592" lon="0.73982">
        <ele>817.6</ele>
        <time>2022-05-23 14:16:53</time>
      </trkpt>
      <trkpt lat="41.99591" lon="0.73984">
        <ele>817.6</ele>
        <time>2022-05-23 14:16:54</time>
      </trkpt>
      <trkpt lat="41.99591" lon="0.73987">
        <ele>817.8</ele>
        <time>2022-05-23 14:16:55</time>
      </trkpt>
      <trkpt lat="41.9959" lon="0.73989">
        <ele>818</ele>
        <time>2022-05-23 14:16:56</time>
      </trkpt>
      <trkpt lat="41.99589" lon="0.73992">
        <ele>818</ele>
        <time>2022-05-23 14:16:57</time>
      </trkpt>
      <trkpt lat="41.99588" lon="0.73994">
        <ele>818.2</ele>
        <time>2022-05-23 14:16:58</time>
      </trkpt>
      <trkpt lat="41.99587" lon="0.73996">
        <ele>818.4</ele>
        <time>2022-05-23 14:16:59</time>
      </trkpt>
      <trkpt lat="41.99586" lon="0.73998">
        <ele>818.6</ele>
        <time>2022-05-23 14:17:00</time>
      </trkpt>
      <trkpt lat="41.99585" lon="0.74001">
        <ele>818.8</ele>
        <time>2022-05-23 14:17:01</time>
      </trkpt>
      <trkpt lat="41.99583" lon="0.74003">
        <ele>818.8</ele>
        <time>2022-05-23 14:17:02</time>
      </trkpt>
      <trkpt lat="41.99583" lon="0.74005">
        <ele>819</ele>
        <time>2022-05-23 14:17:03</time>
      </trkpt>
      <trkpt lat="41.99581" lon="0.74008">
        <ele>819</ele>
        <time>2022-05-23 14:17:04</time>
      </trkpt>
      <trkpt lat="41.9958" lon="0.7401">
        <ele>819.2</ele>
        <time>2022-05-23 14:17:05</time>
      </trkpt>
      <trkpt lat="41.9958" lon="0.74013">
        <ele>819.4</ele>
        <time>2022-05-23 14:17:06</time>
      </trkpt>
      <trkpt lat="41.99578" lon="0.74015">
        <ele>819.6</ele>
        <time>2022-05-23 14:17:07</time>
      </trkpt>
      <trkpt lat="41.99578" lon="0.74018">
        <ele>819.8</ele>
        <time>2022-05-23 14:17:08</time>
      </trkpt>
      <trkpt lat="41.99577" lon="0.74021">
        <ele>819.8</ele>
        <time>2022-05-23 14:17:09</time>
      </trkpt>
      <trkpt lat="41.99575" lon="0.74023">
        <ele>820</ele>
        <time>2022-05-23 14:17:10</time>
      </trkpt>
      <trkpt lat="41.99574" lon="0.74025">
        <ele>820.2</ele>
        <time>2022-05-23 14:17:11</time>
      </trkpt>
      <trkpt lat="41.99573" lon="0.74028">
        <ele>820.4</ele>
        <time>2022-05-23 14:17:12</time>
      </trkpt>
      <trkpt lat="41.99572" lon="0.74031">
        <ele>820.6</ele>
        <time>2022-05-23 14:17:13</time>
      </trkpt>
      <trkpt lat="41.9957" lon="0.74033">
        <ele>820.8</ele>
        <time>2022-05-23 14:17:14</time>
      </trkpt>
      <trkpt lat="41.99569" lon="0.74035">
        <ele>821</ele>
        <time>2022-05-23 14:17:15</time>
      </trkpt>
      <trkpt lat="41.99567" lon="0.74037">
        <ele>821.2</ele>
        <time>2022-05-23 14:17:16</time>
      </trkpt>
      <trkpt lat="41.99566" lon="0.74039">
        <ele>821.2</ele>
        <time>2022-05-23 14:17:17</time>
      </trkpt>
      <trkpt lat="41.99564" lon="0.74042">
        <ele>821.4</ele>
        <time>2022-05-23 14:17:18</time>
      </trkpt>
      <trkpt lat="41.99563" lon="0.74044">
        <ele>821.6</ele>
        <time>2022-05-23 14:17:19</time>
      </trkpt>
      <trkpt lat="41.99562" lon="0.74046">
        <ele>821.8</ele>
        <time>2022-05-23 14:17:20</time>
      </trkpt>
      <trkpt lat="41.9956" lon="0.74048">
        <ele>822</ele>
        <time>2022-05-23 14:17:21</time>
      </trkpt>
      <trkpt lat="41.99559" lon="0.74051">
        <ele>822.2</ele>
        <time>2022-05-23 14:17:22</time>
      </trkpt>
      <trkpt lat="41.99558" lon="0.74053">
        <ele>822.4</ele>
        <time>2022-05-23 14:17:23</time>
      </trkpt>
      <trkpt lat="41.99557" lon="0.74055">
        <ele>822.6</ele>
        <time>2022-05-23 14:17:24</time>
      </trkpt>
      <trkpt lat="41.99555" lon="0.74057">
        <ele>822.8</ele>
        <time>2022-05-23 14:17:25</time>
      </trkpt>
      <trkpt lat="41.99554" lon="0.74059">
        <ele>823</ele>
        <time>2022-05-23 14:17:26</time>
      </trkpt>
      <trkpt lat="41.99552" lon="0.74061">
        <ele>823</ele>
        <time>2022-05-23 14:17:27</time>
      </trkpt>
      <trkpt lat="41.99551" lon="0.74063">
        <ele>823.2</ele>
        <time>2022-05-23 14:17:28</time>
      </trkpt>
      <trkpt lat="41.9955" lon="0.74064">
        <ele>823.2</ele>
        <time>2022-05-23 14:17:29</time>
      </trkpt>
      <trkpt lat="41.99549" lon="0.74066">
        <ele>823.4</ele>
        <time>2022-05-23 14:17:30</time>
      </trkpt>
      <trkpt lat="41.99547" lon="0.7407">
        <ele>823.6</ele>
        <time>2022-05-23 14:17:31</time>
      </trkpt>
      <trkpt lat="41.99546" lon="0.74071">
        <ele>823.6</ele>
        <time>2022-05-23 14:17:32</time>
      </trkpt>
      <trkpt lat="41.99544" lon="0.74073">
        <ele>823.8</ele>
        <time>2022-05-23 14:17:33</time>
      </trkpt>
      <trkpt lat="41.99543" lon="0.74075">
        <ele>823.8</ele>
        <time>2022-05-23 14:17:34</time>
      </trkpt>
      <trkpt lat="41.99541" lon="0.74077">
        <ele>824</ele>
        <time>2022-05-23 14:17:35</time>
      </trkpt>
      <trkpt lat="41.9954" lon="0.74078">
        <ele>824.2</ele>
        <time>2022-05-23 14:17:36</time>
      </trkpt>
      <trkpt lat="41.99538" lon="0.7408">
        <ele>824.4</ele>
        <time>2022-05-23 14:17:37</time>
      </trkpt>
      <trkpt lat="41.99536" lon="0.74082">
        <ele>824.6</ele>
        <time>2022-05-23 14:17:38</time>
      </trkpt>
      <trkpt lat="41.99535" lon="0.74084">
        <ele>824.8</ele>
        <time>2022-05-23 14:17:39</time>
      </trkpt>
      <trkpt lat="41.99533" lon="0.74085">
        <ele>825</ele>
        <time>2022-05-23 14:17:40</time>
      </trkpt>
      <trkpt lat="41.99531" lon="0.74087">
        <ele>825.2</ele>
        <time>2022-05-23 14:17:41</time>
      </trkpt>
      <trkpt lat="41.9953" lon="0.74088">
        <ele>825.2</ele>
        <time>2022-05-23 14:17:42</time>
      </trkpt>
      <trkpt lat="41.99528" lon="0.7409">
        <ele>825.4</ele>
        <time>2022-05-23 14:17:43</time>
      </trkpt>
      <trkpt lat="41.99527" lon="0.74091">
        <ele>825.6</ele>
        <time>2022-05-23 14:17:44</time>
      </trkpt>
      <trkpt lat="41.99525" lon="0.74093">
        <ele>825.8</ele>
        <time>2022-05-23 14:17:45</time>
      </trkpt>
      <trkpt lat="41.99523" lon="0.74095">
        <ele>825.8</ele>
        <time>2022-05-23 14:17:46</time>
      </trkpt>
      <trkpt lat="41.99522" lon="0.74096">
        <ele>826</ele>
        <time>2022-05-23 14:17:47</time>
      </trkpt>
      <trkpt lat="41.9952" lon="0.74098">
        <ele>826.2</ele>
        <time>2022-05-23 14:17:48</time>
      </trkpt>
      <trkpt lat="41.99518" lon="0.74099">
        <ele>826.4</ele>
        <time>2022-05-23 14:17:49</time>
      </trkpt>
      <trkpt lat="41.99517" lon="0.74101">
        <ele>826.6</ele>
        <time>2022-05-23 14:17:50</time>
      </trkpt>
      <trkpt lat="41.99515" lon="0.74103">
        <ele>826.8</ele>
        <time>2022-05-23 14:17:51</time>
      </trkpt>
      <trkpt lat="41.99513" lon="0.74104">
        <ele>826.8</ele>
        <time>2022-05-23 14:17:52</time>
      </trkpt>
      <trkpt lat="41.99511" lon="0.74106">
        <ele>827</ele>
        <time>2022-05-23 14:17:53</time>
      </trkpt>
      <trkpt lat="41.99509" lon="0.74107">
        <ele>827</ele>
        <time>2022-05-23 14:17:54</time>
      </trkpt>
      <trkpt lat="41.99507" lon="0.74109">
        <ele>827.2</ele>
        <time>2022-05-23 14:17:55</time>
      </trkpt>
      <trkpt lat="41.99505" lon="0.7411">
        <ele>827.2</ele>
        <time>2022-05-23 14:17:56</time>
      </trkpt>
      <trkpt lat="41.99503" lon="0.74111">
        <ele>827.4</ele>
        <time>2022-05-23 14:17:57</time>
      </trkpt>
      <trkpt lat="41.99502" lon="0.74112">
        <ele>827.4</ele>
        <time>2022-05-23 14:17:58</time>
      </trkpt>
      <trkpt lat="41.995" lon="0.74114">
        <ele>827.4</ele>
        <time>2022-05-23 14:17:59</time>
      </trkpt>
      <trkpt lat="41.99498" lon="0.74115">
        <ele>827.6</ele>
        <time>2022-05-23 14:18:00</time>
      </trkpt>
      <trkpt lat="41.99496" lon="0.74117">
        <ele>827.6</ele>
        <time>2022-05-23 14:18:01</time>
      </trkpt>
      <trkpt lat="41.99494" lon="0.74118">
        <ele>827.8</ele>
        <time>2022-05-23 14:18:02</time>
      </trkpt>
      <trkpt lat="41.99493" lon="0.74119">
        <ele>827.8</ele>
        <time>2022-05-23 14:18:03</time>
      </trkpt>
      <trkpt lat="41.99491" lon="0.7412">
        <ele>828</ele>
        <time>2022-05-23 14:18:04</time>
      </trkpt>
      <trkpt lat="41.99489" lon="0.74121">
        <ele>828.2</ele>
        <time>2022-05-23 14:18:05</time>
      </trkpt>
      <trkpt lat="41.99487" lon="0.74122">
        <ele>828.4</ele>
        <time>2022-05-23 14:18:06</time>
      </trkpt>
      <trkpt lat="41.99485" lon="0.74124">
        <ele>828.6</ele>
        <time>2022-05-23 14:18:07</time>
      </trkpt>
      <trkpt lat="41.99483" lon="0.74125">
        <ele>828.6</ele>
        <time>2022-05-23 14:18:08</time>
      </trkpt>
      <trkpt lat="41.99481" lon="0.74126">
        <ele>828.8</ele>
        <time>2022-05-23 14:18:09</time>
      </trkpt>
      <trkpt lat="41.99479" lon="0.74127">
        <ele>829</ele>
        <time>2022-05-23 14:18:10</time>
      </trkpt>
      <trkpt lat="41.99477" lon="0.74128">
        <ele>829.2</ele>
        <time>2022-05-23 14:18:11</time>
      </trkpt>
      <trkpt lat="41.99474" lon="0.74129">
        <ele>829.4</ele>
        <time>2022-05-23 14:18:12</time>
      </trkpt>
      <trkpt lat="41.99472" lon="0.7413">
        <ele>829.4</ele>
        <time>2022-05-23 14:18:13</time>
      </trkpt>
      <trkpt lat="41.9947" lon="0.74131">
        <ele>829.6</ele>
        <time>2022-05-23 14:18:14</time>
      </trkpt>
      <trkpt lat="41.99467" lon="0.74132">
        <ele>829.8</ele>
        <time>2022-05-23 14:18:15</time>
      </trkpt>
      <trkpt lat="41.99465" lon="0.74133">
        <ele>829.8</ele>
        <time>2022-05-23 14:18:16</time>
      </trkpt>
      <trkpt lat="41.99463" lon="0.74134">
        <ele>830</ele>
        <time>2022-05-23 14:18:17</time>
      </trkpt>
      <trkpt lat="41.9946" lon="0.74135">
        <ele>830</ele>
        <time>2022-05-23 14:18:18</time>
      </trkpt>
      <trkpt lat="41.99458" lon="0.74136">
        <ele>830.2</ele>
        <time>2022-05-23 14:18:19</time>
      </trkpt>
      <trkpt lat="41.99456" lon="0.74137">
        <ele>830.2</ele>
        <time>2022-05-23 14:18:20</time>
      </trkpt>
      <trkpt lat="41.99454" lon="0.74138">
        <ele>830.4</ele>
        <time>2022-05-23 14:18:21</time>
      </trkpt>
      <trkpt lat="41.99451" lon="0.74138">
        <ele>830.6</ele>
        <time>2022-05-23 14:18:22</time>
      </trkpt>
      <trkpt lat="41.99449" lon="0.74139">
        <ele>830.8</ele>
        <time>2022-05-23 14:18:23</time>
      </trkpt>
      <trkpt lat="41.99447" lon="0.7414">
        <ele>831.2</ele>
        <time>2022-05-23 14:18:24</time>
      </trkpt>
      <trkpt lat="41.99445" lon="0.7414">
        <ele>831.4</ele>
        <time>2022-05-23 14:18:25</time>
      </trkpt>
      <trkpt lat="41.99443" lon="0.74141">
        <ele>831.8</ele>
        <time>2022-05-23 14:18:26</time>
      </trkpt>
      <trkpt lat="41.99441" lon="0.74141">
        <ele>832</ele>
        <time>2022-05-23 14:18:27</time>
      </trkpt>
      <trkpt lat="41.99438" lon="0.74142">
        <ele>832.2</ele>
        <time>2022-05-23 14:18:28</time>
      </trkpt>
      <trkpt lat="41.99436" lon="0.74143">
        <ele>832.4</ele>
        <time>2022-05-23 14:18:29</time>
      </trkpt>
      <trkpt lat="41.99434" lon="0.74143">
        <ele>832.6</ele>
        <time>2022-05-23 14:18:30</time>
      </trkpt>
      <trkpt lat="41.99432" lon="0.74143">
        <ele>832.8</ele>
        <time>2022-05-23 14:18:31</time>
      </trkpt>
      <trkpt lat="41.9943" lon="0.74144">
        <ele>833</ele>
        <time>2022-05-23 14:18:32</time>
      </trkpt>
      <trkpt lat="41.99427" lon="0.74144">
        <ele>833.2</ele>
        <time>2022-05-23 14:18:33</time>
      </trkpt>
      <trkpt lat="41.99425" lon="0.74144">
        <ele>833.4</ele>
        <time>2022-05-23 14:18:34</time>
      </trkpt>
      <trkpt lat="41.99423" lon="0.74145">
        <ele>833.6</ele>
        <time>2022-05-23 14:18:35</time>
      </trkpt>
      <trkpt lat="41.99421" lon="0.74145">
        <ele>833.8</ele>
        <time>2022-05-23 14:18:36</time>
      </trkpt>
      <trkpt lat="41.99419" lon="0.74145">
        <ele>833.8</ele>
        <time>2022-05-23 14:18:37</time>
      </trkpt>
      <trkpt lat="41.99416" lon="0.74145">
        <ele>834</ele>
        <time>2022-05-23 14:18:38</time>
      </trkpt>
      <trkpt lat="41.99414" lon="0.74145">
        <ele>834</ele>
        <time>2022-05-23 14:18:39</time>
      </trkpt>
      <trkpt lat="41.99412" lon="0.74146">
        <ele>834.2</ele>
        <time>2022-05-23 14:18:40</time>
      </trkpt>
      <trkpt lat="41.9941" lon="0.74146">
        <ele>834.4</ele>
        <time>2022-05-23 14:18:41</time>
      </trkpt>
      <trkpt lat="41.99407" lon="0.74146">
        <ele>834.4</ele>
        <time>2022-05-23 14:18:42</time>
      </trkpt>
      <trkpt lat="41.99406" lon="0.74146">
        <ele>834.6</ele>
        <time>2022-05-23 14:18:43</time>
      </trkpt>
      <trkpt lat="41.99403" lon="0.74146">
        <ele>834.6</ele>
        <time>2022-05-23 14:18:44</time>
      </trkpt>
      <trkpt lat="41.99401" lon="0.74146">
        <ele>834.8</ele>
        <time>2022-05-23 14:18:45</time>
      </trkpt>
      <trkpt lat="41.99399" lon="0.74146">
        <ele>835</ele>
        <time>2022-05-23 14:18:46</time>
      </trkpt>
      <trkpt lat="41.99397" lon="0.74147">
        <ele>835.2</ele>
        <time>2022-05-23 14:18:47</time>
      </trkpt>
      <trkpt lat="41.99395" lon="0.74147">
        <ele>835.4</ele>
        <time>2022-05-23 14:18:48</time>
      </trkpt>
      <trkpt lat="41.99392" lon="0.74147">
        <ele>835.6</ele>
        <time>2022-05-23 14:18:49</time>
      </trkpt>
      <trkpt lat="41.9939" lon="0.74146">
        <ele>835.8</ele>
        <time>2022-05-23 14:18:50</time>
      </trkpt>
      <trkpt lat="41.99388" lon="0.74146">
        <ele>835.8</ele>
        <time>2022-05-23 14:18:51</time>
      </trkpt>
      <trkpt lat="41.99386" lon="0.74146">
        <ele>836</ele>
        <time>2022-05-23 14:18:52</time>
      </trkpt>
      <trkpt lat="41.99384" lon="0.74145">
        <ele>836</ele>
        <time>2022-05-23 14:18:53</time>
      </trkpt>
      <trkpt lat="41.99382" lon="0.74145">
        <ele>836.2</ele>
        <time>2022-05-23 14:18:54</time>
      </trkpt>
      <trkpt lat="41.99379" lon="0.74145">
        <ele>836.4</ele>
        <time>2022-05-23 14:18:55</time>
      </trkpt>
      <trkpt lat="41.99377" lon="0.74146">
        <ele>836.6</ele>
        <time>2022-05-23 14:18:56</time>
      </trkpt>
      <trkpt lat="41.99375" lon="0.74146">
        <ele>836.8</ele>
        <time>2022-05-23 14:18:57</time>
      </trkpt>
      <trkpt lat="41.99372" lon="0.74146">
        <ele>837</ele>
        <time>2022-05-23 14:18:58</time>
      </trkpt>
      <trkpt lat="41.9937" lon="0.74145">
        <ele>837.4</ele>
        <time>2022-05-23 14:18:59</time>
      </trkpt>
      <trkpt lat="41.99368" lon="0.74145">
        <ele>837.8</ele>
        <time>2022-05-23 14:19:00</time>
      </trkpt>
      <trkpt lat="41.99366" lon="0.74145">
        <ele>838.2</ele>
        <time>2022-05-23 14:19:01</time>
      </trkpt>
      <trkpt lat="41.99364" lon="0.74145">
        <ele>838.4</ele>
        <time>2022-05-23 14:19:02</time>
      </trkpt>
      <trkpt lat="41.99362" lon="0.74145">
        <ele>838.6</ele>
        <time>2022-05-23 14:19:03</time>
      </trkpt>
      <trkpt lat="41.9936" lon="0.74145">
        <ele>838.6</ele>
        <time>2022-05-23 14:19:04</time>
      </trkpt>
      <trkpt lat="41.99358" lon="0.74144">
        <ele>838.6</ele>
        <time>2022-05-23 14:19:05</time>
      </trkpt>
      <trkpt lat="41.99356" lon="0.74143">
        <ele>838.8</ele>
        <time>2022-05-23 14:19:06</time>
      </trkpt>
      <trkpt lat="41.99354" lon="0.74143">
        <ele>838.8</ele>
        <time>2022-05-23 14:19:07</time>
      </trkpt>
      <trkpt lat="41.99351" lon="0.74142">
        <ele>839</ele>
        <time>2022-05-23 14:19:08</time>
      </trkpt>
      <trkpt lat="41.99349" lon="0.74142">
        <ele>839.2</ele>
        <time>2022-05-23 14:19:09</time>
      </trkpt>
      <trkpt lat="41.99347" lon="0.74141">
        <ele>839.2</ele>
        <time>2022-05-23 14:19:10</time>
      </trkpt>
      <trkpt lat="41.99345" lon="0.74141">
        <ele>839.4</ele>
        <time>2022-05-23 14:19:11</time>
      </trkpt>
      <trkpt lat="41.99343" lon="0.7414">
        <ele>839.4</ele>
        <time>2022-05-23 14:19:12</time>
      </trkpt>
      <trkpt lat="41.99341" lon="0.7414">
        <ele>839.6</ele>
        <time>2022-05-23 14:19:13</time>
      </trkpt>
      <trkpt lat="41.99339" lon="0.7414">
        <ele>839.6</ele>
        <time>2022-05-23 14:19:14</time>
      </trkpt>
      <trkpt lat="41.99337" lon="0.7414">
        <ele>839.8</ele>
        <time>2022-05-23 14:19:15</time>
      </trkpt>
      <trkpt lat="41.99335" lon="0.74139">
        <ele>840</ele>
        <time>2022-05-23 14:19:16</time>
      </trkpt>
      <trkpt lat="41.99333" lon="0.74139">
        <ele>840.2</ele>
        <time>2022-05-23 14:19:17</time>
      </trkpt>
      <trkpt lat="41.99331" lon="0.74139">
        <ele>840.4</ele>
        <time>2022-05-23 14:19:18</time>
      </trkpt>
      <trkpt lat="41.99329" lon="0.74138">
        <ele>840.6</ele>
        <time>2022-05-23 14:19:19</time>
      </trkpt>
      <trkpt lat="41.99327" lon="0.74138">
        <ele>840.8</ele>
        <time>2022-05-23 14:19:20</time>
      </trkpt>
      <trkpt lat="41.99326" lon="0.74138">
        <ele>841</ele>
        <time>2022-05-23 14:19:21</time>
      </trkpt>
      <trkpt lat="41.99324" lon="0.74137">
        <ele>841.2</ele>
        <time>2022-05-23 14:19:22</time>
      </trkpt>
      <trkpt lat="41.99322" lon="0.74137">
        <ele>841.4</ele>
        <time>2022-05-23 14:19:23</time>
      </trkpt>
      <trkpt lat="41.9932" lon="0.74137">
        <ele>841.6</ele>
        <time>2022-05-23 14:19:24</time>
      </trkpt>
      <trkpt lat="41.99317" lon="0.74136">
        <ele>841.8</ele>
        <time>2022-05-23 14:19:25</time>
      </trkpt>
      <trkpt lat="41.99316" lon="0.74136">
        <ele>841.8</ele>
        <time>2022-05-23 14:19:26</time>
      </trkpt>
      <trkpt lat="41.99314" lon="0.74135">
        <ele>841.8</ele>
        <time>2022-05-23 14:19:27</time>
      </trkpt>
      <trkpt lat="41.99312" lon="0.74135">
        <ele>842</ele>
        <time>2022-05-23 14:19:28</time>
      </trkpt>
      <trkpt lat="41.99309" lon="0.74134">
        <ele>842</ele>
        <time>2022-05-23 14:19:29</time>
      </trkpt>
      <trkpt lat="41.99308" lon="0.74134">
        <ele>842.2</ele>
        <time>2022-05-23 14:19:30</time>
      </trkpt>
      <trkpt lat="41.99305" lon="0.74134">
        <ele>842.2</ele>
        <time>2022-05-23 14:19:31</time>
      </trkpt>
      <trkpt lat="41.99303" lon="0.74134">
        <ele>842.4</ele>
        <time>2022-05-23 14:19:32</time>
      </trkpt>
      <trkpt lat="41.99301" lon="0.74134">
        <ele>842.4</ele>
        <time>2022-05-23 14:19:33</time>
      </trkpt>
      <trkpt lat="41.99299" lon="0.74133">
        <ele>842.6</ele>
        <time>2022-05-23 14:19:34</time>
      </trkpt>
      <trkpt lat="41.99297" lon="0.74133">
        <ele>842.8</ele>
        <time>2022-05-23 14:19:35</time>
      </trkpt>
      <trkpt lat="41.99295" lon="0.74132">
        <ele>842.8</ele>
        <time>2022-05-23 14:19:36</time>
      </trkpt>
      <trkpt lat="41.99292" lon="0.74132">
        <ele>843</ele>
        <time>2022-05-23 14:19:37</time>
      </trkpt>
      <trkpt lat="41.9929" lon="0.74131">
        <ele>843</ele>
        <time>2022-05-23 14:19:38</time>
      </trkpt>
      <trkpt lat="41.99288" lon="0.74131">
        <ele>843.2</ele>
        <time>2022-05-23 14:19:39</time>
      </trkpt>
      <trkpt lat="41.99286" lon="0.7413">
        <ele>843.2</ele>
        <time>2022-05-23 14:19:40</time>
      </trkpt>
      <trkpt lat="41.99284" lon="0.7413">
        <ele>843.4</ele>
        <time>2022-05-23 14:19:41</time>
      </trkpt>
      <trkpt lat="41.99282" lon="0.74129">
        <ele>843.6</ele>
        <time>2022-05-23 14:19:42</time>
      </trkpt>
      <trkpt lat="41.9928" lon="0.74129">
        <ele>843.6</ele>
        <time>2022-05-23 14:19:43</time>
      </trkpt>
      <trkpt lat="41.99277" lon="0.74128">
        <ele>843.8</ele>
        <time>2022-05-23 14:19:44</time>
      </trkpt>
      <trkpt lat="41.99276" lon="0.74128">
        <ele>844</ele>
        <time>2022-05-23 14:19:45</time>
      </trkpt>
      <trkpt lat="41.99274" lon="0.74128">
        <ele>844.2</ele>
        <time>2022-05-23 14:19:46</time>
      </trkpt>
      <trkpt lat="41.99271" lon="0.74127">
        <ele>844.2</ele>
        <time>2022-05-23 14:19:47</time>
      </trkpt>
      <trkpt lat="41.99268" lon="0.74127">
        <ele>844.4</ele>
        <time>2022-05-23 14:19:48</time>
      </trkpt>
      <trkpt lat="41.99266" lon="0.74127">
        <ele>844.6</ele>
        <time>2022-05-23 14:19:49</time>
      </trkpt>
      <trkpt lat="41.99264" lon="0.74127">
        <ele>844.8</ele>
        <time>2022-05-23 14:19:50</time>
      </trkpt>
      <trkpt lat="41.99262" lon="0.74126">
        <ele>845</ele>
        <time>2022-05-23 14:19:51</time>
      </trkpt>
      <trkpt lat="41.99259" lon="0.74125">
        <ele>845.2</ele>
        <time>2022-05-23 14:19:52</time>
      </trkpt>
      <trkpt lat="41.99257" lon="0.74125">
        <ele>845.2</ele>
        <time>2022-05-23 14:19:53</time>
      </trkpt>
      <trkpt lat="41.99255" lon="0.74124">
        <ele>845.4</ele>
        <time>2022-05-23 14:19:54</time>
      </trkpt>
      <trkpt lat="41.99253" lon="0.74124">
        <ele>845.6</ele>
        <time>2022-05-23 14:19:55</time>
      </trkpt>
      <trkpt lat="41.99251" lon="0.74124">
        <ele>845.8</ele>
        <time>2022-05-23 14:19:56</time>
      </trkpt>
      <trkpt lat="41.99248" lon="0.74124">
        <ele>846</ele>
        <time>2022-05-23 14:19:57</time>
      </trkpt>
      <trkpt lat="41.99246" lon="0.74123">
        <ele>846</ele>
        <time>2022-05-23 14:19:58</time>
      </trkpt>
      <trkpt lat="41.99244" lon="0.74123">
        <ele>846.2</ele>
        <time>2022-05-23 14:19:59</time>
      </trkpt>
      <trkpt lat="41.99242" lon="0.74122">
        <ele>846.2</ele>
        <time>2022-05-23 14:20:00</time>
      </trkpt>
      <trkpt lat="41.99239" lon="0.74122">
        <ele>846.4</ele>
        <time>2022-05-23 14:20:01</time>
      </trkpt>
      <trkpt lat="41.99237" lon="0.74121">
        <ele>846.6</ele>
        <time>2022-05-23 14:20:02</time>
      </trkpt>
      <trkpt lat="41.99234" lon="0.74121">
        <ele>846.8</ele>
        <time>2022-05-23 14:20:03</time>
      </trkpt>
      <trkpt lat="41.99231" lon="0.7412">
        <ele>847</ele>
        <time>2022-05-23 14:20:04</time>
      </trkpt>
      <trkpt lat="41.99229" lon="0.7412">
        <ele>847.2</ele>
        <time>2022-05-23 14:20:05</time>
      </trkpt>
      <trkpt lat="41.99227" lon="0.7412">
        <ele>847.4</ele>
        <time>2022-05-23 14:20:06</time>
      </trkpt>
      <trkpt lat="41.99224" lon="0.7412">
        <ele>847.6</ele>
        <time>2022-05-23 14:20:07</time>
      </trkpt>
      <trkpt lat="41.99222" lon="0.7412">
        <ele>847.8</ele>
        <time>2022-05-23 14:20:08</time>
      </trkpt>
      <trkpt lat="41.9922" lon="0.74119">
        <ele>848</ele>
        <time>2022-05-23 14:20:09</time>
      </trkpt>
      <trkpt lat="41.99218" lon="0.74119">
        <ele>848.2</ele>
        <time>2022-05-23 14:20:10</time>
      </trkpt>
      <trkpt lat="41.99215" lon="0.74118">
        <ele>848.4</ele>
        <time>2022-05-23 14:20:11</time>
      </trkpt>
      <trkpt lat="41.99213" lon="0.74117">
        <ele>848.6</ele>
        <time>2022-05-23 14:20:12</time>
      </trkpt>
      <trkpt lat="41.99211" lon="0.74117">
        <ele>848.8</ele>
        <time>2022-05-23 14:20:13</time>
      </trkpt>
      <trkpt lat="41.99209" lon="0.74116">
        <ele>848.8</ele>
        <time>2022-05-23 14:20:14</time>
      </trkpt>
      <trkpt lat="41.99207" lon="0.74116">
        <ele>849</ele>
        <time>2022-05-23 14:20:15</time>
      </trkpt>
      <trkpt lat="41.99205" lon="0.74115">
        <ele>849.2</ele>
        <time>2022-05-23 14:20:16</time>
      </trkpt>
      <trkpt lat="41.99202" lon="0.74115">
        <ele>849.4</ele>
        <time>2022-05-23 14:20:17</time>
      </trkpt>
      <trkpt lat="41.992" lon="0.74114">
        <ele>849.6</ele>
        <time>2022-05-23 14:20:18</time>
      </trkpt>
      <trkpt lat="41.99198" lon="0.74114">
        <ele>849.6</ele>
        <time>2022-05-23 14:20:19</time>
      </trkpt>
      <trkpt lat="41.99196" lon="0.74113">
        <ele>849.8</ele>
        <time>2022-05-23 14:20:20</time>
      </trkpt>
      <trkpt lat="41.99193" lon="0.74113">
        <ele>849.8</ele>
        <time>2022-05-23 14:20:21</time>
      </trkpt>
      <trkpt lat="41.99192" lon="0.74112">
        <ele>850</ele>
        <time>2022-05-23 14:20:22</time>
      </trkpt>
      <trkpt lat="41.99189" lon="0.74112">
        <ele>850</ele>
        <time>2022-05-23 14:20:23</time>
      </trkpt>
      <trkpt lat="41.99187" lon="0.74111">
        <ele>850.2</ele>
        <time>2022-05-23 14:20:24</time>
      </trkpt>
      <trkpt lat="41.99185" lon="0.74111">
        <ele>850.2</ele>
        <time>2022-05-23 14:20:25</time>
      </trkpt>
      <trkpt lat="41.99183" lon="0.74111">
        <ele>850.4</ele>
        <time>2022-05-23 14:20:26</time>
      </trkpt>
      <trkpt lat="41.99181" lon="0.7411">
        <ele>850.6</ele>
        <time>2022-05-23 14:20:27</time>
      </trkpt>
      <trkpt lat="41.99179" lon="0.7411">
        <ele>850.8</ele>
        <time>2022-05-23 14:20:28</time>
      </trkpt>
      <trkpt lat="41.99177" lon="0.7411">
        <ele>851</ele>
        <time>2022-05-23 14:20:29</time>
      </trkpt>
      <trkpt lat="41.99174" lon="0.74109">
        <ele>851</ele>
        <time>2022-05-23 14:20:30</time>
      </trkpt>
      <trkpt lat="41.99173" lon="0.74109">
        <ele>851.2</ele>
        <time>2022-05-23 14:20:31</time>
      </trkpt>
      <trkpt lat="41.99171" lon="0.74109">
        <ele>851.4</ele>
        <time>2022-05-23 14:20:32</time>
      </trkpt>
      <trkpt lat="41.99168" lon="0.74108">
        <ele>851.6</ele>
        <time>2022-05-23 14:20:33</time>
      </trkpt>
      <trkpt lat="41.99166" lon="0.74108">
        <ele>851.6</ele>
        <time>2022-05-23 14:20:34</time>
      </trkpt>
      <trkpt lat="41.99164" lon="0.74108">
        <ele>851.8</ele>
        <time>2022-05-23 14:20:35</time>
      </trkpt>
      <trkpt lat="41.99162" lon="0.74108">
        <ele>852</ele>
        <time>2022-05-23 14:20:36</time>
      </trkpt>
      <trkpt lat="41.9916" lon="0.74107">
        <ele>852.2</ele>
        <time>2022-05-23 14:20:37</time>
      </trkpt>
      <trkpt lat="41.99158" lon="0.74107">
        <ele>852.4</ele>
        <time>2022-05-23 14:20:38</time>
      </trkpt>
      <trkpt lat="41.99156" lon="0.74106">
        <ele>852.6</ele>
        <time>2022-05-23 14:20:39</time>
      </trkpt>
      <trkpt lat="41.99154" lon="0.74106">
        <ele>852.6</ele>
        <time>2022-05-23 14:20:40</time>
      </trkpt>
      <trkpt lat="41.99152" lon="0.74106">
        <ele>852.8</ele>
        <time>2022-05-23 14:20:41</time>
      </trkpt>
      <trkpt lat="41.9915" lon="0.74106">
        <ele>853</ele>
        <time>2022-05-23 14:20:42</time>
      </trkpt>
      <trkpt lat="41.99148" lon="0.74106">
        <ele>853</ele>
        <time>2022-05-23 14:20:43</time>
      </trkpt>
      <trkpt lat="41.99145" lon="0.74106">
        <ele>853.4</ele>
        <time>2022-05-23 14:20:44</time>
      </trkpt>
      <trkpt lat="41.99143" lon="0.74106">
        <ele>853.6</ele>
        <time>2022-05-23 14:20:45</time>
      </trkpt>
      <trkpt lat="41.99141" lon="0.74106">
        <ele>853.8</ele>
        <time>2022-05-23 14:20:46</time>
      </trkpt>
      <trkpt lat="41.99139" lon="0.74105">
        <ele>854</ele>
        <time>2022-05-23 14:20:47</time>
      </trkpt>
      <trkpt lat="41.99136" lon="0.74105">
        <ele>854.2</ele>
        <time>2022-05-23 14:20:48</time>
      </trkpt>
      <trkpt lat="41.99134" lon="0.74104">
        <ele>854.4</ele>
        <time>2022-05-23 14:20:49</time>
      </trkpt>
      <trkpt lat="41.99132" lon="0.74103">
        <ele>854.6</ele>
        <time>2022-05-23 14:20:50</time>
      </trkpt>
      <trkpt lat="41.99129" lon="0.74103">
        <ele>854.6</ele>
        <time>2022-05-23 14:20:51</time>
      </trkpt>
      <trkpt lat="41.99128" lon="0.74102">
        <ele>854.8</ele>
        <time>2022-05-23 14:20:52</time>
      </trkpt>
      <trkpt lat="41.99125" lon="0.74102">
        <ele>855</ele>
        <time>2022-05-23 14:20:53</time>
      </trkpt>
      <trkpt lat="41.99123" lon="0.74102">
        <ele>855</ele>
        <time>2022-05-23 14:20:54</time>
      </trkpt>
      <trkpt lat="41.99121" lon="0.74101">
        <ele>855.2</ele>
        <time>2022-05-23 14:20:55</time>
      </trkpt>
      <trkpt lat="41.99118" lon="0.74101">
        <ele>855.4</ele>
        <time>2022-05-23 14:20:56</time>
      </trkpt>
      <trkpt lat="41.99116" lon="0.741">
        <ele>855.6</ele>
        <time>2022-05-23 14:20:57</time>
      </trkpt>
      <trkpt lat="41.99114" lon="0.74099">
        <ele>855.8</ele>
        <time>2022-05-23 14:20:58</time>
      </trkpt>
      <trkpt lat="41.99112" lon="0.74099">
        <ele>856</ele>
        <time>2022-05-23 14:20:59</time>
      </trkpt>
      <trkpt lat="41.99109" lon="0.74098">
        <ele>856.2</ele>
        <time>2022-05-23 14:21:00</time>
      </trkpt>
      <trkpt lat="41.99107" lon="0.74098">
        <ele>856.4</ele>
        <time>2022-05-23 14:21:01</time>
      </trkpt>
      <trkpt lat="41.99105" lon="0.74097">
        <ele>856.4</ele>
        <time>2022-05-23 14:21:02</time>
      </trkpt>
      <trkpt lat="41.99102" lon="0.74097">
        <ele>856.6</ele>
        <time>2022-05-23 14:21:03</time>
      </trkpt>
      <trkpt lat="41.991" lon="0.74096">
        <ele>856.8</ele>
        <time>2022-05-23 14:21:04</time>
      </trkpt>
      <trkpt lat="41.99098" lon="0.74096">
        <ele>857</ele>
        <time>2022-05-23 14:21:05</time>
      </trkpt>
      <trkpt lat="41.99096" lon="0.74095">
        <ele>857.2</ele>
        <time>2022-05-23 14:21:06</time>
      </trkpt>
      <trkpt lat="41.99094" lon="0.74095">
        <ele>857.4</ele>
        <time>2022-05-23 14:21:07</time>
      </trkpt>
      <trkpt lat="41.99091" lon="0.74095">
        <ele>857.6</ele>
        <time>2022-05-23 14:21:08</time>
      </trkpt>
      <trkpt lat="41.99089" lon="0.74094">
        <ele>857.8</ele>
        <time>2022-05-23 14:21:09</time>
      </trkpt>
      <trkpt lat="41.99087" lon="0.74094">
        <ele>858</ele>
        <time>2022-05-23 14:21:10</time>
      </trkpt>
      <trkpt lat="41.99085" lon="0.74093">
        <ele>858.2</ele>
        <time>2022-05-23 14:21:11</time>
      </trkpt>
      <trkpt lat="41.99083" lon="0.74093">
        <ele>858.2</ele>
        <time>2022-05-23 14:21:12</time>
      </trkpt>
      <trkpt lat="41.99082" lon="0.74092">
        <ele>858.4</ele>
        <time>2022-05-23 14:21:13</time>
      </trkpt>
      <trkpt lat="41.9908" lon="0.74092">
        <ele>858.6</ele>
        <time>2022-05-23 14:21:14</time>
      </trkpt>
      <trkpt lat="41.99078" lon="0.74092">
        <ele>858.6</ele>
        <time>2022-05-23 14:21:15</time>
      </trkpt>
      <trkpt lat="41.99076" lon="0.74092">
        <ele>858.8</ele>
        <time>2022-05-23 14:21:16</time>
      </trkpt>
      <trkpt lat="41.99074" lon="0.74092">
        <ele>858.8</ele>
        <time>2022-05-23 14:21:17</time>
      </trkpt>
      <trkpt lat="41.99073" lon="0.74092">
        <ele>859</ele>
        <time>2022-05-23 14:21:18</time>
      </trkpt>
      <trkpt lat="41.99071" lon="0.74091">
        <ele>859.2</ele>
        <time>2022-05-23 14:21:19</time>
      </trkpt>
      <trkpt lat="41.99069" lon="0.74091">
        <ele>859.4</ele>
        <time>2022-05-23 14:21:20</time>
      </trkpt>
      <trkpt lat="41.99067" lon="0.7409">
        <ele>859.4</ele>
        <time>2022-05-23 14:21:21</time>
      </trkpt>
      <trkpt lat="41.99065" lon="0.74089">
        <ele>859.6</ele>
        <time>2022-05-23 14:21:22</time>
      </trkpt>
      <trkpt lat="41.99064" lon="0.74089">
        <ele>859.8</ele>
        <time>2022-05-23 14:21:23</time>
      </trkpt>
      <trkpt lat="41.99062" lon="0.74088">
        <ele>860</ele>
        <time>2022-05-23 14:21:24</time>
      </trkpt>
      <trkpt lat="41.9906" lon="0.74088">
        <ele>860.2</ele>
        <time>2022-05-23 14:21:25</time>
      </trkpt>
      <trkpt lat="41.99058" lon="0.74087">
        <ele>860.2</ele>
        <time>2022-05-23 14:21:26</time>
      </trkpt>
      <trkpt lat="41.99057" lon="0.74087">
        <ele>860.4</ele>
        <time>2022-05-23 14:21:27</time>
      </trkpt>
      <trkpt lat="41.99055" lon="0.74087">
        <ele>860.6</ele>
        <time>2022-05-23 14:21:28</time>
      </trkpt>
      <trkpt lat="41.99053" lon="0.74087">
        <ele>860.8</ele>
        <time>2022-05-23 14:21:29</time>
      </trkpt>
      <trkpt lat="41.99051" lon="0.74086">
        <ele>860.8</ele>
        <time>2022-05-23 14:21:30</time>
      </trkpt>
      <trkpt lat="41.99049" lon="0.74086">
        <ele>861</ele>
        <time>2022-05-23 14:21:31</time>
      </trkpt>
      <trkpt lat="41.99048" lon="0.74086">
        <ele>861.2</ele>
        <time>2022-05-23 14:21:32</time>
      </trkpt>
      <trkpt lat="41.99046" lon="0.74085">
        <ele>861.2</ele>
        <time>2022-05-23 14:21:33</time>
      </trkpt>
      <trkpt lat="41.99044" lon="0.74085">
        <ele>861.4</ele>
        <time>2022-05-23 14:21:34</time>
      </trkpt>
      <trkpt lat="41.99042" lon="0.74085">
        <ele>861.6</ele>
        <time>2022-05-23 14:21:35</time>
      </trkpt>
      <trkpt lat="41.99041" lon="0.74084">
        <ele>861.6</ele>
        <time>2022-05-23 14:21:36</time>
      </trkpt>
      <trkpt lat="41.99039" lon="0.74084">
        <ele>861.8</ele>
        <time>2022-05-23 14:21:37</time>
      </trkpt>
      <trkpt lat="41.99037" lon="0.74084">
        <ele>862</ele>
        <time>2022-05-23 14:21:38</time>
      </trkpt>
      <trkpt lat="41.99036" lon="0.74084">
        <ele>862.2</ele>
        <time>2022-05-23 14:21:39</time>
      </trkpt>
      <trkpt lat="41.99034" lon="0.74083">
        <ele>862.4</ele>
        <time>2022-05-23 14:21:40</time>
      </trkpt>
      <trkpt lat="41.99032" lon="0.74083">
        <ele>862.4</ele>
        <time>2022-05-23 14:21:41</time>
      </trkpt>
      <trkpt lat="41.9903" lon="0.74083">
        <ele>862.6</ele>
        <time>2022-05-23 14:21:42</time>
      </trkpt>
      <trkpt lat="41.99028" lon="0.74082">
        <ele>862.8</ele>
        <time>2022-05-23 14:21:43</time>
      </trkpt>
      <trkpt lat="41.99026" lon="0.74082">
        <ele>863</ele>
        <time>2022-05-23 14:21:44</time>
      </trkpt>
      <trkpt lat="41.99025" lon="0.74082">
        <ele>863.2</ele>
        <time>2022-05-23 14:21:45</time>
      </trkpt>
      <trkpt lat="41.99023" lon="0.74081">
        <ele>863.2</ele>
        <time>2022-05-23 14:21:46</time>
      </trkpt>
      <trkpt lat="41.99021" lon="0.74081">
        <ele>863.4</ele>
        <time>2022-05-23 14:21:47</time>
      </trkpt>
      <trkpt lat="41.99019" lon="0.74081">
        <ele>863.6</ele>
        <time>2022-05-23 14:21:48</time>
      </trkpt>
      <trkpt lat="41.99017" lon="0.74081">
        <ele>863.6</ele>
        <time>2022-05-23 14:21:49</time>
      </trkpt>
      <trkpt lat="41.99016" lon="0.7408">
        <ele>863.8</ele>
        <time>2022-05-23 14:21:50</time>
      </trkpt>
      <trkpt lat="41.99014" lon="0.7408">
        <ele>864</ele>
        <time>2022-05-23 14:21:51</time>
      </trkpt>
      <trkpt lat="41.99012" lon="0.74079">
        <ele>864.2</ele>
        <time>2022-05-23 14:21:52</time>
      </trkpt>
      <trkpt lat="41.9901" lon="0.74079">
        <ele>864.2</ele>
        <time>2022-05-23 14:21:53</time>
      </trkpt>
      <trkpt lat="41.99008" lon="0.74078">
        <ele>864.4</ele>
        <time>2022-05-23 14:21:54</time>
      </trkpt>
      <trkpt lat="41.99007" lon="0.74078">
        <ele>864.6</ele>
        <time>2022-05-23 14:21:55</time>
      </trkpt>
      <trkpt lat="41.99005" lon="0.74078">
        <ele>864.8</ele>
        <time>2022-05-23 14:21:56</time>
      </trkpt>
      <trkpt lat="41.99003" lon="0.74078">
        <ele>865</ele>
        <time>2022-05-23 14:21:57</time>
      </trkpt>
      <trkpt lat="41.99001" lon="0.74078">
        <ele>865</ele>
        <time>2022-05-23 14:21:58</time>
      </trkpt>
      <trkpt lat="41.98999" lon="0.74078">
        <ele>865.2</ele>
        <time>2022-05-23 14:21:59</time>
      </trkpt>
      <trkpt lat="41.98997" lon="0.74077">
        <ele>865.4</ele>
        <time>2022-05-23 14:22:00</time>
      </trkpt>
      <trkpt lat="41.98995" lon="0.74077">
        <ele>865.6</ele>
        <time>2022-05-23 14:22:01</time>
      </trkpt>
      <trkpt lat="41.98994" lon="0.74077">
        <ele>865.8</ele>
        <time>2022-05-23 14:22:02</time>
      </trkpt>
      <trkpt lat="41.98991" lon="0.74077">
        <ele>865.8</ele>
        <time>2022-05-23 14:22:03</time>
      </trkpt>
      <trkpt lat="41.98989" lon="0.74077">
        <ele>866</ele>
        <time>2022-05-23 14:22:04</time>
      </trkpt>
      <trkpt lat="41.98988" lon="0.74077">
        <ele>866</ele>
        <time>2022-05-23 14:22:05</time>
      </trkpt>
      <trkpt lat="41.98986" lon="0.74076">
        <ele>866.2</ele>
        <time>2022-05-23 14:22:06</time>
      </trkpt>
      <trkpt lat="41.98984" lon="0.74076">
        <ele>866.2</ele>
        <time>2022-05-23 14:22:07</time>
      </trkpt>
      <trkpt lat="41.98982" lon="0.74076">
        <ele>866.4</ele>
        <time>2022-05-23 14:22:08</time>
      </trkpt>
      <trkpt lat="41.9898" lon="0.74075">
        <ele>866.6</ele>
        <time>2022-05-23 14:22:09</time>
      </trkpt>
      <trkpt lat="41.98978" lon="0.74075">
        <ele>866.6</ele>
        <time>2022-05-23 14:22:10</time>
      </trkpt>
      <trkpt lat="41.98976" lon="0.74075">
        <ele>866.8</ele>
        <time>2022-05-23 14:22:11</time>
      </trkpt>
      <trkpt lat="41.98975" lon="0.74074">
        <ele>866.8</ele>
        <time>2022-05-23 14:22:12</time>
      </trkpt>
      <trkpt lat="41.98973" lon="0.74074">
        <ele>867</ele>
        <time>2022-05-23 14:22:13</time>
      </trkpt>
      <trkpt lat="41.98971" lon="0.74073">
        <ele>867.2</ele>
        <time>2022-05-23 14:22:14</time>
      </trkpt>
      <trkpt lat="41.98969" lon="0.74072">
        <ele>867.2</ele>
        <time>2022-05-23 14:22:15</time>
      </trkpt>
      <trkpt lat="41.98967" lon="0.74072">
        <ele>867.4</ele>
        <time>2022-05-23 14:22:16</time>
      </trkpt>
      <trkpt lat="41.98965" lon="0.74072">
        <ele>867.6</ele>
        <time>2022-05-23 14:22:17</time>
      </trkpt>
      <trkpt lat="41.98963" lon="0.74071">
        <ele>867.8</ele>
        <time>2022-05-23 14:22:18</time>
      </trkpt>
      <trkpt lat="41.98961" lon="0.74071">
        <ele>867.8</ele>
        <time>2022-05-23 14:22:19</time>
      </trkpt>
      <trkpt lat="41.98959" lon="0.74071">
        <ele>868</ele>
        <time>2022-05-23 14:22:20</time>
      </trkpt>
      <trkpt lat="41.98957" lon="0.74071">
        <ele>868.2</ele>
        <time>2022-05-23 14:22:21</time>
      </trkpt>
      <trkpt lat="41.98955" lon="0.7407">
        <ele>868.4</ele>
        <time>2022-05-23 14:22:22</time>
      </trkpt>
      <trkpt lat="41.98952" lon="0.7407">
        <ele>868.6</ele>
        <time>2022-05-23 14:22:23</time>
      </trkpt>
      <trkpt lat="41.98951" lon="0.7407">
        <ele>869</ele>
        <time>2022-05-23 14:22:24</time>
      </trkpt>
      <trkpt lat="41.98949" lon="0.7407">
        <ele>869</ele>
        <time>2022-05-23 14:22:25</time>
      </trkpt>
      <trkpt lat="41.98947" lon="0.7407">
        <ele>869.2</ele>
        <time>2022-05-23 14:22:26</time>
      </trkpt>
      <trkpt lat="41.98945" lon="0.7407">
        <ele>869.4</ele>
        <time>2022-05-23 14:22:27</time>
      </trkpt>
      <trkpt lat="41.98943" lon="0.7407">
        <ele>869.6</ele>
        <time>2022-05-23 14:22:28</time>
      </trkpt>
      <trkpt lat="41.98942" lon="0.7407">
        <ele>869.8</ele>
        <time>2022-05-23 14:22:29</time>
      </trkpt>
      <trkpt lat="41.9894" lon="0.7407">
        <ele>870</ele>
        <time>2022-05-23 14:22:30</time>
      </trkpt>
      <trkpt lat="41.98938" lon="0.7407">
        <ele>870.2</ele>
        <time>2022-05-23 14:22:31</time>
      </trkpt>
      <trkpt lat="41.98937" lon="0.7407">
        <ele>870.4</ele>
        <time>2022-05-23 14:22:32</time>
      </trkpt>
      <trkpt lat="41.98935" lon="0.74071">
        <ele>870.4</ele>
        <time>2022-05-23 14:22:33</time>
      </trkpt>
      <trkpt lat="41.98933" lon="0.74071">
        <ele>870.6</ele>
        <time>2022-05-23 14:22:34</time>
      </trkpt>
      <trkpt lat="41.98931" lon="0.74071">
        <ele>870.6</ele>
        <time>2022-05-23 14:22:35</time>
      </trkpt>
      <trkpt lat="41.98929" lon="0.74071">
        <ele>870.8</ele>
        <time>2022-05-23 14:22:36</time>
      </trkpt>
      <trkpt lat="41.98928" lon="0.74072">
        <ele>871</ele>
        <time>2022-05-23 14:22:37</time>
      </trkpt>
      <trkpt lat="41.98926" lon="0.74072">
        <ele>871</ele>
        <time>2022-05-23 14:22:38</time>
      </trkpt>
      <trkpt lat="41.98924" lon="0.74072">
        <ele>871.2</ele>
        <time>2022-05-23 14:22:39</time>
      </trkpt>
      <trkpt lat="41.98922" lon="0.74073">
        <ele>871.4</ele>
        <time>2022-05-23 14:22:40</time>
      </trkpt>
      <trkpt lat="41.9892" lon="0.74073">
        <ele>871.4</ele>
        <time>2022-05-23 14:22:41</time>
      </trkpt>
      <trkpt lat="41.98918" lon="0.74073">
        <ele>871.6</ele>
        <time>2022-05-23 14:22:42</time>
      </trkpt>
      <trkpt lat="41.98917" lon="0.74073">
        <ele>871.8</ele>
        <time>2022-05-23 14:22:43</time>
      </trkpt>
      <trkpt lat="41.98915" lon="0.74074">
        <ele>872</ele>
        <time>2022-05-23 14:22:44</time>
      </trkpt>
      <trkpt lat="41.98913" lon="0.74074">
        <ele>872.2</ele>
        <time>2022-05-23 14:22:45</time>
      </trkpt>
      <trkpt lat="41.98911" lon="0.74074">
        <ele>872.2</ele>
        <time>2022-05-23 14:22:46</time>
      </trkpt>
      <trkpt lat="41.98909" lon="0.74074">
        <ele>872.4</ele>
        <time>2022-05-23 14:22:47</time>
      </trkpt>
      <trkpt lat="41.98907" lon="0.74074">
        <ele>872.6</ele>
        <time>2022-05-23 14:22:48</time>
      </trkpt>
      <trkpt lat="41.98905" lon="0.74075">
        <ele>872.8</ele>
        <time>2022-05-23 14:22:49</time>
      </trkpt>
      <trkpt lat="41.98904" lon="0.74076">
        <ele>873</ele>
        <time>2022-05-23 14:22:50</time>
      </trkpt>
      <trkpt lat="41.98902" lon="0.74077">
        <ele>873</ele>
        <time>2022-05-23 14:22:51</time>
      </trkpt>
      <trkpt lat="41.989" lon="0.74078">
        <ele>873.2</ele>
        <time>2022-05-23 14:22:52</time>
      </trkpt>
      <trkpt lat="41.98898" lon="0.74079">
        <ele>873.4</ele>
        <time>2022-05-23 14:22:53</time>
      </trkpt>
      <trkpt lat="41.98896" lon="0.74079">
        <ele>873.4</ele>
        <time>2022-05-23 14:22:54</time>
      </trkpt>
      <trkpt lat="41.98894" lon="0.7408">
        <ele>873.6</ele>
        <time>2022-05-23 14:22:55</time>
      </trkpt>
      <trkpt lat="41.98892" lon="0.7408">
        <ele>873.6</ele>
        <time>2022-05-23 14:22:56</time>
      </trkpt>
      <trkpt lat="41.9889" lon="0.74081">
        <ele>873.8</ele>
        <time>2022-05-23 14:22:57</time>
      </trkpt>
      <trkpt lat="41.98888" lon="0.74081">
        <ele>874</ele>
        <time>2022-05-23 14:22:58</time>
      </trkpt>
      <trkpt lat="41.98886" lon="0.74081">
        <ele>874.2</ele>
        <time>2022-05-23 14:22:59</time>
      </trkpt>
      <trkpt lat="41.98885" lon="0.74082">
        <ele>874.2</ele>
        <time>2022-05-23 14:23:00</time>
      </trkpt>
      <trkpt lat="41.98883" lon="0.74083">
        <ele>874.4</ele>
        <time>2022-05-23 14:23:01</time>
      </trkpt>
      <trkpt lat="41.98881" lon="0.74084">
        <ele>874.4</ele>
        <time>2022-05-23 14:23:02</time>
      </trkpt>
      <trkpt lat="41.9888" lon="0.74085">
        <ele>874.6</ele>
        <time>2022-05-23 14:23:03</time>
      </trkpt>
      <trkpt lat="41.98878" lon="0.74086">
        <ele>874.8</ele>
        <time>2022-05-23 14:23:04</time>
      </trkpt>
      <trkpt lat="41.98876" lon="0.74087">
        <ele>874.8</ele>
        <time>2022-05-23 14:23:05</time>
      </trkpt>
      <trkpt lat="41.98875" lon="0.74089">
        <ele>875</ele>
        <time>2022-05-23 14:23:06</time>
      </trkpt>
      <trkpt lat="41.98872" lon="0.7409">
        <ele>875</ele>
        <time>2022-05-23 14:23:07</time>
      </trkpt>
      <trkpt lat="41.98871" lon="0.74091">
        <ele>875.2</ele>
        <time>2022-05-23 14:23:08</time>
      </trkpt>
      <trkpt lat="41.98869" lon="0.74091">
        <ele>875.2</ele>
        <time>2022-05-23 14:23:09</time>
      </trkpt>
      <trkpt lat="41.98867" lon="0.74092">
        <ele>875.4</ele>
        <time>2022-05-23 14:23:10</time>
      </trkpt>
      <trkpt lat="41.98865" lon="0.74093">
        <ele>875.4</ele>
        <time>2022-05-23 14:23:11</time>
      </trkpt>
      <trkpt lat="41.98864" lon="0.74094">
        <ele>875.6</ele>
        <time>2022-05-23 14:23:12</time>
      </trkpt>
      <trkpt lat="41.98862" lon="0.74095">
        <ele>875.8</ele>
        <time>2022-05-23 14:23:13</time>
      </trkpt>
      <trkpt lat="41.9886" lon="0.74096">
        <ele>875.8</ele>
        <time>2022-05-23 14:23:14</time>
      </trkpt>
      <trkpt lat="41.98859" lon="0.74097">
        <ele>876</ele>
        <time>2022-05-23 14:23:15</time>
      </trkpt>
      <trkpt lat="41.98857" lon="0.74098">
        <ele>876.2</ele>
        <time>2022-05-23 14:23:16</time>
      </trkpt>
      <trkpt lat="41.98856" lon="0.74099">
        <ele>876.2</ele>
        <time>2022-05-23 14:23:17</time>
      </trkpt>
      <trkpt lat="41.98854" lon="0.741">
        <ele>876.4</ele>
        <time>2022-05-23 14:23:18</time>
      </trkpt>
      <trkpt lat="41.98852" lon="0.74101">
        <ele>876.6</ele>
        <time>2022-05-23 14:23:19</time>
      </trkpt>
      <trkpt lat="41.9885" lon="0.74103">
        <ele>876.6</ele>
        <time>2022-05-23 14:23:20</time>
      </trkpt>
      <trkpt lat="41.98849" lon="0.74104">
        <ele>876.8</ele>
        <time>2022-05-23 14:23:21</time>
      </trkpt>
      <trkpt lat="41.98848" lon="0.74106">
        <ele>876.8</ele>
        <time>2022-05-23 14:23:22</time>
      </trkpt>
      <trkpt lat="41.98846" lon="0.74108">
        <ele>877</ele>
        <time>2022-05-23 14:23:23</time>
      </trkpt>
      <trkpt lat="41.98844" lon="0.74109">
        <ele>877.2</ele>
        <time>2022-05-23 14:23:24</time>
      </trkpt>
      <trkpt lat="41.98843" lon="0.74111">
        <ele>877.2</ele>
        <time>2022-05-23 14:23:25</time>
      </trkpt>
      <trkpt lat="41.98841" lon="0.74112">
        <ele>877.4</ele>
        <time>2022-05-23 14:23:26</time>
      </trkpt>
      <trkpt lat="41.9884" lon="0.74113">
        <ele>877.6</ele>
        <time>2022-05-23 14:23:27</time>
      </trkpt>
      <trkpt lat="41.98838" lon="0.74115">
        <ele>877.8</ele>
        <time>2022-05-23 14:23:28</time>
      </trkpt>
      <trkpt lat="41.98837" lon="0.74116">
        <ele>877.8</ele>
        <time>2022-05-23 14:23:29</time>
      </trkpt>
      <trkpt lat="41.98835" lon="0.74118">
        <ele>878</ele>
        <time>2022-05-23 14:23:30</time>
      </trkpt>
      <trkpt lat="41.98833" lon="0.74119">
        <ele>878.2</ele>
        <time>2022-05-23 14:23:31</time>
      </trkpt>
      <trkpt lat="41.98832" lon="0.7412">
        <ele>878.4</ele>
        <time>2022-05-23 14:23:32</time>
      </trkpt>
      <trkpt lat="41.98831" lon="0.74122">
        <ele>878.4</ele>
        <time>2022-05-23 14:23:33</time>
      </trkpt>
      <trkpt lat="41.9883" lon="0.74124">
        <ele>878.6</ele>
        <time>2022-05-23 14:23:34</time>
      </trkpt>
      <trkpt lat="41.98828" lon="0.74125">
        <ele>878.8</ele>
        <time>2022-05-23 14:23:35</time>
      </trkpt>
      <trkpt lat="41.98827" lon="0.74127">
        <ele>878.8</ele>
        <time>2022-05-23 14:23:36</time>
      </trkpt>
      <trkpt lat="41.98825" lon="0.74128">
        <ele>879</ele>
        <time>2022-05-23 14:23:37</time>
      </trkpt>
      <trkpt lat="41.98824" lon="0.7413">
        <ele>879</ele>
        <time>2022-05-23 14:23:38</time>
      </trkpt>
      <trkpt lat="41.98822" lon="0.74132">
        <ele>879.2</ele>
        <time>2022-05-23 14:23:39</time>
      </trkpt>
      <trkpt lat="41.98821" lon="0.74133">
        <ele>879.2</ele>
        <time>2022-05-23 14:23:40</time>
      </trkpt>
      <trkpt lat="41.98819" lon="0.74135">
        <ele>879.4</ele>
        <time>2022-05-23 14:23:41</time>
      </trkpt>
      <trkpt lat="41.98818" lon="0.74137">
        <ele>879.6</ele>
        <time>2022-05-23 14:23:42</time>
      </trkpt>
      <trkpt lat="41.98817" lon="0.74139">
        <ele>879.6</ele>
        <time>2022-05-23 14:23:43</time>
      </trkpt>
      <trkpt lat="41.98815" lon="0.74141">
        <ele>879.8</ele>
        <time>2022-05-23 14:23:44</time>
      </trkpt>
      <trkpt lat="41.98814" lon="0.74143">
        <ele>879.8</ele>
        <time>2022-05-23 14:23:45</time>
      </trkpt>
      <trkpt lat="41.98812" lon="0.74145">
        <ele>880</ele>
        <time>2022-05-23 14:23:46</time>
      </trkpt>
      <trkpt lat="41.98811" lon="0.74147">
        <ele>880.2</ele>
        <time>2022-05-23 14:23:47</time>
      </trkpt>
      <trkpt lat="41.98809" lon="0.74149">
        <ele>880.4</ele>
        <time>2022-05-23 14:23:48</time>
      </trkpt>
      <trkpt lat="41.98808" lon="0.74151">
        <ele>880.6</ele>
        <time>2022-05-23 14:23:49</time>
      </trkpt>
      <trkpt lat="41.98807" lon="0.74153">
        <ele>880.8</ele>
        <time>2022-05-23 14:23:50</time>
      </trkpt>
      <trkpt lat="41.98806" lon="0.74155">
        <ele>880.8</ele>
        <time>2022-05-23 14:23:51</time>
      </trkpt>
      <trkpt lat="41.98804" lon="0.74157">
        <ele>881</ele>
        <time>2022-05-23 14:23:52</time>
      </trkpt>
      <trkpt lat="41.98803" lon="0.74159">
        <ele>881.2</ele>
        <time>2022-05-23 14:23:53</time>
      </trkpt>
      <trkpt lat="41.98802" lon="0.74161">
        <ele>881.4</ele>
        <time>2022-05-23 14:23:54</time>
      </trkpt>
      <trkpt lat="41.98801" lon="0.74163">
        <ele>881.4</ele>
        <time>2022-05-23 14:23:55</time>
      </trkpt>
      <trkpt lat="41.988" lon="0.74164">
        <ele>881.6</ele>
        <time>2022-05-23 14:23:56</time>
      </trkpt>
      <trkpt lat="41.98799" lon="0.74167">
        <ele>881.8</ele>
        <time>2022-05-23 14:23:57</time>
      </trkpt>
      <trkpt lat="41.98798" lon="0.74169">
        <ele>882</ele>
        <time>2022-05-23 14:23:58</time>
      </trkpt>
      <trkpt lat="41.98797" lon="0.74171">
        <ele>882</ele>
        <time>2022-05-23 14:23:59</time>
      </trkpt>
      <trkpt lat="41.98796" lon="0.74173">
        <ele>882.2</ele>
        <time>2022-05-23 14:24:00</time>
      </trkpt>
      <trkpt lat="41.98795" lon="0.74176">
        <ele>882.4</ele>
        <time>2022-05-23 14:24:01</time>
      </trkpt>
      <trkpt lat="41.98794" lon="0.74178">
        <ele>882.4</ele>
        <time>2022-05-23 14:24:02</time>
      </trkpt>
      <trkpt lat="41.98793" lon="0.7418">
        <ele>882.4</ele>
        <time>2022-05-23 14:24:03</time>
      </trkpt>
      <trkpt lat="41.98792" lon="0.74182">
        <ele>882.4</ele>
        <time>2022-05-23 14:24:04</time>
      </trkpt>
      <trkpt lat="41.98791" lon="0.74184">
        <ele>882.6</ele>
        <time>2022-05-23 14:24:05</time>
      </trkpt>
      <trkpt lat="41.9879" lon="0.74186">
        <ele>882.8</ele>
        <time>2022-05-23 14:24:06</time>
      </trkpt>
      <trkpt lat="41.98789" lon="0.74188">
        <ele>882.8</ele>
        <time>2022-05-23 14:24:07</time>
      </trkpt>
      <trkpt lat="41.98788" lon="0.7419">
        <ele>883</ele>
        <time>2022-05-23 14:24:08</time>
      </trkpt>
      <trkpt lat="41.98787" lon="0.74193">
        <ele>883.4</ele>
        <time>2022-05-23 14:24:09</time>
      </trkpt>
      <trkpt lat="41.98786" lon="0.74195">
        <ele>883.6</ele>
        <time>2022-05-23 14:24:10</time>
      </trkpt>
      <trkpt lat="41.98785" lon="0.74197">
        <ele>883.6</ele>
        <time>2022-05-23 14:24:11</time>
      </trkpt>
      <trkpt lat="41.98784" lon="0.742">
        <ele>883.8</ele>
        <time>2022-05-23 14:24:12</time>
      </trkpt>
      <trkpt lat="41.98783" lon="0.74202">
        <ele>883.8</ele>
        <time>2022-05-23 14:24:13</time>
      </trkpt>
      <trkpt lat="41.98782" lon="0.74204">
        <ele>884</ele>
        <time>2022-05-23 14:24:14</time>
      </trkpt>
      <trkpt lat="41.98781" lon="0.74207">
        <ele>884.2</ele>
        <time>2022-05-23 14:24:15</time>
      </trkpt>
      <trkpt lat="41.9878" lon="0.74209">
        <ele>884.2</ele>
        <time>2022-05-23 14:24:16</time>
      </trkpt>
      <trkpt lat="41.98779" lon="0.74211">
        <ele>884.4</ele>
        <time>2022-05-23 14:24:17</time>
      </trkpt>
      <trkpt lat="41.98778" lon="0.74213">
        <ele>884.6</ele>
        <time>2022-05-23 14:24:18</time>
      </trkpt>
      <trkpt lat="41.98777" lon="0.74215">
        <ele>884.8</ele>
        <time>2022-05-23 14:24:19</time>
      </trkpt>
      <trkpt lat="41.98776" lon="0.74217">
        <ele>884.8</ele>
        <time>2022-05-23 14:24:20</time>
      </trkpt>
      <trkpt lat="41.98776" lon="0.74219">
        <ele>885</ele>
        <time>2022-05-23 14:24:21</time>
      </trkpt>
      <trkpt lat="41.98775" lon="0.74222">
        <ele>885.2</ele>
        <time>2022-05-23 14:24:22</time>
      </trkpt>
      <trkpt lat="41.98774" lon="0.74225">
        <ele>885.2</ele>
        <time>2022-05-23 14:24:23</time>
      </trkpt>
      <trkpt lat="41.98773" lon="0.74227">
        <ele>885.4</ele>
        <time>2022-05-23 14:24:24</time>
      </trkpt>
      <trkpt lat="41.98772" lon="0.7423">
        <ele>885.6</ele>
        <time>2022-05-23 14:24:25</time>
      </trkpt>
      <trkpt lat="41.98771" lon="0.74232">
        <ele>885.8</ele>
        <time>2022-05-23 14:24:26</time>
      </trkpt>
      <trkpt lat="41.9877" lon="0.74234">
        <ele>885.8</ele>
        <time>2022-05-23 14:24:27</time>
      </trkpt>
      <trkpt lat="41.98769" lon="0.74237">
        <ele>886</ele>
        <time>2022-05-23 14:24:28</time>
      </trkpt>
      <trkpt lat="41.98768" lon="0.74239">
        <ele>886</ele>
        <time>2022-05-23 14:24:29</time>
      </trkpt>
      <trkpt lat="41.98767" lon="0.74241">
        <ele>886.2</ele>
        <time>2022-05-23 14:24:30</time>
      </trkpt>
      <trkpt lat="41.98766" lon="0.74244">
        <ele>886.4</ele>
        <time>2022-05-23 14:24:31</time>
      </trkpt>
      <trkpt lat="41.98764" lon="0.74246">
        <ele>886.6</ele>
        <time>2022-05-23 14:24:32</time>
      </trkpt>
      <trkpt lat="41.98763" lon="0.74249">
        <ele>886.6</ele>
        <time>2022-05-23 14:24:33</time>
      </trkpt>
      <trkpt lat="41.98762" lon="0.74251">
        <ele>886.8</ele>
        <time>2022-05-23 14:24:34</time>
      </trkpt>
      <trkpt lat="41.98761" lon="0.74254">
        <ele>887</ele>
        <time>2022-05-23 14:24:35</time>
      </trkpt>
      <trkpt lat="41.98761" lon="0.74256">
        <ele>887</ele>
        <time>2022-05-23 14:24:36</time>
      </trkpt>
      <trkpt lat="41.9876" lon="0.74259">
        <ele>887.2</ele>
        <time>2022-05-23 14:24:37</time>
      </trkpt>
      <trkpt lat="41.98759" lon="0.74261">
        <ele>887.2</ele>
        <time>2022-05-23 14:24:38</time>
      </trkpt>
      <trkpt lat="41.98758" lon="0.74263">
        <ele>887.4</ele>
        <time>2022-05-23 14:24:39</time>
      </trkpt>
      <trkpt lat="41.98757" lon="0.74266">
        <ele>887.6</ele>
        <time>2022-05-23 14:24:40</time>
      </trkpt>
      <trkpt lat="41.98756" lon="0.74268">
        <ele>887.8</ele>
        <time>2022-05-23 14:24:41</time>
      </trkpt>
      <trkpt lat="41.98754" lon="0.74271">
        <ele>887.8</ele>
        <time>2022-05-23 14:24:42</time>
      </trkpt>
      <trkpt lat="41.98753" lon="0.74273">
        <ele>888</ele>
        <time>2022-05-23 14:24:43</time>
      </trkpt>
      <trkpt lat="41.98753" lon="0.74275">
        <ele>888.2</ele>
        <time>2022-05-23 14:24:44</time>
      </trkpt>
      <trkpt lat="41.98752" lon="0.74278">
        <ele>888.4</ele>
        <time>2022-05-23 14:24:45</time>
      </trkpt>
      <trkpt lat="41.98751" lon="0.7428">
        <ele>888.6</ele>
        <time>2022-05-23 14:24:46</time>
      </trkpt>
      <trkpt lat="41.9875" lon="0.74283">
        <ele>888.8</ele>
        <time>2022-05-23 14:24:47</time>
      </trkpt>
      <trkpt lat="41.98749" lon="0.74285">
        <ele>888.8</ele>
        <time>2022-05-23 14:24:48</time>
      </trkpt>
      <trkpt lat="41.98748" lon="0.74287">
        <ele>889</ele>
        <time>2022-05-23 14:24:49</time>
      </trkpt>
      <trkpt lat="41.98746" lon="0.7429">
        <ele>889.2</ele>
        <time>2022-05-23 14:24:50</time>
      </trkpt>
      <trkpt lat="41.98745" lon="0.74292">
        <ele>889.4</ele>
        <time>2022-05-23 14:24:51</time>
      </trkpt>
      <trkpt lat="41.98744" lon="0.74295">
        <ele>889.6</ele>
        <time>2022-05-23 14:24:52</time>
      </trkpt>
      <trkpt lat="41.98743" lon="0.74297">
        <ele>889.8</ele>
        <time>2022-05-23 14:24:53</time>
      </trkpt>
      <trkpt lat="41.98742" lon="0.74299">
        <ele>890</ele>
        <time>2022-05-23 14:24:54</time>
      </trkpt>
      <trkpt lat="41.98741" lon="0.74302">
        <ele>890.2</ele>
        <time>2022-05-23 14:24:55</time>
      </trkpt>
      <trkpt lat="41.9874" lon="0.74304">
        <ele>890.2</ele>
        <time>2022-05-23 14:24:56</time>
      </trkpt>
      <trkpt lat="41.9874" lon="0.74307">
        <ele>890.4</ele>
        <time>2022-05-23 14:24:57</time>
      </trkpt>
      <trkpt lat="41.98738" lon="0.74309">
        <ele>890.6</ele>
        <time>2022-05-23 14:24:58</time>
      </trkpt>
      <trkpt lat="41.98737" lon="0.74312">
        <ele>890.6</ele>
        <time>2022-05-23 14:24:59</time>
      </trkpt>
      <trkpt lat="41.98737" lon="0.74314">
        <ele>890.8</ele>
        <time>2022-05-23 14:25:00</time>
      </trkpt>
      <trkpt lat="41.98736" lon="0.74316">
        <ele>891</ele>
        <time>2022-05-23 14:25:01</time>
      </trkpt>
      <trkpt lat="41.98735" lon="0.74319">
        <ele>891.2</ele>
        <time>2022-05-23 14:25:02</time>
      </trkpt>
      <trkpt lat="41.98733" lon="0.74321">
        <ele>891.2</ele>
        <time>2022-05-23 14:25:03</time>
      </trkpt>
      <trkpt lat="41.98733" lon="0.74323">
        <ele>891.4</ele>
        <time>2022-05-23 14:25:04</time>
      </trkpt>
      <trkpt lat="41.98732" lon="0.74325">
        <ele>891.6</ele>
        <time>2022-05-23 14:25:05</time>
      </trkpt>
      <trkpt lat="41.9873" lon="0.74327">
        <ele>891.6</ele>
        <time>2022-05-23 14:25:06</time>
      </trkpt>
      <trkpt lat="41.98729" lon="0.74329">
        <ele>891.8</ele>
        <time>2022-05-23 14:25:07</time>
      </trkpt>
      <trkpt lat="41.98727" lon="0.74332">
        <ele>892</ele>
        <time>2022-05-23 14:25:08</time>
      </trkpt>
      <trkpt lat="41.98726" lon="0.74334">
        <ele>892.2</ele>
        <time>2022-05-23 14:25:09</time>
      </trkpt>
      <trkpt lat="41.98725" lon="0.74336">
        <ele>892.2</ele>
        <time>2022-05-23 14:25:10</time>
      </trkpt>
      <trkpt lat="41.98724" lon="0.74339">
        <ele>892.4</ele>
        <time>2022-05-23 14:25:11</time>
      </trkpt>
      <trkpt lat="41.98723" lon="0.74341">
        <ele>892.6</ele>
        <time>2022-05-23 14:25:12</time>
      </trkpt>
      <trkpt lat="41.98722" lon="0.74343">
        <ele>892.8</ele>
        <time>2022-05-23 14:25:13</time>
      </trkpt>
      <trkpt lat="41.98721" lon="0.74346">
        <ele>893</ele>
        <time>2022-05-23 14:25:14</time>
      </trkpt>
      <trkpt lat="41.9872" lon="0.74348">
        <ele>893</ele>
        <time>2022-05-23 14:25:15</time>
      </trkpt>
      <trkpt lat="41.98719" lon="0.7435">
        <ele>893.2</ele>
        <time>2022-05-23 14:25:16</time>
      </trkpt>
      <trkpt lat="41.98717" lon="0.74352">
        <ele>893.4</ele>
        <time>2022-05-23 14:25:17</time>
      </trkpt>
      <trkpt lat="41.98716" lon="0.74355">
        <ele>893.6</ele>
        <time>2022-05-23 14:25:18</time>
      </trkpt>
      <trkpt lat="41.98716" lon="0.74357">
        <ele>893.8</ele>
        <time>2022-05-23 14:25:19</time>
      </trkpt>
      <trkpt lat="41.98715" lon="0.7436">
        <ele>893.8</ele>
        <time>2022-05-23 14:25:20</time>
      </trkpt>
      <trkpt lat="41.98714" lon="0.74362">
        <ele>894</ele>
        <time>2022-05-23 14:25:21</time>
      </trkpt>
      <trkpt lat="41.98713" lon="0.74365">
        <ele>894.2</ele>
        <time>2022-05-23 14:25:22</time>
      </trkpt>
      <trkpt lat="41.98712" lon="0.74367">
        <ele>894.4</ele>
        <time>2022-05-23 14:25:23</time>
      </trkpt>
      <trkpt lat="41.98711" lon="0.7437">
        <ele>894.4</ele>
        <time>2022-05-23 14:25:24</time>
      </trkpt>
      <trkpt lat="41.9871" lon="0.74372">
        <ele>894.6</ele>
        <time>2022-05-23 14:25:25</time>
      </trkpt>
      <trkpt lat="41.98709" lon="0.74375">
        <ele>894.8</ele>
        <time>2022-05-23 14:25:26</time>
      </trkpt>
      <trkpt lat="41.98709" lon="0.74378">
        <ele>894.8</ele>
        <time>2022-05-23 14:25:27</time>
      </trkpt>
      <trkpt lat="41.98708" lon="0.7438">
        <ele>895</ele>
        <time>2022-05-23 14:25:28</time>
      </trkpt>
      <trkpt lat="41.98707" lon="0.74382">
        <ele>895.2</ele>
        <time>2022-05-23 14:25:29</time>
      </trkpt>
      <trkpt lat="41.98706" lon="0.74385">
        <ele>895.4</ele>
        <time>2022-05-23 14:25:30</time>
      </trkpt>
      <trkpt lat="41.98704" lon="0.74387">
        <ele>895.6</ele>
        <time>2022-05-23 14:25:31</time>
      </trkpt>
      <trkpt lat="41.98703" lon="0.74389">
        <ele>895.6</ele>
        <time>2022-05-23 14:25:32</time>
      </trkpt>
      <trkpt lat="41.98701" lon="0.74392">
        <ele>895.8</ele>
        <time>2022-05-23 14:25:33</time>
      </trkpt>
      <trkpt lat="41.987" lon="0.74394">
        <ele>896</ele>
        <time>2022-05-23 14:25:34</time>
      </trkpt>
      <trkpt lat="41.987" lon="0.74396">
        <ele>896.2</ele>
        <time>2022-05-23 14:25:35</time>
      </trkpt>
      <trkpt lat="41.98698" lon="0.74399">
        <ele>896.4</ele>
        <time>2022-05-23 14:25:36</time>
      </trkpt>
      <trkpt lat="41.98697" lon="0.74401">
        <ele>896.4</ele>
        <time>2022-05-23 14:25:37</time>
      </trkpt>
      <trkpt lat="41.98696" lon="0.74403">
        <ele>896.6</ele>
        <time>2022-05-23 14:25:38</time>
      </trkpt>
      <trkpt lat="41.98695" lon="0.74405">
        <ele>896.8</ele>
        <time>2022-05-23 14:25:39</time>
      </trkpt>
      <trkpt lat="41.98693" lon="0.74407">
        <ele>897</ele>
        <time>2022-05-23 14:25:40</time>
      </trkpt>
      <trkpt lat="41.98692" lon="0.7441">
        <ele>897</ele>
        <time>2022-05-23 14:25:41</time>
      </trkpt>
      <trkpt lat="41.98691" lon="0.74412">
        <ele>897.2</ele>
        <time>2022-05-23 14:25:42</time>
      </trkpt>
      <trkpt lat="41.9869" lon="0.74414">
        <ele>897.4</ele>
        <time>2022-05-23 14:25:43</time>
      </trkpt>
      <trkpt lat="41.98689" lon="0.74417">
        <ele>897.4</ele>
        <time>2022-05-23 14:25:44</time>
      </trkpt>
      <trkpt lat="41.98688" lon="0.74419">
        <ele>897.6</ele>
        <time>2022-05-23 14:25:45</time>
      </trkpt>
      <trkpt lat="41.98687" lon="0.74421">
        <ele>897.8</ele>
        <time>2022-05-23 14:25:46</time>
      </trkpt>
      <trkpt lat="41.98686" lon="0.74423">
        <ele>897.8</ele>
        <time>2022-05-23 14:25:47</time>
      </trkpt>
      <trkpt lat="41.98685" lon="0.74426">
        <ele>898</ele>
        <time>2022-05-23 14:25:48</time>
      </trkpt>
      <trkpt lat="41.98684" lon="0.74429">
        <ele>898.2</ele>
        <time>2022-05-23 14:25:49</time>
      </trkpt>
      <trkpt lat="41.98683" lon="0.74431">
        <ele>898.4</ele>
        <time>2022-05-23 14:25:50</time>
      </trkpt>
      <trkpt lat="41.98682" lon="0.74434">
        <ele>898.4</ele>
        <time>2022-05-23 14:25:51</time>
      </trkpt>
      <trkpt lat="41.98681" lon="0.74436">
        <ele>898.6</ele>
        <time>2022-05-23 14:25:52</time>
      </trkpt>
      <trkpt lat="41.9868" lon="0.74438">
        <ele>898.8</ele>
        <time>2022-05-23 14:25:53</time>
      </trkpt>
      <trkpt lat="41.98679" lon="0.7444">
        <ele>898.8</ele>
        <time>2022-05-23 14:25:54</time>
      </trkpt>
      <trkpt lat="41.98677" lon="0.74442">
        <ele>899</ele>
        <time>2022-05-23 14:25:55</time>
      </trkpt>
      <trkpt lat="41.98676" lon="0.74445">
        <ele>899.2</ele>
        <time>2022-05-23 14:25:56</time>
      </trkpt>
      <trkpt lat="41.98675" lon="0.74447">
        <ele>899.2</ele>
        <time>2022-05-23 14:25:57</time>
      </trkpt>
      <trkpt lat="41.98674" lon="0.7445">
        <ele>899.4</ele>
        <time>2022-05-23 14:25:58</time>
      </trkpt>
      <trkpt lat="41.98673" lon="0.74452">
        <ele>899.6</ele>
        <time>2022-05-23 14:25:59</time>
      </trkpt>
      <trkpt lat="41.98672" lon="0.74454">
        <ele>899.6</ele>
        <time>2022-05-23 14:26:00</time>
      </trkpt>
      <trkpt lat="41.98671" lon="0.74457">
        <ele>899.8</ele>
        <time>2022-05-23 14:26:01</time>
      </trkpt>
      <trkpt lat="41.98671" lon="0.74459">
        <ele>900</ele>
        <time>2022-05-23 14:26:02</time>
      </trkpt>
      <trkpt lat="41.9867" lon="0.74462">
        <ele>900.2</ele>
        <time>2022-05-23 14:26:03</time>
      </trkpt>
      <trkpt lat="41.98669" lon="0.74464">
        <ele>900.2</ele>
        <time>2022-05-23 14:26:04</time>
      </trkpt>
      <trkpt lat="41.98668" lon="0.74466">
        <ele>900.4</ele>
        <time>2022-05-23 14:26:05</time>
      </trkpt>
      <trkpt lat="41.98667" lon="0.74468">
        <ele>900.6</ele>
        <time>2022-05-23 14:26:06</time>
      </trkpt>
      <trkpt lat="41.98666" lon="0.7447">
        <ele>900.6</ele>
        <time>2022-05-23 14:26:07</time>
      </trkpt>
      <trkpt lat="41.98665" lon="0.74473">
        <ele>900.8</ele>
        <time>2022-05-23 14:26:08</time>
      </trkpt>
      <trkpt lat="41.98663" lon="0.74475">
        <ele>901</ele>
        <time>2022-05-23 14:26:09</time>
      </trkpt>
      <trkpt lat="41.98663" lon="0.74477">
        <ele>901.2</ele>
        <time>2022-05-23 14:26:10</time>
      </trkpt>
      <trkpt lat="41.98661" lon="0.7448">
        <ele>901.2</ele>
        <time>2022-05-23 14:26:11</time>
      </trkpt>
      <trkpt lat="41.9866" lon="0.74482">
        <ele>901.4</ele>
        <time>2022-05-23 14:26:12</time>
      </trkpt>
      <trkpt lat="41.98659" lon="0.74484">
        <ele>901.6</ele>
        <time>2022-05-23 14:26:13</time>
      </trkpt>
      <trkpt lat="41.98658" lon="0.74486">
        <ele>901.6</ele>
        <time>2022-05-23 14:26:14</time>
      </trkpt>
      <trkpt lat="41.98657" lon="0.74489">
        <ele>901.8</ele>
        <time>2022-05-23 14:26:15</time>
      </trkpt>
      <trkpt lat="41.98656" lon="0.74491">
        <ele>902</ele>
        <time>2022-05-23 14:26:16</time>
      </trkpt>
      <trkpt lat="41.98655" lon="0.74493">
        <ele>902.2</ele>
        <time>2022-05-23 14:26:17</time>
      </trkpt>
      <trkpt lat="41.98654" lon="0.74495">
        <ele>902.2</ele>
        <time>2022-05-23 14:26:18</time>
      </trkpt>
      <trkpt lat="41.98653" lon="0.74498">
        <ele>902.4</ele>
        <time>2022-05-23 14:26:19</time>
      </trkpt>
      <trkpt lat="41.98651" lon="0.745">
        <ele>902.6</ele>
        <time>2022-05-23 14:26:20</time>
      </trkpt>
      <trkpt lat="41.98651" lon="0.74503">
        <ele>902.6</ele>
        <time>2022-05-23 14:26:21</time>
      </trkpt>
      <trkpt lat="41.9865" lon="0.74505">
        <ele>902.8</ele>
        <time>2022-05-23 14:26:22</time>
      </trkpt>
      <trkpt lat="41.98649" lon="0.74508">
        <ele>903</ele>
        <time>2022-05-23 14:26:23</time>
      </trkpt>
      <trkpt lat="41.98648" lon="0.7451">
        <ele>903.2</ele>
        <time>2022-05-23 14:26:24</time>
      </trkpt>
      <trkpt lat="41.98647" lon="0.74512">
        <ele>903.4</ele>
        <time>2022-05-23 14:26:25</time>
      </trkpt>
      <trkpt lat="41.98646" lon="0.74515">
        <ele>903.4</ele>
        <time>2022-05-23 14:26:26</time>
      </trkpt>
      <trkpt lat="41.98645" lon="0.74517">
        <ele>903.6</ele>
        <time>2022-05-23 14:26:27</time>
      </trkpt>
      <trkpt lat="41.98644" lon="0.74519">
        <ele>903.8</ele>
        <time>2022-05-23 14:26:28</time>
      </trkpt>
      <trkpt lat="41.98643" lon="0.74522">
        <ele>904</ele>
        <time>2022-05-23 14:26:29</time>
      </trkpt>
      <trkpt lat="41.98642" lon="0.74525">
        <ele>904</ele>
        <time>2022-05-23 14:26:30</time>
      </trkpt>
      <trkpt lat="41.9864" lon="0.74527">
        <ele>904.2</ele>
        <time>2022-05-23 14:26:31</time>
      </trkpt>
      <trkpt lat="41.9864" lon="0.74529">
        <ele>904.4</ele>
        <time>2022-05-23 14:26:32</time>
      </trkpt>
      <trkpt lat="41.98638" lon="0.74532">
        <ele>904.6</ele>
        <time>2022-05-23 14:26:33</time>
      </trkpt>
      <trkpt lat="41.98637" lon="0.74534">
        <ele>904.6</ele>
        <time>2022-05-23 14:26:34</time>
      </trkpt>
      <trkpt lat="41.98636" lon="0.74537">
        <ele>904.8</ele>
        <time>2022-05-23 14:26:35</time>
      </trkpt>
      <trkpt lat="41.98635" lon="0.74539">
        <ele>905</ele>
        <time>2022-05-23 14:26:36</time>
      </trkpt>
      <trkpt lat="41.98634" lon="0.74542">
        <ele>905</ele>
        <time>2022-05-23 14:26:37</time>
      </trkpt>
      <trkpt lat="41.98632" lon="0.74545">
        <ele>905.2</ele>
        <time>2022-05-23 14:26:38</time>
      </trkpt>
      <trkpt lat="41.98633" lon="0.74549">
        <ele>905.4</ele>
        <time>2022-05-23 14:26:39</time>
      </trkpt>
      <trkpt lat="41.98633" lon="0.74554">
        <ele>905.6</ele>
        <time>2022-05-23 14:26:40</time>
      </trkpt>
      <trkpt lat="41.98633" lon="0.74558">
        <ele>905.6</ele>
        <time>2022-05-23 14:26:41</time>
      </trkpt>
      <trkpt lat="41.98631" lon="0.74558">
        <ele>905.8</ele>
        <time>2022-05-23 14:26:42</time>
      </trkpt>
      <trkpt lat="41.98629" lon="0.7456">
        <ele>905.8</ele>
        <time>2022-05-23 14:26:43</time>
      </trkpt>
      <trkpt lat="41.98628" lon="0.74562">
        <ele>906</ele>
        <time>2022-05-23 14:26:44</time>
      </trkpt>
      <trkpt lat="41.98626" lon="0.74564">
        <ele>906.2</ele>
        <time>2022-05-23 14:26:45</time>
      </trkpt>
      <trkpt lat="41.98626" lon="0.74567">
        <ele>906.2</ele>
        <time>2022-05-23 14:26:46</time>
      </trkpt>
      <trkpt lat="41.98624" lon="0.74569">
        <ele>906.4</ele>
        <time>2022-05-23 14:26:47</time>
      </trkpt>
      <trkpt lat="41.98623" lon="0.7457">
        <ele>906.6</ele>
        <time>2022-05-23 14:26:48</time>
      </trkpt>
      <trkpt lat="41.98623" lon="0.74572">
        <ele>906.6</ele>
        <time>2022-05-23 14:26:49</time>
      </trkpt>
      <trkpt lat="41.98621" lon="0.74574">
        <ele>906.8</ele>
        <time>2022-05-23 14:26:50</time>
      </trkpt>
      <trkpt lat="41.9862" lon="0.74577">
        <ele>907</ele>
        <time>2022-05-23 14:26:51</time>
      </trkpt>
      <trkpt lat="41.98619" lon="0.74578">
        <ele>907</ele>
        <time>2022-05-23 14:26:52</time>
      </trkpt>
      <trkpt lat="41.98617" lon="0.74582">
        <ele>907.2</ele>
        <time>2022-05-23 14:26:53</time>
      </trkpt>
      <trkpt lat="41.98616" lon="0.74584">
        <ele>907.4</ele>
        <time>2022-05-23 14:26:54</time>
      </trkpt>
      <trkpt lat="41.98614" lon="0.74586">
        <ele>907.6</ele>
        <time>2022-05-23 14:26:55</time>
      </trkpt>
      <trkpt lat="41.98613" lon="0.74589">
        <ele>907.8</ele>
        <time>2022-05-23 14:26:56</time>
      </trkpt>
      <trkpt lat="41.98613" lon="0.7459">
        <ele>908</ele>
        <time>2022-05-23 14:26:57</time>
      </trkpt>
      <trkpt lat="41.98611" lon="0.74593">
        <ele>908.2</ele>
        <time>2022-05-23 14:26:58</time>
      </trkpt>
      <trkpt lat="41.9861" lon="0.74595">
        <ele>908.4</ele>
        <time>2022-05-23 14:26:59</time>
      </trkpt>
      <trkpt lat="41.98609" lon="0.74597">
        <ele>908.6</ele>
        <time>2022-05-23 14:27:00</time>
      </trkpt>
      <trkpt lat="41.98608" lon="0.746">
        <ele>908.8</ele>
        <time>2022-05-23 14:27:01</time>
      </trkpt>
      <trkpt lat="41.98607" lon="0.74602">
        <ele>908.8</ele>
        <time>2022-05-23 14:27:02</time>
      </trkpt>
      <trkpt lat="41.98605" lon="0.74605">
        <ele>909.2</ele>
        <time>2022-05-23 14:27:03</time>
      </trkpt>
      <trkpt lat="41.98604" lon="0.74607">
        <ele>909.4</ele>
        <time>2022-05-23 14:27:04</time>
      </trkpt>
      <trkpt lat="41.98603" lon="0.7461">
        <ele>909.6</ele>
        <time>2022-05-23 14:27:05</time>
      </trkpt>
      <trkpt lat="41.98602" lon="0.74612">
        <ele>909.8</ele>
        <time>2022-05-23 14:27:06</time>
      </trkpt>
      <trkpt lat="41.98601" lon="0.74614">
        <ele>910</ele>
        <time>2022-05-23 14:27:07</time>
      </trkpt>
      <trkpt lat="41.986" lon="0.74617">
        <ele>910.2</ele>
        <time>2022-05-23 14:27:08</time>
      </trkpt>
      <trkpt lat="41.98599" lon="0.7462">
        <ele>910.4</ele>
        <time>2022-05-23 14:27:09</time>
      </trkpt>
      <trkpt lat="41.98598" lon="0.74622">
        <ele>910.6</ele>
        <time>2022-05-23 14:27:10</time>
      </trkpt>
      <trkpt lat="41.98598" lon="0.74625">
        <ele>910.8</ele>
        <time>2022-05-23 14:27:11</time>
      </trkpt>
      <trkpt lat="41.98597" lon="0.74626">
        <ele>911</ele>
        <time>2022-05-23 14:27:12</time>
      </trkpt>
      <trkpt lat="41.98595" lon="0.74629">
        <ele>911.2</ele>
        <time>2022-05-23 14:27:13</time>
      </trkpt>
      <trkpt lat="41.98594" lon="0.74631">
        <ele>911.2</ele>
        <time>2022-05-23 14:27:14</time>
      </trkpt>
      <trkpt lat="41.98593" lon="0.74634">
        <ele>911.4</ele>
        <time>2022-05-23 14:27:15</time>
      </trkpt>
      <trkpt lat="41.98592" lon="0.74636">
        <ele>911.6</ele>
        <time>2022-05-23 14:27:16</time>
      </trkpt>
      <trkpt lat="41.98591" lon="0.74638">
        <ele>911.8</ele>
        <time>2022-05-23 14:27:17</time>
      </trkpt>
      <trkpt lat="41.9859" lon="0.74641">
        <ele>912</ele>
        <time>2022-05-23 14:27:18</time>
      </trkpt>
      <trkpt lat="41.98589" lon="0.74643">
        <ele>912</ele>
        <time>2022-05-23 14:27:19</time>
      </trkpt>
      <trkpt lat="41.98588" lon="0.74645">
        <ele>912.2</ele>
        <time>2022-05-23 14:27:20</time>
      </trkpt>
      <trkpt lat="41.98587" lon="0.74647">
        <ele>912.4</ele>
        <time>2022-05-23 14:27:21</time>
      </trkpt>
      <trkpt lat="41.98585" lon="0.7465">
        <ele>912.4</ele>
        <time>2022-05-23 14:27:22</time>
      </trkpt>
      <trkpt lat="41.98584" lon="0.74652">
        <ele>912.6</ele>
        <time>2022-05-23 14:27:23</time>
      </trkpt>
      <trkpt lat="41.98583" lon="0.74654">
        <ele>912.8</ele>
        <time>2022-05-23 14:27:24</time>
      </trkpt>
      <trkpt lat="41.98582" lon="0.74656">
        <ele>913</ele>
        <time>2022-05-23 14:27:25</time>
      </trkpt>
      <trkpt lat="41.98581" lon="0.74658">
        <ele>913</ele>
        <time>2022-05-23 14:27:26</time>
      </trkpt>
      <trkpt lat="41.9858" lon="0.74661">
        <ele>913.4</ele>
        <time>2022-05-23 14:27:27</time>
      </trkpt>
      <trkpt lat="41.98579" lon="0.74663">
        <ele>913.6</ele>
        <time>2022-05-23 14:27:28</time>
      </trkpt>
      <trkpt lat="41.98577" lon="0.74665">
        <ele>913.8</ele>
        <time>2022-05-23 14:27:29</time>
      </trkpt>
      <trkpt lat="41.98576" lon="0.74668">
        <ele>914</ele>
        <time>2022-05-23 14:27:30</time>
      </trkpt>
      <trkpt lat="41.98576" lon="0.7467">
        <ele>914.2</ele>
        <time>2022-05-23 14:27:31</time>
      </trkpt>
      <trkpt lat="41.98575" lon="0.74673">
        <ele>914.4</ele>
        <time>2022-05-23 14:27:32</time>
      </trkpt>
      <trkpt lat="41.98574" lon="0.74675">
        <ele>914.6</ele>
        <time>2022-05-23 14:27:33</time>
      </trkpt>
      <trkpt lat="41.98572" lon="0.74677">
        <ele>914.6</ele>
        <time>2022-05-23 14:27:34</time>
      </trkpt>
      <trkpt lat="41.98571" lon="0.7468">
        <ele>914.8</ele>
        <time>2022-05-23 14:27:35</time>
      </trkpt>
      <trkpt lat="41.9857" lon="0.74682">
        <ele>915</ele>
        <time>2022-05-23 14:27:36</time>
      </trkpt>
      <trkpt lat="41.98569" lon="0.74684">
        <ele>915</ele>
        <time>2022-05-23 14:27:37</time>
      </trkpt>
      <trkpt lat="41.98568" lon="0.74686">
        <ele>915.2</ele>
        <time>2022-05-23 14:27:38</time>
      </trkpt>
      <trkpt lat="41.98567" lon="0.74689">
        <ele>915.2</ele>
        <time>2022-05-23 14:27:39</time>
      </trkpt>
      <trkpt lat="41.98565" lon="0.7469">
        <ele>915.4</ele>
        <time>2022-05-23 14:27:40</time>
      </trkpt>
      <trkpt lat="41.98564" lon="0.74693">
        <ele>915.4</ele>
        <time>2022-05-23 14:27:41</time>
      </trkpt>
      <trkpt lat="41.98563" lon="0.74694">
        <ele>915.6</ele>
        <time>2022-05-23 14:27:42</time>
      </trkpt>
      <trkpt lat="41.98561" lon="0.74697">
        <ele>915.8</ele>
        <time>2022-05-23 14:27:43</time>
      </trkpt>
      <trkpt lat="41.9856" lon="0.74699">
        <ele>915.8</ele>
        <time>2022-05-23 14:27:44</time>
      </trkpt>
      <trkpt lat="41.98559" lon="0.74701">
        <ele>916</ele>
        <time>2022-05-23 14:27:45</time>
      </trkpt>
      <trkpt lat="41.98558" lon="0.74703">
        <ele>916.2</ele>
        <time>2022-05-23 14:27:46</time>
      </trkpt>
      <trkpt lat="41.98557" lon="0.74705">
        <ele>916.4</ele>
        <time>2022-05-23 14:27:47</time>
      </trkpt>
      <trkpt lat="41.98555" lon="0.74706">
        <ele>916.6</ele>
        <time>2022-05-23 14:27:48</time>
      </trkpt>
      <trkpt lat="41.98553" lon="0.74708">
        <ele>916.6</ele>
        <time>2022-05-23 14:27:49</time>
      </trkpt>
      <trkpt lat="41.98552" lon="0.7471">
        <ele>916.8</ele>
        <time>2022-05-23 14:27:50</time>
      </trkpt>
      <trkpt lat="41.9855" lon="0.74712">
        <ele>917</ele>
        <time>2022-05-23 14:27:51</time>
      </trkpt>
      <trkpt lat="41.98549" lon="0.74714">
        <ele>917.2</ele>
        <time>2022-05-23 14:27:52</time>
      </trkpt>
      <trkpt lat="41.98548" lon="0.74715">
        <ele>917.4</ele>
        <time>2022-05-23 14:27:53</time>
      </trkpt>
      <trkpt lat="41.98546" lon="0.74717">
        <ele>917.4</ele>
        <time>2022-05-23 14:27:54</time>
      </trkpt>
      <trkpt lat="41.98545" lon="0.74719">
        <ele>917.6</ele>
        <time>2022-05-23 14:27:55</time>
      </trkpt>
      <trkpt lat="41.98543" lon="0.74721">
        <ele>917.8</ele>
        <time>2022-05-23 14:27:56</time>
      </trkpt>
      <trkpt lat="41.98542" lon="0.74723">
        <ele>918</ele>
        <time>2022-05-23 14:27:57</time>
      </trkpt>
      <trkpt lat="41.9854" lon="0.74725">
        <ele>918.2</ele>
        <time>2022-05-23 14:27:58</time>
      </trkpt>
      <trkpt lat="41.98539" lon="0.74726">
        <ele>918.4</ele>
        <time>2022-05-23 14:27:59</time>
      </trkpt>
      <trkpt lat="41.98537" lon="0.74728">
        <ele>918.6</ele>
        <time>2022-05-23 14:28:00</time>
      </trkpt>
      <trkpt lat="41.98535" lon="0.7473">
        <ele>918.6</ele>
        <time>2022-05-23 14:28:01</time>
      </trkpt>
      <trkpt lat="41.98534" lon="0.74732">
        <ele>918.8</ele>
        <time>2022-05-23 14:28:02</time>
      </trkpt>
      <trkpt lat="41.98532" lon="0.74734">
        <ele>919</ele>
        <time>2022-05-23 14:28:03</time>
      </trkpt>
      <trkpt lat="41.9853" lon="0.74736">
        <ele>919.2</ele>
        <time>2022-05-23 14:28:04</time>
      </trkpt>
      <trkpt lat="41.98529" lon="0.74738">
        <ele>919.4</ele>
        <time>2022-05-23 14:28:05</time>
      </trkpt>
      <trkpt lat="41.98527" lon="0.7474">
        <ele>919.6</ele>
        <time>2022-05-23 14:28:06</time>
      </trkpt>
      <trkpt lat="41.98525" lon="0.74741">
        <ele>919.6</ele>
        <time>2022-05-23 14:28:07</time>
      </trkpt>
      <trkpt lat="41.98523" lon="0.74743">
        <ele>919.8</ele>
        <time>2022-05-23 14:28:08</time>
      </trkpt>
      <trkpt lat="41.98522" lon="0.74745">
        <ele>920</ele>
        <time>2022-05-23 14:28:09</time>
      </trkpt>
      <trkpt lat="41.9852" lon="0.74747">
        <ele>920.2</ele>
        <time>2022-05-23 14:28:10</time>
      </trkpt>
      <trkpt lat="41.98518" lon="0.74748">
        <ele>920.4</ele>
        <time>2022-05-23 14:28:11</time>
      </trkpt>
      <trkpt lat="41.98516" lon="0.7475">
        <ele>920.6</ele>
        <time>2022-05-23 14:28:12</time>
      </trkpt>
      <trkpt lat="41.98514" lon="0.74752">
        <ele>920.6</ele>
        <time>2022-05-23 14:28:13</time>
      </trkpt>
      <trkpt lat="41.98512" lon="0.74754">
        <ele>920.8</ele>
        <time>2022-05-23 14:28:14</time>
      </trkpt>
      <trkpt lat="41.9851" lon="0.74755">
        <ele>921</ele>
        <time>2022-05-23 14:28:15</time>
      </trkpt>
      <trkpt lat="41.98508" lon="0.74757">
        <ele>921.2</ele>
        <time>2022-05-23 14:28:16</time>
      </trkpt>
      <trkpt lat="41.98506" lon="0.74759">
        <ele>921.4</ele>
        <time>2022-05-23 14:28:17</time>
      </trkpt>
      <trkpt lat="41.98505" lon="0.7476">
        <ele>921.6</ele>
        <time>2022-05-23 14:28:18</time>
      </trkpt>
      <trkpt lat="41.98503" lon="0.74762">
        <ele>921.8</ele>
        <time>2022-05-23 14:28:19</time>
      </trkpt>
      <trkpt lat="41.98501" lon="0.74763">
        <ele>922</ele>
        <time>2022-05-23 14:28:20</time>
      </trkpt>
      <trkpt lat="41.985" lon="0.74765">
        <ele>922.2</ele>
        <time>2022-05-23 14:28:21</time>
      </trkpt>
      <trkpt lat="41.98498" lon="0.74766">
        <ele>922.4</ele>
        <time>2022-05-23 14:28:22</time>
      </trkpt>
      <trkpt lat="41.98496" lon="0.74768">
        <ele>922.6</ele>
        <time>2022-05-23 14:28:23</time>
      </trkpt>
      <trkpt lat="41.98494" lon="0.74769">
        <ele>922.8</ele>
        <time>2022-05-23 14:28:24</time>
      </trkpt>
      <trkpt lat="41.98493" lon="0.7477">
        <ele>922.8</ele>
        <time>2022-05-23 14:28:25</time>
      </trkpt>
      <trkpt lat="41.98491" lon="0.74771">
        <ele>923</ele>
        <time>2022-05-23 14:28:26</time>
      </trkpt>
      <trkpt lat="41.98489" lon="0.74772">
        <ele>923.4</ele>
        <time>2022-05-23 14:28:27</time>
      </trkpt>
      <trkpt lat="41.98487" lon="0.74773">
        <ele>923.4</ele>
        <time>2022-05-23 14:28:28</time>
      </trkpt>
      <trkpt lat="41.98486" lon="0.74775">
        <ele>923.6</ele>
        <time>2022-05-23 14:28:29</time>
      </trkpt>
      <trkpt lat="41.98484" lon="0.74776">
        <ele>923.6</ele>
        <time>2022-05-23 14:28:30</time>
      </trkpt>
      <trkpt lat="41.98482" lon="0.74777">
        <ele>923.8</ele>
        <time>2022-05-23 14:28:31</time>
      </trkpt>
      <trkpt lat="41.98481" lon="0.74777">
        <ele>923.8</ele>
        <time>2022-05-23 14:28:32</time>
      </trkpt>
      <trkpt lat="41.98479" lon="0.74779">
        <ele>924</ele>
        <time>2022-05-23 14:28:33</time>
      </trkpt>
      <trkpt lat="41.98478" lon="0.7478">
        <ele>924</ele>
        <time>2022-05-23 14:28:34</time>
      </trkpt>
      <trkpt lat="41.98476" lon="0.74781">
        <ele>924</ele>
        <time>2022-05-23 14:28:35</time>
      </trkpt>
      <trkpt lat="41.98474" lon="0.74782">
        <ele>924.2</ele>
        <time>2022-05-23 14:28:36</time>
      </trkpt>
      <trkpt lat="41.98473" lon="0.74783">
        <ele>924.2</ele>
        <time>2022-05-23 14:28:37</time>
      </trkpt>
      <trkpt lat="41.98471" lon="0.74784">
        <ele>924.4</ele>
        <time>2022-05-23 14:28:38</time>
      </trkpt>
      <trkpt lat="41.98469" lon="0.74785">
        <ele>924.6</ele>
        <time>2022-05-23 14:28:39</time>
      </trkpt>
      <trkpt lat="41.98468" lon="0.74786">
        <ele>924.6</ele>
        <time>2022-05-23 14:28:40</time>
      </trkpt>
      <trkpt lat="41.98466" lon="0.74787">
        <ele>924.8</ele>
        <time>2022-05-23 14:28:41</time>
      </trkpt>
      <trkpt lat="41.98465" lon="0.74788">
        <ele>925</ele>
        <time>2022-05-23 14:28:42</time>
      </trkpt>
      <trkpt lat="41.98463" lon="0.74788">
        <ele>925.2</ele>
        <time>2022-05-23 14:28:43</time>
      </trkpt>
      <trkpt lat="41.98461" lon="0.74789">
        <ele>925.2</ele>
        <time>2022-05-23 14:28:44</time>
      </trkpt>
      <trkpt lat="41.9846" lon="0.7479">
        <ele>925.4</ele>
        <time>2022-05-23 14:28:45</time>
      </trkpt>
      <trkpt lat="41.98458" lon="0.7479">
        <ele>925.4</ele>
        <time>2022-05-23 14:28:46</time>
      </trkpt>
      <trkpt lat="41.98456" lon="0.74791">
        <ele>925.6</ele>
        <time>2022-05-23 14:28:47</time>
      </trkpt>
      <trkpt lat="41.98454" lon="0.74792">
        <ele>925.8</ele>
        <time>2022-05-23 14:28:48</time>
      </trkpt>
      <trkpt lat="41.98452" lon="0.74793">
        <ele>925.8</ele>
        <time>2022-05-23 14:28:49</time>
      </trkpt>
      <trkpt lat="41.98451" lon="0.74794">
        <ele>926</ele>
        <time>2022-05-23 14:28:50</time>
      </trkpt>
      <trkpt lat="41.98449" lon="0.74794">
        <ele>926.2</ele>
        <time>2022-05-23 14:28:51</time>
      </trkpt>
      <trkpt lat="41.98447" lon="0.74795">
        <ele>926.4</ele>
        <time>2022-05-23 14:28:52</time>
      </trkpt>
      <trkpt lat="41.98445" lon="0.74795">
        <ele>926.4</ele>
        <time>2022-05-23 14:28:53</time>
      </trkpt>
      <trkpt lat="41.98443" lon="0.74797">
        <ele>926.6</ele>
        <time>2022-05-23 14:28:54</time>
      </trkpt>
      <trkpt lat="41.98441" lon="0.74798">
        <ele>926.6</ele>
        <time>2022-05-23 14:28:55</time>
      </trkpt>
      <trkpt lat="41.98439" lon="0.74799">
        <ele>926.8</ele>
        <time>2022-05-23 14:28:56</time>
      </trkpt>
      <trkpt lat="41.98437" lon="0.748">
        <ele>927</ele>
        <time>2022-05-23 14:28:57</time>
      </trkpt>
      <trkpt lat="41.98435" lon="0.74801">
        <ele>927</ele>
        <time>2022-05-23 14:28:58</time>
      </trkpt>
      <trkpt lat="41.98433" lon="0.74802">
        <ele>927.2</ele>
        <time>2022-05-23 14:28:59</time>
      </trkpt>
      <trkpt lat="41.98431" lon="0.74802">
        <ele>927.4</ele>
        <time>2022-05-23 14:29:00</time>
      </trkpt>
      <trkpt lat="41.98429" lon="0.74803">
        <ele>927.4</ele>
        <time>2022-05-23 14:29:01</time>
      </trkpt>
      <trkpt lat="41.98427" lon="0.74803">
        <ele>927.6</ele>
        <time>2022-05-23 14:29:02</time>
      </trkpt>
      <trkpt lat="41.98425" lon="0.74804">
        <ele>927.8</ele>
        <time>2022-05-23 14:29:03</time>
      </trkpt>
      <trkpt lat="41.98423" lon="0.74805">
        <ele>927.8</ele>
        <time>2022-05-23 14:29:04</time>
      </trkpt>
      <trkpt lat="41.98421" lon="0.74805">
        <ele>928</ele>
        <time>2022-05-23 14:29:05</time>
      </trkpt>
      <trkpt lat="41.98419" lon="0.74806">
        <ele>928.2</ele>
        <time>2022-05-23 14:29:06</time>
      </trkpt>
      <trkpt lat="41.98418" lon="0.74807">
        <ele>928.4</ele>
        <time>2022-05-23 14:29:07</time>
      </trkpt>
      <trkpt lat="41.98416" lon="0.74807">
        <ele>928.4</ele>
        <time>2022-05-23 14:29:08</time>
      </trkpt>
      <trkpt lat="41.98414" lon="0.74807">
        <ele>928.6</ele>
        <time>2022-05-23 14:29:09</time>
      </trkpt>
      <trkpt lat="41.98412" lon="0.74807">
        <ele>928.8</ele>
        <time>2022-05-23 14:29:10</time>
      </trkpt>
      <trkpt lat="41.9841" lon="0.74807">
        <ele>929</ele>
        <time>2022-05-23 14:29:11</time>
      </trkpt>
      <trkpt lat="41.98408" lon="0.74808">
        <ele>929.2</ele>
        <time>2022-05-23 14:29:12</time>
      </trkpt>
      <trkpt lat="41.98407" lon="0.74808">
        <ele>929.4</ele>
        <time>2022-05-23 14:29:13</time>
      </trkpt>
      <trkpt lat="41.98405" lon="0.74808">
        <ele>929.4</ele>
        <time>2022-05-23 14:29:14</time>
      </trkpt>
      <trkpt lat="41.98403" lon="0.74808">
        <ele>929.6</ele>
        <time>2022-05-23 14:29:15</time>
      </trkpt>
      <trkpt lat="41.98401" lon="0.74808">
        <ele>929.8</ele>
        <time>2022-05-23 14:29:16</time>
      </trkpt>
      <trkpt lat="41.98399" lon="0.74808">
        <ele>930</ele>
        <time>2022-05-23 14:29:17</time>
      </trkpt>
      <trkpt lat="41.98397" lon="0.74809">
        <ele>930.2</ele>
        <time>2022-05-23 14:29:18</time>
      </trkpt>
      <trkpt lat="41.98396" lon="0.74809">
        <ele>930.4</ele>
        <time>2022-05-23 14:29:19</time>
      </trkpt>
      <trkpt lat="41.98394" lon="0.7481">
        <ele>930.6</ele>
        <time>2022-05-23 14:29:20</time>
      </trkpt>
      <trkpt lat="41.98392" lon="0.7481">
        <ele>930.8</ele>
        <time>2022-05-23 14:29:21</time>
      </trkpt>
      <trkpt lat="41.9839" lon="0.7481">
        <ele>931</ele>
        <time>2022-05-23 14:29:22</time>
      </trkpt>
      <trkpt lat="41.98389" lon="0.7481">
        <ele>931.2</ele>
        <time>2022-05-23 14:29:23</time>
      </trkpt>
      <trkpt lat="41.98387" lon="0.7481">
        <ele>931.2</ele>
        <time>2022-05-23 14:29:24</time>
      </trkpt>
      <trkpt lat="41.98385" lon="0.74809">
        <ele>931.4</ele>
        <time>2022-05-23 14:29:25</time>
      </trkpt>
      <trkpt lat="41.98383" lon="0.74809">
        <ele>931.6</ele>
        <time>2022-05-23 14:29:26</time>
      </trkpt>
      <trkpt lat="41.98382" lon="0.74809">
        <ele>931.8</ele>
        <time>2022-05-23 14:29:27</time>
      </trkpt>
      <trkpt lat="41.9838" lon="0.74809">
        <ele>931.8</ele>
        <time>2022-05-23 14:29:28</time>
      </trkpt>
      <trkpt lat="41.98378" lon="0.74809">
        <ele>932</ele>
        <time>2022-05-23 14:29:29</time>
      </trkpt>
      <trkpt lat="41.98376" lon="0.74808">
        <ele>932.2</ele>
        <time>2022-05-23 14:29:30</time>
      </trkpt>
      <trkpt lat="41.98375" lon="0.74808">
        <ele>932.4</ele>
        <time>2022-05-23 14:29:31</time>
      </trkpt>
      <trkpt lat="41.98373" lon="0.74808">
        <ele>932.6</ele>
        <time>2022-05-23 14:29:32</time>
      </trkpt>
      <trkpt lat="41.98371" lon="0.74808">
        <ele>932.8</ele>
        <time>2022-05-23 14:29:33</time>
      </trkpt>
      <trkpt lat="41.98369" lon="0.74807">
        <ele>933</ele>
        <time>2022-05-23 14:29:34</time>
      </trkpt>
      <trkpt lat="41.98367" lon="0.74807">
        <ele>933.2</ele>
        <time>2022-05-23 14:29:35</time>
      </trkpt>
      <trkpt lat="41.98365" lon="0.74807">
        <ele>933.4</ele>
        <time>2022-05-23 14:29:36</time>
      </trkpt>
      <trkpt lat="41.98363" lon="0.74806">
        <ele>933.4</ele>
        <time>2022-05-23 14:29:37</time>
      </trkpt>
      <trkpt lat="41.98361" lon="0.74806">
        <ele>933.6</ele>
        <time>2022-05-23 14:29:38</time>
      </trkpt>
      <trkpt lat="41.9836" lon="0.74806">
        <ele>933.8</ele>
        <time>2022-05-23 14:29:39</time>
      </trkpt>
      <trkpt lat="41.98358" lon="0.74805">
        <ele>934</ele>
        <time>2022-05-23 14:29:40</time>
      </trkpt>
      <trkpt lat="41.98356" lon="0.74805">
        <ele>934.2</ele>
        <time>2022-05-23 14:29:41</time>
      </trkpt>
      <trkpt lat="41.98354" lon="0.74805">
        <ele>934.2</ele>
        <time>2022-05-23 14:29:42</time>
      </trkpt>
      <trkpt lat="41.98352" lon="0.74805">
        <ele>934.4</ele>
        <time>2022-05-23 14:29:43</time>
      </trkpt>
      <trkpt lat="41.9835" lon="0.74805">
        <ele>934.6</ele>
        <time>2022-05-23 14:29:44</time>
      </trkpt>
      <trkpt lat="41.98348" lon="0.74805">
        <ele>934.8</ele>
        <time>2022-05-23 14:29:45</time>
      </trkpt>
      <trkpt lat="41.98346" lon="0.74804">
        <ele>935</ele>
        <time>2022-05-23 14:29:46</time>
      </trkpt>
      <trkpt lat="41.98344" lon="0.74804">
        <ele>935.2</ele>
        <time>2022-05-23 14:29:47</time>
      </trkpt>
      <trkpt lat="41.98342" lon="0.74803">
        <ele>935.4</ele>
        <time>2022-05-23 14:29:48</time>
      </trkpt>
      <trkpt lat="41.98341" lon="0.74803">
        <ele>935.6</ele>
        <time>2022-05-23 14:29:49</time>
      </trkpt>
      <trkpt lat="41.98339" lon="0.74802">
        <ele>935.8</ele>
        <time>2022-05-23 14:29:50</time>
      </trkpt>
      <trkpt lat="41.98337" lon="0.74802">
        <ele>936</ele>
        <time>2022-05-23 14:29:51</time>
      </trkpt>
      <trkpt lat="41.98335" lon="0.74802">
        <ele>936.2</ele>
        <time>2022-05-23 14:29:52</time>
      </trkpt>
      <trkpt lat="41.98333" lon="0.74801">
        <ele>936.4</ele>
        <time>2022-05-23 14:29:53</time>
      </trkpt>
      <trkpt lat="41.98331" lon="0.748">
        <ele>936.6</ele>
        <time>2022-05-23 14:29:54</time>
      </trkpt>
      <trkpt lat="41.98329" lon="0.74799">
        <ele>936.8</ele>
        <time>2022-05-23 14:29:55</time>
      </trkpt>
      <trkpt lat="41.98328" lon="0.74799">
        <ele>936.8</ele>
        <time>2022-05-23 14:29:56</time>
      </trkpt>
      <trkpt lat="41.98326" lon="0.74799">
        <ele>937</ele>
        <time>2022-05-23 14:29:57</time>
      </trkpt>
      <trkpt lat="41.98324" lon="0.74798">
        <ele>937.2</ele>
        <time>2022-05-23 14:29:58</time>
      </trkpt>
      <trkpt lat="41.98323" lon="0.74797">
        <ele>937.4</ele>
        <time>2022-05-23 14:29:59</time>
      </trkpt>
      <trkpt lat="41.98321" lon="0.74796">
        <ele>937.6</ele>
        <time>2022-05-23 14:30:00</time>
      </trkpt>
      <trkpt lat="41.98319" lon="0.74796">
        <ele>937.8</ele>
        <time>2022-05-23 14:30:01</time>
      </trkpt>
      <trkpt lat="41.98317" lon="0.74795">
        <ele>938</ele>
        <time>2022-05-23 14:30:02</time>
      </trkpt>
      <trkpt lat="41.98315" lon="0.74794">
        <ele>938.2</ele>
        <time>2022-05-23 14:30:03</time>
      </trkpt>
      <trkpt lat="41.98313" lon="0.74794">
        <ele>938.2</ele>
        <time>2022-05-23 14:30:04</time>
      </trkpt>
      <trkpt lat="41.98312" lon="0.74793">
        <ele>938.4</ele>
        <time>2022-05-23 14:30:05</time>
      </trkpt>
      <trkpt lat="41.9831" lon="0.74792">
        <ele>938.6</ele>
        <time>2022-05-23 14:30:06</time>
      </trkpt>
      <trkpt lat="41.98308" lon="0.74791">
        <ele>938.8</ele>
        <time>2022-05-23 14:30:07</time>
      </trkpt>
      <trkpt lat="41.98307" lon="0.7479">
        <ele>939</ele>
        <time>2022-05-23 14:30:08</time>
      </trkpt>
      <trkpt lat="41.98305" lon="0.7479">
        <ele>939.2</ele>
        <time>2022-05-23 14:30:09</time>
      </trkpt>
      <trkpt lat="41.98303" lon="0.74789">
        <ele>939.4</ele>
        <time>2022-05-23 14:30:10</time>
      </trkpt>
      <trkpt lat="41.98301" lon="0.74787">
        <ele>939.6</ele>
        <time>2022-05-23 14:30:11</time>
      </trkpt>
      <trkpt lat="41.983" lon="0.74786">
        <ele>939.6</ele>
        <time>2022-05-23 14:30:12</time>
      </trkpt>
      <trkpt lat="41.98298" lon="0.74785">
        <ele>939.8</ele>
        <time>2022-05-23 14:30:13</time>
      </trkpt>
      <trkpt lat="41.98296" lon="0.74784">
        <ele>939.8</ele>
        <time>2022-05-23 14:30:14</time>
      </trkpt>
      <trkpt lat="41.98294" lon="0.74783">
        <ele>940</ele>
        <time>2022-05-23 14:30:15</time>
      </trkpt>
      <trkpt lat="41.98292" lon="0.74782">
        <ele>940</ele>
        <time>2022-05-23 14:30:16</time>
      </trkpt>
      <trkpt lat="41.98291" lon="0.74781">
        <ele>940.2</ele>
        <time>2022-05-23 14:30:17</time>
      </trkpt>
      <trkpt lat="41.98289" lon="0.7478">
        <ele>940.4</ele>
        <time>2022-05-23 14:30:18</time>
      </trkpt>
      <trkpt lat="41.98287" lon="0.74779">
        <ele>940.4</ele>
        <time>2022-05-23 14:30:19</time>
      </trkpt>
      <trkpt lat="41.98286" lon="0.74778">
        <ele>940.6</ele>
        <time>2022-05-23 14:30:20</time>
      </trkpt>
      <trkpt lat="41.98284" lon="0.74778">
        <ele>940.8</ele>
        <time>2022-05-23 14:30:21</time>
      </trkpt>
      <trkpt lat="41.98282" lon="0.74777">
        <ele>941</ele>
        <time>2022-05-23 14:30:22</time>
      </trkpt>
      <trkpt lat="41.9828" lon="0.74776">
        <ele>941</ele>
        <time>2022-05-23 14:30:23</time>
      </trkpt>
      <trkpt lat="41.98279" lon="0.74776">
        <ele>941.2</ele>
        <time>2022-05-23 14:30:24</time>
      </trkpt>
      <trkpt lat="41.98277" lon="0.74775">
        <ele>941.4</ele>
        <time>2022-05-23 14:30:25</time>
      </trkpt>
      <trkpt lat="41.98275" lon="0.74774">
        <ele>941.6</ele>
        <time>2022-05-23 14:30:26</time>
      </trkpt>
      <trkpt lat="41.98274" lon="0.74773">
        <ele>941.8</ele>
        <time>2022-05-23 14:30:27</time>
      </trkpt>
      <trkpt lat="41.98272" lon="0.74772">
        <ele>942</ele>
        <time>2022-05-23 14:30:28</time>
      </trkpt>
      <trkpt lat="41.9827" lon="0.74771">
        <ele>942.2</ele>
        <time>2022-05-23 14:30:29</time>
      </trkpt>
      <trkpt lat="41.98269" lon="0.7477">
        <ele>942.2</ele>
        <time>2022-05-23 14:30:30</time>
      </trkpt>
      <trkpt lat="41.98267" lon="0.74768">
        <ele>942.4</ele>
        <time>2022-05-23 14:30:31</time>
      </trkpt>
      <trkpt lat="41.98266" lon="0.74768">
        <ele>942.6</ele>
        <time>2022-05-23 14:30:32</time>
      </trkpt>
      <trkpt lat="41.98264" lon="0.74767">
        <ele>942.8</ele>
        <time>2022-05-23 14:30:33</time>
      </trkpt>
      <trkpt lat="41.98262" lon="0.74766">
        <ele>943</ele>
        <time>2022-05-23 14:30:34</time>
      </trkpt>
      <trkpt lat="41.98261" lon="0.74765">
        <ele>943.2</ele>
        <time>2022-05-23 14:30:35</time>
      </trkpt>
      <trkpt lat="41.9826" lon="0.74764">
        <ele>943.4</ele>
        <time>2022-05-23 14:30:36</time>
      </trkpt>
      <trkpt lat="41.98259" lon="0.74763">
        <ele>943.6</ele>
        <time>2022-05-23 14:30:37</time>
      </trkpt>
      <trkpt lat="41.98257" lon="0.74762">
        <ele>943.6</ele>
        <time>2022-05-23 14:30:38</time>
      </trkpt>
      <trkpt lat="41.98255" lon="0.74761">
        <ele>943.8</ele>
        <time>2022-05-23 14:30:39</time>
      </trkpt>
      <trkpt lat="41.98254" lon="0.7476">
        <ele>944</ele>
        <time>2022-05-23 14:30:40</time>
      </trkpt>
      <trkpt lat="41.98252" lon="0.74759">
        <ele>944.2</ele>
        <time>2022-05-23 14:30:41</time>
      </trkpt>
      <trkpt lat="41.9825" lon="0.74758">
        <ele>944.4</ele>
        <time>2022-05-23 14:30:42</time>
      </trkpt>
      <trkpt lat="41.98248" lon="0.74757">
        <ele>944.6</ele>
        <time>2022-05-23 14:30:43</time>
      </trkpt>
      <trkpt lat="41.98246" lon="0.74755">
        <ele>944.6</ele>
        <time>2022-05-23 14:30:44</time>
      </trkpt>
      <trkpt lat="41.98244" lon="0.74754">
        <ele>944.8</ele>
        <time>2022-05-23 14:30:45</time>
      </trkpt>
      <trkpt lat="41.98242" lon="0.74753">
        <ele>944.8</ele>
        <time>2022-05-23 14:30:46</time>
      </trkpt>
      <trkpt lat="41.9824" lon="0.74752">
        <ele>945</ele>
        <time>2022-05-23 14:30:47</time>
      </trkpt>
      <trkpt lat="41.98238" lon="0.74751">
        <ele>945</ele>
        <time>2022-05-23 14:30:48</time>
      </trkpt>
      <trkpt lat="41.98237" lon="0.74749">
        <ele>945.2</ele>
        <time>2022-05-23 14:30:49</time>
      </trkpt>
      <trkpt lat="41.98235" lon="0.74748">
        <ele>945.4</ele>
        <time>2022-05-23 14:30:50</time>
      </trkpt>
      <trkpt lat="41.98233" lon="0.74747">
        <ele>945.6</ele>
        <time>2022-05-23 14:30:51</time>
      </trkpt>
      <trkpt lat="41.98231" lon="0.74747">
        <ele>945.8</ele>
        <time>2022-05-23 14:30:52</time>
      </trkpt>
      <trkpt lat="41.98229" lon="0.74746">
        <ele>946</ele>
        <time>2022-05-23 14:30:53</time>
      </trkpt>
      <trkpt lat="41.98227" lon="0.74745">
        <ele>946.2</ele>
        <time>2022-05-23 14:30:54</time>
      </trkpt>
      <trkpt lat="41.98225" lon="0.74744">
        <ele>946.4</ele>
        <time>2022-05-23 14:30:55</time>
      </trkpt>
      <trkpt lat="41.98223" lon="0.74742">
        <ele>946.6</ele>
        <time>2022-05-23 14:30:56</time>
      </trkpt>
      <trkpt lat="41.98222" lon="0.74742">
        <ele>946.6</ele>
        <time>2022-05-23 14:30:57</time>
      </trkpt>
      <trkpt lat="41.9822" lon="0.74741">
        <ele>946.8</ele>
        <time>2022-05-23 14:30:58</time>
      </trkpt>
      <trkpt lat="41.98218" lon="0.7474">
        <ele>947</ele>
        <time>2022-05-23 14:30:59</time>
      </trkpt>
      <trkpt lat="41.98217" lon="0.74739">
        <ele>947</ele>
        <time>2022-05-23 14:31:00</time>
      </trkpt>
      <trkpt lat="41.98214" lon="0.74739">
        <ele>947.2</ele>
        <time>2022-05-23 14:31:01</time>
      </trkpt>
      <trkpt lat="41.98212" lon="0.74738">
        <ele>947.4</ele>
        <time>2022-05-23 14:31:02</time>
      </trkpt>
      <trkpt lat="41.98211" lon="0.74737">
        <ele>947.6</ele>
        <time>2022-05-23 14:31:03</time>
      </trkpt>
      <trkpt lat="41.98209" lon="0.74735">
        <ele>947.6</ele>
        <time>2022-05-23 14:31:04</time>
      </trkpt>
      <trkpt lat="41.98207" lon="0.74735">
        <ele>947.8</ele>
        <time>2022-05-23 14:31:05</time>
      </trkpt>
      <trkpt lat="41.98205" lon="0.74734">
        <ele>948</ele>
        <time>2022-05-23 14:31:06</time>
      </trkpt>
      <trkpt lat="41.98204" lon="0.74733">
        <ele>948.2</ele>
        <time>2022-05-23 14:31:07</time>
      </trkpt>
      <trkpt lat="41.98202" lon="0.74732">
        <ele>948.2</ele>
        <time>2022-05-23 14:31:08</time>
      </trkpt>
      <trkpt lat="41.982" lon="0.74731">
        <ele>948.4</ele>
        <time>2022-05-23 14:31:09</time>
      </trkpt>
      <trkpt lat="41.98199" lon="0.7473">
        <ele>948.6</ele>
        <time>2022-05-23 14:31:10</time>
      </trkpt>
      <trkpt lat="41.98197" lon="0.7473">
        <ele>948.6</ele>
        <time>2022-05-23 14:31:11</time>
      </trkpt>
      <trkpt lat="41.98195" lon="0.74729">
        <ele>948.8</ele>
        <time>2022-05-23 14:31:12</time>
      </trkpt>
      <trkpt lat="41.98193" lon="0.74729">
        <ele>949</ele>
        <time>2022-05-23 14:31:13</time>
      </trkpt>
      <trkpt lat="41.98191" lon="0.74728">
        <ele>949</ele>
        <time>2022-05-23 14:31:14</time>
      </trkpt>
      <trkpt lat="41.98189" lon="0.74728">
        <ele>949.2</ele>
        <time>2022-05-23 14:31:15</time>
      </trkpt>
      <trkpt lat="41.98188" lon="0.74728">
        <ele>949.4</ele>
        <time>2022-05-23 14:31:16</time>
      </trkpt>
      <trkpt lat="41.98186" lon="0.74727">
        <ele>949.4</ele>
        <time>2022-05-23 14:31:17</time>
      </trkpt>
      <trkpt lat="41.98184" lon="0.74726">
        <ele>949.6</ele>
        <time>2022-05-23 14:31:18</time>
      </trkpt>
      <trkpt lat="41.98183" lon="0.74726">
        <ele>949.8</ele>
        <time>2022-05-23 14:31:19</time>
      </trkpt>
      <trkpt lat="41.98181" lon="0.74725">
        <ele>950</ele>
        <time>2022-05-23 14:31:20</time>
      </trkpt>
      <trkpt lat="41.98179" lon="0.74725">
        <ele>950.2</ele>
        <time>2022-05-23 14:31:21</time>
      </trkpt>
      <trkpt lat="41.98177" lon="0.74725">
        <ele>950.4</ele>
        <time>2022-05-23 14:31:22</time>
      </trkpt>
      <trkpt lat="41.98176" lon="0.74725">
        <ele>950.6</ele>
        <time>2022-05-23 14:31:23</time>
      </trkpt>
      <trkpt lat="41.98174" lon="0.74724">
        <ele>950.8</ele>
        <time>2022-05-23 14:31:24</time>
      </trkpt>
      <trkpt lat="41.98172" lon="0.74725">
        <ele>950.8</ele>
        <time>2022-05-23 14:31:25</time>
      </trkpt>
      <trkpt lat="41.98171" lon="0.74725">
        <ele>951</ele>
        <time>2022-05-23 14:31:26</time>
      </trkpt>
      <trkpt lat="41.98169" lon="0.74725">
        <ele>951.2</ele>
        <time>2022-05-23 14:31:27</time>
      </trkpt>
      <trkpt lat="41.98167" lon="0.74724">
        <ele>951.2</ele>
        <time>2022-05-23 14:31:28</time>
      </trkpt>
      <trkpt lat="41.98165" lon="0.74724">
        <ele>951.4</ele>
        <time>2022-05-23 14:31:29</time>
      </trkpt>
      <trkpt lat="41.98164" lon="0.74724">
        <ele>951.6</ele>
        <time>2022-05-23 14:31:30</time>
      </trkpt>
      <trkpt lat="41.98162" lon="0.74723">
        <ele>951.6</ele>
        <time>2022-05-23 14:31:31</time>
      </trkpt>
      <trkpt lat="41.9816" lon="0.74723">
        <ele>951.8</ele>
        <time>2022-05-23 14:31:32</time>
      </trkpt>
      <trkpt lat="41.98158" lon="0.74723">
        <ele>952</ele>
        <time>2022-05-23 14:31:33</time>
      </trkpt>
      <trkpt lat="41.98157" lon="0.74723">
        <ele>952.2</ele>
        <time>2022-05-23 14:31:34</time>
      </trkpt>
      <trkpt lat="41.98155" lon="0.74723">
        <ele>952.4</ele>
        <time>2022-05-23 14:31:35</time>
      </trkpt>
      <trkpt lat="41.98153" lon="0.74722">
        <ele>952.6</ele>
        <time>2022-05-23 14:31:36</time>
      </trkpt>
      <trkpt lat="41.98151" lon="0.74723">
        <ele>952.8</ele>
        <time>2022-05-23 14:31:37</time>
      </trkpt>
      <trkpt lat="41.98149" lon="0.74723">
        <ele>953</ele>
        <time>2022-05-23 14:31:38</time>
      </trkpt>
      <trkpt lat="41.98147" lon="0.74723">
        <ele>953.2</ele>
        <time>2022-05-23 14:31:39</time>
      </trkpt>
      <trkpt lat="41.98145" lon="0.74722">
        <ele>953.4</ele>
        <time>2022-05-23 14:31:40</time>
      </trkpt>
      <trkpt lat="41.98143" lon="0.74722">
        <ele>953.6</ele>
        <time>2022-05-23 14:31:41</time>
      </trkpt>
      <trkpt lat="41.98141" lon="0.74723">
        <ele>953.8</ele>
        <time>2022-05-23 14:31:42</time>
      </trkpt>
      <trkpt lat="41.98139" lon="0.74723">
        <ele>954</ele>
        <time>2022-05-23 14:31:43</time>
      </trkpt>
      <trkpt lat="41.98137" lon="0.74724">
        <ele>954.2</ele>
        <time>2022-05-23 14:31:44</time>
      </trkpt>
      <trkpt lat="41.98135" lon="0.74724">
        <ele>954.2</ele>
        <time>2022-05-23 14:31:45</time>
      </trkpt>
      <trkpt lat="41.98133" lon="0.74725">
        <ele>954.4</ele>
        <time>2022-05-23 14:31:46</time>
      </trkpt>
      <trkpt lat="41.9813" lon="0.74726">
        <ele>954.6</ele>
        <time>2022-05-23 14:31:47</time>
      </trkpt>
      <trkpt lat="41.98128" lon="0.74726">
        <ele>954.8</ele>
        <time>2022-05-23 14:31:48</time>
      </trkpt>
      <trkpt lat="41.98125" lon="0.74726">
        <ele>955</ele>
        <time>2022-05-23 14:31:49</time>
      </trkpt>
      <trkpt lat="41.98123" lon="0.74727">
        <ele>955</ele>
        <time>2022-05-23 14:31:50</time>
      </trkpt>
      <trkpt lat="41.9812" lon="0.74727">
        <ele>955.2</ele>
        <time>2022-05-23 14:31:51</time>
      </trkpt>
      <trkpt lat="41.98118" lon="0.74728">
        <ele>955.4</ele>
        <time>2022-05-23 14:31:52</time>
      </trkpt>
      <trkpt lat="41.98115" lon="0.74729">
        <ele>955.6</ele>
        <time>2022-05-23 14:31:53</time>
      </trkpt>
      <trkpt lat="41.98112" lon="0.7473">
        <ele>955.8</ele>
        <time>2022-05-23 14:31:54</time>
      </trkpt>
      <trkpt lat="41.9811" lon="0.7473">
        <ele>956</ele>
        <time>2022-05-23 14:31:55</time>
      </trkpt>
      <trkpt lat="41.98107" lon="0.74731">
        <ele>956.2</ele>
        <time>2022-05-23 14:31:56</time>
      </trkpt>
      <trkpt lat="41.98104" lon="0.74732">
        <ele>956.4</ele>
        <time>2022-05-23 14:31:57</time>
      </trkpt>
      <trkpt lat="41.98102" lon="0.74733">
        <ele>956.6</ele>
        <time>2022-05-23 14:31:58</time>
      </trkpt>
      <trkpt lat="41.98099" lon="0.74734">
        <ele>956.8</ele>
        <time>2022-05-23 14:31:59</time>
      </trkpt>
      <trkpt lat="41.98097" lon="0.74735">
        <ele>957</ele>
        <time>2022-05-23 14:32:00</time>
      </trkpt>
      <trkpt lat="41.98095" lon="0.74736">
        <ele>957.2</ele>
        <time>2022-05-23 14:32:01</time>
      </trkpt>
      <trkpt lat="41.98093" lon="0.74737">
        <ele>957.4</ele>
        <time>2022-05-23 14:32:02</time>
      </trkpt>
      <trkpt lat="41.98091" lon="0.74738">
        <ele>957.6</ele>
        <time>2022-05-23 14:32:03</time>
      </trkpt>
      <trkpt lat="41.98088" lon="0.74739">
        <ele>957.6</ele>
        <time>2022-05-23 14:32:04</time>
      </trkpt>
      <trkpt lat="41.98086" lon="0.7474">
        <ele>957.8</ele>
        <time>2022-05-23 14:32:05</time>
      </trkpt>
      <trkpt lat="41.98084" lon="0.74741">
        <ele>958</ele>
        <time>2022-05-23 14:32:06</time>
      </trkpt>
      <trkpt lat="41.98082" lon="0.74743">
        <ele>958.2</ele>
        <time>2022-05-23 14:32:07</time>
      </trkpt>
      <trkpt lat="41.9808" lon="0.74744">
        <ele>958.2</ele>
        <time>2022-05-23 14:32:08</time>
      </trkpt>
      <trkpt lat="41.98078" lon="0.74746">
        <ele>958.4</ele>
        <time>2022-05-23 14:32:09</time>
      </trkpt>
      <trkpt lat="41.98076" lon="0.74747">
        <ele>958.6</ele>
        <time>2022-05-23 14:32:10</time>
      </trkpt>
      <trkpt lat="41.98074" lon="0.74749">
        <ele>958.8</ele>
        <time>2022-05-23 14:32:11</time>
      </trkpt>
      <trkpt lat="41.98072" lon="0.74751">
        <ele>958.8</ele>
        <time>2022-05-23 14:32:12</time>
      </trkpt>
      <trkpt lat="41.9807" lon="0.74752">
        <ele>959</ele>
        <time>2022-05-23 14:32:13</time>
      </trkpt>
      <trkpt lat="41.98068" lon="0.74753">
        <ele>959.2</ele>
        <time>2022-05-23 14:32:14</time>
      </trkpt>
      <trkpt lat="41.98066" lon="0.74754">
        <ele>959.2</ele>
        <time>2022-05-23 14:32:15</time>
      </trkpt>
      <trkpt lat="41.98064" lon="0.74756">
        <ele>959.4</ele>
        <time>2022-05-23 14:32:16</time>
      </trkpt>
      <trkpt lat="41.98062" lon="0.74757">
        <ele>959.4</ele>
        <time>2022-05-23 14:32:17</time>
      </trkpt>
      <trkpt lat="41.9806" lon="0.74759">
        <ele>959.6</ele>
        <time>2022-05-23 14:32:18</time>
      </trkpt>
      <trkpt lat="41.98058" lon="0.7476">
        <ele>959.8</ele>
        <time>2022-05-23 14:32:19</time>
      </trkpt>
      <trkpt lat="41.98056" lon="0.74761">
        <ele>960</ele>
        <time>2022-05-23 14:32:20</time>
      </trkpt>
      <trkpt lat="41.98054" lon="0.74763">
        <ele>960.2</ele>
        <time>2022-05-23 14:32:21</time>
      </trkpt>
      <trkpt lat="41.98053" lon="0.74765">
        <ele>960.4</ele>
        <time>2022-05-23 14:32:22</time>
      </trkpt>
      <trkpt lat="41.98051" lon="0.74766">
        <ele>960.4</ele>
        <time>2022-05-23 14:32:23</time>
      </trkpt>
      <trkpt lat="41.98049" lon="0.74768">
        <ele>960.6</ele>
        <time>2022-05-23 14:32:24</time>
      </trkpt>
      <trkpt lat="41.98047" lon="0.7477">
        <ele>960.8</ele>
        <time>2022-05-23 14:32:25</time>
      </trkpt>
      <trkpt lat="41.98045" lon="0.74772">
        <ele>961</ele>
        <time>2022-05-23 14:32:26</time>
      </trkpt>
      <trkpt lat="41.98043" lon="0.74774">
        <ele>961.2</ele>
        <time>2022-05-23 14:32:27</time>
      </trkpt>
      <trkpt lat="41.98041" lon="0.74776">
        <ele>961.4</ele>
        <time>2022-05-23 14:32:28</time>
      </trkpt>
      <trkpt lat="41.98039" lon="0.74779">
        <ele>961.6</ele>
        <time>2022-05-23 14:32:29</time>
      </trkpt>
      <trkpt lat="41.98037" lon="0.74781">
        <ele>961.6</ele>
        <time>2022-05-23 14:32:30</time>
      </trkpt>
      <trkpt lat="41.98036" lon="0.74783">
        <ele>961.8</ele>
        <time>2022-05-23 14:32:31</time>
      </trkpt>
      <trkpt lat="41.98034" lon="0.74785">
        <ele>962</ele>
        <time>2022-05-23 14:32:32</time>
      </trkpt>
      <trkpt lat="41.98032" lon="0.74787">
        <ele>962.2</ele>
        <time>2022-05-23 14:32:33</time>
      </trkpt>
      <trkpt lat="41.9803" lon="0.74789">
        <ele>962.4</ele>
        <time>2022-05-23 14:32:34</time>
      </trkpt>
      <trkpt lat="41.98028" lon="0.74792">
        <ele>962.6</ele>
        <time>2022-05-23 14:32:35</time>
      </trkpt>
      <trkpt lat="41.98026" lon="0.74794">
        <ele>962.8</ele>
        <time>2022-05-23 14:32:36</time>
      </trkpt>
      <trkpt lat="41.98024" lon="0.74796">
        <ele>963</ele>
        <time>2022-05-23 14:32:37</time>
      </trkpt>
      <trkpt lat="41.98022" lon="0.74799">
        <ele>963.2</ele>
        <time>2022-05-23 14:32:38</time>
      </trkpt>
      <trkpt lat="41.9802" lon="0.74801">
        <ele>963.2</ele>
        <time>2022-05-23 14:32:39</time>
      </trkpt>
      <trkpt lat="41.98019" lon="0.74804">
        <ele>963.4</ele>
        <time>2022-05-23 14:32:40</time>
      </trkpt>
      <trkpt lat="41.98017" lon="0.74806">
        <ele>963.6</ele>
        <time>2022-05-23 14:32:41</time>
      </trkpt>
      <trkpt lat="41.98016" lon="0.74809">
        <ele>963.8</ele>
        <time>2022-05-23 14:32:42</time>
      </trkpt>
      <trkpt lat="41.98014" lon="0.74812">
        <ele>964</ele>
        <time>2022-05-23 14:32:43</time>
      </trkpt>
      <trkpt lat="41.98012" lon="0.74815">
        <ele>964.2</ele>
        <time>2022-05-23 14:32:44</time>
      </trkpt>
      <trkpt lat="41.98011" lon="0.74818">
        <ele>964.2</ele>
        <time>2022-05-23 14:32:45</time>
      </trkpt>
      <trkpt lat="41.98009" lon="0.74821">
        <ele>964.4</ele>
        <time>2022-05-23 14:32:46</time>
      </trkpt>
      <trkpt lat="41.98008" lon="0.74825">
        <ele>964.6</ele>
        <time>2022-05-23 14:32:47</time>
      </trkpt>
      <trkpt lat="41.98006" lon="0.74828">
        <ele>964.6</ele>
        <time>2022-05-23 14:32:48</time>
      </trkpt>
      <trkpt lat="41.98005" lon="0.74831">
        <ele>964.8</ele>
        <time>2022-05-23 14:32:49</time>
      </trkpt>
      <trkpt lat="41.98003" lon="0.74834">
        <ele>965</ele>
        <time>2022-05-23 14:32:50</time>
      </trkpt>
      <trkpt lat="41.98002" lon="0.74837">
        <ele>965.2</ele>
        <time>2022-05-23 14:32:51</time>
      </trkpt>
      <trkpt lat="41.98" lon="0.7484">
        <ele>965.4</ele>
        <time>2022-05-23 14:32:52</time>
      </trkpt>
      <trkpt lat="41.97998" lon="0.74843">
        <ele>965.6</ele>
        <time>2022-05-23 14:32:53</time>
      </trkpt>
      <trkpt lat="41.97997" lon="0.74846">
        <ele>965.8</ele>
        <time>2022-05-23 14:32:54</time>
      </trkpt>
      <trkpt lat="41.97995" lon="0.74849">
        <ele>966</ele>
        <time>2022-05-23 14:32:55</time>
      </trkpt>
      <trkpt lat="41.97994" lon="0.74851">
        <ele>966.2</ele>
        <time>2022-05-23 14:32:56</time>
      </trkpt>
      <trkpt lat="41.97992" lon="0.74854">
        <ele>966.6</ele>
        <time>2022-05-23 14:32:57</time>
      </trkpt>
      <trkpt lat="41.97991" lon="0.74857">
        <ele>966.8</ele>
        <time>2022-05-23 14:32:58</time>
      </trkpt>
      <trkpt lat="41.97989" lon="0.7486">
        <ele>967</ele>
        <time>2022-05-23 14:32:59</time>
      </trkpt>
      <trkpt lat="41.97988" lon="0.74863">
        <ele>967</ele>
        <time>2022-05-23 14:33:00</time>
      </trkpt>
      <trkpt lat="41.97987" lon="0.74867">
        <ele>967.2</ele>
        <time>2022-05-23 14:33:01</time>
      </trkpt>
      <trkpt lat="41.97985" lon="0.7487">
        <ele>967.4</ele>
        <time>2022-05-23 14:33:02</time>
      </trkpt>
      <trkpt lat="41.97984" lon="0.74873">
        <ele>967.4</ele>
        <time>2022-05-23 14:33:03</time>
      </trkpt>
      <trkpt lat="41.97983" lon="0.74876">
        <ele>967.6</ele>
        <time>2022-05-23 14:33:04</time>
      </trkpt>
      <trkpt lat="41.97981" lon="0.74879">
        <ele>967.6</ele>
        <time>2022-05-23 14:33:05</time>
      </trkpt>
      <trkpt lat="41.9798" lon="0.74882">
        <ele>967.8</ele>
        <time>2022-05-23 14:33:06</time>
      </trkpt>
      <trkpt lat="41.97978" lon="0.74885">
        <ele>968</ele>
        <time>2022-05-23 14:33:07</time>
      </trkpt>
      <trkpt lat="41.97977" lon="0.74888">
        <ele>968</ele>
        <time>2022-05-23 14:33:08</time>
      </trkpt>
      <trkpt lat="41.97975" lon="0.74891">
        <ele>968.2</ele>
        <time>2022-05-23 14:33:09</time>
      </trkpt>
      <trkpt lat="41.97974" lon="0.74893">
        <ele>968.4</ele>
        <time>2022-05-23 14:33:10</time>
      </trkpt>
      <trkpt lat="41.97972" lon="0.74896">
        <ele>968.6</ele>
        <time>2022-05-23 14:33:11</time>
      </trkpt>
      <trkpt lat="41.97971" lon="0.74899">
        <ele>968.8</ele>
        <time>2022-05-23 14:33:12</time>
      </trkpt>
      <trkpt lat="41.9797" lon="0.74902">
        <ele>969</ele>
        <time>2022-05-23 14:33:13</time>
      </trkpt>
      <trkpt lat="41.97968" lon="0.74905">
        <ele>969.2</ele>
        <time>2022-05-23 14:33:14</time>
      </trkpt>
      <trkpt lat="41.97967" lon="0.74908">
        <ele>969.4</ele>
        <time>2022-05-23 14:33:15</time>
      </trkpt>
      <trkpt lat="41.97966" lon="0.74911">
        <ele>969.6</ele>
        <time>2022-05-23 14:33:16</time>
      </trkpt>
      <trkpt lat="41.97964" lon="0.74914">
        <ele>969.6</ele>
        <time>2022-05-23 14:33:17</time>
      </trkpt>
      <trkpt lat="41.97963" lon="0.74917">
        <ele>969.8</ele>
        <time>2022-05-23 14:33:18</time>
      </trkpt>
      <trkpt lat="41.97961" lon="0.74921">
        <ele>970</ele>
        <time>2022-05-23 14:33:19</time>
      </trkpt>
      <trkpt lat="41.9796" lon="0.74924">
        <ele>970.2</ele>
        <time>2022-05-23 14:33:20</time>
      </trkpt>
      <trkpt lat="41.97959" lon="0.74927">
        <ele>970.4</ele>
        <time>2022-05-23 14:33:21</time>
      </trkpt>
      <trkpt lat="41.97958" lon="0.74931">
        <ele>970.6</ele>
        <time>2022-05-23 14:33:22</time>
      </trkpt>
      <trkpt lat="41.97956" lon="0.74934">
        <ele>971</ele>
        <time>2022-05-23 14:33:23</time>
      </trkpt>
      <trkpt lat="41.97955" lon="0.74937">
        <ele>971.2</ele>
        <time>2022-05-23 14:33:24</time>
      </trkpt>
      <trkpt lat="41.97954" lon="0.7494">
        <ele>971.4</ele>
        <time>2022-05-23 14:33:25</time>
      </trkpt>
      <trkpt lat="41.97952" lon="0.74943">
        <ele>971.6</ele>
        <time>2022-05-23 14:33:26</time>
      </trkpt>
      <trkpt lat="41.97951" lon="0.74946">
        <ele>971.6</ele>
        <time>2022-05-23 14:33:27</time>
      </trkpt>
      <trkpt lat="41.97949" lon="0.74949">
        <ele>971.8</ele>
        <time>2022-05-23 14:33:28</time>
      </trkpt>
      <trkpt lat="41.97948" lon="0.74952">
        <ele>972</ele>
        <time>2022-05-23 14:33:29</time>
      </trkpt>
      <trkpt lat="41.97946" lon="0.74955">
        <ele>972.2</ele>
        <time>2022-05-23 14:33:30</time>
      </trkpt>
      <trkpt lat="41.97945" lon="0.74958">
        <ele>972.4</ele>
        <time>2022-05-23 14:33:31</time>
      </trkpt>
      <trkpt lat="41.97943" lon="0.7496">
        <ele>972.4</ele>
        <time>2022-05-23 14:33:32</time>
      </trkpt>
      <trkpt lat="41.97942" lon="0.74963">
        <ele>972.6</ele>
        <time>2022-05-23 14:33:33</time>
      </trkpt>
      <trkpt lat="41.9794" lon="0.74966">
        <ele>972.8</ele>
        <time>2022-05-23 14:33:34</time>
      </trkpt>
      <trkpt lat="41.97938" lon="0.74969">
        <ele>973</ele>
        <time>2022-05-23 14:33:35</time>
      </trkpt>
      <trkpt lat="41.97937" lon="0.74972">
        <ele>973.2</ele>
        <time>2022-05-23 14:33:36</time>
      </trkpt>
      <trkpt lat="41.97935" lon="0.74975">
        <ele>973.4</ele>
        <time>2022-05-23 14:33:37</time>
      </trkpt>
      <trkpt lat="41.97934" lon="0.74978">
        <ele>973.4</ele>
        <time>2022-05-23 14:33:38</time>
      </trkpt>
      <trkpt lat="41.97933" lon="0.7498">
        <ele>973.6</ele>
        <time>2022-05-23 14:33:39</time>
      </trkpt>
      <trkpt lat="41.97932" lon="0.74983">
        <ele>974</ele>
        <time>2022-05-23 14:33:40</time>
      </trkpt>
      <trkpt lat="41.9793" lon="0.74986">
        <ele>974</ele>
        <time>2022-05-23 14:33:41</time>
      </trkpt>
      <trkpt lat="41.97929" lon="0.74989">
        <ele>974.2</ele>
        <time>2022-05-23 14:33:42</time>
      </trkpt>
      <trkpt lat="41.97927" lon="0.74991">
        <ele>974.4</ele>
        <time>2022-05-23 14:33:43</time>
      </trkpt>
      <trkpt lat="41.97925" lon="0.74994">
        <ele>974.6</ele>
        <time>2022-05-23 14:33:44</time>
      </trkpt>
      <trkpt lat="41.97924" lon="0.74997">
        <ele>974.8</ele>
        <time>2022-05-23 14:33:45</time>
      </trkpt>
      <trkpt lat="41.97922" lon="0.74999">
        <ele>975</ele>
        <time>2022-05-23 14:33:46</time>
      </trkpt>
      <trkpt lat="41.9792" lon="0.75002">
        <ele>975.2</ele>
        <time>2022-05-23 14:33:47</time>
      </trkpt>
      <trkpt lat="41.97918" lon="0.75004">
        <ele>975.4</ele>
        <time>2022-05-23 14:33:48</time>
      </trkpt>
      <trkpt lat="41.97917" lon="0.75006">
        <ele>975.6</ele>
        <time>2022-05-23 14:33:49</time>
      </trkpt>
      <trkpt lat="41.97915" lon="0.75009">
        <ele>975.6</ele>
        <time>2022-05-23 14:33:50</time>
      </trkpt>
      <trkpt lat="41.97914" lon="0.75012">
        <ele>975.8</ele>
        <time>2022-05-23 14:33:51</time>
      </trkpt>
      <trkpt lat="41.97912" lon="0.75015">
        <ele>976</ele>
        <time>2022-05-23 14:33:52</time>
      </trkpt>
      <trkpt lat="41.97911" lon="0.75017">
        <ele>976</ele>
        <time>2022-05-23 14:33:53</time>
      </trkpt>
      <trkpt lat="41.97908" lon="0.7502">
        <ele>976.2</ele>
        <time>2022-05-23 14:33:54</time>
      </trkpt>
      <trkpt lat="41.97906" lon="0.75022">
        <ele>976.4</ele>
        <time>2022-05-23 14:33:55</time>
      </trkpt>
      <trkpt lat="41.97904" lon="0.75025">
        <ele>976.4</ele>
        <time>2022-05-23 14:33:56</time>
      </trkpt>
      <trkpt lat="41.97902" lon="0.75027">
        <ele>976.4</ele>
        <time>2022-05-23 14:33:57</time>
      </trkpt>
      <trkpt lat="41.979" lon="0.7503">
        <ele>976.6</ele>
        <time>2022-05-23 14:33:58</time>
      </trkpt>
      <trkpt lat="41.97898" lon="0.75033">
        <ele>976.6</ele>
        <time>2022-05-23 14:33:59</time>
      </trkpt>
      <trkpt lat="41.97896" lon="0.75035">
        <ele>976.6</ele>
        <time>2022-05-23 14:34:00</time>
      </trkpt>
      <trkpt lat="41.97894" lon="0.75037">
        <ele>976.8</ele>
        <time>2022-05-23 14:34:01</time>
      </trkpt>
      <trkpt lat="41.97892" lon="0.7504">
        <ele>977</ele>
        <time>2022-05-23 14:34:02</time>
      </trkpt>
      <trkpt lat="41.97889" lon="0.75042">
        <ele>977</ele>
        <time>2022-05-23 14:34:03</time>
      </trkpt>
      <trkpt lat="41.97886" lon="0.75045">
        <ele>977</ele>
        <time>2022-05-23 14:34:04</time>
      </trkpt>
      <trkpt lat="41.97883" lon="0.75047">
        <ele>977.2</ele>
        <time>2022-05-23 14:34:05</time>
      </trkpt>
      <trkpt lat="41.9788" lon="0.7505">
        <ele>977.6</ele>
        <time>2022-05-23 14:34:06</time>
      </trkpt>
      <trkpt lat="41.97878" lon="0.75053">
        <ele>977.6</ele>
        <time>2022-05-23 14:34:07</time>
      </trkpt>
      <trkpt lat="41.97875" lon="0.75057">
        <ele>977.6</ele>
        <time>2022-05-23 14:34:08</time>
      </trkpt>
      <trkpt lat="41.97872" lon="0.75059">
        <ele>977.6</ele>
        <time>2022-05-23 14:34:09</time>
      </trkpt>
      <trkpt lat="41.97868" lon="0.75061">
        <ele>977.4</ele>
        <time>2022-05-23 14:34:10</time>
      </trkpt>
      <trkpt lat="41.97864" lon="0.75063">
        <ele>977.2</ele>
        <time>2022-05-23 14:34:11</time>
      </trkpt>
      <trkpt lat="41.9786" lon="0.75065">
        <ele>977.2</ele>
        <time>2022-05-23 14:34:12</time>
      </trkpt>
      <trkpt lat="41.97856" lon="0.75067">
        <ele>977</ele>
        <time>2022-05-23 14:34:13</time>
      </trkpt>
      <trkpt lat="41.97851" lon="0.7507">
        <ele>977</ele>
        <time>2022-05-23 14:34:14</time>
      </trkpt>
      <trkpt lat="41.97846" lon="0.75072">
        <ele>977</ele>
        <time>2022-05-23 14:34:15</time>
      </trkpt>
      <trkpt lat="41.97841" lon="0.75074">
        <ele>977</ele>
        <time>2022-05-23 14:34:16</time>
      </trkpt>
      <trkpt lat="41.97836" lon="0.75076">
        <ele>976.6</ele>
        <time>2022-05-23 14:34:17</time>
      </trkpt>
      <trkpt lat="41.97831" lon="0.75078">
        <ele>976.2</ele>
        <time>2022-05-23 14:34:18</time>
      </trkpt>
      <trkpt lat="41.97825" lon="0.7508">
        <ele>976</ele>
        <time>2022-05-23 14:34:19</time>
      </trkpt>
      <trkpt lat="41.97819" lon="0.75082">
        <ele>975.4</ele>
        <time>2022-05-23 14:34:20</time>
      </trkpt>
      <trkpt lat="41.97812" lon="0.75084">
        <ele>974.6</ele>
        <time>2022-05-23 14:34:21</time>
      </trkpt>
      <trkpt lat="41.97806" lon="0.75085">
        <ele>974</ele>
        <time>2022-05-23 14:34:22</time>
      </trkpt>
      <trkpt lat="41.97799" lon="0.75085">
        <ele>973.8</ele>
        <time>2022-05-23 14:34:23</time>
      </trkpt>
      <trkpt lat="41.97791" lon="0.75085">
        <ele>973.2</ele>
        <time>2022-05-23 14:34:24</time>
      </trkpt>
      <trkpt lat="41.97784" lon="0.75084">
        <ele>972.8</ele>
        <time>2022-05-23 14:34:25</time>
      </trkpt>
      <trkpt lat="41.97777" lon="0.75083">
        <ele>972</ele>
        <time>2022-05-23 14:34:26</time>
      </trkpt>
      <trkpt lat="41.9777" lon="0.75083">
        <ele>971.4</ele>
        <time>2022-05-23 14:34:27</time>
      </trkpt>
      <trkpt lat="41.97762" lon="0.75082">
        <ele>970.8</ele>
        <time>2022-05-23 14:34:28</time>
      </trkpt>
      <trkpt lat="41.97755" lon="0.75082">
        <ele>970.2</ele>
        <time>2022-05-23 14:34:29</time>
      </trkpt>
      <trkpt lat="41.97747" lon="0.75081">
        <ele>969.6</ele>
        <time>2022-05-23 14:34:30</time>
      </trkpt>
      <trkpt lat="41.9774" lon="0.7508">
        <ele>969</ele>
        <time>2022-05-23 14:34:31</time>
      </trkpt>
      <trkpt lat="41.97731" lon="0.75079">
        <ele>968.6</ele>
        <time>2022-05-23 14:34:32</time>
      </trkpt>
      <trkpt lat="41.97724" lon="0.75078">
        <ele>968.2</ele>
        <time>2022-05-23 14:34:33</time>
      </trkpt>
      <trkpt lat="41.97715" lon="0.75077">
        <ele>967.8</ele>
        <time>2022-05-23 14:34:34</time>
      </trkpt>
      <trkpt lat="41.97707" lon="0.75077">
        <ele>967.4</ele>
        <time>2022-05-23 14:34:35</time>
      </trkpt>
      <trkpt lat="41.97697" lon="0.75076">
        <ele>966.8</ele>
        <time>2022-05-23 14:34:36</time>
      </trkpt>
      <trkpt lat="41.97688" lon="0.75076">
        <ele>966.2</ele>
        <time>2022-05-23 14:34:37</time>
      </trkpt>
      <trkpt lat="41.97679" lon="0.75076">
        <ele>965.8</ele>
        <time>2022-05-23 14:34:38</time>
      </trkpt>
      <trkpt lat="41.97669" lon="0.75077">
        <ele>965</ele>
        <time>2022-05-23 14:34:39</time>
      </trkpt>
      <trkpt lat="41.97659" lon="0.75078">
        <ele>964.4</ele>
        <time>2022-05-23 14:34:40</time>
      </trkpt>
      <trkpt lat="41.97649" lon="0.75079">
        <ele>963.8</ele>
        <time>2022-05-23 14:34:41</time>
      </trkpt>
      <trkpt lat="41.97639" lon="0.75082">
        <ele>963.2</ele>
        <time>2022-05-23 14:34:42</time>
      </trkpt>
      <trkpt lat="41.97629" lon="0.75085">
        <ele>962.4</ele>
        <time>2022-05-23 14:34:43</time>
      </trkpt>
      <trkpt lat="41.97618" lon="0.75088">
        <ele>961.6</ele>
        <time>2022-05-23 14:34:44</time>
      </trkpt>
      <trkpt lat="41.97608" lon="0.75092">
        <ele>960.8</ele>
        <time>2022-05-23 14:34:45</time>
      </trkpt>
      <trkpt lat="41.97598" lon="0.75097">
        <ele>960</ele>
        <time>2022-05-23 14:34:46</time>
      </trkpt>
      <trkpt lat="41.97587" lon="0.75103">
        <ele>959</ele>
        <time>2022-05-23 14:34:47</time>
      </trkpt>
      <trkpt lat="41.97577" lon="0.75109">
        <ele>958.2</ele>
        <time>2022-05-23 14:34:48</time>
      </trkpt>
      <trkpt lat="41.97566" lon="0.75116">
        <ele>957.4</ele>
        <time>2022-05-23 14:34:49</time>
      </trkpt>
      <trkpt lat="41.97556" lon="0.75124">
        <ele>956.4</ele>
        <time>2022-05-23 14:34:50</time>
      </trkpt>
      <trkpt lat="41.97546" lon="0.75133">
        <ele>955.6</ele>
        <time>2022-05-23 14:34:51</time>
      </trkpt>
      <trkpt lat="41.97537" lon="0.75142">
        <ele>954.8</ele>
        <time>2022-05-23 14:34:52</time>
      </trkpt>
      <trkpt lat="41.97527" lon="0.75152">
        <ele>954</ele>
        <time>2022-05-23 14:34:53</time>
      </trkpt>
      <trkpt lat="41.97519" lon="0.75162">
        <ele>953.2</ele>
        <time>2022-05-23 14:34:54</time>
      </trkpt>
      <trkpt lat="41.9751" lon="0.75174">
        <ele>952.6</ele>
        <time>2022-05-23 14:34:55</time>
      </trkpt>
      <trkpt lat="41.97502" lon="0.75186">
        <ele>951.6</ele>
        <time>2022-05-23 14:34:56</time>
      </trkpt>
      <trkpt lat="41.97494" lon="0.75199">
        <ele>950.6</ele>
        <time>2022-05-23 14:34:57</time>
      </trkpt>
      <trkpt lat="41.97486" lon="0.75213">
        <ele>949.6</ele>
        <time>2022-05-23 14:34:58</time>
      </trkpt>
      <trkpt lat="41.9748" lon="0.75227">
        <ele>948.6</ele>
        <time>2022-05-23 14:34:59</time>
      </trkpt>
      <trkpt lat="41.97474" lon="0.75243">
        <ele>947.6</ele>
        <time>2022-05-23 14:35:00</time>
      </trkpt>
      <trkpt lat="41.97469" lon="0.75259">
        <ele>946.8</ele>
        <time>2022-05-23 14:35:01</time>
      </trkpt>
      <trkpt lat="41.97463" lon="0.75276">
        <ele>946</ele>
        <time>2022-05-23 14:35:02</time>
      </trkpt>
      <trkpt lat="41.97458" lon="0.75293">
        <ele>945</ele>
        <time>2022-05-23 14:35:03</time>
      </trkpt>
      <trkpt lat="41.97454" lon="0.75311">
        <ele>944.2</ele>
        <time>2022-05-23 14:35:04</time>
      </trkpt>
      <trkpt lat="41.97451" lon="0.75328">
        <ele>943.2</ele>
        <time>2022-05-23 14:35:05</time>
      </trkpt>
      <trkpt lat="41.97448" lon="0.75347">
        <ele>942.2</ele>
        <time>2022-05-23 14:35:06</time>
      </trkpt>
      <trkpt lat="41.97445" lon="0.75364">
        <ele>941.2</ele>
        <time>2022-05-23 14:35:07</time>
      </trkpt>
      <trkpt lat="41.97443" lon="0.75383">
        <ele>940.2</ele>
        <time>2022-05-23 14:35:08</time>
      </trkpt>
      <trkpt lat="41.97439" lon="0.75402">
        <ele>939.6</ele>
        <time>2022-05-23 14:35:09</time>
      </trkpt>
      <trkpt lat="41.97435" lon="0.75421">
        <ele>938.4</ele>
        <time>2022-05-23 14:35:10</time>
      </trkpt>
      <trkpt lat="41.9743" lon="0.75439">
        <ele>937.4</ele>
        <time>2022-05-23 14:35:11</time>
      </trkpt>
      <trkpt lat="41.97424" lon="0.75458">
        <ele>936.4</ele>
        <time>2022-05-23 14:35:12</time>
      </trkpt>
      <trkpt lat="41.97418" lon="0.75474">
        <ele>935.2</ele>
        <time>2022-05-23 14:35:13</time>
      </trkpt>
      <trkpt lat="41.9741" lon="0.75491">
        <ele>933.8</ele>
        <time>2022-05-23 14:35:14</time>
      </trkpt>
      <trkpt lat="41.974" lon="0.75506">
        <ele>932.8</ele>
        <time>2022-05-23 14:35:15</time>
      </trkpt>
      <trkpt lat="41.9739" lon="0.7552">
        <ele>931.8</ele>
        <time>2022-05-23 14:35:16</time>
      </trkpt>
      <trkpt lat="41.97378" lon="0.75532">
        <ele>930.6</ele>
        <time>2022-05-23 14:35:17</time>
      </trkpt>
      <trkpt lat="41.97365" lon="0.75542">
        <ele>929.8</ele>
        <time>2022-05-23 14:35:18</time>
      </trkpt>
      <trkpt lat="41.97352" lon="0.7555">
        <ele>928.6</ele>
        <time>2022-05-23 14:35:19</time>
      </trkpt>
      <trkpt lat="41.97337" lon="0.75557">
        <ele>927.6</ele>
        <time>2022-05-23 14:35:20</time>
      </trkpt>
      <trkpt lat="41.97322" lon="0.75562">
        <ele>926.4</ele>
        <time>2022-05-23 14:35:21</time>
      </trkpt>
      <trkpt lat="41.97308" lon="0.75565">
        <ele>925.2</ele>
        <time>2022-05-23 14:35:22</time>
      </trkpt>
      <trkpt lat="41.97293" lon="0.75566">
        <ele>924</ele>
        <time>2022-05-23 14:35:23</time>
      </trkpt>
      <trkpt lat="41.97278" lon="0.75566">
        <ele>922.8</ele>
        <time>2022-05-23 14:35:24</time>
      </trkpt>
      <trkpt lat="41.97263" lon="0.75564">
        <ele>922</ele>
        <time>2022-05-23 14:35:25</time>
      </trkpt>
      <trkpt lat="41.97248" lon="0.75562">
        <ele>921</ele>
        <time>2022-05-23 14:35:26</time>
      </trkpt>
      <trkpt lat="41.97234" lon="0.75561">
        <ele>920</ele>
        <time>2022-05-23 14:35:27</time>
      </trkpt>
      <trkpt lat="41.9722" lon="0.75559">
        <ele>919.2</ele>
        <time>2022-05-23 14:35:28</time>
      </trkpt>
      <trkpt lat="41.97205" lon="0.75557">
        <ele>918.2</ele>
        <time>2022-05-23 14:35:29</time>
      </trkpt>
      <trkpt lat="41.9719" lon="0.75555">
        <ele>917.4</ele>
        <time>2022-05-23 14:35:30</time>
      </trkpt>
      <trkpt lat="41.97175" lon="0.75554">
        <ele>916.6</ele>
        <time>2022-05-23 14:35:31</time>
      </trkpt>
      <trkpt lat="41.97161" lon="0.75552">
        <ele>915.8</ele>
        <time>2022-05-23 14:35:32</time>
      </trkpt>
      <trkpt lat="41.97147" lon="0.75551">
        <ele>915</ele>
        <time>2022-05-23 14:35:33</time>
      </trkpt>
      <trkpt lat="41.97133" lon="0.75551">
        <ele>914.2</ele>
        <time>2022-05-23 14:35:34</time>
      </trkpt>
      <trkpt lat="41.97119" lon="0.75551">
        <ele>913.4</ele>
        <time>2022-05-23 14:35:35</time>
      </trkpt>
      <trkpt lat="41.97104" lon="0.75553">
        <ele>912.8</ele>
        <time>2022-05-23 14:35:36</time>
      </trkpt>
      <trkpt lat="41.97091" lon="0.75556">
        <ele>912.2</ele>
        <time>2022-05-23 14:35:37</time>
      </trkpt>
      <trkpt lat="41.97077" lon="0.75562">
        <ele>911.6</ele>
        <time>2022-05-23 14:35:38</time>
      </trkpt>
      <trkpt lat="41.97064" lon="0.75569">
        <ele>911</ele>
        <time>2022-05-23 14:35:39</time>
      </trkpt>
      <trkpt lat="41.97051" lon="0.75577">
        <ele>910.2</ele>
        <time>2022-05-23 14:35:40</time>
      </trkpt>
      <trkpt lat="41.97039" lon="0.75586">
        <ele>909.2</ele>
        <time>2022-05-23 14:35:41</time>
      </trkpt>
      <trkpt lat="41.97027" lon="0.75595">
        <ele>908.4</ele>
        <time>2022-05-23 14:35:42</time>
      </trkpt>
      <trkpt lat="41.97017" lon="0.75605">
        <ele>907.6</ele>
        <time>2022-05-23 14:35:43</time>
      </trkpt>
      <trkpt lat="41.97006" lon="0.75617">
        <ele>907</ele>
        <time>2022-05-23 14:35:44</time>
      </trkpt>
      <trkpt lat="41.96994" lon="0.75629">
        <ele>906.4</ele>
        <time>2022-05-23 14:35:45</time>
      </trkpt>
      <trkpt lat="41.96984" lon="0.7564">
        <ele>905.6</ele>
        <time>2022-05-23 14:35:46</time>
      </trkpt>
      <trkpt lat="41.96972" lon="0.75651">
        <ele>904.8</ele>
        <time>2022-05-23 14:35:47</time>
      </trkpt>
      <trkpt lat="41.96962" lon="0.75662">
        <ele>904</ele>
        <time>2022-05-23 14:35:48</time>
      </trkpt>
      <trkpt lat="41.9695" lon="0.75674">
        <ele>903</ele>
        <time>2022-05-23 14:35:49</time>
      </trkpt>
      <trkpt lat="41.96938" lon="0.75686">
        <ele>902.2</ele>
        <time>2022-05-23 14:35:50</time>
      </trkpt>
      <trkpt lat="41.96926" lon="0.75696">
        <ele>901.4</ele>
        <time>2022-05-23 14:35:51</time>
      </trkpt>
      <trkpt lat="41.96913" lon="0.75707">
        <ele>900.4</ele>
        <time>2022-05-23 14:35:52</time>
      </trkpt>
      <trkpt lat="41.969" lon="0.75715">
        <ele>899.6</ele>
        <time>2022-05-23 14:35:53</time>
      </trkpt>
      <trkpt lat="41.96887" lon="0.75722">
        <ele>898.6</ele>
        <time>2022-05-23 14:35:54</time>
      </trkpt>
      <trkpt lat="41.96874" lon="0.75727">
        <ele>897.6</ele>
        <time>2022-05-23 14:35:55</time>
      </trkpt>
      <trkpt lat="41.9686" lon="0.7573">
        <ele>897</ele>
        <time>2022-05-23 14:35:56</time>
      </trkpt>
      <trkpt lat="41.96846" lon="0.75731">
        <ele>896.2</ele>
        <time>2022-05-23 14:35:57</time>
      </trkpt>
      <trkpt lat="41.96832" lon="0.7573">
        <ele>895.4</ele>
        <time>2022-05-23 14:35:58</time>
      </trkpt>
      <trkpt lat="41.96818" lon="0.75729">
        <ele>894.6</ele>
        <time>2022-05-23 14:35:59</time>
      </trkpt>
      <trkpt lat="41.96803" lon="0.75727">
        <ele>894</ele>
        <time>2022-05-23 14:36:00</time>
      </trkpt>
      <trkpt lat="41.96791" lon="0.75725">
        <ele>893.2</ele>
        <time>2022-05-23 14:36:01</time>
      </trkpt>
      <trkpt lat="41.96777" lon="0.75721">
        <ele>892.4</ele>
        <time>2022-05-23 14:36:02</time>
      </trkpt>
      <trkpt lat="41.96764" lon="0.75716">
        <ele>891.6</ele>
        <time>2022-05-23 14:36:03</time>
      </trkpt>
      <trkpt lat="41.96752" lon="0.75709">
        <ele>891</ele>
        <time>2022-05-23 14:36:04</time>
      </trkpt>
      <trkpt lat="41.9674" lon="0.75702">
        <ele>890.4</ele>
        <time>2022-05-23 14:36:05</time>
      </trkpt>
      <trkpt lat="41.9673" lon="0.75696">
        <ele>889.8</ele>
        <time>2022-05-23 14:36:06</time>
      </trkpt>
      <trkpt lat="41.96717" lon="0.7569">
        <ele>889.4</ele>
        <time>2022-05-23 14:36:07</time>
      </trkpt>
      <trkpt lat="41.96705" lon="0.75686">
        <ele>889.2</ele>
        <time>2022-05-23 14:36:08</time>
      </trkpt>
      <trkpt lat="41.96693" lon="0.75685">
        <ele>889.2</ele>
        <time>2022-05-23 14:36:09</time>
      </trkpt>
      <trkpt lat="41.96682" lon="0.75686">
        <ele>889</ele>
        <time>2022-05-23 14:36:10</time>
      </trkpt>
      <trkpt lat="41.9667" lon="0.75691">
        <ele>889</ele>
        <time>2022-05-23 14:36:11</time>
      </trkpt>
      <trkpt lat="41.96659" lon="0.75697">
        <ele>889</ele>
        <time>2022-05-23 14:36:12</time>
      </trkpt>
      <trkpt lat="41.96649" lon="0.75705">
        <ele>888.8</ele>
        <time>2022-05-23 14:36:13</time>
      </trkpt>
      <trkpt lat="41.9664" lon="0.75712">
        <ele>888.8</ele>
        <time>2022-05-23 14:36:14</time>
      </trkpt>
      <trkpt lat="41.96632" lon="0.75718">
        <ele>888.8</ele>
        <time>2022-05-23 14:36:15</time>
      </trkpt>
      <trkpt lat="41.96621" lon="0.75727">
        <ele>888.6</ele>
        <time>2022-05-23 14:36:16</time>
      </trkpt>
      <trkpt lat="41.96613" lon="0.75733">
        <ele>888.4</ele>
        <time>2022-05-23 14:36:17</time>
      </trkpt>
      <trkpt lat="41.96603" lon="0.7574">
        <ele>888.2</ele>
        <time>2022-05-23 14:36:18</time>
      </trkpt>
      <trkpt lat="41.96594" lon="0.75744">
        <ele>888</ele>
        <time>2022-05-23 14:36:19</time>
      </trkpt>
      <trkpt lat="41.96585" lon="0.75748">
        <ele>888</ele>
        <time>2022-05-23 14:36:20</time>
      </trkpt>
      <trkpt lat="41.96575" lon="0.7575">
        <ele>888</ele>
        <time>2022-05-23 14:36:21</time>
      </trkpt>
      <trkpt lat="41.96566" lon="0.75751">
        <ele>888</ele>
        <time>2022-05-23 14:36:22</time>
      </trkpt>
      <trkpt lat="41.96557" lon="0.75752">
        <ele>888.2</ele>
        <time>2022-05-23 14:36:23</time>
      </trkpt>
      <trkpt lat="41.96548" lon="0.75753">
        <ele>888.2</ele>
        <time>2022-05-23 14:36:24</time>
      </trkpt>
      <trkpt lat="41.9654" lon="0.75755">
        <ele>888.2</ele>
        <time>2022-05-23 14:36:25</time>
      </trkpt>
      <trkpt lat="41.96531" lon="0.75756">
        <ele>888.2</ele>
        <time>2022-05-23 14:36:26</time>
      </trkpt>
      <trkpt lat="41.96523" lon="0.75758">
        <ele>888</ele>
        <time>2022-05-23 14:36:27</time>
      </trkpt>
      <trkpt lat="41.96515" lon="0.75759">
        <ele>888</ele>
        <time>2022-05-23 14:36:28</time>
      </trkpt>
      <trkpt lat="41.96506" lon="0.7576">
        <ele>888.2</ele>
        <time>2022-05-23 14:36:29</time>
      </trkpt>
      <trkpt lat="41.96499" lon="0.75761">
        <ele>888.2</ele>
        <time>2022-05-23 14:36:30</time>
      </trkpt>
      <trkpt lat="41.9649" lon="0.75762">
        <ele>888.2</ele>
        <time>2022-05-23 14:36:31</time>
      </trkpt>
      <trkpt lat="41.96482" lon="0.75763">
        <ele>888</ele>
        <time>2022-05-23 14:36:32</time>
      </trkpt>
      <trkpt lat="41.96474" lon="0.75764">
        <ele>888</ele>
        <time>2022-05-23 14:36:33</time>
      </trkpt>
      <trkpt lat="41.96466" lon="0.75765">
        <ele>887.8</ele>
        <time>2022-05-23 14:36:34</time>
      </trkpt>
      <trkpt lat="41.96458" lon="0.75766">
        <ele>887.8</ele>
        <time>2022-05-23 14:36:35</time>
      </trkpt>
      <trkpt lat="41.96451" lon="0.75767">
        <ele>887.8</ele>
        <time>2022-05-23 14:36:36</time>
      </trkpt>
      <trkpt lat="41.96442" lon="0.75768">
        <ele>887.8</ele>
        <time>2022-05-23 14:36:37</time>
      </trkpt>
      <trkpt lat="41.96434" lon="0.75769">
        <ele>887.6</ele>
        <time>2022-05-23 14:36:38</time>
      </trkpt>
      <trkpt lat="41.96425" lon="0.7577">
        <ele>887.6</ele>
        <time>2022-05-23 14:36:39</time>
      </trkpt>
      <trkpt lat="41.96418" lon="0.75771">
        <ele>887.4</ele>
        <time>2022-05-23 14:36:40</time>
      </trkpt>
      <trkpt lat="41.9641" lon="0.75772">
        <ele>887.4</ele>
        <time>2022-05-23 14:36:41</time>
      </trkpt>
      <trkpt lat="41.96402" lon="0.75773">
        <ele>887.2</ele>
        <time>2022-05-23 14:36:42</time>
      </trkpt>
      <trkpt lat="41.96394" lon="0.75775">
        <ele>887.2</ele>
        <time>2022-05-23 14:36:43</time>
      </trkpt>
      <trkpt lat="41.96386" lon="0.75777">
        <ele>887</ele>
        <time>2022-05-23 14:36:44</time>
      </trkpt>
      <trkpt lat="41.96378" lon="0.75778">
        <ele>886.8</ele>
        <time>2022-05-23 14:36:45</time>
      </trkpt>
      <trkpt lat="41.96371" lon="0.7578">
        <ele>886.8</ele>
        <time>2022-05-23 14:36:46</time>
      </trkpt>
      <trkpt lat="41.96364" lon="0.75783">
        <ele>886.6</ele>
        <time>2022-05-23 14:36:47</time>
      </trkpt>
      <trkpt lat="41.96357" lon="0.75785">
        <ele>886.4</ele>
        <time>2022-05-23 14:36:48</time>
      </trkpt>
      <trkpt lat="41.96349" lon="0.75788">
        <ele>886.2</ele>
        <time>2022-05-23 14:36:49</time>
      </trkpt>
      <trkpt lat="41.96341" lon="0.75791">
        <ele>886</ele>
        <time>2022-05-23 14:36:50</time>
      </trkpt>
      <trkpt lat="41.96335" lon="0.75793">
        <ele>885.8</ele>
        <time>2022-05-23 14:36:51</time>
      </trkpt>
      <trkpt lat="41.96327" lon="0.75797">
        <ele>885.6</ele>
        <time>2022-05-23 14:36:52</time>
      </trkpt>
      <trkpt lat="41.9632" lon="0.75801">
        <ele>885.4</ele>
        <time>2022-05-23 14:36:53</time>
      </trkpt>
      <trkpt lat="41.96313" lon="0.75805">
        <ele>885.4</ele>
        <time>2022-05-23 14:36:54</time>
      </trkpt>
      <trkpt lat="41.96306" lon="0.75809">
        <ele>885.2</ele>
        <time>2022-05-23 14:36:55</time>
      </trkpt>
      <trkpt lat="41.963" lon="0.75813">
        <ele>885</ele>
        <time>2022-05-23 14:36:56</time>
      </trkpt>
      <trkpt lat="41.96293" lon="0.75818">
        <ele>884.6</ele>
        <time>2022-05-23 14:36:57</time>
      </trkpt>
      <trkpt lat="41.96287" lon="0.75823">
        <ele>884.4</ele>
        <time>2022-05-23 14:36:58</time>
      </trkpt>
      <trkpt lat="41.9628" lon="0.75829">
        <ele>884.2</ele>
        <time>2022-05-23 14:36:59</time>
      </trkpt>
      <trkpt lat="41.96275" lon="0.75833">
        <ele>884</ele>
        <time>2022-05-23 14:37:00</time>
      </trkpt>
      <trkpt lat="41.96268" lon="0.75839">
        <ele>883.8</ele>
        <time>2022-05-23 14:37:01</time>
      </trkpt>
      <trkpt lat="41.96262" lon="0.75844">
        <ele>883.6</ele>
        <time>2022-05-23 14:37:02</time>
      </trkpt>
      <trkpt lat="41.96256" lon="0.7585">
        <ele>883.2</ele>
        <time>2022-05-23 14:37:03</time>
      </trkpt>
      <trkpt lat="41.96251" lon="0.75856">
        <ele>883</ele>
        <time>2022-05-23 14:37:04</time>
      </trkpt>
      <trkpt lat="41.96244" lon="0.75863">
        <ele>882.8</ele>
        <time>2022-05-23 14:37:05</time>
      </trkpt>
      <trkpt lat="41.96239" lon="0.75869">
        <ele>882.6</ele>
        <time>2022-05-23 14:37:06</time>
      </trkpt>
      <trkpt lat="41.96233" lon="0.75876">
        <ele>882.2</ele>
        <time>2022-05-23 14:37:07</time>
      </trkpt>
      <trkpt lat="41.96226" lon="0.75883">
        <ele>881.8</ele>
        <time>2022-05-23 14:37:08</time>
      </trkpt>
      <trkpt lat="41.96221" lon="0.7589">
        <ele>881.8</ele>
        <time>2022-05-23 14:37:09</time>
      </trkpt>
      <trkpt lat="41.96215" lon="0.75898">
        <ele>881.6</ele>
        <time>2022-05-23 14:37:10</time>
      </trkpt>
      <trkpt lat="41.96209" lon="0.75905">
        <ele>881.2</ele>
        <time>2022-05-23 14:37:11</time>
      </trkpt>
      <trkpt lat="41.96203" lon="0.75912">
        <ele>881</ele>
        <time>2022-05-23 14:37:12</time>
      </trkpt>
      <trkpt lat="41.96197" lon="0.7592">
        <ele>880.6</ele>
        <time>2022-05-23 14:37:13</time>
      </trkpt>
      <trkpt lat="41.96191" lon="0.75927">
        <ele>880.4</ele>
        <time>2022-05-23 14:37:14</time>
      </trkpt>
      <trkpt lat="41.96184" lon="0.75934">
        <ele>880.2</ele>
        <time>2022-05-23 14:37:15</time>
      </trkpt>
      <trkpt lat="41.96178" lon="0.75942">
        <ele>879.8</ele>
        <time>2022-05-23 14:37:16</time>
      </trkpt>
      <trkpt lat="41.96171" lon="0.7595">
        <ele>879.4</ele>
        <time>2022-05-23 14:37:17</time>
      </trkpt>
      <trkpt lat="41.96164" lon="0.75957">
        <ele>879</ele>
        <time>2022-05-23 14:37:18</time>
      </trkpt>
      <trkpt lat="41.96157" lon="0.75965">
        <ele>878.6</ele>
        <time>2022-05-23 14:37:19</time>
      </trkpt>
      <trkpt lat="41.96151" lon="0.75971">
        <ele>878.2</ele>
        <time>2022-05-23 14:37:20</time>
      </trkpt>
      <trkpt lat="41.96143" lon="0.75977">
        <ele>877.8</ele>
        <time>2022-05-23 14:37:21</time>
      </trkpt>
      <trkpt lat="41.96134" lon="0.75983">
        <ele>877.4</ele>
        <time>2022-05-23 14:37:22</time>
      </trkpt>
      <trkpt lat="41.96127" lon="0.75987">
        <ele>876.8</ele>
        <time>2022-05-23 14:37:23</time>
      </trkpt>
      <trkpt lat="41.96118" lon="0.75992">
        <ele>876.4</ele>
        <time>2022-05-23 14:37:24</time>
      </trkpt>
      <trkpt lat="41.96109" lon="0.75996">
        <ele>876</ele>
        <time>2022-05-23 14:37:25</time>
      </trkpt>
      <trkpt lat="41.961" lon="0.75999">
        <ele>875.6</ele>
        <time>2022-05-23 14:37:26</time>
      </trkpt>
      <trkpt lat="41.96093" lon="0.76">
        <ele>875.4</ele>
        <time>2022-05-23 14:37:27</time>
      </trkpt>
      <trkpt lat="41.96083" lon="0.76003">
        <ele>875</ele>
        <time>2022-05-23 14:37:28</time>
      </trkpt>
      <trkpt lat="41.96075" lon="0.76004">
        <ele>874.8</ele>
        <time>2022-05-23 14:37:29</time>
      </trkpt>
      <trkpt lat="41.96065" lon="0.76006">
        <ele>874.4</ele>
        <time>2022-05-23 14:37:30</time>
      </trkpt>
      <trkpt lat="41.96056" lon="0.76007">
        <ele>874</ele>
        <time>2022-05-23 14:37:31</time>
      </trkpt>
      <trkpt lat="41.96049" lon="0.76008">
        <ele>873.6</ele>
        <time>2022-05-23 14:37:32</time>
      </trkpt>
      <trkpt lat="41.9604" lon="0.76009">
        <ele>873.2</ele>
        <time>2022-05-23 14:37:33</time>
      </trkpt>
      <trkpt lat="41.9603" lon="0.7601">
        <ele>872.8</ele>
        <time>2022-05-23 14:37:34</time>
      </trkpt>
      <trkpt lat="41.96021" lon="0.76011">
        <ele>872.4</ele>
        <time>2022-05-23 14:37:35</time>
      </trkpt>
      <trkpt lat="41.96013" lon="0.76012">
        <ele>872</ele>
        <time>2022-05-23 14:37:36</time>
      </trkpt>
      <trkpt lat="41.96003" lon="0.76013">
        <ele>871.6</ele>
        <time>2022-05-23 14:37:37</time>
      </trkpt>
      <trkpt lat="41.95995" lon="0.76013">
        <ele>871.4</ele>
        <time>2022-05-23 14:37:38</time>
      </trkpt>
      <trkpt lat="41.95985" lon="0.76012">
        <ele>870.6</ele>
        <time>2022-05-23 14:37:39</time>
      </trkpt>
      <trkpt lat="41.95977" lon="0.7601">
        <ele>870.2</ele>
        <time>2022-05-23 14:37:40</time>
      </trkpt>
      <trkpt lat="41.95967" lon="0.76007">
        <ele>870</ele>
        <time>2022-05-23 14:37:41</time>
      </trkpt>
      <trkpt lat="41.95959" lon="0.76003">
        <ele>869.8</ele>
        <time>2022-05-23 14:37:42</time>
      </trkpt>
      <trkpt lat="41.95951" lon="0.75998">
        <ele>869.4</ele>
        <time>2022-05-23 14:37:43</time>
      </trkpt>
      <trkpt lat="41.95943" lon="0.75992">
        <ele>869</ele>
        <time>2022-05-23 14:37:44</time>
      </trkpt>
      <trkpt lat="41.95936" lon="0.75986">
        <ele>868.6</ele>
        <time>2022-05-23 14:37:45</time>
      </trkpt>
      <trkpt lat="41.95928" lon="0.75978">
        <ele>868.2</ele>
        <time>2022-05-23 14:37:46</time>
      </trkpt>
      <trkpt lat="41.95922" lon="0.75972">
        <ele>867.6</ele>
        <time>2022-05-23 14:37:47</time>
      </trkpt>
      <trkpt lat="41.95915" lon="0.75962">
        <ele>867.2</ele>
        <time>2022-05-23 14:37:48</time>
      </trkpt>
      <trkpt lat="41.9591" lon="0.75954">
        <ele>866.8</ele>
        <time>2022-05-23 14:37:49</time>
      </trkpt>
      <trkpt lat="41.95905" lon="0.75945">
        <ele>866.6</ele>
        <time>2022-05-23 14:37:50</time>
      </trkpt>
      <trkpt lat="41.95901" lon="0.75937">
        <ele>866.2</ele>
        <time>2022-05-23 14:37:51</time>
      </trkpt>
      <trkpt lat="41.95896" lon="0.75927">
        <ele>866</ele>
        <time>2022-05-23 14:37:52</time>
      </trkpt>
      <trkpt lat="41.95892" lon="0.75919">
        <ele>865.6</ele>
        <time>2022-05-23 14:37:53</time>
      </trkpt>
      <trkpt lat="41.95887" lon="0.75909">
        <ele>865.4</ele>
        <time>2022-05-23 14:37:54</time>
      </trkpt>
      <trkpt lat="41.95883" lon="0.75901">
        <ele>865</ele>
        <time>2022-05-23 14:37:55</time>
      </trkpt>
      <trkpt lat="41.95878" lon="0.75892">
        <ele>864.8</ele>
        <time>2022-05-23 14:37:56</time>
      </trkpt>
      <trkpt lat="41.95874" lon="0.75884">
        <ele>864.4</ele>
        <time>2022-05-23 14:37:57</time>
      </trkpt>
      <trkpt lat="41.95869" lon="0.75874">
        <ele>864</ele>
        <time>2022-05-23 14:37:58</time>
      </trkpt>
      <trkpt lat="41.95865" lon="0.75866">
        <ele>863.6</ele>
        <time>2022-05-23 14:37:59</time>
      </trkpt>
      <trkpt lat="41.9586" lon="0.75856">
        <ele>863.2</ele>
        <time>2022-05-23 14:38:00</time>
      </trkpt>
      <trkpt lat="41.95856" lon="0.75849">
        <ele>862.6</ele>
        <time>2022-05-23 14:38:01</time>
      </trkpt>
      <trkpt lat="41.95851" lon="0.75838">
        <ele>862.2</ele>
        <time>2022-05-23 14:38:02</time>
      </trkpt>
      <trkpt lat="41.95847" lon="0.7583">
        <ele>861.8</ele>
        <time>2022-05-23 14:38:03</time>
      </trkpt>
      <trkpt lat="41.95843" lon="0.75821">
        <ele>861.4</ele>
        <time>2022-05-23 14:38:04</time>
      </trkpt>
      <trkpt lat="41.95838" lon="0.75813">
        <ele>861</ele>
        <time>2022-05-23 14:38:05</time>
      </trkpt>
      <trkpt lat="41.95833" lon="0.75805">
        <ele>860.8</ele>
        <time>2022-05-23 14:38:06</time>
      </trkpt>
      <trkpt lat="41.95828" lon="0.75797">
        <ele>860.6</ele>
        <time>2022-05-23 14:38:07</time>
      </trkpt>
      <trkpt lat="41.95822" lon="0.75789">
        <ele>860.2</ele>
        <time>2022-05-23 14:38:08</time>
      </trkpt>
      <trkpt lat="41.95817" lon="0.75784">
        <ele>859.8</ele>
        <time>2022-05-23 14:38:09</time>
      </trkpt>
      <trkpt lat="41.95808" lon="0.75776">
        <ele>859.4</ele>
        <time>2022-05-23 14:38:10</time>
      </trkpt>
      <trkpt lat="41.958" lon="0.75771">
        <ele>859.2</ele>
        <time>2022-05-23 14:38:11</time>
      </trkpt>
      <trkpt lat="41.95793" lon="0.75766">
        <ele>859</ele>
        <time>2022-05-23 14:38:12</time>
      </trkpt>
      <trkpt lat="41.95784" lon="0.75762">
        <ele>858.6</ele>
        <time>2022-05-23 14:38:13</time>
      </trkpt>
      <trkpt lat="41.95773" lon="0.7576">
        <ele>858.2</ele>
        <time>2022-05-23 14:38:14</time>
      </trkpt>
      <trkpt lat="41.95765" lon="0.75759">
        <ele>857.8</ele>
        <time>2022-05-23 14:38:15</time>
      </trkpt>
      <trkpt lat="41.95754" lon="0.75759">
        <ele>857.4</ele>
        <time>2022-05-23 14:38:16</time>
      </trkpt>
      <trkpt lat="41.95745" lon="0.7576">
        <ele>857.2</ele>
        <time>2022-05-23 14:38:17</time>
      </trkpt>
      <trkpt lat="41.95735" lon="0.75763">
        <ele>856.8</ele>
        <time>2022-05-23 14:38:18</time>
      </trkpt>
      <trkpt lat="41.95724" lon="0.75766">
        <ele>856.4</ele>
        <time>2022-05-23 14:38:19</time>
      </trkpt>
      <trkpt lat="41.95715" lon="0.75769">
        <ele>855.8</ele>
        <time>2022-05-23 14:38:20</time>
      </trkpt>
      <trkpt lat="41.95704" lon="0.75772">
        <ele>855.2</ele>
        <time>2022-05-23 14:38:21</time>
      </trkpt>
      <trkpt lat="41.95693" lon="0.75776">
        <ele>854.8</ele>
        <time>2022-05-23 14:38:22</time>
      </trkpt>
      <trkpt lat="41.95682" lon="0.7578">
        <ele>854</ele>
        <time>2022-05-23 14:38:23</time>
      </trkpt>
      <trkpt lat="41.9567" lon="0.75784">
        <ele>853.2</ele>
        <time>2022-05-23 14:38:24</time>
      </trkpt>
      <trkpt lat="41.95659" lon="0.75788">
        <ele>852.2</ele>
        <time>2022-05-23 14:38:25</time>
      </trkpt>
      <trkpt lat="41.95647" lon="0.75791">
        <ele>851.4</ele>
        <time>2022-05-23 14:38:26</time>
      </trkpt>
      <trkpt lat="41.95635" lon="0.75794">
        <ele>850.8</ele>
        <time>2022-05-23 14:38:27</time>
      </trkpt>
      <trkpt lat="41.95625" lon="0.75797">
        <ele>849.8</ele>
        <time>2022-05-23 14:38:28</time>
      </trkpt>
      <trkpt lat="41.95613" lon="0.758">
        <ele>849.4</ele>
        <time>2022-05-23 14:38:29</time>
      </trkpt>
      <trkpt lat="41.95601" lon="0.75802">
        <ele>849</ele>
        <time>2022-05-23 14:38:30</time>
      </trkpt>
      <trkpt lat="41.95589" lon="0.75805">
        <ele>848.4</ele>
        <time>2022-05-23 14:38:31</time>
      </trkpt>
      <trkpt lat="41.95579" lon="0.75808">
        <ele>847.8</ele>
        <time>2022-05-23 14:38:32</time>
      </trkpt>
      <trkpt lat="41.95565" lon="0.75811">
        <ele>847.2</ele>
        <time>2022-05-23 14:38:33</time>
      </trkpt>
      <trkpt lat="41.95554" lon="0.75814">
        <ele>846.6</ele>
        <time>2022-05-23 14:38:34</time>
      </trkpt>
      <trkpt lat="41.95541" lon="0.75817">
        <ele>846.2</ele>
        <time>2022-05-23 14:38:35</time>
      </trkpt>
      <trkpt lat="41.9553" lon="0.7582">
        <ele>845.4</ele>
        <time>2022-05-23 14:38:36</time>
      </trkpt>
      <trkpt lat="41.95517" lon="0.75823">
        <ele>844.8</ele>
        <time>2022-05-23 14:38:37</time>
      </trkpt>
      <trkpt lat="41.95504" lon="0.75826">
        <ele>844</ele>
        <time>2022-05-23 14:38:38</time>
      </trkpt>
      <trkpt lat="41.9549" lon="0.75829">
        <ele>843.2</ele>
        <time>2022-05-23 14:38:39</time>
      </trkpt>
      <trkpt lat="41.95477" lon="0.75832">
        <ele>842.2</ele>
        <time>2022-05-23 14:38:40</time>
      </trkpt>
      <trkpt lat="41.95464" lon="0.75834">
        <ele>841</ele>
        <time>2022-05-23 14:38:41</time>
      </trkpt>
      <trkpt lat="41.9545" lon="0.75836">
        <ele>840</ele>
        <time>2022-05-23 14:38:42</time>
      </trkpt>
      <trkpt lat="41.95436" lon="0.75838">
        <ele>839</ele>
        <time>2022-05-23 14:38:43</time>
      </trkpt>
      <trkpt lat="41.95423" lon="0.75839">
        <ele>838</ele>
        <time>2022-05-23 14:38:44</time>
      </trkpt>
      <trkpt lat="41.9541" lon="0.75839">
        <ele>837</ele>
        <time>2022-05-23 14:38:45</time>
      </trkpt>
      <trkpt lat="41.95395" lon="0.75839">
        <ele>836</ele>
        <time>2022-05-23 14:38:46</time>
      </trkpt>
      <trkpt lat="41.95381" lon="0.75838">
        <ele>835</ele>
        <time>2022-05-23 14:38:47</time>
      </trkpt>
      <trkpt lat="41.95368" lon="0.75837">
        <ele>833.6</ele>
        <time>2022-05-23 14:38:48</time>
      </trkpt>
      <trkpt lat="41.95353" lon="0.75836">
        <ele>832.4</ele>
        <time>2022-05-23 14:38:49</time>
      </trkpt>
      <trkpt lat="41.95339" lon="0.75833">
        <ele>831.6</ele>
        <time>2022-05-23 14:38:50</time>
      </trkpt>
      <trkpt lat="41.95324" lon="0.7583">
        <ele>830.6</ele>
        <time>2022-05-23 14:38:51</time>
      </trkpt>
      <trkpt lat="41.95309" lon="0.75827">
        <ele>829.4</ele>
        <time>2022-05-23 14:38:52</time>
      </trkpt>
      <trkpt lat="41.95296" lon="0.75826">
        <ele>828.2</ele>
        <time>2022-05-23 14:38:53</time>
      </trkpt>
      <trkpt lat="41.95283" lon="0.75824">
        <ele>827.2</ele>
        <time>2022-05-23 14:38:54</time>
      </trkpt>
      <trkpt lat="41.9527" lon="0.75822">
        <ele>826.2</ele>
        <time>2022-05-23 14:38:55</time>
      </trkpt>
      <trkpt lat="41.95256" lon="0.7582">
        <ele>825.2</ele>
        <time>2022-05-23 14:38:56</time>
      </trkpt>
      <trkpt lat="41.95243" lon="0.75818">
        <ele>824.4</ele>
        <time>2022-05-23 14:38:57</time>
      </trkpt>
      <trkpt lat="41.95231" lon="0.75817">
        <ele>823.4</ele>
        <time>2022-05-23 14:38:58</time>
      </trkpt>
      <trkpt lat="41.95216" lon="0.75814">
        <ele>822.2</ele>
        <time>2022-05-23 14:38:59</time>
      </trkpt>
      <trkpt lat="41.95203" lon="0.75811">
        <ele>821.2</ele>
        <time>2022-05-23 14:39:00</time>
      </trkpt>
      <trkpt lat="41.9519" lon="0.75809">
        <ele>820.4</ele>
        <time>2022-05-23 14:39:01</time>
      </trkpt>
      <trkpt lat="41.95177" lon="0.75807">
        <ele>819.6</ele>
        <time>2022-05-23 14:39:02</time>
      </trkpt>
      <trkpt lat="41.95163" lon="0.75805">
        <ele>818.8</ele>
        <time>2022-05-23 14:39:03</time>
      </trkpt>
      <trkpt lat="41.95149" lon="0.75803">
        <ele>817.8</ele>
        <time>2022-05-23 14:39:04</time>
      </trkpt>
      <trkpt lat="41.95135" lon="0.75801">
        <ele>816.4</ele>
        <time>2022-05-23 14:39:05</time>
      </trkpt>
      <trkpt lat="41.95122" lon="0.75799">
        <ele>815.2</ele>
        <time>2022-05-23 14:39:06</time>
      </trkpt>
      <trkpt lat="41.95107" lon="0.75797">
        <ele>814.6</ele>
        <time>2022-05-23 14:39:07</time>
      </trkpt>
      <trkpt lat="41.95093" lon="0.75795">
        <ele>813.2</ele>
        <time>2022-05-23 14:39:08</time>
      </trkpt>
      <trkpt lat="41.9508" lon="0.75793">
        <ele>812</ele>
        <time>2022-05-23 14:39:09</time>
      </trkpt>
      <trkpt lat="41.95066" lon="0.75791">
        <ele>810.6</ele>
        <time>2022-05-23 14:39:10</time>
      </trkpt>
      <trkpt lat="41.95053" lon="0.75789">
        <ele>809.2</ele>
        <time>2022-05-23 14:39:11</time>
      </trkpt>
      <trkpt lat="41.95038" lon="0.75787">
        <ele>807.8</ele>
        <time>2022-05-23 14:39:12</time>
      </trkpt>
      <trkpt lat="41.95023" lon="0.75785">
        <ele>806.6</ele>
        <time>2022-05-23 14:39:13</time>
      </trkpt>
      <trkpt lat="41.9501" lon="0.75783">
        <ele>805.2</ele>
        <time>2022-05-23 14:39:14</time>
      </trkpt>
      <trkpt lat="41.94998" lon="0.75782">
        <ele>803.6</ele>
        <time>2022-05-23 14:39:15</time>
      </trkpt>
      <trkpt lat="41.94981" lon="0.75779">
        <ele>801.8</ele>
        <time>2022-05-23 14:39:16</time>
      </trkpt>
      <trkpt lat="41.94967" lon="0.75777">
        <ele>800.4</ele>
        <time>2022-05-23 14:39:17</time>
      </trkpt>
      <trkpt lat="41.94953" lon="0.75775">
        <ele>799.2</ele>
        <time>2022-05-23 14:39:18</time>
      </trkpt>
      <trkpt lat="41.94938" lon="0.75774">
        <ele>798.2</ele>
        <time>2022-05-23 14:39:19</time>
      </trkpt>
      <trkpt lat="41.94923" lon="0.75772">
        <ele>797.2</ele>
        <time>2022-05-23 14:39:20</time>
      </trkpt>
      <trkpt lat="41.94908" lon="0.7577">
        <ele>795.8</ele>
        <time>2022-05-23 14:39:21</time>
      </trkpt>
      <trkpt lat="41.94894" lon="0.75768">
        <ele>794.6</ele>
        <time>2022-05-23 14:39:22</time>
      </trkpt>
      <trkpt lat="41.9488" lon="0.75766">
        <ele>793.6</ele>
        <time>2022-05-23 14:39:23</time>
      </trkpt>
      <trkpt lat="41.94865" lon="0.75764">
        <ele>792.6</ele>
        <time>2022-05-23 14:39:24</time>
      </trkpt>
      <trkpt lat="41.94852" lon="0.75762">
        <ele>791.6</ele>
        <time>2022-05-23 14:39:25</time>
      </trkpt>
      <trkpt lat="41.94836" lon="0.7576">
        <ele>790.8</ele>
        <time>2022-05-23 14:39:26</time>
      </trkpt>
      <trkpt lat="41.94822" lon="0.75758">
        <ele>789.8</ele>
        <time>2022-05-23 14:39:27</time>
      </trkpt>
      <trkpt lat="41.94807" lon="0.75756">
        <ele>789</ele>
        <time>2022-05-23 14:39:28</time>
      </trkpt>
      <trkpt lat="41.94791" lon="0.75754">
        <ele>788.2</ele>
        <time>2022-05-23 14:39:29</time>
      </trkpt>
      <trkpt lat="41.94775" lon="0.75751">
        <ele>787.2</ele>
        <time>2022-05-23 14:39:30</time>
      </trkpt>
      <trkpt lat="41.9476" lon="0.7575">
        <ele>786</ele>
        <time>2022-05-23 14:39:31</time>
      </trkpt>
      <trkpt lat="41.94744" lon="0.75748">
        <ele>784.4</ele>
        <time>2022-05-23 14:39:32</time>
      </trkpt>
      <trkpt lat="41.9473" lon="0.75746">
        <ele>783</ele>
        <time>2022-05-23 14:39:33</time>
      </trkpt>
      <trkpt lat="41.94714" lon="0.75743">
        <ele>781.6</ele>
        <time>2022-05-23 14:39:34</time>
      </trkpt>
      <trkpt lat="41.94695" lon="0.75741">
        <ele>780.2</ele>
        <time>2022-05-23 14:39:35</time>
      </trkpt>
      <trkpt lat="41.94679" lon="0.75738">
        <ele>778.8</ele>
        <time>2022-05-23 14:39:36</time>
      </trkpt>
      <trkpt lat="41.94666" lon="0.75735">
        <ele>777.4</ele>
        <time>2022-05-23 14:39:37</time>
      </trkpt>
      <trkpt lat="41.94649" lon="0.7573">
        <ele>776</ele>
        <time>2022-05-23 14:39:38</time>
      </trkpt>
      <trkpt lat="41.94632" lon="0.75724">
        <ele>774.8</ele>
        <time>2022-05-23 14:39:39</time>
      </trkpt>
      <trkpt lat="41.94616" lon="0.75718">
        <ele>773.2</ele>
        <time>2022-05-23 14:39:40</time>
      </trkpt>
      <trkpt lat="41.94602" lon="0.75712">
        <ele>772</ele>
        <time>2022-05-23 14:39:41</time>
      </trkpt>
      <trkpt lat="41.94586" lon="0.75703">
        <ele>770.4</ele>
        <time>2022-05-23 14:39:42</time>
      </trkpt>
      <trkpt lat="41.9457" lon="0.75694">
        <ele>768.8</ele>
        <time>2022-05-23 14:39:43</time>
      </trkpt>
      <trkpt lat="41.94556" lon="0.75685">
        <ele>767.4</ele>
        <time>2022-05-23 14:39:44</time>
      </trkpt>
      <trkpt lat="41.94542" lon="0.75676">
        <ele>766.2</ele>
        <time>2022-05-23 14:39:45</time>
      </trkpt>
      <trkpt lat="41.94525" lon="0.75665">
        <ele>765</ele>
        <time>2022-05-23 14:39:46</time>
      </trkpt>
      <trkpt lat="41.94512" lon="0.75656">
        <ele>763.6</ele>
        <time>2022-05-23 14:39:47</time>
      </trkpt>
      <trkpt lat="41.94498" lon="0.75647">
        <ele>762.4</ele>
        <time>2022-05-23 14:39:48</time>
      </trkpt>
      <trkpt lat="41.94483" lon="0.75637">
        <ele>761.2</ele>
        <time>2022-05-23 14:39:49</time>
      </trkpt>
      <trkpt lat="41.94469" lon="0.75629">
        <ele>760.2</ele>
        <time>2022-05-23 14:39:50</time>
      </trkpt>
      <trkpt lat="41.94456" lon="0.75621">
        <ele>759.4</ele>
        <time>2022-05-23 14:39:51</time>
      </trkpt>
      <trkpt lat="41.94441" lon="0.75613">
        <ele>758.8</ele>
        <time>2022-05-23 14:39:52</time>
      </trkpt>
      <trkpt lat="41.94428" lon="0.75607">
        <ele>758</ele>
        <time>2022-05-23 14:39:53</time>
      </trkpt>
      <trkpt lat="41.94413" lon="0.75602">
        <ele>757</ele>
        <time>2022-05-23 14:39:54</time>
      </trkpt>
      <trkpt lat="41.944" lon="0.75598">
        <ele>756.6</ele>
        <time>2022-05-23 14:39:55</time>
      </trkpt>
      <trkpt lat="41.94386" lon="0.75596">
        <ele>755.6</ele>
        <time>2022-05-23 14:39:56</time>
      </trkpt>
      <trkpt lat="41.94372" lon="0.75595">
        <ele>755.2</ele>
        <time>2022-05-23 14:39:57</time>
      </trkpt>
      <trkpt lat="41.94359" lon="0.75595">
        <ele>754.6</ele>
        <time>2022-05-23 14:39:58</time>
      </trkpt>
      <trkpt lat="41.94346" lon="0.75595">
        <ele>753.8</ele>
        <time>2022-05-23 14:39:59</time>
      </trkpt>
      <trkpt lat="41.94332" lon="0.75596">
        <ele>753.4</ele>
        <time>2022-05-23 14:40:00</time>
      </trkpt>
      <trkpt lat="41.9432" lon="0.75597">
        <ele>752.8</ele>
        <time>2022-05-23 14:40:01</time>
      </trkpt>
      <trkpt lat="41.94307" lon="0.75597">
        <ele>752.2</ele>
        <time>2022-05-23 14:40:02</time>
      </trkpt>
      <trkpt lat="41.94296" lon="0.75597">
        <ele>751.6</ele>
        <time>2022-05-23 14:40:03</time>
      </trkpt>
      <trkpt lat="41.94283" lon="0.75598">
        <ele>751.4</ele>
        <time>2022-05-23 14:40:04</time>
      </trkpt>
      <trkpt lat="41.94271" lon="0.75598">
        <ele>750.8</ele>
        <time>2022-05-23 14:40:05</time>
      </trkpt>
      <trkpt lat="41.94259" lon="0.75598">
        <ele>750.2</ele>
        <time>2022-05-23 14:40:06</time>
      </trkpt>
      <trkpt lat="41.94247" lon="0.75598">
        <ele>749.4</ele>
        <time>2022-05-23 14:40:07</time>
      </trkpt>
      <trkpt lat="41.94236" lon="0.75598">
        <ele>748.6</ele>
        <time>2022-05-23 14:40:08</time>
      </trkpt>
      <trkpt lat="41.94224" lon="0.75598">
        <ele>747.8</ele>
        <time>2022-05-23 14:40:09</time>
      </trkpt>
      <trkpt lat="41.94212" lon="0.75597">
        <ele>746.8</ele>
        <time>2022-05-23 14:40:10</time>
      </trkpt>
      <trkpt lat="41.94201" lon="0.75594">
        <ele>746</ele>
        <time>2022-05-23 14:40:11</time>
      </trkpt>
      <trkpt lat="41.9419" lon="0.75591">
        <ele>745.4</ele>
        <time>2022-05-23 14:40:12</time>
      </trkpt>
      <trkpt lat="41.94177" lon="0.75586">
        <ele>744.6</ele>
        <time>2022-05-23 14:40:13</time>
      </trkpt>
      <trkpt lat="41.94167" lon="0.75581">
        <ele>743.8</ele>
        <time>2022-05-23 14:40:14</time>
      </trkpt>
      <trkpt lat="41.94156" lon="0.75575">
        <ele>743.2</ele>
        <time>2022-05-23 14:40:15</time>
      </trkpt>
      <trkpt lat="41.94144" lon="0.75567">
        <ele>741.8</ele>
        <time>2022-05-23 14:40:16</time>
      </trkpt>
      <trkpt lat="41.94136" lon="0.7556">
        <ele>741.2</ele>
        <time>2022-05-23 14:40:17</time>
      </trkpt>
      <trkpt lat="41.94125" lon="0.7555">
        <ele>740.6</ele>
        <time>2022-05-23 14:40:18</time>
      </trkpt>
      <trkpt lat="41.94117" lon="0.75541">
        <ele>740</ele>
        <time>2022-05-23 14:40:19</time>
      </trkpt>
      <trkpt lat="41.94108" lon="0.7553">
        <ele>739.6</ele>
        <time>2022-05-23 14:40:20</time>
      </trkpt>
      <trkpt lat="41.941" lon="0.7552">
        <ele>739</ele>
        <time>2022-05-23 14:40:21</time>
      </trkpt>
      <trkpt lat="41.94092" lon="0.75507">
        <ele>738.4</ele>
        <time>2022-05-23 14:40:22</time>
      </trkpt>
      <trkpt lat="41.94086" lon="0.75495">
        <ele>737.6</ele>
        <time>2022-05-23 14:40:23</time>
      </trkpt>
      <trkpt lat="41.9408" lon="0.75482">
        <ele>737</ele>
        <time>2022-05-23 14:40:24</time>
      </trkpt>
      <trkpt lat="41.94074" lon="0.75467">
        <ele>736.2</ele>
        <time>2022-05-23 14:40:25</time>
      </trkpt>
      <trkpt lat="41.94069" lon="0.75453">
        <ele>735.6</ele>
        <time>2022-05-23 14:40:26</time>
      </trkpt>
      <trkpt lat="41.94065" lon="0.75439">
        <ele>734.8</ele>
        <time>2022-05-23 14:40:27</time>
      </trkpt>
      <trkpt lat="41.94062" lon="0.75422">
        <ele>733.6</ele>
        <time>2022-05-23 14:40:28</time>
      </trkpt>
      <trkpt lat="41.94059" lon="0.75405">
        <ele>732.6</ele>
        <time>2022-05-23 14:40:29</time>
      </trkpt>
      <trkpt lat="41.94057" lon="0.7539">
        <ele>731.6</ele>
        <time>2022-05-23 14:40:30</time>
      </trkpt>
      <trkpt lat="41.94056" lon="0.75373">
        <ele>730.8</ele>
        <time>2022-05-23 14:40:31</time>
      </trkpt>
      <trkpt lat="41.94056" lon="0.75355">
        <ele>729.8</ele>
        <time>2022-05-23 14:40:32</time>
      </trkpt>
      <trkpt lat="41.94055" lon="0.75339">
        <ele>729</ele>
        <time>2022-05-23 14:40:33</time>
      </trkpt>
      <trkpt lat="41.94056" lon="0.75322">
        <ele>728</ele>
        <time>2022-05-23 14:40:34</time>
      </trkpt>
      <trkpt lat="41.94056" lon="0.75307">
        <ele>727.2</ele>
        <time>2022-05-23 14:40:35</time>
      </trkpt>
      <trkpt lat="41.94056" lon="0.75291">
        <ele>726.6</ele>
        <time>2022-05-23 14:40:36</time>
      </trkpt>
      <trkpt lat="41.94057" lon="0.75273">
        <ele>725.8</ele>
        <time>2022-05-23 14:40:37</time>
      </trkpt>
      <trkpt lat="41.94057" lon="0.75258">
        <ele>725.2</ele>
        <time>2022-05-23 14:40:38</time>
      </trkpt>
      <trkpt lat="41.94058" lon="0.75242">
        <ele>724.4</ele>
        <time>2022-05-23 14:40:39</time>
      </trkpt>
      <trkpt lat="41.94058" lon="0.75225">
        <ele>723.8</ele>
        <time>2022-05-23 14:40:40</time>
      </trkpt>
      <trkpt lat="41.94058" lon="0.75209">
        <ele>723</ele>
        <time>2022-05-23 14:40:41</time>
      </trkpt>
      <trkpt lat="41.94059" lon="0.75193">
        <ele>722.4</ele>
        <time>2022-05-23 14:40:42</time>
      </trkpt>
      <trkpt lat="41.94059" lon="0.75178">
        <ele>721.6</ele>
        <time>2022-05-23 14:40:43</time>
      </trkpt>
      <trkpt lat="41.94059" lon="0.7516">
        <ele>721</ele>
        <time>2022-05-23 14:40:44</time>
      </trkpt>
      <trkpt lat="41.9406" lon="0.75145">
        <ele>720.2</ele>
        <time>2022-05-23 14:40:45</time>
      </trkpt>
      <trkpt lat="41.9406" lon="0.75132">
        <ele>719.6</ele>
        <time>2022-05-23 14:40:46</time>
      </trkpt>
      <trkpt lat="41.9406" lon="0.75115">
        <ele>719</ele>
        <time>2022-05-23 14:40:47</time>
      </trkpt>
      <trkpt lat="41.94061" lon="0.75101">
        <ele>718.4</ele>
        <time>2022-05-23 14:40:48</time>
      </trkpt>
      <trkpt lat="41.94061" lon="0.75085">
        <ele>717.6</ele>
        <time>2022-05-23 14:40:49</time>
      </trkpt>
      <trkpt lat="41.94061" lon="0.75069">
        <ele>716.8</ele>
        <time>2022-05-23 14:40:50</time>
      </trkpt>
      <trkpt lat="41.94061" lon="0.75053">
        <ele>716</ele>
        <time>2022-05-23 14:40:51</time>
      </trkpt>
      <trkpt lat="41.94059" lon="0.75039">
        <ele>715</ele>
        <time>2022-05-23 14:40:52</time>
      </trkpt>
      <trkpt lat="41.94057" lon="0.75023">
        <ele>714.4</ele>
        <time>2022-05-23 14:40:53</time>
      </trkpt>
      <trkpt lat="41.94054" lon="0.75008">
        <ele>713.8</ele>
        <time>2022-05-23 14:40:54</time>
      </trkpt>
      <trkpt lat="41.94051" lon="0.74994">
        <ele>712.8</ele>
        <time>2022-05-23 14:40:55</time>
      </trkpt>
      <trkpt lat="41.94046" lon="0.74979">
        <ele>711.8</ele>
        <time>2022-05-23 14:40:56</time>
      </trkpt>
      <trkpt lat="41.94041" lon="0.74967">
        <ele>711</ele>
        <time>2022-05-23 14:40:57</time>
      </trkpt>
      <trkpt lat="41.94034" lon="0.74953">
        <ele>710.2</ele>
        <time>2022-05-23 14:40:58</time>
      </trkpt>
      <trkpt lat="41.94027" lon="0.74941">
        <ele>709.6</ele>
        <time>2022-05-23 14:40:59</time>
      </trkpt>
      <trkpt lat="41.9402" lon="0.7493">
        <ele>708.8</ele>
        <time>2022-05-23 14:41:00</time>
      </trkpt>
      <trkpt lat="41.94011" lon="0.74919">
        <ele>707.8</ele>
        <time>2022-05-23 14:41:01</time>
      </trkpt>
      <trkpt lat="41.94002" lon="0.74908">
        <ele>706.8</ele>
        <time>2022-05-23 14:41:02</time>
      </trkpt>
      <trkpt lat="41.93993" lon="0.74899">
        <ele>705.8</ele>
        <time>2022-05-23 14:41:03</time>
      </trkpt>
      <trkpt lat="41.93984" lon="0.7489">
        <ele>704.8</ele>
        <time>2022-05-23 14:41:04</time>
      </trkpt>
      <trkpt lat="41.93973" lon="0.74879">
        <ele>703.8</ele>
        <time>2022-05-23 14:41:05</time>
      </trkpt>
      <trkpt lat="41.93964" lon="0.74869">
        <ele>702.8</ele>
        <time>2022-05-23 14:41:06</time>
      </trkpt>
      <trkpt lat="41.93954" lon="0.74859">
        <ele>701.6</ele>
        <time>2022-05-23 14:41:07</time>
      </trkpt>
      <trkpt lat="41.93944" lon="0.7485">
        <ele>700.4</ele>
        <time>2022-05-23 14:41:08</time>
      </trkpt>
      <trkpt lat="41.93934" lon="0.7484">
        <ele>699.2</ele>
        <time>2022-05-23 14:41:09</time>
      </trkpt>
      <trkpt lat="41.93924" lon="0.7483">
        <ele>698.2</ele>
        <time>2022-05-23 14:41:10</time>
      </trkpt>
      <trkpt lat="41.93913" lon="0.74819">
        <ele>697.4</ele>
        <time>2022-05-23 14:41:11</time>
      </trkpt>
      <trkpt lat="41.93904" lon="0.7481">
        <ele>696.4</ele>
        <time>2022-05-23 14:41:12</time>
      </trkpt>
      <trkpt lat="41.93894" lon="0.748">
        <ele>695.4</ele>
        <time>2022-05-23 14:41:13</time>
      </trkpt>
      <trkpt lat="41.93883" lon="0.7479">
        <ele>694.2</ele>
        <time>2022-05-23 14:41:14</time>
      </trkpt>
      <trkpt lat="41.93873" lon="0.74779">
        <ele>693</ele>
        <time>2022-05-23 14:41:15</time>
      </trkpt>
      <trkpt lat="41.93863" lon="0.7477">
        <ele>692</ele>
        <time>2022-05-23 14:41:16</time>
      </trkpt>
      <trkpt lat="41.93854" lon="0.7476">
        <ele>691.2</ele>
        <time>2022-05-23 14:41:17</time>
      </trkpt>
      <trkpt lat="41.93843" lon="0.7475">
        <ele>690.4</ele>
        <time>2022-05-23 14:41:18</time>
      </trkpt>
      <trkpt lat="41.93833" lon="0.7474">
        <ele>689.8</ele>
        <time>2022-05-23 14:41:19</time>
      </trkpt>
      <trkpt lat="41.93824" lon="0.74731">
        <ele>689.2</ele>
        <time>2022-05-23 14:41:20</time>
      </trkpt>
      <trkpt lat="41.93814" lon="0.74721">
        <ele>688.6</ele>
        <time>2022-05-23 14:41:21</time>
      </trkpt>
      <trkpt lat="41.93805" lon="0.74712">
        <ele>687.8</ele>
        <time>2022-05-23 14:41:22</time>
      </trkpt>
      <trkpt lat="41.93796" lon="0.74703">
        <ele>687</ele>
        <time>2022-05-23 14:41:23</time>
      </trkpt>
      <trkpt lat="41.93786" lon="0.74693">
        <ele>686</ele>
        <time>2022-05-23 14:41:24</time>
      </trkpt>
      <trkpt lat="41.93777" lon="0.74684">
        <ele>685.4</ele>
        <time>2022-05-23 14:41:25</time>
      </trkpt>
      <trkpt lat="41.93769" lon="0.74677">
        <ele>684.8</ele>
        <time>2022-05-23 14:41:26</time>
      </trkpt>
      <trkpt lat="41.93759" lon="0.74667">
        <ele>683.8</ele>
        <time>2022-05-23 14:41:27</time>
      </trkpt>
      <trkpt lat="41.93748" lon="0.74658">
        <ele>682.8</ele>
        <time>2022-05-23 14:41:28</time>
      </trkpt>
      <trkpt lat="41.93737" lon="0.74649">
        <ele>681.8</ele>
        <time>2022-05-23 14:41:29</time>
      </trkpt>
      <trkpt lat="41.93728" lon="0.74642">
        <ele>681</ele>
        <time>2022-05-23 14:41:30</time>
      </trkpt>
      <trkpt lat="41.93718" lon="0.74636">
        <ele>681</ele>
        <time>2022-05-23 14:41:31</time>
      </trkpt>
      <trkpt lat="41.93708" lon="0.74631">
        <ele>681</ele>
        <time>2022-05-23 14:41:32</time>
      </trkpt>
      <trkpt lat="41.93697" lon="0.74627">
        <ele>681</ele>
        <time>2022-05-23 14:41:33</time>
      </trkpt>
      <trkpt lat="41.93686" lon="0.74623">
        <ele>681</ele>
        <time>2022-05-23 14:41:34</time>
      </trkpt>
      <trkpt lat="41.93676" lon="0.74621">
        <ele>680.6</ele>
        <time>2022-05-23 14:41:35</time>
      </trkpt>
      <trkpt lat="41.93664" lon="0.7462">
        <ele>680.2</ele>
        <time>2022-05-23 14:41:36</time>
      </trkpt>
      <trkpt lat="41.93653" lon="0.74621">
        <ele>680</ele>
        <time>2022-05-23 14:41:37</time>
      </trkpt>
      <trkpt lat="41.93642" lon="0.74622">
        <ele>679.8</ele>
        <time>2022-05-23 14:41:38</time>
      </trkpt>
      <trkpt lat="41.93632" lon="0.74625">
        <ele>679.6</ele>
        <time>2022-05-23 14:41:39</time>
      </trkpt>
      <trkpt lat="41.93622" lon="0.74629">
        <ele>679.6</ele>
        <time>2022-05-23 14:41:40</time>
      </trkpt>
      <trkpt lat="41.93612" lon="0.74634">
        <ele>679.4</ele>
        <time>2022-05-23 14:41:41</time>
      </trkpt>
      <trkpt lat="41.93604" lon="0.7464">
        <ele>679.4</ele>
        <time>2022-05-23 14:41:42</time>
      </trkpt>
      <trkpt lat="41.93595" lon="0.74646">
        <ele>679.6</ele>
        <time>2022-05-23 14:41:43</time>
      </trkpt>
      <trkpt lat="41.93586" lon="0.74653">
        <ele>679.6</ele>
        <time>2022-05-23 14:41:44</time>
      </trkpt>
      <trkpt lat="41.93579" lon="0.7466">
        <ele>679.6</ele>
        <time>2022-05-23 14:41:45</time>
      </trkpt>
      <trkpt lat="41.93571" lon="0.74667">
        <ele>679.6</ele>
        <time>2022-05-23 14:41:46</time>
      </trkpt>
      <trkpt lat="41.93564" lon="0.74676">
        <ele>679.6</ele>
        <time>2022-05-23 14:41:47</time>
      </trkpt>
      <trkpt lat="41.93558" lon="0.74684">
        <ele>679.6</ele>
        <time>2022-05-23 14:41:48</time>
      </trkpt>
      <trkpt lat="41.9355" lon="0.74692">
        <ele>679.6</ele>
        <time>2022-05-23 14:41:49</time>
      </trkpt>
      <trkpt lat="41.93544" lon="0.74699">
        <ele>679.6</ele>
        <time>2022-05-23 14:41:50</time>
      </trkpt>
      <trkpt lat="41.93537" lon="0.74707">
        <ele>679.6</ele>
        <time>2022-05-23 14:41:51</time>
      </trkpt>
      <trkpt lat="41.93531" lon="0.74716">
        <ele>679.8</ele>
        <time>2022-05-23 14:41:52</time>
      </trkpt>
      <trkpt lat="41.93524" lon="0.74725">
        <ele>679.8</ele>
        <time>2022-05-23 14:41:53</time>
      </trkpt>
      <trkpt lat="41.93518" lon="0.74733">
        <ele>679.8</ele>
        <time>2022-05-23 14:41:54</time>
      </trkpt>
      <trkpt lat="41.93511" lon="0.74741">
        <ele>679.6</ele>
        <time>2022-05-23 14:41:55</time>
      </trkpt>
      <trkpt lat="41.93504" lon="0.74749">
        <ele>679.6</ele>
        <time>2022-05-23 14:41:56</time>
      </trkpt>
      <trkpt lat="41.93498" lon="0.74755">
        <ele>679.6</ele>
        <time>2022-05-23 14:41:57</time>
      </trkpt>
      <trkpt lat="41.9349" lon="0.74762">
        <ele>679.6</ele>
        <time>2022-05-23 14:41:58</time>
      </trkpt>
      <trkpt lat="41.93482" lon="0.74767">
        <ele>679.8</ele>
        <time>2022-05-23 14:41:59</time>
      </trkpt>
      <trkpt lat="41.93474" lon="0.74772">
        <ele>680</ele>
        <time>2022-05-23 14:42:00</time>
      </trkpt>
      <trkpt lat="41.93466" lon="0.74775">
        <ele>680</ele>
        <time>2022-05-23 14:42:01</time>
      </trkpt>
      <trkpt lat="41.93458" lon="0.74778">
        <ele>680</ele>
        <time>2022-05-23 14:42:02</time>
      </trkpt>
      <trkpt lat="41.9345" lon="0.74779">
        <ele>680</ele>
        <time>2022-05-23 14:42:03</time>
      </trkpt>
      <trkpt lat="41.93442" lon="0.7478">
        <ele>680</ele>
        <time>2022-05-23 14:42:04</time>
      </trkpt>
      <trkpt lat="41.93435" lon="0.74781">
        <ele>680.2</ele>
        <time>2022-05-23 14:42:05</time>
      </trkpt>
      <trkpt lat="41.93428" lon="0.74781">
        <ele>680.4</ele>
        <time>2022-05-23 14:42:06</time>
      </trkpt>
      <trkpt lat="41.93421" lon="0.74781">
        <ele>680.6</ele>
        <time>2022-05-23 14:42:07</time>
      </trkpt>
      <trkpt lat="41.93415" lon="0.7478">
        <ele>680.6</ele>
        <time>2022-05-23 14:42:08</time>
      </trkpt>
      <trkpt lat="41.93408" lon="0.7478">
        <ele>680.8</ele>
        <time>2022-05-23 14:42:09</time>
      </trkpt>
      <trkpt lat="41.93401" lon="0.7478">
        <ele>680.8</ele>
        <time>2022-05-23 14:42:10</time>
      </trkpt>
      <trkpt lat="41.93395" lon="0.74779">
        <ele>681</ele>
        <time>2022-05-23 14:42:11</time>
      </trkpt>
      <trkpt lat="41.93389" lon="0.74779">
        <ele>681</ele>
        <time>2022-05-23 14:42:12</time>
      </trkpt>
      <trkpt lat="41.93382" lon="0.74778">
        <ele>681</ele>
        <time>2022-05-23 14:42:13</time>
      </trkpt>
      <trkpt lat="41.93376" lon="0.74778">
        <ele>681</ele>
        <time>2022-05-23 14:42:14</time>
      </trkpt>
      <trkpt lat="41.93371" lon="0.74777">
        <ele>681</ele>
        <time>2022-05-23 14:42:15</time>
      </trkpt>
      <trkpt lat="41.93365" lon="0.74776">
        <ele>680.8</ele>
        <time>2022-05-23 14:42:16</time>
      </trkpt>
      <trkpt lat="41.93359" lon="0.74776">
        <ele>680.8</ele>
        <time>2022-05-23 14:42:17</time>
      </trkpt>
      <trkpt lat="41.93353" lon="0.74776">
        <ele>680.8</ele>
        <time>2022-05-23 14:42:18</time>
      </trkpt>
      <trkpt lat="41.93348" lon="0.74775">
        <ele>681</ele>
        <time>2022-05-23 14:42:19</time>
      </trkpt>
      <trkpt lat="41.93343" lon="0.74775">
        <ele>681.2</ele>
        <time>2022-05-23 14:42:20</time>
      </trkpt>
      <trkpt lat="41.93337" lon="0.74775">
        <ele>681.6</ele>
        <time>2022-05-23 14:42:21</time>
      </trkpt>
      <trkpt lat="41.93332" lon="0.74775">
        <ele>682</ele>
        <time>2022-05-23 14:42:22</time>
      </trkpt>
      <trkpt lat="41.93327" lon="0.74775">
        <ele>682</ele>
        <time>2022-05-23 14:42:23</time>
      </trkpt>
      <trkpt lat="41.93322" lon="0.74775">
        <ele>682.2</ele>
        <time>2022-05-23 14:42:24</time>
      </trkpt>
      <trkpt lat="41.93317" lon="0.74775">
        <ele>682.2</ele>
        <time>2022-05-23 14:42:25</time>
      </trkpt>
      <trkpt lat="41.93312" lon="0.74775">
        <ele>682.4</ele>
        <time>2022-05-23 14:42:26</time>
      </trkpt>
      <trkpt lat="41.93307" lon="0.74776">
        <ele>682.6</ele>
        <time>2022-05-23 14:42:27</time>
      </trkpt>
      <trkpt lat="41.93303" lon="0.74776">
        <ele>682.8</ele>
        <time>2022-05-23 14:42:28</time>
      </trkpt>
      <trkpt lat="41.93298" lon="0.74777">
        <ele>683</ele>
        <time>2022-05-23 14:42:29</time>
      </trkpt>
      <trkpt lat="41.93294" lon="0.74777">
        <ele>683</ele>
        <time>2022-05-23 14:42:30</time>
      </trkpt>
      <trkpt lat="41.93289" lon="0.74778">
        <ele>683.2</ele>
        <time>2022-05-23 14:42:31</time>
      </trkpt>
      <trkpt lat="41.93285" lon="0.74778">
        <ele>683.4</ele>
        <time>2022-05-23 14:42:32</time>
      </trkpt>
      <trkpt lat="41.93281" lon="0.74779">
        <ele>683.4</ele>
        <time>2022-05-23 14:42:33</time>
      </trkpt>
      <trkpt lat="41.93277" lon="0.7478">
        <ele>683.6</ele>
        <time>2022-05-23 14:42:34</time>
      </trkpt>
      <trkpt lat="41.93272" lon="0.74781">
        <ele>683.8</ele>
        <time>2022-05-23 14:42:35</time>
      </trkpt>
      <trkpt lat="41.93268" lon="0.74782">
        <ele>683.8</ele>
        <time>2022-05-23 14:42:36</time>
      </trkpt>
      <trkpt lat="41.93264" lon="0.74783">
        <ele>684</ele>
        <time>2022-05-23 14:42:37</time>
      </trkpt>
      <trkpt lat="41.93259" lon="0.74784">
        <ele>684.2</ele>
        <time>2022-05-23 14:42:38</time>
      </trkpt>
      <trkpt lat="41.93255" lon="0.74785">
        <ele>684.2</ele>
        <time>2022-05-23 14:42:39</time>
      </trkpt>
      <trkpt lat="41.93251" lon="0.74786">
        <ele>684.4</ele>
        <time>2022-05-23 14:42:40</time>
      </trkpt>
      <trkpt lat="41.93246" lon="0.74788">
        <ele>684.6</ele>
        <time>2022-05-23 14:42:41</time>
      </trkpt>
      <trkpt lat="41.93242" lon="0.74789">
        <ele>684.8</ele>
        <time>2022-05-23 14:42:42</time>
      </trkpt>
      <trkpt lat="41.93238" lon="0.74791">
        <ele>685</ele>
        <time>2022-05-23 14:42:43</time>
      </trkpt>
      <trkpt lat="41.93234" lon="0.74793">
        <ele>685</ele>
        <time>2022-05-23 14:42:44</time>
      </trkpt>
      <trkpt lat="41.9323" lon="0.74794">
        <ele>685.2</ele>
        <time>2022-05-23 14:42:45</time>
      </trkpt>
      <trkpt lat="41.93226" lon="0.74796">
        <ele>685.4</ele>
        <time>2022-05-23 14:42:46</time>
      </trkpt>
      <trkpt lat="41.93222" lon="0.74798">
        <ele>685.6</ele>
        <time>2022-05-23 14:42:47</time>
      </trkpt>
      <trkpt lat="41.93218" lon="0.748">
        <ele>685.8</ele>
        <time>2022-05-23 14:42:48</time>
      </trkpt>
      <trkpt lat="41.93214" lon="0.74802">
        <ele>685.8</ele>
        <time>2022-05-23 14:42:49</time>
      </trkpt>
      <trkpt lat="41.9321" lon="0.74804">
        <ele>686</ele>
        <time>2022-05-23 14:42:50</time>
      </trkpt>
      <trkpt lat="41.93206" lon="0.74807">
        <ele>686.2</ele>
        <time>2022-05-23 14:42:51</time>
      </trkpt>
      <trkpt lat="41.93202" lon="0.74809">
        <ele>686.2</ele>
        <time>2022-05-23 14:42:52</time>
      </trkpt>
      <trkpt lat="41.93198" lon="0.74811">
        <ele>686.4</ele>
        <time>2022-05-23 14:42:53</time>
      </trkpt>
      <trkpt lat="41.93194" lon="0.74814">
        <ele>686.6</ele>
        <time>2022-05-23 14:42:54</time>
      </trkpt>
      <trkpt lat="41.9319" lon="0.74817">
        <ele>686.6</ele>
        <time>2022-05-23 14:42:55</time>
      </trkpt>
      <trkpt lat="41.93187" lon="0.74819">
        <ele>686.8</ele>
        <time>2022-05-23 14:42:56</time>
      </trkpt>
      <trkpt lat="41.93183" lon="0.74822">
        <ele>687</ele>
        <time>2022-05-23 14:42:57</time>
      </trkpt>
      <trkpt lat="41.93179" lon="0.74825">
        <ele>687</ele>
        <time>2022-05-23 14:42:58</time>
      </trkpt>
      <trkpt lat="41.93175" lon="0.74827">
        <ele>687.2</ele>
        <time>2022-05-23 14:42:59</time>
      </trkpt>
      <trkpt lat="41.93172" lon="0.7483">
        <ele>687.2</ele>
        <time>2022-05-23 14:43:00</time>
      </trkpt>
      <trkpt lat="41.93169" lon="0.74833">
        <ele>687.4</ele>
        <time>2022-05-23 14:43:01</time>
      </trkpt>
      <trkpt lat="41.93165" lon="0.74837">
        <ele>687.6</ele>
        <time>2022-05-23 14:43:02</time>
      </trkpt>
      <trkpt lat="41.93162" lon="0.7484">
        <ele>687.6</ele>
        <time>2022-05-23 14:43:03</time>
      </trkpt>
      <trkpt lat="41.93158" lon="0.74843">
        <ele>687.8</ele>
        <time>2022-05-23 14:43:04</time>
      </trkpt>
      <trkpt lat="41.93155" lon="0.74846">
        <ele>687.8</ele>
        <time>2022-05-23 14:43:05</time>
      </trkpt>
      <trkpt lat="41.93152" lon="0.74849">
        <ele>688</ele>
        <time>2022-05-23 14:43:06</time>
      </trkpt>
      <trkpt lat="41.93149" lon="0.74852">
        <ele>688</ele>
        <time>2022-05-23 14:43:07</time>
      </trkpt>
      <trkpt lat="41.93146" lon="0.74856">
        <ele>688</ele>
        <time>2022-05-23 14:43:08</time>
      </trkpt>
      <trkpt lat="41.93143" lon="0.74859">
        <ele>688.2</ele>
        <time>2022-05-23 14:43:09</time>
      </trkpt>
      <trkpt lat="41.9314" lon="0.74862">
        <ele>688.4</ele>
        <time>2022-05-23 14:43:10</time>
      </trkpt>
      <trkpt lat="41.93136" lon="0.74866">
        <ele>688.6</ele>
        <time>2022-05-23 14:43:11</time>
      </trkpt>
      <trkpt lat="41.93133" lon="0.74869">
        <ele>688.6</ele>
        <time>2022-05-23 14:43:12</time>
      </trkpt>
      <trkpt lat="41.93131" lon="0.74873">
        <ele>688.8</ele>
        <time>2022-05-23 14:43:13</time>
      </trkpt>
      <trkpt lat="41.93127" lon="0.74876">
        <ele>689</ele>
        <time>2022-05-23 14:43:14</time>
      </trkpt>
      <trkpt lat="41.93125" lon="0.7488">
        <ele>689</ele>
        <time>2022-05-23 14:43:15</time>
      </trkpt>
      <trkpt lat="41.93122" lon="0.74883">
        <ele>689</ele>
        <time>2022-05-23 14:43:16</time>
      </trkpt>
      <trkpt lat="41.93119" lon="0.74887">
        <ele>689</ele>
        <time>2022-05-23 14:43:17</time>
      </trkpt>
      <trkpt lat="41.93117" lon="0.7489">
        <ele>689</ele>
        <time>2022-05-23 14:43:18</time>
      </trkpt>
      <trkpt lat="41.93114" lon="0.74894">
        <ele>689</ele>
        <time>2022-05-23 14:43:19</time>
      </trkpt>
      <trkpt lat="41.93111" lon="0.74897">
        <ele>689.2</ele>
        <time>2022-05-23 14:43:20</time>
      </trkpt>
      <trkpt lat="41.93109" lon="0.749">
        <ele>689.4</ele>
        <time>2022-05-23 14:43:21</time>
      </trkpt>
      <trkpt lat="41.93106" lon="0.74904">
        <ele>689.6</ele>
        <time>2022-05-23 14:43:22</time>
      </trkpt>
      <trkpt lat="41.93104" lon="0.74907">
        <ele>689.6</ele>
        <time>2022-05-23 14:43:23</time>
      </trkpt>
      <trkpt lat="41.93101" lon="0.74911">
        <ele>689.8</ele>
        <time>2022-05-23 14:43:24</time>
      </trkpt>
      <trkpt lat="41.93099" lon="0.74914">
        <ele>689.8</ele>
        <time>2022-05-23 14:43:25</time>
      </trkpt>
      <trkpt lat="41.93096" lon="0.74918">
        <ele>690</ele>
        <time>2022-05-23 14:43:26</time>
      </trkpt>
      <trkpt lat="41.93094" lon="0.74922">
        <ele>690.2</ele>
        <time>2022-05-23 14:43:27</time>
      </trkpt>
      <trkpt lat="41.93091" lon="0.74926">
        <ele>690.2</ele>
        <time>2022-05-23 14:43:28</time>
      </trkpt>
      <trkpt lat="41.93089" lon="0.7493">
        <ele>690.2</ele>
        <time>2022-05-23 14:43:29</time>
      </trkpt>
      <trkpt lat="41.93087" lon="0.74934">
        <ele>690.4</ele>
        <time>2022-05-23 14:43:30</time>
      </trkpt>
      <trkpt lat="41.93084" lon="0.74938">
        <ele>690.4</ele>
        <time>2022-05-23 14:43:31</time>
      </trkpt>
      <trkpt lat="41.93082" lon="0.74942">
        <ele>690.4</ele>
        <time>2022-05-23 14:43:32</time>
      </trkpt>
      <trkpt lat="41.93079" lon="0.74946">
        <ele>690.6</ele>
        <time>2022-05-23 14:43:33</time>
      </trkpt>
      <trkpt lat="41.93077" lon="0.7495">
        <ele>690.6</ele>
        <time>2022-05-23 14:43:34</time>
      </trkpt>
      <trkpt lat="41.93074" lon="0.74954">
        <ele>690.8</ele>
        <time>2022-05-23 14:43:35</time>
      </trkpt>
      <trkpt lat="41.93072" lon="0.74958">
        <ele>690.8</ele>
        <time>2022-05-23 14:43:36</time>
      </trkpt>
      <trkpt lat="41.93069" lon="0.74962">
        <ele>691</ele>
        <time>2022-05-23 14:43:37</time>
      </trkpt>
      <trkpt lat="41.93067" lon="0.74966">
        <ele>691.2</ele>
        <time>2022-05-23 14:43:38</time>
      </trkpt>
      <trkpt lat="41.93064" lon="0.7497">
        <ele>691.2</ele>
        <time>2022-05-23 14:43:39</time>
      </trkpt>
      <trkpt lat="41.93062" lon="0.74974">
        <ele>691.4</ele>
        <time>2022-05-23 14:43:40</time>
      </trkpt>
      <trkpt lat="41.9306" lon="0.74979">
        <ele>691.4</ele>
        <time>2022-05-23 14:43:41</time>
      </trkpt>
      <trkpt lat="41.93058" lon="0.74983">
        <ele>691.4</ele>
        <time>2022-05-23 14:43:42</time>
      </trkpt>
      <trkpt lat="41.93055" lon="0.74987">
        <ele>691.6</ele>
        <time>2022-05-23 14:43:43</time>
      </trkpt>
      <trkpt lat="41.93053" lon="0.74991">
        <ele>691.6</ele>
        <time>2022-05-23 14:43:44</time>
      </trkpt>
      <trkpt lat="41.9305" lon="0.74995">
        <ele>691.8</ele>
        <time>2022-05-23 14:43:45</time>
      </trkpt>
      <trkpt lat="41.93047" lon="0.74999">
        <ele>691.8</ele>
        <time>2022-05-23 14:43:46</time>
      </trkpt>
      <trkpt lat="41.93045" lon="0.75003">
        <ele>692</ele>
        <time>2022-05-23 14:43:47</time>
      </trkpt>
      <trkpt lat="41.93042" lon="0.75007">
        <ele>692</ele>
        <time>2022-05-23 14:43:48</time>
      </trkpt>
      <trkpt lat="41.9304" lon="0.75011">
        <ele>692.2</ele>
        <time>2022-05-23 14:43:49</time>
      </trkpt>
      <trkpt lat="41.93037" lon="0.75014">
        <ele>692.2</ele>
        <time>2022-05-23 14:43:50</time>
      </trkpt>
      <trkpt lat="41.93035" lon="0.75018">
        <ele>692.4</ele>
        <time>2022-05-23 14:43:51</time>
      </trkpt>
      <trkpt lat="41.93032" lon="0.75022">
        <ele>692.6</ele>
        <time>2022-05-23 14:43:52</time>
      </trkpt>
      <trkpt lat="41.9303" lon="0.75026">
        <ele>692.6</ele>
        <time>2022-05-23 14:43:53</time>
      </trkpt>
      <trkpt lat="41.93028" lon="0.7503">
        <ele>692.8</ele>
        <time>2022-05-23 14:43:54</time>
      </trkpt>
      <trkpt lat="41.93026" lon="0.75034">
        <ele>693</ele>
        <time>2022-05-23 14:43:55</time>
      </trkpt>
      <trkpt lat="41.93023" lon="0.75039">
        <ele>693</ele>
        <time>2022-05-23 14:43:56</time>
      </trkpt>
      <trkpt lat="41.93021" lon="0.75043">
        <ele>693.2</ele>
        <time>2022-05-23 14:43:57</time>
      </trkpt>
      <trkpt lat="41.93019" lon="0.75047">
        <ele>693.2</ele>
        <time>2022-05-23 14:43:58</time>
      </trkpt>
      <trkpt lat="41.93016" lon="0.75051">
        <ele>693.4</ele>
        <time>2022-05-23 14:43:59</time>
      </trkpt>
      <trkpt lat="41.93014" lon="0.75054">
        <ele>693.6</ele>
        <time>2022-05-23 14:44:00</time>
      </trkpt>
      <trkpt lat="41.93011" lon="0.75058">
        <ele>693.8</ele>
        <time>2022-05-23 14:44:01</time>
      </trkpt>
      <trkpt lat="41.93009" lon="0.75062">
        <ele>693.8</ele>
        <time>2022-05-23 14:44:02</time>
      </trkpt>
      <trkpt lat="41.93006" lon="0.75066">
        <ele>693.8</ele>
        <time>2022-05-23 14:44:03</time>
      </trkpt>
      <trkpt lat="41.93004" lon="0.75069">
        <ele>693.8</ele>
        <time>2022-05-23 14:44:04</time>
      </trkpt>
      <trkpt lat="41.93001" lon="0.75073">
        <ele>694</ele>
        <time>2022-05-23 14:44:05</time>
      </trkpt>
      <trkpt lat="41.92998" lon="0.75077">
        <ele>694</ele>
        <time>2022-05-23 14:44:06</time>
      </trkpt>
      <trkpt lat="41.92996" lon="0.75082">
        <ele>694.2</ele>
        <time>2022-05-23 14:44:07</time>
      </trkpt>
      <trkpt lat="41.92994" lon="0.75087">
        <ele>694.4</ele>
        <time>2022-05-23 14:44:08</time>
      </trkpt>
      <trkpt lat="41.92992" lon="0.75091">
        <ele>694.4</ele>
        <time>2022-05-23 14:44:09</time>
      </trkpt>
      <trkpt lat="41.92989" lon="0.75096">
        <ele>694.6</ele>
        <time>2022-05-23 14:44:10</time>
      </trkpt>
      <trkpt lat="41.92986" lon="0.75101">
        <ele>694.8</ele>
        <time>2022-05-23 14:44:11</time>
      </trkpt>
      <trkpt lat="41.92983" lon="0.75106">
        <ele>695</ele>
        <time>2022-05-23 14:44:12</time>
      </trkpt>
      <trkpt lat="41.92981" lon="0.7511">
        <ele>695.2</ele>
        <time>2022-05-23 14:44:13</time>
      </trkpt>
      <trkpt lat="41.92978" lon="0.75115">
        <ele>695.2</ele>
        <time>2022-05-23 14:44:14</time>
      </trkpt>
      <trkpt lat="41.92975" lon="0.75119">
        <ele>695.4</ele>
        <time>2022-05-23 14:44:15</time>
      </trkpt>
      <trkpt lat="41.92973" lon="0.75124">
        <ele>695.6</ele>
        <time>2022-05-23 14:44:16</time>
      </trkpt>
      <trkpt lat="41.9297" lon="0.75128">
        <ele>695.8</ele>
        <time>2022-05-23 14:44:17</time>
      </trkpt>
      <trkpt lat="41.92967" lon="0.75132">
        <ele>696</ele>
        <time>2022-05-23 14:44:18</time>
      </trkpt>
      <trkpt lat="41.92964" lon="0.75136">
        <ele>696</ele>
        <time>2022-05-23 14:44:19</time>
      </trkpt>
      <trkpt lat="41.92962" lon="0.7514">
        <ele>696.2</ele>
        <time>2022-05-23 14:44:20</time>
      </trkpt>
      <trkpt lat="41.92959" lon="0.75144">
        <ele>696.2</ele>
        <time>2022-05-23 14:44:21</time>
      </trkpt>
      <trkpt lat="41.92956" lon="0.75148">
        <ele>696.2</ele>
        <time>2022-05-23 14:44:22</time>
      </trkpt>
      <trkpt lat="41.92954" lon="0.75152">
        <ele>696.4</ele>
        <time>2022-05-23 14:44:23</time>
      </trkpt>
      <trkpt lat="41.92952" lon="0.75156">
        <ele>696.4</ele>
        <time>2022-05-23 14:44:24</time>
      </trkpt>
      <trkpt lat="41.92949" lon="0.75159">
        <ele>696.6</ele>
        <time>2022-05-23 14:44:25</time>
      </trkpt>
      <trkpt lat="41.92947" lon="0.75163">
        <ele>696.6</ele>
        <time>2022-05-23 14:44:26</time>
      </trkpt>
      <trkpt lat="41.92945" lon="0.75166">
        <ele>696.8</ele>
        <time>2022-05-23 14:44:27</time>
      </trkpt>
      <trkpt lat="41.92942" lon="0.7517">
        <ele>696.8</ele>
        <time>2022-05-23 14:44:28</time>
      </trkpt>
      <trkpt lat="41.9294" lon="0.75174">
        <ele>697</ele>
        <time>2022-05-23 14:44:29</time>
      </trkpt>
      <trkpt lat="41.92937" lon="0.75177">
        <ele>697</ele>
        <time>2022-05-23 14:44:30</time>
      </trkpt>
      <trkpt lat="41.92935" lon="0.75181">
        <ele>697</ele>
        <time>2022-05-23 14:44:31</time>
      </trkpt>
      <trkpt lat="41.92932" lon="0.75184">
        <ele>697.2</ele>
        <time>2022-05-23 14:44:32</time>
      </trkpt>
      <trkpt lat="41.92929" lon="0.75187">
        <ele>697.2</ele>
        <time>2022-05-23 14:44:33</time>
      </trkpt>
      <trkpt lat="41.92926" lon="0.7519">
        <ele>697.4</ele>
        <time>2022-05-23 14:44:34</time>
      </trkpt>
      <trkpt lat="41.92924" lon="0.75193">
        <ele>697.4</ele>
        <time>2022-05-23 14:44:35</time>
      </trkpt>
      <trkpt lat="41.92921" lon="0.75197">
        <ele>697.6</ele>
        <time>2022-05-23 14:44:36</time>
      </trkpt>
      <trkpt lat="41.92918" lon="0.752">
        <ele>697.6</ele>
        <time>2022-05-23 14:44:37</time>
      </trkpt>
      <trkpt lat="41.92915" lon="0.75203">
        <ele>697.8</ele>
        <time>2022-05-23 14:44:38</time>
      </trkpt>
      <trkpt lat="41.92912" lon="0.75205">
        <ele>697.8</ele>
        <time>2022-05-23 14:44:39</time>
      </trkpt>
      <trkpt lat="41.92909" lon="0.75208">
        <ele>698</ele>
        <time>2022-05-23 14:44:40</time>
      </trkpt>
      <trkpt lat="41.92906" lon="0.75211">
        <ele>698</ele>
        <time>2022-05-23 14:44:41</time>
      </trkpt>
      <trkpt lat="41.92903" lon="0.75213">
        <ele>698.2</ele>
        <time>2022-05-23 14:44:42</time>
      </trkpt>
      <trkpt lat="41.929" lon="0.75215">
        <ele>698.2</ele>
        <time>2022-05-23 14:44:43</time>
      </trkpt>
      <trkpt lat="41.92897" lon="0.75218">
        <ele>698.4</ele>
        <time>2022-05-23 14:44:44</time>
      </trkpt>
      <trkpt lat="41.92894" lon="0.7522">
        <ele>698.4</ele>
        <time>2022-05-23 14:44:45</time>
      </trkpt>
      <trkpt lat="41.9289" lon="0.75222">
        <ele>698.6</ele>
        <time>2022-05-23 14:44:46</time>
      </trkpt>
      <trkpt lat="41.92887" lon="0.75225">
        <ele>698.8</ele>
        <time>2022-05-23 14:44:47</time>
      </trkpt>
      <trkpt lat="41.92884" lon="0.75227">
        <ele>698.8</ele>
        <time>2022-05-23 14:44:48</time>
      </trkpt>
      <trkpt lat="41.9288" lon="0.75229">
        <ele>699</ele>
        <time>2022-05-23 14:44:49</time>
      </trkpt>
      <trkpt lat="41.92876" lon="0.7523">
        <ele>699</ele>
        <time>2022-05-23 14:44:50</time>
      </trkpt>
      <trkpt lat="41.92872" lon="0.75232">
        <ele>699.2</ele>
        <time>2022-05-23 14:44:51</time>
      </trkpt>
      <trkpt lat="41.92869" lon="0.75234">
        <ele>699.2</ele>
        <time>2022-05-23 14:44:52</time>
      </trkpt>
      <trkpt lat="41.92865" lon="0.75236">
        <ele>699.4</ele>
        <time>2022-05-23 14:44:53</time>
      </trkpt>
      <trkpt lat="41.92861" lon="0.75237">
        <ele>699.6</ele>
        <time>2022-05-23 14:44:54</time>
      </trkpt>
      <trkpt lat="41.92857" lon="0.75238">
        <ele>699.6</ele>
        <time>2022-05-23 14:44:55</time>
      </trkpt>
      <trkpt lat="41.92854" lon="0.75239">
        <ele>700</ele>
        <time>2022-05-23 14:44:56</time>
      </trkpt>
      <trkpt lat="41.9285" lon="0.7524">
        <ele>700.2</ele>
        <time>2022-05-23 14:44:57</time>
      </trkpt>
      <trkpt lat="41.92847" lon="0.75241">
        <ele>700.2</ele>
        <time>2022-05-23 14:44:58</time>
      </trkpt>
      <trkpt lat="41.92843" lon="0.75242">
        <ele>700.2</ele>
        <time>2022-05-23 14:44:59</time>
      </trkpt>
      <trkpt lat="41.92839" lon="0.75243">
        <ele>700.2</ele>
        <time>2022-05-23 14:45:00</time>
      </trkpt>
      <trkpt lat="41.92835" lon="0.75244">
        <ele>700.2</ele>
        <time>2022-05-23 14:45:01</time>
      </trkpt>
      <trkpt lat="41.92831" lon="0.75244">
        <ele>700.2</ele>
        <time>2022-05-23 14:45:02</time>
      </trkpt>
      <trkpt lat="41.92828" lon="0.75245">
        <ele>700.4</ele>
        <time>2022-05-23 14:45:03</time>
      </trkpt>
      <trkpt lat="41.92824" lon="0.75245">
        <ele>700.4</ele>
        <time>2022-05-23 14:45:04</time>
      </trkpt>
      <trkpt lat="41.9282" lon="0.75245">
        <ele>700.6</ele>
        <time>2022-05-23 14:45:05</time>
      </trkpt>
      <trkpt lat="41.92816" lon="0.75245">
        <ele>700.8</ele>
        <time>2022-05-23 14:45:06</time>
      </trkpt>
      <trkpt lat="41.92812" lon="0.75245">
        <ele>701</ele>
        <time>2022-05-23 14:45:07</time>
      </trkpt>
      <trkpt lat="41.92808" lon="0.75245">
        <ele>701</ele>
        <time>2022-05-23 14:45:08</time>
      </trkpt>
      <trkpt lat="41.92804" lon="0.75245">
        <ele>701.2</ele>
        <time>2022-05-23 14:45:09</time>
      </trkpt>
      <trkpt lat="41.928" lon="0.75245">
        <ele>701.4</ele>
        <time>2022-05-23 14:45:10</time>
      </trkpt>
      <trkpt lat="41.92796" lon="0.75244">
        <ele>701.4</ele>
        <time>2022-05-23 14:45:11</time>
      </trkpt>
      <trkpt lat="41.92792" lon="0.75244">
        <ele>701.6</ele>
        <time>2022-05-23 14:45:12</time>
      </trkpt>
      <trkpt lat="41.92789" lon="0.75244">
        <ele>701.6</ele>
        <time>2022-05-23 14:45:13</time>
      </trkpt>
      <trkpt lat="41.92785" lon="0.75243">
        <ele>701.6</ele>
        <time>2022-05-23 14:45:14</time>
      </trkpt>
      <trkpt lat="41.92781" lon="0.75243">
        <ele>701.4</ele>
        <time>2022-05-23 14:45:15</time>
      </trkpt>
      <trkpt lat="41.92779" lon="0.75243">
        <ele>701.4</ele>
        <time>2022-05-23 14:45:16</time>
      </trkpt>
      <trkpt lat="41.92774" lon="0.75242">
        <ele>701.6</ele>
        <time>2022-05-23 14:45:17</time>
      </trkpt>
      <trkpt lat="41.9277" lon="0.75242">
        <ele>701.8</ele>
        <time>2022-05-23 14:45:18</time>
      </trkpt>
      <trkpt lat="41.92767" lon="0.75241">
        <ele>701.8</ele>
        <time>2022-05-23 14:45:19</time>
      </trkpt>
      <trkpt lat="41.92762" lon="0.7524">
        <ele>701.8</ele>
        <time>2022-05-23 14:45:20</time>
      </trkpt>
      <trkpt lat="41.92758" lon="0.75239">
        <ele>701.8</ele>
        <time>2022-05-23 14:45:21</time>
      </trkpt>
      <trkpt lat="41.92754" lon="0.75239">
        <ele>702</ele>
        <time>2022-05-23 14:45:22</time>
      </trkpt>
      <trkpt lat="41.9275" lon="0.75238">
        <ele>702.2</ele>
        <time>2022-05-23 14:45:23</time>
      </trkpt>
      <trkpt lat="41.92746" lon="0.75236">
        <ele>702.6</ele>
        <time>2022-05-23 14:45:24</time>
      </trkpt>
      <trkpt lat="41.92742" lon="0.75236">
        <ele>702.8</ele>
        <time>2022-05-23 14:45:25</time>
      </trkpt>
      <trkpt lat="41.92738" lon="0.75235">
        <ele>702.8</ele>
        <time>2022-05-23 14:45:26</time>
      </trkpt>
      <trkpt lat="41.92734" lon="0.75234">
        <ele>702.8</ele>
        <time>2022-05-23 14:45:27</time>
      </trkpt>
      <trkpt lat="41.9273" lon="0.75234">
        <ele>702.8</ele>
        <time>2022-05-23 14:45:28</time>
      </trkpt>
      <trkpt lat="41.92726" lon="0.75233">
        <ele>702.8</ele>
        <time>2022-05-23 14:45:29</time>
      </trkpt>
      <trkpt lat="41.92721" lon="0.75232">
        <ele>702.8</ele>
        <time>2022-05-23 14:45:30</time>
      </trkpt>
      <trkpt lat="41.92717" lon="0.75232">
        <ele>702.8</ele>
        <time>2022-05-23 14:45:31</time>
      </trkpt>
      <trkpt lat="41.92713" lon="0.75231">
        <ele>702.8</ele>
        <time>2022-05-23 14:45:32</time>
      </trkpt>
      <trkpt lat="41.92709" lon="0.7523">
        <ele>702.8</ele>
        <time>2022-05-23 14:45:33</time>
      </trkpt>
      <trkpt lat="41.92705" lon="0.7523">
        <ele>702.8</ele>
        <time>2022-05-23 14:45:34</time>
      </trkpt>
      <trkpt lat="41.927" lon="0.75229">
        <ele>703</ele>
        <time>2022-05-23 14:45:35</time>
      </trkpt>
      <trkpt lat="41.92695" lon="0.75229">
        <ele>703</ele>
        <time>2022-05-23 14:45:36</time>
      </trkpt>
      <trkpt lat="41.9269" lon="0.75228">
        <ele>703.2</ele>
        <time>2022-05-23 14:45:37</time>
      </trkpt>
      <trkpt lat="41.92686" lon="0.75228">
        <ele>703.2</ele>
        <time>2022-05-23 14:45:38</time>
      </trkpt>
      <trkpt lat="41.92681" lon="0.75227">
        <ele>703.2</ele>
        <time>2022-05-23 14:45:39</time>
      </trkpt>
      <trkpt lat="41.92676" lon="0.75227">
        <ele>703.2</ele>
        <time>2022-05-23 14:45:40</time>
      </trkpt>
      <trkpt lat="41.92671" lon="0.75227">
        <ele>703.4</ele>
        <time>2022-05-23 14:45:41</time>
      </trkpt>
      <trkpt lat="41.92666" lon="0.75227">
        <ele>703.4</ele>
        <time>2022-05-23 14:45:42</time>
      </trkpt>
      <trkpt lat="41.9266" lon="0.75228">
        <ele>703.4</ele>
        <time>2022-05-23 14:45:43</time>
      </trkpt>
      <trkpt lat="41.92655" lon="0.75228">
        <ele>703.6</ele>
        <time>2022-05-23 14:45:44</time>
      </trkpt>
      <trkpt lat="41.9265" lon="0.75228">
        <ele>703.6</ele>
        <time>2022-05-23 14:45:45</time>
      </trkpt>
      <trkpt lat="41.92644" lon="0.75229">
        <ele>703.4</ele>
        <time>2022-05-23 14:45:46</time>
      </trkpt>
      <trkpt lat="41.92639" lon="0.75229">
        <ele>703.4</ele>
        <time>2022-05-23 14:45:47</time>
      </trkpt>
      <trkpt lat="41.92633" lon="0.7523">
        <ele>703.6</ele>
        <time>2022-05-23 14:45:48</time>
      </trkpt>
      <trkpt lat="41.92627" lon="0.75231">
        <ele>703.6</ele>
        <time>2022-05-23 14:45:49</time>
      </trkpt>
      <trkpt lat="41.92622" lon="0.75232">
        <ele>703.6</ele>
        <time>2022-05-23 14:45:50</time>
      </trkpt>
      <trkpt lat="41.92616" lon="0.75233">
        <ele>703.6</ele>
        <time>2022-05-23 14:45:51</time>
      </trkpt>
      <trkpt lat="41.92611" lon="0.75234">
        <ele>703.6</ele>
        <time>2022-05-23 14:45:52</time>
      </trkpt>
      <trkpt lat="41.92605" lon="0.75236">
        <ele>703.6</ele>
        <time>2022-05-23 14:45:53</time>
      </trkpt>
      <trkpt lat="41.92599" lon="0.75238">
        <ele>703.6</ele>
        <time>2022-05-23 14:45:54</time>
      </trkpt>
      <trkpt lat="41.92594" lon="0.7524">
        <ele>703.4</ele>
        <time>2022-05-23 14:45:55</time>
      </trkpt>
      <trkpt lat="41.92588" lon="0.75243">
        <ele>703.4</ele>
        <time>2022-05-23 14:45:56</time>
      </trkpt>
      <trkpt lat="41.92582" lon="0.75245">
        <ele>703.4</ele>
        <time>2022-05-23 14:45:57</time>
      </trkpt>
      <trkpt lat="41.92576" lon="0.75247">
        <ele>703.4</ele>
        <time>2022-05-23 14:45:58</time>
      </trkpt>
      <trkpt lat="41.92571" lon="0.7525">
        <ele>703.4</ele>
        <time>2022-05-23 14:45:59</time>
      </trkpt>
      <trkpt lat="41.92565" lon="0.75253">
        <ele>703.4</ele>
        <time>2022-05-23 14:46:00</time>
      </trkpt>
      <trkpt lat="41.9256" lon="0.75256">
        <ele>703.6</ele>
        <time>2022-05-23 14:46:01</time>
      </trkpt>
      <trkpt lat="41.92554" lon="0.75259">
        <ele>703.6</ele>
        <time>2022-05-23 14:46:02</time>
      </trkpt>
      <trkpt lat="41.92548" lon="0.75262">
        <ele>703.8</ele>
        <time>2022-05-23 14:46:03</time>
      </trkpt>
      <trkpt lat="41.92542" lon="0.75265">
        <ele>703.6</ele>
        <time>2022-05-23 14:46:04</time>
      </trkpt>
      <trkpt lat="41.92537" lon="0.75268">
        <ele>703.4</ele>
        <time>2022-05-23 14:46:05</time>
      </trkpt>
      <trkpt lat="41.92531" lon="0.75272">
        <ele>703.2</ele>
        <time>2022-05-23 14:46:06</time>
      </trkpt>
      <trkpt lat="41.92525" lon="0.75275">
        <ele>703.2</ele>
        <time>2022-05-23 14:46:07</time>
      </trkpt>
      <trkpt lat="41.92519" lon="0.75278">
        <ele>703</ele>
        <time>2022-05-23 14:46:08</time>
      </trkpt>
      <trkpt lat="41.92513" lon="0.75282">
        <ele>703</ele>
        <time>2022-05-23 14:46:09</time>
      </trkpt>
      <trkpt lat="41.92507" lon="0.75285">
        <ele>702.8</ele>
        <time>2022-05-23 14:46:10</time>
      </trkpt>
      <trkpt lat="41.92501" lon="0.75288">
        <ele>702.8</ele>
        <time>2022-05-23 14:46:11</time>
      </trkpt>
      <trkpt lat="41.92495" lon="0.75292">
        <ele>702.6</ele>
        <time>2022-05-23 14:46:12</time>
      </trkpt>
      <trkpt lat="41.92489" lon="0.75295">
        <ele>702.6</ele>
        <time>2022-05-23 14:46:13</time>
      </trkpt>
      <trkpt lat="41.92483" lon="0.75299">
        <ele>702.4</ele>
        <time>2022-05-23 14:46:14</time>
      </trkpt>
      <trkpt lat="41.92477" lon="0.75302">
        <ele>702.2</ele>
        <time>2022-05-23 14:46:15</time>
      </trkpt>
      <trkpt lat="41.92471" lon="0.75306">
        <ele>702.2</ele>
        <time>2022-05-23 14:46:16</time>
      </trkpt>
      <trkpt lat="41.92465" lon="0.75309">
        <ele>702</ele>
        <time>2022-05-23 14:46:17</time>
      </trkpt>
      <trkpt lat="41.92458" lon="0.75313">
        <ele>701.8</ele>
        <time>2022-05-23 14:46:18</time>
      </trkpt>
      <trkpt lat="41.92452" lon="0.75317">
        <ele>701.6</ele>
        <time>2022-05-23 14:46:19</time>
      </trkpt>
      <trkpt lat="41.92446" lon="0.7532">
        <ele>701.4</ele>
        <time>2022-05-23 14:46:20</time>
      </trkpt>
      <trkpt lat="41.92439" lon="0.75324">
        <ele>701.2</ele>
        <time>2022-05-23 14:46:21</time>
      </trkpt>
      <trkpt lat="41.92433" lon="0.75328">
        <ele>701.2</ele>
        <time>2022-05-23 14:46:22</time>
      </trkpt>
      <trkpt lat="41.92427" lon="0.75331">
        <ele>701</ele>
        <time>2022-05-23 14:46:23</time>
      </trkpt>
      <trkpt lat="41.9242" lon="0.75335">
        <ele>700.8</ele>
        <time>2022-05-23 14:46:24</time>
      </trkpt>
      <trkpt lat="41.92414" lon="0.75339">
        <ele>700.6</ele>
        <time>2022-05-23 14:46:25</time>
      </trkpt>
      <trkpt lat="41.92407" lon="0.75343">
        <ele>700.6</ele>
        <time>2022-05-23 14:46:26</time>
      </trkpt>
      <trkpt lat="41.924" lon="0.75346">
        <ele>700.4</ele>
        <time>2022-05-23 14:46:27</time>
      </trkpt>
      <trkpt lat="41.92393" lon="0.7535">
        <ele>700</ele>
        <time>2022-05-23 14:46:28</time>
      </trkpt>
      <trkpt lat="41.92387" lon="0.75354">
        <ele>699.6</ele>
        <time>2022-05-23 14:46:29</time>
      </trkpt>
      <trkpt lat="41.9238" lon="0.75358">
        <ele>699.2</ele>
        <time>2022-05-23 14:46:30</time>
      </trkpt>
      <trkpt lat="41.92373" lon="0.75362">
        <ele>699</ele>
        <time>2022-05-23 14:46:31</time>
      </trkpt>
      <trkpt lat="41.92366" lon="0.75366">
        <ele>698.6</ele>
        <time>2022-05-23 14:46:32</time>
      </trkpt>
      <trkpt lat="41.92359" lon="0.7537">
        <ele>698.4</ele>
        <time>2022-05-23 14:46:33</time>
      </trkpt>
      <trkpt lat="41.92351" lon="0.75374">
        <ele>698</ele>
        <time>2022-05-23 14:46:34</time>
      </trkpt>
      <trkpt lat="41.92343" lon="0.75379">
        <ele>697.8</ele>
        <time>2022-05-23 14:46:35</time>
      </trkpt>
      <trkpt lat="41.92336" lon="0.75383">
        <ele>697.4</ele>
        <time>2022-05-23 14:46:36</time>
      </trkpt>
      <trkpt lat="41.92328" lon="0.75387">
        <ele>697.2</ele>
        <time>2022-05-23 14:46:37</time>
      </trkpt>
      <trkpt lat="41.92321" lon="0.75392">
        <ele>696.8</ele>
        <time>2022-05-23 14:46:38</time>
      </trkpt>
      <trkpt lat="41.92313" lon="0.75396">
        <ele>696.6</ele>
        <time>2022-05-23 14:46:39</time>
      </trkpt>
      <trkpt lat="41.92305" lon="0.75401">
        <ele>696.2</ele>
        <time>2022-05-23 14:46:40</time>
      </trkpt>
      <trkpt lat="41.92297" lon="0.75404">
        <ele>696</ele>
        <time>2022-05-23 14:46:41</time>
      </trkpt>
      <trkpt lat="41.9229" lon="0.75408">
        <ele>695.6</ele>
        <time>2022-05-23 14:46:42</time>
      </trkpt>
      <trkpt lat="41.92282" lon="0.75412">
        <ele>695.4</ele>
        <time>2022-05-23 14:46:43</time>
      </trkpt>
      <trkpt lat="41.92275" lon="0.75417">
        <ele>695</ele>
        <time>2022-05-23 14:46:44</time>
      </trkpt>
      <trkpt lat="41.92267" lon="0.75422">
        <ele>694.8</ele>
        <time>2022-05-23 14:46:45</time>
      </trkpt>
      <trkpt lat="41.9226" lon="0.75427">
        <ele>694.6</ele>
        <time>2022-05-23 14:46:46</time>
      </trkpt>
      <trkpt lat="41.92252" lon="0.75431">
        <ele>694.4</ele>
        <time>2022-05-23 14:46:47</time>
      </trkpt>
      <trkpt lat="41.92244" lon="0.75436">
        <ele>694.2</ele>
        <time>2022-05-23 14:46:48</time>
      </trkpt>
      <trkpt lat="41.92237" lon="0.7544">
        <ele>694</ele>
        <time>2022-05-23 14:46:49</time>
      </trkpt>
      <trkpt lat="41.92229" lon="0.75444">
        <ele>693.8</ele>
        <time>2022-05-23 14:46:50</time>
      </trkpt>
      <trkpt lat="41.92221" lon="0.75449">
        <ele>693.6</ele>
        <time>2022-05-23 14:46:51</time>
      </trkpt>
      <trkpt lat="41.92213" lon="0.75453">
        <ele>693.2</ele>
        <time>2022-05-23 14:46:52</time>
      </trkpt>
      <trkpt lat="41.92206" lon="0.75457">
        <ele>693</ele>
        <time>2022-05-23 14:46:53</time>
      </trkpt>
      <trkpt lat="41.92198" lon="0.75461">
        <ele>692.8</ele>
        <time>2022-05-23 14:46:54</time>
      </trkpt>
      <trkpt lat="41.92191" lon="0.75465">
        <ele>692.6</ele>
        <time>2022-05-23 14:46:55</time>
      </trkpt>
      <trkpt lat="41.92183" lon="0.7547">
        <ele>692.4</ele>
        <time>2022-05-23 14:46:56</time>
      </trkpt>
      <trkpt lat="41.92176" lon="0.75474">
        <ele>692.2</ele>
        <time>2022-05-23 14:46:57</time>
      </trkpt>
      <trkpt lat="41.92169" lon="0.75478">
        <ele>692</ele>
        <time>2022-05-23 14:46:58</time>
      </trkpt>
      <trkpt lat="41.92162" lon="0.75482">
        <ele>691.8</ele>
        <time>2022-05-23 14:46:59</time>
      </trkpt>
      <trkpt lat="41.92156" lon="0.75486">
        <ele>691.6</ele>
        <time>2022-05-23 14:47:00</time>
      </trkpt>
      <trkpt lat="41.92149" lon="0.75489">
        <ele>691.6</ele>
        <time>2022-05-23 14:47:01</time>
      </trkpt>
      <trkpt lat="41.92142" lon="0.75493">
        <ele>691.6</ele>
        <time>2022-05-23 14:47:02</time>
      </trkpt>
      <trkpt lat="41.92136" lon="0.75497">
        <ele>691.6</ele>
        <time>2022-05-23 14:47:03</time>
      </trkpt>
      <trkpt lat="41.92129" lon="0.75501">
        <ele>691.6</ele>
        <time>2022-05-23 14:47:04</time>
      </trkpt>
      <trkpt lat="41.92122" lon="0.75504">
        <ele>691.8</ele>
        <time>2022-05-23 14:47:05</time>
      </trkpt>
      <trkpt lat="41.92115" lon="0.75508">
        <ele>691.6</ele>
        <time>2022-05-23 14:47:06</time>
      </trkpt>
      <trkpt lat="41.92109" lon="0.75512">
        <ele>691.6</ele>
        <time>2022-05-23 14:47:07</time>
      </trkpt>
      <trkpt lat="41.92102" lon="0.75516">
        <ele>691.4</ele>
        <time>2022-05-23 14:47:08</time>
      </trkpt>
      <trkpt lat="41.92095" lon="0.7552">
        <ele>691.4</ele>
        <time>2022-05-23 14:47:09</time>
      </trkpt>
      <trkpt lat="41.92088" lon="0.75523">
        <ele>691.2</ele>
        <time>2022-05-23 14:47:10</time>
      </trkpt>
      <trkpt lat="41.92081" lon="0.75527">
        <ele>691.2</ele>
        <time>2022-05-23 14:47:11</time>
      </trkpt>
      <trkpt lat="41.92074" lon="0.75531">
        <ele>691.2</ele>
        <time>2022-05-23 14:47:12</time>
      </trkpt>
      <trkpt lat="41.92067" lon="0.75535">
        <ele>691</ele>
        <time>2022-05-23 14:47:13</time>
      </trkpt>
      <trkpt lat="41.92061" lon="0.75539">
        <ele>691</ele>
        <time>2022-05-23 14:47:14</time>
      </trkpt>
      <trkpt lat="41.92054" lon="0.75543">
        <ele>690.8</ele>
        <time>2022-05-23 14:47:15</time>
      </trkpt>
      <trkpt lat="41.92047" lon="0.75547">
        <ele>690.8</ele>
        <time>2022-05-23 14:47:16</time>
      </trkpt>
      <trkpt lat="41.92041" lon="0.7555">
        <ele>690.8</ele>
        <time>2022-05-23 14:47:17</time>
      </trkpt>
      <trkpt lat="41.92034" lon="0.75554">
        <ele>690.8</ele>
        <time>2022-05-23 14:47:18</time>
      </trkpt>
      <trkpt lat="41.92027" lon="0.75557">
        <ele>690.8</ele>
        <time>2022-05-23 14:47:19</time>
      </trkpt>
      <trkpt lat="41.92019" lon="0.7556">
        <ele>690.6</ele>
        <time>2022-05-23 14:47:20</time>
      </trkpt>
      <trkpt lat="41.92012" lon="0.75563">
        <ele>690.6</ele>
        <time>2022-05-23 14:47:21</time>
      </trkpt>
      <trkpt lat="41.92005" lon="0.75565">
        <ele>690.4</ele>
        <time>2022-05-23 14:47:22</time>
      </trkpt>
      <trkpt lat="41.91998" lon="0.75568">
        <ele>690.4</ele>
        <time>2022-05-23 14:47:23</time>
      </trkpt>
      <trkpt lat="41.9199" lon="0.7557">
        <ele>690.2</ele>
        <time>2022-05-23 14:47:24</time>
      </trkpt>
      <trkpt lat="41.91983" lon="0.75573">
        <ele>690.2</ele>
        <time>2022-05-23 14:47:25</time>
      </trkpt>
      <trkpt lat="41.91975" lon="0.75575">
        <ele>690.2</ele>
        <time>2022-05-23 14:47:26</time>
      </trkpt>
      <trkpt lat="41.91968" lon="0.75577">
        <ele>690.2</ele>
        <time>2022-05-23 14:47:27</time>
      </trkpt>
      <trkpt lat="41.91961" lon="0.75579">
        <ele>690</ele>
        <time>2022-05-23 14:47:28</time>
      </trkpt>
      <trkpt lat="41.91953" lon="0.75581">
        <ele>689.8</ele>
        <time>2022-05-23 14:47:29</time>
      </trkpt>
      <trkpt lat="41.91946" lon="0.75583">
        <ele>689.6</ele>
        <time>2022-05-23 14:47:30</time>
      </trkpt>
      <trkpt lat="41.91939" lon="0.75586">
        <ele>689.4</ele>
        <time>2022-05-23 14:47:31</time>
      </trkpt>
      <trkpt lat="41.91932" lon="0.75588">
        <ele>689.2</ele>
        <time>2022-05-23 14:47:32</time>
      </trkpt>
      <trkpt lat="41.91924" lon="0.7559">
        <ele>689</ele>
        <time>2022-05-23 14:47:33</time>
      </trkpt>
      <trkpt lat="41.91917" lon="0.75592">
        <ele>688.6</ele>
        <time>2022-05-23 14:47:34</time>
      </trkpt>
      <trkpt lat="41.9191" lon="0.75594">
        <ele>688.6</ele>
        <time>2022-05-23 14:47:35</time>
      </trkpt>
      <trkpt lat="41.91902" lon="0.75596">
        <ele>688.2</ele>
        <time>2022-05-23 14:47:36</time>
      </trkpt>
      <trkpt lat="41.91895" lon="0.75599">
        <ele>688.2</ele>
        <time>2022-05-23 14:47:37</time>
      </trkpt>
      <trkpt lat="41.91887" lon="0.75601">
        <ele>688</ele>
        <time>2022-05-23 14:47:38</time>
      </trkpt>
      <trkpt lat="41.91879" lon="0.75603">
        <ele>687.6</ele>
        <time>2022-05-23 14:47:39</time>
      </trkpt>
      <trkpt lat="41.91872" lon="0.75605">
        <ele>687.2</ele>
        <time>2022-05-23 14:47:40</time>
      </trkpt>
      <trkpt lat="41.91864" lon="0.75608">
        <ele>687</ele>
        <time>2022-05-23 14:47:41</time>
      </trkpt>
      <trkpt lat="41.91856" lon="0.7561">
        <ele>686.6</ele>
        <time>2022-05-23 14:47:42</time>
      </trkpt>
      <trkpt lat="41.91848" lon="0.75613">
        <ele>686.2</ele>
        <time>2022-05-23 14:47:43</time>
      </trkpt>
      <trkpt lat="41.9184" lon="0.75616">
        <ele>685.8</ele>
        <time>2022-05-23 14:47:44</time>
      </trkpt>
      <trkpt lat="41.91832" lon="0.75619">
        <ele>685.4</ele>
        <time>2022-05-23 14:47:45</time>
      </trkpt>
      <trkpt lat="41.91824" lon="0.75622">
        <ele>685</ele>
        <time>2022-05-23 14:47:46</time>
      </trkpt>
      <trkpt lat="41.91815" lon="0.75626">
        <ele>684.6</ele>
        <time>2022-05-23 14:47:47</time>
      </trkpt>
      <trkpt lat="41.91806" lon="0.7563">
        <ele>684.2</ele>
        <time>2022-05-23 14:47:48</time>
      </trkpt>
      <trkpt lat="41.91798" lon="0.75634">
        <ele>683.8</ele>
        <time>2022-05-23 14:47:49</time>
      </trkpt>
      <trkpt lat="41.91789" lon="0.75638">
        <ele>683.2</ele>
        <time>2022-05-23 14:47:50</time>
      </trkpt>
      <trkpt lat="41.9178" lon="0.75642">
        <ele>682.8</ele>
        <time>2022-05-23 14:47:51</time>
      </trkpt>
      <trkpt lat="41.91771" lon="0.75647">
        <ele>682.2</ele>
        <time>2022-05-23 14:47:52</time>
      </trkpt>
      <trkpt lat="41.91762" lon="0.75652">
        <ele>681.6</ele>
        <time>2022-05-23 14:47:53</time>
      </trkpt>
      <trkpt lat="41.91753" lon="0.75657">
        <ele>681.2</ele>
        <time>2022-05-23 14:47:54</time>
      </trkpt>
      <trkpt lat="41.91744" lon="0.75662">
        <ele>680.6</ele>
        <time>2022-05-23 14:47:55</time>
      </trkpt>
      <trkpt lat="41.91734" lon="0.75667">
        <ele>680.2</ele>
        <time>2022-05-23 14:47:56</time>
      </trkpt>
      <trkpt lat="41.91725" lon="0.75672">
        <ele>679.6</ele>
        <time>2022-05-23 14:47:57</time>
      </trkpt>
      <trkpt lat="41.91715" lon="0.75677">
        <ele>679</ele>
        <time>2022-05-23 14:47:58</time>
      </trkpt>
      <trkpt lat="41.91706" lon="0.75682">
        <ele>678.4</ele>
        <time>2022-05-23 14:47:59</time>
      </trkpt>
      <trkpt lat="41.91696" lon="0.75688">
        <ele>678</ele>
        <time>2022-05-23 14:48:00</time>
      </trkpt>
      <trkpt lat="41.91687" lon="0.75694">
        <ele>677.6</ele>
        <time>2022-05-23 14:48:01</time>
      </trkpt>
      <trkpt lat="41.91677" lon="0.75699">
        <ele>677.2</ele>
        <time>2022-05-23 14:48:02</time>
      </trkpt>
      <trkpt lat="41.91667" lon="0.75704">
        <ele>676.8</ele>
        <time>2022-05-23 14:48:03</time>
      </trkpt>
      <trkpt lat="41.91658" lon="0.7571">
        <ele>676.4</ele>
        <time>2022-05-23 14:48:04</time>
      </trkpt>
      <trkpt lat="41.91647" lon="0.75715">
        <ele>676.2</ele>
        <time>2022-05-23 14:48:05</time>
      </trkpt>
      <trkpt lat="41.91638" lon="0.75721">
        <ele>675.8</ele>
        <time>2022-05-23 14:48:06</time>
      </trkpt>
      <trkpt lat="41.91628" lon="0.75726">
        <ele>675.6</ele>
        <time>2022-05-23 14:48:07</time>
      </trkpt>
      <trkpt lat="41.91618" lon="0.75732">
        <ele>675.6</ele>
        <time>2022-05-23 14:48:08</time>
      </trkpt>
      <trkpt lat="41.91608" lon="0.75737">
        <ele>675.4</ele>
        <time>2022-05-23 14:48:09</time>
      </trkpt>
      <trkpt lat="41.91599" lon="0.75743">
        <ele>675.2</ele>
        <time>2022-05-23 14:48:10</time>
      </trkpt>
      <trkpt lat="41.91589" lon="0.75748">
        <ele>674.8</ele>
        <time>2022-05-23 14:48:11</time>
      </trkpt>
      <trkpt lat="41.91579" lon="0.75754">
        <ele>674.4</ele>
        <time>2022-05-23 14:48:12</time>
      </trkpt>
      <trkpt lat="41.91569" lon="0.7576">
        <ele>673.8</ele>
        <time>2022-05-23 14:48:13</time>
      </trkpt>
      <trkpt lat="41.9156" lon="0.75765">
        <ele>673.4</ele>
        <time>2022-05-23 14:48:14</time>
      </trkpt>
      <trkpt lat="41.9155" lon="0.7577">
        <ele>673</ele>
        <time>2022-05-23 14:48:15</time>
      </trkpt>
      <trkpt lat="41.9154" lon="0.75776">
        <ele>672.6</ele>
        <time>2022-05-23 14:48:16</time>
      </trkpt>
      <trkpt lat="41.9153" lon="0.75781">
        <ele>672</ele>
        <time>2022-05-23 14:48:17</time>
      </trkpt>
      <trkpt lat="41.9152" lon="0.75787">
        <ele>671.6</ele>
        <time>2022-05-23 14:48:18</time>
      </trkpt>
      <trkpt lat="41.91511" lon="0.75792">
        <ele>671.2</ele>
        <time>2022-05-23 14:48:19</time>
      </trkpt>
      <trkpt lat="41.915" lon="0.75798">
        <ele>670.8</ele>
        <time>2022-05-23 14:48:20</time>
      </trkpt>
      <trkpt lat="41.91491" lon="0.75803">
        <ele>670.4</ele>
        <time>2022-05-23 14:48:21</time>
      </trkpt>
      <trkpt lat="41.91481" lon="0.75809">
        <ele>669.8</ele>
        <time>2022-05-23 14:48:22</time>
      </trkpt>
      <trkpt lat="41.91471" lon="0.75814">
        <ele>669.4</ele>
        <time>2022-05-23 14:48:23</time>
      </trkpt>
      <trkpt lat="41.91462" lon="0.75819">
        <ele>669</ele>
        <time>2022-05-23 14:48:24</time>
      </trkpt>
      <trkpt lat="41.91452" lon="0.75825">
        <ele>668.6</ele>
        <time>2022-05-23 14:48:25</time>
      </trkpt>
      <trkpt lat="41.91442" lon="0.75831">
        <ele>668.4</ele>
        <time>2022-05-23 14:48:26</time>
      </trkpt>
      <trkpt lat="41.91433" lon="0.75836">
        <ele>668</ele>
        <time>2022-05-23 14:48:27</time>
      </trkpt>
      <trkpt lat="41.91424" lon="0.75841">
        <ele>667.6</ele>
        <time>2022-05-23 14:48:28</time>
      </trkpt>
      <trkpt lat="41.91415" lon="0.75847">
        <ele>667.4</ele>
        <time>2022-05-23 14:48:29</time>
      </trkpt>
      <trkpt lat="41.91405" lon="0.75852">
        <ele>667.2</ele>
        <time>2022-05-23 14:48:30</time>
      </trkpt>
      <trkpt lat="41.91396" lon="0.75858">
        <ele>667</ele>
        <time>2022-05-23 14:48:31</time>
      </trkpt>
      <trkpt lat="41.91388" lon="0.75863">
        <ele>666.8</ele>
        <time>2022-05-23 14:48:32</time>
      </trkpt>
      <trkpt lat="41.91379" lon="0.75867">
        <ele>666.6</ele>
        <time>2022-05-23 14:48:33</time>
      </trkpt>
      <trkpt lat="41.9137" lon="0.75872">
        <ele>666.6</ele>
        <time>2022-05-23 14:48:34</time>
      </trkpt>
      <trkpt lat="41.91363" lon="0.75876">
        <ele>666.6</ele>
        <time>2022-05-23 14:48:35</time>
      </trkpt>
      <trkpt lat="41.91354" lon="0.75881">
        <ele>666.6</ele>
        <time>2022-05-23 14:48:36</time>
      </trkpt>
      <trkpt lat="41.91347" lon="0.75886">
        <ele>666.6</ele>
        <time>2022-05-23 14:48:37</time>
      </trkpt>
      <trkpt lat="41.91339" lon="0.7589">
        <ele>666.4</ele>
        <time>2022-05-23 14:48:38</time>
      </trkpt>
      <trkpt lat="41.91332" lon="0.75894">
        <ele>666.6</ele>
        <time>2022-05-23 14:48:39</time>
      </trkpt>
      <trkpt lat="41.91325" lon="0.75898">
        <ele>666.6</ele>
        <time>2022-05-23 14:48:40</time>
      </trkpt>
      <trkpt lat="41.91318" lon="0.75902">
        <ele>666.6</ele>
        <time>2022-05-23 14:48:41</time>
      </trkpt>
      <trkpt lat="41.91312" lon="0.75906">
        <ele>666.6</ele>
        <time>2022-05-23 14:48:42</time>
      </trkpt>
      <trkpt lat="41.91305" lon="0.75909">
        <ele>666.8</ele>
        <time>2022-05-23 14:48:43</time>
      </trkpt>
      <trkpt lat="41.91298" lon="0.75913">
        <ele>666.8</ele>
        <time>2022-05-23 14:48:44</time>
      </trkpt>
      <trkpt lat="41.91293" lon="0.75916">
        <ele>667</ele>
        <time>2022-05-23 14:48:45</time>
      </trkpt>
      <trkpt lat="41.91287" lon="0.75919">
        <ele>667.2</ele>
        <time>2022-05-23 14:48:46</time>
      </trkpt>
      <trkpt lat="41.91281" lon="0.75922">
        <ele>667.4</ele>
        <time>2022-05-23 14:48:47</time>
      </trkpt>
      <trkpt lat="41.91275" lon="0.75925">
        <ele>667.6</ele>
        <time>2022-05-23 14:48:48</time>
      </trkpt>
      <trkpt lat="41.91269" lon="0.75929">
        <ele>667.8</ele>
        <time>2022-05-23 14:48:49</time>
      </trkpt>
      <trkpt lat="41.91264" lon="0.75932">
        <ele>668</ele>
        <time>2022-05-23 14:48:50</time>
      </trkpt>
      <trkpt lat="41.91258" lon="0.75936">
        <ele>668</ele>
        <time>2022-05-23 14:48:51</time>
      </trkpt>
      <trkpt lat="41.91253" lon="0.75939">
        <ele>668.2</ele>
        <time>2022-05-23 14:48:52</time>
      </trkpt>
      <trkpt lat="41.91248" lon="0.75942">
        <ele>668.2</ele>
        <time>2022-05-23 14:48:53</time>
      </trkpt>
      <trkpt lat="41.91243" lon="0.75945">
        <ele>668.4</ele>
        <time>2022-05-23 14:48:54</time>
      </trkpt>
      <trkpt lat="41.91238" lon="0.75948">
        <ele>668.4</ele>
        <time>2022-05-23 14:48:55</time>
      </trkpt>
      <trkpt lat="41.91233" lon="0.75952">
        <ele>668.6</ele>
        <time>2022-05-23 14:48:56</time>
      </trkpt>
      <trkpt lat="41.91229" lon="0.75955">
        <ele>668.8</ele>
        <time>2022-05-23 14:48:57</time>
      </trkpt>
      <trkpt lat="41.91224" lon="0.75957">
        <ele>669.2</ele>
        <time>2022-05-23 14:48:58</time>
      </trkpt>
      <trkpt lat="41.9122" lon="0.75959">
        <ele>669.4</ele>
        <time>2022-05-23 14:48:59</time>
      </trkpt>
      <trkpt lat="41.91215" lon="0.75962">
        <ele>669.4</ele>
        <time>2022-05-23 14:49:00</time>
      </trkpt>
      <trkpt lat="41.91211" lon="0.75964">
        <ele>669.8</ele>
        <time>2022-05-23 14:49:01</time>
      </trkpt>
      <trkpt lat="41.91207" lon="0.75967">
        <ele>670</ele>
        <time>2022-05-23 14:49:02</time>
      </trkpt>
      <trkpt lat="41.91203" lon="0.75969">
        <ele>670.2</ele>
        <time>2022-05-23 14:49:03</time>
      </trkpt>
      <trkpt lat="41.91199" lon="0.75971">
        <ele>670.6</ele>
        <time>2022-05-23 14:49:04</time>
      </trkpt>
      <trkpt lat="41.91195" lon="0.75974">
        <ele>671</ele>
        <time>2022-05-23 14:49:05</time>
      </trkpt>
      <trkpt lat="41.91191" lon="0.75976">
        <ele>671.4</ele>
        <time>2022-05-23 14:49:06</time>
      </trkpt>
      <trkpt lat="41.91187" lon="0.75979">
        <ele>671.6</ele>
        <time>2022-05-23 14:49:07</time>
      </trkpt>
      <trkpt lat="41.91183" lon="0.75981">
        <ele>671.8</ele>
        <time>2022-05-23 14:49:08</time>
      </trkpt>
      <trkpt lat="41.91178" lon="0.75984">
        <ele>672</ele>
        <time>2022-05-23 14:49:09</time>
      </trkpt>
      <trkpt lat="41.91174" lon="0.75986">
        <ele>672.2</ele>
        <time>2022-05-23 14:49:10</time>
      </trkpt>
      <trkpt lat="41.9117" lon="0.75988">
        <ele>672.4</ele>
        <time>2022-05-23 14:49:11</time>
      </trkpt>
      <trkpt lat="41.91165" lon="0.75991">
        <ele>672.6</ele>
        <time>2022-05-23 14:49:12</time>
      </trkpt>
      <trkpt lat="41.91161" lon="0.75993">
        <ele>672.8</ele>
        <time>2022-05-23 14:49:13</time>
      </trkpt>
      <trkpt lat="41.91156" lon="0.75996">
        <ele>673</ele>
        <time>2022-05-23 14:49:14</time>
      </trkpt>
      <trkpt lat="41.91152" lon="0.75999">
        <ele>673</ele>
        <time>2022-05-23 14:49:15</time>
      </trkpt>
      <trkpt lat="41.91147" lon="0.76002">
        <ele>673</ele>
        <time>2022-05-23 14:49:16</time>
      </trkpt>
      <trkpt lat="41.91143" lon="0.76005">
        <ele>673</ele>
        <time>2022-05-23 14:49:17</time>
      </trkpt>
      <trkpt lat="41.91138" lon="0.76007">
        <ele>673.2</ele>
        <time>2022-05-23 14:49:18</time>
      </trkpt>
      <trkpt lat="41.91134" lon="0.7601">
        <ele>673.2</ele>
        <time>2022-05-23 14:49:19</time>
      </trkpt>
      <trkpt lat="41.91129" lon="0.76013">
        <ele>673.4</ele>
        <time>2022-05-23 14:49:20</time>
      </trkpt>
      <trkpt lat="41.91125" lon="0.76016">
        <ele>673.2</ele>
        <time>2022-05-23 14:49:21</time>
      </trkpt>
      <trkpt lat="41.9112" lon="0.76019">
        <ele>673.2</ele>
        <time>2022-05-23 14:49:22</time>
      </trkpt>
      <trkpt lat="41.91115" lon="0.76023">
        <ele>673.2</ele>
        <time>2022-05-23 14:49:23</time>
      </trkpt>
      <trkpt lat="41.91111" lon="0.76027">
        <ele>673.2</ele>
        <time>2022-05-23 14:49:24</time>
      </trkpt>
      <trkpt lat="41.91107" lon="0.76031">
        <ele>673</ele>
        <time>2022-05-23 14:49:25</time>
      </trkpt>
      <trkpt lat="41.91102" lon="0.76035">
        <ele>673</ele>
        <time>2022-05-23 14:49:26</time>
      </trkpt>
      <trkpt lat="41.91098" lon="0.76039">
        <ele>672.8</ele>
        <time>2022-05-23 14:49:27</time>
      </trkpt>
      <trkpt lat="41.91093" lon="0.76043">
        <ele>672.8</ele>
        <time>2022-05-23 14:49:28</time>
      </trkpt>
      <trkpt lat="41.91088" lon="0.76048">
        <ele>672.8</ele>
        <time>2022-05-23 14:49:29</time>
      </trkpt>
      <trkpt lat="41.91084" lon="0.76052">
        <ele>672.8</ele>
        <time>2022-05-23 14:49:30</time>
      </trkpt>
      <trkpt lat="41.9108" lon="0.76057">
        <ele>673</ele>
        <time>2022-05-23 14:49:31</time>
      </trkpt>
      <trkpt lat="41.91076" lon="0.76062">
        <ele>673</ele>
        <time>2022-05-23 14:49:32</time>
      </trkpt>
      <trkpt lat="41.91071" lon="0.76066">
        <ele>672.8</ele>
        <time>2022-05-23 14:49:33</time>
      </trkpt>
      <trkpt lat="41.91067" lon="0.76071">
        <ele>672.6</ele>
        <time>2022-05-23 14:49:34</time>
      </trkpt>
      <trkpt lat="41.91063" lon="0.76075">
        <ele>672.4</ele>
        <time>2022-05-23 14:49:35</time>
      </trkpt>
      <trkpt lat="41.91059" lon="0.7608">
        <ele>672.2</ele>
        <time>2022-05-23 14:49:36</time>
      </trkpt>
      <trkpt lat="41.91055" lon="0.76085">
        <ele>672</ele>
        <time>2022-05-23 14:49:37</time>
      </trkpt>
      <trkpt lat="41.9105" lon="0.76091">
        <ele>672</ele>
        <time>2022-05-23 14:49:38</time>
      </trkpt>
      <trkpt lat="41.91046" lon="0.76096">
        <ele>672.2</ele>
        <time>2022-05-23 14:49:39</time>
      </trkpt>
      <trkpt lat="41.91041" lon="0.76101">
        <ele>672.2</ele>
        <time>2022-05-23 14:49:40</time>
      </trkpt>
      <trkpt lat="41.91037" lon="0.76107">
        <ele>672.2</ele>
        <time>2022-05-23 14:49:41</time>
      </trkpt>
      <trkpt lat="41.91033" lon="0.76112">
        <ele>672</ele>
        <time>2022-05-23 14:49:42</time>
      </trkpt>
      <trkpt lat="41.91028" lon="0.76117">
        <ele>671.8</ele>
        <time>2022-05-23 14:49:43</time>
      </trkpt>
      <trkpt lat="41.91024" lon="0.76122">
        <ele>671.8</ele>
        <time>2022-05-23 14:49:44</time>
      </trkpt>
      <trkpt lat="41.91019" lon="0.76128">
        <ele>671.6</ele>
        <time>2022-05-23 14:49:45</time>
      </trkpt>
      <trkpt lat="41.91014" lon="0.76133">
        <ele>671.6</ele>
        <time>2022-05-23 14:49:46</time>
      </trkpt>
      <trkpt lat="41.91009" lon="0.76139">
        <ele>671.8</ele>
        <time>2022-05-23 14:49:47</time>
      </trkpt>
      <trkpt lat="41.91005" lon="0.76144">
        <ele>671.8</ele>
        <time>2022-05-23 14:49:48</time>
      </trkpt>
      <trkpt lat="41.91001" lon="0.76149">
        <ele>671.8</ele>
        <time>2022-05-23 14:49:49</time>
      </trkpt>
      <trkpt lat="41.90996" lon="0.76154">
        <ele>671.8</ele>
        <time>2022-05-23 14:49:50</time>
      </trkpt>
      <trkpt lat="41.90992" lon="0.76159">
        <ele>671.8</ele>
        <time>2022-05-23 14:49:51</time>
      </trkpt>
      <trkpt lat="41.90988" lon="0.76164">
        <ele>671.8</ele>
        <time>2022-05-23 14:49:52</time>
      </trkpt>
      <trkpt lat="41.90984" lon="0.76168">
        <ele>671.8</ele>
        <time>2022-05-23 14:49:53</time>
      </trkpt>
      <trkpt lat="41.90979" lon="0.76173">
        <ele>671.8</ele>
        <time>2022-05-23 14:49:54</time>
      </trkpt>
      <trkpt lat="41.90975" lon="0.76178">
        <ele>671.6</ele>
        <time>2022-05-23 14:49:55</time>
      </trkpt>
      <trkpt lat="41.9097" lon="0.76184">
        <ele>671.2</ele>
        <time>2022-05-23 14:49:56</time>
      </trkpt>
      <trkpt lat="41.90965" lon="0.76189">
        <ele>670.8</ele>
        <time>2022-05-23 14:49:57</time>
      </trkpt>
      <trkpt lat="41.90961" lon="0.76193">
        <ele>670.6</ele>
        <time>2022-05-23 14:49:58</time>
      </trkpt>
      <trkpt lat="41.90956" lon="0.76197">
        <ele>670.6</ele>
        <time>2022-05-23 14:49:59</time>
      </trkpt>
      <trkpt lat="41.90951" lon="0.76201">
        <ele>670.6</ele>
        <time>2022-05-23 14:50:00</time>
      </trkpt>
      <trkpt lat="41.90946" lon="0.76204">
        <ele>670.8</ele>
        <time>2022-05-23 14:50:01</time>
      </trkpt>
      <trkpt lat="41.90941" lon="0.76207">
        <ele>670.8</ele>
        <time>2022-05-23 14:50:02</time>
      </trkpt>
      <trkpt lat="41.90937" lon="0.7621">
        <ele>670.8</ele>
        <time>2022-05-23 14:50:03</time>
      </trkpt>
      <trkpt lat="41.90931" lon="0.76214">
        <ele>670.8</ele>
        <time>2022-05-23 14:50:04</time>
      </trkpt>
      <trkpt lat="41.90925" lon="0.76217">
        <ele>670.8</ele>
        <time>2022-05-23 14:50:05</time>
      </trkpt>
      <trkpt lat="41.90919" lon="0.76221">
        <ele>670.8</ele>
        <time>2022-05-23 14:50:06</time>
      </trkpt>
      <trkpt lat="41.90916" lon="0.76223">
        <ele>670.8</ele>
        <time>2022-05-23 14:50:07</time>
      </trkpt>
      <trkpt lat="41.90913" lon="0.76224">
        <ele>670.8</ele>
        <time>2022-05-23 14:50:08</time>
      </trkpt>
      <trkpt lat="41.90903" lon="0.76231">
        <ele>671</ele>
        <time>2022-05-23 14:50:09</time>
      </trkpt>
      <trkpt lat="41.90897" lon="0.76233">
        <ele>671</ele>
        <time>2022-05-23 14:50:10</time>
      </trkpt>
      <trkpt lat="41.90891" lon="0.76236">
        <ele>670.8</ele>
        <time>2022-05-23 14:50:11</time>
      </trkpt>
      <trkpt lat="41.90886" lon="0.76239">
        <ele>670.8</ele>
        <time>2022-05-23 14:50:12</time>
      </trkpt>
      <trkpt lat="41.9088" lon="0.76242">
        <ele>670.6</ele>
        <time>2022-05-23 14:50:13</time>
      </trkpt>
      <trkpt lat="41.90874" lon="0.76245">
        <ele>670.6</ele>
        <time>2022-05-23 14:50:14</time>
      </trkpt>
      <trkpt lat="41.90868" lon="0.76248">
        <ele>670.2</ele>
        <time>2022-05-23 14:50:15</time>
      </trkpt>
      <trkpt lat="41.90861" lon="0.76251">
        <ele>670</ele>
        <time>2022-05-23 14:50:16</time>
      </trkpt>
      <trkpt lat="41.90854" lon="0.76253">
        <ele>669.8</ele>
        <time>2022-05-23 14:50:17</time>
      </trkpt>
      <trkpt lat="41.90847" lon="0.76255">
        <ele>669.6</ele>
        <time>2022-05-23 14:50:18</time>
      </trkpt>
      <trkpt lat="41.9084" lon="0.76257">
        <ele>669.6</ele>
        <time>2022-05-23 14:50:19</time>
      </trkpt>
      <trkpt lat="41.90833" lon="0.76258">
        <ele>669.4</ele>
        <time>2022-05-23 14:50:20</time>
      </trkpt>
      <trkpt lat="41.90826" lon="0.76259">
        <ele>669.2</ele>
        <time>2022-05-23 14:50:21</time>
      </trkpt>
      <trkpt lat="41.90819" lon="0.7626">
        <ele>669.2</ele>
        <time>2022-05-23 14:50:22</time>
      </trkpt>
      <trkpt lat="41.90812" lon="0.7626">
        <ele>669</ele>
        <time>2022-05-23 14:50:23</time>
      </trkpt>
      <trkpt lat="41.90805" lon="0.7626">
        <ele>668.8</ele>
        <time>2022-05-23 14:50:24</time>
      </trkpt>
      <trkpt lat="41.90798" lon="0.7626">
        <ele>668.6</ele>
        <time>2022-05-23 14:50:25</time>
      </trkpt>
      <trkpt lat="41.90792" lon="0.7626">
        <ele>668.6</ele>
        <time>2022-05-23 14:50:26</time>
      </trkpt>
      <trkpt lat="41.90786" lon="0.7626">
        <ele>668.6</ele>
        <time>2022-05-23 14:50:27</time>
      </trkpt>
      <trkpt lat="41.90779" lon="0.76259">
        <ele>668.6</ele>
        <time>2022-05-23 14:50:28</time>
      </trkpt>
      <trkpt lat="41.90772" lon="0.76258">
        <ele>668.4</ele>
        <time>2022-05-23 14:50:29</time>
      </trkpt>
      <trkpt lat="41.90766" lon="0.76258">
        <ele>668.6</ele>
        <time>2022-05-23 14:50:30</time>
      </trkpt>
      <trkpt lat="41.9076" lon="0.76258">
        <ele>668.6</ele>
        <time>2022-05-23 14:50:31</time>
      </trkpt>
      <trkpt lat="41.90753" lon="0.76257">
        <ele>668.6</ele>
        <time>2022-05-23 14:50:32</time>
      </trkpt>
      <trkpt lat="41.90747" lon="0.76256">
        <ele>668.4</ele>
        <time>2022-05-23 14:50:33</time>
      </trkpt>
      <trkpt lat="41.90742" lon="0.76256">
        <ele>668.4</ele>
        <time>2022-05-23 14:50:34</time>
      </trkpt>
      <trkpt lat="41.90736" lon="0.76256">
        <ele>668.6</ele>
        <time>2022-05-23 14:50:35</time>
      </trkpt>
      <trkpt lat="41.9073" lon="0.76256">
        <ele>668.6</ele>
        <time>2022-05-23 14:50:36</time>
      </trkpt>
      <trkpt lat="41.90725" lon="0.76257">
        <ele>668.6</ele>
        <time>2022-05-23 14:50:37</time>
      </trkpt>
      <trkpt lat="41.90719" lon="0.76258">
        <ele>668.6</ele>
        <time>2022-05-23 14:50:38</time>
      </trkpt>
      <trkpt lat="41.90713" lon="0.76259">
        <ele>668.6</ele>
        <time>2022-05-23 14:50:39</time>
      </trkpt>
      <trkpt lat="41.90708" lon="0.76261">
        <ele>668.6</ele>
        <time>2022-05-23 14:50:40</time>
      </trkpt>
      <trkpt lat="41.90703" lon="0.76264">
        <ele>668.6</ele>
        <time>2022-05-23 14:50:41</time>
      </trkpt>
      <trkpt lat="41.90698" lon="0.76267">
        <ele>668.4</ele>
        <time>2022-05-23 14:50:42</time>
      </trkpt>
      <trkpt lat="41.90693" lon="0.7627">
        <ele>668.2</ele>
        <time>2022-05-23 14:50:43</time>
      </trkpt>
      <trkpt lat="41.90688" lon="0.76273">
        <ele>668.2</ele>
        <time>2022-05-23 14:50:44</time>
      </trkpt>
      <trkpt lat="41.90684" lon="0.76277">
        <ele>668.4</ele>
        <time>2022-05-23 14:50:45</time>
      </trkpt>
      <trkpt lat="41.90679" lon="0.76281">
        <ele>668.6</ele>
        <time>2022-05-23 14:50:46</time>
      </trkpt>
      <trkpt lat="41.90676" lon="0.76286">
        <ele>668.6</ele>
        <time>2022-05-23 14:50:47</time>
      </trkpt>
      <trkpt lat="41.90673" lon="0.76292">
        <ele>668.6</ele>
        <time>2022-05-23 14:50:48</time>
      </trkpt>
      <trkpt lat="41.9067" lon="0.76297">
        <ele>668.8</ele>
        <time>2022-05-23 14:50:49</time>
      </trkpt>
      <trkpt lat="41.90667" lon="0.76303">
        <ele>668.8</ele>
        <time>2022-05-23 14:50:50</time>
      </trkpt>
      <trkpt lat="41.90664" lon="0.76309">
        <ele>669</ele>
        <time>2022-05-23 14:50:51</time>
      </trkpt>
      <trkpt lat="41.90661" lon="0.76315">
        <ele>669</ele>
        <time>2022-05-23 14:50:52</time>
      </trkpt>
      <trkpt lat="41.90659" lon="0.76321">
        <ele>669.2</ele>
        <time>2022-05-23 14:50:53</time>
      </trkpt>
      <trkpt lat="41.90657" lon="0.76327">
        <ele>669.2</ele>
        <time>2022-05-23 14:50:54</time>
      </trkpt>
      <trkpt lat="41.90655" lon="0.76333">
        <ele>669.4</ele>
        <time>2022-05-23 14:50:55</time>
      </trkpt>
      <trkpt lat="41.90654" lon="0.76339">
        <ele>669.4</ele>
        <time>2022-05-23 14:50:56</time>
      </trkpt>
      <trkpt lat="41.90651" lon="0.76344">
        <ele>669.6</ele>
        <time>2022-05-23 14:50:57</time>
      </trkpt>
      <trkpt lat="41.90649" lon="0.7635">
        <ele>669.8</ele>
        <time>2022-05-23 14:50:58</time>
      </trkpt>
      <trkpt lat="41.90647" lon="0.76356">
        <ele>669.8</ele>
        <time>2022-05-23 14:50:59</time>
      </trkpt>
      <trkpt lat="41.90645" lon="0.76362">
        <ele>670</ele>
        <time>2022-05-23 14:51:00</time>
      </trkpt>
      <trkpt lat="41.90642" lon="0.76368">
        <ele>670.2</ele>
        <time>2022-05-23 14:51:01</time>
      </trkpt>
      <trkpt lat="41.9064" lon="0.76373">
        <ele>670.2</ele>
        <time>2022-05-23 14:51:02</time>
      </trkpt>
      <trkpt lat="41.90637" lon="0.76379">
        <ele>670.4</ele>
        <time>2022-05-23 14:51:03</time>
      </trkpt>
      <trkpt lat="41.90634" lon="0.76383">
        <ele>670.6</ele>
        <time>2022-05-23 14:51:04</time>
      </trkpt>
      <trkpt lat="41.90631" lon="0.76387">
        <ele>670.6</ele>
        <time>2022-05-23 14:51:05</time>
      </trkpt>
      <trkpt lat="41.90627" lon="0.76392">
        <ele>670.8</ele>
        <time>2022-05-23 14:51:06</time>
      </trkpt>
      <trkpt lat="41.90623" lon="0.76396">
        <ele>671</ele>
        <time>2022-05-23 14:51:07</time>
      </trkpt>
      <trkpt lat="41.90618" lon="0.76399">
        <ele>671.2</ele>
        <time>2022-05-23 14:51:08</time>
      </trkpt>
      <trkpt lat="41.90614" lon="0.76402">
        <ele>671.4</ele>
        <time>2022-05-23 14:51:09</time>
      </trkpt>
      <trkpt lat="41.9061" lon="0.76404">
        <ele>671.4</ele>
        <time>2022-05-23 14:51:10</time>
      </trkpt>
      <trkpt lat="41.90605" lon="0.76405">
        <ele>671.6</ele>
        <time>2022-05-23 14:51:11</time>
      </trkpt>
      <trkpt lat="41.906" lon="0.76406">
        <ele>671.8</ele>
        <time>2022-05-23 14:51:12</time>
      </trkpt>
      <trkpt lat="41.90596" lon="0.76406">
        <ele>671.8</ele>
        <time>2022-05-23 14:51:13</time>
      </trkpt>
      <trkpt lat="41.90591" lon="0.76407">
        <ele>671.8</ele>
        <time>2022-05-23 14:51:14</time>
      </trkpt>
      <trkpt lat="41.90587" lon="0.76407">
        <ele>672</ele>
        <time>2022-05-23 14:51:15</time>
      </trkpt>
      <trkpt lat="41.90582" lon="0.76407">
        <ele>672</ele>
        <time>2022-05-23 14:51:16</time>
      </trkpt>
      <trkpt lat="41.90577" lon="0.76406">
        <ele>672</ele>
        <time>2022-05-23 14:51:17</time>
      </trkpt>
      <trkpt lat="41.90573" lon="0.76406">
        <ele>672.2</ele>
        <time>2022-05-23 14:51:18</time>
      </trkpt>
      <trkpt lat="41.90569" lon="0.76405">
        <ele>672.2</ele>
        <time>2022-05-23 14:51:19</time>
      </trkpt>
      <trkpt lat="41.90564" lon="0.76405">
        <ele>672.2</ele>
        <time>2022-05-23 14:51:20</time>
      </trkpt>
      <trkpt lat="41.9056" lon="0.76405">
        <ele>672.2</ele>
        <time>2022-05-23 14:51:21</time>
      </trkpt>
      <trkpt lat="41.90556" lon="0.76404">
        <ele>672.4</ele>
        <time>2022-05-23 14:51:22</time>
      </trkpt>
      <trkpt lat="41.90552" lon="0.76404">
        <ele>672.4</ele>
        <time>2022-05-23 14:51:23</time>
      </trkpt>
      <trkpt lat="41.90549" lon="0.76403">
        <ele>672.6</ele>
        <time>2022-05-23 14:51:24</time>
      </trkpt>
      <trkpt lat="41.90544" lon="0.76402">
        <ele>672.8</ele>
        <time>2022-05-23 14:51:25</time>
      </trkpt>
      <trkpt lat="41.9054" lon="0.76401">
        <ele>672.8</ele>
        <time>2022-05-23 14:51:26</time>
      </trkpt>
      <trkpt lat="41.90536" lon="0.76401">
        <ele>673</ele>
        <time>2022-05-23 14:51:27</time>
      </trkpt>
      <trkpt lat="41.90532" lon="0.76401">
        <ele>673</ele>
        <time>2022-05-23 14:51:28</time>
      </trkpt>
      <trkpt lat="41.90528" lon="0.764">
        <ele>673.2</ele>
        <time>2022-05-23 14:51:29</time>
      </trkpt>
      <trkpt lat="41.90524" lon="0.764">
        <ele>673.2</ele>
        <time>2022-05-23 14:51:30</time>
      </trkpt>
      <trkpt lat="41.90519" lon="0.764">
        <ele>673.4</ele>
        <time>2022-05-23 14:51:31</time>
      </trkpt>
      <trkpt lat="41.90515" lon="0.76399">
        <ele>673.4</ele>
        <time>2022-05-23 14:51:32</time>
      </trkpt>
      <trkpt lat="41.90511" lon="0.76398">
        <ele>673.6</ele>
        <time>2022-05-23 14:51:33</time>
      </trkpt>
      <trkpt lat="41.90507" lon="0.76398">
        <ele>673.8</ele>
        <time>2022-05-23 14:51:34</time>
      </trkpt>
      <trkpt lat="41.90502" lon="0.76397">
        <ele>673.8</ele>
        <time>2022-05-23 14:51:35</time>
      </trkpt>
      <trkpt lat="41.90498" lon="0.76396">
        <ele>674</ele>
        <time>2022-05-23 14:51:36</time>
      </trkpt>
      <trkpt lat="41.90494" lon="0.76396">
        <ele>674</ele>
        <time>2022-05-23 14:51:37</time>
      </trkpt>
      <trkpt lat="41.9049" lon="0.76395">
        <ele>674.4</ele>
        <time>2022-05-23 14:51:38</time>
      </trkpt>
      <trkpt lat="41.90486" lon="0.76395">
        <ele>674.6</ele>
        <time>2022-05-23 14:51:39</time>
      </trkpt>
      <trkpt lat="41.90481" lon="0.76395">
        <ele>674.6</ele>
        <time>2022-05-23 14:51:40</time>
      </trkpt>
      <trkpt lat="41.90477" lon="0.76394">
        <ele>674.6</ele>
        <time>2022-05-23 14:51:41</time>
      </trkpt>
      <trkpt lat="41.90473" lon="0.76393">
        <ele>674.6</ele>
        <time>2022-05-23 14:51:42</time>
      </trkpt>
      <trkpt lat="41.90469" lon="0.76393">
        <ele>674.6</ele>
        <time>2022-05-23 14:51:43</time>
      </trkpt>
      <trkpt lat="41.90465" lon="0.76392">
        <ele>674.6</ele>
        <time>2022-05-23 14:51:44</time>
      </trkpt>
      <trkpt lat="41.90462" lon="0.76392">
        <ele>674.6</ele>
        <time>2022-05-23 14:51:45</time>
      </trkpt>
      <trkpt lat="41.90459" lon="0.76392">
        <ele>674.6</ele>
        <time>2022-05-23 14:51:46</time>
      </trkpt>
      <trkpt lat="41.90455" lon="0.76392">
        <ele>674.6</ele>
        <time>2022-05-23 14:51:47</time>
      </trkpt>
      <trkpt lat="41.90451" lon="0.76392">
        <ele>674.6</ele>
        <time>2022-05-23 14:51:48</time>
      </trkpt>
      <trkpt lat="41.90447" lon="0.76392">
        <ele>674.6</ele>
        <time>2022-05-23 14:51:49</time>
      </trkpt>
      <trkpt lat="41.90444" lon="0.76393">
        <ele>674.8</ele>
        <time>2022-05-23 14:51:50</time>
      </trkpt>
      <trkpt lat="41.9044" lon="0.76393">
        <ele>674.8</ele>
        <time>2022-05-23 14:51:51</time>
      </trkpt>
      <trkpt lat="41.90436" lon="0.76394">
        <ele>674.8</ele>
        <time>2022-05-23 14:51:52</time>
      </trkpt>
      <trkpt lat="41.90432" lon="0.76394">
        <ele>675</ele>
        <time>2022-05-23 14:51:53</time>
      </trkpt>
      <trkpt lat="41.90428" lon="0.76393">
        <ele>675</ele>
        <time>2022-05-23 14:51:54</time>
      </trkpt>
      <trkpt lat="41.90425" lon="0.76393">
        <ele>675</ele>
        <time>2022-05-23 14:51:55</time>
      </trkpt>
      <trkpt lat="41.90421" lon="0.76393">
        <ele>675</ele>
        <time>2022-05-23 14:51:56</time>
      </trkpt>
      <trkpt lat="41.90417" lon="0.76394">
        <ele>675</ele>
        <time>2022-05-23 14:51:57</time>
      </trkpt>
      <trkpt lat="41.90414" lon="0.76395">
        <ele>675.2</ele>
        <time>2022-05-23 14:51:58</time>
      </trkpt>
      <trkpt lat="41.9041" lon="0.76396">
        <ele>675.6</ele>
        <time>2022-05-23 14:51:59</time>
      </trkpt>
      <trkpt lat="41.90407" lon="0.76398">
        <ele>675.8</ele>
        <time>2022-05-23 14:52:00</time>
      </trkpt>
      <trkpt lat="41.90405" lon="0.76401">
        <ele>676</ele>
        <time>2022-05-23 14:52:01</time>
      </trkpt>
      <trkpt lat="41.90403" lon="0.76405">
        <ele>676.2</ele>
        <time>2022-05-23 14:52:02</time>
      </trkpt>
      <trkpt lat="41.90401" lon="0.7641">
        <ele>676.4</ele>
        <time>2022-05-23 14:52:03</time>
      </trkpt>
      <trkpt lat="41.90401" lon="0.76415">
        <ele>676.4</ele>
        <time>2022-05-23 14:52:04</time>
      </trkpt>
      <trkpt lat="41.90401" lon="0.76421">
        <ele>676.4</ele>
        <time>2022-05-23 14:52:05</time>
      </trkpt>
      <trkpt lat="41.90402" lon="0.76427">
        <ele>676.2</ele>
        <time>2022-05-23 14:52:06</time>
      </trkpt>
      <trkpt lat="41.90405" lon="0.76433">
        <ele>676</ele>
        <time>2022-05-23 14:52:07</time>
      </trkpt>
      <trkpt lat="41.90408" lon="0.76439">
        <ele>675.8</ele>
        <time>2022-05-23 14:52:08</time>
      </trkpt>
      <trkpt lat="41.90411" lon="0.76444">
        <ele>675.6</ele>
        <time>2022-05-23 14:52:09</time>
      </trkpt>
      <trkpt lat="41.90414" lon="0.76452">
        <ele>675.2</ele>
        <time>2022-05-23 14:52:10</time>
      </trkpt>
      <trkpt lat="41.90414" lon="0.76458">
        <ele>675</ele>
        <time>2022-05-23 14:52:11</time>
      </trkpt>
      <trkpt lat="41.90412" lon="0.76464">
        <ele>674.6</ele>
        <time>2022-05-23 14:52:12</time>
      </trkpt>
      <trkpt lat="41.90409" lon="0.76469">
        <ele>674.4</ele>
        <time>2022-05-23 14:52:13</time>
      </trkpt>
      <trkpt lat="41.90405" lon="0.76472">
        <ele>674.4</ele>
        <time>2022-05-23 14:52:14</time>
      </trkpt>
      <trkpt lat="41.90401" lon="0.76474">
        <ele>674.4</ele>
        <time>2022-05-23 14:52:15</time>
      </trkpt>
      <trkpt lat="41.90397" lon="0.76476">
        <ele>674.4</ele>
        <time>2022-05-23 14:52:16</time>
      </trkpt>
      <trkpt lat="41.90394" lon="0.76478">
        <ele>674.6</ele>
        <time>2022-05-23 14:52:17</time>
      </trkpt>
      <trkpt lat="41.9039" lon="0.7648">
        <ele>674.8</ele>
        <time>2022-05-23 14:52:18</time>
      </trkpt>
      <trkpt lat="41.90387" lon="0.76482">
        <ele>675</ele>
        <time>2022-05-23 14:52:19</time>
      </trkpt>
      <trkpt lat="41.90384" lon="0.76483">
        <ele>675.2</ele>
        <time>2022-05-23 14:52:20</time>
      </trkpt>
      <trkpt lat="41.90381" lon="0.76484">
        <ele>675.4</ele>
        <time>2022-05-23 14:52:21</time>
      </trkpt>
      <trkpt lat="41.90378" lon="0.76485">
        <ele>675.6</ele>
        <time>2022-05-23 14:52:22</time>
      </trkpt>
      <trkpt lat="41.90376" lon="0.76486">
        <ele>675.6</ele>
        <time>2022-05-23 14:52:23</time>
      </trkpt>
      <trkpt lat="41.90373" lon="0.76487">
        <ele>675.8</ele>
        <time>2022-05-23 14:52:24</time>
      </trkpt>
      <trkpt lat="41.9037" lon="0.76487">
        <ele>675.8</ele>
        <time>2022-05-23 14:52:25</time>
      </trkpt>
      <trkpt lat="41.90368" lon="0.76487">
        <ele>676</ele>
        <time>2022-05-23 14:52:26</time>
      </trkpt>
      <trkpt lat="41.90365" lon="0.76488">
        <ele>676.2</ele>
        <time>2022-05-23 14:52:27</time>
      </trkpt>
      <trkpt lat="41.90363" lon="0.76488">
        <ele>676.6</ele>
        <time>2022-05-23 14:52:28</time>
      </trkpt>
      <trkpt lat="41.90361" lon="0.76488">
        <ele>676.8</ele>
        <time>2022-05-23 14:52:29</time>
      </trkpt>
      <trkpt lat="41.90358" lon="0.76488">
        <ele>677</ele>
        <time>2022-05-23 14:52:30</time>
      </trkpt>
      <trkpt lat="41.90356" lon="0.76489">
        <ele>677.2</ele>
        <time>2022-05-23 14:52:31</time>
      </trkpt>
      <trkpt lat="41.90353" lon="0.76489">
        <ele>677.4</ele>
        <time>2022-05-23 14:52:32</time>
      </trkpt>
      <trkpt lat="41.90351" lon="0.76489">
        <ele>677.6</ele>
        <time>2022-05-23 14:52:33</time>
      </trkpt>
      <trkpt lat="41.90349" lon="0.76489">
        <ele>678</ele>
        <time>2022-05-23 14:52:34</time>
      </trkpt>
      <trkpt lat="41.90347" lon="0.76489">
        <ele>678.2</ele>
        <time>2022-05-23 14:52:35</time>
      </trkpt>
      <trkpt lat="41.90344" lon="0.76489">
        <ele>678.2</ele>
        <time>2022-05-23 14:52:36</time>
      </trkpt>
      <trkpt lat="41.90342" lon="0.76489">
        <ele>678.4</ele>
        <time>2022-05-23 14:52:37</time>
      </trkpt>
      <trkpt lat="41.9034" lon="0.76489">
        <ele>678.6</ele>
        <time>2022-05-23 14:52:38</time>
      </trkpt>
      <trkpt lat="41.90338" lon="0.76488">
        <ele>678.6</ele>
        <time>2022-05-23 14:52:39</time>
      </trkpt>
      <trkpt lat="41.90335" lon="0.76488">
        <ele>678.8</ele>
        <time>2022-05-23 14:52:40</time>
      </trkpt>
      <trkpt lat="41.90333" lon="0.76488">
        <ele>679</ele>
        <time>2022-05-23 14:52:41</time>
      </trkpt>
      <trkpt lat="41.90332" lon="0.76488">
        <ele>679.2</ele>
        <time>2022-05-23 14:52:42</time>
      </trkpt>
      <trkpt lat="41.90329" lon="0.76487">
        <ele>679.2</ele>
        <time>2022-05-23 14:52:43</time>
      </trkpt>
      <trkpt lat="41.90327" lon="0.76487">
        <ele>679.4</ele>
        <time>2022-05-23 14:52:44</time>
      </trkpt>
      <trkpt lat="41.90326" lon="0.76487">
        <ele>679.8</ele>
        <time>2022-05-23 14:52:45</time>
      </trkpt>
      <trkpt lat="41.90324" lon="0.76488">
        <ele>679.8</ele>
        <time>2022-05-23 14:52:46</time>
      </trkpt>
      <trkpt lat="41.90321" lon="0.76488">
        <ele>680</ele>
        <time>2022-05-23 14:52:47</time>
      </trkpt>
      <trkpt lat="41.9032" lon="0.76488">
        <ele>680.2</ele>
        <time>2022-05-23 14:52:48</time>
      </trkpt>
      <trkpt lat="41.90317" lon="0.76488">
        <ele>680.4</ele>
        <time>2022-05-23 14:52:49</time>
      </trkpt>
      <trkpt lat="41.90316" lon="0.76488">
        <ele>680.4</ele>
        <time>2022-05-23 14:52:50</time>
      </trkpt>
      <trkpt lat="41.90314" lon="0.76488">
        <ele>680.6</ele>
        <time>2022-05-23 14:52:51</time>
      </trkpt>
      <trkpt lat="41.90312" lon="0.76488">
        <ele>680.8</ele>
        <time>2022-05-23 14:52:52</time>
      </trkpt>
      <trkpt lat="41.9031" lon="0.76488">
        <ele>681</ele>
        <time>2022-05-23 14:52:53</time>
      </trkpt>
      <trkpt lat="41.90308" lon="0.76488">
        <ele>681</ele>
        <time>2022-05-23 14:52:54</time>
      </trkpt>
      <trkpt lat="41.90307" lon="0.76488">
        <ele>681.2</ele>
        <time>2022-05-23 14:52:55</time>
      </trkpt>
      <trkpt lat="41.90305" lon="0.76489">
        <ele>681.4</ele>
        <time>2022-05-23 14:52:56</time>
      </trkpt>
      <trkpt lat="41.90303" lon="0.76489">
        <ele>681.6</ele>
        <time>2022-05-23 14:52:57</time>
      </trkpt>
      <trkpt lat="41.90302" lon="0.76489">
        <ele>681.8</ele>
        <time>2022-05-23 14:52:58</time>
      </trkpt>
      <trkpt lat="41.903" lon="0.76489">
        <ele>681.8</ele>
        <time>2022-05-23 14:52:59</time>
      </trkpt>
      <trkpt lat="41.90298" lon="0.76488">
        <ele>682</ele>
        <time>2022-05-23 14:53:00</time>
      </trkpt>
      <trkpt lat="41.90297" lon="0.76488">
        <ele>682.2</ele>
        <time>2022-05-23 14:53:01</time>
      </trkpt>
      <trkpt lat="41.90295" lon="0.76488">
        <ele>682.2</ele>
        <time>2022-05-23 14:53:02</time>
      </trkpt>
      <trkpt lat="41.90294" lon="0.76487">
        <ele>682.4</ele>
        <time>2022-05-23 14:53:03</time>
      </trkpt>
      <trkpt lat="41.90292" lon="0.76487">
        <ele>682.4</ele>
        <time>2022-05-23 14:53:04</time>
      </trkpt>
      <trkpt lat="41.9029" lon="0.76487">
        <ele>682.4</ele>
        <time>2022-05-23 14:53:05</time>
      </trkpt>
      <trkpt lat="41.90289" lon="0.76487">
        <ele>682.6</ele>
        <time>2022-05-23 14:53:06</time>
      </trkpt>
      <trkpt lat="41.90287" lon="0.76487">
        <ele>682.6</ele>
        <time>2022-05-23 14:53:07</time>
      </trkpt>
      <trkpt lat="41.90286" lon="0.76487">
        <ele>682.8</ele>
        <time>2022-05-23 14:53:08</time>
      </trkpt>
      <trkpt lat="41.90285" lon="0.76486">
        <ele>682.8</ele>
        <time>2022-05-23 14:53:09</time>
      </trkpt>
      <trkpt lat="41.90283" lon="0.76486">
        <ele>683</ele>
        <time>2022-05-23 14:53:10</time>
      </trkpt>
      <trkpt lat="41.90282" lon="0.76486">
        <ele>683.2</ele>
        <time>2022-05-23 14:53:11</time>
      </trkpt>
      <trkpt lat="41.9028" lon="0.76486">
        <ele>683.4</ele>
        <time>2022-05-23 14:53:12</time>
      </trkpt>
      <trkpt lat="41.90279" lon="0.76486">
        <ele>683.6</ele>
        <time>2022-05-23 14:53:13</time>
      </trkpt>
      <trkpt lat="41.90277" lon="0.76486">
        <ele>683.8</ele>
        <time>2022-05-23 14:53:14</time>
      </trkpt>
      <trkpt lat="41.90275" lon="0.76486">
        <ele>684</ele>
        <time>2022-05-23 14:53:15</time>
      </trkpt>
      <trkpt lat="41.90274" lon="0.76486">
        <ele>684.2</ele>
        <time>2022-05-23 14:53:16</time>
      </trkpt>
      <trkpt lat="41.90272" lon="0.76486">
        <ele>684.4</ele>
        <time>2022-05-23 14:53:17</time>
      </trkpt>
      <trkpt lat="41.90271" lon="0.76486">
        <ele>684.6</ele>
        <time>2022-05-23 14:53:18</time>
      </trkpt>
      <trkpt lat="41.90269" lon="0.76487">
        <ele>684.8</ele>
        <time>2022-05-23 14:53:19</time>
      </trkpt>
      <trkpt lat="41.90267" lon="0.76487">
        <ele>685</ele>
        <time>2022-05-23 14:53:20</time>
      </trkpt>
      <trkpt lat="41.90266" lon="0.76487">
        <ele>685.2</ele>
        <time>2022-05-23 14:53:21</time>
      </trkpt>
      <trkpt lat="41.90264" lon="0.76487">
        <ele>685.4</ele>
        <time>2022-05-23 14:53:22</time>
      </trkpt>
      <trkpt lat="41.90263" lon="0.76486">
        <ele>685.4</ele>
        <time>2022-05-23 14:53:23</time>
      </trkpt>
      <trkpt lat="41.90261" lon="0.76486">
        <ele>685.4</ele>
        <time>2022-05-23 14:53:24</time>
      </trkpt>
      <trkpt lat="41.90259" lon="0.76486">
        <ele>685.6</ele>
        <time>2022-05-23 14:53:25</time>
      </trkpt>
      <trkpt lat="41.90258" lon="0.76486">
        <ele>685.6</ele>
        <time>2022-05-23 14:53:26</time>
      </trkpt>
      <trkpt lat="41.90256" lon="0.76486">
        <ele>685.8</ele>
        <time>2022-05-23 14:53:27</time>
      </trkpt>
      <trkpt lat="41.90254" lon="0.76485">
        <ele>685.8</ele>
        <time>2022-05-23 14:53:28</time>
      </trkpt>
      <trkpt lat="41.90252" lon="0.76485">
        <ele>686</ele>
        <time>2022-05-23 14:53:29</time>
      </trkpt>
      <trkpt lat="41.9025" lon="0.76485">
        <ele>686</ele>
        <time>2022-05-23 14:53:30</time>
      </trkpt>
      <trkpt lat="41.90248" lon="0.76485">
        <ele>686.2</ele>
        <time>2022-05-23 14:53:31</time>
      </trkpt>
      <trkpt lat="41.90247" lon="0.76485">
        <ele>686.4</ele>
        <time>2022-05-23 14:53:32</time>
      </trkpt>
      <trkpt lat="41.90245" lon="0.76484">
        <ele>686.4</ele>
        <time>2022-05-23 14:53:33</time>
      </trkpt>
      <trkpt lat="41.90243" lon="0.76484">
        <ele>686.6</ele>
        <time>2022-05-23 14:53:34</time>
      </trkpt>
      <trkpt lat="41.90242" lon="0.76484">
        <ele>686.8</ele>
        <time>2022-05-23 14:53:35</time>
      </trkpt>
      <trkpt lat="41.9024" lon="0.76484">
        <ele>687</ele>
        <time>2022-05-23 14:53:36</time>
      </trkpt>
      <trkpt lat="41.90239" lon="0.76485">
        <ele>687.2</ele>
        <time>2022-05-23 14:53:37</time>
      </trkpt>
      <trkpt lat="41.90237" lon="0.76486">
        <ele>687.2</ele>
        <time>2022-05-23 14:53:38</time>
      </trkpt>
      <trkpt lat="41.90235" lon="0.76487">
        <ele>687.4</ele>
        <time>2022-05-23 14:53:39</time>
      </trkpt>
      <trkpt lat="41.90234" lon="0.76487">
        <ele>687.6</ele>
        <time>2022-05-23 14:53:40</time>
      </trkpt>
      <trkpt lat="41.90232" lon="0.76487">
        <ele>687.6</ele>
        <time>2022-05-23 14:53:41</time>
      </trkpt>
      <trkpt lat="41.9023" lon="0.76487">
        <ele>687.8</ele>
        <time>2022-05-23 14:53:42</time>
      </trkpt>
      <trkpt lat="41.90228" lon="0.76486">
        <ele>688</ele>
        <time>2022-05-23 14:53:43</time>
      </trkpt>
      <trkpt lat="41.90226" lon="0.76486">
        <ele>688.2</ele>
        <time>2022-05-23 14:53:44</time>
      </trkpt>
      <trkpt lat="41.90224" lon="0.76486">
        <ele>688.2</ele>
        <time>2022-05-23 14:53:45</time>
      </trkpt>
      <trkpt lat="41.90222" lon="0.76486">
        <ele>688.4</ele>
        <time>2022-05-23 14:53:46</time>
      </trkpt>
      <trkpt lat="41.90221" lon="0.76486">
        <ele>688.6</ele>
        <time>2022-05-23 14:53:47</time>
      </trkpt>
      <trkpt lat="41.90219" lon="0.76486">
        <ele>688.8</ele>
        <time>2022-05-23 14:53:48</time>
      </trkpt>
      <trkpt lat="41.90217" lon="0.76486">
        <ele>688.8</ele>
        <time>2022-05-23 14:53:49</time>
      </trkpt>
      <trkpt lat="41.90215" lon="0.76486">
        <ele>689</ele>
        <time>2022-05-23 14:53:50</time>
      </trkpt>
      <trkpt lat="41.90213" lon="0.76486">
        <ele>689.2</ele>
        <time>2022-05-23 14:53:51</time>
      </trkpt>
      <trkpt lat="41.90211" lon="0.76486">
        <ele>689.2</ele>
        <time>2022-05-23 14:53:52</time>
      </trkpt>
      <trkpt lat="41.9021" lon="0.76487">
        <ele>689.2</ele>
        <time>2022-05-23 14:53:53</time>
      </trkpt>
      <trkpt lat="41.90208" lon="0.76487">
        <ele>689.4</ele>
        <time>2022-05-23 14:53:54</time>
      </trkpt>
      <trkpt lat="41.90206" lon="0.76488">
        <ele>689.4</ele>
        <time>2022-05-23 14:53:55</time>
      </trkpt>
      <trkpt lat="41.90205" lon="0.76488">
        <ele>689.6</ele>
        <time>2022-05-23 14:53:56</time>
      </trkpt>
      <trkpt lat="41.90203" lon="0.76489">
        <ele>689.8</ele>
        <time>2022-05-23 14:53:57</time>
      </trkpt>
      <trkpt lat="41.90201" lon="0.7649">
        <ele>690</ele>
        <time>2022-05-23 14:53:58</time>
      </trkpt>
      <trkpt lat="41.902" lon="0.7649">
        <ele>690.2</ele>
        <time>2022-05-23 14:53:59</time>
      </trkpt>
      <trkpt lat="41.90198" lon="0.76491">
        <ele>690.2</ele>
        <time>2022-05-23 14:54:00</time>
      </trkpt>
      <trkpt lat="41.90196" lon="0.76491">
        <ele>690.4</ele>
        <time>2022-05-23 14:54:01</time>
      </trkpt>
      <trkpt lat="41.90195" lon="0.76492">
        <ele>690.4</ele>
        <time>2022-05-23 14:54:02</time>
      </trkpt>
      <trkpt lat="41.90194" lon="0.76492">
        <ele>690.6</ele>
        <time>2022-05-23 14:54:03</time>
      </trkpt>
      <trkpt lat="41.90192" lon="0.76493">
        <ele>690.8</ele>
        <time>2022-05-23 14:54:04</time>
      </trkpt>
      <trkpt lat="41.9019" lon="0.76493">
        <ele>690.8</ele>
        <time>2022-05-23 14:54:05</time>
      </trkpt>
      <trkpt lat="41.90189" lon="0.76494">
        <ele>690.8</ele>
        <time>2022-05-23 14:54:06</time>
      </trkpt>
      <trkpt lat="41.90187" lon="0.76495">
        <ele>691</ele>
        <time>2022-05-23 14:54:07</time>
      </trkpt>
      <trkpt lat="41.90185" lon="0.76495">
        <ele>691</ele>
        <time>2022-05-23 14:54:08</time>
      </trkpt>
      <trkpt lat="41.90183" lon="0.76495">
        <ele>691.2</ele>
        <time>2022-05-23 14:54:09</time>
      </trkpt>
      <trkpt lat="41.90181" lon="0.76496">
        <ele>691.2</ele>
        <time>2022-05-23 14:54:10</time>
      </trkpt>
      <trkpt lat="41.9018" lon="0.76496">
        <ele>691.4</ele>
        <time>2022-05-23 14:54:11</time>
      </trkpt>
      <trkpt lat="41.90178" lon="0.76496">
        <ele>691.4</ele>
        <time>2022-05-23 14:54:12</time>
      </trkpt>
      <trkpt lat="41.90176" lon="0.76496">
        <ele>691.6</ele>
        <time>2022-05-23 14:54:13</time>
      </trkpt>
      <trkpt lat="41.90175" lon="0.76497">
        <ele>691.6</ele>
        <time>2022-05-23 14:54:14</time>
      </trkpt>
      <trkpt lat="41.90173" lon="0.76497">
        <ele>691.8</ele>
        <time>2022-05-23 14:54:15</time>
      </trkpt>
      <trkpt lat="41.90171" lon="0.76497">
        <ele>691.8</ele>
        <time>2022-05-23 14:54:16</time>
      </trkpt>
      <trkpt lat="41.90169" lon="0.76497">
        <ele>691.8</ele>
        <time>2022-05-23 14:54:17</time>
      </trkpt>
      <trkpt lat="41.90168" lon="0.76498">
        <ele>692</ele>
        <time>2022-05-23 14:54:18</time>
      </trkpt>
      <trkpt lat="41.90166" lon="0.76499">
        <ele>692</ele>
        <time>2022-05-23 14:54:19</time>
      </trkpt>
      <trkpt lat="41.90164" lon="0.76499">
        <ele>692</ele>
        <time>2022-05-23 14:54:20</time>
      </trkpt>
      <trkpt lat="41.90162" lon="0.765">
        <ele>692.2</ele>
        <time>2022-05-23 14:54:21</time>
      </trkpt>
      <trkpt lat="41.9016" lon="0.76501">
        <ele>692.2</ele>
        <time>2022-05-23 14:54:22</time>
      </trkpt>
      <trkpt lat="41.90158" lon="0.76502">
        <ele>692.4</ele>
        <time>2022-05-23 14:54:23</time>
      </trkpt>
      <trkpt lat="41.90156" lon="0.76503">
        <ele>692.4</ele>
        <time>2022-05-23 14:54:24</time>
      </trkpt>
      <trkpt lat="41.90153" lon="0.76504">
        <ele>692.6</ele>
        <time>2022-05-23 14:54:25</time>
      </trkpt>
      <trkpt lat="41.90151" lon="0.76505">
        <ele>692.6</ele>
        <time>2022-05-23 14:54:26</time>
      </trkpt>
      <trkpt lat="41.90149" lon="0.76507">
        <ele>692.6</ele>
        <time>2022-05-23 14:54:27</time>
      </trkpt>
      <trkpt lat="41.90147" lon="0.76508">
        <ele>692.8</ele>
        <time>2022-05-23 14:54:28</time>
      </trkpt>
      <trkpt lat="41.90144" lon="0.76509">
        <ele>692.8</ele>
        <time>2022-05-23 14:54:29</time>
      </trkpt>
      <trkpt lat="41.90142" lon="0.76511">
        <ele>692.8</ele>
        <time>2022-05-23 14:54:30</time>
      </trkpt>
      <trkpt lat="41.90139" lon="0.76513">
        <ele>692.8</ele>
        <time>2022-05-23 14:54:31</time>
      </trkpt>
      <trkpt lat="41.90137" lon="0.76515">
        <ele>692.8</ele>
        <time>2022-05-23 14:54:32</time>
      </trkpt>
      <trkpt lat="41.90135" lon="0.76517">
        <ele>693</ele>
        <time>2022-05-23 14:54:33</time>
      </trkpt>
      <trkpt lat="41.90132" lon="0.76518">
        <ele>693</ele>
        <time>2022-05-23 14:54:34</time>
      </trkpt>
      <trkpt lat="41.9013" lon="0.7652">
        <ele>693</ele>
        <time>2022-05-23 14:54:35</time>
      </trkpt>
      <trkpt lat="41.90128" lon="0.76522">
        <ele>693</ele>
        <time>2022-05-23 14:54:36</time>
      </trkpt>
      <trkpt lat="41.90126" lon="0.76524">
        <ele>693</ele>
        <time>2022-05-23 14:54:37</time>
      </trkpt>
      <trkpt lat="41.90123" lon="0.76526">
        <ele>693</ele>
        <time>2022-05-23 14:54:38</time>
      </trkpt>
      <trkpt lat="41.90121" lon="0.76528">
        <ele>693.2</ele>
        <time>2022-05-23 14:54:39</time>
      </trkpt>
      <trkpt lat="41.90118" lon="0.7653">
        <ele>693.2</ele>
        <time>2022-05-23 14:54:40</time>
      </trkpt>
      <trkpt lat="41.90116" lon="0.76532">
        <ele>693.2</ele>
        <time>2022-05-23 14:54:41</time>
      </trkpt>
      <trkpt lat="41.90113" lon="0.76534">
        <ele>693.2</ele>
        <time>2022-05-23 14:54:42</time>
      </trkpt>
      <trkpt lat="41.90109" lon="0.76536">
        <ele>693.2</ele>
        <time>2022-05-23 14:54:43</time>
      </trkpt>
      <trkpt lat="41.90106" lon="0.76537">
        <ele>693</ele>
        <time>2022-05-23 14:54:44</time>
      </trkpt>
      <trkpt lat="41.90102" lon="0.76539">
        <ele>693</ele>
        <time>2022-05-23 14:54:45</time>
      </trkpt>
      <trkpt lat="41.90098" lon="0.7654">
        <ele>693</ele>
        <time>2022-05-23 14:54:46</time>
      </trkpt>
      <trkpt lat="41.90094" lon="0.76541">
        <ele>693</ele>
        <time>2022-05-23 14:54:47</time>
      </trkpt>
      <trkpt lat="41.90089" lon="0.76542">
        <ele>692.8</ele>
        <time>2022-05-23 14:54:48</time>
      </trkpt>
      <trkpt lat="41.90085" lon="0.76544">
        <ele>692.6</ele>
        <time>2022-05-23 14:54:49</time>
      </trkpt>
      <trkpt lat="41.9008" lon="0.76545">
        <ele>692.6</ele>
        <time>2022-05-23 14:54:50</time>
      </trkpt>
      <trkpt lat="41.90075" lon="0.76547">
        <ele>692.4</ele>
        <time>2022-05-23 14:54:51</time>
      </trkpt>
      <trkpt lat="41.90071" lon="0.76548">
        <ele>692.2</ele>
        <time>2022-05-23 14:54:52</time>
      </trkpt>
      <trkpt lat="41.90066" lon="0.7655">
        <ele>692.2</ele>
        <time>2022-05-23 14:54:53</time>
      </trkpt>
      <trkpt lat="41.90061" lon="0.76552">
        <ele>692.2</ele>
        <time>2022-05-23 14:54:54</time>
      </trkpt>
      <trkpt lat="41.90055" lon="0.76554">
        <ele>692.2</ele>
        <time>2022-05-23 14:54:55</time>
      </trkpt>
      <trkpt lat="41.9005" lon="0.76556">
        <ele>692</ele>
        <time>2022-05-23 14:54:56</time>
      </trkpt>
      <trkpt lat="41.90045" lon="0.76559">
        <ele>691.8</ele>
        <time>2022-05-23 14:54:57</time>
      </trkpt>
      <trkpt lat="41.9004" lon="0.76561">
        <ele>691.4</ele>
        <time>2022-05-23 14:54:58</time>
      </trkpt>
      <trkpt lat="41.90033" lon="0.76563">
        <ele>691.2</ele>
        <time>2022-05-23 14:54:59</time>
      </trkpt>
      <trkpt lat="41.90028" lon="0.76565">
        <ele>691</ele>
        <time>2022-05-23 14:55:00</time>
      </trkpt>
      <trkpt lat="41.90022" lon="0.76568">
        <ele>690.6</ele>
        <time>2022-05-23 14:55:01</time>
      </trkpt>
      <trkpt lat="41.90016" lon="0.76569">
        <ele>690.4</ele>
        <time>2022-05-23 14:55:02</time>
      </trkpt>
      <trkpt lat="41.90011" lon="0.76571">
        <ele>690.2</ele>
        <time>2022-05-23 14:55:03</time>
      </trkpt>
      <trkpt lat="41.90005" lon="0.76571">
        <ele>690</ele>
        <time>2022-05-23 14:55:04</time>
      </trkpt>
      <trkpt lat="41.89999" lon="0.7657">
        <ele>689.8</ele>
        <time>2022-05-23 14:55:05</time>
      </trkpt>
      <trkpt lat="41.89993" lon="0.76566">
        <ele>689.6</ele>
        <time>2022-05-23 14:55:06</time>
      </trkpt>
      <trkpt lat="41.89988" lon="0.76563">
        <ele>689.4</ele>
        <time>2022-05-23 14:55:07</time>
      </trkpt>
      <trkpt lat="41.89984" lon="0.7656">
        <ele>689.4</ele>
        <time>2022-05-23 14:55:08</time>
      </trkpt>
      <trkpt lat="41.89979" lon="0.76555">
        <ele>689.4</ele>
        <time>2022-05-23 14:55:09</time>
      </trkpt>
      <trkpt lat="41.89975" lon="0.76551">
        <ele>689.4</ele>
        <time>2022-05-23 14:55:10</time>
      </trkpt>
      <trkpt lat="41.89971" lon="0.76547">
        <ele>689.4</ele>
        <time>2022-05-23 14:55:11</time>
      </trkpt>
      <trkpt lat="41.89966" lon="0.76543">
        <ele>689.4</ele>
        <time>2022-05-23 14:55:12</time>
      </trkpt>
      <trkpt lat="41.89962" lon="0.76539">
        <ele>689.4</ele>
        <time>2022-05-23 14:55:13</time>
      </trkpt>
      <trkpt lat="41.89957" lon="0.76536">
        <ele>689.4</ele>
        <time>2022-05-23 14:55:14</time>
      </trkpt>
      <trkpt lat="41.89952" lon="0.76535">
        <ele>689.4</ele>
        <time>2022-05-23 14:55:15</time>
      </trkpt>
      <trkpt lat="41.89947" lon="0.76534">
        <ele>689.2</ele>
        <time>2022-05-23 14:55:16</time>
      </trkpt>
      <trkpt lat="41.89942" lon="0.76536">
        <ele>689.2</ele>
        <time>2022-05-23 14:55:17</time>
      </trkpt>
      <trkpt lat="41.89938" lon="0.76538">
        <ele>689.2</ele>
        <time>2022-05-23 14:55:18</time>
      </trkpt>
      <trkpt lat="41.89934" lon="0.76542">
        <ele>689.4</ele>
        <time>2022-05-23 14:55:19</time>
      </trkpt>
      <trkpt lat="41.8993" lon="0.76546">
        <ele>689.6</ele>
        <time>2022-05-23 14:55:20</time>
      </trkpt>
      <trkpt lat="41.89927" lon="0.76552">
        <ele>689.6</ele>
        <time>2022-05-23 14:55:21</time>
      </trkpt>
      <trkpt lat="41.89924" lon="0.76557">
        <ele>689.6</ele>
        <time>2022-05-23 14:55:22</time>
      </trkpt>
      <trkpt lat="41.89921" lon="0.76564">
        <ele>689.4</ele>
        <time>2022-05-23 14:55:23</time>
      </trkpt>
      <trkpt lat="41.89918" lon="0.7657">
        <ele>689</ele>
        <time>2022-05-23 14:55:24</time>
      </trkpt>
      <trkpt lat="41.89914" lon="0.76577">
        <ele>688.6</ele>
        <time>2022-05-23 14:55:25</time>
      </trkpt>
      <trkpt lat="41.8991" lon="0.76585">
        <ele>688.2</ele>
        <time>2022-05-23 14:55:26</time>
      </trkpt>
      <trkpt lat="41.89905" lon="0.76591">
        <ele>687.6</ele>
        <time>2022-05-23 14:55:27</time>
      </trkpt>
      <trkpt lat="41.89898" lon="0.76596">
        <ele>686.8</ele>
        <time>2022-05-23 14:55:28</time>
      </trkpt>
      <trkpt lat="41.8989" lon="0.76598">
        <ele>686.2</ele>
        <time>2022-05-23 14:55:29</time>
      </trkpt>
      <trkpt lat="41.89881" lon="0.76599">
        <ele>685.4</ele>
        <time>2022-05-23 14:55:30</time>
      </trkpt>
      <trkpt lat="41.89871" lon="0.76598">
        <ele>684.8</ele>
        <time>2022-05-23 14:55:31</time>
      </trkpt>
      <trkpt lat="41.89861" lon="0.76597">
        <ele>684.2</ele>
        <time>2022-05-23 14:55:32</time>
      </trkpt>
      <trkpt lat="41.89852" lon="0.76595">
        <ele>683.6</ele>
        <time>2022-05-23 14:55:33</time>
      </trkpt>
      <trkpt lat="41.89843" lon="0.76593">
        <ele>683</ele>
        <time>2022-05-23 14:55:34</time>
      </trkpt>
      <trkpt lat="41.89833" lon="0.7659">
        <ele>682.6</ele>
        <time>2022-05-23 14:55:35</time>
      </trkpt>
      <trkpt lat="41.89826" lon="0.76587">
        <ele>682.2</ele>
        <time>2022-05-23 14:55:36</time>
      </trkpt>
      <trkpt lat="41.89817" lon="0.76585">
        <ele>681.8</ele>
        <time>2022-05-23 14:55:37</time>
      </trkpt>
      <trkpt lat="41.89808" lon="0.76583">
        <ele>681.6</ele>
        <time>2022-05-23 14:55:38</time>
      </trkpt>
      <trkpt lat="41.898" lon="0.76581">
        <ele>681.4</ele>
        <time>2022-05-23 14:55:39</time>
      </trkpt>
      <trkpt lat="41.89793" lon="0.7658">
        <ele>681.4</ele>
        <time>2022-05-23 14:55:40</time>
      </trkpt>
      <trkpt lat="41.89785" lon="0.76579">
        <ele>681.4</ele>
        <time>2022-05-23 14:55:41</time>
      </trkpt>
      <trkpt lat="41.89778" lon="0.76579">
        <ele>681.6</ele>
        <time>2022-05-23 14:55:42</time>
      </trkpt>
      <trkpt lat="41.89772" lon="0.76579">
        <ele>681.6</ele>
        <time>2022-05-23 14:55:43</time>
      </trkpt>
      <trkpt lat="41.89764" lon="0.76579">
        <ele>681.8</ele>
        <time>2022-05-23 14:55:44</time>
      </trkpt>
      <trkpt lat="41.89757" lon="0.76579">
        <ele>681.8</ele>
        <time>2022-05-23 14:55:45</time>
      </trkpt>
      <trkpt lat="41.8975" lon="0.7658">
        <ele>682</ele>
        <time>2022-05-23 14:55:46</time>
      </trkpt>
      <trkpt lat="41.89744" lon="0.7658">
        <ele>682.2</ele>
        <time>2022-05-23 14:55:47</time>
      </trkpt>
      <trkpt lat="41.89738" lon="0.76581">
        <ele>682.6</ele>
        <time>2022-05-23 14:55:48</time>
      </trkpt>
      <trkpt lat="41.89733" lon="0.76582">
        <ele>682.8</ele>
        <time>2022-05-23 14:55:49</time>
      </trkpt>
      <trkpt lat="41.89727" lon="0.76583">
        <ele>683.2</ele>
        <time>2022-05-23 14:55:50</time>
      </trkpt>
      <trkpt lat="41.89722" lon="0.76584">
        <ele>683.6</ele>
        <time>2022-05-23 14:55:51</time>
      </trkpt>
      <trkpt lat="41.89717" lon="0.76584">
        <ele>683.8</ele>
        <time>2022-05-23 14:55:52</time>
      </trkpt>
      <trkpt lat="41.89712" lon="0.76584">
        <ele>684</ele>
        <time>2022-05-23 14:55:53</time>
      </trkpt>
      <trkpt lat="41.89707" lon="0.76584">
        <ele>684.2</ele>
        <time>2022-05-23 14:55:54</time>
      </trkpt>
      <trkpt lat="41.89702" lon="0.76584">
        <ele>684.2</ele>
        <time>2022-05-23 14:55:55</time>
      </trkpt>
      <trkpt lat="41.89697" lon="0.76584">
        <ele>684.4</ele>
        <time>2022-05-23 14:55:56</time>
      </trkpt>
      <trkpt lat="41.89691" lon="0.76584">
        <ele>684.6</ele>
        <time>2022-05-23 14:55:57</time>
      </trkpt>
      <trkpt lat="41.89686" lon="0.76585">
        <ele>684.8</ele>
        <time>2022-05-23 14:55:58</time>
      </trkpt>
      <trkpt lat="41.8968" lon="0.76585">
        <ele>684.8</ele>
        <time>2022-05-23 14:55:59</time>
      </trkpt>
      <trkpt lat="41.89675" lon="0.76586">
        <ele>684.8</ele>
        <time>2022-05-23 14:56:00</time>
      </trkpt>
      <trkpt lat="41.8967" lon="0.76587">
        <ele>684.8</ele>
        <time>2022-05-23 14:56:01</time>
      </trkpt>
      <trkpt lat="41.89665" lon="0.76588">
        <ele>684.8</ele>
        <time>2022-05-23 14:56:02</time>
      </trkpt>
      <trkpt lat="41.8966" lon="0.76589">
        <ele>684.8</ele>
        <time>2022-05-23 14:56:03</time>
      </trkpt>
      <trkpt lat="41.89655" lon="0.7659">
        <ele>684.8</ele>
        <time>2022-05-23 14:56:04</time>
      </trkpt>
      <trkpt lat="41.8965" lon="0.76591">
        <ele>684.8</ele>
        <time>2022-05-23 14:56:05</time>
      </trkpt>
      <trkpt lat="41.89644" lon="0.76593">
        <ele>684.8</ele>
        <time>2022-05-23 14:56:06</time>
      </trkpt>
      <trkpt lat="41.89639" lon="0.76594">
        <ele>684.6</ele>
        <time>2022-05-23 14:56:07</time>
      </trkpt>
      <trkpt lat="41.89632" lon="0.76595">
        <ele>684.6</ele>
        <time>2022-05-23 14:56:08</time>
      </trkpt>
      <trkpt lat="41.89626" lon="0.76596">
        <ele>684.4</ele>
        <time>2022-05-23 14:56:09</time>
      </trkpt>
      <trkpt lat="41.89619" lon="0.76598">
        <ele>684</ele>
        <time>2022-05-23 14:56:10</time>
      </trkpt>
      <trkpt lat="41.89612" lon="0.76599">
        <ele>683.8</ele>
        <time>2022-05-23 14:56:11</time>
      </trkpt>
      <trkpt lat="41.89605" lon="0.766">
        <ele>683.4</ele>
        <time>2022-05-23 14:56:12</time>
      </trkpt>
      <trkpt lat="41.89597" lon="0.76601">
        <ele>683.2</ele>
        <time>2022-05-23 14:56:13</time>
      </trkpt>
      <trkpt lat="41.8959" lon="0.76602">
        <ele>683</ele>
        <time>2022-05-23 14:56:14</time>
      </trkpt>
      <trkpt lat="41.89583" lon="0.76602">
        <ele>682.8</ele>
        <time>2022-05-23 14:56:15</time>
      </trkpt>
      <trkpt lat="41.89577" lon="0.76603">
        <ele>682.6</ele>
        <time>2022-05-23 14:56:16</time>
      </trkpt>
      <trkpt lat="41.8957" lon="0.76604">
        <ele>682.4</ele>
        <time>2022-05-23 14:56:17</time>
      </trkpt>
      <trkpt lat="41.89563" lon="0.76605">
        <ele>682.2</ele>
        <time>2022-05-23 14:56:18</time>
      </trkpt>
      <trkpt lat="41.89556" lon="0.76606">
        <ele>682.2</ele>
        <time>2022-05-23 14:56:19</time>
      </trkpt>
      <trkpt lat="41.8955" lon="0.76607">
        <ele>682.2</ele>
        <time>2022-05-23 14:56:20</time>
      </trkpt>
      <trkpt lat="41.89543" lon="0.76607">
        <ele>682</ele>
        <time>2022-05-23 14:56:21</time>
      </trkpt>
      <trkpt lat="41.89536" lon="0.76608">
        <ele>681.8</ele>
        <time>2022-05-23 14:56:22</time>
      </trkpt>
      <trkpt lat="41.8953" lon="0.76608">
        <ele>681.6</ele>
        <time>2022-05-23 14:56:23</time>
      </trkpt>
      <trkpt lat="41.89523" lon="0.76608">
        <ele>681.4</ele>
        <time>2022-05-23 14:56:24</time>
      </trkpt>
      <trkpt lat="41.89516" lon="0.76609">
        <ele>681.2</ele>
        <time>2022-05-23 14:56:25</time>
      </trkpt>
      <trkpt lat="41.89508" lon="0.76611">
        <ele>680.8</ele>
        <time>2022-05-23 14:56:26</time>
      </trkpt>
      <trkpt lat="41.89501" lon="0.76612">
        <ele>680.4</ele>
        <time>2022-05-23 14:56:27</time>
      </trkpt>
      <trkpt lat="41.89494" lon="0.76615">
        <ele>679.8</ele>
        <time>2022-05-23 14:56:28</time>
      </trkpt>
      <trkpt lat="41.89485" lon="0.76617">
        <ele>679.2</ele>
        <time>2022-05-23 14:56:29</time>
      </trkpt>
      <trkpt lat="41.89478" lon="0.7662">
        <ele>678.6</ele>
        <time>2022-05-23 14:56:30</time>
      </trkpt>
      <trkpt lat="41.89468" lon="0.76623">
        <ele>677.6</ele>
        <time>2022-05-23 14:56:31</time>
      </trkpt>
      <trkpt lat="41.89459" lon="0.76626">
        <ele>676.8</ele>
        <time>2022-05-23 14:56:32</time>
      </trkpt>
      <trkpt lat="41.89449" lon="0.76629">
        <ele>676</ele>
        <time>2022-05-23 14:56:33</time>
      </trkpt>
      <trkpt lat="41.8944" lon="0.76632">
        <ele>675.2</ele>
        <time>2022-05-23 14:56:34</time>
      </trkpt>
      <trkpt lat="41.8943" lon="0.76635">
        <ele>674.4</ele>
        <time>2022-05-23 14:56:35</time>
      </trkpt>
      <trkpt lat="41.89418" lon="0.76637">
        <ele>673.4</ele>
        <time>2022-05-23 14:56:36</time>
      </trkpt>
      <trkpt lat="41.89407" lon="0.76637">
        <ele>672.4</ele>
        <time>2022-05-23 14:56:37</time>
      </trkpt>
      <trkpt lat="41.89396" lon="0.76636">
        <ele>671.8</ele>
        <time>2022-05-23 14:56:38</time>
      </trkpt>
      <trkpt lat="41.89385" lon="0.76634">
        <ele>671</ele>
        <time>2022-05-23 14:56:39</time>
      </trkpt>
      <trkpt lat="41.89374" lon="0.76631">
        <ele>670.2</ele>
        <time>2022-05-23 14:56:40</time>
      </trkpt>
      <trkpt lat="41.89362" lon="0.76628">
        <ele>669.2</ele>
        <time>2022-05-23 14:56:41</time>
      </trkpt>
      <trkpt lat="41.89351" lon="0.76625">
        <ele>668.4</ele>
        <time>2022-05-23 14:56:42</time>
      </trkpt>
      <trkpt lat="41.89339" lon="0.76624">
        <ele>667.6</ele>
        <time>2022-05-23 14:56:43</time>
      </trkpt>
      <trkpt lat="41.89327" lon="0.76623">
        <ele>666.8</ele>
        <time>2022-05-23 14:56:44</time>
      </trkpt>
      <trkpt lat="41.89317" lon="0.76624">
        <ele>666</ele>
        <time>2022-05-23 14:56:45</time>
      </trkpt>
      <trkpt lat="41.89305" lon="0.76625">
        <ele>665.2</ele>
        <time>2022-05-23 14:56:46</time>
      </trkpt>
      <trkpt lat="41.89294" lon="0.76626">
        <ele>664.6</ele>
        <time>2022-05-23 14:56:47</time>
      </trkpt>
      <trkpt lat="41.89283" lon="0.76627">
        <ele>664.2</ele>
        <time>2022-05-23 14:56:48</time>
      </trkpt>
      <trkpt lat="41.89272" lon="0.76627">
        <ele>664</ele>
        <time>2022-05-23 14:56:49</time>
      </trkpt>
      <trkpt lat="41.89262" lon="0.76628">
        <ele>663.8</ele>
        <time>2022-05-23 14:56:50</time>
      </trkpt>
      <trkpt lat="41.89252" lon="0.76629">
        <ele>663.6</ele>
        <time>2022-05-23 14:56:51</time>
      </trkpt>
      <trkpt lat="41.89242" lon="0.7663">
        <ele>663.4</ele>
        <time>2022-05-23 14:56:52</time>
      </trkpt>
      <trkpt lat="41.89234" lon="0.76631">
        <ele>663.4</ele>
        <time>2022-05-23 14:56:53</time>
      </trkpt>
      <trkpt lat="41.89225" lon="0.76633">
        <ele>663.4</ele>
        <time>2022-05-23 14:56:54</time>
      </trkpt>
      <trkpt lat="41.89216" lon="0.76636">
        <ele>663.4</ele>
        <time>2022-05-23 14:56:55</time>
      </trkpt>
      <trkpt lat="41.89208" lon="0.76638">
        <ele>663.4</ele>
        <time>2022-05-23 14:56:56</time>
      </trkpt>
      <trkpt lat="41.892" lon="0.7664">
        <ele>663.4</ele>
        <time>2022-05-23 14:56:57</time>
      </trkpt>
      <trkpt lat="41.89193" lon="0.76642">
        <ele>663.4</ele>
        <time>2022-05-23 14:56:58</time>
      </trkpt>
      <trkpt lat="41.89185" lon="0.76644">
        <ele>663.4</ele>
        <time>2022-05-23 14:56:59</time>
      </trkpt>
      <trkpt lat="41.89178" lon="0.76646">
        <ele>663.4</ele>
        <time>2022-05-23 14:57:00</time>
      </trkpt>
      <trkpt lat="41.8917" lon="0.76647">
        <ele>663.6</ele>
        <time>2022-05-23 14:57:01</time>
      </trkpt>
      <trkpt lat="41.89163" lon="0.76649">
        <ele>663.6</ele>
        <time>2022-05-23 14:57:02</time>
      </trkpt>
      <trkpt lat="41.89156" lon="0.7665">
        <ele>663.8</ele>
        <time>2022-05-23 14:57:03</time>
      </trkpt>
      <trkpt lat="41.8915" lon="0.76652">
        <ele>663.8</ele>
        <time>2022-05-23 14:57:04</time>
      </trkpt>
      <trkpt lat="41.89144" lon="0.76653">
        <ele>664</ele>
        <time>2022-05-23 14:57:05</time>
      </trkpt>
      <trkpt lat="41.89137" lon="0.76655">
        <ele>664.2</ele>
        <time>2022-05-23 14:57:06</time>
      </trkpt>
      <trkpt lat="41.89131" lon="0.76657">
        <ele>664.6</ele>
        <time>2022-05-23 14:57:07</time>
      </trkpt>
      <trkpt lat="41.89125" lon="0.76658">
        <ele>664.8</ele>
        <time>2022-05-23 14:57:08</time>
      </trkpt>
      <trkpt lat="41.89119" lon="0.76659">
        <ele>665</ele>
        <time>2022-05-23 14:57:09</time>
      </trkpt>
      <trkpt lat="41.89114" lon="0.7666">
        <ele>665.2</ele>
        <time>2022-05-23 14:57:10</time>
      </trkpt>
      <trkpt lat="41.89109" lon="0.76661">
        <ele>665.6</ele>
        <time>2022-05-23 14:57:11</time>
      </trkpt>
      <trkpt lat="41.89104" lon="0.76663">
        <ele>665.8</ele>
        <time>2022-05-23 14:57:12</time>
      </trkpt>
      <trkpt lat="41.89099" lon="0.76665">
        <ele>665.8</ele>
        <time>2022-05-23 14:57:13</time>
      </trkpt>
      <trkpt lat="41.89095" lon="0.76666">
        <ele>666</ele>
        <time>2022-05-23 14:57:14</time>
      </trkpt>
      <trkpt lat="41.8909" lon="0.76668">
        <ele>666</ele>
        <time>2022-05-23 14:57:15</time>
      </trkpt>
      <trkpt lat="41.89086" lon="0.76669">
        <ele>666.2</ele>
        <time>2022-05-23 14:57:16</time>
      </trkpt>
      <trkpt lat="41.89082" lon="0.7667">
        <ele>666.4</ele>
        <time>2022-05-23 14:57:17</time>
      </trkpt>
      <trkpt lat="41.89078" lon="0.76672">
        <ele>666.8</ele>
        <time>2022-05-23 14:57:18</time>
      </trkpt>
      <trkpt lat="41.89074" lon="0.76673">
        <ele>666.8</ele>
        <time>2022-05-23 14:57:19</time>
      </trkpt>
      <trkpt lat="41.8907" lon="0.76675">
        <ele>667</ele>
        <time>2022-05-23 14:57:20</time>
      </trkpt>
      <trkpt lat="41.89066" lon="0.76676">
        <ele>667</ele>
        <time>2022-05-23 14:57:21</time>
      </trkpt>
      <trkpt lat="41.89063" lon="0.76676">
        <ele>666.8</ele>
        <time>2022-05-23 14:57:22</time>
      </trkpt>
      <trkpt lat="41.89058" lon="0.76678">
        <ele>667</ele>
        <time>2022-05-23 14:57:23</time>
      </trkpt>
      <trkpt lat="41.89054" lon="0.7668">
        <ele>667</ele>
        <time>2022-05-23 14:57:24</time>
      </trkpt>
      <trkpt lat="41.89051" lon="0.76682">
        <ele>667.2</ele>
        <time>2022-05-23 14:57:25</time>
      </trkpt>
      <trkpt lat="41.89047" lon="0.76683">
        <ele>667.6</ele>
        <time>2022-05-23 14:57:26</time>
      </trkpt>
      <trkpt lat="41.89043" lon="0.76685">
        <ele>668</ele>
        <time>2022-05-23 14:57:27</time>
      </trkpt>
      <trkpt lat="41.89039" lon="0.76686">
        <ele>668.4</ele>
        <time>2022-05-23 14:57:28</time>
      </trkpt>
      <trkpt lat="41.89036" lon="0.76688">
        <ele>668.6</ele>
        <time>2022-05-23 14:57:29</time>
      </trkpt>
      <trkpt lat="41.89032" lon="0.76689">
        <ele>668.8</ele>
        <time>2022-05-23 14:57:30</time>
      </trkpt>
      <trkpt lat="41.89029" lon="0.7669">
        <ele>669</ele>
        <time>2022-05-23 14:57:31</time>
      </trkpt>
      <trkpt lat="41.89025" lon="0.76691">
        <ele>669.2</ele>
        <time>2022-05-23 14:57:32</time>
      </trkpt>
      <trkpt lat="41.89023" lon="0.76691">
        <ele>669.2</ele>
        <time>2022-05-23 14:57:33</time>
      </trkpt>
      <trkpt lat="41.8902" lon="0.76692">
        <ele>669.4</ele>
        <time>2022-05-23 14:57:34</time>
      </trkpt>
      <trkpt lat="41.89017" lon="0.76693">
        <ele>669.4</ele>
        <time>2022-05-23 14:57:35</time>
      </trkpt>
      <trkpt lat="41.89014" lon="0.76694">
        <ele>669.6</ele>
        <time>2022-05-23 14:57:36</time>
      </trkpt>
      <trkpt lat="41.89012" lon="0.76695">
        <ele>669.8</ele>
        <time>2022-05-23 14:57:37</time>
      </trkpt>
      <trkpt lat="41.8901" lon="0.76695">
        <ele>670</ele>
        <time>2022-05-23 14:57:38</time>
      </trkpt>
      <trkpt lat="41.89007" lon="0.76696">
        <ele>670.2</ele>
        <time>2022-05-23 14:57:39</time>
      </trkpt>
      <trkpt lat="41.89004" lon="0.76697">
        <ele>670.4</ele>
        <time>2022-05-23 14:57:40</time>
      </trkpt>
      <trkpt lat="41.89002" lon="0.76698">
        <ele>670.4</ele>
        <time>2022-05-23 14:57:41</time>
      </trkpt>
      <trkpt lat="41.89" lon="0.76699">
        <ele>670.6</ele>
        <time>2022-05-23 14:57:42</time>
      </trkpt>
      <trkpt lat="41.88998" lon="0.767">
        <ele>670.8</ele>
        <time>2022-05-23 14:57:43</time>
      </trkpt>
      <trkpt lat="41.88996" lon="0.76701">
        <ele>671.2</ele>
        <time>2022-05-23 14:57:44</time>
      </trkpt>
      <trkpt lat="41.88994" lon="0.76702">
        <ele>671.4</ele>
        <time>2022-05-23 14:57:45</time>
      </trkpt>
      <trkpt lat="41.88992" lon="0.76704">
        <ele>671.6</ele>
        <time>2022-05-23 14:57:46</time>
      </trkpt>
      <trkpt lat="41.8899" lon="0.76705">
        <ele>671.6</ele>
        <time>2022-05-23 14:57:47</time>
      </trkpt>
      <trkpt lat="41.88988" lon="0.76706">
        <ele>671.8</ele>
        <time>2022-05-23 14:57:48</time>
      </trkpt>
      <trkpt lat="41.88986" lon="0.76707">
        <ele>671.8</ele>
        <time>2022-05-23 14:57:49</time>
      </trkpt>
      <trkpt lat="41.88984" lon="0.76708">
        <ele>671.8</ele>
        <time>2022-05-23 14:57:50</time>
      </trkpt>
      <trkpt lat="41.88982" lon="0.76709">
        <ele>671.8</ele>
        <time>2022-05-23 14:57:51</time>
      </trkpt>
      <trkpt lat="41.8898" lon="0.7671">
        <ele>671.8</ele>
        <time>2022-05-23 14:57:52</time>
      </trkpt>
      <trkpt lat="41.88978" lon="0.76712">
        <ele>672</ele>
        <time>2022-05-23 14:57:53</time>
      </trkpt>
      <trkpt lat="41.88976" lon="0.76713">
        <ele>672</ele>
        <time>2022-05-23 14:57:54</time>
      </trkpt>
      <trkpt lat="41.88974" lon="0.76714">
        <ele>672.2</ele>
        <time>2022-05-23 14:57:55</time>
      </trkpt>
      <trkpt lat="41.88973" lon="0.76715">
        <ele>672.2</ele>
        <time>2022-05-23 14:57:56</time>
      </trkpt>
      <trkpt lat="41.88971" lon="0.76716">
        <ele>672.4</ele>
        <time>2022-05-23 14:57:57</time>
      </trkpt>
      <trkpt lat="41.88969" lon="0.76718">
        <ele>672.4</ele>
        <time>2022-05-23 14:57:58</time>
      </trkpt>
      <trkpt lat="41.88967" lon="0.76719">
        <ele>672.6</ele>
        <time>2022-05-23 14:57:59</time>
      </trkpt>
      <trkpt lat="41.88965" lon="0.76719">
        <ele>672.6</ele>
        <time>2022-05-23 14:58:00</time>
      </trkpt>
      <trkpt lat="41.88963" lon="0.7672">
        <ele>672.8</ele>
        <time>2022-05-23 14:58:01</time>
      </trkpt>
      <trkpt lat="41.88962" lon="0.76722">
        <ele>672.8</ele>
        <time>2022-05-23 14:58:02</time>
      </trkpt>
      <trkpt lat="41.8896" lon="0.76723">
        <ele>673</ele>
        <time>2022-05-23 14:58:03</time>
      </trkpt>
      <trkpt lat="41.88958" lon="0.76723">
        <ele>673.2</ele>
        <time>2022-05-23 14:58:04</time>
      </trkpt>
      <trkpt lat="41.88956" lon="0.76725">
        <ele>673.2</ele>
        <time>2022-05-23 14:58:05</time>
      </trkpt>
      <trkpt lat="41.88954" lon="0.76726">
        <ele>673.2</ele>
        <time>2022-05-23 14:58:06</time>
      </trkpt>
      <trkpt lat="41.88952" lon="0.76727">
        <ele>673.4</ele>
        <time>2022-05-23 14:58:07</time>
      </trkpt>
      <trkpt lat="41.8895" lon="0.76728">
        <ele>673.6</ele>
        <time>2022-05-23 14:58:08</time>
      </trkpt>
      <trkpt lat="41.88949" lon="0.7673">
        <ele>673.8</ele>
        <time>2022-05-23 14:58:09</time>
      </trkpt>
      <trkpt lat="41.88947" lon="0.76731">
        <ele>673.8</ele>
        <time>2022-05-23 14:58:10</time>
      </trkpt>
      <trkpt lat="41.88946" lon="0.76732">
        <ele>674</ele>
        <time>2022-05-23 14:58:11</time>
      </trkpt>
      <trkpt lat="41.88944" lon="0.76733">
        <ele>674</ele>
        <time>2022-05-23 14:58:12</time>
      </trkpt>
      <trkpt lat="41.88942" lon="0.76735">
        <ele>674.2</ele>
        <time>2022-05-23 14:58:13</time>
      </trkpt>
      <trkpt lat="41.8894" lon="0.76736">
        <ele>674.6</ele>
        <time>2022-05-23 14:58:14</time>
      </trkpt>
      <trkpt lat="41.88938" lon="0.76737">
        <ele>674.8</ele>
        <time>2022-05-23 14:58:15</time>
      </trkpt>
      <trkpt lat="41.88936" lon="0.76738">
        <ele>675</ele>
        <time>2022-05-23 14:58:16</time>
      </trkpt>
      <trkpt lat="41.88935" lon="0.7674">
        <ele>675.2</ele>
        <time>2022-05-23 14:58:17</time>
      </trkpt>
      <trkpt lat="41.88933" lon="0.76741">
        <ele>675.4</ele>
        <time>2022-05-23 14:58:18</time>
      </trkpt>
      <trkpt lat="41.88932" lon="0.76742">
        <ele>675.6</ele>
        <time>2022-05-23 14:58:19</time>
      </trkpt>
      <trkpt lat="41.8893" lon="0.76743">
        <ele>675.8</ele>
        <time>2022-05-23 14:58:20</time>
      </trkpt>
      <trkpt lat="41.88928" lon="0.76745">
        <ele>676</ele>
        <time>2022-05-23 14:58:21</time>
      </trkpt>
      <trkpt lat="41.88927" lon="0.76747">
        <ele>676.2</ele>
        <time>2022-05-23 14:58:22</time>
      </trkpt>
      <trkpt lat="41.88925" lon="0.76748">
        <ele>676.2</ele>
        <time>2022-05-23 14:58:23</time>
      </trkpt>
      <trkpt lat="41.88923" lon="0.7675">
        <ele>676.2</ele>
        <time>2022-05-23 14:58:24</time>
      </trkpt>
      <trkpt lat="41.88922" lon="0.76752">
        <ele>676.4</ele>
        <time>2022-05-23 14:58:25</time>
      </trkpt>
      <trkpt lat="41.8892" lon="0.76753">
        <ele>676.6</ele>
        <time>2022-05-23 14:58:26</time>
      </trkpt>
      <trkpt lat="41.88918" lon="0.76754">
        <ele>676.6</ele>
        <time>2022-05-23 14:58:27</time>
      </trkpt>
      <trkpt lat="41.88916" lon="0.76756">
        <ele>676.8</ele>
        <time>2022-05-23 14:58:28</time>
      </trkpt>
      <trkpt lat="41.88914" lon="0.76757">
        <ele>676.8</ele>
        <time>2022-05-23 14:58:29</time>
      </trkpt>
      <trkpt lat="41.88913" lon="0.76759">
        <ele>677</ele>
        <time>2022-05-23 14:58:30</time>
      </trkpt>
      <trkpt lat="41.88911" lon="0.76761">
        <ele>677</ele>
        <time>2022-05-23 14:58:31</time>
      </trkpt>
      <trkpt lat="41.88909" lon="0.76762">
        <ele>677.2</ele>
        <time>2022-05-23 14:58:32</time>
      </trkpt>
      <trkpt lat="41.88907" lon="0.76764">
        <ele>677.4</ele>
        <time>2022-05-23 14:58:33</time>
      </trkpt>
      <trkpt lat="41.88905" lon="0.76765">
        <ele>677.4</ele>
        <time>2022-05-23 14:58:34</time>
      </trkpt>
      <trkpt lat="41.88904" lon="0.76767">
        <ele>677.6</ele>
        <time>2022-05-23 14:58:35</time>
      </trkpt>
      <trkpt lat="41.88902" lon="0.76769">
        <ele>677.8</ele>
        <time>2022-05-23 14:58:36</time>
      </trkpt>
      <trkpt lat="41.889" lon="0.76771">
        <ele>678</ele>
        <time>2022-05-23 14:58:37</time>
      </trkpt>
      <trkpt lat="41.88898" lon="0.76772">
        <ele>678</ele>
        <time>2022-05-23 14:58:38</time>
      </trkpt>
      <trkpt lat="41.88897" lon="0.76774">
        <ele>678.2</ele>
        <time>2022-05-23 14:58:39</time>
      </trkpt>
      <trkpt lat="41.88895" lon="0.76776">
        <ele>678.2</ele>
        <time>2022-05-23 14:58:40</time>
      </trkpt>
      <trkpt lat="41.88892" lon="0.76778">
        <ele>678.4</ele>
        <time>2022-05-23 14:58:41</time>
      </trkpt>
      <trkpt lat="41.8889" lon="0.7678">
        <ele>678.4</ele>
        <time>2022-05-23 14:58:42</time>
      </trkpt>
      <trkpt lat="41.88888" lon="0.76782">
        <ele>678.6</ele>
        <time>2022-05-23 14:58:43</time>
      </trkpt>
      <trkpt lat="41.88885" lon="0.76784">
        <ele>678.6</ele>
        <time>2022-05-23 14:58:44</time>
      </trkpt>
      <trkpt lat="41.88883" lon="0.76786">
        <ele>678.8</ele>
        <time>2022-05-23 14:58:45</time>
      </trkpt>
      <trkpt lat="41.88881" lon="0.76789">
        <ele>678.8</ele>
        <time>2022-05-23 14:58:46</time>
      </trkpt>
      <trkpt lat="41.88879" lon="0.76791">
        <ele>679</ele>
        <time>2022-05-23 14:58:47</time>
      </trkpt>
      <trkpt lat="41.88877" lon="0.76793">
        <ele>679</ele>
        <time>2022-05-23 14:58:48</time>
      </trkpt>
      <trkpt lat="41.88874" lon="0.76795">
        <ele>679</ele>
        <time>2022-05-23 14:58:49</time>
      </trkpt>
      <trkpt lat="41.88872" lon="0.76798">
        <ele>679.2</ele>
        <time>2022-05-23 14:58:50</time>
      </trkpt>
      <trkpt lat="41.8887" lon="0.768">
        <ele>679.2</ele>
        <time>2022-05-23 14:58:51</time>
      </trkpt>
      <trkpt lat="41.88867" lon="0.76801">
        <ele>679.4</ele>
        <time>2022-05-23 14:58:52</time>
      </trkpt>
      <trkpt lat="41.88865" lon="0.76803">
        <ele>679.4</ele>
        <time>2022-05-23 14:58:53</time>
      </trkpt>
      <trkpt lat="41.88863" lon="0.76805">
        <ele>679.6</ele>
        <time>2022-05-23 14:58:54</time>
      </trkpt>
      <trkpt lat="41.88861" lon="0.76807">
        <ele>679.6</ele>
        <time>2022-05-23 14:58:55</time>
      </trkpt>
      <trkpt lat="41.88858" lon="0.7681">
        <ele>679.8</ele>
        <time>2022-05-23 14:58:56</time>
      </trkpt>
      <trkpt lat="41.88856" lon="0.76812">
        <ele>680</ele>
        <time>2022-05-23 14:58:57</time>
      </trkpt>
      <trkpt lat="41.88854" lon="0.76814">
        <ele>680</ele>
        <time>2022-05-23 14:58:58</time>
      </trkpt>
      <trkpt lat="41.88852" lon="0.76816">
        <ele>680.2</ele>
        <time>2022-05-23 14:58:59</time>
      </trkpt>
      <trkpt lat="41.88849" lon="0.76818">
        <ele>680.2</ele>
        <time>2022-05-23 14:59:00</time>
      </trkpt>
      <trkpt lat="41.88847" lon="0.7682">
        <ele>680.4</ele>
        <time>2022-05-23 14:59:01</time>
      </trkpt>
      <trkpt lat="41.88845" lon="0.76822">
        <ele>680.4</ele>
        <time>2022-05-23 14:59:02</time>
      </trkpt>
      <trkpt lat="41.88842" lon="0.76824">
        <ele>680.6</ele>
        <time>2022-05-23 14:59:03</time>
      </trkpt>
      <trkpt lat="41.8884" lon="0.76826">
        <ele>680.6</ele>
        <time>2022-05-23 14:59:04</time>
      </trkpt>
      <trkpt lat="41.88838" lon="0.76828">
        <ele>680.8</ele>
        <time>2022-05-23 14:59:05</time>
      </trkpt>
      <trkpt lat="41.88835" lon="0.76831">
        <ele>680.8</ele>
        <time>2022-05-23 14:59:06</time>
      </trkpt>
      <trkpt lat="41.88832" lon="0.76833">
        <ele>680.8</ele>
        <time>2022-05-23 14:59:07</time>
      </trkpt>
      <trkpt lat="41.8883" lon="0.76836">
        <ele>681</ele>
        <time>2022-05-23 14:59:08</time>
      </trkpt>
      <trkpt lat="41.88826" lon="0.76839">
        <ele>681</ele>
        <time>2022-05-23 14:59:09</time>
      </trkpt>
      <trkpt lat="41.88824" lon="0.76841">
        <ele>681</ele>
        <time>2022-05-23 14:59:10</time>
      </trkpt>
      <trkpt lat="41.88821" lon="0.76843">
        <ele>681</ele>
        <time>2022-05-23 14:59:11</time>
      </trkpt>
      <trkpt lat="41.88817" lon="0.76847">
        <ele>681</ele>
        <time>2022-05-23 14:59:12</time>
      </trkpt>
      <trkpt lat="41.88814" lon="0.7685">
        <ele>680.8</ele>
        <time>2022-05-23 14:59:13</time>
      </trkpt>
      <trkpt lat="41.8881" lon="0.76854">
        <ele>680.8</ele>
        <time>2022-05-23 14:59:14</time>
      </trkpt>
      <trkpt lat="41.88806" lon="0.76858">
        <ele>680.6</ele>
        <time>2022-05-23 14:59:15</time>
      </trkpt>
      <trkpt lat="41.88803" lon="0.76862">
        <ele>680.4</ele>
        <time>2022-05-23 14:59:16</time>
      </trkpt>
      <trkpt lat="41.88798" lon="0.76866">
        <ele>680.2</ele>
        <time>2022-05-23 14:59:17</time>
      </trkpt>
      <trkpt lat="41.88794" lon="0.76869">
        <ele>680</ele>
        <time>2022-05-23 14:59:18</time>
      </trkpt>
      <trkpt lat="41.88789" lon="0.76873">
        <ele>679.6</ele>
        <time>2022-05-23 14:59:19</time>
      </trkpt>
      <trkpt lat="41.88784" lon="0.76877">
        <ele>679.4</ele>
        <time>2022-05-23 14:59:20</time>
      </trkpt>
      <trkpt lat="41.88778" lon="0.76881">
        <ele>679.2</ele>
        <time>2022-05-23 14:59:21</time>
      </trkpt>
      <trkpt lat="41.88773" lon="0.76885">
        <ele>679</ele>
        <time>2022-05-23 14:59:22</time>
      </trkpt>
      <trkpt lat="41.88767" lon="0.76889">
        <ele>678.8</ele>
        <time>2022-05-23 14:59:23</time>
      </trkpt>
      <trkpt lat="41.88762" lon="0.76893">
        <ele>678.6</ele>
        <time>2022-05-23 14:59:24</time>
      </trkpt>
      <trkpt lat="41.88756" lon="0.76896">
        <ele>678.2</ele>
        <time>2022-05-23 14:59:25</time>
      </trkpt>
      <trkpt lat="41.8875" lon="0.76899">
        <ele>677.8</ele>
        <time>2022-05-23 14:59:26</time>
      </trkpt>
      <trkpt lat="41.88744" lon="0.76903">
        <ele>677.6</ele>
        <time>2022-05-23 14:59:27</time>
      </trkpt>
      <trkpt lat="41.88739" lon="0.76906">
        <ele>677.2</ele>
        <time>2022-05-23 14:59:28</time>
      </trkpt>
      <trkpt lat="41.88733" lon="0.7691">
        <ele>677</ele>
        <time>2022-05-23 14:59:29</time>
      </trkpt>
      <trkpt lat="41.88727" lon="0.76914">
        <ele>676.6</ele>
        <time>2022-05-23 14:59:30</time>
      </trkpt>
      <trkpt lat="41.88721" lon="0.76917">
        <ele>676.4</ele>
        <time>2022-05-23 14:59:31</time>
      </trkpt>
      <trkpt lat="41.88715" lon="0.76921">
        <ele>676.2</ele>
        <time>2022-05-23 14:59:32</time>
      </trkpt>
      <trkpt lat="41.88709" lon="0.76924">
        <ele>676</ele>
        <time>2022-05-23 14:59:33</time>
      </trkpt>
      <trkpt lat="41.88703" lon="0.76928">
        <ele>675.8</ele>
        <time>2022-05-23 14:59:34</time>
      </trkpt>
      <trkpt lat="41.88696" lon="0.76932">
        <ele>675.4</ele>
        <time>2022-05-23 14:59:35</time>
      </trkpt>
      <trkpt lat="41.88691" lon="0.76934">
        <ele>674.8</ele>
        <time>2022-05-23 14:59:36</time>
      </trkpt>
      <trkpt lat="41.88683" lon="0.7694">
        <ele>674.4</ele>
        <time>2022-05-23 14:59:37</time>
      </trkpt>
      <trkpt lat="41.88677" lon="0.76944">
        <ele>674</ele>
        <time>2022-05-23 14:59:38</time>
      </trkpt>
      <trkpt lat="41.8867" lon="0.7695">
        <ele>673.4</ele>
        <time>2022-05-23 14:59:39</time>
      </trkpt>
      <trkpt lat="41.88664" lon="0.76955">
        <ele>673</ele>
        <time>2022-05-23 14:59:40</time>
      </trkpt>
      <trkpt lat="41.88657" lon="0.76961">
        <ele>672.6</ele>
        <time>2022-05-23 14:59:41</time>
      </trkpt>
      <trkpt lat="41.88652" lon="0.76966">
        <ele>672.4</ele>
        <time>2022-05-23 14:59:42</time>
      </trkpt>
      <trkpt lat="41.88644" lon="0.76972">
        <ele>672.2</ele>
        <time>2022-05-23 14:59:43</time>
      </trkpt>
      <trkpt lat="41.88638" lon="0.76977">
        <ele>672</ele>
        <time>2022-05-23 14:59:44</time>
      </trkpt>
      <trkpt lat="41.88632" lon="0.76983">
        <ele>671.8</ele>
        <time>2022-05-23 14:59:45</time>
      </trkpt>
      <trkpt lat="41.88626" lon="0.76988">
        <ele>671.6</ele>
        <time>2022-05-23 14:59:46</time>
      </trkpt>
      <trkpt lat="41.8862" lon="0.76993">
        <ele>671.4</ele>
        <time>2022-05-23 14:59:47</time>
      </trkpt>
      <trkpt lat="41.88614" lon="0.76997">
        <ele>671.2</ele>
        <time>2022-05-23 14:59:48</time>
      </trkpt>
      <trkpt lat="41.88606" lon="0.77001">
        <ele>670.8</ele>
        <time>2022-05-23 14:59:49</time>
      </trkpt>
      <trkpt lat="41.886" lon="0.77003">
        <ele>670.6</ele>
        <time>2022-05-23 14:59:50</time>
      </trkpt>
      <trkpt lat="41.88591" lon="0.77004">
        <ele>670.6</ele>
        <time>2022-05-23 14:59:51</time>
      </trkpt>
      <trkpt lat="41.88584" lon="0.77004">
        <ele>670.2</ele>
        <time>2022-05-23 14:59:52</time>
      </trkpt>
      <trkpt lat="41.88575" lon="0.77004">
        <ele>669.8</ele>
        <time>2022-05-23 14:59:53</time>
      </trkpt>
      <trkpt lat="41.88568" lon="0.77004">
        <ele>669.6</ele>
        <time>2022-05-23 14:59:54</time>
      </trkpt>
      <trkpt lat="41.8856" lon="0.77006">
        <ele>669.4</ele>
        <time>2022-05-23 14:59:55</time>
      </trkpt>
      <trkpt lat="41.88553" lon="0.77008">
        <ele>669.4</ele>
        <time>2022-05-23 14:59:56</time>
      </trkpt>
      <trkpt lat="41.88546" lon="0.77013">
        <ele>669.2</ele>
        <time>2022-05-23 14:59:57</time>
      </trkpt>
      <trkpt lat="41.8854" lon="0.77019">
        <ele>669</ele>
        <time>2022-05-23 14:59:58</time>
      </trkpt>
      <trkpt lat="41.88535" lon="0.77026">
        <ele>669</ele>
        <time>2022-05-23 14:59:59</time>
      </trkpt>
      <trkpt lat="41.88531" lon="0.77034">
        <ele>669.2</ele>
        <time>2022-05-23 15:00:00</time>
      </trkpt>
      <trkpt lat="41.88527" lon="0.77041">
        <ele>669</ele>
        <time>2022-05-23 15:00:01</time>
      </trkpt>
      <trkpt lat="41.88523" lon="0.77048">
        <ele>669</ele>
        <time>2022-05-23 15:00:02</time>
      </trkpt>
      <trkpt lat="41.88518" lon="0.77055">
        <ele>668.8</ele>
        <time>2022-05-23 15:00:03</time>
      </trkpt>
      <trkpt lat="41.88513" lon="0.77061">
        <ele>668.6</ele>
        <time>2022-05-23 15:00:04</time>
      </trkpt>
      <trkpt lat="41.88506" lon="0.77066">
        <ele>668.4</ele>
        <time>2022-05-23 15:00:05</time>
      </trkpt>
      <trkpt lat="41.88501" lon="0.7707">
        <ele>668.2</ele>
        <time>2022-05-23 15:00:06</time>
      </trkpt>
      <trkpt lat="41.88493" lon="0.77075">
        <ele>668</ele>
        <time>2022-05-23 15:00:07</time>
      </trkpt>
      <trkpt lat="41.88487" lon="0.77079">
        <ele>667.8</ele>
        <time>2022-05-23 15:00:08</time>
      </trkpt>
      <trkpt lat="41.8848" lon="0.77083">
        <ele>667.4</ele>
        <time>2022-05-23 15:00:09</time>
      </trkpt>
      <trkpt lat="41.88474" lon="0.77087">
        <ele>667.2</ele>
        <time>2022-05-23 15:00:10</time>
      </trkpt>
      <trkpt lat="41.88467" lon="0.77092">
        <ele>666.8</ele>
        <time>2022-05-23 15:00:11</time>
      </trkpt>
      <trkpt lat="41.8846" lon="0.77095">
        <ele>666.4</ele>
        <time>2022-05-23 15:00:12</time>
      </trkpt>
      <trkpt lat="41.88454" lon="0.77099">
        <ele>666</ele>
        <time>2022-05-23 15:00:13</time>
      </trkpt>
      <trkpt lat="41.88446" lon="0.77103">
        <ele>665.6</ele>
        <time>2022-05-23 15:00:14</time>
      </trkpt>
      <trkpt lat="41.88439" lon="0.77106">
        <ele>665.4</ele>
        <time>2022-05-23 15:00:15</time>
      </trkpt>
      <trkpt lat="41.88431" lon="0.77109">
        <ele>665</ele>
        <time>2022-05-23 15:00:16</time>
      </trkpt>
      <trkpt lat="41.88424" lon="0.77111">
        <ele>664.2</ele>
        <time>2022-05-23 15:00:17</time>
      </trkpt>
      <trkpt lat="41.88417" lon="0.77114">
        <ele>663.8</ele>
        <time>2022-05-23 15:00:18</time>
      </trkpt>
      <trkpt lat="41.88409" lon="0.77117">
        <ele>663.6</ele>
        <time>2022-05-23 15:00:19</time>
      </trkpt>
      <trkpt lat="41.88402" lon="0.77119">
        <ele>663.6</ele>
        <time>2022-05-23 15:00:20</time>
      </trkpt>
      <trkpt lat="41.88395" lon="0.77122">
        <ele>663.2</ele>
        <time>2022-05-23 15:00:21</time>
      </trkpt>
      <trkpt lat="41.88389" lon="0.77125">
        <ele>663</ele>
        <time>2022-05-23 15:00:22</time>
      </trkpt>
      <trkpt lat="41.88382" lon="0.77127">
        <ele>662.8</ele>
        <time>2022-05-23 15:00:23</time>
      </trkpt>
      <trkpt lat="41.88375" lon="0.77129">
        <ele>662.4</ele>
        <time>2022-05-23 15:00:24</time>
      </trkpt>
      <trkpt lat="41.88368" lon="0.77132">
        <ele>662.2</ele>
        <time>2022-05-23 15:00:25</time>
      </trkpt>
      <trkpt lat="41.88362" lon="0.77134">
        <ele>662.4</ele>
        <time>2022-05-23 15:00:26</time>
      </trkpt>
      <trkpt lat="41.88356" lon="0.77137">
        <ele>662.6</ele>
        <time>2022-05-23 15:00:27</time>
      </trkpt>
      <trkpt lat="41.8835" lon="0.7714">
        <ele>662.4</ele>
        <time>2022-05-23 15:00:28</time>
      </trkpt>
      <trkpt lat="41.88344" lon="0.77143">
        <ele>662.4</ele>
        <time>2022-05-23 15:00:29</time>
      </trkpt>
      <trkpt lat="41.88338" lon="0.77146">
        <ele>662.6</ele>
        <time>2022-05-23 15:00:30</time>
      </trkpt>
      <trkpt lat="41.88332" lon="0.77149">
        <ele>662.6</ele>
        <time>2022-05-23 15:00:31</time>
      </trkpt>
      <trkpt lat="41.88327" lon="0.77152">
        <ele>662.8</ele>
        <time>2022-05-23 15:00:32</time>
      </trkpt>
      <trkpt lat="41.88321" lon="0.77155">
        <ele>663</ele>
        <time>2022-05-23 15:00:33</time>
      </trkpt>
      <trkpt lat="41.88316" lon="0.77158">
        <ele>663</ele>
        <time>2022-05-23 15:00:34</time>
      </trkpt>
      <trkpt lat="41.8831" lon="0.77162">
        <ele>663</ele>
        <time>2022-05-23 15:00:35</time>
      </trkpt>
      <trkpt lat="41.88305" lon="0.77165">
        <ele>662.8</ele>
        <time>2022-05-23 15:00:36</time>
      </trkpt>
      <trkpt lat="41.88299" lon="0.77168">
        <ele>662.8</ele>
        <time>2022-05-23 15:00:37</time>
      </trkpt>
      <trkpt lat="41.88294" lon="0.77171">
        <ele>663</ele>
        <time>2022-05-23 15:00:38</time>
      </trkpt>
      <trkpt lat="41.88289" lon="0.77174">
        <ele>663</ele>
        <time>2022-05-23 15:00:39</time>
      </trkpt>
      <trkpt lat="41.88284" lon="0.77177">
        <ele>663.2</ele>
        <time>2022-05-23 15:00:40</time>
      </trkpt>
      <trkpt lat="41.88278" lon="0.7718">
        <ele>663.2</ele>
        <time>2022-05-23 15:00:41</time>
      </trkpt>
      <trkpt lat="41.88273" lon="0.77183">
        <ele>663.2</ele>
        <time>2022-05-23 15:00:42</time>
      </trkpt>
      <trkpt lat="41.88268" lon="0.77186">
        <ele>663.4</ele>
        <time>2022-05-23 15:00:43</time>
      </trkpt>
      <trkpt lat="41.88264" lon="0.77189">
        <ele>663.6</ele>
        <time>2022-05-23 15:00:44</time>
      </trkpt>
      <trkpt lat="41.88258" lon="0.77192">
        <ele>663.8</ele>
        <time>2022-05-23 15:00:45</time>
      </trkpt>
      <trkpt lat="41.88254" lon="0.77194">
        <ele>664</ele>
        <time>2022-05-23 15:00:46</time>
      </trkpt>
      <trkpt lat="41.88249" lon="0.77197">
        <ele>664</ele>
        <time>2022-05-23 15:00:47</time>
      </trkpt>
      <trkpt lat="41.88244" lon="0.772">
        <ele>664.2</ele>
        <time>2022-05-23 15:00:48</time>
      </trkpt>
      <trkpt lat="41.88239" lon="0.77202">
        <ele>664.4</ele>
        <time>2022-05-23 15:00:49</time>
      </trkpt>
      <trkpt lat="41.88234" lon="0.77205">
        <ele>664.4</ele>
        <time>2022-05-23 15:00:50</time>
      </trkpt>
      <trkpt lat="41.8823" lon="0.77207">
        <ele>664.6</ele>
        <time>2022-05-23 15:00:51</time>
      </trkpt>
      <trkpt lat="41.88225" lon="0.7721">
        <ele>664.8</ele>
        <time>2022-05-23 15:00:52</time>
      </trkpt>
      <trkpt lat="41.8822" lon="0.77213">
        <ele>665</ele>
        <time>2022-05-23 15:00:53</time>
      </trkpt>
      <trkpt lat="41.88216" lon="0.77215">
        <ele>665</ele>
        <time>2022-05-23 15:00:54</time>
      </trkpt>
      <trkpt lat="41.88212" lon="0.77218">
        <ele>665.2</ele>
        <time>2022-05-23 15:00:55</time>
      </trkpt>
      <trkpt lat="41.88208" lon="0.7722">
        <ele>665.4</ele>
        <time>2022-05-23 15:00:56</time>
      </trkpt>
      <trkpt lat="41.88203" lon="0.77223">
        <ele>665.4</ele>
        <time>2022-05-23 15:00:57</time>
      </trkpt>
      <trkpt lat="41.882" lon="0.77225">
        <ele>665.6</ele>
        <time>2022-05-23 15:00:58</time>
      </trkpt>
      <trkpt lat="41.88195" lon="0.77229">
        <ele>665.8</ele>
        <time>2022-05-23 15:00:59</time>
      </trkpt>
      <trkpt lat="41.88191" lon="0.77232">
        <ele>666</ele>
        <time>2022-05-23 15:01:00</time>
      </trkpt>
      <trkpt lat="41.88186" lon="0.77235">
        <ele>666</ele>
        <time>2022-05-23 15:01:01</time>
      </trkpt>
      <trkpt lat="41.88182" lon="0.77237">
        <ele>666</ele>
        <time>2022-05-23 15:01:02</time>
      </trkpt>
      <trkpt lat="41.88178" lon="0.7724">
        <ele>666</ele>
        <time>2022-05-23 15:01:03</time>
      </trkpt>
      <trkpt lat="41.88174" lon="0.77243">
        <ele>666.2</ele>
        <time>2022-05-23 15:01:04</time>
      </trkpt>
      <trkpt lat="41.88171" lon="0.77247">
        <ele>666.4</ele>
        <time>2022-05-23 15:01:05</time>
      </trkpt>
      <trkpt lat="41.88168" lon="0.7725">
        <ele>666.8</ele>
        <time>2022-05-23 15:01:06</time>
      </trkpt>
      <trkpt lat="41.88164" lon="0.77253">
        <ele>666.8</ele>
        <time>2022-05-23 15:01:07</time>
      </trkpt>
      <trkpt lat="41.88162" lon="0.77257">
        <ele>667</ele>
        <time>2022-05-23 15:01:08</time>
      </trkpt>
      <trkpt lat="41.88159" lon="0.7726">
        <ele>667.2</ele>
        <time>2022-05-23 15:01:09</time>
      </trkpt>
      <trkpt lat="41.88157" lon="0.77263">
        <ele>667.4</ele>
        <time>2022-05-23 15:01:10</time>
      </trkpt>
      <trkpt lat="41.88155" lon="0.77267">
        <ele>667.6</ele>
        <time>2022-05-23 15:01:11</time>
      </trkpt>
      <trkpt lat="41.88153" lon="0.7727">
        <ele>668</ele>
        <time>2022-05-23 15:01:12</time>
      </trkpt>
      <trkpt lat="41.88151" lon="0.77274">
        <ele>668.2</ele>
        <time>2022-05-23 15:01:13</time>
      </trkpt>
      <trkpt lat="41.8815" lon="0.77278">
        <ele>668.6</ele>
        <time>2022-05-23 15:01:14</time>
      </trkpt>
      <trkpt lat="41.88148" lon="0.77282">
        <ele>669</ele>
        <time>2022-05-23 15:01:15</time>
      </trkpt>
      <trkpt lat="41.88146" lon="0.77286">
        <ele>669.2</ele>
        <time>2022-05-23 15:01:16</time>
      </trkpt>
      <trkpt lat="41.88145" lon="0.77289">
        <ele>669.4</ele>
        <time>2022-05-23 15:01:17</time>
      </trkpt>
      <trkpt lat="41.88143" lon="0.77293">
        <ele>669.6</ele>
        <time>2022-05-23 15:01:18</time>
      </trkpt>
      <trkpt lat="41.88141" lon="0.77297">
        <ele>669.8</ele>
        <time>2022-05-23 15:01:19</time>
      </trkpt>
      <trkpt lat="41.88139" lon="0.773">
        <ele>669.8</ele>
        <time>2022-05-23 15:01:20</time>
      </trkpt>
      <trkpt lat="41.88137" lon="0.77304">
        <ele>670</ele>
        <time>2022-05-23 15:01:21</time>
      </trkpt>
      <trkpt lat="41.88136" lon="0.77308">
        <ele>670.2</ele>
        <time>2022-05-23 15:01:22</time>
      </trkpt>
      <trkpt lat="41.88134" lon="0.77311">
        <ele>670.4</ele>
        <time>2022-05-23 15:01:23</time>
      </trkpt>
      <trkpt lat="41.88132" lon="0.77315">
        <ele>670.4</ele>
        <time>2022-05-23 15:01:24</time>
      </trkpt>
      <trkpt lat="41.88131" lon="0.77318">
        <ele>670.6</ele>
        <time>2022-05-23 15:01:25</time>
      </trkpt>
      <trkpt lat="41.88129" lon="0.77321">
        <ele>670.6</ele>
        <time>2022-05-23 15:01:26</time>
      </trkpt>
      <trkpt lat="41.88127" lon="0.77325">
        <ele>670.6</ele>
        <time>2022-05-23 15:01:27</time>
      </trkpt>
      <trkpt lat="41.88125" lon="0.77328">
        <ele>670.6</ele>
        <time>2022-05-23 15:01:28</time>
      </trkpt>
      <trkpt lat="41.88124" lon="0.77331">
        <ele>670.8</ele>
        <time>2022-05-23 15:01:29</time>
      </trkpt>
      <trkpt lat="41.88122" lon="0.77334">
        <ele>670.8</ele>
        <time>2022-05-23 15:01:30</time>
      </trkpt>
      <trkpt lat="41.8812" lon="0.77337">
        <ele>670.8</ele>
        <time>2022-05-23 15:01:31</time>
      </trkpt>
      <trkpt lat="41.88118" lon="0.7734">
        <ele>671</ele>
        <time>2022-05-23 15:01:32</time>
      </trkpt>
      <trkpt lat="41.88117" lon="0.77343">
        <ele>671</ele>
        <time>2022-05-23 15:01:33</time>
      </trkpt>
      <trkpt lat="41.88116" lon="0.77346">
        <ele>671</ele>
        <time>2022-05-23 15:01:34</time>
      </trkpt>
      <trkpt lat="41.88114" lon="0.77349">
        <ele>671.2</ele>
        <time>2022-05-23 15:01:35</time>
      </trkpt>
      <trkpt lat="41.88113" lon="0.77353">
        <ele>671.2</ele>
        <time>2022-05-23 15:01:36</time>
      </trkpt>
      <trkpt lat="41.88111" lon="0.77356">
        <ele>671.2</ele>
        <time>2022-05-23 15:01:37</time>
      </trkpt>
      <trkpt lat="41.8811" lon="0.77359">
        <ele>671.2</ele>
        <time>2022-05-23 15:01:38</time>
      </trkpt>
      <trkpt lat="41.88108" lon="0.77362">
        <ele>671.2</ele>
        <time>2022-05-23 15:01:39</time>
      </trkpt>
      <trkpt lat="41.88106" lon="0.77365">
        <ele>671.2</ele>
        <time>2022-05-23 15:01:40</time>
      </trkpt>
      <trkpt lat="41.88104" lon="0.77369">
        <ele>671.4</ele>
        <time>2022-05-23 15:01:41</time>
      </trkpt>
      <trkpt lat="41.88102" lon="0.77372">
        <ele>671.6</ele>
        <time>2022-05-23 15:01:42</time>
      </trkpt>
      <trkpt lat="41.881" lon="0.77376">
        <ele>671.8</ele>
        <time>2022-05-23 15:01:43</time>
      </trkpt>
      <trkpt lat="41.88098" lon="0.77379">
        <ele>671.8</ele>
        <time>2022-05-23 15:01:44</time>
      </trkpt>
      <trkpt lat="41.88097" lon="0.77383">
        <ele>671.8</ele>
        <time>2022-05-23 15:01:45</time>
      </trkpt>
      <trkpt lat="41.88095" lon="0.77387">
        <ele>671.8</ele>
        <time>2022-05-23 15:01:46</time>
      </trkpt>
      <trkpt lat="41.88093" lon="0.7739">
        <ele>672</ele>
        <time>2022-05-23 15:01:47</time>
      </trkpt>
      <trkpt lat="41.8809" lon="0.77394">
        <ele>672</ele>
        <time>2022-05-23 15:01:48</time>
      </trkpt>
      <trkpt lat="41.88089" lon="0.77398">
        <ele>672.2</ele>
        <time>2022-05-23 15:01:49</time>
      </trkpt>
      <trkpt lat="41.88087" lon="0.77401">
        <ele>672.2</ele>
        <time>2022-05-23 15:01:50</time>
      </trkpt>
      <trkpt lat="41.88085" lon="0.77405">
        <ele>672.4</ele>
        <time>2022-05-23 15:01:51</time>
      </trkpt>
      <trkpt lat="41.88083" lon="0.77409">
        <ele>672.2</ele>
        <time>2022-05-23 15:01:52</time>
      </trkpt>
      <trkpt lat="41.88082" lon="0.77412">
        <ele>672.2</ele>
        <time>2022-05-23 15:01:53</time>
      </trkpt>
      <trkpt lat="41.8808" lon="0.77415">
        <ele>672.2</ele>
        <time>2022-05-23 15:01:54</time>
      </trkpt>
      <trkpt lat="41.88079" lon="0.77419">
        <ele>672</ele>
        <time>2022-05-23 15:01:55</time>
      </trkpt>
      <trkpt lat="41.88077" lon="0.77422">
        <ele>672.2</ele>
        <time>2022-05-23 15:01:56</time>
      </trkpt>
      <trkpt lat="41.88075" lon="0.77425">
        <ele>672.2</ele>
        <time>2022-05-23 15:01:57</time>
      </trkpt>
      <trkpt lat="41.88073" lon="0.77428">
        <ele>672.2</ele>
        <time>2022-05-23 15:01:58</time>
      </trkpt>
      <trkpt lat="41.88071" lon="0.77431">
        <ele>672.2</ele>
        <time>2022-05-23 15:01:59</time>
      </trkpt>
      <trkpt lat="41.88069" lon="0.77434">
        <ele>672.2</ele>
        <time>2022-05-23 15:02:00</time>
      </trkpt>
      <trkpt lat="41.88068" lon="0.77437">
        <ele>672.4</ele>
        <time>2022-05-23 15:02:01</time>
      </trkpt>
      <trkpt lat="41.88066" lon="0.7744">
        <ele>672.4</ele>
        <time>2022-05-23 15:02:02</time>
      </trkpt>
      <trkpt lat="41.88064" lon="0.77443">
        <ele>672.4</ele>
        <time>2022-05-23 15:02:03</time>
      </trkpt>
      <trkpt lat="41.88062" lon="0.77446">
        <ele>672.4</ele>
        <time>2022-05-23 15:02:04</time>
      </trkpt>
      <trkpt lat="41.8806" lon="0.77449">
        <ele>672.6</ele>
        <time>2022-05-23 15:02:05</time>
      </trkpt>
      <trkpt lat="41.88058" lon="0.77452">
        <ele>672.6</ele>
        <time>2022-05-23 15:02:06</time>
      </trkpt>
      <trkpt lat="41.88056" lon="0.77454">
        <ele>672.6</ele>
        <time>2022-05-23 15:02:07</time>
      </trkpt>
      <trkpt lat="41.88053" lon="0.77457">
        <ele>672.8</ele>
        <time>2022-05-23 15:02:08</time>
      </trkpt>
      <trkpt lat="41.88051" lon="0.77459">
        <ele>673</ele>
        <time>2022-05-23 15:02:09</time>
      </trkpt>
      <trkpt lat="41.88048" lon="0.77461">
        <ele>673</ele>
        <time>2022-05-23 15:02:10</time>
      </trkpt>
      <trkpt lat="41.88046" lon="0.77463">
        <ele>673.2</ele>
        <time>2022-05-23 15:02:11</time>
      </trkpt>
      <trkpt lat="41.88043" lon="0.77465">
        <ele>673.2</ele>
        <time>2022-05-23 15:02:12</time>
      </trkpt>
      <trkpt lat="41.88041" lon="0.77467">
        <ele>673.4</ele>
        <time>2022-05-23 15:02:13</time>
      </trkpt>
      <trkpt lat="41.88039" lon="0.7747">
        <ele>673.4</ele>
        <time>2022-05-23 15:02:14</time>
      </trkpt>
      <trkpt lat="41.88036" lon="0.77473">
        <ele>673.6</ele>
        <time>2022-05-23 15:02:15</time>
      </trkpt>
      <trkpt lat="41.88034" lon="0.77475">
        <ele>673.6</ele>
        <time>2022-05-23 15:02:16</time>
      </trkpt>
      <trkpt lat="41.88031" lon="0.77478">
        <ele>673.6</ele>
        <time>2022-05-23 15:02:17</time>
      </trkpt>
      <trkpt lat="41.88029" lon="0.77481">
        <ele>673.8</ele>
        <time>2022-05-23 15:02:18</time>
      </trkpt>
      <trkpt lat="41.88026" lon="0.77483">
        <ele>673.8</ele>
        <time>2022-05-23 15:02:19</time>
      </trkpt>
      <trkpt lat="41.88024" lon="0.77485">
        <ele>674.2</ele>
        <time>2022-05-23 15:02:20</time>
      </trkpt>
      <trkpt lat="41.88021" lon="0.77488">
        <ele>674.2</ele>
        <time>2022-05-23 15:02:21</time>
      </trkpt>
      <trkpt lat="41.88019" lon="0.7749">
        <ele>674.4</ele>
        <time>2022-05-23 15:02:22</time>
      </trkpt>
      <trkpt lat="41.88017" lon="0.77493">
        <ele>674.6</ele>
        <time>2022-05-23 15:02:23</time>
      </trkpt>
      <trkpt lat="41.88014" lon="0.77496">
        <ele>674.6</ele>
        <time>2022-05-23 15:02:24</time>
      </trkpt>
      <trkpt lat="41.88012" lon="0.77498">
        <ele>674.8</ele>
        <time>2022-05-23 15:02:25</time>
      </trkpt>
      <trkpt lat="41.8801" lon="0.775">
        <ele>674.8</ele>
        <time>2022-05-23 15:02:26</time>
      </trkpt>
      <trkpt lat="41.88008" lon="0.77502">
        <ele>675</ele>
        <time>2022-05-23 15:02:27</time>
      </trkpt>
      <trkpt lat="41.88006" lon="0.77504">
        <ele>675</ele>
        <time>2022-05-23 15:02:28</time>
      </trkpt>
      <trkpt lat="41.88004" lon="0.77506">
        <ele>675.2</ele>
        <time>2022-05-23 15:02:29</time>
      </trkpt>
      <trkpt lat="41.88002" lon="0.77508">
        <ele>675.4</ele>
        <time>2022-05-23 15:02:30</time>
      </trkpt>
      <trkpt lat="41.88" lon="0.7751">
        <ele>675.6</ele>
        <time>2022-05-23 15:02:31</time>
      </trkpt>
      <trkpt lat="41.87998" lon="0.77513">
        <ele>675.8</ele>
        <time>2022-05-23 15:02:32</time>
      </trkpt>
      <trkpt lat="41.87996" lon="0.77515">
        <ele>676</ele>
        <time>2022-05-23 15:02:33</time>
      </trkpt>
      <trkpt lat="41.87994" lon="0.77517">
        <ele>676.2</ele>
        <time>2022-05-23 15:02:34</time>
      </trkpt>
      <trkpt lat="41.87992" lon="0.77519">
        <ele>676.4</ele>
        <time>2022-05-23 15:02:35</time>
      </trkpt>
      <trkpt lat="41.8799" lon="0.77521">
        <ele>676.6</ele>
        <time>2022-05-23 15:02:36</time>
      </trkpt>
      <trkpt lat="41.87988" lon="0.77523">
        <ele>676.8</ele>
        <time>2022-05-23 15:02:37</time>
      </trkpt>
      <trkpt lat="41.87986" lon="0.77526">
        <ele>677</ele>
        <time>2022-05-23 15:02:38</time>
      </trkpt>
      <trkpt lat="41.87984" lon="0.77528">
        <ele>677.2</ele>
        <time>2022-05-23 15:02:39</time>
      </trkpt>
      <trkpt lat="41.87982" lon="0.7753">
        <ele>677.4</ele>
        <time>2022-05-23 15:02:40</time>
      </trkpt>
      <trkpt lat="41.8798" lon="0.77532">
        <ele>677.6</ele>
        <time>2022-05-23 15:02:41</time>
      </trkpt>
      <trkpt lat="41.87978" lon="0.77534">
        <ele>677.8</ele>
        <time>2022-05-23 15:02:42</time>
      </trkpt>
      <trkpt lat="41.87976" lon="0.77537">
        <ele>677.8</ele>
        <time>2022-05-23 15:02:43</time>
      </trkpt>
      <trkpt lat="41.87973" lon="0.77539">
        <ele>678</ele>
        <time>2022-05-23 15:02:44</time>
      </trkpt>
      <trkpt lat="41.87971" lon="0.77541">
        <ele>678.4</ele>
        <time>2022-05-23 15:02:45</time>
      </trkpt>
      <trkpt lat="41.87969" lon="0.77543">
        <ele>678.6</ele>
        <time>2022-05-23 15:02:46</time>
      </trkpt>
      <trkpt lat="41.87967" lon="0.77545">
        <ele>678.8</ele>
        <time>2022-05-23 15:02:47</time>
      </trkpt>
      <trkpt lat="41.87965" lon="0.77547">
        <ele>678.8</ele>
        <time>2022-05-23 15:02:48</time>
      </trkpt>
      <trkpt lat="41.87963" lon="0.77549">
        <ele>679</ele>
        <time>2022-05-23 15:02:49</time>
      </trkpt>
      <trkpt lat="41.87961" lon="0.77552">
        <ele>679.2</ele>
        <time>2022-05-23 15:02:50</time>
      </trkpt>
      <trkpt lat="41.87959" lon="0.77554">
        <ele>679.2</ele>
        <time>2022-05-23 15:02:51</time>
      </trkpt>
      <trkpt lat="41.87957" lon="0.77556">
        <ele>679.2</ele>
        <time>2022-05-23 15:02:52</time>
      </trkpt>
      <trkpt lat="41.87954" lon="0.77558">
        <ele>679.4</ele>
        <time>2022-05-23 15:02:53</time>
      </trkpt>
      <trkpt lat="41.87952" lon="0.7756">
        <ele>679.4</ele>
        <time>2022-05-23 15:02:54</time>
      </trkpt>
      <trkpt lat="41.87949" lon="0.77562">
        <ele>679.4</ele>
        <time>2022-05-23 15:02:55</time>
      </trkpt>
      <trkpt lat="41.87947" lon="0.77564">
        <ele>679.4</ele>
        <time>2022-05-23 15:02:56</time>
      </trkpt>
      <trkpt lat="41.87945" lon="0.77567">
        <ele>679.6</ele>
        <time>2022-05-23 15:02:57</time>
      </trkpt>
      <trkpt lat="41.87942" lon="0.77569">
        <ele>679.6</ele>
        <time>2022-05-23 15:02:58</time>
      </trkpt>
      <trkpt lat="41.87939" lon="0.77571">
        <ele>679.6</ele>
        <time>2022-05-23 15:02:59</time>
      </trkpt>
      <trkpt lat="41.87937" lon="0.77573">
        <ele>679.6</ele>
        <time>2022-05-23 15:03:00</time>
      </trkpt>
      <trkpt lat="41.87934" lon="0.77576">
        <ele>679.6</ele>
        <time>2022-05-23 15:03:01</time>
      </trkpt>
      <trkpt lat="41.87932" lon="0.77579">
        <ele>679.6</ele>
        <time>2022-05-23 15:03:02</time>
      </trkpt>
      <trkpt lat="41.87929" lon="0.77581">
        <ele>679.6</ele>
        <time>2022-05-23 15:03:03</time>
      </trkpt>
      <trkpt lat="41.87926" lon="0.77584">
        <ele>679.6</ele>
        <time>2022-05-23 15:03:04</time>
      </trkpt>
      <trkpt lat="41.87922" lon="0.77586">
        <ele>679.6</ele>
        <time>2022-05-23 15:03:05</time>
      </trkpt>
      <trkpt lat="41.87919" lon="0.77589">
        <ele>679.6</ele>
        <time>2022-05-23 15:03:06</time>
      </trkpt>
      <trkpt lat="41.87915" lon="0.77591">
        <ele>679.4</ele>
        <time>2022-05-23 15:03:07</time>
      </trkpt>
      <trkpt lat="41.87911" lon="0.77594">
        <ele>679.4</ele>
        <time>2022-05-23 15:03:08</time>
      </trkpt>
      <trkpt lat="41.87907" lon="0.77597">
        <ele>679.4</ele>
        <time>2022-05-23 15:03:09</time>
      </trkpt>
      <trkpt lat="41.87902" lon="0.77599">
        <ele>679.2</ele>
        <time>2022-05-23 15:03:10</time>
      </trkpt>
      <trkpt lat="41.87897" lon="0.77602">
        <ele>678.8</ele>
        <time>2022-05-23 15:03:11</time>
      </trkpt>
      <trkpt lat="41.87893" lon="0.77604">
        <ele>678.6</ele>
        <time>2022-05-23 15:03:12</time>
      </trkpt>
      <trkpt lat="41.87887" lon="0.77607">
        <ele>678.4</ele>
        <time>2022-05-23 15:03:13</time>
      </trkpt>
      <trkpt lat="41.87882" lon="0.77609">
        <ele>678.2</ele>
        <time>2022-05-23 15:03:14</time>
      </trkpt>
      <trkpt lat="41.87876" lon="0.77611">
        <ele>677.8</ele>
        <time>2022-05-23 15:03:15</time>
      </trkpt>
      <trkpt lat="41.8787" lon="0.77613">
        <ele>677.6</ele>
        <time>2022-05-23 15:03:16</time>
      </trkpt>
      <trkpt lat="41.87864" lon="0.77615">
        <ele>677.4</ele>
        <time>2022-05-23 15:03:17</time>
      </trkpt>
      <trkpt lat="41.87859" lon="0.77617">
        <ele>677.4</ele>
        <time>2022-05-23 15:03:18</time>
      </trkpt>
      <trkpt lat="41.87853" lon="0.7762">
        <ele>677.2</ele>
        <time>2022-05-23 15:03:19</time>
      </trkpt>
      <trkpt lat="41.87849" lon="0.77623">
        <ele>677.2</ele>
        <time>2022-05-23 15:03:20</time>
      </trkpt>
      <trkpt lat="41.87844" lon="0.77628">
        <ele>677.2</ele>
        <time>2022-05-23 15:03:21</time>
      </trkpt>
      <trkpt lat="41.8784" lon="0.77632">
        <ele>677</ele>
        <time>2022-05-23 15:03:22</time>
      </trkpt>
      <trkpt lat="41.87836" lon="0.77637">
        <ele>677</ele>
        <time>2022-05-23 15:03:23</time>
      </trkpt>
      <trkpt lat="41.87833" lon="0.77643">
        <ele>677</ele>
        <time>2022-05-23 15:03:24</time>
      </trkpt>
      <trkpt lat="41.8783" lon="0.77648">
        <ele>676.8</ele>
        <time>2022-05-23 15:03:25</time>
      </trkpt>
      <trkpt lat="41.87828" lon="0.77654">
        <ele>676.8</ele>
        <time>2022-05-23 15:03:26</time>
      </trkpt>
      <trkpt lat="41.87827" lon="0.7766">
        <ele>676.8</ele>
        <time>2022-05-23 15:03:27</time>
      </trkpt>
      <trkpt lat="41.87825" lon="0.77666">
        <ele>677</ele>
        <time>2022-05-23 15:03:28</time>
      </trkpt>
      <trkpt lat="41.87824" lon="0.77672">
        <ele>677</ele>
        <time>2022-05-23 15:03:29</time>
      </trkpt>
      <trkpt lat="41.87823" lon="0.77677">
        <ele>677</ele>
        <time>2022-05-23 15:03:30</time>
      </trkpt>
      <trkpt lat="41.87822" lon="0.77682">
        <ele>677.2</ele>
        <time>2022-05-23 15:03:31</time>
      </trkpt>
      <trkpt lat="41.8782" lon="0.77687">
        <ele>677.2</ele>
        <time>2022-05-23 15:03:32</time>
      </trkpt>
      <trkpt lat="41.87817" lon="0.77693">
        <ele>677.4</ele>
        <time>2022-05-23 15:03:33</time>
      </trkpt>
      <trkpt lat="41.87815" lon="0.77698">
        <ele>677.4</ele>
        <time>2022-05-23 15:03:34</time>
      </trkpt>
      <trkpt lat="41.87814" lon="0.77703">
        <ele>677.6</ele>
        <time>2022-05-23 15:03:35</time>
      </trkpt>
      <trkpt lat="41.87812" lon="0.77708">
        <ele>677.8</ele>
        <time>2022-05-23 15:03:36</time>
      </trkpt>
      <trkpt lat="41.8781" lon="0.77712">
        <ele>678</ele>
        <time>2022-05-23 15:03:37</time>
      </trkpt>
      <trkpt lat="41.87809" lon="0.77716">
        <ele>678</ele>
        <time>2022-05-23 15:03:38</time>
      </trkpt>
      <trkpt lat="41.87807" lon="0.77721">
        <ele>678.2</ele>
        <time>2022-05-23 15:03:39</time>
      </trkpt>
      <trkpt lat="41.87805" lon="0.77724">
        <ele>678.4</ele>
        <time>2022-05-23 15:03:40</time>
      </trkpt>
      <trkpt lat="41.87804" lon="0.77729">
        <ele>678.4</ele>
        <time>2022-05-23 15:03:41</time>
      </trkpt>
      <trkpt lat="41.87802" lon="0.77733">
        <ele>678.6</ele>
        <time>2022-05-23 15:03:42</time>
      </trkpt>
      <trkpt lat="41.878" lon="0.77737">
        <ele>678.8</ele>
        <time>2022-05-23 15:03:43</time>
      </trkpt>
      <trkpt lat="41.87798" lon="0.77741">
        <ele>678.8</ele>
        <time>2022-05-23 15:03:44</time>
      </trkpt>
      <trkpt lat="41.87796" lon="0.77745">
        <ele>679</ele>
        <time>2022-05-23 15:03:45</time>
      </trkpt>
      <trkpt lat="41.87794" lon="0.77749">
        <ele>679</ele>
        <time>2022-05-23 15:03:46</time>
      </trkpt>
      <trkpt lat="41.87793" lon="0.77753">
        <ele>679</ele>
        <time>2022-05-23 15:03:47</time>
      </trkpt>
      <trkpt lat="41.87791" lon="0.77757">
        <ele>679.2</ele>
        <time>2022-05-23 15:03:48</time>
      </trkpt>
      <trkpt lat="41.8779" lon="0.77761">
        <ele>679.2</ele>
        <time>2022-05-23 15:03:49</time>
      </trkpt>
      <trkpt lat="41.87788" lon="0.77764">
        <ele>679.4</ele>
        <time>2022-05-23 15:03:50</time>
      </trkpt>
      <trkpt lat="41.87787" lon="0.77768">
        <ele>679.6</ele>
        <time>2022-05-23 15:03:51</time>
      </trkpt>
      <trkpt lat="41.87786" lon="0.77772">
        <ele>679.8</ele>
        <time>2022-05-23 15:03:52</time>
      </trkpt>
      <trkpt lat="41.87785" lon="0.77776">
        <ele>679.8</ele>
        <time>2022-05-23 15:03:53</time>
      </trkpt>
      <trkpt lat="41.87783" lon="0.7778">
        <ele>680</ele>
        <time>2022-05-23 15:03:54</time>
      </trkpt>
      <trkpt lat="41.87781" lon="0.77784">
        <ele>680</ele>
        <time>2022-05-23 15:03:55</time>
      </trkpt>
      <trkpt lat="41.8778" lon="0.77788">
        <ele>680.2</ele>
        <time>2022-05-23 15:03:56</time>
      </trkpt>
      <trkpt lat="41.87778" lon="0.77793">
        <ele>680.2</ele>
        <time>2022-05-23 15:03:57</time>
      </trkpt>
      <trkpt lat="41.87776" lon="0.77797">
        <ele>680.4</ele>
        <time>2022-05-23 15:03:58</time>
      </trkpt>
      <trkpt lat="41.87774" lon="0.77802">
        <ele>680.6</ele>
        <time>2022-05-23 15:03:59</time>
      </trkpt>
      <trkpt lat="41.87772" lon="0.77806">
        <ele>680.6</ele>
        <time>2022-05-23 15:04:00</time>
      </trkpt>
      <trkpt lat="41.8777" lon="0.7781">
        <ele>680.6</ele>
        <time>2022-05-23 15:04:01</time>
      </trkpt>
      <trkpt lat="41.87767" lon="0.77814">
        <ele>680.6</ele>
        <time>2022-05-23 15:04:02</time>
      </trkpt>
      <trkpt lat="41.87764" lon="0.77819">
        <ele>680.6</ele>
        <time>2022-05-23 15:04:03</time>
      </trkpt>
      <trkpt lat="41.87762" lon="0.77823">
        <ele>680.4</ele>
        <time>2022-05-23 15:04:04</time>
      </trkpt>
      <trkpt lat="41.87759" lon="0.77828">
        <ele>680.4</ele>
        <time>2022-05-23 15:04:05</time>
      </trkpt>
      <trkpt lat="41.87757" lon="0.77833">
        <ele>680.4</ele>
        <time>2022-05-23 15:04:06</time>
      </trkpt>
      <trkpt lat="41.87755" lon="0.77838">
        <ele>680.2</ele>
        <time>2022-05-23 15:04:07</time>
      </trkpt>
      <trkpt lat="41.87752" lon="0.77842">
        <ele>680</ele>
        <time>2022-05-23 15:04:08</time>
      </trkpt>
      <trkpt lat="41.8775" lon="0.77847">
        <ele>680</ele>
        <time>2022-05-23 15:04:09</time>
      </trkpt>
      <trkpt lat="41.87748" lon="0.77851">
        <ele>680</ele>
        <time>2022-05-23 15:04:10</time>
      </trkpt>
      <trkpt lat="41.87746" lon="0.77855">
        <ele>680.2</ele>
        <time>2022-05-23 15:04:11</time>
      </trkpt>
      <trkpt lat="41.87744" lon="0.77858">
        <ele>680.2</ele>
        <time>2022-05-23 15:04:12</time>
      </trkpt>
      <trkpt lat="41.87742" lon="0.77861">
        <ele>680</ele>
        <time>2022-05-23 15:04:13</time>
      </trkpt>
      <trkpt lat="41.87739" lon="0.77864">
        <ele>679.8</ele>
        <time>2022-05-23 15:04:14</time>
      </trkpt>
      <trkpt lat="41.87734" lon="0.77866">
        <ele>679.4</ele>
        <time>2022-05-23 15:04:15</time>
      </trkpt>
      <trkpt lat="41.87729" lon="0.77866">
        <ele>679.2</ele>
        <time>2022-05-23 15:04:16</time>
      </trkpt>
      <trkpt lat="41.87725" lon="0.77865">
        <ele>678.8</ele>
        <time>2022-05-23 15:04:17</time>
      </trkpt>
      <trkpt lat="41.8772" lon="0.77863">
        <ele>678.4</ele>
        <time>2022-05-23 15:04:18</time>
      </trkpt>
      <trkpt lat="41.87714" lon="0.7786">
        <ele>678.2</ele>
        <time>2022-05-23 15:04:19</time>
      </trkpt>
      <trkpt lat="41.87709" lon="0.77857">
        <ele>677.8</ele>
        <time>2022-05-23 15:04:20</time>
      </trkpt>
      <trkpt lat="41.87702" lon="0.77855">
        <ele>677.4</ele>
        <time>2022-05-23 15:04:21</time>
      </trkpt>
      <trkpt lat="41.87697" lon="0.77852">
        <ele>677.4</ele>
        <time>2022-05-23 15:04:22</time>
      </trkpt>
      <trkpt lat="41.8769" lon="0.77849">
        <ele>677</ele>
        <time>2022-05-23 15:04:23</time>
      </trkpt>
      <trkpt lat="41.87683" lon="0.77847">
        <ele>676.8</ele>
        <time>2022-05-23 15:04:24</time>
      </trkpt>
      <trkpt lat="41.87677" lon="0.77844">
        <ele>676.6</ele>
        <time>2022-05-23 15:04:25</time>
      </trkpt>
      <trkpt lat="41.87671" lon="0.77841">
        <ele>676.4</ele>
        <time>2022-05-23 15:04:26</time>
      </trkpt>
      <trkpt lat="41.87663" lon="0.77837">
        <ele>676.2</ele>
        <time>2022-05-23 15:04:27</time>
      </trkpt>
      <trkpt lat="41.87657" lon="0.77834">
        <ele>676</ele>
        <time>2022-05-23 15:04:28</time>
      </trkpt>
      <trkpt lat="41.8765" lon="0.7783">
        <ele>675.8</ele>
        <time>2022-05-23 15:04:29</time>
      </trkpt>
      <trkpt lat="41.87644" lon="0.77826">
        <ele>675.6</ele>
        <time>2022-05-23 15:04:30</time>
      </trkpt>
      <trkpt lat="41.87636" lon="0.77823">
        <ele>675.2</ele>
        <time>2022-05-23 15:04:31</time>
      </trkpt>
      <trkpt lat="41.87629" lon="0.77819">
        <ele>674.8</ele>
        <time>2022-05-23 15:04:32</time>
      </trkpt>
      <trkpt lat="41.87622" lon="0.77816">
        <ele>674.6</ele>
        <time>2022-05-23 15:04:33</time>
      </trkpt>
      <trkpt lat="41.87615" lon="0.77813">
        <ele>674.4</ele>
        <time>2022-05-23 15:04:34</time>
      </trkpt>
      <trkpt lat="41.87608" lon="0.77809">
        <ele>674.2</ele>
        <time>2022-05-23 15:04:35</time>
      </trkpt>
      <trkpt lat="41.87601" lon="0.77806">
        <ele>673.8</ele>
        <time>2022-05-23 15:04:36</time>
      </trkpt>
      <trkpt lat="41.87593" lon="0.77802">
        <ele>673.8</ele>
        <time>2022-05-23 15:04:37</time>
      </trkpt>
      <trkpt lat="41.87586" lon="0.77799">
        <ele>673.6</ele>
        <time>2022-05-23 15:04:38</time>
      </trkpt>
      <trkpt lat="41.87579" lon="0.77797">
        <ele>673</ele>
        <time>2022-05-23 15:04:39</time>
      </trkpt>
      <trkpt lat="41.87571" lon="0.77795">
        <ele>672.8</ele>
        <time>2022-05-23 15:04:40</time>
      </trkpt>
      <trkpt lat="41.87563" lon="0.77793">
        <ele>672.4</ele>
        <time>2022-05-23 15:04:41</time>
      </trkpt>
      <trkpt lat="41.87555" lon="0.77791">
        <ele>672</ele>
        <time>2022-05-23 15:04:42</time>
      </trkpt>
      <trkpt lat="41.87547" lon="0.77788">
        <ele>671.8</ele>
        <time>2022-05-23 15:04:43</time>
      </trkpt>
      <trkpt lat="41.8754" lon="0.77786">
        <ele>671.6</ele>
        <time>2022-05-23 15:04:44</time>
      </trkpt>
      <trkpt lat="41.87531" lon="0.77784">
        <ele>671.4</ele>
        <time>2022-05-23 15:04:45</time>
      </trkpt>
      <trkpt lat="41.87524" lon="0.77782">
        <ele>671.2</ele>
        <time>2022-05-23 15:04:46</time>
      </trkpt>
      <trkpt lat="41.87516" lon="0.7778">
        <ele>671</ele>
        <time>2022-05-23 15:04:47</time>
      </trkpt>
      <trkpt lat="41.87508" lon="0.77778">
        <ele>671</ele>
        <time>2022-05-23 15:04:48</time>
      </trkpt>
      <trkpt lat="41.87501" lon="0.77776">
        <ele>670.6</ele>
        <time>2022-05-23 15:04:49</time>
      </trkpt>
      <trkpt lat="41.87493" lon="0.77774">
        <ele>670.4</ele>
        <time>2022-05-23 15:04:50</time>
      </trkpt>
      <trkpt lat="41.87485" lon="0.77771">
        <ele>670.2</ele>
        <time>2022-05-23 15:04:51</time>
      </trkpt>
      <trkpt lat="41.87477" lon="0.77769">
        <ele>670</ele>
        <time>2022-05-23 15:04:52</time>
      </trkpt>
      <trkpt lat="41.87469" lon="0.77767">
        <ele>669.6</ele>
        <time>2022-05-23 15:04:53</time>
      </trkpt>
      <trkpt lat="41.87461" lon="0.77766">
        <ele>669.2</ele>
        <time>2022-05-23 15:04:54</time>
      </trkpt>
      <trkpt lat="41.87453" lon="0.77764">
        <ele>668.8</ele>
        <time>2022-05-23 15:04:55</time>
      </trkpt>
      <trkpt lat="41.87445" lon="0.77762">
        <ele>668.6</ele>
        <time>2022-05-23 15:04:56</time>
      </trkpt>
      <trkpt lat="41.87437" lon="0.77759">
        <ele>668.4</ele>
        <time>2022-05-23 15:04:57</time>
      </trkpt>
      <trkpt lat="41.87429" lon="0.77757">
        <ele>668</ele>
        <time>2022-05-23 15:04:58</time>
      </trkpt>
      <trkpt lat="41.8742" lon="0.77755">
        <ele>667.8</ele>
        <time>2022-05-23 15:04:59</time>
      </trkpt>
      <trkpt lat="41.87413" lon="0.77753">
        <ele>667.4</ele>
        <time>2022-05-23 15:05:00</time>
      </trkpt>
      <trkpt lat="41.87404" lon="0.77751">
        <ele>667</ele>
        <time>2022-05-23 15:05:01</time>
      </trkpt>
      <trkpt lat="41.87396" lon="0.77749">
        <ele>666.8</ele>
        <time>2022-05-23 15:05:02</time>
      </trkpt>
      <trkpt lat="41.87388" lon="0.77748">
        <ele>666.6</ele>
        <time>2022-05-23 15:05:03</time>
      </trkpt>
      <trkpt lat="41.8738" lon="0.77747">
        <ele>666.4</ele>
        <time>2022-05-23 15:05:04</time>
      </trkpt>
      <trkpt lat="41.87371" lon="0.77746">
        <ele>666</ele>
        <time>2022-05-23 15:05:05</time>
      </trkpt>
      <trkpt lat="41.87363" lon="0.77745">
        <ele>665.8</ele>
        <time>2022-05-23 15:05:06</time>
      </trkpt>
      <trkpt lat="41.87354" lon="0.77745">
        <ele>665.4</ele>
        <time>2022-05-23 15:05:07</time>
      </trkpt>
      <trkpt lat="41.87346" lon="0.77744">
        <ele>665.2</ele>
        <time>2022-05-23 15:05:08</time>
      </trkpt>
      <trkpt lat="41.87337" lon="0.77744">
        <ele>665</ele>
        <time>2022-05-23 15:05:09</time>
      </trkpt>
      <trkpt lat="41.87329" lon="0.77744">
        <ele>664.6</ele>
        <time>2022-05-23 15:05:10</time>
      </trkpt>
      <trkpt lat="41.8732" lon="0.77744">
        <ele>664</ele>
        <time>2022-05-23 15:05:11</time>
      </trkpt>
      <trkpt lat="41.87311" lon="0.77744">
        <ele>663.2</ele>
        <time>2022-05-23 15:05:12</time>
      </trkpt>
      <trkpt lat="41.87301" lon="0.77744">
        <ele>662.4</ele>
        <time>2022-05-23 15:05:13</time>
      </trkpt>
      <trkpt lat="41.87292" lon="0.77744">
        <ele>661.6</ele>
        <time>2022-05-23 15:05:14</time>
      </trkpt>
      <trkpt lat="41.87281" lon="0.77744">
        <ele>660.8</ele>
        <time>2022-05-23 15:05:15</time>
      </trkpt>
      <trkpt lat="41.87272" lon="0.77744">
        <ele>660</ele>
        <time>2022-05-23 15:05:16</time>
      </trkpt>
      <trkpt lat="41.87261" lon="0.77745">
        <ele>659.2</ele>
        <time>2022-05-23 15:05:17</time>
      </trkpt>
      <trkpt lat="41.87251" lon="0.77745">
        <ele>658.6</ele>
        <time>2022-05-23 15:05:18</time>
      </trkpt>
      <trkpt lat="41.8724" lon="0.77745">
        <ele>657.8</ele>
        <time>2022-05-23 15:05:19</time>
      </trkpt>
      <trkpt lat="41.8723" lon="0.77745">
        <ele>657.2</ele>
        <time>2022-05-23 15:05:20</time>
      </trkpt>
      <trkpt lat="41.87219" lon="0.77745">
        <ele>656.6</ele>
        <time>2022-05-23 15:05:21</time>
      </trkpt>
      <trkpt lat="41.87209" lon="0.77744">
        <ele>655.8</ele>
        <time>2022-05-23 15:05:22</time>
      </trkpt>
      <trkpt lat="41.87198" lon="0.77742">
        <ele>654.8</ele>
        <time>2022-05-23 15:05:23</time>
      </trkpt>
      <trkpt lat="41.87187" lon="0.7774">
        <ele>654</ele>
        <time>2022-05-23 15:05:24</time>
      </trkpt>
      <trkpt lat="41.87176" lon="0.77736">
        <ele>653.2</ele>
        <time>2022-05-23 15:05:25</time>
      </trkpt>
      <trkpt lat="41.87166" lon="0.77732">
        <ele>652</ele>
        <time>2022-05-23 15:05:26</time>
      </trkpt>
      <trkpt lat="41.87155" lon="0.77727">
        <ele>651.2</ele>
        <time>2022-05-23 15:05:27</time>
      </trkpt>
      <trkpt lat="41.87144" lon="0.77723">
        <ele>650.2</ele>
        <time>2022-05-23 15:05:28</time>
      </trkpt>
      <trkpt lat="41.87133" lon="0.77717">
        <ele>649.4</ele>
        <time>2022-05-23 15:05:29</time>
      </trkpt>
      <trkpt lat="41.87123" lon="0.77711">
        <ele>648.8</ele>
        <time>2022-05-23 15:05:30</time>
      </trkpt>
      <trkpt lat="41.87111" lon="0.77705">
        <ele>648</ele>
        <time>2022-05-23 15:05:31</time>
      </trkpt>
      <trkpt lat="41.871" lon="0.77699">
        <ele>647.4</ele>
        <time>2022-05-23 15:05:32</time>
      </trkpt>
      <trkpt lat="41.87092" lon="0.77695">
        <ele>646.4</ele>
        <time>2022-05-23 15:05:33</time>
      </trkpt>
      <trkpt lat="41.87079" lon="0.77688">
        <ele>645.4</ele>
        <time>2022-05-23 15:05:34</time>
      </trkpt>
      <trkpt lat="41.87068" lon="0.77682">
        <ele>644.4</ele>
        <time>2022-05-23 15:05:35</time>
      </trkpt>
      <trkpt lat="41.87058" lon="0.77676">
        <ele>643.4</ele>
        <time>2022-05-23 15:05:36</time>
      </trkpt>
      <trkpt lat="41.87045" lon="0.77669">
        <ele>642.4</ele>
        <time>2022-05-23 15:05:37</time>
      </trkpt>
      <trkpt lat="41.87033" lon="0.77664">
        <ele>641.4</ele>
        <time>2022-05-23 15:05:38</time>
      </trkpt>
      <trkpt lat="41.87022" lon="0.77658">
        <ele>640.6</ele>
        <time>2022-05-23 15:05:39</time>
      </trkpt>
      <trkpt lat="41.87012" lon="0.77653">
        <ele>639.8</ele>
        <time>2022-05-23 15:05:40</time>
      </trkpt>
      <trkpt lat="41.87" lon="0.77647">
        <ele>639</ele>
        <time>2022-05-23 15:05:41</time>
      </trkpt>
      <trkpt lat="41.86991" lon="0.77642">
        <ele>638.2</ele>
        <time>2022-05-23 15:05:42</time>
      </trkpt>
      <trkpt lat="41.86978" lon="0.77636">
        <ele>637.6</ele>
        <time>2022-05-23 15:05:43</time>
      </trkpt>
      <trkpt lat="41.86969" lon="0.77631">
        <ele>637</ele>
        <time>2022-05-23 15:05:44</time>
      </trkpt>
      <trkpt lat="41.86958" lon="0.77625">
        <ele>636.2</ele>
        <time>2022-05-23 15:05:45</time>
      </trkpt>
      <trkpt lat="41.86949" lon="0.77621">
        <ele>635.6</ele>
        <time>2022-05-23 15:05:46</time>
      </trkpt>
      <trkpt lat="41.86938" lon="0.77616">
        <ele>634.6</ele>
        <time>2022-05-23 15:05:47</time>
      </trkpt>
      <trkpt lat="41.86927" lon="0.7761">
        <ele>634</ele>
        <time>2022-05-23 15:05:48</time>
      </trkpt>
      <trkpt lat="41.86917" lon="0.77604">
        <ele>633.2</ele>
        <time>2022-05-23 15:05:49</time>
      </trkpt>
      <trkpt lat="41.86907" lon="0.77599">
        <ele>632.2</ele>
        <time>2022-05-23 15:05:50</time>
      </trkpt>
      <trkpt lat="41.86898" lon="0.77593">
        <ele>631.4</ele>
        <time>2022-05-23 15:05:51</time>
      </trkpt>
      <trkpt lat="41.86888" lon="0.77584">
        <ele>630.6</ele>
        <time>2022-05-23 15:05:52</time>
      </trkpt>
      <trkpt lat="41.86879" lon="0.77577">
        <ele>629.6</ele>
        <time>2022-05-23 15:05:53</time>
      </trkpt>
      <trkpt lat="41.86872" lon="0.77571">
        <ele>629</ele>
        <time>2022-05-23 15:05:54</time>
      </trkpt>
      <trkpt lat="41.86862" lon="0.77562">
        <ele>628.8</ele>
        <time>2022-05-23 15:05:55</time>
      </trkpt>
      <trkpt lat="41.86853" lon="0.77555">
        <ele>628.4</ele>
        <time>2022-05-23 15:05:56</time>
      </trkpt>
      <trkpt lat="41.86845" lon="0.77548">
        <ele>628.2</ele>
        <time>2022-05-23 15:05:57</time>
      </trkpt>
      <trkpt lat="41.86836" lon="0.77541">
        <ele>627.6</ele>
        <time>2022-05-23 15:05:58</time>
      </trkpt>
      <trkpt lat="41.86827" lon="0.77533">
        <ele>627</ele>
        <time>2022-05-23 15:05:59</time>
      </trkpt>
      <trkpt lat="41.86819" lon="0.77526">
        <ele>626.6</ele>
        <time>2022-05-23 15:06:00</time>
      </trkpt>
      <trkpt lat="41.8681" lon="0.77519">
        <ele>626.2</ele>
        <time>2022-05-23 15:06:01</time>
      </trkpt>
      <trkpt lat="41.86802" lon="0.77512">
        <ele>625.8</ele>
        <time>2022-05-23 15:06:02</time>
      </trkpt>
      <trkpt lat="41.86793" lon="0.77506">
        <ele>625.2</ele>
        <time>2022-05-23 15:06:03</time>
      </trkpt>
      <trkpt lat="41.86785" lon="0.77499">
        <ele>624.8</ele>
        <time>2022-05-23 15:06:04</time>
      </trkpt>
      <trkpt lat="41.86778" lon="0.77494">
        <ele>624.4</ele>
        <time>2022-05-23 15:06:05</time>
      </trkpt>
      <trkpt lat="41.8677" lon="0.77487">
        <ele>624</ele>
        <time>2022-05-23 15:06:06</time>
      </trkpt>
      <trkpt lat="41.86761" lon="0.77481">
        <ele>623.8</ele>
        <time>2022-05-23 15:06:07</time>
      </trkpt>
      <trkpt lat="41.86754" lon="0.77477">
        <ele>623.6</ele>
        <time>2022-05-23 15:06:08</time>
      </trkpt>
      <trkpt lat="41.86745" lon="0.77473">
        <ele>623.4</ele>
        <time>2022-05-23 15:06:09</time>
      </trkpt>
      <trkpt lat="41.86738" lon="0.77471">
        <ele>623.4</ele>
        <time>2022-05-23 15:06:10</time>
      </trkpt>
      <trkpt lat="41.86728" lon="0.77469">
        <ele>623.2</ele>
        <time>2022-05-23 15:06:11</time>
      </trkpt>
      <trkpt lat="41.86721" lon="0.77468">
        <ele>623</ele>
        <time>2022-05-23 15:06:12</time>
      </trkpt>
      <trkpt lat="41.86711" lon="0.77468">
        <ele>622.8</ele>
        <time>2022-05-23 15:06:13</time>
      </trkpt>
      <trkpt lat="41.86704" lon="0.77469">
        <ele>622.6</ele>
        <time>2022-05-23 15:06:14</time>
      </trkpt>
      <trkpt lat="41.86695" lon="0.77471">
        <ele>622.2</ele>
        <time>2022-05-23 15:06:15</time>
      </trkpt>
      <trkpt lat="41.86688" lon="0.77474">
        <ele>622</ele>
        <time>2022-05-23 15:06:16</time>
      </trkpt>
      <trkpt lat="41.86678" lon="0.77476">
        <ele>621.8</ele>
        <time>2022-05-23 15:06:17</time>
      </trkpt>
      <trkpt lat="41.86671" lon="0.77479">
        <ele>621.6</ele>
        <time>2022-05-23 15:06:18</time>
      </trkpt>
      <trkpt lat="41.86662" lon="0.77483">
        <ele>621.6</ele>
        <time>2022-05-23 15:06:19</time>
      </trkpt>
      <trkpt lat="41.86655" lon="0.77485">
        <ele>621.4</ele>
        <time>2022-05-23 15:06:20</time>
      </trkpt>
      <trkpt lat="41.86645" lon="0.77488">
        <ele>621.2</ele>
        <time>2022-05-23 15:06:21</time>
      </trkpt>
      <trkpt lat="41.86637" lon="0.77491">
        <ele>621</ele>
        <time>2022-05-23 15:06:22</time>
      </trkpt>
      <trkpt lat="41.86628" lon="0.77494">
        <ele>620.8</ele>
        <time>2022-05-23 15:06:23</time>
      </trkpt>
      <trkpt lat="41.8662" lon="0.77497">
        <ele>620.4</ele>
        <time>2022-05-23 15:06:24</time>
      </trkpt>
      <trkpt lat="41.86612" lon="0.77499">
        <ele>620.2</ele>
        <time>2022-05-23 15:06:25</time>
      </trkpt>
      <trkpt lat="41.86604" lon="0.77502">
        <ele>620</ele>
        <time>2022-05-23 15:06:26</time>
      </trkpt>
      <trkpt lat="41.86595" lon="0.77505">
        <ele>620</ele>
        <time>2022-05-23 15:06:27</time>
      </trkpt>
      <trkpt lat="41.86587" lon="0.77508">
        <ele>619.8</ele>
        <time>2022-05-23 15:06:28</time>
      </trkpt>
      <trkpt lat="41.86579" lon="0.77511">
        <ele>619.8</ele>
        <time>2022-05-23 15:06:29</time>
      </trkpt>
      <trkpt lat="41.8657" lon="0.77514">
        <ele>619.6</ele>
        <time>2022-05-23 15:06:30</time>
      </trkpt>
      <trkpt lat="41.86563" lon="0.77517">
        <ele>619.4</ele>
        <time>2022-05-23 15:06:31</time>
      </trkpt>
      <trkpt lat="41.86554" lon="0.7752">
        <ele>619.2</ele>
        <time>2022-05-23 15:06:32</time>
      </trkpt>
      <trkpt lat="41.86546" lon="0.77523">
        <ele>619</ele>
        <time>2022-05-23 15:06:33</time>
      </trkpt>
      <trkpt lat="41.86538" lon="0.77525">
        <ele>618.8</ele>
        <time>2022-05-23 15:06:34</time>
      </trkpt>
      <trkpt lat="41.8653" lon="0.77528">
        <ele>618.8</ele>
        <time>2022-05-23 15:06:35</time>
      </trkpt>
      <trkpt lat="41.86522" lon="0.77531">
        <ele>618.8</ele>
        <time>2022-05-23 15:06:36</time>
      </trkpt>
      <trkpt lat="41.86514" lon="0.77534">
        <ele>618.6</ele>
        <time>2022-05-23 15:06:37</time>
      </trkpt>
      <trkpt lat="41.86506" lon="0.77537">
        <ele>618.6</ele>
        <time>2022-05-23 15:06:38</time>
      </trkpt>
      <trkpt lat="41.86498" lon="0.77539">
        <ele>618.4</ele>
        <time>2022-05-23 15:06:39</time>
      </trkpt>
      <trkpt lat="41.86491" lon="0.77542">
        <ele>618.2</ele>
        <time>2022-05-23 15:06:40</time>
      </trkpt>
      <trkpt lat="41.86483" lon="0.77544">
        <ele>618.2</ele>
        <time>2022-05-23 15:06:41</time>
      </trkpt>
      <trkpt lat="41.86475" lon="0.77547">
        <ele>618</ele>
        <time>2022-05-23 15:06:42</time>
      </trkpt>
      <trkpt lat="41.86467" lon="0.7755">
        <ele>617.8</ele>
        <time>2022-05-23 15:06:43</time>
      </trkpt>
      <trkpt lat="41.8646" lon="0.77553">
        <ele>617.6</ele>
        <time>2022-05-23 15:06:44</time>
      </trkpt>
      <trkpt lat="41.86452" lon="0.77556">
        <ele>617.4</ele>
        <time>2022-05-23 15:06:45</time>
      </trkpt>
      <trkpt lat="41.86444" lon="0.77558">
        <ele>617.4</ele>
        <time>2022-05-23 15:06:46</time>
      </trkpt>
      <trkpt lat="41.86436" lon="0.77561">
        <ele>617.4</ele>
        <time>2022-05-23 15:06:47</time>
      </trkpt>
      <trkpt lat="41.86429" lon="0.77564">
        <ele>617.4</ele>
        <time>2022-05-23 15:06:48</time>
      </trkpt>
      <trkpt lat="41.8642" lon="0.77566">
        <ele>617.2</ele>
        <time>2022-05-23 15:06:49</time>
      </trkpt>
      <trkpt lat="41.86412" lon="0.77569">
        <ele>617.2</ele>
        <time>2022-05-23 15:06:50</time>
      </trkpt>
      <trkpt lat="41.86404" lon="0.77571">
        <ele>617</ele>
        <time>2022-05-23 15:06:51</time>
      </trkpt>
      <trkpt lat="41.86396" lon="0.77574">
        <ele>616.8</ele>
        <time>2022-05-23 15:06:52</time>
      </trkpt>
      <trkpt lat="41.86388" lon="0.77577">
        <ele>616.8</ele>
        <time>2022-05-23 15:06:53</time>
      </trkpt>
      <trkpt lat="41.8638" lon="0.77579">
        <ele>616.8</ele>
        <time>2022-05-23 15:06:54</time>
      </trkpt>
      <trkpt lat="41.86372" lon="0.77582">
        <ele>616.6</ele>
        <time>2022-05-23 15:06:55</time>
      </trkpt>
      <trkpt lat="41.86364" lon="0.77584">
        <ele>616.8</ele>
        <time>2022-05-23 15:06:56</time>
      </trkpt>
      <trkpt lat="41.86356" lon="0.77587">
        <ele>616.6</ele>
        <time>2022-05-23 15:06:57</time>
      </trkpt>
      <trkpt lat="41.86348" lon="0.7759">
        <ele>616.6</ele>
        <time>2022-05-23 15:06:58</time>
      </trkpt>
      <trkpt lat="41.8634" lon="0.77593">
        <ele>616.6</ele>
        <time>2022-05-23 15:06:59</time>
      </trkpt>
      <trkpt lat="41.86333" lon="0.77595">
        <ele>616.4</ele>
        <time>2022-05-23 15:07:00</time>
      </trkpt>
      <trkpt lat="41.86325" lon="0.77598">
        <ele>616.2</ele>
        <time>2022-05-23 15:07:01</time>
      </trkpt>
      <trkpt lat="41.86318" lon="0.776">
        <ele>616.2</ele>
        <time>2022-05-23 15:07:02</time>
      </trkpt>
      <trkpt lat="41.8631" lon="0.77602">
        <ele>616</ele>
        <time>2022-05-23 15:07:03</time>
      </trkpt>
      <trkpt lat="41.86302" lon="0.77605">
        <ele>615.8</ele>
        <time>2022-05-23 15:07:04</time>
      </trkpt>
      <trkpt lat="41.86295" lon="0.77608">
        <ele>615.6</ele>
        <time>2022-05-23 15:07:05</time>
      </trkpt>
      <trkpt lat="41.86287" lon="0.77611">
        <ele>615.6</ele>
        <time>2022-05-23 15:07:06</time>
      </trkpt>
      <trkpt lat="41.86279" lon="0.77613">
        <ele>615.6</ele>
        <time>2022-05-23 15:07:07</time>
      </trkpt>
      <trkpt lat="41.86271" lon="0.77615">
        <ele>615.6</ele>
        <time>2022-05-23 15:07:08</time>
      </trkpt>
      <trkpt lat="41.86264" lon="0.77617">
        <ele>615.6</ele>
        <time>2022-05-23 15:07:09</time>
      </trkpt>
      <trkpt lat="41.86257" lon="0.7762">
        <ele>615.6</ele>
        <time>2022-05-23 15:07:10</time>
      </trkpt>
      <trkpt lat="41.86249" lon="0.77622">
        <ele>615.6</ele>
        <time>2022-05-23 15:07:11</time>
      </trkpt>
      <trkpt lat="41.86242" lon="0.77625">
        <ele>615.4</ele>
        <time>2022-05-23 15:07:12</time>
      </trkpt>
      <trkpt lat="41.86235" lon="0.77627">
        <ele>615.4</ele>
        <time>2022-05-23 15:07:13</time>
      </trkpt>
      <trkpt lat="41.86227" lon="0.7763">
        <ele>615.4</ele>
        <time>2022-05-23 15:07:14</time>
      </trkpt>
      <trkpt lat="41.8622" lon="0.77632">
        <ele>615.6</ele>
        <time>2022-05-23 15:07:15</time>
      </trkpt>
      <trkpt lat="41.86213" lon="0.77635">
        <ele>615.4</ele>
        <time>2022-05-23 15:07:16</time>
      </trkpt>
      <trkpt lat="41.86205" lon="0.77637">
        <ele>615.4</ele>
        <time>2022-05-23 15:07:17</time>
      </trkpt>
      <trkpt lat="41.86198" lon="0.7764">
        <ele>615</ele>
        <time>2022-05-23 15:07:18</time>
      </trkpt>
      <trkpt lat="41.8619" lon="0.77642">
        <ele>614.8</ele>
        <time>2022-05-23 15:07:19</time>
      </trkpt>
      <trkpt lat="41.86183" lon="0.77645">
        <ele>614.6</ele>
        <time>2022-05-23 15:07:20</time>
      </trkpt>
      <trkpt lat="41.86176" lon="0.77647">
        <ele>614.6</ele>
        <time>2022-05-23 15:07:21</time>
      </trkpt>
      <trkpt lat="41.86169" lon="0.77649">
        <ele>614.4</ele>
        <time>2022-05-23 15:07:22</time>
      </trkpt>
      <trkpt lat="41.86162" lon="0.77651">
        <ele>614.4</ele>
        <time>2022-05-23 15:07:23</time>
      </trkpt>
      <trkpt lat="41.86155" lon="0.77653">
        <ele>614.4</ele>
        <time>2022-05-23 15:07:24</time>
      </trkpt>
      <trkpt lat="41.86148" lon="0.77656">
        <ele>614.4</ele>
        <time>2022-05-23 15:07:25</time>
      </trkpt>
      <trkpt lat="41.86141" lon="0.77658">
        <ele>614.4</ele>
        <time>2022-05-23 15:07:26</time>
      </trkpt>
      <trkpt lat="41.86135" lon="0.7766">
        <ele>614.4</ele>
        <time>2022-05-23 15:07:27</time>
      </trkpt>
      <trkpt lat="41.86127" lon="0.77662">
        <ele>614.2</ele>
        <time>2022-05-23 15:07:28</time>
      </trkpt>
      <trkpt lat="41.8612" lon="0.77665">
        <ele>614.2</ele>
        <time>2022-05-23 15:07:29</time>
      </trkpt>
      <trkpt lat="41.86113" lon="0.77667">
        <ele>614</ele>
        <time>2022-05-23 15:07:30</time>
      </trkpt>
      <trkpt lat="41.86106" lon="0.77669">
        <ele>614</ele>
        <time>2022-05-23 15:07:31</time>
      </trkpt>
      <trkpt lat="41.861" lon="0.77671">
        <ele>614</ele>
        <time>2022-05-23 15:07:32</time>
      </trkpt>
      <trkpt lat="41.86093" lon="0.77673">
        <ele>614</ele>
        <time>2022-05-23 15:07:33</time>
      </trkpt>
      <trkpt lat="41.86086" lon="0.77675">
        <ele>614</ele>
        <time>2022-05-23 15:07:34</time>
      </trkpt>
      <trkpt lat="41.86079" lon="0.77678">
        <ele>613.8</ele>
        <time>2022-05-23 15:07:35</time>
      </trkpt>
      <trkpt lat="41.86072" lon="0.77681">
        <ele>613.8</ele>
        <time>2022-05-23 15:07:36</time>
      </trkpt>
      <trkpt lat="41.86065" lon="0.77683">
        <ele>614</ele>
        <time>2022-05-23 15:07:37</time>
      </trkpt>
      <trkpt lat="41.86059" lon="0.77685">
        <ele>613.8</ele>
        <time>2022-05-23 15:07:38</time>
      </trkpt>
      <trkpt lat="41.86052" lon="0.77688">
        <ele>613.6</ele>
        <time>2022-05-23 15:07:39</time>
      </trkpt>
      <trkpt lat="41.86045" lon="0.7769">
        <ele>613.6</ele>
        <time>2022-05-23 15:07:40</time>
      </trkpt>
      <trkpt lat="41.86038" lon="0.77693">
        <ele>613.4</ele>
        <time>2022-05-23 15:07:41</time>
      </trkpt>
      <trkpt lat="41.86031" lon="0.77695">
        <ele>613.4</ele>
        <time>2022-05-23 15:07:42</time>
      </trkpt>
      <trkpt lat="41.86023" lon="0.77697">
        <ele>613.2</ele>
        <time>2022-05-23 15:07:43</time>
      </trkpt>
      <trkpt lat="41.86017" lon="0.77699">
        <ele>613.2</ele>
        <time>2022-05-23 15:07:44</time>
      </trkpt>
      <trkpt lat="41.8601" lon="0.77702">
        <ele>613</ele>
        <time>2022-05-23 15:07:45</time>
      </trkpt>
      <trkpt lat="41.86003" lon="0.77704">
        <ele>613</ele>
        <time>2022-05-23 15:07:46</time>
      </trkpt>
      <trkpt lat="41.85997" lon="0.77706">
        <ele>612.8</ele>
        <time>2022-05-23 15:07:47</time>
      </trkpt>
      <trkpt lat="41.8599" lon="0.77707">
        <ele>612.8</ele>
        <time>2022-05-23 15:07:48</time>
      </trkpt>
      <trkpt lat="41.85983" lon="0.77709">
        <ele>612.6</ele>
        <time>2022-05-23 15:07:49</time>
      </trkpt>
      <trkpt lat="41.85977" lon="0.7771">
        <ele>612.6</ele>
        <time>2022-05-23 15:07:50</time>
      </trkpt>
      <trkpt lat="41.85969" lon="0.77711">
        <ele>612.4</ele>
        <time>2022-05-23 15:07:51</time>
      </trkpt>
      <trkpt lat="41.85962" lon="0.77712">
        <ele>612.2</ele>
        <time>2022-05-23 15:07:52</time>
      </trkpt>
      <trkpt lat="41.85955" lon="0.77713">
        <ele>612.2</ele>
        <time>2022-05-23 15:07:53</time>
      </trkpt>
      <trkpt lat="41.85947" lon="0.77714">
        <ele>612.2</ele>
        <time>2022-05-23 15:07:54</time>
      </trkpt>
      <trkpt lat="41.8594" lon="0.77714">
        <ele>612.2</ele>
        <time>2022-05-23 15:07:55</time>
      </trkpt>
      <trkpt lat="41.85933" lon="0.77714">
        <ele>612</ele>
        <time>2022-05-23 15:07:56</time>
      </trkpt>
      <trkpt lat="41.85926" lon="0.77714">
        <ele>611.8</ele>
        <time>2022-05-23 15:07:57</time>
      </trkpt>
      <trkpt lat="41.85919" lon="0.77714">
        <ele>611.6</ele>
        <time>2022-05-23 15:07:58</time>
      </trkpt>
      <trkpt lat="41.85912" lon="0.77714">
        <ele>611.6</ele>
        <time>2022-05-23 15:07:59</time>
      </trkpt>
      <trkpt lat="41.85904" lon="0.77714">
        <ele>611.4</ele>
        <time>2022-05-23 15:08:00</time>
      </trkpt>
      <trkpt lat="41.85898" lon="0.77715">
        <ele>611.2</ele>
        <time>2022-05-23 15:08:01</time>
      </trkpt>
      <trkpt lat="41.85891" lon="0.77715">
        <ele>611.2</ele>
        <time>2022-05-23 15:08:02</time>
      </trkpt>
      <trkpt lat="41.85884" lon="0.77715">
        <ele>611</ele>
        <time>2022-05-23 15:08:03</time>
      </trkpt>
      <trkpt lat="41.85877" lon="0.77715">
        <ele>611</ele>
        <time>2022-05-23 15:08:04</time>
      </trkpt>
      <trkpt lat="41.85869" lon="0.77716">
        <ele>610.8</ele>
        <time>2022-05-23 15:08:05</time>
      </trkpt>
      <trkpt lat="41.85862" lon="0.77716">
        <ele>610.8</ele>
        <time>2022-05-23 15:08:06</time>
      </trkpt>
      <trkpt lat="41.85855" lon="0.77716">
        <ele>610.6</ele>
        <time>2022-05-23 15:08:07</time>
      </trkpt>
      <trkpt lat="41.85848" lon="0.77717">
        <ele>610.4</ele>
        <time>2022-05-23 15:08:08</time>
      </trkpt>
      <trkpt lat="41.85841" lon="0.77717">
        <ele>610.4</ele>
        <time>2022-05-23 15:08:09</time>
      </trkpt>
      <trkpt lat="41.85833" lon="0.77717">
        <ele>610.2</ele>
        <time>2022-05-23 15:08:10</time>
      </trkpt>
      <trkpt lat="41.85826" lon="0.77717">
        <ele>610.2</ele>
        <time>2022-05-23 15:08:11</time>
      </trkpt>
      <trkpt lat="41.85819" lon="0.77717">
        <ele>610</ele>
        <time>2022-05-23 15:08:12</time>
      </trkpt>
      <trkpt lat="41.85811" lon="0.77717">
        <ele>610</ele>
        <time>2022-05-23 15:08:13</time>
      </trkpt>
      <trkpt lat="41.85804" lon="0.77718">
        <ele>609.8</ele>
        <time>2022-05-23 15:08:14</time>
      </trkpt>
      <trkpt lat="41.85797" lon="0.77718">
        <ele>609.8</ele>
        <time>2022-05-23 15:08:15</time>
      </trkpt>
      <trkpt lat="41.85789" lon="0.77718">
        <ele>609.8</ele>
        <time>2022-05-23 15:08:16</time>
      </trkpt>
      <trkpt lat="41.85782" lon="0.77718">
        <ele>609.6</ele>
        <time>2022-05-23 15:08:17</time>
      </trkpt>
      <trkpt lat="41.85774" lon="0.77718">
        <ele>609.6</ele>
        <time>2022-05-23 15:08:18</time>
      </trkpt>
      <trkpt lat="41.85766" lon="0.77719">
        <ele>609.4</ele>
        <time>2022-05-23 15:08:19</time>
      </trkpt>
      <trkpt lat="41.85759" lon="0.77719">
        <ele>609.4</ele>
        <time>2022-05-23 15:08:20</time>
      </trkpt>
      <trkpt lat="41.85751" lon="0.77719">
        <ele>609.4</ele>
        <time>2022-05-23 15:08:21</time>
      </trkpt>
      <trkpt lat="41.85744" lon="0.7772">
        <ele>609.4</ele>
        <time>2022-05-23 15:08:22</time>
      </trkpt>
      <trkpt lat="41.85736" lon="0.77721">
        <ele>609.2</ele>
        <time>2022-05-23 15:08:23</time>
      </trkpt>
      <trkpt lat="41.85729" lon="0.77721">
        <ele>609.2</ele>
        <time>2022-05-23 15:08:24</time>
      </trkpt>
      <trkpt lat="41.85721" lon="0.77721">
        <ele>609.2</ele>
        <time>2022-05-23 15:08:25</time>
      </trkpt>
      <trkpt lat="41.85714" lon="0.7772">
        <ele>609.4</ele>
        <time>2022-05-23 15:08:26</time>
      </trkpt>
      <trkpt lat="41.85707" lon="0.7772">
        <ele>609.4</ele>
        <time>2022-05-23 15:08:27</time>
      </trkpt>
      <trkpt lat="41.857" lon="0.7772">
        <ele>609.4</ele>
        <time>2022-05-23 15:08:28</time>
      </trkpt>
      <trkpt lat="41.85692" lon="0.7772">
        <ele>609.4</ele>
        <time>2022-05-23 15:08:29</time>
      </trkpt>
      <trkpt lat="41.85685" lon="0.7772">
        <ele>609.2</ele>
        <time>2022-05-23 15:08:30</time>
      </trkpt>
      <trkpt lat="41.85677" lon="0.77721">
        <ele>609</ele>
        <time>2022-05-23 15:08:31</time>
      </trkpt>
      <trkpt lat="41.8567" lon="0.77721">
        <ele>609</ele>
        <time>2022-05-23 15:08:32</time>
      </trkpt>
      <trkpt lat="41.85663" lon="0.77721">
        <ele>608.8</ele>
        <time>2022-05-23 15:08:33</time>
      </trkpt>
      <trkpt lat="41.85656" lon="0.77722">
        <ele>608.6</ele>
        <time>2022-05-23 15:08:34</time>
      </trkpt>
      <trkpt lat="41.85648" lon="0.77722">
        <ele>608.6</ele>
        <time>2022-05-23 15:08:35</time>
      </trkpt>
      <trkpt lat="41.85641" lon="0.77722">
        <ele>608.4</ele>
        <time>2022-05-23 15:08:36</time>
      </trkpt>
      <trkpt lat="41.85634" lon="0.77723">
        <ele>608.4</ele>
        <time>2022-05-23 15:08:37</time>
      </trkpt>
      <trkpt lat="41.85628" lon="0.77723">
        <ele>608.2</ele>
        <time>2022-05-23 15:08:38</time>
      </trkpt>
      <trkpt lat="41.85621" lon="0.77723">
        <ele>608</ele>
        <time>2022-05-23 15:08:39</time>
      </trkpt>
      <trkpt lat="41.85614" lon="0.77724">
        <ele>608</ele>
        <time>2022-05-23 15:08:40</time>
      </trkpt>
      <trkpt lat="41.85607" lon="0.77724">
        <ele>607.8</ele>
        <time>2022-05-23 15:08:41</time>
      </trkpt>
      <trkpt lat="41.856" lon="0.77724">
        <ele>608</ele>
        <time>2022-05-23 15:08:42</time>
      </trkpt>
      <trkpt lat="41.85593" lon="0.77724">
        <ele>608</ele>
        <time>2022-05-23 15:08:43</time>
      </trkpt>
      <trkpt lat="41.85586" lon="0.77724">
        <ele>608</ele>
        <time>2022-05-23 15:08:44</time>
      </trkpt>
      <trkpt lat="41.85579" lon="0.77724">
        <ele>608</ele>
        <time>2022-05-23 15:08:45</time>
      </trkpt>
      <trkpt lat="41.85571" lon="0.77724">
        <ele>608</ele>
        <time>2022-05-23 15:08:46</time>
      </trkpt>
      <trkpt lat="41.85564" lon="0.77724">
        <ele>607.8</ele>
        <time>2022-05-23 15:08:47</time>
      </trkpt>
      <trkpt lat="41.85557" lon="0.77724">
        <ele>607.8</ele>
        <time>2022-05-23 15:08:48</time>
      </trkpt>
      <trkpt lat="41.85551" lon="0.77724">
        <ele>607.8</ele>
        <time>2022-05-23 15:08:49</time>
      </trkpt>
      <trkpt lat="41.85543" lon="0.77724">
        <ele>607.8</ele>
        <time>2022-05-23 15:08:50</time>
      </trkpt>
      <trkpt lat="41.85537" lon="0.77724">
        <ele>607.6</ele>
        <time>2022-05-23 15:08:51</time>
      </trkpt>
      <trkpt lat="41.8553" lon="0.77723">
        <ele>607.6</ele>
        <time>2022-05-23 15:08:52</time>
      </trkpt>
      <trkpt lat="41.85523" lon="0.77722">
        <ele>607.6</ele>
        <time>2022-05-23 15:08:53</time>
      </trkpt>
      <trkpt lat="41.85517" lon="0.77721">
        <ele>607.8</ele>
        <time>2022-05-23 15:08:54</time>
      </trkpt>
      <trkpt lat="41.8551" lon="0.7772">
        <ele>607.8</ele>
        <time>2022-05-23 15:08:55</time>
      </trkpt>
      <trkpt lat="41.85504" lon="0.77718">
        <ele>607.6</ele>
        <time>2022-05-23 15:08:56</time>
      </trkpt>
      <trkpt lat="41.85498" lon="0.77718">
        <ele>607.6</ele>
        <time>2022-05-23 15:08:57</time>
      </trkpt>
      <trkpt lat="41.85491" lon="0.77717">
        <ele>607.6</ele>
        <time>2022-05-23 15:08:58</time>
      </trkpt>
      <trkpt lat="41.85485" lon="0.77716">
        <ele>607.6</ele>
        <time>2022-05-23 15:08:59</time>
      </trkpt>
      <trkpt lat="41.85478" lon="0.77715">
        <ele>607.6</ele>
        <time>2022-05-23 15:09:00</time>
      </trkpt>
      <trkpt lat="41.85471" lon="0.77715">
        <ele>607.6</ele>
        <time>2022-05-23 15:09:01</time>
      </trkpt>
      <trkpt lat="41.85465" lon="0.77715">
        <ele>607.6</ele>
        <time>2022-05-23 15:09:02</time>
      </trkpt>
      <trkpt lat="41.8546" lon="0.77715">
        <ele>607.4</ele>
        <time>2022-05-23 15:09:03</time>
      </trkpt>
      <trkpt lat="41.85452" lon="0.77716">
        <ele>607.4</ele>
        <time>2022-05-23 15:09:04</time>
      </trkpt>
      <trkpt lat="41.85446" lon="0.77717">
        <ele>607.4</ele>
        <time>2022-05-23 15:09:05</time>
      </trkpt>
      <trkpt lat="41.85439" lon="0.77719">
        <ele>607.4</ele>
        <time>2022-05-23 15:09:06</time>
      </trkpt>
      <trkpt lat="41.85433" lon="0.7772">
        <ele>607.4</ele>
        <time>2022-05-23 15:09:07</time>
      </trkpt>
      <trkpt lat="41.85425" lon="0.77723">
        <ele>607.2</ele>
        <time>2022-05-23 15:09:08</time>
      </trkpt>
      <trkpt lat="41.85418" lon="0.77725">
        <ele>607.2</ele>
        <time>2022-05-23 15:09:09</time>
      </trkpt>
      <trkpt lat="41.85412" lon="0.77727">
        <ele>607</ele>
        <time>2022-05-23 15:09:10</time>
      </trkpt>
      <trkpt lat="41.85404" lon="0.77731">
        <ele>606.8</ele>
        <time>2022-05-23 15:09:11</time>
      </trkpt>
      <trkpt lat="41.85397" lon="0.77734">
        <ele>606.8</ele>
        <time>2022-05-23 15:09:12</time>
      </trkpt>
      <trkpt lat="41.8539" lon="0.77737">
        <ele>606.6</ele>
        <time>2022-05-23 15:09:13</time>
      </trkpt>
      <trkpt lat="41.85383" lon="0.7774">
        <ele>606.4</ele>
        <time>2022-05-23 15:09:14</time>
      </trkpt>
      <trkpt lat="41.85376" lon="0.77743">
        <ele>606.2</ele>
        <time>2022-05-23 15:09:15</time>
      </trkpt>
      <trkpt lat="41.85368" lon="0.77746">
        <ele>606</ele>
        <time>2022-05-23 15:09:16</time>
      </trkpt>
      <trkpt lat="41.85361" lon="0.77749">
        <ele>605.6</ele>
        <time>2022-05-23 15:09:17</time>
      </trkpt>
      <trkpt lat="41.85354" lon="0.77752">
        <ele>605.2</ele>
        <time>2022-05-23 15:09:18</time>
      </trkpt>
      <trkpt lat="41.85346" lon="0.77755">
        <ele>605</ele>
        <time>2022-05-23 15:09:19</time>
      </trkpt>
      <trkpt lat="41.85339" lon="0.77758">
        <ele>604.8</ele>
        <time>2022-05-23 15:09:20</time>
      </trkpt>
      <trkpt lat="41.85331" lon="0.77762">
        <ele>604.6</ele>
        <time>2022-05-23 15:09:21</time>
      </trkpt>
      <trkpt lat="41.85325" lon="0.77767">
        <ele>604.2</ele>
        <time>2022-05-23 15:09:22</time>
      </trkpt>
      <trkpt lat="41.85318" lon="0.77773">
        <ele>603.8</ele>
        <time>2022-05-23 15:09:23</time>
      </trkpt>
      <trkpt lat="41.8531" lon="0.7778">
        <ele>603.6</ele>
        <time>2022-05-23 15:09:24</time>
      </trkpt>
      <trkpt lat="41.85303" lon="0.77787">
        <ele>603.2</ele>
        <time>2022-05-23 15:09:25</time>
      </trkpt>
      <trkpt lat="41.85296" lon="0.77794">
        <ele>602.8</ele>
        <time>2022-05-23 15:09:26</time>
      </trkpt>
      <trkpt lat="41.85289" lon="0.77801">
        <ele>602.4</ele>
        <time>2022-05-23 15:09:27</time>
      </trkpt>
      <trkpt lat="41.85282" lon="0.77807">
        <ele>602</ele>
        <time>2022-05-23 15:09:28</time>
      </trkpt>
      <trkpt lat="41.85276" lon="0.77813">
        <ele>601.8</ele>
        <time>2022-05-23 15:09:29</time>
      </trkpt>
      <trkpt lat="41.85271" lon="0.77819">
        <ele>601.4</ele>
        <time>2022-05-23 15:09:30</time>
      </trkpt>
      <trkpt lat="41.85266" lon="0.77823">
        <ele>601.2</ele>
        <time>2022-05-23 15:09:31</time>
      </trkpt>
      <trkpt lat="41.85262" lon="0.77827">
        <ele>601</ele>
        <time>2022-05-23 15:09:32</time>
      </trkpt>
      <trkpt lat="41.85259" lon="0.7783">
        <ele>601</ele>
        <time>2022-05-23 15:09:33</time>
      </trkpt>
      <trkpt lat="41.85257" lon="0.77833">
        <ele>600.8</ele>
        <time>2022-05-23 15:09:34</time>
      </trkpt>
      <trkpt lat="41.85255" lon="0.77835">
        <ele>600.8</ele>
        <time>2022-05-23 15:09:35</time>
      </trkpt>
      <trkpt lat="41.85253" lon="0.77836">
        <ele>600.6</ele>
        <time>2022-05-23 15:09:36</time>
      </trkpt>
      <trkpt lat="41.85252" lon="0.77837">
        <ele>600.6</ele>
        <time>2022-05-23 15:09:37</time>
      </trkpt>
      <trkpt lat="41.85249" lon="0.77843">
        <ele>600.4</ele>
        <time>2022-05-23 15:09:38</time>
      </trkpt>
      <trkpt lat="41.85247" lon="0.77845">
        <ele>600.4</ele>
        <time>2022-05-23 15:09:39</time>
      </trkpt>
      <trkpt lat="41.85244" lon="0.77847">
        <ele>600.2</ele>
        <time>2022-05-23 15:09:40</time>
      </trkpt>
      <trkpt lat="41.85242" lon="0.77849">
        <ele>600</ele>
        <time>2022-05-23 15:09:41</time>
      </trkpt>
      <trkpt lat="41.85239" lon="0.77852">
        <ele>600</ele>
        <time>2022-05-23 15:09:42</time>
      </trkpt>
      <trkpt lat="41.85236" lon="0.77854">
        <ele>600.2</ele>
        <time>2022-05-23 15:09:43</time>
      </trkpt>
      <trkpt lat="41.85233" lon="0.77857">
        <ele>600</ele>
        <time>2022-05-23 15:09:44</time>
      </trkpt>
      <trkpt lat="41.8523" lon="0.77861">
        <ele>599.8</ele>
        <time>2022-05-23 15:09:45</time>
      </trkpt>
      <trkpt lat="41.85227" lon="0.77865">
        <ele>599.8</ele>
        <time>2022-05-23 15:09:46</time>
      </trkpt>
      <trkpt lat="41.85223" lon="0.77868">
        <ele>599.8</ele>
        <time>2022-05-23 15:09:47</time>
      </trkpt>
      <trkpt lat="41.85219" lon="0.77872">
        <ele>599.6</ele>
        <time>2022-05-23 15:09:48</time>
      </trkpt>
      <trkpt lat="41.85214" lon="0.77876">
        <ele>599.4</ele>
        <time>2022-05-23 15:09:49</time>
      </trkpt>
      <trkpt lat="41.8521" lon="0.7788">
        <ele>599.2</ele>
        <time>2022-05-23 15:09:50</time>
      </trkpt>
      <trkpt lat="41.85206" lon="0.77884">
        <ele>599</ele>
        <time>2022-05-23 15:09:51</time>
      </trkpt>
      <trkpt lat="41.85201" lon="0.77889">
        <ele>598.6</ele>
        <time>2022-05-23 15:09:52</time>
      </trkpt>
      <trkpt lat="41.85196" lon="0.77893">
        <ele>598.2</ele>
        <time>2022-05-23 15:09:53</time>
      </trkpt>
      <trkpt lat="41.85191" lon="0.77898">
        <ele>597.8</ele>
        <time>2022-05-23 15:09:54</time>
      </trkpt>
      <trkpt lat="41.85186" lon="0.77903">
        <ele>597.4</ele>
        <time>2022-05-23 15:09:55</time>
      </trkpt>
      <trkpt lat="41.8518" lon="0.77908">
        <ele>597</ele>
        <time>2022-05-23 15:09:56</time>
      </trkpt>
      <trkpt lat="41.85174" lon="0.77913">
        <ele>596.6</ele>
        <time>2022-05-23 15:09:57</time>
      </trkpt>
      <trkpt lat="41.85167" lon="0.77917">
        <ele>596</ele>
        <time>2022-05-23 15:09:58</time>
      </trkpt>
      <trkpt lat="41.85161" lon="0.77922">
        <ele>595.6</ele>
        <time>2022-05-23 15:09:59</time>
      </trkpt>
      <trkpt lat="41.85154" lon="0.77927">
        <ele>595</ele>
        <time>2022-05-23 15:10:00</time>
      </trkpt>
      <trkpt lat="41.85146" lon="0.77932">
        <ele>594.6</ele>
        <time>2022-05-23 15:10:01</time>
      </trkpt>
      <trkpt lat="41.85138" lon="0.77936">
        <ele>594</ele>
        <time>2022-05-23 15:11:01</time>
      </trkpt>
      <trkpt lat="41.85131" lon="0.77941">
        <ele>593.4</ele>
        <time>2022-05-23 15:11:02</time>
      </trkpt>
      <trkpt lat="41.85123" lon="0.77946">
        <ele>592.6</ele>
        <time>2022-05-23 15:11:03</time>
      </trkpt>
      <trkpt lat="41.85114" lon="0.77951">
        <ele>592</ele>
        <time>2022-05-23 15:11:04</time>
      </trkpt>
      <trkpt lat="41.85105" lon="0.77956">
        <ele>591.2</ele>
        <time>2022-05-23 15:11:05</time>
      </trkpt>
      <trkpt lat="41.85096" lon="0.7796">
        <ele>590.4</ele>
        <time>2022-05-23 15:11:06</time>
      </trkpt>
      <trkpt lat="41.85087" lon="0.77963">
        <ele>589.6</ele>
        <time>2022-05-23 15:11:07</time>
      </trkpt>
      <trkpt lat="41.85077" lon="0.77964">
        <ele>588.6</ele>
        <time>2022-05-23 15:11:08</time>
      </trkpt>
      <trkpt lat="41.85068" lon="0.77966">
        <ele>587.8</ele>
        <time>2022-05-23 15:11:09</time>
      </trkpt>
      <trkpt lat="41.85058" lon="0.77968">
        <ele>586.8</ele>
        <time>2022-05-23 15:11:10</time>
      </trkpt>
      <trkpt lat="41.85048" lon="0.77968">
        <ele>586</ele>
        <time>2022-05-23 15:11:11</time>
      </trkpt>
      <trkpt lat="41.85038" lon="0.77968">
        <ele>585</ele>
        <time>2022-05-23 15:11:12</time>
      </trkpt>
      <trkpt lat="41.85027" lon="0.77967">
        <ele>583.6</ele>
        <time>2022-05-23 15:11:13</time>
      </trkpt>
      <trkpt lat="41.85017" lon="0.77965">
        <ele>582.4</ele>
        <time>2022-05-23 15:11:14</time>
      </trkpt>
      <trkpt lat="41.85006" lon="0.77962">
        <ele>581.4</ele>
        <time>2022-05-23 15:11:15</time>
      </trkpt>
      <trkpt lat="41.84996" lon="0.77957">
        <ele>580.6</ele>
        <time>2022-05-23 15:11:16</time>
      </trkpt>
      <trkpt lat="41.84986" lon="0.77952">
        <ele>579.6</ele>
        <time>2022-05-23 15:11:17</time>
      </trkpt>
      <trkpt lat="41.84976" lon="0.77948">
        <ele>579</ele>
        <time>2022-05-23 15:11:18</time>
      </trkpt>
      <trkpt lat="41.84965" lon="0.77945">
        <ele>578.4</ele>
        <time>2022-05-23 15:11:19</time>
      </trkpt>
      <trkpt lat="41.84953" lon="0.77945">
        <ele>577.8</ele>
        <time>2022-05-23 15:11:20</time>
      </trkpt>
      <trkpt lat="41.84942" lon="0.77947">
        <ele>577.4</ele>
        <time>2022-05-23 15:11:21</time>
      </trkpt>
      <trkpt lat="41.84931" lon="0.77949">
        <ele>577</ele>
        <time>2022-05-23 15:11:22</time>
      </trkpt>
      <trkpt lat="41.8492" lon="0.7795">
        <ele>576.6</ele>
        <time>2022-05-23 15:11:23</time>
      </trkpt>
      <trkpt lat="41.8491" lon="0.77948">
        <ele>576.2</ele>
        <time>2022-05-23 15:11:24</time>
      </trkpt>
      <trkpt lat="41.849" lon="0.77943">
        <ele>575.8</ele>
        <time>2022-05-23 15:11:25</time>
      </trkpt>
      <trkpt lat="41.8489" lon="0.77938">
        <ele>575.2</ele>
        <time>2022-05-23 15:11:26</time>
      </trkpt>
      <trkpt lat="41.84879" lon="0.77933">
        <ele>574.6</ele>
        <time>2022-05-23 15:11:27</time>
      </trkpt>
      <trkpt lat="41.84872" lon="0.7793">
        <ele>574.2</ele>
        <time>2022-05-23 15:11:28</time>
      </trkpt>
      <trkpt lat="41.84859" lon="0.77923">
        <ele>573.8</ele>
        <time>2022-05-23 15:11:29</time>
      </trkpt>
      <trkpt lat="41.8485" lon="0.77919">
        <ele>573.4</ele>
        <time>2022-05-23 15:11:30</time>
      </trkpt>
      <trkpt lat="41.84843" lon="0.77916">
        <ele>572.8</ele>
        <time>2022-05-23 15:11:31</time>
      </trkpt>
      <trkpt lat="41.84829" lon="0.77909">
        <ele>572.2</ele>
        <time>2022-05-23 15:11:32</time>
      </trkpt>
      <trkpt lat="41.84817" lon="0.77902">
        <ele>571.4</ele>
        <time>2022-05-23 15:11:33</time>
      </trkpt>
      <trkpt lat="41.84807" lon="0.77896">
        <ele>570.6</ele>
        <time>2022-05-23 15:11:34</time>
      </trkpt>
      <trkpt lat="41.84797" lon="0.77889">
        <ele>570</ele>
        <time>2022-05-23 15:11:35</time>
      </trkpt>
      <trkpt lat="41.84787" lon="0.77882">
        <ele>569.2</ele>
        <time>2022-05-23 15:11:36</time>
      </trkpt>
      <trkpt lat="41.8478" lon="0.77874">
        <ele>568.6</ele>
        <time>2022-05-23 15:11:37</time>
      </trkpt>
      <trkpt lat="41.84769" lon="0.77864">
        <ele>568.2</ele>
        <time>2022-05-23 15:11:38</time>
      </trkpt>
      <trkpt lat="41.84762" lon="0.77856">
        <ele>567.8</ele>
        <time>2022-05-23 15:11:39</time>
      </trkpt>
      <trkpt lat="41.84753" lon="0.77847">
        <ele>567.6</ele>
        <time>2022-05-23 15:11:40</time>
      </trkpt>
      <trkpt lat="41.84744" lon="0.77839">
        <ele>567.2</ele>
        <time>2022-05-23 15:11:41</time>
      </trkpt>
      <trkpt lat="41.84734" lon="0.7783">
        <ele>567</ele>
        <time>2022-05-23 15:11:42</time>
      </trkpt>
      <trkpt lat="41.84728" lon="0.77825">
        <ele>566.8</ele>
        <time>2022-05-23 15:11:43</time>
      </trkpt>
      <trkpt lat="41.84716" lon="0.77816">
        <ele>566.4</ele>
        <time>2022-05-23 15:11:44</time>
      </trkpt>
      <trkpt lat="41.84708" lon="0.7781">
        <ele>565.8</ele>
        <time>2022-05-23 15:11:45</time>
      </trkpt>
      <trkpt lat="41.84698" lon="0.77803">
        <ele>565.4</ele>
        <time>2022-05-23 15:11:46</time>
      </trkpt>
      <trkpt lat="41.8469" lon="0.77797">
        <ele>565.2</ele>
        <time>2022-05-23 15:11:47</time>
      </trkpt>
      <trkpt lat="41.8468" lon="0.7779">
        <ele>565</ele>
        <time>2022-05-23 15:11:48</time>
      </trkpt>
      <trkpt lat="41.84672" lon="0.77784">
        <ele>564.8</ele>
        <time>2022-05-23 15:11:49</time>
      </trkpt>
      <trkpt lat="41.84664" lon="0.77779">
        <ele>564.6</ele>
        <time>2022-05-23 15:11:50</time>
      </trkpt>
      <trkpt lat="41.84655" lon="0.77772">
        <ele>564.4</ele>
        <time>2022-05-23 15:11:51</time>
      </trkpt>
      <trkpt lat="41.84647" lon="0.77767">
        <ele>564</ele>
        <time>2022-05-23 15:11:52</time>
      </trkpt>
      <trkpt lat="41.84637" lon="0.77762">
        <ele>563.8</ele>
        <time>2022-05-23 15:11:53</time>
      </trkpt>
      <trkpt lat="41.84629" lon="0.77758">
        <ele>563.8</ele>
        <time>2022-05-23 15:11:54</time>
      </trkpt>
      <trkpt lat="41.84621" lon="0.77754">
        <ele>563.6</ele>
        <time>2022-05-23 15:11:55</time>
      </trkpt>
      <trkpt lat="41.84611" lon="0.7775">
        <ele>563.2</ele>
        <time>2022-05-23 15:11:56</time>
      </trkpt>
      <trkpt lat="41.84603" lon="0.77747">
        <ele>563</ele>
        <time>2022-05-23 15:11:57</time>
      </trkpt>
      <trkpt lat="41.84594" lon="0.77743">
        <ele>562.6</ele>
        <time>2022-05-23 15:11:58</time>
      </trkpt>
      <trkpt lat="41.84585" lon="0.77739">
        <ele>562.2</ele>
        <time>2022-05-23 15:11:59</time>
      </trkpt>
      <trkpt lat="41.84577" lon="0.77736">
        <ele>562</ele>
        <time>2022-05-23 15:12:00</time>
      </trkpt>
      <trkpt lat="41.84568" lon="0.77732">
        <ele>561.6</ele>
        <time>2022-05-23 15:12:01</time>
      </trkpt>
      <trkpt lat="41.8456" lon="0.77728">
        <ele>561.4</ele>
        <time>2022-05-23 15:12:02</time>
      </trkpt>
      <trkpt lat="41.84551" lon="0.77724">
        <ele>561.2</ele>
        <time>2022-05-23 15:12:03</time>
      </trkpt>
      <trkpt lat="41.84544" lon="0.77722">
        <ele>561.2</ele>
        <time>2022-05-23 15:12:04</time>
      </trkpt>
      <trkpt lat="41.84534" lon="0.77719">
        <ele>560.8</ele>
        <time>2022-05-23 15:12:05</time>
      </trkpt>
      <trkpt lat="41.84526" lon="0.77719">
        <ele>560.6</ele>
        <time>2022-05-23 15:12:06</time>
      </trkpt>
      <trkpt lat="41.84516" lon="0.7772">
        <ele>560.2</ele>
        <time>2022-05-23 15:12:07</time>
      </trkpt>
      <trkpt lat="41.84508" lon="0.77725">
        <ele>560</ele>
        <time>2022-05-23 15:12:08</time>
      </trkpt>
      <trkpt lat="41.845" lon="0.7773">
        <ele>559.8</ele>
        <time>2022-05-23 15:12:09</time>
      </trkpt>
      <trkpt lat="41.84493" lon="0.77737">
        <ele>559.6</ele>
        <time>2022-05-23 15:12:10</time>
      </trkpt>
      <trkpt lat="41.84487" lon="0.77744">
        <ele>559.4</ele>
        <time>2022-05-23 15:12:11</time>
      </trkpt>
      <trkpt lat="41.84481" lon="0.77752">
        <ele>559.2</ele>
        <time>2022-05-23 15:12:12</time>
      </trkpt>
      <trkpt lat="41.84476" lon="0.7776">
        <ele>559</ele>
        <time>2022-05-23 15:12:13</time>
      </trkpt>
      <trkpt lat="41.8447" lon="0.7777">
        <ele>558.8</ele>
        <time>2022-05-23 15:12:14</time>
      </trkpt>
      <trkpt lat="41.84465" lon="0.77778">
        <ele>558.6</ele>
        <time>2022-05-23 15:12:15</time>
      </trkpt>
      <trkpt lat="41.8446" lon="0.77787">
        <ele>558.6</ele>
        <time>2022-05-23 15:12:16</time>
      </trkpt>
      <trkpt lat="41.84454" lon="0.77796">
        <ele>558.2</ele>
        <time>2022-05-23 15:12:17</time>
      </trkpt>
      <trkpt lat="41.84448" lon="0.77805">
        <ele>558</ele>
        <time>2022-05-23 15:12:18</time>
      </trkpt>
      <trkpt lat="41.84442" lon="0.77812">
        <ele>557.8</ele>
        <time>2022-05-23 15:12:19</time>
      </trkpt>
      <trkpt lat="41.84433" lon="0.77817">
        <ele>557</ele>
        <time>2022-05-23 15:12:20</time>
      </trkpt>
      <trkpt lat="41.84426" lon="0.77816">
        <ele>556.4</ele>
        <time>2022-05-23 15:12:21</time>
      </trkpt>
      <trkpt lat="41.84418" lon="0.7781">
        <ele>555.2</ele>
        <time>2022-05-23 15:12:22</time>
      </trkpt>
      <trkpt lat="41.84415" lon="0.77802">
        <ele>554.4</ele>
        <time>2022-05-23 15:12:23</time>
      </trkpt>
      <trkpt lat="41.84415" lon="0.77791">
        <ele>553.8</ele>
        <time>2022-05-23 15:12:24</time>
      </trkpt>
      <trkpt lat="41.84416" lon="0.7778">
        <ele>553.2</ele>
        <time>2022-05-23 15:12:25</time>
      </trkpt>
      <trkpt lat="41.84418" lon="0.77769">
        <ele>552.4</ele>
        <time>2022-05-23 15:12:26</time>
      </trkpt>
      <trkpt lat="41.8442" lon="0.77759">
        <ele>551.6</ele>
        <time>2022-05-23 15:12:27</time>
      </trkpt>
      <trkpt lat="41.84422" lon="0.77747">
        <ele>550.8</ele>
        <time>2022-05-23 15:12:28</time>
      </trkpt>
      <trkpt lat="41.84425" lon="0.77735">
        <ele>550</ele>
        <time>2022-05-23 15:12:29</time>
      </trkpt>
      <trkpt lat="41.84428" lon="0.77722">
        <ele>549.2</ele>
        <time>2022-05-23 15:12:30</time>
      </trkpt>
      <trkpt lat="41.84431" lon="0.77711">
        <ele>548.4</ele>
        <time>2022-05-23 15:12:31</time>
      </trkpt>
      <trkpt lat="41.84434" lon="0.77699">
        <ele>547.6</ele>
        <time>2022-05-23 15:12:32</time>
      </trkpt>
      <trkpt lat="41.84436" lon="0.77686">
        <ele>547</ele>
        <time>2022-05-23 15:12:33</time>
      </trkpt>
      <trkpt lat="41.84438" lon="0.77673">
        <ele>546.4</ele>
        <time>2022-05-23 15:12:34</time>
      </trkpt>
      <trkpt lat="41.84439" lon="0.77661">
        <ele>545.6</ele>
        <time>2022-05-23 15:12:35</time>
      </trkpt>
      <trkpt lat="41.8444" lon="0.77647">
        <ele>545</ele>
        <time>2022-05-23 15:12:36</time>
      </trkpt>
      <trkpt lat="41.8444" lon="0.77634">
        <ele>544.4</ele>
        <time>2022-05-23 15:12:37</time>
      </trkpt>
      <trkpt lat="41.84441" lon="0.77619">
        <ele>543.8</ele>
        <time>2022-05-23 15:12:38</time>
      </trkpt>
      <trkpt lat="41.8444" lon="0.77606">
        <ele>543.2</ele>
        <time>2022-05-23 15:12:39</time>
      </trkpt>
      <trkpt lat="41.84439" lon="0.77592">
        <ele>542.8</ele>
        <time>2022-05-23 15:12:40</time>
      </trkpt>
      <trkpt lat="41.84438" lon="0.7758">
        <ele>542.4</ele>
        <time>2022-05-23 15:12:41</time>
      </trkpt>
      <trkpt lat="41.84435" lon="0.77567">
        <ele>542.2</ele>
        <time>2022-05-23 15:12:42</time>
      </trkpt>
      <trkpt lat="41.84432" lon="0.77557">
        <ele>542</ele>
        <time>2022-05-23 15:12:43</time>
      </trkpt>
      <trkpt lat="41.84427" lon="0.77549">
        <ele>541.6</ele>
        <time>2022-05-23 15:12:44</time>
      </trkpt>
      <trkpt lat="41.84422" lon="0.77546">
        <ele>541.4</ele>
        <time>2022-05-23 15:12:45</time>
      </trkpt>
      <trkpt lat="41.84415" lon="0.77548">
        <ele>541</ele>
        <time>2022-05-23 15:12:46</time>
      </trkpt>
      <trkpt lat="41.84411" lon="0.77553">
        <ele>540.6</ele>
        <time>2022-05-23 15:12:47</time>
      </trkpt>
      <trkpt lat="41.84408" lon="0.77563">
        <ele>540</ele>
        <time>2022-05-23 15:12:48</time>
      </trkpt>
      <trkpt lat="41.84406" lon="0.77574">
        <ele>539.2</ele>
        <time>2022-05-23 15:12:49</time>
      </trkpt>
      <trkpt lat="41.84405" lon="0.77585">
        <ele>538.6</ele>
        <time>2022-05-23 15:12:50</time>
      </trkpt>
      <trkpt lat="41.84403" lon="0.77596">
        <ele>538</ele>
        <time>2022-05-23 15:12:51</time>
      </trkpt>
      <trkpt lat="41.84401" lon="0.77608">
        <ele>537.4</ele>
        <time>2022-05-23 15:12:52</time>
      </trkpt>
      <trkpt lat="41.84399" lon="0.77619">
        <ele>536.8</ele>
        <time>2022-05-23 15:12:53</time>
      </trkpt>
      <trkpt lat="41.84395" lon="0.77633">
        <ele>535.8</ele>
        <time>2022-05-23 15:12:54</time>
      </trkpt>
      <trkpt lat="41.84391" lon="0.77645">
        <ele>535.2</ele>
        <time>2022-05-23 15:12:55</time>
      </trkpt>
      <trkpt lat="41.84385" lon="0.77655">
        <ele>534.4</ele>
        <time>2022-05-23 15:12:56</time>
      </trkpt>
      <trkpt lat="41.84374" lon="0.77663">
        <ele>533.4</ele>
        <time>2022-05-23 15:12:57</time>
      </trkpt>
      <trkpt lat="41.84361" lon="0.77662">
        <ele>532.2</ele>
        <time>2022-05-23 15:12:58</time>
      </trkpt>
      <trkpt lat="41.84349" lon="0.77657">
        <ele>531</ele>
        <time>2022-05-23 15:12:59</time>
      </trkpt>
      <trkpt lat="41.84338" lon="0.77651">
        <ele>529.8</ele>
        <time>2022-05-23 15:13:00</time>
      </trkpt>
      <trkpt lat="41.84326" lon="0.77647">
        <ele>528.8</ele>
        <time>2022-05-23 15:13:01</time>
      </trkpt>
      <trkpt lat="41.84313" lon="0.77648">
        <ele>527.8</ele>
        <time>2022-05-23 15:13:02</time>
      </trkpt>
      <trkpt lat="41.84301" lon="0.7765">
        <ele>526.8</ele>
        <time>2022-05-23 15:13:03</time>
      </trkpt>
      <trkpt lat="41.84289" lon="0.77655">
        <ele>526</ele>
        <time>2022-05-23 15:13:04</time>
      </trkpt>
      <trkpt lat="41.84281" lon="0.77664">
        <ele>525.4</ele>
        <time>2022-05-23 15:13:05</time>
      </trkpt>
      <trkpt lat="41.84273" lon="0.77677">
        <ele>524.6</ele>
        <time>2022-05-23 15:13:06</time>
      </trkpt>
      <trkpt lat="41.84266" lon="0.77691">
        <ele>523.8</ele>
        <time>2022-05-23 15:13:07</time>
      </trkpt>
      <trkpt lat="41.84261" lon="0.77704">
        <ele>523.2</ele>
        <time>2022-05-23 15:13:08</time>
      </trkpt>
      <trkpt lat="41.84255" lon="0.77719">
        <ele>522.6</ele>
        <time>2022-05-23 15:13:09</time>
      </trkpt>
      <trkpt lat="41.84248" lon="0.77731">
        <ele>522</ele>
        <time>2022-05-23 15:13:10</time>
      </trkpt>
      <trkpt lat="41.84241" lon="0.77744">
        <ele>521.6</ele>
        <time>2022-05-23 15:13:11</time>
      </trkpt>
      <trkpt lat="41.84235" lon="0.77758">
        <ele>521</ele>
        <time>2022-05-23 15:13:12</time>
      </trkpt>
      <trkpt lat="41.84231" lon="0.77772">
        <ele>520.6</ele>
        <time>2022-05-23 15:13:13</time>
      </trkpt>
      <trkpt lat="41.84227" lon="0.77787">
        <ele>519.6</ele>
        <time>2022-05-23 15:13:14</time>
      </trkpt>
      <trkpt lat="41.84223" lon="0.77803">
        <ele>518.8</ele>
        <time>2022-05-23 15:13:15</time>
      </trkpt>
      <trkpt lat="41.84217" lon="0.7782">
        <ele>517.8</ele>
        <time>2022-05-23 15:13:16</time>
      </trkpt>
      <trkpt lat="41.84212" lon="0.77833">
        <ele>517.2</ele>
        <time>2022-05-23 15:13:17</time>
      </trkpt>
      <trkpt lat="41.84205" lon="0.77846">
        <ele>516.8</ele>
        <time>2022-05-23 15:13:18</time>
      </trkpt>
      <trkpt lat="41.84199" lon="0.7786">
        <ele>516.2</ele>
        <time>2022-05-23 15:13:19</time>
      </trkpt>
      <trkpt lat="41.84193" lon="0.77875">
        <ele>515.4</ele>
        <time>2022-05-23 15:13:20</time>
      </trkpt>
      <trkpt lat="41.84188" lon="0.7789">
        <ele>514.8</ele>
        <time>2022-05-23 15:13:21</time>
      </trkpt>
      <trkpt lat="41.84183" lon="0.77904">
        <ele>514</ele>
        <time>2022-05-23 15:13:22</time>
      </trkpt>
      <trkpt lat="41.84177" lon="0.77921">
        <ele>513.2</ele>
        <time>2022-05-23 15:13:23</time>
      </trkpt>
      <trkpt lat="41.84174" lon="0.77939">
        <ele>512.6</ele>
        <time>2022-05-23 15:13:24</time>
      </trkpt>
      <trkpt lat="41.8417" lon="0.77956">
        <ele>511.8</ele>
        <time>2022-05-23 15:13:25</time>
      </trkpt>
      <trkpt lat="41.84164" lon="0.77973">
        <ele>510.8</ele>
        <time>2022-05-23 15:13:26</time>
      </trkpt>
      <trkpt lat="41.84159" lon="0.77986">
        <ele>509.8</ele>
        <time>2022-05-23 15:13:27</time>
      </trkpt>
      <trkpt lat="41.84152" lon="0.78002">
        <ele>508.8</ele>
        <time>2022-05-23 15:13:28</time>
      </trkpt>
      <trkpt lat="41.84145" lon="0.78015">
        <ele>508</ele>
        <time>2022-05-23 15:13:29</time>
      </trkpt>
      <trkpt lat="41.84134" lon="0.78033">
        <ele>507.2</ele>
        <time>2022-05-23 15:13:30</time>
      </trkpt>
      <trkpt lat="41.84126" lon="0.78043">
        <ele>506.4</ele>
        <time>2022-05-23 15:13:31</time>
      </trkpt>
      <trkpt lat="41.84116" lon="0.78055">
        <ele>505.6</ele>
        <time>2022-05-23 15:13:32</time>
      </trkpt>
      <trkpt lat="41.84106" lon="0.78067">
        <ele>504.6</ele>
        <time>2022-05-23 15:13:33</time>
      </trkpt>
      <trkpt lat="41.84093" lon="0.78079">
        <ele>504</ele>
        <time>2022-05-23 15:13:34</time>
      </trkpt>
      <trkpt lat="41.84081" lon="0.78088">
        <ele>503.4</ele>
        <time>2022-05-23 15:13:35</time>
      </trkpt>
      <trkpt lat="41.84068" lon="0.78096">
        <ele>502.6</ele>
        <time>2022-05-23 15:13:36</time>
      </trkpt>
      <trkpt lat="41.84057" lon="0.78105">
        <ele>502</ele>
        <time>2022-05-23 15:13:37</time>
      </trkpt>
      <trkpt lat="41.84049" lon="0.78115">
        <ele>501.2</ele>
        <time>2022-05-23 15:13:38</time>
      </trkpt>
      <trkpt lat="41.84043" lon="0.78129">
        <ele>500.4</ele>
        <time>2022-05-23 15:13:39</time>
      </trkpt>
      <trkpt lat="41.84039" lon="0.78146">
        <ele>499.6</ele>
        <time>2022-05-23 15:13:40</time>
      </trkpt>
      <trkpt lat="41.84037" lon="0.7816">
        <ele>498.6</ele>
        <time>2022-05-23 15:13:41</time>
      </trkpt>
      <trkpt lat="41.84035" lon="0.78179">
        <ele>497.8</ele>
        <time>2022-05-23 15:13:42</time>
      </trkpt>
      <trkpt lat="41.84033" lon="0.78198">
        <ele>497</ele>
        <time>2022-05-23 15:13:43</time>
      </trkpt>
      <trkpt lat="41.8403" lon="0.78215">
        <ele>496.4</ele>
        <time>2022-05-23 15:13:44</time>
      </trkpt>
      <trkpt lat="41.84027" lon="0.78234">
        <ele>495.8</ele>
        <time>2022-05-23 15:13:45</time>
      </trkpt>
      <trkpt lat="41.84025" lon="0.78251">
        <ele>495.4</ele>
        <time>2022-05-23 15:13:46</time>
      </trkpt>
      <trkpt lat="41.84024" lon="0.7827">
        <ele>494.6</ele>
        <time>2022-05-23 15:13:47</time>
      </trkpt>
      <trkpt lat="41.84023" lon="0.78287">
        <ele>493.8</ele>
        <time>2022-05-23 15:13:48</time>
      </trkpt>
      <trkpt lat="41.84023" lon="0.78304">
        <ele>492.8</ele>
        <time>2022-05-23 15:13:49</time>
      </trkpt>
      <trkpt lat="41.84022" lon="0.78322">
        <ele>492</ele>
        <time>2022-05-23 15:13:50</time>
      </trkpt>
      <trkpt lat="41.84019" lon="0.7834">
        <ele>491</ele>
        <time>2022-05-23 15:13:51</time>
      </trkpt>
      <trkpt lat="41.84015" lon="0.78356">
        <ele>490.2</ele>
        <time>2022-05-23 15:13:52</time>
      </trkpt>
      <trkpt lat="41.84011" lon="0.78375">
        <ele>489.4</ele>
        <time>2022-05-23 15:13:53</time>
      </trkpt>
      <trkpt lat="41.84008" lon="0.78391">
        <ele>488.6</ele>
        <time>2022-05-23 15:13:54</time>
      </trkpt>
      <trkpt lat="41.84006" lon="0.78411">
        <ele>487.8</ele>
        <time>2022-05-23 15:13:55</time>
      </trkpt>
      <trkpt lat="41.84007" lon="0.7843">
        <ele>487</ele>
        <time>2022-05-23 15:13:56</time>
      </trkpt>
      <trkpt lat="41.84009" lon="0.78448">
        <ele>486.2</ele>
        <time>2022-05-23 15:13:57</time>
      </trkpt>
      <trkpt lat="41.84012" lon="0.78466">
        <ele>485.2</ele>
        <time>2022-05-23 15:13:58</time>
      </trkpt>
      <trkpt lat="41.84015" lon="0.78487">
        <ele>484</ele>
        <time>2022-05-23 15:13:59</time>
      </trkpt>
      <trkpt lat="41.84015" lon="0.78507">
        <ele>483</ele>
        <time>2022-05-23 15:14:00</time>
      </trkpt>
      <trkpt lat="41.84012" lon="0.78527">
        <ele>482.2</ele>
        <time>2022-05-23 15:14:01</time>
      </trkpt>
      <trkpt lat="41.84008" lon="0.78546">
        <ele>481.4</ele>
        <time>2022-05-23 15:14:02</time>
      </trkpt>
      <trkpt lat="41.84003" lon="0.78562">
        <ele>480.4</ele>
        <time>2022-05-23 15:14:03</time>
      </trkpt>
      <trkpt lat="41.83998" lon="0.7858">
        <ele>479.6</ele>
        <time>2022-05-23 15:14:04</time>
      </trkpt>
      <trkpt lat="41.83993" lon="0.78598">
        <ele>478.8</ele>
        <time>2022-05-23 15:14:05</time>
      </trkpt>
      <trkpt lat="41.83988" lon="0.78613">
        <ele>478.2</ele>
        <time>2022-05-23 15:14:06</time>
      </trkpt>
      <trkpt lat="41.83983" lon="0.78624">
        <ele>477.6</ele>
        <time>2022-05-23 15:14:07</time>
      </trkpt>
      <trkpt lat="41.83976" lon="0.78635">
        <ele>477.2</ele>
        <time>2022-05-23 15:14:08</time>
      </trkpt>
      <trkpt lat="41.83969" lon="0.78643">
        <ele>476.6</ele>
        <time>2022-05-23 15:14:09</time>
      </trkpt>
      <trkpt lat="41.83961" lon="0.7865">
        <ele>476</ele>
        <time>2022-05-23 15:14:10</time>
      </trkpt>
      <trkpt lat="41.8395" lon="0.78656">
        <ele>475.2</ele>
        <time>2022-05-23 15:14:11</time>
      </trkpt>
      <trkpt lat="41.83939" lon="0.78662">
        <ele>474.4</ele>
        <time>2022-05-23 15:14:12</time>
      </trkpt>
      <trkpt lat="41.83929" lon="0.78665">
        <ele>473.8</ele>
        <time>2022-05-23 15:14:13</time>
      </trkpt>
      <trkpt lat="41.83918" lon="0.78667">
        <ele>473</ele>
        <time>2022-05-23 15:14:14</time>
      </trkpt>
      <trkpt lat="41.83906" lon="0.78666">
        <ele>472.2</ele>
        <time>2022-05-23 15:14:15</time>
      </trkpt>
      <trkpt lat="41.83896" lon="0.78666">
        <ele>471.4</ele>
        <time>2022-05-23 15:14:16</time>
      </trkpt>
      <trkpt lat="41.83885" lon="0.78667">
        <ele>470.6</ele>
        <time>2022-05-23 15:14:17</time>
      </trkpt>
      <trkpt lat="41.83874" lon="0.78667">
        <ele>469.6</ele>
        <time>2022-05-23 15:14:18</time>
      </trkpt>
      <trkpt lat="41.83863" lon="0.78667">
        <ele>469.2</ele>
        <time>2022-05-23 15:14:19</time>
      </trkpt>
      <trkpt lat="41.83852" lon="0.78668">
        <ele>468.8</ele>
        <time>2022-05-23 15:14:20</time>
      </trkpt>
      <trkpt lat="41.83841" lon="0.78671">
        <ele>468.4</ele>
        <time>2022-05-23 15:14:21</time>
      </trkpt>
      <trkpt lat="41.83831" lon="0.78675">
        <ele>468</ele>
        <time>2022-05-23 15:14:22</time>
      </trkpt>
      <trkpt lat="41.8382" lon="0.78681">
        <ele>467.6</ele>
        <time>2022-05-23 15:14:23</time>
      </trkpt>
      <trkpt lat="41.8381" lon="0.78687">
        <ele>466.8</ele>
        <time>2022-05-23 15:14:24</time>
      </trkpt>
      <trkpt lat="41.83798" lon="0.78692">
        <ele>466</ele>
        <time>2022-05-23 15:14:25</time>
      </trkpt>
      <trkpt lat="41.83787" lon="0.78696">
        <ele>465.2</ele>
        <time>2022-05-23 15:14:26</time>
      </trkpt>
      <trkpt lat="41.83775" lon="0.787">
        <ele>464.2</ele>
        <time>2022-05-23 15:14:27</time>
      </trkpt>
      <trkpt lat="41.83762" lon="0.78704">
        <ele>463.4</ele>
        <time>2022-05-23 15:14:28</time>
      </trkpt>
      <trkpt lat="41.83749" lon="0.78708">
        <ele>462.4</ele>
        <time>2022-05-23 15:14:29</time>
      </trkpt>
      <trkpt lat="41.83738" lon="0.7871">
        <ele>461.6</ele>
        <time>2022-05-23 15:14:30</time>
      </trkpt>
      <trkpt lat="41.83724" lon="0.78712">
        <ele>460.6</ele>
        <time>2022-05-23 15:14:31</time>
      </trkpt>
      <trkpt lat="41.83713" lon="0.78712">
        <ele>459.8</ele>
        <time>2022-05-23 15:14:32</time>
      </trkpt>
      <trkpt lat="41.83698" lon="0.78714">
        <ele>459</ele>
        <time>2022-05-23 15:14:33</time>
      </trkpt>
      <trkpt lat="41.83686" lon="0.78717">
        <ele>458</ele>
        <time>2022-05-23 15:14:34</time>
      </trkpt>
      <trkpt lat="41.83674" lon="0.78724">
        <ele>457.2</ele>
        <time>2022-05-23 15:14:35</time>
      </trkpt>
      <trkpt lat="41.83663" lon="0.78731">
        <ele>456.4</ele>
        <time>2022-05-23 15:14:36</time>
      </trkpt>
      <trkpt lat="41.83653" lon="0.78739">
        <ele>455.8</ele>
        <time>2022-05-23 15:14:37</time>
      </trkpt>
      <trkpt lat="41.8364" lon="0.78748">
        <ele>455</ele>
        <time>2022-05-23 15:14:38</time>
      </trkpt>
      <trkpt lat="41.83629" lon="0.78756">
        <ele>454.2</ele>
        <time>2022-05-23 15:14:39</time>
      </trkpt>
      <trkpt lat="41.83618" lon="0.78765">
        <ele>453.4</ele>
        <time>2022-05-23 15:14:40</time>
      </trkpt>
      <trkpt lat="41.83608" lon="0.78773">
        <ele>453</ele>
        <time>2022-05-23 15:14:41</time>
      </trkpt>
      <trkpt lat="41.83597" lon="0.78785">
        <ele>452</ele>
        <time>2022-05-23 15:14:42</time>
      </trkpt>
      <trkpt lat="41.83588" lon="0.78796">
        <ele>451.4</ele>
        <time>2022-05-23 15:14:43</time>
      </trkpt>
      <trkpt lat="41.83581" lon="0.78809">
        <ele>450.8</ele>
        <time>2022-05-23 15:14:44</time>
      </trkpt>
      <trkpt lat="41.83574" lon="0.78823">
        <ele>450</ele>
        <time>2022-05-23 15:14:45</time>
      </trkpt>
      <trkpt lat="41.83568" lon="0.78839">
        <ele>449.4</ele>
        <time>2022-05-23 15:14:46</time>
      </trkpt>
      <trkpt lat="41.83563" lon="0.78854">
        <ele>448.6</ele>
        <time>2022-05-23 15:14:47</time>
      </trkpt>
      <trkpt lat="41.83559" lon="0.7887">
        <ele>448</ele>
        <time>2022-05-23 15:14:48</time>
      </trkpt>
      <trkpt lat="41.83556" lon="0.78888">
        <ele>447.4</ele>
        <time>2022-05-23 15:14:49</time>
      </trkpt>
      <trkpt lat="41.83554" lon="0.78903">
        <ele>446.8</ele>
        <time>2022-05-23 15:14:50</time>
      </trkpt>
      <trkpt lat="41.83551" lon="0.7892">
        <ele>446</ele>
        <time>2022-05-23 15:14:51</time>
      </trkpt>
      <trkpt lat="41.83547" lon="0.78937">
        <ele>445.4</ele>
        <time>2022-05-23 15:14:52</time>
      </trkpt>
      <trkpt lat="41.83544" lon="0.78953">
        <ele>444.8</ele>
        <time>2022-05-23 15:14:53</time>
      </trkpt>
      <trkpt lat="41.8354" lon="0.78969">
        <ele>444</ele>
        <time>2022-05-23 15:14:54</time>
      </trkpt>
      <trkpt lat="41.83538" lon="0.78986">
        <ele>443.2</ele>
        <time>2022-05-23 15:14:55</time>
      </trkpt>
      <trkpt lat="41.83536" lon="0.79004">
        <ele>442.6</ele>
        <time>2022-05-23 15:14:56</time>
      </trkpt>
      <trkpt lat="41.83534" lon="0.7902">
        <ele>442.2</ele>
        <time>2022-05-23 15:14:57</time>
      </trkpt>
      <trkpt lat="41.83533" lon="0.79036">
        <ele>441.8</ele>
        <time>2022-05-23 15:14:58</time>
      </trkpt>
      <trkpt lat="41.83532" lon="0.79053">
        <ele>441.2</ele>
        <time>2022-05-23 15:14:59</time>
      </trkpt>
      <trkpt lat="41.8353" lon="0.79068">
        <ele>440.8</ele>
        <time>2022-05-23 15:15:00</time>
      </trkpt>
      <trkpt lat="41.83528" lon="0.79084">
        <ele>440.2</ele>
        <time>2022-05-23 15:15:01</time>
      </trkpt>
      <trkpt lat="41.83526" lon="0.791">
        <ele>439.4</ele>
        <time>2022-05-23 15:15:02</time>
      </trkpt>
      <trkpt lat="41.83522" lon="0.79117">
        <ele>438.6</ele>
        <time>2022-05-23 15:15:03</time>
      </trkpt>
      <trkpt lat="41.83517" lon="0.79132">
        <ele>437.8</ele>
        <time>2022-05-23 15:15:04</time>
      </trkpt>
      <trkpt lat="41.83511" lon="0.79147">
        <ele>436.8</ele>
        <time>2022-05-23 15:15:05</time>
      </trkpt>
      <trkpt lat="41.83505" lon="0.79161">
        <ele>435.8</ele>
        <time>2022-05-23 15:15:06</time>
      </trkpt>
      <trkpt lat="41.83499" lon="0.79175">
        <ele>434.8</ele>
        <time>2022-05-23 15:15:07</time>
      </trkpt>
      <trkpt lat="41.83495" lon="0.7919">
        <ele>434.2</ele>
        <time>2022-05-23 15:15:08</time>
      </trkpt>
      <trkpt lat="41.83496" lon="0.79205">
        <ele>433.4</ele>
        <time>2022-05-23 15:15:09</time>
      </trkpt>
      <trkpt lat="41.83499" lon="0.79219">
        <ele>432.8</ele>
        <time>2022-05-23 15:15:10</time>
      </trkpt>
      <trkpt lat="41.83506" lon="0.79233">
        <ele>432.2</ele>
        <time>2022-05-23 15:15:11</time>
      </trkpt>
      <trkpt lat="41.83513" lon="0.79248">
        <ele>431.6</ele>
        <time>2022-05-23 15:15:12</time>
      </trkpt>
      <trkpt lat="41.83517" lon="0.79261">
        <ele>431</ele>
        <time>2022-05-23 15:15:13</time>
      </trkpt>
      <trkpt lat="41.83519" lon="0.79272">
        <ele>430.2</ele>
        <time>2022-05-23 15:15:14</time>
      </trkpt>
      <trkpt lat="41.83518" lon="0.79285">
        <ele>429.6</ele>
        <time>2022-05-23 15:15:15</time>
      </trkpt>
      <trkpt lat="41.83514" lon="0.793">
        <ele>428.4</ele>
        <time>2022-05-23 15:15:16</time>
      </trkpt>
      <trkpt lat="41.83506" lon="0.79313">
        <ele>427.4</ele>
        <time>2022-05-23 15:15:17</time>
      </trkpt>
      <trkpt lat="41.83497" lon="0.79325">
        <ele>426.2</ele>
        <time>2022-05-23 15:15:18</time>
      </trkpt>
      <trkpt lat="41.83488" lon="0.79336">
        <ele>425</ele>
        <time>2022-05-23 15:15:19</time>
      </trkpt>
      <trkpt lat="41.83478" lon="0.7935">
        <ele>423.8</ele>
        <time>2022-05-23 15:15:20</time>
      </trkpt>
      <trkpt lat="41.83469" lon="0.79365">
        <ele>422.6</ele>
        <time>2022-05-23 15:15:21</time>
      </trkpt>
      <trkpt lat="41.83462" lon="0.79381">
        <ele>421.6</ele>
        <time>2022-05-23 15:15:22</time>
      </trkpt>
      <trkpt lat="41.83456" lon="0.79396">
        <ele>420.8</ele>
        <time>2022-05-23 15:15:23</time>
      </trkpt>
      <trkpt lat="41.83452" lon="0.79412">
        <ele>420</ele>
        <time>2022-05-23 15:15:24</time>
      </trkpt>
      <trkpt lat="41.83447" lon="0.79429">
        <ele>419.2</ele>
        <time>2022-05-23 15:15:25</time>
      </trkpt>
      <trkpt lat="41.83442" lon="0.79446">
        <ele>418.4</ele>
        <time>2022-05-23 15:15:26</time>
      </trkpt>
      <trkpt lat="41.83435" lon="0.7946">
        <ele>417.2</ele>
        <time>2022-05-23 15:15:27</time>
      </trkpt>
      <trkpt lat="41.83429" lon="0.79471">
        <ele>416.2</ele>
        <time>2022-05-23 15:15:28</time>
      </trkpt>
      <trkpt lat="41.83421" lon="0.79487">
        <ele>415.4</ele>
        <time>2022-05-23 15:15:29</time>
      </trkpt>
      <trkpt lat="41.83412" lon="0.79506">
        <ele>414.4</ele>
        <time>2022-05-23 15:15:30</time>
      </trkpt>
      <trkpt lat="41.83406" lon="0.79521">
        <ele>413.8</ele>
        <time>2022-05-23 15:15:31</time>
      </trkpt>
      <trkpt lat="41.834" lon="0.79536">
        <ele>413</ele>
        <time>2022-05-23 15:15:32</time>
      </trkpt>
      <trkpt lat="41.83394" lon="0.79551">
        <ele>412.4</ele>
        <time>2022-05-23 15:15:33</time>
      </trkpt>
      <trkpt lat="41.83387" lon="0.79561">
        <ele>411.8</ele>
        <time>2022-05-23 15:15:34</time>
      </trkpt>
      <trkpt lat="41.83378" lon="0.79567">
        <ele>411</ele>
        <time>2022-05-23 15:15:35</time>
      </trkpt>
      <trkpt lat="41.83367" lon="0.79569">
        <ele>410.2</ele>
        <time>2022-05-23 15:15:36</time>
      </trkpt>
      <trkpt lat="41.83356" lon="0.79568">
        <ele>409.2</ele>
        <time>2022-05-23 15:15:37</time>
      </trkpt>
      <trkpt lat="41.83345" lon="0.79567">
        <ele>408.2</ele>
        <time>2022-05-23 15:15:38</time>
      </trkpt>
      <trkpt lat="41.83335" lon="0.79568">
        <ele>407.6</ele>
        <time>2022-05-23 15:15:39</time>
      </trkpt>
      <trkpt lat="41.83326" lon="0.79572">
        <ele>406.8</ele>
        <time>2022-05-23 15:15:40</time>
      </trkpt>
      <trkpt lat="41.83318" lon="0.79579">
        <ele>406</ele>
        <time>2022-05-23 15:15:41</time>
      </trkpt>
      <trkpt lat="41.83313" lon="0.79591">
        <ele>405.2</ele>
        <time>2022-05-23 15:15:42</time>
      </trkpt>
      <trkpt lat="41.83313" lon="0.79603">
        <ele>404.4</ele>
        <time>2022-05-23 15:15:43</time>
      </trkpt>
      <trkpt lat="41.83316" lon="0.79614">
        <ele>403.8</ele>
        <time>2022-05-23 15:15:44</time>
      </trkpt>
      <trkpt lat="41.83322" lon="0.79623">
        <ele>402.8</ele>
        <time>2022-05-23 15:15:45</time>
      </trkpt>
      <trkpt lat="41.83331" lon="0.79628">
        <ele>402.2</ele>
        <time>2022-05-23 15:15:46</time>
      </trkpt>
      <trkpt lat="41.8334" lon="0.79633">
        <ele>401.4</ele>
        <time>2022-05-23 15:15:47</time>
      </trkpt>
      <trkpt lat="41.8335" lon="0.79635">
        <ele>400.4</ele>
        <time>2022-05-23 15:15:48</time>
      </trkpt>
      <trkpt lat="41.8336" lon="0.79638">
        <ele>399.4</ele>
        <time>2022-05-23 15:15:49</time>
      </trkpt>
      <trkpt lat="41.83369" lon="0.79643">
        <ele>398.8</ele>
        <time>2022-05-23 15:15:50</time>
      </trkpt>
      <trkpt lat="41.83377" lon="0.79652">
        <ele>398.2</ele>
        <time>2022-05-23 15:15:51</time>
      </trkpt>
      <trkpt lat="41.83385" lon="0.79663">
        <ele>397.6</ele>
        <time>2022-05-23 15:15:52</time>
      </trkpt>
      <trkpt lat="41.83391" lon="0.79675">
        <ele>397.2</ele>
        <time>2022-05-23 15:15:53</time>
      </trkpt>
      <trkpt lat="41.83397" lon="0.79687">
        <ele>396.8</ele>
        <time>2022-05-23 15:15:54</time>
      </trkpt>
      <trkpt lat="41.83401" lon="0.79699">
        <ele>396.4</ele>
        <time>2022-05-23 15:15:55</time>
      </trkpt>
      <trkpt lat="41.83404" lon="0.79712">
        <ele>396.2</ele>
        <time>2022-05-23 15:15:56</time>
      </trkpt>
      <trkpt lat="41.83405" lon="0.79725">
        <ele>396</ele>
        <time>2022-05-23 15:15:57</time>
      </trkpt>
      <trkpt lat="41.83403" lon="0.79736">
        <ele>396</ele>
        <time>2022-05-23 15:15:58</time>
      </trkpt>
      <trkpt lat="41.834" lon="0.79748">
        <ele>396</ele>
        <time>2022-05-23 15:15:59</time>
      </trkpt>
      <trkpt lat="41.83395" lon="0.79757">
        <ele>396</ele>
        <time>2022-05-23 15:16:00</time>
      </trkpt>
      <trkpt lat="41.83389" lon="0.79764">
        <ele>396.2</ele>
        <time>2022-05-23 15:16:01</time>
      </trkpt>
      <trkpt lat="41.83381" lon="0.7977">
        <ele>396.4</ele>
        <time>2022-05-23 15:16:02</time>
      </trkpt>
      <trkpt lat="41.83375" lon="0.79775">
        <ele>396.8</ele>
        <time>2022-05-23 15:16:03</time>
      </trkpt>
      <trkpt lat="41.83368" lon="0.79781">
        <ele>396.8</ele>
        <time>2022-05-23 15:16:04</time>
      </trkpt>
      <trkpt lat="41.83362" lon="0.79787">
        <ele>397</ele>
        <time>2022-05-23 15:16:05</time>
      </trkpt>
      <trkpt lat="41.83355" lon="0.79793">
        <ele>397.2</ele>
        <time>2022-05-23 15:16:06</time>
      </trkpt>
      <trkpt lat="41.83349" lon="0.79798">
        <ele>397.4</ele>
        <time>2022-05-23 15:16:07</time>
      </trkpt>
      <trkpt lat="41.83342" lon="0.79803">
        <ele>397.4</ele>
        <time>2022-05-23 15:16:08</time>
      </trkpt>
      <trkpt lat="41.83335" lon="0.79809">
        <ele>397.4</ele>
        <time>2022-05-23 15:16:09</time>
      </trkpt>
      <trkpt lat="41.83329" lon="0.79815">
        <ele>397.4</ele>
        <time>2022-05-23 15:16:10</time>
      </trkpt>
      <trkpt lat="41.83323" lon="0.79822">
        <ele>397.4</ele>
        <time>2022-05-23 15:16:11</time>
      </trkpt>
      <trkpt lat="41.83317" lon="0.79829">
        <ele>397.6</ele>
        <time>2022-05-23 15:16:12</time>
      </trkpt>
      <trkpt lat="41.83312" lon="0.79837">
        <ele>397.4</ele>
        <time>2022-05-23 15:16:13</time>
      </trkpt>
      <trkpt lat="41.83307" lon="0.79845">
        <ele>397</ele>
        <time>2022-05-23 15:16:14</time>
      </trkpt>
      <trkpt lat="41.83301" lon="0.79853">
        <ele>396.8</ele>
        <time>2022-05-23 15:16:15</time>
      </trkpt>
      <trkpt lat="41.83296" lon="0.79861">
        <ele>396.4</ele>
        <time>2022-05-23 15:16:16</time>
      </trkpt>
      <trkpt lat="41.8329" lon="0.7987">
        <ele>396</ele>
        <time>2022-05-23 15:16:17</time>
      </trkpt>
      <trkpt lat="41.83284" lon="0.79878">
        <ele>395.6</ele>
        <time>2022-05-23 15:16:18</time>
      </trkpt>
      <trkpt lat="41.83278" lon="0.79887">
        <ele>395</ele>
        <time>2022-05-23 15:16:19</time>
      </trkpt>
      <trkpt lat="41.83272" lon="0.79897">
        <ele>394.6</ele>
        <time>2022-05-23 15:16:20</time>
      </trkpt>
      <trkpt lat="41.83265" lon="0.79907">
        <ele>394.2</ele>
        <time>2022-05-23 15:16:21</time>
      </trkpt>
      <trkpt lat="41.83257" lon="0.79918">
        <ele>393.8</ele>
        <time>2022-05-23 15:16:22</time>
      </trkpt>
      <trkpt lat="41.8325" lon="0.79926">
        <ele>393.2</ele>
        <time>2022-05-23 15:16:23</time>
      </trkpt>
      <trkpt lat="41.83241" lon="0.79933">
        <ele>392</ele>
        <time>2022-05-23 15:16:24</time>
      </trkpt>
      <trkpt lat="41.8323" lon="0.79937">
        <ele>391</ele>
        <time>2022-05-23 15:16:25</time>
      </trkpt>
      <trkpt lat="41.83219" lon="0.79938">
        <ele>390.2</ele>
        <time>2022-05-23 15:16:26</time>
      </trkpt>
      <trkpt lat="41.83206" lon="0.79938">
        <ele>389.6</ele>
        <time>2022-05-23 15:16:27</time>
      </trkpt>
      <trkpt lat="41.83195" lon="0.79937">
        <ele>388.4</ele>
        <time>2022-05-23 15:16:28</time>
      </trkpt>
      <trkpt lat="41.83184" lon="0.79935">
        <ele>387.4</ele>
        <time>2022-05-23 15:16:29</time>
      </trkpt>
      <trkpt lat="41.83175" lon="0.7993">
        <ele>386.8</ele>
        <time>2022-05-23 15:16:30</time>
      </trkpt>
      <trkpt lat="41.83166" lon="0.79924">
        <ele>386.2</ele>
        <time>2022-05-23 15:16:31</time>
      </trkpt>
      <trkpt lat="41.83158" lon="0.79917">
        <ele>385.8</ele>
        <time>2022-05-23 15:16:32</time>
      </trkpt>
      <trkpt lat="41.83149" lon="0.7991">
        <ele>385.4</ele>
        <time>2022-05-23 15:16:33</time>
      </trkpt>
      <trkpt lat="41.8314" lon="0.79905">
        <ele>384.8</ele>
        <time>2022-05-23 15:16:34</time>
      </trkpt>
      <trkpt lat="41.83132" lon="0.79903">
        <ele>384.2</ele>
        <time>2022-05-23 15:16:35</time>
      </trkpt>
      <trkpt lat="41.8312" lon="0.79903">
        <ele>383.6</ele>
        <time>2022-05-23 15:16:36</time>
      </trkpt>
      <trkpt lat="41.8311" lon="0.79905">
        <ele>383</ele>
        <time>2022-05-23 15:16:37</time>
      </trkpt>
      <trkpt lat="41.83099" lon="0.79912">
        <ele>382.4</ele>
        <time>2022-05-23 15:16:38</time>
      </trkpt>
      <trkpt lat="41.83089" lon="0.79921">
        <ele>382</ele>
        <time>2022-05-23 15:16:39</time>
      </trkpt>
      <trkpt lat="41.8308" lon="0.7993">
        <ele>381.4</ele>
        <time>2022-05-23 15:16:40</time>
      </trkpt>
      <trkpt lat="41.83071" lon="0.79938">
        <ele>380.8</ele>
        <time>2022-05-23 15:16:41</time>
      </trkpt>
      <trkpt lat="41.83061" lon="0.79947">
        <ele>380</ele>
        <time>2022-05-23 15:16:42</time>
      </trkpt>
      <trkpt lat="41.83052" lon="0.79956">
        <ele>379.2</ele>
        <time>2022-05-23 15:16:43</time>
      </trkpt>
      <trkpt lat="41.83041" lon="0.79965">
        <ele>378.2</ele>
        <time>2022-05-23 15:16:44</time>
      </trkpt>
      <trkpt lat="41.83032" lon="0.79972">
        <ele>377.4</ele>
        <time>2022-05-23 15:16:45</time>
      </trkpt>
      <trkpt lat="41.83022" lon="0.79979">
        <ele>376.6</ele>
        <time>2022-05-23 15:16:46</time>
      </trkpt>
      <trkpt lat="41.83012" lon="0.79983">
        <ele>375.8</ele>
        <time>2022-05-23 15:16:47</time>
      </trkpt>
      <trkpt lat="41.83001" lon="0.79984">
        <ele>375.2</ele>
        <time>2022-05-23 15:16:48</time>
      </trkpt>
      <trkpt lat="41.8299" lon="0.79981">
        <ele>374.4</ele>
        <time>2022-05-23 15:16:49</time>
      </trkpt>
      <trkpt lat="41.82978" lon="0.79972">
        <ele>372.8</ele>
        <time>2022-05-23 15:16:50</time>
      </trkpt>
      <trkpt lat="41.82968" lon="0.79965">
        <ele>371.4</ele>
        <time>2022-05-23 15:16:51</time>
      </trkpt>
      <trkpt lat="41.82958" lon="0.79958">
        <ele>370.2</ele>
        <time>2022-05-23 15:16:52</time>
      </trkpt>
      <trkpt lat="41.82947" lon="0.79954">
        <ele>369.8</ele>
        <time>2022-05-23 15:16:53</time>
      </trkpt>
      <trkpt lat="41.82937" lon="0.79951">
        <ele>369.2</ele>
        <time>2022-05-23 15:16:54</time>
      </trkpt>
      <trkpt lat="41.82926" lon="0.79948">
        <ele>368.8</ele>
        <time>2022-05-23 15:16:55</time>
      </trkpt>
      <trkpt lat="41.82916" lon="0.79946">
        <ele>368.4</ele>
        <time>2022-05-23 15:16:56</time>
      </trkpt>
      <trkpt lat="41.82906" lon="0.79943">
        <ele>368.2</ele>
        <time>2022-05-23 15:16:57</time>
      </trkpt>
      <trkpt lat="41.82897" lon="0.79938">
        <ele>368</ele>
        <time>2022-05-23 15:16:58</time>
      </trkpt>
      <trkpt lat="41.82888" lon="0.79937">
        <ele>367.6</ele>
        <time>2022-05-23 15:16:59</time>
      </trkpt>
      <trkpt lat="41.82877" lon="0.79937">
        <ele>367.2</ele>
        <time>2022-05-23 15:17:00</time>
      </trkpt>
      <trkpt lat="41.82868" lon="0.79937">
        <ele>366.6</ele>
        <time>2022-05-23 15:17:01</time>
      </trkpt>
      <trkpt lat="41.82859" lon="0.7994">
        <ele>366.2</ele>
        <time>2022-05-23 15:17:02</time>
      </trkpt>
      <trkpt lat="41.8285" lon="0.79942">
        <ele>366</ele>
        <time>2022-05-23 15:17:03</time>
      </trkpt>
      <trkpt lat="41.8284" lon="0.79945">
        <ele>365.8</ele>
        <time>2022-05-23 15:17:04</time>
      </trkpt>
      <trkpt lat="41.82831" lon="0.79947">
        <ele>365.6</ele>
        <time>2022-05-23 15:17:05</time>
      </trkpt>
      <trkpt lat="41.82823" lon="0.79948">
        <ele>365.4</ele>
        <time>2022-05-23 15:17:06</time>
      </trkpt>
      <trkpt lat="41.82815" lon="0.7995">
        <ele>365</ele>
        <time>2022-05-23 15:17:07</time>
      </trkpt>
      <trkpt lat="41.82807" lon="0.79952">
        <ele>364.6</ele>
        <time>2022-05-23 15:17:08</time>
      </trkpt>
      <trkpt lat="41.82798" lon="0.79954">
        <ele>364</ele>
        <time>2022-05-23 15:17:09</time>
      </trkpt>
      <trkpt lat="41.8279" lon="0.79957">
        <ele>363.2</ele>
        <time>2022-05-23 15:17:10</time>
      </trkpt>
      <trkpt lat="41.82781" lon="0.79961">
        <ele>362.8</ele>
        <time>2022-05-23 15:17:11</time>
      </trkpt>
      <trkpt lat="41.82773" lon="0.79964">
        <ele>362.2</ele>
        <time>2022-05-23 15:17:12</time>
      </trkpt>
      <trkpt lat="41.82764" lon="0.79968">
        <ele>361.4</ele>
        <time>2022-05-23 15:17:13</time>
      </trkpt>
      <trkpt lat="41.82754" lon="0.79971">
        <ele>360.4</ele>
        <time>2022-05-23 15:17:14</time>
      </trkpt>
      <trkpt lat="41.82744" lon="0.79974">
        <ele>359.6</ele>
        <time>2022-05-23 15:17:15</time>
      </trkpt>
      <trkpt lat="41.82733" lon="0.79976">
        <ele>358.6</ele>
        <time>2022-05-23 15:17:16</time>
      </trkpt>
      <trkpt lat="41.82722" lon="0.79978">
        <ele>357.8</ele>
        <time>2022-05-23 15:17:17</time>
      </trkpt>
      <trkpt lat="41.82711" lon="0.79981">
        <ele>357</ele>
        <time>2022-05-23 15:17:18</time>
      </trkpt>
      <trkpt lat="41.82701" lon="0.79985">
        <ele>356.4</ele>
        <time>2022-05-23 15:17:19</time>
      </trkpt>
      <trkpt lat="41.82691" lon="0.7999">
        <ele>356</ele>
        <time>2022-05-23 15:17:20</time>
      </trkpt>
      <trkpt lat="41.82681" lon="0.79997">
        <ele>355.8</ele>
        <time>2022-05-23 15:17:21</time>
      </trkpt>
      <trkpt lat="41.82672" lon="0.80006">
        <ele>355.4</ele>
        <time>2022-05-23 15:17:22</time>
      </trkpt>
      <trkpt lat="41.82664" lon="0.80016">
        <ele>355.2</ele>
        <time>2022-05-23 15:17:23</time>
      </trkpt>
      <trkpt lat="41.82656" lon="0.80024">
        <ele>354.8</ele>
        <time>2022-05-23 15:17:24</time>
      </trkpt>
      <trkpt lat="41.82649" lon="0.80035">
        <ele>354.6</ele>
        <time>2022-05-23 15:17:25</time>
      </trkpt>
      <trkpt lat="41.82642" lon="0.80046">
        <ele>354.6</ele>
        <time>2022-05-23 15:17:26</time>
      </trkpt>
      <trkpt lat="41.82635" lon="0.80057">
        <ele>354.4</ele>
        <time>2022-05-23 15:17:27</time>
      </trkpt>
      <trkpt lat="41.8263" lon="0.80068">
        <ele>354.2</ele>
        <time>2022-05-23 15:17:28</time>
      </trkpt>
      <trkpt lat="41.82623" lon="0.80078">
        <ele>354.2</ele>
        <time>2022-05-23 15:17:29</time>
      </trkpt>
      <trkpt lat="41.82616" lon="0.80087">
        <ele>354.2</ele>
        <time>2022-05-23 15:17:30</time>
      </trkpt>
      <trkpt lat="41.82608" lon="0.80093">
        <ele>354.2</ele>
        <time>2022-05-23 15:17:31</time>
      </trkpt>
      <trkpt lat="41.82599" lon="0.80099">
        <ele>354.2</ele>
        <time>2022-05-23 15:17:32</time>
      </trkpt>
      <trkpt lat="41.8259" lon="0.80103">
        <ele>354.2</ele>
        <time>2022-05-23 15:17:33</time>
      </trkpt>
      <trkpt lat="41.82583" lon="0.80107">
        <ele>354.2</ele>
        <time>2022-05-23 15:17:34</time>
      </trkpt>
      <trkpt lat="41.82575" lon="0.80111">
        <ele>354</ele>
        <time>2022-05-23 15:17:35</time>
      </trkpt>
      <trkpt lat="41.82567" lon="0.80114">
        <ele>353.8</ele>
        <time>2022-05-23 15:17:36</time>
      </trkpt>
      <trkpt lat="41.8256" lon="0.80117">
        <ele>353.6</ele>
        <time>2022-05-23 15:17:37</time>
      </trkpt>
      <trkpt lat="41.82551" lon="0.80119">
        <ele>353.2</ele>
        <time>2022-05-23 15:17:38</time>
      </trkpt>
      <trkpt lat="41.82543" lon="0.8012">
        <ele>352.8</ele>
        <time>2022-05-23 15:17:39</time>
      </trkpt>
      <trkpt lat="41.82535" lon="0.8012">
        <ele>352.4</ele>
        <time>2022-05-23 15:17:40</time>
      </trkpt>
      <trkpt lat="41.82527" lon="0.80121">
        <ele>352.2</ele>
        <time>2022-05-23 15:17:41</time>
      </trkpt>
      <trkpt lat="41.82521" lon="0.80122">
        <ele>352</ele>
        <time>2022-05-23 15:17:42</time>
      </trkpt>
      <trkpt lat="41.82514" lon="0.80124">
        <ele>352.2</ele>
        <time>2022-05-23 15:17:43</time>
      </trkpt>
      <trkpt lat="41.82508" lon="0.80125">
        <ele>352.6</ele>
        <time>2022-05-23 15:17:44</time>
      </trkpt>
      <trkpt lat="41.82503" lon="0.80128">
        <ele>353</ele>
        <time>2022-05-23 15:17:45</time>
      </trkpt>
      <trkpt lat="41.82498" lon="0.8013">
        <ele>353.4</ele>
        <time>2022-05-23 15:17:46</time>
      </trkpt>
      <trkpt lat="41.82495" lon="0.80132">
        <ele>353.8</ele>
        <time>2022-05-23 15:17:47</time>
      </trkpt>
      <trkpt lat="41.82493" lon="0.80134">
        <ele>354.2</ele>
        <time>2022-05-23 15:17:48</time>
      </trkpt>
      <trkpt lat="41.82492" lon="0.80135">
        <ele>355.6</ele>
        <time>2022-05-23 15:17:49</time>
      </trkpt>
      <trkpt lat="41.82492" lon="0.80135">
        <ele>355.6</ele>
        <time>2022-05-23 15:17:50</time>
      </trkpt>
      <trkpt lat="41.82492" lon="0.80135">
        <ele>355.6</ele>
        <time>2022-05-23 15:17:51</time>
      </trkpt>
      <trkpt lat="41.82492" lon="0.80135">
        <ele>355.4</ele>
        <time>2022-05-23 15:17:52</time>
      </trkpt>
      <trkpt lat="41.82492" lon="0.80135">
        <ele>355.4</ele>
        <time>2022-05-23 15:17:53</time>
      </trkpt>
      <trkpt lat="41.82492" lon="0.80135">
        <ele>355.4</ele>
        <time>2022-05-23 15:17:54</time>
      </trkpt>
      <trkpt lat="41.82492" lon="0.80135">
        <ele>355.4</ele>
        <time>2022-05-23 15:17:55</time>
      </trkpt>
      <trkpt lat="41.82487" lon="0.80134">
        <ele>355.2</ele>
        <time>2022-05-23 15:17:56</time>
      </trkpt>
      <trkpt lat="41.82486" lon="0.80135">
        <ele>355.2</ele>
        <time>2022-05-23 15:17:57</time>
      </trkpt>
      <trkpt lat="41.82482" lon="0.80136">
        <ele>355</ele>
        <time>2022-05-23 15:17:58</time>
      </trkpt>
      <trkpt lat="41.82479" lon="0.80137">
        <ele>354.8</ele>
        <time>2022-05-23 15:17:59</time>
      </trkpt>
      <trkpt lat="41.82476" lon="0.80139">
        <ele>354.4</ele>
        <time>2022-05-23 15:18:00</time>
      </trkpt>
      <trkpt lat="41.82472" lon="0.80141">
        <ele>354</ele>
        <time>2022-05-23 15:18:01</time>
      </trkpt>
      <trkpt lat="41.82467" lon="0.80143">
        <ele>353.6</ele>
        <time>2022-05-23 15:18:02</time>
      </trkpt>
      <trkpt lat="41.82462" lon="0.80146">
        <ele>353.2</ele>
        <time>2022-05-23 15:18:03</time>
      </trkpt>
      <trkpt lat="41.82456" lon="0.80148">
        <ele>352.6</ele>
        <time>2022-05-23 15:18:04</time>
      </trkpt>
      <trkpt lat="41.8245" lon="0.80152">
        <ele>352</ele>
        <time>2022-05-23 15:18:05</time>
      </trkpt>
      <trkpt lat="41.82444" lon="0.80155">
        <ele>351.4</ele>
        <time>2022-05-23 15:18:06</time>
      </trkpt>
      <trkpt lat="41.82437" lon="0.80158">
        <ele>350.6</ele>
        <time>2022-05-23 15:18:07</time>
      </trkpt>
      <trkpt lat="41.82429" lon="0.80162">
        <ele>349.8</ele>
        <time>2022-05-23 15:18:08</time>
      </trkpt>
      <trkpt lat="41.82423" lon="0.80165">
        <ele>349.2</ele>
        <time>2022-05-23 15:18:09</time>
      </trkpt>
      <trkpt lat="41.82412" lon="0.8017">
        <ele>348.2</ele>
        <time>2022-05-23 15:18:10</time>
      </trkpt>
      <trkpt lat="41.82402" lon="0.80174">
        <ele>347.8</ele>
        <time>2022-05-23 15:18:11</time>
      </trkpt>
      <trkpt lat="41.82396" lon="0.80177">
        <ele>347.2</ele>
        <time>2022-05-23 15:18:12</time>
      </trkpt>
      <trkpt lat="41.82387" lon="0.80182">
        <ele>346.4</ele>
        <time>2022-05-23 15:18:49</time>
      </trkpt>
      <trkpt lat="41.82375" lon="0.80189">
        <ele>345.2</ele>
        <time>2022-05-23 15:18:50</time>
      </trkpt>
      <trkpt lat="41.82361" lon="0.80199">
        <ele>344.2</ele>
        <time>2022-05-23 15:18:51</time>
      </trkpt>
      <trkpt lat="41.82351" lon="0.80206">
        <ele>343</ele>
        <time>2022-05-23 15:18:52</time>
      </trkpt>
      <trkpt lat="41.82342" lon="0.80215">
        <ele>342</ele>
        <time>2022-05-23 15:18:53</time>
      </trkpt>
      <trkpt lat="41.82332" lon="0.80223">
        <ele>341</ele>
        <time>2022-05-23 15:18:54</time>
      </trkpt>
      <trkpt lat="41.82324" lon="0.80232">
        <ele>340</ele>
        <time>2022-05-23 15:18:55</time>
      </trkpt>
      <trkpt lat="41.82316" lon="0.80241">
        <ele>339.4</ele>
        <time>2022-05-23 15:18:56</time>
      </trkpt>
      <trkpt lat="41.82308" lon="0.8025">
        <ele>338.6</ele>
        <time>2022-05-23 15:18:57</time>
      </trkpt>
      <trkpt lat="41.82301" lon="0.8026">
        <ele>338.2</ele>
        <time>2022-05-23 15:18:58</time>
      </trkpt>
      <trkpt lat="41.82296" lon="0.80269">
        <ele>337.8</ele>
        <time>2022-05-23 15:18:59</time>
      </trkpt>
      <trkpt lat="41.82292" lon="0.80279">
        <ele>337.6</ele>
        <time>2022-05-23 15:19:00</time>
      </trkpt>
      <trkpt lat="41.8229" lon="0.80287">
        <ele>337.6</ele>
        <time>2022-05-23 15:19:01</time>
      </trkpt>
      <trkpt lat="41.82288" lon="0.80297">
        <ele>337.4</ele>
        <time>2022-05-23 15:19:02</time>
      </trkpt>
      <trkpt lat="41.82287" lon="0.80306">
        <ele>337.4</ele>
        <time>2022-05-23 15:19:03</time>
      </trkpt>
      <trkpt lat="41.82287" lon="0.80315">
        <ele>337.2</ele>
        <time>2022-05-23 15:19:04</time>
      </trkpt>
      <trkpt lat="41.82289" lon="0.80324">
        <ele>337</ele>
        <time>2022-05-23 15:19:05</time>
      </trkpt>
      <trkpt lat="41.8229" lon="0.80334">
        <ele>337</ele>
        <time>2022-05-23 15:19:06</time>
      </trkpt>
      <trkpt lat="41.82291" lon="0.80343">
        <ele>337.2</ele>
        <time>2022-05-23 15:19:07</time>
      </trkpt>
      <trkpt lat="41.82293" lon="0.80352">
        <ele>337.2</ele>
        <time>2022-05-23 15:19:08</time>
      </trkpt>
      <trkpt lat="41.82295" lon="0.80359">
        <ele>337.2</ele>
        <time>2022-05-23 15:19:09</time>
      </trkpt>
      <trkpt lat="41.82296" lon="0.80366">
        <ele>337.2</ele>
        <time>2022-05-23 15:19:10</time>
      </trkpt>
      <trkpt lat="41.82297" lon="0.80373">
        <ele>336.8</ele>
        <time>2022-05-23 15:19:11</time>
      </trkpt>
      <trkpt lat="41.82297" lon="0.8038">
        <ele>336.4</ele>
        <time>2022-05-23 15:19:12</time>
      </trkpt>
      <trkpt lat="41.82295" lon="0.80384">
        <ele>336</ele>
        <time>2022-05-23 15:19:13</time>
      </trkpt>
      <trkpt lat="41.82292" lon="0.80386">
        <ele>335.6</ele>
        <time>2022-05-23 15:19:14</time>
      </trkpt>
      <trkpt lat="41.82289" lon="0.80386">
        <ele>335.4</ele>
        <time>2022-05-23 15:19:15</time>
      </trkpt>
      <trkpt lat="41.82286" lon="0.80385">
        <ele>335.2</ele>
        <time>2022-05-23 15:19:16</time>
      </trkpt>
      <trkpt lat="41.82282" lon="0.80382">
        <ele>334.8</ele>
        <time>2022-05-23 15:19:17</time>
      </trkpt>
      <trkpt lat="41.82278" lon="0.8038">
        <ele>334.6</ele>
        <time>2022-05-23 15:19:18</time>
      </trkpt>
      <trkpt lat="41.82274" lon="0.80377">
        <ele>334.4</ele>
        <time>2022-05-23 15:19:19</time>
      </trkpt>
      <trkpt lat="41.8227" lon="0.80375">
        <ele>334.4</ele>
        <time>2022-05-23 15:19:20</time>
      </trkpt>
      <trkpt lat="41.82265" lon="0.80372">
        <ele>334.4</ele>
        <time>2022-05-23 15:19:21</time>
      </trkpt>
      <trkpt lat="41.82261" lon="0.80369">
        <ele>334.4</ele>
        <time>2022-05-23 15:19:22</time>
      </trkpt>
      <trkpt lat="41.82257" lon="0.80367">
        <ele>334.4</ele>
        <time>2022-05-23 15:19:23</time>
      </trkpt>
      <trkpt lat="41.82252" lon="0.80365">
        <ele>334.2</ele>
        <time>2022-05-23 15:19:24</time>
      </trkpt>
      <trkpt lat="41.82248" lon="0.80362">
        <ele>334.2</ele>
        <time>2022-05-23 15:19:25</time>
      </trkpt>
      <trkpt lat="41.82244" lon="0.8036">
        <ele>334.2</ele>
        <time>2022-05-23 15:19:26</time>
      </trkpt>
      <trkpt lat="41.82239" lon="0.80358">
        <ele>334.2</ele>
        <time>2022-05-23 15:19:27</time>
      </trkpt>
      <trkpt lat="41.82235" lon="0.80355">
        <ele>334.2</ele>
        <time>2022-05-23 15:19:28</time>
      </trkpt>
      <trkpt lat="41.82231" lon="0.80352">
        <ele>334</ele>
        <time>2022-05-23 15:19:29</time>
      </trkpt>
      <trkpt lat="41.82227" lon="0.80349">
        <ele>333.6</ele>
        <time>2022-05-23 15:19:30</time>
      </trkpt>
      <trkpt lat="41.82222" lon="0.80346">
        <ele>333.4</ele>
        <time>2022-05-23 15:19:31</time>
      </trkpt>
      <trkpt lat="41.82217" lon="0.80343">
        <ele>333.2</ele>
        <time>2022-05-23 15:19:32</time>
      </trkpt>
      <trkpt lat="41.82212" lon="0.8034">
        <ele>333.2</ele>
        <time>2022-05-23 15:19:33</time>
      </trkpt>
      <trkpt lat="41.82206" lon="0.80336">
        <ele>333.2</ele>
        <time>2022-05-23 15:19:34</time>
      </trkpt>
      <trkpt lat="41.82201" lon="0.80334">
        <ele>333.4</ele>
        <time>2022-05-23 15:19:35</time>
      </trkpt>
      <trkpt lat="41.82196" lon="0.80331">
        <ele>333.4</ele>
        <time>2022-05-23 15:19:36</time>
      </trkpt>
      <trkpt lat="41.82191" lon="0.80327">
        <ele>333.4</ele>
        <time>2022-05-23 15:19:37</time>
      </trkpt>
      <trkpt lat="41.82186" lon="0.80324">
        <ele>333.4</ele>
        <time>2022-05-23 15:19:38</time>
      </trkpt>
      <trkpt lat="41.82181" lon="0.80321">
        <ele>333.4</ele>
        <time>2022-05-23 15:19:39</time>
      </trkpt>
      <trkpt lat="41.82176" lon="0.80317">
        <ele>333.4</ele>
        <time>2022-05-23 15:19:40</time>
      </trkpt>
      <trkpt lat="41.82171" lon="0.80314">
        <ele>333.4</ele>
        <time>2022-05-23 15:19:41</time>
      </trkpt>
      <trkpt lat="41.82166" lon="0.80312">
        <ele>333.4</ele>
        <time>2022-05-23 15:19:42</time>
      </trkpt>
      <trkpt lat="41.8216" lon="0.80309">
        <ele>333.4</ele>
        <time>2022-05-23 15:19:43</time>
      </trkpt>
      <trkpt lat="41.82155" lon="0.80307">
        <ele>333.4</ele>
        <time>2022-05-23 15:19:44</time>
      </trkpt>
      <trkpt lat="41.82149" lon="0.80305">
        <ele>333.4</ele>
        <time>2022-05-23 15:19:45</time>
      </trkpt>
      <trkpt lat="41.82144" lon="0.80303">
        <ele>333.6</ele>
        <time>2022-05-23 15:19:46</time>
      </trkpt>
      <trkpt lat="41.82138" lon="0.80303">
        <ele>333.6</ele>
        <time>2022-05-23 15:19:47</time>
      </trkpt>
      <trkpt lat="41.82132" lon="0.80303">
        <ele>333.6</ele>
        <time>2022-05-23 15:19:48</time>
      </trkpt>
      <trkpt lat="41.82127" lon="0.80303">
        <ele>333.6</ele>
        <time>2022-05-23 15:19:49</time>
      </trkpt>
      <trkpt lat="41.82121" lon="0.80304">
        <ele>333.6</ele>
        <time>2022-05-23 15:19:50</time>
      </trkpt>
      <trkpt lat="41.82116" lon="0.80305">
        <ele>333.6</ele>
        <time>2022-05-23 15:19:51</time>
      </trkpt>
      <trkpt lat="41.82111" lon="0.80306">
        <ele>333.8</ele>
        <time>2022-05-23 15:19:52</time>
      </trkpt>
      <trkpt lat="41.82106" lon="0.80307">
        <ele>333.8</ele>
        <time>2022-05-23 15:19:53</time>
      </trkpt>
      <trkpt lat="41.821" lon="0.80308">
        <ele>334</ele>
        <time>2022-05-23 15:19:54</time>
      </trkpt>
      <trkpt lat="41.82095" lon="0.80309">
        <ele>333.8</ele>
        <time>2022-05-23 15:19:55</time>
      </trkpt>
      <trkpt lat="41.8209" lon="0.80311">
        <ele>333.8</ele>
        <time>2022-05-23 15:19:56</time>
      </trkpt>
      <trkpt lat="41.82084" lon="0.80313">
        <ele>333.6</ele>
        <time>2022-05-23 15:19:57</time>
      </trkpt>
      <trkpt lat="41.82078" lon="0.80315">
        <ele>333.6</ele>
        <time>2022-05-23 15:19:58</time>
      </trkpt>
      <trkpt lat="41.82073" lon="0.80316">
        <ele>333.4</ele>
        <time>2022-05-23 15:19:59</time>
      </trkpt>
      <trkpt lat="41.82068" lon="0.80318">
        <ele>333.4</ele>
        <time>2022-05-23 15:20:00</time>
      </trkpt>
      <trkpt lat="41.82062" lon="0.8032">
        <ele>333.4</ele>
        <time>2022-05-23 15:20:01</time>
      </trkpt>
      <trkpt lat="41.82057" lon="0.80322">
        <ele>333.4</ele>
        <time>2022-05-23 15:20:02</time>
      </trkpt>
      <trkpt lat="41.82052" lon="0.80324">
        <ele>333.4</ele>
        <time>2022-05-23 15:20:03</time>
      </trkpt>
      <trkpt lat="41.82046" lon="0.80325">
        <ele>333.2</ele>
        <time>2022-05-23 15:20:04</time>
      </trkpt>
      <trkpt lat="41.8204" lon="0.80327">
        <ele>333.2</ele>
        <time>2022-05-23 15:20:05</time>
      </trkpt>
      <trkpt lat="41.82034" lon="0.80329">
        <ele>333</ele>
        <time>2022-05-23 15:20:06</time>
      </trkpt>
      <trkpt lat="41.82028" lon="0.80331">
        <ele>332.8</ele>
        <time>2022-05-23 15:20:07</time>
      </trkpt>
      <trkpt lat="41.82022" lon="0.80333">
        <ele>332.4</ele>
        <time>2022-05-23 15:20:08</time>
      </trkpt>
      <trkpt lat="41.82017" lon="0.80335">
        <ele>332.2</ele>
        <time>2022-05-23 15:20:09</time>
      </trkpt>
      <trkpt lat="41.82011" lon="0.80336">
        <ele>332</ele>
        <time>2022-05-23 15:20:10</time>
      </trkpt>
      <trkpt lat="41.82005" lon="0.80339">
        <ele>331.8</ele>
        <time>2022-05-23 15:20:11</time>
      </trkpt>
      <trkpt lat="41.81999" lon="0.8034">
        <ele>331.8</ele>
        <time>2022-05-23 15:20:12</time>
      </trkpt>
      <trkpt lat="41.81992" lon="0.8034">
        <ele>331.4</ele>
        <time>2022-05-23 15:20:13</time>
      </trkpt>
      <trkpt lat="41.81986" lon="0.80339">
        <ele>331.2</ele>
        <time>2022-05-23 15:20:14</time>
      </trkpt>
      <trkpt lat="41.81981" lon="0.80338">
        <ele>331</ele>
        <time>2022-05-23 15:20:15</time>
      </trkpt>
      <trkpt lat="41.81975" lon="0.8034">
        <ele>330.8</ele>
        <time>2022-05-23 15:20:16</time>
      </trkpt>
      <trkpt lat="41.81968" lon="0.80344">
        <ele>330.4</ele>
        <time>2022-05-23 15:20:17</time>
      </trkpt>
      <trkpt lat="41.81964" lon="0.80348">
        <ele>329.8</ele>
        <time>2022-05-23 15:20:18</time>
      </trkpt>
      <trkpt lat="41.81959" lon="0.80353">
        <ele>329.6</ele>
        <time>2022-05-23 15:20:19</time>
      </trkpt>
      <trkpt lat="41.81954" lon="0.80358">
        <ele>329.6</ele>
        <time>2022-05-23 15:20:20</time>
      </trkpt>
      <trkpt lat="41.81949" lon="0.80361">
        <ele>329.6</ele>
        <time>2022-05-23 15:20:21</time>
      </trkpt>
      <trkpt lat="41.81943" lon="0.80364">
        <ele>329.8</ele>
        <time>2022-05-23 15:20:22</time>
      </trkpt>
      <trkpt lat="41.81937" lon="0.80366">
        <ele>329.8</ele>
        <time>2022-05-23 15:20:23</time>
      </trkpt>
      <trkpt lat="41.81932" lon="0.80368">
        <ele>329.4</ele>
        <time>2022-05-23 15:20:24</time>
      </trkpt>
      <trkpt lat="41.81925" lon="0.80371">
        <ele>329.2</ele>
        <time>2022-05-23 15:20:25</time>
      </trkpt>
      <trkpt lat="41.81919" lon="0.80373">
        <ele>329.2</ele>
        <time>2022-05-23 15:20:26</time>
      </trkpt>
      <trkpt lat="41.81913" lon="0.80375">
        <ele>329</ele>
        <time>2022-05-23 15:20:27</time>
      </trkpt>
      <trkpt lat="41.81906" lon="0.80377">
        <ele>328.4</ele>
        <time>2022-05-23 15:20:28</time>
      </trkpt>
      <trkpt lat="41.819" lon="0.80379">
        <ele>328</ele>
        <time>2022-05-23 15:20:29</time>
      </trkpt>
      <trkpt lat="41.81894" lon="0.8038">
        <ele>327.6</ele>
        <time>2022-05-23 15:20:30</time>
      </trkpt>
      <trkpt lat="41.81888" lon="0.80383">
        <ele>327.2</ele>
        <time>2022-05-23 15:20:31</time>
      </trkpt>
      <trkpt lat="41.81883" lon="0.80384">
        <ele>327.2</ele>
        <time>2022-05-23 15:20:32</time>
      </trkpt>
      <trkpt lat="41.81876" lon="0.80387">
        <ele>327.2</ele>
        <time>2022-05-23 15:20:33</time>
      </trkpt>
      <trkpt lat="41.8187" lon="0.80389">
        <ele>326.6</ele>
        <time>2022-05-23 15:20:34</time>
      </trkpt>
      <trkpt lat="41.81863" lon="0.80391">
        <ele>326.6</ele>
        <time>2022-05-23 15:20:35</time>
      </trkpt>
      <trkpt lat="41.81857" lon="0.80393">
        <ele>326.6</ele>
        <time>2022-05-23 15:20:36</time>
      </trkpt>
      <trkpt lat="41.81851" lon="0.80395">
        <ele>326.6</ele>
        <time>2022-05-23 15:20:37</time>
      </trkpt>
      <trkpt lat="41.81843" lon="0.80397">
        <ele>326.4</ele>
        <time>2022-05-23 15:20:38</time>
      </trkpt>
      <trkpt lat="41.81837" lon="0.80399">
        <ele>326.2</ele>
        <time>2022-05-23 15:20:39</time>
      </trkpt>
      <trkpt lat="41.8183" lon="0.80401">
        <ele>326</ele>
        <time>2022-05-23 15:20:40</time>
      </trkpt>
      <trkpt lat="41.81822" lon="0.80402">
        <ele>326</ele>
        <time>2022-05-23 15:20:41</time>
      </trkpt>
      <trkpt lat="41.81815" lon="0.80404">
        <ele>325.8</ele>
        <time>2022-05-23 15:20:42</time>
      </trkpt>
      <trkpt lat="41.81807" lon="0.80405">
        <ele>325.6</ele>
        <time>2022-05-23 15:20:43</time>
      </trkpt>
      <trkpt lat="41.818" lon="0.80407">
        <ele>325.2</ele>
        <time>2022-05-23 15:20:44</time>
      </trkpt>
      <trkpt lat="41.81793" lon="0.80407">
        <ele>324.8</ele>
        <time>2022-05-23 15:20:45</time>
      </trkpt>
      <trkpt lat="41.81785" lon="0.80407">
        <ele>324.8</ele>
        <time>2022-05-23 15:20:46</time>
      </trkpt>
      <trkpt lat="41.81777" lon="0.80408">
        <ele>324.6</ele>
        <time>2022-05-23 15:20:47</time>
      </trkpt>
      <trkpt lat="41.8177" lon="0.80408">
        <ele>324.4</ele>
        <time>2022-05-23 15:20:48</time>
      </trkpt>
      <trkpt lat="41.81763" lon="0.80408">
        <ele>324</ele>
        <time>2022-05-23 15:20:49</time>
      </trkpt>
      <trkpt lat="41.81755" lon="0.80408">
        <ele>323.8</ele>
        <time>2022-05-23 15:20:50</time>
      </trkpt>
      <trkpt lat="41.81748" lon="0.80407">
        <ele>323.8</ele>
        <time>2022-05-23 15:20:51</time>
      </trkpt>
      <trkpt lat="41.81741" lon="0.80407">
        <ele>323.6</ele>
        <time>2022-05-23 15:20:52</time>
      </trkpt>
      <trkpt lat="41.81734" lon="0.80407">
        <ele>323.4</ele>
        <time>2022-05-23 15:20:53</time>
      </trkpt>
      <trkpt lat="41.81727" lon="0.80407">
        <ele>323.4</ele>
        <time>2022-05-23 15:20:54</time>
      </trkpt>
      <trkpt lat="41.8172" lon="0.80407">
        <ele>323.2</ele>
        <time>2022-05-23 15:20:55</time>
      </trkpt>
      <trkpt lat="41.81713" lon="0.80407">
        <ele>323</ele>
        <time>2022-05-23 15:20:56</time>
      </trkpt>
      <trkpt lat="41.81706" lon="0.80407">
        <ele>323</ele>
        <time>2022-05-23 15:20:57</time>
      </trkpt>
      <trkpt lat="41.817" lon="0.80407">
        <ele>323</ele>
        <time>2022-05-23 15:20:58</time>
      </trkpt>
      <trkpt lat="41.81693" lon="0.80406">
        <ele>323</ele>
        <time>2022-05-23 15:20:59</time>
      </trkpt>
      <trkpt lat="41.81686" lon="0.80406">
        <ele>323.2</ele>
        <time>2022-05-23 15:21:00</time>
      </trkpt>
      <trkpt lat="41.8168" lon="0.80406">
        <ele>323.4</ele>
        <time>2022-05-23 15:21:01</time>
      </trkpt>
      <trkpt lat="41.81673" lon="0.80406">
        <ele>323.6</ele>
        <time>2022-05-23 15:21:02</time>
      </trkpt>
      <trkpt lat="41.81667" lon="0.80406">
        <ele>323.8</ele>
        <time>2022-05-23 15:21:03</time>
      </trkpt>
      <trkpt lat="41.8166" lon="0.80406">
        <ele>324</ele>
        <time>2022-05-23 15:21:04</time>
      </trkpt>
      <trkpt lat="41.81654" lon="0.80406">
        <ele>324</ele>
        <time>2022-05-23 15:21:05</time>
      </trkpt>
      <trkpt lat="41.81647" lon="0.80406">
        <ele>323.6</ele>
        <time>2022-05-23 15:21:06</time>
      </trkpt>
      <trkpt lat="41.8164" lon="0.80406">
        <ele>323.6</ele>
        <time>2022-05-23 15:21:07</time>
      </trkpt>
      <trkpt lat="41.81634" lon="0.80406">
        <ele>323.6</ele>
        <time>2022-05-23 15:21:08</time>
      </trkpt>
      <trkpt lat="41.81627" lon="0.80406">
        <ele>323.4</ele>
        <time>2022-05-23 15:21:09</time>
      </trkpt>
      <trkpt lat="41.81622" lon="0.80406">
        <ele>323.4</ele>
        <time>2022-05-23 15:21:10</time>
      </trkpt>
      <trkpt lat="41.81615" lon="0.80406">
        <ele>323.4</ele>
        <time>2022-05-23 15:21:11</time>
      </trkpt>
      <trkpt lat="41.81609" lon="0.80406">
        <ele>323.2</ele>
        <time>2022-05-23 15:21:12</time>
      </trkpt>
      <trkpt lat="41.81604" lon="0.80406">
        <ele>323</ele>
        <time>2022-05-23 15:21:13</time>
      </trkpt>
      <trkpt lat="41.81598" lon="0.80406">
        <ele>322.8</ele>
        <time>2022-05-23 15:21:14</time>
      </trkpt>
      <trkpt lat="41.81592" lon="0.80406">
        <ele>322.6</ele>
        <time>2022-05-23 15:21:15</time>
      </trkpt>
      <trkpt lat="41.81586" lon="0.80405">
        <ele>322.6</ele>
        <time>2022-05-23 15:21:16</time>
      </trkpt>
      <trkpt lat="41.8158" lon="0.80405">
        <ele>322.6</ele>
        <time>2022-05-23 15:21:17</time>
      </trkpt>
      <trkpt lat="41.81575" lon="0.80405">
        <ele>322.8</ele>
        <time>2022-05-23 15:21:18</time>
      </trkpt>
      <trkpt lat="41.81569" lon="0.80405">
        <ele>322.6</ele>
        <time>2022-05-23 15:21:19</time>
      </trkpt>
      <trkpt lat="41.81564" lon="0.80405">
        <ele>322.6</ele>
        <time>2022-05-23 15:21:20</time>
      </trkpt>
      <trkpt lat="41.81559" lon="0.80405">
        <ele>322.4</ele>
        <time>2022-05-23 15:21:21</time>
      </trkpt>
      <trkpt lat="41.81552" lon="0.80405">
        <ele>322.4</ele>
        <time>2022-05-23 15:21:22</time>
      </trkpt>
      <trkpt lat="41.81547" lon="0.80405">
        <ele>322.2</ele>
        <time>2022-05-23 15:21:23</time>
      </trkpt>
      <trkpt lat="41.81541" lon="0.80405">
        <ele>322</ele>
        <time>2022-05-23 15:21:24</time>
      </trkpt>
      <trkpt lat="41.81535" lon="0.80405">
        <ele>321.8</ele>
        <time>2022-05-23 15:21:25</time>
      </trkpt>
      <trkpt lat="41.81529" lon="0.80405">
        <ele>321.8</ele>
        <time>2022-05-23 15:21:26</time>
      </trkpt>
      <trkpt lat="41.81523" lon="0.80405">
        <ele>321.6</ele>
        <time>2022-05-23 15:21:27</time>
      </trkpt>
      <trkpt lat="41.81517" lon="0.80404">
        <ele>321.4</ele>
        <time>2022-05-23 15:21:28</time>
      </trkpt>
      <trkpt lat="41.81511" lon="0.80404">
        <ele>321.4</ele>
        <time>2022-05-23 15:21:29</time>
      </trkpt>
      <trkpt lat="41.81505" lon="0.80404">
        <ele>321.4</ele>
        <time>2022-05-23 15:21:30</time>
      </trkpt>
      <trkpt lat="41.81499" lon="0.80405">
        <ele>321.4</ele>
        <time>2022-05-23 15:21:31</time>
      </trkpt>
      <trkpt lat="41.81492" lon="0.80405">
        <ele>321.4</ele>
        <time>2022-05-23 15:21:32</time>
      </trkpt>
      <trkpt lat="41.81487" lon="0.80405">
        <ele>321.2</ele>
        <time>2022-05-23 15:21:33</time>
      </trkpt>
      <trkpt lat="41.81479" lon="0.80404">
        <ele>321</ele>
        <time>2022-05-23 15:21:34</time>
      </trkpt>
      <trkpt lat="41.81472" lon="0.80404">
        <ele>320.8</ele>
        <time>2022-05-23 15:21:35</time>
      </trkpt>
      <trkpt lat="41.81465" lon="0.80404">
        <ele>320.6</ele>
        <time>2022-05-23 15:21:36</time>
      </trkpt>
      <trkpt lat="41.81457" lon="0.80404">
        <ele>320.6</ele>
        <time>2022-05-23 15:21:37</time>
      </trkpt>
      <trkpt lat="41.81451" lon="0.80404">
        <ele>320.2</ele>
        <time>2022-05-23 15:21:38</time>
      </trkpt>
      <trkpt lat="41.81442" lon="0.80405">
        <ele>319.8</ele>
        <time>2022-05-23 15:21:39</time>
      </trkpt>
      <trkpt lat="41.81436" lon="0.80405">
        <ele>319.4</ele>
        <time>2022-05-23 15:21:40</time>
      </trkpt>
      <trkpt lat="41.81426" lon="0.80404">
        <ele>319</ele>
        <time>2022-05-23 15:21:41</time>
      </trkpt>
      <trkpt lat="41.81418" lon="0.80405">
        <ele>318.6</ele>
        <time>2022-05-23 15:21:42</time>
      </trkpt>
      <trkpt lat="41.8141" lon="0.80405">
        <ele>318.6</ele>
        <time>2022-05-23 15:21:43</time>
      </trkpt>
      <trkpt lat="41.81402" lon="0.80405">
        <ele>318.4</ele>
        <time>2022-05-23 15:21:44</time>
      </trkpt>
      <trkpt lat="41.81394" lon="0.80405">
        <ele>318.2</ele>
        <time>2022-05-23 15:21:45</time>
      </trkpt>
      <trkpt lat="41.81385" lon="0.80404">
        <ele>317.8</ele>
        <time>2022-05-23 15:21:46</time>
      </trkpt>
      <trkpt lat="41.81378" lon="0.80404">
        <ele>317.6</ele>
        <time>2022-05-23 15:21:47</time>
      </trkpt>
      <trkpt lat="41.8137" lon="0.80404">
        <ele>317.6</ele>
        <time>2022-05-23 15:21:48</time>
      </trkpt>
      <trkpt lat="41.81362" lon="0.80404">
        <ele>317.4</ele>
        <time>2022-05-23 15:21:49</time>
      </trkpt>
      <trkpt lat="41.81355" lon="0.80404">
        <ele>317.4</ele>
        <time>2022-05-23 15:21:50</time>
      </trkpt>
      <trkpt lat="41.81347" lon="0.80404">
        <ele>317.4</ele>
        <time>2022-05-23 15:21:51</time>
      </trkpt>
      <trkpt lat="41.8134" lon="0.80404">
        <ele>317.4</ele>
        <time>2022-05-23 15:21:52</time>
      </trkpt>
      <trkpt lat="41.81333" lon="0.80404">
        <ele>317.4</ele>
        <time>2022-05-23 15:21:53</time>
      </trkpt>
      <trkpt lat="41.81327" lon="0.80404">
        <ele>317.2</ele>
        <time>2022-05-23 15:21:54</time>
      </trkpt>
      <trkpt lat="41.81319" lon="0.80404">
        <ele>317.2</ele>
        <time>2022-05-23 15:21:55</time>
      </trkpt>
      <trkpt lat="41.81312" lon="0.80404">
        <ele>317.2</ele>
        <time>2022-05-23 15:21:56</time>
      </trkpt>
      <trkpt lat="41.81305" lon="0.80405">
        <ele>317</ele>
        <time>2022-05-23 15:21:57</time>
      </trkpt>
      <trkpt lat="41.81299" lon="0.80406">
        <ele>317</ele>
        <time>2022-05-23 15:21:58</time>
      </trkpt>
      <trkpt lat="41.81292" lon="0.80407">
        <ele>317</ele>
        <time>2022-05-23 15:21:59</time>
      </trkpt>
      <trkpt lat="41.81285" lon="0.80408">
        <ele>316.8</ele>
        <time>2022-05-23 15:22:00</time>
      </trkpt>
      <trkpt lat="41.81278" lon="0.8041">
        <ele>316.8</ele>
        <time>2022-05-23 15:22:01</time>
      </trkpt>
      <trkpt lat="41.81272" lon="0.80412">
        <ele>316.6</ele>
        <time>2022-05-23 15:22:02</time>
      </trkpt>
      <trkpt lat="41.81265" lon="0.80414">
        <ele>316.6</ele>
        <time>2022-05-23 15:22:03</time>
      </trkpt>
      <trkpt lat="41.8126" lon="0.80416">
        <ele>316.6</ele>
        <time>2022-05-23 15:22:04</time>
      </trkpt>
      <trkpt lat="41.81253" lon="0.80418">
        <ele>316.4</ele>
        <time>2022-05-23 15:22:05</time>
      </trkpt>
      <trkpt lat="41.81245" lon="0.80422">
        <ele>316.2</ele>
        <time>2022-05-23 15:22:06</time>
      </trkpt>
      <trkpt lat="41.81239" lon="0.80425">
        <ele>316</ele>
        <time>2022-05-23 15:22:07</time>
      </trkpt>
      <trkpt lat="41.81233" lon="0.80428">
        <ele>315.8</ele>
        <time>2022-05-23 15:22:08</time>
      </trkpt>
      <trkpt lat="41.81226" lon="0.80432">
        <ele>315.6</ele>
        <time>2022-05-23 15:22:09</time>
      </trkpt>
      <trkpt lat="41.8122" lon="0.80435">
        <ele>315.4</ele>
        <time>2022-05-23 15:22:10</time>
      </trkpt>
      <trkpt lat="41.81214" lon="0.80439">
        <ele>315.4</ele>
        <time>2022-05-23 15:22:11</time>
      </trkpt>
      <trkpt lat="41.81208" lon="0.80442">
        <ele>315.2</ele>
        <time>2022-05-23 15:22:12</time>
      </trkpt>
      <trkpt lat="41.81202" lon="0.80444">
        <ele>315.2</ele>
        <time>2022-05-23 15:22:13</time>
      </trkpt>
      <trkpt lat="41.81196" lon="0.80447">
        <ele>315</ele>
        <time>2022-05-23 15:22:14</time>
      </trkpt>
      <trkpt lat="41.8119" lon="0.8045">
        <ele>315</ele>
        <time>2022-05-23 15:22:15</time>
      </trkpt>
      <trkpt lat="41.81184" lon="0.80453">
        <ele>314.8</ele>
        <time>2022-05-23 15:22:16</time>
      </trkpt>
      <trkpt lat="41.81177" lon="0.80456">
        <ele>314.8</ele>
        <time>2022-05-23 15:22:17</time>
      </trkpt>
      <trkpt lat="41.81171" lon="0.80458">
        <ele>314.6</ele>
        <time>2022-05-23 15:22:18</time>
      </trkpt>
      <trkpt lat="41.81165" lon="0.8046">
        <ele>314.6</ele>
        <time>2022-05-23 15:22:19</time>
      </trkpt>
      <trkpt lat="41.81158" lon="0.80461">
        <ele>314.6</ele>
        <time>2022-05-23 15:22:20</time>
      </trkpt>
      <trkpt lat="41.81152" lon="0.80462">
        <ele>314.4</ele>
        <time>2022-05-23 15:22:21</time>
      </trkpt>
      <trkpt lat="41.81146" lon="0.80464">
        <ele>314.4</ele>
        <time>2022-05-23 15:22:22</time>
      </trkpt>
      <trkpt lat="41.81139" lon="0.80464">
        <ele>314.4</ele>
        <time>2022-05-23 15:22:23</time>
      </trkpt>
      <trkpt lat="41.81134" lon="0.80465">
        <ele>314.2</ele>
        <time>2022-05-23 15:22:24</time>
      </trkpt>
      <trkpt lat="41.81127" lon="0.80466">
        <ele>314.2</ele>
        <time>2022-05-23 15:22:25</time>
      </trkpt>
      <trkpt lat="41.81121" lon="0.80467">
        <ele>314.2</ele>
        <time>2022-05-23 15:22:26</time>
      </trkpt>
      <trkpt lat="41.81115" lon="0.80468">
        <ele>314</ele>
        <time>2022-05-23 15:22:27</time>
      </trkpt>
      <trkpt lat="41.81109" lon="0.80468">
        <ele>314</ele>
        <time>2022-05-23 15:22:28</time>
      </trkpt>
      <trkpt lat="41.81103" lon="0.80469">
        <ele>314</ele>
        <time>2022-05-23 15:22:29</time>
      </trkpt>
      <trkpt lat="41.81097" lon="0.8047">
        <ele>314</ele>
        <time>2022-05-23 15:22:30</time>
      </trkpt>
      <trkpt lat="41.81091" lon="0.80471">
        <ele>313.8</ele>
        <time>2022-05-23 15:22:31</time>
      </trkpt>
      <trkpt lat="41.81085" lon="0.80472">
        <ele>313.8</ele>
        <time>2022-05-23 15:22:32</time>
      </trkpt>
      <trkpt lat="41.8108" lon="0.80473">
        <ele>313.8</ele>
        <time>2022-05-23 15:22:33</time>
      </trkpt>
      <trkpt lat="41.81074" lon="0.80474">
        <ele>313.6</ele>
        <time>2022-05-23 15:22:34</time>
      </trkpt>
      <trkpt lat="41.81068" lon="0.80475">
        <ele>313.6</ele>
        <time>2022-05-23 15:22:35</time>
      </trkpt>
      <trkpt lat="41.81063" lon="0.80476">
        <ele>313.6</ele>
        <time>2022-05-23 15:22:36</time>
      </trkpt>
      <trkpt lat="41.81057" lon="0.80477">
        <ele>313.6</ele>
        <time>2022-05-23 15:22:37</time>
      </trkpt>
      <trkpt lat="41.81052" lon="0.80478">
        <ele>313.6</ele>
        <time>2022-05-23 15:22:38</time>
      </trkpt>
      <trkpt lat="41.81046" lon="0.8048">
        <ele>313.6</ele>
        <time>2022-05-23 15:22:39</time>
      </trkpt>
      <trkpt lat="41.8104" lon="0.80482">
        <ele>313.6</ele>
        <time>2022-05-23 15:22:40</time>
      </trkpt>
      <trkpt lat="41.81035" lon="0.80484">
        <ele>313.4</ele>
        <time>2022-05-23 15:22:41</time>
      </trkpt>
      <trkpt lat="41.81029" lon="0.80486">
        <ele>313.4</ele>
        <time>2022-05-23 15:22:42</time>
      </trkpt>
      <trkpt lat="41.81023" lon="0.80488">
        <ele>313.4</ele>
        <time>2022-05-23 15:22:43</time>
      </trkpt>
      <trkpt lat="41.81018" lon="0.80491">
        <ele>313.6</ele>
        <time>2022-05-23 15:22:44</time>
      </trkpt>
      <trkpt lat="41.81012" lon="0.80494">
        <ele>313.6</ele>
        <time>2022-05-23 15:22:45</time>
      </trkpt>
      <trkpt lat="41.81006" lon="0.80497">
        <ele>313.8</ele>
        <time>2022-05-23 15:22:46</time>
      </trkpt>
      <trkpt lat="41.81" lon="0.805">
        <ele>313.8</ele>
        <time>2022-05-23 15:22:47</time>
      </trkpt>
      <trkpt lat="41.80995" lon="0.80503">
        <ele>313.6</ele>
        <time>2022-05-23 15:22:48</time>
      </trkpt>
      <trkpt lat="41.8099" lon="0.80506">
        <ele>313.4</ele>
        <time>2022-05-23 15:22:49</time>
      </trkpt>
      <trkpt lat="41.80984" lon="0.8051">
        <ele>313.2</ele>
        <time>2022-05-23 15:22:50</time>
      </trkpt>
      <trkpt lat="41.80978" lon="0.80513">
        <ele>313.2</ele>
        <time>2022-05-23 15:22:51</time>
      </trkpt>
      <trkpt lat="41.80973" lon="0.80516">
        <ele>313</ele>
        <time>2022-05-23 15:22:52</time>
      </trkpt>
      <trkpt lat="41.80967" lon="0.8052">
        <ele>312.8</ele>
        <time>2022-05-23 15:22:53</time>
      </trkpt>
      <trkpt lat="41.80962" lon="0.80523">
        <ele>312.6</ele>
        <time>2022-05-23 15:22:54</time>
      </trkpt>
      <trkpt lat="41.80957" lon="0.80525">
        <ele>312.4</ele>
        <time>2022-05-23 15:22:55</time>
      </trkpt>
      <trkpt lat="41.80952" lon="0.80529">
        <ele>312.2</ele>
        <time>2022-05-23 15:22:56</time>
      </trkpt>
      <trkpt lat="41.80947" lon="0.80532">
        <ele>312.2</ele>
        <time>2022-05-23 15:22:57</time>
      </trkpt>
      <trkpt lat="41.80941" lon="0.80536">
        <ele>312</ele>
        <time>2022-05-23 15:22:58</time>
      </trkpt>
      <trkpt lat="41.80935" lon="0.80539">
        <ele>311.8</ele>
        <time>2022-05-23 15:22:59</time>
      </trkpt>
      <trkpt lat="41.80931" lon="0.80543">
        <ele>311.6</ele>
        <time>2022-05-23 15:23:00</time>
      </trkpt>
      <trkpt lat="41.80925" lon="0.80546">
        <ele>311.4</ele>
        <time>2022-05-23 15:23:01</time>
      </trkpt>
      <trkpt lat="41.8092" lon="0.80549">
        <ele>311.4</ele>
        <time>2022-05-23 15:23:02</time>
      </trkpt>
      <trkpt lat="41.80915" lon="0.80553">
        <ele>311.4</ele>
        <time>2022-05-23 15:23:03</time>
      </trkpt>
      <trkpt lat="41.8091" lon="0.80556">
        <ele>311.2</ele>
        <time>2022-05-23 15:23:04</time>
      </trkpt>
      <trkpt lat="41.80906" lon="0.80559">
        <ele>311</ele>
        <time>2022-05-23 15:23:05</time>
      </trkpt>
      <trkpt lat="41.80901" lon="0.80563">
        <ele>311</ele>
        <time>2022-05-23 15:23:06</time>
      </trkpt>
      <trkpt lat="41.80896" lon="0.80567">
        <ele>311</ele>
        <time>2022-05-23 15:23:07</time>
      </trkpt>
      <trkpt lat="41.80891" lon="0.8057">
        <ele>310.8</ele>
        <time>2022-05-23 15:23:08</time>
      </trkpt>
      <trkpt lat="41.80887" lon="0.80574">
        <ele>310.6</ele>
        <time>2022-05-23 15:23:09</time>
      </trkpt>
      <trkpt lat="41.80883" lon="0.80578">
        <ele>310.4</ele>
        <time>2022-05-23 15:23:10</time>
      </trkpt>
      <trkpt lat="41.80878" lon="0.80582">
        <ele>310.4</ele>
        <time>2022-05-23 15:23:11</time>
      </trkpt>
      <trkpt lat="41.80874" lon="0.80585">
        <ele>310.4</ele>
        <time>2022-05-23 15:23:12</time>
      </trkpt>
      <trkpt lat="41.8087" lon="0.80589">
        <ele>310.4</ele>
        <time>2022-05-23 15:23:13</time>
      </trkpt>
      <trkpt lat="41.80865" lon="0.80593">
        <ele>310.2</ele>
        <time>2022-05-23 15:23:14</time>
      </trkpt>
      <trkpt lat="41.80862" lon="0.80597">
        <ele>310</ele>
        <time>2022-05-23 15:23:15</time>
      </trkpt>
      <trkpt lat="41.80858" lon="0.80601">
        <ele>310.2</ele>
        <time>2022-05-23 15:23:16</time>
      </trkpt>
      <trkpt lat="41.80854" lon="0.80605">
        <ele>310</ele>
        <time>2022-05-23 15:23:17</time>
      </trkpt>
      <trkpt lat="41.8085" lon="0.80609">
        <ele>310.2</ele>
        <time>2022-05-23 15:23:18</time>
      </trkpt>
      <trkpt lat="41.80846" lon="0.80613">
        <ele>310.2</ele>
        <time>2022-05-23 15:23:19</time>
      </trkpt>
      <trkpt lat="41.80842" lon="0.80618">
        <ele>310.2</ele>
        <time>2022-05-23 15:23:20</time>
      </trkpt>
      <trkpt lat="41.80839" lon="0.80622">
        <ele>310</ele>
        <time>2022-05-23 15:23:21</time>
      </trkpt>
      <trkpt lat="41.80835" lon="0.80626">
        <ele>309.8</ele>
        <time>2022-05-23 15:23:22</time>
      </trkpt>
      <trkpt lat="41.8083" lon="0.80632">
        <ele>309.6</ele>
        <time>2022-05-23 15:23:23</time>
      </trkpt>
      <trkpt lat="41.80826" lon="0.80637">
        <ele>309.4</ele>
        <time>2022-05-23 15:23:24</time>
      </trkpt>
      <trkpt lat="41.80822" lon="0.80642">
        <ele>309.2</ele>
        <time>2022-05-23 15:23:25</time>
      </trkpt>
      <trkpt lat="41.80818" lon="0.80648">
        <ele>309</ele>
        <time>2022-05-23 15:23:26</time>
      </trkpt>
      <trkpt lat="41.80814" lon="0.80652">
        <ele>309</ele>
        <time>2022-05-23 15:23:27</time>
      </trkpt>
      <trkpt lat="41.8081" lon="0.80658">
        <ele>308.8</ele>
        <time>2022-05-23 15:23:28</time>
      </trkpt>
      <trkpt lat="41.80806" lon="0.80663">
        <ele>308.6</ele>
        <time>2022-05-23 15:23:29</time>
      </trkpt>
      <trkpt lat="41.80802" lon="0.80669">
        <ele>308.6</ele>
        <time>2022-05-23 15:23:30</time>
      </trkpt>
      <trkpt lat="41.80798" lon="0.80675">
        <ele>308.4</ele>
        <time>2022-05-23 15:23:31</time>
      </trkpt>
      <trkpt lat="41.80794" lon="0.80681">
        <ele>308.4</ele>
        <time>2022-05-23 15:23:32</time>
      </trkpt>
      <trkpt lat="41.8079" lon="0.80687">
        <ele>308.4</ele>
        <time>2022-05-23 15:23:33</time>
      </trkpt>
      <trkpt lat="41.80786" lon="0.80693">
        <ele>308.4</ele>
        <time>2022-05-23 15:23:34</time>
      </trkpt>
      <trkpt lat="41.80781" lon="0.80699">
        <ele>308.4</ele>
        <time>2022-05-23 15:23:35</time>
      </trkpt>
      <trkpt lat="41.80777" lon="0.80705">
        <ele>308.4</ele>
        <time>2022-05-23 15:23:36</time>
      </trkpt>
      <trkpt lat="41.80772" lon="0.80711">
        <ele>308.4</ele>
        <time>2022-05-23 15:23:37</time>
      </trkpt>
      <trkpt lat="41.80766" lon="0.80716">
        <ele>308.4</ele>
        <time>2022-05-23 15:23:38</time>
      </trkpt>
      <trkpt lat="41.80761" lon="0.80721">
        <ele>308.2</ele>
        <time>2022-05-23 15:23:39</time>
      </trkpt>
      <trkpt lat="41.80756" lon="0.80726">
        <ele>308</ele>
        <time>2022-05-23 15:23:40</time>
      </trkpt>
      <trkpt lat="41.8075" lon="0.80729">
        <ele>307.8</ele>
        <time>2022-05-23 15:23:41</time>
      </trkpt>
      <trkpt lat="41.80744" lon="0.80732">
        <ele>307.8</ele>
        <time>2022-05-23 15:23:42</time>
      </trkpt>
      <trkpt lat="41.80739" lon="0.80734">
        <ele>307.8</ele>
        <time>2022-05-23 15:23:43</time>
      </trkpt>
      <trkpt lat="41.80734" lon="0.80736">
        <ele>307.6</ele>
        <time>2022-05-23 15:23:44</time>
      </trkpt>
      <trkpt lat="41.80728" lon="0.80738">
        <ele>307.6</ele>
        <time>2022-05-23 15:23:45</time>
      </trkpt>
      <trkpt lat="41.80724" lon="0.80739">
        <ele>307.6</ele>
        <time>2022-05-23 15:23:46</time>
      </trkpt>
      <trkpt lat="41.80717" lon="0.8074">
        <ele>307.6</ele>
        <time>2022-05-23 15:23:47</time>
      </trkpt>
      <trkpt lat="41.80712" lon="0.80741">
        <ele>308</ele>
        <time>2022-05-23 15:23:48</time>
      </trkpt>
      <trkpt lat="41.80707" lon="0.80742">
        <ele>308.2</ele>
        <time>2022-05-23 15:23:49</time>
      </trkpt>
      <trkpt lat="41.80702" lon="0.80743">
        <ele>308.4</ele>
        <time>2022-05-23 15:23:50</time>
      </trkpt>
      <trkpt lat="41.80696" lon="0.80743">
        <ele>308.6</ele>
        <time>2022-05-23 15:23:51</time>
      </trkpt>
      <trkpt lat="41.80691" lon="0.80744">
        <ele>308.8</ele>
        <time>2022-05-23 15:23:52</time>
      </trkpt>
      <trkpt lat="41.80686" lon="0.80745">
        <ele>309</ele>
        <time>2022-05-23 15:23:53</time>
      </trkpt>
      <trkpt lat="41.80681" lon="0.80745">
        <ele>309</ele>
        <time>2022-05-23 15:23:54</time>
      </trkpt>
      <trkpt lat="41.80675" lon="0.80746">
        <ele>309</ele>
        <time>2022-05-23 15:23:55</time>
      </trkpt>
      <trkpt lat="41.8067" lon="0.80747">
        <ele>309.2</ele>
        <time>2022-05-23 15:23:56</time>
      </trkpt>
      <trkpt lat="41.80664" lon="0.80748">
        <ele>309.2</ele>
        <time>2022-05-23 15:23:57</time>
      </trkpt>
      <trkpt lat="41.80659" lon="0.80749">
        <ele>309.2</ele>
        <time>2022-05-23 15:23:58</time>
      </trkpt>
      <trkpt lat="41.80653" lon="0.8075">
        <ele>309.2</ele>
        <time>2022-05-23 15:23:59</time>
      </trkpt>
      <trkpt lat="41.80648" lon="0.8075">
        <ele>309.4</ele>
        <time>2022-05-23 15:24:00</time>
      </trkpt>
      <trkpt lat="41.80642" lon="0.80751">
        <ele>309.4</ele>
        <time>2022-05-23 15:24:01</time>
      </trkpt>
      <trkpt lat="41.80637" lon="0.80752">
        <ele>309.6</ele>
        <time>2022-05-23 15:24:02</time>
      </trkpt>
      <trkpt lat="41.80632" lon="0.80753">
        <ele>309.6</ele>
        <time>2022-05-23 15:24:03</time>
      </trkpt>
      <trkpt lat="41.80626" lon="0.80755">
        <ele>309.8</ele>
        <time>2022-05-23 15:24:04</time>
      </trkpt>
      <trkpt lat="41.80621" lon="0.80756">
        <ele>310</ele>
        <time>2022-05-23 15:24:05</time>
      </trkpt>
      <trkpt lat="41.80616" lon="0.80757">
        <ele>310.2</ele>
        <time>2022-05-23 15:24:06</time>
      </trkpt>
      <trkpt lat="41.8061" lon="0.80759">
        <ele>310.4</ele>
        <time>2022-05-23 15:24:07</time>
      </trkpt>
      <trkpt lat="41.80605" lon="0.80761">
        <ele>310.4</ele>
        <time>2022-05-23 15:24:08</time>
      </trkpt>
      <trkpt lat="41.806" lon="0.80762">
        <ele>310.6</ele>
        <time>2022-05-23 15:24:09</time>
      </trkpt>
      <trkpt lat="41.80595" lon="0.80764">
        <ele>310.8</ele>
        <time>2022-05-23 15:24:10</time>
      </trkpt>
      <trkpt lat="41.8059" lon="0.80765">
        <ele>311</ele>
        <time>2022-05-23 15:24:11</time>
      </trkpt>
      <trkpt lat="41.80585" lon="0.80766">
        <ele>311</ele>
        <time>2022-05-23 15:24:12</time>
      </trkpt>
      <trkpt lat="41.8058" lon="0.80767">
        <ele>311.2</ele>
        <time>2022-05-23 15:24:13</time>
      </trkpt>
      <trkpt lat="41.80575" lon="0.80769">
        <ele>311.2</ele>
        <time>2022-05-23 15:24:14</time>
      </trkpt>
      <trkpt lat="41.80569" lon="0.8077">
        <ele>311.4</ele>
        <time>2022-05-23 15:24:15</time>
      </trkpt>
      <trkpt lat="41.80564" lon="0.80771">
        <ele>311.4</ele>
        <time>2022-05-23 15:24:16</time>
      </trkpt>
      <trkpt lat="41.80559" lon="0.80773">
        <ele>311.6</ele>
        <time>2022-05-23 15:24:17</time>
      </trkpt>
      <trkpt lat="41.80554" lon="0.80774">
        <ele>311.6</ele>
        <time>2022-05-23 15:24:18</time>
      </trkpt>
      <trkpt lat="41.80549" lon="0.80776">
        <ele>311.8</ele>
        <time>2022-05-23 15:24:19</time>
      </trkpt>
      <trkpt lat="41.80543" lon="0.80777">
        <ele>311.8</ele>
        <time>2022-05-23 15:24:20</time>
      </trkpt>
      <trkpt lat="41.80538" lon="0.80779">
        <ele>311.8</ele>
        <time>2022-05-23 15:24:21</time>
      </trkpt>
      <trkpt lat="41.80533" lon="0.80781">
        <ele>311.8</ele>
        <time>2022-05-23 15:24:22</time>
      </trkpt>
      <trkpt lat="41.80527" lon="0.80782">
        <ele>311.8</ele>
        <time>2022-05-23 15:24:23</time>
      </trkpt>
      <trkpt lat="41.80522" lon="0.80784">
        <ele>311.8</ele>
        <time>2022-05-23 15:24:24</time>
      </trkpt>
      <trkpt lat="41.80518" lon="0.80785">
        <ele>311.8</ele>
        <time>2022-05-23 15:24:25</time>
      </trkpt>
      <trkpt lat="41.80513" lon="0.80787">
        <ele>311.8</ele>
        <time>2022-05-23 15:24:26</time>
      </trkpt>
      <trkpt lat="41.80508" lon="0.80788">
        <ele>311.8</ele>
        <time>2022-05-23 15:24:27</time>
      </trkpt>
      <trkpt lat="41.80504" lon="0.8079">
        <ele>311.8</ele>
        <time>2022-05-23 15:24:28</time>
      </trkpt>
      <trkpt lat="41.80499" lon="0.80791">
        <ele>311.8</ele>
        <time>2022-05-23 15:24:29</time>
      </trkpt>
      <trkpt lat="41.80494" lon="0.80792">
        <ele>311.8</ele>
        <time>2022-05-23 15:24:30</time>
      </trkpt>
      <trkpt lat="41.80489" lon="0.80794">
        <ele>311.6</ele>
        <time>2022-05-23 15:24:31</time>
      </trkpt>
      <trkpt lat="41.80484" lon="0.80796">
        <ele>311.6</ele>
        <time>2022-05-23 15:24:32</time>
      </trkpt>
      <trkpt lat="41.8048" lon="0.80798">
        <ele>311.4</ele>
        <time>2022-05-23 15:24:33</time>
      </trkpt>
      <trkpt lat="41.80475" lon="0.808">
        <ele>311.4</ele>
        <time>2022-05-23 15:24:34</time>
      </trkpt>
      <trkpt lat="41.8047" lon="0.80802">
        <ele>311.4</ele>
        <time>2022-05-23 15:24:35</time>
      </trkpt>
      <trkpt lat="41.80465" lon="0.80804">
        <ele>311.2</ele>
        <time>2022-05-23 15:24:36</time>
      </trkpt>
      <trkpt lat="41.8046" lon="0.80806">
        <ele>311.2</ele>
        <time>2022-05-23 15:24:37</time>
      </trkpt>
      <trkpt lat="41.80455" lon="0.80808">
        <ele>311</ele>
        <time>2022-05-23 15:24:38</time>
      </trkpt>
      <trkpt lat="41.8045" lon="0.8081">
        <ele>311</ele>
        <time>2022-05-23 15:24:39</time>
      </trkpt>
      <trkpt lat="41.80445" lon="0.80812">
        <ele>311</ele>
        <time>2022-05-23 15:24:40</time>
      </trkpt>
      <trkpt lat="41.80439" lon="0.80815">
        <ele>310.8</ele>
        <time>2022-05-23 15:24:41</time>
      </trkpt>
      <trkpt lat="41.80434" lon="0.80818">
        <ele>310.8</ele>
        <time>2022-05-23 15:24:42</time>
      </trkpt>
      <trkpt lat="41.80428" lon="0.8082">
        <ele>310.4</ele>
        <time>2022-05-23 15:24:43</time>
      </trkpt>
      <trkpt lat="41.80422" lon="0.80823">
        <ele>310</ele>
        <time>2022-05-23 15:24:44</time>
      </trkpt>
      <trkpt lat="41.80416" lon="0.80827">
        <ele>309.8</ele>
        <time>2022-05-23 15:24:45</time>
      </trkpt>
      <trkpt lat="41.8041" lon="0.8083">
        <ele>309.4</ele>
        <time>2022-05-23 15:24:46</time>
      </trkpt>
      <trkpt lat="41.80402" lon="0.80834">
        <ele>308.8</ele>
        <time>2022-05-23 15:24:47</time>
      </trkpt>
      <trkpt lat="41.80395" lon="0.80837">
        <ele>308.4</ele>
        <time>2022-05-23 15:24:48</time>
      </trkpt>
      <trkpt lat="41.80388" lon="0.80841">
        <ele>307.8</ele>
        <time>2022-05-23 15:24:49</time>
      </trkpt>
      <trkpt lat="41.8038" lon="0.80845">
        <ele>307.2</ele>
        <time>2022-05-23 15:24:50</time>
      </trkpt>
      <trkpt lat="41.80373" lon="0.80849">
        <ele>306.6</ele>
        <time>2022-05-23 15:24:51</time>
      </trkpt>
      <trkpt lat="41.80365" lon="0.80853">
        <ele>306.2</ele>
        <time>2022-05-23 15:24:52</time>
      </trkpt>
      <trkpt lat="41.80356" lon="0.80856">
        <ele>305.6</ele>
        <time>2022-05-23 15:24:53</time>
      </trkpt>
      <trkpt lat="41.80348" lon="0.8086">
        <ele>305.2</ele>
        <time>2022-05-23 15:24:54</time>
      </trkpt>
      <trkpt lat="41.80339" lon="0.80862">
        <ele>304.8</ele>
        <time>2022-05-23 15:24:55</time>
      </trkpt>
      <trkpt lat="41.8033" lon="0.80864">
        <ele>304.4</ele>
        <time>2022-05-23 15:24:56</time>
      </trkpt>
      <trkpt lat="41.80322" lon="0.80864">
        <ele>304</ele>
        <time>2022-05-23 15:24:57</time>
      </trkpt>
      <trkpt lat="41.80314" lon="0.80863">
        <ele>303.8</ele>
        <time>2022-05-23 15:24:58</time>
      </trkpt>
      <trkpt lat="41.80306" lon="0.80862">
        <ele>303.4</ele>
        <time>2022-05-23 15:24:59</time>
      </trkpt>
      <trkpt lat="41.80298" lon="0.8086">
        <ele>303.2</ele>
        <time>2022-05-23 15:25:00</time>
      </trkpt>
      <trkpt lat="41.80291" lon="0.80857">
        <ele>303.2</ele>
        <time>2022-05-23 15:25:01</time>
      </trkpt>
      <trkpt lat="41.80284" lon="0.80853">
        <ele>303</ele>
        <time>2022-05-23 15:25:02</time>
      </trkpt>
      <trkpt lat="41.80278" lon="0.80849">
        <ele>303</ele>
        <time>2022-05-23 15:25:03</time>
      </trkpt>
      <trkpt lat="41.80272" lon="0.80846">
        <ele>303</ele>
        <time>2022-05-23 15:25:04</time>
      </trkpt>
      <trkpt lat="41.80266" lon="0.80842">
        <ele>303</ele>
        <time>2022-05-23 15:25:05</time>
      </trkpt>
      <trkpt lat="41.8026" lon="0.80839">
        <ele>303.2</ele>
        <time>2022-05-23 15:25:06</time>
      </trkpt>
      <trkpt lat="41.80253" lon="0.80835">
        <ele>303.2</ele>
        <time>2022-05-23 15:25:07</time>
      </trkpt>
      <trkpt lat="41.80247" lon="0.80832">
        <ele>303.2</ele>
        <time>2022-05-23 15:25:08</time>
      </trkpt>
      <trkpt lat="41.80241" lon="0.80829">
        <ele>303.2</ele>
        <time>2022-05-23 15:25:09</time>
      </trkpt>
      <trkpt lat="41.80235" lon="0.80827">
        <ele>303.2</ele>
        <time>2022-05-23 15:25:10</time>
      </trkpt>
      <trkpt lat="41.80229" lon="0.80824">
        <ele>303</ele>
        <time>2022-05-23 15:25:11</time>
      </trkpt>
      <trkpt lat="41.80222" lon="0.80823">
        <ele>303</ele>
        <time>2022-05-23 15:25:12</time>
      </trkpt>
      <trkpt lat="41.80216" lon="0.80821">
        <ele>303</ele>
        <time>2022-05-23 15:25:13</time>
      </trkpt>
      <trkpt lat="41.80209" lon="0.8082">
        <ele>303.2</ele>
        <time>2022-05-23 15:25:14</time>
      </trkpt>
      <trkpt lat="41.80203" lon="0.80819">
        <ele>303.2</ele>
        <time>2022-05-23 15:25:15</time>
      </trkpt>
      <trkpt lat="41.80197" lon="0.80818">
        <ele>303.2</ele>
        <time>2022-05-23 15:25:16</time>
      </trkpt>
      <trkpt lat="41.80191" lon="0.80817">
        <ele>303.4</ele>
        <time>2022-05-23 15:25:17</time>
      </trkpt>
      <trkpt lat="41.80185" lon="0.80816">
        <ele>303.2</ele>
        <time>2022-05-23 15:25:18</time>
      </trkpt>
      <trkpt lat="41.80179" lon="0.80815">
        <ele>303.4</ele>
        <time>2022-05-23 15:25:19</time>
      </trkpt>
      <trkpt lat="41.80174" lon="0.80814">
        <ele>303.4</ele>
        <time>2022-05-23 15:25:20</time>
      </trkpt>
      <trkpt lat="41.80168" lon="0.80813">
        <ele>303.8</ele>
        <time>2022-05-23 15:25:21</time>
      </trkpt>
      <trkpt lat="41.80163" lon="0.80811">
        <ele>303.8</ele>
        <time>2022-05-23 15:25:22</time>
      </trkpt>
      <trkpt lat="41.80158" lon="0.80811">
        <ele>303.8</ele>
        <time>2022-05-23 15:25:23</time>
      </trkpt>
      <trkpt lat="41.80153" lon="0.8081">
        <ele>304</ele>
        <time>2022-05-23 15:25:24</time>
      </trkpt>
      <trkpt lat="41.80148" lon="0.80809">
        <ele>304</ele>
        <time>2022-05-23 15:25:25</time>
      </trkpt>
      <trkpt lat="41.80142" lon="0.80808">
        <ele>304</ele>
        <time>2022-05-23 15:25:26</time>
      </trkpt>
      <trkpt lat="41.80138" lon="0.80807">
        <ele>304</ele>
        <time>2022-05-23 15:25:27</time>
      </trkpt>
      <trkpt lat="41.80133" lon="0.80806">
        <ele>304</ele>
        <time>2022-05-23 15:25:28</time>
      </trkpt>
      <trkpt lat="41.80128" lon="0.80805">
        <ele>304</ele>
        <time>2022-05-23 15:25:29</time>
      </trkpt>
      <trkpt lat="41.80123" lon="0.80804">
        <ele>303.8</ele>
        <time>2022-05-23 15:25:30</time>
      </trkpt>
      <trkpt lat="41.80119" lon="0.80803">
        <ele>303.8</ele>
        <time>2022-05-23 15:25:31</time>
      </trkpt>
      <trkpt lat="41.80114" lon="0.80802">
        <ele>303.8</ele>
        <time>2022-05-23 15:25:32</time>
      </trkpt>
      <trkpt lat="41.8011" lon="0.80802">
        <ele>304</ele>
        <time>2022-05-23 15:25:33</time>
      </trkpt>
      <trkpt lat="41.80105" lon="0.80801">
        <ele>304</ele>
        <time>2022-05-23 15:25:34</time>
      </trkpt>
      <trkpt lat="41.801" lon="0.808">
        <ele>304</ele>
        <time>2022-05-23 15:25:35</time>
      </trkpt>
      <trkpt lat="41.80096" lon="0.808">
        <ele>304.2</ele>
        <time>2022-05-23 15:25:36</time>
      </trkpt>
      <trkpt lat="41.80092" lon="0.80799">
        <ele>304.2</ele>
        <time>2022-05-23 15:25:37</time>
      </trkpt>
      <trkpt lat="41.80087" lon="0.80798">
        <ele>304.2</ele>
        <time>2022-05-23 15:25:38</time>
      </trkpt>
      <trkpt lat="41.80082" lon="0.80797">
        <ele>304.2</ele>
        <time>2022-05-23 15:25:39</time>
      </trkpt>
      <trkpt lat="41.80078" lon="0.80797">
        <ele>304.2</ele>
        <time>2022-05-23 15:25:40</time>
      </trkpt>
      <trkpt lat="41.80073" lon="0.80796">
        <ele>304.2</ele>
        <time>2022-05-23 15:25:41</time>
      </trkpt>
      <trkpt lat="41.80069" lon="0.80795">
        <ele>304.4</ele>
        <time>2022-05-23 15:25:42</time>
      </trkpt>
      <trkpt lat="41.80064" lon="0.80794">
        <ele>304.4</ele>
        <time>2022-05-23 15:25:43</time>
      </trkpt>
      <trkpt lat="41.80059" lon="0.80793">
        <ele>304.6</ele>
        <time>2022-05-23 15:25:44</time>
      </trkpt>
      <trkpt lat="41.80055" lon="0.80792">
        <ele>304.8</ele>
        <time>2022-05-23 15:25:45</time>
      </trkpt>
      <trkpt lat="41.8005" lon="0.80791">
        <ele>304.8</ele>
        <time>2022-05-23 15:25:46</time>
      </trkpt>
      <trkpt lat="41.80045" lon="0.80791">
        <ele>304.8</ele>
        <time>2022-05-23 15:25:47</time>
      </trkpt>
      <trkpt lat="41.80043" lon="0.8079">
        <ele>305</ele>
        <time>2022-05-23 15:25:48</time>
      </trkpt>
      <trkpt lat="41.80036" lon="0.80789">
        <ele>305</ele>
        <time>2022-05-23 15:25:49</time>
      </trkpt>
      <trkpt lat="41.80031" lon="0.80788">
        <ele>305</ele>
        <time>2022-05-23 15:25:50</time>
      </trkpt>
      <trkpt lat="41.80027" lon="0.80786">
        <ele>305</ele>
        <time>2022-05-23 15:25:51</time>
      </trkpt>
      <trkpt lat="41.80022" lon="0.80785">
        <ele>305</ele>
        <time>2022-05-23 15:25:52</time>
      </trkpt>
      <trkpt lat="41.80017" lon="0.80784">
        <ele>305</ele>
        <time>2022-05-23 15:25:53</time>
      </trkpt>
      <trkpt lat="41.80012" lon="0.80783">
        <ele>305</ele>
        <time>2022-05-23 15:25:54</time>
      </trkpt>
      <trkpt lat="41.80008" lon="0.80783">
        <ele>305</ele>
        <time>2022-05-23 15:25:55</time>
      </trkpt>
      <trkpt lat="41.80003" lon="0.80782">
        <ele>305</ele>
        <time>2022-05-23 15:25:56</time>
      </trkpt>
      <trkpt lat="41.79998" lon="0.80781">
        <ele>305</ele>
        <time>2022-05-23 15:25:57</time>
      </trkpt>
      <trkpt lat="41.79993" lon="0.8078">
        <ele>305</ele>
        <time>2022-05-23 15:25:58</time>
      </trkpt>
      <trkpt lat="41.79989" lon="0.8078">
        <ele>305</ele>
        <time>2022-05-23 15:25:59</time>
      </trkpt>
      <trkpt lat="41.79984" lon="0.80779">
        <ele>305</ele>
        <time>2022-05-23 15:26:00</time>
      </trkpt>
      <trkpt lat="41.7998" lon="0.80778">
        <ele>305</ele>
        <time>2022-05-23 15:26:01</time>
      </trkpt>
      <trkpt lat="41.79975" lon="0.80777">
        <ele>305.2</ele>
        <time>2022-05-23 15:26:02</time>
      </trkpt>
      <trkpt lat="41.7997" lon="0.80776">
        <ele>305.4</ele>
        <time>2022-05-23 15:26:03</time>
      </trkpt>
      <trkpt lat="41.79965" lon="0.80775">
        <ele>305.4</ele>
        <time>2022-05-23 15:26:04</time>
      </trkpt>
      <trkpt lat="41.79961" lon="0.80775">
        <ele>305.6</ele>
        <time>2022-05-23 15:26:05</time>
      </trkpt>
      <trkpt lat="41.79957" lon="0.80774">
        <ele>305.8</ele>
        <time>2022-05-23 15:26:06</time>
      </trkpt>
      <trkpt lat="41.79952" lon="0.80773">
        <ele>306</ele>
        <time>2022-05-23 15:26:07</time>
      </trkpt>
      <trkpt lat="41.79947" lon="0.80772">
        <ele>306</ele>
        <time>2022-05-23 15:26:08</time>
      </trkpt>
      <trkpt lat="41.79943" lon="0.80771">
        <ele>306.2</ele>
        <time>2022-05-23 15:26:09</time>
      </trkpt>
      <trkpt lat="41.79938" lon="0.8077">
        <ele>306.2</ele>
        <time>2022-05-23 15:26:10</time>
      </trkpt>
      <trkpt lat="41.79934" lon="0.8077">
        <ele>306.2</ele>
        <time>2022-05-23 15:26:11</time>
      </trkpt>
      <trkpt lat="41.7993" lon="0.80769">
        <ele>306.4</ele>
        <time>2022-05-23 15:26:12</time>
      </trkpt>
      <trkpt lat="41.79925" lon="0.80769">
        <ele>306.4</ele>
        <time>2022-05-23 15:26:13</time>
      </trkpt>
      <trkpt lat="41.79921" lon="0.80768">
        <ele>306.6</ele>
        <time>2022-05-23 15:26:14</time>
      </trkpt>
      <trkpt lat="41.79917" lon="0.80767">
        <ele>306.8</ele>
        <time>2022-05-23 15:26:15</time>
      </trkpt>
      <trkpt lat="41.79913" lon="0.80766">
        <ele>306.8</ele>
        <time>2022-05-23 15:26:16</time>
      </trkpt>
      <trkpt lat="41.79909" lon="0.80764">
        <ele>307</ele>
        <time>2022-05-23 15:26:17</time>
      </trkpt>
      <trkpt lat="41.79905" lon="0.80764">
        <ele>307</ele>
        <time>2022-05-23 15:26:18</time>
      </trkpt>
      <trkpt lat="41.79901" lon="0.80762">
        <ele>307</ele>
        <time>2022-05-23 15:26:19</time>
      </trkpt>
      <trkpt lat="41.79897" lon="0.80762">
        <ele>307.2</ele>
        <time>2022-05-23 15:26:20</time>
      </trkpt>
      <trkpt lat="41.79893" lon="0.80762">
        <ele>307.4</ele>
        <time>2022-05-23 15:26:21</time>
      </trkpt>
      <trkpt lat="41.7989" lon="0.80761">
        <ele>307.4</ele>
        <time>2022-05-23 15:26:22</time>
      </trkpt>
      <trkpt lat="41.79887" lon="0.8076">
        <ele>307.6</ele>
        <time>2022-05-23 15:26:23</time>
      </trkpt>
      <trkpt lat="41.79883" lon="0.80759">
        <ele>307.8</ele>
        <time>2022-05-23 15:26:24</time>
      </trkpt>
      <trkpt lat="41.7988" lon="0.80758">
        <ele>307.8</ele>
        <time>2022-05-23 15:26:25</time>
      </trkpt>
      <trkpt lat="41.79877" lon="0.80757">
        <ele>308</ele>
        <time>2022-05-23 15:26:26</time>
      </trkpt>
      <trkpt lat="41.79874" lon="0.80756">
        <ele>308.2</ele>
        <time>2022-05-23 15:26:27</time>
      </trkpt>
      <trkpt lat="41.79872" lon="0.80755">
        <ele>308.2</ele>
        <time>2022-05-23 15:26:28</time>
      </trkpt>
      <trkpt lat="41.79869" lon="0.80754">
        <ele>308.4</ele>
        <time>2022-05-23 15:26:29</time>
      </trkpt>
      <trkpt lat="41.79866" lon="0.80754">
        <ele>308.6</ele>
        <time>2022-05-23 15:26:30</time>
      </trkpt>
      <trkpt lat="41.79863" lon="0.80753">
        <ele>308.8</ele>
        <time>2022-05-23 15:26:31</time>
      </trkpt>
      <trkpt lat="41.7986" lon="0.80752">
        <ele>308.8</ele>
        <time>2022-05-23 15:26:32</time>
      </trkpt>
      <trkpt lat="41.79857" lon="0.80751">
        <ele>309</ele>
        <time>2022-05-23 15:26:33</time>
      </trkpt>
      <trkpt lat="41.79854" lon="0.80751">
        <ele>309.2</ele>
        <time>2022-05-23 15:26:34</time>
      </trkpt>
      <trkpt lat="41.7985" lon="0.80749">
        <ele>309.4</ele>
        <time>2022-05-23 15:26:35</time>
      </trkpt>
      <trkpt lat="41.79846" lon="0.80748">
        <ele>309.6</ele>
        <time>2022-05-23 15:26:36</time>
      </trkpt>
      <trkpt lat="41.79842" lon="0.80747">
        <ele>309.6</ele>
        <time>2022-05-23 15:26:37</time>
      </trkpt>
      <trkpt lat="41.79839" lon="0.80746">
        <ele>309.8</ele>
        <time>2022-05-23 15:26:38</time>
      </trkpt>
      <trkpt lat="41.79835" lon="0.80745">
        <ele>310</ele>
        <time>2022-05-23 15:26:39</time>
      </trkpt>
      <trkpt lat="41.79832" lon="0.80744">
        <ele>310.2</ele>
        <time>2022-05-23 15:26:40</time>
      </trkpt>
      <trkpt lat="41.79829" lon="0.80743">
        <ele>310.4</ele>
        <time>2022-05-23 15:26:41</time>
      </trkpt>
      <trkpt lat="41.79826" lon="0.80743">
        <ele>310.6</ele>
        <time>2022-05-23 15:26:42</time>
      </trkpt>
      <trkpt lat="41.79823" lon="0.80742">
        <ele>310.8</ele>
        <time>2022-05-23 15:26:43</time>
      </trkpt>
      <trkpt lat="41.7982" lon="0.80741">
        <ele>311</ele>
        <time>2022-05-23 15:26:44</time>
      </trkpt>
      <trkpt lat="41.79817" lon="0.80741">
        <ele>311.2</ele>
        <time>2022-05-23 15:26:45</time>
      </trkpt>
      <trkpt lat="41.79814" lon="0.80741">
        <ele>311.4</ele>
        <time>2022-05-23 15:26:46</time>
      </trkpt>
      <trkpt lat="41.7981" lon="0.8074">
        <ele>311.8</ele>
        <time>2022-05-23 15:26:47</time>
      </trkpt>
      <trkpt lat="41.79807" lon="0.8074">
        <ele>312</ele>
        <time>2022-05-23 15:26:48</time>
      </trkpt>
      <trkpt lat="41.79804" lon="0.8074">
        <ele>312.2</ele>
        <time>2022-05-23 15:26:49</time>
      </trkpt>
      <trkpt lat="41.79801" lon="0.80739">
        <ele>312.4</ele>
        <time>2022-05-23 15:26:50</time>
      </trkpt>
      <trkpt lat="41.79797" lon="0.80738">
        <ele>312.6</ele>
        <time>2022-05-23 15:26:51</time>
      </trkpt>
      <trkpt lat="41.79795" lon="0.80736">
        <ele>312.8</ele>
        <time>2022-05-23 15:26:52</time>
      </trkpt>
      <trkpt lat="41.79793" lon="0.80732">
        <ele>313.2</ele>
        <time>2022-05-23 15:26:53</time>
      </trkpt>
      <trkpt lat="41.79789" lon="0.80727">
        <ele>313.4</ele>
        <time>2022-05-23 15:26:54</time>
      </trkpt>
      <trkpt lat="41.79785" lon="0.80723">
        <ele>313.4</ele>
        <time>2022-05-23 15:26:55</time>
      </trkpt>
      <trkpt lat="41.79781" lon="0.80718">
        <ele>313.6</ele>
        <time>2022-05-23 15:26:56</time>
      </trkpt>
      <trkpt lat="41.79781" lon="0.80717">
        <ele>313.6</ele>
        <time>2022-05-23 15:26:57</time>
      </trkpt>
      <trkpt lat="41.79779" lon="0.80715">
        <ele>313.6</ele>
        <time>2022-05-23 15:26:58</time>
      </trkpt>
      <trkpt lat="41.79777" lon="0.80714">
        <ele>313.6</ele>
        <time>2022-05-23 15:26:59</time>
      </trkpt>
      <trkpt lat="41.79772" lon="0.80714">
        <ele>313.4</ele>
        <time>2022-05-23 15:27:00</time>
      </trkpt>
      <trkpt lat="41.79768" lon="0.80716">
        <ele>313.4</ele>
        <time>2022-05-23 15:27:01</time>
      </trkpt>
      <trkpt lat="41.79764" lon="0.80719">
        <ele>313.2</ele>
        <time>2022-05-23 15:27:02</time>
      </trkpt>
      <trkpt lat="41.79758" lon="0.80721">
        <ele>313.2</ele>
        <time>2022-05-23 15:27:03</time>
      </trkpt>
      <trkpt lat="41.79753" lon="0.80723">
        <ele>313.2</ele>
        <time>2022-05-23 15:27:04</time>
      </trkpt>
      <trkpt lat="41.79747" lon="0.80723">
        <ele>313.2</ele>
        <time>2022-05-23 15:27:05</time>
      </trkpt>
      <trkpt lat="41.79742" lon="0.80724">
        <ele>313.2</ele>
        <time>2022-05-23 15:27:06</time>
      </trkpt>
      <trkpt lat="41.79736" lon="0.80725">
        <ele>313.2</ele>
        <time>2022-05-23 15:27:07</time>
      </trkpt>
      <trkpt lat="41.7973" lon="0.80725">
        <ele>313.2</ele>
        <time>2022-05-23 15:27:08</time>
      </trkpt>
      <trkpt lat="41.79725" lon="0.80726">
        <ele>313.2</ele>
        <time>2022-05-23 15:27:09</time>
      </trkpt>
      <trkpt lat="41.7972" lon="0.80727">
        <ele>313.2</ele>
        <time>2022-05-23 15:27:10</time>
      </trkpt>
      <trkpt lat="41.79714" lon="0.80727">
        <ele>313.2</ele>
        <time>2022-05-23 15:27:11</time>
      </trkpt>
      <trkpt lat="41.79709" lon="0.80728">
        <ele>313.2</ele>
        <time>2022-05-23 15:27:12</time>
      </trkpt>
      <trkpt lat="41.79703" lon="0.80728">
        <ele>313.2</ele>
        <time>2022-05-23 15:27:13</time>
      </trkpt>
      <trkpt lat="41.79698" lon="0.80728">
        <ele>313.2</ele>
        <time>2022-05-23 15:27:14</time>
      </trkpt>
      <trkpt lat="41.79692" lon="0.80729">
        <ele>313.2</ele>
        <time>2022-05-23 15:27:15</time>
      </trkpt>
      <trkpt lat="41.79686" lon="0.80729">
        <ele>313.4</ele>
        <time>2022-05-23 15:27:16</time>
      </trkpt>
      <trkpt lat="41.79681" lon="0.80729">
        <ele>313.4</ele>
        <time>2022-05-23 15:27:17</time>
      </trkpt>
      <trkpt lat="41.79675" lon="0.80729">
        <ele>313.4</ele>
        <time>2022-05-23 15:27:18</time>
      </trkpt>
      <trkpt lat="41.7967" lon="0.80729">
        <ele>313.4</ele>
        <time>2022-05-23 15:27:19</time>
      </trkpt>
      <trkpt lat="41.79664" lon="0.80729">
        <ele>313.2</ele>
        <time>2022-05-23 15:27:20</time>
      </trkpt>
      <trkpt lat="41.79659" lon="0.80728">
        <ele>313.2</ele>
        <time>2022-05-23 15:27:21</time>
      </trkpt>
      <trkpt lat="41.79653" lon="0.80727">
        <ele>313.2</ele>
        <time>2022-05-23 15:27:22</time>
      </trkpt>
      <trkpt lat="41.79647" lon="0.80726">
        <ele>313</ele>
        <time>2022-05-23 15:27:23</time>
      </trkpt>
      <trkpt lat="41.79641" lon="0.80724">
        <ele>313</ele>
        <time>2022-05-23 15:27:24</time>
      </trkpt>
      <trkpt lat="41.79635" lon="0.80722">
        <ele>312.8</ele>
        <time>2022-05-23 15:27:25</time>
      </trkpt>
      <trkpt lat="41.79629" lon="0.8072">
        <ele>312.8</ele>
        <time>2022-05-23 15:27:26</time>
      </trkpt>
      <trkpt lat="41.79623" lon="0.80717">
        <ele>312.6</ele>
        <time>2022-05-23 15:27:27</time>
      </trkpt>
      <trkpt lat="41.79616" lon="0.80714">
        <ele>312.2</ele>
        <time>2022-05-23 15:27:28</time>
      </trkpt>
      <trkpt lat="41.79609" lon="0.80712">
        <ele>312</ele>
        <time>2022-05-23 15:27:29</time>
      </trkpt>
      <trkpt lat="41.79604" lon="0.80709">
        <ele>311.6</ele>
        <time>2022-05-23 15:27:30</time>
      </trkpt>
      <trkpt lat="41.79596" lon="0.80707">
        <ele>311.4</ele>
        <time>2022-05-23 15:27:31</time>
      </trkpt>
      <trkpt lat="41.7959" lon="0.80705">
        <ele>311</ele>
        <time>2022-05-23 15:27:32</time>
      </trkpt>
      <trkpt lat="41.79583" lon="0.80703">
        <ele>310.8</ele>
        <time>2022-05-23 15:27:33</time>
      </trkpt>
      <trkpt lat="41.79576" lon="0.80701">
        <ele>310.4</ele>
        <time>2022-05-23 15:27:34</time>
      </trkpt>
      <trkpt lat="41.79569" lon="0.80699">
        <ele>310.2</ele>
        <time>2022-05-23 15:27:35</time>
      </trkpt>
      <trkpt lat="41.79562" lon="0.80697">
        <ele>309.8</ele>
        <time>2022-05-23 15:27:36</time>
      </trkpt>
      <trkpt lat="41.79554" lon="0.80695">
        <ele>309.4</ele>
        <time>2022-05-23 15:27:37</time>
      </trkpt>
      <trkpt lat="41.79546" lon="0.80693">
        <ele>308.8</ele>
        <time>2022-05-23 15:27:38</time>
      </trkpt>
      <trkpt lat="41.79538" lon="0.80691">
        <ele>308.4</ele>
        <time>2022-05-23 15:27:39</time>
      </trkpt>
      <trkpt lat="41.7953" lon="0.80689">
        <ele>307.8</ele>
        <time>2022-05-23 15:27:40</time>
      </trkpt>
      <trkpt lat="41.79522" lon="0.80687">
        <ele>307.2</ele>
        <time>2022-05-23 15:27:41</time>
      </trkpt>
      <trkpt lat="41.79514" lon="0.80684">
        <ele>306.8</ele>
        <time>2022-05-23 15:27:42</time>
      </trkpt>
      <trkpt lat="41.79506" lon="0.80682">
        <ele>306.4</ele>
        <time>2022-05-23 15:27:43</time>
      </trkpt>
      <trkpt lat="41.79497" lon="0.8068">
        <ele>305.8</ele>
        <time>2022-05-23 15:27:44</time>
      </trkpt>
      <trkpt lat="41.79489" lon="0.80678">
        <ele>305.4</ele>
        <time>2022-05-23 15:27:45</time>
      </trkpt>
      <trkpt lat="41.7948" lon="0.80676">
        <ele>304.8</ele>
        <time>2022-05-23 15:27:46</time>
      </trkpt>
      <trkpt lat="41.7947" lon="0.80674">
        <ele>304.2</ele>
        <time>2022-05-23 15:27:47</time>
      </trkpt>
      <trkpt lat="41.79461" lon="0.80672">
        <ele>303.8</ele>
        <time>2022-05-23 15:27:48</time>
      </trkpt>
      <trkpt lat="41.79453" lon="0.8067">
        <ele>303.6</ele>
        <time>2022-05-23 15:27:49</time>
      </trkpt>
      <trkpt lat="41.79444" lon="0.80669">
        <ele>303.2</ele>
        <time>2022-05-23 15:27:50</time>
      </trkpt>
      <trkpt lat="41.79436" lon="0.80668">
        <ele>302.8</ele>
        <time>2022-05-23 15:27:51</time>
      </trkpt>
      <trkpt lat="41.79427" lon="0.80668">
        <ele>302.2</ele>
        <time>2022-05-23 15:27:52</time>
      </trkpt>
      <trkpt lat="41.79419" lon="0.80669">
        <ele>301.8</ele>
        <time>2022-05-23 15:27:53</time>
      </trkpt>
      <trkpt lat="41.79413" lon="0.80672">
        <ele>301.6</ele>
        <time>2022-05-23 15:27:54</time>
      </trkpt>
      <trkpt lat="41.79407" lon="0.80676">
        <ele>301.4</ele>
        <time>2022-05-23 15:27:55</time>
      </trkpt>
      <trkpt lat="41.79404" lon="0.80683">
        <ele>301.4</ele>
        <time>2022-05-23 15:27:56</time>
      </trkpt>
      <trkpt lat="41.79403" lon="0.80689">
        <ele>301.4</ele>
        <time>2022-05-23 15:27:57</time>
      </trkpt>
      <trkpt lat="41.79402" lon="0.80696">
        <ele>301.4</ele>
        <time>2022-05-23 15:27:58</time>
      </trkpt>
      <trkpt lat="41.79401" lon="0.80703">
        <ele>301.4</ele>
        <time>2022-05-23 15:27:59</time>
      </trkpt>
      <trkpt lat="41.79401" lon="0.8071">
        <ele>301.4</ele>
        <time>2022-05-23 15:28:00</time>
      </trkpt>
      <trkpt lat="41.79399" lon="0.80717">
        <ele>301.4</ele>
        <time>2022-05-23 15:28:01</time>
      </trkpt>
      <trkpt lat="41.79399" lon="0.80724">
        <ele>301.4</ele>
        <time>2022-05-23 15:28:02</time>
      </trkpt>
      <trkpt lat="41.79398" lon="0.80731">
        <ele>301.4</ele>
        <time>2022-05-23 15:28:03</time>
      </trkpt>
      <trkpt lat="41.79397" lon="0.80737">
        <ele>301.6</ele>
        <time>2022-05-23 15:28:04</time>
      </trkpt>
      <trkpt lat="41.79397" lon="0.80744">
        <ele>301.6</ele>
        <time>2022-05-23 15:28:05</time>
      </trkpt>
      <trkpt lat="41.79396" lon="0.80751">
        <ele>301.4</ele>
        <time>2022-05-23 15:28:06</time>
      </trkpt>
      <trkpt lat="41.79396" lon="0.80757">
        <ele>301.6</ele>
        <time>2022-05-23 15:28:07</time>
      </trkpt>
      <trkpt lat="41.79395" lon="0.80763">
        <ele>301.6</ele>
        <time>2022-05-23 15:28:08</time>
      </trkpt>
      <trkpt lat="41.79394" lon="0.80769">
        <ele>301.6</ele>
        <time>2022-05-23 15:28:09</time>
      </trkpt>
      <trkpt lat="41.79393" lon="0.80775">
        <ele>301.6</ele>
        <time>2022-05-23 15:28:10</time>
      </trkpt>
      <trkpt lat="41.79393" lon="0.80782">
        <ele>301.6</ele>
        <time>2022-05-23 15:28:11</time>
      </trkpt>
      <trkpt lat="41.79391" lon="0.80789">
        <ele>301.6</ele>
        <time>2022-05-23 15:28:12</time>
      </trkpt>
      <trkpt lat="41.79391" lon="0.80796">
        <ele>301.4</ele>
        <time>2022-05-23 15:28:13</time>
      </trkpt>
      <trkpt lat="41.7939" lon="0.80803">
        <ele>301.4</ele>
        <time>2022-05-23 15:28:14</time>
      </trkpt>
      <trkpt lat="41.79389" lon="0.80809">
        <ele>301.4</ele>
        <time>2022-05-23 15:28:15</time>
      </trkpt>
      <trkpt lat="41.79388" lon="0.80816">
        <ele>301.6</ele>
        <time>2022-05-23 15:28:16</time>
      </trkpt>
      <trkpt lat="41.79387" lon="0.80822">
        <ele>301.4</ele>
        <time>2022-05-23 15:28:17</time>
      </trkpt>
      <trkpt lat="41.79386" lon="0.80829">
        <ele>301.4</ele>
        <time>2022-05-23 15:28:18</time>
      </trkpt>
      <trkpt lat="41.79385" lon="0.80835">
        <ele>301.4</ele>
        <time>2022-05-23 15:28:19</time>
      </trkpt>
      <trkpt lat="41.79384" lon="0.80841">
        <ele>301.4</ele>
        <time>2022-05-23 15:28:20</time>
      </trkpt>
      <trkpt lat="41.79382" lon="0.80847">
        <ele>301.6</ele>
        <time>2022-05-23 15:28:21</time>
      </trkpt>
      <trkpt lat="41.79381" lon="0.80852">
        <ele>301.6</ele>
        <time>2022-05-23 15:28:22</time>
      </trkpt>
      <trkpt lat="41.79378" lon="0.80857">
        <ele>301.6</ele>
        <time>2022-05-23 15:28:23</time>
      </trkpt>
      <trkpt lat="41.79377" lon="0.80862">
        <ele>301.6</ele>
        <time>2022-05-23 15:28:24</time>
      </trkpt>
      <trkpt lat="41.79377" lon="0.80868">
        <ele>301.4</ele>
        <time>2022-05-23 15:28:25</time>
      </trkpt>
      <trkpt lat="41.79376" lon="0.80874">
        <ele>301.2</ele>
        <time>2022-05-23 15:28:26</time>
      </trkpt>
      <trkpt lat="41.79375" lon="0.80878">
        <ele>300.8</ele>
        <time>2022-05-23 15:28:27</time>
      </trkpt>
      <trkpt lat="41.79372" lon="0.80886">
        <ele>300.6</ele>
        <time>2022-05-23 15:28:28</time>
      </trkpt>
      <trkpt lat="41.7937" lon="0.80892">
        <ele>300.4</ele>
        <time>2022-05-23 15:28:29</time>
      </trkpt>
      <trkpt lat="41.79368" lon="0.80898">
        <ele>300.2</ele>
        <time>2022-05-23 15:28:30</time>
      </trkpt>
      <trkpt lat="41.79365" lon="0.80904">
        <ele>300</ele>
        <time>2022-05-23 15:28:31</time>
      </trkpt>
      <trkpt lat="41.79362" lon="0.80911">
        <ele>299.8</ele>
        <time>2022-05-23 15:28:32</time>
      </trkpt>
      <trkpt lat="41.7936" lon="0.80918">
        <ele>299.8</ele>
        <time>2022-05-23 15:28:33</time>
      </trkpt>
      <trkpt lat="41.79358" lon="0.80925">
        <ele>299.6</ele>
        <time>2022-05-23 15:28:34</time>
      </trkpt>
      <trkpt lat="41.79356" lon="0.80931">
        <ele>299.6</ele>
        <time>2022-05-23 15:28:35</time>
      </trkpt>
      <trkpt lat="41.79354" lon="0.80938">
        <ele>299.6</ele>
        <time>2022-05-23 15:28:36</time>
      </trkpt>
      <trkpt lat="41.79351" lon="0.80945">
        <ele>299.4</ele>
        <time>2022-05-23 15:28:37</time>
      </trkpt>
      <trkpt lat="41.79349" lon="0.80951">
        <ele>299.6</ele>
        <time>2022-05-23 15:28:38</time>
      </trkpt>
      <trkpt lat="41.79347" lon="0.80958">
        <ele>299.6</ele>
        <time>2022-05-23 15:28:39</time>
      </trkpt>
      <trkpt lat="41.79347" lon="0.80965">
        <ele>299.6</ele>
        <time>2022-05-23 15:28:40</time>
      </trkpt>
      <trkpt lat="41.79345" lon="0.80971">
        <ele>299.6</ele>
        <time>2022-05-23 15:28:41</time>
      </trkpt>
      <trkpt lat="41.79342" lon="0.80977">
        <ele>299.6</ele>
        <time>2022-05-23 15:28:42</time>
      </trkpt>
      <trkpt lat="41.7934" lon="0.80983">
        <ele>299.6</ele>
        <time>2022-05-23 15:28:43</time>
      </trkpt>
      <trkpt lat="41.79337" lon="0.80989">
        <ele>299.6</ele>
        <time>2022-05-23 15:28:44</time>
      </trkpt>
      <trkpt lat="41.79336" lon="0.80996">
        <ele>299.6</ele>
        <time>2022-05-23 15:28:45</time>
      </trkpt>
      <trkpt lat="41.79334" lon="0.81003">
        <ele>299.6</ele>
        <time>2022-05-23 15:28:46</time>
      </trkpt>
      <trkpt lat="41.79333" lon="0.81009">
        <ele>299.6</ele>
        <time>2022-05-23 15:28:47</time>
      </trkpt>
      <trkpt lat="41.79331" lon="0.81014">
        <ele>299.8</ele>
        <time>2022-05-23 15:28:48</time>
      </trkpt>
      <trkpt lat="41.79329" lon="0.8102">
        <ele>299.8</ele>
        <time>2022-05-23 15:28:49</time>
      </trkpt>
      <trkpt lat="41.79327" lon="0.81024">
        <ele>299.8</ele>
        <time>2022-05-23 15:28:50</time>
      </trkpt>
      <trkpt lat="41.79324" lon="0.81031">
        <ele>299.8</ele>
        <time>2022-05-23 15:28:51</time>
      </trkpt>
      <trkpt lat="41.79322" lon="0.81037">
        <ele>299.8</ele>
        <time>2022-05-23 15:28:52</time>
      </trkpt>
      <trkpt lat="41.7932" lon="0.81043">
        <ele>299.8</ele>
        <time>2022-05-23 15:28:53</time>
      </trkpt>
      <trkpt lat="41.79318" lon="0.81048">
        <ele>299.8</ele>
        <time>2022-05-23 15:28:54</time>
      </trkpt>
      <trkpt lat="41.79316" lon="0.81054">
        <ele>300</ele>
        <time>2022-05-23 15:28:55</time>
      </trkpt>
      <trkpt lat="41.79314" lon="0.8106">
        <ele>300</ele>
        <time>2022-05-23 15:28:56</time>
      </trkpt>
      <trkpt lat="41.79311" lon="0.81066">
        <ele>300</ele>
        <time>2022-05-23 15:28:57</time>
      </trkpt>
      <trkpt lat="41.79309" lon="0.81071">
        <ele>300</ele>
        <time>2022-05-23 15:28:58</time>
      </trkpt>
      <trkpt lat="41.79307" lon="0.81077">
        <ele>300.2</ele>
        <time>2022-05-23 15:28:59</time>
      </trkpt>
      <trkpt lat="41.79306" lon="0.81083">
        <ele>300.2</ele>
        <time>2022-05-23 15:29:00</time>
      </trkpt>
      <trkpt lat="41.79303" lon="0.81088">
        <ele>300.2</ele>
        <time>2022-05-23 15:29:01</time>
      </trkpt>
      <trkpt lat="41.793" lon="0.81093">
        <ele>300.2</ele>
        <time>2022-05-23 15:29:02</time>
      </trkpt>
      <trkpt lat="41.79297" lon="0.81098">
        <ele>300.2</ele>
        <time>2022-05-23 15:29:03</time>
      </trkpt>
      <trkpt lat="41.79295" lon="0.81104">
        <ele>300.2</ele>
        <time>2022-05-23 15:29:04</time>
      </trkpt>
      <trkpt lat="41.79293" lon="0.81108">
        <ele>300.4</ele>
        <time>2022-05-23 15:29:05</time>
      </trkpt>
      <trkpt lat="41.7929" lon="0.81113">
        <ele>300.4</ele>
        <time>2022-05-23 15:29:06</time>
      </trkpt>
      <trkpt lat="41.79288" lon="0.81117">
        <ele>300.4</ele>
        <time>2022-05-23 15:29:07</time>
      </trkpt>
      <trkpt lat="41.79285" lon="0.81123">
        <ele>300.4</ele>
        <time>2022-05-23 15:29:08</time>
      </trkpt>
      <trkpt lat="41.79283" lon="0.81129">
        <ele>300.4</ele>
        <time>2022-05-23 15:29:09</time>
      </trkpt>
      <trkpt lat="41.79281" lon="0.81135">
        <ele>300.4</ele>
        <time>2022-05-23 15:29:10</time>
      </trkpt>
      <trkpt lat="41.79279" lon="0.81141">
        <ele>300.4</ele>
        <time>2022-05-23 15:29:11</time>
      </trkpt>
      <trkpt lat="41.79277" lon="0.81146">
        <ele>300.6</ele>
        <time>2022-05-23 15:29:12</time>
      </trkpt>
      <trkpt lat="41.79275" lon="0.81151">
        <ele>300.6</ele>
        <time>2022-05-23 15:29:13</time>
      </trkpt>
      <trkpt lat="41.79273" lon="0.81157">
        <ele>300.6</ele>
        <time>2022-05-23 15:29:14</time>
      </trkpt>
      <trkpt lat="41.79271" lon="0.81163">
        <ele>300.6</ele>
        <time>2022-05-23 15:29:15</time>
      </trkpt>
      <trkpt lat="41.79271" lon="0.81169">
        <ele>300.6</ele>
        <time>2022-05-23 15:29:16</time>
      </trkpt>
      <trkpt lat="41.7927" lon="0.81174">
        <ele>300.6</ele>
        <time>2022-05-23 15:29:17</time>
      </trkpt>
      <trkpt lat="41.79271" lon="0.81178">
        <ele>300.8</ele>
        <time>2022-05-23 15:29:18</time>
      </trkpt>
      <trkpt lat="41.79274" lon="0.81181">
        <ele>300.8</ele>
        <time>2022-05-23 15:29:19</time>
      </trkpt>
      <trkpt lat="41.79278" lon="0.81183">
        <ele>301</ele>
        <time>2022-05-23 15:29:20</time>
      </trkpt>
      <trkpt lat="41.79281" lon="0.81186">
        <ele>301</ele>
        <time>2022-05-23 15:29:21</time>
      </trkpt>
      <trkpt lat="41.79284" lon="0.81189">
        <ele>301</ele>
        <time>2022-05-23 15:29:22</time>
      </trkpt>
      <trkpt lat="41.79287" lon="0.8119">
        <ele>301</ele>
        <time>2022-05-23 15:29:23</time>
      </trkpt>
      <trkpt lat="41.79291" lon="0.81193">
        <ele>301.2</ele>
        <time>2022-05-23 15:29:24</time>
      </trkpt>
      <trkpt lat="41.79294" lon="0.81196">
        <ele>301.2</ele>
        <time>2022-05-23 15:29:25</time>
      </trkpt>
      <trkpt lat="41.79297" lon="0.81199">
        <ele>301.2</ele>
        <time>2022-05-23 15:29:26</time>
      </trkpt>
      <trkpt lat="41.793" lon="0.81202">
        <ele>301.2</ele>
        <time>2022-05-23 15:29:27</time>
      </trkpt>
      <trkpt lat="41.79302" lon="0.81205">
        <ele>301.2</ele>
        <time>2022-05-23 15:29:28</time>
      </trkpt>
      <trkpt lat="41.79304" lon="0.81207">
        <ele>301.2</ele>
        <time>2022-05-23 15:29:29</time>
      </trkpt>
      <trkpt lat="41.79307" lon="0.81209">
        <ele>301.4</ele>
        <time>2022-05-23 15:29:30</time>
      </trkpt>
      <trkpt lat="41.7931" lon="0.81212">
        <ele>301.4</ele>
        <time>2022-05-23 15:29:31</time>
      </trkpt>
      <trkpt lat="41.79314" lon="0.81215">
        <ele>301.4</ele>
        <time>2022-05-23 15:29:32</time>
      </trkpt>
      <trkpt lat="41.79317" lon="0.81217">
        <ele>301.6</ele>
        <time>2022-05-23 15:29:33</time>
      </trkpt>
      <trkpt lat="41.7932" lon="0.81219">
        <ele>301.6</ele>
        <time>2022-05-23 15:29:34</time>
      </trkpt>
      <trkpt lat="41.79324" lon="0.81221">
        <ele>301.6</ele>
        <time>2022-05-23 15:29:35</time>
      </trkpt>
      <trkpt lat="41.79327" lon="0.81223">
        <ele>301.8</ele>
        <time>2022-05-23 15:29:36</time>
      </trkpt>
      <trkpt lat="41.7933" lon="0.81226">
        <ele>301.8</ele>
        <time>2022-05-23 15:29:37</time>
      </trkpt>
      <trkpt lat="41.79334" lon="0.81229">
        <ele>302</ele>
        <time>2022-05-23 15:29:38</time>
      </trkpt>
      <trkpt lat="41.79337" lon="0.8123">
        <ele>302</ele>
        <time>2022-05-23 15:29:39</time>
      </trkpt>
      <trkpt lat="41.7934" lon="0.81232">
        <ele>302</ele>
        <time>2022-05-23 15:29:40</time>
      </trkpt>
      <trkpt lat="41.79344" lon="0.81235">
        <ele>302</ele>
        <time>2022-05-23 15:29:41</time>
      </trkpt>
      <trkpt lat="41.79349" lon="0.81238">
        <ele>302</ele>
        <time>2022-05-23 15:29:42</time>
      </trkpt>
      <trkpt lat="41.79352" lon="0.81241">
        <ele>302.2</ele>
        <time>2022-05-23 15:29:43</time>
      </trkpt>
      <trkpt lat="41.79356" lon="0.81244">
        <ele>302.2</ele>
        <time>2022-05-23 15:29:44</time>
      </trkpt>
      <trkpt lat="41.7936" lon="0.81246">
        <ele>302.2</ele>
        <time>2022-05-23 15:29:45</time>
      </trkpt>
      <trkpt lat="41.79365" lon="0.81249">
        <ele>302.4</ele>
        <time>2022-05-23 15:29:46</time>
      </trkpt>
      <trkpt lat="41.79369" lon="0.81253">
        <ele>302.4</ele>
        <time>2022-05-23 15:29:47</time>
      </trkpt>
      <trkpt lat="41.79373" lon="0.81255">
        <ele>302.6</ele>
        <time>2022-05-23 15:29:48</time>
      </trkpt>
      <trkpt lat="41.79377" lon="0.81258">
        <ele>302.6</ele>
        <time>2022-05-23 15:29:49</time>
      </trkpt>
      <trkpt lat="41.79381" lon="0.81261">
        <ele>302.6</ele>
        <time>2022-05-23 15:29:50</time>
      </trkpt>
      <trkpt lat="41.79386" lon="0.81265">
        <ele>302.6</ele>
        <time>2022-05-23 15:29:51</time>
      </trkpt>
      <trkpt lat="41.7939" lon="0.81268">
        <ele>302.6</ele>
        <time>2022-05-23 15:29:52</time>
      </trkpt>
      <trkpt lat="41.79394" lon="0.81271">
        <ele>302.6</ele>
        <time>2022-05-23 15:29:53</time>
      </trkpt>
      <trkpt lat="41.79398" lon="0.81273">
        <ele>302.6</ele>
        <time>2022-05-23 15:29:54</time>
      </trkpt>
      <trkpt lat="41.79402" lon="0.81275">
        <ele>302.6</ele>
        <time>2022-05-23 15:29:55</time>
      </trkpt>
      <trkpt lat="41.79407" lon="0.81278">
        <ele>302.8</ele>
        <time>2022-05-23 15:29:56</time>
      </trkpt>
      <trkpt lat="41.7941" lon="0.8128">
        <ele>302.8</ele>
        <time>2022-05-23 15:29:57</time>
      </trkpt>
      <trkpt lat="41.79414" lon="0.81283">
        <ele>302.8</ele>
        <time>2022-05-23 15:29:58</time>
      </trkpt>
      <trkpt lat="41.79418" lon="0.81285">
        <ele>303</ele>
        <time>2022-05-23 15:29:59</time>
      </trkpt>
      <trkpt lat="41.79422" lon="0.81287">
        <ele>303</ele>
        <time>2022-05-23 15:30:00</time>
      </trkpt>
      <trkpt lat="41.79426" lon="0.81289">
        <ele>303.2</ele>
        <time>2022-05-23 15:30:01</time>
      </trkpt>
      <trkpt lat="41.79431" lon="0.81291">
        <ele>303.2</ele>
        <time>2022-05-23 15:30:02</time>
      </trkpt>
      <trkpt lat="41.79435" lon="0.81294">
        <ele>303.2</ele>
        <time>2022-05-23 15:30:03</time>
      </trkpt>
      <trkpt lat="41.79439" lon="0.81297">
        <ele>303.2</ele>
        <time>2022-05-23 15:30:04</time>
      </trkpt>
      <trkpt lat="41.79444" lon="0.81301">
        <ele>303.2</ele>
        <time>2022-05-23 15:30:05</time>
      </trkpt>
      <trkpt lat="41.79448" lon="0.81305">
        <ele>303.2</ele>
        <time>2022-05-23 15:30:06</time>
      </trkpt>
      <trkpt lat="41.79454" lon="0.81311">
        <ele>303.2</ele>
        <time>2022-05-23 15:30:07</time>
      </trkpt>
      <trkpt lat="41.79459" lon="0.81316">
        <ele>303.2</ele>
        <time>2022-05-23 15:30:08</time>
      </trkpt>
      <trkpt lat="41.79463" lon="0.81322">
        <ele>303.2</ele>
        <time>2022-05-23 15:30:09</time>
      </trkpt>
      <trkpt lat="41.79468" lon="0.81329">
        <ele>303.2</ele>
        <time>2022-05-23 15:30:10</time>
      </trkpt>
      <trkpt lat="41.79471" lon="0.81335">
        <ele>303.2</ele>
        <time>2022-05-23 15:30:11</time>
      </trkpt>
      <trkpt lat="41.79474" lon="0.81342">
        <ele>303.2</ele>
        <time>2022-05-23 15:30:12</time>
      </trkpt>
      <trkpt lat="41.79477" lon="0.81348">
        <ele>303</ele>
        <time>2022-05-23 15:30:13</time>
      </trkpt>
      <trkpt lat="41.79479" lon="0.81353">
        <ele>303</ele>
        <time>2022-05-23 15:30:14</time>
      </trkpt>
      <trkpt lat="41.79482" lon="0.81359">
        <ele>303</ele>
        <time>2022-05-23 15:30:15</time>
      </trkpt>
      <trkpt lat="41.79484" lon="0.81365">
        <ele>303</ele>
        <time>2022-05-23 15:30:16</time>
      </trkpt>
      <trkpt lat="41.79486" lon="0.8137">
        <ele>303.2</ele>
        <time>2022-05-23 15:30:17</time>
      </trkpt>
      <trkpt lat="41.79488" lon="0.81375">
        <ele>303.2</ele>
        <time>2022-05-23 15:30:18</time>
      </trkpt>
      <trkpt lat="41.7949" lon="0.81381">
        <ele>303.2</ele>
        <time>2022-05-23 15:30:19</time>
      </trkpt>
      <trkpt lat="41.79491" lon="0.81386">
        <ele>303.4</ele>
        <time>2022-05-23 15:30:20</time>
      </trkpt>
      <trkpt lat="41.79493" lon="0.81391">
        <ele>303.4</ele>
        <time>2022-05-23 15:30:21</time>
      </trkpt>
      <trkpt lat="41.79495" lon="0.81396">
        <ele>303.6</ele>
        <time>2022-05-23 15:30:22</time>
      </trkpt>
      <trkpt lat="41.79497" lon="0.81401">
        <ele>303.8</ele>
        <time>2022-05-23 15:30:23</time>
      </trkpt>
      <trkpt lat="41.79499" lon="0.81406">
        <ele>303.8</ele>
        <time>2022-05-23 15:30:24</time>
      </trkpt>
      <trkpt lat="41.79501" lon="0.81412">
        <ele>304</ele>
        <time>2022-05-23 15:30:25</time>
      </trkpt>
      <trkpt lat="41.79503" lon="0.81416">
        <ele>304</ele>
        <time>2022-05-23 15:30:26</time>
      </trkpt>
      <trkpt lat="41.79504" lon="0.81421">
        <ele>304.2</ele>
        <time>2022-05-23 15:30:27</time>
      </trkpt>
      <trkpt lat="41.79506" lon="0.81426">
        <ele>304.4</ele>
        <time>2022-05-23 15:30:28</time>
      </trkpt>
      <trkpt lat="41.79508" lon="0.8143">
        <ele>304.6</ele>
        <time>2022-05-23 15:30:29</time>
      </trkpt>
      <trkpt lat="41.7951" lon="0.81436">
        <ele>304.8</ele>
        <time>2022-05-23 15:30:30</time>
      </trkpt>
      <trkpt lat="41.79511" lon="0.81441">
        <ele>304.8</ele>
        <time>2022-05-23 15:30:31</time>
      </trkpt>
      <trkpt lat="41.79513" lon="0.81446">
        <ele>304.8</ele>
        <time>2022-05-23 15:30:32</time>
      </trkpt>
      <trkpt lat="41.79515" lon="0.81451">
        <ele>305</ele>
        <time>2022-05-23 15:30:33</time>
      </trkpt>
      <trkpt lat="41.79517" lon="0.81456">
        <ele>305</ele>
        <time>2022-05-23 15:30:34</time>
      </trkpt>
      <trkpt lat="41.79519" lon="0.81461">
        <ele>304.8</ele>
        <time>2022-05-23 15:30:35</time>
      </trkpt>
      <trkpt lat="41.79521" lon="0.81466">
        <ele>304.8</ele>
        <time>2022-05-23 15:30:36</time>
      </trkpt>
      <trkpt lat="41.79523" lon="0.81471">
        <ele>304.6</ele>
        <time>2022-05-23 15:30:37</time>
      </trkpt>
      <trkpt lat="41.79525" lon="0.81477">
        <ele>304.6</ele>
        <time>2022-05-23 15:30:38</time>
      </trkpt>
      <trkpt lat="41.79527" lon="0.81482">
        <ele>304.6</ele>
        <time>2022-05-23 15:30:39</time>
      </trkpt>
      <trkpt lat="41.79528" lon="0.81487">
        <ele>304.6</ele>
        <time>2022-05-23 15:30:40</time>
      </trkpt>
      <trkpt lat="41.7953" lon="0.81492">
        <ele>304.6</ele>
        <time>2022-05-23 15:30:41</time>
      </trkpt>
      <trkpt lat="41.79533" lon="0.81497">
        <ele>304.6</ele>
        <time>2022-05-23 15:30:42</time>
      </trkpt>
      <trkpt lat="41.79535" lon="0.81503">
        <ele>304.6</ele>
        <time>2022-05-23 15:30:43</time>
      </trkpt>
      <trkpt lat="41.79537" lon="0.81508">
        <ele>304.8</ele>
        <time>2022-05-23 15:30:44</time>
      </trkpt>
      <trkpt lat="41.79539" lon="0.81513">
        <ele>304.8</ele>
        <time>2022-05-23 15:30:45</time>
      </trkpt>
      <trkpt lat="41.79541" lon="0.81519">
        <ele>304.8</ele>
        <time>2022-05-23 15:30:46</time>
      </trkpt>
      <trkpt lat="41.79544" lon="0.81524">
        <ele>305</ele>
        <time>2022-05-23 15:30:47</time>
      </trkpt>
      <trkpt lat="41.79546" lon="0.81529">
        <ele>305</ele>
        <time>2022-05-23 15:30:48</time>
      </trkpt>
      <trkpt lat="41.79548" lon="0.81535">
        <ele>305</ele>
        <time>2022-05-23 15:30:49</time>
      </trkpt>
      <trkpt lat="41.7955" lon="0.81541">
        <ele>305.2</ele>
        <time>2022-05-23 15:30:50</time>
      </trkpt>
      <trkpt lat="41.79552" lon="0.81546">
        <ele>305.4</ele>
        <time>2022-05-23 15:30:51</time>
      </trkpt>
      <trkpt lat="41.79554" lon="0.81552">
        <ele>305.4</ele>
        <time>2022-05-23 15:30:52</time>
      </trkpt>
      <trkpt lat="41.79557" lon="0.81558">
        <ele>305.4</ele>
        <time>2022-05-23 15:30:53</time>
      </trkpt>
      <trkpt lat="41.79559" lon="0.81563">
        <ele>305.6</ele>
        <time>2022-05-23 15:30:54</time>
      </trkpt>
      <trkpt lat="41.7956" lon="0.81569">
        <ele>305.6</ele>
        <time>2022-05-23 15:30:55</time>
      </trkpt>
      <trkpt lat="41.79563" lon="0.81575">
        <ele>305.6</ele>
        <time>2022-05-23 15:30:56</time>
      </trkpt>
      <trkpt lat="41.79565" lon="0.8158">
        <ele>305.6</ele>
        <time>2022-05-23 15:30:57</time>
      </trkpt>
      <trkpt lat="41.79567" lon="0.81585">
        <ele>305.8</ele>
        <time>2022-05-23 15:30:58</time>
      </trkpt>
      <trkpt lat="41.7957" lon="0.81591">
        <ele>305.6</ele>
        <time>2022-05-23 15:30:59</time>
      </trkpt>
      <trkpt lat="41.79571" lon="0.81597">
        <ele>305.6</ele>
        <time>2022-05-23 15:31:00</time>
      </trkpt>
      <trkpt lat="41.79573" lon="0.81603">
        <ele>305.6</ele>
        <time>2022-05-23 15:31:01</time>
      </trkpt>
      <trkpt lat="41.79575" lon="0.81609">
        <ele>305.6</ele>
        <time>2022-05-23 15:31:02</time>
      </trkpt>
      <trkpt lat="41.79577" lon="0.81614">
        <ele>305.6</ele>
        <time>2022-05-23 15:31:03</time>
      </trkpt>
      <trkpt lat="41.79579" lon="0.8162">
        <ele>305.6</ele>
        <time>2022-05-23 15:31:04</time>
      </trkpt>
      <trkpt lat="41.79581" lon="0.81625">
        <ele>305.6</ele>
        <time>2022-05-23 15:31:05</time>
      </trkpt>
      <trkpt lat="41.79583" lon="0.81631">
        <ele>305.6</ele>
        <time>2022-05-23 15:31:06</time>
      </trkpt>
      <trkpt lat="41.79586" lon="0.81636">
        <ele>305.8</ele>
        <time>2022-05-23 15:31:07</time>
      </trkpt>
      <trkpt lat="41.79588" lon="0.81642">
        <ele>305.8</ele>
        <time>2022-05-23 15:31:08</time>
      </trkpt>
      <trkpt lat="41.7959" lon="0.81648">
        <ele>305.8</ele>
        <time>2022-05-23 15:31:09</time>
      </trkpt>
      <trkpt lat="41.79592" lon="0.81653">
        <ele>305.8</ele>
        <time>2022-05-23 15:31:10</time>
      </trkpt>
      <trkpt lat="41.79594" lon="0.81659">
        <ele>305.8</ele>
        <time>2022-05-23 15:31:11</time>
      </trkpt>
      <trkpt lat="41.79596" lon="0.81664">
        <ele>305.8</ele>
        <time>2022-05-23 15:31:12</time>
      </trkpt>
      <trkpt lat="41.79598" lon="0.8167">
        <ele>305.8</ele>
        <time>2022-05-23 15:31:13</time>
      </trkpt>
      <trkpt lat="41.796" lon="0.81676">
        <ele>305.8</ele>
        <time>2022-05-23 15:31:14</time>
      </trkpt>
      <trkpt lat="41.79602" lon="0.81681">
        <ele>305.8</ele>
        <time>2022-05-23 15:31:15</time>
      </trkpt>
      <trkpt lat="41.79603" lon="0.81686">
        <ele>305.8</ele>
        <time>2022-05-23 15:31:16</time>
      </trkpt>
      <trkpt lat="41.79606" lon="0.81691">
        <ele>305.8</ele>
        <time>2022-05-23 15:31:17</time>
      </trkpt>
      <trkpt lat="41.79607" lon="0.81697">
        <ele>305.8</ele>
        <time>2022-05-23 15:31:18</time>
      </trkpt>
      <trkpt lat="41.79609" lon="0.81702">
        <ele>305.8</ele>
        <time>2022-05-23 15:31:19</time>
      </trkpt>
      <trkpt lat="41.79611" lon="0.81707">
        <ele>305.8</ele>
        <time>2022-05-23 15:31:20</time>
      </trkpt>
      <trkpt lat="41.79613" lon="0.81713">
        <ele>305.8</ele>
        <time>2022-05-23 15:31:21</time>
      </trkpt>
      <trkpt lat="41.79614" lon="0.81719">
        <ele>305.8</ele>
        <time>2022-05-23 15:31:22</time>
      </trkpt>
      <trkpt lat="41.79616" lon="0.81725">
        <ele>306</ele>
        <time>2022-05-23 15:31:23</time>
      </trkpt>
      <trkpt lat="41.79618" lon="0.8173">
        <ele>306</ele>
        <time>2022-05-23 15:31:24</time>
      </trkpt>
      <trkpt lat="41.7962" lon="0.81737">
        <ele>306</ele>
        <time>2022-05-23 15:31:25</time>
      </trkpt>
      <trkpt lat="41.79622" lon="0.81742">
        <ele>306</ele>
        <time>2022-05-23 15:31:26</time>
      </trkpt>
      <trkpt lat="41.79624" lon="0.81748">
        <ele>306</ele>
        <time>2022-05-23 15:31:27</time>
      </trkpt>
      <trkpt lat="41.79626" lon="0.81753">
        <ele>306.2</ele>
        <time>2022-05-23 15:31:28</time>
      </trkpt>
      <trkpt lat="41.79628" lon="0.81759">
        <ele>306.2</ele>
        <time>2022-05-23 15:31:29</time>
      </trkpt>
      <trkpt lat="41.7963" lon="0.81765">
        <ele>306.2</ele>
        <time>2022-05-23 15:31:30</time>
      </trkpt>
      <trkpt lat="41.79632" lon="0.81771">
        <ele>306.4</ele>
        <time>2022-05-23 15:31:31</time>
      </trkpt>
      <trkpt lat="41.79633" lon="0.81777">
        <ele>306.4</ele>
        <time>2022-05-23 15:31:32</time>
      </trkpt>
      <trkpt lat="41.79635" lon="0.81783">
        <ele>306.4</ele>
        <time>2022-05-23 15:31:33</time>
      </trkpt>
      <trkpt lat="41.79636" lon="0.81789">
        <ele>306.4</ele>
        <time>2022-05-23 15:31:34</time>
      </trkpt>
      <trkpt lat="41.79638" lon="0.81795">
        <ele>306.6</ele>
        <time>2022-05-23 15:31:35</time>
      </trkpt>
      <trkpt lat="41.7964" lon="0.81801">
        <ele>306.6</ele>
        <time>2022-05-23 15:31:36</time>
      </trkpt>
      <trkpt lat="41.79642" lon="0.81806">
        <ele>306.6</ele>
        <time>2022-05-23 15:31:37</time>
      </trkpt>
      <trkpt lat="41.79644" lon="0.81812">
        <ele>306.6</ele>
        <time>2022-05-23 15:31:38</time>
      </trkpt>
      <trkpt lat="41.79646" lon="0.81818">
        <ele>306.8</ele>
        <time>2022-05-23 15:31:39</time>
      </trkpt>
      <trkpt lat="41.79648" lon="0.81824">
        <ele>306.8</ele>
        <time>2022-05-23 15:31:40</time>
      </trkpt>
      <trkpt lat="41.79649" lon="0.8183">
        <ele>306.8</ele>
        <time>2022-05-23 15:31:41</time>
      </trkpt>
      <trkpt lat="41.79651" lon="0.81836">
        <ele>306.8</ele>
        <time>2022-05-23 15:31:42</time>
      </trkpt>
      <trkpt lat="41.79654" lon="0.81842">
        <ele>306.8</ele>
        <time>2022-05-23 15:31:43</time>
      </trkpt>
      <trkpt lat="41.79656" lon="0.81848">
        <ele>307.2</ele>
        <time>2022-05-23 15:31:44</time>
      </trkpt>
      <trkpt lat="41.79657" lon="0.81853">
        <ele>307.4</ele>
        <time>2022-05-23 15:31:45</time>
      </trkpt>
      <trkpt lat="41.79659" lon="0.81858">
        <ele>307.4</ele>
        <time>2022-05-23 15:31:46</time>
      </trkpt>
      <trkpt lat="41.7966" lon="0.81863">
        <ele>307.4</ele>
        <time>2022-05-23 15:31:47</time>
      </trkpt>
      <trkpt lat="41.79662" lon="0.81869">
        <ele>307.4</ele>
        <time>2022-05-23 15:31:48</time>
      </trkpt>
      <trkpt lat="41.79663" lon="0.81875">
        <ele>307.4</ele>
        <time>2022-05-23 15:31:49</time>
      </trkpt>
      <trkpt lat="41.79664" lon="0.8188">
        <ele>307.2</ele>
        <time>2022-05-23 15:31:50</time>
      </trkpt>
      <trkpt lat="41.79666" lon="0.81885">
        <ele>307.2</ele>
        <time>2022-05-23 15:31:51</time>
      </trkpt>
      <trkpt lat="41.79668" lon="0.81892">
        <ele>307.2</ele>
        <time>2022-05-23 15:31:52</time>
      </trkpt>
      <trkpt lat="41.79669" lon="0.81896">
        <ele>307.2</ele>
        <time>2022-05-23 15:31:53</time>
      </trkpt>
      <trkpt lat="41.7967" lon="0.81903">
        <ele>307</ele>
        <time>2022-05-23 15:31:54</time>
      </trkpt>
      <trkpt lat="41.79672" lon="0.81908">
        <ele>307</ele>
        <time>2022-05-23 15:31:55</time>
      </trkpt>
      <trkpt lat="41.79674" lon="0.81914">
        <ele>307</ele>
        <time>2022-05-23 15:31:56</time>
      </trkpt>
      <trkpt lat="41.79677" lon="0.81919">
        <ele>307</ele>
        <time>2022-05-23 15:31:57</time>
      </trkpt>
      <trkpt lat="41.79678" lon="0.81925">
        <ele>307</ele>
        <time>2022-05-23 15:31:58</time>
      </trkpt>
      <trkpt lat="41.7968" lon="0.8193">
        <ele>307.2</ele>
        <time>2022-05-23 15:31:59</time>
      </trkpt>
      <trkpt lat="41.79682" lon="0.81937">
        <ele>307.2</ele>
        <time>2022-05-23 15:32:00</time>
      </trkpt>
      <trkpt lat="41.79684" lon="0.81943">
        <ele>307.4</ele>
        <time>2022-05-23 15:32:01</time>
      </trkpt>
      <trkpt lat="41.79685" lon="0.81949">
        <ele>307.4</ele>
        <time>2022-05-23 15:32:02</time>
      </trkpt>
      <trkpt lat="41.79687" lon="0.81954">
        <ele>307.4</ele>
        <time>2022-05-23 15:32:03</time>
      </trkpt>
      <trkpt lat="41.79689" lon="0.8196">
        <ele>307.6</ele>
        <time>2022-05-23 15:32:04</time>
      </trkpt>
      <trkpt lat="41.79691" lon="0.81966">
        <ele>307.6</ele>
        <time>2022-05-23 15:32:05</time>
      </trkpt>
      <trkpt lat="41.79693" lon="0.81972">
        <ele>307.6</ele>
        <time>2022-05-23 15:32:06</time>
      </trkpt>
      <trkpt lat="41.79695" lon="0.81977">
        <ele>307.6</ele>
        <time>2022-05-23 15:32:07</time>
      </trkpt>
      <trkpt lat="41.79697" lon="0.81983">
        <ele>307.8</ele>
        <time>2022-05-23 15:32:08</time>
      </trkpt>
      <trkpt lat="41.79699" lon="0.81989">
        <ele>307.8</ele>
        <time>2022-05-23 15:32:09</time>
      </trkpt>
      <trkpt lat="41.79701" lon="0.81995">
        <ele>307.8</ele>
        <time>2022-05-23 15:32:10</time>
      </trkpt>
      <trkpt lat="41.79703" lon="0.82">
        <ele>308</ele>
        <time>2022-05-23 15:32:11</time>
      </trkpt>
      <trkpt lat="41.79705" lon="0.82006">
        <ele>308.2</ele>
        <time>2022-05-23 15:32:12</time>
      </trkpt>
      <trkpt lat="41.79707" lon="0.82011">
        <ele>308.2</ele>
        <time>2022-05-23 15:32:13</time>
      </trkpt>
      <trkpt lat="41.79709" lon="0.82017">
        <ele>308.4</ele>
        <time>2022-05-23 15:32:14</time>
      </trkpt>
      <trkpt lat="41.79711" lon="0.82023">
        <ele>308.6</ele>
        <time>2022-05-23 15:32:15</time>
      </trkpt>
      <trkpt lat="41.79713" lon="0.82028">
        <ele>308.6</ele>
        <time>2022-05-23 15:32:16</time>
      </trkpt>
      <trkpt lat="41.79715" lon="0.82033">
        <ele>308.8</ele>
        <time>2022-05-23 15:32:17</time>
      </trkpt>
      <trkpt lat="41.79717" lon="0.82039">
        <ele>309</ele>
        <time>2022-05-23 15:32:18</time>
      </trkpt>
      <trkpt lat="41.79719" lon="0.82044">
        <ele>309</ele>
        <time>2022-05-23 15:32:19</time>
      </trkpt>
      <trkpt lat="41.79721" lon="0.8205">
        <ele>309.2</ele>
        <time>2022-05-23 15:32:20</time>
      </trkpt>
      <trkpt lat="41.79723" lon="0.82055">
        <ele>309.2</ele>
        <time>2022-05-23 15:32:21</time>
      </trkpt>
      <trkpt lat="41.79725" lon="0.8206">
        <ele>309.2</ele>
        <time>2022-05-23 15:32:22</time>
      </trkpt>
      <trkpt lat="41.79728" lon="0.82066">
        <ele>309.2</ele>
        <time>2022-05-23 15:32:23</time>
      </trkpt>
      <trkpt lat="41.7973" lon="0.82071">
        <ele>309.4</ele>
        <time>2022-05-23 15:32:24</time>
      </trkpt>
      <trkpt lat="41.79732" lon="0.82077">
        <ele>309.6</ele>
        <time>2022-05-23 15:32:25</time>
      </trkpt>
      <trkpt lat="41.79734" lon="0.82082">
        <ele>309.8</ele>
        <time>2022-05-23 15:32:26</time>
      </trkpt>
      <trkpt lat="41.79736" lon="0.82088">
        <ele>310</ele>
        <time>2022-05-23 15:32:27</time>
      </trkpt>
      <trkpt lat="41.79739" lon="0.82093">
        <ele>310.2</ele>
        <time>2022-05-23 15:32:28</time>
      </trkpt>
      <trkpt lat="41.79741" lon="0.82099">
        <ele>310.4</ele>
        <time>2022-05-23 15:32:29</time>
      </trkpt>
      <trkpt lat="41.79743" lon="0.82103">
        <ele>310.6</ele>
        <time>2022-05-23 15:32:30</time>
      </trkpt>
      <trkpt lat="41.79745" lon="0.82109">
        <ele>310.6</ele>
        <time>2022-05-23 15:32:31</time>
      </trkpt>
      <trkpt lat="41.79747" lon="0.82115">
        <ele>310.8</ele>
        <time>2022-05-23 15:32:32</time>
      </trkpt>
      <trkpt lat="41.79749" lon="0.82119">
        <ele>310.8</ele>
        <time>2022-05-23 15:32:33</time>
      </trkpt>
      <trkpt lat="41.79751" lon="0.82125">
        <ele>310.8</ele>
        <time>2022-05-23 15:32:34</time>
      </trkpt>
      <trkpt lat="41.79753" lon="0.8213">
        <ele>311</ele>
        <time>2022-05-23 15:32:35</time>
      </trkpt>
      <trkpt lat="41.79755" lon="0.82134">
        <ele>311.2</ele>
        <time>2022-05-23 15:32:36</time>
      </trkpt>
      <trkpt lat="41.79757" lon="0.82139">
        <ele>311.2</ele>
        <time>2022-05-23 15:32:37</time>
      </trkpt>
      <trkpt lat="41.79759" lon="0.82144">
        <ele>311.4</ele>
        <time>2022-05-23 15:32:38</time>
      </trkpt>
      <trkpt lat="41.7976" lon="0.82148">
        <ele>311.4</ele>
        <time>2022-05-23 15:32:39</time>
      </trkpt>
      <trkpt lat="41.79763" lon="0.82154">
        <ele>311.6</ele>
        <time>2022-05-23 15:32:40</time>
      </trkpt>
      <trkpt lat="41.79765" lon="0.82159">
        <ele>311.8</ele>
        <time>2022-05-23 15:32:41</time>
      </trkpt>
      <trkpt lat="41.79767" lon="0.82163">
        <ele>311.8</ele>
        <time>2022-05-23 15:32:42</time>
      </trkpt>
      <trkpt lat="41.79769" lon="0.82168">
        <ele>312</ele>
        <time>2022-05-23 15:32:43</time>
      </trkpt>
      <trkpt lat="41.79771" lon="0.82173">
        <ele>312.2</ele>
        <time>2022-05-23 15:32:44</time>
      </trkpt>
      <trkpt lat="41.79773" lon="0.82177">
        <ele>312.4</ele>
        <time>2022-05-23 15:32:45</time>
      </trkpt>
      <trkpt lat="41.79775" lon="0.82182">
        <ele>312.4</ele>
        <time>2022-05-23 15:32:46</time>
      </trkpt>
      <trkpt lat="41.79777" lon="0.82187">
        <ele>312.6</ele>
        <time>2022-05-23 15:32:47</time>
      </trkpt>
      <trkpt lat="41.79779" lon="0.82191">
        <ele>312.8</ele>
        <time>2022-05-23 15:32:48</time>
      </trkpt>
      <trkpt lat="41.79781" lon="0.82196">
        <ele>312.8</ele>
        <time>2022-05-23 15:32:49</time>
      </trkpt>
      <trkpt lat="41.79783" lon="0.822">
        <ele>313</ele>
        <time>2022-05-23 15:32:50</time>
      </trkpt>
      <trkpt lat="41.79785" lon="0.82204">
        <ele>313</ele>
        <time>2022-05-23 15:32:51</time>
      </trkpt>
      <trkpt lat="41.79788" lon="0.82209">
        <ele>313.2</ele>
        <time>2022-05-23 15:32:52</time>
      </trkpt>
      <trkpt lat="41.79789" lon="0.82214">
        <ele>313.4</ele>
        <time>2022-05-23 15:32:53</time>
      </trkpt>
      <trkpt lat="41.79791" lon="0.82219">
        <ele>313.4</ele>
        <time>2022-05-23 15:32:54</time>
      </trkpt>
      <trkpt lat="41.79793" lon="0.82224">
        <ele>313.4</ele>
        <time>2022-05-23 15:32:55</time>
      </trkpt>
      <trkpt lat="41.79795" lon="0.82229">
        <ele>313.6</ele>
        <time>2022-05-23 15:32:56</time>
      </trkpt>
      <trkpt lat="41.79796" lon="0.82234">
        <ele>313.6</ele>
        <time>2022-05-23 15:32:57</time>
      </trkpt>
      <trkpt lat="41.79798" lon="0.8224">
        <ele>313.8</ele>
        <time>2022-05-23 15:32:58</time>
      </trkpt>
      <trkpt lat="41.798" lon="0.82246">
        <ele>313.8</ele>
        <time>2022-05-23 15:32:59</time>
      </trkpt>
      <trkpt lat="41.79801" lon="0.82251">
        <ele>314</ele>
        <time>2022-05-23 15:33:00</time>
      </trkpt>
      <trkpt lat="41.79802" lon="0.82257">
        <ele>314.2</ele>
        <time>2022-05-23 15:33:01</time>
      </trkpt>
      <trkpt lat="41.79804" lon="0.82262">
        <ele>314.4</ele>
        <time>2022-05-23 15:33:02</time>
      </trkpt>
      <trkpt lat="41.79805" lon="0.82267">
        <ele>314.6</ele>
        <time>2022-05-23 15:33:03</time>
      </trkpt>
      <trkpt lat="41.79805" lon="0.82273">
        <ele>314.8</ele>
        <time>2022-05-23 15:33:04</time>
      </trkpt>
      <trkpt lat="41.79806" lon="0.82279">
        <ele>314.8</ele>
        <time>2022-05-23 15:33:05</time>
      </trkpt>
      <trkpt lat="41.79807" lon="0.82284">
        <ele>315</ele>
        <time>2022-05-23 15:33:06</time>
      </trkpt>
      <trkpt lat="41.79808" lon="0.8229">
        <ele>315.2</ele>
        <time>2022-05-23 15:33:07</time>
      </trkpt>
      <trkpt lat="41.79809" lon="0.82296">
        <ele>315.4</ele>
        <time>2022-05-23 15:33:08</time>
      </trkpt>
      <trkpt lat="41.79809" lon="0.823">
        <ele>315.4</ele>
        <time>2022-05-23 15:33:09</time>
      </trkpt>
      <trkpt lat="41.7981" lon="0.82307">
        <ele>315.6</ele>
        <time>2022-05-23 15:33:10</time>
      </trkpt>
      <trkpt lat="41.79812" lon="0.82313">
        <ele>315.8</ele>
        <time>2022-05-23 15:33:11</time>
      </trkpt>
      <trkpt lat="41.79813" lon="0.82318">
        <ele>315.8</ele>
        <time>2022-05-23 15:33:12</time>
      </trkpt>
      <trkpt lat="41.79814" lon="0.82325">
        <ele>316</ele>
        <time>2022-05-23 15:33:13</time>
      </trkpt>
      <trkpt lat="41.79815" lon="0.82331">
        <ele>316</ele>
        <time>2022-05-23 15:33:14</time>
      </trkpt>
      <trkpt lat="41.79816" lon="0.82337">
        <ele>316</ele>
        <time>2022-05-23 15:33:15</time>
      </trkpt>
      <trkpt lat="41.79817" lon="0.82343">
        <ele>316.2</ele>
        <time>2022-05-23 15:33:16</time>
      </trkpt>
      <trkpt lat="41.79818" lon="0.8235">
        <ele>316.2</ele>
        <time>2022-05-23 15:33:17</time>
      </trkpt>
      <trkpt lat="41.79819" lon="0.82356">
        <ele>316.2</ele>
        <time>2022-05-23 15:33:18</time>
      </trkpt>
      <trkpt lat="41.79821" lon="0.82364">
        <ele>316.4</ele>
        <time>2022-05-23 15:33:19</time>
      </trkpt>
      <trkpt lat="41.79822" lon="0.82369">
        <ele>316.4</ele>
        <time>2022-05-23 15:33:20</time>
      </trkpt>
      <trkpt lat="41.79823" lon="0.82377">
        <ele>316.4</ele>
        <time>2022-05-23 15:33:21</time>
      </trkpt>
      <trkpt lat="41.79824" lon="0.82383">
        <ele>316.4</ele>
        <time>2022-05-23 15:33:22</time>
      </trkpt>
      <trkpt lat="41.79826" lon="0.82392">
        <ele>316.4</ele>
        <time>2022-05-23 15:33:23</time>
      </trkpt>
      <trkpt lat="41.79827" lon="0.82399">
        <ele>316.4</ele>
        <time>2022-05-23 15:33:24</time>
      </trkpt>
      <trkpt lat="41.79828" lon="0.82407">
        <ele>316.4</ele>
        <time>2022-05-23 15:33:25</time>
      </trkpt>
      <trkpt lat="41.7983" lon="0.82413">
        <ele>316.4</ele>
        <time>2022-05-23 15:33:26</time>
      </trkpt>
      <trkpt lat="41.79831" lon="0.82422">
        <ele>316.4</ele>
        <time>2022-05-23 15:33:27</time>
      </trkpt>
      <trkpt lat="41.79833" lon="0.82428">
        <ele>316.4</ele>
        <time>2022-05-23 15:33:28</time>
      </trkpt>
      <trkpt lat="41.79834" lon="0.82437">
        <ele>316.6</ele>
        <time>2022-05-23 15:33:29</time>
      </trkpt>
      <trkpt lat="41.79835" lon="0.82443">
        <ele>316.6</ele>
        <time>2022-05-23 15:33:30</time>
      </trkpt>
      <trkpt lat="41.79836" lon="0.8245">
        <ele>316.6</ele>
        <time>2022-05-23 15:33:31</time>
      </trkpt>
      <trkpt lat="41.79838" lon="0.82457">
        <ele>316.6</ele>
        <time>2022-05-23 15:33:32</time>
      </trkpt>
      <trkpt lat="41.79839" lon="0.82467">
        <ele>316.6</ele>
        <time>2022-05-23 15:33:33</time>
      </trkpt>
      <trkpt lat="41.7984" lon="0.82473">
        <ele>316.6</ele>
        <time>2022-05-23 15:33:34</time>
      </trkpt>
      <trkpt lat="41.79842" lon="0.82482">
        <ele>316.6</ele>
        <time>2022-05-23 15:33:35</time>
      </trkpt>
      <trkpt lat="41.79843" lon="0.82488">
        <ele>316.6</ele>
        <time>2022-05-23 15:33:36</time>
      </trkpt>
      <trkpt lat="41.79845" lon="0.82497">
        <ele>316.6</ele>
        <time>2022-05-23 15:33:37</time>
      </trkpt>
      <trkpt lat="41.79846" lon="0.82503">
        <ele>316.6</ele>
        <time>2022-05-23 15:33:38</time>
      </trkpt>
      <trkpt lat="41.79848" lon="0.82512">
        <ele>316.6</ele>
        <time>2022-05-23 15:33:39</time>
      </trkpt>
      <trkpt lat="41.79849" lon="0.82519">
        <ele>316.6</ele>
        <time>2022-05-23 15:33:40</time>
      </trkpt>
      <trkpt lat="41.79851" lon="0.82528">
        <ele>316.8</ele>
        <time>2022-05-23 15:33:41</time>
      </trkpt>
      <trkpt lat="41.79853" lon="0.82534">
        <ele>316.8</ele>
        <time>2022-05-23 15:33:42</time>
      </trkpt>
      <trkpt lat="41.79855" lon="0.82543">
        <ele>316.8</ele>
        <time>2022-05-23 15:33:43</time>
      </trkpt>
      <trkpt lat="41.79856" lon="0.82549">
        <ele>316.8</ele>
        <time>2022-05-23 15:33:44</time>
      </trkpt>
      <trkpt lat="41.79858" lon="0.82558">
        <ele>316.8</ele>
        <time>2022-05-23 15:33:45</time>
      </trkpt>
      <trkpt lat="41.79859" lon="0.82563">
        <ele>316.8</ele>
        <time>2022-05-23 15:33:46</time>
      </trkpt>
      <trkpt lat="41.79861" lon="0.82572">
        <ele>316.8</ele>
        <time>2022-05-23 15:33:47</time>
      </trkpt>
      <trkpt lat="41.79863" lon="0.82578">
        <ele>317</ele>
        <time>2022-05-23 15:33:48</time>
      </trkpt>
      <trkpt lat="41.79865" lon="0.82586">
        <ele>317</ele>
        <time>2022-05-23 15:33:49</time>
      </trkpt>
      <trkpt lat="41.79866" lon="0.82591">
        <ele>317.2</ele>
        <time>2022-05-23 15:33:50</time>
      </trkpt>
      <trkpt lat="41.79868" lon="0.82599">
        <ele>317.4</ele>
        <time>2022-05-23 15:33:51</time>
      </trkpt>
      <trkpt lat="41.79869" lon="0.82605">
        <ele>317.6</ele>
        <time>2022-05-23 15:33:52</time>
      </trkpt>
      <trkpt lat="41.79871" lon="0.82613">
        <ele>317.8</ele>
        <time>2022-05-23 15:33:53</time>
      </trkpt>
      <trkpt lat="41.79872" lon="0.82618">
        <ele>318</ele>
        <time>2022-05-23 15:33:54</time>
      </trkpt>
      <trkpt lat="41.79874" lon="0.82625">
        <ele>318.2</ele>
        <time>2022-05-23 15:33:55</time>
      </trkpt>
      <trkpt lat="41.79875" lon="0.8263">
        <ele>318.2</ele>
        <time>2022-05-23 15:33:56</time>
      </trkpt>
      <trkpt lat="41.79876" lon="0.82636">
        <ele>318.4</ele>
        <time>2022-05-23 15:33:57</time>
      </trkpt>
      <trkpt lat="41.79878" lon="0.82643">
        <ele>318.6</ele>
        <time>2022-05-23 15:33:58</time>
      </trkpt>
      <trkpt lat="41.79878" lon="0.82647">
        <ele>318.8</ele>
        <time>2022-05-23 15:33:59</time>
      </trkpt>
      <trkpt lat="41.7988" lon="0.82654">
        <ele>319</ele>
        <time>2022-05-23 15:34:00</time>
      </trkpt>
      <trkpt lat="41.7988" lon="0.82659">
        <ele>319</ele>
        <time>2022-05-23 15:34:01</time>
      </trkpt>
      <trkpt lat="41.79881" lon="0.82665">
        <ele>319.2</ele>
        <time>2022-05-23 15:34:02</time>
      </trkpt>
      <trkpt lat="41.79883" lon="0.82673">
        <ele>319.4</ele>
        <time>2022-05-23 15:34:03</time>
      </trkpt>
      <trkpt lat="41.79884" lon="0.82679">
        <ele>319.6</ele>
        <time>2022-05-23 15:34:04</time>
      </trkpt>
      <trkpt lat="41.79885" lon="0.82685">
        <ele>319.8</ele>
        <time>2022-05-23 15:34:05</time>
      </trkpt>
      <trkpt lat="41.79887" lon="0.82691">
        <ele>319.8</ele>
        <time>2022-05-23 15:34:06</time>
      </trkpt>
      <trkpt lat="41.79888" lon="0.82698">
        <ele>320</ele>
        <time>2022-05-23 15:34:07</time>
      </trkpt>
      <trkpt lat="41.7989" lon="0.82705">
        <ele>320</ele>
        <time>2022-05-23 15:34:08</time>
      </trkpt>
      <trkpt lat="41.79891" lon="0.82712">
        <ele>320</ele>
        <time>2022-05-23 15:34:09</time>
      </trkpt>
      <trkpt lat="41.79893" lon="0.82719">
        <ele>320.2</ele>
        <time>2022-05-23 15:34:10</time>
      </trkpt>
      <trkpt lat="41.79894" lon="0.82726">
        <ele>320.2</ele>
        <time>2022-05-23 15:34:11</time>
      </trkpt>
      <trkpt lat="41.79896" lon="0.82733">
        <ele>320.4</ele>
        <time>2022-05-23 15:34:12</time>
      </trkpt>
      <trkpt lat="41.79898" lon="0.82741">
        <ele>320.4</ele>
        <time>2022-05-23 15:34:13</time>
      </trkpt>
      <trkpt lat="41.799" lon="0.82748">
        <ele>320.6</ele>
        <time>2022-05-23 15:34:14</time>
      </trkpt>
      <trkpt lat="41.79901" lon="0.82755">
        <ele>320.6</ele>
        <time>2022-05-23 15:34:15</time>
      </trkpt>
      <trkpt lat="41.79903" lon="0.82762">
        <ele>320.8</ele>
        <time>2022-05-23 15:34:16</time>
      </trkpt>
      <trkpt lat="41.79905" lon="0.82769">
        <ele>321</ele>
        <time>2022-05-23 15:34:17</time>
      </trkpt>
      <trkpt lat="41.79906" lon="0.82775">
        <ele>321</ele>
        <time>2022-05-23 15:34:18</time>
      </trkpt>
      <trkpt lat="41.79908" lon="0.82783">
        <ele>321</ele>
        <time>2022-05-23 15:34:19</time>
      </trkpt>
      <trkpt lat="41.7991" lon="0.82789">
        <ele>321.2</ele>
        <time>2022-05-23 15:34:20</time>
      </trkpt>
      <trkpt lat="41.79912" lon="0.82796">
        <ele>321.2</ele>
        <time>2022-05-23 15:34:21</time>
      </trkpt>
      <trkpt lat="41.79914" lon="0.82803">
        <ele>321.2</ele>
        <time>2022-05-23 15:34:22</time>
      </trkpt>
      <trkpt lat="41.79915" lon="0.8281">
        <ele>321.2</ele>
        <time>2022-05-23 15:34:23</time>
      </trkpt>
      <trkpt lat="41.79917" lon="0.82816">
        <ele>321.2</ele>
        <time>2022-05-23 15:34:24</time>
      </trkpt>
      <trkpt lat="41.79919" lon="0.82823">
        <ele>321.2</ele>
        <time>2022-05-23 15:34:25</time>
      </trkpt>
      <trkpt lat="41.7992" lon="0.8283">
        <ele>321.2</ele>
        <time>2022-05-23 15:34:26</time>
      </trkpt>
      <trkpt lat="41.79922" lon="0.82837">
        <ele>321.2</ele>
        <time>2022-05-23 15:34:27</time>
      </trkpt>
      <trkpt lat="41.79924" lon="0.82844">
        <ele>321.2</ele>
        <time>2022-05-23 15:34:28</time>
      </trkpt>
      <trkpt lat="41.79925" lon="0.82851">
        <ele>321.2</ele>
        <time>2022-05-23 15:34:29</time>
      </trkpt>
      <trkpt lat="41.79927" lon="0.82857">
        <ele>321.2</ele>
        <time>2022-05-23 15:34:30</time>
      </trkpt>
      <trkpt lat="41.79929" lon="0.82864">
        <ele>321.2</ele>
        <time>2022-05-23 15:34:31</time>
      </trkpt>
      <trkpt lat="41.7993" lon="0.82871">
        <ele>321.2</ele>
        <time>2022-05-23 15:34:32</time>
      </trkpt>
      <trkpt lat="41.79932" lon="0.82878">
        <ele>321.2</ele>
        <time>2022-05-23 15:34:33</time>
      </trkpt>
      <trkpt lat="41.79933" lon="0.82885">
        <ele>321.4</ele>
        <time>2022-05-23 15:34:34</time>
      </trkpt>
      <trkpt lat="41.79936" lon="0.82892">
        <ele>321.4</ele>
        <time>2022-05-23 15:34:35</time>
      </trkpt>
      <trkpt lat="41.79937" lon="0.82899">
        <ele>321.4</ele>
        <time>2022-05-23 15:34:36</time>
      </trkpt>
      <trkpt lat="41.79939" lon="0.82906">
        <ele>321.4</ele>
        <time>2022-05-23 15:34:37</time>
      </trkpt>
      <trkpt lat="41.79941" lon="0.82914">
        <ele>321.6</ele>
        <time>2022-05-23 15:34:38</time>
      </trkpt>
      <trkpt lat="41.79942" lon="0.82921">
        <ele>321.6</ele>
        <time>2022-05-23 15:34:39</time>
      </trkpt>
      <trkpt lat="41.79944" lon="0.82928">
        <ele>321.6</ele>
        <time>2022-05-23 15:34:40</time>
      </trkpt>
      <trkpt lat="41.79946" lon="0.82936">
        <ele>321.6</ele>
        <time>2022-05-23 15:34:41</time>
      </trkpt>
      <trkpt lat="41.79948" lon="0.82943">
        <ele>321.6</ele>
        <time>2022-05-23 15:34:42</time>
      </trkpt>
      <trkpt lat="41.7995" lon="0.8295">
        <ele>321.6</ele>
        <time>2022-05-23 15:34:43</time>
      </trkpt>
      <trkpt lat="41.79952" lon="0.82958">
        <ele>321.6</ele>
        <time>2022-05-23 15:34:44</time>
      </trkpt>
      <trkpt lat="41.79953" lon="0.82966">
        <ele>321.6</ele>
        <time>2022-05-23 15:34:45</time>
      </trkpt>
      <trkpt lat="41.79955" lon="0.82973">
        <ele>321.4</ele>
        <time>2022-05-23 15:34:46</time>
      </trkpt>
      <trkpt lat="41.79956" lon="0.82982">
        <ele>321.4</ele>
        <time>2022-05-23 15:34:47</time>
      </trkpt>
      <trkpt lat="41.79958" lon="0.8299">
        <ele>321.2</ele>
        <time>2022-05-23 15:34:48</time>
      </trkpt>
      <trkpt lat="41.79958" lon="0.82998">
        <ele>321.2</ele>
        <time>2022-05-23 15:34:49</time>
      </trkpt>
      <trkpt lat="41.79958" lon="0.83006">
        <ele>321</ele>
        <time>2022-05-23 15:34:50</time>
      </trkpt>
      <trkpt lat="41.79959" lon="0.83015">
        <ele>321</ele>
        <time>2022-05-23 15:34:51</time>
      </trkpt>
      <trkpt lat="41.79959" lon="0.83023">
        <ele>321</ele>
        <time>2022-05-23 15:34:52</time>
      </trkpt>
      <trkpt lat="41.79959" lon="0.83032">
        <ele>320.8</ele>
        <time>2022-05-23 15:34:53</time>
      </trkpt>
      <trkpt lat="41.79959" lon="0.8304">
        <ele>320.6</ele>
        <time>2022-05-23 15:34:54</time>
      </trkpt>
      <trkpt lat="41.79958" lon="0.83048">
        <ele>320.4</ele>
        <time>2022-05-23 15:34:55</time>
      </trkpt>
      <trkpt lat="41.79958" lon="0.83058">
        <ele>320.2</ele>
        <time>2022-05-23 15:34:56</time>
      </trkpt>
      <trkpt lat="41.79957" lon="0.83067">
        <ele>320</ele>
        <time>2022-05-23 15:34:57</time>
      </trkpt>
      <trkpt lat="41.79956" lon="0.83076">
        <ele>319.8</ele>
        <time>2022-05-23 15:34:58</time>
      </trkpt>
      <trkpt lat="41.79956" lon="0.83086">
        <ele>319.4</ele>
        <time>2022-05-23 15:34:59</time>
      </trkpt>
      <trkpt lat="41.79955" lon="0.83095">
        <ele>319.2</ele>
        <time>2022-05-23 15:35:00</time>
      </trkpt>
      <trkpt lat="41.79954" lon="0.83105">
        <ele>319</ele>
        <time>2022-05-23 15:35:01</time>
      </trkpt>
      <trkpt lat="41.79953" lon="0.83115">
        <ele>318.8</ele>
        <time>2022-05-23 15:35:02</time>
      </trkpt>
      <trkpt lat="41.79952" lon="0.83125">
        <ele>318.6</ele>
        <time>2022-05-23 15:35:03</time>
      </trkpt>
      <trkpt lat="41.79951" lon="0.83136">
        <ele>318.4</ele>
        <time>2022-05-23 15:35:04</time>
      </trkpt>
      <trkpt lat="41.7995" lon="0.83146">
        <ele>318.2</ele>
        <time>2022-05-23 15:35:05</time>
      </trkpt>
      <trkpt lat="41.7995" lon="0.83157">
        <ele>318</ele>
        <time>2022-05-23 15:35:06</time>
      </trkpt>
      <trkpt lat="41.79949" lon="0.83168">
        <ele>317.8</ele>
        <time>2022-05-23 15:35:07</time>
      </trkpt>
      <trkpt lat="41.79948" lon="0.8318">
        <ele>317.8</ele>
        <time>2022-05-23 15:35:08</time>
      </trkpt>
      <trkpt lat="41.79947" lon="0.83191">
        <ele>317.4</ele>
        <time>2022-05-23 15:35:09</time>
      </trkpt>
      <trkpt lat="41.79946" lon="0.83202">
        <ele>317.4</ele>
        <time>2022-05-23 15:35:10</time>
      </trkpt>
      <trkpt lat="41.79945" lon="0.83214">
        <ele>317</ele>
        <time>2022-05-23 15:35:11</time>
      </trkpt>
      <trkpt lat="41.79945" lon="0.83225">
        <ele>316.8</ele>
        <time>2022-05-23 15:35:12</time>
      </trkpt>
      <trkpt lat="41.79944" lon="0.83238">
        <ele>316.4</ele>
        <time>2022-05-23 15:35:13</time>
      </trkpt>
      <trkpt lat="41.79944" lon="0.83248">
        <ele>316.2</ele>
        <time>2022-05-23 15:35:14</time>
      </trkpt>
      <trkpt lat="41.79944" lon="0.8326">
        <ele>315.8</ele>
        <time>2022-05-23 15:35:15</time>
      </trkpt>
      <trkpt lat="41.79945" lon="0.83271">
        <ele>315.6</ele>
        <time>2022-05-23 15:35:16</time>
      </trkpt>
      <trkpt lat="41.79946" lon="0.83285">
        <ele>315.4</ele>
        <time>2022-05-23 15:35:17</time>
      </trkpt>
      <trkpt lat="41.79948" lon="0.83298">
        <ele>315</ele>
        <time>2022-05-23 15:35:18</time>
      </trkpt>
      <trkpt lat="41.79949" lon="0.83309">
        <ele>314.8</ele>
        <time>2022-05-23 15:35:19</time>
      </trkpt>
      <trkpt lat="41.79951" lon="0.83321">
        <ele>314.6</ele>
        <time>2022-05-23 15:35:20</time>
      </trkpt>
      <trkpt lat="41.79953" lon="0.83332">
        <ele>314.4</ele>
        <time>2022-05-23 15:35:21</time>
      </trkpt>
      <trkpt lat="41.79956" lon="0.83343">
        <ele>314.4</ele>
        <time>2022-05-23 15:35:22</time>
      </trkpt>
      <trkpt lat="41.79958" lon="0.83355">
        <ele>314.2</ele>
        <time>2022-05-23 15:35:23</time>
      </trkpt>
      <trkpt lat="41.79961" lon="0.83366">
        <ele>314.2</ele>
        <time>2022-05-23 15:35:24</time>
      </trkpt>
      <trkpt lat="41.79965" lon="0.83376">
        <ele>314.2</ele>
        <time>2022-05-23 15:35:25</time>
      </trkpt>
      <trkpt lat="41.79967" lon="0.83386">
        <ele>313.8</ele>
        <time>2022-05-23 15:35:26</time>
      </trkpt>
      <trkpt lat="41.79971" lon="0.83396">
        <ele>313.8</ele>
        <time>2022-05-23 15:35:27</time>
      </trkpt>
      <trkpt lat="41.79975" lon="0.83406">
        <ele>313.8</ele>
        <time>2022-05-23 15:35:28</time>
      </trkpt>
      <trkpt lat="41.79979" lon="0.83414">
        <ele>313.8</ele>
        <time>2022-05-23 15:35:29</time>
      </trkpt>
      <trkpt lat="41.79983" lon="0.83423">
        <ele>314</ele>
        <time>2022-05-23 15:35:30</time>
      </trkpt>
      <trkpt lat="41.79987" lon="0.83432">
        <ele>314</ele>
        <time>2022-05-23 15:35:31</time>
      </trkpt>
      <trkpt lat="41.79991" lon="0.8344">
        <ele>313.8</ele>
        <time>2022-05-23 15:35:32</time>
      </trkpt>
      <trkpt lat="41.79995" lon="0.83448">
        <ele>313.8</ele>
        <time>2022-05-23 15:35:33</time>
      </trkpt>
      <trkpt lat="41.79999" lon="0.83456">
        <ele>314</ele>
        <time>2022-05-23 15:35:34</time>
      </trkpt>
      <trkpt lat="41.80003" lon="0.83464">
        <ele>314</ele>
        <time>2022-05-23 15:35:35</time>
      </trkpt>
      <trkpt lat="41.80007" lon="0.83472">
        <ele>313.8</ele>
        <time>2022-05-23 15:35:36</time>
      </trkpt>
      <trkpt lat="41.80011" lon="0.83479">
        <ele>313.8</ele>
        <time>2022-05-23 15:35:37</time>
      </trkpt>
      <trkpt lat="41.80015" lon="0.83487">
        <ele>313.8</ele>
        <time>2022-05-23 15:35:38</time>
      </trkpt>
      <trkpt lat="41.80019" lon="0.83494">
        <ele>313.6</ele>
        <time>2022-05-23 15:35:39</time>
      </trkpt>
      <trkpt lat="41.80024" lon="0.83502">
        <ele>313.6</ele>
        <time>2022-05-23 15:35:40</time>
      </trkpt>
      <trkpt lat="41.80028" lon="0.83509">
        <ele>313.4</ele>
        <time>2022-05-23 15:35:41</time>
      </trkpt>
      <trkpt lat="41.80032" lon="0.83516">
        <ele>313.4</ele>
        <time>2022-05-23 15:35:42</time>
      </trkpt>
      <trkpt lat="41.80036" lon="0.83523">
        <ele>313.4</ele>
        <time>2022-05-23 15:35:43</time>
      </trkpt>
      <trkpt lat="41.8004" lon="0.83531">
        <ele>313.6</ele>
        <time>2022-05-23 15:35:44</time>
      </trkpt>
      <trkpt lat="41.80044" lon="0.83539">
        <ele>313.4</ele>
        <time>2022-05-23 15:35:45</time>
      </trkpt>
      <trkpt lat="41.80048" lon="0.83546">
        <ele>313.4</ele>
        <time>2022-05-23 15:35:46</time>
      </trkpt>
      <trkpt lat="41.80052" lon="0.83554">
        <ele>313.6</ele>
        <time>2022-05-23 15:35:47</time>
      </trkpt>
      <trkpt lat="41.80056" lon="0.83562">
        <ele>313.6</ele>
        <time>2022-05-23 15:35:48</time>
      </trkpt>
      <trkpt lat="41.8006" lon="0.8357">
        <ele>313.6</ele>
        <time>2022-05-23 15:35:49</time>
      </trkpt>
      <trkpt lat="41.80064" lon="0.83579">
        <ele>313.6</ele>
        <time>2022-05-23 15:35:50</time>
      </trkpt>
      <trkpt lat="41.80068" lon="0.83586">
        <ele>313.6</ele>
        <time>2022-05-23 15:35:51</time>
      </trkpt>
      <trkpt lat="41.80072" lon="0.83595">
        <ele>313.6</ele>
        <time>2022-05-23 15:35:52</time>
      </trkpt>
      <trkpt lat="41.80075" lon="0.83603">
        <ele>313.8</ele>
        <time>2022-05-23 15:35:53</time>
      </trkpt>
      <trkpt lat="41.80079" lon="0.83611">
        <ele>313.8</ele>
        <time>2022-05-23 15:35:54</time>
      </trkpt>
      <trkpt lat="41.80082" lon="0.83619">
        <ele>313.8</ele>
        <time>2022-05-23 15:35:55</time>
      </trkpt>
      <trkpt lat="41.80085" lon="0.83627">
        <ele>313.8</ele>
        <time>2022-05-23 15:35:56</time>
      </trkpt>
      <trkpt lat="41.80088" lon="0.83635">
        <ele>313.8</ele>
        <time>2022-05-23 15:35:57</time>
      </trkpt>
      <trkpt lat="41.80091" lon="0.83644">
        <ele>314</ele>
        <time>2022-05-23 15:35:58</time>
      </trkpt>
      <trkpt lat="41.80094" lon="0.83652">
        <ele>314</ele>
        <time>2022-05-23 15:35:59</time>
      </trkpt>
      <trkpt lat="41.80097" lon="0.83659">
        <ele>314</ele>
        <time>2022-05-23 15:36:00</time>
      </trkpt>
      <trkpt lat="41.80099" lon="0.83666">
        <ele>314</ele>
        <time>2022-05-23 15:36:01</time>
      </trkpt>
      <trkpt lat="41.80102" lon="0.83673">
        <ele>314</ele>
        <time>2022-05-23 15:36:02</time>
      </trkpt>
      <trkpt lat="41.80104" lon="0.8368">
        <ele>314</ele>
        <time>2022-05-23 15:36:03</time>
      </trkpt>
      <trkpt lat="41.80106" lon="0.83688">
        <ele>314.2</ele>
        <time>2022-05-23 15:36:04</time>
      </trkpt>
      <trkpt lat="41.80109" lon="0.83695">
        <ele>314.2</ele>
        <time>2022-05-23 15:36:05</time>
      </trkpt>
      <trkpt lat="41.80112" lon="0.83701">
        <ele>314.2</ele>
        <time>2022-05-23 15:36:06</time>
      </trkpt>
      <trkpt lat="41.80114" lon="0.83709">
        <ele>314.2</ele>
        <time>2022-05-23 15:36:07</time>
      </trkpt>
      <trkpt lat="41.80116" lon="0.83715">
        <ele>314.2</ele>
        <time>2022-05-23 15:36:08</time>
      </trkpt>
      <trkpt lat="41.80118" lon="0.83722">
        <ele>314.2</ele>
        <time>2022-05-23 15:36:09</time>
      </trkpt>
      <trkpt lat="41.8012" lon="0.8373">
        <ele>314.2</ele>
        <time>2022-05-23 15:36:10</time>
      </trkpt>
      <trkpt lat="41.80122" lon="0.83737">
        <ele>314.2</ele>
        <time>2022-05-23 15:36:11</time>
      </trkpt>
      <trkpt lat="41.80124" lon="0.83744">
        <ele>314.2</ele>
        <time>2022-05-23 15:36:12</time>
      </trkpt>
      <trkpt lat="41.80126" lon="0.83751">
        <ele>314.2</ele>
        <time>2022-05-23 15:36:13</time>
      </trkpt>
      <trkpt lat="41.80129" lon="0.83758">
        <ele>314.2</ele>
        <time>2022-05-23 15:36:14</time>
      </trkpt>
      <trkpt lat="41.80131" lon="0.83764">
        <ele>314.2</ele>
        <time>2022-05-23 15:36:15</time>
      </trkpt>
      <trkpt lat="41.80133" lon="0.8377">
        <ele>314.2</ele>
        <time>2022-05-23 15:36:16</time>
      </trkpt>
      <trkpt lat="41.80135" lon="0.83777">
        <ele>314.2</ele>
        <time>2022-05-23 15:36:17</time>
      </trkpt>
      <trkpt lat="41.80137" lon="0.83784">
        <ele>314.2</ele>
        <time>2022-05-23 15:36:18</time>
      </trkpt>
      <trkpt lat="41.80139" lon="0.83791">
        <ele>314.2</ele>
        <time>2022-05-23 15:36:19</time>
      </trkpt>
      <trkpt lat="41.80141" lon="0.83798">
        <ele>314.4</ele>
        <time>2022-05-23 15:36:20</time>
      </trkpt>
      <trkpt lat="41.80143" lon="0.83805">
        <ele>314.4</ele>
        <time>2022-05-23 15:36:21</time>
      </trkpt>
      <trkpt lat="41.80145" lon="0.83812">
        <ele>314.4</ele>
        <time>2022-05-23 15:36:22</time>
      </trkpt>
      <trkpt lat="41.80148" lon="0.8382">
        <ele>314.2</ele>
        <time>2022-05-23 15:36:23</time>
      </trkpt>
      <trkpt lat="41.8015" lon="0.83827">
        <ele>314.2</ele>
        <time>2022-05-23 15:36:24</time>
      </trkpt>
      <trkpt lat="41.80153" lon="0.83835">
        <ele>314.4</ele>
        <time>2022-05-23 15:36:25</time>
      </trkpt>
      <trkpt lat="41.80155" lon="0.83842">
        <ele>314.4</ele>
        <time>2022-05-23 15:36:26</time>
      </trkpt>
      <trkpt lat="41.80157" lon="0.8385">
        <ele>314.4</ele>
        <time>2022-05-23 15:36:27</time>
      </trkpt>
      <trkpt lat="41.80159" lon="0.83859">
        <ele>314.4</ele>
        <time>2022-05-23 15:36:28</time>
      </trkpt>
      <trkpt lat="41.80162" lon="0.83867">
        <ele>314.4</ele>
        <time>2022-05-23 15:36:29</time>
      </trkpt>
      <trkpt lat="41.80164" lon="0.83875">
        <ele>314.6</ele>
        <time>2022-05-23 15:36:30</time>
      </trkpt>
      <trkpt lat="41.80166" lon="0.83884">
        <ele>314.6</ele>
        <time>2022-05-23 15:36:31</time>
      </trkpt>
      <trkpt lat="41.80168" lon="0.83892">
        <ele>314.6</ele>
        <time>2022-05-23 15:36:32</time>
      </trkpt>
      <trkpt lat="41.8017" lon="0.83901">
        <ele>314.6</ele>
        <time>2022-05-23 15:36:33</time>
      </trkpt>
      <trkpt lat="41.80172" lon="0.8391">
        <ele>314.6</ele>
        <time>2022-05-23 15:36:34</time>
      </trkpt>
      <trkpt lat="41.80174" lon="0.83919">
        <ele>314.6</ele>
        <time>2022-05-23 15:36:35</time>
      </trkpt>
      <trkpt lat="41.80176" lon="0.83928">
        <ele>314.8</ele>
        <time>2022-05-23 15:36:36</time>
      </trkpt>
      <trkpt lat="41.80178" lon="0.83937">
        <ele>314.8</ele>
        <time>2022-05-23 15:36:37</time>
      </trkpt>
      <trkpt lat="41.8018" lon="0.83946">
        <ele>314.8</ele>
        <time>2022-05-23 15:36:38</time>
      </trkpt>
      <trkpt lat="41.80182" lon="0.83956">
        <ele>315</ele>
        <time>2022-05-23 15:36:39</time>
      </trkpt>
      <trkpt lat="41.80183" lon="0.83966">
        <ele>315</ele>
        <time>2022-05-23 15:36:40</time>
      </trkpt>
      <trkpt lat="41.80185" lon="0.83975">
        <ele>315</ele>
        <time>2022-05-23 15:36:41</time>
      </trkpt>
      <trkpt lat="41.80186" lon="0.83985">
        <ele>315.2</ele>
        <time>2022-05-23 15:36:42</time>
      </trkpt>
      <trkpt lat="41.80187" lon="0.83994">
        <ele>315.2</ele>
        <time>2022-05-23 15:36:43</time>
      </trkpt>
      <trkpt lat="41.80189" lon="0.84004">
        <ele>315.2</ele>
        <time>2022-05-23 15:36:44</time>
      </trkpt>
      <trkpt lat="41.8019" lon="0.84014">
        <ele>315.2</ele>
        <time>2022-05-23 15:36:45</time>
      </trkpt>
      <trkpt lat="41.80191" lon="0.84023">
        <ele>315.2</ele>
        <time>2022-05-23 15:36:46</time>
      </trkpt>
      <trkpt lat="41.80193" lon="0.84033">
        <ele>315.2</ele>
        <time>2022-05-23 15:36:47</time>
      </trkpt>
      <trkpt lat="41.80194" lon="0.84041">
        <ele>315.2</ele>
        <time>2022-05-23 15:36:48</time>
      </trkpt>
      <trkpt lat="41.80196" lon="0.84052">
        <ele>315.2</ele>
        <time>2022-05-23 15:36:49</time>
      </trkpt>
      <trkpt lat="41.80197" lon="0.84061">
        <ele>315.2</ele>
        <time>2022-05-23 15:36:50</time>
      </trkpt>
      <trkpt lat="41.80198" lon="0.84071">
        <ele>315.2</ele>
        <time>2022-05-23 15:36:51</time>
      </trkpt>
      <trkpt lat="41.80199" lon="0.8408">
        <ele>315.2</ele>
        <time>2022-05-23 15:36:52</time>
      </trkpt>
      <trkpt lat="41.802" lon="0.84091">
        <ele>315.2</ele>
        <time>2022-05-23 15:36:53</time>
      </trkpt>
      <trkpt lat="41.80201" lon="0.841">
        <ele>315.2</ele>
        <time>2022-05-23 15:36:54</time>
      </trkpt>
      <trkpt lat="41.80203" lon="0.8411">
        <ele>315.2</ele>
        <time>2022-05-23 15:36:55</time>
      </trkpt>
      <trkpt lat="41.80204" lon="0.84119">
        <ele>315.2</ele>
        <time>2022-05-23 15:36:56</time>
      </trkpt>
      <trkpt lat="41.80205" lon="0.84128">
        <ele>315.4</ele>
        <time>2022-05-23 15:36:57</time>
      </trkpt>
      <trkpt lat="41.80206" lon="0.84137">
        <ele>315.4</ele>
        <time>2022-05-23 15:36:58</time>
      </trkpt>
      <trkpt lat="41.80208" lon="0.84149">
        <ele>315.4</ele>
        <time>2022-05-23 15:36:59</time>
      </trkpt>
      <trkpt lat="41.80209" lon="0.84159">
        <ele>315.4</ele>
        <time>2022-05-23 15:37:00</time>
      </trkpt>
      <trkpt lat="41.80211" lon="0.84168">
        <ele>315.6</ele>
        <time>2022-05-23 15:37:01</time>
      </trkpt>
      <trkpt lat="41.80212" lon="0.84177">
        <ele>315.6</ele>
        <time>2022-05-23 15:37:02</time>
      </trkpt>
      <trkpt lat="41.80213" lon="0.84187">
        <ele>315.6</ele>
        <time>2022-05-23 15:37:03</time>
      </trkpt>
      <trkpt lat="41.80214" lon="0.84197">
        <ele>315.6</ele>
        <time>2022-05-23 15:37:04</time>
      </trkpt>
      <trkpt lat="41.80214" lon="0.84206">
        <ele>315.6</ele>
        <time>2022-05-23 15:37:05</time>
      </trkpt>
      <trkpt lat="41.80215" lon="0.84216">
        <ele>315.6</ele>
        <time>2022-05-23 15:37:06</time>
      </trkpt>
      <trkpt lat="41.80217" lon="0.84225">
        <ele>315.6</ele>
        <time>2022-05-23 15:37:07</time>
      </trkpt>
      <trkpt lat="41.80217" lon="0.84235">
        <ele>315.6</ele>
        <time>2022-05-23 15:37:08</time>
      </trkpt>
      <trkpt lat="41.80217" lon="0.84244">
        <ele>315.6</ele>
        <time>2022-05-23 15:37:09</time>
      </trkpt>
      <trkpt lat="41.80218" lon="0.84254">
        <ele>315.6</ele>
        <time>2022-05-23 15:37:10</time>
      </trkpt>
      <trkpt lat="41.80218" lon="0.84264">
        <ele>315.6</ele>
        <time>2022-05-23 15:37:11</time>
      </trkpt>
      <trkpt lat="41.80219" lon="0.84273">
        <ele>315.8</ele>
        <time>2022-05-23 15:37:12</time>
      </trkpt>
      <trkpt lat="41.80219" lon="0.84282">
        <ele>315.8</ele>
        <time>2022-05-23 15:37:13</time>
      </trkpt>
      <trkpt lat="41.80218" lon="0.84292">
        <ele>315.8</ele>
        <time>2022-05-23 15:37:14</time>
      </trkpt>
      <trkpt lat="41.80218" lon="0.84301">
        <ele>315.8</ele>
        <time>2022-05-23 15:37:15</time>
      </trkpt>
      <trkpt lat="41.80217" lon="0.84311">
        <ele>315.8</ele>
        <time>2022-05-23 15:37:16</time>
      </trkpt>
      <trkpt lat="41.80217" lon="0.84321">
        <ele>315.8</ele>
        <time>2022-05-23 15:37:17</time>
      </trkpt>
      <trkpt lat="41.80217" lon="0.84331">
        <ele>315.8</ele>
        <time>2022-05-23 15:37:18</time>
      </trkpt>
      <trkpt lat="41.80216" lon="0.8434">
        <ele>316</ele>
        <time>2022-05-23 15:37:19</time>
      </trkpt>
      <trkpt lat="41.80215" lon="0.8435">
        <ele>316</ele>
        <time>2022-05-23 15:37:20</time>
      </trkpt>
      <trkpt lat="41.80215" lon="0.84361">
        <ele>316.2</ele>
        <time>2022-05-23 15:37:21</time>
      </trkpt>
      <trkpt lat="41.80214" lon="0.8437">
        <ele>316.2</ele>
        <time>2022-05-23 15:37:22</time>
      </trkpt>
      <trkpt lat="41.80214" lon="0.84379">
        <ele>316.2</ele>
        <time>2022-05-23 15:37:23</time>
      </trkpt>
      <trkpt lat="41.80213" lon="0.84389">
        <ele>316.2</ele>
        <time>2022-05-23 15:37:24</time>
      </trkpt>
      <trkpt lat="41.80212" lon="0.84399">
        <ele>316.2</ele>
        <time>2022-05-23 15:37:25</time>
      </trkpt>
      <trkpt lat="41.80211" lon="0.84408">
        <ele>316.2</ele>
        <time>2022-05-23 15:37:26</time>
      </trkpt>
      <trkpt lat="41.80209" lon="0.84416">
        <ele>316.2</ele>
        <time>2022-05-23 15:37:27</time>
      </trkpt>
      <trkpt lat="41.80206" lon="0.84423">
        <ele>316.2</ele>
        <time>2022-05-23 15:37:28</time>
      </trkpt>
      <trkpt lat="41.80202" lon="0.8443">
        <ele>316.4</ele>
        <time>2022-05-23 15:37:29</time>
      </trkpt>
      <trkpt lat="41.80199" lon="0.84437">
        <ele>316.4</ele>
        <time>2022-05-23 15:37:30</time>
      </trkpt>
      <trkpt lat="41.80196" lon="0.84443">
        <ele>316.6</ele>
        <time>2022-05-23 15:37:31</time>
      </trkpt>
      <trkpt lat="41.80193" lon="0.84451">
        <ele>316.8</ele>
        <time>2022-05-23 15:37:32</time>
      </trkpt>
      <trkpt lat="41.80192" lon="0.84458">
        <ele>316.8</ele>
        <time>2022-05-23 15:37:33</time>
      </trkpt>
      <trkpt lat="41.80192" lon="0.84466">
        <ele>317</ele>
        <time>2022-05-23 15:37:34</time>
      </trkpt>
      <trkpt lat="41.80193" lon="0.84474">
        <ele>317.2</ele>
        <time>2022-05-23 15:37:35</time>
      </trkpt>
      <trkpt lat="41.80195" lon="0.84482">
        <ele>317.2</ele>
        <time>2022-05-23 15:37:36</time>
      </trkpt>
      <trkpt lat="41.80197" lon="0.8449">
        <ele>317.2</ele>
        <time>2022-05-23 15:37:37</time>
      </trkpt>
      <trkpt lat="41.80199" lon="0.84498">
        <ele>317.2</ele>
        <time>2022-05-23 15:37:38</time>
      </trkpt>
      <trkpt lat="41.80201" lon="0.84507">
        <ele>317.2</ele>
        <time>2022-05-23 15:37:39</time>
      </trkpt>
      <trkpt lat="41.80203" lon="0.84516">
        <ele>317.2</ele>
        <time>2022-05-23 15:37:40</time>
      </trkpt>
      <trkpt lat="41.80205" lon="0.84525">
        <ele>317</ele>
        <time>2022-05-23 15:37:41</time>
      </trkpt>
      <trkpt lat="41.80206" lon="0.84533">
        <ele>317</ele>
        <time>2022-05-23 15:37:42</time>
      </trkpt>
      <trkpt lat="41.80207" lon="0.84542">
        <ele>317</ele>
        <time>2022-05-23 15:37:43</time>
      </trkpt>
      <trkpt lat="41.80207" lon="0.84551">
        <ele>317</ele>
        <time>2022-05-23 15:37:44</time>
      </trkpt>
      <trkpt lat="41.80208" lon="0.8456">
        <ele>317</ele>
        <time>2022-05-23 15:37:45</time>
      </trkpt>
      <trkpt lat="41.80208" lon="0.84569">
        <ele>317</ele>
        <time>2022-05-23 15:37:46</time>
      </trkpt>
      <trkpt lat="41.80209" lon="0.84577">
        <ele>317.2</ele>
        <time>2022-05-23 15:37:47</time>
      </trkpt>
      <trkpt lat="41.80209" lon="0.84586">
        <ele>317.2</ele>
        <time>2022-05-23 15:37:48</time>
      </trkpt>
      <trkpt lat="41.8021" lon="0.84595">
        <ele>317.2</ele>
        <time>2022-05-23 15:37:49</time>
      </trkpt>
      <trkpt lat="41.80211" lon="0.84603">
        <ele>317.2</ele>
        <time>2022-05-23 15:37:50</time>
      </trkpt>
      <trkpt lat="41.80211" lon="0.84611">
        <ele>317.2</ele>
        <time>2022-05-23 15:37:51</time>
      </trkpt>
      <trkpt lat="41.80212" lon="0.8462">
        <ele>317.2</ele>
        <time>2022-05-23 15:37:52</time>
      </trkpt>
      <trkpt lat="41.80213" lon="0.84628">
        <ele>317.2</ele>
        <time>2022-05-23 15:37:53</time>
      </trkpt>
      <trkpt lat="41.80213" lon="0.84636">
        <ele>317.2</ele>
        <time>2022-05-23 15:37:54</time>
      </trkpt>
      <trkpt lat="41.80214" lon="0.84644">
        <ele>317.4</ele>
        <time>2022-05-23 15:37:55</time>
      </trkpt>
      <trkpt lat="41.80214" lon="0.84652">
        <ele>317.4</ele>
        <time>2022-05-23 15:37:56</time>
      </trkpt>
      <trkpt lat="41.80215" lon="0.8466">
        <ele>317.6</ele>
        <time>2022-05-23 15:37:57</time>
      </trkpt>
      <trkpt lat="41.80216" lon="0.84669">
        <ele>317.8</ele>
        <time>2022-05-23 15:37:58</time>
      </trkpt>
      <trkpt lat="41.80217" lon="0.84677">
        <ele>317.8</ele>
        <time>2022-05-23 15:37:59</time>
      </trkpt>
      <trkpt lat="41.80217" lon="0.84686">
        <ele>317.8</ele>
        <time>2022-05-23 15:38:00</time>
      </trkpt>
      <trkpt lat="41.80217" lon="0.84694">
        <ele>318</ele>
        <time>2022-05-23 15:38:01</time>
      </trkpt>
      <trkpt lat="41.80217" lon="0.84702">
        <ele>318</ele>
        <time>2022-05-23 15:38:02</time>
      </trkpt>
      <trkpt lat="41.80217" lon="0.84711">
        <ele>318</ele>
        <time>2022-05-23 15:38:03</time>
      </trkpt>
      <trkpt lat="41.80218" lon="0.84719">
        <ele>318</ele>
        <time>2022-05-23 15:38:04</time>
      </trkpt>
      <trkpt lat="41.80219" lon="0.84728">
        <ele>318</ele>
        <time>2022-05-23 15:38:05</time>
      </trkpt>
      <trkpt lat="41.80219" lon="0.84736">
        <ele>318</ele>
        <time>2022-05-23 15:38:06</time>
      </trkpt>
      <trkpt lat="41.8022" lon="0.84745">
        <ele>318</ele>
        <time>2022-05-23 15:38:07</time>
      </trkpt>
      <trkpt lat="41.8022" lon="0.84753">
        <ele>318</ele>
        <time>2022-05-23 15:38:08</time>
      </trkpt>
      <trkpt lat="41.8022" lon="0.84762">
        <ele>318</ele>
        <time>2022-05-23 15:38:09</time>
      </trkpt>
      <trkpt lat="41.80221" lon="0.84771">
        <ele>318</ele>
        <time>2022-05-23 15:38:10</time>
      </trkpt>
      <trkpt lat="41.80222" lon="0.84779">
        <ele>318</ele>
        <time>2022-05-23 15:38:11</time>
      </trkpt>
      <trkpt lat="41.80223" lon="0.84787">
        <ele>318</ele>
        <time>2022-05-23 15:38:12</time>
      </trkpt>
      <trkpt lat="41.80224" lon="0.84796">
        <ele>318</ele>
        <time>2022-05-23 15:38:13</time>
      </trkpt>
      <trkpt lat="41.80225" lon="0.84804">
        <ele>318.2</ele>
        <time>2022-05-23 15:38:14</time>
      </trkpt>
      <trkpt lat="41.80225" lon="0.84813">
        <ele>318.2</ele>
        <time>2022-05-23 15:38:15</time>
      </trkpt>
      <trkpt lat="41.80226" lon="0.84821">
        <ele>318.2</ele>
        <time>2022-05-23 15:38:16</time>
      </trkpt>
      <trkpt lat="41.80226" lon="0.8483">
        <ele>318.2</ele>
        <time>2022-05-23 15:38:17</time>
      </trkpt>
      <trkpt lat="41.80225" lon="0.84838">
        <ele>318.2</ele>
        <time>2022-05-23 15:38:18</time>
      </trkpt>
      <trkpt lat="41.80225" lon="0.84847">
        <ele>318.2</ele>
        <time>2022-05-23 15:38:19</time>
      </trkpt>
      <trkpt lat="41.80224" lon="0.84856">
        <ele>318.4</ele>
        <time>2022-05-23 15:38:20</time>
      </trkpt>
      <trkpt lat="41.80224" lon="0.84865">
        <ele>318.4</ele>
        <time>2022-05-23 15:38:21</time>
      </trkpt>
      <trkpt lat="41.80223" lon="0.84873">
        <ele>318.4</ele>
        <time>2022-05-23 15:38:22</time>
      </trkpt>
      <trkpt lat="41.80223" lon="0.84882">
        <ele>318.4</ele>
        <time>2022-05-23 15:38:23</time>
      </trkpt>
      <trkpt lat="41.80222" lon="0.84891">
        <ele>318.2</ele>
        <time>2022-05-23 15:38:24</time>
      </trkpt>
      <trkpt lat="41.80222" lon="0.84899">
        <ele>318.2</ele>
        <time>2022-05-23 15:38:25</time>
      </trkpt>
      <trkpt lat="41.80222" lon="0.84907">
        <ele>318.2</ele>
        <time>2022-05-23 15:38:26</time>
      </trkpt>
      <trkpt lat="41.80222" lon="0.84916">
        <ele>318.2</ele>
        <time>2022-05-23 15:38:27</time>
      </trkpt>
      <trkpt lat="41.80223" lon="0.84925">
        <ele>318.2</ele>
        <time>2022-05-23 15:38:28</time>
      </trkpt>
      <trkpt lat="41.80225" lon="0.84933">
        <ele>318.2</ele>
        <time>2022-05-23 15:38:29</time>
      </trkpt>
      <trkpt lat="41.80226" lon="0.84942">
        <ele>318.4</ele>
        <time>2022-05-23 15:38:30</time>
      </trkpt>
      <trkpt lat="41.80228" lon="0.8495">
        <ele>318.4</ele>
        <time>2022-05-23 15:38:31</time>
      </trkpt>
      <trkpt lat="41.80229" lon="0.84956">
        <ele>318.6</ele>
        <time>2022-05-23 15:38:32</time>
      </trkpt>
      <trkpt lat="41.80231" lon="0.84965">
        <ele>318.6</ele>
        <time>2022-05-23 15:38:33</time>
      </trkpt>
      <trkpt lat="41.80232" lon="0.84973">
        <ele>318.6</ele>
        <time>2022-05-23 15:38:34</time>
      </trkpt>
      <trkpt lat="41.80233" lon="0.84981">
        <ele>318.6</ele>
        <time>2022-05-23 15:38:35</time>
      </trkpt>
      <trkpt lat="41.80234" lon="0.84989">
        <ele>318.6</ele>
        <time>2022-05-23 15:38:36</time>
      </trkpt>
      <trkpt lat="41.80236" lon="0.84997">
        <ele>318.6</ele>
        <time>2022-05-23 15:38:37</time>
      </trkpt>
      <trkpt lat="41.80238" lon="0.85005">
        <ele>318.6</ele>
        <time>2022-05-23 15:38:38</time>
      </trkpt>
      <trkpt lat="41.80239" lon="0.85012">
        <ele>318.6</ele>
        <time>2022-05-23 15:38:39</time>
      </trkpt>
      <trkpt lat="41.80241" lon="0.8502">
        <ele>318.6</ele>
        <time>2022-05-23 15:38:40</time>
      </trkpt>
      <trkpt lat="41.80243" lon="0.85028">
        <ele>318.8</ele>
        <time>2022-05-23 15:38:41</time>
      </trkpt>
      <trkpt lat="41.80245" lon="0.85036">
        <ele>319</ele>
        <time>2022-05-23 15:38:42</time>
      </trkpt>
      <trkpt lat="41.80246" lon="0.85043">
        <ele>319</ele>
        <time>2022-05-23 15:38:43</time>
      </trkpt>
      <trkpt lat="41.80248" lon="0.8505">
        <ele>319.2</ele>
        <time>2022-05-23 15:38:44</time>
      </trkpt>
      <trkpt lat="41.80251" lon="0.85056">
        <ele>319.6</ele>
        <time>2022-05-23 15:38:45</time>
      </trkpt>
      <trkpt lat="41.80253" lon="0.85063">
        <ele>319.8</ele>
        <time>2022-05-23 15:38:46</time>
      </trkpt>
      <trkpt lat="41.80254" lon="0.85069">
        <ele>320</ele>
        <time>2022-05-23 15:38:47</time>
      </trkpt>
      <trkpt lat="41.80256" lon="0.85076">
        <ele>320</ele>
        <time>2022-05-23 15:38:48</time>
      </trkpt>
      <trkpt lat="41.80258" lon="0.85082">
        <ele>320.2</ele>
        <time>2022-05-23 15:38:49</time>
      </trkpt>
      <trkpt lat="41.8026" lon="0.85089">
        <ele>320.2</ele>
        <time>2022-05-23 15:38:50</time>
      </trkpt>
      <trkpt lat="41.80262" lon="0.85095">
        <ele>320.4</ele>
        <time>2022-05-23 15:38:51</time>
      </trkpt>
      <trkpt lat="41.80264" lon="0.85102">
        <ele>320.4</ele>
        <time>2022-05-23 15:38:52</time>
      </trkpt>
      <trkpt lat="41.80266" lon="0.85108">
        <ele>320.4</ele>
        <time>2022-05-23 15:38:53</time>
      </trkpt>
      <trkpt lat="41.80267" lon="0.85115">
        <ele>320.4</ele>
        <time>2022-05-23 15:38:54</time>
      </trkpt>
      <trkpt lat="41.80269" lon="0.85121">
        <ele>320.4</ele>
        <time>2022-05-23 15:38:55</time>
      </trkpt>
      <trkpt lat="41.80271" lon="0.85128">
        <ele>320.6</ele>
        <time>2022-05-23 15:38:56</time>
      </trkpt>
      <trkpt lat="41.80273" lon="0.85134">
        <ele>320.6</ele>
        <time>2022-05-23 15:38:57</time>
      </trkpt>
      <trkpt lat="41.80274" lon="0.8514">
        <ele>320.6</ele>
        <time>2022-05-23 15:38:58</time>
      </trkpt>
      <trkpt lat="41.80277" lon="0.85148">
        <ele>320.4</ele>
        <time>2022-05-23 15:38:59</time>
      </trkpt>
      <trkpt lat="41.80279" lon="0.85154">
        <ele>320.4</ele>
        <time>2022-05-23 15:39:00</time>
      </trkpt>
      <trkpt lat="41.80281" lon="0.85159">
        <ele>320.4</ele>
        <time>2022-05-23 15:39:01</time>
      </trkpt>
      <trkpt lat="41.80283" lon="0.85166">
        <ele>320.4</ele>
        <time>2022-05-23 15:39:02</time>
      </trkpt>
      <trkpt lat="41.80285" lon="0.85171">
        <ele>320.6</ele>
        <time>2022-05-23 15:39:03</time>
      </trkpt>
      <trkpt lat="41.80288" lon="0.85177">
        <ele>320.8</ele>
        <time>2022-05-23 15:39:04</time>
      </trkpt>
      <trkpt lat="41.80291" lon="0.85183">
        <ele>320.8</ele>
        <time>2022-05-23 15:39:05</time>
      </trkpt>
      <trkpt lat="41.80294" lon="0.8519">
        <ele>320.8</ele>
        <time>2022-05-23 15:39:06</time>
      </trkpt>
      <trkpt lat="41.80296" lon="0.85196">
        <ele>320.8</ele>
        <time>2022-05-23 15:39:07</time>
      </trkpt>
      <trkpt lat="41.80299" lon="0.85203">
        <ele>320.6</ele>
        <time>2022-05-23 15:39:08</time>
      </trkpt>
      <trkpt lat="41.80301" lon="0.8521">
        <ele>320.6</ele>
        <time>2022-05-23 15:39:09</time>
      </trkpt>
      <trkpt lat="41.80304" lon="0.85217">
        <ele>320.4</ele>
        <time>2022-05-23 15:39:10</time>
      </trkpt>
      <trkpt lat="41.80307" lon="0.85223">
        <ele>320.4</ele>
        <time>2022-05-23 15:39:11</time>
      </trkpt>
      <trkpt lat="41.8031" lon="0.8523">
        <ele>320.4</ele>
        <time>2022-05-23 15:39:12</time>
      </trkpt>
      <trkpt lat="41.80312" lon="0.85237">
        <ele>320.4</ele>
        <time>2022-05-23 15:39:13</time>
      </trkpt>
      <trkpt lat="41.80315" lon="0.85243">
        <ele>320.4</ele>
        <time>2022-05-23 15:39:14</time>
      </trkpt>
      <trkpt lat="41.80317" lon="0.85251">
        <ele>320.4</ele>
        <time>2022-05-23 15:39:15</time>
      </trkpt>
      <trkpt lat="41.80319" lon="0.85258">
        <ele>320.4</ele>
        <time>2022-05-23 15:39:16</time>
      </trkpt>
      <trkpt lat="41.80321" lon="0.85265">
        <ele>320.4</ele>
        <time>2022-05-23 15:39:17</time>
      </trkpt>
      <trkpt lat="41.80323" lon="0.85273">
        <ele>320.6</ele>
        <time>2022-05-23 15:39:18</time>
      </trkpt>
      <trkpt lat="41.80325" lon="0.85281">
        <ele>320.6</ele>
        <time>2022-05-23 15:39:19</time>
      </trkpt>
      <trkpt lat="41.80326" lon="0.85289">
        <ele>320.6</ele>
        <time>2022-05-23 15:39:20</time>
      </trkpt>
      <trkpt lat="41.80327" lon="0.85297">
        <ele>320.6</ele>
        <time>2022-05-23 15:39:21</time>
      </trkpt>
      <trkpt lat="41.80328" lon="0.85305">
        <ele>320.8</ele>
        <time>2022-05-23 15:39:22</time>
      </trkpt>
      <trkpt lat="41.80329" lon="0.85313">
        <ele>320.8</ele>
        <time>2022-05-23 15:39:23</time>
      </trkpt>
      <trkpt lat="41.8033" lon="0.85321">
        <ele>320.8</ele>
        <time>2022-05-23 15:39:24</time>
      </trkpt>
      <trkpt lat="41.8033" lon="0.85329">
        <ele>320.8</ele>
        <time>2022-05-23 15:39:25</time>
      </trkpt>
      <trkpt lat="41.8033" lon="0.85338">
        <ele>320.8</ele>
        <time>2022-05-23 15:39:26</time>
      </trkpt>
      <trkpt lat="41.80331" lon="0.85346">
        <ele>320.8</ele>
        <time>2022-05-23 15:39:27</time>
      </trkpt>
      <trkpt lat="41.80331" lon="0.85355">
        <ele>321</ele>
        <time>2022-05-23 15:39:28</time>
      </trkpt>
      <trkpt lat="41.80332" lon="0.85363">
        <ele>321</ele>
        <time>2022-05-23 15:39:29</time>
      </trkpt>
      <trkpt lat="41.80333" lon="0.85372">
        <ele>320.8</ele>
        <time>2022-05-23 15:39:30</time>
      </trkpt>
      <trkpt lat="41.80333" lon="0.8538">
        <ele>320.8</ele>
        <time>2022-05-23 15:39:31</time>
      </trkpt>
      <trkpt lat="41.80334" lon="0.85389">
        <ele>320.8</ele>
        <time>2022-05-23 15:39:32</time>
      </trkpt>
      <trkpt lat="41.80334" lon="0.85398">
        <ele>320.6</ele>
        <time>2022-05-23 15:39:33</time>
      </trkpt>
      <trkpt lat="41.80334" lon="0.85406">
        <ele>320.4</ele>
        <time>2022-05-23 15:39:34</time>
      </trkpt>
      <trkpt lat="41.80335" lon="0.85415">
        <ele>320.4</ele>
        <time>2022-05-23 15:39:35</time>
      </trkpt>
      <trkpt lat="41.80336" lon="0.85423">
        <ele>320.4</ele>
        <time>2022-05-23 15:39:36</time>
      </trkpt>
      <trkpt lat="41.80337" lon="0.85432">
        <ele>320.4</ele>
        <time>2022-05-23 15:39:37</time>
      </trkpt>
      <trkpt lat="41.80338" lon="0.8544">
        <ele>320.4</ele>
        <time>2022-05-23 15:39:38</time>
      </trkpt>
      <trkpt lat="41.80339" lon="0.85449">
        <ele>320.4</ele>
        <time>2022-05-23 15:39:39</time>
      </trkpt>
      <trkpt lat="41.8034" lon="0.85457">
        <ele>320.2</ele>
        <time>2022-05-23 15:39:40</time>
      </trkpt>
      <trkpt lat="41.80341" lon="0.85464">
        <ele>320.2</ele>
        <time>2022-05-23 15:39:41</time>
      </trkpt>
      <trkpt lat="41.80343" lon="0.85473">
        <ele>320.2</ele>
        <time>2022-05-23 15:39:42</time>
      </trkpt>
      <trkpt lat="41.80344" lon="0.85481">
        <ele>320.2</ele>
        <time>2022-05-23 15:39:43</time>
      </trkpt>
      <trkpt lat="41.80346" lon="0.85489">
        <ele>320.2</ele>
        <time>2022-05-23 15:39:44</time>
      </trkpt>
      <trkpt lat="41.80347" lon="0.85497">
        <ele>320.2</ele>
        <time>2022-05-23 15:39:45</time>
      </trkpt>
      <trkpt lat="41.80348" lon="0.85505">
        <ele>320.4</ele>
        <time>2022-05-23 15:39:46</time>
      </trkpt>
      <trkpt lat="41.8035" lon="0.85513">
        <ele>320.6</ele>
        <time>2022-05-23 15:39:47</time>
      </trkpt>
      <trkpt lat="41.80352" lon="0.85521">
        <ele>320.6</ele>
        <time>2022-05-23 15:39:48</time>
      </trkpt>
      <trkpt lat="41.80353" lon="0.85528">
        <ele>320.6</ele>
        <time>2022-05-23 15:39:49</time>
      </trkpt>
      <trkpt lat="41.80355" lon="0.85536">
        <ele>320.6</ele>
        <time>2022-05-23 15:39:50</time>
      </trkpt>
      <trkpt lat="41.80357" lon="0.85544">
        <ele>320.4</ele>
        <time>2022-05-23 15:39:51</time>
      </trkpt>
      <trkpt lat="41.80359" lon="0.85552">
        <ele>320.4</ele>
        <time>2022-05-23 15:39:52</time>
      </trkpt>
      <trkpt lat="41.80361" lon="0.8556">
        <ele>320.4</ele>
        <time>2022-05-23 15:39:53</time>
      </trkpt>
      <trkpt lat="41.80362" lon="0.85568">
        <ele>320.6</ele>
        <time>2022-05-23 15:39:54</time>
      </trkpt>
      <trkpt lat="41.80365" lon="0.85576">
        <ele>320.6</ele>
        <time>2022-05-23 15:39:55</time>
      </trkpt>
      <trkpt lat="41.80366" lon="0.85584">
        <ele>320.6</ele>
        <time>2022-05-23 15:39:56</time>
      </trkpt>
      <trkpt lat="41.80368" lon="0.85592">
        <ele>320.6</ele>
        <time>2022-05-23 15:39:57</time>
      </trkpt>
      <trkpt lat="41.8037" lon="0.856">
        <ele>320.6</ele>
        <time>2022-05-23 15:39:58</time>
      </trkpt>
      <trkpt lat="41.80372" lon="0.85608">
        <ele>320.6</ele>
        <time>2022-05-23 15:39:59</time>
      </trkpt>
      <trkpt lat="41.80373" lon="0.85617">
        <ele>320.6</ele>
        <time>2022-05-23 15:40:00</time>
      </trkpt>
      <trkpt lat="41.80375" lon="0.85623">
        <ele>320.6</ele>
        <time>2022-05-23 15:40:01</time>
      </trkpt>
      <trkpt lat="41.80377" lon="0.85633">
        <ele>320.6</ele>
        <time>2022-05-23 15:40:02</time>
      </trkpt>
      <trkpt lat="41.80379" lon="0.8564">
        <ele>320.6</ele>
        <time>2022-05-23 15:40:03</time>
      </trkpt>
      <trkpt lat="41.80381" lon="0.85649">
        <ele>320.6</ele>
        <time>2022-05-23 15:40:04</time>
      </trkpt>
      <trkpt lat="41.80383" lon="0.85657">
        <ele>320.6</ele>
        <time>2022-05-23 15:40:05</time>
      </trkpt>
      <trkpt lat="41.80385" lon="0.85665">
        <ele>320.4</ele>
        <time>2022-05-23 15:40:06</time>
      </trkpt>
      <trkpt lat="41.80387" lon="0.85673">
        <ele>320.4</ele>
        <time>2022-05-23 15:40:07</time>
      </trkpt>
      <trkpt lat="41.80389" lon="0.85682">
        <ele>320.4</ele>
        <time>2022-05-23 15:40:08</time>
      </trkpt>
      <trkpt lat="41.80391" lon="0.8569">
        <ele>320.6</ele>
        <time>2022-05-23 15:40:09</time>
      </trkpt>
      <trkpt lat="41.80392" lon="0.85698">
        <ele>320.6</ele>
        <time>2022-05-23 15:40:10</time>
      </trkpt>
      <trkpt lat="41.80394" lon="0.85706">
        <ele>320.8</ele>
        <time>2022-05-23 15:40:11</time>
      </trkpt>
      <trkpt lat="41.80397" lon="0.85715">
        <ele>321</ele>
        <time>2022-05-23 15:40:12</time>
      </trkpt>
      <trkpt lat="41.80399" lon="0.85723">
        <ele>321</ele>
        <time>2022-05-23 15:40:13</time>
      </trkpt>
      <trkpt lat="41.80401" lon="0.85731">
        <ele>321</ele>
        <time>2022-05-23 15:40:14</time>
      </trkpt>
      <trkpt lat="41.80403" lon="0.85739">
        <ele>321.2</ele>
        <time>2022-05-23 15:40:15</time>
      </trkpt>
      <trkpt lat="41.80406" lon="0.85747">
        <ele>321.2</ele>
        <time>2022-05-23 15:40:16</time>
      </trkpt>
      <trkpt lat="41.80408" lon="0.85755">
        <ele>321.2</ele>
        <time>2022-05-23 15:40:17</time>
      </trkpt>
      <trkpt lat="41.80412" lon="0.85763">
        <ele>321.2</ele>
        <time>2022-05-23 15:40:18</time>
      </trkpt>
      <trkpt lat="41.80415" lon="0.8577">
        <ele>321.2</ele>
        <time>2022-05-23 15:40:19</time>
      </trkpt>
      <trkpt lat="41.80418" lon="0.85777">
        <ele>321.2</ele>
        <time>2022-05-23 15:40:20</time>
      </trkpt>
      <trkpt lat="41.80422" lon="0.85784">
        <ele>321.2</ele>
        <time>2022-05-23 15:40:21</time>
      </trkpt>
      <trkpt lat="41.80426" lon="0.85791">
        <ele>321.2</ele>
        <time>2022-05-23 15:40:22</time>
      </trkpt>
      <trkpt lat="41.80431" lon="0.85797">
        <ele>321.2</ele>
        <time>2022-05-23 15:40:23</time>
      </trkpt>
      <trkpt lat="41.80435" lon="0.85803">
        <ele>321.2</ele>
        <time>2022-05-23 15:40:24</time>
      </trkpt>
      <trkpt lat="41.8044" lon="0.85809">
        <ele>321.2</ele>
        <time>2022-05-23 15:40:25</time>
      </trkpt>
      <trkpt lat="41.80445" lon="0.85815">
        <ele>321.2</ele>
        <time>2022-05-23 15:40:26</time>
      </trkpt>
      <trkpt lat="41.8045" lon="0.8582">
        <ele>321.2</ele>
        <time>2022-05-23 15:40:27</time>
      </trkpt>
      <trkpt lat="41.80455" lon="0.85825">
        <ele>321.2</ele>
        <time>2022-05-23 15:40:28</time>
      </trkpt>
      <trkpt lat="41.80461" lon="0.85829">
        <ele>321</ele>
        <time>2022-05-23 15:40:29</time>
      </trkpt>
      <trkpt lat="41.80467" lon="0.85834">
        <ele>321.2</ele>
        <time>2022-05-23 15:40:30</time>
      </trkpt>
      <trkpt lat="41.80473" lon="0.85838">
        <ele>321</ele>
        <time>2022-05-23 15:40:31</time>
      </trkpt>
      <trkpt lat="41.80479" lon="0.85841">
        <ele>321</ele>
        <time>2022-05-23 15:40:32</time>
      </trkpt>
      <trkpt lat="41.80484" lon="0.85845">
        <ele>321</ele>
        <time>2022-05-23 15:40:33</time>
      </trkpt>
      <trkpt lat="41.8049" lon="0.85848">
        <ele>321</ele>
        <time>2022-05-23 15:40:34</time>
      </trkpt>
      <trkpt lat="41.80495" lon="0.85852">
        <ele>320.8</ele>
        <time>2022-05-23 15:40:35</time>
      </trkpt>
      <trkpt lat="41.80501" lon="0.85855">
        <ele>320.8</ele>
        <time>2022-05-23 15:40:36</time>
      </trkpt>
      <trkpt lat="41.80507" lon="0.85858">
        <ele>320.8</ele>
        <time>2022-05-23 15:40:37</time>
      </trkpt>
      <trkpt lat="41.80512" lon="0.85862">
        <ele>320.6</ele>
        <time>2022-05-23 15:40:38</time>
      </trkpt>
      <trkpt lat="41.80518" lon="0.85866">
        <ele>320.4</ele>
        <time>2022-05-23 15:40:39</time>
      </trkpt>
      <trkpt lat="41.80523" lon="0.8587">
        <ele>320.4</ele>
        <time>2022-05-23 15:40:40</time>
      </trkpt>
      <trkpt lat="41.80528" lon="0.85876">
        <ele>320.4</ele>
        <time>2022-05-23 15:40:41</time>
      </trkpt>
      <trkpt lat="41.80533" lon="0.8588">
        <ele>320.4</ele>
        <time>2022-05-23 15:40:42</time>
      </trkpt>
      <trkpt lat="41.80537" lon="0.85886">
        <ele>320.4</ele>
        <time>2022-05-23 15:40:43</time>
      </trkpt>
      <trkpt lat="41.80542" lon="0.85893">
        <ele>320.4</ele>
        <time>2022-05-23 15:40:44</time>
      </trkpt>
      <trkpt lat="41.80547" lon="0.85899">
        <ele>320.6</ele>
        <time>2022-05-23 15:40:45</time>
      </trkpt>
      <trkpt lat="41.80551" lon="0.85905">
        <ele>320.6</ele>
        <time>2022-05-23 15:40:46</time>
      </trkpt>
      <trkpt lat="41.80556" lon="0.85911">
        <ele>320.8</ele>
        <time>2022-05-23 15:40:47</time>
      </trkpt>
      <trkpt lat="41.80561" lon="0.85917">
        <ele>320.8</ele>
        <time>2022-05-23 15:40:48</time>
      </trkpt>
      <trkpt lat="41.80565" lon="0.85923">
        <ele>320.8</ele>
        <time>2022-05-23 15:40:49</time>
      </trkpt>
      <trkpt lat="41.8057" lon="0.85928">
        <ele>321</ele>
        <time>2022-05-23 15:40:50</time>
      </trkpt>
      <trkpt lat="41.80575" lon="0.85934">
        <ele>321</ele>
        <time>2022-05-23 15:40:51</time>
      </trkpt>
      <trkpt lat="41.8058" lon="0.85939">
        <ele>321</ele>
        <time>2022-05-23 15:40:52</time>
      </trkpt>
      <trkpt lat="41.80586" lon="0.85945">
        <ele>321</ele>
        <time>2022-05-23 15:40:53</time>
      </trkpt>
      <trkpt lat="41.80591" lon="0.85951">
        <ele>321</ele>
        <time>2022-05-23 15:40:54</time>
      </trkpt>
      <trkpt lat="41.80596" lon="0.85957">
        <ele>321.2</ele>
        <time>2022-05-23 15:40:55</time>
      </trkpt>
      <trkpt lat="41.806" lon="0.85962">
        <ele>321.2</ele>
        <time>2022-05-23 15:40:56</time>
      </trkpt>
      <trkpt lat="41.80603" lon="0.85968">
        <ele>321.4</ele>
        <time>2022-05-23 15:40:57</time>
      </trkpt>
      <trkpt lat="41.80607" lon="0.85974">
        <ele>321.4</ele>
        <time>2022-05-23 15:40:58</time>
      </trkpt>
      <trkpt lat="41.80611" lon="0.8598">
        <ele>321.4</ele>
        <time>2022-05-23 15:40:59</time>
      </trkpt>
      <trkpt lat="41.80616" lon="0.85988">
        <ele>321.6</ele>
        <time>2022-05-23 15:41:00</time>
      </trkpt>
      <trkpt lat="41.80619" lon="0.85994">
        <ele>321.6</ele>
        <time>2022-05-23 15:41:01</time>
      </trkpt>
      <trkpt lat="41.80624" lon="0.86002">
        <ele>322</ele>
        <time>2022-05-23 15:41:02</time>
      </trkpt>
      <trkpt lat="41.80628" lon="0.86008">
        <ele>322</ele>
        <time>2022-05-23 15:41:03</time>
      </trkpt>
      <trkpt lat="41.80631" lon="0.86017">
        <ele>322.2</ele>
        <time>2022-05-23 15:41:04</time>
      </trkpt>
      <trkpt lat="41.80634" lon="0.86024">
        <ele>322.4</ele>
        <time>2022-05-23 15:41:05</time>
      </trkpt>
      <trkpt lat="41.80638" lon="0.86033">
        <ele>322.4</ele>
        <time>2022-05-23 15:41:06</time>
      </trkpt>
      <trkpt lat="41.80641" lon="0.8604">
        <ele>322.6</ele>
        <time>2022-05-23 15:41:07</time>
      </trkpt>
      <trkpt lat="41.80646" lon="0.8605">
        <ele>322.8</ele>
        <time>2022-05-23 15:41:08</time>
      </trkpt>
      <trkpt lat="41.80649" lon="0.86058">
        <ele>322.8</ele>
        <time>2022-05-23 15:41:09</time>
      </trkpt>
      <trkpt lat="41.80653" lon="0.86066">
        <ele>323</ele>
        <time>2022-05-23 15:41:10</time>
      </trkpt>
      <trkpt lat="41.80657" lon="0.86073">
        <ele>323</ele>
        <time>2022-05-23 15:41:11</time>
      </trkpt>
      <trkpt lat="41.80662" lon="0.86082">
        <ele>323.2</ele>
        <time>2022-05-23 15:41:12</time>
      </trkpt>
      <trkpt lat="41.80665" lon="0.86089">
        <ele>323.2</ele>
        <time>2022-05-23 15:41:13</time>
      </trkpt>
      <trkpt lat="41.80669" lon="0.86097">
        <ele>323.4</ele>
        <time>2022-05-23 15:41:14</time>
      </trkpt>
      <trkpt lat="41.80673" lon="0.86104">
        <ele>323.6</ele>
        <time>2022-05-23 15:41:15</time>
      </trkpt>
      <trkpt lat="41.80677" lon="0.86113">
        <ele>323.6</ele>
        <time>2022-05-23 15:41:16</time>
      </trkpt>
      <trkpt lat="41.8068" lon="0.8612">
        <ele>323.6</ele>
        <time>2022-05-23 15:41:17</time>
      </trkpt>
      <trkpt lat="41.80684" lon="0.86129">
        <ele>323.6</ele>
        <time>2022-05-23 15:41:18</time>
      </trkpt>
      <trkpt lat="41.80688" lon="0.86136">
        <ele>323.8</ele>
        <time>2022-05-23 15:41:19</time>
      </trkpt>
      <trkpt lat="41.80692" lon="0.86145">
        <ele>323.8</ele>
        <time>2022-05-23 15:41:20</time>
      </trkpt>
      <trkpt lat="41.80695" lon="0.86152">
        <ele>323.8</ele>
        <time>2022-05-23 15:41:21</time>
      </trkpt>
      <trkpt lat="41.80698" lon="0.86161">
        <ele>324</ele>
        <time>2022-05-23 15:41:22</time>
      </trkpt>
      <trkpt lat="41.80701" lon="0.86168">
        <ele>324</ele>
        <time>2022-05-23 15:41:23</time>
      </trkpt>
      <trkpt lat="41.80705" lon="0.86176">
        <ele>324</ele>
        <time>2022-05-23 15:41:24</time>
      </trkpt>
      <trkpt lat="41.80709" lon="0.86184">
        <ele>324</ele>
        <time>2022-05-23 15:41:25</time>
      </trkpt>
      <trkpt lat="41.80713" lon="0.86193">
        <ele>324</ele>
        <time>2022-05-23 15:41:26</time>
      </trkpt>
      <trkpt lat="41.80716" lon="0.862">
        <ele>324</ele>
        <time>2022-05-23 15:41:27</time>
      </trkpt>
      <trkpt lat="41.80719" lon="0.86208">
        <ele>324</ele>
        <time>2022-05-23 15:41:28</time>
      </trkpt>
      <trkpt lat="41.80723" lon="0.86216">
        <ele>324</ele>
        <time>2022-05-23 15:41:29</time>
      </trkpt>
      <trkpt lat="41.80727" lon="0.86224">
        <ele>324</ele>
        <time>2022-05-23 15:41:30</time>
      </trkpt>
      <trkpt lat="41.8073" lon="0.86232">
        <ele>324.2</ele>
        <time>2022-05-23 15:41:31</time>
      </trkpt>
      <trkpt lat="41.80734" lon="0.8624">
        <ele>324.2</ele>
        <time>2022-05-23 15:41:32</time>
      </trkpt>
      <trkpt lat="41.80736" lon="0.86247">
        <ele>324.2</ele>
        <time>2022-05-23 15:41:33</time>
      </trkpt>
      <trkpt lat="41.80739" lon="0.86258">
        <ele>324.4</ele>
        <time>2022-05-23 15:41:34</time>
      </trkpt>
      <trkpt lat="41.80741" lon="0.86266">
        <ele>324.2</ele>
        <time>2022-05-23 15:41:35</time>
      </trkpt>
      <trkpt lat="41.80742" lon="0.86275">
        <ele>324.2</ele>
        <time>2022-05-23 15:41:36</time>
      </trkpt>
      <trkpt lat="41.80743" lon="0.86284">
        <ele>324.2</ele>
        <time>2022-05-23 15:41:37</time>
      </trkpt>
      <trkpt lat="41.80743" lon="0.86292">
        <ele>324.4</ele>
        <time>2022-05-23 15:41:38</time>
      </trkpt>
      <trkpt lat="41.80743" lon="0.863">
        <ele>324.4</ele>
        <time>2022-05-23 15:41:39</time>
      </trkpt>
      <trkpt lat="41.80742" lon="0.8631">
        <ele>324.6</ele>
        <time>2022-05-23 15:41:40</time>
      </trkpt>
      <trkpt lat="41.80742" lon="0.86317">
        <ele>324.6</ele>
        <time>2022-05-23 15:41:41</time>
      </trkpt>
      <trkpt lat="41.80741" lon="0.86326">
        <ele>324.6</ele>
        <time>2022-05-23 15:41:42</time>
      </trkpt>
      <trkpt lat="41.80741" lon="0.86333">
        <ele>324.8</ele>
        <time>2022-05-23 15:41:43</time>
      </trkpt>
      <trkpt lat="41.80741" lon="0.86341">
        <ele>324.8</ele>
        <time>2022-05-23 15:41:44</time>
      </trkpt>
      <trkpt lat="41.80741" lon="0.86347">
        <ele>325</ele>
        <time>2022-05-23 15:41:45</time>
      </trkpt>
      <trkpt lat="41.8074" lon="0.86355">
        <ele>325.2</ele>
        <time>2022-05-23 15:41:46</time>
      </trkpt>
      <trkpt lat="41.8074" lon="0.8636">
        <ele>325.2</ele>
        <time>2022-05-23 15:41:47</time>
      </trkpt>
      <trkpt lat="41.80739" lon="0.86368">
        <ele>325.4</ele>
        <time>2022-05-23 15:41:48</time>
      </trkpt>
      <trkpt lat="41.80739" lon="0.86374">
        <ele>325.4</ele>
        <time>2022-05-23 15:41:49</time>
      </trkpt>
      <trkpt lat="41.80738" lon="0.86382">
        <ele>325.4</ele>
        <time>2022-05-23 15:41:50</time>
      </trkpt>
      <trkpt lat="41.80737" lon="0.86389">
        <ele>325.4</ele>
        <time>2022-05-23 15:41:51</time>
      </trkpt>
      <trkpt lat="41.80736" lon="0.86398">
        <ele>325.4</ele>
        <time>2022-05-23 15:41:52</time>
      </trkpt>
      <trkpt lat="41.80736" lon="0.86404">
        <ele>325.6</ele>
        <time>2022-05-23 15:41:53</time>
      </trkpt>
      <trkpt lat="41.80735" lon="0.86414">
        <ele>325.6</ele>
        <time>2022-05-23 15:41:54</time>
      </trkpt>
      <trkpt lat="41.80734" lon="0.86421">
        <ele>325.6</ele>
        <time>2022-05-23 15:41:55</time>
      </trkpt>
      <trkpt lat="41.80734" lon="0.86432">
        <ele>325.4</ele>
        <time>2022-05-23 15:41:56</time>
      </trkpt>
      <trkpt lat="41.80734" lon="0.8644">
        <ele>325.2</ele>
        <time>2022-05-23 15:41:57</time>
      </trkpt>
      <trkpt lat="41.80733" lon="0.8645">
        <ele>325.2</ele>
        <time>2022-05-23 15:41:58</time>
      </trkpt>
      <trkpt lat="41.80733" lon="0.86458">
        <ele>325</ele>
        <time>2022-05-23 15:41:59</time>
      </trkpt>
      <trkpt lat="41.80733" lon="0.86468">
        <ele>325</ele>
        <time>2022-05-23 15:42:00</time>
      </trkpt>
      <trkpt lat="41.80733" lon="0.86476">
        <ele>325</ele>
        <time>2022-05-23 15:42:01</time>
      </trkpt>
      <trkpt lat="41.80733" lon="0.86487">
        <ele>324.8</ele>
        <time>2022-05-23 15:42:02</time>
      </trkpt>
      <trkpt lat="41.80734" lon="0.86495">
        <ele>324.8</ele>
        <time>2022-05-23 15:42:03</time>
      </trkpt>
      <trkpt lat="41.80734" lon="0.86504">
        <ele>324.8</ele>
        <time>2022-05-23 15:42:04</time>
      </trkpt>
      <trkpt lat="41.80734" lon="0.86515">
        <ele>324.8</ele>
        <time>2022-05-23 15:42:05</time>
      </trkpt>
      <trkpt lat="41.80733" lon="0.86526">
        <ele>324.6</ele>
        <time>2022-05-23 15:42:06</time>
      </trkpt>
      <trkpt lat="41.80732" lon="0.86535">
        <ele>324.6</ele>
        <time>2022-05-23 15:42:07</time>
      </trkpt>
      <trkpt lat="41.80732" lon="0.86545">
        <ele>324.6</ele>
        <time>2022-05-23 15:42:08</time>
      </trkpt>
      <trkpt lat="41.80731" lon="0.86554">
        <ele>324.6</ele>
        <time>2022-05-23 15:42:09</time>
      </trkpt>
      <trkpt lat="41.8073" lon="0.86563">
        <ele>324.6</ele>
        <time>2022-05-23 15:42:10</time>
      </trkpt>
      <trkpt lat="41.8073" lon="0.86572">
        <ele>324.6</ele>
        <time>2022-05-23 15:42:11</time>
      </trkpt>
      <trkpt lat="41.8073" lon="0.86582">
        <ele>324.6</ele>
        <time>2022-05-23 15:42:12</time>
      </trkpt>
      <trkpt lat="41.80729" lon="0.86591">
        <ele>324.6</ele>
        <time>2022-05-23 15:42:13</time>
      </trkpt>
      <trkpt lat="41.80728" lon="0.866">
        <ele>324.4</ele>
        <time>2022-05-23 15:42:14</time>
      </trkpt>
      <trkpt lat="41.80727" lon="0.86609">
        <ele>324.4</ele>
        <time>2022-05-23 15:42:15</time>
      </trkpt>
      <trkpt lat="41.80727" lon="0.86619">
        <ele>324.2</ele>
        <time>2022-05-23 15:42:16</time>
      </trkpt>
      <trkpt lat="41.80725" lon="0.86628">
        <ele>324.2</ele>
        <time>2022-05-23 15:42:17</time>
      </trkpt>
      <trkpt lat="41.80725" lon="0.86638">
        <ele>324.2</ele>
        <time>2022-05-23 15:42:18</time>
      </trkpt>
      <trkpt lat="41.80723" lon="0.86648">
        <ele>324</ele>
        <time>2022-05-23 15:42:19</time>
      </trkpt>
      <trkpt lat="41.80722" lon="0.86657">
        <ele>324</ele>
        <time>2022-05-23 15:42:20</time>
      </trkpt>
      <trkpt lat="41.8072" lon="0.86667">
        <ele>323.8</ele>
        <time>2022-05-23 15:42:21</time>
      </trkpt>
      <trkpt lat="41.80718" lon="0.86677">
        <ele>323.8</ele>
        <time>2022-05-23 15:42:22</time>
      </trkpt>
      <trkpt lat="41.80716" lon="0.86687">
        <ele>323.8</ele>
        <time>2022-05-23 15:42:23</time>
      </trkpt>
      <trkpt lat="41.80714" lon="0.86696">
        <ele>323.6</ele>
        <time>2022-05-23 15:42:24</time>
      </trkpt>
      <trkpt lat="41.80712" lon="0.86706">
        <ele>323.4</ele>
        <time>2022-05-23 15:42:25</time>
      </trkpt>
      <trkpt lat="41.8071" lon="0.86716">
        <ele>323.4</ele>
        <time>2022-05-23 15:42:26</time>
      </trkpt>
      <trkpt lat="41.80709" lon="0.86725">
        <ele>323.4</ele>
        <time>2022-05-23 15:42:27</time>
      </trkpt>
      <trkpt lat="41.80707" lon="0.86736">
        <ele>323.4</ele>
        <time>2022-05-23 15:42:28</time>
      </trkpt>
      <trkpt lat="41.80706" lon="0.86746">
        <ele>323.4</ele>
        <time>2022-05-23 15:42:29</time>
      </trkpt>
      <trkpt lat="41.80704" lon="0.86757">
        <ele>323.4</ele>
        <time>2022-05-23 15:42:30</time>
      </trkpt>
      <trkpt lat="41.80703" lon="0.86767">
        <ele>323.4</ele>
        <time>2022-05-23 15:42:31</time>
      </trkpt>
      <trkpt lat="41.80701" lon="0.86776">
        <ele>323.4</ele>
        <time>2022-05-23 15:42:32</time>
      </trkpt>
      <trkpt lat="41.80699" lon="0.86786">
        <ele>323.4</ele>
        <time>2022-05-23 15:42:33</time>
      </trkpt>
      <trkpt lat="41.80698" lon="0.86796">
        <ele>323.6</ele>
        <time>2022-05-23 15:42:34</time>
      </trkpt>
      <trkpt lat="41.80696" lon="0.86806">
        <ele>323.6</ele>
        <time>2022-05-23 15:42:35</time>
      </trkpt>
      <trkpt lat="41.80694" lon="0.86816">
        <ele>323.6</ele>
        <time>2022-05-23 15:42:36</time>
      </trkpt>
      <trkpt lat="41.80693" lon="0.86825">
        <ele>323.6</ele>
        <time>2022-05-23 15:42:37</time>
      </trkpt>
      <trkpt lat="41.80692" lon="0.86831">
        <ele>323.6</ele>
        <time>2022-05-23 15:42:38</time>
      </trkpt>
      <trkpt lat="41.8069" lon="0.86843">
        <ele>323.6</ele>
        <time>2022-05-23 15:42:39</time>
      </trkpt>
      <trkpt lat="41.80688" lon="0.86852">
        <ele>323.6</ele>
        <time>2022-05-23 15:42:40</time>
      </trkpt>
      <trkpt lat="41.80686" lon="0.86862">
        <ele>323.6</ele>
        <time>2022-05-23 15:42:41</time>
      </trkpt>
      <trkpt lat="41.80685" lon="0.8687">
        <ele>323.8</ele>
        <time>2022-05-23 15:42:42</time>
      </trkpt>
      <trkpt lat="41.80683" lon="0.8688">
        <ele>323.8</ele>
        <time>2022-05-23 15:42:43</time>
      </trkpt>
      <trkpt lat="41.80681" lon="0.86888">
        <ele>323.8</ele>
        <time>2022-05-23 15:42:44</time>
      </trkpt>
      <trkpt lat="41.80679" lon="0.86897">
        <ele>324</ele>
        <time>2022-05-23 15:42:45</time>
      </trkpt>
      <trkpt lat="41.80677" lon="0.86905">
        <ele>324.2</ele>
        <time>2022-05-23 15:42:46</time>
      </trkpt>
      <trkpt lat="41.80674" lon="0.86914">
        <ele>324.2</ele>
        <time>2022-05-23 15:42:47</time>
      </trkpt>
      <trkpt lat="41.80672" lon="0.86922">
        <ele>324.2</ele>
        <time>2022-05-23 15:42:48</time>
      </trkpt>
      <trkpt lat="41.8067" lon="0.8693">
        <ele>324.4</ele>
        <time>2022-05-23 15:42:49</time>
      </trkpt>
      <trkpt lat="41.80667" lon="0.86937">
        <ele>324.6</ele>
        <time>2022-05-23 15:42:50</time>
      </trkpt>
      <trkpt lat="41.80665" lon="0.86944">
        <ele>324.6</ele>
        <time>2022-05-23 15:42:51</time>
      </trkpt>
      <trkpt lat="41.80662" lon="0.86952">
        <ele>324.6</ele>
        <time>2022-05-23 15:42:52</time>
      </trkpt>
      <trkpt lat="41.80659" lon="0.86959">
        <ele>324.8</ele>
        <time>2022-05-23 15:42:53</time>
      </trkpt>
      <trkpt lat="41.80657" lon="0.86967">
        <ele>324.8</ele>
        <time>2022-05-23 15:42:54</time>
      </trkpt>
      <trkpt lat="41.80654" lon="0.86973">
        <ele>325</ele>
        <time>2022-05-23 15:42:55</time>
      </trkpt>
      <trkpt lat="41.80651" lon="0.8698">
        <ele>325.2</ele>
        <time>2022-05-23 15:42:56</time>
      </trkpt>
      <trkpt lat="41.80649" lon="0.86987">
        <ele>325.2</ele>
        <time>2022-05-23 15:42:57</time>
      </trkpt>
      <trkpt lat="41.80647" lon="0.86994">
        <ele>325.2</ele>
        <time>2022-05-23 15:42:58</time>
      </trkpt>
      <trkpt lat="41.80645" lon="0.87001">
        <ele>325.4</ele>
        <time>2022-05-23 15:42:59</time>
      </trkpt>
      <trkpt lat="41.80643" lon="0.87008">
        <ele>325.4</ele>
        <time>2022-05-23 15:43:00</time>
      </trkpt>
      <trkpt lat="41.80641" lon="0.87016">
        <ele>325.4</ele>
        <time>2022-05-23 15:43:01</time>
      </trkpt>
      <trkpt lat="41.80638" lon="0.87024">
        <ele>325.6</ele>
        <time>2022-05-23 15:43:02</time>
      </trkpt>
      <trkpt lat="41.80636" lon="0.87031">
        <ele>325.4</ele>
        <time>2022-05-23 15:43:03</time>
      </trkpt>
      <trkpt lat="41.80634" lon="0.87039">
        <ele>325.4</ele>
        <time>2022-05-23 15:43:04</time>
      </trkpt>
      <trkpt lat="41.80632" lon="0.87047">
        <ele>325.4</ele>
        <time>2022-05-23 15:43:05</time>
      </trkpt>
      <trkpt lat="41.80631" lon="0.87054">
        <ele>325.4</ele>
        <time>2022-05-23 15:43:06</time>
      </trkpt>
      <trkpt lat="41.80629" lon="0.87062">
        <ele>325.4</ele>
        <time>2022-05-23 15:43:07</time>
      </trkpt>
      <trkpt lat="41.80627" lon="0.8707">
        <ele>325.2</ele>
        <time>2022-05-23 15:43:08</time>
      </trkpt>
      <trkpt lat="41.80626" lon="0.87077">
        <ele>325.2</ele>
        <time>2022-05-23 15:43:09</time>
      </trkpt>
      <trkpt lat="41.80624" lon="0.87084">
        <ele>325.2</ele>
        <time>2022-05-23 15:43:10</time>
      </trkpt>
      <trkpt lat="41.80622" lon="0.87092">
        <ele>325.2</ele>
        <time>2022-05-23 15:43:11</time>
      </trkpt>
      <trkpt lat="41.80621" lon="0.871">
        <ele>325.4</ele>
        <time>2022-05-23 15:43:12</time>
      </trkpt>
      <trkpt lat="41.80619" lon="0.87107">
        <ele>325.4</ele>
        <time>2022-05-23 15:43:13</time>
      </trkpt>
      <trkpt lat="41.80618" lon="0.87115">
        <ele>325.6</ele>
        <time>2022-05-23 15:43:14</time>
      </trkpt>
      <trkpt lat="41.80616" lon="0.87123">
        <ele>325.6</ele>
        <time>2022-05-23 15:43:15</time>
      </trkpt>
      <trkpt lat="41.80616" lon="0.87131">
        <ele>325.6</ele>
        <time>2022-05-23 15:43:16</time>
      </trkpt>
      <trkpt lat="41.80616" lon="0.8714">
        <ele>325.8</ele>
        <time>2022-05-23 15:43:17</time>
      </trkpt>
      <trkpt lat="41.80615" lon="0.87148">
        <ele>325.8</ele>
        <time>2022-05-23 15:43:18</time>
      </trkpt>
      <trkpt lat="41.80614" lon="0.87156">
        <ele>325.8</ele>
        <time>2022-05-23 15:43:19</time>
      </trkpt>
      <trkpt lat="41.80613" lon="0.87164">
        <ele>325.8</ele>
        <time>2022-05-23 15:43:20</time>
      </trkpt>
      <trkpt lat="41.80612" lon="0.87173">
        <ele>325.6</ele>
        <time>2022-05-23 15:43:21</time>
      </trkpt>
      <trkpt lat="41.80611" lon="0.87181">
        <ele>325.6</ele>
        <time>2022-05-23 15:43:22</time>
      </trkpt>
      <trkpt lat="41.8061" lon="0.8719">
        <ele>325.6</ele>
        <time>2022-05-23 15:43:23</time>
      </trkpt>
      <trkpt lat="41.80609" lon="0.87199">
        <ele>325.6</ele>
        <time>2022-05-23 15:43:24</time>
      </trkpt>
      <trkpt lat="41.80609" lon="0.87208">
        <ele>325.6</ele>
        <time>2022-05-23 15:43:25</time>
      </trkpt>
      <trkpt lat="41.80609" lon="0.87217">
        <ele>325.6</ele>
        <time>2022-05-23 15:43:26</time>
      </trkpt>
      <trkpt lat="41.80608" lon="0.87226">
        <ele>325.4</ele>
        <time>2022-05-23 15:43:27</time>
      </trkpt>
      <trkpt lat="41.80608" lon="0.87235">
        <ele>325.4</ele>
        <time>2022-05-23 15:43:28</time>
      </trkpt>
      <trkpt lat="41.80608" lon="0.87244">
        <ele>325.4</ele>
        <time>2022-05-23 15:43:29</time>
      </trkpt>
      <trkpt lat="41.80607" lon="0.87252">
        <ele>325.4</ele>
        <time>2022-05-23 15:43:30</time>
      </trkpt>
      <trkpt lat="41.80607" lon="0.87261">
        <ele>325.6</ele>
        <time>2022-05-23 15:43:31</time>
      </trkpt>
      <trkpt lat="41.80606" lon="0.8727">
        <ele>325.6</ele>
        <time>2022-05-23 15:43:32</time>
      </trkpt>
      <trkpt lat="41.80605" lon="0.87278">
        <ele>325.8</ele>
        <time>2022-05-23 15:43:33</time>
      </trkpt>
      <trkpt lat="41.80605" lon="0.87289">
        <ele>325.6</ele>
        <time>2022-05-23 15:43:34</time>
      </trkpt>
      <trkpt lat="41.80604" lon="0.87298">
        <ele>325.6</ele>
        <time>2022-05-23 15:43:35</time>
      </trkpt>
      <trkpt lat="41.80603" lon="0.87307">
        <ele>325.6</ele>
        <time>2022-05-23 15:43:36</time>
      </trkpt>
      <trkpt lat="41.80602" lon="0.87315">
        <ele>325.4</ele>
        <time>2022-05-23 15:43:37</time>
      </trkpt>
      <trkpt lat="41.80602" lon="0.87324">
        <ele>325.4</ele>
        <time>2022-05-23 15:43:38</time>
      </trkpt>
      <trkpt lat="41.806" lon="0.87332">
        <ele>325.6</ele>
        <time>2022-05-23 15:43:39</time>
      </trkpt>
      <trkpt lat="41.80599" lon="0.87341">
        <ele>325.6</ele>
        <time>2022-05-23 15:43:40</time>
      </trkpt>
      <trkpt lat="41.80597" lon="0.87349">
        <ele>325.6</ele>
        <time>2022-05-23 15:43:41</time>
      </trkpt>
      <trkpt lat="41.80595" lon="0.87356">
        <ele>325.6</ele>
        <time>2022-05-23 15:43:42</time>
      </trkpt>
      <trkpt lat="41.80594" lon="0.87364">
        <ele>325.8</ele>
        <time>2022-05-23 15:43:43</time>
      </trkpt>
      <trkpt lat="41.80593" lon="0.87372">
        <ele>325.8</ele>
        <time>2022-05-23 15:43:44</time>
      </trkpt>
      <trkpt lat="41.80592" lon="0.8738">
        <ele>325.6</ele>
        <time>2022-05-23 15:43:45</time>
      </trkpt>
      <trkpt lat="41.80591" lon="0.87388">
        <ele>325.6</ele>
        <time>2022-05-23 15:43:46</time>
      </trkpt>
      <trkpt lat="41.8059" lon="0.87397">
        <ele>325.6</ele>
        <time>2022-05-23 15:43:47</time>
      </trkpt>
      <trkpt lat="41.80588" lon="0.87405">
        <ele>325.8</ele>
        <time>2022-05-23 15:43:48</time>
      </trkpt>
      <trkpt lat="41.80587" lon="0.87415">
        <ele>325.8</ele>
        <time>2022-05-23 15:43:49</time>
      </trkpt>
      <trkpt lat="41.80587" lon="0.87425">
        <ele>325.6</ele>
        <time>2022-05-23 15:43:50</time>
      </trkpt>
      <trkpt lat="41.80587" lon="0.87435">
        <ele>325.8</ele>
        <time>2022-05-23 15:43:51</time>
      </trkpt>
      <trkpt lat="41.80586" lon="0.87445">
        <ele>325.8</ele>
        <time>2022-05-23 15:43:52</time>
      </trkpt>
      <trkpt lat="41.80586" lon="0.87455">
        <ele>325.8</ele>
        <time>2022-05-23 15:43:53</time>
      </trkpt>
      <trkpt lat="41.80586" lon="0.87466">
        <ele>325.6</ele>
        <time>2022-05-23 15:43:54</time>
      </trkpt>
      <trkpt lat="41.80586" lon="0.87476">
        <ele>325.6</ele>
        <time>2022-05-23 15:43:55</time>
      </trkpt>
      <trkpt lat="41.80585" lon="0.87486">
        <ele>325.6</ele>
        <time>2022-05-23 15:43:56</time>
      </trkpt>
      <trkpt lat="41.80585" lon="0.87497">
        <ele>325.4</ele>
        <time>2022-05-23 15:43:57</time>
      </trkpt>
      <trkpt lat="41.80585" lon="0.87507">
        <ele>325.4</ele>
        <time>2022-05-23 15:43:58</time>
      </trkpt>
      <trkpt lat="41.80585" lon="0.87515">
        <ele>325.4</ele>
        <time>2022-05-23 15:43:59</time>
      </trkpt>
      <trkpt lat="41.80585" lon="0.87527">
        <ele>325.2</ele>
        <time>2022-05-23 15:44:00</time>
      </trkpt>
      <trkpt lat="41.80585" lon="0.87538">
        <ele>325</ele>
        <time>2022-05-23 15:44:01</time>
      </trkpt>
      <trkpt lat="41.80585" lon="0.87549">
        <ele>325</ele>
        <time>2022-05-23 15:44:02</time>
      </trkpt>
      <trkpt lat="41.80585" lon="0.87558">
        <ele>325</ele>
        <time>2022-05-23 15:44:03</time>
      </trkpt>
      <trkpt lat="41.80585" lon="0.87568">
        <ele>325</ele>
        <time>2022-05-23 15:44:04</time>
      </trkpt>
      <trkpt lat="41.80585" lon="0.87579">
        <ele>325</ele>
        <time>2022-05-23 15:44:05</time>
      </trkpt>
      <trkpt lat="41.80585" lon="0.87588">
        <ele>325</ele>
        <time>2022-05-23 15:44:06</time>
      </trkpt>
      <trkpt lat="41.80585" lon="0.87598">
        <ele>325</ele>
        <time>2022-05-23 15:44:07</time>
      </trkpt>
      <trkpt lat="41.80584" lon="0.87609">
        <ele>325</ele>
        <time>2022-05-23 15:44:08</time>
      </trkpt>
      <trkpt lat="41.80583" lon="0.87618">
        <ele>325</ele>
        <time>2022-05-23 15:44:09</time>
      </trkpt>
      <trkpt lat="41.8058" lon="0.87628">
        <ele>325</ele>
        <time>2022-05-23 15:44:10</time>
      </trkpt>
      <trkpt lat="41.80578" lon="0.87636">
        <ele>325</ele>
        <time>2022-05-23 15:44:11</time>
      </trkpt>
      <trkpt lat="41.80574" lon="0.87645">
        <ele>325</ele>
        <time>2022-05-23 15:44:12</time>
      </trkpt>
      <trkpt lat="41.80571" lon="0.87653">
        <ele>325.2</ele>
        <time>2022-05-23 15:44:13</time>
      </trkpt>
      <trkpt lat="41.80567" lon="0.87661">
        <ele>325.2</ele>
        <time>2022-05-23 15:44:14</time>
      </trkpt>
      <trkpt lat="41.80564" lon="0.87668">
        <ele>325.4</ele>
        <time>2022-05-23 15:44:15</time>
      </trkpt>
      <trkpt lat="41.80561" lon="0.87674">
        <ele>325.4</ele>
        <time>2022-05-23 15:44:16</time>
      </trkpt>
      <trkpt lat="41.80557" lon="0.87681">
        <ele>325.4</ele>
        <time>2022-05-23 15:44:17</time>
      </trkpt>
      <trkpt lat="41.80554" lon="0.87687">
        <ele>325.4</ele>
        <time>2022-05-23 15:44:18</time>
      </trkpt>
      <trkpt lat="41.8055" lon="0.87693">
        <ele>325.6</ele>
        <time>2022-05-23 15:44:19</time>
      </trkpt>
      <trkpt lat="41.80547" lon="0.877">
        <ele>325.6</ele>
        <time>2022-05-23 15:44:20</time>
      </trkpt>
      <trkpt lat="41.80544" lon="0.87705">
        <ele>325.8</ele>
        <time>2022-05-23 15:44:21</time>
      </trkpt>
      <trkpt lat="41.80541" lon="0.87711">
        <ele>325.8</ele>
        <time>2022-05-23 15:44:22</time>
      </trkpt>
      <trkpt lat="41.80538" lon="0.87716">
        <ele>325.6</ele>
        <time>2022-05-23 15:44:23</time>
      </trkpt>
      <trkpt lat="41.80535" lon="0.87721">
        <ele>325.6</ele>
        <time>2022-05-23 15:44:24</time>
      </trkpt>
      <trkpt lat="41.80533" lon="0.87726">
        <ele>325.8</ele>
        <time>2022-05-23 15:44:25</time>
      </trkpt>
      <trkpt lat="41.8053" lon="0.8773">
        <ele>325.8</ele>
        <time>2022-05-23 15:44:26</time>
      </trkpt>
      <trkpt lat="41.80527" lon="0.87735">
        <ele>325.8</ele>
        <time>2022-05-23 15:44:27</time>
      </trkpt>
      <trkpt lat="41.80525" lon="0.8774">
        <ele>325.8</ele>
        <time>2022-05-23 15:44:28</time>
      </trkpt>
      <trkpt lat="41.80523" lon="0.87746">
        <ele>325.8</ele>
        <time>2022-05-23 15:44:29</time>
      </trkpt>
      <trkpt lat="41.80522" lon="0.87751">
        <ele>325.8</ele>
        <time>2022-05-23 15:44:30</time>
      </trkpt>
      <trkpt lat="41.8052" lon="0.87757">
        <ele>325.8</ele>
        <time>2022-05-23 15:44:31</time>
      </trkpt>
      <trkpt lat="41.80519" lon="0.87764">
        <ele>325.8</ele>
        <time>2022-05-23 15:44:32</time>
      </trkpt>
      <trkpt lat="41.8052" lon="0.87771">
        <ele>325.8</ele>
        <time>2022-05-23 15:44:33</time>
      </trkpt>
      <trkpt lat="41.80521" lon="0.87777">
        <ele>325.6</ele>
        <time>2022-05-23 15:44:34</time>
      </trkpt>
      <trkpt lat="41.80523" lon="0.87783">
        <ele>325.6</ele>
        <time>2022-05-23 15:44:35</time>
      </trkpt>
      <trkpt lat="41.80526" lon="0.87789">
        <ele>325.6</ele>
        <time>2022-05-23 15:44:36</time>
      </trkpt>
      <trkpt lat="41.80528" lon="0.87796">
        <ele>325.8</ele>
        <time>2022-05-23 15:44:37</time>
      </trkpt>
      <trkpt lat="41.80528" lon="0.87803">
        <ele>325.8</ele>
        <time>2022-05-23 15:44:38</time>
      </trkpt>
      <trkpt lat="41.80529" lon="0.87807">
        <ele>326</ele>
        <time>2022-05-23 15:44:39</time>
      </trkpt>
      <trkpt lat="41.80529" lon="0.87815">
        <ele>326</ele>
        <time>2022-05-23 15:44:40</time>
      </trkpt>
      <trkpt lat="41.80528" lon="0.8782">
        <ele>326.2</ele>
        <time>2022-05-23 15:44:41</time>
      </trkpt>
      <trkpt lat="41.80528" lon="0.87826">
        <ele>326.2</ele>
        <time>2022-05-23 15:44:42</time>
      </trkpt>
      <trkpt lat="41.80527" lon="0.87832">
        <ele>326.4</ele>
        <time>2022-05-23 15:44:43</time>
      </trkpt>
      <trkpt lat="41.80527" lon="0.87837">
        <ele>326.4</ele>
        <time>2022-05-23 15:44:44</time>
      </trkpt>
      <trkpt lat="41.80527" lon="0.87842">
        <ele>326.6</ele>
        <time>2022-05-23 15:44:45</time>
      </trkpt>
      <trkpt lat="41.80527" lon="0.87849">
        <ele>326.6</ele>
        <time>2022-05-23 15:44:46</time>
      </trkpt>
      <trkpt lat="41.80527" lon="0.87854">
        <ele>326.8</ele>
        <time>2022-05-23 15:44:47</time>
      </trkpt>
      <trkpt lat="41.80527" lon="0.8786">
        <ele>327</ele>
        <time>2022-05-23 15:44:48</time>
      </trkpt>
      <trkpt lat="41.80526" lon="0.87865">
        <ele>327</ele>
        <time>2022-05-23 15:44:49</time>
      </trkpt>
      <trkpt lat="41.80526" lon="0.8787">
        <ele>327.2</ele>
        <time>2022-05-23 15:44:50</time>
      </trkpt>
      <trkpt lat="41.80524" lon="0.87875">
        <ele>327.4</ele>
        <time>2022-05-23 15:44:51</time>
      </trkpt>
      <trkpt lat="41.80524" lon="0.8788">
        <ele>327.4</ele>
        <time>2022-05-23 15:44:52</time>
      </trkpt>
      <trkpt lat="41.80523" lon="0.87885">
        <ele>327.6</ele>
        <time>2022-05-23 15:44:53</time>
      </trkpt>
      <trkpt lat="41.80522" lon="0.8789">
        <ele>327.6</ele>
        <time>2022-05-23 15:44:54</time>
      </trkpt>
      <trkpt lat="41.80522" lon="0.87896">
        <ele>327.6</ele>
        <time>2022-05-23 15:44:55</time>
      </trkpt>
      <trkpt lat="41.80521" lon="0.87902">
        <ele>327.8</ele>
        <time>2022-05-23 15:44:56</time>
      </trkpt>
      <trkpt lat="41.80519" lon="0.87908">
        <ele>327.8</ele>
        <time>2022-05-23 15:44:57</time>
      </trkpt>
      <trkpt lat="41.80518" lon="0.87914">
        <ele>328</ele>
        <time>2022-05-23 15:44:58</time>
      </trkpt>
      <trkpt lat="41.80517" lon="0.8792">
        <ele>328</ele>
        <time>2022-05-23 15:44:59</time>
      </trkpt>
      <trkpt lat="41.80515" lon="0.87927">
        <ele>328</ele>
        <time>2022-05-23 15:45:00</time>
      </trkpt>
      <trkpt lat="41.80513" lon="0.87933">
        <ele>328</ele>
        <time>2022-05-23 15:45:01</time>
      </trkpt>
      <trkpt lat="41.80512" lon="0.87939">
        <ele>328.2</ele>
        <time>2022-05-23 15:45:02</time>
      </trkpt>
      <trkpt lat="41.8051" lon="0.87945">
        <ele>328.2</ele>
        <time>2022-05-23 15:45:03</time>
      </trkpt>
      <trkpt lat="41.8051" lon="0.87952">
        <ele>328.2</ele>
        <time>2022-05-23 15:45:04</time>
      </trkpt>
      <trkpt lat="41.80508" lon="0.87958">
        <ele>328.2</ele>
        <time>2022-05-23 15:45:05</time>
      </trkpt>
      <trkpt lat="41.80508" lon="0.87964">
        <ele>328.2</ele>
        <time>2022-05-23 15:45:06</time>
      </trkpt>
      <trkpt lat="41.80507" lon="0.8797">
        <ele>328.2</ele>
        <time>2022-05-23 15:45:07</time>
      </trkpt>
      <trkpt lat="41.80506" lon="0.87976">
        <ele>328.2</ele>
        <time>2022-05-23 15:45:08</time>
      </trkpt>
      <trkpt lat="41.80505" lon="0.87983">
        <ele>328.2</ele>
        <time>2022-05-23 15:45:09</time>
      </trkpt>
      <trkpt lat="41.80505" lon="0.87989">
        <ele>328.4</ele>
        <time>2022-05-23 15:45:10</time>
      </trkpt>
      <trkpt lat="41.80504" lon="0.87995">
        <ele>328.4</ele>
        <time>2022-05-23 15:45:11</time>
      </trkpt>
      <trkpt lat="41.80504" lon="0.88001">
        <ele>328.6</ele>
        <time>2022-05-23 15:45:12</time>
      </trkpt>
      <trkpt lat="41.80505" lon="0.88006">
        <ele>328.6</ele>
        <time>2022-05-23 15:45:13</time>
      </trkpt>
      <trkpt lat="41.80505" lon="0.88012">
        <ele>328.6</ele>
        <time>2022-05-23 15:45:14</time>
      </trkpt>
      <trkpt lat="41.80505" lon="0.88016">
        <ele>328.6</ele>
        <time>2022-05-23 15:45:15</time>
      </trkpt>
      <trkpt lat="41.80505" lon="0.88021">
        <ele>328.6</ele>
        <time>2022-05-23 15:45:16</time>
      </trkpt>
      <trkpt lat="41.80504" lon="0.88026">
        <ele>328.8</ele>
        <time>2022-05-23 15:45:17</time>
      </trkpt>
      <trkpt lat="41.80504" lon="0.88032">
        <ele>328.8</ele>
        <time>2022-05-23 15:45:18</time>
      </trkpt>
      <trkpt lat="41.80504" lon="0.88037">
        <ele>328.8</ele>
        <time>2022-05-23 15:45:19</time>
      </trkpt>
      <trkpt lat="41.80503" lon="0.88043">
        <ele>328.8</ele>
        <time>2022-05-23 15:45:20</time>
      </trkpt>
      <trkpt lat="41.80503" lon="0.88049">
        <ele>328.8</ele>
        <time>2022-05-23 15:45:21</time>
      </trkpt>
      <trkpt lat="41.80502" lon="0.88055">
        <ele>329</ele>
        <time>2022-05-23 15:45:22</time>
      </trkpt>
      <trkpt lat="41.80501" lon="0.88061">
        <ele>329</ele>
        <time>2022-05-23 15:45:23</time>
      </trkpt>
      <trkpt lat="41.805" lon="0.88068">
        <ele>329</ele>
        <time>2022-05-23 15:45:24</time>
      </trkpt>
      <trkpt lat="41.805" lon="0.88074">
        <ele>329</ele>
        <time>2022-05-23 15:45:25</time>
      </trkpt>
      <trkpt lat="41.80499" lon="0.88081">
        <ele>329</ele>
        <time>2022-05-23 15:45:26</time>
      </trkpt>
      <trkpt lat="41.80498" lon="0.88088">
        <ele>329</ele>
        <time>2022-05-23 15:45:27</time>
      </trkpt>
      <trkpt lat="41.80498" lon="0.88095">
        <ele>329.2</ele>
        <time>2022-05-23 15:45:28</time>
      </trkpt>
      <trkpt lat="41.80497" lon="0.88101">
        <ele>329.2</ele>
        <time>2022-05-23 15:45:29</time>
      </trkpt>
      <trkpt lat="41.80497" lon="0.88108">
        <ele>329.4</ele>
        <time>2022-05-23 15:45:30</time>
      </trkpt>
      <trkpt lat="41.80496" lon="0.88114">
        <ele>329.4</ele>
        <time>2022-05-23 15:45:31</time>
      </trkpt>
      <trkpt lat="41.80496" lon="0.88122">
        <ele>329.6</ele>
        <time>2022-05-23 15:45:32</time>
      </trkpt>
      <trkpt lat="41.80495" lon="0.88128">
        <ele>329.8</ele>
        <time>2022-05-23 15:45:33</time>
      </trkpt>
      <trkpt lat="41.80495" lon="0.88134">
        <ele>329.8</ele>
        <time>2022-05-23 15:45:34</time>
      </trkpt>
      <trkpt lat="41.80494" lon="0.8814">
        <ele>329.8</ele>
        <time>2022-05-23 15:45:35</time>
      </trkpt>
      <trkpt lat="41.80493" lon="0.88146">
        <ele>330</ele>
        <time>2022-05-23 15:45:36</time>
      </trkpt>
      <trkpt lat="41.80493" lon="0.88152">
        <ele>330</ele>
        <time>2022-05-23 15:45:37</time>
      </trkpt>
      <trkpt lat="41.80493" lon="0.88157">
        <ele>330</ele>
        <time>2022-05-23 15:45:38</time>
      </trkpt>
      <trkpt lat="41.80492" lon="0.88163">
        <ele>330.2</ele>
        <time>2022-05-23 15:45:39</time>
      </trkpt>
      <trkpt lat="41.80492" lon="0.88169">
        <ele>330.4</ele>
        <time>2022-05-23 15:45:40</time>
      </trkpt>
      <trkpt lat="41.80492" lon="0.88174">
        <ele>330.4</ele>
        <time>2022-05-23 15:45:41</time>
      </trkpt>
      <trkpt lat="41.80492" lon="0.88179">
        <ele>330.6</ele>
        <time>2022-05-23 15:45:42</time>
      </trkpt>
      <trkpt lat="41.80491" lon="0.88185">
        <ele>330.8</ele>
        <time>2022-05-23 15:45:43</time>
      </trkpt>
      <trkpt lat="41.80491" lon="0.88189">
        <ele>331</ele>
        <time>2022-05-23 15:45:44</time>
      </trkpt>
      <trkpt lat="41.80491" lon="0.88194">
        <ele>331</ele>
        <time>2022-05-23 15:45:45</time>
      </trkpt>
      <trkpt lat="41.80491" lon="0.88198">
        <ele>331.2</ele>
        <time>2022-05-23 15:45:46</time>
      </trkpt>
      <trkpt lat="41.80491" lon="0.88202">
        <ele>331.2</ele>
        <time>2022-05-23 15:45:47</time>
      </trkpt>
      <trkpt lat="41.80491" lon="0.88207">
        <ele>331.4</ele>
        <time>2022-05-23 15:45:48</time>
      </trkpt>
      <trkpt lat="41.8049" lon="0.88211">
        <ele>331.6</ele>
        <time>2022-05-23 15:45:49</time>
      </trkpt>
      <trkpt lat="41.8049" lon="0.88216">
        <ele>331.6</ele>
        <time>2022-05-23 15:45:50</time>
      </trkpt>
      <trkpt lat="41.8049" lon="0.8822">
        <ele>331.8</ele>
        <time>2022-05-23 15:45:51</time>
      </trkpt>
      <trkpt lat="41.80489" lon="0.88225">
        <ele>331.8</ele>
        <time>2022-05-23 15:45:52</time>
      </trkpt>
      <trkpt lat="41.80489" lon="0.8823">
        <ele>332</ele>
        <time>2022-05-23 15:45:53</time>
      </trkpt>
      <trkpt lat="41.80489" lon="0.88234">
        <ele>332.2</ele>
        <time>2022-05-23 15:45:54</time>
      </trkpt>
      <trkpt lat="41.80489" lon="0.88239">
        <ele>332.4</ele>
        <time>2022-05-23 15:45:55</time>
      </trkpt>
      <trkpt lat="41.80488" lon="0.88244">
        <ele>332.6</ele>
        <time>2022-05-23 15:45:56</time>
      </trkpt>
      <trkpt lat="41.80487" lon="0.88248">
        <ele>332.8</ele>
        <time>2022-05-23 15:45:57</time>
      </trkpt>
      <trkpt lat="41.80486" lon="0.88253">
        <ele>333</ele>
        <time>2022-05-23 15:45:58</time>
      </trkpt>
      <trkpt lat="41.80485" lon="0.88257">
        <ele>333</ele>
        <time>2022-05-23 15:45:59</time>
      </trkpt>
      <trkpt lat="41.80484" lon="0.88261">
        <ele>333.2</ele>
        <time>2022-05-23 15:46:00</time>
      </trkpt>
      <trkpt lat="41.80482" lon="0.88265">
        <ele>333.4</ele>
        <time>2022-05-23 15:46:01</time>
      </trkpt>
      <trkpt lat="41.80481" lon="0.88268">
        <ele>333.6</ele>
        <time>2022-05-23 15:46:02</time>
      </trkpt>
      <trkpt lat="41.80481" lon="0.88272">
        <ele>333.8</ele>
        <time>2022-05-23 15:46:03</time>
      </trkpt>
      <trkpt lat="41.8048" lon="0.88276">
        <ele>334</ele>
        <time>2022-05-23 15:46:04</time>
      </trkpt>
      <trkpt lat="41.80479" lon="0.8828">
        <ele>334.2</ele>
        <time>2022-05-23 15:46:05</time>
      </trkpt>
      <trkpt lat="41.80478" lon="0.88284">
        <ele>334.4</ele>
        <time>2022-05-23 15:46:06</time>
      </trkpt>
      <trkpt lat="41.80477" lon="0.88288">
        <ele>334.6</ele>
        <time>2022-05-23 15:46:07</time>
      </trkpt>
      <trkpt lat="41.80476" lon="0.88292">
        <ele>334.8</ele>
        <time>2022-05-23 15:46:08</time>
      </trkpt>
      <trkpt lat="41.80475" lon="0.88296">
        <ele>335</ele>
        <time>2022-05-23 15:46:09</time>
      </trkpt>
      <trkpt lat="41.80474" lon="0.883">
        <ele>335</ele>
        <time>2022-05-23 15:46:10</time>
      </trkpt>
      <trkpt lat="41.80473" lon="0.88304">
        <ele>335.2</ele>
        <time>2022-05-23 15:46:11</time>
      </trkpt>
      <trkpt lat="41.80472" lon="0.88308">
        <ele>335.4</ele>
        <time>2022-05-23 15:46:12</time>
      </trkpt>
      <trkpt lat="41.80471" lon="0.88313">
        <ele>335.4</ele>
        <time>2022-05-23 15:46:13</time>
      </trkpt>
      <trkpt lat="41.80471" lon="0.88316">
        <ele>335.6</ele>
        <time>2022-05-23 15:46:14</time>
      </trkpt>
      <trkpt lat="41.8047" lon="0.88321">
        <ele>335.8</ele>
        <time>2022-05-23 15:46:15</time>
      </trkpt>
      <trkpt lat="41.8047" lon="0.88325">
        <ele>335.8</ele>
        <time>2022-05-23 15:46:16</time>
      </trkpt>
      <trkpt lat="41.8047" lon="0.88329">
        <ele>336</ele>
        <time>2022-05-23 15:46:17</time>
      </trkpt>
      <trkpt lat="41.8047" lon="0.88334">
        <ele>336.2</ele>
        <time>2022-05-23 15:46:18</time>
      </trkpt>
      <trkpt lat="41.8047" lon="0.88338">
        <ele>336.2</ele>
        <time>2022-05-23 15:46:19</time>
      </trkpt>
      <trkpt lat="41.8047" lon="0.88342">
        <ele>336.4</ele>
        <time>2022-05-23 15:46:20</time>
      </trkpt>
      <trkpt lat="41.80469" lon="0.88347">
        <ele>336.4</ele>
        <time>2022-05-23 15:46:21</time>
      </trkpt>
      <trkpt lat="41.80469" lon="0.88351">
        <ele>336.6</ele>
        <time>2022-05-23 15:46:22</time>
      </trkpt>
      <trkpt lat="41.80469" lon="0.88356">
        <ele>336.6</ele>
        <time>2022-05-23 15:46:23</time>
      </trkpt>
      <trkpt lat="41.80469" lon="0.8836">
        <ele>336.8</ele>
        <time>2022-05-23 15:46:24</time>
      </trkpt>
      <trkpt lat="41.80469" lon="0.88365">
        <ele>337</ele>
        <time>2022-05-23 15:46:25</time>
      </trkpt>
      <trkpt lat="41.80468" lon="0.88368">
        <ele>337</ele>
        <time>2022-05-23 15:46:26</time>
      </trkpt>
      <trkpt lat="41.80468" lon="0.88373">
        <ele>337.2</ele>
        <time>2022-05-23 15:46:27</time>
      </trkpt>
      <trkpt lat="41.80467" lon="0.88378">
        <ele>337.4</ele>
        <time>2022-05-23 15:46:28</time>
      </trkpt>
      <trkpt lat="41.80466" lon="0.88382">
        <ele>337.6</ele>
        <time>2022-05-23 15:46:29</time>
      </trkpt>
      <trkpt lat="41.80466" lon="0.88386">
        <ele>337.8</ele>
        <time>2022-05-23 15:46:30</time>
      </trkpt>
      <trkpt lat="41.80465" lon="0.8839">
        <ele>337.8</ele>
        <time>2022-05-23 15:46:31</time>
      </trkpt>
      <trkpt lat="41.80464" lon="0.88394">
        <ele>338</ele>
        <time>2022-05-23 15:46:32</time>
      </trkpt>
      <trkpt lat="41.80463" lon="0.88398">
        <ele>338.2</ele>
        <time>2022-05-23 15:46:33</time>
      </trkpt>
      <trkpt lat="41.80463" lon="0.88402">
        <ele>338.4</ele>
        <time>2022-05-23 15:46:34</time>
      </trkpt>
      <trkpt lat="41.80462" lon="0.88406">
        <ele>338.6</ele>
        <time>2022-05-23 15:46:35</time>
      </trkpt>
      <trkpt lat="41.80461" lon="0.8841">
        <ele>338.8</ele>
        <time>2022-05-23 15:46:36</time>
      </trkpt>
      <trkpt lat="41.80461" lon="0.88414">
        <ele>339</ele>
        <time>2022-05-23 15:46:37</time>
      </trkpt>
      <trkpt lat="41.8046" lon="0.88418">
        <ele>339.2</ele>
        <time>2022-05-23 15:46:38</time>
      </trkpt>
      <trkpt lat="41.8046" lon="0.88421">
        <ele>339.4</ele>
        <time>2022-05-23 15:46:39</time>
      </trkpt>
      <trkpt lat="41.8046" lon="0.88425">
        <ele>339.6</ele>
        <time>2022-05-23 15:46:40</time>
      </trkpt>
      <trkpt lat="41.80459" lon="0.88429">
        <ele>339.8</ele>
        <time>2022-05-23 15:46:41</time>
      </trkpt>
      <trkpt lat="41.80458" lon="0.88433">
        <ele>339.8</ele>
        <time>2022-05-23 15:46:42</time>
      </trkpt>
      <trkpt lat="41.80458" lon="0.88437">
        <ele>340</ele>
        <time>2022-05-23 15:46:43</time>
      </trkpt>
      <trkpt lat="41.80457" lon="0.8844">
        <ele>340.2</ele>
        <time>2022-05-23 15:46:44</time>
      </trkpt>
      <trkpt lat="41.80457" lon="0.88445">
        <ele>340.4</ele>
        <time>2022-05-23 15:46:45</time>
      </trkpt>
      <trkpt lat="41.80456" lon="0.88448">
        <ele>340.6</ele>
        <time>2022-05-23 15:46:46</time>
      </trkpt>
      <trkpt lat="41.80455" lon="0.88452">
        <ele>340.8</ele>
        <time>2022-05-23 15:46:47</time>
      </trkpt>
      <trkpt lat="41.80455" lon="0.88456">
        <ele>340.8</ele>
        <time>2022-05-23 15:46:48</time>
      </trkpt>
      <trkpt lat="41.80454" lon="0.8846">
        <ele>341</ele>
        <time>2022-05-23 15:46:49</time>
      </trkpt>
      <trkpt lat="41.80453" lon="0.88463">
        <ele>341.2</ele>
        <time>2022-05-23 15:46:50</time>
      </trkpt>
      <trkpt lat="41.80453" lon="0.88467">
        <ele>341.4</ele>
        <time>2022-05-23 15:46:51</time>
      </trkpt>
      <trkpt lat="41.80452" lon="0.88471">
        <ele>341.4</ele>
        <time>2022-05-23 15:46:52</time>
      </trkpt>
      <trkpt lat="41.80451" lon="0.88475">
        <ele>341.4</ele>
        <time>2022-05-23 15:46:53</time>
      </trkpt>
      <trkpt lat="41.8045" lon="0.8848">
        <ele>341.6</ele>
        <time>2022-05-23 15:46:54</time>
      </trkpt>
      <trkpt lat="41.80449" lon="0.88484">
        <ele>341.6</ele>
        <time>2022-05-23 15:46:55</time>
      </trkpt>
      <trkpt lat="41.80448" lon="0.88489">
        <ele>341.8</ele>
        <time>2022-05-23 15:46:56</time>
      </trkpt>
      <trkpt lat="41.80447" lon="0.88493">
        <ele>341.8</ele>
        <time>2022-05-23 15:46:57</time>
      </trkpt>
      <trkpt lat="41.80447" lon="0.88498">
        <ele>341.8</ele>
        <time>2022-05-23 15:46:58</time>
      </trkpt>
      <trkpt lat="41.80446" lon="0.88503">
        <ele>342</ele>
        <time>2022-05-23 15:46:59</time>
      </trkpt>
      <trkpt lat="41.80445" lon="0.88508">
        <ele>342</ele>
        <time>2022-05-23 15:47:00</time>
      </trkpt>
      <trkpt lat="41.80444" lon="0.88514">
        <ele>342</ele>
        <time>2022-05-23 15:47:01</time>
      </trkpt>
      <trkpt lat="41.80442" lon="0.8852">
        <ele>342</ele>
        <time>2022-05-23 15:47:02</time>
      </trkpt>
      <trkpt lat="41.80442" lon="0.88525">
        <ele>342</ele>
        <time>2022-05-23 15:47:03</time>
      </trkpt>
      <trkpt lat="41.80442" lon="0.88531">
        <ele>342</ele>
        <time>2022-05-23 15:47:04</time>
      </trkpt>
      <trkpt lat="41.80442" lon="0.88537">
        <ele>342</ele>
        <time>2022-05-23 15:47:05</time>
      </trkpt>
      <trkpt lat="41.80442" lon="0.88543">
        <ele>341.8</ele>
        <time>2022-05-23 15:47:06</time>
      </trkpt>
      <trkpt lat="41.80442" lon="0.8855">
        <ele>341.6</ele>
        <time>2022-05-23 15:47:07</time>
      </trkpt>
      <trkpt lat="41.80442" lon="0.88557">
        <ele>341.4</ele>
        <time>2022-05-23 15:47:08</time>
      </trkpt>
      <trkpt lat="41.80443" lon="0.88563">
        <ele>341.4</ele>
        <time>2022-05-23 15:47:09</time>
      </trkpt>
      <trkpt lat="41.80444" lon="0.88571">
        <ele>341.2</ele>
        <time>2022-05-23 15:47:10</time>
      </trkpt>
      <trkpt lat="41.80444" lon="0.8858">
        <ele>341</ele>
        <time>2022-05-23 15:47:11</time>
      </trkpt>
      <trkpt lat="41.80443" lon="0.88588">
        <ele>341</ele>
        <time>2022-05-23 15:47:12</time>
      </trkpt>
      <trkpt lat="41.80442" lon="0.88596">
        <ele>340.8</ele>
        <time>2022-05-23 15:47:13</time>
      </trkpt>
      <trkpt lat="41.8044" lon="0.88603">
        <ele>340.8</ele>
        <time>2022-05-23 15:47:14</time>
      </trkpt>
      <trkpt lat="41.80438" lon="0.88611">
        <ele>340.8</ele>
        <time>2022-05-23 15:47:15</time>
      </trkpt>
      <trkpt lat="41.80436" lon="0.88618">
        <ele>340.8</ele>
        <time>2022-05-23 15:47:16</time>
      </trkpt>
      <trkpt lat="41.80434" lon="0.88626">
        <ele>341</ele>
        <time>2022-05-23 15:47:17</time>
      </trkpt>
      <trkpt lat="41.80432" lon="0.88633">
        <ele>341</ele>
        <time>2022-05-23 15:47:18</time>
      </trkpt>
      <trkpt lat="41.8043" lon="0.8864">
        <ele>341</ele>
        <time>2022-05-23 15:47:19</time>
      </trkpt>
      <trkpt lat="41.80428" lon="0.88648">
        <ele>341</ele>
        <time>2022-05-23 15:47:20</time>
      </trkpt>
      <trkpt lat="41.80426" lon="0.88656">
        <ele>341</ele>
        <time>2022-05-23 15:47:21</time>
      </trkpt>
      <trkpt lat="41.80424" lon="0.88664">
        <ele>341</ele>
        <time>2022-05-23 15:47:22</time>
      </trkpt>
      <trkpt lat="41.80422" lon="0.88672">
        <ele>341</ele>
        <time>2022-05-23 15:47:23</time>
      </trkpt>
      <trkpt lat="41.80421" lon="0.8868">
        <ele>341</ele>
        <time>2022-05-23 15:47:24</time>
      </trkpt>
      <trkpt lat="41.80419" lon="0.88688">
        <ele>341</ele>
        <time>2022-05-23 15:47:25</time>
      </trkpt>
      <trkpt lat="41.80417" lon="0.88695">
        <ele>341</ele>
        <time>2022-05-23 15:47:26</time>
      </trkpt>
      <trkpt lat="41.80415" lon="0.88704">
        <ele>341</ele>
        <time>2022-05-23 15:47:27</time>
      </trkpt>
      <trkpt lat="41.80414" lon="0.88712">
        <ele>341</ele>
        <time>2022-05-23 15:47:28</time>
      </trkpt>
      <trkpt lat="41.80412" lon="0.8872">
        <ele>341</ele>
        <time>2022-05-23 15:47:29</time>
      </trkpt>
      <trkpt lat="41.80411" lon="0.88728">
        <ele>341</ele>
        <time>2022-05-23 15:47:30</time>
      </trkpt>
      <trkpt lat="41.80409" lon="0.88736">
        <ele>341</ele>
        <time>2022-05-23 15:47:31</time>
      </trkpt>
      <trkpt lat="41.80408" lon="0.88744">
        <ele>341</ele>
        <time>2022-05-23 15:47:32</time>
      </trkpt>
      <trkpt lat="41.80406" lon="0.88752">
        <ele>341</ele>
        <time>2022-05-23 15:47:33</time>
      </trkpt>
      <trkpt lat="41.80404" lon="0.8876">
        <ele>341</ele>
        <time>2022-05-23 15:47:34</time>
      </trkpt>
      <trkpt lat="41.80402" lon="0.88767">
        <ele>341</ele>
        <time>2022-05-23 15:47:35</time>
      </trkpt>
      <trkpt lat="41.80401" lon="0.88775">
        <ele>341</ele>
        <time>2022-05-23 15:47:36</time>
      </trkpt>
      <trkpt lat="41.80399" lon="0.88783">
        <ele>341</ele>
        <time>2022-05-23 15:47:37</time>
      </trkpt>
      <trkpt lat="41.80398" lon="0.8879">
        <ele>341</ele>
        <time>2022-05-23 15:47:38</time>
      </trkpt>
      <trkpt lat="41.80396" lon="0.88798">
        <ele>341</ele>
        <time>2022-05-23 15:47:39</time>
      </trkpt>
      <trkpt lat="41.80395" lon="0.88805">
        <ele>341</ele>
        <time>2022-05-23 15:47:40</time>
      </trkpt>
      <trkpt lat="41.80393" lon="0.88813">
        <ele>341</ele>
        <time>2022-05-23 15:47:41</time>
      </trkpt>
      <trkpt lat="41.80391" lon="0.8882">
        <ele>341</ele>
        <time>2022-05-23 15:47:42</time>
      </trkpt>
      <trkpt lat="41.80389" lon="0.88829">
        <ele>341.2</ele>
        <time>2022-05-23 15:47:43</time>
      </trkpt>
      <trkpt lat="41.80388" lon="0.88837">
        <ele>341.2</ele>
        <time>2022-05-23 15:47:44</time>
      </trkpt>
      <trkpt lat="41.80386" lon="0.88845">
        <ele>341.2</ele>
        <time>2022-05-23 15:47:45</time>
      </trkpt>
      <trkpt lat="41.80385" lon="0.88853">
        <ele>341.2</ele>
        <time>2022-05-23 15:47:46</time>
      </trkpt>
      <trkpt lat="41.80383" lon="0.88861">
        <ele>341.2</ele>
        <time>2022-05-23 15:47:47</time>
      </trkpt>
      <trkpt lat="41.80382" lon="0.88869">
        <ele>341.2</ele>
        <time>2022-05-23 15:47:48</time>
      </trkpt>
      <trkpt lat="41.80381" lon="0.88877">
        <ele>341.4</ele>
        <time>2022-05-23 15:47:49</time>
      </trkpt>
      <trkpt lat="41.80378" lon="0.88884">
        <ele>341.4</ele>
        <time>2022-05-23 15:47:50</time>
      </trkpt>
      <trkpt lat="41.80377" lon="0.88892">
        <ele>341.4</ele>
        <time>2022-05-23 15:47:51</time>
      </trkpt>
      <trkpt lat="41.80375" lon="0.889">
        <ele>341.4</ele>
        <time>2022-05-23 15:47:52</time>
      </trkpt>
      <trkpt lat="41.80373" lon="0.88908">
        <ele>341.4</ele>
        <time>2022-05-23 15:47:53</time>
      </trkpt>
      <trkpt lat="41.80372" lon="0.88917">
        <ele>341.4</ele>
        <time>2022-05-23 15:47:54</time>
      </trkpt>
      <trkpt lat="41.8037" lon="0.88925">
        <ele>341.4</ele>
        <time>2022-05-23 15:47:55</time>
      </trkpt>
      <trkpt lat="41.80368" lon="0.88933">
        <ele>341.4</ele>
        <time>2022-05-23 15:47:56</time>
      </trkpt>
      <trkpt lat="41.80367" lon="0.88941">
        <ele>341.4</ele>
        <time>2022-05-23 15:47:57</time>
      </trkpt>
      <trkpt lat="41.80365" lon="0.88948">
        <ele>341.4</ele>
        <time>2022-05-23 15:47:58</time>
      </trkpt>
      <trkpt lat="41.80363" lon="0.88957">
        <ele>341.4</ele>
        <time>2022-05-23 15:47:59</time>
      </trkpt>
      <trkpt lat="41.80362" lon="0.88964">
        <ele>341.4</ele>
        <time>2022-05-23 15:48:00</time>
      </trkpt>
      <trkpt lat="41.8036" lon="0.88972">
        <ele>341.4</ele>
        <time>2022-05-23 15:48:01</time>
      </trkpt>
      <trkpt lat="41.80359" lon="0.8898">
        <ele>341.4</ele>
        <time>2022-05-23 15:48:02</time>
      </trkpt>
      <trkpt lat="41.80357" lon="0.88988">
        <ele>341.4</ele>
        <time>2022-05-23 15:48:03</time>
      </trkpt>
      <trkpt lat="41.80356" lon="0.88995">
        <ele>341.6</ele>
        <time>2022-05-23 15:48:04</time>
      </trkpt>
      <trkpt lat="41.80355" lon="0.89004">
        <ele>341.6</ele>
        <time>2022-05-23 15:48:05</time>
      </trkpt>
      <trkpt lat="41.80353" lon="0.89011">
        <ele>341.6</ele>
        <time>2022-05-23 15:48:06</time>
      </trkpt>
      <trkpt lat="41.80351" lon="0.8902">
        <ele>341.6</ele>
        <time>2022-05-23 15:48:07</time>
      </trkpt>
      <trkpt lat="41.80349" lon="0.89027">
        <ele>341.6</ele>
        <time>2022-05-23 15:48:08</time>
      </trkpt>
      <trkpt lat="41.80348" lon="0.89035">
        <ele>341.6</ele>
        <time>2022-05-23 15:48:09</time>
      </trkpt>
      <trkpt lat="41.80346" lon="0.89041">
        <ele>341.6</ele>
        <time>2022-05-23 15:48:10</time>
      </trkpt>
      <trkpt lat="41.80345" lon="0.89049">
        <ele>341.4</ele>
        <time>2022-05-23 15:48:11</time>
      </trkpt>
      <trkpt lat="41.80343" lon="0.89057">
        <ele>341.4</ele>
        <time>2022-05-23 15:48:12</time>
      </trkpt>
      <trkpt lat="41.80342" lon="0.89063">
        <ele>341.4</ele>
        <time>2022-05-23 15:48:13</time>
      </trkpt>
      <trkpt lat="41.8034" lon="0.89069">
        <ele>341.4</ele>
        <time>2022-05-23 15:48:14</time>
      </trkpt>
      <trkpt lat="41.80339" lon="0.89079">
        <ele>341.6</ele>
        <time>2022-05-23 15:48:15</time>
      </trkpt>
      <trkpt lat="41.80338" lon="0.89084">
        <ele>341.6</ele>
        <time>2022-05-23 15:48:16</time>
      </trkpt>
      <trkpt lat="41.80337" lon="0.89091">
        <ele>341.6</ele>
        <time>2022-05-23 15:48:17</time>
      </trkpt>
      <trkpt lat="41.80335" lon="0.89098">
        <ele>341.6</ele>
        <time>2022-05-23 15:48:18</time>
      </trkpt>
      <trkpt lat="41.80333" lon="0.89106">
        <ele>341.6</ele>
        <time>2022-05-23 15:48:19</time>
      </trkpt>
      <trkpt lat="41.80332" lon="0.89113">
        <ele>341.6</ele>
        <time>2022-05-23 15:48:20</time>
      </trkpt>
      <trkpt lat="41.80331" lon="0.89121">
        <ele>341.6</ele>
        <time>2022-05-23 15:48:21</time>
      </trkpt>
      <trkpt lat="41.8033" lon="0.89127">
        <ele>341.6</ele>
        <time>2022-05-23 15:48:22</time>
      </trkpt>
      <trkpt lat="41.80328" lon="0.89134">
        <ele>341.6</ele>
        <time>2022-05-23 15:48:23</time>
      </trkpt>
      <trkpt lat="41.80327" lon="0.89139">
        <ele>341.6</ele>
        <time>2022-05-23 15:48:24</time>
      </trkpt>
      <trkpt lat="41.80325" lon="0.89149">
        <ele>341.6</ele>
        <time>2022-05-23 15:48:25</time>
      </trkpt>
      <trkpt lat="41.80324" lon="0.89157">
        <ele>341.8</ele>
        <time>2022-05-23 15:48:26</time>
      </trkpt>
      <trkpt lat="41.80323" lon="0.89165">
        <ele>341.8</ele>
        <time>2022-05-23 15:48:27</time>
      </trkpt>
      <trkpt lat="41.80323" lon="0.89172">
        <ele>341.8</ele>
        <time>2022-05-23 15:48:28</time>
      </trkpt>
      <trkpt lat="41.80322" lon="0.8918">
        <ele>341.8</ele>
        <time>2022-05-23 15:48:29</time>
      </trkpt>
      <trkpt lat="41.80321" lon="0.89187">
        <ele>341.8</ele>
        <time>2022-05-23 15:48:30</time>
      </trkpt>
      <trkpt lat="41.80321" lon="0.89195">
        <ele>342</ele>
        <time>2022-05-23 15:48:31</time>
      </trkpt>
      <trkpt lat="41.8032" lon="0.89202">
        <ele>342</ele>
        <time>2022-05-23 15:48:32</time>
      </trkpt>
      <trkpt lat="41.8032" lon="0.8921">
        <ele>342</ele>
        <time>2022-05-23 15:48:33</time>
      </trkpt>
      <trkpt lat="41.8032" lon="0.89218">
        <ele>342.2</ele>
        <time>2022-05-23 15:48:34</time>
      </trkpt>
      <trkpt lat="41.8032" lon="0.89226">
        <ele>342.2</ele>
        <time>2022-05-23 15:48:35</time>
      </trkpt>
      <trkpt lat="41.8032" lon="0.89233">
        <ele>342.2</ele>
        <time>2022-05-23 15:48:36</time>
      </trkpt>
      <trkpt lat="41.80321" lon="0.89241">
        <ele>342.2</ele>
        <time>2022-05-23 15:48:37</time>
      </trkpt>
      <trkpt lat="41.80321" lon="0.89248">
        <ele>342.2</ele>
        <time>2022-05-23 15:48:38</time>
      </trkpt>
      <trkpt lat="41.80322" lon="0.89256">
        <ele>342.2</ele>
        <time>2022-05-23 15:48:39</time>
      </trkpt>
      <trkpt lat="41.80323" lon="0.89264">
        <ele>342.2</ele>
        <time>2022-05-23 15:48:40</time>
      </trkpt>
      <trkpt lat="41.80323" lon="0.89272">
        <ele>342.2</ele>
        <time>2022-05-23 15:48:41</time>
      </trkpt>
      <trkpt lat="41.80324" lon="0.89279">
        <ele>342.2</ele>
        <time>2022-05-23 15:48:42</time>
      </trkpt>
      <trkpt lat="41.80325" lon="0.89287">
        <ele>342.2</ele>
        <time>2022-05-23 15:48:43</time>
      </trkpt>
      <trkpt lat="41.80326" lon="0.89295">
        <ele>342.2</ele>
        <time>2022-05-23 15:48:44</time>
      </trkpt>
      <trkpt lat="41.80327" lon="0.89303">
        <ele>342.2</ele>
        <time>2022-05-23 15:48:45</time>
      </trkpt>
      <trkpt lat="41.80328" lon="0.8931">
        <ele>342.2</ele>
        <time>2022-05-23 15:48:46</time>
      </trkpt>
      <trkpt lat="41.80329" lon="0.89318">
        <ele>342.2</ele>
        <time>2022-05-23 15:48:47</time>
      </trkpt>
      <trkpt lat="41.8033" lon="0.89327">
        <ele>342.2</ele>
        <time>2022-05-23 15:48:48</time>
      </trkpt>
      <trkpt lat="41.80331" lon="0.89334">
        <ele>342.4</ele>
        <time>2022-05-23 15:48:49</time>
      </trkpt>
      <trkpt lat="41.80331" lon="0.89342">
        <ele>342.4</ele>
        <time>2022-05-23 15:48:50</time>
      </trkpt>
      <trkpt lat="41.80332" lon="0.89351">
        <ele>342.4</ele>
        <time>2022-05-23 15:48:51</time>
      </trkpt>
      <trkpt lat="41.80333" lon="0.89359">
        <ele>342.4</ele>
        <time>2022-05-23 15:48:52</time>
      </trkpt>
      <trkpt lat="41.80334" lon="0.89368">
        <ele>342.4</ele>
        <time>2022-05-23 15:48:53</time>
      </trkpt>
      <trkpt lat="41.80335" lon="0.89376">
        <ele>342.4</ele>
        <time>2022-05-23 15:48:54</time>
      </trkpt>
      <trkpt lat="41.80336" lon="0.89385">
        <ele>342.2</ele>
        <time>2022-05-23 15:48:55</time>
      </trkpt>
      <trkpt lat="41.80337" lon="0.89392">
        <ele>342.2</ele>
        <time>2022-05-23 15:48:56</time>
      </trkpt>
      <trkpt lat="41.80338" lon="0.89401">
        <ele>342.2</ele>
        <time>2022-05-23 15:48:57</time>
      </trkpt>
      <trkpt lat="41.80339" lon="0.89408">
        <ele>342.4</ele>
        <time>2022-05-23 15:48:58</time>
      </trkpt>
      <trkpt lat="41.8034" lon="0.89418">
        <ele>342.4</ele>
        <time>2022-05-23 15:48:59</time>
      </trkpt>
      <trkpt lat="41.80341" lon="0.89425">
        <ele>342.4</ele>
        <time>2022-05-23 15:49:00</time>
      </trkpt>
      <trkpt lat="41.80342" lon="0.89434">
        <ele>342.4</ele>
        <time>2022-05-23 15:49:01</time>
      </trkpt>
      <trkpt lat="41.80343" lon="0.89442">
        <ele>342.4</ele>
        <time>2022-05-23 15:49:02</time>
      </trkpt>
      <trkpt lat="41.80344" lon="0.8945">
        <ele>342.4</ele>
        <time>2022-05-23 15:49:03</time>
      </trkpt>
      <trkpt lat="41.80345" lon="0.89459">
        <ele>342.6</ele>
        <time>2022-05-23 15:49:04</time>
      </trkpt>
      <trkpt lat="41.80346" lon="0.89467">
        <ele>342.6</ele>
        <time>2022-05-23 15:49:05</time>
      </trkpt>
      <trkpt lat="41.80347" lon="0.89475">
        <ele>342.6</ele>
        <time>2022-05-23 15:49:06</time>
      </trkpt>
      <trkpt lat="41.80347" lon="0.89483">
        <ele>342.6</ele>
        <time>2022-05-23 15:49:07</time>
      </trkpt>
      <trkpt lat="41.80349" lon="0.89491">
        <ele>342.6</ele>
        <time>2022-05-23 15:49:08</time>
      </trkpt>
      <trkpt lat="41.80349" lon="0.89499">
        <ele>342.8</ele>
        <time>2022-05-23 15:49:09</time>
      </trkpt>
      <trkpt lat="41.8035" lon="0.89507">
        <ele>342.8</ele>
        <time>2022-05-23 15:49:10</time>
      </trkpt>
      <trkpt lat="41.8035" lon="0.89515">
        <ele>342.8</ele>
        <time>2022-05-23 15:49:11</time>
      </trkpt>
      <trkpt lat="41.80351" lon="0.89523">
        <ele>342.8</ele>
        <time>2022-05-23 15:49:12</time>
      </trkpt>
      <trkpt lat="41.80352" lon="0.89531">
        <ele>342.8</ele>
        <time>2022-05-23 15:49:13</time>
      </trkpt>
      <trkpt lat="41.80353" lon="0.89539">
        <ele>342.8</ele>
        <time>2022-05-23 15:49:14</time>
      </trkpt>
      <trkpt lat="41.80354" lon="0.89547">
        <ele>343</ele>
        <time>2022-05-23 15:49:15</time>
      </trkpt>
      <trkpt lat="41.80355" lon="0.89556">
        <ele>343</ele>
        <time>2022-05-23 15:49:16</time>
      </trkpt>
      <trkpt lat="41.80356" lon="0.89564">
        <ele>343</ele>
        <time>2022-05-23 15:49:17</time>
      </trkpt>
      <trkpt lat="41.80357" lon="0.89572">
        <ele>343</ele>
        <time>2022-05-23 15:49:18</time>
      </trkpt>
      <trkpt lat="41.80358" lon="0.8958">
        <ele>343</ele>
        <time>2022-05-23 15:49:19</time>
      </trkpt>
      <trkpt lat="41.80359" lon="0.89589">
        <ele>343</ele>
        <time>2022-05-23 15:49:20</time>
      </trkpt>
      <trkpt lat="41.8036" lon="0.89598">
        <ele>343.2</ele>
        <time>2022-05-23 15:49:21</time>
      </trkpt>
      <trkpt lat="41.80361" lon="0.89606">
        <ele>343.2</ele>
        <time>2022-05-23 15:49:22</time>
      </trkpt>
      <trkpt lat="41.80362" lon="0.89615">
        <ele>343.2</ele>
        <time>2022-05-23 15:49:23</time>
      </trkpt>
      <trkpt lat="41.80362" lon="0.89623">
        <ele>343.2</ele>
        <time>2022-05-23 15:49:24</time>
      </trkpt>
      <trkpt lat="41.80363" lon="0.89632">
        <ele>343.2</ele>
        <time>2022-05-23 15:49:25</time>
      </trkpt>
      <trkpt lat="41.80364" lon="0.89641">
        <ele>343.4</ele>
        <time>2022-05-23 15:49:26</time>
      </trkpt>
      <trkpt lat="41.80365" lon="0.8965">
        <ele>343.4</ele>
        <time>2022-05-23 15:49:27</time>
      </trkpt>
      <trkpt lat="41.80366" lon="0.89658">
        <ele>343.4</ele>
        <time>2022-05-23 15:49:28</time>
      </trkpt>
      <trkpt lat="41.80367" lon="0.89667">
        <ele>343.6</ele>
        <time>2022-05-23 15:49:29</time>
      </trkpt>
      <trkpt lat="41.80368" lon="0.89675">
        <ele>343.6</ele>
        <time>2022-05-23 15:49:30</time>
      </trkpt>
      <trkpt lat="41.80369" lon="0.89683">
        <ele>343.6</ele>
        <time>2022-05-23 15:49:31</time>
      </trkpt>
      <trkpt lat="41.8037" lon="0.89691">
        <ele>343.8</ele>
        <time>2022-05-23 15:49:32</time>
      </trkpt>
      <trkpt lat="41.8037" lon="0.897">
        <ele>343.8</ele>
        <time>2022-05-23 15:49:33</time>
      </trkpt>
      <trkpt lat="41.80371" lon="0.89708">
        <ele>343.8</ele>
        <time>2022-05-23 15:49:34</time>
      </trkpt>
      <trkpt lat="41.80372" lon="0.89717">
        <ele>344</ele>
        <time>2022-05-23 15:49:35</time>
      </trkpt>
      <trkpt lat="41.80373" lon="0.89725">
        <ele>344</ele>
        <time>2022-05-23 15:49:36</time>
      </trkpt>
      <trkpt lat="41.80374" lon="0.89733">
        <ele>344.2</ele>
        <time>2022-05-23 15:49:37</time>
      </trkpt>
      <trkpt lat="41.80374" lon="0.89741">
        <ele>344.2</ele>
        <time>2022-05-23 15:49:38</time>
      </trkpt>
      <trkpt lat="41.80375" lon="0.89749">
        <ele>344.4</ele>
        <time>2022-05-23 15:49:39</time>
      </trkpt>
      <trkpt lat="41.80376" lon="0.89756">
        <ele>344.6</ele>
        <time>2022-05-23 15:49:40</time>
      </trkpt>
      <trkpt lat="41.80376" lon="0.89765">
        <ele>344.6</ele>
        <time>2022-05-23 15:49:41</time>
      </trkpt>
      <trkpt lat="41.80377" lon="0.89775">
        <ele>344.4</ele>
        <time>2022-05-23 15:49:42</time>
      </trkpt>
      <trkpt lat="41.80378" lon="0.89784">
        <ele>344.4</ele>
        <time>2022-05-23 15:49:43</time>
      </trkpt>
      <trkpt lat="41.80378" lon="0.89793">
        <ele>344.4</ele>
        <time>2022-05-23 15:49:44</time>
      </trkpt>
      <trkpt lat="41.80379" lon="0.89802">
        <ele>344.2</ele>
        <time>2022-05-23 15:49:45</time>
      </trkpt>
      <trkpt lat="41.80379" lon="0.89811">
        <ele>344.2</ele>
        <time>2022-05-23 15:49:46</time>
      </trkpt>
      <trkpt lat="41.80379" lon="0.89821">
        <ele>344.2</ele>
        <time>2022-05-23 15:49:47</time>
      </trkpt>
      <trkpt lat="41.80379" lon="0.89829">
        <ele>344.2</ele>
        <time>2022-05-23 15:49:48</time>
      </trkpt>
      <trkpt lat="41.80378" lon="0.89839">
        <ele>344.2</ele>
        <time>2022-05-23 15:49:49</time>
      </trkpt>
      <trkpt lat="41.80378" lon="0.89847">
        <ele>344.2</ele>
        <time>2022-05-23 15:49:50</time>
      </trkpt>
      <trkpt lat="41.80378" lon="0.89855">
        <ele>344.2</ele>
        <time>2022-05-23 15:49:51</time>
      </trkpt>
      <trkpt lat="41.80378" lon="0.89864">
        <ele>344.2</ele>
        <time>2022-05-23 15:49:52</time>
      </trkpt>
      <trkpt lat="41.80378" lon="0.89872">
        <ele>344.2</ele>
        <time>2022-05-23 15:49:53</time>
      </trkpt>
      <trkpt lat="41.80378" lon="0.8988">
        <ele>344.2</ele>
        <time>2022-05-23 15:49:54</time>
      </trkpt>
      <trkpt lat="41.80379" lon="0.89888">
        <ele>344.2</ele>
        <time>2022-05-23 15:49:55</time>
      </trkpt>
      <trkpt lat="41.80379" lon="0.89896">
        <ele>344.4</ele>
        <time>2022-05-23 15:49:56</time>
      </trkpt>
      <trkpt lat="41.80378" lon="0.89904">
        <ele>344.4</ele>
        <time>2022-05-23 15:49:57</time>
      </trkpt>
      <trkpt lat="41.80378" lon="0.89912">
        <ele>344.6</ele>
        <time>2022-05-23 15:49:58</time>
      </trkpt>
      <trkpt lat="41.80378" lon="0.89921">
        <ele>344.6</ele>
        <time>2022-05-23 15:49:59</time>
      </trkpt>
      <trkpt lat="41.80378" lon="0.89928">
        <ele>344.8</ele>
        <time>2022-05-23 15:50:00</time>
      </trkpt>
      <trkpt lat="41.80377" lon="0.89937">
        <ele>344.8</ele>
        <time>2022-05-23 15:50:01</time>
      </trkpt>
      <trkpt lat="41.80377" lon="0.89945">
        <ele>345</ele>
        <time>2022-05-23 15:50:02</time>
      </trkpt>
      <trkpt lat="41.80376" lon="0.89954">
        <ele>345.2</ele>
        <time>2022-05-23 15:50:03</time>
      </trkpt>
      <trkpt lat="41.80376" lon="0.89962">
        <ele>345.2</ele>
        <time>2022-05-23 15:50:04</time>
      </trkpt>
      <trkpt lat="41.80376" lon="0.89971">
        <ele>345.4</ele>
        <time>2022-05-23 15:50:05</time>
      </trkpt>
      <trkpt lat="41.80375" lon="0.89979">
        <ele>345.4</ele>
        <time>2022-05-23 15:50:06</time>
      </trkpt>
      <trkpt lat="41.80375" lon="0.89987">
        <ele>345.6</ele>
        <time>2022-05-23 15:50:07</time>
      </trkpt>
      <trkpt lat="41.80374" lon="0.89995">
        <ele>345.8</ele>
        <time>2022-05-23 15:50:08</time>
      </trkpt>
      <trkpt lat="41.80373" lon="0.90003">
        <ele>345.8</ele>
        <time>2022-05-23 15:50:09</time>
      </trkpt>
      <trkpt lat="41.80372" lon="0.90011">
        <ele>346</ele>
        <time>2022-05-23 15:50:10</time>
      </trkpt>
      <trkpt lat="41.80371" lon="0.90021">
        <ele>346</ele>
        <time>2022-05-23 15:50:11</time>
      </trkpt>
      <trkpt lat="41.8037" lon="0.90029">
        <ele>346.2</ele>
        <time>2022-05-23 15:50:12</time>
      </trkpt>
      <trkpt lat="41.80369" lon="0.90039">
        <ele>346</ele>
        <time>2022-05-23 15:50:13</time>
      </trkpt>
      <trkpt lat="41.80368" lon="0.90047">
        <ele>346</ele>
        <time>2022-05-23 15:50:14</time>
      </trkpt>
      <trkpt lat="41.80367" lon="0.90057">
        <ele>346</ele>
        <time>2022-05-23 15:50:15</time>
      </trkpt>
      <trkpt lat="41.80365" lon="0.90066">
        <ele>346</ele>
        <time>2022-05-23 15:50:16</time>
      </trkpt>
      <trkpt lat="41.80364" lon="0.90076">
        <ele>346</ele>
        <time>2022-05-23 15:50:17</time>
      </trkpt>
      <trkpt lat="41.80363" lon="0.90085">
        <ele>346</ele>
        <time>2022-05-23 15:50:18</time>
      </trkpt>
      <trkpt lat="41.80362" lon="0.90095">
        <ele>346.2</ele>
        <time>2022-05-23 15:50:19</time>
      </trkpt>
      <trkpt lat="41.8036" lon="0.90104">
        <ele>346.2</ele>
        <time>2022-05-23 15:50:20</time>
      </trkpt>
      <trkpt lat="41.80359" lon="0.90114">
        <ele>346.2</ele>
        <time>2022-05-23 15:50:21</time>
      </trkpt>
      <trkpt lat="41.80357" lon="0.90123">
        <ele>346.4</ele>
        <time>2022-05-23 15:50:22</time>
      </trkpt>
      <trkpt lat="41.80355" lon="0.90132">
        <ele>346.4</ele>
        <time>2022-05-23 15:50:23</time>
      </trkpt>
      <trkpt lat="41.80354" lon="0.90141">
        <ele>346.6</ele>
        <time>2022-05-23 15:50:24</time>
      </trkpt>
      <trkpt lat="41.80352" lon="0.9015">
        <ele>346.6</ele>
        <time>2022-05-23 15:50:25</time>
      </trkpt>
      <trkpt lat="41.8035" lon="0.90158">
        <ele>346.8</ele>
        <time>2022-05-23 15:50:26</time>
      </trkpt>
      <trkpt lat="41.80349" lon="0.90167">
        <ele>347</ele>
        <time>2022-05-23 15:50:27</time>
      </trkpt>
      <trkpt lat="41.80347" lon="0.90176">
        <ele>347</ele>
        <time>2022-05-23 15:50:28</time>
      </trkpt>
      <trkpt lat="41.80345" lon="0.90185">
        <ele>347.2</ele>
        <time>2022-05-23 15:50:29</time>
      </trkpt>
      <trkpt lat="41.80343" lon="0.90192">
        <ele>347.2</ele>
        <time>2022-05-23 15:50:30</time>
      </trkpt>
      <trkpt lat="41.80341" lon="0.90201">
        <ele>347.2</ele>
        <time>2022-05-23 15:50:31</time>
      </trkpt>
      <trkpt lat="41.8034" lon="0.90208">
        <ele>347.4</ele>
        <time>2022-05-23 15:50:32</time>
      </trkpt>
      <trkpt lat="41.80338" lon="0.90216">
        <ele>347.4</ele>
        <time>2022-05-23 15:50:33</time>
      </trkpt>
      <trkpt lat="41.80336" lon="0.90224">
        <ele>347.6</ele>
        <time>2022-05-23 15:50:34</time>
      </trkpt>
      <trkpt lat="41.80334" lon="0.90232">
        <ele>347.6</ele>
        <time>2022-05-23 15:50:35</time>
      </trkpt>
      <trkpt lat="41.80333" lon="0.90239">
        <ele>347.8</ele>
        <time>2022-05-23 15:50:36</time>
      </trkpt>
      <trkpt lat="41.80331" lon="0.90248">
        <ele>347.8</ele>
        <time>2022-05-23 15:50:37</time>
      </trkpt>
      <trkpt lat="41.80329" lon="0.90255">
        <ele>348</ele>
        <time>2022-05-23 15:50:38</time>
      </trkpt>
      <trkpt lat="41.80328" lon="0.90263">
        <ele>348</ele>
        <time>2022-05-23 15:50:39</time>
      </trkpt>
      <trkpt lat="41.80326" lon="0.9027">
        <ele>348</ele>
        <time>2022-05-23 15:50:40</time>
      </trkpt>
      <trkpt lat="41.80324" lon="0.90278">
        <ele>348.2</ele>
        <time>2022-05-23 15:50:41</time>
      </trkpt>
      <trkpt lat="41.80322" lon="0.90285">
        <ele>348.2</ele>
        <time>2022-05-23 15:50:42</time>
      </trkpt>
      <trkpt lat="41.8032" lon="0.90293">
        <ele>348.4</ele>
        <time>2022-05-23 15:50:43</time>
      </trkpt>
      <trkpt lat="41.80319" lon="0.903">
        <ele>348.4</ele>
        <time>2022-05-23 15:50:44</time>
      </trkpt>
      <trkpt lat="41.80318" lon="0.90304">
        <ele>348.6</ele>
        <time>2022-05-23 15:50:45</time>
      </trkpt>
      <trkpt lat="41.80317" lon="0.90307">
        <ele>348.6</ele>
        <time>2022-05-23 15:50:46</time>
      </trkpt>
      <trkpt lat="41.80313" lon="0.90323">
        <ele>348.8</ele>
        <time>2022-05-23 15:50:47</time>
      </trkpt>
      <trkpt lat="41.80312" lon="0.9033">
        <ele>348.8</ele>
        <time>2022-05-23 15:50:48</time>
      </trkpt>
      <trkpt lat="41.8031" lon="0.90338">
        <ele>349</ele>
        <time>2022-05-23 15:50:49</time>
      </trkpt>
      <trkpt lat="41.80308" lon="0.90345">
        <ele>349.2</ele>
        <time>2022-05-23 15:50:50</time>
      </trkpt>
      <trkpt lat="41.80307" lon="0.90353">
        <ele>349.4</ele>
        <time>2022-05-23 15:50:51</time>
      </trkpt>
      <trkpt lat="41.80305" lon="0.9036">
        <ele>349.4</ele>
        <time>2022-05-23 15:50:52</time>
      </trkpt>
      <trkpt lat="41.80304" lon="0.90368">
        <ele>349.4</ele>
        <time>2022-05-23 15:50:53</time>
      </trkpt>
      <trkpt lat="41.80302" lon="0.90375">
        <ele>349.4</ele>
        <time>2022-05-23 15:50:54</time>
      </trkpt>
      <trkpt lat="41.803" lon="0.90383">
        <ele>349.4</ele>
        <time>2022-05-23 15:50:55</time>
      </trkpt>
      <trkpt lat="41.80299" lon="0.9039">
        <ele>349.4</ele>
        <time>2022-05-23 15:50:56</time>
      </trkpt>
      <trkpt lat="41.80297" lon="0.90397">
        <ele>349.6</ele>
        <time>2022-05-23 15:50:57</time>
      </trkpt>
      <trkpt lat="41.80295" lon="0.90405">
        <ele>349.6</ele>
        <time>2022-05-23 15:50:58</time>
      </trkpt>
      <trkpt lat="41.80294" lon="0.90412">
        <ele>349.6</ele>
        <time>2022-05-23 15:50:59</time>
      </trkpt>
      <trkpt lat="41.80292" lon="0.9042">
        <ele>349.8</ele>
        <time>2022-05-23 15:51:00</time>
      </trkpt>
      <trkpt lat="41.8029" lon="0.90427">
        <ele>349.8</ele>
        <time>2022-05-23 15:51:01</time>
      </trkpt>
      <trkpt lat="41.80289" lon="0.90435">
        <ele>349.8</ele>
        <time>2022-05-23 15:51:02</time>
      </trkpt>
      <trkpt lat="41.80287" lon="0.90442">
        <ele>349.8</ele>
        <time>2022-05-23 15:51:03</time>
      </trkpt>
      <trkpt lat="41.80285" lon="0.90449">
        <ele>350</ele>
        <time>2022-05-23 15:51:04</time>
      </trkpt>
      <trkpt lat="41.80284" lon="0.90457">
        <ele>350</ele>
        <time>2022-05-23 15:51:05</time>
      </trkpt>
      <trkpt lat="41.80282" lon="0.90464">
        <ele>350.2</ele>
        <time>2022-05-23 15:51:06</time>
      </trkpt>
      <trkpt lat="41.80281" lon="0.90471">
        <ele>350.2</ele>
        <time>2022-05-23 15:51:07</time>
      </trkpt>
      <trkpt lat="41.80279" lon="0.90479">
        <ele>350.4</ele>
        <time>2022-05-23 15:51:08</time>
      </trkpt>
      <trkpt lat="41.80277" lon="0.90486">
        <ele>350.6</ele>
        <time>2022-05-23 15:51:09</time>
      </trkpt>
      <trkpt lat="41.80275" lon="0.90493">
        <ele>350.8</ele>
        <time>2022-05-23 15:51:10</time>
      </trkpt>
      <trkpt lat="41.80274" lon="0.905">
        <ele>351</ele>
        <time>2022-05-23 15:51:11</time>
      </trkpt>
      <trkpt lat="41.80272" lon="0.90507">
        <ele>351</ele>
        <time>2022-05-23 15:51:12</time>
      </trkpt>
      <trkpt lat="41.80271" lon="0.90515">
        <ele>351.2</ele>
        <time>2022-05-23 15:51:13</time>
      </trkpt>
      <trkpt lat="41.80269" lon="0.90522">
        <ele>351.4</ele>
        <time>2022-05-23 15:51:14</time>
      </trkpt>
      <trkpt lat="41.80268" lon="0.90529">
        <ele>351.4</ele>
        <time>2022-05-23 15:51:15</time>
      </trkpt>
      <trkpt lat="41.80266" lon="0.90535">
        <ele>351.6</ele>
        <time>2022-05-23 15:51:16</time>
      </trkpt>
      <trkpt lat="41.80265" lon="0.90542">
        <ele>351.8</ele>
        <time>2022-05-23 15:51:17</time>
      </trkpt>
      <trkpt lat="41.80263" lon="0.90549">
        <ele>352</ele>
        <time>2022-05-23 15:51:18</time>
      </trkpt>
      <trkpt lat="41.80261" lon="0.90555">
        <ele>352.2</ele>
        <time>2022-05-23 15:51:19</time>
      </trkpt>
      <trkpt lat="41.80259" lon="0.90562">
        <ele>352.4</ele>
        <time>2022-05-23 15:51:20</time>
      </trkpt>
      <trkpt lat="41.80258" lon="0.90569">
        <ele>352.8</ele>
        <time>2022-05-23 15:51:21</time>
      </trkpt>
      <trkpt lat="41.80257" lon="0.90575">
        <ele>353</ele>
        <time>2022-05-23 15:51:22</time>
      </trkpt>
      <trkpt lat="41.80255" lon="0.90581">
        <ele>353.2</ele>
        <time>2022-05-23 15:51:23</time>
      </trkpt>
      <trkpt lat="41.80254" lon="0.90589">
        <ele>353.4</ele>
        <time>2022-05-23 15:51:24</time>
      </trkpt>
      <trkpt lat="41.80253" lon="0.90595">
        <ele>353.6</ele>
        <time>2022-05-23 15:51:25</time>
      </trkpt>
      <trkpt lat="41.80251" lon="0.90601">
        <ele>353.8</ele>
        <time>2022-05-23 15:51:26</time>
      </trkpt>
      <trkpt lat="41.8025" lon="0.90608">
        <ele>353.8</ele>
        <time>2022-05-23 15:51:27</time>
      </trkpt>
      <trkpt lat="41.80249" lon="0.90614">
        <ele>354</ele>
        <time>2022-05-23 15:51:28</time>
      </trkpt>
      <trkpt lat="41.80247" lon="0.90621">
        <ele>354.2</ele>
        <time>2022-05-23 15:51:29</time>
      </trkpt>
      <trkpt lat="41.80246" lon="0.90627">
        <ele>354.4</ele>
        <time>2022-05-23 15:51:30</time>
      </trkpt>
      <trkpt lat="41.80244" lon="0.90634">
        <ele>354.4</ele>
        <time>2022-05-23 15:51:31</time>
      </trkpt>
      <trkpt lat="41.80243" lon="0.9064">
        <ele>354.6</ele>
        <time>2022-05-23 15:51:32</time>
      </trkpt>
      <trkpt lat="41.80242" lon="0.90646">
        <ele>354.6</ele>
        <time>2022-05-23 15:51:33</time>
      </trkpt>
      <trkpt lat="41.8024" lon="0.90652">
        <ele>354.8</ele>
        <time>2022-05-23 15:51:34</time>
      </trkpt>
      <trkpt lat="41.80239" lon="0.90658">
        <ele>354.8</ele>
        <time>2022-05-23 15:51:35</time>
      </trkpt>
      <trkpt lat="41.80238" lon="0.90664">
        <ele>355</ele>
        <time>2022-05-23 15:51:36</time>
      </trkpt>
      <trkpt lat="41.80237" lon="0.9067">
        <ele>355</ele>
        <time>2022-05-23 15:51:37</time>
      </trkpt>
      <trkpt lat="41.80236" lon="0.90677">
        <ele>355.2</ele>
        <time>2022-05-23 15:51:38</time>
      </trkpt>
      <trkpt lat="41.80235" lon="0.90682">
        <ele>355.2</ele>
        <time>2022-05-23 15:51:39</time>
      </trkpt>
      <trkpt lat="41.80233" lon="0.90688">
        <ele>355.4</ele>
        <time>2022-05-23 15:51:40</time>
      </trkpt>
      <trkpt lat="41.80232" lon="0.90694">
        <ele>355.4</ele>
        <time>2022-05-23 15:51:41</time>
      </trkpt>
      <trkpt lat="41.8023" lon="0.907">
        <ele>355.6</ele>
        <time>2022-05-23 15:51:42</time>
      </trkpt>
      <trkpt lat="41.80229" lon="0.90706">
        <ele>355.6</ele>
        <time>2022-05-23 15:51:43</time>
      </trkpt>
      <trkpt lat="41.80228" lon="0.90712">
        <ele>355.8</ele>
        <time>2022-05-23 15:51:44</time>
      </trkpt>
      <trkpt lat="41.80227" lon="0.90718">
        <ele>356</ele>
        <time>2022-05-23 15:51:45</time>
      </trkpt>
      <trkpt lat="41.80226" lon="0.90724">
        <ele>356</ele>
        <time>2022-05-23 15:51:46</time>
      </trkpt>
      <trkpt lat="41.80224" lon="0.9073">
        <ele>356.2</ele>
        <time>2022-05-23 15:51:47</time>
      </trkpt>
      <trkpt lat="41.80223" lon="0.90735">
        <ele>356.4</ele>
        <time>2022-05-23 15:51:48</time>
      </trkpt>
      <trkpt lat="41.80221" lon="0.90741">
        <ele>356.4</ele>
        <time>2022-05-23 15:51:49</time>
      </trkpt>
      <trkpt lat="41.8022" lon="0.90747">
        <ele>356.4</ele>
        <time>2022-05-23 15:51:50</time>
      </trkpt>
      <trkpt lat="41.80218" lon="0.90753">
        <ele>356.6</ele>
        <time>2022-05-23 15:51:51</time>
      </trkpt>
      <trkpt lat="41.80217" lon="0.90759">
        <ele>356.6</ele>
        <time>2022-05-23 15:51:52</time>
      </trkpt>
      <trkpt lat="41.80216" lon="0.90765">
        <ele>356.8</ele>
        <time>2022-05-23 15:51:53</time>
      </trkpt>
      <trkpt lat="41.80214" lon="0.90771">
        <ele>357</ele>
        <time>2022-05-23 15:51:54</time>
      </trkpt>
      <trkpt lat="41.80213" lon="0.90777">
        <ele>357.2</ele>
        <time>2022-05-23 15:51:55</time>
      </trkpt>
      <trkpt lat="41.80212" lon="0.90784">
        <ele>357.2</ele>
        <time>2022-05-23 15:51:56</time>
      </trkpt>
      <trkpt lat="41.8021" lon="0.9079">
        <ele>357.4</ele>
        <time>2022-05-23 15:51:57</time>
      </trkpt>
      <trkpt lat="41.80209" lon="0.90796">
        <ele>357.6</ele>
        <time>2022-05-23 15:51:58</time>
      </trkpt>
      <trkpt lat="41.80208" lon="0.90802">
        <ele>357.8</ele>
        <time>2022-05-23 15:51:59</time>
      </trkpt>
      <trkpt lat="41.80207" lon="0.90807">
        <ele>357.8</ele>
        <time>2022-05-23 15:52:00</time>
      </trkpt>
      <trkpt lat="41.80205" lon="0.90813">
        <ele>358</ele>
        <time>2022-05-23 15:52:01</time>
      </trkpt>
      <trkpt lat="41.80204" lon="0.90819">
        <ele>358</ele>
        <time>2022-05-23 15:52:02</time>
      </trkpt>
      <trkpt lat="41.80203" lon="0.90825">
        <ele>358.2</ele>
        <time>2022-05-23 15:52:03</time>
      </trkpt>
      <trkpt lat="41.80202" lon="0.9083">
        <ele>358.4</ele>
        <time>2022-05-23 15:52:04</time>
      </trkpt>
      <trkpt lat="41.80201" lon="0.90836">
        <ele>358.4</ele>
        <time>2022-05-23 15:52:05</time>
      </trkpt>
      <trkpt lat="41.802" lon="0.90841">
        <ele>358.6</ele>
        <time>2022-05-23 15:52:06</time>
      </trkpt>
      <trkpt lat="41.802" lon="0.90846">
        <ele>358.6</ele>
        <time>2022-05-23 15:52:07</time>
      </trkpt>
      <trkpt lat="41.80199" lon="0.90851">
        <ele>358.8</ele>
        <time>2022-05-23 15:52:08</time>
      </trkpt>
      <trkpt lat="41.80197" lon="0.90857">
        <ele>359</ele>
        <time>2022-05-23 15:52:09</time>
      </trkpt>
      <trkpt lat="41.80196" lon="0.90862">
        <ele>359</ele>
        <time>2022-05-23 15:52:10</time>
      </trkpt>
      <trkpt lat="41.80196" lon="0.90867">
        <ele>359.2</ele>
        <time>2022-05-23 15:52:11</time>
      </trkpt>
      <trkpt lat="41.80194" lon="0.90872">
        <ele>359.2</ele>
        <time>2022-05-23 15:52:12</time>
      </trkpt>
      <trkpt lat="41.80193" lon="0.90877">
        <ele>359.4</ele>
        <time>2022-05-23 15:52:13</time>
      </trkpt>
      <trkpt lat="41.80192" lon="0.90882">
        <ele>359.4</ele>
        <time>2022-05-23 15:52:14</time>
      </trkpt>
      <trkpt lat="41.80191" lon="0.90888">
        <ele>359.6</ele>
        <time>2022-05-23 15:52:15</time>
      </trkpt>
      <trkpt lat="41.8019" lon="0.90893">
        <ele>359.8</ele>
        <time>2022-05-23 15:52:16</time>
      </trkpt>
      <trkpt lat="41.80189" lon="0.90898">
        <ele>359.8</ele>
        <time>2022-05-23 15:52:17</time>
      </trkpt>
      <trkpt lat="41.80188" lon="0.90903">
        <ele>359.8</ele>
        <time>2022-05-23 15:52:18</time>
      </trkpt>
      <trkpt lat="41.80187" lon="0.90909">
        <ele>359.8</ele>
        <time>2022-05-23 15:52:19</time>
      </trkpt>
      <trkpt lat="41.80186" lon="0.90914">
        <ele>360</ele>
        <time>2022-05-23 15:52:20</time>
      </trkpt>
      <trkpt lat="41.80185" lon="0.90919">
        <ele>360.2</ele>
        <time>2022-05-23 15:52:21</time>
      </trkpt>
      <trkpt lat="41.80184" lon="0.90925">
        <ele>360.2</ele>
        <time>2022-05-23 15:52:22</time>
      </trkpt>
      <trkpt lat="41.80183" lon="0.9093">
        <ele>360.4</ele>
        <time>2022-05-23 15:52:23</time>
      </trkpt>
      <trkpt lat="41.80181" lon="0.90935">
        <ele>360.6</ele>
        <time>2022-05-23 15:52:24</time>
      </trkpt>
      <trkpt lat="41.80181" lon="0.9094">
        <ele>360.8</ele>
        <time>2022-05-23 15:52:25</time>
      </trkpt>
      <trkpt lat="41.8018" lon="0.90945">
        <ele>361</ele>
        <time>2022-05-23 15:52:26</time>
      </trkpt>
      <trkpt lat="41.80179" lon="0.9095">
        <ele>361.2</ele>
        <time>2022-05-23 15:52:27</time>
      </trkpt>
      <trkpt lat="41.80178" lon="0.90955">
        <ele>361.4</ele>
        <time>2022-05-23 15:52:28</time>
      </trkpt>
      <trkpt lat="41.80177" lon="0.9096">
        <ele>361.6</ele>
        <time>2022-05-23 15:52:29</time>
      </trkpt>
      <trkpt lat="41.80176" lon="0.90965">
        <ele>361.8</ele>
        <time>2022-05-23 15:52:30</time>
      </trkpt>
      <trkpt lat="41.80175" lon="0.9097">
        <ele>361.8</ele>
        <time>2022-05-23 15:52:31</time>
      </trkpt>
      <trkpt lat="41.80174" lon="0.90975">
        <ele>362</ele>
        <time>2022-05-23 15:52:32</time>
      </trkpt>
      <trkpt lat="41.80173" lon="0.9098">
        <ele>362</ele>
        <time>2022-05-23 15:52:33</time>
      </trkpt>
      <trkpt lat="41.80172" lon="0.90985">
        <ele>362.2</ele>
        <time>2022-05-23 15:52:34</time>
      </trkpt>
      <trkpt lat="41.80171" lon="0.9099">
        <ele>362.4</ele>
        <time>2022-05-23 15:52:35</time>
      </trkpt>
      <trkpt lat="41.80169" lon="0.90995">
        <ele>362.6</ele>
        <time>2022-05-23 15:52:36</time>
      </trkpt>
      <trkpt lat="41.80168" lon="0.91001">
        <ele>362.8</ele>
        <time>2022-05-23 15:52:37</time>
      </trkpt>
      <trkpt lat="41.80167" lon="0.91006">
        <ele>363</ele>
        <time>2022-05-23 15:52:38</time>
      </trkpt>
      <trkpt lat="41.80166" lon="0.91011">
        <ele>363</ele>
        <time>2022-05-23 15:52:39</time>
      </trkpt>
      <trkpt lat="41.80165" lon="0.91016">
        <ele>363.2</ele>
        <time>2022-05-23 15:52:40</time>
      </trkpt>
      <trkpt lat="41.80164" lon="0.91022">
        <ele>363.2</ele>
        <time>2022-05-23 15:52:41</time>
      </trkpt>
      <trkpt lat="41.80163" lon="0.91026">
        <ele>363.2</ele>
        <time>2022-05-23 15:52:42</time>
      </trkpt>
      <trkpt lat="41.80162" lon="0.91032">
        <ele>363.4</ele>
        <time>2022-05-23 15:52:43</time>
      </trkpt>
      <trkpt lat="41.80161" lon="0.91037">
        <ele>363.4</ele>
        <time>2022-05-23 15:52:44</time>
      </trkpt>
      <trkpt lat="41.8016" lon="0.91043">
        <ele>363.4</ele>
        <time>2022-05-23 15:52:45</time>
      </trkpt>
      <trkpt lat="41.80159" lon="0.91048">
        <ele>363.4</ele>
        <time>2022-05-23 15:52:46</time>
      </trkpt>
      <trkpt lat="41.80157" lon="0.91053">
        <ele>363.4</ele>
        <time>2022-05-23 15:52:47</time>
      </trkpt>
      <trkpt lat="41.80156" lon="0.91058">
        <ele>363.4</ele>
        <time>2022-05-23 15:52:48</time>
      </trkpt>
      <trkpt lat="41.80155" lon="0.91064">
        <ele>363.4</ele>
        <time>2022-05-23 15:52:49</time>
      </trkpt>
      <trkpt lat="41.80154" lon="0.91069">
        <ele>363.6</ele>
        <time>2022-05-23 15:52:50</time>
      </trkpt>
      <trkpt lat="41.80153" lon="0.91074">
        <ele>363.6</ele>
        <time>2022-05-23 15:52:51</time>
      </trkpt>
      <trkpt lat="41.80152" lon="0.91079">
        <ele>363.6</ele>
        <time>2022-05-23 15:52:52</time>
      </trkpt>
      <trkpt lat="41.80151" lon="0.91085">
        <ele>363.6</ele>
        <time>2022-05-23 15:52:53</time>
      </trkpt>
      <trkpt lat="41.8015" lon="0.9109">
        <ele>363.8</ele>
        <time>2022-05-23 15:52:54</time>
      </trkpt>
      <trkpt lat="41.80148" lon="0.91096">
        <ele>364</ele>
        <time>2022-05-23 15:52:55</time>
      </trkpt>
      <trkpt lat="41.80148" lon="0.91101">
        <ele>364</ele>
        <time>2022-05-23 15:52:56</time>
      </trkpt>
      <trkpt lat="41.80146" lon="0.91107">
        <ele>364.2</ele>
        <time>2022-05-23 15:52:57</time>
      </trkpt>
      <trkpt lat="41.80146" lon="0.91112">
        <ele>364.2</ele>
        <time>2022-05-23 15:52:58</time>
      </trkpt>
      <trkpt lat="41.80144" lon="0.91118">
        <ele>364.4</ele>
        <time>2022-05-23 15:52:59</time>
      </trkpt>
      <trkpt lat="41.80143" lon="0.91123">
        <ele>364.4</ele>
        <time>2022-05-23 15:53:00</time>
      </trkpt>
      <trkpt lat="41.80142" lon="0.91129">
        <ele>364.6</ele>
        <time>2022-05-23 15:53:01</time>
      </trkpt>
      <trkpt lat="41.80141" lon="0.91134">
        <ele>364.8</ele>
        <time>2022-05-23 15:53:02</time>
      </trkpt>
      <trkpt lat="41.8014" lon="0.9114">
        <ele>364.8</ele>
        <time>2022-05-23 15:53:03</time>
      </trkpt>
      <trkpt lat="41.80139" lon="0.91146">
        <ele>364.8</ele>
        <time>2022-05-23 15:53:04</time>
      </trkpt>
      <trkpt lat="41.80138" lon="0.91151">
        <ele>365</ele>
        <time>2022-05-23 15:53:05</time>
      </trkpt>
      <trkpt lat="41.80136" lon="0.91157">
        <ele>365</ele>
        <time>2022-05-23 15:53:06</time>
      </trkpt>
      <trkpt lat="41.80135" lon="0.91163">
        <ele>365</ele>
        <time>2022-05-23 15:53:07</time>
      </trkpt>
      <trkpt lat="41.80133" lon="0.91168">
        <ele>365.2</ele>
        <time>2022-05-23 15:53:08</time>
      </trkpt>
      <trkpt lat="41.80132" lon="0.91175">
        <ele>365.2</ele>
        <time>2022-05-23 15:53:09</time>
      </trkpt>
      <trkpt lat="41.80131" lon="0.9118">
        <ele>365.4</ele>
        <time>2022-05-23 15:53:10</time>
      </trkpt>
      <trkpt lat="41.8013" lon="0.91186">
        <ele>365.4</ele>
        <time>2022-05-23 15:53:11</time>
      </trkpt>
      <trkpt lat="41.80129" lon="0.91192">
        <ele>365.6</ele>
        <time>2022-05-23 15:53:12</time>
      </trkpt>
      <trkpt lat="41.80127" lon="0.91198">
        <ele>365.6</ele>
        <time>2022-05-23 15:53:13</time>
      </trkpt>
      <trkpt lat="41.80126" lon="0.91204">
        <ele>365.8</ele>
        <time>2022-05-23 15:53:14</time>
      </trkpt>
      <trkpt lat="41.80125" lon="0.91209">
        <ele>365.8</ele>
        <time>2022-05-23 15:53:15</time>
      </trkpt>
      <trkpt lat="41.80123" lon="0.91215">
        <ele>366</ele>
        <time>2022-05-23 15:53:16</time>
      </trkpt>
      <trkpt lat="41.80122" lon="0.91221">
        <ele>366</ele>
        <time>2022-05-23 15:53:17</time>
      </trkpt>
      <trkpt lat="41.80121" lon="0.91226">
        <ele>366.2</ele>
        <time>2022-05-23 15:53:18</time>
      </trkpt>
      <trkpt lat="41.8012" lon="0.91232">
        <ele>366.2</ele>
        <time>2022-05-23 15:53:19</time>
      </trkpt>
      <trkpt lat="41.80119" lon="0.91238">
        <ele>366.4</ele>
        <time>2022-05-23 15:53:20</time>
      </trkpt>
      <trkpt lat="41.80117" lon="0.91244">
        <ele>366.4</ele>
        <time>2022-05-23 15:53:21</time>
      </trkpt>
      <trkpt lat="41.80117" lon="0.91249">
        <ele>366.6</ele>
        <time>2022-05-23 15:53:22</time>
      </trkpt>
      <trkpt lat="41.80116" lon="0.91255">
        <ele>366.6</ele>
        <time>2022-05-23 15:53:23</time>
      </trkpt>
      <trkpt lat="41.80115" lon="0.91261">
        <ele>366.8</ele>
        <time>2022-05-23 15:53:24</time>
      </trkpt>
      <trkpt lat="41.80114" lon="0.91267">
        <ele>366.8</ele>
        <time>2022-05-23 15:53:25</time>
      </trkpt>
      <trkpt lat="41.80113" lon="0.91273">
        <ele>366.8</ele>
        <time>2022-05-23 15:53:26</time>
      </trkpt>
      <trkpt lat="41.80111" lon="0.91279">
        <ele>367</ele>
        <time>2022-05-23 15:53:27</time>
      </trkpt>
      <trkpt lat="41.8011" lon="0.91285">
        <ele>367</ele>
        <time>2022-05-23 15:53:28</time>
      </trkpt>
      <trkpt lat="41.80109" lon="0.91292">
        <ele>367.2</ele>
        <time>2022-05-23 15:53:29</time>
      </trkpt>
      <trkpt lat="41.80107" lon="0.91298">
        <ele>367.2</ele>
        <time>2022-05-23 15:53:30</time>
      </trkpt>
      <trkpt lat="41.80106" lon="0.91304">
        <ele>367.2</ele>
        <time>2022-05-23 15:53:31</time>
      </trkpt>
      <trkpt lat="41.80105" lon="0.9131">
        <ele>367.2</ele>
        <time>2022-05-23 15:53:32</time>
      </trkpt>
      <trkpt lat="41.80104" lon="0.91317">
        <ele>367.2</ele>
        <time>2022-05-23 15:53:33</time>
      </trkpt>
      <trkpt lat="41.80103" lon="0.91324">
        <ele>367.2</ele>
        <time>2022-05-23 15:53:34</time>
      </trkpt>
      <trkpt lat="41.80101" lon="0.9133">
        <ele>367.2</ele>
        <time>2022-05-23 15:53:35</time>
      </trkpt>
      <trkpt lat="41.801" lon="0.91336">
        <ele>367.4</ele>
        <time>2022-05-23 15:53:36</time>
      </trkpt>
      <trkpt lat="41.80099" lon="0.91342">
        <ele>367.4</ele>
        <time>2022-05-23 15:53:37</time>
      </trkpt>
      <trkpt lat="41.80097" lon="0.91348">
        <ele>367.2</ele>
        <time>2022-05-23 15:53:38</time>
      </trkpt>
      <trkpt lat="41.80095" lon="0.91354">
        <ele>367.4</ele>
        <time>2022-05-23 15:53:39</time>
      </trkpt>
      <trkpt lat="41.80094" lon="0.91362">
        <ele>367.2</ele>
        <time>2022-05-23 15:53:40</time>
      </trkpt>
      <trkpt lat="41.80092" lon="0.9137">
        <ele>367.2</ele>
        <time>2022-05-23 15:53:41</time>
      </trkpt>
      <trkpt lat="41.80091" lon="0.91378">
        <ele>367.2</ele>
        <time>2022-05-23 15:53:42</time>
      </trkpt>
      <trkpt lat="41.8009" lon="0.91386">
        <ele>367.2</ele>
        <time>2022-05-23 15:53:43</time>
      </trkpt>
      <trkpt lat="41.80088" lon="0.91394">
        <ele>367.2</ele>
        <time>2022-05-23 15:53:44</time>
      </trkpt>
      <trkpt lat="41.80087" lon="0.91401">
        <ele>367</ele>
        <time>2022-05-23 15:53:45</time>
      </trkpt>
      <trkpt lat="41.80085" lon="0.9141">
        <ele>367</ele>
        <time>2022-05-23 15:53:46</time>
      </trkpt>
      <trkpt lat="41.80083" lon="0.91418">
        <ele>366.8</ele>
        <time>2022-05-23 15:53:47</time>
      </trkpt>
      <trkpt lat="41.80082" lon="0.91426">
        <ele>366.6</ele>
        <time>2022-05-23 15:53:48</time>
      </trkpt>
      <trkpt lat="41.8008" lon="0.91434">
        <ele>366.6</ele>
        <time>2022-05-23 15:53:49</time>
      </trkpt>
      <trkpt lat="41.80079" lon="0.91443">
        <ele>366.4</ele>
        <time>2022-05-23 15:53:50</time>
      </trkpt>
      <trkpt lat="41.80078" lon="0.91452">
        <ele>366.2</ele>
        <time>2022-05-23 15:53:51</time>
      </trkpt>
      <trkpt lat="41.80076" lon="0.9146">
        <ele>366</ele>
        <time>2022-05-23 15:53:52</time>
      </trkpt>
      <trkpt lat="41.80075" lon="0.91469">
        <ele>365.8</ele>
        <time>2022-05-23 15:53:53</time>
      </trkpt>
      <trkpt lat="41.80073" lon="0.91477">
        <ele>365.8</ele>
        <time>2022-05-23 15:53:54</time>
      </trkpt>
      <trkpt lat="41.80071" lon="0.91486">
        <ele>365.6</ele>
        <time>2022-05-23 15:53:55</time>
      </trkpt>
      <trkpt lat="41.80069" lon="0.91495">
        <ele>365.4</ele>
        <time>2022-05-23 15:53:56</time>
      </trkpt>
      <trkpt lat="41.80068" lon="0.91503">
        <ele>365.2</ele>
        <time>2022-05-23 15:53:57</time>
      </trkpt>
      <trkpt lat="41.80066" lon="0.91512">
        <ele>365</ele>
        <time>2022-05-23 15:53:58</time>
      </trkpt>
      <trkpt lat="41.80064" lon="0.9152">
        <ele>364.8</ele>
        <time>2022-05-23 15:53:59</time>
      </trkpt>
      <trkpt lat="41.80062" lon="0.9153">
        <ele>364.6</ele>
        <time>2022-05-23 15:54:00</time>
      </trkpt>
      <trkpt lat="41.80061" lon="0.91538">
        <ele>364.4</ele>
        <time>2022-05-23 15:54:01</time>
      </trkpt>
      <trkpt lat="41.80059" lon="0.91547">
        <ele>364.2</ele>
        <time>2022-05-23 15:54:02</time>
      </trkpt>
      <trkpt lat="41.80057" lon="0.91556">
        <ele>364.2</ele>
        <time>2022-05-23 15:54:03</time>
      </trkpt>
      <trkpt lat="41.80056" lon="0.91565">
        <ele>364</ele>
        <time>2022-05-23 15:54:04</time>
      </trkpt>
      <trkpt lat="41.80054" lon="0.91574">
        <ele>363.8</ele>
        <time>2022-05-23 15:54:05</time>
      </trkpt>
      <trkpt lat="41.80052" lon="0.91582">
        <ele>363.8</ele>
        <time>2022-05-23 15:54:06</time>
      </trkpt>
      <trkpt lat="41.80051" lon="0.91591">
        <ele>363.6</ele>
        <time>2022-05-23 15:54:07</time>
      </trkpt>
      <trkpt lat="41.80049" lon="0.916">
        <ele>363.6</ele>
        <time>2022-05-23 15:54:08</time>
      </trkpt>
      <trkpt lat="41.80047" lon="0.91608">
        <ele>363.4</ele>
        <time>2022-05-23 15:54:09</time>
      </trkpt>
      <trkpt lat="41.80046" lon="0.91617">
        <ele>363.2</ele>
        <time>2022-05-23 15:54:10</time>
      </trkpt>
      <trkpt lat="41.80044" lon="0.91626">
        <ele>363.2</ele>
        <time>2022-05-23 15:54:11</time>
      </trkpt>
      <trkpt lat="41.80043" lon="0.91635">
        <ele>363.2</ele>
        <time>2022-05-23 15:54:12</time>
      </trkpt>
      <trkpt lat="41.80041" lon="0.91644">
        <ele>363</ele>
        <time>2022-05-23 15:54:13</time>
      </trkpt>
      <trkpt lat="41.80039" lon="0.91653">
        <ele>363</ele>
        <time>2022-05-23 15:54:14</time>
      </trkpt>
      <trkpt lat="41.80038" lon="0.91661">
        <ele>362.8</ele>
        <time>2022-05-23 15:54:15</time>
      </trkpt>
      <trkpt lat="41.80036" lon="0.9167">
        <ele>362.8</ele>
        <time>2022-05-23 15:54:16</time>
      </trkpt>
      <trkpt lat="41.80034" lon="0.91679">
        <ele>362.8</ele>
        <time>2022-05-23 15:54:17</time>
      </trkpt>
      <trkpt lat="41.80032" lon="0.91688">
        <ele>362.6</ele>
        <time>2022-05-23 15:54:18</time>
      </trkpt>
      <trkpt lat="41.80031" lon="0.91697">
        <ele>362.6</ele>
        <time>2022-05-23 15:54:19</time>
      </trkpt>
      <trkpt lat="41.80029" lon="0.91706">
        <ele>362.4</ele>
        <time>2022-05-23 15:54:20</time>
      </trkpt>
      <trkpt lat="41.80027" lon="0.91715">
        <ele>362.2</ele>
        <time>2022-05-23 15:54:21</time>
      </trkpt>
      <trkpt lat="41.80026" lon="0.91724">
        <ele>362.2</ele>
        <time>2022-05-23 15:54:22</time>
      </trkpt>
      <trkpt lat="41.80024" lon="0.91734">
        <ele>362</ele>
        <time>2022-05-23 15:54:23</time>
      </trkpt>
      <trkpt lat="41.80022" lon="0.91744">
        <ele>361.8</ele>
        <time>2022-05-23 15:54:24</time>
      </trkpt>
      <trkpt lat="41.80021" lon="0.91754">
        <ele>361.6</ele>
        <time>2022-05-23 15:54:25</time>
      </trkpt>
      <trkpt lat="41.80019" lon="0.91764">
        <ele>361.6</ele>
        <time>2022-05-23 15:54:26</time>
      </trkpt>
      <trkpt lat="41.80017" lon="0.91773">
        <ele>361.4</ele>
        <time>2022-05-23 15:54:27</time>
      </trkpt>
      <trkpt lat="41.80015" lon="0.91785">
        <ele>361.2</ele>
        <time>2022-05-23 15:54:28</time>
      </trkpt>
      <trkpt lat="41.80013" lon="0.91795">
        <ele>361</ele>
        <time>2022-05-23 15:54:29</time>
      </trkpt>
      <trkpt lat="41.80011" lon="0.91806">
        <ele>360.8</ele>
        <time>2022-05-23 15:54:30</time>
      </trkpt>
      <trkpt lat="41.80009" lon="0.91816">
        <ele>360.6</ele>
        <time>2022-05-23 15:54:31</time>
      </trkpt>
      <trkpt lat="41.80007" lon="0.91827">
        <ele>360.4</ele>
        <time>2022-05-23 15:54:32</time>
      </trkpt>
      <trkpt lat="41.80005" lon="0.91837">
        <ele>360.2</ele>
        <time>2022-05-23 15:54:33</time>
      </trkpt>
      <trkpt lat="41.80004" lon="0.91848">
        <ele>360</ele>
        <time>2022-05-23 15:54:34</time>
      </trkpt>
      <trkpt lat="41.80002" lon="0.91858">
        <ele>360</ele>
        <time>2022-05-23 15:54:35</time>
      </trkpt>
      <trkpt lat="41.80001" lon="0.91869">
        <ele>359.8</ele>
        <time>2022-05-23 15:54:36</time>
      </trkpt>
      <trkpt lat="41.79999" lon="0.91879">
        <ele>359.6</ele>
        <time>2022-05-23 15:54:37</time>
      </trkpt>
      <trkpt lat="41.79998" lon="0.9189">
        <ele>359.6</ele>
        <time>2022-05-23 15:54:38</time>
      </trkpt>
      <trkpt lat="41.79996" lon="0.919">
        <ele>359.4</ele>
        <time>2022-05-23 15:54:39</time>
      </trkpt>
      <trkpt lat="41.79994" lon="0.9191">
        <ele>359.2</ele>
        <time>2022-05-23 15:54:40</time>
      </trkpt>
      <trkpt lat="41.79993" lon="0.91921">
        <ele>359.2</ele>
        <time>2022-05-23 15:54:41</time>
      </trkpt>
      <trkpt lat="41.79991" lon="0.91931">
        <ele>359</ele>
        <time>2022-05-23 15:54:42</time>
      </trkpt>
      <trkpt lat="41.7999" lon="0.91941">
        <ele>359</ele>
        <time>2022-05-23 15:54:43</time>
      </trkpt>
      <trkpt lat="41.79988" lon="0.91951">
        <ele>358.8</ele>
        <time>2022-05-23 15:54:44</time>
      </trkpt>
      <trkpt lat="41.79987" lon="0.91961">
        <ele>358.6</ele>
        <time>2022-05-23 15:54:45</time>
      </trkpt>
      <trkpt lat="41.79985" lon="0.91971">
        <ele>358.6</ele>
        <time>2022-05-23 15:54:46</time>
      </trkpt>
      <trkpt lat="41.79984" lon="0.91979">
        <ele>358.6</ele>
        <time>2022-05-23 15:54:47</time>
      </trkpt>
      <trkpt lat="41.79982" lon="0.9199">
        <ele>358.6</ele>
        <time>2022-05-23 15:54:48</time>
      </trkpt>
      <trkpt lat="41.7998" lon="0.91999">
        <ele>358.6</ele>
        <time>2022-05-23 15:54:49</time>
      </trkpt>
      <trkpt lat="41.79979" lon="0.92008">
        <ele>358.6</ele>
        <time>2022-05-23 15:54:50</time>
      </trkpt>
      <trkpt lat="41.79977" lon="0.92018">
        <ele>358.6</ele>
        <time>2022-05-23 15:54:51</time>
      </trkpt>
      <trkpt lat="41.79975" lon="0.92027">
        <ele>358.6</ele>
        <time>2022-05-23 15:54:52</time>
      </trkpt>
      <trkpt lat="41.79973" lon="0.92036">
        <ele>358.6</ele>
        <time>2022-05-23 15:54:53</time>
      </trkpt>
      <trkpt lat="41.79971" lon="0.92046">
        <ele>358.6</ele>
        <time>2022-05-23 15:54:54</time>
      </trkpt>
      <trkpt lat="41.79969" lon="0.92055">
        <ele>358.6</ele>
        <time>2022-05-23 15:54:55</time>
      </trkpt>
      <trkpt lat="41.79967" lon="0.92064">
        <ele>358.6</ele>
        <time>2022-05-23 15:54:56</time>
      </trkpt>
      <trkpt lat="41.79965" lon="0.92073">
        <ele>358.6</ele>
        <time>2022-05-23 15:54:57</time>
      </trkpt>
      <trkpt lat="41.79964" lon="0.92082">
        <ele>358.6</ele>
        <time>2022-05-23 15:54:58</time>
      </trkpt>
      <trkpt lat="41.79961" lon="0.92091">
        <ele>358.6</ele>
        <time>2022-05-23 15:54:59</time>
      </trkpt>
      <trkpt lat="41.79959" lon="0.921">
        <ele>358.6</ele>
        <time>2022-05-23 15:55:00</time>
      </trkpt>
      <trkpt lat="41.79958" lon="0.92108">
        <ele>358.8</ele>
        <time>2022-05-23 15:55:01</time>
      </trkpt>
      <trkpt lat="41.79956" lon="0.92116">
        <ele>358.8</ele>
        <time>2022-05-23 15:55:02</time>
      </trkpt>
      <trkpt lat="41.79954" lon="0.92124">
        <ele>358.8</ele>
        <time>2022-05-23 15:55:03</time>
      </trkpt>
      <trkpt lat="41.79952" lon="0.92132">
        <ele>359</ele>
        <time>2022-05-23 15:55:04</time>
      </trkpt>
      <trkpt lat="41.7995" lon="0.9214">
        <ele>359</ele>
        <time>2022-05-23 15:55:05</time>
      </trkpt>
      <trkpt lat="41.79948" lon="0.92147">
        <ele>359</ele>
        <time>2022-05-23 15:55:06</time>
      </trkpt>
      <trkpt lat="41.79946" lon="0.92155">
        <ele>359.2</ele>
        <time>2022-05-23 15:55:07</time>
      </trkpt>
      <trkpt lat="41.79944" lon="0.92163">
        <ele>359.2</ele>
        <time>2022-05-23 15:55:08</time>
      </trkpt>
      <trkpt lat="41.79941" lon="0.92171">
        <ele>359.4</ele>
        <time>2022-05-23 15:55:09</time>
      </trkpt>
      <trkpt lat="41.7994" lon="0.92178">
        <ele>359.4</ele>
        <time>2022-05-23 15:55:10</time>
      </trkpt>
      <trkpt lat="41.79938" lon="0.92186">
        <ele>359.6</ele>
        <time>2022-05-23 15:55:11</time>
      </trkpt>
      <trkpt lat="41.79935" lon="0.92193">
        <ele>359.6</ele>
        <time>2022-05-23 15:55:12</time>
      </trkpt>
      <trkpt lat="41.79934" lon="0.922">
        <ele>359.6</ele>
        <time>2022-05-23 15:55:13</time>
      </trkpt>
      <trkpt lat="41.79932" lon="0.92208">
        <ele>359.8</ele>
        <time>2022-05-23 15:55:14</time>
      </trkpt>
      <trkpt lat="41.79929" lon="0.92216">
        <ele>359.8</ele>
        <time>2022-05-23 15:55:15</time>
      </trkpt>
      <trkpt lat="41.79927" lon="0.92223">
        <ele>359.8</ele>
        <time>2022-05-23 15:55:16</time>
      </trkpt>
      <trkpt lat="41.79925" lon="0.9223">
        <ele>360</ele>
        <time>2022-05-23 15:55:17</time>
      </trkpt>
      <trkpt lat="41.79923" lon="0.92238">
        <ele>360</ele>
        <time>2022-05-23 15:55:18</time>
      </trkpt>
      <trkpt lat="41.79921" lon="0.92245">
        <ele>360</ele>
        <time>2022-05-23 15:55:19</time>
      </trkpt>
      <trkpt lat="41.79919" lon="0.92252">
        <ele>360.2</ele>
        <time>2022-05-23 15:55:20</time>
      </trkpt>
      <trkpt lat="41.79917" lon="0.92259">
        <ele>360.2</ele>
        <time>2022-05-23 15:55:21</time>
      </trkpt>
      <trkpt lat="41.79915" lon="0.92266">
        <ele>360.2</ele>
        <time>2022-05-23 15:55:22</time>
      </trkpt>
      <trkpt lat="41.79913" lon="0.92273">
        <ele>360.4</ele>
        <time>2022-05-23 15:55:23</time>
      </trkpt>
      <trkpt lat="41.79911" lon="0.92281">
        <ele>360.4</ele>
        <time>2022-05-23 15:55:24</time>
      </trkpt>
      <trkpt lat="41.79909" lon="0.92287">
        <ele>360.4</ele>
        <time>2022-05-23 15:55:25</time>
      </trkpt>
      <trkpt lat="41.79907" lon="0.92294">
        <ele>360.4</ele>
        <time>2022-05-23 15:55:26</time>
      </trkpt>
      <trkpt lat="41.79906" lon="0.92301">
        <ele>360.6</ele>
        <time>2022-05-23 15:55:27</time>
      </trkpt>
      <trkpt lat="41.79904" lon="0.92308">
        <ele>360.6</ele>
        <time>2022-05-23 15:55:28</time>
      </trkpt>
      <trkpt lat="41.79901" lon="0.92314">
        <ele>360.6</ele>
        <time>2022-05-23 15:55:29</time>
      </trkpt>
      <trkpt lat="41.799" lon="0.92321">
        <ele>360.6</ele>
        <time>2022-05-23 15:55:30</time>
      </trkpt>
      <trkpt lat="41.79898" lon="0.92327">
        <ele>360.6</ele>
        <time>2022-05-23 15:55:31</time>
      </trkpt>
      <trkpt lat="41.79896" lon="0.92334">
        <ele>360.8</ele>
        <time>2022-05-23 15:55:32</time>
      </trkpt>
      <trkpt lat="41.79895" lon="0.92341">
        <ele>360.8</ele>
        <time>2022-05-23 15:55:33</time>
      </trkpt>
      <trkpt lat="41.79893" lon="0.92347">
        <ele>360.8</ele>
        <time>2022-05-23 15:55:34</time>
      </trkpt>
      <trkpt lat="41.79891" lon="0.92354">
        <ele>361</ele>
        <time>2022-05-23 15:55:35</time>
      </trkpt>
      <trkpt lat="41.79889" lon="0.9236">
        <ele>361</ele>
        <time>2022-05-23 15:55:36</time>
      </trkpt>
      <trkpt lat="41.79888" lon="0.92366">
        <ele>361.2</ele>
        <time>2022-05-23 15:55:37</time>
      </trkpt>
      <trkpt lat="41.79886" lon="0.92373">
        <ele>361.2</ele>
        <time>2022-05-23 15:55:38</time>
      </trkpt>
      <trkpt lat="41.79884" lon="0.92379">
        <ele>361.2</ele>
        <time>2022-05-23 15:55:39</time>
      </trkpt>
      <trkpt lat="41.79882" lon="0.92386">
        <ele>361.4</ele>
        <time>2022-05-23 15:55:40</time>
      </trkpt>
      <trkpt lat="41.79881" lon="0.92392">
        <ele>361.4</ele>
        <time>2022-05-23 15:55:41</time>
      </trkpt>
      <trkpt lat="41.79879" lon="0.92398">
        <ele>361.6</ele>
        <time>2022-05-23 15:55:42</time>
      </trkpt>
      <trkpt lat="41.79878" lon="0.92405">
        <ele>361.6</ele>
        <time>2022-05-23 15:55:43</time>
      </trkpt>
      <trkpt lat="41.79876" lon="0.9241">
        <ele>361.8</ele>
        <time>2022-05-23 15:55:44</time>
      </trkpt>
      <trkpt lat="41.79875" lon="0.92416">
        <ele>361.8</ele>
        <time>2022-05-23 15:55:45</time>
      </trkpt>
      <trkpt lat="41.79872" lon="0.92423">
        <ele>362</ele>
        <time>2022-05-23 15:55:46</time>
      </trkpt>
      <trkpt lat="41.79871" lon="0.92429">
        <ele>362</ele>
        <time>2022-05-23 15:55:47</time>
      </trkpt>
      <trkpt lat="41.7987" lon="0.92436">
        <ele>362.2</ele>
        <time>2022-05-23 15:55:48</time>
      </trkpt>
      <trkpt lat="41.79868" lon="0.92441">
        <ele>362.2</ele>
        <time>2022-05-23 15:55:49</time>
      </trkpt>
      <trkpt lat="41.79867" lon="0.92448">
        <ele>362.4</ele>
        <time>2022-05-23 15:55:50</time>
      </trkpt>
      <trkpt lat="41.79866" lon="0.92455">
        <ele>362.6</ele>
        <time>2022-05-23 15:55:51</time>
      </trkpt>
      <trkpt lat="41.79864" lon="0.92461">
        <ele>362.6</ele>
        <time>2022-05-23 15:55:52</time>
      </trkpt>
      <trkpt lat="41.79862" lon="0.92468">
        <ele>362.8</ele>
        <time>2022-05-23 15:55:53</time>
      </trkpt>
      <trkpt lat="41.79859" lon="0.92475">
        <ele>363</ele>
        <time>2022-05-23 15:55:54</time>
      </trkpt>
      <trkpt lat="41.79858" lon="0.92481">
        <ele>363.2</ele>
        <time>2022-05-23 15:55:55</time>
      </trkpt>
      <trkpt lat="41.79856" lon="0.92488">
        <ele>363.4</ele>
        <time>2022-05-23 15:55:56</time>
      </trkpt>
      <trkpt lat="41.79855" lon="0.92494">
        <ele>363.4</ele>
        <time>2022-05-23 15:55:57</time>
      </trkpt>
      <trkpt lat="41.79854" lon="0.925">
        <ele>363.6</ele>
        <time>2022-05-23 15:55:58</time>
      </trkpt>
      <trkpt lat="41.79852" lon="0.92505">
        <ele>363.8</ele>
        <time>2022-05-23 15:55:59</time>
      </trkpt>
      <trkpt lat="41.79851" lon="0.9251">
        <ele>363.8</ele>
        <time>2022-05-23 15:56:00</time>
      </trkpt>
      <trkpt lat="41.7985" lon="0.92517">
        <ele>364</ele>
        <time>2022-05-23 15:56:01</time>
      </trkpt>
      <trkpt lat="41.79848" lon="0.92523">
        <ele>364.2</ele>
        <time>2022-05-23 15:56:02</time>
      </trkpt>
      <trkpt lat="41.79847" lon="0.92529">
        <ele>364.4</ele>
        <time>2022-05-23 15:56:03</time>
      </trkpt>
      <trkpt lat="41.79845" lon="0.92535">
        <ele>364.6</ele>
        <time>2022-05-23 15:56:04</time>
      </trkpt>
      <trkpt lat="41.79844" lon="0.9254">
        <ele>364.6</ele>
        <time>2022-05-23 15:56:05</time>
      </trkpt>
      <trkpt lat="41.79842" lon="0.92547">
        <ele>364.8</ele>
        <time>2022-05-23 15:56:06</time>
      </trkpt>
      <trkpt lat="41.79841" lon="0.92553">
        <ele>365</ele>
        <time>2022-05-23 15:56:07</time>
      </trkpt>
      <trkpt lat="41.79839" lon="0.92559">
        <ele>365</ele>
        <time>2022-05-23 15:56:08</time>
      </trkpt>
      <trkpt lat="41.79838" lon="0.92565">
        <ele>365.2</ele>
        <time>2022-05-23 15:56:09</time>
      </trkpt>
      <trkpt lat="41.79837" lon="0.92571">
        <ele>365.4</ele>
        <time>2022-05-23 15:56:10</time>
      </trkpt>
      <trkpt lat="41.79835" lon="0.92576">
        <ele>365.4</ele>
        <time>2022-05-23 15:56:11</time>
      </trkpt>
      <trkpt lat="41.79833" lon="0.92583">
        <ele>365.6</ele>
        <time>2022-05-23 15:56:12</time>
      </trkpt>
      <trkpt lat="41.79832" lon="0.92589">
        <ele>365.6</ele>
        <time>2022-05-23 15:56:13</time>
      </trkpt>
      <trkpt lat="41.7983" lon="0.92595">
        <ele>365.8</ele>
        <time>2022-05-23 15:56:14</time>
      </trkpt>
      <trkpt lat="41.79829" lon="0.92601">
        <ele>366</ele>
        <time>2022-05-23 15:56:15</time>
      </trkpt>
      <trkpt lat="41.79827" lon="0.92607">
        <ele>366</ele>
        <time>2022-05-23 15:56:16</time>
      </trkpt>
      <trkpt lat="41.79826" lon="0.92612">
        <ele>366.2</ele>
        <time>2022-05-23 15:56:17</time>
      </trkpt>
      <trkpt lat="41.79825" lon="0.92619">
        <ele>366.4</ele>
        <time>2022-05-23 15:56:18</time>
      </trkpt>
      <trkpt lat="41.79823" lon="0.92625">
        <ele>366.4</ele>
        <time>2022-05-23 15:56:19</time>
      </trkpt>
      <trkpt lat="41.79822" lon="0.92631">
        <ele>366.6</ele>
        <time>2022-05-23 15:56:20</time>
      </trkpt>
      <trkpt lat="41.79821" lon="0.92637">
        <ele>366.8</ele>
        <time>2022-05-23 15:56:21</time>
      </trkpt>
      <trkpt lat="41.79819" lon="0.92643">
        <ele>366.8</ele>
        <time>2022-05-23 15:56:22</time>
      </trkpt>
      <trkpt lat="41.79818" lon="0.92648">
        <ele>367</ele>
        <time>2022-05-23 15:56:23</time>
      </trkpt>
      <trkpt lat="41.79816" lon="0.92655">
        <ele>367</ele>
        <time>2022-05-23 15:56:24</time>
      </trkpt>
      <trkpt lat="41.79815" lon="0.92661">
        <ele>367.2</ele>
        <time>2022-05-23 15:56:25</time>
      </trkpt>
      <trkpt lat="41.79814" lon="0.92667">
        <ele>367.2</ele>
        <time>2022-05-23 15:56:26</time>
      </trkpt>
      <trkpt lat="41.79812" lon="0.92672">
        <ele>367.2</ele>
        <time>2022-05-23 15:56:27</time>
      </trkpt>
      <trkpt lat="41.79811" lon="0.92678">
        <ele>367.2</ele>
        <time>2022-05-23 15:56:28</time>
      </trkpt>
      <trkpt lat="41.79809" lon="0.92684">
        <ele>367.4</ele>
        <time>2022-05-23 15:56:29</time>
      </trkpt>
      <trkpt lat="41.79807" lon="0.92689">
        <ele>367.4</ele>
        <time>2022-05-23 15:56:30</time>
      </trkpt>
      <trkpt lat="41.79806" lon="0.92695">
        <ele>367.6</ele>
        <time>2022-05-23 15:56:31</time>
      </trkpt>
      <trkpt lat="41.79804" lon="0.92701">
        <ele>367.6</ele>
        <time>2022-05-23 15:56:32</time>
      </trkpt>
      <trkpt lat="41.79803" lon="0.92707">
        <ele>367.6</ele>
        <time>2022-05-23 15:56:33</time>
      </trkpt>
      <trkpt lat="41.79801" lon="0.92713">
        <ele>367.8</ele>
        <time>2022-05-23 15:56:34</time>
      </trkpt>
      <trkpt lat="41.798" lon="0.92719">
        <ele>368</ele>
        <time>2022-05-23 15:56:35</time>
      </trkpt>
      <trkpt lat="41.79798" lon="0.92726">
        <ele>368</ele>
        <time>2022-05-23 15:56:36</time>
      </trkpt>
      <trkpt lat="41.79797" lon="0.92732">
        <ele>368</ele>
        <time>2022-05-23 15:56:37</time>
      </trkpt>
      <trkpt lat="41.79796" lon="0.92738">
        <ele>368.2</ele>
        <time>2022-05-23 15:56:38</time>
      </trkpt>
      <trkpt lat="41.79794" lon="0.92744">
        <ele>368.2</ele>
        <time>2022-05-23 15:56:39</time>
      </trkpt>
      <trkpt lat="41.79792" lon="0.9275">
        <ele>368.4</ele>
        <time>2022-05-23 15:56:40</time>
      </trkpt>
      <trkpt lat="41.7979" lon="0.92756">
        <ele>368.4</ele>
        <time>2022-05-23 15:56:41</time>
      </trkpt>
      <trkpt lat="41.79789" lon="0.92763">
        <ele>368.4</ele>
        <time>2022-05-23 15:56:42</time>
      </trkpt>
      <trkpt lat="41.79787" lon="0.92769">
        <ele>368.6</ele>
        <time>2022-05-23 15:56:43</time>
      </trkpt>
      <trkpt lat="41.79786" lon="0.92776">
        <ele>368.6</ele>
        <time>2022-05-23 15:56:44</time>
      </trkpt>
      <trkpt lat="41.79784" lon="0.92783">
        <ele>368.6</ele>
        <time>2022-05-23 15:56:45</time>
      </trkpt>
      <trkpt lat="41.79782" lon="0.9279">
        <ele>368.6</ele>
        <time>2022-05-23 15:56:46</time>
      </trkpt>
      <trkpt lat="41.79781" lon="0.92797">
        <ele>368.6</ele>
        <time>2022-05-23 15:56:47</time>
      </trkpt>
      <trkpt lat="41.79779" lon="0.92804">
        <ele>368.6</ele>
        <time>2022-05-23 15:56:48</time>
      </trkpt>
      <trkpt lat="41.79777" lon="0.92811">
        <ele>368.6</ele>
        <time>2022-05-23 15:56:49</time>
      </trkpt>
      <trkpt lat="41.79775" lon="0.92819">
        <ele>368.8</ele>
        <time>2022-05-23 15:56:50</time>
      </trkpt>
      <trkpt lat="41.79773" lon="0.92826">
        <ele>368.8</ele>
        <time>2022-05-23 15:56:51</time>
      </trkpt>
      <trkpt lat="41.79772" lon="0.92833">
        <ele>368.8</ele>
        <time>2022-05-23 15:56:52</time>
      </trkpt>
      <trkpt lat="41.7977" lon="0.92841">
        <ele>368.6</ele>
        <time>2022-05-23 15:56:53</time>
      </trkpt>
      <trkpt lat="41.79768" lon="0.92849">
        <ele>368.4</ele>
        <time>2022-05-23 15:56:54</time>
      </trkpt>
      <trkpt lat="41.79766" lon="0.92856">
        <ele>368.4</ele>
        <time>2022-05-23 15:56:55</time>
      </trkpt>
      <trkpt lat="41.79765" lon="0.92863">
        <ele>368.2</ele>
        <time>2022-05-23 15:56:56</time>
      </trkpt>
      <trkpt lat="41.79763" lon="0.92871">
        <ele>368</ele>
        <time>2022-05-23 15:56:57</time>
      </trkpt>
      <trkpt lat="41.79761" lon="0.92879">
        <ele>368</ele>
        <time>2022-05-23 15:56:58</time>
      </trkpt>
      <trkpt lat="41.79759" lon="0.92887">
        <ele>367.8</ele>
        <time>2022-05-23 15:56:59</time>
      </trkpt>
      <trkpt lat="41.79756" lon="0.92895">
        <ele>367.8</ele>
        <time>2022-05-23 15:57:00</time>
      </trkpt>
      <trkpt lat="41.79755" lon="0.92902">
        <ele>367.6</ele>
        <time>2022-05-23 15:57:01</time>
      </trkpt>
      <trkpt lat="41.79753" lon="0.92911">
        <ele>367.4</ele>
        <time>2022-05-23 15:57:02</time>
      </trkpt>
      <trkpt lat="41.79751" lon="0.9292">
        <ele>367.4</ele>
        <time>2022-05-23 15:57:03</time>
      </trkpt>
      <trkpt lat="41.79748" lon="0.92928">
        <ele>367.2</ele>
        <time>2022-05-23 15:57:04</time>
      </trkpt>
      <trkpt lat="41.79747" lon="0.92937">
        <ele>367</ele>
        <time>2022-05-23 15:57:05</time>
      </trkpt>
      <trkpt lat="41.79744" lon="0.92946">
        <ele>367</ele>
        <time>2022-05-23 15:57:06</time>
      </trkpt>
      <trkpt lat="41.79742" lon="0.92954">
        <ele>367</ele>
        <time>2022-05-23 15:57:07</time>
      </trkpt>
      <trkpt lat="41.7974" lon="0.92963">
        <ele>367</ele>
        <time>2022-05-23 15:57:08</time>
      </trkpt>
      <trkpt lat="41.79738" lon="0.92972">
        <ele>367</ele>
        <time>2022-05-23 15:57:09</time>
      </trkpt>
      <trkpt lat="41.79736" lon="0.92981">
        <ele>367</ele>
        <time>2022-05-23 15:57:10</time>
      </trkpt>
      <trkpt lat="41.79735" lon="0.92991">
        <ele>366.8</ele>
        <time>2022-05-23 15:57:11</time>
      </trkpt>
      <trkpt lat="41.79732" lon="0.92999">
        <ele>366.6</ele>
        <time>2022-05-23 15:57:12</time>
      </trkpt>
      <trkpt lat="41.79731" lon="0.93007">
        <ele>366.6</ele>
        <time>2022-05-23 15:57:13</time>
      </trkpt>
      <trkpt lat="41.79729" lon="0.93017">
        <ele>366.6</ele>
        <time>2022-05-23 15:57:14</time>
      </trkpt>
      <trkpt lat="41.79727" lon="0.93025">
        <ele>366.6</ele>
        <time>2022-05-23 15:57:15</time>
      </trkpt>
      <trkpt lat="41.79725" lon="0.93035">
        <ele>366.6</ele>
        <time>2022-05-23 15:57:16</time>
      </trkpt>
      <trkpt lat="41.79723" lon="0.93043">
        <ele>366.6</ele>
        <time>2022-05-23 15:57:17</time>
      </trkpt>
      <trkpt lat="41.79721" lon="0.93053">
        <ele>366.6</ele>
        <time>2022-05-23 15:57:18</time>
      </trkpt>
      <trkpt lat="41.7972" lon="0.93061">
        <ele>366.6</ele>
        <time>2022-05-23 15:57:19</time>
      </trkpt>
      <trkpt lat="41.79718" lon="0.93071">
        <ele>366.6</ele>
        <time>2022-05-23 15:57:20</time>
      </trkpt>
      <trkpt lat="41.79716" lon="0.9308">
        <ele>366.4</ele>
        <time>2022-05-23 15:57:21</time>
      </trkpt>
      <trkpt lat="41.79714" lon="0.93089">
        <ele>366.4</ele>
        <time>2022-05-23 15:57:22</time>
      </trkpt>
      <trkpt lat="41.79712" lon="0.93097">
        <ele>366.4</ele>
        <time>2022-05-23 15:57:23</time>
      </trkpt>
      <trkpt lat="41.7971" lon="0.93107">
        <ele>366.2</ele>
        <time>2022-05-23 15:57:24</time>
      </trkpt>
      <trkpt lat="41.79708" lon="0.93116">
        <ele>366.2</ele>
        <time>2022-05-23 15:57:25</time>
      </trkpt>
      <trkpt lat="41.79706" lon="0.93125">
        <ele>366</ele>
        <time>2022-05-23 15:57:26</time>
      </trkpt>
      <trkpt lat="41.79704" lon="0.93134">
        <ele>366</ele>
        <time>2022-05-23 15:57:27</time>
      </trkpt>
      <trkpt lat="41.79702" lon="0.93144">
        <ele>365.8</ele>
        <time>2022-05-23 15:57:28</time>
      </trkpt>
      <trkpt lat="41.797" lon="0.93153">
        <ele>365.6</ele>
        <time>2022-05-23 15:57:29</time>
      </trkpt>
      <trkpt lat="41.79699" lon="0.93162">
        <ele>365.4</ele>
        <time>2022-05-23 15:57:30</time>
      </trkpt>
      <trkpt lat="41.79697" lon="0.93171">
        <ele>365.4</ele>
        <time>2022-05-23 15:57:31</time>
      </trkpt>
      <trkpt lat="41.79695" lon="0.93181">
        <ele>365.2</ele>
        <time>2022-05-23 15:57:32</time>
      </trkpt>
      <trkpt lat="41.79694" lon="0.93189">
        <ele>365</ele>
        <time>2022-05-23 15:57:33</time>
      </trkpt>
      <trkpt lat="41.79692" lon="0.93199">
        <ele>364.8</ele>
        <time>2022-05-23 15:57:34</time>
      </trkpt>
      <trkpt lat="41.79691" lon="0.93208">
        <ele>364.8</ele>
        <time>2022-05-23 15:57:35</time>
      </trkpt>
      <trkpt lat="41.7969" lon="0.93217">
        <ele>364.8</ele>
        <time>2022-05-23 15:57:36</time>
      </trkpt>
      <trkpt lat="41.79689" lon="0.93226">
        <ele>364.6</ele>
        <time>2022-05-23 15:57:37</time>
      </trkpt>
      <trkpt lat="41.79687" lon="0.93235">
        <ele>364.6</ele>
        <time>2022-05-23 15:57:38</time>
      </trkpt>
      <trkpt lat="41.79687" lon="0.93245">
        <ele>364.6</ele>
        <time>2022-05-23 15:57:39</time>
      </trkpt>
      <trkpt lat="41.79686" lon="0.93254">
        <ele>364.6</ele>
        <time>2022-05-23 15:57:40</time>
      </trkpt>
      <trkpt lat="41.79685" lon="0.93263">
        <ele>364.6</ele>
        <time>2022-05-23 15:57:41</time>
      </trkpt>
      <trkpt lat="41.79684" lon="0.93272">
        <ele>364.4</ele>
        <time>2022-05-23 15:57:42</time>
      </trkpt>
      <trkpt lat="41.79684" lon="0.93281">
        <ele>364.2</ele>
        <time>2022-05-23 15:57:43</time>
      </trkpt>
      <trkpt lat="41.79683" lon="0.93293">
        <ele>364</ele>
        <time>2022-05-23 15:57:44</time>
      </trkpt>
      <trkpt lat="41.79683" lon="0.93303">
        <ele>363.8</ele>
        <time>2022-05-23 15:57:45</time>
      </trkpt>
      <trkpt lat="41.79682" lon="0.93314">
        <ele>363.8</ele>
        <time>2022-05-23 15:57:46</time>
      </trkpt>
      <trkpt lat="41.79682" lon="0.93324">
        <ele>363.6</ele>
        <time>2022-05-23 15:57:47</time>
      </trkpt>
      <trkpt lat="41.79683" lon="0.93335">
        <ele>363.4</ele>
        <time>2022-05-23 15:57:48</time>
      </trkpt>
      <trkpt lat="41.79683" lon="0.93346">
        <ele>363.2</ele>
        <time>2022-05-23 15:57:49</time>
      </trkpt>
      <trkpt lat="41.79683" lon="0.93357">
        <ele>363</ele>
        <time>2022-05-23 15:57:50</time>
      </trkpt>
      <trkpt lat="41.79683" lon="0.93367">
        <ele>362.8</ele>
        <time>2022-05-23 15:57:51</time>
      </trkpt>
      <trkpt lat="41.79684" lon="0.93379">
        <ele>362.4</ele>
        <time>2022-05-23 15:57:52</time>
      </trkpt>
      <trkpt lat="41.79685" lon="0.9339">
        <ele>362.2</ele>
        <time>2022-05-23 15:57:53</time>
      </trkpt>
      <trkpt lat="41.79685" lon="0.93403">
        <ele>361.8</ele>
        <time>2022-05-23 15:57:54</time>
      </trkpt>
      <trkpt lat="41.79686" lon="0.93413">
        <ele>361.6</ele>
        <time>2022-05-23 15:57:55</time>
      </trkpt>
      <trkpt lat="41.79688" lon="0.93426">
        <ele>361.2</ele>
        <time>2022-05-23 15:57:56</time>
      </trkpt>
      <trkpt lat="41.79689" lon="0.93437">
        <ele>361</ele>
        <time>2022-05-23 15:57:57</time>
      </trkpt>
      <trkpt lat="41.79689" lon="0.93449">
        <ele>360.6</ele>
        <time>2022-05-23 15:57:58</time>
      </trkpt>
      <trkpt lat="41.7969" lon="0.93463">
        <ele>360.4</ele>
        <time>2022-05-23 15:57:59</time>
      </trkpt>
      <trkpt lat="41.79691" lon="0.93474">
        <ele>360</ele>
        <time>2022-05-23 15:58:00</time>
      </trkpt>
      <trkpt lat="41.79692" lon="0.93487">
        <ele>359.8</ele>
        <time>2022-05-23 15:58:01</time>
      </trkpt>
      <trkpt lat="41.79693" lon="0.93501">
        <ele>359.4</ele>
        <time>2022-05-23 15:58:02</time>
      </trkpt>
      <trkpt lat="41.79693" lon="0.93515">
        <ele>359</ele>
        <time>2022-05-23 15:58:03</time>
      </trkpt>
      <trkpt lat="41.79693" lon="0.93528">
        <ele>358.6</ele>
        <time>2022-05-23 15:58:04</time>
      </trkpt>
      <trkpt lat="41.79693" lon="0.9354">
        <ele>358.2</ele>
        <time>2022-05-23 15:58:05</time>
      </trkpt>
      <trkpt lat="41.79692" lon="0.93555">
        <ele>357.8</ele>
        <time>2022-05-23 15:58:06</time>
      </trkpt>
      <trkpt lat="41.79693" lon="0.93566">
        <ele>357.4</ele>
        <time>2022-05-23 15:58:07</time>
      </trkpt>
      <trkpt lat="41.79693" lon="0.93578">
        <ele>357.2</ele>
        <time>2022-05-23 15:58:08</time>
      </trkpt>
      <trkpt lat="41.79693" lon="0.93595">
        <ele>356.8</ele>
        <time>2022-05-23 15:58:09</time>
      </trkpt>
      <trkpt lat="41.79693" lon="0.93606">
        <ele>356.6</ele>
        <time>2022-05-23 15:58:10</time>
      </trkpt>
      <trkpt lat="41.79692" lon="0.93623">
        <ele>356.2</ele>
        <time>2022-05-23 15:58:11</time>
      </trkpt>
      <trkpt lat="41.79691" lon="0.93636">
        <ele>356</ele>
        <time>2022-05-23 15:58:12</time>
      </trkpt>
      <trkpt lat="41.7969" lon="0.93648">
        <ele>355.8</ele>
        <time>2022-05-23 15:58:13</time>
      </trkpt>
      <trkpt lat="41.79689" lon="0.93664">
        <ele>355.4</ele>
        <time>2022-05-23 15:58:14</time>
      </trkpt>
      <trkpt lat="41.79688" lon="0.93678">
        <ele>355.2</ele>
        <time>2022-05-23 15:58:15</time>
      </trkpt>
      <trkpt lat="41.79688" lon="0.93692">
        <ele>354.8</ele>
        <time>2022-05-23 15:58:16</time>
      </trkpt>
      <trkpt lat="41.79686" lon="0.93705">
        <ele>354.4</ele>
        <time>2022-05-23 15:58:17</time>
      </trkpt>
      <trkpt lat="41.79685" lon="0.93718">
        <ele>354</ele>
        <time>2022-05-23 15:58:18</time>
      </trkpt>
      <trkpt lat="41.79684" lon="0.93734">
        <ele>353.6</ele>
        <time>2022-05-23 15:58:19</time>
      </trkpt>
      <trkpt lat="41.79683" lon="0.93748">
        <ele>353.2</ele>
        <time>2022-05-23 15:58:20</time>
      </trkpt>
      <trkpt lat="41.79682" lon="0.93761">
        <ele>352.8</ele>
        <time>2022-05-23 15:58:21</time>
      </trkpt>
      <trkpt lat="41.79681" lon="0.93778">
        <ele>352.6</ele>
        <time>2022-05-23 15:58:22</time>
      </trkpt>
      <trkpt lat="41.7968" lon="0.9379">
        <ele>352.2</ele>
        <time>2022-05-23 15:58:23</time>
      </trkpt>
      <trkpt lat="41.79679" lon="0.93806">
        <ele>352</ele>
        <time>2022-05-23 15:58:24</time>
      </trkpt>
      <trkpt lat="41.79678" lon="0.93818">
        <ele>351.6</ele>
        <time>2022-05-23 15:58:25</time>
      </trkpt>
      <trkpt lat="41.79677" lon="0.93833">
        <ele>351.4</ele>
        <time>2022-05-23 15:58:26</time>
      </trkpt>
      <trkpt lat="41.79676" lon="0.93849">
        <ele>351</ele>
        <time>2022-05-23 15:58:27</time>
      </trkpt>
      <trkpt lat="41.79675" lon="0.93861">
        <ele>350.6</ele>
        <time>2022-05-23 15:58:28</time>
      </trkpt>
      <trkpt lat="41.79674" lon="0.93879">
        <ele>350.4</ele>
        <time>2022-05-23 15:58:29</time>
      </trkpt>
      <trkpt lat="41.79673" lon="0.93891">
        <ele>350</ele>
        <time>2022-05-23 15:58:30</time>
      </trkpt>
      <trkpt lat="41.79673" lon="0.93906">
        <ele>349.8</ele>
        <time>2022-05-23 15:58:31</time>
      </trkpt>
      <trkpt lat="41.79673" lon="0.93923">
        <ele>349.6</ele>
        <time>2022-05-23 15:58:32</time>
      </trkpt>
      <trkpt lat="41.79673" lon="0.9394">
        <ele>349.4</ele>
        <time>2022-05-23 15:58:33</time>
      </trkpt>
      <trkpt lat="41.79673" lon="0.93953">
        <ele>349.4</ele>
        <time>2022-05-23 15:58:34</time>
      </trkpt>
      <trkpt lat="41.79671" lon="0.93969">
        <ele>349.4</ele>
        <time>2022-05-23 15:58:35</time>
      </trkpt>
      <trkpt lat="41.7967" lon="0.93981">
        <ele>349.2</ele>
        <time>2022-05-23 15:58:36</time>
      </trkpt>
      <trkpt lat="41.7967" lon="0.93998">
        <ele>349.2</ele>
        <time>2022-05-23 15:58:37</time>
      </trkpt>
      <trkpt lat="41.79668" lon="0.94011">
        <ele>349</ele>
        <time>2022-05-23 15:58:38</time>
      </trkpt>
      <trkpt lat="41.79666" lon="0.94025">
        <ele>349</ele>
        <time>2022-05-23 15:58:39</time>
      </trkpt>
      <trkpt lat="41.79664" lon="0.94035">
        <ele>349</ele>
        <time>2022-05-23 15:58:40</time>
      </trkpt>
      <trkpt lat="41.79662" lon="0.9405">
        <ele>349</ele>
        <time>2022-05-23 15:58:41</time>
      </trkpt>
      <trkpt lat="41.7966" lon="0.94062">
        <ele>349</ele>
        <time>2022-05-23 15:58:42</time>
      </trkpt>
      <trkpt lat="41.79659" lon="0.94075">
        <ele>348.8</ele>
        <time>2022-05-23 15:58:43</time>
      </trkpt>
      <trkpt lat="41.79657" lon="0.9409">
        <ele>348.8</ele>
        <time>2022-05-23 15:58:44</time>
      </trkpt>
      <trkpt lat="41.79656" lon="0.94101">
        <ele>348.8</ele>
        <time>2022-05-23 15:58:45</time>
      </trkpt>
      <trkpt lat="41.79655" lon="0.94116">
        <ele>348.8</ele>
        <time>2022-05-23 15:58:46</time>
      </trkpt>
      <trkpt lat="41.79654" lon="0.94129">
        <ele>348.8</ele>
        <time>2022-05-23 15:58:47</time>
      </trkpt>
      <trkpt lat="41.79653" lon="0.9414">
        <ele>348.8</ele>
        <time>2022-05-23 15:58:48</time>
      </trkpt>
      <trkpt lat="41.7965" lon="0.94154">
        <ele>348.8</ele>
        <time>2022-05-23 15:58:49</time>
      </trkpt>
      <trkpt lat="41.79649" lon="0.94165">
        <ele>348.8</ele>
        <time>2022-05-23 15:58:50</time>
      </trkpt>
      <trkpt lat="41.79647" lon="0.94179">
        <ele>348.8</ele>
        <time>2022-05-23 15:58:51</time>
      </trkpt>
      <trkpt lat="41.79646" lon="0.94192">
        <ele>349</ele>
        <time>2022-05-23 15:58:52</time>
      </trkpt>
      <trkpt lat="41.79644" lon="0.94205">
        <ele>349</ele>
        <time>2022-05-23 15:58:53</time>
      </trkpt>
      <trkpt lat="41.79643" lon="0.94218">
        <ele>349</ele>
        <time>2022-05-23 15:58:54</time>
      </trkpt>
      <trkpt lat="41.79644" lon="0.9423">
        <ele>349</ele>
        <time>2022-05-23 15:58:55</time>
      </trkpt>
      <trkpt lat="41.79644" lon="0.94242">
        <ele>349</ele>
        <time>2022-05-23 15:58:56</time>
      </trkpt>
      <trkpt lat="41.79644" lon="0.94255">
        <ele>349</ele>
        <time>2022-05-23 15:58:57</time>
      </trkpt>
      <trkpt lat="41.79644" lon="0.94266">
        <ele>349</ele>
        <time>2022-05-23 15:58:58</time>
      </trkpt>
      <trkpt lat="41.79645" lon="0.94278">
        <ele>349</ele>
        <time>2022-05-23 15:58:59</time>
      </trkpt>
      <trkpt lat="41.79645" lon="0.9429">
        <ele>349</ele>
        <time>2022-05-23 15:59:00</time>
      </trkpt>
      <trkpt lat="41.79646" lon="0.94303">
        <ele>349</ele>
        <time>2022-05-23 15:59:01</time>
      </trkpt>
      <trkpt lat="41.79646" lon="0.94314">
        <ele>348.8</ele>
        <time>2022-05-23 15:59:02</time>
      </trkpt>
      <trkpt lat="41.79647" lon="0.94325">
        <ele>348.8</ele>
        <time>2022-05-23 15:59:03</time>
      </trkpt>
      <trkpt lat="41.79648" lon="0.94337">
        <ele>348.8</ele>
        <time>2022-05-23 15:59:04</time>
      </trkpt>
      <trkpt lat="41.7965" lon="0.94348">
        <ele>348.8</ele>
        <time>2022-05-23 15:59:05</time>
      </trkpt>
      <trkpt lat="41.79652" lon="0.94359">
        <ele>348.6</ele>
        <time>2022-05-23 15:59:06</time>
      </trkpt>
      <trkpt lat="41.79654" lon="0.9437">
        <ele>348.6</ele>
        <time>2022-05-23 15:59:07</time>
      </trkpt>
      <trkpt lat="41.79656" lon="0.9438">
        <ele>348.6</ele>
        <time>2022-05-23 15:59:08</time>
      </trkpt>
      <trkpt lat="41.79659" lon="0.94391">
        <ele>348.6</ele>
        <time>2022-05-23 15:59:09</time>
      </trkpt>
      <trkpt lat="41.79661" lon="0.94401">
        <ele>348.4</ele>
        <time>2022-05-23 15:59:10</time>
      </trkpt>
      <trkpt lat="41.79664" lon="0.94411">
        <ele>348.4</ele>
        <time>2022-05-23 15:59:11</time>
      </trkpt>
      <trkpt lat="41.79667" lon="0.94421">
        <ele>348.4</ele>
        <time>2022-05-23 15:59:12</time>
      </trkpt>
      <trkpt lat="41.7967" lon="0.94431">
        <ele>348.6</ele>
        <time>2022-05-23 15:59:13</time>
      </trkpt>
      <trkpt lat="41.79674" lon="0.94441">
        <ele>348.6</ele>
        <time>2022-05-23 15:59:14</time>
      </trkpt>
      <trkpt lat="41.79677" lon="0.9445">
        <ele>348.6</ele>
        <time>2022-05-23 15:59:15</time>
      </trkpt>
      <trkpt lat="41.79682" lon="0.9446">
        <ele>348.6</ele>
        <time>2022-05-23 15:59:16</time>
      </trkpt>
      <trkpt lat="41.79685" lon="0.94469">
        <ele>348.6</ele>
        <time>2022-05-23 15:59:17</time>
      </trkpt>
      <trkpt lat="41.7969" lon="0.94478">
        <ele>348.6</ele>
        <time>2022-05-23 15:59:18</time>
      </trkpt>
      <trkpt lat="41.79694" lon="0.94487">
        <ele>348.6</ele>
        <time>2022-05-23 15:59:19</time>
      </trkpt>
      <trkpt lat="41.79699" lon="0.94496">
        <ele>348.6</ele>
        <time>2022-05-23 15:59:20</time>
      </trkpt>
      <trkpt lat="41.79704" lon="0.94505">
        <ele>348.6</ele>
        <time>2022-05-23 15:59:21</time>
      </trkpt>
      <trkpt lat="41.79708" lon="0.94514">
        <ele>348.6</ele>
        <time>2022-05-23 15:59:22</time>
      </trkpt>
      <trkpt lat="41.79713" lon="0.94522">
        <ele>348.8</ele>
        <time>2022-05-23 15:59:23</time>
      </trkpt>
      <trkpt lat="41.79718" lon="0.94531">
        <ele>348.8</ele>
        <time>2022-05-23 15:59:24</time>
      </trkpt>
      <trkpt lat="41.79723" lon="0.94539">
        <ele>348.8</ele>
        <time>2022-05-23 15:59:25</time>
      </trkpt>
      <trkpt lat="41.79729" lon="0.94546">
        <ele>348.6</ele>
        <time>2022-05-23 15:59:26</time>
      </trkpt>
      <trkpt lat="41.79733" lon="0.94553">
        <ele>348.6</ele>
        <time>2022-05-23 15:59:27</time>
      </trkpt>
      <trkpt lat="41.79739" lon="0.9456">
        <ele>348.6</ele>
        <time>2022-05-23 15:59:28</time>
      </trkpt>
      <trkpt lat="41.79744" lon="0.94567">
        <ele>348.6</ele>
        <time>2022-05-23 15:59:29</time>
      </trkpt>
      <trkpt lat="41.7975" lon="0.94574">
        <ele>348.4</ele>
        <time>2022-05-23 15:59:30</time>
      </trkpt>
      <trkpt lat="41.79755" lon="0.9458">
        <ele>348.4</ele>
        <time>2022-05-23 15:59:31</time>
      </trkpt>
      <trkpt lat="41.79761" lon="0.94587">
        <ele>348.2</ele>
        <time>2022-05-23 15:59:32</time>
      </trkpt>
      <trkpt lat="41.79766" lon="0.94593">
        <ele>348</ele>
        <time>2022-05-23 15:59:33</time>
      </trkpt>
      <trkpt lat="41.79771" lon="0.94599">
        <ele>348</ele>
        <time>2022-05-23 15:59:34</time>
      </trkpt>
      <trkpt lat="41.79777" lon="0.94605">
        <ele>348</ele>
        <time>2022-05-23 15:59:35</time>
      </trkpt>
      <trkpt lat="41.79782" lon="0.94612">
        <ele>348</ele>
        <time>2022-05-23 15:59:36</time>
      </trkpt>
      <trkpt lat="41.79787" lon="0.94618">
        <ele>348</ele>
        <time>2022-05-23 15:59:37</time>
      </trkpt>
      <trkpt lat="41.79793" lon="0.94625">
        <ele>348</ele>
        <time>2022-05-23 15:59:38</time>
      </trkpt>
      <trkpt lat="41.79798" lon="0.94631">
        <ele>348</ele>
        <time>2022-05-23 15:59:39</time>
      </trkpt>
      <trkpt lat="41.79803" lon="0.94638">
        <ele>348</ele>
        <time>2022-05-23 15:59:40</time>
      </trkpt>
      <trkpt lat="41.79807" lon="0.94645">
        <ele>348.2</ele>
        <time>2022-05-23 15:59:41</time>
      </trkpt>
      <trkpt lat="41.79812" lon="0.94651">
        <ele>348.2</ele>
        <time>2022-05-23 15:59:42</time>
      </trkpt>
      <trkpt lat="41.79817" lon="0.94658">
        <ele>348.4</ele>
        <time>2022-05-23 15:59:43</time>
      </trkpt>
      <trkpt lat="41.79822" lon="0.94665">
        <ele>348.4</ele>
        <time>2022-05-23 15:59:44</time>
      </trkpt>
      <trkpt lat="41.79826" lon="0.94671">
        <ele>348.4</ele>
        <time>2022-05-23 15:59:45</time>
      </trkpt>
      <trkpt lat="41.79831" lon="0.94678">
        <ele>348.4</ele>
        <time>2022-05-23 15:59:46</time>
      </trkpt>
      <trkpt lat="41.79835" lon="0.94684">
        <ele>348.6</ele>
        <time>2022-05-23 15:59:47</time>
      </trkpt>
      <trkpt lat="41.7984" lon="0.94691">
        <ele>348.6</ele>
        <time>2022-05-23 15:59:48</time>
      </trkpt>
      <trkpt lat="41.79844" lon="0.94699">
        <ele>348.6</ele>
        <time>2022-05-23 15:59:49</time>
      </trkpt>
      <trkpt lat="41.79848" lon="0.94706">
        <ele>348.6</ele>
        <time>2022-05-23 15:59:50</time>
      </trkpt>
      <trkpt lat="41.79852" lon="0.94714">
        <ele>348.6</ele>
        <time>2022-05-23 15:59:51</time>
      </trkpt>
      <trkpt lat="41.79855" lon="0.94721">
        <ele>348.4</ele>
        <time>2022-05-23 15:59:52</time>
      </trkpt>
      <trkpt lat="41.79859" lon="0.94729">
        <ele>348.4</ele>
        <time>2022-05-23 15:59:53</time>
      </trkpt>
      <trkpt lat="41.79862" lon="0.94736">
        <ele>348.4</ele>
        <time>2022-05-23 15:59:54</time>
      </trkpt>
      <trkpt lat="41.79865" lon="0.94744">
        <ele>348.4</ele>
        <time>2022-05-23 15:59:55</time>
      </trkpt>
      <trkpt lat="41.79868" lon="0.94752">
        <ele>348.4</ele>
        <time>2022-05-23 15:59:56</time>
      </trkpt>
      <trkpt lat="41.79872" lon="0.9476">
        <ele>348.4</ele>
        <time>2022-05-23 15:59:57</time>
      </trkpt>
      <trkpt lat="41.79874" lon="0.94767">
        <ele>348.4</ele>
        <time>2022-05-23 15:59:58</time>
      </trkpt>
      <trkpt lat="41.79878" lon="0.94774">
        <ele>348.6</ele>
        <time>2022-05-23 15:59:59</time>
      </trkpt>
      <trkpt lat="41.79881" lon="0.94782">
        <ele>348.6</ele>
        <time>2022-05-23 16:00:00</time>
      </trkpt>
      <trkpt lat="41.79884" lon="0.9479">
        <ele>348.6</ele>
        <time>2022-05-23 16:00:01</time>
      </trkpt>
      <trkpt lat="41.79887" lon="0.94798">
        <ele>348.6</ele>
        <time>2022-05-23 16:00:02</time>
      </trkpt>
      <trkpt lat="41.7989" lon="0.94805">
        <ele>348.6</ele>
        <time>2022-05-23 16:00:03</time>
      </trkpt>
      <trkpt lat="41.79894" lon="0.94813">
        <ele>348.6</ele>
        <time>2022-05-23 16:00:04</time>
      </trkpt>
      <trkpt lat="41.79897" lon="0.94821">
        <ele>348.8</ele>
        <time>2022-05-23 16:00:05</time>
      </trkpt>
      <trkpt lat="41.799" lon="0.94828">
        <ele>349</ele>
        <time>2022-05-23 16:00:06</time>
      </trkpt>
      <trkpt lat="41.79903" lon="0.94835">
        <ele>349</ele>
        <time>2022-05-23 16:00:07</time>
      </trkpt>
      <trkpt lat="41.79906" lon="0.94843">
        <ele>349</ele>
        <time>2022-05-23 16:00:08</time>
      </trkpt>
      <trkpt lat="41.79909" lon="0.9485">
        <ele>349</ele>
        <time>2022-05-23 16:00:09</time>
      </trkpt>
      <trkpt lat="41.79913" lon="0.94858">
        <ele>349</ele>
        <time>2022-05-23 16:00:10</time>
      </trkpt>
      <trkpt lat="41.79916" lon="0.94865">
        <ele>349.2</ele>
        <time>2022-05-23 16:00:11</time>
      </trkpt>
      <trkpt lat="41.79919" lon="0.94873">
        <ele>349.2</ele>
        <time>2022-05-23 16:00:12</time>
      </trkpt>
      <trkpt lat="41.79922" lon="0.94881">
        <ele>349.2</ele>
        <time>2022-05-23 16:00:13</time>
      </trkpt>
      <trkpt lat="41.79925" lon="0.94889">
        <ele>349.2</ele>
        <time>2022-05-23 16:00:14</time>
      </trkpt>
      <trkpt lat="41.79929" lon="0.94898">
        <ele>349.2</ele>
        <time>2022-05-23 16:00:15</time>
      </trkpt>
      <trkpt lat="41.79932" lon="0.94906">
        <ele>349.2</ele>
        <time>2022-05-23 16:00:16</time>
      </trkpt>
      <trkpt lat="41.79935" lon="0.94914">
        <ele>349.2</ele>
        <time>2022-05-23 16:00:17</time>
      </trkpt>
      <trkpt lat="41.79938" lon="0.94922">
        <ele>349.2</ele>
        <time>2022-05-23 16:00:18</time>
      </trkpt>
      <trkpt lat="41.79941" lon="0.9493">
        <ele>349.2</ele>
        <time>2022-05-23 16:00:19</time>
      </trkpt>
      <trkpt lat="41.79945" lon="0.94938">
        <ele>349.2</ele>
        <time>2022-05-23 16:00:20</time>
      </trkpt>
      <trkpt lat="41.79948" lon="0.94946">
        <ele>349.2</ele>
        <time>2022-05-23 16:00:21</time>
      </trkpt>
      <trkpt lat="41.79951" lon="0.94954">
        <ele>349.4</ele>
        <time>2022-05-23 16:00:22</time>
      </trkpt>
      <trkpt lat="41.79954" lon="0.94963">
        <ele>349.4</ele>
        <time>2022-05-23 16:00:23</time>
      </trkpt>
      <trkpt lat="41.79957" lon="0.94971">
        <ele>349.4</ele>
        <time>2022-05-23 16:00:24</time>
      </trkpt>
      <trkpt lat="41.79961" lon="0.94979">
        <ele>349.6</ele>
        <time>2022-05-23 16:00:25</time>
      </trkpt>
      <trkpt lat="41.79964" lon="0.94987">
        <ele>349.6</ele>
        <time>2022-05-23 16:00:26</time>
      </trkpt>
      <trkpt lat="41.79966" lon="0.94995">
        <ele>349.6</ele>
        <time>2022-05-23 16:00:27</time>
      </trkpt>
      <trkpt lat="41.79969" lon="0.95003">
        <ele>349.8</ele>
        <time>2022-05-23 16:00:28</time>
      </trkpt>
      <trkpt lat="41.79972" lon="0.9501">
        <ele>349.8</ele>
        <time>2022-05-23 16:00:29</time>
      </trkpt>
      <trkpt lat="41.79974" lon="0.95018">
        <ele>350</ele>
        <time>2022-05-23 16:00:30</time>
      </trkpt>
      <trkpt lat="41.79976" lon="0.95026">
        <ele>350</ele>
        <time>2022-05-23 16:00:31</time>
      </trkpt>
      <trkpt lat="41.79979" lon="0.95034">
        <ele>350.2</ele>
        <time>2022-05-23 16:00:32</time>
      </trkpt>
      <trkpt lat="41.79981" lon="0.95042">
        <ele>350.2</ele>
        <time>2022-05-23 16:00:33</time>
      </trkpt>
      <trkpt lat="41.79983" lon="0.9505">
        <ele>350.2</ele>
        <time>2022-05-23 16:00:34</time>
      </trkpt>
      <trkpt lat="41.79985" lon="0.95058">
        <ele>350.4</ele>
        <time>2022-05-23 16:00:35</time>
      </trkpt>
      <trkpt lat="41.79987" lon="0.95067">
        <ele>350.4</ele>
        <time>2022-05-23 16:00:36</time>
      </trkpt>
      <trkpt lat="41.79989" lon="0.95075">
        <ele>350.4</ele>
        <time>2022-05-23 16:00:37</time>
      </trkpt>
      <trkpt lat="41.7999" lon="0.95083">
        <ele>350.4</ele>
        <time>2022-05-23 16:00:38</time>
      </trkpt>
      <trkpt lat="41.79992" lon="0.95091">
        <ele>350.6</ele>
        <time>2022-05-23 16:00:39</time>
      </trkpt>
      <trkpt lat="41.79993" lon="0.951">
        <ele>350.6</ele>
        <time>2022-05-23 16:00:40</time>
      </trkpt>
      <trkpt lat="41.79995" lon="0.95108">
        <ele>350.8</ele>
        <time>2022-05-23 16:00:41</time>
      </trkpt>
      <trkpt lat="41.79996" lon="0.95116">
        <ele>351</ele>
        <time>2022-05-23 16:00:42</time>
      </trkpt>
      <trkpt lat="41.79997" lon="0.95125">
        <ele>351.2</ele>
        <time>2022-05-23 16:00:43</time>
      </trkpt>
      <trkpt lat="41.79998" lon="0.95133">
        <ele>351.2</ele>
        <time>2022-05-23 16:00:44</time>
      </trkpt>
      <trkpt lat="41.79999" lon="0.95142">
        <ele>351.2</ele>
        <time>2022-05-23 16:00:45</time>
      </trkpt>
      <trkpt lat="41.8" lon="0.95151">
        <ele>351.2</ele>
        <time>2022-05-23 16:00:46</time>
      </trkpt>
      <trkpt lat="41.8" lon="0.9516">
        <ele>351.2</ele>
        <time>2022-05-23 16:00:47</time>
      </trkpt>
      <trkpt lat="41.80001" lon="0.95169">
        <ele>351.2</ele>
        <time>2022-05-23 16:00:48</time>
      </trkpt>
      <trkpt lat="41.80001" lon="0.95178">
        <ele>351.4</ele>
        <time>2022-05-23 16:00:49</time>
      </trkpt>
      <trkpt lat="41.80002" lon="0.95187">
        <ele>351.4</ele>
        <time>2022-05-23 16:00:50</time>
      </trkpt>
      <trkpt lat="41.80002" lon="0.95197">
        <ele>351.4</ele>
        <time>2022-05-23 16:00:51</time>
      </trkpt>
      <trkpt lat="41.80003" lon="0.95207">
        <ele>351.4</ele>
        <time>2022-05-23 16:00:52</time>
      </trkpt>
      <trkpt lat="41.80003" lon="0.95216">
        <ele>351.4</ele>
        <time>2022-05-23 16:00:53</time>
      </trkpt>
      <trkpt lat="41.80003" lon="0.95225">
        <ele>351.4</ele>
        <time>2022-05-23 16:00:54</time>
      </trkpt>
      <trkpt lat="41.80003" lon="0.95235">
        <ele>351.4</ele>
        <time>2022-05-23 16:00:55</time>
      </trkpt>
      <trkpt lat="41.80003" lon="0.95244">
        <ele>351.2</ele>
        <time>2022-05-23 16:00:56</time>
      </trkpt>
      <trkpt lat="41.80003" lon="0.95253">
        <ele>351.2</ele>
        <time>2022-05-23 16:00:57</time>
      </trkpt>
      <trkpt lat="41.80003" lon="0.95263">
        <ele>351.4</ele>
        <time>2022-05-23 16:00:58</time>
      </trkpt>
      <trkpt lat="41.80003" lon="0.95272">
        <ele>351.4</ele>
        <time>2022-05-23 16:00:59</time>
      </trkpt>
      <trkpt lat="41.80003" lon="0.95281">
        <ele>351.4</ele>
        <time>2022-05-23 16:01:00</time>
      </trkpt>
      <trkpt lat="41.80003" lon="0.95291">
        <ele>351.4</ele>
        <time>2022-05-23 16:01:01</time>
      </trkpt>
      <trkpt lat="41.80003" lon="0.953">
        <ele>351.4</ele>
        <time>2022-05-23 16:01:02</time>
      </trkpt>
      <trkpt lat="41.80003" lon="0.95309">
        <ele>351.6</ele>
        <time>2022-05-23 16:01:03</time>
      </trkpt>
      <trkpt lat="41.80003" lon="0.95318">
        <ele>351.6</ele>
        <time>2022-05-23 16:01:04</time>
      </trkpt>
      <trkpt lat="41.80004" lon="0.95327">
        <ele>351.6</ele>
        <time>2022-05-23 16:01:05</time>
      </trkpt>
      <trkpt lat="41.80005" lon="0.95336">
        <ele>351.6</ele>
        <time>2022-05-23 16:01:06</time>
      </trkpt>
      <trkpt lat="41.80005" lon="0.95344">
        <ele>351.6</ele>
        <time>2022-05-23 16:01:07</time>
      </trkpt>
      <trkpt lat="41.80006" lon="0.95354">
        <ele>351.6</ele>
        <time>2022-05-23 16:01:08</time>
      </trkpt>
      <trkpt lat="41.80006" lon="0.95362">
        <ele>351.6</ele>
        <time>2022-05-23 16:01:09</time>
      </trkpt>
      <trkpt lat="41.80006" lon="0.95371">
        <ele>351.6</ele>
        <time>2022-05-23 16:01:10</time>
      </trkpt>
      <trkpt lat="41.80007" lon="0.9538">
        <ele>351.6</ele>
        <time>2022-05-23 16:01:11</time>
      </trkpt>
      <trkpt lat="41.80007" lon="0.95388">
        <ele>351.6</ele>
        <time>2022-05-23 16:01:12</time>
      </trkpt>
      <trkpt lat="41.80007" lon="0.95397">
        <ele>351.6</ele>
        <time>2022-05-23 16:01:13</time>
      </trkpt>
      <trkpt lat="41.80006" lon="0.95405">
        <ele>351.6</ele>
        <time>2022-05-23 16:01:14</time>
      </trkpt>
      <trkpt lat="41.80006" lon="0.95413">
        <ele>351.6</ele>
        <time>2022-05-23 16:01:15</time>
      </trkpt>
      <trkpt lat="41.80004" lon="0.95422">
        <ele>351.6</ele>
        <time>2022-05-23 16:01:16</time>
      </trkpt>
      <trkpt lat="41.80003" lon="0.95429">
        <ele>351.6</ele>
        <time>2022-05-23 16:01:17</time>
      </trkpt>
      <trkpt lat="41.80001" lon="0.95437">
        <ele>351.6</ele>
        <time>2022-05-23 16:01:18</time>
      </trkpt>
      <trkpt lat="41.79999" lon="0.95445">
        <ele>351.6</ele>
        <time>2022-05-23 16:01:19</time>
      </trkpt>
      <trkpt lat="41.79997" lon="0.95452">
        <ele>351.6</ele>
        <time>2022-05-23 16:01:20</time>
      </trkpt>
      <trkpt lat="41.79995" lon="0.9546">
        <ele>351.8</ele>
        <time>2022-05-23 16:01:21</time>
      </trkpt>
      <trkpt lat="41.79993" lon="0.95467">
        <ele>351.8</ele>
        <time>2022-05-23 16:01:22</time>
      </trkpt>
      <trkpt lat="41.79991" lon="0.95474">
        <ele>351.8</ele>
        <time>2022-05-23 16:01:23</time>
      </trkpt>
      <trkpt lat="41.79989" lon="0.9548">
        <ele>352</ele>
        <time>2022-05-23 16:01:24</time>
      </trkpt>
      <trkpt lat="41.79986" lon="0.95488">
        <ele>352</ele>
        <time>2022-05-23 16:01:25</time>
      </trkpt>
      <trkpt lat="41.79984" lon="0.95495">
        <ele>352</ele>
        <time>2022-05-23 16:01:26</time>
      </trkpt>
      <trkpt lat="41.79982" lon="0.95502">
        <ele>352</ele>
        <time>2022-05-23 16:01:27</time>
      </trkpt>
      <trkpt lat="41.7998" lon="0.9551">
        <ele>352.2</ele>
        <time>2022-05-23 16:01:28</time>
      </trkpt>
      <trkpt lat="41.79978" lon="0.95517">
        <ele>352.4</ele>
        <time>2022-05-23 16:01:29</time>
      </trkpt>
      <trkpt lat="41.79976" lon="0.95524">
        <ele>352.4</ele>
        <time>2022-05-23 16:01:30</time>
      </trkpt>
      <trkpt lat="41.79974" lon="0.95529">
        <ele>352.6</ele>
        <time>2022-05-23 16:01:31</time>
      </trkpt>
      <trkpt lat="41.79971" lon="0.95537">
        <ele>352.6</ele>
        <time>2022-05-23 16:01:32</time>
      </trkpt>
      <trkpt lat="41.79969" lon="0.95543">
        <ele>352.6</ele>
        <time>2022-05-23 16:01:33</time>
      </trkpt>
      <trkpt lat="41.79966" lon="0.9555">
        <ele>352.8</ele>
        <time>2022-05-23 16:01:34</time>
      </trkpt>
      <trkpt lat="41.79964" lon="0.95556">
        <ele>352.8</ele>
        <time>2022-05-23 16:01:35</time>
      </trkpt>
      <trkpt lat="41.79961" lon="0.95562">
        <ele>353</ele>
        <time>2022-05-23 16:01:36</time>
      </trkpt>
      <trkpt lat="41.79958" lon="0.95568">
        <ele>353.2</ele>
        <time>2022-05-23 16:01:37</time>
      </trkpt>
      <trkpt lat="41.79956" lon="0.95574">
        <ele>353.4</ele>
        <time>2022-05-23 16:01:38</time>
      </trkpt>
      <trkpt lat="41.79953" lon="0.9558">
        <ele>353.4</ele>
        <time>2022-05-23 16:01:39</time>
      </trkpt>
      <trkpt lat="41.7995" lon="0.95586">
        <ele>353.4</ele>
        <time>2022-05-23 16:01:40</time>
      </trkpt>
      <trkpt lat="41.79948" lon="0.95592">
        <ele>353.6</ele>
        <time>2022-05-23 16:01:41</time>
      </trkpt>
      <trkpt lat="41.79944" lon="0.95597">
        <ele>353.6</ele>
        <time>2022-05-23 16:01:42</time>
      </trkpt>
      <trkpt lat="41.79942" lon="0.95602">
        <ele>353.8</ele>
        <time>2022-05-23 16:01:43</time>
      </trkpt>
      <trkpt lat="41.79939" lon="0.95607">
        <ele>353.8</ele>
        <time>2022-05-23 16:01:44</time>
      </trkpt>
      <trkpt lat="41.79937" lon="0.95611">
        <ele>354</ele>
        <time>2022-05-23 16:01:45</time>
      </trkpt>
      <trkpt lat="41.79936" lon="0.95614">
        <ele>354.2</ele>
        <time>2022-05-23 16:01:46</time>
      </trkpt>
      <trkpt lat="41.79933" lon="0.95629">
        <ele>355</ele>
        <time>2022-05-23 16:01:47</time>
      </trkpt>
      <trkpt lat="41.79932" lon="0.95631">
        <ele>355</ele>
        <time>2022-05-23 16:01:48</time>
      </trkpt>
      <trkpt lat="41.79932" lon="0.95634">
        <ele>355</ele>
        <time>2022-05-23 16:01:49</time>
      </trkpt>
      <trkpt lat="41.79931" lon="0.95636">
        <ele>355</ele>
        <time>2022-05-23 16:01:50</time>
      </trkpt>
      <trkpt lat="41.7993" lon="0.95639">
        <ele>355</ele>
        <time>2022-05-23 16:01:51</time>
      </trkpt>
      <trkpt lat="41.79929" lon="0.95642">
        <ele>355</ele>
        <time>2022-05-23 16:01:52</time>
      </trkpt>
      <trkpt lat="41.79929" lon="0.95645">
        <ele>355</ele>
        <time>2022-05-23 16:01:53</time>
      </trkpt>
      <trkpt lat="41.79928" lon="0.95648">
        <ele>355</ele>
        <time>2022-05-23 16:01:54</time>
      </trkpt>
      <trkpt lat="41.79927" lon="0.95651">
        <ele>354.8</ele>
        <time>2022-05-23 16:01:55</time>
      </trkpt>
      <trkpt lat="41.79926" lon="0.95655">
        <ele>354.8</ele>
        <time>2022-05-23 16:01:56</time>
      </trkpt>
      <trkpt lat="41.79925" lon="0.95658">
        <ele>354.8</ele>
        <time>2022-05-23 16:01:57</time>
      </trkpt>
      <trkpt lat="41.79924" lon="0.9566">
        <ele>355</ele>
        <time>2022-05-23 16:01:58</time>
      </trkpt>
      <trkpt lat="41.79924" lon="0.95663">
        <ele>355</ele>
        <time>2022-05-23 16:01:59</time>
      </trkpt>
      <trkpt lat="41.79923" lon="0.95666">
        <ele>355</ele>
        <time>2022-05-23 16:02:00</time>
      </trkpt>
      <trkpt lat="41.79922" lon="0.9567">
        <ele>355</ele>
        <time>2022-05-23 16:02:01</time>
      </trkpt>
      <trkpt lat="41.79921" lon="0.95673">
        <ele>355</ele>
        <time>2022-05-23 16:02:02</time>
      </trkpt>
      <trkpt lat="41.79921" lon="0.95677">
        <ele>355</ele>
        <time>2022-05-23 16:02:03</time>
      </trkpt>
      <trkpt lat="41.7992" lon="0.95681">
        <ele>355</ele>
        <time>2022-05-23 16:02:04</time>
      </trkpt>
      <trkpt lat="41.79919" lon="0.95686">
        <ele>355</ele>
        <time>2022-05-23 16:02:05</time>
      </trkpt>
      <trkpt lat="41.79918" lon="0.95691">
        <ele>354.8</ele>
        <time>2022-05-23 16:02:06</time>
      </trkpt>
      <trkpt lat="41.79917" lon="0.95696">
        <ele>354.8</ele>
        <time>2022-05-23 16:02:07</time>
      </trkpt>
      <trkpt lat="41.79916" lon="0.95701">
        <ele>354.8</ele>
        <time>2022-05-23 16:02:08</time>
      </trkpt>
      <trkpt lat="41.79915" lon="0.95705">
        <ele>355</ele>
        <time>2022-05-23 16:02:09</time>
      </trkpt>
      <trkpt lat="41.79914" lon="0.95709">
        <ele>355</ele>
        <time>2022-05-23 16:02:10</time>
      </trkpt>
      <trkpt lat="41.79913" lon="0.95713">
        <ele>355.2</ele>
        <time>2022-05-23 16:22:59</time>
      </trkpt>
      <trkpt lat="41.79911" lon="0.95715">
        <ele>355</ele>
        <time>2022-05-23 16:23:00</time>
      </trkpt>
      <trkpt lat="41.79909" lon="0.95719">
        <ele>355</ele>
        <time>2022-05-23 16:23:01</time>
      </trkpt>
      <trkpt lat="41.79907" lon="0.95722">
        <ele>355</ele>
        <time>2022-05-23 16:23:02</time>
      </trkpt>
      <trkpt lat="41.79905" lon="0.95725">
        <ele>355</ele>
        <time>2022-05-23 16:23:03</time>
      </trkpt>
      <trkpt lat="41.79903" lon="0.95729">
        <ele>355</ele>
        <time>2022-05-23 16:23:04</time>
      </trkpt>
      <trkpt lat="41.79901" lon="0.95731">
        <ele>355</ele>
        <time>2022-05-23 16:23:05</time>
      </trkpt>
      <trkpt lat="41.79898" lon="0.95734">
        <ele>354.8</ele>
        <time>2022-05-23 16:23:06</time>
      </trkpt>
      <trkpt lat="41.79896" lon="0.95736">
        <ele>354.8</ele>
        <time>2022-05-23 16:23:07</time>
      </trkpt>
      <trkpt lat="41.79892" lon="0.95737">
        <ele>354.8</ele>
        <time>2022-05-23 16:23:08</time>
      </trkpt>
      <trkpt lat="41.79889" lon="0.95738">
        <ele>354.8</ele>
        <time>2022-05-23 16:23:09</time>
      </trkpt>
      <trkpt lat="41.79886" lon="0.95738">
        <ele>354.8</ele>
        <time>2022-05-23 16:23:10</time>
      </trkpt>
      <trkpt lat="41.79882" lon="0.95739">
        <ele>354.8</ele>
        <time>2022-05-23 16:23:11</time>
      </trkpt>
      <trkpt lat="41.79878" lon="0.95739">
        <ele>354.8</ele>
        <time>2022-05-23 16:23:12</time>
      </trkpt>
      <trkpt lat="41.79876" lon="0.9574">
        <ele>354.8</ele>
        <time>2022-05-23 16:23:13</time>
      </trkpt>
      <trkpt lat="41.79872" lon="0.9574">
        <ele>355</ele>
        <time>2022-05-23 16:23:14</time>
      </trkpt>
      <trkpt lat="41.79869" lon="0.95739">
        <ele>355.2</ele>
        <time>2022-05-23 16:23:15</time>
      </trkpt>
      <trkpt lat="41.79866" lon="0.95739">
        <ele>355.2</ele>
        <time>2022-05-23 16:23:16</time>
      </trkpt>
      <trkpt lat="41.79863" lon="0.9574">
        <ele>355.4</ele>
        <time>2022-05-23 16:23:17</time>
      </trkpt>
      <trkpt lat="41.79859" lon="0.9574">
        <ele>355.6</ele>
        <time>2022-05-23 16:23:18</time>
      </trkpt>
      <trkpt lat="41.79856" lon="0.9574">
        <ele>355.6</ele>
        <time>2022-05-23 16:23:19</time>
      </trkpt>
      <trkpt lat="41.79853" lon="0.9574">
        <ele>355.8</ele>
        <time>2022-05-23 16:23:20</time>
      </trkpt>
      <trkpt lat="41.7985" lon="0.95739">
        <ele>356</ele>
        <time>2022-05-23 16:23:21</time>
      </trkpt>
      <trkpt lat="41.79848" lon="0.95739">
        <ele>356</ele>
        <time>2022-05-23 16:23:22</time>
      </trkpt>
      <trkpt lat="41.79845" lon="0.95739">
        <ele>356.2</ele>
        <time>2022-05-23 16:23:23</time>
      </trkpt>
      <trkpt lat="41.79842" lon="0.95739">
        <ele>356.2</ele>
        <time>2022-05-23 16:23:24</time>
      </trkpt>
      <trkpt lat="41.79839" lon="0.95739">
        <ele>356.4</ele>
        <time>2022-05-23 16:23:25</time>
      </trkpt>
      <trkpt lat="41.79836" lon="0.9574">
        <ele>356.4</ele>
        <time>2022-05-23 16:23:26</time>
      </trkpt>
      <trkpt lat="41.79833" lon="0.9574">
        <ele>356.4</ele>
        <time>2022-05-23 16:23:27</time>
      </trkpt>
      <trkpt lat="41.7983" lon="0.95739">
        <ele>356.4</ele>
        <time>2022-05-23 16:23:28</time>
      </trkpt>
      <trkpt lat="41.79827" lon="0.95739">
        <ele>356.6</ele>
        <time>2022-05-23 16:23:29</time>
      </trkpt>
      <trkpt lat="41.79824" lon="0.95739">
        <ele>356.6</ele>
        <time>2022-05-23 16:23:30</time>
      </trkpt>
      <trkpt lat="41.79821" lon="0.95739">
        <ele>356.6</ele>
        <time>2022-05-23 16:23:31</time>
      </trkpt>
      <trkpt lat="41.79817" lon="0.95739">
        <ele>356.8</ele>
        <time>2022-05-23 16:23:32</time>
      </trkpt>
      <trkpt lat="41.79813" lon="0.95739">
        <ele>356.8</ele>
        <time>2022-05-23 16:23:33</time>
      </trkpt>
      <trkpt lat="41.7981" lon="0.95739">
        <ele>356.8</ele>
        <time>2022-05-23 16:23:34</time>
      </trkpt>
      <trkpt lat="41.79807" lon="0.95739">
        <ele>357</ele>
        <time>2022-05-23 16:23:35</time>
      </trkpt>
      <trkpt lat="41.79804" lon="0.95739">
        <ele>357.2</ele>
        <time>2022-05-23 16:23:36</time>
      </trkpt>
      <trkpt lat="41.79801" lon="0.95739">
        <ele>357.2</ele>
        <time>2022-05-23 16:23:37</time>
      </trkpt>
      <trkpt lat="41.79798" lon="0.95739">
        <ele>357.2</ele>
        <time>2022-05-23 16:23:38</time>
      </trkpt>
      <trkpt lat="41.79795" lon="0.95739">
        <ele>357.4</ele>
        <time>2022-05-23 16:23:39</time>
      </trkpt>
      <trkpt lat="41.79792" lon="0.95739">
        <ele>357.6</ele>
        <time>2022-05-23 16:23:40</time>
      </trkpt>
      <trkpt lat="41.79788" lon="0.95739">
        <ele>357.6</ele>
        <time>2022-05-23 16:23:41</time>
      </trkpt>
      <trkpt lat="41.79785" lon="0.95739">
        <ele>357.6</ele>
        <time>2022-05-23 16:23:42</time>
      </trkpt>
      <trkpt lat="41.79781" lon="0.95739">
        <ele>357.8</ele>
        <time>2022-05-23 16:23:43</time>
      </trkpt>
      <trkpt lat="41.79778" lon="0.95739">
        <ele>357.8</ele>
        <time>2022-05-23 16:23:44</time>
      </trkpt>
      <trkpt lat="41.79775" lon="0.95739">
        <ele>357.8</ele>
        <time>2022-05-23 16:23:45</time>
      </trkpt>
      <trkpt lat="41.79772" lon="0.95739">
        <ele>357.8</ele>
        <time>2022-05-23 16:23:46</time>
      </trkpt>
      <trkpt lat="41.79768" lon="0.95739">
        <ele>357.8</ele>
        <time>2022-05-23 16:23:47</time>
      </trkpt>
      <trkpt lat="41.79764" lon="0.95739">
        <ele>357.8</ele>
        <time>2022-05-23 16:23:48</time>
      </trkpt>
      <trkpt lat="41.79761" lon="0.95739">
        <ele>357.8</ele>
        <time>2022-05-23 16:23:49</time>
      </trkpt>
      <trkpt lat="41.79757" lon="0.95739">
        <ele>358</ele>
        <time>2022-05-23 16:23:50</time>
      </trkpt>
      <trkpt lat="41.79754" lon="0.95739">
        <ele>358.2</ele>
        <time>2022-05-23 16:23:51</time>
      </trkpt>
      <trkpt lat="41.79751" lon="0.95739">
        <ele>358.4</ele>
        <time>2022-05-23 16:23:52</time>
      </trkpt>
      <trkpt lat="41.79748" lon="0.95739">
        <ele>358.4</ele>
        <time>2022-05-23 16:23:53</time>
      </trkpt>
      <trkpt lat="41.79745" lon="0.95739">
        <ele>358.6</ele>
        <time>2022-05-23 16:23:54</time>
      </trkpt>
      <trkpt lat="41.79742" lon="0.95739">
        <ele>358.6</ele>
        <time>2022-05-23 16:23:55</time>
      </trkpt>
      <trkpt lat="41.79739" lon="0.95739">
        <ele>358.8</ele>
        <time>2022-05-23 16:23:56</time>
      </trkpt>
      <trkpt lat="41.79736" lon="0.95738">
        <ele>359</ele>
        <time>2022-05-23 16:23:57</time>
      </trkpt>
      <trkpt lat="41.79733" lon="0.95738">
        <ele>359</ele>
        <time>2022-05-23 16:23:58</time>
      </trkpt>
      <trkpt lat="41.7973" lon="0.95738">
        <ele>359.2</ele>
        <time>2022-05-23 16:23:59</time>
      </trkpt>
      <trkpt lat="41.79727" lon="0.95738">
        <ele>359.2</ele>
        <time>2022-05-23 16:24:00</time>
      </trkpt>
      <trkpt lat="41.79724" lon="0.95738">
        <ele>359.4</ele>
        <time>2022-05-23 16:24:01</time>
      </trkpt>
      <trkpt lat="41.79722" lon="0.95738">
        <ele>359.4</ele>
        <time>2022-05-23 16:24:02</time>
      </trkpt>
      <trkpt lat="41.79719" lon="0.95738">
        <ele>359.4</ele>
        <time>2022-05-23 16:24:03</time>
      </trkpt>
      <trkpt lat="41.79716" lon="0.95738">
        <ele>359.6</ele>
        <time>2022-05-23 16:24:04</time>
      </trkpt>
      <trkpt lat="41.79713" lon="0.95738">
        <ele>359.6</ele>
        <time>2022-05-23 16:24:05</time>
      </trkpt>
      <trkpt lat="41.7971" lon="0.95738">
        <ele>359.6</ele>
        <time>2022-05-23 16:24:06</time>
      </trkpt>
      <trkpt lat="41.79707" lon="0.95738">
        <ele>359.6</ele>
        <time>2022-05-23 16:24:07</time>
      </trkpt>
      <trkpt lat="41.79705" lon="0.95738">
        <ele>359.8</ele>
        <time>2022-05-23 16:24:08</time>
      </trkpt>
      <trkpt lat="41.79702" lon="0.95738">
        <ele>359.8</ele>
        <time>2022-05-23 16:24:09</time>
      </trkpt>
      <trkpt lat="41.79699" lon="0.95738">
        <ele>359.8</ele>
        <time>2022-05-23 16:24:10</time>
      </trkpt>
      <trkpt lat="41.79696" lon="0.95738">
        <ele>360</ele>
        <time>2022-05-23 16:24:11</time>
      </trkpt>
      <trkpt lat="41.79693" lon="0.95738">
        <ele>360</ele>
        <time>2022-05-23 16:24:12</time>
      </trkpt>
      <trkpt lat="41.79691" lon="0.95738">
        <ele>360.2</ele>
        <time>2022-05-23 16:24:13</time>
      </trkpt>
      <trkpt lat="41.79688" lon="0.95738">
        <ele>360.2</ele>
        <time>2022-05-23 16:24:14</time>
      </trkpt>
      <trkpt lat="41.79685" lon="0.95738">
        <ele>360.4</ele>
        <time>2022-05-23 16:24:15</time>
      </trkpt>
      <trkpt lat="41.79682" lon="0.95738">
        <ele>360.4</ele>
        <time>2022-05-23 16:24:16</time>
      </trkpt>
      <trkpt lat="41.7968" lon="0.95737">
        <ele>360.4</ele>
        <time>2022-05-23 16:24:17</time>
      </trkpt>
      <trkpt lat="41.79677" lon="0.95737">
        <ele>360.6</ele>
        <time>2022-05-23 16:24:18</time>
      </trkpt>
      <trkpt lat="41.79675" lon="0.95737">
        <ele>360.6</ele>
        <time>2022-05-23 16:24:19</time>
      </trkpt>
      <trkpt lat="41.79672" lon="0.95737">
        <ele>360.8</ele>
        <time>2022-05-23 16:24:20</time>
      </trkpt>
      <trkpt lat="41.79669" lon="0.95737">
        <ele>360.8</ele>
        <time>2022-05-23 16:24:21</time>
      </trkpt>
      <trkpt lat="41.79667" lon="0.95737">
        <ele>360.8</ele>
        <time>2022-05-23 16:24:22</time>
      </trkpt>
      <trkpt lat="41.79665" lon="0.95737">
        <ele>361</ele>
        <time>2022-05-23 16:24:23</time>
      </trkpt>
      <trkpt lat="41.79662" lon="0.95737">
        <ele>361</ele>
        <time>2022-05-23 16:24:24</time>
      </trkpt>
      <trkpt lat="41.79659" lon="0.95737">
        <ele>361.2</ele>
        <time>2022-05-23 16:24:25</time>
      </trkpt>
      <trkpt lat="41.79657" lon="0.95737">
        <ele>361.2</ele>
        <time>2022-05-23 16:24:26</time>
      </trkpt>
      <trkpt lat="41.79654" lon="0.95737">
        <ele>361.2</ele>
        <time>2022-05-23 16:24:27</time>
      </trkpt>
      <trkpt lat="41.79652" lon="0.95737">
        <ele>361.2</ele>
        <time>2022-05-23 16:24:28</time>
      </trkpt>
      <trkpt lat="41.79649" lon="0.95736">
        <ele>361.4</ele>
        <time>2022-05-23 16:24:29</time>
      </trkpt>
      <trkpt lat="41.79646" lon="0.95736">
        <ele>361.4</ele>
        <time>2022-05-23 16:24:30</time>
      </trkpt>
      <trkpt lat="41.79643" lon="0.95736">
        <ele>361.6</ele>
        <time>2022-05-23 16:24:31</time>
      </trkpt>
      <trkpt lat="41.7964" lon="0.95736">
        <ele>361.6</ele>
        <time>2022-05-23 16:24:32</time>
      </trkpt>
      <trkpt lat="41.79638" lon="0.95736">
        <ele>361.8</ele>
        <time>2022-05-23 16:24:33</time>
      </trkpt>
      <trkpt lat="41.79635" lon="0.95736">
        <ele>361.8</ele>
        <time>2022-05-23 16:24:34</time>
      </trkpt>
      <trkpt lat="41.79632" lon="0.95736">
        <ele>361.8</ele>
        <time>2022-05-23 16:24:35</time>
      </trkpt>
      <trkpt lat="41.79629" lon="0.95736">
        <ele>361.8</ele>
        <time>2022-05-23 16:24:36</time>
      </trkpt>
      <trkpt lat="41.79627" lon="0.95736">
        <ele>361.8</ele>
        <time>2022-05-23 16:24:37</time>
      </trkpt>
      <trkpt lat="41.79624" lon="0.95736">
        <ele>362</ele>
        <time>2022-05-23 16:24:38</time>
      </trkpt>
      <trkpt lat="41.79621" lon="0.95737">
        <ele>362</ele>
        <time>2022-05-23 16:24:39</time>
      </trkpt>
      <trkpt lat="41.79619" lon="0.95737">
        <ele>362</ele>
        <time>2022-05-23 16:24:40</time>
      </trkpt>
      <trkpt lat="41.79616" lon="0.95737">
        <ele>362</ele>
        <time>2022-05-23 16:24:41</time>
      </trkpt>
      <trkpt lat="41.79613" lon="0.95737">
        <ele>362.2</ele>
        <time>2022-05-23 16:24:42</time>
      </trkpt>
      <trkpt lat="41.7961" lon="0.95737">
        <ele>362.2</ele>
        <time>2022-05-23 16:24:43</time>
      </trkpt>
      <trkpt lat="41.79607" lon="0.95737">
        <ele>362.4</ele>
        <time>2022-05-23 16:24:44</time>
      </trkpt>
      <trkpt lat="41.79604" lon="0.95738">
        <ele>362.4</ele>
        <time>2022-05-23 16:24:45</time>
      </trkpt>
      <trkpt lat="41.79601" lon="0.95738">
        <ele>362.4</ele>
        <time>2022-05-23 16:24:46</time>
      </trkpt>
      <trkpt lat="41.79598" lon="0.95739">
        <ele>362.6</ele>
        <time>2022-05-23 16:24:47</time>
      </trkpt>
      <trkpt lat="41.79595" lon="0.9574">
        <ele>362.6</ele>
        <time>2022-05-23 16:24:48</time>
      </trkpt>
      <trkpt lat="41.79592" lon="0.95741">
        <ele>362.8</ele>
        <time>2022-05-23 16:24:49</time>
      </trkpt>
      <trkpt lat="41.79589" lon="0.95742">
        <ele>363</ele>
        <time>2022-05-23 16:24:50</time>
      </trkpt>
      <trkpt lat="41.79586" lon="0.95743">
        <ele>363</ele>
        <time>2022-05-23 16:24:51</time>
      </trkpt>
      <trkpt lat="41.79583" lon="0.95744">
        <ele>363.2</ele>
        <time>2022-05-23 16:24:52</time>
      </trkpt>
      <trkpt lat="41.7958" lon="0.95745">
        <ele>363.4</ele>
        <time>2022-05-23 16:24:53</time>
      </trkpt>
      <trkpt lat="41.79577" lon="0.95746">
        <ele>363.4</ele>
        <time>2022-05-23 16:24:54</time>
      </trkpt>
      <trkpt lat="41.79574" lon="0.95747">
        <ele>363.4</ele>
        <time>2022-05-23 16:24:55</time>
      </trkpt>
      <trkpt lat="41.79571" lon="0.95747">
        <ele>363.4</ele>
        <time>2022-05-23 16:24:56</time>
      </trkpt>
      <trkpt lat="41.79568" lon="0.95748">
        <ele>363.4</ele>
        <time>2022-05-23 16:24:57</time>
      </trkpt>
      <trkpt lat="41.79565" lon="0.95749">
        <ele>363.6</ele>
        <time>2022-05-23 16:24:58</time>
      </trkpt>
      <trkpt lat="41.79561" lon="0.9575">
        <ele>363.6</ele>
        <time>2022-05-23 16:24:59</time>
      </trkpt>
      <trkpt lat="41.79558" lon="0.95751">
        <ele>363.8</ele>
        <time>2022-05-23 16:25:00</time>
      </trkpt>
      <trkpt lat="41.79555" lon="0.95752">
        <ele>363.8</ele>
        <time>2022-05-23 16:25:01</time>
      </trkpt>
      <trkpt lat="41.79552" lon="0.95753">
        <ele>363.8</ele>
        <time>2022-05-23 16:25:02</time>
      </trkpt>
      <trkpt lat="41.79549" lon="0.95754">
        <ele>363.8</ele>
        <time>2022-05-23 16:25:03</time>
      </trkpt>
      <trkpt lat="41.79546" lon="0.95754">
        <ele>363.8</ele>
        <time>2022-05-23 16:25:04</time>
      </trkpt>
      <trkpt lat="41.79544" lon="0.95755">
        <ele>364</ele>
        <time>2022-05-23 16:25:05</time>
      </trkpt>
      <trkpt lat="41.7954" lon="0.95755">
        <ele>364</ele>
        <time>2022-05-23 16:25:06</time>
      </trkpt>
      <trkpt lat="41.79537" lon="0.95756">
        <ele>364</ele>
        <time>2022-05-23 16:25:07</time>
      </trkpt>
      <trkpt lat="41.79534" lon="0.95758">
        <ele>364.2</ele>
        <time>2022-05-23 16:25:08</time>
      </trkpt>
      <trkpt lat="41.79531" lon="0.95759">
        <ele>364.2</ele>
        <time>2022-05-23 16:25:09</time>
      </trkpt>
      <trkpt lat="41.79528" lon="0.9576">
        <ele>364.2</ele>
        <time>2022-05-23 16:25:10</time>
      </trkpt>
      <trkpt lat="41.79525" lon="0.95761">
        <ele>364.2</ele>
        <time>2022-05-23 16:25:11</time>
      </trkpt>
      <trkpt lat="41.79522" lon="0.95763">
        <ele>364.4</ele>
        <time>2022-05-23 16:25:12</time>
      </trkpt>
      <trkpt lat="41.7952" lon="0.95763">
        <ele>364.4</ele>
        <time>2022-05-23 16:25:13</time>
      </trkpt>
      <trkpt lat="41.79516" lon="0.95765">
        <ele>364.4</ele>
        <time>2022-05-23 16:25:14</time>
      </trkpt>
      <trkpt lat="41.79513" lon="0.95765">
        <ele>364.4</ele>
        <time>2022-05-23 16:25:15</time>
      </trkpt>
      <trkpt lat="41.7951" lon="0.95766">
        <ele>364.6</ele>
        <time>2022-05-23 16:25:16</time>
      </trkpt>
      <trkpt lat="41.79507" lon="0.95767">
        <ele>364.6</ele>
        <time>2022-05-23 16:25:17</time>
      </trkpt>
      <trkpt lat="41.79504" lon="0.95768">
        <ele>364.8</ele>
        <time>2022-05-23 16:25:18</time>
      </trkpt>
      <trkpt lat="41.79501" lon="0.95769">
        <ele>364.8</ele>
        <time>2022-05-23 16:25:19</time>
      </trkpt>
      <trkpt lat="41.79497" lon="0.9577">
        <ele>364.8</ele>
        <time>2022-05-23 16:25:20</time>
      </trkpt>
      <trkpt lat="41.79494" lon="0.95771">
        <ele>365</ele>
        <time>2022-05-23 16:25:21</time>
      </trkpt>
      <trkpt lat="41.79491" lon="0.95771">
        <ele>365</ele>
        <time>2022-05-23 16:25:22</time>
      </trkpt>
      <trkpt lat="41.79487" lon="0.95772">
        <ele>365.2</ele>
        <time>2022-05-23 16:25:23</time>
      </trkpt>
      <trkpt lat="41.79484" lon="0.95773">
        <ele>365.2</ele>
        <time>2022-05-23 16:25:24</time>
      </trkpt>
      <trkpt lat="41.79481" lon="0.95774">
        <ele>365.2</ele>
        <time>2022-05-23 16:25:25</time>
      </trkpt>
      <trkpt lat="41.79478" lon="0.95775">
        <ele>365.2</ele>
        <time>2022-05-23 16:25:26</time>
      </trkpt>
      <trkpt lat="41.79475" lon="0.95776">
        <ele>365.4</ele>
        <time>2022-05-23 16:25:27</time>
      </trkpt>
      <trkpt lat="41.79472" lon="0.95777">
        <ele>365.4</ele>
        <time>2022-05-23 16:25:28</time>
      </trkpt>
      <trkpt lat="41.79469" lon="0.95778">
        <ele>365.6</ele>
        <time>2022-05-23 16:25:29</time>
      </trkpt>
      <trkpt lat="41.79466" lon="0.95779">
        <ele>365.6</ele>
        <time>2022-05-23 16:25:30</time>
      </trkpt>
      <trkpt lat="41.79463" lon="0.9578">
        <ele>365.8</ele>
        <time>2022-05-23 16:25:31</time>
      </trkpt>
      <trkpt lat="41.7946" lon="0.9578">
        <ele>365.8</ele>
        <time>2022-05-23 16:25:32</time>
      </trkpt>
      <trkpt lat="41.79457" lon="0.95781">
        <ele>366</ele>
        <time>2022-05-23 16:25:33</time>
      </trkpt>
      <trkpt lat="41.79454" lon="0.95782">
        <ele>366</ele>
        <time>2022-05-23 16:25:34</time>
      </trkpt>
      <trkpt lat="41.79451" lon="0.95783">
        <ele>366</ele>
        <time>2022-05-23 16:25:35</time>
      </trkpt>
      <trkpt lat="41.79448" lon="0.95784">
        <ele>366.2</ele>
        <time>2022-05-23 16:25:36</time>
      </trkpt>
      <trkpt lat="41.79445" lon="0.95785">
        <ele>366.2</ele>
        <time>2022-05-23 16:25:37</time>
      </trkpt>
      <trkpt lat="41.79442" lon="0.95786">
        <ele>366.4</ele>
        <time>2022-05-23 16:25:38</time>
      </trkpt>
      <trkpt lat="41.79439" lon="0.95787">
        <ele>366.4</ele>
        <time>2022-05-23 16:25:39</time>
      </trkpt>
      <trkpt lat="41.79436" lon="0.95787">
        <ele>366.6</ele>
        <time>2022-05-23 16:25:40</time>
      </trkpt>
      <trkpt lat="41.79433" lon="0.95788">
        <ele>366.6</ele>
        <time>2022-05-23 16:25:41</time>
      </trkpt>
      <trkpt lat="41.7943" lon="0.95789">
        <ele>366.6</ele>
        <time>2022-05-23 16:25:42</time>
      </trkpt>
      <trkpt lat="41.79426" lon="0.9579">
        <ele>366.6</ele>
        <time>2022-05-23 16:25:43</time>
      </trkpt>
      <trkpt lat="41.79423" lon="0.95791">
        <ele>366.6</ele>
        <time>2022-05-23 16:25:44</time>
      </trkpt>
      <trkpt lat="41.7942" lon="0.95792">
        <ele>366.8</ele>
        <time>2022-05-23 16:25:45</time>
      </trkpt>
      <trkpt lat="41.79417" lon="0.95793">
        <ele>366.8</ele>
        <time>2022-05-23 16:25:46</time>
      </trkpt>
      <trkpt lat="41.79414" lon="0.95794">
        <ele>366.8</ele>
        <time>2022-05-23 16:25:47</time>
      </trkpt>
      <trkpt lat="41.79411" lon="0.95795">
        <ele>366.8</ele>
        <time>2022-05-23 16:25:48</time>
      </trkpt>
      <trkpt lat="41.79408" lon="0.95796">
        <ele>367</ele>
        <time>2022-05-23 16:25:49</time>
      </trkpt>
      <trkpt lat="41.79405" lon="0.95797">
        <ele>367</ele>
        <time>2022-05-23 16:25:50</time>
      </trkpt>
      <trkpt lat="41.79402" lon="0.95798">
        <ele>367</ele>
        <time>2022-05-23 16:25:51</time>
      </trkpt>
      <trkpt lat="41.794" lon="0.95799">
        <ele>366.8</ele>
        <time>2022-05-23 16:25:52</time>
      </trkpt>
      <trkpt lat="41.79396" lon="0.95799">
        <ele>366.8</ele>
        <time>2022-05-23 16:25:53</time>
      </trkpt>
      <trkpt lat="41.79393" lon="0.958">
        <ele>366.8</ele>
        <time>2022-05-23 16:25:54</time>
      </trkpt>
      <trkpt lat="41.79391" lon="0.95801">
        <ele>366.8</ele>
        <time>2022-05-23 16:25:55</time>
      </trkpt>
      <trkpt lat="41.79388" lon="0.95801">
        <ele>367</ele>
        <time>2022-05-23 16:25:56</time>
      </trkpt>
      <trkpt lat="41.79385" lon="0.95802">
        <ele>367</ele>
        <time>2022-05-23 16:25:57</time>
      </trkpt>
      <trkpt lat="41.79382" lon="0.95803">
        <ele>367.2</ele>
        <time>2022-05-23 16:25:58</time>
      </trkpt>
      <trkpt lat="41.79379" lon="0.95804">
        <ele>367.2</ele>
        <time>2022-05-23 16:25:59</time>
      </trkpt>
      <trkpt lat="41.79376" lon="0.95805">
        <ele>367.4</ele>
        <time>2022-05-23 16:26:00</time>
      </trkpt>
      <trkpt lat="41.79373" lon="0.95806">
        <ele>367.6</ele>
        <time>2022-05-23 16:26:01</time>
      </trkpt>
      <trkpt lat="41.79371" lon="0.95807">
        <ele>367.6</ele>
        <time>2022-05-23 16:26:02</time>
      </trkpt>
      <trkpt lat="41.79367" lon="0.95807">
        <ele>367.6</ele>
        <time>2022-05-23 16:26:03</time>
      </trkpt>
      <trkpt lat="41.79364" lon="0.95808">
        <ele>367.8</ele>
        <time>2022-05-23 16:26:04</time>
      </trkpt>
      <trkpt lat="41.79362" lon="0.95809">
        <ele>367.8</ele>
        <time>2022-05-23 16:26:05</time>
      </trkpt>
      <trkpt lat="41.79358" lon="0.9581">
        <ele>367.8</ele>
        <time>2022-05-23 16:26:06</time>
      </trkpt>
      <trkpt lat="41.79354" lon="0.95812">
        <ele>367.8</ele>
        <time>2022-05-23 16:26:07</time>
      </trkpt>
      <trkpt lat="41.79352" lon="0.95812">
        <ele>368</ele>
        <time>2022-05-23 16:26:08</time>
      </trkpt>
      <trkpt lat="41.79348" lon="0.95814">
        <ele>368.2</ele>
        <time>2022-05-23 16:26:09</time>
      </trkpt>
      <trkpt lat="41.79345" lon="0.95814">
        <ele>368.2</ele>
        <time>2022-05-23 16:26:10</time>
      </trkpt>
      <trkpt lat="41.79343" lon="0.95815">
        <ele>368.2</ele>
        <time>2022-05-23 16:26:11</time>
      </trkpt>
      <trkpt lat="41.7934" lon="0.95816">
        <ele>368.2</ele>
        <time>2022-05-23 16:26:12</time>
      </trkpt>
      <trkpt lat="41.79338" lon="0.95817">
        <ele>368.2</ele>
        <time>2022-05-23 16:26:13</time>
      </trkpt>
      <trkpt lat="41.79336" lon="0.95817">
        <ele>368.4</ele>
        <time>2022-05-23 16:26:14</time>
      </trkpt>
      <trkpt lat="41.79334" lon="0.95818">
        <ele>368.4</ele>
        <time>2022-05-23 16:26:15</time>
      </trkpt>
      <trkpt lat="41.79333" lon="0.95818">
        <ele>368.4</ele>
        <time>2022-05-23 16:26:16</time>
      </trkpt>
      <trkpt lat="41.79331" lon="0.95819">
        <ele>368.4</ele>
        <time>2022-05-23 16:26:17</time>
      </trkpt>
      <trkpt lat="41.79328" lon="0.95819">
        <ele>368.6</ele>
        <time>2022-05-23 16:26:18</time>
      </trkpt>
      <trkpt lat="41.79326" lon="0.9582">
        <ele>368.6</ele>
        <time>2022-05-23 16:26:19</time>
      </trkpt>
      <trkpt lat="41.79324" lon="0.9582">
        <ele>368.6</ele>
        <time>2022-05-23 16:26:20</time>
      </trkpt>
      <trkpt lat="41.79322" lon="0.95821">
        <ele>368.8</ele>
        <time>2022-05-23 16:26:21</time>
      </trkpt>
      <trkpt lat="41.79319" lon="0.95822">
        <ele>368.8</ele>
        <time>2022-05-23 16:26:22</time>
      </trkpt>
      <trkpt lat="41.79316" lon="0.95823">
        <ele>368.8</ele>
        <time>2022-05-23 16:26:23</time>
      </trkpt>
      <trkpt lat="41.79313" lon="0.95824">
        <ele>369</ele>
        <time>2022-05-23 16:26:24</time>
      </trkpt>
      <trkpt lat="41.79311" lon="0.95825">
        <ele>369</ele>
        <time>2022-05-23 16:26:25</time>
      </trkpt>
      <trkpt lat="41.79308" lon="0.95826">
        <ele>369.2</ele>
        <time>2022-05-23 16:26:26</time>
      </trkpt>
      <trkpt lat="41.79305" lon="0.95827">
        <ele>369.2</ele>
        <time>2022-05-23 16:26:27</time>
      </trkpt>
      <trkpt lat="41.79302" lon="0.95828">
        <ele>369.2</ele>
        <time>2022-05-23 16:26:28</time>
      </trkpt>
      <trkpt lat="41.79299" lon="0.95828">
        <ele>369.2</ele>
        <time>2022-05-23 16:26:29</time>
      </trkpt>
      <trkpt lat="41.79296" lon="0.95829">
        <ele>369.4</ele>
        <time>2022-05-23 16:26:30</time>
      </trkpt>
      <trkpt lat="41.79293" lon="0.95829">
        <ele>369.4</ele>
        <time>2022-05-23 16:26:31</time>
      </trkpt>
      <trkpt lat="41.7929" lon="0.9583">
        <ele>369.6</ele>
        <time>2022-05-23 16:26:32</time>
      </trkpt>
      <trkpt lat="41.79287" lon="0.95832">
        <ele>369.8</ele>
        <time>2022-05-23 16:26:33</time>
      </trkpt>
      <trkpt lat="41.79284" lon="0.95833">
        <ele>370</ele>
        <time>2022-05-23 16:26:34</time>
      </trkpt>
      <trkpt lat="41.79281" lon="0.95834">
        <ele>370.2</ele>
        <time>2022-05-23 16:26:35</time>
      </trkpt>
      <trkpt lat="41.79278" lon="0.95835">
        <ele>370.2</ele>
        <time>2022-05-23 16:26:36</time>
      </trkpt>
      <trkpt lat="41.79275" lon="0.95836">
        <ele>370.4</ele>
        <time>2022-05-23 16:26:37</time>
      </trkpt>
      <trkpt lat="41.79273" lon="0.95837">
        <ele>370.4</ele>
        <time>2022-05-23 16:26:38</time>
      </trkpt>
      <trkpt lat="41.7927" lon="0.95838">
        <ele>370.4</ele>
        <time>2022-05-23 16:26:39</time>
      </trkpt>
      <trkpt lat="41.79267" lon="0.95839">
        <ele>370.6</ele>
        <time>2022-05-23 16:26:40</time>
      </trkpt>
      <trkpt lat="41.79264" lon="0.9584">
        <ele>370.6</ele>
        <time>2022-05-23 16:26:41</time>
      </trkpt>
      <trkpt lat="41.79261" lon="0.9584">
        <ele>370.6</ele>
        <time>2022-05-23 16:26:42</time>
      </trkpt>
      <trkpt lat="41.79258" lon="0.95841">
        <ele>370.6</ele>
        <time>2022-05-23 16:26:43</time>
      </trkpt>
      <trkpt lat="41.79256" lon="0.95842">
        <ele>370.6</ele>
        <time>2022-05-23 16:26:44</time>
      </trkpt>
      <trkpt lat="41.79253" lon="0.95842">
        <ele>370.6</ele>
        <time>2022-05-23 16:26:45</time>
      </trkpt>
      <trkpt lat="41.7925" lon="0.95843">
        <ele>370.6</ele>
        <time>2022-05-23 16:26:46</time>
      </trkpt>
      <trkpt lat="41.79247" lon="0.95843">
        <ele>370.8</ele>
        <time>2022-05-23 16:26:47</time>
      </trkpt>
      <trkpt lat="41.79244" lon="0.95844">
        <ele>371</ele>
        <time>2022-05-23 16:26:48</time>
      </trkpt>
      <trkpt lat="41.79241" lon="0.95845">
        <ele>371</ele>
        <time>2022-05-23 16:26:49</time>
      </trkpt>
      <trkpt lat="41.79238" lon="0.95846">
        <ele>371</ele>
        <time>2022-05-23 16:26:50</time>
      </trkpt>
      <trkpt lat="41.79235" lon="0.95847">
        <ele>371.2</ele>
        <time>2022-05-23 16:26:51</time>
      </trkpt>
      <trkpt lat="41.79232" lon="0.95848">
        <ele>371.2</ele>
        <time>2022-05-23 16:26:52</time>
      </trkpt>
      <trkpt lat="41.79229" lon="0.95849">
        <ele>371.4</ele>
        <time>2022-05-23 16:26:53</time>
      </trkpt>
      <trkpt lat="41.79227" lon="0.95849">
        <ele>371.4</ele>
        <time>2022-05-23 16:26:54</time>
      </trkpt>
      <trkpt lat="41.79223" lon="0.9585">
        <ele>371.4</ele>
        <time>2022-05-23 16:26:55</time>
      </trkpt>
      <trkpt lat="41.7922" lon="0.95851">
        <ele>371.4</ele>
        <time>2022-05-23 16:26:56</time>
      </trkpt>
      <trkpt lat="41.79217" lon="0.95852">
        <ele>371.4</ele>
        <time>2022-05-23 16:26:57</time>
      </trkpt>
      <trkpt lat="41.79215" lon="0.95852">
        <ele>371.4</ele>
        <time>2022-05-23 16:26:58</time>
      </trkpt>
      <trkpt lat="41.79212" lon="0.95853">
        <ele>371.6</ele>
        <time>2022-05-23 16:26:59</time>
      </trkpt>
      <trkpt lat="41.79209" lon="0.95854">
        <ele>371.6</ele>
        <time>2022-05-23 16:27:00</time>
      </trkpt>
      <trkpt lat="41.79206" lon="0.95855">
        <ele>371.8</ele>
        <time>2022-05-23 16:27:01</time>
      </trkpt>
      <trkpt lat="41.79203" lon="0.95856">
        <ele>371.8</ele>
        <time>2022-05-23 16:27:02</time>
      </trkpt>
      <trkpt lat="41.792" lon="0.95857">
        <ele>371.8</ele>
        <time>2022-05-23 16:27:03</time>
      </trkpt>
      <trkpt lat="41.79198" lon="0.95858">
        <ele>372</ele>
        <time>2022-05-23 16:27:04</time>
      </trkpt>
      <trkpt lat="41.79195" lon="0.95859">
        <ele>372</ele>
        <time>2022-05-23 16:27:05</time>
      </trkpt>
      <trkpt lat="41.79191" lon="0.95859">
        <ele>372.2</ele>
        <time>2022-05-23 16:27:06</time>
      </trkpt>
      <trkpt lat="41.79188" lon="0.9586">
        <ele>372.4</ele>
        <time>2022-05-23 16:27:07</time>
      </trkpt>
      <trkpt lat="41.79184" lon="0.9586">
        <ele>372.4</ele>
        <time>2022-05-23 16:27:08</time>
      </trkpt>
      <trkpt lat="41.79182" lon="0.95861">
        <ele>372.4</ele>
        <time>2022-05-23 16:27:09</time>
      </trkpt>
      <trkpt lat="41.79181" lon="0.95862">
        <ele>372.4</ele>
        <time>2022-05-23 16:27:10</time>
      </trkpt>
      <trkpt lat="41.79178" lon="0.95863">
        <ele>372.6</ele>
        <time>2022-05-23 16:27:11</time>
      </trkpt>
      <trkpt lat="41.79175" lon="0.95863">
        <ele>372.6</ele>
        <time>2022-05-23 16:27:12</time>
      </trkpt>
      <trkpt lat="41.79173" lon="0.95864">
        <ele>372.6</ele>
        <time>2022-05-23 16:27:13</time>
      </trkpt>
      <trkpt lat="41.79169" lon="0.95864">
        <ele>372.8</ele>
        <time>2022-05-23 16:27:14</time>
      </trkpt>
      <trkpt lat="41.79167" lon="0.95865">
        <ele>372.8</ele>
        <time>2022-05-23 16:27:15</time>
      </trkpt>
      <trkpt lat="41.79164" lon="0.95866">
        <ele>373</ele>
        <time>2022-05-23 16:27:16</time>
      </trkpt>
      <trkpt lat="41.79162" lon="0.95866">
        <ele>373</ele>
        <time>2022-05-23 16:27:17</time>
      </trkpt>
      <trkpt lat="41.79159" lon="0.95866">
        <ele>373.2</ele>
        <time>2022-05-23 16:27:18</time>
      </trkpt>
      <trkpt lat="41.79156" lon="0.95866">
        <ele>373.2</ele>
        <time>2022-05-23 16:27:19</time>
      </trkpt>
      <trkpt lat="41.79154" lon="0.95865">
        <ele>373.2</ele>
        <time>2022-05-23 16:27:20</time>
      </trkpt>
      <trkpt lat="41.79152" lon="0.95863">
        <ele>373.2</ele>
        <time>2022-05-23 16:27:21</time>
      </trkpt>
      <trkpt lat="41.7915" lon="0.95864">
        <ele>373.4</ele>
        <time>2022-05-23 16:27:22</time>
      </trkpt>
      <trkpt lat="41.79147" lon="0.95863">
        <ele>373.4</ele>
        <time>2022-05-23 16:27:23</time>
      </trkpt>
      <trkpt lat="41.79145" lon="0.95862">
        <ele>373.6</ele>
        <time>2022-05-23 16:27:24</time>
      </trkpt>
      <trkpt lat="41.79142" lon="0.95861">
        <ele>373.6</ele>
        <time>2022-05-23 16:27:25</time>
      </trkpt>
      <trkpt lat="41.7914" lon="0.95861">
        <ele>373.8</ele>
        <time>2022-05-23 16:27:26</time>
      </trkpt>
      <trkpt lat="41.79137" lon="0.95861">
        <ele>373.6</ele>
        <time>2022-05-23 16:27:27</time>
      </trkpt>
      <trkpt lat="41.79133" lon="0.95861">
        <ele>373.6</ele>
        <time>2022-05-23 16:27:28</time>
      </trkpt>
      <trkpt lat="41.7913" lon="0.9586">
        <ele>373.6</ele>
        <time>2022-05-23 16:27:29</time>
      </trkpt>
      <trkpt lat="41.79128" lon="0.9586">
        <ele>373.6</ele>
        <time>2022-05-23 16:27:30</time>
      </trkpt>
      <trkpt lat="41.79124" lon="0.95859">
        <ele>373.8</ele>
        <time>2022-05-23 16:27:31</time>
      </trkpt>
      <trkpt lat="41.79121" lon="0.95859">
        <ele>373.8</ele>
        <time>2022-05-23 16:27:32</time>
      </trkpt>
      <trkpt lat="41.79118" lon="0.95858">
        <ele>374</ele>
        <time>2022-05-23 16:27:33</time>
      </trkpt>
      <trkpt lat="41.79115" lon="0.95858">
        <ele>374</ele>
        <time>2022-05-23 16:27:34</time>
      </trkpt>
      <trkpt lat="41.79112" lon="0.95857">
        <ele>374.2</ele>
        <time>2022-05-23 16:27:35</time>
      </trkpt>
      <trkpt lat="41.79109" lon="0.95857">
        <ele>374.4</ele>
        <time>2022-05-23 16:27:36</time>
      </trkpt>
      <trkpt lat="41.79107" lon="0.95856">
        <ele>374.6</ele>
        <time>2022-05-23 16:27:37</time>
      </trkpt>
      <trkpt lat="41.79104" lon="0.95855">
        <ele>374.8</ele>
        <time>2022-05-23 16:27:38</time>
      </trkpt>
      <trkpt lat="41.79101" lon="0.95855">
        <ele>375</ele>
        <time>2022-05-23 16:27:39</time>
      </trkpt>
      <trkpt lat="41.79098" lon="0.95854">
        <ele>375.2</ele>
        <time>2022-05-23 16:27:40</time>
      </trkpt>
      <trkpt lat="41.79095" lon="0.95853">
        <ele>375.4</ele>
        <time>2022-05-23 16:27:41</time>
      </trkpt>
      <trkpt lat="41.79092" lon="0.95852">
        <ele>375.6</ele>
        <time>2022-05-23 16:27:42</time>
      </trkpt>
      <trkpt lat="41.7909" lon="0.95851">
        <ele>375.8</ele>
        <time>2022-05-23 16:27:43</time>
      </trkpt>
      <trkpt lat="41.79087" lon="0.95851">
        <ele>376.2</ele>
        <time>2022-05-23 16:27:44</time>
      </trkpt>
      <trkpt lat="41.79084" lon="0.9585">
        <ele>376.4</ele>
        <time>2022-05-23 16:27:45</time>
      </trkpt>
      <trkpt lat="41.79082" lon="0.95849">
        <ele>376.4</ele>
        <time>2022-05-23 16:27:46</time>
      </trkpt>
      <trkpt lat="41.79079" lon="0.95848">
        <ele>376.6</ele>
        <time>2022-05-23 16:27:47</time>
      </trkpt>
      <trkpt lat="41.79076" lon="0.95847">
        <ele>376.6</ele>
        <time>2022-05-23 16:27:48</time>
      </trkpt>
      <trkpt lat="41.79073" lon="0.95847">
        <ele>376.6</ele>
        <time>2022-05-23 16:27:49</time>
      </trkpt>
      <trkpt lat="41.7907" lon="0.95846">
        <ele>376.6</ele>
        <time>2022-05-23 16:27:50</time>
      </trkpt>
      <trkpt lat="41.79068" lon="0.95845">
        <ele>377</ele>
        <time>2022-05-23 16:27:51</time>
      </trkpt>
      <trkpt lat="41.79065" lon="0.95844">
        <ele>377.2</ele>
        <time>2022-05-23 16:27:52</time>
      </trkpt>
      <trkpt lat="41.79063" lon="0.95844">
        <ele>377.6</ele>
        <time>2022-05-23 16:27:53</time>
      </trkpt>
      <trkpt lat="41.7906" lon="0.95843">
        <ele>377.6</ele>
        <time>2022-05-23 16:27:54</time>
      </trkpt>
      <trkpt lat="41.79058" lon="0.95843">
        <ele>377.8</ele>
        <time>2022-05-23 16:27:55</time>
      </trkpt>
      <trkpt lat="41.79055" lon="0.95843">
        <ele>378</ele>
        <time>2022-05-23 16:27:56</time>
      </trkpt>
      <trkpt lat="41.79052" lon="0.95842">
        <ele>378.2</ele>
        <time>2022-05-23 16:27:57</time>
      </trkpt>
      <trkpt lat="41.7905" lon="0.95841">
        <ele>378.4</ele>
        <time>2022-05-23 16:27:58</time>
      </trkpt>
      <trkpt lat="41.79047" lon="0.95841">
        <ele>378.6</ele>
        <time>2022-05-23 16:27:59</time>
      </trkpt>
      <trkpt lat="41.79044" lon="0.9584">
        <ele>378.8</ele>
        <time>2022-05-23 16:28:00</time>
      </trkpt>
      <trkpt lat="41.79042" lon="0.95839">
        <ele>379</ele>
        <time>2022-05-23 16:28:01</time>
      </trkpt>
      <trkpt lat="41.7904" lon="0.95838">
        <ele>379.2</ele>
        <time>2022-05-23 16:28:02</time>
      </trkpt>
      <trkpt lat="41.79038" lon="0.95838">
        <ele>379.4</ele>
        <time>2022-05-23 16:28:03</time>
      </trkpt>
      <trkpt lat="41.79036" lon="0.95838">
        <ele>379.4</ele>
        <time>2022-05-23 16:28:04</time>
      </trkpt>
      <trkpt lat="41.79034" lon="0.95838">
        <ele>379.8</ele>
        <time>2022-05-23 16:28:05</time>
      </trkpt>
      <trkpt lat="41.79031" lon="0.95837">
        <ele>379.8</ele>
        <time>2022-05-23 16:28:06</time>
      </trkpt>
      <trkpt lat="41.79029" lon="0.95836">
        <ele>380</ele>
        <time>2022-05-23 16:28:07</time>
      </trkpt>
      <trkpt lat="41.79027" lon="0.95836">
        <ele>380.2</ele>
        <time>2022-05-23 16:28:08</time>
      </trkpt>
      <trkpt lat="41.79025" lon="0.95835">
        <ele>380.2</ele>
        <time>2022-05-23 16:28:09</time>
      </trkpt>
      <trkpt lat="41.79024" lon="0.95835">
        <ele>380.4</ele>
        <time>2022-05-23 16:28:10</time>
      </trkpt>
      <trkpt lat="41.79021" lon="0.95835">
        <ele>380.4</ele>
        <time>2022-05-23 16:28:11</time>
      </trkpt>
      <trkpt lat="41.79019" lon="0.95834">
        <ele>380.6</ele>
        <time>2022-05-23 16:28:12</time>
      </trkpt>
      <trkpt lat="41.79017" lon="0.95833">
        <ele>380.8</ele>
        <time>2022-05-23 16:28:13</time>
      </trkpt>
      <trkpt lat="41.79015" lon="0.95833">
        <ele>381</ele>
        <time>2022-05-23 16:28:14</time>
      </trkpt>
      <trkpt lat="41.79013" lon="0.95832">
        <ele>381</ele>
        <time>2022-05-23 16:28:15</time>
      </trkpt>
      <trkpt lat="41.79011" lon="0.95832">
        <ele>381.2</ele>
        <time>2022-05-23 16:28:16</time>
      </trkpt>
      <trkpt lat="41.79009" lon="0.95831">
        <ele>381.4</ele>
        <time>2022-05-23 16:28:17</time>
      </trkpt>
      <trkpt lat="41.79007" lon="0.95831">
        <ele>381.6</ele>
        <time>2022-05-23 16:28:18</time>
      </trkpt>
      <trkpt lat="41.79005" lon="0.9583">
        <ele>381.8</ele>
        <time>2022-05-23 16:28:19</time>
      </trkpt>
      <trkpt lat="41.79003" lon="0.9583">
        <ele>382</ele>
        <time>2022-05-23 16:28:20</time>
      </trkpt>
      <trkpt lat="41.79" lon="0.95829">
        <ele>382</ele>
        <time>2022-05-23 16:28:21</time>
      </trkpt>
      <trkpt lat="41.78998" lon="0.95829">
        <ele>382.2</ele>
        <time>2022-05-23 16:28:22</time>
      </trkpt>
      <trkpt lat="41.78997" lon="0.95828">
        <ele>382.4</ele>
        <time>2022-05-23 16:28:23</time>
      </trkpt>
      <trkpt lat="41.78995" lon="0.95828">
        <ele>382.4</ele>
        <time>2022-05-23 16:28:24</time>
      </trkpt>
      <trkpt lat="41.78993" lon="0.95827">
        <ele>382.4</ele>
        <time>2022-05-23 16:28:25</time>
      </trkpt>
      <trkpt lat="41.7899" lon="0.95827">
        <ele>382.4</ele>
        <time>2022-05-23 16:28:26</time>
      </trkpt>
      <trkpt lat="41.78989" lon="0.95826">
        <ele>382.6</ele>
        <time>2022-05-23 16:28:27</time>
      </trkpt>
      <trkpt lat="41.78986" lon="0.95826">
        <ele>382.8</ele>
        <time>2022-05-23 16:28:28</time>
      </trkpt>
      <trkpt lat="41.78985" lon="0.95826">
        <ele>382.8</ele>
        <time>2022-05-23 16:28:29</time>
      </trkpt>
      <trkpt lat="41.78983" lon="0.95826">
        <ele>383</ele>
        <time>2022-05-23 16:28:30</time>
      </trkpt>
      <trkpt lat="41.78981" lon="0.95825">
        <ele>383.2</ele>
        <time>2022-05-23 16:28:31</time>
      </trkpt>
      <trkpt lat="41.78979" lon="0.95825">
        <ele>383.4</ele>
        <time>2022-05-23 16:28:32</time>
      </trkpt>
      <trkpt lat="41.78977" lon="0.95824">
        <ele>383.6</ele>
        <time>2022-05-23 16:28:33</time>
      </trkpt>
      <trkpt lat="41.78975" lon="0.95824">
        <ele>383.6</ele>
        <time>2022-05-23 16:28:34</time>
      </trkpt>
      <trkpt lat="41.78973" lon="0.95824">
        <ele>383.8</ele>
        <time>2022-05-23 16:28:35</time>
      </trkpt>
      <trkpt lat="41.78971" lon="0.95824">
        <ele>384</ele>
        <time>2022-05-23 16:28:36</time>
      </trkpt>
      <trkpt lat="41.78969" lon="0.95824">
        <ele>384</ele>
        <time>2022-05-23 16:28:37</time>
      </trkpt>
      <trkpt lat="41.78967" lon="0.95823">
        <ele>384.2</ele>
        <time>2022-05-23 16:28:38</time>
      </trkpt>
      <trkpt lat="41.78965" lon="0.95823">
        <ele>384.4</ele>
        <time>2022-05-23 16:28:39</time>
      </trkpt>
      <trkpt lat="41.78963" lon="0.95822">
        <ele>384.4</ele>
        <time>2022-05-23 16:28:40</time>
      </trkpt>
      <trkpt lat="41.78961" lon="0.95822">
        <ele>384.6</ele>
        <time>2022-05-23 16:28:41</time>
      </trkpt>
      <trkpt lat="41.78959" lon="0.95821">
        <ele>384.8</ele>
        <time>2022-05-23 16:28:42</time>
      </trkpt>
      <trkpt lat="41.78957" lon="0.95821">
        <ele>385</ele>
        <time>2022-05-23 16:28:43</time>
      </trkpt>
      <trkpt lat="41.78956" lon="0.95821">
        <ele>385</ele>
        <time>2022-05-23 16:28:44</time>
      </trkpt>
      <trkpt lat="41.78953" lon="0.9582">
        <ele>385.2</ele>
        <time>2022-05-23 16:28:45</time>
      </trkpt>
      <trkpt lat="41.78951" lon="0.95819">
        <ele>385.4</ele>
        <time>2022-05-23 16:28:46</time>
      </trkpt>
      <trkpt lat="41.78949" lon="0.95819">
        <ele>385.6</ele>
        <time>2022-05-23 16:28:47</time>
      </trkpt>
      <trkpt lat="41.78947" lon="0.95818">
        <ele>385.6</ele>
        <time>2022-05-23 16:28:48</time>
      </trkpt>
      <trkpt lat="41.78945" lon="0.95818">
        <ele>385.8</ele>
        <time>2022-05-23 16:28:49</time>
      </trkpt>
      <trkpt lat="41.78944" lon="0.95818">
        <ele>386</ele>
        <time>2022-05-23 16:28:50</time>
      </trkpt>
      <trkpt lat="41.78941" lon="0.95817">
        <ele>386.2</ele>
        <time>2022-05-23 16:28:51</time>
      </trkpt>
      <trkpt lat="41.7894" lon="0.95817">
        <ele>386.2</ele>
        <time>2022-05-23 16:28:52</time>
      </trkpt>
      <trkpt lat="41.78938" lon="0.95816">
        <ele>386.4</ele>
        <time>2022-05-23 16:28:53</time>
      </trkpt>
      <trkpt lat="41.78936" lon="0.95816">
        <ele>386.4</ele>
        <time>2022-05-23 16:28:54</time>
      </trkpt>
      <trkpt lat="41.78934" lon="0.95815">
        <ele>386.6</ele>
        <time>2022-05-23 16:28:55</time>
      </trkpt>
      <trkpt lat="41.78932" lon="0.95815">
        <ele>386.8</ele>
        <time>2022-05-23 16:28:56</time>
      </trkpt>
      <trkpt lat="41.7893" lon="0.95814">
        <ele>386.8</ele>
        <time>2022-05-23 16:28:57</time>
      </trkpt>
      <trkpt lat="41.78928" lon="0.95813">
        <ele>387</ele>
        <time>2022-05-23 16:28:58</time>
      </trkpt>
      <trkpt lat="41.78926" lon="0.95813">
        <ele>387</ele>
        <time>2022-05-23 16:28:59</time>
      </trkpt>
      <trkpt lat="41.78924" lon="0.95813">
        <ele>387.2</ele>
        <time>2022-05-23 16:29:00</time>
      </trkpt>
      <trkpt lat="41.78922" lon="0.95813">
        <ele>387.2</ele>
        <time>2022-05-23 16:29:01</time>
      </trkpt>
      <trkpt lat="41.7892" lon="0.95812">
        <ele>387.4</ele>
        <time>2022-05-23 16:29:02</time>
      </trkpt>
      <trkpt lat="41.78918" lon="0.95812">
        <ele>387.6</ele>
        <time>2022-05-23 16:29:03</time>
      </trkpt>
      <trkpt lat="41.78917" lon="0.95811">
        <ele>387.6</ele>
        <time>2022-05-23 16:29:04</time>
      </trkpt>
      <trkpt lat="41.78915" lon="0.95811">
        <ele>387.8</ele>
        <time>2022-05-23 16:29:05</time>
      </trkpt>
      <trkpt lat="41.78913" lon="0.9581">
        <ele>387.8</ele>
        <time>2022-05-23 16:29:06</time>
      </trkpt>
      <trkpt lat="41.78911" lon="0.9581">
        <ele>388</ele>
        <time>2022-05-23 16:29:07</time>
      </trkpt>
      <trkpt lat="41.78908" lon="0.9581">
        <ele>388</ele>
        <time>2022-05-23 16:29:08</time>
      </trkpt>
      <trkpt lat="41.78907" lon="0.95809">
        <ele>388</ele>
        <time>2022-05-23 16:29:09</time>
      </trkpt>
      <trkpt lat="41.78905" lon="0.95809">
        <ele>388.2</ele>
        <time>2022-05-23 16:29:10</time>
      </trkpt>
      <trkpt lat="41.78903" lon="0.95808">
        <ele>388.2</ele>
        <time>2022-05-23 16:29:11</time>
      </trkpt>
      <trkpt lat="41.78901" lon="0.95808">
        <ele>388.4</ele>
        <time>2022-05-23 16:29:12</time>
      </trkpt>
      <trkpt lat="41.78899" lon="0.95807">
        <ele>388.6</ele>
        <time>2022-05-23 16:29:13</time>
      </trkpt>
      <trkpt lat="41.78896" lon="0.95806">
        <ele>388.8</ele>
        <time>2022-05-23 16:29:14</time>
      </trkpt>
      <trkpt lat="41.78895" lon="0.95806">
        <ele>389</ele>
        <time>2022-05-23 16:29:15</time>
      </trkpt>
      <trkpt lat="41.78892" lon="0.95806">
        <ele>389</ele>
        <time>2022-05-23 16:29:16</time>
      </trkpt>
      <trkpt lat="41.78891" lon="0.95805">
        <ele>389.2</ele>
        <time>2022-05-23 16:29:17</time>
      </trkpt>
      <trkpt lat="41.78888" lon="0.95805">
        <ele>389.4</ele>
        <time>2022-05-23 16:29:18</time>
      </trkpt>
      <trkpt lat="41.78886" lon="0.95804">
        <ele>389.4</ele>
        <time>2022-05-23 16:29:19</time>
      </trkpt>
      <trkpt lat="41.78885" lon="0.95804">
        <ele>389.6</ele>
        <time>2022-05-23 16:29:20</time>
      </trkpt>
      <trkpt lat="41.78882" lon="0.95803">
        <ele>389.8</ele>
        <time>2022-05-23 16:29:21</time>
      </trkpt>
      <trkpt lat="41.7888" lon="0.95803">
        <ele>389.8</ele>
        <time>2022-05-23 16:29:22</time>
      </trkpt>
      <trkpt lat="41.78878" lon="0.95802">
        <ele>390</ele>
        <time>2022-05-23 16:29:23</time>
      </trkpt>
      <trkpt lat="41.78876" lon="0.95802">
        <ele>390.2</ele>
        <time>2022-05-23 16:29:24</time>
      </trkpt>
      <trkpt lat="41.78874" lon="0.95801">
        <ele>390.2</ele>
        <time>2022-05-23 16:29:25</time>
      </trkpt>
      <trkpt lat="41.78872" lon="0.958">
        <ele>390.2</ele>
        <time>2022-05-23 16:29:26</time>
      </trkpt>
      <trkpt lat="41.7887" lon="0.958">
        <ele>390.4</ele>
        <time>2022-05-23 16:29:27</time>
      </trkpt>
      <trkpt lat="41.78868" lon="0.958">
        <ele>390.6</ele>
        <time>2022-05-23 16:29:28</time>
      </trkpt>
      <trkpt lat="41.78866" lon="0.958">
        <ele>390.6</ele>
        <time>2022-05-23 16:29:29</time>
      </trkpt>
      <trkpt lat="41.78864" lon="0.95799">
        <ele>390.8</ele>
        <time>2022-05-23 16:29:30</time>
      </trkpt>
      <trkpt lat="41.78861" lon="0.95798">
        <ele>391</ele>
        <time>2022-05-23 16:29:31</time>
      </trkpt>
      <trkpt lat="41.78859" lon="0.95798">
        <ele>391</ele>
        <time>2022-05-23 16:29:32</time>
      </trkpt>
      <trkpt lat="41.78857" lon="0.95797">
        <ele>391</ele>
        <time>2022-05-23 16:29:33</time>
      </trkpt>
      <trkpt lat="41.78855" lon="0.95797">
        <ele>391</ele>
        <time>2022-05-23 16:29:34</time>
      </trkpt>
      <trkpt lat="41.78852" lon="0.95796">
        <ele>391.2</ele>
        <time>2022-05-23 16:29:35</time>
      </trkpt>
      <trkpt lat="41.78849" lon="0.95796">
        <ele>391.4</ele>
        <time>2022-05-23 16:29:36</time>
      </trkpt>
      <trkpt lat="41.78847" lon="0.95795">
        <ele>391.6</ele>
        <time>2022-05-23 16:29:37</time>
      </trkpt>
      <trkpt lat="41.78845" lon="0.95795">
        <ele>392</ele>
        <time>2022-05-23 16:29:38</time>
      </trkpt>
      <trkpt lat="41.78843" lon="0.95794">
        <ele>392</ele>
        <time>2022-05-23 16:29:39</time>
      </trkpt>
      <trkpt lat="41.78841" lon="0.95794">
        <ele>392.2</ele>
        <time>2022-05-23 16:29:40</time>
      </trkpt>
      <trkpt lat="41.78838" lon="0.95794">
        <ele>392.2</ele>
        <time>2022-05-23 16:29:41</time>
      </trkpt>
      <trkpt lat="41.78836" lon="0.95794">
        <ele>392.4</ele>
        <time>2022-05-23 16:29:42</time>
      </trkpt>
      <trkpt lat="41.78834" lon="0.95794">
        <ele>392.4</ele>
        <time>2022-05-23 16:29:43</time>
      </trkpt>
      <trkpt lat="41.78832" lon="0.95793">
        <ele>392.6</ele>
        <time>2022-05-23 16:29:44</time>
      </trkpt>
      <trkpt lat="41.7883" lon="0.95793">
        <ele>392.6</ele>
        <time>2022-05-23 16:29:45</time>
      </trkpt>
      <trkpt lat="41.78828" lon="0.95792">
        <ele>392.8</ele>
        <time>2022-05-23 16:29:46</time>
      </trkpt>
      <trkpt lat="41.78826" lon="0.95791">
        <ele>393</ele>
        <time>2022-05-23 16:29:47</time>
      </trkpt>
      <trkpt lat="41.78824" lon="0.95791">
        <ele>393</ele>
        <time>2022-05-23 16:29:48</time>
      </trkpt>
      <trkpt lat="41.78821" lon="0.9579">
        <ele>393.2</ele>
        <time>2022-05-23 16:29:49</time>
      </trkpt>
      <trkpt lat="41.78819" lon="0.95789">
        <ele>393.2</ele>
        <time>2022-05-23 16:29:50</time>
      </trkpt>
      <trkpt lat="41.78817" lon="0.95789">
        <ele>393.4</ele>
        <time>2022-05-23 16:29:51</time>
      </trkpt>
      <trkpt lat="41.78815" lon="0.95788">
        <ele>393.4</ele>
        <time>2022-05-23 16:29:52</time>
      </trkpt>
      <trkpt lat="41.78812" lon="0.95787">
        <ele>393.4</ele>
        <time>2022-05-23 16:29:53</time>
      </trkpt>
      <trkpt lat="41.7881" lon="0.95787">
        <ele>393.4</ele>
        <time>2022-05-23 16:29:54</time>
      </trkpt>
      <trkpt lat="41.78808" lon="0.95786">
        <ele>393.6</ele>
        <time>2022-05-23 16:29:55</time>
      </trkpt>
      <trkpt lat="41.78806" lon="0.95786">
        <ele>393.6</ele>
        <time>2022-05-23 16:29:56</time>
      </trkpt>
      <trkpt lat="41.78803" lon="0.95786">
        <ele>393.8</ele>
        <time>2022-05-23 16:29:57</time>
      </trkpt>
      <trkpt lat="41.78801" lon="0.95786">
        <ele>393.8</ele>
        <time>2022-05-23 16:29:58</time>
      </trkpt>
      <trkpt lat="41.78799" lon="0.95785">
        <ele>393.8</ele>
        <time>2022-05-23 16:29:59</time>
      </trkpt>
      <trkpt lat="41.78796" lon="0.95784">
        <ele>393.8</ele>
        <time>2022-05-23 16:30:00</time>
      </trkpt>
      <trkpt lat="41.78794" lon="0.95784">
        <ele>394</ele>
        <time>2022-05-23 16:30:01</time>
      </trkpt>
      <trkpt lat="41.78791" lon="0.95783">
        <ele>394</ele>
        <time>2022-05-23 16:30:02</time>
      </trkpt>
      <trkpt lat="41.78789" lon="0.95782">
        <ele>394.2</ele>
        <time>2022-05-23 16:30:03</time>
      </trkpt>
      <trkpt lat="41.78788" lon="0.95782">
        <ele>394.2</ele>
        <time>2022-05-23 16:30:04</time>
      </trkpt>
      <trkpt lat="41.78785" lon="0.95781">
        <ele>394.4</ele>
        <time>2022-05-23 16:30:05</time>
      </trkpt>
      <trkpt lat="41.78783" lon="0.9578">
        <ele>394.6</ele>
        <time>2022-05-23 16:30:06</time>
      </trkpt>
      <trkpt lat="41.78781" lon="0.9578">
        <ele>394.6</ele>
        <time>2022-05-23 16:30:07</time>
      </trkpt>
      <trkpt lat="41.78778" lon="0.95779">
        <ele>394.8</ele>
        <time>2022-05-23 16:30:08</time>
      </trkpt>
      <trkpt lat="41.78777" lon="0.95779">
        <ele>394.8</ele>
        <time>2022-05-23 16:30:09</time>
      </trkpt>
      <trkpt lat="41.78774" lon="0.95779">
        <ele>395</ele>
        <time>2022-05-23 16:30:10</time>
      </trkpt>
      <trkpt lat="41.78772" lon="0.95779">
        <ele>395</ele>
        <time>2022-05-23 16:30:11</time>
      </trkpt>
      <trkpt lat="41.7877" lon="0.95779">
        <ele>395</ele>
        <time>2022-05-23 16:30:12</time>
      </trkpt>
      <trkpt lat="41.78768" lon="0.95778">
        <ele>395</ele>
        <time>2022-05-23 16:30:13</time>
      </trkpt>
      <trkpt lat="41.78765" lon="0.95777">
        <ele>395.2</ele>
        <time>2022-05-23 16:30:14</time>
      </trkpt>
      <trkpt lat="41.78763" lon="0.95777">
        <ele>395.2</ele>
        <time>2022-05-23 16:30:15</time>
      </trkpt>
      <trkpt lat="41.7876" lon="0.95776">
        <ele>395.4</ele>
        <time>2022-05-23 16:30:16</time>
      </trkpt>
      <trkpt lat="41.78759" lon="0.95776">
        <ele>395.4</ele>
        <time>2022-05-23 16:30:17</time>
      </trkpt>
      <trkpt lat="41.78756" lon="0.95775">
        <ele>395.6</ele>
        <time>2022-05-23 16:30:18</time>
      </trkpt>
      <trkpt lat="41.78754" lon="0.95774">
        <ele>395.6</ele>
        <time>2022-05-23 16:30:19</time>
      </trkpt>
      <trkpt lat="41.78752" lon="0.95774">
        <ele>395.6</ele>
        <time>2022-05-23 16:30:20</time>
      </trkpt>
      <trkpt lat="41.7875" lon="0.95774">
        <ele>395.8</ele>
        <time>2022-05-23 16:30:21</time>
      </trkpt>
      <trkpt lat="41.78748" lon="0.95773">
        <ele>395.8</ele>
        <time>2022-05-23 16:30:22</time>
      </trkpt>
      <trkpt lat="41.78745" lon="0.95773">
        <ele>396</ele>
        <time>2022-05-23 16:30:23</time>
      </trkpt>
      <trkpt lat="41.78743" lon="0.95772">
        <ele>396</ele>
        <time>2022-05-23 16:30:24</time>
      </trkpt>
      <trkpt lat="41.78741" lon="0.95771">
        <ele>396</ele>
        <time>2022-05-23 16:30:25</time>
      </trkpt>
      <trkpt lat="41.78739" lon="0.95771">
        <ele>396.2</ele>
        <time>2022-05-23 16:30:26</time>
      </trkpt>
      <trkpt lat="41.78736" lon="0.95771">
        <ele>396.2</ele>
        <time>2022-05-23 16:30:27</time>
      </trkpt>
      <trkpt lat="41.78734" lon="0.9577">
        <ele>396.2</ele>
        <time>2022-05-23 16:30:28</time>
      </trkpt>
      <trkpt lat="41.78732" lon="0.9577">
        <ele>396.2</ele>
        <time>2022-05-23 16:30:29</time>
      </trkpt>
      <trkpt lat="41.7873" lon="0.9577">
        <ele>396.2</ele>
        <time>2022-05-23 16:30:30</time>
      </trkpt>
      <trkpt lat="41.78727" lon="0.95769">
        <ele>396.4</ele>
        <time>2022-05-23 16:30:31</time>
      </trkpt>
      <trkpt lat="41.78725" lon="0.95769">
        <ele>396.4</ele>
        <time>2022-05-23 16:30:32</time>
      </trkpt>
      <trkpt lat="41.78723" lon="0.95769">
        <ele>396.6</ele>
        <time>2022-05-23 16:30:33</time>
      </trkpt>
      <trkpt lat="41.78721" lon="0.95769">
        <ele>396.6</ele>
        <time>2022-05-23 16:30:34</time>
      </trkpt>
      <trkpt lat="41.78718" lon="0.95768">
        <ele>396.8</ele>
        <time>2022-05-23 16:30:35</time>
      </trkpt>
      <trkpt lat="41.78716" lon="0.95767">
        <ele>396.8</ele>
        <time>2022-05-23 16:30:36</time>
      </trkpt>
      <trkpt lat="41.78714" lon="0.95767">
        <ele>396.8</ele>
        <time>2022-05-23 16:30:37</time>
      </trkpt>
      <trkpt lat="41.78712" lon="0.95767">
        <ele>397</ele>
        <time>2022-05-23 16:30:38</time>
      </trkpt>
      <trkpt lat="41.7871" lon="0.95766">
        <ele>397</ele>
        <time>2022-05-23 16:30:39</time>
      </trkpt>
      <trkpt lat="41.78708" lon="0.95766">
        <ele>397.2</ele>
        <time>2022-05-23 16:30:40</time>
      </trkpt>
      <trkpt lat="41.78705" lon="0.95766">
        <ele>397.2</ele>
        <time>2022-05-23 16:30:41</time>
      </trkpt>
      <trkpt lat="41.78703" lon="0.95765">
        <ele>397.2</ele>
        <time>2022-05-23 16:30:42</time>
      </trkpt>
      <trkpt lat="41.78701" lon="0.95764">
        <ele>397.4</ele>
        <time>2022-05-23 16:30:43</time>
      </trkpt>
      <trkpt lat="41.78699" lon="0.95764">
        <ele>397.4</ele>
        <time>2022-05-23 16:30:44</time>
      </trkpt>
      <trkpt lat="41.78697" lon="0.95763">
        <ele>397.6</ele>
        <time>2022-05-23 16:30:45</time>
      </trkpt>
      <trkpt lat="41.78695" lon="0.95763">
        <ele>397.6</ele>
        <time>2022-05-23 16:30:46</time>
      </trkpt>
      <trkpt lat="41.78693" lon="0.95762">
        <ele>397.8</ele>
        <time>2022-05-23 16:30:47</time>
      </trkpt>
      <trkpt lat="41.7869" lon="0.95762">
        <ele>397.8</ele>
        <time>2022-05-23 16:30:48</time>
      </trkpt>
      <trkpt lat="41.78688" lon="0.95761">
        <ele>397.8</ele>
        <time>2022-05-23 16:30:49</time>
      </trkpt>
      <trkpt lat="41.78686" lon="0.95761">
        <ele>398</ele>
        <time>2022-05-23 16:30:50</time>
      </trkpt>
      <trkpt lat="41.78683" lon="0.95761">
        <ele>398.2</ele>
        <time>2022-05-23 16:30:51</time>
      </trkpt>
      <trkpt lat="41.78681" lon="0.9576">
        <ele>398.2</ele>
        <time>2022-05-23 16:30:52</time>
      </trkpt>
      <trkpt lat="41.78679" lon="0.9576">
        <ele>398.2</ele>
        <time>2022-05-23 16:30:53</time>
      </trkpt>
      <trkpt lat="41.78676" lon="0.9576">
        <ele>398.4</ele>
        <time>2022-05-23 16:30:54</time>
      </trkpt>
      <trkpt lat="41.78674" lon="0.9576">
        <ele>398.4</ele>
        <time>2022-05-23 16:30:55</time>
      </trkpt>
      <trkpt lat="41.78672" lon="0.95759">
        <ele>398.6</ele>
        <time>2022-05-23 16:30:56</time>
      </trkpt>
      <trkpt lat="41.7867" lon="0.95759">
        <ele>398.6</ele>
        <time>2022-05-23 16:30:57</time>
      </trkpt>
      <trkpt lat="41.78667" lon="0.95759">
        <ele>398.8</ele>
        <time>2022-05-23 16:30:58</time>
      </trkpt>
      <trkpt lat="41.78665" lon="0.95759">
        <ele>398.8</ele>
        <time>2022-05-23 16:30:59</time>
      </trkpt>
      <trkpt lat="41.78663" lon="0.95759">
        <ele>399</ele>
        <time>2022-05-23 16:31:00</time>
      </trkpt>
      <trkpt lat="41.7866" lon="0.95759">
        <ele>399.2</ele>
        <time>2022-05-23 16:31:01</time>
      </trkpt>
      <trkpt lat="41.78658" lon="0.95759">
        <ele>399.4</ele>
        <time>2022-05-23 16:31:02</time>
      </trkpt>
      <trkpt lat="41.78656" lon="0.95758">
        <ele>399.4</ele>
        <time>2022-05-23 16:31:03</time>
      </trkpt>
      <trkpt lat="41.78654" lon="0.95758">
        <ele>399.6</ele>
        <time>2022-05-23 16:31:04</time>
      </trkpt>
      <trkpt lat="41.78651" lon="0.95758">
        <ele>399.6</ele>
        <time>2022-05-23 16:31:05</time>
      </trkpt>
      <trkpt lat="41.78649" lon="0.95758">
        <ele>399.8</ele>
        <time>2022-05-23 16:31:06</time>
      </trkpt>
      <trkpt lat="41.78647" lon="0.95758">
        <ele>399.8</ele>
        <time>2022-05-23 16:31:07</time>
      </trkpt>
      <trkpt lat="41.78644" lon="0.95758">
        <ele>400</ele>
        <time>2022-05-23 16:31:08</time>
      </trkpt>
      <trkpt lat="41.78642" lon="0.95758">
        <ele>400</ele>
        <time>2022-05-23 16:31:09</time>
      </trkpt>
      <trkpt lat="41.7864" lon="0.95758">
        <ele>400.2</ele>
        <time>2022-05-23 16:31:10</time>
      </trkpt>
      <trkpt lat="41.78637" lon="0.95757">
        <ele>400.2</ele>
        <time>2022-05-23 16:31:11</time>
      </trkpt>
      <trkpt lat="41.78635" lon="0.95757">
        <ele>400.4</ele>
        <time>2022-05-23 16:31:12</time>
      </trkpt>
      <trkpt lat="41.78633" lon="0.95757">
        <ele>400.6</ele>
        <time>2022-05-23 16:31:13</time>
      </trkpt>
      <trkpt lat="41.7863" lon="0.95757">
        <ele>400.6</ele>
        <time>2022-05-23 16:31:14</time>
      </trkpt>
      <trkpt lat="41.78628" lon="0.95757">
        <ele>400.8</ele>
        <time>2022-05-23 16:31:15</time>
      </trkpt>
      <trkpt lat="41.78625" lon="0.95757">
        <ele>400.8</ele>
        <time>2022-05-23 16:31:16</time>
      </trkpt>
      <trkpt lat="41.78623" lon="0.95757">
        <ele>401</ele>
        <time>2022-05-23 16:31:17</time>
      </trkpt>
      <trkpt lat="41.7862" lon="0.95758">
        <ele>401.2</ele>
        <time>2022-05-23 16:31:18</time>
      </trkpt>
      <trkpt lat="41.78617" lon="0.95758">
        <ele>401.2</ele>
        <time>2022-05-23 16:31:19</time>
      </trkpt>
      <trkpt lat="41.78615" lon="0.95758">
        <ele>401.2</ele>
        <time>2022-05-23 16:31:20</time>
      </trkpt>
      <trkpt lat="41.78612" lon="0.95758">
        <ele>401.2</ele>
        <time>2022-05-23 16:31:21</time>
      </trkpt>
      <trkpt lat="41.78609" lon="0.95758">
        <ele>401.2</ele>
        <time>2022-05-23 16:31:22</time>
      </trkpt>
      <trkpt lat="41.78606" lon="0.95758">
        <ele>401.4</ele>
        <time>2022-05-23 16:31:23</time>
      </trkpt>
      <trkpt lat="41.78602" lon="0.95758">
        <ele>401.4</ele>
        <time>2022-05-23 16:31:24</time>
      </trkpt>
      <trkpt lat="41.78599" lon="0.95758">
        <ele>401.6</ele>
        <time>2022-05-23 16:31:25</time>
      </trkpt>
      <trkpt lat="41.78596" lon="0.95759">
        <ele>401.6</ele>
        <time>2022-05-23 16:31:26</time>
      </trkpt>
      <trkpt lat="41.78593" lon="0.95759">
        <ele>401.8</ele>
        <time>2022-05-23 16:31:27</time>
      </trkpt>
      <trkpt lat="41.7859" lon="0.95759">
        <ele>401.8</ele>
        <time>2022-05-23 16:31:28</time>
      </trkpt>
      <trkpt lat="41.78587" lon="0.95758">
        <ele>401.8</ele>
        <time>2022-05-23 16:31:29</time>
      </trkpt>
      <trkpt lat="41.78584" lon="0.95759">
        <ele>401.8</ele>
        <time>2022-05-23 16:31:30</time>
      </trkpt>
      <trkpt lat="41.7858" lon="0.95759">
        <ele>401.8</ele>
        <time>2022-05-23 16:31:31</time>
      </trkpt>
      <trkpt lat="41.78577" lon="0.95759">
        <ele>401.6</ele>
        <time>2022-05-23 16:31:32</time>
      </trkpt>
      <trkpt lat="41.78573" lon="0.95758">
        <ele>401.4</ele>
        <time>2022-05-23 16:31:33</time>
      </trkpt>
      <trkpt lat="41.7857" lon="0.95758">
        <ele>401.4</ele>
        <time>2022-05-23 16:31:34</time>
      </trkpt>
      <trkpt lat="41.78567" lon="0.95758">
        <ele>401.4</ele>
        <time>2022-05-23 16:31:35</time>
      </trkpt>
      <trkpt lat="41.78564" lon="0.95758">
        <ele>401.4</ele>
        <time>2022-05-23 16:31:36</time>
      </trkpt>
      <trkpt lat="41.7856" lon="0.95758">
        <ele>401.4</ele>
        <time>2022-05-23 16:31:37</time>
      </trkpt>
      <trkpt lat="41.78556" lon="0.95758">
        <ele>401.4</ele>
        <time>2022-05-23 16:31:38</time>
      </trkpt>
      <trkpt lat="41.78552" lon="0.95758">
        <ele>401.2</ele>
        <time>2022-05-23 16:31:39</time>
      </trkpt>
      <trkpt lat="41.78547" lon="0.95758">
        <ele>401.2</ele>
        <time>2022-05-23 16:31:40</time>
      </trkpt>
      <trkpt lat="41.78543" lon="0.95758">
        <ele>401.4</ele>
        <time>2022-05-23 16:31:41</time>
      </trkpt>
      <trkpt lat="41.78538" lon="0.95758">
        <ele>401.4</ele>
        <time>2022-05-23 16:31:42</time>
      </trkpt>
      <trkpt lat="41.78534" lon="0.95758">
        <ele>401.4</ele>
        <time>2022-05-23 16:31:43</time>
      </trkpt>
      <trkpt lat="41.7853" lon="0.95758">
        <ele>401.4</ele>
        <time>2022-05-23 16:31:44</time>
      </trkpt>
      <trkpt lat="41.78525" lon="0.95758">
        <ele>401.4</ele>
        <time>2022-05-23 16:31:45</time>
      </trkpt>
      <trkpt lat="41.78521" lon="0.95758">
        <ele>401.4</ele>
        <time>2022-05-23 16:31:46</time>
      </trkpt>
      <trkpt lat="41.78517" lon="0.95758">
        <ele>401.4</ele>
        <time>2022-05-23 16:31:47</time>
      </trkpt>
      <trkpt lat="41.78513" lon="0.95758">
        <ele>401.4</ele>
        <time>2022-05-23 16:31:48</time>
      </trkpt>
      <trkpt lat="41.78509" lon="0.95758">
        <ele>401.4</ele>
        <time>2022-05-23 16:31:49</time>
      </trkpt>
      <trkpt lat="41.78506" lon="0.95758">
        <ele>401.6</ele>
        <time>2022-05-23 16:31:50</time>
      </trkpt>
      <trkpt lat="41.78503" lon="0.95757">
        <ele>401.6</ele>
        <time>2022-05-23 16:31:51</time>
      </trkpt>
      <trkpt lat="41.78499" lon="0.95757">
        <ele>401.6</ele>
        <time>2022-05-23 16:31:52</time>
      </trkpt>
      <trkpt lat="41.78495" lon="0.95757">
        <ele>401.6</ele>
        <time>2022-05-23 16:31:53</time>
      </trkpt>
      <trkpt lat="41.78491" lon="0.95756">
        <ele>401.6</ele>
        <time>2022-05-23 16:31:54</time>
      </trkpt>
      <trkpt lat="41.78487" lon="0.95756">
        <ele>401.8</ele>
        <time>2022-05-23 16:31:55</time>
      </trkpt>
      <trkpt lat="41.78483" lon="0.95756">
        <ele>401.8</ele>
        <time>2022-05-23 16:31:56</time>
      </trkpt>
      <trkpt lat="41.78479" lon="0.95755">
        <ele>402</ele>
        <time>2022-05-23 16:31:57</time>
      </trkpt>
      <trkpt lat="41.78475" lon="0.95755">
        <ele>402</ele>
        <time>2022-05-23 16:31:58</time>
      </trkpt>
      <trkpt lat="41.7847" lon="0.95754">
        <ele>402.2</ele>
        <time>2022-05-23 16:31:59</time>
      </trkpt>
      <trkpt lat="41.78467" lon="0.95754">
        <ele>402.2</ele>
        <time>2022-05-23 16:32:00</time>
      </trkpt>
      <trkpt lat="41.78462" lon="0.95753">
        <ele>402.2</ele>
        <time>2022-05-23 16:32:01</time>
      </trkpt>
      <trkpt lat="41.78458" lon="0.95753">
        <ele>402.4</ele>
        <time>2022-05-23 16:32:02</time>
      </trkpt>
      <trkpt lat="41.78454" lon="0.95752">
        <ele>402.4</ele>
        <time>2022-05-23 16:32:03</time>
      </trkpt>
      <trkpt lat="41.7845" lon="0.95751">
        <ele>402.4</ele>
        <time>2022-05-23 16:32:04</time>
      </trkpt>
      <trkpt lat="41.78446" lon="0.95751">
        <ele>402.2</ele>
        <time>2022-05-23 16:32:05</time>
      </trkpt>
      <trkpt lat="41.78442" lon="0.9575">
        <ele>402.2</ele>
        <time>2022-05-23 16:32:06</time>
      </trkpt>
      <trkpt lat="41.78439" lon="0.95749">
        <ele>402.2</ele>
        <time>2022-05-23 16:32:07</time>
      </trkpt>
      <trkpt lat="41.78434" lon="0.95748">
        <ele>402.2</ele>
        <time>2022-05-23 16:32:08</time>
      </trkpt>
      <trkpt lat="41.7843" lon="0.95747">
        <ele>402.2</ele>
        <time>2022-05-23 16:32:09</time>
      </trkpt>
      <trkpt lat="41.78426" lon="0.95747">
        <ele>402</ele>
        <time>2022-05-23 16:32:10</time>
      </trkpt>
      <trkpt lat="41.78422" lon="0.95746">
        <ele>402.2</ele>
        <time>2022-05-23 16:32:11</time>
      </trkpt>
      <trkpt lat="41.78418" lon="0.95745">
        <ele>402.2</ele>
        <time>2022-05-23 16:32:12</time>
      </trkpt>
      <trkpt lat="41.78414" lon="0.95744">
        <ele>402.2</ele>
        <time>2022-05-23 16:32:13</time>
      </trkpt>
      <trkpt lat="41.7841" lon="0.95743">
        <ele>402.4</ele>
        <time>2022-05-23 16:32:14</time>
      </trkpt>
      <trkpt lat="41.78406" lon="0.95742">
        <ele>402.4</ele>
        <time>2022-05-23 16:32:15</time>
      </trkpt>
      <trkpt lat="41.78402" lon="0.95742">
        <ele>402.4</ele>
        <time>2022-05-23 16:32:16</time>
      </trkpt>
      <trkpt lat="41.78398" lon="0.95741">
        <ele>402.6</ele>
        <time>2022-05-23 16:32:17</time>
      </trkpt>
      <trkpt lat="41.78394" lon="0.9574">
        <ele>402.6</ele>
        <time>2022-05-23 16:32:18</time>
      </trkpt>
      <trkpt lat="41.7839" lon="0.9574">
        <ele>402.6</ele>
        <time>2022-05-23 16:32:19</time>
      </trkpt>
      <trkpt lat="41.78387" lon="0.95739">
        <ele>402.6</ele>
        <time>2022-05-23 16:32:20</time>
      </trkpt>
      <trkpt lat="41.78382" lon="0.95739">
        <ele>402.6</ele>
        <time>2022-05-23 16:32:21</time>
      </trkpt>
      <trkpt lat="41.78379" lon="0.95738">
        <ele>402.6</ele>
        <time>2022-05-23 16:32:22</time>
      </trkpt>
      <trkpt lat="41.78374" lon="0.95737">
        <ele>402.8</ele>
        <time>2022-05-23 16:32:23</time>
      </trkpt>
      <trkpt lat="41.78371" lon="0.95737">
        <ele>402.8</ele>
        <time>2022-05-23 16:32:24</time>
      </trkpt>
      <trkpt lat="41.78367" lon="0.95736">
        <ele>402.8</ele>
        <time>2022-05-23 16:32:25</time>
      </trkpt>
      <trkpt lat="41.78363" lon="0.95735">
        <ele>402.8</ele>
        <time>2022-05-23 16:32:26</time>
      </trkpt>
      <trkpt lat="41.7836" lon="0.95734">
        <ele>402.6</ele>
        <time>2022-05-23 16:32:27</time>
      </trkpt>
      <trkpt lat="41.78356" lon="0.95734">
        <ele>402.8</ele>
        <time>2022-05-23 16:32:28</time>
      </trkpt>
      <trkpt lat="41.78352" lon="0.95733">
        <ele>402.8</ele>
        <time>2022-05-23 16:32:29</time>
      </trkpt>
      <trkpt lat="41.78348" lon="0.95732">
        <ele>403</ele>
        <time>2022-05-23 16:32:30</time>
      </trkpt>
      <trkpt lat="41.78345" lon="0.95732">
        <ele>403</ele>
        <time>2022-05-23 16:32:31</time>
      </trkpt>
      <trkpt lat="41.78341" lon="0.95731">
        <ele>403.2</ele>
        <time>2022-05-23 16:32:32</time>
      </trkpt>
      <trkpt lat="41.78337" lon="0.95731">
        <ele>403.2</ele>
        <time>2022-05-23 16:32:33</time>
      </trkpt>
      <trkpt lat="41.78334" lon="0.9573">
        <ele>403.2</ele>
        <time>2022-05-23 16:32:34</time>
      </trkpt>
      <trkpt lat="41.78331" lon="0.9573">
        <ele>403.2</ele>
        <time>2022-05-23 16:32:35</time>
      </trkpt>
      <trkpt lat="41.78327" lon="0.95729">
        <ele>403.2</ele>
        <time>2022-05-23 16:32:36</time>
      </trkpt>
      <trkpt lat="41.78324" lon="0.95728">
        <ele>403.2</ele>
        <time>2022-05-23 16:32:37</time>
      </trkpt>
      <trkpt lat="41.7832" lon="0.95727">
        <ele>403.4</ele>
        <time>2022-05-23 16:32:38</time>
      </trkpt>
      <trkpt lat="41.78317" lon="0.95726">
        <ele>403.4</ele>
        <time>2022-05-23 16:32:39</time>
      </trkpt>
      <trkpt lat="41.78313" lon="0.95726">
        <ele>403.6</ele>
        <time>2022-05-23 16:32:40</time>
      </trkpt>
      <trkpt lat="41.7831" lon="0.95725">
        <ele>403.6</ele>
        <time>2022-05-23 16:32:41</time>
      </trkpt>
      <trkpt lat="41.78307" lon="0.95725">
        <ele>403.8</ele>
        <time>2022-05-23 16:32:42</time>
      </trkpt>
      <trkpt lat="41.78303" lon="0.95724">
        <ele>403.8</ele>
        <time>2022-05-23 16:32:43</time>
      </trkpt>
      <trkpt lat="41.783" lon="0.95723">
        <ele>403.8</ele>
        <time>2022-05-23 16:32:44</time>
      </trkpt>
      <trkpt lat="41.78297" lon="0.95723">
        <ele>404</ele>
        <time>2022-05-23 16:32:45</time>
      </trkpt>
      <trkpt lat="41.78293" lon="0.95723">
        <ele>404.2</ele>
        <time>2022-05-23 16:32:46</time>
      </trkpt>
      <trkpt lat="41.7829" lon="0.95722">
        <ele>404.2</ele>
        <time>2022-05-23 16:32:47</time>
      </trkpt>
      <trkpt lat="41.78287" lon="0.95722">
        <ele>404.2</ele>
        <time>2022-05-23 16:32:48</time>
      </trkpt>
      <trkpt lat="41.78284" lon="0.95722">
        <ele>404.2</ele>
        <time>2022-05-23 16:32:49</time>
      </trkpt>
      <trkpt lat="41.78281" lon="0.95721">
        <ele>404.4</ele>
        <time>2022-05-23 16:32:50</time>
      </trkpt>
      <trkpt lat="41.78278" lon="0.95721">
        <ele>404.4</ele>
        <time>2022-05-23 16:32:51</time>
      </trkpt>
      <trkpt lat="41.78274" lon="0.9572">
        <ele>404.4</ele>
        <time>2022-05-23 16:32:52</time>
      </trkpt>
      <trkpt lat="41.78271" lon="0.9572">
        <ele>404.4</ele>
        <time>2022-05-23 16:32:53</time>
      </trkpt>
      <trkpt lat="41.78268" lon="0.95719">
        <ele>404.6</ele>
        <time>2022-05-23 16:32:54</time>
      </trkpt>
      <trkpt lat="41.78265" lon="0.95718">
        <ele>404.6</ele>
        <time>2022-05-23 16:32:55</time>
      </trkpt>
      <trkpt lat="41.78263" lon="0.95718">
        <ele>404.6</ele>
        <time>2022-05-23 16:32:56</time>
      </trkpt>
      <trkpt lat="41.7826" lon="0.95717">
        <ele>404.4</ele>
        <time>2022-05-23 16:32:57</time>
      </trkpt>
      <trkpt lat="41.78257" lon="0.95716">
        <ele>404.6</ele>
        <time>2022-05-23 16:32:58</time>
      </trkpt>
      <trkpt lat="41.78254" lon="0.95715">
        <ele>404.6</ele>
        <time>2022-05-23 16:32:59</time>
      </trkpt>
      <trkpt lat="41.78251" lon="0.95715">
        <ele>404.8</ele>
        <time>2022-05-23 16:33:00</time>
      </trkpt>
      <trkpt lat="41.78248" lon="0.95714">
        <ele>405</ele>
        <time>2022-05-23 16:33:01</time>
      </trkpt>
      <trkpt lat="41.78245" lon="0.95714">
        <ele>405.2</ele>
        <time>2022-05-23 16:33:02</time>
      </trkpt>
      <trkpt lat="41.78243" lon="0.95714">
        <ele>405.4</ele>
        <time>2022-05-23 16:33:03</time>
      </trkpt>
      <trkpt lat="41.7824" lon="0.95713">
        <ele>405.4</ele>
        <time>2022-05-23 16:33:04</time>
      </trkpt>
      <trkpt lat="41.78237" lon="0.95713">
        <ele>405.6</ele>
        <time>2022-05-23 16:33:05</time>
      </trkpt>
      <trkpt lat="41.78234" lon="0.95712">
        <ele>405.6</ele>
        <time>2022-05-23 16:33:06</time>
      </trkpt>
      <trkpt lat="41.78231" lon="0.95711">
        <ele>405.6</ele>
        <time>2022-05-23 16:33:07</time>
      </trkpt>
      <trkpt lat="41.78229" lon="0.9571">
        <ele>405.6</ele>
        <time>2022-05-23 16:33:08</time>
      </trkpt>
      <trkpt lat="41.78226" lon="0.9571">
        <ele>405.8</ele>
        <time>2022-05-23 16:33:09</time>
      </trkpt>
      <trkpt lat="41.78223" lon="0.9571">
        <ele>405.8</ele>
        <time>2022-05-23 16:33:10</time>
      </trkpt>
      <trkpt lat="41.7822" lon="0.95709">
        <ele>405.8</ele>
        <time>2022-05-23 16:33:11</time>
      </trkpt>
      <trkpt lat="41.78217" lon="0.95708">
        <ele>405.8</ele>
        <time>2022-05-23 16:33:12</time>
      </trkpt>
      <trkpt lat="41.78214" lon="0.95708">
        <ele>406</ele>
        <time>2022-05-23 16:33:13</time>
      </trkpt>
      <trkpt lat="41.78211" lon="0.95707">
        <ele>406</ele>
        <time>2022-05-23 16:33:14</time>
      </trkpt>
      <trkpt lat="41.78208" lon="0.95707">
        <ele>406</ele>
        <time>2022-05-23 16:33:15</time>
      </trkpt>
      <trkpt lat="41.78206" lon="0.95707">
        <ele>406</ele>
        <time>2022-05-23 16:33:16</time>
      </trkpt>
      <trkpt lat="41.78203" lon="0.95706">
        <ele>406</ele>
        <time>2022-05-23 16:33:17</time>
      </trkpt>
      <trkpt lat="41.782" lon="0.95706">
        <ele>406.2</ele>
        <time>2022-05-23 16:33:18</time>
      </trkpt>
      <trkpt lat="41.78197" lon="0.95705">
        <ele>406.4</ele>
        <time>2022-05-23 16:33:19</time>
      </trkpt>
      <trkpt lat="41.78195" lon="0.95704">
        <ele>406.4</ele>
        <time>2022-05-23 16:33:20</time>
      </trkpt>
      <trkpt lat="41.78192" lon="0.95703">
        <ele>406.6</ele>
        <time>2022-05-23 16:33:21</time>
      </trkpt>
      <trkpt lat="41.78189" lon="0.95703">
        <ele>406.6</ele>
        <time>2022-05-23 16:33:22</time>
      </trkpt>
      <trkpt lat="41.78186" lon="0.95702">
        <ele>406.8</ele>
        <time>2022-05-23 16:33:23</time>
      </trkpt>
      <trkpt lat="41.78184" lon="0.95702">
        <ele>406.8</ele>
        <time>2022-05-23 16:33:24</time>
      </trkpt>
      <trkpt lat="41.78181" lon="0.95702">
        <ele>406.8</ele>
        <time>2022-05-23 16:33:25</time>
      </trkpt>
      <trkpt lat="41.78178" lon="0.95701">
        <ele>407</ele>
        <time>2022-05-23 16:33:26</time>
      </trkpt>
      <trkpt lat="41.78175" lon="0.95701">
        <ele>407</ele>
        <time>2022-05-23 16:33:27</time>
      </trkpt>
      <trkpt lat="41.78173" lon="0.957">
        <ele>407</ele>
        <time>2022-05-23 16:33:28</time>
      </trkpt>
      <trkpt lat="41.7817" lon="0.957">
        <ele>407.2</ele>
        <time>2022-05-23 16:33:29</time>
      </trkpt>
      <trkpt lat="41.78167" lon="0.95699">
        <ele>407.2</ele>
        <time>2022-05-23 16:33:30</time>
      </trkpt>
      <trkpt lat="41.78165" lon="0.95698">
        <ele>407.4</ele>
        <time>2022-05-23 16:33:31</time>
      </trkpt>
      <trkpt lat="41.78162" lon="0.95698">
        <ele>407.4</ele>
        <time>2022-05-23 16:33:32</time>
      </trkpt>
      <trkpt lat="41.78159" lon="0.95697">
        <ele>407.4</ele>
        <time>2022-05-23 16:33:33</time>
      </trkpt>
      <trkpt lat="41.78157" lon="0.95697">
        <ele>407.4</ele>
        <time>2022-05-23 16:33:34</time>
      </trkpt>
      <trkpt lat="41.78154" lon="0.95697">
        <ele>407.6</ele>
        <time>2022-05-23 16:33:35</time>
      </trkpt>
      <trkpt lat="41.78151" lon="0.95696">
        <ele>407.6</ele>
        <time>2022-05-23 16:33:36</time>
      </trkpt>
      <trkpt lat="41.78149" lon="0.95695">
        <ele>407.8</ele>
        <time>2022-05-23 16:33:37</time>
      </trkpt>
      <trkpt lat="41.78146" lon="0.95695">
        <ele>407.8</ele>
        <time>2022-05-23 16:33:38</time>
      </trkpt>
      <trkpt lat="41.78144" lon="0.95695">
        <ele>408</ele>
        <time>2022-05-23 16:33:39</time>
      </trkpt>
      <trkpt lat="41.78141" lon="0.95694">
        <ele>408</ele>
        <time>2022-05-23 16:33:40</time>
      </trkpt>
      <trkpt lat="41.78139" lon="0.95694">
        <ele>408.2</ele>
        <time>2022-05-23 16:33:41</time>
      </trkpt>
      <trkpt lat="41.78136" lon="0.95694">
        <ele>408.4</ele>
        <time>2022-05-23 16:33:42</time>
      </trkpt>
      <trkpt lat="41.78134" lon="0.95693">
        <ele>408.4</ele>
        <time>2022-05-23 16:33:43</time>
      </trkpt>
      <trkpt lat="41.78131" lon="0.95692">
        <ele>408.6</ele>
        <time>2022-05-23 16:33:44</time>
      </trkpt>
      <trkpt lat="41.78129" lon="0.95692">
        <ele>408.6</ele>
        <time>2022-05-23 16:33:45</time>
      </trkpt>
      <trkpt lat="41.78126" lon="0.95691">
        <ele>408.8</ele>
        <time>2022-05-23 16:33:46</time>
      </trkpt>
      <trkpt lat="41.78124" lon="0.9569">
        <ele>409</ele>
        <time>2022-05-23 16:33:47</time>
      </trkpt>
      <trkpt lat="41.78121" lon="0.9569">
        <ele>409</ele>
        <time>2022-05-23 16:33:48</time>
      </trkpt>
      <trkpt lat="41.78119" lon="0.9569">
        <ele>409.2</ele>
        <time>2022-05-23 16:33:49</time>
      </trkpt>
      <trkpt lat="41.78117" lon="0.95689">
        <ele>409.2</ele>
        <time>2022-05-23 16:33:50</time>
      </trkpt>
      <trkpt lat="41.78115" lon="0.95689">
        <ele>409.4</ele>
        <time>2022-05-23 16:33:51</time>
      </trkpt>
      <trkpt lat="41.78113" lon="0.95689">
        <ele>409.4</ele>
        <time>2022-05-23 16:33:52</time>
      </trkpt>
      <trkpt lat="41.78111" lon="0.95689">
        <ele>409.6</ele>
        <time>2022-05-23 16:33:53</time>
      </trkpt>
      <trkpt lat="41.78106" lon="0.95688">
        <ele>409.8</ele>
        <time>2022-05-23 16:33:54</time>
      </trkpt>
      <trkpt lat="41.78104" lon="0.95688">
        <ele>409.8</ele>
        <time>2022-05-23 16:33:55</time>
      </trkpt>
      <trkpt lat="41.78101" lon="0.95687">
        <ele>410</ele>
        <time>2022-05-23 16:33:56</time>
      </trkpt>
      <trkpt lat="41.78099" lon="0.95687">
        <ele>410</ele>
        <time>2022-05-23 16:33:57</time>
      </trkpt>
      <trkpt lat="41.78096" lon="0.95686">
        <ele>410.2</ele>
        <time>2022-05-23 16:33:58</time>
      </trkpt>
      <trkpt lat="41.78093" lon="0.95685">
        <ele>410.2</ele>
        <time>2022-05-23 16:33:59</time>
      </trkpt>
      <trkpt lat="41.78091" lon="0.95685">
        <ele>410.2</ele>
        <time>2022-05-23 16:34:00</time>
      </trkpt>
      <trkpt lat="41.78088" lon="0.95684">
        <ele>410.4</ele>
        <time>2022-05-23 16:34:01</time>
      </trkpt>
      <trkpt lat="41.78086" lon="0.95684">
        <ele>410.4</ele>
        <time>2022-05-23 16:34:02</time>
      </trkpt>
      <trkpt lat="41.78083" lon="0.95683">
        <ele>410.6</ele>
        <time>2022-05-23 16:34:03</time>
      </trkpt>
      <trkpt lat="41.78081" lon="0.95683">
        <ele>410.8</ele>
        <time>2022-05-23 16:34:04</time>
      </trkpt>
      <trkpt lat="41.78078" lon="0.95682">
        <ele>410.8</ele>
        <time>2022-05-23 16:34:05</time>
      </trkpt>
      <trkpt lat="41.78076" lon="0.95682">
        <ele>410.8</ele>
        <time>2022-05-23 16:34:06</time>
      </trkpt>
      <trkpt lat="41.78073" lon="0.95681">
        <ele>410.8</ele>
        <time>2022-05-23 16:34:07</time>
      </trkpt>
      <trkpt lat="41.7807" lon="0.95681">
        <ele>411</ele>
        <time>2022-05-23 16:34:08</time>
      </trkpt>
      <trkpt lat="41.78067" lon="0.9568">
        <ele>411</ele>
        <time>2022-05-23 16:34:09</time>
      </trkpt>
      <trkpt lat="41.78065" lon="0.9568">
        <ele>411</ele>
        <time>2022-05-23 16:34:10</time>
      </trkpt>
      <trkpt lat="41.78062" lon="0.9568">
        <ele>411.2</ele>
        <time>2022-05-23 16:34:11</time>
      </trkpt>
      <trkpt lat="41.78059" lon="0.95679">
        <ele>411.2</ele>
        <time>2022-05-23 16:34:12</time>
      </trkpt>
      <trkpt lat="41.78056" lon="0.95678">
        <ele>411.2</ele>
        <time>2022-05-23 16:34:13</time>
      </trkpt>
      <trkpt lat="41.78054" lon="0.95678">
        <ele>411.4</ele>
        <time>2022-05-23 16:34:14</time>
      </trkpt>
      <trkpt lat="41.78051" lon="0.95677">
        <ele>411.6</ele>
        <time>2022-05-23 16:34:15</time>
      </trkpt>
      <trkpt lat="41.78048" lon="0.95677">
        <ele>411.8</ele>
        <time>2022-05-23 16:34:16</time>
      </trkpt>
      <trkpt lat="41.78046" lon="0.95677">
        <ele>412</ele>
        <time>2022-05-23 16:34:17</time>
      </trkpt>
      <trkpt lat="41.78043" lon="0.95676">
        <ele>412.2</ele>
        <time>2022-05-23 16:34:18</time>
      </trkpt>
      <trkpt lat="41.7804" lon="0.95675">
        <ele>412.2</ele>
        <time>2022-05-23 16:34:19</time>
      </trkpt>
      <trkpt lat="41.78038" lon="0.95675">
        <ele>412.4</ele>
        <time>2022-05-23 16:34:20</time>
      </trkpt>
      <trkpt lat="41.78035" lon="0.95674">
        <ele>412.6</ele>
        <time>2022-05-23 16:34:21</time>
      </trkpt>
      <trkpt lat="41.78033" lon="0.95674">
        <ele>413</ele>
        <time>2022-05-23 16:34:22</time>
      </trkpt>
      <trkpt lat="41.78031" lon="0.95673">
        <ele>413.2</ele>
        <time>2022-05-23 16:34:23</time>
      </trkpt>
      <trkpt lat="41.78028" lon="0.95673">
        <ele>413.2</ele>
        <time>2022-05-23 16:34:24</time>
      </trkpt>
      <trkpt lat="41.78026" lon="0.95672">
        <ele>413.4</ele>
        <time>2022-05-23 16:34:25</time>
      </trkpt>
      <trkpt lat="41.78023" lon="0.95672">
        <ele>413.6</ele>
        <time>2022-05-23 16:34:26</time>
      </trkpt>
      <trkpt lat="41.78021" lon="0.95672">
        <ele>413.8</ele>
        <time>2022-05-23 16:34:27</time>
      </trkpt>
      <trkpt lat="41.78018" lon="0.95671">
        <ele>413.8</ele>
        <time>2022-05-23 16:34:28</time>
      </trkpt>
      <trkpt lat="41.78016" lon="0.95671">
        <ele>414</ele>
        <time>2022-05-23 16:34:29</time>
      </trkpt>
      <trkpt lat="41.78014" lon="0.9567">
        <ele>414.2</ele>
        <time>2022-05-23 16:34:30</time>
      </trkpt>
      <trkpt lat="41.78011" lon="0.9567">
        <ele>414.4</ele>
        <time>2022-05-23 16:34:31</time>
      </trkpt>
      <trkpt lat="41.78009" lon="0.9567">
        <ele>414.6</ele>
        <time>2022-05-23 16:34:32</time>
      </trkpt>
      <trkpt lat="41.78007" lon="0.9567">
        <ele>414.6</ele>
        <time>2022-05-23 16:34:33</time>
      </trkpt>
      <trkpt lat="41.78005" lon="0.95669">
        <ele>414.6</ele>
        <time>2022-05-23 16:34:34</time>
      </trkpt>
      <trkpt lat="41.78002" lon="0.95668">
        <ele>414.8</ele>
        <time>2022-05-23 16:34:35</time>
      </trkpt>
      <trkpt lat="41.78" lon="0.95668">
        <ele>414.8</ele>
        <time>2022-05-23 16:34:36</time>
      </trkpt>
      <trkpt lat="41.77998" lon="0.95668">
        <ele>414.8</ele>
        <time>2022-05-23 16:34:37</time>
      </trkpt>
      <trkpt lat="41.77996" lon="0.95667">
        <ele>415</ele>
        <time>2022-05-23 16:34:38</time>
      </trkpt>
      <trkpt lat="41.77993" lon="0.95667">
        <ele>415.2</ele>
        <time>2022-05-23 16:34:39</time>
      </trkpt>
      <trkpt lat="41.77991" lon="0.95667">
        <ele>415.2</ele>
        <time>2022-05-23 16:34:40</time>
      </trkpt>
      <trkpt lat="41.77989" lon="0.95666">
        <ele>415.4</ele>
        <time>2022-05-23 16:34:41</time>
      </trkpt>
      <trkpt lat="41.77986" lon="0.95666">
        <ele>415.4</ele>
        <time>2022-05-23 16:34:42</time>
      </trkpt>
      <trkpt lat="41.77984" lon="0.95665">
        <ele>415.6</ele>
        <time>2022-05-23 16:34:43</time>
      </trkpt>
      <trkpt lat="41.77982" lon="0.95664">
        <ele>415.8</ele>
        <time>2022-05-23 16:34:44</time>
      </trkpt>
      <trkpt lat="41.7798" lon="0.95664">
        <ele>415.8</ele>
        <time>2022-05-23 16:34:45</time>
      </trkpt>
      <trkpt lat="41.77977" lon="0.95664">
        <ele>416</ele>
        <time>2022-05-23 16:34:46</time>
      </trkpt>
      <trkpt lat="41.77975" lon="0.95663">
        <ele>416</ele>
        <time>2022-05-23 16:34:47</time>
      </trkpt>
      <trkpt lat="41.77972" lon="0.95663">
        <ele>416.2</ele>
        <time>2022-05-23 16:34:48</time>
      </trkpt>
      <trkpt lat="41.77971" lon="0.95663">
        <ele>416.4</ele>
        <time>2022-05-23 16:34:49</time>
      </trkpt>
      <trkpt lat="41.77968" lon="0.95663">
        <ele>416.4</ele>
        <time>2022-05-23 16:34:50</time>
      </trkpt>
      <trkpt lat="41.77966" lon="0.95662">
        <ele>416.6</ele>
        <time>2022-05-23 16:34:51</time>
      </trkpt>
      <trkpt lat="41.77964" lon="0.95662">
        <ele>416.8</ele>
        <time>2022-05-23 16:34:52</time>
      </trkpt>
      <trkpt lat="41.77962" lon="0.95661">
        <ele>416.8</ele>
        <time>2022-05-23 16:34:53</time>
      </trkpt>
      <trkpt lat="41.77959" lon="0.95661">
        <ele>416.8</ele>
        <time>2022-05-23 16:34:54</time>
      </trkpt>
      <trkpt lat="41.77957" lon="0.9566">
        <ele>417</ele>
        <time>2022-05-23 16:34:55</time>
      </trkpt>
      <trkpt lat="41.77955" lon="0.9566">
        <ele>417.2</ele>
        <time>2022-05-23 16:34:56</time>
      </trkpt>
      <trkpt lat="41.77953" lon="0.9566">
        <ele>417.4</ele>
        <time>2022-05-23 16:34:57</time>
      </trkpt>
      <trkpt lat="41.77951" lon="0.95659">
        <ele>417.4</ele>
        <time>2022-05-23 16:34:58</time>
      </trkpt>
      <trkpt lat="41.77949" lon="0.95659">
        <ele>417.6</ele>
        <time>2022-05-23 16:34:59</time>
      </trkpt>
      <trkpt lat="41.77947" lon="0.95659">
        <ele>417.8</ele>
        <time>2022-05-23 16:35:00</time>
      </trkpt>
      <trkpt lat="41.77945" lon="0.95658">
        <ele>417.8</ele>
        <time>2022-05-23 16:35:01</time>
      </trkpt>
      <trkpt lat="41.77943" lon="0.95658">
        <ele>418</ele>
        <time>2022-05-23 16:35:02</time>
      </trkpt>
      <trkpt lat="41.77941" lon="0.95657">
        <ele>418.2</ele>
        <time>2022-05-23 16:35:03</time>
      </trkpt>
      <trkpt lat="41.77939" lon="0.95657">
        <ele>418.4</ele>
        <time>2022-05-23 16:35:04</time>
      </trkpt>
      <trkpt lat="41.77937" lon="0.95657">
        <ele>418.4</ele>
        <time>2022-05-23 16:35:05</time>
      </trkpt>
      <trkpt lat="41.77935" lon="0.95656">
        <ele>418.6</ele>
        <time>2022-05-23 16:35:06</time>
      </trkpt>
      <trkpt lat="41.77933" lon="0.95656">
        <ele>418.6</ele>
        <time>2022-05-23 16:35:07</time>
      </trkpt>
      <trkpt lat="41.77931" lon="0.95656">
        <ele>418.8</ele>
        <time>2022-05-23 16:35:08</time>
      </trkpt>
      <trkpt lat="41.77929" lon="0.95656">
        <ele>419</ele>
        <time>2022-05-23 16:35:09</time>
      </trkpt>
      <trkpt lat="41.77927" lon="0.95655">
        <ele>419</ele>
        <time>2022-05-23 16:35:10</time>
      </trkpt>
      <trkpt lat="41.77925" lon="0.95655">
        <ele>419.2</ele>
        <time>2022-05-23 16:35:11</time>
      </trkpt>
      <trkpt lat="41.77923" lon="0.95655">
        <ele>419.2</ele>
        <time>2022-05-23 16:35:12</time>
      </trkpt>
      <trkpt lat="41.77922" lon="0.95654">
        <ele>419.4</ele>
        <time>2022-05-23 16:35:13</time>
      </trkpt>
      <trkpt lat="41.7792" lon="0.95654">
        <ele>419.4</ele>
        <time>2022-05-23 16:35:14</time>
      </trkpt>
      <trkpt lat="41.77918" lon="0.95653">
        <ele>419.6</ele>
        <time>2022-05-23 16:35:15</time>
      </trkpt>
      <trkpt lat="41.77916" lon="0.95653">
        <ele>419.8</ele>
        <time>2022-05-23 16:35:16</time>
      </trkpt>
      <trkpt lat="41.77914" lon="0.95653">
        <ele>420</ele>
        <time>2022-05-23 16:35:17</time>
      </trkpt>
      <trkpt lat="41.77912" lon="0.95652">
        <ele>420</ele>
        <time>2022-05-23 16:35:18</time>
      </trkpt>
      <trkpt lat="41.7791" lon="0.95652">
        <ele>420.2</ele>
        <time>2022-05-23 16:35:19</time>
      </trkpt>
      <trkpt lat="41.77908" lon="0.95652">
        <ele>420.4</ele>
        <time>2022-05-23 16:35:20</time>
      </trkpt>
      <trkpt lat="41.77906" lon="0.95651">
        <ele>420.4</ele>
        <time>2022-05-23 16:35:21</time>
      </trkpt>
      <trkpt lat="41.77904" lon="0.95651">
        <ele>420.6</ele>
        <time>2022-05-23 16:35:22</time>
      </trkpt>
      <trkpt lat="41.77902" lon="0.95651">
        <ele>420.8</ele>
        <time>2022-05-23 16:35:23</time>
      </trkpt>
      <trkpt lat="41.779" lon="0.95651">
        <ele>420.8</ele>
        <time>2022-05-23 16:35:24</time>
      </trkpt>
      <trkpt lat="41.77898" lon="0.9565">
        <ele>421</ele>
        <time>2022-05-23 16:35:25</time>
      </trkpt>
      <trkpt lat="41.77896" lon="0.9565">
        <ele>421.2</ele>
        <time>2022-05-23 16:35:26</time>
      </trkpt>
      <trkpt lat="41.77894" lon="0.9565">
        <ele>421.2</ele>
        <time>2022-05-23 16:35:27</time>
      </trkpt>
      <trkpt lat="41.77892" lon="0.95649">
        <ele>421.4</ele>
        <time>2022-05-23 16:35:28</time>
      </trkpt>
      <trkpt lat="41.7789" lon="0.95649">
        <ele>421.6</ele>
        <time>2022-05-23 16:35:29</time>
      </trkpt>
      <trkpt lat="41.77888" lon="0.95648">
        <ele>421.6</ele>
        <time>2022-05-23 16:35:30</time>
      </trkpt>
      <trkpt lat="41.77887" lon="0.95647">
        <ele>421.8</ele>
        <time>2022-05-23 16:35:31</time>
      </trkpt>
      <trkpt lat="41.77885" lon="0.95647">
        <ele>421.8</ele>
        <time>2022-05-23 16:35:32</time>
      </trkpt>
      <trkpt lat="41.77882" lon="0.95646">
        <ele>422</ele>
        <time>2022-05-23 16:35:33</time>
      </trkpt>
      <trkpt lat="41.7788" lon="0.95646">
        <ele>422.2</ele>
        <time>2022-05-23 16:35:34</time>
      </trkpt>
      <trkpt lat="41.77878" lon="0.95646">
        <ele>422.2</ele>
        <time>2022-05-23 16:35:35</time>
      </trkpt>
      <trkpt lat="41.77877" lon="0.95646">
        <ele>422.4</ele>
        <time>2022-05-23 16:35:36</time>
      </trkpt>
      <trkpt lat="41.77875" lon="0.95645">
        <ele>422.4</ele>
        <time>2022-05-23 16:35:37</time>
      </trkpt>
      <trkpt lat="41.77873" lon="0.95645">
        <ele>422.6</ele>
        <time>2022-05-23 16:35:38</time>
      </trkpt>
      <trkpt lat="41.77871" lon="0.95644">
        <ele>422.8</ele>
        <time>2022-05-23 16:35:39</time>
      </trkpt>
      <trkpt lat="41.77869" lon="0.95644">
        <ele>422.8</ele>
        <time>2022-05-23 16:35:40</time>
      </trkpt>
      <trkpt lat="41.77867" lon="0.95644">
        <ele>423</ele>
        <time>2022-05-23 16:35:41</time>
      </trkpt>
      <trkpt lat="41.77865" lon="0.95643">
        <ele>423.2</ele>
        <time>2022-05-23 16:35:42</time>
      </trkpt>
      <trkpt lat="41.77863" lon="0.95643">
        <ele>423.4</ele>
        <time>2022-05-23 16:35:43</time>
      </trkpt>
      <trkpt lat="41.77861" lon="0.95643">
        <ele>423.4</ele>
        <time>2022-05-23 16:35:44</time>
      </trkpt>
      <trkpt lat="41.77859" lon="0.95642">
        <ele>423.6</ele>
        <time>2022-05-23 16:35:45</time>
      </trkpt>
      <trkpt lat="41.77857" lon="0.95642">
        <ele>423.8</ele>
        <time>2022-05-23 16:35:46</time>
      </trkpt>
      <trkpt lat="41.77855" lon="0.95642">
        <ele>424</ele>
        <time>2022-05-23 16:35:47</time>
      </trkpt>
      <trkpt lat="41.77853" lon="0.95642">
        <ele>424.2</ele>
        <time>2022-05-23 16:35:48</time>
      </trkpt>
      <trkpt lat="41.77851" lon="0.95642">
        <ele>424.4</ele>
        <time>2022-05-23 16:35:49</time>
      </trkpt>
      <trkpt lat="41.77849" lon="0.95642">
        <ele>424.6</ele>
        <time>2022-05-23 16:35:50</time>
      </trkpt>
      <trkpt lat="41.77848" lon="0.95641">
        <ele>424.8</ele>
        <time>2022-05-23 16:35:51</time>
      </trkpt>
      <trkpt lat="41.77846" lon="0.95641">
        <ele>425</ele>
        <time>2022-05-23 16:35:52</time>
      </trkpt>
      <trkpt lat="41.77844" lon="0.9564">
        <ele>425</ele>
        <time>2022-05-23 16:35:53</time>
      </trkpt>
      <trkpt lat="41.77842" lon="0.95639">
        <ele>425.2</ele>
        <time>2022-05-23 16:35:54</time>
      </trkpt>
      <trkpt lat="41.7784" lon="0.95639">
        <ele>425.4</ele>
        <time>2022-05-23 16:35:55</time>
      </trkpt>
      <trkpt lat="41.77838" lon="0.95638">
        <ele>425.6</ele>
        <time>2022-05-23 16:35:56</time>
      </trkpt>
      <trkpt lat="41.77836" lon="0.95638">
        <ele>425.6</ele>
        <time>2022-05-23 16:35:57</time>
      </trkpt>
      <trkpt lat="41.77834" lon="0.95637">
        <ele>425.8</ele>
        <time>2022-05-23 16:35:58</time>
      </trkpt>
      <trkpt lat="41.77832" lon="0.95637">
        <ele>426</ele>
        <time>2022-05-23 16:35:59</time>
      </trkpt>
      <trkpt lat="41.7783" lon="0.95637">
        <ele>426.2</ele>
        <time>2022-05-23 16:36:00</time>
      </trkpt>
      <trkpt lat="41.77828" lon="0.95637">
        <ele>426.2</ele>
        <time>2022-05-23 16:36:01</time>
      </trkpt>
      <trkpt lat="41.77826" lon="0.95636">
        <ele>426.4</ele>
        <time>2022-05-23 16:36:02</time>
      </trkpt>
      <trkpt lat="41.77824" lon="0.95635">
        <ele>426.6</ele>
        <time>2022-05-23 16:36:03</time>
      </trkpt>
      <trkpt lat="41.77822" lon="0.95635">
        <ele>426.8</ele>
        <time>2022-05-23 16:36:04</time>
      </trkpt>
      <trkpt lat="41.7782" lon="0.95635">
        <ele>426.8</ele>
        <time>2022-05-23 16:36:05</time>
      </trkpt>
      <trkpt lat="41.77818" lon="0.95634">
        <ele>427</ele>
        <time>2022-05-23 16:36:06</time>
      </trkpt>
      <trkpt lat="41.77816" lon="0.95634">
        <ele>427.2</ele>
        <time>2022-05-23 16:36:07</time>
      </trkpt>
      <trkpt lat="41.77814" lon="0.95634">
        <ele>427.4</ele>
        <time>2022-05-23 16:36:08</time>
      </trkpt>
      <trkpt lat="41.77812" lon="0.95634">
        <ele>427.4</ele>
        <time>2022-05-23 16:36:09</time>
      </trkpt>
      <trkpt lat="41.7781" lon="0.95633">
        <ele>427.6</ele>
        <time>2022-05-23 16:36:10</time>
      </trkpt>
      <trkpt lat="41.77808" lon="0.95633">
        <ele>427.8</ele>
        <time>2022-05-23 16:36:11</time>
      </trkpt>
      <trkpt lat="41.77806" lon="0.95632">
        <ele>427.8</ele>
        <time>2022-05-23 16:36:12</time>
      </trkpt>
      <trkpt lat="41.77804" lon="0.95631">
        <ele>427.8</ele>
        <time>2022-05-23 16:36:13</time>
      </trkpt>
      <trkpt lat="41.77801" lon="0.95631">
        <ele>428</ele>
        <time>2022-05-23 16:36:14</time>
      </trkpt>
      <trkpt lat="41.77799" lon="0.9563">
        <ele>428</ele>
        <time>2022-05-23 16:36:15</time>
      </trkpt>
      <trkpt lat="41.77797" lon="0.9563">
        <ele>428.2</ele>
        <time>2022-05-23 16:36:16</time>
      </trkpt>
      <trkpt lat="41.77794" lon="0.95629">
        <ele>428.4</ele>
        <time>2022-05-23 16:36:17</time>
      </trkpt>
      <trkpt lat="41.77792" lon="0.95629">
        <ele>428.6</ele>
        <time>2022-05-23 16:36:18</time>
      </trkpt>
      <trkpt lat="41.77789" lon="0.95629">
        <ele>428.8</ele>
        <time>2022-05-23 16:36:19</time>
      </trkpt>
      <trkpt lat="41.77787" lon="0.95629">
        <ele>428.8</ele>
        <time>2022-05-23 16:36:20</time>
      </trkpt>
      <trkpt lat="41.77785" lon="0.95628">
        <ele>429</ele>
        <time>2022-05-23 16:36:21</time>
      </trkpt>
      <trkpt lat="41.77783" lon="0.95628">
        <ele>429.2</ele>
        <time>2022-05-23 16:36:22</time>
      </trkpt>
      <trkpt lat="41.7778" lon="0.95627">
        <ele>429.2</ele>
        <time>2022-05-23 16:36:23</time>
      </trkpt>
      <trkpt lat="41.77778" lon="0.95627">
        <ele>429.2</ele>
        <time>2022-05-23 16:36:24</time>
      </trkpt>
      <trkpt lat="41.77775" lon="0.95626">
        <ele>429.4</ele>
        <time>2022-05-23 16:36:25</time>
      </trkpt>
      <trkpt lat="41.77773" lon="0.95626">
        <ele>429.4</ele>
        <time>2022-05-23 16:36:26</time>
      </trkpt>
      <trkpt lat="41.7777" lon="0.95626">
        <ele>429.4</ele>
        <time>2022-05-23 16:36:27</time>
      </trkpt>
      <trkpt lat="41.77767" lon="0.95625">
        <ele>429.4</ele>
        <time>2022-05-23 16:36:28</time>
      </trkpt>
      <trkpt lat="41.77764" lon="0.95624">
        <ele>429.4</ele>
        <time>2022-05-23 16:36:29</time>
      </trkpt>
      <trkpt lat="41.77762" lon="0.95624">
        <ele>429.4</ele>
        <time>2022-05-23 16:36:30</time>
      </trkpt>
      <trkpt lat="41.77759" lon="0.95623">
        <ele>429.6</ele>
        <time>2022-05-23 16:36:31</time>
      </trkpt>
      <trkpt lat="41.77756" lon="0.95623">
        <ele>429.6</ele>
        <time>2022-05-23 16:36:32</time>
      </trkpt>
      <trkpt lat="41.77752" lon="0.95622">
        <ele>429.4</ele>
        <time>2022-05-23 16:36:33</time>
      </trkpt>
      <trkpt lat="41.77749" lon="0.95622">
        <ele>429.4</ele>
        <time>2022-05-23 16:36:34</time>
      </trkpt>
      <trkpt lat="41.77745" lon="0.95621">
        <ele>429.4</ele>
        <time>2022-05-23 16:36:35</time>
      </trkpt>
      <trkpt lat="41.77742" lon="0.95621">
        <ele>429.2</ele>
        <time>2022-05-23 16:36:36</time>
      </trkpt>
      <trkpt lat="41.77737" lon="0.9562">
        <ele>429</ele>
        <time>2022-05-23 16:36:37</time>
      </trkpt>
      <trkpt lat="41.77733" lon="0.95619">
        <ele>429</ele>
        <time>2022-05-23 16:36:38</time>
      </trkpt>
      <trkpt lat="41.77728" lon="0.95619">
        <ele>428.8</ele>
        <time>2022-05-23 16:36:39</time>
      </trkpt>
      <trkpt lat="41.77724" lon="0.95618">
        <ele>428.6</ele>
        <time>2022-05-23 16:36:40</time>
      </trkpt>
      <trkpt lat="41.77719" lon="0.95617">
        <ele>428.4</ele>
        <time>2022-05-23 16:36:41</time>
      </trkpt>
      <trkpt lat="41.77714" lon="0.95617">
        <ele>428.2</ele>
        <time>2022-05-23 16:36:42</time>
      </trkpt>
      <trkpt lat="41.77709" lon="0.95616">
        <ele>427.8</ele>
        <time>2022-05-23 16:36:43</time>
      </trkpt>
      <trkpt lat="41.77703" lon="0.95615">
        <ele>427.6</ele>
        <time>2022-05-23 16:36:44</time>
      </trkpt>
      <trkpt lat="41.77697" lon="0.95615">
        <ele>427.2</ele>
        <time>2022-05-23 16:36:45</time>
      </trkpt>
      <trkpt lat="41.77692" lon="0.95616">
        <ele>427</ele>
        <time>2022-05-23 16:36:46</time>
      </trkpt>
      <trkpt lat="41.77685" lon="0.95616">
        <ele>426.6</ele>
        <time>2022-05-23 16:36:47</time>
      </trkpt>
      <trkpt lat="41.77678" lon="0.95617">
        <ele>426.2</ele>
        <time>2022-05-23 16:36:48</time>
      </trkpt>
      <trkpt lat="41.77671" lon="0.95618">
        <ele>425.8</ele>
        <time>2022-05-23 16:36:49</time>
      </trkpt>
      <trkpt lat="41.77664" lon="0.9562">
        <ele>425.4</ele>
        <time>2022-05-23 16:36:50</time>
      </trkpt>
      <trkpt lat="41.77657" lon="0.95623">
        <ele>425</ele>
        <time>2022-05-23 16:36:51</time>
      </trkpt>
      <trkpt lat="41.77651" lon="0.95627">
        <ele>425</ele>
        <time>2022-05-23 16:36:52</time>
      </trkpt>
      <trkpt lat="41.77644" lon="0.95632">
        <ele>424.8</ele>
        <time>2022-05-23 16:36:53</time>
      </trkpt>
      <trkpt lat="41.77638" lon="0.95638">
        <ele>424.6</ele>
        <time>2022-05-23 16:36:54</time>
      </trkpt>
      <trkpt lat="41.77633" lon="0.95645">
        <ele>424.4</ele>
        <time>2022-05-23 16:36:55</time>
      </trkpt>
      <trkpt lat="41.77628" lon="0.95652">
        <ele>424</ele>
        <time>2022-05-23 16:36:56</time>
      </trkpt>
      <trkpt lat="41.77622" lon="0.95657">
        <ele>423.6</ele>
        <time>2022-05-23 16:36:57</time>
      </trkpt>
      <trkpt lat="41.77614" lon="0.95663">
        <ele>423</ele>
        <time>2022-05-23 16:36:58</time>
      </trkpt>
      <trkpt lat="41.77607" lon="0.95666">
        <ele>422.2</ele>
        <time>2022-05-23 16:36:59</time>
      </trkpt>
      <trkpt lat="41.77598" lon="0.95668">
        <ele>421.6</ele>
        <time>2022-05-23 16:37:00</time>
      </trkpt>
      <trkpt lat="41.77589" lon="0.95667">
        <ele>421</ele>
        <time>2022-05-23 16:37:01</time>
      </trkpt>
      <trkpt lat="41.77581" lon="0.95665">
        <ele>420.4</ele>
        <time>2022-05-23 16:37:02</time>
      </trkpt>
      <trkpt lat="41.77572" lon="0.95664">
        <ele>419.8</ele>
        <time>2022-05-23 16:37:03</time>
      </trkpt>
      <trkpt lat="41.77563" lon="0.95661">
        <ele>419.4</ele>
        <time>2022-05-23 16:37:04</time>
      </trkpt>
      <trkpt lat="41.77553" lon="0.9566">
        <ele>419</ele>
        <time>2022-05-23 16:37:05</time>
      </trkpt>
      <trkpt lat="41.77544" lon="0.95659">
        <ele>418.4</ele>
        <time>2022-05-23 16:37:06</time>
      </trkpt>
      <trkpt lat="41.77534" lon="0.95659">
        <ele>418</ele>
        <time>2022-05-23 16:37:07</time>
      </trkpt>
      <trkpt lat="41.77525" lon="0.95659">
        <ele>417.6</ele>
        <time>2022-05-23 16:37:08</time>
      </trkpt>
      <trkpt lat="41.77516" lon="0.95659">
        <ele>417.2</ele>
        <time>2022-05-23 16:37:09</time>
      </trkpt>
      <trkpt lat="41.77507" lon="0.95658">
        <ele>417</ele>
        <time>2022-05-23 16:37:10</time>
      </trkpt>
      <trkpt lat="41.77498" lon="0.95656">
        <ele>416.6</ele>
        <time>2022-05-23 16:37:11</time>
      </trkpt>
      <trkpt lat="41.77489" lon="0.95652">
        <ele>416.2</ele>
        <time>2022-05-23 16:37:12</time>
      </trkpt>
      <trkpt lat="41.77481" lon="0.95649">
        <ele>416.2</ele>
        <time>2022-05-23 16:37:13</time>
      </trkpt>
      <trkpt lat="41.77472" lon="0.95646">
        <ele>416</ele>
        <time>2022-05-23 16:37:14</time>
      </trkpt>
      <trkpt lat="41.77463" lon="0.95643">
        <ele>416</ele>
        <time>2022-05-23 16:37:15</time>
      </trkpt>
      <trkpt lat="41.77454" lon="0.95639">
        <ele>415.6</ele>
        <time>2022-05-23 16:37:16</time>
      </trkpt>
      <trkpt lat="41.77446" lon="0.95636">
        <ele>415.4</ele>
        <time>2022-05-23 16:37:17</time>
      </trkpt>
      <trkpt lat="41.77435" lon="0.95632">
        <ele>414.8</ele>
        <time>2022-05-23 16:37:18</time>
      </trkpt>
      <trkpt lat="41.77427" lon="0.95628">
        <ele>414.6</ele>
        <time>2022-05-23 16:37:19</time>
      </trkpt>
      <trkpt lat="41.77417" lon="0.95624">
        <ele>414.2</ele>
        <time>2022-05-23 16:37:20</time>
      </trkpt>
      <trkpt lat="41.77408" lon="0.9562">
        <ele>413.8</ele>
        <time>2022-05-23 16:37:21</time>
      </trkpt>
      <trkpt lat="41.77399" lon="0.95616">
        <ele>413.4</ele>
        <time>2022-05-23 16:37:22</time>
      </trkpt>
      <trkpt lat="41.7739" lon="0.95613">
        <ele>413.2</ele>
        <time>2022-05-23 16:37:23</time>
      </trkpt>
      <trkpt lat="41.77381" lon="0.95608">
        <ele>413</ele>
        <time>2022-05-23 16:37:24</time>
      </trkpt>
      <trkpt lat="41.77372" lon="0.95605">
        <ele>412.6</ele>
        <time>2022-05-23 16:37:25</time>
      </trkpt>
      <trkpt lat="41.77364" lon="0.95602">
        <ele>412.2</ele>
        <time>2022-05-23 16:37:26</time>
      </trkpt>
      <trkpt lat="41.77355" lon="0.95599">
        <ele>411.8</ele>
        <time>2022-05-23 16:37:27</time>
      </trkpt>
      <trkpt lat="41.77347" lon="0.95597">
        <ele>411.4</ele>
        <time>2022-05-23 16:37:28</time>
      </trkpt>
      <trkpt lat="41.77339" lon="0.95594">
        <ele>411</ele>
        <time>2022-05-23 16:37:29</time>
      </trkpt>
      <trkpt lat="41.77331" lon="0.95591">
        <ele>411</ele>
        <time>2022-05-23 16:37:30</time>
      </trkpt>
      <trkpt lat="41.77323" lon="0.95588">
        <ele>410.6</ele>
        <time>2022-05-23 16:37:31</time>
      </trkpt>
      <trkpt lat="41.77315" lon="0.95585">
        <ele>410.6</ele>
        <time>2022-05-23 16:37:32</time>
      </trkpt>
      <trkpt lat="41.77308" lon="0.95582">
        <ele>410.2</ele>
        <time>2022-05-23 16:37:33</time>
      </trkpt>
      <trkpt lat="41.773" lon="0.95579">
        <ele>409.8</ele>
        <time>2022-05-23 16:37:34</time>
      </trkpt>
      <trkpt lat="41.77294" lon="0.95577">
        <ele>409.4</ele>
        <time>2022-05-23 16:37:35</time>
      </trkpt>
      <trkpt lat="41.77286" lon="0.95575">
        <ele>409.2</ele>
        <time>2022-05-23 16:37:36</time>
      </trkpt>
      <trkpt lat="41.77279" lon="0.95572">
        <ele>409.2</ele>
        <time>2022-05-23 16:37:37</time>
      </trkpt>
      <trkpt lat="41.77273" lon="0.9557">
        <ele>409.2</ele>
        <time>2022-05-23 16:37:38</time>
      </trkpt>
      <trkpt lat="41.77265" lon="0.95567">
        <ele>409.2</ele>
        <time>2022-05-23 16:37:39</time>
      </trkpt>
      <trkpt lat="41.77259" lon="0.95564">
        <ele>409</ele>
        <time>2022-05-23 16:37:40</time>
      </trkpt>
      <trkpt lat="41.77252" lon="0.95561">
        <ele>409</ele>
        <time>2022-05-23 16:37:41</time>
      </trkpt>
      <trkpt lat="41.77245" lon="0.95557">
        <ele>408.8</ele>
        <time>2022-05-23 16:37:42</time>
      </trkpt>
      <trkpt lat="41.77239" lon="0.95552">
        <ele>408.6</ele>
        <time>2022-05-23 16:37:43</time>
      </trkpt>
      <trkpt lat="41.77235" lon="0.95546">
        <ele>408.6</ele>
        <time>2022-05-23 16:37:44</time>
      </trkpt>
      <trkpt lat="41.77231" lon="0.95541">
        <ele>408.8</ele>
        <time>2022-05-23 16:37:45</time>
      </trkpt>
      <trkpt lat="41.77226" lon="0.95537">
        <ele>409</ele>
        <time>2022-05-23 16:37:46</time>
      </trkpt>
      <trkpt lat="41.77222" lon="0.95534">
        <ele>409.4</ele>
        <time>2022-05-23 16:37:47</time>
      </trkpt>
      <trkpt lat="41.77217" lon="0.95534">
        <ele>409.6</ele>
        <time>2022-05-23 16:37:48</time>
      </trkpt>
      <trkpt lat="41.77212" lon="0.95538">
        <ele>409.8</ele>
        <time>2022-05-23 16:37:49</time>
      </trkpt>
      <trkpt lat="41.77209" lon="0.95544">
        <ele>409.6</ele>
        <time>2022-05-23 16:37:50</time>
      </trkpt>
      <trkpt lat="41.77205" lon="0.95551">
        <ele>409.4</ele>
        <time>2022-05-23 16:37:51</time>
      </trkpt>
      <trkpt lat="41.772" lon="0.95559">
        <ele>408.8</ele>
        <time>2022-05-23 16:37:52</time>
      </trkpt>
      <trkpt lat="41.77196" lon="0.95568">
        <ele>408.6</ele>
        <time>2022-05-23 16:37:53</time>
      </trkpt>
      <trkpt lat="41.77192" lon="0.95576">
        <ele>408.2</ele>
        <time>2022-05-23 16:37:54</time>
      </trkpt>
      <trkpt lat="41.77186" lon="0.95586">
        <ele>407.6</ele>
        <time>2022-05-23 16:37:55</time>
      </trkpt>
      <trkpt lat="41.77181" lon="0.95595">
        <ele>407.2</ele>
        <time>2022-05-23 16:37:56</time>
      </trkpt>
      <trkpt lat="41.77175" lon="0.95605">
        <ele>406.8</ele>
        <time>2022-05-23 16:37:57</time>
      </trkpt>
      <trkpt lat="41.7717" lon="0.95615">
        <ele>406.4</ele>
        <time>2022-05-23 16:37:58</time>
      </trkpt>
      <trkpt lat="41.77163" lon="0.95625">
        <ele>406</ele>
        <time>2022-05-23 16:37:59</time>
      </trkpt>
      <trkpt lat="41.77158" lon="0.95637">
        <ele>405.4</ele>
        <time>2022-05-23 16:38:00</time>
      </trkpt>
      <trkpt lat="41.77152" lon="0.95648">
        <ele>404.8</ele>
        <time>2022-05-23 16:38:01</time>
      </trkpt>
      <trkpt lat="41.77147" lon="0.9566">
        <ele>404</ele>
        <time>2022-05-23 16:38:02</time>
      </trkpt>
      <trkpt lat="41.7714" lon="0.95672">
        <ele>403.2</ele>
        <time>2022-05-23 16:38:03</time>
      </trkpt>
      <trkpt lat="41.77134" lon="0.95683">
        <ele>402.4</ele>
        <time>2022-05-23 16:38:04</time>
      </trkpt>
      <trkpt lat="41.77124" lon="0.95695">
        <ele>401.6</ele>
        <time>2022-05-23 16:38:05</time>
      </trkpt>
      <trkpt lat="41.77117" lon="0.95709">
        <ele>401</ele>
        <time>2022-05-23 16:38:06</time>
      </trkpt>
      <trkpt lat="41.7711" lon="0.95721">
        <ele>400.4</ele>
        <time>2022-05-23 16:38:07</time>
      </trkpt>
      <trkpt lat="41.77104" lon="0.9573">
        <ele>399.6</ele>
        <time>2022-05-23 16:38:08</time>
      </trkpt>
      <trkpt lat="41.77096" lon="0.95743">
        <ele>399</ele>
        <time>2022-05-23 16:38:09</time>
      </trkpt>
      <trkpt lat="41.77088" lon="0.95755">
        <ele>398.4</ele>
        <time>2022-05-23 16:38:10</time>
      </trkpt>
      <trkpt lat="41.7708" lon="0.95766">
        <ele>397.8</ele>
        <time>2022-05-23 16:38:11</time>
      </trkpt>
      <trkpt lat="41.77071" lon="0.95775">
        <ele>397.4</ele>
        <time>2022-05-23 16:38:12</time>
      </trkpt>
      <trkpt lat="41.77062" lon="0.95784">
        <ele>396.8</ele>
        <time>2022-05-23 16:38:13</time>
      </trkpt>
      <trkpt lat="41.77054" lon="0.95793">
        <ele>396.4</ele>
        <time>2022-05-23 16:38:14</time>
      </trkpt>
      <trkpt lat="41.77044" lon="0.95803">
        <ele>395.8</ele>
        <time>2022-05-23 16:38:15</time>
      </trkpt>
      <trkpt lat="41.77035" lon="0.95812">
        <ele>395.4</ele>
        <time>2022-05-23 16:38:16</time>
      </trkpt>
      <trkpt lat="41.77027" lon="0.9582">
        <ele>395</ele>
        <time>2022-05-23 16:38:17</time>
      </trkpt>
      <trkpt lat="41.77019" lon="0.95828">
        <ele>394.8</ele>
        <time>2022-05-23 16:38:18</time>
      </trkpt>
      <trkpt lat="41.77012" lon="0.95836">
        <ele>394.8</ele>
        <time>2022-05-23 16:38:19</time>
      </trkpt>
      <trkpt lat="41.77003" lon="0.95845">
        <ele>394.8</ele>
        <time>2022-05-23 16:38:20</time>
      </trkpt>
      <trkpt lat="41.76996" lon="0.95852">
        <ele>394.6</ele>
        <time>2022-05-23 16:38:21</time>
      </trkpt>
      <trkpt lat="41.76988" lon="0.95859">
        <ele>394.4</ele>
        <time>2022-05-23 16:38:22</time>
      </trkpt>
      <trkpt lat="41.76981" lon="0.95864">
        <ele>394.2</ele>
        <time>2022-05-23 16:38:23</time>
      </trkpt>
      <trkpt lat="41.76971" lon="0.9587">
        <ele>394</ele>
        <time>2022-05-23 16:38:24</time>
      </trkpt>
      <trkpt lat="41.76962" lon="0.95876">
        <ele>393.8</ele>
        <time>2022-05-23 16:38:25</time>
      </trkpt>
      <trkpt lat="41.76953" lon="0.9588">
        <ele>393.8</ele>
        <time>2022-05-23 16:38:26</time>
      </trkpt>
      <trkpt lat="41.76945" lon="0.95884">
        <ele>393.8</ele>
        <time>2022-05-23 16:38:27</time>
      </trkpt>
      <trkpt lat="41.76939" lon="0.95886">
        <ele>393.6</ele>
        <time>2022-05-23 16:38:28</time>
      </trkpt>
      <trkpt lat="41.76928" lon="0.9589">
        <ele>393.4</ele>
        <time>2022-05-23 16:38:29</time>
      </trkpt>
      <trkpt lat="41.7692" lon="0.95891">
        <ele>393.2</ele>
        <time>2022-05-23 16:38:30</time>
      </trkpt>
      <trkpt lat="41.76912" lon="0.95892">
        <ele>393.2</ele>
        <time>2022-05-23 16:38:31</time>
      </trkpt>
      <trkpt lat="41.76905" lon="0.95893">
        <ele>393</ele>
        <time>2022-05-23 16:38:32</time>
      </trkpt>
      <trkpt lat="41.76897" lon="0.95894">
        <ele>393</ele>
        <time>2022-05-23 16:38:33</time>
      </trkpt>
      <trkpt lat="41.7689" lon="0.95894">
        <ele>393</ele>
        <time>2022-05-23 16:38:34</time>
      </trkpt>
      <trkpt lat="41.76883" lon="0.95894">
        <ele>393</ele>
        <time>2022-05-23 16:38:35</time>
      </trkpt>
      <trkpt lat="41.76877" lon="0.95894">
        <ele>393.2</ele>
        <time>2022-05-23 16:38:36</time>
      </trkpt>
      <trkpt lat="41.7687" lon="0.95895">
        <ele>393.4</ele>
        <time>2022-05-23 16:38:37</time>
      </trkpt>
      <trkpt lat="41.76863" lon="0.95894">
        <ele>393.6</ele>
        <time>2022-05-23 16:38:38</time>
      </trkpt>
      <trkpt lat="41.76856" lon="0.95893">
        <ele>393.6</ele>
        <time>2022-05-23 16:38:39</time>
      </trkpt>
      <trkpt lat="41.7685" lon="0.95893">
        <ele>393.6</ele>
        <time>2022-05-23 16:38:40</time>
      </trkpt>
      <trkpt lat="41.76843" lon="0.95892">
        <ele>393.6</ele>
        <time>2022-05-23 16:38:41</time>
      </trkpt>
      <trkpt lat="41.76836" lon="0.95892">
        <ele>393.6</ele>
        <time>2022-05-23 16:38:42</time>
      </trkpt>
      <trkpt lat="41.76829" lon="0.95892">
        <ele>393.6</ele>
        <time>2022-05-23 16:38:43</time>
      </trkpt>
      <trkpt lat="41.76823" lon="0.95892">
        <ele>393.4</ele>
        <time>2022-05-23 16:38:44</time>
      </trkpt>
      <trkpt lat="41.76815" lon="0.95892">
        <ele>393.4</ele>
        <time>2022-05-23 16:38:45</time>
      </trkpt>
      <trkpt lat="41.76808" lon="0.95892">
        <ele>393.2</ele>
        <time>2022-05-23 16:38:46</time>
      </trkpt>
      <trkpt lat="41.76801" lon="0.95892">
        <ele>393.4</ele>
        <time>2022-05-23 16:38:47</time>
      </trkpt>
      <trkpt lat="41.76794" lon="0.95893">
        <ele>393.4</ele>
        <time>2022-05-23 16:38:48</time>
      </trkpt>
      <trkpt lat="41.76787" lon="0.95894">
        <ele>393</ele>
        <time>2022-05-23 16:38:49</time>
      </trkpt>
      <trkpt lat="41.7678" lon="0.95895">
        <ele>392.8</ele>
        <time>2022-05-23 16:38:50</time>
      </trkpt>
      <trkpt lat="41.76773" lon="0.95898">
        <ele>392.4</ele>
        <time>2022-05-23 16:38:51</time>
      </trkpt>
      <trkpt lat="41.76766" lon="0.959">
        <ele>392.2</ele>
        <time>2022-05-23 16:38:52</time>
      </trkpt>
      <trkpt lat="41.76758" lon="0.95902">
        <ele>391.8</ele>
        <time>2022-05-23 16:38:53</time>
      </trkpt>
      <trkpt lat="41.7675" lon="0.95904">
        <ele>391.6</ele>
        <time>2022-05-23 16:38:54</time>
      </trkpt>
      <trkpt lat="41.76743" lon="0.95907">
        <ele>391.4</ele>
        <time>2022-05-23 16:38:55</time>
      </trkpt>
      <trkpt lat="41.76735" lon="0.95909">
        <ele>391</ele>
        <time>2022-05-23 16:38:56</time>
      </trkpt>
      <trkpt lat="41.76727" lon="0.95912">
        <ele>390.4</ele>
        <time>2022-05-23 16:38:57</time>
      </trkpt>
      <trkpt lat="41.7672" lon="0.95914">
        <ele>390</ele>
        <time>2022-05-23 16:38:58</time>
      </trkpt>
      <trkpt lat="41.7671" lon="0.95917">
        <ele>389.4</ele>
        <time>2022-05-23 16:38:59</time>
      </trkpt>
      <trkpt lat="41.76703" lon="0.9592">
        <ele>388.8</ele>
        <time>2022-05-23 16:39:00</time>
      </trkpt>
      <trkpt lat="41.76693" lon="0.95923">
        <ele>388.2</ele>
        <time>2022-05-23 16:39:01</time>
      </trkpt>
      <trkpt lat="41.76684" lon="0.95926">
        <ele>387.6</ele>
        <time>2022-05-23 16:39:02</time>
      </trkpt>
      <trkpt lat="41.76675" lon="0.9593">
        <ele>386.8</ele>
        <time>2022-05-23 16:39:03</time>
      </trkpt>
      <trkpt lat="41.76665" lon="0.95934">
        <ele>386.2</ele>
        <time>2022-05-23 16:39:04</time>
      </trkpt>
      <trkpt lat="41.76657" lon="0.95936">
        <ele>385.6</ele>
        <time>2022-05-23 16:39:05</time>
      </trkpt>
      <trkpt lat="41.76645" lon="0.9594">
        <ele>385.2</ele>
        <time>2022-05-23 16:39:06</time>
      </trkpt>
      <trkpt lat="41.76635" lon="0.95942">
        <ele>384.8</ele>
        <time>2022-05-23 16:39:07</time>
      </trkpt>
      <trkpt lat="41.76623" lon="0.95947">
        <ele>383.8</ele>
        <time>2022-05-23 16:39:08</time>
      </trkpt>
      <trkpt lat="41.76614" lon="0.9595">
        <ele>383.2</ele>
        <time>2022-05-23 16:39:09</time>
      </trkpt>
      <trkpt lat="41.76603" lon="0.95954">
        <ele>382.6</ele>
        <time>2022-05-23 16:39:10</time>
      </trkpt>
      <trkpt lat="41.76592" lon="0.95958">
        <ele>381.8</ele>
        <time>2022-05-23 16:39:11</time>
      </trkpt>
      <trkpt lat="41.76581" lon="0.95962">
        <ele>381.2</ele>
        <time>2022-05-23 16:39:12</time>
      </trkpt>
      <trkpt lat="41.76572" lon="0.95965">
        <ele>380.6</ele>
        <time>2022-05-23 16:39:13</time>
      </trkpt>
      <trkpt lat="41.76563" lon="0.95968">
        <ele>380.2</ele>
        <time>2022-05-23 16:39:14</time>
      </trkpt>
      <trkpt lat="41.76551" lon="0.95972">
        <ele>379.6</ele>
        <time>2022-05-23 16:39:15</time>
      </trkpt>
      <trkpt lat="41.76541" lon="0.95976">
        <ele>379</ele>
        <time>2022-05-23 16:39:16</time>
      </trkpt>
      <trkpt lat="41.76529" lon="0.95982">
        <ele>378.4</ele>
        <time>2022-05-23 16:39:17</time>
      </trkpt>
      <trkpt lat="41.7652" lon="0.95986">
        <ele>378.2</ele>
        <time>2022-05-23 16:39:18</time>
      </trkpt>
      <trkpt lat="41.76512" lon="0.9599">
        <ele>377.8</ele>
        <time>2022-05-23 16:39:19</time>
      </trkpt>
      <trkpt lat="41.76501" lon="0.95997">
        <ele>377.4</ele>
        <time>2022-05-23 16:39:20</time>
      </trkpt>
      <trkpt lat="41.76493" lon="0.96002">
        <ele>377</ele>
        <time>2022-05-23 16:39:21</time>
      </trkpt>
      <trkpt lat="41.76483" lon="0.96009">
        <ele>376.6</ele>
        <time>2022-05-23 16:39:22</time>
      </trkpt>
      <trkpt lat="41.76473" lon="0.96015">
        <ele>376</ele>
        <time>2022-05-23 16:39:23</time>
      </trkpt>
      <trkpt lat="41.76464" lon="0.96022">
        <ele>375.6</ele>
        <time>2022-05-23 16:39:24</time>
      </trkpt>
      <trkpt lat="41.76454" lon="0.9603">
        <ele>375.2</ele>
        <time>2022-05-23 16:39:25</time>
      </trkpt>
      <trkpt lat="41.76445" lon="0.96038">
        <ele>374.8</ele>
        <time>2022-05-23 16:39:26</time>
      </trkpt>
      <trkpt lat="41.76436" lon="0.96044">
        <ele>374.6</ele>
        <time>2022-05-23 16:39:27</time>
      </trkpt>
      <trkpt lat="41.76426" lon="0.96052">
        <ele>374.2</ele>
        <time>2022-05-23 16:39:28</time>
      </trkpt>
      <trkpt lat="41.76416" lon="0.96059">
        <ele>373.8</ele>
        <time>2022-05-23 16:39:29</time>
      </trkpt>
      <trkpt lat="41.76406" lon="0.96067">
        <ele>373.4</ele>
        <time>2022-05-23 16:39:30</time>
      </trkpt>
      <trkpt lat="41.76398" lon="0.96074">
        <ele>373.2</ele>
        <time>2022-05-23 16:39:31</time>
      </trkpt>
      <trkpt lat="41.76387" lon="0.96081">
        <ele>372.8</ele>
        <time>2022-05-23 16:39:32</time>
      </trkpt>
      <trkpt lat="41.76379" lon="0.96088">
        <ele>372.4</ele>
        <time>2022-05-23 16:39:33</time>
      </trkpt>
      <trkpt lat="41.7637" lon="0.96094">
        <ele>371.8</ele>
        <time>2022-05-23 16:39:34</time>
      </trkpt>
      <trkpt lat="41.76359" lon="0.96103">
        <ele>371.2</ele>
        <time>2022-05-23 16:39:35</time>
      </trkpt>
      <trkpt lat="41.76352" lon="0.9611">
        <ele>370.8</ele>
        <time>2022-05-23 16:39:36</time>
      </trkpt>
      <trkpt lat="41.7634" lon="0.96118">
        <ele>370.2</ele>
        <time>2022-05-23 16:39:37</time>
      </trkpt>
      <trkpt lat="41.76332" lon="0.96124">
        <ele>369.8</ele>
        <time>2022-05-23 16:39:38</time>
      </trkpt>
      <trkpt lat="41.76321" lon="0.96131">
        <ele>369.2</ele>
        <time>2022-05-23 16:39:39</time>
      </trkpt>
      <trkpt lat="41.76312" lon="0.96136">
        <ele>368.8</ele>
        <time>2022-05-23 16:39:40</time>
      </trkpt>
      <trkpt lat="41.76301" lon="0.9614">
        <ele>368.2</ele>
        <time>2022-05-23 16:39:41</time>
      </trkpt>
      <trkpt lat="41.76292" lon="0.96143">
        <ele>367.8</ele>
        <time>2022-05-23 16:39:42</time>
      </trkpt>
      <trkpt lat="41.76282" lon="0.96146">
        <ele>367.2</ele>
        <time>2022-05-23 16:39:43</time>
      </trkpt>
      <trkpt lat="41.76269" lon="0.96149">
        <ele>366.8</ele>
        <time>2022-05-23 16:39:44</time>
      </trkpt>
      <trkpt lat="41.7626" lon="0.9615">
        <ele>366.2</ele>
        <time>2022-05-23 16:39:45</time>
      </trkpt>
      <trkpt lat="41.7625" lon="0.96153">
        <ele>365.8</ele>
        <time>2022-05-23 16:39:46</time>
      </trkpt>
      <trkpt lat="41.76239" lon="0.96154">
        <ele>365.4</ele>
        <time>2022-05-23 16:39:47</time>
      </trkpt>
      <trkpt lat="41.76227" lon="0.96156">
        <ele>364.8</ele>
        <time>2022-05-23 16:39:48</time>
      </trkpt>
      <trkpt lat="41.76217" lon="0.96158">
        <ele>364.2</ele>
        <time>2022-05-23 16:39:49</time>
      </trkpt>
      <trkpt lat="41.76206" lon="0.9616">
        <ele>363.8</ele>
        <time>2022-05-23 16:39:50</time>
      </trkpt>
      <trkpt lat="41.76196" lon="0.96163">
        <ele>363.4</ele>
        <time>2022-05-23 16:39:51</time>
      </trkpt>
      <trkpt lat="41.76187" lon="0.96167">
        <ele>363</ele>
        <time>2022-05-23 16:39:52</time>
      </trkpt>
      <trkpt lat="41.76175" lon="0.96172">
        <ele>362.6</ele>
        <time>2022-05-23 16:39:53</time>
      </trkpt>
      <trkpt lat="41.76167" lon="0.96176">
        <ele>362.4</ele>
        <time>2022-05-23 16:39:54</time>
      </trkpt>
      <trkpt lat="41.76157" lon="0.96181">
        <ele>362</ele>
        <time>2022-05-23 16:39:55</time>
      </trkpt>
      <trkpt lat="41.76147" lon="0.96187">
        <ele>361.6</ele>
        <time>2022-05-23 16:39:56</time>
      </trkpt>
      <trkpt lat="41.76137" lon="0.96193">
        <ele>361.2</ele>
        <time>2022-05-23 16:39:57</time>
      </trkpt>
      <trkpt lat="41.76128" lon="0.96198">
        <ele>360.8</ele>
        <time>2022-05-23 16:39:58</time>
      </trkpt>
      <trkpt lat="41.76119" lon="0.96204">
        <ele>360.4</ele>
        <time>2022-05-23 16:39:59</time>
      </trkpt>
      <trkpt lat="41.76111" lon="0.96208">
        <ele>359.8</ele>
        <time>2022-05-23 16:40:00</time>
      </trkpt>
      <trkpt lat="41.761" lon="0.96213">
        <ele>359.4</ele>
        <time>2022-05-23 16:40:01</time>
      </trkpt>
      <trkpt lat="41.7609" lon="0.96218">
        <ele>359.2</ele>
        <time>2022-05-23 16:40:02</time>
      </trkpt>
      <trkpt lat="41.76081" lon="0.96223">
        <ele>358.6</ele>
        <time>2022-05-23 16:40:03</time>
      </trkpt>
      <trkpt lat="41.7607" lon="0.96228">
        <ele>358.2</ele>
        <time>2022-05-23 16:40:04</time>
      </trkpt>
      <trkpt lat="41.76061" lon="0.96234">
        <ele>358</ele>
        <time>2022-05-23 16:40:05</time>
      </trkpt>
      <trkpt lat="41.76052" lon="0.96239">
        <ele>357.8</ele>
        <time>2022-05-23 16:40:06</time>
      </trkpt>
      <trkpt lat="41.76042" lon="0.96245">
        <ele>357.6</ele>
        <time>2022-05-23 16:40:07</time>
      </trkpt>
      <trkpt lat="41.76032" lon="0.9625">
        <ele>357.4</ele>
        <time>2022-05-23 16:40:08</time>
      </trkpt>
      <trkpt lat="41.76024" lon="0.96254">
        <ele>357.4</ele>
        <time>2022-05-23 16:40:09</time>
      </trkpt>
      <trkpt lat="41.76014" lon="0.96261">
        <ele>357.4</ele>
        <time>2022-05-23 16:40:10</time>
      </trkpt>
      <trkpt lat="41.76007" lon="0.96266">
        <ele>357.2</ele>
        <time>2022-05-23 16:40:11</time>
      </trkpt>
      <trkpt lat="41.75998" lon="0.96274">
        <ele>357.2</ele>
        <time>2022-05-23 16:40:12</time>
      </trkpt>
      <trkpt lat="41.75991" lon="0.96282">
        <ele>357.2</ele>
        <time>2022-05-23 16:40:13</time>
      </trkpt>
      <trkpt lat="41.75984" lon="0.9629">
        <ele>357.2</ele>
        <time>2022-05-23 16:40:14</time>
      </trkpt>
      <trkpt lat="41.75978" lon="0.96299">
        <ele>357.2</ele>
        <time>2022-05-23 16:40:15</time>
      </trkpt>
      <trkpt lat="41.75973" lon="0.96306">
        <ele>357</ele>
        <time>2022-05-23 16:40:16</time>
      </trkpt>
      <trkpt lat="41.75967" lon="0.96314">
        <ele>357</ele>
        <time>2022-05-23 16:40:17</time>
      </trkpt>
      <trkpt lat="41.75961" lon="0.96322">
        <ele>357</ele>
        <time>2022-05-23 16:40:18</time>
      </trkpt>
      <trkpt lat="41.75955" lon="0.9633">
        <ele>356.8</ele>
        <time>2022-05-23 16:40:19</time>
      </trkpt>
      <trkpt lat="41.7595" lon="0.96336">
        <ele>356.8</ele>
        <time>2022-05-23 16:40:20</time>
      </trkpt>
      <trkpt lat="41.75944" lon="0.96344">
        <ele>356.8</ele>
        <time>2022-05-23 16:40:21</time>
      </trkpt>
      <trkpt lat="41.7594" lon="0.96349">
        <ele>356.6</ele>
        <time>2022-05-23 16:40:22</time>
      </trkpt>
      <trkpt lat="41.75934" lon="0.96357">
        <ele>356.6</ele>
        <time>2022-05-23 16:40:23</time>
      </trkpt>
      <trkpt lat="41.75931" lon="0.96363">
        <ele>356.6</ele>
        <time>2022-05-23 16:40:24</time>
      </trkpt>
      <trkpt lat="41.75925" lon="0.9637">
        <ele>356.8</ele>
        <time>2022-05-23 16:40:25</time>
      </trkpt>
      <trkpt lat="41.75922" lon="0.96375">
        <ele>356.8</ele>
        <time>2022-05-23 16:40:26</time>
      </trkpt>
      <trkpt lat="41.75916" lon="0.96382">
        <ele>356.8</ele>
        <time>2022-05-23 16:40:27</time>
      </trkpt>
      <trkpt lat="41.75912" lon="0.96388">
        <ele>357</ele>
        <time>2022-05-23 16:40:28</time>
      </trkpt>
      <trkpt lat="41.75907" lon="0.96395">
        <ele>357</ele>
        <time>2022-05-23 16:40:29</time>
      </trkpt>
      <trkpt lat="41.75903" lon="0.964">
        <ele>357</ele>
        <time>2022-05-23 16:40:30</time>
      </trkpt>
      <trkpt lat="41.75898" lon="0.96407">
        <ele>357</ele>
        <time>2022-05-23 16:40:31</time>
      </trkpt>
      <trkpt lat="41.75894" lon="0.96411">
        <ele>357.2</ele>
        <time>2022-05-23 16:40:32</time>
      </trkpt>
      <trkpt lat="41.75888" lon="0.96418">
        <ele>357.2</ele>
        <time>2022-05-23 16:40:33</time>
      </trkpt>
      <trkpt lat="41.75885" lon="0.96422">
        <ele>357.2</ele>
        <time>2022-05-23 16:40:34</time>
      </trkpt>
      <trkpt lat="41.7588" lon="0.96429">
        <ele>357.2</ele>
        <time>2022-05-23 16:40:35</time>
      </trkpt>
      <trkpt lat="41.75876" lon="0.96435">
        <ele>357.4</ele>
        <time>2022-05-23 16:40:36</time>
      </trkpt>
      <trkpt lat="41.75871" lon="0.9644">
        <ele>357.4</ele>
        <time>2022-05-23 16:40:37</time>
      </trkpt>
      <trkpt lat="41.75867" lon="0.96445">
        <ele>357.4</ele>
        <time>2022-05-23 16:40:38</time>
      </trkpt>
      <trkpt lat="41.75864" lon="0.9645">
        <ele>357.4</ele>
        <time>2022-05-23 16:40:39</time>
      </trkpt>
      <trkpt lat="41.7586" lon="0.96455">
        <ele>357.4</ele>
        <time>2022-05-23 16:40:40</time>
      </trkpt>
      <trkpt lat="41.75856" lon="0.96461">
        <ele>357.6</ele>
        <time>2022-05-23 16:40:41</time>
      </trkpt>
      <trkpt lat="41.75852" lon="0.96466">
        <ele>357.6</ele>
        <time>2022-05-23 16:40:42</time>
      </trkpt>
      <trkpt lat="41.75848" lon="0.96472">
        <ele>357.6</ele>
        <time>2022-05-23 16:40:43</time>
      </trkpt>
      <trkpt lat="41.75845" lon="0.96477">
        <ele>357.4</ele>
        <time>2022-05-23 16:40:44</time>
      </trkpt>
      <trkpt lat="41.75842" lon="0.96481">
        <ele>357.4</ele>
        <time>2022-05-23 16:40:45</time>
      </trkpt>
      <trkpt lat="41.75838" lon="0.96484">
        <ele>357.4</ele>
        <time>2022-05-23 16:40:46</time>
      </trkpt>
      <trkpt lat="41.75834" lon="0.96486">
        <ele>357.2</ele>
        <time>2022-05-23 16:40:47</time>
      </trkpt>
      <trkpt lat="41.75831" lon="0.96487">
        <ele>357.2</ele>
        <time>2022-05-23 16:40:48</time>
      </trkpt>
      <trkpt lat="41.75826" lon="0.96486">
        <ele>357</ele>
        <time>2022-05-23 16:40:49</time>
      </trkpt>
      <trkpt lat="41.75822" lon="0.96485">
        <ele>357</ele>
        <time>2022-05-23 16:40:50</time>
      </trkpt>
      <trkpt lat="41.75818" lon="0.96484">
        <ele>357</ele>
        <time>2022-05-23 16:40:51</time>
      </trkpt>
      <trkpt lat="41.75814" lon="0.96483">
        <ele>356.8</ele>
        <time>2022-05-23 16:40:52</time>
      </trkpt>
      <trkpt lat="41.7581" lon="0.96482">
        <ele>356.8</ele>
        <time>2022-05-23 16:40:53</time>
      </trkpt>
      <trkpt lat="41.75806" lon="0.96481">
        <ele>356.6</ele>
        <time>2022-05-23 16:40:54</time>
      </trkpt>
      <trkpt lat="41.75801" lon="0.96481">
        <ele>356.6</ele>
        <time>2022-05-23 16:40:55</time>
      </trkpt>
      <trkpt lat="41.75797" lon="0.9648">
        <ele>356.4</ele>
        <time>2022-05-23 16:40:56</time>
      </trkpt>
      <trkpt lat="41.75793" lon="0.96481">
        <ele>356.4</ele>
        <time>2022-05-23 16:40:57</time>
      </trkpt>
      <trkpt lat="41.75789" lon="0.96481">
        <ele>356.2</ele>
        <time>2022-05-23 16:40:58</time>
      </trkpt>
      <trkpt lat="41.75785" lon="0.96482">
        <ele>356.2</ele>
        <time>2022-05-23 16:40:59</time>
      </trkpt>
      <trkpt lat="41.75781" lon="0.96483">
        <ele>356.2</ele>
        <time>2022-05-23 16:41:00</time>
      </trkpt>
      <trkpt lat="41.75778" lon="0.96484">
        <ele>356.2</ele>
        <time>2022-05-23 16:41:01</time>
      </trkpt>
      <trkpt lat="41.75774" lon="0.96484">
        <ele>356.4</ele>
        <time>2022-05-23 16:41:02</time>
      </trkpt>
      <trkpt lat="41.7577" lon="0.96484">
        <ele>356.4</ele>
        <time>2022-05-23 16:41:03</time>
      </trkpt>
      <trkpt lat="41.75767" lon="0.96484">
        <ele>356.4</ele>
        <time>2022-05-23 16:41:04</time>
      </trkpt>
      <trkpt lat="41.75763" lon="0.96484">
        <ele>356.2</ele>
        <time>2022-05-23 16:41:05</time>
      </trkpt>
      <trkpt lat="41.7576" lon="0.96485">
        <ele>356.2</ele>
        <time>2022-05-23 16:41:06</time>
      </trkpt>
      <trkpt lat="41.75757" lon="0.96486">
        <ele>356</ele>
        <time>2022-05-23 16:41:07</time>
      </trkpt>
      <trkpt lat="41.75754" lon="0.96486">
        <ele>356</ele>
        <time>2022-05-23 16:41:08</time>
      </trkpt>
      <trkpt lat="41.75751" lon="0.96487">
        <ele>355.8</ele>
        <time>2022-05-23 16:41:09</time>
      </trkpt>
      <trkpt lat="41.75749" lon="0.96488">
        <ele>355.6</ele>
        <time>2022-05-23 16:41:10</time>
      </trkpt>
      <trkpt lat="41.75747" lon="0.9649">
        <ele>355.4</ele>
        <time>2022-05-23 16:41:11</time>
      </trkpt>
      <trkpt lat="41.75745" lon="0.96492">
        <ele>355.4</ele>
        <time>2022-05-23 16:41:12</time>
      </trkpt>
      <trkpt lat="41.75743" lon="0.96493">
        <ele>355.4</ele>
        <time>2022-05-23 16:41:13</time>
      </trkpt>
      <trkpt lat="41.75743" lon="0.96493">
        <ele>355.4</ele>
        <time>2022-05-23 16:41:14</time>
      </trkpt>
      <trkpt lat="41.75742" lon="0.96492">
        <ele>355.2</ele>
        <time>2022-05-23 16:41:15</time>
      </trkpt>
      <trkpt lat="41.75742" lon="0.96491">
        <ele>355.2</ele>
        <time>2022-05-23 16:41:16</time>
      </trkpt>
      <trkpt lat="41.75742" lon="0.9649">
        <ele>355.2</ele>
        <time>2022-05-23 16:41:17</time>
      </trkpt>
      <trkpt lat="41.75741" lon="0.96485">
        <ele>354.8</ele>
        <time>2022-05-23 16:41:18</time>
      </trkpt>
      <trkpt lat="41.7574" lon="0.96482">
        <ele>354.6</ele>
        <time>2022-05-23 16:41:19</time>
      </trkpt>
      <trkpt lat="41.7574" lon="0.96478">
        <ele>354.6</ele>
        <time>2022-05-23 16:41:20</time>
      </trkpt>
      <trkpt lat="41.7574" lon="0.96474">
        <ele>354.6</ele>
        <time>2022-05-23 16:41:21</time>
      </trkpt>
      <trkpt lat="41.75739" lon="0.96471">
        <ele>354.6</ele>
        <time>2022-05-23 16:41:22</time>
      </trkpt>
      <trkpt lat="41.75739" lon="0.9647">
        <ele>354.6</ele>
        <time>2022-05-23 16:41:23</time>
      </trkpt>
      <trkpt lat="41.75739" lon="0.96469">
        <ele>354.6</ele>
        <time>2022-05-23 16:41:24</time>
      </trkpt>
      <trkpt lat="41.75738" lon="0.96469">
        <ele>354.8</ele>
        <time>2022-05-23 16:41:25</time>
      </trkpt>
      <trkpt lat="41.75738" lon="0.96469">
        <ele>354.8</ele>
        <time>2022-05-23 16:41:26</time>
      </trkpt>
      <trkpt lat="41.75738" lon="0.96469">
        <ele>354.8</ele>
        <time>2022-05-23 16:41:27</time>
      </trkpt>
      <trkpt lat="41.75738" lon="0.96469">
        <ele>354.6</ele>
        <time>2022-05-23 16:41:28</time>
      </trkpt>
      <trkpt lat="41.75738" lon="0.96469">
        <ele>354.6</ele>
        <time>2022-05-23 16:41:29</time>
      </trkpt>
      <trkpt lat="41.75738" lon="0.96469">
        <ele>354.8</ele>
        <time>2022-05-23 16:41:30</time>
      </trkpt>
      <trkpt lat="41.75738" lon="0.96469">
        <ele>354.8</ele>
        <time>2022-05-23 16:41:31</time>
      </trkpt>
      <trkpt lat="41.75734" lon="0.9648">
        <ele>354.8</ele>
        <time>2022-05-23 16:41:32</time>
      </trkpt>
      <trkpt lat="41.75734" lon="0.96481">
        <ele>354.8</ele>
        <time>2022-05-23 16:41:33</time>
      </trkpt>
      <trkpt lat="41.75734" lon="0.96481">
        <ele>354.8</ele>
        <time>2022-05-23 16:41:34</time>
      </trkpt>
      <trkpt lat="41.75735" lon="0.96483">
        <ele>355</ele>
        <time>2022-05-23 16:41:35</time>
      </trkpt>
      <trkpt lat="41.75735" lon="0.96483">
        <ele>355</ele>
        <time>2022-05-23 16:41:36</time>
      </trkpt>
      <trkpt lat="41.75735" lon="0.96483">
        <ele>355</ele>
        <time>2022-05-23 16:41:37</time>
      </trkpt>
      <trkpt lat="41.75737" lon="0.96486">
        <ele>355</ele>
        <time>2022-05-23 16:41:38</time>
      </trkpt>
      <trkpt lat="41.75737" lon="0.96487">
        <ele>355</ele>
        <time>2022-05-23 16:41:39</time>
      </trkpt>
      <trkpt lat="41.75738" lon="0.96488">
        <ele>355.2</ele>
        <time>2022-05-23 16:41:40</time>
      </trkpt>
      <trkpt lat="41.75738" lon="0.96489">
        <ele>355.2</ele>
        <time>2022-05-23 16:41:41</time>
      </trkpt>
      <trkpt lat="41.75738" lon="0.96489">
        <ele>355.2</ele>
        <time>2022-05-23 16:41:43</time>
      </trkpt>
      <trkpt lat="41.75738" lon="0.96489">
        <ele>355.4</ele>
        <time>2022-05-23 16:41:44</time>
      </trkpt>
      <trkpt lat="41.75738" lon="0.96489">
        <ele>355.4</ele>
        <time>2022-05-23 16:41:45</time>
      </trkpt>
      <trkpt lat="41.75738" lon="0.96489">
        <ele>355.4</ele>
        <time>2022-05-23 16:41:46</time>
      </trkpt>
      <trkpt lat="41.75748" lon="0.96491">
        <ele>355.8</ele>
        <time>2022-05-23 16:41:47</time>
      </trkpt>
      <trkpt lat="41.75748" lon="0.96491">
        <ele>355.8</ele>
        <time>2022-05-23 16:41:48</time>
      </trkpt>
      <trkpt lat="41.75749" lon="0.9649">
        <ele>355.8</ele>
        <time>2022-05-23 16:41:49</time>
      </trkpt>
      <trkpt lat="41.75749" lon="0.9649">
        <ele>355.8</ele>
        <time>2022-05-23 16:41:50</time>
      </trkpt>
      <trkpt lat="41.75749" lon="0.9649">
        <ele>355.8</ele>
        <time>2022-05-23 16:41:51</time>
      </trkpt>
      <trkpt lat="41.75749" lon="0.9649">
        <ele>355.8</ele>
        <time>2022-05-23 16:41:52</time>
      </trkpt>
      <trkpt lat="41.75754" lon="0.96477">
        <ele>356</ele>
        <time>2022-05-23 16:52:29</time>
      </trkpt>
      <trkpt lat="41.75761" lon="0.96477">
        <ele>356</ele>
        <time>2022-05-23 16:52:30</time>
      </trkpt>
      <trkpt lat="41.75764" lon="0.96477">
        <ele>356</ele>
        <time>2022-05-23 16:52:31</time>
      </trkpt>
      <trkpt lat="41.75766" lon="0.96477">
        <ele>356.2</ele>
        <time>2022-05-23 16:52:32</time>
      </trkpt>
      <trkpt lat="41.75767" lon="0.96477">
        <ele>356.2</ele>
        <time>2022-05-23 16:52:33</time>
      </trkpt>
      <trkpt lat="41.75768" lon="0.96477">
        <ele>356.2</ele>
        <time>2022-05-23 16:52:34</time>
      </trkpt>
      <trkpt lat="41.75769" lon="0.96477">
        <ele>356.2</ele>
        <time>2022-05-23 16:52:35</time>
      </trkpt>
      <trkpt lat="41.75771" lon="0.96477">
        <ele>356.2</ele>
        <time>2022-05-23 16:52:36</time>
      </trkpt>
      <trkpt lat="41.75771" lon="0.96477">
        <ele>356.2</ele>
        <time>2022-05-23 16:52:37</time>
      </trkpt>
      <trkpt lat="41.75772" lon="0.96477">
        <ele>356</ele>
        <time>2022-05-23 16:52:38</time>
      </trkpt>
      <trkpt lat="41.75773" lon="0.96477">
        <ele>356</ele>
        <time>2022-05-23 16:52:39</time>
      </trkpt>
      <trkpt lat="41.75774" lon="0.96478">
        <ele>356</ele>
        <time>2022-05-23 16:52:40</time>
      </trkpt>
      <trkpt lat="41.75776" lon="0.96478">
        <ele>356</ele>
        <time>2022-05-23 16:52:41</time>
      </trkpt>
      <trkpt lat="41.75777" lon="0.96478">
        <ele>356.2</ele>
        <time>2022-05-23 16:52:42</time>
      </trkpt>
      <trkpt lat="41.75778" lon="0.96477">
        <ele>356.2</ele>
        <time>2022-05-23 16:52:43</time>
      </trkpt>
      <trkpt lat="41.75779" lon="0.96476">
        <ele>356.2</ele>
        <time>2022-05-23 16:52:44</time>
      </trkpt>
      <trkpt lat="41.7578" lon="0.96474">
        <ele>356</ele>
        <time>2022-05-23 16:52:45</time>
      </trkpt>
      <trkpt lat="41.7578" lon="0.9647">
        <ele>356</ele>
        <time>2022-05-23 16:52:46</time>
      </trkpt>
      <trkpt lat="41.7578" lon="0.96468">
        <ele>356</ele>
        <time>2022-05-23 16:52:56</time>
      </trkpt>
      <trkpt lat="41.7578" lon="0.96465">
        <ele>355.8</ele>
        <time>2022-05-23 16:52:57</time>
      </trkpt>
      <trkpt lat="41.7578" lon="0.96462">
        <ele>355.8</ele>
        <time>2022-05-23 16:52:58</time>
      </trkpt>
      <trkpt lat="41.7578" lon="0.96459">
        <ele>355.8</ele>
        <time>2022-05-23 16:52:59</time>
      </trkpt>
      <trkpt lat="41.7578" lon="0.96457">
        <ele>355.6</ele>
        <time>2022-05-23 16:53:00</time>
      </trkpt>
      <trkpt lat="41.7578" lon="0.96454">
        <ele>355.6</ele>
        <time>2022-05-23 16:53:01</time>
      </trkpt>
      <trkpt lat="41.7578" lon="0.96451">
        <ele>355.4</ele>
        <time>2022-05-23 17:09:23</time>
      </trkpt>
      <trkpt lat="41.7578" lon="0.96446">
        <ele>355.4</ele>
        <time>2022-05-23 17:09:24</time>
      </trkpt>
      <trkpt lat="41.75779" lon="0.96441">
        <ele>355.2</ele>
        <time>2022-05-23 17:09:25</time>
      </trkpt>
      <trkpt lat="41.75779" lon="0.96437">
        <ele>355</ele>
        <time>2022-05-23 17:09:26</time>
      </trkpt>
      <trkpt lat="41.75779" lon="0.96431">
        <ele>354.8</ele>
        <time>2022-05-23 17:09:27</time>
      </trkpt>
      <trkpt lat="41.75778" lon="0.96427">
        <ele>354.6</ele>
        <time>2022-05-23 17:09:28</time>
      </trkpt>
      <trkpt lat="41.75777" lon="0.96422">
        <ele>354.2</ele>
        <time>2022-05-23 17:09:29</time>
      </trkpt>
      <trkpt lat="41.75776" lon="0.96416">
        <ele>354.2</ele>
        <time>2022-05-23 17:09:30</time>
      </trkpt>
      <trkpt lat="41.75776" lon="0.96411">
        <ele>354</ele>
        <time>2022-05-23 17:09:31</time>
      </trkpt>
      <trkpt lat="41.75775" lon="0.96407">
        <ele>354</ele>
        <time>2022-05-23 17:09:32</time>
      </trkpt>
      <trkpt lat="41.75775" lon="0.964">
        <ele>353.8</ele>
        <time>2022-05-23 17:09:33</time>
      </trkpt>
      <trkpt lat="41.75774" lon="0.96395">
        <ele>353.8</ele>
        <time>2022-05-23 17:09:34</time>
      </trkpt>
      <trkpt lat="41.75774" lon="0.9639">
        <ele>353.8</ele>
        <time>2022-05-23 17:09:35</time>
      </trkpt>
      <trkpt lat="41.75773" lon="0.96384">
        <ele>353.8</ele>
        <time>2022-05-23 17:09:36</time>
      </trkpt>
      <trkpt lat="41.75772" lon="0.96379">
        <ele>353.6</ele>
        <time>2022-05-23 17:09:37</time>
      </trkpt>
      <trkpt lat="41.75772" lon="0.96374">
        <ele>353.6</ele>
        <time>2022-05-23 17:09:38</time>
      </trkpt>
      <trkpt lat="41.75772" lon="0.96368">
        <ele>353.6</ele>
        <time>2022-05-23 17:09:39</time>
      </trkpt>
      <trkpt lat="41.75771" lon="0.96365">
        <ele>353.4</ele>
        <time>2022-05-23 17:09:40</time>
      </trkpt>
      <trkpt lat="41.7577" lon="0.9636">
        <ele>353.4</ele>
        <time>2022-05-23 17:09:41</time>
      </trkpt>
      <trkpt lat="41.75769" lon="0.96354">
        <ele>353.2</ele>
        <time>2022-05-23 17:09:42</time>
      </trkpt>
      <trkpt lat="41.75768" lon="0.9635">
        <ele>353.2</ele>
        <time>2022-05-23 17:09:43</time>
      </trkpt>
      <trkpt lat="41.75768" lon="0.96347">
        <ele>353.2</ele>
        <time>2022-05-23 17:09:44</time>
      </trkpt>
      <trkpt lat="41.75767" lon="0.96341">
        <ele>353</ele>
        <time>2022-05-23 17:09:45</time>
      </trkpt>
      <trkpt lat="41.75766" lon="0.96336">
        <ele>353</ele>
        <time>2022-05-23 17:09:46</time>
      </trkpt>
      <trkpt lat="41.75766" lon="0.96332">
        <ele>353</ele>
        <time>2022-05-23 17:09:47</time>
      </trkpt>
      <trkpt lat="41.75765" lon="0.96327">
        <ele>352.8</ele>
        <time>2022-05-23 17:09:48</time>
      </trkpt>
      <trkpt lat="41.75764" lon="0.96322">
        <ele>352.8</ele>
        <time>2022-05-23 17:09:49</time>
      </trkpt>
      <trkpt lat="41.75764" lon="0.96318">
        <ele>353</ele>
        <time>2022-05-23 17:09:50</time>
      </trkpt>
      <trkpt lat="41.75763" lon="0.96311">
        <ele>353</ele>
        <time>2022-05-23 17:09:51</time>
      </trkpt>
      <trkpt lat="41.75762" lon="0.96306">
        <ele>353</ele>
        <time>2022-05-23 17:09:52</time>
      </trkpt>
      <trkpt lat="41.75761" lon="0.96301">
        <ele>353</ele>
        <time>2022-05-23 17:09:53</time>
      </trkpt>
      <trkpt lat="41.7576" lon="0.96295">
        <ele>353</ele>
        <time>2022-05-23 17:09:54</time>
      </trkpt>
      <trkpt lat="41.75759" lon="0.9629">
        <ele>353</ele>
        <time>2022-05-23 17:09:55</time>
      </trkpt>
      <trkpt lat="41.75759" lon="0.96286">
        <ele>353</ele>
        <time>2022-05-23 17:09:56</time>
      </trkpt>
      <trkpt lat="41.75758" lon="0.96279">
        <ele>352.8</ele>
        <time>2022-05-23 17:09:57</time>
      </trkpt>
      <trkpt lat="41.75757" lon="0.96273">
        <ele>352.6</ele>
        <time>2022-05-23 17:09:58</time>
      </trkpt>
      <trkpt lat="41.75757" lon="0.96268">
        <ele>352.6</ele>
        <time>2022-05-23 17:09:59</time>
      </trkpt>
      <trkpt lat="41.75756" lon="0.96263">
        <ele>352.8</ele>
        <time>2022-05-23 17:10:00</time>
      </trkpt>
      <trkpt lat="41.75755" lon="0.96257">
        <ele>352.6</ele>
        <time>2022-05-23 17:10:01</time>
      </trkpt>
      <trkpt lat="41.75754" lon="0.96252">
        <ele>352.6</ele>
        <time>2022-05-23 17:10:02</time>
      </trkpt>
      <trkpt lat="41.75753" lon="0.96246">
        <ele>352.4</ele>
        <time>2022-05-23 17:10:03</time>
      </trkpt>
      <trkpt lat="41.75751" lon="0.9624">
        <ele>352.2</ele>
        <time>2022-05-23 17:10:04</time>
      </trkpt>
      <trkpt lat="41.75751" lon="0.96236">
        <ele>352</ele>
        <time>2022-05-23 17:10:05</time>
      </trkpt>
      <trkpt lat="41.75749" lon="0.9623">
        <ele>352</ele>
        <time>2022-05-23 17:10:06</time>
      </trkpt>
      <trkpt lat="41.75748" lon="0.96224">
        <ele>351.8</ele>
        <time>2022-05-23 17:10:07</time>
      </trkpt>
      <trkpt lat="41.75747" lon="0.9622">
        <ele>351.6</ele>
        <time>2022-05-23 17:10:08</time>
      </trkpt>
      <trkpt lat="41.75745" lon="0.96214">
        <ele>351.6</ele>
        <time>2022-05-23 17:10:09</time>
      </trkpt>
      <trkpt lat="41.75743" lon="0.96209">
        <ele>351.4</ele>
        <time>2022-05-23 17:10:10</time>
      </trkpt>
      <trkpt lat="41.75741" lon="0.96204">
        <ele>351.4</ele>
        <time>2022-05-23 17:10:11</time>
      </trkpt>
      <trkpt lat="41.75739" lon="0.96199">
        <ele>351.4</ele>
        <time>2022-05-23 17:10:12</time>
      </trkpt>
      <trkpt lat="41.75737" lon="0.96194">
        <ele>351.2</ele>
        <time>2022-05-23 17:10:13</time>
      </trkpt>
      <trkpt lat="41.75735" lon="0.9619">
        <ele>351.2</ele>
        <time>2022-05-23 17:10:14</time>
      </trkpt>
      <trkpt lat="41.75732" lon="0.96185">
        <ele>351.2</ele>
        <time>2022-05-23 17:10:15</time>
      </trkpt>
      <trkpt lat="41.7573" lon="0.96181">
        <ele>351.2</ele>
        <time>2022-05-23 17:10:16</time>
      </trkpt>
      <trkpt lat="41.75727" lon="0.96177">
        <ele>351.4</ele>
        <time>2022-05-23 17:10:17</time>
      </trkpt>
      <trkpt lat="41.75724" lon="0.96173">
        <ele>351.4</ele>
        <time>2022-05-23 17:10:18</time>
      </trkpt>
      <trkpt lat="41.75721" lon="0.96169">
        <ele>351.4</ele>
        <time>2022-05-23 17:10:19</time>
      </trkpt>
      <trkpt lat="41.75718" lon="0.96166">
        <ele>351.4</ele>
        <time>2022-05-23 17:10:20</time>
      </trkpt>
      <trkpt lat="41.75714" lon="0.96162">
        <ele>351.6</ele>
        <time>2022-05-23 17:10:21</time>
      </trkpt>
      <trkpt lat="41.75711" lon="0.96158">
        <ele>351.6</ele>
        <time>2022-05-23 17:10:22</time>
      </trkpt>
      <trkpt lat="41.75708" lon="0.96155">
        <ele>351.4</ele>
        <time>2022-05-23 17:10:23</time>
      </trkpt>
      <trkpt lat="41.75703" lon="0.96151">
        <ele>351.4</ele>
        <time>2022-05-23 17:10:24</time>
      </trkpt>
      <trkpt lat="41.757" lon="0.96149">
        <ele>351.2</ele>
        <time>2022-05-23 17:10:25</time>
      </trkpt>
      <trkpt lat="41.75695" lon="0.96145">
        <ele>351.2</ele>
        <time>2022-05-23 17:10:26</time>
      </trkpt>
      <trkpt lat="41.75692" lon="0.96142">
        <ele>351.2</ele>
        <time>2022-05-23 17:10:27</time>
      </trkpt>
      <trkpt lat="41.75687" lon="0.96138">
        <ele>351.4</ele>
        <time>2022-05-23 17:10:28</time>
      </trkpt>
      <trkpt lat="41.75684" lon="0.96136">
        <ele>351.4</ele>
        <time>2022-05-23 17:10:29</time>
      </trkpt>
      <trkpt lat="41.75679" lon="0.96132">
        <ele>351.4</ele>
        <time>2022-05-23 17:10:30</time>
      </trkpt>
      <trkpt lat="41.75675" lon="0.96129">
        <ele>351.4</ele>
        <time>2022-05-23 17:10:31</time>
      </trkpt>
      <trkpt lat="41.75671" lon="0.96126">
        <ele>351.4</ele>
        <time>2022-05-23 17:10:32</time>
      </trkpt>
      <trkpt lat="41.75667" lon="0.96122">
        <ele>351.4</ele>
        <time>2022-05-23 17:10:33</time>
      </trkpt>
      <trkpt lat="41.75663" lon="0.96119">
        <ele>351.4</ele>
        <time>2022-05-23 17:10:34</time>
      </trkpt>
      <trkpt lat="41.75659" lon="0.96116">
        <ele>351.4</ele>
        <time>2022-05-23 17:10:35</time>
      </trkpt>
      <trkpt lat="41.75655" lon="0.96113">
        <ele>351.4</ele>
        <time>2022-05-23 17:10:36</time>
      </trkpt>
      <trkpt lat="41.75651" lon="0.96111">
        <ele>351.4</ele>
        <time>2022-05-23 17:10:37</time>
      </trkpt>
      <trkpt lat="41.75647" lon="0.96108">
        <ele>351.6</ele>
        <time>2022-05-23 17:10:38</time>
      </trkpt>
      <trkpt lat="41.75643" lon="0.96105">
        <ele>351.6</ele>
        <time>2022-05-23 17:10:39</time>
      </trkpt>
      <trkpt lat="41.75639" lon="0.96102">
        <ele>351.6</ele>
        <time>2022-05-23 17:10:40</time>
      </trkpt>
      <trkpt lat="41.75635" lon="0.96099">
        <ele>351.6</ele>
        <time>2022-05-23 17:10:41</time>
      </trkpt>
      <trkpt lat="41.75631" lon="0.96096">
        <ele>351.6</ele>
        <time>2022-05-23 17:10:42</time>
      </trkpt>
      <trkpt lat="41.75627" lon="0.96093">
        <ele>351.6</ele>
        <time>2022-05-23 17:10:43</time>
      </trkpt>
      <trkpt lat="41.75623" lon="0.9609">
        <ele>351.6</ele>
        <time>2022-05-23 17:10:44</time>
      </trkpt>
      <trkpt lat="41.75619" lon="0.96087">
        <ele>351.6</ele>
        <time>2022-05-23 17:10:45</time>
      </trkpt>
      <trkpt lat="41.75615" lon="0.96084">
        <ele>351.4</ele>
        <time>2022-05-23 17:10:46</time>
      </trkpt>
      <trkpt lat="41.75612" lon="0.96082">
        <ele>351.4</ele>
        <time>2022-05-23 17:10:47</time>
      </trkpt>
      <trkpt lat="41.75607" lon="0.96079">
        <ele>351.4</ele>
        <time>2022-05-23 17:10:48</time>
      </trkpt>
      <trkpt lat="41.75604" lon="0.96076">
        <ele>351.6</ele>
        <time>2022-05-23 17:10:49</time>
      </trkpt>
      <trkpt lat="41.756" lon="0.96073">
        <ele>351.6</ele>
        <time>2022-05-23 17:10:50</time>
      </trkpt>
      <trkpt lat="41.75595" lon="0.9607">
        <ele>351.6</ele>
        <time>2022-05-23 17:10:51</time>
      </trkpt>
      <trkpt lat="41.75592" lon="0.96067">
        <ele>351.6</ele>
        <time>2022-05-23 17:10:52</time>
      </trkpt>
      <trkpt lat="41.75587" lon="0.96064">
        <ele>351.4</ele>
        <time>2022-05-23 17:10:53</time>
      </trkpt>
      <trkpt lat="41.75583" lon="0.96062">
        <ele>351.4</ele>
        <time>2022-05-23 17:10:54</time>
      </trkpt>
      <trkpt lat="41.7558" lon="0.96059">
        <ele>351.4</ele>
        <time>2022-05-23 17:10:55</time>
      </trkpt>
      <trkpt lat="41.75576" lon="0.96055">
        <ele>351.4</ele>
        <time>2022-05-23 17:10:56</time>
      </trkpt>
      <trkpt lat="41.75571" lon="0.96052">
        <ele>351.4</ele>
        <time>2022-05-23 17:10:57</time>
      </trkpt>
      <trkpt lat="41.75567" lon="0.96049">
        <ele>351.4</ele>
        <time>2022-05-23 17:10:58</time>
      </trkpt>
      <trkpt lat="41.75563" lon="0.96047">
        <ele>351.4</ele>
        <time>2022-05-23 17:10:59</time>
      </trkpt>
      <trkpt lat="41.75559" lon="0.96043">
        <ele>351.4</ele>
        <time>2022-05-23 17:11:00</time>
      </trkpt>
      <trkpt lat="41.75555" lon="0.9604">
        <ele>351.2</ele>
        <time>2022-05-23 17:11:01</time>
      </trkpt>
      <trkpt lat="41.75551" lon="0.96037">
        <ele>351.2</ele>
        <time>2022-05-23 17:11:02</time>
      </trkpt>
      <trkpt lat="41.75547" lon="0.96034">
        <ele>351</ele>
        <time>2022-05-23 17:11:03</time>
      </trkpt>
      <trkpt lat="41.75542" lon="0.96031">
        <ele>350.8</ele>
        <time>2022-05-23 17:11:04</time>
      </trkpt>
      <trkpt lat="41.75538" lon="0.96027">
        <ele>350.4</ele>
        <time>2022-05-23 17:11:05</time>
      </trkpt>
      <trkpt lat="41.75534" lon="0.96024">
        <ele>350.4</ele>
        <time>2022-05-23 17:11:06</time>
      </trkpt>
      <trkpt lat="41.75529" lon="0.96021">
        <ele>350.4</ele>
        <time>2022-05-23 17:11:07</time>
      </trkpt>
      <trkpt lat="41.75525" lon="0.96019">
        <ele>350.2</ele>
        <time>2022-05-23 17:11:08</time>
      </trkpt>
      <trkpt lat="41.7552" lon="0.96016">
        <ele>350.2</ele>
        <time>2022-05-23 17:11:09</time>
      </trkpt>
      <trkpt lat="41.75515" lon="0.96013">
        <ele>350</ele>
        <time>2022-05-23 17:11:10</time>
      </trkpt>
      <trkpt lat="41.75511" lon="0.96008">
        <ele>349.6</ele>
        <time>2022-05-23 17:11:11</time>
      </trkpt>
      <trkpt lat="41.75507" lon="0.96004">
        <ele>349.4</ele>
        <time>2022-05-23 17:11:12</time>
      </trkpt>
      <trkpt lat="41.75503" lon="0.96">
        <ele>349.4</ele>
        <time>2022-05-23 17:11:13</time>
      </trkpt>
      <trkpt lat="41.75499" lon="0.95997">
        <ele>349.2</ele>
        <time>2022-05-23 17:11:14</time>
      </trkpt>
      <trkpt lat="41.75494" lon="0.95993">
        <ele>349</ele>
        <time>2022-05-23 17:11:15</time>
      </trkpt>
      <trkpt lat="41.75489" lon="0.95989">
        <ele>349</ele>
        <time>2022-05-23 17:11:16</time>
      </trkpt>
      <trkpt lat="41.75485" lon="0.95985">
        <ele>348.8</ele>
        <time>2022-05-23 17:11:17</time>
      </trkpt>
      <trkpt lat="41.7548" lon="0.9598">
        <ele>348.6</ele>
        <time>2022-05-23 17:11:18</time>
      </trkpt>
      <trkpt lat="41.75476" lon="0.95976">
        <ele>348.4</ele>
        <time>2022-05-23 17:11:19</time>
      </trkpt>
      <trkpt lat="41.75472" lon="0.95971">
        <ele>348.2</ele>
        <time>2022-05-23 17:11:20</time>
      </trkpt>
      <trkpt lat="41.75467" lon="0.95966">
        <ele>347.8</ele>
        <time>2022-05-23 17:11:21</time>
      </trkpt>
      <trkpt lat="41.75463" lon="0.9596">
        <ele>347.6</ele>
        <time>2022-05-23 17:11:22</time>
      </trkpt>
      <trkpt lat="41.75459" lon="0.95955">
        <ele>347.4</ele>
        <time>2022-05-23 17:11:23</time>
      </trkpt>
      <trkpt lat="41.75455" lon="0.95949">
        <ele>347.4</ele>
        <time>2022-05-23 17:11:24</time>
      </trkpt>
      <trkpt lat="41.75452" lon="0.95944">
        <ele>347.2</ele>
        <time>2022-05-23 17:11:25</time>
      </trkpt>
      <trkpt lat="41.75448" lon="0.95938">
        <ele>347</ele>
        <time>2022-05-23 17:11:26</time>
      </trkpt>
      <trkpt lat="41.75444" lon="0.95932">
        <ele>346.8</ele>
        <time>2022-05-23 17:11:27</time>
      </trkpt>
      <trkpt lat="41.75441" lon="0.95927">
        <ele>346.8</ele>
        <time>2022-05-23 17:11:28</time>
      </trkpt>
      <trkpt lat="41.75437" lon="0.95921">
        <ele>346.6</ele>
        <time>2022-05-23 17:11:29</time>
      </trkpt>
      <trkpt lat="41.75434" lon="0.95915">
        <ele>346.4</ele>
        <time>2022-05-23 17:11:30</time>
      </trkpt>
      <trkpt lat="41.7543" lon="0.9591">
        <ele>346.2</ele>
        <time>2022-05-23 17:11:31</time>
      </trkpt>
      <trkpt lat="41.75427" lon="0.95905">
        <ele>346.2</ele>
        <time>2022-05-23 17:11:32</time>
      </trkpt>
      <trkpt lat="41.75424" lon="0.959">
        <ele>346</ele>
        <time>2022-05-23 17:11:33</time>
      </trkpt>
      <trkpt lat="41.75421" lon="0.95895">
        <ele>346</ele>
        <time>2022-05-23 17:11:34</time>
      </trkpt>
      <trkpt lat="41.75418" lon="0.95889">
        <ele>346.2</ele>
        <time>2022-05-23 17:11:35</time>
      </trkpt>
      <trkpt lat="41.75415" lon="0.95884">
        <ele>346.2</ele>
        <time>2022-05-23 17:11:36</time>
      </trkpt>
      <trkpt lat="41.75412" lon="0.95879">
        <ele>346.2</ele>
        <time>2022-05-23 17:11:37</time>
      </trkpt>
      <trkpt lat="41.75409" lon="0.95874">
        <ele>346.2</ele>
        <time>2022-05-23 17:11:38</time>
      </trkpt>
      <trkpt lat="41.75406" lon="0.95869">
        <ele>346.2</ele>
        <time>2022-05-23 17:11:39</time>
      </trkpt>
      <trkpt lat="41.75403" lon="0.95865">
        <ele>346.4</ele>
        <time>2022-05-23 17:11:40</time>
      </trkpt>
      <trkpt lat="41.754" lon="0.9586">
        <ele>346.4</ele>
        <time>2022-05-23 17:11:41</time>
      </trkpt>
      <trkpt lat="41.75397" lon="0.95854">
        <ele>346.2</ele>
        <time>2022-05-23 17:11:42</time>
      </trkpt>
      <trkpt lat="41.75394" lon="0.9585">
        <ele>346.2</ele>
        <time>2022-05-23 17:11:43</time>
      </trkpt>
      <trkpt lat="41.75391" lon="0.95844">
        <ele>346.4</ele>
        <time>2022-05-23 17:11:44</time>
      </trkpt>
      <trkpt lat="41.75387" lon="0.95839">
        <ele>346.4</ele>
        <time>2022-05-23 17:11:45</time>
      </trkpt>
      <trkpt lat="41.75384" lon="0.95834">
        <ele>346.2</ele>
        <time>2022-05-23 17:11:46</time>
      </trkpt>
      <trkpt lat="41.75381" lon="0.95828">
        <ele>346.2</ele>
        <time>2022-05-23 17:11:47</time>
      </trkpt>
      <trkpt lat="41.75378" lon="0.95823">
        <ele>346</ele>
        <time>2022-05-23 17:11:48</time>
      </trkpt>
      <trkpt lat="41.75375" lon="0.95817">
        <ele>345.8</ele>
        <time>2022-05-23 17:11:49</time>
      </trkpt>
      <trkpt lat="41.75371" lon="0.95812">
        <ele>345.8</ele>
        <time>2022-05-23 17:11:50</time>
      </trkpt>
      <trkpt lat="41.75368" lon="0.95807">
        <ele>345.6</ele>
        <time>2022-05-23 17:11:51</time>
      </trkpt>
      <trkpt lat="41.75365" lon="0.95802">
        <ele>345.6</ele>
        <time>2022-05-23 17:11:52</time>
      </trkpt>
      <trkpt lat="41.75362" lon="0.95797">
        <ele>345.6</ele>
        <time>2022-05-23 17:11:53</time>
      </trkpt>
      <trkpt lat="41.75359" lon="0.95791">
        <ele>345.6</ele>
        <time>2022-05-23 17:11:54</time>
      </trkpt>
      <trkpt lat="41.75356" lon="0.95786">
        <ele>345.6</ele>
        <time>2022-05-23 17:11:55</time>
      </trkpt>
      <trkpt lat="41.75353" lon="0.95781">
        <ele>345.6</ele>
        <time>2022-05-23 17:11:56</time>
      </trkpt>
      <trkpt lat="41.7535" lon="0.95775">
        <ele>345.4</ele>
        <time>2022-05-23 17:11:57</time>
      </trkpt>
      <trkpt lat="41.75346" lon="0.9577">
        <ele>345.4</ele>
        <time>2022-05-23 17:11:58</time>
      </trkpt>
      <trkpt lat="41.75344" lon="0.95766">
        <ele>345.4</ele>
        <time>2022-05-23 17:11:59</time>
      </trkpt>
      <trkpt lat="41.75341" lon="0.9576">
        <ele>345.4</ele>
        <time>2022-05-23 17:12:00</time>
      </trkpt>
      <trkpt lat="41.75337" lon="0.95754">
        <ele>345.2</ele>
        <time>2022-05-23 17:12:01</time>
      </trkpt>
      <trkpt lat="41.75334" lon="0.95749">
        <ele>345.2</ele>
        <time>2022-05-23 17:12:02</time>
      </trkpt>
      <trkpt lat="41.75331" lon="0.95744">
        <ele>345.2</ele>
        <time>2022-05-23 17:12:03</time>
      </trkpt>
      <trkpt lat="41.75327" lon="0.95739">
        <ele>345</ele>
        <time>2022-05-23 17:12:04</time>
      </trkpt>
      <trkpt lat="41.75324" lon="0.95734">
        <ele>344.8</ele>
        <time>2022-05-23 17:12:05</time>
      </trkpt>
      <trkpt lat="41.75321" lon="0.95729">
        <ele>344.6</ele>
        <time>2022-05-23 17:12:06</time>
      </trkpt>
      <trkpt lat="41.75318" lon="0.95724">
        <ele>344.4</ele>
        <time>2022-05-23 17:12:07</time>
      </trkpt>
      <trkpt lat="41.75315" lon="0.95719">
        <ele>344.6</ele>
        <time>2022-05-23 17:12:08</time>
      </trkpt>
      <trkpt lat="41.75313" lon="0.95714">
        <ele>344.4</ele>
        <time>2022-05-23 17:12:09</time>
      </trkpt>
      <trkpt lat="41.75309" lon="0.95709">
        <ele>344.6</ele>
        <time>2022-05-23 17:12:10</time>
      </trkpt>
      <trkpt lat="41.75306" lon="0.95704">
        <ele>344.4</ele>
        <time>2022-05-23 17:12:11</time>
      </trkpt>
      <trkpt lat="41.75303" lon="0.95699">
        <ele>344.4</ele>
        <time>2022-05-23 17:12:12</time>
      </trkpt>
      <trkpt lat="41.753" lon="0.95694">
        <ele>344.4</ele>
        <time>2022-05-23 17:12:13</time>
      </trkpt>
      <trkpt lat="41.75298" lon="0.9569">
        <ele>344.4</ele>
        <time>2022-05-23 17:12:14</time>
      </trkpt>
      <trkpt lat="41.75294" lon="0.95685">
        <ele>344.4</ele>
        <time>2022-05-23 17:12:15</time>
      </trkpt>
      <trkpt lat="41.75291" lon="0.9568">
        <ele>344.4</ele>
        <time>2022-05-23 17:12:16</time>
      </trkpt>
      <trkpt lat="41.75287" lon="0.95675">
        <ele>344.2</ele>
        <time>2022-05-23 17:12:17</time>
      </trkpt>
      <trkpt lat="41.75284" lon="0.95671">
        <ele>344.2</ele>
        <time>2022-05-23 17:12:18</time>
      </trkpt>
      <trkpt lat="41.7528" lon="0.95666">
        <ele>344.4</ele>
        <time>2022-05-23 17:12:19</time>
      </trkpt>
      <trkpt lat="41.75277" lon="0.95662">
        <ele>344.4</ele>
        <time>2022-05-23 17:12:20</time>
      </trkpt>
      <trkpt lat="41.75273" lon="0.95657">
        <ele>344.2</ele>
        <time>2022-05-23 17:12:21</time>
      </trkpt>
      <trkpt lat="41.75269" lon="0.95653">
        <ele>344.2</ele>
        <time>2022-05-23 17:12:22</time>
      </trkpt>
      <trkpt lat="41.75265" lon="0.95649">
        <ele>344.2</ele>
        <time>2022-05-23 17:12:23</time>
      </trkpt>
      <trkpt lat="41.75261" lon="0.95644">
        <ele>344</ele>
        <time>2022-05-23 17:12:24</time>
      </trkpt>
      <trkpt lat="41.75257" lon="0.9564">
        <ele>344</ele>
        <time>2022-05-23 17:12:25</time>
      </trkpt>
      <trkpt lat="41.75252" lon="0.95636">
        <ele>343.8</ele>
        <time>2022-05-23 17:12:26</time>
      </trkpt>
      <trkpt lat="41.75248" lon="0.95633">
        <ele>344</ele>
        <time>2022-05-23 17:12:27</time>
      </trkpt>
      <trkpt lat="41.75244" lon="0.95629">
        <ele>344</ele>
        <time>2022-05-23 17:12:28</time>
      </trkpt>
      <trkpt lat="41.7524" lon="0.95626">
        <ele>344</ele>
        <time>2022-05-23 17:12:29</time>
      </trkpt>
      <trkpt lat="41.75236" lon="0.95622">
        <ele>344</ele>
        <time>2022-05-23 17:12:30</time>
      </trkpt>
      <trkpt lat="41.75232" lon="0.95618">
        <ele>343.8</ele>
        <time>2022-05-23 17:12:31</time>
      </trkpt>
      <trkpt lat="41.75227" lon="0.95615">
        <ele>343.8</ele>
        <time>2022-05-23 17:12:32</time>
      </trkpt>
      <trkpt lat="41.75223" lon="0.95611">
        <ele>343.6</ele>
        <time>2022-05-23 17:12:33</time>
      </trkpt>
      <trkpt lat="41.75218" lon="0.95607">
        <ele>343.6</ele>
        <time>2022-05-23 17:12:34</time>
      </trkpt>
      <trkpt lat="41.75214" lon="0.95603">
        <ele>343.4</ele>
        <time>2022-05-23 17:12:35</time>
      </trkpt>
      <trkpt lat="41.7521" lon="0.956">
        <ele>343.4</ele>
        <time>2022-05-23 17:12:36</time>
      </trkpt>
      <trkpt lat="41.75205" lon="0.95596">
        <ele>343.2</ele>
        <time>2022-05-23 17:12:37</time>
      </trkpt>
      <trkpt lat="41.752" lon="0.95592">
        <ele>343</ele>
        <time>2022-05-23 17:12:38</time>
      </trkpt>
      <trkpt lat="41.75196" lon="0.95588">
        <ele>343</ele>
        <time>2022-05-23 17:12:39</time>
      </trkpt>
      <trkpt lat="41.75191" lon="0.95584">
        <ele>343</ele>
        <time>2022-05-23 17:12:40</time>
      </trkpt>
      <trkpt lat="41.7519" lon="0.95581">
        <ele>343</ele>
        <time>2022-05-23 17:12:41</time>
      </trkpt>
      <trkpt lat="41.75187" lon="0.95578">
        <ele>342.8</ele>
        <time>2022-05-23 17:12:42</time>
      </trkpt>
      <trkpt lat="41.75183" lon="0.95574">
        <ele>342.8</ele>
        <time>2022-05-23 17:12:43</time>
      </trkpt>
      <trkpt lat="41.75178" lon="0.95571">
        <ele>342.8</ele>
        <time>2022-05-23 17:12:44</time>
      </trkpt>
      <trkpt lat="41.75173" lon="0.95567">
        <ele>342.6</ele>
        <time>2022-05-23 17:12:45</time>
      </trkpt>
      <trkpt lat="41.75169" lon="0.95564">
        <ele>342.6</ele>
        <time>2022-05-23 17:12:46</time>
      </trkpt>
      <trkpt lat="41.75164" lon="0.9556">
        <ele>342.4</ele>
        <time>2022-05-23 17:12:47</time>
      </trkpt>
      <trkpt lat="41.75159" lon="0.95556">
        <ele>342.4</ele>
        <time>2022-05-23 17:12:48</time>
      </trkpt>
      <trkpt lat="41.75154" lon="0.95553">
        <ele>342.4</ele>
        <time>2022-05-23 17:12:49</time>
      </trkpt>
      <trkpt lat="41.75149" lon="0.95549">
        <ele>342.4</ele>
        <time>2022-05-23 17:12:50</time>
      </trkpt>
      <trkpt lat="41.75144" lon="0.95545">
        <ele>342.4</ele>
        <time>2022-05-23 17:12:51</time>
      </trkpt>
      <trkpt lat="41.75138" lon="0.95542">
        <ele>342.4</ele>
        <time>2022-05-23 17:12:52</time>
      </trkpt>
      <trkpt lat="41.75133" lon="0.95538">
        <ele>342.4</ele>
        <time>2022-05-23 17:12:53</time>
      </trkpt>
      <trkpt lat="41.75127" lon="0.95534">
        <ele>342.4</ele>
        <time>2022-05-23 17:12:54</time>
      </trkpt>
      <trkpt lat="41.75122" lon="0.95531">
        <ele>342.2</ele>
        <time>2022-05-23 17:12:55</time>
      </trkpt>
      <trkpt lat="41.75117" lon="0.95528">
        <ele>342.2</ele>
        <time>2022-05-23 17:12:56</time>
      </trkpt>
      <trkpt lat="41.75111" lon="0.95525">
        <ele>342.2</ele>
        <time>2022-05-23 17:12:57</time>
      </trkpt>
      <trkpt lat="41.75106" lon="0.95522">
        <ele>342.2</ele>
        <time>2022-05-23 17:12:58</time>
      </trkpt>
      <trkpt lat="41.751" lon="0.95519">
        <ele>342.2</ele>
        <time>2022-05-23 17:12:59</time>
      </trkpt>
      <trkpt lat="41.75095" lon="0.95517">
        <ele>342</ele>
        <time>2022-05-23 17:13:00</time>
      </trkpt>
      <trkpt lat="41.75089" lon="0.95515">
        <ele>342</ele>
        <time>2022-05-23 17:13:01</time>
      </trkpt>
      <trkpt lat="41.75084" lon="0.95513">
        <ele>342</ele>
        <time>2022-05-23 17:13:02</time>
      </trkpt>
      <trkpt lat="41.75079" lon="0.95511">
        <ele>341.8</ele>
        <time>2022-05-23 17:13:03</time>
      </trkpt>
      <trkpt lat="41.75074" lon="0.95509">
        <ele>341.8</ele>
        <time>2022-05-23 17:13:04</time>
      </trkpt>
      <trkpt lat="41.75068" lon="0.95507">
        <ele>341.8</ele>
        <time>2022-05-23 17:13:05</time>
      </trkpt>
      <trkpt lat="41.75063" lon="0.95505">
        <ele>341.8</ele>
        <time>2022-05-23 17:13:06</time>
      </trkpt>
      <trkpt lat="41.75058" lon="0.95503">
        <ele>341.8</ele>
        <time>2022-05-23 17:13:07</time>
      </trkpt>
      <trkpt lat="41.75052" lon="0.95501">
        <ele>341.8</ele>
        <time>2022-05-23 17:13:08</time>
      </trkpt>
      <trkpt lat="41.75047" lon="0.95499">
        <ele>341.8</ele>
        <time>2022-05-23 17:13:09</time>
      </trkpt>
      <trkpt lat="41.75042" lon="0.95497">
        <ele>341.6</ele>
        <time>2022-05-23 17:13:10</time>
      </trkpt>
      <trkpt lat="41.75036" lon="0.95495">
        <ele>341.8</ele>
        <time>2022-05-23 17:13:11</time>
      </trkpt>
      <trkpt lat="41.75031" lon="0.95494">
        <ele>341.6</ele>
        <time>2022-05-23 17:13:12</time>
      </trkpt>
      <trkpt lat="41.75025" lon="0.95492">
        <ele>341.6</ele>
        <time>2022-05-23 17:13:13</time>
      </trkpt>
      <trkpt lat="41.7502" lon="0.9549">
        <ele>341.6</ele>
        <time>2022-05-23 17:13:14</time>
      </trkpt>
      <trkpt lat="41.75014" lon="0.95488">
        <ele>341.4</ele>
        <time>2022-05-23 17:13:15</time>
      </trkpt>
      <trkpt lat="41.75009" lon="0.95487">
        <ele>341.4</ele>
        <time>2022-05-23 17:13:16</time>
      </trkpt>
      <trkpt lat="41.75004" lon="0.95485">
        <ele>341.4</ele>
        <time>2022-05-23 17:13:17</time>
      </trkpt>
      <trkpt lat="41.74998" lon="0.95483">
        <ele>341.4</ele>
        <time>2022-05-23 17:13:18</time>
      </trkpt>
      <trkpt lat="41.74993" lon="0.95481">
        <ele>341.4</ele>
        <time>2022-05-23 17:13:19</time>
      </trkpt>
      <trkpt lat="41.74988" lon="0.95479">
        <ele>341.2</ele>
        <time>2022-05-23 17:13:20</time>
      </trkpt>
      <trkpt lat="41.74983" lon="0.95477">
        <ele>341.2</ele>
        <time>2022-05-23 17:13:21</time>
      </trkpt>
      <trkpt lat="41.74979" lon="0.95475">
        <ele>341.2</ele>
        <time>2022-05-23 17:13:22</time>
      </trkpt>
      <trkpt lat="41.74974" lon="0.95473">
        <ele>341.2</ele>
        <time>2022-05-23 17:13:23</time>
      </trkpt>
      <trkpt lat="41.74969" lon="0.95471">
        <ele>341.2</ele>
        <time>2022-05-23 17:13:24</time>
      </trkpt>
      <trkpt lat="41.74965" lon="0.95468">
        <ele>341</ele>
        <time>2022-05-23 17:13:25</time>
      </trkpt>
      <trkpt lat="41.7496" lon="0.95466">
        <ele>341</ele>
        <time>2022-05-23 17:13:26</time>
      </trkpt>
      <trkpt lat="41.74955" lon="0.95462">
        <ele>341</ele>
        <time>2022-05-23 17:13:27</time>
      </trkpt>
      <trkpt lat="41.74951" lon="0.9546">
        <ele>341</ele>
        <time>2022-05-23 17:13:28</time>
      </trkpt>
      <trkpt lat="41.74946" lon="0.95457">
        <ele>340.8</ele>
        <time>2022-05-23 17:13:29</time>
      </trkpt>
      <trkpt lat="41.74942" lon="0.95454">
        <ele>340.8</ele>
        <time>2022-05-23 17:13:30</time>
      </trkpt>
      <trkpt lat="41.74937" lon="0.95451">
        <ele>340.8</ele>
        <time>2022-05-23 17:13:31</time>
      </trkpt>
      <trkpt lat="41.74933" lon="0.95447">
        <ele>340.8</ele>
        <time>2022-05-23 17:13:32</time>
      </trkpt>
      <trkpt lat="41.74929" lon="0.95444">
        <ele>340.8</ele>
        <time>2022-05-23 17:13:33</time>
      </trkpt>
      <trkpt lat="41.74925" lon="0.9544">
        <ele>340.8</ele>
        <time>2022-05-23 17:13:34</time>
      </trkpt>
      <trkpt lat="41.7492" lon="0.95437">
        <ele>340.8</ele>
        <time>2022-05-23 17:13:35</time>
      </trkpt>
      <trkpt lat="41.74917" lon="0.95433">
        <ele>340.6</ele>
        <time>2022-05-23 17:13:36</time>
      </trkpt>
      <trkpt lat="41.74912" lon="0.95429">
        <ele>340.6</ele>
        <time>2022-05-23 17:13:37</time>
      </trkpt>
      <trkpt lat="41.74908" lon="0.95426">
        <ele>340.6</ele>
        <time>2022-05-23 17:13:38</time>
      </trkpt>
      <trkpt lat="41.74904" lon="0.95422">
        <ele>340.4</ele>
        <time>2022-05-23 17:13:39</time>
      </trkpt>
      <trkpt lat="41.749" lon="0.95418">
        <ele>340.4</ele>
        <time>2022-05-23 17:13:40</time>
      </trkpt>
      <trkpt lat="41.74895" lon="0.95415">
        <ele>340.4</ele>
        <time>2022-05-23 17:13:41</time>
      </trkpt>
      <trkpt lat="41.74891" lon="0.95411">
        <ele>340.4</ele>
        <time>2022-05-23 17:13:42</time>
      </trkpt>
      <trkpt lat="41.74887" lon="0.95407">
        <ele>340.4</ele>
        <time>2022-05-23 17:13:43</time>
      </trkpt>
      <trkpt lat="41.74883" lon="0.95403">
        <ele>340.4</ele>
        <time>2022-05-23 17:13:44</time>
      </trkpt>
      <trkpt lat="41.74879" lon="0.95399">
        <ele>340.4</ele>
        <time>2022-05-23 17:13:45</time>
      </trkpt>
      <trkpt lat="41.74875" lon="0.95396">
        <ele>340.4</ele>
        <time>2022-05-23 17:13:46</time>
      </trkpt>
      <trkpt lat="41.7487" lon="0.95392">
        <ele>340.4</ele>
        <time>2022-05-23 17:13:47</time>
      </trkpt>
      <trkpt lat="41.74866" lon="0.95388">
        <ele>340.2</ele>
        <time>2022-05-23 17:13:48</time>
      </trkpt>
      <trkpt lat="41.74861" lon="0.95384">
        <ele>340.2</ele>
        <time>2022-05-23 17:13:49</time>
      </trkpt>
      <trkpt lat="41.74858" lon="0.95381">
        <ele>340.2</ele>
        <time>2022-05-23 17:13:50</time>
      </trkpt>
      <trkpt lat="41.74853" lon="0.95376">
        <ele>340.2</ele>
        <time>2022-05-23 17:13:51</time>
      </trkpt>
      <trkpt lat="41.7485" lon="0.95372">
        <ele>340</ele>
        <time>2022-05-23 17:13:52</time>
      </trkpt>
      <trkpt lat="41.74845" lon="0.95368">
        <ele>340</ele>
        <time>2022-05-23 17:13:53</time>
      </trkpt>
      <trkpt lat="41.74842" lon="0.95365">
        <ele>339.8</ele>
        <time>2022-05-23 17:13:54</time>
      </trkpt>
      <trkpt lat="41.74838" lon="0.95361">
        <ele>339.8</ele>
        <time>2022-05-23 17:13:55</time>
      </trkpt>
      <trkpt lat="41.74833" lon="0.95358">
        <ele>339.6</ele>
        <time>2022-05-23 17:13:56</time>
      </trkpt>
      <trkpt lat="41.7483" lon="0.95355">
        <ele>339.2</ele>
        <time>2022-05-23 17:13:57</time>
      </trkpt>
      <trkpt lat="41.74826" lon="0.95351">
        <ele>339.2</ele>
        <time>2022-05-23 17:13:58</time>
      </trkpt>
      <trkpt lat="41.74822" lon="0.95347">
        <ele>339.2</ele>
        <time>2022-05-23 17:13:59</time>
      </trkpt>
      <trkpt lat="41.74818" lon="0.95344">
        <ele>339.4</ele>
        <time>2022-05-23 17:14:00</time>
      </trkpt>
      <trkpt lat="41.74814" lon="0.9534">
        <ele>339.4</ele>
        <time>2022-05-23 17:14:01</time>
      </trkpt>
      <trkpt lat="41.7481" lon="0.95336">
        <ele>339.4</ele>
        <time>2022-05-23 17:14:02</time>
      </trkpt>
      <trkpt lat="41.74807" lon="0.95333">
        <ele>339.4</ele>
        <time>2022-05-23 17:14:03</time>
      </trkpt>
      <trkpt lat="41.74803" lon="0.9533">
        <ele>339.4</ele>
        <time>2022-05-23 17:14:04</time>
      </trkpt>
      <trkpt lat="41.74799" lon="0.95326">
        <ele>339.4</ele>
        <time>2022-05-23 17:14:05</time>
      </trkpt>
      <trkpt lat="41.74796" lon="0.95323">
        <ele>339.2</ele>
        <time>2022-05-23 17:14:06</time>
      </trkpt>
      <trkpt lat="41.74791" lon="0.95319">
        <ele>339</ele>
        <time>2022-05-23 17:14:07</time>
      </trkpt>
      <trkpt lat="41.74788" lon="0.95315">
        <ele>339</ele>
        <time>2022-05-23 17:14:08</time>
      </trkpt>
      <trkpt lat="41.74784" lon="0.95311">
        <ele>339</ele>
        <time>2022-05-23 17:14:09</time>
      </trkpt>
      <trkpt lat="41.7478" lon="0.95308">
        <ele>339</ele>
        <time>2022-05-23 17:14:10</time>
      </trkpt>
      <trkpt lat="41.74776" lon="0.95304">
        <ele>339</ele>
        <time>2022-05-23 17:14:11</time>
      </trkpt>
      <trkpt lat="41.74772" lon="0.95301">
        <ele>338.8</ele>
        <time>2022-05-23 17:14:12</time>
      </trkpt>
      <trkpt lat="41.74768" lon="0.95297">
        <ele>338.6</ele>
        <time>2022-05-23 17:14:13</time>
      </trkpt>
      <trkpt lat="41.74764" lon="0.95294">
        <ele>338.6</ele>
        <time>2022-05-23 17:14:14</time>
      </trkpt>
      <trkpt lat="41.7476" lon="0.95289">
        <ele>338.4</ele>
        <time>2022-05-23 17:14:15</time>
      </trkpt>
      <trkpt lat="41.74756" lon="0.95286">
        <ele>338.6</ele>
        <time>2022-05-23 17:14:16</time>
      </trkpt>
      <trkpt lat="41.74752" lon="0.95282">
        <ele>338.6</ele>
        <time>2022-05-23 17:14:17</time>
      </trkpt>
      <trkpt lat="41.74749" lon="0.95279">
        <ele>338.6</ele>
        <time>2022-05-23 17:14:18</time>
      </trkpt>
      <trkpt lat="41.74744" lon="0.95275">
        <ele>338.6</ele>
        <time>2022-05-23 17:14:19</time>
      </trkpt>
      <trkpt lat="41.7474" lon="0.95271">
        <ele>338.6</ele>
        <time>2022-05-23 17:14:20</time>
      </trkpt>
      <trkpt lat="41.74736" lon="0.95267">
        <ele>338.4</ele>
        <time>2022-05-23 17:14:21</time>
      </trkpt>
      <trkpt lat="41.74732" lon="0.95263">
        <ele>338.2</ele>
        <time>2022-05-23 17:14:22</time>
      </trkpt>
      <trkpt lat="41.74727" lon="0.95259">
        <ele>338</ele>
        <time>2022-05-23 17:14:23</time>
      </trkpt>
      <trkpt lat="41.74723" lon="0.95255">
        <ele>337.8</ele>
        <time>2022-05-23 17:14:24</time>
      </trkpt>
      <trkpt lat="41.74718" lon="0.95251">
        <ele>337.8</ele>
        <time>2022-05-23 17:14:25</time>
      </trkpt>
      <trkpt lat="41.74714" lon="0.95247">
        <ele>337.6</ele>
        <time>2022-05-23 17:14:26</time>
      </trkpt>
      <trkpt lat="41.74708" lon="0.95242">
        <ele>337.4</ele>
        <time>2022-05-23 17:14:27</time>
      </trkpt>
      <trkpt lat="41.74704" lon="0.95238">
        <ele>337.2</ele>
        <time>2022-05-23 17:14:28</time>
      </trkpt>
      <trkpt lat="41.74699" lon="0.95233">
        <ele>337</ele>
        <time>2022-05-23 17:14:29</time>
      </trkpt>
      <trkpt lat="41.74694" lon="0.95229">
        <ele>337</ele>
        <time>2022-05-23 17:14:30</time>
      </trkpt>
      <trkpt lat="41.74689" lon="0.95223">
        <ele>336.8</ele>
        <time>2022-05-23 17:14:31</time>
      </trkpt>
      <trkpt lat="41.74684" lon="0.9522">
        <ele>336.6</ele>
        <time>2022-05-23 17:14:32</time>
      </trkpt>
      <trkpt lat="41.74678" lon="0.95214">
        <ele>336.2</ele>
        <time>2022-05-23 17:14:33</time>
      </trkpt>
      <trkpt lat="41.74673" lon="0.9521">
        <ele>336</ele>
        <time>2022-05-23 17:14:34</time>
      </trkpt>
      <trkpt lat="41.74667" lon="0.95204">
        <ele>335.4</ele>
        <time>2022-05-23 17:14:35</time>
      </trkpt>
      <trkpt lat="41.74663" lon="0.952">
        <ele>335.2</ele>
        <time>2022-05-23 17:14:36</time>
      </trkpt>
      <trkpt lat="41.74656" lon="0.95194">
        <ele>335</ele>
        <time>2022-05-23 17:14:37</time>
      </trkpt>
      <trkpt lat="41.74651" lon="0.95189">
        <ele>335</ele>
        <time>2022-05-23 17:14:38</time>
      </trkpt>
      <trkpt lat="41.74644" lon="0.95183">
        <ele>334.8</ele>
        <time>2022-05-23 17:14:39</time>
      </trkpt>
      <trkpt lat="41.74639" lon="0.95178">
        <ele>334.6</ele>
        <time>2022-05-23 17:14:40</time>
      </trkpt>
      <trkpt lat="41.74632" lon="0.95172">
        <ele>334.2</ele>
        <time>2022-05-23 17:14:41</time>
      </trkpt>
      <trkpt lat="41.74627" lon="0.95167">
        <ele>333.8</ele>
        <time>2022-05-23 17:14:42</time>
      </trkpt>
      <trkpt lat="41.7462" lon="0.95161">
        <ele>333.4</ele>
        <time>2022-05-23 17:14:43</time>
      </trkpt>
      <trkpt lat="41.74615" lon="0.95156">
        <ele>333</ele>
        <time>2022-05-23 17:14:44</time>
      </trkpt>
      <trkpt lat="41.74608" lon="0.9515">
        <ele>332.8</ele>
        <time>2022-05-23 17:14:45</time>
      </trkpt>
      <trkpt lat="41.74602" lon="0.95144">
        <ele>332.6</ele>
        <time>2022-05-23 17:14:46</time>
      </trkpt>
      <trkpt lat="41.74596" lon="0.95138">
        <ele>332.6</ele>
        <time>2022-05-23 17:14:47</time>
      </trkpt>
      <trkpt lat="41.74591" lon="0.95134">
        <ele>332.6</ele>
        <time>2022-05-23 17:14:48</time>
      </trkpt>
      <trkpt lat="41.74583" lon="0.95127">
        <ele>332.4</ele>
        <time>2022-05-23 17:14:49</time>
      </trkpt>
      <trkpt lat="41.74578" lon="0.95122">
        <ele>332</ele>
        <time>2022-05-23 17:14:50</time>
      </trkpt>
      <trkpt lat="41.74571" lon="0.95115">
        <ele>331.6</ele>
        <time>2022-05-23 17:14:51</time>
      </trkpt>
      <trkpt lat="41.74566" lon="0.95111">
        <ele>331.2</ele>
        <time>2022-05-23 17:14:52</time>
      </trkpt>
      <trkpt lat="41.74559" lon="0.95105">
        <ele>330.8</ele>
        <time>2022-05-23 17:14:53</time>
      </trkpt>
      <trkpt lat="41.74554" lon="0.95101">
        <ele>330.6</ele>
        <time>2022-05-23 17:14:54</time>
      </trkpt>
      <trkpt lat="41.74547" lon="0.95094">
        <ele>330.4</ele>
        <time>2022-05-23 17:14:55</time>
      </trkpt>
      <trkpt lat="41.74543" lon="0.9509">
        <ele>330.2</ele>
        <time>2022-05-23 17:14:56</time>
      </trkpt>
      <trkpt lat="41.74536" lon="0.95084">
        <ele>330.2</ele>
        <time>2022-05-23 17:14:57</time>
      </trkpt>
      <trkpt lat="41.74531" lon="0.95079">
        <ele>330</ele>
        <time>2022-05-23 17:14:58</time>
      </trkpt>
      <trkpt lat="41.74525" lon="0.95073">
        <ele>329.8</ele>
        <time>2022-05-23 17:14:59</time>
      </trkpt>
      <trkpt lat="41.7452" lon="0.95069">
        <ele>329.8</ele>
        <time>2022-05-23 17:15:00</time>
      </trkpt>
      <trkpt lat="41.74513" lon="0.95063">
        <ele>329.6</ele>
        <time>2022-05-23 17:15:01</time>
      </trkpt>
      <trkpt lat="41.74509" lon="0.95059">
        <ele>329.4</ele>
        <time>2022-05-23 17:15:02</time>
      </trkpt>
      <trkpt lat="41.74502" lon="0.95053">
        <ele>329.4</ele>
        <time>2022-05-23 17:15:03</time>
      </trkpt>
      <trkpt lat="41.74498" lon="0.95049">
        <ele>329.6</ele>
        <time>2022-05-23 17:15:04</time>
      </trkpt>
      <trkpt lat="41.74492" lon="0.95043">
        <ele>329.6</ele>
        <time>2022-05-23 17:15:05</time>
      </trkpt>
      <trkpt lat="41.74487" lon="0.95039">
        <ele>329.6</ele>
        <time>2022-05-23 17:15:06</time>
      </trkpt>
      <trkpt lat="41.74481" lon="0.95033">
        <ele>329.4</ele>
        <time>2022-05-23 17:15:07</time>
      </trkpt>
      <trkpt lat="41.74476" lon="0.95029">
        <ele>329.6</ele>
        <time>2022-05-23 17:15:08</time>
      </trkpt>
      <trkpt lat="41.7447" lon="0.95023">
        <ele>329.6</ele>
        <time>2022-05-23 17:15:09</time>
      </trkpt>
      <trkpt lat="41.74466" lon="0.95019">
        <ele>329.6</ele>
        <time>2022-05-23 17:15:10</time>
      </trkpt>
      <trkpt lat="41.7446" lon="0.95014">
        <ele>329.6</ele>
        <time>2022-05-23 17:15:11</time>
      </trkpt>
      <trkpt lat="41.74456" lon="0.9501">
        <ele>329.4</ele>
        <time>2022-05-23 17:15:12</time>
      </trkpt>
      <trkpt lat="41.7445" lon="0.95004">
        <ele>329</ele>
        <time>2022-05-23 17:15:13</time>
      </trkpt>
      <trkpt lat="41.74445" lon="0.95">
        <ele>328.8</ele>
        <time>2022-05-23 17:15:14</time>
      </trkpt>
      <trkpt lat="41.7444" lon="0.94995">
        <ele>328.6</ele>
        <time>2022-05-23 17:15:15</time>
      </trkpt>
      <trkpt lat="41.74435" lon="0.94991">
        <ele>328.4</ele>
        <time>2022-05-23 17:15:16</time>
      </trkpt>
      <trkpt lat="41.7443" lon="0.94986">
        <ele>328.2</ele>
        <time>2022-05-23 17:15:17</time>
      </trkpt>
      <trkpt lat="41.74426" lon="0.94982">
        <ele>328.2</ele>
        <time>2022-05-23 17:15:18</time>
      </trkpt>
      <trkpt lat="41.7442" lon="0.94977">
        <ele>328.4</ele>
        <time>2022-05-23 17:15:19</time>
      </trkpt>
      <trkpt lat="41.74416" lon="0.94973">
        <ele>328.6</ele>
        <time>2022-05-23 17:15:20</time>
      </trkpt>
      <trkpt lat="41.74411" lon="0.94968">
        <ele>328.6</ele>
        <time>2022-05-23 17:15:21</time>
      </trkpt>
      <trkpt lat="41.74407" lon="0.94965">
        <ele>328.6</ele>
        <time>2022-05-23 17:15:22</time>
      </trkpt>
      <trkpt lat="41.74401" lon="0.9496">
        <ele>328.6</ele>
        <time>2022-05-23 17:15:23</time>
      </trkpt>
      <trkpt lat="41.74397" lon="0.94956">
        <ele>328.6</ele>
        <time>2022-05-23 17:15:24</time>
      </trkpt>
      <trkpt lat="41.74392" lon="0.94951">
        <ele>328.6</ele>
        <time>2022-05-23 17:15:25</time>
      </trkpt>
      <trkpt lat="41.74388" lon="0.94948">
        <ele>328.6</ele>
        <time>2022-05-23 17:15:26</time>
      </trkpt>
      <trkpt lat="41.74383" lon="0.94942">
        <ele>328.6</ele>
        <time>2022-05-23 17:15:27</time>
      </trkpt>
      <trkpt lat="41.74379" lon="0.94939">
        <ele>328.4</ele>
        <time>2022-05-23 17:15:28</time>
      </trkpt>
      <trkpt lat="41.74374" lon="0.94934">
        <ele>328.4</ele>
        <time>2022-05-23 17:15:29</time>
      </trkpt>
      <trkpt lat="41.7437" lon="0.9493">
        <ele>328.4</ele>
        <time>2022-05-23 17:15:30</time>
      </trkpt>
      <trkpt lat="41.74365" lon="0.94926">
        <ele>328.4</ele>
        <time>2022-05-23 17:15:31</time>
      </trkpt>
      <trkpt lat="41.74361" lon="0.94923">
        <ele>328.4</ele>
        <time>2022-05-23 17:15:32</time>
      </trkpt>
      <trkpt lat="41.74356" lon="0.94918">
        <ele>328.2</ele>
        <time>2022-05-23 17:15:33</time>
      </trkpt>
      <trkpt lat="41.74352" lon="0.94915">
        <ele>328.2</ele>
        <time>2022-05-23 17:15:34</time>
      </trkpt>
      <trkpt lat="41.74347" lon="0.9491">
        <ele>328.2</ele>
        <time>2022-05-23 17:15:35</time>
      </trkpt>
      <trkpt lat="41.74343" lon="0.94907">
        <ele>328.2</ele>
        <time>2022-05-23 17:15:36</time>
      </trkpt>
      <trkpt lat="41.74338" lon="0.94904">
        <ele>328.2</ele>
        <time>2022-05-23 17:15:37</time>
      </trkpt>
      <trkpt lat="41.74333" lon="0.94899">
        <ele>328.2</ele>
        <time>2022-05-23 17:15:38</time>
      </trkpt>
      <trkpt lat="41.74328" lon="0.94896">
        <ele>328.2</ele>
        <time>2022-05-23 17:15:39</time>
      </trkpt>
      <trkpt lat="41.74324" lon="0.94892">
        <ele>328.2</ele>
        <time>2022-05-23 17:15:40</time>
      </trkpt>
      <trkpt lat="41.7432" lon="0.9489">
        <ele>328.2</ele>
        <time>2022-05-23 17:15:41</time>
      </trkpt>
      <trkpt lat="41.74315" lon="0.94886">
        <ele>328.2</ele>
        <time>2022-05-23 17:15:42</time>
      </trkpt>
      <trkpt lat="41.74311" lon="0.94883">
        <ele>328.2</ele>
        <time>2022-05-23 17:15:43</time>
      </trkpt>
      <trkpt lat="41.74305" lon="0.94879">
        <ele>328.2</ele>
        <time>2022-05-23 17:15:44</time>
      </trkpt>
      <trkpt lat="41.743" lon="0.94876">
        <ele>328.2</ele>
        <time>2022-05-23 17:15:45</time>
      </trkpt>
      <trkpt lat="41.74295" lon="0.94873">
        <ele>328.2</ele>
        <time>2022-05-23 17:15:46</time>
      </trkpt>
      <trkpt lat="41.74291" lon="0.9487">
        <ele>328.2</ele>
        <time>2022-05-23 17:15:47</time>
      </trkpt>
      <trkpt lat="41.74286" lon="0.94867">
        <ele>328.2</ele>
        <time>2022-05-23 17:15:48</time>
      </trkpt>
      <trkpt lat="41.74282" lon="0.94864">
        <ele>328.2</ele>
        <time>2022-05-23 17:15:49</time>
      </trkpt>
      <trkpt lat="41.74277" lon="0.94861">
        <ele>328</ele>
        <time>2022-05-23 17:15:50</time>
      </trkpt>
      <trkpt lat="41.74273" lon="0.94858">
        <ele>328</ele>
        <time>2022-05-23 17:15:51</time>
      </trkpt>
      <trkpt lat="41.74268" lon="0.94855">
        <ele>328</ele>
        <time>2022-05-23 17:15:52</time>
      </trkpt>
      <trkpt lat="41.74264" lon="0.94853">
        <ele>328</ele>
        <time>2022-05-23 17:15:53</time>
      </trkpt>
      <trkpt lat="41.7426" lon="0.9485">
        <ele>328</ele>
        <time>2022-05-23 17:15:54</time>
      </trkpt>
      <trkpt lat="41.74255" lon="0.94847">
        <ele>328</ele>
        <time>2022-05-23 17:15:55</time>
      </trkpt>
      <trkpt lat="41.74251" lon="0.94844">
        <ele>328</ele>
        <time>2022-05-23 17:15:56</time>
      </trkpt>
      <trkpt lat="41.74248" lon="0.94841">
        <ele>327.8</ele>
        <time>2022-05-23 17:15:57</time>
      </trkpt>
      <trkpt lat="41.74243" lon="0.94837">
        <ele>327.6</ele>
        <time>2022-05-23 17:15:58</time>
      </trkpt>
      <trkpt lat="41.7424" lon="0.94833">
        <ele>327.6</ele>
        <time>2022-05-23 17:15:59</time>
      </trkpt>
      <trkpt lat="41.74236" lon="0.94829">
        <ele>327.4</ele>
        <time>2022-05-23 17:16:00</time>
      </trkpt>
      <trkpt lat="41.74233" lon="0.94824">
        <ele>327.2</ele>
        <time>2022-05-23 17:16:01</time>
      </trkpt>
      <trkpt lat="41.7423" lon="0.94819">
        <ele>327</ele>
        <time>2022-05-23 17:16:02</time>
      </trkpt>
      <trkpt lat="41.74226" lon="0.94814">
        <ele>327</ele>
        <time>2022-05-23 17:16:03</time>
      </trkpt>
      <trkpt lat="41.74222" lon="0.94812">
        <ele>327.4</ele>
        <time>2022-05-23 17:16:04</time>
      </trkpt>
      <trkpt lat="41.74219" lon="0.94813">
        <ele>327.6</ele>
        <time>2022-05-23 17:16:05</time>
      </trkpt>
      <trkpt lat="41.74215" lon="0.94817">
        <ele>327.8</ele>
        <time>2022-05-23 17:16:06</time>
      </trkpt>
      <trkpt lat="41.74213" lon="0.94822">
        <ele>327.8</ele>
        <time>2022-05-23 17:16:07</time>
      </trkpt>
      <trkpt lat="41.7421" lon="0.94828">
        <ele>327.8</ele>
        <time>2022-05-23 17:16:08</time>
      </trkpt>
      <trkpt lat="41.74208" lon="0.94834">
        <ele>328</ele>
        <time>2022-05-23 17:16:09</time>
      </trkpt>
      <trkpt lat="41.74205" lon="0.9484">
        <ele>328</ele>
        <time>2022-05-23 17:16:10</time>
      </trkpt>
      <trkpt lat="41.74203" lon="0.94846">
        <ele>328</ele>
        <time>2022-05-23 17:16:11</time>
      </trkpt>
      <trkpt lat="41.742" lon="0.94852">
        <ele>327.8</ele>
        <time>2022-05-23 17:16:12</time>
      </trkpt>
      <trkpt lat="41.74198" lon="0.94859">
        <ele>327.8</ele>
        <time>2022-05-23 17:16:13</time>
      </trkpt>
      <trkpt lat="41.74195" lon="0.94865">
        <ele>328</ele>
        <time>2022-05-23 17:16:14</time>
      </trkpt>
      <trkpt lat="41.74193" lon="0.94872">
        <ele>328</ele>
        <time>2022-05-23 17:16:15</time>
      </trkpt>
      <trkpt lat="41.74191" lon="0.94879">
        <ele>328</ele>
        <time>2022-05-23 17:16:16</time>
      </trkpt>
      <trkpt lat="41.74189" lon="0.94886">
        <ele>328</ele>
        <time>2022-05-23 17:16:17</time>
      </trkpt>
      <trkpt lat="41.74186" lon="0.94893">
        <ele>328</ele>
        <time>2022-05-23 17:16:18</time>
      </trkpt>
      <trkpt lat="41.74184" lon="0.94899">
        <ele>328</ele>
        <time>2022-05-23 17:16:19</time>
      </trkpt>
      <trkpt lat="41.74181" lon="0.94907">
        <ele>328.2</ele>
        <time>2022-05-23 17:16:20</time>
      </trkpt>
      <trkpt lat="41.74178" lon="0.94914">
        <ele>328.2</ele>
        <time>2022-05-23 17:16:21</time>
      </trkpt>
      <trkpt lat="41.74176" lon="0.94921">
        <ele>328</ele>
        <time>2022-05-23 17:16:22</time>
      </trkpt>
      <trkpt lat="41.74174" lon="0.94928">
        <ele>328</ele>
        <time>2022-05-23 17:16:23</time>
      </trkpt>
      <trkpt lat="41.74171" lon="0.94936">
        <ele>328</ele>
        <time>2022-05-23 17:16:24</time>
      </trkpt>
      <trkpt lat="41.74168" lon="0.94943">
        <ele>327.8</ele>
        <time>2022-05-23 17:16:25</time>
      </trkpt>
      <trkpt lat="41.74166" lon="0.9495">
        <ele>327.8</ele>
        <time>2022-05-23 17:16:26</time>
      </trkpt>
      <trkpt lat="41.74163" lon="0.94957">
        <ele>328</ele>
        <time>2022-05-23 17:16:27</time>
      </trkpt>
      <trkpt lat="41.7416" lon="0.94964">
        <ele>327.8</ele>
        <time>2022-05-23 17:16:28</time>
      </trkpt>
      <trkpt lat="41.74158" lon="0.94971">
        <ele>327.8</ele>
        <time>2022-05-23 17:16:29</time>
      </trkpt>
      <trkpt lat="41.74155" lon="0.94979">
        <ele>327.8</ele>
        <time>2022-05-23 17:16:30</time>
      </trkpt>
      <trkpt lat="41.74152" lon="0.94986">
        <ele>327.8</ele>
        <time>2022-05-23 17:16:31</time>
      </trkpt>
      <trkpt lat="41.7415" lon="0.94993">
        <ele>327.8</ele>
        <time>2022-05-23 17:16:32</time>
      </trkpt>
      <trkpt lat="41.74147" lon="0.95">
        <ele>327.8</ele>
        <time>2022-05-23 17:16:33</time>
      </trkpt>
      <trkpt lat="41.74144" lon="0.95007">
        <ele>327.6</ele>
        <time>2022-05-23 17:16:34</time>
      </trkpt>
      <trkpt lat="41.74142" lon="0.95014">
        <ele>327.8</ele>
        <time>2022-05-23 17:16:35</time>
      </trkpt>
      <trkpt lat="41.74139" lon="0.95021">
        <ele>327.8</ele>
        <time>2022-05-23 17:16:36</time>
      </trkpt>
      <trkpt lat="41.74137" lon="0.95029">
        <ele>327.8</ele>
        <time>2022-05-23 17:16:37</time>
      </trkpt>
      <trkpt lat="41.74134" lon="0.95036">
        <ele>327.8</ele>
        <time>2022-05-23 17:16:38</time>
      </trkpt>
      <trkpt lat="41.74131" lon="0.95044">
        <ele>327.8</ele>
        <time>2022-05-23 17:16:39</time>
      </trkpt>
      <trkpt lat="41.74129" lon="0.95051">
        <ele>327.8</ele>
        <time>2022-05-23 17:16:40</time>
      </trkpt>
      <trkpt lat="41.74126" lon="0.95059">
        <ele>327.8</ele>
        <time>2022-05-23 17:16:41</time>
      </trkpt>
      <trkpt lat="41.74123" lon="0.95067">
        <ele>327.6</ele>
        <time>2022-05-23 17:16:42</time>
      </trkpt>
      <trkpt lat="41.7412" lon="0.95074">
        <ele>327.6</ele>
        <time>2022-05-23 17:16:43</time>
      </trkpt>
      <trkpt lat="41.74117" lon="0.95082">
        <ele>327.6</ele>
        <time>2022-05-23 17:16:44</time>
      </trkpt>
      <trkpt lat="41.74114" lon="0.9509">
        <ele>327.6</ele>
        <time>2022-05-23 17:16:45</time>
      </trkpt>
      <trkpt lat="41.74111" lon="0.95098">
        <ele>327.4</ele>
        <time>2022-05-23 17:16:46</time>
      </trkpt>
      <trkpt lat="41.74108" lon="0.95106">
        <ele>327.4</ele>
        <time>2022-05-23 17:16:47</time>
      </trkpt>
      <trkpt lat="41.74105" lon="0.95114">
        <ele>327.4</ele>
        <time>2022-05-23 17:16:48</time>
      </trkpt>
      <trkpt lat="41.74102" lon="0.95122">
        <ele>327.6</ele>
        <time>2022-05-23 17:16:49</time>
      </trkpt>
      <trkpt lat="41.74099" lon="0.9513">
        <ele>327.4</ele>
        <time>2022-05-23 17:16:50</time>
      </trkpt>
      <trkpt lat="41.74096" lon="0.95138">
        <ele>327.4</ele>
        <time>2022-05-23 17:16:51</time>
      </trkpt>
      <trkpt lat="41.74093" lon="0.95146">
        <ele>327.4</ele>
        <time>2022-05-23 17:16:52</time>
      </trkpt>
      <trkpt lat="41.7409" lon="0.95154">
        <ele>327.4</ele>
        <time>2022-05-23 17:16:53</time>
      </trkpt>
      <trkpt lat="41.74087" lon="0.95162">
        <ele>327.4</ele>
        <time>2022-05-23 17:16:54</time>
      </trkpt>
      <trkpt lat="41.74085" lon="0.9517">
        <ele>327.4</ele>
        <time>2022-05-23 17:16:55</time>
      </trkpt>
      <trkpt lat="41.74082" lon="0.95177">
        <ele>327.4</ele>
        <time>2022-05-23 17:16:56</time>
      </trkpt>
      <trkpt lat="41.74079" lon="0.95185">
        <ele>327.4</ele>
        <time>2022-05-23 17:16:57</time>
      </trkpt>
      <trkpt lat="41.74076" lon="0.95192">
        <ele>327.4</ele>
        <time>2022-05-23 17:16:58</time>
      </trkpt>
      <trkpt lat="41.74073" lon="0.952">
        <ele>327.4</ele>
        <time>2022-05-23 17:16:59</time>
      </trkpt>
      <trkpt lat="41.7407" lon="0.95207">
        <ele>327.4</ele>
        <time>2022-05-23 17:17:00</time>
      </trkpt>
      <trkpt lat="41.74068" lon="0.95215">
        <ele>327.2</ele>
        <time>2022-05-23 17:17:01</time>
      </trkpt>
      <trkpt lat="41.74065" lon="0.95223">
        <ele>327.2</ele>
        <time>2022-05-23 17:17:02</time>
      </trkpt>
      <trkpt lat="41.74062" lon="0.95231">
        <ele>327.2</ele>
        <time>2022-05-23 17:17:03</time>
      </trkpt>
      <trkpt lat="41.74059" lon="0.95238">
        <ele>327.2</ele>
        <time>2022-05-23 17:17:04</time>
      </trkpt>
      <trkpt lat="41.74056" lon="0.95246">
        <ele>327</ele>
        <time>2022-05-23 17:17:05</time>
      </trkpt>
      <trkpt lat="41.74054" lon="0.95254">
        <ele>327.2</ele>
        <time>2022-05-23 17:17:06</time>
      </trkpt>
      <trkpt lat="41.7405" lon="0.95262">
        <ele>327.2</ele>
        <time>2022-05-23 17:17:07</time>
      </trkpt>
      <trkpt lat="41.74048" lon="0.9527">
        <ele>327.2</ele>
        <time>2022-05-23 17:17:08</time>
      </trkpt>
      <trkpt lat="41.74045" lon="0.95277">
        <ele>327.2</ele>
        <time>2022-05-23 17:17:09</time>
      </trkpt>
      <trkpt lat="41.74042" lon="0.95285">
        <ele>327.2</ele>
        <time>2022-05-23 17:17:10</time>
      </trkpt>
      <trkpt lat="41.74039" lon="0.95293">
        <ele>327.2</ele>
        <time>2022-05-23 17:17:11</time>
      </trkpt>
      <trkpt lat="41.74036" lon="0.95301">
        <ele>327.4</ele>
        <time>2022-05-23 17:17:12</time>
      </trkpt>
      <trkpt lat="41.74034" lon="0.95308">
        <ele>327.4</ele>
        <time>2022-05-23 17:17:13</time>
      </trkpt>
      <trkpt lat="41.74032" lon="0.95313">
        <ele>327.2</ele>
        <time>2022-05-23 17:17:14</time>
      </trkpt>
      <trkpt lat="41.74028" lon="0.95323">
        <ele>327.4</ele>
        <time>2022-05-23 17:17:15</time>
      </trkpt>
      <trkpt lat="41.74026" lon="0.95331">
        <ele>327.4</ele>
        <time>2022-05-23 17:17:16</time>
      </trkpt>
      <trkpt lat="41.74023" lon="0.95338">
        <ele>327.4</ele>
        <time>2022-05-23 17:17:17</time>
      </trkpt>
      <trkpt lat="41.74021" lon="0.95344">
        <ele>327.4</ele>
        <time>2022-05-23 17:17:18</time>
      </trkpt>
      <trkpt lat="41.74018" lon="0.95352">
        <ele>327.4</ele>
        <time>2022-05-23 17:17:19</time>
      </trkpt>
      <trkpt lat="41.74016" lon="0.95358">
        <ele>327.4</ele>
        <time>2022-05-23 17:17:20</time>
      </trkpt>
      <trkpt lat="41.74013" lon="0.95366">
        <ele>327.4</ele>
        <time>2022-05-23 17:17:21</time>
      </trkpt>
      <trkpt lat="41.7401" lon="0.95374">
        <ele>327.4</ele>
        <time>2022-05-23 17:17:22</time>
      </trkpt>
      <trkpt lat="41.74007" lon="0.95382">
        <ele>327.4</ele>
        <time>2022-05-23 17:17:23</time>
      </trkpt>
      <trkpt lat="41.74005" lon="0.95388">
        <ele>327.2</ele>
        <time>2022-05-23 17:17:24</time>
      </trkpt>
      <trkpt lat="41.74002" lon="0.95396">
        <ele>327.2</ele>
        <time>2022-05-23 17:17:25</time>
      </trkpt>
      <trkpt lat="41.73999" lon="0.95403">
        <ele>327.2</ele>
        <time>2022-05-23 17:17:26</time>
      </trkpt>
      <trkpt lat="41.73997" lon="0.9541">
        <ele>327.4</ele>
        <time>2022-05-23 17:17:27</time>
      </trkpt>
      <trkpt lat="41.73994" lon="0.95417">
        <ele>327.4</ele>
        <time>2022-05-23 17:17:28</time>
      </trkpt>
      <trkpt lat="41.73991" lon="0.95425">
        <ele>327.4</ele>
        <time>2022-05-23 17:17:29</time>
      </trkpt>
      <trkpt lat="41.73989" lon="0.95431">
        <ele>327.4</ele>
        <time>2022-05-23 17:17:30</time>
      </trkpt>
      <trkpt lat="41.73986" lon="0.95439">
        <ele>327.4</ele>
        <time>2022-05-23 17:17:31</time>
      </trkpt>
      <trkpt lat="41.73984" lon="0.95446">
        <ele>327.6</ele>
        <time>2022-05-23 17:17:32</time>
      </trkpt>
      <trkpt lat="41.73981" lon="0.95453">
        <ele>327.8</ele>
        <time>2022-05-23 17:17:33</time>
      </trkpt>
      <trkpt lat="41.73979" lon="0.9546">
        <ele>327.8</ele>
        <time>2022-05-23 17:17:34</time>
      </trkpt>
      <trkpt lat="41.73976" lon="0.95467">
        <ele>327.8</ele>
        <time>2022-05-23 17:17:35</time>
      </trkpt>
      <trkpt lat="41.73974" lon="0.95474">
        <ele>328</ele>
        <time>2022-05-23 17:17:36</time>
      </trkpt>
      <trkpt lat="41.73971" lon="0.9548">
        <ele>328.2</ele>
        <time>2022-05-23 17:17:37</time>
      </trkpt>
      <trkpt lat="41.73969" lon="0.95487">
        <ele>328.2</ele>
        <time>2022-05-23 17:17:38</time>
      </trkpt>
      <trkpt lat="41.73966" lon="0.95494">
        <ele>328.2</ele>
        <time>2022-05-23 17:17:39</time>
      </trkpt>
      <trkpt lat="41.73963" lon="0.95501">
        <ele>328.2</ele>
        <time>2022-05-23 17:17:40</time>
      </trkpt>
      <trkpt lat="41.7396" lon="0.95508">
        <ele>328.2</ele>
        <time>2022-05-23 17:17:41</time>
      </trkpt>
      <trkpt lat="41.73958" lon="0.95515">
        <ele>328.4</ele>
        <time>2022-05-23 17:17:42</time>
      </trkpt>
      <trkpt lat="41.73956" lon="0.95522">
        <ele>328.4</ele>
        <time>2022-05-23 17:17:43</time>
      </trkpt>
      <trkpt lat="41.73954" lon="0.95529">
        <ele>328.4</ele>
        <time>2022-05-23 17:17:44</time>
      </trkpt>
      <trkpt lat="41.73951" lon="0.95536">
        <ele>328.6</ele>
        <time>2022-05-23 17:17:45</time>
      </trkpt>
      <trkpt lat="41.73949" lon="0.95543">
        <ele>328.8</ele>
        <time>2022-05-23 17:17:46</time>
      </trkpt>
      <trkpt lat="41.73946" lon="0.9555">
        <ele>328.8</ele>
        <time>2022-05-23 17:17:47</time>
      </trkpt>
      <trkpt lat="41.73944" lon="0.95557">
        <ele>328.8</ele>
        <time>2022-05-23 17:17:48</time>
      </trkpt>
      <trkpt lat="41.73942" lon="0.95564">
        <ele>328.8</ele>
        <time>2022-05-23 17:17:49</time>
      </trkpt>
      <trkpt lat="41.73939" lon="0.95569">
        <ele>328.8</ele>
        <time>2022-05-23 17:17:50</time>
      </trkpt>
      <trkpt lat="41.73936" lon="0.95577">
        <ele>328.8</ele>
        <time>2022-05-23 17:17:51</time>
      </trkpt>
      <trkpt lat="41.73934" lon="0.95583">
        <ele>328.8</ele>
        <time>2022-05-23 17:17:52</time>
      </trkpt>
      <trkpt lat="41.73931" lon="0.9559">
        <ele>328.6</ele>
        <time>2022-05-23 17:17:53</time>
      </trkpt>
      <trkpt lat="41.73928" lon="0.95596">
        <ele>328.6</ele>
        <time>2022-05-23 17:17:54</time>
      </trkpt>
      <trkpt lat="41.73925" lon="0.95604">
        <ele>328.8</ele>
        <time>2022-05-23 17:17:55</time>
      </trkpt>
      <trkpt lat="41.73923" lon="0.95609">
        <ele>328.8</ele>
        <time>2022-05-23 17:17:56</time>
      </trkpt>
      <trkpt lat="41.7392" lon="0.95617">
        <ele>328.8</ele>
        <time>2022-05-23 17:17:57</time>
      </trkpt>
      <trkpt lat="41.73918" lon="0.95622">
        <ele>328.8</ele>
        <time>2022-05-23 17:17:58</time>
      </trkpt>
      <trkpt lat="41.73915" lon="0.95631">
        <ele>328.8</ele>
        <time>2022-05-23 17:17:59</time>
      </trkpt>
      <trkpt lat="41.73913" lon="0.95636">
        <ele>328.8</ele>
        <time>2022-05-23 17:18:00</time>
      </trkpt>
      <trkpt lat="41.7391" lon="0.95644">
        <ele>329</ele>
        <time>2022-05-23 17:18:01</time>
      </trkpt>
      <trkpt lat="41.73908" lon="0.95651">
        <ele>329</ele>
        <time>2022-05-23 17:18:02</time>
      </trkpt>
      <trkpt lat="41.73905" lon="0.95658">
        <ele>329</ele>
        <time>2022-05-23 17:18:03</time>
      </trkpt>
      <trkpt lat="41.73903" lon="0.95665">
        <ele>329</ele>
        <time>2022-05-23 17:18:04</time>
      </trkpt>
      <trkpt lat="41.739" lon="0.95672">
        <ele>329.2</ele>
        <time>2022-05-23 17:18:05</time>
      </trkpt>
      <trkpt lat="41.73897" lon="0.95679">
        <ele>329.2</ele>
        <time>2022-05-23 17:18:06</time>
      </trkpt>
      <trkpt lat="41.73895" lon="0.95685">
        <ele>329.2</ele>
        <time>2022-05-23 17:18:07</time>
      </trkpt>
      <trkpt lat="41.73892" lon="0.95692">
        <ele>329.4</ele>
        <time>2022-05-23 17:18:08</time>
      </trkpt>
      <trkpt lat="41.7389" lon="0.957">
        <ele>329.4</ele>
        <time>2022-05-23 17:18:09</time>
      </trkpt>
      <trkpt lat="41.73887" lon="0.95706">
        <ele>329.2</ele>
        <time>2022-05-23 17:18:10</time>
      </trkpt>
      <trkpt lat="41.73885" lon="0.95713">
        <ele>329.2</ele>
        <time>2022-05-23 17:18:11</time>
      </trkpt>
      <trkpt lat="41.73882" lon="0.9572">
        <ele>329.2</ele>
        <time>2022-05-23 17:18:12</time>
      </trkpt>
      <trkpt lat="41.73879" lon="0.95727">
        <ele>329.2</ele>
        <time>2022-05-23 17:18:13</time>
      </trkpt>
      <trkpt lat="41.73876" lon="0.95734">
        <ele>329.2</ele>
        <time>2022-05-23 17:18:14</time>
      </trkpt>
      <trkpt lat="41.73874" lon="0.95741">
        <ele>329.2</ele>
        <time>2022-05-23 17:18:15</time>
      </trkpt>
      <trkpt lat="41.73871" lon="0.95748">
        <ele>329.2</ele>
        <time>2022-05-23 17:18:16</time>
      </trkpt>
      <trkpt lat="41.73869" lon="0.95754">
        <ele>329.2</ele>
        <time>2022-05-23 17:18:17</time>
      </trkpt>
      <trkpt lat="41.73866" lon="0.95761">
        <ele>329.2</ele>
        <time>2022-05-23 17:18:18</time>
      </trkpt>
      <trkpt lat="41.73864" lon="0.95768">
        <ele>329.4</ele>
        <time>2022-05-23 17:18:19</time>
      </trkpt>
      <trkpt lat="41.73861" lon="0.95775">
        <ele>329.4</ele>
        <time>2022-05-23 17:18:20</time>
      </trkpt>
      <trkpt lat="41.73858" lon="0.95782">
        <ele>329.4</ele>
        <time>2022-05-23 17:18:21</time>
      </trkpt>
      <trkpt lat="41.73856" lon="0.95789">
        <ele>329.4</ele>
        <time>2022-05-23 17:18:22</time>
      </trkpt>
      <trkpt lat="41.73853" lon="0.95796">
        <ele>329.4</ele>
        <time>2022-05-23 17:18:23</time>
      </trkpt>
      <trkpt lat="41.7385" lon="0.95803">
        <ele>329.4</ele>
        <time>2022-05-23 17:18:24</time>
      </trkpt>
      <trkpt lat="41.73847" lon="0.9581">
        <ele>329.4</ele>
        <time>2022-05-23 17:18:25</time>
      </trkpt>
      <trkpt lat="41.73845" lon="0.95817">
        <ele>329.4</ele>
        <time>2022-05-23 17:18:26</time>
      </trkpt>
      <trkpt lat="41.73842" lon="0.95824">
        <ele>329.4</ele>
        <time>2022-05-23 17:18:27</time>
      </trkpt>
      <trkpt lat="41.73839" lon="0.95832">
        <ele>329.4</ele>
        <time>2022-05-23 17:18:28</time>
      </trkpt>
      <trkpt lat="41.73837" lon="0.95839">
        <ele>329.4</ele>
        <time>2022-05-23 17:18:29</time>
      </trkpt>
      <trkpt lat="41.73834" lon="0.95846">
        <ele>329.4</ele>
        <time>2022-05-23 17:18:30</time>
      </trkpt>
      <trkpt lat="41.73832" lon="0.95853">
        <ele>329.4</ele>
        <time>2022-05-23 17:18:31</time>
      </trkpt>
      <trkpt lat="41.73829" lon="0.95861">
        <ele>329.4</ele>
        <time>2022-05-23 17:18:32</time>
      </trkpt>
      <trkpt lat="41.73826" lon="0.95868">
        <ele>329.4</ele>
        <time>2022-05-23 17:18:33</time>
      </trkpt>
      <trkpt lat="41.73823" lon="0.95875">
        <ele>329.2</ele>
        <time>2022-05-23 17:18:34</time>
      </trkpt>
      <trkpt lat="41.73821" lon="0.95882">
        <ele>329.2</ele>
        <time>2022-05-23 17:18:35</time>
      </trkpt>
      <trkpt lat="41.73818" lon="0.95889">
        <ele>329.2</ele>
        <time>2022-05-23 17:18:36</time>
      </trkpt>
      <trkpt lat="41.73816" lon="0.95897">
        <ele>329.2</ele>
        <time>2022-05-23 17:18:37</time>
      </trkpt>
      <trkpt lat="41.73813" lon="0.95904">
        <ele>329.2</ele>
        <time>2022-05-23 17:18:38</time>
      </trkpt>
      <trkpt lat="41.7381" lon="0.95911">
        <ele>329</ele>
        <time>2022-05-23 17:18:39</time>
      </trkpt>
      <trkpt lat="41.73808" lon="0.95918">
        <ele>329</ele>
        <time>2022-05-23 17:18:40</time>
      </trkpt>
      <trkpt lat="41.73805" lon="0.95925">
        <ele>329.2</ele>
        <time>2022-05-23 17:18:41</time>
      </trkpt>
      <trkpt lat="41.73802" lon="0.95933">
        <ele>329.2</ele>
        <time>2022-05-23 17:18:42</time>
      </trkpt>
      <trkpt lat="41.73799" lon="0.9594">
        <ele>329.4</ele>
        <time>2022-05-23 17:18:43</time>
      </trkpt>
      <trkpt lat="41.73797" lon="0.95947">
        <ele>329.4</ele>
        <time>2022-05-23 17:18:44</time>
      </trkpt>
      <trkpt lat="41.73794" lon="0.95954">
        <ele>329.4</ele>
        <time>2022-05-23 17:18:45</time>
      </trkpt>
      <trkpt lat="41.73791" lon="0.95961">
        <ele>329.4</ele>
        <time>2022-05-23 17:18:46</time>
      </trkpt>
      <trkpt lat="41.73789" lon="0.95968">
        <ele>329.4</ele>
        <time>2022-05-23 17:18:47</time>
      </trkpt>
      <trkpt lat="41.73786" lon="0.95976">
        <ele>329.6</ele>
        <time>2022-05-23 17:18:48</time>
      </trkpt>
      <trkpt lat="41.73783" lon="0.95984">
        <ele>329.6</ele>
        <time>2022-05-23 17:18:49</time>
      </trkpt>
      <trkpt lat="41.7378" lon="0.95991">
        <ele>329.6</ele>
        <time>2022-05-23 17:18:50</time>
      </trkpt>
      <trkpt lat="41.73778" lon="0.95999">
        <ele>329.6</ele>
        <time>2022-05-23 17:18:51</time>
      </trkpt>
      <trkpt lat="41.73775" lon="0.96006">
        <ele>329.6</ele>
        <time>2022-05-23 17:18:52</time>
      </trkpt>
      <trkpt lat="41.73773" lon="0.96013">
        <ele>329.6</ele>
        <time>2022-05-23 17:18:53</time>
      </trkpt>
      <trkpt lat="41.7377" lon="0.96021">
        <ele>329.6</ele>
        <time>2022-05-23 17:18:54</time>
      </trkpt>
      <trkpt lat="41.73767" lon="0.96028">
        <ele>329.6</ele>
        <time>2022-05-23 17:18:55</time>
      </trkpt>
      <trkpt lat="41.73764" lon="0.96035">
        <ele>329.6</ele>
        <time>2022-05-23 17:18:56</time>
      </trkpt>
      <trkpt lat="41.73762" lon="0.96042">
        <ele>329.6</ele>
        <time>2022-05-23 17:18:57</time>
      </trkpt>
      <trkpt lat="41.73759" lon="0.96049">
        <ele>329.4</ele>
        <time>2022-05-23 17:18:58</time>
      </trkpt>
      <trkpt lat="41.73756" lon="0.96056">
        <ele>329.4</ele>
        <time>2022-05-23 17:18:59</time>
      </trkpt>
      <trkpt lat="41.73754" lon="0.96063">
        <ele>329.4</ele>
        <time>2022-05-23 17:19:00</time>
      </trkpt>
      <trkpt lat="41.73751" lon="0.9607">
        <ele>329.4</ele>
        <time>2022-05-23 17:19:01</time>
      </trkpt>
      <trkpt lat="41.73749" lon="0.96077">
        <ele>329.4</ele>
        <time>2022-05-23 17:19:02</time>
      </trkpt>
      <trkpt lat="41.73746" lon="0.96084">
        <ele>329.4</ele>
        <time>2022-05-23 17:19:03</time>
      </trkpt>
      <trkpt lat="41.73743" lon="0.96092">
        <ele>329.4</ele>
        <time>2022-05-23 17:19:04</time>
      </trkpt>
      <trkpt lat="41.73741" lon="0.96099">
        <ele>329.2</ele>
        <time>2022-05-23 17:19:05</time>
      </trkpt>
      <trkpt lat="41.73738" lon="0.96106">
        <ele>329.2</ele>
        <time>2022-05-23 17:19:06</time>
      </trkpt>
      <trkpt lat="41.73735" lon="0.96113">
        <ele>329.2</ele>
        <time>2022-05-23 17:19:07</time>
      </trkpt>
      <trkpt lat="41.73733" lon="0.96121">
        <ele>329.2</ele>
        <time>2022-05-23 17:19:08</time>
      </trkpt>
      <trkpt lat="41.7373" lon="0.96128">
        <ele>329.2</ele>
        <time>2022-05-23 17:19:09</time>
      </trkpt>
      <trkpt lat="41.73727" lon="0.96135">
        <ele>329.2</ele>
        <time>2022-05-23 17:19:10</time>
      </trkpt>
      <trkpt lat="41.73724" lon="0.96143">
        <ele>329</ele>
        <time>2022-05-23 17:19:11</time>
      </trkpt>
      <trkpt lat="41.73722" lon="0.9615">
        <ele>329</ele>
        <time>2022-05-23 17:19:12</time>
      </trkpt>
      <trkpt lat="41.73719" lon="0.96158">
        <ele>329.2</ele>
        <time>2022-05-23 17:19:13</time>
      </trkpt>
      <trkpt lat="41.73716" lon="0.96165">
        <ele>329.2</ele>
        <time>2022-05-23 17:19:14</time>
      </trkpt>
      <trkpt lat="41.73713" lon="0.96172">
        <ele>329.2</ele>
        <time>2022-05-23 17:19:15</time>
      </trkpt>
      <trkpt lat="41.7371" lon="0.9618">
        <ele>329.2</ele>
        <time>2022-05-23 17:19:16</time>
      </trkpt>
      <trkpt lat="41.73708" lon="0.96187">
        <ele>329.2</ele>
        <time>2022-05-23 17:19:17</time>
      </trkpt>
      <trkpt lat="41.73705" lon="0.96195">
        <ele>329.2</ele>
        <time>2022-05-23 17:19:18</time>
      </trkpt>
      <trkpt lat="41.73702" lon="0.96203">
        <ele>329.2</ele>
        <time>2022-05-23 17:19:19</time>
      </trkpt>
      <trkpt lat="41.73699" lon="0.9621">
        <ele>329.2</ele>
        <time>2022-05-23 17:19:20</time>
      </trkpt>
      <trkpt lat="41.73696" lon="0.96218">
        <ele>329.2</ele>
        <time>2022-05-23 17:19:21</time>
      </trkpt>
      <trkpt lat="41.73693" lon="0.96226">
        <ele>329.2</ele>
        <time>2022-05-23 17:19:22</time>
      </trkpt>
      <trkpt lat="41.7369" lon="0.96234">
        <ele>329.2</ele>
        <time>2022-05-23 17:19:23</time>
      </trkpt>
      <trkpt lat="41.73687" lon="0.96242">
        <ele>329.2</ele>
        <time>2022-05-23 17:19:24</time>
      </trkpt>
      <trkpt lat="41.73684" lon="0.9625">
        <ele>329.2</ele>
        <time>2022-05-23 17:19:25</time>
      </trkpt>
      <trkpt lat="41.73681" lon="0.96257">
        <ele>329.2</ele>
        <time>2022-05-23 17:19:26</time>
      </trkpt>
      <trkpt lat="41.73679" lon="0.96265">
        <ele>329.2</ele>
        <time>2022-05-23 17:19:27</time>
      </trkpt>
      <trkpt lat="41.73675" lon="0.96273">
        <ele>329.2</ele>
        <time>2022-05-23 17:19:28</time>
      </trkpt>
      <trkpt lat="41.73672" lon="0.96281">
        <ele>329.2</ele>
        <time>2022-05-23 17:19:29</time>
      </trkpt>
      <trkpt lat="41.7367" lon="0.96289">
        <ele>329.2</ele>
        <time>2022-05-23 17:19:30</time>
      </trkpt>
      <trkpt lat="41.73667" lon="0.96297">
        <ele>329.2</ele>
        <time>2022-05-23 17:19:31</time>
      </trkpt>
      <trkpt lat="41.73664" lon="0.96305">
        <ele>329.4</ele>
        <time>2022-05-23 17:19:32</time>
      </trkpt>
      <trkpt lat="41.73661" lon="0.96312">
        <ele>329.4</ele>
        <time>2022-05-23 17:19:33</time>
      </trkpt>
      <trkpt lat="41.73658" lon="0.9632">
        <ele>329.4</ele>
        <time>2022-05-23 17:19:34</time>
      </trkpt>
      <trkpt lat="41.73655" lon="0.96327">
        <ele>329.2</ele>
        <time>2022-05-23 17:19:35</time>
      </trkpt>
      <trkpt lat="41.73653" lon="0.96335">
        <ele>329.2</ele>
        <time>2022-05-23 17:19:36</time>
      </trkpt>
      <trkpt lat="41.7365" lon="0.96343">
        <ele>329.2</ele>
        <time>2022-05-23 17:19:37</time>
      </trkpt>
      <trkpt lat="41.73647" lon="0.96351">
        <ele>329.2</ele>
        <time>2022-05-23 17:19:38</time>
      </trkpt>
      <trkpt lat="41.73644" lon="0.96359">
        <ele>329.4</ele>
        <time>2022-05-23 17:19:39</time>
      </trkpt>
      <trkpt lat="41.73641" lon="0.96367">
        <ele>329.6</ele>
        <time>2022-05-23 17:19:40</time>
      </trkpt>
      <trkpt lat="41.73638" lon="0.96374">
        <ele>329.6</ele>
        <time>2022-05-23 17:19:41</time>
      </trkpt>
      <trkpt lat="41.73635" lon="0.96382">
        <ele>329.6</ele>
        <time>2022-05-23 17:19:42</time>
      </trkpt>
      <trkpt lat="41.73632" lon="0.96389">
        <ele>329.4</ele>
        <time>2022-05-23 17:19:43</time>
      </trkpt>
      <trkpt lat="41.73629" lon="0.96397">
        <ele>329.4</ele>
        <time>2022-05-23 17:19:44</time>
      </trkpt>
      <trkpt lat="41.73626" lon="0.96405">
        <ele>329.4</ele>
        <time>2022-05-23 17:19:45</time>
      </trkpt>
      <trkpt lat="41.73623" lon="0.96413">
        <ele>329.4</ele>
        <time>2022-05-23 17:19:46</time>
      </trkpt>
      <trkpt lat="41.73621" lon="0.96421">
        <ele>329.6</ele>
        <time>2022-05-23 17:19:47</time>
      </trkpt>
      <trkpt lat="41.73618" lon="0.96429">
        <ele>329.6</ele>
        <time>2022-05-23 17:19:48</time>
      </trkpt>
      <trkpt lat="41.73614" lon="0.96436">
        <ele>329.6</ele>
        <time>2022-05-23 17:19:49</time>
      </trkpt>
      <trkpt lat="41.73612" lon="0.96445">
        <ele>329.6</ele>
        <time>2022-05-23 17:19:50</time>
      </trkpt>
      <trkpt lat="41.73609" lon="0.96453">
        <ele>329.6</ele>
        <time>2022-05-23 17:19:51</time>
      </trkpt>
      <trkpt lat="41.73606" lon="0.96461">
        <ele>329.6</ele>
        <time>2022-05-23 17:19:52</time>
      </trkpt>
      <trkpt lat="41.73603" lon="0.96469">
        <ele>329.6</ele>
        <time>2022-05-23 17:19:53</time>
      </trkpt>
      <trkpt lat="41.736" lon="0.96477">
        <ele>329.6</ele>
        <time>2022-05-23 17:19:54</time>
      </trkpt>
      <trkpt lat="41.73597" lon="0.96485">
        <ele>329.6</ele>
        <time>2022-05-23 17:19:55</time>
      </trkpt>
      <trkpt lat="41.73594" lon="0.96493">
        <ele>329.6</ele>
        <time>2022-05-23 17:19:56</time>
      </trkpt>
      <trkpt lat="41.73591" lon="0.96501">
        <ele>329.6</ele>
        <time>2022-05-23 17:19:57</time>
      </trkpt>
      <trkpt lat="41.73588" lon="0.96509">
        <ele>329.6</ele>
        <time>2022-05-23 17:19:58</time>
      </trkpt>
      <trkpt lat="41.73586" lon="0.96517">
        <ele>329.6</ele>
        <time>2022-05-23 17:19:59</time>
      </trkpt>
      <trkpt lat="41.73583" lon="0.96525">
        <ele>329.6</ele>
        <time>2022-05-23 17:20:00</time>
      </trkpt>
      <trkpt lat="41.7358" lon="0.96533">
        <ele>329.6</ele>
        <time>2022-05-23 17:20:01</time>
      </trkpt>
      <trkpt lat="41.73577" lon="0.96541">
        <ele>329.6</ele>
        <time>2022-05-23 17:20:02</time>
      </trkpt>
      <trkpt lat="41.73574" lon="0.96548">
        <ele>329.6</ele>
        <time>2022-05-23 17:20:03</time>
      </trkpt>
      <trkpt lat="41.73571" lon="0.96556">
        <ele>329.6</ele>
        <time>2022-05-23 17:20:04</time>
      </trkpt>
      <trkpt lat="41.73568" lon="0.96564">
        <ele>329.6</ele>
        <time>2022-05-23 17:20:05</time>
      </trkpt>
      <trkpt lat="41.73565" lon="0.96572">
        <ele>329.6</ele>
        <time>2022-05-23 17:20:06</time>
      </trkpt>
      <trkpt lat="41.73562" lon="0.9658">
        <ele>329.6</ele>
        <time>2022-05-23 17:20:07</time>
      </trkpt>
      <trkpt lat="41.73559" lon="0.96588">
        <ele>329.6</ele>
        <time>2022-05-23 17:20:08</time>
      </trkpt>
      <trkpt lat="41.73557" lon="0.96595">
        <ele>329.6</ele>
        <time>2022-05-23 17:20:09</time>
      </trkpt>
      <trkpt lat="41.73554" lon="0.96603">
        <ele>329.8</ele>
        <time>2022-05-23 17:20:10</time>
      </trkpt>
      <trkpt lat="41.73551" lon="0.96611">
        <ele>329.8</ele>
        <time>2022-05-23 17:20:11</time>
      </trkpt>
      <trkpt lat="41.73548" lon="0.96619">
        <ele>329.6</ele>
        <time>2022-05-23 17:20:12</time>
      </trkpt>
      <trkpt lat="41.73546" lon="0.96626">
        <ele>329.6</ele>
        <time>2022-05-23 17:20:13</time>
      </trkpt>
      <trkpt lat="41.73543" lon="0.96634">
        <ele>329.6</ele>
        <time>2022-05-23 17:20:14</time>
      </trkpt>
      <trkpt lat="41.7354" lon="0.96641">
        <ele>329.4</ele>
        <time>2022-05-23 17:20:15</time>
      </trkpt>
      <trkpt lat="41.73537" lon="0.96649">
        <ele>329.4</ele>
        <time>2022-05-23 17:20:16</time>
      </trkpt>
      <trkpt lat="41.73535" lon="0.96656">
        <ele>329.6</ele>
        <time>2022-05-23 17:20:17</time>
      </trkpt>
      <trkpt lat="41.73532" lon="0.96664">
        <ele>329.6</ele>
        <time>2022-05-23 17:20:18</time>
      </trkpt>
      <trkpt lat="41.73529" lon="0.96671">
        <ele>329.6</ele>
        <time>2022-05-23 17:20:19</time>
      </trkpt>
      <trkpt lat="41.73526" lon="0.96679">
        <ele>329.6</ele>
        <time>2022-05-23 17:20:20</time>
      </trkpt>
      <trkpt lat="41.73523" lon="0.96687">
        <ele>329.8</ele>
        <time>2022-05-23 17:20:21</time>
      </trkpt>
      <trkpt lat="41.7352" lon="0.96694">
        <ele>329.8</ele>
        <time>2022-05-23 17:20:22</time>
      </trkpt>
      <trkpt lat="41.73517" lon="0.96701">
        <ele>329.8</ele>
        <time>2022-05-23 17:20:23</time>
      </trkpt>
      <trkpt lat="41.73514" lon="0.9671">
        <ele>329.8</ele>
        <time>2022-05-23 17:20:24</time>
      </trkpt>
      <trkpt lat="41.73511" lon="0.96717">
        <ele>329.6</ele>
        <time>2022-05-23 17:20:25</time>
      </trkpt>
      <trkpt lat="41.73509" lon="0.96725">
        <ele>329.6</ele>
        <time>2022-05-23 17:20:26</time>
      </trkpt>
      <trkpt lat="41.73506" lon="0.96732">
        <ele>329.4</ele>
        <time>2022-05-23 17:20:27</time>
      </trkpt>
      <trkpt lat="41.73503" lon="0.96739">
        <ele>329.4</ele>
        <time>2022-05-23 17:20:28</time>
      </trkpt>
      <trkpt lat="41.735" lon="0.96747">
        <ele>329.2</ele>
        <time>2022-05-23 17:20:29</time>
      </trkpt>
      <trkpt lat="41.73498" lon="0.96754">
        <ele>329.2</ele>
        <time>2022-05-23 17:20:30</time>
      </trkpt>
      <trkpt lat="41.73495" lon="0.96761">
        <ele>329.2</ele>
        <time>2022-05-23 17:20:31</time>
      </trkpt>
      <trkpt lat="41.73492" lon="0.96769">
        <ele>329</ele>
        <time>2022-05-23 17:20:32</time>
      </trkpt>
      <trkpt lat="41.73489" lon="0.96776">
        <ele>329</ele>
        <time>2022-05-23 17:20:33</time>
      </trkpt>
      <trkpt lat="41.73487" lon="0.96783">
        <ele>329</ele>
        <time>2022-05-23 17:20:34</time>
      </trkpt>
      <trkpt lat="41.73484" lon="0.9679">
        <ele>329.2</ele>
        <time>2022-05-23 17:20:35</time>
      </trkpt>
      <trkpt lat="41.73481" lon="0.96797">
        <ele>329.2</ele>
        <time>2022-05-23 17:20:36</time>
      </trkpt>
      <trkpt lat="41.73479" lon="0.96804">
        <ele>329.4</ele>
        <time>2022-05-23 17:20:37</time>
      </trkpt>
      <trkpt lat="41.73476" lon="0.96811">
        <ele>329.4</ele>
        <time>2022-05-23 17:20:38</time>
      </trkpt>
      <trkpt lat="41.73473" lon="0.96817">
        <ele>329.4</ele>
        <time>2022-05-23 17:20:39</time>
      </trkpt>
      <trkpt lat="41.73471" lon="0.96825">
        <ele>329.4</ele>
        <time>2022-05-23 17:20:40</time>
      </trkpt>
      <trkpt lat="41.73469" lon="0.9683">
        <ele>329.8</ele>
        <time>2022-05-23 17:20:41</time>
      </trkpt>
      <trkpt lat="41.73466" lon="0.96839">
        <ele>329.6</ele>
        <time>2022-05-23 17:20:42</time>
      </trkpt>
      <trkpt lat="41.73463" lon="0.96846">
        <ele>329.6</ele>
        <time>2022-05-23 17:20:43</time>
      </trkpt>
      <trkpt lat="41.73461" lon="0.96853">
        <ele>329.6</ele>
        <time>2022-05-23 17:20:44</time>
      </trkpt>
      <trkpt lat="41.73459" lon="0.9686">
        <ele>329.6</ele>
        <time>2022-05-23 17:20:45</time>
      </trkpt>
      <trkpt lat="41.73456" lon="0.96867">
        <ele>329.6</ele>
        <time>2022-05-23 17:20:46</time>
      </trkpt>
      <trkpt lat="41.73453" lon="0.96874">
        <ele>329.4</ele>
        <time>2022-05-23 17:20:47</time>
      </trkpt>
      <trkpt lat="41.7345" lon="0.96881">
        <ele>329.4</ele>
        <time>2022-05-23 17:20:48</time>
      </trkpt>
      <trkpt lat="41.73448" lon="0.96888">
        <ele>329.4</ele>
        <time>2022-05-23 17:20:49</time>
      </trkpt>
      <trkpt lat="41.73445" lon="0.96896">
        <ele>329.4</ele>
        <time>2022-05-23 17:20:50</time>
      </trkpt>
      <trkpt lat="41.73443" lon="0.96903">
        <ele>329.4</ele>
        <time>2022-05-23 17:20:51</time>
      </trkpt>
      <trkpt lat="41.7344" lon="0.9691">
        <ele>329.4</ele>
        <time>2022-05-23 17:20:52</time>
      </trkpt>
      <trkpt lat="41.73437" lon="0.96916">
        <ele>329.4</ele>
        <time>2022-05-23 17:20:53</time>
      </trkpt>
      <trkpt lat="41.73435" lon="0.96923">
        <ele>329.6</ele>
        <time>2022-05-23 17:20:54</time>
      </trkpt>
      <trkpt lat="41.73433" lon="0.96929">
        <ele>329.6</ele>
        <time>2022-05-23 17:20:55</time>
      </trkpt>
      <trkpt lat="41.7343" lon="0.96936">
        <ele>329.6</ele>
        <time>2022-05-23 17:20:56</time>
      </trkpt>
      <trkpt lat="41.73428" lon="0.96942">
        <ele>329.8</ele>
        <time>2022-05-23 17:20:57</time>
      </trkpt>
      <trkpt lat="41.73426" lon="0.96948">
        <ele>329.8</ele>
        <time>2022-05-23 17:20:58</time>
      </trkpt>
      <trkpt lat="41.73423" lon="0.96954">
        <ele>330</ele>
        <time>2022-05-23 17:20:59</time>
      </trkpt>
      <trkpt lat="41.73421" lon="0.96961">
        <ele>330</ele>
        <time>2022-05-23 17:21:00</time>
      </trkpt>
      <trkpt lat="41.73419" lon="0.96967">
        <ele>330.2</ele>
        <time>2022-05-23 17:21:01</time>
      </trkpt>
      <trkpt lat="41.73416" lon="0.96974">
        <ele>330.2</ele>
        <time>2022-05-23 17:21:02</time>
      </trkpt>
      <trkpt lat="41.73414" lon="0.9698">
        <ele>330.2</ele>
        <time>2022-05-23 17:21:03</time>
      </trkpt>
      <trkpt lat="41.73411" lon="0.96987">
        <ele>330.4</ele>
        <time>2022-05-23 17:21:04</time>
      </trkpt>
      <trkpt lat="41.73409" lon="0.96993">
        <ele>330.4</ele>
        <time>2022-05-23 17:21:05</time>
      </trkpt>
      <trkpt lat="41.73407" lon="0.97">
        <ele>330.6</ele>
        <time>2022-05-23 17:21:06</time>
      </trkpt>
      <trkpt lat="41.73404" lon="0.97006">
        <ele>330.4</ele>
        <time>2022-05-23 17:21:07</time>
      </trkpt>
      <trkpt lat="41.73402" lon="0.97013">
        <ele>330.4</ele>
        <time>2022-05-23 17:21:08</time>
      </trkpt>
      <trkpt lat="41.73399" lon="0.97019">
        <ele>330.4</ele>
        <time>2022-05-23 17:21:09</time>
      </trkpt>
      <trkpt lat="41.73397" lon="0.97026">
        <ele>330.4</ele>
        <time>2022-05-23 17:21:10</time>
      </trkpt>
      <trkpt lat="41.73394" lon="0.97032">
        <ele>330.4</ele>
        <time>2022-05-23 17:21:11</time>
      </trkpt>
      <trkpt lat="41.73391" lon="0.97039">
        <ele>330.4</ele>
        <time>2022-05-23 17:21:12</time>
      </trkpt>
      <trkpt lat="41.73389" lon="0.97045">
        <ele>330.4</ele>
        <time>2022-05-23 17:21:13</time>
      </trkpt>
      <trkpt lat="41.73386" lon="0.97052">
        <ele>330.4</ele>
        <time>2022-05-23 17:21:14</time>
      </trkpt>
      <trkpt lat="41.73384" lon="0.97058">
        <ele>330.4</ele>
        <time>2022-05-23 17:21:15</time>
      </trkpt>
      <trkpt lat="41.73381" lon="0.97065">
        <ele>330.6</ele>
        <time>2022-05-23 17:21:16</time>
      </trkpt>
      <trkpt lat="41.73379" lon="0.97072">
        <ele>330.6</ele>
        <time>2022-05-23 17:21:17</time>
      </trkpt>
      <trkpt lat="41.73376" lon="0.97078">
        <ele>330.6</ele>
        <time>2022-05-23 17:21:18</time>
      </trkpt>
      <trkpt lat="41.73374" lon="0.97085">
        <ele>330.6</ele>
        <time>2022-05-23 17:21:19</time>
      </trkpt>
      <trkpt lat="41.73371" lon="0.97092">
        <ele>330.6</ele>
        <time>2022-05-23 17:21:20</time>
      </trkpt>
      <trkpt lat="41.73369" lon="0.97098">
        <ele>330.6</ele>
        <time>2022-05-23 17:21:21</time>
      </trkpt>
      <trkpt lat="41.73366" lon="0.97104">
        <ele>330.6</ele>
        <time>2022-05-23 17:21:22</time>
      </trkpt>
      <trkpt lat="41.73364" lon="0.97111">
        <ele>330.6</ele>
        <time>2022-05-23 17:21:23</time>
      </trkpt>
      <trkpt lat="41.73361" lon="0.97118">
        <ele>330.6</ele>
        <time>2022-05-23 17:21:24</time>
      </trkpt>
      <trkpt lat="41.73359" lon="0.97124">
        <ele>330.4</ele>
        <time>2022-05-23 17:21:25</time>
      </trkpt>
      <trkpt lat="41.73357" lon="0.97131">
        <ele>330.4</ele>
        <time>2022-05-23 17:21:26</time>
      </trkpt>
      <trkpt lat="41.73354" lon="0.97137">
        <ele>330.4</ele>
        <time>2022-05-23 17:21:27</time>
      </trkpt>
      <trkpt lat="41.73352" lon="0.97144">
        <ele>330.2</ele>
        <time>2022-05-23 17:21:28</time>
      </trkpt>
      <trkpt lat="41.73349" lon="0.9715">
        <ele>330.2</ele>
        <time>2022-05-23 17:21:29</time>
      </trkpt>
      <trkpt lat="41.73347" lon="0.97157">
        <ele>330.4</ele>
        <time>2022-05-23 17:21:30</time>
      </trkpt>
      <trkpt lat="41.73344" lon="0.97164">
        <ele>330.4</ele>
        <time>2022-05-23 17:21:31</time>
      </trkpt>
      <trkpt lat="41.73342" lon="0.9717">
        <ele>330.6</ele>
        <time>2022-05-23 17:21:32</time>
      </trkpt>
      <trkpt lat="41.7334" lon="0.97176">
        <ele>330.6</ele>
        <time>2022-05-23 17:21:33</time>
      </trkpt>
      <trkpt lat="41.73337" lon="0.97183">
        <ele>330.6</ele>
        <time>2022-05-23 17:21:34</time>
      </trkpt>
      <trkpt lat="41.73335" lon="0.9719">
        <ele>330.6</ele>
        <time>2022-05-23 17:21:35</time>
      </trkpt>
      <trkpt lat="41.73332" lon="0.97197">
        <ele>330.6</ele>
        <time>2022-05-23 17:21:36</time>
      </trkpt>
      <trkpt lat="41.7333" lon="0.97203">
        <ele>330.6</ele>
        <time>2022-05-23 17:21:37</time>
      </trkpt>
      <trkpt lat="41.73327" lon="0.9721">
        <ele>330.4</ele>
        <time>2022-05-23 17:21:38</time>
      </trkpt>
      <trkpt lat="41.73325" lon="0.97216">
        <ele>330.4</ele>
        <time>2022-05-23 17:21:39</time>
      </trkpt>
      <trkpt lat="41.73323" lon="0.97223">
        <ele>330.6</ele>
        <time>2022-05-23 17:21:40</time>
      </trkpt>
      <trkpt lat="41.7332" lon="0.97229">
        <ele>330.8</ele>
        <time>2022-05-23 17:21:41</time>
      </trkpt>
      <trkpt lat="41.73318" lon="0.97236">
        <ele>331</ele>
        <time>2022-05-23 17:21:42</time>
      </trkpt>
      <trkpt lat="41.73315" lon="0.97242">
        <ele>331.2</ele>
        <time>2022-05-23 17:21:43</time>
      </trkpt>
      <trkpt lat="41.73313" lon="0.97249">
        <ele>331.2</ele>
        <time>2022-05-23 17:21:44</time>
      </trkpt>
      <trkpt lat="41.73311" lon="0.97255">
        <ele>331.2</ele>
        <time>2022-05-23 17:21:45</time>
      </trkpt>
      <trkpt lat="41.73308" lon="0.97262">
        <ele>331.2</ele>
        <time>2022-05-23 17:21:46</time>
      </trkpt>
      <trkpt lat="41.73305" lon="0.97269">
        <ele>331.2</ele>
        <time>2022-05-23 17:21:47</time>
      </trkpt>
      <trkpt lat="41.73303" lon="0.97275">
        <ele>331.2</ele>
        <time>2022-05-23 17:21:48</time>
      </trkpt>
      <trkpt lat="41.73301" lon="0.97282">
        <ele>331.2</ele>
        <time>2022-05-23 17:21:49</time>
      </trkpt>
      <trkpt lat="41.73298" lon="0.97289">
        <ele>331.2</ele>
        <time>2022-05-23 17:21:50</time>
      </trkpt>
      <trkpt lat="41.73296" lon="0.97295">
        <ele>331.2</ele>
        <time>2022-05-23 17:21:51</time>
      </trkpt>
      <trkpt lat="41.73293" lon="0.97302">
        <ele>331.2</ele>
        <time>2022-05-23 17:21:52</time>
      </trkpt>
      <trkpt lat="41.73291" lon="0.97308">
        <ele>331.2</ele>
        <time>2022-05-23 17:21:53</time>
      </trkpt>
      <trkpt lat="41.73288" lon="0.97315">
        <ele>331.2</ele>
        <time>2022-05-23 17:21:54</time>
      </trkpt>
      <trkpt lat="41.73286" lon="0.97322">
        <ele>331.2</ele>
        <time>2022-05-23 17:21:55</time>
      </trkpt>
      <trkpt lat="41.73284" lon="0.97328">
        <ele>331.2</ele>
        <time>2022-05-23 17:21:56</time>
      </trkpt>
      <trkpt lat="41.73281" lon="0.97334">
        <ele>331.2</ele>
        <time>2022-05-23 17:21:57</time>
      </trkpt>
      <trkpt lat="41.73278" lon="0.97341">
        <ele>331.2</ele>
        <time>2022-05-23 17:21:58</time>
      </trkpt>
      <trkpt lat="41.73276" lon="0.97347">
        <ele>331.4</ele>
        <time>2022-05-23 17:21:59</time>
      </trkpt>
      <trkpt lat="41.73274" lon="0.97354">
        <ele>331.4</ele>
        <time>2022-05-23 17:22:00</time>
      </trkpt>
      <trkpt lat="41.73272" lon="0.97361">
        <ele>331.4</ele>
        <time>2022-05-23 17:22:01</time>
      </trkpt>
      <trkpt lat="41.73269" lon="0.97367">
        <ele>331.4</ele>
        <time>2022-05-23 17:22:02</time>
      </trkpt>
      <trkpt lat="41.73267" lon="0.97374">
        <ele>331.4</ele>
        <time>2022-05-23 17:22:03</time>
      </trkpt>
      <trkpt lat="41.73264" lon="0.9738">
        <ele>331.4</ele>
        <time>2022-05-23 17:22:04</time>
      </trkpt>
      <trkpt lat="41.73262" lon="0.97387">
        <ele>331.2</ele>
        <time>2022-05-23 17:22:05</time>
      </trkpt>
      <trkpt lat="41.7326" lon="0.97394">
        <ele>331.2</ele>
        <time>2022-05-23 17:22:06</time>
      </trkpt>
      <trkpt lat="41.73257" lon="0.974">
        <ele>331.2</ele>
        <time>2022-05-23 17:22:07</time>
      </trkpt>
      <trkpt lat="41.73255" lon="0.97407">
        <ele>331.2</ele>
        <time>2022-05-23 17:22:08</time>
      </trkpt>
      <trkpt lat="41.73253" lon="0.97413">
        <ele>331.2</ele>
        <time>2022-05-23 17:22:09</time>
      </trkpt>
      <trkpt lat="41.7325" lon="0.9742">
        <ele>331.2</ele>
        <time>2022-05-23 17:22:10</time>
      </trkpt>
      <trkpt lat="41.73248" lon="0.97427">
        <ele>331.2</ele>
        <time>2022-05-23 17:22:11</time>
      </trkpt>
      <trkpt lat="41.73245" lon="0.97434">
        <ele>331.2</ele>
        <time>2022-05-23 17:22:12</time>
      </trkpt>
      <trkpt lat="41.73243" lon="0.9744">
        <ele>331.2</ele>
        <time>2022-05-23 17:22:13</time>
      </trkpt>
      <trkpt lat="41.73241" lon="0.97447">
        <ele>331.2</ele>
        <time>2022-05-23 17:22:14</time>
      </trkpt>
      <trkpt lat="41.73238" lon="0.97453">
        <ele>331.2</ele>
        <time>2022-05-23 17:22:15</time>
      </trkpt>
      <trkpt lat="41.73235" lon="0.9746">
        <ele>331.2</ele>
        <time>2022-05-23 17:22:16</time>
      </trkpt>
      <trkpt lat="41.73233" lon="0.97466">
        <ele>331.2</ele>
        <time>2022-05-23 17:22:17</time>
      </trkpt>
      <trkpt lat="41.73231" lon="0.97473">
        <ele>331.2</ele>
        <time>2022-05-23 17:22:18</time>
      </trkpt>
      <trkpt lat="41.73229" lon="0.97479">
        <ele>331.2</ele>
        <time>2022-05-23 17:22:19</time>
      </trkpt>
      <trkpt lat="41.73226" lon="0.97486">
        <ele>331.2</ele>
        <time>2022-05-23 17:22:20</time>
      </trkpt>
      <trkpt lat="41.73223" lon="0.97493">
        <ele>331.4</ele>
        <time>2022-05-23 17:22:21</time>
      </trkpt>
      <trkpt lat="41.73221" lon="0.97499">
        <ele>331.4</ele>
        <time>2022-05-23 17:22:22</time>
      </trkpt>
      <trkpt lat="41.73219" lon="0.97505">
        <ele>331.4</ele>
        <time>2022-05-23 17:22:23</time>
      </trkpt>
      <trkpt lat="41.73217" lon="0.97512">
        <ele>331.6</ele>
        <time>2022-05-23 17:22:24</time>
      </trkpt>
      <trkpt lat="41.73214" lon="0.97518">
        <ele>331.8</ele>
        <time>2022-05-23 17:22:25</time>
      </trkpt>
      <trkpt lat="41.73212" lon="0.97524">
        <ele>331.8</ele>
        <time>2022-05-23 17:22:26</time>
      </trkpt>
      <trkpt lat="41.73209" lon="0.9753">
        <ele>331.8</ele>
        <time>2022-05-23 17:22:27</time>
      </trkpt>
      <trkpt lat="41.73207" lon="0.97537">
        <ele>331.8</ele>
        <time>2022-05-23 17:22:28</time>
      </trkpt>
      <trkpt lat="41.73205" lon="0.97543">
        <ele>331.6</ele>
        <time>2022-05-23 17:22:29</time>
      </trkpt>
      <trkpt lat="41.73202" lon="0.9755">
        <ele>331.4</ele>
        <time>2022-05-23 17:22:30</time>
      </trkpt>
      <trkpt lat="41.732" lon="0.97556">
        <ele>331.4</ele>
        <time>2022-05-23 17:22:31</time>
      </trkpt>
      <trkpt lat="41.73198" lon="0.97563">
        <ele>331.6</ele>
        <time>2022-05-23 17:22:32</time>
      </trkpt>
      <trkpt lat="41.73196" lon="0.9757">
        <ele>331.6</ele>
        <time>2022-05-23 17:22:33</time>
      </trkpt>
      <trkpt lat="41.73193" lon="0.97576">
        <ele>331.8</ele>
        <time>2022-05-23 17:22:34</time>
      </trkpt>
      <trkpt lat="41.73191" lon="0.97583">
        <ele>331.8</ele>
        <time>2022-05-23 17:22:35</time>
      </trkpt>
      <trkpt lat="41.73188" lon="0.9759">
        <ele>331.8</ele>
        <time>2022-05-23 17:22:36</time>
      </trkpt>
      <trkpt lat="41.73186" lon="0.97596">
        <ele>331.8</ele>
        <time>2022-05-23 17:22:37</time>
      </trkpt>
      <trkpt lat="41.73184" lon="0.97603">
        <ele>331.8</ele>
        <time>2022-05-23 17:22:38</time>
      </trkpt>
      <trkpt lat="41.73181" lon="0.97609">
        <ele>331.8</ele>
        <time>2022-05-23 17:22:39</time>
      </trkpt>
      <trkpt lat="41.73178" lon="0.97616">
        <ele>332</ele>
        <time>2022-05-23 17:22:40</time>
      </trkpt>
      <trkpt lat="41.73176" lon="0.97623">
        <ele>332.2</ele>
        <time>2022-05-23 17:22:41</time>
      </trkpt>
      <trkpt lat="41.73173" lon="0.9763">
        <ele>332.2</ele>
        <time>2022-05-23 17:22:42</time>
      </trkpt>
      <trkpt lat="41.73171" lon="0.97637">
        <ele>332.2</ele>
        <time>2022-05-23 17:22:43</time>
      </trkpt>
      <trkpt lat="41.73168" lon="0.97643">
        <ele>332.2</ele>
        <time>2022-05-23 17:22:44</time>
      </trkpt>
      <trkpt lat="41.73166" lon="0.97649">
        <ele>332.2</ele>
        <time>2022-05-23 17:22:45</time>
      </trkpt>
      <trkpt lat="41.73163" lon="0.97656">
        <ele>332</ele>
        <time>2022-05-23 17:22:46</time>
      </trkpt>
      <trkpt lat="41.73161" lon="0.97663">
        <ele>332</ele>
        <time>2022-05-23 17:22:47</time>
      </trkpt>
      <trkpt lat="41.73158" lon="0.9767">
        <ele>332</ele>
        <time>2022-05-23 17:22:48</time>
      </trkpt>
      <trkpt lat="41.73156" lon="0.97676">
        <ele>332.2</ele>
        <time>2022-05-23 17:22:49</time>
      </trkpt>
      <trkpt lat="41.73153" lon="0.97684">
        <ele>332.2</ele>
        <time>2022-05-23 17:22:50</time>
      </trkpt>
      <trkpt lat="41.73151" lon="0.97691">
        <ele>332.2</ele>
        <time>2022-05-23 17:22:51</time>
      </trkpt>
      <trkpt lat="41.73148" lon="0.97698">
        <ele>332.2</ele>
        <time>2022-05-23 17:22:52</time>
      </trkpt>
      <trkpt lat="41.73146" lon="0.97705">
        <ele>332.2</ele>
        <time>2022-05-23 17:22:53</time>
      </trkpt>
      <trkpt lat="41.73144" lon="0.97712">
        <ele>332.2</ele>
        <time>2022-05-23 17:22:54</time>
      </trkpt>
      <trkpt lat="41.73141" lon="0.97718">
        <ele>332.2</ele>
        <time>2022-05-23 17:22:55</time>
      </trkpt>
      <trkpt lat="41.73139" lon="0.97725">
        <ele>332.2</ele>
        <time>2022-05-23 17:22:56</time>
      </trkpt>
      <trkpt lat="41.73137" lon="0.97732">
        <ele>332.2</ele>
        <time>2022-05-23 17:22:57</time>
      </trkpt>
      <trkpt lat="41.73134" lon="0.97739">
        <ele>332.2</ele>
        <time>2022-05-23 17:22:58</time>
      </trkpt>
      <trkpt lat="41.73131" lon="0.97746">
        <ele>332.2</ele>
        <time>2022-05-23 17:22:59</time>
      </trkpt>
      <trkpt lat="41.73128" lon="0.97753">
        <ele>332.4</ele>
        <time>2022-05-23 17:23:00</time>
      </trkpt>
      <trkpt lat="41.73125" lon="0.97761">
        <ele>332.4</ele>
        <time>2022-05-23 17:23:01</time>
      </trkpt>
      <trkpt lat="41.73123" lon="0.97768">
        <ele>332.6</ele>
        <time>2022-05-23 17:23:02</time>
      </trkpt>
      <trkpt lat="41.7312" lon="0.97775">
        <ele>332.4</ele>
        <time>2022-05-23 17:23:03</time>
      </trkpt>
      <trkpt lat="41.73117" lon="0.97783">
        <ele>332.6</ele>
        <time>2022-05-23 17:23:04</time>
      </trkpt>
      <trkpt lat="41.73115" lon="0.97788">
        <ele>332.6</ele>
        <time>2022-05-23 17:23:05</time>
      </trkpt>
      <trkpt lat="41.73112" lon="0.97797">
        <ele>332.6</ele>
        <time>2022-05-23 17:23:06</time>
      </trkpt>
      <trkpt lat="41.73109" lon="0.97803">
        <ele>332.6</ele>
        <time>2022-05-23 17:23:07</time>
      </trkpt>
      <trkpt lat="41.73106" lon="0.97811">
        <ele>332.6</ele>
        <time>2022-05-23 17:23:08</time>
      </trkpt>
      <trkpt lat="41.73104" lon="0.97816">
        <ele>332.6</ele>
        <time>2022-05-23 17:23:09</time>
      </trkpt>
      <trkpt lat="41.73102" lon="0.97822">
        <ele>332.6</ele>
        <time>2022-05-23 17:23:10</time>
      </trkpt>
      <trkpt lat="41.731" lon="0.97828">
        <ele>332.4</ele>
        <time>2022-05-23 17:23:11</time>
      </trkpt>
      <trkpt lat="41.73096" lon="0.97839">
        <ele>332.6</ele>
        <time>2022-05-23 17:23:12</time>
      </trkpt>
      <trkpt lat="41.73095" lon="0.97844">
        <ele>332.6</ele>
        <time>2022-05-23 17:23:13</time>
      </trkpt>
      <trkpt lat="41.73091" lon="0.97853">
        <ele>332.6</ele>
        <time>2022-05-23 17:23:14</time>
      </trkpt>
      <trkpt lat="41.73089" lon="0.97859">
        <ele>332.8</ele>
        <time>2022-05-23 17:23:15</time>
      </trkpt>
      <trkpt lat="41.73086" lon="0.97867">
        <ele>332.8</ele>
        <time>2022-05-23 17:23:16</time>
      </trkpt>
      <trkpt lat="41.73083" lon="0.97873">
        <ele>333</ele>
        <time>2022-05-23 17:23:17</time>
      </trkpt>
      <trkpt lat="41.73081" lon="0.97881">
        <ele>333</ele>
        <time>2022-05-23 17:23:18</time>
      </trkpt>
      <trkpt lat="41.73078" lon="0.97887">
        <ele>333</ele>
        <time>2022-05-23 17:23:19</time>
      </trkpt>
      <trkpt lat="41.73075" lon="0.97895">
        <ele>333</ele>
        <time>2022-05-23 17:23:20</time>
      </trkpt>
      <trkpt lat="41.73073" lon="0.97901">
        <ele>333.2</ele>
        <time>2022-05-23 17:23:21</time>
      </trkpt>
      <trkpt lat="41.7307" lon="0.97909">
        <ele>333.2</ele>
        <time>2022-05-23 17:23:22</time>
      </trkpt>
      <trkpt lat="41.73068" lon="0.97915">
        <ele>333.2</ele>
        <time>2022-05-23 17:23:23</time>
      </trkpt>
      <trkpt lat="41.73065" lon="0.97923">
        <ele>333</ele>
        <time>2022-05-23 17:23:24</time>
      </trkpt>
      <trkpt lat="41.73063" lon="0.97928">
        <ele>333.2</ele>
        <time>2022-05-23 17:23:25</time>
      </trkpt>
      <trkpt lat="41.73059" lon="0.97936">
        <ele>333.2</ele>
        <time>2022-05-23 17:23:26</time>
      </trkpt>
      <trkpt lat="41.73057" lon="0.97942">
        <ele>333.2</ele>
        <time>2022-05-23 17:23:27</time>
      </trkpt>
      <trkpt lat="41.73055" lon="0.97947">
        <ele>333.2</ele>
        <time>2022-05-23 17:23:28</time>
      </trkpt>
      <trkpt lat="41.73052" lon="0.97954">
        <ele>333.2</ele>
        <time>2022-05-23 17:23:29</time>
      </trkpt>
      <trkpt lat="41.73049" lon="0.97963">
        <ele>333.2</ele>
        <time>2022-05-23 17:23:30</time>
      </trkpt>
      <trkpt lat="41.73047" lon="0.97968">
        <ele>333.2</ele>
        <time>2022-05-23 17:23:31</time>
      </trkpt>
      <trkpt lat="41.73044" lon="0.97976">
        <ele>333.4</ele>
        <time>2022-05-23 17:23:32</time>
      </trkpt>
      <trkpt lat="41.73042" lon="0.97981">
        <ele>333.4</ele>
        <time>2022-05-23 17:23:33</time>
      </trkpt>
      <trkpt lat="41.73039" lon="0.97989">
        <ele>333.4</ele>
        <time>2022-05-23 17:23:34</time>
      </trkpt>
      <trkpt lat="41.73037" lon="0.97994">
        <ele>333.4</ele>
        <time>2022-05-23 17:23:35</time>
      </trkpt>
      <trkpt lat="41.73034" lon="0.98002">
        <ele>333.4</ele>
        <time>2022-05-23 17:23:36</time>
      </trkpt>
      <trkpt lat="41.73032" lon="0.98007">
        <ele>333.4</ele>
        <time>2022-05-23 17:23:37</time>
      </trkpt>
      <trkpt lat="41.73029" lon="0.98015">
        <ele>333.4</ele>
        <time>2022-05-23 17:23:38</time>
      </trkpt>
      <trkpt lat="41.73027" lon="0.9802">
        <ele>333.4</ele>
        <time>2022-05-23 17:23:39</time>
      </trkpt>
      <trkpt lat="41.73024" lon="0.98027">
        <ele>333.4</ele>
        <time>2022-05-23 17:23:40</time>
      </trkpt>
      <trkpt lat="41.73022" lon="0.98033">
        <ele>333.4</ele>
        <time>2022-05-23 17:23:41</time>
      </trkpt>
      <trkpt lat="41.73019" lon="0.9804">
        <ele>333.4</ele>
        <time>2022-05-23 17:23:42</time>
      </trkpt>
      <trkpt lat="41.73017" lon="0.98045">
        <ele>333.4</ele>
        <time>2022-05-23 17:23:43</time>
      </trkpt>
      <trkpt lat="41.73014" lon="0.98053">
        <ele>333.4</ele>
        <time>2022-05-23 17:23:44</time>
      </trkpt>
      <trkpt lat="41.73012" lon="0.98057">
        <ele>333.4</ele>
        <time>2022-05-23 17:23:45</time>
      </trkpt>
      <trkpt lat="41.7301" lon="0.98064">
        <ele>333.6</ele>
        <time>2022-05-23 17:23:46</time>
      </trkpt>
      <trkpt lat="41.73007" lon="0.98071">
        <ele>333.6</ele>
        <time>2022-05-23 17:23:47</time>
      </trkpt>
      <trkpt lat="41.73005" lon="0.98078">
        <ele>333.8</ele>
        <time>2022-05-23 17:23:48</time>
      </trkpt>
      <trkpt lat="41.73003" lon="0.98083">
        <ele>333.8</ele>
        <time>2022-05-23 17:23:49</time>
      </trkpt>
      <trkpt lat="41.73" lon="0.98091">
        <ele>333.8</ele>
        <time>2022-05-23 17:23:50</time>
      </trkpt>
      <trkpt lat="41.72998" lon="0.98096">
        <ele>333.8</ele>
        <time>2022-05-23 17:23:51</time>
      </trkpt>
      <trkpt lat="41.72995" lon="0.98104">
        <ele>333.8</ele>
        <time>2022-05-23 17:23:52</time>
      </trkpt>
      <trkpt lat="41.72993" lon="0.9811">
        <ele>333.8</ele>
        <time>2022-05-23 17:23:53</time>
      </trkpt>
      <trkpt lat="41.72991" lon="0.98117">
        <ele>333.8</ele>
        <time>2022-05-23 17:23:54</time>
      </trkpt>
      <trkpt lat="41.72989" lon="0.98123">
        <ele>334</ele>
        <time>2022-05-23 17:23:55</time>
      </trkpt>
      <trkpt lat="41.72986" lon="0.9813">
        <ele>334</ele>
        <time>2022-05-23 17:23:56</time>
      </trkpt>
      <trkpt lat="41.72984" lon="0.98135">
        <ele>334</ele>
        <time>2022-05-23 17:23:57</time>
      </trkpt>
      <trkpt lat="41.72981" lon="0.98143">
        <ele>334</ele>
        <time>2022-05-23 17:23:58</time>
      </trkpt>
      <trkpt lat="41.72979" lon="0.98148">
        <ele>334.2</ele>
        <time>2022-05-23 17:23:59</time>
      </trkpt>
      <trkpt lat="41.72976" lon="0.98155">
        <ele>334.2</ele>
        <time>2022-05-23 17:24:00</time>
      </trkpt>
      <trkpt lat="41.72974" lon="0.9816">
        <ele>334.2</ele>
        <time>2022-05-23 17:24:01</time>
      </trkpt>
      <trkpt lat="41.72972" lon="0.98168">
        <ele>334.4</ele>
        <time>2022-05-23 17:24:02</time>
      </trkpt>
      <trkpt lat="41.7297" lon="0.98172">
        <ele>334.6</ele>
        <time>2022-05-23 17:24:03</time>
      </trkpt>
      <trkpt lat="41.72967" lon="0.9818">
        <ele>334.6</ele>
        <time>2022-05-23 17:24:04</time>
      </trkpt>
      <trkpt lat="41.72965" lon="0.98185">
        <ele>334.6</ele>
        <time>2022-05-23 17:24:05</time>
      </trkpt>
      <trkpt lat="41.72962" lon="0.98193">
        <ele>334.4</ele>
        <time>2022-05-23 17:24:06</time>
      </trkpt>
      <trkpt lat="41.7296" lon="0.98198">
        <ele>334.4</ele>
        <time>2022-05-23 17:24:07</time>
      </trkpt>
      <trkpt lat="41.72958" lon="0.98207">
        <ele>334.4</ele>
        <time>2022-05-23 17:24:08</time>
      </trkpt>
      <trkpt lat="41.72956" lon="0.98212">
        <ele>334.4</ele>
        <time>2022-05-23 17:24:09</time>
      </trkpt>
      <trkpt lat="41.72953" lon="0.9822">
        <ele>334.4</ele>
        <time>2022-05-23 17:24:10</time>
      </trkpt>
      <trkpt lat="41.72951" lon="0.98225">
        <ele>334.4</ele>
        <time>2022-05-23 17:24:11</time>
      </trkpt>
      <trkpt lat="41.72948" lon="0.98233">
        <ele>334.2</ele>
        <time>2022-05-23 17:24:12</time>
      </trkpt>
      <trkpt lat="41.72946" lon="0.98238">
        <ele>334</ele>
        <time>2022-05-23 17:24:13</time>
      </trkpt>
      <trkpt lat="41.72942" lon="0.98245">
        <ele>334</ele>
        <time>2022-05-23 17:24:14</time>
      </trkpt>
      <trkpt lat="41.72939" lon="0.9825">
        <ele>333.8</ele>
        <time>2022-05-23 17:24:15</time>
      </trkpt>
      <trkpt lat="41.72934" lon="0.98257">
        <ele>333.8</ele>
        <time>2022-05-23 17:24:16</time>
      </trkpt>
      <trkpt lat="41.7293" lon="0.98261">
        <ele>334</ele>
        <time>2022-05-23 17:24:17</time>
      </trkpt>
      <trkpt lat="41.72925" lon="0.98267">
        <ele>334.2</ele>
        <time>2022-05-23 17:24:18</time>
      </trkpt>
      <trkpt lat="41.72921" lon="0.9827">
        <ele>334</ele>
        <time>2022-05-23 17:24:19</time>
      </trkpt>
      <trkpt lat="41.72914" lon="0.98274">
        <ele>334</ele>
        <time>2022-05-23 17:24:20</time>
      </trkpt>
      <trkpt lat="41.72909" lon="0.98276">
        <ele>333.8</ele>
        <time>2022-05-23 17:24:21</time>
      </trkpt>
      <trkpt lat="41.72902" lon="0.98279">
        <ele>333.6</ele>
        <time>2022-05-23 17:24:22</time>
      </trkpt>
      <trkpt lat="41.72897" lon="0.98279">
        <ele>333.4</ele>
        <time>2022-05-23 17:24:23</time>
      </trkpt>
      <trkpt lat="41.7289" lon="0.9828">
        <ele>333.4</ele>
        <time>2022-05-23 17:24:24</time>
      </trkpt>
      <trkpt lat="41.72885" lon="0.9828">
        <ele>333.2</ele>
        <time>2022-05-23 17:24:25</time>
      </trkpt>
      <trkpt lat="41.72878" lon="0.9828">
        <ele>333.2</ele>
        <time>2022-05-23 17:24:26</time>
      </trkpt>
      <trkpt lat="41.72873" lon="0.9828">
        <ele>333.2</ele>
        <time>2022-05-23 17:24:27</time>
      </trkpt>
      <trkpt lat="41.72867" lon="0.98279">
        <ele>333.4</ele>
        <time>2022-05-23 17:24:28</time>
      </trkpt>
      <trkpt lat="41.72862" lon="0.98279">
        <ele>333.4</ele>
        <time>2022-05-23 17:24:29</time>
      </trkpt>
      <trkpt lat="41.72855" lon="0.98278">
        <ele>333.6</ele>
        <time>2022-05-23 17:24:30</time>
      </trkpt>
      <trkpt lat="41.72851" lon="0.98278">
        <ele>333.6</ele>
        <time>2022-05-23 17:24:31</time>
      </trkpt>
      <trkpt lat="41.72844" lon="0.98277">
        <ele>333.4</ele>
        <time>2022-05-23 17:24:32</time>
      </trkpt>
      <trkpt lat="41.7284" lon="0.98277">
        <ele>333.4</ele>
        <time>2022-05-23 17:24:33</time>
      </trkpt>
      <trkpt lat="41.72834" lon="0.98276">
        <ele>333.4</ele>
        <time>2022-05-23 17:24:34</time>
      </trkpt>
      <trkpt lat="41.72829" lon="0.98276">
        <ele>333.4</ele>
        <time>2022-05-23 17:24:35</time>
      </trkpt>
      <trkpt lat="41.72823" lon="0.98275">
        <ele>333.4</ele>
        <time>2022-05-23 17:24:36</time>
      </trkpt>
      <trkpt lat="41.72819" lon="0.98275">
        <ele>333.4</ele>
        <time>2022-05-23 17:24:37</time>
      </trkpt>
      <trkpt lat="41.72813" lon="0.98275">
        <ele>333.4</ele>
        <time>2022-05-23 17:24:38</time>
      </trkpt>
      <trkpt lat="41.72809" lon="0.98274">
        <ele>333.6</ele>
        <time>2022-05-23 17:24:39</time>
      </trkpt>
      <trkpt lat="41.72802" lon="0.98274">
        <ele>333.6</ele>
        <time>2022-05-23 17:24:40</time>
      </trkpt>
      <trkpt lat="41.72798" lon="0.98274">
        <ele>333.6</ele>
        <time>2022-05-23 17:24:41</time>
      </trkpt>
      <trkpt lat="41.72792" lon="0.98273">
        <ele>333.4</ele>
        <time>2022-05-23 17:24:42</time>
      </trkpt>
      <trkpt lat="41.72788" lon="0.98273">
        <ele>333.4</ele>
        <time>2022-05-23 17:24:43</time>
      </trkpt>
      <trkpt lat="41.72782" lon="0.98273">
        <ele>333.6</ele>
        <time>2022-05-23 17:24:44</time>
      </trkpt>
      <trkpt lat="41.72777" lon="0.98272">
        <ele>333.6</ele>
        <time>2022-05-23 17:24:45</time>
      </trkpt>
      <trkpt lat="41.72772" lon="0.98272">
        <ele>333.4</ele>
        <time>2022-05-23 17:24:46</time>
      </trkpt>
      <trkpt lat="41.72768" lon="0.98272">
        <ele>333.4</ele>
        <time>2022-05-23 17:24:47</time>
      </trkpt>
      <trkpt lat="41.72762" lon="0.98272">
        <ele>333.4</ele>
        <time>2022-05-23 17:24:48</time>
      </trkpt>
      <trkpt lat="41.72756" lon="0.98271">
        <ele>333.4</ele>
        <time>2022-05-23 17:24:49</time>
      </trkpt>
      <trkpt lat="41.72751" lon="0.98271">
        <ele>333.6</ele>
        <time>2022-05-23 17:24:50</time>
      </trkpt>
      <trkpt lat="41.72745" lon="0.9827">
        <ele>333.8</ele>
        <time>2022-05-23 17:24:51</time>
      </trkpt>
      <trkpt lat="41.72741" lon="0.9827">
        <ele>333.8</ele>
        <time>2022-05-23 17:24:52</time>
      </trkpt>
      <trkpt lat="41.72735" lon="0.9827">
        <ele>333.8</ele>
        <time>2022-05-23 17:24:53</time>
      </trkpt>
      <trkpt lat="41.72729" lon="0.98269">
        <ele>333.8</ele>
        <time>2022-05-23 17:24:54</time>
      </trkpt>
      <trkpt lat="41.72724" lon="0.98269">
        <ele>333.6</ele>
        <time>2022-05-23 17:24:55</time>
      </trkpt>
      <trkpt lat="41.72719" lon="0.98269">
        <ele>333.6</ele>
        <time>2022-05-23 17:24:56</time>
      </trkpt>
      <trkpt lat="41.72714" lon="0.98268">
        <ele>333.6</ele>
        <time>2022-05-23 17:24:57</time>
      </trkpt>
      <trkpt lat="41.72708" lon="0.98268">
        <ele>333.4</ele>
        <time>2022-05-23 17:24:58</time>
      </trkpt>
      <trkpt lat="41.72703" lon="0.98268">
        <ele>333.4</ele>
        <time>2022-05-23 17:24:59</time>
      </trkpt>
      <trkpt lat="41.72697" lon="0.98267">
        <ele>333.4</ele>
        <time>2022-05-23 17:25:00</time>
      </trkpt>
      <trkpt lat="41.72691" lon="0.98267">
        <ele>333.4</ele>
        <time>2022-05-23 17:25:01</time>
      </trkpt>
      <trkpt lat="41.72685" lon="0.98266">
        <ele>333.2</ele>
        <time>2022-05-23 17:25:02</time>
      </trkpt>
      <trkpt lat="41.7268" lon="0.98266">
        <ele>333.2</ele>
        <time>2022-05-23 17:25:03</time>
      </trkpt>
      <trkpt lat="41.72674" lon="0.98266">
        <ele>333.2</ele>
        <time>2022-05-23 17:25:04</time>
      </trkpt>
      <trkpt lat="41.72669" lon="0.98265">
        <ele>333.2</ele>
        <time>2022-05-23 17:25:05</time>
      </trkpt>
      <trkpt lat="41.72663" lon="0.98265">
        <ele>333.2</ele>
        <time>2022-05-23 17:25:06</time>
      </trkpt>
      <trkpt lat="41.72657" lon="0.98265">
        <ele>333.2</ele>
        <time>2022-05-23 17:25:07</time>
      </trkpt>
      <trkpt lat="41.72652" lon="0.98265">
        <ele>333.2</ele>
        <time>2022-05-23 17:25:08</time>
      </trkpt>
      <trkpt lat="41.72646" lon="0.98264">
        <ele>333</ele>
        <time>2022-05-23 17:25:09</time>
      </trkpt>
      <trkpt lat="41.7264" lon="0.98263">
        <ele>333</ele>
        <time>2022-05-23 17:25:10</time>
      </trkpt>
      <trkpt lat="41.72634" lon="0.98263">
        <ele>332.8</ele>
        <time>2022-05-23 17:25:11</time>
      </trkpt>
      <trkpt lat="41.72628" lon="0.98262">
        <ele>332.8</ele>
        <time>2022-05-23 17:25:12</time>
      </trkpt>
      <trkpt lat="41.72622" lon="0.98262">
        <ele>332.8</ele>
        <time>2022-05-23 17:25:13</time>
      </trkpt>
      <trkpt lat="41.72616" lon="0.98262">
        <ele>332.6</ele>
        <time>2022-05-23 17:25:14</time>
      </trkpt>
      <trkpt lat="41.7261" lon="0.98261">
        <ele>332.6</ele>
        <time>2022-05-23 17:25:15</time>
      </trkpt>
      <trkpt lat="41.72604" lon="0.98261">
        <ele>332.6</ele>
        <time>2022-05-23 17:25:16</time>
      </trkpt>
      <trkpt lat="41.72599" lon="0.9826">
        <ele>332.4</ele>
        <time>2022-05-23 17:25:17</time>
      </trkpt>
      <trkpt lat="41.72593" lon="0.9826">
        <ele>332.4</ele>
        <time>2022-05-23 17:25:18</time>
      </trkpt>
      <trkpt lat="41.72587" lon="0.9826">
        <ele>332.4</ele>
        <time>2022-05-23 17:25:19</time>
      </trkpt>
      <trkpt lat="41.72581" lon="0.9826">
        <ele>332.4</ele>
        <time>2022-05-23 17:25:20</time>
      </trkpt>
      <trkpt lat="41.72575" lon="0.9826">
        <ele>332.2</ele>
        <time>2022-05-23 17:25:21</time>
      </trkpt>
      <trkpt lat="41.72568" lon="0.9826">
        <ele>332.2</ele>
        <time>2022-05-23 17:25:22</time>
      </trkpt>
      <trkpt lat="41.72562" lon="0.9826">
        <ele>332</ele>
        <time>2022-05-23 17:25:23</time>
      </trkpt>
      <trkpt lat="41.72556" lon="0.9826">
        <ele>331.8</ele>
        <time>2022-05-23 17:25:24</time>
      </trkpt>
      <trkpt lat="41.72549" lon="0.9826">
        <ele>331.8</ele>
        <time>2022-05-23 17:25:25</time>
      </trkpt>
      <trkpt lat="41.72543" lon="0.9826">
        <ele>331.6</ele>
        <time>2022-05-23 17:25:26</time>
      </trkpt>
      <trkpt lat="41.72537" lon="0.9826">
        <ele>331.6</ele>
        <time>2022-05-23 17:25:27</time>
      </trkpt>
      <trkpt lat="41.72531" lon="0.9826">
        <ele>331.6</ele>
        <time>2022-05-23 17:25:28</time>
      </trkpt>
      <trkpt lat="41.72525" lon="0.98261">
        <ele>331.4</ele>
        <time>2022-05-23 17:25:29</time>
      </trkpt>
      <trkpt lat="41.7252" lon="0.98261">
        <ele>331.4</ele>
        <time>2022-05-23 17:25:30</time>
      </trkpt>
      <trkpt lat="41.72514" lon="0.98261">
        <ele>331.4</ele>
        <time>2022-05-23 17:25:31</time>
      </trkpt>
      <trkpt lat="41.72508" lon="0.98261">
        <ele>331.4</ele>
        <time>2022-05-23 17:25:32</time>
      </trkpt>
      <trkpt lat="41.72502" lon="0.98261">
        <ele>331.4</ele>
        <time>2022-05-23 17:25:33</time>
      </trkpt>
      <trkpt lat="41.72497" lon="0.98261">
        <ele>331.4</ele>
        <time>2022-05-23 17:25:34</time>
      </trkpt>
      <trkpt lat="41.7249" lon="0.98261">
        <ele>331.4</ele>
        <time>2022-05-23 17:25:35</time>
      </trkpt>
      <trkpt lat="41.72484" lon="0.98261">
        <ele>331.2</ele>
        <time>2022-05-23 17:25:36</time>
      </trkpt>
      <trkpt lat="41.72478" lon="0.98261">
        <ele>331</ele>
        <time>2022-05-23 17:25:37</time>
      </trkpt>
      <trkpt lat="41.72471" lon="0.98261">
        <ele>330.8</ele>
        <time>2022-05-23 17:25:38</time>
      </trkpt>
      <trkpt lat="41.72464" lon="0.98262">
        <ele>330.8</ele>
        <time>2022-05-23 17:25:39</time>
      </trkpt>
      <trkpt lat="41.72458" lon="0.98262">
        <ele>330.8</ele>
        <time>2022-05-23 17:25:40</time>
      </trkpt>
      <trkpt lat="41.72451" lon="0.98262">
        <ele>330.8</ele>
        <time>2022-05-23 17:25:41</time>
      </trkpt>
      <trkpt lat="41.72445" lon="0.98262">
        <ele>330.8</ele>
        <time>2022-05-23 17:25:42</time>
      </trkpt>
      <trkpt lat="41.72438" lon="0.98263">
        <ele>330.8</ele>
        <time>2022-05-23 17:25:43</time>
      </trkpt>
      <trkpt lat="41.72432" lon="0.98263">
        <ele>331</ele>
        <time>2022-05-23 17:25:44</time>
      </trkpt>
      <trkpt lat="41.72425" lon="0.98263">
        <ele>330.8</ele>
        <time>2022-05-23 17:25:45</time>
      </trkpt>
      <trkpt lat="41.72419" lon="0.98263">
        <ele>330.6</ele>
        <time>2022-05-23 17:25:46</time>
      </trkpt>
      <trkpt lat="41.72413" lon="0.98263">
        <ele>330.6</ele>
        <time>2022-05-23 17:25:47</time>
      </trkpt>
      <trkpt lat="41.72407" lon="0.98263">
        <ele>330.8</ele>
        <time>2022-05-23 17:25:48</time>
      </trkpt>
      <trkpt lat="41.72401" lon="0.98263">
        <ele>330.8</ele>
        <time>2022-05-23 17:25:49</time>
      </trkpt>
      <trkpt lat="41.72395" lon="0.98264">
        <ele>330.8</ele>
        <time>2022-05-23 17:25:50</time>
      </trkpt>
      <trkpt lat="41.72389" lon="0.98264">
        <ele>331</ele>
        <time>2022-05-23 17:25:51</time>
      </trkpt>
      <trkpt lat="41.72384" lon="0.98264">
        <ele>330.8</ele>
        <time>2022-05-23 17:25:52</time>
      </trkpt>
      <trkpt lat="41.72377" lon="0.98264">
        <ele>330.8</ele>
        <time>2022-05-23 17:25:53</time>
      </trkpt>
      <trkpt lat="41.72372" lon="0.98264">
        <ele>330.8</ele>
        <time>2022-05-23 17:25:54</time>
      </trkpt>
      <trkpt lat="41.72365" lon="0.98264">
        <ele>330.6</ele>
        <time>2022-05-23 17:25:55</time>
      </trkpt>
      <trkpt lat="41.7236" lon="0.98264">
        <ele>330.6</ele>
        <time>2022-05-23 17:25:56</time>
      </trkpt>
      <trkpt lat="41.72354" lon="0.98264">
        <ele>330.6</ele>
        <time>2022-05-23 17:25:57</time>
      </trkpt>
      <trkpt lat="41.72348" lon="0.98264">
        <ele>330.6</ele>
        <time>2022-05-23 17:25:58</time>
      </trkpt>
      <trkpt lat="41.72343" lon="0.98264">
        <ele>330.6</ele>
        <time>2022-05-23 17:25:59</time>
      </trkpt>
      <trkpt lat="41.72336" lon="0.98265">
        <ele>330.6</ele>
        <time>2022-05-23 17:26:00</time>
      </trkpt>
      <trkpt lat="41.7233" lon="0.98265">
        <ele>330.4</ele>
        <time>2022-05-23 17:26:01</time>
      </trkpt>
      <trkpt lat="41.72325" lon="0.98265">
        <ele>330.4</ele>
        <time>2022-05-23 17:26:02</time>
      </trkpt>
      <trkpt lat="41.72319" lon="0.98265">
        <ele>330.6</ele>
        <time>2022-05-23 17:26:03</time>
      </trkpt>
      <trkpt lat="41.72313" lon="0.98265">
        <ele>330.6</ele>
        <time>2022-05-23 17:26:04</time>
      </trkpt>
      <trkpt lat="41.72307" lon="0.98266">
        <ele>330.8</ele>
        <time>2022-05-23 17:26:05</time>
      </trkpt>
      <trkpt lat="41.72302" lon="0.98266">
        <ele>330.8</ele>
        <time>2022-05-23 17:26:06</time>
      </trkpt>
      <trkpt lat="41.72295" lon="0.98266">
        <ele>330.6</ele>
        <time>2022-05-23 17:26:07</time>
      </trkpt>
      <trkpt lat="41.7229" lon="0.98266">
        <ele>330.6</ele>
        <time>2022-05-23 17:26:08</time>
      </trkpt>
      <trkpt lat="41.72285" lon="0.98266">
        <ele>330.4</ele>
        <time>2022-05-23 17:26:09</time>
      </trkpt>
      <trkpt lat="41.72278" lon="0.98266">
        <ele>330.4</ele>
        <time>2022-05-23 17:26:10</time>
      </trkpt>
      <trkpt lat="41.72272" lon="0.98266">
        <ele>330.4</ele>
        <time>2022-05-23 17:26:11</time>
      </trkpt>
      <trkpt lat="41.72266" lon="0.98266">
        <ele>330.4</ele>
        <time>2022-05-23 17:26:12</time>
      </trkpt>
      <trkpt lat="41.7226" lon="0.98267">
        <ele>330.4</ele>
        <time>2022-05-23 17:26:13</time>
      </trkpt>
      <trkpt lat="41.72254" lon="0.98267">
        <ele>330.6</ele>
        <time>2022-05-23 17:26:14</time>
      </trkpt>
      <trkpt lat="41.72249" lon="0.98268">
        <ele>330.6</ele>
        <time>2022-05-23 17:26:15</time>
      </trkpt>
      <trkpt lat="41.72243" lon="0.98268">
        <ele>330.4</ele>
        <time>2022-05-23 17:26:16</time>
      </trkpt>
      <trkpt lat="41.72237" lon="0.98268">
        <ele>330.4</ele>
        <time>2022-05-23 17:26:17</time>
      </trkpt>
      <trkpt lat="41.72232" lon="0.98268">
        <ele>330.4</ele>
        <time>2022-05-23 17:26:18</time>
      </trkpt>
      <trkpt lat="41.72226" lon="0.98268">
        <ele>330.4</ele>
        <time>2022-05-23 17:26:19</time>
      </trkpt>
      <trkpt lat="41.7222" lon="0.98268">
        <ele>330.2</ele>
        <time>2022-05-23 17:26:20</time>
      </trkpt>
      <trkpt lat="41.72214" lon="0.98268">
        <ele>330.2</ele>
        <time>2022-05-23 17:26:21</time>
      </trkpt>
      <trkpt lat="41.72208" lon="0.98268">
        <ele>330</ele>
        <time>2022-05-23 17:26:22</time>
      </trkpt>
      <trkpt lat="41.72202" lon="0.98268">
        <ele>330</ele>
        <time>2022-05-23 17:26:23</time>
      </trkpt>
      <trkpt lat="41.72197" lon="0.98268">
        <ele>330</ele>
        <time>2022-05-23 17:26:24</time>
      </trkpt>
      <trkpt lat="41.72191" lon="0.98268">
        <ele>330.2</ele>
        <time>2022-05-23 17:26:25</time>
      </trkpt>
      <trkpt lat="41.72185" lon="0.98269">
        <ele>330.2</ele>
        <time>2022-05-23 17:26:26</time>
      </trkpt>
      <trkpt lat="41.72179" lon="0.98269">
        <ele>330.2</ele>
        <time>2022-05-23 17:26:27</time>
      </trkpt>
      <trkpt lat="41.72173" lon="0.98269">
        <ele>330</ele>
        <time>2022-05-23 17:26:28</time>
      </trkpt>
      <trkpt lat="41.72168" lon="0.98269">
        <ele>330</ele>
        <time>2022-05-23 17:26:29</time>
      </trkpt>
      <trkpt lat="41.72162" lon="0.98269">
        <ele>330</ele>
        <time>2022-05-23 17:26:30</time>
      </trkpt>
      <trkpt lat="41.72156" lon="0.98269">
        <ele>329.8</ele>
        <time>2022-05-23 17:26:31</time>
      </trkpt>
      <trkpt lat="41.72151" lon="0.9827">
        <ele>329.8</ele>
        <time>2022-05-23 17:26:32</time>
      </trkpt>
      <trkpt lat="41.72145" lon="0.9827">
        <ele>329.8</ele>
        <time>2022-05-23 17:26:33</time>
      </trkpt>
      <trkpt lat="41.72139" lon="0.98269">
        <ele>329.8</ele>
        <time>2022-05-23 17:26:34</time>
      </trkpt>
      <trkpt lat="41.72133" lon="0.9827">
        <ele>329.8</ele>
        <time>2022-05-23 17:26:35</time>
      </trkpt>
      <trkpt lat="41.72128" lon="0.9827">
        <ele>329.6</ele>
        <time>2022-05-23 17:26:36</time>
      </trkpt>
      <trkpt lat="41.72122" lon="0.9827">
        <ele>329.6</ele>
        <time>2022-05-23 17:26:37</time>
      </trkpt>
      <trkpt lat="41.72117" lon="0.9827">
        <ele>329.8</ele>
        <time>2022-05-23 17:26:38</time>
      </trkpt>
      <trkpt lat="41.72111" lon="0.9827">
        <ele>329.8</ele>
        <time>2022-05-23 17:26:39</time>
      </trkpt>
      <trkpt lat="41.72105" lon="0.9827">
        <ele>329.8</ele>
        <time>2022-05-23 17:26:40</time>
      </trkpt>
      <trkpt lat="41.721" lon="0.9827">
        <ele>329.8</ele>
        <time>2022-05-23 17:26:41</time>
      </trkpt>
      <trkpt lat="41.72094" lon="0.98271">
        <ele>329.6</ele>
        <time>2022-05-23 17:26:42</time>
      </trkpt>
      <trkpt lat="41.72089" lon="0.98271">
        <ele>329.6</ele>
        <time>2022-05-23 17:26:43</time>
      </trkpt>
      <trkpt lat="41.72084" lon="0.98271">
        <ele>329.6</ele>
        <time>2022-05-23 17:26:44</time>
      </trkpt>
      <trkpt lat="41.72078" lon="0.98271">
        <ele>329.6</ele>
        <time>2022-05-23 17:26:45</time>
      </trkpt>
      <trkpt lat="41.72073" lon="0.98272">
        <ele>329.6</ele>
        <time>2022-05-23 17:26:46</time>
      </trkpt>
      <trkpt lat="41.72068" lon="0.98272">
        <ele>329.8</ele>
        <time>2022-05-23 17:26:47</time>
      </trkpt>
      <trkpt lat="41.72062" lon="0.98272">
        <ele>329.8</ele>
        <time>2022-05-23 17:26:48</time>
      </trkpt>
      <trkpt lat="41.72057" lon="0.98272">
        <ele>329.8</ele>
        <time>2022-05-23 17:26:49</time>
      </trkpt>
      <trkpt lat="41.72052" lon="0.98272">
        <ele>330</ele>
        <time>2022-05-23 17:26:50</time>
      </trkpt>
      <trkpt lat="41.72046" lon="0.98272">
        <ele>330</ele>
        <time>2022-05-23 17:26:51</time>
      </trkpt>
      <trkpt lat="41.72041" lon="0.98272">
        <ele>330</ele>
        <time>2022-05-23 17:26:52</time>
      </trkpt>
      <trkpt lat="41.72036" lon="0.98272">
        <ele>330</ele>
        <time>2022-05-23 17:26:53</time>
      </trkpt>
      <trkpt lat="41.72031" lon="0.98273">
        <ele>330</ele>
        <time>2022-05-23 17:26:54</time>
      </trkpt>
      <trkpt lat="41.72025" lon="0.98273">
        <ele>330.2</ele>
        <time>2022-05-23 17:26:55</time>
      </trkpt>
      <trkpt lat="41.7202" lon="0.98273">
        <ele>330.4</ele>
        <time>2022-05-23 17:26:56</time>
      </trkpt>
      <trkpt lat="41.72015" lon="0.98273">
        <ele>330.4</ele>
        <time>2022-05-23 17:26:57</time>
      </trkpt>
      <trkpt lat="41.72009" lon="0.98273">
        <ele>330.4</ele>
        <time>2022-05-23 17:26:58</time>
      </trkpt>
      <trkpt lat="41.72004" lon="0.98273">
        <ele>330.4</ele>
        <time>2022-05-23 17:26:59</time>
      </trkpt>
      <trkpt lat="41.71998" lon="0.98273">
        <ele>330.4</ele>
        <time>2022-05-23 17:27:00</time>
      </trkpt>
      <trkpt lat="41.71993" lon="0.98273">
        <ele>330.4</ele>
        <time>2022-05-23 17:27:01</time>
      </trkpt>
      <trkpt lat="41.71988" lon="0.98273">
        <ele>330.4</ele>
        <time>2022-05-23 17:27:02</time>
      </trkpt>
      <trkpt lat="41.71982" lon="0.98273">
        <ele>330.2</ele>
        <time>2022-05-23 17:27:03</time>
      </trkpt>
      <trkpt lat="41.71977" lon="0.98274">
        <ele>330.2</ele>
        <time>2022-05-23 17:27:04</time>
      </trkpt>
      <trkpt lat="41.71971" lon="0.98274">
        <ele>330</ele>
        <time>2022-05-23 17:27:05</time>
      </trkpt>
      <trkpt lat="41.71966" lon="0.98274">
        <ele>330</ele>
        <time>2022-05-23 17:27:06</time>
      </trkpt>
      <trkpt lat="41.71961" lon="0.98274">
        <ele>330</ele>
        <time>2022-05-23 17:27:07</time>
      </trkpt>
      <trkpt lat="41.71955" lon="0.98274">
        <ele>330</ele>
        <time>2022-05-23 17:27:08</time>
      </trkpt>
      <trkpt lat="41.7195" lon="0.98273">
        <ele>330.2</ele>
        <time>2022-05-23 17:27:09</time>
      </trkpt>
      <trkpt lat="41.71945" lon="0.98273">
        <ele>330.4</ele>
        <time>2022-05-23 17:27:10</time>
      </trkpt>
      <trkpt lat="41.71939" lon="0.98273">
        <ele>330.4</ele>
        <time>2022-05-23 17:27:11</time>
      </trkpt>
      <trkpt lat="41.71934" lon="0.98273">
        <ele>330.4</ele>
        <time>2022-05-23 17:27:12</time>
      </trkpt>
      <trkpt lat="41.71929" lon="0.98273">
        <ele>330.6</ele>
        <time>2022-05-23 17:27:13</time>
      </trkpt>
      <trkpt lat="41.71923" lon="0.98273">
        <ele>330.6</ele>
        <time>2022-05-23 17:27:14</time>
      </trkpt>
      <trkpt lat="41.71918" lon="0.98273">
        <ele>330.6</ele>
        <time>2022-05-23 17:27:15</time>
      </trkpt>
      <trkpt lat="41.71913" lon="0.98273">
        <ele>330.6</ele>
        <time>2022-05-23 17:27:16</time>
      </trkpt>
      <trkpt lat="41.71908" lon="0.98272">
        <ele>330.6</ele>
        <time>2022-05-23 17:27:17</time>
      </trkpt>
      <trkpt lat="41.71904" lon="0.98272">
        <ele>330.6</ele>
        <time>2022-05-23 17:27:18</time>
      </trkpt>
      <trkpt lat="41.71897" lon="0.9827">
        <ele>330.6</ele>
        <time>2022-05-23 17:27:19</time>
      </trkpt>
      <trkpt lat="41.71892" lon="0.98269">
        <ele>330.6</ele>
        <time>2022-05-23 17:27:20</time>
      </trkpt>
      <trkpt lat="41.71886" lon="0.9827">
        <ele>330.8</ele>
        <time>2022-05-23 17:27:21</time>
      </trkpt>
      <trkpt lat="41.7188" lon="0.9827">
        <ele>330.8</ele>
        <time>2022-05-23 17:27:22</time>
      </trkpt>
      <trkpt lat="41.71874" lon="0.98269">
        <ele>330.8</ele>
        <time>2022-05-23 17:27:23</time>
      </trkpt>
      <trkpt lat="41.71869" lon="0.98268">
        <ele>331</ele>
        <time>2022-05-23 17:27:24</time>
      </trkpt>
      <trkpt lat="41.71863" lon="0.98268">
        <ele>331</ele>
        <time>2022-05-23 17:27:25</time>
      </trkpt>
      <trkpt lat="41.71858" lon="0.98267">
        <ele>331</ele>
        <time>2022-05-23 17:27:26</time>
      </trkpt>
      <trkpt lat="41.71852" lon="0.98267">
        <ele>331</ele>
        <time>2022-05-23 17:27:27</time>
      </trkpt>
      <trkpt lat="41.71847" lon="0.98267">
        <ele>331</ele>
        <time>2022-05-23 17:27:28</time>
      </trkpt>
      <trkpt lat="41.71841" lon="0.98266">
        <ele>331</ele>
        <time>2022-05-23 17:27:29</time>
      </trkpt>
      <trkpt lat="41.71836" lon="0.98266">
        <ele>331</ele>
        <time>2022-05-23 17:27:30</time>
      </trkpt>
      <trkpt lat="41.71831" lon="0.98266">
        <ele>331</ele>
        <time>2022-05-23 17:27:31</time>
      </trkpt>
      <trkpt lat="41.71825" lon="0.98265">
        <ele>331</ele>
        <time>2022-05-23 17:27:32</time>
      </trkpt>
      <trkpt lat="41.7182" lon="0.98265">
        <ele>331.2</ele>
        <time>2022-05-23 17:27:33</time>
      </trkpt>
      <trkpt lat="41.71815" lon="0.98264">
        <ele>331.2</ele>
        <time>2022-05-23 17:27:34</time>
      </trkpt>
      <trkpt lat="41.7181" lon="0.98264">
        <ele>331.2</ele>
        <time>2022-05-23 17:27:35</time>
      </trkpt>
      <trkpt lat="41.71805" lon="0.98264">
        <ele>331.2</ele>
        <time>2022-05-23 17:27:36</time>
      </trkpt>
      <trkpt lat="41.718" lon="0.98263">
        <ele>331.2</ele>
        <time>2022-05-23 17:27:37</time>
      </trkpt>
      <trkpt lat="41.71795" lon="0.98263">
        <ele>331.2</ele>
        <time>2022-05-23 17:27:38</time>
      </trkpt>
      <trkpt lat="41.71791" lon="0.98263">
        <ele>331.2</ele>
        <time>2022-05-23 17:27:39</time>
      </trkpt>
      <trkpt lat="41.71785" lon="0.98263">
        <ele>331.2</ele>
        <time>2022-05-23 17:27:40</time>
      </trkpt>
      <trkpt lat="41.7178" lon="0.98263">
        <ele>331.2</ele>
        <time>2022-05-23 17:27:41</time>
      </trkpt>
      <trkpt lat="41.71774" lon="0.98262">
        <ele>331.2</ele>
        <time>2022-05-23 17:27:42</time>
      </trkpt>
      <trkpt lat="41.71769" lon="0.98261">
        <ele>331.4</ele>
        <time>2022-05-23 17:27:43</time>
      </trkpt>
      <trkpt lat="41.71763" lon="0.9826">
        <ele>331.4</ele>
        <time>2022-05-23 17:27:44</time>
      </trkpt>
      <trkpt lat="41.71757" lon="0.9826">
        <ele>331.4</ele>
        <time>2022-05-23 17:27:45</time>
      </trkpt>
      <trkpt lat="41.7175" lon="0.98259">
        <ele>331.2</ele>
        <time>2022-05-23 17:27:46</time>
      </trkpt>
      <trkpt lat="41.71744" lon="0.98258">
        <ele>331.2</ele>
        <time>2022-05-23 17:27:47</time>
      </trkpt>
      <trkpt lat="41.71738" lon="0.98258">
        <ele>331.2</ele>
        <time>2022-05-23 17:27:48</time>
      </trkpt>
      <trkpt lat="41.71731" lon="0.98257">
        <ele>331</ele>
        <time>2022-05-23 17:27:49</time>
      </trkpt>
      <trkpt lat="41.71726" lon="0.98257">
        <ele>331</ele>
        <time>2022-05-23 17:27:50</time>
      </trkpt>
      <trkpt lat="41.71719" lon="0.98256">
        <ele>331.2</ele>
        <time>2022-05-23 17:27:51</time>
      </trkpt>
      <trkpt lat="41.71714" lon="0.98256">
        <ele>331.2</ele>
        <time>2022-05-23 17:27:52</time>
      </trkpt>
      <trkpt lat="41.71707" lon="0.98255">
        <ele>331.2</ele>
        <time>2022-05-23 17:27:53</time>
      </trkpt>
      <trkpt lat="41.71702" lon="0.98254">
        <ele>331.2</ele>
        <time>2022-05-23 17:27:54</time>
      </trkpt>
      <trkpt lat="41.71695" lon="0.98254">
        <ele>331.2</ele>
        <time>2022-05-23 17:27:55</time>
      </trkpt>
      <trkpt lat="41.7169" lon="0.98253">
        <ele>331.4</ele>
        <time>2022-05-23 17:27:56</time>
      </trkpt>
      <trkpt lat="41.71685" lon="0.98253">
        <ele>331.4</ele>
        <time>2022-05-23 17:27:57</time>
      </trkpt>
      <trkpt lat="41.71679" lon="0.98253">
        <ele>331.6</ele>
        <time>2022-05-23 17:27:58</time>
      </trkpt>
      <trkpt lat="41.71674" lon="0.98253">
        <ele>331.6</ele>
        <time>2022-05-23 17:27:59</time>
      </trkpt>
      <trkpt lat="41.71669" lon="0.98252">
        <ele>331.6</ele>
        <time>2022-05-23 17:28:00</time>
      </trkpt>
      <trkpt lat="41.71663" lon="0.98252">
        <ele>331.6</ele>
        <time>2022-05-23 17:28:01</time>
      </trkpt>
      <trkpt lat="41.71658" lon="0.98251">
        <ele>331.6</ele>
        <time>2022-05-23 17:28:02</time>
      </trkpt>
      <trkpt lat="41.71652" lon="0.98251">
        <ele>331.6</ele>
        <time>2022-05-23 17:28:03</time>
      </trkpt>
      <trkpt lat="41.71647" lon="0.98251">
        <ele>331.6</ele>
        <time>2022-05-23 17:28:04</time>
      </trkpt>
      <trkpt lat="41.71641" lon="0.9825">
        <ele>331.6</ele>
        <time>2022-05-23 17:28:05</time>
      </trkpt>
      <trkpt lat="41.71636" lon="0.9825">
        <ele>331.6</ele>
        <time>2022-05-23 17:28:06</time>
      </trkpt>
      <trkpt lat="41.71631" lon="0.9825">
        <ele>331.6</ele>
        <time>2022-05-23 17:28:07</time>
      </trkpt>
      <trkpt lat="41.71626" lon="0.9825">
        <ele>331.6</ele>
        <time>2022-05-23 17:28:08</time>
      </trkpt>
      <trkpt lat="41.7162" lon="0.98249">
        <ele>331.8</ele>
        <time>2022-05-23 17:28:09</time>
      </trkpt>
      <trkpt lat="41.71615" lon="0.98248">
        <ele>331.8</ele>
        <time>2022-05-23 17:28:10</time>
      </trkpt>
      <trkpt lat="41.71609" lon="0.98248">
        <ele>331.8</ele>
        <time>2022-05-23 17:28:11</time>
      </trkpt>
      <trkpt lat="41.71604" lon="0.98247">
        <ele>331.8</ele>
        <time>2022-05-23 17:28:12</time>
      </trkpt>
      <trkpt lat="41.71599" lon="0.98247">
        <ele>332</ele>
        <time>2022-05-23 17:28:13</time>
      </trkpt>
      <trkpt lat="41.71594" lon="0.98247">
        <ele>332</ele>
        <time>2022-05-23 17:28:14</time>
      </trkpt>
      <trkpt lat="41.71588" lon="0.98246">
        <ele>332</ele>
        <time>2022-05-23 17:28:15</time>
      </trkpt>
      <trkpt lat="41.71583" lon="0.98246">
        <ele>331.8</ele>
        <time>2022-05-23 17:28:16</time>
      </trkpt>
      <trkpt lat="41.71577" lon="0.98245">
        <ele>331.8</ele>
        <time>2022-05-23 17:28:17</time>
      </trkpt>
      <trkpt lat="41.71573" lon="0.98245">
        <ele>331.8</ele>
        <time>2022-05-23 17:28:18</time>
      </trkpt>
      <trkpt lat="41.71567" lon="0.98245">
        <ele>331.8</ele>
        <time>2022-05-23 17:28:19</time>
      </trkpt>
      <trkpt lat="41.71562" lon="0.98245">
        <ele>331.8</ele>
        <time>2022-05-23 17:28:20</time>
      </trkpt>
      <trkpt lat="41.71557" lon="0.98244">
        <ele>331.8</ele>
        <time>2022-05-23 17:28:21</time>
      </trkpt>
      <trkpt lat="41.71552" lon="0.98244">
        <ele>331.8</ele>
        <time>2022-05-23 17:28:22</time>
      </trkpt>
      <trkpt lat="41.71546" lon="0.98244">
        <ele>332</ele>
        <time>2022-05-23 17:28:23</time>
      </trkpt>
      <trkpt lat="41.71541" lon="0.98244">
        <ele>332</ele>
        <time>2022-05-23 17:28:24</time>
      </trkpt>
      <trkpt lat="41.71536" lon="0.98244">
        <ele>332</ele>
        <time>2022-05-23 17:28:25</time>
      </trkpt>
      <trkpt lat="41.71532" lon="0.98244">
        <ele>332</ele>
        <time>2022-05-23 17:28:26</time>
      </trkpt>
      <trkpt lat="41.71526" lon="0.98243">
        <ele>332.2</ele>
        <time>2022-05-23 17:28:27</time>
      </trkpt>
      <trkpt lat="41.71521" lon="0.98243">
        <ele>332.2</ele>
        <time>2022-05-23 17:28:28</time>
      </trkpt>
      <trkpt lat="41.71516" lon="0.98242">
        <ele>332.2</ele>
        <time>2022-05-23 17:28:29</time>
      </trkpt>
      <trkpt lat="41.71512" lon="0.98242">
        <ele>332.2</ele>
        <time>2022-05-23 17:28:30</time>
      </trkpt>
      <trkpt lat="41.71506" lon="0.98241">
        <ele>332.4</ele>
        <time>2022-05-23 17:28:31</time>
      </trkpt>
      <trkpt lat="41.71501" lon="0.98241">
        <ele>332.4</ele>
        <time>2022-05-23 17:28:32</time>
      </trkpt>
      <trkpt lat="41.71496" lon="0.98241">
        <ele>332.4</ele>
        <time>2022-05-23 17:28:33</time>
      </trkpt>
      <trkpt lat="41.71491" lon="0.98241">
        <ele>332.4</ele>
        <time>2022-05-23 17:28:34</time>
      </trkpt>
      <trkpt lat="41.71486" lon="0.98241">
        <ele>332.4</ele>
        <time>2022-05-23 17:28:35</time>
      </trkpt>
      <trkpt lat="41.71481" lon="0.9824">
        <ele>332.6</ele>
        <time>2022-05-23 17:28:36</time>
      </trkpt>
      <trkpt lat="41.71475" lon="0.9824">
        <ele>332.8</ele>
        <time>2022-05-23 17:28:37</time>
      </trkpt>
      <trkpt lat="41.7147" lon="0.9824">
        <ele>332.8</ele>
        <time>2022-05-23 17:28:38</time>
      </trkpt>
      <trkpt lat="41.71465" lon="0.98239">
        <ele>332.8</ele>
        <time>2022-05-23 17:28:39</time>
      </trkpt>
      <trkpt lat="41.7146" lon="0.98239">
        <ele>333</ele>
        <time>2022-05-23 17:28:40</time>
      </trkpt>
      <trkpt lat="41.71455" lon="0.98239">
        <ele>332.8</ele>
        <time>2022-05-23 17:28:41</time>
      </trkpt>
      <trkpt lat="41.71451" lon="0.98239">
        <ele>332.8</ele>
        <time>2022-05-23 17:28:42</time>
      </trkpt>
      <trkpt lat="41.71446" lon="0.98238">
        <ele>333</ele>
        <time>2022-05-23 17:28:43</time>
      </trkpt>
      <trkpt lat="41.71441" lon="0.98238">
        <ele>333</ele>
        <time>2022-05-23 17:28:44</time>
      </trkpt>
      <trkpt lat="41.71436" lon="0.98238">
        <ele>333.2</ele>
        <time>2022-05-23 17:28:45</time>
      </trkpt>
      <trkpt lat="41.71432" lon="0.98238">
        <ele>333.2</ele>
        <time>2022-05-23 17:28:46</time>
      </trkpt>
      <trkpt lat="41.71427" lon="0.98238">
        <ele>333.2</ele>
        <time>2022-05-23 17:28:47</time>
      </trkpt>
      <trkpt lat="41.71423" lon="0.98238">
        <ele>333.2</ele>
        <time>2022-05-23 17:28:48</time>
      </trkpt>
      <trkpt lat="41.71417" lon="0.98237">
        <ele>333.2</ele>
        <time>2022-05-23 17:28:49</time>
      </trkpt>
      <trkpt lat="41.71414" lon="0.98237">
        <ele>333.2</ele>
        <time>2022-05-23 17:28:50</time>
      </trkpt>
      <trkpt lat="41.71408" lon="0.98236">
        <ele>333.2</ele>
        <time>2022-05-23 17:28:51</time>
      </trkpt>
      <trkpt lat="41.71403" lon="0.98236">
        <ele>333.2</ele>
        <time>2022-05-23 17:28:52</time>
      </trkpt>
      <trkpt lat="41.71398" lon="0.98236">
        <ele>333.2</ele>
        <time>2022-05-23 17:28:53</time>
      </trkpt>
      <trkpt lat="41.71393" lon="0.98236">
        <ele>333.2</ele>
        <time>2022-05-23 17:28:54</time>
      </trkpt>
      <trkpt lat="41.71388" lon="0.98236">
        <ele>333.4</ele>
        <time>2022-05-23 17:28:55</time>
      </trkpt>
      <trkpt lat="41.71383" lon="0.98236">
        <ele>333.4</ele>
        <time>2022-05-23 17:28:56</time>
      </trkpt>
      <trkpt lat="41.71378" lon="0.98235">
        <ele>333.4</ele>
        <time>2022-05-23 17:28:57</time>
      </trkpt>
      <trkpt lat="41.71374" lon="0.98235">
        <ele>333.4</ele>
        <time>2022-05-23 17:28:58</time>
      </trkpt>
      <trkpt lat="41.71368" lon="0.98235">
        <ele>333.6</ele>
        <time>2022-05-23 17:28:59</time>
      </trkpt>
      <trkpt lat="41.71364" lon="0.98235">
        <ele>333.6</ele>
        <time>2022-05-23 17:29:00</time>
      </trkpt>
      <trkpt lat="41.71359" lon="0.98235">
        <ele>333.6</ele>
        <time>2022-05-23 17:29:01</time>
      </trkpt>
      <trkpt lat="41.71355" lon="0.98235">
        <ele>333.6</ele>
        <time>2022-05-23 17:29:02</time>
      </trkpt>
      <trkpt lat="41.71349" lon="0.98234">
        <ele>333.6</ele>
        <time>2022-05-23 17:29:03</time>
      </trkpt>
      <trkpt lat="41.71346" lon="0.98234">
        <ele>333.4</ele>
        <time>2022-05-23 17:29:04</time>
      </trkpt>
      <trkpt lat="41.7134" lon="0.98233">
        <ele>333.4</ele>
        <time>2022-05-23 17:29:05</time>
      </trkpt>
      <trkpt lat="41.71335" lon="0.98233">
        <ele>333.4</ele>
        <time>2022-05-23 17:29:06</time>
      </trkpt>
      <trkpt lat="41.7133" lon="0.98232">
        <ele>333.4</ele>
        <time>2022-05-23 17:29:07</time>
      </trkpt>
      <trkpt lat="41.71326" lon="0.98232">
        <ele>333.4</ele>
        <time>2022-05-23 17:29:08</time>
      </trkpt>
      <trkpt lat="41.71321" lon="0.98232">
        <ele>333.4</ele>
        <time>2022-05-23 17:29:09</time>
      </trkpt>
      <trkpt lat="41.71317" lon="0.98232">
        <ele>333.6</ele>
        <time>2022-05-23 17:29:10</time>
      </trkpt>
      <trkpt lat="41.71311" lon="0.98232">
        <ele>333.6</ele>
        <time>2022-05-23 17:29:11</time>
      </trkpt>
      <trkpt lat="41.71307" lon="0.98232">
        <ele>333.6</ele>
        <time>2022-05-23 17:29:12</time>
      </trkpt>
      <trkpt lat="41.71301" lon="0.98231">
        <ele>333.6</ele>
        <time>2022-05-23 17:29:13</time>
      </trkpt>
      <trkpt lat="41.71297" lon="0.98231">
        <ele>333.6</ele>
        <time>2022-05-23 17:29:14</time>
      </trkpt>
      <trkpt lat="41.71292" lon="0.98231">
        <ele>333.6</ele>
        <time>2022-05-23 17:29:15</time>
      </trkpt>
      <trkpt lat="41.71288" lon="0.98231">
        <ele>333.6</ele>
        <time>2022-05-23 17:29:16</time>
      </trkpt>
      <trkpt lat="41.71283" lon="0.98231">
        <ele>333.6</ele>
        <time>2022-05-23 17:29:17</time>
      </trkpt>
      <trkpt lat="41.71279" lon="0.9823">
        <ele>333.6</ele>
        <time>2022-05-23 17:29:18</time>
      </trkpt>
      <trkpt lat="41.71273" lon="0.9823">
        <ele>333.6</ele>
        <time>2022-05-23 17:29:19</time>
      </trkpt>
      <trkpt lat="41.71269" lon="0.9823">
        <ele>333.6</ele>
        <time>2022-05-23 17:29:20</time>
      </trkpt>
      <trkpt lat="41.71264" lon="0.9823">
        <ele>333.8</ele>
        <time>2022-05-23 17:29:21</time>
      </trkpt>
      <trkpt lat="41.7126" lon="0.98229">
        <ele>333.8</ele>
        <time>2022-05-23 17:29:22</time>
      </trkpt>
      <trkpt lat="41.71254" lon="0.98229">
        <ele>334</ele>
        <time>2022-05-23 17:29:23</time>
      </trkpt>
      <trkpt lat="41.7125" lon="0.98229">
        <ele>334</ele>
        <time>2022-05-23 17:29:24</time>
      </trkpt>
      <trkpt lat="41.71245" lon="0.98229">
        <ele>334</ele>
        <time>2022-05-23 17:29:25</time>
      </trkpt>
      <trkpt lat="41.7124" lon="0.98228">
        <ele>334.2</ele>
        <time>2022-05-23 17:29:26</time>
      </trkpt>
      <trkpt lat="41.71235" lon="0.98228">
        <ele>334.2</ele>
        <time>2022-05-23 17:29:27</time>
      </trkpt>
      <trkpt lat="41.71231" lon="0.98228">
        <ele>334.4</ele>
        <time>2022-05-23 17:29:28</time>
      </trkpt>
      <trkpt lat="41.71225" lon="0.98228">
        <ele>334.4</ele>
        <time>2022-05-23 17:29:29</time>
      </trkpt>
      <trkpt lat="41.71221" lon="0.98227">
        <ele>334.4</ele>
        <time>2022-05-23 17:29:30</time>
      </trkpt>
      <trkpt lat="41.71216" lon="0.98227">
        <ele>334.4</ele>
        <time>2022-05-23 17:29:31</time>
      </trkpt>
      <trkpt lat="41.71212" lon="0.98227">
        <ele>334.4</ele>
        <time>2022-05-23 17:29:32</time>
      </trkpt>
      <trkpt lat="41.71206" lon="0.98227">
        <ele>334.4</ele>
        <time>2022-05-23 17:29:33</time>
      </trkpt>
      <trkpt lat="41.71202" lon="0.98227">
        <ele>334.4</ele>
        <time>2022-05-23 17:29:34</time>
      </trkpt>
      <trkpt lat="41.71197" lon="0.98226">
        <ele>334.2</ele>
        <time>2022-05-23 17:29:35</time>
      </trkpt>
      <trkpt lat="41.71192" lon="0.98226">
        <ele>334.2</ele>
        <time>2022-05-23 17:29:36</time>
      </trkpt>
      <trkpt lat="41.71186" lon="0.98226">
        <ele>334</ele>
        <time>2022-05-23 17:29:37</time>
      </trkpt>
      <trkpt lat="41.71182" lon="0.98226">
        <ele>334</ele>
        <time>2022-05-23 17:29:38</time>
      </trkpt>
      <trkpt lat="41.71176" lon="0.98225">
        <ele>333.8</ele>
        <time>2022-05-23 17:29:39</time>
      </trkpt>
      <trkpt lat="41.71172" lon="0.98225">
        <ele>333.8</ele>
        <time>2022-05-23 17:29:40</time>
      </trkpt>
      <trkpt lat="41.71167" lon="0.98225">
        <ele>333.8</ele>
        <time>2022-05-23 17:29:41</time>
      </trkpt>
      <trkpt lat="41.71162" lon="0.98224">
        <ele>333.8</ele>
        <time>2022-05-23 17:29:42</time>
      </trkpt>
      <trkpt lat="41.71157" lon="0.98224">
        <ele>333.8</ele>
        <time>2022-05-23 17:29:43</time>
      </trkpt>
      <trkpt lat="41.71154" lon="0.98224">
        <ele>333.8</ele>
        <time>2022-05-23 17:29:44</time>
      </trkpt>
      <trkpt lat="41.71147" lon="0.98224">
        <ele>333.8</ele>
        <time>2022-05-23 17:29:45</time>
      </trkpt>
      <trkpt lat="41.71144" lon="0.98224">
        <ele>333.8</ele>
        <time>2022-05-23 17:29:46</time>
      </trkpt>
      <trkpt lat="41.71138" lon="0.98223">
        <ele>334</ele>
        <time>2022-05-23 17:29:47</time>
      </trkpt>
      <trkpt lat="41.71135" lon="0.98223">
        <ele>334</ele>
        <time>2022-05-23 17:29:48</time>
      </trkpt>
      <trkpt lat="41.71129" lon="0.98223">
        <ele>334</ele>
        <time>2022-05-23 17:29:49</time>
      </trkpt>
      <trkpt lat="41.71125" lon="0.98223">
        <ele>334</ele>
        <time>2022-05-23 17:29:50</time>
      </trkpt>
      <trkpt lat="41.7112" lon="0.98223">
        <ele>334</ele>
        <time>2022-05-23 17:29:51</time>
      </trkpt>
      <trkpt lat="41.71116" lon="0.98223">
        <ele>334</ele>
        <time>2022-05-23 17:29:52</time>
      </trkpt>
      <trkpt lat="41.71111" lon="0.98223">
        <ele>334.2</ele>
        <time>2022-05-23 17:29:53</time>
      </trkpt>
      <trkpt lat="41.71107" lon="0.98223">
        <ele>334.4</ele>
        <time>2022-05-23 17:29:54</time>
      </trkpt>
      <trkpt lat="41.71102" lon="0.98223">
        <ele>334.6</ele>
        <time>2022-05-23 17:29:55</time>
      </trkpt>
      <trkpt lat="41.71098" lon="0.98224">
        <ele>334.8</ele>
        <time>2022-05-23 17:29:56</time>
      </trkpt>
      <trkpt lat="41.71093" lon="0.98224">
        <ele>335</ele>
        <time>2022-05-23 17:29:57</time>
      </trkpt>
      <trkpt lat="41.71088" lon="0.98225">
        <ele>335</ele>
        <time>2022-05-23 17:29:58</time>
      </trkpt>
      <trkpt lat="41.71084" lon="0.98226">
        <ele>335</ele>
        <time>2022-05-23 17:29:59</time>
      </trkpt>
      <trkpt lat="41.7108" lon="0.98227">
        <ele>335</ele>
        <time>2022-05-23 17:30:00</time>
      </trkpt>
      <trkpt lat="41.71074" lon="0.98229">
        <ele>335</ele>
        <time>2022-05-23 17:30:01</time>
      </trkpt>
      <trkpt lat="41.7107" lon="0.9823">
        <ele>335</ele>
        <time>2022-05-23 17:30:02</time>
      </trkpt>
      <trkpt lat="41.71065" lon="0.98232">
        <ele>335</ele>
        <time>2022-05-23 17:30:03</time>
      </trkpt>
      <trkpt lat="41.71061" lon="0.98234">
        <ele>335</ele>
        <time>2022-05-23 17:30:04</time>
      </trkpt>
      <trkpt lat="41.71056" lon="0.98236">
        <ele>335</ele>
        <time>2022-05-23 17:30:05</time>
      </trkpt>
      <trkpt lat="41.71052" lon="0.98237">
        <ele>334.8</ele>
        <time>2022-05-23 17:30:06</time>
      </trkpt>
      <trkpt lat="41.71046" lon="0.98239">
        <ele>334.6</ele>
        <time>2022-05-23 17:30:07</time>
      </trkpt>
      <trkpt lat="41.71042" lon="0.98241">
        <ele>334.6</ele>
        <time>2022-05-23 17:30:08</time>
      </trkpt>
      <trkpt lat="41.71036" lon="0.98243">
        <ele>334.6</ele>
        <time>2022-05-23 17:30:09</time>
      </trkpt>
      <trkpt lat="41.71033" lon="0.98244">
        <ele>334.6</ele>
        <time>2022-05-23 17:30:10</time>
      </trkpt>
      <trkpt lat="41.71028" lon="0.98246">
        <ele>334.6</ele>
        <time>2022-05-23 17:30:11</time>
      </trkpt>
      <trkpt lat="41.71022" lon="0.98248">
        <ele>334.6</ele>
        <time>2022-05-23 17:30:12</time>
      </trkpt>
      <trkpt lat="41.71017" lon="0.9825">
        <ele>334.6</ele>
        <time>2022-05-23 17:30:13</time>
      </trkpt>
      <trkpt lat="41.71012" lon="0.98252">
        <ele>334.6</ele>
        <time>2022-05-23 17:30:14</time>
      </trkpt>
      <trkpt lat="41.71008" lon="0.98254">
        <ele>334.6</ele>
        <time>2022-05-23 17:30:15</time>
      </trkpt>
      <trkpt lat="41.71003" lon="0.98256">
        <ele>334.6</ele>
        <time>2022-05-23 17:30:16</time>
      </trkpt>
      <trkpt lat="41.70998" lon="0.98258">
        <ele>334.6</ele>
        <time>2022-05-23 17:30:17</time>
      </trkpt>
      <trkpt lat="41.70994" lon="0.98259">
        <ele>334.6</ele>
        <time>2022-05-23 17:30:18</time>
      </trkpt>
      <trkpt lat="41.70989" lon="0.98261">
        <ele>334.6</ele>
        <time>2022-05-23 17:30:19</time>
      </trkpt>
      <trkpt lat="41.70984" lon="0.98263">
        <ele>334.6</ele>
        <time>2022-05-23 17:30:20</time>
      </trkpt>
      <trkpt lat="41.70979" lon="0.98265">
        <ele>334.6</ele>
        <time>2022-05-23 17:30:21</time>
      </trkpt>
      <trkpt lat="41.70974" lon="0.98266">
        <ele>334.8</ele>
        <time>2022-05-23 17:30:22</time>
      </trkpt>
      <trkpt lat="41.70969" lon="0.98268">
        <ele>334.8</ele>
        <time>2022-05-23 17:30:23</time>
      </trkpt>
      <trkpt lat="41.70965" lon="0.98269">
        <ele>334.8</ele>
        <time>2022-05-23 17:30:24</time>
      </trkpt>
      <trkpt lat="41.7096" lon="0.9827">
        <ele>335</ele>
        <time>2022-05-23 17:30:25</time>
      </trkpt>
      <trkpt lat="41.70955" lon="0.98272">
        <ele>334.8</ele>
        <time>2022-05-23 17:30:26</time>
      </trkpt>
      <trkpt lat="41.7095" lon="0.98273">
        <ele>335</ele>
        <time>2022-05-23 17:30:27</time>
      </trkpt>
      <trkpt lat="41.70945" lon="0.98274">
        <ele>335</ele>
        <time>2022-05-23 17:30:28</time>
      </trkpt>
      <trkpt lat="41.7094" lon="0.98275">
        <ele>335.2</ele>
        <time>2022-05-23 17:30:29</time>
      </trkpt>
      <trkpt lat="41.70936" lon="0.98275">
        <ele>335</ele>
        <time>2022-05-23 17:30:30</time>
      </trkpt>
      <trkpt lat="41.70931" lon="0.98276">
        <ele>335.2</ele>
        <time>2022-05-23 17:30:31</time>
      </trkpt>
      <trkpt lat="41.70926" lon="0.98276">
        <ele>335.2</ele>
        <time>2022-05-23 17:30:32</time>
      </trkpt>
      <trkpt lat="41.70922" lon="0.98277">
        <ele>335.2</ele>
        <time>2022-05-23 17:30:33</time>
      </trkpt>
      <trkpt lat="41.70917" lon="0.98277">
        <ele>335.2</ele>
        <time>2022-05-23 17:30:34</time>
      </trkpt>
      <trkpt lat="41.70912" lon="0.98278">
        <ele>335.2</ele>
        <time>2022-05-23 17:30:35</time>
      </trkpt>
      <trkpt lat="41.70907" lon="0.98278">
        <ele>335.2</ele>
        <time>2022-05-23 17:30:36</time>
      </trkpt>
      <trkpt lat="41.70903" lon="0.98279">
        <ele>335.2</ele>
        <time>2022-05-23 17:30:37</time>
      </trkpt>
      <trkpt lat="41.70898" lon="0.98279">
        <ele>335.2</ele>
        <time>2022-05-23 17:30:38</time>
      </trkpt>
      <trkpt lat="41.70893" lon="0.98279">
        <ele>335.2</ele>
        <time>2022-05-23 17:30:39</time>
      </trkpt>
      <trkpt lat="41.70889" lon="0.98278">
        <ele>335.4</ele>
        <time>2022-05-23 17:30:40</time>
      </trkpt>
      <trkpt lat="41.70884" lon="0.98278">
        <ele>335.2</ele>
        <time>2022-05-23 17:30:41</time>
      </trkpt>
      <trkpt lat="41.70879" lon="0.98278">
        <ele>335.2</ele>
        <time>2022-05-23 17:30:42</time>
      </trkpt>
      <trkpt lat="41.70875" lon="0.98278">
        <ele>335.2</ele>
        <time>2022-05-23 17:30:43</time>
      </trkpt>
      <trkpt lat="41.7087" lon="0.98278">
        <ele>335.2</ele>
        <time>2022-05-23 17:30:44</time>
      </trkpt>
      <trkpt lat="41.70865" lon="0.98278">
        <ele>335.4</ele>
        <time>2022-05-23 17:30:45</time>
      </trkpt>
      <trkpt lat="41.7086" lon="0.98278">
        <ele>335.4</ele>
        <time>2022-05-23 17:30:46</time>
      </trkpt>
      <trkpt lat="41.70856" lon="0.98278">
        <ele>335.4</ele>
        <time>2022-05-23 17:30:47</time>
      </trkpt>
      <trkpt lat="41.70851" lon="0.98278">
        <ele>335.4</ele>
        <time>2022-05-23 17:30:48</time>
      </trkpt>
      <trkpt lat="41.70846" lon="0.98278">
        <ele>335.6</ele>
        <time>2022-05-23 17:30:49</time>
      </trkpt>
      <trkpt lat="41.70842" lon="0.98278">
        <ele>335.4</ele>
        <time>2022-05-23 17:30:50</time>
      </trkpt>
      <trkpt lat="41.70837" lon="0.98278">
        <ele>335.2</ele>
        <time>2022-05-23 17:30:51</time>
      </trkpt>
      <trkpt lat="41.70832" lon="0.98278">
        <ele>335.2</ele>
        <time>2022-05-23 17:30:52</time>
      </trkpt>
      <trkpt lat="41.70827" lon="0.98278">
        <ele>335.2</ele>
        <time>2022-05-23 17:30:53</time>
      </trkpt>
      <trkpt lat="41.70823" lon="0.98277">
        <ele>335.2</ele>
        <time>2022-05-23 17:30:54</time>
      </trkpt>
      <trkpt lat="41.70818" lon="0.98277">
        <ele>335.2</ele>
        <time>2022-05-23 17:30:55</time>
      </trkpt>
      <trkpt lat="41.70813" lon="0.98277">
        <ele>335.4</ele>
        <time>2022-05-23 17:30:56</time>
      </trkpt>
      <trkpt lat="41.70809" lon="0.98277">
        <ele>335.6</ele>
        <time>2022-05-23 17:30:57</time>
      </trkpt>
      <trkpt lat="41.70804" lon="0.98276">
        <ele>335.6</ele>
        <time>2022-05-23 17:30:58</time>
      </trkpt>
      <trkpt lat="41.70799" lon="0.98276">
        <ele>335.8</ele>
        <time>2022-05-23 17:30:59</time>
      </trkpt>
      <trkpt lat="41.70794" lon="0.98276">
        <ele>335.8</ele>
        <time>2022-05-23 17:31:00</time>
      </trkpt>
      <trkpt lat="41.70789" lon="0.98276">
        <ele>335.6</ele>
        <time>2022-05-23 17:31:01</time>
      </trkpt>
      <trkpt lat="41.70784" lon="0.98277">
        <ele>335.4</ele>
        <time>2022-05-23 17:31:02</time>
      </trkpt>
      <trkpt lat="41.70779" lon="0.98277">
        <ele>335.6</ele>
        <time>2022-05-23 17:31:03</time>
      </trkpt>
      <trkpt lat="41.70774" lon="0.98277">
        <ele>335.4</ele>
        <time>2022-05-23 17:31:04</time>
      </trkpt>
      <trkpt lat="41.70769" lon="0.98277">
        <ele>335.4</ele>
        <time>2022-05-23 17:31:05</time>
      </trkpt>
      <trkpt lat="41.70764" lon="0.98276">
        <ele>335.4</ele>
        <time>2022-05-23 17:31:06</time>
      </trkpt>
      <trkpt lat="41.70759" lon="0.98276">
        <ele>335.4</ele>
        <time>2022-05-23 17:31:07</time>
      </trkpt>
      <trkpt lat="41.70754" lon="0.98276">
        <ele>335.2</ele>
        <time>2022-05-23 17:31:08</time>
      </trkpt>
      <trkpt lat="41.70749" lon="0.98275">
        <ele>335.2</ele>
        <time>2022-05-23 17:31:09</time>
      </trkpt>
      <trkpt lat="41.70744" lon="0.98275">
        <ele>335.2</ele>
        <time>2022-05-23 17:31:10</time>
      </trkpt>
      <trkpt lat="41.70739" lon="0.98275">
        <ele>335.2</ele>
        <time>2022-05-23 17:31:11</time>
      </trkpt>
      <trkpt lat="41.70734" lon="0.98275">
        <ele>335.2</ele>
        <time>2022-05-23 17:31:12</time>
      </trkpt>
      <trkpt lat="41.70729" lon="0.98274">
        <ele>335.2</ele>
        <time>2022-05-23 17:31:13</time>
      </trkpt>
      <trkpt lat="41.70724" lon="0.98274">
        <ele>335.2</ele>
        <time>2022-05-23 17:31:14</time>
      </trkpt>
      <trkpt lat="41.7072" lon="0.98273">
        <ele>335.2</ele>
        <time>2022-05-23 17:31:15</time>
      </trkpt>
      <trkpt lat="41.70714" lon="0.98272">
        <ele>335.2</ele>
        <time>2022-05-23 17:31:16</time>
      </trkpt>
      <trkpt lat="41.7071" lon="0.98271">
        <ele>335.2</ele>
        <time>2022-05-23 17:31:17</time>
      </trkpt>
      <trkpt lat="41.70704" lon="0.98271">
        <ele>335.2</ele>
        <time>2022-05-23 17:31:18</time>
      </trkpt>
      <trkpt lat="41.70699" lon="0.9827">
        <ele>335.2</ele>
        <time>2022-05-23 17:31:19</time>
      </trkpt>
      <trkpt lat="41.70695" lon="0.98269">
        <ele>335.2</ele>
        <time>2022-05-23 17:31:20</time>
      </trkpt>
      <trkpt lat="41.7069" lon="0.98267">
        <ele>335.2</ele>
        <time>2022-05-23 17:31:21</time>
      </trkpt>
      <trkpt lat="41.70685" lon="0.98266">
        <ele>335</ele>
        <time>2022-05-23 17:31:22</time>
      </trkpt>
      <trkpt lat="41.7068" lon="0.98265">
        <ele>335</ele>
        <time>2022-05-23 17:31:23</time>
      </trkpt>
      <trkpt lat="41.70676" lon="0.98264">
        <ele>335</ele>
        <time>2022-05-23 17:31:24</time>
      </trkpt>
      <trkpt lat="41.70671" lon="0.98262">
        <ele>335</ele>
        <time>2022-05-23 17:31:25</time>
      </trkpt>
      <trkpt lat="41.70666" lon="0.98261">
        <ele>335</ele>
        <time>2022-05-23 17:31:26</time>
      </trkpt>
      <trkpt lat="41.70662" lon="0.9826">
        <ele>335</ele>
        <time>2022-05-23 17:31:27</time>
      </trkpt>
      <trkpt lat="41.70657" lon="0.98258">
        <ele>334.8</ele>
        <time>2022-05-23 17:31:28</time>
      </trkpt>
      <trkpt lat="41.70652" lon="0.98256">
        <ele>334.8</ele>
        <time>2022-05-23 17:31:29</time>
      </trkpt>
      <trkpt lat="41.70647" lon="0.98254">
        <ele>334.8</ele>
        <time>2022-05-23 17:31:30</time>
      </trkpt>
      <trkpt lat="41.70642" lon="0.98253">
        <ele>334.8</ele>
        <time>2022-05-23 17:31:31</time>
      </trkpt>
      <trkpt lat="41.70637" lon="0.98251">
        <ele>334.8</ele>
        <time>2022-05-23 17:31:32</time>
      </trkpt>
      <trkpt lat="41.70633" lon="0.9825">
        <ele>334.8</ele>
        <time>2022-05-23 17:31:33</time>
      </trkpt>
      <trkpt lat="41.70628" lon="0.98249">
        <ele>334.8</ele>
        <time>2022-05-23 17:31:34</time>
      </trkpt>
      <trkpt lat="41.70623" lon="0.98247">
        <ele>334.8</ele>
        <time>2022-05-23 17:31:35</time>
      </trkpt>
      <trkpt lat="41.70619" lon="0.98246">
        <ele>334.8</ele>
        <time>2022-05-23 17:31:36</time>
      </trkpt>
      <trkpt lat="41.70613" lon="0.98244">
        <ele>334.8</ele>
        <time>2022-05-23 17:31:37</time>
      </trkpt>
      <trkpt lat="41.70608" lon="0.98242">
        <ele>334.6</ele>
        <time>2022-05-23 17:31:38</time>
      </trkpt>
      <trkpt lat="41.70604" lon="0.9824">
        <ele>334.8</ele>
        <time>2022-05-23 17:31:39</time>
      </trkpt>
      <trkpt lat="41.70599" lon="0.98238">
        <ele>334.8</ele>
        <time>2022-05-23 17:31:40</time>
      </trkpt>
      <trkpt lat="41.70594" lon="0.98236">
        <ele>334.8</ele>
        <time>2022-05-23 17:31:41</time>
      </trkpt>
      <trkpt lat="41.7059" lon="0.98235">
        <ele>334.6</ele>
        <time>2022-05-23 17:31:42</time>
      </trkpt>
      <trkpt lat="41.70585" lon="0.98233">
        <ele>334.6</ele>
        <time>2022-05-23 17:31:43</time>
      </trkpt>
      <trkpt lat="41.7058" lon="0.98231">
        <ele>334.8</ele>
        <time>2022-05-23 17:31:44</time>
      </trkpt>
      <trkpt lat="41.70575" lon="0.9823">
        <ele>334.8</ele>
        <time>2022-05-23 17:31:45</time>
      </trkpt>
      <trkpt lat="41.70573" lon="0.98229">
        <ele>334.8</ele>
        <time>2022-05-23 17:31:46</time>
      </trkpt>
      <trkpt lat="41.70569" lon="0.98228">
        <ele>334.8</ele>
        <time>2022-05-23 17:31:47</time>
      </trkpt>
      <trkpt lat="41.70562" lon="0.98225">
        <ele>335</ele>
        <time>2022-05-23 17:31:48</time>
      </trkpt>
      <trkpt lat="41.70557" lon="0.98224">
        <ele>335</ele>
        <time>2022-05-23 17:31:49</time>
      </trkpt>
      <trkpt lat="41.70553" lon="0.98222">
        <ele>335</ele>
        <time>2022-05-23 17:31:50</time>
      </trkpt>
      <trkpt lat="41.70549" lon="0.9822">
        <ele>335.2</ele>
        <time>2022-05-23 17:31:51</time>
      </trkpt>
      <trkpt lat="41.70545" lon="0.98218">
        <ele>335.2</ele>
        <time>2022-05-23 17:31:52</time>
      </trkpt>
      <trkpt lat="41.7054" lon="0.98217">
        <ele>335.2</ele>
        <time>2022-05-23 17:31:53</time>
      </trkpt>
      <trkpt lat="41.70536" lon="0.98215">
        <ele>335.2</ele>
        <time>2022-05-23 17:31:54</time>
      </trkpt>
      <trkpt lat="41.70533" lon="0.98214">
        <ele>335.2</ele>
        <time>2022-05-23 17:31:55</time>
      </trkpt>
      <trkpt lat="41.70527" lon="0.98212">
        <ele>335.2</ele>
        <time>2022-05-23 17:31:56</time>
      </trkpt>
      <trkpt lat="41.70523" lon="0.9821">
        <ele>335.4</ele>
        <time>2022-05-23 17:31:57</time>
      </trkpt>
      <trkpt lat="41.70518" lon="0.98208">
        <ele>335.2</ele>
        <time>2022-05-23 17:31:58</time>
      </trkpt>
      <trkpt lat="41.70515" lon="0.98206">
        <ele>335.4</ele>
        <time>2022-05-23 17:31:59</time>
      </trkpt>
      <trkpt lat="41.7051" lon="0.98204">
        <ele>335.4</ele>
        <time>2022-05-23 17:32:00</time>
      </trkpt>
      <trkpt lat="41.70504" lon="0.98202">
        <ele>335.2</ele>
        <time>2022-05-23 17:32:01</time>
      </trkpt>
      <trkpt lat="41.70499" lon="0.982">
        <ele>335.4</ele>
        <time>2022-05-23 17:32:02</time>
      </trkpt>
      <trkpt lat="41.70494" lon="0.98198">
        <ele>335.4</ele>
        <time>2022-05-23 17:32:03</time>
      </trkpt>
      <trkpt lat="41.70491" lon="0.98196">
        <ele>335.4</ele>
        <time>2022-05-23 17:32:04</time>
      </trkpt>
      <trkpt lat="41.70485" lon="0.98194">
        <ele>335.4</ele>
        <time>2022-05-23 17:32:05</time>
      </trkpt>
      <trkpt lat="41.70479" lon="0.98191">
        <ele>335.4</ele>
        <time>2022-05-23 17:32:06</time>
      </trkpt>
      <trkpt lat="41.70474" lon="0.98189">
        <ele>335.4</ele>
        <time>2022-05-23 17:32:07</time>
      </trkpt>
      <trkpt lat="41.70469" lon="0.98187">
        <ele>335.4</ele>
        <time>2022-05-23 17:32:08</time>
      </trkpt>
      <trkpt lat="41.70465" lon="0.98186">
        <ele>335.4</ele>
        <time>2022-05-23 17:32:09</time>
      </trkpt>
      <trkpt lat="41.70461" lon="0.98184">
        <ele>335.6</ele>
        <time>2022-05-23 17:32:10</time>
      </trkpt>
      <trkpt lat="41.70457" lon="0.98182">
        <ele>335.6</ele>
        <time>2022-05-23 17:32:11</time>
      </trkpt>
      <trkpt lat="41.70452" lon="0.9818">
        <ele>335.6</ele>
        <time>2022-05-23 17:32:12</time>
      </trkpt>
      <trkpt lat="41.70447" lon="0.98178">
        <ele>335.6</ele>
        <time>2022-05-23 17:32:13</time>
      </trkpt>
      <trkpt lat="41.70443" lon="0.98176">
        <ele>335.8</ele>
        <time>2022-05-23 17:32:14</time>
      </trkpt>
      <trkpt lat="41.70439" lon="0.98174">
        <ele>335.8</ele>
        <time>2022-05-23 17:32:15</time>
      </trkpt>
      <trkpt lat="41.70434" lon="0.98172">
        <ele>335.8</ele>
        <time>2022-05-23 17:32:16</time>
      </trkpt>
      <trkpt lat="41.7043" lon="0.9817">
        <ele>335.8</ele>
        <time>2022-05-23 17:32:17</time>
      </trkpt>
      <trkpt lat="41.70425" lon="0.98168">
        <ele>335.8</ele>
        <time>2022-05-23 17:32:18</time>
      </trkpt>
      <trkpt lat="41.70422" lon="0.98167">
        <ele>335.8</ele>
        <time>2022-05-23 17:32:19</time>
      </trkpt>
      <trkpt lat="41.70417" lon="0.98165">
        <ele>335.8</ele>
        <time>2022-05-23 17:32:20</time>
      </trkpt>
      <trkpt lat="41.70412" lon="0.98163">
        <ele>335.8</ele>
        <time>2022-05-23 17:32:21</time>
      </trkpt>
      <trkpt lat="41.70408" lon="0.98161">
        <ele>336</ele>
        <time>2022-05-23 17:32:22</time>
      </trkpt>
      <trkpt lat="41.70404" lon="0.98159">
        <ele>335.8</ele>
        <time>2022-05-23 17:32:23</time>
      </trkpt>
      <trkpt lat="41.70399" lon="0.98158">
        <ele>335.8</ele>
        <time>2022-05-23 17:32:24</time>
      </trkpt>
      <trkpt lat="41.70394" lon="0.98157">
        <ele>335.8</ele>
        <time>2022-05-23 17:32:25</time>
      </trkpt>
      <trkpt lat="41.70389" lon="0.98156">
        <ele>335.6</ele>
        <time>2022-05-23 17:32:26</time>
      </trkpt>
      <trkpt lat="41.70384" lon="0.98154">
        <ele>335.6</ele>
        <time>2022-05-23 17:32:27</time>
      </trkpt>
      <trkpt lat="41.7038" lon="0.98153">
        <ele>335.6</ele>
        <time>2022-05-23 17:32:28</time>
      </trkpt>
      <trkpt lat="41.70375" lon="0.98153">
        <ele>335.8</ele>
        <time>2022-05-23 17:32:29</time>
      </trkpt>
      <trkpt lat="41.7037" lon="0.98153">
        <ele>335.8</ele>
        <time>2022-05-23 17:32:30</time>
      </trkpt>
      <trkpt lat="41.70365" lon="0.98153">
        <ele>335.8</ele>
        <time>2022-05-23 17:32:31</time>
      </trkpt>
      <trkpt lat="41.7036" lon="0.98153">
        <ele>335.6</ele>
        <time>2022-05-23 17:32:32</time>
      </trkpt>
      <trkpt lat="41.70355" lon="0.98153">
        <ele>335.8</ele>
        <time>2022-05-23 17:32:33</time>
      </trkpt>
      <trkpt lat="41.70349" lon="0.98154">
        <ele>335.8</ele>
        <time>2022-05-23 17:32:34</time>
      </trkpt>
      <trkpt lat="41.70344" lon="0.98155">
        <ele>335.8</ele>
        <time>2022-05-23 17:32:35</time>
      </trkpt>
      <trkpt lat="41.70339" lon="0.98155">
        <ele>335.8</ele>
        <time>2022-05-23 17:32:36</time>
      </trkpt>
      <trkpt lat="41.70334" lon="0.98156">
        <ele>335.8</ele>
        <time>2022-05-23 17:32:37</time>
      </trkpt>
      <trkpt lat="41.70329" lon="0.98157">
        <ele>335.8</ele>
        <time>2022-05-23 17:32:38</time>
      </trkpt>
      <trkpt lat="41.70323" lon="0.98159">
        <ele>335.8</ele>
        <time>2022-05-23 17:32:39</time>
      </trkpt>
      <trkpt lat="41.70319" lon="0.9816">
        <ele>335.8</ele>
        <time>2022-05-23 17:32:40</time>
      </trkpt>
      <trkpt lat="41.70314" lon="0.98161">
        <ele>335.8</ele>
        <time>2022-05-23 17:32:41</time>
      </trkpt>
      <trkpt lat="41.70308" lon="0.98162">
        <ele>335.6</ele>
        <time>2022-05-23 17:32:42</time>
      </trkpt>
      <trkpt lat="41.70303" lon="0.98164">
        <ele>335.6</ele>
        <time>2022-05-23 17:32:43</time>
      </trkpt>
      <trkpt lat="41.70298" lon="0.98165">
        <ele>335.4</ele>
        <time>2022-05-23 17:32:44</time>
      </trkpt>
      <trkpt lat="41.70292" lon="0.98167">
        <ele>335.4</ele>
        <time>2022-05-23 17:32:45</time>
      </trkpt>
      <trkpt lat="41.70287" lon="0.98168">
        <ele>335.2</ele>
        <time>2022-05-23 17:32:46</time>
      </trkpt>
      <trkpt lat="41.70282" lon="0.9817">
        <ele>335.2</ele>
        <time>2022-05-23 17:32:47</time>
      </trkpt>
      <trkpt lat="41.70277" lon="0.98171">
        <ele>335.2</ele>
        <time>2022-05-23 17:32:48</time>
      </trkpt>
      <trkpt lat="41.70272" lon="0.98173">
        <ele>335.4</ele>
        <time>2022-05-23 17:32:49</time>
      </trkpt>
      <trkpt lat="41.70267" lon="0.98174">
        <ele>335.4</ele>
        <time>2022-05-23 17:32:50</time>
      </trkpt>
      <trkpt lat="41.70262" lon="0.98176">
        <ele>335.4</ele>
        <time>2022-05-23 17:32:51</time>
      </trkpt>
      <trkpt lat="41.70257" lon="0.98177">
        <ele>335.2</ele>
        <time>2022-05-23 17:32:52</time>
      </trkpt>
      <trkpt lat="41.70252" lon="0.98178">
        <ele>335.2</ele>
        <time>2022-05-23 17:32:53</time>
      </trkpt>
      <trkpt lat="41.70246" lon="0.9818">
        <ele>335</ele>
        <time>2022-05-23 17:32:54</time>
      </trkpt>
      <trkpt lat="41.70241" lon="0.98181">
        <ele>335</ele>
        <time>2022-05-23 17:32:55</time>
      </trkpt>
      <trkpt lat="41.70236" lon="0.98182">
        <ele>335.2</ele>
        <time>2022-05-23 17:32:56</time>
      </trkpt>
      <trkpt lat="41.70231" lon="0.98184">
        <ele>335.2</ele>
        <time>2022-05-23 17:32:57</time>
      </trkpt>
      <trkpt lat="41.70226" lon="0.98185">
        <ele>335.2</ele>
        <time>2022-05-23 17:32:58</time>
      </trkpt>
      <trkpt lat="41.7022" lon="0.98186">
        <ele>335</ele>
        <time>2022-05-23 17:32:59</time>
      </trkpt>
      <trkpt lat="41.70215" lon="0.98188">
        <ele>335</ele>
        <time>2022-05-23 17:33:00</time>
      </trkpt>
      <trkpt lat="41.7021" lon="0.98189">
        <ele>335</ele>
        <time>2022-05-23 17:33:01</time>
      </trkpt>
      <trkpt lat="41.70205" lon="0.98191">
        <ele>335</ele>
        <time>2022-05-23 17:33:02</time>
      </trkpt>
      <trkpt lat="41.702" lon="0.98192">
        <ele>335</ele>
        <time>2022-05-23 17:33:03</time>
      </trkpt>
      <trkpt lat="41.70195" lon="0.98194">
        <ele>335.2</ele>
        <time>2022-05-23 17:33:04</time>
      </trkpt>
      <trkpt lat="41.7019" lon="0.98196">
        <ele>335.2</ele>
        <time>2022-05-23 17:33:05</time>
      </trkpt>
      <trkpt lat="41.70185" lon="0.98198">
        <ele>335.2</ele>
        <time>2022-05-23 17:33:06</time>
      </trkpt>
      <trkpt lat="41.7018" lon="0.982">
        <ele>335.2</ele>
        <time>2022-05-23 17:33:07</time>
      </trkpt>
      <trkpt lat="41.70175" lon="0.98202">
        <ele>335</ele>
        <time>2022-05-23 17:33:08</time>
      </trkpt>
      <trkpt lat="41.70171" lon="0.98203">
        <ele>335</ele>
        <time>2022-05-23 17:33:09</time>
      </trkpt>
      <trkpt lat="41.70166" lon="0.98205">
        <ele>334.8</ele>
        <time>2022-05-23 17:33:10</time>
      </trkpt>
      <trkpt lat="41.70163" lon="0.98207">
        <ele>334.8</ele>
        <time>2022-05-23 17:33:11</time>
      </trkpt>
      <trkpt lat="41.70156" lon="0.98209">
        <ele>334.8</ele>
        <time>2022-05-23 17:33:12</time>
      </trkpt>
      <trkpt lat="41.7015" lon="0.98212">
        <ele>334.8</ele>
        <time>2022-05-23 17:33:13</time>
      </trkpt>
      <trkpt lat="41.70145" lon="0.98214">
        <ele>334.8</ele>
        <time>2022-05-23 17:33:14</time>
      </trkpt>
      <trkpt lat="41.7014" lon="0.98216">
        <ele>334.8</ele>
        <time>2022-05-23 17:33:15</time>
      </trkpt>
      <trkpt lat="41.70135" lon="0.98218">
        <ele>334.6</ele>
        <time>2022-05-23 17:33:16</time>
      </trkpt>
      <trkpt lat="41.7013" lon="0.9822">
        <ele>334.4</ele>
        <time>2022-05-23 17:33:17</time>
      </trkpt>
      <trkpt lat="41.70125" lon="0.98223">
        <ele>334.4</ele>
        <time>2022-05-23 17:33:18</time>
      </trkpt>
      <trkpt lat="41.7012" lon="0.98225">
        <ele>334.4</ele>
        <time>2022-05-23 17:33:19</time>
      </trkpt>
      <trkpt lat="41.70115" lon="0.98228">
        <ele>334.4</ele>
        <time>2022-05-23 17:33:20</time>
      </trkpt>
      <trkpt lat="41.7011" lon="0.9823">
        <ele>334.4</ele>
        <time>2022-05-23 17:33:21</time>
      </trkpt>
      <trkpt lat="41.70105" lon="0.98232">
        <ele>334.4</ele>
        <time>2022-05-23 17:33:22</time>
      </trkpt>
      <trkpt lat="41.70102" lon="0.98234">
        <ele>334.4</ele>
        <time>2022-05-23 17:33:23</time>
      </trkpt>
      <trkpt lat="41.70096" lon="0.98237">
        <ele>334.6</ele>
        <time>2022-05-23 17:33:24</time>
      </trkpt>
      <trkpt lat="41.70091" lon="0.98239">
        <ele>334.6</ele>
        <time>2022-05-23 17:33:25</time>
      </trkpt>
      <trkpt lat="41.70086" lon="0.98242">
        <ele>334.6</ele>
        <time>2022-05-23 17:33:26</time>
      </trkpt>
      <trkpt lat="41.70081" lon="0.98244">
        <ele>334.6</ele>
        <time>2022-05-23 17:33:27</time>
      </trkpt>
      <trkpt lat="41.70077" lon="0.98247">
        <ele>334.6</ele>
        <time>2022-05-23 17:33:28</time>
      </trkpt>
      <trkpt lat="41.70073" lon="0.98249">
        <ele>334.6</ele>
        <time>2022-05-23 17:33:29</time>
      </trkpt>
      <trkpt lat="41.70067" lon="0.98252">
        <ele>334.6</ele>
        <time>2022-05-23 17:33:30</time>
      </trkpt>
      <trkpt lat="41.70063" lon="0.98254">
        <ele>334.6</ele>
        <time>2022-05-23 17:33:31</time>
      </trkpt>
      <trkpt lat="41.70057" lon="0.98257">
        <ele>334.6</ele>
        <time>2022-05-23 17:33:32</time>
      </trkpt>
      <trkpt lat="41.70053" lon="0.98259">
        <ele>334.8</ele>
        <time>2022-05-23 17:33:33</time>
      </trkpt>
      <trkpt lat="41.70047" lon="0.98262">
        <ele>334.8</ele>
        <time>2022-05-23 17:33:34</time>
      </trkpt>
      <trkpt lat="41.70043" lon="0.98264">
        <ele>334.8</ele>
        <time>2022-05-23 17:33:35</time>
      </trkpt>
      <trkpt lat="41.70038" lon="0.98266">
        <ele>334.8</ele>
        <time>2022-05-23 17:33:36</time>
      </trkpt>
      <trkpt lat="41.70034" lon="0.98268">
        <ele>334.8</ele>
        <time>2022-05-23 17:33:37</time>
      </trkpt>
      <trkpt lat="41.70028" lon="0.98271">
        <ele>334.8</ele>
        <time>2022-05-23 17:33:38</time>
      </trkpt>
      <trkpt lat="41.70023" lon="0.98273">
        <ele>334.6</ele>
        <time>2022-05-23 17:33:39</time>
      </trkpt>
      <trkpt lat="41.70018" lon="0.98276">
        <ele>334.6</ele>
        <time>2022-05-23 17:33:40</time>
      </trkpt>
      <trkpt lat="41.70014" lon="0.98278">
        <ele>334.8</ele>
        <time>2022-05-23 17:33:41</time>
      </trkpt>
      <trkpt lat="41.70009" lon="0.98281">
        <ele>334.8</ele>
        <time>2022-05-23 17:33:42</time>
      </trkpt>
      <trkpt lat="41.70005" lon="0.98283">
        <ele>334.8</ele>
        <time>2022-05-23 17:33:43</time>
      </trkpt>
      <trkpt lat="41.7" lon="0.98286">
        <ele>334.8</ele>
        <time>2022-05-23 17:33:44</time>
      </trkpt>
      <trkpt lat="41.69996" lon="0.98287">
        <ele>334.8</ele>
        <time>2022-05-23 17:33:45</time>
      </trkpt>
      <trkpt lat="41.6999" lon="0.9829">
        <ele>334.8</ele>
        <time>2022-05-23 17:33:46</time>
      </trkpt>
      <trkpt lat="41.69986" lon="0.98292">
        <ele>334.8</ele>
        <time>2022-05-23 17:33:47</time>
      </trkpt>
      <trkpt lat="41.69979" lon="0.98296">
        <ele>334.8</ele>
        <time>2022-05-23 17:33:48</time>
      </trkpt>
      <trkpt lat="41.69975" lon="0.98298">
        <ele>334.6</ele>
        <time>2022-05-23 17:33:49</time>
      </trkpt>
      <trkpt lat="41.69969" lon="0.98301">
        <ele>334.6</ele>
        <time>2022-05-23 17:33:50</time>
      </trkpt>
      <trkpt lat="41.69964" lon="0.98303">
        <ele>334.6</ele>
        <time>2022-05-23 17:33:51</time>
      </trkpt>
      <trkpt lat="41.69958" lon="0.98307">
        <ele>334.8</ele>
        <time>2022-05-23 17:33:52</time>
      </trkpt>
      <trkpt lat="41.69954" lon="0.98309">
        <ele>334.8</ele>
        <time>2022-05-23 17:33:53</time>
      </trkpt>
      <trkpt lat="41.69947" lon="0.98312">
        <ele>334.8</ele>
        <time>2022-05-23 17:33:54</time>
      </trkpt>
      <trkpt lat="41.69943" lon="0.98314">
        <ele>335</ele>
        <time>2022-05-23 17:33:55</time>
      </trkpt>
      <trkpt lat="41.69937" lon="0.98317">
        <ele>335</ele>
        <time>2022-05-23 17:33:56</time>
      </trkpt>
      <trkpt lat="41.69934" lon="0.98319">
        <ele>335</ele>
        <time>2022-05-23 17:33:57</time>
      </trkpt>
      <trkpt lat="41.69929" lon="0.98322">
        <ele>335.2</ele>
        <time>2022-05-23 17:33:58</time>
      </trkpt>
      <trkpt lat="41.69924" lon="0.98324">
        <ele>335.2</ele>
        <time>2022-05-23 17:33:59</time>
      </trkpt>
      <trkpt lat="41.6992" lon="0.98326">
        <ele>335.2</ele>
        <time>2022-05-23 17:34:00</time>
      </trkpt>
      <trkpt lat="41.69916" lon="0.98328">
        <ele>335.2</ele>
        <time>2022-05-23 17:34:01</time>
      </trkpt>
      <trkpt lat="41.6991" lon="0.9833">
        <ele>335.4</ele>
        <time>2022-05-23 17:34:02</time>
      </trkpt>
      <trkpt lat="41.69906" lon="0.98332">
        <ele>335.6</ele>
        <time>2022-05-23 17:34:03</time>
      </trkpt>
      <trkpt lat="41.699" lon="0.98335">
        <ele>335.6</ele>
        <time>2022-05-23 17:34:04</time>
      </trkpt>
      <trkpt lat="41.69896" lon="0.98338">
        <ele>335.6</ele>
        <time>2022-05-23 17:34:05</time>
      </trkpt>
      <trkpt lat="41.69891" lon="0.9834">
        <ele>335.6</ele>
        <time>2022-05-23 17:34:06</time>
      </trkpt>
      <trkpt lat="41.69886" lon="0.98343">
        <ele>335.8</ele>
        <time>2022-05-23 17:34:07</time>
      </trkpt>
      <trkpt lat="41.69881" lon="0.98346">
        <ele>335.8</ele>
        <time>2022-05-23 17:34:08</time>
      </trkpt>
      <trkpt lat="41.69877" lon="0.98348">
        <ele>335.8</ele>
        <time>2022-05-23 17:34:09</time>
      </trkpt>
      <trkpt lat="41.69871" lon="0.98351">
        <ele>336</ele>
        <time>2022-05-23 17:34:10</time>
      </trkpt>
      <trkpt lat="41.69867" lon="0.98353">
        <ele>336</ele>
        <time>2022-05-23 17:34:11</time>
      </trkpt>
      <trkpt lat="41.69861" lon="0.98356">
        <ele>336</ele>
        <time>2022-05-23 17:34:12</time>
      </trkpt>
      <trkpt lat="41.69858" lon="0.98357">
        <ele>336</ele>
        <time>2022-05-23 17:34:13</time>
      </trkpt>
      <trkpt lat="41.69852" lon="0.9836">
        <ele>336.2</ele>
        <time>2022-05-23 17:34:14</time>
      </trkpt>
      <trkpt lat="41.69848" lon="0.98362">
        <ele>336.2</ele>
        <time>2022-05-23 17:34:15</time>
      </trkpt>
      <trkpt lat="41.69843" lon="0.98365">
        <ele>336.4</ele>
        <time>2022-05-23 17:34:16</time>
      </trkpt>
      <trkpt lat="41.69839" lon="0.98367">
        <ele>336.4</ele>
        <time>2022-05-23 17:34:17</time>
      </trkpt>
      <trkpt lat="41.69834" lon="0.98369">
        <ele>336.4</ele>
        <time>2022-05-23 17:34:18</time>
      </trkpt>
      <trkpt lat="41.6983" lon="0.98371">
        <ele>336.4</ele>
        <time>2022-05-23 17:34:19</time>
      </trkpt>
      <trkpt lat="41.69825" lon="0.98374">
        <ele>336.4</ele>
        <time>2022-05-23 17:34:20</time>
      </trkpt>
      <trkpt lat="41.69822" lon="0.98375">
        <ele>336.4</ele>
        <time>2022-05-23 17:34:21</time>
      </trkpt>
      <trkpt lat="41.69817" lon="0.98378">
        <ele>336.4</ele>
        <time>2022-05-23 17:34:22</time>
      </trkpt>
      <trkpt lat="41.69813" lon="0.9838">
        <ele>336.6</ele>
        <time>2022-05-23 17:34:23</time>
      </trkpt>
      <trkpt lat="41.69808" lon="0.98383">
        <ele>336.6</ele>
        <time>2022-05-23 17:34:24</time>
      </trkpt>
      <trkpt lat="41.69804" lon="0.98385">
        <ele>336.8</ele>
        <time>2022-05-23 17:34:25</time>
      </trkpt>
      <trkpt lat="41.69799" lon="0.98387">
        <ele>336.8</ele>
        <time>2022-05-23 17:34:26</time>
      </trkpt>
      <trkpt lat="41.69795" lon="0.98389">
        <ele>336.8</ele>
        <time>2022-05-23 17:34:27</time>
      </trkpt>
      <trkpt lat="41.69791" lon="0.98391">
        <ele>337</ele>
        <time>2022-05-23 17:34:28</time>
      </trkpt>
      <trkpt lat="41.69787" lon="0.98393">
        <ele>337</ele>
        <time>2022-05-23 17:34:29</time>
      </trkpt>
      <trkpt lat="41.69782" lon="0.98396">
        <ele>337.2</ele>
        <time>2022-05-23 17:34:30</time>
      </trkpt>
      <trkpt lat="41.69779" lon="0.98397">
        <ele>337.2</ele>
        <time>2022-05-23 17:34:31</time>
      </trkpt>
      <trkpt lat="41.69773" lon="0.984">
        <ele>337</ele>
        <time>2022-05-23 17:34:32</time>
      </trkpt>
      <trkpt lat="41.6977" lon="0.98402">
        <ele>337.2</ele>
        <time>2022-05-23 17:34:33</time>
      </trkpt>
      <trkpt lat="41.69765" lon="0.98405">
        <ele>337.2</ele>
        <time>2022-05-23 17:34:34</time>
      </trkpt>
      <trkpt lat="41.6976" lon="0.98407">
        <ele>337.2</ele>
        <time>2022-05-23 17:34:35</time>
      </trkpt>
      <trkpt lat="41.69757" lon="0.98409">
        <ele>337.4</ele>
        <time>2022-05-23 17:34:36</time>
      </trkpt>
      <trkpt lat="41.69752" lon="0.98411">
        <ele>337.4</ele>
        <time>2022-05-23 17:34:37</time>
      </trkpt>
      <trkpt lat="41.69748" lon="0.98413">
        <ele>337.4</ele>
        <time>2022-05-23 17:34:38</time>
      </trkpt>
      <trkpt lat="41.69744" lon="0.98416">
        <ele>337.4</ele>
        <time>2022-05-23 17:34:39</time>
      </trkpt>
      <trkpt lat="41.69739" lon="0.98418">
        <ele>337.6</ele>
        <time>2022-05-23 17:34:40</time>
      </trkpt>
      <trkpt lat="41.69735" lon="0.9842">
        <ele>337.4</ele>
        <time>2022-05-23 17:34:41</time>
      </trkpt>
      <trkpt lat="41.69731" lon="0.98422">
        <ele>337.4</ele>
        <time>2022-05-23 17:34:42</time>
      </trkpt>
      <trkpt lat="41.69726" lon="0.98424">
        <ele>337.6</ele>
        <time>2022-05-23 17:34:43</time>
      </trkpt>
      <trkpt lat="41.69722" lon="0.98426">
        <ele>337.6</ele>
        <time>2022-05-23 17:34:44</time>
      </trkpt>
      <trkpt lat="41.69718" lon="0.98429">
        <ele>337.8</ele>
        <time>2022-05-23 17:34:45</time>
      </trkpt>
      <trkpt lat="41.69713" lon="0.98431">
        <ele>337.8</ele>
        <time>2022-05-23 17:34:46</time>
      </trkpt>
      <trkpt lat="41.69709" lon="0.98433">
        <ele>338</ele>
        <time>2022-05-23 17:34:47</time>
      </trkpt>
      <trkpt lat="41.69705" lon="0.98435">
        <ele>338</ele>
        <time>2022-05-23 17:34:48</time>
      </trkpt>
      <trkpt lat="41.697" lon="0.98438">
        <ele>338</ele>
        <time>2022-05-23 17:34:49</time>
      </trkpt>
      <trkpt lat="41.69696" lon="0.9844">
        <ele>338</ele>
        <time>2022-05-23 17:34:50</time>
      </trkpt>
      <trkpt lat="41.69691" lon="0.98442">
        <ele>338.2</ele>
        <time>2022-05-23 17:34:51</time>
      </trkpt>
      <trkpt lat="41.69687" lon="0.98445">
        <ele>338</ele>
        <time>2022-05-23 17:34:52</time>
      </trkpt>
      <trkpt lat="41.69682" lon="0.98447">
        <ele>338</ele>
        <time>2022-05-23 17:34:53</time>
      </trkpt>
      <trkpt lat="41.69678" lon="0.98449">
        <ele>338</ele>
        <time>2022-05-23 17:34:54</time>
      </trkpt>
      <trkpt lat="41.69673" lon="0.98451">
        <ele>338</ele>
        <time>2022-05-23 17:34:55</time>
      </trkpt>
      <trkpt lat="41.69669" lon="0.98454">
        <ele>338</ele>
        <time>2022-05-23 17:34:56</time>
      </trkpt>
      <trkpt lat="41.69664" lon="0.98456">
        <ele>338</ele>
        <time>2022-05-23 17:34:57</time>
      </trkpt>
      <trkpt lat="41.6966" lon="0.98458">
        <ele>338.2</ele>
        <time>2022-05-23 17:34:58</time>
      </trkpt>
      <trkpt lat="41.69655" lon="0.9846">
        <ele>338.2</ele>
        <time>2022-05-23 17:34:59</time>
      </trkpt>
      <trkpt lat="41.69651" lon="0.98463">
        <ele>338.2</ele>
        <time>2022-05-23 17:35:00</time>
      </trkpt>
      <trkpt lat="41.69646" lon="0.98465">
        <ele>338.2</ele>
        <time>2022-05-23 17:35:01</time>
      </trkpt>
      <trkpt lat="41.69642" lon="0.98468">
        <ele>338.4</ele>
        <time>2022-05-23 17:35:02</time>
      </trkpt>
      <trkpt lat="41.69637" lon="0.9847">
        <ele>338.4</ele>
        <time>2022-05-23 17:35:03</time>
      </trkpt>
      <trkpt lat="41.69632" lon="0.98472">
        <ele>338.4</ele>
        <time>2022-05-23 17:35:04</time>
      </trkpt>
      <trkpt lat="41.69628" lon="0.98475">
        <ele>338.4</ele>
        <time>2022-05-23 17:35:05</time>
      </trkpt>
      <trkpt lat="41.69623" lon="0.98477">
        <ele>338.4</ele>
        <time>2022-05-23 17:35:06</time>
      </trkpt>
      <trkpt lat="41.69618" lon="0.98479">
        <ele>338.4</ele>
        <time>2022-05-23 17:35:07</time>
      </trkpt>
      <trkpt lat="41.69614" lon="0.98482">
        <ele>338.6</ele>
        <time>2022-05-23 17:35:08</time>
      </trkpt>
      <trkpt lat="41.69609" lon="0.98484">
        <ele>338.6</ele>
        <time>2022-05-23 17:35:09</time>
      </trkpt>
      <trkpt lat="41.69604" lon="0.98486">
        <ele>338.6</ele>
        <time>2022-05-23 17:35:10</time>
      </trkpt>
      <trkpt lat="41.696" lon="0.98489">
        <ele>338.6</ele>
        <time>2022-05-23 17:35:11</time>
      </trkpt>
      <trkpt lat="41.69595" lon="0.98491">
        <ele>338.6</ele>
        <time>2022-05-23 17:35:12</time>
      </trkpt>
      <trkpt lat="41.6959" lon="0.98494">
        <ele>338.6</ele>
        <time>2022-05-23 17:35:13</time>
      </trkpt>
      <trkpt lat="41.69586" lon="0.98496">
        <ele>338.6</ele>
        <time>2022-05-23 17:35:14</time>
      </trkpt>
      <trkpt lat="41.69581" lon="0.98498">
        <ele>338.6</ele>
        <time>2022-05-23 17:35:15</time>
      </trkpt>
      <trkpt lat="41.69576" lon="0.98501">
        <ele>338.6</ele>
        <time>2022-05-23 17:35:16</time>
      </trkpt>
      <trkpt lat="41.69572" lon="0.98503">
        <ele>338.6</ele>
        <time>2022-05-23 17:35:17</time>
      </trkpt>
      <trkpt lat="41.69567" lon="0.98506">
        <ele>338.8</ele>
        <time>2022-05-23 17:35:18</time>
      </trkpt>
      <trkpt lat="41.69562" lon="0.98508">
        <ele>338.8</ele>
        <time>2022-05-23 17:35:19</time>
      </trkpt>
      <trkpt lat="41.69557" lon="0.9851">
        <ele>338.8</ele>
        <time>2022-05-23 17:35:20</time>
      </trkpt>
      <trkpt lat="41.69552" lon="0.98513">
        <ele>338.8</ele>
        <time>2022-05-23 17:35:21</time>
      </trkpt>
      <trkpt lat="41.69548" lon="0.98515">
        <ele>339</ele>
        <time>2022-05-23 17:35:22</time>
      </trkpt>
      <trkpt lat="41.69543" lon="0.98517">
        <ele>339</ele>
        <time>2022-05-23 17:35:23</time>
      </trkpt>
      <trkpt lat="41.69538" lon="0.9852">
        <ele>339</ele>
        <time>2022-05-23 17:35:24</time>
      </trkpt>
      <trkpt lat="41.69534" lon="0.98522">
        <ele>339.2</ele>
        <time>2022-05-23 17:35:25</time>
      </trkpt>
      <trkpt lat="41.69529" lon="0.98524">
        <ele>339.2</ele>
        <time>2022-05-23 17:35:26</time>
      </trkpt>
      <trkpt lat="41.69525" lon="0.98527">
        <ele>339.2</ele>
        <time>2022-05-23 17:35:27</time>
      </trkpt>
      <trkpt lat="41.6952" lon="0.98529">
        <ele>339.2</ele>
        <time>2022-05-23 17:35:28</time>
      </trkpt>
      <trkpt lat="41.69516" lon="0.98531">
        <ele>339.2</ele>
        <time>2022-05-23 17:35:29</time>
      </trkpt>
      <trkpt lat="41.69511" lon="0.98534">
        <ele>339.2</ele>
        <time>2022-05-23 17:35:30</time>
      </trkpt>
      <trkpt lat="41.69506" lon="0.98536">
        <ele>339.2</ele>
        <time>2022-05-23 17:35:31</time>
      </trkpt>
      <trkpt lat="41.69501" lon="0.98539">
        <ele>339.2</ele>
        <time>2022-05-23 17:35:32</time>
      </trkpt>
      <trkpt lat="41.69497" lon="0.98541">
        <ele>339.4</ele>
        <time>2022-05-23 17:35:33</time>
      </trkpt>
      <trkpt lat="41.69492" lon="0.98543">
        <ele>339.4</ele>
        <time>2022-05-23 17:35:34</time>
      </trkpt>
      <trkpt lat="41.69487" lon="0.98546">
        <ele>339.4</ele>
        <time>2022-05-23 17:35:35</time>
      </trkpt>
      <trkpt lat="41.69482" lon="0.98548">
        <ele>339.4</ele>
        <time>2022-05-23 17:35:36</time>
      </trkpt>
      <trkpt lat="41.69478" lon="0.98551">
        <ele>339.4</ele>
        <time>2022-05-23 17:35:37</time>
      </trkpt>
      <trkpt lat="41.69473" lon="0.98553">
        <ele>339.4</ele>
        <time>2022-05-23 17:35:38</time>
      </trkpt>
      <trkpt lat="41.69469" lon="0.98556">
        <ele>339.2</ele>
        <time>2022-05-23 17:35:39</time>
      </trkpt>
      <trkpt lat="41.69464" lon="0.98558">
        <ele>339.2</ele>
        <time>2022-05-23 17:35:40</time>
      </trkpt>
      <trkpt lat="41.69459" lon="0.9856">
        <ele>339.2</ele>
        <time>2022-05-23 17:35:41</time>
      </trkpt>
      <trkpt lat="41.69455" lon="0.98563">
        <ele>339.2</ele>
        <time>2022-05-23 17:35:42</time>
      </trkpt>
      <trkpt lat="41.6945" lon="0.98565">
        <ele>339.2</ele>
        <time>2022-05-23 17:35:43</time>
      </trkpt>
      <trkpt lat="41.69446" lon="0.98567">
        <ele>339.2</ele>
        <time>2022-05-23 17:35:44</time>
      </trkpt>
      <trkpt lat="41.69441" lon="0.9857">
        <ele>339.2</ele>
        <time>2022-05-23 17:35:45</time>
      </trkpt>
      <trkpt lat="41.69436" lon="0.98572">
        <ele>339.4</ele>
        <time>2022-05-23 17:35:46</time>
      </trkpt>
      <trkpt lat="41.69432" lon="0.98574">
        <ele>339.4</ele>
        <time>2022-05-23 17:35:47</time>
      </trkpt>
      <trkpt lat="41.69427" lon="0.98577">
        <ele>339.4</ele>
        <time>2022-05-23 17:35:48</time>
      </trkpt>
      <trkpt lat="41.69422" lon="0.98579">
        <ele>339.4</ele>
        <time>2022-05-23 17:35:49</time>
      </trkpt>
      <trkpt lat="41.69418" lon="0.98582">
        <ele>339.4</ele>
        <time>2022-05-23 17:35:50</time>
      </trkpt>
      <trkpt lat="41.69415" lon="0.98583">
        <ele>339.4</ele>
        <time>2022-05-23 17:35:51</time>
      </trkpt>
      <trkpt lat="41.69408" lon="0.98587">
        <ele>339.6</ele>
        <time>2022-05-23 17:35:52</time>
      </trkpt>
      <trkpt lat="41.69404" lon="0.9859">
        <ele>339.6</ele>
        <time>2022-05-23 17:35:53</time>
      </trkpt>
      <trkpt lat="41.69399" lon="0.98592">
        <ele>339.6</ele>
        <time>2022-05-23 17:35:54</time>
      </trkpt>
      <trkpt lat="41.69395" lon="0.98595">
        <ele>339.6</ele>
        <time>2022-05-23 17:35:55</time>
      </trkpt>
      <trkpt lat="41.69391" lon="0.98598">
        <ele>339.6</ele>
        <time>2022-05-23 17:35:56</time>
      </trkpt>
      <trkpt lat="41.69386" lon="0.98601">
        <ele>339.6</ele>
        <time>2022-05-23 17:35:57</time>
      </trkpt>
      <trkpt lat="41.69381" lon="0.98604">
        <ele>339.6</ele>
        <time>2022-05-23 17:35:58</time>
      </trkpt>
      <trkpt lat="41.69377" lon="0.98608">
        <ele>339.6</ele>
        <time>2022-05-23 17:35:59</time>
      </trkpt>
      <trkpt lat="41.69372" lon="0.98611">
        <ele>339.8</ele>
        <time>2022-05-23 17:36:00</time>
      </trkpt>
      <trkpt lat="41.69368" lon="0.98615">
        <ele>339.8</ele>
        <time>2022-05-23 17:36:01</time>
      </trkpt>
      <trkpt lat="41.69363" lon="0.98619">
        <ele>340</ele>
        <time>2022-05-23 17:36:02</time>
      </trkpt>
      <trkpt lat="41.69359" lon="0.98623">
        <ele>340.2</ele>
        <time>2022-05-23 17:36:03</time>
      </trkpt>
      <trkpt lat="41.69355" lon="0.98626">
        <ele>340.4</ele>
        <time>2022-05-23 17:36:04</time>
      </trkpt>
      <trkpt lat="41.69351" lon="0.98631">
        <ele>340.4</ele>
        <time>2022-05-23 17:36:05</time>
      </trkpt>
      <trkpt lat="41.69347" lon="0.98635">
        <ele>340.4</ele>
        <time>2022-05-23 17:36:06</time>
      </trkpt>
      <trkpt lat="41.69343" lon="0.9864">
        <ele>340.4</ele>
        <time>2022-05-23 17:36:07</time>
      </trkpt>
      <trkpt lat="41.69339" lon="0.98644">
        <ele>340.4</ele>
        <time>2022-05-23 17:36:08</time>
      </trkpt>
      <trkpt lat="41.69335" lon="0.9865">
        <ele>340.4</ele>
        <time>2022-05-23 17:36:09</time>
      </trkpt>
      <trkpt lat="41.69332" lon="0.98654">
        <ele>340.4</ele>
        <time>2022-05-23 17:36:10</time>
      </trkpt>
      <trkpt lat="41.69328" lon="0.9866">
        <ele>340.4</ele>
        <time>2022-05-23 17:36:11</time>
      </trkpt>
      <trkpt lat="41.69325" lon="0.98664">
        <ele>340.6</ele>
        <time>2022-05-23 17:36:12</time>
      </trkpt>
      <trkpt lat="41.69321" lon="0.9867">
        <ele>340.6</ele>
        <time>2022-05-23 17:36:13</time>
      </trkpt>
      <trkpt lat="41.69318" lon="0.98674">
        <ele>340.6</ele>
        <time>2022-05-23 17:36:14</time>
      </trkpt>
      <trkpt lat="41.69314" lon="0.98681">
        <ele>340.6</ele>
        <time>2022-05-23 17:36:15</time>
      </trkpt>
      <trkpt lat="41.69312" lon="0.98685">
        <ele>340.6</ele>
        <time>2022-05-23 17:36:16</time>
      </trkpt>
      <trkpt lat="41.69308" lon="0.98692">
        <ele>340.6</ele>
        <time>2022-05-23 17:36:17</time>
      </trkpt>
      <trkpt lat="41.69305" lon="0.98696">
        <ele>340.6</ele>
        <time>2022-05-23 17:36:18</time>
      </trkpt>
      <trkpt lat="41.69302" lon="0.98703">
        <ele>340.8</ele>
        <time>2022-05-23 17:36:19</time>
      </trkpt>
      <trkpt lat="41.69299" lon="0.98708">
        <ele>340.8</ele>
        <time>2022-05-23 17:36:20</time>
      </trkpt>
      <trkpt lat="41.69296" lon="0.98714">
        <ele>340.8</ele>
        <time>2022-05-23 17:36:21</time>
      </trkpt>
      <trkpt lat="41.69292" lon="0.9872">
        <ele>340.8</ele>
        <time>2022-05-23 17:36:22</time>
      </trkpt>
      <trkpt lat="41.69289" lon="0.98726">
        <ele>340.8</ele>
        <time>2022-05-23 17:36:23</time>
      </trkpt>
      <trkpt lat="41.69286" lon="0.98731">
        <ele>340.8</ele>
        <time>2022-05-23 17:36:24</time>
      </trkpt>
      <trkpt lat="41.69283" lon="0.98738">
        <ele>340.8</ele>
        <time>2022-05-23 17:36:25</time>
      </trkpt>
      <trkpt lat="41.6928" lon="0.98743">
        <ele>340.8</ele>
        <time>2022-05-23 17:36:26</time>
      </trkpt>
      <trkpt lat="41.69277" lon="0.98749">
        <ele>341</ele>
        <time>2022-05-23 17:36:27</time>
      </trkpt>
      <trkpt lat="41.69274" lon="0.98754">
        <ele>341</ele>
        <time>2022-05-23 17:36:28</time>
      </trkpt>
      <trkpt lat="41.69271" lon="0.9876">
        <ele>341</ele>
        <time>2022-05-23 17:36:29</time>
      </trkpt>
      <trkpt lat="41.69268" lon="0.98766">
        <ele>341</ele>
        <time>2022-05-23 17:36:30</time>
      </trkpt>
      <trkpt lat="41.69265" lon="0.98771">
        <ele>341</ele>
        <time>2022-05-23 17:36:31</time>
      </trkpt>
      <trkpt lat="41.69263" lon="0.98776">
        <ele>341</ele>
        <time>2022-05-23 17:36:32</time>
      </trkpt>
      <trkpt lat="41.6926" lon="0.98783">
        <ele>341</ele>
        <time>2022-05-23 17:36:33</time>
      </trkpt>
      <trkpt lat="41.69256" lon="0.98789">
        <ele>341</ele>
        <time>2022-05-23 17:36:34</time>
      </trkpt>
      <trkpt lat="41.69253" lon="0.98795">
        <ele>341</ele>
        <time>2022-05-23 17:36:35</time>
      </trkpt>
      <trkpt lat="41.6925" lon="0.988">
        <ele>341</ele>
        <time>2022-05-23 17:36:36</time>
      </trkpt>
      <trkpt lat="41.69245" lon="0.98808">
        <ele>341</ele>
        <time>2022-05-23 17:36:37</time>
      </trkpt>
      <trkpt lat="41.69243" lon="0.98813">
        <ele>341</ele>
        <time>2022-05-23 17:36:38</time>
      </trkpt>
      <trkpt lat="41.69239" lon="0.98821">
        <ele>341</ele>
        <time>2022-05-23 17:36:39</time>
      </trkpt>
      <trkpt lat="41.69235" lon="0.98827">
        <ele>341</ele>
        <time>2022-05-23 17:36:40</time>
      </trkpt>
      <trkpt lat="41.69231" lon="0.98834">
        <ele>341.2</ele>
        <time>2022-05-23 17:36:41</time>
      </trkpt>
      <trkpt lat="41.69229" lon="0.98839">
        <ele>341.2</ele>
        <time>2022-05-23 17:36:42</time>
      </trkpt>
      <trkpt lat="41.69225" lon="0.98847">
        <ele>341.4</ele>
        <time>2022-05-23 17:36:43</time>
      </trkpt>
      <trkpt lat="41.69222" lon="0.98852">
        <ele>341.4</ele>
        <time>2022-05-23 17:36:44</time>
      </trkpt>
      <trkpt lat="41.69219" lon="0.98859">
        <ele>341.6</ele>
        <time>2022-05-23 17:36:45</time>
      </trkpt>
      <trkpt lat="41.69216" lon="0.98864">
        <ele>341.6</ele>
        <time>2022-05-23 17:36:46</time>
      </trkpt>
      <trkpt lat="41.69213" lon="0.9887">
        <ele>341.6</ele>
        <time>2022-05-23 17:36:47</time>
      </trkpt>
      <trkpt lat="41.69209" lon="0.98876">
        <ele>341.8</ele>
        <time>2022-05-23 17:36:48</time>
      </trkpt>
      <trkpt lat="41.69205" lon="0.98882">
        <ele>341.8</ele>
        <time>2022-05-23 17:36:49</time>
      </trkpt>
      <trkpt lat="41.69203" lon="0.98887">
        <ele>341.8</ele>
        <time>2022-05-23 17:36:50</time>
      </trkpt>
      <trkpt lat="41.69198" lon="0.98893">
        <ele>341.8</ele>
        <time>2022-05-23 17:36:51</time>
      </trkpt>
      <trkpt lat="41.69195" lon="0.98898">
        <ele>341.8</ele>
        <time>2022-05-23 17:36:52</time>
      </trkpt>
      <trkpt lat="41.69191" lon="0.98904">
        <ele>341.8</ele>
        <time>2022-05-23 17:36:53</time>
      </trkpt>
      <trkpt lat="41.69187" lon="0.98909">
        <ele>341.8</ele>
        <time>2022-05-23 17:36:54</time>
      </trkpt>
      <trkpt lat="41.69183" lon="0.98914">
        <ele>342</ele>
        <time>2022-05-23 17:36:55</time>
      </trkpt>
      <trkpt lat="41.69179" lon="0.98919">
        <ele>342</ele>
        <time>2022-05-23 17:36:56</time>
      </trkpt>
      <trkpt lat="41.69175" lon="0.98924">
        <ele>342</ele>
        <time>2022-05-23 17:36:57</time>
      </trkpt>
      <trkpt lat="41.69172" lon="0.98928">
        <ele>342</ele>
        <time>2022-05-23 17:36:58</time>
      </trkpt>
      <trkpt lat="41.69167" lon="0.98933">
        <ele>342.2</ele>
        <time>2022-05-23 17:36:59</time>
      </trkpt>
      <trkpt lat="41.69163" lon="0.98937">
        <ele>342.2</ele>
        <time>2022-05-23 17:37:00</time>
      </trkpt>
      <trkpt lat="41.69158" lon="0.98942">
        <ele>342.2</ele>
        <time>2022-05-23 17:37:01</time>
      </trkpt>
      <trkpt lat="41.69154" lon="0.98945">
        <ele>342.4</ele>
        <time>2022-05-23 17:37:02</time>
      </trkpt>
      <trkpt lat="41.69149" lon="0.9895">
        <ele>342.4</ele>
        <time>2022-05-23 17:37:03</time>
      </trkpt>
      <trkpt lat="41.69145" lon="0.98953">
        <ele>342.4</ele>
        <time>2022-05-23 17:37:04</time>
      </trkpt>
      <trkpt lat="41.69139" lon="0.98956">
        <ele>342.6</ele>
        <time>2022-05-23 17:37:05</time>
      </trkpt>
      <trkpt lat="41.69136" lon="0.98959">
        <ele>342.6</ele>
        <time>2022-05-23 17:37:06</time>
      </trkpt>
      <trkpt lat="41.6913" lon="0.98962">
        <ele>342.8</ele>
        <time>2022-05-23 17:37:07</time>
      </trkpt>
      <trkpt lat="41.69126" lon="0.98965">
        <ele>343</ele>
        <time>2022-05-23 17:37:08</time>
      </trkpt>
      <trkpt lat="41.6912" lon="0.98968">
        <ele>343</ele>
        <time>2022-05-23 17:37:09</time>
      </trkpt>
      <trkpt lat="41.69116" lon="0.9897">
        <ele>343</ele>
        <time>2022-05-23 17:37:10</time>
      </trkpt>
      <trkpt lat="41.69111" lon="0.98972">
        <ele>343</ele>
        <time>2022-05-23 17:37:11</time>
      </trkpt>
      <trkpt lat="41.69106" lon="0.98974">
        <ele>343.2</ele>
        <time>2022-05-23 17:37:12</time>
      </trkpt>
      <trkpt lat="41.691" lon="0.98976">
        <ele>343.2</ele>
        <time>2022-05-23 17:37:13</time>
      </trkpt>
      <trkpt lat="41.69096" lon="0.98977">
        <ele>343.2</ele>
        <time>2022-05-23 17:37:14</time>
      </trkpt>
      <trkpt lat="41.6909" lon="0.98979">
        <ele>343.2</ele>
        <time>2022-05-23 17:37:15</time>
      </trkpt>
      <trkpt lat="41.69086" lon="0.9898">
        <ele>343.2</ele>
        <time>2022-05-23 17:37:16</time>
      </trkpt>
      <trkpt lat="41.6908" lon="0.98982">
        <ele>343.2</ele>
        <time>2022-05-23 17:37:17</time>
      </trkpt>
      <trkpt lat="41.69075" lon="0.98983">
        <ele>343.2</ele>
        <time>2022-05-23 17:37:18</time>
      </trkpt>
      <trkpt lat="41.6907" lon="0.98984">
        <ele>343.2</ele>
        <time>2022-05-23 17:37:19</time>
      </trkpt>
      <trkpt lat="41.69066" lon="0.98984">
        <ele>343.4</ele>
        <time>2022-05-23 17:37:20</time>
      </trkpt>
      <trkpt lat="41.6906" lon="0.98984">
        <ele>343.4</ele>
        <time>2022-05-23 17:37:21</time>
      </trkpt>
      <trkpt lat="41.69056" lon="0.98984">
        <ele>343.4</ele>
        <time>2022-05-23 17:37:22</time>
      </trkpt>
      <trkpt lat="41.6905" lon="0.98983">
        <ele>343.4</ele>
        <time>2022-05-23 17:37:23</time>
      </trkpt>
      <trkpt lat="41.69046" lon="0.98983">
        <ele>343.4</ele>
        <time>2022-05-23 17:37:24</time>
      </trkpt>
      <trkpt lat="41.6904" lon="0.98983">
        <ele>343.4</ele>
        <time>2022-05-23 17:37:25</time>
      </trkpt>
      <trkpt lat="41.69035" lon="0.98983">
        <ele>343.4</ele>
        <time>2022-05-23 17:37:26</time>
      </trkpt>
      <trkpt lat="41.69029" lon="0.98982">
        <ele>343.4</ele>
        <time>2022-05-23 17:37:27</time>
      </trkpt>
      <trkpt lat="41.69025" lon="0.98981">
        <ele>343.2</ele>
        <time>2022-05-23 17:37:28</time>
      </trkpt>
      <trkpt lat="41.69019" lon="0.9898">
        <ele>343.2</ele>
        <time>2022-05-23 17:37:29</time>
      </trkpt>
      <trkpt lat="41.69014" lon="0.98979">
        <ele>343.2</ele>
        <time>2022-05-23 17:37:30</time>
      </trkpt>
      <trkpt lat="41.69007" lon="0.98978">
        <ele>343.2</ele>
        <time>2022-05-23 17:37:31</time>
      </trkpt>
      <trkpt lat="41.69003" lon="0.98977">
        <ele>343.2</ele>
        <time>2022-05-23 17:37:32</time>
      </trkpt>
      <trkpt lat="41.68995" lon="0.98976">
        <ele>343.2</ele>
        <time>2022-05-23 17:37:33</time>
      </trkpt>
      <trkpt lat="41.6899" lon="0.98975">
        <ele>343.2</ele>
        <time>2022-05-23 17:37:34</time>
      </trkpt>
      <trkpt lat="41.68983" lon="0.98974">
        <ele>343.2</ele>
        <time>2022-05-23 17:37:35</time>
      </trkpt>
      <trkpt lat="41.68978" lon="0.98973">
        <ele>343.2</ele>
        <time>2022-05-23 17:37:36</time>
      </trkpt>
      <trkpt lat="41.68971" lon="0.98971">
        <ele>343</ele>
        <time>2022-05-23 17:37:37</time>
      </trkpt>
      <trkpt lat="41.68966" lon="0.98969">
        <ele>342.8</ele>
        <time>2022-05-23 17:37:38</time>
      </trkpt>
      <trkpt lat="41.68959" lon="0.98968">
        <ele>342.6</ele>
        <time>2022-05-23 17:37:39</time>
      </trkpt>
      <trkpt lat="41.68954" lon="0.98967">
        <ele>342.4</ele>
        <time>2022-05-23 17:37:40</time>
      </trkpt>
      <trkpt lat="41.68946" lon="0.98965">
        <ele>342.4</ele>
        <time>2022-05-23 17:37:41</time>
      </trkpt>
      <trkpt lat="41.6894" lon="0.98964">
        <ele>342.4</ele>
        <time>2022-05-23 17:37:42</time>
      </trkpt>
      <trkpt lat="41.68933" lon="0.98962">
        <ele>342.2</ele>
        <time>2022-05-23 17:37:43</time>
      </trkpt>
      <trkpt lat="41.68928" lon="0.98961">
        <ele>341.8</ele>
        <time>2022-05-23 17:37:44</time>
      </trkpt>
      <trkpt lat="41.6892" lon="0.9896">
        <ele>341.4</ele>
        <time>2022-05-23 17:37:45</time>
      </trkpt>
      <trkpt lat="41.68914" lon="0.98958">
        <ele>341.2</ele>
        <time>2022-05-23 17:37:46</time>
      </trkpt>
      <trkpt lat="41.68906" lon="0.98957">
        <ele>341</ele>
        <time>2022-05-23 17:37:47</time>
      </trkpt>
      <trkpt lat="41.689" lon="0.98956">
        <ele>340.8</ele>
        <time>2022-05-23 17:37:48</time>
      </trkpt>
      <trkpt lat="41.68893" lon="0.98955">
        <ele>340.6</ele>
        <time>2022-05-23 17:37:49</time>
      </trkpt>
      <trkpt lat="41.68887" lon="0.98954">
        <ele>340.6</ele>
        <time>2022-05-23 17:37:50</time>
      </trkpt>
      <trkpt lat="41.6888" lon="0.98953">
        <ele>340.6</ele>
        <time>2022-05-23 17:37:51</time>
      </trkpt>
      <trkpt lat="41.68874" lon="0.98953">
        <ele>340.4</ele>
        <time>2022-05-23 17:37:52</time>
      </trkpt>
      <trkpt lat="41.68867" lon="0.98951">
        <ele>340.4</ele>
        <time>2022-05-23 17:37:53</time>
      </trkpt>
      <trkpt lat="41.68861" lon="0.9895">
        <ele>340.4</ele>
        <time>2022-05-23 17:37:54</time>
      </trkpt>
      <trkpt lat="41.68854" lon="0.98949">
        <ele>340.2</ele>
        <time>2022-05-23 17:37:55</time>
      </trkpt>
      <trkpt lat="41.68849" lon="0.98948">
        <ele>340</ele>
        <time>2022-05-23 17:37:56</time>
      </trkpt>
      <trkpt lat="41.68842" lon="0.98946">
        <ele>339.8</ele>
        <time>2022-05-23 17:37:57</time>
      </trkpt>
      <trkpt lat="41.68836" lon="0.98945">
        <ele>339.8</ele>
        <time>2022-05-23 17:37:58</time>
      </trkpt>
      <trkpt lat="41.68829" lon="0.98943">
        <ele>339.8</ele>
        <time>2022-05-23 17:37:59</time>
      </trkpt>
      <trkpt lat="41.68824" lon="0.98942">
        <ele>339.6</ele>
        <time>2022-05-23 17:38:00</time>
      </trkpt>
      <trkpt lat="41.68817" lon="0.9894">
        <ele>339.6</ele>
        <time>2022-05-23 17:38:01</time>
      </trkpt>
      <trkpt lat="41.68813" lon="0.98938">
        <ele>339.4</ele>
        <time>2022-05-23 17:38:02</time>
      </trkpt>
      <trkpt lat="41.68806" lon="0.98934">
        <ele>339.2</ele>
        <time>2022-05-23 17:38:03</time>
      </trkpt>
      <trkpt lat="41.68803" lon="0.9893">
        <ele>339</ele>
        <time>2022-05-23 17:38:04</time>
      </trkpt>
      <trkpt lat="41.68798" lon="0.98923">
        <ele>339</ele>
        <time>2022-05-23 17:38:05</time>
      </trkpt>
      <trkpt lat="41.68796" lon="0.98919">
        <ele>338.8</ele>
        <time>2022-05-23 17:38:06</time>
      </trkpt>
      <trkpt lat="41.68791" lon="0.98913">
        <ele>338.8</ele>
        <time>2022-05-23 17:38:07</time>
      </trkpt>
      <trkpt lat="41.68788" lon="0.9891">
        <ele>338.8</ele>
        <time>2022-05-23 17:38:08</time>
      </trkpt>
      <trkpt lat="41.68782" lon="0.98907">
        <ele>338.8</ele>
        <time>2022-05-23 17:38:09</time>
      </trkpt>
      <trkpt lat="41.68778" lon="0.98905">
        <ele>339</ele>
        <time>2022-05-23 17:38:10</time>
      </trkpt>
      <trkpt lat="41.68772" lon="0.98903">
        <ele>339.2</ele>
        <time>2022-05-23 17:38:11</time>
      </trkpt>
      <trkpt lat="41.68768" lon="0.98902">
        <ele>339.2</ele>
        <time>2022-05-23 17:38:12</time>
      </trkpt>
      <trkpt lat="41.68761" lon="0.98899">
        <ele>339.2</ele>
        <time>2022-05-23 17:38:13</time>
      </trkpt>
      <trkpt lat="41.68757" lon="0.98896">
        <ele>339</ele>
        <time>2022-05-23 17:38:14</time>
      </trkpt>
      <trkpt lat="41.68751" lon="0.98891">
        <ele>339</ele>
        <time>2022-05-23 17:38:15</time>
      </trkpt>
      <trkpt lat="41.68748" lon="0.98887">
        <ele>339</ele>
        <time>2022-05-23 17:38:16</time>
      </trkpt>
      <trkpt lat="41.68743" lon="0.98881">
        <ele>339</ele>
        <time>2022-05-23 17:38:17</time>
      </trkpt>
      <trkpt lat="41.68739" lon="0.98878">
        <ele>339.2</ele>
        <time>2022-05-23 17:38:18</time>
      </trkpt>
      <trkpt lat="41.68734" lon="0.98873">
        <ele>339.4</ele>
        <time>2022-05-23 17:38:19</time>
      </trkpt>
      <trkpt lat="41.68731" lon="0.98869">
        <ele>339.6</ele>
        <time>2022-05-23 17:38:20</time>
      </trkpt>
      <trkpt lat="41.68726" lon="0.98863">
        <ele>339.8</ele>
        <time>2022-05-23 17:38:21</time>
      </trkpt>
      <trkpt lat="41.68723" lon="0.9886">
        <ele>339.8</ele>
        <time>2022-05-23 17:38:22</time>
      </trkpt>
      <trkpt lat="41.68717" lon="0.98854">
        <ele>340</ele>
        <time>2022-05-23 17:38:23</time>
      </trkpt>
      <trkpt lat="41.68714" lon="0.98851">
        <ele>340</ele>
        <time>2022-05-23 17:38:24</time>
      </trkpt>
      <trkpt lat="41.68708" lon="0.98846">
        <ele>340</ele>
        <time>2022-05-23 17:38:25</time>
      </trkpt>
      <trkpt lat="41.68704" lon="0.98843">
        <ele>340</ele>
        <time>2022-05-23 17:38:26</time>
      </trkpt>
      <trkpt lat="41.68699" lon="0.98839">
        <ele>340</ele>
        <time>2022-05-23 17:38:27</time>
      </trkpt>
      <trkpt lat="41.68695" lon="0.98837">
        <ele>340.2</ele>
        <time>2022-05-23 17:38:28</time>
      </trkpt>
      <trkpt lat="41.6869" lon="0.98834">
        <ele>340.2</ele>
        <time>2022-05-23 17:38:29</time>
      </trkpt>
      <trkpt lat="41.68687" lon="0.98832">
        <ele>340.4</ele>
        <time>2022-05-23 17:38:30</time>
      </trkpt>
      <trkpt lat="41.68681" lon="0.98829">
        <ele>340.6</ele>
        <time>2022-05-23 17:38:31</time>
      </trkpt>
      <trkpt lat="41.68677" lon="0.98827">
        <ele>340.8</ele>
        <time>2022-05-23 17:38:32</time>
      </trkpt>
      <trkpt lat="41.68672" lon="0.98825">
        <ele>340.8</ele>
        <time>2022-05-23 17:38:33</time>
      </trkpt>
      <trkpt lat="41.68668" lon="0.98823">
        <ele>341</ele>
        <time>2022-05-23 17:38:34</time>
      </trkpt>
      <trkpt lat="41.68663" lon="0.98821">
        <ele>341</ele>
        <time>2022-05-23 17:38:35</time>
      </trkpt>
      <trkpt lat="41.68659" lon="0.9882">
        <ele>341.2</ele>
        <time>2022-05-23 17:38:36</time>
      </trkpt>
      <trkpt lat="41.68653" lon="0.98818">
        <ele>341</ele>
        <time>2022-05-23 17:38:37</time>
      </trkpt>
      <trkpt lat="41.68648" lon="0.98817">
        <ele>341</ele>
        <time>2022-05-23 17:38:38</time>
      </trkpt>
      <trkpt lat="41.68643" lon="0.98815">
        <ele>341</ele>
        <time>2022-05-23 17:38:39</time>
      </trkpt>
      <trkpt lat="41.68638" lon="0.98814">
        <ele>341</ele>
        <time>2022-05-23 17:38:40</time>
      </trkpt>
      <trkpt lat="41.68633" lon="0.98812">
        <ele>340.8</ele>
        <time>2022-05-23 17:38:41</time>
      </trkpt>
      <trkpt lat="41.68629" lon="0.98811">
        <ele>340.8</ele>
        <time>2022-05-23 17:38:42</time>
      </trkpt>
      <trkpt lat="41.68622" lon="0.98809">
        <ele>340.6</ele>
        <time>2022-05-23 17:38:43</time>
      </trkpt>
      <trkpt lat="41.68617" lon="0.98808">
        <ele>340.6</ele>
        <time>2022-05-23 17:38:44</time>
      </trkpt>
      <trkpt lat="41.68611" lon="0.98807">
        <ele>340.6</ele>
        <time>2022-05-23 17:38:45</time>
      </trkpt>
      <trkpt lat="41.68607" lon="0.98806">
        <ele>340.6</ele>
        <time>2022-05-23 17:38:46</time>
      </trkpt>
      <trkpt lat="41.68601" lon="0.98804">
        <ele>340.6</ele>
        <time>2022-05-23 17:38:47</time>
      </trkpt>
      <trkpt lat="41.68597" lon="0.98803">
        <ele>340.6</ele>
        <time>2022-05-23 17:38:48</time>
      </trkpt>
      <trkpt lat="41.68591" lon="0.98801">
        <ele>340.6</ele>
        <time>2022-05-23 17:38:49</time>
      </trkpt>
      <trkpt lat="41.68587" lon="0.988">
        <ele>340.8</ele>
        <time>2022-05-23 17:38:50</time>
      </trkpt>
      <trkpt lat="41.68581" lon="0.98798">
        <ele>340.8</ele>
        <time>2022-05-23 17:38:51</time>
      </trkpt>
      <trkpt lat="41.68578" lon="0.98798">
        <ele>341</ele>
        <time>2022-05-23 17:38:52</time>
      </trkpt>
      <trkpt lat="41.68572" lon="0.98796">
        <ele>341</ele>
        <time>2022-05-23 17:38:53</time>
      </trkpt>
      <trkpt lat="41.68568" lon="0.98795">
        <ele>341.2</ele>
        <time>2022-05-23 17:38:54</time>
      </trkpt>
      <trkpt lat="41.68562" lon="0.98794">
        <ele>341.2</ele>
        <time>2022-05-23 17:38:55</time>
      </trkpt>
      <trkpt lat="41.68558" lon="0.98793">
        <ele>341.2</ele>
        <time>2022-05-23 17:38:56</time>
      </trkpt>
      <trkpt lat="41.68552" lon="0.98791">
        <ele>341.2</ele>
        <time>2022-05-23 17:38:57</time>
      </trkpt>
      <trkpt lat="41.68548" lon="0.98789">
        <ele>341.2</ele>
        <time>2022-05-23 17:38:58</time>
      </trkpt>
      <trkpt lat="41.68542" lon="0.98787">
        <ele>341.2</ele>
        <time>2022-05-23 17:38:59</time>
      </trkpt>
      <trkpt lat="41.68538" lon="0.98786">
        <ele>341.2</ele>
        <time>2022-05-23 17:39:00</time>
      </trkpt>
      <trkpt lat="41.68531" lon="0.98784">
        <ele>341</ele>
        <time>2022-05-23 17:39:01</time>
      </trkpt>
      <trkpt lat="41.68526" lon="0.98782">
        <ele>340.8</ele>
        <time>2022-05-23 17:39:02</time>
      </trkpt>
      <trkpt lat="41.68521" lon="0.9878">
        <ele>340.6</ele>
        <time>2022-05-23 17:39:03</time>
      </trkpt>
      <trkpt lat="41.68517" lon="0.98779">
        <ele>340.4</ele>
        <time>2022-05-23 17:39:04</time>
      </trkpt>
      <trkpt lat="41.6851" lon="0.98777">
        <ele>340.4</ele>
        <time>2022-05-23 17:39:05</time>
      </trkpt>
      <trkpt lat="41.68506" lon="0.98776">
        <ele>340.2</ele>
        <time>2022-05-23 17:39:06</time>
      </trkpt>
      <trkpt lat="41.685" lon="0.98774">
        <ele>340.2</ele>
        <time>2022-05-23 17:39:07</time>
      </trkpt>
      <trkpt lat="41.68495" lon="0.98772">
        <ele>340.2</ele>
        <time>2022-05-23 17:39:08</time>
      </trkpt>
      <trkpt lat="41.6849" lon="0.9877">
        <ele>340.2</ele>
        <time>2022-05-23 17:39:09</time>
      </trkpt>
      <trkpt lat="41.68484" lon="0.98769">
        <ele>340.2</ele>
        <time>2022-05-23 17:39:10</time>
      </trkpt>
      <trkpt lat="41.68479" lon="0.98767">
        <ele>340.2</ele>
        <time>2022-05-23 17:39:11</time>
      </trkpt>
      <trkpt lat="41.68474" lon="0.98765">
        <ele>340.4</ele>
        <time>2022-05-23 17:39:12</time>
      </trkpt>
      <trkpt lat="41.68469" lon="0.98763">
        <ele>340.4</ele>
        <time>2022-05-23 17:39:13</time>
      </trkpt>
      <trkpt lat="41.68463" lon="0.98761">
        <ele>340.4</ele>
        <time>2022-05-23 17:39:14</time>
      </trkpt>
      <trkpt lat="41.68458" lon="0.9876">
        <ele>340.4</ele>
        <time>2022-05-23 17:39:15</time>
      </trkpt>
      <trkpt lat="41.68453" lon="0.98758">
        <ele>340.6</ele>
        <time>2022-05-23 17:39:16</time>
      </trkpt>
      <trkpt lat="41.68447" lon="0.98756">
        <ele>340.4</ele>
        <time>2022-05-23 17:39:17</time>
      </trkpt>
      <trkpt lat="41.68443" lon="0.98754">
        <ele>340.4</ele>
        <time>2022-05-23 17:39:18</time>
      </trkpt>
      <trkpt lat="41.68438" lon="0.98752">
        <ele>340.4</ele>
        <time>2022-05-23 17:39:19</time>
      </trkpt>
      <trkpt lat="41.68433" lon="0.9875">
        <ele>340.4</ele>
        <time>2022-05-23 17:39:20</time>
      </trkpt>
      <trkpt lat="41.68427" lon="0.98748">
        <ele>340.2</ele>
        <time>2022-05-23 17:39:21</time>
      </trkpt>
      <trkpt lat="41.68422" lon="0.98746">
        <ele>340.2</ele>
        <time>2022-05-23 17:39:22</time>
      </trkpt>
      <trkpt lat="41.68416" lon="0.98745">
        <ele>340.2</ele>
        <time>2022-05-23 17:39:23</time>
      </trkpt>
      <trkpt lat="41.68412" lon="0.98743">
        <ele>340</ele>
        <time>2022-05-23 17:39:24</time>
      </trkpt>
      <trkpt lat="41.68407" lon="0.98741">
        <ele>340</ele>
        <time>2022-05-23 17:39:25</time>
      </trkpt>
      <trkpt lat="41.68402" lon="0.98739">
        <ele>339.8</ele>
        <time>2022-05-23 17:39:26</time>
      </trkpt>
      <trkpt lat="41.68397" lon="0.98738">
        <ele>339.6</ele>
        <time>2022-05-23 17:39:27</time>
      </trkpt>
      <trkpt lat="41.68394" lon="0.98737">
        <ele>339.6</ele>
        <time>2022-05-23 17:39:28</time>
      </trkpt>
      <trkpt lat="41.68388" lon="0.98735">
        <ele>339.4</ele>
        <time>2022-05-23 17:39:29</time>
      </trkpt>
      <trkpt lat="41.68384" lon="0.98733">
        <ele>339.4</ele>
        <time>2022-05-23 17:39:30</time>
      </trkpt>
      <trkpt lat="41.68379" lon="0.98731">
        <ele>339.4</ele>
        <time>2022-05-23 17:39:31</time>
      </trkpt>
      <trkpt lat="41.68377" lon="0.9873">
        <ele>339.4</ele>
        <time>2022-05-23 17:39:32</time>
      </trkpt>
      <trkpt lat="41.68373" lon="0.98729">
        <ele>339.6</ele>
        <time>2022-05-23 17:39:33</time>
      </trkpt>
      <trkpt lat="41.68369" lon="0.98728">
        <ele>339.6</ele>
        <time>2022-05-23 17:39:34</time>
      </trkpt>
      <trkpt lat="41.68366" lon="0.98727">
        <ele>339.6</ele>
        <time>2022-05-23 17:39:35</time>
      </trkpt>
      <trkpt lat="41.68363" lon="0.98726">
        <ele>339.8</ele>
        <time>2022-05-23 17:39:36</time>
      </trkpt>
      <trkpt lat="41.68359" lon="0.98726">
        <ele>340</ele>
        <time>2022-05-23 17:39:37</time>
      </trkpt>
      <trkpt lat="41.68356" lon="0.98725">
        <ele>340.4</ele>
        <time>2022-05-23 17:39:38</time>
      </trkpt>
      <trkpt lat="41.68352" lon="0.98724">
        <ele>340.8</ele>
        <time>2022-05-23 17:39:39</time>
      </trkpt>
      <trkpt lat="41.68349" lon="0.98724">
        <ele>340.8</ele>
        <time>2022-05-23 17:39:40</time>
      </trkpt>
      <trkpt lat="41.68345" lon="0.98722">
        <ele>340.8</ele>
        <time>2022-05-23 17:39:41</time>
      </trkpt>
      <trkpt lat="41.68341" lon="0.9872">
        <ele>340.8</ele>
        <time>2022-05-23 17:39:42</time>
      </trkpt>
      <trkpt lat="41.68337" lon="0.98718">
        <ele>341</ele>
        <time>2022-05-23 17:39:43</time>
      </trkpt>
      <trkpt lat="41.68333" lon="0.98715">
        <ele>340.8</ele>
        <time>2022-05-23 17:39:44</time>
      </trkpt>
      <trkpt lat="41.6833" lon="0.98711">
        <ele>340.6</ele>
        <time>2022-05-23 17:39:45</time>
      </trkpt>
      <trkpt lat="41.68327" lon="0.98708">
        <ele>340.4</ele>
        <time>2022-05-23 17:39:46</time>
      </trkpt>
      <trkpt lat="41.68323" lon="0.98703">
        <ele>340.2</ele>
        <time>2022-05-23 17:39:47</time>
      </trkpt>
      <trkpt lat="41.68321" lon="0.987">
        <ele>340.2</ele>
        <time>2022-05-23 17:39:48</time>
      </trkpt>
      <trkpt lat="41.68318" lon="0.98697">
        <ele>340.2</ele>
        <time>2022-05-23 17:39:49</time>
      </trkpt>
      <trkpt lat="41.68315" lon="0.98694">
        <ele>340.2</ele>
        <time>2022-05-23 17:39:50</time>
      </trkpt>
      <trkpt lat="41.68313" lon="0.9869">
        <ele>340.2</ele>
        <time>2022-05-23 17:39:51</time>
      </trkpt>
      <trkpt lat="41.6831" lon="0.98686">
        <ele>340.2</ele>
        <time>2022-05-23 17:39:52</time>
      </trkpt>
      <trkpt lat="41.68306" lon="0.98682">
        <ele>340</ele>
        <time>2022-05-23 17:39:53</time>
      </trkpt>
      <trkpt lat="41.68302" lon="0.98679">
        <ele>339.8</ele>
        <time>2022-05-23 17:39:54</time>
      </trkpt>
      <trkpt lat="41.68299" lon="0.98677">
        <ele>339.8</ele>
        <time>2022-05-23 17:39:55</time>
      </trkpt>
      <trkpt lat="41.68295" lon="0.98673">
        <ele>339.6</ele>
        <time>2022-05-23 17:39:56</time>
      </trkpt>
      <trkpt lat="41.68291" lon="0.9867">
        <ele>339.4</ele>
        <time>2022-05-23 17:39:57</time>
      </trkpt>
      <trkpt lat="41.68287" lon="0.98667">
        <ele>339.2</ele>
        <time>2022-05-23 17:39:58</time>
      </trkpt>
      <trkpt lat="41.68284" lon="0.98664">
        <ele>339.2</ele>
        <time>2022-05-23 17:39:59</time>
      </trkpt>
      <trkpt lat="41.68281" lon="0.98662">
        <ele>339.2</ele>
        <time>2022-05-23 17:40:00</time>
      </trkpt>
      <trkpt lat="41.68277" lon="0.98659">
        <ele>339.2</ele>
        <time>2022-05-23 17:40:01</time>
      </trkpt>
      <trkpt lat="41.68273" lon="0.98655">
        <ele>339.2</ele>
        <time>2022-05-23 17:40:02</time>
      </trkpt>
      <trkpt lat="41.68271" lon="0.98652">
        <ele>339.2</ele>
        <time>2022-05-23 17:40:03</time>
      </trkpt>
      <trkpt lat="41.68269" lon="0.98647">
        <ele>339.2</ele>
        <time>2022-05-23 17:40:04</time>
      </trkpt>
      <trkpt lat="41.68267" lon="0.98643">
        <ele>339.2</ele>
        <time>2022-05-23 17:40:05</time>
      </trkpt>
      <trkpt lat="41.68265" lon="0.98639">
        <ele>339.2</ele>
        <time>2022-05-23 17:40:06</time>
      </trkpt>
      <trkpt lat="41.68262" lon="0.98636">
        <ele>339.2</ele>
        <time>2022-05-23 17:40:07</time>
      </trkpt>
      <trkpt lat="41.68259" lon="0.98635">
        <ele>339.2</ele>
        <time>2022-05-23 17:40:08</time>
      </trkpt>
      <trkpt lat="41.68255" lon="0.98634">
        <ele>339</ele>
        <time>2022-05-23 17:40:09</time>
      </trkpt>
      <trkpt lat="41.6825" lon="0.98634">
        <ele>339</ele>
        <time>2022-05-23 17:40:10</time>
      </trkpt>
      <trkpt lat="41.68244" lon="0.98635">
        <ele>338.8</ele>
        <time>2022-05-23 17:40:11</time>
      </trkpt>
      <trkpt lat="41.68239" lon="0.98636">
        <ele>338.6</ele>
        <time>2022-05-23 17:40:12</time>
      </trkpt>
      <trkpt lat="41.68234" lon="0.98638">
        <ele>338.4</ele>
        <time>2022-05-23 17:40:13</time>
      </trkpt>
      <trkpt lat="41.68228" lon="0.9864">
        <ele>338.4</ele>
        <time>2022-05-23 17:40:14</time>
      </trkpt>
      <trkpt lat="41.68222" lon="0.98641">
        <ele>338.2</ele>
        <time>2022-05-23 17:40:15</time>
      </trkpt>
      <trkpt lat="41.68217" lon="0.98643">
        <ele>338</ele>
        <time>2022-05-23 17:40:16</time>
      </trkpt>
      <trkpt lat="41.68212" lon="0.98644">
        <ele>337.8</ele>
        <time>2022-05-23 17:40:17</time>
      </trkpt>
      <trkpt lat="41.68206" lon="0.98646">
        <ele>337.8</ele>
        <time>2022-05-23 17:40:18</time>
      </trkpt>
      <trkpt lat="41.68201" lon="0.98647">
        <ele>337.6</ele>
        <time>2022-05-23 17:40:19</time>
      </trkpt>
      <trkpt lat="41.68195" lon="0.98648">
        <ele>337.6</ele>
        <time>2022-05-23 17:40:20</time>
      </trkpt>
      <trkpt lat="41.68191" lon="0.98647">
        <ele>337.8</ele>
        <time>2022-05-23 17:40:21</time>
      </trkpt>
      <trkpt lat="41.68186" lon="0.98647">
        <ele>337.8</ele>
        <time>2022-05-23 17:40:22</time>
      </trkpt>
      <trkpt lat="41.68182" lon="0.98646">
        <ele>338</ele>
        <time>2022-05-23 17:40:23</time>
      </trkpt>
      <trkpt lat="41.68178" lon="0.98646">
        <ele>338.2</ele>
        <time>2022-05-23 17:40:24</time>
      </trkpt>
      <trkpt lat="41.68174" lon="0.98645">
        <ele>338.2</ele>
        <time>2022-05-23 17:40:25</time>
      </trkpt>
      <trkpt lat="41.68171" lon="0.98645">
        <ele>338.4</ele>
        <time>2022-05-23 17:40:26</time>
      </trkpt>
      <trkpt lat="41.68167" lon="0.98645">
        <ele>338.4</ele>
        <time>2022-05-23 17:40:27</time>
      </trkpt>
      <trkpt lat="41.68163" lon="0.98645">
        <ele>338.4</ele>
        <time>2022-05-23 17:40:28</time>
      </trkpt>
      <trkpt lat="41.68159" lon="0.98644">
        <ele>338.6</ele>
        <time>2022-05-23 17:40:29</time>
      </trkpt>
      <trkpt lat="41.68156" lon="0.98643">
        <ele>338.6</ele>
        <time>2022-05-23 17:40:30</time>
      </trkpt>
      <trkpt lat="41.68153" lon="0.98642">
        <ele>338.6</ele>
        <time>2022-05-23 17:40:31</time>
      </trkpt>
      <trkpt lat="41.6815" lon="0.98641">
        <ele>338.6</ele>
        <time>2022-05-23 17:40:32</time>
      </trkpt>
      <trkpt lat="41.68147" lon="0.98641">
        <ele>338.8</ele>
        <time>2022-05-23 17:40:33</time>
      </trkpt>
      <trkpt lat="41.68144" lon="0.98641">
        <ele>339</ele>
        <time>2022-05-23 17:40:34</time>
      </trkpt>
      <trkpt lat="41.68141" lon="0.98641">
        <ele>339.2</ele>
        <time>2022-05-23 17:40:35</time>
      </trkpt>
      <trkpt lat="41.68139" lon="0.9864">
        <ele>339.4</ele>
        <time>2022-05-23 17:40:36</time>
      </trkpt>
      <trkpt lat="41.68136" lon="0.98639">
        <ele>339.4</ele>
        <time>2022-05-23 17:40:37</time>
      </trkpt>
      <trkpt lat="41.68133" lon="0.98638">
        <ele>339.6</ele>
        <time>2022-05-23 17:40:38</time>
      </trkpt>
      <trkpt lat="41.68131" lon="0.98636">
        <ele>339.8</ele>
        <time>2022-05-23 17:40:39</time>
      </trkpt>
      <trkpt lat="41.6813" lon="0.98635">
        <ele>339.8</ele>
        <time>2022-05-23 17:40:40</time>
      </trkpt>
      <trkpt lat="41.68127" lon="0.98633">
        <ele>339.8</ele>
        <time>2022-05-23 17:40:41</time>
      </trkpt>
      <trkpt lat="41.68125" lon="0.98632">
        <ele>340</ele>
        <time>2022-05-23 17:40:42</time>
      </trkpt>
      <trkpt lat="41.68124" lon="0.98631">
        <ele>340.2</ele>
        <time>2022-05-23 17:40:43</time>
      </trkpt>
      <trkpt lat="41.68122" lon="0.98629">
        <ele>340.2</ele>
        <time>2022-05-23 17:40:44</time>
      </trkpt>
      <trkpt lat="41.68121" lon="0.98628">
        <ele>340.2</ele>
        <time>2022-05-23 17:40:45</time>
      </trkpt>
      <trkpt lat="41.6812" lon="0.98626">
        <ele>340.2</ele>
        <time>2022-05-23 17:40:46</time>
      </trkpt>
      <trkpt lat="41.68118" lon="0.98623">
        <ele>340.2</ele>
        <time>2022-05-23 17:40:47</time>
      </trkpt>
      <trkpt lat="41.68117" lon="0.9862">
        <ele>340.2</ele>
        <time>2022-05-23 17:40:48</time>
      </trkpt>
      <trkpt lat="41.68115" lon="0.98617">
        <ele>340.2</ele>
        <time>2022-05-23 17:40:49</time>
      </trkpt>
      <trkpt lat="41.68112" lon="0.98616">
        <ele>340.4</ele>
        <time>2022-05-23 17:40:50</time>
      </trkpt>
      <trkpt lat="41.68109" lon="0.98614">
        <ele>340.4</ele>
        <time>2022-05-23 17:40:51</time>
      </trkpt>
      <trkpt lat="41.68107" lon="0.98613">
        <ele>340.6</ele>
        <time>2022-05-23 17:40:52</time>
      </trkpt>
      <trkpt lat="41.68105" lon="0.98613">
        <ele>340.6</ele>
        <time>2022-05-23 17:40:53</time>
      </trkpt>
      <trkpt lat="41.68101" lon="0.98612">
        <ele>340.8</ele>
        <time>2022-05-23 17:40:54</time>
      </trkpt>
      <trkpt lat="41.68099" lon="0.98611">
        <ele>340.8</ele>
        <time>2022-05-23 17:40:55</time>
      </trkpt>
      <trkpt lat="41.68097" lon="0.9861">
        <ele>341</ele>
        <time>2022-05-23 17:40:56</time>
      </trkpt>
      <trkpt lat="41.68096" lon="0.98609">
        <ele>341</ele>
        <time>2022-05-23 17:40:57</time>
      </trkpt>
      <trkpt lat="41.68092" lon="0.98608">
        <ele>341.2</ele>
        <time>2022-05-23 17:40:58</time>
      </trkpt>
      <trkpt lat="41.6809" lon="0.98609">
        <ele>341.2</ele>
        <time>2022-05-23 17:40:59</time>
      </trkpt>
      <trkpt lat="41.68088" lon="0.9861">
        <ele>341.4</ele>
        <time>2022-05-23 17:41:00</time>
      </trkpt>
      <trkpt lat="41.68085" lon="0.9861">
        <ele>341.4</ele>
        <time>2022-05-23 17:41:01</time>
      </trkpt>
      <trkpt lat="41.68084" lon="0.9861">
        <ele>341.4</ele>
        <time>2022-05-23 17:41:02</time>
      </trkpt>
      <trkpt lat="41.68081" lon="0.9861">
        <ele>341.4</ele>
        <time>2022-05-23 17:41:03</time>
      </trkpt>
      <trkpt lat="41.68079" lon="0.98611">
        <ele>341.4</ele>
        <time>2022-05-23 17:41:04</time>
      </trkpt>
      <trkpt lat="41.68076" lon="0.98611">
        <ele>341.4</ele>
        <time>2022-05-23 17:41:05</time>
      </trkpt>
      <trkpt lat="41.68074" lon="0.98611">
        <ele>341.4</ele>
        <time>2022-05-23 17:41:06</time>
      </trkpt>
      <trkpt lat="41.68072" lon="0.98612">
        <ele>341.4</ele>
        <time>2022-05-23 17:41:07</time>
      </trkpt>
      <trkpt lat="41.6807" lon="0.98612">
        <ele>341.4</ele>
        <time>2022-05-23 17:41:08</time>
      </trkpt>
      <trkpt lat="41.68069" lon="0.98612">
        <ele>341.4</ele>
        <time>2022-05-23 17:41:09</time>
      </trkpt>
      <trkpt lat="41.68067" lon="0.98611">
        <ele>341.4</ele>
        <time>2022-05-23 17:41:10</time>
      </trkpt>
      <trkpt lat="41.68066" lon="0.98611">
        <ele>341.4</ele>
        <time>2022-05-23 17:41:11</time>
      </trkpt>
      <trkpt lat="41.68064" lon="0.9861">
        <ele>341.4</ele>
        <time>2022-05-23 17:41:12</time>
      </trkpt>
      <trkpt lat="41.68062" lon="0.9861">
        <ele>341.4</ele>
        <time>2022-05-23 17:41:13</time>
      </trkpt>
      <trkpt lat="41.6806" lon="0.98609">
        <ele>341.4</ele>
        <time>2022-05-23 17:41:14</time>
      </trkpt>
      <trkpt lat="41.68058" lon="0.98609">
        <ele>341.4</ele>
        <time>2022-05-23 17:41:15</time>
      </trkpt>
      <trkpt lat="41.68057" lon="0.98609">
        <ele>341.4</ele>
        <time>2022-05-23 17:41:16</time>
      </trkpt>
      <trkpt lat="41.68055" lon="0.98609">
        <ele>341.4</ele>
        <time>2022-05-23 17:41:17</time>
      </trkpt>
      <trkpt lat="41.68053" lon="0.98608">
        <ele>341.6</ele>
        <time>2022-05-23 17:41:18</time>
      </trkpt>
      <trkpt lat="41.68051" lon="0.98607">
        <ele>341.6</ele>
        <time>2022-05-23 17:41:19</time>
      </trkpt>
      <trkpt lat="41.6805" lon="0.98606">
        <ele>341.6</ele>
        <time>2022-05-23 17:41:20</time>
      </trkpt>
      <trkpt lat="41.68048" lon="0.98605">
        <ele>341.8</ele>
        <time>2022-05-23 17:41:21</time>
      </trkpt>
      <trkpt lat="41.68047" lon="0.98604">
        <ele>341.8</ele>
        <time>2022-05-23 17:41:22</time>
      </trkpt>
      <trkpt lat="41.68045" lon="0.98602">
        <ele>341.8</ele>
        <time>2022-05-23 17:41:23</time>
      </trkpt>
      <trkpt lat="41.68043" lon="0.98602">
        <ele>342</ele>
        <time>2022-05-23 17:41:24</time>
      </trkpt>
      <trkpt lat="41.68041" lon="0.98602">
        <ele>342</ele>
        <time>2022-05-23 17:41:25</time>
      </trkpt>
      <trkpt lat="41.68039" lon="0.98601">
        <ele>342</ele>
        <time>2022-05-23 17:41:26</time>
      </trkpt>
      <trkpt lat="41.68037" lon="0.98601">
        <ele>342.2</ele>
        <time>2022-05-23 17:41:27</time>
      </trkpt>
      <trkpt lat="41.68034" lon="0.986">
        <ele>342.2</ele>
        <time>2022-05-23 17:41:28</time>
      </trkpt>
      <trkpt lat="41.68032" lon="0.98599">
        <ele>342.2</ele>
        <time>2022-05-23 17:41:29</time>
      </trkpt>
      <trkpt lat="41.6803" lon="0.98598">
        <ele>342.2</ele>
        <time>2022-05-23 17:41:30</time>
      </trkpt>
      <trkpt lat="41.68028" lon="0.98597">
        <ele>342.2</ele>
        <time>2022-05-23 17:41:31</time>
      </trkpt>
      <trkpt lat="41.68026" lon="0.98596">
        <ele>342.2</ele>
        <time>2022-05-23 17:41:32</time>
      </trkpt>
      <trkpt lat="41.68024" lon="0.98595">
        <ele>342.2</ele>
        <time>2022-05-23 17:41:33</time>
      </trkpt>
      <trkpt lat="41.68021" lon="0.98594">
        <ele>342.2</ele>
        <time>2022-05-23 17:41:34</time>
      </trkpt>
      <trkpt lat="41.68019" lon="0.98592">
        <ele>342.2</ele>
        <time>2022-05-23 17:41:35</time>
      </trkpt>
      <trkpt lat="41.68018" lon="0.98591">
        <ele>342.2</ele>
        <time>2022-05-23 17:41:36</time>
      </trkpt>
      <trkpt lat="41.68016" lon="0.98589">
        <ele>342.2</ele>
        <time>2022-05-23 17:41:37</time>
      </trkpt>
      <trkpt lat="41.68015" lon="0.98587">
        <ele>342.2</ele>
        <time>2022-05-23 17:41:38</time>
      </trkpt>
      <trkpt lat="41.68015" lon="0.98585">
        <ele>342.2</ele>
        <time>2022-05-23 17:41:39</time>
      </trkpt>
      <trkpt lat="41.68015" lon="0.98583">
        <ele>342.2</ele>
        <time>2022-05-23 17:41:40</time>
      </trkpt>
      <trkpt lat="41.68015" lon="0.98581">
        <ele>342.2</ele>
        <time>2022-05-23 17:41:41</time>
      </trkpt>
      <trkpt lat="41.68016" lon="0.98579">
        <ele>342.4</ele>
        <time>2022-05-23 17:41:42</time>
      </trkpt>
      <trkpt lat="41.68016" lon="0.98577">
        <ele>342.4</ele>
        <time>2022-05-23 17:41:43</time>
      </trkpt>
      <trkpt lat="41.68016" lon="0.98575">
        <ele>342.4</ele>
        <time>2022-05-23 17:41:44</time>
      </trkpt>
      <trkpt lat="41.68017" lon="0.98574">
        <ele>342.4</ele>
        <time>2022-05-23 17:41:45</time>
      </trkpt>
      <trkpt lat="41.68017" lon="0.98574">
        <ele>342.4</ele>
        <time>2022-05-23 17:41:46</time>
      </trkpt>
      <trkpt lat="41.67982" lon="0.98566">
        <ele>342.6</ele>
        <time>2022-05-23 17:41:47</time>
      </trkpt>
      <trkpt lat="41.6798" lon="0.98565">
        <ele>342.6</ele>
        <time>2022-05-23 17:41:48</time>
      </trkpt>
      <trkpt lat="41.67979" lon="0.98563">
        <ele>342.6</ele>
        <time>2022-05-23 17:41:49</time>
      </trkpt>
      <trkpt lat="41.67977" lon="0.98561">
        <ele>342.8</ele>
        <time>2022-05-23 17:41:50</time>
      </trkpt>
      <trkpt lat="41.67976" lon="0.9856">
        <ele>343</ele>
        <time>2022-05-23 17:41:51</time>
      </trkpt>
      <trkpt lat="41.67974" lon="0.98559">
        <ele>343</ele>
        <time>2022-05-23 17:41:52</time>
      </trkpt>
      <trkpt lat="41.67972" lon="0.98559">
        <ele>343.2</ele>
        <time>2022-05-23 17:41:53</time>
      </trkpt>
      <trkpt lat="41.6797" lon="0.9856">
        <ele>343.2</ele>
        <time>2022-05-23 17:41:54</time>
      </trkpt>
      <trkpt lat="41.67968" lon="0.9856">
        <ele>343.4</ele>
        <time>2022-05-23 17:41:55</time>
      </trkpt>
      <trkpt lat="41.67965" lon="0.98561">
        <ele>343.4</ele>
        <time>2022-05-23 17:41:56</time>
      </trkpt>
      <trkpt lat="41.67963" lon="0.98561">
        <ele>343.4</ele>
        <time>2022-05-23 17:41:57</time>
      </trkpt>
      <trkpt lat="41.6796" lon="0.98562">
        <ele>343.4</ele>
        <time>2022-05-23 17:41:58</time>
      </trkpt>
      <trkpt lat="41.67958" lon="0.98563">
        <ele>343.4</ele>
        <time>2022-05-23 17:41:59</time>
      </trkpt>
      <trkpt lat="41.67956" lon="0.98563">
        <ele>343.6</ele>
        <time>2022-05-23 17:42:00</time>
      </trkpt>
      <trkpt lat="41.67953" lon="0.98563">
        <ele>343.6</ele>
        <time>2022-05-23 17:42:01</time>
      </trkpt>
      <trkpt lat="41.67951" lon="0.98563">
        <ele>343.6</ele>
        <time>2022-05-23 17:42:02</time>
      </trkpt>
      <trkpt lat="41.67949" lon="0.98562">
        <ele>343.6</ele>
        <time>2022-05-23 17:42:03</time>
      </trkpt>
      <trkpt lat="41.67946" lon="0.98561">
        <ele>343.6</ele>
        <time>2022-05-23 17:42:04</time>
      </trkpt>
      <trkpt lat="41.67944" lon="0.9856">
        <ele>343.6</ele>
        <time>2022-05-23 17:42:05</time>
      </trkpt>
      <trkpt lat="41.67941" lon="0.98558">
        <ele>343.6</ele>
        <time>2022-05-23 17:42:06</time>
      </trkpt>
      <trkpt lat="41.67939" lon="0.98555">
        <ele>343.6</ele>
        <time>2022-05-23 17:42:07</time>
      </trkpt>
      <trkpt lat="41.67936" lon="0.98553">
        <ele>343.8</ele>
        <time>2022-05-23 17:42:08</time>
      </trkpt>
      <trkpt lat="41.67934" lon="0.9855">
        <ele>343.6</ele>
        <time>2022-05-23 17:42:09</time>
      </trkpt>
      <trkpt lat="41.67931" lon="0.98548">
        <ele>343.6</ele>
        <time>2022-05-23 17:42:10</time>
      </trkpt>
      <trkpt lat="41.67928" lon="0.98546">
        <ele>343.6</ele>
        <time>2022-05-23 19:03:14</time>
      </trkpt>
      <trkpt lat="41.67925" lon="0.98544">
        <ele>343.6</ele>
        <time>2022-05-23 19:03:15</time>
      </trkpt>
      <trkpt lat="41.67922" lon="0.98542">
        <ele>343.6</ele>
        <time>2022-05-23 19:03:16</time>
      </trkpt>
      <trkpt lat="41.67918" lon="0.9854">
        <ele>343.6</ele>
        <time>2022-05-23 19:03:17</time>
      </trkpt>
      <trkpt lat="41.67914" lon="0.98538">
        <ele>343.6</ele>
        <time>2022-05-23 19:03:18</time>
      </trkpt>
      <trkpt lat="41.6791" lon="0.98536">
        <ele>343.6</ele>
        <time>2022-05-23 19:03:19</time>
      </trkpt>
      <trkpt lat="41.67907" lon="0.98535">
        <ele>343.6</ele>
        <time>2022-05-23 19:03:20</time>
      </trkpt>
      <trkpt lat="41.67903" lon="0.98533">
        <ele>343.8</ele>
        <time>2022-05-23 19:03:21</time>
      </trkpt>
      <trkpt lat="41.67899" lon="0.9853">
        <ele>343.8</ele>
        <time>2022-05-23 19:03:22</time>
      </trkpt>
      <trkpt lat="41.67896" lon="0.98528">
        <ele>343.6</ele>
        <time>2022-05-23 19:03:23</time>
      </trkpt>
      <trkpt lat="41.67892" lon="0.98526">
        <ele>343.6</ele>
        <time>2022-05-23 19:03:24</time>
      </trkpt>
      <trkpt lat="41.67888" lon="0.98523">
        <ele>343.6</ele>
        <time>2022-05-23 19:03:25</time>
      </trkpt>
      <trkpt lat="41.67884" lon="0.98521">
        <ele>343.6</ele>
        <time>2022-05-23 19:03:26</time>
      </trkpt>
      <trkpt lat="41.67881" lon="0.9852">
        <ele>343.6</ele>
        <time>2022-05-23 19:03:27</time>
      </trkpt>
      <trkpt lat="41.67877" lon="0.98518">
        <ele>343.6</ele>
        <time>2022-05-23 19:03:28</time>
      </trkpt>
      <trkpt lat="41.67873" lon="0.98515">
        <ele>343.6</ele>
        <time>2022-05-23 19:03:29</time>
      </trkpt>
      <trkpt lat="41.67869" lon="0.98514">
        <ele>343.6</ele>
        <time>2022-05-23 19:03:30</time>
      </trkpt>
      <trkpt lat="41.67865" lon="0.98511">
        <ele>343.6</ele>
        <time>2022-05-23 19:03:31</time>
      </trkpt>
      <trkpt lat="41.67862" lon="0.9851">
        <ele>343.6</ele>
        <time>2022-05-23 19:03:32</time>
      </trkpt>
      <trkpt lat="41.67858" lon="0.98508">
        <ele>343.4</ele>
        <time>2022-05-23 19:03:33</time>
      </trkpt>
      <trkpt lat="41.67855" lon="0.98506">
        <ele>343.4</ele>
        <time>2022-05-23 19:03:34</time>
      </trkpt>
      <trkpt lat="41.67851" lon="0.98505">
        <ele>343.4</ele>
        <time>2022-05-23 19:03:35</time>
      </trkpt>
      <trkpt lat="41.67848" lon="0.98503">
        <ele>343.4</ele>
        <time>2022-05-23 19:03:36</time>
      </trkpt>
      <trkpt lat="41.67844" lon="0.98501">
        <ele>343.2</ele>
        <time>2022-05-23 19:03:37</time>
      </trkpt>
      <trkpt lat="41.67841" lon="0.98499">
        <ele>343.2</ele>
        <time>2022-05-23 19:03:38</time>
      </trkpt>
      <trkpt lat="41.67837" lon="0.98496">
        <ele>343.4</ele>
        <time>2022-05-23 19:03:39</time>
      </trkpt>
      <trkpt lat="41.67833" lon="0.98494">
        <ele>343.4</ele>
        <time>2022-05-23 19:03:40</time>
      </trkpt>
      <trkpt lat="41.67829" lon="0.98492">
        <ele>343.6</ele>
        <time>2022-05-23 19:03:41</time>
      </trkpt>
      <trkpt lat="41.67825" lon="0.98489">
        <ele>343.8</ele>
        <time>2022-05-23 19:03:42</time>
      </trkpt>
      <trkpt lat="41.67821" lon="0.98487">
        <ele>344</ele>
        <time>2022-05-23 19:03:43</time>
      </trkpt>
      <trkpt lat="41.67816" lon="0.98485">
        <ele>344.2</ele>
        <time>2022-05-23 19:03:44</time>
      </trkpt>
      <trkpt lat="41.67812" lon="0.98483">
        <ele>344.2</ele>
        <time>2022-05-23 19:03:45</time>
      </trkpt>
      <trkpt lat="41.67807" lon="0.9848">
        <ele>344.4</ele>
        <time>2022-05-23 19:03:46</time>
      </trkpt>
      <trkpt lat="41.67803" lon="0.98478">
        <ele>344.6</ele>
        <time>2022-05-23 19:03:47</time>
      </trkpt>
      <trkpt lat="41.67799" lon="0.98476">
        <ele>344.6</ele>
        <time>2022-05-23 19:03:48</time>
      </trkpt>
      <trkpt lat="41.67795" lon="0.98474">
        <ele>344.8</ele>
        <time>2022-05-23 19:03:49</time>
      </trkpt>
      <trkpt lat="41.6779" lon="0.98471">
        <ele>344.8</ele>
        <time>2022-05-23 19:03:50</time>
      </trkpt>
      <trkpt lat="41.67786" lon="0.98469">
        <ele>345</ele>
        <time>2022-05-23 19:03:51</time>
      </trkpt>
      <trkpt lat="41.67782" lon="0.98467">
        <ele>345</ele>
        <time>2022-05-23 19:03:52</time>
      </trkpt>
      <trkpt lat="41.67778" lon="0.98464">
        <ele>345</ele>
        <time>2022-05-23 19:03:53</time>
      </trkpt>
      <trkpt lat="41.67774" lon="0.98462">
        <ele>345.2</ele>
        <time>2022-05-23 19:03:54</time>
      </trkpt>
      <trkpt lat="41.6777" lon="0.9846">
        <ele>345.2</ele>
        <time>2022-05-23 19:03:55</time>
      </trkpt>
      <trkpt lat="41.67765" lon="0.98457">
        <ele>345.2</ele>
        <time>2022-05-23 19:03:56</time>
      </trkpt>
      <trkpt lat="41.67761" lon="0.98455">
        <ele>345.2</ele>
        <time>2022-05-23 19:03:57</time>
      </trkpt>
      <trkpt lat="41.67756" lon="0.98452">
        <ele>345.2</ele>
        <time>2022-05-23 19:03:58</time>
      </trkpt>
      <trkpt lat="41.67752" lon="0.9845">
        <ele>345.2</ele>
        <time>2022-05-23 19:03:59</time>
      </trkpt>
      <trkpt lat="41.67748" lon="0.98447">
        <ele>345</ele>
        <time>2022-05-23 19:04:00</time>
      </trkpt>
      <trkpt lat="41.67744" lon="0.98445">
        <ele>345</ele>
        <time>2022-05-23 19:04:01</time>
      </trkpt>
      <trkpt lat="41.67739" lon="0.98442">
        <ele>344.8</ele>
        <time>2022-05-23 19:04:02</time>
      </trkpt>
      <trkpt lat="41.67735" lon="0.9844">
        <ele>344.8</ele>
        <time>2022-05-23 19:04:03</time>
      </trkpt>
      <trkpt lat="41.67731" lon="0.98438">
        <ele>344.8</ele>
        <time>2022-05-23 19:04:04</time>
      </trkpt>
      <trkpt lat="41.67727" lon="0.98436">
        <ele>344.8</ele>
        <time>2022-05-23 19:04:05</time>
      </trkpt>
      <trkpt lat="41.67722" lon="0.98434">
        <ele>345</ele>
        <time>2022-05-23 19:04:06</time>
      </trkpt>
      <trkpt lat="41.67718" lon="0.98432">
        <ele>345</ele>
        <time>2022-05-23 19:04:07</time>
      </trkpt>
      <trkpt lat="41.67714" lon="0.9843">
        <ele>345</ele>
        <time>2022-05-23 19:04:08</time>
      </trkpt>
      <trkpt lat="41.67709" lon="0.98428">
        <ele>345</ele>
        <time>2022-05-23 19:04:09</time>
      </trkpt>
      <trkpt lat="41.67705" lon="0.98426">
        <ele>345</ele>
        <time>2022-05-23 19:04:10</time>
      </trkpt>
      <trkpt lat="41.677" lon="0.98423">
        <ele>345.2</ele>
        <time>2022-05-23 19:04:11</time>
      </trkpt>
      <trkpt lat="41.67695" lon="0.98421">
        <ele>345</ele>
        <time>2022-05-23 19:04:12</time>
      </trkpt>
      <trkpt lat="41.67691" lon="0.98419">
        <ele>345</ele>
        <time>2022-05-23 19:04:13</time>
      </trkpt>
      <trkpt lat="41.67686" lon="0.98417">
        <ele>345</ele>
        <time>2022-05-23 19:04:14</time>
      </trkpt>
      <trkpt lat="41.67681" lon="0.98416">
        <ele>345</ele>
        <time>2022-05-23 19:04:15</time>
      </trkpt>
      <trkpt lat="41.67676" lon="0.98414">
        <ele>345.2</ele>
        <time>2022-05-23 19:04:16</time>
      </trkpt>
      <trkpt lat="41.67672" lon="0.98413">
        <ele>345.2</ele>
        <time>2022-05-23 19:04:17</time>
      </trkpt>
      <trkpt lat="41.67667" lon="0.98411">
        <ele>345.2</ele>
        <time>2022-05-23 19:04:18</time>
      </trkpt>
      <trkpt lat="41.67662" lon="0.9841">
        <ele>345.2</ele>
        <time>2022-05-23 19:04:19</time>
      </trkpt>
      <trkpt lat="41.67657" lon="0.98408">
        <ele>345.4</ele>
        <time>2022-05-23 19:04:20</time>
      </trkpt>
      <trkpt lat="41.67652" lon="0.98406">
        <ele>345.4</ele>
        <time>2022-05-23 19:04:21</time>
      </trkpt>
      <trkpt lat="41.67648" lon="0.98404">
        <ele>345.4</ele>
        <time>2022-05-23 19:04:22</time>
      </trkpt>
      <trkpt lat="41.67643" lon="0.98403">
        <ele>345.2</ele>
        <time>2022-05-23 19:04:23</time>
      </trkpt>
      <trkpt lat="41.67638" lon="0.98401">
        <ele>345.2</ele>
        <time>2022-05-23 19:04:24</time>
      </trkpt>
      <trkpt lat="41.67633" lon="0.98399">
        <ele>345</ele>
        <time>2022-05-23 19:04:25</time>
      </trkpt>
      <trkpt lat="41.67628" lon="0.98397">
        <ele>345</ele>
        <time>2022-05-23 19:04:26</time>
      </trkpt>
      <trkpt lat="41.67623" lon="0.98395">
        <ele>345</ele>
        <time>2022-05-23 19:04:27</time>
      </trkpt>
      <trkpt lat="41.67618" lon="0.98393">
        <ele>345</ele>
        <time>2022-05-23 19:04:28</time>
      </trkpt>
      <trkpt lat="41.67613" lon="0.98391">
        <ele>345</ele>
        <time>2022-05-23 19:04:29</time>
      </trkpt>
      <trkpt lat="41.67608" lon="0.98388">
        <ele>345</ele>
        <time>2022-05-23 19:04:30</time>
      </trkpt>
      <trkpt lat="41.67603" lon="0.98385">
        <ele>345</ele>
        <time>2022-05-23 19:04:31</time>
      </trkpt>
      <trkpt lat="41.67599" lon="0.98382">
        <ele>344.8</ele>
        <time>2022-05-23 19:04:32</time>
      </trkpt>
      <trkpt lat="41.67594" lon="0.98379">
        <ele>344.8</ele>
        <time>2022-05-23 19:04:33</time>
      </trkpt>
      <trkpt lat="41.67589" lon="0.98376">
        <ele>344.8</ele>
        <time>2022-05-23 19:04:34</time>
      </trkpt>
      <trkpt lat="41.67585" lon="0.98373">
        <ele>345</ele>
        <time>2022-05-23 19:04:35</time>
      </trkpt>
      <trkpt lat="41.6758" lon="0.9837">
        <ele>345</ele>
        <time>2022-05-23 19:04:36</time>
      </trkpt>
      <trkpt lat="41.67576" lon="0.98366">
        <ele>344.8</ele>
        <time>2022-05-23 19:04:37</time>
      </trkpt>
      <trkpt lat="41.67572" lon="0.98361">
        <ele>344.8</ele>
        <time>2022-05-23 19:04:38</time>
      </trkpt>
      <trkpt lat="41.67569" lon="0.98357">
        <ele>344.8</ele>
        <time>2022-05-23 19:04:39</time>
      </trkpt>
      <trkpt lat="41.67567" lon="0.98351">
        <ele>344.8</ele>
        <time>2022-05-23 19:04:40</time>
      </trkpt>
      <trkpt lat="41.67565" lon="0.98345">
        <ele>344.8</ele>
        <time>2022-05-23 19:04:41</time>
      </trkpt>
      <trkpt lat="41.67562" lon="0.9834">
        <ele>344.8</ele>
        <time>2022-05-23 19:04:42</time>
      </trkpt>
      <trkpt lat="41.67558" lon="0.98335">
        <ele>345</ele>
        <time>2022-05-23 19:04:43</time>
      </trkpt>
      <trkpt lat="41.67555" lon="0.98332">
        <ele>345</ele>
        <time>2022-05-23 19:04:44</time>
      </trkpt>
      <trkpt lat="41.6755" lon="0.98329">
        <ele>345.2</ele>
        <time>2022-05-23 19:04:45</time>
      </trkpt>
      <trkpt lat="41.67546" lon="0.98327">
        <ele>345.4</ele>
        <time>2022-05-23 19:04:46</time>
      </trkpt>
      <trkpt lat="41.67541" lon="0.98326">
        <ele>345.4</ele>
        <time>2022-05-23 19:04:47</time>
      </trkpt>
      <trkpt lat="41.67536" lon="0.98326">
        <ele>345.4</ele>
        <time>2022-05-23 19:04:48</time>
      </trkpt>
      <trkpt lat="41.67532" lon="0.98324">
        <ele>345.4</ele>
        <time>2022-05-23 19:04:49</time>
      </trkpt>
      <trkpt lat="41.67526" lon="0.98322">
        <ele>345.2</ele>
        <time>2022-05-23 19:04:50</time>
      </trkpt>
      <trkpt lat="41.67522" lon="0.9832">
        <ele>345.2</ele>
        <time>2022-05-23 19:04:51</time>
      </trkpt>
      <trkpt lat="41.67517" lon="0.98316">
        <ele>345</ele>
        <time>2022-05-23 19:04:52</time>
      </trkpt>
      <trkpt lat="41.67512" lon="0.98313">
        <ele>344.8</ele>
        <time>2022-05-23 19:04:53</time>
      </trkpt>
      <trkpt lat="41.67507" lon="0.98309">
        <ele>344.6</ele>
        <time>2022-05-23 19:04:54</time>
      </trkpt>
      <trkpt lat="41.67502" lon="0.98306">
        <ele>344.6</ele>
        <time>2022-05-23 19:04:55</time>
      </trkpt>
      <trkpt lat="41.67497" lon="0.98302">
        <ele>344.4</ele>
        <time>2022-05-23 19:04:56</time>
      </trkpt>
      <trkpt lat="41.67492" lon="0.98299">
        <ele>344.2</ele>
        <time>2022-05-23 19:04:57</time>
      </trkpt>
      <trkpt lat="41.67487" lon="0.98295">
        <ele>344.2</ele>
        <time>2022-05-23 19:04:58</time>
      </trkpt>
      <trkpt lat="41.67482" lon="0.98292">
        <ele>344</ele>
        <time>2022-05-23 19:04:59</time>
      </trkpt>
      <trkpt lat="41.67477" lon="0.98288">
        <ele>344</ele>
        <time>2022-05-23 19:05:00</time>
      </trkpt>
      <trkpt lat="41.67472" lon="0.98284">
        <ele>344</ele>
        <time>2022-05-23 19:05:01</time>
      </trkpt>
      <trkpt lat="41.67467" lon="0.98281">
        <ele>344</ele>
        <time>2022-05-23 19:05:02</time>
      </trkpt>
      <trkpt lat="41.67462" lon="0.98278">
        <ele>344</ele>
        <time>2022-05-23 19:05:03</time>
      </trkpt>
      <trkpt lat="41.67456" lon="0.98274">
        <ele>343.8</ele>
        <time>2022-05-23 19:05:04</time>
      </trkpt>
      <trkpt lat="41.6745" lon="0.98271">
        <ele>343.8</ele>
        <time>2022-05-23 19:05:05</time>
      </trkpt>
      <trkpt lat="41.67445" lon="0.98268">
        <ele>343.8</ele>
        <time>2022-05-23 19:05:06</time>
      </trkpt>
      <trkpt lat="41.67439" lon="0.98265">
        <ele>343.6</ele>
        <time>2022-05-23 19:05:07</time>
      </trkpt>
      <trkpt lat="41.67433" lon="0.98262">
        <ele>343.6</ele>
        <time>2022-05-23 19:05:08</time>
      </trkpt>
      <trkpt lat="41.67427" lon="0.98259">
        <ele>343.4</ele>
        <time>2022-05-23 19:05:09</time>
      </trkpt>
      <trkpt lat="41.67421" lon="0.98257">
        <ele>343.4</ele>
        <time>2022-05-23 19:05:10</time>
      </trkpt>
      <trkpt lat="41.67414" lon="0.98255">
        <ele>343.4</ele>
        <time>2022-05-23 19:05:11</time>
      </trkpt>
      <trkpt lat="41.67408" lon="0.98253">
        <ele>343.4</ele>
        <time>2022-05-23 19:05:12</time>
      </trkpt>
      <trkpt lat="41.67401" lon="0.98252">
        <ele>343.2</ele>
        <time>2022-05-23 19:05:13</time>
      </trkpt>
      <trkpt lat="41.67395" lon="0.9825">
        <ele>343.2</ele>
        <time>2022-05-23 19:05:14</time>
      </trkpt>
      <trkpt lat="41.67389" lon="0.98248">
        <ele>343</ele>
        <time>2022-05-23 19:05:15</time>
      </trkpt>
      <trkpt lat="41.67382" lon="0.98246">
        <ele>343</ele>
        <time>2022-05-23 19:05:16</time>
      </trkpt>
      <trkpt lat="41.67376" lon="0.98243">
        <ele>342.8</ele>
        <time>2022-05-23 19:05:17</time>
      </trkpt>
      <trkpt lat="41.67371" lon="0.98241">
        <ele>342.6</ele>
        <time>2022-05-23 19:05:18</time>
      </trkpt>
      <trkpt lat="41.67365" lon="0.98237">
        <ele>342.6</ele>
        <time>2022-05-23 19:05:19</time>
      </trkpt>
      <trkpt lat="41.6736" lon="0.98233">
        <ele>342.6</ele>
        <time>2022-05-23 19:05:20</time>
      </trkpt>
      <trkpt lat="41.67354" lon="0.98229">
        <ele>342.4</ele>
        <time>2022-05-23 19:05:21</time>
      </trkpt>
      <trkpt lat="41.6735" lon="0.98224">
        <ele>342.6</ele>
        <time>2022-05-23 19:05:22</time>
      </trkpt>
      <trkpt lat="41.67344" lon="0.98219">
        <ele>342.6</ele>
        <time>2022-05-23 19:05:23</time>
      </trkpt>
      <trkpt lat="41.6734" lon="0.98215">
        <ele>342.6</ele>
        <time>2022-05-23 19:05:24</time>
      </trkpt>
      <trkpt lat="41.67335" lon="0.98209">
        <ele>342.4</ele>
        <time>2022-05-23 19:05:25</time>
      </trkpt>
      <trkpt lat="41.6733" lon="0.98204">
        <ele>342.4</ele>
        <time>2022-05-23 19:05:26</time>
      </trkpt>
      <trkpt lat="41.67325" lon="0.98199">
        <ele>342.6</ele>
        <time>2022-05-23 19:05:27</time>
      </trkpt>
      <trkpt lat="41.67321" lon="0.98194">
        <ele>342.6</ele>
        <time>2022-05-23 19:05:28</time>
      </trkpt>
      <trkpt lat="41.67317" lon="0.9819">
        <ele>342.6</ele>
        <time>2022-05-23 19:05:29</time>
      </trkpt>
      <trkpt lat="41.67312" lon="0.98185">
        <ele>342.6</ele>
        <time>2022-05-23 19:05:30</time>
      </trkpt>
      <trkpt lat="41.67308" lon="0.9818">
        <ele>342.6</ele>
        <time>2022-05-23 19:05:31</time>
      </trkpt>
      <trkpt lat="41.67304" lon="0.98176">
        <ele>342.8</ele>
        <time>2022-05-23 19:05:32</time>
      </trkpt>
      <trkpt lat="41.67299" lon="0.98172">
        <ele>343</ele>
        <time>2022-05-23 19:05:33</time>
      </trkpt>
      <trkpt lat="41.67296" lon="0.98168">
        <ele>343.4</ele>
        <time>2022-05-23 19:05:34</time>
      </trkpt>
      <trkpt lat="41.67291" lon="0.98164">
        <ele>343.6</ele>
        <time>2022-05-23 19:05:35</time>
      </trkpt>
      <trkpt lat="41.67287" lon="0.9816">
        <ele>343.8</ele>
        <time>2022-05-23 19:05:36</time>
      </trkpt>
      <trkpt lat="41.67283" lon="0.98156">
        <ele>344</ele>
        <time>2022-05-23 19:05:37</time>
      </trkpt>
      <trkpt lat="41.67279" lon="0.98152">
        <ele>344.2</ele>
        <time>2022-05-23 19:05:38</time>
      </trkpt>
      <trkpt lat="41.67275" lon="0.98148">
        <ele>344.2</ele>
        <time>2022-05-23 19:05:39</time>
      </trkpt>
      <trkpt lat="41.67271" lon="0.98144">
        <ele>344.4</ele>
        <time>2022-05-23 19:05:40</time>
      </trkpt>
      <trkpt lat="41.67267" lon="0.98141">
        <ele>344.6</ele>
        <time>2022-05-23 19:05:41</time>
      </trkpt>
      <trkpt lat="41.67263" lon="0.98138">
        <ele>344.8</ele>
        <time>2022-05-23 19:05:42</time>
      </trkpt>
      <trkpt lat="41.67259" lon="0.98135">
        <ele>345</ele>
        <time>2022-05-23 19:05:43</time>
      </trkpt>
      <trkpt lat="41.67255" lon="0.98133">
        <ele>345</ele>
        <time>2022-05-23 19:05:44</time>
      </trkpt>
      <trkpt lat="41.6725" lon="0.9813">
        <ele>345.2</ele>
        <time>2022-05-23 19:05:45</time>
      </trkpt>
      <trkpt lat="41.67245" lon="0.98128">
        <ele>345.2</ele>
        <time>2022-05-23 19:05:46</time>
      </trkpt>
      <trkpt lat="41.67241" lon="0.98126">
        <ele>345</ele>
        <time>2022-05-23 19:05:47</time>
      </trkpt>
      <trkpt lat="41.67237" lon="0.98124">
        <ele>345</ele>
        <time>2022-05-23 19:05:48</time>
      </trkpt>
      <trkpt lat="41.67232" lon="0.98121">
        <ele>345.2</ele>
        <time>2022-05-23 19:05:49</time>
      </trkpt>
      <trkpt lat="41.67228" lon="0.98119">
        <ele>345.2</ele>
        <time>2022-05-23 19:05:50</time>
      </trkpt>
      <trkpt lat="41.67222" lon="0.98117">
        <ele>345.6</ele>
        <time>2022-05-23 19:05:51</time>
      </trkpt>
      <trkpt lat="41.67218" lon="0.98115">
        <ele>345.8</ele>
        <time>2022-05-23 19:05:52</time>
      </trkpt>
      <trkpt lat="41.67212" lon="0.98113">
        <ele>346</ele>
        <time>2022-05-23 19:05:53</time>
      </trkpt>
      <trkpt lat="41.67208" lon="0.98112">
        <ele>346.2</ele>
        <time>2022-05-23 19:05:54</time>
      </trkpt>
      <trkpt lat="41.67202" lon="0.9811">
        <ele>346.2</ele>
        <time>2022-05-23 19:05:55</time>
      </trkpt>
      <trkpt lat="41.67197" lon="0.98109">
        <ele>346.4</ele>
        <time>2022-05-23 19:05:56</time>
      </trkpt>
      <trkpt lat="41.67192" lon="0.98107">
        <ele>346.6</ele>
        <time>2022-05-23 19:05:57</time>
      </trkpt>
      <trkpt lat="41.67186" lon="0.98106">
        <ele>346.8</ele>
        <time>2022-05-23 19:05:58</time>
      </trkpt>
      <trkpt lat="41.67181" lon="0.98105">
        <ele>347.2</ele>
        <time>2022-05-23 19:05:59</time>
      </trkpt>
      <trkpt lat="41.67175" lon="0.98103">
        <ele>347.4</ele>
        <time>2022-05-23 19:06:00</time>
      </trkpt>
      <trkpt lat="41.6717" lon="0.98101">
        <ele>347.6</ele>
        <time>2022-05-23 19:06:01</time>
      </trkpt>
      <trkpt lat="41.67164" lon="0.981">
        <ele>347.8</ele>
        <time>2022-05-23 19:06:02</time>
      </trkpt>
      <trkpt lat="41.67158" lon="0.98098">
        <ele>347.8</ele>
        <time>2022-05-23 19:06:03</time>
      </trkpt>
      <trkpt lat="41.67153" lon="0.98096">
        <ele>347.6</ele>
        <time>2022-05-23 19:06:04</time>
      </trkpt>
      <trkpt lat="41.67148" lon="0.98094">
        <ele>347.6</ele>
        <time>2022-05-23 19:06:05</time>
      </trkpt>
      <trkpt lat="41.67142" lon="0.98093">
        <ele>347.6</ele>
        <time>2022-05-23 19:06:06</time>
      </trkpt>
      <trkpt lat="41.67136" lon="0.98091">
        <ele>347.4</ele>
        <time>2022-05-23 19:06:07</time>
      </trkpt>
      <trkpt lat="41.67132" lon="0.98089">
        <ele>347.2</ele>
        <time>2022-05-23 19:06:08</time>
      </trkpt>
      <trkpt lat="41.67125" lon="0.98087">
        <ele>347.2</ele>
        <time>2022-05-23 19:06:09</time>
      </trkpt>
      <trkpt lat="41.67119" lon="0.98086">
        <ele>347</ele>
        <time>2022-05-23 19:06:10</time>
      </trkpt>
      <trkpt lat="41.67113" lon="0.98085">
        <ele>347</ele>
        <time>2022-05-23 19:06:11</time>
      </trkpt>
      <trkpt lat="41.67108" lon="0.98084">
        <ele>346.8</ele>
        <time>2022-05-23 19:06:12</time>
      </trkpt>
      <trkpt lat="41.67101" lon="0.98082">
        <ele>346.8</ele>
        <time>2022-05-23 19:06:13</time>
      </trkpt>
      <trkpt lat="41.67096" lon="0.98081">
        <ele>346.8</ele>
        <time>2022-05-23 19:06:14</time>
      </trkpt>
      <trkpt lat="41.67089" lon="0.9808">
        <ele>346.6</ele>
        <time>2022-05-23 19:06:15</time>
      </trkpt>
      <trkpt lat="41.67084" lon="0.98078">
        <ele>346.4</ele>
        <time>2022-05-23 19:06:16</time>
      </trkpt>
      <trkpt lat="41.67077" lon="0.98077">
        <ele>346.4</ele>
        <time>2022-05-23 19:06:17</time>
      </trkpt>
      <trkpt lat="41.67072" lon="0.98076">
        <ele>346.6</ele>
        <time>2022-05-23 19:06:18</time>
      </trkpt>
      <trkpt lat="41.67066" lon="0.98075">
        <ele>346.6</ele>
        <time>2022-05-23 19:06:19</time>
      </trkpt>
      <trkpt lat="41.67061" lon="0.98074">
        <ele>346.8</ele>
        <time>2022-05-23 19:06:20</time>
      </trkpt>
      <trkpt lat="41.67054" lon="0.98073">
        <ele>346.8</ele>
        <time>2022-05-23 19:06:21</time>
      </trkpt>
      <trkpt lat="41.67048" lon="0.98072">
        <ele>346.8</ele>
        <time>2022-05-23 19:06:22</time>
      </trkpt>
      <trkpt lat="41.67043" lon="0.98071">
        <ele>346.8</ele>
        <time>2022-05-23 19:06:23</time>
      </trkpt>
      <trkpt lat="41.67038" lon="0.98071">
        <ele>346.8</ele>
        <time>2022-05-23 19:06:24</time>
      </trkpt>
      <trkpt lat="41.67031" lon="0.9807">
        <ele>347</ele>
        <time>2022-05-23 19:06:25</time>
      </trkpt>
      <trkpt lat="41.67026" lon="0.9807">
        <ele>347</ele>
        <time>2022-05-23 19:06:26</time>
      </trkpt>
      <trkpt lat="41.6702" lon="0.98071">
        <ele>347</ele>
        <time>2022-05-23 19:06:27</time>
      </trkpt>
      <trkpt lat="41.67016" lon="0.98071">
        <ele>347.2</ele>
        <time>2022-05-23 19:06:28</time>
      </trkpt>
      <trkpt lat="41.67009" lon="0.98072">
        <ele>347.2</ele>
        <time>2022-05-23 19:06:29</time>
      </trkpt>
      <trkpt lat="41.67004" lon="0.98072">
        <ele>347.2</ele>
        <time>2022-05-23 19:06:30</time>
      </trkpt>
      <trkpt lat="41.66999" lon="0.98073">
        <ele>347.4</ele>
        <time>2022-05-23 19:06:31</time>
      </trkpt>
      <trkpt lat="41.66995" lon="0.98073">
        <ele>347.4</ele>
        <time>2022-05-23 19:06:32</time>
      </trkpt>
      <trkpt lat="41.66989" lon="0.98072">
        <ele>347.4</ele>
        <time>2022-05-23 19:06:33</time>
      </trkpt>
      <trkpt lat="41.66984" lon="0.98072">
        <ele>347.6</ele>
        <time>2022-05-23 19:06:34</time>
      </trkpt>
      <trkpt lat="41.66979" lon="0.98072">
        <ele>347.8</ele>
        <time>2022-05-23 19:06:35</time>
      </trkpt>
      <trkpt lat="41.66974" lon="0.98072">
        <ele>347.8</ele>
        <time>2022-05-23 19:06:36</time>
      </trkpt>
      <trkpt lat="41.66969" lon="0.98072">
        <ele>348</ele>
        <time>2022-05-23 19:06:37</time>
      </trkpt>
      <trkpt lat="41.66965" lon="0.98072">
        <ele>348</ele>
        <time>2022-05-23 19:06:38</time>
      </trkpt>
      <trkpt lat="41.66958" lon="0.98071">
        <ele>348.2</ele>
        <time>2022-05-23 19:06:39</time>
      </trkpt>
      <trkpt lat="41.66954" lon="0.98069">
        <ele>348</ele>
        <time>2022-05-23 19:06:40</time>
      </trkpt>
      <trkpt lat="41.66949" lon="0.98067">
        <ele>348</ele>
        <time>2022-05-23 19:06:41</time>
      </trkpt>
      <trkpt lat="41.66944" lon="0.98066">
        <ele>347.8</ele>
        <time>2022-05-23 19:06:42</time>
      </trkpt>
      <trkpt lat="41.66939" lon="0.98063">
        <ele>347.8</ele>
        <time>2022-05-23 19:06:43</time>
      </trkpt>
      <trkpt lat="41.66935" lon="0.9806">
        <ele>347.8</ele>
        <time>2022-05-23 19:06:44</time>
      </trkpt>
      <trkpt lat="41.66931" lon="0.98056">
        <ele>347.8</ele>
        <time>2022-05-23 19:06:45</time>
      </trkpt>
      <trkpt lat="41.66928" lon="0.98053">
        <ele>347.8</ele>
        <time>2022-05-23 19:06:46</time>
      </trkpt>
      <trkpt lat="41.66923" lon="0.98048">
        <ele>347.8</ele>
        <time>2022-05-23 19:06:47</time>
      </trkpt>
      <trkpt lat="41.6692" lon="0.98045">
        <ele>348</ele>
        <time>2022-05-23 19:06:48</time>
      </trkpt>
      <trkpt lat="41.66915" lon="0.9804">
        <ele>348</ele>
        <time>2022-05-23 19:06:49</time>
      </trkpt>
      <trkpt lat="41.66911" lon="0.98037">
        <ele>348</ele>
        <time>2022-05-23 19:06:50</time>
      </trkpt>
      <trkpt lat="41.66907" lon="0.98032">
        <ele>348</ele>
        <time>2022-05-23 19:06:51</time>
      </trkpt>
      <trkpt lat="41.66904" lon="0.98029">
        <ele>348</ele>
        <time>2022-05-23 19:06:52</time>
      </trkpt>
      <trkpt lat="41.66899" lon="0.98024">
        <ele>348</ele>
        <time>2022-05-23 19:06:53</time>
      </trkpt>
      <trkpt lat="41.66895" lon="0.98021">
        <ele>348</ele>
        <time>2022-05-23 19:06:54</time>
      </trkpt>
      <trkpt lat="41.6689" lon="0.98017">
        <ele>348.2</ele>
        <time>2022-05-23 19:06:55</time>
      </trkpt>
      <trkpt lat="41.66886" lon="0.98014">
        <ele>348.2</ele>
        <time>2022-05-23 19:06:56</time>
      </trkpt>
      <trkpt lat="41.66882" lon="0.9801">
        <ele>348.2</ele>
        <time>2022-05-23 19:06:57</time>
      </trkpt>
      <trkpt lat="41.66878" lon="0.98007">
        <ele>348.2</ele>
        <time>2022-05-23 19:06:58</time>
      </trkpt>
      <trkpt lat="41.66873" lon="0.98003">
        <ele>348.2</ele>
        <time>2022-05-23 19:06:59</time>
      </trkpt>
      <trkpt lat="41.66869" lon="0.98001">
        <ele>348.2</ele>
        <time>2022-05-23 19:07:00</time>
      </trkpt>
      <trkpt lat="41.66864" lon="0.97997">
        <ele>348.2</ele>
        <time>2022-05-23 19:07:01</time>
      </trkpt>
      <trkpt lat="41.6686" lon="0.97995">
        <ele>348.2</ele>
        <time>2022-05-23 19:07:02</time>
      </trkpt>
      <trkpt lat="41.66855" lon="0.97991">
        <ele>348.2</ele>
        <time>2022-05-23 19:07:03</time>
      </trkpt>
      <trkpt lat="41.66851" lon="0.97988">
        <ele>348.2</ele>
        <time>2022-05-23 19:07:04</time>
      </trkpt>
      <trkpt lat="41.66846" lon="0.97984">
        <ele>348.2</ele>
        <time>2022-05-23 19:07:05</time>
      </trkpt>
      <trkpt lat="41.66842" lon="0.97982">
        <ele>348.4</ele>
        <time>2022-05-23 19:07:06</time>
      </trkpt>
      <trkpt lat="41.66836" lon="0.97978">
        <ele>348.4</ele>
        <time>2022-05-23 19:07:07</time>
      </trkpt>
      <trkpt lat="41.66833" lon="0.97976">
        <ele>348.6</ele>
        <time>2022-05-23 19:07:08</time>
      </trkpt>
      <trkpt lat="41.66827" lon="0.97973">
        <ele>348.6</ele>
        <time>2022-05-23 19:07:09</time>
      </trkpt>
      <trkpt lat="41.66823" lon="0.97971">
        <ele>348.6</ele>
        <time>2022-05-23 19:07:10</time>
      </trkpt>
      <trkpt lat="41.66818" lon="0.97967">
        <ele>348.4</ele>
        <time>2022-05-23 19:07:11</time>
      </trkpt>
      <trkpt lat="41.66814" lon="0.97965">
        <ele>348.4</ele>
        <time>2022-05-23 19:07:12</time>
      </trkpt>
      <trkpt lat="41.66808" lon="0.97962">
        <ele>348.6</ele>
        <time>2022-05-23 19:07:13</time>
      </trkpt>
      <trkpt lat="41.66804" lon="0.97959">
        <ele>348.6</ele>
        <time>2022-05-23 19:07:14</time>
      </trkpt>
      <trkpt lat="41.66798" lon="0.97956">
        <ele>348.6</ele>
        <time>2022-05-23 19:07:15</time>
      </trkpt>
      <trkpt lat="41.66794" lon="0.97954">
        <ele>348.6</ele>
        <time>2022-05-23 19:07:16</time>
      </trkpt>
      <trkpt lat="41.66789" lon="0.97951">
        <ele>348.6</ele>
        <time>2022-05-23 19:07:17</time>
      </trkpt>
      <trkpt lat="41.66785" lon="0.97949">
        <ele>348.8</ele>
        <time>2022-05-23 19:07:18</time>
      </trkpt>
      <trkpt lat="41.66779" lon="0.97946">
        <ele>348.8</ele>
        <time>2022-05-23 19:07:19</time>
      </trkpt>
      <trkpt lat="41.66775" lon="0.97945">
        <ele>348.8</ele>
        <time>2022-05-23 19:07:20</time>
      </trkpt>
      <trkpt lat="41.6677" lon="0.97942">
        <ele>349</ele>
        <time>2022-05-23 19:07:21</time>
      </trkpt>
      <trkpt lat="41.66767" lon="0.97941">
        <ele>349</ele>
        <time>2022-05-23 19:07:22</time>
      </trkpt>
      <trkpt lat="41.66761" lon="0.97938">
        <ele>349</ele>
        <time>2022-05-23 19:07:23</time>
      </trkpt>
      <trkpt lat="41.66757" lon="0.97937">
        <ele>349.2</ele>
        <time>2022-05-23 19:07:24</time>
      </trkpt>
      <trkpt lat="41.66752" lon="0.97934">
        <ele>349.4</ele>
        <time>2022-05-23 19:07:25</time>
      </trkpt>
      <trkpt lat="41.66748" lon="0.97933">
        <ele>349.4</ele>
        <time>2022-05-23 19:07:26</time>
      </trkpt>
      <trkpt lat="41.66742" lon="0.97931">
        <ele>349.4</ele>
        <time>2022-05-23 19:07:27</time>
      </trkpt>
      <trkpt lat="41.66739" lon="0.97931">
        <ele>349.4</ele>
        <time>2022-05-23 19:07:28</time>
      </trkpt>
      <trkpt lat="41.66733" lon="0.97929">
        <ele>349.6</ele>
        <time>2022-05-23 19:07:29</time>
      </trkpt>
      <trkpt lat="41.66728" lon="0.97928">
        <ele>349.8</ele>
        <time>2022-05-23 19:07:30</time>
      </trkpt>
      <trkpt lat="41.66722" lon="0.97927">
        <ele>349.8</ele>
        <time>2022-05-23 19:07:31</time>
      </trkpt>
      <trkpt lat="41.66719" lon="0.97927">
        <ele>350</ele>
        <time>2022-05-23 19:07:32</time>
      </trkpt>
      <trkpt lat="41.66713" lon="0.97926">
        <ele>350</ele>
        <time>2022-05-23 19:07:33</time>
      </trkpt>
      <trkpt lat="41.66709" lon="0.97925">
        <ele>350.2</ele>
        <time>2022-05-23 19:07:34</time>
      </trkpt>
      <trkpt lat="41.66703" lon="0.97925">
        <ele>350.2</ele>
        <time>2022-05-23 19:07:35</time>
      </trkpt>
      <trkpt lat="41.66698" lon="0.97924">
        <ele>350.2</ele>
        <time>2022-05-23 19:07:36</time>
      </trkpt>
      <trkpt lat="41.66692" lon="0.97923">
        <ele>350.2</ele>
        <time>2022-05-23 19:07:37</time>
      </trkpt>
      <trkpt lat="41.66688" lon="0.97922">
        <ele>350</ele>
        <time>2022-05-23 19:07:38</time>
      </trkpt>
      <trkpt lat="41.66682" lon="0.97921">
        <ele>350</ele>
        <time>2022-05-23 19:07:39</time>
      </trkpt>
      <trkpt lat="41.66678" lon="0.97921">
        <ele>350</ele>
        <time>2022-05-23 19:07:40</time>
      </trkpt>
      <trkpt lat="41.66672" lon="0.9792">
        <ele>350</ele>
        <time>2022-05-23 19:07:41</time>
      </trkpt>
      <trkpt lat="41.66666" lon="0.9792">
        <ele>350</ele>
        <time>2022-05-23 19:07:42</time>
      </trkpt>
      <trkpt lat="41.66661" lon="0.97919">
        <ele>350</ele>
        <time>2022-05-23 19:07:43</time>
      </trkpt>
      <trkpt lat="41.66656" lon="0.97918">
        <ele>350</ele>
        <time>2022-05-23 19:07:44</time>
      </trkpt>
      <trkpt lat="41.66651" lon="0.97918">
        <ele>350.2</ele>
        <time>2022-05-23 19:07:45</time>
      </trkpt>
      <trkpt lat="41.66646" lon="0.97917">
        <ele>350.2</ele>
        <time>2022-05-23 19:07:46</time>
      </trkpt>
      <trkpt lat="41.66641" lon="0.97916">
        <ele>350.2</ele>
        <time>2022-05-23 19:07:47</time>
      </trkpt>
      <trkpt lat="41.66636" lon="0.97916">
        <ele>350</ele>
        <time>2022-05-23 19:07:48</time>
      </trkpt>
      <trkpt lat="41.66631" lon="0.97915">
        <ele>350</ele>
        <time>2022-05-23 19:07:49</time>
      </trkpt>
      <trkpt lat="41.66626" lon="0.97915">
        <ele>350</ele>
        <time>2022-05-23 19:07:50</time>
      </trkpt>
      <trkpt lat="41.66621" lon="0.97914">
        <ele>349.8</ele>
        <time>2022-05-23 19:07:51</time>
      </trkpt>
      <trkpt lat="41.66615" lon="0.97913">
        <ele>349.8</ele>
        <time>2022-05-23 19:07:52</time>
      </trkpt>
      <trkpt lat="41.6661" lon="0.97912">
        <ele>349.6</ele>
        <time>2022-05-23 19:07:53</time>
      </trkpt>
      <trkpt lat="41.66605" lon="0.97912">
        <ele>349.6</ele>
        <time>2022-05-23 19:07:54</time>
      </trkpt>
      <trkpt lat="41.666" lon="0.97911">
        <ele>349.6</ele>
        <time>2022-05-23 19:07:55</time>
      </trkpt>
      <trkpt lat="41.66594" lon="0.9791">
        <ele>349.6</ele>
        <time>2022-05-23 19:07:56</time>
      </trkpt>
      <trkpt lat="41.66589" lon="0.97909">
        <ele>349.6</ele>
        <time>2022-05-23 19:07:57</time>
      </trkpt>
      <trkpt lat="41.66583" lon="0.97908">
        <ele>349.6</ele>
        <time>2022-05-23 19:07:58</time>
      </trkpt>
      <trkpt lat="41.66578" lon="0.97907">
        <ele>349.4</ele>
        <time>2022-05-23 19:07:59</time>
      </trkpt>
      <trkpt lat="41.66572" lon="0.97906">
        <ele>349.4</ele>
        <time>2022-05-23 19:08:00</time>
      </trkpt>
      <trkpt lat="41.66567" lon="0.97905">
        <ele>349.2</ele>
        <time>2022-05-23 19:08:01</time>
      </trkpt>
      <trkpt lat="41.66561" lon="0.97904">
        <ele>349.2</ele>
        <time>2022-05-23 19:08:02</time>
      </trkpt>
      <trkpt lat="41.66555" lon="0.97903">
        <ele>349</ele>
        <time>2022-05-23 19:08:03</time>
      </trkpt>
      <trkpt lat="41.66549" lon="0.97902">
        <ele>348.8</ele>
        <time>2022-05-23 19:08:04</time>
      </trkpt>
      <trkpt lat="41.66543" lon="0.979">
        <ele>348.6</ele>
        <time>2022-05-23 19:08:05</time>
      </trkpt>
      <trkpt lat="41.66536" lon="0.97899">
        <ele>348.2</ele>
        <time>2022-05-23 19:08:06</time>
      </trkpt>
      <trkpt lat="41.6653" lon="0.97897">
        <ele>347.8</ele>
        <time>2022-05-23 19:08:07</time>
      </trkpt>
      <trkpt lat="41.66523" lon="0.97894">
        <ele>347.4</ele>
        <time>2022-05-23 19:08:08</time>
      </trkpt>
      <trkpt lat="41.66516" lon="0.97891">
        <ele>347</ele>
        <time>2022-05-23 19:08:09</time>
      </trkpt>
      <trkpt lat="41.66509" lon="0.97888">
        <ele>346.6</ele>
        <time>2022-05-23 19:08:10</time>
      </trkpt>
      <trkpt lat="41.66502" lon="0.97884">
        <ele>346.2</ele>
        <time>2022-05-23 19:08:11</time>
      </trkpt>
      <trkpt lat="41.66496" lon="0.97879">
        <ele>346</ele>
        <time>2022-05-23 19:08:12</time>
      </trkpt>
      <trkpt lat="41.66491" lon="0.97874">
        <ele>345.8</ele>
        <time>2022-05-23 19:08:13</time>
      </trkpt>
      <trkpt lat="41.66486" lon="0.97868">
        <ele>345.6</ele>
        <time>2022-05-23 19:08:14</time>
      </trkpt>
      <trkpt lat="41.66481" lon="0.97861">
        <ele>345.4</ele>
        <time>2022-05-23 19:08:15</time>
      </trkpt>
      <trkpt lat="41.66476" lon="0.97855">
        <ele>345.4</ele>
        <time>2022-05-23 19:08:16</time>
      </trkpt>
      <trkpt lat="41.66471" lon="0.97848">
        <ele>345.2</ele>
        <time>2022-05-23 19:08:17</time>
      </trkpt>
      <trkpt lat="41.66466" lon="0.97843">
        <ele>345.2</ele>
        <time>2022-05-23 19:08:18</time>
      </trkpt>
      <trkpt lat="41.66461" lon="0.97836">
        <ele>345</ele>
        <time>2022-05-23 19:08:19</time>
      </trkpt>
      <trkpt lat="41.66454" lon="0.9783">
        <ele>344.6</ele>
        <time>2022-05-23 19:08:20</time>
      </trkpt>
      <trkpt lat="41.66449" lon="0.97824">
        <ele>344.2</ele>
        <time>2022-05-23 19:08:21</time>
      </trkpt>
      <trkpt lat="41.66442" lon="0.97819">
        <ele>344</ele>
        <time>2022-05-23 19:08:22</time>
      </trkpt>
      <trkpt lat="41.66435" lon="0.97814">
        <ele>343.8</ele>
        <time>2022-05-23 19:08:23</time>
      </trkpt>
      <trkpt lat="41.66429" lon="0.97809">
        <ele>343.6</ele>
        <time>2022-05-23 19:08:24</time>
      </trkpt>
      <trkpt lat="41.66422" lon="0.97805">
        <ele>343.6</ele>
        <time>2022-05-23 19:08:25</time>
      </trkpt>
      <trkpt lat="41.66416" lon="0.978">
        <ele>343.8</ele>
        <time>2022-05-23 19:08:26</time>
      </trkpt>
      <trkpt lat="41.66411" lon="0.97795">
        <ele>343.8</ele>
        <time>2022-05-23 19:08:27</time>
      </trkpt>
      <trkpt lat="41.66405" lon="0.9779">
        <ele>343.8</ele>
        <time>2022-05-23 19:08:28</time>
      </trkpt>
      <trkpt lat="41.664" lon="0.97785">
        <ele>344</ele>
        <time>2022-05-23 19:08:29</time>
      </trkpt>
      <trkpt lat="41.66396" lon="0.97779">
        <ele>344</ele>
        <time>2022-05-23 19:08:30</time>
      </trkpt>
      <trkpt lat="41.66391" lon="0.97775">
        <ele>344.2</ele>
        <time>2022-05-23 19:08:31</time>
      </trkpt>
      <trkpt lat="41.66387" lon="0.9777">
        <ele>344.4</ele>
        <time>2022-05-23 19:08:32</time>
      </trkpt>
      <trkpt lat="41.66382" lon="0.97765">
        <ele>344.6</ele>
        <time>2022-05-23 19:08:33</time>
      </trkpt>
      <trkpt lat="41.66378" lon="0.97762">
        <ele>344.8</ele>
        <time>2022-05-23 19:08:34</time>
      </trkpt>
      <trkpt lat="41.66374" lon="0.97758">
        <ele>345.2</ele>
        <time>2022-05-23 19:08:35</time>
      </trkpt>
      <trkpt lat="41.6637" lon="0.97755">
        <ele>345.6</ele>
        <time>2022-05-23 19:08:36</time>
      </trkpt>
      <trkpt lat="41.66367" lon="0.97751">
        <ele>345.8</ele>
        <time>2022-05-23 19:08:37</time>
      </trkpt>
      <trkpt lat="41.66363" lon="0.97748">
        <ele>346.2</ele>
        <time>2022-05-23 19:08:38</time>
      </trkpt>
      <trkpt lat="41.6636" lon="0.97744">
        <ele>346.4</ele>
        <time>2022-05-23 19:08:39</time>
      </trkpt>
      <trkpt lat="41.66357" lon="0.9774">
        <ele>346.8</ele>
        <time>2022-05-23 19:08:40</time>
      </trkpt>
      <trkpt lat="41.66353" lon="0.97737">
        <ele>347.2</ele>
        <time>2022-05-23 19:08:41</time>
      </trkpt>
      <trkpt lat="41.6635" lon="0.97733">
        <ele>347.4</ele>
        <time>2022-05-23 19:08:42</time>
      </trkpt>
      <trkpt lat="41.66347" lon="0.9773">
        <ele>347.6</ele>
        <time>2022-05-23 19:08:43</time>
      </trkpt>
      <trkpt lat="41.66344" lon="0.97727">
        <ele>347.8</ele>
        <time>2022-05-23 19:08:44</time>
      </trkpt>
      <trkpt lat="41.66341" lon="0.97724">
        <ele>348.2</ele>
        <time>2022-05-23 19:08:45</time>
      </trkpt>
      <trkpt lat="41.66337" lon="0.97721">
        <ele>348.4</ele>
        <time>2022-05-23 19:08:46</time>
      </trkpt>
      <trkpt lat="41.66334" lon="0.97718">
        <ele>348.6</ele>
        <time>2022-05-23 19:08:47</time>
      </trkpt>
      <trkpt lat="41.66331" lon="0.97715">
        <ele>348.8</ele>
        <time>2022-05-23 19:08:48</time>
      </trkpt>
      <trkpt lat="41.66328" lon="0.97712">
        <ele>349</ele>
        <time>2022-05-23 19:08:49</time>
      </trkpt>
      <trkpt lat="41.66324" lon="0.97709">
        <ele>349.2</ele>
        <time>2022-05-23 19:08:50</time>
      </trkpt>
      <trkpt lat="41.66321" lon="0.97706">
        <ele>349.4</ele>
        <time>2022-05-23 19:08:51</time>
      </trkpt>
      <trkpt lat="41.66317" lon="0.97704">
        <ele>349.6</ele>
        <time>2022-05-23 19:08:52</time>
      </trkpt>
      <trkpt lat="41.66313" lon="0.97701">
        <ele>349.6</ele>
        <time>2022-05-23 19:08:53</time>
      </trkpt>
      <trkpt lat="41.66309" lon="0.97698">
        <ele>349.8</ele>
        <time>2022-05-23 19:08:54</time>
      </trkpt>
      <trkpt lat="41.66305" lon="0.97696">
        <ele>349.8</ele>
        <time>2022-05-23 19:08:55</time>
      </trkpt>
      <trkpt lat="41.66301" lon="0.97693">
        <ele>349.8</ele>
        <time>2022-05-23 19:08:56</time>
      </trkpt>
      <trkpt lat="41.66297" lon="0.9769">
        <ele>349.8</ele>
        <time>2022-05-23 19:08:57</time>
      </trkpt>
      <trkpt lat="41.66292" lon="0.97688">
        <ele>349.8</ele>
        <time>2022-05-23 19:08:58</time>
      </trkpt>
      <trkpt lat="41.66288" lon="0.97685">
        <ele>350</ele>
        <time>2022-05-23 19:08:59</time>
      </trkpt>
      <trkpt lat="41.66283" lon="0.97683">
        <ele>350</ele>
        <time>2022-05-23 19:09:00</time>
      </trkpt>
      <trkpt lat="41.66279" lon="0.9768">
        <ele>350</ele>
        <time>2022-05-23 19:09:01</time>
      </trkpt>
      <trkpt lat="41.66274" lon="0.97678">
        <ele>349.8</ele>
        <time>2022-05-23 19:09:02</time>
      </trkpt>
      <trkpt lat="41.6627" lon="0.97676">
        <ele>350</ele>
        <time>2022-05-23 19:09:03</time>
      </trkpt>
      <trkpt lat="41.66266" lon="0.97673">
        <ele>350</ele>
        <time>2022-05-23 19:09:04</time>
      </trkpt>
      <trkpt lat="41.66262" lon="0.97671">
        <ele>350</ele>
        <time>2022-05-23 19:09:05</time>
      </trkpt>
      <trkpt lat="41.66257" lon="0.97668">
        <ele>350</ele>
        <time>2022-05-23 19:09:06</time>
      </trkpt>
      <trkpt lat="41.66252" lon="0.97666">
        <ele>350</ele>
        <time>2022-05-23 19:09:07</time>
      </trkpt>
      <trkpt lat="41.66248" lon="0.97664">
        <ele>350.2</ele>
        <time>2022-05-23 19:09:08</time>
      </trkpt>
      <trkpt lat="41.66243" lon="0.97662">
        <ele>350.2</ele>
        <time>2022-05-23 19:09:09</time>
      </trkpt>
      <trkpt lat="41.66239" lon="0.97659">
        <ele>350.2</ele>
        <time>2022-05-23 19:09:10</time>
      </trkpt>
      <trkpt lat="41.66235" lon="0.97657">
        <ele>350.2</ele>
        <time>2022-05-23 19:09:11</time>
      </trkpt>
      <trkpt lat="41.6623" lon="0.97655">
        <ele>350.2</ele>
        <time>2022-05-23 19:09:12</time>
      </trkpt>
      <trkpt lat="41.66225" lon="0.97652">
        <ele>350.2</ele>
        <time>2022-05-23 19:09:13</time>
      </trkpt>
      <trkpt lat="41.66221" lon="0.9765">
        <ele>350.2</ele>
        <time>2022-05-23 19:09:14</time>
      </trkpt>
      <trkpt lat="41.66216" lon="0.97647">
        <ele>350.4</ele>
        <time>2022-05-23 19:09:15</time>
      </trkpt>
      <trkpt lat="41.66211" lon="0.97645">
        <ele>350.2</ele>
        <time>2022-05-23 19:09:16</time>
      </trkpt>
      <trkpt lat="41.66207" lon="0.97642">
        <ele>350.2</ele>
        <time>2022-05-23 19:09:17</time>
      </trkpt>
      <trkpt lat="41.66202" lon="0.97639">
        <ele>350.2</ele>
        <time>2022-05-23 19:09:18</time>
      </trkpt>
      <trkpt lat="41.66198" lon="0.97636">
        <ele>350.2</ele>
        <time>2022-05-23 19:09:19</time>
      </trkpt>
      <trkpt lat="41.66193" lon="0.97633">
        <ele>350</ele>
        <time>2022-05-23 19:09:20</time>
      </trkpt>
      <trkpt lat="41.66189" lon="0.9763">
        <ele>350</ele>
        <time>2022-05-23 19:09:21</time>
      </trkpt>
      <trkpt lat="41.66184" lon="0.97627">
        <ele>350</ele>
        <time>2022-05-23 19:09:22</time>
      </trkpt>
      <trkpt lat="41.66179" lon="0.97623">
        <ele>350</ele>
        <time>2022-05-23 19:09:23</time>
      </trkpt>
      <trkpt lat="41.66175" lon="0.9762">
        <ele>350</ele>
        <time>2022-05-23 19:09:24</time>
      </trkpt>
      <trkpt lat="41.66171" lon="0.97617">
        <ele>350</ele>
        <time>2022-05-23 19:09:25</time>
      </trkpt>
      <trkpt lat="41.66167" lon="0.97613">
        <ele>349.8</ele>
        <time>2022-05-23 19:09:26</time>
      </trkpt>
      <trkpt lat="41.66162" lon="0.9761">
        <ele>349.8</ele>
        <time>2022-05-23 19:09:27</time>
      </trkpt>
      <trkpt lat="41.66158" lon="0.97607">
        <ele>349.6</ele>
        <time>2022-05-23 19:09:28</time>
      </trkpt>
      <trkpt lat="41.66154" lon="0.97603">
        <ele>349.4</ele>
        <time>2022-05-23 19:09:29</time>
      </trkpt>
      <trkpt lat="41.6615" lon="0.976">
        <ele>349.4</ele>
        <time>2022-05-23 19:09:30</time>
      </trkpt>
      <trkpt lat="41.66146" lon="0.97597">
        <ele>349.6</ele>
        <time>2022-05-23 19:09:31</time>
      </trkpt>
      <trkpt lat="41.66142" lon="0.97594">
        <ele>349.4</ele>
        <time>2022-05-23 19:09:32</time>
      </trkpt>
      <trkpt lat="41.66138" lon="0.97591">
        <ele>349.4</ele>
        <time>2022-05-23 19:09:33</time>
      </trkpt>
      <trkpt lat="41.66134" lon="0.97588">
        <ele>349.6</ele>
        <time>2022-05-23 19:09:34</time>
      </trkpt>
      <trkpt lat="41.6613" lon="0.97586">
        <ele>349.6</ele>
        <time>2022-05-23 19:09:35</time>
      </trkpt>
      <trkpt lat="41.66126" lon="0.97583">
        <ele>349.6</ele>
        <time>2022-05-23 19:09:36</time>
      </trkpt>
      <trkpt lat="41.66122" lon="0.9758">
        <ele>349.6</ele>
        <time>2022-05-23 19:09:37</time>
      </trkpt>
      <trkpt lat="41.66117" lon="0.97577">
        <ele>349.6</ele>
        <time>2022-05-23 19:09:38</time>
      </trkpt>
      <trkpt lat="41.66113" lon="0.97575">
        <ele>349.6</ele>
        <time>2022-05-23 19:09:39</time>
      </trkpt>
      <trkpt lat="41.66109" lon="0.97572">
        <ele>349.8</ele>
        <time>2022-05-23 19:09:40</time>
      </trkpt>
      <trkpt lat="41.66104" lon="0.97569">
        <ele>349.8</ele>
        <time>2022-05-23 19:09:41</time>
      </trkpt>
      <trkpt lat="41.661" lon="0.97566">
        <ele>349.8</ele>
        <time>2022-05-23 19:09:42</time>
      </trkpt>
      <trkpt lat="41.66096" lon="0.97563">
        <ele>349.8</ele>
        <time>2022-05-23 19:09:43</time>
      </trkpt>
      <trkpt lat="41.66091" lon="0.9756">
        <ele>349.8</ele>
        <time>2022-05-23 19:09:44</time>
      </trkpt>
      <trkpt lat="41.66087" lon="0.97557">
        <ele>350</ele>
        <time>2022-05-23 19:09:45</time>
      </trkpt>
      <trkpt lat="41.66083" lon="0.97554">
        <ele>350</ele>
        <time>2022-05-23 19:09:46</time>
      </trkpt>
      <trkpt lat="41.66078" lon="0.97551">
        <ele>350</ele>
        <time>2022-05-23 19:09:47</time>
      </trkpt>
      <trkpt lat="41.66074" lon="0.97549">
        <ele>349.8</ele>
        <time>2022-05-23 19:09:48</time>
      </trkpt>
      <trkpt lat="41.66069" lon="0.97545">
        <ele>349.8</ele>
        <time>2022-05-23 19:09:49</time>
      </trkpt>
      <trkpt lat="41.66065" lon="0.97542">
        <ele>349.8</ele>
        <time>2022-05-23 19:09:50</time>
      </trkpt>
      <trkpt lat="41.66061" lon="0.97539">
        <ele>349.8</ele>
        <time>2022-05-23 19:09:51</time>
      </trkpt>
      <trkpt lat="41.66056" lon="0.97536">
        <ele>349.8</ele>
        <time>2022-05-23 19:09:52</time>
      </trkpt>
      <trkpt lat="41.66051" lon="0.97533">
        <ele>349.8</ele>
        <time>2022-05-23 19:09:53</time>
      </trkpt>
      <trkpt lat="41.66047" lon="0.9753">
        <ele>349.8</ele>
        <time>2022-05-23 19:09:54</time>
      </trkpt>
      <trkpt lat="41.66042" lon="0.97527">
        <ele>349.8</ele>
        <time>2022-05-23 19:09:55</time>
      </trkpt>
      <trkpt lat="41.66037" lon="0.97524">
        <ele>349.6</ele>
        <time>2022-05-23 19:09:56</time>
      </trkpt>
      <trkpt lat="41.66032" lon="0.97522">
        <ele>349.4</ele>
        <time>2022-05-23 19:09:57</time>
      </trkpt>
      <trkpt lat="41.66027" lon="0.97519">
        <ele>349.2</ele>
        <time>2022-05-23 19:09:58</time>
      </trkpt>
      <trkpt lat="41.66021" lon="0.97517">
        <ele>349</ele>
        <time>2022-05-23 19:09:59</time>
      </trkpt>
      <trkpt lat="41.66015" lon="0.97515">
        <ele>348.8</ele>
        <time>2022-05-23 19:10:00</time>
      </trkpt>
      <trkpt lat="41.66008" lon="0.97514">
        <ele>348.4</ele>
        <time>2022-05-23 19:10:01</time>
      </trkpt>
      <trkpt lat="41.66001" lon="0.97512">
        <ele>347.8</ele>
        <time>2022-05-23 19:10:02</time>
      </trkpt>
      <trkpt lat="41.65994" lon="0.97511">
        <ele>347.4</ele>
        <time>2022-05-23 19:10:03</time>
      </trkpt>
      <trkpt lat="41.65987" lon="0.9751">
        <ele>347</ele>
        <time>2022-05-23 19:10:04</time>
      </trkpt>
      <trkpt lat="41.65979" lon="0.97509">
        <ele>346.6</ele>
        <time>2022-05-23 19:10:05</time>
      </trkpt>
      <trkpt lat="41.65972" lon="0.97507">
        <ele>346.2</ele>
        <time>2022-05-23 19:10:06</time>
      </trkpt>
      <trkpt lat="41.65964" lon="0.97506">
        <ele>345.6</ele>
        <time>2022-05-23 19:10:07</time>
      </trkpt>
      <trkpt lat="41.65956" lon="0.97505">
        <ele>345.2</ele>
        <time>2022-05-23 19:10:08</time>
      </trkpt>
      <trkpt lat="41.65948" lon="0.97504">
        <ele>344.8</ele>
        <time>2022-05-23 19:10:09</time>
      </trkpt>
      <trkpt lat="41.65939" lon="0.97503">
        <ele>344.2</ele>
        <time>2022-05-23 19:10:10</time>
      </trkpt>
      <trkpt lat="41.65931" lon="0.97502">
        <ele>343.6</ele>
        <time>2022-05-23 19:10:11</time>
      </trkpt>
      <trkpt lat="41.65922" lon="0.975">
        <ele>343.2</ele>
        <time>2022-05-23 19:10:12</time>
      </trkpt>
      <trkpt lat="41.65913" lon="0.97499">
        <ele>342.8</ele>
        <time>2022-05-23 19:10:13</time>
      </trkpt>
      <trkpt lat="41.65903" lon="0.97498">
        <ele>342.2</ele>
        <time>2022-05-23 19:10:14</time>
      </trkpt>
      <trkpt lat="41.65893" lon="0.97496">
        <ele>341.8</ele>
        <time>2022-05-23 19:10:15</time>
      </trkpt>
      <trkpt lat="41.65884" lon="0.97495">
        <ele>341.6</ele>
        <time>2022-05-23 19:10:16</time>
      </trkpt>
      <trkpt lat="41.65874" lon="0.97494">
        <ele>341</ele>
        <time>2022-05-23 19:10:17</time>
      </trkpt>
      <trkpt lat="41.65864" lon="0.97491">
        <ele>340.4</ele>
        <time>2022-05-23 19:10:18</time>
      </trkpt>
      <trkpt lat="41.65854" lon="0.97489">
        <ele>340</ele>
        <time>2022-05-23 19:10:19</time>
      </trkpt>
      <trkpt lat="41.65845" lon="0.97488">
        <ele>339.4</ele>
        <time>2022-05-23 19:10:20</time>
      </trkpt>
      <trkpt lat="41.65835" lon="0.97486">
        <ele>338.8</ele>
        <time>2022-05-23 19:10:21</time>
      </trkpt>
      <trkpt lat="41.65825" lon="0.97484">
        <ele>338.4</ele>
        <time>2022-05-23 19:10:22</time>
      </trkpt>
      <trkpt lat="41.65817" lon="0.97483">
        <ele>338</ele>
        <time>2022-05-23 19:10:23</time>
      </trkpt>
      <trkpt lat="41.65808" lon="0.9748">
        <ele>337.6</ele>
        <time>2022-05-23 19:10:24</time>
      </trkpt>
      <trkpt lat="41.65799" lon="0.97479">
        <ele>337.4</ele>
        <time>2022-05-23 19:10:25</time>
      </trkpt>
      <trkpt lat="41.6579" lon="0.97477">
        <ele>337.4</ele>
        <time>2022-05-23 19:10:26</time>
      </trkpt>
      <trkpt lat="41.65782" lon="0.97475">
        <ele>337.2</ele>
        <time>2022-05-23 19:10:27</time>
      </trkpt>
      <trkpt lat="41.65774" lon="0.97473">
        <ele>337.2</ele>
        <time>2022-05-23 19:10:28</time>
      </trkpt>
      <trkpt lat="41.65766" lon="0.97471">
        <ele>337</ele>
        <time>2022-05-23 19:10:29</time>
      </trkpt>
      <trkpt lat="41.65758" lon="0.97469">
        <ele>337</ele>
        <time>2022-05-23 19:10:30</time>
      </trkpt>
      <trkpt lat="41.65749" lon="0.97467">
        <ele>337</ele>
        <time>2022-05-23 19:10:31</time>
      </trkpt>
      <trkpt lat="41.65741" lon="0.97465">
        <ele>336.8</ele>
        <time>2022-05-23 19:10:32</time>
      </trkpt>
      <trkpt lat="41.65733" lon="0.97464">
        <ele>336.8</ele>
        <time>2022-05-23 19:10:33</time>
      </trkpt>
      <trkpt lat="41.65726" lon="0.97462">
        <ele>336.8</ele>
        <time>2022-05-23 19:10:34</time>
      </trkpt>
      <trkpt lat="41.65718" lon="0.9746">
        <ele>336.8</ele>
        <time>2022-05-23 19:10:35</time>
      </trkpt>
      <trkpt lat="41.65711" lon="0.97458">
        <ele>336.8</ele>
        <time>2022-05-23 19:10:36</time>
      </trkpt>
      <trkpt lat="41.65703" lon="0.97456">
        <ele>336.8</ele>
        <time>2022-05-23 19:10:37</time>
      </trkpt>
      <trkpt lat="41.65696" lon="0.97453">
        <ele>336.8</ele>
        <time>2022-05-23 19:10:38</time>
      </trkpt>
      <trkpt lat="41.6569" lon="0.97451">
        <ele>336.8</ele>
        <time>2022-05-23 19:10:39</time>
      </trkpt>
      <trkpt lat="41.65683" lon="0.97448">
        <ele>337</ele>
        <time>2022-05-23 19:10:40</time>
      </trkpt>
      <trkpt lat="41.65677" lon="0.97445">
        <ele>337</ele>
        <time>2022-05-23 19:10:41</time>
      </trkpt>
      <trkpt lat="41.6567" lon="0.97442">
        <ele>337</ele>
        <time>2022-05-23 19:10:42</time>
      </trkpt>
      <trkpt lat="41.65664" lon="0.97439">
        <ele>337</ele>
        <time>2022-05-23 19:10:43</time>
      </trkpt>
      <trkpt lat="41.65658" lon="0.97435">
        <ele>337</ele>
        <time>2022-05-23 19:10:44</time>
      </trkpt>
      <trkpt lat="41.65653" lon="0.97432">
        <ele>337</ele>
        <time>2022-05-23 19:10:45</time>
      </trkpt>
      <trkpt lat="41.65647" lon="0.97428">
        <ele>336.8</ele>
        <time>2022-05-23 19:10:46</time>
      </trkpt>
      <trkpt lat="41.65641" lon="0.97425">
        <ele>336.6</ele>
        <time>2022-05-23 19:10:47</time>
      </trkpt>
      <trkpt lat="41.65634" lon="0.97421">
        <ele>336.4</ele>
        <time>2022-05-23 19:10:48</time>
      </trkpt>
      <trkpt lat="41.65628" lon="0.97418">
        <ele>336.2</ele>
        <time>2022-05-23 19:10:49</time>
      </trkpt>
      <trkpt lat="41.65621" lon="0.97414">
        <ele>336</ele>
        <time>2022-05-23 19:10:50</time>
      </trkpt>
      <trkpt lat="41.65615" lon="0.97411">
        <ele>335.8</ele>
        <time>2022-05-23 19:10:51</time>
      </trkpt>
      <trkpt lat="41.65608" lon="0.97408">
        <ele>335.6</ele>
        <time>2022-05-23 19:10:52</time>
      </trkpt>
      <trkpt lat="41.65601" lon="0.97405">
        <ele>335.4</ele>
        <time>2022-05-23 19:10:53</time>
      </trkpt>
      <trkpt lat="41.65595" lon="0.97402">
        <ele>335.2</ele>
        <time>2022-05-23 19:10:54</time>
      </trkpt>
      <trkpt lat="41.65588" lon="0.974">
        <ele>335</ele>
        <time>2022-05-23 19:10:55</time>
      </trkpt>
      <trkpt lat="41.65581" lon="0.97397">
        <ele>334.8</ele>
        <time>2022-05-23 19:10:56</time>
      </trkpt>
      <trkpt lat="41.65574" lon="0.97394">
        <ele>334.6</ele>
        <time>2022-05-23 19:10:57</time>
      </trkpt>
      <trkpt lat="41.65567" lon="0.9739">
        <ele>334.6</ele>
        <time>2022-05-23 19:10:58</time>
      </trkpt>
      <trkpt lat="41.6556" lon="0.97387">
        <ele>334.6</ele>
        <time>2022-05-23 19:10:59</time>
      </trkpt>
      <trkpt lat="41.65554" lon="0.97384">
        <ele>334.4</ele>
        <time>2022-05-23 19:11:00</time>
      </trkpt>
      <trkpt lat="41.65548" lon="0.9738">
        <ele>334.2</ele>
        <time>2022-05-23 19:11:01</time>
      </trkpt>
      <trkpt lat="41.65542" lon="0.97376">
        <ele>334.2</ele>
        <time>2022-05-23 19:11:02</time>
      </trkpt>
      <trkpt lat="41.65536" lon="0.97372">
        <ele>334</ele>
        <time>2022-05-23 19:11:03</time>
      </trkpt>
      <trkpt lat="41.6553" lon="0.97368">
        <ele>334</ele>
        <time>2022-05-23 19:11:04</time>
      </trkpt>
      <trkpt lat="41.65525" lon="0.97365">
        <ele>334</ele>
        <time>2022-05-23 19:11:05</time>
      </trkpt>
      <trkpt lat="41.65519" lon="0.97361">
        <ele>334</ele>
        <time>2022-05-23 19:11:06</time>
      </trkpt>
      <trkpt lat="41.65513" lon="0.97357">
        <ele>334</ele>
        <time>2022-05-23 19:11:07</time>
      </trkpt>
      <trkpt lat="41.65507" lon="0.97353">
        <ele>334</ele>
        <time>2022-05-23 19:11:08</time>
      </trkpt>
      <trkpt lat="41.65502" lon="0.9735">
        <ele>333.8</ele>
        <time>2022-05-23 19:11:09</time>
      </trkpt>
      <trkpt lat="41.65496" lon="0.97346">
        <ele>334</ele>
        <time>2022-05-23 19:11:10</time>
      </trkpt>
      <trkpt lat="41.6549" lon="0.97343">
        <ele>334.4</ele>
        <time>2022-05-23 19:11:11</time>
      </trkpt>
      <trkpt lat="41.65484" lon="0.9734">
        <ele>334.4</ele>
        <time>2022-05-23 19:11:12</time>
      </trkpt>
      <trkpt lat="41.65479" lon="0.97337">
        <ele>334.6</ele>
        <time>2022-05-23 19:11:13</time>
      </trkpt>
      <trkpt lat="41.65473" lon="0.97335">
        <ele>334.8</ele>
        <time>2022-05-23 19:11:14</time>
      </trkpt>
      <trkpt lat="41.65468" lon="0.97332">
        <ele>334.8</ele>
        <time>2022-05-23 19:11:15</time>
      </trkpt>
      <trkpt lat="41.65462" lon="0.9733">
        <ele>334.8</ele>
        <time>2022-05-23 19:11:16</time>
      </trkpt>
      <trkpt lat="41.65457" lon="0.97327">
        <ele>335</ele>
        <time>2022-05-23 19:11:17</time>
      </trkpt>
      <trkpt lat="41.65452" lon="0.97326">
        <ele>335.2</ele>
        <time>2022-05-23 19:11:18</time>
      </trkpt>
      <trkpt lat="41.65448" lon="0.97324">
        <ele>335.2</ele>
        <time>2022-05-23 19:11:19</time>
      </trkpt>
      <trkpt lat="41.65443" lon="0.97322">
        <ele>335.4</ele>
        <time>2022-05-23 19:11:20</time>
      </trkpt>
      <trkpt lat="41.65438" lon="0.9732">
        <ele>335.8</ele>
        <time>2022-05-23 19:11:21</time>
      </trkpt>
      <trkpt lat="41.65433" lon="0.97318">
        <ele>336</ele>
        <time>2022-05-23 19:11:22</time>
      </trkpt>
      <trkpt lat="41.6543" lon="0.97316">
        <ele>336.2</ele>
        <time>2022-05-23 19:11:23</time>
      </trkpt>
      <trkpt lat="41.65425" lon="0.97315">
        <ele>336.4</ele>
        <time>2022-05-23 19:11:24</time>
      </trkpt>
      <trkpt lat="41.65421" lon="0.97313">
        <ele>336.6</ele>
        <time>2022-05-23 19:11:25</time>
      </trkpt>
      <trkpt lat="41.65417" lon="0.97312">
        <ele>336.8</ele>
        <time>2022-05-23 19:11:26</time>
      </trkpt>
      <trkpt lat="41.65412" lon="0.9731">
        <ele>337</ele>
        <time>2022-05-23 19:11:27</time>
      </trkpt>
      <trkpt lat="41.65408" lon="0.97309">
        <ele>337.2</ele>
        <time>2022-05-23 19:11:28</time>
      </trkpt>
      <trkpt lat="41.65404" lon="0.97308">
        <ele>337.2</ele>
        <time>2022-05-23 19:11:29</time>
      </trkpt>
      <trkpt lat="41.65399" lon="0.97307">
        <ele>337.4</ele>
        <time>2022-05-23 19:11:30</time>
      </trkpt>
      <trkpt lat="41.65395" lon="0.97307">
        <ele>337.6</ele>
        <time>2022-05-23 19:11:31</time>
      </trkpt>
      <trkpt lat="41.65391" lon="0.97305">
        <ele>337.8</ele>
        <time>2022-05-23 19:11:32</time>
      </trkpt>
      <trkpt lat="41.65387" lon="0.97304">
        <ele>338</ele>
        <time>2022-05-23 19:11:33</time>
      </trkpt>
      <trkpt lat="41.65383" lon="0.97303">
        <ele>338.4</ele>
        <time>2022-05-23 19:11:34</time>
      </trkpt>
      <trkpt lat="41.65379" lon="0.97302">
        <ele>338.6</ele>
        <time>2022-05-23 19:11:35</time>
      </trkpt>
      <trkpt lat="41.65374" lon="0.97302">
        <ele>338.8</ele>
        <time>2022-05-23 19:11:36</time>
      </trkpt>
      <trkpt lat="41.65369" lon="0.97301">
        <ele>338.8</ele>
        <time>2022-05-23 19:11:37</time>
      </trkpt>
      <trkpt lat="41.65365" lon="0.97301">
        <ele>339</ele>
        <time>2022-05-23 19:11:38</time>
      </trkpt>
      <trkpt lat="41.6536" lon="0.973">
        <ele>339</ele>
        <time>2022-05-23 19:11:39</time>
      </trkpt>
      <trkpt lat="41.65355" lon="0.97299">
        <ele>339</ele>
        <time>2022-05-23 19:11:40</time>
      </trkpt>
      <trkpt lat="41.6535" lon="0.97299">
        <ele>339.2</ele>
        <time>2022-05-23 19:11:41</time>
      </trkpt>
      <trkpt lat="41.65344" lon="0.97298">
        <ele>339</ele>
        <time>2022-05-23 19:11:42</time>
      </trkpt>
      <trkpt lat="41.65338" lon="0.97297">
        <ele>339</ele>
        <time>2022-05-23 19:11:43</time>
      </trkpt>
      <trkpt lat="41.65332" lon="0.97295">
        <ele>339</ele>
        <time>2022-05-23 19:11:44</time>
      </trkpt>
      <trkpt lat="41.65326" lon="0.97293">
        <ele>338.8</ele>
        <time>2022-05-23 19:11:45</time>
      </trkpt>
      <trkpt lat="41.65319" lon="0.97291">
        <ele>338.6</ele>
        <time>2022-05-23 19:11:46</time>
      </trkpt>
      <trkpt lat="41.65313" lon="0.97288">
        <ele>338.4</ele>
        <time>2022-05-23 19:11:47</time>
      </trkpt>
      <trkpt lat="41.65307" lon="0.97285">
        <ele>338.2</ele>
        <time>2022-05-23 19:11:48</time>
      </trkpt>
      <trkpt lat="41.65301" lon="0.97282">
        <ele>338</ele>
        <time>2022-05-23 19:11:49</time>
      </trkpt>
      <trkpt lat="41.65295" lon="0.97278">
        <ele>337.8</ele>
        <time>2022-05-23 19:11:50</time>
      </trkpt>
      <trkpt lat="41.65289" lon="0.97273">
        <ele>337.6</ele>
        <time>2022-05-23 19:11:51</time>
      </trkpt>
      <trkpt lat="41.65284" lon="0.97268">
        <ele>337.4</ele>
        <time>2022-05-23 19:11:52</time>
      </trkpt>
      <trkpt lat="41.65278" lon="0.97262">
        <ele>337.2</ele>
        <time>2022-05-23 19:11:53</time>
      </trkpt>
      <trkpt lat="41.65273" lon="0.97257">
        <ele>337</ele>
        <time>2022-05-23 19:11:54</time>
      </trkpt>
      <trkpt lat="41.65268" lon="0.97252">
        <ele>337</ele>
        <time>2022-05-23 19:11:55</time>
      </trkpt>
      <trkpt lat="41.65263" lon="0.97247">
        <ele>336.8</ele>
        <time>2022-05-23 19:11:56</time>
      </trkpt>
      <trkpt lat="41.65259" lon="0.97242">
        <ele>336.8</ele>
        <time>2022-05-23 19:11:57</time>
      </trkpt>
      <trkpt lat="41.65254" lon="0.97237">
        <ele>336.6</ele>
        <time>2022-05-23 19:11:58</time>
      </trkpt>
      <trkpt lat="41.65249" lon="0.97232">
        <ele>336.6</ele>
        <time>2022-05-23 19:11:59</time>
      </trkpt>
      <trkpt lat="41.65245" lon="0.97227">
        <ele>336.4</ele>
        <time>2022-05-23 19:12:00</time>
      </trkpt>
      <trkpt lat="41.6524" lon="0.97222">
        <ele>336.4</ele>
        <time>2022-05-23 19:12:01</time>
      </trkpt>
      <trkpt lat="41.65236" lon="0.97217">
        <ele>336.4</ele>
        <time>2022-05-23 19:12:02</time>
      </trkpt>
      <trkpt lat="41.65231" lon="0.97212">
        <ele>336.4</ele>
        <time>2022-05-23 19:12:03</time>
      </trkpt>
      <trkpt lat="41.65226" lon="0.97207">
        <ele>336.4</ele>
        <time>2022-05-23 19:12:04</time>
      </trkpt>
      <trkpt lat="41.65222" lon="0.97202">
        <ele>336.2</ele>
        <time>2022-05-23 19:12:05</time>
      </trkpt>
      <trkpt lat="41.65217" lon="0.97196">
        <ele>336</ele>
        <time>2022-05-23 19:12:06</time>
      </trkpt>
      <trkpt lat="41.65211" lon="0.97191">
        <ele>336</ele>
        <time>2022-05-23 19:12:07</time>
      </trkpt>
      <trkpt lat="41.65206" lon="0.97186">
        <ele>335.8</ele>
        <time>2022-05-23 19:12:08</time>
      </trkpt>
      <trkpt lat="41.65202" lon="0.97181">
        <ele>335.8</ele>
        <time>2022-05-23 19:12:09</time>
      </trkpt>
      <trkpt lat="41.65197" lon="0.97176">
        <ele>335.8</ele>
        <time>2022-05-23 19:12:10</time>
      </trkpt>
      <trkpt lat="41.65193" lon="0.97172">
        <ele>335.6</ele>
        <time>2022-05-23 19:12:11</time>
      </trkpt>
      <trkpt lat="41.65188" lon="0.97166">
        <ele>335.6</ele>
        <time>2022-05-23 19:12:12</time>
      </trkpt>
      <trkpt lat="41.65183" lon="0.97162">
        <ele>335.6</ele>
        <time>2022-05-23 19:12:13</time>
      </trkpt>
      <trkpt lat="41.65178" lon="0.97157">
        <ele>335.6</ele>
        <time>2022-05-23 19:12:14</time>
      </trkpt>
      <trkpt lat="41.65174" lon="0.97152">
        <ele>335.6</ele>
        <time>2022-05-23 19:12:15</time>
      </trkpt>
      <trkpt lat="41.65169" lon="0.97146">
        <ele>335.4</ele>
        <time>2022-05-23 19:12:16</time>
      </trkpt>
      <trkpt lat="41.65164" lon="0.97142">
        <ele>335.4</ele>
        <time>2022-05-23 19:12:17</time>
      </trkpt>
      <trkpt lat="41.6516" lon="0.97136">
        <ele>335.2</ele>
        <time>2022-05-23 19:12:18</time>
      </trkpt>
      <trkpt lat="41.65156" lon="0.9713">
        <ele>335.2</ele>
        <time>2022-05-23 19:12:19</time>
      </trkpt>
      <trkpt lat="41.65153" lon="0.97123">
        <ele>335</ele>
        <time>2022-05-23 19:12:20</time>
      </trkpt>
      <trkpt lat="41.6515" lon="0.97117">
        <ele>335</ele>
        <time>2022-05-23 19:12:21</time>
      </trkpt>
      <trkpt lat="41.65147" lon="0.9711">
        <ele>335</ele>
        <time>2022-05-23 19:12:22</time>
      </trkpt>
      <trkpt lat="41.65144" lon="0.97104">
        <ele>335</ele>
        <time>2022-05-23 19:12:23</time>
      </trkpt>
      <trkpt lat="41.65141" lon="0.97098">
        <ele>335</ele>
        <time>2022-05-23 19:12:24</time>
      </trkpt>
      <trkpt lat="41.65138" lon="0.97091">
        <ele>335</ele>
        <time>2022-05-23 19:12:25</time>
      </trkpt>
      <trkpt lat="41.65135" lon="0.97085">
        <ele>335</ele>
        <time>2022-05-23 19:12:26</time>
      </trkpt>
      <trkpt lat="41.65132" lon="0.97079">
        <ele>335.2</ele>
        <time>2022-05-23 19:12:27</time>
      </trkpt>
      <trkpt lat="41.65129" lon="0.97073">
        <ele>335</ele>
        <time>2022-05-23 19:12:28</time>
      </trkpt>
      <trkpt lat="41.65126" lon="0.97066">
        <ele>335</ele>
        <time>2022-05-23 19:12:29</time>
      </trkpt>
      <trkpt lat="41.65123" lon="0.9706">
        <ele>335.2</ele>
        <time>2022-05-23 19:12:30</time>
      </trkpt>
      <trkpt lat="41.6512" lon="0.97053">
        <ele>335.2</ele>
        <time>2022-05-23 19:12:31</time>
      </trkpt>
      <trkpt lat="41.65117" lon="0.97047">
        <ele>335.2</ele>
        <time>2022-05-23 19:12:32</time>
      </trkpt>
      <trkpt lat="41.65114" lon="0.97041">
        <ele>335.2</ele>
        <time>2022-05-23 19:12:33</time>
      </trkpt>
      <trkpt lat="41.65111" lon="0.97035">
        <ele>335.2</ele>
        <time>2022-05-23 19:12:34</time>
      </trkpt>
      <trkpt lat="41.65108" lon="0.97029">
        <ele>335</ele>
        <time>2022-05-23 19:12:35</time>
      </trkpt>
      <trkpt lat="41.65105" lon="0.97022">
        <ele>335</ele>
        <time>2022-05-23 19:12:36</time>
      </trkpt>
      <trkpt lat="41.65103" lon="0.97016">
        <ele>335</ele>
        <time>2022-05-23 19:12:37</time>
      </trkpt>
      <trkpt lat="41.651" lon="0.9701">
        <ele>335</ele>
        <time>2022-05-23 19:12:38</time>
      </trkpt>
      <trkpt lat="41.65098" lon="0.97005">
        <ele>335</ele>
        <time>2022-05-23 19:12:39</time>
      </trkpt>
      <trkpt lat="41.65095" lon="0.96997">
        <ele>335.2</ele>
        <time>2022-05-23 19:12:40</time>
      </trkpt>
      <trkpt lat="41.65093" lon="0.96992">
        <ele>335.2</ele>
        <time>2022-05-23 19:12:41</time>
      </trkpt>
      <trkpt lat="41.6509" lon="0.96985">
        <ele>335.2</ele>
        <time>2022-05-23 19:12:42</time>
      </trkpt>
      <trkpt lat="41.65087" lon="0.96979">
        <ele>335.4</ele>
        <time>2022-05-23 19:12:43</time>
      </trkpt>
      <trkpt lat="41.65085" lon="0.96972">
        <ele>335.4</ele>
        <time>2022-05-23 19:12:44</time>
      </trkpt>
      <trkpt lat="41.65083" lon="0.96966">
        <ele>335.6</ele>
        <time>2022-05-23 19:12:45</time>
      </trkpt>
      <trkpt lat="41.65081" lon="0.9696">
        <ele>335.6</ele>
        <time>2022-05-23 19:12:46</time>
      </trkpt>
      <trkpt lat="41.65079" lon="0.96954">
        <ele>335.8</ele>
        <time>2022-05-23 19:12:47</time>
      </trkpt>
      <trkpt lat="41.65077" lon="0.96947">
        <ele>335.8</ele>
        <time>2022-05-23 19:12:48</time>
      </trkpt>
      <trkpt lat="41.65075" lon="0.96942">
        <ele>336</ele>
        <time>2022-05-23 19:12:49</time>
      </trkpt>
      <trkpt lat="41.65073" lon="0.96935">
        <ele>336</ele>
        <time>2022-05-23 19:12:50</time>
      </trkpt>
      <trkpt lat="41.65071" lon="0.96929">
        <ele>336.2</ele>
        <time>2022-05-23 19:12:51</time>
      </trkpt>
      <trkpt lat="41.6507" lon="0.96923">
        <ele>336.2</ele>
        <time>2022-05-23 19:12:52</time>
      </trkpt>
      <trkpt lat="41.65068" lon="0.96917">
        <ele>336.4</ele>
        <time>2022-05-23 19:12:53</time>
      </trkpt>
      <trkpt lat="41.65066" lon="0.96911">
        <ele>336.4</ele>
        <time>2022-05-23 19:12:54</time>
      </trkpt>
      <trkpt lat="41.65063" lon="0.96904">
        <ele>336.4</ele>
        <time>2022-05-23 19:12:55</time>
      </trkpt>
      <trkpt lat="41.65062" lon="0.96898">
        <ele>336.4</ele>
        <time>2022-05-23 19:12:56</time>
      </trkpt>
      <trkpt lat="41.6506" lon="0.96893">
        <ele>336.4</ele>
        <time>2022-05-23 19:12:57</time>
      </trkpt>
      <trkpt lat="41.65057" lon="0.96886">
        <ele>336.4</ele>
        <time>2022-05-23 19:12:58</time>
      </trkpt>
      <trkpt lat="41.65055" lon="0.9688">
        <ele>336.4</ele>
        <time>2022-05-23 19:12:59</time>
      </trkpt>
      <trkpt lat="41.65052" lon="0.96874">
        <ele>336.4</ele>
        <time>2022-05-23 19:13:00</time>
      </trkpt>
      <trkpt lat="41.65049" lon="0.96869">
        <ele>336.4</ele>
        <time>2022-05-23 19:13:01</time>
      </trkpt>
      <trkpt lat="41.65047" lon="0.96863">
        <ele>336.6</ele>
        <time>2022-05-23 19:13:02</time>
      </trkpt>
      <trkpt lat="41.65044" lon="0.96858">
        <ele>336.6</ele>
        <time>2022-05-23 19:13:03</time>
      </trkpt>
      <trkpt lat="41.65041" lon="0.96853">
        <ele>336.6</ele>
        <time>2022-05-23 19:13:04</time>
      </trkpt>
      <trkpt lat="41.65038" lon="0.96847">
        <ele>336.6</ele>
        <time>2022-05-23 19:13:05</time>
      </trkpt>
      <trkpt lat="41.65035" lon="0.96841">
        <ele>336.6</ele>
        <time>2022-05-23 19:13:06</time>
      </trkpt>
      <trkpt lat="41.65032" lon="0.96836">
        <ele>336.6</ele>
        <time>2022-05-23 19:13:07</time>
      </trkpt>
      <trkpt lat="41.65028" lon="0.96831">
        <ele>336.6</ele>
        <time>2022-05-23 19:13:08</time>
      </trkpt>
      <trkpt lat="41.65025" lon="0.96825">
        <ele>336.8</ele>
        <time>2022-05-23 19:13:09</time>
      </trkpt>
      <trkpt lat="41.65021" lon="0.9682">
        <ele>336.8</ele>
        <time>2022-05-23 19:13:10</time>
      </trkpt>
      <trkpt lat="41.65018" lon="0.96815">
        <ele>336.8</ele>
        <time>2022-05-23 19:13:11</time>
      </trkpt>
      <trkpt lat="41.65014" lon="0.9681">
        <ele>336.8</ele>
        <time>2022-05-23 19:13:12</time>
      </trkpt>
      <trkpt lat="41.65011" lon="0.96804">
        <ele>337</ele>
        <time>2022-05-23 19:13:13</time>
      </trkpt>
      <trkpt lat="41.65008" lon="0.96799">
        <ele>337</ele>
        <time>2022-05-23 19:13:14</time>
      </trkpt>
      <trkpt lat="41.65005" lon="0.96795">
        <ele>337.2</ele>
        <time>2022-05-23 19:13:15</time>
      </trkpt>
      <trkpt lat="41.65" lon="0.96789">
        <ele>337.4</ele>
        <time>2022-05-23 19:13:16</time>
      </trkpt>
      <trkpt lat="41.64997" lon="0.96785">
        <ele>337.4</ele>
        <time>2022-05-23 19:13:17</time>
      </trkpt>
      <trkpt lat="41.64993" lon="0.9678">
        <ele>337.4</ele>
        <time>2022-05-23 19:13:18</time>
      </trkpt>
      <trkpt lat="41.64989" lon="0.96776">
        <ele>337.6</ele>
        <time>2022-05-23 19:13:19</time>
      </trkpt>
      <trkpt lat="41.64985" lon="0.96771">
        <ele>337.6</ele>
        <time>2022-05-23 19:13:20</time>
      </trkpt>
      <trkpt lat="41.64981" lon="0.96767">
        <ele>337.8</ele>
        <time>2022-05-23 19:13:21</time>
      </trkpt>
      <trkpt lat="41.64977" lon="0.96763">
        <ele>338</ele>
        <time>2022-05-23 19:13:22</time>
      </trkpt>
      <trkpt lat="41.64973" lon="0.9676">
        <ele>338.2</ele>
        <time>2022-05-23 19:13:23</time>
      </trkpt>
      <trkpt lat="41.64969" lon="0.96756">
        <ele>338.2</ele>
        <time>2022-05-23 19:13:24</time>
      </trkpt>
      <trkpt lat="41.64966" lon="0.96753">
        <ele>338.4</ele>
        <time>2022-05-23 19:13:25</time>
      </trkpt>
      <trkpt lat="41.64961" lon="0.96749">
        <ele>338.6</ele>
        <time>2022-05-23 19:13:26</time>
      </trkpt>
      <trkpt lat="41.64958" lon="0.96747">
        <ele>338.6</ele>
        <time>2022-05-23 19:13:27</time>
      </trkpt>
      <trkpt lat="41.64954" lon="0.96742">
        <ele>338.8</ele>
        <time>2022-05-23 19:13:28</time>
      </trkpt>
      <trkpt lat="41.6495" lon="0.96739">
        <ele>339</ele>
        <time>2022-05-23 19:13:29</time>
      </trkpt>
      <trkpt lat="41.64946" lon="0.96737">
        <ele>339</ele>
        <time>2022-05-23 19:13:30</time>
      </trkpt>
      <trkpt lat="41.64942" lon="0.96734">
        <ele>339.2</ele>
        <time>2022-05-23 19:13:31</time>
      </trkpt>
      <trkpt lat="41.64938" lon="0.96732">
        <ele>339.4</ele>
        <time>2022-05-23 19:13:32</time>
      </trkpt>
      <trkpt lat="41.64935" lon="0.9673">
        <ele>339.6</ele>
        <time>2022-05-23 19:13:33</time>
      </trkpt>
      <trkpt lat="41.64931" lon="0.96727">
        <ele>339.8</ele>
        <time>2022-05-23 19:13:34</time>
      </trkpt>
      <trkpt lat="41.64928" lon="0.96725">
        <ele>340</ele>
        <time>2022-05-23 19:13:35</time>
      </trkpt>
      <trkpt lat="41.64923" lon="0.96722">
        <ele>340.4</ele>
        <time>2022-05-23 19:13:36</time>
      </trkpt>
      <trkpt lat="41.6492" lon="0.96719">
        <ele>340.4</ele>
        <time>2022-05-23 19:13:37</time>
      </trkpt>
      <trkpt lat="41.64916" lon="0.96717">
        <ele>340.6</ele>
        <time>2022-05-23 19:13:38</time>
      </trkpt>
      <trkpt lat="41.64912" lon="0.96714">
        <ele>341</ele>
        <time>2022-05-23 19:13:39</time>
      </trkpt>
      <trkpt lat="41.64908" lon="0.96712">
        <ele>341.2</ele>
        <time>2022-05-23 19:13:40</time>
      </trkpt>
      <trkpt lat="41.64905" lon="0.96709">
        <ele>341.4</ele>
        <time>2022-05-23 19:13:41</time>
      </trkpt>
      <trkpt lat="41.64901" lon="0.96707">
        <ele>341.6</ele>
        <time>2022-05-23 19:13:42</time>
      </trkpt>
      <trkpt lat="41.64897" lon="0.96704">
        <ele>341.8</ele>
        <time>2022-05-23 19:13:43</time>
      </trkpt>
      <trkpt lat="41.64894" lon="0.96702">
        <ele>342.2</ele>
        <time>2022-05-23 19:13:44</time>
      </trkpt>
      <trkpt lat="41.6489" lon="0.96699">
        <ele>342.4</ele>
        <time>2022-05-23 19:13:45</time>
      </trkpt>
      <trkpt lat="41.64886" lon="0.96696">
        <ele>342.6</ele>
        <time>2022-05-23 19:13:46</time>
      </trkpt>
      <trkpt lat="41.64883" lon="0.96693">
        <ele>342.8</ele>
        <time>2022-05-23 19:13:47</time>
      </trkpt>
      <trkpt lat="41.64879" lon="0.9669">
        <ele>343</ele>
        <time>2022-05-23 19:13:48</time>
      </trkpt>
      <trkpt lat="41.64875" lon="0.96688">
        <ele>343</ele>
        <time>2022-05-23 19:13:49</time>
      </trkpt>
      <trkpt lat="41.64872" lon="0.96686">
        <ele>343.2</ele>
        <time>2022-05-23 19:13:50</time>
      </trkpt>
      <trkpt lat="41.64868" lon="0.96683">
        <ele>343.4</ele>
        <time>2022-05-23 19:13:51</time>
      </trkpt>
      <trkpt lat="41.64865" lon="0.96681">
        <ele>343.6</ele>
        <time>2022-05-23 19:13:52</time>
      </trkpt>
      <trkpt lat="41.64862" lon="0.96679">
        <ele>343.8</ele>
        <time>2022-05-23 19:13:53</time>
      </trkpt>
      <trkpt lat="41.64859" lon="0.96676">
        <ele>343.8</ele>
        <time>2022-05-23 19:13:54</time>
      </trkpt>
      <trkpt lat="41.64856" lon="0.96674">
        <ele>344</ele>
        <time>2022-05-23 19:13:55</time>
      </trkpt>
      <trkpt lat="41.64853" lon="0.96673">
        <ele>344</ele>
        <time>2022-05-23 19:13:56</time>
      </trkpt>
      <trkpt lat="41.6485" lon="0.9667">
        <ele>344</ele>
        <time>2022-05-23 19:13:57</time>
      </trkpt>
      <trkpt lat="41.64847" lon="0.96668">
        <ele>344.2</ele>
        <time>2022-05-23 19:13:58</time>
      </trkpt>
      <trkpt lat="41.64845" lon="0.96667">
        <ele>344.4</ele>
        <time>2022-05-23 19:13:59</time>
      </trkpt>
      <trkpt lat="41.64841" lon="0.96664">
        <ele>344.6</ele>
        <time>2022-05-23 19:14:00</time>
      </trkpt>
      <trkpt lat="41.64838" lon="0.96662">
        <ele>345.2</ele>
        <time>2022-05-23 19:14:01</time>
      </trkpt>
      <trkpt lat="41.64835" lon="0.9666">
        <ele>345.4</ele>
        <time>2022-05-23 19:14:02</time>
      </trkpt>
      <trkpt lat="41.64832" lon="0.96658">
        <ele>345.6</ele>
        <time>2022-05-23 19:14:03</time>
      </trkpt>
      <trkpt lat="41.64829" lon="0.96656">
        <ele>345.6</ele>
        <time>2022-05-23 19:14:04</time>
      </trkpt>
      <trkpt lat="41.64826" lon="0.96655">
        <ele>345.8</ele>
        <time>2022-05-23 19:14:05</time>
      </trkpt>
      <trkpt lat="41.64823" lon="0.96652">
        <ele>346</ele>
        <time>2022-05-23 19:14:06</time>
      </trkpt>
      <trkpt lat="41.6482" lon="0.9665">
        <ele>346.2</ele>
        <time>2022-05-23 19:14:07</time>
      </trkpt>
      <trkpt lat="41.64817" lon="0.96649">
        <ele>346.4</ele>
        <time>2022-05-23 19:14:08</time>
      </trkpt>
      <trkpt lat="41.64813" lon="0.96647">
        <ele>346.6</ele>
        <time>2022-05-23 19:14:09</time>
      </trkpt>
      <trkpt lat="41.6481" lon="0.96646">
        <ele>346.6</ele>
        <time>2022-05-23 19:14:10</time>
      </trkpt>
      <trkpt lat="41.64807" lon="0.96644">
        <ele>346.8</ele>
        <time>2022-05-23 19:14:11</time>
      </trkpt>
      <trkpt lat="41.64803" lon="0.96643">
        <ele>347</ele>
        <time>2022-05-23 19:14:12</time>
      </trkpt>
      <trkpt lat="41.648" lon="0.96641">
        <ele>347</ele>
        <time>2022-05-23 19:14:13</time>
      </trkpt>
      <trkpt lat="41.64797" lon="0.9664">
        <ele>347.2</ele>
        <time>2022-05-23 19:14:14</time>
      </trkpt>
      <trkpt lat="41.64793" lon="0.96638">
        <ele>347.4</ele>
        <time>2022-05-23 19:14:15</time>
      </trkpt>
      <trkpt lat="41.64789" lon="0.96637">
        <ele>347.4</ele>
        <time>2022-05-23 19:14:16</time>
      </trkpt>
      <trkpt lat="41.64786" lon="0.96636">
        <ele>347.4</ele>
        <time>2022-05-23 19:14:17</time>
      </trkpt>
      <trkpt lat="41.64781" lon="0.96634">
        <ele>347.6</ele>
        <time>2022-05-23 19:14:18</time>
      </trkpt>
      <trkpt lat="41.64778" lon="0.96632">
        <ele>347.6</ele>
        <time>2022-05-23 19:14:19</time>
      </trkpt>
      <trkpt lat="41.64774" lon="0.96631">
        <ele>347.6</ele>
        <time>2022-05-23 19:14:20</time>
      </trkpt>
      <trkpt lat="41.64769" lon="0.96629">
        <ele>347.4</ele>
        <time>2022-05-23 19:14:21</time>
      </trkpt>
      <trkpt lat="41.64765" lon="0.96628">
        <ele>347.4</ele>
        <time>2022-05-23 19:14:22</time>
      </trkpt>
      <trkpt lat="41.64761" lon="0.96626">
        <ele>347.2</ele>
        <time>2022-05-23 19:14:23</time>
      </trkpt>
      <trkpt lat="41.64756" lon="0.96624">
        <ele>347.2</ele>
        <time>2022-05-23 19:14:24</time>
      </trkpt>
      <trkpt lat="41.64752" lon="0.96622">
        <ele>347.2</ele>
        <time>2022-05-23 19:14:25</time>
      </trkpt>
      <trkpt lat="41.64747" lon="0.96619">
        <ele>347.4</ele>
        <time>2022-05-23 19:14:26</time>
      </trkpt>
      <trkpt lat="41.64743" lon="0.96617">
        <ele>347.4</ele>
        <time>2022-05-23 19:14:27</time>
      </trkpt>
      <trkpt lat="41.6474" lon="0.96615">
        <ele>347.4</ele>
        <time>2022-05-23 19:14:28</time>
      </trkpt>
      <trkpt lat="41.64734" lon="0.96611">
        <ele>347.2</ele>
        <time>2022-05-23 19:14:29</time>
      </trkpt>
      <trkpt lat="41.6473" lon="0.96608">
        <ele>347.2</ele>
        <time>2022-05-23 19:14:30</time>
      </trkpt>
      <trkpt lat="41.64726" lon="0.96605">
        <ele>347.2</ele>
        <time>2022-05-23 19:14:31</time>
      </trkpt>
      <trkpt lat="41.64722" lon="0.96602">
        <ele>347</ele>
        <time>2022-05-23 19:14:32</time>
      </trkpt>
      <trkpt lat="41.64719" lon="0.966">
        <ele>347</ele>
        <time>2022-05-23 19:14:33</time>
      </trkpt>
      <trkpt lat="41.64715" lon="0.96597">
        <ele>347.2</ele>
        <time>2022-05-23 19:14:34</time>
      </trkpt>
      <trkpt lat="41.64711" lon="0.96593">
        <ele>347.2</ele>
        <time>2022-05-23 19:14:35</time>
      </trkpt>
      <trkpt lat="41.64708" lon="0.9659">
        <ele>347.2</ele>
        <time>2022-05-23 19:14:36</time>
      </trkpt>
      <trkpt lat="41.64704" lon="0.96586">
        <ele>347.2</ele>
        <time>2022-05-23 19:14:37</time>
      </trkpt>
      <trkpt lat="41.647" lon="0.96583">
        <ele>347.4</ele>
        <time>2022-05-23 19:14:38</time>
      </trkpt>
      <trkpt lat="41.64696" lon="0.96579">
        <ele>347.4</ele>
        <time>2022-05-23 19:14:39</time>
      </trkpt>
      <trkpt lat="41.64692" lon="0.96577">
        <ele>347.4</ele>
        <time>2022-05-23 19:14:40</time>
      </trkpt>
      <trkpt lat="41.64688" lon="0.96574">
        <ele>347.6</ele>
        <time>2022-05-23 19:14:41</time>
      </trkpt>
      <trkpt lat="41.64684" lon="0.96571">
        <ele>347.6</ele>
        <time>2022-05-23 19:14:42</time>
      </trkpt>
      <trkpt lat="41.64679" lon="0.96568">
        <ele>347.6</ele>
        <time>2022-05-23 19:14:43</time>
      </trkpt>
      <trkpt lat="41.64676" lon="0.96565">
        <ele>347.6</ele>
        <time>2022-05-23 19:14:44</time>
      </trkpt>
      <trkpt lat="41.64672" lon="0.96561">
        <ele>347.6</ele>
        <time>2022-05-23 19:14:45</time>
      </trkpt>
      <trkpt lat="41.64668" lon="0.96559">
        <ele>347.8</ele>
        <time>2022-05-23 19:14:46</time>
      </trkpt>
      <trkpt lat="41.64664" lon="0.96555">
        <ele>347.6</ele>
        <time>2022-05-23 19:14:47</time>
      </trkpt>
      <trkpt lat="41.6466" lon="0.96553">
        <ele>347.6</ele>
        <time>2022-05-23 19:14:48</time>
      </trkpt>
      <trkpt lat="41.64656" lon="0.96549">
        <ele>347.6</ele>
        <time>2022-05-23 19:14:49</time>
      </trkpt>
      <trkpt lat="41.64652" lon="0.96545">
        <ele>347.8</ele>
        <time>2022-05-23 19:14:50</time>
      </trkpt>
      <trkpt lat="41.64648" lon="0.96542">
        <ele>347.8</ele>
        <time>2022-05-23 19:14:51</time>
      </trkpt>
      <trkpt lat="41.64644" lon="0.96539">
        <ele>347.8</ele>
        <time>2022-05-23 19:14:52</time>
      </trkpt>
      <trkpt lat="41.6464" lon="0.96536">
        <ele>347.8</ele>
        <time>2022-05-23 19:14:53</time>
      </trkpt>
      <trkpt lat="41.64636" lon="0.96533">
        <ele>347.8</ele>
        <time>2022-05-23 19:14:54</time>
      </trkpt>
      <trkpt lat="41.64632" lon="0.9653">
        <ele>347.8</ele>
        <time>2022-05-23 19:14:55</time>
      </trkpt>
      <trkpt lat="41.64628" lon="0.96528">
        <ele>347.8</ele>
        <time>2022-05-23 19:14:56</time>
      </trkpt>
      <trkpt lat="41.64624" lon="0.96525">
        <ele>348</ele>
        <time>2022-05-23 19:14:57</time>
      </trkpt>
      <trkpt lat="41.6462" lon="0.96522">
        <ele>348</ele>
        <time>2022-05-23 19:14:58</time>
      </trkpt>
      <trkpt lat="41.64617" lon="0.96519">
        <ele>348</ele>
        <time>2022-05-23 19:14:59</time>
      </trkpt>
      <trkpt lat="41.64612" lon="0.96516">
        <ele>348.2</ele>
        <time>2022-05-23 19:15:00</time>
      </trkpt>
      <trkpt lat="41.64608" lon="0.96513">
        <ele>348.4</ele>
        <time>2022-05-23 19:15:01</time>
      </trkpt>
      <trkpt lat="41.64604" lon="0.96509">
        <ele>348.4</ele>
        <time>2022-05-23 19:15:02</time>
      </trkpt>
      <trkpt lat="41.64601" lon="0.96506">
        <ele>348.4</ele>
        <time>2022-05-23 19:15:03</time>
      </trkpt>
      <trkpt lat="41.64596" lon="0.96503">
        <ele>348.6</ele>
        <time>2022-05-23 19:15:04</time>
      </trkpt>
      <trkpt lat="41.64593" lon="0.96501">
        <ele>348.8</ele>
        <time>2022-05-23 19:15:05</time>
      </trkpt>
      <trkpt lat="41.64589" lon="0.96497">
        <ele>348.8</ele>
        <time>2022-05-23 19:15:06</time>
      </trkpt>
      <trkpt lat="41.64585" lon="0.96494">
        <ele>349</ele>
        <time>2022-05-23 19:15:07</time>
      </trkpt>
      <trkpt lat="41.64581" lon="0.9649">
        <ele>349.2</ele>
        <time>2022-05-23 19:15:08</time>
      </trkpt>
      <trkpt lat="41.64578" lon="0.96488">
        <ele>349.2</ele>
        <time>2022-05-23 19:15:09</time>
      </trkpt>
      <trkpt lat="41.64573" lon="0.96484">
        <ele>349.2</ele>
        <time>2022-05-23 19:15:10</time>
      </trkpt>
      <trkpt lat="41.64569" lon="0.96481">
        <ele>349.4</ele>
        <time>2022-05-23 19:15:11</time>
      </trkpt>
      <trkpt lat="41.64564" lon="0.96478">
        <ele>349.4</ele>
        <time>2022-05-23 19:15:12</time>
      </trkpt>
      <trkpt lat="41.64561" lon="0.96475">
        <ele>349.4</ele>
        <time>2022-05-23 19:15:13</time>
      </trkpt>
      <trkpt lat="41.64556" lon="0.96472">
        <ele>349.4</ele>
        <time>2022-05-23 19:15:14</time>
      </trkpt>
      <trkpt lat="41.64552" lon="0.96469">
        <ele>349.6</ele>
        <time>2022-05-23 19:15:15</time>
      </trkpt>
      <trkpt lat="41.64548" lon="0.96466">
        <ele>349.6</ele>
        <time>2022-05-23 19:15:16</time>
      </trkpt>
      <trkpt lat="41.64544" lon="0.96463">
        <ele>349.6</ele>
        <time>2022-05-23 19:15:17</time>
      </trkpt>
      <trkpt lat="41.64539" lon="0.9646">
        <ele>349.6</ele>
        <time>2022-05-23 19:15:18</time>
      </trkpt>
      <trkpt lat="41.64536" lon="0.96458">
        <ele>349.6</ele>
        <time>2022-05-23 19:15:19</time>
      </trkpt>
      <trkpt lat="41.64531" lon="0.96454">
        <ele>349.6</ele>
        <time>2022-05-23 19:15:20</time>
      </trkpt>
      <trkpt lat="41.64527" lon="0.96452">
        <ele>349.6</ele>
        <time>2022-05-23 19:15:21</time>
      </trkpt>
      <trkpt lat="41.64522" lon="0.96449">
        <ele>349.6</ele>
        <time>2022-05-23 19:15:22</time>
      </trkpt>
      <trkpt lat="41.64518" lon="0.96446">
        <ele>349.6</ele>
        <time>2022-05-23 19:15:23</time>
      </trkpt>
      <trkpt lat="41.64514" lon="0.96443">
        <ele>349.6</ele>
        <time>2022-05-23 19:15:24</time>
      </trkpt>
      <trkpt lat="41.6451" lon="0.96441">
        <ele>349.8</ele>
        <time>2022-05-23 19:15:25</time>
      </trkpt>
      <trkpt lat="41.64505" lon="0.96438">
        <ele>349.8</ele>
        <time>2022-05-23 19:15:26</time>
      </trkpt>
      <trkpt lat="41.64502" lon="0.96437">
        <ele>350</ele>
        <time>2022-05-23 19:15:27</time>
      </trkpt>
      <trkpt lat="41.64496" lon="0.96434">
        <ele>350</ele>
        <time>2022-05-23 19:15:28</time>
      </trkpt>
      <trkpt lat="41.64492" lon="0.96432">
        <ele>350</ele>
        <time>2022-05-23 19:15:29</time>
      </trkpt>
      <trkpt lat="41.64487" lon="0.9643">
        <ele>350</ele>
        <time>2022-05-23 19:15:30</time>
      </trkpt>
      <trkpt lat="41.64483" lon="0.96428">
        <ele>350</ele>
        <time>2022-05-23 19:15:31</time>
      </trkpt>
      <trkpt lat="41.64479" lon="0.96425">
        <ele>350</ele>
        <time>2022-05-23 19:15:32</time>
      </trkpt>
      <trkpt lat="41.64474" lon="0.96423">
        <ele>350</ele>
        <time>2022-05-23 19:15:33</time>
      </trkpt>
      <trkpt lat="41.64469" lon="0.96421">
        <ele>350.2</ele>
        <time>2022-05-23 19:15:34</time>
      </trkpt>
      <trkpt lat="41.64466" lon="0.96419">
        <ele>350.4</ele>
        <time>2022-05-23 19:15:35</time>
      </trkpt>
      <trkpt lat="41.6446" lon="0.96417">
        <ele>350.4</ele>
        <time>2022-05-23 19:15:36</time>
      </trkpt>
      <trkpt lat="41.64457" lon="0.96415">
        <ele>350.6</ele>
        <time>2022-05-23 19:15:37</time>
      </trkpt>
      <trkpt lat="41.64451" lon="0.96413">
        <ele>350.6</ele>
        <time>2022-05-23 19:15:38</time>
      </trkpt>
      <trkpt lat="41.64447" lon="0.96411">
        <ele>350.8</ele>
        <time>2022-05-23 19:15:39</time>
      </trkpt>
      <trkpt lat="41.64442" lon="0.96409">
        <ele>350.8</ele>
        <time>2022-05-23 19:15:40</time>
      </trkpt>
      <trkpt lat="41.64438" lon="0.96408">
        <ele>350.8</ele>
        <time>2022-05-23 19:15:41</time>
      </trkpt>
      <trkpt lat="41.64432" lon="0.96406">
        <ele>350.8</ele>
        <time>2022-05-23 19:15:42</time>
      </trkpt>
      <trkpt lat="41.64427" lon="0.96405">
        <ele>350.8</ele>
        <time>2022-05-23 19:15:43</time>
      </trkpt>
      <trkpt lat="41.64422" lon="0.96403">
        <ele>350.8</ele>
        <time>2022-05-23 19:15:44</time>
      </trkpt>
      <trkpt lat="41.64417" lon="0.96402">
        <ele>350.8</ele>
        <time>2022-05-23 19:15:45</time>
      </trkpt>
      <trkpt lat="41.64411" lon="0.964">
        <ele>350.8</ele>
        <time>2022-05-23 19:15:46</time>
      </trkpt>
      <trkpt lat="41.64407" lon="0.96399">
        <ele>350.8</ele>
        <time>2022-05-23 19:15:47</time>
      </trkpt>
      <trkpt lat="41.64401" lon="0.96398">
        <ele>350.8</ele>
        <time>2022-05-23 19:15:48</time>
      </trkpt>
      <trkpt lat="41.64396" lon="0.96396">
        <ele>350.8</ele>
        <time>2022-05-23 19:15:49</time>
      </trkpt>
      <trkpt lat="41.6439" lon="0.96395">
        <ele>351</ele>
        <time>2022-05-23 19:15:50</time>
      </trkpt>
      <trkpt lat="41.64385" lon="0.96395">
        <ele>351</ele>
        <time>2022-05-23 19:15:51</time>
      </trkpt>
      <trkpt lat="41.64379" lon="0.96394">
        <ele>351.2</ele>
        <time>2022-05-23 19:15:52</time>
      </trkpt>
      <trkpt lat="41.64373" lon="0.96393">
        <ele>351.4</ele>
        <time>2022-05-23 19:15:53</time>
      </trkpt>
      <trkpt lat="41.64367" lon="0.96392">
        <ele>351.4</ele>
        <time>2022-05-23 19:15:54</time>
      </trkpt>
      <trkpt lat="41.64362" lon="0.96391">
        <ele>351.4</ele>
        <time>2022-05-23 19:15:55</time>
      </trkpt>
      <trkpt lat="41.64356" lon="0.9639">
        <ele>351.4</ele>
        <time>2022-05-23 19:15:56</time>
      </trkpt>
      <trkpt lat="41.64351" lon="0.9639">
        <ele>351.4</ele>
        <time>2022-05-23 19:15:57</time>
      </trkpt>
      <trkpt lat="41.64345" lon="0.96389">
        <ele>351.4</ele>
        <time>2022-05-23 19:15:58</time>
      </trkpt>
      <trkpt lat="41.64341" lon="0.96389">
        <ele>351.4</ele>
        <time>2022-05-23 19:15:59</time>
      </trkpt>
      <trkpt lat="41.64334" lon="0.96388">
        <ele>351.4</ele>
        <time>2022-05-23 19:16:00</time>
      </trkpt>
      <trkpt lat="41.64329" lon="0.96388">
        <ele>351.4</ele>
        <time>2022-05-23 19:16:01</time>
      </trkpt>
      <trkpt lat="41.64324" lon="0.96388">
        <ele>351.8</ele>
        <time>2022-05-23 19:16:02</time>
      </trkpt>
      <trkpt lat="41.64318" lon="0.96388">
        <ele>351.8</ele>
        <time>2022-05-23 19:16:03</time>
      </trkpt>
      <trkpt lat="41.64312" lon="0.96388">
        <ele>351.8</ele>
        <time>2022-05-23 19:16:04</time>
      </trkpt>
      <trkpt lat="41.64307" lon="0.96388">
        <ele>351.8</ele>
        <time>2022-05-23 19:16:05</time>
      </trkpt>
      <trkpt lat="41.64302" lon="0.96387">
        <ele>352</ele>
        <time>2022-05-23 19:16:06</time>
      </trkpt>
      <trkpt lat="41.64296" lon="0.96387">
        <ele>352.2</ele>
        <time>2022-05-23 19:16:07</time>
      </trkpt>
      <trkpt lat="41.6429" lon="0.96387">
        <ele>352.2</ele>
        <time>2022-05-23 19:16:08</time>
      </trkpt>
      <trkpt lat="41.64284" lon="0.96388">
        <ele>352.4</ele>
        <time>2022-05-23 19:16:09</time>
      </trkpt>
      <trkpt lat="41.64278" lon="0.96389">
        <ele>352.4</ele>
        <time>2022-05-23 19:16:10</time>
      </trkpt>
      <trkpt lat="41.64272" lon="0.9639">
        <ele>352.4</ele>
        <time>2022-05-23 19:16:11</time>
      </trkpt>
      <trkpt lat="41.64266" lon="0.9639">
        <ele>352.4</ele>
        <time>2022-05-23 19:16:12</time>
      </trkpt>
      <trkpt lat="41.64261" lon="0.96391">
        <ele>352.6</ele>
        <time>2022-05-23 19:16:13</time>
      </trkpt>
      <trkpt lat="41.64255" lon="0.96392">
        <ele>352.6</ele>
        <time>2022-05-23 19:16:14</time>
      </trkpt>
      <trkpt lat="41.64249" lon="0.96393">
        <ele>352.6</ele>
        <time>2022-05-23 19:16:15</time>
      </trkpt>
      <trkpt lat="41.64244" lon="0.96394">
        <ele>352.6</ele>
        <time>2022-05-23 19:16:16</time>
      </trkpt>
      <trkpt lat="41.64238" lon="0.96395">
        <ele>352.6</ele>
        <time>2022-05-23 19:16:17</time>
      </trkpt>
      <trkpt lat="41.64233" lon="0.96396">
        <ele>352.6</ele>
        <time>2022-05-23 19:16:18</time>
      </trkpt>
      <trkpt lat="41.64227" lon="0.96397">
        <ele>352.6</ele>
        <time>2022-05-23 19:16:19</time>
      </trkpt>
      <trkpt lat="41.64222" lon="0.96398">
        <ele>352.6</ele>
        <time>2022-05-23 19:16:20</time>
      </trkpt>
      <trkpt lat="41.64216" lon="0.964">
        <ele>352.8</ele>
        <time>2022-05-23 19:16:21</time>
      </trkpt>
      <trkpt lat="41.64211" lon="0.96401">
        <ele>352.8</ele>
        <time>2022-05-23 19:16:22</time>
      </trkpt>
      <trkpt lat="41.64205" lon="0.96402">
        <ele>352.8</ele>
        <time>2022-05-23 19:16:23</time>
      </trkpt>
      <trkpt lat="41.642" lon="0.96403">
        <ele>353</ele>
        <time>2022-05-23 19:16:24</time>
      </trkpt>
      <trkpt lat="41.64195" lon="0.96404">
        <ele>353</ele>
        <time>2022-05-23 19:16:25</time>
      </trkpt>
      <trkpt lat="41.64189" lon="0.96406">
        <ele>353</ele>
        <time>2022-05-23 19:16:26</time>
      </trkpt>
      <trkpt lat="41.64184" lon="0.96407">
        <ele>353</ele>
        <time>2022-05-23 19:16:27</time>
      </trkpt>
      <trkpt lat="41.64179" lon="0.96408">
        <ele>353</ele>
        <time>2022-05-23 19:16:28</time>
      </trkpt>
      <trkpt lat="41.64173" lon="0.9641">
        <ele>353.2</ele>
        <time>2022-05-23 19:16:29</time>
      </trkpt>
      <trkpt lat="41.64167" lon="0.96411">
        <ele>353.4</ele>
        <time>2022-05-23 19:16:30</time>
      </trkpt>
      <trkpt lat="41.64162" lon="0.96412">
        <ele>353.4</ele>
        <time>2022-05-23 19:16:31</time>
      </trkpt>
      <trkpt lat="41.64157" lon="0.96413">
        <ele>353.6</ele>
        <time>2022-05-23 19:16:32</time>
      </trkpt>
      <trkpt lat="41.64153" lon="0.96415">
        <ele>353.8</ele>
        <time>2022-05-23 19:16:33</time>
      </trkpt>
      <trkpt lat="41.64149" lon="0.96416">
        <ele>354</ele>
        <time>2022-05-23 19:16:34</time>
      </trkpt>
      <trkpt lat="41.64144" lon="0.96417">
        <ele>354.2</ele>
        <time>2022-05-23 19:16:35</time>
      </trkpt>
      <trkpt lat="41.6414" lon="0.96418">
        <ele>354.6</ele>
        <time>2022-05-23 19:16:36</time>
      </trkpt>
      <trkpt lat="41.64136" lon="0.96419">
        <ele>354.8</ele>
        <time>2022-05-23 19:16:37</time>
      </trkpt>
      <trkpt lat="41.64133" lon="0.9642">
        <ele>355</ele>
        <time>2022-05-23 19:16:38</time>
      </trkpt>
      <trkpt lat="41.64128" lon="0.96421">
        <ele>355.4</ele>
        <time>2022-05-23 19:16:39</time>
      </trkpt>
      <trkpt lat="41.64125" lon="0.96422">
        <ele>355.6</ele>
        <time>2022-05-23 19:16:40</time>
      </trkpt>
      <trkpt lat="41.6412" lon="0.96422">
        <ele>355.8</ele>
        <time>2022-05-23 19:16:41</time>
      </trkpt>
      <trkpt lat="41.64117" lon="0.96423">
        <ele>356.2</ele>
        <time>2022-05-23 19:16:42</time>
      </trkpt>
      <trkpt lat="41.64112" lon="0.96424">
        <ele>356.4</ele>
        <time>2022-05-23 19:16:43</time>
      </trkpt>
      <trkpt lat="41.64109" lon="0.96424">
        <ele>356.6</ele>
        <time>2022-05-23 19:16:44</time>
      </trkpt>
      <trkpt lat="41.64104" lon="0.96425">
        <ele>356.8</ele>
        <time>2022-05-23 19:16:45</time>
      </trkpt>
      <trkpt lat="41.641" lon="0.96426">
        <ele>357</ele>
        <time>2022-05-23 19:16:46</time>
      </trkpt>
      <trkpt lat="41.64095" lon="0.96427">
        <ele>357.2</ele>
        <time>2022-05-23 19:16:47</time>
      </trkpt>
      <trkpt lat="41.64092" lon="0.96427">
        <ele>357.4</ele>
        <time>2022-05-23 19:16:48</time>
      </trkpt>
      <trkpt lat="41.64087" lon="0.96428">
        <ele>357.6</ele>
        <time>2022-05-23 19:16:49</time>
      </trkpt>
      <trkpt lat="41.64083" lon="0.96429">
        <ele>357.8</ele>
        <time>2022-05-23 19:16:50</time>
      </trkpt>
      <trkpt lat="41.64078" lon="0.96429">
        <ele>358</ele>
        <time>2022-05-23 19:16:51</time>
      </trkpt>
      <trkpt lat="41.64074" lon="0.9643">
        <ele>358</ele>
        <time>2022-05-23 19:16:52</time>
      </trkpt>
      <trkpt lat="41.64071" lon="0.9643">
        <ele>358.2</ele>
        <time>2022-05-23 19:16:53</time>
      </trkpt>
      <trkpt lat="41.64065" lon="0.96431">
        <ele>358.4</ele>
        <time>2022-05-23 19:16:54</time>
      </trkpt>
      <trkpt lat="41.64061" lon="0.96431">
        <ele>358.4</ele>
        <time>2022-05-23 19:16:55</time>
      </trkpt>
      <trkpt lat="41.64056" lon="0.9643">
        <ele>358.6</ele>
        <time>2022-05-23 19:16:56</time>
      </trkpt>
      <trkpt lat="41.64052" lon="0.9643">
        <ele>358.6</ele>
        <time>2022-05-23 19:16:57</time>
      </trkpt>
      <trkpt lat="41.64047" lon="0.9643">
        <ele>358.6</ele>
        <time>2022-05-23 19:16:58</time>
      </trkpt>
      <trkpt lat="41.64042" lon="0.9643">
        <ele>358.6</ele>
        <time>2022-05-23 19:16:59</time>
      </trkpt>
      <trkpt lat="41.64037" lon="0.9643">
        <ele>358.8</ele>
        <time>2022-05-23 19:17:00</time>
      </trkpt>
      <trkpt lat="41.64032" lon="0.9643">
        <ele>358.8</ele>
        <time>2022-05-23 19:17:01</time>
      </trkpt>
      <trkpt lat="41.64027" lon="0.9643">
        <ele>358.8</ele>
        <time>2022-05-23 19:17:02</time>
      </trkpt>
      <trkpt lat="41.64021" lon="0.96429">
        <ele>358.6</ele>
        <time>2022-05-23 19:17:03</time>
      </trkpt>
      <trkpt lat="41.64015" lon="0.96429">
        <ele>358.6</ele>
        <time>2022-05-23 19:17:04</time>
      </trkpt>
      <trkpt lat="41.6401" lon="0.96429">
        <ele>358.6</ele>
        <time>2022-05-23 19:17:05</time>
      </trkpt>
      <trkpt lat="41.64005" lon="0.96429">
        <ele>358.8</ele>
        <time>2022-05-23 19:17:06</time>
      </trkpt>
      <trkpt lat="41.64" lon="0.96429">
        <ele>358.8</ele>
        <time>2022-05-23 19:17:07</time>
      </trkpt>
      <trkpt lat="41.63994" lon="0.96429">
        <ele>358.8</ele>
        <time>2022-05-23 19:17:08</time>
      </trkpt>
      <trkpt lat="41.63989" lon="0.96429">
        <ele>359</ele>
        <time>2022-05-23 19:17:09</time>
      </trkpt>
      <trkpt lat="41.63985" lon="0.96429">
        <ele>359.2</ele>
        <time>2022-05-23 19:17:10</time>
      </trkpt>
      <trkpt lat="41.63979" lon="0.96429">
        <ele>359</ele>
        <time>2022-05-23 19:17:11</time>
      </trkpt>
      <trkpt lat="41.63974" lon="0.96429">
        <ele>358.8</ele>
        <time>2022-05-23 19:17:12</time>
      </trkpt>
      <trkpt lat="41.63969" lon="0.96429">
        <ele>358.6</ele>
        <time>2022-05-23 19:17:13</time>
      </trkpt>
      <trkpt lat="41.63964" lon="0.96429">
        <ele>358.6</ele>
        <time>2022-05-23 19:17:14</time>
      </trkpt>
      <trkpt lat="41.63958" lon="0.96428">
        <ele>358.4</ele>
        <time>2022-05-23 19:17:15</time>
      </trkpt>
      <trkpt lat="41.63953" lon="0.96428">
        <ele>358.4</ele>
        <time>2022-05-23 19:17:16</time>
      </trkpt>
      <trkpt lat="41.63947" lon="0.96428">
        <ele>358.2</ele>
        <time>2022-05-23 19:17:17</time>
      </trkpt>
      <trkpt lat="41.63941" lon="0.96427">
        <ele>358</ele>
        <time>2022-05-23 19:17:18</time>
      </trkpt>
      <trkpt lat="41.63934" lon="0.96426">
        <ele>357.8</ele>
        <time>2022-05-23 19:17:19</time>
      </trkpt>
      <trkpt lat="41.63929" lon="0.96425">
        <ele>357.6</ele>
        <time>2022-05-23 19:17:20</time>
      </trkpt>
      <trkpt lat="41.63921" lon="0.96423">
        <ele>357.2</ele>
        <time>2022-05-23 19:17:21</time>
      </trkpt>
      <trkpt lat="41.63914" lon="0.9642">
        <ele>356.8</ele>
        <time>2022-05-23 19:17:22</time>
      </trkpt>
      <trkpt lat="41.63908" lon="0.96417">
        <ele>356.2</ele>
        <time>2022-05-23 19:17:23</time>
      </trkpt>
      <trkpt lat="41.63902" lon="0.96414">
        <ele>355.6</ele>
        <time>2022-05-23 19:17:24</time>
      </trkpt>
      <trkpt lat="41.63894" lon="0.96409">
        <ele>355.2</ele>
        <time>2022-05-23 19:17:25</time>
      </trkpt>
      <trkpt lat="41.63888" lon="0.96405">
        <ele>354.6</ele>
        <time>2022-05-23 19:17:26</time>
      </trkpt>
      <trkpt lat="41.6388" lon="0.96398">
        <ele>354.2</ele>
        <time>2022-05-23 19:17:27</time>
      </trkpt>
      <trkpt lat="41.63874" lon="0.96393">
        <ele>353.6</ele>
        <time>2022-05-23 19:17:28</time>
      </trkpt>
      <trkpt lat="41.63868" lon="0.96386">
        <ele>353</ele>
        <time>2022-05-23 19:17:29</time>
      </trkpt>
      <trkpt lat="41.63862" lon="0.96381">
        <ele>352.6</ele>
        <time>2022-05-23 19:17:30</time>
      </trkpt>
      <trkpt lat="41.63856" lon="0.96373">
        <ele>352.2</ele>
        <time>2022-05-23 19:17:31</time>
      </trkpt>
      <trkpt lat="41.63852" lon="0.96368">
        <ele>352.2</ele>
        <time>2022-05-23 19:17:32</time>
      </trkpt>
      <trkpt lat="41.63846" lon="0.9636">
        <ele>352</ele>
        <time>2022-05-23 19:17:33</time>
      </trkpt>
      <trkpt lat="41.63842" lon="0.96355">
        <ele>352.2</ele>
        <time>2022-05-23 19:17:34</time>
      </trkpt>
      <trkpt lat="41.63837" lon="0.96348">
        <ele>352.2</ele>
        <time>2022-05-23 19:17:35</time>
      </trkpt>
      <trkpt lat="41.63834" lon="0.96343">
        <ele>352.2</ele>
        <time>2022-05-23 19:17:36</time>
      </trkpt>
      <trkpt lat="41.63831" lon="0.96335">
        <ele>352.2</ele>
        <time>2022-05-23 19:17:37</time>
      </trkpt>
      <trkpt lat="41.63829" lon="0.96328">
        <ele>352.2</ele>
        <time>2022-05-23 19:17:38</time>
      </trkpt>
      <trkpt lat="41.63828" lon="0.9632">
        <ele>352.2</ele>
        <time>2022-05-23 19:17:39</time>
      </trkpt>
      <trkpt lat="41.63828" lon="0.96313">
        <ele>352.2</ele>
        <time>2022-05-23 19:17:40</time>
      </trkpt>
      <trkpt lat="41.63829" lon="0.96305">
        <ele>352.2</ele>
        <time>2022-05-23 19:17:41</time>
      </trkpt>
      <trkpt lat="41.63829" lon="0.96299">
        <ele>352.2</ele>
        <time>2022-05-23 19:17:42</time>
      </trkpt>
      <trkpt lat="41.6383" lon="0.96291">
        <ele>352.4</ele>
        <time>2022-05-23 19:17:43</time>
      </trkpt>
      <trkpt lat="41.63831" lon="0.96285">
        <ele>352.6</ele>
        <time>2022-05-23 19:17:44</time>
      </trkpt>
      <trkpt lat="41.63832" lon="0.96277">
        <ele>352.8</ele>
        <time>2022-05-23 19:17:45</time>
      </trkpt>
      <trkpt lat="41.63832" lon="0.96272">
        <ele>353</ele>
        <time>2022-05-23 19:17:46</time>
      </trkpt>
      <trkpt lat="41.63832" lon="0.96264">
        <ele>353.2</ele>
        <time>2022-05-23 19:17:47</time>
      </trkpt>
      <trkpt lat="41.63832" lon="0.96259">
        <ele>353.6</ele>
        <time>2022-05-23 19:17:48</time>
      </trkpt>
      <trkpt lat="41.63832" lon="0.96252">
        <ele>353.8</ele>
        <time>2022-05-23 19:17:49</time>
      </trkpt>
      <trkpt lat="41.63831" lon="0.96246">
        <ele>354.2</ele>
        <time>2022-05-23 19:17:50</time>
      </trkpt>
      <trkpt lat="41.63831" lon="0.96241">
        <ele>354.8</ele>
        <time>2022-05-23 19:17:51</time>
      </trkpt>
      <trkpt lat="41.63829" lon="0.96236">
        <ele>355.2</ele>
        <time>2022-05-23 19:17:52</time>
      </trkpt>
      <trkpt lat="41.63828" lon="0.96233">
        <ele>355.4</ele>
        <time>2022-05-23 19:17:53</time>
      </trkpt>
      <trkpt lat="41.63825" lon="0.96228">
        <ele>356.2</ele>
        <time>2022-05-23 19:17:54</time>
      </trkpt>
      <trkpt lat="41.63823" lon="0.96224">
        <ele>356.6</ele>
        <time>2022-05-23 19:17:55</time>
      </trkpt>
      <trkpt lat="41.63821" lon="0.9622">
        <ele>357</ele>
        <time>2022-05-23 19:17:56</time>
      </trkpt>
      <trkpt lat="41.63818" lon="0.96217">
        <ele>357.4</ele>
        <time>2022-05-23 19:17:57</time>
      </trkpt>
      <trkpt lat="41.63816" lon="0.96214">
        <ele>357.8</ele>
        <time>2022-05-23 19:17:58</time>
      </trkpt>
      <trkpt lat="41.63813" lon="0.96212">
        <ele>358</ele>
        <time>2022-05-23 19:17:59</time>
      </trkpt>
      <trkpt lat="41.6381" lon="0.9621">
        <ele>358.4</ele>
        <time>2022-05-23 19:18:00</time>
      </trkpt>
      <trkpt lat="41.63807" lon="0.96209">
        <ele>358.8</ele>
        <time>2022-05-23 19:18:01</time>
      </trkpt>
      <trkpt lat="41.63803" lon="0.96208">
        <ele>359.2</ele>
        <time>2022-05-23 19:18:02</time>
      </trkpt>
      <trkpt lat="41.638" lon="0.96207">
        <ele>359.6</ele>
        <time>2022-05-23 19:18:03</time>
      </trkpt>
      <trkpt lat="41.63797" lon="0.96206">
        <ele>359.8</ele>
        <time>2022-05-23 19:18:04</time>
      </trkpt>
      <trkpt lat="41.63794" lon="0.96206">
        <ele>360</ele>
        <time>2022-05-23 19:18:05</time>
      </trkpt>
      <trkpt lat="41.63789" lon="0.96204">
        <ele>360.2</ele>
        <time>2022-05-23 19:18:06</time>
      </trkpt>
      <trkpt lat="41.63785" lon="0.96203">
        <ele>360.2</ele>
        <time>2022-05-23 19:18:07</time>
      </trkpt>
      <trkpt lat="41.6378" lon="0.96203">
        <ele>360</ele>
        <time>2022-05-23 19:18:08</time>
      </trkpt>
      <trkpt lat="41.63776" lon="0.96203">
        <ele>360</ele>
        <time>2022-05-23 19:18:09</time>
      </trkpt>
      <trkpt lat="41.63771" lon="0.96203">
        <ele>359.8</ele>
        <time>2022-05-23 19:18:10</time>
      </trkpt>
      <trkpt lat="41.63768" lon="0.96202">
        <ele>359.6</ele>
        <time>2022-05-23 19:18:11</time>
      </trkpt>
      <trkpt lat="41.63762" lon="0.96204">
        <ele>359.4</ele>
        <time>2022-05-23 19:18:12</time>
      </trkpt>
      <trkpt lat="41.63758" lon="0.96208">
        <ele>359</ele>
        <time>2022-05-23 19:18:13</time>
      </trkpt>
      <trkpt lat="41.63753" lon="0.96215">
        <ele>358.6</ele>
        <time>2022-05-23 19:18:14</time>
      </trkpt>
      <trkpt lat="41.63749" lon="0.96222">
        <ele>358.2</ele>
        <time>2022-05-23 19:18:15</time>
      </trkpt>
      <trkpt lat="41.63746" lon="0.96233">
        <ele>357.4</ele>
        <time>2022-05-23 19:18:16</time>
      </trkpt>
      <trkpt lat="41.63744" lon="0.96241">
        <ele>356.8</ele>
        <time>2022-05-23 19:18:17</time>
      </trkpt>
      <trkpt lat="41.63746" lon="0.96254">
        <ele>356</ele>
        <time>2022-05-23 19:18:18</time>
      </trkpt>
      <trkpt lat="41.63748" lon="0.96265">
        <ele>355.4</ele>
        <time>2022-05-23 19:18:19</time>
      </trkpt>
      <trkpt lat="41.63747" lon="0.96278">
        <ele>354.6</ele>
        <time>2022-05-23 19:18:20</time>
      </trkpt>
      <trkpt lat="41.63743" lon="0.9629">
        <ele>353.8</ele>
        <time>2022-05-23 19:18:21</time>
      </trkpt>
      <trkpt lat="41.63736" lon="0.96295">
        <ele>353</ele>
        <time>2022-05-23 19:18:22</time>
      </trkpt>
      <trkpt lat="41.63725" lon="0.96297">
        <ele>352</ele>
        <time>2022-05-23 19:18:23</time>
      </trkpt>
      <trkpt lat="41.63717" lon="0.96297">
        <ele>351</ele>
        <time>2022-05-23 19:18:24</time>
      </trkpt>
      <trkpt lat="41.63706" lon="0.96294">
        <ele>350.2</ele>
        <time>2022-05-23 19:18:25</time>
      </trkpt>
      <trkpt lat="41.63695" lon="0.9629">
        <ele>349</ele>
        <time>2022-05-23 19:18:26</time>
      </trkpt>
      <trkpt lat="41.63684" lon="0.96285">
        <ele>347.6</ele>
        <time>2022-05-23 19:18:27</time>
      </trkpt>
      <trkpt lat="41.63672" lon="0.96279">
        <ele>346.2</ele>
        <time>2022-05-23 19:18:28</time>
      </trkpt>
      <trkpt lat="41.6366" lon="0.96272">
        <ele>344.8</ele>
        <time>2022-05-23 19:18:29</time>
      </trkpt>
      <trkpt lat="41.63649" lon="0.96268">
        <ele>343.8</ele>
        <time>2022-05-23 19:18:30</time>
      </trkpt>
      <trkpt lat="41.63638" lon="0.96264">
        <ele>342.8</ele>
        <time>2022-05-23 19:18:31</time>
      </trkpt>
      <trkpt lat="41.63627" lon="0.9626">
        <ele>342</ele>
        <time>2022-05-23 19:18:32</time>
      </trkpt>
      <trkpt lat="41.63616" lon="0.96256">
        <ele>341.4</ele>
        <time>2022-05-23 19:18:33</time>
      </trkpt>
      <trkpt lat="41.63606" lon="0.96251">
        <ele>341</ele>
        <time>2022-05-23 19:18:34</time>
      </trkpt>
      <trkpt lat="41.63595" lon="0.96247">
        <ele>340.8</ele>
        <time>2022-05-23 19:18:35</time>
      </trkpt>
      <trkpt lat="41.63586" lon="0.96244">
        <ele>340.8</ele>
        <time>2022-05-23 19:18:36</time>
      </trkpt>
      <trkpt lat="41.63578" lon="0.9624">
        <ele>340.6</ele>
        <time>2022-05-23 19:18:37</time>
      </trkpt>
      <trkpt lat="41.63569" lon="0.96237">
        <ele>340.6</ele>
        <time>2022-05-23 19:18:38</time>
      </trkpt>
      <trkpt lat="41.6356" lon="0.96234">
        <ele>340.6</ele>
        <time>2022-05-23 19:18:39</time>
      </trkpt>
      <trkpt lat="41.6355" lon="0.96231">
        <ele>340.2</ele>
        <time>2022-05-23 19:18:40</time>
      </trkpt>
      <trkpt lat="41.63542" lon="0.96228">
        <ele>340</ele>
        <time>2022-05-23 19:18:41</time>
      </trkpt>
      <trkpt lat="41.63533" lon="0.96224">
        <ele>339.8</ele>
        <time>2022-05-23 19:18:42</time>
      </trkpt>
      <trkpt lat="41.63525" lon="0.96221">
        <ele>339.8</ele>
        <time>2022-05-23 19:18:43</time>
      </trkpt>
      <trkpt lat="41.63517" lon="0.96218">
        <ele>340</ele>
        <time>2022-05-23 19:18:44</time>
      </trkpt>
      <trkpt lat="41.63509" lon="0.96214">
        <ele>340.4</ele>
        <time>2022-05-23 19:18:45</time>
      </trkpt>
      <trkpt lat="41.63502" lon="0.96212">
        <ele>340.6</ele>
        <time>2022-05-23 19:18:46</time>
      </trkpt>
      <trkpt lat="41.63493" lon="0.96209">
        <ele>340.8</ele>
        <time>2022-05-23 19:18:47</time>
      </trkpt>
      <trkpt lat="41.63486" lon="0.96206">
        <ele>341</ele>
        <time>2022-05-23 19:18:48</time>
      </trkpt>
      <trkpt lat="41.63478" lon="0.96204">
        <ele>341.2</ele>
        <time>2022-05-23 19:18:49</time>
      </trkpt>
      <trkpt lat="41.63472" lon="0.96201">
        <ele>341.2</ele>
        <time>2022-05-23 19:18:50</time>
      </trkpt>
      <trkpt lat="41.63464" lon="0.96198">
        <ele>341.4</ele>
        <time>2022-05-23 19:18:51</time>
      </trkpt>
      <trkpt lat="41.63458" lon="0.96195">
        <ele>341.6</ele>
        <time>2022-05-23 19:18:52</time>
      </trkpt>
      <trkpt lat="41.63451" lon="0.96192">
        <ele>341.8</ele>
        <time>2022-05-23 19:18:53</time>
      </trkpt>
      <trkpt lat="41.63445" lon="0.9619">
        <ele>341.8</ele>
        <time>2022-05-23 19:18:54</time>
      </trkpt>
      <trkpt lat="41.63439" lon="0.96187">
        <ele>342</ele>
        <time>2022-05-23 19:18:55</time>
      </trkpt>
      <trkpt lat="41.63433" lon="0.96186">
        <ele>342</ele>
        <time>2022-05-23 19:18:56</time>
      </trkpt>
      <trkpt lat="41.63426" lon="0.96183">
        <ele>342</ele>
        <time>2022-05-23 19:18:57</time>
      </trkpt>
      <trkpt lat="41.63421" lon="0.96181">
        <ele>342</ele>
        <time>2022-05-23 19:18:58</time>
      </trkpt>
      <trkpt lat="41.63415" lon="0.96178">
        <ele>342.2</ele>
        <time>2022-05-23 19:18:59</time>
      </trkpt>
      <trkpt lat="41.6341" lon="0.96176">
        <ele>342.4</ele>
        <time>2022-05-23 19:19:00</time>
      </trkpt>
      <trkpt lat="41.63404" lon="0.96173">
        <ele>342.6</ele>
        <time>2022-05-23 19:19:01</time>
      </trkpt>
      <trkpt lat="41.63399" lon="0.96171">
        <ele>343</ele>
        <time>2022-05-23 19:19:02</time>
      </trkpt>
      <trkpt lat="41.63394" lon="0.96169">
        <ele>343.4</ele>
        <time>2022-05-23 19:19:03</time>
      </trkpt>
      <trkpt lat="41.63389" lon="0.96167">
        <ele>343.6</ele>
        <time>2022-05-23 19:19:04</time>
      </trkpt>
      <trkpt lat="41.63384" lon="0.96165">
        <ele>343.8</ele>
        <time>2022-05-23 19:19:05</time>
      </trkpt>
      <trkpt lat="41.6338" lon="0.96164">
        <ele>344</ele>
        <time>2022-05-23 19:19:06</time>
      </trkpt>
      <trkpt lat="41.63375" lon="0.96162">
        <ele>344.2</ele>
        <time>2022-05-23 19:19:07</time>
      </trkpt>
      <trkpt lat="41.63372" lon="0.9616">
        <ele>344.4</ele>
        <time>2022-05-23 19:19:08</time>
      </trkpt>
      <trkpt lat="41.63367" lon="0.96158">
        <ele>345</ele>
        <time>2022-05-23 19:19:09</time>
      </trkpt>
      <trkpt lat="41.63363" lon="0.96156">
        <ele>345.2</ele>
        <time>2022-05-23 19:19:10</time>
      </trkpt>
      <trkpt lat="41.63359" lon="0.96154">
        <ele>345.6</ele>
        <time>2022-05-23 19:19:11</time>
      </trkpt>
      <trkpt lat="41.63355" lon="0.96152">
        <ele>345.8</ele>
        <time>2022-05-23 19:19:12</time>
      </trkpt>
      <trkpt lat="41.63351" lon="0.96151">
        <ele>346</ele>
        <time>2022-05-23 19:19:13</time>
      </trkpt>
      <trkpt lat="41.63349" lon="0.9615">
        <ele>346.2</ele>
        <time>2022-05-23 19:19:14</time>
      </trkpt>
      <trkpt lat="41.63344" lon="0.96149">
        <ele>346.4</ele>
        <time>2022-05-23 19:19:15</time>
      </trkpt>
      <trkpt lat="41.6334" lon="0.96147">
        <ele>346.8</ele>
        <time>2022-05-23 19:19:16</time>
      </trkpt>
      <trkpt lat="41.63337" lon="0.96146">
        <ele>347</ele>
        <time>2022-05-23 19:19:17</time>
      </trkpt>
      <trkpt lat="41.63333" lon="0.96145">
        <ele>347.2</ele>
        <time>2022-05-23 19:19:18</time>
      </trkpt>
      <trkpt lat="41.63329" lon="0.96144">
        <ele>347.2</ele>
        <time>2022-05-23 19:19:19</time>
      </trkpt>
      <trkpt lat="41.63326" lon="0.96144">
        <ele>347.4</ele>
        <time>2022-05-23 19:19:20</time>
      </trkpt>
      <trkpt lat="41.63322" lon="0.96142">
        <ele>347.6</ele>
        <time>2022-05-23 19:19:21</time>
      </trkpt>
      <trkpt lat="41.63318" lon="0.96141">
        <ele>347.8</ele>
        <time>2022-05-23 19:19:22</time>
      </trkpt>
      <trkpt lat="41.63315" lon="0.96141">
        <ele>348</ele>
        <time>2022-05-23 19:19:23</time>
      </trkpt>
      <trkpt lat="41.63311" lon="0.9614">
        <ele>348.2</ele>
        <time>2022-05-23 19:19:24</time>
      </trkpt>
      <trkpt lat="41.63307" lon="0.96139">
        <ele>348.4</ele>
        <time>2022-05-23 19:19:25</time>
      </trkpt>
      <trkpt lat="41.63305" lon="0.96138">
        <ele>348.6</ele>
        <time>2022-05-23 19:19:26</time>
      </trkpt>
      <trkpt lat="41.63301" lon="0.96137">
        <ele>348.8</ele>
        <time>2022-05-23 19:19:27</time>
      </trkpt>
      <trkpt lat="41.63297" lon="0.96136">
        <ele>349.2</ele>
        <time>2022-05-23 19:19:28</time>
      </trkpt>
      <trkpt lat="41.63294" lon="0.96135">
        <ele>349.4</ele>
        <time>2022-05-23 19:19:29</time>
      </trkpt>
      <trkpt lat="41.6329" lon="0.96134">
        <ele>349.6</ele>
        <time>2022-05-23 19:19:30</time>
      </trkpt>
      <trkpt lat="41.63286" lon="0.96133">
        <ele>350</ele>
        <time>2022-05-23 19:19:31</time>
      </trkpt>
      <trkpt lat="41.63283" lon="0.96133">
        <ele>350</ele>
        <time>2022-05-23 19:19:32</time>
      </trkpt>
      <trkpt lat="41.63279" lon="0.96132">
        <ele>350.2</ele>
        <time>2022-05-23 19:19:33</time>
      </trkpt>
      <trkpt lat="41.63275" lon="0.96131">
        <ele>350.4</ele>
        <time>2022-05-23 19:19:34</time>
      </trkpt>
      <trkpt lat="41.63272" lon="0.9613">
        <ele>350.4</ele>
        <time>2022-05-23 19:19:35</time>
      </trkpt>
      <trkpt lat="41.63267" lon="0.96129">
        <ele>350.6</ele>
        <time>2022-05-23 19:19:36</time>
      </trkpt>
      <trkpt lat="41.63263" lon="0.96128">
        <ele>350.6</ele>
        <time>2022-05-23 19:19:37</time>
      </trkpt>
      <trkpt lat="41.6326" lon="0.96127">
        <ele>350.8</ele>
        <time>2022-05-23 19:19:38</time>
      </trkpt>
      <trkpt lat="41.63255" lon="0.96126">
        <ele>351</ele>
        <time>2022-05-23 19:19:39</time>
      </trkpt>
      <trkpt lat="41.63251" lon="0.96125">
        <ele>351.2</ele>
        <time>2022-05-23 19:19:40</time>
      </trkpt>
      <trkpt lat="41.63248" lon="0.96124">
        <ele>351.2</ele>
        <time>2022-05-23 19:19:41</time>
      </trkpt>
      <trkpt lat="41.63243" lon="0.96123">
        <ele>351.4</ele>
        <time>2022-05-23 19:19:42</time>
      </trkpt>
      <trkpt lat="41.6324" lon="0.96122">
        <ele>351.6</ele>
        <time>2022-05-23 19:19:43</time>
      </trkpt>
      <trkpt lat="41.63236" lon="0.96122">
        <ele>351.6</ele>
        <time>2022-05-23 19:19:44</time>
      </trkpt>
      <trkpt lat="41.63232" lon="0.96121">
        <ele>351.8</ele>
        <time>2022-05-23 19:19:45</time>
      </trkpt>
      <trkpt lat="41.63227" lon="0.9612">
        <ele>352</ele>
        <time>2022-05-23 19:19:46</time>
      </trkpt>
      <trkpt lat="41.63224" lon="0.9612">
        <ele>352.2</ele>
        <time>2022-05-23 19:19:47</time>
      </trkpt>
      <trkpt lat="41.63219" lon="0.96119">
        <ele>352.4</ele>
        <time>2022-05-23 19:19:48</time>
      </trkpt>
      <trkpt lat="41.63215" lon="0.96118">
        <ele>352.4</ele>
        <time>2022-05-23 19:19:49</time>
      </trkpt>
      <trkpt lat="41.63212" lon="0.96116">
        <ele>352.4</ele>
        <time>2022-05-23 19:19:50</time>
      </trkpt>
      <trkpt lat="41.63207" lon="0.96114">
        <ele>352.6</ele>
        <time>2022-05-23 19:19:51</time>
      </trkpt>
      <trkpt lat="41.63204" lon="0.96113">
        <ele>352.6</ele>
        <time>2022-05-23 19:19:52</time>
      </trkpt>
      <trkpt lat="41.632" lon="0.96111">
        <ele>352.6</ele>
        <time>2022-05-23 19:19:53</time>
      </trkpt>
      <trkpt lat="41.63196" lon="0.9611">
        <ele>352.8</ele>
        <time>2022-05-23 19:19:54</time>
      </trkpt>
      <trkpt lat="41.63192" lon="0.96108">
        <ele>352.8</ele>
        <time>2022-05-23 19:19:55</time>
      </trkpt>
      <trkpt lat="41.63188" lon="0.96107">
        <ele>352.8</ele>
        <time>2022-05-23 19:19:56</time>
      </trkpt>
      <trkpt lat="41.63184" lon="0.96105">
        <ele>353</ele>
        <time>2022-05-23 19:19:57</time>
      </trkpt>
      <trkpt lat="41.6318" lon="0.96104">
        <ele>353</ele>
        <time>2022-05-23 19:19:58</time>
      </trkpt>
      <trkpt lat="41.63176" lon="0.96103">
        <ele>353.2</ele>
        <time>2022-05-23 19:19:59</time>
      </trkpt>
      <trkpt lat="41.63172" lon="0.96101">
        <ele>353.2</ele>
        <time>2022-05-23 19:20:00</time>
      </trkpt>
      <trkpt lat="41.63167" lon="0.961">
        <ele>353.4</ele>
        <time>2022-05-23 19:20:01</time>
      </trkpt>
      <trkpt lat="41.63164" lon="0.96099">
        <ele>353.4</ele>
        <time>2022-05-23 19:20:02</time>
      </trkpt>
      <trkpt lat="41.63159" lon="0.96098">
        <ele>353.6</ele>
        <time>2022-05-23 19:20:03</time>
      </trkpt>
      <trkpt lat="41.63154" lon="0.96097">
        <ele>353.6</ele>
        <time>2022-05-23 19:20:04</time>
      </trkpt>
      <trkpt lat="41.6315" lon="0.96096">
        <ele>353.6</ele>
        <time>2022-05-23 19:20:05</time>
      </trkpt>
      <trkpt lat="41.63146" lon="0.96095">
        <ele>353.8</ele>
        <time>2022-05-23 19:20:06</time>
      </trkpt>
      <trkpt lat="41.63141" lon="0.96095">
        <ele>353.8</ele>
        <time>2022-05-23 19:20:07</time>
      </trkpt>
      <trkpt lat="41.63136" lon="0.96096">
        <ele>353.8</ele>
        <time>2022-05-23 19:20:08</time>
      </trkpt>
      <trkpt lat="41.63132" lon="0.96095">
        <ele>353.6</ele>
        <time>2022-05-23 19:20:09</time>
      </trkpt>
      <trkpt lat="41.63127" lon="0.96093">
        <ele>353.8</ele>
        <time>2022-05-23 19:20:10</time>
      </trkpt>
      <trkpt lat="41.63123" lon="0.96092">
        <ele>353.8</ele>
        <time>2022-05-23 19:20:11</time>
      </trkpt>
      <trkpt lat="41.63119" lon="0.96091">
        <ele>353.8</ele>
        <time>2022-05-23 19:20:12</time>
      </trkpt>
      <trkpt lat="41.63115" lon="0.9609">
        <ele>354</ele>
        <time>2022-05-23 19:20:13</time>
      </trkpt>
      <trkpt lat="41.63112" lon="0.96088">
        <ele>354</ele>
        <time>2022-05-23 19:20:14</time>
      </trkpt>
      <trkpt lat="41.63109" lon="0.96087">
        <ele>354.2</ele>
        <time>2022-05-23 19:20:15</time>
      </trkpt>
      <trkpt lat="41.63108" lon="0.96085">
        <ele>354.2</ele>
        <time>2022-05-23 19:20:16</time>
      </trkpt>
      <trkpt lat="41.63106" lon="0.96083">
        <ele>354</ele>
        <time>2022-05-23 19:20:17</time>
      </trkpt>
      <trkpt lat="41.63105" lon="0.96082">
        <ele>354.2</ele>
        <time>2022-05-23 19:20:18</time>
      </trkpt>
      <trkpt lat="41.63102" lon="0.96082">
        <ele>354.4</ele>
        <time>2022-05-23 19:20:19</time>
      </trkpt>
      <trkpt lat="41.63099" lon="0.96081">
        <ele>354.4</ele>
        <time>2022-05-23 19:20:20</time>
      </trkpt>
      <trkpt lat="41.63094" lon="0.96081">
        <ele>354.4</ele>
        <time>2022-05-23 19:20:21</time>
      </trkpt>
      <trkpt lat="41.6309" lon="0.96081">
        <ele>354.4</ele>
        <time>2022-05-23 19:20:22</time>
      </trkpt>
      <trkpt lat="41.63085" lon="0.96079">
        <ele>354.4</ele>
        <time>2022-05-23 19:20:23</time>
      </trkpt>
      <trkpt lat="41.63081" lon="0.96078">
        <ele>354.4</ele>
        <time>2022-05-23 19:20:24</time>
      </trkpt>
      <trkpt lat="41.63076" lon="0.96077">
        <ele>354.4</ele>
        <time>2022-05-23 19:20:25</time>
      </trkpt>
      <trkpt lat="41.63072" lon="0.96076">
        <ele>354.4</ele>
        <time>2022-05-23 19:20:26</time>
      </trkpt>
      <trkpt lat="41.63067" lon="0.96075">
        <ele>354.4</ele>
        <time>2022-05-23 19:20:27</time>
      </trkpt>
      <trkpt lat="41.63064" lon="0.96075">
        <ele>354.4</ele>
        <time>2022-05-23 19:20:28</time>
      </trkpt>
      <trkpt lat="41.63057" lon="0.96074">
        <ele>354.4</ele>
        <time>2022-05-23 19:20:29</time>
      </trkpt>
      <trkpt lat="41.63053" lon="0.96073">
        <ele>354.4</ele>
        <time>2022-05-23 19:20:30</time>
      </trkpt>
      <trkpt lat="41.63048" lon="0.96072">
        <ele>354.4</ele>
        <time>2022-05-23 19:20:31</time>
      </trkpt>
      <trkpt lat="41.63044" lon="0.9607">
        <ele>354.2</ele>
        <time>2022-05-23 19:20:32</time>
      </trkpt>
      <trkpt lat="41.63038" lon="0.96069">
        <ele>354.2</ele>
        <time>2022-05-23 19:20:33</time>
      </trkpt>
      <trkpt lat="41.63035" lon="0.96067">
        <ele>354.2</ele>
        <time>2022-05-23 19:20:34</time>
      </trkpt>
      <trkpt lat="41.63029" lon="0.96065">
        <ele>354.2</ele>
        <time>2022-05-23 19:20:35</time>
      </trkpt>
      <trkpt lat="41.63025" lon="0.96064">
        <ele>354.4</ele>
        <time>2022-05-23 19:20:36</time>
      </trkpt>
      <trkpt lat="41.63019" lon="0.96062">
        <ele>354.4</ele>
        <time>2022-05-23 19:20:37</time>
      </trkpt>
      <trkpt lat="41.63016" lon="0.96061">
        <ele>354.4</ele>
        <time>2022-05-23 19:20:38</time>
      </trkpt>
      <trkpt lat="41.6301" lon="0.96059">
        <ele>354.6</ele>
        <time>2022-05-23 19:20:39</time>
      </trkpt>
      <trkpt lat="41.63007" lon="0.96058">
        <ele>354.6</ele>
        <time>2022-05-23 19:20:40</time>
      </trkpt>
      <trkpt lat="41.63001" lon="0.96057">
        <ele>354.8</ele>
        <time>2022-05-23 19:20:41</time>
      </trkpt>
      <trkpt lat="41.62997" lon="0.96057">
        <ele>354.8</ele>
        <time>2022-05-23 19:20:42</time>
      </trkpt>
      <trkpt lat="41.62991" lon="0.96056">
        <ele>355</ele>
        <time>2022-05-23 19:20:43</time>
      </trkpt>
      <trkpt lat="41.62987" lon="0.96056">
        <ele>355</ele>
        <time>2022-05-23 19:20:44</time>
      </trkpt>
      <trkpt lat="41.62982" lon="0.96056">
        <ele>355.2</ele>
        <time>2022-05-23 19:20:45</time>
      </trkpt>
      <trkpt lat="41.62977" lon="0.96057">
        <ele>355.2</ele>
        <time>2022-05-23 19:20:46</time>
      </trkpt>
      <trkpt lat="41.62972" lon="0.96058">
        <ele>355.2</ele>
        <time>2022-05-23 19:20:47</time>
      </trkpt>
      <trkpt lat="41.62968" lon="0.96059">
        <ele>355.2</ele>
        <time>2022-05-23 19:20:48</time>
      </trkpt>
      <trkpt lat="41.62962" lon="0.9606">
        <ele>355.4</ele>
        <time>2022-05-23 19:20:49</time>
      </trkpt>
      <trkpt lat="41.62958" lon="0.96062">
        <ele>355.4</ele>
        <time>2022-05-23 19:20:50</time>
      </trkpt>
      <trkpt lat="41.62952" lon="0.96064">
        <ele>355.4</ele>
        <time>2022-05-23 19:20:51</time>
      </trkpt>
      <trkpt lat="41.62948" lon="0.96066">
        <ele>355.4</ele>
        <time>2022-05-23 19:20:52</time>
      </trkpt>
      <trkpt lat="41.62942" lon="0.96068">
        <ele>355.6</ele>
        <time>2022-05-23 19:20:53</time>
      </trkpt>
      <trkpt lat="41.62938" lon="0.9607">
        <ele>355.6</ele>
        <time>2022-05-23 19:20:54</time>
      </trkpt>
      <trkpt lat="41.62932" lon="0.96073">
        <ele>355.4</ele>
        <time>2022-05-23 19:20:55</time>
      </trkpt>
      <trkpt lat="41.62928" lon="0.96075">
        <ele>355.4</ele>
        <time>2022-05-23 19:20:56</time>
      </trkpt>
      <trkpt lat="41.62921" lon="0.96079">
        <ele>355.6</ele>
        <time>2022-05-23 19:20:57</time>
      </trkpt>
      <trkpt lat="41.62917" lon="0.96081">
        <ele>355.4</ele>
        <time>2022-05-23 19:20:58</time>
      </trkpt>
      <trkpt lat="41.62911" lon="0.96084">
        <ele>355.4</ele>
        <time>2022-05-23 19:20:59</time>
      </trkpt>
      <trkpt lat="41.62906" lon="0.96087">
        <ele>355.4</ele>
        <time>2022-05-23 19:21:00</time>
      </trkpt>
      <trkpt lat="41.629" lon="0.9609">
        <ele>355.4</ele>
        <time>2022-05-23 19:21:01</time>
      </trkpt>
      <trkpt lat="41.62896" lon="0.96091">
        <ele>355.4</ele>
        <time>2022-05-23 19:21:02</time>
      </trkpt>
      <trkpt lat="41.6289" lon="0.96094">
        <ele>355.4</ele>
        <time>2022-05-23 19:21:03</time>
      </trkpt>
      <trkpt lat="41.62885" lon="0.96096">
        <ele>355.4</ele>
        <time>2022-05-23 19:21:04</time>
      </trkpt>
      <trkpt lat="41.62879" lon="0.96099">
        <ele>355.6</ele>
        <time>2022-05-23 19:21:05</time>
      </trkpt>
      <trkpt lat="41.62875" lon="0.96101">
        <ele>355.6</ele>
        <time>2022-05-23 19:21:06</time>
      </trkpt>
      <trkpt lat="41.62869" lon="0.96103">
        <ele>355.8</ele>
        <time>2022-05-23 19:21:07</time>
      </trkpt>
      <trkpt lat="41.62865" lon="0.96105">
        <ele>355.8</ele>
        <time>2022-05-23 19:21:08</time>
      </trkpt>
      <trkpt lat="41.62858" lon="0.96108">
        <ele>355.8</ele>
        <time>2022-05-23 19:21:09</time>
      </trkpt>
      <trkpt lat="41.62854" lon="0.96109">
        <ele>355.8</ele>
        <time>2022-05-23 19:21:10</time>
      </trkpt>
      <trkpt lat="41.62848" lon="0.96111">
        <ele>355.8</ele>
        <time>2022-05-23 19:21:11</time>
      </trkpt>
      <trkpt lat="41.62844" lon="0.96113">
        <ele>356</ele>
        <time>2022-05-23 19:21:12</time>
      </trkpt>
      <trkpt lat="41.62837" lon="0.96115">
        <ele>356</ele>
        <time>2022-05-23 19:21:13</time>
      </trkpt>
      <trkpt lat="41.62833" lon="0.96116">
        <ele>356.2</ele>
        <time>2022-05-23 19:21:14</time>
      </trkpt>
      <trkpt lat="41.62827" lon="0.96118">
        <ele>356.2</ele>
        <time>2022-05-23 19:21:15</time>
      </trkpt>
      <trkpt lat="41.62823" lon="0.9612">
        <ele>356.2</ele>
        <time>2022-05-23 19:21:16</time>
      </trkpt>
      <trkpt lat="41.62816" lon="0.96122">
        <ele>356.2</ele>
        <time>2022-05-23 19:21:17</time>
      </trkpt>
      <trkpt lat="41.62812" lon="0.96123">
        <ele>356.2</ele>
        <time>2022-05-23 19:21:18</time>
      </trkpt>
      <trkpt lat="41.62806" lon="0.96126">
        <ele>356.2</ele>
        <time>2022-05-23 19:21:19</time>
      </trkpt>
      <trkpt lat="41.62801" lon="0.96127">
        <ele>356.2</ele>
        <time>2022-05-23 19:21:20</time>
      </trkpt>
      <trkpt lat="41.62794" lon="0.9613">
        <ele>356</ele>
        <time>2022-05-23 19:21:21</time>
      </trkpt>
      <trkpt lat="41.6279" lon="0.96131">
        <ele>356</ele>
        <time>2022-05-23 19:21:22</time>
      </trkpt>
      <trkpt lat="41.62783" lon="0.96135">
        <ele>355.8</ele>
        <time>2022-05-23 19:21:23</time>
      </trkpt>
      <trkpt lat="41.62778" lon="0.96137">
        <ele>355.6</ele>
        <time>2022-05-23 19:21:24</time>
      </trkpt>
      <trkpt lat="41.62771" lon="0.9614">
        <ele>355.4</ele>
        <time>2022-05-23 19:21:25</time>
      </trkpt>
      <trkpt lat="41.62766" lon="0.96142">
        <ele>355.4</ele>
        <time>2022-05-23 19:21:26</time>
      </trkpt>
      <trkpt lat="41.62759" lon="0.96144">
        <ele>355.4</ele>
        <time>2022-05-23 19:21:27</time>
      </trkpt>
      <trkpt lat="41.62754" lon="0.96145">
        <ele>355.4</ele>
        <time>2022-05-23 19:21:28</time>
      </trkpt>
      <trkpt lat="41.62747" lon="0.96146">
        <ele>355.2</ele>
        <time>2022-05-23 19:21:29</time>
      </trkpt>
      <trkpt lat="41.62743" lon="0.96146">
        <ele>355.2</ele>
        <time>2022-05-23 19:21:30</time>
      </trkpt>
      <trkpt lat="41.62735" lon="0.96145">
        <ele>355.2</ele>
        <time>2022-05-23 19:21:31</time>
      </trkpt>
      <trkpt lat="41.62731" lon="0.96144">
        <ele>355.2</ele>
        <time>2022-05-23 19:21:32</time>
      </trkpt>
      <trkpt lat="41.62724" lon="0.96143">
        <ele>355.2</ele>
        <time>2022-05-23 19:21:33</time>
      </trkpt>
      <trkpt lat="41.6272" lon="0.96142">
        <ele>355.4</ele>
        <time>2022-05-23 19:21:34</time>
      </trkpt>
      <trkpt lat="41.62713" lon="0.96141">
        <ele>355.4</ele>
        <time>2022-05-23 19:21:35</time>
      </trkpt>
      <trkpt lat="41.62709" lon="0.9614">
        <ele>355.4</ele>
        <time>2022-05-23 19:21:36</time>
      </trkpt>
      <trkpt lat="41.62702" lon="0.96139">
        <ele>355.4</ele>
        <time>2022-05-23 19:21:37</time>
      </trkpt>
      <trkpt lat="41.62697" lon="0.96138">
        <ele>355.4</ele>
        <time>2022-05-23 19:21:38</time>
      </trkpt>
      <trkpt lat="41.62691" lon="0.96136">
        <ele>355.4</ele>
        <time>2022-05-23 19:21:39</time>
      </trkpt>
      <trkpt lat="41.62687" lon="0.96135">
        <ele>355.6</ele>
        <time>2022-05-23 19:21:40</time>
      </trkpt>
      <trkpt lat="41.62681" lon="0.96134">
        <ele>355.6</ele>
        <time>2022-05-23 19:21:41</time>
      </trkpt>
      <trkpt lat="41.62678" lon="0.96133">
        <ele>355.6</ele>
        <time>2022-05-23 19:21:42</time>
      </trkpt>
      <trkpt lat="41.62672" lon="0.96132">
        <ele>355.8</ele>
        <time>2022-05-23 19:21:43</time>
      </trkpt>
      <trkpt lat="41.62668" lon="0.96132">
        <ele>356</ele>
        <time>2022-05-23 19:21:44</time>
      </trkpt>
      <trkpt lat="41.62663" lon="0.96131">
        <ele>356.2</ele>
        <time>2022-05-23 19:21:45</time>
      </trkpt>
      <trkpt lat="41.62659" lon="0.96131">
        <ele>356.4</ele>
        <time>2022-05-23 19:21:46</time>
      </trkpt>
      <trkpt lat="41.62654" lon="0.9613">
        <ele>356.6</ele>
        <time>2022-05-23 19:21:47</time>
      </trkpt>
      <trkpt lat="41.6265" lon="0.9613">
        <ele>356.8</ele>
        <time>2022-05-23 19:21:48</time>
      </trkpt>
      <trkpt lat="41.62647" lon="0.9613">
        <ele>356.8</ele>
        <time>2022-05-23 19:21:49</time>
      </trkpt>
      <trkpt lat="41.62642" lon="0.96129">
        <ele>357</ele>
        <time>2022-05-23 19:21:50</time>
      </trkpt>
      <trkpt lat="41.62638" lon="0.96129">
        <ele>357</ele>
        <time>2022-05-23 19:21:51</time>
      </trkpt>
      <trkpt lat="41.62636" lon="0.96129">
        <ele>357.2</ele>
        <time>2022-05-23 19:21:52</time>
      </trkpt>
      <trkpt lat="41.62631" lon="0.96129">
        <ele>357.4</ele>
        <time>2022-05-23 19:21:53</time>
      </trkpt>
      <trkpt lat="41.62627" lon="0.96129">
        <ele>357.6</ele>
        <time>2022-05-23 19:21:54</time>
      </trkpt>
      <trkpt lat="41.62624" lon="0.96129">
        <ele>357.6</ele>
        <time>2022-05-23 19:21:55</time>
      </trkpt>
      <trkpt lat="41.6262" lon="0.96129">
        <ele>357.8</ele>
        <time>2022-05-23 19:21:56</time>
      </trkpt>
      <trkpt lat="41.62616" lon="0.96129">
        <ele>357.8</ele>
        <time>2022-05-23 19:21:57</time>
      </trkpt>
      <trkpt lat="41.62613" lon="0.96128">
        <ele>358</ele>
        <time>2022-05-23 19:21:58</time>
      </trkpt>
      <trkpt lat="41.62609" lon="0.96128">
        <ele>358.2</ele>
        <time>2022-05-23 19:21:59</time>
      </trkpt>
      <trkpt lat="41.62605" lon="0.96127">
        <ele>358.4</ele>
        <time>2022-05-23 19:22:00</time>
      </trkpt>
      <trkpt lat="41.62602" lon="0.96127">
        <ele>358.4</ele>
        <time>2022-05-23 19:22:01</time>
      </trkpt>
      <trkpt lat="41.62598" lon="0.96127">
        <ele>358.6</ele>
        <time>2022-05-23 19:22:02</time>
      </trkpt>
      <trkpt lat="41.62595" lon="0.96126">
        <ele>358.8</ele>
        <time>2022-05-23 19:22:03</time>
      </trkpt>
      <trkpt lat="41.62592" lon="0.96126">
        <ele>359</ele>
        <time>2022-05-23 19:22:04</time>
      </trkpt>
      <trkpt lat="41.62587" lon="0.96126">
        <ele>359.2</ele>
        <time>2022-05-23 19:22:05</time>
      </trkpt>
      <trkpt lat="41.62584" lon="0.96126">
        <ele>359.2</ele>
        <time>2022-05-23 19:22:06</time>
      </trkpt>
      <trkpt lat="41.62581" lon="0.96125">
        <ele>359.4</ele>
        <time>2022-05-23 19:22:07</time>
      </trkpt>
      <trkpt lat="41.62577" lon="0.96125">
        <ele>359.4</ele>
        <time>2022-05-23 19:22:08</time>
      </trkpt>
      <trkpt lat="41.62573" lon="0.96124">
        <ele>359.6</ele>
        <time>2022-05-23 19:22:09</time>
      </trkpt>
      <trkpt lat="41.62571" lon="0.96124">
        <ele>359.8</ele>
        <time>2022-05-23 19:22:10</time>
      </trkpt>
      <trkpt lat="41.62566" lon="0.96124">
        <ele>360</ele>
        <time>2022-05-23 19:22:11</time>
      </trkpt>
      <trkpt lat="41.62562" lon="0.96124">
        <ele>360.2</ele>
        <time>2022-05-23 19:22:12</time>
      </trkpt>
      <trkpt lat="41.62559" lon="0.96124">
        <ele>360.4</ele>
        <time>2022-05-23 19:22:13</time>
      </trkpt>
      <trkpt lat="41.62555" lon="0.96124">
        <ele>360.6</ele>
        <time>2022-05-23 19:22:14</time>
      </trkpt>
      <trkpt lat="41.62552" lon="0.96125">
        <ele>360.8</ele>
        <time>2022-05-23 19:22:15</time>
      </trkpt>
      <trkpt lat="41.62549" lon="0.96125">
        <ele>361</ele>
        <time>2022-05-23 19:22:16</time>
      </trkpt>
      <trkpt lat="41.62545" lon="0.96125">
        <ele>361.2</ele>
        <time>2022-05-23 19:22:17</time>
      </trkpt>
      <trkpt lat="41.62541" lon="0.96126">
        <ele>361.4</ele>
        <time>2022-05-23 19:22:18</time>
      </trkpt>
      <trkpt lat="41.62539" lon="0.96127">
        <ele>361.4</ele>
        <time>2022-05-23 19:22:19</time>
      </trkpt>
      <trkpt lat="41.62535" lon="0.96128">
        <ele>361.6</ele>
        <time>2022-05-23 19:22:20</time>
      </trkpt>
      <trkpt lat="41.62532" lon="0.96129">
        <ele>361.8</ele>
        <time>2022-05-23 19:22:21</time>
      </trkpt>
      <trkpt lat="41.6253" lon="0.9613">
        <ele>362</ele>
        <time>2022-05-23 19:22:22</time>
      </trkpt>
      <trkpt lat="41.62525" lon="0.96132">
        <ele>362</ele>
        <time>2022-05-23 19:22:23</time>
      </trkpt>
      <trkpt lat="41.62522" lon="0.96133">
        <ele>362.2</ele>
        <time>2022-05-23 19:22:24</time>
      </trkpt>
      <trkpt lat="41.6252" lon="0.96134">
        <ele>362.2</ele>
        <time>2022-05-23 19:22:25</time>
      </trkpt>
      <trkpt lat="41.62516" lon="0.96135">
        <ele>362.4</ele>
        <time>2022-05-23 19:22:26</time>
      </trkpt>
      <trkpt lat="41.62512" lon="0.96136">
        <ele>362.6</ele>
        <time>2022-05-23 19:22:27</time>
      </trkpt>
      <trkpt lat="41.6251" lon="0.96136">
        <ele>362.8</ele>
        <time>2022-05-23 19:22:28</time>
      </trkpt>
      <trkpt lat="41.62506" lon="0.96137">
        <ele>363</ele>
        <time>2022-05-23 19:22:29</time>
      </trkpt>
      <trkpt lat="41.62502" lon="0.96138">
        <ele>363.2</ele>
        <time>2022-05-23 19:22:30</time>
      </trkpt>
      <trkpt lat="41.62499" lon="0.96139">
        <ele>363.4</ele>
        <time>2022-05-23 19:22:31</time>
      </trkpt>
      <trkpt lat="41.62495" lon="0.96141">
        <ele>363.6</ele>
        <time>2022-05-23 19:22:32</time>
      </trkpt>
      <trkpt lat="41.62492" lon="0.96142">
        <ele>363.8</ele>
        <time>2022-05-23 19:22:33</time>
      </trkpt>
      <trkpt lat="41.6249" lon="0.96142">
        <ele>364</ele>
        <time>2022-05-23 19:22:34</time>
      </trkpt>
      <trkpt lat="41.62485" lon="0.96143">
        <ele>364.2</ele>
        <time>2022-05-23 19:22:35</time>
      </trkpt>
      <trkpt lat="41.62482" lon="0.96144">
        <ele>364.4</ele>
        <time>2022-05-23 19:22:36</time>
      </trkpt>
      <trkpt lat="41.62479" lon="0.96144">
        <ele>364.6</ele>
        <time>2022-05-23 19:22:37</time>
      </trkpt>
      <trkpt lat="41.62476" lon="0.96145">
        <ele>364.8</ele>
        <time>2022-05-23 19:22:38</time>
      </trkpt>
      <trkpt lat="41.62472" lon="0.96146">
        <ele>365</ele>
        <time>2022-05-23 19:22:39</time>
      </trkpt>
      <trkpt lat="41.6247" lon="0.96147">
        <ele>365.4</ele>
        <time>2022-05-23 19:22:40</time>
      </trkpt>
      <trkpt lat="41.62466" lon="0.96148">
        <ele>365.6</ele>
        <time>2022-05-23 19:22:41</time>
      </trkpt>
      <trkpt lat="41.62463" lon="0.96148">
        <ele>365.8</ele>
        <time>2022-05-23 19:22:42</time>
      </trkpt>
      <trkpt lat="41.6246" lon="0.96148">
        <ele>366</ele>
        <time>2022-05-23 19:22:43</time>
      </trkpt>
      <trkpt lat="41.62455" lon="0.96148">
        <ele>366</ele>
        <time>2022-05-23 19:22:44</time>
      </trkpt>
      <trkpt lat="41.62451" lon="0.96148">
        <ele>366</ele>
        <time>2022-05-23 19:22:45</time>
      </trkpt>
      <trkpt lat="41.62448" lon="0.96148">
        <ele>366.2</ele>
        <time>2022-05-23 19:22:46</time>
      </trkpt>
      <trkpt lat="41.62442" lon="0.96147">
        <ele>366.2</ele>
        <time>2022-05-23 19:22:47</time>
      </trkpt>
      <trkpt lat="41.62438" lon="0.96147">
        <ele>366.2</ele>
        <time>2022-05-23 19:22:48</time>
      </trkpt>
      <trkpt lat="41.62435" lon="0.96146">
        <ele>366.4</ele>
        <time>2022-05-23 19:22:49</time>
      </trkpt>
      <trkpt lat="41.6243" lon="0.96145">
        <ele>366.4</ele>
        <time>2022-05-23 19:22:50</time>
      </trkpt>
      <trkpt lat="41.62425" lon="0.96143">
        <ele>366.4</ele>
        <time>2022-05-23 19:22:51</time>
      </trkpt>
      <trkpt lat="41.62421" lon="0.96143">
        <ele>366.4</ele>
        <time>2022-05-23 19:22:52</time>
      </trkpt>
      <trkpt lat="41.62416" lon="0.96141">
        <ele>366.4</ele>
        <time>2022-05-23 19:22:53</time>
      </trkpt>
      <trkpt lat="41.62412" lon="0.9614">
        <ele>366.4</ele>
        <time>2022-05-23 19:22:54</time>
      </trkpt>
      <trkpt lat="41.62407" lon="0.96138">
        <ele>366.4</ele>
        <time>2022-05-23 19:22:55</time>
      </trkpt>
      <trkpt lat="41.62404" lon="0.96137">
        <ele>366.4</ele>
        <time>2022-05-23 19:22:56</time>
      </trkpt>
      <trkpt lat="41.62398" lon="0.96135">
        <ele>366.6</ele>
        <time>2022-05-23 19:22:57</time>
      </trkpt>
      <trkpt lat="41.62394" lon="0.96134">
        <ele>366.6</ele>
        <time>2022-05-23 19:22:58</time>
      </trkpt>
      <trkpt lat="41.62391" lon="0.96133">
        <ele>366.6</ele>
        <time>2022-05-23 19:22:59</time>
      </trkpt>
      <trkpt lat="41.62385" lon="0.96131">
        <ele>366.6</ele>
        <time>2022-05-23 19:23:00</time>
      </trkpt>
      <trkpt lat="41.62382" lon="0.9613">
        <ele>366.6</ele>
        <time>2022-05-23 19:23:01</time>
      </trkpt>
      <trkpt lat="41.62377" lon="0.96129">
        <ele>366.6</ele>
        <time>2022-05-23 19:23:02</time>
      </trkpt>
      <trkpt lat="41.62373" lon="0.96128">
        <ele>366.6</ele>
        <time>2022-05-23 19:23:03</time>
      </trkpt>
      <trkpt lat="41.6237" lon="0.96127">
        <ele>366.6</ele>
        <time>2022-05-23 19:23:04</time>
      </trkpt>
      <trkpt lat="41.62366" lon="0.96126">
        <ele>366.6</ele>
        <time>2022-05-23 19:23:05</time>
      </trkpt>
      <trkpt lat="41.6236" lon="0.96124">
        <ele>366.8</ele>
        <time>2022-05-23 19:23:06</time>
      </trkpt>
      <trkpt lat="41.62357" lon="0.96123">
        <ele>366.8</ele>
        <time>2022-05-23 19:23:07</time>
      </trkpt>
      <trkpt lat="41.62351" lon="0.96121">
        <ele>367</ele>
        <time>2022-05-23 19:23:08</time>
      </trkpt>
      <trkpt lat="41.62347" lon="0.96119">
        <ele>367</ele>
        <time>2022-05-23 19:23:09</time>
      </trkpt>
      <trkpt lat="41.62344" lon="0.96118">
        <ele>367</ele>
        <time>2022-05-23 19:23:10</time>
      </trkpt>
      <trkpt lat="41.62339" lon="0.96117">
        <ele>367</ele>
        <time>2022-05-23 19:23:11</time>
      </trkpt>
      <trkpt lat="41.62335" lon="0.96116">
        <ele>367</ele>
        <time>2022-05-23 19:23:12</time>
      </trkpt>
      <trkpt lat="41.62332" lon="0.96115">
        <ele>367</ele>
        <time>2022-05-23 19:23:13</time>
      </trkpt>
      <trkpt lat="41.62326" lon="0.96113">
        <ele>366.8</ele>
        <time>2022-05-23 19:23:14</time>
      </trkpt>
      <trkpt lat="41.62322" lon="0.96111">
        <ele>366.6</ele>
        <time>2022-05-23 19:23:15</time>
      </trkpt>
      <trkpt lat="41.62317" lon="0.96109">
        <ele>366.4</ele>
        <time>2022-05-23 19:23:16</time>
      </trkpt>
      <trkpt lat="41.62311" lon="0.96106">
        <ele>366.2</ele>
        <time>2022-05-23 19:23:17</time>
      </trkpt>
      <trkpt lat="41.62307" lon="0.96104">
        <ele>365.8</ele>
        <time>2022-05-23 19:23:18</time>
      </trkpt>
      <trkpt lat="41.62298" lon="0.96101">
        <ele>365.4</ele>
        <time>2022-05-23 19:23:19</time>
      </trkpt>
      <trkpt lat="41.62293" lon="0.96099">
        <ele>365</ele>
        <time>2022-05-23 19:23:20</time>
      </trkpt>
      <trkpt lat="41.62284" lon="0.96095">
        <ele>364.4</ele>
        <time>2022-05-23 19:23:21</time>
      </trkpt>
      <trkpt lat="41.62277" lon="0.96093">
        <ele>363.8</ele>
        <time>2022-05-23 19:23:22</time>
      </trkpt>
      <trkpt lat="41.62268" lon="0.96089">
        <ele>363</ele>
        <time>2022-05-23 19:23:23</time>
      </trkpt>
      <trkpt lat="41.62261" lon="0.96086">
        <ele>362.6</ele>
        <time>2022-05-23 19:23:24</time>
      </trkpt>
      <trkpt lat="41.62251" lon="0.96081">
        <ele>362</ele>
        <time>2022-05-23 19:23:25</time>
      </trkpt>
      <trkpt lat="41.62245" lon="0.96079">
        <ele>361.4</ele>
        <time>2022-05-23 19:23:26</time>
      </trkpt>
      <trkpt lat="41.62236" lon="0.96075">
        <ele>361</ele>
        <time>2022-05-23 19:23:27</time>
      </trkpt>
      <trkpt lat="41.62229" lon="0.96072">
        <ele>360.4</ele>
        <time>2022-05-23 19:23:28</time>
      </trkpt>
      <trkpt lat="41.6222" lon="0.96068">
        <ele>360.2</ele>
        <time>2022-05-23 19:23:29</time>
      </trkpt>
      <trkpt lat="41.6221" lon="0.96064">
        <ele>360</ele>
        <time>2022-05-23 19:23:30</time>
      </trkpt>
      <trkpt lat="41.62203" lon="0.96061">
        <ele>359.8</ele>
        <time>2022-05-23 19:23:31</time>
      </trkpt>
      <trkpt lat="41.62192" lon="0.96056">
        <ele>359.6</ele>
        <time>2022-05-23 19:23:32</time>
      </trkpt>
      <trkpt lat="41.62187" lon="0.96054">
        <ele>359.6</ele>
        <time>2022-05-23 19:23:33</time>
      </trkpt>
      <trkpt lat="41.62178" lon="0.9605">
        <ele>359.6</ele>
        <time>2022-05-23 19:23:34</time>
      </trkpt>
      <trkpt lat="41.62172" lon="0.96047">
        <ele>359.6</ele>
        <time>2022-05-23 19:23:35</time>
      </trkpt>
      <trkpt lat="41.62164" lon="0.96043">
        <ele>359.6</ele>
        <time>2022-05-23 19:23:36</time>
      </trkpt>
      <trkpt lat="41.62159" lon="0.9604">
        <ele>359.6</ele>
        <time>2022-05-23 19:23:37</time>
      </trkpt>
      <trkpt lat="41.62151" lon="0.96036">
        <ele>359.6</ele>
        <time>2022-05-23 19:23:38</time>
      </trkpt>
      <trkpt lat="41.62144" lon="0.96032">
        <ele>359.8</ele>
        <time>2022-05-23 19:23:39</time>
      </trkpt>
      <trkpt lat="41.62138" lon="0.96029">
        <ele>359.8</ele>
        <time>2022-05-23 19:23:40</time>
      </trkpt>
      <trkpt lat="41.62132" lon="0.96026">
        <ele>360</ele>
        <time>2022-05-23 19:23:41</time>
      </trkpt>
      <trkpt lat="41.62126" lon="0.96023">
        <ele>359.8</ele>
        <time>2022-05-23 19:23:42</time>
      </trkpt>
      <trkpt lat="41.62119" lon="0.96019">
        <ele>360</ele>
        <time>2022-05-23 19:23:43</time>
      </trkpt>
      <trkpt lat="41.62113" lon="0.96016">
        <ele>360</ele>
        <time>2022-05-23 19:23:44</time>
      </trkpt>
      <trkpt lat="41.62108" lon="0.96014">
        <ele>360</ele>
        <time>2022-05-23 19:23:45</time>
      </trkpt>
      <trkpt lat="41.62102" lon="0.96011">
        <ele>360</ele>
        <time>2022-05-23 19:23:46</time>
      </trkpt>
      <trkpt lat="41.62097" lon="0.96008">
        <ele>360.2</ele>
        <time>2022-05-23 19:23:47</time>
      </trkpt>
      <trkpt lat="41.62092" lon="0.96005">
        <ele>360.2</ele>
        <time>2022-05-23 19:23:48</time>
      </trkpt>
      <trkpt lat="41.62087" lon="0.96003">
        <ele>360.2</ele>
        <time>2022-05-23 19:23:49</time>
      </trkpt>
      <trkpt lat="41.62082" lon="0.96">
        <ele>360.4</ele>
        <time>2022-05-23 19:23:50</time>
      </trkpt>
      <trkpt lat="41.62077" lon="0.95998">
        <ele>360.6</ele>
        <time>2022-05-23 19:23:51</time>
      </trkpt>
      <trkpt lat="41.62072" lon="0.95995">
        <ele>360.8</ele>
        <time>2022-05-23 19:23:52</time>
      </trkpt>
      <trkpt lat="41.62068" lon="0.95993">
        <ele>361</ele>
        <time>2022-05-23 19:23:53</time>
      </trkpt>
      <trkpt lat="41.62063" lon="0.95991">
        <ele>361.2</ele>
        <time>2022-05-23 19:23:54</time>
      </trkpt>
      <trkpt lat="41.62058" lon="0.95989">
        <ele>361.4</ele>
        <time>2022-05-23 19:23:55</time>
      </trkpt>
      <trkpt lat="41.62054" lon="0.95986">
        <ele>361.6</ele>
        <time>2022-05-23 19:23:56</time>
      </trkpt>
      <trkpt lat="41.62049" lon="0.95985">
        <ele>361.8</ele>
        <time>2022-05-23 19:23:57</time>
      </trkpt>
      <trkpt lat="41.62044" lon="0.95983">
        <ele>362</ele>
        <time>2022-05-23 19:23:58</time>
      </trkpt>
      <trkpt lat="41.6204" lon="0.95981">
        <ele>362</ele>
        <time>2022-05-23 19:23:59</time>
      </trkpt>
      <trkpt lat="41.62035" lon="0.95979">
        <ele>362.2</ele>
        <time>2022-05-23 19:24:00</time>
      </trkpt>
      <trkpt lat="41.62031" lon="0.95977">
        <ele>362.2</ele>
        <time>2022-05-23 19:24:01</time>
      </trkpt>
      <trkpt lat="41.62026" lon="0.95975">
        <ele>362.4</ele>
        <time>2022-05-23 19:24:02</time>
      </trkpt>
      <trkpt lat="41.62022" lon="0.95973">
        <ele>362.4</ele>
        <time>2022-05-23 19:24:03</time>
      </trkpt>
      <trkpt lat="41.62017" lon="0.95971">
        <ele>362.4</ele>
        <time>2022-05-23 19:24:04</time>
      </trkpt>
      <trkpt lat="41.62012" lon="0.95969">
        <ele>362.4</ele>
        <time>2022-05-23 19:24:05</time>
      </trkpt>
      <trkpt lat="41.62008" lon="0.95967">
        <ele>362.4</ele>
        <time>2022-05-23 19:24:06</time>
      </trkpt>
      <trkpt lat="41.62003" lon="0.95965">
        <ele>362.6</ele>
        <time>2022-05-23 19:24:07</time>
      </trkpt>
      <trkpt lat="41.61999" lon="0.95963">
        <ele>362.6</ele>
        <time>2022-05-23 19:24:08</time>
      </trkpt>
      <trkpt lat="41.61995" lon="0.95961">
        <ele>362.6</ele>
        <time>2022-05-23 19:24:09</time>
      </trkpt>
      <trkpt lat="41.6199" lon="0.95959">
        <ele>362.6</ele>
        <time>2022-05-23 19:24:10</time>
      </trkpt>
      <trkpt lat="41.61986" lon="0.95958">
        <ele>362.6</ele>
        <time>2022-05-23 19:24:11</time>
      </trkpt>
      <trkpt lat="41.61981" lon="0.95956">
        <ele>362.6</ele>
        <time>2022-05-23 19:24:12</time>
      </trkpt>
      <trkpt lat="41.61976" lon="0.95954">
        <ele>362.6</ele>
        <time>2022-05-23 19:24:13</time>
      </trkpt>
      <trkpt lat="41.61972" lon="0.95952">
        <ele>362.6</ele>
        <time>2022-05-23 19:24:14</time>
      </trkpt>
      <trkpt lat="41.61968" lon="0.9595">
        <ele>362.6</ele>
        <time>2022-05-23 19:24:15</time>
      </trkpt>
      <trkpt lat="41.61963" lon="0.95947">
        <ele>362.6</ele>
        <time>2022-05-23 19:24:16</time>
      </trkpt>
      <trkpt lat="41.61959" lon="0.95945">
        <ele>362.4</ele>
        <time>2022-05-23 19:24:17</time>
      </trkpt>
      <trkpt lat="41.61954" lon="0.95943">
        <ele>362.4</ele>
        <time>2022-05-23 19:24:18</time>
      </trkpt>
      <trkpt lat="41.61949" lon="0.95941">
        <ele>362.4</ele>
        <time>2022-05-23 19:24:19</time>
      </trkpt>
      <trkpt lat="41.61945" lon="0.95939">
        <ele>362.4</ele>
        <time>2022-05-23 19:24:20</time>
      </trkpt>
      <trkpt lat="41.6194" lon="0.95937">
        <ele>362.4</ele>
        <time>2022-05-23 19:24:21</time>
      </trkpt>
      <trkpt lat="41.61936" lon="0.95935">
        <ele>362.4</ele>
        <time>2022-05-23 19:24:22</time>
      </trkpt>
      <trkpt lat="41.61931" lon="0.95933">
        <ele>362.4</ele>
        <time>2022-05-23 19:24:23</time>
      </trkpt>
      <trkpt lat="41.61927" lon="0.9593">
        <ele>362.4</ele>
        <time>2022-05-23 19:24:24</time>
      </trkpt>
      <trkpt lat="41.61923" lon="0.95928">
        <ele>362.4</ele>
        <time>2022-05-23 19:24:25</time>
      </trkpt>
      <trkpt lat="41.61918" lon="0.95927">
        <ele>362.6</ele>
        <time>2022-05-23 19:24:26</time>
      </trkpt>
      <trkpt lat="41.61915" lon="0.95925">
        <ele>362.8</ele>
        <time>2022-05-23 19:24:27</time>
      </trkpt>
      <trkpt lat="41.61911" lon="0.95923">
        <ele>363</ele>
        <time>2022-05-23 19:24:28</time>
      </trkpt>
      <trkpt lat="41.61906" lon="0.95921">
        <ele>363.2</ele>
        <time>2022-05-23 19:24:29</time>
      </trkpt>
      <trkpt lat="41.61902" lon="0.95918">
        <ele>363.2</ele>
        <time>2022-05-23 19:24:30</time>
      </trkpt>
      <trkpt lat="41.61898" lon="0.95916">
        <ele>363.2</ele>
        <time>2022-05-23 19:24:31</time>
      </trkpt>
      <trkpt lat="41.61893" lon="0.95915">
        <ele>363.2</ele>
        <time>2022-05-23 19:24:32</time>
      </trkpt>
      <trkpt lat="41.61889" lon="0.95913">
        <ele>363.2</ele>
        <time>2022-05-23 19:24:33</time>
      </trkpt>
      <trkpt lat="41.61885" lon="0.95911">
        <ele>363.2</ele>
        <time>2022-05-23 19:24:34</time>
      </trkpt>
      <trkpt lat="41.6188" lon="0.9591">
        <ele>363.2</ele>
        <time>2022-05-23 19:24:35</time>
      </trkpt>
      <trkpt lat="41.61877" lon="0.95908">
        <ele>363.2</ele>
        <time>2022-05-23 19:24:36</time>
      </trkpt>
      <trkpt lat="41.61872" lon="0.95906">
        <ele>363.2</ele>
        <time>2022-05-23 19:24:37</time>
      </trkpt>
      <trkpt lat="41.61869" lon="0.95903">
        <ele>363.4</ele>
        <time>2022-05-23 19:24:38</time>
      </trkpt>
      <trkpt lat="41.61865" lon="0.95902">
        <ele>363.4</ele>
        <time>2022-05-23 19:24:39</time>
      </trkpt>
      <trkpt lat="41.61861" lon="0.959">
        <ele>363.6</ele>
        <time>2022-05-23 19:24:40</time>
      </trkpt>
      <trkpt lat="41.61857" lon="0.95898">
        <ele>363.6</ele>
        <time>2022-05-23 19:24:41</time>
      </trkpt>
      <trkpt lat="41.61854" lon="0.95897">
        <ele>363.6</ele>
        <time>2022-05-23 19:24:42</time>
      </trkpt>
      <trkpt lat="41.6185" lon="0.95895">
        <ele>363.6</ele>
        <time>2022-05-23 19:24:43</time>
      </trkpt>
      <trkpt lat="41.61846" lon="0.95894">
        <ele>363.8</ele>
        <time>2022-05-23 19:24:44</time>
      </trkpt>
      <trkpt lat="41.61843" lon="0.95893">
        <ele>363.8</ele>
        <time>2022-05-23 19:24:45</time>
      </trkpt>
      <trkpt lat="41.61839" lon="0.95891">
        <ele>364</ele>
        <time>2022-05-23 19:24:46</time>
      </trkpt>
      <trkpt lat="41.61835" lon="0.9589">
        <ele>364.2</ele>
        <time>2022-05-23 19:24:47</time>
      </trkpt>
      <trkpt lat="41.61831" lon="0.95889">
        <ele>364.2</ele>
        <time>2022-05-23 19:24:48</time>
      </trkpt>
      <trkpt lat="41.61827" lon="0.95888">
        <ele>364.4</ele>
        <time>2022-05-23 19:24:49</time>
      </trkpt>
      <trkpt lat="41.61823" lon="0.95886">
        <ele>364.6</ele>
        <time>2022-05-23 19:24:50</time>
      </trkpt>
      <trkpt lat="41.61818" lon="0.95885">
        <ele>364.6</ele>
        <time>2022-05-23 19:24:51</time>
      </trkpt>
      <trkpt lat="41.61814" lon="0.95884">
        <ele>364.8</ele>
        <time>2022-05-23 19:24:52</time>
      </trkpt>
      <trkpt lat="41.61809" lon="0.95882">
        <ele>365.2</ele>
        <time>2022-05-23 19:24:53</time>
      </trkpt>
      <trkpt lat="41.61804" lon="0.95881">
        <ele>365.4</ele>
        <time>2022-05-23 19:24:54</time>
      </trkpt>
      <trkpt lat="41.618" lon="0.9588">
        <ele>365.6</ele>
        <time>2022-05-23 19:24:55</time>
      </trkpt>
      <trkpt lat="41.61796" lon="0.95879">
        <ele>365.6</ele>
        <time>2022-05-23 19:24:56</time>
      </trkpt>
      <trkpt lat="41.61791" lon="0.95877">
        <ele>365.6</ele>
        <time>2022-05-23 19:24:57</time>
      </trkpt>
      <trkpt lat="41.61786" lon="0.95876">
        <ele>365.6</ele>
        <time>2022-05-23 19:24:58</time>
      </trkpt>
      <trkpt lat="41.61782" lon="0.95874">
        <ele>365.6</ele>
        <time>2022-05-23 19:24:59</time>
      </trkpt>
      <trkpt lat="41.61777" lon="0.95871">
        <ele>365.6</ele>
        <time>2022-05-23 19:25:00</time>
      </trkpt>
      <trkpt lat="41.61773" lon="0.95867">
        <ele>365.6</ele>
        <time>2022-05-23 19:25:01</time>
      </trkpt>
      <trkpt lat="41.61769" lon="0.95863">
        <ele>365.6</ele>
        <time>2022-05-23 19:25:02</time>
      </trkpt>
      <trkpt lat="41.61766" lon="0.95859">
        <ele>365.4</ele>
        <time>2022-05-23 19:25:03</time>
      </trkpt>
      <trkpt lat="41.61763" lon="0.95854">
        <ele>365.4</ele>
        <time>2022-05-23 19:25:04</time>
      </trkpt>
      <trkpt lat="41.61759" lon="0.95849">
        <ele>365.4</ele>
        <time>2022-05-23 19:25:05</time>
      </trkpt>
      <trkpt lat="41.61756" lon="0.95846">
        <ele>365.4</ele>
        <time>2022-05-23 19:25:06</time>
      </trkpt>
      <trkpt lat="41.61751" lon="0.95843">
        <ele>365.4</ele>
        <time>2022-05-23 19:25:07</time>
      </trkpt>
      <trkpt lat="41.61746" lon="0.95842">
        <ele>365.4</ele>
        <time>2022-05-23 19:25:08</time>
      </trkpt>
      <trkpt lat="41.61742" lon="0.95842">
        <ele>365.4</ele>
        <time>2022-05-23 19:25:09</time>
      </trkpt>
      <trkpt lat="41.61737" lon="0.95843">
        <ele>365.6</ele>
        <time>2022-05-23 19:25:10</time>
      </trkpt>
      <trkpt lat="41.61732" lon="0.95846">
        <ele>365.6</ele>
        <time>2022-05-23 19:25:11</time>
      </trkpt>
      <trkpt lat="41.61727" lon="0.95848">
        <ele>365.6</ele>
        <time>2022-05-23 19:25:12</time>
      </trkpt>
      <trkpt lat="41.61722" lon="0.95851">
        <ele>365.6</ele>
        <time>2022-05-23 19:25:13</time>
      </trkpt>
      <trkpt lat="41.61717" lon="0.95854">
        <ele>365.6</ele>
        <time>2022-05-23 19:25:14</time>
      </trkpt>
      <trkpt lat="41.61712" lon="0.95856">
        <ele>365.6</ele>
        <time>2022-05-23 19:25:15</time>
      </trkpt>
      <trkpt lat="41.61707" lon="0.95857">
        <ele>365.4</ele>
        <time>2022-05-23 19:25:16</time>
      </trkpt>
      <trkpt lat="41.61702" lon="0.95856">
        <ele>365.4</ele>
        <time>2022-05-23 19:25:17</time>
      </trkpt>
      <trkpt lat="41.61697" lon="0.95855">
        <ele>365.4</ele>
        <time>2022-05-23 19:25:18</time>
      </trkpt>
      <trkpt lat="41.61692" lon="0.95854">
        <ele>365.4</ele>
        <time>2022-05-23 19:25:19</time>
      </trkpt>
      <trkpt lat="41.61687" lon="0.95852">
        <ele>365.4</ele>
        <time>2022-05-23 19:25:20</time>
      </trkpt>
      <trkpt lat="41.61682" lon="0.9585">
        <ele>365.2</ele>
        <time>2022-05-23 19:25:21</time>
      </trkpt>
      <trkpt lat="41.61678" lon="0.95849">
        <ele>365.2</ele>
        <time>2022-05-23 19:25:22</time>
      </trkpt>
      <trkpt lat="41.61673" lon="0.95847">
        <ele>365.2</ele>
        <time>2022-05-23 19:25:23</time>
      </trkpt>
      <trkpt lat="41.61668" lon="0.95845">
        <ele>365.4</ele>
        <time>2022-05-23 19:25:24</time>
      </trkpt>
      <trkpt lat="41.61663" lon="0.95844">
        <ele>365.4</ele>
        <time>2022-05-23 19:25:25</time>
      </trkpt>
      <trkpt lat="41.61658" lon="0.95842">
        <ele>365.4</ele>
        <time>2022-05-23 19:25:26</time>
      </trkpt>
      <trkpt lat="41.61653" lon="0.95841">
        <ele>365.4</ele>
        <time>2022-05-23 19:25:27</time>
      </trkpt>
      <trkpt lat="41.61648" lon="0.95839">
        <ele>365.4</ele>
        <time>2022-05-23 19:25:28</time>
      </trkpt>
      <trkpt lat="41.61643" lon="0.95837">
        <ele>365.4</ele>
        <time>2022-05-23 19:25:29</time>
      </trkpt>
      <trkpt lat="41.61638" lon="0.95834">
        <ele>365.4</ele>
        <time>2022-05-23 19:25:30</time>
      </trkpt>
      <trkpt lat="41.61634" lon="0.95833">
        <ele>365.2</ele>
        <time>2022-05-23 19:25:31</time>
      </trkpt>
      <trkpt lat="41.61629" lon="0.95831">
        <ele>365.2</ele>
        <time>2022-05-23 19:25:32</time>
      </trkpt>
      <trkpt lat="41.61624" lon="0.95829">
        <ele>365.2</ele>
        <time>2022-05-23 19:25:33</time>
      </trkpt>
      <trkpt lat="41.61619" lon="0.95827">
        <ele>365.2</ele>
        <time>2022-05-23 19:25:34</time>
      </trkpt>
      <trkpt lat="41.61614" lon="0.95826">
        <ele>365.2</ele>
        <time>2022-05-23 19:25:35</time>
      </trkpt>
      <trkpt lat="41.61609" lon="0.95825">
        <ele>365.2</ele>
        <time>2022-05-23 19:25:36</time>
      </trkpt>
      <trkpt lat="41.61604" lon="0.95824">
        <ele>365.2</ele>
        <time>2022-05-23 19:25:37</time>
      </trkpt>
      <trkpt lat="41.61598" lon="0.95823">
        <ele>365.4</ele>
        <time>2022-05-23 19:25:38</time>
      </trkpt>
      <trkpt lat="41.61593" lon="0.95823">
        <ele>365.4</ele>
        <time>2022-05-23 19:25:39</time>
      </trkpt>
      <trkpt lat="41.61588" lon="0.95824">
        <ele>365.4</ele>
        <time>2022-05-23 19:25:40</time>
      </trkpt>
      <trkpt lat="41.61582" lon="0.95825">
        <ele>365.4</ele>
        <time>2022-05-23 19:25:41</time>
      </trkpt>
      <trkpt lat="41.61578" lon="0.95827">
        <ele>365.6</ele>
        <time>2022-05-23 19:25:42</time>
      </trkpt>
      <trkpt lat="41.61573" lon="0.9583">
        <ele>365.8</ele>
        <time>2022-05-23 19:25:43</time>
      </trkpt>
      <trkpt lat="41.61569" lon="0.95832">
        <ele>365.8</ele>
        <time>2022-05-23 19:25:44</time>
      </trkpt>
      <trkpt lat="41.61564" lon="0.95836">
        <ele>366</ele>
        <time>2022-05-23 19:25:45</time>
      </trkpt>
      <trkpt lat="41.61559" lon="0.95839">
        <ele>365.8</ele>
        <time>2022-05-23 19:25:46</time>
      </trkpt>
      <trkpt lat="41.61555" lon="0.95843">
        <ele>365.8</ele>
        <time>2022-05-23 19:25:47</time>
      </trkpt>
      <trkpt lat="41.6155" lon="0.95846">
        <ele>365.8</ele>
        <time>2022-05-23 19:25:48</time>
      </trkpt>
      <trkpt lat="41.61546" lon="0.95849">
        <ele>365.8</ele>
        <time>2022-05-23 19:25:49</time>
      </trkpt>
      <trkpt lat="41.61541" lon="0.95852">
        <ele>365.8</ele>
        <time>2022-05-23 19:25:50</time>
      </trkpt>
      <trkpt lat="41.61537" lon="0.95855">
        <ele>366</ele>
        <time>2022-05-23 19:25:51</time>
      </trkpt>
      <trkpt lat="41.61532" lon="0.95858">
        <ele>366</ele>
        <time>2022-05-23 19:25:52</time>
      </trkpt>
      <trkpt lat="41.61527" lon="0.95861">
        <ele>366</ele>
        <time>2022-05-23 19:25:53</time>
      </trkpt>
      <trkpt lat="41.61523" lon="0.95864">
        <ele>366.2</ele>
        <time>2022-05-23 19:25:54</time>
      </trkpt>
      <trkpt lat="41.61518" lon="0.95868">
        <ele>366.4</ele>
        <time>2022-05-23 19:25:55</time>
      </trkpt>
      <trkpt lat="41.61513" lon="0.95872">
        <ele>366.4</ele>
        <time>2022-05-23 19:25:56</time>
      </trkpt>
      <trkpt lat="41.61509" lon="0.95875">
        <ele>366.4</ele>
        <time>2022-05-23 19:25:57</time>
      </trkpt>
      <trkpt lat="41.61504" lon="0.95879">
        <ele>366.4</ele>
        <time>2022-05-23 19:25:58</time>
      </trkpt>
      <trkpt lat="41.615" lon="0.95881">
        <ele>366.4</ele>
        <time>2022-05-23 19:25:59</time>
      </trkpt>
      <trkpt lat="41.61495" lon="0.95882">
        <ele>366.4</ele>
        <time>2022-05-23 19:26:00</time>
      </trkpt>
      <trkpt lat="41.6149" lon="0.9588">
        <ele>366.2</ele>
        <time>2022-05-23 19:26:01</time>
      </trkpt>
      <trkpt lat="41.61487" lon="0.95877">
        <ele>366.2</ele>
        <time>2022-05-23 19:26:02</time>
      </trkpt>
      <trkpt lat="41.61483" lon="0.95872">
        <ele>366.2</ele>
        <time>2022-05-23 19:26:03</time>
      </trkpt>
      <trkpt lat="41.61479" lon="0.95867">
        <ele>366</ele>
        <time>2022-05-23 19:26:04</time>
      </trkpt>
      <trkpt lat="41.61475" lon="0.95862">
        <ele>366</ele>
        <time>2022-05-23 19:26:05</time>
      </trkpt>
      <trkpt lat="41.61471" lon="0.95856">
        <ele>365.8</ele>
        <time>2022-05-23 19:26:06</time>
      </trkpt>
      <trkpt lat="41.61467" lon="0.95852">
        <ele>365.6</ele>
        <time>2022-05-23 19:26:07</time>
      </trkpt>
      <trkpt lat="41.61462" lon="0.95846">
        <ele>365.4</ele>
        <time>2022-05-23 19:26:08</time>
      </trkpt>
      <trkpt lat="41.61458" lon="0.95841">
        <ele>365.2</ele>
        <time>2022-05-23 19:26:09</time>
      </trkpt>
      <trkpt lat="41.61454" lon="0.95836">
        <ele>365.2</ele>
        <time>2022-05-23 19:26:10</time>
      </trkpt>
      <trkpt lat="41.6145" lon="0.95831">
        <ele>365</ele>
        <time>2022-05-23 19:26:11</time>
      </trkpt>
      <trkpt lat="41.61446" lon="0.95825">
        <ele>365</ele>
        <time>2022-05-23 19:26:12</time>
      </trkpt>
      <trkpt lat="41.61442" lon="0.95821">
        <ele>365</ele>
        <time>2022-05-23 19:26:13</time>
      </trkpt>
      <trkpt lat="41.61438" lon="0.95816">
        <ele>365</ele>
        <time>2022-05-23 19:26:14</time>
      </trkpt>
      <trkpt lat="41.61433" lon="0.9581">
        <ele>365</ele>
        <time>2022-05-23 19:26:15</time>
      </trkpt>
      <trkpt lat="41.61429" lon="0.95805">
        <ele>365</ele>
        <time>2022-05-23 19:26:16</time>
      </trkpt>
      <trkpt lat="41.61425" lon="0.958">
        <ele>365</ele>
        <time>2022-05-23 19:26:17</time>
      </trkpt>
      <trkpt lat="41.61421" lon="0.95795">
        <ele>365</ele>
        <time>2022-05-23 19:26:18</time>
      </trkpt>
      <trkpt lat="41.61417" lon="0.9579">
        <ele>365</ele>
        <time>2022-05-23 19:26:19</time>
      </trkpt>
      <trkpt lat="41.61413" lon="0.95785">
        <ele>365</ele>
        <time>2022-05-23 19:26:20</time>
      </trkpt>
      <trkpt lat="41.61409" lon="0.9578">
        <ele>365</ele>
        <time>2022-05-23 19:26:21</time>
      </trkpt>
      <trkpt lat="41.61405" lon="0.95775">
        <ele>365</ele>
        <time>2022-05-23 19:26:22</time>
      </trkpt>
      <trkpt lat="41.61401" lon="0.95769">
        <ele>365.2</ele>
        <time>2022-05-23 19:26:23</time>
      </trkpt>
      <trkpt lat="41.61397" lon="0.95764">
        <ele>365.2</ele>
        <time>2022-05-23 19:26:24</time>
      </trkpt>
      <trkpt lat="41.61393" lon="0.95759">
        <ele>365.4</ele>
        <time>2022-05-23 19:26:25</time>
      </trkpt>
      <trkpt lat="41.61389" lon="0.95754">
        <ele>365.4</ele>
        <time>2022-05-23 19:26:26</time>
      </trkpt>
      <trkpt lat="41.61385" lon="0.95749">
        <ele>365.2</ele>
        <time>2022-05-23 19:26:27</time>
      </trkpt>
      <trkpt lat="41.61381" lon="0.95744">
        <ele>365.2</ele>
        <time>2022-05-23 19:26:28</time>
      </trkpt>
      <trkpt lat="41.61377" lon="0.95739">
        <ele>365.4</ele>
        <time>2022-05-23 19:26:29</time>
      </trkpt>
      <trkpt lat="41.61373" lon="0.95734">
        <ele>365.4</ele>
        <time>2022-05-23 19:26:30</time>
      </trkpt>
      <trkpt lat="41.61369" lon="0.95729">
        <ele>365.6</ele>
        <time>2022-05-23 19:26:31</time>
      </trkpt>
      <trkpt lat="41.61365" lon="0.95724">
        <ele>365.6</ele>
        <time>2022-05-23 19:26:32</time>
      </trkpt>
      <trkpt lat="41.6136" lon="0.95719">
        <ele>365.6</ele>
        <time>2022-05-23 19:26:33</time>
      </trkpt>
      <trkpt lat="41.61356" lon="0.95715">
        <ele>365.6</ele>
        <time>2022-05-23 19:26:34</time>
      </trkpt>
      <trkpt lat="41.61352" lon="0.95711">
        <ele>365.4</ele>
        <time>2022-05-23 19:26:35</time>
      </trkpt>
      <trkpt lat="41.61348" lon="0.95706">
        <ele>365.6</ele>
        <time>2022-05-23 19:26:36</time>
      </trkpt>
      <trkpt lat="41.61343" lon="0.95701">
        <ele>365.6</ele>
        <time>2022-05-23 19:26:37</time>
      </trkpt>
      <trkpt lat="41.61339" lon="0.95697">
        <ele>365.8</ele>
        <time>2022-05-23 19:26:38</time>
      </trkpt>
      <trkpt lat="41.61335" lon="0.95692">
        <ele>365.8</ele>
        <time>2022-05-23 19:26:39</time>
      </trkpt>
      <trkpt lat="41.61331" lon="0.95688">
        <ele>365.6</ele>
        <time>2022-05-23 19:26:40</time>
      </trkpt>
      <trkpt lat="41.61326" lon="0.95682">
        <ele>365.8</ele>
        <time>2022-05-23 19:26:41</time>
      </trkpt>
      <trkpt lat="41.61321" lon="0.95677">
        <ele>365.8</ele>
        <time>2022-05-23 19:26:42</time>
      </trkpt>
      <trkpt lat="41.61316" lon="0.95672">
        <ele>365.8</ele>
        <time>2022-05-23 19:26:43</time>
      </trkpt>
      <trkpt lat="41.61312" lon="0.95667">
        <ele>365.8</ele>
        <time>2022-05-23 19:26:44</time>
      </trkpt>
      <trkpt lat="41.61307" lon="0.95662">
        <ele>365.8</ele>
        <time>2022-05-23 19:26:45</time>
      </trkpt>
      <trkpt lat="41.61303" lon="0.95657">
        <ele>365.8</ele>
        <time>2022-05-23 19:26:46</time>
      </trkpt>
      <trkpt lat="41.61298" lon="0.95652">
        <ele>365.8</ele>
        <time>2022-05-23 19:26:47</time>
      </trkpt>
      <trkpt lat="41.61294" lon="0.95647">
        <ele>365.8</ele>
        <time>2022-05-23 19:26:48</time>
      </trkpt>
      <trkpt lat="41.61289" lon="0.95642">
        <ele>365.8</ele>
        <time>2022-05-23 19:26:49</time>
      </trkpt>
      <trkpt lat="41.61285" lon="0.95637">
        <ele>365.8</ele>
        <time>2022-05-23 19:26:50</time>
      </trkpt>
      <trkpt lat="41.6128" lon="0.95633">
        <ele>365.8</ele>
        <time>2022-05-23 19:26:51</time>
      </trkpt>
      <trkpt lat="41.61276" lon="0.95629">
        <ele>366</ele>
        <time>2022-05-23 19:26:52</time>
      </trkpt>
      <trkpt lat="41.61272" lon="0.95624">
        <ele>366.2</ele>
        <time>2022-05-23 19:26:53</time>
      </trkpt>
      <trkpt lat="41.61267" lon="0.95619">
        <ele>366.2</ele>
        <time>2022-05-23 19:26:54</time>
      </trkpt>
      <trkpt lat="41.61263" lon="0.95614">
        <ele>366.2</ele>
        <time>2022-05-23 19:26:55</time>
      </trkpt>
      <trkpt lat="41.61259" lon="0.95609">
        <ele>366.2</ele>
        <time>2022-05-23 19:26:56</time>
      </trkpt>
      <trkpt lat="41.61255" lon="0.95605">
        <ele>366.2</ele>
        <time>2022-05-23 19:26:57</time>
      </trkpt>
      <trkpt lat="41.6125" lon="0.956">
        <ele>366.2</ele>
        <time>2022-05-23 19:26:58</time>
      </trkpt>
      <trkpt lat="41.61246" lon="0.95596">
        <ele>366.2</ele>
        <time>2022-05-23 19:26:59</time>
      </trkpt>
      <trkpt lat="41.61242" lon="0.95591">
        <ele>366</ele>
        <time>2022-05-23 19:27:00</time>
      </trkpt>
      <trkpt lat="41.61238" lon="0.95586">
        <ele>366</ele>
        <time>2022-05-23 19:27:01</time>
      </trkpt>
      <trkpt lat="41.61233" lon="0.95582">
        <ele>366</ele>
        <time>2022-05-23 19:27:02</time>
      </trkpt>
      <trkpt lat="41.6123" lon="0.95578">
        <ele>366</ele>
        <time>2022-05-23 19:27:03</time>
      </trkpt>
      <trkpt lat="41.61225" lon="0.95574">
        <ele>366.2</ele>
        <time>2022-05-23 19:27:04</time>
      </trkpt>
      <trkpt lat="41.61222" lon="0.95569">
        <ele>366.2</ele>
        <time>2022-05-23 19:27:05</time>
      </trkpt>
      <trkpt lat="41.61217" lon="0.95565">
        <ele>366.2</ele>
        <time>2022-05-23 19:27:06</time>
      </trkpt>
      <trkpt lat="41.61214" lon="0.95561">
        <ele>366.2</ele>
        <time>2022-05-23 19:27:07</time>
      </trkpt>
      <trkpt lat="41.6121" lon="0.95557">
        <ele>366.2</ele>
        <time>2022-05-23 19:27:08</time>
      </trkpt>
      <trkpt lat="41.61206" lon="0.95553">
        <ele>366.2</ele>
        <time>2022-05-23 19:27:09</time>
      </trkpt>
      <trkpt lat="41.61202" lon="0.95549">
        <ele>366.4</ele>
        <time>2022-05-23 19:27:10</time>
      </trkpt>
      <trkpt lat="41.61198" lon="0.95545">
        <ele>366.6</ele>
        <time>2022-05-23 19:27:11</time>
      </trkpt>
      <trkpt lat="41.61194" lon="0.95542">
        <ele>366.8</ele>
        <time>2022-05-23 19:27:12</time>
      </trkpt>
      <trkpt lat="41.6119" lon="0.95538">
        <ele>366.8</ele>
        <time>2022-05-23 19:27:13</time>
      </trkpt>
      <trkpt lat="41.61186" lon="0.95535">
        <ele>367</ele>
        <time>2022-05-23 19:27:14</time>
      </trkpt>
      <trkpt lat="41.61182" lon="0.95532">
        <ele>367</ele>
        <time>2022-05-23 19:27:15</time>
      </trkpt>
      <trkpt lat="41.61178" lon="0.95529">
        <ele>367</ele>
        <time>2022-05-23 19:27:16</time>
      </trkpt>
      <trkpt lat="41.61173" lon="0.95526">
        <ele>367</ele>
        <time>2022-05-23 19:27:17</time>
      </trkpt>
      <trkpt lat="41.61169" lon="0.95523">
        <ele>367.2</ele>
        <time>2022-05-23 19:27:18</time>
      </trkpt>
      <trkpt lat="41.61165" lon="0.95521">
        <ele>367.2</ele>
        <time>2022-05-23 19:27:19</time>
      </trkpt>
      <trkpt lat="41.61161" lon="0.95519">
        <ele>367.2</ele>
        <time>2022-05-23 19:27:20</time>
      </trkpt>
      <trkpt lat="41.61156" lon="0.95516">
        <ele>367.4</ele>
        <time>2022-05-23 19:27:21</time>
      </trkpt>
      <trkpt lat="41.61152" lon="0.95513">
        <ele>367.4</ele>
        <time>2022-05-23 19:27:22</time>
      </trkpt>
      <trkpt lat="41.61148" lon="0.9551">
        <ele>367.6</ele>
        <time>2022-05-23 19:27:23</time>
      </trkpt>
      <trkpt lat="41.61143" lon="0.95508">
        <ele>367.6</ele>
        <time>2022-05-23 19:27:24</time>
      </trkpt>
      <trkpt lat="41.60977" lon="0.95428">
        <ele>367.4</ele>
        <time>2022-05-23 19:27:25</time>
      </trkpt>
      <trkpt lat="41.60972" lon="0.95426">
        <ele>367.4</ele>
        <time>2022-05-23 19:27:26</time>
      </trkpt>
      <trkpt lat="41.60968" lon="0.95423">
        <ele>367.4</ele>
        <time>2022-05-23 19:27:27</time>
      </trkpt>
      <trkpt lat="41.60963" lon="0.9542">
        <ele>367.6</ele>
        <time>2022-05-23 19:27:28</time>
      </trkpt>
      <trkpt lat="41.60958" lon="0.95417">
        <ele>367.6</ele>
        <time>2022-05-23 19:27:29</time>
      </trkpt>
      <trkpt lat="41.60953" lon="0.95414">
        <ele>367.6</ele>
        <time>2022-05-23 19:27:30</time>
      </trkpt>
      <trkpt lat="41.60948" lon="0.95412">
        <ele>367.8</ele>
        <time>2022-05-23 19:27:31</time>
      </trkpt>
      <trkpt lat="41.60944" lon="0.95409">
        <ele>367.8</ele>
        <time>2022-05-23 19:27:32</time>
      </trkpt>
      <trkpt lat="41.60938" lon="0.95407">
        <ele>367.8</ele>
        <time>2022-05-23 19:27:33</time>
      </trkpt>
      <trkpt lat="41.60933" lon="0.95404">
        <ele>367.8</ele>
        <time>2022-05-23 19:27:34</time>
      </trkpt>
      <trkpt lat="41.60928" lon="0.954">
        <ele>367.8</ele>
        <time>2022-05-23 19:27:35</time>
      </trkpt>
      <trkpt lat="41.60923" lon="0.95397">
        <ele>367.8</ele>
        <time>2022-05-23 19:27:36</time>
      </trkpt>
      <trkpt lat="41.60919" lon="0.95394">
        <ele>367.8</ele>
        <time>2022-05-23 19:27:37</time>
      </trkpt>
      <trkpt lat="41.60914" lon="0.95391">
        <ele>367.8</ele>
        <time>2022-05-23 19:27:38</time>
      </trkpt>
      <trkpt lat="41.60909" lon="0.95387">
        <ele>367.8</ele>
        <time>2022-05-23 19:27:39</time>
      </trkpt>
      <trkpt lat="41.60904" lon="0.95384">
        <ele>367.8</ele>
        <time>2022-05-23 19:27:40</time>
      </trkpt>
      <trkpt lat="41.609" lon="0.95381">
        <ele>367.8</ele>
        <time>2022-05-23 19:27:41</time>
      </trkpt>
      <trkpt lat="41.60896" lon="0.95378">
        <ele>367.8</ele>
        <time>2022-05-23 19:27:42</time>
      </trkpt>
      <trkpt lat="41.60891" lon="0.95375">
        <ele>367.8</ele>
        <time>2022-05-23 19:27:43</time>
      </trkpt>
      <trkpt lat="41.60886" lon="0.95372">
        <ele>367.8</ele>
        <time>2022-05-23 19:27:44</time>
      </trkpt>
      <trkpt lat="41.60882" lon="0.95369">
        <ele>368</ele>
        <time>2022-05-23 19:27:45</time>
      </trkpt>
      <trkpt lat="41.60877" lon="0.95366">
        <ele>368</ele>
        <time>2022-05-23 19:27:46</time>
      </trkpt>
      <trkpt lat="41.60873" lon="0.95363">
        <ele>367.8</ele>
        <time>2022-05-23 19:27:47</time>
      </trkpt>
      <trkpt lat="41.60868" lon="0.9536">
        <ele>367.8</ele>
        <time>2022-05-23 19:27:48</time>
      </trkpt>
      <trkpt lat="41.60864" lon="0.95356">
        <ele>367.8</ele>
        <time>2022-05-23 19:27:49</time>
      </trkpt>
      <trkpt lat="41.60859" lon="0.95353">
        <ele>367.6</ele>
        <time>2022-05-23 19:27:50</time>
      </trkpt>
      <trkpt lat="41.60854" lon="0.95349">
        <ele>367.6</ele>
        <time>2022-05-23 19:27:51</time>
      </trkpt>
      <trkpt lat="41.60849" lon="0.95345">
        <ele>367.6</ele>
        <time>2022-05-23 19:27:52</time>
      </trkpt>
      <trkpt lat="41.60844" lon="0.95342">
        <ele>367.6</ele>
        <time>2022-05-23 19:27:53</time>
      </trkpt>
      <trkpt lat="41.6084" lon="0.95338">
        <ele>367.6</ele>
        <time>2022-05-23 19:27:54</time>
      </trkpt>
      <trkpt lat="41.60835" lon="0.95336">
        <ele>367.6</ele>
        <time>2022-05-23 19:27:55</time>
      </trkpt>
      <trkpt lat="41.60831" lon="0.95333">
        <ele>367.6</ele>
        <time>2022-05-23 19:27:56</time>
      </trkpt>
      <trkpt lat="41.60826" lon="0.9533">
        <ele>367.6</ele>
        <time>2022-05-23 19:27:57</time>
      </trkpt>
      <trkpt lat="41.60822" lon="0.95326">
        <ele>367.6</ele>
        <time>2022-05-23 19:27:58</time>
      </trkpt>
      <trkpt lat="41.60817" lon="0.95322">
        <ele>367.6</ele>
        <time>2022-05-23 19:27:59</time>
      </trkpt>
      <trkpt lat="41.60813" lon="0.95319">
        <ele>367.6</ele>
        <time>2022-05-23 19:28:00</time>
      </trkpt>
      <trkpt lat="41.60808" lon="0.95315">
        <ele>367.6</ele>
        <time>2022-05-23 19:28:01</time>
      </trkpt>
      <trkpt lat="41.60803" lon="0.95312">
        <ele>367.6</ele>
        <time>2022-05-23 19:28:02</time>
      </trkpt>
      <trkpt lat="41.60783" lon="0.95283">
        <ele>367.6</ele>
        <time>2022-05-23 19:28:03</time>
      </trkpt>
      <trkpt lat="41.6078" lon="0.95281">
        <ele>367.6</ele>
        <time>2022-05-23 19:28:04</time>
      </trkpt>
      <trkpt lat="41.60776" lon="0.9528">
        <ele>367.6</ele>
        <time>2022-05-23 19:28:05</time>
      </trkpt>
      <trkpt lat="41.60773" lon="0.95278">
        <ele>367.6</ele>
        <time>2022-05-23 19:28:06</time>
      </trkpt>
      <trkpt lat="41.60769" lon="0.95276">
        <ele>367.6</ele>
        <time>2022-05-23 19:28:07</time>
      </trkpt>
      <trkpt lat="41.60766" lon="0.95275">
        <ele>367.6</ele>
        <time>2022-05-23 19:28:08</time>
      </trkpt>
      <trkpt lat="41.60763" lon="0.95273">
        <ele>367.6</ele>
        <time>2022-05-23 19:28:09</time>
      </trkpt>
      <trkpt lat="41.60759" lon="0.95271">
        <ele>367.6</ele>
        <time>2022-05-23 19:28:10</time>
      </trkpt>
      <trkpt lat="41.60756" lon="0.9527">
        <ele>367.6</ele>
        <time>2022-05-23 19:28:11</time>
      </trkpt>
      <trkpt lat="41.60752" lon="0.95268">
        <ele>367.8</ele>
        <time>2022-05-23 19:28:12</time>
      </trkpt>
      <trkpt lat="41.60749" lon="0.95266">
        <ele>367.8</ele>
        <time>2022-05-23 19:28:13</time>
      </trkpt>
      <trkpt lat="41.60745" lon="0.95265">
        <ele>367.8</ele>
        <time>2022-05-23 19:28:14</time>
      </trkpt>
      <trkpt lat="41.60742" lon="0.95263">
        <ele>367.8</ele>
        <time>2022-05-23 19:28:15</time>
      </trkpt>
      <trkpt lat="41.60738" lon="0.95262">
        <ele>367.8</ele>
        <time>2022-05-23 19:28:16</time>
      </trkpt>
      <trkpt lat="41.60735" lon="0.9526">
        <ele>367.8</ele>
        <time>2022-05-23 19:28:17</time>
      </trkpt>
      <trkpt lat="41.60731" lon="0.95258">
        <ele>367.8</ele>
        <time>2022-05-23 19:28:18</time>
      </trkpt>
      <trkpt lat="41.60728" lon="0.95256">
        <ele>367.8</ele>
        <time>2022-05-23 19:28:19</time>
      </trkpt>
      <trkpt lat="41.60719" lon="0.9525">
        <ele>367.8</ele>
        <time>2022-05-23 19:28:20</time>
      </trkpt>
      <trkpt lat="41.60714" lon="0.95246">
        <ele>367.8</ele>
        <time>2022-05-23 19:28:21</time>
      </trkpt>
      <trkpt lat="41.60709" lon="0.95242">
        <ele>367.8</ele>
        <time>2022-05-23 19:28:22</time>
      </trkpt>
      <trkpt lat="41.60704" lon="0.95238">
        <ele>367.8</ele>
        <time>2022-05-23 19:28:23</time>
      </trkpt>
      <trkpt lat="41.60699" lon="0.95235">
        <ele>367.8</ele>
        <time>2022-05-23 19:28:24</time>
      </trkpt>
      <trkpt lat="41.60694" lon="0.95231">
        <ele>367.8</ele>
        <time>2022-05-23 19:28:25</time>
      </trkpt>
      <trkpt lat="41.60689" lon="0.95227">
        <ele>367.8</ele>
        <time>2022-05-23 19:28:26</time>
      </trkpt>
      <trkpt lat="41.60684" lon="0.95224">
        <ele>367.6</ele>
        <time>2022-05-23 19:28:27</time>
      </trkpt>
      <trkpt lat="41.60679" lon="0.9522">
        <ele>367.6</ele>
        <time>2022-05-23 19:28:28</time>
      </trkpt>
      <trkpt lat="41.60674" lon="0.95216">
        <ele>367.6</ele>
        <time>2022-05-23 19:28:29</time>
      </trkpt>
      <trkpt lat="41.60669" lon="0.95212">
        <ele>367.8</ele>
        <time>2022-05-23 19:28:30</time>
      </trkpt>
      <trkpt lat="41.60664" lon="0.95208">
        <ele>367.8</ele>
        <time>2022-05-23 19:28:31</time>
      </trkpt>
      <trkpt lat="41.60659" lon="0.95205">
        <ele>367.8</ele>
        <time>2022-05-23 19:28:32</time>
      </trkpt>
      <trkpt lat="41.60654" lon="0.95201">
        <ele>367.8</ele>
        <time>2022-05-23 19:28:33</time>
      </trkpt>
      <trkpt lat="41.60649" lon="0.95197">
        <ele>368</ele>
        <time>2022-05-23 19:28:34</time>
      </trkpt>
      <trkpt lat="41.60645" lon="0.95193">
        <ele>368</ele>
        <time>2022-05-23 19:28:35</time>
      </trkpt>
      <trkpt lat="41.60639" lon="0.95189">
        <ele>368</ele>
        <time>2022-05-23 19:28:36</time>
      </trkpt>
      <trkpt lat="41.60634" lon="0.95185">
        <ele>368</ele>
        <time>2022-05-23 19:28:37</time>
      </trkpt>
      <trkpt lat="41.60629" lon="0.95181">
        <ele>368</ele>
        <time>2022-05-23 19:28:38</time>
      </trkpt>
      <trkpt lat="41.60625" lon="0.95178">
        <ele>368</ele>
        <time>2022-05-23 19:28:39</time>
      </trkpt>
      <trkpt lat="41.60619" lon="0.95174">
        <ele>368</ele>
        <time>2022-05-23 19:28:40</time>
      </trkpt>
      <trkpt lat="41.60615" lon="0.9517">
        <ele>368</ele>
        <time>2022-05-23 19:28:41</time>
      </trkpt>
      <trkpt lat="41.60609" lon="0.95166">
        <ele>368</ele>
        <time>2022-05-23 19:28:42</time>
      </trkpt>
      <trkpt lat="41.60605" lon="0.95163">
        <ele>368</ele>
        <time>2022-05-23 19:28:43</time>
      </trkpt>
      <trkpt lat="41.60599" lon="0.95159">
        <ele>368</ele>
        <time>2022-05-23 19:28:44</time>
      </trkpt>
      <trkpt lat="41.60594" lon="0.95155">
        <ele>368</ele>
        <time>2022-05-23 19:28:45</time>
      </trkpt>
      <trkpt lat="41.60589" lon="0.95151">
        <ele>368</ele>
        <time>2022-05-23 19:28:46</time>
      </trkpt>
      <trkpt lat="41.60584" lon="0.95147">
        <ele>368</ele>
        <time>2022-05-23 19:28:47</time>
      </trkpt>
      <trkpt lat="41.60579" lon="0.95143">
        <ele>368</ele>
        <time>2022-05-23 19:28:48</time>
      </trkpt>
      <trkpt lat="41.60574" lon="0.95139">
        <ele>368</ele>
        <time>2022-05-23 19:28:49</time>
      </trkpt>
      <trkpt lat="41.6057" lon="0.95135">
        <ele>368</ele>
        <time>2022-05-23 19:28:50</time>
      </trkpt>
      <trkpt lat="41.60565" lon="0.95132">
        <ele>368</ele>
        <time>2022-05-23 19:28:51</time>
      </trkpt>
      <trkpt lat="41.6056" lon="0.95128">
        <ele>368</ele>
        <time>2022-05-23 19:28:52</time>
      </trkpt>
      <trkpt lat="41.60555" lon="0.95124">
        <ele>368</ele>
        <time>2022-05-23 19:28:53</time>
      </trkpt>
      <trkpt lat="41.6055" lon="0.9512">
        <ele>368</ele>
        <time>2022-05-23 19:28:54</time>
      </trkpt>
      <trkpt lat="41.60545" lon="0.95117">
        <ele>368.2</ele>
        <time>2022-05-23 19:28:55</time>
      </trkpt>
      <trkpt lat="41.60541" lon="0.95113">
        <ele>368.2</ele>
        <time>2022-05-23 19:28:56</time>
      </trkpt>
      <trkpt lat="41.60536" lon="0.9511">
        <ele>368.2</ele>
        <time>2022-05-23 19:28:57</time>
      </trkpt>
      <trkpt lat="41.60531" lon="0.95106">
        <ele>368.2</ele>
        <time>2022-05-23 19:28:58</time>
      </trkpt>
      <trkpt lat="41.60526" lon="0.95103">
        <ele>368.2</ele>
        <time>2022-05-23 19:28:59</time>
      </trkpt>
      <trkpt lat="41.60521" lon="0.95099">
        <ele>368.2</ele>
        <time>2022-05-23 19:29:00</time>
      </trkpt>
      <trkpt lat="41.60517" lon="0.95096">
        <ele>368.2</ele>
        <time>2022-05-23 19:29:01</time>
      </trkpt>
      <trkpt lat="41.60512" lon="0.95092">
        <ele>368.2</ele>
        <time>2022-05-23 19:29:02</time>
      </trkpt>
      <trkpt lat="41.60507" lon="0.95088">
        <ele>368.2</ele>
        <time>2022-05-23 19:29:03</time>
      </trkpt>
      <trkpt lat="41.60502" lon="0.95084">
        <ele>368.2</ele>
        <time>2022-05-23 19:29:04</time>
      </trkpt>
      <trkpt lat="41.60497" lon="0.95081">
        <ele>368</ele>
        <time>2022-05-23 19:29:05</time>
      </trkpt>
      <trkpt lat="41.60492" lon="0.95077">
        <ele>368.2</ele>
        <time>2022-05-23 19:29:06</time>
      </trkpt>
      <trkpt lat="41.60488" lon="0.95074">
        <ele>368.2</ele>
        <time>2022-05-23 19:29:07</time>
      </trkpt>
      <trkpt lat="41.60483" lon="0.9507">
        <ele>368.2</ele>
        <time>2022-05-23 19:29:08</time>
      </trkpt>
      <trkpt lat="41.60478" lon="0.95067">
        <ele>368.2</ele>
        <time>2022-05-23 19:29:09</time>
      </trkpt>
      <trkpt lat="41.60473" lon="0.95063">
        <ele>368.2</ele>
        <time>2022-05-23 19:29:10</time>
      </trkpt>
      <trkpt lat="41.60469" lon="0.9506">
        <ele>368.2</ele>
        <time>2022-05-23 19:29:11</time>
      </trkpt>
      <trkpt lat="41.60464" lon="0.95056">
        <ele>368</ele>
        <time>2022-05-23 19:29:12</time>
      </trkpt>
      <trkpt lat="41.60459" lon="0.95053">
        <ele>368</ele>
        <time>2022-05-23 19:29:13</time>
      </trkpt>
      <trkpt lat="41.60454" lon="0.95049">
        <ele>368</ele>
        <time>2022-05-23 19:29:14</time>
      </trkpt>
      <trkpt lat="41.6045" lon="0.95045">
        <ele>368</ele>
        <time>2022-05-23 19:29:15</time>
      </trkpt>
      <trkpt lat="41.60445" lon="0.95042">
        <ele>368</ele>
        <time>2022-05-23 19:29:16</time>
      </trkpt>
      <trkpt lat="41.60441" lon="0.95039">
        <ele>368.2</ele>
        <time>2022-05-23 19:29:17</time>
      </trkpt>
      <trkpt lat="41.60436" lon="0.95034">
        <ele>368.4</ele>
        <time>2022-05-23 19:29:18</time>
      </trkpt>
      <trkpt lat="41.60432" lon="0.95031">
        <ele>368.6</ele>
        <time>2022-05-23 19:29:19</time>
      </trkpt>
      <trkpt lat="41.60426" lon="0.95027">
        <ele>368.6</ele>
        <time>2022-05-23 19:29:20</time>
      </trkpt>
      <trkpt lat="41.60421" lon="0.95023">
        <ele>368.8</ele>
        <time>2022-05-23 19:29:21</time>
      </trkpt>
      <trkpt lat="41.60416" lon="0.9502">
        <ele>368.8</ele>
        <time>2022-05-23 19:29:22</time>
      </trkpt>
      <trkpt lat="41.60411" lon="0.95016">
        <ele>368.8</ele>
        <time>2022-05-23 19:29:23</time>
      </trkpt>
      <trkpt lat="41.60406" lon="0.95012">
        <ele>368.8</ele>
        <time>2022-05-23 19:29:24</time>
      </trkpt>
      <trkpt lat="41.60402" lon="0.95009">
        <ele>368.8</ele>
        <time>2022-05-23 19:29:25</time>
      </trkpt>
      <trkpt lat="41.60397" lon="0.95005">
        <ele>368.8</ele>
        <time>2022-05-23 19:29:26</time>
      </trkpt>
      <trkpt lat="41.60393" lon="0.95002">
        <ele>368.8</ele>
        <time>2022-05-23 19:29:27</time>
      </trkpt>
      <trkpt lat="41.60387" lon="0.94998">
        <ele>368.8</ele>
        <time>2022-05-23 19:29:28</time>
      </trkpt>
      <trkpt lat="41.60383" lon="0.94994">
        <ele>368.8</ele>
        <time>2022-05-23 19:29:29</time>
      </trkpt>
      <trkpt lat="41.60378" lon="0.94991">
        <ele>368.8</ele>
        <time>2022-05-23 19:29:30</time>
      </trkpt>
      <trkpt lat="41.60373" lon="0.94987">
        <ele>368.8</ele>
        <time>2022-05-23 19:29:31</time>
      </trkpt>
      <trkpt lat="41.60368" lon="0.94983">
        <ele>368.8</ele>
        <time>2022-05-23 19:29:32</time>
      </trkpt>
      <trkpt lat="41.60364" lon="0.94979">
        <ele>369</ele>
        <time>2022-05-23 19:29:33</time>
      </trkpt>
      <trkpt lat="41.60359" lon="0.94976">
        <ele>369</ele>
        <time>2022-05-23 19:29:34</time>
      </trkpt>
      <trkpt lat="41.60355" lon="0.94972">
        <ele>369.4</ele>
        <time>2022-05-23 19:29:35</time>
      </trkpt>
      <trkpt lat="41.6035" lon="0.94969">
        <ele>369.6</ele>
        <time>2022-05-23 19:29:36</time>
      </trkpt>
      <trkpt lat="41.60346" lon="0.94965">
        <ele>369.8</ele>
        <time>2022-05-23 19:29:37</time>
      </trkpt>
      <trkpt lat="41.60341" lon="0.94962">
        <ele>369.6</ele>
        <time>2022-05-23 19:29:38</time>
      </trkpt>
      <trkpt lat="41.60337" lon="0.94958">
        <ele>369.4</ele>
        <time>2022-05-23 19:29:39</time>
      </trkpt>
      <trkpt lat="41.60331" lon="0.94954">
        <ele>369.4</ele>
        <time>2022-05-23 19:29:40</time>
      </trkpt>
      <trkpt lat="41.60327" lon="0.94951">
        <ele>369.2</ele>
        <time>2022-05-23 19:29:41</time>
      </trkpt>
      <trkpt lat="41.60322" lon="0.94947">
        <ele>369.2</ele>
        <time>2022-05-23 19:29:42</time>
      </trkpt>
      <trkpt lat="41.60318" lon="0.94944">
        <ele>369.2</ele>
        <time>2022-05-23 19:29:43</time>
      </trkpt>
      <trkpt lat="41.60312" lon="0.94939">
        <ele>369.2</ele>
        <time>2022-05-23 19:29:44</time>
      </trkpt>
      <trkpt lat="41.60307" lon="0.94935">
        <ele>369.2</ele>
        <time>2022-05-23 19:29:45</time>
      </trkpt>
      <trkpt lat="41.60302" lon="0.94931">
        <ele>369.4</ele>
        <time>2022-05-23 19:29:46</time>
      </trkpt>
      <trkpt lat="41.60298" lon="0.94928">
        <ele>369.4</ele>
        <time>2022-05-23 19:29:47</time>
      </trkpt>
      <trkpt lat="41.60293" lon="0.94924">
        <ele>369.4</ele>
        <time>2022-05-23 19:29:48</time>
      </trkpt>
      <trkpt lat="41.60289" lon="0.94921">
        <ele>369.6</ele>
        <time>2022-05-23 19:29:49</time>
      </trkpt>
      <trkpt lat="41.60284" lon="0.94917">
        <ele>369.8</ele>
        <time>2022-05-23 19:29:50</time>
      </trkpt>
      <trkpt lat="41.60279" lon="0.94914">
        <ele>369.8</ele>
        <time>2022-05-23 19:29:51</time>
      </trkpt>
      <trkpt lat="41.60274" lon="0.94909">
        <ele>369.8</ele>
        <time>2022-05-23 19:29:52</time>
      </trkpt>
      <trkpt lat="41.60269" lon="0.94906">
        <ele>370</ele>
        <time>2022-05-23 19:29:53</time>
      </trkpt>
      <trkpt lat="41.60265" lon="0.94903">
        <ele>370</ele>
        <time>2022-05-23 19:29:54</time>
      </trkpt>
      <trkpt lat="41.6026" lon="0.94899">
        <ele>370.2</ele>
        <time>2022-05-23 19:29:55</time>
      </trkpt>
      <trkpt lat="41.60256" lon="0.94896">
        <ele>370.2</ele>
        <time>2022-05-23 19:29:56</time>
      </trkpt>
      <trkpt lat="41.60251" lon="0.94893">
        <ele>370.4</ele>
        <time>2022-05-23 19:29:57</time>
      </trkpt>
      <trkpt lat="41.60247" lon="0.9489">
        <ele>370.4</ele>
        <time>2022-05-23 19:29:58</time>
      </trkpt>
      <trkpt lat="41.60243" lon="0.94887">
        <ele>370.4</ele>
        <time>2022-05-23 19:29:59</time>
      </trkpt>
      <trkpt lat="41.60238" lon="0.94883">
        <ele>370.6</ele>
        <time>2022-05-23 19:30:00</time>
      </trkpt>
      <trkpt lat="41.60234" lon="0.9488">
        <ele>370.6</ele>
        <time>2022-05-23 19:30:01</time>
      </trkpt>
      <trkpt lat="41.60229" lon="0.94876">
        <ele>370.8</ele>
        <time>2022-05-23 19:30:02</time>
      </trkpt>
      <trkpt lat="41.60226" lon="0.94873">
        <ele>370.8</ele>
        <time>2022-05-23 19:30:03</time>
      </trkpt>
      <trkpt lat="41.60221" lon="0.94869">
        <ele>370.8</ele>
        <time>2022-05-23 19:30:04</time>
      </trkpt>
      <trkpt lat="41.60217" lon="0.94867">
        <ele>370.8</ele>
        <time>2022-05-23 19:30:05</time>
      </trkpt>
      <trkpt lat="41.60212" lon="0.94863">
        <ele>371</ele>
        <time>2022-05-23 19:30:06</time>
      </trkpt>
      <trkpt lat="41.60209" lon="0.94861">
        <ele>371.2</ele>
        <time>2022-05-23 19:30:07</time>
      </trkpt>
      <trkpt lat="41.60204" lon="0.94857">
        <ele>371.2</ele>
        <time>2022-05-23 19:30:08</time>
      </trkpt>
      <trkpt lat="41.602" lon="0.94854">
        <ele>371.4</ele>
        <time>2022-05-23 19:30:09</time>
      </trkpt>
      <trkpt lat="41.60195" lon="0.94851">
        <ele>371.6</ele>
        <time>2022-05-23 19:30:10</time>
      </trkpt>
      <trkpt lat="41.60191" lon="0.94848">
        <ele>371.8</ele>
        <time>2022-05-23 19:30:11</time>
      </trkpt>
      <trkpt lat="41.60186" lon="0.94844">
        <ele>371.8</ele>
        <time>2022-05-23 19:30:12</time>
      </trkpt>
      <trkpt lat="41.60182" lon="0.94842">
        <ele>372</ele>
        <time>2022-05-23 19:30:13</time>
      </trkpt>
      <trkpt lat="41.60177" lon="0.94838">
        <ele>372</ele>
        <time>2022-05-23 19:30:14</time>
      </trkpt>
      <trkpt lat="41.60173" lon="0.94836">
        <ele>372.2</ele>
        <time>2022-05-23 19:30:15</time>
      </trkpt>
      <trkpt lat="41.60168" lon="0.94832">
        <ele>372.2</ele>
        <time>2022-05-23 19:30:16</time>
      </trkpt>
      <trkpt lat="41.60163" lon="0.9483">
        <ele>372.2</ele>
        <time>2022-05-23 19:30:17</time>
      </trkpt>
      <trkpt lat="41.60158" lon="0.94827">
        <ele>372.2</ele>
        <time>2022-05-23 19:30:18</time>
      </trkpt>
      <trkpt lat="41.60154" lon="0.94824">
        <ele>372.2</ele>
        <time>2022-05-23 19:30:19</time>
      </trkpt>
      <trkpt lat="41.60148" lon="0.94821">
        <ele>372.2</ele>
        <time>2022-05-23 19:30:20</time>
      </trkpt>
      <trkpt lat="41.60143" lon="0.94818">
        <ele>372.2</ele>
        <time>2022-05-23 19:30:21</time>
      </trkpt>
      <trkpt lat="41.60137" lon="0.94815">
        <ele>372.2</ele>
        <time>2022-05-23 19:30:22</time>
      </trkpt>
      <trkpt lat="41.60133" lon="0.94812">
        <ele>372.4</ele>
        <time>2022-05-23 19:30:23</time>
      </trkpt>
      <trkpt lat="41.60127" lon="0.94809">
        <ele>372.4</ele>
        <time>2022-05-23 19:30:24</time>
      </trkpt>
      <trkpt lat="41.60122" lon="0.94807">
        <ele>372.4</ele>
        <time>2022-05-23 19:30:25</time>
      </trkpt>
      <trkpt lat="41.60117" lon="0.94804">
        <ele>372.2</ele>
        <time>2022-05-23 19:30:26</time>
      </trkpt>
      <trkpt lat="41.60113" lon="0.94802">
        <ele>372.2</ele>
        <time>2022-05-23 19:30:27</time>
      </trkpt>
      <trkpt lat="41.60106" lon="0.94799">
        <ele>372.2</ele>
        <time>2022-05-23 19:30:28</time>
      </trkpt>
      <trkpt lat="41.60102" lon="0.94797">
        <ele>372.2</ele>
        <time>2022-05-23 19:30:29</time>
      </trkpt>
      <trkpt lat="41.60095" lon="0.94794">
        <ele>372</ele>
        <time>2022-05-23 19:30:30</time>
      </trkpt>
      <trkpt lat="41.60091" lon="0.94791">
        <ele>371.8</ele>
        <time>2022-05-23 19:30:31</time>
      </trkpt>
      <trkpt lat="41.60084" lon="0.94788">
        <ele>371.8</ele>
        <time>2022-05-23 19:30:32</time>
      </trkpt>
      <trkpt lat="41.6008" lon="0.94785">
        <ele>371.6</ele>
        <time>2022-05-23 19:30:33</time>
      </trkpt>
      <trkpt lat="41.60073" lon="0.94782">
        <ele>371.6</ele>
        <time>2022-05-23 19:30:34</time>
      </trkpt>
      <trkpt lat="41.60069" lon="0.94779">
        <ele>371.6</ele>
        <time>2022-05-23 19:30:35</time>
      </trkpt>
      <trkpt lat="41.60062" lon="0.94775">
        <ele>371.4</ele>
        <time>2022-05-23 19:30:36</time>
      </trkpt>
      <trkpt lat="41.60057" lon="0.94772">
        <ele>371.2</ele>
        <time>2022-05-23 19:30:37</time>
      </trkpt>
      <trkpt lat="41.6005" lon="0.94767">
        <ele>371.2</ele>
        <time>2022-05-23 19:30:38</time>
      </trkpt>
      <trkpt lat="41.60046" lon="0.94764">
        <ele>371</ele>
        <time>2022-05-23 19:30:39</time>
      </trkpt>
      <trkpt lat="41.60039" lon="0.94758">
        <ele>370.8</ele>
        <time>2022-05-23 19:30:40</time>
      </trkpt>
      <trkpt lat="41.60034" lon="0.94755">
        <ele>370.6</ele>
        <time>2022-05-23 19:30:41</time>
      </trkpt>
      <trkpt lat="41.60028" lon="0.94749">
        <ele>370.6</ele>
        <time>2022-05-23 19:30:42</time>
      </trkpt>
      <trkpt lat="41.60024" lon="0.94745">
        <ele>370.4</ele>
        <time>2022-05-23 19:30:43</time>
      </trkpt>
      <trkpt lat="41.60017" lon="0.9474">
        <ele>370.4</ele>
        <time>2022-05-23 19:30:44</time>
      </trkpt>
      <trkpt lat="41.60012" lon="0.94735">
        <ele>370.4</ele>
        <time>2022-05-23 19:30:45</time>
      </trkpt>
      <trkpt lat="41.60006" lon="0.9473">
        <ele>370.2</ele>
        <time>2022-05-23 19:30:46</time>
      </trkpt>
      <trkpt lat="41.60001" lon="0.94724">
        <ele>370</ele>
        <time>2022-05-23 19:30:47</time>
      </trkpt>
      <trkpt lat="41.59995" lon="0.94719">
        <ele>369.8</ele>
        <time>2022-05-23 19:30:48</time>
      </trkpt>
      <trkpt lat="41.5999" lon="0.94714">
        <ele>369.8</ele>
        <time>2022-05-23 19:30:49</time>
      </trkpt>
      <trkpt lat="41.59985" lon="0.94709">
        <ele>369.6</ele>
        <time>2022-05-23 19:30:50</time>
      </trkpt>
      <trkpt lat="41.5998" lon="0.94703">
        <ele>369.6</ele>
        <time>2022-05-23 19:30:51</time>
      </trkpt>
      <trkpt lat="41.59974" lon="0.94698">
        <ele>369.6</ele>
        <time>2022-05-23 19:30:52</time>
      </trkpt>
      <trkpt lat="41.59968" lon="0.94692">
        <ele>369.6</ele>
        <time>2022-05-23 19:30:53</time>
      </trkpt>
      <trkpt lat="41.59963" lon="0.94686">
        <ele>369.4</ele>
        <time>2022-05-23 19:30:54</time>
      </trkpt>
      <trkpt lat="41.59957" lon="0.94681">
        <ele>369.4</ele>
        <time>2022-05-23 19:30:55</time>
      </trkpt>
      <trkpt lat="41.59951" lon="0.94676">
        <ele>369.4</ele>
        <time>2022-05-23 19:30:56</time>
      </trkpt>
      <trkpt lat="41.59945" lon="0.9467">
        <ele>369.4</ele>
        <time>2022-05-23 19:30:57</time>
      </trkpt>
      <trkpt lat="41.59939" lon="0.94664">
        <ele>369.2</ele>
        <time>2022-05-23 19:30:58</time>
      </trkpt>
      <trkpt lat="41.59934" lon="0.94658">
        <ele>369.2</ele>
        <time>2022-05-23 19:30:59</time>
      </trkpt>
      <trkpt lat="41.59928" lon="0.94652">
        <ele>369.2</ele>
        <time>2022-05-23 19:31:00</time>
      </trkpt>
      <trkpt lat="41.59922" lon="0.94647">
        <ele>369</ele>
        <time>2022-05-23 19:31:01</time>
      </trkpt>
      <trkpt lat="41.59917" lon="0.94641">
        <ele>369</ele>
        <time>2022-05-23 19:31:02</time>
      </trkpt>
      <trkpt lat="41.59911" lon="0.94636">
        <ele>369</ele>
        <time>2022-05-23 19:31:03</time>
      </trkpt>
      <trkpt lat="41.59906" lon="0.9463">
        <ele>368.8</ele>
        <time>2022-05-23 19:31:04</time>
      </trkpt>
      <trkpt lat="41.599" lon="0.94624">
        <ele>368.8</ele>
        <time>2022-05-23 19:31:05</time>
      </trkpt>
      <trkpt lat="41.59895" lon="0.94619">
        <ele>368.8</ele>
        <time>2022-05-23 19:31:06</time>
      </trkpt>
      <trkpt lat="41.59889" lon="0.94613">
        <ele>368.6</ele>
        <time>2022-05-23 19:31:07</time>
      </trkpt>
      <trkpt lat="41.59884" lon="0.94608">
        <ele>368.6</ele>
        <time>2022-05-23 19:31:08</time>
      </trkpt>
      <trkpt lat="41.59878" lon="0.94603">
        <ele>368.6</ele>
        <time>2022-05-23 19:31:09</time>
      </trkpt>
      <trkpt lat="41.59872" lon="0.94597">
        <ele>368.8</ele>
        <time>2022-05-23 19:31:10</time>
      </trkpt>
      <trkpt lat="41.59867" lon="0.94592">
        <ele>368.8</ele>
        <time>2022-05-23 19:31:11</time>
      </trkpt>
      <trkpt lat="41.59861" lon="0.94586">
        <ele>368.8</ele>
        <time>2022-05-23 19:31:12</time>
      </trkpt>
      <trkpt lat="41.59856" lon="0.94581">
        <ele>368.8</ele>
        <time>2022-05-23 19:31:13</time>
      </trkpt>
      <trkpt lat="41.5985" lon="0.94576">
        <ele>368.8</ele>
        <time>2022-05-23 19:31:14</time>
      </trkpt>
      <trkpt lat="41.59845" lon="0.9457">
        <ele>368.8</ele>
        <time>2022-05-23 19:31:15</time>
      </trkpt>
      <trkpt lat="41.5984" lon="0.94565">
        <ele>368.8</ele>
        <time>2022-05-23 19:31:16</time>
      </trkpt>
      <trkpt lat="41.59834" lon="0.9456">
        <ele>368.8</ele>
        <time>2022-05-23 19:31:17</time>
      </trkpt>
      <trkpt lat="41.59829" lon="0.94554">
        <ele>368.8</ele>
        <time>2022-05-23 19:31:18</time>
      </trkpt>
      <trkpt lat="41.59823" lon="0.94549">
        <ele>368.8</ele>
        <time>2022-05-23 19:31:19</time>
      </trkpt>
      <trkpt lat="41.59818" lon="0.94544">
        <ele>369</ele>
        <time>2022-05-23 19:31:20</time>
      </trkpt>
      <trkpt lat="41.59812" lon="0.94539">
        <ele>368.8</ele>
        <time>2022-05-23 19:31:21</time>
      </trkpt>
      <trkpt lat="41.59807" lon="0.94534">
        <ele>369</ele>
        <time>2022-05-23 19:31:22</time>
      </trkpt>
      <trkpt lat="41.59802" lon="0.94528">
        <ele>369</ele>
        <time>2022-05-23 19:31:23</time>
      </trkpt>
      <trkpt lat="41.59796" lon="0.94524">
        <ele>369.2</ele>
        <time>2022-05-23 19:31:24</time>
      </trkpt>
      <trkpt lat="41.59791" lon="0.94519">
        <ele>369.4</ele>
        <time>2022-05-23 19:31:25</time>
      </trkpt>
      <trkpt lat="41.59786" lon="0.94514">
        <ele>369.4</ele>
        <time>2022-05-23 19:31:26</time>
      </trkpt>
      <trkpt lat="41.5978" lon="0.94509">
        <ele>369.4</ele>
        <time>2022-05-23 19:31:27</time>
      </trkpt>
      <trkpt lat="41.59775" lon="0.94504">
        <ele>369.2</ele>
        <time>2022-05-23 19:31:28</time>
      </trkpt>
      <trkpt lat="41.5977" lon="0.94499">
        <ele>369.2</ele>
        <time>2022-05-23 19:31:29</time>
      </trkpt>
      <trkpt lat="41.59764" lon="0.94494">
        <ele>369.2</ele>
        <time>2022-05-23 19:31:30</time>
      </trkpt>
      <trkpt lat="41.59759" lon="0.94489">
        <ele>369.2</ele>
        <time>2022-05-23 19:31:31</time>
      </trkpt>
      <trkpt lat="41.59754" lon="0.94484">
        <ele>369.2</ele>
        <time>2022-05-23 19:31:32</time>
      </trkpt>
      <trkpt lat="41.59748" lon="0.94479">
        <ele>369.2</ele>
        <time>2022-05-23 19:31:33</time>
      </trkpt>
      <trkpt lat="41.59743" lon="0.94474">
        <ele>369</ele>
        <time>2022-05-23 19:31:34</time>
      </trkpt>
      <trkpt lat="41.59737" lon="0.94469">
        <ele>369</ele>
        <time>2022-05-23 19:31:35</time>
      </trkpt>
      <trkpt lat="41.59731" lon="0.94465">
        <ele>369</ele>
        <time>2022-05-23 19:31:36</time>
      </trkpt>
      <trkpt lat="41.59726" lon="0.9446">
        <ele>369</ele>
        <time>2022-05-23 19:31:37</time>
      </trkpt>
      <trkpt lat="41.5972" lon="0.94455">
        <ele>369</ele>
        <time>2022-05-23 19:31:38</time>
      </trkpt>
      <trkpt lat="41.59714" lon="0.94451">
        <ele>369</ele>
        <time>2022-05-23 19:31:39</time>
      </trkpt>
      <trkpt lat="41.59709" lon="0.94446">
        <ele>369.2</ele>
        <time>2022-05-23 19:31:40</time>
      </trkpt>
      <trkpt lat="41.59704" lon="0.94441">
        <ele>369.2</ele>
        <time>2022-05-23 19:31:41</time>
      </trkpt>
      <trkpt lat="41.59698" lon="0.94437">
        <ele>369.4</ele>
        <time>2022-05-23 19:31:42</time>
      </trkpt>
      <trkpt lat="41.59693" lon="0.94433">
        <ele>369.4</ele>
        <time>2022-05-23 19:31:43</time>
      </trkpt>
      <trkpt lat="41.59688" lon="0.94428">
        <ele>369.4</ele>
        <time>2022-05-23 19:31:44</time>
      </trkpt>
      <trkpt lat="41.59682" lon="0.94424">
        <ele>369.6</ele>
        <time>2022-05-23 19:31:45</time>
      </trkpt>
      <trkpt lat="41.59677" lon="0.9442">
        <ele>369.6</ele>
        <time>2022-05-23 19:31:46</time>
      </trkpt>
      <trkpt lat="41.59672" lon="0.94416">
        <ele>369.6</ele>
        <time>2022-05-23 19:31:47</time>
      </trkpt>
      <trkpt lat="41.59667" lon="0.94412">
        <ele>369.8</ele>
        <time>2022-05-23 19:31:48</time>
      </trkpt>
      <trkpt lat="41.59662" lon="0.94408">
        <ele>369.8</ele>
        <time>2022-05-23 19:31:49</time>
      </trkpt>
      <trkpt lat="41.59657" lon="0.94404">
        <ele>369.8</ele>
        <time>2022-05-23 19:31:50</time>
      </trkpt>
      <trkpt lat="41.59651" lon="0.944">
        <ele>370</ele>
        <time>2022-05-23 19:31:51</time>
      </trkpt>
      <trkpt lat="41.59646" lon="0.94396">
        <ele>370</ele>
        <time>2022-05-23 19:31:52</time>
      </trkpt>
      <trkpt lat="41.59642" lon="0.94392">
        <ele>370.2</ele>
        <time>2022-05-23 19:31:53</time>
      </trkpt>
      <trkpt lat="41.59636" lon="0.94388">
        <ele>370.2</ele>
        <time>2022-05-23 19:31:54</time>
      </trkpt>
      <trkpt lat="41.59631" lon="0.94384">
        <ele>370.2</ele>
        <time>2022-05-23 19:31:55</time>
      </trkpt>
      <trkpt lat="41.59625" lon="0.9438">
        <ele>370.2</ele>
        <time>2022-05-23 19:31:56</time>
      </trkpt>
      <trkpt lat="41.5962" lon="0.94376">
        <ele>370</ele>
        <time>2022-05-23 19:31:57</time>
      </trkpt>
      <trkpt lat="41.59615" lon="0.94372">
        <ele>370</ele>
        <time>2022-05-23 19:31:58</time>
      </trkpt>
      <trkpt lat="41.5961" lon="0.94368">
        <ele>370</ele>
        <time>2022-05-23 19:31:59</time>
      </trkpt>
      <trkpt lat="41.59605" lon="0.94364">
        <ele>370</ele>
        <time>2022-05-23 19:32:00</time>
      </trkpt>
      <trkpt lat="41.596" lon="0.9436">
        <ele>370</ele>
        <time>2022-05-23 19:32:01</time>
      </trkpt>
      <trkpt lat="41.59595" lon="0.94356">
        <ele>370</ele>
        <time>2022-05-23 19:32:02</time>
      </trkpt>
      <trkpt lat="41.5959" lon="0.94352">
        <ele>369.8</ele>
        <time>2022-05-23 19:32:03</time>
      </trkpt>
      <trkpt lat="41.59584" lon="0.94348">
        <ele>369.8</ele>
        <time>2022-05-23 19:32:04</time>
      </trkpt>
      <trkpt lat="41.59579" lon="0.94344">
        <ele>369.8</ele>
        <time>2022-05-23 19:32:05</time>
      </trkpt>
      <trkpt lat="41.59574" lon="0.9434">
        <ele>369.8</ele>
        <time>2022-05-23 19:32:06</time>
      </trkpt>
      <trkpt lat="41.59569" lon="0.94336">
        <ele>369.8</ele>
        <time>2022-05-23 19:32:07</time>
      </trkpt>
      <trkpt lat="41.59564" lon="0.94332">
        <ele>369.8</ele>
        <time>2022-05-23 19:32:08</time>
      </trkpt>
      <trkpt lat="41.59559" lon="0.94328">
        <ele>369.8</ele>
        <time>2022-05-23 19:32:09</time>
      </trkpt>
      <trkpt lat="41.59554" lon="0.94324">
        <ele>369.8</ele>
        <time>2022-05-23 19:32:10</time>
      </trkpt>
      <trkpt lat="41.59549" lon="0.9432">
        <ele>369.8</ele>
        <time>2022-05-23 19:32:11</time>
      </trkpt>
      <trkpt lat="41.59544" lon="0.94316">
        <ele>370</ele>
        <time>2022-05-23 19:32:12</time>
      </trkpt>
      <trkpt lat="41.59539" lon="0.94312">
        <ele>370</ele>
        <time>2022-05-23 19:32:13</time>
      </trkpt>
      <trkpt lat="41.59534" lon="0.94308">
        <ele>370</ele>
        <time>2022-05-23 19:32:14</time>
      </trkpt>
      <trkpt lat="41.59528" lon="0.94304">
        <ele>370</ele>
        <time>2022-05-23 19:32:15</time>
      </trkpt>
      <trkpt lat="41.59523" lon="0.94301">
        <ele>370</ele>
        <time>2022-05-23 19:32:16</time>
      </trkpt>
      <trkpt lat="41.59518" lon="0.94297">
        <ele>370</ele>
        <time>2022-05-23 19:32:17</time>
      </trkpt>
      <trkpt lat="41.59513" lon="0.94293">
        <ele>370</ele>
        <time>2022-05-23 19:32:18</time>
      </trkpt>
      <trkpt lat="41.59508" lon="0.94289">
        <ele>370</ele>
        <time>2022-05-23 19:32:19</time>
      </trkpt>
      <trkpt lat="41.59503" lon="0.94285">
        <ele>369.8</ele>
        <time>2022-05-23 19:32:20</time>
      </trkpt>
      <trkpt lat="41.59498" lon="0.94281">
        <ele>369.8</ele>
        <time>2022-05-23 19:32:21</time>
      </trkpt>
      <trkpt lat="41.59493" lon="0.94277">
        <ele>369.8</ele>
        <time>2022-05-23 19:32:22</time>
      </trkpt>
      <trkpt lat="41.59488" lon="0.94273">
        <ele>369.8</ele>
        <time>2022-05-23 19:32:23</time>
      </trkpt>
      <trkpt lat="41.59483" lon="0.94269">
        <ele>369.8</ele>
        <time>2022-05-23 19:32:24</time>
      </trkpt>
      <trkpt lat="41.59478" lon="0.94265">
        <ele>369.8</ele>
        <time>2022-05-23 19:32:25</time>
      </trkpt>
      <trkpt lat="41.59473" lon="0.94261">
        <ele>369.8</ele>
        <time>2022-05-23 19:32:26</time>
      </trkpt>
      <trkpt lat="41.59468" lon="0.94257">
        <ele>369.8</ele>
        <time>2022-05-23 19:32:27</time>
      </trkpt>
      <trkpt lat="41.59463" lon="0.94253">
        <ele>369.8</ele>
        <time>2022-05-23 19:32:28</time>
      </trkpt>
      <trkpt lat="41.59457" lon="0.94249">
        <ele>369.8</ele>
        <time>2022-05-23 19:32:29</time>
      </trkpt>
      <trkpt lat="41.59452" lon="0.94246">
        <ele>369.6</ele>
        <time>2022-05-23 19:32:30</time>
      </trkpt>
      <trkpt lat="41.59447" lon="0.94242">
        <ele>369.6</ele>
        <time>2022-05-23 19:32:31</time>
      </trkpt>
      <trkpt lat="41.59442" lon="0.94238">
        <ele>369.6</ele>
        <time>2022-05-23 19:32:32</time>
      </trkpt>
      <trkpt lat="41.59437" lon="0.94234">
        <ele>369.8</ele>
        <time>2022-05-23 19:32:33</time>
      </trkpt>
      <trkpt lat="41.59432" lon="0.9423">
        <ele>369.8</ele>
        <time>2022-05-23 19:32:34</time>
      </trkpt>
      <trkpt lat="41.59426" lon="0.94226">
        <ele>369.6</ele>
        <time>2022-05-23 19:32:35</time>
      </trkpt>
      <trkpt lat="41.59421" lon="0.94221">
        <ele>369.6</ele>
        <time>2022-05-23 19:32:36</time>
      </trkpt>
      <trkpt lat="41.59417" lon="0.94217">
        <ele>369.6</ele>
        <time>2022-05-23 19:32:37</time>
      </trkpt>
      <trkpt lat="41.59411" lon="0.94213">
        <ele>369.6</ele>
        <time>2022-05-23 19:32:38</time>
      </trkpt>
      <trkpt lat="41.59406" lon="0.94209">
        <ele>369.6</ele>
        <time>2022-05-23 19:32:39</time>
      </trkpt>
      <trkpt lat="41.59401" lon="0.94206">
        <ele>369.6</ele>
        <time>2022-05-23 19:32:40</time>
      </trkpt>
      <trkpt lat="41.59396" lon="0.94202">
        <ele>369.6</ele>
        <time>2022-05-23 19:32:41</time>
      </trkpt>
      <trkpt lat="41.59391" lon="0.94198">
        <ele>369.6</ele>
        <time>2022-05-23 19:32:42</time>
      </trkpt>
      <trkpt lat="41.59386" lon="0.94193">
        <ele>369.6</ele>
        <time>2022-05-23 19:32:43</time>
      </trkpt>
      <trkpt lat="41.59381" lon="0.94189">
        <ele>369.6</ele>
        <time>2022-05-23 19:32:44</time>
      </trkpt>
      <trkpt lat="41.59376" lon="0.94186">
        <ele>369.4</ele>
        <time>2022-05-23 19:32:45</time>
      </trkpt>
      <trkpt lat="41.59371" lon="0.94182">
        <ele>369.6</ele>
        <time>2022-05-23 19:32:46</time>
      </trkpt>
      <trkpt lat="41.59366" lon="0.94178">
        <ele>369.6</ele>
        <time>2022-05-23 19:32:47</time>
      </trkpt>
      <trkpt lat="41.5936" lon="0.94174">
        <ele>369.4</ele>
        <time>2022-05-23 19:32:48</time>
      </trkpt>
      <trkpt lat="41.59355" lon="0.9417">
        <ele>369.4</ele>
        <time>2022-05-23 19:32:49</time>
      </trkpt>
      <trkpt lat="41.5935" lon="0.94167">
        <ele>369.4</ele>
        <time>2022-05-23 19:32:50</time>
      </trkpt>
      <trkpt lat="41.59345" lon="0.94163">
        <ele>369.4</ele>
        <time>2022-05-23 19:32:51</time>
      </trkpt>
      <trkpt lat="41.5934" lon="0.94159">
        <ele>369.4</ele>
        <time>2022-05-23 19:32:52</time>
      </trkpt>
      <trkpt lat="41.59334" lon="0.94155">
        <ele>369.4</ele>
        <time>2022-05-23 19:32:53</time>
      </trkpt>
      <trkpt lat="41.59329" lon="0.94152">
        <ele>369.4</ele>
        <time>2022-05-23 19:32:54</time>
      </trkpt>
      <trkpt lat="41.59324" lon="0.94148">
        <ele>369.4</ele>
        <time>2022-05-23 19:32:55</time>
      </trkpt>
      <trkpt lat="41.59319" lon="0.94144">
        <ele>369.2</ele>
        <time>2022-05-23 19:32:56</time>
      </trkpt>
      <trkpt lat="41.59314" lon="0.9414">
        <ele>369.2</ele>
        <time>2022-05-23 19:32:57</time>
      </trkpt>
      <trkpt lat="41.59308" lon="0.94136">
        <ele>369</ele>
        <time>2022-05-23 19:32:58</time>
      </trkpt>
      <trkpt lat="41.59303" lon="0.94132">
        <ele>369</ele>
        <time>2022-05-23 19:32:59</time>
      </trkpt>
      <trkpt lat="41.59298" lon="0.94128">
        <ele>369</ele>
        <time>2022-05-23 19:33:00</time>
      </trkpt>
      <trkpt lat="41.59293" lon="0.94125">
        <ele>369.2</ele>
        <time>2022-05-23 19:33:01</time>
      </trkpt>
      <trkpt lat="41.59287" lon="0.94121">
        <ele>369.2</ele>
        <time>2022-05-23 19:33:02</time>
      </trkpt>
      <trkpt lat="41.59283" lon="0.94117">
        <ele>369.2</ele>
        <time>2022-05-23 19:33:03</time>
      </trkpt>
      <trkpt lat="41.59278" lon="0.94113">
        <ele>369.2</ele>
        <time>2022-05-23 19:33:04</time>
      </trkpt>
      <trkpt lat="41.59273" lon="0.9411">
        <ele>369.2</ele>
        <time>2022-05-23 19:33:05</time>
      </trkpt>
      <trkpt lat="41.59268" lon="0.94106">
        <ele>369.4</ele>
        <time>2022-05-23 19:33:06</time>
      </trkpt>
      <trkpt lat="41.59263" lon="0.94103">
        <ele>369.4</ele>
        <time>2022-05-23 19:33:07</time>
      </trkpt>
      <trkpt lat="41.59259" lon="0.94099">
        <ele>369.4</ele>
        <time>2022-05-23 19:33:08</time>
      </trkpt>
      <trkpt lat="41.59253" lon="0.94095">
        <ele>369.2</ele>
        <time>2022-05-23 19:33:09</time>
      </trkpt>
      <trkpt lat="41.59248" lon="0.94091">
        <ele>369.2</ele>
        <time>2022-05-23 19:33:10</time>
      </trkpt>
      <trkpt lat="41.59244" lon="0.94087">
        <ele>369.2</ele>
        <time>2022-05-23 19:33:11</time>
      </trkpt>
      <trkpt lat="41.59239" lon="0.94084">
        <ele>369.2</ele>
        <time>2022-05-23 19:33:12</time>
      </trkpt>
      <trkpt lat="41.59234" lon="0.9408">
        <ele>369.2</ele>
        <time>2022-05-23 19:33:13</time>
      </trkpt>
      <trkpt lat="41.59228" lon="0.94076">
        <ele>369.2</ele>
        <time>2022-05-23 19:33:14</time>
      </trkpt>
      <trkpt lat="41.59224" lon="0.94072">
        <ele>369.2</ele>
        <time>2022-05-23 19:33:15</time>
      </trkpt>
      <trkpt lat="41.59219" lon="0.94068">
        <ele>369.2</ele>
        <time>2022-05-23 19:33:16</time>
      </trkpt>
      <trkpt lat="41.59214" lon="0.94064">
        <ele>369.2</ele>
        <time>2022-05-23 19:33:17</time>
      </trkpt>
      <trkpt lat="41.59209" lon="0.94061">
        <ele>369.2</ele>
        <time>2022-05-23 19:33:18</time>
      </trkpt>
      <trkpt lat="41.59204" lon="0.94057">
        <ele>369.4</ele>
        <time>2022-05-23 19:33:19</time>
      </trkpt>
      <trkpt lat="41.59199" lon="0.94053">
        <ele>369.4</ele>
        <time>2022-05-23 19:33:20</time>
      </trkpt>
      <trkpt lat="41.59194" lon="0.9405">
        <ele>369.4</ele>
        <time>2022-05-23 19:33:21</time>
      </trkpt>
      <trkpt lat="41.59189" lon="0.94046">
        <ele>369.4</ele>
        <time>2022-05-23 19:33:22</time>
      </trkpt>
      <trkpt lat="41.59184" lon="0.94042">
        <ele>369.2</ele>
        <time>2022-05-23 19:33:23</time>
      </trkpt>
      <trkpt lat="41.59179" lon="0.94038">
        <ele>369.2</ele>
        <time>2022-05-23 19:33:24</time>
      </trkpt>
      <trkpt lat="41.59174" lon="0.94034">
        <ele>369</ele>
        <time>2022-05-23 19:33:25</time>
      </trkpt>
      <trkpt lat="41.59169" lon="0.9403">
        <ele>369</ele>
        <time>2022-05-23 19:33:26</time>
      </trkpt>
      <trkpt lat="41.59165" lon="0.94027">
        <ele>369</ele>
        <time>2022-05-23 19:33:27</time>
      </trkpt>
      <trkpt lat="41.59159" lon="0.94023">
        <ele>369</ele>
        <time>2022-05-23 19:33:28</time>
      </trkpt>
      <trkpt lat="41.59154" lon="0.94019">
        <ele>369</ele>
        <time>2022-05-23 19:33:29</time>
      </trkpt>
      <trkpt lat="41.59149" lon="0.94016">
        <ele>369</ele>
        <time>2022-05-23 19:33:30</time>
      </trkpt>
      <trkpt lat="41.59145" lon="0.94011">
        <ele>369</ele>
        <time>2022-05-23 19:33:31</time>
      </trkpt>
      <trkpt lat="41.5914" lon="0.94007">
        <ele>369</ele>
        <time>2022-05-23 19:33:32</time>
      </trkpt>
      <trkpt lat="41.59135" lon="0.94004">
        <ele>369</ele>
        <time>2022-05-23 19:33:33</time>
      </trkpt>
      <trkpt lat="41.5913" lon="0.94">
        <ele>369</ele>
        <time>2022-05-23 19:33:34</time>
      </trkpt>
      <trkpt lat="41.59125" lon="0.93996">
        <ele>369</ele>
        <time>2022-05-23 19:33:35</time>
      </trkpt>
      <trkpt lat="41.5912" lon="0.93992">
        <ele>369</ele>
        <time>2022-05-23 19:33:36</time>
      </trkpt>
      <trkpt lat="41.59115" lon="0.93988">
        <ele>369</ele>
        <time>2022-05-23 19:33:37</time>
      </trkpt>
      <trkpt lat="41.5911" lon="0.93985">
        <ele>369</ele>
        <time>2022-05-23 19:33:38</time>
      </trkpt>
      <trkpt lat="41.59106" lon="0.93981">
        <ele>369</ele>
        <time>2022-05-23 19:33:39</time>
      </trkpt>
      <trkpt lat="41.59101" lon="0.93977">
        <ele>369</ele>
        <time>2022-05-23 19:33:40</time>
      </trkpt>
      <trkpt lat="41.59096" lon="0.93974">
        <ele>369.2</ele>
        <time>2022-05-23 19:33:41</time>
      </trkpt>
      <trkpt lat="41.59091" lon="0.9397">
        <ele>369.2</ele>
        <time>2022-05-23 19:33:42</time>
      </trkpt>
      <trkpt lat="41.59087" lon="0.93967">
        <ele>369.2</ele>
        <time>2022-05-23 19:33:43</time>
      </trkpt>
      <trkpt lat="41.59082" lon="0.93963">
        <ele>369.2</ele>
        <time>2022-05-23 19:33:44</time>
      </trkpt>
      <trkpt lat="41.59077" lon="0.9396">
        <ele>369</ele>
        <time>2022-05-23 19:33:45</time>
      </trkpt>
      <trkpt lat="41.59073" lon="0.93957">
        <ele>369</ele>
        <time>2022-05-23 19:33:46</time>
      </trkpt>
      <trkpt lat="41.59067" lon="0.93953">
        <ele>369.2</ele>
        <time>2022-05-23 19:33:47</time>
      </trkpt>
      <trkpt lat="41.59063" lon="0.9395">
        <ele>369.2</ele>
        <time>2022-05-23 19:33:48</time>
      </trkpt>
      <trkpt lat="41.59058" lon="0.93947">
        <ele>369.2</ele>
        <time>2022-05-23 19:33:49</time>
      </trkpt>
      <trkpt lat="41.59053" lon="0.93943">
        <ele>369.4</ele>
        <time>2022-05-23 19:33:50</time>
      </trkpt>
      <trkpt lat="41.59049" lon="0.9394">
        <ele>369.4</ele>
        <time>2022-05-23 19:33:51</time>
      </trkpt>
      <trkpt lat="41.59044" lon="0.93937">
        <ele>369.4</ele>
        <time>2022-05-23 19:33:52</time>
      </trkpt>
      <trkpt lat="41.59039" lon="0.93934">
        <ele>369.4</ele>
        <time>2022-05-23 19:33:53</time>
      </trkpt>
      <trkpt lat="41.59034" lon="0.93931">
        <ele>369.4</ele>
        <time>2022-05-23 19:33:54</time>
      </trkpt>
      <trkpt lat="41.59029" lon="0.93929">
        <ele>369.2</ele>
        <time>2022-05-23 19:33:55</time>
      </trkpt>
      <trkpt lat="41.59025" lon="0.93926">
        <ele>369.2</ele>
        <time>2022-05-23 19:33:56</time>
      </trkpt>
      <trkpt lat="41.5902" lon="0.93923">
        <ele>369.2</ele>
        <time>2022-05-23 19:33:57</time>
      </trkpt>
      <trkpt lat="41.59015" lon="0.93921">
        <ele>369.2</ele>
        <time>2022-05-23 19:33:58</time>
      </trkpt>
      <trkpt lat="41.5901" lon="0.93918">
        <ele>369.4</ele>
        <time>2022-05-23 19:33:59</time>
      </trkpt>
      <trkpt lat="41.59005" lon="0.93915">
        <ele>369.2</ele>
        <time>2022-05-23 19:34:00</time>
      </trkpt>
      <trkpt lat="41.59" lon="0.93913">
        <ele>369.4</ele>
        <time>2022-05-23 19:34:01</time>
      </trkpt>
      <trkpt lat="41.58995" lon="0.93911">
        <ele>369.2</ele>
        <time>2022-05-23 19:34:02</time>
      </trkpt>
      <trkpt lat="41.58991" lon="0.93909">
        <ele>369.4</ele>
        <time>2022-05-23 19:34:03</time>
      </trkpt>
      <trkpt lat="41.58985" lon="0.93906">
        <ele>369.4</ele>
        <time>2022-05-23 19:34:04</time>
      </trkpt>
      <trkpt lat="41.58981" lon="0.93904">
        <ele>369.4</ele>
        <time>2022-05-23 19:34:05</time>
      </trkpt>
      <trkpt lat="41.58976" lon="0.93901">
        <ele>369.4</ele>
        <time>2022-05-23 19:34:06</time>
      </trkpt>
      <trkpt lat="41.58971" lon="0.93899">
        <ele>369.4</ele>
        <time>2022-05-23 19:34:07</time>
      </trkpt>
      <trkpt lat="41.58966" lon="0.93897">
        <ele>369.4</ele>
        <time>2022-05-23 19:34:08</time>
      </trkpt>
      <trkpt lat="41.5896" lon="0.93894">
        <ele>369.4</ele>
        <time>2022-05-23 19:34:09</time>
      </trkpt>
      <trkpt lat="41.58955" lon="0.93892">
        <ele>369.6</ele>
        <time>2022-05-23 19:34:10</time>
      </trkpt>
      <trkpt lat="41.5895" lon="0.93889">
        <ele>369.6</ele>
        <time>2022-05-23 19:34:11</time>
      </trkpt>
      <trkpt lat="41.58945" lon="0.93887">
        <ele>369.6</ele>
        <time>2022-05-23 19:34:12</time>
      </trkpt>
      <trkpt lat="41.5894" lon="0.93885">
        <ele>369.4</ele>
        <time>2022-05-23 19:34:13</time>
      </trkpt>
      <trkpt lat="41.58934" lon="0.93882">
        <ele>369.4</ele>
        <time>2022-05-23 19:34:14</time>
      </trkpt>
      <trkpt lat="41.58929" lon="0.9388">
        <ele>369.4</ele>
        <time>2022-05-23 19:34:15</time>
      </trkpt>
      <trkpt lat="41.58924" lon="0.93877">
        <ele>369.4</ele>
        <time>2022-05-23 19:34:16</time>
      </trkpt>
      <trkpt lat="41.58919" lon="0.93874">
        <ele>369.4</ele>
        <time>2022-05-23 19:34:17</time>
      </trkpt>
      <trkpt lat="41.58914" lon="0.93872">
        <ele>369.2</ele>
        <time>2022-05-23 19:34:18</time>
      </trkpt>
      <trkpt lat="41.58908" lon="0.93869">
        <ele>369.2</ele>
        <time>2022-05-23 19:34:19</time>
      </trkpt>
      <trkpt lat="41.58903" lon="0.93866">
        <ele>369.2</ele>
        <time>2022-05-23 19:34:20</time>
      </trkpt>
      <trkpt lat="41.58898" lon="0.93863">
        <ele>369.2</ele>
        <time>2022-05-23 19:34:21</time>
      </trkpt>
      <trkpt lat="41.58893" lon="0.9386">
        <ele>369</ele>
        <time>2022-05-23 19:34:22</time>
      </trkpt>
      <trkpt lat="41.58887" lon="0.93857">
        <ele>369</ele>
        <time>2022-05-23 19:34:23</time>
      </trkpt>
      <trkpt lat="41.58883" lon="0.93853">
        <ele>369</ele>
        <time>2022-05-23 19:34:24</time>
      </trkpt>
      <trkpt lat="41.58877" lon="0.9385">
        <ele>369</ele>
        <time>2022-05-23 19:34:25</time>
      </trkpt>
      <trkpt lat="41.58873" lon="0.93847">
        <ele>369</ele>
        <time>2022-05-23 19:34:26</time>
      </trkpt>
      <trkpt lat="41.58867" lon="0.93844">
        <ele>369</ele>
        <time>2022-05-23 19:34:27</time>
      </trkpt>
      <trkpt lat="41.58863" lon="0.93841">
        <ele>369</ele>
        <time>2022-05-23 19:34:28</time>
      </trkpt>
      <trkpt lat="41.58858" lon="0.93837">
        <ele>369</ele>
        <time>2022-05-23 19:34:29</time>
      </trkpt>
      <trkpt lat="41.58853" lon="0.93834">
        <ele>369</ele>
        <time>2022-05-23 19:34:30</time>
      </trkpt>
      <trkpt lat="41.58849" lon="0.93831">
        <ele>369</ele>
        <time>2022-05-23 19:34:31</time>
      </trkpt>
      <trkpt lat="41.58844" lon="0.93827">
        <ele>369</ele>
        <time>2022-05-23 19:34:32</time>
      </trkpt>
      <trkpt lat="41.5884" lon="0.93824">
        <ele>369</ele>
        <time>2022-05-23 19:34:33</time>
      </trkpt>
      <trkpt lat="41.58835" lon="0.9382">
        <ele>369</ele>
        <time>2022-05-23 19:34:34</time>
      </trkpt>
      <trkpt lat="41.5883" lon="0.93817">
        <ele>369</ele>
        <time>2022-05-23 19:34:35</time>
      </trkpt>
      <trkpt lat="41.58826" lon="0.93813">
        <ele>369.2</ele>
        <time>2022-05-23 19:34:36</time>
      </trkpt>
      <trkpt lat="41.58821" lon="0.9381">
        <ele>369.2</ele>
        <time>2022-05-23 19:34:37</time>
      </trkpt>
      <trkpt lat="41.58817" lon="0.93807">
        <ele>369.2</ele>
        <time>2022-05-23 19:34:38</time>
      </trkpt>
      <trkpt lat="41.58812" lon="0.93803">
        <ele>369.4</ele>
        <time>2022-05-23 19:34:39</time>
      </trkpt>
      <trkpt lat="41.58808" lon="0.938">
        <ele>369.4</ele>
        <time>2022-05-23 19:34:40</time>
      </trkpt>
      <trkpt lat="41.58803" lon="0.93797">
        <ele>369.4</ele>
        <time>2022-05-23 19:34:41</time>
      </trkpt>
      <trkpt lat="41.58798" lon="0.93793">
        <ele>369.4</ele>
        <time>2022-05-23 19:34:42</time>
      </trkpt>
      <trkpt lat="41.58793" lon="0.93789">
        <ele>369.2</ele>
        <time>2022-05-23 19:34:43</time>
      </trkpt>
      <trkpt lat="41.58788" lon="0.93786">
        <ele>369.2</ele>
        <time>2022-05-23 19:34:44</time>
      </trkpt>
      <trkpt lat="41.58782" lon="0.93782">
        <ele>369</ele>
        <time>2022-05-23 19:34:45</time>
      </trkpt>
      <trkpt lat="41.58777" lon="0.93778">
        <ele>369</ele>
        <time>2022-05-23 19:34:46</time>
      </trkpt>
      <trkpt lat="41.58772" lon="0.93774">
        <ele>368.8</ele>
        <time>2022-05-23 19:34:47</time>
      </trkpt>
      <trkpt lat="41.58766" lon="0.9377">
        <ele>368.8</ele>
        <time>2022-05-23 19:34:48</time>
      </trkpt>
      <trkpt lat="41.58761" lon="0.93767">
        <ele>368.8</ele>
        <time>2022-05-23 19:34:49</time>
      </trkpt>
      <trkpt lat="41.58756" lon="0.93763">
        <ele>368.8</ele>
        <time>2022-05-23 19:34:50</time>
      </trkpt>
      <trkpt lat="41.58751" lon="0.9376">
        <ele>368.8</ele>
        <time>2022-05-23 19:34:51</time>
      </trkpt>
      <trkpt lat="41.58746" lon="0.93756">
        <ele>369</ele>
        <time>2022-05-23 19:34:52</time>
      </trkpt>
      <trkpt lat="41.58741" lon="0.93752">
        <ele>369</ele>
        <time>2022-05-23 19:34:53</time>
      </trkpt>
      <trkpt lat="41.58735" lon="0.93748">
        <ele>369</ele>
        <time>2022-05-23 19:34:54</time>
      </trkpt>
      <trkpt lat="41.58731" lon="0.93745">
        <ele>369</ele>
        <time>2022-05-23 19:34:55</time>
      </trkpt>
      <trkpt lat="41.58725" lon="0.93741">
        <ele>369</ele>
        <time>2022-05-23 19:34:56</time>
      </trkpt>
      <trkpt lat="41.5872" lon="0.93738">
        <ele>369</ele>
        <time>2022-05-23 19:34:57</time>
      </trkpt>
      <trkpt lat="41.58715" lon="0.93735">
        <ele>369</ele>
        <time>2022-05-23 19:34:58</time>
      </trkpt>
      <trkpt lat="41.58709" lon="0.93731">
        <ele>369</ele>
        <time>2022-05-23 19:34:59</time>
      </trkpt>
      <trkpt lat="41.58704" lon="0.93728">
        <ele>369</ele>
        <time>2022-05-23 19:35:00</time>
      </trkpt>
      <trkpt lat="41.58699" lon="0.93725">
        <ele>369</ele>
        <time>2022-05-23 19:35:01</time>
      </trkpt>
      <trkpt lat="41.58693" lon="0.93723">
        <ele>369</ele>
        <time>2022-05-23 19:35:02</time>
      </trkpt>
      <trkpt lat="41.58688" lon="0.9372">
        <ele>369</ele>
        <time>2022-05-23 19:35:03</time>
      </trkpt>
      <trkpt lat="41.58683" lon="0.93717">
        <ele>369</ele>
        <time>2022-05-23 19:35:04</time>
      </trkpt>
      <trkpt lat="41.58677" lon="0.93714">
        <ele>369</ele>
        <time>2022-05-23 19:35:05</time>
      </trkpt>
      <trkpt lat="41.58672" lon="0.93711">
        <ele>369</ele>
        <time>2022-05-23 19:35:06</time>
      </trkpt>
      <trkpt lat="41.58666" lon="0.93709">
        <ele>368.8</ele>
        <time>2022-05-23 19:35:07</time>
      </trkpt>
      <trkpt lat="41.58661" lon="0.93707">
        <ele>368.8</ele>
        <time>2022-05-23 19:35:08</time>
      </trkpt>
      <trkpt lat="41.58655" lon="0.93704">
        <ele>368.8</ele>
        <time>2022-05-23 19:35:09</time>
      </trkpt>
      <trkpt lat="41.58649" lon="0.93702">
        <ele>368.8</ele>
        <time>2022-05-23 19:35:10</time>
      </trkpt>
      <trkpt lat="41.58643" lon="0.93699">
        <ele>369</ele>
        <time>2022-05-23 19:35:11</time>
      </trkpt>
      <trkpt lat="41.58637" lon="0.93697">
        <ele>369</ele>
        <time>2022-05-23 19:35:12</time>
      </trkpt>
      <trkpt lat="41.58631" lon="0.93695">
        <ele>369</ele>
        <time>2022-05-23 19:35:13</time>
      </trkpt>
      <trkpt lat="41.58626" lon="0.93694">
        <ele>369</ele>
        <time>2022-05-23 19:35:14</time>
      </trkpt>
      <trkpt lat="41.58619" lon="0.93692">
        <ele>369</ele>
        <time>2022-05-23 19:35:15</time>
      </trkpt>
      <trkpt lat="41.58614" lon="0.9369">
        <ele>369</ele>
        <time>2022-05-23 19:35:16</time>
      </trkpt>
      <trkpt lat="41.58608" lon="0.93688">
        <ele>369</ele>
        <time>2022-05-23 19:35:17</time>
      </trkpt>
      <trkpt lat="41.58602" lon="0.93687">
        <ele>369.2</ele>
        <time>2022-05-23 19:35:18</time>
      </trkpt>
      <trkpt lat="41.58596" lon="0.93685">
        <ele>369.2</ele>
        <time>2022-05-23 19:35:19</time>
      </trkpt>
      <trkpt lat="41.5859" lon="0.93684">
        <ele>369.2</ele>
        <time>2022-05-23 19:35:20</time>
      </trkpt>
      <trkpt lat="41.58584" lon="0.93683">
        <ele>369.2</ele>
        <time>2022-05-23 19:35:21</time>
      </trkpt>
      <trkpt lat="41.58579" lon="0.93681">
        <ele>369</ele>
        <time>2022-05-23 19:35:22</time>
      </trkpt>
      <trkpt lat="41.58573" lon="0.93679">
        <ele>369</ele>
        <time>2022-05-23 19:35:23</time>
      </trkpt>
      <trkpt lat="41.58567" lon="0.93678">
        <ele>369.2</ele>
        <time>2022-05-23 19:35:24</time>
      </trkpt>
      <trkpt lat="41.58561" lon="0.93677">
        <ele>369.2</ele>
        <time>2022-05-23 19:35:25</time>
      </trkpt>
      <trkpt lat="41.58556" lon="0.93676">
        <ele>369.2</ele>
        <time>2022-05-23 19:35:26</time>
      </trkpt>
      <trkpt lat="41.5855" lon="0.93674">
        <ele>369</ele>
        <time>2022-05-23 19:35:27</time>
      </trkpt>
      <trkpt lat="41.58544" lon="0.93673">
        <ele>369.2</ele>
        <time>2022-05-23 19:35:28</time>
      </trkpt>
      <trkpt lat="41.58538" lon="0.93671">
        <ele>369.2</ele>
        <time>2022-05-23 19:35:29</time>
      </trkpt>
      <trkpt lat="41.58532" lon="0.93669">
        <ele>369.2</ele>
        <time>2022-05-23 19:35:30</time>
      </trkpt>
      <trkpt lat="41.58527" lon="0.93668">
        <ele>369.4</ele>
        <time>2022-05-23 19:35:31</time>
      </trkpt>
      <trkpt lat="41.58521" lon="0.93666">
        <ele>369.4</ele>
        <time>2022-05-23 19:35:32</time>
      </trkpt>
      <trkpt lat="41.58515" lon="0.93665">
        <ele>369.4</ele>
        <time>2022-05-23 19:35:33</time>
      </trkpt>
      <trkpt lat="41.5851" lon="0.93663">
        <ele>369.4</ele>
        <time>2022-05-23 19:35:34</time>
      </trkpt>
      <trkpt lat="41.58504" lon="0.93662">
        <ele>369.6</ele>
        <time>2022-05-23 19:35:35</time>
      </trkpt>
      <trkpt lat="41.58499" lon="0.9366">
        <ele>369.6</ele>
        <time>2022-05-23 19:35:36</time>
      </trkpt>
      <trkpt lat="41.58493" lon="0.93659">
        <ele>369.6</ele>
        <time>2022-05-23 19:35:37</time>
      </trkpt>
      <trkpt lat="41.58487" lon="0.93657">
        <ele>369.8</ele>
        <time>2022-05-23 19:35:38</time>
      </trkpt>
      <trkpt lat="41.58481" lon="0.93655">
        <ele>369.8</ele>
        <time>2022-05-23 19:35:39</time>
      </trkpt>
      <trkpt lat="41.58476" lon="0.93654">
        <ele>369.8</ele>
        <time>2022-05-23 19:35:40</time>
      </trkpt>
      <trkpt lat="41.5847" lon="0.93653">
        <ele>369.8</ele>
        <time>2022-05-23 19:35:41</time>
      </trkpt>
      <trkpt lat="41.58465" lon="0.93651">
        <ele>369.8</ele>
        <time>2022-05-23 19:35:42</time>
      </trkpt>
      <trkpt lat="41.58459" lon="0.9365">
        <ele>369.8</ele>
        <time>2022-05-23 19:35:43</time>
      </trkpt>
      <trkpt lat="41.58454" lon="0.93648">
        <ele>369.8</ele>
        <time>2022-05-23 19:35:44</time>
      </trkpt>
      <trkpt lat="41.58448" lon="0.93646">
        <ele>369.6</ele>
        <time>2022-05-23 19:35:45</time>
      </trkpt>
      <trkpt lat="41.58442" lon="0.93645">
        <ele>369.6</ele>
        <time>2022-05-23 19:35:46</time>
      </trkpt>
      <trkpt lat="41.58436" lon="0.93643">
        <ele>369.8</ele>
        <time>2022-05-23 19:35:47</time>
      </trkpt>
      <trkpt lat="41.5843" lon="0.93641">
        <ele>369.8</ele>
        <time>2022-05-23 19:35:48</time>
      </trkpt>
      <trkpt lat="41.58425" lon="0.9364">
        <ele>369.8</ele>
        <time>2022-05-23 19:35:49</time>
      </trkpt>
      <trkpt lat="41.58419" lon="0.93639">
        <ele>369.8</ele>
        <time>2022-05-23 19:35:50</time>
      </trkpt>
      <trkpt lat="41.58414" lon="0.93637">
        <ele>369.8</ele>
        <time>2022-05-23 19:35:51</time>
      </trkpt>
      <trkpt lat="41.58409" lon="0.93636">
        <ele>370</ele>
        <time>2022-05-23 19:35:52</time>
      </trkpt>
      <trkpt lat="41.58402" lon="0.93634">
        <ele>370</ele>
        <time>2022-05-23 19:35:53</time>
      </trkpt>
      <trkpt lat="41.58398" lon="0.93633">
        <ele>370</ele>
        <time>2022-05-23 19:35:54</time>
      </trkpt>
      <trkpt lat="41.58391" lon="0.93631">
        <ele>370</ele>
        <time>2022-05-23 19:35:55</time>
      </trkpt>
      <trkpt lat="41.58385" lon="0.9363">
        <ele>369.8</ele>
        <time>2022-05-23 19:35:56</time>
      </trkpt>
      <trkpt lat="41.5838" lon="0.93628">
        <ele>369.8</ele>
        <time>2022-05-23 19:35:57</time>
      </trkpt>
      <trkpt lat="41.58375" lon="0.93627">
        <ele>369.6</ele>
        <time>2022-05-23 19:35:58</time>
      </trkpt>
      <trkpt lat="41.58368" lon="0.93624">
        <ele>369.8</ele>
        <time>2022-05-23 19:35:59</time>
      </trkpt>
      <trkpt lat="41.58362" lon="0.93623">
        <ele>369.8</ele>
        <time>2022-05-23 19:36:00</time>
      </trkpt>
      <trkpt lat="41.58356" lon="0.93621">
        <ele>369.8</ele>
        <time>2022-05-23 19:36:01</time>
      </trkpt>
      <trkpt lat="41.58351" lon="0.9362">
        <ele>370</ele>
        <time>2022-05-23 19:36:02</time>
      </trkpt>
      <trkpt lat="41.58344" lon="0.93618">
        <ele>370</ele>
        <time>2022-05-23 19:36:03</time>
      </trkpt>
      <trkpt lat="41.58339" lon="0.93616">
        <ele>370</ele>
        <time>2022-05-23 19:36:04</time>
      </trkpt>
      <trkpt lat="41.58332" lon="0.93614">
        <ele>370.2</ele>
        <time>2022-05-23 19:36:05</time>
      </trkpt>
      <trkpt lat="41.58326" lon="0.93612">
        <ele>370.2</ele>
        <time>2022-05-23 19:36:06</time>
      </trkpt>
      <trkpt lat="41.5832" lon="0.93611">
        <ele>370.4</ele>
        <time>2022-05-23 19:36:07</time>
      </trkpt>
      <trkpt lat="41.58314" lon="0.93609">
        <ele>370.4</ele>
        <time>2022-05-23 19:36:08</time>
      </trkpt>
      <trkpt lat="41.58308" lon="0.93608">
        <ele>370.4</ele>
        <time>2022-05-23 19:36:09</time>
      </trkpt>
      <trkpt lat="41.58303" lon="0.93607">
        <ele>370.4</ele>
        <time>2022-05-23 19:36:10</time>
      </trkpt>
      <trkpt lat="41.58297" lon="0.93605">
        <ele>370.4</ele>
        <time>2022-05-23 19:36:11</time>
      </trkpt>
      <trkpt lat="41.5829" lon="0.93603">
        <ele>370.4</ele>
        <time>2022-05-23 19:36:12</time>
      </trkpt>
      <trkpt lat="41.58284" lon="0.93602">
        <ele>370.2</ele>
        <time>2022-05-23 19:36:13</time>
      </trkpt>
      <trkpt lat="41.58277" lon="0.936">
        <ele>370</ele>
        <time>2022-05-23 19:36:14</time>
      </trkpt>
      <trkpt lat="41.58271" lon="0.93598">
        <ele>369.8</ele>
        <time>2022-05-23 19:36:15</time>
      </trkpt>
      <trkpt lat="41.58266" lon="0.93597">
        <ele>369.8</ele>
        <time>2022-05-23 19:36:16</time>
      </trkpt>
      <trkpt lat="41.58259" lon="0.93595">
        <ele>369.8</ele>
        <time>2022-05-23 19:36:17</time>
      </trkpt>
      <trkpt lat="41.58253" lon="0.93593">
        <ele>369.8</ele>
        <time>2022-05-23 19:36:18</time>
      </trkpt>
      <trkpt lat="41.58248" lon="0.93591">
        <ele>369.8</ele>
        <time>2022-05-23 19:36:19</time>
      </trkpt>
      <trkpt lat="41.58242" lon="0.9359">
        <ele>369.8</ele>
        <time>2022-05-23 19:36:20</time>
      </trkpt>
      <trkpt lat="41.58236" lon="0.93588">
        <ele>369.6</ele>
        <time>2022-05-23 19:36:21</time>
      </trkpt>
      <trkpt lat="41.5823" lon="0.93587">
        <ele>369.6</ele>
        <time>2022-05-23 19:36:22</time>
      </trkpt>
      <trkpt lat="41.58223" lon="0.93585">
        <ele>369.4</ele>
        <time>2022-05-23 19:36:23</time>
      </trkpt>
      <trkpt lat="41.58218" lon="0.93583">
        <ele>369.4</ele>
        <time>2022-05-23 19:36:24</time>
      </trkpt>
      <trkpt lat="41.58212" lon="0.93582">
        <ele>369.4</ele>
        <time>2022-05-23 19:36:25</time>
      </trkpt>
      <trkpt lat="41.58206" lon="0.9358">
        <ele>369.4</ele>
        <time>2022-05-23 19:36:26</time>
      </trkpt>
      <trkpt lat="41.582" lon="0.93579">
        <ele>369.2</ele>
        <time>2022-05-23 19:36:27</time>
      </trkpt>
      <trkpt lat="41.58195" lon="0.93577">
        <ele>369.2</ele>
        <time>2022-05-23 19:36:28</time>
      </trkpt>
      <trkpt lat="41.58188" lon="0.93576">
        <ele>369.2</ele>
        <time>2022-05-23 19:36:29</time>
      </trkpt>
      <trkpt lat="41.58182" lon="0.93574">
        <ele>369.2</ele>
        <time>2022-05-23 19:36:30</time>
      </trkpt>
      <trkpt lat="41.58177" lon="0.93572">
        <ele>369</ele>
        <time>2022-05-23 19:36:31</time>
      </trkpt>
      <trkpt lat="41.5817" lon="0.9357">
        <ele>369</ele>
        <time>2022-05-23 19:36:32</time>
      </trkpt>
      <trkpt lat="41.58165" lon="0.93569">
        <ele>369.2</ele>
        <time>2022-05-23 19:36:33</time>
      </trkpt>
      <trkpt lat="41.58159" lon="0.93567">
        <ele>369.2</ele>
        <time>2022-05-23 19:36:34</time>
      </trkpt>
      <trkpt lat="41.58153" lon="0.93565">
        <ele>369.2</ele>
        <time>2022-05-23 19:36:35</time>
      </trkpt>
      <trkpt lat="41.58147" lon="0.93564">
        <ele>369</ele>
        <time>2022-05-23 19:36:36</time>
      </trkpt>
      <trkpt lat="41.58141" lon="0.93562">
        <ele>369</ele>
        <time>2022-05-23 19:36:37</time>
      </trkpt>
      <trkpt lat="41.58136" lon="0.93561">
        <ele>369</ele>
        <time>2022-05-23 19:36:38</time>
      </trkpt>
      <trkpt lat="41.58129" lon="0.93558">
        <ele>369</ele>
        <time>2022-05-23 19:36:39</time>
      </trkpt>
      <trkpt lat="41.58123" lon="0.93557">
        <ele>369</ele>
        <time>2022-05-23 19:36:40</time>
      </trkpt>
      <trkpt lat="41.58117" lon="0.93555">
        <ele>369</ele>
        <time>2022-05-23 19:36:41</time>
      </trkpt>
      <trkpt lat="41.58111" lon="0.93554">
        <ele>369</ele>
        <time>2022-05-23 19:36:42</time>
      </trkpt>
      <trkpt lat="41.58105" lon="0.93552">
        <ele>369</ele>
        <time>2022-05-23 19:36:43</time>
      </trkpt>
      <trkpt lat="41.581" lon="0.9355">
        <ele>369</ele>
        <time>2022-05-23 19:36:44</time>
      </trkpt>
      <trkpt lat="41.58093" lon="0.93548">
        <ele>369</ele>
        <time>2022-05-23 19:36:45</time>
      </trkpt>
      <trkpt lat="41.58087" lon="0.93547">
        <ele>369</ele>
        <time>2022-05-23 19:36:46</time>
      </trkpt>
      <trkpt lat="41.58082" lon="0.93545">
        <ele>369</ele>
        <time>2022-05-23 19:36:47</time>
      </trkpt>
      <trkpt lat="41.58075" lon="0.93544">
        <ele>369</ele>
        <time>2022-05-23 19:36:48</time>
      </trkpt>
      <trkpt lat="41.58069" lon="0.93542">
        <ele>368.8</ele>
        <time>2022-05-23 19:36:49</time>
      </trkpt>
      <trkpt lat="41.58063" lon="0.9354">
        <ele>368.8</ele>
        <time>2022-05-23 19:36:50</time>
      </trkpt>
      <trkpt lat="41.58058" lon="0.93539">
        <ele>368.8</ele>
        <time>2022-05-23 19:36:51</time>
      </trkpt>
      <trkpt lat="41.58053" lon="0.93537">
        <ele>368.8</ele>
        <time>2022-05-23 19:36:52</time>
      </trkpt>
      <trkpt lat="41.58045" lon="0.93535">
        <ele>368.6</ele>
        <time>2022-05-23 19:36:53</time>
      </trkpt>
      <trkpt lat="41.5804" lon="0.93534">
        <ele>368.6</ele>
        <time>2022-05-23 19:36:54</time>
      </trkpt>
      <trkpt lat="41.58033" lon="0.93532">
        <ele>368.6</ele>
        <time>2022-05-23 19:36:55</time>
      </trkpt>
      <trkpt lat="41.58028" lon="0.93531">
        <ele>368.8</ele>
        <time>2022-05-23 19:36:56</time>
      </trkpt>
      <trkpt lat="41.58021" lon="0.93529">
        <ele>368.8</ele>
        <time>2022-05-23 19:36:57</time>
      </trkpt>
      <trkpt lat="41.58016" lon="0.93527">
        <ele>368.8</ele>
        <time>2022-05-23 19:36:58</time>
      </trkpt>
      <trkpt lat="41.58009" lon="0.93525">
        <ele>368.8</ele>
        <time>2022-05-23 19:36:59</time>
      </trkpt>
      <trkpt lat="41.58004" lon="0.93524">
        <ele>368.8</ele>
        <time>2022-05-23 19:37:00</time>
      </trkpt>
      <trkpt lat="41.57998" lon="0.93522">
        <ele>368.8</ele>
        <time>2022-05-23 19:37:01</time>
      </trkpt>
      <trkpt lat="41.57992" lon="0.93521">
        <ele>368.8</ele>
        <time>2022-05-23 19:37:02</time>
      </trkpt>
      <trkpt lat="41.57986" lon="0.93519">
        <ele>368.8</ele>
        <time>2022-05-23 19:37:03</time>
      </trkpt>
      <trkpt lat="41.5798" lon="0.93517">
        <ele>368.8</ele>
        <time>2022-05-23 19:37:04</time>
      </trkpt>
      <trkpt lat="41.57974" lon="0.93516">
        <ele>369</ele>
        <time>2022-05-23 19:37:05</time>
      </trkpt>
      <trkpt lat="41.5797" lon="0.93514">
        <ele>369</ele>
        <time>2022-05-23 19:37:06</time>
      </trkpt>
      <trkpt lat="41.57963" lon="0.93513">
        <ele>368.8</ele>
        <time>2022-05-23 19:37:07</time>
      </trkpt>
      <trkpt lat="41.57958" lon="0.93511">
        <ele>368.8</ele>
        <time>2022-05-23 19:37:08</time>
      </trkpt>
      <trkpt lat="41.57951" lon="0.9351">
        <ele>368.8</ele>
        <time>2022-05-23 19:37:09</time>
      </trkpt>
      <trkpt lat="41.57946" lon="0.93509">
        <ele>368.8</ele>
        <time>2022-05-23 19:37:10</time>
      </trkpt>
      <trkpt lat="41.5794" lon="0.93507">
        <ele>368.8</ele>
        <time>2022-05-23 19:37:11</time>
      </trkpt>
      <trkpt lat="41.57934" lon="0.93506">
        <ele>368.8</ele>
        <time>2022-05-23 19:37:12</time>
      </trkpt>
      <trkpt lat="41.57927" lon="0.93504">
        <ele>368.8</ele>
        <time>2022-05-23 19:37:13</time>
      </trkpt>
      <trkpt lat="41.57922" lon="0.93503">
        <ele>368.8</ele>
        <time>2022-05-23 19:37:14</time>
      </trkpt>
      <trkpt lat="41.57916" lon="0.93501">
        <ele>368.8</ele>
        <time>2022-05-23 19:37:15</time>
      </trkpt>
      <trkpt lat="41.57911" lon="0.935">
        <ele>368.8</ele>
        <time>2022-05-23 19:37:16</time>
      </trkpt>
      <trkpt lat="41.57904" lon="0.93498">
        <ele>368.8</ele>
        <time>2022-05-23 19:37:17</time>
      </trkpt>
      <trkpt lat="41.57899" lon="0.93497">
        <ele>368.8</ele>
        <time>2022-05-23 19:37:18</time>
      </trkpt>
      <trkpt lat="41.57893" lon="0.93496">
        <ele>368.6</ele>
        <time>2022-05-23 19:37:19</time>
      </trkpt>
      <trkpt lat="41.57888" lon="0.93495">
        <ele>368.6</ele>
        <time>2022-05-23 19:37:20</time>
      </trkpt>
      <trkpt lat="41.57881" lon="0.93493">
        <ele>368.6</ele>
        <time>2022-05-23 19:37:21</time>
      </trkpt>
      <trkpt lat="41.57875" lon="0.93491">
        <ele>368.4</ele>
        <time>2022-05-23 19:37:22</time>
      </trkpt>
      <trkpt lat="41.57868" lon="0.9349">
        <ele>368.4</ele>
        <time>2022-05-23 19:37:23</time>
      </trkpt>
      <trkpt lat="41.57862" lon="0.93488">
        <ele>368.6</ele>
        <time>2022-05-23 19:37:24</time>
      </trkpt>
      <trkpt lat="41.57855" lon="0.93487">
        <ele>368.6</ele>
        <time>2022-05-23 19:37:25</time>
      </trkpt>
      <trkpt lat="41.5785" lon="0.93486">
        <ele>368.6</ele>
        <time>2022-05-23 19:37:26</time>
      </trkpt>
      <trkpt lat="41.57843" lon="0.93484">
        <ele>368.6</ele>
        <time>2022-05-23 19:37:27</time>
      </trkpt>
      <trkpt lat="41.57837" lon="0.93483">
        <ele>368.6</ele>
        <time>2022-05-23 19:37:28</time>
      </trkpt>
      <trkpt lat="41.57831" lon="0.93481">
        <ele>368.6</ele>
        <time>2022-05-23 19:37:29</time>
      </trkpt>
      <trkpt lat="41.57824" lon="0.93479">
        <ele>368.6</ele>
        <time>2022-05-23 19:37:30</time>
      </trkpt>
      <trkpt lat="41.57819" lon="0.93477">
        <ele>368.6</ele>
        <time>2022-05-23 19:37:31</time>
      </trkpt>
      <trkpt lat="41.57812" lon="0.93475">
        <ele>368.4</ele>
        <time>2022-05-23 19:37:32</time>
      </trkpt>
      <trkpt lat="41.57806" lon="0.93474">
        <ele>368.4</ele>
        <time>2022-05-23 19:37:33</time>
      </trkpt>
      <trkpt lat="41.578" lon="0.93472">
        <ele>368.4</ele>
        <time>2022-05-23 19:37:34</time>
      </trkpt>
      <trkpt lat="41.57795" lon="0.93471">
        <ele>368.4</ele>
        <time>2022-05-23 19:37:35</time>
      </trkpt>
      <trkpt lat="41.57788" lon="0.9347">
        <ele>368.6</ele>
        <time>2022-05-23 19:37:36</time>
      </trkpt>
      <trkpt lat="41.57783" lon="0.93468">
        <ele>368.6</ele>
        <time>2022-05-23 19:37:37</time>
      </trkpt>
      <trkpt lat="41.57776" lon="0.93467">
        <ele>368.6</ele>
        <time>2022-05-23 19:37:38</time>
      </trkpt>
      <trkpt lat="41.57772" lon="0.93465">
        <ele>368.6</ele>
        <time>2022-05-23 19:37:39</time>
      </trkpt>
      <trkpt lat="41.57765" lon="0.93464">
        <ele>368.6</ele>
        <time>2022-05-23 19:37:40</time>
      </trkpt>
      <trkpt lat="41.5776" lon="0.93462">
        <ele>368.6</ele>
        <time>2022-05-23 19:37:41</time>
      </trkpt>
      <trkpt lat="41.57753" lon="0.9346">
        <ele>368.8</ele>
        <time>2022-05-23 19:37:42</time>
      </trkpt>
      <trkpt lat="41.57748" lon="0.93459">
        <ele>368.8</ele>
        <time>2022-05-23 19:37:43</time>
      </trkpt>
      <trkpt lat="41.57741" lon="0.93458">
        <ele>368.8</ele>
        <time>2022-05-23 19:37:44</time>
      </trkpt>
      <trkpt lat="41.57736" lon="0.93457">
        <ele>368.8</ele>
        <time>2022-05-23 19:37:45</time>
      </trkpt>
      <trkpt lat="41.57729" lon="0.93455">
        <ele>368.8</ele>
        <time>2022-05-23 19:37:46</time>
      </trkpt>
      <trkpt lat="41.57724" lon="0.93454">
        <ele>368.8</ele>
        <time>2022-05-23 19:37:47</time>
      </trkpt>
      <trkpt lat="41.57717" lon="0.93452">
        <ele>368.8</ele>
        <time>2022-05-23 19:37:48</time>
      </trkpt>
      <trkpt lat="41.57712" lon="0.93451">
        <ele>368.8</ele>
        <time>2022-05-23 19:37:49</time>
      </trkpt>
      <trkpt lat="41.57705" lon="0.93449">
        <ele>368.8</ele>
        <time>2022-05-23 19:37:50</time>
      </trkpt>
      <trkpt lat="41.57699" lon="0.93448">
        <ele>368.8</ele>
        <time>2022-05-23 19:37:51</time>
      </trkpt>
      <trkpt lat="41.57692" lon="0.93446">
        <ele>368.8</ele>
        <time>2022-05-23 19:37:52</time>
      </trkpt>
      <trkpt lat="41.57686" lon="0.93445">
        <ele>369</ele>
        <time>2022-05-23 19:37:53</time>
      </trkpt>
      <trkpt lat="41.5768" lon="0.93443">
        <ele>369.2</ele>
        <time>2022-05-23 19:37:54</time>
      </trkpt>
      <trkpt lat="41.57675" lon="0.93442">
        <ele>369.2</ele>
        <time>2022-05-23 19:37:55</time>
      </trkpt>
      <trkpt lat="41.57668" lon="0.93441">
        <ele>369.2</ele>
        <time>2022-05-23 19:37:56</time>
      </trkpt>
      <trkpt lat="41.57663" lon="0.93439">
        <ele>369</ele>
        <time>2022-05-23 19:37:57</time>
      </trkpt>
      <trkpt lat="41.57655" lon="0.93438">
        <ele>369</ele>
        <time>2022-05-23 19:37:58</time>
      </trkpt>
      <trkpt lat="41.5765" lon="0.93437">
        <ele>369</ele>
        <time>2022-05-23 19:37:59</time>
      </trkpt>
      <trkpt lat="41.57643" lon="0.93435">
        <ele>368.8</ele>
        <time>2022-05-23 19:38:00</time>
      </trkpt>
      <trkpt lat="41.57638" lon="0.93434">
        <ele>369</ele>
        <time>2022-05-23 19:38:01</time>
      </trkpt>
      <trkpt lat="41.57631" lon="0.93432">
        <ele>369</ele>
        <time>2022-05-23 19:38:02</time>
      </trkpt>
      <trkpt lat="41.57626" lon="0.93431">
        <ele>368.8</ele>
        <time>2022-05-23 19:38:03</time>
      </trkpt>
      <trkpt lat="41.57619" lon="0.93429">
        <ele>369</ele>
        <time>2022-05-23 19:38:04</time>
      </trkpt>
      <trkpt lat="41.57614" lon="0.93428">
        <ele>368.8</ele>
        <time>2022-05-23 19:38:05</time>
      </trkpt>
      <trkpt lat="41.57606" lon="0.93427">
        <ele>368.8</ele>
        <time>2022-05-23 19:38:06</time>
      </trkpt>
      <trkpt lat="41.57602" lon="0.93425">
        <ele>368.8</ele>
        <time>2022-05-23 19:38:07</time>
      </trkpt>
      <trkpt lat="41.57594" lon="0.93424">
        <ele>369</ele>
        <time>2022-05-23 19:38:08</time>
      </trkpt>
      <trkpt lat="41.5759" lon="0.93423">
        <ele>369</ele>
        <time>2022-05-23 19:38:09</time>
      </trkpt>
      <trkpt lat="41.57582" lon="0.93421">
        <ele>369</ele>
        <time>2022-05-23 19:38:10</time>
      </trkpt>
      <trkpt lat="41.57577" lon="0.9342">
        <ele>369</ele>
        <time>2022-05-23 19:38:11</time>
      </trkpt>
      <trkpt lat="41.5757" lon="0.93418">
        <ele>369</ele>
        <time>2022-05-23 19:38:12</time>
      </trkpt>
      <trkpt lat="41.57565" lon="0.93417">
        <ele>368.8</ele>
        <time>2022-05-23 19:38:13</time>
      </trkpt>
      <trkpt lat="41.57558" lon="0.93415">
        <ele>369</ele>
        <time>2022-05-23 19:38:14</time>
      </trkpt>
      <trkpt lat="41.57553" lon="0.93414">
        <ele>369</ele>
        <time>2022-05-23 19:38:15</time>
      </trkpt>
      <trkpt lat="41.57546" lon="0.93412">
        <ele>369</ele>
        <time>2022-05-23 19:38:16</time>
      </trkpt>
      <trkpt lat="41.57541" lon="0.93411">
        <ele>369</ele>
        <time>2022-05-23 19:38:17</time>
      </trkpt>
      <trkpt lat="41.57534" lon="0.93409">
        <ele>369</ele>
        <time>2022-05-23 19:38:18</time>
      </trkpt>
      <trkpt lat="41.57529" lon="0.93408">
        <ele>369</ele>
        <time>2022-05-23 19:38:19</time>
      </trkpt>
      <trkpt lat="41.57522" lon="0.93406">
        <ele>369</ele>
        <time>2022-05-23 19:38:20</time>
      </trkpt>
      <trkpt lat="41.57517" lon="0.93405">
        <ele>369</ele>
        <time>2022-05-23 19:38:21</time>
      </trkpt>
      <trkpt lat="41.5751" lon="0.93403">
        <ele>369.2</ele>
        <time>2022-05-23 19:38:22</time>
      </trkpt>
      <trkpt lat="41.57506" lon="0.93402">
        <ele>369.2</ele>
        <time>2022-05-23 19:38:23</time>
      </trkpt>
      <trkpt lat="41.57498" lon="0.93401">
        <ele>369.2</ele>
        <time>2022-05-23 19:38:24</time>
      </trkpt>
      <trkpt lat="41.57493" lon="0.93399">
        <ele>369.2</ele>
        <time>2022-05-23 19:38:25</time>
      </trkpt>
      <trkpt lat="41.57487" lon="0.93398">
        <ele>369.2</ele>
        <time>2022-05-23 19:38:26</time>
      </trkpt>
      <trkpt lat="41.57482" lon="0.93397">
        <ele>369.4</ele>
        <time>2022-05-23 19:38:27</time>
      </trkpt>
      <trkpt lat="41.57475" lon="0.93395">
        <ele>369.6</ele>
        <time>2022-05-23 19:38:28</time>
      </trkpt>
      <trkpt lat="41.5747" lon="0.93394">
        <ele>369.6</ele>
        <time>2022-05-23 19:38:29</time>
      </trkpt>
      <trkpt lat="41.57463" lon="0.93392">
        <ele>369.8</ele>
        <time>2022-05-23 19:38:30</time>
      </trkpt>
      <trkpt lat="41.57458" lon="0.93391">
        <ele>369.8</ele>
        <time>2022-05-23 19:38:31</time>
      </trkpt>
      <trkpt lat="41.57451" lon="0.93389">
        <ele>369.8</ele>
        <time>2022-05-23 19:38:32</time>
      </trkpt>
      <trkpt lat="41.57445" lon="0.93389">
        <ele>369.8</ele>
        <time>2022-05-23 19:38:33</time>
      </trkpt>
      <trkpt lat="41.5744" lon="0.93387">
        <ele>369.8</ele>
        <time>2022-05-23 19:38:34</time>
      </trkpt>
      <trkpt lat="41.57433" lon="0.93385">
        <ele>369.8</ele>
        <time>2022-05-23 19:38:35</time>
      </trkpt>
      <trkpt lat="41.57427" lon="0.93384">
        <ele>369.8</ele>
        <time>2022-05-23 19:38:36</time>
      </trkpt>
      <trkpt lat="41.57421" lon="0.93383">
        <ele>369.8</ele>
        <time>2022-05-23 19:38:37</time>
      </trkpt>
      <trkpt lat="41.57413" lon="0.93381">
        <ele>369.8</ele>
        <time>2022-05-23 19:38:38</time>
      </trkpt>
      <trkpt lat="41.57408" lon="0.9338">
        <ele>369.8</ele>
        <time>2022-05-23 19:38:39</time>
      </trkpt>
      <trkpt lat="41.57401" lon="0.93378">
        <ele>370</ele>
        <time>2022-05-23 19:38:40</time>
      </trkpt>
      <trkpt lat="41.57396" lon="0.93377">
        <ele>370</ele>
        <time>2022-05-23 19:38:41</time>
      </trkpt>
      <trkpt lat="41.57389" lon="0.93375">
        <ele>370.2</ele>
        <time>2022-05-23 19:38:42</time>
      </trkpt>
      <trkpt lat="41.57384" lon="0.93374">
        <ele>370.4</ele>
        <time>2022-05-23 19:38:43</time>
      </trkpt>
      <trkpt lat="41.57377" lon="0.93371">
        <ele>370.6</ele>
        <time>2022-05-23 19:38:44</time>
      </trkpt>
      <trkpt lat="41.57373" lon="0.9337">
        <ele>370.6</ele>
        <time>2022-05-23 19:38:45</time>
      </trkpt>
      <trkpt lat="41.57366" lon="0.93369">
        <ele>370.8</ele>
        <time>2022-05-23 19:38:46</time>
      </trkpt>
      <trkpt lat="41.57361" lon="0.93367">
        <ele>370.8</ele>
        <time>2022-05-23 19:38:47</time>
      </trkpt>
      <trkpt lat="41.57354" lon="0.93366">
        <ele>370.8</ele>
        <time>2022-05-23 19:38:48</time>
      </trkpt>
      <trkpt lat="41.5735" lon="0.93364">
        <ele>370.8</ele>
        <time>2022-05-23 19:38:49</time>
      </trkpt>
      <trkpt lat="41.57343" lon="0.93363">
        <ele>370.8</ele>
        <time>2022-05-23 19:38:50</time>
      </trkpt>
      <trkpt lat="41.57338" lon="0.93362">
        <ele>370.8</ele>
        <time>2022-05-23 19:38:51</time>
      </trkpt>
      <trkpt lat="41.57331" lon="0.9336">
        <ele>370.8</ele>
        <time>2022-05-23 19:38:52</time>
      </trkpt>
      <trkpt lat="41.57326" lon="0.93359">
        <ele>370.8</ele>
        <time>2022-05-23 19:38:53</time>
      </trkpt>
      <trkpt lat="41.5732" lon="0.93357">
        <ele>371</ele>
        <time>2022-05-23 19:38:54</time>
      </trkpt>
      <trkpt lat="41.57316" lon="0.93356">
        <ele>371</ele>
        <time>2022-05-23 19:38:55</time>
      </trkpt>
      <trkpt lat="41.57308" lon="0.93354">
        <ele>371.2</ele>
        <time>2022-05-23 19:38:56</time>
      </trkpt>
      <trkpt lat="41.57304" lon="0.93353">
        <ele>371.2</ele>
        <time>2022-05-23 19:38:57</time>
      </trkpt>
      <trkpt lat="41.57296" lon="0.93352">
        <ele>371.2</ele>
        <time>2022-05-23 19:38:58</time>
      </trkpt>
      <trkpt lat="41.57292" lon="0.93351">
        <ele>371.4</ele>
        <time>2022-05-23 19:38:59</time>
      </trkpt>
      <trkpt lat="41.57284" lon="0.93349">
        <ele>371.6</ele>
        <time>2022-05-23 19:39:00</time>
      </trkpt>
      <trkpt lat="41.5728" lon="0.93348">
        <ele>371.8</ele>
        <time>2022-05-23 19:39:01</time>
      </trkpt>
      <trkpt lat="41.57273" lon="0.93346">
        <ele>371.8</ele>
        <time>2022-05-23 19:39:02</time>
      </trkpt>
      <trkpt lat="41.57268" lon="0.93345">
        <ele>371.8</ele>
        <time>2022-05-23 19:39:03</time>
      </trkpt>
      <trkpt lat="41.57261" lon="0.93343">
        <ele>372</ele>
        <time>2022-05-23 19:39:04</time>
      </trkpt>
      <trkpt lat="41.57256" lon="0.93342">
        <ele>372</ele>
        <time>2022-05-23 19:39:05</time>
      </trkpt>
      <trkpt lat="41.5725" lon="0.9334">
        <ele>372</ele>
        <time>2022-05-23 19:39:06</time>
      </trkpt>
      <trkpt lat="41.57245" lon="0.93339">
        <ele>372</ele>
        <time>2022-05-23 19:39:07</time>
      </trkpt>
      <trkpt lat="41.57238" lon="0.93337">
        <ele>372.2</ele>
        <time>2022-05-23 19:39:08</time>
      </trkpt>
      <trkpt lat="41.57233" lon="0.93336">
        <ele>372.2</ele>
        <time>2022-05-23 19:39:09</time>
      </trkpt>
      <trkpt lat="41.57226" lon="0.93335">
        <ele>372.2</ele>
        <time>2022-05-23 19:39:10</time>
      </trkpt>
      <trkpt lat="41.57222" lon="0.93334">
        <ele>372.2</ele>
        <time>2022-05-23 19:39:11</time>
      </trkpt>
      <trkpt lat="41.57214" lon="0.93332">
        <ele>372.2</ele>
        <time>2022-05-23 19:39:12</time>
      </trkpt>
      <trkpt lat="41.5721" lon="0.93331">
        <ele>372.2</ele>
        <time>2022-05-23 19:39:13</time>
      </trkpt>
      <trkpt lat="41.57202" lon="0.93329">
        <ele>372</ele>
        <time>2022-05-23 19:39:14</time>
      </trkpt>
      <trkpt lat="41.57198" lon="0.93328">
        <ele>372</ele>
        <time>2022-05-23 19:39:15</time>
      </trkpt>
      <trkpt lat="41.57191" lon="0.93326">
        <ele>372</ele>
        <time>2022-05-23 19:39:16</time>
      </trkpt>
      <trkpt lat="41.57186" lon="0.93325">
        <ele>372</ele>
        <time>2022-05-23 19:39:17</time>
      </trkpt>
      <trkpt lat="41.57179" lon="0.93323">
        <ele>372</ele>
        <time>2022-05-23 19:39:18</time>
      </trkpt>
      <trkpt lat="41.57173" lon="0.93322">
        <ele>372</ele>
        <time>2022-05-23 19:39:19</time>
      </trkpt>
      <trkpt lat="41.57166" lon="0.9332">
        <ele>372</ele>
        <time>2022-05-23 19:39:20</time>
      </trkpt>
      <trkpt lat="41.5716" lon="0.93319">
        <ele>372</ele>
        <time>2022-05-23 19:39:21</time>
      </trkpt>
      <trkpt lat="41.57155" lon="0.93318">
        <ele>372</ele>
        <time>2022-05-23 19:39:22</time>
      </trkpt>
      <trkpt lat="41.5715" lon="0.93316">
        <ele>372</ele>
        <time>2022-05-23 19:39:23</time>
      </trkpt>
      <trkpt lat="41.57142" lon="0.93315">
        <ele>372</ele>
        <time>2022-05-23 19:39:24</time>
      </trkpt>
      <trkpt lat="41.57136" lon="0.93313">
        <ele>372.2</ele>
        <time>2022-05-23 19:39:25</time>
      </trkpt>
      <trkpt lat="41.5713" lon="0.93312">
        <ele>372.2</ele>
        <time>2022-05-23 19:39:26</time>
      </trkpt>
      <trkpt lat="41.57124" lon="0.9331">
        <ele>372.2</ele>
        <time>2022-05-23 19:39:27</time>
      </trkpt>
      <trkpt lat="41.57118" lon="0.93309">
        <ele>372.2</ele>
        <time>2022-05-23 19:39:28</time>
      </trkpt>
      <trkpt lat="41.57112" lon="0.93307">
        <ele>372.2</ele>
        <time>2022-05-23 19:39:29</time>
      </trkpt>
      <trkpt lat="41.57106" lon="0.93306">
        <ele>372.2</ele>
        <time>2022-05-23 19:39:30</time>
      </trkpt>
      <trkpt lat="41.571" lon="0.93305">
        <ele>372.4</ele>
        <time>2022-05-23 19:39:31</time>
      </trkpt>
      <trkpt lat="41.57095" lon="0.93303">
        <ele>372.4</ele>
        <time>2022-05-23 19:39:32</time>
      </trkpt>
      <trkpt lat="41.57089" lon="0.93302">
        <ele>372.4</ele>
        <time>2022-05-23 19:39:33</time>
      </trkpt>
      <trkpt lat="41.57083" lon="0.933">
        <ele>372.4</ele>
        <time>2022-05-23 19:39:34</time>
      </trkpt>
      <trkpt lat="41.57078" lon="0.93299">
        <ele>372.6</ele>
        <time>2022-05-23 19:39:35</time>
      </trkpt>
      <trkpt lat="41.57072" lon="0.93298">
        <ele>372.6</ele>
        <time>2022-05-23 19:39:36</time>
      </trkpt>
      <trkpt lat="41.57067" lon="0.93296">
        <ele>372.6</ele>
        <time>2022-05-23 19:39:37</time>
      </trkpt>
      <trkpt lat="41.57061" lon="0.93295">
        <ele>372.6</ele>
        <time>2022-05-23 19:39:38</time>
      </trkpt>
      <trkpt lat="41.57055" lon="0.93294">
        <ele>372.6</ele>
        <time>2022-05-23 19:39:39</time>
      </trkpt>
      <trkpt lat="41.5705" lon="0.93292">
        <ele>372.6</ele>
        <time>2022-05-23 19:39:40</time>
      </trkpt>
      <trkpt lat="41.57045" lon="0.93291">
        <ele>372.6</ele>
        <time>2022-05-23 19:39:41</time>
      </trkpt>
      <trkpt lat="41.57039" lon="0.9329">
        <ele>372.8</ele>
        <time>2022-05-23 19:39:42</time>
      </trkpt>
      <trkpt lat="41.57033" lon="0.93288">
        <ele>372.8</ele>
        <time>2022-05-23 19:39:43</time>
      </trkpt>
      <trkpt lat="41.57028" lon="0.93287">
        <ele>372.8</ele>
        <time>2022-05-23 19:39:44</time>
      </trkpt>
      <trkpt lat="41.57022" lon="0.93286">
        <ele>372.8</ele>
        <time>2022-05-23 19:39:45</time>
      </trkpt>
      <trkpt lat="41.57017" lon="0.93284">
        <ele>372.8</ele>
        <time>2022-05-23 19:39:46</time>
      </trkpt>
      <trkpt lat="41.57011" lon="0.93283">
        <ele>372.8</ele>
        <time>2022-05-23 19:39:47</time>
      </trkpt>
      <trkpt lat="41.57005" lon="0.93282">
        <ele>372.8</ele>
        <time>2022-05-23 19:39:48</time>
      </trkpt>
      <trkpt lat="41.57001" lon="0.9328">
        <ele>372.8</ele>
        <time>2022-05-23 19:39:49</time>
      </trkpt>
      <trkpt lat="41.56995" lon="0.93279">
        <ele>372.8</ele>
        <time>2022-05-23 19:39:50</time>
      </trkpt>
      <trkpt lat="41.56989" lon="0.93277">
        <ele>372.8</ele>
        <time>2022-05-23 19:39:51</time>
      </trkpt>
      <trkpt lat="41.56983" lon="0.93276">
        <ele>372.8</ele>
        <time>2022-05-23 19:39:52</time>
      </trkpt>
      <trkpt lat="41.56978" lon="0.93274">
        <ele>372.8</ele>
        <time>2022-05-23 19:39:53</time>
      </trkpt>
      <trkpt lat="41.56972" lon="0.93273">
        <ele>372.8</ele>
        <time>2022-05-23 19:39:54</time>
      </trkpt>
      <trkpt lat="41.56966" lon="0.93272">
        <ele>372.8</ele>
        <time>2022-05-23 19:39:55</time>
      </trkpt>
      <trkpt lat="41.5696" lon="0.9327">
        <ele>373</ele>
        <time>2022-05-23 19:39:56</time>
      </trkpt>
      <trkpt lat="41.56955" lon="0.93269">
        <ele>373</ele>
        <time>2022-05-23 19:39:57</time>
      </trkpt>
      <trkpt lat="41.56949" lon="0.93267">
        <ele>373</ele>
        <time>2022-05-23 19:39:58</time>
      </trkpt>
      <trkpt lat="41.56944" lon="0.93266">
        <ele>373</ele>
        <time>2022-05-23 19:39:59</time>
      </trkpt>
      <trkpt lat="41.56938" lon="0.93265">
        <ele>373</ele>
        <time>2022-05-23 19:40:00</time>
      </trkpt>
      <trkpt lat="41.56933" lon="0.93263">
        <ele>373</ele>
        <time>2022-05-23 19:40:01</time>
      </trkpt>
      <trkpt lat="41.56927" lon="0.93262">
        <ele>373</ele>
        <time>2022-05-23 19:40:02</time>
      </trkpt>
      <trkpt lat="41.56921" lon="0.93261">
        <ele>373.2</ele>
        <time>2022-05-23 19:40:03</time>
      </trkpt>
      <trkpt lat="41.56916" lon="0.9326">
        <ele>373.2</ele>
        <time>2022-05-23 19:40:04</time>
      </trkpt>
      <trkpt lat="41.5691" lon="0.93258">
        <ele>373.2</ele>
        <time>2022-05-23 19:40:05</time>
      </trkpt>
      <trkpt lat="41.56905" lon="0.93257">
        <ele>373.2</ele>
        <time>2022-05-23 19:40:06</time>
      </trkpt>
      <trkpt lat="41.56899" lon="0.93256">
        <ele>373.2</ele>
        <time>2022-05-23 19:40:07</time>
      </trkpt>
      <trkpt lat="41.56894" lon="0.93254">
        <ele>373.4</ele>
        <time>2022-05-23 19:40:08</time>
      </trkpt>
      <trkpt lat="41.56888" lon="0.93253">
        <ele>373.4</ele>
        <time>2022-05-23 19:40:09</time>
      </trkpt>
      <trkpt lat="41.56883" lon="0.93252">
        <ele>373.4</ele>
        <time>2022-05-23 19:40:10</time>
      </trkpt>
      <trkpt lat="41.56877" lon="0.9325">
        <ele>373.6</ele>
        <time>2022-05-23 19:40:11</time>
      </trkpt>
      <trkpt lat="41.56871" lon="0.93249">
        <ele>373.6</ele>
        <time>2022-05-23 19:40:12</time>
      </trkpt>
      <trkpt lat="41.56865" lon="0.93248">
        <ele>373.6</ele>
        <time>2022-05-23 19:40:13</time>
      </trkpt>
      <trkpt lat="41.56859" lon="0.93246">
        <ele>373.6</ele>
        <time>2022-05-23 19:40:14</time>
      </trkpt>
      <trkpt lat="41.56854" lon="0.93245">
        <ele>373.6</ele>
        <time>2022-05-23 19:40:15</time>
      </trkpt>
      <trkpt lat="41.56848" lon="0.93244">
        <ele>373.6</ele>
        <time>2022-05-23 19:40:16</time>
      </trkpt>
      <trkpt lat="41.56843" lon="0.93242">
        <ele>373.8</ele>
        <time>2022-05-23 19:40:17</time>
      </trkpt>
      <trkpt lat="41.56837" lon="0.93241">
        <ele>373.8</ele>
        <time>2022-05-23 19:40:18</time>
      </trkpt>
      <trkpt lat="41.56832" lon="0.9324">
        <ele>373.8</ele>
        <time>2022-05-23 19:40:19</time>
      </trkpt>
      <trkpt lat="41.56826" lon="0.93238">
        <ele>373.8</ele>
        <time>2022-05-23 19:40:20</time>
      </trkpt>
      <trkpt lat="41.56821" lon="0.93237">
        <ele>374</ele>
        <time>2022-05-23 19:40:21</time>
      </trkpt>
      <trkpt lat="41.56816" lon="0.93236">
        <ele>374</ele>
        <time>2022-05-23 19:40:22</time>
      </trkpt>
      <trkpt lat="41.5681" lon="0.93235">
        <ele>374</ele>
        <time>2022-05-23 19:40:23</time>
      </trkpt>
      <trkpt lat="41.56805" lon="0.93233">
        <ele>374.2</ele>
        <time>2022-05-23 19:40:24</time>
      </trkpt>
      <trkpt lat="41.568" lon="0.93232">
        <ele>374.2</ele>
        <time>2022-05-23 19:40:25</time>
      </trkpt>
      <trkpt lat="41.56795" lon="0.93231">
        <ele>374.4</ele>
        <time>2022-05-23 19:40:26</time>
      </trkpt>
      <trkpt lat="41.56789" lon="0.9323">
        <ele>374.4</ele>
        <time>2022-05-23 19:40:27</time>
      </trkpt>
      <trkpt lat="41.56784" lon="0.93228">
        <ele>374.6</ele>
        <time>2022-05-23 19:40:28</time>
      </trkpt>
      <trkpt lat="41.56779" lon="0.93227">
        <ele>374.6</ele>
        <time>2022-05-23 19:40:29</time>
      </trkpt>
      <trkpt lat="41.56773" lon="0.93226">
        <ele>374.6</ele>
        <time>2022-05-23 19:40:30</time>
      </trkpt>
      <trkpt lat="41.56768" lon="0.93225">
        <ele>374.6</ele>
        <time>2022-05-23 19:40:31</time>
      </trkpt>
      <trkpt lat="41.56763" lon="0.93224">
        <ele>374.8</ele>
        <time>2022-05-23 19:40:32</time>
      </trkpt>
      <trkpt lat="41.56757" lon="0.93223">
        <ele>374.8</ele>
        <time>2022-05-23 19:40:33</time>
      </trkpt>
      <trkpt lat="41.56752" lon="0.93221">
        <ele>374.8</ele>
        <time>2022-05-23 19:40:34</time>
      </trkpt>
      <trkpt lat="41.56747" lon="0.9322">
        <ele>375</ele>
        <time>2022-05-23 19:40:35</time>
      </trkpt>
      <trkpt lat="41.56741" lon="0.93218">
        <ele>375</ele>
        <time>2022-05-23 19:40:36</time>
      </trkpt>
      <trkpt lat="41.56736" lon="0.93217">
        <ele>375</ele>
        <time>2022-05-23 19:40:37</time>
      </trkpt>
      <trkpt lat="41.5673" lon="0.93216">
        <ele>375.2</ele>
        <time>2022-05-23 19:40:38</time>
      </trkpt>
      <trkpt lat="41.56725" lon="0.93215">
        <ele>375.2</ele>
        <time>2022-05-23 19:40:39</time>
      </trkpt>
      <trkpt lat="41.5672" lon="0.93213">
        <ele>375.2</ele>
        <time>2022-05-23 19:40:40</time>
      </trkpt>
      <trkpt lat="41.56715" lon="0.93212">
        <ele>375.2</ele>
        <time>2022-05-23 19:40:41</time>
      </trkpt>
      <trkpt lat="41.56709" lon="0.93211">
        <ele>375.2</ele>
        <time>2022-05-23 19:40:42</time>
      </trkpt>
      <trkpt lat="41.56703" lon="0.9321">
        <ele>375.2</ele>
        <time>2022-05-23 19:40:43</time>
      </trkpt>
      <trkpt lat="41.56698" lon="0.93209">
        <ele>375.2</ele>
        <time>2022-05-23 19:40:44</time>
      </trkpt>
      <trkpt lat="41.56693" lon="0.93207">
        <ele>375.2</ele>
        <time>2022-05-23 19:40:45</time>
      </trkpt>
      <trkpt lat="41.56687" lon="0.93206">
        <ele>375.2</ele>
        <time>2022-05-23 19:40:46</time>
      </trkpt>
      <trkpt lat="41.56682" lon="0.93205">
        <ele>375.2</ele>
        <time>2022-05-23 19:40:47</time>
      </trkpt>
      <trkpt lat="41.56677" lon="0.93203">
        <ele>375.2</ele>
        <time>2022-05-23 19:40:48</time>
      </trkpt>
      <trkpt lat="41.56671" lon="0.93202">
        <ele>375.2</ele>
        <time>2022-05-23 19:40:49</time>
      </trkpt>
      <trkpt lat="41.56666" lon="0.93201">
        <ele>375.4</ele>
        <time>2022-05-23 19:40:50</time>
      </trkpt>
      <trkpt lat="41.56661" lon="0.932">
        <ele>375.4</ele>
        <time>2022-05-23 19:40:51</time>
      </trkpt>
      <trkpt lat="41.56655" lon="0.93198">
        <ele>375.4</ele>
        <time>2022-05-23 19:40:52</time>
      </trkpt>
      <trkpt lat="41.5665" lon="0.93197">
        <ele>375.4</ele>
        <time>2022-05-23 19:40:53</time>
      </trkpt>
      <trkpt lat="41.56645" lon="0.93196">
        <ele>375.4</ele>
        <time>2022-05-23 19:40:54</time>
      </trkpt>
      <trkpt lat="41.56639" lon="0.93195">
        <ele>375.4</ele>
        <time>2022-05-23 19:40:55</time>
      </trkpt>
      <trkpt lat="41.56634" lon="0.93193">
        <ele>375.4</ele>
        <time>2022-05-23 19:40:56</time>
      </trkpt>
      <trkpt lat="41.56628" lon="0.93192">
        <ele>375.6</ele>
        <time>2022-05-23 19:40:57</time>
      </trkpt>
      <trkpt lat="41.56623" lon="0.93191">
        <ele>375.6</ele>
        <time>2022-05-23 19:40:58</time>
      </trkpt>
      <trkpt lat="41.56617" lon="0.93189">
        <ele>375.6</ele>
        <time>2022-05-23 19:40:59</time>
      </trkpt>
      <trkpt lat="41.56612" lon="0.93188">
        <ele>375.6</ele>
        <time>2022-05-23 19:41:00</time>
      </trkpt>
      <trkpt lat="41.56607" lon="0.93187">
        <ele>375.6</ele>
        <time>2022-05-23 19:41:01</time>
      </trkpt>
      <trkpt lat="41.56602" lon="0.93186">
        <ele>375.8</ele>
        <time>2022-05-23 19:41:02</time>
      </trkpt>
      <trkpt lat="41.56596" lon="0.93184">
        <ele>375.8</ele>
        <time>2022-05-23 19:41:03</time>
      </trkpt>
      <trkpt lat="41.56591" lon="0.93183">
        <ele>375.8</ele>
        <time>2022-05-23 19:41:04</time>
      </trkpt>
      <trkpt lat="41.56585" lon="0.93181">
        <ele>376</ele>
        <time>2022-05-23 19:41:05</time>
      </trkpt>
      <trkpt lat="41.56579" lon="0.9318">
        <ele>376</ele>
        <time>2022-05-23 19:41:06</time>
      </trkpt>
      <trkpt lat="41.56573" lon="0.93179">
        <ele>376</ele>
        <time>2022-05-23 19:41:07</time>
      </trkpt>
      <trkpt lat="41.56568" lon="0.93177">
        <ele>376</ele>
        <time>2022-05-23 19:41:08</time>
      </trkpt>
      <trkpt lat="41.56563" lon="0.93176">
        <ele>376</ele>
        <time>2022-05-23 19:41:09</time>
      </trkpt>
      <trkpt lat="41.56558" lon="0.93175">
        <ele>376.2</ele>
        <time>2022-05-23 19:41:10</time>
      </trkpt>
      <trkpt lat="41.56552" lon="0.93174">
        <ele>376.2</ele>
        <time>2022-05-23 19:41:11</time>
      </trkpt>
      <trkpt lat="41.56547" lon="0.93172">
        <ele>376.2</ele>
        <time>2022-05-23 19:41:12</time>
      </trkpt>
      <trkpt lat="41.56542" lon="0.93171">
        <ele>376.2</ele>
        <time>2022-05-23 19:41:13</time>
      </trkpt>
      <trkpt lat="41.56537" lon="0.93169">
        <ele>376.4</ele>
        <time>2022-05-23 19:41:14</time>
      </trkpt>
      <trkpt lat="41.56531" lon="0.93168">
        <ele>376.4</ele>
        <time>2022-05-23 19:41:15</time>
      </trkpt>
      <trkpt lat="41.56526" lon="0.93167">
        <ele>376.4</ele>
        <time>2022-05-23 19:41:16</time>
      </trkpt>
      <trkpt lat="41.5652" lon="0.93165">
        <ele>376.4</ele>
        <time>2022-05-23 19:41:17</time>
      </trkpt>
      <trkpt lat="41.56515" lon="0.93164">
        <ele>376.4</ele>
        <time>2022-05-23 19:41:18</time>
      </trkpt>
      <trkpt lat="41.56509" lon="0.93162">
        <ele>376.6</ele>
        <time>2022-05-23 19:41:19</time>
      </trkpt>
      <trkpt lat="41.56504" lon="0.9316">
        <ele>376.6</ele>
        <time>2022-05-23 19:41:20</time>
      </trkpt>
      <trkpt lat="41.56499" lon="0.93158">
        <ele>376.6</ele>
        <time>2022-05-23 19:41:21</time>
      </trkpt>
      <trkpt lat="41.56493" lon="0.93157">
        <ele>376.6</ele>
        <time>2022-05-23 19:41:22</time>
      </trkpt>
      <trkpt lat="41.56487" lon="0.93154">
        <ele>376.6</ele>
        <time>2022-05-23 19:41:23</time>
      </trkpt>
      <trkpt lat="41.56482" lon="0.93152">
        <ele>376.4</ele>
        <time>2022-05-23 19:41:24</time>
      </trkpt>
      <trkpt lat="41.56477" lon="0.9315">
        <ele>376.4</ele>
        <time>2022-05-23 19:41:25</time>
      </trkpt>
      <trkpt lat="41.56472" lon="0.93148">
        <ele>376.4</ele>
        <time>2022-05-23 19:41:26</time>
      </trkpt>
      <trkpt lat="41.56466" lon="0.93146">
        <ele>376.6</ele>
        <time>2022-05-23 19:41:27</time>
      </trkpt>
      <trkpt lat="41.56461" lon="0.93144">
        <ele>376.8</ele>
        <time>2022-05-23 19:41:28</time>
      </trkpt>
      <trkpt lat="41.56455" lon="0.93142">
        <ele>376.8</ele>
        <time>2022-05-23 19:41:29</time>
      </trkpt>
      <trkpt lat="41.5645" lon="0.9314">
        <ele>376.8</ele>
        <time>2022-05-23 19:41:30</time>
      </trkpt>
      <trkpt lat="41.56445" lon="0.93137">
        <ele>377</ele>
        <time>2022-05-23 19:41:31</time>
      </trkpt>
      <trkpt lat="41.5644" lon="0.93135">
        <ele>377</ele>
        <time>2022-05-23 19:41:32</time>
      </trkpt>
      <trkpt lat="41.56435" lon="0.93133">
        <ele>377</ele>
        <time>2022-05-23 19:41:33</time>
      </trkpt>
      <trkpt lat="41.56429" lon="0.9313">
        <ele>377</ele>
        <time>2022-05-23 19:41:34</time>
      </trkpt>
      <trkpt lat="41.56424" lon="0.93128">
        <ele>377.2</ele>
        <time>2022-05-23 19:41:35</time>
      </trkpt>
      <trkpt lat="41.56419" lon="0.93125">
        <ele>377.2</ele>
        <time>2022-05-23 19:41:36</time>
      </trkpt>
      <trkpt lat="41.56413" lon="0.93122">
        <ele>377.2</ele>
        <time>2022-05-23 19:41:37</time>
      </trkpt>
      <trkpt lat="41.56408" lon="0.93119">
        <ele>377.2</ele>
        <time>2022-05-23 19:41:38</time>
      </trkpt>
      <trkpt lat="41.56403" lon="0.93115">
        <ele>377.2</ele>
        <time>2022-05-23 19:41:39</time>
      </trkpt>
      <trkpt lat="41.56398" lon="0.93112">
        <ele>377.2</ele>
        <time>2022-05-23 19:41:40</time>
      </trkpt>
      <trkpt lat="41.56392" lon="0.93109">
        <ele>377.2</ele>
        <time>2022-05-23 19:41:41</time>
      </trkpt>
      <trkpt lat="41.56387" lon="0.93106">
        <ele>377.2</ele>
        <time>2022-05-23 19:41:42</time>
      </trkpt>
      <trkpt lat="41.56381" lon="0.93102">
        <ele>377.2</ele>
        <time>2022-05-23 19:41:43</time>
      </trkpt>
      <trkpt lat="41.56377" lon="0.931">
        <ele>377.2</ele>
        <time>2022-05-23 19:41:44</time>
      </trkpt>
      <trkpt lat="41.56372" lon="0.93096">
        <ele>377.2</ele>
        <time>2022-05-23 19:41:45</time>
      </trkpt>
      <trkpt lat="41.56367" lon="0.93093">
        <ele>377.4</ele>
        <time>2022-05-23 19:41:46</time>
      </trkpt>
      <trkpt lat="41.56362" lon="0.9309">
        <ele>377.4</ele>
        <time>2022-05-23 19:41:47</time>
      </trkpt>
      <trkpt lat="41.56357" lon="0.93087">
        <ele>377.4</ele>
        <time>2022-05-23 19:41:48</time>
      </trkpt>
      <trkpt lat="41.56352" lon="0.93084">
        <ele>377.6</ele>
        <time>2022-05-23 19:41:49</time>
      </trkpt>
      <trkpt lat="41.56347" lon="0.93081">
        <ele>377.6</ele>
        <time>2022-05-23 19:41:50</time>
      </trkpt>
      <trkpt lat="41.56342" lon="0.93077">
        <ele>377.6</ele>
        <time>2022-05-23 19:41:51</time>
      </trkpt>
      <trkpt lat="41.56337" lon="0.93074">
        <ele>377.6</ele>
        <time>2022-05-23 19:41:52</time>
      </trkpt>
      <trkpt lat="41.56332" lon="0.93071">
        <ele>377.4</ele>
        <time>2022-05-23 19:41:53</time>
      </trkpt>
      <trkpt lat="41.56327" lon="0.93068">
        <ele>377.6</ele>
        <time>2022-05-23 19:41:54</time>
      </trkpt>
      <trkpt lat="41.56322" lon="0.93065">
        <ele>377.4</ele>
        <time>2022-05-23 19:41:55</time>
      </trkpt>
      <trkpt lat="41.56317" lon="0.93062">
        <ele>377.4</ele>
        <time>2022-05-23 19:41:56</time>
      </trkpt>
      <trkpt lat="41.56312" lon="0.93059">
        <ele>377.4</ele>
        <time>2022-05-23 19:41:57</time>
      </trkpt>
      <trkpt lat="41.56307" lon="0.93055">
        <ele>377.4</ele>
        <time>2022-05-23 19:41:58</time>
      </trkpt>
      <trkpt lat="41.56302" lon="0.93052">
        <ele>377.4</ele>
        <time>2022-05-23 19:41:59</time>
      </trkpt>
      <trkpt lat="41.56298" lon="0.93049">
        <ele>377.4</ele>
        <time>2022-05-23 19:42:00</time>
      </trkpt>
      <trkpt lat="41.56293" lon="0.93046">
        <ele>377.6</ele>
        <time>2022-05-23 19:42:01</time>
      </trkpt>
      <trkpt lat="41.56288" lon="0.93043">
        <ele>377.6</ele>
        <time>2022-05-23 19:42:02</time>
      </trkpt>
      <trkpt lat="41.56283" lon="0.9304">
        <ele>377.6</ele>
        <time>2022-05-23 19:42:03</time>
      </trkpt>
      <trkpt lat="41.56278" lon="0.93037">
        <ele>377.8</ele>
        <time>2022-05-23 19:42:04</time>
      </trkpt>
      <trkpt lat="41.56273" lon="0.93033">
        <ele>377.6</ele>
        <time>2022-05-23 19:42:05</time>
      </trkpt>
      <trkpt lat="41.56268" lon="0.9303">
        <ele>377.6</ele>
        <time>2022-05-23 19:42:06</time>
      </trkpt>
      <trkpt lat="41.56264" lon="0.93027">
        <ele>377.6</ele>
        <time>2022-05-23 19:42:07</time>
      </trkpt>
      <trkpt lat="41.56258" lon="0.93024">
        <ele>377.6</ele>
        <time>2022-05-23 19:42:08</time>
      </trkpt>
      <trkpt lat="41.56253" lon="0.93021">
        <ele>377.6</ele>
        <time>2022-05-23 19:42:09</time>
      </trkpt>
      <trkpt lat="41.56248" lon="0.93017">
        <ele>377.6</ele>
        <time>2022-05-23 19:42:10</time>
      </trkpt>
      <trkpt lat="41.56243" lon="0.93014">
        <ele>377.6</ele>
        <time>2022-05-23 19:42:11</time>
      </trkpt>
      <trkpt lat="41.56238" lon="0.93011">
        <ele>377.6</ele>
        <time>2022-05-23 19:42:12</time>
      </trkpt>
      <trkpt lat="41.56234" lon="0.93008">
        <ele>377.8</ele>
        <time>2022-05-23 19:42:13</time>
      </trkpt>
      <trkpt lat="41.56229" lon="0.93005">
        <ele>377.8</ele>
        <time>2022-05-23 19:42:14</time>
      </trkpt>
      <trkpt lat="41.56224" lon="0.93002">
        <ele>377.8</ele>
        <time>2022-05-23 19:42:15</time>
      </trkpt>
      <trkpt lat="41.56219" lon="0.92999">
        <ele>378</ele>
        <time>2022-05-23 19:42:16</time>
      </trkpt>
      <trkpt lat="41.56214" lon="0.92996">
        <ele>378</ele>
        <time>2022-05-23 19:42:17</time>
      </trkpt>
      <trkpt lat="41.5621" lon="0.92993">
        <ele>378</ele>
        <time>2022-05-23 19:42:18</time>
      </trkpt>
      <trkpt lat="41.56204" lon="0.9299">
        <ele>378</ele>
        <time>2022-05-23 19:42:19</time>
      </trkpt>
      <trkpt lat="41.56199" lon="0.92986">
        <ele>377.8</ele>
        <time>2022-05-23 19:42:20</time>
      </trkpt>
      <trkpt lat="41.56194" lon="0.92983">
        <ele>378</ele>
        <time>2022-05-23 19:42:21</time>
      </trkpt>
      <trkpt lat="41.5619" lon="0.9298">
        <ele>378</ele>
        <time>2022-05-23 19:42:22</time>
      </trkpt>
      <trkpt lat="41.56184" lon="0.92977">
        <ele>378</ele>
        <time>2022-05-23 19:42:23</time>
      </trkpt>
      <trkpt lat="41.56179" lon="0.92974">
        <ele>378</ele>
        <time>2022-05-23 19:42:24</time>
      </trkpt>
      <trkpt lat="41.56174" lon="0.9297">
        <ele>378</ele>
        <time>2022-05-23 19:42:25</time>
      </trkpt>
      <trkpt lat="41.5617" lon="0.92967">
        <ele>378</ele>
        <time>2022-05-23 19:42:26</time>
      </trkpt>
      <trkpt lat="41.56164" lon="0.92964">
        <ele>378</ele>
        <time>2022-05-23 19:42:27</time>
      </trkpt>
      <trkpt lat="41.5616" lon="0.92961">
        <ele>378</ele>
        <time>2022-05-23 19:42:28</time>
      </trkpt>
      <trkpt lat="41.56154" lon="0.92957">
        <ele>378</ele>
        <time>2022-05-23 19:42:29</time>
      </trkpt>
      <trkpt lat="41.5615" lon="0.92954">
        <ele>378</ele>
        <time>2022-05-23 19:42:30</time>
      </trkpt>
      <trkpt lat="41.56145" lon="0.92951">
        <ele>378</ele>
        <time>2022-05-23 19:42:31</time>
      </trkpt>
      <trkpt lat="41.5614" lon="0.92948">
        <ele>378</ele>
        <time>2022-05-23 19:42:32</time>
      </trkpt>
      <trkpt lat="41.56135" lon="0.92945">
        <ele>378</ele>
        <time>2022-05-23 19:42:33</time>
      </trkpt>
      <trkpt lat="41.5613" lon="0.92942">
        <ele>378</ele>
        <time>2022-05-23 19:42:34</time>
      </trkpt>
      <trkpt lat="41.56125" lon="0.92939">
        <ele>378</ele>
        <time>2022-05-23 19:42:35</time>
      </trkpt>
      <trkpt lat="41.5612" lon="0.92936">
        <ele>378</ele>
        <time>2022-05-23 19:42:36</time>
      </trkpt>
      <trkpt lat="41.56115" lon="0.92932">
        <ele>378</ele>
        <time>2022-05-23 19:42:37</time>
      </trkpt>
      <trkpt lat="41.5611" lon="0.92929">
        <ele>378</ele>
        <time>2022-05-23 19:42:38</time>
      </trkpt>
      <trkpt lat="41.56105" lon="0.92926">
        <ele>378</ele>
        <time>2022-05-23 19:42:39</time>
      </trkpt>
      <trkpt lat="41.561" lon="0.92923">
        <ele>378.2</ele>
        <time>2022-05-23 19:42:40</time>
      </trkpt>
      <trkpt lat="41.56095" lon="0.92919">
        <ele>378.2</ele>
        <time>2022-05-23 19:42:41</time>
      </trkpt>
      <trkpt lat="41.5609" lon="0.92916">
        <ele>378.2</ele>
        <time>2022-05-23 19:42:42</time>
      </trkpt>
      <trkpt lat="41.56085" lon="0.92913">
        <ele>378.2</ele>
        <time>2022-05-23 19:42:43</time>
      </trkpt>
      <trkpt lat="41.5608" lon="0.9291">
        <ele>378.2</ele>
        <time>2022-05-23 19:42:44</time>
      </trkpt>
      <trkpt lat="41.56075" lon="0.92907">
        <ele>378.2</ele>
        <time>2022-05-23 19:42:45</time>
      </trkpt>
      <trkpt lat="41.5607" lon="0.92904">
        <ele>378.2</ele>
        <time>2022-05-23 19:42:46</time>
      </trkpt>
      <trkpt lat="41.56065" lon="0.929">
        <ele>378</ele>
        <time>2022-05-23 19:42:47</time>
      </trkpt>
      <trkpt lat="41.5606" lon="0.92897">
        <ele>378</ele>
        <time>2022-05-23 19:42:48</time>
      </trkpt>
      <trkpt lat="41.56055" lon="0.92894">
        <ele>378</ele>
        <time>2022-05-23 19:42:49</time>
      </trkpt>
      <trkpt lat="41.5605" lon="0.92891">
        <ele>378</ele>
        <time>2022-05-23 19:42:50</time>
      </trkpt>
      <trkpt lat="41.56045" lon="0.92887">
        <ele>378</ele>
        <time>2022-05-23 19:42:51</time>
      </trkpt>
      <trkpt lat="41.5604" lon="0.92884">
        <ele>378</ele>
        <time>2022-05-23 19:42:52</time>
      </trkpt>
      <trkpt lat="41.56035" lon="0.92881">
        <ele>378</ele>
        <time>2022-05-23 19:42:53</time>
      </trkpt>
      <trkpt lat="41.5603" lon="0.92877">
        <ele>378</ele>
        <time>2022-05-23 19:42:54</time>
      </trkpt>
      <trkpt lat="41.56025" lon="0.92874">
        <ele>378</ele>
        <time>2022-05-23 19:42:55</time>
      </trkpt>
      <trkpt lat="41.5602" lon="0.92871">
        <ele>378</ele>
        <time>2022-05-23 19:42:56</time>
      </trkpt>
      <trkpt lat="41.56015" lon="0.92868">
        <ele>378</ele>
        <time>2022-05-23 19:42:57</time>
      </trkpt>
      <trkpt lat="41.5601" lon="0.92865">
        <ele>378</ele>
        <time>2022-05-23 19:42:58</time>
      </trkpt>
      <trkpt lat="41.56005" lon="0.92861">
        <ele>378</ele>
        <time>2022-05-23 19:42:59</time>
      </trkpt>
      <trkpt lat="41.56" lon="0.92858">
        <ele>378</ele>
        <time>2022-05-23 19:43:00</time>
      </trkpt>
      <trkpt lat="41.55995" lon="0.92855">
        <ele>378</ele>
        <time>2022-05-23 19:43:01</time>
      </trkpt>
      <trkpt lat="41.5599" lon="0.92851">
        <ele>378</ele>
        <time>2022-05-23 19:43:02</time>
      </trkpt>
      <trkpt lat="41.55985" lon="0.92848">
        <ele>378</ele>
        <time>2022-05-23 19:43:03</time>
      </trkpt>
      <trkpt lat="41.5598" lon="0.92845">
        <ele>378</ele>
        <time>2022-05-23 19:43:04</time>
      </trkpt>
      <trkpt lat="41.55975" lon="0.92841">
        <ele>378</ele>
        <time>2022-05-23 19:43:05</time>
      </trkpt>
      <trkpt lat="41.5597" lon="0.92838">
        <ele>378</ele>
        <time>2022-05-23 19:43:06</time>
      </trkpt>
      <trkpt lat="41.55965" lon="0.92835">
        <ele>378</ele>
        <time>2022-05-23 19:43:07</time>
      </trkpt>
      <trkpt lat="41.55959" lon="0.92832">
        <ele>378</ele>
        <time>2022-05-23 19:43:08</time>
      </trkpt>
      <trkpt lat="41.55954" lon="0.92828">
        <ele>378</ele>
        <time>2022-05-23 19:43:09</time>
      </trkpt>
      <trkpt lat="41.55949" lon="0.92825">
        <ele>378</ele>
        <time>2022-05-23 19:43:10</time>
      </trkpt>
      <trkpt lat="41.55943" lon="0.92821">
        <ele>377.8</ele>
        <time>2022-05-23 19:43:11</time>
      </trkpt>
      <trkpt lat="41.55938" lon="0.92818">
        <ele>377.8</ele>
        <time>2022-05-23 19:43:12</time>
      </trkpt>
      <trkpt lat="41.55932" lon="0.92814">
        <ele>377.6</ele>
        <time>2022-05-23 19:43:13</time>
      </trkpt>
      <trkpt lat="41.55928" lon="0.92811">
        <ele>377.6</ele>
        <time>2022-05-23 19:43:14</time>
      </trkpt>
      <trkpt lat="41.55921" lon="0.92807">
        <ele>377.6</ele>
        <time>2022-05-23 19:43:15</time>
      </trkpt>
      <trkpt lat="41.55916" lon="0.92804">
        <ele>377.6</ele>
        <time>2022-05-23 19:43:16</time>
      </trkpt>
      <trkpt lat="41.5591" lon="0.928">
        <ele>377.4</ele>
        <time>2022-05-23 19:43:17</time>
      </trkpt>
      <trkpt lat="41.55905" lon="0.92797">
        <ele>377.4</ele>
        <time>2022-05-23 19:43:18</time>
      </trkpt>
      <trkpt lat="41.559" lon="0.92794">
        <ele>377.4</ele>
        <time>2022-05-23 19:43:19</time>
      </trkpt>
      <trkpt lat="41.55895" lon="0.9279">
        <ele>377.2</ele>
        <time>2022-05-23 19:43:20</time>
      </trkpt>
      <trkpt lat="41.55889" lon="0.92787">
        <ele>377.2</ele>
        <time>2022-05-23 19:43:21</time>
      </trkpt>
      <trkpt lat="41.55883" lon="0.92783">
        <ele>377.2</ele>
        <time>2022-05-23 19:43:22</time>
      </trkpt>
      <trkpt lat="41.55878" lon="0.9278">
        <ele>377</ele>
        <time>2022-05-23 19:43:23</time>
      </trkpt>
      <trkpt lat="41.55872" lon="0.92777">
        <ele>377</ele>
        <time>2022-05-23 19:43:24</time>
      </trkpt>
      <trkpt lat="41.55867" lon="0.92774">
        <ele>377</ele>
        <time>2022-05-23 19:43:25</time>
      </trkpt>
      <trkpt lat="41.55861" lon="0.92771">
        <ele>377</ele>
        <time>2022-05-23 19:43:26</time>
      </trkpt>
      <trkpt lat="41.55856" lon="0.92768">
        <ele>377</ele>
        <time>2022-05-23 19:43:27</time>
      </trkpt>
      <trkpt lat="41.5585" lon="0.92764">
        <ele>376.8</ele>
        <time>2022-05-23 19:43:28</time>
      </trkpt>
      <trkpt lat="41.55845" lon="0.92762">
        <ele>376.8</ele>
        <time>2022-05-23 19:43:29</time>
      </trkpt>
      <trkpt lat="41.55838" lon="0.92759">
        <ele>376.8</ele>
        <time>2022-05-23 19:43:30</time>
      </trkpt>
      <trkpt lat="41.55832" lon="0.92756">
        <ele>376.6</ele>
        <time>2022-05-23 19:43:31</time>
      </trkpt>
      <trkpt lat="41.55828" lon="0.92754">
        <ele>376.6</ele>
        <time>2022-05-23 19:43:32</time>
      </trkpt>
      <trkpt lat="41.55821" lon="0.92751">
        <ele>376.6</ele>
        <time>2022-05-23 19:43:33</time>
      </trkpt>
      <trkpt lat="41.55816" lon="0.92749">
        <ele>376.6</ele>
        <time>2022-05-23 19:43:34</time>
      </trkpt>
      <trkpt lat="41.5581" lon="0.92746">
        <ele>376.4</ele>
        <time>2022-05-23 19:43:35</time>
      </trkpt>
      <trkpt lat="41.55804" lon="0.92744">
        <ele>376.2</ele>
        <time>2022-05-23 19:43:36</time>
      </trkpt>
      <trkpt lat="41.55798" lon="0.92742">
        <ele>376.2</ele>
        <time>2022-05-23 19:43:37</time>
      </trkpt>
      <trkpt lat="41.55792" lon="0.9274">
        <ele>376</ele>
        <time>2022-05-23 19:43:38</time>
      </trkpt>
      <trkpt lat="41.55785" lon="0.92738">
        <ele>375.8</ele>
        <time>2022-05-23 19:43:39</time>
      </trkpt>
      <trkpt lat="41.55779" lon="0.92736">
        <ele>375.8</ele>
        <time>2022-05-23 19:43:40</time>
      </trkpt>
      <trkpt lat="41.55773" lon="0.92734">
        <ele>375.8</ele>
        <time>2022-05-23 19:43:41</time>
      </trkpt>
      <trkpt lat="41.55766" lon="0.92733">
        <ele>375.6</ele>
        <time>2022-05-23 19:43:42</time>
      </trkpt>
      <trkpt lat="41.55759" lon="0.92731">
        <ele>375.6</ele>
        <time>2022-05-23 19:43:43</time>
      </trkpt>
      <trkpt lat="41.55754" lon="0.9273">
        <ele>375.6</ele>
        <time>2022-05-23 19:43:44</time>
      </trkpt>
      <trkpt lat="41.55746" lon="0.92728">
        <ele>375.6</ele>
        <time>2022-05-23 19:43:45</time>
      </trkpt>
      <trkpt lat="41.5574" lon="0.92726">
        <ele>375.4</ele>
        <time>2022-05-23 19:43:46</time>
      </trkpt>
      <trkpt lat="41.55733" lon="0.92724">
        <ele>375.4</ele>
        <time>2022-05-23 19:43:47</time>
      </trkpt>
      <trkpt lat="41.55727" lon="0.92723">
        <ele>375.4</ele>
        <time>2022-05-23 19:43:48</time>
      </trkpt>
      <trkpt lat="41.5572" lon="0.9272">
        <ele>375.2</ele>
        <time>2022-05-23 19:43:49</time>
      </trkpt>
      <trkpt lat="41.55714" lon="0.92719">
        <ele>375.2</ele>
        <time>2022-05-23 19:43:50</time>
      </trkpt>
      <trkpt lat="41.55707" lon="0.92716">
        <ele>375</ele>
        <time>2022-05-23 19:43:51</time>
      </trkpt>
      <trkpt lat="41.55702" lon="0.92714">
        <ele>375</ele>
        <time>2022-05-23 19:43:52</time>
      </trkpt>
      <trkpt lat="41.55695" lon="0.92712">
        <ele>374.8</ele>
        <time>2022-05-23 19:43:53</time>
      </trkpt>
      <trkpt lat="41.55688" lon="0.9271">
        <ele>374.8</ele>
        <time>2022-05-23 19:43:54</time>
      </trkpt>
      <trkpt lat="41.55682" lon="0.92707">
        <ele>374.8</ele>
        <time>2022-05-23 19:43:55</time>
      </trkpt>
      <trkpt lat="41.55677" lon="0.92705">
        <ele>374.6</ele>
        <time>2022-05-23 19:43:56</time>
      </trkpt>
      <trkpt lat="41.5567" lon="0.92702">
        <ele>374.6</ele>
        <time>2022-05-23 19:43:57</time>
      </trkpt>
      <trkpt lat="41.55665" lon="0.92699">
        <ele>374.6</ele>
        <time>2022-05-23 19:43:58</time>
      </trkpt>
      <trkpt lat="41.55658" lon="0.92695">
        <ele>374.6</ele>
        <time>2022-05-23 19:43:59</time>
      </trkpt>
      <trkpt lat="41.55653" lon="0.92693">
        <ele>374.6</ele>
        <time>2022-05-23 19:44:00</time>
      </trkpt>
      <trkpt lat="41.55646" lon="0.92689">
        <ele>374.6</ele>
        <time>2022-05-23 19:44:01</time>
      </trkpt>
      <trkpt lat="41.55641" lon="0.92686">
        <ele>374.6</ele>
        <time>2022-05-23 19:44:02</time>
      </trkpt>
      <trkpt lat="41.55635" lon="0.92682">
        <ele>374.6</ele>
        <time>2022-05-23 19:44:03</time>
      </trkpt>
      <trkpt lat="41.5563" lon="0.92679">
        <ele>374.6</ele>
        <time>2022-05-23 19:44:04</time>
      </trkpt>
      <trkpt lat="41.55624" lon="0.92675">
        <ele>374.6</ele>
        <time>2022-05-23 19:44:05</time>
      </trkpt>
      <trkpt lat="41.55619" lon="0.92672">
        <ele>374.6</ele>
        <time>2022-05-23 19:44:06</time>
      </trkpt>
      <trkpt lat="41.55612" lon="0.92668">
        <ele>374.6</ele>
        <time>2022-05-23 19:44:07</time>
      </trkpt>
      <trkpt lat="41.55607" lon="0.92665">
        <ele>374.6</ele>
        <time>2022-05-23 19:44:08</time>
      </trkpt>
      <trkpt lat="41.55601" lon="0.92661">
        <ele>374.6</ele>
        <time>2022-05-23 19:44:09</time>
      </trkpt>
      <trkpt lat="41.55596" lon="0.92657">
        <ele>374.6</ele>
        <time>2022-05-23 19:44:10</time>
      </trkpt>
      <trkpt lat="41.5559" lon="0.92654">
        <ele>374.6</ele>
        <time>2022-05-23 19:44:11</time>
      </trkpt>
      <trkpt lat="41.55585" lon="0.92651">
        <ele>374.6</ele>
        <time>2022-05-23 19:44:12</time>
      </trkpt>
      <trkpt lat="41.55579" lon="0.92647">
        <ele>374.6</ele>
        <time>2022-05-23 19:44:13</time>
      </trkpt>
      <trkpt lat="41.55574" lon="0.92644">
        <ele>374.6</ele>
        <time>2022-05-23 19:44:14</time>
      </trkpt>
      <trkpt lat="41.55568" lon="0.9264">
        <ele>374.6</ele>
        <time>2022-05-23 19:44:15</time>
      </trkpt>
      <trkpt lat="41.55563" lon="0.92637">
        <ele>374.6</ele>
        <time>2022-05-23 19:44:16</time>
      </trkpt>
      <trkpt lat="41.55557" lon="0.92633">
        <ele>374.6</ele>
        <time>2022-05-23 19:44:17</time>
      </trkpt>
      <trkpt lat="41.55552" lon="0.9263">
        <ele>374.6</ele>
        <time>2022-05-23 19:44:18</time>
      </trkpt>
      <trkpt lat="41.55546" lon="0.92626">
        <ele>374.8</ele>
        <time>2022-05-23 19:44:19</time>
      </trkpt>
      <trkpt lat="41.55541" lon="0.92623">
        <ele>374.8</ele>
        <time>2022-05-23 19:44:20</time>
      </trkpt>
      <trkpt lat="41.55535" lon="0.92619">
        <ele>374.8</ele>
        <time>2022-05-23 19:44:21</time>
      </trkpt>
      <trkpt lat="41.5553" lon="0.92616">
        <ele>374.8</ele>
        <time>2022-05-23 19:44:22</time>
      </trkpt>
      <trkpt lat="41.55524" lon="0.92612">
        <ele>374.8</ele>
        <time>2022-05-23 19:44:23</time>
      </trkpt>
      <trkpt lat="41.5552" lon="0.92609">
        <ele>374.8</ele>
        <time>2022-05-23 19:44:24</time>
      </trkpt>
      <trkpt lat="41.55514" lon="0.92605">
        <ele>374.8</ele>
        <time>2022-05-23 19:44:25</time>
      </trkpt>
      <trkpt lat="41.55508" lon="0.92602">
        <ele>374.8</ele>
        <time>2022-05-23 19:44:26</time>
      </trkpt>
      <trkpt lat="41.55503" lon="0.92599">
        <ele>374.8</ele>
        <time>2022-05-23 19:44:27</time>
      </trkpt>
      <trkpt lat="41.55498" lon="0.92596">
        <ele>374.6</ele>
        <time>2022-05-23 19:44:28</time>
      </trkpt>
      <trkpt lat="41.55493" lon="0.92592">
        <ele>374.6</ele>
        <time>2022-05-23 19:44:29</time>
      </trkpt>
      <trkpt lat="41.55488" lon="0.92589">
        <ele>374.6</ele>
        <time>2022-05-23 19:44:30</time>
      </trkpt>
      <trkpt lat="41.55483" lon="0.92586">
        <ele>374.6</ele>
        <time>2022-05-23 19:44:31</time>
      </trkpt>
      <trkpt lat="41.55478" lon="0.92582">
        <ele>374.6</ele>
        <time>2022-05-23 19:44:32</time>
      </trkpt>
      <trkpt lat="41.55473" lon="0.92579">
        <ele>374.8</ele>
        <time>2022-05-23 19:44:33</time>
      </trkpt>
      <trkpt lat="41.55468" lon="0.92576">
        <ele>374.8</ele>
        <time>2022-05-23 19:44:34</time>
      </trkpt>
      <trkpt lat="41.55463" lon="0.92573">
        <ele>375</ele>
        <time>2022-05-23 19:44:35</time>
      </trkpt>
      <trkpt lat="41.55458" lon="0.9257">
        <ele>375.2</ele>
        <time>2022-05-23 19:44:36</time>
      </trkpt>
      <trkpt lat="41.55453" lon="0.92566">
        <ele>375.2</ele>
        <time>2022-05-23 19:44:37</time>
      </trkpt>
      <trkpt lat="41.55448" lon="0.92563">
        <ele>375.2</ele>
        <time>2022-05-23 19:44:38</time>
      </trkpt>
      <trkpt lat="41.55442" lon="0.9256">
        <ele>375.2</ele>
        <time>2022-05-23 19:44:39</time>
      </trkpt>
      <trkpt lat="41.55438" lon="0.92557">
        <ele>375.2</ele>
        <time>2022-05-23 19:44:40</time>
      </trkpt>
      <trkpt lat="41.55432" lon="0.92554">
        <ele>375.2</ele>
        <time>2022-05-23 19:44:41</time>
      </trkpt>
      <trkpt lat="41.55427" lon="0.92551">
        <ele>375.2</ele>
        <time>2022-05-23 19:44:42</time>
      </trkpt>
      <trkpt lat="41.55422" lon="0.92548">
        <ele>375.4</ele>
        <time>2022-05-23 19:44:43</time>
      </trkpt>
      <trkpt lat="41.55417" lon="0.92545">
        <ele>375.4</ele>
        <time>2022-05-23 19:44:44</time>
      </trkpt>
      <trkpt lat="41.55412" lon="0.92542">
        <ele>375.6</ele>
        <time>2022-05-23 19:44:45</time>
      </trkpt>
      <trkpt lat="41.55408" lon="0.9254">
        <ele>375.8</ele>
        <time>2022-05-23 19:44:46</time>
      </trkpt>
      <trkpt lat="41.55403" lon="0.92537">
        <ele>376</ele>
        <time>2022-05-23 19:44:47</time>
      </trkpt>
      <trkpt lat="41.55398" lon="0.92535">
        <ele>376.2</ele>
        <time>2022-05-23 19:44:48</time>
      </trkpt>
      <trkpt lat="41.55394" lon="0.92532">
        <ele>376.4</ele>
        <time>2022-05-23 19:44:49</time>
      </trkpt>
      <trkpt lat="41.55389" lon="0.92531">
        <ele>376.4</ele>
        <time>2022-05-23 19:44:50</time>
      </trkpt>
      <trkpt lat="41.55384" lon="0.92528">
        <ele>376.6</ele>
        <time>2022-05-23 19:44:51</time>
      </trkpt>
      <trkpt lat="41.5538" lon="0.92526">
        <ele>376.8</ele>
        <time>2022-05-23 19:44:52</time>
      </trkpt>
      <trkpt lat="41.55376" lon="0.92524">
        <ele>377.2</ele>
        <time>2022-05-23 19:44:53</time>
      </trkpt>
      <trkpt lat="41.55372" lon="0.92522">
        <ele>377.4</ele>
        <time>2022-05-23 19:44:54</time>
      </trkpt>
      <trkpt lat="41.55367" lon="0.9252">
        <ele>377.6</ele>
        <time>2022-05-23 19:44:55</time>
      </trkpt>
      <trkpt lat="41.55363" lon="0.92519">
        <ele>377.8</ele>
        <time>2022-05-23 19:44:56</time>
      </trkpt>
      <trkpt lat="41.55358" lon="0.92518">
        <ele>378</ele>
        <time>2022-05-23 19:44:57</time>
      </trkpt>
      <trkpt lat="41.55354" lon="0.92517">
        <ele>378</ele>
        <time>2022-05-23 19:44:58</time>
      </trkpt>
      <trkpt lat="41.5535" lon="0.92516">
        <ele>378.2</ele>
        <time>2022-05-23 19:44:59</time>
      </trkpt>
      <trkpt lat="41.55346" lon="0.92515">
        <ele>378.4</ele>
        <time>2022-05-23 19:45:00</time>
      </trkpt>
      <trkpt lat="41.55342" lon="0.92513">
        <ele>378.6</ele>
        <time>2022-05-23 19:45:01</time>
      </trkpt>
      <trkpt lat="41.55337" lon="0.92512">
        <ele>378.8</ele>
        <time>2022-05-23 19:45:02</time>
      </trkpt>
      <trkpt lat="41.55334" lon="0.92511">
        <ele>379</ele>
        <time>2022-05-23 19:45:03</time>
      </trkpt>
      <trkpt lat="41.55329" lon="0.92511">
        <ele>379</ele>
        <time>2022-05-23 19:45:04</time>
      </trkpt>
      <trkpt lat="41.55325" lon="0.9251">
        <ele>379.2</ele>
        <time>2022-05-23 19:45:05</time>
      </trkpt>
      <trkpt lat="41.55322" lon="0.9251">
        <ele>379.4</ele>
        <time>2022-05-23 19:45:06</time>
      </trkpt>
      <trkpt lat="41.55317" lon="0.92509">
        <ele>379.6</ele>
        <time>2022-05-23 19:45:07</time>
      </trkpt>
      <trkpt lat="41.55313" lon="0.92509">
        <ele>379.8</ele>
        <time>2022-05-23 19:45:08</time>
      </trkpt>
      <trkpt lat="41.55308" lon="0.92508">
        <ele>380</ele>
        <time>2022-05-23 19:45:09</time>
      </trkpt>
      <trkpt lat="41.55305" lon="0.92508">
        <ele>380.2</ele>
        <time>2022-05-23 19:45:10</time>
      </trkpt>
      <trkpt lat="41.553" lon="0.92508">
        <ele>380.4</ele>
        <time>2022-05-23 19:45:11</time>
      </trkpt>
      <trkpt lat="41.55297" lon="0.92508">
        <ele>380.6</ele>
        <time>2022-05-23 19:45:12</time>
      </trkpt>
      <trkpt lat="41.55292" lon="0.92507">
        <ele>380.6</ele>
        <time>2022-05-23 19:45:13</time>
      </trkpt>
      <trkpt lat="41.55289" lon="0.92507">
        <ele>380.8</ele>
        <time>2022-05-23 19:45:14</time>
      </trkpt>
      <trkpt lat="41.55285" lon="0.92508">
        <ele>381</ele>
        <time>2022-05-23 19:45:15</time>
      </trkpt>
      <trkpt lat="41.55281" lon="0.92508">
        <ele>381</ele>
        <time>2022-05-23 19:45:16</time>
      </trkpt>
      <trkpt lat="41.55277" lon="0.92508">
        <ele>381.2</ele>
        <time>2022-05-23 19:45:17</time>
      </trkpt>
      <trkpt lat="41.55274" lon="0.92508">
        <ele>381.2</ele>
        <time>2022-05-23 19:45:18</time>
      </trkpt>
      <trkpt lat="41.55269" lon="0.92509">
        <ele>381.4</ele>
        <time>2022-05-23 19:45:19</time>
      </trkpt>
      <trkpt lat="41.55265" lon="0.92509">
        <ele>381.4</ele>
        <time>2022-05-23 19:45:20</time>
      </trkpt>
      <trkpt lat="41.55261" lon="0.92509">
        <ele>381.6</ele>
        <time>2022-05-23 19:45:21</time>
      </trkpt>
      <trkpt lat="41.55256" lon="0.92509">
        <ele>381.6</ele>
        <time>2022-05-23 19:45:22</time>
      </trkpt>
      <trkpt lat="41.55253" lon="0.9251">
        <ele>381.8</ele>
        <time>2022-05-23 19:45:23</time>
      </trkpt>
      <trkpt lat="41.5525" lon="0.9251">
        <ele>381.8</ele>
        <time>2022-05-23 19:45:24</time>
      </trkpt>
      <trkpt lat="41.55245" lon="0.92511">
        <ele>381.8</ele>
        <time>2022-05-23 19:45:25</time>
      </trkpt>
      <trkpt lat="41.5524" lon="0.92511">
        <ele>381.8</ele>
        <time>2022-05-23 19:45:26</time>
      </trkpt>
      <trkpt lat="41.55237" lon="0.92511">
        <ele>382</ele>
        <time>2022-05-23 19:45:27</time>
      </trkpt>
      <trkpt lat="41.55233" lon="0.92512">
        <ele>382</ele>
        <time>2022-05-23 19:45:28</time>
      </trkpt>
      <trkpt lat="41.55228" lon="0.92512">
        <ele>382.2</ele>
        <time>2022-05-23 19:45:29</time>
      </trkpt>
      <trkpt lat="41.55225" lon="0.92512">
        <ele>382.2</ele>
        <time>2022-05-23 19:45:30</time>
      </trkpt>
      <trkpt lat="41.5522" lon="0.92513">
        <ele>382.4</ele>
        <time>2022-05-23 19:45:31</time>
      </trkpt>
      <trkpt lat="41.55216" lon="0.92513">
        <ele>382.6</ele>
        <time>2022-05-23 19:45:32</time>
      </trkpt>
      <trkpt lat="41.55212" lon="0.92514">
        <ele>382.6</ele>
        <time>2022-05-23 19:45:33</time>
      </trkpt>
      <trkpt lat="41.55208" lon="0.92514">
        <ele>382.8</ele>
        <time>2022-05-23 19:45:34</time>
      </trkpt>
      <trkpt lat="41.55204" lon="0.92514">
        <ele>383</ele>
        <time>2022-05-23 19:45:35</time>
      </trkpt>
      <trkpt lat="41.552" lon="0.92514">
        <ele>383</ele>
        <time>2022-05-23 19:45:36</time>
      </trkpt>
      <trkpt lat="41.55195" lon="0.92515">
        <ele>383.2</ele>
        <time>2022-05-23 19:45:37</time>
      </trkpt>
      <trkpt lat="41.55191" lon="0.92515">
        <ele>383.2</ele>
        <time>2022-05-23 19:45:38</time>
      </trkpt>
      <trkpt lat="41.55187" lon="0.92516">
        <ele>383.4</ele>
        <time>2022-05-23 19:45:39</time>
      </trkpt>
      <trkpt lat="41.55183" lon="0.92516">
        <ele>383.4</ele>
        <time>2022-05-23 19:45:40</time>
      </trkpt>
      <trkpt lat="41.55179" lon="0.92517">
        <ele>383.4</ele>
        <time>2022-05-23 19:45:41</time>
      </trkpt>
      <trkpt lat="41.55176" lon="0.92517">
        <ele>383.6</ele>
        <time>2022-05-23 19:45:42</time>
      </trkpt>
      <trkpt lat="41.5517" lon="0.92517">
        <ele>383.8</ele>
        <time>2022-05-23 19:45:43</time>
      </trkpt>
      <trkpt lat="41.55166" lon="0.92517">
        <ele>383.8</ele>
        <time>2022-05-23 19:45:44</time>
      </trkpt>
      <trkpt lat="41.55162" lon="0.92518">
        <ele>384</ele>
        <time>2022-05-23 19:45:45</time>
      </trkpt>
      <trkpt lat="41.55158" lon="0.92518">
        <ele>384.2</ele>
        <time>2022-05-23 19:45:46</time>
      </trkpt>
      <trkpt lat="41.55154" lon="0.92518">
        <ele>384.4</ele>
        <time>2022-05-23 19:45:47</time>
      </trkpt>
      <trkpt lat="41.5515" lon="0.92519">
        <ele>384.6</ele>
        <time>2022-05-23 19:45:48</time>
      </trkpt>
      <trkpt lat="41.55146" lon="0.92519">
        <ele>384.6</ele>
        <time>2022-05-23 19:45:49</time>
      </trkpt>
      <trkpt lat="41.55142" lon="0.9252">
        <ele>384.8</ele>
        <time>2022-05-23 19:45:50</time>
      </trkpt>
      <trkpt lat="41.55138" lon="0.9252">
        <ele>385</ele>
        <time>2022-05-23 19:45:51</time>
      </trkpt>
      <trkpt lat="41.55133" lon="0.9252">
        <ele>385</ele>
        <time>2022-05-23 19:45:52</time>
      </trkpt>
      <trkpt lat="41.55129" lon="0.9252">
        <ele>385.2</ele>
        <time>2022-05-23 19:45:53</time>
      </trkpt>
      <trkpt lat="41.55126" lon="0.92521">
        <ele>385.4</ele>
        <time>2022-05-23 19:45:54</time>
      </trkpt>
      <trkpt lat="41.55121" lon="0.92522">
        <ele>385.6</ele>
        <time>2022-05-23 19:45:55</time>
      </trkpt>
      <trkpt lat="41.55118" lon="0.92522">
        <ele>385.6</ele>
        <time>2022-05-23 19:45:56</time>
      </trkpt>
      <trkpt lat="41.55114" lon="0.92523">
        <ele>385.8</ele>
        <time>2022-05-23 19:45:57</time>
      </trkpt>
      <trkpt lat="41.5511" lon="0.92523">
        <ele>386</ele>
        <time>2022-05-23 19:45:58</time>
      </trkpt>
      <trkpt lat="41.55105" lon="0.92523">
        <ele>386.2</ele>
        <time>2022-05-23 19:45:59</time>
      </trkpt>
      <trkpt lat="41.55102" lon="0.92524">
        <ele>386.4</ele>
        <time>2022-05-23 19:46:00</time>
      </trkpt>
      <trkpt lat="41.55098" lon="0.92524">
        <ele>386.6</ele>
        <time>2022-05-23 19:46:01</time>
      </trkpt>
      <trkpt lat="41.55094" lon="0.92525">
        <ele>386.8</ele>
        <time>2022-05-23 19:46:02</time>
      </trkpt>
      <trkpt lat="41.5509" lon="0.92526">
        <ele>386.8</ele>
        <time>2022-05-23 19:46:03</time>
      </trkpt>
      <trkpt lat="41.55086" lon="0.92526">
        <ele>387</ele>
        <time>2022-05-23 19:46:04</time>
      </trkpt>
      <trkpt lat="41.55082" lon="0.92527">
        <ele>387.2</ele>
        <time>2022-05-23 19:46:05</time>
      </trkpt>
      <trkpt lat="41.55078" lon="0.92527">
        <ele>387.2</ele>
        <time>2022-05-23 19:46:06</time>
      </trkpt>
      <trkpt lat="41.55074" lon="0.92528">
        <ele>387.4</ele>
        <time>2022-05-23 19:46:07</time>
      </trkpt>
      <trkpt lat="41.5507" lon="0.92529">
        <ele>387.6</ele>
        <time>2022-05-23 19:46:08</time>
      </trkpt>
      <trkpt lat="41.55066" lon="0.92529">
        <ele>387.8</ele>
        <time>2022-05-23 19:46:09</time>
      </trkpt>
      <trkpt lat="41.55062" lon="0.9253">
        <ele>387.8</ele>
        <time>2022-05-23 19:46:10</time>
      </trkpt>
      <trkpt lat="41.55058" lon="0.92531">
        <ele>388</ele>
        <time>2022-05-23 19:46:11</time>
      </trkpt>
      <trkpt lat="41.55055" lon="0.92531">
        <ele>388.2</ele>
        <time>2022-05-23 19:46:12</time>
      </trkpt>
      <trkpt lat="41.5505" lon="0.92532">
        <ele>388.2</ele>
        <time>2022-05-23 19:46:13</time>
      </trkpt>
      <trkpt lat="41.55046" lon="0.92532">
        <ele>388.4</ele>
        <time>2022-05-23 19:46:14</time>
      </trkpt>
      <trkpt lat="41.55042" lon="0.92533">
        <ele>388.6</ele>
        <time>2022-05-23 19:46:15</time>
      </trkpt>
      <trkpt lat="41.55038" lon="0.92534">
        <ele>388.8</ele>
        <time>2022-05-23 19:46:16</time>
      </trkpt>
      <trkpt lat="41.55034" lon="0.92535">
        <ele>389</ele>
        <time>2022-05-23 19:46:17</time>
      </trkpt>
      <trkpt lat="41.55031" lon="0.92535">
        <ele>389.2</ele>
        <time>2022-05-23 19:46:18</time>
      </trkpt>
      <trkpt lat="41.55026" lon="0.92536">
        <ele>389.2</ele>
        <time>2022-05-23 19:46:19</time>
      </trkpt>
      <trkpt lat="41.55022" lon="0.92537">
        <ele>389.4</ele>
        <time>2022-05-23 19:46:20</time>
      </trkpt>
      <trkpt lat="41.55018" lon="0.92538">
        <ele>389.6</ele>
        <time>2022-05-23 19:46:21</time>
      </trkpt>
      <trkpt lat="41.55014" lon="0.92538">
        <ele>389.8</ele>
        <time>2022-05-23 19:46:22</time>
      </trkpt>
      <trkpt lat="41.5501" lon="0.92539">
        <ele>389.8</ele>
        <time>2022-05-23 19:46:23</time>
      </trkpt>
      <trkpt lat="41.55006" lon="0.9254">
        <ele>390</ele>
        <time>2022-05-23 19:46:24</time>
      </trkpt>
      <trkpt lat="41.55002" lon="0.92541">
        <ele>390.2</ele>
        <time>2022-05-23 19:46:25</time>
      </trkpt>
      <trkpt lat="41.54998" lon="0.92542">
        <ele>390.2</ele>
        <time>2022-05-23 19:46:26</time>
      </trkpt>
      <trkpt lat="41.54994" lon="0.92542">
        <ele>390.4</ele>
        <time>2022-05-23 19:46:27</time>
      </trkpt>
      <trkpt lat="41.5499" lon="0.92543">
        <ele>390.6</ele>
        <time>2022-05-23 19:46:28</time>
      </trkpt>
      <trkpt lat="41.54985" lon="0.92544">
        <ele>390.6</ele>
        <time>2022-05-23 19:46:29</time>
      </trkpt>
      <trkpt lat="41.54981" lon="0.92545">
        <ele>390.6</ele>
        <time>2022-05-23 19:46:30</time>
      </trkpt>
      <trkpt lat="41.54976" lon="0.92546">
        <ele>390.8</ele>
        <time>2022-05-23 19:46:31</time>
      </trkpt>
      <trkpt lat="41.54972" lon="0.92546">
        <ele>390.8</ele>
        <time>2022-05-23 19:46:32</time>
      </trkpt>
      <trkpt lat="41.54967" lon="0.92547">
        <ele>391</ele>
        <time>2022-05-23 19:46:33</time>
      </trkpt>
      <trkpt lat="41.54963" lon="0.92548">
        <ele>391</ele>
        <time>2022-05-23 19:46:34</time>
      </trkpt>
      <trkpt lat="41.54959" lon="0.92549">
        <ele>391</ele>
        <time>2022-05-23 19:46:35</time>
      </trkpt>
      <trkpt lat="41.54954" lon="0.9255">
        <ele>391.2</ele>
        <time>2022-05-23 19:46:36</time>
      </trkpt>
      <trkpt lat="41.5495" lon="0.92551">
        <ele>391.2</ele>
        <time>2022-05-23 19:46:37</time>
      </trkpt>
      <trkpt lat="41.54944" lon="0.92552">
        <ele>391.2</ele>
        <time>2022-05-23 19:46:38</time>
      </trkpt>
      <trkpt lat="41.5494" lon="0.92553">
        <ele>391.2</ele>
        <time>2022-05-23 19:46:39</time>
      </trkpt>
      <trkpt lat="41.54934" lon="0.92554">
        <ele>391.2</ele>
        <time>2022-05-23 19:46:40</time>
      </trkpt>
      <trkpt lat="41.5493" lon="0.92555">
        <ele>391.2</ele>
        <time>2022-05-23 19:46:41</time>
      </trkpt>
      <trkpt lat="41.54924" lon="0.92556">
        <ele>391.2</ele>
        <time>2022-05-23 19:46:42</time>
      </trkpt>
      <trkpt lat="41.5492" lon="0.92557">
        <ele>391</ele>
        <time>2022-05-23 19:46:43</time>
      </trkpt>
      <trkpt lat="41.54914" lon="0.92559">
        <ele>390.8</ele>
        <time>2022-05-23 19:46:44</time>
      </trkpt>
      <trkpt lat="41.54909" lon="0.92559">
        <ele>390.6</ele>
        <time>2022-05-23 19:46:45</time>
      </trkpt>
      <trkpt lat="41.54902" lon="0.9256">
        <ele>390.4</ele>
        <time>2022-05-23 19:46:46</time>
      </trkpt>
      <trkpt lat="41.54897" lon="0.92561">
        <ele>390</ele>
        <time>2022-05-23 19:46:47</time>
      </trkpt>
      <trkpt lat="41.5489" lon="0.92562">
        <ele>389.8</ele>
        <time>2022-05-23 19:46:48</time>
      </trkpt>
      <trkpt lat="41.54885" lon="0.92563">
        <ele>389.4</ele>
        <time>2022-05-23 19:46:49</time>
      </trkpt>
      <trkpt lat="41.54876" lon="0.92564">
        <ele>389</ele>
        <time>2022-05-23 19:46:50</time>
      </trkpt>
      <trkpt lat="41.54871" lon="0.92564">
        <ele>388.6</ele>
        <time>2022-05-23 19:46:51</time>
      </trkpt>
      <trkpt lat="41.54862" lon="0.92564">
        <ele>388.2</ele>
        <time>2022-05-23 19:46:52</time>
      </trkpt>
      <trkpt lat="41.54856" lon="0.92564">
        <ele>388</ele>
        <time>2022-05-23 19:46:53</time>
      </trkpt>
      <trkpt lat="41.54846" lon="0.92563">
        <ele>387.4</ele>
        <time>2022-05-23 19:46:54</time>
      </trkpt>
      <trkpt lat="41.5484" lon="0.92563">
        <ele>387</ele>
        <time>2022-05-23 19:46:55</time>
      </trkpt>
      <trkpt lat="41.5483" lon="0.92561">
        <ele>386.6</ele>
        <time>2022-05-23 19:46:56</time>
      </trkpt>
      <trkpt lat="41.54822" lon="0.9256">
        <ele>386</ele>
        <time>2022-05-23 19:46:57</time>
      </trkpt>
      <trkpt lat="41.54812" lon="0.92559">
        <ele>385.4</ele>
        <time>2022-05-23 19:46:58</time>
      </trkpt>
      <trkpt lat="41.54804" lon="0.92558">
        <ele>385</ele>
        <time>2022-05-23 19:46:59</time>
      </trkpt>
      <trkpt lat="41.54795" lon="0.92557">
        <ele>384.6</ele>
        <time>2022-05-23 19:47:00</time>
      </trkpt>
      <trkpt lat="41.54788" lon="0.92555">
        <ele>384.4</ele>
        <time>2022-05-23 19:47:01</time>
      </trkpt>
      <trkpt lat="41.54777" lon="0.92553">
        <ele>384</ele>
        <time>2022-05-23 19:47:02</time>
      </trkpt>
      <trkpt lat="41.5477" lon="0.92552">
        <ele>383.8</ele>
        <time>2022-05-23 19:47:03</time>
      </trkpt>
      <trkpt lat="41.5476" lon="0.9255">
        <ele>383.8</ele>
        <time>2022-05-23 19:47:04</time>
      </trkpt>
      <trkpt lat="41.54754" lon="0.92548">
        <ele>383.6</ele>
        <time>2022-05-23 19:47:05</time>
      </trkpt>
      <trkpt lat="41.54744" lon="0.92546">
        <ele>383.8</ele>
        <time>2022-05-23 19:47:06</time>
      </trkpt>
      <trkpt lat="41.54738" lon="0.92545">
        <ele>383.6</ele>
        <time>2022-05-23 19:47:07</time>
      </trkpt>
      <trkpt lat="41.54729" lon="0.92542">
        <ele>383.6</ele>
        <time>2022-05-23 19:47:08</time>
      </trkpt>
      <trkpt lat="41.54723" lon="0.92541">
        <ele>383.6</ele>
        <time>2022-05-23 19:47:09</time>
      </trkpt>
      <trkpt lat="41.54714" lon="0.9254">
        <ele>383.6</ele>
        <time>2022-05-23 19:47:10</time>
      </trkpt>
      <trkpt lat="41.54708" lon="0.92539">
        <ele>383.6</ele>
        <time>2022-05-23 19:47:11</time>
      </trkpt>
      <trkpt lat="41.54701" lon="0.92537">
        <ele>383.8</ele>
        <time>2022-05-23 19:47:12</time>
      </trkpt>
      <trkpt lat="41.54696" lon="0.92535">
        <ele>384</ele>
        <time>2022-05-23 19:47:13</time>
      </trkpt>
      <trkpt lat="41.54689" lon="0.92534">
        <ele>384</ele>
        <time>2022-05-23 19:47:14</time>
      </trkpt>
      <trkpt lat="41.54684" lon="0.92533">
        <ele>384.2</ele>
        <time>2022-05-23 19:47:15</time>
      </trkpt>
      <trkpt lat="41.54677" lon="0.92531">
        <ele>384.4</ele>
        <time>2022-05-23 19:47:16</time>
      </trkpt>
      <trkpt lat="41.54673" lon="0.9253">
        <ele>384.6</ele>
        <time>2022-05-23 19:47:17</time>
      </trkpt>
      <trkpt lat="41.54666" lon="0.92528">
        <ele>384.8</ele>
        <time>2022-05-23 19:47:18</time>
      </trkpt>
      <trkpt lat="41.54662" lon="0.92527">
        <ele>385</ele>
        <time>2022-05-23 19:47:19</time>
      </trkpt>
      <trkpt lat="41.54656" lon="0.92526">
        <ele>385.2</ele>
        <time>2022-05-23 19:47:20</time>
      </trkpt>
      <trkpt lat="41.54652" lon="0.92525">
        <ele>385.2</ele>
        <time>2022-05-23 19:47:21</time>
      </trkpt>
      <trkpt lat="41.54646" lon="0.92524">
        <ele>385.4</ele>
        <time>2022-05-23 19:47:22</time>
      </trkpt>
      <trkpt lat="41.54642" lon="0.92523">
        <ele>385.6</ele>
        <time>2022-05-23 19:47:23</time>
      </trkpt>
      <trkpt lat="41.54637" lon="0.92523">
        <ele>385.8</ele>
        <time>2022-05-23 19:47:24</time>
      </trkpt>
      <trkpt lat="41.54633" lon="0.92521">
        <ele>386</ele>
        <time>2022-05-23 19:47:25</time>
      </trkpt>
      <trkpt lat="41.54631" lon="0.92518">
        <ele>386</ele>
        <time>2022-05-23 19:47:26</time>
      </trkpt>
      <trkpt lat="41.54629" lon="0.92513">
        <ele>386</ele>
        <time>2022-05-23 19:47:27</time>
      </trkpt>
      <trkpt lat="41.54628" lon="0.92509">
        <ele>386</ele>
        <time>2022-05-23 19:47:28</time>
      </trkpt>
      <trkpt lat="41.54628" lon="0.92504">
        <ele>385.8</ele>
        <time>2022-05-23 19:47:29</time>
      </trkpt>
      <trkpt lat="41.5463" lon="0.92497">
        <ele>385.8</ele>
        <time>2022-05-23 19:47:30</time>
      </trkpt>
      <trkpt lat="41.54632" lon="0.92491">
        <ele>385.6</ele>
        <time>2022-05-23 19:47:31</time>
      </trkpt>
      <trkpt lat="41.54633" lon="0.92485">
        <ele>385.4</ele>
        <time>2022-05-23 19:47:32</time>
      </trkpt>
      <trkpt lat="41.54636" lon="0.92478">
        <ele>385.4</ele>
        <time>2022-05-23 19:47:33</time>
      </trkpt>
      <trkpt lat="41.54637" lon="0.92473">
        <ele>385.4</ele>
        <time>2022-05-23 19:47:34</time>
      </trkpt>
      <trkpt lat="41.54639" lon="0.92466">
        <ele>385.4</ele>
        <time>2022-05-23 19:47:35</time>
      </trkpt>
      <trkpt lat="41.5464" lon="0.92461">
        <ele>385.2</ele>
        <time>2022-05-23 19:47:36</time>
      </trkpt>
      <trkpt lat="41.54642" lon="0.92452">
        <ele>385.2</ele>
        <time>2022-05-23 19:47:37</time>
      </trkpt>
      <trkpt lat="41.54643" lon="0.92447">
        <ele>385.2</ele>
        <time>2022-05-23 19:47:38</time>
      </trkpt>
      <trkpt lat="41.54646" lon="0.92439">
        <ele>385.2</ele>
        <time>2022-05-23 19:47:39</time>
      </trkpt>
      <trkpt lat="41.54647" lon="0.92434">
        <ele>385.4</ele>
        <time>2022-05-23 19:47:40</time>
      </trkpt>
      <trkpt lat="41.5465" lon="0.92426">
        <ele>385.4</ele>
        <time>2022-05-23 19:47:41</time>
      </trkpt>
      <trkpt lat="41.54652" lon="0.92421">
        <ele>385.4</ele>
        <time>2022-05-23 19:47:42</time>
      </trkpt>
      <trkpt lat="41.54655" lon="0.92413">
        <ele>385.4</ele>
        <time>2022-05-23 19:47:43</time>
      </trkpt>
      <trkpt lat="41.54656" lon="0.92409">
        <ele>385.4</ele>
        <time>2022-05-23 19:47:44</time>
      </trkpt>
      <trkpt lat="41.5466" lon="0.92401">
        <ele>385.4</ele>
        <time>2022-05-23 19:47:45</time>
      </trkpt>
      <trkpt lat="41.54661" lon="0.92396">
        <ele>385.4</ele>
        <time>2022-05-23 19:47:46</time>
      </trkpt>
      <trkpt lat="41.54664" lon="0.92389">
        <ele>385.4</ele>
        <time>2022-05-23 19:47:47</time>
      </trkpt>
      <trkpt lat="41.54666" lon="0.92384">
        <ele>385.4</ele>
        <time>2022-05-23 19:47:48</time>
      </trkpt>
      <trkpt lat="41.54668" lon="0.92376">
        <ele>385.4</ele>
        <time>2022-05-23 19:47:49</time>
      </trkpt>
      <trkpt lat="41.5467" lon="0.92371">
        <ele>385.4</ele>
        <time>2022-05-23 19:47:50</time>
      </trkpt>
      <trkpt lat="41.54672" lon="0.92363">
        <ele>385.4</ele>
        <time>2022-05-23 19:47:51</time>
      </trkpt>
      <trkpt lat="41.54673" lon="0.92358">
        <ele>385.4</ele>
        <time>2022-05-23 19:47:52</time>
      </trkpt>
      <trkpt lat="41.54676" lon="0.92351">
        <ele>385.4</ele>
        <time>2022-05-23 19:47:53</time>
      </trkpt>
      <trkpt lat="41.54677" lon="0.92346">
        <ele>385.4</ele>
        <time>2022-05-23 19:47:54</time>
      </trkpt>
      <trkpt lat="41.5468" lon="0.92338">
        <ele>385.4</ele>
        <time>2022-05-23 19:47:55</time>
      </trkpt>
      <trkpt lat="41.54682" lon="0.92334">
        <ele>385.6</ele>
        <time>2022-05-23 19:47:56</time>
      </trkpt>
      <trkpt lat="41.54684" lon="0.92326">
        <ele>385.6</ele>
        <time>2022-05-23 19:47:57</time>
      </trkpt>
      <trkpt lat="41.54686" lon="0.92321">
        <ele>385.6</ele>
        <time>2022-05-23 19:47:58</time>
      </trkpt>
      <trkpt lat="41.54688" lon="0.92314">
        <ele>385.4</ele>
        <time>2022-05-23 19:47:59</time>
      </trkpt>
      <trkpt lat="41.5469" lon="0.92308">
        <ele>385.4</ele>
        <time>2022-05-23 19:48:00</time>
      </trkpt>
      <trkpt lat="41.54693" lon="0.92301">
        <ele>385.4</ele>
        <time>2022-05-23 19:48:01</time>
      </trkpt>
      <trkpt lat="41.54694" lon="0.92296">
        <ele>385.4</ele>
        <time>2022-05-23 19:48:02</time>
      </trkpt>
      <trkpt lat="41.54697" lon="0.92288">
        <ele>385.4</ele>
        <time>2022-05-23 19:48:03</time>
      </trkpt>
      <trkpt lat="41.54698" lon="0.92283">
        <ele>385.4</ele>
        <time>2022-05-23 19:48:04</time>
      </trkpt>
      <trkpt lat="41.547" lon="0.92276">
        <ele>385.4</ele>
        <time>2022-05-23 19:48:05</time>
      </trkpt>
      <trkpt lat="41.54701" lon="0.9227">
        <ele>385.4</ele>
        <time>2022-05-23 19:48:06</time>
      </trkpt>
      <trkpt lat="41.54703" lon="0.92263">
        <ele>385.6</ele>
        <time>2022-05-23 19:48:07</time>
      </trkpt>
      <trkpt lat="41.54704" lon="0.92258">
        <ele>385.6</ele>
        <time>2022-05-23 19:48:08</time>
      </trkpt>
      <trkpt lat="41.54707" lon="0.92251">
        <ele>385.6</ele>
        <time>2022-05-23 19:48:09</time>
      </trkpt>
      <trkpt lat="41.54708" lon="0.92246">
        <ele>385.8</ele>
        <time>2022-05-23 19:48:10</time>
      </trkpt>
      <trkpt lat="41.54709" lon="0.92239">
        <ele>385.8</ele>
        <time>2022-05-23 19:48:11</time>
      </trkpt>
      <trkpt lat="41.5471" lon="0.92234">
        <ele>386</ele>
        <time>2022-05-23 19:48:12</time>
      </trkpt>
      <trkpt lat="41.54711" lon="0.92227">
        <ele>386</ele>
        <time>2022-05-23 19:48:13</time>
      </trkpt>
      <trkpt lat="41.54712" lon="0.92222">
        <ele>386</ele>
        <time>2022-05-23 19:48:14</time>
      </trkpt>
      <trkpt lat="41.54712" lon="0.92216">
        <ele>386</ele>
        <time>2022-05-23 19:48:15</time>
      </trkpt>
      <trkpt lat="41.54713" lon="0.92209">
        <ele>386</ele>
        <time>2022-05-23 19:48:16</time>
      </trkpt>
      <trkpt lat="41.54714" lon="0.92204">
        <ele>386</ele>
        <time>2022-05-23 19:48:17</time>
      </trkpt>
      <trkpt lat="41.54715" lon="0.92196">
        <ele>385.8</ele>
        <time>2022-05-23 19:48:18</time>
      </trkpt>
      <trkpt lat="41.54716" lon="0.9219">
        <ele>385.8</ele>
        <time>2022-05-23 19:48:19</time>
      </trkpt>
      <trkpt lat="41.54717" lon="0.92181">
        <ele>385.6</ele>
        <time>2022-05-23 19:48:20</time>
      </trkpt>
      <trkpt lat="41.54718" lon="0.92175">
        <ele>385.4</ele>
        <time>2022-05-23 19:48:21</time>
      </trkpt>
      <trkpt lat="41.54719" lon="0.92167">
        <ele>385.4</ele>
        <time>2022-05-23 19:48:22</time>
      </trkpt>
      <trkpt lat="41.5472" lon="0.9216">
        <ele>385.2</ele>
        <time>2022-05-23 19:48:23</time>
      </trkpt>
      <trkpt lat="41.54721" lon="0.92152">
        <ele>385</ele>
        <time>2022-05-23 19:48:24</time>
      </trkpt>
      <trkpt lat="41.54722" lon="0.92147">
        <ele>384.8</ele>
        <time>2022-05-23 19:48:25</time>
      </trkpt>
      <trkpt lat="41.54723" lon="0.92138">
        <ele>384.8</ele>
        <time>2022-05-23 19:48:26</time>
      </trkpt>
      <trkpt lat="41.54724" lon="0.92133">
        <ele>384.8</ele>
        <time>2022-05-23 19:48:27</time>
      </trkpt>
      <trkpt lat="41.54725" lon="0.92124">
        <ele>384.6</ele>
        <time>2022-05-23 19:48:28</time>
      </trkpt>
      <trkpt lat="41.54726" lon="0.92119">
        <ele>384.6</ele>
        <time>2022-05-23 19:48:29</time>
      </trkpt>
      <trkpt lat="41.54728" lon="0.92111">
        <ele>384.4</ele>
        <time>2022-05-23 19:48:30</time>
      </trkpt>
      <trkpt lat="41.54728" lon="0.92107">
        <ele>384.4</ele>
        <time>2022-05-23 19:48:31</time>
      </trkpt>
      <trkpt lat="41.54729" lon="0.92098">
        <ele>384.4</ele>
        <time>2022-05-23 19:48:32</time>
      </trkpt>
      <trkpt lat="41.5473" lon="0.92093">
        <ele>384.4</ele>
        <time>2022-05-23 19:48:33</time>
      </trkpt>
      <trkpt lat="41.54731" lon="0.92085">
        <ele>384.4</ele>
        <time>2022-05-23 19:48:34</time>
      </trkpt>
      <trkpt lat="41.54732" lon="0.9208">
        <ele>384.4</ele>
        <time>2022-05-23 19:48:35</time>
      </trkpt>
      <trkpt lat="41.54734" lon="0.92071">
        <ele>384.4</ele>
        <time>2022-05-23 19:48:36</time>
      </trkpt>
      <trkpt lat="41.54735" lon="0.92065">
        <ele>384.4</ele>
        <time>2022-05-23 19:48:37</time>
      </trkpt>
      <trkpt lat="41.54736" lon="0.92057">
        <ele>384.4</ele>
        <time>2022-05-23 19:48:38</time>
      </trkpt>
      <trkpt lat="41.54737" lon="0.92052">
        <ele>384.6</ele>
        <time>2022-05-23 19:48:39</time>
      </trkpt>
      <trkpt lat="41.54739" lon="0.92043">
        <ele>384.6</ele>
        <time>2022-05-23 19:48:40</time>
      </trkpt>
      <trkpt lat="41.5474" lon="0.92037">
        <ele>384.6</ele>
        <time>2022-05-23 19:48:41</time>
      </trkpt>
      <trkpt lat="41.54741" lon="0.92028">
        <ele>384.8</ele>
        <time>2022-05-23 19:48:42</time>
      </trkpt>
      <trkpt lat="41.54742" lon="0.92023">
        <ele>384.8</ele>
        <time>2022-05-23 19:48:43</time>
      </trkpt>
      <trkpt lat="41.54744" lon="0.92014">
        <ele>384.8</ele>
        <time>2022-05-23 19:48:44</time>
      </trkpt>
      <trkpt lat="41.54745" lon="0.92009">
        <ele>384.8</ele>
        <time>2022-05-23 19:48:45</time>
      </trkpt>
      <trkpt lat="41.54747" lon="0.92001">
        <ele>385</ele>
        <time>2022-05-23 19:48:46</time>
      </trkpt>
      <trkpt lat="41.54747" lon="0.91995">
        <ele>385</ele>
        <time>2022-05-23 19:48:47</time>
      </trkpt>
      <trkpt lat="41.54748" lon="0.91987">
        <ele>385</ele>
        <time>2022-05-23 19:48:48</time>
      </trkpt>
      <trkpt lat="41.54749" lon="0.91982">
        <ele>385</ele>
        <time>2022-05-23 19:48:49</time>
      </trkpt>
      <trkpt lat="41.54749" lon="0.91973">
        <ele>385.2</ele>
        <time>2022-05-23 19:48:50</time>
      </trkpt>
      <trkpt lat="41.54749" lon="0.91968">
        <ele>385.2</ele>
        <time>2022-05-23 19:48:51</time>
      </trkpt>
      <trkpt lat="41.54748" lon="0.9196">
        <ele>385.2</ele>
        <time>2022-05-23 19:48:52</time>
      </trkpt>
      <trkpt lat="41.54748" lon="0.91954">
        <ele>385.2</ele>
        <time>2022-05-23 19:48:53</time>
      </trkpt>
      <trkpt lat="41.54746" lon="0.91946">
        <ele>385.2</ele>
        <time>2022-05-23 19:48:54</time>
      </trkpt>
      <trkpt lat="41.54745" lon="0.91941">
        <ele>385.2</ele>
        <time>2022-05-23 19:48:55</time>
      </trkpt>
      <trkpt lat="41.54742" lon="0.91933">
        <ele>385.2</ele>
        <time>2022-05-23 19:48:56</time>
      </trkpt>
      <trkpt lat="41.5474" lon="0.91927">
        <ele>385.4</ele>
        <time>2022-05-23 19:48:57</time>
      </trkpt>
      <trkpt lat="41.54736" lon="0.9192">
        <ele>385.4</ele>
        <time>2022-05-23 19:48:58</time>
      </trkpt>
      <trkpt lat="41.54734" lon="0.91916">
        <ele>385.4</ele>
        <time>2022-05-23 19:48:59</time>
      </trkpt>
      <trkpt lat="41.5473" lon="0.91908">
        <ele>385.4</ele>
        <time>2022-05-23 19:49:00</time>
      </trkpt>
      <trkpt lat="41.54727" lon="0.91904">
        <ele>385.4</ele>
        <time>2022-05-23 19:49:01</time>
      </trkpt>
      <trkpt lat="41.54723" lon="0.91897">
        <ele>385.2</ele>
        <time>2022-05-23 19:49:02</time>
      </trkpt>
      <trkpt lat="41.54721" lon="0.91892">
        <ele>385.2</ele>
        <time>2022-05-23 19:49:03</time>
      </trkpt>
      <trkpt lat="41.54716" lon="0.91885">
        <ele>385.2</ele>
        <time>2022-05-23 19:49:04</time>
      </trkpt>
      <trkpt lat="41.54714" lon="0.91881">
        <ele>385.2</ele>
        <time>2022-05-23 19:49:05</time>
      </trkpt>
      <trkpt lat="41.5471" lon="0.91874">
        <ele>385.2</ele>
        <time>2022-05-23 19:49:06</time>
      </trkpt>
      <trkpt lat="41.54707" lon="0.9187">
        <ele>385.2</ele>
        <time>2022-05-23 19:49:07</time>
      </trkpt>
      <trkpt lat="41.54703" lon="0.91863">
        <ele>385.2</ele>
        <time>2022-05-23 19:49:08</time>
      </trkpt>
      <trkpt lat="41.547" lon="0.91859">
        <ele>385.4</ele>
        <time>2022-05-23 19:49:09</time>
      </trkpt>
      <trkpt lat="41.54696" lon="0.91852">
        <ele>385.4</ele>
        <time>2022-05-23 19:49:10</time>
      </trkpt>
      <trkpt lat="41.54693" lon="0.91848">
        <ele>385.4</ele>
        <time>2022-05-23 19:49:11</time>
      </trkpt>
      <trkpt lat="41.54688" lon="0.91842">
        <ele>385.4</ele>
        <time>2022-05-23 19:49:12</time>
      </trkpt>
      <trkpt lat="41.54685" lon="0.91839">
        <ele>385.4</ele>
        <time>2022-05-23 19:49:13</time>
      </trkpt>
      <trkpt lat="41.54679" lon="0.91833">
        <ele>385.4</ele>
        <time>2022-05-23 19:49:14</time>
      </trkpt>
      <trkpt lat="41.54676" lon="0.9183">
        <ele>385.6</ele>
        <time>2022-05-23 19:49:15</time>
      </trkpt>
      <trkpt lat="41.5467" lon="0.91825">
        <ele>385.6</ele>
        <time>2022-05-23 19:49:16</time>
      </trkpt>
      <trkpt lat="41.54666" lon="0.91823">
        <ele>385.4</ele>
        <time>2022-05-23 19:49:17</time>
      </trkpt>
      <trkpt lat="41.5466" lon="0.91819">
        <ele>385.6</ele>
        <time>2022-05-23 19:49:18</time>
      </trkpt>
      <trkpt lat="41.54656" lon="0.91816">
        <ele>385.6</ele>
        <time>2022-05-23 19:49:19</time>
      </trkpt>
      <trkpt lat="41.54649" lon="0.91813">
        <ele>385.6</ele>
        <time>2022-05-23 19:49:20</time>
      </trkpt>
      <trkpt lat="41.54645" lon="0.91811">
        <ele>385.6</ele>
        <time>2022-05-23 19:49:21</time>
      </trkpt>
      <trkpt lat="41.54639" lon="0.91809">
        <ele>385.6</ele>
        <time>2022-05-23 19:49:22</time>
      </trkpt>
      <trkpt lat="41.54634" lon="0.91807">
        <ele>385.6</ele>
        <time>2022-05-23 19:49:23</time>
      </trkpt>
      <trkpt lat="41.54627" lon="0.91805">
        <ele>385.6</ele>
        <time>2022-05-23 19:49:24</time>
      </trkpt>
      <trkpt lat="41.54622" lon="0.91804">
        <ele>385.6</ele>
        <time>2022-05-23 19:49:25</time>
      </trkpt>
      <trkpt lat="41.54616" lon="0.91802">
        <ele>385.6</ele>
        <time>2022-05-23 19:49:26</time>
      </trkpt>
      <trkpt lat="41.5461" lon="0.918">
        <ele>385.6</ele>
        <time>2022-05-23 19:49:27</time>
      </trkpt>
      <trkpt lat="41.54604" lon="0.91799">
        <ele>385.6</ele>
        <time>2022-05-23 19:49:28</time>
      </trkpt>
      <trkpt lat="41.54598" lon="0.91797">
        <ele>385.6</ele>
        <time>2022-05-23 19:49:29</time>
      </trkpt>
      <trkpt lat="41.54592" lon="0.91795">
        <ele>385.6</ele>
        <time>2022-05-23 19:49:30</time>
      </trkpt>
      <trkpt lat="41.54587" lon="0.91793">
        <ele>385.6</ele>
        <time>2022-05-23 19:49:31</time>
      </trkpt>
      <trkpt lat="41.5458" lon="0.91792">
        <ele>385.6</ele>
        <time>2022-05-23 19:49:32</time>
      </trkpt>
      <trkpt lat="41.54575" lon="0.9179">
        <ele>385.6</ele>
        <time>2022-05-23 19:49:33</time>
      </trkpt>
      <trkpt lat="41.54569" lon="0.91789">
        <ele>385.6</ele>
        <time>2022-05-23 19:49:34</time>
      </trkpt>
      <trkpt lat="41.54563" lon="0.91787">
        <ele>385.6</ele>
        <time>2022-05-23 19:49:35</time>
      </trkpt>
      <trkpt lat="41.54558" lon="0.91786">
        <ele>385.6</ele>
        <time>2022-05-23 19:49:36</time>
      </trkpt>
      <trkpt lat="41.54551" lon="0.91784">
        <ele>385.6</ele>
        <time>2022-05-23 19:49:37</time>
      </trkpt>
      <trkpt lat="41.54546" lon="0.91783">
        <ele>385.6</ele>
        <time>2022-05-23 19:49:38</time>
      </trkpt>
      <trkpt lat="41.5454" lon="0.91781">
        <ele>385.6</ele>
        <time>2022-05-23 19:49:39</time>
      </trkpt>
      <trkpt lat="41.54534" lon="0.9178">
        <ele>385.6</ele>
        <time>2022-05-23 19:49:40</time>
      </trkpt>
      <trkpt lat="41.54529" lon="0.91778">
        <ele>385.6</ele>
        <time>2022-05-23 19:49:41</time>
      </trkpt>
      <trkpt lat="41.54523" lon="0.91777">
        <ele>385.6</ele>
        <time>2022-05-23 19:49:42</time>
      </trkpt>
      <trkpt lat="41.54518" lon="0.91775">
        <ele>385.6</ele>
        <time>2022-05-23 19:49:43</time>
      </trkpt>
      <trkpt lat="41.54512" lon="0.91774">
        <ele>385.6</ele>
        <time>2022-05-23 19:49:44</time>
      </trkpt>
      <trkpt lat="41.54506" lon="0.91772">
        <ele>385.6</ele>
        <time>2022-05-23 19:49:45</time>
      </trkpt>
      <trkpt lat="41.54501" lon="0.91771">
        <ele>385.6</ele>
        <time>2022-05-23 19:49:46</time>
      </trkpt>
      <trkpt lat="41.54495" lon="0.91769">
        <ele>385.6</ele>
        <time>2022-05-23 19:49:47</time>
      </trkpt>
      <trkpt lat="41.5449" lon="0.91768">
        <ele>385.8</ele>
        <time>2022-05-23 19:49:48</time>
      </trkpt>
      <trkpt lat="41.54484" lon="0.91767">
        <ele>385.8</ele>
        <time>2022-05-23 19:49:49</time>
      </trkpt>
      <trkpt lat="41.54479" lon="0.91765">
        <ele>385.8</ele>
        <time>2022-05-23 19:49:50</time>
      </trkpt>
      <trkpt lat="41.54474" lon="0.91764">
        <ele>385.8</ele>
        <time>2022-05-23 19:49:51</time>
      </trkpt>
      <trkpt lat="41.54469" lon="0.91762">
        <ele>385.8</ele>
        <time>2022-05-23 19:49:52</time>
      </trkpt>
      <trkpt lat="41.54464" lon="0.91761">
        <ele>385.8</ele>
        <time>2022-05-23 19:49:53</time>
      </trkpt>
      <trkpt lat="41.54459" lon="0.9176">
        <ele>385.8</ele>
        <time>2022-05-23 19:49:54</time>
      </trkpt>
      <trkpt lat="41.54454" lon="0.91758">
        <ele>385.8</ele>
        <time>2022-05-23 19:49:55</time>
      </trkpt>
      <trkpt lat="41.54448" lon="0.91757">
        <ele>385.8</ele>
        <time>2022-05-23 19:49:56</time>
      </trkpt>
      <trkpt lat="41.54443" lon="0.91756">
        <ele>385.8</ele>
        <time>2022-05-23 19:49:57</time>
      </trkpt>
      <trkpt lat="41.54437" lon="0.91754">
        <ele>385.8</ele>
        <time>2022-05-23 19:49:58</time>
      </trkpt>
      <trkpt lat="41.54431" lon="0.91752">
        <ele>385.8</ele>
        <time>2022-05-23 19:49:59</time>
      </trkpt>
      <trkpt lat="41.54426" lon="0.9175">
        <ele>385.8</ele>
        <time>2022-05-23 19:50:00</time>
      </trkpt>
      <trkpt lat="41.5442" lon="0.91748">
        <ele>385.8</ele>
        <time>2022-05-23 19:50:01</time>
      </trkpt>
      <trkpt lat="41.54414" lon="0.91747">
        <ele>385.8</ele>
        <time>2022-05-23 19:50:02</time>
      </trkpt>
      <trkpt lat="41.54409" lon="0.91745">
        <ele>386</ele>
        <time>2022-05-23 19:50:03</time>
      </trkpt>
      <trkpt lat="41.54403" lon="0.91744">
        <ele>386</ele>
        <time>2022-05-23 19:50:04</time>
      </trkpt>
      <trkpt lat="41.54398" lon="0.91742">
        <ele>386</ele>
        <time>2022-05-23 19:50:05</time>
      </trkpt>
      <trkpt lat="41.54392" lon="0.9174">
        <ele>386</ele>
        <time>2022-05-23 19:50:06</time>
      </trkpt>
      <trkpt lat="41.54387" lon="0.91739">
        <ele>386.2</ele>
        <time>2022-05-23 19:50:07</time>
      </trkpt>
      <trkpt lat="41.54381" lon="0.91737">
        <ele>386.2</ele>
        <time>2022-05-23 19:50:08</time>
      </trkpt>
      <trkpt lat="41.54377" lon="0.91736">
        <ele>386.2</ele>
        <time>2022-05-23 19:50:09</time>
      </trkpt>
      <trkpt lat="41.54371" lon="0.91734">
        <ele>386.2</ele>
        <time>2022-05-23 19:50:10</time>
      </trkpt>
      <trkpt lat="41.54366" lon="0.91732">
        <ele>386.4</ele>
        <time>2022-05-23 19:50:11</time>
      </trkpt>
      <trkpt lat="41.54361" lon="0.9173">
        <ele>386.4</ele>
        <time>2022-05-23 19:50:12</time>
      </trkpt>
      <trkpt lat="41.54356" lon="0.91729">
        <ele>386.4</ele>
        <time>2022-05-23 19:50:13</time>
      </trkpt>
      <trkpt lat="41.5435" lon="0.91727">
        <ele>386.4</ele>
        <time>2022-05-23 19:50:14</time>
      </trkpt>
      <trkpt lat="41.54345" lon="0.91726">
        <ele>386.4</ele>
        <time>2022-05-23 19:50:15</time>
      </trkpt>
      <trkpt lat="41.54339" lon="0.91724">
        <ele>386.4</ele>
        <time>2022-05-23 19:50:16</time>
      </trkpt>
      <trkpt lat="41.54333" lon="0.91722">
        <ele>386.4</ele>
        <time>2022-05-23 19:50:17</time>
      </trkpt>
      <trkpt lat="41.54328" lon="0.91721">
        <ele>386.4</ele>
        <time>2022-05-23 19:50:18</time>
      </trkpt>
      <trkpt lat="41.54322" lon="0.91719">
        <ele>386.4</ele>
        <time>2022-05-23 19:50:19</time>
      </trkpt>
      <trkpt lat="41.54316" lon="0.91717">
        <ele>386.2</ele>
        <time>2022-05-23 19:50:20</time>
      </trkpt>
      <trkpt lat="41.5431" lon="0.91716">
        <ele>386.2</ele>
        <time>2022-05-23 19:50:21</time>
      </trkpt>
      <trkpt lat="41.54304" lon="0.91715">
        <ele>386.2</ele>
        <time>2022-05-23 19:50:22</time>
      </trkpt>
      <trkpt lat="41.54299" lon="0.91713">
        <ele>386</ele>
        <time>2022-05-23 19:50:23</time>
      </trkpt>
      <trkpt lat="41.54292" lon="0.91712">
        <ele>386</ele>
        <time>2022-05-23 19:50:24</time>
      </trkpt>
      <trkpt lat="41.54286" lon="0.9171">
        <ele>385.8</ele>
        <time>2022-05-23 19:50:25</time>
      </trkpt>
      <trkpt lat="41.54281" lon="0.91709">
        <ele>385.8</ele>
        <time>2022-05-23 19:50:26</time>
      </trkpt>
      <trkpt lat="41.54274" lon="0.91707">
        <ele>385.8</ele>
        <time>2022-05-23 19:50:27</time>
      </trkpt>
      <trkpt lat="41.54268" lon="0.91706">
        <ele>385.6</ele>
        <time>2022-05-23 19:50:28</time>
      </trkpt>
      <trkpt lat="41.54262" lon="0.91706">
        <ele>385.8</ele>
        <time>2022-05-23 19:50:29</time>
      </trkpt>
      <trkpt lat="41.54256" lon="0.91706">
        <ele>385.6</ele>
        <time>2022-05-23 19:50:30</time>
      </trkpt>
      <trkpt lat="41.5425" lon="0.91706">
        <ele>385.8</ele>
        <time>2022-05-23 19:50:31</time>
      </trkpt>
      <trkpt lat="41.54244" lon="0.91706">
        <ele>385.8</ele>
        <time>2022-05-23 19:50:32</time>
      </trkpt>
      <trkpt lat="41.54238" lon="0.91706">
        <ele>385.8</ele>
        <time>2022-05-23 19:50:33</time>
      </trkpt>
      <trkpt lat="41.54232" lon="0.91707">
        <ele>385.8</ele>
        <time>2022-05-23 19:50:34</time>
      </trkpt>
      <trkpt lat="41.54227" lon="0.91708">
        <ele>385.8</ele>
        <time>2022-05-23 19:50:35</time>
      </trkpt>
      <trkpt lat="41.54221" lon="0.91709">
        <ele>385.8</ele>
        <time>2022-05-23 19:50:36</time>
      </trkpt>
      <trkpt lat="41.54215" lon="0.9171">
        <ele>385.8</ele>
        <time>2022-05-23 19:50:37</time>
      </trkpt>
      <trkpt lat="41.54209" lon="0.91712">
        <ele>385.8</ele>
        <time>2022-05-23 19:50:38</time>
      </trkpt>
      <trkpt lat="41.54203" lon="0.91714">
        <ele>385.8</ele>
        <time>2022-05-23 19:50:39</time>
      </trkpt>
      <trkpt lat="41.54197" lon="0.91716">
        <ele>385.8</ele>
        <time>2022-05-23 19:50:40</time>
      </trkpt>
      <trkpt lat="41.54192" lon="0.91719">
        <ele>385.6</ele>
        <time>2022-05-23 19:50:41</time>
      </trkpt>
      <trkpt lat="41.54186" lon="0.91722">
        <ele>385.6</ele>
        <time>2022-05-23 19:50:42</time>
      </trkpt>
      <trkpt lat="41.54181" lon="0.91725">
        <ele>385.8</ele>
        <time>2022-05-23 19:50:43</time>
      </trkpt>
      <trkpt lat="41.54176" lon="0.91728">
        <ele>385.8</ele>
        <time>2022-05-23 19:50:44</time>
      </trkpt>
      <trkpt lat="41.54171" lon="0.91731">
        <ele>385.8</ele>
        <time>2022-05-23 19:50:45</time>
      </trkpt>
      <trkpt lat="41.54166" lon="0.91735">
        <ele>385.8</ele>
        <time>2022-05-23 19:50:46</time>
      </trkpt>
      <trkpt lat="41.54161" lon="0.91738">
        <ele>385.8</ele>
        <time>2022-05-23 19:50:47</time>
      </trkpt>
      <trkpt lat="41.54156" lon="0.91742">
        <ele>385.8</ele>
        <time>2022-05-23 19:50:48</time>
      </trkpt>
      <trkpt lat="41.54151" lon="0.91746">
        <ele>385.8</ele>
        <time>2022-05-23 19:50:49</time>
      </trkpt>
      <trkpt lat="41.54147" lon="0.91751">
        <ele>385.8</ele>
        <time>2022-05-23 19:50:50</time>
      </trkpt>
      <trkpt lat="41.54141" lon="0.91755">
        <ele>385.8</ele>
        <time>2022-05-23 19:50:51</time>
      </trkpt>
      <trkpt lat="41.54136" lon="0.9176">
        <ele>385.8</ele>
        <time>2022-05-23 19:50:52</time>
      </trkpt>
      <trkpt lat="41.54131" lon="0.91764">
        <ele>385.8</ele>
        <time>2022-05-23 19:50:53</time>
      </trkpt>
      <trkpt lat="41.54126" lon="0.91769">
        <ele>385.8</ele>
        <time>2022-05-23 19:50:54</time>
      </trkpt>
      <trkpt lat="41.54121" lon="0.91774">
        <ele>385.8</ele>
        <time>2022-05-23 19:50:55</time>
      </trkpt>
      <trkpt lat="41.54115" lon="0.91779">
        <ele>385.8</ele>
        <time>2022-05-23 19:50:56</time>
      </trkpt>
      <trkpt lat="41.5411" lon="0.91784">
        <ele>385.8</ele>
        <time>2022-05-23 19:50:57</time>
      </trkpt>
      <trkpt lat="41.54105" lon="0.91788">
        <ele>385.8</ele>
        <time>2022-05-23 19:50:58</time>
      </trkpt>
      <trkpt lat="41.54099" lon="0.91792">
        <ele>385.8</ele>
        <time>2022-05-23 19:50:59</time>
      </trkpt>
      <trkpt lat="41.54094" lon="0.91797">
        <ele>385.8</ele>
        <time>2022-05-23 19:51:00</time>
      </trkpt>
      <trkpt lat="41.54088" lon="0.91801">
        <ele>385.6</ele>
        <time>2022-05-23 19:51:01</time>
      </trkpt>
      <trkpt lat="41.54082" lon="0.91804">
        <ele>385.6</ele>
        <time>2022-05-23 19:51:02</time>
      </trkpt>
      <trkpt lat="41.54077" lon="0.91808">
        <ele>385.6</ele>
        <time>2022-05-23 19:51:03</time>
      </trkpt>
      <trkpt lat="41.54071" lon="0.91811">
        <ele>385.6</ele>
        <time>2022-05-23 19:51:04</time>
      </trkpt>
      <trkpt lat="41.54066" lon="0.91815">
        <ele>385.4</ele>
        <time>2022-05-23 19:51:05</time>
      </trkpt>
      <trkpt lat="41.54059" lon="0.91818">
        <ele>385.4</ele>
        <time>2022-05-23 19:51:06</time>
      </trkpt>
      <trkpt lat="41.54054" lon="0.91821">
        <ele>385.4</ele>
        <time>2022-05-23 19:51:07</time>
      </trkpt>
      <trkpt lat="41.54048" lon="0.91823">
        <ele>385.2</ele>
        <time>2022-05-23 19:51:08</time>
      </trkpt>
      <trkpt lat="41.54041" lon="0.91826">
        <ele>385.2</ele>
        <time>2022-05-23 19:51:09</time>
      </trkpt>
      <trkpt lat="41.54035" lon="0.91829">
        <ele>385</ele>
        <time>2022-05-23 19:51:10</time>
      </trkpt>
      <trkpt lat="41.54028" lon="0.9183">
        <ele>384.8</ele>
        <time>2022-05-23 19:51:11</time>
      </trkpt>
      <trkpt lat="41.5402" lon="0.91829">
        <ele>384.6</ele>
        <time>2022-05-23 19:51:12</time>
      </trkpt>
      <trkpt lat="41.54014" lon="0.91828">
        <ele>384.4</ele>
        <time>2022-05-23 19:51:13</time>
      </trkpt>
      <trkpt lat="41.54006" lon="0.91827">
        <ele>384.2</ele>
        <time>2022-05-23 19:51:14</time>
      </trkpt>
      <trkpt lat="41.54" lon="0.91826">
        <ele>384</ele>
        <time>2022-05-23 19:51:15</time>
      </trkpt>
      <trkpt lat="41.53993" lon="0.91824">
        <ele>383.8</ele>
        <time>2022-05-23 19:51:16</time>
      </trkpt>
      <trkpt lat="41.53986" lon="0.91823">
        <ele>383.8</ele>
        <time>2022-05-23 19:51:17</time>
      </trkpt>
      <trkpt lat="41.53979" lon="0.91822">
        <ele>383.8</ele>
        <time>2022-05-23 19:51:18</time>
      </trkpt>
      <trkpt lat="41.53972" lon="0.91821">
        <ele>383.6</ele>
        <time>2022-05-23 19:51:19</time>
      </trkpt>
      <trkpt lat="41.53965" lon="0.91819">
        <ele>383.6</ele>
        <time>2022-05-23 19:51:20</time>
      </trkpt>
      <trkpt lat="41.53959" lon="0.91817">
        <ele>383.4</ele>
        <time>2022-05-23 19:51:21</time>
      </trkpt>
      <trkpt lat="41.53952" lon="0.91816">
        <ele>383.4</ele>
        <time>2022-05-23 19:51:22</time>
      </trkpt>
      <trkpt lat="41.53945" lon="0.91814">
        <ele>383.4</ele>
        <time>2022-05-23 19:51:23</time>
      </trkpt>
      <trkpt lat="41.53939" lon="0.91812">
        <ele>383.4</ele>
        <time>2022-05-23 19:51:24</time>
      </trkpt>
      <trkpt lat="41.53933" lon="0.9181">
        <ele>383.4</ele>
        <time>2022-05-23 19:51:25</time>
      </trkpt>
      <trkpt lat="41.53927" lon="0.91808">
        <ele>383.4</ele>
        <time>2022-05-23 19:51:26</time>
      </trkpt>
      <trkpt lat="41.53921" lon="0.91807">
        <ele>383.4</ele>
        <time>2022-05-23 19:51:27</time>
      </trkpt>
      <trkpt lat="41.53914" lon="0.91805">
        <ele>383.4</ele>
        <time>2022-05-23 19:51:28</time>
      </trkpt>
      <trkpt lat="41.53908" lon="0.91803">
        <ele>383.6</ele>
        <time>2022-05-23 19:51:29</time>
      </trkpt>
      <trkpt lat="41.53903" lon="0.91801">
        <ele>383.6</ele>
        <time>2022-05-23 19:51:30</time>
      </trkpt>
      <trkpt lat="41.53897" lon="0.91799">
        <ele>383.6</ele>
        <time>2022-05-23 19:51:31</time>
      </trkpt>
      <trkpt lat="41.53891" lon="0.91796">
        <ele>383.6</ele>
        <time>2022-05-23 19:51:32</time>
      </trkpt>
      <trkpt lat="41.53886" lon="0.91793">
        <ele>383.8</ele>
        <time>2022-05-23 19:51:33</time>
      </trkpt>
      <trkpt lat="41.53882" lon="0.91789">
        <ele>383.8</ele>
        <time>2022-05-23 19:51:34</time>
      </trkpt>
      <trkpt lat="41.53878" lon="0.91784">
        <ele>384</ele>
        <time>2022-05-23 19:51:35</time>
      </trkpt>
      <trkpt lat="41.53874" lon="0.91778">
        <ele>384.2</ele>
        <time>2022-05-23 19:51:36</time>
      </trkpt>
      <trkpt lat="41.53872" lon="0.91772">
        <ele>384.2</ele>
        <time>2022-05-23 19:51:37</time>
      </trkpt>
      <trkpt lat="41.5387" lon="0.91767">
        <ele>384.4</ele>
        <time>2022-05-23 19:51:38</time>
      </trkpt>
      <trkpt lat="41.53868" lon="0.91762">
        <ele>384.6</ele>
        <time>2022-05-23 19:51:39</time>
      </trkpt>
      <trkpt lat="41.53866" lon="0.91757">
        <ele>384.8</ele>
        <time>2022-05-23 19:51:40</time>
      </trkpt>
      <trkpt lat="41.53863" lon="0.91753">
        <ele>385</ele>
        <time>2022-05-23 19:51:41</time>
      </trkpt>
      <trkpt lat="41.53862" lon="0.91749">
        <ele>385.4</ele>
        <time>2022-05-23 19:51:42</time>
      </trkpt>
      <trkpt lat="41.5386" lon="0.91744">
        <ele>385.6</ele>
        <time>2022-05-23 19:51:43</time>
      </trkpt>
      <trkpt lat="41.53858" lon="0.9174">
        <ele>385.8</ele>
        <time>2022-05-23 19:51:44</time>
      </trkpt>
      <trkpt lat="41.53856" lon="0.91735">
        <ele>386</ele>
        <time>2022-05-23 19:51:45</time>
      </trkpt>
      <trkpt lat="41.53854" lon="0.91731">
        <ele>386</ele>
        <time>2022-05-23 19:51:46</time>
      </trkpt>
      <trkpt lat="41.53852" lon="0.91726">
        <ele>386.2</ele>
        <time>2022-05-23 19:51:47</time>
      </trkpt>
      <trkpt lat="41.53849" lon="0.91721">
        <ele>386.4</ele>
        <time>2022-05-23 19:51:48</time>
      </trkpt>
      <trkpt lat="41.53847" lon="0.91717">
        <ele>386.6</ele>
        <time>2022-05-23 19:51:49</time>
      </trkpt>
      <trkpt lat="41.53845" lon="0.91712">
        <ele>386.8</ele>
        <time>2022-05-23 19:51:50</time>
      </trkpt>
      <trkpt lat="41.53843" lon="0.91708">
        <ele>387</ele>
        <time>2022-05-23 19:51:51</time>
      </trkpt>
      <trkpt lat="41.53841" lon="0.91704">
        <ele>387.2</ele>
        <time>2022-05-23 19:51:52</time>
      </trkpt>
      <trkpt lat="41.53838" lon="0.91699">
        <ele>387.4</ele>
        <time>2022-05-23 19:51:53</time>
      </trkpt>
      <trkpt lat="41.53836" lon="0.91695">
        <ele>387.6</ele>
        <time>2022-05-23 19:51:54</time>
      </trkpt>
      <trkpt lat="41.53833" lon="0.91691">
        <ele>387.6</ele>
        <time>2022-05-23 19:51:55</time>
      </trkpt>
      <trkpt lat="41.53831" lon="0.91687">
        <ele>387.8</ele>
        <time>2022-05-23 19:51:56</time>
      </trkpt>
      <trkpt lat="41.53828" lon="0.91683">
        <ele>388</ele>
        <time>2022-05-23 19:51:57</time>
      </trkpt>
      <trkpt lat="41.53825" lon="0.91679">
        <ele>388.2</ele>
        <time>2022-05-23 19:51:58</time>
      </trkpt>
      <trkpt lat="41.53823" lon="0.91675">
        <ele>388.4</ele>
        <time>2022-05-23 19:51:59</time>
      </trkpt>
      <trkpt lat="41.5382" lon="0.91672">
        <ele>388.4</ele>
        <time>2022-05-23 19:52:00</time>
      </trkpt>
      <trkpt lat="41.53817" lon="0.91669">
        <ele>388.6</ele>
        <time>2022-05-23 19:52:01</time>
      </trkpt>
      <trkpt lat="41.53814" lon="0.91666">
        <ele>388.8</ele>
        <time>2022-05-23 19:52:02</time>
      </trkpt>
      <trkpt lat="41.53811" lon="0.91663">
        <ele>389</ele>
        <time>2022-05-23 19:52:03</time>
      </trkpt>
      <trkpt lat="41.53809" lon="0.9166">
        <ele>389</ele>
        <time>2022-05-23 19:52:04</time>
      </trkpt>
      <trkpt lat="41.53806" lon="0.91657">
        <ele>389.2</ele>
        <time>2022-05-23 19:52:05</time>
      </trkpt>
      <trkpt lat="41.53804" lon="0.91656">
        <ele>389.4</ele>
        <time>2022-05-23 19:52:06</time>
      </trkpt>
      <trkpt lat="41.53801" lon="0.91654">
        <ele>389.4</ele>
        <time>2022-05-23 19:52:07</time>
      </trkpt>
      <trkpt lat="41.53798" lon="0.91652">
        <ele>389.6</ele>
        <time>2022-05-23 19:52:08</time>
      </trkpt>
      <trkpt lat="41.53796" lon="0.9165">
        <ele>389.8</ele>
        <time>2022-05-23 19:52:09</time>
      </trkpt>
      <trkpt lat="41.53793" lon="0.91648">
        <ele>390</ele>
        <time>2022-05-23 19:52:10</time>
      </trkpt>
      <trkpt lat="41.53791" lon="0.91646">
        <ele>390.2</ele>
        <time>2022-05-23 19:52:11</time>
      </trkpt>
      <trkpt lat="41.53788" lon="0.91644">
        <ele>390.2</ele>
        <time>2022-05-23 19:52:12</time>
      </trkpt>
      <trkpt lat="41.53785" lon="0.91643">
        <ele>390.4</ele>
        <time>2022-05-23 19:52:13</time>
      </trkpt>
      <trkpt lat="41.53782" lon="0.91641">
        <ele>390.6</ele>
        <time>2022-05-23 19:52:14</time>
      </trkpt>
      <trkpt lat="41.53779" lon="0.9164">
        <ele>390.8</ele>
        <time>2022-05-23 19:52:15</time>
      </trkpt>
      <trkpt lat="41.53776" lon="0.91638">
        <ele>390.8</ele>
        <time>2022-05-23 19:52:16</time>
      </trkpt>
      <trkpt lat="41.53773" lon="0.91636">
        <ele>391</ele>
        <time>2022-05-23 19:52:17</time>
      </trkpt>
      <trkpt lat="41.5377" lon="0.91635">
        <ele>391.2</ele>
        <time>2022-05-23 19:52:18</time>
      </trkpt>
      <trkpt lat="41.53768" lon="0.91633">
        <ele>391.2</ele>
        <time>2022-05-23 19:52:19</time>
      </trkpt>
      <trkpt lat="41.53765" lon="0.91631">
        <ele>391.4</ele>
        <time>2022-05-23 19:52:20</time>
      </trkpt>
      <trkpt lat="41.53762" lon="0.91629">
        <ele>391.6</ele>
        <time>2022-05-23 19:52:21</time>
      </trkpt>
      <trkpt lat="41.5376" lon="0.91628">
        <ele>391.6</ele>
        <time>2022-05-23 19:52:22</time>
      </trkpt>
      <trkpt lat="41.53757" lon="0.91627">
        <ele>391.8</ele>
        <time>2022-05-23 19:52:23</time>
      </trkpt>
      <trkpt lat="41.53754" lon="0.91625">
        <ele>392</ele>
        <time>2022-05-23 19:52:24</time>
      </trkpt>
      <trkpt lat="41.53751" lon="0.91624">
        <ele>392.2</ele>
        <time>2022-05-23 19:52:25</time>
      </trkpt>
      <trkpt lat="41.53747" lon="0.91623">
        <ele>392.4</ele>
        <time>2022-05-23 19:52:26</time>
      </trkpt>
      <trkpt lat="41.53744" lon="0.91622">
        <ele>392.4</ele>
        <time>2022-05-23 19:52:27</time>
      </trkpt>
      <trkpt lat="41.53742" lon="0.91621">
        <ele>392.6</ele>
        <time>2022-05-23 19:52:28</time>
      </trkpt>
      <trkpt lat="41.53739" lon="0.9162">
        <ele>392.8</ele>
        <time>2022-05-23 19:52:29</time>
      </trkpt>
      <trkpt lat="41.53736" lon="0.91619">
        <ele>392.8</ele>
        <time>2022-05-23 19:52:30</time>
      </trkpt>
      <trkpt lat="41.53733" lon="0.91617">
        <ele>393</ele>
        <time>2022-05-23 19:52:31</time>
      </trkpt>
      <trkpt lat="41.53729" lon="0.91615">
        <ele>393.2</ele>
        <time>2022-05-23 19:52:32</time>
      </trkpt>
      <trkpt lat="41.53726" lon="0.91614">
        <ele>393.2</ele>
        <time>2022-05-23 19:52:33</time>
      </trkpt>
      <trkpt lat="41.53723" lon="0.91613">
        <ele>393.4</ele>
        <time>2022-05-23 19:52:34</time>
      </trkpt>
      <trkpt lat="41.53721" lon="0.91612">
        <ele>393.6</ele>
        <time>2022-05-23 19:52:35</time>
      </trkpt>
      <trkpt lat="41.53718" lon="0.91611">
        <ele>393.6</ele>
        <time>2022-05-23 19:52:36</time>
      </trkpt>
      <trkpt lat="41.53715" lon="0.9161">
        <ele>393.8</ele>
        <time>2022-05-23 19:52:37</time>
      </trkpt>
      <trkpt lat="41.53712" lon="0.91608">
        <ele>394</ele>
        <time>2022-05-23 19:52:38</time>
      </trkpt>
      <trkpt lat="41.53709" lon="0.91607">
        <ele>394.2</ele>
        <time>2022-05-23 19:52:39</time>
      </trkpt>
      <trkpt lat="41.53706" lon="0.91606">
        <ele>394.2</ele>
        <time>2022-05-23 19:52:40</time>
      </trkpt>
      <trkpt lat="41.53704" lon="0.91605">
        <ele>394.4</ele>
        <time>2022-05-23 19:52:41</time>
      </trkpt>
      <trkpt lat="41.53701" lon="0.91603">
        <ele>394.6</ele>
        <time>2022-05-23 19:52:42</time>
      </trkpt>
      <trkpt lat="41.53698" lon="0.91601">
        <ele>394.6</ele>
        <time>2022-05-23 19:52:43</time>
      </trkpt>
      <trkpt lat="41.53695" lon="0.916">
        <ele>394.8</ele>
        <time>2022-05-23 19:52:44</time>
      </trkpt>
      <trkpt lat="41.53692" lon="0.91598">
        <ele>395</ele>
        <time>2022-05-23 19:52:45</time>
      </trkpt>
      <trkpt lat="41.53689" lon="0.91596">
        <ele>395</ele>
        <time>2022-05-23 19:52:46</time>
      </trkpt>
      <trkpt lat="41.53686" lon="0.91594">
        <ele>395.2</ele>
        <time>2022-05-23 19:52:47</time>
      </trkpt>
      <trkpt lat="41.53684" lon="0.91592">
        <ele>395.2</ele>
        <time>2022-05-23 19:52:48</time>
      </trkpt>
      <trkpt lat="41.53681" lon="0.9159">
        <ele>395.4</ele>
        <time>2022-05-23 19:52:49</time>
      </trkpt>
      <trkpt lat="41.53678" lon="0.91588">
        <ele>395.6</ele>
        <time>2022-05-23 19:52:50</time>
      </trkpt>
      <trkpt lat="41.53676" lon="0.91586">
        <ele>395.8</ele>
        <time>2022-05-23 19:52:51</time>
      </trkpt>
      <trkpt lat="41.53673" lon="0.91584">
        <ele>395.8</ele>
        <time>2022-05-23 19:52:52</time>
      </trkpt>
      <trkpt lat="41.53671" lon="0.91582">
        <ele>396</ele>
        <time>2022-05-23 19:52:53</time>
      </trkpt>
      <trkpt lat="41.53668" lon="0.9158">
        <ele>396</ele>
        <time>2022-05-23 19:52:54</time>
      </trkpt>
      <trkpt lat="41.53666" lon="0.91577">
        <ele>396.2</ele>
        <time>2022-05-23 19:52:55</time>
      </trkpt>
      <trkpt lat="41.53663" lon="0.91575">
        <ele>396.4</ele>
        <time>2022-05-23 19:52:56</time>
      </trkpt>
      <trkpt lat="41.53661" lon="0.91572">
        <ele>396.4</ele>
        <time>2022-05-23 19:52:57</time>
      </trkpt>
      <trkpt lat="41.53659" lon="0.9157">
        <ele>396.6</ele>
        <time>2022-05-23 19:52:58</time>
      </trkpt>
      <trkpt lat="41.53656" lon="0.91567">
        <ele>396.8</ele>
        <time>2022-05-23 19:52:59</time>
      </trkpt>
      <trkpt lat="41.53653" lon="0.91565">
        <ele>396.8</ele>
        <time>2022-05-23 19:53:00</time>
      </trkpt>
      <trkpt lat="41.53651" lon="0.91562">
        <ele>397</ele>
        <time>2022-05-23 19:53:01</time>
      </trkpt>
      <trkpt lat="41.53649" lon="0.91559">
        <ele>397.2</ele>
        <time>2022-05-23 19:53:02</time>
      </trkpt>
      <trkpt lat="41.53646" lon="0.91557">
        <ele>397.2</ele>
        <time>2022-05-23 19:53:03</time>
      </trkpt>
      <trkpt lat="41.53644" lon="0.91554">
        <ele>397.4</ele>
        <time>2022-05-23 19:53:04</time>
      </trkpt>
      <trkpt lat="41.53642" lon="0.91551">
        <ele>397.6</ele>
        <time>2022-05-23 19:53:05</time>
      </trkpt>
      <trkpt lat="41.5364" lon="0.91549">
        <ele>397.8</ele>
        <time>2022-05-23 19:53:06</time>
      </trkpt>
      <trkpt lat="41.53638" lon="0.91546">
        <ele>397.8</ele>
        <time>2022-05-23 19:53:07</time>
      </trkpt>
      <trkpt lat="41.53635" lon="0.91543">
        <ele>398</ele>
        <time>2022-05-23 19:53:08</time>
      </trkpt>
      <trkpt lat="41.53633" lon="0.9154">
        <ele>398</ele>
        <time>2022-05-23 19:53:09</time>
      </trkpt>
      <trkpt lat="41.53631" lon="0.91537">
        <ele>398.2</ele>
        <time>2022-05-23 19:53:10</time>
      </trkpt>
      <trkpt lat="41.53628" lon="0.91534">
        <ele>398.4</ele>
        <time>2022-05-23 19:53:11</time>
      </trkpt>
      <trkpt lat="41.53626" lon="0.91531">
        <ele>398.4</ele>
        <time>2022-05-23 19:53:12</time>
      </trkpt>
      <trkpt lat="41.53624" lon="0.91528">
        <ele>398.6</ele>
        <time>2022-05-23 19:53:13</time>
      </trkpt>
      <trkpt lat="41.53622" lon="0.91525">
        <ele>398.6</ele>
        <time>2022-05-23 19:53:14</time>
      </trkpt>
      <trkpt lat="41.53619" lon="0.91522">
        <ele>398.8</ele>
        <time>2022-05-23 19:53:15</time>
      </trkpt>
      <trkpt lat="41.53617" lon="0.91519">
        <ele>399</ele>
        <time>2022-05-23 19:53:16</time>
      </trkpt>
      <trkpt lat="41.53615" lon="0.91517">
        <ele>399</ele>
        <time>2022-05-23 19:53:17</time>
      </trkpt>
      <trkpt lat="41.53612" lon="0.91514">
        <ele>399.2</ele>
        <time>2022-05-23 19:53:18</time>
      </trkpt>
      <trkpt lat="41.5361" lon="0.91511">
        <ele>399.4</ele>
        <time>2022-05-23 19:53:19</time>
      </trkpt>
      <trkpt lat="41.53608" lon="0.91508">
        <ele>399.6</ele>
        <time>2022-05-23 19:53:20</time>
      </trkpt>
      <trkpt lat="41.53606" lon="0.91505">
        <ele>399.6</ele>
        <time>2022-05-23 19:53:21</time>
      </trkpt>
      <trkpt lat="41.53604" lon="0.91502">
        <ele>399.8</ele>
        <time>2022-05-23 19:53:22</time>
      </trkpt>
      <trkpt lat="41.53601" lon="0.915">
        <ele>400</ele>
        <time>2022-05-23 19:53:23</time>
      </trkpt>
      <trkpt lat="41.53599" lon="0.91497">
        <ele>400.2</ele>
        <time>2022-05-23 19:53:24</time>
      </trkpt>
      <trkpt lat="41.53597" lon="0.91494">
        <ele>400.2</ele>
        <time>2022-05-23 19:53:25</time>
      </trkpt>
      <trkpt lat="41.53595" lon="0.91491">
        <ele>400.4</ele>
        <time>2022-05-23 19:53:26</time>
      </trkpt>
      <trkpt lat="41.53592" lon="0.91488">
        <ele>400.4</ele>
        <time>2022-05-23 19:53:27</time>
      </trkpt>
      <trkpt lat="41.5359" lon="0.91485">
        <ele>400.6</ele>
        <time>2022-05-23 19:53:28</time>
      </trkpt>
      <trkpt lat="41.53588" lon="0.91483">
        <ele>400.8</ele>
        <time>2022-05-23 19:53:29</time>
      </trkpt>
      <trkpt lat="41.53586" lon="0.9148">
        <ele>400.8</ele>
        <time>2022-05-23 19:53:30</time>
      </trkpt>
      <trkpt lat="41.53584" lon="0.91478">
        <ele>401</ele>
        <time>2022-05-23 19:53:31</time>
      </trkpt>
      <trkpt lat="41.53582" lon="0.91475">
        <ele>401</ele>
        <time>2022-05-23 19:53:32</time>
      </trkpt>
      <trkpt lat="41.5358" lon="0.91472">
        <ele>401.2</ele>
        <time>2022-05-23 19:53:33</time>
      </trkpt>
      <trkpt lat="41.53578" lon="0.9147">
        <ele>401.2</ele>
        <time>2022-05-23 19:53:34</time>
      </trkpt>
      <trkpt lat="41.53576" lon="0.91467">
        <ele>401.4</ele>
        <time>2022-05-23 19:53:35</time>
      </trkpt>
      <trkpt lat="41.53574" lon="0.91464">
        <ele>401.6</ele>
        <time>2022-05-23 19:53:36</time>
      </trkpt>
      <trkpt lat="41.53572" lon="0.91462">
        <ele>401.6</ele>
        <time>2022-05-23 19:53:37</time>
      </trkpt>
      <trkpt lat="41.5357" lon="0.91459">
        <ele>401.8</ele>
        <time>2022-05-23 19:53:38</time>
      </trkpt>
      <trkpt lat="41.53567" lon="0.91456">
        <ele>402</ele>
        <time>2022-05-23 19:53:39</time>
      </trkpt>
      <trkpt lat="41.53566" lon="0.91454">
        <ele>402.2</ele>
        <time>2022-05-23 19:53:40</time>
      </trkpt>
      <trkpt lat="41.53564" lon="0.91451">
        <ele>402.4</ele>
        <time>2022-05-23 19:53:41</time>
      </trkpt>
      <trkpt lat="41.53562" lon="0.91448">
        <ele>402.4</ele>
        <time>2022-05-23 19:53:42</time>
      </trkpt>
      <trkpt lat="41.53559" lon="0.91446">
        <ele>402.6</ele>
        <time>2022-05-23 19:53:43</time>
      </trkpt>
      <trkpt lat="41.53558" lon="0.91443">
        <ele>402.6</ele>
        <time>2022-05-23 19:53:44</time>
      </trkpt>
      <trkpt lat="41.53556" lon="0.9144">
        <ele>402.8</ele>
        <time>2022-05-23 19:53:45</time>
      </trkpt>
      <trkpt lat="41.53553" lon="0.91438">
        <ele>403</ele>
        <time>2022-05-23 19:53:46</time>
      </trkpt>
      <trkpt lat="41.53551" lon="0.91435">
        <ele>403</ele>
        <time>2022-05-23 19:53:47</time>
      </trkpt>
      <trkpt lat="41.5355" lon="0.91432">
        <ele>403.2</ele>
        <time>2022-05-23 19:53:48</time>
      </trkpt>
      <trkpt lat="41.53548" lon="0.91429">
        <ele>403.4</ele>
        <time>2022-05-23 19:53:49</time>
      </trkpt>
      <trkpt lat="41.53545" lon="0.91427">
        <ele>403.4</ele>
        <time>2022-05-23 19:53:50</time>
      </trkpt>
      <trkpt lat="41.53543" lon="0.91424">
        <ele>403.6</ele>
        <time>2022-05-23 19:53:51</time>
      </trkpt>
      <trkpt lat="41.53541" lon="0.91421">
        <ele>403.8</ele>
        <time>2022-05-23 19:53:52</time>
      </trkpt>
      <trkpt lat="41.53539" lon="0.91419">
        <ele>404</ele>
        <time>2022-05-23 19:53:53</time>
      </trkpt>
      <trkpt lat="41.53537" lon="0.91416">
        <ele>404</ele>
        <time>2022-05-23 19:53:54</time>
      </trkpt>
      <trkpt lat="41.53535" lon="0.91413">
        <ele>404.2</ele>
        <time>2022-05-23 19:53:55</time>
      </trkpt>
      <trkpt lat="41.53532" lon="0.91411">
        <ele>404.2</ele>
        <time>2022-05-23 19:53:56</time>
      </trkpt>
      <trkpt lat="41.5353" lon="0.91408">
        <ele>404.4</ele>
        <time>2022-05-23 19:53:57</time>
      </trkpt>
      <trkpt lat="41.53529" lon="0.91405">
        <ele>404.6</ele>
        <time>2022-05-23 19:53:58</time>
      </trkpt>
      <trkpt lat="41.53527" lon="0.91403">
        <ele>404.6</ele>
        <time>2022-05-23 19:53:59</time>
      </trkpt>
      <trkpt lat="41.53524" lon="0.914">
        <ele>404.8</ele>
        <time>2022-05-23 19:54:00</time>
      </trkpt>
      <trkpt lat="41.53522" lon="0.91397">
        <ele>405</ele>
        <time>2022-05-23 19:54:01</time>
      </trkpt>
      <trkpt lat="41.53521" lon="0.91395">
        <ele>405.2</ele>
        <time>2022-05-23 19:54:02</time>
      </trkpt>
      <trkpt lat="41.53519" lon="0.91392">
        <ele>405.6</ele>
        <time>2022-05-23 19:54:03</time>
      </trkpt>
      <trkpt lat="41.53517" lon="0.91389">
        <ele>405.8</ele>
        <time>2022-05-23 19:54:04</time>
      </trkpt>
      <trkpt lat="41.53515" lon="0.91387">
        <ele>405.8</ele>
        <time>2022-05-23 19:54:05</time>
      </trkpt>
      <trkpt lat="41.53513" lon="0.91384">
        <ele>406</ele>
        <time>2022-05-23 19:54:06</time>
      </trkpt>
      <trkpt lat="41.53511" lon="0.91381">
        <ele>406.2</ele>
        <time>2022-05-23 19:54:07</time>
      </trkpt>
      <trkpt lat="41.53509" lon="0.91379">
        <ele>406.4</ele>
        <time>2022-05-23 19:54:08</time>
      </trkpt>
      <trkpt lat="41.53507" lon="0.91376">
        <ele>406.4</ele>
        <time>2022-05-23 19:54:09</time>
      </trkpt>
      <trkpt lat="41.53505" lon="0.91373">
        <ele>406.6</ele>
        <time>2022-05-23 19:54:10</time>
      </trkpt>
      <trkpt lat="41.53503" lon="0.91371">
        <ele>406.6</ele>
        <time>2022-05-23 19:54:11</time>
      </trkpt>
      <trkpt lat="41.53501" lon="0.91368">
        <ele>406.8</ele>
        <time>2022-05-23 19:54:12</time>
      </trkpt>
      <trkpt lat="41.53498" lon="0.91366">
        <ele>406.8</ele>
        <time>2022-05-23 19:54:13</time>
      </trkpt>
      <trkpt lat="41.53496" lon="0.91363">
        <ele>407</ele>
        <time>2022-05-23 19:54:14</time>
      </trkpt>
      <trkpt lat="41.53495" lon="0.91361">
        <ele>407</ele>
        <time>2022-05-23 19:54:15</time>
      </trkpt>
      <trkpt lat="41.53492" lon="0.91358">
        <ele>407.2</ele>
        <time>2022-05-23 19:54:16</time>
      </trkpt>
      <trkpt lat="41.5349" lon="0.91355">
        <ele>407.2</ele>
        <time>2022-05-23 19:54:17</time>
      </trkpt>
      <trkpt lat="41.53488" lon="0.91353">
        <ele>407.2</ele>
        <time>2022-05-23 19:54:18</time>
      </trkpt>
      <trkpt lat="41.53486" lon="0.9135">
        <ele>407.4</ele>
        <time>2022-05-23 19:54:19</time>
      </trkpt>
      <trkpt lat="41.53484" lon="0.91348">
        <ele>407.4</ele>
        <time>2022-05-23 19:54:20</time>
      </trkpt>
      <trkpt lat="41.53482" lon="0.91345">
        <ele>407.6</ele>
        <time>2022-05-23 19:54:21</time>
      </trkpt>
      <trkpt lat="41.5348" lon="0.91343">
        <ele>407.6</ele>
        <time>2022-05-23 19:54:22</time>
      </trkpt>
      <trkpt lat="41.53478" lon="0.9134">
        <ele>407.6</ele>
        <time>2022-05-23 19:54:23</time>
      </trkpt>
      <trkpt lat="41.53476" lon="0.91337">
        <ele>407.6</ele>
        <time>2022-05-23 19:54:24</time>
      </trkpt>
      <trkpt lat="41.53474" lon="0.91335">
        <ele>407.8</ele>
        <time>2022-05-23 19:54:25</time>
      </trkpt>
      <trkpt lat="41.53472" lon="0.91332">
        <ele>407.8</ele>
        <time>2022-05-23 19:54:26</time>
      </trkpt>
      <trkpt lat="41.5347" lon="0.91329">
        <ele>407.8</ele>
        <time>2022-05-23 19:54:27</time>
      </trkpt>
      <trkpt lat="41.53467" lon="0.91326">
        <ele>408</ele>
        <time>2022-05-23 19:54:28</time>
      </trkpt>
      <trkpt lat="41.53465" lon="0.91324">
        <ele>408</ele>
        <time>2022-05-23 19:54:29</time>
      </trkpt>
      <trkpt lat="41.53463" lon="0.91321">
        <ele>408.2</ele>
        <time>2022-05-23 19:54:30</time>
      </trkpt>
      <trkpt lat="41.53461" lon="0.91318">
        <ele>408.4</ele>
        <time>2022-05-23 19:54:31</time>
      </trkpt>
      <trkpt lat="41.53459" lon="0.91316">
        <ele>408.4</ele>
        <time>2022-05-23 19:54:32</time>
      </trkpt>
      <trkpt lat="41.53456" lon="0.91313">
        <ele>408.6</ele>
        <time>2022-05-23 19:54:33</time>
      </trkpt>
      <trkpt lat="41.53455" lon="0.9131">
        <ele>408.8</ele>
        <time>2022-05-23 19:54:34</time>
      </trkpt>
      <trkpt lat="41.53452" lon="0.91307">
        <ele>408.8</ele>
        <time>2022-05-23 19:54:35</time>
      </trkpt>
      <trkpt lat="41.5345" lon="0.91304">
        <ele>409</ele>
        <time>2022-05-23 19:54:36</time>
      </trkpt>
      <trkpt lat="41.53448" lon="0.91301">
        <ele>409.2</ele>
        <time>2022-05-23 19:54:37</time>
      </trkpt>
      <trkpt lat="41.53446" lon="0.91298">
        <ele>409.2</ele>
        <time>2022-05-23 19:54:38</time>
      </trkpt>
      <trkpt lat="41.53443" lon="0.91295">
        <ele>409.4</ele>
        <time>2022-05-23 19:54:39</time>
      </trkpt>
      <trkpt lat="41.53442" lon="0.91293">
        <ele>409.6</ele>
        <time>2022-05-23 19:54:40</time>
      </trkpt>
      <trkpt lat="41.5344" lon="0.9129">
        <ele>409.6</ele>
        <time>2022-05-23 19:54:41</time>
      </trkpt>
      <trkpt lat="41.53438" lon="0.91287">
        <ele>409.8</ele>
        <time>2022-05-23 19:54:42</time>
      </trkpt>
      <trkpt lat="41.53436" lon="0.91284">
        <ele>409.8</ele>
        <time>2022-05-23 19:54:43</time>
      </trkpt>
      <trkpt lat="41.53434" lon="0.91282">
        <ele>410</ele>
        <time>2022-05-23 19:54:44</time>
      </trkpt>
      <trkpt lat="41.53432" lon="0.91278">
        <ele>410.2</ele>
        <time>2022-05-23 19:54:45</time>
      </trkpt>
      <trkpt lat="41.53431" lon="0.91276">
        <ele>410.2</ele>
        <time>2022-05-23 19:54:46</time>
      </trkpt>
      <trkpt lat="41.53429" lon="0.91273">
        <ele>410.4</ele>
        <time>2022-05-23 19:54:47</time>
      </trkpt>
      <trkpt lat="41.53427" lon="0.9127">
        <ele>410.6</ele>
        <time>2022-05-23 19:54:48</time>
      </trkpt>
      <trkpt lat="41.53425" lon="0.91267">
        <ele>410.6</ele>
        <time>2022-05-23 19:54:49</time>
      </trkpt>
      <trkpt lat="41.53422" lon="0.91264">
        <ele>410.8</ele>
        <time>2022-05-23 19:54:50</time>
      </trkpt>
      <trkpt lat="41.53421" lon="0.91261">
        <ele>410.8</ele>
        <time>2022-05-23 19:54:51</time>
      </trkpt>
      <trkpt lat="41.53419" lon="0.91257">
        <ele>411</ele>
        <time>2022-05-23 19:54:52</time>
      </trkpt>
      <trkpt lat="41.53418" lon="0.91254">
        <ele>411.2</ele>
        <time>2022-05-23 19:54:53</time>
      </trkpt>
      <trkpt lat="41.53416" lon="0.91251">
        <ele>411.4</ele>
        <time>2022-05-23 19:54:54</time>
      </trkpt>
      <trkpt lat="41.53414" lon="0.91248">
        <ele>411.4</ele>
        <time>2022-05-23 19:54:55</time>
      </trkpt>
      <trkpt lat="41.53413" lon="0.91245">
        <ele>411.6</ele>
        <time>2022-05-23 19:54:56</time>
      </trkpt>
      <trkpt lat="41.53411" lon="0.91242">
        <ele>411.8</ele>
        <time>2022-05-23 19:54:57</time>
      </trkpt>
      <trkpt lat="41.5341" lon="0.91239">
        <ele>411.8</ele>
        <time>2022-05-23 19:54:58</time>
      </trkpt>
      <trkpt lat="41.53408" lon="0.91236">
        <ele>412</ele>
        <time>2022-05-23 19:54:59</time>
      </trkpt>
      <trkpt lat="41.53406" lon="0.91233">
        <ele>412.2</ele>
        <time>2022-05-23 19:55:00</time>
      </trkpt>
      <trkpt lat="41.53405" lon="0.9123">
        <ele>412.2</ele>
        <time>2022-05-23 19:55:01</time>
      </trkpt>
      <trkpt lat="41.53403" lon="0.91227">
        <ele>412.4</ele>
        <time>2022-05-23 19:55:02</time>
      </trkpt>
      <trkpt lat="41.53401" lon="0.91224">
        <ele>412.6</ele>
        <time>2022-05-23 19:55:03</time>
      </trkpt>
      <trkpt lat="41.534" lon="0.91221">
        <ele>412.6</ele>
        <time>2022-05-23 19:55:04</time>
      </trkpt>
      <trkpt lat="41.53398" lon="0.91217">
        <ele>412.8</ele>
        <time>2022-05-23 19:55:05</time>
      </trkpt>
      <trkpt lat="41.53397" lon="0.91214">
        <ele>413</ele>
        <time>2022-05-23 19:55:06</time>
      </trkpt>
      <trkpt lat="41.53395" lon="0.91211">
        <ele>413</ele>
        <time>2022-05-23 19:55:07</time>
      </trkpt>
      <trkpt lat="41.53394" lon="0.91208">
        <ele>413.2</ele>
        <time>2022-05-23 19:55:08</time>
      </trkpt>
      <trkpt lat="41.53392" lon="0.91205">
        <ele>413.4</ele>
        <time>2022-05-23 19:55:09</time>
      </trkpt>
      <trkpt lat="41.53391" lon="0.91201">
        <ele>413.4</ele>
        <time>2022-05-23 19:55:10</time>
      </trkpt>
      <trkpt lat="41.53389" lon="0.91198">
        <ele>413.6</ele>
        <time>2022-05-23 19:55:11</time>
      </trkpt>
      <trkpt lat="41.53388" lon="0.91195">
        <ele>413.6</ele>
        <time>2022-05-23 19:55:12</time>
      </trkpt>
      <trkpt lat="41.53387" lon="0.91192">
        <ele>413.8</ele>
        <time>2022-05-23 19:55:13</time>
      </trkpt>
      <trkpt lat="41.53386" lon="0.91188">
        <ele>413.8</ele>
        <time>2022-05-23 19:55:14</time>
      </trkpt>
      <trkpt lat="41.53384" lon="0.91185">
        <ele>414</ele>
        <time>2022-05-23 19:55:15</time>
      </trkpt>
      <trkpt lat="41.53382" lon="0.91181">
        <ele>414</ele>
        <time>2022-05-23 19:55:16</time>
      </trkpt>
      <trkpt lat="41.53381" lon="0.91178">
        <ele>414.2</ele>
        <time>2022-05-23 19:55:17</time>
      </trkpt>
      <trkpt lat="41.5338" lon="0.91174">
        <ele>414.2</ele>
        <time>2022-05-23 19:55:18</time>
      </trkpt>
      <trkpt lat="41.53379" lon="0.91171">
        <ele>414.2</ele>
        <time>2022-05-23 19:55:19</time>
      </trkpt>
      <trkpt lat="41.53377" lon="0.91167">
        <ele>414.4</ele>
        <time>2022-05-23 19:55:20</time>
      </trkpt>
      <trkpt lat="41.53376" lon="0.91163">
        <ele>414.4</ele>
        <time>2022-05-23 19:55:21</time>
      </trkpt>
      <trkpt lat="41.53375" lon="0.9116">
        <ele>414.4</ele>
        <time>2022-05-23 19:55:22</time>
      </trkpt>
      <trkpt lat="41.53374" lon="0.91156">
        <ele>414.6</ele>
        <time>2022-05-23 19:55:23</time>
      </trkpt>
      <trkpt lat="41.53373" lon="0.91153">
        <ele>414.6</ele>
        <time>2022-05-23 19:55:24</time>
      </trkpt>
      <trkpt lat="41.53371" lon="0.91149">
        <ele>414.8</ele>
        <time>2022-05-23 19:55:25</time>
      </trkpt>
      <trkpt lat="41.5337" lon="0.91145">
        <ele>414.8</ele>
        <time>2022-05-23 19:55:26</time>
      </trkpt>
      <trkpt lat="41.53369" lon="0.91141">
        <ele>415</ele>
        <time>2022-05-23 19:55:27</time>
      </trkpt>
      <trkpt lat="41.53368" lon="0.91137">
        <ele>415</ele>
        <time>2022-05-23 19:55:28</time>
      </trkpt>
      <trkpt lat="41.53366" lon="0.91133">
        <ele>415.2</ele>
        <time>2022-05-23 19:55:29</time>
      </trkpt>
      <trkpt lat="41.53365" lon="0.91129">
        <ele>415.2</ele>
        <time>2022-05-23 19:55:30</time>
      </trkpt>
      <trkpt lat="41.53364" lon="0.91124">
        <ele>415.4</ele>
        <time>2022-05-23 19:55:31</time>
      </trkpt>
      <trkpt lat="41.53363" lon="0.9112">
        <ele>415.4</ele>
        <time>2022-05-23 19:55:32</time>
      </trkpt>
      <trkpt lat="41.53361" lon="0.91116">
        <ele>415.4</ele>
        <time>2022-05-23 19:55:33</time>
      </trkpt>
      <trkpt lat="41.5336" lon="0.91112">
        <ele>415.4</ele>
        <time>2022-05-23 19:55:34</time>
      </trkpt>
      <trkpt lat="41.5336" lon="0.91107">
        <ele>415.4</ele>
        <time>2022-05-23 19:55:35</time>
      </trkpt>
      <trkpt lat="41.53358" lon="0.91103">
        <ele>415.6</ele>
        <time>2022-05-23 19:55:36</time>
      </trkpt>
      <trkpt lat="41.53357" lon="0.91099">
        <ele>415.6</ele>
        <time>2022-05-23 19:55:37</time>
      </trkpt>
      <trkpt lat="41.53356" lon="0.91095">
        <ele>415.6</ele>
        <time>2022-05-23 19:55:38</time>
      </trkpt>
      <trkpt lat="41.53355" lon="0.9109">
        <ele>415.6</ele>
        <time>2022-05-23 19:55:39</time>
      </trkpt>
      <trkpt lat="41.53354" lon="0.91086">
        <ele>415.6</ele>
        <time>2022-05-23 19:55:40</time>
      </trkpt>
      <trkpt lat="41.53353" lon="0.9108">
        <ele>415.6</ele>
        <time>2022-05-23 19:55:41</time>
      </trkpt>
      <trkpt lat="41.53353" lon="0.91075">
        <ele>415.6</ele>
        <time>2022-05-23 19:55:42</time>
      </trkpt>
      <trkpt lat="41.53352" lon="0.9107">
        <ele>415.6</ele>
        <time>2022-05-23 19:55:43</time>
      </trkpt>
      <trkpt lat="41.53351" lon="0.91065">
        <ele>415.6</ele>
        <time>2022-05-23 19:55:44</time>
      </trkpt>
      <trkpt lat="41.5335" lon="0.9106">
        <ele>415.6</ele>
        <time>2022-05-23 19:55:45</time>
      </trkpt>
      <trkpt lat="41.53349" lon="0.91055">
        <ele>415.8</ele>
        <time>2022-05-23 19:55:46</time>
      </trkpt>
      <trkpt lat="41.53348" lon="0.91049">
        <ele>415.8</ele>
        <time>2022-05-23 19:55:47</time>
      </trkpt>
      <trkpt lat="41.53347" lon="0.91045">
        <ele>415.8</ele>
        <time>2022-05-23 19:55:48</time>
      </trkpt>
      <trkpt lat="41.53347" lon="0.91039">
        <ele>415.8</ele>
        <time>2022-05-23 19:55:49</time>
      </trkpt>
      <trkpt lat="41.53346" lon="0.91034">
        <ele>415.8</ele>
        <time>2022-05-23 19:55:50</time>
      </trkpt>
      <trkpt lat="41.53345" lon="0.91029">
        <ele>415.8</ele>
        <time>2022-05-23 19:55:51</time>
      </trkpt>
      <trkpt lat="41.53345" lon="0.91024">
        <ele>415.8</ele>
        <time>2022-05-23 19:55:52</time>
      </trkpt>
      <trkpt lat="41.53344" lon="0.91018">
        <ele>415.8</ele>
        <time>2022-05-23 19:55:53</time>
      </trkpt>
      <trkpt lat="41.53344" lon="0.91013">
        <ele>415.8</ele>
        <time>2022-05-23 19:55:54</time>
      </trkpt>
      <trkpt lat="41.53343" lon="0.91008">
        <ele>415.8</ele>
        <time>2022-05-23 19:55:55</time>
      </trkpt>
      <trkpt lat="41.53342" lon="0.91003">
        <ele>415.6</ele>
        <time>2022-05-23 19:55:56</time>
      </trkpt>
      <trkpt lat="41.53342" lon="0.90997">
        <ele>415.6</ele>
        <time>2022-05-23 19:55:57</time>
      </trkpt>
      <trkpt lat="41.53341" lon="0.90991">
        <ele>415.6</ele>
        <time>2022-05-23 19:55:58</time>
      </trkpt>
      <trkpt lat="41.53341" lon="0.90986">
        <ele>415.6</ele>
        <time>2022-05-23 19:55:59</time>
      </trkpt>
      <trkpt lat="41.5334" lon="0.9098">
        <ele>415.4</ele>
        <time>2022-05-23 19:56:00</time>
      </trkpt>
      <trkpt lat="41.53339" lon="0.90974">
        <ele>415.4</ele>
        <time>2022-05-23 19:56:01</time>
      </trkpt>
      <trkpt lat="41.53339" lon="0.90967">
        <ele>415.2</ele>
        <time>2022-05-23 19:56:02</time>
      </trkpt>
      <trkpt lat="41.53338" lon="0.90961">
        <ele>415.2</ele>
        <time>2022-05-23 19:56:03</time>
      </trkpt>
      <trkpt lat="41.53337" lon="0.90955">
        <ele>415.2</ele>
        <time>2022-05-23 19:56:04</time>
      </trkpt>
      <trkpt lat="41.53337" lon="0.90949">
        <ele>415.2</ele>
        <time>2022-05-23 19:56:05</time>
      </trkpt>
      <trkpt lat="41.53336" lon="0.90942">
        <ele>415</ele>
        <time>2022-05-23 19:56:06</time>
      </trkpt>
      <trkpt lat="41.53336" lon="0.90935">
        <ele>415</ele>
        <time>2022-05-23 19:56:07</time>
      </trkpt>
      <trkpt lat="41.53336" lon="0.90929">
        <ele>415</ele>
        <time>2022-05-23 19:56:08</time>
      </trkpt>
      <trkpt lat="41.53335" lon="0.90922">
        <ele>415</ele>
        <time>2022-05-23 19:56:09</time>
      </trkpt>
      <trkpt lat="41.53334" lon="0.90915">
        <ele>415</ele>
        <time>2022-05-23 19:56:10</time>
      </trkpt>
      <trkpt lat="41.53333" lon="0.90908">
        <ele>414.8</ele>
        <time>2022-05-23 19:56:11</time>
      </trkpt>
      <trkpt lat="41.53333" lon="0.90901">
        <ele>414.8</ele>
        <time>2022-05-23 19:56:12</time>
      </trkpt>
      <trkpt lat="41.53332" lon="0.90893">
        <ele>414.8</ele>
        <time>2022-05-23 19:56:13</time>
      </trkpt>
      <trkpt lat="41.53331" lon="0.90886">
        <ele>414.6</ele>
        <time>2022-05-23 19:56:14</time>
      </trkpt>
      <trkpt lat="41.53331" lon="0.90879">
        <ele>414.6</ele>
        <time>2022-05-23 19:56:15</time>
      </trkpt>
      <trkpt lat="41.5333" lon="0.90872">
        <ele>414.4</ele>
        <time>2022-05-23 19:56:16</time>
      </trkpt>
      <trkpt lat="41.53329" lon="0.90864">
        <ele>414.4</ele>
        <time>2022-05-23 19:56:17</time>
      </trkpt>
      <trkpt lat="41.53329" lon="0.90857">
        <ele>414.2</ele>
        <time>2022-05-23 19:56:18</time>
      </trkpt>
      <trkpt lat="41.53328" lon="0.9085">
        <ele>414.2</ele>
        <time>2022-05-23 19:56:19</time>
      </trkpt>
      <trkpt lat="41.53328" lon="0.90842">
        <ele>414</ele>
        <time>2022-05-23 19:56:20</time>
      </trkpt>
      <trkpt lat="41.53327" lon="0.90834">
        <ele>414</ele>
        <time>2022-05-23 19:56:21</time>
      </trkpt>
      <trkpt lat="41.53326" lon="0.90827">
        <ele>414</ele>
        <time>2022-05-23 19:56:22</time>
      </trkpt>
      <trkpt lat="41.53325" lon="0.9082">
        <ele>414</ele>
        <time>2022-05-23 19:56:23</time>
      </trkpt>
      <trkpt lat="41.53324" lon="0.90813">
        <ele>414</ele>
        <time>2022-05-23 19:56:24</time>
      </trkpt>
      <trkpt lat="41.53324" lon="0.90807">
        <ele>413.8</ele>
        <time>2022-05-23 19:56:25</time>
      </trkpt>
      <trkpt lat="41.53323" lon="0.90798">
        <ele>413.8</ele>
        <time>2022-05-23 19:56:26</time>
      </trkpt>
      <trkpt lat="41.53322" lon="0.90791">
        <ele>413.8</ele>
        <time>2022-05-23 19:56:27</time>
      </trkpt>
      <trkpt lat="41.53321" lon="0.90783">
        <ele>413.6</ele>
        <time>2022-05-23 19:56:28</time>
      </trkpt>
      <trkpt lat="41.53321" lon="0.90776">
        <ele>413.6</ele>
        <time>2022-05-23 19:56:29</time>
      </trkpt>
      <trkpt lat="41.5332" lon="0.90769">
        <ele>413.6</ele>
        <time>2022-05-23 19:56:30</time>
      </trkpt>
      <trkpt lat="41.5332" lon="0.90763">
        <ele>413.4</ele>
        <time>2022-05-23 19:56:31</time>
      </trkpt>
      <trkpt lat="41.53319" lon="0.90755">
        <ele>413.4</ele>
        <time>2022-05-23 19:56:32</time>
      </trkpt>
      <trkpt lat="41.53319" lon="0.90749">
        <ele>413.4</ele>
        <time>2022-05-23 19:56:33</time>
      </trkpt>
      <trkpt lat="41.53318" lon="0.90741">
        <ele>413.2</ele>
        <time>2022-05-23 19:56:34</time>
      </trkpt>
      <trkpt lat="41.53318" lon="0.90736">
        <ele>413.2</ele>
        <time>2022-05-23 19:56:35</time>
      </trkpt>
      <trkpt lat="41.53317" lon="0.90727">
        <ele>413.2</ele>
        <time>2022-05-23 19:56:36</time>
      </trkpt>
      <trkpt lat="41.53316" lon="0.9072">
        <ele>413.2</ele>
        <time>2022-05-23 19:56:37</time>
      </trkpt>
      <trkpt lat="41.53315" lon="0.90712">
        <ele>413.2</ele>
        <time>2022-05-23 19:56:38</time>
      </trkpt>
      <trkpt lat="41.53315" lon="0.90704">
        <ele>413.2</ele>
        <time>2022-05-23 19:56:39</time>
      </trkpt>
      <trkpt lat="41.53314" lon="0.90697">
        <ele>413</ele>
        <time>2022-05-23 19:56:40</time>
      </trkpt>
      <trkpt lat="41.53314" lon="0.9069">
        <ele>412.8</ele>
        <time>2022-05-23 19:56:41</time>
      </trkpt>
      <trkpt lat="41.53313" lon="0.90682">
        <ele>412.8</ele>
        <time>2022-05-23 19:56:42</time>
      </trkpt>
      <trkpt lat="41.53312" lon="0.90675">
        <ele>412.8</ele>
        <time>2022-05-23 19:56:43</time>
      </trkpt>
      <trkpt lat="41.53312" lon="0.9067">
        <ele>412.6</ele>
        <time>2022-05-23 19:56:44</time>
      </trkpt>
      <trkpt lat="41.53311" lon="0.9066">
        <ele>412.6</ele>
        <time>2022-05-23 19:56:45</time>
      </trkpt>
      <trkpt lat="41.5331" lon="0.90653">
        <ele>412.6</ele>
        <time>2022-05-23 19:56:46</time>
      </trkpt>
      <trkpt lat="41.5331" lon="0.90645">
        <ele>412.6</ele>
        <time>2022-05-23 19:56:47</time>
      </trkpt>
      <trkpt lat="41.53309" lon="0.90638">
        <ele>412.6</ele>
        <time>2022-05-23 19:56:48</time>
      </trkpt>
      <trkpt lat="41.53308" lon="0.9063">
        <ele>412.6</ele>
        <time>2022-05-23 19:56:49</time>
      </trkpt>
      <trkpt lat="41.53308" lon="0.90623">
        <ele>412.4</ele>
        <time>2022-05-23 19:56:50</time>
      </trkpt>
      <trkpt lat="41.53307" lon="0.90615">
        <ele>412.4</ele>
        <time>2022-05-23 19:56:51</time>
      </trkpt>
      <trkpt lat="41.53306" lon="0.90607">
        <ele>412.2</ele>
        <time>2022-05-23 19:56:52</time>
      </trkpt>
      <trkpt lat="41.53305" lon="0.906">
        <ele>412.2</ele>
        <time>2022-05-23 19:56:53</time>
      </trkpt>
      <trkpt lat="41.53305" lon="0.90592">
        <ele>412.2</ele>
        <time>2022-05-23 19:56:54</time>
      </trkpt>
      <trkpt lat="41.53304" lon="0.90584">
        <ele>412</ele>
        <time>2022-05-23 19:56:55</time>
      </trkpt>
      <trkpt lat="41.53303" lon="0.90576">
        <ele>412</ele>
        <time>2022-05-23 19:56:56</time>
      </trkpt>
      <trkpt lat="41.53302" lon="0.90569">
        <ele>412</ele>
        <time>2022-05-23 19:56:57</time>
      </trkpt>
      <trkpt lat="41.53302" lon="0.90561">
        <ele>411.8</ele>
        <time>2022-05-23 19:56:58</time>
      </trkpt>
      <trkpt lat="41.53301" lon="0.90553">
        <ele>411.8</ele>
        <time>2022-05-23 19:56:59</time>
      </trkpt>
      <trkpt lat="41.53301" lon="0.90546">
        <ele>411.8</ele>
        <time>2022-05-23 19:57:00</time>
      </trkpt>
      <trkpt lat="41.533" lon="0.90538">
        <ele>411.8</ele>
        <time>2022-05-23 19:57:01</time>
      </trkpt>
      <trkpt lat="41.533" lon="0.9053">
        <ele>411.8</ele>
        <time>2022-05-23 19:57:02</time>
      </trkpt>
      <trkpt lat="41.53299" lon="0.90523">
        <ele>411.6</ele>
        <time>2022-05-23 19:57:03</time>
      </trkpt>
      <trkpt lat="41.53298" lon="0.90514">
        <ele>411.6</ele>
        <time>2022-05-23 19:57:04</time>
      </trkpt>
      <trkpt lat="41.53297" lon="0.90506">
        <ele>411.6</ele>
        <time>2022-05-23 19:57:05</time>
      </trkpt>
      <trkpt lat="41.53296" lon="0.90497">
        <ele>411.4</ele>
        <time>2022-05-23 19:57:06</time>
      </trkpt>
      <trkpt lat="41.53295" lon="0.90488">
        <ele>411.4</ele>
        <time>2022-05-23 19:57:07</time>
      </trkpt>
      <trkpt lat="41.53294" lon="0.90479">
        <ele>411.2</ele>
        <time>2022-05-23 19:57:08</time>
      </trkpt>
      <trkpt lat="41.53294" lon="0.9047">
        <ele>411.2</ele>
        <time>2022-05-23 19:57:09</time>
      </trkpt>
      <trkpt lat="41.53293" lon="0.90461">
        <ele>411</ele>
        <time>2022-05-23 19:57:10</time>
      </trkpt>
      <trkpt lat="41.53292" lon="0.90452">
        <ele>410.8</ele>
        <time>2022-05-23 19:57:11</time>
      </trkpt>
      <trkpt lat="41.53291" lon="0.90442">
        <ele>410.8</ele>
        <time>2022-05-23 19:57:12</time>
      </trkpt>
      <trkpt lat="41.5329" lon="0.90433">
        <ele>410.6</ele>
        <time>2022-05-23 19:57:13</time>
      </trkpt>
      <trkpt lat="41.53289" lon="0.90422">
        <ele>410.8</ele>
        <time>2022-05-23 19:57:14</time>
      </trkpt>
      <trkpt lat="41.53289" lon="0.90412">
        <ele>410.8</ele>
        <time>2022-05-23 19:57:15</time>
      </trkpt>
      <trkpt lat="41.53288" lon="0.90403">
        <ele>410.8</ele>
        <time>2022-05-23 19:57:16</time>
      </trkpt>
      <trkpt lat="41.53287" lon="0.90392">
        <ele>410.8</ele>
        <time>2022-05-23 19:57:17</time>
      </trkpt>
      <trkpt lat="41.53286" lon="0.90382">
        <ele>410.8</ele>
        <time>2022-05-23 19:57:18</time>
      </trkpt>
      <trkpt lat="41.53285" lon="0.90372">
        <ele>410.8</ele>
        <time>2022-05-23 19:57:19</time>
      </trkpt>
      <trkpt lat="41.53284" lon="0.90362">
        <ele>410.6</ele>
        <time>2022-05-23 19:57:20</time>
      </trkpt>
      <trkpt lat="41.53283" lon="0.90352">
        <ele>410.6</ele>
        <time>2022-05-23 19:57:21</time>
      </trkpt>
      <trkpt lat="41.53282" lon="0.90342">
        <ele>410.4</ele>
        <time>2022-05-23 19:57:22</time>
      </trkpt>
      <trkpt lat="41.53281" lon="0.90332">
        <ele>410.4</ele>
        <time>2022-05-23 19:57:23</time>
      </trkpt>
      <trkpt lat="41.53281" lon="0.90322">
        <ele>410.2</ele>
        <time>2022-05-23 19:57:24</time>
      </trkpt>
      <trkpt lat="41.53279" lon="0.90312">
        <ele>410.2</ele>
        <time>2022-05-23 19:57:25</time>
      </trkpt>
      <trkpt lat="41.53278" lon="0.90303">
        <ele>410.2</ele>
        <time>2022-05-23 19:57:26</time>
      </trkpt>
      <trkpt lat="41.53278" lon="0.90292">
        <ele>410</ele>
        <time>2022-05-23 19:57:27</time>
      </trkpt>
      <trkpt lat="41.53277" lon="0.90283">
        <ele>410</ele>
        <time>2022-05-23 19:57:28</time>
      </trkpt>
      <trkpt lat="41.53276" lon="0.90274">
        <ele>409.8</ele>
        <time>2022-05-23 19:57:29</time>
      </trkpt>
      <trkpt lat="41.53275" lon="0.90264">
        <ele>409.6</ele>
        <time>2022-05-23 19:57:30</time>
      </trkpt>
      <trkpt lat="41.53274" lon="0.90254">
        <ele>409.4</ele>
        <time>2022-05-23 19:57:31</time>
      </trkpt>
      <trkpt lat="41.53273" lon="0.90245">
        <ele>409.4</ele>
        <time>2022-05-23 19:57:32</time>
      </trkpt>
      <trkpt lat="41.53272" lon="0.90235">
        <ele>409.4</ele>
        <time>2022-05-23 19:57:33</time>
      </trkpt>
      <trkpt lat="41.53272" lon="0.90225">
        <ele>409.4</ele>
        <time>2022-05-23 19:57:34</time>
      </trkpt>
      <trkpt lat="41.53271" lon="0.90215">
        <ele>409.4</ele>
        <time>2022-05-23 19:57:35</time>
      </trkpt>
      <trkpt lat="41.5327" lon="0.90206">
        <ele>409.4</ele>
        <time>2022-05-23 19:57:36</time>
      </trkpt>
      <trkpt lat="41.53269" lon="0.90196">
        <ele>409.4</ele>
        <time>2022-05-23 19:57:37</time>
      </trkpt>
      <trkpt lat="41.53268" lon="0.90187">
        <ele>409.2</ele>
        <time>2022-05-23 19:57:38</time>
      </trkpt>
      <trkpt lat="41.53267" lon="0.90177">
        <ele>409.2</ele>
        <time>2022-05-23 19:57:39</time>
      </trkpt>
      <trkpt lat="41.53266" lon="0.90167">
        <ele>409</ele>
        <time>2022-05-23 19:57:40</time>
      </trkpt>
      <trkpt lat="41.53265" lon="0.90157">
        <ele>409</ele>
        <time>2022-05-23 19:57:41</time>
      </trkpt>
      <trkpt lat="41.53265" lon="0.90148">
        <ele>408.8</ele>
        <time>2022-05-23 19:57:42</time>
      </trkpt>
      <trkpt lat="41.53264" lon="0.90138">
        <ele>408.6</ele>
        <time>2022-05-23 19:57:43</time>
      </trkpt>
      <trkpt lat="41.53264" lon="0.90128">
        <ele>408.6</ele>
        <time>2022-05-23 19:57:44</time>
      </trkpt>
      <trkpt lat="41.53263" lon="0.90119">
        <ele>408.4</ele>
        <time>2022-05-23 19:57:45</time>
      </trkpt>
      <trkpt lat="41.53263" lon="0.90109">
        <ele>408.4</ele>
        <time>2022-05-23 19:57:46</time>
      </trkpt>
      <trkpt lat="41.53263" lon="0.90099">
        <ele>408.4</ele>
        <time>2022-05-23 19:57:47</time>
      </trkpt>
      <trkpt lat="41.53262" lon="0.90089">
        <ele>408.2</ele>
        <time>2022-05-23 19:57:48</time>
      </trkpt>
      <trkpt lat="41.53262" lon="0.90081">
        <ele>408.2</ele>
        <time>2022-05-23 19:57:49</time>
      </trkpt>
      <trkpt lat="41.53262" lon="0.9007">
        <ele>408.2</ele>
        <time>2022-05-23 19:57:50</time>
      </trkpt>
      <trkpt lat="41.53262" lon="0.90062">
        <ele>408.2</ele>
        <time>2022-05-23 19:57:51</time>
      </trkpt>
      <trkpt lat="41.53262" lon="0.90051">
        <ele>407.8</ele>
        <time>2022-05-23 19:57:52</time>
      </trkpt>
      <trkpt lat="41.53262" lon="0.90042">
        <ele>407.8</ele>
        <time>2022-05-23 19:57:53</time>
      </trkpt>
      <trkpt lat="41.53262" lon="0.90033">
        <ele>407.8</ele>
        <time>2022-05-23 19:57:54</time>
      </trkpt>
      <trkpt lat="41.53262" lon="0.90028">
        <ele>407.8</ele>
        <time>2022-05-23 19:57:55</time>
      </trkpt>
      <trkpt lat="41.53262" lon="0.90019">
        <ele>407.6</ele>
        <time>2022-05-23 19:57:56</time>
      </trkpt>
      <trkpt lat="41.53262" lon="0.90005">
        <ele>407.6</ele>
        <time>2022-05-23 19:57:57</time>
      </trkpt>
      <trkpt lat="41.53262" lon="0.89995">
        <ele>407.6</ele>
        <time>2022-05-23 19:57:58</time>
      </trkpt>
      <trkpt lat="41.53262" lon="0.89986">
        <ele>407.4</ele>
        <time>2022-05-23 19:57:59</time>
      </trkpt>
      <trkpt lat="41.53262" lon="0.89976">
        <ele>407.4</ele>
        <time>2022-05-23 19:58:00</time>
      </trkpt>
      <trkpt lat="41.53262" lon="0.89967">
        <ele>407.2</ele>
        <time>2022-05-23 19:58:01</time>
      </trkpt>
      <trkpt lat="41.53262" lon="0.89958">
        <ele>407.2</ele>
        <time>2022-05-23 19:58:02</time>
      </trkpt>
      <trkpt lat="41.53262" lon="0.89948">
        <ele>407</ele>
        <time>2022-05-23 19:58:03</time>
      </trkpt>
      <trkpt lat="41.53262" lon="0.89939">
        <ele>407</ele>
        <time>2022-05-23 19:58:04</time>
      </trkpt>
      <trkpt lat="41.53262" lon="0.8993">
        <ele>406.8</ele>
        <time>2022-05-23 19:58:05</time>
      </trkpt>
      <trkpt lat="41.53262" lon="0.8992">
        <ele>406.8</ele>
        <time>2022-05-23 19:58:06</time>
      </trkpt>
      <trkpt lat="41.53262" lon="0.89911">
        <ele>406.6</ele>
        <time>2022-05-23 19:58:07</time>
      </trkpt>
      <trkpt lat="41.53262" lon="0.89902">
        <ele>406.6</ele>
        <time>2022-05-23 19:58:08</time>
      </trkpt>
      <trkpt lat="41.53262" lon="0.89893">
        <ele>406.6</ele>
        <time>2022-05-23 19:58:09</time>
      </trkpt>
      <trkpt lat="41.53262" lon="0.89884">
        <ele>406.4</ele>
        <time>2022-05-23 19:58:10</time>
      </trkpt>
      <trkpt lat="41.53262" lon="0.89875">
        <ele>406.4</ele>
        <time>2022-05-23 19:58:11</time>
      </trkpt>
      <trkpt lat="41.53262" lon="0.89866">
        <ele>406.4</ele>
        <time>2022-05-23 19:58:12</time>
      </trkpt>
      <trkpt lat="41.53262" lon="0.89857">
        <ele>406.4</ele>
        <time>2022-05-23 19:58:13</time>
      </trkpt>
      <trkpt lat="41.53262" lon="0.89848">
        <ele>406.4</ele>
        <time>2022-05-23 19:58:14</time>
      </trkpt>
      <trkpt lat="41.53262" lon="0.89839">
        <ele>406.4</ele>
        <time>2022-05-23 19:58:15</time>
      </trkpt>
      <trkpt lat="41.53262" lon="0.8983">
        <ele>406.4</ele>
        <time>2022-05-23 19:58:16</time>
      </trkpt>
      <trkpt lat="41.53262" lon="0.89821">
        <ele>406.2</ele>
        <time>2022-05-23 19:58:17</time>
      </trkpt>
      <trkpt lat="41.53262" lon="0.89812">
        <ele>406.2</ele>
        <time>2022-05-23 19:58:18</time>
      </trkpt>
      <trkpt lat="41.53263" lon="0.89803">
        <ele>406.2</ele>
        <time>2022-05-23 19:58:19</time>
      </trkpt>
      <trkpt lat="41.53263" lon="0.89794">
        <ele>406</ele>
        <time>2022-05-23 19:58:20</time>
      </trkpt>
      <trkpt lat="41.53262" lon="0.89785">
        <ele>406</ele>
        <time>2022-05-23 19:58:21</time>
      </trkpt>
      <trkpt lat="41.53262" lon="0.89776">
        <ele>405.8</ele>
        <time>2022-05-23 19:58:22</time>
      </trkpt>
      <trkpt lat="41.53262" lon="0.89767">
        <ele>405.8</ele>
        <time>2022-05-23 19:58:23</time>
      </trkpt>
      <trkpt lat="41.53262" lon="0.89758">
        <ele>405.8</ele>
        <time>2022-05-23 19:58:24</time>
      </trkpt>
      <trkpt lat="41.53262" lon="0.89749">
        <ele>405.8</ele>
        <time>2022-05-23 19:58:25</time>
      </trkpt>
      <trkpt lat="41.53262" lon="0.8974">
        <ele>405.8</ele>
        <time>2022-05-23 19:58:26</time>
      </trkpt>
      <trkpt lat="41.53262" lon="0.89731">
        <ele>405.6</ele>
        <time>2022-05-23 19:58:27</time>
      </trkpt>
      <trkpt lat="41.53262" lon="0.89723">
        <ele>405.6</ele>
        <time>2022-05-23 19:58:28</time>
      </trkpt>
      <trkpt lat="41.53263" lon="0.89713">
        <ele>405.6</ele>
        <time>2022-05-23 19:58:29</time>
      </trkpt>
      <trkpt lat="41.53263" lon="0.89704">
        <ele>405.6</ele>
        <time>2022-05-23 19:58:30</time>
      </trkpt>
      <trkpt lat="41.53263" lon="0.89695">
        <ele>405.4</ele>
        <time>2022-05-23 19:58:31</time>
      </trkpt>
      <trkpt lat="41.53263" lon="0.89686">
        <ele>405.4</ele>
        <time>2022-05-23 19:58:32</time>
      </trkpt>
      <trkpt lat="41.53263" lon="0.89678">
        <ele>405.4</ele>
        <time>2022-05-23 19:58:33</time>
      </trkpt>
      <trkpt lat="41.53264" lon="0.89669">
        <ele>405.4</ele>
        <time>2022-05-23 19:58:34</time>
      </trkpt>
      <trkpt lat="41.53264" lon="0.8966">
        <ele>405.2</ele>
        <time>2022-05-23 19:58:35</time>
      </trkpt>
      <trkpt lat="41.53265" lon="0.8965">
        <ele>405.2</ele>
        <time>2022-05-23 19:58:36</time>
      </trkpt>
      <trkpt lat="41.53265" lon="0.89641">
        <ele>405.2</ele>
        <time>2022-05-23 19:58:37</time>
      </trkpt>
      <trkpt lat="41.53266" lon="0.89633">
        <ele>405</ele>
        <time>2022-05-23 19:58:38</time>
      </trkpt>
      <trkpt lat="41.53267" lon="0.89624">
        <ele>404.8</ele>
        <time>2022-05-23 19:58:39</time>
      </trkpt>
      <trkpt lat="41.53268" lon="0.89615">
        <ele>404.8</ele>
        <time>2022-05-23 19:58:40</time>
      </trkpt>
      <trkpt lat="41.53269" lon="0.89606">
        <ele>404.8</ele>
        <time>2022-05-23 19:58:41</time>
      </trkpt>
      <trkpt lat="41.5327" lon="0.89598">
        <ele>404.6</ele>
        <time>2022-05-23 19:58:42</time>
      </trkpt>
      <trkpt lat="41.53271" lon="0.89589">
        <ele>404.6</ele>
        <time>2022-05-23 19:58:43</time>
      </trkpt>
      <trkpt lat="41.53273" lon="0.8958">
        <ele>404.4</ele>
        <time>2022-05-23 19:58:44</time>
      </trkpt>
      <trkpt lat="41.53274" lon="0.89571">
        <ele>404.2</ele>
        <time>2022-05-23 19:58:45</time>
      </trkpt>
      <trkpt lat="41.53275" lon="0.89562">
        <ele>404</ele>
        <time>2022-05-23 19:58:46</time>
      </trkpt>
      <trkpt lat="41.53276" lon="0.89552">
        <ele>403.8</ele>
        <time>2022-05-23 19:58:47</time>
      </trkpt>
      <trkpt lat="41.53278" lon="0.89543">
        <ele>403.6</ele>
        <time>2022-05-23 19:58:48</time>
      </trkpt>
      <trkpt lat="41.53279" lon="0.89534">
        <ele>403.4</ele>
        <time>2022-05-23 19:58:49</time>
      </trkpt>
      <trkpt lat="41.53281" lon="0.89524">
        <ele>403.2</ele>
        <time>2022-05-23 19:58:50</time>
      </trkpt>
      <trkpt lat="41.53282" lon="0.89514">
        <ele>402.8</ele>
        <time>2022-05-23 19:58:51</time>
      </trkpt>
      <trkpt lat="41.53283" lon="0.89504">
        <ele>402.4</ele>
        <time>2022-05-23 19:58:52</time>
      </trkpt>
      <trkpt lat="41.53284" lon="0.89495">
        <ele>402.2</ele>
        <time>2022-05-23 19:58:53</time>
      </trkpt>
      <trkpt lat="41.53285" lon="0.89484">
        <ele>401.8</ele>
        <time>2022-05-23 19:58:54</time>
      </trkpt>
      <trkpt lat="41.53286" lon="0.89474">
        <ele>401.2</ele>
        <time>2022-05-23 19:58:55</time>
      </trkpt>
      <trkpt lat="41.53286" lon="0.89464">
        <ele>400.6</ele>
        <time>2022-05-23 19:58:56</time>
      </trkpt>
      <trkpt lat="41.53287" lon="0.89453">
        <ele>400.2</ele>
        <time>2022-05-23 19:58:57</time>
      </trkpt>
      <trkpt lat="41.53287" lon="0.89442">
        <ele>399.6</ele>
        <time>2022-05-23 19:58:58</time>
      </trkpt>
      <trkpt lat="41.53288" lon="0.89432">
        <ele>399.2</ele>
        <time>2022-05-23 19:58:59</time>
      </trkpt>
      <trkpt lat="41.53287" lon="0.8942">
        <ele>398.8</ele>
        <time>2022-05-23 19:59:00</time>
      </trkpt>
      <trkpt lat="41.53286" lon="0.89408">
        <ele>398.4</ele>
        <time>2022-05-23 19:59:01</time>
      </trkpt>
      <trkpt lat="41.53285" lon="0.89397">
        <ele>397.8</ele>
        <time>2022-05-23 19:59:02</time>
      </trkpt>
      <trkpt lat="41.53284" lon="0.89385">
        <ele>397.2</ele>
        <time>2022-05-23 19:59:03</time>
      </trkpt>
      <trkpt lat="41.53282" lon="0.89372">
        <ele>396.8</ele>
        <time>2022-05-23 19:59:04</time>
      </trkpt>
      <trkpt lat="41.5328" lon="0.89358">
        <ele>396.2</ele>
        <time>2022-05-23 19:59:05</time>
      </trkpt>
      <trkpt lat="41.53277" lon="0.89346">
        <ele>395.4</ele>
        <time>2022-05-23 19:59:06</time>
      </trkpt>
      <trkpt lat="41.53274" lon="0.89334">
        <ele>394.6</ele>
        <time>2022-05-23 19:59:07</time>
      </trkpt>
      <trkpt lat="41.53271" lon="0.89321">
        <ele>393.8</ele>
        <time>2022-05-23 19:59:08</time>
      </trkpt>
      <trkpt lat="41.53268" lon="0.89309">
        <ele>393.2</ele>
        <time>2022-05-23 19:59:09</time>
      </trkpt>
      <trkpt lat="41.53264" lon="0.89295">
        <ele>392.4</ele>
        <time>2022-05-23 19:59:10</time>
      </trkpt>
      <trkpt lat="41.5326" lon="0.89282">
        <ele>391.6</ele>
        <time>2022-05-23 19:59:11</time>
      </trkpt>
      <trkpt lat="41.53256" lon="0.89268">
        <ele>391</ele>
        <time>2022-05-23 19:59:12</time>
      </trkpt>
      <trkpt lat="41.53253" lon="0.89255">
        <ele>390.2</ele>
        <time>2022-05-23 19:59:13</time>
      </trkpt>
      <trkpt lat="41.5325" lon="0.89239">
        <ele>389.6</ele>
        <time>2022-05-23 19:59:14</time>
      </trkpt>
      <trkpt lat="41.53247" lon="0.89225">
        <ele>389</ele>
        <time>2022-05-23 19:59:15</time>
      </trkpt>
      <trkpt lat="41.53244" lon="0.8921">
        <ele>388.2</ele>
        <time>2022-05-23 19:59:16</time>
      </trkpt>
      <trkpt lat="41.53241" lon="0.89196">
        <ele>387.6</ele>
        <time>2022-05-23 19:59:17</time>
      </trkpt>
      <trkpt lat="41.53239" lon="0.89182">
        <ele>387.2</ele>
        <time>2022-05-23 19:59:18</time>
      </trkpt>
      <trkpt lat="41.53237" lon="0.89168">
        <ele>386.8</ele>
        <time>2022-05-23 19:59:19</time>
      </trkpt>
      <trkpt lat="41.53236" lon="0.89154">
        <ele>386.4</ele>
        <time>2022-05-23 19:59:20</time>
      </trkpt>
      <trkpt lat="41.53234" lon="0.89139">
        <ele>386</ele>
        <time>2022-05-23 19:59:21</time>
      </trkpt>
      <trkpt lat="41.53233" lon="0.89125">
        <ele>385.8</ele>
        <time>2022-05-23 19:59:22</time>
      </trkpt>
      <trkpt lat="41.53233" lon="0.89112">
        <ele>385.8</ele>
        <time>2022-05-23 19:59:23</time>
      </trkpt>
      <trkpt lat="41.53232" lon="0.89099">
        <ele>385.6</ele>
        <time>2022-05-23 19:59:24</time>
      </trkpt>
      <trkpt lat="41.53231" lon="0.89087">
        <ele>385.4</ele>
        <time>2022-05-23 19:59:25</time>
      </trkpt>
      <trkpt lat="41.53231" lon="0.89075">
        <ele>385.2</ele>
        <time>2022-05-23 19:59:26</time>
      </trkpt>
      <trkpt lat="41.5323" lon="0.89062">
        <ele>385</ele>
        <time>2022-05-23 19:59:27</time>
      </trkpt>
      <trkpt lat="41.53229" lon="0.89049">
        <ele>384.8</ele>
        <time>2022-05-23 19:59:28</time>
      </trkpt>
      <trkpt lat="41.53229" lon="0.89038">
        <ele>384.4</ele>
        <time>2022-05-23 19:59:29</time>
      </trkpt>
      <trkpt lat="41.53229" lon="0.89026">
        <ele>384.2</ele>
        <time>2022-05-23 19:59:30</time>
      </trkpt>
      <trkpt lat="41.53227" lon="0.89013">
        <ele>384</ele>
        <time>2022-05-23 19:59:31</time>
      </trkpt>
      <trkpt lat="41.53227" lon="0.89">
        <ele>383.6</ele>
        <time>2022-05-23 19:59:32</time>
      </trkpt>
      <trkpt lat="41.53226" lon="0.88986">
        <ele>383.2</ele>
        <time>2022-05-23 19:59:33</time>
      </trkpt>
      <trkpt lat="41.53225" lon="0.88974">
        <ele>383</ele>
        <time>2022-05-23 19:59:34</time>
      </trkpt>
      <trkpt lat="41.53225" lon="0.88962">
        <ele>382.6</ele>
        <time>2022-05-23 19:59:35</time>
      </trkpt>
      <trkpt lat="41.53224" lon="0.8895">
        <ele>382.2</ele>
        <time>2022-05-23 19:59:36</time>
      </trkpt>
      <trkpt lat="41.53223" lon="0.88939">
        <ele>382</ele>
        <time>2022-05-23 19:59:37</time>
      </trkpt>
      <trkpt lat="41.53222" lon="0.88925">
        <ele>381.8</ele>
        <time>2022-05-23 19:59:38</time>
      </trkpt>
      <trkpt lat="41.53222" lon="0.88912">
        <ele>381.4</ele>
        <time>2022-05-23 19:59:39</time>
      </trkpt>
      <trkpt lat="41.53222" lon="0.889">
        <ele>381</ele>
        <time>2022-05-23 19:59:40</time>
      </trkpt>
      <trkpt lat="41.53222" lon="0.88888">
        <ele>380.6</ele>
        <time>2022-05-23 19:59:41</time>
      </trkpt>
      <trkpt lat="41.53222" lon="0.88875">
        <ele>380.2</ele>
        <time>2022-05-23 19:59:42</time>
      </trkpt>
      <trkpt lat="41.53222" lon="0.88863">
        <ele>380</ele>
        <time>2022-05-23 19:59:43</time>
      </trkpt>
      <trkpt lat="41.53223" lon="0.88851">
        <ele>379.8</ele>
        <time>2022-05-23 19:59:44</time>
      </trkpt>
      <trkpt lat="41.53224" lon="0.8884">
        <ele>379.4</ele>
        <time>2022-05-23 19:59:45</time>
      </trkpt>
      <trkpt lat="41.53225" lon="0.88827">
        <ele>379.2</ele>
        <time>2022-05-23 19:59:46</time>
      </trkpt>
      <trkpt lat="41.53226" lon="0.88816">
        <ele>379.2</ele>
        <time>2022-05-23 19:59:47</time>
      </trkpt>
      <trkpt lat="41.53227" lon="0.88803">
        <ele>379</ele>
        <time>2022-05-23 19:59:48</time>
      </trkpt>
      <trkpt lat="41.53228" lon="0.88792">
        <ele>378.8</ele>
        <time>2022-05-23 19:59:49</time>
      </trkpt>
      <trkpt lat="41.5323" lon="0.88779">
        <ele>378.6</ele>
        <time>2022-05-23 19:59:50</time>
      </trkpt>
      <trkpt lat="41.53231" lon="0.88768">
        <ele>378.4</ele>
        <time>2022-05-23 19:59:51</time>
      </trkpt>
      <trkpt lat="41.53232" lon="0.88756">
        <ele>378.2</ele>
        <time>2022-05-23 19:59:52</time>
      </trkpt>
      <trkpt lat="41.53233" lon="0.88745">
        <ele>378.2</ele>
        <time>2022-05-23 19:59:53</time>
      </trkpt>
      <trkpt lat="41.53235" lon="0.88734">
        <ele>378.2</ele>
        <time>2022-05-23 19:59:54</time>
      </trkpt>
      <trkpt lat="41.53236" lon="0.88723">
        <ele>378</ele>
        <time>2022-05-23 19:59:55</time>
      </trkpt>
      <trkpt lat="41.53237" lon="0.88713">
        <ele>378</ele>
        <time>2022-05-23 19:59:56</time>
      </trkpt>
      <trkpt lat="41.53238" lon="0.88703">
        <ele>377.8</ele>
        <time>2022-05-23 19:59:57</time>
      </trkpt>
      <trkpt lat="41.53239" lon="0.88694">
        <ele>377.8</ele>
        <time>2022-05-23 19:59:58</time>
      </trkpt>
      <trkpt lat="41.53241" lon="0.88684">
        <ele>377.8</ele>
        <time>2022-05-23 19:59:59</time>
      </trkpt>
      <trkpt lat="41.53242" lon="0.88675">
        <ele>377.8</ele>
        <time>2022-05-23 20:00:00</time>
      </trkpt>
      <trkpt lat="41.53244" lon="0.88666">
        <ele>377.8</ele>
        <time>2022-05-23 20:00:01</time>
      </trkpt>
      <trkpt lat="41.53245" lon="0.88657">
        <ele>377.8</ele>
        <time>2022-05-23 20:00:02</time>
      </trkpt>
      <trkpt lat="41.53248" lon="0.88649">
        <ele>377.8</ele>
        <time>2022-05-23 20:00:03</time>
      </trkpt>
      <trkpt lat="41.5325" lon="0.88641">
        <ele>377.8</ele>
        <time>2022-05-23 20:00:04</time>
      </trkpt>
      <trkpt lat="41.53254" lon="0.88634">
        <ele>377.8</ele>
        <time>2022-05-23 20:00:05</time>
      </trkpt>
      <trkpt lat="41.53258" lon="0.88628">
        <ele>378</ele>
        <time>2022-05-23 20:00:06</time>
      </trkpt>
      <trkpt lat="41.53262" lon="0.88624">
        <ele>378.4</ele>
        <time>2022-05-23 20:00:07</time>
      </trkpt>
      <trkpt lat="41.53268" lon="0.8862">
        <ele>378.6</ele>
        <time>2022-05-23 20:00:08</time>
      </trkpt>
      <trkpt lat="41.53272" lon="0.88615">
        <ele>379</ele>
        <time>2022-05-23 20:00:09</time>
      </trkpt>
      <trkpt lat="41.53276" lon="0.88611">
        <ele>379.4</ele>
        <time>2022-05-23 20:00:10</time>
      </trkpt>
      <trkpt lat="41.53279" lon="0.88607">
        <ele>379.8</ele>
        <time>2022-05-23 20:00:11</time>
      </trkpt>
      <trkpt lat="41.53282" lon="0.88604">
        <ele>380.2</ele>
        <time>2022-05-23 20:00:12</time>
      </trkpt>
      <trkpt lat="41.53284" lon="0.88601">
        <ele>380.6</ele>
        <time>2022-05-23 20:00:13</time>
      </trkpt>
      <trkpt lat="41.53286" lon="0.88599">
        <ele>381</ele>
        <time>2022-05-23 20:00:14</time>
      </trkpt>
      <trkpt lat="41.53287" lon="0.88598">
        <ele>381.2</ele>
        <time>2022-05-23 20:00:15</time>
      </trkpt>
      <trkpt lat="41.53288" lon="0.88597">
        <ele>381.4</ele>
        <time>2022-05-23 20:00:16</time>
      </trkpt>
      <trkpt lat="41.53289" lon="0.88596">
        <ele>381.6</ele>
        <time>2022-05-23 20:00:17</time>
      </trkpt>
      <trkpt lat="41.53289" lon="0.88593">
        <ele>381.6</ele>
        <time>2022-05-23 20:00:18</time>
      </trkpt>
      <trkpt lat="41.5329" lon="0.88589">
        <ele>381.6</ele>
        <time>2022-05-23 20:00:19</time>
      </trkpt>
      <trkpt lat="41.53289" lon="0.88584">
        <ele>381.4</ele>
        <time>2022-05-23 20:00:20</time>
      </trkpt>
      <trkpt lat="41.53288" lon="0.88579">
        <ele>381.4</ele>
        <time>2022-05-23 20:00:21</time>
      </trkpt>
      <trkpt lat="41.53285" lon="0.88575">
        <ele>381.2</ele>
        <time>2022-05-23 20:00:22</time>
      </trkpt>
      <trkpt lat="41.53282" lon="0.8857">
        <ele>381</ele>
        <time>2022-05-23 20:00:23</time>
      </trkpt>
      <trkpt lat="41.53279" lon="0.88564">
        <ele>380.8</ele>
        <time>2022-05-23 20:00:24</time>
      </trkpt>
      <trkpt lat="41.53275" lon="0.88558">
        <ele>380.6</ele>
        <time>2022-05-23 20:00:25</time>
      </trkpt>
      <trkpt lat="41.53272" lon="0.88552">
        <ele>380.6</ele>
        <time>2022-05-23 20:00:26</time>
      </trkpt>
      <trkpt lat="41.53268" lon="0.88545">
        <ele>380.4</ele>
        <time>2022-05-23 20:00:27</time>
      </trkpt>
      <trkpt lat="41.53265" lon="0.88539">
        <ele>380.2</ele>
        <time>2022-05-23 20:00:28</time>
      </trkpt>
      <trkpt lat="41.53262" lon="0.88532">
        <ele>380.2</ele>
        <time>2022-05-23 20:00:29</time>
      </trkpt>
      <trkpt lat="41.53258" lon="0.88525">
        <ele>380</ele>
        <time>2022-05-23 20:00:30</time>
      </trkpt>
      <trkpt lat="41.53254" lon="0.88518">
        <ele>379.8</ele>
        <time>2022-05-23 20:00:31</time>
      </trkpt>
      <trkpt lat="41.53251" lon="0.88511">
        <ele>379.6</ele>
        <time>2022-05-23 20:00:32</time>
      </trkpt>
      <trkpt lat="41.53247" lon="0.88504">
        <ele>379.4</ele>
        <time>2022-05-23 20:00:33</time>
      </trkpt>
      <trkpt lat="41.53243" lon="0.88496">
        <ele>379.4</ele>
        <time>2022-05-23 20:00:34</time>
      </trkpt>
      <trkpt lat="41.53239" lon="0.88488">
        <ele>379.2</ele>
        <time>2022-05-23 20:00:35</time>
      </trkpt>
      <trkpt lat="41.53236" lon="0.8848">
        <ele>379</ele>
        <time>2022-05-23 20:00:36</time>
      </trkpt>
      <trkpt lat="41.53232" lon="0.88472">
        <ele>378.8</ele>
        <time>2022-05-23 20:00:37</time>
      </trkpt>
      <trkpt lat="41.53228" lon="0.88463">
        <ele>378.4</ele>
        <time>2022-05-23 20:00:38</time>
      </trkpt>
      <trkpt lat="41.53224" lon="0.88455">
        <ele>378.2</ele>
        <time>2022-05-23 20:00:39</time>
      </trkpt>
      <trkpt lat="41.5322" lon="0.88446">
        <ele>378</ele>
        <time>2022-05-23 20:00:40</time>
      </trkpt>
      <trkpt lat="41.53216" lon="0.88437">
        <ele>377.6</ele>
        <time>2022-05-23 20:00:41</time>
      </trkpt>
      <trkpt lat="41.53212" lon="0.88429">
        <ele>377.4</ele>
        <time>2022-05-23 20:00:42</time>
      </trkpt>
      <trkpt lat="41.53207" lon="0.8842">
        <ele>377</ele>
        <time>2022-05-23 20:00:43</time>
      </trkpt>
      <trkpt lat="41.53203" lon="0.88411">
        <ele>376.6</ele>
        <time>2022-05-23 20:00:44</time>
      </trkpt>
      <trkpt lat="41.53199" lon="0.88401">
        <ele>376.2</ele>
        <time>2022-05-23 20:00:45</time>
      </trkpt>
      <trkpt lat="41.53194" lon="0.88391">
        <ele>375.8</ele>
        <time>2022-05-23 20:00:46</time>
      </trkpt>
      <trkpt lat="41.5319" lon="0.88382">
        <ele>375.4</ele>
        <time>2022-05-23 20:00:47</time>
      </trkpt>
      <trkpt lat="41.53185" lon="0.88372">
        <ele>374.8</ele>
        <time>2022-05-23 20:00:48</time>
      </trkpt>
      <trkpt lat="41.53181" lon="0.88361">
        <ele>374.4</ele>
        <time>2022-05-23 20:00:49</time>
      </trkpt>
      <trkpt lat="41.53176" lon="0.88351">
        <ele>373.8</ele>
        <time>2022-05-23 20:00:50</time>
      </trkpt>
      <trkpt lat="41.5317" lon="0.88341">
        <ele>373.4</ele>
        <time>2022-05-23 20:00:51</time>
      </trkpt>
      <trkpt lat="41.53166" lon="0.8833">
        <ele>372.8</ele>
        <time>2022-05-23 20:00:52</time>
      </trkpt>
      <trkpt lat="41.53161" lon="0.88318">
        <ele>372.2</ele>
        <time>2022-05-23 20:00:53</time>
      </trkpt>
      <trkpt lat="41.53155" lon="0.88308">
        <ele>371.6</ele>
        <time>2022-05-23 20:00:54</time>
      </trkpt>
      <trkpt lat="41.53149" lon="0.88296">
        <ele>371.2</ele>
        <time>2022-05-23 20:00:55</time>
      </trkpt>
      <trkpt lat="41.53144" lon="0.88284">
        <ele>370.8</ele>
        <time>2022-05-23 20:00:56</time>
      </trkpt>
      <trkpt lat="41.53139" lon="0.88274">
        <ele>370.4</ele>
        <time>2022-05-23 20:00:57</time>
      </trkpt>
      <trkpt lat="41.53134" lon="0.88263">
        <ele>370</ele>
        <time>2022-05-23 20:00:58</time>
      </trkpt>
      <trkpt lat="41.53129" lon="0.88253">
        <ele>369.6</ele>
        <time>2022-05-23 20:00:59</time>
      </trkpt>
      <trkpt lat="41.53124" lon="0.88242">
        <ele>369.2</ele>
        <time>2022-05-23 20:01:00</time>
      </trkpt>
      <trkpt lat="41.5312" lon="0.88232">
        <ele>368.8</ele>
        <time>2022-05-23 20:01:01</time>
      </trkpt>
      <trkpt lat="41.53116" lon="0.88222">
        <ele>368.4</ele>
        <time>2022-05-23 20:01:02</time>
      </trkpt>
      <trkpt lat="41.53111" lon="0.88212">
        <ele>368.2</ele>
        <time>2022-05-23 20:01:03</time>
      </trkpt>
      <trkpt lat="41.53106" lon="0.88202">
        <ele>368</ele>
        <time>2022-05-23 20:01:04</time>
      </trkpt>
      <trkpt lat="41.53102" lon="0.88192">
        <ele>367.8</ele>
        <time>2022-05-23 20:01:05</time>
      </trkpt>
      <trkpt lat="41.53097" lon="0.88182">
        <ele>367.6</ele>
        <time>2022-05-23 20:01:06</time>
      </trkpt>
      <trkpt lat="41.53092" lon="0.88173">
        <ele>367.4</ele>
        <time>2022-05-23 20:01:07</time>
      </trkpt>
      <trkpt lat="41.53088" lon="0.88163">
        <ele>367.4</ele>
        <time>2022-05-23 20:01:08</time>
      </trkpt>
      <trkpt lat="41.53084" lon="0.88154">
        <ele>367.2</ele>
        <time>2022-05-23 20:01:09</time>
      </trkpt>
      <trkpt lat="41.5308" lon="0.88145">
        <ele>367</ele>
        <time>2022-05-23 20:01:10</time>
      </trkpt>
      <trkpt lat="41.53076" lon="0.88136">
        <ele>366.8</ele>
        <time>2022-05-23 20:01:11</time>
      </trkpt>
      <trkpt lat="41.53071" lon="0.88127">
        <ele>366.8</ele>
        <time>2022-05-23 20:01:12</time>
      </trkpt>
      <trkpt lat="41.53068" lon="0.88119">
        <ele>366.8</ele>
        <time>2022-05-23 20:01:13</time>
      </trkpt>
      <trkpt lat="41.53063" lon="0.8811">
        <ele>366.8</ele>
        <time>2022-05-23 20:01:14</time>
      </trkpt>
      <trkpt lat="41.5306" lon="0.88102">
        <ele>367</ele>
        <time>2022-05-23 20:01:15</time>
      </trkpt>
      <trkpt lat="41.53056" lon="0.88094">
        <ele>366.8</ele>
        <time>2022-05-23 20:01:16</time>
      </trkpt>
      <trkpt lat="41.53052" lon="0.88086">
        <ele>366.8</ele>
        <time>2022-05-23 20:01:17</time>
      </trkpt>
      <trkpt lat="41.53049" lon="0.88079">
        <ele>366.8</ele>
        <time>2022-05-23 20:01:18</time>
      </trkpt>
      <trkpt lat="41.53046" lon="0.88071">
        <ele>366.8</ele>
        <time>2022-05-23 20:01:19</time>
      </trkpt>
      <trkpt lat="41.53042" lon="0.88064">
        <ele>366.8</ele>
        <time>2022-05-23 20:01:20</time>
      </trkpt>
      <trkpt lat="41.53039" lon="0.88058">
        <ele>367</ele>
        <time>2022-05-23 20:01:21</time>
      </trkpt>
      <trkpt lat="41.53035" lon="0.8805">
        <ele>367.2</ele>
        <time>2022-05-23 20:01:22</time>
      </trkpt>
      <trkpt lat="41.53032" lon="0.88043">
        <ele>367.2</ele>
        <time>2022-05-23 20:01:23</time>
      </trkpt>
      <trkpt lat="41.53029" lon="0.88036">
        <ele>367.2</ele>
        <time>2022-05-23 20:01:24</time>
      </trkpt>
      <trkpt lat="41.53026" lon="0.88029">
        <ele>367.2</ele>
        <time>2022-05-23 20:01:25</time>
      </trkpt>
      <trkpt lat="41.53022" lon="0.88022">
        <ele>367.2</ele>
        <time>2022-05-23 20:01:26</time>
      </trkpt>
      <trkpt lat="41.53019" lon="0.88015">
        <ele>367.4</ele>
        <time>2022-05-23 20:01:27</time>
      </trkpt>
      <trkpt lat="41.53016" lon="0.88009">
        <ele>367.4</ele>
        <time>2022-05-23 20:01:28</time>
      </trkpt>
      <trkpt lat="41.53014" lon="0.88005">
        <ele>367.2</ele>
        <time>2022-05-23 20:01:29</time>
      </trkpt>
      <trkpt lat="41.5301" lon="0.87997">
        <ele>367.2</ele>
        <time>2022-05-23 20:01:30</time>
      </trkpt>
      <trkpt lat="41.53007" lon="0.8799">
        <ele>367.4</ele>
        <time>2022-05-23 20:01:31</time>
      </trkpt>
      <trkpt lat="41.53004" lon="0.87983">
        <ele>367.4</ele>
        <time>2022-05-23 20:01:32</time>
      </trkpt>
      <trkpt lat="41.53001" lon="0.87977">
        <ele>367.4</ele>
        <time>2022-05-23 20:01:33</time>
      </trkpt>
      <trkpt lat="41.52997" lon="0.8797">
        <ele>367.4</ele>
        <time>2022-05-23 20:01:34</time>
      </trkpt>
      <trkpt lat="41.52994" lon="0.87964">
        <ele>367.6</ele>
        <time>2022-05-23 20:01:35</time>
      </trkpt>
      <trkpt lat="41.52991" lon="0.87957">
        <ele>367.6</ele>
        <time>2022-05-23 20:01:36</time>
      </trkpt>
      <trkpt lat="41.52988" lon="0.87951">
        <ele>367.6</ele>
        <time>2022-05-23 20:01:37</time>
      </trkpt>
      <trkpt lat="41.52985" lon="0.87944">
        <ele>367.6</ele>
        <time>2022-05-23 20:01:38</time>
      </trkpt>
      <trkpt lat="41.52982" lon="0.87938">
        <ele>367.6</ele>
        <time>2022-05-23 20:01:39</time>
      </trkpt>
      <trkpt lat="41.52979" lon="0.87931">
        <ele>367.4</ele>
        <time>2022-05-23 20:01:40</time>
      </trkpt>
      <trkpt lat="41.52976" lon="0.87925">
        <ele>367.4</ele>
        <time>2022-05-23 20:01:41</time>
      </trkpt>
      <trkpt lat="41.52973" lon="0.87918">
        <ele>367.4</ele>
        <time>2022-05-23 20:01:42</time>
      </trkpt>
      <trkpt lat="41.5297" lon="0.87911">
        <ele>367.2</ele>
        <time>2022-05-23 20:01:43</time>
      </trkpt>
      <trkpt lat="41.52967" lon="0.87904">
        <ele>367.2</ele>
        <time>2022-05-23 20:01:44</time>
      </trkpt>
      <trkpt lat="41.52964" lon="0.87897">
        <ele>367</ele>
        <time>2022-05-23 20:01:45</time>
      </trkpt>
      <trkpt lat="41.5296" lon="0.8789">
        <ele>366.8</ele>
        <time>2022-05-23 20:01:46</time>
      </trkpt>
      <trkpt lat="41.52957" lon="0.87883">
        <ele>366.6</ele>
        <time>2022-05-23 20:01:47</time>
      </trkpt>
      <trkpt lat="41.52954" lon="0.87876">
        <ele>366.4</ele>
        <time>2022-05-23 20:01:48</time>
      </trkpt>
      <trkpt lat="41.52951" lon="0.8787">
        <ele>366.2</ele>
        <time>2022-05-23 20:01:49</time>
      </trkpt>
      <trkpt lat="41.52946" lon="0.87861">
        <ele>366</ele>
        <time>2022-05-23 20:01:50</time>
      </trkpt>
      <trkpt lat="41.52943" lon="0.87853">
        <ele>365.8</ele>
        <time>2022-05-23 20:01:51</time>
      </trkpt>
      <trkpt lat="41.52939" lon="0.87844">
        <ele>365.4</ele>
        <time>2022-05-23 20:01:52</time>
      </trkpt>
      <trkpt lat="41.52936" lon="0.87837">
        <ele>365</ele>
        <time>2022-05-23 20:01:53</time>
      </trkpt>
      <trkpt lat="41.52931" lon="0.87827">
        <ele>364.8</ele>
        <time>2022-05-23 20:01:54</time>
      </trkpt>
      <trkpt lat="41.52927" lon="0.87819">
        <ele>364.4</ele>
        <time>2022-05-23 20:01:55</time>
      </trkpt>
      <trkpt lat="41.52922" lon="0.87809">
        <ele>364</ele>
        <time>2022-05-23 20:01:56</time>
      </trkpt>
      <trkpt lat="41.52918" lon="0.87801">
        <ele>363.6</ele>
        <time>2022-05-23 20:01:57</time>
      </trkpt>
      <trkpt lat="41.52914" lon="0.87791">
        <ele>363</ele>
        <time>2022-05-23 20:01:58</time>
      </trkpt>
      <trkpt lat="41.52909" lon="0.87781">
        <ele>362.6</ele>
        <time>2022-05-23 20:01:59</time>
      </trkpt>
      <trkpt lat="41.52904" lon="0.87772">
        <ele>362.2</ele>
        <time>2022-05-23 20:02:00</time>
      </trkpt>
      <trkpt lat="41.529" lon="0.87762">
        <ele>362</ele>
        <time>2022-05-23 20:02:01</time>
      </trkpt>
      <trkpt lat="41.52894" lon="0.87752">
        <ele>361.4</ele>
        <time>2022-05-23 20:02:02</time>
      </trkpt>
      <trkpt lat="41.5289" lon="0.87744">
        <ele>361</ele>
        <time>2022-05-23 20:02:03</time>
      </trkpt>
      <trkpt lat="41.52883" lon="0.87733">
        <ele>360.6</ele>
        <time>2022-05-23 20:02:04</time>
      </trkpt>
      <trkpt lat="41.52878" lon="0.87724">
        <ele>360.2</ele>
        <time>2022-05-23 20:02:05</time>
      </trkpt>
      <trkpt lat="41.52872" lon="0.87715">
        <ele>360</ele>
        <time>2022-05-23 20:02:06</time>
      </trkpt>
      <trkpt lat="41.52866" lon="0.87708">
        <ele>359.6</ele>
        <time>2022-05-23 20:02:07</time>
      </trkpt>
      <trkpt lat="41.5286" lon="0.87699">
        <ele>359.2</ele>
        <time>2022-05-23 20:02:08</time>
      </trkpt>
      <trkpt lat="41.52853" lon="0.8769">
        <ele>358.8</ele>
        <time>2022-05-23 20:02:09</time>
      </trkpt>
      <trkpt lat="41.52846" lon="0.87682">
        <ele>358.4</ele>
        <time>2022-05-23 20:02:10</time>
      </trkpt>
      <trkpt lat="41.52839" lon="0.87675">
        <ele>358.2</ele>
        <time>2022-05-23 20:02:11</time>
      </trkpt>
      <trkpt lat="41.52832" lon="0.87669">
        <ele>357.8</ele>
        <time>2022-05-23 20:02:12</time>
      </trkpt>
      <trkpt lat="41.52826" lon="0.87663">
        <ele>357.6</ele>
        <time>2022-05-23 20:02:13</time>
      </trkpt>
      <trkpt lat="41.52818" lon="0.87656">
        <ele>357.4</ele>
        <time>2022-05-23 20:02:14</time>
      </trkpt>
      <trkpt lat="41.52812" lon="0.87651">
        <ele>357.2</ele>
        <time>2022-05-23 20:02:15</time>
      </trkpt>
      <trkpt lat="41.52805" lon="0.87644">
        <ele>357.2</ele>
        <time>2022-05-23 20:02:16</time>
      </trkpt>
      <trkpt lat="41.52798" lon="0.87639">
        <ele>357.2</ele>
        <time>2022-05-23 20:02:17</time>
      </trkpt>
      <trkpt lat="41.52791" lon="0.87633">
        <ele>357.2</ele>
        <time>2022-05-23 20:02:18</time>
      </trkpt>
      <trkpt lat="41.52785" lon="0.87628">
        <ele>357</ele>
        <time>2022-05-23 20:02:19</time>
      </trkpt>
      <trkpt lat="41.52778" lon="0.87622">
        <ele>357.2</ele>
        <time>2022-05-23 20:02:20</time>
      </trkpt>
      <trkpt lat="41.52773" lon="0.87618">
        <ele>357.2</ele>
        <time>2022-05-23 20:02:21</time>
      </trkpt>
      <trkpt lat="41.52767" lon="0.87613">
        <ele>357.2</ele>
        <time>2022-05-23 20:02:22</time>
      </trkpt>
      <trkpt lat="41.52762" lon="0.87609">
        <ele>357.2</ele>
        <time>2022-05-23 20:02:23</time>
      </trkpt>
      <trkpt lat="41.52755" lon="0.87604">
        <ele>357.4</ele>
        <time>2022-05-23 20:02:24</time>
      </trkpt>
      <trkpt lat="41.5275" lon="0.87599">
        <ele>357.4</ele>
        <time>2022-05-23 20:02:25</time>
      </trkpt>
      <trkpt lat="41.52744" lon="0.87595">
        <ele>357.4</ele>
        <time>2022-05-23 20:02:26</time>
      </trkpt>
      <trkpt lat="41.5274" lon="0.87591">
        <ele>357.4</ele>
        <time>2022-05-23 20:02:27</time>
      </trkpt>
      <trkpt lat="41.52734" lon="0.87586">
        <ele>357.6</ele>
        <time>2022-05-23 20:02:28</time>
      </trkpt>
      <trkpt lat="41.52729" lon="0.87582">
        <ele>357.6</ele>
        <time>2022-05-23 20:02:29</time>
      </trkpt>
      <trkpt lat="41.52724" lon="0.87578">
        <ele>357.8</ele>
        <time>2022-05-23 20:02:30</time>
      </trkpt>
      <trkpt lat="41.52719" lon="0.87574">
        <ele>358</ele>
        <time>2022-05-23 20:02:31</time>
      </trkpt>
      <trkpt lat="41.52714" lon="0.8757">
        <ele>358</ele>
        <time>2022-05-23 20:02:32</time>
      </trkpt>
      <trkpt lat="41.5271" lon="0.87566">
        <ele>358.2</ele>
        <time>2022-05-23 20:02:33</time>
      </trkpt>
      <trkpt lat="41.52705" lon="0.87562">
        <ele>358.2</ele>
        <time>2022-05-23 20:02:34</time>
      </trkpt>
      <trkpt lat="41.52701" lon="0.87558">
        <ele>358.2</ele>
        <time>2022-05-23 20:02:35</time>
      </trkpt>
      <trkpt lat="41.52696" lon="0.87554">
        <ele>358.2</ele>
        <time>2022-05-23 20:02:36</time>
      </trkpt>
      <trkpt lat="41.52691" lon="0.87551">
        <ele>358.2</ele>
        <time>2022-05-23 20:02:37</time>
      </trkpt>
      <trkpt lat="41.52686" lon="0.87547">
        <ele>358.2</ele>
        <time>2022-05-23 20:02:38</time>
      </trkpt>
      <trkpt lat="41.52683" lon="0.87543">
        <ele>358.4</ele>
        <time>2022-05-23 20:02:39</time>
      </trkpt>
      <trkpt lat="41.52677" lon="0.87539">
        <ele>358.4</ele>
        <time>2022-05-23 20:02:40</time>
      </trkpt>
      <trkpt lat="41.52674" lon="0.87536">
        <ele>358.4</ele>
        <time>2022-05-23 20:02:41</time>
      </trkpt>
      <trkpt lat="41.52669" lon="0.87531">
        <ele>358.6</ele>
        <time>2022-05-23 20:02:42</time>
      </trkpt>
      <trkpt lat="41.52664" lon="0.87528">
        <ele>358.6</ele>
        <time>2022-05-23 20:02:43</time>
      </trkpt>
      <trkpt lat="41.5266" lon="0.87524">
        <ele>358.6</ele>
        <time>2022-05-23 20:02:44</time>
      </trkpt>
      <trkpt lat="41.52656" lon="0.87521">
        <ele>358.8</ele>
        <time>2022-05-23 20:02:45</time>
      </trkpt>
      <trkpt lat="41.52651" lon="0.87517">
        <ele>358.8</ele>
        <time>2022-05-23 20:02:46</time>
      </trkpt>
      <trkpt lat="41.52648" lon="0.87514">
        <ele>358.8</ele>
        <time>2022-05-23 20:02:47</time>
      </trkpt>
      <trkpt lat="41.52643" lon="0.87509">
        <ele>358.8</ele>
        <time>2022-05-23 20:02:48</time>
      </trkpt>
      <trkpt lat="41.52639" lon="0.87505">
        <ele>358.8</ele>
        <time>2022-05-23 20:02:49</time>
      </trkpt>
      <trkpt lat="41.52634" lon="0.87501">
        <ele>358.8</ele>
        <time>2022-05-23 20:02:50</time>
      </trkpt>
      <trkpt lat="41.52631" lon="0.87498">
        <ele>358.8</ele>
        <time>2022-05-23 20:02:51</time>
      </trkpt>
      <trkpt lat="41.52627" lon="0.87493">
        <ele>359</ele>
        <time>2022-05-23 20:02:52</time>
      </trkpt>
      <trkpt lat="41.52623" lon="0.87489">
        <ele>359</ele>
        <time>2022-05-23 20:02:53</time>
      </trkpt>
      <trkpt lat="41.52619" lon="0.87484">
        <ele>359</ele>
        <time>2022-05-23 20:02:54</time>
      </trkpt>
      <trkpt lat="41.52614" lon="0.87479">
        <ele>359</ele>
        <time>2022-05-23 20:02:55</time>
      </trkpt>
      <trkpt lat="41.5261" lon="0.87475">
        <ele>359</ele>
        <time>2022-05-23 20:02:56</time>
      </trkpt>
      <trkpt lat="41.52606" lon="0.8747">
        <ele>359</ele>
        <time>2022-05-23 20:02:57</time>
      </trkpt>
      <trkpt lat="41.52603" lon="0.87466">
        <ele>359</ele>
        <time>2022-05-23 20:02:58</time>
      </trkpt>
      <trkpt lat="41.52599" lon="0.87461">
        <ele>359</ele>
        <time>2022-05-23 20:02:59</time>
      </trkpt>
      <trkpt lat="41.52595" lon="0.87456">
        <ele>359.2</ele>
        <time>2022-05-23 20:03:00</time>
      </trkpt>
      <trkpt lat="41.52592" lon="0.87451">
        <ele>359.2</ele>
        <time>2022-05-23 20:03:01</time>
      </trkpt>
      <trkpt lat="41.52589" lon="0.87447">
        <ele>359.2</ele>
        <time>2022-05-23 20:03:02</time>
      </trkpt>
      <trkpt lat="41.52586" lon="0.87442">
        <ele>359.4</ele>
        <time>2022-05-23 20:03:03</time>
      </trkpt>
      <trkpt lat="41.52584" lon="0.87437">
        <ele>359.4</ele>
        <time>2022-05-23 20:03:04</time>
      </trkpt>
      <trkpt lat="41.52582" lon="0.87431">
        <ele>359.4</ele>
        <time>2022-05-23 20:03:05</time>
      </trkpt>
      <trkpt lat="41.5258" lon="0.87425">
        <ele>359.4</ele>
        <time>2022-05-23 20:03:06</time>
      </trkpt>
      <trkpt lat="41.5258" lon="0.87418">
        <ele>359.6</ele>
        <time>2022-05-23 20:03:07</time>
      </trkpt>
      <trkpt lat="41.52579" lon="0.87411">
        <ele>359.6</ele>
        <time>2022-05-23 20:03:08</time>
      </trkpt>
      <trkpt lat="41.52579" lon="0.87404">
        <ele>359.4</ele>
        <time>2022-05-23 20:03:09</time>
      </trkpt>
      <trkpt lat="41.52578" lon="0.87397">
        <ele>359.4</ele>
        <time>2022-05-23 20:03:10</time>
      </trkpt>
      <trkpt lat="41.52576" lon="0.87391">
        <ele>359.4</ele>
        <time>2022-05-23 20:03:11</time>
      </trkpt>
      <trkpt lat="41.52573" lon="0.87385">
        <ele>359.2</ele>
        <time>2022-05-23 20:03:12</time>
      </trkpt>
      <trkpt lat="41.52569" lon="0.8738">
        <ele>359.2</ele>
        <time>2022-05-23 20:03:13</time>
      </trkpt>
      <trkpt lat="41.52566" lon="0.87375">
        <ele>359.2</ele>
        <time>2022-05-23 20:03:14</time>
      </trkpt>
      <trkpt lat="41.52563" lon="0.8737">
        <ele>359.2</ele>
        <time>2022-05-23 20:03:15</time>
      </trkpt>
      <trkpt lat="41.5256" lon="0.87367">
        <ele>359.4</ele>
        <time>2022-05-23 20:03:16</time>
      </trkpt>
      <trkpt lat="41.5256" lon="0.87366">
        <ele>359.4</ele>
        <time>2022-05-23 20:03:17</time>
      </trkpt>
      <trkpt lat="41.5256" lon="0.87365">
        <ele>359.4</ele>
        <time>2022-05-23 20:03:18</time>
      </trkpt>
      <trkpt lat="41.52561" lon="0.87366">
        <ele>359.6</ele>
        <time>2022-05-23 20:03:19</time>
      </trkpt>
      <trkpt lat="41.52562" lon="0.87368">
        <ele>359.6</ele>
        <time>2022-05-23 20:03:20</time>
      </trkpt>
      <trkpt lat="41.52562" lon="0.8737">
        <ele>359.6</ele>
        <time>2022-05-23 20:03:21</time>
      </trkpt>
      <trkpt lat="41.52561" lon="0.87372">
        <ele>359.8</ele>
        <time>2022-05-23 20:03:22</time>
      </trkpt>
      <trkpt lat="41.52559" lon="0.87374">
        <ele>359.8</ele>
        <time>2022-05-23 20:03:23</time>
      </trkpt>
      <trkpt lat="41.52557" lon="0.87376">
        <ele>359.8</ele>
        <time>2022-05-23 20:03:24</time>
      </trkpt>
      <trkpt lat="41.52555" lon="0.87377">
        <ele>360</ele>
        <time>2022-05-23 20:03:25</time>
      </trkpt>
      <trkpt lat="41.52552" lon="0.8738">
        <ele>360</ele>
        <time>2022-05-23 20:03:26</time>
      </trkpt>
      <trkpt lat="41.5255" lon="0.87382">
        <ele>360</ele>
        <time>2022-05-23 20:03:27</time>
      </trkpt>
      <trkpt lat="41.52548" lon="0.87385">
        <ele>360</ele>
        <time>2022-05-23 20:03:28</time>
      </trkpt>
      <trkpt lat="41.52545" lon="0.87388">
        <ele>360</ele>
        <time>2022-05-23 20:03:29</time>
      </trkpt>
      <trkpt lat="41.52542" lon="0.87392">
        <ele>360.2</ele>
        <time>2022-05-23 20:03:30</time>
      </trkpt>
      <trkpt lat="41.5254" lon="0.87394">
        <ele>360.2</ele>
        <time>2022-05-23 20:03:31</time>
      </trkpt>
      <trkpt lat="41.52536" lon="0.87397">
        <ele>360.2</ele>
        <time>2022-05-23 20:03:32</time>
      </trkpt>
      <trkpt lat="41.52532" lon="0.87399">
        <ele>360.2</ele>
        <time>2022-05-23 20:03:33</time>
      </trkpt>
      <trkpt lat="41.52528" lon="0.874">
        <ele>360.2</ele>
        <time>2022-05-23 20:03:34</time>
      </trkpt>
      <trkpt lat="41.52524" lon="0.87401">
        <ele>360.4</ele>
        <time>2022-05-23 20:03:35</time>
      </trkpt>
      <trkpt lat="41.5252" lon="0.87402">
        <ele>360.4</ele>
        <time>2022-05-23 20:03:36</time>
      </trkpt>
      <trkpt lat="41.52516" lon="0.87404">
        <ele>360.6</ele>
        <time>2022-05-23 20:03:37</time>
      </trkpt>
      <trkpt lat="41.52512" lon="0.87405">
        <ele>360.6</ele>
        <time>2022-05-23 20:03:38</time>
      </trkpt>
      <trkpt lat="41.52508" lon="0.87407">
        <ele>360.8</ele>
        <time>2022-05-23 20:03:39</time>
      </trkpt>
      <trkpt lat="41.52504" lon="0.87408">
        <ele>360.8</ele>
        <time>2022-05-23 20:03:40</time>
      </trkpt>
      <trkpt lat="41.525" lon="0.87409">
        <ele>360.8</ele>
        <time>2022-05-23 20:03:41</time>
      </trkpt>
      <trkpt lat="41.52496" lon="0.8741">
        <ele>360.8</ele>
        <time>2022-05-23 20:03:42</time>
      </trkpt>
      <trkpt lat="41.52492" lon="0.87409">
        <ele>360.8</ele>
        <time>2022-05-23 20:03:43</time>
      </trkpt>
      <trkpt lat="41.52489" lon="0.8741">
        <ele>361</ele>
        <time>2022-05-23 20:03:44</time>
      </trkpt>
      <trkpt lat="41.52487" lon="0.87412">
        <ele>361</ele>
        <time>2022-05-23 20:03:45</time>
      </trkpt>
      <trkpt lat="41.52484" lon="0.87416">
        <ele>361.2</ele>
        <time>2022-05-23 20:03:46</time>
      </trkpt>
      <trkpt lat="41.52483" lon="0.87419">
        <ele>361.2</ele>
        <time>2022-05-23 20:03:47</time>
      </trkpt>
      <trkpt lat="41.52481" lon="0.87422">
        <ele>361.4</ele>
        <time>2022-05-23 20:03:48</time>
      </trkpt>
      <trkpt lat="41.52479" lon="0.87425">
        <ele>361.4</ele>
        <time>2022-05-23 20:03:49</time>
      </trkpt>
      <trkpt lat="41.52476" lon="0.87428">
        <ele>361.6</ele>
        <time>2022-05-23 20:03:50</time>
      </trkpt>
      <trkpt lat="41.52475" lon="0.8743">
        <ele>361.8</ele>
        <time>2022-05-23 20:03:51</time>
      </trkpt>
      <trkpt lat="41.52473" lon="0.87432">
        <ele>362</ele>
        <time>2022-05-23 20:03:52</time>
      </trkpt>
      <trkpt lat="41.52471" lon="0.87435">
        <ele>362.2</ele>
        <time>2022-05-23 20:03:53</time>
      </trkpt>
      <trkpt lat="41.5247" lon="0.87437">
        <ele>362.2</ele>
        <time>2022-05-23 20:03:54</time>
      </trkpt>
      <trkpt lat="41.52468" lon="0.87439">
        <ele>362.4</ele>
        <time>2022-05-23 20:03:55</time>
      </trkpt>
      <trkpt lat="41.52467" lon="0.87441">
        <ele>362.6</ele>
        <time>2022-05-23 20:03:56</time>
      </trkpt>
      <trkpt lat="41.52465" lon="0.87443">
        <ele>362.6</ele>
        <time>2022-05-23 20:03:57</time>
      </trkpt>
      <trkpt lat="41.52463" lon="0.87445">
        <ele>362.8</ele>
        <time>2022-05-23 20:03:58</time>
      </trkpt>
      <trkpt lat="41.52462" lon="0.87447">
        <ele>363</ele>
        <time>2022-05-23 20:03:59</time>
      </trkpt>
      <trkpt lat="41.5246" lon="0.87449">
        <ele>363.2</ele>
        <time>2022-05-23 20:04:00</time>
      </trkpt>
      <trkpt lat="41.52458" lon="0.87451">
        <ele>363.4</ele>
        <time>2022-05-23 20:04:01</time>
      </trkpt>
      <trkpt lat="41.52457" lon="0.87453">
        <ele>363.6</ele>
        <time>2022-05-23 20:04:02</time>
      </trkpt>
      <trkpt lat="41.52455" lon="0.87456">
        <ele>363.8</ele>
        <time>2022-05-23 20:04:03</time>
      </trkpt>
      <trkpt lat="41.52454" lon="0.87458">
        <ele>364</ele>
        <time>2022-05-23 20:04:04</time>
      </trkpt>
      <trkpt lat="41.52452" lon="0.8746">
        <ele>364</ele>
        <time>2022-05-23 20:04:05</time>
      </trkpt>
      <trkpt lat="41.52451" lon="0.87462">
        <ele>364.2</ele>
        <time>2022-05-23 20:04:06</time>
      </trkpt>
      <trkpt lat="41.5245" lon="0.87464">
        <ele>364.4</ele>
        <time>2022-05-23 20:04:07</time>
      </trkpt>
      <trkpt lat="41.52449" lon="0.87465">
        <ele>364.6</ele>
        <time>2022-05-23 20:04:08</time>
      </trkpt>
      <trkpt lat="41.52447" lon="0.87467">
        <ele>364.8</ele>
        <time>2022-05-23 20:04:09</time>
      </trkpt>
      <trkpt lat="41.52446" lon="0.87468">
        <ele>365</ele>
        <time>2022-05-23 20:04:10</time>
      </trkpt>
      <trkpt lat="41.52444" lon="0.8747">
        <ele>365</ele>
        <time>2022-05-23 20:04:11</time>
      </trkpt>
      <trkpt lat="41.52443" lon="0.87471">
        <ele>365.2</ele>
        <time>2022-05-23 20:04:12</time>
      </trkpt>
      <trkpt lat="41.52442" lon="0.87473">
        <ele>365.4</ele>
        <time>2022-05-23 20:04:13</time>
      </trkpt>
      <trkpt lat="41.52441" lon="0.87474">
        <ele>365.4</ele>
        <time>2022-05-23 20:04:14</time>
      </trkpt>
      <trkpt lat="41.52439" lon="0.87475">
        <ele>365.6</ele>
        <time>2022-05-23 20:04:15</time>
      </trkpt>
      <trkpt lat="41.52439" lon="0.87477">
        <ele>365.8</ele>
        <time>2022-05-23 20:04:16</time>
      </trkpt>
      <trkpt lat="41.52437" lon="0.87478">
        <ele>366</ele>
        <time>2022-05-23 20:04:17</time>
      </trkpt>
      <trkpt lat="41.52436" lon="0.87479">
        <ele>366</ele>
        <time>2022-05-23 20:04:18</time>
      </trkpt>
      <trkpt lat="41.52434" lon="0.8748">
        <ele>366.2</ele>
        <time>2022-05-23 20:04:19</time>
      </trkpt>
      <trkpt lat="41.52433" lon="0.87481">
        <ele>366.4</ele>
        <time>2022-05-23 20:04:20</time>
      </trkpt>
      <trkpt lat="41.52431" lon="0.87483">
        <ele>366.6</ele>
        <time>2022-05-23 20:04:21</time>
      </trkpt>
      <trkpt lat="41.5243" lon="0.87484">
        <ele>366.6</ele>
        <time>2022-05-23 20:04:22</time>
      </trkpt>
      <trkpt lat="41.52428" lon="0.87485">
        <ele>366.8</ele>
        <time>2022-05-23 20:04:23</time>
      </trkpt>
      <trkpt lat="41.52427" lon="0.87486">
        <ele>367</ele>
        <time>2022-05-23 20:04:24</time>
      </trkpt>
      <trkpt lat="41.52425" lon="0.87487">
        <ele>367</ele>
        <time>2022-05-23 20:04:25</time>
      </trkpt>
      <trkpt lat="41.52423" lon="0.87488">
        <ele>367.2</ele>
        <time>2022-05-23 20:04:26</time>
      </trkpt>
      <trkpt lat="41.52422" lon="0.87489">
        <ele>367.4</ele>
        <time>2022-05-23 20:04:27</time>
      </trkpt>
      <trkpt lat="41.5242" lon="0.8749">
        <ele>367.6</ele>
        <time>2022-05-23 20:04:28</time>
      </trkpt>
      <trkpt lat="41.52418" lon="0.8749">
        <ele>367.8</ele>
        <time>2022-05-23 20:04:29</time>
      </trkpt>
      <trkpt lat="41.52417" lon="0.87491">
        <ele>368</ele>
        <time>2022-05-23 20:04:30</time>
      </trkpt>
      <trkpt lat="41.52415" lon="0.87491">
        <ele>368</ele>
        <time>2022-05-23 20:04:31</time>
      </trkpt>
      <trkpt lat="41.52413" lon="0.87492">
        <ele>368.2</ele>
        <time>2022-05-23 20:04:32</time>
      </trkpt>
      <trkpt lat="41.52411" lon="0.87492">
        <ele>368.4</ele>
        <time>2022-05-23 20:04:33</time>
      </trkpt>
      <trkpt lat="41.52409" lon="0.87493">
        <ele>368.6</ele>
        <time>2022-05-23 20:04:34</time>
      </trkpt>
      <trkpt lat="41.52407" lon="0.87493">
        <ele>368.6</ele>
        <time>2022-05-23 20:04:35</time>
      </trkpt>
      <trkpt lat="41.52406" lon="0.87494">
        <ele>368.8</ele>
        <time>2022-05-23 20:04:36</time>
      </trkpt>
      <trkpt lat="41.52404" lon="0.87494">
        <ele>369</ele>
        <time>2022-05-23 20:04:37</time>
      </trkpt>
      <trkpt lat="41.52402" lon="0.87494">
        <ele>369.2</ele>
        <time>2022-05-23 20:04:38</time>
      </trkpt>
      <trkpt lat="41.524" lon="0.87494">
        <ele>369.4</ele>
        <time>2022-05-23 20:04:39</time>
      </trkpt>
      <trkpt lat="41.52398" lon="0.87495">
        <ele>369.6</ele>
        <time>2022-05-23 20:04:40</time>
      </trkpt>
      <trkpt lat="41.52397" lon="0.87495">
        <ele>369.8</ele>
        <time>2022-05-23 20:04:41</time>
      </trkpt>
      <trkpt lat="41.52395" lon="0.87495">
        <ele>370</ele>
        <time>2022-05-23 20:04:42</time>
      </trkpt>
      <trkpt lat="41.52393" lon="0.87494">
        <ele>370.2</ele>
        <time>2022-05-23 20:04:43</time>
      </trkpt>
      <trkpt lat="41.52391" lon="0.87494">
        <ele>370.2</ele>
        <time>2022-05-23 20:04:44</time>
      </trkpt>
      <trkpt lat="41.5239" lon="0.87494">
        <ele>370.4</ele>
        <time>2022-05-23 20:04:45</time>
      </trkpt>
      <trkpt lat="41.52388" lon="0.87494">
        <ele>370.6</ele>
        <time>2022-05-23 20:04:46</time>
      </trkpt>
      <trkpt lat="41.52386" lon="0.87494">
        <ele>370.8</ele>
        <time>2022-05-23 20:04:47</time>
      </trkpt>
      <trkpt lat="41.52384" lon="0.87494">
        <ele>371</ele>
        <time>2022-05-23 20:04:48</time>
      </trkpt>
      <trkpt lat="41.52382" lon="0.87493">
        <ele>371.2</ele>
        <time>2022-05-23 20:04:49</time>
      </trkpt>
      <trkpt lat="41.5238" lon="0.87493">
        <ele>371.4</ele>
        <time>2022-05-23 20:04:50</time>
      </trkpt>
      <trkpt lat="41.52379" lon="0.87492">
        <ele>371.4</ele>
        <time>2022-05-23 20:04:51</time>
      </trkpt>
      <trkpt lat="41.52377" lon="0.87492">
        <ele>371.6</ele>
        <time>2022-05-23 20:04:52</time>
      </trkpt>
      <trkpt lat="41.52375" lon="0.87492">
        <ele>371.8</ele>
        <time>2022-05-23 20:04:53</time>
      </trkpt>
      <trkpt lat="41.52373" lon="0.87491">
        <ele>372</ele>
        <time>2022-05-23 20:04:54</time>
      </trkpt>
      <trkpt lat="41.52372" lon="0.8749">
        <ele>372</ele>
        <time>2022-05-23 20:04:55</time>
      </trkpt>
      <trkpt lat="41.5237" lon="0.87489">
        <ele>372.2</ele>
        <time>2022-05-23 20:04:56</time>
      </trkpt>
      <trkpt lat="41.52368" lon="0.87489">
        <ele>372.4</ele>
        <time>2022-05-23 20:04:57</time>
      </trkpt>
      <trkpt lat="41.52367" lon="0.87488">
        <ele>372.6</ele>
        <time>2022-05-23 20:04:58</time>
      </trkpt>
      <trkpt lat="41.52365" lon="0.87487">
        <ele>372.6</ele>
        <time>2022-05-23 20:04:59</time>
      </trkpt>
      <trkpt lat="41.52363" lon="0.87487">
        <ele>372.8</ele>
        <time>2022-05-23 20:05:00</time>
      </trkpt>
      <trkpt lat="41.52362" lon="0.87486">
        <ele>373</ele>
        <time>2022-05-23 20:05:01</time>
      </trkpt>
      <trkpt lat="41.5236" lon="0.87485">
        <ele>373.2</ele>
        <time>2022-05-23 20:05:02</time>
      </trkpt>
      <trkpt lat="41.52358" lon="0.87484">
        <ele>373.2</ele>
        <time>2022-05-23 20:05:03</time>
      </trkpt>
      <trkpt lat="41.52356" lon="0.87482">
        <ele>373.4</ele>
        <time>2022-05-23 20:05:04</time>
      </trkpt>
      <trkpt lat="41.52355" lon="0.87481">
        <ele>373.4</ele>
        <time>2022-05-23 20:05:05</time>
      </trkpt>
      <trkpt lat="41.52353" lon="0.8748">
        <ele>373.6</ele>
        <time>2022-05-23 20:05:06</time>
      </trkpt>
      <trkpt lat="41.52351" lon="0.87479">
        <ele>373.6</ele>
        <time>2022-05-23 20:05:07</time>
      </trkpt>
      <trkpt lat="41.52349" lon="0.87478">
        <ele>373.8</ele>
        <time>2022-05-23 20:05:08</time>
      </trkpt>
      <trkpt lat="41.52347" lon="0.87477">
        <ele>374</ele>
        <time>2022-05-23 20:05:09</time>
      </trkpt>
      <trkpt lat="41.52345" lon="0.87475">
        <ele>374</ele>
        <time>2022-05-23 20:05:10</time>
      </trkpt>
      <trkpt lat="41.52343" lon="0.87474">
        <ele>374</ele>
        <time>2022-05-23 20:05:11</time>
      </trkpt>
      <trkpt lat="41.52341" lon="0.87473">
        <ele>374.2</ele>
        <time>2022-05-23 20:05:12</time>
      </trkpt>
      <trkpt lat="41.52339" lon="0.87471">
        <ele>374.2</ele>
        <time>2022-05-23 20:05:13</time>
      </trkpt>
      <trkpt lat="41.52336" lon="0.8747">
        <ele>374.2</ele>
        <time>2022-05-23 20:05:14</time>
      </trkpt>
      <trkpt lat="41.52334" lon="0.87468">
        <ele>374.2</ele>
        <time>2022-05-23 20:05:15</time>
      </trkpt>
      <trkpt lat="41.52331" lon="0.87467">
        <ele>374.4</ele>
        <time>2022-05-23 20:05:16</time>
      </trkpt>
      <trkpt lat="41.52329" lon="0.87465">
        <ele>374.4</ele>
        <time>2022-05-23 20:05:17</time>
      </trkpt>
      <trkpt lat="41.52326" lon="0.87463">
        <ele>374.2</ele>
        <time>2022-05-23 20:05:18</time>
      </trkpt>
      <trkpt lat="41.52323" lon="0.87461">
        <ele>374.2</ele>
        <time>2022-05-23 20:05:19</time>
      </trkpt>
      <trkpt lat="41.5232" lon="0.8746">
        <ele>374.2</ele>
        <time>2022-05-23 20:05:20</time>
      </trkpt>
      <trkpt lat="41.52317" lon="0.87458">
        <ele>374.2</ele>
        <time>2022-05-23 20:05:21</time>
      </trkpt>
      <trkpt lat="41.52314" lon="0.87456">
        <ele>374.2</ele>
        <time>2022-05-23 20:05:22</time>
      </trkpt>
      <trkpt lat="41.52311" lon="0.87454">
        <ele>374.2</ele>
        <time>2022-05-23 20:05:23</time>
      </trkpt>
      <trkpt lat="41.52307" lon="0.87452">
        <ele>374</ele>
        <time>2022-05-23 20:05:24</time>
      </trkpt>
      <trkpt lat="41.52304" lon="0.8745">
        <ele>374</ele>
        <time>2022-05-23 20:05:25</time>
      </trkpt>
      <trkpt lat="41.52301" lon="0.87448">
        <ele>373.8</ele>
        <time>2022-05-23 20:05:26</time>
      </trkpt>
      <trkpt lat="41.52295" lon="0.87445">
        <ele>373.6</ele>
        <time>2022-05-23 20:05:27</time>
      </trkpt>
      <trkpt lat="41.52291" lon="0.87443">
        <ele>373.4</ele>
        <time>2022-05-23 20:05:28</time>
      </trkpt>
      <trkpt lat="41.52286" lon="0.8744">
        <ele>373.2</ele>
        <time>2022-05-23 20:05:29</time>
      </trkpt>
      <trkpt lat="41.52281" lon="0.87437">
        <ele>372.8</ele>
        <time>2022-05-23 20:05:30</time>
      </trkpt>
      <trkpt lat="41.52276" lon="0.87433">
        <ele>372.6</ele>
        <time>2022-05-23 20:05:31</time>
      </trkpt>
      <trkpt lat="41.52271" lon="0.87429">
        <ele>372.4</ele>
        <time>2022-05-23 20:05:32</time>
      </trkpt>
      <trkpt lat="41.52268" lon="0.87423">
        <ele>372</ele>
        <time>2022-05-23 20:05:33</time>
      </trkpt>
      <trkpt lat="41.52268" lon="0.87416">
        <ele>371.8</ele>
        <time>2022-05-23 20:05:34</time>
      </trkpt>
      <trkpt lat="41.52271" lon="0.8741">
        <ele>371.4</ele>
        <time>2022-05-23 20:05:35</time>
      </trkpt>
      <trkpt lat="41.52274" lon="0.87403">
        <ele>371</ele>
        <time>2022-05-23 20:05:36</time>
      </trkpt>
      <trkpt lat="41.52278" lon="0.87396">
        <ele>370.6</ele>
        <time>2022-05-23 20:05:37</time>
      </trkpt>
      <trkpt lat="41.52281" lon="0.87388">
        <ele>370.2</ele>
        <time>2022-05-23 20:05:38</time>
      </trkpt>
      <trkpt lat="41.52283" lon="0.8738">
        <ele>369.8</ele>
        <time>2022-05-23 20:05:39</time>
      </trkpt>
      <trkpt lat="41.52284" lon="0.87371">
        <ele>369.6</ele>
        <time>2022-05-23 20:05:40</time>
      </trkpt>
      <trkpt lat="41.52284" lon="0.87364">
        <ele>369.6</ele>
        <time>2022-05-23 20:05:41</time>
      </trkpt>
      <trkpt lat="41.52285" lon="0.87356">
        <ele>369.6</ele>
        <time>2022-05-23 20:05:42</time>
      </trkpt>
      <trkpt lat="41.52285" lon="0.87349">
        <ele>369.6</ele>
        <time>2022-05-23 20:05:43</time>
      </trkpt>
      <trkpt lat="41.52285" lon="0.87342">
        <ele>369.8</ele>
        <time>2022-05-23 20:05:44</time>
      </trkpt>
      <trkpt lat="41.52286" lon="0.87336">
        <ele>370</ele>
        <time>2022-05-23 20:05:45</time>
      </trkpt>
      <trkpt lat="41.52285" lon="0.8733">
        <ele>370</ele>
        <time>2022-05-23 20:05:46</time>
      </trkpt>
      <trkpt lat="41.52285" lon="0.87325">
        <ele>370.2</ele>
        <time>2022-05-23 20:05:47</time>
      </trkpt>
      <trkpt lat="41.52285" lon="0.87321">
        <ele>370.4</ele>
        <time>2022-05-23 20:05:48</time>
      </trkpt>
      <trkpt lat="41.52284" lon="0.87316">
        <ele>370.4</ele>
        <time>2022-05-23 20:05:49</time>
      </trkpt>
      <trkpt lat="41.52283" lon="0.87312">
        <ele>370.6</ele>
        <time>2022-05-23 20:05:50</time>
      </trkpt>
      <trkpt lat="41.52283" lon="0.87308">
        <ele>370.8</ele>
        <time>2022-05-23 20:05:51</time>
      </trkpt>
      <trkpt lat="41.52283" lon="0.87304">
        <ele>371</ele>
        <time>2022-05-23 20:05:52</time>
      </trkpt>
      <trkpt lat="41.52282" lon="0.873">
        <ele>371.2</ele>
        <time>2022-05-23 20:05:53</time>
      </trkpt>
      <trkpt lat="41.52281" lon="0.87296">
        <ele>371.2</ele>
        <time>2022-05-23 20:05:54</time>
      </trkpt>
      <trkpt lat="41.5228" lon="0.87291">
        <ele>371.4</ele>
        <time>2022-05-23 20:05:55</time>
      </trkpt>
      <trkpt lat="41.5228" lon="0.87286">
        <ele>371.6</ele>
        <time>2022-05-23 20:05:56</time>
      </trkpt>
      <trkpt lat="41.52278" lon="0.87283">
        <ele>371.8</ele>
        <time>2022-05-23 20:05:57</time>
      </trkpt>
      <trkpt lat="41.52276" lon="0.87279">
        <ele>371.8</ele>
        <time>2022-05-23 20:05:58</time>
      </trkpt>
      <trkpt lat="41.52275" lon="0.87275">
        <ele>372</ele>
        <time>2022-05-23 20:05:59</time>
      </trkpt>
      <trkpt lat="41.52274" lon="0.87271">
        <ele>372.2</ele>
        <time>2022-05-23 20:06:00</time>
      </trkpt>
      <trkpt lat="41.52272" lon="0.87266">
        <ele>372.4</ele>
        <time>2022-05-23 20:06:01</time>
      </trkpt>
      <trkpt lat="41.5227" lon="0.87262">
        <ele>372.4</ele>
        <time>2022-05-23 20:06:02</time>
      </trkpt>
      <trkpt lat="41.52269" lon="0.87258">
        <ele>372.6</ele>
        <time>2022-05-23 20:06:03</time>
      </trkpt>
      <trkpt lat="41.52268" lon="0.87254">
        <ele>372.8</ele>
        <time>2022-05-23 20:06:04</time>
      </trkpt>
      <trkpt lat="41.52267" lon="0.87251">
        <ele>373</ele>
        <time>2022-05-23 20:06:05</time>
      </trkpt>
      <trkpt lat="41.52266" lon="0.87248">
        <ele>373.2</ele>
        <time>2022-05-23 20:06:06</time>
      </trkpt>
      <trkpt lat="41.52265" lon="0.87246">
        <ele>373.4</ele>
        <time>2022-05-23 20:06:07</time>
      </trkpt>
      <trkpt lat="41.52263" lon="0.87243">
        <ele>373.4</ele>
        <time>2022-05-23 20:06:08</time>
      </trkpt>
      <trkpt lat="41.52262" lon="0.87241">
        <ele>373.6</ele>
        <time>2022-05-23 20:06:09</time>
      </trkpt>
      <trkpt lat="41.52262" lon="0.87238">
        <ele>373.8</ele>
        <time>2022-05-23 20:06:10</time>
      </trkpt>
      <trkpt lat="41.52261" lon="0.87236">
        <ele>374</ele>
        <time>2022-05-23 20:06:11</time>
      </trkpt>
      <trkpt lat="41.52261" lon="0.87233">
        <ele>374.2</ele>
        <time>2022-05-23 20:06:12</time>
      </trkpt>
      <trkpt lat="41.5226" lon="0.87231">
        <ele>374.2</ele>
        <time>2022-05-23 20:06:13</time>
      </trkpt>
      <trkpt lat="41.52259" lon="0.87228">
        <ele>374.4</ele>
        <time>2022-05-23 20:06:14</time>
      </trkpt>
      <trkpt lat="41.52259" lon="0.87225">
        <ele>374.6</ele>
        <time>2022-05-23 20:06:15</time>
      </trkpt>
      <trkpt lat="41.52258" lon="0.87223">
        <ele>374.6</ele>
        <time>2022-05-23 20:06:16</time>
      </trkpt>
      <trkpt lat="41.52258" lon="0.8722">
        <ele>374.8</ele>
        <time>2022-05-23 20:06:17</time>
      </trkpt>
      <trkpt lat="41.52257" lon="0.87218">
        <ele>374.8</ele>
        <time>2022-05-23 20:06:18</time>
      </trkpt>
      <trkpt lat="41.52256" lon="0.87215">
        <ele>375</ele>
        <time>2022-05-23 20:06:19</time>
      </trkpt>
      <trkpt lat="41.52256" lon="0.87213">
        <ele>375.2</ele>
        <time>2022-05-23 20:06:20</time>
      </trkpt>
      <trkpt lat="41.52255" lon="0.87211">
        <ele>375.2</ele>
        <time>2022-05-23 20:06:21</time>
      </trkpt>
      <trkpt lat="41.52254" lon="0.87209">
        <ele>375.4</ele>
        <time>2022-05-23 20:06:22</time>
      </trkpt>
      <trkpt lat="41.52253" lon="0.87207">
        <ele>375.4</ele>
        <time>2022-05-23 20:06:23</time>
      </trkpt>
      <trkpt lat="41.52253" lon="0.87204">
        <ele>375.6</ele>
        <time>2022-05-23 20:06:24</time>
      </trkpt>
      <trkpt lat="41.52252" lon="0.87202">
        <ele>375.8</ele>
        <time>2022-05-23 20:06:25</time>
      </trkpt>
      <trkpt lat="41.52251" lon="0.872">
        <ele>375.8</ele>
        <time>2022-05-23 20:06:26</time>
      </trkpt>
      <trkpt lat="41.52251" lon="0.87197">
        <ele>376</ele>
        <time>2022-05-23 20:06:27</time>
      </trkpt>
      <trkpt lat="41.5225" lon="0.87195">
        <ele>376.2</ele>
        <time>2022-05-23 20:06:28</time>
      </trkpt>
      <trkpt lat="41.5225" lon="0.87192">
        <ele>376.2</ele>
        <time>2022-05-23 20:06:29</time>
      </trkpt>
      <trkpt lat="41.52249" lon="0.8719">
        <ele>376.4</ele>
        <time>2022-05-23 20:06:30</time>
      </trkpt>
      <trkpt lat="41.52248" lon="0.87187">
        <ele>376.4</ele>
        <time>2022-05-23 20:06:31</time>
      </trkpt>
      <trkpt lat="41.52248" lon="0.87185">
        <ele>376.6</ele>
        <time>2022-05-23 20:06:32</time>
      </trkpt>
      <trkpt lat="41.52247" lon="0.87183">
        <ele>376.8</ele>
        <time>2022-05-23 20:06:33</time>
      </trkpt>
      <trkpt lat="41.52246" lon="0.8718">
        <ele>376.8</ele>
        <time>2022-05-23 20:06:34</time>
      </trkpt>
      <trkpt lat="41.52246" lon="0.87178">
        <ele>377</ele>
        <time>2022-05-23 20:06:35</time>
      </trkpt>
      <trkpt lat="41.52246" lon="0.87176">
        <ele>377.2</ele>
        <time>2022-05-23 20:06:36</time>
      </trkpt>
      <trkpt lat="41.52245" lon="0.87173">
        <ele>377.2</ele>
        <time>2022-05-23 20:06:37</time>
      </trkpt>
      <trkpt lat="41.52245" lon="0.87171">
        <ele>377.4</ele>
        <time>2022-05-23 20:06:38</time>
      </trkpt>
      <trkpt lat="41.52245" lon="0.87168">
        <ele>377.4</ele>
        <time>2022-05-23 20:06:39</time>
      </trkpt>
      <trkpt lat="41.52244" lon="0.87166">
        <ele>377.6</ele>
        <time>2022-05-23 20:06:40</time>
      </trkpt>
      <trkpt lat="41.52244" lon="0.87164">
        <ele>377.6</ele>
        <time>2022-05-23 20:06:41</time>
      </trkpt>
      <trkpt lat="41.52243" lon="0.8716">
        <ele>378</ele>
        <time>2022-05-23 20:06:42</time>
      </trkpt>
      <trkpt lat="41.52242" lon="0.87157">
        <ele>378</ele>
        <time>2022-05-23 20:06:43</time>
      </trkpt>
      <trkpt lat="41.52242" lon="0.87155">
        <ele>378.2</ele>
        <time>2022-05-23 20:06:44</time>
      </trkpt>
      <trkpt lat="41.52241" lon="0.87153">
        <ele>378.4</ele>
        <time>2022-05-23 20:06:45</time>
      </trkpt>
      <trkpt lat="41.5224" lon="0.8715">
        <ele>378.4</ele>
        <time>2022-05-23 20:06:46</time>
      </trkpt>
      <trkpt lat="41.52239" lon="0.87147">
        <ele>378.6</ele>
        <time>2022-05-23 20:06:47</time>
      </trkpt>
      <trkpt lat="41.52239" lon="0.87144">
        <ele>378.6</ele>
        <time>2022-05-23 20:06:48</time>
      </trkpt>
      <trkpt lat="41.52238" lon="0.87141">
        <ele>378.8</ele>
        <time>2022-05-23 20:06:49</time>
      </trkpt>
      <trkpt lat="41.52238" lon="0.87139">
        <ele>379</ele>
        <time>2022-05-23 20:06:50</time>
      </trkpt>
      <trkpt lat="41.52238" lon="0.87137">
        <ele>379</ele>
        <time>2022-05-23 20:06:51</time>
      </trkpt>
      <trkpt lat="41.52237" lon="0.87135">
        <ele>379.2</ele>
        <time>2022-05-23 20:06:52</time>
      </trkpt>
      <trkpt lat="41.52236" lon="0.87132">
        <ele>379.4</ele>
        <time>2022-05-23 20:06:53</time>
      </trkpt>
      <trkpt lat="41.52235" lon="0.8713">
        <ele>379.4</ele>
        <time>2022-05-23 20:06:54</time>
      </trkpt>
      <trkpt lat="41.52234" lon="0.87127">
        <ele>379.6</ele>
        <time>2022-05-23 20:06:55</time>
      </trkpt>
      <trkpt lat="41.52234" lon="0.87125">
        <ele>379.8</ele>
        <time>2022-05-23 20:06:56</time>
      </trkpt>
      <trkpt lat="41.52233" lon="0.87122">
        <ele>379.8</ele>
        <time>2022-05-23 20:06:57</time>
      </trkpt>
      <trkpt lat="41.52232" lon="0.8712">
        <ele>380</ele>
        <time>2022-05-23 20:06:58</time>
      </trkpt>
      <trkpt lat="41.52232" lon="0.87117">
        <ele>380.2</ele>
        <time>2022-05-23 20:06:59</time>
      </trkpt>
      <trkpt lat="41.52231" lon="0.87115">
        <ele>380.2</ele>
        <time>2022-05-23 20:07:00</time>
      </trkpt>
      <trkpt lat="41.5223" lon="0.87112">
        <ele>380.4</ele>
        <time>2022-05-23 20:07:01</time>
      </trkpt>
      <trkpt lat="41.52229" lon="0.87109">
        <ele>380.6</ele>
        <time>2022-05-23 20:07:02</time>
      </trkpt>
      <trkpt lat="41.52229" lon="0.87107">
        <ele>380.6</ele>
        <time>2022-05-23 20:07:03</time>
      </trkpt>
      <trkpt lat="41.52228" lon="0.87105">
        <ele>380.8</ele>
        <time>2022-05-23 20:07:04</time>
      </trkpt>
      <trkpt lat="41.52227" lon="0.87102">
        <ele>381</ele>
        <time>2022-05-23 20:07:05</time>
      </trkpt>
      <trkpt lat="41.52226" lon="0.871">
        <ele>381</ele>
        <time>2022-05-23 20:07:06</time>
      </trkpt>
      <trkpt lat="41.52225" lon="0.87098">
        <ele>381.2</ele>
        <time>2022-05-23 20:07:07</time>
      </trkpt>
      <trkpt lat="41.52225" lon="0.87095">
        <ele>381.4</ele>
        <time>2022-05-23 20:07:08</time>
      </trkpt>
      <trkpt lat="41.52224" lon="0.87093">
        <ele>381.6</ele>
        <time>2022-05-23 20:07:09</time>
      </trkpt>
      <trkpt lat="41.52224" lon="0.8709">
        <ele>381.6</ele>
        <time>2022-05-23 20:07:10</time>
      </trkpt>
      <trkpt lat="41.52223" lon="0.87088">
        <ele>381.8</ele>
        <time>2022-05-23 20:07:11</time>
      </trkpt>
      <trkpt lat="41.52222" lon="0.87085">
        <ele>382</ele>
        <time>2022-05-23 20:07:12</time>
      </trkpt>
      <trkpt lat="41.52221" lon="0.87083">
        <ele>382</ele>
        <time>2022-05-23 20:07:13</time>
      </trkpt>
      <trkpt lat="41.5222" lon="0.87081">
        <ele>382.2</ele>
        <time>2022-05-23 20:07:14</time>
      </trkpt>
      <trkpt lat="41.5222" lon="0.87079">
        <ele>382.2</ele>
        <time>2022-05-23 20:07:15</time>
      </trkpt>
      <trkpt lat="41.52218" lon="0.87077">
        <ele>382.4</ele>
        <time>2022-05-23 20:07:16</time>
      </trkpt>
      <trkpt lat="41.52217" lon="0.87076">
        <ele>382.6</ele>
        <time>2022-05-23 20:07:17</time>
      </trkpt>
      <trkpt lat="41.52216" lon="0.87074">
        <ele>382.6</ele>
        <time>2022-05-23 20:07:18</time>
      </trkpt>
      <trkpt lat="41.52215" lon="0.87071">
        <ele>382.8</ele>
        <time>2022-05-23 20:07:19</time>
      </trkpt>
      <trkpt lat="41.52215" lon="0.87068">
        <ele>383</ele>
        <time>2022-05-23 20:07:20</time>
      </trkpt>
      <trkpt lat="41.52215" lon="0.87065">
        <ele>383</ele>
        <time>2022-05-23 20:07:21</time>
      </trkpt>
      <trkpt lat="41.52214" lon="0.87062">
        <ele>383.2</ele>
        <time>2022-05-23 20:07:22</time>
      </trkpt>
      <trkpt lat="41.52214" lon="0.87059">
        <ele>383.4</ele>
        <time>2022-05-23 20:07:23</time>
      </trkpt>
      <trkpt lat="41.52214" lon="0.87056">
        <ele>383.4</ele>
        <time>2022-05-23 20:07:24</time>
      </trkpt>
      <trkpt lat="41.52213" lon="0.87054">
        <ele>383.6</ele>
        <time>2022-05-23 20:07:25</time>
      </trkpt>
      <trkpt lat="41.52212" lon="0.87052">
        <ele>383.6</ele>
        <time>2022-05-23 20:07:26</time>
      </trkpt>
      <trkpt lat="41.52212" lon="0.87049">
        <ele>383.8</ele>
        <time>2022-05-23 20:07:27</time>
      </trkpt>
      <trkpt lat="41.52211" lon="0.87047">
        <ele>383.8</ele>
        <time>2022-05-23 20:07:28</time>
      </trkpt>
      <trkpt lat="41.52211" lon="0.87046">
        <ele>384</ele>
        <time>2022-05-23 20:07:29</time>
      </trkpt>
      <trkpt lat="41.52211" lon="0.87043">
        <ele>384</ele>
        <time>2022-05-23 20:07:30</time>
      </trkpt>
      <trkpt lat="41.52211" lon="0.87041">
        <ele>384.2</ele>
        <time>2022-05-23 20:07:31</time>
      </trkpt>
      <trkpt lat="41.52211" lon="0.87039">
        <ele>384.2</ele>
        <time>2022-05-23 20:07:32</time>
      </trkpt>
      <trkpt lat="41.5221" lon="0.87037">
        <ele>384.4</ele>
        <time>2022-05-23 20:07:33</time>
      </trkpt>
      <trkpt lat="41.5221" lon="0.87035">
        <ele>384.4</ele>
        <time>2022-05-23 20:07:34</time>
      </trkpt>
      <trkpt lat="41.5221" lon="0.87033">
        <ele>384.6</ele>
        <time>2022-05-23 20:07:35</time>
      </trkpt>
      <trkpt lat="41.5221" lon="0.87031">
        <ele>384.6</ele>
        <time>2022-05-23 20:07:36</time>
      </trkpt>
      <trkpt lat="41.5221" lon="0.87027">
        <ele>384.6</ele>
        <time>2022-05-23 20:07:37</time>
      </trkpt>
      <trkpt lat="41.5221" lon="0.87024">
        <ele>384.8</ele>
        <time>2022-05-23 20:07:38</time>
      </trkpt>
      <trkpt lat="41.52209" lon="0.8702">
        <ele>384.8</ele>
        <time>2022-05-23 20:07:39</time>
      </trkpt>
      <trkpt lat="41.52209" lon="0.87018">
        <ele>385</ele>
        <time>2022-05-23 20:07:40</time>
      </trkpt>
      <trkpt lat="41.52209" lon="0.87016">
        <ele>385</ele>
        <time>2022-05-23 20:07:41</time>
      </trkpt>
      <trkpt lat="41.52209" lon="0.87013">
        <ele>385.2</ele>
        <time>2022-05-23 20:07:42</time>
      </trkpt>
      <trkpt lat="41.52208" lon="0.8701">
        <ele>385.2</ele>
        <time>2022-05-23 20:07:43</time>
      </trkpt>
      <trkpt lat="41.52206" lon="0.87005">
        <ele>385.4</ele>
        <time>2022-05-23 20:07:44</time>
      </trkpt>
      <trkpt lat="41.52204" lon="0.87002">
        <ele>385.4</ele>
        <time>2022-05-23 20:07:45</time>
      </trkpt>
      <trkpt lat="41.52201" lon="0.86998">
        <ele>385.6</ele>
        <time>2022-05-23 20:07:46</time>
      </trkpt>
      <trkpt lat="41.52199" lon="0.86995">
        <ele>385.6</ele>
        <time>2022-05-23 20:07:47</time>
      </trkpt>
      <trkpt lat="41.52197" lon="0.86992">
        <ele>385.6</ele>
        <time>2022-05-23 20:07:48</time>
      </trkpt>
      <trkpt lat="41.52196" lon="0.8699">
        <ele>385.8</ele>
        <time>2022-05-23 20:07:49</time>
      </trkpt>
      <trkpt lat="41.52195" lon="0.86987">
        <ele>385.8</ele>
        <time>2022-05-23 20:07:50</time>
      </trkpt>
      <trkpt lat="41.52194" lon="0.86984">
        <ele>386</ele>
        <time>2022-05-23 20:07:51</time>
      </trkpt>
      <trkpt lat="41.52192" lon="0.86982">
        <ele>386</ele>
        <time>2022-05-23 20:07:52</time>
      </trkpt>
      <trkpt lat="41.52191" lon="0.86978">
        <ele>386</ele>
        <time>2022-05-23 20:07:53</time>
      </trkpt>
      <trkpt lat="41.52188" lon="0.86975">
        <ele>386</ele>
        <time>2022-05-23 20:07:54</time>
      </trkpt>
      <trkpt lat="41.52185" lon="0.86971">
        <ele>386.2</ele>
        <time>2022-05-23 20:07:55</time>
      </trkpt>
      <trkpt lat="41.52183" lon="0.86969">
        <ele>386.2</ele>
        <time>2022-05-23 20:07:56</time>
      </trkpt>
      <trkpt lat="41.52181" lon="0.86966">
        <ele>386.2</ele>
        <time>2022-05-23 20:07:57</time>
      </trkpt>
      <trkpt lat="41.52179" lon="0.86965">
        <ele>386.4</ele>
        <time>2022-05-23 20:07:58</time>
      </trkpt>
      <trkpt lat="41.52176" lon="0.86963">
        <ele>386.4</ele>
        <time>2022-05-23 20:07:59</time>
      </trkpt>
      <trkpt lat="41.52174" lon="0.86961">
        <ele>386.4</ele>
        <time>2022-05-23 20:08:00</time>
      </trkpt>
      <trkpt lat="41.5217" lon="0.86958">
        <ele>386.4</ele>
        <time>2022-05-23 20:08:01</time>
      </trkpt>
      <trkpt lat="41.52168" lon="0.86957">
        <ele>386.6</ele>
        <time>2022-05-23 20:08:02</time>
      </trkpt>
      <trkpt lat="41.52164" lon="0.86955">
        <ele>386.4</ele>
        <time>2022-05-23 20:08:03</time>
      </trkpt>
      <trkpt lat="41.52161" lon="0.86953">
        <ele>386.4</ele>
        <time>2022-05-23 20:08:04</time>
      </trkpt>
      <trkpt lat="41.52157" lon="0.86952">
        <ele>386.2</ele>
        <time>2022-05-23 20:08:05</time>
      </trkpt>
      <trkpt lat="41.52154" lon="0.86951">
        <ele>386</ele>
        <time>2022-05-23 20:08:06</time>
      </trkpt>
      <trkpt lat="41.52149" lon="0.86949">
        <ele>385.8</ele>
        <time>2022-05-23 20:08:07</time>
      </trkpt>
      <trkpt lat="41.52145" lon="0.86947">
        <ele>385.4</ele>
        <time>2022-05-23 20:08:08</time>
      </trkpt>
      <trkpt lat="41.52139" lon="0.86945">
        <ele>385.2</ele>
        <time>2022-05-23 20:08:09</time>
      </trkpt>
      <trkpt lat="41.52134" lon="0.86943">
        <ele>384.8</ele>
        <time>2022-05-23 20:08:10</time>
      </trkpt>
      <trkpt lat="41.52128" lon="0.86941">
        <ele>384.4</ele>
        <time>2022-05-23 20:08:11</time>
      </trkpt>
      <trkpt lat="41.52122" lon="0.86939">
        <ele>384.2</ele>
        <time>2022-05-23 20:08:12</time>
      </trkpt>
      <trkpt lat="41.52116" lon="0.86937">
        <ele>383.8</ele>
        <time>2022-05-23 20:08:13</time>
      </trkpt>
      <trkpt lat="41.52111" lon="0.86936">
        <ele>383.6</ele>
        <time>2022-05-23 20:08:14</time>
      </trkpt>
      <trkpt lat="41.52106" lon="0.86934">
        <ele>383.2</ele>
        <time>2022-05-23 20:08:15</time>
      </trkpt>
      <trkpt lat="41.52102" lon="0.86933">
        <ele>383</ele>
        <time>2022-05-23 20:08:16</time>
      </trkpt>
      <trkpt lat="41.52099" lon="0.86932">
        <ele>382.8</ele>
        <time>2022-05-23 20:08:17</time>
      </trkpt>
      <trkpt lat="41.52095" lon="0.86931">
        <ele>382.4</ele>
        <time>2022-05-23 20:08:18</time>
      </trkpt>
      <trkpt lat="41.52093" lon="0.8693">
        <ele>382.4</ele>
        <time>2022-05-23 20:08:19</time>
      </trkpt>
      <trkpt lat="41.5209" lon="0.8693">
        <ele>382.2</ele>
        <time>2022-05-23 20:08:20</time>
      </trkpt>
      <trkpt lat="41.52089" lon="0.8693">
        <ele>382</ele>
        <time>2022-05-23 20:08:21</time>
      </trkpt>
      <trkpt lat="41.52088" lon="0.8693">
        <ele>382</ele>
        <time>2022-05-23 20:08:22</time>
      </trkpt>
      <trkpt lat="41.52087" lon="0.8693">
        <ele>381.8</ele>
        <time>2022-05-23 20:08:23</time>
      </trkpt>
      <trkpt lat="41.52087" lon="0.8693">
        <ele>381.8</ele>
        <time>2022-05-23 20:08:24</time>
      </trkpt>
      <trkpt lat="41.52087" lon="0.8693">
        <ele>381.8</ele>
        <time>2022-05-23 20:08:25</time>
      </trkpt>
      <trkpt lat="41.52087" lon="0.8693">
        <ele>381.8</ele>
        <time>2022-05-23 20:08:26</time>
      </trkpt>
      <trkpt lat="41.52084" lon="0.86929">
        <ele>381.6</ele>
        <time>2022-05-23 20:08:27</time>
      </trkpt>
      <trkpt lat="41.52082" lon="0.86929">
        <ele>381.4</ele>
        <time>2022-05-23 20:08:28</time>
      </trkpt>
      <trkpt lat="41.5208" lon="0.86927">
        <ele>381.4</ele>
        <time>2022-05-23 20:08:29</time>
      </trkpt>
      <trkpt lat="41.52077" lon="0.86926">
        <ele>381.2</ele>
        <time>2022-05-23 20:08:30</time>
      </trkpt>
      <trkpt lat="41.52073" lon="0.86925">
        <ele>381</ele>
        <time>2022-05-23 20:08:31</time>
      </trkpt>
      <trkpt lat="41.52069" lon="0.86923">
        <ele>380.8</ele>
        <time>2022-05-23 20:08:32</time>
      </trkpt>
      <trkpt lat="41.52064" lon="0.86922">
        <ele>380.6</ele>
        <time>2022-05-23 20:08:33</time>
      </trkpt>
      <trkpt lat="41.5206" lon="0.8692">
        <ele>380.4</ele>
        <time>2022-05-23 20:08:34</time>
      </trkpt>
      <trkpt lat="41.52056" lon="0.8692">
        <ele>380.2</ele>
        <time>2022-05-23 20:08:35</time>
      </trkpt>
      <trkpt lat="41.52052" lon="0.86918">
        <ele>380</ele>
        <time>2022-05-23 20:08:36</time>
      </trkpt>
      <trkpt lat="41.52048" lon="0.86916">
        <ele>379.8</ele>
        <time>2022-05-23 20:08:37</time>
      </trkpt>
      <trkpt lat="41.52044" lon="0.86912">
        <ele>379.6</ele>
        <time>2022-05-23 20:08:38</time>
      </trkpt>
      <trkpt lat="41.52039" lon="0.86909">
        <ele>379.2</ele>
        <time>2022-05-23 20:08:39</time>
      </trkpt>
      <trkpt lat="41.52035" lon="0.86905">
        <ele>379</ele>
        <time>2022-05-23 20:08:40</time>
      </trkpt>
      <trkpt lat="41.52031" lon="0.869">
        <ele>378.8</ele>
        <time>2022-05-23 20:08:41</time>
      </trkpt>
      <trkpt lat="41.52028" lon="0.86895">
        <ele>378.6</ele>
        <time>2022-05-23 20:08:42</time>
      </trkpt>
      <trkpt lat="41.52025" lon="0.86891">
        <ele>378.4</ele>
        <time>2022-05-23 20:08:43</time>
      </trkpt>
      <trkpt lat="41.52021" lon="0.86887">
        <ele>378.2</ele>
        <time>2022-05-23 20:08:44</time>
      </trkpt>
      <trkpt lat="41.52017" lon="0.86882">
        <ele>377.8</ele>
        <time>2022-05-23 20:08:45</time>
      </trkpt>
      <trkpt lat="41.52014" lon="0.86877">
        <ele>377.6</ele>
        <time>2022-05-23 20:08:46</time>
      </trkpt>
      <trkpt lat="41.52011" lon="0.86871">
        <ele>377.4</ele>
        <time>2022-05-23 20:08:47</time>
      </trkpt>
      <trkpt lat="41.52008" lon="0.86866">
        <ele>377.2</ele>
        <time>2022-05-23 20:08:48</time>
      </trkpt>
      <trkpt lat="41.52004" lon="0.86861">
        <ele>377</ele>
        <time>2022-05-23 20:08:49</time>
      </trkpt>
      <trkpt lat="41.52001" lon="0.86855">
        <ele>376.8</ele>
        <time>2022-05-23 20:08:50</time>
      </trkpt>
      <trkpt lat="41.51998" lon="0.86848">
        <ele>376.4</ele>
        <time>2022-05-23 20:08:51</time>
      </trkpt>
      <trkpt lat="41.51995" lon="0.86842">
        <ele>376.4</ele>
        <time>2022-05-23 20:08:52</time>
      </trkpt>
      <trkpt lat="41.51992" lon="0.86836">
        <ele>376.2</ele>
        <time>2022-05-23 20:08:53</time>
      </trkpt>
      <trkpt lat="41.51988" lon="0.86831">
        <ele>376</ele>
        <time>2022-05-23 20:08:54</time>
      </trkpt>
      <trkpt lat="41.51983" lon="0.86826">
        <ele>375.8</ele>
        <time>2022-05-23 20:08:55</time>
      </trkpt>
      <trkpt lat="41.51978" lon="0.86823">
        <ele>375.8</ele>
        <time>2022-05-23 20:08:56</time>
      </trkpt>
      <trkpt lat="41.51973" lon="0.8682">
        <ele>375.6</ele>
        <time>2022-05-23 20:08:57</time>
      </trkpt>
      <trkpt lat="41.51968" lon="0.86817">
        <ele>375.6</ele>
        <time>2022-05-23 20:08:58</time>
      </trkpt>
      <trkpt lat="41.51963" lon="0.86814">
        <ele>375.4</ele>
        <time>2022-05-23 20:08:59</time>
      </trkpt>
      <trkpt lat="41.51957" lon="0.86811">
        <ele>375.4</ele>
        <time>2022-05-23 20:09:00</time>
      </trkpt>
      <trkpt lat="41.51952" lon="0.86809">
        <ele>375.2</ele>
        <time>2022-05-23 20:09:01</time>
      </trkpt>
      <trkpt lat="41.51946" lon="0.86808">
        <ele>375.2</ele>
        <time>2022-05-23 20:09:02</time>
      </trkpt>
      <trkpt lat="41.5194" lon="0.86807">
        <ele>375</ele>
        <time>2022-05-23 20:09:03</time>
      </trkpt>
      <trkpt lat="41.51935" lon="0.86807">
        <ele>375</ele>
        <time>2022-05-23 20:09:04</time>
      </trkpt>
      <trkpt lat="41.5193" lon="0.86807">
        <ele>374.8</ele>
        <time>2022-05-23 20:09:05</time>
      </trkpt>
      <trkpt lat="41.51924" lon="0.86806">
        <ele>374.8</ele>
        <time>2022-05-23 20:09:06</time>
      </trkpt>
      <trkpt lat="41.51919" lon="0.86806">
        <ele>374.6</ele>
        <time>2022-05-23 20:09:07</time>
      </trkpt>
      <trkpt lat="41.51914" lon="0.86805">
        <ele>374.6</ele>
        <time>2022-05-23 20:09:08</time>
      </trkpt>
      <trkpt lat="41.51909" lon="0.86804">
        <ele>374.6</ele>
        <time>2022-05-23 20:09:09</time>
      </trkpt>
      <trkpt lat="41.51904" lon="0.86804">
        <ele>374.6</ele>
        <time>2022-05-23 20:09:10</time>
      </trkpt>
      <trkpt lat="41.51899" lon="0.86804">
        <ele>374.6</ele>
        <time>2022-05-23 20:09:11</time>
      </trkpt>
      <trkpt lat="41.51894" lon="0.86803">
        <ele>374.6</ele>
        <time>2022-05-23 20:09:12</time>
      </trkpt>
      <trkpt lat="41.51889" lon="0.86802">
        <ele>374.6</ele>
        <time>2022-05-23 20:09:13</time>
      </trkpt>
      <trkpt lat="41.51885" lon="0.86801">
        <ele>374.6</ele>
        <time>2022-05-23 20:09:14</time>
      </trkpt>
      <trkpt lat="41.5188" lon="0.86801">
        <ele>374.6</ele>
        <time>2022-05-23 20:09:15</time>
      </trkpt>
      <trkpt lat="41.51876" lon="0.86801">
        <ele>374.6</ele>
        <time>2022-05-23 20:09:16</time>
      </trkpt>
      <trkpt lat="41.51871" lon="0.868">
        <ele>374.6</ele>
        <time>2022-05-23 20:09:17</time>
      </trkpt>
      <trkpt lat="41.51867" lon="0.86799">
        <ele>374.6</ele>
        <time>2022-05-23 20:09:18</time>
      </trkpt>
      <trkpt lat="41.51862" lon="0.86799">
        <ele>374.6</ele>
        <time>2022-05-23 20:09:19</time>
      </trkpt>
      <trkpt lat="41.51858" lon="0.86798">
        <ele>374.6</ele>
        <time>2022-05-23 20:09:20</time>
      </trkpt>
      <trkpt lat="41.51854" lon="0.86799">
        <ele>374.4</ele>
        <time>2022-05-23 20:09:21</time>
      </trkpt>
      <trkpt lat="41.5185" lon="0.868">
        <ele>374.4</ele>
        <time>2022-05-23 20:09:22</time>
      </trkpt>
      <trkpt lat="41.51847" lon="0.86801">
        <ele>374.6</ele>
        <time>2022-05-23 20:09:23</time>
      </trkpt>
      <trkpt lat="41.51844" lon="0.86804">
        <ele>374.8</ele>
        <time>2022-05-23 20:10:00</time>
      </trkpt>
      <trkpt lat="41.51841" lon="0.86807">
        <ele>374.8</ele>
        <time>2022-05-23 20:10:01</time>
      </trkpt>
      <trkpt lat="41.51838" lon="0.86811">
        <ele>374.8</ele>
        <time>2022-05-23 20:10:02</time>
      </trkpt>
      <trkpt lat="41.51835" lon="0.86814">
        <ele>375</ele>
        <time>2022-05-23 20:10:03</time>
      </trkpt>
      <trkpt lat="41.51832" lon="0.86818">
        <ele>375</ele>
        <time>2022-05-23 20:10:04</time>
      </trkpt>
      <trkpt lat="41.51829" lon="0.86822">
        <ele>375</ele>
        <time>2022-05-23 20:10:05</time>
      </trkpt>
      <trkpt lat="41.51826" lon="0.86826">
        <ele>375</ele>
        <time>2022-05-23 20:10:06</time>
      </trkpt>
      <trkpt lat="41.51823" lon="0.8683">
        <ele>375.2</ele>
        <time>2022-05-23 20:10:07</time>
      </trkpt>
      <trkpt lat="41.5182" lon="0.86833">
        <ele>375.2</ele>
        <time>2022-05-23 20:10:08</time>
      </trkpt>
      <trkpt lat="41.51817" lon="0.86836">
        <ele>375.2</ele>
        <time>2022-05-23 20:10:09</time>
      </trkpt>
      <trkpt lat="41.51814" lon="0.86838">
        <ele>375.4</ele>
        <time>2022-05-23 20:10:10</time>
      </trkpt>
      <trkpt lat="41.51811" lon="0.86841">
        <ele>375.4</ele>
        <time>2022-05-23 20:10:11</time>
      </trkpt>
      <trkpt lat="41.51807" lon="0.86844">
        <ele>375.4</ele>
        <time>2022-05-23 20:10:12</time>
      </trkpt>
      <trkpt lat="41.51803" lon="0.86847">
        <ele>375.4</ele>
        <time>2022-05-23 20:10:13</time>
      </trkpt>
      <trkpt lat="41.518" lon="0.86849">
        <ele>375.6</ele>
        <time>2022-05-23 20:10:14</time>
      </trkpt>
      <trkpt lat="41.51796" lon="0.86852">
        <ele>375.6</ele>
        <time>2022-05-23 20:10:15</time>
      </trkpt>
      <trkpt lat="41.51792" lon="0.86855">
        <ele>375.6</ele>
        <time>2022-05-23 20:10:16</time>
      </trkpt>
      <trkpt lat="41.51788" lon="0.86857">
        <ele>375.6</ele>
        <time>2022-05-23 20:10:17</time>
      </trkpt>
      <trkpt lat="41.51784" lon="0.86859">
        <ele>375.6</ele>
        <time>2022-05-23 20:10:18</time>
      </trkpt>
      <trkpt lat="41.51781" lon="0.86861">
        <ele>375.6</ele>
        <time>2022-05-23 20:10:19</time>
      </trkpt>
      <trkpt lat="41.51777" lon="0.86864">
        <ele>375.6</ele>
        <time>2022-05-23 20:10:20</time>
      </trkpt>
      <trkpt lat="41.51774" lon="0.86867">
        <ele>375.6</ele>
        <time>2022-05-23 20:10:21</time>
      </trkpt>
      <trkpt lat="41.5177" lon="0.8687">
        <ele>375.6</ele>
        <time>2022-05-23 20:10:22</time>
      </trkpt>
      <trkpt lat="41.51766" lon="0.86873">
        <ele>375.6</ele>
        <time>2022-05-23 20:10:23</time>
      </trkpt>
      <trkpt lat="41.51763" lon="0.86877">
        <ele>375.6</ele>
        <time>2022-05-23 20:10:24</time>
      </trkpt>
      <trkpt lat="41.51761" lon="0.8688">
        <ele>375.6</ele>
        <time>2022-05-23 20:10:25</time>
      </trkpt>
      <trkpt lat="41.51757" lon="0.86886">
        <ele>375.8</ele>
        <time>2022-05-23 20:10:26</time>
      </trkpt>
      <trkpt lat="41.51753" lon="0.86889">
        <ele>375.8</ele>
        <time>2022-05-23 20:10:27</time>
      </trkpt>
      <trkpt lat="41.5175" lon="0.86893">
        <ele>375.8</ele>
        <time>2022-05-23 20:10:28</time>
      </trkpt>
      <trkpt lat="41.51746" lon="0.86896">
        <ele>375.8</ele>
        <time>2022-05-23 20:10:29</time>
      </trkpt>
      <trkpt lat="41.51742" lon="0.869">
        <ele>375.8</ele>
        <time>2022-05-23 20:10:30</time>
      </trkpt>
      <trkpt lat="41.51738" lon="0.86904">
        <ele>375.8</ele>
        <time>2022-05-23 20:10:31</time>
      </trkpt>
      <trkpt lat="41.51734" lon="0.86907">
        <ele>375.8</ele>
        <time>2022-05-23 20:10:32</time>
      </trkpt>
      <trkpt lat="41.51729" lon="0.8691">
        <ele>375.8</ele>
        <time>2022-05-23 20:10:33</time>
      </trkpt>
      <trkpt lat="41.51726" lon="0.86913">
        <ele>375.8</ele>
        <time>2022-05-23 20:10:34</time>
      </trkpt>
      <trkpt lat="41.51721" lon="0.86916">
        <ele>375.8</ele>
        <time>2022-05-23 20:10:35</time>
      </trkpt>
      <trkpt lat="41.51716" lon="0.86919">
        <ele>375.8</ele>
        <time>2022-05-23 20:10:36</time>
      </trkpt>
      <trkpt lat="41.51711" lon="0.86922">
        <ele>375.8</ele>
        <time>2022-05-23 20:10:37</time>
      </trkpt>
      <trkpt lat="41.51707" lon="0.86924">
        <ele>375.8</ele>
        <time>2022-05-23 20:10:38</time>
      </trkpt>
      <trkpt lat="41.51702" lon="0.86927">
        <ele>375.8</ele>
        <time>2022-05-23 20:10:39</time>
      </trkpt>
      <trkpt lat="41.51698" lon="0.8693">
        <ele>375.8</ele>
        <time>2022-05-23 20:10:40</time>
      </trkpt>
      <trkpt lat="41.51694" lon="0.86932">
        <ele>375.8</ele>
        <time>2022-05-23 20:10:41</time>
      </trkpt>
      <trkpt lat="41.5169" lon="0.86935">
        <ele>375.8</ele>
        <time>2022-05-23 20:10:42</time>
      </trkpt>
      <trkpt lat="41.51686" lon="0.86937">
        <ele>375.8</ele>
        <time>2022-05-23 20:10:43</time>
      </trkpt>
      <trkpt lat="41.51682" lon="0.8694">
        <ele>375.8</ele>
        <time>2022-05-23 20:10:44</time>
      </trkpt>
      <trkpt lat="41.51677" lon="0.86942">
        <ele>376</ele>
        <time>2022-05-23 20:10:45</time>
      </trkpt>
      <trkpt lat="41.51673" lon="0.86945">
        <ele>376</ele>
        <time>2022-05-23 20:10:46</time>
      </trkpt>
      <trkpt lat="41.5167" lon="0.86947">
        <ele>376</ele>
        <time>2022-05-23 20:10:47</time>
      </trkpt>
      <trkpt lat="41.51666" lon="0.8695">
        <ele>376</ele>
        <time>2022-05-23 20:10:48</time>
      </trkpt>
      <trkpt lat="41.51662" lon="0.86952">
        <ele>376.2</ele>
        <time>2022-05-23 20:10:49</time>
      </trkpt>
      <trkpt lat="41.51658" lon="0.86954">
        <ele>376.2</ele>
        <time>2022-05-23 20:10:50</time>
      </trkpt>
      <trkpt lat="41.51653" lon="0.86956">
        <ele>376.2</ele>
        <time>2022-05-23 20:10:51</time>
      </trkpt>
      <trkpt lat="41.51649" lon="0.86958">
        <ele>376</ele>
        <time>2022-05-23 20:10:52</time>
      </trkpt>
      <trkpt lat="41.51644" lon="0.8696">
        <ele>376</ele>
        <time>2022-05-23 20:10:53</time>
      </trkpt>
      <trkpt lat="41.5164" lon="0.86962">
        <ele>376</ele>
        <time>2022-05-23 20:10:54</time>
      </trkpt>
      <trkpt lat="41.51636" lon="0.86964">
        <ele>376.2</ele>
        <time>2022-05-23 20:10:55</time>
      </trkpt>
      <trkpt lat="41.51632" lon="0.86966">
        <ele>376.2</ele>
        <time>2022-05-23 20:10:56</time>
      </trkpt>
      <trkpt lat="41.51628" lon="0.86969">
        <ele>376.2</ele>
        <time>2022-05-23 20:10:57</time>
      </trkpt>
      <trkpt lat="41.51624" lon="0.86971">
        <ele>376.2</ele>
        <time>2022-05-23 20:10:58</time>
      </trkpt>
      <trkpt lat="41.5162" lon="0.86973">
        <ele>376.2</ele>
        <time>2022-05-23 20:10:59</time>
      </trkpt>
      <trkpt lat="41.51615" lon="0.86975">
        <ele>376.2</ele>
        <time>2022-05-23 20:11:00</time>
      </trkpt>
      <trkpt lat="41.51612" lon="0.86978">
        <ele>376.2</ele>
        <time>2022-05-23 20:11:01</time>
      </trkpt>
      <trkpt lat="41.51607" lon="0.8698">
        <ele>376.4</ele>
        <time>2022-05-23 20:11:02</time>
      </trkpt>
      <trkpt lat="41.51603" lon="0.86982">
        <ele>376.4</ele>
        <time>2022-05-23 20:11:03</time>
      </trkpt>
      <trkpt lat="41.51599" lon="0.86984">
        <ele>376.4</ele>
        <time>2022-05-23 20:11:04</time>
      </trkpt>
      <trkpt lat="41.51595" lon="0.86986">
        <ele>376.4</ele>
        <time>2022-05-23 20:11:05</time>
      </trkpt>
      <trkpt lat="41.51591" lon="0.86989">
        <ele>376.4</ele>
        <time>2022-05-23 20:11:06</time>
      </trkpt>
      <trkpt lat="41.51587" lon="0.86991">
        <ele>376.4</ele>
        <time>2022-05-23 20:11:07</time>
      </trkpt>
      <trkpt lat="41.51583" lon="0.86993">
        <ele>376.6</ele>
        <time>2022-05-23 20:11:08</time>
      </trkpt>
      <trkpt lat="41.51579" lon="0.86995">
        <ele>376.6</ele>
        <time>2022-05-23 20:11:09</time>
      </trkpt>
      <trkpt lat="41.51575" lon="0.86997">
        <ele>376.6</ele>
        <time>2022-05-23 20:11:10</time>
      </trkpt>
      <trkpt lat="41.5157" lon="0.86999">
        <ele>376.6</ele>
        <time>2022-05-23 20:11:11</time>
      </trkpt>
      <trkpt lat="41.51567" lon="0.87002">
        <ele>376.8</ele>
        <time>2022-05-23 20:11:12</time>
      </trkpt>
      <trkpt lat="41.51563" lon="0.87004">
        <ele>376.8</ele>
        <time>2022-05-23 20:11:13</time>
      </trkpt>
      <trkpt lat="41.51559" lon="0.87006">
        <ele>376.8</ele>
        <time>2022-05-23 20:11:14</time>
      </trkpt>
      <trkpt lat="41.51555" lon="0.87008">
        <ele>376.8</ele>
        <time>2022-05-23 20:11:15</time>
      </trkpt>
      <trkpt lat="41.51552" lon="0.87009">
        <ele>376.8</ele>
        <time>2022-05-23 20:11:16</time>
      </trkpt>
      <trkpt lat="41.51546" lon="0.87011">
        <ele>376.8</ele>
        <time>2022-05-23 20:11:17</time>
      </trkpt>
      <trkpt lat="41.51543" lon="0.87014">
        <ele>377</ele>
        <time>2022-05-23 20:11:18</time>
      </trkpt>
      <trkpt lat="41.51538" lon="0.87015">
        <ele>377</ele>
        <time>2022-05-23 20:11:19</time>
      </trkpt>
      <trkpt lat="41.51534" lon="0.87017">
        <ele>377</ele>
        <time>2022-05-23 20:11:20</time>
      </trkpt>
      <trkpt lat="41.5153" lon="0.87018">
        <ele>377.2</ele>
        <time>2022-05-23 20:11:21</time>
      </trkpt>
      <trkpt lat="41.51525" lon="0.87019">
        <ele>377.2</ele>
        <time>2022-05-23 20:11:22</time>
      </trkpt>
      <trkpt lat="41.51521" lon="0.8702">
        <ele>377.4</ele>
        <time>2022-05-23 20:11:23</time>
      </trkpt>
      <trkpt lat="41.51517" lon="0.87021">
        <ele>377.4</ele>
        <time>2022-05-23 20:11:24</time>
      </trkpt>
      <trkpt lat="41.51513" lon="0.87022">
        <ele>377.4</ele>
        <time>2022-05-23 20:11:25</time>
      </trkpt>
      <trkpt lat="41.51509" lon="0.87024">
        <ele>377.4</ele>
        <time>2022-05-23 20:11:26</time>
      </trkpt>
      <trkpt lat="41.51505" lon="0.87025">
        <ele>377.4</ele>
        <time>2022-05-23 20:11:27</time>
      </trkpt>
      <trkpt lat="41.51501" lon="0.87026">
        <ele>377.4</ele>
        <time>2022-05-23 20:11:28</time>
      </trkpt>
      <trkpt lat="41.51496" lon="0.87027">
        <ele>377.4</ele>
        <time>2022-05-23 20:11:29</time>
      </trkpt>
      <trkpt lat="41.51492" lon="0.87028">
        <ele>377.4</ele>
        <time>2022-05-23 20:11:30</time>
      </trkpt>
      <trkpt lat="41.51487" lon="0.87029">
        <ele>377.6</ele>
        <time>2022-05-23 20:11:31</time>
      </trkpt>
      <trkpt lat="41.51483" lon="0.87029">
        <ele>377.6</ele>
        <time>2022-05-23 20:11:32</time>
      </trkpt>
      <trkpt lat="41.51479" lon="0.87028">
        <ele>377.4</ele>
        <time>2022-05-23 20:11:33</time>
      </trkpt>
      <trkpt lat="41.51475" lon="0.87025">
        <ele>377.4</ele>
        <time>2022-05-23 20:11:34</time>
      </trkpt>
      <trkpt lat="41.51471" lon="0.87023">
        <ele>377.4</ele>
        <time>2022-05-23 20:11:35</time>
      </trkpt>
      <trkpt lat="41.51468" lon="0.87021">
        <ele>377.6</ele>
        <time>2022-05-23 20:11:36</time>
      </trkpt>
      <trkpt lat="41.51463" lon="0.8702">
        <ele>377.6</ele>
        <time>2022-05-23 20:11:37</time>
      </trkpt>
      <trkpt lat="41.51459" lon="0.87019">
        <ele>377.6</ele>
        <time>2022-05-23 20:11:38</time>
      </trkpt>
      <trkpt lat="41.51456" lon="0.87018">
        <ele>377.8</ele>
        <time>2022-05-23 20:11:39</time>
      </trkpt>
      <trkpt lat="41.51452" lon="0.87019">
        <ele>377.8</ele>
        <time>2022-05-23 20:11:40</time>
      </trkpt>
      <trkpt lat="41.51448" lon="0.87022">
        <ele>378</ele>
        <time>2022-05-23 20:11:41</time>
      </trkpt>
      <trkpt lat="41.51445" lon="0.87025">
        <ele>378</ele>
        <time>2022-05-23 20:11:42</time>
      </trkpt>
      <trkpt lat="41.51441" lon="0.87028">
        <ele>378</ele>
        <time>2022-05-23 20:11:43</time>
      </trkpt>
      <trkpt lat="41.51438" lon="0.87032">
        <ele>378</ele>
        <time>2022-05-23 20:11:44</time>
      </trkpt>
      <trkpt lat="41.51434" lon="0.87035">
        <ele>378</ele>
        <time>2022-05-23 20:11:45</time>
      </trkpt>
      <trkpt lat="41.5143" lon="0.87039">
        <ele>378</ele>
        <time>2022-05-23 20:11:46</time>
      </trkpt>
      <trkpt lat="41.51426" lon="0.87042">
        <ele>378</ele>
        <time>2022-05-23 20:11:47</time>
      </trkpt>
      <trkpt lat="41.51421" lon="0.87044">
        <ele>378</ele>
        <time>2022-05-23 20:11:48</time>
      </trkpt>
      <trkpt lat="41.51417" lon="0.87046">
        <ele>378</ele>
        <time>2022-05-23 20:11:49</time>
      </trkpt>
      <trkpt lat="41.51413" lon="0.87047">
        <ele>378</ele>
        <time>2022-05-23 20:11:50</time>
      </trkpt>
      <trkpt lat="41.51409" lon="0.87049">
        <ele>378</ele>
        <time>2022-05-23 20:11:51</time>
      </trkpt>
      <trkpt lat="41.51405" lon="0.8705">
        <ele>378.2</ele>
        <time>2022-05-23 20:11:52</time>
      </trkpt>
      <trkpt lat="41.514" lon="0.87052">
        <ele>378.2</ele>
        <time>2022-05-23 20:11:53</time>
      </trkpt>
      <trkpt lat="41.51396" lon="0.87054">
        <ele>378.2</ele>
        <time>2022-05-23 20:11:54</time>
      </trkpt>
      <trkpt lat="41.51392" lon="0.87055">
        <ele>378.4</ele>
        <time>2022-05-23 20:11:55</time>
      </trkpt>
      <trkpt lat="41.51387" lon="0.87056">
        <ele>378.4</ele>
        <time>2022-05-23 20:11:56</time>
      </trkpt>
      <trkpt lat="41.51383" lon="0.87057">
        <ele>378.4</ele>
        <time>2022-05-23 20:11:57</time>
      </trkpt>
      <trkpt lat="41.51378" lon="0.87059">
        <ele>378.4</ele>
        <time>2022-05-23 20:11:58</time>
      </trkpt>
      <trkpt lat="41.51373" lon="0.8706">
        <ele>378.6</ele>
        <time>2022-05-23 20:11:59</time>
      </trkpt>
      <trkpt lat="41.51369" lon="0.87061">
        <ele>378.8</ele>
        <time>2022-05-23 20:12:00</time>
      </trkpt>
      <trkpt lat="41.51366" lon="0.87063">
        <ele>378.8</ele>
        <time>2022-05-23 20:12:01</time>
      </trkpt>
      <trkpt lat="41.51362" lon="0.87064">
        <ele>379</ele>
        <time>2022-05-23 20:12:02</time>
      </trkpt>
      <trkpt lat="41.51358" lon="0.87066">
        <ele>379.2</ele>
        <time>2022-05-23 20:12:03</time>
      </trkpt>
      <trkpt lat="41.51354" lon="0.87067">
        <ele>379.2</ele>
        <time>2022-05-23 20:12:04</time>
      </trkpt>
      <trkpt lat="41.51351" lon="0.87068">
        <ele>379.4</ele>
        <time>2022-05-23 20:12:05</time>
      </trkpt>
      <trkpt lat="41.51347" lon="0.87069">
        <ele>379.4</ele>
        <time>2022-05-23 20:12:06</time>
      </trkpt>
      <trkpt lat="41.51343" lon="0.8707">
        <ele>379.6</ele>
        <time>2022-05-23 20:12:07</time>
      </trkpt>
      <trkpt lat="41.5134" lon="0.87072">
        <ele>379.8</ele>
        <time>2022-05-23 20:12:08</time>
      </trkpt>
      <trkpt lat="41.51337" lon="0.87073">
        <ele>379.8</ele>
        <time>2022-05-23 20:12:09</time>
      </trkpt>
      <trkpt lat="41.51333" lon="0.87074">
        <ele>380</ele>
        <time>2022-05-23 20:12:10</time>
      </trkpt>
      <trkpt lat="41.5133" lon="0.87076">
        <ele>380</ele>
        <time>2022-05-23 20:12:11</time>
      </trkpt>
      <trkpt lat="41.51327" lon="0.87077">
        <ele>380.2</ele>
        <time>2022-05-23 20:12:12</time>
      </trkpt>
      <trkpt lat="41.51323" lon="0.87078">
        <ele>380.2</ele>
        <time>2022-05-23 20:12:13</time>
      </trkpt>
      <trkpt lat="41.5132" lon="0.8708">
        <ele>380.4</ele>
        <time>2022-05-23 20:12:14</time>
      </trkpt>
      <trkpt lat="41.51317" lon="0.87081">
        <ele>380.6</ele>
        <time>2022-05-23 20:12:15</time>
      </trkpt>
      <trkpt lat="41.51314" lon="0.87082">
        <ele>380.6</ele>
        <time>2022-05-23 20:12:16</time>
      </trkpt>
      <trkpt lat="41.5131" lon="0.87083">
        <ele>380.8</ele>
        <time>2022-05-23 20:12:17</time>
      </trkpt>
      <trkpt lat="41.51308" lon="0.87084">
        <ele>380.8</ele>
        <time>2022-05-23 20:12:18</time>
      </trkpt>
      <trkpt lat="41.51304" lon="0.87086">
        <ele>381</ele>
        <time>2022-05-23 20:12:19</time>
      </trkpt>
      <trkpt lat="41.51301" lon="0.87088">
        <ele>381.2</ele>
        <time>2022-05-23 20:12:20</time>
      </trkpt>
      <trkpt lat="41.51298" lon="0.8709">
        <ele>381.2</ele>
        <time>2022-05-23 20:12:21</time>
      </trkpt>
      <trkpt lat="41.51296" lon="0.87091">
        <ele>381.4</ele>
        <time>2022-05-23 20:12:22</time>
      </trkpt>
      <trkpt lat="41.51293" lon="0.87093">
        <ele>381.6</ele>
        <time>2022-05-23 20:12:23</time>
      </trkpt>
      <trkpt lat="41.51289" lon="0.87094">
        <ele>381.6</ele>
        <time>2022-05-23 20:12:24</time>
      </trkpt>
      <trkpt lat="41.51286" lon="0.87096">
        <ele>381.8</ele>
        <time>2022-05-23 20:12:25</time>
      </trkpt>
      <trkpt lat="41.51283" lon="0.87097">
        <ele>381.8</ele>
        <time>2022-05-23 20:12:26</time>
      </trkpt>
      <trkpt lat="41.5128" lon="0.87098">
        <ele>382</ele>
        <time>2022-05-23 20:12:27</time>
      </trkpt>
      <trkpt lat="41.51277" lon="0.871">
        <ele>382</ele>
        <time>2022-05-23 20:12:28</time>
      </trkpt>
      <trkpt lat="41.51273" lon="0.87102">
        <ele>382</ele>
        <time>2022-05-23 20:12:29</time>
      </trkpt>
      <trkpt lat="41.5127" lon="0.87104">
        <ele>382</ele>
        <time>2022-05-23 20:12:30</time>
      </trkpt>
      <trkpt lat="41.51267" lon="0.87106">
        <ele>382.2</ele>
        <time>2022-05-23 20:12:31</time>
      </trkpt>
      <trkpt lat="41.51263" lon="0.87108">
        <ele>382.2</ele>
        <time>2022-05-23 20:12:32</time>
      </trkpt>
      <trkpt lat="41.5126" lon="0.8711">
        <ele>382.2</ele>
        <time>2022-05-23 20:12:33</time>
      </trkpt>
      <trkpt lat="41.51257" lon="0.87112">
        <ele>382.2</ele>
        <time>2022-05-23 20:12:34</time>
      </trkpt>
      <trkpt lat="41.51253" lon="0.87113">
        <ele>382.4</ele>
        <time>2022-05-23 20:12:35</time>
      </trkpt>
      <trkpt lat="41.5125" lon="0.87114">
        <ele>382.4</ele>
        <time>2022-05-23 20:12:36</time>
      </trkpt>
      <trkpt lat="41.51247" lon="0.87116">
        <ele>382.4</ele>
        <time>2022-05-23 20:12:37</time>
      </trkpt>
      <trkpt lat="41.51243" lon="0.87117">
        <ele>382.4</ele>
        <time>2022-05-23 20:12:38</time>
      </trkpt>
      <trkpt lat="41.5124" lon="0.87119">
        <ele>382.6</ele>
        <time>2022-05-23 20:12:39</time>
      </trkpt>
      <trkpt lat="41.51237" lon="0.8712">
        <ele>382.6</ele>
        <time>2022-05-23 20:12:40</time>
      </trkpt>
      <trkpt lat="41.51234" lon="0.87122">
        <ele>382.6</ele>
        <time>2022-05-23 20:12:41</time>
      </trkpt>
      <trkpt lat="41.5123" lon="0.87124">
        <ele>382.6</ele>
        <time>2022-05-23 20:12:42</time>
      </trkpt>
      <trkpt lat="41.51227" lon="0.87126">
        <ele>382.6</ele>
        <time>2022-05-23 20:12:43</time>
      </trkpt>
      <trkpt lat="41.51224" lon="0.87128">
        <ele>382.8</ele>
        <time>2022-05-23 20:12:44</time>
      </trkpt>
      <trkpt lat="41.5122" lon="0.87129">
        <ele>382.8</ele>
        <time>2022-05-23 20:12:45</time>
      </trkpt>
      <trkpt lat="41.51217" lon="0.87131">
        <ele>382.8</ele>
        <time>2022-05-23 20:12:46</time>
      </trkpt>
      <trkpt lat="41.51214" lon="0.87133">
        <ele>382.8</ele>
        <time>2022-05-23 20:12:47</time>
      </trkpt>
      <trkpt lat="41.51211" lon="0.87135">
        <ele>383</ele>
        <time>2022-05-23 20:12:48</time>
      </trkpt>
      <trkpt lat="41.51207" lon="0.87137">
        <ele>383</ele>
        <time>2022-05-23 20:12:49</time>
      </trkpt>
      <trkpt lat="41.51204" lon="0.87139">
        <ele>383.2</ele>
        <time>2022-05-23 20:12:50</time>
      </trkpt>
      <trkpt lat="41.512" lon="0.8714">
        <ele>383.2</ele>
        <time>2022-05-23 20:12:51</time>
      </trkpt>
      <trkpt lat="41.51197" lon="0.87142">
        <ele>383.2</ele>
        <time>2022-05-23 20:12:52</time>
      </trkpt>
      <trkpt lat="41.51193" lon="0.87144">
        <ele>383.4</ele>
        <time>2022-05-23 20:12:53</time>
      </trkpt>
      <trkpt lat="41.5119" lon="0.87145">
        <ele>383.4</ele>
        <time>2022-05-23 20:12:54</time>
      </trkpt>
      <trkpt lat="41.51187" lon="0.87147">
        <ele>383.6</ele>
        <time>2022-05-23 20:12:55</time>
      </trkpt>
      <trkpt lat="41.51184" lon="0.87149">
        <ele>383.6</ele>
        <time>2022-05-23 20:12:56</time>
      </trkpt>
      <trkpt lat="41.51181" lon="0.8715">
        <ele>383.8</ele>
        <time>2022-05-23 20:12:57</time>
      </trkpt>
      <trkpt lat="41.51178" lon="0.87152">
        <ele>383.8</ele>
        <time>2022-05-23 20:12:58</time>
      </trkpt>
      <trkpt lat="41.51174" lon="0.87154">
        <ele>384</ele>
        <time>2022-05-23 20:12:59</time>
      </trkpt>
      <trkpt lat="41.51171" lon="0.87155">
        <ele>384</ele>
        <time>2022-05-23 20:13:00</time>
      </trkpt>
      <trkpt lat="41.51168" lon="0.87156">
        <ele>384.2</ele>
        <time>2022-05-23 20:13:01</time>
      </trkpt>
      <trkpt lat="41.51164" lon="0.87158">
        <ele>384.2</ele>
        <time>2022-05-23 20:13:02</time>
      </trkpt>
      <trkpt lat="41.51161" lon="0.87159">
        <ele>384.2</ele>
        <time>2022-05-23 20:13:03</time>
      </trkpt>
      <trkpt lat="41.51157" lon="0.87161">
        <ele>384.2</ele>
        <time>2022-05-23 20:13:04</time>
      </trkpt>
      <trkpt lat="41.51154" lon="0.87162">
        <ele>384.2</ele>
        <time>2022-05-23 20:13:05</time>
      </trkpt>
      <trkpt lat="41.5115" lon="0.87163">
        <ele>384.4</ele>
        <time>2022-05-23 20:13:06</time>
      </trkpt>
      <trkpt lat="41.51147" lon="0.87165">
        <ele>384.4</ele>
        <time>2022-05-23 20:13:07</time>
      </trkpt>
      <trkpt lat="41.51143" lon="0.87166">
        <ele>384.4</ele>
        <time>2022-05-23 20:13:08</time>
      </trkpt>
      <trkpt lat="41.51139" lon="0.87168">
        <ele>384.4</ele>
        <time>2022-05-23 20:13:09</time>
      </trkpt>
      <trkpt lat="41.51136" lon="0.87169">
        <ele>384.4</ele>
        <time>2022-05-23 20:13:10</time>
      </trkpt>
      <trkpt lat="41.51132" lon="0.87171">
        <ele>384.4</ele>
        <time>2022-05-23 20:13:11</time>
      </trkpt>
      <trkpt lat="41.51128" lon="0.87173">
        <ele>384.4</ele>
        <time>2022-05-23 20:13:12</time>
      </trkpt>
      <trkpt lat="41.51125" lon="0.87174">
        <ele>384.4</ele>
        <time>2022-05-23 20:13:13</time>
      </trkpt>
      <trkpt lat="41.51121" lon="0.87175">
        <ele>384.4</ele>
        <time>2022-05-23 20:13:14</time>
      </trkpt>
      <trkpt lat="41.51117" lon="0.87176">
        <ele>384.4</ele>
        <time>2022-05-23 20:13:15</time>
      </trkpt>
      <trkpt lat="41.51114" lon="0.87176">
        <ele>384.4</ele>
        <time>2022-05-23 20:13:16</time>
      </trkpt>
      <trkpt lat="41.5111" lon="0.87177">
        <ele>384.4</ele>
        <time>2022-05-23 20:13:17</time>
      </trkpt>
      <trkpt lat="41.51106" lon="0.87177">
        <ele>384.4</ele>
        <time>2022-05-23 20:13:18</time>
      </trkpt>
      <trkpt lat="41.51102" lon="0.87177">
        <ele>384.4</ele>
        <time>2022-05-23 20:13:19</time>
      </trkpt>
      <trkpt lat="41.51097" lon="0.87176">
        <ele>384.4</ele>
        <time>2022-05-23 20:13:20</time>
      </trkpt>
      <trkpt lat="41.51094" lon="0.87175">
        <ele>384.4</ele>
        <time>2022-05-23 20:13:21</time>
      </trkpt>
      <trkpt lat="41.5109" lon="0.87173">
        <ele>384.4</ele>
        <time>2022-05-23 20:13:22</time>
      </trkpt>
      <trkpt lat="41.51086" lon="0.87172">
        <ele>384.6</ele>
        <time>2022-05-23 20:13:23</time>
      </trkpt>
      <trkpt lat="41.51082" lon="0.87172">
        <ele>384.6</ele>
        <time>2022-05-23 20:13:24</time>
      </trkpt>
      <trkpt lat="41.51078" lon="0.87172">
        <ele>384.8</ele>
        <time>2022-05-23 20:13:25</time>
      </trkpt>
      <trkpt lat="41.51074" lon="0.87172">
        <ele>384.8</ele>
        <time>2022-05-23 20:13:26</time>
      </trkpt>
      <trkpt lat="41.5107" lon="0.87173">
        <ele>384.8</ele>
        <time>2022-05-23 20:13:27</time>
      </trkpt>
      <trkpt lat="41.51066" lon="0.87174">
        <ele>384.8</ele>
        <time>2022-05-23 20:13:28</time>
      </trkpt>
      <trkpt lat="41.51062" lon="0.87175">
        <ele>384.8</ele>
        <time>2022-05-23 20:13:29</time>
      </trkpt>
      <trkpt lat="41.51058" lon="0.87177">
        <ele>384.8</ele>
        <time>2022-05-23 20:13:30</time>
      </trkpt>
      <trkpt lat="41.51053" lon="0.87178">
        <ele>385</ele>
        <time>2022-05-23 20:13:31</time>
      </trkpt>
      <trkpt lat="41.51049" lon="0.87178">
        <ele>385</ele>
        <time>2022-05-23 20:13:32</time>
      </trkpt>
      <trkpt lat="41.51045" lon="0.87178">
        <ele>385</ele>
        <time>2022-05-23 20:13:33</time>
      </trkpt>
      <trkpt lat="41.51041" lon="0.87177">
        <ele>385</ele>
        <time>2022-05-23 20:13:34</time>
      </trkpt>
      <trkpt lat="41.51036" lon="0.87177">
        <ele>385</ele>
        <time>2022-05-23 20:13:35</time>
      </trkpt>
      <trkpt lat="41.51031" lon="0.87176">
        <ele>385</ele>
        <time>2022-05-23 20:13:36</time>
      </trkpt>
      <trkpt lat="41.51027" lon="0.87176">
        <ele>385</ele>
        <time>2022-05-23 20:13:37</time>
      </trkpt>
      <trkpt lat="41.51023" lon="0.87175">
        <ele>385.2</ele>
        <time>2022-05-23 20:13:38</time>
      </trkpt>
      <trkpt lat="41.51018" lon="0.87174">
        <ele>385.2</ele>
        <time>2022-05-23 20:13:39</time>
      </trkpt>
      <trkpt lat="41.51015" lon="0.87173">
        <ele>385.2</ele>
        <time>2022-05-23 20:13:40</time>
      </trkpt>
      <trkpt lat="41.51011" lon="0.87171">
        <ele>385.2</ele>
        <time>2022-05-23 20:13:41</time>
      </trkpt>
      <trkpt lat="41.51007" lon="0.87168">
        <ele>385.4</ele>
        <time>2022-05-23 20:13:42</time>
      </trkpt>
      <trkpt lat="41.51005" lon="0.87166">
        <ele>385.4</ele>
        <time>2022-05-23 20:13:43</time>
      </trkpt>
      <trkpt lat="41.51" lon="0.87162">
        <ele>385.6</ele>
        <time>2022-05-23 20:13:44</time>
      </trkpt>
      <trkpt lat="41.50997" lon="0.8716">
        <ele>385.8</ele>
        <time>2022-05-23 20:13:45</time>
      </trkpt>
      <trkpt lat="41.50993" lon="0.87159">
        <ele>385.8</ele>
        <time>2022-05-23 20:13:46</time>
      </trkpt>
      <trkpt lat="41.50989" lon="0.87159">
        <ele>386</ele>
        <time>2022-05-23 20:13:47</time>
      </trkpt>
      <trkpt lat="41.50985" lon="0.87159">
        <ele>386</ele>
        <time>2022-05-23 20:13:48</time>
      </trkpt>
      <trkpt lat="41.50981" lon="0.8716">
        <ele>386</ele>
        <time>2022-05-23 20:13:49</time>
      </trkpt>
      <trkpt lat="41.50978" lon="0.87161">
        <ele>386.2</ele>
        <time>2022-05-23 20:13:50</time>
      </trkpt>
      <trkpt lat="41.50974" lon="0.87162">
        <ele>386.2</ele>
        <time>2022-05-23 20:13:51</time>
      </trkpt>
      <trkpt lat="41.5097" lon="0.87163">
        <ele>386</ele>
        <time>2022-05-23 20:13:52</time>
      </trkpt>
      <trkpt lat="41.50965" lon="0.87164">
        <ele>386.2</ele>
        <time>2022-05-23 20:13:53</time>
      </trkpt>
      <trkpt lat="41.50962" lon="0.87164">
        <ele>386.2</ele>
        <time>2022-05-23 20:13:54</time>
      </trkpt>
      <trkpt lat="41.50958" lon="0.87164">
        <ele>386.2</ele>
        <time>2022-05-23 20:13:55</time>
      </trkpt>
      <trkpt lat="41.50954" lon="0.87164">
        <ele>386.4</ele>
        <time>2022-05-23 20:13:56</time>
      </trkpt>
      <trkpt lat="41.50951" lon="0.87163">
        <ele>386.6</ele>
        <time>2022-05-23 20:13:57</time>
      </trkpt>
      <trkpt lat="41.50948" lon="0.87163">
        <ele>386.6</ele>
        <time>2022-05-23 20:13:58</time>
      </trkpt>
      <trkpt lat="41.50944" lon="0.87163">
        <ele>386.8</ele>
        <time>2022-05-23 20:13:59</time>
      </trkpt>
      <trkpt lat="41.50941" lon="0.87162">
        <ele>386.8</ele>
        <time>2022-05-23 20:14:00</time>
      </trkpt>
      <trkpt lat="41.50938" lon="0.87162">
        <ele>387</ele>
        <time>2022-05-23 20:14:01</time>
      </trkpt>
      <trkpt lat="41.50934" lon="0.87162">
        <ele>387</ele>
        <time>2022-05-23 20:14:02</time>
      </trkpt>
      <trkpt lat="41.5093" lon="0.87162">
        <ele>387.2</ele>
        <time>2022-05-23 20:14:03</time>
      </trkpt>
      <trkpt lat="41.50926" lon="0.87162">
        <ele>387.2</ele>
        <time>2022-05-23 20:14:04</time>
      </trkpt>
      <trkpt lat="41.50922" lon="0.87163">
        <ele>387.2</ele>
        <time>2022-05-23 20:14:05</time>
      </trkpt>
      <trkpt lat="41.50917" lon="0.87163">
        <ele>387.2</ele>
        <time>2022-05-23 20:14:06</time>
      </trkpt>
      <trkpt lat="41.50913" lon="0.87163">
        <ele>387.4</ele>
        <time>2022-05-23 20:14:07</time>
      </trkpt>
      <trkpt lat="41.50908" lon="0.87164">
        <ele>387.4</ele>
        <time>2022-05-23 20:14:08</time>
      </trkpt>
      <trkpt lat="41.50904" lon="0.87164">
        <ele>387.6</ele>
        <time>2022-05-23 20:14:09</time>
      </trkpt>
      <trkpt lat="41.50899" lon="0.87164">
        <ele>387.6</ele>
        <time>2022-05-23 20:14:10</time>
      </trkpt>
      <trkpt lat="41.50895" lon="0.87165">
        <ele>387.8</ele>
        <time>2022-05-23 20:14:11</time>
      </trkpt>
      <trkpt lat="41.5089" lon="0.87166">
        <ele>388</ele>
        <time>2022-05-23 20:14:12</time>
      </trkpt>
      <trkpt lat="41.50886" lon="0.87168">
        <ele>388.2</ele>
        <time>2022-05-23 20:14:13</time>
      </trkpt>
      <trkpt lat="41.50883" lon="0.87169">
        <ele>388.4</ele>
        <time>2022-05-23 20:14:14</time>
      </trkpt>
      <trkpt lat="41.50878" lon="0.8717">
        <ele>388.4</ele>
        <time>2022-05-23 20:14:15</time>
      </trkpt>
      <trkpt lat="41.50874" lon="0.87172">
        <ele>388.6</ele>
        <time>2022-05-23 20:14:16</time>
      </trkpt>
      <trkpt lat="41.5087" lon="0.87173">
        <ele>388.6</ele>
        <time>2022-05-23 20:14:17</time>
      </trkpt>
      <trkpt lat="41.50866" lon="0.87175">
        <ele>388.6</ele>
        <time>2022-05-23 20:14:18</time>
      </trkpt>
      <trkpt lat="41.50862" lon="0.87176">
        <ele>388.6</ele>
        <time>2022-05-23 20:14:19</time>
      </trkpt>
      <trkpt lat="41.50859" lon="0.87177">
        <ele>388.8</ele>
        <time>2022-05-23 20:14:20</time>
      </trkpt>
      <trkpt lat="41.50854" lon="0.87179">
        <ele>388.8</ele>
        <time>2022-05-23 20:14:21</time>
      </trkpt>
      <trkpt lat="41.5085" lon="0.87181">
        <ele>388.8</ele>
        <time>2022-05-23 20:14:22</time>
      </trkpt>
      <trkpt lat="41.50846" lon="0.87183">
        <ele>388.8</ele>
        <time>2022-05-23 20:14:23</time>
      </trkpt>
      <trkpt lat="41.50841" lon="0.87184">
        <ele>388.8</ele>
        <time>2022-05-23 20:14:24</time>
      </trkpt>
      <trkpt lat="41.50837" lon="0.87186">
        <ele>388.8</ele>
        <time>2022-05-23 20:14:25</time>
      </trkpt>
      <trkpt lat="41.50832" lon="0.87188">
        <ele>388.8</ele>
        <time>2022-05-23 20:14:26</time>
      </trkpt>
      <trkpt lat="41.50828" lon="0.8719">
        <ele>388.8</ele>
        <time>2022-05-23 20:14:27</time>
      </trkpt>
      <trkpt lat="41.50822" lon="0.87193">
        <ele>388.8</ele>
        <time>2022-05-23 20:14:28</time>
      </trkpt>
      <trkpt lat="41.50818" lon="0.87194">
        <ele>388.6</ele>
        <time>2022-05-23 20:14:29</time>
      </trkpt>
      <trkpt lat="41.50812" lon="0.87197">
        <ele>388.6</ele>
        <time>2022-05-23 20:14:30</time>
      </trkpt>
      <trkpt lat="41.50808" lon="0.87199">
        <ele>388.4</ele>
        <time>2022-05-23 20:14:31</time>
      </trkpt>
      <trkpt lat="41.50802" lon="0.87201">
        <ele>388.2</ele>
        <time>2022-05-23 20:14:32</time>
      </trkpt>
      <trkpt lat="41.50797" lon="0.87203">
        <ele>388.2</ele>
        <time>2022-05-23 20:14:33</time>
      </trkpt>
      <trkpt lat="41.50791" lon="0.87206">
        <ele>388</ele>
        <time>2022-05-23 20:14:34</time>
      </trkpt>
      <trkpt lat="41.50786" lon="0.87207">
        <ele>387.8</ele>
        <time>2022-05-23 20:14:35</time>
      </trkpt>
      <trkpt lat="41.50779" lon="0.8721">
        <ele>387.6</ele>
        <time>2022-05-23 20:14:36</time>
      </trkpt>
      <trkpt lat="41.50773" lon="0.87213">
        <ele>387.4</ele>
        <time>2022-05-23 20:14:37</time>
      </trkpt>
      <trkpt lat="41.50767" lon="0.87215">
        <ele>387.2</ele>
        <time>2022-05-23 20:14:38</time>
      </trkpt>
      <trkpt lat="41.50761" lon="0.87218">
        <ele>387</ele>
        <time>2022-05-23 20:14:39</time>
      </trkpt>
      <trkpt lat="41.50754" lon="0.87221">
        <ele>386.8</ele>
        <time>2022-05-23 20:14:40</time>
      </trkpt>
      <trkpt lat="41.50748" lon="0.87223">
        <ele>386.6</ele>
        <time>2022-05-23 20:14:41</time>
      </trkpt>
      <trkpt lat="41.50741" lon="0.87226">
        <ele>386.4</ele>
        <time>2022-05-23 20:14:42</time>
      </trkpt>
      <trkpt lat="41.50735" lon="0.87228">
        <ele>386.2</ele>
        <time>2022-05-23 20:14:43</time>
      </trkpt>
      <trkpt lat="41.50728" lon="0.8723">
        <ele>386.2</ele>
        <time>2022-05-23 20:14:44</time>
      </trkpt>
      <trkpt lat="41.50722" lon="0.87233">
        <ele>386</ele>
        <time>2022-05-23 20:14:45</time>
      </trkpt>
      <trkpt lat="41.50716" lon="0.87236">
        <ele>386</ele>
        <time>2022-05-23 20:14:46</time>
      </trkpt>
      <trkpt lat="41.50709" lon="0.87238">
        <ele>385.8</ele>
        <time>2022-05-23 20:14:47</time>
      </trkpt>
      <trkpt lat="41.50702" lon="0.87241">
        <ele>385.8</ele>
        <time>2022-05-23 20:14:48</time>
      </trkpt>
      <trkpt lat="41.50696" lon="0.87244">
        <ele>385.6</ele>
        <time>2022-05-23 20:14:49</time>
      </trkpt>
      <trkpt lat="41.5069" lon="0.87247">
        <ele>385.6</ele>
        <time>2022-05-23 20:14:50</time>
      </trkpt>
      <trkpt lat="41.50684" lon="0.87249">
        <ele>385.4</ele>
        <time>2022-05-23 20:14:51</time>
      </trkpt>
      <trkpt lat="41.50677" lon="0.87252">
        <ele>385.4</ele>
        <time>2022-05-23 20:14:52</time>
      </trkpt>
      <trkpt lat="41.50671" lon="0.87254">
        <ele>385.4</ele>
        <time>2022-05-23 20:14:53</time>
      </trkpt>
      <trkpt lat="41.50665" lon="0.87257">
        <ele>385.2</ele>
        <time>2022-05-23 20:14:54</time>
      </trkpt>
      <trkpt lat="41.50658" lon="0.87259">
        <ele>385.2</ele>
        <time>2022-05-23 20:14:55</time>
      </trkpt>
      <trkpt lat="41.50652" lon="0.87261">
        <ele>385.2</ele>
        <time>2022-05-23 20:14:56</time>
      </trkpt>
      <trkpt lat="41.50645" lon="0.87263">
        <ele>385</ele>
        <time>2022-05-23 20:14:57</time>
      </trkpt>
      <trkpt lat="41.50639" lon="0.87266">
        <ele>385</ele>
        <time>2022-05-23 20:14:58</time>
      </trkpt>
      <trkpt lat="41.50632" lon="0.87268">
        <ele>384.8</ele>
        <time>2022-05-23 20:14:59</time>
      </trkpt>
      <trkpt lat="41.50626" lon="0.87269">
        <ele>384.8</ele>
        <time>2022-05-23 20:15:00</time>
      </trkpt>
      <trkpt lat="41.50619" lon="0.87271">
        <ele>384.8</ele>
        <time>2022-05-23 20:15:01</time>
      </trkpt>
      <trkpt lat="41.50613" lon="0.87271">
        <ele>384.6</ele>
        <time>2022-05-23 20:15:02</time>
      </trkpt>
      <trkpt lat="41.50607" lon="0.87271">
        <ele>384.6</ele>
        <time>2022-05-23 20:15:03</time>
      </trkpt>
      <trkpt lat="41.506" lon="0.87271">
        <ele>384.6</ele>
        <time>2022-05-23 20:15:04</time>
      </trkpt>
      <trkpt lat="41.50594" lon="0.87271">
        <ele>384.6</ele>
        <time>2022-05-23 20:15:05</time>
      </trkpt>
      <trkpt lat="41.50588" lon="0.8727">
        <ele>384.6</ele>
        <time>2022-05-23 20:15:06</time>
      </trkpt>
      <trkpt lat="41.50582" lon="0.87269">
        <ele>384.6</ele>
        <time>2022-05-23 20:15:07</time>
      </trkpt>
      <trkpt lat="41.50576" lon="0.87267">
        <ele>384.6</ele>
        <time>2022-05-23 20:15:08</time>
      </trkpt>
      <trkpt lat="41.50571" lon="0.87265">
        <ele>384.6</ele>
        <time>2022-05-23 20:15:09</time>
      </trkpt>
      <trkpt lat="41.50564" lon="0.87263">
        <ele>384.8</ele>
        <time>2022-05-23 20:15:10</time>
      </trkpt>
      <trkpt lat="41.50559" lon="0.87261">
        <ele>384.8</ele>
        <time>2022-05-23 20:15:11</time>
      </trkpt>
      <trkpt lat="41.50554" lon="0.87259">
        <ele>385</ele>
        <time>2022-05-23 20:15:12</time>
      </trkpt>
      <trkpt lat="41.50549" lon="0.87257">
        <ele>385</ele>
        <time>2022-05-23 20:15:13</time>
      </trkpt>
      <trkpt lat="41.50543" lon="0.87255">
        <ele>385.2</ele>
        <time>2022-05-23 20:15:14</time>
      </trkpt>
      <trkpt lat="41.50538" lon="0.87253">
        <ele>385.2</ele>
        <time>2022-05-23 20:15:15</time>
      </trkpt>
      <trkpt lat="41.50533" lon="0.87251">
        <ele>385.4</ele>
        <time>2022-05-23 20:15:16</time>
      </trkpt>
      <trkpt lat="41.50528" lon="0.87249">
        <ele>385.6</ele>
        <time>2022-05-23 20:15:17</time>
      </trkpt>
      <trkpt lat="41.50523" lon="0.87247">
        <ele>385.8</ele>
        <time>2022-05-23 20:15:18</time>
      </trkpt>
      <trkpt lat="41.50518" lon="0.87245">
        <ele>385.8</ele>
        <time>2022-05-23 20:15:19</time>
      </trkpt>
      <trkpt lat="41.50514" lon="0.87244">
        <ele>386</ele>
        <time>2022-05-23 20:15:20</time>
      </trkpt>
      <trkpt lat="41.50509" lon="0.87242">
        <ele>386.2</ele>
        <time>2022-05-23 20:15:21</time>
      </trkpt>
      <trkpt lat="41.50505" lon="0.8724">
        <ele>386.4</ele>
        <time>2022-05-23 20:15:22</time>
      </trkpt>
      <trkpt lat="41.505" lon="0.87239">
        <ele>386.6</ele>
        <time>2022-05-23 20:15:23</time>
      </trkpt>
      <trkpt lat="41.50495" lon="0.87238">
        <ele>386.8</ele>
        <time>2022-05-23 20:15:24</time>
      </trkpt>
      <trkpt lat="41.5049" lon="0.87236">
        <ele>387</ele>
        <time>2022-05-23 20:15:25</time>
      </trkpt>
      <trkpt lat="41.50485" lon="0.87235">
        <ele>387.2</ele>
        <time>2022-05-23 20:15:26</time>
      </trkpt>
      <trkpt lat="41.50481" lon="0.87235">
        <ele>387.2</ele>
        <time>2022-05-23 20:15:27</time>
      </trkpt>
      <trkpt lat="41.50476" lon="0.87234">
        <ele>387.4</ele>
        <time>2022-05-23 20:15:28</time>
      </trkpt>
      <trkpt lat="41.50472" lon="0.87233">
        <ele>387.6</ele>
        <time>2022-05-23 20:15:29</time>
      </trkpt>
      <trkpt lat="41.50468" lon="0.87233">
        <ele>387.8</ele>
        <time>2022-05-23 20:15:30</time>
      </trkpt>
      <trkpt lat="41.50463" lon="0.87233">
        <ele>388</ele>
        <time>2022-05-23 20:15:31</time>
      </trkpt>
      <trkpt lat="41.50458" lon="0.87233">
        <ele>388.2</ele>
        <time>2022-05-23 20:15:32</time>
      </trkpt>
      <trkpt lat="41.50454" lon="0.87233">
        <ele>388.4</ele>
        <time>2022-05-23 20:15:33</time>
      </trkpt>
      <trkpt lat="41.50449" lon="0.87233">
        <ele>388.4</ele>
        <time>2022-05-23 20:15:34</time>
      </trkpt>
      <trkpt lat="41.50444" lon="0.87233">
        <ele>388.6</ele>
        <time>2022-05-23 20:15:35</time>
      </trkpt>
      <trkpt lat="41.5044" lon="0.87234">
        <ele>388.8</ele>
        <time>2022-05-23 20:15:36</time>
      </trkpt>
      <trkpt lat="41.50436" lon="0.87234">
        <ele>389</ele>
        <time>2022-05-23 20:15:37</time>
      </trkpt>
      <trkpt lat="41.50432" lon="0.87235">
        <ele>389.2</ele>
        <time>2022-05-23 20:15:38</time>
      </trkpt>
      <trkpt lat="41.50428" lon="0.87236">
        <ele>389.4</ele>
        <time>2022-05-23 20:15:39</time>
      </trkpt>
      <trkpt lat="41.50424" lon="0.87237">
        <ele>389.4</ele>
        <time>2022-05-23 20:15:40</time>
      </trkpt>
      <trkpt lat="41.50421" lon="0.87238">
        <ele>389.6</ele>
        <time>2022-05-23 20:15:41</time>
      </trkpt>
      <trkpt lat="41.50417" lon="0.87239">
        <ele>389.8</ele>
        <time>2022-05-23 20:15:42</time>
      </trkpt>
      <trkpt lat="41.50414" lon="0.8724">
        <ele>390</ele>
        <time>2022-05-23 20:15:43</time>
      </trkpt>
      <trkpt lat="41.5041" lon="0.87241">
        <ele>390.2</ele>
        <time>2022-05-23 20:15:44</time>
      </trkpt>
      <trkpt lat="41.50407" lon="0.87242">
        <ele>390.4</ele>
        <time>2022-05-23 20:15:45</time>
      </trkpt>
      <trkpt lat="41.50404" lon="0.87243">
        <ele>390.4</ele>
        <time>2022-05-23 20:15:46</time>
      </trkpt>
      <trkpt lat="41.50401" lon="0.87244">
        <ele>390.6</ele>
        <time>2022-05-23 20:15:47</time>
      </trkpt>
      <trkpt lat="41.50399" lon="0.87245">
        <ele>390.8</ele>
        <time>2022-05-23 20:15:48</time>
      </trkpt>
      <trkpt lat="41.50395" lon="0.87247">
        <ele>391</ele>
        <time>2022-05-23 20:15:49</time>
      </trkpt>
      <trkpt lat="41.50393" lon="0.87248">
        <ele>391</ele>
        <time>2022-05-23 20:15:50</time>
      </trkpt>
      <trkpt lat="41.5039" lon="0.8725">
        <ele>391.2</ele>
        <time>2022-05-23 20:15:51</time>
      </trkpt>
      <trkpt lat="41.50387" lon="0.87251">
        <ele>391.2</ele>
        <time>2022-05-23 20:15:52</time>
      </trkpt>
      <trkpt lat="41.50384" lon="0.87253">
        <ele>391.4</ele>
        <time>2022-05-23 20:15:53</time>
      </trkpt>
      <trkpt lat="41.50382" lon="0.87255">
        <ele>391.4</ele>
        <time>2022-05-23 20:15:54</time>
      </trkpt>
      <trkpt lat="41.50379" lon="0.87256">
        <ele>391.6</ele>
        <time>2022-05-23 20:15:55</time>
      </trkpt>
      <trkpt lat="41.50376" lon="0.87258">
        <ele>391.6</ele>
        <time>2022-05-23 20:15:56</time>
      </trkpt>
      <trkpt lat="41.50374" lon="0.87259">
        <ele>391.8</ele>
        <time>2022-05-23 20:15:57</time>
      </trkpt>
      <trkpt lat="41.50371" lon="0.8726">
        <ele>392</ele>
        <time>2022-05-23 20:15:58</time>
      </trkpt>
      <trkpt lat="41.50368" lon="0.87262">
        <ele>392</ele>
        <time>2022-05-23 20:15:59</time>
      </trkpt>
      <trkpt lat="41.50366" lon="0.87263">
        <ele>392.2</ele>
        <time>2022-05-23 20:16:00</time>
      </trkpt>
      <trkpt lat="41.50363" lon="0.87265">
        <ele>392.2</ele>
        <time>2022-05-23 20:16:01</time>
      </trkpt>
      <trkpt lat="41.5036" lon="0.87266">
        <ele>392.4</ele>
        <time>2022-05-23 20:16:02</time>
      </trkpt>
      <trkpt lat="41.50358" lon="0.87268">
        <ele>392.4</ele>
        <time>2022-05-23 20:16:03</time>
      </trkpt>
      <trkpt lat="41.50355" lon="0.8727">
        <ele>392.6</ele>
        <time>2022-05-23 20:16:04</time>
      </trkpt>
      <trkpt lat="41.50352" lon="0.87271">
        <ele>392.6</ele>
        <time>2022-05-23 20:16:05</time>
      </trkpt>
      <trkpt lat="41.5035" lon="0.87272">
        <ele>392.8</ele>
        <time>2022-05-23 20:16:06</time>
      </trkpt>
      <trkpt lat="41.50347" lon="0.87274">
        <ele>393</ele>
        <time>2022-05-23 20:16:07</time>
      </trkpt>
      <trkpt lat="41.50345" lon="0.87275">
        <ele>393</ele>
        <time>2022-05-23 20:16:08</time>
      </trkpt>
      <trkpt lat="41.50342" lon="0.87277">
        <ele>393.2</ele>
        <time>2022-05-23 20:16:09</time>
      </trkpt>
      <trkpt lat="41.50339" lon="0.87278">
        <ele>393.2</ele>
        <time>2022-05-23 20:16:10</time>
      </trkpt>
      <trkpt lat="41.50337" lon="0.87279">
        <ele>393.4</ele>
        <time>2022-05-23 20:16:11</time>
      </trkpt>
      <trkpt lat="41.50334" lon="0.87281">
        <ele>393.4</ele>
        <time>2022-05-23 20:16:12</time>
      </trkpt>
      <trkpt lat="41.50331" lon="0.87282">
        <ele>393.6</ele>
        <time>2022-05-23 20:16:13</time>
      </trkpt>
      <trkpt lat="41.50329" lon="0.87283">
        <ele>393.8</ele>
        <time>2022-05-23 20:16:14</time>
      </trkpt>
      <trkpt lat="41.50326" lon="0.87285">
        <ele>394</ele>
        <time>2022-05-23 20:16:15</time>
      </trkpt>
      <trkpt lat="41.50324" lon="0.87286">
        <ele>394</ele>
        <time>2022-05-23 20:16:16</time>
      </trkpt>
      <trkpt lat="41.50321" lon="0.87288">
        <ele>394.2</ele>
        <time>2022-05-23 20:16:17</time>
      </trkpt>
      <trkpt lat="41.50318" lon="0.87289">
        <ele>394.4</ele>
        <time>2022-05-23 20:16:18</time>
      </trkpt>
      <trkpt lat="41.50316" lon="0.8729">
        <ele>394.4</ele>
        <time>2022-05-23 20:16:19</time>
      </trkpt>
      <trkpt lat="41.50313" lon="0.87292">
        <ele>394.6</ele>
        <time>2022-05-23 20:16:20</time>
      </trkpt>
      <trkpt lat="41.5031" lon="0.87293">
        <ele>394.6</ele>
        <time>2022-05-23 20:16:21</time>
      </trkpt>
      <trkpt lat="41.50307" lon="0.87294">
        <ele>394.8</ele>
        <time>2022-05-23 20:16:22</time>
      </trkpt>
      <trkpt lat="41.50304" lon="0.87295">
        <ele>394.8</ele>
        <time>2022-05-23 20:16:23</time>
      </trkpt>
      <trkpt lat="41.50301" lon="0.87296">
        <ele>395</ele>
        <time>2022-05-23 20:16:24</time>
      </trkpt>
      <trkpt lat="41.50299" lon="0.87297">
        <ele>395</ele>
        <time>2022-05-23 20:16:25</time>
      </trkpt>
      <trkpt lat="41.50296" lon="0.87298">
        <ele>395.2</ele>
        <time>2022-05-23 20:16:26</time>
      </trkpt>
      <trkpt lat="41.50293" lon="0.87299">
        <ele>395.4</ele>
        <time>2022-05-23 20:16:27</time>
      </trkpt>
      <trkpt lat="41.5029" lon="0.873">
        <ele>395.4</ele>
        <time>2022-05-23 20:16:28</time>
      </trkpt>
      <trkpt lat="41.50287" lon="0.87301">
        <ele>395.6</ele>
        <time>2022-05-23 20:16:29</time>
      </trkpt>
      <trkpt lat="41.50284" lon="0.87301">
        <ele>395.8</ele>
        <time>2022-05-23 20:16:30</time>
      </trkpt>
      <trkpt lat="41.50281" lon="0.87302">
        <ele>395.8</ele>
        <time>2022-05-23 20:16:31</time>
      </trkpt>
      <trkpt lat="41.50278" lon="0.87303">
        <ele>396</ele>
        <time>2022-05-23 20:16:32</time>
      </trkpt>
      <trkpt lat="41.50275" lon="0.87303">
        <ele>396.2</ele>
        <time>2022-05-23 20:16:33</time>
      </trkpt>
      <trkpt lat="41.50273" lon="0.87303">
        <ele>396.2</ele>
        <time>2022-05-23 20:16:34</time>
      </trkpt>
      <trkpt lat="41.5027" lon="0.87304">
        <ele>396.4</ele>
        <time>2022-05-23 20:16:35</time>
      </trkpt>
      <trkpt lat="41.50267" lon="0.87304">
        <ele>396.6</ele>
        <time>2022-05-23 20:16:36</time>
      </trkpt>
      <trkpt lat="41.50264" lon="0.87304">
        <ele>396.6</ele>
        <time>2022-05-23 20:16:37</time>
      </trkpt>
      <trkpt lat="41.50261" lon="0.87304">
        <ele>396.8</ele>
        <time>2022-05-23 20:16:38</time>
      </trkpt>
      <trkpt lat="41.50259" lon="0.87304">
        <ele>396.8</ele>
        <time>2022-05-23 20:16:39</time>
      </trkpt>
      <trkpt lat="41.50255" lon="0.87304">
        <ele>397</ele>
        <time>2022-05-23 20:16:40</time>
      </trkpt>
      <trkpt lat="41.50253" lon="0.87304">
        <ele>397</ele>
        <time>2022-05-23 20:16:41</time>
      </trkpt>
      <trkpt lat="41.5025" lon="0.87304">
        <ele>397.2</ele>
        <time>2022-05-23 20:16:42</time>
      </trkpt>
      <trkpt lat="41.50247" lon="0.87304">
        <ele>397.2</ele>
        <time>2022-05-23 20:16:43</time>
      </trkpt>
      <trkpt lat="41.50244" lon="0.87304">
        <ele>397.4</ele>
        <time>2022-05-23 20:16:44</time>
      </trkpt>
      <trkpt lat="41.50242" lon="0.87303">
        <ele>397.4</ele>
        <time>2022-05-23 20:16:45</time>
      </trkpt>
      <trkpt lat="41.50239" lon="0.87303">
        <ele>397.6</ele>
        <time>2022-05-23 20:16:46</time>
      </trkpt>
      <trkpt lat="41.50236" lon="0.87303">
        <ele>397.6</ele>
        <time>2022-05-23 20:16:47</time>
      </trkpt>
      <trkpt lat="41.50233" lon="0.87303">
        <ele>397.8</ele>
        <time>2022-05-23 20:16:48</time>
      </trkpt>
      <trkpt lat="41.50231" lon="0.87303">
        <ele>397.8</ele>
        <time>2022-05-23 20:16:49</time>
      </trkpt>
      <trkpt lat="41.50228" lon="0.87303">
        <ele>398</ele>
        <time>2022-05-23 20:16:50</time>
      </trkpt>
      <trkpt lat="41.50225" lon="0.87303">
        <ele>398.2</ele>
        <time>2022-05-23 20:16:51</time>
      </trkpt>
      <trkpt lat="41.50222" lon="0.87302">
        <ele>398.2</ele>
        <time>2022-05-23 20:16:52</time>
      </trkpt>
      <trkpt lat="41.50219" lon="0.87302">
        <ele>398.4</ele>
        <time>2022-05-23 20:16:53</time>
      </trkpt>
      <trkpt lat="41.50216" lon="0.87302">
        <ele>398.4</ele>
        <time>2022-05-23 20:16:54</time>
      </trkpt>
      <trkpt lat="41.50213" lon="0.87302">
        <ele>398.6</ele>
        <time>2022-05-23 20:16:55</time>
      </trkpt>
      <trkpt lat="41.5021" lon="0.87302">
        <ele>398.6</ele>
        <time>2022-05-23 20:16:56</time>
      </trkpt>
      <trkpt lat="41.50208" lon="0.87302">
        <ele>398.8</ele>
        <time>2022-05-23 20:16:57</time>
      </trkpt>
      <trkpt lat="41.50205" lon="0.87301">
        <ele>398.8</ele>
        <time>2022-05-23 20:16:58</time>
      </trkpt>
      <trkpt lat="41.50202" lon="0.87301">
        <ele>399</ele>
        <time>2022-05-23 20:16:59</time>
      </trkpt>
      <trkpt lat="41.50199" lon="0.87301">
        <ele>399</ele>
        <time>2022-05-23 20:17:00</time>
      </trkpt>
      <trkpt lat="41.50196" lon="0.87301">
        <ele>399.2</ele>
        <time>2022-05-23 20:17:01</time>
      </trkpt>
      <trkpt lat="41.50193" lon="0.87301">
        <ele>399.2</ele>
        <time>2022-05-23 20:17:02</time>
      </trkpt>
      <trkpt lat="41.5019" lon="0.873">
        <ele>399.2</ele>
        <time>2022-05-23 20:17:03</time>
      </trkpt>
      <trkpt lat="41.50188" lon="0.873">
        <ele>399.4</ele>
        <time>2022-05-23 20:17:04</time>
      </trkpt>
      <trkpt lat="41.50184" lon="0.873">
        <ele>399.4</ele>
        <time>2022-05-23 20:17:05</time>
      </trkpt>
      <trkpt lat="41.50181" lon="0.87299">
        <ele>399.4</ele>
        <time>2022-05-23 20:17:06</time>
      </trkpt>
      <trkpt lat="41.50178" lon="0.87299">
        <ele>399.6</ele>
        <time>2022-05-23 20:17:07</time>
      </trkpt>
      <trkpt lat="41.50174" lon="0.87299">
        <ele>399.8</ele>
        <time>2022-05-23 20:17:08</time>
      </trkpt>
      <trkpt lat="41.50171" lon="0.87299">
        <ele>399.8</ele>
        <time>2022-05-23 20:17:09</time>
      </trkpt>
      <trkpt lat="41.50168" lon="0.87299">
        <ele>400</ele>
        <time>2022-05-23 20:17:10</time>
      </trkpt>
      <trkpt lat="41.50164" lon="0.87298">
        <ele>400</ele>
        <time>2022-05-23 20:17:11</time>
      </trkpt>
      <trkpt lat="41.50161" lon="0.87298">
        <ele>400.2</ele>
        <time>2022-05-23 20:17:12</time>
      </trkpt>
      <trkpt lat="41.50158" lon="0.87298">
        <ele>400.4</ele>
        <time>2022-05-23 20:17:13</time>
      </trkpt>
      <trkpt lat="41.50155" lon="0.87297">
        <ele>400.4</ele>
        <time>2022-05-23 20:17:14</time>
      </trkpt>
      <trkpt lat="41.50152" lon="0.87297">
        <ele>400.6</ele>
        <time>2022-05-23 20:17:15</time>
      </trkpt>
      <trkpt lat="41.50149" lon="0.87297">
        <ele>400.8</ele>
        <time>2022-05-23 20:17:16</time>
      </trkpt>
      <trkpt lat="41.50146" lon="0.87297">
        <ele>400.8</ele>
        <time>2022-05-23 20:17:17</time>
      </trkpt>
      <trkpt lat="41.50143" lon="0.87297">
        <ele>401</ele>
        <time>2022-05-23 20:17:18</time>
      </trkpt>
      <trkpt lat="41.5014" lon="0.87297">
        <ele>401</ele>
        <time>2022-05-23 20:17:19</time>
      </trkpt>
      <trkpt lat="41.50138" lon="0.87297">
        <ele>401.2</ele>
        <time>2022-05-23 20:17:20</time>
      </trkpt>
      <trkpt lat="41.50135" lon="0.87297">
        <ele>401.2</ele>
        <time>2022-05-23 20:17:21</time>
      </trkpt>
      <trkpt lat="41.50132" lon="0.87297">
        <ele>401.4</ele>
        <time>2022-05-23 20:17:22</time>
      </trkpt>
      <trkpt lat="41.50129" lon="0.87298">
        <ele>401.6</ele>
        <time>2022-05-23 20:17:23</time>
      </trkpt>
      <trkpt lat="41.50127" lon="0.87298">
        <ele>401.6</ele>
        <time>2022-05-23 20:17:24</time>
      </trkpt>
      <trkpt lat="41.50123" lon="0.87299">
        <ele>401.6</ele>
        <time>2022-05-23 20:17:25</time>
      </trkpt>
      <trkpt lat="41.5012" lon="0.873">
        <ele>401.8</ele>
        <time>2022-05-23 20:17:26</time>
      </trkpt>
      <trkpt lat="41.50117" lon="0.873">
        <ele>401.8</ele>
        <time>2022-05-23 20:17:27</time>
      </trkpt>
      <trkpt lat="41.50114" lon="0.873">
        <ele>402</ele>
        <time>2022-05-23 20:17:28</time>
      </trkpt>
      <trkpt lat="41.50111" lon="0.87301">
        <ele>402</ele>
        <time>2022-05-23 20:17:29</time>
      </trkpt>
      <trkpt lat="41.50109" lon="0.87301">
        <ele>402.2</ele>
        <time>2022-05-23 20:17:30</time>
      </trkpt>
      <trkpt lat="41.50106" lon="0.87302">
        <ele>402.2</ele>
        <time>2022-05-23 20:17:31</time>
      </trkpt>
      <trkpt lat="41.50103" lon="0.87303">
        <ele>402.4</ele>
        <time>2022-05-23 20:17:32</time>
      </trkpt>
      <trkpt lat="41.501" lon="0.87304">
        <ele>402.4</ele>
        <time>2022-05-23 20:17:33</time>
      </trkpt>
      <trkpt lat="41.50097" lon="0.87305">
        <ele>402.6</ele>
        <time>2022-05-23 20:17:34</time>
      </trkpt>
      <trkpt lat="41.50094" lon="0.87306">
        <ele>402.6</ele>
        <time>2022-05-23 20:17:35</time>
      </trkpt>
      <trkpt lat="41.50091" lon="0.87307">
        <ele>402.8</ele>
        <time>2022-05-23 20:17:36</time>
      </trkpt>
      <trkpt lat="41.50088" lon="0.87309">
        <ele>402.8</ele>
        <time>2022-05-23 20:17:37</time>
      </trkpt>
      <trkpt lat="41.50085" lon="0.87311">
        <ele>403</ele>
        <time>2022-05-23 20:17:38</time>
      </trkpt>
      <trkpt lat="41.50082" lon="0.87312">
        <ele>403</ele>
        <time>2022-05-23 20:17:39</time>
      </trkpt>
      <trkpt lat="41.50079" lon="0.87314">
        <ele>403</ele>
        <time>2022-05-23 20:17:40</time>
      </trkpt>
      <trkpt lat="41.50077" lon="0.87315">
        <ele>403.2</ele>
        <time>2022-05-23 20:17:41</time>
      </trkpt>
      <trkpt lat="41.50074" lon="0.87317">
        <ele>403.2</ele>
        <time>2022-05-23 20:17:42</time>
      </trkpt>
      <trkpt lat="41.50071" lon="0.87318">
        <ele>403.4</ele>
        <time>2022-05-23 20:17:43</time>
      </trkpt>
      <trkpt lat="41.50068" lon="0.87319">
        <ele>403.4</ele>
        <time>2022-05-23 20:17:44</time>
      </trkpt>
      <trkpt lat="41.50065" lon="0.87321">
        <ele>403.6</ele>
        <time>2022-05-23 20:17:45</time>
      </trkpt>
      <trkpt lat="41.50062" lon="0.87322">
        <ele>403.6</ele>
        <time>2022-05-23 20:17:46</time>
      </trkpt>
      <trkpt lat="41.50059" lon="0.87323">
        <ele>403.8</ele>
        <time>2022-05-23 20:17:47</time>
      </trkpt>
      <trkpt lat="41.50057" lon="0.87325">
        <ele>403.8</ele>
        <time>2022-05-23 20:17:48</time>
      </trkpt>
      <trkpt lat="41.50054" lon="0.87327">
        <ele>403.8</ele>
        <time>2022-05-23 20:17:49</time>
      </trkpt>
      <trkpt lat="41.50051" lon="0.87328">
        <ele>404</ele>
        <time>2022-05-23 20:17:50</time>
      </trkpt>
      <trkpt lat="41.50048" lon="0.8733">
        <ele>404</ele>
        <time>2022-05-23 20:17:51</time>
      </trkpt>
      <trkpt lat="41.50046" lon="0.87331">
        <ele>404.2</ele>
        <time>2022-05-23 20:17:52</time>
      </trkpt>
      <trkpt lat="41.50043" lon="0.87333">
        <ele>404.2</ele>
        <time>2022-05-23 20:17:53</time>
      </trkpt>
      <trkpt lat="41.5004" lon="0.87334">
        <ele>404.4</ele>
        <time>2022-05-23 20:17:54</time>
      </trkpt>
      <trkpt lat="41.50037" lon="0.87336">
        <ele>404.4</ele>
        <time>2022-05-23 20:17:55</time>
      </trkpt>
      <trkpt lat="41.50035" lon="0.87337">
        <ele>404.6</ele>
        <time>2022-05-23 20:17:56</time>
      </trkpt>
      <trkpt lat="41.50032" lon="0.87339">
        <ele>404.6</ele>
        <time>2022-05-23 20:17:57</time>
      </trkpt>
      <trkpt lat="41.50029" lon="0.8734">
        <ele>404.8</ele>
        <time>2022-05-23 20:17:58</time>
      </trkpt>
      <trkpt lat="41.50026" lon="0.87341">
        <ele>404.8</ele>
        <time>2022-05-23 20:17:59</time>
      </trkpt>
      <trkpt lat="41.50024" lon="0.87343">
        <ele>405</ele>
        <time>2022-05-23 20:18:00</time>
      </trkpt>
      <trkpt lat="41.50021" lon="0.87345">
        <ele>405</ele>
        <time>2022-05-23 20:18:01</time>
      </trkpt>
      <trkpt lat="41.50018" lon="0.87346">
        <ele>405.2</ele>
        <time>2022-05-23 20:18:02</time>
      </trkpt>
      <trkpt lat="41.50015" lon="0.87348">
        <ele>405.2</ele>
        <time>2022-05-23 20:18:03</time>
      </trkpt>
      <trkpt lat="41.50012" lon="0.87349">
        <ele>405.4</ele>
        <time>2022-05-23 20:18:04</time>
      </trkpt>
      <trkpt lat="41.50009" lon="0.87351">
        <ele>405.4</ele>
        <time>2022-05-23 20:18:05</time>
      </trkpt>
      <trkpt lat="41.50006" lon="0.87352">
        <ele>405.4</ele>
        <time>2022-05-23 20:18:06</time>
      </trkpt>
      <trkpt lat="41.50004" lon="0.87354">
        <ele>405.6</ele>
        <time>2022-05-23 20:18:07</time>
      </trkpt>
      <trkpt lat="41.50001" lon="0.87355">
        <ele>405.6</ele>
        <time>2022-05-23 20:18:08</time>
      </trkpt>
      <trkpt lat="41.49998" lon="0.87357">
        <ele>405.8</ele>
        <time>2022-05-23 20:18:09</time>
      </trkpt>
      <trkpt lat="41.49995" lon="0.87358">
        <ele>405.8</ele>
        <time>2022-05-23 20:18:10</time>
      </trkpt>
      <trkpt lat="41.49992" lon="0.8736">
        <ele>406</ele>
        <time>2022-05-23 20:18:11</time>
      </trkpt>
      <trkpt lat="41.49989" lon="0.87361">
        <ele>406</ele>
        <time>2022-05-23 20:18:12</time>
      </trkpt>
      <trkpt lat="41.49987" lon="0.87362">
        <ele>406.2</ele>
        <time>2022-05-23 20:18:13</time>
      </trkpt>
      <trkpt lat="41.49984" lon="0.87363">
        <ele>406.2</ele>
        <time>2022-05-23 20:18:14</time>
      </trkpt>
      <trkpt lat="41.49981" lon="0.87365">
        <ele>406.4</ele>
        <time>2022-05-23 20:18:15</time>
      </trkpt>
      <trkpt lat="41.49978" lon="0.87366">
        <ele>406.4</ele>
        <time>2022-05-23 20:18:16</time>
      </trkpt>
      <trkpt lat="41.49975" lon="0.87368">
        <ele>406.6</ele>
        <time>2022-05-23 20:18:17</time>
      </trkpt>
      <trkpt lat="41.49972" lon="0.87369">
        <ele>406.6</ele>
        <time>2022-05-23 20:18:18</time>
      </trkpt>
      <trkpt lat="41.49969" lon="0.8737">
        <ele>406.6</ele>
        <time>2022-05-23 20:18:19</time>
      </trkpt>
      <trkpt lat="41.49966" lon="0.87371">
        <ele>406.8</ele>
        <time>2022-05-23 20:18:20</time>
      </trkpt>
      <trkpt lat="41.49963" lon="0.87372">
        <ele>406.8</ele>
        <time>2022-05-23 20:18:21</time>
      </trkpt>
      <trkpt lat="41.4996" lon="0.87373">
        <ele>407</ele>
        <time>2022-05-23 20:18:22</time>
      </trkpt>
      <trkpt lat="41.49958" lon="0.87373">
        <ele>407</ele>
        <time>2022-05-23 20:18:23</time>
      </trkpt>
      <trkpt lat="41.49954" lon="0.87374">
        <ele>407.2</ele>
        <time>2022-05-23 20:18:24</time>
      </trkpt>
      <trkpt lat="41.49951" lon="0.87375">
        <ele>407.2</ele>
        <time>2022-05-23 20:18:25</time>
      </trkpt>
      <trkpt lat="41.49949" lon="0.87376">
        <ele>407.4</ele>
        <time>2022-05-23 20:18:26</time>
      </trkpt>
      <trkpt lat="41.49946" lon="0.87376">
        <ele>407.4</ele>
        <time>2022-05-23 20:18:27</time>
      </trkpt>
      <trkpt lat="41.49943" lon="0.87377">
        <ele>407.6</ele>
        <time>2022-05-23 20:18:28</time>
      </trkpt>
      <trkpt lat="41.4994" lon="0.87377">
        <ele>407.6</ele>
        <time>2022-05-23 20:18:29</time>
      </trkpt>
      <trkpt lat="41.49939" lon="0.87377">
        <ele>407.6</ele>
        <time>2022-05-23 20:18:30</time>
      </trkpt>
      <trkpt lat="41.49937" lon="0.87377">
        <ele>407.8</ele>
        <time>2022-05-23 20:18:31</time>
      </trkpt>
      <trkpt lat="41.49932" lon="0.87378">
        <ele>407.8</ele>
        <time>2022-05-23 20:18:32</time>
      </trkpt>
      <trkpt lat="41.49929" lon="0.87378">
        <ele>408</ele>
        <time>2022-05-23 20:18:33</time>
      </trkpt>
      <trkpt lat="41.49926" lon="0.87378">
        <ele>408</ele>
        <time>2022-05-23 20:18:34</time>
      </trkpt>
      <trkpt lat="41.49923" lon="0.87379">
        <ele>408.2</ele>
        <time>2022-05-23 20:18:35</time>
      </trkpt>
      <trkpt lat="41.49921" lon="0.87379">
        <ele>408.2</ele>
        <time>2022-05-23 20:18:36</time>
      </trkpt>
      <trkpt lat="41.49917" lon="0.87379">
        <ele>408.4</ele>
        <time>2022-05-23 20:18:37</time>
      </trkpt>
      <trkpt lat="41.49915" lon="0.87379">
        <ele>408.4</ele>
        <time>2022-05-23 20:18:38</time>
      </trkpt>
      <trkpt lat="41.49912" lon="0.8738">
        <ele>408.6</ele>
        <time>2022-05-23 20:18:39</time>
      </trkpt>
      <trkpt lat="41.49909" lon="0.8738">
        <ele>408.6</ele>
        <time>2022-05-23 20:18:40</time>
      </trkpt>
      <trkpt lat="41.49906" lon="0.8738">
        <ele>408.8</ele>
        <time>2022-05-23 20:18:41</time>
      </trkpt>
      <trkpt lat="41.49902" lon="0.8738">
        <ele>408.8</ele>
        <time>2022-05-23 20:18:42</time>
      </trkpt>
      <trkpt lat="41.49899" lon="0.8738">
        <ele>408.8</ele>
        <time>2022-05-23 20:18:43</time>
      </trkpt>
      <trkpt lat="41.49896" lon="0.8738">
        <ele>409</ele>
        <time>2022-05-23 20:18:44</time>
      </trkpt>
      <trkpt lat="41.49893" lon="0.8738">
        <ele>409</ele>
        <time>2022-05-23 20:18:45</time>
      </trkpt>
      <trkpt lat="41.4989" lon="0.8738">
        <ele>409.2</ele>
        <time>2022-05-23 20:18:46</time>
      </trkpt>
      <trkpt lat="41.49887" lon="0.8738">
        <ele>409.2</ele>
        <time>2022-05-23 20:18:47</time>
      </trkpt>
      <trkpt lat="41.49884" lon="0.8738">
        <ele>409.2</ele>
        <time>2022-05-23 20:18:48</time>
      </trkpt>
      <trkpt lat="41.4988" lon="0.8738">
        <ele>409.4</ele>
        <time>2022-05-23 20:18:49</time>
      </trkpt>
      <trkpt lat="41.49877" lon="0.8738">
        <ele>409.4</ele>
        <time>2022-05-23 20:18:50</time>
      </trkpt>
      <trkpt lat="41.49873" lon="0.8738">
        <ele>409.4</ele>
        <time>2022-05-23 20:18:51</time>
      </trkpt>
      <trkpt lat="41.49869" lon="0.8738">
        <ele>409.6</ele>
        <time>2022-05-23 20:18:52</time>
      </trkpt>
      <trkpt lat="41.49866" lon="0.8738">
        <ele>409.6</ele>
        <time>2022-05-23 20:18:53</time>
      </trkpt>
      <trkpt lat="41.49862" lon="0.8738">
        <ele>409.6</ele>
        <time>2022-05-23 20:18:54</time>
      </trkpt>
      <trkpt lat="41.49859" lon="0.8738">
        <ele>409.8</ele>
        <time>2022-05-23 20:18:55</time>
      </trkpt>
      <trkpt lat="41.49855" lon="0.8738">
        <ele>409.8</ele>
        <time>2022-05-23 20:18:56</time>
      </trkpt>
      <trkpt lat="41.49852" lon="0.87381">
        <ele>410</ele>
        <time>2022-05-23 20:18:57</time>
      </trkpt>
      <trkpt lat="41.49849" lon="0.87381">
        <ele>410</ele>
        <time>2022-05-23 20:18:58</time>
      </trkpt>
      <trkpt lat="41.49845" lon="0.87381">
        <ele>410</ele>
        <time>2022-05-23 20:18:59</time>
      </trkpt>
      <trkpt lat="41.49842" lon="0.87381">
        <ele>410</ele>
        <time>2022-05-23 20:19:00</time>
      </trkpt>
      <trkpt lat="41.49839" lon="0.87381">
        <ele>410.2</ele>
        <time>2022-05-23 20:19:01</time>
      </trkpt>
      <trkpt lat="41.49836" lon="0.87381">
        <ele>410.2</ele>
        <time>2022-05-23 20:19:02</time>
      </trkpt>
      <trkpt lat="41.49832" lon="0.87381">
        <ele>410.4</ele>
        <time>2022-05-23 20:19:03</time>
      </trkpt>
      <trkpt lat="41.49829" lon="0.87381">
        <ele>410.4</ele>
        <time>2022-05-23 20:19:04</time>
      </trkpt>
      <trkpt lat="41.49826" lon="0.87381">
        <ele>410.4</ele>
        <time>2022-05-23 20:19:05</time>
      </trkpt>
      <trkpt lat="41.49823" lon="0.87381">
        <ele>410.6</ele>
        <time>2022-05-23 20:19:06</time>
      </trkpt>
      <trkpt lat="41.49819" lon="0.87381">
        <ele>410.6</ele>
        <time>2022-05-23 20:19:07</time>
      </trkpt>
      <trkpt lat="41.49816" lon="0.87381">
        <ele>410.6</ele>
        <time>2022-05-23 20:19:08</time>
      </trkpt>
      <trkpt lat="41.49813" lon="0.87381">
        <ele>410.8</ele>
        <time>2022-05-23 20:19:09</time>
      </trkpt>
      <trkpt lat="41.4981" lon="0.87381">
        <ele>410.8</ele>
        <time>2022-05-23 20:19:10</time>
      </trkpt>
      <trkpt lat="41.49806" lon="0.87381">
        <ele>410.8</ele>
        <time>2022-05-23 20:19:11</time>
      </trkpt>
      <trkpt lat="41.49803" lon="0.87381">
        <ele>411</ele>
        <time>2022-05-23 20:19:12</time>
      </trkpt>
      <trkpt lat="41.498" lon="0.87381">
        <ele>411</ele>
        <time>2022-05-23 20:19:13</time>
      </trkpt>
      <trkpt lat="41.49797" lon="0.87381">
        <ele>411</ele>
        <time>2022-05-23 20:19:14</time>
      </trkpt>
      <trkpt lat="41.49793" lon="0.87381">
        <ele>411.2</ele>
        <time>2022-05-23 20:19:15</time>
      </trkpt>
      <trkpt lat="41.4979" lon="0.87381">
        <ele>411.2</ele>
        <time>2022-05-23 20:19:16</time>
      </trkpt>
      <trkpt lat="41.49787" lon="0.87381">
        <ele>411.2</ele>
        <time>2022-05-23 20:19:17</time>
      </trkpt>
      <trkpt lat="41.49784" lon="0.87382">
        <ele>411.4</ele>
        <time>2022-05-23 20:19:18</time>
      </trkpt>
      <trkpt lat="41.4978" lon="0.87382">
        <ele>411.4</ele>
        <time>2022-05-23 20:19:19</time>
      </trkpt>
      <trkpt lat="41.49777" lon="0.87382">
        <ele>411.4</ele>
        <time>2022-05-23 20:19:20</time>
      </trkpt>
      <trkpt lat="41.49773" lon="0.87382">
        <ele>411.6</ele>
        <time>2022-05-23 20:19:21</time>
      </trkpt>
      <trkpt lat="41.4977" lon="0.87382">
        <ele>411.6</ele>
        <time>2022-05-23 20:19:22</time>
      </trkpt>
      <trkpt lat="41.49767" lon="0.87383">
        <ele>411.6</ele>
        <time>2022-05-23 20:19:23</time>
      </trkpt>
      <trkpt lat="41.49764" lon="0.87383">
        <ele>411.8</ele>
        <time>2022-05-23 20:19:24</time>
      </trkpt>
      <trkpt lat="41.49761" lon="0.87383">
        <ele>411.8</ele>
        <time>2022-05-23 20:19:25</time>
      </trkpt>
      <trkpt lat="41.49757" lon="0.87383">
        <ele>411.8</ele>
        <time>2022-05-23 20:19:26</time>
      </trkpt>
      <trkpt lat="41.49754" lon="0.87383">
        <ele>412</ele>
        <time>2022-05-23 20:19:27</time>
      </trkpt>
      <trkpt lat="41.49751" lon="0.87383">
        <ele>412</ele>
        <time>2022-05-23 20:19:28</time>
      </trkpt>
      <trkpt lat="41.49747" lon="0.87383">
        <ele>412</ele>
        <time>2022-05-23 20:19:29</time>
      </trkpt>
      <trkpt lat="41.49744" lon="0.87383">
        <ele>412.2</ele>
        <time>2022-05-23 20:19:30</time>
      </trkpt>
      <trkpt lat="41.4974" lon="0.87384">
        <ele>412.2</ele>
        <time>2022-05-23 20:19:31</time>
      </trkpt>
      <trkpt lat="41.49737" lon="0.87384">
        <ele>412.2</ele>
        <time>2022-05-23 20:19:32</time>
      </trkpt>
      <trkpt lat="41.49734" lon="0.87384">
        <ele>412.4</ele>
        <time>2022-05-23 20:19:33</time>
      </trkpt>
      <trkpt lat="41.4973" lon="0.87383">
        <ele>412.4</ele>
        <time>2022-05-23 20:19:34</time>
      </trkpt>
      <trkpt lat="41.49727" lon="0.87383">
        <ele>412.4</ele>
        <time>2022-05-23 20:19:35</time>
      </trkpt>
      <trkpt lat="41.49724" lon="0.87383">
        <ele>412.6</ele>
        <time>2022-05-23 20:19:36</time>
      </trkpt>
      <trkpt lat="41.4972" lon="0.87383">
        <ele>412.6</ele>
        <time>2022-05-23 20:19:37</time>
      </trkpt>
      <trkpt lat="41.49717" lon="0.87383">
        <ele>412.8</ele>
        <time>2022-05-23 20:19:38</time>
      </trkpt>
      <trkpt lat="41.49714" lon="0.87383">
        <ele>412.8</ele>
        <time>2022-05-23 20:19:39</time>
      </trkpt>
      <trkpt lat="41.49711" lon="0.87383">
        <ele>412.8</ele>
        <time>2022-05-23 20:19:40</time>
      </trkpt>
      <trkpt lat="41.49708" lon="0.87383">
        <ele>413</ele>
        <time>2022-05-23 20:19:41</time>
      </trkpt>
      <trkpt lat="41.49705" lon="0.87383">
        <ele>413</ele>
        <time>2022-05-23 20:19:42</time>
      </trkpt>
      <trkpt lat="41.49702" lon="0.87383">
        <ele>413</ele>
        <time>2022-05-23 20:19:43</time>
      </trkpt>
      <trkpt lat="41.49699" lon="0.87383">
        <ele>413.2</ele>
        <time>2022-05-23 20:19:44</time>
      </trkpt>
      <trkpt lat="41.49695" lon="0.87383">
        <ele>413.2</ele>
        <time>2022-05-23 20:19:45</time>
      </trkpt>
      <trkpt lat="41.49693" lon="0.87383">
        <ele>413.2</ele>
        <time>2022-05-23 20:19:46</time>
      </trkpt>
      <trkpt lat="41.49688" lon="0.87383">
        <ele>413.2</ele>
        <time>2022-05-23 20:19:47</time>
      </trkpt>
      <trkpt lat="41.49685" lon="0.87384">
        <ele>413.4</ele>
        <time>2022-05-23 20:19:48</time>
      </trkpt>
      <trkpt lat="41.49682" lon="0.87384">
        <ele>413.4</ele>
        <time>2022-05-23 20:19:49</time>
      </trkpt>
      <trkpt lat="41.49678" lon="0.87384">
        <ele>413.6</ele>
        <time>2022-05-23 20:19:50</time>
      </trkpt>
      <trkpt lat="41.49675" lon="0.87384">
        <ele>413.6</ele>
        <time>2022-05-23 20:19:51</time>
      </trkpt>
      <trkpt lat="41.49672" lon="0.87384">
        <ele>413.6</ele>
        <time>2022-05-23 20:19:52</time>
      </trkpt>
      <trkpt lat="41.49668" lon="0.87384">
        <ele>413.8</ele>
        <time>2022-05-23 20:19:53</time>
      </trkpt>
      <trkpt lat="41.49665" lon="0.87384">
        <ele>413.8</ele>
        <time>2022-05-23 20:19:54</time>
      </trkpt>
      <trkpt lat="41.49662" lon="0.87384">
        <ele>414</ele>
        <time>2022-05-23 20:19:55</time>
      </trkpt>
      <trkpt lat="41.49659" lon="0.87384">
        <ele>414</ele>
        <time>2022-05-23 20:19:56</time>
      </trkpt>
      <trkpt lat="41.49656" lon="0.87383">
        <ele>414.2</ele>
        <time>2022-05-23 20:19:57</time>
      </trkpt>
      <trkpt lat="41.49653" lon="0.87383">
        <ele>414.2</ele>
        <time>2022-05-23 20:19:58</time>
      </trkpt>
      <trkpt lat="41.4965" lon="0.87383">
        <ele>414.4</ele>
        <time>2022-05-23 20:19:59</time>
      </trkpt>
      <trkpt lat="41.49647" lon="0.87383">
        <ele>414.4</ele>
        <time>2022-05-23 20:20:00</time>
      </trkpt>
      <trkpt lat="41.49644" lon="0.87383">
        <ele>414.6</ele>
        <time>2022-05-23 20:20:01</time>
      </trkpt>
      <trkpt lat="41.49642" lon="0.87383">
        <ele>414.6</ele>
        <time>2022-05-23 20:20:02</time>
      </trkpt>
      <trkpt lat="41.49639" lon="0.87383">
        <ele>414.8</ele>
        <time>2022-05-23 20:20:03</time>
      </trkpt>
      <trkpt lat="41.49636" lon="0.87383">
        <ele>414.8</ele>
        <time>2022-05-23 20:20:04</time>
      </trkpt>
      <trkpt lat="41.49633" lon="0.87384">
        <ele>415</ele>
        <time>2022-05-23 20:20:05</time>
      </trkpt>
      <trkpt lat="41.49631" lon="0.87384">
        <ele>415</ele>
        <time>2022-05-23 20:20:06</time>
      </trkpt>
      <trkpt lat="41.49627" lon="0.87384">
        <ele>415.2</ele>
        <time>2022-05-23 20:20:07</time>
      </trkpt>
      <trkpt lat="41.49625" lon="0.87384">
        <ele>415.2</ele>
        <time>2022-05-23 20:20:08</time>
      </trkpt>
      <trkpt lat="41.49621" lon="0.87384">
        <ele>415.4</ele>
        <time>2022-05-23 20:20:09</time>
      </trkpt>
      <trkpt lat="41.49619" lon="0.87384">
        <ele>415.4</ele>
        <time>2022-05-23 20:20:10</time>
      </trkpt>
      <trkpt lat="41.49616" lon="0.87384">
        <ele>415.6</ele>
        <time>2022-05-23 20:20:11</time>
      </trkpt>
      <trkpt lat="41.49613" lon="0.87384">
        <ele>415.8</ele>
        <time>2022-05-23 20:20:12</time>
      </trkpt>
      <trkpt lat="41.49611" lon="0.87385">
        <ele>415.8</ele>
        <time>2022-05-23 20:20:13</time>
      </trkpt>
      <trkpt lat="41.49609" lon="0.87385">
        <ele>416</ele>
        <time>2022-05-23 20:20:14</time>
      </trkpt>
      <trkpt lat="41.49606" lon="0.87385">
        <ele>416.2</ele>
        <time>2022-05-23 20:20:15</time>
      </trkpt>
      <trkpt lat="41.49603" lon="0.87385">
        <ele>416.2</ele>
        <time>2022-05-23 20:20:16</time>
      </trkpt>
      <trkpt lat="41.49601" lon="0.87385">
        <ele>416.4</ele>
        <time>2022-05-23 20:20:17</time>
      </trkpt>
      <trkpt lat="41.49598" lon="0.87385">
        <ele>416.4</ele>
        <time>2022-05-23 20:20:18</time>
      </trkpt>
      <trkpt lat="41.49596" lon="0.87386">
        <ele>416.6</ele>
        <time>2022-05-23 20:20:19</time>
      </trkpt>
      <trkpt lat="41.49593" lon="0.87386">
        <ele>416.8</ele>
        <time>2022-05-23 20:20:20</time>
      </trkpt>
      <trkpt lat="41.49591" lon="0.87387">
        <ele>416.8</ele>
        <time>2022-05-23 20:20:21</time>
      </trkpt>
      <trkpt lat="41.49588" lon="0.87387">
        <ele>417</ele>
        <time>2022-05-23 20:20:22</time>
      </trkpt>
      <trkpt lat="41.49585" lon="0.87388">
        <ele>417</ele>
        <time>2022-05-23 20:20:23</time>
      </trkpt>
      <trkpt lat="41.49583" lon="0.87389">
        <ele>417.2</ele>
        <time>2022-05-23 20:20:24</time>
      </trkpt>
      <trkpt lat="41.4958" lon="0.87389">
        <ele>417.2</ele>
        <time>2022-05-23 20:20:25</time>
      </trkpt>
      <trkpt lat="41.49578" lon="0.8739">
        <ele>417.4</ele>
        <time>2022-05-23 20:20:26</time>
      </trkpt>
      <trkpt lat="41.49575" lon="0.8739">
        <ele>417.6</ele>
        <time>2022-05-23 20:20:27</time>
      </trkpt>
      <trkpt lat="41.49573" lon="0.87391">
        <ele>417.6</ele>
        <time>2022-05-23 20:20:28</time>
      </trkpt>
      <trkpt lat="41.4957" lon="0.87392">
        <ele>417.8</ele>
        <time>2022-05-23 20:20:29</time>
      </trkpt>
      <trkpt lat="41.49568" lon="0.87393">
        <ele>417.8</ele>
        <time>2022-05-23 20:20:30</time>
      </trkpt>
      <trkpt lat="41.49565" lon="0.87394">
        <ele>418</ele>
        <time>2022-05-23 20:20:31</time>
      </trkpt>
      <trkpt lat="41.49563" lon="0.87395">
        <ele>418</ele>
        <time>2022-05-23 20:20:32</time>
      </trkpt>
      <trkpt lat="41.4956" lon="0.87396">
        <ele>418.2</ele>
        <time>2022-05-23 20:20:33</time>
      </trkpt>
      <trkpt lat="41.49558" lon="0.87396">
        <ele>418.2</ele>
        <time>2022-05-23 20:20:34</time>
      </trkpt>
      <trkpt lat="41.49555" lon="0.87398">
        <ele>418.4</ele>
        <time>2022-05-23 20:20:35</time>
      </trkpt>
      <trkpt lat="41.49553" lon="0.87399">
        <ele>418.4</ele>
        <time>2022-05-23 20:20:36</time>
      </trkpt>
      <trkpt lat="41.4955" lon="0.874">
        <ele>418.4</ele>
        <time>2022-05-23 20:20:37</time>
      </trkpt>
      <trkpt lat="41.49548" lon="0.87401">
        <ele>418.6</ele>
        <time>2022-05-23 20:20:38</time>
      </trkpt>
      <trkpt lat="41.49544" lon="0.87402">
        <ele>418.6</ele>
        <time>2022-05-23 20:20:39</time>
      </trkpt>
      <trkpt lat="41.49542" lon="0.87403">
        <ele>418.8</ele>
        <time>2022-05-23 20:20:40</time>
      </trkpt>
      <trkpt lat="41.49539" lon="0.87405">
        <ele>418.8</ele>
        <time>2022-05-23 20:20:41</time>
      </trkpt>
      <trkpt lat="41.49538" lon="0.87406">
        <ele>419</ele>
        <time>2022-05-23 20:20:42</time>
      </trkpt>
      <trkpt lat="41.49535" lon="0.87408">
        <ele>419</ele>
        <time>2022-05-23 20:20:43</time>
      </trkpt>
      <trkpt lat="41.49532" lon="0.87409">
        <ele>419</ele>
        <time>2022-05-23 20:20:44</time>
      </trkpt>
      <trkpt lat="41.4953" lon="0.8741">
        <ele>419.2</ele>
        <time>2022-05-23 20:20:45</time>
      </trkpt>
      <trkpt lat="41.49528" lon="0.87412">
        <ele>419.2</ele>
        <time>2022-05-23 20:20:46</time>
      </trkpt>
      <trkpt lat="41.49525" lon="0.87413">
        <ele>419.2</ele>
        <time>2022-05-23 20:20:47</time>
      </trkpt>
      <trkpt lat="41.49523" lon="0.87415">
        <ele>419.4</ele>
        <time>2022-05-23 20:20:48</time>
      </trkpt>
      <trkpt lat="41.4952" lon="0.87416">
        <ele>419.4</ele>
        <time>2022-05-23 20:20:49</time>
      </trkpt>
      <trkpt lat="41.49518" lon="0.87418">
        <ele>419.6</ele>
        <time>2022-05-23 20:20:50</time>
      </trkpt>
      <trkpt lat="41.49515" lon="0.87419">
        <ele>419.6</ele>
        <time>2022-05-23 20:20:51</time>
      </trkpt>
      <trkpt lat="41.49513" lon="0.87421">
        <ele>419.6</ele>
        <time>2022-05-23 20:20:52</time>
      </trkpt>
      <trkpt lat="41.49511" lon="0.87422">
        <ele>419.8</ele>
        <time>2022-05-23 20:20:53</time>
      </trkpt>
      <trkpt lat="41.49508" lon="0.87424">
        <ele>419.8</ele>
        <time>2022-05-23 20:20:54</time>
      </trkpt>
      <trkpt lat="41.49506" lon="0.87425">
        <ele>419.8</ele>
        <time>2022-05-23 20:20:55</time>
      </trkpt>
      <trkpt lat="41.49503" lon="0.87427">
        <ele>420</ele>
        <time>2022-05-23 20:20:56</time>
      </trkpt>
      <trkpt lat="41.495" lon="0.87428">
        <ele>420</ele>
        <time>2022-05-23 20:20:57</time>
      </trkpt>
      <trkpt lat="41.49498" lon="0.87429">
        <ele>420</ele>
        <time>2022-05-23 20:20:58</time>
      </trkpt>
      <trkpt lat="41.49495" lon="0.87431">
        <ele>420.2</ele>
        <time>2022-05-23 20:20:59</time>
      </trkpt>
      <trkpt lat="41.49493" lon="0.87433">
        <ele>420.2</ele>
        <time>2022-05-23 20:21:00</time>
      </trkpt>
      <trkpt lat="41.4949" lon="0.87434">
        <ele>420.4</ele>
        <time>2022-05-23 20:21:01</time>
      </trkpt>
      <trkpt lat="41.49488" lon="0.87436">
        <ele>420.4</ele>
        <time>2022-05-23 20:21:02</time>
      </trkpt>
      <trkpt lat="41.49485" lon="0.87437">
        <ele>420.4</ele>
        <time>2022-05-23 20:21:03</time>
      </trkpt>
      <trkpt lat="41.49482" lon="0.87439">
        <ele>420.6</ele>
        <time>2022-05-23 20:21:04</time>
      </trkpt>
      <trkpt lat="41.49479" lon="0.8744">
        <ele>420.6</ele>
        <time>2022-05-23 20:21:05</time>
      </trkpt>
      <trkpt lat="41.49477" lon="0.87442">
        <ele>420.6</ele>
        <time>2022-05-23 20:21:06</time>
      </trkpt>
      <trkpt lat="41.49474" lon="0.87444">
        <ele>420.8</ele>
        <time>2022-05-23 20:21:07</time>
      </trkpt>
      <trkpt lat="41.49471" lon="0.87445">
        <ele>420.8</ele>
        <time>2022-05-23 20:21:08</time>
      </trkpt>
      <trkpt lat="41.49469" lon="0.87447">
        <ele>420.8</ele>
        <time>2022-05-23 20:21:09</time>
      </trkpt>
      <trkpt lat="41.49466" lon="0.87448">
        <ele>420.8</ele>
        <time>2022-05-23 20:21:10</time>
      </trkpt>
      <trkpt lat="41.49463" lon="0.8745">
        <ele>421</ele>
        <time>2022-05-23 20:21:11</time>
      </trkpt>
      <trkpt lat="41.4946" lon="0.87451">
        <ele>421</ele>
        <time>2022-05-23 20:21:12</time>
      </trkpt>
      <trkpt lat="41.49457" lon="0.87453">
        <ele>421</ele>
        <time>2022-05-23 20:21:13</time>
      </trkpt>
      <trkpt lat="41.49454" lon="0.87454">
        <ele>421.2</ele>
        <time>2022-05-23 20:21:14</time>
      </trkpt>
      <trkpt lat="41.49451" lon="0.87456">
        <ele>421.2</ele>
        <time>2022-05-23 20:21:15</time>
      </trkpt>
      <trkpt lat="41.49449" lon="0.87457">
        <ele>421.2</ele>
        <time>2022-05-23 20:21:16</time>
      </trkpt>
      <trkpt lat="41.49446" lon="0.87459">
        <ele>421.4</ele>
        <time>2022-05-23 20:21:17</time>
      </trkpt>
      <trkpt lat="41.49443" lon="0.8746">
        <ele>421.4</ele>
        <time>2022-05-23 20:21:18</time>
      </trkpt>
      <trkpt lat="41.49441" lon="0.87462">
        <ele>421.4</ele>
        <time>2022-05-23 20:21:19</time>
      </trkpt>
      <trkpt lat="41.49438" lon="0.87463">
        <ele>421.4</ele>
        <time>2022-05-23 20:21:20</time>
      </trkpt>
      <trkpt lat="41.49435" lon="0.87465">
        <ele>421.4</ele>
        <time>2022-05-23 20:21:21</time>
      </trkpt>
      <trkpt lat="41.49431" lon="0.87467">
        <ele>421.6</ele>
        <time>2022-05-23 20:21:22</time>
      </trkpt>
      <trkpt lat="41.49428" lon="0.87469">
        <ele>421.6</ele>
        <time>2022-05-23 20:21:23</time>
      </trkpt>
      <trkpt lat="41.49424" lon="0.87471">
        <ele>421.6</ele>
        <time>2022-05-23 20:21:24</time>
      </trkpt>
      <trkpt lat="41.4942" lon="0.87473">
        <ele>421.6</ele>
        <time>2022-05-23 20:21:25</time>
      </trkpt>
      <trkpt lat="41.49418" lon="0.87475">
        <ele>421.8</ele>
        <time>2022-05-23 20:21:26</time>
      </trkpt>
      <trkpt lat="41.49414" lon="0.87477">
        <ele>421.8</ele>
        <time>2022-05-23 20:21:27</time>
      </trkpt>
      <trkpt lat="41.4941" lon="0.87479">
        <ele>421.8</ele>
        <time>2022-05-23 20:21:28</time>
      </trkpt>
      <trkpt lat="41.49407" lon="0.87481">
        <ele>421.8</ele>
        <time>2022-05-23 20:21:29</time>
      </trkpt>
      <trkpt lat="41.49404" lon="0.87483">
        <ele>421.8</ele>
        <time>2022-05-23 20:21:30</time>
      </trkpt>
      <trkpt lat="41.494" lon="0.87485">
        <ele>422</ele>
        <time>2022-05-23 20:21:31</time>
      </trkpt>
      <trkpt lat="41.49398" lon="0.87486">
        <ele>422</ele>
        <time>2022-05-23 20:21:32</time>
      </trkpt>
      <trkpt lat="41.49393" lon="0.87489">
        <ele>422</ele>
        <time>2022-05-23 20:21:33</time>
      </trkpt>
      <trkpt lat="41.49389" lon="0.87491">
        <ele>422</ele>
        <time>2022-05-23 20:21:34</time>
      </trkpt>
      <trkpt lat="41.49386" lon="0.87493">
        <ele>422</ele>
        <time>2022-05-23 20:21:35</time>
      </trkpt>
      <trkpt lat="41.49381" lon="0.87495">
        <ele>422</ele>
        <time>2022-05-23 20:21:36</time>
      </trkpt>
      <trkpt lat="41.49377" lon="0.87497">
        <ele>422</ele>
        <time>2022-05-23 20:21:37</time>
      </trkpt>
      <trkpt lat="41.49374" lon="0.87498">
        <ele>422</ele>
        <time>2022-05-23 20:21:38</time>
      </trkpt>
      <trkpt lat="41.49369" lon="0.875">
        <ele>422</ele>
        <time>2022-05-23 20:21:39</time>
      </trkpt>
      <trkpt lat="41.49365" lon="0.87502">
        <ele>422</ele>
        <time>2022-05-23 20:21:40</time>
      </trkpt>
      <trkpt lat="41.49361" lon="0.87503">
        <ele>422</ele>
        <time>2022-05-23 20:21:41</time>
      </trkpt>
      <trkpt lat="41.49356" lon="0.87504">
        <ele>422</ele>
        <time>2022-05-23 20:21:42</time>
      </trkpt>
      <trkpt lat="41.49353" lon="0.87505">
        <ele>422</ele>
        <time>2022-05-23 20:21:43</time>
      </trkpt>
      <trkpt lat="41.49347" lon="0.87507">
        <ele>422</ele>
        <time>2022-05-23 20:21:44</time>
      </trkpt>
      <trkpt lat="41.49344" lon="0.87507">
        <ele>422</ele>
        <time>2022-05-23 20:21:45</time>
      </trkpt>
      <trkpt lat="41.49338" lon="0.87508">
        <ele>422.2</ele>
        <time>2022-05-23 20:21:46</time>
      </trkpt>
      <trkpt lat="41.49334" lon="0.87509">
        <ele>422.2</ele>
        <time>2022-05-23 20:21:47</time>
      </trkpt>
      <trkpt lat="41.49329" lon="0.87509">
        <ele>422.2</ele>
        <time>2022-05-23 20:21:48</time>
      </trkpt>
      <trkpt lat="41.49325" lon="0.87509">
        <ele>422.2</ele>
        <time>2022-05-23 20:21:49</time>
      </trkpt>
      <trkpt lat="41.4932" lon="0.87509">
        <ele>422.2</ele>
        <time>2022-05-23 20:21:50</time>
      </trkpt>
      <trkpt lat="41.49317" lon="0.87509">
        <ele>422.2</ele>
        <time>2022-05-23 20:21:51</time>
      </trkpt>
      <trkpt lat="41.49311" lon="0.87508">
        <ele>422.2</ele>
        <time>2022-05-23 20:21:52</time>
      </trkpt>
      <trkpt lat="41.49307" lon="0.87508">
        <ele>422.4</ele>
        <time>2022-05-23 20:21:53</time>
      </trkpt>
      <trkpt lat="41.49302" lon="0.87507">
        <ele>422.4</ele>
        <time>2022-05-23 20:21:54</time>
      </trkpt>
      <trkpt lat="41.49298" lon="0.87507">
        <ele>422.4</ele>
        <time>2022-05-23 20:21:55</time>
      </trkpt>
      <trkpt lat="41.49294" lon="0.87507">
        <ele>422.4</ele>
        <time>2022-05-23 20:21:56</time>
      </trkpt>
      <trkpt lat="41.4929" lon="0.87506">
        <ele>422.6</ele>
        <time>2022-05-23 20:21:57</time>
      </trkpt>
      <trkpt lat="41.49286" lon="0.87505">
        <ele>422.6</ele>
        <time>2022-05-23 20:21:58</time>
      </trkpt>
      <trkpt lat="41.49281" lon="0.87504">
        <ele>422.6</ele>
        <time>2022-05-23 20:21:59</time>
      </trkpt>
      <trkpt lat="41.49277" lon="0.87503">
        <ele>422.6</ele>
        <time>2022-05-23 20:22:00</time>
      </trkpt>
      <trkpt lat="41.49273" lon="0.87502">
        <ele>422.6</ele>
        <time>2022-05-23 20:22:01</time>
      </trkpt>
      <trkpt lat="41.49268" lon="0.87501">
        <ele>422.6</ele>
        <time>2022-05-23 20:22:02</time>
      </trkpt>
      <trkpt lat="41.49264" lon="0.87501">
        <ele>422.6</ele>
        <time>2022-05-23 20:22:03</time>
      </trkpt>
      <trkpt lat="41.49259" lon="0.875">
        <ele>422.6</ele>
        <time>2022-05-23 20:22:04</time>
      </trkpt>
      <trkpt lat="41.49255" lon="0.87499">
        <ele>422.6</ele>
        <time>2022-05-23 20:22:05</time>
      </trkpt>
      <trkpt lat="41.4925" lon="0.87499">
        <ele>422.6</ele>
        <time>2022-05-23 20:22:06</time>
      </trkpt>
      <trkpt lat="41.49246" lon="0.87498">
        <ele>422.6</ele>
        <time>2022-05-23 20:22:07</time>
      </trkpt>
      <trkpt lat="41.49241" lon="0.87497">
        <ele>422.6</ele>
        <time>2022-05-23 20:22:08</time>
      </trkpt>
      <trkpt lat="41.49236" lon="0.87496">
        <ele>422.8</ele>
        <time>2022-05-23 20:22:09</time>
      </trkpt>
      <trkpt lat="41.49232" lon="0.87496">
        <ele>422.8</ele>
        <time>2022-05-23 20:22:10</time>
      </trkpt>
      <trkpt lat="41.49227" lon="0.87495">
        <ele>422.8</ele>
        <time>2022-05-23 20:22:11</time>
      </trkpt>
      <trkpt lat="41.49223" lon="0.87494">
        <ele>422.8</ele>
        <time>2022-05-23 20:22:12</time>
      </trkpt>
      <trkpt lat="41.49218" lon="0.87493">
        <ele>422.8</ele>
        <time>2022-05-23 20:22:13</time>
      </trkpt>
      <trkpt lat="41.49214" lon="0.87493">
        <ele>423</ele>
        <time>2022-05-23 20:22:14</time>
      </trkpt>
      <trkpt lat="41.49209" lon="0.87492">
        <ele>423</ele>
        <time>2022-05-23 20:22:15</time>
      </trkpt>
      <trkpt lat="41.49205" lon="0.87491">
        <ele>423</ele>
        <time>2022-05-23 20:22:16</time>
      </trkpt>
      <trkpt lat="41.492" lon="0.87491">
        <ele>423.2</ele>
        <time>2022-05-23 20:22:17</time>
      </trkpt>
      <trkpt lat="41.49196" lon="0.8749">
        <ele>423.2</ele>
        <time>2022-05-23 20:22:18</time>
      </trkpt>
      <trkpt lat="41.49192" lon="0.87489">
        <ele>423.2</ele>
        <time>2022-05-23 20:22:19</time>
      </trkpt>
      <trkpt lat="41.49188" lon="0.87488">
        <ele>423.4</ele>
        <time>2022-05-23 20:22:20</time>
      </trkpt>
      <trkpt lat="41.49184" lon="0.87487">
        <ele>423.6</ele>
        <time>2022-05-23 20:22:21</time>
      </trkpt>
      <trkpt lat="41.4918" lon="0.87487">
        <ele>423.6</ele>
        <time>2022-05-23 20:22:22</time>
      </trkpt>
      <trkpt lat="41.49177" lon="0.87486">
        <ele>423.8</ele>
        <time>2022-05-23 20:22:23</time>
      </trkpt>
      <trkpt lat="41.49173" lon="0.87485">
        <ele>423.8</ele>
        <time>2022-05-23 20:22:24</time>
      </trkpt>
      <trkpt lat="41.49169" lon="0.87485">
        <ele>424</ele>
        <time>2022-05-23 20:22:25</time>
      </trkpt>
      <trkpt lat="41.49166" lon="0.87485">
        <ele>424</ele>
        <time>2022-05-23 20:22:26</time>
      </trkpt>
      <trkpt lat="41.49162" lon="0.87484">
        <ele>424.2</ele>
        <time>2022-05-23 20:22:27</time>
      </trkpt>
      <trkpt lat="41.49159" lon="0.87483">
        <ele>424.2</ele>
        <time>2022-05-23 20:22:28</time>
      </trkpt>
      <trkpt lat="41.49155" lon="0.87483">
        <ele>424.2</ele>
        <time>2022-05-23 20:22:29</time>
      </trkpt>
      <trkpt lat="41.49151" lon="0.87482">
        <ele>424.2</ele>
        <time>2022-05-23 20:22:30</time>
      </trkpt>
      <trkpt lat="41.49147" lon="0.87482">
        <ele>424.4</ele>
        <time>2022-05-23 20:22:31</time>
      </trkpt>
      <trkpt lat="41.49143" lon="0.87481">
        <ele>424.4</ele>
        <time>2022-05-23 20:22:32</time>
      </trkpt>
      <trkpt lat="41.49139" lon="0.8748">
        <ele>424.4</ele>
        <time>2022-05-23 20:22:33</time>
      </trkpt>
      <trkpt lat="41.49135" lon="0.8748">
        <ele>424.4</ele>
        <time>2022-05-23 20:22:34</time>
      </trkpt>
      <trkpt lat="41.49131" lon="0.87479">
        <ele>424.6</ele>
        <time>2022-05-23 20:22:35</time>
      </trkpt>
      <trkpt lat="41.49127" lon="0.87479">
        <ele>424.6</ele>
        <time>2022-05-23 20:22:36</time>
      </trkpt>
      <trkpt lat="41.49122" lon="0.87478">
        <ele>424.6</ele>
        <time>2022-05-23 20:22:37</time>
      </trkpt>
      <trkpt lat="41.49118" lon="0.87478">
        <ele>424.8</ele>
        <time>2022-05-23 20:22:38</time>
      </trkpt>
      <trkpt lat="41.49113" lon="0.87479">
        <ele>424.8</ele>
        <time>2022-05-23 20:22:39</time>
      </trkpt>
      <trkpt lat="41.49108" lon="0.87479">
        <ele>424.8</ele>
        <time>2022-05-23 20:22:40</time>
      </trkpt>
      <trkpt lat="41.49104" lon="0.87479">
        <ele>425</ele>
        <time>2022-05-23 20:22:41</time>
      </trkpt>
      <trkpt lat="41.49099" lon="0.8748">
        <ele>425.2</ele>
        <time>2022-05-23 20:22:42</time>
      </trkpt>
      <trkpt lat="41.49096" lon="0.8748">
        <ele>425.2</ele>
        <time>2022-05-23 20:22:43</time>
      </trkpt>
      <trkpt lat="41.49091" lon="0.87481">
        <ele>425.2</ele>
        <time>2022-05-23 20:22:44</time>
      </trkpt>
      <trkpt lat="41.49087" lon="0.87482">
        <ele>425.4</ele>
        <time>2022-05-23 20:22:45</time>
      </trkpt>
      <trkpt lat="41.49083" lon="0.87483">
        <ele>425.4</ele>
        <time>2022-05-23 20:22:46</time>
      </trkpt>
      <trkpt lat="41.49079" lon="0.87484">
        <ele>425.6</ele>
        <time>2022-05-23 20:22:47</time>
      </trkpt>
      <trkpt lat="41.49076" lon="0.87485">
        <ele>425.6</ele>
        <time>2022-05-23 20:22:48</time>
      </trkpt>
      <trkpt lat="41.49072" lon="0.87486">
        <ele>425.6</ele>
        <time>2022-05-23 20:22:49</time>
      </trkpt>
      <trkpt lat="41.49068" lon="0.87488">
        <ele>425.8</ele>
        <time>2022-05-23 20:22:50</time>
      </trkpt>
      <trkpt lat="41.49065" lon="0.8749">
        <ele>425.8</ele>
        <time>2022-05-23 20:22:51</time>
      </trkpt>
      <trkpt lat="41.49061" lon="0.87491">
        <ele>426</ele>
        <time>2022-05-23 20:22:52</time>
      </trkpt>
      <trkpt lat="41.49058" lon="0.87493">
        <ele>426</ele>
        <time>2022-05-23 20:22:53</time>
      </trkpt>
      <trkpt lat="41.49054" lon="0.87495">
        <ele>426.2</ele>
        <time>2022-05-23 20:22:54</time>
      </trkpt>
      <trkpt lat="41.49051" lon="0.87497">
        <ele>426.2</ele>
        <time>2022-05-23 20:22:55</time>
      </trkpt>
      <trkpt lat="41.49047" lon="0.87498">
        <ele>426.4</ele>
        <time>2022-05-23 20:22:56</time>
      </trkpt>
      <trkpt lat="41.49044" lon="0.87501">
        <ele>426.4</ele>
        <time>2022-05-23 20:22:57</time>
      </trkpt>
      <trkpt lat="41.4904" lon="0.87503">
        <ele>426.6</ele>
        <time>2022-05-23 20:22:58</time>
      </trkpt>
      <trkpt lat="41.49038" lon="0.87504">
        <ele>426.6</ele>
        <time>2022-05-23 20:22:59</time>
      </trkpt>
      <trkpt lat="41.49034" lon="0.87506">
        <ele>426.8</ele>
        <time>2022-05-23 20:23:00</time>
      </trkpt>
      <trkpt lat="41.49032" lon="0.87509">
        <ele>427</ele>
        <time>2022-05-23 20:23:01</time>
      </trkpt>
      <trkpt lat="41.49028" lon="0.87511">
        <ele>427</ele>
        <time>2022-05-23 20:23:02</time>
      </trkpt>
      <trkpt lat="41.49025" lon="0.87513">
        <ele>427.2</ele>
        <time>2022-05-23 20:23:03</time>
      </trkpt>
      <trkpt lat="41.49022" lon="0.87515">
        <ele>427.2</ele>
        <time>2022-05-23 20:23:04</time>
      </trkpt>
      <trkpt lat="41.49019" lon="0.87517">
        <ele>427.4</ele>
        <time>2022-05-23 20:23:05</time>
      </trkpt>
      <trkpt lat="41.49016" lon="0.87519">
        <ele>427.6</ele>
        <time>2022-05-23 20:23:06</time>
      </trkpt>
      <trkpt lat="41.49014" lon="0.87521">
        <ele>427.8</ele>
        <time>2022-05-23 20:23:07</time>
      </trkpt>
      <trkpt lat="41.49011" lon="0.87523">
        <ele>427.8</ele>
        <time>2022-05-23 20:23:08</time>
      </trkpt>
      <trkpt lat="41.49009" lon="0.87525">
        <ele>428</ele>
        <time>2022-05-23 20:23:09</time>
      </trkpt>
      <trkpt lat="41.49006" lon="0.87527">
        <ele>428.2</ele>
        <time>2022-05-23 20:23:10</time>
      </trkpt>
      <trkpt lat="41.49003" lon="0.87529">
        <ele>428.2</ele>
        <time>2022-05-23 20:23:11</time>
      </trkpt>
      <trkpt lat="41.49" lon="0.87531">
        <ele>428.4</ele>
        <time>2022-05-23 20:23:12</time>
      </trkpt>
      <trkpt lat="41.48998" lon="0.87533">
        <ele>428.6</ele>
        <time>2022-05-23 20:23:13</time>
      </trkpt>
      <trkpt lat="41.48995" lon="0.87535">
        <ele>428.6</ele>
        <time>2022-05-23 20:23:14</time>
      </trkpt>
      <trkpt lat="41.48993" lon="0.87536">
        <ele>428.8</ele>
        <time>2022-05-23 20:23:15</time>
      </trkpt>
      <trkpt lat="41.4899" lon="0.87539">
        <ele>429</ele>
        <time>2022-05-23 20:23:16</time>
      </trkpt>
      <trkpt lat="41.48987" lon="0.87541">
        <ele>429</ele>
        <time>2022-05-23 20:23:17</time>
      </trkpt>
      <trkpt lat="41.48985" lon="0.87542">
        <ele>429.2</ele>
        <time>2022-05-23 20:23:18</time>
      </trkpt>
      <trkpt lat="41.48982" lon="0.87544">
        <ele>429.4</ele>
        <time>2022-05-23 20:23:19</time>
      </trkpt>
      <trkpt lat="41.4898" lon="0.87546">
        <ele>429.6</ele>
        <time>2022-05-23 20:23:20</time>
      </trkpt>
      <trkpt lat="41.48977" lon="0.87548">
        <ele>429.8</ele>
        <time>2022-05-23 20:23:21</time>
      </trkpt>
      <trkpt lat="41.48975" lon="0.8755">
        <ele>429.8</ele>
        <time>2022-05-23 20:23:22</time>
      </trkpt>
      <trkpt lat="41.48973" lon="0.87552">
        <ele>430</ele>
        <time>2022-05-23 20:23:23</time>
      </trkpt>
      <trkpt lat="41.4897" lon="0.87554">
        <ele>430.2</ele>
        <time>2022-05-23 20:23:24</time>
      </trkpt>
      <trkpt lat="41.48968" lon="0.87555">
        <ele>430.2</ele>
        <time>2022-05-23 20:23:25</time>
      </trkpt>
      <trkpt lat="41.48965" lon="0.87557">
        <ele>430.4</ele>
        <time>2022-05-23 20:23:26</time>
      </trkpt>
      <trkpt lat="41.48963" lon="0.87559">
        <ele>430.6</ele>
        <time>2022-05-23 20:23:27</time>
      </trkpt>
      <trkpt lat="41.4896" lon="0.87561">
        <ele>430.6</ele>
        <time>2022-05-23 20:23:28</time>
      </trkpt>
      <trkpt lat="41.48958" lon="0.87562">
        <ele>430.8</ele>
        <time>2022-05-23 20:23:29</time>
      </trkpt>
      <trkpt lat="41.48955" lon="0.87565">
        <ele>431</ele>
        <time>2022-05-23 20:23:30</time>
      </trkpt>
      <trkpt lat="41.48953" lon="0.87567">
        <ele>431</ele>
        <time>2022-05-23 20:23:31</time>
      </trkpt>
      <trkpt lat="41.4895" lon="0.87568">
        <ele>431.2</ele>
        <time>2022-05-23 20:23:32</time>
      </trkpt>
      <trkpt lat="41.48948" lon="0.8757">
        <ele>431.4</ele>
        <time>2022-05-23 20:23:33</time>
      </trkpt>
      <trkpt lat="41.48946" lon="0.87572">
        <ele>431.4</ele>
        <time>2022-05-23 20:23:34</time>
      </trkpt>
      <trkpt lat="41.48943" lon="0.87574">
        <ele>431.6</ele>
        <time>2022-05-23 20:23:35</time>
      </trkpt>
      <trkpt lat="41.48941" lon="0.87576">
        <ele>431.6</ele>
        <time>2022-05-23 20:23:36</time>
      </trkpt>
      <trkpt lat="41.48938" lon="0.87578">
        <ele>431.8</ele>
        <time>2022-05-23 20:23:37</time>
      </trkpt>
      <trkpt lat="41.48935" lon="0.8758">
        <ele>431.8</ele>
        <time>2022-05-23 20:23:38</time>
      </trkpt>
      <trkpt lat="41.48932" lon="0.87582">
        <ele>431.8</ele>
        <time>2022-05-23 20:23:39</time>
      </trkpt>
      <trkpt lat="41.48929" lon="0.87584">
        <ele>432</ele>
        <time>2022-05-23 20:23:40</time>
      </trkpt>
      <trkpt lat="41.48927" lon="0.87586">
        <ele>432</ele>
        <time>2022-05-23 20:23:41</time>
      </trkpt>
      <trkpt lat="41.48924" lon="0.87587">
        <ele>432</ele>
        <time>2022-05-23 20:23:42</time>
      </trkpt>
      <trkpt lat="41.48921" lon="0.87589">
        <ele>432.2</ele>
        <time>2022-05-23 20:23:43</time>
      </trkpt>
      <trkpt lat="41.48918" lon="0.87591">
        <ele>432.2</ele>
        <time>2022-05-23 20:23:44</time>
      </trkpt>
      <trkpt lat="41.48915" lon="0.87593">
        <ele>432.2</ele>
        <time>2022-05-23 20:23:45</time>
      </trkpt>
      <trkpt lat="41.48912" lon="0.87595">
        <ele>432.4</ele>
        <time>2022-05-23 20:23:46</time>
      </trkpt>
      <trkpt lat="41.48909" lon="0.87596">
        <ele>432.4</ele>
        <time>2022-05-23 20:23:47</time>
      </trkpt>
      <trkpt lat="41.48905" lon="0.87598">
        <ele>432.4</ele>
        <time>2022-05-23 20:23:48</time>
      </trkpt>
      <trkpt lat="41.48902" lon="0.876">
        <ele>432.4</ele>
        <time>2022-05-23 20:23:49</time>
      </trkpt>
      <trkpt lat="41.48899" lon="0.87602">
        <ele>432.4</ele>
        <time>2022-05-23 20:23:50</time>
      </trkpt>
      <trkpt lat="41.48895" lon="0.87604">
        <ele>432.4</ele>
        <time>2022-05-23 20:23:51</time>
      </trkpt>
      <trkpt lat="41.48892" lon="0.87606">
        <ele>432.6</ele>
        <time>2022-05-23 20:23:52</time>
      </trkpt>
      <trkpt lat="41.48888" lon="0.87608">
        <ele>432.6</ele>
        <time>2022-05-23 20:23:53</time>
      </trkpt>
      <trkpt lat="41.48885" lon="0.87609">
        <ele>432.6</ele>
        <time>2022-05-23 20:23:54</time>
      </trkpt>
      <trkpt lat="41.48881" lon="0.87611">
        <ele>432.6</ele>
        <time>2022-05-23 20:23:55</time>
      </trkpt>
      <trkpt lat="41.48878" lon="0.87612">
        <ele>432.6</ele>
        <time>2022-05-23 20:23:56</time>
      </trkpt>
      <trkpt lat="41.48874" lon="0.87614">
        <ele>432.8</ele>
        <time>2022-05-23 20:23:57</time>
      </trkpt>
      <trkpt lat="41.48871" lon="0.87616">
        <ele>432.8</ele>
        <time>2022-05-23 20:23:58</time>
      </trkpt>
      <trkpt lat="41.48867" lon="0.87618">
        <ele>432.8</ele>
        <time>2022-05-23 20:23:59</time>
      </trkpt>
      <trkpt lat="41.48863" lon="0.87619">
        <ele>433</ele>
        <time>2022-05-23 20:24:00</time>
      </trkpt>
      <trkpt lat="41.4886" lon="0.87621">
        <ele>433</ele>
        <time>2022-05-23 20:24:01</time>
      </trkpt>
      <trkpt lat="41.48856" lon="0.87623">
        <ele>433</ele>
        <time>2022-05-23 20:24:02</time>
      </trkpt>
      <trkpt lat="41.48852" lon="0.87624">
        <ele>433</ele>
        <time>2022-05-23 20:24:03</time>
      </trkpt>
      <trkpt lat="41.48849" lon="0.87626">
        <ele>432.8</ele>
        <time>2022-05-23 20:24:04</time>
      </trkpt>
      <trkpt lat="41.48846" lon="0.87628">
        <ele>433</ele>
        <time>2022-05-23 20:24:05</time>
      </trkpt>
      <trkpt lat="41.48842" lon="0.8763">
        <ele>433</ele>
        <time>2022-05-23 20:24:06</time>
      </trkpt>
      <trkpt lat="41.48838" lon="0.87632">
        <ele>433</ele>
        <time>2022-05-23 20:24:07</time>
      </trkpt>
      <trkpt lat="41.48835" lon="0.87634">
        <ele>433</ele>
        <time>2022-05-23 20:24:08</time>
      </trkpt>
      <trkpt lat="41.48831" lon="0.87635">
        <ele>433</ele>
        <time>2022-05-23 20:24:09</time>
      </trkpt>
      <trkpt lat="41.48828" lon="0.87636">
        <ele>433</ele>
        <time>2022-05-23 20:24:10</time>
      </trkpt>
      <trkpt lat="41.48824" lon="0.87638">
        <ele>433</ele>
        <time>2022-05-23 20:24:11</time>
      </trkpt>
      <trkpt lat="41.4882" lon="0.8764">
        <ele>433</ele>
        <time>2022-05-23 20:24:12</time>
      </trkpt>
      <trkpt lat="41.48815" lon="0.87642">
        <ele>433.2</ele>
        <time>2022-05-23 20:24:13</time>
      </trkpt>
      <trkpt lat="41.48811" lon="0.87644">
        <ele>433.2</ele>
        <time>2022-05-23 20:24:14</time>
      </trkpt>
      <trkpt lat="41.48807" lon="0.87646">
        <ele>433.2</ele>
        <time>2022-05-23 20:24:15</time>
      </trkpt>
      <trkpt lat="41.48803" lon="0.87648">
        <ele>433.2</ele>
        <time>2022-05-23 20:24:16</time>
      </trkpt>
      <trkpt lat="41.48799" lon="0.8765">
        <ele>433.2</ele>
        <time>2022-05-23 20:24:17</time>
      </trkpt>
      <trkpt lat="41.48794" lon="0.87652">
        <ele>433.2</ele>
        <time>2022-05-23 20:24:18</time>
      </trkpt>
      <trkpt lat="41.48789" lon="0.87654">
        <ele>433.2</ele>
        <time>2022-05-23 20:24:19</time>
      </trkpt>
      <trkpt lat="41.48784" lon="0.87657">
        <ele>433.2</ele>
        <time>2022-05-23 20:24:20</time>
      </trkpt>
      <trkpt lat="41.48779" lon="0.87659">
        <ele>433.4</ele>
        <time>2022-05-23 20:24:21</time>
      </trkpt>
      <trkpt lat="41.48774" lon="0.87661">
        <ele>433.4</ele>
        <time>2022-05-23 20:24:22</time>
      </trkpt>
      <trkpt lat="41.4877" lon="0.87663">
        <ele>433.4</ele>
        <time>2022-05-23 20:24:23</time>
      </trkpt>
      <trkpt lat="41.48765" lon="0.87665">
        <ele>433.4</ele>
        <time>2022-05-23 20:24:24</time>
      </trkpt>
      <trkpt lat="41.48761" lon="0.87667">
        <ele>433.6</ele>
        <time>2022-05-23 20:24:25</time>
      </trkpt>
      <trkpt lat="41.48756" lon="0.87669">
        <ele>433.6</ele>
        <time>2022-05-23 20:24:26</time>
      </trkpt>
      <trkpt lat="41.48752" lon="0.87672">
        <ele>433.6</ele>
        <time>2022-05-23 20:24:27</time>
      </trkpt>
      <trkpt lat="41.48747" lon="0.87674">
        <ele>433.6</ele>
        <time>2022-05-23 20:24:28</time>
      </trkpt>
      <trkpt lat="41.48742" lon="0.87676">
        <ele>433.6</ele>
        <time>2022-05-23 20:24:29</time>
      </trkpt>
      <trkpt lat="41.48738" lon="0.87678">
        <ele>433.6</ele>
        <time>2022-05-23 20:24:30</time>
      </trkpt>
      <trkpt lat="41.48733" lon="0.8768">
        <ele>433.8</ele>
        <time>2022-05-23 20:24:31</time>
      </trkpt>
      <trkpt lat="41.48728" lon="0.87683">
        <ele>433.8</ele>
        <time>2022-05-23 20:24:32</time>
      </trkpt>
      <trkpt lat="41.48723" lon="0.87685">
        <ele>434</ele>
        <time>2022-05-23 20:24:33</time>
      </trkpt>
      <trkpt lat="41.48719" lon="0.87687">
        <ele>434</ele>
        <time>2022-05-23 20:24:34</time>
      </trkpt>
      <trkpt lat="41.48714" lon="0.87689">
        <ele>434.2</ele>
        <time>2022-05-23 20:24:35</time>
      </trkpt>
      <trkpt lat="41.4871" lon="0.87691">
        <ele>434.2</ele>
        <time>2022-05-23 20:24:36</time>
      </trkpt>
      <trkpt lat="41.48706" lon="0.87693">
        <ele>434.2</ele>
        <time>2022-05-23 20:24:37</time>
      </trkpt>
      <trkpt lat="41.48701" lon="0.87695">
        <ele>434.2</ele>
        <time>2022-05-23 20:24:38</time>
      </trkpt>
      <trkpt lat="41.48697" lon="0.87698">
        <ele>434.4</ele>
        <time>2022-05-23 20:24:39</time>
      </trkpt>
      <trkpt lat="41.48693" lon="0.877">
        <ele>434.4</ele>
        <time>2022-05-23 20:24:40</time>
      </trkpt>
      <trkpt lat="41.48688" lon="0.87702">
        <ele>434.6</ele>
        <time>2022-05-23 20:24:41</time>
      </trkpt>
      <trkpt lat="41.48684" lon="0.87704">
        <ele>434.6</ele>
        <time>2022-05-23 20:24:42</time>
      </trkpt>
      <trkpt lat="41.4868" lon="0.87706">
        <ele>434.8</ele>
        <time>2022-05-23 20:24:43</time>
      </trkpt>
      <trkpt lat="41.48676" lon="0.87707">
        <ele>434.8</ele>
        <time>2022-05-23 20:24:44</time>
      </trkpt>
      <trkpt lat="41.48672" lon="0.87709">
        <ele>435</ele>
        <time>2022-05-23 20:24:45</time>
      </trkpt>
      <trkpt lat="41.48668" lon="0.87711">
        <ele>435.2</ele>
        <time>2022-05-23 20:24:46</time>
      </trkpt>
      <trkpt lat="41.48664" lon="0.87713">
        <ele>435.2</ele>
        <time>2022-05-23 20:24:47</time>
      </trkpt>
      <trkpt lat="41.4866" lon="0.87715">
        <ele>435.4</ele>
        <time>2022-05-23 20:24:48</time>
      </trkpt>
      <trkpt lat="41.48656" lon="0.87717">
        <ele>435.4</ele>
        <time>2022-05-23 20:24:49</time>
      </trkpt>
      <trkpt lat="41.48651" lon="0.87719">
        <ele>435.6</ele>
        <time>2022-05-23 20:24:50</time>
      </trkpt>
      <trkpt lat="41.48648" lon="0.87721">
        <ele>435.6</ele>
        <time>2022-05-23 20:24:51</time>
      </trkpt>
      <trkpt lat="41.48644" lon="0.87722">
        <ele>435.8</ele>
        <time>2022-05-23 20:24:52</time>
      </trkpt>
      <trkpt lat="41.4864" lon="0.87724">
        <ele>435.8</ele>
        <time>2022-05-23 20:24:53</time>
      </trkpt>
      <trkpt lat="41.48636" lon="0.87726">
        <ele>436</ele>
        <time>2022-05-23 20:24:54</time>
      </trkpt>
      <trkpt lat="41.48632" lon="0.87728">
        <ele>436</ele>
        <time>2022-05-23 20:24:55</time>
      </trkpt>
      <trkpt lat="41.48628" lon="0.8773">
        <ele>436.2</ele>
        <time>2022-05-23 20:24:56</time>
      </trkpt>
      <trkpt lat="41.48624" lon="0.87732">
        <ele>436.4</ele>
        <time>2022-05-23 20:24:57</time>
      </trkpt>
      <trkpt lat="41.4862" lon="0.87734">
        <ele>436.4</ele>
        <time>2022-05-23 20:24:58</time>
      </trkpt>
      <trkpt lat="41.48617" lon="0.87736">
        <ele>436.6</ele>
        <time>2022-05-23 20:24:59</time>
      </trkpt>
      <trkpt lat="41.48613" lon="0.87738">
        <ele>436.6</ele>
        <time>2022-05-23 20:25:00</time>
      </trkpt>
      <trkpt lat="41.48609" lon="0.87739">
        <ele>436.8</ele>
        <time>2022-05-23 20:25:01</time>
      </trkpt>
      <trkpt lat="41.48605" lon="0.87741">
        <ele>437</ele>
        <time>2022-05-23 20:25:02</time>
      </trkpt>
      <trkpt lat="41.48601" lon="0.87743">
        <ele>437.2</ele>
        <time>2022-05-23 20:25:03</time>
      </trkpt>
      <trkpt lat="41.48597" lon="0.87745">
        <ele>437.2</ele>
        <time>2022-05-23 20:25:04</time>
      </trkpt>
      <trkpt lat="41.48593" lon="0.87746">
        <ele>437.4</ele>
        <time>2022-05-23 20:25:05</time>
      </trkpt>
      <trkpt lat="41.48589" lon="0.87748">
        <ele>437.4</ele>
        <time>2022-05-23 20:25:06</time>
      </trkpt>
      <trkpt lat="41.48586" lon="0.8775">
        <ele>437.6</ele>
        <time>2022-05-23 20:25:07</time>
      </trkpt>
      <trkpt lat="41.48581" lon="0.87752">
        <ele>437.6</ele>
        <time>2022-05-23 20:25:08</time>
      </trkpt>
      <trkpt lat="41.48577" lon="0.87754">
        <ele>437.6</ele>
        <time>2022-05-23 20:25:09</time>
      </trkpt>
      <trkpt lat="41.48572" lon="0.87756">
        <ele>437.6</ele>
        <time>2022-05-23 20:25:10</time>
      </trkpt>
      <trkpt lat="41.48568" lon="0.87758">
        <ele>437.8</ele>
        <time>2022-05-23 20:25:11</time>
      </trkpt>
      <trkpt lat="41.48563" lon="0.87761">
        <ele>437.8</ele>
        <time>2022-05-23 20:25:12</time>
      </trkpt>
      <trkpt lat="41.48559" lon="0.87763">
        <ele>437.8</ele>
        <time>2022-05-23 20:25:13</time>
      </trkpt>
      <trkpt lat="41.48555" lon="0.87765">
        <ele>437.8</ele>
        <time>2022-05-23 20:25:14</time>
      </trkpt>
      <trkpt lat="41.4855" lon="0.87767">
        <ele>437.8</ele>
        <time>2022-05-23 20:25:15</time>
      </trkpt>
      <trkpt lat="41.48546" lon="0.87769">
        <ele>438</ele>
        <time>2022-05-23 20:25:16</time>
      </trkpt>
      <trkpt lat="41.48541" lon="0.87771">
        <ele>438</ele>
        <time>2022-05-23 20:25:17</time>
      </trkpt>
      <trkpt lat="41.48537" lon="0.87774">
        <ele>438</ele>
        <time>2022-05-23 20:25:18</time>
      </trkpt>
      <trkpt lat="41.48532" lon="0.87776">
        <ele>438</ele>
        <time>2022-05-23 20:25:19</time>
      </trkpt>
      <trkpt lat="41.48528" lon="0.87778">
        <ele>438</ele>
        <time>2022-05-23 20:25:20</time>
      </trkpt>
      <trkpt lat="41.48523" lon="0.8778">
        <ele>437.8</ele>
        <time>2022-05-23 20:25:21</time>
      </trkpt>
      <trkpt lat="41.48519" lon="0.87782">
        <ele>437.8</ele>
        <time>2022-05-23 20:25:22</time>
      </trkpt>
      <trkpt lat="41.48514" lon="0.87784">
        <ele>437.8</ele>
        <time>2022-05-23 20:25:23</time>
      </trkpt>
      <trkpt lat="41.4851" lon="0.87786">
        <ele>437.8</ele>
        <time>2022-05-23 20:25:24</time>
      </trkpt>
      <trkpt lat="41.48506" lon="0.87788">
        <ele>437.8</ele>
        <time>2022-05-23 20:25:25</time>
      </trkpt>
      <trkpt lat="41.48501" lon="0.8779">
        <ele>437.8</ele>
        <time>2022-05-23 20:25:26</time>
      </trkpt>
      <trkpt lat="41.48496" lon="0.87792">
        <ele>437.8</ele>
        <time>2022-05-23 20:25:27</time>
      </trkpt>
      <trkpt lat="41.48491" lon="0.87795">
        <ele>437.8</ele>
        <time>2022-05-23 20:25:28</time>
      </trkpt>
      <trkpt lat="41.48486" lon="0.87797">
        <ele>437.8</ele>
        <time>2022-05-23 20:25:29</time>
      </trkpt>
      <trkpt lat="41.48481" lon="0.87799">
        <ele>437.8</ele>
        <time>2022-05-23 20:25:30</time>
      </trkpt>
      <trkpt lat="41.48477" lon="0.87801">
        <ele>437.8</ele>
        <time>2022-05-23 20:25:31</time>
      </trkpt>
      <trkpt lat="41.48473" lon="0.87803">
        <ele>437.8</ele>
        <time>2022-05-23 20:25:32</time>
      </trkpt>
      <trkpt lat="41.48468" lon="0.87806">
        <ele>437.8</ele>
        <time>2022-05-23 20:25:33</time>
      </trkpt>
      <trkpt lat="41.48463" lon="0.87808">
        <ele>437.8</ele>
        <time>2022-05-23 20:25:34</time>
      </trkpt>
      <trkpt lat="41.48459" lon="0.8781">
        <ele>438</ele>
        <time>2022-05-23 20:25:35</time>
      </trkpt>
      <trkpt lat="41.48454" lon="0.87812">
        <ele>438</ele>
        <time>2022-05-23 20:25:36</time>
      </trkpt>
      <trkpt lat="41.4845" lon="0.87814">
        <ele>438</ele>
        <time>2022-05-23 20:25:37</time>
      </trkpt>
      <trkpt lat="41.48446" lon="0.87816">
        <ele>438</ele>
        <time>2022-05-23 20:25:38</time>
      </trkpt>
      <trkpt lat="41.48441" lon="0.87818">
        <ele>437.8</ele>
        <time>2022-05-23 20:25:39</time>
      </trkpt>
      <trkpt lat="41.48436" lon="0.8782">
        <ele>437.8</ele>
        <time>2022-05-23 20:25:40</time>
      </trkpt>
      <trkpt lat="41.48432" lon="0.87822">
        <ele>437.8</ele>
        <time>2022-05-23 20:25:41</time>
      </trkpt>
      <trkpt lat="41.48427" lon="0.87825">
        <ele>437.8</ele>
        <time>2022-05-23 20:25:42</time>
      </trkpt>
      <trkpt lat="41.48422" lon="0.87827">
        <ele>437.8</ele>
        <time>2022-05-23 20:25:43</time>
      </trkpt>
      <trkpt lat="41.48417" lon="0.8783">
        <ele>437.8</ele>
        <time>2022-05-23 20:25:44</time>
      </trkpt>
      <trkpt lat="41.48413" lon="0.87832">
        <ele>437.8</ele>
        <time>2022-05-23 20:25:45</time>
      </trkpt>
      <trkpt lat="41.48408" lon="0.87834">
        <ele>437.8</ele>
        <time>2022-05-23 20:25:46</time>
      </trkpt>
      <trkpt lat="41.48404" lon="0.87835">
        <ele>437.8</ele>
        <time>2022-05-23 20:25:47</time>
      </trkpt>
      <trkpt lat="41.48399" lon="0.87838">
        <ele>437.8</ele>
        <time>2022-05-23 20:25:48</time>
      </trkpt>
      <trkpt lat="41.48394" lon="0.8784">
        <ele>437.8</ele>
        <time>2022-05-23 20:25:49</time>
      </trkpt>
      <trkpt lat="41.48389" lon="0.87842">
        <ele>437.8</ele>
        <time>2022-05-23 20:25:50</time>
      </trkpt>
      <trkpt lat="41.48385" lon="0.87845">
        <ele>437.8</ele>
        <time>2022-05-23 20:25:51</time>
      </trkpt>
      <trkpt lat="41.4838" lon="0.87847">
        <ele>437.8</ele>
        <time>2022-05-23 20:25:52</time>
      </trkpt>
      <trkpt lat="41.48375" lon="0.87849">
        <ele>438</ele>
        <time>2022-05-23 20:25:53</time>
      </trkpt>
      <trkpt lat="41.48369" lon="0.87852">
        <ele>438</ele>
        <time>2022-05-23 20:25:54</time>
      </trkpt>
      <trkpt lat="41.48365" lon="0.87854">
        <ele>438</ele>
        <time>2022-05-23 20:25:55</time>
      </trkpt>
      <trkpt lat="41.4836" lon="0.87857">
        <ele>438</ele>
        <time>2022-05-23 20:25:56</time>
      </trkpt>
      <trkpt lat="41.48356" lon="0.87859">
        <ele>438</ele>
        <time>2022-05-23 20:25:57</time>
      </trkpt>
      <trkpt lat="41.4835" lon="0.87861">
        <ele>438.2</ele>
        <time>2022-05-23 20:25:58</time>
      </trkpt>
      <trkpt lat="41.48346" lon="0.87864">
        <ele>438.2</ele>
        <time>2022-05-23 20:25:59</time>
      </trkpt>
      <trkpt lat="41.48341" lon="0.87866">
        <ele>438.2</ele>
        <time>2022-05-23 20:26:00</time>
      </trkpt>
      <trkpt lat="41.48337" lon="0.87869">
        <ele>438.2</ele>
        <time>2022-05-23 20:26:01</time>
      </trkpt>
      <trkpt lat="41.48333" lon="0.87872">
        <ele>438.2</ele>
        <time>2022-05-23 20:26:02</time>
      </trkpt>
      <trkpt lat="41.48328" lon="0.87874">
        <ele>438.4</ele>
        <time>2022-05-23 20:26:03</time>
      </trkpt>
      <trkpt lat="41.48323" lon="0.87878">
        <ele>438.4</ele>
        <time>2022-05-23 20:26:04</time>
      </trkpt>
      <trkpt lat="41.48319" lon="0.87881">
        <ele>438.4</ele>
        <time>2022-05-23 20:26:05</time>
      </trkpt>
      <trkpt lat="41.48315" lon="0.87884">
        <ele>438.4</ele>
        <time>2022-05-23 20:26:06</time>
      </trkpt>
      <trkpt lat="41.48311" lon="0.87888">
        <ele>438.6</ele>
        <time>2022-05-23 20:26:07</time>
      </trkpt>
      <trkpt lat="41.48306" lon="0.87891">
        <ele>438.6</ele>
        <time>2022-05-23 20:26:08</time>
      </trkpt>
      <trkpt lat="41.48303" lon="0.87895">
        <ele>438.6</ele>
        <time>2022-05-23 20:26:09</time>
      </trkpt>
      <trkpt lat="41.48298" lon="0.87898">
        <ele>438.8</ele>
        <time>2022-05-23 20:26:10</time>
      </trkpt>
      <trkpt lat="41.48295" lon="0.87902">
        <ele>438.8</ele>
        <time>2022-05-23 20:26:11</time>
      </trkpt>
      <trkpt lat="41.4829" lon="0.87905">
        <ele>439</ele>
        <time>2022-05-23 20:26:12</time>
      </trkpt>
      <trkpt lat="41.48287" lon="0.87908">
        <ele>439.2</ele>
        <time>2022-05-23 20:26:13</time>
      </trkpt>
      <trkpt lat="41.48283" lon="0.87912">
        <ele>439.2</ele>
        <time>2022-05-23 20:26:14</time>
      </trkpt>
      <trkpt lat="41.48279" lon="0.87915">
        <ele>439.4</ele>
        <time>2022-05-23 20:26:15</time>
      </trkpt>
      <trkpt lat="41.48276" lon="0.87917">
        <ele>439.6</ele>
        <time>2022-05-23 20:26:16</time>
      </trkpt>
      <trkpt lat="41.48273" lon="0.8792">
        <ele>439.8</ele>
        <time>2022-05-23 20:26:17</time>
      </trkpt>
      <trkpt lat="41.48269" lon="0.87923">
        <ele>440</ele>
        <time>2022-05-23 20:26:18</time>
      </trkpt>
      <trkpt lat="41.48266" lon="0.87925">
        <ele>440.2</ele>
        <time>2022-05-23 20:26:19</time>
      </trkpt>
      <trkpt lat="41.48263" lon="0.87928">
        <ele>440.4</ele>
        <time>2022-05-23 20:26:20</time>
      </trkpt>
      <trkpt lat="41.48261" lon="0.8793">
        <ele>440.6</ele>
        <time>2022-05-23 20:26:21</time>
      </trkpt>
      <trkpt lat="41.48258" lon="0.87933">
        <ele>440.8</ele>
        <time>2022-05-23 20:26:22</time>
      </trkpt>
      <trkpt lat="41.48256" lon="0.87935">
        <ele>441</ele>
        <time>2022-05-23 20:26:23</time>
      </trkpt>
      <trkpt lat="41.48253" lon="0.87937">
        <ele>441.2</ele>
        <time>2022-05-23 20:26:24</time>
      </trkpt>
      <trkpt lat="41.4825" lon="0.8794">
        <ele>441.4</ele>
        <time>2022-05-23 20:26:25</time>
      </trkpt>
      <trkpt lat="41.48248" lon="0.87942">
        <ele>441.6</ele>
        <time>2022-05-23 20:26:26</time>
      </trkpt>
      <trkpt lat="41.48244" lon="0.87944">
        <ele>441.8</ele>
        <time>2022-05-23 20:26:27</time>
      </trkpt>
      <trkpt lat="41.48242" lon="0.87946">
        <ele>442</ele>
        <time>2022-05-23 20:26:28</time>
      </trkpt>
      <trkpt lat="41.4824" lon="0.87948">
        <ele>442.2</ele>
        <time>2022-05-23 20:26:29</time>
      </trkpt>
      <trkpt lat="41.48237" lon="0.8795">
        <ele>442.4</ele>
        <time>2022-05-23 20:26:30</time>
      </trkpt>
      <trkpt lat="41.48234" lon="0.87953">
        <ele>442.6</ele>
        <time>2022-05-23 20:26:31</time>
      </trkpt>
      <trkpt lat="41.48232" lon="0.87955">
        <ele>442.8</ele>
        <time>2022-05-23 20:26:32</time>
      </trkpt>
      <trkpt lat="41.48229" lon="0.87958">
        <ele>443</ele>
        <time>2022-05-23 20:26:33</time>
      </trkpt>
      <trkpt lat="41.48226" lon="0.8796">
        <ele>443.2</ele>
        <time>2022-05-23 20:26:34</time>
      </trkpt>
      <trkpt lat="41.48224" lon="0.87962">
        <ele>443.4</ele>
        <time>2022-05-23 20:26:35</time>
      </trkpt>
      <trkpt lat="41.48221" lon="0.87965">
        <ele>443.6</ele>
        <time>2022-05-23 20:26:36</time>
      </trkpt>
      <trkpt lat="41.48218" lon="0.87967">
        <ele>443.8</ele>
        <time>2022-05-23 20:26:37</time>
      </trkpt>
      <trkpt lat="41.48216" lon="0.87969">
        <ele>444</ele>
        <time>2022-05-23 20:26:38</time>
      </trkpt>
      <trkpt lat="41.48213" lon="0.87971">
        <ele>444</ele>
        <time>2022-05-23 20:26:39</time>
      </trkpt>
      <trkpt lat="41.4821" lon="0.87974">
        <ele>444.2</ele>
        <time>2022-05-23 20:26:40</time>
      </trkpt>
      <trkpt lat="41.48208" lon="0.87976">
        <ele>444.4</ele>
        <time>2022-05-23 20:26:41</time>
      </trkpt>
      <trkpt lat="41.48205" lon="0.87979">
        <ele>444.6</ele>
        <time>2022-05-23 20:26:42</time>
      </trkpt>
      <trkpt lat="41.48202" lon="0.87981">
        <ele>444.8</ele>
        <time>2022-05-23 20:26:43</time>
      </trkpt>
      <trkpt lat="41.48199" lon="0.87983">
        <ele>444.8</ele>
        <time>2022-05-23 20:26:44</time>
      </trkpt>
      <trkpt lat="41.48196" lon="0.87986">
        <ele>445</ele>
        <time>2022-05-23 20:26:45</time>
      </trkpt>
      <trkpt lat="41.48193" lon="0.87988">
        <ele>445.2</ele>
        <time>2022-05-23 20:26:46</time>
      </trkpt>
      <trkpt lat="41.48191" lon="0.87991">
        <ele>445.4</ele>
        <time>2022-05-23 20:26:47</time>
      </trkpt>
      <trkpt lat="41.48188" lon="0.87993">
        <ele>445.6</ele>
        <time>2022-05-23 20:26:48</time>
      </trkpt>
      <trkpt lat="41.48185" lon="0.87996">
        <ele>445.6</ele>
        <time>2022-05-23 20:26:49</time>
      </trkpt>
      <trkpt lat="41.48183" lon="0.87998">
        <ele>445.8</ele>
        <time>2022-05-23 20:26:50</time>
      </trkpt>
      <trkpt lat="41.4818" lon="0.88">
        <ele>446</ele>
        <time>2022-05-23 20:26:51</time>
      </trkpt>
      <trkpt lat="41.48177" lon="0.88002">
        <ele>446.2</ele>
        <time>2022-05-23 20:26:52</time>
      </trkpt>
      <trkpt lat="41.48175" lon="0.88005">
        <ele>446.2</ele>
        <time>2022-05-23 20:26:53</time>
      </trkpt>
      <trkpt lat="41.48172" lon="0.88007">
        <ele>446.4</ele>
        <time>2022-05-23 20:26:54</time>
      </trkpt>
      <trkpt lat="41.4817" lon="0.88009">
        <ele>446.6</ele>
        <time>2022-05-23 20:26:55</time>
      </trkpt>
      <trkpt lat="41.48167" lon="0.88012">
        <ele>446.6</ele>
        <time>2022-05-23 20:26:56</time>
      </trkpt>
      <trkpt lat="41.48164" lon="0.88014">
        <ele>446.8</ele>
        <time>2022-05-23 20:26:57</time>
      </trkpt>
      <trkpt lat="41.48162" lon="0.88016">
        <ele>447</ele>
        <time>2022-05-23 20:26:58</time>
      </trkpt>
      <trkpt lat="41.48159" lon="0.88018">
        <ele>447</ele>
        <time>2022-05-23 20:26:59</time>
      </trkpt>
      <trkpt lat="41.48156" lon="0.88021">
        <ele>447.2</ele>
        <time>2022-05-23 20:27:00</time>
      </trkpt>
      <trkpt lat="41.48154" lon="0.88023">
        <ele>447.2</ele>
        <time>2022-05-23 20:27:01</time>
      </trkpt>
      <trkpt lat="41.48151" lon="0.88025">
        <ele>447.2</ele>
        <time>2022-05-23 20:27:02</time>
      </trkpt>
      <trkpt lat="41.48148" lon="0.88027">
        <ele>447.4</ele>
        <time>2022-05-23 20:27:03</time>
      </trkpt>
      <trkpt lat="41.48146" lon="0.8803">
        <ele>447.6</ele>
        <time>2022-05-23 20:27:04</time>
      </trkpt>
      <trkpt lat="41.48143" lon="0.88032">
        <ele>447.6</ele>
        <time>2022-05-23 20:27:05</time>
      </trkpt>
      <trkpt lat="41.4814" lon="0.88034">
        <ele>447.8</ele>
        <time>2022-05-23 20:27:06</time>
      </trkpt>
      <trkpt lat="41.48137" lon="0.88036">
        <ele>447.8</ele>
        <time>2022-05-23 20:27:07</time>
      </trkpt>
      <trkpt lat="41.48133" lon="0.88038">
        <ele>448</ele>
        <time>2022-05-23 20:27:08</time>
      </trkpt>
      <trkpt lat="41.48131" lon="0.88041">
        <ele>448</ele>
        <time>2022-05-23 20:27:09</time>
      </trkpt>
      <trkpt lat="41.48128" lon="0.88044">
        <ele>448.2</ele>
        <time>2022-05-23 20:27:10</time>
      </trkpt>
      <trkpt lat="41.48126" lon="0.88047">
        <ele>448.2</ele>
        <time>2022-05-23 20:27:11</time>
      </trkpt>
      <trkpt lat="41.48124" lon="0.88049">
        <ele>448.2</ele>
        <time>2022-05-23 20:27:12</time>
      </trkpt>
      <trkpt lat="41.4812" lon="0.88052">
        <ele>448.4</ele>
        <time>2022-05-23 20:27:13</time>
      </trkpt>
      <trkpt lat="41.48118" lon="0.88054">
        <ele>448.4</ele>
        <time>2022-05-23 20:27:14</time>
      </trkpt>
      <trkpt lat="41.48115" lon="0.88057">
        <ele>448.4</ele>
        <time>2022-05-23 20:27:15</time>
      </trkpt>
      <trkpt lat="41.48113" lon="0.88059">
        <ele>448.6</ele>
        <time>2022-05-23 20:27:16</time>
      </trkpt>
      <trkpt lat="41.4811" lon="0.88062">
        <ele>448.6</ele>
        <time>2022-05-23 20:27:17</time>
      </trkpt>
      <trkpt lat="41.48107" lon="0.88064">
        <ele>448.6</ele>
        <time>2022-05-23 20:27:18</time>
      </trkpt>
      <trkpt lat="41.48104" lon="0.88066">
        <ele>448.8</ele>
        <time>2022-05-23 20:27:19</time>
      </trkpt>
      <trkpt lat="41.48102" lon="0.88068">
        <ele>448.8</ele>
        <time>2022-05-23 20:27:20</time>
      </trkpt>
      <trkpt lat="41.48099" lon="0.88071">
        <ele>448.8</ele>
        <time>2022-05-23 20:27:21</time>
      </trkpt>
      <trkpt lat="41.48096" lon="0.88073">
        <ele>449</ele>
        <time>2022-05-23 20:27:22</time>
      </trkpt>
      <trkpt lat="41.48094" lon="0.88075">
        <ele>449</ele>
        <time>2022-05-23 20:27:23</time>
      </trkpt>
      <trkpt lat="41.48091" lon="0.88078">
        <ele>449.2</ele>
        <time>2022-05-23 20:27:24</time>
      </trkpt>
      <trkpt lat="41.48088" lon="0.8808">
        <ele>449.2</ele>
        <time>2022-05-23 20:27:25</time>
      </trkpt>
      <trkpt lat="41.48086" lon="0.88083">
        <ele>449.4</ele>
        <time>2022-05-23 20:27:26</time>
      </trkpt>
      <trkpt lat="41.48084" lon="0.88085">
        <ele>449.4</ele>
        <time>2022-05-23 20:27:27</time>
      </trkpt>
      <trkpt lat="41.48081" lon="0.88088">
        <ele>449.4</ele>
        <time>2022-05-23 20:27:28</time>
      </trkpt>
      <trkpt lat="41.48079" lon="0.88091">
        <ele>449.6</ele>
        <time>2022-05-23 20:27:29</time>
      </trkpt>
      <trkpt lat="41.48077" lon="0.88094">
        <ele>449.6</ele>
        <time>2022-05-23 20:27:30</time>
      </trkpt>
      <trkpt lat="41.48075" lon="0.88096">
        <ele>449.8</ele>
        <time>2022-05-23 20:27:31</time>
      </trkpt>
      <trkpt lat="41.48073" lon="0.88098">
        <ele>449.8</ele>
        <time>2022-05-23 20:27:32</time>
      </trkpt>
      <trkpt lat="41.48071" lon="0.88099">
        <ele>450</ele>
        <time>2022-05-23 20:27:33</time>
      </trkpt>
      <trkpt lat="41.48068" lon="0.88101">
        <ele>450</ele>
        <time>2022-05-23 20:27:34</time>
      </trkpt>
      <trkpt lat="41.48066" lon="0.88102">
        <ele>450.2</ele>
        <time>2022-05-23 20:27:35</time>
      </trkpt>
      <trkpt lat="41.48064" lon="0.88105">
        <ele>450.2</ele>
        <time>2022-05-23 20:27:36</time>
      </trkpt>
      <trkpt lat="41.48062" lon="0.88107">
        <ele>450.4</ele>
        <time>2022-05-23 20:27:37</time>
      </trkpt>
      <trkpt lat="41.4806" lon="0.88109">
        <ele>450.4</ele>
        <time>2022-05-23 20:27:38</time>
      </trkpt>
      <trkpt lat="41.48058" lon="0.88111">
        <ele>450.6</ele>
        <time>2022-05-23 20:27:39</time>
      </trkpt>
      <trkpt lat="41.48056" lon="0.88113">
        <ele>450.6</ele>
        <time>2022-05-23 20:27:40</time>
      </trkpt>
      <trkpt lat="41.48053" lon="0.88115">
        <ele>450.8</ele>
        <time>2022-05-23 20:27:41</time>
      </trkpt>
      <trkpt lat="41.48051" lon="0.88118">
        <ele>450.8</ele>
        <time>2022-05-23 20:27:42</time>
      </trkpt>
      <trkpt lat="41.48048" lon="0.8812">
        <ele>451</ele>
        <time>2022-05-23 20:27:43</time>
      </trkpt>
      <trkpt lat="41.48046" lon="0.88123">
        <ele>451</ele>
        <time>2022-05-23 20:27:44</time>
      </trkpt>
      <trkpt lat="41.48044" lon="0.88124">
        <ele>451.2</ele>
        <time>2022-05-23 20:27:45</time>
      </trkpt>
      <trkpt lat="41.48041" lon="0.88127">
        <ele>451.2</ele>
        <time>2022-05-23 20:27:46</time>
      </trkpt>
      <trkpt lat="41.48039" lon="0.88129">
        <ele>451.4</ele>
        <time>2022-05-23 20:27:47</time>
      </trkpt>
      <trkpt lat="41.48037" lon="0.88131">
        <ele>451.4</ele>
        <time>2022-05-23 20:27:48</time>
      </trkpt>
      <trkpt lat="41.48034" lon="0.88134">
        <ele>451.6</ele>
        <time>2022-05-23 20:27:49</time>
      </trkpt>
      <trkpt lat="41.48032" lon="0.88136">
        <ele>451.8</ele>
        <time>2022-05-23 20:27:50</time>
      </trkpt>
      <trkpt lat="41.4803" lon="0.88138">
        <ele>451.8</ele>
        <time>2022-05-23 20:27:51</time>
      </trkpt>
      <trkpt lat="41.48028" lon="0.88141">
        <ele>452</ele>
        <time>2022-05-23 20:27:52</time>
      </trkpt>
      <trkpt lat="41.48026" lon="0.88143">
        <ele>452</ele>
        <time>2022-05-23 20:27:53</time>
      </trkpt>
      <trkpt lat="41.48023" lon="0.88145">
        <ele>452.2</ele>
        <time>2022-05-23 20:27:54</time>
      </trkpt>
      <trkpt lat="41.48021" lon="0.88147">
        <ele>452.2</ele>
        <time>2022-05-23 20:27:55</time>
      </trkpt>
      <trkpt lat="41.48018" lon="0.88149">
        <ele>452.4</ele>
        <time>2022-05-23 20:27:56</time>
      </trkpt>
      <trkpt lat="41.48016" lon="0.88152">
        <ele>452.6</ele>
        <time>2022-05-23 20:27:57</time>
      </trkpt>
      <trkpt lat="41.48014" lon="0.88155">
        <ele>452.6</ele>
        <time>2022-05-23 20:27:58</time>
      </trkpt>
      <trkpt lat="41.48012" lon="0.88157">
        <ele>452.8</ele>
        <time>2022-05-23 20:27:59</time>
      </trkpt>
      <trkpt lat="41.48009" lon="0.8816">
        <ele>453</ele>
        <time>2022-05-23 20:28:00</time>
      </trkpt>
      <trkpt lat="41.48007" lon="0.88162">
        <ele>453</ele>
        <time>2022-05-23 20:28:01</time>
      </trkpt>
      <trkpt lat="41.48005" lon="0.88165">
        <ele>453.2</ele>
        <time>2022-05-23 20:28:02</time>
      </trkpt>
      <trkpt lat="41.48003" lon="0.88168">
        <ele>453.4</ele>
        <time>2022-05-23 20:28:03</time>
      </trkpt>
      <trkpt lat="41.48" lon="0.88171">
        <ele>453.6</ele>
        <time>2022-05-23 20:28:04</time>
      </trkpt>
      <trkpt lat="41.47998" lon="0.88174">
        <ele>453.6</ele>
        <time>2022-05-23 20:28:05</time>
      </trkpt>
      <trkpt lat="41.47996" lon="0.88176">
        <ele>453.8</ele>
        <time>2022-05-23 20:28:06</time>
      </trkpt>
      <trkpt lat="41.47994" lon="0.88179">
        <ele>454</ele>
        <time>2022-05-23 20:28:07</time>
      </trkpt>
      <trkpt lat="41.47992" lon="0.88181">
        <ele>454.2</ele>
        <time>2022-05-23 20:28:08</time>
      </trkpt>
      <trkpt lat="41.47991" lon="0.88183">
        <ele>454.2</ele>
        <time>2022-05-23 20:28:09</time>
      </trkpt>
      <trkpt lat="41.47989" lon="0.88185">
        <ele>454.4</ele>
        <time>2022-05-23 20:28:10</time>
      </trkpt>
      <trkpt lat="41.47987" lon="0.88187">
        <ele>454.6</ele>
        <time>2022-05-23 20:28:11</time>
      </trkpt>
      <trkpt lat="41.47986" lon="0.88189">
        <ele>454.6</ele>
        <time>2022-05-23 20:28:12</time>
      </trkpt>
      <trkpt lat="41.47985" lon="0.88191">
        <ele>454.8</ele>
        <time>2022-05-23 20:28:13</time>
      </trkpt>
      <trkpt lat="41.47983" lon="0.88194">
        <ele>455</ele>
        <time>2022-05-23 20:28:14</time>
      </trkpt>
      <trkpt lat="41.47982" lon="0.88196">
        <ele>455</ele>
        <time>2022-05-23 20:28:15</time>
      </trkpt>
      <trkpt lat="41.4798" lon="0.88197">
        <ele>455.2</ele>
        <time>2022-05-23 20:28:16</time>
      </trkpt>
      <trkpt lat="41.47978" lon="0.88199">
        <ele>455.2</ele>
        <time>2022-05-23 20:28:17</time>
      </trkpt>
      <trkpt lat="41.47977" lon="0.88201">
        <ele>455.4</ele>
        <time>2022-05-23 20:28:18</time>
      </trkpt>
      <trkpt lat="41.47975" lon="0.88203">
        <ele>455.6</ele>
        <time>2022-05-23 20:28:19</time>
      </trkpt>
      <trkpt lat="41.47974" lon="0.88205">
        <ele>455.6</ele>
        <time>2022-05-23 20:28:20</time>
      </trkpt>
      <trkpt lat="41.47972" lon="0.88206">
        <ele>455.8</ele>
        <time>2022-05-23 20:28:21</time>
      </trkpt>
      <trkpt lat="41.47971" lon="0.88208">
        <ele>455.8</ele>
        <time>2022-05-23 20:28:22</time>
      </trkpt>
      <trkpt lat="41.47969" lon="0.8821">
        <ele>456</ele>
        <time>2022-05-23 20:28:23</time>
      </trkpt>
      <trkpt lat="41.47968" lon="0.88212">
        <ele>456.2</ele>
        <time>2022-05-23 20:28:24</time>
      </trkpt>
      <trkpt lat="41.47966" lon="0.88214">
        <ele>456.2</ele>
        <time>2022-05-23 20:28:25</time>
      </trkpt>
      <trkpt lat="41.47965" lon="0.88216">
        <ele>456.4</ele>
        <time>2022-05-23 20:28:26</time>
      </trkpt>
      <trkpt lat="41.47963" lon="0.88218">
        <ele>456.4</ele>
        <time>2022-05-23 20:28:27</time>
      </trkpt>
      <trkpt lat="41.47962" lon="0.8822">
        <ele>456.6</ele>
        <time>2022-05-23 20:28:28</time>
      </trkpt>
      <trkpt lat="41.47961" lon="0.88222">
        <ele>456.8</ele>
        <time>2022-05-23 20:28:29</time>
      </trkpt>
      <trkpt lat="41.47959" lon="0.88224">
        <ele>456.8</ele>
        <time>2022-05-23 20:28:30</time>
      </trkpt>
      <trkpt lat="41.47957" lon="0.88225">
        <ele>457</ele>
        <time>2022-05-23 20:28:31</time>
      </trkpt>
      <trkpt lat="41.47956" lon="0.88227">
        <ele>457</ele>
        <time>2022-05-23 20:28:32</time>
      </trkpt>
      <trkpt lat="41.47954" lon="0.88229">
        <ele>457.2</ele>
        <time>2022-05-23 20:28:33</time>
      </trkpt>
      <trkpt lat="41.47953" lon="0.88231">
        <ele>457.4</ele>
        <time>2022-05-23 20:28:34</time>
      </trkpt>
      <trkpt lat="41.47951" lon="0.88232">
        <ele>457.4</ele>
        <time>2022-05-23 20:28:35</time>
      </trkpt>
      <trkpt lat="41.4795" lon="0.88234">
        <ele>457.6</ele>
        <time>2022-05-23 20:28:36</time>
      </trkpt>
      <trkpt lat="41.47948" lon="0.88236">
        <ele>457.8</ele>
        <time>2022-05-23 20:28:37</time>
      </trkpt>
      <trkpt lat="41.47947" lon="0.88238">
        <ele>457.8</ele>
        <time>2022-05-23 20:28:38</time>
      </trkpt>
      <trkpt lat="41.47945" lon="0.8824">
        <ele>458</ele>
        <time>2022-05-23 20:28:39</time>
      </trkpt>
      <trkpt lat="41.47944" lon="0.88242">
        <ele>458</ele>
        <time>2022-05-23 20:28:40</time>
      </trkpt>
      <trkpt lat="41.47942" lon="0.88244">
        <ele>458.2</ele>
        <time>2022-05-23 20:28:41</time>
      </trkpt>
      <trkpt lat="41.47941" lon="0.88246">
        <ele>458.4</ele>
        <time>2022-05-23 20:28:42</time>
      </trkpt>
      <trkpt lat="41.47939" lon="0.88248">
        <ele>458.4</ele>
        <time>2022-05-23 20:28:43</time>
      </trkpt>
      <trkpt lat="41.47938" lon="0.88249">
        <ele>458.6</ele>
        <time>2022-05-23 20:28:44</time>
      </trkpt>
      <trkpt lat="41.47936" lon="0.88251">
        <ele>458.6</ele>
        <time>2022-05-23 20:28:45</time>
      </trkpt>
      <trkpt lat="41.47935" lon="0.88253">
        <ele>458.8</ele>
        <time>2022-05-23 20:28:46</time>
      </trkpt>
      <trkpt lat="41.47934" lon="0.88255">
        <ele>459</ele>
        <time>2022-05-23 20:28:47</time>
      </trkpt>
      <trkpt lat="41.47932" lon="0.88257">
        <ele>459</ele>
        <time>2022-05-23 20:28:48</time>
      </trkpt>
      <trkpt lat="41.47931" lon="0.88259">
        <ele>459.2</ele>
        <time>2022-05-23 20:28:49</time>
      </trkpt>
      <trkpt lat="41.47929" lon="0.88261">
        <ele>459.4</ele>
        <time>2022-05-23 20:28:50</time>
      </trkpt>
      <trkpt lat="41.47928" lon="0.88263">
        <ele>459.4</ele>
        <time>2022-05-23 20:28:51</time>
      </trkpt>
      <trkpt lat="41.47926" lon="0.88264">
        <ele>459.6</ele>
        <time>2022-05-23 20:28:52</time>
      </trkpt>
      <trkpt lat="41.47924" lon="0.88266">
        <ele>459.6</ele>
        <time>2022-05-23 20:28:53</time>
      </trkpt>
      <trkpt lat="41.47923" lon="0.88268">
        <ele>459.8</ele>
        <time>2022-05-23 20:28:54</time>
      </trkpt>
      <trkpt lat="41.47921" lon="0.8827">
        <ele>460</ele>
        <time>2022-05-23 20:28:55</time>
      </trkpt>
      <trkpt lat="41.4792" lon="0.88271">
        <ele>460</ele>
        <time>2022-05-23 20:28:56</time>
      </trkpt>
      <trkpt lat="41.47918" lon="0.88273">
        <ele>460.2</ele>
        <time>2022-05-23 20:28:57</time>
      </trkpt>
      <trkpt lat="41.47916" lon="0.88275">
        <ele>460.4</ele>
        <time>2022-05-23 20:28:58</time>
      </trkpt>
      <trkpt lat="41.47914" lon="0.88277">
        <ele>460.4</ele>
        <time>2022-05-23 20:28:59</time>
      </trkpt>
      <trkpt lat="41.47913" lon="0.88279">
        <ele>460.6</ele>
        <time>2022-05-23 20:29:00</time>
      </trkpt>
      <trkpt lat="41.47911" lon="0.88281">
        <ele>460.8</ele>
        <time>2022-05-23 20:29:01</time>
      </trkpt>
      <trkpt lat="41.47909" lon="0.88283">
        <ele>461</ele>
        <time>2022-05-23 20:29:02</time>
      </trkpt>
      <trkpt lat="41.47907" lon="0.88285">
        <ele>461</ele>
        <time>2022-05-23 20:29:03</time>
      </trkpt>
      <trkpt lat="41.47905" lon="0.88287">
        <ele>461.2</ele>
        <time>2022-05-23 20:29:04</time>
      </trkpt>
      <trkpt lat="41.47904" lon="0.88289">
        <ele>461.4</ele>
        <time>2022-05-23 20:29:05</time>
      </trkpt>
      <trkpt lat="41.47902" lon="0.88291">
        <ele>461.6</ele>
        <time>2022-05-23 20:29:06</time>
      </trkpt>
      <trkpt lat="41.479" lon="0.88293">
        <ele>461.6</ele>
        <time>2022-05-23 20:29:07</time>
      </trkpt>
      <trkpt lat="41.47898" lon="0.88294">
        <ele>461.8</ele>
        <time>2022-05-23 20:29:08</time>
      </trkpt>
      <trkpt lat="41.47896" lon="0.88296">
        <ele>462</ele>
        <time>2022-05-23 20:29:09</time>
      </trkpt>
      <trkpt lat="41.47894" lon="0.88298">
        <ele>462</ele>
        <time>2022-05-23 20:29:10</time>
      </trkpt>
      <trkpt lat="41.47892" lon="0.883">
        <ele>462.2</ele>
        <time>2022-05-23 20:29:11</time>
      </trkpt>
      <trkpt lat="41.4789" lon="0.88301">
        <ele>462.4</ele>
        <time>2022-05-23 20:29:12</time>
      </trkpt>
      <trkpt lat="41.47888" lon="0.88303">
        <ele>462.4</ele>
        <time>2022-05-23 20:29:13</time>
      </trkpt>
      <trkpt lat="41.47886" lon="0.88304">
        <ele>462.6</ele>
        <time>2022-05-23 20:29:14</time>
      </trkpt>
      <trkpt lat="41.47884" lon="0.88306">
        <ele>462.8</ele>
        <time>2022-05-23 20:29:15</time>
      </trkpt>
      <trkpt lat="41.47882" lon="0.88307">
        <ele>463</ele>
        <time>2022-05-23 20:29:16</time>
      </trkpt>
      <trkpt lat="41.4788" lon="0.88308">
        <ele>463</ele>
        <time>2022-05-23 20:29:17</time>
      </trkpt>
      <trkpt lat="41.47878" lon="0.8831">
        <ele>463.2</ele>
        <time>2022-05-23 20:29:18</time>
      </trkpt>
      <trkpt lat="41.47876" lon="0.88311">
        <ele>463.4</ele>
        <time>2022-05-23 20:29:19</time>
      </trkpt>
      <trkpt lat="41.47874" lon="0.88312">
        <ele>463.4</ele>
        <time>2022-05-23 20:29:20</time>
      </trkpt>
      <trkpt lat="41.47872" lon="0.88313">
        <ele>463.6</ele>
        <time>2022-05-23 20:29:21</time>
      </trkpt>
      <trkpt lat="41.4787" lon="0.88314">
        <ele>463.8</ele>
        <time>2022-05-23 20:29:22</time>
      </trkpt>
      <trkpt lat="41.47868" lon="0.88316">
        <ele>463.8</ele>
        <time>2022-05-23 20:29:23</time>
      </trkpt>
      <trkpt lat="41.47867" lon="0.88316">
        <ele>464</ele>
        <time>2022-05-23 20:29:24</time>
      </trkpt>
      <trkpt lat="41.47865" lon="0.88318">
        <ele>464</ele>
        <time>2022-05-23 20:29:25</time>
      </trkpt>
      <trkpt lat="41.47863" lon="0.88319">
        <ele>464.2</ele>
        <time>2022-05-23 20:29:26</time>
      </trkpt>
      <trkpt lat="41.47861" lon="0.8832">
        <ele>464.4</ele>
        <time>2022-05-23 20:29:27</time>
      </trkpt>
      <trkpt lat="41.47859" lon="0.88321">
        <ele>464.4</ele>
        <time>2022-05-23 20:29:28</time>
      </trkpt>
      <trkpt lat="41.47857" lon="0.88322">
        <ele>464.6</ele>
        <time>2022-05-23 20:29:29</time>
      </trkpt>
      <trkpt lat="41.47855" lon="0.88323">
        <ele>464.8</ele>
        <time>2022-05-23 20:29:30</time>
      </trkpt>
      <trkpt lat="41.47853" lon="0.88324">
        <ele>464.8</ele>
        <time>2022-05-23 20:29:31</time>
      </trkpt>
      <trkpt lat="41.47852" lon="0.88325">
        <ele>465</ele>
        <time>2022-05-23 20:29:32</time>
      </trkpt>
      <trkpt lat="41.4785" lon="0.88326">
        <ele>465</ele>
        <time>2022-05-23 20:29:33</time>
      </trkpt>
      <trkpt lat="41.47848" lon="0.88327">
        <ele>465.2</ele>
        <time>2022-05-23 20:29:34</time>
      </trkpt>
      <trkpt lat="41.47846" lon="0.88327">
        <ele>465.4</ele>
        <time>2022-05-23 20:29:35</time>
      </trkpt>
      <trkpt lat="41.47844" lon="0.88328">
        <ele>465.4</ele>
        <time>2022-05-23 20:29:36</time>
      </trkpt>
      <trkpt lat="41.47843" lon="0.88329">
        <ele>465.6</ele>
        <time>2022-05-23 20:29:37</time>
      </trkpt>
      <trkpt lat="41.47841" lon="0.8833">
        <ele>465.6</ele>
        <time>2022-05-23 20:29:38</time>
      </trkpt>
      <trkpt lat="41.47839" lon="0.8833">
        <ele>465.8</ele>
        <time>2022-05-23 20:29:39</time>
      </trkpt>
      <trkpt lat="41.47837" lon="0.88331">
        <ele>466</ele>
        <time>2022-05-23 20:29:40</time>
      </trkpt>
      <trkpt lat="41.47836" lon="0.88332">
        <ele>466</ele>
        <time>2022-05-23 20:29:41</time>
      </trkpt>
      <trkpt lat="41.47834" lon="0.88333">
        <ele>466.2</ele>
        <time>2022-05-23 20:29:42</time>
      </trkpt>
      <trkpt lat="41.47832" lon="0.88333">
        <ele>466.4</ele>
        <time>2022-05-23 20:29:43</time>
      </trkpt>
      <trkpt lat="41.4783" lon="0.88334">
        <ele>466.6</ele>
        <time>2022-05-23 20:29:44</time>
      </trkpt>
      <trkpt lat="41.47828" lon="0.88335">
        <ele>466.6</ele>
        <time>2022-05-23 20:29:45</time>
      </trkpt>
      <trkpt lat="41.47826" lon="0.88335">
        <ele>466.8</ele>
        <time>2022-05-23 20:29:46</time>
      </trkpt>
      <trkpt lat="41.47824" lon="0.88336">
        <ele>467</ele>
        <time>2022-05-23 20:29:47</time>
      </trkpt>
      <trkpt lat="41.47822" lon="0.88337">
        <ele>467</ele>
        <time>2022-05-23 20:29:48</time>
      </trkpt>
      <trkpt lat="41.4782" lon="0.88337">
        <ele>467.2</ele>
        <time>2022-05-23 20:29:49</time>
      </trkpt>
      <trkpt lat="41.47818" lon="0.88338">
        <ele>467.4</ele>
        <time>2022-05-23 20:29:50</time>
      </trkpt>
      <trkpt lat="41.47816" lon="0.88338">
        <ele>467.4</ele>
        <time>2022-05-23 20:29:51</time>
      </trkpt>
      <trkpt lat="41.47814" lon="0.88338">
        <ele>467.6</ele>
        <time>2022-05-23 20:29:52</time>
      </trkpt>
      <trkpt lat="41.47812" lon="0.88339">
        <ele>467.8</ele>
        <time>2022-05-23 20:29:53</time>
      </trkpt>
      <trkpt lat="41.4781" lon="0.88339">
        <ele>467.8</ele>
        <time>2022-05-23 20:29:54</time>
      </trkpt>
      <trkpt lat="41.47808" lon="0.8834">
        <ele>468</ele>
        <time>2022-05-23 20:29:55</time>
      </trkpt>
      <trkpt lat="41.47806" lon="0.8834">
        <ele>468</ele>
        <time>2022-05-23 20:29:56</time>
      </trkpt>
      <trkpt lat="41.47805" lon="0.8834">
        <ele>468.2</ele>
        <time>2022-05-23 20:29:57</time>
      </trkpt>
      <trkpt lat="41.47803" lon="0.8834">
        <ele>468.4</ele>
        <time>2022-05-23 20:29:58</time>
      </trkpt>
      <trkpt lat="41.47801" lon="0.88341">
        <ele>468.4</ele>
        <time>2022-05-23 20:29:59</time>
      </trkpt>
      <trkpt lat="41.47799" lon="0.88341">
        <ele>468.6</ele>
        <time>2022-05-23 20:30:00</time>
      </trkpt>
      <trkpt lat="41.47797" lon="0.88341">
        <ele>468.8</ele>
        <time>2022-05-23 20:30:01</time>
      </trkpt>
      <trkpt lat="41.47795" lon="0.88341">
        <ele>468.8</ele>
        <time>2022-05-23 20:30:02</time>
      </trkpt>
      <trkpt lat="41.47793" lon="0.88341">
        <ele>469</ele>
        <time>2022-05-23 20:30:03</time>
      </trkpt>
      <trkpt lat="41.47791" lon="0.88341">
        <ele>469.2</ele>
        <time>2022-05-23 20:30:04</time>
      </trkpt>
      <trkpt lat="41.47789" lon="0.88342">
        <ele>469.2</ele>
        <time>2022-05-23 20:30:05</time>
      </trkpt>
      <trkpt lat="41.47787" lon="0.88342">
        <ele>469.4</ele>
        <time>2022-05-23 20:30:06</time>
      </trkpt>
      <trkpt lat="41.47785" lon="0.88342">
        <ele>469.6</ele>
        <time>2022-05-23 20:30:07</time>
      </trkpt>
      <trkpt lat="41.47783" lon="0.88342">
        <ele>469.6</ele>
        <time>2022-05-23 20:30:08</time>
      </trkpt>
      <trkpt lat="41.47781" lon="0.88343">
        <ele>469.8</ele>
        <time>2022-05-23 20:30:09</time>
      </trkpt>
      <trkpt lat="41.47778" lon="0.88343">
        <ele>470</ele>
        <time>2022-05-23 20:30:10</time>
      </trkpt>
      <trkpt lat="41.47776" lon="0.88342">
        <ele>470</ele>
        <time>2022-05-23 20:30:11</time>
      </trkpt>
      <trkpt lat="41.47774" lon="0.88342">
        <ele>470.2</ele>
        <time>2022-05-23 20:30:12</time>
      </trkpt>
      <trkpt lat="41.47772" lon="0.88342">
        <ele>470.2</ele>
        <time>2022-05-23 20:30:13</time>
      </trkpt>
      <trkpt lat="41.4777" lon="0.88342">
        <ele>470.4</ele>
        <time>2022-05-23 20:30:14</time>
      </trkpt>
      <trkpt lat="41.47768" lon="0.88342">
        <ele>470.6</ele>
        <time>2022-05-23 20:30:15</time>
      </trkpt>
      <trkpt lat="41.47766" lon="0.88342">
        <ele>470.6</ele>
        <time>2022-05-23 20:30:16</time>
      </trkpt>
      <trkpt lat="41.47764" lon="0.88342">
        <ele>470.8</ele>
        <time>2022-05-23 20:30:17</time>
      </trkpt>
      <trkpt lat="41.47762" lon="0.88342">
        <ele>470.8</ele>
        <time>2022-05-23 20:30:18</time>
      </trkpt>
      <trkpt lat="41.4776" lon="0.88342">
        <ele>470.8</ele>
        <time>2022-05-23 20:30:19</time>
      </trkpt>
      <trkpt lat="41.47758" lon="0.88341">
        <ele>471</ele>
        <time>2022-05-23 20:30:20</time>
      </trkpt>
      <trkpt lat="41.47756" lon="0.88341">
        <ele>471.2</ele>
        <time>2022-05-23 20:30:21</time>
      </trkpt>
      <trkpt lat="41.47753" lon="0.88341">
        <ele>471.4</ele>
        <time>2022-05-23 20:30:22</time>
      </trkpt>
      <trkpt lat="41.47751" lon="0.8834">
        <ele>471.4</ele>
        <time>2022-05-23 20:30:23</time>
      </trkpt>
      <trkpt lat="41.47749" lon="0.8834">
        <ele>471.6</ele>
        <time>2022-05-23 20:30:24</time>
      </trkpt>
      <trkpt lat="41.47747" lon="0.8834">
        <ele>471.6</ele>
        <time>2022-05-23 20:30:25</time>
      </trkpt>
      <trkpt lat="41.47745" lon="0.8834">
        <ele>471.8</ele>
        <time>2022-05-23 20:30:26</time>
      </trkpt>
      <trkpt lat="41.47743" lon="0.88339">
        <ele>471.8</ele>
        <time>2022-05-23 20:30:27</time>
      </trkpt>
      <trkpt lat="41.4774" lon="0.88339">
        <ele>472</ele>
        <time>2022-05-23 20:30:28</time>
      </trkpt>
      <trkpt lat="41.47738" lon="0.88338">
        <ele>472</ele>
        <time>2022-05-23 20:30:29</time>
      </trkpt>
      <trkpt lat="41.47736" lon="0.88337">
        <ele>472.2</ele>
        <time>2022-05-23 20:30:30</time>
      </trkpt>
      <trkpt lat="41.47734" lon="0.88337">
        <ele>472.2</ele>
        <time>2022-05-23 20:30:31</time>
      </trkpt>
      <trkpt lat="41.47731" lon="0.88336">
        <ele>472.4</ele>
        <time>2022-05-23 20:30:32</time>
      </trkpt>
      <trkpt lat="41.47729" lon="0.88335">
        <ele>472.4</ele>
        <time>2022-05-23 20:30:33</time>
      </trkpt>
      <trkpt lat="41.47727" lon="0.88334">
        <ele>472.6</ele>
        <time>2022-05-23 20:30:34</time>
      </trkpt>
      <trkpt lat="41.47724" lon="0.88333">
        <ele>472.6</ele>
        <time>2022-05-23 20:30:35</time>
      </trkpt>
      <trkpt lat="41.47722" lon="0.88333">
        <ele>472.6</ele>
        <time>2022-05-23 20:30:36</time>
      </trkpt>
      <trkpt lat="41.4772" lon="0.88332">
        <ele>472.8</ele>
        <time>2022-05-23 20:30:37</time>
      </trkpt>
      <trkpt lat="41.47717" lon="0.88331">
        <ele>472.8</ele>
        <time>2022-05-23 20:30:38</time>
      </trkpt>
      <trkpt lat="41.47715" lon="0.88331">
        <ele>473</ele>
        <time>2022-05-23 20:30:39</time>
      </trkpt>
      <trkpt lat="41.47712" lon="0.8833">
        <ele>473</ele>
        <time>2022-05-23 20:30:40</time>
      </trkpt>
      <trkpt lat="41.4771" lon="0.88329">
        <ele>473.2</ele>
        <time>2022-05-23 20:30:41</time>
      </trkpt>
      <trkpt lat="41.47707" lon="0.88329">
        <ele>473.2</ele>
        <time>2022-05-23 20:30:42</time>
      </trkpt>
      <trkpt lat="41.47705" lon="0.88328">
        <ele>473.4</ele>
        <time>2022-05-23 20:30:43</time>
      </trkpt>
      <trkpt lat="41.47702" lon="0.88327">
        <ele>473.4</ele>
        <time>2022-05-23 20:30:44</time>
      </trkpt>
      <trkpt lat="41.47699" lon="0.88326">
        <ele>473.4</ele>
        <time>2022-05-23 20:30:45</time>
      </trkpt>
      <trkpt lat="41.47697" lon="0.88325">
        <ele>473.6</ele>
        <time>2022-05-23 20:30:46</time>
      </trkpt>
      <trkpt lat="41.47694" lon="0.88324">
        <ele>473.6</ele>
        <time>2022-05-23 20:30:47</time>
      </trkpt>
      <trkpt lat="41.47691" lon="0.88323">
        <ele>473.8</ele>
        <time>2022-05-23 20:30:48</time>
      </trkpt>
      <trkpt lat="41.47688" lon="0.88321">
        <ele>473.8</ele>
        <time>2022-05-23 20:30:49</time>
      </trkpt>
      <trkpt lat="41.47685" lon="0.8832">
        <ele>473.8</ele>
        <time>2022-05-23 20:30:50</time>
      </trkpt>
      <trkpt lat="41.47682" lon="0.88319">
        <ele>474</ele>
        <time>2022-05-23 20:30:51</time>
      </trkpt>
      <trkpt lat="41.47679" lon="0.88318">
        <ele>473.8</ele>
        <time>2022-05-23 20:30:52</time>
      </trkpt>
      <trkpt lat="41.47675" lon="0.88317">
        <ele>473.8</ele>
        <time>2022-05-23 20:30:53</time>
      </trkpt>
      <trkpt lat="41.47672" lon="0.88316">
        <ele>473.8</ele>
        <time>2022-05-23 20:30:54</time>
      </trkpt>
      <trkpt lat="41.47669" lon="0.88315">
        <ele>473.8</ele>
        <time>2022-05-23 20:30:55</time>
      </trkpt>
      <trkpt lat="41.47666" lon="0.88314">
        <ele>473.8</ele>
        <time>2022-05-23 20:30:56</time>
      </trkpt>
      <trkpt lat="41.47663" lon="0.88312">
        <ele>473.8</ele>
        <time>2022-05-23 20:30:57</time>
      </trkpt>
      <trkpt lat="41.47659" lon="0.88311">
        <ele>473.8</ele>
        <time>2022-05-23 20:30:58</time>
      </trkpt>
      <trkpt lat="41.47655" lon="0.8831">
        <ele>473.8</ele>
        <time>2022-05-23 20:30:59</time>
      </trkpt>
      <trkpt lat="41.47652" lon="0.88309">
        <ele>473.8</ele>
        <time>2022-05-23 20:31:00</time>
      </trkpt>
      <trkpt lat="41.47648" lon="0.88308">
        <ele>473.8</ele>
        <time>2022-05-23 20:31:01</time>
      </trkpt>
      <trkpt lat="41.47644" lon="0.88306">
        <ele>473.6</ele>
        <time>2022-05-23 20:31:02</time>
      </trkpt>
      <trkpt lat="41.4764" lon="0.88305">
        <ele>473.6</ele>
        <time>2022-05-23 20:31:03</time>
      </trkpt>
      <trkpt lat="41.47636" lon="0.88304">
        <ele>473.6</ele>
        <time>2022-05-23 20:31:04</time>
      </trkpt>
      <trkpt lat="41.47632" lon="0.88302">
        <ele>473.6</ele>
        <time>2022-05-23 20:31:05</time>
      </trkpt>
      <trkpt lat="41.47628" lon="0.88301">
        <ele>473.6</ele>
        <time>2022-05-23 20:31:06</time>
      </trkpt>
      <trkpt lat="41.47624" lon="0.883">
        <ele>473.6</ele>
        <time>2022-05-23 20:31:07</time>
      </trkpt>
      <trkpt lat="41.4762" lon="0.88299">
        <ele>473.6</ele>
        <time>2022-05-23 20:31:08</time>
      </trkpt>
      <trkpt lat="41.47616" lon="0.88298">
        <ele>473.6</ele>
        <time>2022-05-23 20:31:09</time>
      </trkpt>
      <trkpt lat="41.47613" lon="0.88297">
        <ele>473.6</ele>
        <time>2022-05-23 20:31:10</time>
      </trkpt>
      <trkpt lat="41.47609" lon="0.88296">
        <ele>473.6</ele>
        <time>2022-05-23 20:31:11</time>
      </trkpt>
      <trkpt lat="41.47605" lon="0.88294">
        <ele>473.4</ele>
        <time>2022-05-23 20:31:12</time>
      </trkpt>
      <trkpt lat="41.47602" lon="0.88293">
        <ele>473.4</ele>
        <time>2022-05-23 20:31:13</time>
      </trkpt>
      <trkpt lat="41.47598" lon="0.88292">
        <ele>473.4</ele>
        <time>2022-05-23 20:31:14</time>
      </trkpt>
      <trkpt lat="41.47595" lon="0.88291">
        <ele>473.4</ele>
        <time>2022-05-23 20:31:15</time>
      </trkpt>
      <trkpt lat="41.47591" lon="0.88289">
        <ele>473.4</ele>
        <time>2022-05-23 20:31:16</time>
      </trkpt>
      <trkpt lat="41.47587" lon="0.88288">
        <ele>473.4</ele>
        <time>2022-05-23 20:31:17</time>
      </trkpt>
      <trkpt lat="41.47584" lon="0.88287">
        <ele>473.4</ele>
        <time>2022-05-23 20:31:18</time>
      </trkpt>
      <trkpt lat="41.4758" lon="0.88286">
        <ele>473.4</ele>
        <time>2022-05-23 20:31:19</time>
      </trkpt>
      <trkpt lat="41.47576" lon="0.88285">
        <ele>473.2</ele>
        <time>2022-05-23 20:31:20</time>
      </trkpt>
      <trkpt lat="41.47572" lon="0.88284">
        <ele>473.2</ele>
        <time>2022-05-23 20:31:21</time>
      </trkpt>
      <trkpt lat="41.47568" lon="0.88282">
        <ele>473.4</ele>
        <time>2022-05-23 20:31:22</time>
      </trkpt>
      <trkpt lat="41.47563" lon="0.88281">
        <ele>473.2</ele>
        <time>2022-05-23 20:31:23</time>
      </trkpt>
      <trkpt lat="41.47559" lon="0.8828">
        <ele>473.2</ele>
        <time>2022-05-23 20:31:24</time>
      </trkpt>
      <trkpt lat="41.47555" lon="0.88278">
        <ele>473.2</ele>
        <time>2022-05-23 20:31:25</time>
      </trkpt>
      <trkpt lat="41.47551" lon="0.88277">
        <ele>473.2</ele>
        <time>2022-05-23 20:31:26</time>
      </trkpt>
      <trkpt lat="41.47546" lon="0.88275">
        <ele>473</ele>
        <time>2022-05-23 20:31:27</time>
      </trkpt>
      <trkpt lat="41.47541" lon="0.88273">
        <ele>473</ele>
        <time>2022-05-23 20:31:28</time>
      </trkpt>
      <trkpt lat="41.47537" lon="0.88272">
        <ele>473</ele>
        <time>2022-05-23 20:31:29</time>
      </trkpt>
      <trkpt lat="41.47532" lon="0.8827">
        <ele>473</ele>
        <time>2022-05-23 20:31:30</time>
      </trkpt>
      <trkpt lat="41.47527" lon="0.88269">
        <ele>473</ele>
        <time>2022-05-23 20:31:31</time>
      </trkpt>
      <trkpt lat="41.47522" lon="0.88267">
        <ele>472.8</ele>
        <time>2022-05-23 20:31:32</time>
      </trkpt>
      <trkpt lat="41.47518" lon="0.88265">
        <ele>472.8</ele>
        <time>2022-05-23 20:31:33</time>
      </trkpt>
      <trkpt lat="41.47513" lon="0.88263">
        <ele>472.8</ele>
        <time>2022-05-23 20:31:34</time>
      </trkpt>
      <trkpt lat="41.47508" lon="0.88262">
        <ele>472.6</ele>
        <time>2022-05-23 20:31:35</time>
      </trkpt>
      <trkpt lat="41.47503" lon="0.88261">
        <ele>472.6</ele>
        <time>2022-05-23 20:31:36</time>
      </trkpt>
      <trkpt lat="41.47498" lon="0.88259">
        <ele>472.6</ele>
        <time>2022-05-23 20:31:37</time>
      </trkpt>
      <trkpt lat="41.47493" lon="0.88258">
        <ele>472.4</ele>
        <time>2022-05-23 20:31:38</time>
      </trkpt>
      <trkpt lat="41.47488" lon="0.88256">
        <ele>472.4</ele>
        <time>2022-05-23 20:31:39</time>
      </trkpt>
      <trkpt lat="41.47483" lon="0.88255">
        <ele>472.4</ele>
        <time>2022-05-23 20:31:40</time>
      </trkpt>
      <trkpt lat="41.47478" lon="0.88254">
        <ele>472.4</ele>
        <time>2022-05-23 20:31:41</time>
      </trkpt>
      <trkpt lat="41.47473" lon="0.88253">
        <ele>472.4</ele>
        <time>2022-05-23 20:31:42</time>
      </trkpt>
      <trkpt lat="41.47468" lon="0.88252">
        <ele>472.4</ele>
        <time>2022-05-23 20:31:43</time>
      </trkpt>
      <trkpt lat="41.47463" lon="0.88251">
        <ele>472.4</ele>
        <time>2022-05-23 20:31:44</time>
      </trkpt>
      <trkpt lat="41.47458" lon="0.8825">
        <ele>472.4</ele>
        <time>2022-05-23 20:31:45</time>
      </trkpt>
      <trkpt lat="41.47453" lon="0.8825">
        <ele>472.4</ele>
        <time>2022-05-23 20:31:46</time>
      </trkpt>
      <trkpt lat="41.47448" lon="0.88249">
        <ele>472.4</ele>
        <time>2022-05-23 20:31:47</time>
      </trkpt>
      <trkpt lat="41.47443" lon="0.8825">
        <ele>472.2</ele>
        <time>2022-05-23 20:31:48</time>
      </trkpt>
      <trkpt lat="41.47438" lon="0.8825">
        <ele>472.2</ele>
        <time>2022-05-23 20:31:49</time>
      </trkpt>
      <trkpt lat="41.47433" lon="0.8825">
        <ele>472.2</ele>
        <time>2022-05-23 20:31:50</time>
      </trkpt>
      <trkpt lat="41.47428" lon="0.8825">
        <ele>472.2</ele>
        <time>2022-05-23 20:31:51</time>
      </trkpt>
      <trkpt lat="41.47423" lon="0.88251">
        <ele>472.2</ele>
        <time>2022-05-23 20:31:52</time>
      </trkpt>
      <trkpt lat="41.47418" lon="0.88252">
        <ele>472.2</ele>
        <time>2022-05-23 20:31:53</time>
      </trkpt>
      <trkpt lat="41.47413" lon="0.88252">
        <ele>472</ele>
        <time>2022-05-23 20:31:54</time>
      </trkpt>
      <trkpt lat="41.47408" lon="0.88253">
        <ele>472</ele>
        <time>2022-05-23 20:31:55</time>
      </trkpt>
      <trkpt lat="41.47402" lon="0.88254">
        <ele>472</ele>
        <time>2022-05-23 20:31:56</time>
      </trkpt>
      <trkpt lat="41.47397" lon="0.88256">
        <ele>472</ele>
        <time>2022-05-23 20:31:57</time>
      </trkpt>
      <trkpt lat="41.47392" lon="0.88257">
        <ele>472</ele>
        <time>2022-05-23 20:31:58</time>
      </trkpt>
      <trkpt lat="41.47387" lon="0.88259">
        <ele>472</ele>
        <time>2022-05-23 20:31:59</time>
      </trkpt>
      <trkpt lat="41.47382" lon="0.8826">
        <ele>472</ele>
        <time>2022-05-23 20:32:00</time>
      </trkpt>
      <trkpt lat="41.47377" lon="0.88262">
        <ele>471.8</ele>
        <time>2022-05-23 20:32:01</time>
      </trkpt>
      <trkpt lat="41.47372" lon="0.88264">
        <ele>471.8</ele>
        <time>2022-05-23 20:32:02</time>
      </trkpt>
      <trkpt lat="41.47367" lon="0.88266">
        <ele>471.8</ele>
        <time>2022-05-23 20:32:03</time>
      </trkpt>
      <trkpt lat="41.47362" lon="0.88269">
        <ele>471.8</ele>
        <time>2022-05-23 20:32:04</time>
      </trkpt>
      <trkpt lat="41.47357" lon="0.88271">
        <ele>471.8</ele>
        <time>2022-05-23 20:32:05</time>
      </trkpt>
      <trkpt lat="41.47352" lon="0.88274">
        <ele>471.8</ele>
        <time>2022-05-23 20:32:06</time>
      </trkpt>
      <trkpt lat="41.47347" lon="0.88276">
        <ele>471.8</ele>
        <time>2022-05-23 20:32:07</time>
      </trkpt>
      <trkpt lat="41.47342" lon="0.88279">
        <ele>471.8</ele>
        <time>2022-05-23 20:32:08</time>
      </trkpt>
      <trkpt lat="41.47337" lon="0.88282">
        <ele>471.8</ele>
        <time>2022-05-23 20:32:09</time>
      </trkpt>
      <trkpt lat="41.47333" lon="0.88285">
        <ele>471.6</ele>
        <time>2022-05-23 20:32:10</time>
      </trkpt>
      <trkpt lat="41.47328" lon="0.88288">
        <ele>471.6</ele>
        <time>2022-05-23 20:32:11</time>
      </trkpt>
      <trkpt lat="41.47324" lon="0.88292">
        <ele>471.6</ele>
        <time>2022-05-23 20:32:12</time>
      </trkpt>
      <trkpt lat="41.4732" lon="0.88295">
        <ele>471.6</ele>
        <time>2022-05-23 20:32:13</time>
      </trkpt>
      <trkpt lat="41.47315" lon="0.88299">
        <ele>471.6</ele>
        <time>2022-05-23 20:32:14</time>
      </trkpt>
      <trkpt lat="41.47311" lon="0.88303">
        <ele>471.6</ele>
        <time>2022-05-23 20:32:15</time>
      </trkpt>
      <trkpt lat="41.47306" lon="0.88307">
        <ele>471.6</ele>
        <time>2022-05-23 20:32:16</time>
      </trkpt>
      <trkpt lat="41.47302" lon="0.88311">
        <ele>471.6</ele>
        <time>2022-05-23 20:32:17</time>
      </trkpt>
      <trkpt lat="41.47298" lon="0.88315">
        <ele>471.4</ele>
        <time>2022-05-23 20:32:18</time>
      </trkpt>
      <trkpt lat="41.47293" lon="0.8832">
        <ele>471.4</ele>
        <time>2022-05-23 20:32:19</time>
      </trkpt>
      <trkpt lat="41.47289" lon="0.88324">
        <ele>471.4</ele>
        <time>2022-05-23 20:32:20</time>
      </trkpt>
      <trkpt lat="41.47284" lon="0.88329">
        <ele>471.4</ele>
        <time>2022-05-23 20:32:21</time>
      </trkpt>
      <trkpt lat="41.47281" lon="0.88333">
        <ele>471.2</ele>
        <time>2022-05-23 20:32:22</time>
      </trkpt>
      <trkpt lat="41.47276" lon="0.88338">
        <ele>471.2</ele>
        <time>2022-05-23 20:32:23</time>
      </trkpt>
      <trkpt lat="41.47272" lon="0.88343">
        <ele>471.2</ele>
        <time>2022-05-23 20:32:24</time>
      </trkpt>
      <trkpt lat="41.47267" lon="0.88348">
        <ele>471</ele>
        <time>2022-05-23 20:32:25</time>
      </trkpt>
      <trkpt lat="41.47263" lon="0.88352">
        <ele>471</ele>
        <time>2022-05-23 20:32:26</time>
      </trkpt>
      <trkpt lat="41.47258" lon="0.88357">
        <ele>471</ele>
        <time>2022-05-23 20:32:27</time>
      </trkpt>
      <trkpt lat="41.47254" lon="0.88362">
        <ele>470.8</ele>
        <time>2022-05-23 20:32:28</time>
      </trkpt>
      <trkpt lat="41.4725" lon="0.88366">
        <ele>470.8</ele>
        <time>2022-05-23 20:32:29</time>
      </trkpt>
      <trkpt lat="41.47245" lon="0.8837">
        <ele>470.8</ele>
        <time>2022-05-23 20:32:30</time>
      </trkpt>
      <trkpt lat="41.4724" lon="0.88374">
        <ele>470.6</ele>
        <time>2022-05-23 20:32:31</time>
      </trkpt>
      <trkpt lat="41.47235" lon="0.88379">
        <ele>470.6</ele>
        <time>2022-05-23 20:32:32</time>
      </trkpt>
      <trkpt lat="41.4723" lon="0.88383">
        <ele>470.6</ele>
        <time>2022-05-23 20:32:33</time>
      </trkpt>
      <trkpt lat="41.47225" lon="0.88387">
        <ele>470.6</ele>
        <time>2022-05-23 20:32:34</time>
      </trkpt>
      <trkpt lat="41.4722" lon="0.88391">
        <ele>470.4</ele>
        <time>2022-05-23 20:32:35</time>
      </trkpt>
      <trkpt lat="41.47215" lon="0.88395">
        <ele>470.4</ele>
        <time>2022-05-23 20:32:36</time>
      </trkpt>
      <trkpt lat="41.4721" lon="0.88399">
        <ele>470.4</ele>
        <time>2022-05-23 20:32:37</time>
      </trkpt>
      <trkpt lat="41.47204" lon="0.88403">
        <ele>470.4</ele>
        <time>2022-05-23 20:32:38</time>
      </trkpt>
      <trkpt lat="41.47199" lon="0.88406">
        <ele>470.4</ele>
        <time>2022-05-23 20:32:39</time>
      </trkpt>
      <trkpt lat="41.47194" lon="0.8841">
        <ele>470.4</ele>
        <time>2022-05-23 20:32:40</time>
      </trkpt>
      <trkpt lat="41.47189" lon="0.88413">
        <ele>470.2</ele>
        <time>2022-05-23 20:32:41</time>
      </trkpt>
      <trkpt lat="41.47183" lon="0.88416">
        <ele>470.2</ele>
        <time>2022-05-23 20:32:42</time>
      </trkpt>
      <trkpt lat="41.47178" lon="0.88418">
        <ele>470.2</ele>
        <time>2022-05-23 20:32:43</time>
      </trkpt>
      <trkpt lat="41.47172" lon="0.88421">
        <ele>470.2</ele>
        <time>2022-05-23 20:32:44</time>
      </trkpt>
      <trkpt lat="41.47167" lon="0.88424">
        <ele>470</ele>
        <time>2022-05-23 20:32:45</time>
      </trkpt>
      <trkpt lat="41.47161" lon="0.88426">
        <ele>470</ele>
        <time>2022-05-23 20:32:46</time>
      </trkpt>
      <trkpt lat="41.47156" lon="0.88429">
        <ele>470</ele>
        <time>2022-05-23 20:32:47</time>
      </trkpt>
      <trkpt lat="41.4715" lon="0.88432">
        <ele>470</ele>
        <time>2022-05-23 20:32:48</time>
      </trkpt>
      <trkpt lat="41.47144" lon="0.88434">
        <ele>469.8</ele>
        <time>2022-05-23 20:32:49</time>
      </trkpt>
      <trkpt lat="41.47139" lon="0.88436">
        <ele>469.8</ele>
        <time>2022-05-23 20:32:50</time>
      </trkpt>
      <trkpt lat="41.47134" lon="0.88437">
        <ele>469.8</ele>
        <time>2022-05-23 20:32:51</time>
      </trkpt>
      <trkpt lat="41.47128" lon="0.88439">
        <ele>469.8</ele>
        <time>2022-05-23 20:32:52</time>
      </trkpt>
      <trkpt lat="41.47124" lon="0.8844">
        <ele>469.8</ele>
        <time>2022-05-23 20:32:53</time>
      </trkpt>
      <trkpt lat="41.47117" lon="0.88442">
        <ele>469.8</ele>
        <time>2022-05-23 20:32:54</time>
      </trkpt>
      <trkpt lat="41.47113" lon="0.88443">
        <ele>469.8</ele>
        <time>2022-05-23 20:32:55</time>
      </trkpt>
      <trkpt lat="41.47107" lon="0.88445">
        <ele>469.8</ele>
        <time>2022-05-23 20:32:56</time>
      </trkpt>
      <trkpt lat="41.47101" lon="0.88446">
        <ele>469.8</ele>
        <time>2022-05-23 20:32:57</time>
      </trkpt>
      <trkpt lat="41.47096" lon="0.88447">
        <ele>469.8</ele>
        <time>2022-05-23 20:32:58</time>
      </trkpt>
      <trkpt lat="41.47091" lon="0.88448">
        <ele>469.8</ele>
        <time>2022-05-23 20:32:59</time>
      </trkpt>
      <trkpt lat="41.47086" lon="0.88449">
        <ele>469.8</ele>
        <time>2022-05-23 20:33:00</time>
      </trkpt>
      <trkpt lat="41.47082" lon="0.8845">
        <ele>469.8</ele>
        <time>2022-05-23 20:33:01</time>
      </trkpt>
      <trkpt lat="41.47075" lon="0.88452">
        <ele>469.8</ele>
        <time>2022-05-23 20:33:02</time>
      </trkpt>
      <trkpt lat="41.4707" lon="0.88453">
        <ele>469.8</ele>
        <time>2022-05-23 20:33:03</time>
      </trkpt>
      <trkpt lat="41.47065" lon="0.88454">
        <ele>470</ele>
        <time>2022-05-23 20:33:04</time>
      </trkpt>
      <trkpt lat="41.4706" lon="0.88455">
        <ele>470</ele>
        <time>2022-05-23 20:33:05</time>
      </trkpt>
      <trkpt lat="41.47055" lon="0.88456">
        <ele>470</ele>
        <time>2022-05-23 20:33:06</time>
      </trkpt>
      <trkpt lat="41.4705" lon="0.88457">
        <ele>470</ele>
        <time>2022-05-23 20:33:07</time>
      </trkpt>
      <trkpt lat="41.47045" lon="0.88458">
        <ele>470.2</ele>
        <time>2022-05-23 20:33:08</time>
      </trkpt>
      <trkpt lat="41.47041" lon="0.88459">
        <ele>470.2</ele>
        <time>2022-05-23 20:33:09</time>
      </trkpt>
      <trkpt lat="41.47036" lon="0.8846">
        <ele>470.4</ele>
        <time>2022-05-23 20:33:10</time>
      </trkpt>
      <trkpt lat="41.47032" lon="0.88461">
        <ele>470.4</ele>
        <time>2022-05-23 20:33:11</time>
      </trkpt>
      <trkpt lat="41.47029" lon="0.88462">
        <ele>470.6</ele>
        <time>2022-05-23 20:33:12</time>
      </trkpt>
      <trkpt lat="41.47024" lon="0.88463">
        <ele>470.6</ele>
        <time>2022-05-23 20:33:13</time>
      </trkpt>
      <trkpt lat="41.4702" lon="0.88463">
        <ele>470.8</ele>
        <time>2022-05-23 20:33:14</time>
      </trkpt>
      <trkpt lat="41.47016" lon="0.88464">
        <ele>470.8</ele>
        <time>2022-05-23 20:33:15</time>
      </trkpt>
      <trkpt lat="41.47012" lon="0.88465">
        <ele>471</ele>
        <time>2022-05-23 20:33:16</time>
      </trkpt>
      <trkpt lat="41.47008" lon="0.88466">
        <ele>471</ele>
        <time>2022-05-23 20:33:17</time>
      </trkpt>
      <trkpt lat="41.47004" lon="0.88467">
        <ele>471</ele>
        <time>2022-05-23 20:33:18</time>
      </trkpt>
      <trkpt lat="41.47" lon="0.88468">
        <ele>471.2</ele>
        <time>2022-05-23 20:33:19</time>
      </trkpt>
      <trkpt lat="41.46996" lon="0.88469">
        <ele>471.4</ele>
        <time>2022-05-23 20:33:20</time>
      </trkpt>
      <trkpt lat="41.46992" lon="0.8847">
        <ele>471.4</ele>
        <time>2022-05-23 20:33:21</time>
      </trkpt>
      <trkpt lat="41.46989" lon="0.88471">
        <ele>471.6</ele>
        <time>2022-05-23 20:33:22</time>
      </trkpt>
      <trkpt lat="41.46985" lon="0.88472">
        <ele>471.6</ele>
        <time>2022-05-23 20:33:23</time>
      </trkpt>
      <trkpt lat="41.46981" lon="0.88473">
        <ele>471.8</ele>
        <time>2022-05-23 20:33:24</time>
      </trkpt>
      <trkpt lat="41.46978" lon="0.88474">
        <ele>471.8</ele>
        <time>2022-05-23 20:33:25</time>
      </trkpt>
      <trkpt lat="41.46974" lon="0.88475">
        <ele>472</ele>
        <time>2022-05-23 20:33:26</time>
      </trkpt>
      <trkpt lat="41.46971" lon="0.88475">
        <ele>472.2</ele>
        <time>2022-05-23 20:33:27</time>
      </trkpt>
      <trkpt lat="41.46967" lon="0.88476">
        <ele>472.2</ele>
        <time>2022-05-23 20:33:28</time>
      </trkpt>
      <trkpt lat="41.46964" lon="0.88477">
        <ele>472.4</ele>
        <time>2022-05-23 20:33:29</time>
      </trkpt>
      <trkpt lat="41.4696" lon="0.88477">
        <ele>472.4</ele>
        <time>2022-05-23 20:33:30</time>
      </trkpt>
      <trkpt lat="41.46957" lon="0.88478">
        <ele>472.6</ele>
        <time>2022-05-23 20:33:31</time>
      </trkpt>
      <trkpt lat="41.46953" lon="0.88479">
        <ele>472.8</ele>
        <time>2022-05-23 20:33:32</time>
      </trkpt>
      <trkpt lat="41.4695" lon="0.8848">
        <ele>472.8</ele>
        <time>2022-05-23 20:33:33</time>
      </trkpt>
      <trkpt lat="41.46947" lon="0.8848">
        <ele>472.8</ele>
        <time>2022-05-23 20:33:34</time>
      </trkpt>
      <trkpt lat="41.46944" lon="0.88481">
        <ele>473</ele>
        <time>2022-05-23 20:33:35</time>
      </trkpt>
      <trkpt lat="41.4694" lon="0.88482">
        <ele>473</ele>
        <time>2022-05-23 20:33:36</time>
      </trkpt>
      <trkpt lat="41.46937" lon="0.88482">
        <ele>473.2</ele>
        <time>2022-05-23 20:33:37</time>
      </trkpt>
      <trkpt lat="41.46933" lon="0.88483">
        <ele>473.2</ele>
        <time>2022-05-23 20:33:38</time>
      </trkpt>
      <trkpt lat="41.4693" lon="0.88484">
        <ele>473.4</ele>
        <time>2022-05-23 20:33:39</time>
      </trkpt>
      <trkpt lat="41.46926" lon="0.88485">
        <ele>473.4</ele>
        <time>2022-05-23 20:33:40</time>
      </trkpt>
      <trkpt lat="41.46923" lon="0.88485">
        <ele>473.6</ele>
        <time>2022-05-23 20:33:41</time>
      </trkpt>
      <trkpt lat="41.46919" lon="0.88486">
        <ele>473.6</ele>
        <time>2022-05-23 20:33:42</time>
      </trkpt>
      <trkpt lat="41.46916" lon="0.88487">
        <ele>473.8</ele>
        <time>2022-05-23 20:33:43</time>
      </trkpt>
      <trkpt lat="41.46913" lon="0.88487">
        <ele>474</ele>
        <time>2022-05-23 20:33:44</time>
      </trkpt>
      <trkpt lat="41.46909" lon="0.88488">
        <ele>474</ele>
        <time>2022-05-23 20:33:45</time>
      </trkpt>
      <trkpt lat="41.46906" lon="0.88489">
        <ele>474.2</ele>
        <time>2022-05-23 20:33:46</time>
      </trkpt>
      <trkpt lat="41.46902" lon="0.8849">
        <ele>474.2</ele>
        <time>2022-05-23 20:33:47</time>
      </trkpt>
      <trkpt lat="41.46899" lon="0.8849">
        <ele>474.4</ele>
        <time>2022-05-23 20:33:48</time>
      </trkpt>
      <trkpt lat="41.46895" lon="0.88491">
        <ele>474.4</ele>
        <time>2022-05-23 20:33:49</time>
      </trkpt>
      <trkpt lat="41.46892" lon="0.88491">
        <ele>474.6</ele>
        <time>2022-05-23 20:33:50</time>
      </trkpt>
      <trkpt lat="41.46889" lon="0.88492">
        <ele>474.6</ele>
        <time>2022-05-23 20:33:51</time>
      </trkpt>
      <trkpt lat="41.46886" lon="0.88493">
        <ele>474.8</ele>
        <time>2022-05-23 20:33:52</time>
      </trkpt>
      <trkpt lat="41.46882" lon="0.88494">
        <ele>474.8</ele>
        <time>2022-05-23 20:33:53</time>
      </trkpt>
      <trkpt lat="41.46879" lon="0.88494">
        <ele>475</ele>
        <time>2022-05-23 20:33:54</time>
      </trkpt>
      <trkpt lat="41.46876" lon="0.88495">
        <ele>475</ele>
        <time>2022-05-23 20:33:55</time>
      </trkpt>
      <trkpt lat="41.46873" lon="0.88496">
        <ele>475.2</ele>
        <time>2022-05-23 20:33:56</time>
      </trkpt>
      <trkpt lat="41.4687" lon="0.88496">
        <ele>475.2</ele>
        <time>2022-05-23 20:33:57</time>
      </trkpt>
      <trkpt lat="41.46866" lon="0.88497">
        <ele>475.4</ele>
        <time>2022-05-23 20:33:58</time>
      </trkpt>
      <trkpt lat="41.46863" lon="0.88498">
        <ele>475.4</ele>
        <time>2022-05-23 20:33:59</time>
      </trkpt>
      <trkpt lat="41.46861" lon="0.88498">
        <ele>475.6</ele>
        <time>2022-05-23 20:34:00</time>
      </trkpt>
      <trkpt lat="41.46857" lon="0.88499">
        <ele>475.6</ele>
        <time>2022-05-23 20:34:01</time>
      </trkpt>
      <trkpt lat="41.46854" lon="0.885">
        <ele>475.8</ele>
        <time>2022-05-23 20:34:02</time>
      </trkpt>
      <trkpt lat="41.46851" lon="0.88501">
        <ele>475.8</ele>
        <time>2022-05-23 20:34:03</time>
      </trkpt>
      <trkpt lat="41.46848" lon="0.88501">
        <ele>476</ele>
        <time>2022-05-23 20:34:04</time>
      </trkpt>
      <trkpt lat="41.46845" lon="0.88502">
        <ele>476</ele>
        <time>2022-05-23 20:34:05</time>
      </trkpt>
      <trkpt lat="41.46842" lon="0.88503">
        <ele>476.2</ele>
        <time>2022-05-23 20:34:06</time>
      </trkpt>
      <trkpt lat="41.46839" lon="0.88503">
        <ele>476.2</ele>
        <time>2022-05-23 20:34:07</time>
      </trkpt>
      <trkpt lat="41.46836" lon="0.88504">
        <ele>476.4</ele>
        <time>2022-05-23 20:34:08</time>
      </trkpt>
      <trkpt lat="41.46833" lon="0.88504">
        <ele>476.4</ele>
        <time>2022-05-23 20:34:09</time>
      </trkpt>
      <trkpt lat="41.46829" lon="0.88505">
        <ele>476.6</ele>
        <time>2022-05-23 20:34:10</time>
      </trkpt>
      <trkpt lat="41.46826" lon="0.88505">
        <ele>476.6</ele>
        <time>2022-05-23 20:34:11</time>
      </trkpt>
      <trkpt lat="41.46824" lon="0.88506">
        <ele>476.8</ele>
        <time>2022-05-23 20:34:12</time>
      </trkpt>
      <trkpt lat="41.4682" lon="0.88507">
        <ele>476.8</ele>
        <time>2022-05-23 20:34:13</time>
      </trkpt>
      <trkpt lat="41.46817" lon="0.88507">
        <ele>476.8</ele>
        <time>2022-05-23 20:34:14</time>
      </trkpt>
      <trkpt lat="41.46814" lon="0.88508">
        <ele>477</ele>
        <time>2022-05-23 20:34:15</time>
      </trkpt>
      <trkpt lat="41.46811" lon="0.88508">
        <ele>477</ele>
        <time>2022-05-23 20:34:16</time>
      </trkpt>
      <trkpt lat="41.46808" lon="0.88509">
        <ele>477.2</ele>
        <time>2022-05-23 20:34:17</time>
      </trkpt>
      <trkpt lat="41.46805" lon="0.8851">
        <ele>477.2</ele>
        <time>2022-05-23 20:34:18</time>
      </trkpt>
      <trkpt lat="41.46802" lon="0.88511">
        <ele>477.4</ele>
        <time>2022-05-23 20:34:19</time>
      </trkpt>
      <trkpt lat="41.46798" lon="0.88511">
        <ele>477.4</ele>
        <time>2022-05-23 20:34:20</time>
      </trkpt>
      <trkpt lat="41.46795" lon="0.88512">
        <ele>477.6</ele>
        <time>2022-05-23 20:34:21</time>
      </trkpt>
      <trkpt lat="41.46792" lon="0.88513">
        <ele>477.6</ele>
        <time>2022-05-23 20:34:22</time>
      </trkpt>
      <trkpt lat="41.46789" lon="0.88514">
        <ele>477.8</ele>
        <time>2022-05-23 20:34:23</time>
      </trkpt>
      <trkpt lat="41.46786" lon="0.88514">
        <ele>477.8</ele>
        <time>2022-05-23 20:34:24</time>
      </trkpt>
      <trkpt lat="41.46783" lon="0.88515">
        <ele>478</ele>
        <time>2022-05-23 20:34:25</time>
      </trkpt>
      <trkpt lat="41.4678" lon="0.88516">
        <ele>478</ele>
        <time>2022-05-23 20:34:26</time>
      </trkpt>
      <trkpt lat="41.46777" lon="0.88516">
        <ele>478.2</ele>
        <time>2022-05-23 20:34:27</time>
      </trkpt>
      <trkpt lat="41.46773" lon="0.88517">
        <ele>478.2</ele>
        <time>2022-05-23 20:34:28</time>
      </trkpt>
      <trkpt lat="41.4677" lon="0.88518">
        <ele>478.4</ele>
        <time>2022-05-23 20:34:29</time>
      </trkpt>
      <trkpt lat="41.46767" lon="0.88519">
        <ele>478.4</ele>
        <time>2022-05-23 20:34:30</time>
      </trkpt>
      <trkpt lat="41.46764" lon="0.8852">
        <ele>478.6</ele>
        <time>2022-05-23 20:34:31</time>
      </trkpt>
      <trkpt lat="41.46761" lon="0.88521">
        <ele>478.6</ele>
        <time>2022-05-23 20:34:32</time>
      </trkpt>
      <trkpt lat="41.46758" lon="0.88521">
        <ele>478.8</ele>
        <time>2022-05-23 20:34:33</time>
      </trkpt>
      <trkpt lat="41.46755" lon="0.88522">
        <ele>478.8</ele>
        <time>2022-05-23 20:34:34</time>
      </trkpt>
      <trkpt lat="41.46752" lon="0.88522">
        <ele>479</ele>
        <time>2022-05-23 20:34:35</time>
      </trkpt>
      <trkpt lat="41.46749" lon="0.88523">
        <ele>479</ele>
        <time>2022-05-23 20:34:36</time>
      </trkpt>
      <trkpt lat="41.46747" lon="0.88523">
        <ele>479</ele>
        <time>2022-05-23 20:34:37</time>
      </trkpt>
      <trkpt lat="41.46744" lon="0.88524">
        <ele>479.2</ele>
        <time>2022-05-23 20:34:38</time>
      </trkpt>
      <trkpt lat="41.46741" lon="0.88524">
        <ele>479.2</ele>
        <time>2022-05-23 20:34:39</time>
      </trkpt>
      <trkpt lat="41.46738" lon="0.88524">
        <ele>479.2</ele>
        <time>2022-05-23 20:34:40</time>
      </trkpt>
      <trkpt lat="41.46735" lon="0.88525">
        <ele>479.4</ele>
        <time>2022-05-23 20:34:41</time>
      </trkpt>
      <trkpt lat="41.46732" lon="0.88525">
        <ele>479.4</ele>
        <time>2022-05-23 20:34:42</time>
      </trkpt>
      <trkpt lat="41.4673" lon="0.88526">
        <ele>479.6</ele>
        <time>2022-05-23 20:34:43</time>
      </trkpt>
      <trkpt lat="41.46727" lon="0.88526">
        <ele>479.6</ele>
        <time>2022-05-23 20:34:44</time>
      </trkpt>
      <trkpt lat="41.46724" lon="0.88527">
        <ele>479.8</ele>
        <time>2022-05-23 20:34:45</time>
      </trkpt>
      <trkpt lat="41.46722" lon="0.88528">
        <ele>479.8</ele>
        <time>2022-05-23 20:34:46</time>
      </trkpt>
      <trkpt lat="41.46719" lon="0.88529">
        <ele>479.8</ele>
        <time>2022-05-23 20:34:47</time>
      </trkpt>
      <trkpt lat="41.46716" lon="0.88529">
        <ele>480</ele>
        <time>2022-05-23 20:34:48</time>
      </trkpt>
      <trkpt lat="41.46713" lon="0.88529">
        <ele>480</ele>
        <time>2022-05-23 20:34:49</time>
      </trkpt>
      <trkpt lat="41.4671" lon="0.8853">
        <ele>480.2</ele>
        <time>2022-05-23 20:34:50</time>
      </trkpt>
      <trkpt lat="41.46707" lon="0.8853">
        <ele>480.2</ele>
        <time>2022-05-23 20:34:51</time>
      </trkpt>
      <trkpt lat="41.46705" lon="0.88531">
        <ele>480.4</ele>
        <time>2022-05-23 20:34:52</time>
      </trkpt>
      <trkpt lat="41.46702" lon="0.88531">
        <ele>480.4</ele>
        <time>2022-05-23 20:34:53</time>
      </trkpt>
      <trkpt lat="41.46699" lon="0.88531">
        <ele>480.4</ele>
        <time>2022-05-23 20:34:54</time>
      </trkpt>
      <trkpt lat="41.46697" lon="0.88532">
        <ele>480.6</ele>
        <time>2022-05-23 20:34:55</time>
      </trkpt>
      <trkpt lat="41.46694" lon="0.88532">
        <ele>480.6</ele>
        <time>2022-05-23 20:34:56</time>
      </trkpt>
      <trkpt lat="41.46691" lon="0.88532">
        <ele>480.8</ele>
        <time>2022-05-23 20:34:57</time>
      </trkpt>
      <trkpt lat="41.46689" lon="0.88533">
        <ele>480.8</ele>
        <time>2022-05-23 20:34:58</time>
      </trkpt>
      <trkpt lat="41.46686" lon="0.88533">
        <ele>481</ele>
        <time>2022-05-23 20:34:59</time>
      </trkpt>
      <trkpt lat="41.46684" lon="0.88534">
        <ele>481</ele>
        <time>2022-05-23 20:35:00</time>
      </trkpt>
      <trkpt lat="41.46681" lon="0.88534">
        <ele>481</ele>
        <time>2022-05-23 20:35:01</time>
      </trkpt>
      <trkpt lat="41.46678" lon="0.88535">
        <ele>481.2</ele>
        <time>2022-05-23 20:35:02</time>
      </trkpt>
      <trkpt lat="41.46676" lon="0.88535">
        <ele>481.2</ele>
        <time>2022-05-23 20:35:03</time>
      </trkpt>
      <trkpt lat="41.46673" lon="0.88535">
        <ele>481.4</ele>
        <time>2022-05-23 20:35:04</time>
      </trkpt>
      <trkpt lat="41.4667" lon="0.88535">
        <ele>481.4</ele>
        <time>2022-05-23 20:35:05</time>
      </trkpt>
      <trkpt lat="41.46668" lon="0.88535">
        <ele>481.4</ele>
        <time>2022-05-23 20:35:06</time>
      </trkpt>
      <trkpt lat="41.46665" lon="0.88536">
        <ele>481.6</ele>
        <time>2022-05-23 20:35:07</time>
      </trkpt>
      <trkpt lat="41.46663" lon="0.88536">
        <ele>481.6</ele>
        <time>2022-05-23 20:35:08</time>
      </trkpt>
      <trkpt lat="41.4666" lon="0.88536">
        <ele>481.8</ele>
        <time>2022-05-23 20:35:09</time>
      </trkpt>
      <trkpt lat="41.46658" lon="0.88536">
        <ele>481.8</ele>
        <time>2022-05-23 20:35:10</time>
      </trkpt>
      <trkpt lat="41.46655" lon="0.88536">
        <ele>482</ele>
        <time>2022-05-23 20:35:11</time>
      </trkpt>
      <trkpt lat="41.46653" lon="0.88537">
        <ele>482</ele>
        <time>2022-05-23 20:35:12</time>
      </trkpt>
      <trkpt lat="41.4665" lon="0.88537">
        <ele>482</ele>
        <time>2022-05-23 20:35:13</time>
      </trkpt>
      <trkpt lat="41.46648" lon="0.88537">
        <ele>482.2</ele>
        <time>2022-05-23 20:35:14</time>
      </trkpt>
      <trkpt lat="41.46645" lon="0.88537">
        <ele>482.2</ele>
        <time>2022-05-23 20:35:15</time>
      </trkpt>
      <trkpt lat="41.46642" lon="0.88537">
        <ele>482.4</ele>
        <time>2022-05-23 20:35:16</time>
      </trkpt>
      <trkpt lat="41.4664" lon="0.88538">
        <ele>482.4</ele>
        <time>2022-05-23 20:35:17</time>
      </trkpt>
      <trkpt lat="41.46637" lon="0.88538">
        <ele>482.6</ele>
        <time>2022-05-23 20:35:18</time>
      </trkpt>
      <trkpt lat="41.46634" lon="0.88539">
        <ele>482.6</ele>
        <time>2022-05-23 20:35:19</time>
      </trkpt>
      <trkpt lat="41.46632" lon="0.88539">
        <ele>482.6</ele>
        <time>2022-05-23 20:35:20</time>
      </trkpt>
      <trkpt lat="41.46629" lon="0.88539">
        <ele>482.8</ele>
        <time>2022-05-23 20:35:21</time>
      </trkpt>
      <trkpt lat="41.46626" lon="0.88539">
        <ele>482.8</ele>
        <time>2022-05-23 20:35:22</time>
      </trkpt>
      <trkpt lat="41.46624" lon="0.88539">
        <ele>483</ele>
        <time>2022-05-23 20:35:23</time>
      </trkpt>
      <trkpt lat="41.46621" lon="0.8854">
        <ele>483</ele>
        <time>2022-05-23 20:35:24</time>
      </trkpt>
      <trkpt lat="41.46618" lon="0.8854">
        <ele>483.2</ele>
        <time>2022-05-23 20:35:25</time>
      </trkpt>
      <trkpt lat="41.46616" lon="0.8854">
        <ele>483.2</ele>
        <time>2022-05-23 20:35:26</time>
      </trkpt>
      <trkpt lat="41.46613" lon="0.8854">
        <ele>483.2</ele>
        <time>2022-05-23 20:35:27</time>
      </trkpt>
      <trkpt lat="41.46611" lon="0.88541">
        <ele>483.4</ele>
        <time>2022-05-23 20:35:28</time>
      </trkpt>
      <trkpt lat="41.46608" lon="0.88541">
        <ele>483.4</ele>
        <time>2022-05-23 20:35:29</time>
      </trkpt>
      <trkpt lat="41.46605" lon="0.88541">
        <ele>483.4</ele>
        <time>2022-05-23 20:35:30</time>
      </trkpt>
      <trkpt lat="41.46603" lon="0.88541">
        <ele>483.6</ele>
        <time>2022-05-23 20:35:31</time>
      </trkpt>
      <trkpt lat="41.466" lon="0.88541">
        <ele>483.6</ele>
        <time>2022-05-23 20:35:32</time>
      </trkpt>
      <trkpt lat="41.46597" lon="0.88541">
        <ele>483.8</ele>
        <time>2022-05-23 20:35:33</time>
      </trkpt>
      <trkpt lat="41.46595" lon="0.88542">
        <ele>483.8</ele>
        <time>2022-05-23 20:35:34</time>
      </trkpt>
      <trkpt lat="41.46592" lon="0.88542">
        <ele>484</ele>
        <time>2022-05-23 20:35:35</time>
      </trkpt>
      <trkpt lat="41.4659" lon="0.88542">
        <ele>484</ele>
        <time>2022-05-23 20:35:36</time>
      </trkpt>
      <trkpt lat="41.46587" lon="0.88542">
        <ele>484</ele>
        <time>2022-05-23 20:35:37</time>
      </trkpt>
      <trkpt lat="41.46584" lon="0.88543">
        <ele>484.2</ele>
        <time>2022-05-23 20:35:38</time>
      </trkpt>
      <trkpt lat="41.46582" lon="0.88543">
        <ele>484.2</ele>
        <time>2022-05-23 20:35:39</time>
      </trkpt>
      <trkpt lat="41.46579" lon="0.88543">
        <ele>484.4</ele>
        <time>2022-05-23 20:35:40</time>
      </trkpt>
      <trkpt lat="41.46576" lon="0.88543">
        <ele>484.4</ele>
        <time>2022-05-23 20:35:41</time>
      </trkpt>
      <trkpt lat="41.46574" lon="0.88544">
        <ele>484.4</ele>
        <time>2022-05-23 20:35:42</time>
      </trkpt>
      <trkpt lat="41.46571" lon="0.88544">
        <ele>484.6</ele>
        <time>2022-05-23 20:35:43</time>
      </trkpt>
      <trkpt lat="41.46568" lon="0.88545">
        <ele>484.6</ele>
        <time>2022-05-23 20:35:44</time>
      </trkpt>
      <trkpt lat="41.46566" lon="0.88545">
        <ele>484.6</ele>
        <time>2022-05-23 20:35:45</time>
      </trkpt>
      <trkpt lat="41.46563" lon="0.88545">
        <ele>484.8</ele>
        <time>2022-05-23 20:35:46</time>
      </trkpt>
      <trkpt lat="41.4656" lon="0.88545">
        <ele>484.8</ele>
        <time>2022-05-23 20:35:47</time>
      </trkpt>
      <trkpt lat="41.46558" lon="0.88545">
        <ele>485</ele>
        <time>2022-05-23 20:35:48</time>
      </trkpt>
      <trkpt lat="41.46555" lon="0.88545">
        <ele>485</ele>
        <time>2022-05-23 20:35:49</time>
      </trkpt>
      <trkpt lat="41.46552" lon="0.88546">
        <ele>485</ele>
        <time>2022-05-23 20:35:50</time>
      </trkpt>
      <trkpt lat="41.4655" lon="0.88546">
        <ele>485.2</ele>
        <time>2022-05-23 20:35:51</time>
      </trkpt>
      <trkpt lat="41.46547" lon="0.88546">
        <ele>485.2</ele>
        <time>2022-05-23 20:35:52</time>
      </trkpt>
      <trkpt lat="41.46545" lon="0.88546">
        <ele>485.2</ele>
        <time>2022-05-23 20:35:53</time>
      </trkpt>
      <trkpt lat="41.46542" lon="0.88547">
        <ele>485.4</ele>
        <time>2022-05-23 20:35:54</time>
      </trkpt>
      <trkpt lat="41.4654" lon="0.88547">
        <ele>485.4</ele>
        <time>2022-05-23 20:35:55</time>
      </trkpt>
      <trkpt lat="41.46537" lon="0.88547">
        <ele>485.6</ele>
        <time>2022-05-23 20:35:56</time>
      </trkpt>
      <trkpt lat="41.46534" lon="0.88548">
        <ele>485.6</ele>
        <time>2022-05-23 20:35:57</time>
      </trkpt>
      <trkpt lat="41.46532" lon="0.88548">
        <ele>485.6</ele>
        <time>2022-05-23 20:35:58</time>
      </trkpt>
      <trkpt lat="41.46529" lon="0.88548">
        <ele>485.8</ele>
        <time>2022-05-23 20:35:59</time>
      </trkpt>
      <trkpt lat="41.46526" lon="0.88548">
        <ele>485.8</ele>
        <time>2022-05-23 20:36:00</time>
      </trkpt>
      <trkpt lat="41.46523" lon="0.88548">
        <ele>486</ele>
        <time>2022-05-23 20:36:01</time>
      </trkpt>
      <trkpt lat="41.4652" lon="0.88549">
        <ele>486</ele>
        <time>2022-05-23 20:36:02</time>
      </trkpt>
      <trkpt lat="41.46517" lon="0.88549">
        <ele>486.2</ele>
        <time>2022-05-23 20:36:03</time>
      </trkpt>
      <trkpt lat="41.46514" lon="0.88549">
        <ele>486.4</ele>
        <time>2022-05-23 20:36:04</time>
      </trkpt>
      <trkpt lat="41.46512" lon="0.88549">
        <ele>486.4</ele>
        <time>2022-05-23 20:36:05</time>
      </trkpt>
      <trkpt lat="41.46509" lon="0.8855">
        <ele>486.6</ele>
        <time>2022-05-23 20:36:06</time>
      </trkpt>
      <trkpt lat="41.46506" lon="0.8855">
        <ele>486.6</ele>
        <time>2022-05-23 20:36:07</time>
      </trkpt>
      <trkpt lat="41.46504" lon="0.8855">
        <ele>486.8</ele>
        <time>2022-05-23 20:36:08</time>
      </trkpt>
      <trkpt lat="41.46501" lon="0.88551">
        <ele>486.8</ele>
        <time>2022-05-23 20:36:09</time>
      </trkpt>
      <trkpt lat="41.46499" lon="0.88551">
        <ele>487</ele>
        <time>2022-05-23 20:36:10</time>
      </trkpt>
      <trkpt lat="41.46496" lon="0.88551">
        <ele>487</ele>
        <time>2022-05-23 20:36:11</time>
      </trkpt>
      <trkpt lat="41.46494" lon="0.88551">
        <ele>487.2</ele>
        <time>2022-05-23 20:36:12</time>
      </trkpt>
      <trkpt lat="41.46492" lon="0.88551">
        <ele>487.2</ele>
        <time>2022-05-23 20:36:13</time>
      </trkpt>
      <trkpt lat="41.46489" lon="0.88551">
        <ele>487.4</ele>
        <time>2022-05-23 20:36:14</time>
      </trkpt>
      <trkpt lat="41.46487" lon="0.88552">
        <ele>487.6</ele>
        <time>2022-05-23 20:36:15</time>
      </trkpt>
      <trkpt lat="41.46484" lon="0.88552">
        <ele>487.6</ele>
        <time>2022-05-23 20:36:16</time>
      </trkpt>
      <trkpt lat="41.46482" lon="0.88552">
        <ele>487.8</ele>
        <time>2022-05-23 20:36:17</time>
      </trkpt>
      <trkpt lat="41.46479" lon="0.88552">
        <ele>487.8</ele>
        <time>2022-05-23 20:36:18</time>
      </trkpt>
      <trkpt lat="41.46477" lon="0.88552">
        <ele>488</ele>
        <time>2022-05-23 20:36:19</time>
      </trkpt>
      <trkpt lat="41.46475" lon="0.88552">
        <ele>488</ele>
        <time>2022-05-23 20:36:20</time>
      </trkpt>
      <trkpt lat="41.46472" lon="0.88553">
        <ele>488.2</ele>
        <time>2022-05-23 20:36:21</time>
      </trkpt>
      <trkpt lat="41.46469" lon="0.88553">
        <ele>488.2</ele>
        <time>2022-05-23 20:36:22</time>
      </trkpt>
      <trkpt lat="41.46467" lon="0.88553">
        <ele>488.4</ele>
        <time>2022-05-23 20:36:23</time>
      </trkpt>
      <trkpt lat="41.46465" lon="0.88553">
        <ele>488.4</ele>
        <time>2022-05-23 20:36:24</time>
      </trkpt>
      <trkpt lat="41.46462" lon="0.88554">
        <ele>488.6</ele>
        <time>2022-05-23 20:36:25</time>
      </trkpt>
      <trkpt lat="41.46459" lon="0.88554">
        <ele>488.8</ele>
        <time>2022-05-23 20:36:26</time>
      </trkpt>
      <trkpt lat="41.46457" lon="0.88554">
        <ele>488.8</ele>
        <time>2022-05-23 20:36:27</time>
      </trkpt>
      <trkpt lat="41.46455" lon="0.88554">
        <ele>489</ele>
        <time>2022-05-23 20:36:28</time>
      </trkpt>
      <trkpt lat="41.46452" lon="0.88555">
        <ele>489</ele>
        <time>2022-05-23 20:36:29</time>
      </trkpt>
      <trkpt lat="41.4645" lon="0.88555">
        <ele>489.2</ele>
        <time>2022-05-23 20:36:30</time>
      </trkpt>
      <trkpt lat="41.46447" lon="0.88555">
        <ele>489.2</ele>
        <time>2022-05-23 20:36:31</time>
      </trkpt>
      <trkpt lat="41.46444" lon="0.88555">
        <ele>489.4</ele>
        <time>2022-05-23 20:36:32</time>
      </trkpt>
      <trkpt lat="41.46442" lon="0.88555">
        <ele>489.6</ele>
        <time>2022-05-23 20:36:33</time>
      </trkpt>
      <trkpt lat="41.46439" lon="0.88556">
        <ele>489.6</ele>
        <time>2022-05-23 20:36:34</time>
      </trkpt>
      <trkpt lat="41.46437" lon="0.88556">
        <ele>489.8</ele>
        <time>2022-05-23 20:36:35</time>
      </trkpt>
      <trkpt lat="41.46434" lon="0.88556">
        <ele>489.8</ele>
        <time>2022-05-23 20:36:36</time>
      </trkpt>
      <trkpt lat="41.46431" lon="0.88557">
        <ele>490</ele>
        <time>2022-05-23 20:36:37</time>
      </trkpt>
      <trkpt lat="41.46429" lon="0.88557">
        <ele>490</ele>
        <time>2022-05-23 20:36:38</time>
      </trkpt>
      <trkpt lat="41.46426" lon="0.88557">
        <ele>490.2</ele>
        <time>2022-05-23 20:36:39</time>
      </trkpt>
      <trkpt lat="41.46424" lon="0.88557">
        <ele>490.2</ele>
        <time>2022-05-23 20:36:40</time>
      </trkpt>
      <trkpt lat="41.46421" lon="0.88557">
        <ele>490.4</ele>
        <time>2022-05-23 20:36:41</time>
      </trkpt>
      <trkpt lat="41.46418" lon="0.88557">
        <ele>490.4</ele>
        <time>2022-05-23 20:36:42</time>
      </trkpt>
      <trkpt lat="41.46416" lon="0.88557">
        <ele>490.6</ele>
        <time>2022-05-23 20:36:43</time>
      </trkpt>
      <trkpt lat="41.46413" lon="0.88557">
        <ele>490.6</ele>
        <time>2022-05-23 20:36:44</time>
      </trkpt>
      <trkpt lat="41.4641" lon="0.88557">
        <ele>490.8</ele>
        <time>2022-05-23 20:36:45</time>
      </trkpt>
      <trkpt lat="41.46408" lon="0.88556">
        <ele>491</ele>
        <time>2022-05-23 20:36:46</time>
      </trkpt>
      <trkpt lat="41.46405" lon="0.88556">
        <ele>491</ele>
        <time>2022-05-23 20:36:47</time>
      </trkpt>
      <trkpt lat="41.46403" lon="0.88556">
        <ele>491.2</ele>
        <time>2022-05-23 20:36:48</time>
      </trkpt>
      <trkpt lat="41.464" lon="0.88556">
        <ele>491.4</ele>
        <time>2022-05-23 20:36:49</time>
      </trkpt>
      <trkpt lat="41.46397" lon="0.88556">
        <ele>491.4</ele>
        <time>2022-05-23 20:36:50</time>
      </trkpt>
      <trkpt lat="41.46395" lon="0.88556">
        <ele>491.6</ele>
        <time>2022-05-23 20:36:51</time>
      </trkpt>
      <trkpt lat="41.46393" lon="0.88556">
        <ele>491.8</ele>
        <time>2022-05-23 20:36:52</time>
      </trkpt>
      <trkpt lat="41.4639" lon="0.88556">
        <ele>491.8</ele>
        <time>2022-05-23 20:36:53</time>
      </trkpt>
      <trkpt lat="41.46387" lon="0.88555">
        <ele>492</ele>
        <time>2022-05-23 20:36:54</time>
      </trkpt>
      <trkpt lat="41.46385" lon="0.88555">
        <ele>492.2</ele>
        <time>2022-05-23 20:36:55</time>
      </trkpt>
      <trkpt lat="41.46382" lon="0.88555">
        <ele>492.2</ele>
        <time>2022-05-23 20:36:56</time>
      </trkpt>
      <trkpt lat="41.46379" lon="0.88555">
        <ele>492.4</ele>
        <time>2022-05-23 20:36:57</time>
      </trkpt>
      <trkpt lat="41.46377" lon="0.88554">
        <ele>492.6</ele>
        <time>2022-05-23 20:36:58</time>
      </trkpt>
      <trkpt lat="41.46374" lon="0.88554">
        <ele>492.6</ele>
        <time>2022-05-23 20:36:59</time>
      </trkpt>
      <trkpt lat="41.46372" lon="0.88553">
        <ele>492.8</ele>
        <time>2022-05-23 20:37:00</time>
      </trkpt>
      <trkpt lat="41.46369" lon="0.88553">
        <ele>492.8</ele>
        <time>2022-05-23 20:37:01</time>
      </trkpt>
      <trkpt lat="41.46367" lon="0.88553">
        <ele>493</ele>
        <time>2022-05-23 20:37:02</time>
      </trkpt>
      <trkpt lat="41.46363" lon="0.88552">
        <ele>493.2</ele>
        <time>2022-05-23 20:37:03</time>
      </trkpt>
      <trkpt lat="41.46361" lon="0.88552">
        <ele>493.2</ele>
        <time>2022-05-23 20:37:04</time>
      </trkpt>
      <trkpt lat="41.46358" lon="0.88552">
        <ele>493.4</ele>
        <time>2022-05-23 20:37:05</time>
      </trkpt>
      <trkpt lat="41.46356" lon="0.88551">
        <ele>493.4</ele>
        <time>2022-05-23 20:37:06</time>
      </trkpt>
      <trkpt lat="41.46353" lon="0.88551">
        <ele>493.6</ele>
        <time>2022-05-23 20:37:07</time>
      </trkpt>
      <trkpt lat="41.4635" lon="0.8855">
        <ele>493.8</ele>
        <time>2022-05-23 20:37:08</time>
      </trkpt>
      <trkpt lat="41.46347" lon="0.88549">
        <ele>493.8</ele>
        <time>2022-05-23 20:37:09</time>
      </trkpt>
      <trkpt lat="41.46345" lon="0.88549">
        <ele>494</ele>
        <time>2022-05-23 20:37:10</time>
      </trkpt>
      <trkpt lat="41.46342" lon="0.88548">
        <ele>494</ele>
        <time>2022-05-23 20:37:11</time>
      </trkpt>
      <trkpt lat="41.4634" lon="0.88547">
        <ele>494.2</ele>
        <time>2022-05-23 20:37:12</time>
      </trkpt>
      <trkpt lat="41.46337" lon="0.88546">
        <ele>494.4</ele>
        <time>2022-05-23 20:37:13</time>
      </trkpt>
      <trkpt lat="41.46334" lon="0.88546">
        <ele>494.4</ele>
        <time>2022-05-23 20:37:14</time>
      </trkpt>
      <trkpt lat="41.46332" lon="0.88545">
        <ele>494.6</ele>
        <time>2022-05-23 20:37:15</time>
      </trkpt>
      <trkpt lat="41.46329" lon="0.88544">
        <ele>494.6</ele>
        <time>2022-05-23 20:37:16</time>
      </trkpt>
      <trkpt lat="41.46327" lon="0.88543">
        <ele>494.8</ele>
        <time>2022-05-23 20:37:17</time>
      </trkpt>
      <trkpt lat="41.46324" lon="0.88543">
        <ele>495</ele>
        <time>2022-05-23 20:37:18</time>
      </trkpt>
      <trkpt lat="41.46321" lon="0.88542">
        <ele>495</ele>
        <time>2022-05-23 20:37:19</time>
      </trkpt>
      <trkpt lat="41.46319" lon="0.88541">
        <ele>495.2</ele>
        <time>2022-05-23 20:37:20</time>
      </trkpt>
      <trkpt lat="41.46316" lon="0.8854">
        <ele>495.4</ele>
        <time>2022-05-23 20:37:21</time>
      </trkpt>
      <trkpt lat="41.46313" lon="0.88538">
        <ele>495.4</ele>
        <time>2022-05-23 20:37:22</time>
      </trkpt>
      <trkpt lat="41.4631" lon="0.88538">
        <ele>495.6</ele>
        <time>2022-05-23 20:37:23</time>
      </trkpt>
      <trkpt lat="41.46308" lon="0.88537">
        <ele>495.6</ele>
        <time>2022-05-23 20:37:24</time>
      </trkpt>
      <trkpt lat="41.46305" lon="0.88536">
        <ele>495.8</ele>
        <time>2022-05-23 20:37:25</time>
      </trkpt>
      <trkpt lat="41.46303" lon="0.88535">
        <ele>496</ele>
        <time>2022-05-23 20:37:26</time>
      </trkpt>
      <trkpt lat="41.463" lon="0.88534">
        <ele>496</ele>
        <time>2022-05-23 20:37:27</time>
      </trkpt>
      <trkpt lat="41.46298" lon="0.88533">
        <ele>496.2</ele>
        <time>2022-05-23 20:37:28</time>
      </trkpt>
      <trkpt lat="41.46294" lon="0.88532">
        <ele>496.2</ele>
        <time>2022-05-23 20:37:29</time>
      </trkpt>
      <trkpt lat="41.46291" lon="0.88531">
        <ele>496.4</ele>
        <time>2022-05-23 20:37:30</time>
      </trkpt>
      <trkpt lat="41.46289" lon="0.88531">
        <ele>496.4</ele>
        <time>2022-05-23 20:37:31</time>
      </trkpt>
      <trkpt lat="41.46286" lon="0.8853">
        <ele>496.6</ele>
        <time>2022-05-23 20:37:32</time>
      </trkpt>
      <trkpt lat="41.46283" lon="0.88529">
        <ele>496.8</ele>
        <time>2022-05-23 20:37:33</time>
      </trkpt>
      <trkpt lat="41.46281" lon="0.88529">
        <ele>496.8</ele>
        <time>2022-05-23 20:37:34</time>
      </trkpt>
      <trkpt lat="41.46278" lon="0.88528">
        <ele>497</ele>
        <time>2022-05-23 20:37:35</time>
      </trkpt>
      <trkpt lat="41.46275" lon="0.88527">
        <ele>497</ele>
        <time>2022-05-23 20:37:36</time>
      </trkpt>
      <trkpt lat="41.46272" lon="0.88527">
        <ele>497</ele>
        <time>2022-05-23 20:37:37</time>
      </trkpt>
      <trkpt lat="41.46269" lon="0.88526">
        <ele>497</ele>
        <time>2022-05-23 20:37:38</time>
      </trkpt>
      <trkpt lat="41.46266" lon="0.88525">
        <ele>497.2</ele>
        <time>2022-05-23 20:37:39</time>
      </trkpt>
      <trkpt lat="41.46263" lon="0.88524">
        <ele>497.2</ele>
        <time>2022-05-23 20:37:40</time>
      </trkpt>
      <trkpt lat="41.4626" lon="0.88523">
        <ele>497.2</ele>
        <time>2022-05-23 20:37:41</time>
      </trkpt>
      <trkpt lat="41.46257" lon="0.88522">
        <ele>497.2</ele>
        <time>2022-05-23 20:37:42</time>
      </trkpt>
      <trkpt lat="41.46253" lon="0.88521">
        <ele>497.4</ele>
        <time>2022-05-23 20:37:43</time>
      </trkpt>
      <trkpt lat="41.46251" lon="0.8852">
        <ele>497.4</ele>
        <time>2022-05-23 20:37:44</time>
      </trkpt>
      <trkpt lat="41.46247" lon="0.8852">
        <ele>497.4</ele>
        <time>2022-05-23 20:37:45</time>
      </trkpt>
      <trkpt lat="41.46245" lon="0.88519">
        <ele>497.6</ele>
        <time>2022-05-23 20:37:46</time>
      </trkpt>
      <trkpt lat="41.46242" lon="0.88519">
        <ele>497.6</ele>
        <time>2022-05-23 20:37:47</time>
      </trkpt>
      <trkpt lat="41.46239" lon="0.88518">
        <ele>497.6</ele>
        <time>2022-05-23 20:37:48</time>
      </trkpt>
      <trkpt lat="41.46237" lon="0.88518">
        <ele>497.6</ele>
        <time>2022-05-23 20:37:49</time>
      </trkpt>
      <trkpt lat="41.46234" lon="0.88518">
        <ele>497.6</ele>
        <time>2022-05-23 20:37:50</time>
      </trkpt>
      <trkpt lat="41.46231" lon="0.88517">
        <ele>497.6</ele>
        <time>2022-05-23 20:37:51</time>
      </trkpt>
      <trkpt lat="41.46227" lon="0.88516">
        <ele>497.6</ele>
        <time>2022-05-23 20:37:52</time>
      </trkpt>
      <trkpt lat="41.46224" lon="0.88515">
        <ele>497.8</ele>
        <time>2022-05-23 20:37:53</time>
      </trkpt>
      <trkpt lat="41.4622" lon="0.88514">
        <ele>497.8</ele>
        <time>2022-05-23 20:37:54</time>
      </trkpt>
      <trkpt lat="41.46217" lon="0.88514">
        <ele>497.8</ele>
        <time>2022-05-23 20:37:55</time>
      </trkpt>
      <trkpt lat="41.46213" lon="0.88513">
        <ele>497.8</ele>
        <time>2022-05-23 20:37:56</time>
      </trkpt>
      <trkpt lat="41.4621" lon="0.88512">
        <ele>497.8</ele>
        <time>2022-05-23 20:37:57</time>
      </trkpt>
      <trkpt lat="41.46206" lon="0.88511">
        <ele>497.8</ele>
        <time>2022-05-23 20:37:58</time>
      </trkpt>
      <trkpt lat="41.46203" lon="0.8851">
        <ele>498</ele>
        <time>2022-05-23 20:37:59</time>
      </trkpt>
      <trkpt lat="41.46199" lon="0.8851">
        <ele>498</ele>
        <time>2022-05-23 20:38:00</time>
      </trkpt>
      <trkpt lat="41.46195" lon="0.88509">
        <ele>498</ele>
        <time>2022-05-23 20:38:01</time>
      </trkpt>
      <trkpt lat="41.46191" lon="0.88508">
        <ele>498</ele>
        <time>2022-05-23 20:38:02</time>
      </trkpt>
      <trkpt lat="41.46187" lon="0.88507">
        <ele>498.2</ele>
        <time>2022-05-23 20:38:03</time>
      </trkpt>
      <trkpt lat="41.46184" lon="0.88507">
        <ele>498.2</ele>
        <time>2022-05-23 20:38:04</time>
      </trkpt>
      <trkpt lat="41.4618" lon="0.88506">
        <ele>498.2</ele>
        <time>2022-05-23 20:38:05</time>
      </trkpt>
      <trkpt lat="41.46176" lon="0.88505">
        <ele>498.2</ele>
        <time>2022-05-23 20:38:06</time>
      </trkpt>
      <trkpt lat="41.46173" lon="0.88504">
        <ele>498.2</ele>
        <time>2022-05-23 20:38:07</time>
      </trkpt>
      <trkpt lat="41.46169" lon="0.88503">
        <ele>498.4</ele>
        <time>2022-05-23 20:38:08</time>
      </trkpt>
      <trkpt lat="41.46165" lon="0.88502">
        <ele>498.4</ele>
        <time>2022-05-23 20:38:09</time>
      </trkpt>
      <trkpt lat="41.46162" lon="0.88502">
        <ele>498.4</ele>
        <time>2022-05-23 20:38:10</time>
      </trkpt>
      <trkpt lat="41.46158" lon="0.88501">
        <ele>498.6</ele>
        <time>2022-05-23 20:38:11</time>
      </trkpt>
      <trkpt lat="41.46154" lon="0.885">
        <ele>498.6</ele>
        <time>2022-05-23 20:38:12</time>
      </trkpt>
      <trkpt lat="41.4615" lon="0.885">
        <ele>498.6</ele>
        <time>2022-05-23 20:38:13</time>
      </trkpt>
      <trkpt lat="41.46147" lon="0.88499">
        <ele>498.6</ele>
        <time>2022-05-23 20:38:14</time>
      </trkpt>
      <trkpt lat="41.46142" lon="0.88498">
        <ele>498.6</ele>
        <time>2022-05-23 20:38:15</time>
      </trkpt>
      <trkpt lat="41.46139" lon="0.88497">
        <ele>498.6</ele>
        <time>2022-05-23 20:38:16</time>
      </trkpt>
      <trkpt lat="41.46135" lon="0.88496">
        <ele>498.8</ele>
        <time>2022-05-23 20:38:17</time>
      </trkpt>
      <trkpt lat="41.46132" lon="0.88495">
        <ele>498.8</ele>
        <time>2022-05-23 20:38:18</time>
      </trkpt>
      <trkpt lat="41.46128" lon="0.88495">
        <ele>498.8</ele>
        <time>2022-05-23 20:38:19</time>
      </trkpt>
      <trkpt lat="41.46125" lon="0.88494">
        <ele>499</ele>
        <time>2022-05-23 20:38:20</time>
      </trkpt>
      <trkpt lat="41.46121" lon="0.88493">
        <ele>499.2</ele>
        <time>2022-05-23 20:38:21</time>
      </trkpt>
      <trkpt lat="41.46118" lon="0.88493">
        <ele>499.2</ele>
        <time>2022-05-23 20:38:22</time>
      </trkpt>
      <trkpt lat="41.46114" lon="0.88492">
        <ele>499.4</ele>
        <time>2022-05-23 20:38:23</time>
      </trkpt>
      <trkpt lat="41.4611" lon="0.88491">
        <ele>499.4</ele>
        <time>2022-05-23 20:38:24</time>
      </trkpt>
      <trkpt lat="41.46107" lon="0.8849">
        <ele>499.6</ele>
        <time>2022-05-23 20:38:25</time>
      </trkpt>
      <trkpt lat="41.46104" lon="0.8849">
        <ele>499.6</ele>
        <time>2022-05-23 20:38:26</time>
      </trkpt>
      <trkpt lat="41.461" lon="0.8849">
        <ele>499.6</ele>
        <time>2022-05-23 20:38:27</time>
      </trkpt>
      <trkpt lat="41.46097" lon="0.88489">
        <ele>499.8</ele>
        <time>2022-05-23 20:38:28</time>
      </trkpt>
      <trkpt lat="41.46093" lon="0.88488">
        <ele>499.8</ele>
        <time>2022-05-23 20:38:29</time>
      </trkpt>
      <trkpt lat="41.4609" lon="0.88488">
        <ele>500</ele>
        <time>2022-05-23 20:38:30</time>
      </trkpt>
      <trkpt lat="41.46087" lon="0.88487">
        <ele>500</ele>
        <time>2022-05-23 20:38:31</time>
      </trkpt>
      <trkpt lat="41.46083" lon="0.88487">
        <ele>500.2</ele>
        <time>2022-05-23 20:38:32</time>
      </trkpt>
      <trkpt lat="41.4608" lon="0.88487">
        <ele>500.2</ele>
        <time>2022-05-23 20:38:33</time>
      </trkpt>
      <trkpt lat="41.46077" lon="0.88486">
        <ele>500.4</ele>
        <time>2022-05-23 20:38:34</time>
      </trkpt>
      <trkpt lat="41.46073" lon="0.88486">
        <ele>500.4</ele>
        <time>2022-05-23 20:38:35</time>
      </trkpt>
      <trkpt lat="41.4607" lon="0.88486">
        <ele>500.6</ele>
        <time>2022-05-23 20:38:36</time>
      </trkpt>
      <trkpt lat="41.46067" lon="0.88485">
        <ele>500.6</ele>
        <time>2022-05-23 20:38:37</time>
      </trkpt>
      <trkpt lat="41.46063" lon="0.88485">
        <ele>500.8</ele>
        <time>2022-05-23 20:38:38</time>
      </trkpt>
      <trkpt lat="41.4606" lon="0.88485">
        <ele>500.8</ele>
        <time>2022-05-23 20:38:39</time>
      </trkpt>
      <trkpt lat="41.46056" lon="0.88485">
        <ele>501</ele>
        <time>2022-05-23 20:38:40</time>
      </trkpt>
      <trkpt lat="41.46053" lon="0.88485">
        <ele>501</ele>
        <time>2022-05-23 20:38:41</time>
      </trkpt>
      <trkpt lat="41.46049" lon="0.88485">
        <ele>501.2</ele>
        <time>2022-05-23 20:38:42</time>
      </trkpt>
      <trkpt lat="41.46046" lon="0.88485">
        <ele>501.2</ele>
        <time>2022-05-23 20:38:43</time>
      </trkpt>
      <trkpt lat="41.46043" lon="0.88485">
        <ele>501.2</ele>
        <time>2022-05-23 20:38:44</time>
      </trkpt>
      <trkpt lat="41.46039" lon="0.88485">
        <ele>501.4</ele>
        <time>2022-05-23 20:38:45</time>
      </trkpt>
      <trkpt lat="41.46036" lon="0.88485">
        <ele>501.4</ele>
        <time>2022-05-23 20:38:46</time>
      </trkpt>
      <trkpt lat="41.46032" lon="0.88485">
        <ele>501.4</ele>
        <time>2022-05-23 20:38:47</time>
      </trkpt>
      <trkpt lat="41.46029" lon="0.88485">
        <ele>501.6</ele>
        <time>2022-05-23 20:38:48</time>
      </trkpt>
      <trkpt lat="41.46025" lon="0.88485">
        <ele>501.8</ele>
        <time>2022-05-23 20:38:49</time>
      </trkpt>
      <trkpt lat="41.46022" lon="0.88485">
        <ele>501.8</ele>
        <time>2022-05-23 20:38:50</time>
      </trkpt>
      <trkpt lat="41.46018" lon="0.88485">
        <ele>502</ele>
        <time>2022-05-23 20:38:51</time>
      </trkpt>
      <trkpt lat="41.46015" lon="0.88485">
        <ele>502.2</ele>
        <time>2022-05-23 20:38:52</time>
      </trkpt>
      <trkpt lat="41.46012" lon="0.88485">
        <ele>502.2</ele>
        <time>2022-05-23 20:38:53</time>
      </trkpt>
      <trkpt lat="41.46008" lon="0.88485">
        <ele>502.4</ele>
        <time>2022-05-23 20:38:54</time>
      </trkpt>
      <trkpt lat="41.46005" lon="0.88485">
        <ele>502.6</ele>
        <time>2022-05-23 20:38:55</time>
      </trkpt>
      <trkpt lat="41.46001" lon="0.88485">
        <ele>502.8</ele>
        <time>2022-05-23 20:38:56</time>
      </trkpt>
      <trkpt lat="41.45998" lon="0.88485">
        <ele>503</ele>
        <time>2022-05-23 20:38:57</time>
      </trkpt>
      <trkpt lat="41.45994" lon="0.88485">
        <ele>503.2</ele>
        <time>2022-05-23 20:38:58</time>
      </trkpt>
      <trkpt lat="41.45991" lon="0.88485">
        <ele>503.2</ele>
        <time>2022-05-23 20:38:59</time>
      </trkpt>
      <trkpt lat="41.45987" lon="0.88485">
        <ele>503.4</ele>
        <time>2022-05-23 20:39:00</time>
      </trkpt>
      <trkpt lat="41.45984" lon="0.88485">
        <ele>503.4</ele>
        <time>2022-05-23 20:39:01</time>
      </trkpt>
      <trkpt lat="41.4598" lon="0.88485">
        <ele>503.6</ele>
        <time>2022-05-23 20:39:02</time>
      </trkpt>
      <trkpt lat="41.45977" lon="0.88485">
        <ele>503.8</ele>
        <time>2022-05-23 20:39:03</time>
      </trkpt>
      <trkpt lat="41.45973" lon="0.88485">
        <ele>504</ele>
        <time>2022-05-23 20:39:04</time>
      </trkpt>
      <trkpt lat="41.4597" lon="0.88485">
        <ele>504</ele>
        <time>2022-05-23 20:39:05</time>
      </trkpt>
      <trkpt lat="41.45967" lon="0.88486">
        <ele>504.2</ele>
        <time>2022-05-23 20:39:06</time>
      </trkpt>
      <trkpt lat="41.45963" lon="0.88486">
        <ele>504.4</ele>
        <time>2022-05-23 20:39:07</time>
      </trkpt>
      <trkpt lat="41.4596" lon="0.88486">
        <ele>504.6</ele>
        <time>2022-05-23 20:39:08</time>
      </trkpt>
      <trkpt lat="41.45957" lon="0.88486">
        <ele>504.8</ele>
        <time>2022-05-23 20:39:09</time>
      </trkpt>
      <trkpt lat="41.45954" lon="0.88486">
        <ele>504.8</ele>
        <time>2022-05-23 20:39:10</time>
      </trkpt>
      <trkpt lat="41.45951" lon="0.88486">
        <ele>505</ele>
        <time>2022-05-23 20:39:11</time>
      </trkpt>
      <trkpt lat="41.45947" lon="0.88486">
        <ele>505.2</ele>
        <time>2022-05-23 20:39:12</time>
      </trkpt>
      <trkpt lat="41.45944" lon="0.88487">
        <ele>505.4</ele>
        <time>2022-05-23 20:39:13</time>
      </trkpt>
      <trkpt lat="41.45941" lon="0.88487">
        <ele>505.4</ele>
        <time>2022-05-23 20:39:14</time>
      </trkpt>
      <trkpt lat="41.45938" lon="0.88487">
        <ele>505.6</ele>
        <time>2022-05-23 20:39:15</time>
      </trkpt>
      <trkpt lat="41.45935" lon="0.88487">
        <ele>505.8</ele>
        <time>2022-05-23 20:39:16</time>
      </trkpt>
      <trkpt lat="41.45932" lon="0.88487">
        <ele>506</ele>
        <time>2022-05-23 20:39:17</time>
      </trkpt>
      <trkpt lat="41.45928" lon="0.88487">
        <ele>506.2</ele>
        <time>2022-05-23 20:39:18</time>
      </trkpt>
      <trkpt lat="41.45925" lon="0.88487">
        <ele>506.2</ele>
        <time>2022-05-23 20:39:19</time>
      </trkpt>
      <trkpt lat="41.45922" lon="0.88488">
        <ele>506.4</ele>
        <time>2022-05-23 20:39:20</time>
      </trkpt>
      <trkpt lat="41.45919" lon="0.88488">
        <ele>506.6</ele>
        <time>2022-05-23 20:39:21</time>
      </trkpt>
      <trkpt lat="41.45915" lon="0.88488">
        <ele>506.6</ele>
        <time>2022-05-23 20:39:22</time>
      </trkpt>
      <trkpt lat="41.45912" lon="0.88488">
        <ele>506.8</ele>
        <time>2022-05-23 20:39:23</time>
      </trkpt>
      <trkpt lat="41.45909" lon="0.88489">
        <ele>507</ele>
        <time>2022-05-23 20:39:24</time>
      </trkpt>
      <trkpt lat="41.45906" lon="0.88489">
        <ele>507.2</ele>
        <time>2022-05-23 20:39:25</time>
      </trkpt>
      <trkpt lat="41.45903" lon="0.88489">
        <ele>507.2</ele>
        <time>2022-05-23 20:39:26</time>
      </trkpt>
      <trkpt lat="41.45899" lon="0.88489">
        <ele>507.4</ele>
        <time>2022-05-23 20:39:27</time>
      </trkpt>
      <trkpt lat="41.45896" lon="0.8849">
        <ele>507.6</ele>
        <time>2022-05-23 20:39:28</time>
      </trkpt>
      <trkpt lat="41.45894" lon="0.8849">
        <ele>507.8</ele>
        <time>2022-05-23 20:39:29</time>
      </trkpt>
      <trkpt lat="41.4589" lon="0.8849">
        <ele>507.8</ele>
        <time>2022-05-23 20:39:30</time>
      </trkpt>
      <trkpt lat="41.45887" lon="0.8849">
        <ele>508</ele>
        <time>2022-05-23 20:39:31</time>
      </trkpt>
      <trkpt lat="41.45884" lon="0.88491">
        <ele>508.2</ele>
        <time>2022-05-23 20:39:32</time>
      </trkpt>
      <trkpt lat="41.4588" lon="0.88491">
        <ele>508.2</ele>
        <time>2022-05-23 20:39:33</time>
      </trkpt>
      <trkpt lat="41.45877" lon="0.88491">
        <ele>508.4</ele>
        <time>2022-05-23 20:39:34</time>
      </trkpt>
      <trkpt lat="41.45874" lon="0.88492">
        <ele>508.6</ele>
        <time>2022-05-23 20:39:35</time>
      </trkpt>
      <trkpt lat="41.45871" lon="0.88492">
        <ele>508.6</ele>
        <time>2022-05-23 20:39:36</time>
      </trkpt>
      <trkpt lat="41.45868" lon="0.88492">
        <ele>508.8</ele>
        <time>2022-05-23 20:39:37</time>
      </trkpt>
      <trkpt lat="41.45865" lon="0.88493">
        <ele>509</ele>
        <time>2022-05-23 20:39:38</time>
      </trkpt>
      <trkpt lat="41.45861" lon="0.88493">
        <ele>509.2</ele>
        <time>2022-05-23 20:39:39</time>
      </trkpt>
      <trkpt lat="41.45858" lon="0.88494">
        <ele>509.2</ele>
        <time>2022-05-23 20:39:40</time>
      </trkpt>
      <trkpt lat="41.45855" lon="0.88494">
        <ele>509.4</ele>
        <time>2022-05-23 20:39:41</time>
      </trkpt>
      <trkpt lat="41.45851" lon="0.88494">
        <ele>509.6</ele>
        <time>2022-05-23 20:39:42</time>
      </trkpt>
      <trkpt lat="41.45848" lon="0.88494">
        <ele>509.6</ele>
        <time>2022-05-23 20:39:43</time>
      </trkpt>
      <trkpt lat="41.45845" lon="0.88494">
        <ele>509.8</ele>
        <time>2022-05-23 20:39:44</time>
      </trkpt>
      <trkpt lat="41.45842" lon="0.88495">
        <ele>510</ele>
        <time>2022-05-23 20:39:45</time>
      </trkpt>
      <trkpt lat="41.45839" lon="0.88495">
        <ele>510</ele>
        <time>2022-05-23 20:39:46</time>
      </trkpt>
      <trkpt lat="41.45836" lon="0.88496">
        <ele>510.2</ele>
        <time>2022-05-23 20:39:47</time>
      </trkpt>
      <trkpt lat="41.45833" lon="0.88497">
        <ele>510.4</ele>
        <time>2022-05-23 20:39:48</time>
      </trkpt>
      <trkpt lat="41.45829" lon="0.88497">
        <ele>510.4</ele>
        <time>2022-05-23 20:39:49</time>
      </trkpt>
      <trkpt lat="41.45826" lon="0.88497">
        <ele>510.6</ele>
        <time>2022-05-23 20:39:50</time>
      </trkpt>
      <trkpt lat="41.45823" lon="0.88497">
        <ele>510.6</ele>
        <time>2022-05-23 20:39:51</time>
      </trkpt>
      <trkpt lat="41.4582" lon="0.88498">
        <ele>510.8</ele>
        <time>2022-05-23 20:39:52</time>
      </trkpt>
      <trkpt lat="41.45817" lon="0.88498">
        <ele>511</ele>
        <time>2022-05-23 20:39:53</time>
      </trkpt>
      <trkpt lat="41.45813" lon="0.88499">
        <ele>511.2</ele>
        <time>2022-05-23 20:39:54</time>
      </trkpt>
      <trkpt lat="41.45811" lon="0.88499">
        <ele>511.2</ele>
        <time>2022-05-23 20:39:55</time>
      </trkpt>
      <trkpt lat="41.45807" lon="0.885">
        <ele>511.4</ele>
        <time>2022-05-23 20:39:56</time>
      </trkpt>
      <trkpt lat="41.45804" lon="0.885">
        <ele>511.4</ele>
        <time>2022-05-23 20:39:57</time>
      </trkpt>
      <trkpt lat="41.45801" lon="0.885">
        <ele>511.6</ele>
        <time>2022-05-23 20:39:58</time>
      </trkpt>
      <trkpt lat="41.45798" lon="0.88501">
        <ele>511.8</ele>
        <time>2022-05-23 20:39:59</time>
      </trkpt>
      <trkpt lat="41.45795" lon="0.88501">
        <ele>511.8</ele>
        <time>2022-05-23 20:40:00</time>
      </trkpt>
      <trkpt lat="41.45792" lon="0.88502">
        <ele>512</ele>
        <time>2022-05-23 20:40:01</time>
      </trkpt>
      <trkpt lat="41.45789" lon="0.88502">
        <ele>512.2</ele>
        <time>2022-05-23 20:40:02</time>
      </trkpt>
      <trkpt lat="41.45785" lon="0.88502">
        <ele>512.2</ele>
        <time>2022-05-23 20:40:03</time>
      </trkpt>
      <trkpt lat="41.45782" lon="0.88503">
        <ele>512.4</ele>
        <time>2022-05-23 20:40:04</time>
      </trkpt>
      <trkpt lat="41.45779" lon="0.88503">
        <ele>512.6</ele>
        <time>2022-05-23 20:40:05</time>
      </trkpt>
      <trkpt lat="41.45776" lon="0.88503">
        <ele>512.6</ele>
        <time>2022-05-23 20:40:06</time>
      </trkpt>
      <trkpt lat="41.45772" lon="0.88503">
        <ele>512.8</ele>
        <time>2022-05-23 20:40:07</time>
      </trkpt>
      <trkpt lat="41.4577" lon="0.88504">
        <ele>513</ele>
        <time>2022-05-23 20:40:08</time>
      </trkpt>
      <trkpt lat="41.45766" lon="0.88504">
        <ele>513</ele>
        <time>2022-05-23 20:40:09</time>
      </trkpt>
      <trkpt lat="41.45763" lon="0.88504">
        <ele>513.2</ele>
        <time>2022-05-23 20:40:10</time>
      </trkpt>
      <trkpt lat="41.4576" lon="0.88504">
        <ele>513.4</ele>
        <time>2022-05-23 20:40:11</time>
      </trkpt>
      <trkpt lat="41.45757" lon="0.88505">
        <ele>513.6</ele>
        <time>2022-05-23 20:40:12</time>
      </trkpt>
      <trkpt lat="41.45754" lon="0.88505">
        <ele>513.6</ele>
        <time>2022-05-23 20:40:13</time>
      </trkpt>
      <trkpt lat="41.45751" lon="0.88505">
        <ele>513.8</ele>
        <time>2022-05-23 20:40:14</time>
      </trkpt>
      <trkpt lat="41.45749" lon="0.88505">
        <ele>513.8</ele>
        <time>2022-05-23 20:40:15</time>
      </trkpt>
      <trkpt lat="41.45745" lon="0.88505">
        <ele>514</ele>
        <time>2022-05-23 20:40:16</time>
      </trkpt>
      <trkpt lat="41.45742" lon="0.88505">
        <ele>514.2</ele>
        <time>2022-05-23 20:40:17</time>
      </trkpt>
      <trkpt lat="41.45739" lon="0.88505">
        <ele>514.2</ele>
        <time>2022-05-23 20:40:18</time>
      </trkpt>
      <trkpt lat="41.45736" lon="0.88506">
        <ele>514.4</ele>
        <time>2022-05-23 20:40:19</time>
      </trkpt>
      <trkpt lat="41.45733" lon="0.88506">
        <ele>514.6</ele>
        <time>2022-05-23 20:40:20</time>
      </trkpt>
      <trkpt lat="41.4573" lon="0.88506">
        <ele>514.6</ele>
        <time>2022-05-23 20:40:21</time>
      </trkpt>
      <trkpt lat="41.45727" lon="0.88506">
        <ele>514.8</ele>
        <time>2022-05-23 20:40:22</time>
      </trkpt>
      <trkpt lat="41.45723" lon="0.88506">
        <ele>515</ele>
        <time>2022-05-23 20:40:23</time>
      </trkpt>
      <trkpt lat="41.4572" lon="0.88505">
        <ele>515.2</ele>
        <time>2022-05-23 20:40:24</time>
      </trkpt>
      <trkpt lat="41.45717" lon="0.88505">
        <ele>515.2</ele>
        <time>2022-05-23 20:40:25</time>
      </trkpt>
      <trkpt lat="41.45714" lon="0.88506">
        <ele>515.4</ele>
        <time>2022-05-23 20:40:26</time>
      </trkpt>
      <trkpt lat="41.45711" lon="0.88506">
        <ele>515.6</ele>
        <time>2022-05-23 20:40:27</time>
      </trkpt>
      <trkpt lat="41.45707" lon="0.88506">
        <ele>515.6</ele>
        <time>2022-05-23 20:40:28</time>
      </trkpt>
      <trkpt lat="41.45704" lon="0.88506">
        <ele>515.8</ele>
        <time>2022-05-23 20:40:29</time>
      </trkpt>
      <trkpt lat="41.45701" lon="0.88506">
        <ele>516</ele>
        <time>2022-05-23 20:40:30</time>
      </trkpt>
      <trkpt lat="41.45698" lon="0.88506">
        <ele>516</ele>
        <time>2022-05-23 20:40:31</time>
      </trkpt>
      <trkpt lat="41.45695" lon="0.88505">
        <ele>516.2</ele>
        <time>2022-05-23 20:40:32</time>
      </trkpt>
      <trkpt lat="41.45692" lon="0.88505">
        <ele>516.4</ele>
        <time>2022-05-23 20:40:33</time>
      </trkpt>
      <trkpt lat="41.45689" lon="0.88505">
        <ele>516.6</ele>
        <time>2022-05-23 20:40:34</time>
      </trkpt>
      <trkpt lat="41.45685" lon="0.88505">
        <ele>516.6</ele>
        <time>2022-05-23 20:40:35</time>
      </trkpt>
      <trkpt lat="41.45682" lon="0.88505">
        <ele>516.8</ele>
        <time>2022-05-23 20:40:36</time>
      </trkpt>
      <trkpt lat="41.45679" lon="0.88505">
        <ele>517</ele>
        <time>2022-05-23 20:40:37</time>
      </trkpt>
      <trkpt lat="41.45676" lon="0.88505">
        <ele>517.2</ele>
        <time>2022-05-23 20:40:38</time>
      </trkpt>
      <trkpt lat="41.45673" lon="0.88505">
        <ele>517.2</ele>
        <time>2022-05-23 20:40:39</time>
      </trkpt>
      <trkpt lat="41.45669" lon="0.88505">
        <ele>517.4</ele>
        <time>2022-05-23 20:40:40</time>
      </trkpt>
      <trkpt lat="41.45666" lon="0.88505">
        <ele>517.6</ele>
        <time>2022-05-23 20:40:41</time>
      </trkpt>
      <trkpt lat="41.45663" lon="0.88505">
        <ele>517.8</ele>
        <time>2022-05-23 20:40:42</time>
      </trkpt>
      <trkpt lat="41.4566" lon="0.88504">
        <ele>517.8</ele>
        <time>2022-05-23 20:40:43</time>
      </trkpt>
      <trkpt lat="41.45657" lon="0.88504">
        <ele>518</ele>
        <time>2022-05-23 20:40:44</time>
      </trkpt>
      <trkpt lat="41.45654" lon="0.88504">
        <ele>518.2</ele>
        <time>2022-05-23 20:40:45</time>
      </trkpt>
      <trkpt lat="41.4565" lon="0.88504">
        <ele>518.2</ele>
        <time>2022-05-23 20:40:46</time>
      </trkpt>
      <trkpt lat="41.45647" lon="0.88504">
        <ele>518.4</ele>
        <time>2022-05-23 20:40:47</time>
      </trkpt>
      <trkpt lat="41.45644" lon="0.88504">
        <ele>518.6</ele>
        <time>2022-05-23 20:40:48</time>
      </trkpt>
      <trkpt lat="41.45641" lon="0.88504">
        <ele>518.6</ele>
        <time>2022-05-23 20:40:49</time>
      </trkpt>
      <trkpt lat="41.45637" lon="0.88504">
        <ele>518.8</ele>
        <time>2022-05-23 20:40:50</time>
      </trkpt>
      <trkpt lat="41.45635" lon="0.88504">
        <ele>519</ele>
        <time>2022-05-23 20:40:51</time>
      </trkpt>
      <trkpt lat="41.45631" lon="0.88504">
        <ele>519</ele>
        <time>2022-05-23 20:40:52</time>
      </trkpt>
      <trkpt lat="41.45628" lon="0.88504">
        <ele>519.2</ele>
        <time>2022-05-23 20:40:53</time>
      </trkpt>
      <trkpt lat="41.45625" lon="0.88504">
        <ele>519.4</ele>
        <time>2022-05-23 20:40:54</time>
      </trkpt>
      <trkpt lat="41.45621" lon="0.88505">
        <ele>519.6</ele>
        <time>2022-05-23 20:40:55</time>
      </trkpt>
      <trkpt lat="41.45618" lon="0.88505">
        <ele>519.6</ele>
        <time>2022-05-23 20:40:56</time>
      </trkpt>
      <trkpt lat="41.45615" lon="0.88505">
        <ele>519.8</ele>
        <time>2022-05-23 20:40:57</time>
      </trkpt>
      <trkpt lat="41.45611" lon="0.88505">
        <ele>520</ele>
        <time>2022-05-23 20:40:58</time>
      </trkpt>
      <trkpt lat="41.45608" lon="0.88506">
        <ele>520.2</ele>
        <time>2022-05-23 20:40:59</time>
      </trkpt>
      <trkpt lat="41.45605" lon="0.88506">
        <ele>520.2</ele>
        <time>2022-05-23 20:41:00</time>
      </trkpt>
      <trkpt lat="41.45602" lon="0.88507">
        <ele>520.4</ele>
        <time>2022-05-23 20:41:01</time>
      </trkpt>
      <trkpt lat="41.45598" lon="0.88508">
        <ele>520.6</ele>
        <time>2022-05-23 20:41:02</time>
      </trkpt>
      <trkpt lat="41.45595" lon="0.88508">
        <ele>520.8</ele>
        <time>2022-05-23 20:41:03</time>
      </trkpt>
      <trkpt lat="41.45592" lon="0.88509">
        <ele>520.8</ele>
        <time>2022-05-23 20:41:04</time>
      </trkpt>
      <trkpt lat="41.45589" lon="0.88509">
        <ele>521</ele>
        <time>2022-05-23 20:41:05</time>
      </trkpt>
      <trkpt lat="41.45585" lon="0.8851">
        <ele>521.2</ele>
        <time>2022-05-23 20:41:06</time>
      </trkpt>
      <trkpt lat="41.45582" lon="0.88511">
        <ele>521.4</ele>
        <time>2022-05-23 20:41:07</time>
      </trkpt>
      <trkpt lat="41.45579" lon="0.88511">
        <ele>521.4</ele>
        <time>2022-05-23 20:41:08</time>
      </trkpt>
      <trkpt lat="41.45575" lon="0.88512">
        <ele>521.6</ele>
        <time>2022-05-23 20:41:09</time>
      </trkpt>
      <trkpt lat="41.45572" lon="0.88513">
        <ele>521.8</ele>
        <time>2022-05-23 20:41:10</time>
      </trkpt>
      <trkpt lat="41.45569" lon="0.88514">
        <ele>522</ele>
        <time>2022-05-23 20:41:11</time>
      </trkpt>
      <trkpt lat="41.45567" lon="0.88515">
        <ele>522</ele>
        <time>2022-05-23 20:41:12</time>
      </trkpt>
      <trkpt lat="41.45563" lon="0.88516">
        <ele>522.2</ele>
        <time>2022-05-23 20:41:13</time>
      </trkpt>
      <trkpt lat="41.4556" lon="0.88518">
        <ele>522.4</ele>
        <time>2022-05-23 20:41:14</time>
      </trkpt>
      <trkpt lat="41.45557" lon="0.88519">
        <ele>522.4</ele>
        <time>2022-05-23 20:41:15</time>
      </trkpt>
      <trkpt lat="41.45553" lon="0.88521">
        <ele>522.6</ele>
        <time>2022-05-23 20:41:16</time>
      </trkpt>
      <trkpt lat="41.4555" lon="0.88522">
        <ele>522.8</ele>
        <time>2022-05-23 20:41:17</time>
      </trkpt>
      <trkpt lat="41.45548" lon="0.88523">
        <ele>522.8</ele>
        <time>2022-05-23 20:41:18</time>
      </trkpt>
      <trkpt lat="41.45545" lon="0.88525">
        <ele>523</ele>
        <time>2022-05-23 20:41:19</time>
      </trkpt>
      <trkpt lat="41.45542" lon="0.88526">
        <ele>523.2</ele>
        <time>2022-05-23 20:41:20</time>
      </trkpt>
      <trkpt lat="41.45539" lon="0.88528">
        <ele>523.4</ele>
        <time>2022-05-23 20:41:21</time>
      </trkpt>
      <trkpt lat="41.45536" lon="0.88529">
        <ele>523.4</ele>
        <time>2022-05-23 20:41:22</time>
      </trkpt>
      <trkpt lat="41.45533" lon="0.88531">
        <ele>523.6</ele>
        <time>2022-05-23 20:41:23</time>
      </trkpt>
      <trkpt lat="41.4553" lon="0.88533">
        <ele>523.8</ele>
        <time>2022-05-23 20:41:24</time>
      </trkpt>
      <trkpt lat="41.45527" lon="0.88534">
        <ele>524</ele>
        <time>2022-05-23 20:41:25</time>
      </trkpt>
      <trkpt lat="41.45524" lon="0.88536">
        <ele>524</ele>
        <time>2022-05-23 20:41:26</time>
      </trkpt>
      <trkpt lat="41.45521" lon="0.88538">
        <ele>524.2</ele>
        <time>2022-05-23 20:41:27</time>
      </trkpt>
      <trkpt lat="41.45518" lon="0.88541">
        <ele>524.4</ele>
        <time>2022-05-23 20:41:28</time>
      </trkpt>
      <trkpt lat="41.45515" lon="0.88543">
        <ele>524.4</ele>
        <time>2022-05-23 20:41:29</time>
      </trkpt>
      <trkpt lat="41.45512" lon="0.88545">
        <ele>524.6</ele>
        <time>2022-05-23 20:41:30</time>
      </trkpt>
      <trkpt lat="41.45509" lon="0.88547">
        <ele>524.8</ele>
        <time>2022-05-23 20:41:31</time>
      </trkpt>
      <trkpt lat="41.45507" lon="0.88549">
        <ele>524.8</ele>
        <time>2022-05-23 20:41:32</time>
      </trkpt>
      <trkpt lat="41.45504" lon="0.88551">
        <ele>525</ele>
        <time>2022-05-23 20:41:33</time>
      </trkpt>
      <trkpt lat="41.45501" lon="0.88553">
        <ele>525.2</ele>
        <time>2022-05-23 20:41:34</time>
      </trkpt>
      <trkpt lat="41.45498" lon="0.88556">
        <ele>525.4</ele>
        <time>2022-05-23 20:41:35</time>
      </trkpt>
      <trkpt lat="41.45495" lon="0.88558">
        <ele>525.4</ele>
        <time>2022-05-23 20:41:36</time>
      </trkpt>
      <trkpt lat="41.45492" lon="0.88561">
        <ele>525.6</ele>
        <time>2022-05-23 20:41:37</time>
      </trkpt>
      <trkpt lat="41.45489" lon="0.88563">
        <ele>525.8</ele>
        <time>2022-05-23 20:41:38</time>
      </trkpt>
      <trkpt lat="41.45487" lon="0.88565">
        <ele>526</ele>
        <time>2022-05-23 20:41:39</time>
      </trkpt>
      <trkpt lat="41.45484" lon="0.88568">
        <ele>526</ele>
        <time>2022-05-23 20:41:40</time>
      </trkpt>
      <trkpt lat="41.45481" lon="0.88571">
        <ele>526.2</ele>
        <time>2022-05-23 20:41:41</time>
      </trkpt>
      <trkpt lat="41.45478" lon="0.88573">
        <ele>526.4</ele>
        <time>2022-05-23 20:41:42</time>
      </trkpt>
      <trkpt lat="41.45475" lon="0.88575">
        <ele>526.4</ele>
        <time>2022-05-23 20:41:43</time>
      </trkpt>
      <trkpt lat="41.45472" lon="0.88577">
        <ele>526.6</ele>
        <time>2022-05-23 20:41:44</time>
      </trkpt>
      <trkpt lat="41.4547" lon="0.88579">
        <ele>526.8</ele>
        <time>2022-05-23 20:41:45</time>
      </trkpt>
      <trkpt lat="41.45467" lon="0.88582">
        <ele>526.8</ele>
        <time>2022-05-23 20:41:46</time>
      </trkpt>
      <trkpt lat="41.45463" lon="0.88584">
        <ele>527</ele>
        <time>2022-05-23 20:41:47</time>
      </trkpt>
      <trkpt lat="41.45461" lon="0.88586">
        <ele>527.2</ele>
        <time>2022-05-23 20:41:48</time>
      </trkpt>
      <trkpt lat="41.45457" lon="0.88588">
        <ele>527.2</ele>
        <time>2022-05-23 20:41:49</time>
      </trkpt>
      <trkpt lat="41.45454" lon="0.8859">
        <ele>527.4</ele>
        <time>2022-05-23 20:41:50</time>
      </trkpt>
      <trkpt lat="41.45451" lon="0.88591">
        <ele>527.6</ele>
        <time>2022-05-23 20:41:51</time>
      </trkpt>
      <trkpt lat="41.45448" lon="0.88593">
        <ele>527.6</ele>
        <time>2022-05-23 20:41:52</time>
      </trkpt>
      <trkpt lat="41.45445" lon="0.88595">
        <ele>527.8</ele>
        <time>2022-05-23 20:41:53</time>
      </trkpt>
      <trkpt lat="41.45442" lon="0.88596">
        <ele>527.8</ele>
        <time>2022-05-23 20:41:54</time>
      </trkpt>
      <trkpt lat="41.45439" lon="0.88598">
        <ele>528</ele>
        <time>2022-05-23 20:41:55</time>
      </trkpt>
      <trkpt lat="41.45435" lon="0.88599">
        <ele>528.2</ele>
        <time>2022-05-23 20:41:56</time>
      </trkpt>
      <trkpt lat="41.45432" lon="0.88601">
        <ele>528.2</ele>
        <time>2022-05-23 20:41:57</time>
      </trkpt>
      <trkpt lat="41.45429" lon="0.88602">
        <ele>528.4</ele>
        <time>2022-05-23 20:41:58</time>
      </trkpt>
      <trkpt lat="41.45425" lon="0.88603">
        <ele>528.4</ele>
        <time>2022-05-23 20:41:59</time>
      </trkpt>
      <trkpt lat="41.45422" lon="0.88604">
        <ele>528.6</ele>
        <time>2022-05-23 20:42:00</time>
      </trkpt>
      <trkpt lat="41.45418" lon="0.88605">
        <ele>528.8</ele>
        <time>2022-05-23 20:42:01</time>
      </trkpt>
      <trkpt lat="41.45415" lon="0.88606">
        <ele>528.8</ele>
        <time>2022-05-23 20:42:02</time>
      </trkpt>
      <trkpt lat="41.45412" lon="0.88606">
        <ele>529</ele>
        <time>2022-05-23 20:42:03</time>
      </trkpt>
      <trkpt lat="41.45408" lon="0.88607">
        <ele>529</ele>
        <time>2022-05-23 20:42:04</time>
      </trkpt>
      <trkpt lat="41.45405" lon="0.88607">
        <ele>529.2</ele>
        <time>2022-05-23 20:42:05</time>
      </trkpt>
      <trkpt lat="41.45401" lon="0.88608">
        <ele>529.2</ele>
        <time>2022-05-23 20:42:06</time>
      </trkpt>
      <trkpt lat="41.45397" lon="0.88608">
        <ele>529.4</ele>
        <time>2022-05-23 20:42:07</time>
      </trkpt>
      <trkpt lat="41.45394" lon="0.88609">
        <ele>529.4</ele>
        <time>2022-05-23 20:42:08</time>
      </trkpt>
      <trkpt lat="41.4539" lon="0.8861">
        <ele>529.6</ele>
        <time>2022-05-23 20:42:09</time>
      </trkpt>
      <trkpt lat="41.45386" lon="0.8861">
        <ele>529.6</ele>
        <time>2022-05-23 20:42:10</time>
      </trkpt>
      <trkpt lat="41.45382" lon="0.88611">
        <ele>529.8</ele>
        <time>2022-05-23 20:42:11</time>
      </trkpt>
      <trkpt lat="41.45379" lon="0.88611">
        <ele>529.8</ele>
        <time>2022-05-23 20:42:12</time>
      </trkpt>
      <trkpt lat="41.45375" lon="0.88612">
        <ele>530</ele>
        <time>2022-05-23 20:42:13</time>
      </trkpt>
      <trkpt lat="41.45371" lon="0.88612">
        <ele>530</ele>
        <time>2022-05-23 20:42:14</time>
      </trkpt>
      <trkpt lat="41.45368" lon="0.88612">
        <ele>530.2</ele>
        <time>2022-05-23 20:42:15</time>
      </trkpt>
      <trkpt lat="41.45364" lon="0.88612">
        <ele>530.2</ele>
        <time>2022-05-23 20:42:16</time>
      </trkpt>
      <trkpt lat="41.4536" lon="0.88613">
        <ele>530.4</ele>
        <time>2022-05-23 20:42:17</time>
      </trkpt>
      <trkpt lat="41.45357" lon="0.88613">
        <ele>530.4</ele>
        <time>2022-05-23 20:42:18</time>
      </trkpt>
      <trkpt lat="41.45353" lon="0.88614">
        <ele>530.6</ele>
        <time>2022-05-23 20:42:19</time>
      </trkpt>
      <trkpt lat="41.45349" lon="0.88614">
        <ele>530.6</ele>
        <time>2022-05-23 20:42:20</time>
      </trkpt>
      <trkpt lat="41.45346" lon="0.88615">
        <ele>530.8</ele>
        <time>2022-05-23 20:42:21</time>
      </trkpt>
      <trkpt lat="41.45342" lon="0.88616">
        <ele>531</ele>
        <time>2022-05-23 20:42:22</time>
      </trkpt>
      <trkpt lat="41.45338" lon="0.88616">
        <ele>531</ele>
        <time>2022-05-23 20:42:23</time>
      </trkpt>
      <trkpt lat="41.45335" lon="0.88617">
        <ele>531.2</ele>
        <time>2022-05-23 20:42:24</time>
      </trkpt>
      <trkpt lat="41.45331" lon="0.88617">
        <ele>531.4</ele>
        <time>2022-05-23 20:42:25</time>
      </trkpt>
      <trkpt lat="41.45328" lon="0.88618">
        <ele>531.4</ele>
        <time>2022-05-23 20:42:26</time>
      </trkpt>
      <trkpt lat="41.45324" lon="0.88618">
        <ele>531.6</ele>
        <time>2022-05-23 20:42:27</time>
      </trkpt>
      <trkpt lat="41.45321" lon="0.88618">
        <ele>531.8</ele>
        <time>2022-05-23 20:42:28</time>
      </trkpt>
      <trkpt lat="41.45317" lon="0.8862">
        <ele>531.8</ele>
        <time>2022-05-23 20:42:29</time>
      </trkpt>
      <trkpt lat="41.45314" lon="0.8862">
        <ele>532</ele>
        <time>2022-05-23 20:42:30</time>
      </trkpt>
      <trkpt lat="41.45311" lon="0.88621">
        <ele>532.2</ele>
        <time>2022-05-23 20:42:31</time>
      </trkpt>
      <trkpt lat="41.45308" lon="0.88622">
        <ele>532.4</ele>
        <time>2022-05-23 20:42:32</time>
      </trkpt>
      <trkpt lat="41.45304" lon="0.88623">
        <ele>532.4</ele>
        <time>2022-05-23 20:42:33</time>
      </trkpt>
      <trkpt lat="41.45301" lon="0.88623">
        <ele>532.6</ele>
        <time>2022-05-23 20:42:34</time>
      </trkpt>
      <trkpt lat="41.45297" lon="0.88624">
        <ele>532.8</ele>
        <time>2022-05-23 20:42:35</time>
      </trkpt>
      <trkpt lat="41.45294" lon="0.88624">
        <ele>532.8</ele>
        <time>2022-05-23 20:42:36</time>
      </trkpt>
      <trkpt lat="41.45291" lon="0.88625">
        <ele>533</ele>
        <time>2022-05-23 20:42:37</time>
      </trkpt>
      <trkpt lat="41.45287" lon="0.88625">
        <ele>533.2</ele>
        <time>2022-05-23 20:42:38</time>
      </trkpt>
      <trkpt lat="41.45284" lon="0.88625">
        <ele>533.2</ele>
        <time>2022-05-23 20:42:39</time>
      </trkpt>
      <trkpt lat="41.4528" lon="0.88626">
        <ele>533.4</ele>
        <time>2022-05-23 20:42:40</time>
      </trkpt>
      <trkpt lat="41.45277" lon="0.88627">
        <ele>533.6</ele>
        <time>2022-05-23 20:42:41</time>
      </trkpt>
      <trkpt lat="41.45273" lon="0.88627">
        <ele>533.8</ele>
        <time>2022-05-23 20:42:42</time>
      </trkpt>
      <trkpt lat="41.4527" lon="0.88627">
        <ele>534</ele>
        <time>2022-05-23 20:42:43</time>
      </trkpt>
      <trkpt lat="41.45267" lon="0.88627">
        <ele>534</ele>
        <time>2022-05-23 20:42:44</time>
      </trkpt>
      <trkpt lat="41.45264" lon="0.88627">
        <ele>534.2</ele>
        <time>2022-05-23 20:42:45</time>
      </trkpt>
      <trkpt lat="41.4526" lon="0.88628">
        <ele>534.4</ele>
        <time>2022-05-23 20:42:46</time>
      </trkpt>
      <trkpt lat="41.45257" lon="0.88628">
        <ele>534.6</ele>
        <time>2022-05-23 20:42:47</time>
      </trkpt>
      <trkpt lat="41.45254" lon="0.88628">
        <ele>534.8</ele>
        <time>2022-05-23 20:42:48</time>
      </trkpt>
      <trkpt lat="41.45251" lon="0.88628">
        <ele>534.8</ele>
        <time>2022-05-23 20:42:49</time>
      </trkpt>
      <trkpt lat="41.45248" lon="0.88629">
        <ele>535</ele>
        <time>2022-05-23 20:42:50</time>
      </trkpt>
      <trkpt lat="41.45245" lon="0.88629">
        <ele>535.2</ele>
        <time>2022-05-23 20:42:51</time>
      </trkpt>
      <trkpt lat="41.45241" lon="0.8863">
        <ele>535.4</ele>
        <time>2022-05-23 20:42:52</time>
      </trkpt>
      <trkpt lat="41.45238" lon="0.8863">
        <ele>535.6</ele>
        <time>2022-05-23 20:42:53</time>
      </trkpt>
      <trkpt lat="41.45236" lon="0.8863">
        <ele>535.8</ele>
        <time>2022-05-23 20:42:54</time>
      </trkpt>
      <trkpt lat="41.45232" lon="0.88631">
        <ele>536</ele>
        <time>2022-05-23 20:42:55</time>
      </trkpt>
      <trkpt lat="41.45229" lon="0.88631">
        <ele>536.2</ele>
        <time>2022-05-23 20:42:56</time>
      </trkpt>
      <trkpt lat="41.45227" lon="0.88632">
        <ele>536.2</ele>
        <time>2022-05-23 20:42:57</time>
      </trkpt>
      <trkpt lat="41.45224" lon="0.88632">
        <ele>536.4</ele>
        <time>2022-05-23 20:42:58</time>
      </trkpt>
      <trkpt lat="41.45221" lon="0.88633">
        <ele>536.6</ele>
        <time>2022-05-23 20:42:59</time>
      </trkpt>
      <trkpt lat="41.45218" lon="0.88634">
        <ele>536.8</ele>
        <time>2022-05-23 20:43:00</time>
      </trkpt>
      <trkpt lat="41.45215" lon="0.88634">
        <ele>537</ele>
        <time>2022-05-23 20:43:01</time>
      </trkpt>
      <trkpt lat="41.45212" lon="0.88635">
        <ele>537.2</ele>
        <time>2022-05-23 20:43:02</time>
      </trkpt>
      <trkpt lat="41.45208" lon="0.88635">
        <ele>537.4</ele>
        <time>2022-05-23 20:43:03</time>
      </trkpt>
      <trkpt lat="41.45206" lon="0.88636">
        <ele>537.4</ele>
        <time>2022-05-23 20:43:04</time>
      </trkpt>
      <trkpt lat="41.45202" lon="0.88636">
        <ele>537.8</ele>
        <time>2022-05-23 20:43:05</time>
      </trkpt>
      <trkpt lat="41.45199" lon="0.88637">
        <ele>537.8</ele>
        <time>2022-05-23 20:43:06</time>
      </trkpt>
      <trkpt lat="41.45197" lon="0.88637">
        <ele>538</ele>
        <time>2022-05-23 20:43:07</time>
      </trkpt>
      <trkpt lat="41.45194" lon="0.88638">
        <ele>538.2</ele>
        <time>2022-05-23 20:43:08</time>
      </trkpt>
      <trkpt lat="41.45191" lon="0.88639">
        <ele>538.4</ele>
        <time>2022-05-23 20:43:09</time>
      </trkpt>
      <trkpt lat="41.45188" lon="0.88639">
        <ele>538.6</ele>
        <time>2022-05-23 20:43:10</time>
      </trkpt>
      <trkpt lat="41.45185" lon="0.8864">
        <ele>538.8</ele>
        <time>2022-05-23 20:43:11</time>
      </trkpt>
      <trkpt lat="41.45182" lon="0.88641">
        <ele>538.8</ele>
        <time>2022-05-23 20:43:12</time>
      </trkpt>
      <trkpt lat="41.4518" lon="0.88641">
        <ele>539</ele>
        <time>2022-05-23 20:43:13</time>
      </trkpt>
      <trkpt lat="41.45177" lon="0.88641">
        <ele>539.2</ele>
        <time>2022-05-23 20:43:14</time>
      </trkpt>
      <trkpt lat="41.45174" lon="0.88642">
        <ele>539.4</ele>
        <time>2022-05-23 20:43:15</time>
      </trkpt>
      <trkpt lat="41.45172" lon="0.88642">
        <ele>539.6</ele>
        <time>2022-05-23 20:43:16</time>
      </trkpt>
      <trkpt lat="41.45169" lon="0.88643">
        <ele>539.8</ele>
        <time>2022-05-23 20:43:17</time>
      </trkpt>
      <trkpt lat="41.45166" lon="0.88643">
        <ele>540</ele>
        <time>2022-05-23 20:43:18</time>
      </trkpt>
      <trkpt lat="41.45163" lon="0.88644">
        <ele>540</ele>
        <time>2022-05-23 20:43:19</time>
      </trkpt>
      <trkpt lat="41.45161" lon="0.88644">
        <ele>540.2</ele>
        <time>2022-05-23 20:43:20</time>
      </trkpt>
      <trkpt lat="41.45158" lon="0.88645">
        <ele>540.4</ele>
        <time>2022-05-23 20:43:21</time>
      </trkpt>
      <trkpt lat="41.45155" lon="0.88645">
        <ele>540.6</ele>
        <time>2022-05-23 20:43:22</time>
      </trkpt>
      <trkpt lat="41.45153" lon="0.88645">
        <ele>540.8</ele>
        <time>2022-05-23 20:43:23</time>
      </trkpt>
      <trkpt lat="41.4515" lon="0.88646">
        <ele>541</ele>
        <time>2022-05-23 20:43:24</time>
      </trkpt>
      <trkpt lat="41.45147" lon="0.88646">
        <ele>541.2</ele>
        <time>2022-05-23 20:43:25</time>
      </trkpt>
      <trkpt lat="41.45145" lon="0.88646">
        <ele>541.4</ele>
        <time>2022-05-23 20:43:26</time>
      </trkpt>
      <trkpt lat="41.45142" lon="0.88647">
        <ele>541.6</ele>
        <time>2022-05-23 20:43:27</time>
      </trkpt>
      <trkpt lat="41.45139" lon="0.88647">
        <ele>541.8</ele>
        <time>2022-05-23 20:43:28</time>
      </trkpt>
      <trkpt lat="41.45137" lon="0.88647">
        <ele>542</ele>
        <time>2022-05-23 20:43:29</time>
      </trkpt>
      <trkpt lat="41.45134" lon="0.88647">
        <ele>542.2</ele>
        <time>2022-05-23 20:43:30</time>
      </trkpt>
      <trkpt lat="41.45131" lon="0.88647">
        <ele>542.4</ele>
        <time>2022-05-23 20:43:31</time>
      </trkpt>
      <trkpt lat="41.45129" lon="0.88647">
        <ele>542.6</ele>
        <time>2022-05-23 20:43:32</time>
      </trkpt>
      <trkpt lat="41.45126" lon="0.88647">
        <ele>542.8</ele>
        <time>2022-05-23 20:43:33</time>
      </trkpt>
      <trkpt lat="41.45123" lon="0.88647">
        <ele>543</ele>
        <time>2022-05-23 20:43:34</time>
      </trkpt>
      <trkpt lat="41.45121" lon="0.88647">
        <ele>543.2</ele>
        <time>2022-05-23 20:43:35</time>
      </trkpt>
      <trkpt lat="41.45118" lon="0.88647">
        <ele>543.4</ele>
        <time>2022-05-23 20:43:36</time>
      </trkpt>
      <trkpt lat="41.45116" lon="0.88647">
        <ele>543.6</ele>
        <time>2022-05-23 20:43:37</time>
      </trkpt>
      <trkpt lat="41.45113" lon="0.88647">
        <ele>543.8</ele>
        <time>2022-05-23 20:43:38</time>
      </trkpt>
      <trkpt lat="41.45111" lon="0.88647">
        <ele>543.8</ele>
        <time>2022-05-23 20:43:39</time>
      </trkpt>
      <trkpt lat="41.45108" lon="0.88647">
        <ele>544</ele>
        <time>2022-05-23 20:43:40</time>
      </trkpt>
      <trkpt lat="41.45106" lon="0.88647">
        <ele>544.2</ele>
        <time>2022-05-23 20:43:41</time>
      </trkpt>
      <trkpt lat="41.45103" lon="0.88646">
        <ele>544.4</ele>
        <time>2022-05-23 20:43:42</time>
      </trkpt>
      <trkpt lat="41.45101" lon="0.88646">
        <ele>544.6</ele>
        <time>2022-05-23 20:43:43</time>
      </trkpt>
      <trkpt lat="41.45099" lon="0.88646">
        <ele>544.8</ele>
        <time>2022-05-23 20:43:44</time>
      </trkpt>
      <trkpt lat="41.45096" lon="0.88646">
        <ele>545</ele>
        <time>2022-05-23 20:43:45</time>
      </trkpt>
      <trkpt lat="41.45093" lon="0.88645">
        <ele>545</ele>
        <time>2022-05-23 20:43:46</time>
      </trkpt>
      <trkpt lat="41.4509" lon="0.88645">
        <ele>545.2</ele>
        <time>2022-05-23 20:43:47</time>
      </trkpt>
      <trkpt lat="41.45088" lon="0.88645">
        <ele>545.4</ele>
        <time>2022-05-23 20:43:48</time>
      </trkpt>
      <trkpt lat="41.45085" lon="0.88645">
        <ele>545.6</ele>
        <time>2022-05-23 20:43:49</time>
      </trkpt>
      <trkpt lat="41.45083" lon="0.88645">
        <ele>545.8</ele>
        <time>2022-05-23 20:43:50</time>
      </trkpt>
      <trkpt lat="41.4508" lon="0.88644">
        <ele>546</ele>
        <time>2022-05-23 20:43:51</time>
      </trkpt>
      <trkpt lat="41.45078" lon="0.88644">
        <ele>546.2</ele>
        <time>2022-05-23 20:43:52</time>
      </trkpt>
      <trkpt lat="41.45075" lon="0.88644">
        <ele>546.4</ele>
        <time>2022-05-23 20:43:53</time>
      </trkpt>
      <trkpt lat="41.45072" lon="0.88643">
        <ele>546.4</ele>
        <time>2022-05-23 20:43:54</time>
      </trkpt>
      <trkpt lat="41.45069" lon="0.88643">
        <ele>546.6</ele>
        <time>2022-05-23 20:43:55</time>
      </trkpt>
      <trkpt lat="41.45067" lon="0.88643">
        <ele>546.8</ele>
        <time>2022-05-23 20:43:56</time>
      </trkpt>
      <trkpt lat="41.45064" lon="0.88642">
        <ele>547</ele>
        <time>2022-05-23 20:43:57</time>
      </trkpt>
      <trkpt lat="41.45062" lon="0.88642">
        <ele>547.2</ele>
        <time>2022-05-23 20:43:58</time>
      </trkpt>
      <trkpt lat="41.4506" lon="0.88642">
        <ele>547.4</ele>
        <time>2022-05-23 20:43:59</time>
      </trkpt>
      <trkpt lat="41.45057" lon="0.88642">
        <ele>547.6</ele>
        <time>2022-05-23 20:44:00</time>
      </trkpt>
      <trkpt lat="41.45054" lon="0.88641">
        <ele>547.8</ele>
        <time>2022-05-23 20:44:01</time>
      </trkpt>
      <trkpt lat="41.45051" lon="0.88641">
        <ele>548</ele>
        <time>2022-05-23 20:44:02</time>
      </trkpt>
      <trkpt lat="41.45049" lon="0.8864">
        <ele>548.2</ele>
        <time>2022-05-23 20:44:03</time>
      </trkpt>
      <trkpt lat="41.45047" lon="0.8864">
        <ele>548.4</ele>
        <time>2022-05-23 20:44:04</time>
      </trkpt>
      <trkpt lat="41.45043" lon="0.88639">
        <ele>548.6</ele>
        <time>2022-05-23 20:44:05</time>
      </trkpt>
      <trkpt lat="41.45041" lon="0.88639">
        <ele>548.8</ele>
        <time>2022-05-23 20:44:06</time>
      </trkpt>
      <trkpt lat="41.45038" lon="0.88638">
        <ele>548.8</ele>
        <time>2022-05-23 20:44:07</time>
      </trkpt>
      <trkpt lat="41.45036" lon="0.88638">
        <ele>549</ele>
        <time>2022-05-23 20:44:08</time>
      </trkpt>
      <trkpt lat="41.45033" lon="0.88637">
        <ele>549.2</ele>
        <time>2022-05-23 20:44:09</time>
      </trkpt>
      <trkpt lat="41.45031" lon="0.88637">
        <ele>549.4</ele>
        <time>2022-05-23 20:44:10</time>
      </trkpt>
      <trkpt lat="41.45028" lon="0.88636">
        <ele>549.4</ele>
        <time>2022-05-23 20:44:11</time>
      </trkpt>
      <trkpt lat="41.45026" lon="0.88635">
        <ele>549.6</ele>
        <time>2022-05-23 20:44:12</time>
      </trkpt>
      <trkpt lat="41.45024" lon="0.88635">
        <ele>549.8</ele>
        <time>2022-05-23 20:44:13</time>
      </trkpt>
      <trkpt lat="41.45021" lon="0.88634">
        <ele>550</ele>
        <time>2022-05-23 20:44:14</time>
      </trkpt>
      <trkpt lat="41.45019" lon="0.88633">
        <ele>550.2</ele>
        <time>2022-05-23 20:44:15</time>
      </trkpt>
      <trkpt lat="41.45017" lon="0.88632">
        <ele>550.4</ele>
        <time>2022-05-23 20:44:16</time>
      </trkpt>
      <trkpt lat="41.45014" lon="0.88631">
        <ele>550.6</ele>
        <time>2022-05-23 20:44:17</time>
      </trkpt>
      <trkpt lat="41.45012" lon="0.8863">
        <ele>550.8</ele>
        <time>2022-05-23 20:44:18</time>
      </trkpt>
      <trkpt lat="41.4501" lon="0.88629">
        <ele>551</ele>
        <time>2022-05-23 20:44:19</time>
      </trkpt>
      <trkpt lat="41.45008" lon="0.88627">
        <ele>551.2</ele>
        <time>2022-05-23 20:44:20</time>
      </trkpt>
      <trkpt lat="41.45006" lon="0.88626">
        <ele>551.4</ele>
        <time>2022-05-23 20:44:21</time>
      </trkpt>
      <trkpt lat="41.45003" lon="0.88624">
        <ele>551.6</ele>
        <time>2022-05-23 20:44:22</time>
      </trkpt>
      <trkpt lat="41.45002" lon="0.88623">
        <ele>551.8</ele>
        <time>2022-05-23 20:44:23</time>
      </trkpt>
      <trkpt lat="41.44999" lon="0.88621">
        <ele>552</ele>
        <time>2022-05-23 20:44:24</time>
      </trkpt>
      <trkpt lat="41.44997" lon="0.88619">
        <ele>552.2</ele>
        <time>2022-05-23 20:44:25</time>
      </trkpt>
      <trkpt lat="41.44996" lon="0.88618">
        <ele>552.4</ele>
        <time>2022-05-23 20:44:26</time>
      </trkpt>
      <trkpt lat="41.44994" lon="0.88616">
        <ele>552.6</ele>
        <time>2022-05-23 20:44:27</time>
      </trkpt>
      <trkpt lat="41.44992" lon="0.88614">
        <ele>552.8</ele>
        <time>2022-05-23 20:44:28</time>
      </trkpt>
      <trkpt lat="41.4499" lon="0.88612">
        <ele>553</ele>
        <time>2022-05-23 20:44:29</time>
      </trkpt>
      <trkpt lat="41.44988" lon="0.8861">
        <ele>553.2</ele>
        <time>2022-05-23 20:44:30</time>
      </trkpt>
      <trkpt lat="41.44986" lon="0.88608">
        <ele>553.4</ele>
        <time>2022-05-23 20:44:31</time>
      </trkpt>
      <trkpt lat="41.44985" lon="0.88606">
        <ele>553.6</ele>
        <time>2022-05-23 20:44:32</time>
      </trkpt>
      <trkpt lat="41.44982" lon="0.88604">
        <ele>553.8</ele>
        <time>2022-05-23 20:44:33</time>
      </trkpt>
      <trkpt lat="41.4498" lon="0.88603">
        <ele>554</ele>
        <time>2022-05-23 20:44:34</time>
      </trkpt>
      <trkpt lat="41.44978" lon="0.88601">
        <ele>554.2</ele>
        <time>2022-05-23 20:44:35</time>
      </trkpt>
      <trkpt lat="41.44976" lon="0.886">
        <ele>554.2</ele>
        <time>2022-05-23 20:44:36</time>
      </trkpt>
      <trkpt lat="41.44973" lon="0.88599">
        <ele>554.4</ele>
        <time>2022-05-23 20:44:37</time>
      </trkpt>
      <trkpt lat="41.44971" lon="0.88597">
        <ele>554.6</ele>
        <time>2022-05-23 20:44:38</time>
      </trkpt>
      <trkpt lat="41.44969" lon="0.88597">
        <ele>554.8</ele>
        <time>2022-05-23 20:44:39</time>
      </trkpt>
      <trkpt lat="41.44966" lon="0.88596">
        <ele>555</ele>
        <time>2022-05-23 20:44:40</time>
      </trkpt>
      <trkpt lat="41.44963" lon="0.88596">
        <ele>555.2</ele>
        <time>2022-05-23 20:44:41</time>
      </trkpt>
      <trkpt lat="41.44961" lon="0.88596">
        <ele>555.4</ele>
        <time>2022-05-23 20:44:42</time>
      </trkpt>
      <trkpt lat="41.44958" lon="0.88595">
        <ele>555.4</ele>
        <time>2022-05-23 20:44:43</time>
      </trkpt>
      <trkpt lat="41.44956" lon="0.88595">
        <ele>555.6</ele>
        <time>2022-05-23 20:44:44</time>
      </trkpt>
      <trkpt lat="41.44953" lon="0.88595">
        <ele>555.8</ele>
        <time>2022-05-23 20:44:45</time>
      </trkpt>
      <trkpt lat="41.4495" lon="0.88596">
        <ele>556</ele>
        <time>2022-05-23 20:44:46</time>
      </trkpt>
      <trkpt lat="41.44948" lon="0.88596">
        <ele>556.2</ele>
        <time>2022-05-23 20:44:47</time>
      </trkpt>
      <trkpt lat="41.44945" lon="0.88597">
        <ele>556.2</ele>
        <time>2022-05-23 20:44:48</time>
      </trkpt>
      <trkpt lat="41.44942" lon="0.88597">
        <ele>556.4</ele>
        <time>2022-05-23 20:44:49</time>
      </trkpt>
      <trkpt lat="41.4494" lon="0.88598">
        <ele>556.6</ele>
        <time>2022-05-23 20:44:50</time>
      </trkpt>
      <trkpt lat="41.44937" lon="0.886">
        <ele>556.8</ele>
        <time>2022-05-23 20:44:51</time>
      </trkpt>
      <trkpt lat="41.44935" lon="0.88601">
        <ele>556.8</ele>
        <time>2022-05-23 20:44:52</time>
      </trkpt>
      <trkpt lat="41.44932" lon="0.88603">
        <ele>557</ele>
        <time>2022-05-23 20:44:53</time>
      </trkpt>
      <trkpt lat="41.4493" lon="0.88605">
        <ele>557.2</ele>
        <time>2022-05-23 20:44:54</time>
      </trkpt>
      <trkpt lat="41.44928" lon="0.88607">
        <ele>557.4</ele>
        <time>2022-05-23 20:44:55</time>
      </trkpt>
      <trkpt lat="41.44926" lon="0.88609">
        <ele>557.4</ele>
        <time>2022-05-23 20:44:56</time>
      </trkpt>
      <trkpt lat="41.44924" lon="0.88612">
        <ele>557.6</ele>
        <time>2022-05-23 20:44:57</time>
      </trkpt>
      <trkpt lat="41.44922" lon="0.88614">
        <ele>557.8</ele>
        <time>2022-05-23 20:44:58</time>
      </trkpt>
      <trkpt lat="41.4492" lon="0.88616">
        <ele>558</ele>
        <time>2022-05-23 20:44:59</time>
      </trkpt>
      <trkpt lat="41.44918" lon="0.88619">
        <ele>558.2</ele>
        <time>2022-05-23 20:45:00</time>
      </trkpt>
      <trkpt lat="41.44917" lon="0.88622">
        <ele>558.2</ele>
        <time>2022-05-23 20:45:01</time>
      </trkpt>
      <trkpt lat="41.44915" lon="0.88625">
        <ele>558.4</ele>
        <time>2022-05-23 20:45:02</time>
      </trkpt>
      <trkpt lat="41.44914" lon="0.88628">
        <ele>558.6</ele>
        <time>2022-05-23 20:45:03</time>
      </trkpt>
      <trkpt lat="41.44913" lon="0.88631">
        <ele>558.8</ele>
        <time>2022-05-23 20:45:04</time>
      </trkpt>
      <trkpt lat="41.44912" lon="0.88635">
        <ele>558.8</ele>
        <time>2022-05-23 20:45:05</time>
      </trkpt>
      <trkpt lat="41.44911" lon="0.88638">
        <ele>559</ele>
        <time>2022-05-23 20:45:06</time>
      </trkpt>
      <trkpt lat="41.4491" lon="0.88642">
        <ele>559.2</ele>
        <time>2022-05-23 20:45:07</time>
      </trkpt>
      <trkpt lat="41.4491" lon="0.88645">
        <ele>559.2</ele>
        <time>2022-05-23 20:45:08</time>
      </trkpt>
      <trkpt lat="41.44909" lon="0.88649">
        <ele>559.4</ele>
        <time>2022-05-23 20:45:09</time>
      </trkpt>
      <trkpt lat="41.44909" lon="0.88652">
        <ele>559.6</ele>
        <time>2022-05-23 20:45:10</time>
      </trkpt>
      <trkpt lat="41.44909" lon="0.88656">
        <ele>559.8</ele>
        <time>2022-05-23 20:45:11</time>
      </trkpt>
      <trkpt lat="41.44909" lon="0.88659">
        <ele>559.8</ele>
        <time>2022-05-23 20:45:12</time>
      </trkpt>
      <trkpt lat="41.44909" lon="0.88663">
        <ele>560</ele>
        <time>2022-05-23 20:45:13</time>
      </trkpt>
      <trkpt lat="41.4491" lon="0.88667">
        <ele>560.2</ele>
        <time>2022-05-23 20:45:14</time>
      </trkpt>
      <trkpt lat="41.4491" lon="0.88671">
        <ele>560.2</ele>
        <time>2022-05-23 20:45:15</time>
      </trkpt>
      <trkpt lat="41.4491" lon="0.88674">
        <ele>560.4</ele>
        <time>2022-05-23 20:45:16</time>
      </trkpt>
      <trkpt lat="41.44911" lon="0.88678">
        <ele>560.6</ele>
        <time>2022-05-23 20:45:17</time>
      </trkpt>
      <trkpt lat="41.44912" lon="0.88681">
        <ele>560.8</ele>
        <time>2022-05-23 20:45:18</time>
      </trkpt>
      <trkpt lat="41.44913" lon="0.88684">
        <ele>561</ele>
        <time>2022-05-23 20:45:19</time>
      </trkpt>
      <trkpt lat="41.44914" lon="0.88687">
        <ele>561</ele>
        <time>2022-05-23 20:45:20</time>
      </trkpt>
      <trkpt lat="41.44915" lon="0.88691">
        <ele>561.2</ele>
        <time>2022-05-23 20:45:21</time>
      </trkpt>
      <trkpt lat="41.44917" lon="0.88694">
        <ele>561.4</ele>
        <time>2022-05-23 20:45:22</time>
      </trkpt>
      <trkpt lat="41.44918" lon="0.88698">
        <ele>561.6</ele>
        <time>2022-05-23 20:45:23</time>
      </trkpt>
      <trkpt lat="41.44919" lon="0.88701">
        <ele>561.6</ele>
        <time>2022-05-23 20:45:24</time>
      </trkpt>
      <trkpt lat="41.44921" lon="0.88704">
        <ele>561.8</ele>
        <time>2022-05-23 20:45:25</time>
      </trkpt>
      <trkpt lat="41.44922" lon="0.88708">
        <ele>561.8</ele>
        <time>2022-05-23 20:45:26</time>
      </trkpt>
      <trkpt lat="41.44924" lon="0.88711">
        <ele>562</ele>
        <time>2022-05-23 20:45:27</time>
      </trkpt>
      <trkpt lat="41.44926" lon="0.88714">
        <ele>562.2</ele>
        <time>2022-05-23 20:45:28</time>
      </trkpt>
      <trkpt lat="41.44927" lon="0.88717">
        <ele>562.2</ele>
        <time>2022-05-23 20:45:29</time>
      </trkpt>
      <trkpt lat="41.4493" lon="0.8872">
        <ele>562.4</ele>
        <time>2022-05-23 20:45:30</time>
      </trkpt>
      <trkpt lat="41.44931" lon="0.88723">
        <ele>562.6</ele>
        <time>2022-05-23 20:45:31</time>
      </trkpt>
      <trkpt lat="41.44933" lon="0.88726">
        <ele>562.8</ele>
        <time>2022-05-23 20:45:32</time>
      </trkpt>
      <trkpt lat="41.44935" lon="0.88729">
        <ele>562.8</ele>
        <time>2022-05-23 20:45:33</time>
      </trkpt>
      <trkpt lat="41.44937" lon="0.88732">
        <ele>563</ele>
        <time>2022-05-23 20:45:34</time>
      </trkpt>
      <trkpt lat="41.44939" lon="0.88734">
        <ele>563.2</ele>
        <time>2022-05-23 20:45:35</time>
      </trkpt>
      <trkpt lat="41.4494" lon="0.88737">
        <ele>563.4</ele>
        <time>2022-05-23 20:45:36</time>
      </trkpt>
      <trkpt lat="41.44943" lon="0.8874">
        <ele>563.6</ele>
        <time>2022-05-23 20:45:37</time>
      </trkpt>
      <trkpt lat="41.44944" lon="0.88743">
        <ele>563.8</ele>
        <time>2022-05-23 20:45:38</time>
      </trkpt>
      <trkpt lat="41.44947" lon="0.88745">
        <ele>564</ele>
        <time>2022-05-23 20:45:39</time>
      </trkpt>
      <trkpt lat="41.44948" lon="0.88747">
        <ele>564.2</ele>
        <time>2022-05-23 20:45:40</time>
      </trkpt>
      <trkpt lat="41.44951" lon="0.8875">
        <ele>564.4</ele>
        <time>2022-05-23 20:45:41</time>
      </trkpt>
      <trkpt lat="41.44952" lon="0.88753">
        <ele>564.6</ele>
        <time>2022-05-23 20:45:42</time>
      </trkpt>
      <trkpt lat="41.44955" lon="0.88756">
        <ele>564.8</ele>
        <time>2022-05-23 20:45:43</time>
      </trkpt>
      <trkpt lat="41.44956" lon="0.88758">
        <ele>565</ele>
        <time>2022-05-23 20:45:44</time>
      </trkpt>
      <trkpt lat="41.44959" lon="0.88761">
        <ele>565.2</ele>
        <time>2022-05-23 20:45:45</time>
      </trkpt>
      <trkpt lat="41.44961" lon="0.88763">
        <ele>565.2</ele>
        <time>2022-05-23 20:45:46</time>
      </trkpt>
      <trkpt lat="41.44963" lon="0.88765">
        <ele>565.4</ele>
        <time>2022-05-23 20:45:47</time>
      </trkpt>
      <trkpt lat="41.44965" lon="0.88767">
        <ele>565.6</ele>
        <time>2022-05-23 20:45:48</time>
      </trkpt>
      <trkpt lat="41.44967" lon="0.8877">
        <ele>565.8</ele>
        <time>2022-05-23 20:45:49</time>
      </trkpt>
      <trkpt lat="41.4497" lon="0.88772">
        <ele>565.8</ele>
        <time>2022-05-23 20:45:50</time>
      </trkpt>
      <trkpt lat="41.44972" lon="0.88774">
        <ele>566</ele>
        <time>2022-05-23 20:45:51</time>
      </trkpt>
      <trkpt lat="41.44974" lon="0.88776">
        <ele>566.2</ele>
        <time>2022-05-23 20:45:52</time>
      </trkpt>
      <trkpt lat="41.44977" lon="0.88779">
        <ele>566.4</ele>
        <time>2022-05-23 20:45:53</time>
      </trkpt>
      <trkpt lat="41.4498" lon="0.88782">
        <ele>566.4</ele>
        <time>2022-05-23 20:45:54</time>
      </trkpt>
      <trkpt lat="41.44982" lon="0.88784">
        <ele>566.6</ele>
        <time>2022-05-23 20:45:55</time>
      </trkpt>
      <trkpt lat="41.44984" lon="0.88786">
        <ele>566.8</ele>
        <time>2022-05-23 20:45:56</time>
      </trkpt>
      <trkpt lat="41.44987" lon="0.88787">
        <ele>567</ele>
        <time>2022-05-23 20:45:57</time>
      </trkpt>
      <trkpt lat="41.44989" lon="0.88789">
        <ele>567</ele>
        <time>2022-05-23 20:45:58</time>
      </trkpt>
      <trkpt lat="41.44991" lon="0.8879">
        <ele>567.2</ele>
        <time>2022-05-23 20:45:59</time>
      </trkpt>
      <trkpt lat="41.44994" lon="0.88792">
        <ele>567.4</ele>
        <time>2022-05-23 20:46:00</time>
      </trkpt>
      <trkpt lat="41.44997" lon="0.88794">
        <ele>567.4</ele>
        <time>2022-05-23 20:46:01</time>
      </trkpt>
      <trkpt lat="41.44999" lon="0.88795">
        <ele>567.6</ele>
        <time>2022-05-23 20:46:02</time>
      </trkpt>
      <trkpt lat="41.45001" lon="0.88796">
        <ele>567.8</ele>
        <time>2022-05-23 20:46:03</time>
      </trkpt>
      <trkpt lat="41.45004" lon="0.88798">
        <ele>568</ele>
        <time>2022-05-23 20:46:04</time>
      </trkpt>
      <trkpt lat="41.45007" lon="0.88799">
        <ele>568</ele>
        <time>2022-05-23 20:46:05</time>
      </trkpt>
      <trkpt lat="41.45009" lon="0.88801">
        <ele>568.2</ele>
        <time>2022-05-23 20:46:06</time>
      </trkpt>
      <trkpt lat="41.45011" lon="0.88802">
        <ele>568.4</ele>
        <time>2022-05-23 20:46:07</time>
      </trkpt>
      <trkpt lat="41.45014" lon="0.88805">
        <ele>568.4</ele>
        <time>2022-05-23 20:46:08</time>
      </trkpt>
      <trkpt lat="41.45016" lon="0.88806">
        <ele>568.6</ele>
        <time>2022-05-23 20:46:09</time>
      </trkpt>
      <trkpt lat="41.45018" lon="0.88808">
        <ele>568.8</ele>
        <time>2022-05-23 20:46:10</time>
      </trkpt>
      <trkpt lat="41.45021" lon="0.8881">
        <ele>569</ele>
        <time>2022-05-23 20:46:11</time>
      </trkpt>
      <trkpt lat="41.45023" lon="0.88812">
        <ele>569</ele>
        <time>2022-05-23 20:46:12</time>
      </trkpt>
      <trkpt lat="41.45026" lon="0.88814">
        <ele>569.4</ele>
        <time>2022-05-23 20:46:13</time>
      </trkpt>
      <trkpt lat="41.45028" lon="0.88816">
        <ele>569.6</ele>
        <time>2022-05-23 20:46:14</time>
      </trkpt>
      <trkpt lat="41.4503" lon="0.88818">
        <ele>569.8</ele>
        <time>2022-05-23 20:46:15</time>
      </trkpt>
      <trkpt lat="41.45032" lon="0.88821">
        <ele>570</ele>
        <time>2022-05-23 20:46:16</time>
      </trkpt>
      <trkpt lat="41.45034" lon="0.88824">
        <ele>570.2</ele>
        <time>2022-05-23 20:46:17</time>
      </trkpt>
      <trkpt lat="41.45036" lon="0.88826">
        <ele>570.2</ele>
        <time>2022-05-23 20:46:18</time>
      </trkpt>
      <trkpt lat="41.45037" lon="0.88829">
        <ele>570.4</ele>
        <time>2022-05-23 20:46:19</time>
      </trkpt>
      <trkpt lat="41.45039" lon="0.88832">
        <ele>570.6</ele>
        <time>2022-05-23 20:46:20</time>
      </trkpt>
      <trkpt lat="41.45041" lon="0.88834">
        <ele>570.8</ele>
        <time>2022-05-23 20:46:21</time>
      </trkpt>
      <trkpt lat="41.45042" lon="0.88837">
        <ele>570.8</ele>
        <time>2022-05-23 20:46:22</time>
      </trkpt>
      <trkpt lat="41.45043" lon="0.8884">
        <ele>571</ele>
        <time>2022-05-23 20:46:23</time>
      </trkpt>
      <trkpt lat="41.45045" lon="0.88843">
        <ele>571.2</ele>
        <time>2022-05-23 20:46:24</time>
      </trkpt>
      <trkpt lat="41.45046" lon="0.88846">
        <ele>571.4</ele>
        <time>2022-05-23 20:46:25</time>
      </trkpt>
      <trkpt lat="41.45047" lon="0.88849">
        <ele>571.6</ele>
        <time>2022-05-23 20:46:26</time>
      </trkpt>
      <trkpt lat="41.45049" lon="0.88852">
        <ele>571.8</ele>
        <time>2022-05-23 20:46:27</time>
      </trkpt>
      <trkpt lat="41.4505" lon="0.88856">
        <ele>572</ele>
        <time>2022-05-23 20:46:28</time>
      </trkpt>
      <trkpt lat="41.45051" lon="0.88859">
        <ele>572.2</ele>
        <time>2022-05-23 20:46:29</time>
      </trkpt>
      <trkpt lat="41.45051" lon="0.88862">
        <ele>572.4</ele>
        <time>2022-05-23 20:46:30</time>
      </trkpt>
      <trkpt lat="41.45052" lon="0.88865">
        <ele>572.6</ele>
        <time>2022-05-23 20:46:31</time>
      </trkpt>
      <trkpt lat="41.45053" lon="0.88869">
        <ele>572.8</ele>
        <time>2022-05-23 20:46:32</time>
      </trkpt>
      <trkpt lat="41.45054" lon="0.88872">
        <ele>573</ele>
        <time>2022-05-23 20:46:33</time>
      </trkpt>
      <trkpt lat="41.45055" lon="0.88875">
        <ele>573.2</ele>
        <time>2022-05-23 20:46:34</time>
      </trkpt>
      <trkpt lat="41.45055" lon="0.88878">
        <ele>573.4</ele>
        <time>2022-05-23 20:46:35</time>
      </trkpt>
      <trkpt lat="41.45055" lon="0.88882">
        <ele>573.6</ele>
        <time>2022-05-23 20:46:36</time>
      </trkpt>
      <trkpt lat="41.45055" lon="0.88885">
        <ele>573.8</ele>
        <time>2022-05-23 20:46:37</time>
      </trkpt>
      <trkpt lat="41.45055" lon="0.88888">
        <ele>574</ele>
        <time>2022-05-23 20:46:38</time>
      </trkpt>
      <trkpt lat="41.45056" lon="0.88891">
        <ele>574</ele>
        <time>2022-05-23 20:46:39</time>
      </trkpt>
      <trkpt lat="41.45056" lon="0.88895">
        <ele>574.4</ele>
        <time>2022-05-23 20:46:40</time>
      </trkpt>
      <trkpt lat="41.45055" lon="0.88898">
        <ele>574.6</ele>
        <time>2022-05-23 20:46:41</time>
      </trkpt>
      <trkpt lat="41.45055" lon="0.88902">
        <ele>574.8</ele>
        <time>2022-05-23 20:46:42</time>
      </trkpt>
      <trkpt lat="41.45055" lon="0.88905">
        <ele>575</ele>
        <time>2022-05-23 20:46:43</time>
      </trkpt>
      <trkpt lat="41.45055" lon="0.88908">
        <ele>575.2</ele>
        <time>2022-05-23 20:46:44</time>
      </trkpt>
      <trkpt lat="41.45054" lon="0.88912">
        <ele>575.6</ele>
        <time>2022-05-23 20:46:45</time>
      </trkpt>
      <trkpt lat="41.45054" lon="0.88915">
        <ele>575.8</ele>
        <time>2022-05-23 20:46:46</time>
      </trkpt>
      <trkpt lat="41.45053" lon="0.88918">
        <ele>576</ele>
        <time>2022-05-23 20:46:47</time>
      </trkpt>
      <trkpt lat="41.45053" lon="0.88921">
        <ele>576.2</ele>
        <time>2022-05-23 20:46:48</time>
      </trkpt>
      <trkpt lat="41.45052" lon="0.88924">
        <ele>576.4</ele>
        <time>2022-05-23 20:46:49</time>
      </trkpt>
      <trkpt lat="41.45052" lon="0.88927">
        <ele>576.6</ele>
        <time>2022-05-23 20:46:50</time>
      </trkpt>
      <trkpt lat="41.45051" lon="0.8893">
        <ele>576.8</ele>
        <time>2022-05-23 20:46:51</time>
      </trkpt>
      <trkpt lat="41.4505" lon="0.88933">
        <ele>577</ele>
        <time>2022-05-23 20:46:52</time>
      </trkpt>
      <trkpt lat="41.45049" lon="0.88936">
        <ele>577.2</ele>
        <time>2022-05-23 20:46:53</time>
      </trkpt>
      <trkpt lat="41.45049" lon="0.88939">
        <ele>577.4</ele>
        <time>2022-05-23 20:46:54</time>
      </trkpt>
      <trkpt lat="41.45048" lon="0.88941">
        <ele>577.6</ele>
        <time>2022-05-23 20:46:55</time>
      </trkpt>
      <trkpt lat="41.45046" lon="0.88945">
        <ele>578</ele>
        <time>2022-05-23 20:46:56</time>
      </trkpt>
      <trkpt lat="41.45045" lon="0.88948">
        <ele>578.2</ele>
        <time>2022-05-23 20:46:57</time>
      </trkpt>
      <trkpt lat="41.45044" lon="0.8895">
        <ele>578.4</ele>
        <time>2022-05-23 20:46:58</time>
      </trkpt>
      <trkpt lat="41.45042" lon="0.88952">
        <ele>578.6</ele>
        <time>2022-05-23 20:46:59</time>
      </trkpt>
      <trkpt lat="41.4504" lon="0.88955">
        <ele>578.8</ele>
        <time>2022-05-23 20:47:00</time>
      </trkpt>
      <trkpt lat="41.45039" lon="0.88958">
        <ele>579</ele>
        <time>2022-05-23 20:47:01</time>
      </trkpt>
      <trkpt lat="41.45038" lon="0.8896">
        <ele>579.2</ele>
        <time>2022-05-23 20:47:02</time>
      </trkpt>
      <trkpt lat="41.45036" lon="0.88962">
        <ele>579.4</ele>
        <time>2022-05-23 20:47:03</time>
      </trkpt>
      <trkpt lat="41.45034" lon="0.88965">
        <ele>579.6</ele>
        <time>2022-05-23 20:47:04</time>
      </trkpt>
      <trkpt lat="41.45033" lon="0.88967">
        <ele>579.8</ele>
        <time>2022-05-23 20:47:05</time>
      </trkpt>
      <trkpt lat="41.45031" lon="0.88969">
        <ele>580</ele>
        <time>2022-05-23 20:47:06</time>
      </trkpt>
      <trkpt lat="41.4503" lon="0.88972">
        <ele>580.2</ele>
        <time>2022-05-23 20:47:07</time>
      </trkpt>
      <trkpt lat="41.45027" lon="0.88974">
        <ele>580.4</ele>
        <time>2022-05-23 20:47:08</time>
      </trkpt>
      <trkpt lat="41.45026" lon="0.88976">
        <ele>580.6</ele>
        <time>2022-05-23 20:47:09</time>
      </trkpt>
      <trkpt lat="41.45024" lon="0.88978">
        <ele>580.8</ele>
        <time>2022-05-23 20:47:10</time>
      </trkpt>
      <trkpt lat="41.45022" lon="0.88979">
        <ele>581</ele>
        <time>2022-05-23 20:47:11</time>
      </trkpt>
      <trkpt lat="41.45019" lon="0.88981">
        <ele>581.2</ele>
        <time>2022-05-23 20:47:12</time>
      </trkpt>
      <trkpt lat="41.45018" lon="0.88982">
        <ele>581.4</ele>
        <time>2022-05-23 20:47:13</time>
      </trkpt>
      <trkpt lat="41.45015" lon="0.88984">
        <ele>581.6</ele>
        <time>2022-05-23 20:47:14</time>
      </trkpt>
      <trkpt lat="41.45014" lon="0.88986">
        <ele>581.8</ele>
        <time>2022-05-23 20:47:15</time>
      </trkpt>
      <trkpt lat="41.45012" lon="0.88988">
        <ele>582</ele>
        <time>2022-05-23 20:47:16</time>
      </trkpt>
      <trkpt lat="41.4501" lon="0.88989">
        <ele>582.2</ele>
        <time>2022-05-23 20:47:17</time>
      </trkpt>
      <trkpt lat="41.45008" lon="0.88991">
        <ele>582.4</ele>
        <time>2022-05-23 20:47:18</time>
      </trkpt>
      <trkpt lat="41.45006" lon="0.88993">
        <ele>582.4</ele>
        <time>2022-05-23 20:47:19</time>
      </trkpt>
      <trkpt lat="41.45004" lon="0.88995">
        <ele>582.6</ele>
        <time>2022-05-23 20:47:20</time>
      </trkpt>
      <trkpt lat="41.45002" lon="0.88997">
        <ele>582.8</ele>
        <time>2022-05-23 20:47:21</time>
      </trkpt>
      <trkpt lat="41.45" lon="0.88998">
        <ele>583</ele>
        <time>2022-05-23 20:47:22</time>
      </trkpt>
      <trkpt lat="41.44997" lon="0.89">
        <ele>583.2</ele>
        <time>2022-05-23 20:47:23</time>
      </trkpt>
      <trkpt lat="41.44995" lon="0.89002">
        <ele>583.2</ele>
        <time>2022-05-23 20:47:24</time>
      </trkpt>
      <trkpt lat="41.44993" lon="0.89004">
        <ele>583.4</ele>
        <time>2022-05-23 20:47:25</time>
      </trkpt>
      <trkpt lat="41.44991" lon="0.89006">
        <ele>583.6</ele>
        <time>2022-05-23 20:47:26</time>
      </trkpt>
      <trkpt lat="41.44989" lon="0.89008">
        <ele>583.8</ele>
        <time>2022-05-23 20:47:27</time>
      </trkpt>
      <trkpt lat="41.44986" lon="0.8901">
        <ele>584</ele>
        <time>2022-05-23 20:47:28</time>
      </trkpt>
      <trkpt lat="41.44984" lon="0.89012">
        <ele>584.2</ele>
        <time>2022-05-23 20:47:29</time>
      </trkpt>
      <trkpt lat="41.44981" lon="0.89013">
        <ele>584.2</ele>
        <time>2022-05-23 20:47:30</time>
      </trkpt>
      <trkpt lat="41.44979" lon="0.89014">
        <ele>584.4</ele>
        <time>2022-05-23 20:47:31</time>
      </trkpt>
      <trkpt lat="41.44976" lon="0.89016">
        <ele>584.6</ele>
        <time>2022-05-23 20:47:32</time>
      </trkpt>
      <trkpt lat="41.44974" lon="0.89018">
        <ele>584.6</ele>
        <time>2022-05-23 20:47:33</time>
      </trkpt>
      <trkpt lat="41.44971" lon="0.89019">
        <ele>584.8</ele>
        <time>2022-05-23 20:47:34</time>
      </trkpt>
      <trkpt lat="41.44968" lon="0.8902">
        <ele>585</ele>
        <time>2022-05-23 20:47:35</time>
      </trkpt>
      <trkpt lat="41.44965" lon="0.89022">
        <ele>585.2</ele>
        <time>2022-05-23 20:47:36</time>
      </trkpt>
      <trkpt lat="41.44962" lon="0.89023">
        <ele>585.2</ele>
        <time>2022-05-23 20:47:37</time>
      </trkpt>
      <trkpt lat="41.4496" lon="0.89023">
        <ele>585.4</ele>
        <time>2022-05-23 20:47:38</time>
      </trkpt>
      <trkpt lat="41.44956" lon="0.89024">
        <ele>585.6</ele>
        <time>2022-05-23 20:47:39</time>
      </trkpt>
      <trkpt lat="41.44953" lon="0.89024">
        <ele>585.8</ele>
        <time>2022-05-23 20:47:40</time>
      </trkpt>
      <trkpt lat="41.4495" lon="0.89024">
        <ele>586</ele>
        <time>2022-05-23 20:47:41</time>
      </trkpt>
      <trkpt lat="41.44948" lon="0.89024">
        <ele>586</ele>
        <time>2022-05-23 20:47:42</time>
      </trkpt>
      <trkpt lat="41.44944" lon="0.89024">
        <ele>586.2</ele>
        <time>2022-05-23 20:47:43</time>
      </trkpt>
      <trkpt lat="41.44941" lon="0.89023">
        <ele>586.4</ele>
        <time>2022-05-23 20:47:44</time>
      </trkpt>
      <trkpt lat="41.44939" lon="0.89023">
        <ele>586.4</ele>
        <time>2022-05-23 20:47:45</time>
      </trkpt>
      <trkpt lat="41.44936" lon="0.89022">
        <ele>586.6</ele>
        <time>2022-05-23 20:47:46</time>
      </trkpt>
      <trkpt lat="41.44933" lon="0.89022">
        <ele>586.8</ele>
        <time>2022-05-23 20:47:47</time>
      </trkpt>
      <trkpt lat="41.4493" lon="0.89021">
        <ele>587</ele>
        <time>2022-05-23 20:47:48</time>
      </trkpt>
      <trkpt lat="41.44927" lon="0.89021">
        <ele>587</ele>
        <time>2022-05-23 20:47:49</time>
      </trkpt>
      <trkpt lat="41.44924" lon="0.8902">
        <ele>587.2</ele>
        <time>2022-05-23 20:47:50</time>
      </trkpt>
      <trkpt lat="41.44922" lon="0.89019">
        <ele>587.4</ele>
        <time>2022-05-23 20:47:51</time>
      </trkpt>
      <trkpt lat="41.44919" lon="0.89018">
        <ele>587.6</ele>
        <time>2022-05-23 20:47:52</time>
      </trkpt>
      <trkpt lat="41.44916" lon="0.89018">
        <ele>587.6</ele>
        <time>2022-05-23 20:47:53</time>
      </trkpt>
      <trkpt lat="41.44913" lon="0.89017">
        <ele>587.8</ele>
        <time>2022-05-23 20:47:54</time>
      </trkpt>
      <trkpt lat="41.44911" lon="0.89016">
        <ele>588</ele>
        <time>2022-05-23 20:47:55</time>
      </trkpt>
      <trkpt lat="41.44908" lon="0.89016">
        <ele>588.2</ele>
        <time>2022-05-23 20:47:56</time>
      </trkpt>
      <trkpt lat="41.44905" lon="0.89015">
        <ele>588.4</ele>
        <time>2022-05-23 20:47:57</time>
      </trkpt>
      <trkpt lat="41.44902" lon="0.89015">
        <ele>588.6</ele>
        <time>2022-05-23 20:47:58</time>
      </trkpt>
      <trkpt lat="41.44899" lon="0.89015">
        <ele>588.8</ele>
        <time>2022-05-23 20:47:59</time>
      </trkpt>
      <trkpt lat="41.44896" lon="0.89015">
        <ele>588.8</ele>
        <time>2022-05-23 20:48:00</time>
      </trkpt>
      <trkpt lat="41.44894" lon="0.89015">
        <ele>589</ele>
        <time>2022-05-23 20:48:01</time>
      </trkpt>
      <trkpt lat="41.4489" lon="0.89015">
        <ele>589.2</ele>
        <time>2022-05-23 20:48:02</time>
      </trkpt>
      <trkpt lat="41.44888" lon="0.89015">
        <ele>589.4</ele>
        <time>2022-05-23 20:48:03</time>
      </trkpt>
      <trkpt lat="41.44885" lon="0.89016">
        <ele>589.6</ele>
        <time>2022-05-23 20:48:04</time>
      </trkpt>
      <trkpt lat="41.44882" lon="0.89016">
        <ele>589.8</ele>
        <time>2022-05-23 20:48:05</time>
      </trkpt>
      <trkpt lat="41.44879" lon="0.89017">
        <ele>590</ele>
        <time>2022-05-23 20:48:06</time>
      </trkpt>
      <trkpt lat="41.44877" lon="0.89018">
        <ele>590.2</ele>
        <time>2022-05-23 20:48:07</time>
      </trkpt>
      <trkpt lat="41.44875" lon="0.8902">
        <ele>590.4</ele>
        <time>2022-05-23 20:48:08</time>
      </trkpt>
      <trkpt lat="41.44873" lon="0.89021">
        <ele>590.6</ele>
        <time>2022-05-23 20:48:09</time>
      </trkpt>
      <trkpt lat="41.4487" lon="0.89023">
        <ele>590.6</ele>
        <time>2022-05-23 20:48:10</time>
      </trkpt>
      <trkpt lat="41.44868" lon="0.89024">
        <ele>590.8</ele>
        <time>2022-05-23 20:48:11</time>
      </trkpt>
      <trkpt lat="41.44866" lon="0.89026">
        <ele>591</ele>
        <time>2022-05-23 20:48:12</time>
      </trkpt>
      <trkpt lat="41.44864" lon="0.89028">
        <ele>591.2</ele>
        <time>2022-05-23 20:48:13</time>
      </trkpt>
      <trkpt lat="41.44862" lon="0.89031">
        <ele>591.4</ele>
        <time>2022-05-23 20:48:14</time>
      </trkpt>
      <trkpt lat="41.4486" lon="0.89033">
        <ele>591.6</ele>
        <time>2022-05-23 20:48:15</time>
      </trkpt>
      <trkpt lat="41.44858" lon="0.89035">
        <ele>591.6</ele>
        <time>2022-05-23 20:48:16</time>
      </trkpt>
      <trkpt lat="41.44856" lon="0.89037">
        <ele>591.8</ele>
        <time>2022-05-23 20:48:17</time>
      </trkpt>
      <trkpt lat="41.44855" lon="0.8904">
        <ele>592</ele>
        <time>2022-05-23 20:48:18</time>
      </trkpt>
      <trkpt lat="41.44854" lon="0.89042">
        <ele>592.2</ele>
        <time>2022-05-23 20:48:19</time>
      </trkpt>
      <trkpt lat="41.44852" lon="0.89045">
        <ele>592.4</ele>
        <time>2022-05-23 20:48:20</time>
      </trkpt>
      <trkpt lat="41.44851" lon="0.89048">
        <ele>592.6</ele>
        <time>2022-05-23 20:48:21</time>
      </trkpt>
      <trkpt lat="41.4485" lon="0.89052">
        <ele>592.8</ele>
        <time>2022-05-23 20:48:22</time>
      </trkpt>
      <trkpt lat="41.44849" lon="0.89055">
        <ele>593</ele>
        <time>2022-05-23 20:48:23</time>
      </trkpt>
      <trkpt lat="41.44849" lon="0.89059">
        <ele>593</ele>
        <time>2022-05-23 20:48:24</time>
      </trkpt>
      <trkpt lat="41.44848" lon="0.89062">
        <ele>593.2</ele>
        <time>2022-05-23 20:48:25</time>
      </trkpt>
      <trkpt lat="41.44848" lon="0.89065">
        <ele>593.4</ele>
        <time>2022-05-23 20:48:26</time>
      </trkpt>
      <trkpt lat="41.44847" lon="0.89068">
        <ele>593.6</ele>
        <time>2022-05-23 20:48:27</time>
      </trkpt>
      <trkpt lat="41.44847" lon="0.89071">
        <ele>593.8</ele>
        <time>2022-05-23 20:48:28</time>
      </trkpt>
      <trkpt lat="41.44847" lon="0.89074">
        <ele>593.8</ele>
        <time>2022-05-23 20:48:29</time>
      </trkpt>
      <trkpt lat="41.44847" lon="0.89078">
        <ele>594</ele>
        <time>2022-05-23 20:48:30</time>
      </trkpt>
      <trkpt lat="41.44847" lon="0.89081">
        <ele>594.2</ele>
        <time>2022-05-23 20:48:31</time>
      </trkpt>
      <trkpt lat="41.44847" lon="0.89085">
        <ele>594.4</ele>
        <time>2022-05-23 20:48:32</time>
      </trkpt>
      <trkpt lat="41.44847" lon="0.89088">
        <ele>594.6</ele>
        <time>2022-05-23 20:48:33</time>
      </trkpt>
      <trkpt lat="41.44848" lon="0.89091">
        <ele>594.8</ele>
        <time>2022-05-23 20:48:34</time>
      </trkpt>
      <trkpt lat="41.44849" lon="0.89094">
        <ele>595</ele>
        <time>2022-05-23 20:48:35</time>
      </trkpt>
      <trkpt lat="41.44849" lon="0.89098">
        <ele>595</ele>
        <time>2022-05-23 20:48:36</time>
      </trkpt>
      <trkpt lat="41.4485" lon="0.891">
        <ele>595.2</ele>
        <time>2022-05-23 20:48:37</time>
      </trkpt>
      <trkpt lat="41.44851" lon="0.89103">
        <ele>595.4</ele>
        <time>2022-05-23 20:48:38</time>
      </trkpt>
      <trkpt lat="41.44852" lon="0.89106">
        <ele>595.6</ele>
        <time>2022-05-23 20:48:39</time>
      </trkpt>
      <trkpt lat="41.44853" lon="0.89109">
        <ele>595.6</ele>
        <time>2022-05-23 20:48:40</time>
      </trkpt>
      <trkpt lat="41.44855" lon="0.89112">
        <ele>595.8</ele>
        <time>2022-05-23 20:48:41</time>
      </trkpt>
      <trkpt lat="41.44856" lon="0.89115">
        <ele>596</ele>
        <time>2022-05-23 20:48:42</time>
      </trkpt>
      <trkpt lat="41.44858" lon="0.89117">
        <ele>596</ele>
        <time>2022-05-23 20:48:43</time>
      </trkpt>
      <trkpt lat="41.44859" lon="0.8912">
        <ele>596.2</ele>
        <time>2022-05-23 20:48:44</time>
      </trkpt>
      <trkpt lat="41.44861" lon="0.89122">
        <ele>596.2</ele>
        <time>2022-05-23 20:48:45</time>
      </trkpt>
      <trkpt lat="41.44863" lon="0.89124">
        <ele>596.6</ele>
        <time>2022-05-23 20:48:46</time>
      </trkpt>
      <trkpt lat="41.44865" lon="0.89127">
        <ele>596.8</ele>
        <time>2022-05-23 20:48:47</time>
      </trkpt>
      <trkpt lat="41.44867" lon="0.89129">
        <ele>597</ele>
        <time>2022-05-23 20:48:48</time>
      </trkpt>
      <trkpt lat="41.44869" lon="0.8913">
        <ele>597.2</ele>
        <time>2022-05-23 20:48:49</time>
      </trkpt>
      <trkpt lat="41.44871" lon="0.89132">
        <ele>597.4</ele>
        <time>2022-05-23 20:48:50</time>
      </trkpt>
      <trkpt lat="41.44873" lon="0.89134">
        <ele>597.4</ele>
        <time>2022-05-23 20:48:51</time>
      </trkpt>
      <trkpt lat="41.44875" lon="0.89136">
        <ele>597.6</ele>
        <time>2022-05-23 20:48:52</time>
      </trkpt>
      <trkpt lat="41.44877" lon="0.89137">
        <ele>597.8</ele>
        <time>2022-05-23 20:48:53</time>
      </trkpt>
      <trkpt lat="41.44879" lon="0.89139">
        <ele>598</ele>
        <time>2022-05-23 20:48:54</time>
      </trkpt>
      <trkpt lat="41.44881" lon="0.8914">
        <ele>598.2</ele>
        <time>2022-05-23 20:48:55</time>
      </trkpt>
      <trkpt lat="41.44883" lon="0.89142">
        <ele>598.4</ele>
        <time>2022-05-23 20:48:56</time>
      </trkpt>
      <trkpt lat="41.44885" lon="0.89144">
        <ele>598.4</ele>
        <time>2022-05-23 20:48:57</time>
      </trkpt>
      <trkpt lat="41.44887" lon="0.89146">
        <ele>598.8</ele>
        <time>2022-05-23 20:48:58</time>
      </trkpt>
      <trkpt lat="41.4489" lon="0.89147">
        <ele>598.8</ele>
        <time>2022-05-23 20:48:59</time>
      </trkpt>
      <trkpt lat="41.44892" lon="0.89149">
        <ele>599</ele>
        <time>2022-05-23 20:49:00</time>
      </trkpt>
      <trkpt lat="41.44894" lon="0.89151">
        <ele>599.2</ele>
        <time>2022-05-23 20:49:01</time>
      </trkpt>
      <trkpt lat="41.44897" lon="0.89153">
        <ele>599.4</ele>
        <time>2022-05-23 20:49:02</time>
      </trkpt>
      <trkpt lat="41.449" lon="0.89155">
        <ele>599.6</ele>
        <time>2022-05-23 20:49:03</time>
      </trkpt>
      <trkpt lat="41.44902" lon="0.89157">
        <ele>599.8</ele>
        <time>2022-05-23 20:49:04</time>
      </trkpt>
      <trkpt lat="41.44905" lon="0.89159">
        <ele>600</ele>
        <time>2022-05-23 20:49:05</time>
      </trkpt>
      <trkpt lat="41.44907" lon="0.89161">
        <ele>600.2</ele>
        <time>2022-05-23 20:49:06</time>
      </trkpt>
      <trkpt lat="41.4491" lon="0.89163">
        <ele>600.4</ele>
        <time>2022-05-23 20:49:07</time>
      </trkpt>
      <trkpt lat="41.44912" lon="0.89165">
        <ele>600.6</ele>
        <time>2022-05-23 20:49:08</time>
      </trkpt>
      <trkpt lat="41.44915" lon="0.89168">
        <ele>601</ele>
        <time>2022-05-23 20:49:09</time>
      </trkpt>
      <trkpt lat="41.44917" lon="0.8917">
        <ele>601.2</ele>
        <time>2022-05-23 20:49:10</time>
      </trkpt>
      <trkpt lat="41.44919" lon="0.89173">
        <ele>601.4</ele>
        <time>2022-05-23 20:49:11</time>
      </trkpt>
      <trkpt lat="41.44921" lon="0.89175">
        <ele>601.6</ele>
        <time>2022-05-23 20:49:12</time>
      </trkpt>
      <trkpt lat="41.44923" lon="0.89178">
        <ele>601.8</ele>
        <time>2022-05-23 20:49:13</time>
      </trkpt>
      <trkpt lat="41.44925" lon="0.89181">
        <ele>602</ele>
        <time>2022-05-23 20:49:14</time>
      </trkpt>
      <trkpt lat="41.44926" lon="0.89185">
        <ele>602.2</ele>
        <time>2022-05-23 20:49:15</time>
      </trkpt>
      <trkpt lat="41.44928" lon="0.89188">
        <ele>602.4</ele>
        <time>2022-05-23 20:49:16</time>
      </trkpt>
      <trkpt lat="41.44929" lon="0.89192">
        <ele>602.6</ele>
        <time>2022-05-23 20:49:17</time>
      </trkpt>
      <trkpt lat="41.4493" lon="0.89195">
        <ele>603</ele>
        <time>2022-05-23 20:49:18</time>
      </trkpt>
      <trkpt lat="41.44931" lon="0.89199">
        <ele>603.2</ele>
        <time>2022-05-23 20:49:19</time>
      </trkpt>
      <trkpt lat="41.44931" lon="0.89202">
        <ele>603.4</ele>
        <time>2022-05-23 20:49:20</time>
      </trkpt>
      <trkpt lat="41.44932" lon="0.89207">
        <ele>603.8</ele>
        <time>2022-05-23 20:49:21</time>
      </trkpt>
      <trkpt lat="41.44932" lon="0.8921">
        <ele>604</ele>
        <time>2022-05-23 20:49:22</time>
      </trkpt>
      <trkpt lat="41.44933" lon="0.89214">
        <ele>604.2</ele>
        <time>2022-05-23 20:49:23</time>
      </trkpt>
      <trkpt lat="41.44933" lon="0.89217">
        <ele>604.4</ele>
        <time>2022-05-23 20:49:24</time>
      </trkpt>
      <trkpt lat="41.44933" lon="0.89221">
        <ele>604.6</ele>
        <time>2022-05-23 20:49:25</time>
      </trkpt>
      <trkpt lat="41.44934" lon="0.89224">
        <ele>605</ele>
        <time>2022-05-23 20:49:26</time>
      </trkpt>
      <trkpt lat="41.44935" lon="0.89227">
        <ele>605.2</ele>
        <time>2022-05-23 20:49:27</time>
      </trkpt>
      <trkpt lat="41.44936" lon="0.8923">
        <ele>605.4</ele>
        <time>2022-05-23 20:49:28</time>
      </trkpt>
      <trkpt lat="41.44937" lon="0.89233">
        <ele>605.6</ele>
        <time>2022-05-23 20:49:29</time>
      </trkpt>
      <trkpt lat="41.44939" lon="0.89236">
        <ele>605.8</ele>
        <time>2022-05-23 20:49:30</time>
      </trkpt>
      <trkpt lat="41.44939" lon="0.89239">
        <ele>606</ele>
        <time>2022-05-23 20:49:31</time>
      </trkpt>
      <trkpt lat="41.4494" lon="0.89241">
        <ele>606.2</ele>
        <time>2022-05-23 20:49:32</time>
      </trkpt>
      <trkpt lat="41.44942" lon="0.89244">
        <ele>606.6</ele>
        <time>2022-05-23 20:49:33</time>
      </trkpt>
      <trkpt lat="41.44944" lon="0.89247">
        <ele>606.8</ele>
        <time>2022-05-23 20:49:34</time>
      </trkpt>
      <trkpt lat="41.44945" lon="0.8925">
        <ele>607</ele>
        <time>2022-05-23 20:49:35</time>
      </trkpt>
      <trkpt lat="41.44946" lon="0.89252">
        <ele>607.2</ele>
        <time>2022-05-23 20:49:36</time>
      </trkpt>
      <trkpt lat="41.44948" lon="0.89255">
        <ele>607.4</ele>
        <time>2022-05-23 20:49:37</time>
      </trkpt>
      <trkpt lat="41.44949" lon="0.89257">
        <ele>607.6</ele>
        <time>2022-05-23 20:49:38</time>
      </trkpt>
      <trkpt lat="41.44951" lon="0.8926">
        <ele>607.8</ele>
        <time>2022-05-23 20:49:39</time>
      </trkpt>
      <trkpt lat="41.44952" lon="0.89262">
        <ele>608</ele>
        <time>2022-05-23 20:49:40</time>
      </trkpt>
      <trkpt lat="41.44954" lon="0.89264">
        <ele>608.4</ele>
        <time>2022-05-23 20:49:41</time>
      </trkpt>
      <trkpt lat="41.44956" lon="0.89267">
        <ele>608.6</ele>
        <time>2022-05-23 20:49:42</time>
      </trkpt>
      <trkpt lat="41.44957" lon="0.89269">
        <ele>608.8</ele>
        <time>2022-05-23 20:49:43</time>
      </trkpt>
      <trkpt lat="41.44959" lon="0.8927">
        <ele>609</ele>
        <time>2022-05-23 20:49:44</time>
      </trkpt>
      <trkpt lat="41.44961" lon="0.89273">
        <ele>609.2</ele>
        <time>2022-05-23 20:49:45</time>
      </trkpt>
      <trkpt lat="41.44962" lon="0.89275">
        <ele>609.4</ele>
        <time>2022-05-23 20:49:46</time>
      </trkpt>
      <trkpt lat="41.44964" lon="0.89277">
        <ele>609.6</ele>
        <time>2022-05-23 20:49:47</time>
      </trkpt>
      <trkpt lat="41.44965" lon="0.89279">
        <ele>609.8</ele>
        <time>2022-05-23 20:49:48</time>
      </trkpt>
      <trkpt lat="41.44966" lon="0.89281">
        <ele>610.2</ele>
        <time>2022-05-23 20:49:49</time>
      </trkpt>
      <trkpt lat="41.44967" lon="0.89283">
        <ele>610.4</ele>
        <time>2022-05-23 20:49:50</time>
      </trkpt>
      <trkpt lat="41.44968" lon="0.89286">
        <ele>610.6</ele>
        <time>2022-05-23 20:49:51</time>
      </trkpt>
      <trkpt lat="41.44969" lon="0.89288">
        <ele>610.8</ele>
        <time>2022-05-23 20:49:52</time>
      </trkpt>
      <trkpt lat="41.4497" lon="0.89291">
        <ele>611</ele>
        <time>2022-05-23 20:49:53</time>
      </trkpt>
      <trkpt lat="41.44971" lon="0.89293">
        <ele>611.2</ele>
        <time>2022-05-23 20:49:54</time>
      </trkpt>
      <trkpt lat="41.44971" lon="0.89296">
        <ele>611.4</ele>
        <time>2022-05-23 20:49:55</time>
      </trkpt>
      <trkpt lat="41.44971" lon="0.89299">
        <ele>611.6</ele>
        <time>2022-05-23 20:49:56</time>
      </trkpt>
      <trkpt lat="41.44972" lon="0.89302">
        <ele>611.8</ele>
        <time>2022-05-23 20:49:57</time>
      </trkpt>
      <trkpt lat="41.44972" lon="0.89305">
        <ele>612</ele>
        <time>2022-05-23 20:49:58</time>
      </trkpt>
      <trkpt lat="41.44972" lon="0.89307">
        <ele>612.2</ele>
        <time>2022-05-23 20:49:59</time>
      </trkpt>
      <trkpt lat="41.44971" lon="0.8931">
        <ele>612.4</ele>
        <time>2022-05-23 20:50:00</time>
      </trkpt>
      <trkpt lat="41.44971" lon="0.89313">
        <ele>612.8</ele>
        <time>2022-05-23 20:50:01</time>
      </trkpt>
      <trkpt lat="41.4497" lon="0.89316">
        <ele>613</ele>
        <time>2022-05-23 20:50:02</time>
      </trkpt>
      <trkpt lat="41.44969" lon="0.89318">
        <ele>613.2</ele>
        <time>2022-05-23 20:50:03</time>
      </trkpt>
      <trkpt lat="41.44968" lon="0.89321">
        <ele>613.2</ele>
        <time>2022-05-23 20:50:04</time>
      </trkpt>
      <trkpt lat="41.44967" lon="0.89323">
        <ele>613.6</ele>
        <time>2022-05-23 20:50:05</time>
      </trkpt>
      <trkpt lat="41.44966" lon="0.89326">
        <ele>613.8</ele>
        <time>2022-05-23 20:50:06</time>
      </trkpt>
      <trkpt lat="41.44965" lon="0.89328">
        <ele>614</ele>
        <time>2022-05-23 20:50:07</time>
      </trkpt>
      <trkpt lat="41.44964" lon="0.8933">
        <ele>614.2</ele>
        <time>2022-05-23 20:50:08</time>
      </trkpt>
      <trkpt lat="41.44963" lon="0.89331">
        <ele>614.4</ele>
        <time>2022-05-23 20:50:09</time>
      </trkpt>
      <trkpt lat="41.44961" lon="0.89333">
        <ele>614.6</ele>
        <time>2022-05-23 20:50:10</time>
      </trkpt>
      <trkpt lat="41.44959" lon="0.89335">
        <ele>614.8</ele>
        <time>2022-05-23 20:50:11</time>
      </trkpt>
      <trkpt lat="41.44957" lon="0.89336">
        <ele>615</ele>
        <time>2022-05-23 20:50:12</time>
      </trkpt>
      <trkpt lat="41.44956" lon="0.89337">
        <ele>615.2</ele>
        <time>2022-05-23 20:50:13</time>
      </trkpt>
      <trkpt lat="41.44955" lon="0.89338">
        <ele>615.4</ele>
        <time>2022-05-23 20:50:14</time>
      </trkpt>
      <trkpt lat="41.44952" lon="0.8934">
        <ele>615.6</ele>
        <time>2022-05-23 20:50:15</time>
      </trkpt>
      <trkpt lat="41.4495" lon="0.89342">
        <ele>616</ele>
        <time>2022-05-23 20:50:16</time>
      </trkpt>
      <trkpt lat="41.44948" lon="0.89343">
        <ele>616.2</ele>
        <time>2022-05-23 20:50:17</time>
      </trkpt>
      <trkpt lat="41.44946" lon="0.89343">
        <ele>616.4</ele>
        <time>2022-05-23 20:50:18</time>
      </trkpt>
      <trkpt lat="41.44944" lon="0.89343">
        <ele>616.6</ele>
        <time>2022-05-23 20:50:19</time>
      </trkpt>
      <trkpt lat="41.44942" lon="0.89344">
        <ele>616.8</ele>
        <time>2022-05-23 20:50:20</time>
      </trkpt>
      <trkpt lat="41.4494" lon="0.89344">
        <ele>617</ele>
        <time>2022-05-23 20:50:21</time>
      </trkpt>
      <trkpt lat="41.44938" lon="0.89344">
        <ele>617.4</ele>
        <time>2022-05-23 20:50:22</time>
      </trkpt>
      <trkpt lat="41.44936" lon="0.89344">
        <ele>617.6</ele>
        <time>2022-05-23 20:50:23</time>
      </trkpt>
      <trkpt lat="41.44934" lon="0.89344">
        <ele>617.8</ele>
        <time>2022-05-23 20:50:24</time>
      </trkpt>
      <trkpt lat="41.44932" lon="0.89345">
        <ele>618</ele>
        <time>2022-05-23 20:50:25</time>
      </trkpt>
      <trkpt lat="41.4493" lon="0.89346">
        <ele>618.2</ele>
        <time>2022-05-23 20:50:26</time>
      </trkpt>
      <trkpt lat="41.44928" lon="0.89346">
        <ele>618.4</ele>
        <time>2022-05-23 20:50:27</time>
      </trkpt>
      <trkpt lat="41.44926" lon="0.89346">
        <ele>618.6</ele>
        <time>2022-05-23 20:50:28</time>
      </trkpt>
      <trkpt lat="41.44924" lon="0.89347">
        <ele>618.8</ele>
        <time>2022-05-23 20:50:29</time>
      </trkpt>
      <trkpt lat="41.44922" lon="0.89347">
        <ele>619</ele>
        <time>2022-05-23 20:50:30</time>
      </trkpt>
      <trkpt lat="41.4492" lon="0.89348">
        <ele>619.2</ele>
        <time>2022-05-23 20:50:31</time>
      </trkpt>
      <trkpt lat="41.44918" lon="0.89349">
        <ele>619.4</ele>
        <time>2022-05-23 20:50:32</time>
      </trkpt>
      <trkpt lat="41.44916" lon="0.8935">
        <ele>619.6</ele>
        <time>2022-05-23 20:50:33</time>
      </trkpt>
      <trkpt lat="41.44915" lon="0.8935">
        <ele>619.8</ele>
        <time>2022-05-23 20:50:34</time>
      </trkpt>
      <trkpt lat="41.44913" lon="0.89351">
        <ele>620</ele>
        <time>2022-05-23 20:50:35</time>
      </trkpt>
      <trkpt lat="41.44911" lon="0.89352">
        <ele>620.2</ele>
        <time>2022-05-23 20:50:36</time>
      </trkpt>
      <trkpt lat="41.44909" lon="0.89353">
        <ele>620.4</ele>
        <time>2022-05-23 20:50:37</time>
      </trkpt>
      <trkpt lat="41.44907" lon="0.89354">
        <ele>620.6</ele>
        <time>2022-05-23 20:50:38</time>
      </trkpt>
      <trkpt lat="41.44906" lon="0.89354">
        <ele>620.8</ele>
        <time>2022-05-23 20:50:39</time>
      </trkpt>
      <trkpt lat="41.44904" lon="0.89356">
        <ele>621</ele>
        <time>2022-05-23 20:50:40</time>
      </trkpt>
      <trkpt lat="41.44902" lon="0.89357">
        <ele>621.4</ele>
        <time>2022-05-23 20:50:41</time>
      </trkpt>
      <trkpt lat="41.449" lon="0.89358">
        <ele>621.6</ele>
        <time>2022-05-23 20:50:42</time>
      </trkpt>
      <trkpt lat="41.44899" lon="0.89359">
        <ele>621.8</ele>
        <time>2022-05-23 20:50:43</time>
      </trkpt>
      <trkpt lat="41.44897" lon="0.89361">
        <ele>622</ele>
        <time>2022-05-23 20:50:44</time>
      </trkpt>
      <trkpt lat="41.44895" lon="0.89362">
        <ele>622.2</ele>
        <time>2022-05-23 20:50:45</time>
      </trkpt>
      <trkpt lat="41.44893" lon="0.89364">
        <ele>622.4</ele>
        <time>2022-05-23 20:50:46</time>
      </trkpt>
      <trkpt lat="41.44892" lon="0.89366">
        <ele>622.6</ele>
        <time>2022-05-23 20:50:47</time>
      </trkpt>
      <trkpt lat="41.4489" lon="0.89367">
        <ele>622.8</ele>
        <time>2022-05-23 20:50:48</time>
      </trkpt>
      <trkpt lat="41.44888" lon="0.89369">
        <ele>623</ele>
        <time>2022-05-23 20:50:49</time>
      </trkpt>
      <trkpt lat="41.44886" lon="0.89371">
        <ele>623.2</ele>
        <time>2022-05-23 20:50:50</time>
      </trkpt>
      <trkpt lat="41.44884" lon="0.89373">
        <ele>623.4</ele>
        <time>2022-05-23 20:50:51</time>
      </trkpt>
      <trkpt lat="41.44883" lon="0.89374">
        <ele>623.6</ele>
        <time>2022-05-23 20:50:52</time>
      </trkpt>
      <trkpt lat="41.44881" lon="0.89376">
        <ele>623.8</ele>
        <time>2022-05-23 20:50:53</time>
      </trkpt>
      <trkpt lat="41.4488" lon="0.89378">
        <ele>624</ele>
        <time>2022-05-23 20:50:54</time>
      </trkpt>
      <trkpt lat="41.44878" lon="0.8938">
        <ele>624.2</ele>
        <time>2022-05-23 20:50:55</time>
      </trkpt>
      <trkpt lat="41.44877" lon="0.89382">
        <ele>624.4</ele>
        <time>2022-05-23 20:50:56</time>
      </trkpt>
      <trkpt lat="41.44875" lon="0.89383">
        <ele>624.6</ele>
        <time>2022-05-23 20:50:57</time>
      </trkpt>
      <trkpt lat="41.44873" lon="0.89385">
        <ele>624.8</ele>
        <time>2022-05-23 20:50:58</time>
      </trkpt>
      <trkpt lat="41.44872" lon="0.89386">
        <ele>625</ele>
        <time>2022-05-23 20:50:59</time>
      </trkpt>
      <trkpt lat="41.4487" lon="0.89389">
        <ele>625.2</ele>
        <time>2022-05-23 20:51:00</time>
      </trkpt>
      <trkpt lat="41.44868" lon="0.8939">
        <ele>625.4</ele>
        <time>2022-05-23 20:51:01</time>
      </trkpt>
      <trkpt lat="41.44866" lon="0.89393">
        <ele>625.6</ele>
        <time>2022-05-23 20:51:02</time>
      </trkpt>
      <trkpt lat="41.44865" lon="0.89395">
        <ele>625.6</ele>
        <time>2022-05-23 20:51:03</time>
      </trkpt>
      <trkpt lat="41.44863" lon="0.89397">
        <ele>625.8</ele>
        <time>2022-05-23 20:51:04</time>
      </trkpt>
      <trkpt lat="41.44861" lon="0.89399">
        <ele>626</ele>
        <time>2022-05-23 20:51:05</time>
      </trkpt>
      <trkpt lat="41.44858" lon="0.894">
        <ele>626.2</ele>
        <time>2022-05-23 20:51:06</time>
      </trkpt>
      <trkpt lat="41.44857" lon="0.89402">
        <ele>626.4</ele>
        <time>2022-05-23 20:51:07</time>
      </trkpt>
      <trkpt lat="41.44855" lon="0.89404">
        <ele>626.6</ele>
        <time>2022-05-23 20:51:08</time>
      </trkpt>
      <trkpt lat="41.44852" lon="0.89406">
        <ele>626.8</ele>
        <time>2022-05-23 20:51:09</time>
      </trkpt>
      <trkpt lat="41.4485" lon="0.89408">
        <ele>626.8</ele>
        <time>2022-05-23 20:51:10</time>
      </trkpt>
      <trkpt lat="41.44848" lon="0.8941">
        <ele>627</ele>
        <time>2022-05-23 20:51:11</time>
      </trkpt>
      <trkpt lat="41.44845" lon="0.89411">
        <ele>627.2</ele>
        <time>2022-05-23 20:51:12</time>
      </trkpt>
      <trkpt lat="41.44843" lon="0.89413">
        <ele>627.4</ele>
        <time>2022-05-23 20:51:13</time>
      </trkpt>
      <trkpt lat="41.44841" lon="0.89415">
        <ele>627.6</ele>
        <time>2022-05-23 20:51:14</time>
      </trkpt>
      <trkpt lat="41.44838" lon="0.89416">
        <ele>627.8</ele>
        <time>2022-05-23 20:51:15</time>
      </trkpt>
      <trkpt lat="41.44836" lon="0.89418">
        <ele>628</ele>
        <time>2022-05-23 20:51:16</time>
      </trkpt>
      <trkpt lat="41.44833" lon="0.89419">
        <ele>628.2</ele>
        <time>2022-05-23 20:51:17</time>
      </trkpt>
      <trkpt lat="41.4483" lon="0.8942">
        <ele>628.4</ele>
        <time>2022-05-23 20:51:18</time>
      </trkpt>
      <trkpt lat="41.44827" lon="0.89421">
        <ele>628.4</ele>
        <time>2022-05-23 20:51:19</time>
      </trkpt>
      <trkpt lat="41.44825" lon="0.89422">
        <ele>628.6</ele>
        <time>2022-05-23 20:51:20</time>
      </trkpt>
      <trkpt lat="41.44822" lon="0.89423">
        <ele>628.8</ele>
        <time>2022-05-23 20:51:21</time>
      </trkpt>
      <trkpt lat="41.44819" lon="0.89424">
        <ele>629</ele>
        <time>2022-05-23 20:51:22</time>
      </trkpt>
      <trkpt lat="41.44816" lon="0.89425">
        <ele>629.2</ele>
        <time>2022-05-23 20:51:23</time>
      </trkpt>
      <trkpt lat="41.44814" lon="0.89426">
        <ele>629.2</ele>
        <time>2022-05-23 20:51:24</time>
      </trkpt>
      <trkpt lat="41.4481" lon="0.89427">
        <ele>629.6</ele>
        <time>2022-05-23 20:51:25</time>
      </trkpt>
      <trkpt lat="41.44808" lon="0.89428">
        <ele>629.6</ele>
        <time>2022-05-23 20:51:26</time>
      </trkpt>
      <trkpt lat="41.44805" lon="0.89429">
        <ele>629.8</ele>
        <time>2022-05-23 20:51:27</time>
      </trkpt>
      <trkpt lat="41.44802" lon="0.8943">
        <ele>630</ele>
        <time>2022-05-23 20:51:28</time>
      </trkpt>
      <trkpt lat="41.44799" lon="0.89431">
        <ele>630.2</ele>
        <time>2022-05-23 20:51:29</time>
      </trkpt>
      <trkpt lat="41.44796" lon="0.89431">
        <ele>630.4</ele>
        <time>2022-05-23 20:51:30</time>
      </trkpt>
      <trkpt lat="41.44793" lon="0.89432">
        <ele>630.6</ele>
        <time>2022-05-23 20:51:31</time>
      </trkpt>
      <trkpt lat="41.44791" lon="0.89432">
        <ele>630.6</ele>
        <time>2022-05-23 20:51:32</time>
      </trkpt>
      <trkpt lat="41.44787" lon="0.89432">
        <ele>630.8</ele>
        <time>2022-05-23 20:51:33</time>
      </trkpt>
      <trkpt lat="41.44784" lon="0.89432">
        <ele>631</ele>
        <time>2022-05-23 20:51:34</time>
      </trkpt>
      <trkpt lat="41.44781" lon="0.89432">
        <ele>631.2</ele>
        <time>2022-05-23 20:51:35</time>
      </trkpt>
      <trkpt lat="41.44778" lon="0.89432">
        <ele>631.4</ele>
        <time>2022-05-23 20:51:36</time>
      </trkpt>
      <trkpt lat="41.44775" lon="0.89432">
        <ele>631.6</ele>
        <time>2022-05-23 20:51:37</time>
      </trkpt>
      <trkpt lat="41.44772" lon="0.89432">
        <ele>631.8</ele>
        <time>2022-05-23 20:51:38</time>
      </trkpt>
      <trkpt lat="41.44768" lon="0.89432">
        <ele>632</ele>
        <time>2022-05-23 20:51:39</time>
      </trkpt>
      <trkpt lat="41.44765" lon="0.89431">
        <ele>632</ele>
        <time>2022-05-23 20:51:40</time>
      </trkpt>
      <trkpt lat="41.44762" lon="0.89431">
        <ele>632.4</ele>
        <time>2022-05-23 20:51:41</time>
      </trkpt>
      <trkpt lat="41.44759" lon="0.89429">
        <ele>632.6</ele>
        <time>2022-05-23 20:51:42</time>
      </trkpt>
      <trkpt lat="41.44756" lon="0.89429">
        <ele>632.8</ele>
        <time>2022-05-23 20:51:43</time>
      </trkpt>
      <trkpt lat="41.44753" lon="0.89428">
        <ele>632.8</ele>
        <time>2022-05-23 20:51:44</time>
      </trkpt>
      <trkpt lat="41.4475" lon="0.89427">
        <ele>633</ele>
        <time>2022-05-23 20:51:45</time>
      </trkpt>
      <trkpt lat="41.44747" lon="0.89426">
        <ele>633.2</ele>
        <time>2022-05-23 20:51:46</time>
      </trkpt>
      <trkpt lat="41.44744" lon="0.89424">
        <ele>633.4</ele>
        <time>2022-05-23 20:51:47</time>
      </trkpt>
      <trkpt lat="41.44741" lon="0.89423">
        <ele>633.6</ele>
        <time>2022-05-23 20:51:48</time>
      </trkpt>
      <trkpt lat="41.44738" lon="0.89422">
        <ele>633.8</ele>
        <time>2022-05-23 20:51:49</time>
      </trkpt>
      <trkpt lat="41.44735" lon="0.8942">
        <ele>634</ele>
        <time>2022-05-23 20:51:50</time>
      </trkpt>
      <trkpt lat="41.44732" lon="0.89419">
        <ele>634.2</ele>
        <time>2022-05-23 20:51:51</time>
      </trkpt>
      <trkpt lat="41.44729" lon="0.89417">
        <ele>634.4</ele>
        <time>2022-05-23 20:51:52</time>
      </trkpt>
      <trkpt lat="41.44726" lon="0.89416">
        <ele>634.6</ele>
        <time>2022-05-23 20:51:53</time>
      </trkpt>
      <trkpt lat="41.44723" lon="0.89414">
        <ele>634.6</ele>
        <time>2022-05-23 20:51:54</time>
      </trkpt>
      <trkpt lat="41.4472" lon="0.89412">
        <ele>634.8</ele>
        <time>2022-05-23 20:51:55</time>
      </trkpt>
      <trkpt lat="41.44718" lon="0.89411">
        <ele>635</ele>
        <time>2022-05-23 20:51:56</time>
      </trkpt>
      <trkpt lat="41.44715" lon="0.89409">
        <ele>635.2</ele>
        <time>2022-05-23 20:51:57</time>
      </trkpt>
      <trkpt lat="41.44712" lon="0.89407">
        <ele>635.2</ele>
        <time>2022-05-23 20:51:58</time>
      </trkpt>
      <trkpt lat="41.4471" lon="0.89405">
        <ele>635.4</ele>
        <time>2022-05-23 20:51:59</time>
      </trkpt>
      <trkpt lat="41.44707" lon="0.89403">
        <ele>635.6</ele>
        <time>2022-05-23 20:52:00</time>
      </trkpt>
      <trkpt lat="41.44705" lon="0.894">
        <ele>635.8</ele>
        <time>2022-05-23 20:52:01</time>
      </trkpt>
      <trkpt lat="41.44703" lon="0.89398">
        <ele>636</ele>
        <time>2022-05-23 20:52:02</time>
      </trkpt>
      <trkpt lat="41.44699" lon="0.89396">
        <ele>636</ele>
        <time>2022-05-23 20:52:03</time>
      </trkpt>
      <trkpt lat="41.44697" lon="0.89393">
        <ele>636.2</ele>
        <time>2022-05-23 20:52:04</time>
      </trkpt>
      <trkpt lat="41.44694" lon="0.89391">
        <ele>636.4</ele>
        <time>2022-05-23 20:52:05</time>
      </trkpt>
      <trkpt lat="41.44691" lon="0.89388">
        <ele>636.6</ele>
        <time>2022-05-23 20:52:06</time>
      </trkpt>
      <trkpt lat="41.44689" lon="0.89385">
        <ele>636.6</ele>
        <time>2022-05-23 20:52:07</time>
      </trkpt>
      <trkpt lat="41.44686" lon="0.89382">
        <ele>636.8</ele>
        <time>2022-05-23 20:52:08</time>
      </trkpt>
      <trkpt lat="41.44683" lon="0.89379">
        <ele>636.8</ele>
        <time>2022-05-23 20:52:09</time>
      </trkpt>
      <trkpt lat="41.4468" lon="0.89376">
        <ele>636.8</ele>
        <time>2022-05-23 20:52:10</time>
      </trkpt>
      <trkpt lat="41.44678" lon="0.89373">
        <ele>637</ele>
        <time>2022-05-23 20:52:11</time>
      </trkpt>
      <trkpt lat="41.44675" lon="0.89369">
        <ele>637</ele>
        <time>2022-05-23 20:52:12</time>
      </trkpt>
      <trkpt lat="41.44671" lon="0.89366">
        <ele>637</ele>
        <time>2022-05-23 20:52:13</time>
      </trkpt>
      <trkpt lat="41.44668" lon="0.89363">
        <ele>637</ele>
        <time>2022-05-23 20:52:14</time>
      </trkpt>
      <trkpt lat="41.44665" lon="0.89359">
        <ele>637.2</ele>
        <time>2022-05-23 20:52:15</time>
      </trkpt>
      <trkpt lat="41.44662" lon="0.89355">
        <ele>637.2</ele>
        <time>2022-05-23 20:52:16</time>
      </trkpt>
      <trkpt lat="41.44659" lon="0.89351">
        <ele>637.2</ele>
        <time>2022-05-23 20:52:17</time>
      </trkpt>
      <trkpt lat="41.44656" lon="0.89347">
        <ele>637.2</ele>
        <time>2022-05-23 20:52:18</time>
      </trkpt>
      <trkpt lat="41.44652" lon="0.89344">
        <ele>637.2</ele>
        <time>2022-05-23 20:52:19</time>
      </trkpt>
      <trkpt lat="41.44649" lon="0.8934">
        <ele>637.4</ele>
        <time>2022-05-23 20:52:20</time>
      </trkpt>
      <trkpt lat="41.44645" lon="0.89335">
        <ele>637.4</ele>
        <time>2022-05-23 20:52:21</time>
      </trkpt>
      <trkpt lat="41.44642" lon="0.89332">
        <ele>637.4</ele>
        <time>2022-05-23 20:52:22</time>
      </trkpt>
      <trkpt lat="41.44638" lon="0.89327">
        <ele>637.4</ele>
        <time>2022-05-23 20:52:23</time>
      </trkpt>
      <trkpt lat="41.44635" lon="0.89323">
        <ele>637.4</ele>
        <time>2022-05-23 20:52:24</time>
      </trkpt>
      <trkpt lat="41.44631" lon="0.89318">
        <ele>637.6</ele>
        <time>2022-05-23 20:52:25</time>
      </trkpt>
      <trkpt lat="41.44628" lon="0.89315">
        <ele>637.6</ele>
        <time>2022-05-23 20:52:26</time>
      </trkpt>
      <trkpt lat="41.44624" lon="0.8931">
        <ele>637.8</ele>
        <time>2022-05-23 20:52:27</time>
      </trkpt>
      <trkpt lat="41.4462" lon="0.89307">
        <ele>637.8</ele>
        <time>2022-05-23 20:52:28</time>
      </trkpt>
      <trkpt lat="41.44617" lon="0.89302">
        <ele>637.8</ele>
        <time>2022-05-23 20:52:29</time>
      </trkpt>
      <trkpt lat="41.44613" lon="0.89299">
        <ele>638</ele>
        <time>2022-05-23 20:52:30</time>
      </trkpt>
      <trkpt lat="41.44609" lon="0.89295">
        <ele>638</ele>
        <time>2022-05-23 20:52:31</time>
      </trkpt>
      <trkpt lat="41.44606" lon="0.89292">
        <ele>638</ele>
        <time>2022-05-23 20:52:32</time>
      </trkpt>
      <trkpt lat="41.44601" lon="0.89288">
        <ele>638.2</ele>
        <time>2022-05-23 20:52:33</time>
      </trkpt>
      <trkpt lat="41.44598" lon="0.89284">
        <ele>638.4</ele>
        <time>2022-05-23 20:52:34</time>
      </trkpt>
      <trkpt lat="41.44593" lon="0.8928">
        <ele>638.4</ele>
        <time>2022-05-23 20:52:35</time>
      </trkpt>
      <trkpt lat="41.44589" lon="0.89277">
        <ele>638.6</ele>
        <time>2022-05-23 20:52:36</time>
      </trkpt>
      <trkpt lat="41.44585" lon="0.89274">
        <ele>638.6</ele>
        <time>2022-05-23 20:52:37</time>
      </trkpt>
      <trkpt lat="41.44581" lon="0.8927">
        <ele>638.8</ele>
        <time>2022-05-23 20:52:38</time>
      </trkpt>
      <trkpt lat="41.44577" lon="0.89267">
        <ele>639</ele>
        <time>2022-05-23 20:52:39</time>
      </trkpt>
      <trkpt lat="41.44573" lon="0.89265">
        <ele>639</ele>
        <time>2022-05-23 20:52:40</time>
      </trkpt>
      <trkpt lat="41.44569" lon="0.89261">
        <ele>639.2</ele>
        <time>2022-05-23 20:52:41</time>
      </trkpt>
      <trkpt lat="41.44565" lon="0.89258">
        <ele>639.4</ele>
        <time>2022-05-23 20:52:42</time>
      </trkpt>
      <trkpt lat="41.4456" lon="0.89255">
        <ele>639.4</ele>
        <time>2022-05-23 20:52:43</time>
      </trkpt>
      <trkpt lat="41.44557" lon="0.89253">
        <ele>639.6</ele>
        <time>2022-05-23 20:52:44</time>
      </trkpt>
      <trkpt lat="41.44553" lon="0.89249">
        <ele>639.8</ele>
        <time>2022-05-23 20:52:45</time>
      </trkpt>
      <trkpt lat="41.44549" lon="0.89246">
        <ele>639.8</ele>
        <time>2022-05-23 20:52:46</time>
      </trkpt>
      <trkpt lat="41.44546" lon="0.89244">
        <ele>640</ele>
        <time>2022-05-23 20:52:47</time>
      </trkpt>
      <trkpt lat="41.44541" lon="0.89241">
        <ele>640.2</ele>
        <time>2022-05-23 20:52:48</time>
      </trkpt>
      <trkpt lat="41.44538" lon="0.89238">
        <ele>640.4</ele>
        <time>2022-05-23 20:52:49</time>
      </trkpt>
      <trkpt lat="41.44535" lon="0.89236">
        <ele>640.6</ele>
        <time>2022-05-23 20:52:50</time>
      </trkpt>
      <trkpt lat="41.44531" lon="0.89232">
        <ele>640.6</ele>
        <time>2022-05-23 20:52:51</time>
      </trkpt>
      <trkpt lat="41.44528" lon="0.8923">
        <ele>640.8</ele>
        <time>2022-05-23 20:52:52</time>
      </trkpt>
      <trkpt lat="41.44525" lon="0.89227">
        <ele>641</ele>
        <time>2022-05-23 20:52:53</time>
      </trkpt>
      <trkpt lat="41.44522" lon="0.89225">
        <ele>641.2</ele>
        <time>2022-05-23 20:52:54</time>
      </trkpt>
      <trkpt lat="41.44519" lon="0.89222">
        <ele>641.4</ele>
        <time>2022-05-23 20:52:55</time>
      </trkpt>
      <trkpt lat="41.44516" lon="0.8922">
        <ele>641.6</ele>
        <time>2022-05-23 20:52:56</time>
      </trkpt>
      <trkpt lat="41.44513" lon="0.89217">
        <ele>641.8</ele>
        <time>2022-05-23 20:52:57</time>
      </trkpt>
      <trkpt lat="41.4451" lon="0.89214">
        <ele>642</ele>
        <time>2022-05-23 20:52:58</time>
      </trkpt>
      <trkpt lat="41.44507" lon="0.89212">
        <ele>642.2</ele>
        <time>2022-05-23 20:52:59</time>
      </trkpt>
      <trkpt lat="41.44504" lon="0.89209">
        <ele>642.2</ele>
        <time>2022-05-23 20:53:00</time>
      </trkpt>
      <trkpt lat="41.44502" lon="0.89207">
        <ele>642.4</ele>
        <time>2022-05-23 20:53:01</time>
      </trkpt>
      <trkpt lat="41.445" lon="0.89205">
        <ele>642.6</ele>
        <time>2022-05-23 20:53:02</time>
      </trkpt>
      <trkpt lat="41.44497" lon="0.89202">
        <ele>642.8</ele>
        <time>2022-05-23 20:53:03</time>
      </trkpt>
      <trkpt lat="41.44494" lon="0.89199">
        <ele>643</ele>
        <time>2022-05-23 20:53:04</time>
      </trkpt>
      <trkpt lat="41.44492" lon="0.89197">
        <ele>643.2</ele>
        <time>2022-05-23 20:53:05</time>
      </trkpt>
      <trkpt lat="41.44489" lon="0.89194">
        <ele>643.4</ele>
        <time>2022-05-23 20:53:06</time>
      </trkpt>
      <trkpt lat="41.44487" lon="0.89191">
        <ele>643.6</ele>
        <time>2022-05-23 20:53:07</time>
      </trkpt>
      <trkpt lat="41.44485" lon="0.89189">
        <ele>643.8</ele>
        <time>2022-05-23 20:53:08</time>
      </trkpt>
      <trkpt lat="41.44482" lon="0.89185">
        <ele>644</ele>
        <time>2022-05-23 20:53:09</time>
      </trkpt>
      <trkpt lat="41.4448" lon="0.89182">
        <ele>644.2</ele>
        <time>2022-05-23 20:53:10</time>
      </trkpt>
      <trkpt lat="41.44478" lon="0.8918">
        <ele>644.4</ele>
        <time>2022-05-23 20:53:11</time>
      </trkpt>
      <trkpt lat="41.44475" lon="0.89177">
        <ele>644.6</ele>
        <time>2022-05-23 20:53:12</time>
      </trkpt>
      <trkpt lat="41.44473" lon="0.89174">
        <ele>644.8</ele>
        <time>2022-05-23 20:53:13</time>
      </trkpt>
      <trkpt lat="41.44471" lon="0.89172">
        <ele>645</ele>
        <time>2022-05-23 20:53:14</time>
      </trkpt>
      <trkpt lat="41.44469" lon="0.89169">
        <ele>645.2</ele>
        <time>2022-05-23 20:53:15</time>
      </trkpt>
      <trkpt lat="41.44467" lon="0.89166">
        <ele>645.4</ele>
        <time>2022-05-23 20:53:16</time>
      </trkpt>
      <trkpt lat="41.44464" lon="0.89163">
        <ele>645.6</ele>
        <time>2022-05-23 20:53:17</time>
      </trkpt>
      <trkpt lat="41.44463" lon="0.8916">
        <ele>645.8</ele>
        <time>2022-05-23 20:53:18</time>
      </trkpt>
      <trkpt lat="41.44461" lon="0.89156">
        <ele>646</ele>
        <time>2022-05-23 20:53:19</time>
      </trkpt>
      <trkpt lat="41.44459" lon="0.89153">
        <ele>646.2</ele>
        <time>2022-05-23 20:53:20</time>
      </trkpt>
      <trkpt lat="41.44457" lon="0.8915">
        <ele>646.4</ele>
        <time>2022-05-23 20:53:21</time>
      </trkpt>
      <trkpt lat="41.44455" lon="0.89146">
        <ele>646.6</ele>
        <time>2022-05-23 20:53:22</time>
      </trkpt>
      <trkpt lat="41.44453" lon="0.89143">
        <ele>646.6</ele>
        <time>2022-05-23 20:53:23</time>
      </trkpt>
      <trkpt lat="41.44452" lon="0.8914">
        <ele>646.8</ele>
        <time>2022-05-23 20:53:24</time>
      </trkpt>
      <trkpt lat="41.4445" lon="0.89136">
        <ele>647</ele>
        <time>2022-05-23 20:53:25</time>
      </trkpt>
      <trkpt lat="41.44448" lon="0.89132">
        <ele>647.2</ele>
        <time>2022-05-23 20:53:26</time>
      </trkpt>
      <trkpt lat="41.44447" lon="0.89129">
        <ele>647.2</ele>
        <time>2022-05-23 20:53:27</time>
      </trkpt>
      <trkpt lat="41.44445" lon="0.89126">
        <ele>647.6</ele>
        <time>2022-05-23 20:53:28</time>
      </trkpt>
      <trkpt lat="41.44443" lon="0.89122">
        <ele>647.6</ele>
        <time>2022-05-23 20:53:29</time>
      </trkpt>
      <trkpt lat="41.44442" lon="0.8912">
        <ele>647.8</ele>
        <time>2022-05-23 20:53:30</time>
      </trkpt>
      <trkpt lat="41.4444" lon="0.89116">
        <ele>648</ele>
        <time>2022-05-23 20:53:31</time>
      </trkpt>
      <trkpt lat="41.44438" lon="0.89113">
        <ele>648.2</ele>
        <time>2022-05-23 20:53:32</time>
      </trkpt>
      <trkpt lat="41.44436" lon="0.8911">
        <ele>648.4</ele>
        <time>2022-05-23 20:53:33</time>
      </trkpt>
      <trkpt lat="41.44435" lon="0.89108">
        <ele>648.6</ele>
        <time>2022-05-23 20:53:34</time>
      </trkpt>
      <trkpt lat="41.44432" lon="0.89105">
        <ele>648.8</ele>
        <time>2022-05-23 20:53:35</time>
      </trkpt>
      <trkpt lat="41.4443" lon="0.89102">
        <ele>648.8</ele>
        <time>2022-05-23 20:53:36</time>
      </trkpt>
      <trkpt lat="41.44428" lon="0.891">
        <ele>649</ele>
        <time>2022-05-23 20:53:37</time>
      </trkpt>
      <trkpt lat="41.44427" lon="0.89098">
        <ele>649.2</ele>
        <time>2022-05-23 20:53:38</time>
      </trkpt>
      <trkpt lat="41.44424" lon="0.89096">
        <ele>649.4</ele>
        <time>2022-05-23 20:53:39</time>
      </trkpt>
      <trkpt lat="41.44422" lon="0.89094">
        <ele>649.6</ele>
        <time>2022-05-23 20:53:40</time>
      </trkpt>
      <trkpt lat="41.44419" lon="0.89092">
        <ele>649.8</ele>
        <time>2022-05-23 20:53:41</time>
      </trkpt>
      <trkpt lat="41.44417" lon="0.8909">
        <ele>650</ele>
        <time>2022-05-23 20:53:42</time>
      </trkpt>
      <trkpt lat="41.44414" lon="0.89088">
        <ele>650.2</ele>
        <time>2022-05-23 20:53:43</time>
      </trkpt>
      <trkpt lat="41.44412" lon="0.89087">
        <ele>650.4</ele>
        <time>2022-05-23 20:53:44</time>
      </trkpt>
      <trkpt lat="41.44409" lon="0.89086">
        <ele>650.6</ele>
        <time>2022-05-23 20:53:45</time>
      </trkpt>
      <trkpt lat="41.44407" lon="0.89084">
        <ele>650.6</ele>
        <time>2022-05-23 20:53:46</time>
      </trkpt>
      <trkpt lat="41.44404" lon="0.89083">
        <ele>650.8</ele>
        <time>2022-05-23 20:53:47</time>
      </trkpt>
      <trkpt lat="41.44401" lon="0.89081">
        <ele>651</ele>
        <time>2022-05-23 20:53:48</time>
      </trkpt>
      <trkpt lat="41.44398" lon="0.8908">
        <ele>651.2</ele>
        <time>2022-05-23 20:53:49</time>
      </trkpt>
      <trkpt lat="41.44396" lon="0.89078">
        <ele>651.2</ele>
        <time>2022-05-23 20:53:50</time>
      </trkpt>
      <trkpt lat="41.44393" lon="0.89077">
        <ele>651.4</ele>
        <time>2022-05-23 20:53:51</time>
      </trkpt>
      <trkpt lat="41.4439" lon="0.89075">
        <ele>651.6</ele>
        <time>2022-05-23 20:53:52</time>
      </trkpt>
      <trkpt lat="41.44388" lon="0.89074">
        <ele>651.6</ele>
        <time>2022-05-23 20:53:53</time>
      </trkpt>
      <trkpt lat="41.44386" lon="0.89073">
        <ele>651.8</ele>
        <time>2022-05-23 20:53:54</time>
      </trkpt>
      <trkpt lat="41.44382" lon="0.89071">
        <ele>652</ele>
        <time>2022-05-23 20:53:55</time>
      </trkpt>
      <trkpt lat="41.44379" lon="0.89069">
        <ele>652.2</ele>
        <time>2022-05-23 20:53:56</time>
      </trkpt>
      <trkpt lat="41.44377" lon="0.89068">
        <ele>652.4</ele>
        <time>2022-05-23 20:53:57</time>
      </trkpt>
      <trkpt lat="41.44374" lon="0.89067">
        <ele>652.4</ele>
        <time>2022-05-23 20:53:58</time>
      </trkpt>
      <trkpt lat="41.44371" lon="0.89066">
        <ele>652.6</ele>
        <time>2022-05-23 20:53:59</time>
      </trkpt>
      <trkpt lat="41.44368" lon="0.89065">
        <ele>652.8</ele>
        <time>2022-05-23 20:54:00</time>
      </trkpt>
      <trkpt lat="41.44364" lon="0.89064">
        <ele>653</ele>
        <time>2022-05-23 20:54:01</time>
      </trkpt>
      <trkpt lat="41.44361" lon="0.89063">
        <ele>653.2</ele>
        <time>2022-05-23 20:54:02</time>
      </trkpt>
      <trkpt lat="41.44359" lon="0.89062">
        <ele>653.4</ele>
        <time>2022-05-23 20:54:03</time>
      </trkpt>
      <trkpt lat="41.44355" lon="0.89061">
        <ele>653.6</ele>
        <time>2022-05-23 20:54:04</time>
      </trkpt>
      <trkpt lat="41.44352" lon="0.8906">
        <ele>653.6</ele>
        <time>2022-05-23 20:54:05</time>
      </trkpt>
      <trkpt lat="41.44349" lon="0.8906">
        <ele>653.8</ele>
        <time>2022-05-23 20:54:06</time>
      </trkpt>
      <trkpt lat="41.44346" lon="0.89059">
        <ele>654</ele>
        <time>2022-05-23 20:54:07</time>
      </trkpt>
      <trkpt lat="41.44342" lon="0.89058">
        <ele>654.2</ele>
        <time>2022-05-23 20:54:08</time>
      </trkpt>
      <trkpt lat="41.4434" lon="0.89058">
        <ele>654.2</ele>
        <time>2022-05-23 20:54:09</time>
      </trkpt>
      <trkpt lat="41.44335" lon="0.89058">
        <ele>654.4</ele>
        <time>2022-05-23 20:54:10</time>
      </trkpt>
      <trkpt lat="41.44332" lon="0.89058">
        <ele>654.6</ele>
        <time>2022-05-23 20:54:11</time>
      </trkpt>
      <trkpt lat="41.44329" lon="0.89058">
        <ele>654.8</ele>
        <time>2022-05-23 20:54:12</time>
      </trkpt>
      <trkpt lat="41.44326" lon="0.89058">
        <ele>654.8</ele>
        <time>2022-05-23 20:54:13</time>
      </trkpt>
      <trkpt lat="41.44323" lon="0.89058">
        <ele>655</ele>
        <time>2022-05-23 20:54:14</time>
      </trkpt>
      <trkpt lat="41.4432" lon="0.89059">
        <ele>655.2</ele>
        <time>2022-05-23 20:54:15</time>
      </trkpt>
      <trkpt lat="41.44316" lon="0.8906">
        <ele>655.4</ele>
        <time>2022-05-23 20:54:16</time>
      </trkpt>
      <trkpt lat="41.44313" lon="0.8906">
        <ele>655.6</ele>
        <time>2022-05-23 20:54:17</time>
      </trkpt>
      <trkpt lat="41.4431" lon="0.89061">
        <ele>655.8</ele>
        <time>2022-05-23 20:54:18</time>
      </trkpt>
      <trkpt lat="41.44306" lon="0.89062">
        <ele>656</ele>
        <time>2022-05-23 20:54:19</time>
      </trkpt>
      <trkpt lat="41.44303" lon="0.89063">
        <ele>656.2</ele>
        <time>2022-05-23 20:54:20</time>
      </trkpt>
      <trkpt lat="41.44301" lon="0.89063">
        <ele>656.4</ele>
        <time>2022-05-23 20:54:21</time>
      </trkpt>
      <trkpt lat="41.44297" lon="0.89065">
        <ele>656.6</ele>
        <time>2022-05-23 20:54:22</time>
      </trkpt>
      <trkpt lat="41.44294" lon="0.89066">
        <ele>656.8</ele>
        <time>2022-05-23 20:54:23</time>
      </trkpt>
      <trkpt lat="41.44291" lon="0.89067">
        <ele>656.8</ele>
        <time>2022-05-23 20:54:24</time>
      </trkpt>
      <trkpt lat="41.44288" lon="0.89068">
        <ele>657</ele>
        <time>2022-05-23 20:54:25</time>
      </trkpt>
      <trkpt lat="41.44285" lon="0.89069">
        <ele>657.2</ele>
        <time>2022-05-23 20:54:26</time>
      </trkpt>
      <trkpt lat="41.44283" lon="0.8907">
        <ele>657.4</ele>
        <time>2022-05-23 20:54:27</time>
      </trkpt>
      <trkpt lat="41.4428" lon="0.89071">
        <ele>657.6</ele>
        <time>2022-05-23 20:54:28</time>
      </trkpt>
      <trkpt lat="41.44278" lon="0.89072">
        <ele>657.8</ele>
        <time>2022-05-23 20:54:29</time>
      </trkpt>
      <trkpt lat="41.44274" lon="0.89073">
        <ele>657.8</ele>
        <time>2022-05-23 20:54:30</time>
      </trkpt>
      <trkpt lat="41.44272" lon="0.89074">
        <ele>658</ele>
        <time>2022-05-23 20:54:31</time>
      </trkpt>
      <trkpt lat="41.44269" lon="0.89075">
        <ele>658.2</ele>
        <time>2022-05-23 20:54:32</time>
      </trkpt>
      <trkpt lat="41.44266" lon="0.89076">
        <ele>658.4</ele>
        <time>2022-05-23 20:54:33</time>
      </trkpt>
      <trkpt lat="41.44263" lon="0.89076">
        <ele>658.6</ele>
        <time>2022-05-23 20:54:34</time>
      </trkpt>
      <trkpt lat="41.4426" lon="0.89076">
        <ele>658.8</ele>
        <time>2022-05-23 20:54:35</time>
      </trkpt>
      <trkpt lat="41.44256" lon="0.89076">
        <ele>659</ele>
        <time>2022-05-23 20:54:36</time>
      </trkpt>
      <trkpt lat="41.44253" lon="0.89076">
        <ele>659.2</ele>
        <time>2022-05-23 20:54:37</time>
      </trkpt>
      <trkpt lat="41.4425" lon="0.89076">
        <ele>659.2</ele>
        <time>2022-05-23 20:54:38</time>
      </trkpt>
      <trkpt lat="41.44247" lon="0.89075">
        <ele>659.4</ele>
        <time>2022-05-23 20:54:39</time>
      </trkpt>
      <trkpt lat="41.44245" lon="0.89074">
        <ele>659.6</ele>
        <time>2022-05-23 20:54:40</time>
      </trkpt>
      <trkpt lat="41.44242" lon="0.89072">
        <ele>659.8</ele>
        <time>2022-05-23 20:54:41</time>
      </trkpt>
      <trkpt lat="41.44239" lon="0.8907">
        <ele>660</ele>
        <time>2022-05-23 20:54:42</time>
      </trkpt>
      <trkpt lat="41.44237" lon="0.89068">
        <ele>660.2</ele>
        <time>2022-05-23 20:54:43</time>
      </trkpt>
      <trkpt lat="41.44234" lon="0.89065">
        <ele>660.4</ele>
        <time>2022-05-23 20:54:44</time>
      </trkpt>
      <trkpt lat="41.44232" lon="0.89062">
        <ele>660.6</ele>
        <time>2022-05-23 20:54:45</time>
      </trkpt>
      <trkpt lat="41.44231" lon="0.89058">
        <ele>660.8</ele>
        <time>2022-05-23 20:54:46</time>
      </trkpt>
      <trkpt lat="41.44229" lon="0.89053">
        <ele>660.8</ele>
        <time>2022-05-23 20:54:47</time>
      </trkpt>
      <trkpt lat="41.44227" lon="0.89049">
        <ele>660.8</ele>
        <time>2022-05-23 20:54:48</time>
      </trkpt>
      <trkpt lat="41.44226" lon="0.89045">
        <ele>661</ele>
        <time>2022-05-23 20:54:49</time>
      </trkpt>
      <trkpt lat="41.44225" lon="0.89039">
        <ele>661</ele>
        <time>2022-05-23 20:54:50</time>
      </trkpt>
      <trkpt lat="41.44224" lon="0.89034">
        <ele>661</ele>
        <time>2022-05-23 20:54:51</time>
      </trkpt>
      <trkpt lat="41.44225" lon="0.89029">
        <ele>661</ele>
        <time>2022-05-23 20:54:52</time>
      </trkpt>
      <trkpt lat="41.44225" lon="0.89022">
        <ele>661</ele>
        <time>2022-05-23 20:54:53</time>
      </trkpt>
      <trkpt lat="41.44225" lon="0.89017">
        <ele>661</ele>
        <time>2022-05-23 20:54:54</time>
      </trkpt>
      <trkpt lat="41.44226" lon="0.89013">
        <ele>661</ele>
        <time>2022-05-23 20:54:55</time>
      </trkpt>
      <trkpt lat="41.44227" lon="0.89006">
        <ele>661</ele>
        <time>2022-05-23 20:54:56</time>
      </trkpt>
      <trkpt lat="41.44228" lon="0.89">
        <ele>661</ele>
        <time>2022-05-23 20:54:57</time>
      </trkpt>
      <trkpt lat="41.44229" lon="0.88996">
        <ele>661</ele>
        <time>2022-05-23 20:54:58</time>
      </trkpt>
      <trkpt lat="41.4423" lon="0.88989">
        <ele>661</ele>
        <time>2022-05-23 20:54:59</time>
      </trkpt>
      <trkpt lat="41.44231" lon="0.88983">
        <ele>661</ele>
        <time>2022-05-23 20:55:00</time>
      </trkpt>
      <trkpt lat="41.44232" lon="0.88979">
        <ele>661</ele>
        <time>2022-05-23 20:55:01</time>
      </trkpt>
      <trkpt lat="41.44234" lon="0.88972">
        <ele>661.2</ele>
        <time>2022-05-23 20:55:02</time>
      </trkpt>
      <trkpt lat="41.44235" lon="0.88966">
        <ele>661.2</ele>
        <time>2022-05-23 20:55:03</time>
      </trkpt>
      <trkpt lat="41.44236" lon="0.88961">
        <ele>661.2</ele>
        <time>2022-05-23 20:55:04</time>
      </trkpt>
      <trkpt lat="41.44238" lon="0.88955">
        <ele>661.4</ele>
        <time>2022-05-23 20:55:05</time>
      </trkpt>
      <trkpt lat="41.44239" lon="0.88949">
        <ele>661.4</ele>
        <time>2022-05-23 20:55:06</time>
      </trkpt>
      <trkpt lat="41.4424" lon="0.88944">
        <ele>661.4</ele>
        <time>2022-05-23 20:55:07</time>
      </trkpt>
      <trkpt lat="41.44241" lon="0.88937">
        <ele>661.4</ele>
        <time>2022-05-23 20:55:08</time>
      </trkpt>
      <trkpt lat="41.44242" lon="0.88931">
        <ele>661.6</ele>
        <time>2022-05-23 20:55:09</time>
      </trkpt>
      <trkpt lat="41.44244" lon="0.88924">
        <ele>661.6</ele>
        <time>2022-05-23 20:55:10</time>
      </trkpt>
      <trkpt lat="41.44245" lon="0.88919">
        <ele>661.6</ele>
        <time>2022-05-23 20:55:11</time>
      </trkpt>
      <trkpt lat="41.44246" lon="0.88911">
        <ele>661.4</ele>
        <time>2022-05-23 20:55:12</time>
      </trkpt>
      <trkpt lat="41.44247" lon="0.88905">
        <ele>661.6</ele>
        <time>2022-05-23 20:55:13</time>
      </trkpt>
      <trkpt lat="41.44248" lon="0.88898">
        <ele>661.6</ele>
        <time>2022-05-23 20:55:14</time>
      </trkpt>
      <trkpt lat="41.44249" lon="0.88892">
        <ele>661.4</ele>
        <time>2022-05-23 20:55:15</time>
      </trkpt>
      <trkpt lat="41.44249" lon="0.88885">
        <ele>661.4</ele>
        <time>2022-05-23 20:55:16</time>
      </trkpt>
      <trkpt lat="41.44249" lon="0.8888">
        <ele>661.6</ele>
        <time>2022-05-23 20:55:17</time>
      </trkpt>
      <trkpt lat="41.44249" lon="0.88871">
        <ele>661.6</ele>
        <time>2022-05-23 20:55:18</time>
      </trkpt>
      <trkpt lat="41.4425" lon="0.88866">
        <ele>661.6</ele>
        <time>2022-05-23 20:55:19</time>
      </trkpt>
      <trkpt lat="41.4425" lon="0.88858">
        <ele>661.6</ele>
        <time>2022-05-23 20:55:20</time>
      </trkpt>
      <trkpt lat="41.4425" lon="0.88852">
        <ele>661.6</ele>
        <time>2022-05-23 20:55:21</time>
      </trkpt>
      <trkpt lat="41.44249" lon="0.88844">
        <ele>661.6</ele>
        <time>2022-05-23 20:55:22</time>
      </trkpt>
      <trkpt lat="41.44249" lon="0.88838">
        <ele>661.6</ele>
        <time>2022-05-23 20:55:23</time>
      </trkpt>
      <trkpt lat="41.44249" lon="0.8883">
        <ele>661.6</ele>
        <time>2022-05-23 20:55:24</time>
      </trkpt>
      <trkpt lat="41.4425" lon="0.88824">
        <ele>661.6</ele>
        <time>2022-05-23 20:55:25</time>
      </trkpt>
      <trkpt lat="41.4425" lon="0.88816">
        <ele>661.8</ele>
        <time>2022-05-23 20:55:26</time>
      </trkpt>
      <trkpt lat="41.4425" lon="0.8881">
        <ele>661.8</ele>
        <time>2022-05-23 20:55:27</time>
      </trkpt>
      <trkpt lat="41.4425" lon="0.88803">
        <ele>662</ele>
        <time>2022-05-23 20:55:28</time>
      </trkpt>
      <trkpt lat="41.4425" lon="0.88797">
        <ele>662</ele>
        <time>2022-05-23 20:55:29</time>
      </trkpt>
      <trkpt lat="41.4425" lon="0.8879">
        <ele>662.2</ele>
        <time>2022-05-23 20:55:30</time>
      </trkpt>
      <trkpt lat="41.4425" lon="0.88785">
        <ele>662.2</ele>
        <time>2022-05-23 20:55:31</time>
      </trkpt>
      <trkpt lat="41.44249" lon="0.88778">
        <ele>662.4</ele>
        <time>2022-05-23 20:55:32</time>
      </trkpt>
      <trkpt lat="41.44249" lon="0.88773">
        <ele>662.6</ele>
        <time>2022-05-23 20:55:33</time>
      </trkpt>
      <trkpt lat="41.44247" lon="0.88767">
        <ele>662.6</ele>
        <time>2022-05-23 20:55:34</time>
      </trkpt>
      <trkpt lat="41.44246" lon="0.88762">
        <ele>662.8</ele>
        <time>2022-05-23 20:55:35</time>
      </trkpt>
      <trkpt lat="41.44244" lon="0.88758">
        <ele>663</ele>
        <time>2022-05-23 20:55:36</time>
      </trkpt>
      <trkpt lat="41.44241" lon="0.88752">
        <ele>663.2</ele>
        <time>2022-05-23 20:55:37</time>
      </trkpt>
      <trkpt lat="41.44239" lon="0.88748">
        <ele>663.2</ele>
        <time>2022-05-23 20:55:38</time>
      </trkpt>
      <trkpt lat="41.44235" lon="0.88742">
        <ele>663.4</ele>
        <time>2022-05-23 20:55:39</time>
      </trkpt>
      <trkpt lat="41.44232" lon="0.88739">
        <ele>663.4</ele>
        <time>2022-05-23 20:55:40</time>
      </trkpt>
      <trkpt lat="41.44228" lon="0.88734">
        <ele>663.6</ele>
        <time>2022-05-23 20:55:41</time>
      </trkpt>
      <trkpt lat="41.44225" lon="0.88731">
        <ele>663.6</ele>
        <time>2022-05-23 20:55:42</time>
      </trkpt>
      <trkpt lat="41.4422" lon="0.88727">
        <ele>663.6</ele>
        <time>2022-05-23 20:55:43</time>
      </trkpt>
      <trkpt lat="41.44217" lon="0.88724">
        <ele>663.8</ele>
        <time>2022-05-23 20:55:44</time>
      </trkpt>
      <trkpt lat="41.44212" lon="0.88719">
        <ele>663.8</ele>
        <time>2022-05-23 20:55:45</time>
      </trkpt>
      <trkpt lat="41.44209" lon="0.88716">
        <ele>664</ele>
        <time>2022-05-23 20:55:46</time>
      </trkpt>
      <trkpt lat="41.44204" lon="0.88712">
        <ele>664</ele>
        <time>2022-05-23 20:55:47</time>
      </trkpt>
      <trkpt lat="41.44201" lon="0.88709">
        <ele>664</ele>
        <time>2022-05-23 20:55:48</time>
      </trkpt>
      <trkpt lat="41.44197" lon="0.88706">
        <ele>664.2</ele>
        <time>2022-05-23 20:55:49</time>
      </trkpt>
      <trkpt lat="41.44191" lon="0.88701">
        <ele>664.2</ele>
        <time>2022-05-23 20:55:50</time>
      </trkpt>
      <trkpt lat="41.44187" lon="0.88698">
        <ele>664.2</ele>
        <time>2022-05-23 20:55:51</time>
      </trkpt>
      <trkpt lat="41.44184" lon="0.88694">
        <ele>664.4</ele>
        <time>2022-05-23 20:55:52</time>
      </trkpt>
      <trkpt lat="41.4418" lon="0.88691">
        <ele>664.6</ele>
        <time>2022-05-23 20:55:53</time>
      </trkpt>
      <trkpt lat="41.44176" lon="0.88688">
        <ele>664.6</ele>
        <time>2022-05-23 20:55:54</time>
      </trkpt>
      <trkpt lat="41.44172" lon="0.88686">
        <ele>664.8</ele>
        <time>2022-05-23 20:55:55</time>
      </trkpt>
      <trkpt lat="41.44168" lon="0.88683">
        <ele>665</ele>
        <time>2022-05-23 20:55:56</time>
      </trkpt>
      <trkpt lat="41.44165" lon="0.88681">
        <ele>665</ele>
        <time>2022-05-23 20:55:57</time>
      </trkpt>
      <trkpt lat="41.44161" lon="0.88679">
        <ele>665.2</ele>
        <time>2022-05-23 20:55:58</time>
      </trkpt>
      <trkpt lat="41.44157" lon="0.88677">
        <ele>665.4</ele>
        <time>2022-05-23 20:55:59</time>
      </trkpt>
      <trkpt lat="41.44153" lon="0.88675">
        <ele>665.6</ele>
        <time>2022-05-23 20:56:00</time>
      </trkpt>
      <trkpt lat="41.44149" lon="0.88673">
        <ele>665.8</ele>
        <time>2022-05-23 20:56:01</time>
      </trkpt>
      <trkpt lat="41.44145" lon="0.88671">
        <ele>666</ele>
        <time>2022-05-23 20:56:02</time>
      </trkpt>
      <trkpt lat="41.44142" lon="0.88669">
        <ele>666.2</ele>
        <time>2022-05-23 20:56:03</time>
      </trkpt>
      <trkpt lat="41.44138" lon="0.88668">
        <ele>666.4</ele>
        <time>2022-05-23 20:56:04</time>
      </trkpt>
      <trkpt lat="41.44134" lon="0.88667">
        <ele>666.4</ele>
        <time>2022-05-23 20:56:05</time>
      </trkpt>
      <trkpt lat="41.4413" lon="0.88666">
        <ele>666.6</ele>
        <time>2022-05-23 20:56:06</time>
      </trkpt>
      <trkpt lat="41.44127" lon="0.88665">
        <ele>666.8</ele>
        <time>2022-05-23 20:56:07</time>
      </trkpt>
      <trkpt lat="41.44122" lon="0.88664">
        <ele>667</ele>
        <time>2022-05-23 20:56:08</time>
      </trkpt>
      <trkpt lat="41.44119" lon="0.88664">
        <ele>667</ele>
        <time>2022-05-23 20:56:09</time>
      </trkpt>
      <trkpt lat="41.44114" lon="0.88663">
        <ele>667.2</ele>
        <time>2022-05-23 20:56:10</time>
      </trkpt>
      <trkpt lat="41.4411" lon="0.88663">
        <ele>667.2</ele>
        <time>2022-05-23 20:56:11</time>
      </trkpt>
      <trkpt lat="41.44106" lon="0.88662">
        <ele>667.4</ele>
        <time>2022-05-23 20:56:12</time>
      </trkpt>
      <trkpt lat="41.44102" lon="0.88662">
        <ele>667.6</ele>
        <time>2022-05-23 20:56:13</time>
      </trkpt>
      <trkpt lat="41.44098" lon="0.88661">
        <ele>667.6</ele>
        <time>2022-05-23 20:56:14</time>
      </trkpt>
      <trkpt lat="41.44094" lon="0.88661">
        <ele>667.8</ele>
        <time>2022-05-23 20:56:15</time>
      </trkpt>
      <trkpt lat="41.4409" lon="0.8866">
        <ele>667.8</ele>
        <time>2022-05-23 20:56:16</time>
      </trkpt>
      <trkpt lat="41.44086" lon="0.8866">
        <ele>668</ele>
        <time>2022-05-23 20:56:17</time>
      </trkpt>
      <trkpt lat="41.44081" lon="0.88659">
        <ele>668</ele>
        <time>2022-05-23 20:56:18</time>
      </trkpt>
      <trkpt lat="41.44077" lon="0.88659">
        <ele>668</ele>
        <time>2022-05-23 20:56:19</time>
      </trkpt>
      <trkpt lat="41.44073" lon="0.88658">
        <ele>668</ele>
        <time>2022-05-23 20:56:20</time>
      </trkpt>
      <trkpt lat="41.44068" lon="0.88657">
        <ele>668</ele>
        <time>2022-05-23 20:56:21</time>
      </trkpt>
      <trkpt lat="41.44064" lon="0.88657">
        <ele>668.2</ele>
        <time>2022-05-23 20:56:22</time>
      </trkpt>
      <trkpt lat="41.4406" lon="0.88656">
        <ele>668.2</ele>
        <time>2022-05-23 20:56:23</time>
      </trkpt>
      <trkpt lat="41.44055" lon="0.88656">
        <ele>668.2</ele>
        <time>2022-05-23 20:56:24</time>
      </trkpt>
      <trkpt lat="41.44051" lon="0.88656">
        <ele>668.2</ele>
        <time>2022-05-23 20:56:25</time>
      </trkpt>
      <trkpt lat="41.44047" lon="0.88655">
        <ele>668.4</ele>
        <time>2022-05-23 20:56:26</time>
      </trkpt>
      <trkpt lat="41.44043" lon="0.88655">
        <ele>668.4</ele>
        <time>2022-05-23 20:56:27</time>
      </trkpt>
      <trkpt lat="41.44038" lon="0.88654">
        <ele>668.4</ele>
        <time>2022-05-23 20:56:28</time>
      </trkpt>
      <trkpt lat="41.44034" lon="0.88654">
        <ele>668.4</ele>
        <time>2022-05-23 20:56:29</time>
      </trkpt>
      <trkpt lat="41.44029" lon="0.88653">
        <ele>668.4</ele>
        <time>2022-05-23 20:56:30</time>
      </trkpt>
      <trkpt lat="41.44025" lon="0.88653">
        <ele>668.4</ele>
        <time>2022-05-23 20:56:31</time>
      </trkpt>
      <trkpt lat="41.44021" lon="0.88652">
        <ele>668.6</ele>
        <time>2022-05-23 20:56:32</time>
      </trkpt>
      <trkpt lat="41.44016" lon="0.88652">
        <ele>668.6</ele>
        <time>2022-05-23 20:56:33</time>
      </trkpt>
      <trkpt lat="41.44012" lon="0.88651">
        <ele>668.6</ele>
        <time>2022-05-23 20:56:34</time>
      </trkpt>
      <trkpt lat="41.44007" lon="0.88651">
        <ele>668.8</ele>
        <time>2022-05-23 20:56:35</time>
      </trkpt>
      <trkpt lat="41.44004" lon="0.8865">
        <ele>668.8</ele>
        <time>2022-05-23 20:56:36</time>
      </trkpt>
      <trkpt lat="41.43999" lon="0.8865">
        <ele>668.8</ele>
        <time>2022-05-23 20:56:37</time>
      </trkpt>
      <trkpt lat="41.43995" lon="0.88649">
        <ele>669</ele>
        <time>2022-05-23 20:56:38</time>
      </trkpt>
      <trkpt lat="41.43991" lon="0.88649">
        <ele>669</ele>
        <time>2022-05-23 20:56:39</time>
      </trkpt>
      <trkpt lat="41.43987" lon="0.88648">
        <ele>669</ele>
        <time>2022-05-23 20:56:40</time>
      </trkpt>
      <trkpt lat="41.43982" lon="0.88647">
        <ele>669.2</ele>
        <time>2022-05-23 20:56:41</time>
      </trkpt>
      <trkpt lat="41.43978" lon="0.88647">
        <ele>669.2</ele>
        <time>2022-05-23 20:56:42</time>
      </trkpt>
      <trkpt lat="41.43974" lon="0.88647">
        <ele>669.2</ele>
        <time>2022-05-23 20:56:43</time>
      </trkpt>
      <trkpt lat="41.4397" lon="0.88646">
        <ele>669.4</ele>
        <time>2022-05-23 20:56:44</time>
      </trkpt>
      <trkpt lat="41.43965" lon="0.88645">
        <ele>669.4</ele>
        <time>2022-05-23 20:56:45</time>
      </trkpt>
      <trkpt lat="41.43961" lon="0.88645">
        <ele>669.4</ele>
        <time>2022-05-23 20:56:46</time>
      </trkpt>
      <trkpt lat="41.43957" lon="0.88643">
        <ele>669.6</ele>
        <time>2022-05-23 20:56:47</time>
      </trkpt>
      <trkpt lat="41.43953" lon="0.88642">
        <ele>669.6</ele>
        <time>2022-05-23 20:56:48</time>
      </trkpt>
      <trkpt lat="41.43949" lon="0.88641">
        <ele>669.8</ele>
        <time>2022-05-23 20:56:49</time>
      </trkpt>
      <trkpt lat="41.43945" lon="0.8864">
        <ele>669.8</ele>
        <time>2022-05-23 20:56:50</time>
      </trkpt>
      <trkpt lat="41.43941" lon="0.88638">
        <ele>670</ele>
        <time>2022-05-23 20:56:51</time>
      </trkpt>
      <trkpt lat="41.43937" lon="0.88636">
        <ele>670</ele>
        <time>2022-05-23 20:56:52</time>
      </trkpt>
      <trkpt lat="41.43933" lon="0.88633">
        <ele>670.2</ele>
        <time>2022-05-23 20:56:53</time>
      </trkpt>
      <trkpt lat="41.43931" lon="0.8863">
        <ele>670.2</ele>
        <time>2022-05-23 20:56:54</time>
      </trkpt>
      <trkpt lat="41.43928" lon="0.88627">
        <ele>670.2</ele>
        <time>2022-05-23 20:56:55</time>
      </trkpt>
      <trkpt lat="41.43925" lon="0.88623">
        <ele>670.4</ele>
        <time>2022-05-23 20:56:56</time>
      </trkpt>
      <trkpt lat="41.43923" lon="0.88618">
        <ele>670.4</ele>
        <time>2022-05-23 20:56:57</time>
      </trkpt>
      <trkpt lat="41.43921" lon="0.88614">
        <ele>670.6</ele>
        <time>2022-05-23 20:56:58</time>
      </trkpt>
      <trkpt lat="41.43919" lon="0.88609">
        <ele>670.6</ele>
        <time>2022-05-23 20:56:59</time>
      </trkpt>
      <trkpt lat="41.43918" lon="0.88604">
        <ele>670.8</ele>
        <time>2022-05-23 20:57:00</time>
      </trkpt>
      <trkpt lat="41.43917" lon="0.88599">
        <ele>671</ele>
        <time>2022-05-23 20:57:01</time>
      </trkpt>
      <trkpt lat="41.43916" lon="0.88594">
        <ele>671</ele>
        <time>2022-05-23 20:57:02</time>
      </trkpt>
      <trkpt lat="41.43915" lon="0.88588">
        <ele>671</ele>
        <time>2022-05-23 20:57:03</time>
      </trkpt>
      <trkpt lat="41.43914" lon="0.88583">
        <ele>671.2</ele>
        <time>2022-05-23 20:57:04</time>
      </trkpt>
      <trkpt lat="41.43914" lon="0.88577">
        <ele>671.2</ele>
        <time>2022-05-23 20:57:05</time>
      </trkpt>
      <trkpt lat="41.43913" lon="0.88571">
        <ele>671.2</ele>
        <time>2022-05-23 20:57:06</time>
      </trkpt>
      <trkpt lat="41.43912" lon="0.88565">
        <ele>671.2</ele>
        <time>2022-05-23 20:57:07</time>
      </trkpt>
      <trkpt lat="41.43912" lon="0.88559">
        <ele>671</ele>
        <time>2022-05-23 20:57:08</time>
      </trkpt>
      <trkpt lat="41.43911" lon="0.88553">
        <ele>671</ele>
        <time>2022-05-23 20:57:09</time>
      </trkpt>
      <trkpt lat="41.4391" lon="0.88547">
        <ele>671</ele>
        <time>2022-05-23 20:57:10</time>
      </trkpt>
      <trkpt lat="41.4391" lon="0.8854">
        <ele>671</ele>
        <time>2022-05-23 20:57:11</time>
      </trkpt>
      <trkpt lat="41.43909" lon="0.88533">
        <ele>671</ele>
        <time>2022-05-23 20:57:12</time>
      </trkpt>
      <trkpt lat="41.43908" lon="0.88526">
        <ele>670.8</ele>
        <time>2022-05-23 20:57:13</time>
      </trkpt>
      <trkpt lat="41.43908" lon="0.88519">
        <ele>670.8</ele>
        <time>2022-05-23 20:57:14</time>
      </trkpt>
      <trkpt lat="41.43907" lon="0.88512">
        <ele>670.6</ele>
        <time>2022-05-23 20:57:15</time>
      </trkpt>
      <trkpt lat="41.43906" lon="0.88505">
        <ele>670.6</ele>
        <time>2022-05-23 20:57:16</time>
      </trkpt>
      <trkpt lat="41.43906" lon="0.88497">
        <ele>670.4</ele>
        <time>2022-05-23 20:57:17</time>
      </trkpt>
      <trkpt lat="41.43905" lon="0.88489">
        <ele>670.2</ele>
        <time>2022-05-23 20:57:18</time>
      </trkpt>
      <trkpt lat="41.43904" lon="0.88481">
        <ele>670</ele>
        <time>2022-05-23 20:57:19</time>
      </trkpt>
      <trkpt lat="41.43904" lon="0.88473">
        <ele>669.8</ele>
        <time>2022-05-23 20:57:20</time>
      </trkpt>
      <trkpt lat="41.43904" lon="0.88464">
        <ele>669.6</ele>
        <time>2022-05-23 20:57:21</time>
      </trkpt>
      <trkpt lat="41.43903" lon="0.88455">
        <ele>669.4</ele>
        <time>2022-05-23 20:57:22</time>
      </trkpt>
      <trkpt lat="41.43902" lon="0.88447">
        <ele>669</ele>
        <time>2022-05-23 20:57:23</time>
      </trkpt>
      <trkpt lat="41.439" lon="0.88438">
        <ele>668.8</ele>
        <time>2022-05-23 20:57:24</time>
      </trkpt>
      <trkpt lat="41.43898" lon="0.88428">
        <ele>668.6</ele>
        <time>2022-05-23 20:57:25</time>
      </trkpt>
      <trkpt lat="41.43896" lon="0.88419">
        <ele>668.2</ele>
        <time>2022-05-23 20:57:26</time>
      </trkpt>
      <trkpt lat="41.43894" lon="0.8841">
        <ele>667.8</ele>
        <time>2022-05-23 20:57:27</time>
      </trkpt>
      <trkpt lat="41.43891" lon="0.88399">
        <ele>667.2</ele>
        <time>2022-05-23 20:57:28</time>
      </trkpt>
      <trkpt lat="41.43888" lon="0.88389">
        <ele>666.8</ele>
        <time>2022-05-23 20:57:29</time>
      </trkpt>
      <trkpt lat="41.43885" lon="0.88378">
        <ele>666.2</ele>
        <time>2022-05-23 20:57:30</time>
      </trkpt>
      <trkpt lat="41.43882" lon="0.88368">
        <ele>665.6</ele>
        <time>2022-05-23 20:57:31</time>
      </trkpt>
      <trkpt lat="41.43878" lon="0.88356">
        <ele>665</ele>
        <time>2022-05-23 20:57:32</time>
      </trkpt>
      <trkpt lat="41.43875" lon="0.88344">
        <ele>664.2</ele>
        <time>2022-05-23 20:57:33</time>
      </trkpt>
      <trkpt lat="41.43872" lon="0.88333">
        <ele>663.6</ele>
        <time>2022-05-23 20:57:34</time>
      </trkpt>
      <trkpt lat="41.43869" lon="0.8832">
        <ele>662.8</ele>
        <time>2022-05-23 20:57:35</time>
      </trkpt>
      <trkpt lat="41.43866" lon="0.88307">
        <ele>662</ele>
        <time>2022-05-23 20:57:36</time>
      </trkpt>
      <trkpt lat="41.43864" lon="0.88294">
        <ele>661.4</ele>
        <time>2022-05-23 20:57:37</time>
      </trkpt>
      <trkpt lat="41.43861" lon="0.88281">
        <ele>660.8</ele>
        <time>2022-05-23 20:57:38</time>
      </trkpt>
      <trkpt lat="41.43858" lon="0.88267">
        <ele>660</ele>
        <time>2022-05-23 20:57:39</time>
      </trkpt>
      <trkpt lat="41.43856" lon="0.88253">
        <ele>659</ele>
        <time>2022-05-23 20:57:40</time>
      </trkpt>
      <trkpt lat="41.43853" lon="0.88238">
        <ele>658.2</ele>
        <time>2022-05-23 20:57:41</time>
      </trkpt>
      <trkpt lat="41.43851" lon="0.88223">
        <ele>657.4</ele>
        <time>2022-05-23 20:57:42</time>
      </trkpt>
      <trkpt lat="41.43848" lon="0.88209">
        <ele>656.8</ele>
        <time>2022-05-23 20:57:43</time>
      </trkpt>
      <trkpt lat="41.43845" lon="0.88194">
        <ele>656</ele>
        <time>2022-05-23 20:57:44</time>
      </trkpt>
      <trkpt lat="41.43842" lon="0.88178">
        <ele>655.2</ele>
        <time>2022-05-23 20:57:45</time>
      </trkpt>
      <trkpt lat="41.43839" lon="0.88164">
        <ele>654.6</ele>
        <time>2022-05-23 20:57:46</time>
      </trkpt>
      <trkpt lat="41.43836" lon="0.88149">
        <ele>654.2</ele>
        <time>2022-05-23 20:57:47</time>
      </trkpt>
      <trkpt lat="41.43834" lon="0.88135">
        <ele>653.6</ele>
        <time>2022-05-23 20:57:48</time>
      </trkpt>
      <trkpt lat="41.43831" lon="0.8812">
        <ele>653.2</ele>
        <time>2022-05-23 20:57:49</time>
      </trkpt>
      <trkpt lat="41.43827" lon="0.88106">
        <ele>652.6</ele>
        <time>2022-05-23 20:57:50</time>
      </trkpt>
      <trkpt lat="41.43825" lon="0.88091">
        <ele>651.8</ele>
        <time>2022-05-23 20:57:51</time>
      </trkpt>
      <trkpt lat="41.43823" lon="0.88075">
        <ele>651.2</ele>
        <time>2022-05-23 20:57:52</time>
      </trkpt>
      <trkpt lat="41.43822" lon="0.88058">
        <ele>650.6</ele>
        <time>2022-05-23 20:57:53</time>
      </trkpt>
      <trkpt lat="41.43822" lon="0.88043">
        <ele>649.8</ele>
        <time>2022-05-23 20:57:54</time>
      </trkpt>
      <trkpt lat="41.43824" lon="0.88026">
        <ele>649.2</ele>
        <time>2022-05-23 20:57:55</time>
      </trkpt>
      <trkpt lat="41.43827" lon="0.88013">
        <ele>648.6</ele>
        <time>2022-05-23 20:57:56</time>
      </trkpt>
      <trkpt lat="41.4383" lon="0.87999">
        <ele>647.8</ele>
        <time>2022-05-23 20:57:57</time>
      </trkpt>
      <trkpt lat="41.43834" lon="0.87984">
        <ele>646.8</ele>
        <time>2022-05-23 20:57:58</time>
      </trkpt>
      <trkpt lat="41.43836" lon="0.87968">
        <ele>646</ele>
        <time>2022-05-23 20:57:59</time>
      </trkpt>
      <trkpt lat="41.43837" lon="0.8795">
        <ele>645</ele>
        <time>2022-05-23 20:58:00</time>
      </trkpt>
      <trkpt lat="41.43838" lon="0.87934">
        <ele>644</ele>
        <time>2022-05-23 20:58:01</time>
      </trkpt>
      <trkpt lat="41.4384" lon="0.87918">
        <ele>642.8</ele>
        <time>2022-05-23 20:58:02</time>
      </trkpt>
      <trkpt lat="41.43841" lon="0.87904">
        <ele>641.8</ele>
        <time>2022-05-23 20:58:03</time>
      </trkpt>
      <trkpt lat="41.43845" lon="0.87891">
        <ele>641</ele>
        <time>2022-05-23 20:58:04</time>
      </trkpt>
      <trkpt lat="41.43849" lon="0.87882">
        <ele>640</ele>
        <time>2022-05-23 20:58:05</time>
      </trkpt>
      <trkpt lat="41.43858" lon="0.8788">
        <ele>639</ele>
        <time>2022-05-23 20:58:06</time>
      </trkpt>
      <trkpt lat="41.43866" lon="0.87884">
        <ele>638</ele>
        <time>2022-05-23 20:58:07</time>
      </trkpt>
      <trkpt lat="41.43874" lon="0.87891">
        <ele>637.2</ele>
        <time>2022-05-23 20:58:08</time>
      </trkpt>
      <trkpt lat="41.43882" lon="0.879">
        <ele>636.4</ele>
        <time>2022-05-23 20:58:09</time>
      </trkpt>
      <trkpt lat="41.4389" lon="0.87909">
        <ele>635.6</ele>
        <time>2022-05-23 20:58:10</time>
      </trkpt>
      <trkpt lat="41.43897" lon="0.87918">
        <ele>635</ele>
        <time>2022-05-23 20:58:11</time>
      </trkpt>
      <trkpt lat="41.43906" lon="0.87927">
        <ele>634.2</ele>
        <time>2022-05-23 20:58:12</time>
      </trkpt>
      <trkpt lat="41.43913" lon="0.87936">
        <ele>633.6</ele>
        <time>2022-05-23 20:58:13</time>
      </trkpt>
      <trkpt lat="41.4392" lon="0.87946">
        <ele>632.8</ele>
        <time>2022-05-23 20:58:14</time>
      </trkpt>
      <trkpt lat="41.43928" lon="0.87957">
        <ele>632.2</ele>
        <time>2022-05-23 20:58:15</time>
      </trkpt>
      <trkpt lat="41.43936" lon="0.87968">
        <ele>631.6</ele>
        <time>2022-05-23 20:58:16</time>
      </trkpt>
      <trkpt lat="41.43945" lon="0.87978">
        <ele>631</ele>
        <time>2022-05-23 20:58:17</time>
      </trkpt>
      <trkpt lat="41.43955" lon="0.87986">
        <ele>630.4</ele>
        <time>2022-05-23 20:58:18</time>
      </trkpt>
      <trkpt lat="41.43966" lon="0.87991">
        <ele>629.8</ele>
        <time>2022-05-23 20:58:19</time>
      </trkpt>
      <trkpt lat="41.43977" lon="0.87994">
        <ele>629.4</ele>
        <time>2022-05-23 20:58:20</time>
      </trkpt>
      <trkpt lat="41.43989" lon="0.87994">
        <ele>629</ele>
        <time>2022-05-23 20:58:21</time>
      </trkpt>
      <trkpt lat="41.44001" lon="0.87993">
        <ele>628.8</ele>
        <time>2022-05-23 20:58:22</time>
      </trkpt>
      <trkpt lat="41.44011" lon="0.87988">
        <ele>628.4</ele>
        <time>2022-05-23 20:58:23</time>
      </trkpt>
      <trkpt lat="41.44021" lon="0.87981">
        <ele>627.8</ele>
        <time>2022-05-23 20:58:24</time>
      </trkpt>
      <trkpt lat="41.44027" lon="0.8797">
        <ele>627.2</ele>
        <time>2022-05-23 20:58:25</time>
      </trkpt>
      <trkpt lat="41.44029" lon="0.87956">
        <ele>627</ele>
        <time>2022-05-23 20:58:26</time>
      </trkpt>
      <trkpt lat="41.44027" lon="0.87943">
        <ele>626.6</ele>
        <time>2022-05-23 20:58:27</time>
      </trkpt>
      <trkpt lat="41.44025" lon="0.87931">
        <ele>626.4</ele>
        <time>2022-05-23 20:58:28</time>
      </trkpt>
      <trkpt lat="41.44021" lon="0.87918">
        <ele>626.2</ele>
        <time>2022-05-23 20:58:29</time>
      </trkpt>
      <trkpt lat="41.44018" lon="0.87906">
        <ele>626</ele>
        <time>2022-05-23 20:58:30</time>
      </trkpt>
      <trkpt lat="41.44015" lon="0.87895">
        <ele>625.8</ele>
        <time>2022-05-23 20:58:31</time>
      </trkpt>
      <trkpt lat="41.44013" lon="0.87884">
        <ele>625.8</ele>
        <time>2022-05-23 20:58:32</time>
      </trkpt>
      <trkpt lat="41.44011" lon="0.87873">
        <ele>625.8</ele>
        <time>2022-05-23 20:58:33</time>
      </trkpt>
      <trkpt lat="41.44009" lon="0.87861">
        <ele>625.6</ele>
        <time>2022-05-23 20:58:34</time>
      </trkpt>
      <trkpt lat="41.44007" lon="0.87849">
        <ele>625.2</ele>
        <time>2022-05-23 20:58:35</time>
      </trkpt>
      <trkpt lat="41.44006" lon="0.87838">
        <ele>624.8</ele>
        <time>2022-05-23 20:58:36</time>
      </trkpt>
      <trkpt lat="41.44005" lon="0.87826">
        <ele>624.4</ele>
        <time>2022-05-23 20:58:37</time>
      </trkpt>
      <trkpt lat="41.44002" lon="0.87814">
        <ele>624</ele>
        <time>2022-05-23 20:58:38</time>
      </trkpt>
      <trkpt lat="41.43997" lon="0.87801">
        <ele>623.6</ele>
        <time>2022-05-23 20:58:39</time>
      </trkpt>
      <trkpt lat="41.43992" lon="0.8779">
        <ele>623.2</ele>
        <time>2022-05-23 20:58:40</time>
      </trkpt>
      <trkpt lat="41.43985" lon="0.8778">
        <ele>622.6</ele>
        <time>2022-05-23 20:58:41</time>
      </trkpt>
      <trkpt lat="41.43979" lon="0.8777">
        <ele>622.2</ele>
        <time>2022-05-23 20:58:42</time>
      </trkpt>
      <trkpt lat="41.43973" lon="0.87759">
        <ele>621.8</ele>
        <time>2022-05-23 20:58:43</time>
      </trkpt>
      <trkpt lat="41.43967" lon="0.87746">
        <ele>621</ele>
        <time>2022-05-23 20:58:44</time>
      </trkpt>
      <trkpt lat="41.43962" lon="0.87734">
        <ele>620.2</ele>
        <time>2022-05-23 20:58:45</time>
      </trkpt>
      <trkpt lat="41.43956" lon="0.87721">
        <ele>619.2</ele>
        <time>2022-05-23 20:58:46</time>
      </trkpt>
      <trkpt lat="41.43949" lon="0.87708">
        <ele>618.4</ele>
        <time>2022-05-23 20:58:47</time>
      </trkpt>
      <trkpt lat="41.4394" lon="0.87696">
        <ele>617.4</ele>
        <time>2022-05-23 20:58:48</time>
      </trkpt>
      <trkpt lat="41.43932" lon="0.87684">
        <ele>616.6</ele>
        <time>2022-05-23 20:58:49</time>
      </trkpt>
      <trkpt lat="41.43923" lon="0.87672">
        <ele>615.8</ele>
        <time>2022-05-23 20:58:50</time>
      </trkpt>
      <trkpt lat="41.43915" lon="0.87658">
        <ele>615</ele>
        <time>2022-05-23 20:58:51</time>
      </trkpt>
      <trkpt lat="41.43908" lon="0.87645">
        <ele>614</ele>
        <time>2022-05-23 20:58:52</time>
      </trkpt>
      <trkpt lat="41.439" lon="0.87631">
        <ele>613</ele>
        <time>2022-05-23 20:58:53</time>
      </trkpt>
      <trkpt lat="41.43893" lon="0.87618">
        <ele>612.4</ele>
        <time>2022-05-23 20:58:54</time>
      </trkpt>
      <trkpt lat="41.43887" lon="0.87605">
        <ele>611.4</ele>
        <time>2022-05-23 20:58:55</time>
      </trkpt>
      <trkpt lat="41.43881" lon="0.87589">
        <ele>610.6</ele>
        <time>2022-05-23 20:58:56</time>
      </trkpt>
      <trkpt lat="41.43877" lon="0.87575">
        <ele>609.6</ele>
        <time>2022-05-23 20:58:57</time>
      </trkpt>
      <trkpt lat="41.43879" lon="0.87558">
        <ele>608.6</ele>
        <time>2022-05-23 20:58:58</time>
      </trkpt>
      <trkpt lat="41.43882" lon="0.87543">
        <ele>608</ele>
        <time>2022-05-23 20:58:59</time>
      </trkpt>
      <trkpt lat="41.43886" lon="0.87528">
        <ele>607.2</ele>
        <time>2022-05-23 20:59:00</time>
      </trkpt>
      <trkpt lat="41.4389" lon="0.87514">
        <ele>606.6</ele>
        <time>2022-05-23 20:59:01</time>
      </trkpt>
      <trkpt lat="41.43894" lon="0.875">
        <ele>606</ele>
        <time>2022-05-23 20:59:02</time>
      </trkpt>
      <trkpt lat="41.43898" lon="0.87486">
        <ele>605.6</ele>
        <time>2022-05-23 20:59:03</time>
      </trkpt>
      <trkpt lat="41.439" lon="0.87472">
        <ele>604.8</ele>
        <time>2022-05-23 20:59:04</time>
      </trkpt>
      <trkpt lat="41.43902" lon="0.87458">
        <ele>604.4</ele>
        <time>2022-05-23 20:59:05</time>
      </trkpt>
      <trkpt lat="41.43903" lon="0.87443">
        <ele>604</ele>
        <time>2022-05-23 20:59:06</time>
      </trkpt>
      <trkpt lat="41.43903" lon="0.87428">
        <ele>603.4</ele>
        <time>2022-05-23 20:59:07</time>
      </trkpt>
      <trkpt lat="41.43903" lon="0.87414">
        <ele>602.8</ele>
        <time>2022-05-23 20:59:08</time>
      </trkpt>
      <trkpt lat="41.43903" lon="0.874">
        <ele>602.4</ele>
        <time>2022-05-23 20:59:09</time>
      </trkpt>
      <trkpt lat="41.43904" lon="0.87385">
        <ele>602</ele>
        <time>2022-05-23 20:59:10</time>
      </trkpt>
      <trkpt lat="41.43904" lon="0.87371">
        <ele>601.4</ele>
        <time>2022-05-23 20:59:11</time>
      </trkpt>
      <trkpt lat="41.43904" lon="0.87356">
        <ele>601</ele>
        <time>2022-05-23 20:59:12</time>
      </trkpt>
      <trkpt lat="41.43903" lon="0.87342">
        <ele>600.6</ele>
        <time>2022-05-23 20:59:13</time>
      </trkpt>
      <trkpt lat="41.439" lon="0.87328">
        <ele>600.2</ele>
        <time>2022-05-23 20:59:14</time>
      </trkpt>
      <trkpt lat="41.43895" lon="0.87315">
        <ele>599.8</ele>
        <time>2022-05-23 20:59:15</time>
      </trkpt>
      <trkpt lat="41.43889" lon="0.87302">
        <ele>599.2</ele>
        <time>2022-05-23 20:59:16</time>
      </trkpt>
      <trkpt lat="41.43883" lon="0.8729">
        <ele>598.4</ele>
        <time>2022-05-23 20:59:17</time>
      </trkpt>
      <trkpt lat="41.43878" lon="0.87276">
        <ele>597.8</ele>
        <time>2022-05-23 20:59:18</time>
      </trkpt>
      <trkpt lat="41.43873" lon="0.87263">
        <ele>597</ele>
        <time>2022-05-23 20:59:19</time>
      </trkpt>
      <trkpt lat="41.43868" lon="0.87249">
        <ele>596.2</ele>
        <time>2022-05-23 20:59:20</time>
      </trkpt>
      <trkpt lat="41.43862" lon="0.87235">
        <ele>595.6</ele>
        <time>2022-05-23 20:59:21</time>
      </trkpt>
      <trkpt lat="41.43858" lon="0.87222">
        <ele>595</ele>
        <time>2022-05-23 20:59:22</time>
      </trkpt>
      <trkpt lat="41.43853" lon="0.87209">
        <ele>594.6</ele>
        <time>2022-05-23 20:59:23</time>
      </trkpt>
      <trkpt lat="41.43848" lon="0.87194">
        <ele>594</ele>
        <time>2022-05-23 20:59:24</time>
      </trkpt>
      <trkpt lat="41.43845" lon="0.8718">
        <ele>593.4</ele>
        <time>2022-05-23 20:59:25</time>
      </trkpt>
      <trkpt lat="41.43842" lon="0.87166">
        <ele>592.8</ele>
        <time>2022-05-23 20:59:26</time>
      </trkpt>
      <trkpt lat="41.43843" lon="0.8715">
        <ele>592.4</ele>
        <time>2022-05-23 20:59:27</time>
      </trkpt>
      <trkpt lat="41.43845" lon="0.87136">
        <ele>592</ele>
        <time>2022-05-23 20:59:28</time>
      </trkpt>
      <trkpt lat="41.43851" lon="0.87124">
        <ele>591.4</ele>
        <time>2022-05-23 20:59:29</time>
      </trkpt>
      <trkpt lat="41.43857" lon="0.87113">
        <ele>591</ele>
        <time>2022-05-23 20:59:30</time>
      </trkpt>
      <trkpt lat="41.43863" lon="0.87102">
        <ele>590.2</ele>
        <time>2022-05-23 20:59:31</time>
      </trkpt>
      <trkpt lat="41.43868" lon="0.87091">
        <ele>589.6</ele>
        <time>2022-05-23 20:59:32</time>
      </trkpt>
      <trkpt lat="41.43869" lon="0.87079">
        <ele>589.2</ele>
        <time>2022-05-23 20:59:33</time>
      </trkpt>
      <trkpt lat="41.43866" lon="0.8707">
        <ele>588.8</ele>
        <time>2022-05-23 20:59:34</time>
      </trkpt>
      <trkpt lat="41.43861" lon="0.87061">
        <ele>588.8</ele>
        <time>2022-05-23 20:59:35</time>
      </trkpt>
      <trkpt lat="41.43855" lon="0.87053">
        <ele>588.6</ele>
        <time>2022-05-23 20:59:36</time>
      </trkpt>
      <trkpt lat="41.43847" lon="0.87047">
        <ele>588.4</ele>
        <time>2022-05-23 20:59:37</time>
      </trkpt>
      <trkpt lat="41.4384" lon="0.87042">
        <ele>588.4</ele>
        <time>2022-05-23 20:59:38</time>
      </trkpt>
      <trkpt lat="41.43833" lon="0.87038">
        <ele>588.4</ele>
        <time>2022-05-23 20:59:39</time>
      </trkpt>
      <trkpt lat="41.43826" lon="0.87035">
        <ele>588.2</ele>
        <time>2022-05-23 20:59:40</time>
      </trkpt>
      <trkpt lat="41.43818" lon="0.87031">
        <ele>588.2</ele>
        <time>2022-05-23 20:59:41</time>
      </trkpt>
      <trkpt lat="41.4381" lon="0.87027">
        <ele>588.2</ele>
        <time>2022-05-23 20:59:42</time>
      </trkpt>
      <trkpt lat="41.43804" lon="0.87023">
        <ele>588</ele>
        <time>2022-05-23 20:59:43</time>
      </trkpt>
      <trkpt lat="41.43797" lon="0.87019">
        <ele>588</ele>
        <time>2022-05-23 20:59:44</time>
      </trkpt>
      <trkpt lat="41.43791" lon="0.87014">
        <ele>587.8</ele>
        <time>2022-05-23 20:59:45</time>
      </trkpt>
      <trkpt lat="41.43784" lon="0.87007">
        <ele>587.6</ele>
        <time>2022-05-23 20:59:46</time>
      </trkpt>
      <trkpt lat="41.43779" lon="0.87">
        <ele>587.4</ele>
        <time>2022-05-23 20:59:47</time>
      </trkpt>
      <trkpt lat="41.43774" lon="0.86992">
        <ele>587</ele>
        <time>2022-05-23 20:59:48</time>
      </trkpt>
      <trkpt lat="41.4377" lon="0.86982">
        <ele>586.6</ele>
        <time>2022-05-23 20:59:49</time>
      </trkpt>
      <trkpt lat="41.43768" lon="0.8697">
        <ele>586</ele>
        <time>2022-05-23 20:59:50</time>
      </trkpt>
      <trkpt lat="41.43766" lon="0.86959">
        <ele>585.4</ele>
        <time>2022-05-23 20:59:51</time>
      </trkpt>
      <trkpt lat="41.43767" lon="0.86946">
        <ele>584.8</ele>
        <time>2022-05-23 20:59:52</time>
      </trkpt>
      <trkpt lat="41.43767" lon="0.86933">
        <ele>584.2</ele>
        <time>2022-05-23 20:59:53</time>
      </trkpt>
      <trkpt lat="41.43768" lon="0.86919">
        <ele>583.6</ele>
        <time>2022-05-23 20:59:54</time>
      </trkpt>
      <trkpt lat="41.43769" lon="0.86905">
        <ele>583</ele>
        <time>2022-05-23 20:59:55</time>
      </trkpt>
      <trkpt lat="41.4377" lon="0.86892">
        <ele>582.6</ele>
        <time>2022-05-23 20:59:56</time>
      </trkpt>
      <trkpt lat="41.43772" lon="0.86881">
        <ele>582.4</ele>
        <time>2022-05-23 20:59:57</time>
      </trkpt>
      <trkpt lat="41.43774" lon="0.86868">
        <ele>582</ele>
        <time>2022-05-23 20:59:58</time>
      </trkpt>
      <trkpt lat="41.43775" lon="0.86855">
        <ele>581.8</ele>
        <time>2022-05-23 20:59:59</time>
      </trkpt>
      <trkpt lat="41.43776" lon="0.86843">
        <ele>581.6</ele>
        <time>2022-05-23 21:00:00</time>
      </trkpt>
      <trkpt lat="41.43777" lon="0.86831">
        <ele>581.2</ele>
        <time>2022-05-23 21:00:01</time>
      </trkpt>
      <trkpt lat="41.43777" lon="0.86819">
        <ele>581</ele>
        <time>2022-05-23 21:00:02</time>
      </trkpt>
      <trkpt lat="41.43773" lon="0.86809">
        <ele>580.6</ele>
        <time>2022-05-23 21:00:03</time>
      </trkpt>
      <trkpt lat="41.43766" lon="0.86802">
        <ele>580.4</ele>
        <time>2022-05-23 21:00:04</time>
      </trkpt>
      <trkpt lat="41.43758" lon="0.868">
        <ele>580.2</ele>
        <time>2022-05-23 21:00:05</time>
      </trkpt>
      <trkpt lat="41.43749" lon="0.86799">
        <ele>580.2</ele>
        <time>2022-05-23 21:00:06</time>
      </trkpt>
      <trkpt lat="41.4374" lon="0.86799">
        <ele>580</ele>
        <time>2022-05-23 21:00:07</time>
      </trkpt>
      <trkpt lat="41.4373" lon="0.86799">
        <ele>579.6</ele>
        <time>2022-05-23 21:00:08</time>
      </trkpt>
      <trkpt lat="41.43721" lon="0.86798">
        <ele>579.2</ele>
        <time>2022-05-23 21:00:09</time>
      </trkpt>
      <trkpt lat="41.43713" lon="0.86794">
        <ele>578.8</ele>
        <time>2022-05-23 21:00:10</time>
      </trkpt>
      <trkpt lat="41.43705" lon="0.86787">
        <ele>578.4</ele>
        <time>2022-05-23 21:00:11</time>
      </trkpt>
      <trkpt lat="41.43699" lon="0.8678">
        <ele>578</ele>
        <time>2022-05-23 21:00:12</time>
      </trkpt>
      <trkpt lat="41.43691" lon="0.86767">
        <ele>576.8</ele>
        <time>2022-05-23 21:00:13</time>
      </trkpt>
      <trkpt lat="41.43687" lon="0.86753">
        <ele>576</ele>
        <time>2022-05-23 21:00:14</time>
      </trkpt>
      <trkpt lat="41.43683" lon="0.86739">
        <ele>575</ele>
        <time>2022-05-23 21:00:15</time>
      </trkpt>
      <trkpt lat="41.4368" lon="0.86723">
        <ele>574.2</ele>
        <time>2022-05-23 21:00:16</time>
      </trkpt>
      <trkpt lat="41.43678" lon="0.86709">
        <ele>573.4</ele>
        <time>2022-05-23 21:00:17</time>
      </trkpt>
      <trkpt lat="41.43676" lon="0.86694">
        <ele>572.6</ele>
        <time>2022-05-23 21:00:18</time>
      </trkpt>
      <trkpt lat="41.43674" lon="0.86678">
        <ele>572</ele>
        <time>2022-05-23 21:00:19</time>
      </trkpt>
      <trkpt lat="41.43669" lon="0.86665">
        <ele>571.4</ele>
        <time>2022-05-23 21:00:20</time>
      </trkpt>
      <trkpt lat="41.43662" lon="0.86653">
        <ele>570.6</ele>
        <time>2022-05-23 21:00:21</time>
      </trkpt>
      <trkpt lat="41.43654" lon="0.86643">
        <ele>570</ele>
        <time>2022-05-23 21:00:22</time>
      </trkpt>
      <trkpt lat="41.43645" lon="0.86632">
        <ele>569.6</ele>
        <time>2022-05-23 21:00:23</time>
      </trkpt>
      <trkpt lat="41.43637" lon="0.8662">
        <ele>569.2</ele>
        <time>2022-05-23 21:00:24</time>
      </trkpt>
      <trkpt lat="41.4363" lon="0.86608">
        <ele>568.8</ele>
        <time>2022-05-23 21:00:25</time>
      </trkpt>
      <trkpt lat="41.43623" lon="0.86594">
        <ele>568.4</ele>
        <time>2022-05-23 21:00:26</time>
      </trkpt>
      <trkpt lat="41.43618" lon="0.8658">
        <ele>567.8</ele>
        <time>2022-05-23 21:00:27</time>
      </trkpt>
      <trkpt lat="41.43613" lon="0.86567">
        <ele>567.2</ele>
        <time>2022-05-23 21:00:28</time>
      </trkpt>
      <trkpt lat="41.43608" lon="0.86553">
        <ele>566.6</ele>
        <time>2022-05-23 21:00:29</time>
      </trkpt>
      <trkpt lat="41.43605" lon="0.86538">
        <ele>566</ele>
        <time>2022-05-23 21:00:30</time>
      </trkpt>
      <trkpt lat="41.43604" lon="0.86524">
        <ele>565.6</ele>
        <time>2022-05-23 21:00:31</time>
      </trkpt>
      <trkpt lat="41.43602" lon="0.86509">
        <ele>565.2</ele>
        <time>2022-05-23 21:00:32</time>
      </trkpt>
      <trkpt lat="41.43601" lon="0.86496">
        <ele>564.8</ele>
        <time>2022-05-23 21:00:33</time>
      </trkpt>
      <trkpt lat="41.436" lon="0.86482">
        <ele>564.8</ele>
        <time>2022-05-23 21:00:34</time>
      </trkpt>
      <trkpt lat="41.43598" lon="0.86468">
        <ele>564.6</ele>
        <time>2022-05-23 21:00:35</time>
      </trkpt>
      <trkpt lat="41.43596" lon="0.86457">
        <ele>564.4</ele>
        <time>2022-05-23 21:00:36</time>
      </trkpt>
      <trkpt lat="41.43591" lon="0.86445">
        <ele>564.4</ele>
        <time>2022-05-23 21:00:37</time>
      </trkpt>
      <trkpt lat="41.43584" lon="0.86436">
        <ele>564.2</ele>
        <time>2022-05-23 21:00:38</time>
      </trkpt>
      <trkpt lat="41.43576" lon="0.86429">
        <ele>564</ele>
        <time>2022-05-23 21:00:39</time>
      </trkpt>
      <trkpt lat="41.43568" lon="0.86422">
        <ele>563.8</ele>
        <time>2022-05-23 21:00:40</time>
      </trkpt>
      <trkpt lat="41.4356" lon="0.86417">
        <ele>563.6</ele>
        <time>2022-05-23 21:00:41</time>
      </trkpt>
      <trkpt lat="41.4355" lon="0.86412">
        <ele>563.4</ele>
        <time>2022-05-23 21:00:42</time>
      </trkpt>
      <trkpt lat="41.43542" lon="0.86408">
        <ele>563.2</ele>
        <time>2022-05-23 21:00:43</time>
      </trkpt>
      <trkpt lat="41.43532" lon="0.86404">
        <ele>563</ele>
        <time>2022-05-23 21:00:44</time>
      </trkpt>
      <trkpt lat="41.43522" lon="0.86402">
        <ele>562.8</ele>
        <time>2022-05-23 21:00:45</time>
      </trkpt>
      <trkpt lat="41.43512" lon="0.864">
        <ele>562.4</ele>
        <time>2022-05-23 21:00:46</time>
      </trkpt>
      <trkpt lat="41.43501" lon="0.864">
        <ele>562</ele>
        <time>2022-05-23 21:00:47</time>
      </trkpt>
      <trkpt lat="41.43492" lon="0.86398">
        <ele>561.8</ele>
        <time>2022-05-23 21:00:48</time>
      </trkpt>
      <trkpt lat="41.43483" lon="0.86394">
        <ele>561.4</ele>
        <time>2022-05-23 21:00:49</time>
      </trkpt>
      <trkpt lat="41.43475" lon="0.86388">
        <ele>561</ele>
        <time>2022-05-23 21:00:50</time>
      </trkpt>
      <trkpt lat="41.43467" lon="0.8638">
        <ele>560.6</ele>
        <time>2022-05-23 21:00:51</time>
      </trkpt>
      <trkpt lat="41.43459" lon="0.86372">
        <ele>560.2</ele>
        <time>2022-05-23 21:00:52</time>
      </trkpt>
      <trkpt lat="41.43451" lon="0.86363">
        <ele>559.8</ele>
        <time>2022-05-23 21:00:53</time>
      </trkpt>
      <trkpt lat="41.43444" lon="0.86355">
        <ele>559.2</ele>
        <time>2022-05-23 21:00:54</time>
      </trkpt>
      <trkpt lat="41.43437" lon="0.86346">
        <ele>558.8</ele>
        <time>2022-05-23 21:00:55</time>
      </trkpt>
      <trkpt lat="41.43429" lon="0.86338">
        <ele>558.4</ele>
        <time>2022-05-23 21:00:56</time>
      </trkpt>
      <trkpt lat="41.43421" lon="0.86329">
        <ele>558</ele>
        <time>2022-05-23 21:00:57</time>
      </trkpt>
      <trkpt lat="41.43413" lon="0.86319">
        <ele>557.4</ele>
        <time>2022-05-23 21:00:58</time>
      </trkpt>
      <trkpt lat="41.43405" lon="0.86309">
        <ele>556.8</ele>
        <time>2022-05-23 21:00:59</time>
      </trkpt>
      <trkpt lat="41.43398" lon="0.863">
        <ele>556.2</ele>
        <time>2022-05-23 21:01:00</time>
      </trkpt>
      <trkpt lat="41.43391" lon="0.86291">
        <ele>555.4</ele>
        <time>2022-05-23 21:01:01</time>
      </trkpt>
      <trkpt lat="41.43382" lon="0.86282">
        <ele>554.8</ele>
        <time>2022-05-23 21:01:02</time>
      </trkpt>
      <trkpt lat="41.43372" lon="0.86273">
        <ele>554</ele>
        <time>2022-05-23 21:01:03</time>
      </trkpt>
      <trkpt lat="41.43362" lon="0.86264">
        <ele>553</ele>
        <time>2022-05-23 21:01:04</time>
      </trkpt>
      <trkpt lat="41.43352" lon="0.86255">
        <ele>552.2</ele>
        <time>2022-05-23 21:01:05</time>
      </trkpt>
      <trkpt lat="41.43342" lon="0.86247">
        <ele>551.4</ele>
        <time>2022-05-23 21:01:06</time>
      </trkpt>
      <trkpt lat="41.43332" lon="0.86237">
        <ele>550.4</ele>
        <time>2022-05-23 21:01:07</time>
      </trkpt>
      <trkpt lat="41.43322" lon="0.86227">
        <ele>549.6</ele>
        <time>2022-05-23 21:01:08</time>
      </trkpt>
      <trkpt lat="41.43311" lon="0.86219">
        <ele>548.6</ele>
        <time>2022-05-23 21:01:09</time>
      </trkpt>
      <trkpt lat="41.433" lon="0.86214">
        <ele>547.8</ele>
        <time>2022-05-23 21:01:10</time>
      </trkpt>
      <trkpt lat="41.43287" lon="0.86213">
        <ele>547</ele>
        <time>2022-05-23 21:01:11</time>
      </trkpt>
      <trkpt lat="41.43274" lon="0.86214">
        <ele>546.4</ele>
        <time>2022-05-23 21:01:12</time>
      </trkpt>
      <trkpt lat="41.43262" lon="0.86214">
        <ele>545.8</ele>
        <time>2022-05-23 21:01:13</time>
      </trkpt>
      <trkpt lat="41.4325" lon="0.86214">
        <ele>545.4</ele>
        <time>2022-05-23 21:01:14</time>
      </trkpt>
      <trkpt lat="41.43238" lon="0.86214">
        <ele>545.2</ele>
        <time>2022-05-23 21:01:15</time>
      </trkpt>
      <trkpt lat="41.43227" lon="0.86212">
        <ele>544.8</ele>
        <time>2022-05-23 21:01:16</time>
      </trkpt>
      <trkpt lat="41.43215" lon="0.8621">
        <ele>544.6</ele>
        <time>2022-05-23 21:01:17</time>
      </trkpt>
      <trkpt lat="41.43204" lon="0.86208">
        <ele>544.6</ele>
        <time>2022-05-23 21:01:18</time>
      </trkpt>
      <trkpt lat="41.43194" lon="0.86205">
        <ele>544.4</ele>
        <time>2022-05-23 21:01:19</time>
      </trkpt>
      <trkpt lat="41.43185" lon="0.862">
        <ele>544.2</ele>
        <time>2022-05-23 21:01:20</time>
      </trkpt>
      <trkpt lat="41.43175" lon="0.86193">
        <ele>544</ele>
        <time>2022-05-23 21:01:21</time>
      </trkpt>
      <trkpt lat="41.43167" lon="0.86185">
        <ele>543.8</ele>
        <time>2022-05-23 21:01:22</time>
      </trkpt>
      <trkpt lat="41.43159" lon="0.86178">
        <ele>543.6</ele>
        <time>2022-05-23 21:01:23</time>
      </trkpt>
      <trkpt lat="41.4315" lon="0.86173">
        <ele>543.6</ele>
        <time>2022-05-23 21:01:24</time>
      </trkpt>
      <trkpt lat="41.43142" lon="0.8617">
        <ele>543.4</ele>
        <time>2022-05-23 21:01:25</time>
      </trkpt>
      <trkpt lat="41.43132" lon="0.86167">
        <ele>543.4</ele>
        <time>2022-05-23 21:01:26</time>
      </trkpt>
      <trkpt lat="41.43122" lon="0.86166">
        <ele>543.4</ele>
        <time>2022-05-23 21:01:27</time>
      </trkpt>
      <trkpt lat="41.43113" lon="0.86164">
        <ele>543.6</ele>
        <time>2022-05-23 21:01:28</time>
      </trkpt>
      <trkpt lat="41.43103" lon="0.86162">
        <ele>543.6</ele>
        <time>2022-05-23 21:01:29</time>
      </trkpt>
      <trkpt lat="41.43095" lon="0.86159">
        <ele>543.6</ele>
        <time>2022-05-23 21:01:30</time>
      </trkpt>
      <trkpt lat="41.43087" lon="0.86155">
        <ele>543.6</ele>
        <time>2022-05-23 21:01:31</time>
      </trkpt>
      <trkpt lat="41.43079" lon="0.8615">
        <ele>543.8</ele>
        <time>2022-05-23 21:01:32</time>
      </trkpt>
      <trkpt lat="41.43071" lon="0.86147">
        <ele>543.8</ele>
        <time>2022-05-23 21:01:33</time>
      </trkpt>
      <trkpt lat="41.43064" lon="0.86144">
        <ele>543.6</ele>
        <time>2022-05-23 21:01:34</time>
      </trkpt>
      <trkpt lat="41.43056" lon="0.86144">
        <ele>543.6</ele>
        <time>2022-05-23 21:01:35</time>
      </trkpt>
      <trkpt lat="41.43048" lon="0.86144">
        <ele>543.4</ele>
        <time>2022-05-23 21:01:36</time>
      </trkpt>
      <trkpt lat="41.4304" lon="0.86144">
        <ele>543.4</ele>
        <time>2022-05-23 21:01:37</time>
      </trkpt>
      <trkpt lat="41.43032" lon="0.86144">
        <ele>543.2</ele>
        <time>2022-05-23 21:01:38</time>
      </trkpt>
      <trkpt lat="41.43025" lon="0.86143">
        <ele>543.2</ele>
        <time>2022-05-23 21:01:39</time>
      </trkpt>
      <trkpt lat="41.43017" lon="0.8614">
        <ele>543.2</ele>
        <time>2022-05-23 21:01:40</time>
      </trkpt>
      <trkpt lat="41.4301" lon="0.86137">
        <ele>543</ele>
        <time>2022-05-23 21:01:41</time>
      </trkpt>
      <trkpt lat="41.43003" lon="0.86133">
        <ele>543</ele>
        <time>2022-05-23 21:01:42</time>
      </trkpt>
      <trkpt lat="41.42996" lon="0.86128">
        <ele>542.8</ele>
        <time>2022-05-23 21:01:43</time>
      </trkpt>
      <trkpt lat="41.42989" lon="0.86124">
        <ele>542.8</ele>
        <time>2022-05-23 21:01:44</time>
      </trkpt>
      <trkpt lat="41.42982" lon="0.86119">
        <ele>542.6</ele>
        <time>2022-05-23 21:01:45</time>
      </trkpt>
      <trkpt lat="41.42975" lon="0.86114">
        <ele>542.4</ele>
        <time>2022-05-23 21:01:46</time>
      </trkpt>
      <trkpt lat="41.42968" lon="0.86108">
        <ele>542.2</ele>
        <time>2022-05-23 21:01:47</time>
      </trkpt>
      <trkpt lat="41.42961" lon="0.86103">
        <ele>542</ele>
        <time>2022-05-23 21:01:48</time>
      </trkpt>
      <trkpt lat="41.42954" lon="0.86097">
        <ele>541.8</ele>
        <time>2022-05-23 21:01:49</time>
      </trkpt>
      <trkpt lat="41.42947" lon="0.86091">
        <ele>541.6</ele>
        <time>2022-05-23 21:01:50</time>
      </trkpt>
      <trkpt lat="41.4294" lon="0.86085">
        <ele>541.2</ele>
        <time>2022-05-23 21:01:51</time>
      </trkpt>
      <trkpt lat="41.42932" lon="0.86079">
        <ele>541</ele>
        <time>2022-05-23 21:01:52</time>
      </trkpt>
      <trkpt lat="41.42925" lon="0.86072">
        <ele>540.8</ele>
        <time>2022-05-23 21:01:53</time>
      </trkpt>
      <trkpt lat="41.42917" lon="0.86066">
        <ele>540.4</ele>
        <time>2022-05-23 21:01:54</time>
      </trkpt>
      <trkpt lat="41.42911" lon="0.8606">
        <ele>540</ele>
        <time>2022-05-23 21:01:55</time>
      </trkpt>
      <trkpt lat="41.42902" lon="0.86054">
        <ele>539.8</ele>
        <time>2022-05-23 21:01:56</time>
      </trkpt>
      <trkpt lat="41.42894" lon="0.86048">
        <ele>539.4</ele>
        <time>2022-05-23 21:01:57</time>
      </trkpt>
      <trkpt lat="41.42887" lon="0.86042">
        <ele>539</ele>
        <time>2022-05-23 21:01:58</time>
      </trkpt>
      <trkpt lat="41.4288" lon="0.86037">
        <ele>538.8</ele>
        <time>2022-05-23 21:01:59</time>
      </trkpt>
      <trkpt lat="41.42872" lon="0.86031">
        <ele>538.6</ele>
        <time>2022-05-23 21:02:00</time>
      </trkpt>
      <trkpt lat="41.42865" lon="0.86026">
        <ele>538.4</ele>
        <time>2022-05-23 21:02:01</time>
      </trkpt>
      <trkpt lat="41.42857" lon="0.86021">
        <ele>538.2</ele>
        <time>2022-05-23 21:02:02</time>
      </trkpt>
      <trkpt lat="41.4285" lon="0.86017">
        <ele>538.2</ele>
        <time>2022-05-23 21:02:03</time>
      </trkpt>
      <trkpt lat="41.42843" lon="0.86012">
        <ele>538</ele>
        <time>2022-05-23 21:02:04</time>
      </trkpt>
      <trkpt lat="41.42835" lon="0.86008">
        <ele>538</ele>
        <time>2022-05-23 21:02:05</time>
      </trkpt>
      <trkpt lat="41.42828" lon="0.86005">
        <ele>537.8</ele>
        <time>2022-05-23 21:02:06</time>
      </trkpt>
      <trkpt lat="41.4282" lon="0.86001">
        <ele>537.8</ele>
        <time>2022-05-23 21:02:07</time>
      </trkpt>
      <trkpt lat="41.42813" lon="0.85998">
        <ele>537.8</ele>
        <time>2022-05-23 21:02:08</time>
      </trkpt>
      <trkpt lat="41.42806" lon="0.85994">
        <ele>537.8</ele>
        <time>2022-05-23 21:02:09</time>
      </trkpt>
      <trkpt lat="41.428" lon="0.85991">
        <ele>537.8</ele>
        <time>2022-05-23 21:02:10</time>
      </trkpt>
      <trkpt lat="41.42792" lon="0.85988">
        <ele>537.8</ele>
        <time>2022-05-23 21:02:11</time>
      </trkpt>
      <trkpt lat="41.42785" lon="0.85985">
        <ele>537.8</ele>
        <time>2022-05-23 21:02:12</time>
      </trkpt>
      <trkpt lat="41.42778" lon="0.85982">
        <ele>537.8</ele>
        <time>2022-05-23 21:02:13</time>
      </trkpt>
      <trkpt lat="41.42772" lon="0.85979">
        <ele>537.8</ele>
        <time>2022-05-23 21:02:14</time>
      </trkpt>
      <trkpt lat="41.42765" lon="0.85977">
        <ele>537.8</ele>
        <time>2022-05-23 21:02:15</time>
      </trkpt>
      <trkpt lat="41.42759" lon="0.85974">
        <ele>537.8</ele>
        <time>2022-05-23 21:02:16</time>
      </trkpt>
      <trkpt lat="41.42752" lon="0.85974">
        <ele>537.6</ele>
        <time>2022-05-23 21:02:17</time>
      </trkpt>
      <trkpt lat="41.42745" lon="0.85974">
        <ele>537.6</ele>
        <time>2022-05-23 21:02:18</time>
      </trkpt>
      <trkpt lat="41.42738" lon="0.85974">
        <ele>537.6</ele>
        <time>2022-05-23 21:02:19</time>
      </trkpt>
      <trkpt lat="41.42732" lon="0.85975">
        <ele>537.4</ele>
        <time>2022-05-23 21:02:20</time>
      </trkpt>
      <trkpt lat="41.42724" lon="0.85975">
        <ele>537.4</ele>
        <time>2022-05-23 21:02:21</time>
      </trkpt>
      <trkpt lat="41.42717" lon="0.85977">
        <ele>537.2</ele>
        <time>2022-05-23 21:02:22</time>
      </trkpt>
      <trkpt lat="41.4271" lon="0.85978">
        <ele>537</ele>
        <time>2022-05-23 21:02:23</time>
      </trkpt>
      <trkpt lat="41.42703" lon="0.85979">
        <ele>537</ele>
        <time>2022-05-23 21:02:24</time>
      </trkpt>
      <trkpt lat="41.42696" lon="0.8598">
        <ele>536.8</ele>
        <time>2022-05-23 21:02:25</time>
      </trkpt>
      <trkpt lat="41.42689" lon="0.85981">
        <ele>536.8</ele>
        <time>2022-05-23 21:02:26</time>
      </trkpt>
      <trkpt lat="41.42682" lon="0.85982">
        <ele>536.6</ele>
        <time>2022-05-23 21:02:27</time>
      </trkpt>
      <trkpt lat="41.42676" lon="0.85985">
        <ele>536.6</ele>
        <time>2022-05-23 21:02:28</time>
      </trkpt>
      <trkpt lat="41.42669" lon="0.85987">
        <ele>536.4</ele>
        <time>2022-05-23 21:02:29</time>
      </trkpt>
      <trkpt lat="41.42662" lon="0.85991">
        <ele>536.4</ele>
        <time>2022-05-23 21:02:30</time>
      </trkpt>
      <trkpt lat="41.42658" lon="0.85997">
        <ele>536.4</ele>
        <time>2022-05-23 21:02:31</time>
      </trkpt>
      <trkpt lat="41.42652" lon="0.86003">
        <ele>536.4</ele>
        <time>2022-05-23 21:02:32</time>
      </trkpt>
      <trkpt lat="41.42647" lon="0.86009">
        <ele>536.4</ele>
        <time>2022-05-23 21:02:33</time>
      </trkpt>
      <trkpt lat="41.42642" lon="0.86014">
        <ele>536.2</ele>
        <time>2022-05-23 21:02:34</time>
      </trkpt>
      <trkpt lat="41.42638" lon="0.8602">
        <ele>536.4</ele>
        <time>2022-05-23 21:02:35</time>
      </trkpt>
      <trkpt lat="41.42633" lon="0.86025">
        <ele>536.2</ele>
        <time>2022-05-23 21:02:36</time>
      </trkpt>
      <trkpt lat="41.42629" lon="0.86032">
        <ele>536.2</ele>
        <time>2022-05-23 21:02:37</time>
      </trkpt>
      <trkpt lat="41.42624" lon="0.8604">
        <ele>536.2</ele>
        <time>2022-05-23 21:02:38</time>
      </trkpt>
      <trkpt lat="41.42619" lon="0.86046">
        <ele>536.4</ele>
        <time>2022-05-23 21:02:39</time>
      </trkpt>
      <trkpt lat="41.42614" lon="0.86053">
        <ele>536.4</ele>
        <time>2022-05-23 21:02:40</time>
      </trkpt>
      <trkpt lat="41.42609" lon="0.86058">
        <ele>536.4</ele>
        <time>2022-05-23 21:02:41</time>
      </trkpt>
      <trkpt lat="41.42604" lon="0.86065">
        <ele>536.6</ele>
        <time>2022-05-23 21:02:42</time>
      </trkpt>
      <trkpt lat="41.42599" lon="0.8607">
        <ele>536.6</ele>
        <time>2022-05-23 21:02:43</time>
      </trkpt>
      <trkpt lat="41.42595" lon="0.86075">
        <ele>536.6</ele>
        <time>2022-05-23 21:02:44</time>
      </trkpt>
      <trkpt lat="41.42591" lon="0.86081">
        <ele>536.6</ele>
        <time>2022-05-23 21:02:45</time>
      </trkpt>
      <trkpt lat="41.42586" lon="0.86087">
        <ele>536.6</ele>
        <time>2022-05-23 21:02:46</time>
      </trkpt>
      <trkpt lat="41.42582" lon="0.86092">
        <ele>536.8</ele>
        <time>2022-05-23 21:02:47</time>
      </trkpt>
      <trkpt lat="41.42578" lon="0.86098">
        <ele>536.8</ele>
        <time>2022-05-23 21:02:48</time>
      </trkpt>
      <trkpt lat="41.42574" lon="0.86102">
        <ele>536.8</ele>
        <time>2022-05-23 21:02:49</time>
      </trkpt>
      <trkpt lat="41.42571" lon="0.86107">
        <ele>537</ele>
        <time>2022-05-23 21:02:50</time>
      </trkpt>
      <trkpt lat="41.42568" lon="0.8611">
        <ele>537</ele>
        <time>2022-05-23 21:02:51</time>
      </trkpt>
      <trkpt lat="41.42566" lon="0.86112">
        <ele>537.2</ele>
        <time>2022-05-23 21:02:52</time>
      </trkpt>
      <trkpt lat="41.42564" lon="0.86114">
        <ele>537.2</ele>
        <time>2022-05-23 21:02:53</time>
      </trkpt>
      <trkpt lat="41.42564" lon="0.86115">
        <ele>537.2</ele>
        <time>2022-05-23 21:02:54</time>
      </trkpt>
      <trkpt lat="41.42556" lon="0.86122">
        <ele>537.4</ele>
        <time>2022-05-23 21:02:55</time>
      </trkpt>
      <trkpt lat="41.42554" lon="0.86124">
        <ele>537.4</ele>
        <time>2022-05-23 21:02:56</time>
      </trkpt>
      <trkpt lat="41.42553" lon="0.86126">
        <ele>537.4</ele>
        <time>2022-05-23 21:02:57</time>
      </trkpt>
      <trkpt lat="41.42551" lon="0.86129">
        <ele>537.4</ele>
        <time>2022-05-23 21:02:58</time>
      </trkpt>
      <trkpt lat="41.42549" lon="0.86132">
        <ele>537.4</ele>
        <time>2022-05-23 21:02:59</time>
      </trkpt>
      <trkpt lat="41.42548" lon="0.86135">
        <ele>537.4</ele>
        <time>2022-05-23 21:03:00</time>
      </trkpt>
      <trkpt lat="41.42546" lon="0.86138">
        <ele>537.4</ele>
        <time>2022-05-23 21:03:01</time>
      </trkpt>
      <trkpt lat="41.42544" lon="0.8614">
        <ele>537.4</ele>
        <time>2022-05-23 21:03:02</time>
      </trkpt>
      <trkpt lat="41.42542" lon="0.86142">
        <ele>537.4</ele>
        <time>2022-05-23 21:03:03</time>
      </trkpt>
      <trkpt lat="41.42539" lon="0.86144">
        <ele>537.4</ele>
        <time>2022-05-23 21:03:04</time>
      </trkpt>
      <trkpt lat="41.42537" lon="0.86147">
        <ele>537.4</ele>
        <time>2022-05-23 21:03:05</time>
      </trkpt>
      <trkpt lat="41.42535" lon="0.86149">
        <ele>537.4</ele>
        <time>2022-05-23 21:03:06</time>
      </trkpt>
      <trkpt lat="41.42533" lon="0.86152">
        <ele>537.6</ele>
        <time>2022-05-23 21:03:07</time>
      </trkpt>
      <trkpt lat="41.42531" lon="0.86153">
        <ele>537.6</ele>
        <time>2022-05-23 21:03:08</time>
      </trkpt>
      <trkpt lat="41.4253" lon="0.86155">
        <ele>537.6</ele>
        <time>2022-05-23 21:03:09</time>
      </trkpt>
      <trkpt lat="41.42527" lon="0.86158">
        <ele>537.8</ele>
        <time>2022-05-23 21:03:10</time>
      </trkpt>
      <trkpt lat="41.42525" lon="0.8616">
        <ele>537.8</ele>
        <time>2022-05-23 21:03:11</time>
      </trkpt>
      <trkpt lat="41.42523" lon="0.86163">
        <ele>537.8</ele>
        <time>2022-05-23 21:03:12</time>
      </trkpt>
      <trkpt lat="41.42521" lon="0.86166">
        <ele>538</ele>
        <time>2022-05-23 21:03:13</time>
      </trkpt>
      <trkpt lat="41.42519" lon="0.86168">
        <ele>538</ele>
        <time>2022-05-23 21:03:14</time>
      </trkpt>
      <trkpt lat="41.42516" lon="0.86171">
        <ele>538</ele>
        <time>2022-05-23 21:03:15</time>
      </trkpt>
      <trkpt lat="41.42514" lon="0.86174">
        <ele>538.2</ele>
        <time>2022-05-23 21:03:16</time>
      </trkpt>
      <trkpt lat="41.42512" lon="0.86176">
        <ele>538.2</ele>
        <time>2022-05-23 21:03:17</time>
      </trkpt>
      <trkpt lat="41.42509" lon="0.86179">
        <ele>538.2</ele>
        <time>2022-05-23 21:03:18</time>
      </trkpt>
      <trkpt lat="41.42507" lon="0.86182">
        <ele>538.4</ele>
        <time>2022-05-23 21:03:19</time>
      </trkpt>
      <trkpt lat="41.42505" lon="0.86185">
        <ele>538.4</ele>
        <time>2022-05-23 21:03:20</time>
      </trkpt>
      <trkpt lat="41.42503" lon="0.86188">
        <ele>538.6</ele>
        <time>2022-05-23 21:03:21</time>
      </trkpt>
      <trkpt lat="41.42501" lon="0.86192">
        <ele>538.6</ele>
        <time>2022-05-23 21:03:22</time>
      </trkpt>
      <trkpt lat="41.42498" lon="0.86194">
        <ele>538.6</ele>
        <time>2022-05-23 21:03:23</time>
      </trkpt>
      <trkpt lat="41.42496" lon="0.86197">
        <ele>538.8</ele>
        <time>2022-05-23 21:03:24</time>
      </trkpt>
      <trkpt lat="41.42493" lon="0.862">
        <ele>538.8</ele>
        <time>2022-05-23 21:03:25</time>
      </trkpt>
      <trkpt lat="41.42491" lon="0.86202">
        <ele>538.8</ele>
        <time>2022-05-23 21:03:26</time>
      </trkpt>
      <trkpt lat="41.42489" lon="0.86204">
        <ele>539</ele>
        <time>2022-05-23 21:03:27</time>
      </trkpt>
      <trkpt lat="41.42486" lon="0.86207">
        <ele>539</ele>
        <time>2022-05-23 21:03:28</time>
      </trkpt>
      <trkpt lat="41.42484" lon="0.8621">
        <ele>539.2</ele>
        <time>2022-05-23 21:03:29</time>
      </trkpt>
      <trkpt lat="41.42482" lon="0.86213">
        <ele>539.2</ele>
        <time>2022-05-23 21:03:30</time>
      </trkpt>
      <trkpt lat="41.4248" lon="0.86215">
        <ele>539.2</ele>
        <time>2022-05-23 21:03:31</time>
      </trkpt>
      <trkpt lat="41.42477" lon="0.86218">
        <ele>539.4</ele>
        <time>2022-05-23 21:03:32</time>
      </trkpt>
      <trkpt lat="41.42475" lon="0.86221">
        <ele>539.4</ele>
        <time>2022-05-23 21:03:33</time>
      </trkpt>
      <trkpt lat="41.42473" lon="0.86223">
        <ele>539.4</ele>
        <time>2022-05-23 21:03:34</time>
      </trkpt>
      <trkpt lat="41.42471" lon="0.86226">
        <ele>539.6</ele>
        <time>2022-05-23 21:03:35</time>
      </trkpt>
      <trkpt lat="41.42469" lon="0.86229">
        <ele>539.6</ele>
        <time>2022-05-23 21:03:36</time>
      </trkpt>
      <trkpt lat="41.42466" lon="0.86232">
        <ele>539.6</ele>
        <time>2022-05-23 21:03:37</time>
      </trkpt>
      <trkpt lat="41.42464" lon="0.86236">
        <ele>539.6</ele>
        <time>2022-05-23 21:03:38</time>
      </trkpt>
      <trkpt lat="41.42461" lon="0.86238">
        <ele>539.8</ele>
        <time>2022-05-23 21:03:39</time>
      </trkpt>
      <trkpt lat="41.42459" lon="0.86241">
        <ele>539.8</ele>
        <time>2022-05-23 21:03:40</time>
      </trkpt>
      <trkpt lat="41.42457" lon="0.86244">
        <ele>539.8</ele>
        <time>2022-05-23 21:03:41</time>
      </trkpt>
      <trkpt lat="41.42454" lon="0.86247">
        <ele>539.8</ele>
        <time>2022-05-23 21:03:42</time>
      </trkpt>
      <trkpt lat="41.42453" lon="0.86249">
        <ele>539.8</ele>
        <time>2022-05-23 21:03:43</time>
      </trkpt>
      <trkpt lat="41.4245" lon="0.86252">
        <ele>539.8</ele>
        <time>2022-05-23 21:03:44</time>
      </trkpt>
      <trkpt lat="41.42448" lon="0.86254">
        <ele>539.8</ele>
        <time>2022-05-23 21:03:45</time>
      </trkpt>
      <trkpt lat="41.42445" lon="0.86257">
        <ele>539.8</ele>
        <time>2022-05-23 21:03:46</time>
      </trkpt>
      <trkpt lat="41.42443" lon="0.86259">
        <ele>539.8</ele>
        <time>2022-05-23 21:03:47</time>
      </trkpt>
      <trkpt lat="41.4244" lon="0.86262">
        <ele>539.8</ele>
        <time>2022-05-23 21:03:48</time>
      </trkpt>
      <trkpt lat="41.42438" lon="0.86264">
        <ele>539.8</ele>
        <time>2022-05-23 21:03:49</time>
      </trkpt>
      <trkpt lat="41.42436" lon="0.86267">
        <ele>539.8</ele>
        <time>2022-05-23 21:03:50</time>
      </trkpt>
      <trkpt lat="41.42433" lon="0.8627">
        <ele>540</ele>
        <time>2022-05-23 21:03:51</time>
      </trkpt>
      <trkpt lat="41.4243" lon="0.86273">
        <ele>540</ele>
        <time>2022-05-23 21:15:15</time>
      </trkpt>
      <trkpt lat="41.42428" lon="0.86275">
        <ele>540</ele>
        <time>2022-05-23 21:15:16</time>
      </trkpt>
      <trkpt lat="41.42426" lon="0.86278">
        <ele>540</ele>
        <time>2022-05-23 21:15:17</time>
      </trkpt>
      <trkpt lat="41.42424" lon="0.8628">
        <ele>540</ele>
        <time>2022-05-23 21:15:18</time>
      </trkpt>
      <trkpt lat="41.42422" lon="0.86282">
        <ele>540</ele>
        <time>2022-05-23 21:15:19</time>
      </trkpt>
      <trkpt lat="41.42419" lon="0.86284">
        <ele>540</ele>
        <time>2022-05-23 21:15:20</time>
      </trkpt>
      <trkpt lat="41.42417" lon="0.86285">
        <ele>540</ele>
        <time>2022-05-23 21:15:21</time>
      </trkpt>
      <trkpt lat="41.42415" lon="0.86286">
        <ele>540.2</ele>
        <time>2022-05-23 21:15:22</time>
      </trkpt>
      <trkpt lat="41.42412" lon="0.86286">
        <ele>540.2</ele>
        <time>2022-05-23 21:15:23</time>
      </trkpt>
      <trkpt lat="41.42411" lon="0.86287">
        <ele>540.2</ele>
        <time>2022-05-23 21:15:24</time>
      </trkpt>
      <trkpt lat="41.42408" lon="0.86287">
        <ele>540.2</ele>
        <time>2022-05-23 21:15:25</time>
      </trkpt>
      <trkpt lat="41.42405" lon="0.86288">
        <ele>540.2</ele>
        <time>2022-05-23 21:15:26</time>
      </trkpt>
      <trkpt lat="41.42403" lon="0.86288">
        <ele>540.2</ele>
        <time>2022-05-23 21:15:27</time>
      </trkpt>
      <trkpt lat="41.42401" lon="0.86289">
        <ele>540.4</ele>
        <time>2022-05-23 21:15:28</time>
      </trkpt>
      <trkpt lat="41.42399" lon="0.86291">
        <ele>540.4</ele>
        <time>2022-05-23 21:15:29</time>
      </trkpt>
      <trkpt lat="41.42395" lon="0.86292">
        <ele>540.4</ele>
        <time>2022-05-23 21:15:30</time>
      </trkpt>
      <trkpt lat="41.42394" lon="0.86293">
        <ele>540.4</ele>
        <time>2022-05-23 21:15:31</time>
      </trkpt>
      <trkpt lat="41.42391" lon="0.86295">
        <ele>540.4</ele>
        <time>2022-05-23 21:15:32</time>
      </trkpt>
      <trkpt lat="41.42388" lon="0.86297">
        <ele>540.6</ele>
        <time>2022-05-23 21:15:33</time>
      </trkpt>
      <trkpt lat="41.42386" lon="0.86299">
        <ele>540.6</ele>
        <time>2022-05-23 21:15:34</time>
      </trkpt>
      <trkpt lat="41.42384" lon="0.86301">
        <ele>540.6</ele>
        <time>2022-05-23 21:15:35</time>
      </trkpt>
      <trkpt lat="41.42382" lon="0.86304">
        <ele>540.8</ele>
        <time>2022-05-23 21:15:36</time>
      </trkpt>
      <trkpt lat="41.42381" lon="0.86306">
        <ele>541</ele>
        <time>2022-05-23 21:15:37</time>
      </trkpt>
      <trkpt lat="41.42379" lon="0.86309">
        <ele>541</ele>
        <time>2022-05-23 21:15:38</time>
      </trkpt>
      <trkpt lat="41.42377" lon="0.86311">
        <ele>541.2</ele>
        <time>2022-05-23 21:15:39</time>
      </trkpt>
      <trkpt lat="41.42375" lon="0.86313">
        <ele>541.2</ele>
        <time>2022-05-23 21:15:40</time>
      </trkpt>
      <trkpt lat="41.42373" lon="0.86315">
        <ele>541.4</ele>
        <time>2022-05-23 21:15:41</time>
      </trkpt>
      <trkpt lat="41.42372" lon="0.86318">
        <ele>541.4</ele>
        <time>2022-05-23 21:15:42</time>
      </trkpt>
      <trkpt lat="41.4237" lon="0.86321">
        <ele>541.6</ele>
        <time>2022-05-23 21:15:43</time>
      </trkpt>
      <trkpt lat="41.42369" lon="0.86323">
        <ele>541.6</ele>
        <time>2022-05-23 21:15:44</time>
      </trkpt>
      <trkpt lat="41.42368" lon="0.86326">
        <ele>541.8</ele>
        <time>2022-05-23 21:15:45</time>
      </trkpt>
      <trkpt lat="41.42366" lon="0.86329">
        <ele>541.8</ele>
        <time>2022-05-23 21:15:46</time>
      </trkpt>
      <trkpt lat="41.42364" lon="0.86332">
        <ele>541.8</ele>
        <time>2022-05-23 21:15:47</time>
      </trkpt>
      <trkpt lat="41.42362" lon="0.86334">
        <ele>542</ele>
        <time>2022-05-23 21:15:48</time>
      </trkpt>
      <trkpt lat="41.42361" lon="0.86336">
        <ele>542</ele>
        <time>2022-05-23 21:15:49</time>
      </trkpt>
      <trkpt lat="41.42358" lon="0.86338">
        <ele>542</ele>
        <time>2022-05-23 21:15:50</time>
      </trkpt>
      <trkpt lat="41.42356" lon="0.8634">
        <ele>542</ele>
        <time>2022-05-23 21:15:51</time>
      </trkpt>
      <trkpt lat="41.42354" lon="0.86342">
        <ele>542</ele>
        <time>2022-05-23 21:15:52</time>
      </trkpt>
      <trkpt lat="41.42351" lon="0.86344">
        <ele>541.8</ele>
        <time>2022-05-23 21:15:53</time>
      </trkpt>
      <trkpt lat="41.42348" lon="0.86345">
        <ele>541.8</ele>
        <time>2022-05-23 21:15:54</time>
      </trkpt>
      <trkpt lat="41.42345" lon="0.86346">
        <ele>541.6</ele>
        <time>2022-05-23 21:15:55</time>
      </trkpt>
      <trkpt lat="41.42341" lon="0.86348">
        <ele>541.4</ele>
        <time>2022-05-23 21:15:56</time>
      </trkpt>
      <trkpt lat="41.42338" lon="0.8635">
        <ele>541</ele>
        <time>2022-05-23 21:15:57</time>
      </trkpt>
      <trkpt lat="41.42334" lon="0.86351">
        <ele>540.8</ele>
        <time>2022-05-23 21:15:58</time>
      </trkpt>
      <trkpt lat="41.4233" lon="0.86353">
        <ele>540.6</ele>
        <time>2022-05-23 21:15:59</time>
      </trkpt>
      <trkpt lat="41.42325" lon="0.86354">
        <ele>540.2</ele>
        <time>2022-05-23 21:16:00</time>
      </trkpt>
      <trkpt lat="41.42322" lon="0.86355">
        <ele>540</ele>
        <time>2022-05-23 21:16:01</time>
      </trkpt>
      <trkpt lat="41.42318" lon="0.86358">
        <ele>539.8</ele>
        <time>2022-05-23 21:16:02</time>
      </trkpt>
      <trkpt lat="41.42314" lon="0.86359">
        <ele>539.6</ele>
        <time>2022-05-23 21:16:03</time>
      </trkpt>
      <trkpt lat="41.42312" lon="0.86361">
        <ele>539.4</ele>
        <time>2022-05-23 21:16:04</time>
      </trkpt>
      <trkpt lat="41.42309" lon="0.86362">
        <ele>539.2</ele>
        <time>2022-05-23 21:16:05</time>
      </trkpt>
      <trkpt lat="41.4229" lon="0.86378">
        <ele>538.2</ele>
        <time>2022-05-23 21:16:06</time>
      </trkpt>
      <trkpt lat="41.42287" lon="0.86381">
        <ele>538.2</ele>
        <time>2022-05-23 21:16:07</time>
      </trkpt>
      <trkpt lat="41.42285" lon="0.86383">
        <ele>538</ele>
        <time>2022-05-23 21:16:08</time>
      </trkpt>
      <trkpt lat="41.42283" lon="0.86385">
        <ele>538</ele>
        <time>2022-05-23 21:16:09</time>
      </trkpt>
      <trkpt lat="41.42282" lon="0.86387">
        <ele>537.8</ele>
        <time>2022-05-23 21:16:10</time>
      </trkpt>
      <trkpt lat="41.42281" lon="0.86388">
        <ele>537.8</ele>
        <time>2022-05-23 21:16:11</time>
      </trkpt>
      <trkpt lat="41.42281" lon="0.86388">
        <ele>537.6</ele>
        <time>2022-05-23 21:16:12</time>
      </trkpt>
      <trkpt lat="41.42281" lon="0.86388">
        <ele>537.6</ele>
        <time>2022-05-23 21:16:13</time>
      </trkpt>
      <trkpt lat="41.42281" lon="0.86388">
        <ele>537.4</ele>
        <time>2022-05-23 21:16:14</time>
      </trkpt>
      <trkpt lat="41.42281" lon="0.86388">
        <ele>537.4</ele>
        <time>2022-05-23 21:16:15</time>
      </trkpt>
      <trkpt lat="41.42281" lon="0.86388">
        <ele>537.2</ele>
        <time>2022-05-23 21:16:16</time>
      </trkpt>
      <trkpt lat="41.42279" lon="0.86391">
        <ele>537.2</ele>
        <time>2022-05-23 21:16:17</time>
      </trkpt>
      <trkpt lat="41.42277" lon="0.86395">
        <ele>537</ele>
        <time>2022-05-23 21:16:18</time>
      </trkpt>
      <trkpt lat="41.42276" lon="0.86399">
        <ele>536.8</ele>
        <time>2022-05-23 21:16:19</time>
      </trkpt>
      <trkpt lat="41.42275" lon="0.86404">
        <ele>536.4</ele>
        <time>2022-05-23 21:16:20</time>
      </trkpt>
      <trkpt lat="41.42273" lon="0.86409">
        <ele>535.8</ele>
        <time>2022-05-23 21:16:21</time>
      </trkpt>
      <trkpt lat="41.42271" lon="0.86416">
        <ele>535.2</ele>
        <time>2022-05-23 21:16:22</time>
      </trkpt>
      <trkpt lat="41.42269" lon="0.86422">
        <ele>534.6</ele>
        <time>2022-05-23 21:16:23</time>
      </trkpt>
      <trkpt lat="41.42267" lon="0.8643">
        <ele>533.6</ele>
        <time>2022-05-23 21:16:24</time>
      </trkpt>
      <trkpt lat="41.42264" lon="0.86439">
        <ele>532.8</ele>
        <time>2022-05-23 21:16:25</time>
      </trkpt>
      <trkpt lat="41.42262" lon="0.86449">
        <ele>531.6</ele>
        <time>2022-05-23 21:16:26</time>
      </trkpt>
      <trkpt lat="41.4226" lon="0.8646">
        <ele>530.2</ele>
        <time>2022-05-23 21:16:27</time>
      </trkpt>
      <trkpt lat="41.42256" lon="0.86473">
        <ele>528.8</ele>
        <time>2022-05-23 21:16:28</time>
      </trkpt>
      <trkpt lat="41.42253" lon="0.86489">
        <ele>527.4</ele>
        <time>2022-05-23 21:16:29</time>
      </trkpt>
      <trkpt lat="41.4225" lon="0.86503">
        <ele>526.2</ele>
        <time>2022-05-23 21:16:30</time>
      </trkpt>
      <trkpt lat="41.42247" lon="0.86516">
        <ele>524.8</ele>
        <time>2022-05-23 21:16:31</time>
      </trkpt>
      <trkpt lat="41.42242" lon="0.86532">
        <ele>523.4</ele>
        <time>2022-05-23 21:16:32</time>
      </trkpt>
      <trkpt lat="41.42239" lon="0.86542">
        <ele>522</ele>
        <time>2022-05-23 21:16:33</time>
      </trkpt>
      <trkpt lat="41.42234" lon="0.86555">
        <ele>520.8</ele>
        <time>2022-05-23 21:16:34</time>
      </trkpt>
      <trkpt lat="41.42228" lon="0.86568">
        <ele>519.8</ele>
        <time>2022-05-23 21:16:35</time>
      </trkpt>
      <trkpt lat="41.42221" lon="0.8658">
        <ele>519</ele>
        <time>2022-05-23 21:16:36</time>
      </trkpt>
      <trkpt lat="41.42213" lon="0.8659">
        <ele>518.2</ele>
        <time>2022-05-23 21:16:37</time>
      </trkpt>
      <trkpt lat="41.42206" lon="0.86598">
        <ele>518</ele>
        <time>2022-05-23 21:16:38</time>
      </trkpt>
      <trkpt lat="41.42196" lon="0.86608">
        <ele>517.8</ele>
        <time>2022-05-23 21:16:39</time>
      </trkpt>
      <trkpt lat="41.4219" lon="0.86614">
        <ele>518</ele>
        <time>2022-05-23 21:16:40</time>
      </trkpt>
      <trkpt lat="41.42182" lon="0.86622">
        <ele>518.4</ele>
        <time>2022-05-23 21:16:41</time>
      </trkpt>
      <trkpt lat="41.42178" lon="0.86626">
        <ele>518.8</ele>
        <time>2022-05-23 21:16:42</time>
      </trkpt>
      <trkpt lat="41.42172" lon="0.86632">
        <ele>519.4</ele>
        <time>2022-05-23 21:16:43</time>
      </trkpt>
      <trkpt lat="41.42169" lon="0.86636">
        <ele>520</ele>
        <time>2022-05-23 21:16:44</time>
      </trkpt>
      <trkpt lat="41.42165" lon="0.8664">
        <ele>520.4</ele>
        <time>2022-05-23 21:16:45</time>
      </trkpt>
      <trkpt lat="41.42163" lon="0.86642">
        <ele>521</ele>
        <time>2022-05-23 21:16:46</time>
      </trkpt>
      <trkpt lat="41.42161" lon="0.86645">
        <ele>521.2</ele>
        <time>2022-05-23 21:16:47</time>
      </trkpt>
      <trkpt lat="41.42159" lon="0.86647">
        <ele>521.8</ele>
        <time>2022-05-23 21:16:48</time>
      </trkpt>
      <trkpt lat="41.42158" lon="0.86649">
        <ele>522</ele>
        <time>2022-05-23 21:16:49</time>
      </trkpt>
      <trkpt lat="41.42156" lon="0.86651">
        <ele>522.4</ele>
        <time>2022-05-23 21:16:50</time>
      </trkpt>
      <trkpt lat="41.42155" lon="0.86652">
        <ele>522.6</ele>
        <time>2022-05-23 21:16:51</time>
      </trkpt>
      <trkpt lat="41.42153" lon="0.86654">
        <ele>522.8</ele>
        <time>2022-05-23 21:16:52</time>
      </trkpt>
      <trkpt lat="41.42151" lon="0.86657">
        <ele>522.8</ele>
        <time>2022-05-23 21:16:53</time>
      </trkpt>
      <trkpt lat="41.42149" lon="0.86659">
        <ele>523</ele>
        <time>2022-05-23 21:16:54</time>
      </trkpt>
      <trkpt lat="41.42147" lon="0.86661">
        <ele>523</ele>
        <time>2022-05-23 21:16:55</time>
      </trkpt>
      <trkpt lat="41.42145" lon="0.86663">
        <ele>523.2</ele>
        <time>2022-05-23 21:16:56</time>
      </trkpt>
      <trkpt lat="41.42143" lon="0.86665">
        <ele>523.2</ele>
        <time>2022-05-23 21:16:57</time>
      </trkpt>
      <trkpt lat="41.42141" lon="0.86667">
        <ele>523.4</ele>
        <time>2022-05-23 21:16:58</time>
      </trkpt>
      <trkpt lat="41.42139" lon="0.86668">
        <ele>523.4</ele>
        <time>2022-05-23 21:16:59</time>
      </trkpt>
      <trkpt lat="41.42137" lon="0.8667">
        <ele>523.4</ele>
        <time>2022-05-23 21:17:00</time>
      </trkpt>
      <trkpt lat="41.42135" lon="0.86672">
        <ele>523.6</ele>
        <time>2022-05-23 21:17:01</time>
      </trkpt>
      <trkpt lat="41.42133" lon="0.86674">
        <ele>523.6</ele>
        <time>2022-05-23 21:17:02</time>
      </trkpt>
      <trkpt lat="41.42132" lon="0.86676">
        <ele>523.6</ele>
        <time>2022-05-23 21:20:25</time>
      </trkpt>
      <trkpt lat="41.4213" lon="0.86677">
        <ele>523.6</ele>
        <time>2022-05-23 21:20:26</time>
      </trkpt>
      <trkpt lat="41.42129" lon="0.86679">
        <ele>523.6</ele>
        <time>2022-05-23 21:20:27</time>
      </trkpt>
      <trkpt lat="41.42127" lon="0.8668">
        <ele>523.6</ele>
        <time>2022-05-23 21:20:28</time>
      </trkpt>
      <trkpt lat="41.42124" lon="0.86683">
        <ele>523.4</ele>
        <time>2022-05-23 21:20:29</time>
      </trkpt>
      <trkpt lat="41.42122" lon="0.86684">
        <ele>523.4</ele>
        <time>2022-05-23 21:20:30</time>
      </trkpt>
      <trkpt lat="41.42119" lon="0.86688">
        <ele>523.4</ele>
        <time>2022-05-23 21:20:31</time>
      </trkpt>
      <trkpt lat="41.42116" lon="0.8669">
        <ele>523.4</ele>
        <time>2022-05-23 21:20:32</time>
      </trkpt>
      <trkpt lat="41.42114" lon="0.86693">
        <ele>523.4</ele>
        <time>2022-05-23 21:20:33</time>
      </trkpt>
      <trkpt lat="41.42111" lon="0.86696">
        <ele>523.2</ele>
        <time>2022-05-23 21:20:34</time>
      </trkpt>
      <trkpt lat="41.42108" lon="0.86698">
        <ele>523.2</ele>
        <time>2022-05-23 21:21:22</time>
      </trkpt>
      <trkpt lat="41.42106" lon="0.86701">
        <ele>523.2</ele>
        <time>2022-05-23 21:21:23</time>
      </trkpt>
      <trkpt lat="41.42103" lon="0.86704">
        <ele>523.2</ele>
        <time>2022-05-23 21:21:24</time>
      </trkpt>
      <trkpt lat="41.421" lon="0.86707">
        <ele>523</ele>
        <time>2022-05-23 21:21:25</time>
      </trkpt>
      <trkpt lat="41.42098" lon="0.86709">
        <ele>523</ele>
        <time>2022-05-23 21:21:26</time>
      </trkpt>
      <trkpt lat="41.42095" lon="0.86712">
        <ele>523</ele>
        <time>2022-05-23 21:21:27</time>
      </trkpt>
      <trkpt lat="41.42092" lon="0.86713">
        <ele>523</ele>
        <time>2022-05-23 21:21:28</time>
      </trkpt>
      <trkpt lat="41.42089" lon="0.86715">
        <ele>523</ele>
        <time>2022-05-23 21:21:29</time>
      </trkpt>
      <trkpt lat="41.42086" lon="0.86716">
        <ele>523</ele>
        <time>2022-05-23 21:21:30</time>
      </trkpt>
      <trkpt lat="41.42083" lon="0.86718">
        <ele>523</ele>
        <time>2022-05-23 21:21:31</time>
      </trkpt>
      <trkpt lat="41.4208" lon="0.86719">
        <ele>523</ele>
        <time>2022-05-23 21:21:32</time>
      </trkpt>
      <trkpt lat="41.42076" lon="0.86721">
        <ele>523</ele>
        <time>2022-05-23 21:21:33</time>
      </trkpt>
      <trkpt lat="41.42073" lon="0.86724">
        <ele>523</ele>
        <time>2022-05-23 21:21:34</time>
      </trkpt>
      <trkpt lat="41.42071" lon="0.86725">
        <ele>523.2</ele>
        <time>2022-05-23 21:21:35</time>
      </trkpt>
      <trkpt lat="41.42068" lon="0.86728">
        <ele>523.2</ele>
        <time>2022-05-23 21:21:36</time>
      </trkpt>
      <trkpt lat="41.42065" lon="0.86729">
        <ele>523.2</ele>
        <time>2022-05-23 21:21:37</time>
      </trkpt>
      <trkpt lat="41.42062" lon="0.86731">
        <ele>523.4</ele>
        <time>2022-05-23 21:21:38</time>
      </trkpt>
      <trkpt lat="41.42059" lon="0.86733">
        <ele>523.4</ele>
        <time>2022-05-23 21:21:39</time>
      </trkpt>
      <trkpt lat="41.42056" lon="0.86735">
        <ele>523.6</ele>
        <time>2022-05-23 21:21:40</time>
      </trkpt>
      <trkpt lat="41.42054" lon="0.86737">
        <ele>523.6</ele>
        <time>2022-05-23 21:21:41</time>
      </trkpt>
      <trkpt lat="41.4205" lon="0.86741">
        <ele>523.8</ele>
        <time>2022-05-23 21:21:42</time>
      </trkpt>
      <trkpt lat="41.42048" lon="0.86744">
        <ele>523.8</ele>
        <time>2022-05-23 21:21:43</time>
      </trkpt>
      <trkpt lat="41.42046" lon="0.86746">
        <ele>523.8</ele>
        <time>2022-05-23 21:21:44</time>
      </trkpt>
      <trkpt lat="41.42043" lon="0.86749">
        <ele>524</ele>
        <time>2022-05-23 21:21:45</time>
      </trkpt>
      <trkpt lat="41.4204" lon="0.86752">
        <ele>524</ele>
        <time>2022-05-23 21:21:46</time>
      </trkpt>
      <trkpt lat="41.42038" lon="0.86753">
        <ele>524</ele>
        <time>2022-05-23 21:21:47</time>
      </trkpt>
      <trkpt lat="41.42035" lon="0.86756">
        <ele>524</ele>
        <time>2022-05-23 21:21:48</time>
      </trkpt>
      <trkpt lat="41.42033" lon="0.86758">
        <ele>524.2</ele>
        <time>2022-05-23 21:21:49</time>
      </trkpt>
      <trkpt lat="41.42031" lon="0.8676">
        <ele>524.2</ele>
        <time>2022-05-23 21:21:50</time>
      </trkpt>
      <trkpt lat="41.42028" lon="0.86762">
        <ele>524.2</ele>
        <time>2022-05-23 21:21:51</time>
      </trkpt>
      <trkpt lat="41.42025" lon="0.86764">
        <ele>524.2</ele>
        <time>2022-05-23 21:21:52</time>
      </trkpt>
      <trkpt lat="41.42022" lon="0.86767">
        <ele>524.2</ele>
        <time>2022-05-23 21:21:53</time>
      </trkpt>
      <trkpt lat="41.42019" lon="0.86769">
        <ele>524.2</ele>
        <time>2022-05-23 21:21:54</time>
      </trkpt>
      <trkpt lat="41.42016" lon="0.86771">
        <ele>524.2</ele>
        <time>2022-05-23 21:21:55</time>
      </trkpt>
      <trkpt lat="41.42013" lon="0.86773">
        <ele>524.2</ele>
        <time>2022-05-23 21:21:56</time>
      </trkpt>
      <trkpt lat="41.4201" lon="0.86775">
        <ele>524.4</ele>
        <time>2022-05-23 21:21:57</time>
      </trkpt>
      <trkpt lat="41.42007" lon="0.86777">
        <ele>524.4</ele>
        <time>2022-05-23 21:21:58</time>
      </trkpt>
      <trkpt lat="41.42004" lon="0.86778">
        <ele>524.4</ele>
        <time>2022-05-23 21:21:59</time>
      </trkpt>
      <trkpt lat="41.42001" lon="0.86779">
        <ele>524.4</ele>
        <time>2022-05-23 21:22:00</time>
      </trkpt>
      <trkpt lat="41.41999" lon="0.8678">
        <ele>524.4</ele>
        <time>2022-05-23 21:22:01</time>
      </trkpt>
      <trkpt lat="41.41996" lon="0.8678">
        <ele>524.4</ele>
        <time>2022-05-23 21:22:02</time>
      </trkpt>
      <trkpt lat="41.41992" lon="0.86781">
        <ele>524.6</ele>
        <time>2022-05-23 21:22:03</time>
      </trkpt>
      <trkpt lat="41.4199" lon="0.86783">
        <ele>524.6</ele>
        <time>2022-05-23 21:22:04</time>
      </trkpt>
      <trkpt lat="41.41987" lon="0.86784">
        <ele>524.8</ele>
        <time>2022-05-23 21:22:05</time>
      </trkpt>
      <trkpt lat="41.41985" lon="0.86785">
        <ele>525</ele>
        <time>2022-05-23 21:22:06</time>
      </trkpt>
      <trkpt lat="41.41982" lon="0.86785">
        <ele>525.2</ele>
        <time>2022-05-23 21:22:07</time>
      </trkpt>
      <trkpt lat="41.4198" lon="0.86786">
        <ele>525.4</ele>
        <time>2022-05-23 21:22:08</time>
      </trkpt>
      <trkpt lat="41.41978" lon="0.86785">
        <ele>525.6</ele>
        <time>2022-05-23 21:22:09</time>
      </trkpt>
      <trkpt lat="41.41976" lon="0.86785">
        <ele>525.8</ele>
        <time>2022-05-23 21:22:10</time>
      </trkpt>
      <trkpt lat="41.41974" lon="0.86785">
        <ele>525.8</ele>
        <time>2022-05-23 21:22:11</time>
      </trkpt>
      <trkpt lat="41.41973" lon="0.86785">
        <ele>526</ele>
        <time>2022-05-23 21:22:12</time>
      </trkpt>
      <trkpt lat="41.41971" lon="0.86784">
        <ele>526.2</ele>
        <time>2022-05-23 21:22:13</time>
      </trkpt>
      <trkpt lat="41.4197" lon="0.86785">
        <ele>526.2</ele>
        <time>2022-05-23 21:22:14</time>
      </trkpt>
      <trkpt lat="41.41968" lon="0.86785">
        <ele>526.4</ele>
        <time>2022-05-23 21:22:15</time>
      </trkpt>
      <trkpt lat="41.41966" lon="0.86785">
        <ele>526.6</ele>
        <time>2022-05-23 21:22:16</time>
      </trkpt>
      <trkpt lat="41.41964" lon="0.86785">
        <ele>526.8</ele>
        <time>2022-05-23 21:22:17</time>
      </trkpt>
      <trkpt lat="41.41963" lon="0.86785">
        <ele>526.8</ele>
        <time>2022-05-23 21:22:18</time>
      </trkpt>
      <trkpt lat="41.41962" lon="0.86785">
        <ele>527</ele>
        <time>2022-05-23 21:22:19</time>
      </trkpt>
      <trkpt lat="41.41961" lon="0.86785">
        <ele>527</ele>
        <time>2022-05-23 21:22:20</time>
      </trkpt>
      <trkpt lat="41.4196" lon="0.86785">
        <ele>527.2</ele>
        <time>2022-05-23 21:22:21</time>
      </trkpt>
      <trkpt lat="41.41959" lon="0.86785">
        <ele>527.4</ele>
        <time>2022-05-23 21:22:22</time>
      </trkpt>
      <trkpt lat="41.41958" lon="0.86786">
        <ele>527.4</ele>
        <time>2022-05-23 21:22:23</time>
      </trkpt>
      <trkpt lat="41.41957" lon="0.86787">
        <ele>527.6</ele>
        <time>2022-05-23 21:22:24</time>
      </trkpt>
      <trkpt lat="41.41956" lon="0.86788">
        <ele>527.6</ele>
        <time>2022-05-23 21:22:25</time>
      </trkpt>
      <trkpt lat="41.41955" lon="0.86789">
        <ele>527.8</ele>
        <time>2022-05-23 21:22:26</time>
      </trkpt>
      <trkpt lat="41.41954" lon="0.86789">
        <ele>527.8</ele>
        <time>2022-05-23 21:22:27</time>
      </trkpt>
      <trkpt lat="41.41953" lon="0.8679">
        <ele>528</ele>
        <time>2022-05-23 21:22:28</time>
      </trkpt>
      <trkpt lat="41.41951" lon="0.8679">
        <ele>528</ele>
        <time>2022-05-23 21:22:29</time>
      </trkpt>
      <trkpt lat="41.4195" lon="0.86791">
        <ele>528.2</ele>
        <time>2022-05-23 21:22:30</time>
      </trkpt>
      <trkpt lat="41.41949" lon="0.86791">
        <ele>528.2</ele>
        <time>2022-05-23 21:22:31</time>
      </trkpt>
      <trkpt lat="41.41947" lon="0.86792">
        <ele>528.2</ele>
        <time>2022-05-23 21:22:32</time>
      </trkpt>
      <trkpt lat="41.41946" lon="0.86792">
        <ele>528.4</ele>
        <time>2022-05-23 21:22:33</time>
      </trkpt>
      <trkpt lat="41.41944" lon="0.86792">
        <ele>528.4</ele>
        <time>2022-05-23 21:22:34</time>
      </trkpt>
      <trkpt lat="41.41943" lon="0.86792">
        <ele>528.6</ele>
        <time>2022-05-23 21:22:35</time>
      </trkpt>
      <trkpt lat="41.41942" lon="0.86792">
        <ele>528.6</ele>
        <time>2022-05-23 21:22:36</time>
      </trkpt>
      <trkpt lat="41.4194" lon="0.86792">
        <ele>528.8</ele>
        <time>2022-05-23 21:22:37</time>
      </trkpt>
      <trkpt lat="41.41939" lon="0.86793">
        <ele>528.8</ele>
        <time>2022-05-23 21:22:38</time>
      </trkpt>
      <trkpt lat="41.41937" lon="0.86794">
        <ele>529</ele>
        <time>2022-05-23 21:22:39</time>
      </trkpt>
      <trkpt lat="41.41936" lon="0.86795">
        <ele>529</ele>
        <time>2022-05-23 21:22:40</time>
      </trkpt>
      <trkpt lat="41.41934" lon="0.86796">
        <ele>529</ele>
        <time>2022-05-23 21:22:41</time>
      </trkpt>
      <trkpt lat="41.41932" lon="0.86797">
        <ele>529</ele>
        <time>2022-05-23 21:22:42</time>
      </trkpt>
      <trkpt lat="41.41931" lon="0.86798">
        <ele>529</ele>
        <time>2022-05-23 21:22:43</time>
      </trkpt>
      <trkpt lat="41.41929" lon="0.86799">
        <ele>529</ele>
        <time>2022-05-23 21:22:44</time>
      </trkpt>
      <trkpt lat="41.41927" lon="0.868">
        <ele>529.2</ele>
        <time>2022-05-23 21:22:45</time>
      </trkpt>
      <trkpt lat="41.41926" lon="0.86801">
        <ele>529.2</ele>
        <time>2022-05-23 21:22:46</time>
      </trkpt>
      <trkpt lat="41.41925" lon="0.86803">
        <ele>529.2</ele>
        <time>2022-05-23 21:22:47</time>
      </trkpt>
      <trkpt lat="41.41923" lon="0.86803">
        <ele>529.2</ele>
        <time>2022-05-23 21:22:48</time>
      </trkpt>
      <trkpt lat="41.41922" lon="0.86804">
        <ele>529.2</ele>
        <time>2022-05-23 21:22:49</time>
      </trkpt>
      <trkpt lat="41.4192" lon="0.86806">
        <ele>529.2</ele>
        <time>2022-05-23 21:22:50</time>
      </trkpt>
      <trkpt lat="41.41919" lon="0.86808">
        <ele>529.2</ele>
        <time>2022-05-23 21:22:51</time>
      </trkpt>
      <trkpt lat="41.41918" lon="0.86809">
        <ele>529.2</ele>
        <time>2022-05-23 21:22:52</time>
      </trkpt>
      <trkpt lat="41.41916" lon="0.86811">
        <ele>529.2</ele>
        <time>2022-05-23 21:22:53</time>
      </trkpt>
      <trkpt lat="41.41915" lon="0.86812">
        <ele>529</ele>
        <time>2022-05-23 21:22:54</time>
      </trkpt>
      <trkpt lat="41.41914" lon="0.86814">
        <ele>529</ele>
        <time>2022-05-23 21:22:55</time>
      </trkpt>
      <trkpt lat="41.41912" lon="0.86816">
        <ele>529</ele>
        <time>2022-05-23 21:22:56</time>
      </trkpt>
      <trkpt lat="41.41911" lon="0.86818">
        <ele>529</ele>
        <time>2022-05-23 21:22:57</time>
      </trkpt>
      <trkpt lat="41.41909" lon="0.8682">
        <ele>529</ele>
        <time>2022-05-23 21:22:58</time>
      </trkpt>
      <trkpt lat="41.41907" lon="0.86823">
        <ele>528.8</ele>
        <time>2022-05-23 21:22:59</time>
      </trkpt>
      <trkpt lat="41.41906" lon="0.86827">
        <ele>528.8</ele>
        <time>2022-05-23 21:23:00</time>
      </trkpt>
      <trkpt lat="41.41904" lon="0.8683">
        <ele>528.6</ele>
        <time>2022-05-23 21:23:01</time>
      </trkpt>
      <trkpt lat="41.41902" lon="0.86834">
        <ele>528.4</ele>
        <time>2022-05-23 21:23:02</time>
      </trkpt>
      <trkpt lat="41.419" lon="0.86838">
        <ele>528.2</ele>
        <time>2022-05-23 21:23:03</time>
      </trkpt>
      <trkpt lat="41.41897" lon="0.86842">
        <ele>528</ele>
        <time>2022-05-23 21:23:04</time>
      </trkpt>
      <trkpt lat="41.41894" lon="0.86848">
        <ele>527.6</ele>
        <time>2022-05-23 21:23:05</time>
      </trkpt>
      <trkpt lat="41.41892" lon="0.86852">
        <ele>527.2</ele>
        <time>2022-05-23 21:23:06</time>
      </trkpt>
      <trkpt lat="41.41888" lon="0.86859">
        <ele>526.8</ele>
        <time>2022-05-23 21:23:07</time>
      </trkpt>
      <trkpt lat="41.41885" lon="0.86864">
        <ele>526.4</ele>
        <time>2022-05-23 21:23:08</time>
      </trkpt>
      <trkpt lat="41.4188" lon="0.86872">
        <ele>526</ele>
        <time>2022-05-23 21:23:09</time>
      </trkpt>
      <trkpt lat="41.41877" lon="0.86877">
        <ele>525.6</ele>
        <time>2022-05-23 21:23:10</time>
      </trkpt>
      <trkpt lat="41.41872" lon="0.86886">
        <ele>525</ele>
        <time>2022-05-23 21:23:11</time>
      </trkpt>
      <trkpt lat="41.41869" lon="0.86891">
        <ele>524.8</ele>
        <time>2022-05-23 21:23:12</time>
      </trkpt>
      <trkpt lat="41.41863" lon="0.869">
        <ele>524.2</ele>
        <time>2022-05-23 21:23:13</time>
      </trkpt>
      <trkpt lat="41.41859" lon="0.86906">
        <ele>523.8</ele>
        <time>2022-05-23 21:23:14</time>
      </trkpt>
      <trkpt lat="41.41854" lon="0.86915">
        <ele>523.4</ele>
        <time>2022-05-23 21:23:15</time>
      </trkpt>
      <trkpt lat="41.4185" lon="0.86921">
        <ele>522.8</ele>
        <time>2022-05-23 21:23:16</time>
      </trkpt>
      <trkpt lat="41.41844" lon="0.86931">
        <ele>522.2</ele>
        <time>2022-05-23 21:23:17</time>
      </trkpt>
      <trkpt lat="41.41839" lon="0.86937">
        <ele>521.6</ele>
        <time>2022-05-23 21:23:18</time>
      </trkpt>
      <trkpt lat="41.41832" lon="0.86948">
        <ele>520.6</ele>
        <time>2022-05-23 21:23:19</time>
      </trkpt>
      <trkpt lat="41.41828" lon="0.86955">
        <ele>519.6</ele>
        <time>2022-05-23 21:23:20</time>
      </trkpt>
      <trkpt lat="41.41823" lon="0.86966">
        <ele>518.6</ele>
        <time>2022-05-23 21:23:21</time>
      </trkpt>
      <trkpt lat="41.41817" lon="0.86979">
        <ele>517.6</ele>
        <time>2022-05-23 21:23:22</time>
      </trkpt>
      <trkpt lat="41.41811" lon="0.86992">
        <ele>516.4</ele>
        <time>2022-05-23 21:23:23</time>
      </trkpt>
      <trkpt lat="41.41806" lon="0.87006">
        <ele>515.2</ele>
        <time>2022-05-23 21:23:24</time>
      </trkpt>
      <trkpt lat="41.41801" lon="0.87019">
        <ele>514.2</ele>
        <time>2022-05-23 21:23:25</time>
      </trkpt>
      <trkpt lat="41.41796" lon="0.87032">
        <ele>513.2</ele>
        <time>2022-05-23 21:23:26</time>
      </trkpt>
      <trkpt lat="41.41792" lon="0.87045">
        <ele>512.6</ele>
        <time>2022-05-23 21:23:27</time>
      </trkpt>
      <trkpt lat="41.41788" lon="0.87058">
        <ele>512.2</ele>
        <time>2022-05-23 21:23:28</time>
      </trkpt>
      <trkpt lat="41.41784" lon="0.87069">
        <ele>511.8</ele>
        <time>2022-05-23 21:23:29</time>
      </trkpt>
      <trkpt lat="41.41779" lon="0.8708">
        <ele>511.6</ele>
        <time>2022-05-23 21:23:30</time>
      </trkpt>
      <trkpt lat="41.41773" lon="0.87092">
        <ele>511.6</ele>
        <time>2022-05-23 21:23:31</time>
      </trkpt>
      <trkpt lat="41.4177" lon="0.87101">
        <ele>511.6</ele>
        <time>2022-05-23 21:23:32</time>
      </trkpt>
      <trkpt lat="41.41766" lon="0.87113">
        <ele>511.6</ele>
        <time>2022-05-23 21:23:33</time>
      </trkpt>
      <trkpt lat="41.41763" lon="0.87121">
        <ele>511.6</ele>
        <time>2022-05-23 21:23:34</time>
      </trkpt>
      <trkpt lat="41.41759" lon="0.87132">
        <ele>511.6</ele>
        <time>2022-05-23 21:23:35</time>
      </trkpt>
      <trkpt lat="41.41757" lon="0.87139">
        <ele>511.6</ele>
        <time>2022-05-23 21:23:36</time>
      </trkpt>
      <trkpt lat="41.41753" lon="0.87149">
        <ele>511.6</ele>
        <time>2022-05-23 21:23:37</time>
      </trkpt>
      <trkpt lat="41.41751" lon="0.87155">
        <ele>511.8</ele>
        <time>2022-05-23 21:23:38</time>
      </trkpt>
      <trkpt lat="41.41747" lon="0.87164">
        <ele>512</ele>
        <time>2022-05-23 21:23:39</time>
      </trkpt>
      <trkpt lat="41.41745" lon="0.8717">
        <ele>512</ele>
        <time>2022-05-23 21:23:40</time>
      </trkpt>
      <trkpt lat="41.41741" lon="0.87177">
        <ele>512.2</ele>
        <time>2022-05-23 21:23:41</time>
      </trkpt>
      <trkpt lat="41.4174" lon="0.87182">
        <ele>512.4</ele>
        <time>2022-05-23 21:23:42</time>
      </trkpt>
      <trkpt lat="41.41737" lon="0.8719">
        <ele>512.6</ele>
        <time>2022-05-23 21:23:43</time>
      </trkpt>
      <trkpt lat="41.41735" lon="0.87195">
        <ele>512.6</ele>
        <time>2022-05-23 21:23:44</time>
      </trkpt>
      <trkpt lat="41.41732" lon="0.87202">
        <ele>512.8</ele>
        <time>2022-05-23 21:23:45</time>
      </trkpt>
      <trkpt lat="41.41731" lon="0.87207">
        <ele>512.8</ele>
        <time>2022-05-23 21:23:46</time>
      </trkpt>
      <trkpt lat="41.41729" lon="0.87213">
        <ele>513</ele>
        <time>2022-05-23 21:23:47</time>
      </trkpt>
      <trkpt lat="41.41727" lon="0.87217">
        <ele>513</ele>
        <time>2022-05-23 21:23:48</time>
      </trkpt>
      <trkpt lat="41.41726" lon="0.8722">
        <ele>513</ele>
        <time>2022-05-23 21:23:49</time>
      </trkpt>
      <trkpt lat="41.41723" lon="0.87227">
        <ele>513.2</ele>
        <time>2022-05-23 21:23:50</time>
      </trkpt>
      <trkpt lat="41.41722" lon="0.87231">
        <ele>513.2</ele>
        <time>2022-05-23 21:23:51</time>
      </trkpt>
      <trkpt lat="41.4172" lon="0.87235">
        <ele>513.2</ele>
        <time>2022-05-23 21:23:52</time>
      </trkpt>
      <trkpt lat="41.41719" lon="0.87239">
        <ele>513.4</ele>
        <time>2022-05-23 21:23:53</time>
      </trkpt>
      <trkpt lat="41.41717" lon="0.87243">
        <ele>513.4</ele>
        <time>2022-05-23 21:23:54</time>
      </trkpt>
      <trkpt lat="41.41716" lon="0.87245">
        <ele>513.4</ele>
        <time>2022-05-23 21:23:55</time>
      </trkpt>
      <trkpt lat="41.41714" lon="0.8725">
        <ele>513.6</ele>
        <time>2022-05-23 21:23:56</time>
      </trkpt>
      <trkpt lat="41.41713" lon="0.87254">
        <ele>513.6</ele>
        <time>2022-05-23 21:23:57</time>
      </trkpt>
      <trkpt lat="41.41713" lon="0.87256">
        <ele>513.6</ele>
        <time>2022-05-23 21:23:58</time>
      </trkpt>
      <trkpt lat="41.41711" lon="0.87261">
        <ele>513.6</ele>
        <time>2022-05-23 21:23:59</time>
      </trkpt>
      <trkpt lat="41.41711" lon="0.87264">
        <ele>513.6</ele>
        <time>2022-05-23 21:24:00</time>
      </trkpt>
      <trkpt lat="41.4171" lon="0.87267">
        <ele>513.6</ele>
        <time>2022-05-23 21:24:01</time>
      </trkpt>
      <trkpt lat="41.41709" lon="0.87269">
        <ele>513.6</ele>
        <time>2022-05-23 21:24:02</time>
      </trkpt>
      <trkpt lat="41.41708" lon="0.87273">
        <ele>513.6</ele>
        <time>2022-05-23 21:24:03</time>
      </trkpt>
      <trkpt lat="41.41707" lon="0.87276">
        <ele>513.8</ele>
        <time>2022-05-23 21:24:04</time>
      </trkpt>
      <trkpt lat="41.41706" lon="0.87279">
        <ele>513.8</ele>
        <time>2022-05-23 21:24:05</time>
      </trkpt>
      <trkpt lat="41.41706" lon="0.87281">
        <ele>513.8</ele>
        <time>2022-05-23 21:24:06</time>
      </trkpt>
      <trkpt lat="41.41705" lon="0.87285">
        <ele>513.8</ele>
        <time>2022-05-23 21:24:07</time>
      </trkpt>
      <trkpt lat="41.41705" lon="0.87288">
        <ele>513.8</ele>
        <time>2022-05-23 21:24:08</time>
      </trkpt>
      <trkpt lat="41.41703" lon="0.87291">
        <ele>513.6</ele>
        <time>2022-05-23 21:24:09</time>
      </trkpt>
      <trkpt lat="41.41703" lon="0.87293">
        <ele>513.6</ele>
        <time>2022-05-23 21:24:10</time>
      </trkpt>
      <trkpt lat="41.41702" lon="0.87298">
        <ele>513.6</ele>
        <time>2022-05-23 21:24:11</time>
      </trkpt>
      <trkpt lat="41.41702" lon="0.87301">
        <ele>513.6</ele>
        <time>2022-05-23 21:24:12</time>
      </trkpt>
      <trkpt lat="41.41702" lon="0.87303">
        <ele>513.6</ele>
        <time>2022-05-23 21:24:13</time>
      </trkpt>
      <trkpt lat="41.41701" lon="0.87305">
        <ele>513.8</ele>
        <time>2022-05-23 21:24:14</time>
      </trkpt>
      <trkpt lat="41.41701" lon="0.87308">
        <ele>513.8</ele>
        <time>2022-05-23 21:24:15</time>
      </trkpt>
      <trkpt lat="41.41701" lon="0.8731">
        <ele>513.8</ele>
        <time>2022-05-23 21:24:16</time>
      </trkpt>
      <trkpt lat="41.41701" lon="0.8731">
        <ele>514</ele>
        <time>2022-05-23 21:24:17</time>
      </trkpt>
      <trkpt lat="41.41701" lon="0.8731">
        <ele>514</ele>
        <time>2022-05-23 21:24:18</time>
      </trkpt>
      <trkpt lat="41.41701" lon="0.8731">
        <ele>514</ele>
        <time>2022-05-23 21:24:19</time>
      </trkpt>
      <trkpt lat="41.41701" lon="0.8731">
        <ele>514</ele>
        <time>2022-05-23 21:24:20</time>
      </trkpt>
      <trkpt lat="41.41701" lon="0.87305">
        <ele>514</ele>
        <time>2022-05-23 21:24:21</time>
      </trkpt>
      <trkpt lat="41.41702" lon="0.87302">
        <ele>514</ele>
        <time>2022-05-23 21:24:22</time>
      </trkpt>
      <trkpt lat="41.41702" lon="0.87299">
        <ele>513.8</ele>
        <time>2022-05-23 21:24:23</time>
      </trkpt>
      <trkpt lat="41.41703" lon="0.87296">
        <ele>513.8</ele>
        <time>2022-05-23 21:24:24</time>
      </trkpt>
      <trkpt lat="41.41704" lon="0.87293">
        <ele>513.8</ele>
        <time>2022-05-23 21:24:25</time>
      </trkpt>
      <trkpt lat="41.41704" lon="0.8729">
        <ele>513.8</ele>
        <time>2022-05-23 21:24:26</time>
      </trkpt>
      <trkpt lat="41.41705" lon="0.87288">
        <ele>513.8</ele>
        <time>2022-05-23 21:24:27</time>
      </trkpt>
      <trkpt lat="41.41706" lon="0.87285">
        <ele>513.8</ele>
        <time>2022-05-23 21:24:28</time>
      </trkpt>
      <trkpt lat="41.41707" lon="0.87282">
        <ele>513.8</ele>
        <time>2022-05-23 21:24:29</time>
      </trkpt>
      <trkpt lat="41.41708" lon="0.87279">
        <ele>513.8</ele>
        <time>2022-05-23 21:24:30</time>
      </trkpt>
      <trkpt lat="41.41708" lon="0.87276">
        <ele>513.8</ele>
        <time>2022-05-23 21:24:31</time>
      </trkpt>
      <trkpt lat="41.4171" lon="0.87274">
        <ele>513.8</ele>
        <time>2022-05-23 21:24:32</time>
      </trkpt>
      <trkpt lat="41.41711" lon="0.87271">
        <ele>513.8</ele>
        <time>2022-05-23 21:24:33</time>
      </trkpt>
      <trkpt lat="41.41711" lon="0.87267">
        <ele>513.8</ele>
        <time>2022-05-23 21:24:34</time>
      </trkpt>
      <trkpt lat="41.41712" lon="0.87263">
        <ele>513.8</ele>
        <time>2022-05-23 21:24:35</time>
      </trkpt>
      <trkpt lat="41.41713" lon="0.8726">
        <ele>513.8</ele>
        <time>2022-05-23 21:24:36</time>
      </trkpt>
      <trkpt lat="41.41715" lon="0.87256">
        <ele>513.8</ele>
        <time>2022-05-23 21:24:37</time>
      </trkpt>
      <trkpt lat="41.41716" lon="0.87252">
        <ele>513.8</ele>
        <time>2022-05-23 21:24:38</time>
      </trkpt>
      <trkpt lat="41.41717" lon="0.87249">
        <ele>513.8</ele>
        <time>2022-05-23 21:24:39</time>
      </trkpt>
      <trkpt lat="41.41718" lon="0.87245">
        <ele>513.8</ele>
        <time>2022-05-23 21:24:40</time>
      </trkpt>
      <trkpt lat="41.41719" lon="0.87242">
        <ele>513.8</ele>
        <time>2022-05-23 21:24:41</time>
      </trkpt>
      <trkpt lat="41.41721" lon="0.87238">
        <ele>513.8</ele>
        <time>2022-05-23 21:24:42</time>
      </trkpt>
      <trkpt lat="41.41723" lon="0.87234">
        <ele>513.8</ele>
        <time>2022-05-23 21:24:43</time>
      </trkpt>
      <trkpt lat="41.41724" lon="0.87231">
        <ele>513.8</ele>
        <time>2022-05-23 21:24:44</time>
      </trkpt>
      <trkpt lat="41.41725" lon="0.87227">
        <ele>513.8</ele>
        <time>2022-05-23 21:24:45</time>
      </trkpt>
      <trkpt lat="41.41726" lon="0.87224">
        <ele>513.8</ele>
        <time>2022-05-23 21:24:46</time>
      </trkpt>
      <trkpt lat="41.41728" lon="0.8722">
        <ele>513.8</ele>
        <time>2022-05-23 21:24:47</time>
      </trkpt>
      <trkpt lat="41.41729" lon="0.87215">
        <ele>513.6</ele>
        <time>2022-05-23 21:24:48</time>
      </trkpt>
      <trkpt lat="41.41731" lon="0.87211">
        <ele>513.6</ele>
        <time>2022-05-23 21:24:49</time>
      </trkpt>
      <trkpt lat="41.41732" lon="0.87208">
        <ele>513.6</ele>
        <time>2022-05-23 21:24:50</time>
      </trkpt>
      <trkpt lat="41.41733" lon="0.87204">
        <ele>513.6</ele>
        <time>2022-05-23 21:24:51</time>
      </trkpt>
      <trkpt lat="41.41734" lon="0.872">
        <ele>513.6</ele>
        <time>2022-05-23 21:24:52</time>
      </trkpt>
      <trkpt lat="41.41736" lon="0.87196">
        <ele>513.6</ele>
        <time>2022-05-23 21:24:53</time>
      </trkpt>
      <trkpt lat="41.41737" lon="0.87192">
        <ele>513.6</ele>
        <time>2022-05-23 21:24:54</time>
      </trkpt>
      <trkpt lat="41.41739" lon="0.87188">
        <ele>513.6</ele>
        <time>2022-05-23 21:24:55</time>
      </trkpt>
      <trkpt lat="41.4174" lon="0.87184">
        <ele>513.6</ele>
        <time>2022-05-23 21:24:56</time>
      </trkpt>
      <trkpt lat="41.41741" lon="0.8718">
        <ele>513.4</ele>
        <time>2022-05-23 21:24:57</time>
      </trkpt>
      <trkpt lat="41.41742" lon="0.87176">
        <ele>513.4</ele>
        <time>2022-05-23 21:24:58</time>
      </trkpt>
      <trkpt lat="41.41744" lon="0.87172">
        <ele>513.4</ele>
        <time>2022-05-23 21:24:59</time>
      </trkpt>
      <trkpt lat="41.41746" lon="0.87168">
        <ele>513.4</ele>
        <time>2022-05-23 21:25:00</time>
      </trkpt>
      <trkpt lat="41.41748" lon="0.87164">
        <ele>513.4</ele>
        <time>2022-05-23 21:25:01</time>
      </trkpt>
      <trkpt lat="41.41749" lon="0.87159">
        <ele>513.4</ele>
        <time>2022-05-23 21:25:02</time>
      </trkpt>
      <trkpt lat="41.41751" lon="0.87155">
        <ele>513.2</ele>
        <time>2022-05-23 21:25:03</time>
      </trkpt>
      <trkpt lat="41.41753" lon="0.87151">
        <ele>513.2</ele>
        <time>2022-05-23 21:25:04</time>
      </trkpt>
      <trkpt lat="41.41754" lon="0.87146">
        <ele>513.2</ele>
        <time>2022-05-23 21:25:05</time>
      </trkpt>
      <trkpt lat="41.41756" lon="0.87142">
        <ele>513.2</ele>
        <time>2022-05-23 21:25:06</time>
      </trkpt>
      <trkpt lat="41.41758" lon="0.87137">
        <ele>513.2</ele>
        <time>2022-05-23 21:25:07</time>
      </trkpt>
      <trkpt lat="41.41759" lon="0.87133">
        <ele>513</ele>
        <time>2022-05-23 21:25:08</time>
      </trkpt>
      <trkpt lat="41.41761" lon="0.87128">
        <ele>513</ele>
        <time>2022-05-23 21:25:09</time>
      </trkpt>
      <trkpt lat="41.41763" lon="0.87124">
        <ele>513</ele>
        <time>2022-05-23 21:25:10</time>
      </trkpt>
      <trkpt lat="41.41764" lon="0.8712">
        <ele>513</ele>
        <time>2022-05-23 21:25:11</time>
      </trkpt>
      <trkpt lat="41.41766" lon="0.87116">
        <ele>513</ele>
        <time>2022-05-23 21:25:12</time>
      </trkpt>
      <trkpt lat="41.41766" lon="0.87111">
        <ele>513</ele>
        <time>2022-05-23 21:25:13</time>
      </trkpt>
      <trkpt lat="41.41767" lon="0.87106">
        <ele>513</ele>
        <time>2022-05-23 21:25:30</time>
      </trkpt>
      <trkpt lat="41.41766" lon="0.87102">
        <ele>513</ele>
        <time>2022-05-23 21:25:31</time>
      </trkpt>
      <trkpt lat="41.41765" lon="0.87099">
        <ele>513</ele>
        <time>2022-05-23 21:25:32</time>
      </trkpt>
      <trkpt lat="41.41762" lon="0.87098">
        <ele>513</ele>
        <time>2022-05-23 21:25:33</time>
      </trkpt>
      <trkpt lat="41.4176" lon="0.87096">
        <ele>513</ele>
        <time>2022-05-23 21:25:34</time>
      </trkpt>
      <trkpt lat="41.41758" lon="0.87095">
        <ele>513</ele>
        <time>2022-05-23 21:25:35</time>
      </trkpt>
      <trkpt lat="41.41755" lon="0.87094">
        <ele>513</ele>
        <time>2022-05-23 21:25:36</time>
      </trkpt>
      <trkpt lat="41.41753" lon="0.87094">
        <ele>513</ele>
        <time>2022-05-23 21:25:37</time>
      </trkpt>
      <trkpt lat="41.41751" lon="0.87094">
        <ele>513</ele>
        <time>2022-05-23 21:25:38</time>
      </trkpt>
      <trkpt lat="41.41749" lon="0.87095">
        <ele>513</ele>
        <time>2022-05-23 21:25:39</time>
      </trkpt>
      <trkpt lat="41.41748" lon="0.87097">
        <ele>513</ele>
        <time>2022-05-23 21:25:40</time>
      </trkpt>
      <trkpt lat="41.41746" lon="0.87098">
        <ele>513</ele>
        <time>2022-05-23 21:25:41</time>
      </trkpt>
      <trkpt lat="41.41745" lon="0.871">
        <ele>513</ele>
        <time>2022-05-23 21:25:42</time>
      </trkpt>
      <trkpt lat="41.41743" lon="0.87103">
        <ele>513.2</ele>
        <time>2022-05-23 21:25:43</time>
      </trkpt>
      <trkpt lat="41.41742" lon="0.87106">
        <ele>513.2</ele>
        <time>2022-05-23 21:25:44</time>
      </trkpt>
      <trkpt lat="41.41741" lon="0.87109">
        <ele>513.2</ele>
        <time>2022-05-23 21:25:45</time>
      </trkpt>
      <trkpt lat="41.4174" lon="0.87112">
        <ele>513.4</ele>
        <time>2022-05-23 21:25:46</time>
      </trkpt>
      <trkpt lat="41.41739" lon="0.87115">
        <ele>513.4</ele>
        <time>2022-05-23 21:25:47</time>
      </trkpt>
      <trkpt lat="41.41738" lon="0.87118">
        <ele>513.4</ele>
        <time>2022-05-23 21:25:48</time>
      </trkpt>
      <trkpt lat="41.41737" lon="0.87121">
        <ele>513.4</ele>
        <time>2022-05-23 21:25:49</time>
      </trkpt>
      <trkpt lat="41.41736" lon="0.87124">
        <ele>513.4</ele>
        <time>2022-05-23 21:25:50</time>
      </trkpt>
      <trkpt lat="41.41735" lon="0.87127">
        <ele>513.4</ele>
        <time>2022-05-23 21:25:51</time>
      </trkpt>
      <trkpt lat="41.41734" lon="0.87131">
        <ele>513.4</ele>
        <time>2022-05-23 21:25:52</time>
      </trkpt>
      <trkpt lat="41.41732" lon="0.87135">
        <ele>513.4</ele>
        <time>2022-05-23 21:25:53</time>
      </trkpt>
      <trkpt lat="41.41731" lon="0.87138">
        <ele>513.4</ele>
        <time>2022-05-23 21:25:54</time>
      </trkpt>
      <trkpt lat="41.4173" lon="0.87141">
        <ele>513.2</ele>
        <time>2022-05-23 21:25:55</time>
      </trkpt>
      <trkpt lat="41.41729" lon="0.87144">
        <ele>513.2</ele>
        <time>2022-05-23 21:25:56</time>
      </trkpt>
      <trkpt lat="41.41728" lon="0.87147">
        <ele>513.2</ele>
        <time>2022-05-23 21:25:57</time>
      </trkpt>
      <trkpt lat="41.41727" lon="0.8715">
        <ele>513.2</ele>
        <time>2022-05-23 21:25:58</time>
      </trkpt>
      <trkpt lat="41.41726" lon="0.87153">
        <ele>513.2</ele>
        <time>2022-05-23 21:25:59</time>
      </trkpt>
      <trkpt lat="41.41725" lon="0.87155">
        <ele>513.2</ele>
        <time>2022-05-23 21:26:00</time>
      </trkpt>
      <trkpt lat="41.41723" lon="0.87158">
        <ele>513.2</ele>
        <time>2022-05-23 21:26:01</time>
      </trkpt>
      <trkpt lat="41.41722" lon="0.87162">
        <ele>513.2</ele>
        <time>2022-05-23 21:26:02</time>
      </trkpt>
      <trkpt lat="41.41721" lon="0.87165">
        <ele>513.4</ele>
        <time>2022-05-23 21:26:03</time>
      </trkpt>
      <trkpt lat="41.41719" lon="0.87169">
        <ele>513.4</ele>
        <time>2022-05-23 21:26:04</time>
      </trkpt>
      <trkpt lat="41.41718" lon="0.87172">
        <ele>513.4</ele>
        <time>2022-05-23 21:26:05</time>
      </trkpt>
      <trkpt lat="41.41717" lon="0.87175">
        <ele>513.6</ele>
        <time>2022-05-23 21:26:06</time>
      </trkpt>
      <trkpt lat="41.41716" lon="0.87178">
        <ele>513.6</ele>
        <time>2022-05-23 21:26:07</time>
      </trkpt>
      <trkpt lat="41.41714" lon="0.87181">
        <ele>513.6</ele>
        <time>2022-05-23 21:26:08</time>
      </trkpt>
      <trkpt lat="41.41713" lon="0.87184">
        <ele>513.6</ele>
        <time>2022-05-23 21:26:09</time>
      </trkpt>
      <trkpt lat="41.41712" lon="0.87188">
        <ele>513.6</ele>
        <time>2022-05-23 21:26:10</time>
      </trkpt>
      <trkpt lat="41.41711" lon="0.87192">
        <ele>513.4</ele>
        <time>2022-05-23 21:26:11</time>
      </trkpt>
      <trkpt lat="41.41709" lon="0.87196">
        <ele>513.6</ele>
        <time>2022-05-23 21:26:12</time>
      </trkpt>
      <trkpt lat="41.41708" lon="0.87199">
        <ele>513.6</ele>
        <time>2022-05-23 21:26:13</time>
      </trkpt>
      <trkpt lat="41.41707" lon="0.87203">
        <ele>513.8</ele>
        <time>2022-05-23 21:26:14</time>
      </trkpt>
      <trkpt lat="41.41706" lon="0.87207">
        <ele>513.8</ele>
        <time>2022-05-23 21:26:15</time>
      </trkpt>
      <trkpt lat="41.41705" lon="0.87211">
        <ele>513.8</ele>
        <time>2022-05-23 21:26:16</time>
      </trkpt>
      <trkpt lat="41.41703" lon="0.87214">
        <ele>513.8</ele>
        <time>2022-05-23 21:26:17</time>
      </trkpt>
      <trkpt lat="41.41702" lon="0.87218">
        <ele>513.8</ele>
        <time>2022-05-23 21:26:18</time>
      </trkpt>
      <trkpt lat="41.41701" lon="0.87222">
        <ele>513.6</ele>
        <time>2022-05-23 21:26:19</time>
      </trkpt>
      <trkpt lat="41.417" lon="0.87226">
        <ele>513.4</ele>
        <time>2022-05-23 21:26:20</time>
      </trkpt>
      <trkpt lat="41.41698" lon="0.8723">
        <ele>513.4</ele>
        <time>2022-05-23 21:26:21</time>
      </trkpt>
      <trkpt lat="41.41697" lon="0.87234">
        <ele>513.2</ele>
        <time>2022-05-23 21:26:22</time>
      </trkpt>
      <trkpt lat="41.41697" lon="0.87238">
        <ele>513.2</ele>
        <time>2022-05-23 21:26:23</time>
      </trkpt>
      <trkpt lat="41.41695" lon="0.87242">
        <ele>513.2</ele>
        <time>2022-05-23 21:26:24</time>
      </trkpt>
      <trkpt lat="41.41695" lon="0.87245">
        <ele>513.4</ele>
        <time>2022-05-23 21:26:25</time>
      </trkpt>
      <trkpt lat="41.41694" lon="0.87248">
        <ele>513.4</ele>
        <time>2022-05-23 21:26:26</time>
      </trkpt>
      <trkpt lat="41.41693" lon="0.87251">
        <ele>513.6</ele>
        <time>2022-05-23 21:26:27</time>
      </trkpt>
      <trkpt lat="41.41692" lon="0.87254">
        <ele>513.6</ele>
        <time>2022-05-23 21:26:28</time>
      </trkpt>
      <trkpt lat="41.41692" lon="0.87257">
        <ele>513.6</ele>
        <time>2022-05-23 21:26:29</time>
      </trkpt>
      <trkpt lat="41.41691" lon="0.8726">
        <ele>513.6</ele>
        <time>2022-05-23 21:26:30</time>
      </trkpt>
      <trkpt lat="41.4169" lon="0.87263">
        <ele>513.6</ele>
        <time>2022-05-23 21:26:31</time>
      </trkpt>
      <trkpt lat="41.4169" lon="0.87267">
        <ele>513.6</ele>
        <time>2022-05-23 21:26:32</time>
      </trkpt>
      <trkpt lat="41.41689" lon="0.8727">
        <ele>513.8</ele>
        <time>2022-05-23 21:26:33</time>
      </trkpt>
      <trkpt lat="41.41689" lon="0.87274">
        <ele>513.8</ele>
        <time>2022-05-23 21:26:34</time>
      </trkpt>
      <trkpt lat="41.41688" lon="0.87277">
        <ele>514</ele>
        <time>2022-05-23 21:26:35</time>
      </trkpt>
      <trkpt lat="41.41687" lon="0.8728">
        <ele>514</ele>
        <time>2022-05-23 21:26:36</time>
      </trkpt>
      <trkpt lat="41.41687" lon="0.87284">
        <ele>514</ele>
        <time>2022-05-23 21:26:37</time>
      </trkpt>
      <trkpt lat="41.41686" lon="0.87287">
        <ele>514</ele>
        <time>2022-05-23 21:26:38</time>
      </trkpt>
      <trkpt lat="41.41685" lon="0.8729">
        <ele>514</ele>
        <time>2022-05-23 21:26:39</time>
      </trkpt>
      <trkpt lat="41.41685" lon="0.87293">
        <ele>514.2</ele>
        <time>2022-05-23 21:26:40</time>
      </trkpt>
      <trkpt lat="41.41684" lon="0.87296">
        <ele>514.2</ele>
        <time>2022-05-23 21:26:41</time>
      </trkpt>
      <trkpt lat="41.41684" lon="0.873">
        <ele>514.2</ele>
        <time>2022-05-23 21:26:42</time>
      </trkpt>
      <trkpt lat="41.41684" lon="0.87303">
        <ele>514.2</ele>
        <time>2022-05-23 21:26:43</time>
      </trkpt>
      <trkpt lat="41.41684" lon="0.87306">
        <ele>514.2</ele>
        <time>2022-05-23 21:26:44</time>
      </trkpt>
      <trkpt lat="41.41683" lon="0.87309">
        <ele>514.2</ele>
        <time>2022-05-23 21:26:45</time>
      </trkpt>
      <trkpt lat="41.41683" lon="0.87312">
        <ele>514.4</ele>
        <time>2022-05-23 21:26:46</time>
      </trkpt>
      <trkpt lat="41.41683" lon="0.87315">
        <ele>514.4</ele>
        <time>2022-05-23 21:26:47</time>
      </trkpt>
      <trkpt lat="41.41683" lon="0.87318">
        <ele>514.6</ele>
        <time>2022-05-23 21:26:48</time>
      </trkpt>
      <trkpt lat="41.41682" lon="0.87321">
        <ele>514.6</ele>
        <time>2022-05-23 21:26:49</time>
      </trkpt>
      <trkpt lat="41.41682" lon="0.87325">
        <ele>514.8</ele>
        <time>2022-05-23 21:26:50</time>
      </trkpt>
      <trkpt lat="41.41683" lon="0.87327">
        <ele>515</ele>
        <time>2022-05-23 21:26:51</time>
      </trkpt>
      <trkpt lat="41.41683" lon="0.8733">
        <ele>515</ele>
        <time>2022-05-23 21:26:52</time>
      </trkpt>
      <trkpt lat="41.41683" lon="0.87333">
        <ele>515.2</ele>
        <time>2022-05-23 21:26:53</time>
      </trkpt>
      <trkpt lat="41.41682" lon="0.87335">
        <ele>515.2</ele>
        <time>2022-05-23 21:26:54</time>
      </trkpt>
      <trkpt lat="41.41682" lon="0.87337">
        <ele>515.2</ele>
        <time>2022-05-23 21:26:55</time>
      </trkpt>
      <trkpt lat="41.41682" lon="0.8734">
        <ele>515.4</ele>
        <time>2022-05-23 21:26:56</time>
      </trkpt>
      <trkpt lat="41.41682" lon="0.87343">
        <ele>515.4</ele>
        <time>2022-05-23 21:26:57</time>
      </trkpt>
      <trkpt lat="41.41681" lon="0.87345">
        <ele>515.6</ele>
        <time>2022-05-23 21:26:58</time>
      </trkpt>
      <trkpt lat="41.41681" lon="0.87348">
        <ele>515.6</ele>
        <time>2022-05-23 21:26:59</time>
      </trkpt>
      <trkpt lat="41.4168" lon="0.8735">
        <ele>515.8</ele>
        <time>2022-05-23 21:27:00</time>
      </trkpt>
      <trkpt lat="41.41679" lon="0.87352">
        <ele>516</ele>
        <time>2022-05-23 21:27:01</time>
      </trkpt>
      <trkpt lat="41.41679" lon="0.87355">
        <ele>516</ele>
        <time>2022-05-23 21:27:02</time>
      </trkpt>
      <trkpt lat="41.41678" lon="0.87357">
        <ele>516.2</ele>
        <time>2022-05-23 21:27:03</time>
      </trkpt>
      <trkpt lat="41.41678" lon="0.8736">
        <ele>516.2</ele>
        <time>2022-05-23 21:27:04</time>
      </trkpt>
      <trkpt lat="41.41677" lon="0.87362">
        <ele>516.2</ele>
        <time>2022-05-23 21:27:05</time>
      </trkpt>
      <trkpt lat="41.41676" lon="0.87364">
        <ele>516.4</ele>
        <time>2022-05-23 21:27:06</time>
      </trkpt>
      <trkpt lat="41.41676" lon="0.87366">
        <ele>516.4</ele>
        <time>2022-05-23 21:27:07</time>
      </trkpt>
      <trkpt lat="41.41675" lon="0.87369">
        <ele>516.4</ele>
        <time>2022-05-23 21:27:08</time>
      </trkpt>
      <trkpt lat="41.41675" lon="0.87371">
        <ele>516.6</ele>
        <time>2022-05-23 21:27:09</time>
      </trkpt>
      <trkpt lat="41.41674" lon="0.87373">
        <ele>516.6</ele>
        <time>2022-05-23 21:27:10</time>
      </trkpt>
      <trkpt lat="41.41674" lon="0.87376">
        <ele>516.8</ele>
        <time>2022-05-23 21:27:11</time>
      </trkpt>
      <trkpt lat="41.41673" lon="0.87379">
        <ele>517</ele>
        <time>2022-05-23 21:27:12</time>
      </trkpt>
      <trkpt lat="41.415687" lon="0.878614">
        <ele>508.592372</ele>
        <time>2022-05-23T19:34:33.433Z</time>
      </trkpt>
      <trkpt lat="41.415596" lon="0.878448">
        <ele>508.592372</ele>
        <time>2022-05-23T19:34:34.493Z</time>
      </trkpt>
      <trkpt lat="41.415519" lon="0.878618">
        <ele>508.592372</ele>
        <time>2022-05-23T19:35:41.483Z</time>
      </trkpt>
      <trkpt lat="41.415479" lon="0.878733">
        <ele>508.592372</ele>
        <time>2022-05-23T19:35:48.490Z</time>
      </trkpt>
      <trkpt lat="41.415484" lon="0.878865">
        <ele>508.592372</ele>
        <time>2022-05-23T19:35:54.486Z</time>
      </trkpt>
      <trkpt lat="41.415473" lon="0.878984">
        <ele>508.592372</ele>
        <time>2022-05-23T19:36:00.485Z</time>
      </trkpt>
      <trkpt lat="41.415419" lon="0.879098">
        <ele>508.592372</ele>
        <time>2022-05-23T19:36:09.485Z</time>
      </trkpt>
      <trkpt lat="41.415394" lon="0.879221">
        <ele>508.592372</ele>
        <time>2022-05-23T19:36:17.489Z</time>
      </trkpt>
      <trkpt lat="41.415352" lon="0.879343">
        <ele>508.592372</ele>
        <time>2022-05-23T19:36:29.476Z</time>
      </trkpt>
      <trkpt lat="41.415343" lon="0.879476">
        <ele>509.292109</ele>
        <time>2022-05-23T19:36:41.477Z</time>
      </trkpt>
      <trkpt lat="41.415325" lon="0.879610">
        <ele>510.128353</ele>
        <time>2022-05-23T19:36:50.483Z</time>
      </trkpt>
      <trkpt lat="41.415324" lon="0.879736">
        <ele>510.902397</ele>
        <time>2022-05-23T19:37:00.475Z</time>
      </trkpt>
      <trkpt lat="41.415352" lon="0.879865">
        <ele>511.727349</ele>
        <time>2022-05-23T19:37:10.487Z</time>
      </trkpt>
      <trkpt lat="41.415320" lon="0.879984">
        <ele>512.503923</ele>
        <time>2022-05-23T19:37:21.472Z</time>
      </trkpt>
      <trkpt lat="41.415303" lon="0.880115">
        <ele>513.320597</ele>
        <time>2022-05-23T19:37:34.477Z</time>
      </trkpt>
      <trkpt lat="41.415267" lon="0.880225">
        <ele>514.057854</ele>
        <time>2022-05-23T19:37:41.503Z</time>
      </trkpt>
      <trkpt lat="41.415266" lon="0.880359">
        <ele>514.881038</ele>
        <time>2022-05-23T19:37:51.485Z</time>
      </trkpt>
      <trkpt lat="41.415243" lon="0.880476">
        <ele>515.624036</ele>
        <time>2022-05-23T19:38:00.486Z</time>
      </trkpt>
      <trkpt lat="41.415276" lon="0.880589">
        <ele>516.368954</ele>
        <time>2022-05-23T19:38:20.486Z</time>
      </trkpt>
      <trkpt lat="41.415254" lon="0.880719">
        <ele>517.187607</ele>
        <time>2022-05-23T19:39:08.487Z</time>
      </trkpt>
      <trkpt lat="41.415216" lon="0.880837">
        <ele>517.976471</ele>
        <time>2022-05-23T19:39:21.489Z</time>
      </trkpt>
      <trkpt lat="41.415180" lon="0.880960">
        <ele>518.787548</ele>
        <time>2022-05-23T19:39:31.480Z</time>
      </trkpt>
      <trkpt lat="41.415178" lon="0.881087">
        <ele>519.567865</ele>
        <time>2022-05-23T19:39:44.477Z</time>
      </trkpt>
      <trkpt lat="41.415097" lon="0.881160">
        <ele>520.368680</ele>
        <time>2022-05-23T19:39:54.483Z</time>
      </trkpt>
      <trkpt lat="41.415063" lon="0.881274">
        <ele>521.122316</ele>
        <time>2022-05-23T19:40:06.480Z</time>
      </trkpt>
      <trkpt lat="41.414980" lon="0.881326">
        <ele>521.873487</ele>
        <time>2022-05-23T19:40:28.479Z</time>
      </trkpt>
      <trkpt lat="41.414959" lon="0.881443">
        <ele>522.612504</ele>
        <time>2022-05-23T19:40:41.485Z</time>
      </trkpt>
      <trkpt lat="41.414912" lon="0.881556">
        <ele>523.421116</ele>
        <time>2022-05-23T19:40:52.477Z</time>
      </trkpt>
      <trkpt lat="41.414905" lon="0.881688">
        <ele>524.383334</ele>
        <time>2022-05-23T19:41:05.480Z</time>
      </trkpt>
      <trkpt lat="41.414882" lon="0.881806">
        <ele>525.269863</ele>
        <time>2022-05-23T19:41:16.476Z</time>
      </trkpt>
      <trkpt lat="41.414813" lon="0.881886">
        <ele>526.156415</ele>
        <time>2022-05-23T19:41:25.488Z</time>
      </trkpt>
      <trkpt lat="41.414771" lon="0.881992">
        <ele>527.028147</ele>
        <time>2022-05-23T19:41:36.480Z</time>
      </trkpt>
      <trkpt lat="41.414695" lon="0.882056">
        <ele>527.899685</ele>
        <time>2022-05-23T19:41:47.489Z</time>
      </trkpt>
      <trkpt lat="41.414627" lon="0.882145">
        <ele>528.823546</ele>
        <time>2022-05-23T19:42:05.476Z</time>
      </trkpt>
      <trkpt lat="41.414566" lon="0.882237">
        <ele>529.716483</ele>
        <time>2022-05-23T19:42:21.485Z</time>
      </trkpt>
      <trkpt lat="41.414539" lon="0.882353">
        <ele>530.599658</ele>
        <time>2022-05-23T19:42:35.479Z</time>
      </trkpt>
      <trkpt lat="41.414463" lon="0.882436">
        <ele>531.552158</ele>
        <time>2022-05-23T19:42:57.487Z</time>
      </trkpt>
      <trkpt lat="41.414338" lon="0.882452">
        <ele>532.769723</ele>
        <time>2022-05-23T19:43:57.479Z</time>
      </trkpt>
      <trkpt lat="41.414250" lon="0.882501">
        <ele>533.694371</ele>
        <time>2022-05-23T19:44:11.485Z</time>
      </trkpt>
      <trkpt lat="41.414153" lon="0.882564">
        <ele>534.740512</ele>
        <time>2022-05-23T19:44:28.491Z</time>
      </trkpt>
      <trkpt lat="41.414061" lon="0.882568">
        <ele>535.633013</ele>
        <time>2022-05-23T19:44:44.485Z</time>
      </trkpt>
      <trkpt lat="41.413973" lon="0.882597">
        <ele>536.511928</ele>
        <time>2022-05-23T19:44:58.490Z</time>
      </trkpt>
      <trkpt lat="41.413896" lon="0.882669">
        <ele>537.423792</ele>
        <time>2022-05-23T19:45:06.484Z</time>
      </trkpt>
      <trkpt lat="41.413804" lon="0.882696">
        <ele>538.337169</ele>
        <time>2022-05-23T19:45:21.485Z</time>
      </trkpt>
      <trkpt lat="41.413715" lon="0.882730">
        <ele>539.234826</ele>
        <time>2022-05-23T19:45:42.480Z</time>
      </trkpt>
      <trkpt lat="41.413634" lon="0.882795">
        <ele>540.151453</ele>
        <time>2022-05-23T19:45:54.482Z</time>
      </trkpt>
      <trkpt lat="41.413545" lon="0.882843">
        <ele>540.962755</ele>
        <time>2022-05-23T19:46:07.491Z</time>
      </trkpt>
      <trkpt lat="41.413453" lon="0.882855">
        <ele>541.521376</ele>
        <time>2022-05-23T19:46:21.486Z</time>
      </trkpt>
      <trkpt lat="41.413363" lon="0.882889">
        <ele>542.086665</ele>
        <time>2022-05-23T19:46:34.482Z</time>
      </trkpt>
      <trkpt lat="41.413281" lon="0.882957">
        <ele>542.670217</ele>
        <time>2022-05-23T19:46:56.481Z</time>
      </trkpt>
      <trkpt lat="41.413194" lon="0.883002">
        <ele>543.234139</ele>
        <time>2022-05-23T19:47:08.492Z</time>
      </trkpt>
      <trkpt lat="41.413098" lon="0.883012">
        <ele>543.816047</ele>
        <time>2022-05-23T19:47:18.486Z</time>
      </trkpt>
      <trkpt lat="41.413003" lon="0.883032">
        <ele>544.397256</ele>
        <time>2022-05-23T19:47:33.493Z</time>
      </trkpt>
      <trkpt lat="41.412908" lon="0.883026">
        <ele>544.971997</ele>
        <time>2022-05-23T19:47:45.485Z</time>
      </trkpt>
      <trkpt lat="41.412820" lon="0.883071">
        <ele>545.541559</ele>
        <time>2022-05-23T19:47:59.487Z</time>
      </trkpt>
      <trkpt lat="41.412728" lon="0.883091">
        <ele>546.104867</ele>
        <time>2022-05-23T19:48:11.482Z</time>
      </trkpt>
      <trkpt lat="41.412632" lon="0.883056">
        <ele>546.706303</ele>
        <time>2022-05-23T19:48:20.485Z</time>
      </trkpt>
      <trkpt lat="41.412542" lon="0.883111">
        <ele>547.304585</ele>
        <time>2022-05-23T19:48:35.488Z</time>
      </trkpt>
      <trkpt lat="41.412445" lon="0.883092">
        <ele>547.897060</ele>
        <time>2022-05-23T19:48:46.495Z</time>
      </trkpt>
      <trkpt lat="41.412355" lon="0.883083">
        <ele>548.442469</ele>
        <time>2022-05-23T19:49:00.486Z</time>
      </trkpt>
      <trkpt lat="41.412262" lon="0.883050">
        <ele>549.024040</ele>
        <time>2022-05-23T19:49:10.488Z</time>
      </trkpt>
      <trkpt lat="41.412179" lon="0.882985">
        <ele>549.605733</ele>
        <time>2022-05-23T19:49:20.477Z</time>
      </trkpt>
      <trkpt lat="41.412092" lon="0.882936">
        <ele>550.176463</ele>
        <time>2022-05-23T19:49:31.489Z</time>
      </trkpt>
      <trkpt lat="41.412004" lon="0.882899">
        <ele>550.734071</ele>
        <time>2022-05-23T19:49:41.488Z</time>
      </trkpt>
      <trkpt lat="41.411912" lon="0.882883">
        <ele>551.294748</ele>
        <time>2022-05-23T19:49:50.492Z</time>
      </trkpt>
      <trkpt lat="41.411817" lon="0.882904">
        <ele>551.944470</ele>
        <time>2022-05-23T19:50:01.488Z</time>
      </trkpt>
      <trkpt lat="41.411722" lon="0.882917">
        <ele>552.683058</ele>
        <time>2022-05-23T19:50:14.486Z</time>
      </trkpt>
      <trkpt lat="41.411629" lon="0.882883">
        <ele>553.428866</ele>
        <time>2022-05-23T19:50:28.484Z</time>
      </trkpt>
      <trkpt lat="41.411534" lon="0.882913">
        <ele>554.183920</ele>
        <time>2022-05-23T19:50:39.477Z</time>
      </trkpt>
      <trkpt lat="41.411441" lon="0.882928">
        <ele>554.908424</ele>
        <time>2022-05-23T19:50:52.494Z</time>
      </trkpt>
      <trkpt lat="41.411343" lon="0.882915">
        <ele>555.670097</ele>
        <time>2022-05-23T19:51:03.491Z</time>
      </trkpt>
      <trkpt lat="41.411251" lon="0.882930">
        <ele>556.386924</ele>
        <time>2022-05-23T19:51:18.507Z</time>
      </trkpt>
      <trkpt lat="41.411161" lon="0.882913">
        <ele>557.089933</ele>
        <time>2022-05-23T19:51:34.494Z</time>
      </trkpt>
      <trkpt lat="41.411092" lon="0.882996">
        <ele>557.808649</ele>
        <time>2022-05-23T19:51:46.489Z</time>
      </trkpt>
      <trkpt lat="41.410997" lon="0.882992">
        <ele>558.543745</ele>
        <time>2022-05-23T19:51:57.484Z</time>
      </trkpt>
      <trkpt lat="41.410935" lon="0.883086">
        <ele>559.269836</ele>
        <time>2022-05-23T19:52:08.486Z</time>
      </trkpt>
      <trkpt lat="41.410843" lon="0.883132">
        <ele>560.029746</ele>
        <time>2022-05-23T19:52:17.487Z</time>
      </trkpt>
      <trkpt lat="41.410792" lon="0.883237">
        <ele>560.755355</ele>
        <time>2022-05-23T19:52:30.488Z</time>
      </trkpt>
      <trkpt lat="41.410762" lon="0.883354">
        <ele>561.472567</ele>
        <time>2022-05-23T19:52:43.494Z</time>
      </trkpt>
      <trkpt lat="41.410670" lon="0.883401">
        <ele>562.234533</ele>
        <time>2022-05-23T19:52:57.491Z</time>
      </trkpt>
      <trkpt lat="41.410576" lon="0.883441">
        <ele>562.997654</ele>
        <time>2022-05-23T19:53:07.483Z</time>
      </trkpt>
      <trkpt lat="41.410483" lon="0.883471">
        <ele>563.737666</ele>
        <time>2022-05-23T19:53:29.490Z</time>
      </trkpt>
      <trkpt lat="41.410400" lon="0.883525">
        <ele>564.451929</ele>
        <time>2022-05-23T19:53:42.502Z</time>
      </trkpt>
      <trkpt lat="41.410326" lon="0.883595">
        <ele>565.153645</ele>
        <time>2022-05-23T19:53:51.489Z</time>
      </trkpt>
      <trkpt lat="41.410243" lon="0.883667">
        <ele>565.621169</ele>
        <time>2022-05-23T19:54:01.486Z</time>
      </trkpt>
      <trkpt lat="41.410162" lon="0.883727">
        <ele>565.766789</ele>
        <time>2022-05-23T19:54:10.477Z</time>
      </trkpt>
      <trkpt lat="41.410088" lon="0.883805">
        <ele>565.915033</ele>
        <time>2022-05-23T19:54:21.487Z</time>
      </trkpt>
      <trkpt lat="41.410001" lon="0.883861">
        <ele>566.066855</ele>
        <time>2022-05-23T19:54:32.493Z</time>
      </trkpt>
      <trkpt lat="41.409918" lon="0.883918">
        <ele>566.213578</ele>
        <time>2022-05-23T19:54:45.485Z</time>
      </trkpt>
      <trkpt lat="41.409822" lon="0.883916">
        <ele>566.364464</ele>
        <time>2022-05-23T19:55:08.482Z</time>
      </trkpt>
      <trkpt lat="41.409733" lon="0.883945">
        <ele>566.508447</ele>
        <time>2022-05-23T19:55:22.486Z</time>
      </trkpt>
      <trkpt lat="41.409704" lon="0.884062">
        <ele>566.653685</ele>
        <time>2022-05-23T19:55:35.485Z</time>
      </trkpt>
      <trkpt lat="41.409624" lon="0.884121">
        <ele>566.797359</ele>
        <time>2022-05-23T19:55:46.493Z</time>
      </trkpt>
      <trkpt lat="41.409539" lon="0.884194">
        <ele>566.956252</ele>
        <time>2022-05-23T19:55:59.485Z</time>
      </trkpt>
      <trkpt lat="41.409459" lon="0.884257">
        <ele>567.102266</ele>
        <time>2022-05-23T19:56:08.489Z</time>
      </trkpt>
      <trkpt lat="41.409376" lon="0.884328">
        <ele>567.257241</ele>
        <time>2022-05-23T19:56:20.486Z</time>
      </trkpt>
      <trkpt lat="41.409301" lon="0.884406">
        <ele>567.406722</ele>
        <time>2022-05-23T19:56:32.485Z</time>
      </trkpt>
      <trkpt lat="41.409228" lon="0.884478">
        <ele>567.549421</ele>
        <time>2022-05-23T19:56:42.484Z</time>
      </trkpt>
      <trkpt lat="41.409142" lon="0.884543">
        <ele>567.704777</ele>
        <time>2022-05-23T19:56:53.481Z</time>
      </trkpt>
      <trkpt lat="41.409061" lon="0.884607">
        <ele>567.852745</ele>
        <time>2022-05-23T19:57:05.486Z</time>
      </trkpt>
      <trkpt lat="41.408970" lon="0.884616">
        <ele>567.996148</ele>
        <time>2022-05-23T19:57:18.484Z</time>
      </trkpt>
      <trkpt lat="41.408901" lon="0.884697">
        <ele>568.140624</ele>
        <time>2022-05-23T19:57:30.488Z</time>
      </trkpt>
      <trkpt lat="41.408803" lon="0.884698">
        <ele>568.294639</ele>
        <time>2022-05-23T19:57:41.482Z</time>
      </trkpt>
      <trkpt lat="41.408719" lon="0.884745">
        <ele>568.943689</ele>
        <time>2022-05-23T19:57:56.495Z</time>
      </trkpt>
      <trkpt lat="41.408635" lon="0.884801">
        <ele>570.221475</ele>
        <time>2022-05-23T19:58:02.485Z</time>
      </trkpt>
      <trkpt lat="41.408546" lon="0.884830">
        <ele>571.468023</ele>
        <time>2022-05-23T19:58:07.487Z</time>
      </trkpt>
      <trkpt lat="41.408451" lon="0.884879">
        <ele>572.853915</ele>
        <time>2022-05-23T19:58:13.486Z</time>
      </trkpt>
      <trkpt lat="41.408347" lon="0.884942">
        <ele>574.408109</ele>
        <time>2022-05-23T19:58:19.488Z</time>
      </trkpt>
      <trkpt lat="41.408264" lon="0.885018">
        <ele>575.778049</ele>
        <time>2022-05-23T19:58:22.488Z</time>
      </trkpt>
      <trkpt lat="41.408152" lon="0.885075">
        <ele>577.409131</ele>
        <time>2022-05-23T19:58:25.485Z</time>
      </trkpt>
      <trkpt lat="41.408026" lon="0.885098">
        <ele>579.139448</ele>
        <time>2022-05-23T19:58:28.489Z</time>
      </trkpt>
      <trkpt lat="41.407916" lon="0.885144">
        <ele>580.707969</ele>
        <time>2022-05-23T19:58:31.484Z</time>
      </trkpt>
      <trkpt lat="41.407793" lon="0.885222">
        <ele>582.561122</ele>
        <time>2022-05-23T19:58:34.481Z</time>
      </trkpt>
      <trkpt lat="41.407672" lon="0.885290">
        <ele>584.347685</ele>
        <time>2022-05-23T19:58:37.485Z</time>
      </trkpt>
      <trkpt lat="41.407584" lon="0.885329">
        <ele>585.609402</ele>
        <time>2022-05-23T19:58:39.486Z</time>
      </trkpt>
      <trkpt lat="41.407483" lon="0.885371">
        <ele>587.048870</ele>
        <time>2022-05-23T19:58:41.494Z</time>
      </trkpt>
      <trkpt lat="41.407381" lon="0.885427">
        <ele>588.549710</ele>
        <time>2022-05-23T19:58:43.489Z</time>
      </trkpt>
      <trkpt lat="41.407283" lon="0.885491">
        <ele>590.034431</ele>
        <time>2022-05-23T19:58:46.490Z</time>
      </trkpt>
      <trkpt lat="41.407173" lon="0.885556">
        <ele>591.671466</ele>
        <time>2022-05-23T19:58:49.500Z</time>
      </trkpt>
      <trkpt lat="41.407048" lon="0.885628">
        <ele>592.829481</ele>
        <time>2022-05-23T19:58:52.516Z</time>
      </trkpt>
      <trkpt lat="41.406967" lon="0.885697">
        <ele>592.802281</ele>
        <time>2022-05-23T19:58:54.485Z</time>
      </trkpt>
      <trkpt lat="41.406872" lon="0.885779">
        <ele>592.770256</ele>
        <time>2022-05-23T19:58:56.495Z</time>
      </trkpt>
      <trkpt lat="41.406771" lon="0.885880">
        <ele>592.734530</ele>
        <time>2022-05-23T19:58:58.489Z</time>
      </trkpt>
      <trkpt lat="41.406673" lon="0.885972">
        <ele>592.700614</ele>
        <time>2022-05-23T19:59:00.487Z</time>
      </trkpt>
      <trkpt lat="41.406575" lon="0.886064">
        <ele>592.666697</ele>
        <time>2022-05-23T19:59:02.486Z</time>
      </trkpt>
      <trkpt lat="41.406472" lon="0.886154">
        <ele>592.631849</ele>
        <time>2022-05-23T19:59:04.487Z</time>
      </trkpt>
      <trkpt lat="41.406377" lon="0.886249">
        <ele>592.598245</ele>
        <time>2022-05-23T19:59:06.485Z</time>
      </trkpt>
      <trkpt lat="41.406281" lon="0.886327">
        <ele>592.566433</ele>
        <time>2022-05-23T19:59:08.486Z</time>
      </trkpt>
      <trkpt lat="41.406191" lon="0.886395">
        <ele>592.537160</ele>
        <time>2022-05-23T19:59:10.488Z</time>
      </trkpt>
      <trkpt lat="41.406104" lon="0.886456">
        <ele>592.509344</ele>
        <time>2022-05-23T19:59:12.485Z</time>
      </trkpt>
      <trkpt lat="41.405990" lon="0.886522">
        <ele>592.474174</ele>
        <time>2022-05-23T19:59:15.489Z</time>
      </trkpt>
      <trkpt lat="41.405892" lon="0.886588">
        <ele>592.443106</ele>
        <time>2022-05-23T19:59:18.486Z</time>
      </trkpt>
      <trkpt lat="41.405810" lon="0.886636">
        <ele>592.417764</ele>
        <time>2022-05-23T19:59:21.492Z</time>
      </trkpt>
      <trkpt lat="41.405709" lon="0.886711">
        <ele>592.385049</ele>
        <time>2022-05-23T19:59:25.490Z</time>
      </trkpt>
      <trkpt lat="41.405631" lon="0.886794">
        <ele>592.356809</ele>
        <time>2022-05-23T19:59:29.486Z</time>
      </trkpt>
      <trkpt lat="41.405544" lon="0.886846">
        <ele>592.401635</ele>
        <time>2022-05-23T19:59:33.494Z</time>
      </trkpt>
      <trkpt lat="41.405452" lon="0.886888">
        <ele>592.783086</ele>
        <time>2022-05-23T19:59:37.497Z</time>
      </trkpt>
      <trkpt lat="41.405353" lon="0.886958">
        <ele>593.222657</ele>
        <time>2022-05-23T19:59:41.481Z</time>
      </trkpt>
      <trkpt lat="41.405270" lon="0.887021">
        <ele>593.597300</ele>
        <time>2022-05-23T19:59:45.480Z</time>
      </trkpt>
      <trkpt lat="41.405181" lon="0.887093">
        <ele>594.005656</ele>
        <time>2022-05-23T19:59:49.496Z</time>
      </trkpt>
      <trkpt lat="41.405098" lon="0.887175">
        <ele>594.410879</ele>
        <time>2022-05-23T19:59:54.487Z</time>
      </trkpt>
      <trkpt lat="41.405015" lon="0.887248">
        <ele>594.800918</ele>
        <time>2022-05-23T19:59:58.484Z</time>
      </trkpt>
      <trkpt lat="41.404944" lon="0.887359">
        <ele>595.230128</ele>
        <time>2022-05-23T20:00:02.491Z</time>
      </trkpt>
      <trkpt lat="41.404853" lon="0.887451">
        <ele>595.678109</ele>
        <time>2022-05-23T20:00:05.487Z</time>
      </trkpt>
      <trkpt lat="41.404747" lon="0.887519">
        <ele>596.139536</ele>
        <time>2022-05-23T20:00:08.498Z</time>
      </trkpt>
      <trkpt lat="41.404646" lon="0.887591">
        <ele>596.588799</ele>
        <time>2022-05-23T20:00:11.481Z</time>
      </trkpt>
      <trkpt lat="41.404551" lon="0.887693">
        <ele>597.067264</ele>
        <time>2022-05-23T20:00:14.485Z</time>
      </trkpt>
      <trkpt lat="41.404443" lon="0.887790">
        <ele>597.578070</ele>
        <time>2022-05-23T20:00:17.479Z</time>
      </trkpt>
      <trkpt lat="41.404339" lon="0.887898">
        <ele>598.095172</ele>
        <time>2022-05-23T20:00:20.482Z</time>
      </trkpt>
      <trkpt lat="41.404239" lon="0.887992">
        <ele>598.575130</ele>
        <time>2022-05-23T20:00:23.493Z</time>
      </trkpt>
      <trkpt lat="41.404130" lon="0.888094">
        <ele>599.097504</ele>
        <time>2022-05-23T20:00:26.493Z</time>
      </trkpt>
      <trkpt lat="41.404051" lon="0.888164">
        <ele>599.395481</ele>
        <time>2022-05-23T20:00:28.486Z</time>
      </trkpt>
      <trkpt lat="41.403979" lon="0.888251">
        <ele>599.421498</ele>
        <time>2022-05-23T20:00:30.493Z</time>
      </trkpt>
      <trkpt lat="41.403913" lon="0.888350">
        <ele>599.448099</ele>
        <time>2022-05-23T20:00:32.488Z</time>
      </trkpt>
      <trkpt lat="41.403836" lon="0.888430">
        <ele>599.474237</ele>
        <time>2022-05-23T20:00:34.483Z</time>
      </trkpt>
      <trkpt lat="41.403762" lon="0.888513">
        <ele>599.500129</ele>
        <time>2022-05-23T20:00:36.499Z</time>
      </trkpt>
      <trkpt lat="41.403679" lon="0.888637">
        <ele>599.533506</ele>
        <time>2022-05-23T20:00:39.492Z</time>
      </trkpt>
      <trkpt lat="41.403611" lon="0.888738">
        <ele>599.560763</ele>
        <time>2022-05-23T20:00:42.492Z</time>
      </trkpt>
      <trkpt lat="41.403545" lon="0.888855">
        <ele>599.590164</ele>
        <time>2022-05-23T20:00:46.484Z</time>
      </trkpt>
      <trkpt lat="41.403476" lon="0.888961">
        <ele>599.618351</ele>
        <time>2022-05-23T20:00:51.484Z</time>
      </trkpt>
      <trkpt lat="41.403425" lon="0.889061">
        <ele>599.642637</ele>
        <time>2022-05-23T20:00:56.489Z</time>
      </trkpt>
      <trkpt lat="41.403371" lon="0.889165">
        <ele>599.668040</ele>
        <time>2022-05-23T20:01:01.493Z</time>
      </trkpt>
      <trkpt lat="41.403324" lon="0.889280">
        <ele>599.694341</ele>
        <time>2022-05-23T20:01:06.491Z</time>
      </trkpt>
      <trkpt lat="41.403258" lon="0.889389">
        <ele>599.722475</ele>
        <time>2022-05-23T20:01:12.485Z</time>
      </trkpt>
      <trkpt lat="41.403210" lon="0.889491">
        <ele>599.746657</ele>
        <time>2022-05-23T20:01:16.490Z</time>
      </trkpt>
      <trkpt lat="41.403160" lon="0.889616">
        <ele>599.775108</ele>
        <time>2022-05-23T20:01:21.488Z</time>
      </trkpt>
      <trkpt lat="41.403078" lon="0.889726">
        <ele>599.806254</ele>
        <time>2022-05-23T20:01:26.485Z</time>
      </trkpt>
      <trkpt lat="41.402993" lon="0.889841">
        <ele>599.838679</ele>
        <time>2022-05-23T20:01:30.494Z</time>
      </trkpt>
      <trkpt lat="41.402923" lon="0.889923">
        <ele>599.863629</ele>
        <time>2022-05-23T20:01:33.490Z</time>
      </trkpt>
      <trkpt lat="41.402842" lon="0.890004">
        <ele>600.004990</ele>
        <time>2022-05-23T20:01:36.488Z</time>
      </trkpt>
      <trkpt lat="41.402763" lon="0.890079">
        <ele>600.186281</ele>
        <time>2022-05-23T20:01:39.487Z</time>
      </trkpt>
      <trkpt lat="41.402688" lon="0.890163">
        <ele>600.369385</ele>
        <time>2022-05-23T20:01:42.491Z</time>
      </trkpt>
      <trkpt lat="41.402615" lon="0.890267">
        <ele>600.569097</ele>
        <time>2022-05-23T20:01:46.492Z</time>
      </trkpt>
      <trkpt lat="41.402542" lon="0.890346">
        <ele>600.744855</ele>
        <time>2022-05-23T20:01:50.496Z</time>
      </trkpt>
      <trkpt lat="41.402455" lon="0.890393">
        <ele>600.920329</ele>
        <time>2022-05-23T20:01:53.485Z</time>
      </trkpt>
      <trkpt lat="41.402372" lon="0.890452">
        <ele>601.096157</ele>
        <time>2022-05-23T20:01:57.491Z</time>
      </trkpt>
      <trkpt lat="41.402278" lon="0.890528">
        <ele>601.301659</ele>
        <time>2022-05-23T20:02:02.487Z</time>
      </trkpt>
      <trkpt lat="41.402180" lon="0.890590">
        <ele>601.504431</ele>
        <time>2022-05-23T20:02:06.487Z</time>
      </trkpt>
      <trkpt lat="41.402073" lon="0.890664">
        <ele>601.729758</ele>
        <time>2022-05-23T20:02:10.486Z</time>
      </trkpt>
      <trkpt lat="41.401972" lon="0.890741">
        <ele>601.947247</ele>
        <time>2022-05-23T20:02:14.481Z</time>
      </trkpt>
      <trkpt lat="41.401885" lon="0.890790">
        <ele>602.123794</ele>
        <time>2022-05-23T20:02:17.483Z</time>
      </trkpt>
      <trkpt lat="41.401798" lon="0.890839">
        <ele>602.300340</ele>
        <time>2022-05-23T20:02:20.483Z</time>
      </trkpt>
      <trkpt lat="41.401701" lon="0.890897">
        <ele>602.499065</ele>
        <time>2022-05-23T20:02:23.488Z</time>
      </trkpt>
      <trkpt lat="41.401606" lon="0.890956">
        <ele>602.694972</ele>
        <time>2022-05-23T20:02:26.482Z</time>
      </trkpt>
      <trkpt lat="41.401518" lon="0.891018">
        <ele>602.881029</ele>
        <time>2022-05-23T20:02:29.473Z</time>
      </trkpt>
      <trkpt lat="41.401435" lon="0.891116">
        <ele>603.088283</ele>
        <time>2022-05-23T20:02:33.480Z</time>
      </trkpt>
      <trkpt lat="41.401373" lon="0.891219">
        <ele>603.326418</ele>
        <time>2022-05-23T20:02:36.481Z</time>
      </trkpt>
      <trkpt lat="41.401312" lon="0.891319">
        <ele>603.748791</ele>
        <time>2022-05-23T20:02:39.479Z</time>
      </trkpt>
      <trkpt lat="41.401245" lon="0.891442">
        <ele>604.246921</ele>
        <time>2022-05-23T20:02:43.475Z</time>
      </trkpt>
      <trkpt lat="41.401188" lon="0.891547">
        <ele>604.671653</ele>
        <time>2022-05-23T20:02:47.488Z</time>
      </trkpt>
      <trkpt lat="41.401120" lon="0.891654">
        <ele>605.131211</ele>
        <time>2022-05-23T20:02:52.504Z</time>
      </trkpt>
      <trkpt lat="41.401026" lon="0.891732">
        <ele>605.614916</ele>
        <time>2022-05-23T20:02:56.474Z</time>
      </trkpt>
      <trkpt lat="41.400957" lon="0.891823">
        <ele>606.038932</ele>
        <time>2022-05-23T20:02:59.475Z</time>
      </trkpt>
      <trkpt lat="41.400844" lon="0.891915">
        <ele>606.617370</ele>
        <time>2022-05-23T20:03:02.478Z</time>
      </trkpt>
      <trkpt lat="41.400693" lon="0.891964">
        <ele>607.296301</ele>
        <time>2022-05-23T20:03:04.487Z</time>
      </trkpt>
      <trkpt lat="41.400521" lon="0.891962">
        <ele>608.047742</ele>
        <time>2022-05-23T20:03:06.483Z</time>
      </trkpt>
      <trkpt lat="41.400367" lon="0.891953">
        <ele>608.721164</ele>
        <time>2022-05-23T20:03:08.475Z</time>
      </trkpt>
      <trkpt lat="41.400229" lon="0.891948">
        <ele>609.324264</ele>
        <time>2022-05-23T20:03:10.477Z</time>
      </trkpt>
      <trkpt lat="41.400117" lon="0.891954">
        <ele>609.813951</ele>
        <time>2022-05-23T20:03:12.481Z</time>
      </trkpt>
      <trkpt lat="41.400023" lon="0.891956">
        <ele>610.224659</ele>
        <time>2022-05-23T20:03:14.478Z</time>
      </trkpt>
      <trkpt lat="41.399926" lon="0.891966">
        <ele>610.649686</ele>
        <time>2022-05-23T20:03:18.487Z</time>
      </trkpt>
      <trkpt lat="41.399832" lon="0.891977">
        <ele>611.061920</ele>
        <time>2022-05-23T20:03:25.479Z</time>
      </trkpt>
      <trkpt lat="41.399744" lon="0.891933">
        <ele>611.683292</ele>
        <time>2022-05-23T20:03:42.492Z</time>
      </trkpt>
      <trkpt lat="41.399662" lon="0.891875">
        <ele>612.313187</ele>
        <time>2022-05-23T20:03:57.508Z</time>
      </trkpt>
      <trkpt lat="41.399571" lon="0.891868">
        <ele>612.931713</ele>
        <time>2022-05-23T20:04:15.481Z</time>
      </trkpt>
      <trkpt lat="41.399476" lon="0.891855">
        <ele>613.579741</ele>
        <time>2022-05-23T20:04:28.492Z</time>
      </trkpt>
      <trkpt lat="41.399385" lon="0.891851">
        <ele>614.197575</ele>
        <time>2022-05-23T20:04:42.484Z</time>
      </trkpt>
      <trkpt lat="41.399290" lon="0.891850">
        <ele>614.842236</ele>
        <time>2022-05-23T20:04:56.478Z</time>
      </trkpt>
      <trkpt lat="41.399196" lon="0.891861">
        <ele>615.482544</ele>
        <time>2022-05-23T20:05:10.485Z</time>
      </trkpt>
      <trkpt lat="41.399104" lon="0.891877">
        <ele>616.112118</ele>
        <time>2022-05-23T20:05:23.492Z</time>
      </trkpt>
      <trkpt lat="41.399009" lon="0.891877">
        <ele>616.756759</ele>
        <time>2022-05-23T20:05:37.520Z</time>
      </trkpt>
      <trkpt lat="41.398918" lon="0.891893">
        <ele>617.379605</ele>
        <time>2022-05-23T20:05:50.487Z</time>
      </trkpt>
      <trkpt lat="41.398828" lon="0.891887">
        <ele>617.991080</ele>
        <time>2022-05-23T20:06:04.487Z</time>
      </trkpt>
      <trkpt lat="41.398738" lon="0.891903">
        <ele>618.607199</ele>
        <time>2022-05-23T20:06:15.494Z</time>
      </trkpt>
      <trkpt lat="41.398646" lon="0.891917">
        <ele>619.235538</ele>
        <time>2022-05-23T20:06:27.490Z</time>
      </trkpt>
      <trkpt lat="41.398551" lon="0.891929">
        <ele>619.883066</ele>
        <time>2022-05-23T20:06:37.488Z</time>
      </trkpt>
      <trkpt lat="41.398457" lon="0.891955">
        <ele>620.534506</ele>
        <time>2022-05-23T20:06:48.482Z</time>
      </trkpt>
      <trkpt lat="41.398361" lon="0.891975">
        <ele>621.193840</ele>
        <time>2022-05-23T20:06:59.479Z</time>
      </trkpt>
      <trkpt lat="41.398268" lon="0.891993">
        <ele>621.831526</ele>
        <time>2022-05-23T20:07:10.480Z</time>
      </trkpt>
      <trkpt lat="41.398175" lon="0.892000">
        <ele>622.463601</ele>
        <time>2022-05-23T20:07:20.481Z</time>
      </trkpt>
      <trkpt lat="41.398080" lon="0.891980">
        <ele>623.116231</ele>
        <time>2022-05-23T20:07:35.489Z</time>
      </trkpt>
      <trkpt lat="41.397983" lon="0.891951">
        <ele>623.314611</ele>
        <time>2022-05-23T20:07:41.504Z</time>
      </trkpt>
      <trkpt lat="41.397897" lon="0.891998">
        <ele>623.337617</ele>
        <time>2022-05-23T20:07:45.488Z</time>
      </trkpt>
      <trkpt lat="41.397812" lon="0.892039">
        <ele>623.359991</ele>
        <time>2022-05-23T20:07:49.490Z</time>
      </trkpt>
      <trkpt lat="41.397703" lon="0.892049">
        <ele>623.387034</ele>
        <time>2022-05-23T20:07:54.487Z</time>
      </trkpt>
      <trkpt lat="41.397592" lon="0.892043">
        <ele>623.414531</ele>
        <time>2022-05-23T20:07:59.485Z</time>
      </trkpt>
      <trkpt lat="41.397487" lon="0.892018">
        <ele>623.440931</ele>
        <time>2022-05-23T20:08:04.486Z</time>
      </trkpt>
      <trkpt lat="41.397376" lon="0.892016">
        <ele>623.468408</ele>
        <time>2022-05-23T20:08:09.488Z</time>
      </trkpt>
      <trkpt lat="41.397283" lon="0.892016">
        <ele>623.491427</ele>
        <time>2022-05-23T20:08:13.489Z</time>
      </trkpt>
      <trkpt lat="41.397177" lon="0.892045">
        <ele>623.518211</ele>
        <time>2022-05-23T20:08:18.490Z</time>
      </trkpt>
      <trkpt lat="41.397083" lon="0.892085">
        <ele>623.542634</ele>
        <time>2022-05-23T20:08:24.477Z</time>
      </trkpt>
      <trkpt lat="41.396997" lon="0.892138">
        <ele>623.566085</ele>
        <time>2022-05-23T20:08:30.486Z</time>
      </trkpt>
      <trkpt lat="41.396917" lon="0.892198">
        <ele>623.588806</ele>
        <time>2022-05-23T20:08:35.481Z</time>
      </trkpt>
      <trkpt lat="41.396820" lon="0.892268">
        <ele>623.616107</ele>
        <time>2022-05-23T20:08:40.479Z</time>
      </trkpt>
      <trkpt lat="41.396731" lon="0.892324">
        <ele>623.640467</ele>
        <time>2022-05-23T20:08:45.484Z</time>
      </trkpt>
      <trkpt lat="41.396662" lon="0.892412">
        <ele>623.664103</ele>
        <time>2022-05-23T20:08:52.484Z</time>
      </trkpt>
      <trkpt lat="41.396580" lon="0.892489">
        <ele>623.688929</ele>
        <time>2022-05-23T20:08:59.485Z</time>
      </trkpt>
      <trkpt lat="41.396505" lon="0.892574">
        <ele>623.713295</ele>
        <time>2022-05-23T20:09:05.482Z</time>
      </trkpt>
      <trkpt lat="41.396446" lon="0.892672">
        <ele>623.736627</ele>
        <time>2022-05-23T20:09:12.489Z</time>
      </trkpt>
      <trkpt lat="41.396368" lon="0.892762">
        <ele>624.414201</ele>
        <time>2022-05-23T20:09:19.484Z</time>
      </trkpt>
      <trkpt lat="41.396347" lon="0.892889">
        <ele>625.210861</ele>
        <time>2022-05-23T20:09:25.487Z</time>
      </trkpt>
      <trkpt lat="41.396301" lon="0.892993">
        <ele>625.950449</ele>
        <time>2022-05-23T20:09:30.476Z</time>
      </trkpt>
      <trkpt lat="41.396269" lon="0.893110">
        <ele>626.713326</ele>
        <time>2022-05-23T20:09:36.483Z</time>
      </trkpt>
      <trkpt lat="41.396260" lon="0.893253">
        <ele>627.592403</ele>
        <time>2022-05-23T20:09:42.519Z</time>
      </trkpt>
      <trkpt lat="41.396227" lon="0.893376">
        <ele>628.392625</ele>
        <time>2022-05-23T20:09:47.527Z</time>
      </trkpt>
      <trkpt lat="41.396222" lon="0.893499">
        <ele>629.147213</ele>
        <time>2022-05-23T20:09:52.476Z</time>
      </trkpt>
      <trkpt lat="41.396205" lon="0.893627">
        <ele>629.943518</ele>
        <time>2022-05-23T20:09:58.484Z</time>
      </trkpt>
      <trkpt lat="41.396192" lon="0.893763">
        <ele>630.783373</ele>
        <time>2022-05-23T20:10:04.501Z</time>
      </trkpt>
      <trkpt lat="41.396196" lon="0.893893">
        <ele>631.580406</ele>
        <time>2022-05-23T20:10:10.480Z</time>
      </trkpt>
      <trkpt lat="41.396170" lon="0.894011">
        <ele>632.333796</ele>
        <time>2022-05-23T20:10:16.484Z</time>
      </trkpt>
      <trkpt lat="41.396160" lon="0.894140">
        <ele>633.128242</ele>
        <time>2022-05-23T20:10:23.497Z</time>
      </trkpt>
      <trkpt lat="41.396150" lon="0.894261">
        <ele>633.873958</ele>
        <time>2022-05-23T20:10:30.483Z</time>
      </trkpt>
      <trkpt lat="41.396135" lon="0.894392">
        <ele>634.685743</ele>
        <time>2022-05-23T20:10:38.476Z</time>
      </trkpt>
      <trkpt lat="41.396148" lon="0.894515">
        <ele>635.446667</ele>
        <time>2022-05-23T20:10:44.474Z</time>
      </trkpt>
      <trkpt lat="41.396157" lon="0.894635">
        <ele>636.185438</ele>
        <time>2022-05-23T20:10:50.475Z</time>
      </trkpt>
      <trkpt lat="41.396192" lon="0.894903">
        <ele>637.851865</ele>
        <time>2022-05-23T20:11:52.485Z</time>
      </trkpt>
      <trkpt lat="41.396241" lon="0.895018">
        <ele>638.448715</ele>
        <time>2022-05-23T20:11:58.503Z</time>
      </trkpt>
      <trkpt lat="41.396304" lon="0.895105">
        <ele>638.509175</ele>
        <time>2022-05-23T20:12:03.494Z</time>
      </trkpt>
      <trkpt lat="41.396368" lon="0.895206">
        <ele>638.575279</ele>
        <time>2022-05-23T20:12:10.484Z</time>
      </trkpt>
      <trkpt lat="41.396448" lon="0.895272">
        <ele>638.637986</ele>
        <time>2022-05-23T20:12:15.488Z</time>
      </trkpt>
      <trkpt lat="41.396514" lon="0.895373">
        <ele>638.704958</ele>
        <time>2022-05-23T20:12:19.485Z</time>
      </trkpt>
      <trkpt lat="41.396579" lon="0.895466">
        <ele>638.768512</ele>
        <time>2022-05-23T20:12:23.492Z</time>
      </trkpt>
      <trkpt lat="41.396646" lon="0.895561">
        <ele>638.833706</ele>
        <time>2022-05-23T20:12:27.494Z</time>
      </trkpt>
      <trkpt lat="41.396715" lon="0.895665">
        <ele>638.903125</ele>
        <time>2022-05-23T20:12:33.491Z</time>
      </trkpt>
      <trkpt lat="41.396783" lon="0.895752">
        <ele>638.965944</ele>
        <time>2022-05-23T20:12:38.490Z</time>
      </trkpt>
      <trkpt lat="41.396824" lon="0.895864">
        <ele>639.028255</ele>
        <time>2022-05-23T20:12:42.489Z</time>
      </trkpt>
      <trkpt lat="41.396874" lon="0.895988">
        <ele>639.098642</ele>
        <time>2022-05-23T20:12:47.490Z</time>
      </trkpt>
      <trkpt lat="41.396924" lon="0.896116">
        <ele>639.170798</ele>
        <time>2022-05-23T20:12:52.489Z</time>
      </trkpt>
      <trkpt lat="41.396968" lon="0.896224">
        <ele>639.232246</ele>
        <time>2022-05-23T20:12:56.480Z</time>
      </trkpt>
      <trkpt lat="41.397018" lon="0.896353">
        <ele>639.304845</ele>
        <time>2022-05-23T20:13:00.491Z</time>
      </trkpt>
      <trkpt lat="41.397072" lon="0.896467">
        <ele>639.372255</ele>
        <time>2022-05-23T20:13:06.479Z</time>
      </trkpt>
      <trkpt lat="41.397119" lon="0.896591">
        <ele>639.441718</ele>
        <time>2022-05-23T20:13:11.483Z</time>
      </trkpt>
      <trkpt lat="41.397142" lon="0.896711">
        <ele>639.503644</ele>
        <time>2022-05-23T20:13:16.492Z</time>
      </trkpt>
      <trkpt lat="41.397177" lon="0.896827">
        <ele>639.566157</ele>
        <time>2022-05-23T20:13:21.480Z</time>
      </trkpt>
      <trkpt lat="41.397201" lon="0.896961">
        <ele>639.669309</ele>
        <time>2022-05-23T20:13:27.472Z</time>
      </trkpt>
      <trkpt lat="41.397230" lon="0.897098">
        <ele>640.118201</ele>
        <time>2022-05-23T20:13:32.500Z</time>
      </trkpt>
      <trkpt lat="41.397202" lon="0.897213">
        <ele>640.499469</ele>
        <time>2022-05-23T20:13:36.481Z</time>
      </trkpt>
      <trkpt lat="41.397183" lon="0.897332">
        <ele>640.883134</ele>
        <time>2022-05-23T20:13:41.490Z</time>
      </trkpt>
      <trkpt lat="41.397161" lon="0.897473">
        <ele>641.337285</ele>
        <time>2022-05-23T20:13:47.477Z</time>
      </trkpt>
      <trkpt lat="41.397153" lon="0.897599">
        <ele>641.736038</ele>
        <time>2022-05-23T20:13:52.481Z</time>
      </trkpt>
      <trkpt lat="41.397116" lon="0.897711">
        <ele>642.121955</ele>
        <time>2022-05-23T20:13:56.491Z</time>
      </trkpt>
      <trkpt lat="41.397077" lon="0.897821">
        <ele>642.505626</ele>
        <time>2022-05-23T20:14:00.488Z</time>
      </trkpt>
      <trkpt lat="41.397051" lon="0.897956">
        <ele>642.945147</ele>
        <time>2022-05-23T20:14:05.483Z</time>
      </trkpt>
      <trkpt lat="41.397013" lon="0.898091">
        <ele>643.399846</ele>
        <time>2022-05-23T20:14:10.490Z</time>
      </trkpt>
      <trkpt lat="41.397002" lon="0.898213">
        <ele>643.787335</ele>
        <time>2022-05-23T20:14:15.487Z</time>
      </trkpt>
      <trkpt lat="41.396987" lon="0.898357">
        <ele>644.245788</ele>
        <time>2022-05-23T20:14:20.495Z</time>
      </trkpt>
      <trkpt lat="41.397008" lon="0.898480">
        <ele>644.643581</ele>
        <time>2022-05-23T20:14:24.482Z</time>
      </trkpt>
      <trkpt lat="41.397018" lon="0.898618">
        <ele>645.080782</ele>
        <time>2022-05-23T20:14:29.484Z</time>
      </trkpt>
      <trkpt lat="41.397024" lon="0.898746">
        <ele>645.485210</ele>
        <time>2022-05-23T20:14:34.491Z</time>
      </trkpt>
      <trkpt lat="41.397045" lon="0.898877">
        <ele>645.907638</ele>
        <time>2022-05-23T20:14:39.490Z</time>
      </trkpt>
      <trkpt lat="41.397056" lon="0.899018">
        <ele>646.354671</ele>
        <time>2022-05-23T20:14:44.489Z</time>
      </trkpt>
      <trkpt lat="41.397053" lon="0.899142">
        <ele>646.745901</ele>
        <time>2022-05-23T20:14:48.492Z</time>
      </trkpt>
      <trkpt lat="41.397061" lon="0.899275">
        <ele>647.166655</ele>
        <time>2022-05-23T20:14:52.489Z</time>
      </trkpt>
      <trkpt lat="41.397034" lon="0.899406">
        <ele>646.924823</ele>
        <time>2022-05-23T20:14:56.490Z</time>
      </trkpt>
      <trkpt lat="41.397012" lon="0.899524">
        <ele>646.674325</ele>
        <time>2022-05-23T20:15:00.488Z</time>
      </trkpt>
      <trkpt lat="41.396990" lon="0.899654">
        <ele>646.399770</ele>
        <time>2022-05-23T20:15:04.489Z</time>
      </trkpt>
      <trkpt lat="41.396923" lon="0.899781">
        <ele>646.079901</ele>
        <time>2022-05-23T20:15:08.482Z</time>
      </trkpt>
      <trkpt lat="41.396882" lon="0.899892">
        <ele>645.825001</ele>
        <time>2022-05-23T20:15:11.490Z</time>
      </trkpt>
      <trkpt lat="41.396849" lon="0.900019">
        <ele>645.548105</ele>
        <time>2022-05-23T20:15:14.489Z</time>
      </trkpt>
      <trkpt lat="41.396820" lon="0.900153">
        <ele>645.260780</ele>
        <time>2022-05-23T20:15:17.489Z</time>
      </trkpt>
      <trkpt lat="41.396788" lon="0.900283">
        <ele>644.978905</ele>
        <time>2022-05-23T20:15:20.490Z</time>
      </trkpt>
      <trkpt lat="41.396768" lon="0.900401">
        <ele>644.729674</ele>
        <time>2022-05-23T20:15:23.487Z</time>
      </trkpt>
      <trkpt lat="41.396742" lon="0.900521">
        <ele>644.472345</ele>
        <time>2022-05-23T20:15:26.483Z</time>
      </trkpt>
      <trkpt lat="41.396716" lon="0.900636">
        <ele>644.224896</ele>
        <time>2022-05-23T20:15:30.491Z</time>
      </trkpt>
      <trkpt lat="41.396693" lon="0.900776">
        <ele>643.929633</ele>
        <time>2022-05-23T20:15:36.490Z</time>
      </trkpt>
      <trkpt lat="41.396675" lon="0.900908">
        <ele>643.653231</ele>
        <time>2022-05-23T20:15:42.486Z</time>
      </trkpt>
      <trkpt lat="41.396639" lon="0.901037">
        <ele>643.369671</ele>
        <time>2022-05-23T20:15:47.490Z</time>
      </trkpt>
      <trkpt lat="41.396607" lon="0.901177">
        <ele>643.068151</ele>
        <time>2022-05-23T20:15:52.483Z</time>
      </trkpt>
      <trkpt lat="41.396598" lon="0.901316">
        <ele>642.780719</ele>
        <time>2022-05-23T20:15:56.481Z</time>
      </trkpt>
      <trkpt lat="41.396556" lon="0.901424">
        <ele>642.530095</ele>
        <time>2022-05-23T20:15:59.483Z</time>
      </trkpt>
      <trkpt lat="41.396504" lon="0.901571">
        <ele>642.331854</ele>
        <time>2022-05-23T20:16:02.486Z</time>
      </trkpt>
      <trkpt lat="41.396444" lon="0.901704">
        <ele>642.811253</ele>
        <time>2022-05-23T20:16:04.485Z</time>
      </trkpt>
      <trkpt lat="41.396395" lon="0.901836">
        <ele>643.266187</ele>
        <time>2022-05-23T20:16:06.484Z</time>
      </trkpt>
      <trkpt lat="41.396355" lon="0.902005">
        <ele>643.813589</ele>
        <time>2022-05-23T20:16:09.481Z</time>
      </trkpt>
      <trkpt lat="41.396318" lon="0.902176">
        <ele>644.363335</ele>
        <time>2022-05-23T20:16:12.489Z</time>
      </trkpt>
      <trkpt lat="41.396260" lon="0.902327">
        <ele>644.887358</ele>
        <time>2022-05-23T20:16:15.502Z</time>
      </trkpt>
      <trkpt lat="41.396246" lon="0.902453">
        <ele>645.280813</ele>
        <time>2022-05-23T20:16:19.486Z</time>
      </trkpt>
      <trkpt lat="41.396215" lon="0.902569">
        <ele>645.661191</ele>
        <time>2022-05-23T20:16:23.483Z</time>
      </trkpt>
      <trkpt lat="41.396196" lon="0.902698">
        <ele>646.067276</ele>
        <time>2022-05-23T20:16:28.490Z</time>
      </trkpt>
      <trkpt lat="41.396202" lon="0.902832">
        <ele>646.481934</ele>
        <time>2022-05-23T20:16:34.474Z</time>
      </trkpt>
      <trkpt lat="41.396199" lon="0.902954">
        <ele>646.858990</ele>
        <time>2022-05-23T20:16:40.486Z</time>
      </trkpt>
      <trkpt lat="41.396152" lon="0.903066">
        <ele>647.255407</ele>
        <time>2022-05-23T20:16:45.489Z</time>
      </trkpt>
      <trkpt lat="41.396075" lon="0.903137">
        <ele>647.640936</ele>
        <time>2022-05-23T20:16:50.483Z</time>
      </trkpt>
      <trkpt lat="41.395955" lon="0.903391">
        <ele>648.568169</ele>
        <time>2022-05-23T20:17:27.482Z</time>
      </trkpt>
      <trkpt lat="41.395879" lon="0.903459">
        <ele>648.945077</ele>
        <time>2022-05-23T20:17:47.488Z</time>
      </trkpt>
      <trkpt lat="41.395823" lon="0.903559">
        <ele>649.330553</ele>
        <time>2022-05-23T20:18:00.480Z</time>
      </trkpt>
      <trkpt lat="41.395747" lon="0.903624">
        <ele>649.814165</ele>
        <time>2022-05-23T20:18:11.468Z</time>
      </trkpt>
      <trkpt lat="41.395667" lon="0.903701">
        <ele>651.206486</ele>
        <time>2022-05-23T20:18:26.481Z</time>
      </trkpt>
      <trkpt lat="41.395592" lon="0.903783">
        <ele>652.575182</ele>
        <time>2022-05-23T20:19:34.499Z</time>
      </trkpt>
      <trkpt lat="41.395553" lon="0.903894">
        <ele>653.872612</ele>
        <time>2022-05-23T20:19:46.489Z</time>
      </trkpt>
      <trkpt lat="41.395499" lon="0.903999">
        <ele>655.220152</ele>
        <time>2022-05-23T20:20:03.491Z</time>
      </trkpt>
      <trkpt lat="41.395419" lon="0.904069">
        <ele>656.570437</ele>
        <time>2022-05-23T20:20:14.485Z</time>
      </trkpt>
      <trkpt lat="41.395335" lon="0.904112">
        <ele>657.840096</ele>
        <time>2022-05-23T20:20:31.482Z</time>
      </trkpt>
      <trkpt lat="41.395301" lon="0.904237">
        <ele>659.247525</ele>
        <time>2022-05-23T20:20:53.485Z</time>
      </trkpt>
      <trkpt lat="41.395235" lon="0.904324">
        <ele>660.557241</ele>
        <time>2022-05-23T20:21:03.483Z</time>
      </trkpt>
      <trkpt lat="41.395170" lon="0.904415">
        <ele>661.887297</ele>
        <time>2022-05-23T20:21:25.488Z</time>
      </trkpt>
      <trkpt lat="41.395110" lon="0.904514">
        <ele>663.234488</ele>
        <time>2022-05-23T20:21:33.487Z</time>
      </trkpt>
      <trkpt lat="41.395043" lon="0.904609">
        <ele>664.614697</ele>
        <time>2022-05-23T20:21:47.490Z</time>
      </trkpt>
      <trkpt lat="41.394966" lon="0.904673">
        <ele>665.895094</ele>
        <time>2022-05-23T20:22:00.475Z</time>
      </trkpt>
      <trkpt lat="41.394909" lon="0.904771">
        <ele>667.207714</ele>
        <time>2022-05-23T20:22:20.479Z</time>
      </trkpt>
      <trkpt lat="41.394830" lon="0.904837">
        <ele>668.523263</ele>
        <time>2022-05-23T20:22:36.482Z</time>
      </trkpt>
      <trkpt lat="41.394783" lon="0.904941">
        <ele>669.808451</ele>
        <time>2022-05-23T20:22:50.486Z</time>
      </trkpt>
      <trkpt lat="41.394712" lon="0.905030">
        <ele>671.183658</ele>
        <time>2022-05-23T20:23:08.480Z</time>
      </trkpt>
      <trkpt lat="41.394676" lon="0.905141">
        <ele>672.463721</ele>
        <time>2022-05-23T20:23:19.496Z</time>
      </trkpt>
      <trkpt lat="41.394649" lon="0.905258">
        <ele>673.759465</ele>
        <time>2022-05-23T20:23:31.494Z</time>
      </trkpt>
      <trkpt lat="41.394624" lon="0.905380">
        <ele>675.042724</ele>
        <time>2022-05-23T20:23:40.490Z</time>
      </trkpt>
      <trkpt lat="41.394585" lon="0.905497">
        <ele>675.192821</ele>
        <time>2022-05-23T20:23:54.481Z</time>
      </trkpt>
      <trkpt lat="41.394572" lon="0.905626">
        <ele>675.345413</ele>
        <time>2022-05-23T20:24:14.485Z</time>
      </trkpt>
      <trkpt lat="41.394565" lon="0.905757">
        <ele>675.499380</ele>
        <time>2022-05-23T20:24:18.494Z</time>
      </trkpt>
      <trkpt lat="41.394527" lon="0.905912">
        <ele>675.690552</ele>
        <time>2022-05-23T20:24:22.486Z</time>
      </trkpt>
      <trkpt lat="41.394474" lon="0.906034">
        <ele>675.855830</ele>
        <time>2022-05-23T20:24:26.486Z</time>
      </trkpt>
      <trkpt lat="41.394408" lon="0.906152">
        <ele>676.028387</ele>
        <time>2022-05-23T20:24:30.486Z</time>
      </trkpt>
      <trkpt lat="41.394348" lon="0.906251">
        <ele>676.177594</ele>
        <time>2022-05-23T20:24:33.488Z</time>
      </trkpt>
      <trkpt lat="41.394281" lon="0.906343">
        <ele>676.327915</ele>
        <time>2022-05-23T20:24:36.486Z</time>
      </trkpt>
      <trkpt lat="41.394201" lon="0.906442">
        <ele>676.498506</ele>
        <time>2022-05-23T20:24:39.491Z</time>
      </trkpt>
      <trkpt lat="41.394139" lon="0.906530">
        <ele>676.640039</ele>
        <time>2022-05-23T20:24:41.490Z</time>
      </trkpt>
      <trkpt lat="41.394053" lon="0.906653">
        <ele>676.837160</ele>
        <time>2022-05-23T20:24:44.485Z</time>
      </trkpt>
      <trkpt lat="41.393981" lon="0.906778">
        <ele>677.021919</ele>
        <time>2022-05-23T20:24:47.490Z</time>
      </trkpt>
      <trkpt lat="41.393923" lon="0.906898">
        <ele>677.189274</ele>
        <time>2022-05-23T20:24:51.492Z</time>
      </trkpt>
      <trkpt lat="41.393836" lon="0.906968">
        <ele>677.348083</ele>
        <time>2022-05-23T20:24:55.490Z</time>
      </trkpt>
      <trkpt lat="41.393752" lon="0.907059">
        <ele>677.517240</ele>
        <time>2022-05-23T20:24:59.490Z</time>
      </trkpt>
      <trkpt lat="41.393685" lon="0.907150">
        <ele>677.666723</ele>
        <time>2022-05-23T20:25:03.490Z</time>
      </trkpt>
      <trkpt lat="41.393613" lon="0.907239">
        <ele>677.820175</ele>
        <time>2022-05-23T20:25:07.494Z</time>
      </trkpt>
      <trkpt lat="41.393550" lon="0.907329">
        <ele>678.083399</ele>
        <time>2022-05-23T20:25:11.485Z</time>
      </trkpt>
      <trkpt lat="41.393477" lon="0.907419">
        <ele>678.395656</ele>
        <time>2022-05-23T20:25:16.489Z</time>
      </trkpt>
      <trkpt lat="41.393399" lon="0.907508">
        <ele>678.718079</ele>
        <time>2022-05-23T20:25:21.484Z</time>
      </trkpt>
      <trkpt lat="41.393319" lon="0.907570">
        <ele>679.008675</ele>
        <time>2022-05-23T20:25:26.486Z</time>
      </trkpt>
      <trkpt lat="41.393241" lon="0.907652">
        <ele>679.320626</ele>
        <time>2022-05-23T20:25:31.480Z</time>
      </trkpt>
      <trkpt lat="41.393158" lon="0.907740">
        <ele>679.653662</ele>
        <time>2022-05-23T20:25:36.481Z</time>
      </trkpt>
      <trkpt lat="41.393080" lon="0.907808">
        <ele>679.946337</ele>
        <time>2022-05-23T20:25:41.491Z</time>
      </trkpt>
      <trkpt lat="41.392999" lon="0.907890">
        <ele>680.265739</ele>
        <time>2022-05-23T20:25:47.479Z</time>
      </trkpt>
      <trkpt lat="41.392909" lon="0.907970">
        <ele>680.605439</ele>
        <time>2022-05-23T20:25:54.485Z</time>
      </trkpt>
      <trkpt lat="41.392839" lon="0.908046">
        <ele>680.888947</ele>
        <time>2022-05-23T20:25:59.491Z</time>
      </trkpt>
      <trkpt lat="41.392747" lon="0.908096">
        <ele>681.200943</ele>
        <time>2022-05-23T20:26:05.486Z</time>
      </trkpt>
      <trkpt lat="41.392664" lon="0.908141">
        <ele>681.482321</ele>
        <time>2022-05-23T20:26:10.495Z</time>
      </trkpt>
      <trkpt lat="41.392557" lon="0.908162">
        <ele>681.821953</ele>
        <time>2022-05-23T20:26:15.485Z</time>
      </trkpt>
      <trkpt lat="41.392449" lon="0.908179">
        <ele>682.163460</ele>
        <time>2022-05-23T20:26:20.488Z</time>
      </trkpt>
      <trkpt lat="41.392353" lon="0.908213">
        <ele>682.475387</ele>
        <time>2022-05-23T20:26:25.488Z</time>
      </trkpt>
      <trkpt lat="41.392265" lon="0.908259">
        <ele>682.772220</ele>
        <time>2022-05-23T20:26:29.486Z</time>
      </trkpt>
      <trkpt lat="41.392169" lon="0.908309">
        <ele>683.095883</ele>
        <time>2022-05-23T20:26:34.491Z</time>
      </trkpt>
      <trkpt lat="41.392072" lon="0.908344">
        <ele>683.411452</ele>
        <time>2022-05-23T20:26:39.489Z</time>
      </trkpt>
      <trkpt lat="41.391977" lon="0.908371">
        <ele>683.709309</ele>
        <time>2022-05-23T20:26:44.487Z</time>
      </trkpt>
      <trkpt lat="41.391876" lon="0.908408">
        <ele>684.027584</ele>
        <time>2022-05-23T20:26:50.484Z</time>
      </trkpt>
      <trkpt lat="41.391792" lon="0.908475">
        <ele>684.325030</ele>
        <time>2022-05-23T20:26:55.492Z</time>
      </trkpt>
      <trkpt lat="41.391700" lon="0.908504">
        <ele>684.612289</ele>
        <time>2022-05-23T20:26:59.493Z</time>
      </trkpt>
      <trkpt lat="41.391611" lon="0.908534">
        <ele>684.891236</ele>
        <time>2022-05-23T20:27:02.490Z</time>
      </trkpt>
      <trkpt lat="41.391519" lon="0.908565">
        <ele>685.179578</ele>
        <time>2022-05-23T20:27:05.489Z</time>
      </trkpt>
      <trkpt lat="41.391423" lon="0.908587">
        <ele>685.475561</ele>
        <time>2022-05-23T20:27:08.484Z</time>
      </trkpt>
      <trkpt lat="41.391333" lon="0.908621">
        <ele>685.759803</ele>
        <time>2022-05-23T20:27:11.484Z</time>
      </trkpt>
      <trkpt lat="41.391229" lon="0.908677">
        <ele>686.100625</ele>
        <time>2022-05-23T20:27:14.489Z</time>
      </trkpt>
      <trkpt lat="41.391142" lon="0.908724">
        <ele>686.385868</ele>
        <time>2022-05-23T20:27:16.484Z</time>
      </trkpt>
      <trkpt lat="41.391021" lon="0.908808">
        <ele>686.800411</ele>
        <time>2022-05-23T20:27:19.486Z</time>
      </trkpt>
      <trkpt lat="41.390926" lon="0.908917">
        <ele>687.181287</ele>
        <time>2022-05-23T20:27:22.484Z</time>
      </trkpt>
      <trkpt lat="41.390841" lon="0.909010">
        <ele>687.515432</ele>
        <time>2022-05-23T20:27:26.486Z</time>
      </trkpt>
      <trkpt lat="41.390760" lon="0.909097">
        <ele>687.831517</ele>
        <time>2022-05-23T20:27:30.486Z</time>
      </trkpt>
      <trkpt lat="41.390703" lon="0.909191">
        <ele>688.107043</ele>
        <time>2022-05-23T20:27:34.489Z</time>
      </trkpt>
      <trkpt lat="41.390619" lon="0.909280">
        <ele>688.433095</ele>
        <time>2022-05-23T20:27:39.483Z</time>
      </trkpt>
      <trkpt lat="41.390553" lon="0.909362">
        <ele>688.707249</ele>
        <time>2022-05-23T20:27:43.485Z</time>
      </trkpt>
      <trkpt lat="41.390472" lon="0.909454">
        <ele>688.962033</ele>
        <time>2022-05-23T20:27:48.488Z</time>
      </trkpt>
      <trkpt lat="41.390401" lon="0.909537">
        <ele>688.969317</ele>
        <time>2022-05-23T20:27:53.492Z</time>
      </trkpt>
      <trkpt lat="41.390306" lon="0.909582">
        <ele>688.977094</ele>
        <time>2022-05-23T20:28:00.489Z</time>
      </trkpt>
      <trkpt lat="41.390216" lon="0.909626">
        <ele>688.984488</ele>
        <time>2022-05-23T20:28:06.484Z</time>
      </trkpt>
      <trkpt lat="41.390118" lon="0.909702">
        <ele>688.993234</ele>
        <time>2022-05-23T20:28:11.484Z</time>
      </trkpt>
      <trkpt lat="41.390009" lon="0.909754">
        <ele>689.002163</ele>
        <time>2022-05-23T20:28:15.491Z</time>
      </trkpt>
      <trkpt lat="41.389892" lon="0.909790">
        <ele>689.011425</ele>
        <time>2022-05-23T20:28:19.490Z</time>
      </trkpt>
      <trkpt lat="41.389797" lon="0.909821">
        <ele>689.018970</ele>
        <time>2022-05-23T20:28:22.490Z</time>
      </trkpt>
      <trkpt lat="41.389671" lon="0.909880">
        <ele>689.029271</ele>
        <time>2022-05-23T20:28:25.489Z</time>
      </trkpt>
      <trkpt lat="41.389586" lon="0.909925">
        <ele>689.036325</ele>
        <time>2022-05-23T20:28:27.481Z</time>
      </trkpt>
      <trkpt lat="41.389478" lon="0.909953">
        <ele>689.044812</ele>
        <time>2022-05-23T20:28:29.489Z</time>
      </trkpt>
      <trkpt lat="41.389379" lon="0.909975">
        <ele>689.052554</ele>
        <time>2022-05-23T20:28:31.487Z</time>
      </trkpt>
      <trkpt lat="41.389257" lon="0.910003">
        <ele>689.062103</ele>
        <time>2022-05-23T20:28:34.488Z</time>
      </trkpt>
      <trkpt lat="41.389144" lon="0.910028">
        <ele>689.070938</ele>
        <time>2022-05-23T20:28:37.478Z</time>
      </trkpt>
      <trkpt lat="41.389051" lon="0.910085">
        <ele>689.078834</ele>
        <time>2022-05-23T20:28:40.483Z</time>
      </trkpt>
      <trkpt lat="41.388966" lon="0.910163">
        <ele>689.086794</ele>
        <time>2022-05-23T20:28:43.489Z</time>
      </trkpt>
      <trkpt lat="41.388880" lon="0.910246">
        <ele>689.094983</ele>
        <time>2022-05-23T20:28:46.485Z</time>
      </trkpt>
      <trkpt lat="41.388803" lon="0.910330">
        <ele>689.093347</ele>
        <time>2022-05-23T20:28:49.490Z</time>
      </trkpt>
      <trkpt lat="41.388769" lon="0.910454">
        <ele>689.081626</ele>
        <time>2022-05-23T20:28:53.487Z</time>
      </trkpt>
      <trkpt lat="41.388727" lon="0.910594">
        <ele>689.068241</ele>
        <time>2022-05-23T20:28:57.487Z</time>
      </trkpt>
      <trkpt lat="41.388691" lon="0.910704">
        <ele>689.057587</ele>
        <time>2022-05-23T20:29:01.490Z</time>
      </trkpt>
      <trkpt lat="41.388605" lon="0.910818">
        <ele>689.043235</ele>
        <time>2022-05-23T20:29:04.486Z</time>
      </trkpt>
      <trkpt lat="41.388523" lon="0.910937">
        <ele>689.028891</ele>
        <time>2022-05-23T20:29:06.496Z</time>
      </trkpt>
      <trkpt lat="41.388436" lon="0.911061">
        <ele>689.013820</ele>
        <time>2022-05-23T20:29:08.467Z</time>
      </trkpt>
      <trkpt lat="41.388347" lon="0.911226">
        <ele>688.995779</ele>
        <time>2022-05-23T20:29:10.482Z</time>
      </trkpt>
      <trkpt lat="41.388258" lon="0.911400">
        <ele>688.977084</ele>
        <time>2022-05-23T20:29:12.484Z</time>
      </trkpt>
      <trkpt lat="41.388164" lon="0.911581">
        <ele>688.957541</ele>
        <time>2022-05-23T20:29:14.486Z</time>
      </trkpt>
      <trkpt lat="41.388116" lon="0.911684">
        <ele>688.946777</ele>
        <time>2022-05-23T20:29:15.485Z</time>
      </trkpt>
      <trkpt lat="41.388057" lon="0.911784">
        <ele>688.935483</ele>
        <time>2022-05-23T20:29:16.476Z</time>
      </trkpt>
      <trkpt lat="41.387997" lon="0.911880">
        <ele>688.924391</ele>
        <time>2022-05-23T20:29:17.484Z</time>
      </trkpt>
      <trkpt lat="41.387938" lon="0.911973">
        <ele>688.913579</ele>
        <time>2022-05-23T20:29:18.482Z</time>
      </trkpt>
      <trkpt lat="41.387873" lon="0.912065">
        <ele>688.902360</ele>
        <time>2022-05-23T20:29:19.486Z</time>
      </trkpt>
      <trkpt lat="41.387813" lon="0.912158">
        <ele>688.891471</ele>
        <time>2022-05-23T20:29:20.488Z</time>
      </trkpt>
      <trkpt lat="41.387710" lon="0.912335">
        <ele>688.936407</ele>
        <time>2022-05-23T20:29:22.488Z</time>
      </trkpt>
      <trkpt lat="41.387613" lon="0.912511">
        <ele>689.003282</ele>
        <time>2022-05-23T20:29:24.477Z</time>
      </trkpt>
      <trkpt lat="41.387496" lon="0.912654">
        <ele>689.068074</ele>
        <time>2022-05-23T20:29:26.483Z</time>
      </trkpt>
      <trkpt lat="41.387379" lon="0.912765">
        <ele>689.126691</ele>
        <time>2022-05-23T20:29:28.479Z</time>
      </trkpt>
      <trkpt lat="41.387281" lon="0.912838">
        <ele>689.172513</ele>
        <time>2022-05-23T20:29:30.497Z</time>
      </trkpt>
      <trkpt lat="41.387179" lon="0.912893">
        <ele>689.217424</ele>
        <time>2022-05-23T20:29:33.479Z</time>
      </trkpt>
      <trkpt lat="41.387090" lon="0.912920">
        <ele>689.254679</ele>
        <time>2022-05-23T20:29:36.479Z</time>
      </trkpt>
      <trkpt lat="41.386990" lon="0.912944">
        <ele>689.296151</ele>
        <time>2022-05-23T20:29:39.474Z</time>
      </trkpt>
      <trkpt lat="41.386868" lon="0.912977">
        <ele>689.346962</ele>
        <time>2022-05-23T20:29:42.490Z</time>
      </trkpt>
      <trkpt lat="41.386751" lon="0.913008">
        <ele>689.395651</ele>
        <time>2022-05-23T20:29:46.481Z</time>
      </trkpt>
      <trkpt lat="41.386654" lon="0.913037">
        <ele>689.436227</ele>
        <time>2022-05-23T20:29:49.477Z</time>
      </trkpt>
      <trkpt lat="41.386547" lon="0.913079">
        <ele>689.481754</ele>
        <time>2022-05-23T20:29:52.484Z</time>
      </trkpt>
      <trkpt lat="41.386442" lon="0.913081">
        <ele>689.524616</ele>
        <time>2022-05-23T20:29:55.485Z</time>
      </trkpt>
      <trkpt lat="41.386346" lon="0.913110">
        <ele>689.564793</ele>
        <time>2022-05-23T20:29:59.478Z</time>
      </trkpt>
      <trkpt lat="41.386243" lon="0.913148">
        <ele>689.608414</ele>
        <time>2022-05-23T20:30:03.483Z</time>
      </trkpt>
      <trkpt lat="41.386126" lon="0.913140">
        <ele>689.740120</ele>
        <time>2022-05-23T20:30:07.504Z</time>
      </trkpt>
      <trkpt lat="41.386022" lon="0.913136">
        <ele>689.881702</ele>
        <time>2022-05-23T20:30:11.495Z</time>
      </trkpt>
      <trkpt lat="41.385922" lon="0.913142">
        <ele>690.017919</ele>
        <time>2022-05-23T20:30:15.493Z</time>
      </trkpt>
      <trkpt lat="41.385818" lon="0.913170">
        <ele>690.162300</ele>
        <time>2022-05-23T20:30:19.494Z</time>
      </trkpt>
      <trkpt lat="41.385724" lon="0.913205">
        <ele>690.295112</ele>
        <time>2022-05-23T20:30:23.491Z</time>
      </trkpt>
      <trkpt lat="41.385615" lon="0.913236">
        <ele>690.446778</ele>
        <time>2022-05-23T20:30:27.486Z</time>
      </trkpt>
      <trkpt lat="41.385523" lon="0.913271">
        <ele>690.576971</ele>
        <time>2022-05-23T20:30:31.489Z</time>
      </trkpt>
      <trkpt lat="41.385418" lon="0.913291">
        <ele>690.721306</ele>
        <time>2022-05-23T20:30:35.484Z</time>
      </trkpt>
      <trkpt lat="41.385327" lon="0.913306">
        <ele>690.846082</ele>
        <time>2022-05-23T20:30:39.488Z</time>
      </trkpt>
      <trkpt lat="41.385223" lon="0.913294">
        <ele>690.988134</ele>
        <time>2022-05-23T20:30:43.499Z</time>
      </trkpt>
      <trkpt lat="41.385125" lon="0.913279">
        <ele>691.122369</ele>
        <time>2022-05-23T20:30:46.487Z</time>
      </trkpt>
      <trkpt lat="41.385015" lon="0.913261">
        <ele>691.273180</ele>
        <time>2022-05-23T20:30:49.465Z</time>
      </trkpt>
      <trkpt lat="41.384903" lon="0.913263">
        <ele>691.425603</ele>
        <time>2022-05-23T20:30:53.487Z</time>
      </trkpt>
      <trkpt lat="41.384800" lon="0.913263">
        <ele>691.565764</ele>
        <time>2022-05-23T20:30:57.486Z</time>
      </trkpt>
      <trkpt lat="41.384687" lon="0.913278">
        <ele>691.720295</ele>
        <time>2022-05-23T20:31:01.472Z</time>
      </trkpt>
      <trkpt lat="41.384595" lon="0.913294">
        <ele>691.846549</ele>
        <time>2022-05-23T20:31:04.479Z</time>
      </trkpt>
      <trkpt lat="41.384486" lon="0.913317">
        <ele>691.996723</ele>
        <time>2022-05-23T20:31:08.490Z</time>
      </trkpt>
      <trkpt lat="41.384388" lon="0.913316">
        <ele>692.128375</ele>
        <time>2022-05-23T20:31:12.482Z</time>
      </trkpt>
      <trkpt lat="41.384298" lon="0.913313">
        <ele>692.247518</ele>
        <time>2022-05-23T20:31:16.492Z</time>
      </trkpt>
      <trkpt lat="41.384195" lon="0.913324">
        <ele>692.384264</ele>
        <time>2022-05-23T20:31:21.479Z</time>
      </trkpt>
      <trkpt lat="41.384103" lon="0.913330">
        <ele>692.506162</ele>
        <time>2022-05-23T20:31:26.486Z</time>
      </trkpt>
      <trkpt lat="41.383996" lon="0.913335">
        <ele>692.647852</ele>
        <time>2022-05-23T20:31:31.488Z</time>
      </trkpt>
      <trkpt lat="41.383897" lon="0.913348">
        <ele>692.779502</ele>
        <time>2022-05-23T20:31:36.490Z</time>
      </trkpt>
      <trkpt lat="41.383806" lon="0.913373">
        <ele>692.902463</ele>
        <time>2022-05-23T20:31:41.489Z</time>
      </trkpt>
      <trkpt lat="41.383709" lon="0.913386">
        <ele>693.031479</ele>
        <time>2022-05-23T20:31:46.494Z</time>
      </trkpt>
      <trkpt lat="41.383607" lon="0.913403">
        <ele>693.167517</ele>
        <time>2022-05-23T20:31:51.494Z</time>
      </trkpt>
      <trkpt lat="41.383515" lon="0.913408">
        <ele>693.289370</ele>
        <time>2022-05-23T20:31:55.502Z</time>
      </trkpt>
      <trkpt lat="41.383411" lon="0.913401">
        <ele>693.427178</ele>
        <time>2022-05-23T20:31:59.494Z</time>
      </trkpt>
      <trkpt lat="41.383299" lon="0.913398">
        <ele>693.575428</ele>
        <time>2022-05-23T20:32:03.488Z</time>
      </trkpt>
      <trkpt lat="41.383186" lon="0.913411">
        <ele>693.725527</ele>
        <time>2022-05-23T20:32:07.491Z</time>
      </trkpt>
      <trkpt lat="41.383074" lon="0.913403">
        <ele>693.873960</ele>
        <time>2022-05-23T20:32:11.504Z</time>
      </trkpt>
      <trkpt lat="41.382984" lon="0.913423">
        <ele>693.994710</ele>
        <time>2022-05-23T20:32:14.486Z</time>
      </trkpt>
      <trkpt lat="41.382877" lon="0.913422">
        <ele>694.136316</ele>
        <time>2022-05-23T20:32:18.489Z</time>
      </trkpt>
      <trkpt lat="41.382766" lon="0.913434">
        <ele>694.283695</ele>
        <time>2022-05-23T20:32:22.490Z</time>
      </trkpt>
      <trkpt lat="41.382664" lon="0.913474">
        <ele>694.424403</ele>
        <time>2022-05-23T20:32:26.491Z</time>
      </trkpt>
      <trkpt lat="41.382557" lon="0.913517">
        <ele>694.406138</ele>
        <time>2022-05-23T20:32:30.488Z</time>
      </trkpt>
      <trkpt lat="41.382454" lon="0.913547">
        <ele>694.358871</ele>
        <time>2022-05-23T20:32:33.489Z</time>
      </trkpt>
      <trkpt lat="41.382349" lon="0.913564">
        <ele>694.311451</ele>
        <time>2022-05-23T20:32:36.484Z</time>
      </trkpt>
      <trkpt lat="41.382258" lon="0.913591">
        <ele>694.269656</ele>
        <time>2022-05-23T20:32:39.485Z</time>
      </trkpt>
      <trkpt lat="41.382169" lon="0.913620">
        <ele>694.228580</ele>
        <time>2022-05-23T20:32:42.490Z</time>
      </trkpt>
      <trkpt lat="41.382041" lon="0.913607">
        <ele>694.171029</ele>
        <time>2022-05-23T20:32:45.487Z</time>
      </trkpt>
      <trkpt lat="41.381946" lon="0.913617">
        <ele>694.128306</ele>
        <time>2022-05-23T20:32:47.492Z</time>
      </trkpt>
      <trkpt lat="41.381831" lon="0.913638">
        <ele>694.076267</ele>
        <time>2022-05-23T20:32:49.488Z</time>
      </trkpt>
      <trkpt lat="41.381687" lon="0.913631">
        <ele>694.011666</ele>
        <time>2022-05-23T20:32:51.491Z</time>
      </trkpt>
      <trkpt lat="41.381518" lon="0.913611">
        <ele>693.935602</ele>
        <time>2022-05-23T20:32:53.488Z</time>
      </trkpt>
      <trkpt lat="41.381369" lon="0.913596">
        <ele>693.868613</ele>
        <time>2022-05-23T20:32:55.478Z</time>
      </trkpt>
      <trkpt lat="41.381232" lon="0.913584">
        <ele>693.807060</ele>
        <time>2022-05-23T20:32:57.487Z</time>
      </trkpt>
      <trkpt lat="41.381102" lon="0.913569">
        <ele>693.748561</ele>
        <time>2022-05-23T20:32:59.468Z</time>
      </trkpt>
      <trkpt lat="41.380992" lon="0.913556">
        <ele>693.699052</ele>
        <time>2022-05-23T20:33:01.485Z</time>
      </trkpt>
      <trkpt lat="41.380862" lon="0.913561">
        <ele>693.646659</ele>
        <time>2022-05-23T20:33:04.487Z</time>
      </trkpt>
      <trkpt lat="41.380766" lon="0.913572">
        <ele>693.841715</ele>
        <time>2022-05-23T20:33:07.484Z</time>
      </trkpt>
      <trkpt lat="41.380662" lon="0.913571">
        <ele>694.052254</ele>
        <time>2022-05-23T20:33:11.478Z</time>
      </trkpt>
      <trkpt lat="41.380555" lon="0.913533">
        <ele>694.276419</ele>
        <time>2022-05-23T20:33:15.489Z</time>
      </trkpt>
      <trkpt lat="41.380462" lon="0.913454">
        <ele>694.499675</ele>
        <time>2022-05-23T20:33:19.498Z</time>
      </trkpt>
      <trkpt lat="41.380367" lon="0.913393">
        <ele>694.713146</ele>
        <time>2022-05-23T20:33:23.483Z</time>
      </trkpt>
      <trkpt lat="41.380274" lon="0.913308">
        <ele>694.941430</ele>
        <time>2022-05-23T20:33:27.487Z</time>
      </trkpt>
      <trkpt lat="41.380185" lon="0.913250">
        <ele>695.141985</ele>
        <time>2022-05-23T20:33:30.489Z</time>
      </trkpt>
      <trkpt lat="41.380102" lon="0.913183">
        <ele>695.338425</ele>
        <time>2022-05-23T20:33:33.486Z</time>
      </trkpt>
      <trkpt lat="41.380011" lon="0.913104">
        <ele>695.558278</ele>
        <time>2022-05-23T20:33:36.477Z</time>
      </trkpt>
      <trkpt lat="41.379894" lon="0.913028">
        <ele>695.821764</ele>
        <time>2022-05-23T20:33:39.471Z</time>
      </trkpt>
      <trkpt lat="41.379812" lon="0.912971">
        <ele>696.008984</ele>
        <time>2022-05-23T20:33:41.475Z</time>
      </trkpt>
      <trkpt lat="41.379706" lon="0.912906">
        <ele>696.245191</ele>
        <time>2022-05-23T20:33:44.475Z</time>
      </trkpt>
      <trkpt lat="41.379585" lon="0.912853">
        <ele>696.503029</ele>
        <time>2022-05-23T20:33:47.484Z</time>
      </trkpt>
      <trkpt lat="41.379496" lon="0.912798">
        <ele>696.701625</ele>
        <time>2022-05-23T20:33:49.488Z</time>
      </trkpt>
      <trkpt lat="41.379400" lon="0.912764">
        <ele>696.902709</ele>
        <time>2022-05-23T20:33:51.476Z</time>
      </trkpt>
      <trkpt lat="41.379310" lon="0.912740">
        <ele>697.088513</ele>
        <time>2022-05-23T20:33:53.471Z</time>
      </trkpt>
      <trkpt lat="41.379206" lon="0.912762">
        <ele>697.267738</ele>
        <time>2022-05-23T20:33:55.481Z</time>
      </trkpt>
      <trkpt lat="41.379126" lon="0.912835">
        <ele>697.108859</ele>
        <time>2022-05-23T20:33:57.475Z</time>
      </trkpt>
      <trkpt lat="41.379063" lon="0.912950">
        <ele>696.933781</ele>
        <time>2022-05-23T20:33:59.479Z</time>
      </trkpt>
      <trkpt lat="41.379020" lon="0.913066">
        <ele>696.774694</ele>
        <time>2022-05-23T20:34:01.508Z</time>
      </trkpt>
      <trkpt lat="41.378997" lon="0.913232">
        <ele>696.567132</ele>
        <time>2022-05-23T20:34:04.484Z</time>
      </trkpt>
      <trkpt lat="41.378989" lon="0.913369">
        <ele>696.398170</ele>
        <time>2022-05-23T20:34:07.492Z</time>
      </trkpt>
      <trkpt lat="41.378939" lon="0.913473">
        <ele>696.246296</ele>
        <time>2022-05-23T20:34:12.482Z</time>
      </trkpt>
      <trkpt lat="41.378861" lon="0.913564">
        <ele>696.076423</ele>
        <time>2022-05-23T20:34:17.486Z</time>
      </trkpt>
      <trkpt lat="41.378798" lon="0.913656">
        <ele>695.923274</ele>
        <time>2022-05-23T20:34:22.486Z</time>
      </trkpt>
      <trkpt lat="41.378761" lon="0.913766">
        <ele>695.775052</ele>
        <time>2022-05-23T20:34:30.484Z</time>
      </trkpt>
      <trkpt lat="41.378718" lon="0.913889">
        <ele>695.608203</ele>
        <time>2022-05-23T20:34:33.484Z</time>
      </trkpt>
      <trkpt lat="41.378612" lon="0.913951">
        <ele>695.418511</ele>
        <time>2022-05-23T20:34:36.487Z</time>
      </trkpt>
      <trkpt lat="41.378476" lon="0.914004">
        <ele>695.186318</ele>
        <time>2022-05-23T20:34:38.488Z</time>
      </trkpt>
      <trkpt lat="41.378316" lon="0.914052">
        <ele>694.917569</ele>
        <time>2022-05-23T20:34:40.493Z</time>
      </trkpt>
      <trkpt lat="41.378178" lon="0.914085">
        <ele>694.687821</ele>
        <time>2022-05-23T20:34:42.483Z</time>
      </trkpt>
      <trkpt lat="41.378060" lon="0.914119">
        <ele>694.489990</ele>
        <time>2022-05-23T20:34:44.478Z</time>
      </trkpt>
      <trkpt lat="41.377945" lon="0.914153">
        <ele>694.361156</ele>
        <time>2022-05-23T20:34:46.484Z</time>
      </trkpt>
      <trkpt lat="41.377823" lon="0.914209">
        <ele>694.501616</ele>
        <time>2022-05-23T20:34:49.485Z</time>
      </trkpt>
      <trkpt lat="41.377726" lon="0.914264">
        <ele>694.616365</ele>
        <time>2022-05-23T20:34:52.486Z</time>
      </trkpt>
      <trkpt lat="41.377618" lon="0.914314">
        <ele>694.740821</ele>
        <time>2022-05-23T20:34:56.494Z</time>
      </trkpt>
      <trkpt lat="41.377511" lon="0.914353">
        <ele>694.861573</ele>
        <time>2022-05-23T20:35:00.486Z</time>
      </trkpt>
      <trkpt lat="41.377405" lon="0.914397">
        <ele>694.982427</ele>
        <time>2022-05-23T20:35:04.490Z</time>
      </trkpt>
      <trkpt lat="41.377320" lon="0.914469">
        <ele>695.092063</ele>
        <time>2022-05-23T20:35:08.490Z</time>
      </trkpt>
      <trkpt lat="41.377250" lon="0.914560">
        <ele>695.198511</ele>
        <time>2022-05-23T20:35:12.487Z</time>
      </trkpt>
      <trkpt lat="41.377152" lon="0.914618">
        <ele>695.315236</ele>
        <time>2022-05-23T20:35:16.484Z</time>
      </trkpt>
      <trkpt lat="41.377062" lon="0.914637">
        <ele>695.414427</ele>
        <time>2022-05-23T20:35:20.491Z</time>
      </trkpt>
      <trkpt lat="41.376959" lon="0.914656">
        <ele>695.527617</ele>
        <time>2022-05-23T20:35:24.489Z</time>
      </trkpt>
      <trkpt lat="41.376871" lon="0.914679">
        <ele>695.625234</ele>
        <time>2022-05-23T20:35:27.483Z</time>
      </trkpt>
      <trkpt lat="41.376764" lon="0.914714">
        <ele>695.745166</ele>
        <time>2022-05-23T20:35:31.495Z</time>
      </trkpt>
      <trkpt lat="41.376655" lon="0.914725">
        <ele>695.864158</ele>
        <time>2022-05-23T20:35:35.488Z</time>
      </trkpt>
      <trkpt lat="41.376554" lon="0.914748">
        <ele>695.975695</ele>
        <time>2022-05-23T20:35:39.494Z</time>
      </trkpt>
      <trkpt lat="41.376453" lon="0.914751">
        <ele>696.085666</ele>
        <time>2022-05-23T20:35:43.491Z</time>
      </trkpt>
      <trkpt lat="41.376343" lon="0.914743">
        <ele>696.205585</ele>
        <time>2022-05-23T20:35:47.489Z</time>
      </trkpt>
      <trkpt lat="41.376229" lon="0.914766">
        <ele>696.303154</ele>
        <time>2022-05-23T20:35:51.490Z</time>
      </trkpt>
      <trkpt lat="41.376126" lon="0.914803">
        <ele>696.333095</ele>
        <time>2022-05-23T20:35:55.486Z</time>
      </trkpt>
      <trkpt lat="41.376018" lon="0.914809">
        <ele>696.363434</ele>
        <time>2022-05-23T20:35:59.488Z</time>
      </trkpt>
      <trkpt lat="41.375926" lon="0.914838">
        <ele>696.389968</ele>
        <time>2022-05-23T20:36:03.483Z</time>
      </trkpt>
      <trkpt lat="41.375831" lon="0.914863">
        <ele>696.417147</ele>
        <time>2022-05-23T20:36:07.481Z</time>
      </trkpt>
      <trkpt lat="41.375720" lon="0.914907">
        <ele>696.449651</ele>
        <time>2022-05-23T20:36:12.487Z</time>
      </trkpt>
      <trkpt lat="41.375617" lon="0.914972">
        <ele>696.481638</ele>
        <time>2022-05-23T20:36:16.485Z</time>
      </trkpt>
      <trkpt lat="41.375525" lon="0.915008">
        <ele>696.508550</ele>
        <time>2022-05-23T20:36:19.486Z</time>
      </trkpt>
      <trkpt lat="41.375433" lon="0.915059">
        <ele>696.536516</ele>
        <time>2022-05-23T20:36:21.496Z</time>
      </trkpt>
      <trkpt lat="41.375306" lon="0.915108">
        <ele>696.573626</ele>
        <time>2022-05-23T20:36:23.490Z</time>
      </trkpt>
      <trkpt lat="41.375175" lon="0.915173">
        <ele>696.612860</ele>
        <time>2022-05-23T20:36:25.484Z</time>
      </trkpt>
      <trkpt lat="41.375015" lon="0.915227">
        <ele>696.659185</ele>
        <time>2022-05-23T20:36:27.498Z</time>
      </trkpt>
      <trkpt lat="41.374849" lon="0.915261">
        <ele>696.706323</ele>
        <time>2022-05-23T20:36:29.482Z</time>
      </trkpt>
      <trkpt lat="41.374694" lon="0.915287">
        <ele>696.750171</ele>
        <time>2022-05-23T20:36:31.483Z</time>
      </trkpt>
      <trkpt lat="41.374540" lon="0.915301">
        <ele>696.793495</ele>
        <time>2022-05-23T20:36:33.485Z</time>
      </trkpt>
      <trkpt lat="41.374396" lon="0.915270">
        <ele>696.696462</ele>
        <time>2022-05-23T20:36:35.493Z</time>
      </trkpt>
      <trkpt lat="41.374254" lon="0.915211">
        <ele>696.578913</ele>
        <time>2022-05-23T20:36:37.486Z</time>
      </trkpt>
      <trkpt lat="41.374101" lon="0.915150">
        <ele>696.452704</ele>
        <time>2022-05-23T20:36:39.486Z</time>
      </trkpt>
      <trkpt lat="41.373960" lon="0.915091">
        <ele>696.335909</ele>
        <time>2022-05-23T20:36:41.489Z</time>
      </trkpt>
      <trkpt lat="41.373817" lon="0.915001">
        <ele>696.210929</ele>
        <time>2022-05-23T20:36:43.483Z</time>
      </trkpt>
      <trkpt lat="41.373665" lon="0.914896">
        <ele>696.075625</ele>
        <time>2022-05-23T20:36:45.478Z</time>
      </trkpt>
      <trkpt lat="41.373531" lon="0.914814">
        <ele>695.959095</ele>
        <time>2022-05-23T20:36:47.481Z</time>
      </trkpt>
      <trkpt lat="41.373386" lon="0.914748">
        <ele>695.838003</ele>
        <time>2022-05-23T20:36:49.495Z</time>
      </trkpt>
      <trkpt lat="41.373236" lon="0.914689">
        <ele>695.714404</ele>
        <time>2022-05-23T20:36:51.485Z</time>
      </trkpt>
      <trkpt lat="41.373102" lon="0.914638">
        <ele>695.604271</ele>
        <time>2022-05-23T20:36:53.483Z</time>
      </trkpt>
      <trkpt lat="41.372962" lon="0.914611">
        <ele>695.492479</ele>
        <time>2022-05-23T20:36:55.489Z</time>
      </trkpt>
      <trkpt lat="41.372823" lon="0.914602">
        <ele>695.382499</ele>
        <time>2022-05-23T20:36:57.482Z</time>
      </trkpt>
      <trkpt lat="41.372690" lon="0.914623">
        <ele>695.141685</ele>
        <time>2022-05-23T20:36:59.475Z</time>
      </trkpt>
      <trkpt lat="41.372562" lon="0.914678">
        <ele>694.892200</ele>
        <time>2022-05-23T20:37:01.472Z</time>
      </trkpt>
      <trkpt lat="41.372433" lon="0.914727">
        <ele>694.643367</ele>
        <time>2022-05-23T20:37:03.490Z</time>
      </trkpt>
      <trkpt lat="41.372302" lon="0.914794">
        <ele>694.383071</ele>
        <time>2022-05-23T20:37:05.482Z</time>
      </trkpt>
      <trkpt lat="41.372161" lon="0.914874">
        <ele>694.098787</ele>
        <time>2022-05-23T20:37:07.484Z</time>
      </trkpt>
      <trkpt lat="41.372026" lon="0.914922">
        <ele>693.839595</ele>
        <time>2022-05-23T20:37:09.484Z</time>
      </trkpt>
      <trkpt lat="41.371899" lon="0.914963">
        <ele>693.597188</ele>
        <time>2022-05-23T20:37:11.485Z</time>
      </trkpt>
      <trkpt lat="41.371795" lon="0.914992">
        <ele>693.400085</ele>
        <time>2022-05-23T20:37:13.473Z</time>
      </trkpt>
      <trkpt lat="41.371698" lon="0.915024">
        <ele>693.214713</ele>
        <time>2022-05-23T20:37:15.475Z</time>
      </trkpt>
      <trkpt lat="41.371581" lon="0.915089">
        <ele>692.979565</ele>
        <time>2022-05-23T20:37:18.485Z</time>
      </trkpt>
      <trkpt lat="41.371473" lon="0.915142">
        <ele>692.766066</ele>
        <time>2022-05-23T20:37:21.482Z</time>
      </trkpt>
      <trkpt lat="41.371363" lon="0.915164">
        <ele>692.559725</ele>
        <time>2022-05-23T20:37:25.490Z</time>
      </trkpt>
      <trkpt lat="41.371262" lon="0.915162">
        <ele>692.372344</ele>
        <time>2022-05-23T20:37:29.485Z</time>
      </trkpt>
      <trkpt lat="41.371163" lon="0.915161">
        <ele>692.188689</ele>
        <time>2022-05-23T20:37:34.485Z</time>
      </trkpt>
      <trkpt lat="41.371067" lon="0.915160">
        <ele>692.077665</ele>
        <time>2022-05-23T20:37:39.479Z</time>
      </trkpt>
      <trkpt lat="41.370971" lon="0.915122">
        <ele>692.311891</ele>
        <time>2022-05-23T20:37:44.477Z</time>
      </trkpt>
      <trkpt lat="41.370877" lon="0.915083">
        <ele>692.542153</ele>
        <time>2022-05-23T20:37:49.476Z</time>
      </trkpt>
      <trkpt lat="41.370777" lon="0.915072">
        <ele>692.776833</ele>
        <time>2022-05-23T20:37:54.487Z</time>
      </trkpt>
      <trkpt lat="41.370674" lon="0.915075">
        <ele>693.017792</ele>
        <time>2022-05-23T20:37:59.485Z</time>
      </trkpt>
      <trkpt lat="41.370580" lon="0.915075">
        <ele>693.237644</ele>
        <time>2022-05-23T20:38:04.481Z</time>
      </trkpt>
      <trkpt lat="41.370482" lon="0.915047">
        <ele>693.472060</ele>
        <time>2022-05-23T20:38:09.481Z</time>
      </trkpt>
      <trkpt lat="41.370404" lon="0.914950">
        <ele>693.721594</ele>
        <time>2022-05-23T20:38:14.474Z</time>
      </trkpt>
      <trkpt lat="41.370316" lon="0.914921">
        <ele>693.933613</ele>
        <time>2022-05-23T20:38:19.483Z</time>
      </trkpt>
      <trkpt lat="41.370212" lon="0.914885">
        <ele>694.184926</ele>
        <time>2022-05-23T20:38:25.486Z</time>
      </trkpt>
      <trkpt lat="41.370113" lon="0.914861">
        <ele>694.420273</ele>
        <time>2022-05-23T20:38:31.484Z</time>
      </trkpt>
      <trkpt lat="41.370029" lon="0.914817">
        <ele>694.631370</ele>
        <time>2022-05-23T20:38:37.478Z</time>
      </trkpt>
      <trkpt lat="41.369928" lon="0.914782">
        <ele>694.875451</ele>
        <time>2022-05-23T20:38:44.487Z</time>
      </trkpt>
      <trkpt lat="41.369825" lon="0.914736">
        <ele>695.129523</ele>
        <time>2022-05-23T20:38:50.484Z</time>
      </trkpt>
      <trkpt lat="41.369712" lon="0.914694">
        <ele>695.403901</ele>
        <time>2022-05-23T20:38:55.485Z</time>
      </trkpt>
      <trkpt lat="41.369613" lon="0.914707">
        <ele>695.636568</ele>
        <time>2022-05-23T20:38:59.471Z</time>
      </trkpt>
      <trkpt lat="41.369507" lon="0.914735">
        <ele>695.889311</ele>
        <time>2022-05-23T20:39:03.485Z</time>
      </trkpt>
      <trkpt lat="41.369414" lon="0.914784">
        <ele>696.123210</ele>
        <time>2022-05-23T20:39:06.486Z</time>
      </trkpt>
      <trkpt lat="41.369310" lon="0.914836">
        <ele>696.247016</ele>
        <time>2022-05-23T20:39:10.494Z</time>
      </trkpt>
      <trkpt lat="41.369218" lon="0.914885">
        <ele>696.247016</ele>
        <time>2022-05-23T20:39:14.489Z</time>
      </trkpt>
      <trkpt lat="41.369123" lon="0.914929">
        <ele>696.247016</ele>
        <time>2022-05-23T20:39:18.485Z</time>
      </trkpt>
      <trkpt lat="41.369017" lon="0.914968">
        <ele>696.247016</ele>
        <time>2022-05-23T20:39:22.488Z</time>
      </trkpt>
      <trkpt lat="41.368914" lon="0.914998">
        <ele>696.247016</ele>
        <time>2022-05-23T20:39:26.484Z</time>
      </trkpt>
      <trkpt lat="41.368811" lon="0.915019">
        <ele>696.247016</ele>
        <time>2022-05-23T20:39:30.482Z</time>
      </trkpt>
      <trkpt lat="41.368720" lon="0.915050">
        <ele>696.247016</ele>
        <time>2022-05-23T20:39:34.484Z</time>
      </trkpt>
      <trkpt lat="41.368621" lon="0.915087">
        <ele>696.247016</ele>
        <time>2022-05-23T20:39:38.486Z</time>
      </trkpt>
      <trkpt lat="41.368531" lon="0.915134">
        <ele>696.247016</ele>
        <time>2022-05-23T20:39:43.487Z</time>
      </trkpt>
      <trkpt lat="41.368433" lon="0.915187">
        <ele>696.247016</ele>
        <time>2022-05-23T20:39:49.473Z</time>
      </trkpt>
      <trkpt lat="41.368332" lon="0.915185">
        <ele>696.247016</ele>
        <time>2022-05-23T20:39:56.480Z</time>
      </trkpt>
      <trkpt lat="41.368238" lon="0.915201">
        <ele>696.247016</ele>
        <time>2022-05-23T20:40:02.488Z</time>
      </trkpt>
      <trkpt lat="41.368147" lon="0.915159">
        <ele>696.247016</ele>
        <time>2022-05-23T20:40:09.504Z</time>
      </trkpt>
      <trkpt lat="41.368050" lon="0.915149">
        <ele>696.247016</ele>
        <time>2022-05-23T20:40:18.483Z</time>
      </trkpt>
      <trkpt lat="41.367965" lon="0.915146">
        <ele>696.247016</ele>
        <time>2022-05-23T20:40:56.614Z</time>
      </trkpt>
      <trkpt lat="41.26423" lon="0.90442">
        <time>2022-05-24 08:28:47</time>
      </trkpt>
      <trkpt lat="41.26423" lon="0.90444">
        <time>2022-05-24 08:28:48</time>
      </trkpt>
      <trkpt lat="41.26424" lon="0.90444">
        <time>2022-05-24 08:28:49</time>
      </trkpt>
      <trkpt lat="41.26423" lon="0.90444">
        <time>2022-05-24 08:28:50</time>
      </trkpt>
      <trkpt lat="41.26422" lon="0.90445">
        <time>2022-05-24 08:28:51</time>
      </trkpt>
      <trkpt lat="41.26421" lon="0.90444">
        <time>2022-05-24 08:28:52</time>
      </trkpt>
      <trkpt lat="41.26419" lon="0.90443">
        <time>2022-05-24 08:28:53</time>
      </trkpt>
      <trkpt lat="41.26417" lon="0.90442">
        <time>2022-05-24 08:28:54</time>
      </trkpt>
      <trkpt lat="41.26414" lon="0.9044">
        <time>2022-05-24 08:28:55</time>
      </trkpt>
      <trkpt lat="41.2641" lon="0.90438">
        <time>2022-05-24 08:28:56</time>
      </trkpt>
      <trkpt lat="41.26406" lon="0.90437">
        <time>2022-05-24 08:28:57</time>
      </trkpt>
      <trkpt lat="41.26402" lon="0.90435">
        <time>2022-05-24 08:28:58</time>
      </trkpt>
      <trkpt lat="41.26398" lon="0.90433">
        <time>2022-05-24 08:28:59</time>
      </trkpt>
      <trkpt lat="41.26394" lon="0.90432">
        <time>2022-05-24 08:29:00</time>
      </trkpt>
      <trkpt lat="41.26387" lon="0.90429">
        <time>2022-05-24 08:29:01</time>
      </trkpt>
      <trkpt lat="41.26383" lon="0.90427">
        <time>2022-05-24 08:29:02</time>
      </trkpt>
      <trkpt lat="41.26377" lon="0.90424">
        <time>2022-05-24 08:29:03</time>
      </trkpt>
      <trkpt lat="41.26372" lon="0.90422">
        <time>2022-05-24 08:29:04</time>
      </trkpt>
      <trkpt lat="41.26366" lon="0.90419">
        <time>2022-05-24 08:29:05</time>
      </trkpt>
      <trkpt lat="41.26363" lon="0.90418">
        <time>2022-05-24 08:29:06</time>
      </trkpt>
      <trkpt lat="41.26357" lon="0.90416">
        <time>2022-05-24 08:29:07</time>
      </trkpt>
      <trkpt lat="41.26349" lon="0.90412">
        <time>2022-05-24 08:29:08</time>
      </trkpt>
      <trkpt lat="41.26342" lon="0.90408">
        <time>2022-05-24 08:29:09</time>
      </trkpt>
      <trkpt lat="41.26338" lon="0.90406">
        <time>2022-05-24 08:29:10</time>
      </trkpt>
      <trkpt lat="41.26329" lon="0.90402">
        <time>2022-05-24 08:29:11</time>
      </trkpt>
      <trkpt lat="41.26324" lon="0.904">
        <time>2022-05-24 08:29:12</time>
      </trkpt>
      <trkpt lat="41.26318" lon="0.90396">
        <time>2022-05-24 08:29:13</time>
      </trkpt>
      <trkpt lat="41.2631" lon="0.90392">
        <time>2022-05-24 08:29:14</time>
      </trkpt>
      <trkpt lat="41.26303" lon="0.90389">
        <time>2022-05-24 08:29:15</time>
      </trkpt>
      <trkpt lat="41.26296" lon="0.90385">
        <time>2022-05-24 08:29:16</time>
      </trkpt>
      <trkpt lat="41.26289" lon="0.90381">
        <time>2022-05-24 08:29:17</time>
      </trkpt>
      <trkpt lat="41.26283" lon="0.90377">
        <time>2022-05-24 08:29:18</time>
      </trkpt>
      <trkpt lat="41.26277" lon="0.90374">
        <time>2022-05-24 08:29:19</time>
      </trkpt>
      <trkpt lat="41.26268" lon="0.9037">
        <time>2022-05-24 08:29:20</time>
      </trkpt>
      <trkpt lat="41.26261" lon="0.90366">
        <time>2022-05-24 08:29:21</time>
      </trkpt>
      <trkpt lat="41.26253" lon="0.90364">
        <time>2022-05-24 08:29:22</time>
      </trkpt>
      <trkpt lat="41.26245" lon="0.90364">
        <time>2022-05-24 08:29:23</time>
      </trkpt>
      <trkpt lat="41.26237" lon="0.90365">
        <time>2022-05-24 08:29:24</time>
      </trkpt>
      <trkpt lat="41.26229" lon="0.90367">
        <ele>524.2</ele>
        <time>2022-05-24 08:29:25</time>
      </trkpt>
      <trkpt lat="41.26221" lon="0.90371">
        <ele>524.2</ele>
        <time>2022-05-24 08:29:26</time>
      </trkpt>
      <trkpt lat="41.26213" lon="0.90376">
        <ele>524</ele>
        <time>2022-05-24 08:29:27</time>
      </trkpt>
      <trkpt lat="41.26204" lon="0.90381">
        <ele>523.8</ele>
        <time>2022-05-24 08:29:28</time>
      </trkpt>
      <trkpt lat="41.26197" lon="0.90387">
        <ele>523.4</ele>
        <time>2022-05-24 08:29:29</time>
      </trkpt>
      <trkpt lat="41.26188" lon="0.90393">
        <ele>522.8</ele>
        <time>2022-05-24 08:29:30</time>
      </trkpt>
      <trkpt lat="41.2618" lon="0.90398">
        <ele>522.4</ele>
        <time>2022-05-24 08:29:31</time>
      </trkpt>
      <trkpt lat="41.26172" lon="0.90404">
        <ele>522</ele>
        <time>2022-05-24 08:29:32</time>
      </trkpt>
      <trkpt lat="41.26164" lon="0.90409">
        <ele>521.6</ele>
        <time>2022-05-24 08:29:33</time>
      </trkpt>
      <trkpt lat="41.26157" lon="0.90416">
        <ele>521.2</ele>
        <time>2022-05-24 08:29:34</time>
      </trkpt>
      <trkpt lat="41.26148" lon="0.90422">
        <ele>520.6</ele>
        <time>2022-05-24 08:29:35</time>
      </trkpt>
      <trkpt lat="41.2614" lon="0.90427">
        <ele>520</ele>
        <time>2022-05-24 08:29:36</time>
      </trkpt>
      <trkpt lat="41.26132" lon="0.90433">
        <ele>519.6</ele>
        <time>2022-05-24 08:29:37</time>
      </trkpt>
      <trkpt lat="41.26124" lon="0.90439">
        <ele>519</ele>
        <time>2022-05-24 08:29:38</time>
      </trkpt>
      <trkpt lat="41.26116" lon="0.90445">
        <ele>518.4</ele>
        <time>2022-05-24 08:29:39</time>
      </trkpt>
      <trkpt lat="41.26108" lon="0.90451">
        <ele>517.8</ele>
        <time>2022-05-24 08:29:40</time>
      </trkpt>
      <trkpt lat="41.26099" lon="0.90458">
        <ele>517.2</ele>
        <time>2022-05-24 08:29:41</time>
      </trkpt>
      <trkpt lat="41.26092" lon="0.90464">
        <ele>516.8</ele>
        <time>2022-05-24 08:29:42</time>
      </trkpt>
      <trkpt lat="41.26083" lon="0.9047">
        <ele>516.2</ele>
        <time>2022-05-24 08:29:43</time>
      </trkpt>
      <trkpt lat="41.26074" lon="0.90476">
        <ele>515.8</ele>
        <time>2022-05-24 08:29:44</time>
      </trkpt>
      <trkpt lat="41.26065" lon="0.90482">
        <ele>515.2</ele>
        <time>2022-05-24 08:29:45</time>
      </trkpt>
      <trkpt lat="41.26057" lon="0.90488">
        <ele>514.6</ele>
        <time>2022-05-24 08:29:46</time>
      </trkpt>
      <trkpt lat="41.26048" lon="0.90494">
        <ele>513.8</ele>
        <time>2022-05-24 08:29:47</time>
      </trkpt>
      <trkpt lat="41.2604" lon="0.90498">
        <ele>513</ele>
        <time>2022-05-24 08:29:48</time>
      </trkpt>
      <trkpt lat="41.2603" lon="0.90501">
        <ele>512</ele>
        <time>2022-05-24 08:29:49</time>
      </trkpt>
      <trkpt lat="41.26021" lon="0.905">
        <ele>511.2</ele>
        <time>2022-05-24 08:29:50</time>
      </trkpt>
      <trkpt lat="41.2601" lon="0.90497">
        <ele>510.4</ele>
        <time>2022-05-24 08:29:51</time>
      </trkpt>
      <trkpt lat="41.26002" lon="0.90491">
        <ele>509.8</ele>
        <time>2022-05-24 08:29:52</time>
      </trkpt>
      <trkpt lat="41.25994" lon="0.90484">
        <ele>509</ele>
        <time>2022-05-24 08:29:53</time>
      </trkpt>
      <trkpt lat="41.25986" lon="0.90475">
        <ele>508.4</ele>
        <time>2022-05-24 08:29:54</time>
      </trkpt>
      <trkpt lat="41.2598" lon="0.90466">
        <ele>507.8</ele>
        <time>2022-05-24 08:29:55</time>
      </trkpt>
      <trkpt lat="41.25973" lon="0.90457">
        <ele>507.2</ele>
        <time>2022-05-24 08:29:56</time>
      </trkpt>
      <trkpt lat="41.25966" lon="0.90449">
        <ele>506.6</ele>
        <time>2022-05-24 08:29:57</time>
      </trkpt>
      <trkpt lat="41.25959" lon="0.9044">
        <ele>506</ele>
        <time>2022-05-24 08:29:58</time>
      </trkpt>
      <trkpt lat="41.25952" lon="0.90431">
        <ele>505.4</ele>
        <time>2022-05-24 08:29:59</time>
      </trkpt>
      <trkpt lat="41.25945" lon="0.90423">
        <ele>505</ele>
        <time>2022-05-24 08:30:00</time>
      </trkpt>
      <trkpt lat="41.25938" lon="0.90414">
        <ele>504.4</ele>
        <time>2022-05-24 08:30:01</time>
      </trkpt>
      <trkpt lat="41.25931" lon="0.90406">
        <ele>504</ele>
        <time>2022-05-24 08:30:02</time>
      </trkpt>
      <trkpt lat="41.25925" lon="0.90398">
        <ele>503.4</ele>
        <time>2022-05-24 08:30:03</time>
      </trkpt>
      <trkpt lat="41.25918" lon="0.9039">
        <ele>502.6</ele>
        <time>2022-05-24 08:30:04</time>
      </trkpt>
      <trkpt lat="41.2591" lon="0.90382">
        <ele>502.2</ele>
        <time>2022-05-24 08:30:05</time>
      </trkpt>
      <trkpt lat="41.25904" lon="0.90374">
        <ele>501.6</ele>
        <time>2022-05-24 08:30:06</time>
      </trkpt>
      <trkpt lat="41.25897" lon="0.90365">
        <ele>501.2</ele>
        <time>2022-05-24 08:30:07</time>
      </trkpt>
      <trkpt lat="41.2589" lon="0.90357">
        <ele>500.6</ele>
        <time>2022-05-24 08:30:08</time>
      </trkpt>
      <trkpt lat="41.25883" lon="0.90348">
        <ele>500</ele>
        <time>2022-05-24 08:30:09</time>
      </trkpt>
      <trkpt lat="41.25877" lon="0.9034">
        <ele>499.4</ele>
        <time>2022-05-24 08:30:10</time>
      </trkpt>
      <trkpt lat="41.25869" lon="0.9033">
        <ele>498.6</ele>
        <time>2022-05-24 08:30:11</time>
      </trkpt>
      <trkpt lat="41.25861" lon="0.90321">
        <ele>498</ele>
        <time>2022-05-24 08:30:12</time>
      </trkpt>
      <trkpt lat="41.25854" lon="0.90312">
        <ele>497.4</ele>
        <time>2022-05-24 08:30:13</time>
      </trkpt>
      <trkpt lat="41.25847" lon="0.90304">
        <ele>496.8</ele>
        <time>2022-05-24 08:30:14</time>
      </trkpt>
      <trkpt lat="41.25839" lon="0.90294">
        <ele>496.4</ele>
        <time>2022-05-24 08:30:15</time>
      </trkpt>
      <trkpt lat="41.25832" lon="0.90286">
        <ele>495.8</ele>
        <time>2022-05-24 08:30:16</time>
      </trkpt>
      <trkpt lat="41.25824" lon="0.90277">
        <ele>495.2</ele>
        <time>2022-05-24 08:30:17</time>
      </trkpt>
      <trkpt lat="41.25817" lon="0.90269">
        <ele>494.8</ele>
        <time>2022-05-24 08:30:18</time>
      </trkpt>
      <trkpt lat="41.2581" lon="0.90261">
        <ele>494.2</ele>
        <time>2022-05-24 08:30:19</time>
      </trkpt>
      <trkpt lat="41.25802" lon="0.90252">
        <ele>493.8</ele>
        <time>2022-05-24 08:30:20</time>
      </trkpt>
      <trkpt lat="41.25794" lon="0.90243">
        <ele>493.4</ele>
        <time>2022-05-24 08:30:21</time>
      </trkpt>
      <trkpt lat="41.25787" lon="0.90234">
        <ele>492.6</ele>
        <time>2022-05-24 08:30:22</time>
      </trkpt>
      <trkpt lat="41.2578" lon="0.90226">
        <ele>492</ele>
        <time>2022-05-24 08:30:23</time>
      </trkpt>
      <trkpt lat="41.25772" lon="0.90217">
        <ele>491.4</ele>
        <time>2022-05-24 08:30:24</time>
      </trkpt>
      <trkpt lat="41.25765" lon="0.90208">
        <ele>490.8</ele>
        <time>2022-05-24 08:30:25</time>
      </trkpt>
      <trkpt lat="41.25758" lon="0.90199">
        <ele>490.4</ele>
        <time>2022-05-24 08:30:26</time>
      </trkpt>
      <trkpt lat="41.2575" lon="0.9019">
        <ele>489.8</ele>
        <time>2022-05-24 08:30:27</time>
      </trkpt>
      <trkpt lat="41.25743" lon="0.90182">
        <ele>489.2</ele>
        <time>2022-05-24 08:30:28</time>
      </trkpt>
      <trkpt lat="41.25735" lon="0.90173">
        <ele>488.8</ele>
        <time>2022-05-24 08:30:29</time>
      </trkpt>
      <trkpt lat="41.25728" lon="0.90165">
        <ele>488.2</ele>
        <time>2022-05-24 08:30:30</time>
      </trkpt>
      <trkpt lat="41.2572" lon="0.90156">
        <ele>487.8</ele>
        <time>2022-05-24 08:30:31</time>
      </trkpt>
      <trkpt lat="41.25713" lon="0.90147">
        <ele>487.2</ele>
        <time>2022-05-24 08:30:32</time>
      </trkpt>
      <trkpt lat="41.25705" lon="0.90138">
        <ele>486.8</ele>
        <time>2022-05-24 08:30:33</time>
      </trkpt>
      <trkpt lat="41.25697" lon="0.90129">
        <ele>486.2</ele>
        <time>2022-05-24 08:30:34</time>
      </trkpt>
      <trkpt lat="41.2569" lon="0.90121">
        <ele>485.8</ele>
        <time>2022-05-24 08:30:35</time>
      </trkpt>
      <trkpt lat="41.25683" lon="0.90113">
        <ele>485.2</ele>
        <time>2022-05-24 08:30:36</time>
      </trkpt>
      <trkpt lat="41.25676" lon="0.90104">
        <ele>484.6</ele>
        <time>2022-05-24 08:30:37</time>
      </trkpt>
      <trkpt lat="41.25668" lon="0.90096">
        <ele>484</ele>
        <time>2022-05-24 08:30:38</time>
      </trkpt>
      <trkpt lat="41.25661" lon="0.90087">
        <ele>483.2</ele>
        <time>2022-05-24 08:30:39</time>
      </trkpt>
      <trkpt lat="41.25654" lon="0.90078">
        <ele>482.6</ele>
        <time>2022-05-24 08:30:40</time>
      </trkpt>
      <trkpt lat="41.25647" lon="0.9007">
        <ele>482</ele>
        <time>2022-05-24 08:30:41</time>
      </trkpt>
      <trkpt lat="41.25639" lon="0.90062">
        <ele>481.6</ele>
        <time>2022-05-24 08:30:42</time>
      </trkpt>
      <trkpt lat="41.25632" lon="0.90053">
        <ele>481</ele>
        <time>2022-05-24 08:30:43</time>
      </trkpt>
      <trkpt lat="41.25626" lon="0.90046">
        <ele>480.6</ele>
        <time>2022-05-24 08:30:44</time>
      </trkpt>
      <trkpt lat="41.25618" lon="0.90038">
        <ele>480.2</ele>
        <time>2022-05-24 08:30:45</time>
      </trkpt>
      <trkpt lat="41.25612" lon="0.90031">
        <ele>479.8</ele>
        <time>2022-05-24 08:30:46</time>
      </trkpt>
      <trkpt lat="41.25604" lon="0.90023">
        <ele>479.4</ele>
        <time>2022-05-24 08:30:47</time>
      </trkpt>
      <trkpt lat="41.25596" lon="0.90017">
        <ele>479</ele>
        <time>2022-05-24 08:30:48</time>
      </trkpt>
      <trkpt lat="41.25587" lon="0.90012">
        <ele>478.6</ele>
        <time>2022-05-24 08:30:49</time>
      </trkpt>
      <trkpt lat="41.25578" lon="0.90009">
        <ele>478</ele>
        <time>2022-05-24 08:30:50</time>
      </trkpt>
      <trkpt lat="41.25569" lon="0.90007">
        <ele>477.6</ele>
        <time>2022-05-24 08:30:51</time>
      </trkpt>
      <trkpt lat="41.25558" lon="0.90006">
        <ele>477</ele>
        <time>2022-05-24 08:30:52</time>
      </trkpt>
      <trkpt lat="41.25549" lon="0.90006">
        <ele>476.2</ele>
        <time>2022-05-24 08:30:53</time>
      </trkpt>
      <trkpt lat="41.25538" lon="0.90007">
        <ele>475.4</ele>
        <time>2022-05-24 08:30:54</time>
      </trkpt>
      <trkpt lat="41.25527" lon="0.90008">
        <ele>475</ele>
        <time>2022-05-24 08:30:55</time>
      </trkpt>
      <trkpt lat="41.25517" lon="0.9001">
        <ele>474.4</ele>
        <time>2022-05-24 08:30:56</time>
      </trkpt>
      <trkpt lat="41.25507" lon="0.90011">
        <ele>474</ele>
        <time>2022-05-24 08:30:57</time>
      </trkpt>
      <trkpt lat="41.25496" lon="0.90013">
        <ele>473.4</ele>
        <time>2022-05-24 08:30:58</time>
      </trkpt>
      <trkpt lat="41.25488" lon="0.90014">
        <ele>473</ele>
        <time>2022-05-24 08:30:59</time>
      </trkpt>
      <trkpt lat="41.25476" lon="0.90015">
        <ele>472.6</ele>
        <time>2022-05-24 08:31:00</time>
      </trkpt>
      <trkpt lat="41.25466" lon="0.90017">
        <ele>472.2</ele>
        <time>2022-05-24 08:31:01</time>
      </trkpt>
      <trkpt lat="41.25457" lon="0.90019">
        <ele>471.8</ele>
        <time>2022-05-24 08:31:02</time>
      </trkpt>
      <trkpt lat="41.25447" lon="0.9002">
        <ele>471.4</ele>
        <time>2022-05-24 08:31:03</time>
      </trkpt>
      <trkpt lat="41.25437" lon="0.90022">
        <ele>471</ele>
        <time>2022-05-24 08:31:04</time>
      </trkpt>
      <trkpt lat="41.25427" lon="0.90024">
        <ele>470.6</ele>
        <time>2022-05-24 08:31:05</time>
      </trkpt>
      <trkpt lat="41.25417" lon="0.90026">
        <ele>470.4</ele>
        <time>2022-05-24 08:31:06</time>
      </trkpt>
      <trkpt lat="41.25408" lon="0.90028">
        <ele>470</ele>
        <time>2022-05-24 08:31:07</time>
      </trkpt>
      <trkpt lat="41.25399" lon="0.9003">
        <ele>469.6</ele>
        <time>2022-05-24 08:31:08</time>
      </trkpt>
      <trkpt lat="41.25389" lon="0.90031">
        <ele>469.2</ele>
        <time>2022-05-24 08:31:09</time>
      </trkpt>
      <trkpt lat="41.2538" lon="0.90033">
        <ele>468.8</ele>
        <time>2022-05-24 08:31:10</time>
      </trkpt>
      <trkpt lat="41.2537" lon="0.90034">
        <ele>468.6</ele>
        <time>2022-05-24 08:31:11</time>
      </trkpt>
      <trkpt lat="41.2536" lon="0.90036">
        <ele>468.2</ele>
        <time>2022-05-24 08:31:12</time>
      </trkpt>
      <trkpt lat="41.25351" lon="0.90037">
        <ele>467.8</ele>
        <time>2022-05-24 08:31:13</time>
      </trkpt>
      <trkpt lat="41.25341" lon="0.90039">
        <ele>467.4</ele>
        <time>2022-05-24 08:31:14</time>
      </trkpt>
      <trkpt lat="41.25332" lon="0.9004">
        <ele>466.8</ele>
        <time>2022-05-24 08:31:15</time>
      </trkpt>
      <trkpt lat="41.25323" lon="0.90042">
        <ele>466.4</ele>
        <time>2022-05-24 08:31:16</time>
      </trkpt>
      <trkpt lat="41.25312" lon="0.90044">
        <ele>466</ele>
        <time>2022-05-24 08:31:17</time>
      </trkpt>
      <trkpt lat="41.25303" lon="0.90045">
        <ele>465.6</ele>
        <time>2022-05-24 08:31:18</time>
      </trkpt>
      <trkpt lat="41.25295" lon="0.90046">
        <ele>465.4</ele>
        <time>2022-05-24 08:31:19</time>
      </trkpt>
      <trkpt lat="41.25287" lon="0.90048">
        <ele>465</ele>
        <time>2022-05-24 08:31:20</time>
      </trkpt>
      <trkpt lat="41.25278" lon="0.90049">
        <ele>464.4</ele>
        <time>2022-05-24 08:31:21</time>
      </trkpt>
      <trkpt lat="41.25269" lon="0.90051">
        <ele>463.8</ele>
        <time>2022-05-24 08:31:22</time>
      </trkpt>
      <trkpt lat="41.2526" lon="0.90052">
        <ele>463.4</ele>
        <time>2022-05-24 08:31:23</time>
      </trkpt>
      <trkpt lat="41.25248" lon="0.90053">
        <ele>463.2</ele>
        <time>2022-05-24 08:31:24</time>
      </trkpt>
      <trkpt lat="41.25237" lon="0.90055">
        <ele>463</ele>
        <time>2022-05-24 08:31:25</time>
      </trkpt>
      <trkpt lat="41.25227" lon="0.90057">
        <ele>462</ele>
        <time>2022-05-24 08:31:26</time>
      </trkpt>
      <trkpt lat="41.25217" lon="0.90058">
        <ele>461.4</ele>
        <time>2022-05-24 08:31:27</time>
      </trkpt>
      <trkpt lat="41.25207" lon="0.9006">
        <ele>461</ele>
        <time>2022-05-24 08:31:28</time>
      </trkpt>
      <trkpt lat="41.25198" lon="0.90061">
        <ele>460.4</ele>
        <time>2022-05-24 08:31:29</time>
      </trkpt>
      <trkpt lat="41.25189" lon="0.90063">
        <ele>459.8</ele>
        <time>2022-05-24 08:31:30</time>
      </trkpt>
      <trkpt lat="41.2518" lon="0.90065">
        <ele>459.2</ele>
        <time>2022-05-24 08:31:31</time>
      </trkpt>
      <trkpt lat="41.2517" lon="0.90066">
        <ele>458.8</ele>
        <time>2022-05-24 08:31:32</time>
      </trkpt>
      <trkpt lat="41.25161" lon="0.90068">
        <ele>458.2</ele>
        <time>2022-05-24 08:31:33</time>
      </trkpt>
      <trkpt lat="41.25151" lon="0.9007">
        <ele>457.8</ele>
        <time>2022-05-24 08:31:34</time>
      </trkpt>
      <trkpt lat="41.25142" lon="0.90071">
        <ele>457.4</ele>
        <time>2022-05-24 08:31:35</time>
      </trkpt>
      <trkpt lat="41.25132" lon="0.90073">
        <ele>457</ele>
        <time>2022-05-24 08:31:36</time>
      </trkpt>
      <trkpt lat="41.25123" lon="0.90074">
        <ele>456.6</ele>
        <time>2022-05-24 08:31:37</time>
      </trkpt>
      <trkpt lat="41.25114" lon="0.90076">
        <ele>456</ele>
        <time>2022-05-24 08:31:38</time>
      </trkpt>
      <trkpt lat="41.25103" lon="0.90077">
        <ele>455.4</ele>
        <time>2022-05-24 08:31:39</time>
      </trkpt>
      <trkpt lat="41.25096" lon="0.90079">
        <ele>455</ele>
        <time>2022-05-24 08:31:40</time>
      </trkpt>
      <trkpt lat="41.25084" lon="0.9008">
        <ele>454.6</ele>
        <time>2022-05-24 08:31:41</time>
      </trkpt>
      <trkpt lat="41.25074" lon="0.90082">
        <ele>454</ele>
        <time>2022-05-24 08:31:42</time>
      </trkpt>
      <trkpt lat="41.25065" lon="0.90083">
        <ele>453.6</ele>
        <time>2022-05-24 08:31:43</time>
      </trkpt>
      <trkpt lat="41.25055" lon="0.90084">
        <ele>453.2</ele>
        <time>2022-05-24 08:31:44</time>
      </trkpt>
      <trkpt lat="41.25046" lon="0.90085">
        <ele>452.8</ele>
        <time>2022-05-24 08:31:45</time>
      </trkpt>
      <trkpt lat="41.25036" lon="0.90086">
        <ele>452.4</ele>
        <time>2022-05-24 08:31:46</time>
      </trkpt>
      <trkpt lat="41.25026" lon="0.90088">
        <ele>452</ele>
        <time>2022-05-24 08:31:47</time>
      </trkpt>
      <trkpt lat="41.25016" lon="0.9009">
        <ele>451.4</ele>
        <time>2022-05-24 08:31:48</time>
      </trkpt>
      <trkpt lat="41.25006" lon="0.90092">
        <ele>451</ele>
        <time>2022-05-24 08:31:49</time>
      </trkpt>
      <trkpt lat="41.24997" lon="0.90093">
        <ele>450.4</ele>
        <time>2022-05-24 08:31:50</time>
      </trkpt>
      <trkpt lat="41.24988" lon="0.90094">
        <ele>450</ele>
        <time>2022-05-24 08:31:51</time>
      </trkpt>
      <trkpt lat="41.24978" lon="0.90095">
        <ele>449.6</ele>
        <time>2022-05-24 08:31:52</time>
      </trkpt>
      <trkpt lat="41.24969" lon="0.90096">
        <ele>449.2</ele>
        <time>2022-05-24 08:31:53</time>
      </trkpt>
      <trkpt lat="41.24959" lon="0.90097">
        <ele>448.8</ele>
        <time>2022-05-24 08:31:54</time>
      </trkpt>
      <trkpt lat="41.2495" lon="0.90097">
        <ele>448.4</ele>
        <time>2022-05-24 08:31:55</time>
      </trkpt>
      <trkpt lat="41.2494" lon="0.90096">
        <ele>448.2</ele>
        <time>2022-05-24 08:31:56</time>
      </trkpt>
      <trkpt lat="41.24931" lon="0.90095">
        <ele>447.8</ele>
        <time>2022-05-24 08:31:57</time>
      </trkpt>
      <trkpt lat="41.24922" lon="0.90093">
        <ele>447.2</ele>
        <time>2022-05-24 08:31:58</time>
      </trkpt>
      <trkpt lat="41.24912" lon="0.9009">
        <ele>446.8</ele>
        <time>2022-05-24 08:31:59</time>
      </trkpt>
      <trkpt lat="41.24904" lon="0.90088">
        <ele>446.6</ele>
        <time>2022-05-24 08:32:00</time>
      </trkpt>
      <trkpt lat="41.24895" lon="0.90085">
        <ele>446.2</ele>
        <time>2022-05-24 08:32:01</time>
      </trkpt>
      <trkpt lat="41.24885" lon="0.90082">
        <ele>445.8</ele>
        <time>2022-05-24 08:32:02</time>
      </trkpt>
      <trkpt lat="41.24876" lon="0.9008">
        <ele>445.4</ele>
        <time>2022-05-24 08:32:03</time>
      </trkpt>
      <trkpt lat="41.24866" lon="0.90078">
        <ele>445</ele>
        <time>2022-05-24 08:32:04</time>
      </trkpt>
      <trkpt lat="41.24857" lon="0.90076">
        <ele>444.6</ele>
        <time>2022-05-24 08:32:05</time>
      </trkpt>
      <trkpt lat="41.24849" lon="0.90074">
        <ele>444.4</ele>
        <time>2022-05-24 08:32:06</time>
      </trkpt>
      <trkpt lat="41.2484" lon="0.90073">
        <ele>444.2</ele>
        <time>2022-05-24 08:32:07</time>
      </trkpt>
      <trkpt lat="41.24831" lon="0.90072">
        <ele>444</ele>
        <time>2022-05-24 08:32:08</time>
      </trkpt>
      <trkpt lat="41.24822" lon="0.90072">
        <ele>443.8</ele>
        <time>2022-05-24 08:32:09</time>
      </trkpt>
      <trkpt lat="41.24812" lon="0.90071">
        <ele>443.8</ele>
        <time>2022-05-24 08:32:10</time>
      </trkpt>
      <trkpt lat="41.24804" lon="0.90071">
        <ele>443.6</ele>
        <time>2022-05-24 08:32:11</time>
      </trkpt>
      <trkpt lat="41.24795" lon="0.90071">
        <ele>443.4</ele>
        <time>2022-05-24 08:32:12</time>
      </trkpt>
      <trkpt lat="41.24787" lon="0.90071">
        <ele>443.4</ele>
        <time>2022-05-24 08:32:13</time>
      </trkpt>
      <trkpt lat="41.24778" lon="0.9007">
        <ele>443.2</ele>
        <time>2022-05-24 08:32:14</time>
      </trkpt>
      <trkpt lat="41.2477" lon="0.9007">
        <ele>443.2</ele>
        <time>2022-05-24 08:32:15</time>
      </trkpt>
      <trkpt lat="41.2476" lon="0.9007">
        <ele>443.2</ele>
        <time>2022-05-24 08:32:16</time>
      </trkpt>
      <trkpt lat="41.24752" lon="0.9007">
        <ele>443.2</ele>
        <time>2022-05-24 08:32:17</time>
      </trkpt>
      <trkpt lat="41.24743" lon="0.90069">
        <ele>443</ele>
        <time>2022-05-24 08:32:18</time>
      </trkpt>
      <trkpt lat="41.24734" lon="0.90069">
        <ele>442.8</ele>
        <time>2022-05-24 08:32:19</time>
      </trkpt>
      <trkpt lat="41.24726" lon="0.90069">
        <ele>442.6</ele>
        <time>2022-05-24 08:32:20</time>
      </trkpt>
      <trkpt lat="41.24717" lon="0.90069">
        <ele>442.4</ele>
        <time>2022-05-24 08:32:21</time>
      </trkpt>
      <trkpt lat="41.24708" lon="0.90068">
        <ele>442.2</ele>
        <time>2022-05-24 08:32:22</time>
      </trkpt>
      <trkpt lat="41.24699" lon="0.90068">
        <ele>441.8</ele>
        <time>2022-05-24 08:32:23</time>
      </trkpt>
      <trkpt lat="41.2469" lon="0.90068">
        <ele>441.6</ele>
        <time>2022-05-24 08:32:24</time>
      </trkpt>
      <trkpt lat="41.24681" lon="0.90067">
        <ele>441.2</ele>
        <time>2022-05-24 08:32:25</time>
      </trkpt>
      <trkpt lat="41.24672" lon="0.90067">
        <ele>440.8</ele>
        <time>2022-05-24 08:32:26</time>
      </trkpt>
      <trkpt lat="41.24663" lon="0.90067">
        <ele>440.4</ele>
        <time>2022-05-24 08:32:27</time>
      </trkpt>
      <trkpt lat="41.24653" lon="0.90067">
        <ele>440</ele>
        <time>2022-05-24 08:32:28</time>
      </trkpt>
      <trkpt lat="41.24643" lon="0.90066">
        <ele>439.8</ele>
        <time>2022-05-24 08:32:29</time>
      </trkpt>
      <trkpt lat="41.24634" lon="0.90066">
        <ele>439.2</ele>
        <time>2022-05-24 08:32:30</time>
      </trkpt>
      <trkpt lat="41.24625" lon="0.90066">
        <ele>438.8</ele>
        <time>2022-05-24 08:32:31</time>
      </trkpt>
      <trkpt lat="41.24615" lon="0.90065">
        <ele>438.2</ele>
        <time>2022-05-24 08:32:32</time>
      </trkpt>
      <trkpt lat="41.24605" lon="0.90065">
        <ele>437.6</ele>
        <time>2022-05-24 08:32:33</time>
      </trkpt>
      <trkpt lat="41.24595" lon="0.90064">
        <ele>437</ele>
        <time>2022-05-24 08:32:34</time>
      </trkpt>
      <trkpt lat="41.24586" lon="0.90063">
        <ele>436.6</ele>
        <time>2022-05-24 08:32:35</time>
      </trkpt>
      <trkpt lat="41.24577" lon="0.90062">
        <ele>436</ele>
        <time>2022-05-24 08:32:36</time>
      </trkpt>
      <trkpt lat="41.24568" lon="0.90061">
        <ele>435.6</ele>
        <time>2022-05-24 08:32:37</time>
      </trkpt>
      <trkpt lat="41.24559" lon="0.90058">
        <ele>435.2</ele>
        <time>2022-05-24 08:32:38</time>
      </trkpt>
      <trkpt lat="41.24549" lon="0.90055">
        <ele>434.8</ele>
        <time>2022-05-24 08:32:39</time>
      </trkpt>
      <trkpt lat="41.2454" lon="0.90051">
        <ele>434.2</ele>
        <time>2022-05-24 08:32:40</time>
      </trkpt>
      <trkpt lat="41.24532" lon="0.90046">
        <ele>433.2</ele>
        <time>2022-05-24 08:32:41</time>
      </trkpt>
      <trkpt lat="41.24525" lon="0.9004">
        <ele>432.6</ele>
        <time>2022-05-24 08:32:42</time>
      </trkpt>
      <trkpt lat="41.24517" lon="0.90033">
        <ele>432</ele>
        <time>2022-05-24 08:32:43</time>
      </trkpt>
      <trkpt lat="41.2451" lon="0.90026">
        <ele>431.6</ele>
        <time>2022-05-24 08:32:44</time>
      </trkpt>
      <trkpt lat="41.24504" lon="0.90019">
        <ele>431.2</ele>
        <time>2022-05-24 08:32:45</time>
      </trkpt>
      <trkpt lat="41.24498" lon="0.90012">
        <ele>431</ele>
        <time>2022-05-24 08:32:46</time>
      </trkpt>
      <trkpt lat="41.24491" lon="0.90004">
        <ele>430.8</ele>
        <time>2022-05-24 08:32:47</time>
      </trkpt>
      <trkpt lat="41.24485" lon="0.89996">
        <ele>430.6</ele>
        <time>2022-05-24 08:32:48</time>
      </trkpt>
      <trkpt lat="41.24479" lon="0.89989">
        <ele>430.2</ele>
        <time>2022-05-24 08:32:49</time>
      </trkpt>
      <trkpt lat="41.24472" lon="0.89982">
        <ele>429.8</ele>
        <time>2022-05-24 08:32:50</time>
      </trkpt>
      <trkpt lat="41.24466" lon="0.89976">
        <ele>429.4</ele>
        <time>2022-05-24 08:32:51</time>
      </trkpt>
      <trkpt lat="41.24459" lon="0.8997">
        <ele>429.2</ele>
        <time>2022-05-24 08:32:52</time>
      </trkpt>
      <trkpt lat="41.24452" lon="0.89965">
        <ele>429</ele>
        <time>2022-05-24 08:32:53</time>
      </trkpt>
      <trkpt lat="41.24444" lon="0.89961">
        <ele>429</ele>
        <time>2022-05-24 08:32:54</time>
      </trkpt>
      <trkpt lat="41.24436" lon="0.89958">
        <ele>428.8</ele>
        <time>2022-05-24 08:32:55</time>
      </trkpt>
      <trkpt lat="41.24427" lon="0.89956">
        <ele>428.4</ele>
        <time>2022-05-24 08:32:56</time>
      </trkpt>
      <trkpt lat="41.2442" lon="0.89955">
        <ele>428</ele>
        <time>2022-05-24 08:32:57</time>
      </trkpt>
      <trkpt lat="41.24411" lon="0.89955">
        <ele>427.8</ele>
        <time>2022-05-24 08:32:58</time>
      </trkpt>
      <trkpt lat="41.24402" lon="0.89955">
        <ele>427.6</ele>
        <time>2022-05-24 08:32:59</time>
      </trkpt>
      <trkpt lat="41.24394" lon="0.89956">
        <ele>427.4</ele>
        <time>2022-05-24 08:33:00</time>
      </trkpt>
      <trkpt lat="41.24386" lon="0.89958">
        <ele>427.4</ele>
        <time>2022-05-24 08:33:01</time>
      </trkpt>
      <trkpt lat="41.24377" lon="0.89959">
        <ele>427.4</ele>
        <time>2022-05-24 08:33:02</time>
      </trkpt>
      <trkpt lat="41.24368" lon="0.89961">
        <ele>427.4</ele>
        <time>2022-05-24 08:33:03</time>
      </trkpt>
      <trkpt lat="41.24359" lon="0.89963">
        <ele>427.2</ele>
        <time>2022-05-24 08:33:04</time>
      </trkpt>
      <trkpt lat="41.24351" lon="0.89965">
        <ele>427.2</ele>
        <time>2022-05-24 08:33:05</time>
      </trkpt>
      <trkpt lat="41.24343" lon="0.89965">
        <ele>426.8</ele>
        <time>2022-05-24 08:33:06</time>
      </trkpt>
      <trkpt lat="41.24334" lon="0.89965">
        <ele>426.6</ele>
        <time>2022-05-24 08:33:07</time>
      </trkpt>
      <trkpt lat="41.24326" lon="0.89964">
        <ele>426.2</ele>
        <time>2022-05-24 08:33:08</time>
      </trkpt>
      <trkpt lat="41.24317" lon="0.8996">
        <ele>426</ele>
        <time>2022-05-24 08:33:09</time>
      </trkpt>
      <trkpt lat="41.24309" lon="0.89957">
        <ele>425.8</ele>
        <time>2022-05-24 08:33:10</time>
      </trkpt>
      <trkpt lat="41.24301" lon="0.89952">
        <ele>425.6</ele>
        <time>2022-05-24 08:33:11</time>
      </trkpt>
      <trkpt lat="41.24295" lon="0.89947">
        <ele>425.4</ele>
        <time>2022-05-24 08:33:12</time>
      </trkpt>
      <trkpt lat="41.24288" lon="0.89941">
        <ele>425</ele>
        <time>2022-05-24 08:33:13</time>
      </trkpt>
      <trkpt lat="41.24281" lon="0.89935">
        <ele>424.8</ele>
        <time>2022-05-24 08:33:14</time>
      </trkpt>
      <trkpt lat="41.24274" lon="0.89928">
        <ele>424.4</ele>
        <time>2022-05-24 08:33:15</time>
      </trkpt>
      <trkpt lat="41.24268" lon="0.89922">
        <ele>424</ele>
        <time>2022-05-24 08:33:16</time>
      </trkpt>
      <trkpt lat="41.24261" lon="0.89916">
        <ele>423.8</ele>
        <time>2022-05-24 08:33:17</time>
      </trkpt>
      <trkpt lat="41.24254" lon="0.8991">
        <ele>423.4</ele>
        <time>2022-05-24 08:33:18</time>
      </trkpt>
      <trkpt lat="41.24247" lon="0.89905">
        <ele>423.2</ele>
        <time>2022-05-24 08:33:19</time>
      </trkpt>
      <trkpt lat="41.2424" lon="0.89899">
        <ele>422.8</ele>
        <time>2022-05-24 08:33:20</time>
      </trkpt>
      <trkpt lat="41.24233" lon="0.89893">
        <ele>422.6</ele>
        <time>2022-05-24 08:33:21</time>
      </trkpt>
      <trkpt lat="41.24227" lon="0.89888">
        <ele>422.2</ele>
        <time>2022-05-24 08:33:22</time>
      </trkpt>
      <trkpt lat="41.2422" lon="0.89881">
        <ele>421.8</ele>
        <time>2022-05-24 08:33:23</time>
      </trkpt>
      <trkpt lat="41.24212" lon="0.89874">
        <ele>421.4</ele>
        <time>2022-05-24 08:33:24</time>
      </trkpt>
      <trkpt lat="41.24205" lon="0.89868">
        <ele>421</ele>
        <time>2022-05-24 08:33:25</time>
      </trkpt>
      <trkpt lat="41.24197" lon="0.89862">
        <ele>420.6</ele>
        <time>2022-05-24 08:33:26</time>
      </trkpt>
      <trkpt lat="41.2419" lon="0.89856">
        <ele>420.4</ele>
        <time>2022-05-24 08:33:27</time>
      </trkpt>
      <trkpt lat="41.24182" lon="0.8985">
        <ele>420.2</ele>
        <time>2022-05-24 08:33:28</time>
      </trkpt>
      <trkpt lat="41.24174" lon="0.89844">
        <ele>420</ele>
        <time>2022-05-24 08:33:29</time>
      </trkpt>
      <trkpt lat="41.24167" lon="0.89839">
        <ele>419.8</ele>
        <time>2022-05-24 08:33:30</time>
      </trkpt>
      <trkpt lat="41.24159" lon="0.89835">
        <ele>419.6</ele>
        <time>2022-05-24 08:33:31</time>
      </trkpt>
      <trkpt lat="41.24151" lon="0.89831">
        <ele>419.6</ele>
        <time>2022-05-24 08:33:32</time>
      </trkpt>
      <trkpt lat="41.24143" lon="0.89827">
        <ele>419.4</ele>
        <time>2022-05-24 08:33:33</time>
      </trkpt>
      <trkpt lat="41.24136" lon="0.89824">
        <ele>419.4</ele>
        <time>2022-05-24 08:33:34</time>
      </trkpt>
      <trkpt lat="41.24128" lon="0.89822">
        <ele>419.2</ele>
        <time>2022-05-24 08:33:35</time>
      </trkpt>
      <trkpt lat="41.2412" lon="0.89821">
        <ele>419.2</ele>
        <time>2022-05-24 08:33:36</time>
      </trkpt>
      <trkpt lat="41.24112" lon="0.89821">
        <ele>419.4</ele>
        <time>2022-05-24 08:33:37</time>
      </trkpt>
      <trkpt lat="41.24104" lon="0.89822">
        <ele>419.4</ele>
        <time>2022-05-24 08:33:38</time>
      </trkpt>
      <trkpt lat="41.24097" lon="0.89824">
        <ele>419.4</ele>
        <time>2022-05-24 08:33:39</time>
      </trkpt>
      <trkpt lat="41.2409" lon="0.89827">
        <ele>419.4</ele>
        <time>2022-05-24 08:33:40</time>
      </trkpt>
      <trkpt lat="41.24082" lon="0.8983">
        <ele>419.4</ele>
        <time>2022-05-24 08:33:41</time>
      </trkpt>
      <trkpt lat="41.24075" lon="0.89833">
        <ele>419.4</ele>
        <time>2022-05-24 08:33:42</time>
      </trkpt>
      <trkpt lat="41.24067" lon="0.89836">
        <ele>419.6</ele>
        <time>2022-05-24 08:33:43</time>
      </trkpt>
      <trkpt lat="41.2406" lon="0.89839">
        <ele>419.6</ele>
        <time>2022-05-24 08:33:44</time>
      </trkpt>
      <trkpt lat="41.24054" lon="0.89841">
        <ele>419.8</ele>
        <time>2022-05-24 08:33:45</time>
      </trkpt>
      <trkpt lat="41.24045" lon="0.89844">
        <ele>419.8</ele>
        <time>2022-05-24 08:33:46</time>
      </trkpt>
      <trkpt lat="41.24039" lon="0.89845">
        <ele>419.8</ele>
        <time>2022-05-24 08:33:47</time>
      </trkpt>
      <trkpt lat="41.24032" lon="0.89847">
        <ele>419.6</ele>
        <time>2022-05-24 08:33:48</time>
      </trkpt>
      <trkpt lat="41.24024" lon="0.89849">
        <ele>419.8</ele>
        <time>2022-05-24 08:33:49</time>
      </trkpt>
      <trkpt lat="41.24018" lon="0.89851">
        <ele>419.8</ele>
        <time>2022-05-24 08:33:50</time>
      </trkpt>
      <trkpt lat="41.24012" lon="0.89852">
        <ele>419.6</ele>
        <time>2022-05-24 08:33:51</time>
      </trkpt>
      <trkpt lat="41.24005" lon="0.89854">
        <ele>419.6</ele>
        <time>2022-05-24 08:33:52</time>
      </trkpt>
      <trkpt lat="41.23999" lon="0.89855">
        <ele>419.6</ele>
        <time>2022-05-24 08:33:53</time>
      </trkpt>
      <trkpt lat="41.23992" lon="0.89856">
        <ele>419.6</ele>
        <time>2022-05-24 08:33:54</time>
      </trkpt>
      <trkpt lat="41.23985" lon="0.89857">
        <ele>419.6</ele>
        <time>2022-05-24 08:33:55</time>
      </trkpt>
      <trkpt lat="41.23978" lon="0.89858">
        <ele>419.4</ele>
        <time>2022-05-24 08:33:56</time>
      </trkpt>
      <trkpt lat="41.23972" lon="0.8986">
        <ele>419.2</ele>
        <time>2022-05-24 08:33:57</time>
      </trkpt>
      <trkpt lat="41.23965" lon="0.89861">
        <ele>419.2</ele>
        <time>2022-05-24 08:33:58</time>
      </trkpt>
      <trkpt lat="41.23959" lon="0.89862">
        <ele>419</ele>
        <time>2022-05-24 08:33:59</time>
      </trkpt>
      <trkpt lat="41.23952" lon="0.89862">
        <ele>419</ele>
        <time>2022-05-24 08:34:00</time>
      </trkpt>
      <trkpt lat="41.23946" lon="0.89862">
        <ele>419</ele>
        <time>2022-05-24 08:34:01</time>
      </trkpt>
      <trkpt lat="41.23939" lon="0.89862">
        <ele>419</ele>
        <time>2022-05-24 08:34:02</time>
      </trkpt>
      <trkpt lat="41.23933" lon="0.89861">
        <ele>419</ele>
        <time>2022-05-24 08:34:03</time>
      </trkpt>
      <trkpt lat="41.23927" lon="0.89861">
        <ele>419</ele>
        <time>2022-05-24 08:34:04</time>
      </trkpt>
      <trkpt lat="41.23922" lon="0.8986">
        <ele>419</ele>
        <time>2022-05-24 08:34:05</time>
      </trkpt>
      <trkpt lat="41.23916" lon="0.89859">
        <ele>419</ele>
        <time>2022-05-24 08:34:06</time>
      </trkpt>
      <trkpt lat="41.2391" lon="0.89858">
        <ele>419</ele>
        <time>2022-05-24 08:34:07</time>
      </trkpt>
      <trkpt lat="41.23904" lon="0.89857">
        <ele>418.8</ele>
        <time>2022-05-24 08:34:08</time>
      </trkpt>
      <trkpt lat="41.23898" lon="0.89857">
        <ele>418.8</ele>
        <time>2022-05-24 08:34:09</time>
      </trkpt>
      <trkpt lat="41.23893" lon="0.89856">
        <ele>418.6</ele>
        <time>2022-05-24 08:34:10</time>
      </trkpt>
      <trkpt lat="41.23887" lon="0.89855">
        <ele>418.6</ele>
        <time>2022-05-24 08:34:11</time>
      </trkpt>
      <trkpt lat="41.23882" lon="0.89853">
        <ele>418.6</ele>
        <time>2022-05-24 08:34:12</time>
      </trkpt>
      <trkpt lat="41.23876" lon="0.8985">
        <ele>418.6</ele>
        <time>2022-05-24 08:34:13</time>
      </trkpt>
      <trkpt lat="41.23871" lon="0.89847">
        <ele>418.8</ele>
        <time>2022-05-24 08:34:14</time>
      </trkpt>
      <trkpt lat="41.23866" lon="0.89843">
        <ele>418.8</ele>
        <time>2022-05-24 08:34:15</time>
      </trkpt>
      <trkpt lat="41.23861" lon="0.89839">
        <ele>418.8</ele>
        <time>2022-05-24 08:34:16</time>
      </trkpt>
      <trkpt lat="41.23858" lon="0.89834">
        <ele>419</ele>
        <time>2022-05-24 08:34:17</time>
      </trkpt>
      <trkpt lat="41.23853" lon="0.89829">
        <ele>419</ele>
        <time>2022-05-24 08:34:18</time>
      </trkpt>
      <trkpt lat="41.23848" lon="0.89824">
        <ele>419</ele>
        <time>2022-05-24 08:34:19</time>
      </trkpt>
      <trkpt lat="41.23844" lon="0.8982">
        <ele>419</ele>
        <time>2022-05-24 08:34:20</time>
      </trkpt>
      <trkpt lat="41.2384" lon="0.89815">
        <ele>419</ele>
        <time>2022-05-24 08:34:21</time>
      </trkpt>
      <trkpt lat="41.23835" lon="0.89811">
        <ele>419</ele>
        <time>2022-05-24 08:34:22</time>
      </trkpt>
      <trkpt lat="41.23831" lon="0.89807">
        <ele>419</ele>
        <time>2022-05-24 08:34:23</time>
      </trkpt>
      <trkpt lat="41.23827" lon="0.89802">
        <ele>419</ele>
        <time>2022-05-24 08:34:24</time>
      </trkpt>
      <trkpt lat="41.23823" lon="0.89796">
        <ele>419</ele>
        <time>2022-05-24 08:34:25</time>
      </trkpt>
      <trkpt lat="41.23819" lon="0.89792">
        <ele>419</ele>
        <time>2022-05-24 08:34:26</time>
      </trkpt>
      <trkpt lat="41.23814" lon="0.89786">
        <ele>419</ele>
        <time>2022-05-24 08:34:27</time>
      </trkpt>
      <trkpt lat="41.23809" lon="0.89782">
        <ele>419</ele>
        <time>2022-05-24 08:34:28</time>
      </trkpt>
      <trkpt lat="41.23804" lon="0.89777">
        <ele>419</ele>
        <time>2022-05-24 08:34:29</time>
      </trkpt>
      <trkpt lat="41.238" lon="0.89774">
        <ele>419</ele>
        <time>2022-05-24 08:34:30</time>
      </trkpt>
      <trkpt lat="41.23794" lon="0.89769">
        <ele>419</ele>
        <time>2022-05-24 08:34:31</time>
      </trkpt>
      <trkpt lat="41.23789" lon="0.89765">
        <ele>418.8</ele>
        <time>2022-05-24 08:34:32</time>
      </trkpt>
      <trkpt lat="41.23783" lon="0.8976">
        <ele>418.8</ele>
        <time>2022-05-24 08:34:33</time>
      </trkpt>
      <trkpt lat="41.23779" lon="0.89756">
        <ele>418.6</ele>
        <time>2022-05-24 08:34:34</time>
      </trkpt>
      <trkpt lat="41.23773" lon="0.89751">
        <ele>418.6</ele>
        <time>2022-05-24 08:34:35</time>
      </trkpt>
      <trkpt lat="41.23766" lon="0.89745">
        <ele>418.6</ele>
        <time>2022-05-24 08:34:36</time>
      </trkpt>
      <trkpt lat="41.23761" lon="0.89741">
        <ele>418.6</ele>
        <time>2022-05-24 08:34:37</time>
      </trkpt>
      <trkpt lat="41.23755" lon="0.89736">
        <ele>418.4</ele>
        <time>2022-05-24 08:34:38</time>
      </trkpt>
      <trkpt lat="41.2375" lon="0.89733">
        <ele>418.4</ele>
        <time>2022-05-24 08:34:39</time>
      </trkpt>
      <trkpt lat="41.23744" lon="0.89728">
        <ele>418.2</ele>
        <time>2022-05-24 08:34:40</time>
      </trkpt>
      <trkpt lat="41.23739" lon="0.89724">
        <ele>418</ele>
        <time>2022-05-24 08:34:41</time>
      </trkpt>
      <trkpt lat="41.23734" lon="0.89719">
        <ele>418</ele>
        <time>2022-05-24 08:34:42</time>
      </trkpt>
      <trkpt lat="41.23729" lon="0.89716">
        <ele>417.8</ele>
        <time>2022-05-24 08:34:43</time>
      </trkpt>
      <trkpt lat="41.23724" lon="0.89712">
        <ele>417.6</ele>
        <time>2022-05-24 08:34:44</time>
      </trkpt>
      <trkpt lat="41.2372" lon="0.89708">
        <ele>417.4</ele>
        <time>2022-05-24 08:34:45</time>
      </trkpt>
      <trkpt lat="41.23714" lon="0.89704">
        <ele>417.4</ele>
        <time>2022-05-24 08:34:46</time>
      </trkpt>
      <trkpt lat="41.2371" lon="0.89701">
        <ele>417.4</ele>
        <time>2022-05-24 08:34:47</time>
      </trkpt>
      <trkpt lat="41.23704" lon="0.89697">
        <ele>417.2</ele>
        <time>2022-05-24 08:34:48</time>
      </trkpt>
      <trkpt lat="41.23699" lon="0.89694">
        <ele>417.2</ele>
        <time>2022-05-24 08:34:49</time>
      </trkpt>
      <trkpt lat="41.23693" lon="0.8969">
        <ele>417</ele>
        <time>2022-05-24 08:34:50</time>
      </trkpt>
      <trkpt lat="41.23689" lon="0.89686">
        <ele>417</ele>
        <time>2022-05-24 08:34:51</time>
      </trkpt>
      <trkpt lat="41.23683" lon="0.8968">
        <ele>416.8</ele>
        <time>2022-05-24 08:34:52</time>
      </trkpt>
      <trkpt lat="41.23678" lon="0.89676">
        <ele>416.8</ele>
        <time>2022-05-24 08:34:53</time>
      </trkpt>
      <trkpt lat="41.23672" lon="0.89671">
        <ele>416.8</ele>
        <time>2022-05-24 08:34:54</time>
      </trkpt>
      <trkpt lat="41.23667" lon="0.89667">
        <ele>416.6</ele>
        <time>2022-05-24 08:34:55</time>
      </trkpt>
      <trkpt lat="41.23661" lon="0.89662">
        <ele>416.6</ele>
        <time>2022-05-24 08:34:56</time>
      </trkpt>
      <trkpt lat="41.23656" lon="0.89657">
        <ele>416.4</ele>
        <time>2022-05-24 08:34:57</time>
      </trkpt>
      <trkpt lat="41.23651" lon="0.89653">
        <ele>416.4</ele>
        <time>2022-05-24 08:34:58</time>
      </trkpt>
      <trkpt lat="41.23647" lon="0.89648">
        <ele>416.2</ele>
        <time>2022-05-24 08:34:59</time>
      </trkpt>
      <trkpt lat="41.23641" lon="0.89642">
        <ele>416.2</ele>
        <time>2022-05-24 08:35:00</time>
      </trkpt>
      <trkpt lat="41.23636" lon="0.89637">
        <ele>416</ele>
        <time>2022-05-24 08:35:01</time>
      </trkpt>
      <trkpt lat="41.23632" lon="0.89632">
        <ele>416</ele>
        <time>2022-05-24 08:35:02</time>
      </trkpt>
      <trkpt lat="41.23627" lon="0.89626">
        <ele>415.8</ele>
        <time>2022-05-24 08:35:03</time>
      </trkpt>
      <trkpt lat="41.23623" lon="0.8962">
        <ele>415.6</ele>
        <time>2022-05-24 08:35:04</time>
      </trkpt>
      <trkpt lat="41.23619" lon="0.89614">
        <ele>415.6</ele>
        <time>2022-05-24 08:35:05</time>
      </trkpt>
      <trkpt lat="41.23614" lon="0.89606">
        <ele>415.4</ele>
        <time>2022-05-24 08:35:06</time>
      </trkpt>
      <trkpt lat="41.2361" lon="0.89599">
        <ele>415.2</ele>
        <time>2022-05-24 08:35:07</time>
      </trkpt>
      <trkpt lat="41.23606" lon="0.89592">
        <ele>415.2</ele>
        <time>2022-05-24 08:35:08</time>
      </trkpt>
      <trkpt lat="41.23601" lon="0.89585">
        <ele>414.8</ele>
        <time>2022-05-24 08:35:09</time>
      </trkpt>
      <trkpt lat="41.23597" lon="0.89577">
        <ele>414.6</ele>
        <time>2022-05-24 08:35:10</time>
      </trkpt>
      <trkpt lat="41.23592" lon="0.8957">
        <ele>414.4</ele>
        <time>2022-05-24 08:35:11</time>
      </trkpt>
      <trkpt lat="41.23588" lon="0.89563">
        <ele>414.2</ele>
        <time>2022-05-24 08:35:12</time>
      </trkpt>
      <trkpt lat="41.23584" lon="0.89555">
        <ele>414</ele>
        <time>2022-05-24 08:35:13</time>
      </trkpt>
      <trkpt lat="41.23579" lon="0.89548">
        <ele>414</ele>
        <time>2022-05-24 08:35:14</time>
      </trkpt>
      <trkpt lat="41.23575" lon="0.89541">
        <ele>414</ele>
        <time>2022-05-24 08:35:15</time>
      </trkpt>
      <trkpt lat="41.2357" lon="0.89534">
        <ele>413.6</ele>
        <time>2022-05-24 08:35:16</time>
      </trkpt>
      <trkpt lat="41.23566" lon="0.89526">
        <ele>413.4</ele>
        <time>2022-05-24 08:35:17</time>
      </trkpt>
      <trkpt lat="41.23562" lon="0.89519">
        <ele>413</ele>
        <time>2022-05-24 08:35:18</time>
      </trkpt>
      <trkpt lat="41.23557" lon="0.89511">
        <ele>412.6</ele>
        <time>2022-05-24 08:35:19</time>
      </trkpt>
      <trkpt lat="41.23552" lon="0.89503">
        <ele>412.2</ele>
        <time>2022-05-24 08:35:20</time>
      </trkpt>
      <trkpt lat="41.23548" lon="0.89495">
        <ele>412</ele>
        <time>2022-05-24 08:35:21</time>
      </trkpt>
      <trkpt lat="41.23544" lon="0.89487">
        <ele>411.6</ele>
        <time>2022-05-24 08:35:22</time>
      </trkpt>
      <trkpt lat="41.23539" lon="0.89478">
        <ele>411.4</ele>
        <time>2022-05-24 08:35:23</time>
      </trkpt>
      <trkpt lat="41.23535" lon="0.89471">
        <ele>411</ele>
        <time>2022-05-24 08:35:24</time>
      </trkpt>
      <trkpt lat="41.23531" lon="0.89463">
        <ele>411</ele>
        <time>2022-05-24 08:35:25</time>
      </trkpt>
      <trkpt lat="41.23526" lon="0.89456">
        <ele>410.8</ele>
        <time>2022-05-24 08:35:26</time>
      </trkpt>
      <trkpt lat="41.23522" lon="0.89449">
        <ele>410.8</ele>
        <time>2022-05-24 08:35:27</time>
      </trkpt>
      <trkpt lat="41.23517" lon="0.89441">
        <ele>410.8</ele>
        <time>2022-05-24 08:35:28</time>
      </trkpt>
      <trkpt lat="41.23512" lon="0.89434">
        <ele>410.8</ele>
        <time>2022-05-24 08:35:29</time>
      </trkpt>
      <trkpt lat="41.23507" lon="0.89428">
        <ele>410.8</ele>
        <time>2022-05-24 08:35:30</time>
      </trkpt>
      <trkpt lat="41.23501" lon="0.89421">
        <ele>410.8</ele>
        <time>2022-05-24 08:35:31</time>
      </trkpt>
      <trkpt lat="41.23495" lon="0.89416">
        <ele>410.8</ele>
        <time>2022-05-24 08:35:32</time>
      </trkpt>
      <trkpt lat="41.23489" lon="0.89413">
        <ele>410.6</ele>
        <time>2022-05-24 08:35:33</time>
      </trkpt>
      <trkpt lat="41.23481" lon="0.8941">
        <ele>410.6</ele>
        <time>2022-05-24 08:35:34</time>
      </trkpt>
      <trkpt lat="41.23475" lon="0.8941">
        <ele>410.6</ele>
        <time>2022-05-24 08:35:35</time>
      </trkpt>
      <trkpt lat="41.23467" lon="0.89411">
        <ele>410.6</ele>
        <time>2022-05-24 08:35:36</time>
      </trkpt>
      <trkpt lat="41.2346" lon="0.89412">
        <ele>410.8</ele>
        <time>2022-05-24 08:35:37</time>
      </trkpt>
      <trkpt lat="41.23454" lon="0.89414">
        <ele>410.8</ele>
        <time>2022-05-24 08:35:38</time>
      </trkpt>
      <trkpt lat="41.23447" lon="0.89415">
        <ele>410.8</ele>
        <time>2022-05-24 08:35:39</time>
      </trkpt>
      <trkpt lat="41.2344" lon="0.89416">
        <ele>410.8</ele>
        <time>2022-05-24 08:35:40</time>
      </trkpt>
      <trkpt lat="41.23434" lon="0.89417">
        <ele>410.8</ele>
        <time>2022-05-24 08:35:41</time>
      </trkpt>
      <trkpt lat="41.23426" lon="0.89418">
        <ele>411</ele>
        <time>2022-05-24 08:35:42</time>
      </trkpt>
      <trkpt lat="41.2342" lon="0.89419">
        <ele>411</ele>
        <time>2022-05-24 08:35:43</time>
      </trkpt>
      <trkpt lat="41.23413" lon="0.89421">
        <ele>411</ele>
        <time>2022-05-24 08:35:44</time>
      </trkpt>
      <trkpt lat="41.23408" lon="0.89422">
        <ele>411</ele>
        <time>2022-05-24 08:35:45</time>
      </trkpt>
      <trkpt lat="41.234" lon="0.89424">
        <ele>411.2</ele>
        <time>2022-05-24 08:35:46</time>
      </trkpt>
      <trkpt lat="41.23395" lon="0.89425">
        <ele>411.2</ele>
        <time>2022-05-24 08:35:47</time>
      </trkpt>
      <trkpt lat="41.23387" lon="0.89427">
        <ele>411</ele>
        <time>2022-05-24 08:35:48</time>
      </trkpt>
      <trkpt lat="41.23382" lon="0.89428">
        <ele>411</ele>
        <time>2022-05-24 08:35:49</time>
      </trkpt>
      <trkpt lat="41.23375" lon="0.8943">
        <ele>411</ele>
        <time>2022-05-24 08:35:50</time>
      </trkpt>
      <trkpt lat="41.23369" lon="0.89431">
        <ele>411</ele>
        <time>2022-05-24 08:35:51</time>
      </trkpt>
      <trkpt lat="41.23362" lon="0.89433">
        <ele>411</ele>
        <time>2022-05-24 08:35:52</time>
      </trkpt>
      <trkpt lat="41.23356" lon="0.89434">
        <ele>411</ele>
        <time>2022-05-24 08:35:53</time>
      </trkpt>
      <trkpt lat="41.2335" lon="0.89435">
        <ele>411</ele>
        <time>2022-05-24 08:35:54</time>
      </trkpt>
      <trkpt lat="41.23344" lon="0.89435">
        <ele>411</ele>
        <time>2022-05-24 08:35:55</time>
      </trkpt>
      <trkpt lat="41.23338" lon="0.89436">
        <ele>411</ele>
        <time>2022-05-24 08:35:56</time>
      </trkpt>
      <trkpt lat="41.23332" lon="0.89435">
        <ele>411</ele>
        <time>2022-05-24 08:35:57</time>
      </trkpt>
      <trkpt lat="41.23326" lon="0.89434">
        <ele>411</ele>
        <time>2022-05-24 08:35:58</time>
      </trkpt>
      <trkpt lat="41.23321" lon="0.89432">
        <ele>411</ele>
        <time>2022-05-24 08:35:59</time>
      </trkpt>
      <trkpt lat="41.23315" lon="0.89429">
        <ele>410.8</ele>
        <time>2022-05-24 08:36:00</time>
      </trkpt>
      <trkpt lat="41.2331" lon="0.89425">
        <ele>410.8</ele>
        <time>2022-05-24 08:36:01</time>
      </trkpt>
      <trkpt lat="41.23304" lon="0.8942">
        <ele>410.8</ele>
        <time>2022-05-24 08:36:02</time>
      </trkpt>
      <trkpt lat="41.23298" lon="0.89415">
        <ele>410.8</ele>
        <time>2022-05-24 08:36:03</time>
      </trkpt>
      <trkpt lat="41.23292" lon="0.89409">
        <ele>410.8</ele>
        <time>2022-05-24 08:36:04</time>
      </trkpt>
      <trkpt lat="41.23286" lon="0.89404">
        <ele>410.6</ele>
        <time>2022-05-24 08:36:05</time>
      </trkpt>
      <trkpt lat="41.23281" lon="0.89398">
        <ele>410.6</ele>
        <time>2022-05-24 08:36:06</time>
      </trkpt>
      <trkpt lat="41.23275" lon="0.89392">
        <ele>410.6</ele>
        <time>2022-05-24 08:36:07</time>
      </trkpt>
      <trkpt lat="41.23269" lon="0.89386">
        <ele>410.6</ele>
        <time>2022-05-24 08:36:08</time>
      </trkpt>
      <trkpt lat="41.23264" lon="0.8938">
        <ele>410.4</ele>
        <time>2022-05-24 08:36:09</time>
      </trkpt>
      <trkpt lat="41.23259" lon="0.89374">
        <ele>410.4</ele>
        <time>2022-05-24 08:36:10</time>
      </trkpt>
      <trkpt lat="41.23254" lon="0.89369">
        <ele>410.4</ele>
        <time>2022-05-24 08:36:11</time>
      </trkpt>
      <trkpt lat="41.23248" lon="0.89364">
        <ele>410.4</ele>
        <time>2022-05-24 08:36:12</time>
      </trkpt>
      <trkpt lat="41.23242" lon="0.89359">
        <ele>410.4</ele>
        <time>2022-05-24 08:36:13</time>
      </trkpt>
      <trkpt lat="41.23237" lon="0.89354">
        <ele>410.6</ele>
        <time>2022-05-24 08:36:14</time>
      </trkpt>
      <trkpt lat="41.23232" lon="0.8935">
        <ele>410.6</ele>
        <time>2022-05-24 08:36:15</time>
      </trkpt>
      <trkpt lat="41.23227" lon="0.89345">
        <ele>410.8</ele>
        <time>2022-05-24 08:36:16</time>
      </trkpt>
      <trkpt lat="41.23224" lon="0.89341">
        <ele>410.8</ele>
        <time>2022-05-24 08:36:17</time>
      </trkpt>
      <trkpt lat="41.2322" lon="0.89334">
        <ele>411</ele>
        <time>2022-05-24 08:36:18</time>
      </trkpt>
      <trkpt lat="41.23218" lon="0.89328">
        <ele>411</ele>
        <time>2022-05-24 08:36:19</time>
      </trkpt>
      <trkpt lat="41.23218" lon="0.89321">
        <ele>411.2</ele>
        <time>2022-05-24 08:36:20</time>
      </trkpt>
      <trkpt lat="41.23218" lon="0.89315">
        <ele>411.4</ele>
        <time>2022-05-24 08:36:21</time>
      </trkpt>
      <trkpt lat="41.2322" lon="0.8931">
        <ele>411.6</ele>
        <time>2022-05-24 08:36:22</time>
      </trkpt>
      <trkpt lat="41.23222" lon="0.89306">
        <ele>411.8</ele>
        <time>2022-05-24 08:36:23</time>
      </trkpt>
      <trkpt lat="41.23223" lon="0.89303">
        <ele>412</ele>
        <time>2022-05-24 08:36:24</time>
      </trkpt>
      <trkpt lat="41.23226" lon="0.89298">
        <ele>412.4</ele>
        <time>2022-05-24 08:36:25</time>
      </trkpt>
      <trkpt lat="41.23229" lon="0.89295">
        <ele>412.6</ele>
        <time>2022-05-24 08:36:26</time>
      </trkpt>
      <trkpt lat="41.23232" lon="0.89292">
        <ele>412.8</ele>
        <time>2022-05-24 08:36:27</time>
      </trkpt>
      <trkpt lat="41.23235" lon="0.8929">
        <ele>413</ele>
        <time>2022-05-24 08:36:28</time>
      </trkpt>
      <trkpt lat="41.23239" lon="0.89287">
        <ele>413.4</ele>
        <time>2022-05-24 08:36:29</time>
      </trkpt>
      <trkpt lat="41.23241" lon="0.89285">
        <ele>413.6</ele>
        <time>2022-05-24 08:36:30</time>
      </trkpt>
      <trkpt lat="41.23244" lon="0.89283">
        <ele>414</ele>
        <time>2022-05-24 08:36:31</time>
      </trkpt>
      <trkpt lat="41.23246" lon="0.8928">
        <ele>414.2</ele>
        <time>2022-05-24 08:36:32</time>
      </trkpt>
      <trkpt lat="41.23248" lon="0.89278">
        <ele>414.4</ele>
        <time>2022-05-24 08:36:33</time>
      </trkpt>
      <trkpt lat="41.23249" lon="0.89276">
        <ele>414.6</ele>
        <time>2022-05-24 08:36:34</time>
      </trkpt>
      <trkpt lat="41.23252" lon="0.89274">
        <ele>415</ele>
        <time>2022-05-24 08:36:35</time>
      </trkpt>
      <trkpt lat="41.23254" lon="0.89272">
        <ele>415.2</ele>
        <time>2022-05-24 08:36:36</time>
      </trkpt>
      <trkpt lat="41.23256" lon="0.8927">
        <ele>415.4</ele>
        <time>2022-05-24 08:36:37</time>
      </trkpt>
      <trkpt lat="41.23257" lon="0.89268">
        <ele>415.6</ele>
        <time>2022-05-24 08:36:38</time>
      </trkpt>
      <trkpt lat="41.2326" lon="0.89266">
        <ele>415.8</ele>
        <time>2022-05-24 08:36:39</time>
      </trkpt>
      <trkpt lat="41.23262" lon="0.89264">
        <ele>416</ele>
        <time>2022-05-24 08:36:40</time>
      </trkpt>
      <trkpt lat="41.23263" lon="0.89262">
        <ele>416.2</ele>
        <time>2022-05-24 08:36:41</time>
      </trkpt>
      <trkpt lat="41.23264" lon="0.8926">
        <ele>416.4</ele>
        <time>2022-05-24 08:36:42</time>
      </trkpt>
      <trkpt lat="41.23266" lon="0.89257">
        <ele>416.6</ele>
        <time>2022-05-24 08:36:43</time>
      </trkpt>
      <trkpt lat="41.23267" lon="0.89255">
        <ele>416.6</ele>
        <time>2022-05-24 08:36:44</time>
      </trkpt>
      <trkpt lat="41.23269" lon="0.89253">
        <ele>416.8</ele>
        <time>2022-05-24 08:36:45</time>
      </trkpt>
      <trkpt lat="41.2327" lon="0.8925">
        <ele>417</ele>
        <time>2022-05-24 08:36:46</time>
      </trkpt>
      <trkpt lat="41.23271" lon="0.89249">
        <ele>417</ele>
        <time>2022-05-24 08:36:47</time>
      </trkpt>
      <trkpt lat="41.23272" lon="0.89245">
        <ele>417.2</ele>
        <time>2022-05-24 08:36:48</time>
      </trkpt>
      <trkpt lat="41.23273" lon="0.89242">
        <ele>417.4</ele>
        <time>2022-05-24 08:36:49</time>
      </trkpt>
      <trkpt lat="41.23275" lon="0.8924">
        <ele>417.6</ele>
        <time>2022-05-24 08:36:50</time>
      </trkpt>
      <trkpt lat="41.23275" lon="0.89238">
        <ele>417.8</ele>
        <time>2022-05-24 08:36:51</time>
      </trkpt>
      <trkpt lat="41.23276" lon="0.89235">
        <ele>417.8</ele>
        <time>2022-05-24 08:36:52</time>
      </trkpt>
      <trkpt lat="41.23277" lon="0.89232">
        <ele>418</ele>
        <time>2022-05-24 08:36:53</time>
      </trkpt>
      <trkpt lat="41.23277" lon="0.89229">
        <ele>418.2</ele>
        <time>2022-05-24 08:36:54</time>
      </trkpt>
      <trkpt lat="41.23278" lon="0.89226">
        <ele>418.4</ele>
        <time>2022-05-24 08:36:55</time>
      </trkpt>
      <trkpt lat="41.23278" lon="0.89224">
        <ele>418.4</ele>
        <time>2022-05-24 08:36:56</time>
      </trkpt>
      <trkpt lat="41.23278" lon="0.89221">
        <ele>418.6</ele>
        <time>2022-05-24 08:36:57</time>
      </trkpt>
      <trkpt lat="41.23279" lon="0.89218">
        <ele>418.8</ele>
        <time>2022-05-24 08:36:58</time>
      </trkpt>
      <trkpt lat="41.23279" lon="0.89216">
        <ele>419</ele>
        <time>2022-05-24 08:36:59</time>
      </trkpt>
      <trkpt lat="41.2328" lon="0.89213">
        <ele>419</ele>
        <time>2022-05-24 08:37:00</time>
      </trkpt>
      <trkpt lat="41.2328" lon="0.89211">
        <ele>419.2</ele>
        <time>2022-05-24 08:37:01</time>
      </trkpt>
      <trkpt lat="41.2328" lon="0.89208">
        <ele>419.4</ele>
        <time>2022-05-24 08:37:02</time>
      </trkpt>
      <trkpt lat="41.2328" lon="0.89206">
        <ele>419.4</ele>
        <time>2022-05-24 08:37:03</time>
      </trkpt>
      <trkpt lat="41.2328" lon="0.89203">
        <ele>419.6</ele>
        <time>2022-05-24 08:37:04</time>
      </trkpt>
      <trkpt lat="41.2328" lon="0.89201">
        <ele>419.6</ele>
        <time>2022-05-24 08:37:05</time>
      </trkpt>
      <trkpt lat="41.2328" lon="0.89198">
        <ele>419.8</ele>
        <time>2022-05-24 08:37:06</time>
      </trkpt>
      <trkpt lat="41.2328" lon="0.89196">
        <ele>420</ele>
        <time>2022-05-24 08:37:07</time>
      </trkpt>
      <trkpt lat="41.2328" lon="0.89193">
        <ele>420</ele>
        <time>2022-05-24 08:37:08</time>
      </trkpt>
      <trkpt lat="41.2328" lon="0.89191">
        <ele>420.2</ele>
        <time>2022-05-24 08:37:09</time>
      </trkpt>
      <trkpt lat="41.2328" lon="0.89189">
        <ele>420.4</ele>
        <time>2022-05-24 08:37:10</time>
      </trkpt>
      <trkpt lat="41.23279" lon="0.89187">
        <ele>420.4</ele>
        <time>2022-05-24 08:37:11</time>
      </trkpt>
      <trkpt lat="41.23278" lon="0.89184">
        <ele>420.6</ele>
        <time>2022-05-24 08:37:12</time>
      </trkpt>
      <trkpt lat="41.23278" lon="0.89181">
        <ele>420.8</ele>
        <time>2022-05-24 08:37:13</time>
      </trkpt>
      <trkpt lat="41.23279" lon="0.89179">
        <ele>421</ele>
        <time>2022-05-24 08:37:14</time>
      </trkpt>
      <trkpt lat="41.23279" lon="0.89176">
        <ele>421</ele>
        <time>2022-05-24 08:37:15</time>
      </trkpt>
      <trkpt lat="41.23279" lon="0.89174">
        <ele>421.2</ele>
        <time>2022-05-24 08:37:16</time>
      </trkpt>
      <trkpt lat="41.23279" lon="0.89171">
        <ele>421.4</ele>
        <time>2022-05-24 08:37:17</time>
      </trkpt>
      <trkpt lat="41.23279" lon="0.89168">
        <ele>421.4</ele>
        <time>2022-05-24 08:37:18</time>
      </trkpt>
      <trkpt lat="41.23278" lon="0.89166">
        <ele>421.6</ele>
        <time>2022-05-24 08:37:19</time>
      </trkpt>
      <trkpt lat="41.23278" lon="0.89163">
        <ele>421.8</ele>
        <time>2022-05-24 08:37:20</time>
      </trkpt>
      <trkpt lat="41.23278" lon="0.89161">
        <ele>422</ele>
        <time>2022-05-24 08:37:21</time>
      </trkpt>
      <trkpt lat="41.23278" lon="0.89158">
        <ele>422</ele>
        <time>2022-05-24 08:37:22</time>
      </trkpt>
      <trkpt lat="41.23277" lon="0.89156">
        <ele>422.2</ele>
        <time>2022-05-24 08:37:23</time>
      </trkpt>
      <trkpt lat="41.23277" lon="0.89153">
        <ele>422.4</ele>
        <time>2022-05-24 08:37:24</time>
      </trkpt>
      <trkpt lat="41.23277" lon="0.89151">
        <ele>422.4</ele>
        <time>2022-05-24 08:37:25</time>
      </trkpt>
      <trkpt lat="41.23276" lon="0.89148">
        <ele>422.6</ele>
        <time>2022-05-24 08:37:26</time>
      </trkpt>
      <trkpt lat="41.23276" lon="0.89146">
        <ele>422.8</ele>
        <time>2022-05-24 08:37:27</time>
      </trkpt>
      <trkpt lat="41.23275" lon="0.89143">
        <ele>422.8</ele>
        <time>2022-05-24 08:37:28</time>
      </trkpt>
      <trkpt lat="41.23275" lon="0.8914">
        <ele>423</ele>
        <time>2022-05-24 08:37:29</time>
      </trkpt>
      <trkpt lat="41.23275" lon="0.89138">
        <ele>423.2</ele>
        <time>2022-05-24 08:37:30</time>
      </trkpt>
      <trkpt lat="41.23274" lon="0.89135">
        <ele>423.2</ele>
        <time>2022-05-24 08:37:31</time>
      </trkpt>
      <trkpt lat="41.23274" lon="0.89133">
        <ele>423.4</ele>
        <time>2022-05-24 08:37:32</time>
      </trkpt>
      <trkpt lat="41.23273" lon="0.8913">
        <ele>423.4</ele>
        <time>2022-05-24 08:37:33</time>
      </trkpt>
      <trkpt lat="41.23273" lon="0.89127">
        <ele>423.6</ele>
        <time>2022-05-24 08:37:34</time>
      </trkpt>
      <trkpt lat="41.23273" lon="0.89125">
        <ele>423.8</ele>
        <time>2022-05-24 08:37:35</time>
      </trkpt>
      <trkpt lat="41.23272" lon="0.89122">
        <ele>423.8</ele>
        <time>2022-05-24 08:37:36</time>
      </trkpt>
      <trkpt lat="41.23272" lon="0.89119">
        <ele>424</ele>
        <time>2022-05-24 08:37:37</time>
      </trkpt>
      <trkpt lat="41.23272" lon="0.89116">
        <ele>424</ele>
        <time>2022-05-24 08:37:38</time>
      </trkpt>
      <trkpt lat="41.23271" lon="0.89113">
        <ele>424</ele>
        <time>2022-05-24 08:37:39</time>
      </trkpt>
      <trkpt lat="41.23271" lon="0.8911">
        <ele>424.2</ele>
        <time>2022-05-24 08:37:40</time>
      </trkpt>
      <trkpt lat="41.23271" lon="0.89107">
        <ele>424.2</ele>
        <time>2022-05-24 08:37:41</time>
      </trkpt>
      <trkpt lat="41.2327" lon="0.89104">
        <ele>424.4</ele>
        <time>2022-05-24 08:37:42</time>
      </trkpt>
      <trkpt lat="41.2327" lon="0.89101">
        <ele>424.4</ele>
        <time>2022-05-24 08:37:43</time>
      </trkpt>
      <trkpt lat="41.2327" lon="0.89098">
        <ele>424.6</ele>
        <time>2022-05-24 08:37:44</time>
      </trkpt>
      <trkpt lat="41.23269" lon="0.89094">
        <ele>424.6</ele>
        <time>2022-05-24 08:37:45</time>
      </trkpt>
      <trkpt lat="41.23269" lon="0.8909">
        <ele>424.6</ele>
        <time>2022-05-24 08:37:46</time>
      </trkpt>
      <trkpt lat="41.23269" lon="0.89086">
        <ele>424.6</ele>
        <time>2022-05-24 08:37:47</time>
      </trkpt>
      <trkpt lat="41.23269" lon="0.89082">
        <ele>424.8</ele>
        <time>2022-05-24 08:37:48</time>
      </trkpt>
      <trkpt lat="41.23269" lon="0.89078">
        <ele>424.8</ele>
        <time>2022-05-24 08:37:49</time>
      </trkpt>
      <trkpt lat="41.23269" lon="0.89074">
        <ele>424.8</ele>
        <time>2022-05-24 08:37:50</time>
      </trkpt>
      <trkpt lat="41.23269" lon="0.89069">
        <ele>424.8</ele>
        <time>2022-05-24 08:37:51</time>
      </trkpt>
      <trkpt lat="41.23269" lon="0.89065">
        <ele>424.8</ele>
        <time>2022-05-24 08:37:52</time>
      </trkpt>
      <trkpt lat="41.23269" lon="0.8906">
        <ele>424.8</ele>
        <time>2022-05-24 08:37:53</time>
      </trkpt>
      <trkpt lat="41.23269" lon="0.89056">
        <ele>424.8</ele>
        <time>2022-05-24 08:37:54</time>
      </trkpt>
      <trkpt lat="41.23269" lon="0.89052">
        <ele>424.8</ele>
        <time>2022-05-24 08:37:55</time>
      </trkpt>
      <trkpt lat="41.2327" lon="0.89048">
        <ele>424.8</ele>
        <time>2022-05-24 08:37:56</time>
      </trkpt>
      <trkpt lat="41.2327" lon="0.89044">
        <ele>425</ele>
        <time>2022-05-24 08:37:57</time>
      </trkpt>
      <trkpt lat="41.2327" lon="0.8904">
        <ele>425</ele>
        <time>2022-05-24 08:37:58</time>
      </trkpt>
      <trkpt lat="41.23271" lon="0.89036">
        <ele>425</ele>
        <time>2022-05-24 08:37:59</time>
      </trkpt>
      <trkpt lat="41.23272" lon="0.89032">
        <ele>425.2</ele>
        <time>2022-05-24 08:38:00</time>
      </trkpt>
      <trkpt lat="41.23273" lon="0.89028">
        <ele>425.2</ele>
        <time>2022-05-24 08:38:01</time>
      </trkpt>
      <trkpt lat="41.23274" lon="0.89025">
        <ele>425.4</ele>
        <time>2022-05-24 08:38:02</time>
      </trkpt>
      <trkpt lat="41.23275" lon="0.89021">
        <ele>425.4</ele>
        <time>2022-05-24 08:38:03</time>
      </trkpt>
      <trkpt lat="41.23276" lon="0.89018">
        <ele>425.6</ele>
        <time>2022-05-24 08:38:04</time>
      </trkpt>
      <trkpt lat="41.23278" lon="0.89014">
        <ele>425.6</ele>
        <time>2022-05-24 08:38:05</time>
      </trkpt>
      <trkpt lat="41.23279" lon="0.89011">
        <ele>425.8</ele>
        <time>2022-05-24 08:38:06</time>
      </trkpt>
      <trkpt lat="41.2328" lon="0.89007">
        <ele>426</ele>
        <time>2022-05-24 08:38:07</time>
      </trkpt>
      <trkpt lat="41.23281" lon="0.89004">
        <ele>426</ele>
        <time>2022-05-24 08:38:08</time>
      </trkpt>
      <trkpt lat="41.23283" lon="0.89001">
        <ele>426.2</ele>
        <time>2022-05-24 08:38:09</time>
      </trkpt>
      <trkpt lat="41.23284" lon="0.88998">
        <ele>426.4</ele>
        <time>2022-05-24 08:38:10</time>
      </trkpt>
      <trkpt lat="41.23285" lon="0.88996">
        <ele>426.6</ele>
        <time>2022-05-24 08:38:11</time>
      </trkpt>
      <trkpt lat="41.23287" lon="0.88993">
        <ele>426.8</ele>
        <time>2022-05-24 08:38:12</time>
      </trkpt>
      <trkpt lat="41.23289" lon="0.88991">
        <ele>427</ele>
        <time>2022-05-24 08:38:13</time>
      </trkpt>
      <trkpt lat="41.2329" lon="0.88989">
        <ele>427.2</ele>
        <time>2022-05-24 08:38:14</time>
      </trkpt>
      <trkpt lat="41.23292" lon="0.88986">
        <ele>427.4</ele>
        <time>2022-05-24 08:38:15</time>
      </trkpt>
      <trkpt lat="41.23293" lon="0.88984">
        <ele>427.6</ele>
        <time>2022-05-24 08:38:16</time>
      </trkpt>
      <trkpt lat="41.23295" lon="0.88982">
        <ele>427.8</ele>
        <time>2022-05-24 08:38:17</time>
      </trkpt>
      <trkpt lat="41.23297" lon="0.88979">
        <ele>428</ele>
        <time>2022-05-24 08:38:18</time>
      </trkpt>
      <trkpt lat="41.23299" lon="0.88977">
        <ele>428.2</ele>
        <time>2022-05-24 08:38:19</time>
      </trkpt>
      <trkpt lat="41.233" lon="0.88974">
        <ele>428.4</ele>
        <time>2022-05-24 08:38:20</time>
      </trkpt>
      <trkpt lat="41.23302" lon="0.88972">
        <ele>428.6</ele>
        <time>2022-05-24 08:38:21</time>
      </trkpt>
      <trkpt lat="41.23304" lon="0.8897">
        <ele>428.8</ele>
        <time>2022-05-24 08:38:22</time>
      </trkpt>
      <trkpt lat="41.23305" lon="0.88968">
        <ele>429.2</ele>
        <time>2022-05-24 08:38:23</time>
      </trkpt>
      <trkpt lat="41.23307" lon="0.88965">
        <ele>429.4</ele>
        <time>2022-05-24 08:38:24</time>
      </trkpt>
      <trkpt lat="41.23309" lon="0.88964">
        <ele>429.6</ele>
        <time>2022-05-24 08:38:25</time>
      </trkpt>
      <trkpt lat="41.23311" lon="0.88962">
        <ele>429.8</ele>
        <time>2022-05-24 08:38:26</time>
      </trkpt>
      <trkpt lat="41.23312" lon="0.8896">
        <ele>430.2</ele>
        <time>2022-05-24 08:38:27</time>
      </trkpt>
      <trkpt lat="41.23314" lon="0.88958">
        <ele>430.4</ele>
        <time>2022-05-24 08:38:28</time>
      </trkpt>
      <trkpt lat="41.23316" lon="0.88956">
        <ele>430.6</ele>
        <time>2022-05-24 08:38:29</time>
      </trkpt>
      <trkpt lat="41.23317" lon="0.88954">
        <ele>430.8</ele>
        <time>2022-05-24 08:38:30</time>
      </trkpt>
      <trkpt lat="41.23319" lon="0.88952">
        <ele>431</ele>
        <time>2022-05-24 08:38:31</time>
      </trkpt>
      <trkpt lat="41.23321" lon="0.8895">
        <ele>431.2</ele>
        <time>2022-05-24 08:38:32</time>
      </trkpt>
      <trkpt lat="41.23323" lon="0.88948">
        <ele>431.4</ele>
        <time>2022-05-24 08:38:33</time>
      </trkpt>
      <trkpt lat="41.23326" lon="0.88946">
        <ele>431.6</ele>
        <time>2022-05-24 08:38:34</time>
      </trkpt>
      <trkpt lat="41.23328" lon="0.88945">
        <ele>431.8</ele>
        <time>2022-05-24 08:38:35</time>
      </trkpt>
      <trkpt lat="41.2333" lon="0.88943">
        <ele>432</ele>
        <time>2022-05-24 08:38:36</time>
      </trkpt>
      <trkpt lat="41.23333" lon="0.88941">
        <ele>432.2</ele>
        <time>2022-05-24 08:38:37</time>
      </trkpt>
      <trkpt lat="41.23336" lon="0.88939">
        <ele>432.4</ele>
        <time>2022-05-24 08:38:38</time>
      </trkpt>
      <trkpt lat="41.23338" lon="0.88938">
        <ele>432.6</ele>
        <time>2022-05-24 08:38:39</time>
      </trkpt>
      <trkpt lat="41.2334" lon="0.88936">
        <ele>432.8</ele>
        <time>2022-05-24 08:38:40</time>
      </trkpt>
      <trkpt lat="41.23343" lon="0.88933">
        <ele>433</ele>
        <time>2022-05-24 08:38:41</time>
      </trkpt>
      <trkpt lat="41.23345" lon="0.88931">
        <ele>433</ele>
        <time>2022-05-24 08:38:42</time>
      </trkpt>
      <trkpt lat="41.23347" lon="0.88929">
        <ele>433.2</ele>
        <time>2022-05-24 08:38:43</time>
      </trkpt>
      <trkpt lat="41.23349" lon="0.88928">
        <ele>433.2</ele>
        <time>2022-05-24 08:38:44</time>
      </trkpt>
      <trkpt lat="41.23352" lon="0.88925">
        <ele>433.4</ele>
        <time>2022-05-24 08:38:45</time>
      </trkpt>
      <trkpt lat="41.23354" lon="0.88923">
        <ele>433.4</ele>
        <time>2022-05-24 08:38:46</time>
      </trkpt>
      <trkpt lat="41.23355" lon="0.8892">
        <ele>433.6</ele>
        <time>2022-05-24 08:38:47</time>
      </trkpt>
      <trkpt lat="41.23358" lon="0.88918">
        <ele>433.8</ele>
        <time>2022-05-24 08:38:48</time>
      </trkpt>
      <trkpt lat="41.23361" lon="0.88916">
        <ele>433.8</ele>
        <time>2022-05-24 08:38:49</time>
      </trkpt>
      <trkpt lat="41.23363" lon="0.88914">
        <ele>433.8</ele>
        <time>2022-05-24 08:38:50</time>
      </trkpt>
      <trkpt lat="41.23366" lon="0.88912">
        <ele>434</ele>
        <time>2022-05-24 08:38:51</time>
      </trkpt>
      <trkpt lat="41.23368" lon="0.8891">
        <ele>434</ele>
        <time>2022-05-24 08:38:52</time>
      </trkpt>
      <trkpt lat="41.23371" lon="0.88907">
        <ele>434</ele>
        <time>2022-05-24 08:38:53</time>
      </trkpt>
      <trkpt lat="41.23373" lon="0.88905">
        <ele>434.2</ele>
        <time>2022-05-24 08:38:54</time>
      </trkpt>
      <trkpt lat="41.23375" lon="0.88902">
        <ele>434.2</ele>
        <time>2022-05-24 08:38:55</time>
      </trkpt>
      <trkpt lat="41.23378" lon="0.889">
        <ele>434.2</ele>
        <time>2022-05-24 08:38:56</time>
      </trkpt>
      <trkpt lat="41.2338" lon="0.88898">
        <ele>434.2</ele>
        <time>2022-05-24 08:38:57</time>
      </trkpt>
      <trkpt lat="41.23383" lon="0.88895">
        <ele>434.4</ele>
        <time>2022-05-24 08:38:58</time>
      </trkpt>
      <trkpt lat="41.23386" lon="0.88893">
        <ele>434.4</ele>
        <time>2022-05-24 08:38:59</time>
      </trkpt>
      <trkpt lat="41.23388" lon="0.88891">
        <ele>434.4</ele>
        <time>2022-05-24 08:39:00</time>
      </trkpt>
      <trkpt lat="41.23391" lon="0.88889">
        <ele>434.4</ele>
        <time>2022-05-24 08:39:01</time>
      </trkpt>
      <trkpt lat="41.23394" lon="0.88887">
        <ele>434.6</ele>
        <time>2022-05-24 08:39:02</time>
      </trkpt>
      <trkpt lat="41.23396" lon="0.88885">
        <ele>434.6</ele>
        <time>2022-05-24 08:39:03</time>
      </trkpt>
      <trkpt lat="41.23399" lon="0.88883">
        <ele>434.6</ele>
        <time>2022-05-24 08:39:04</time>
      </trkpt>
      <trkpt lat="41.23401" lon="0.88881">
        <ele>434.6</ele>
        <time>2022-05-24 08:39:05</time>
      </trkpt>
      <trkpt lat="41.23403" lon="0.8888">
        <ele>434.8</ele>
        <time>2022-05-24 08:39:06</time>
      </trkpt>
      <trkpt lat="41.23406" lon="0.88878">
        <ele>434.8</ele>
        <time>2022-05-24 08:39:07</time>
      </trkpt>
      <trkpt lat="41.23408" lon="0.88876">
        <ele>434.8</ele>
        <time>2022-05-24 08:39:08</time>
      </trkpt>
      <trkpt lat="41.2341" lon="0.88874">
        <ele>434.8</ele>
        <time>2022-05-24 08:39:09</time>
      </trkpt>
      <trkpt lat="41.23412" lon="0.88872">
        <ele>435</ele>
        <time>2022-05-24 08:39:10</time>
      </trkpt>
      <trkpt lat="41.23415" lon="0.88871">
        <ele>435</ele>
        <time>2022-05-24 08:39:11</time>
      </trkpt>
      <trkpt lat="41.23417" lon="0.88869">
        <ele>435</ele>
        <time>2022-05-24 08:39:12</time>
      </trkpt>
      <trkpt lat="41.2342" lon="0.88867">
        <ele>435</ele>
        <time>2022-05-24 08:39:13</time>
      </trkpt>
      <trkpt lat="41.23422" lon="0.88865">
        <ele>435</ele>
        <time>2022-05-24 08:39:14</time>
      </trkpt>
      <trkpt lat="41.23424" lon="0.88863">
        <ele>435</ele>
        <time>2022-05-24 08:39:15</time>
      </trkpt>
      <trkpt lat="41.23426" lon="0.88861">
        <ele>435.2</ele>
        <time>2022-05-24 08:39:16</time>
      </trkpt>
      <trkpt lat="41.23429" lon="0.88859">
        <ele>435.2</ele>
        <time>2022-05-24 08:39:17</time>
      </trkpt>
      <trkpt lat="41.23431" lon="0.88857">
        <ele>435.2</ele>
        <time>2022-05-24 08:39:18</time>
      </trkpt>
      <trkpt lat="41.23433" lon="0.88855">
        <ele>435.2</ele>
        <time>2022-05-24 08:39:19</time>
      </trkpt>
      <trkpt lat="41.23435" lon="0.88852">
        <ele>435.2</ele>
        <time>2022-05-24 08:39:20</time>
      </trkpt>
      <trkpt lat="41.23437" lon="0.8885">
        <ele>435.2</ele>
        <time>2022-05-24 08:39:21</time>
      </trkpt>
      <trkpt lat="41.23439" lon="0.88847">
        <ele>435.4</ele>
        <time>2022-05-24 08:39:22</time>
      </trkpt>
      <trkpt lat="41.23441" lon="0.88844">
        <ele>435.4</ele>
        <time>2022-05-24 08:39:23</time>
      </trkpt>
      <trkpt lat="41.23442" lon="0.88841">
        <ele>435.6</ele>
        <time>2022-05-24 08:39:24</time>
      </trkpt>
      <trkpt lat="41.23444" lon="0.88838">
        <ele>435.6</ele>
        <time>2022-05-24 08:39:25</time>
      </trkpt>
      <trkpt lat="41.23445" lon="0.88834">
        <ele>435.8</ele>
        <time>2022-05-24 08:39:26</time>
      </trkpt>
      <trkpt lat="41.23446" lon="0.88831">
        <ele>435.8</ele>
        <time>2022-05-24 08:39:27</time>
      </trkpt>
      <trkpt lat="41.23446" lon="0.88826">
        <ele>435.8</ele>
        <time>2022-05-24 08:39:28</time>
      </trkpt>
      <trkpt lat="41.23446" lon="0.88822">
        <ele>435.8</ele>
        <time>2022-05-24 08:39:29</time>
      </trkpt>
      <trkpt lat="41.23447" lon="0.88817">
        <ele>435.8</ele>
        <time>2022-05-24 08:39:30</time>
      </trkpt>
      <trkpt lat="41.23447" lon="0.88814">
        <ele>436</ele>
        <time>2022-05-24 08:39:31</time>
      </trkpt>
      <trkpt lat="41.23447" lon="0.8881">
        <ele>436</ele>
        <time>2022-05-24 08:39:32</time>
      </trkpt>
      <trkpt lat="41.23446" lon="0.88807">
        <ele>436.2</ele>
        <time>2022-05-24 08:39:33</time>
      </trkpt>
      <trkpt lat="41.23445" lon="0.88804">
        <ele>436.2</ele>
        <time>2022-05-24 08:39:34</time>
      </trkpt>
      <trkpt lat="41.23444" lon="0.88801">
        <ele>436.2</ele>
        <time>2022-05-24 08:39:35</time>
      </trkpt>
      <trkpt lat="41.23442" lon="0.88798">
        <ele>436.4</ele>
        <time>2022-05-24 08:39:36</time>
      </trkpt>
      <trkpt lat="41.2344" lon="0.88795">
        <ele>436.4</ele>
        <time>2022-05-24 08:39:37</time>
      </trkpt>
      <trkpt lat="41.23438" lon="0.88792">
        <ele>436.4</ele>
        <time>2022-05-24 08:39:38</time>
      </trkpt>
      <trkpt lat="41.23436" lon="0.88789">
        <ele>436.4</ele>
        <time>2022-05-24 08:39:39</time>
      </trkpt>
      <trkpt lat="41.23434" lon="0.88786">
        <ele>436.6</ele>
        <time>2022-05-24 08:39:40</time>
      </trkpt>
      <trkpt lat="41.23432" lon="0.88784">
        <ele>436.6</ele>
        <time>2022-05-24 08:39:41</time>
      </trkpt>
      <trkpt lat="41.2343" lon="0.88781">
        <ele>436.6</ele>
        <time>2022-05-24 08:39:42</time>
      </trkpt>
      <trkpt lat="41.23428" lon="0.88779">
        <ele>436.6</ele>
        <time>2022-05-24 08:39:43</time>
      </trkpt>
      <trkpt lat="41.23426" lon="0.88776">
        <ele>436.8</ele>
        <time>2022-05-24 08:39:44</time>
      </trkpt>
      <trkpt lat="41.23425" lon="0.88773">
        <ele>436.8</ele>
        <time>2022-05-24 08:39:45</time>
      </trkpt>
      <trkpt lat="41.23422" lon="0.8877">
        <ele>436.8</ele>
        <time>2022-05-24 08:39:46</time>
      </trkpt>
      <trkpt lat="41.2342" lon="0.88767">
        <ele>437</ele>
        <time>2022-05-24 08:39:47</time>
      </trkpt>
      <trkpt lat="41.23418" lon="0.88765">
        <ele>437</ele>
        <time>2022-05-24 08:39:48</time>
      </trkpt>
      <trkpt lat="41.23416" lon="0.88763">
        <ele>437</ele>
        <time>2022-05-24 08:39:49</time>
      </trkpt>
      <trkpt lat="41.23414" lon="0.88761">
        <ele>437</ele>
        <time>2022-05-24 08:39:50</time>
      </trkpt>
      <trkpt lat="41.23412" lon="0.88759">
        <ele>437.2</ele>
        <time>2022-05-24 08:39:51</time>
      </trkpt>
      <trkpt lat="41.2341" lon="0.88757">
        <ele>437.2</ele>
        <time>2022-05-24 08:39:52</time>
      </trkpt>
      <trkpt lat="41.23408" lon="0.88755">
        <ele>437.2</ele>
        <time>2022-05-24 08:39:53</time>
      </trkpt>
      <trkpt lat="41.23405" lon="0.88752">
        <ele>437.4</ele>
        <time>2022-05-24 08:39:54</time>
      </trkpt>
      <trkpt lat="41.23403" lon="0.88751">
        <ele>437.4</ele>
        <time>2022-05-24 08:39:55</time>
      </trkpt>
      <trkpt lat="41.234" lon="0.88748">
        <ele>437.4</ele>
        <time>2022-05-24 08:39:56</time>
      </trkpt>
      <trkpt lat="41.23398" lon="0.88746">
        <ele>437.4</ele>
        <time>2022-05-24 08:39:57</time>
      </trkpt>
      <trkpt lat="41.23396" lon="0.88744">
        <ele>437.6</ele>
        <time>2022-05-24 08:39:58</time>
      </trkpt>
      <trkpt lat="41.23393" lon="0.88742">
        <ele>437.6</ele>
        <time>2022-05-24 08:39:59</time>
      </trkpt>
      <trkpt lat="41.23391" lon="0.8874">
        <ele>437.8</ele>
        <time>2022-05-24 08:40:00</time>
      </trkpt>
      <trkpt lat="41.23389" lon="0.88738">
        <ele>437.8</ele>
        <time>2022-05-24 08:40:01</time>
      </trkpt>
      <trkpt lat="41.23386" lon="0.88735">
        <ele>437.8</ele>
        <time>2022-05-24 08:40:02</time>
      </trkpt>
      <trkpt lat="41.23384" lon="0.88734">
        <ele>438</ele>
        <time>2022-05-24 08:40:03</time>
      </trkpt>
      <trkpt lat="41.23383" lon="0.88732">
        <ele>438</ele>
        <time>2022-05-24 08:40:04</time>
      </trkpt>
      <trkpt lat="41.23379" lon="0.88729">
        <ele>438</ele>
        <time>2022-05-24 08:40:05</time>
      </trkpt>
      <trkpt lat="41.23376" lon="0.88727">
        <ele>438.2</ele>
        <time>2022-05-24 08:40:06</time>
      </trkpt>
      <trkpt lat="41.23374" lon="0.88726">
        <ele>438.2</ele>
        <time>2022-05-24 08:40:07</time>
      </trkpt>
      <trkpt lat="41.23372" lon="0.88724">
        <ele>438.4</ele>
        <time>2022-05-24 08:40:08</time>
      </trkpt>
      <trkpt lat="41.23369" lon="0.88723">
        <ele>438.4</ele>
        <time>2022-05-24 08:40:09</time>
      </trkpt>
      <trkpt lat="41.23366" lon="0.8872">
        <ele>438.4</ele>
        <time>2022-05-24 08:40:10</time>
      </trkpt>
      <trkpt lat="41.23364" lon="0.88718">
        <ele>438.4</ele>
        <time>2022-05-24 08:40:11</time>
      </trkpt>
      <trkpt lat="41.23361" lon="0.88716">
        <ele>438.6</ele>
        <time>2022-05-24 08:40:12</time>
      </trkpt>
      <trkpt lat="41.23359" lon="0.88714">
        <ele>438.6</ele>
        <time>2022-05-24 08:40:13</time>
      </trkpt>
      <trkpt lat="41.23356" lon="0.88712">
        <ele>438.6</ele>
        <time>2022-05-24 08:40:14</time>
      </trkpt>
      <trkpt lat="41.23353" lon="0.88711">
        <ele>438.6</ele>
        <time>2022-05-24 08:40:15</time>
      </trkpt>
      <trkpt lat="41.2335" lon="0.88709">
        <ele>438.8</ele>
        <time>2022-05-24 08:40:16</time>
      </trkpt>
      <trkpt lat="41.23347" lon="0.88708">
        <ele>438.8</ele>
        <time>2022-05-24 08:40:17</time>
      </trkpt>
      <trkpt lat="41.23345" lon="0.88706">
        <ele>439</ele>
        <time>2022-05-24 08:40:18</time>
      </trkpt>
      <trkpt lat="41.23342" lon="0.88704">
        <ele>439</ele>
        <time>2022-05-24 08:40:19</time>
      </trkpt>
      <trkpt lat="41.2334" lon="0.88704">
        <ele>439</ele>
        <time>2022-05-24 08:40:20</time>
      </trkpt>
      <trkpt lat="41.23338" lon="0.88703">
        <ele>439</ele>
        <time>2022-05-24 08:40:21</time>
      </trkpt>
      <trkpt lat="41.23333" lon="0.88701">
        <ele>439</ele>
        <time>2022-05-24 08:40:22</time>
      </trkpt>
      <trkpt lat="41.2333" lon="0.88699">
        <ele>439.2</ele>
        <time>2022-05-24 08:40:23</time>
      </trkpt>
      <trkpt lat="41.23327" lon="0.88698">
        <ele>439.2</ele>
        <time>2022-05-24 08:40:24</time>
      </trkpt>
      <trkpt lat="41.23323" lon="0.88696">
        <ele>439.2</ele>
        <time>2022-05-24 08:40:25</time>
      </trkpt>
      <trkpt lat="41.2332" lon="0.88695">
        <ele>439.2</ele>
        <time>2022-05-24 08:40:26</time>
      </trkpt>
      <trkpt lat="41.23318" lon="0.88693">
        <ele>439.4</ele>
        <time>2022-05-24 08:40:27</time>
      </trkpt>
      <trkpt lat="41.23314" lon="0.8869">
        <ele>439.4</ele>
        <time>2022-05-24 08:40:28</time>
      </trkpt>
      <trkpt lat="41.23312" lon="0.88687">
        <ele>439.4</ele>
        <time>2022-05-24 08:40:29</time>
      </trkpt>
      <trkpt lat="41.2331" lon="0.88684">
        <ele>439.4</ele>
        <time>2022-05-24 08:40:30</time>
      </trkpt>
      <trkpt lat="41.23309" lon="0.88681">
        <ele>439.4</ele>
        <time>2022-05-24 08:40:31</time>
      </trkpt>
      <trkpt lat="41.23307" lon="0.88676">
        <ele>439.4</ele>
        <time>2022-05-24 08:40:32</time>
      </trkpt>
      <trkpt lat="41.23307" lon="0.88672">
        <ele>439.4</ele>
        <time>2022-05-24 08:40:33</time>
      </trkpt>
      <trkpt lat="41.23306" lon="0.88667">
        <ele>439.2</ele>
        <time>2022-05-24 08:40:34</time>
      </trkpt>
      <trkpt lat="41.23306" lon="0.88662">
        <ele>439.2</ele>
        <time>2022-05-24 08:40:35</time>
      </trkpt>
      <trkpt lat="41.23305" lon="0.88657">
        <ele>439.2</ele>
        <time>2022-05-24 08:40:36</time>
      </trkpt>
      <trkpt lat="41.23304" lon="0.88652">
        <ele>439.2</ele>
        <time>2022-05-24 08:40:37</time>
      </trkpt>
      <trkpt lat="41.23304" lon="0.88647">
        <ele>439.2</ele>
        <time>2022-05-24 08:40:38</time>
      </trkpt>
      <trkpt lat="41.23303" lon="0.88642">
        <ele>439.2</ele>
        <time>2022-05-24 08:40:39</time>
      </trkpt>
      <trkpt lat="41.23302" lon="0.88637">
        <ele>439.4</ele>
        <time>2022-05-24 08:40:40</time>
      </trkpt>
      <trkpt lat="41.233" lon="0.88632">
        <ele>439.4</ele>
        <time>2022-05-24 08:40:41</time>
      </trkpt>
      <trkpt lat="41.23299" lon="0.88627">
        <ele>439.2</ele>
        <time>2022-05-24 08:40:42</time>
      </trkpt>
      <trkpt lat="41.23297" lon="0.88623">
        <ele>439.2</ele>
        <time>2022-05-24 08:40:43</time>
      </trkpt>
      <trkpt lat="41.23294" lon="0.88618">
        <ele>439.2</ele>
        <time>2022-05-24 08:40:44</time>
      </trkpt>
      <trkpt lat="41.23291" lon="0.88614">
        <ele>439.2</ele>
        <time>2022-05-24 08:40:45</time>
      </trkpt>
      <trkpt lat="41.23288" lon="0.8861">
        <ele>439.2</ele>
        <time>2022-05-24 08:40:46</time>
      </trkpt>
      <trkpt lat="41.23285" lon="0.88606">
        <ele>439</ele>
        <time>2022-05-24 08:40:47</time>
      </trkpt>
      <trkpt lat="41.23282" lon="0.88602">
        <ele>439</ele>
        <time>2022-05-24 08:40:48</time>
      </trkpt>
      <trkpt lat="41.23279" lon="0.88598">
        <ele>438.8</ele>
        <time>2022-05-24 08:40:49</time>
      </trkpt>
      <trkpt lat="41.23275" lon="0.88594">
        <ele>438.8</ele>
        <time>2022-05-24 08:40:50</time>
      </trkpt>
      <trkpt lat="41.23272" lon="0.88591">
        <ele>438.8</ele>
        <time>2022-05-24 08:40:51</time>
      </trkpt>
      <trkpt lat="41.23269" lon="0.88587">
        <ele>438.6</ele>
        <time>2022-05-24 08:40:52</time>
      </trkpt>
      <trkpt lat="41.23265" lon="0.88584">
        <ele>438.6</ele>
        <time>2022-05-24 08:40:53</time>
      </trkpt>
      <trkpt lat="41.23262" lon="0.8858">
        <ele>438.6</ele>
        <time>2022-05-24 08:40:54</time>
      </trkpt>
      <trkpt lat="41.23258" lon="0.88576">
        <ele>438.6</ele>
        <time>2022-05-24 08:40:55</time>
      </trkpt>
      <trkpt lat="41.23255" lon="0.88573">
        <ele>438.6</ele>
        <time>2022-05-24 08:40:56</time>
      </trkpt>
      <trkpt lat="41.23251" lon="0.88569">
        <ele>438.6</ele>
        <time>2022-05-24 08:40:57</time>
      </trkpt>
      <trkpt lat="41.23248" lon="0.88566">
        <ele>438.6</ele>
        <time>2022-05-24 08:40:58</time>
      </trkpt>
      <trkpt lat="41.23244" lon="0.88562">
        <ele>438.6</ele>
        <time>2022-05-24 08:40:59</time>
      </trkpt>
      <trkpt lat="41.23241" lon="0.88559">
        <ele>438.6</ele>
        <time>2022-05-24 08:41:00</time>
      </trkpt>
      <trkpt lat="41.23238" lon="0.88555">
        <ele>438.6</ele>
        <time>2022-05-24 08:41:01</time>
      </trkpt>
      <trkpt lat="41.23235" lon="0.88552">
        <ele>438.4</ele>
        <time>2022-05-24 08:41:02</time>
      </trkpt>
      <trkpt lat="41.23231" lon="0.88548">
        <ele>438.4</ele>
        <time>2022-05-24 08:41:03</time>
      </trkpt>
      <trkpt lat="41.23228" lon="0.88545">
        <ele>438.4</ele>
        <time>2022-05-24 08:41:04</time>
      </trkpt>
      <trkpt lat="41.23226" lon="0.88542">
        <ele>438.6</ele>
        <time>2022-05-24 08:41:05</time>
      </trkpt>
      <trkpt lat="41.23222" lon="0.88539">
        <ele>438.6</ele>
        <time>2022-05-24 08:41:06</time>
      </trkpt>
      <trkpt lat="41.2322" lon="0.88537">
        <ele>438.8</ele>
        <time>2022-05-24 08:41:07</time>
      </trkpt>
      <trkpt lat="41.23217" lon="0.88534">
        <ele>438.8</ele>
        <time>2022-05-24 08:41:08</time>
      </trkpt>
      <trkpt lat="41.23214" lon="0.88532">
        <ele>438.8</ele>
        <time>2022-05-24 08:41:09</time>
      </trkpt>
      <trkpt lat="41.23211" lon="0.8853">
        <ele>439</ele>
        <time>2022-05-24 08:41:10</time>
      </trkpt>
      <trkpt lat="41.23208" lon="0.88528">
        <ele>439</ele>
        <time>2022-05-24 08:41:11</time>
      </trkpt>
      <trkpt lat="41.23206" lon="0.88526">
        <ele>439.2</ele>
        <time>2022-05-24 08:41:12</time>
      </trkpt>
      <trkpt lat="41.23203" lon="0.88525">
        <ele>439.4</ele>
        <time>2022-05-24 08:41:13</time>
      </trkpt>
      <trkpt lat="41.232" lon="0.88524">
        <ele>439.4</ele>
        <time>2022-05-24 08:41:14</time>
      </trkpt>
      <trkpt lat="41.23197" lon="0.88522">
        <ele>439.6</ele>
        <time>2022-05-24 08:41:15</time>
      </trkpt>
      <trkpt lat="41.23194" lon="0.88521">
        <ele>439.6</ele>
        <time>2022-05-24 08:41:16</time>
      </trkpt>
      <trkpt lat="41.23191" lon="0.88519">
        <ele>439.8</ele>
        <time>2022-05-24 08:41:17</time>
      </trkpt>
      <trkpt lat="41.23188" lon="0.88517">
        <ele>440</ele>
        <time>2022-05-24 08:41:18</time>
      </trkpt>
      <trkpt lat="41.23186" lon="0.88515">
        <ele>440</ele>
        <time>2022-05-24 08:41:19</time>
      </trkpt>
      <trkpt lat="41.23183" lon="0.88514">
        <ele>440.2</ele>
        <time>2022-05-24 08:41:20</time>
      </trkpt>
      <trkpt lat="41.23181" lon="0.88512">
        <ele>440.4</ele>
        <time>2022-05-24 08:41:21</time>
      </trkpt>
      <trkpt lat="41.23179" lon="0.88509">
        <ele>440.4</ele>
        <time>2022-05-24 08:41:22</time>
      </trkpt>
      <trkpt lat="41.23177" lon="0.88507">
        <ele>440.6</ele>
        <time>2022-05-24 08:41:23</time>
      </trkpt>
      <trkpt lat="41.23176" lon="0.88503">
        <ele>441</ele>
        <time>2022-05-24 08:41:24</time>
      </trkpt>
      <trkpt lat="41.23175" lon="0.885">
        <ele>441</ele>
        <time>2022-05-24 08:41:25</time>
      </trkpt>
      <trkpt lat="41.23174" lon="0.88496">
        <ele>441.2</ele>
        <time>2022-05-24 08:41:26</time>
      </trkpt>
      <trkpt lat="41.23174" lon="0.88493">
        <ele>441.2</ele>
        <time>2022-05-24 08:41:27</time>
      </trkpt>
      <trkpt lat="41.23173" lon="0.88489">
        <ele>441.4</ele>
        <time>2022-05-24 08:41:28</time>
      </trkpt>
      <trkpt lat="41.23173" lon="0.88485">
        <ele>441.4</ele>
        <time>2022-05-24 08:41:29</time>
      </trkpt>
      <trkpt lat="41.23174" lon="0.88481">
        <ele>441.6</ele>
        <time>2022-05-24 08:41:30</time>
      </trkpt>
      <trkpt lat="41.23174" lon="0.88477">
        <ele>441.6</ele>
        <time>2022-05-24 08:41:31</time>
      </trkpt>
      <trkpt lat="41.23175" lon="0.88473">
        <ele>442</ele>
        <time>2022-05-24 08:41:32</time>
      </trkpt>
      <trkpt lat="41.23176" lon="0.8847">
        <ele>442</ele>
        <time>2022-05-24 08:41:33</time>
      </trkpt>
      <trkpt lat="41.23176" lon="0.88466">
        <ele>442.2</ele>
        <time>2022-05-24 08:41:34</time>
      </trkpt>
      <trkpt lat="41.23177" lon="0.88462">
        <ele>442.2</ele>
        <time>2022-05-24 08:41:35</time>
      </trkpt>
      <trkpt lat="41.23178" lon="0.88459">
        <ele>442.4</ele>
        <time>2022-05-24 08:41:36</time>
      </trkpt>
      <trkpt lat="41.23178" lon="0.88455">
        <ele>442.4</ele>
        <time>2022-05-24 08:41:37</time>
      </trkpt>
      <trkpt lat="41.23179" lon="0.88451">
        <ele>442.6</ele>
        <time>2022-05-24 08:41:38</time>
      </trkpt>
      <trkpt lat="41.23178" lon="0.88447">
        <ele>442.6</ele>
        <time>2022-05-24 08:41:39</time>
      </trkpt>
      <trkpt lat="41.23177" lon="0.88443">
        <ele>442.6</ele>
        <time>2022-05-24 08:41:40</time>
      </trkpt>
      <trkpt lat="41.23176" lon="0.88439">
        <ele>442.6</ele>
        <time>2022-05-24 08:41:41</time>
      </trkpt>
      <trkpt lat="41.23175" lon="0.88435">
        <ele>442.6</ele>
        <time>2022-05-24 08:41:42</time>
      </trkpt>
      <trkpt lat="41.23173" lon="0.88431">
        <ele>442.6</ele>
        <time>2022-05-24 08:41:43</time>
      </trkpt>
      <trkpt lat="41.23171" lon="0.88428">
        <ele>442.6</ele>
        <time>2022-05-24 08:41:44</time>
      </trkpt>
      <trkpt lat="41.23169" lon="0.88425">
        <ele>442.6</ele>
        <time>2022-05-24 08:41:45</time>
      </trkpt>
      <trkpt lat="41.23167" lon="0.88421">
        <ele>442.6</ele>
        <time>2022-05-24 08:41:46</time>
      </trkpt>
      <trkpt lat="41.23166" lon="0.88418">
        <ele>442.8</ele>
        <time>2022-05-24 08:41:47</time>
      </trkpt>
      <trkpt lat="41.23163" lon="0.88416">
        <ele>442.8</ele>
        <time>2022-05-24 08:41:48</time>
      </trkpt>
      <trkpt lat="41.23161" lon="0.88414">
        <ele>442.8</ele>
        <time>2022-05-24 08:41:49</time>
      </trkpt>
      <trkpt lat="41.23158" lon="0.88411">
        <ele>442.8</ele>
        <time>2022-05-24 08:41:50</time>
      </trkpt>
      <trkpt lat="41.23155" lon="0.88408">
        <ele>442.8</ele>
        <time>2022-05-24 08:41:51</time>
      </trkpt>
      <trkpt lat="41.23152" lon="0.88406">
        <ele>442.8</ele>
        <time>2022-05-24 08:41:52</time>
      </trkpt>
      <trkpt lat="41.23149" lon="0.88404">
        <ele>442.8</ele>
        <time>2022-05-24 08:41:53</time>
      </trkpt>
      <trkpt lat="41.23147" lon="0.88402">
        <ele>442.8</ele>
        <time>2022-05-24 08:41:54</time>
      </trkpt>
      <trkpt lat="41.23144" lon="0.88399">
        <ele>442.8</ele>
        <time>2022-05-24 08:41:55</time>
      </trkpt>
      <trkpt lat="41.23142" lon="0.88397">
        <ele>442.8</ele>
        <time>2022-05-24 08:41:56</time>
      </trkpt>
      <trkpt lat="41.23139" lon="0.88394">
        <ele>442.8</ele>
        <time>2022-05-24 08:41:57</time>
      </trkpt>
      <trkpt lat="41.23136" lon="0.88392">
        <ele>443</ele>
        <time>2022-05-24 08:41:58</time>
      </trkpt>
      <trkpt lat="41.23133" lon="0.8839">
        <ele>443</ele>
        <time>2022-05-24 08:41:59</time>
      </trkpt>
      <trkpt lat="41.2313" lon="0.88388">
        <ele>443</ele>
        <time>2022-05-24 08:42:00</time>
      </trkpt>
      <trkpt lat="41.23128" lon="0.88386">
        <ele>443.2</ele>
        <time>2022-05-24 08:42:01</time>
      </trkpt>
      <trkpt lat="41.23125" lon="0.88384">
        <ele>443.2</ele>
        <time>2022-05-24 08:42:02</time>
      </trkpt>
      <trkpt lat="41.23122" lon="0.88381">
        <ele>443.2</ele>
        <time>2022-05-24 08:42:03</time>
      </trkpt>
      <trkpt lat="41.23119" lon="0.88379">
        <ele>443.2</ele>
        <time>2022-05-24 08:42:04</time>
      </trkpt>
      <trkpt lat="41.23116" lon="0.88375">
        <ele>443.2</ele>
        <time>2022-05-24 08:42:05</time>
      </trkpt>
      <trkpt lat="41.23113" lon="0.88372">
        <ele>443.2</ele>
        <time>2022-05-24 08:42:06</time>
      </trkpt>
      <trkpt lat="41.2311" lon="0.88368">
        <ele>443.2</ele>
        <time>2022-05-24 08:42:07</time>
      </trkpt>
      <trkpt lat="41.23108" lon="0.88364">
        <ele>443.2</ele>
        <time>2022-05-24 08:42:08</time>
      </trkpt>
      <trkpt lat="41.23106" lon="0.8836">
        <ele>443.2</ele>
        <time>2022-05-24 08:42:09</time>
      </trkpt>
      <trkpt lat="41.23105" lon="0.88355">
        <ele>443.2</ele>
        <time>2022-05-24 08:42:10</time>
      </trkpt>
      <trkpt lat="41.23104" lon="0.8835">
        <ele>443.2</ele>
        <time>2022-05-24 08:42:11</time>
      </trkpt>
      <trkpt lat="41.23104" lon="0.88345">
        <ele>443.2</ele>
        <time>2022-05-24 08:42:12</time>
      </trkpt>
      <trkpt lat="41.23104" lon="0.8834">
        <ele>443.2</ele>
        <time>2022-05-24 08:42:13</time>
      </trkpt>
      <trkpt lat="41.23105" lon="0.88336">
        <ele>443.4</ele>
        <time>2022-05-24 08:42:14</time>
      </trkpt>
      <trkpt lat="41.23105" lon="0.88331">
        <ele>443.4</ele>
        <time>2022-05-24 08:42:15</time>
      </trkpt>
      <trkpt lat="41.23105" lon="0.88326">
        <ele>443.4</ele>
        <time>2022-05-24 08:42:16</time>
      </trkpt>
      <trkpt lat="41.23105" lon="0.88321">
        <ele>443.4</ele>
        <time>2022-05-24 08:42:17</time>
      </trkpt>
      <trkpt lat="41.23104" lon="0.88317">
        <ele>443.4</ele>
        <time>2022-05-24 08:42:18</time>
      </trkpt>
      <trkpt lat="41.23104" lon="0.88313">
        <ele>443.4</ele>
        <time>2022-05-24 08:42:19</time>
      </trkpt>
      <trkpt lat="41.23103" lon="0.88307">
        <ele>443.4</ele>
        <time>2022-05-24 08:42:20</time>
      </trkpt>
      <trkpt lat="41.23101" lon="0.88303">
        <ele>443.4</ele>
        <time>2022-05-24 08:42:21</time>
      </trkpt>
      <trkpt lat="41.231" lon="0.88299">
        <ele>443.4</ele>
        <time>2022-05-24 08:42:22</time>
      </trkpt>
      <trkpt lat="41.23098" lon="0.88294">
        <ele>443.4</ele>
        <time>2022-05-24 08:42:23</time>
      </trkpt>
      <trkpt lat="41.23096" lon="0.88291">
        <ele>443.4</ele>
        <time>2022-05-24 08:42:24</time>
      </trkpt>
      <trkpt lat="41.23093" lon="0.88288">
        <ele>443.4</ele>
        <time>2022-05-24 08:42:25</time>
      </trkpt>
      <trkpt lat="41.2309" lon="0.88284">
        <ele>443.4</ele>
        <time>2022-05-24 08:42:26</time>
      </trkpt>
      <trkpt lat="41.23088" lon="0.88281">
        <ele>443.6</ele>
        <time>2022-05-24 08:42:27</time>
      </trkpt>
      <trkpt lat="41.23085" lon="0.88278">
        <ele>443.6</ele>
        <time>2022-05-24 08:42:28</time>
      </trkpt>
      <trkpt lat="41.23082" lon="0.88274">
        <ele>443.6</ele>
        <time>2022-05-24 08:42:29</time>
      </trkpt>
      <trkpt lat="41.2308" lon="0.88271">
        <ele>443.6</ele>
        <time>2022-05-24 08:42:30</time>
      </trkpt>
      <trkpt lat="41.23077" lon="0.88268">
        <ele>443.8</ele>
        <time>2022-05-24 08:42:31</time>
      </trkpt>
      <trkpt lat="41.23075" lon="0.88263">
        <ele>444</ele>
        <time>2022-05-24 08:42:32</time>
      </trkpt>
      <trkpt lat="41.23074" lon="0.88259">
        <ele>444</ele>
        <time>2022-05-24 08:42:33</time>
      </trkpt>
      <trkpt lat="41.23074" lon="0.88254">
        <ele>444.2</ele>
        <time>2022-05-24 08:42:34</time>
      </trkpt>
      <trkpt lat="41.23074" lon="0.88249">
        <ele>444.2</ele>
        <time>2022-05-24 08:42:35</time>
      </trkpt>
      <trkpt lat="41.23075" lon="0.88243">
        <ele>444.2</ele>
        <time>2022-05-24 08:42:36</time>
      </trkpt>
      <trkpt lat="41.23078" lon="0.88239">
        <ele>444.4</ele>
        <time>2022-05-24 08:42:37</time>
      </trkpt>
      <trkpt lat="41.2308" lon="0.88235">
        <ele>444.4</ele>
        <time>2022-05-24 08:42:38</time>
      </trkpt>
      <trkpt lat="41.23083" lon="0.88232">
        <ele>444.4</ele>
        <time>2022-05-24 08:42:39</time>
      </trkpt>
      <trkpt lat="41.23086" lon="0.88228">
        <ele>444.6</ele>
        <time>2022-05-24 08:42:40</time>
      </trkpt>
      <trkpt lat="41.23089" lon="0.88225">
        <ele>444.6</ele>
        <time>2022-05-24 08:42:41</time>
      </trkpt>
      <trkpt lat="41.23091" lon="0.88222">
        <ele>444.6</ele>
        <time>2022-05-24 08:42:42</time>
      </trkpt>
      <trkpt lat="41.23095" lon="0.8822">
        <ele>444.6</ele>
        <time>2022-05-24 08:42:43</time>
      </trkpt>
      <trkpt lat="41.23098" lon="0.88217">
        <ele>444.4</ele>
        <time>2022-05-24 08:42:44</time>
      </trkpt>
      <trkpt lat="41.23102" lon="0.88214">
        <ele>444.4</ele>
        <time>2022-05-24 08:42:45</time>
      </trkpt>
      <trkpt lat="41.23106" lon="0.88212">
        <ele>444.4</ele>
        <time>2022-05-24 08:42:46</time>
      </trkpt>
      <trkpt lat="41.23109" lon="0.88209">
        <ele>444.6</ele>
        <time>2022-05-24 08:42:47</time>
      </trkpt>
      <trkpt lat="41.23112" lon="0.88206">
        <ele>444.6</ele>
        <time>2022-05-24 08:42:48</time>
      </trkpt>
      <trkpt lat="41.23115" lon="0.88203">
        <ele>444.8</ele>
        <time>2022-05-24 08:42:49</time>
      </trkpt>
      <trkpt lat="41.23118" lon="0.882">
        <ele>444.8</ele>
        <time>2022-05-24 08:42:50</time>
      </trkpt>
      <trkpt lat="41.2312" lon="0.88198">
        <ele>444.8</ele>
        <time>2022-05-24 08:42:51</time>
      </trkpt>
      <trkpt lat="41.23123" lon="0.88195">
        <ele>444.8</ele>
        <time>2022-05-24 08:42:52</time>
      </trkpt>
      <trkpt lat="41.23126" lon="0.88192">
        <ele>445</ele>
        <time>2022-05-24 08:42:53</time>
      </trkpt>
      <trkpt lat="41.23128" lon="0.88188">
        <ele>444.8</ele>
        <time>2022-05-24 08:42:54</time>
      </trkpt>
      <trkpt lat="41.23129" lon="0.88183">
        <ele>444.8</ele>
        <time>2022-05-24 08:42:55</time>
      </trkpt>
      <trkpt lat="41.2313" lon="0.88177">
        <ele>444.8</ele>
        <time>2022-05-24 08:42:56</time>
      </trkpt>
      <trkpt lat="41.23129" lon="0.88171">
        <ele>445</ele>
        <time>2022-05-24 08:42:57</time>
      </trkpt>
      <trkpt lat="41.23129" lon="0.88166">
        <ele>444.8</ele>
        <time>2022-05-24 08:42:58</time>
      </trkpt>
      <trkpt lat="41.23128" lon="0.88161">
        <ele>444.8</ele>
        <time>2022-05-24 08:42:59</time>
      </trkpt>
      <trkpt lat="41.23125" lon="0.88155">
        <ele>444.8</ele>
        <time>2022-05-24 08:43:00</time>
      </trkpt>
      <trkpt lat="41.23122" lon="0.8815">
        <ele>444.6</ele>
        <time>2022-05-24 08:43:01</time>
      </trkpt>
      <trkpt lat="41.23119" lon="0.88146">
        <ele>444.4</ele>
        <time>2022-05-24 08:43:02</time>
      </trkpt>
      <trkpt lat="41.23115" lon="0.88142">
        <ele>444.4</ele>
        <time>2022-05-24 08:43:03</time>
      </trkpt>
      <trkpt lat="41.23111" lon="0.88138">
        <ele>444.2</ele>
        <time>2022-05-24 08:43:04</time>
      </trkpt>
      <trkpt lat="41.23106" lon="0.88134">
        <ele>444</ele>
        <time>2022-05-24 08:43:05</time>
      </trkpt>
      <trkpt lat="41.23101" lon="0.88131">
        <ele>443.8</ele>
        <time>2022-05-24 08:43:06</time>
      </trkpt>
      <trkpt lat="41.23096" lon="0.88127">
        <ele>443.8</ele>
        <time>2022-05-24 08:43:07</time>
      </trkpt>
      <trkpt lat="41.23091" lon="0.88122">
        <ele>443.6</ele>
        <time>2022-05-24 08:43:08</time>
      </trkpt>
      <trkpt lat="41.23088" lon="0.88117">
        <ele>443.4</ele>
        <time>2022-05-24 08:43:09</time>
      </trkpt>
      <trkpt lat="41.23084" lon="0.88109">
        <ele>443.4</ele>
        <time>2022-05-24 08:43:10</time>
      </trkpt>
      <trkpt lat="41.23082" lon="0.88102">
        <ele>443.2</ele>
        <time>2022-05-24 08:43:11</time>
      </trkpt>
      <trkpt lat="41.23082" lon="0.88094">
        <ele>443</ele>
        <time>2022-05-24 08:43:12</time>
      </trkpt>
      <trkpt lat="41.23082" lon="0.88087">
        <ele>443</ele>
        <time>2022-05-24 08:43:13</time>
      </trkpt>
      <trkpt lat="41.23082" lon="0.88079">
        <ele>442.8</ele>
        <time>2022-05-24 08:43:14</time>
      </trkpt>
      <trkpt lat="41.23082" lon="0.88072">
        <ele>442.8</ele>
        <time>2022-05-24 08:43:15</time>
      </trkpt>
      <trkpt lat="41.23082" lon="0.88065">
        <ele>442.8</ele>
        <time>2022-05-24 08:43:16</time>
      </trkpt>
      <trkpt lat="41.23081" lon="0.88059">
        <ele>442.6</ele>
        <time>2022-05-24 08:43:17</time>
      </trkpt>
      <trkpt lat="41.23079" lon="0.88052">
        <ele>442.6</ele>
        <time>2022-05-24 08:43:18</time>
      </trkpt>
      <trkpt lat="41.23076" lon="0.88046">
        <ele>442.4</ele>
        <time>2022-05-24 08:43:19</time>
      </trkpt>
      <trkpt lat="41.23072" lon="0.8804">
        <ele>442.2</ele>
        <time>2022-05-24 08:43:20</time>
      </trkpt>
      <trkpt lat="41.23068" lon="0.88036">
        <ele>442.2</ele>
        <time>2022-05-24 08:43:21</time>
      </trkpt>
      <trkpt lat="41.23063" lon="0.88033">
        <ele>442</ele>
        <time>2022-05-24 08:43:22</time>
      </trkpt>
      <trkpt lat="41.23057" lon="0.88031">
        <ele>442</ele>
        <time>2022-05-24 08:43:23</time>
      </trkpt>
      <trkpt lat="41.23051" lon="0.8803">
        <ele>442</ele>
        <time>2022-05-24 08:43:24</time>
      </trkpt>
      <trkpt lat="41.23046" lon="0.88029">
        <ele>442</ele>
        <time>2022-05-24 08:43:25</time>
      </trkpt>
      <trkpt lat="41.2304" lon="0.88028">
        <ele>442</ele>
        <time>2022-05-24 08:43:26</time>
      </trkpt>
      <trkpt lat="41.23034" lon="0.88026">
        <ele>442</ele>
        <time>2022-05-24 08:43:27</time>
      </trkpt>
      <trkpt lat="41.23029" lon="0.88023">
        <ele>442</ele>
        <time>2022-05-24 08:43:28</time>
      </trkpt>
      <trkpt lat="41.23024" lon="0.88021">
        <ele>442</ele>
        <time>2022-05-24 08:43:29</time>
      </trkpt>
      <trkpt lat="41.23019" lon="0.88016">
        <ele>442</ele>
        <time>2022-05-24 08:43:30</time>
      </trkpt>
      <trkpt lat="41.23015" lon="0.88012">
        <ele>442</ele>
        <time>2022-05-24 08:43:31</time>
      </trkpt>
      <trkpt lat="41.23011" lon="0.88006">
        <ele>442</ele>
        <time>2022-05-24 08:43:32</time>
      </trkpt>
      <trkpt lat="41.23008" lon="0.88001">
        <ele>442.2</ele>
        <time>2022-05-24 08:43:33</time>
      </trkpt>
      <trkpt lat="41.23005" lon="0.87994">
        <ele>442.2</ele>
        <time>2022-05-24 08:43:34</time>
      </trkpt>
      <trkpt lat="41.23002" lon="0.87989">
        <ele>442.4</ele>
        <time>2022-05-24 08:43:35</time>
      </trkpt>
      <trkpt lat="41.22999" lon="0.87983">
        <ele>442.8</ele>
        <time>2022-05-24 08:43:36</time>
      </trkpt>
      <trkpt lat="41.22997" lon="0.87978">
        <ele>443</ele>
        <time>2022-05-24 08:43:37</time>
      </trkpt>
      <trkpt lat="41.22994" lon="0.87972">
        <ele>443.2</ele>
        <time>2022-05-24 08:43:38</time>
      </trkpt>
      <trkpt lat="41.22992" lon="0.87967">
        <ele>443.4</ele>
        <time>2022-05-24 08:43:39</time>
      </trkpt>
      <trkpt lat="41.22989" lon="0.87963">
        <ele>443.6</ele>
        <time>2022-05-24 08:43:40</time>
      </trkpt>
      <trkpt lat="41.22987" lon="0.87957">
        <ele>443.8</ele>
        <time>2022-05-24 08:43:41</time>
      </trkpt>
      <trkpt lat="41.22985" lon="0.87953">
        <ele>444</ele>
        <time>2022-05-24 08:43:42</time>
      </trkpt>
      <trkpt lat="41.22983" lon="0.87949">
        <ele>444</ele>
        <time>2022-05-24 08:43:43</time>
      </trkpt>
      <trkpt lat="41.22981" lon="0.87944">
        <ele>444.2</ele>
        <time>2022-05-24 08:43:44</time>
      </trkpt>
      <trkpt lat="41.22979" lon="0.87941">
        <ele>444.4</ele>
        <time>2022-05-24 08:43:45</time>
      </trkpt>
      <trkpt lat="41.22976" lon="0.87937">
        <ele>444.6</ele>
        <time>2022-05-24 08:43:46</time>
      </trkpt>
      <trkpt lat="41.22974" lon="0.87933">
        <ele>444.6</ele>
        <time>2022-05-24 08:43:47</time>
      </trkpt>
      <trkpt lat="41.22971" lon="0.8793">
        <ele>444.8</ele>
        <time>2022-05-24 08:43:48</time>
      </trkpt>
      <trkpt lat="41.22968" lon="0.87926">
        <ele>445</ele>
        <time>2022-05-24 08:43:49</time>
      </trkpt>
      <trkpt lat="41.22966" lon="0.87923">
        <ele>445.2</ele>
        <time>2022-05-24 08:43:50</time>
      </trkpt>
      <trkpt lat="41.22963" lon="0.8792">
        <ele>445.2</ele>
        <time>2022-05-24 08:43:51</time>
      </trkpt>
      <trkpt lat="41.2296" lon="0.87917">
        <ele>445.4</ele>
        <time>2022-05-24 08:43:52</time>
      </trkpt>
      <trkpt lat="41.22957" lon="0.87914">
        <ele>445.6</ele>
        <time>2022-05-24 08:43:53</time>
      </trkpt>
      <trkpt lat="41.22954" lon="0.87912">
        <ele>445.6</ele>
        <time>2022-05-24 08:43:54</time>
      </trkpt>
      <trkpt lat="41.2295" lon="0.87909">
        <ele>445.8</ele>
        <time>2022-05-24 08:43:55</time>
      </trkpt>
      <trkpt lat="41.22947" lon="0.87907">
        <ele>445.8</ele>
        <time>2022-05-24 08:43:56</time>
      </trkpt>
      <trkpt lat="41.22944" lon="0.87905">
        <ele>446</ele>
        <time>2022-05-24 08:43:57</time>
      </trkpt>
      <trkpt lat="41.22941" lon="0.87902">
        <ele>446</ele>
        <time>2022-05-24 08:43:58</time>
      </trkpt>
      <trkpt lat="41.22938" lon="0.879">
        <ele>446.2</ele>
        <time>2022-05-24 08:43:59</time>
      </trkpt>
      <trkpt lat="41.22934" lon="0.87898">
        <ele>446.2</ele>
        <time>2022-05-24 08:44:00</time>
      </trkpt>
      <trkpt lat="41.22931" lon="0.87896">
        <ele>446.2</ele>
        <time>2022-05-24 08:44:01</time>
      </trkpt>
      <trkpt lat="41.22928" lon="0.87893">
        <ele>446.4</ele>
        <time>2022-05-24 08:44:02</time>
      </trkpt>
      <trkpt lat="41.22925" lon="0.87891">
        <ele>446.4</ele>
        <time>2022-05-24 08:44:03</time>
      </trkpt>
      <trkpt lat="41.22922" lon="0.87889">
        <ele>446.4</ele>
        <time>2022-05-24 08:44:04</time>
      </trkpt>
      <trkpt lat="41.22919" lon="0.87887">
        <ele>446.4</ele>
        <time>2022-05-24 08:44:05</time>
      </trkpt>
      <trkpt lat="41.22915" lon="0.87885">
        <ele>446.6</ele>
        <time>2022-05-24 08:44:06</time>
      </trkpt>
      <trkpt lat="41.22912" lon="0.87883">
        <ele>446.6</ele>
        <time>2022-05-24 08:44:07</time>
      </trkpt>
      <trkpt lat="41.22909" lon="0.87881">
        <ele>446.6</ele>
        <time>2022-05-24 08:44:08</time>
      </trkpt>
      <trkpt lat="41.22905" lon="0.87879">
        <ele>446.6</ele>
        <time>2022-05-24 08:44:09</time>
      </trkpt>
      <trkpt lat="41.22902" lon="0.87877">
        <ele>446.8</ele>
        <time>2022-05-24 08:44:10</time>
      </trkpt>
      <trkpt lat="41.22898" lon="0.87876">
        <ele>446.8</ele>
        <time>2022-05-24 08:44:11</time>
      </trkpt>
      <trkpt lat="41.22895" lon="0.87874">
        <ele>446.8</ele>
        <time>2022-05-24 08:44:12</time>
      </trkpt>
      <trkpt lat="41.22891" lon="0.87874">
        <ele>446.8</ele>
        <time>2022-05-24 08:44:13</time>
      </trkpt>
      <trkpt lat="41.22886" lon="0.87873">
        <ele>447</ele>
        <time>2022-05-24 08:44:14</time>
      </trkpt>
      <trkpt lat="41.22882" lon="0.87872">
        <ele>446.8</ele>
        <time>2022-05-24 08:44:15</time>
      </trkpt>
      <trkpt lat="41.22878" lon="0.87871">
        <ele>446.8</ele>
        <time>2022-05-24 08:44:16</time>
      </trkpt>
      <trkpt lat="41.22873" lon="0.87869">
        <ele>446.8</ele>
        <time>2022-05-24 08:44:17</time>
      </trkpt>
      <trkpt lat="41.22869" lon="0.87867">
        <ele>446.8</ele>
        <time>2022-05-24 08:44:18</time>
      </trkpt>
      <trkpt lat="41.22864" lon="0.87865">
        <ele>446.6</ele>
        <time>2022-05-24 08:44:19</time>
      </trkpt>
      <trkpt lat="41.22859" lon="0.87863">
        <ele>446.4</ele>
        <time>2022-05-24 08:44:20</time>
      </trkpt>
      <trkpt lat="41.22853" lon="0.8786">
        <ele>446.2</ele>
        <time>2022-05-24 08:44:21</time>
      </trkpt>
      <trkpt lat="41.22849" lon="0.87858">
        <ele>445.8</ele>
        <time>2022-05-24 08:44:22</time>
      </trkpt>
      <trkpt lat="41.22843" lon="0.87855">
        <ele>445.6</ele>
        <time>2022-05-24 08:44:23</time>
      </trkpt>
      <trkpt lat="41.22837" lon="0.87852">
        <ele>445.2</ele>
        <time>2022-05-24 08:44:24</time>
      </trkpt>
      <trkpt lat="41.22832" lon="0.87848">
        <ele>445</ele>
        <time>2022-05-24 08:44:25</time>
      </trkpt>
      <trkpt lat="41.22827" lon="0.87845">
        <ele>444.8</ele>
        <time>2022-05-24 08:44:26</time>
      </trkpt>
      <trkpt lat="41.22822" lon="0.87841">
        <ele>444.6</ele>
        <time>2022-05-24 08:44:27</time>
      </trkpt>
      <trkpt lat="41.22817" lon="0.87837">
        <ele>444.4</ele>
        <time>2022-05-24 08:44:28</time>
      </trkpt>
      <trkpt lat="41.22812" lon="0.87833">
        <ele>444.2</ele>
        <time>2022-05-24 08:44:29</time>
      </trkpt>
      <trkpt lat="41.22807" lon="0.87829">
        <ele>444</ele>
        <time>2022-05-24 08:44:30</time>
      </trkpt>
      <trkpt lat="41.22802" lon="0.87824">
        <ele>443.8</ele>
        <time>2022-05-24 08:44:31</time>
      </trkpt>
      <trkpt lat="41.22797" lon="0.87819">
        <ele>443.6</ele>
        <time>2022-05-24 08:44:32</time>
      </trkpt>
      <trkpt lat="41.22792" lon="0.87814">
        <ele>443.4</ele>
        <time>2022-05-24 08:44:33</time>
      </trkpt>
      <trkpt lat="41.22788" lon="0.87809">
        <ele>443.4</ele>
        <time>2022-05-24 08:44:34</time>
      </trkpt>
      <trkpt lat="41.22783" lon="0.87804">
        <ele>443</ele>
        <time>2022-05-24 08:44:35</time>
      </trkpt>
      <trkpt lat="41.22778" lon="0.87799">
        <ele>442.6</ele>
        <time>2022-05-24 08:44:36</time>
      </trkpt>
      <trkpt lat="41.22772" lon="0.87793">
        <ele>442.4</ele>
        <time>2022-05-24 08:44:37</time>
      </trkpt>
      <trkpt lat="41.22768" lon="0.87788">
        <ele>442</ele>
        <time>2022-05-24 08:44:38</time>
      </trkpt>
      <trkpt lat="41.22762" lon="0.87782">
        <ele>442</ele>
        <time>2022-05-24 08:44:39</time>
      </trkpt>
      <trkpt lat="41.22757" lon="0.87777">
        <ele>441.8</ele>
        <time>2022-05-24 08:44:40</time>
      </trkpt>
      <trkpt lat="41.22752" lon="0.87772">
        <ele>441.8</ele>
        <time>2022-05-24 08:44:41</time>
      </trkpt>
      <trkpt lat="41.22747" lon="0.87768">
        <ele>441.8</ele>
        <time>2022-05-24 08:44:42</time>
      </trkpt>
      <trkpt lat="41.22742" lon="0.87764">
        <ele>441.8</ele>
        <time>2022-05-24 08:44:43</time>
      </trkpt>
      <trkpt lat="41.22738" lon="0.87759">
        <ele>441.6</ele>
        <time>2022-05-24 08:44:44</time>
      </trkpt>
      <trkpt lat="41.22733" lon="0.87754">
        <ele>441.6</ele>
        <time>2022-05-24 08:44:45</time>
      </trkpt>
      <trkpt lat="41.22729" lon="0.8775">
        <ele>441.6</ele>
        <time>2022-05-24 08:44:46</time>
      </trkpt>
      <trkpt lat="41.22725" lon="0.87744">
        <ele>441.6</ele>
        <time>2022-05-24 08:44:47</time>
      </trkpt>
      <trkpt lat="41.22721" lon="0.8774">
        <ele>441.8</ele>
        <time>2022-05-24 08:44:48</time>
      </trkpt>
      <trkpt lat="41.22717" lon="0.87735">
        <ele>441.8</ele>
        <time>2022-05-24 08:44:49</time>
      </trkpt>
      <trkpt lat="41.22714" lon="0.8773">
        <ele>441.8</ele>
        <time>2022-05-24 08:44:50</time>
      </trkpt>
      <trkpt lat="41.2271" lon="0.87726">
        <ele>442</ele>
        <time>2022-05-24 08:44:51</time>
      </trkpt>
      <trkpt lat="41.22707" lon="0.87722">
        <ele>442</ele>
        <time>2022-05-24 08:44:52</time>
      </trkpt>
      <trkpt lat="41.22705" lon="0.87718">
        <ele>442.2</ele>
        <time>2022-05-24 08:44:53</time>
      </trkpt>
      <trkpt lat="41.22701" lon="0.87714">
        <ele>442.2</ele>
        <time>2022-05-24 08:44:54</time>
      </trkpt>
      <trkpt lat="41.22698" lon="0.87709">
        <ele>442.4</ele>
        <time>2022-05-24 08:44:55</time>
      </trkpt>
      <trkpt lat="41.22695" lon="0.87705">
        <ele>442.4</ele>
        <time>2022-05-24 08:44:56</time>
      </trkpt>
      <trkpt lat="41.22693" lon="0.87702">
        <ele>442.6</ele>
        <time>2022-05-24 08:44:57</time>
      </trkpt>
      <trkpt lat="41.2269" lon="0.87698">
        <ele>442.8</ele>
        <time>2022-05-24 08:44:58</time>
      </trkpt>
      <trkpt lat="41.22687" lon="0.87694">
        <ele>443</ele>
        <time>2022-05-24 08:44:59</time>
      </trkpt>
      <trkpt lat="41.22684" lon="0.8769">
        <ele>443.2</ele>
        <time>2022-05-24 08:45:00</time>
      </trkpt>
      <trkpt lat="41.22681" lon="0.87686">
        <ele>443.2</ele>
        <time>2022-05-24 08:45:01</time>
      </trkpt>
      <trkpt lat="41.22678" lon="0.87683">
        <ele>443.4</ele>
        <time>2022-05-24 08:45:02</time>
      </trkpt>
      <trkpt lat="41.22676" lon="0.87679">
        <ele>443.6</ele>
        <time>2022-05-24 08:45:03</time>
      </trkpt>
      <trkpt lat="41.22673" lon="0.87676">
        <ele>443.8</ele>
        <time>2022-05-24 08:45:04</time>
      </trkpt>
      <trkpt lat="41.2267" lon="0.87672">
        <ele>443.8</ele>
        <time>2022-05-24 08:45:05</time>
      </trkpt>
      <trkpt lat="41.22667" lon="0.87668">
        <ele>444</ele>
        <time>2022-05-24 08:45:06</time>
      </trkpt>
      <trkpt lat="41.22664" lon="0.87665">
        <ele>444</ele>
        <time>2022-05-24 08:45:07</time>
      </trkpt>
      <trkpt lat="41.22661" lon="0.87661">
        <ele>444</ele>
        <time>2022-05-24 08:45:08</time>
      </trkpt>
      <trkpt lat="41.22657" lon="0.87658">
        <ele>444</ele>
        <time>2022-05-24 08:45:09</time>
      </trkpt>
      <trkpt lat="41.22655" lon="0.87655">
        <ele>444.2</ele>
        <time>2022-05-24 08:45:10</time>
      </trkpt>
      <trkpt lat="41.22651" lon="0.87651">
        <ele>444.2</ele>
        <time>2022-05-24 08:45:11</time>
      </trkpt>
      <trkpt lat="41.22648" lon="0.87648">
        <ele>444.2</ele>
        <time>2022-05-24 08:45:12</time>
      </trkpt>
      <trkpt lat="41.22645" lon="0.87645">
        <ele>444.4</ele>
        <time>2022-05-24 08:45:13</time>
      </trkpt>
      <trkpt lat="41.22641" lon="0.87641">
        <ele>444.4</ele>
        <time>2022-05-24 08:45:14</time>
      </trkpt>
      <trkpt lat="41.22638" lon="0.87638">
        <ele>444.4</ele>
        <time>2022-05-24 08:45:15</time>
      </trkpt>
      <trkpt lat="41.22635" lon="0.87635">
        <ele>444.4</ele>
        <time>2022-05-24 08:45:16</time>
      </trkpt>
      <trkpt lat="41.22631" lon="0.87631">
        <ele>444.4</ele>
        <time>2022-05-24 08:45:17</time>
      </trkpt>
      <trkpt lat="41.22628" lon="0.87627">
        <ele>444.4</ele>
        <time>2022-05-24 08:45:18</time>
      </trkpt>
      <trkpt lat="41.22624" lon="0.87623">
        <ele>444.4</ele>
        <time>2022-05-24 08:45:19</time>
      </trkpt>
      <trkpt lat="41.2262" lon="0.87619">
        <ele>444.4</ele>
        <time>2022-05-24 08:45:20</time>
      </trkpt>
      <trkpt lat="41.22615" lon="0.87614">
        <ele>444.2</ele>
        <time>2022-05-24 08:45:21</time>
      </trkpt>
      <trkpt lat="41.22611" lon="0.87609">
        <ele>444</ele>
        <time>2022-05-24 08:45:22</time>
      </trkpt>
      <trkpt lat="41.22606" lon="0.87605">
        <ele>443.8</ele>
        <time>2022-05-24 08:45:23</time>
      </trkpt>
      <trkpt lat="41.22601" lon="0.876">
        <ele>443.6</ele>
        <time>2022-05-24 08:45:24</time>
      </trkpt>
      <trkpt lat="41.22596" lon="0.87595">
        <ele>443.2</ele>
        <time>2022-05-24 08:45:25</time>
      </trkpt>
      <trkpt lat="41.22589" lon="0.87589">
        <ele>442.8</ele>
        <time>2022-05-24 08:45:26</time>
      </trkpt>
      <trkpt lat="41.22584" lon="0.87584">
        <ele>442.4</ele>
        <time>2022-05-24 08:45:27</time>
      </trkpt>
      <trkpt lat="41.22577" lon="0.87578">
        <ele>442</ele>
        <time>2022-05-24 08:45:28</time>
      </trkpt>
      <trkpt lat="41.2257" lon="0.87573">
        <ele>441.4</ele>
        <time>2022-05-24 08:45:29</time>
      </trkpt>
      <trkpt lat="41.22562" lon="0.87569">
        <ele>440.6</ele>
        <time>2022-05-24 08:45:30</time>
      </trkpt>
      <trkpt lat="41.22553" lon="0.87566">
        <ele>439.6</ele>
        <time>2022-05-24 08:45:31</time>
      </trkpt>
      <trkpt lat="41.22542" lon="0.87564">
        <ele>438.4</ele>
        <time>2022-05-24 08:45:32</time>
      </trkpt>
      <trkpt lat="41.22534" lon="0.87566">
        <ele>437.2</ele>
        <time>2022-05-24 08:45:33</time>
      </trkpt>
      <trkpt lat="41.22523" lon="0.87568">
        <ele>435.6</ele>
        <time>2022-05-24 08:45:34</time>
      </trkpt>
      <trkpt lat="41.22513" lon="0.87569">
        <ele>434.4</ele>
        <time>2022-05-24 08:45:35</time>
      </trkpt>
      <trkpt lat="41.22501" lon="0.87567">
        <ele>433</ele>
        <time>2022-05-24 08:45:36</time>
      </trkpt>
      <trkpt lat="41.22489" lon="0.87564">
        <ele>431.4</ele>
        <time>2022-05-24 08:45:37</time>
      </trkpt>
      <trkpt lat="41.22478" lon="0.87558">
        <ele>430</ele>
        <time>2022-05-24 08:45:38</time>
      </trkpt>
      <trkpt lat="41.22466" lon="0.87549">
        <ele>428.6</ele>
        <time>2022-05-24 08:45:39</time>
      </trkpt>
      <trkpt lat="41.22454" lon="0.8754">
        <ele>427.2</ele>
        <time>2022-05-24 08:45:40</time>
      </trkpt>
      <trkpt lat="41.22442" lon="0.87532">
        <ele>425.6</ele>
        <time>2022-05-24 08:45:41</time>
      </trkpt>
      <trkpt lat="41.2243" lon="0.87524">
        <ele>424.2</ele>
        <time>2022-05-24 08:45:42</time>
      </trkpt>
      <trkpt lat="41.22417" lon="0.87518">
        <ele>422.6</ele>
        <time>2022-05-24 08:45:43</time>
      </trkpt>
      <trkpt lat="41.22404" lon="0.87513">
        <ele>420.6</ele>
        <time>2022-05-24 08:45:44</time>
      </trkpt>
      <trkpt lat="41.22389" lon="0.87512">
        <ele>418.8</ele>
        <time>2022-05-24 08:45:45</time>
      </trkpt>
      <trkpt lat="41.22374" lon="0.87512">
        <ele>417.2</ele>
        <time>2022-05-24 08:45:46</time>
      </trkpt>
      <trkpt lat="41.22359" lon="0.87514">
        <ele>415.8</ele>
        <time>2022-05-24 08:45:47</time>
      </trkpt>
      <trkpt lat="41.22345" lon="0.87513">
        <ele>414.4</ele>
        <time>2022-05-24 08:45:48</time>
      </trkpt>
      <trkpt lat="41.22333" lon="0.8751">
        <ele>413.2</ele>
        <time>2022-05-24 08:45:49</time>
      </trkpt>
      <trkpt lat="41.22323" lon="0.87499">
        <ele>412.4</ele>
        <time>2022-05-24 08:45:50</time>
      </trkpt>
      <trkpt lat="41.22315" lon="0.87486">
        <ele>411.6</ele>
        <time>2022-05-24 08:45:51</time>
      </trkpt>
      <trkpt lat="41.2231" lon="0.87471">
        <ele>411.2</ele>
        <time>2022-05-24 08:45:52</time>
      </trkpt>
      <trkpt lat="41.22306" lon="0.87456">
        <ele>411</ele>
        <time>2022-05-24 08:45:53</time>
      </trkpt>
      <trkpt lat="41.22303" lon="0.87444">
        <ele>410.8</ele>
        <time>2022-05-24 08:45:54</time>
      </trkpt>
      <trkpt lat="41.223" lon="0.87431">
        <ele>411</ele>
        <time>2022-05-24 08:45:55</time>
      </trkpt>
      <trkpt lat="41.22297" lon="0.87421">
        <ele>411</ele>
        <time>2022-05-24 08:45:56</time>
      </trkpt>
      <trkpt lat="41.22293" lon="0.87409">
        <ele>411.2</ele>
        <time>2022-05-24 08:45:57</time>
      </trkpt>
      <trkpt lat="41.22289" lon="0.87401">
        <ele>411.4</ele>
        <time>2022-05-24 08:45:58</time>
      </trkpt>
      <trkpt lat="41.22285" lon="0.87392">
        <ele>411.6</ele>
        <time>2022-05-24 08:45:59</time>
      </trkpt>
      <trkpt lat="41.22282" lon="0.87384">
        <ele>411.8</ele>
        <time>2022-05-24 08:46:00</time>
      </trkpt>
      <trkpt lat="41.22278" lon="0.87376">
        <ele>412</ele>
        <time>2022-05-24 08:46:01</time>
      </trkpt>
      <trkpt lat="41.22274" lon="0.8737">
        <ele>412.2</ele>
        <time>2022-05-24 08:46:02</time>
      </trkpt>
      <trkpt lat="41.2227" lon="0.87363">
        <ele>412.4</ele>
        <time>2022-05-24 08:46:03</time>
      </trkpt>
      <trkpt lat="41.22266" lon="0.87358">
        <ele>412.8</ele>
        <time>2022-05-24 08:46:04</time>
      </trkpt>
      <trkpt lat="41.22262" lon="0.87351">
        <ele>413</ele>
        <time>2022-05-24 08:46:05</time>
      </trkpt>
      <trkpt lat="41.22258" lon="0.87346">
        <ele>413.4</ele>
        <time>2022-05-24 08:46:06</time>
      </trkpt>
      <trkpt lat="41.22254" lon="0.87341">
        <ele>413.8</ele>
        <time>2022-05-24 08:46:07</time>
      </trkpt>
      <trkpt lat="41.2225" lon="0.87336">
        <ele>414</ele>
        <time>2022-05-24 08:46:08</time>
      </trkpt>
      <trkpt lat="41.22245" lon="0.87331">
        <ele>414.2</ele>
        <time>2022-05-24 08:46:09</time>
      </trkpt>
      <trkpt lat="41.22241" lon="0.87327">
        <ele>414.4</ele>
        <time>2022-05-24 08:46:10</time>
      </trkpt>
      <trkpt lat="41.22237" lon="0.87323">
        <ele>414.6</ele>
        <time>2022-05-24 08:46:11</time>
      </trkpt>
      <trkpt lat="41.22232" lon="0.87319">
        <ele>414.8</ele>
        <time>2022-05-24 08:46:12</time>
      </trkpt>
      <trkpt lat="41.22228" lon="0.87314">
        <ele>414.8</ele>
        <time>2022-05-24 08:46:13</time>
      </trkpt>
      <trkpt lat="41.22225" lon="0.8731">
        <ele>415</ele>
        <time>2022-05-24 08:46:14</time>
      </trkpt>
      <trkpt lat="41.2222" lon="0.87305">
        <ele>415</ele>
        <time>2022-05-24 08:46:15</time>
      </trkpt>
      <trkpt lat="41.22216" lon="0.87299">
        <ele>415</ele>
        <time>2022-05-24 08:46:16</time>
      </trkpt>
      <trkpt lat="41.22212" lon="0.87293">
        <ele>415.2</ele>
        <time>2022-05-24 08:46:17</time>
      </trkpt>
      <trkpt lat="41.2221" lon="0.87286">
        <ele>415.2</ele>
        <time>2022-05-24 08:46:18</time>
      </trkpt>
      <trkpt lat="41.22208" lon="0.87279">
        <ele>415.4</ele>
        <time>2022-05-24 08:46:19</time>
      </trkpt>
      <trkpt lat="41.22207" lon="0.87273">
        <ele>415.6</ele>
        <time>2022-05-24 08:46:20</time>
      </trkpt>
      <trkpt lat="41.22208" lon="0.87266">
        <ele>415.6</ele>
        <time>2022-05-24 08:46:21</time>
      </trkpt>
      <trkpt lat="41.22208" lon="0.8726">
        <ele>415.6</ele>
        <time>2022-05-24 08:46:22</time>
      </trkpt>
      <trkpt lat="41.22208" lon="0.87253">
        <ele>415.8</ele>
        <time>2022-05-24 08:46:23</time>
      </trkpt>
      <trkpt lat="41.22209" lon="0.87246">
        <ele>416</ele>
        <time>2022-05-24 08:46:24</time>
      </trkpt>
      <trkpt lat="41.22208" lon="0.8724">
        <ele>416</ele>
        <time>2022-05-24 08:46:25</time>
      </trkpt>
      <trkpt lat="41.22208" lon="0.87233">
        <ele>416.2</ele>
        <time>2022-05-24 08:46:26</time>
      </trkpt>
      <trkpt lat="41.22206" lon="0.87226">
        <ele>416.2</ele>
        <time>2022-05-24 08:46:27</time>
      </trkpt>
      <trkpt lat="41.22203" lon="0.87221">
        <ele>416.2</ele>
        <time>2022-05-24 08:46:28</time>
      </trkpt>
      <trkpt lat="41.22199" lon="0.87215">
        <ele>416.2</ele>
        <time>2022-05-24 08:46:29</time>
      </trkpt>
      <trkpt lat="41.22195" lon="0.87211">
        <ele>416.2</ele>
        <time>2022-05-24 08:46:30</time>
      </trkpt>
      <trkpt lat="41.22189" lon="0.87208">
        <ele>416.2</ele>
        <time>2022-05-24 08:46:31</time>
      </trkpt>
      <trkpt lat="41.22184" lon="0.87206">
        <ele>416.2</ele>
        <time>2022-05-24 08:46:32</time>
      </trkpt>
      <trkpt lat="41.22179" lon="0.87205">
        <ele>416.2</ele>
        <time>2022-05-24 08:46:33</time>
      </trkpt>
      <trkpt lat="41.22174" lon="0.87204">
        <ele>416.2</ele>
        <time>2022-05-24 08:46:34</time>
      </trkpt>
      <trkpt lat="41.22168" lon="0.87205">
        <ele>416.2</ele>
        <time>2022-05-24 08:46:35</time>
      </trkpt>
      <trkpt lat="41.22163" lon="0.87205">
        <ele>416.2</ele>
        <time>2022-05-24 08:46:36</time>
      </trkpt>
      <trkpt lat="41.22158" lon="0.87207">
        <ele>416.2</ele>
        <time>2022-05-24 08:46:37</time>
      </trkpt>
      <trkpt lat="41.22153" lon="0.87208">
        <ele>416.2</ele>
        <time>2022-05-24 08:46:38</time>
      </trkpt>
      <trkpt lat="41.22148" lon="0.8721">
        <ele>416.2</ele>
        <time>2022-05-24 08:46:39</time>
      </trkpt>
      <trkpt lat="41.22142" lon="0.87212">
        <ele>416.2</ele>
        <time>2022-05-24 08:46:40</time>
      </trkpt>
      <trkpt lat="41.22137" lon="0.87214">
        <ele>416</ele>
        <time>2022-05-24 08:46:41</time>
      </trkpt>
      <trkpt lat="41.22132" lon="0.87216">
        <ele>416</ele>
        <time>2022-05-24 08:46:42</time>
      </trkpt>
      <trkpt lat="41.22127" lon="0.87218">
        <ele>416</ele>
        <time>2022-05-24 08:46:43</time>
      </trkpt>
      <trkpt lat="41.22122" lon="0.8722">
        <ele>416</ele>
        <time>2022-05-24 08:46:44</time>
      </trkpt>
      <trkpt lat="41.22116" lon="0.87222">
        <ele>416</ele>
        <time>2022-05-24 08:46:45</time>
      </trkpt>
      <trkpt lat="41.22112" lon="0.87224">
        <ele>416.2</ele>
        <time>2022-05-24 08:46:46</time>
      </trkpt>
      <trkpt lat="41.22107" lon="0.87226">
        <ele>416.2</ele>
        <time>2022-05-24 08:46:47</time>
      </trkpt>
      <trkpt lat="41.22102" lon="0.87227">
        <ele>416.2</ele>
        <time>2022-05-24 08:46:48</time>
      </trkpt>
      <trkpt lat="41.22097" lon="0.87228">
        <ele>416.2</ele>
        <time>2022-05-24 08:46:49</time>
      </trkpt>
      <trkpt lat="41.22093" lon="0.8723">
        <ele>416.2</ele>
        <time>2022-05-24 08:46:50</time>
      </trkpt>
      <trkpt lat="41.22088" lon="0.87231">
        <ele>416.2</ele>
        <time>2022-05-24 08:46:51</time>
      </trkpt>
      <trkpt lat="41.22083" lon="0.87233">
        <ele>416.4</ele>
        <time>2022-05-24 08:46:52</time>
      </trkpt>
      <trkpt lat="41.22078" lon="0.87234">
        <ele>416.4</ele>
        <time>2022-05-24 08:46:53</time>
      </trkpt>
      <trkpt lat="41.22074" lon="0.87236">
        <ele>416.4</ele>
        <time>2022-05-24 08:46:54</time>
      </trkpt>
      <trkpt lat="41.22069" lon="0.87237">
        <ele>416.6</ele>
        <time>2022-05-24 08:46:55</time>
      </trkpt>
      <trkpt lat="41.22064" lon="0.87238">
        <ele>416.6</ele>
        <time>2022-05-24 08:46:56</time>
      </trkpt>
      <trkpt lat="41.22059" lon="0.87239">
        <ele>416.6</ele>
        <time>2022-05-24 08:46:57</time>
      </trkpt>
      <trkpt lat="41.22054" lon="0.8724">
        <ele>416.8</ele>
        <time>2022-05-24 08:46:58</time>
      </trkpt>
      <trkpt lat="41.22049" lon="0.8724">
        <ele>416.8</ele>
        <time>2022-05-24 08:46:59</time>
      </trkpt>
      <trkpt lat="41.22044" lon="0.87241">
        <ele>416.8</ele>
        <time>2022-05-24 08:47:00</time>
      </trkpt>
      <trkpt lat="41.22039" lon="0.87241">
        <ele>416.8</ele>
        <time>2022-05-24 08:47:01</time>
      </trkpt>
      <trkpt lat="41.22035" lon="0.87242">
        <ele>416.8</ele>
        <time>2022-05-24 08:47:02</time>
      </trkpt>
      <trkpt lat="41.2203" lon="0.87242">
        <ele>416.8</ele>
        <time>2022-05-24 08:47:03</time>
      </trkpt>
      <trkpt lat="41.22026" lon="0.87243">
        <ele>416.6</ele>
        <time>2022-05-24 08:47:04</time>
      </trkpt>
      <trkpt lat="41.22021" lon="0.87244">
        <ele>416.6</ele>
        <time>2022-05-24 08:47:05</time>
      </trkpt>
      <trkpt lat="41.22017" lon="0.87244">
        <ele>416.6</ele>
        <time>2022-05-24 08:47:06</time>
      </trkpt>
      <trkpt lat="41.22012" lon="0.87244">
        <ele>416.6</ele>
        <time>2022-05-24 08:47:07</time>
      </trkpt>
      <trkpt lat="41.22007" lon="0.87244">
        <ele>416.4</ele>
        <time>2022-05-24 08:47:08</time>
      </trkpt>
      <trkpt lat="41.22002" lon="0.87244">
        <ele>416.2</ele>
        <time>2022-05-24 08:47:09</time>
      </trkpt>
      <trkpt lat="41.21998" lon="0.87244">
        <ele>416.2</ele>
        <time>2022-05-24 08:47:10</time>
      </trkpt>
      <trkpt lat="41.21993" lon="0.87244">
        <ele>416</ele>
        <time>2022-05-24 08:47:11</time>
      </trkpt>
      <trkpt lat="41.21988" lon="0.87243">
        <ele>416</ele>
        <time>2022-05-24 08:47:12</time>
      </trkpt>
      <trkpt lat="41.21983" lon="0.87243">
        <ele>416</ele>
        <time>2022-05-24 08:47:13</time>
      </trkpt>
      <trkpt lat="41.21979" lon="0.87242">
        <ele>416</ele>
        <time>2022-05-24 08:47:14</time>
      </trkpt>
      <trkpt lat="41.21973" lon="0.87241">
        <ele>416</ele>
        <time>2022-05-24 08:47:15</time>
      </trkpt>
      <trkpt lat="41.21969" lon="0.87239">
        <ele>416.2</ele>
        <time>2022-05-24 08:47:16</time>
      </trkpt>
      <trkpt lat="41.21964" lon="0.87238">
        <ele>416.2</ele>
        <time>2022-05-24 08:47:17</time>
      </trkpt>
      <trkpt lat="41.2196" lon="0.87236">
        <ele>416.2</ele>
        <time>2022-05-24 08:47:18</time>
      </trkpt>
      <trkpt lat="41.21954" lon="0.87235">
        <ele>416.2</ele>
        <time>2022-05-24 08:47:19</time>
      </trkpt>
      <trkpt lat="41.2195" lon="0.87233">
        <ele>416.4</ele>
        <time>2022-05-24 08:47:20</time>
      </trkpt>
      <trkpt lat="41.21945" lon="0.87232">
        <ele>416.4</ele>
        <time>2022-05-24 08:47:21</time>
      </trkpt>
      <trkpt lat="41.21941" lon="0.8723">
        <ele>416.4</ele>
        <time>2022-05-24 08:47:22</time>
      </trkpt>
      <trkpt lat="41.21937" lon="0.87229">
        <ele>416.6</ele>
        <time>2022-05-24 08:47:23</time>
      </trkpt>
      <trkpt lat="41.21932" lon="0.87227">
        <ele>416.6</ele>
        <time>2022-05-24 08:47:24</time>
      </trkpt>
      <trkpt lat="41.21928" lon="0.87226">
        <ele>416.8</ele>
        <time>2022-05-24 08:47:25</time>
      </trkpt>
      <trkpt lat="41.21924" lon="0.87225">
        <ele>417</ele>
        <time>2022-05-24 08:47:26</time>
      </trkpt>
      <trkpt lat="41.2192" lon="0.87224">
        <ele>417.2</ele>
        <time>2022-05-24 08:47:27</time>
      </trkpt>
      <trkpt lat="41.21916" lon="0.87223">
        <ele>417.4</ele>
        <time>2022-05-24 08:47:28</time>
      </trkpt>
      <trkpt lat="41.21911" lon="0.87223">
        <ele>417.6</ele>
        <time>2022-05-24 08:47:29</time>
      </trkpt>
      <trkpt lat="41.21907" lon="0.87222">
        <ele>417.6</ele>
        <time>2022-05-24 08:47:30</time>
      </trkpt>
      <trkpt lat="41.21903" lon="0.87223">
        <ele>417.8</ele>
        <time>2022-05-24 08:47:31</time>
      </trkpt>
      <trkpt lat="41.21898" lon="0.87224">
        <ele>418</ele>
        <time>2022-05-24 08:47:32</time>
      </trkpt>
      <trkpt lat="41.21894" lon="0.87225">
        <ele>418.2</ele>
        <time>2022-05-24 08:47:33</time>
      </trkpt>
      <trkpt lat="41.2189" lon="0.87226">
        <ele>418.2</ele>
        <time>2022-05-24 08:47:34</time>
      </trkpt>
      <trkpt lat="41.21886" lon="0.87228">
        <ele>418.4</ele>
        <time>2022-05-24 08:47:35</time>
      </trkpt>
      <trkpt lat="41.21881" lon="0.87231">
        <ele>418.4</ele>
        <time>2022-05-24 08:47:36</time>
      </trkpt>
      <trkpt lat="41.21877" lon="0.87234">
        <ele>418.6</ele>
        <time>2022-05-24 08:47:37</time>
      </trkpt>
      <trkpt lat="41.21874" lon="0.87236">
        <ele>418.8</ele>
        <time>2022-05-24 08:47:38</time>
      </trkpt>
      <trkpt lat="41.2187" lon="0.87239">
        <ele>418.8</ele>
        <time>2022-05-24 08:47:39</time>
      </trkpt>
      <trkpt lat="41.21866" lon="0.87242">
        <ele>419</ele>
        <time>2022-05-24 08:47:40</time>
      </trkpt>
      <trkpt lat="41.21863" lon="0.87245">
        <ele>419</ele>
        <time>2022-05-24 08:47:41</time>
      </trkpt>
      <trkpt lat="41.21859" lon="0.87249">
        <ele>419.2</ele>
        <time>2022-05-24 08:47:42</time>
      </trkpt>
      <trkpt lat="41.21856" lon="0.87252">
        <ele>419.2</ele>
        <time>2022-05-24 08:47:43</time>
      </trkpt>
      <trkpt lat="41.21853" lon="0.87254">
        <ele>419.4</ele>
        <time>2022-05-24 08:47:44</time>
      </trkpt>
      <trkpt lat="41.2185" lon="0.87257">
        <ele>419.4</ele>
        <time>2022-05-24 08:47:45</time>
      </trkpt>
      <trkpt lat="41.21847" lon="0.8726">
        <ele>419.6</ele>
        <time>2022-05-24 08:47:46</time>
      </trkpt>
      <trkpt lat="41.21844" lon="0.87262">
        <ele>419.6</ele>
        <time>2022-05-24 08:47:47</time>
      </trkpt>
      <trkpt lat="41.2184" lon="0.87264">
        <ele>419.8</ele>
        <time>2022-05-24 08:47:48</time>
      </trkpt>
      <trkpt lat="41.21837" lon="0.87265">
        <ele>420</ele>
        <time>2022-05-24 08:47:49</time>
      </trkpt>
      <trkpt lat="41.21835" lon="0.87266">
        <ele>420.2</ele>
        <time>2022-05-24 08:47:50</time>
      </trkpt>
      <trkpt lat="41.21831" lon="0.87267">
        <ele>420.4</ele>
        <time>2022-05-24 08:47:51</time>
      </trkpt>
      <trkpt lat="41.21829" lon="0.87268">
        <ele>420.8</ele>
        <time>2022-05-24 08:47:52</time>
      </trkpt>
      <trkpt lat="41.21826" lon="0.87268">
        <ele>421</ele>
        <time>2022-05-24 08:47:53</time>
      </trkpt>
      <trkpt lat="41.21824" lon="0.87269">
        <ele>421.2</ele>
        <time>2022-05-24 08:47:54</time>
      </trkpt>
      <trkpt lat="41.21822" lon="0.8727">
        <ele>421.4</ele>
        <time>2022-05-24 08:47:55</time>
      </trkpt>
      <trkpt lat="41.21819" lon="0.8727">
        <ele>421.4</ele>
        <time>2022-05-24 08:47:56</time>
      </trkpt>
      <trkpt lat="41.21817" lon="0.87271">
        <ele>421.6</ele>
        <time>2022-05-24 08:47:57</time>
      </trkpt>
      <trkpt lat="41.21815" lon="0.87272">
        <ele>421.8</ele>
        <time>2022-05-24 08:47:58</time>
      </trkpt>
      <trkpt lat="41.21812" lon="0.87273">
        <ele>422</ele>
        <time>2022-05-24 08:47:59</time>
      </trkpt>
      <trkpt lat="41.2181" lon="0.87273">
        <ele>422</ele>
        <time>2022-05-24 08:48:00</time>
      </trkpt>
      <trkpt lat="41.21808" lon="0.87274">
        <ele>422</ele>
        <time>2022-05-24 08:48:01</time>
      </trkpt>
      <trkpt lat="41.21806" lon="0.87275">
        <ele>422.2</ele>
        <time>2022-05-24 08:48:02</time>
      </trkpt>
      <trkpt lat="41.21803" lon="0.87276">
        <ele>422.4</ele>
        <time>2022-05-24 08:48:03</time>
      </trkpt>
      <trkpt lat="41.21801" lon="0.87277">
        <ele>422.6</ele>
        <time>2022-05-24 08:48:04</time>
      </trkpt>
      <trkpt lat="41.21799" lon="0.87277">
        <ele>422.8</ele>
        <time>2022-05-24 08:48:05</time>
      </trkpt>
      <trkpt lat="41.21797" lon="0.87278">
        <ele>422.8</ele>
        <time>2022-05-24 08:48:06</time>
      </trkpt>
      <trkpt lat="41.21794" lon="0.87279">
        <ele>423</ele>
        <time>2022-05-24 08:48:07</time>
      </trkpt>
      <trkpt lat="41.21792" lon="0.87279">
        <ele>423.2</ele>
        <time>2022-05-24 08:48:08</time>
      </trkpt>
      <trkpt lat="41.2179" lon="0.8728">
        <ele>423.2</ele>
        <time>2022-05-24 08:48:09</time>
      </trkpt>
      <trkpt lat="41.21788" lon="0.87281">
        <ele>423.4</ele>
        <time>2022-05-24 08:48:10</time>
      </trkpt>
      <trkpt lat="41.21786" lon="0.87281">
        <ele>423.4</ele>
        <time>2022-05-24 08:48:11</time>
      </trkpt>
      <trkpt lat="41.21783" lon="0.87281">
        <ele>423.6</ele>
        <time>2022-05-24 08:48:12</time>
      </trkpt>
      <trkpt lat="41.21781" lon="0.87282">
        <ele>423.8</ele>
        <time>2022-05-24 08:48:13</time>
      </trkpt>
      <trkpt lat="41.21779" lon="0.87283">
        <ele>423.8</ele>
        <time>2022-05-24 08:48:14</time>
      </trkpt>
      <trkpt lat="41.21776" lon="0.87283">
        <ele>424</ele>
        <time>2022-05-24 08:48:15</time>
      </trkpt>
      <trkpt lat="41.21774" lon="0.87283">
        <ele>424.2</ele>
        <time>2022-05-24 08:48:16</time>
      </trkpt>
      <trkpt lat="41.21772" lon="0.87283">
        <ele>424.2</ele>
        <time>2022-05-24 08:48:17</time>
      </trkpt>
      <trkpt lat="41.21769" lon="0.87283">
        <ele>424.4</ele>
        <time>2022-05-24 08:48:18</time>
      </trkpt>
      <trkpt lat="41.21767" lon="0.87283">
        <ele>424.4</ele>
        <time>2022-05-24 08:48:19</time>
      </trkpt>
      <trkpt lat="41.21765" lon="0.87283">
        <ele>424.6</ele>
        <time>2022-05-24 08:48:20</time>
      </trkpt>
      <trkpt lat="41.21762" lon="0.87283">
        <ele>424.6</ele>
        <time>2022-05-24 08:48:21</time>
      </trkpt>
      <trkpt lat="41.2176" lon="0.87283">
        <ele>424.8</ele>
        <time>2022-05-24 08:48:22</time>
      </trkpt>
      <trkpt lat="41.21757" lon="0.87284">
        <ele>425</ele>
        <time>2022-05-24 08:48:23</time>
      </trkpt>
      <trkpt lat="41.21755" lon="0.87284">
        <ele>425</ele>
        <time>2022-05-24 08:48:24</time>
      </trkpt>
      <trkpt lat="41.21753" lon="0.87284">
        <ele>425.2</ele>
        <time>2022-05-24 08:48:25</time>
      </trkpt>
      <trkpt lat="41.21751" lon="0.87284">
        <ele>425.4</ele>
        <time>2022-05-24 08:48:26</time>
      </trkpt>
      <trkpt lat="41.21748" lon="0.87284">
        <ele>425.4</ele>
        <time>2022-05-24 08:48:27</time>
      </trkpt>
      <trkpt lat="41.21746" lon="0.87284">
        <ele>425.6</ele>
        <time>2022-05-24 08:48:28</time>
      </trkpt>
      <trkpt lat="41.21744" lon="0.87283">
        <ele>425.8</ele>
        <time>2022-05-24 08:48:29</time>
      </trkpt>
      <trkpt lat="41.21741" lon="0.87283">
        <ele>425.8</ele>
        <time>2022-05-24 08:48:30</time>
      </trkpt>
      <trkpt lat="41.21739" lon="0.87283">
        <ele>426</ele>
        <time>2022-05-24 08:48:31</time>
      </trkpt>
      <trkpt lat="41.21737" lon="0.87283">
        <ele>426.2</ele>
        <time>2022-05-24 08:48:32</time>
      </trkpt>
      <trkpt lat="41.21734" lon="0.87282">
        <ele>426.2</ele>
        <time>2022-05-24 08:48:33</time>
      </trkpt>
      <trkpt lat="41.21732" lon="0.87282">
        <ele>426.4</ele>
        <time>2022-05-24 08:48:34</time>
      </trkpt>
      <trkpt lat="41.21729" lon="0.87281">
        <ele>426.6</ele>
        <time>2022-05-24 08:48:35</time>
      </trkpt>
      <trkpt lat="41.21727" lon="0.8728">
        <ele>426.6</ele>
        <time>2022-05-24 08:48:36</time>
      </trkpt>
      <trkpt lat="41.21724" lon="0.8728">
        <ele>426.8</ele>
        <time>2022-05-24 08:48:37</time>
      </trkpt>
      <trkpt lat="41.21722" lon="0.87279">
        <ele>427</ele>
        <time>2022-05-24 08:48:38</time>
      </trkpt>
      <trkpt lat="41.2172" lon="0.87279">
        <ele>427.2</ele>
        <time>2022-05-24 08:48:39</time>
      </trkpt>
      <trkpt lat="41.21718" lon="0.87278">
        <ele>427.2</ele>
        <time>2022-05-24 08:48:40</time>
      </trkpt>
      <trkpt lat="41.21716" lon="0.87277">
        <ele>427.4</ele>
        <time>2022-05-24 08:48:41</time>
      </trkpt>
      <trkpt lat="41.21714" lon="0.87276">
        <ele>427.6</ele>
        <time>2022-05-24 08:48:42</time>
      </trkpt>
      <trkpt lat="41.21711" lon="0.87275">
        <ele>427.6</ele>
        <time>2022-05-24 08:48:43</time>
      </trkpt>
      <trkpt lat="41.21709" lon="0.87274">
        <ele>427.8</ele>
        <time>2022-05-24 08:48:44</time>
      </trkpt>
      <trkpt lat="41.21706" lon="0.87274">
        <ele>428</ele>
        <time>2022-05-24 08:48:45</time>
      </trkpt>
      <trkpt lat="41.21704" lon="0.87273">
        <ele>428</ele>
        <time>2022-05-24 08:48:46</time>
      </trkpt>
      <trkpt lat="41.21701" lon="0.87272">
        <ele>428.2</ele>
        <time>2022-05-24 08:48:47</time>
      </trkpt>
      <trkpt lat="41.21699" lon="0.87272">
        <ele>428.4</ele>
        <time>2022-05-24 08:48:48</time>
      </trkpt>
      <trkpt lat="41.21697" lon="0.87271">
        <ele>428.6</ele>
        <time>2022-05-24 08:48:49</time>
      </trkpt>
      <trkpt lat="41.21695" lon="0.8727">
        <ele>428.6</ele>
        <time>2022-05-24 08:48:50</time>
      </trkpt>
      <trkpt lat="41.21693" lon="0.87269">
        <ele>428.8</ele>
        <time>2022-05-24 08:48:51</time>
      </trkpt>
      <trkpt lat="41.21691" lon="0.87268">
        <ele>429</ele>
        <time>2022-05-24 08:48:52</time>
      </trkpt>
      <trkpt lat="41.21688" lon="0.87268">
        <ele>429.2</ele>
        <time>2022-05-24 08:48:53</time>
      </trkpt>
      <trkpt lat="41.21686" lon="0.87267">
        <ele>429.2</ele>
        <time>2022-05-24 08:48:54</time>
      </trkpt>
      <trkpt lat="41.21684" lon="0.87266">
        <ele>429.4</ele>
        <time>2022-05-24 08:48:55</time>
      </trkpt>
      <trkpt lat="41.21682" lon="0.87266">
        <ele>429.6</ele>
        <time>2022-05-24 08:48:56</time>
      </trkpt>
      <trkpt lat="41.2168" lon="0.87265">
        <ele>429.6</ele>
        <time>2022-05-24 08:48:57</time>
      </trkpt>
      <trkpt lat="41.21677" lon="0.87264">
        <ele>429.8</ele>
        <time>2022-05-24 08:48:58</time>
      </trkpt>
      <trkpt lat="41.21675" lon="0.87264">
        <ele>429.8</ele>
        <time>2022-05-24 08:48:59</time>
      </trkpt>
      <trkpt lat="41.21673" lon="0.87263">
        <ele>430</ele>
        <time>2022-05-24 08:49:00</time>
      </trkpt>
      <trkpt lat="41.21671" lon="0.87262">
        <ele>430.2</ele>
        <time>2022-05-24 08:49:01</time>
      </trkpt>
      <trkpt lat="41.21668" lon="0.87262">
        <ele>430.2</ele>
        <time>2022-05-24 08:49:02</time>
      </trkpt>
      <trkpt lat="41.21666" lon="0.87261">
        <ele>430.4</ele>
        <time>2022-05-24 08:49:03</time>
      </trkpt>
      <trkpt lat="41.21663" lon="0.8726">
        <ele>430.4</ele>
        <time>2022-05-24 08:49:04</time>
      </trkpt>
      <trkpt lat="41.21661" lon="0.8726">
        <ele>430.6</ele>
        <time>2022-05-24 08:49:05</time>
      </trkpt>
      <trkpt lat="41.21659" lon="0.87259">
        <ele>430.6</ele>
        <time>2022-05-24 08:49:06</time>
      </trkpt>
      <trkpt lat="41.21656" lon="0.87258">
        <ele>430.6</ele>
        <time>2022-05-24 08:49:07</time>
      </trkpt>
      <trkpt lat="41.21655" lon="0.87258">
        <ele>430.8</ele>
        <time>2022-05-24 08:49:08</time>
      </trkpt>
      <trkpt lat="41.21651" lon="0.87257">
        <ele>430.8</ele>
        <time>2022-05-24 08:49:09</time>
      </trkpt>
      <trkpt lat="41.21649" lon="0.87256">
        <ele>431</ele>
        <time>2022-05-24 08:49:10</time>
      </trkpt>
      <trkpt lat="41.21646" lon="0.87255">
        <ele>431</ele>
        <time>2022-05-24 08:49:11</time>
      </trkpt>
      <trkpt lat="41.21644" lon="0.87254">
        <ele>431</ele>
        <time>2022-05-24 08:49:12</time>
      </trkpt>
      <trkpt lat="41.21642" lon="0.87253">
        <ele>431</ele>
        <time>2022-05-24 08:49:13</time>
      </trkpt>
      <trkpt lat="41.21639" lon="0.87252">
        <ele>431</ele>
        <time>2022-05-24 08:49:14</time>
      </trkpt>
      <trkpt lat="41.21637" lon="0.87251">
        <ele>431</ele>
        <time>2022-05-24 08:49:15</time>
      </trkpt>
      <trkpt lat="41.21634" lon="0.8725">
        <ele>431.2</ele>
        <time>2022-05-24 08:49:16</time>
      </trkpt>
      <trkpt lat="41.21631" lon="0.87249">
        <ele>431.2</ele>
        <time>2022-05-24 08:49:17</time>
      </trkpt>
      <trkpt lat="41.21629" lon="0.87249">
        <ele>431.2</ele>
        <time>2022-05-24 08:49:18</time>
      </trkpt>
      <trkpt lat="41.21626" lon="0.87248">
        <ele>431.2</ele>
        <time>2022-05-24 08:49:19</time>
      </trkpt>
      <trkpt lat="41.21623" lon="0.87247">
        <ele>431.2</ele>
        <time>2022-05-24 08:49:20</time>
      </trkpt>
      <trkpt lat="41.21621" lon="0.87246">
        <ele>431.2</ele>
        <time>2022-05-24 08:49:21</time>
      </trkpt>
      <trkpt lat="41.21618" lon="0.87246">
        <ele>431.4</ele>
        <time>2022-05-24 08:49:22</time>
      </trkpt>
      <trkpt lat="41.21616" lon="0.87245">
        <ele>431.4</ele>
        <time>2022-05-24 08:49:23</time>
      </trkpt>
      <trkpt lat="41.21613" lon="0.87244">
        <ele>431.4</ele>
        <time>2022-05-24 08:49:24</time>
      </trkpt>
      <trkpt lat="41.2161" lon="0.87243">
        <ele>431.4</ele>
        <time>2022-05-24 08:49:25</time>
      </trkpt>
      <trkpt lat="41.21608" lon="0.87243">
        <ele>431.6</ele>
        <time>2022-05-24 08:49:26</time>
      </trkpt>
      <trkpt lat="41.21606" lon="0.87243">
        <ele>431.6</ele>
        <time>2022-05-24 08:49:27</time>
      </trkpt>
      <trkpt lat="41.21603" lon="0.87243">
        <ele>431.6</ele>
        <time>2022-05-24 08:49:28</time>
      </trkpt>
      <trkpt lat="41.21601" lon="0.87242">
        <ele>431.8</ele>
        <time>2022-05-24 08:49:29</time>
      </trkpt>
      <trkpt lat="41.21598" lon="0.87242">
        <ele>431.8</ele>
        <time>2022-05-24 08:49:30</time>
      </trkpt>
      <trkpt lat="41.21595" lon="0.87241">
        <ele>432</ele>
        <time>2022-05-24 08:49:31</time>
      </trkpt>
      <trkpt lat="41.21593" lon="0.87241">
        <ele>432</ele>
        <time>2022-05-24 08:49:32</time>
      </trkpt>
      <trkpt lat="41.2159" lon="0.87241">
        <ele>432</ele>
        <time>2022-05-24 08:49:33</time>
      </trkpt>
      <trkpt lat="41.21588" lon="0.8724">
        <ele>432.2</ele>
        <time>2022-05-24 08:49:34</time>
      </trkpt>
      <trkpt lat="41.21586" lon="0.8724">
        <ele>432.2</ele>
        <time>2022-05-24 08:49:35</time>
      </trkpt>
      <trkpt lat="41.21584" lon="0.8724">
        <ele>432.4</ele>
        <time>2022-05-24 08:49:36</time>
      </trkpt>
      <trkpt lat="41.21581" lon="0.8724">
        <ele>432.4</ele>
        <time>2022-05-24 08:49:37</time>
      </trkpt>
      <trkpt lat="41.21579" lon="0.87241">
        <ele>432.6</ele>
        <time>2022-05-24 08:49:38</time>
      </trkpt>
      <trkpt lat="41.21576" lon="0.87242">
        <ele>432.6</ele>
        <time>2022-05-24 08:49:39</time>
      </trkpt>
      <trkpt lat="41.21574" lon="0.87243">
        <ele>432.8</ele>
        <time>2022-05-24 08:49:40</time>
      </trkpt>
      <trkpt lat="41.21571" lon="0.87243">
        <ele>432.8</ele>
        <time>2022-05-24 08:49:41</time>
      </trkpt>
      <trkpt lat="41.21569" lon="0.87244">
        <ele>433</ele>
        <time>2022-05-24 08:49:42</time>
      </trkpt>
      <trkpt lat="41.21567" lon="0.87244">
        <ele>433</ele>
        <time>2022-05-24 08:49:43</time>
      </trkpt>
      <trkpt lat="41.21565" lon="0.87245">
        <ele>433.2</ele>
        <time>2022-05-24 08:49:44</time>
      </trkpt>
      <trkpt lat="41.21562" lon="0.87246">
        <ele>433.2</ele>
        <time>2022-05-24 08:49:45</time>
      </trkpt>
      <trkpt lat="41.2156" lon="0.87247">
        <ele>433.4</ele>
        <time>2022-05-24 08:49:46</time>
      </trkpt>
      <trkpt lat="41.21557" lon="0.87249">
        <ele>433.4</ele>
        <time>2022-05-24 08:49:47</time>
      </trkpt>
      <trkpt lat="41.21555" lon="0.8725">
        <ele>433.6</ele>
        <time>2022-05-24 08:49:48</time>
      </trkpt>
      <trkpt lat="41.21553" lon="0.87251">
        <ele>433.6</ele>
        <time>2022-05-24 08:49:49</time>
      </trkpt>
      <trkpt lat="41.2155" lon="0.87253">
        <ele>433.8</ele>
        <time>2022-05-24 08:49:50</time>
      </trkpt>
      <trkpt lat="41.21548" lon="0.87255">
        <ele>433.8</ele>
        <time>2022-05-24 08:49:51</time>
      </trkpt>
      <trkpt lat="41.21547" lon="0.87257">
        <ele>434</ele>
        <time>2022-05-24 08:49:52</time>
      </trkpt>
      <trkpt lat="41.21545" lon="0.8726">
        <ele>434</ele>
        <time>2022-05-24 08:49:53</time>
      </trkpt>
      <trkpt lat="41.21543" lon="0.87262">
        <ele>434.2</ele>
        <time>2022-05-24 08:49:54</time>
      </trkpt>
      <trkpt lat="41.21541" lon="0.87264">
        <ele>434.2</ele>
        <time>2022-05-24 08:49:55</time>
      </trkpt>
      <trkpt lat="41.21539" lon="0.87265">
        <ele>434.2</ele>
        <time>2022-05-24 08:49:56</time>
      </trkpt>
      <trkpt lat="41.21537" lon="0.87268">
        <ele>434.4</ele>
        <time>2022-05-24 08:49:57</time>
      </trkpt>
      <trkpt lat="41.21535" lon="0.8727">
        <ele>434.4</ele>
        <time>2022-05-24 08:49:58</time>
      </trkpt>
      <trkpt lat="41.21534" lon="0.87271">
        <ele>434.6</ele>
        <time>2022-05-24 08:49:59</time>
      </trkpt>
      <trkpt lat="41.21532" lon="0.87273">
        <ele>434.6</ele>
        <time>2022-05-24 08:50:00</time>
      </trkpt>
      <trkpt lat="41.2153" lon="0.87275">
        <ele>434.6</ele>
        <time>2022-05-24 08:50:01</time>
      </trkpt>
      <trkpt lat="41.21528" lon="0.87277">
        <ele>434.8</ele>
        <time>2022-05-24 08:50:02</time>
      </trkpt>
      <trkpt lat="41.21526" lon="0.87279">
        <ele>434.8</ele>
        <time>2022-05-24 08:50:03</time>
      </trkpt>
      <trkpt lat="41.21524" lon="0.87281">
        <ele>435</ele>
        <time>2022-05-24 08:50:04</time>
      </trkpt>
      <trkpt lat="41.21523" lon="0.87283">
        <ele>435</ele>
        <time>2022-05-24 08:50:05</time>
      </trkpt>
      <trkpt lat="41.21521" lon="0.87285">
        <ele>435.2</ele>
        <time>2022-05-24 08:50:06</time>
      </trkpt>
      <trkpt lat="41.21519" lon="0.87287">
        <ele>435.2</ele>
        <time>2022-05-24 08:50:07</time>
      </trkpt>
      <trkpt lat="41.21517" lon="0.87289">
        <ele>435.4</ele>
        <time>2022-05-24 08:50:08</time>
      </trkpt>
      <trkpt lat="41.21516" lon="0.87291">
        <ele>435.4</ele>
        <time>2022-05-24 08:50:09</time>
      </trkpt>
      <trkpt lat="41.21514" lon="0.87293">
        <ele>435.6</ele>
        <time>2022-05-24 08:50:10</time>
      </trkpt>
      <trkpt lat="41.21513" lon="0.87294">
        <ele>435.6</ele>
        <time>2022-05-24 08:50:11</time>
      </trkpt>
      <trkpt lat="41.21512" lon="0.87296">
        <ele>435.8</ele>
        <time>2022-05-24 08:50:12</time>
      </trkpt>
      <trkpt lat="41.2151" lon="0.87298">
        <ele>435.8</ele>
        <time>2022-05-24 08:50:13</time>
      </trkpt>
      <trkpt lat="41.21508" lon="0.873">
        <ele>436</ele>
        <time>2022-05-24 08:50:14</time>
      </trkpt>
      <trkpt lat="41.21507" lon="0.87302">
        <ele>436</ele>
        <time>2022-05-24 08:50:15</time>
      </trkpt>
      <trkpt lat="41.21506" lon="0.87304">
        <ele>436.2</ele>
        <time>2022-05-24 08:50:16</time>
      </trkpt>
      <trkpt lat="41.21504" lon="0.87305">
        <ele>436.2</ele>
        <time>2022-05-24 08:50:17</time>
      </trkpt>
      <trkpt lat="41.21503" lon="0.87307">
        <ele>436.2</ele>
        <time>2022-05-24 08:50:18</time>
      </trkpt>
      <trkpt lat="41.21501" lon="0.87309">
        <ele>436.4</ele>
        <time>2022-05-24 08:50:19</time>
      </trkpt>
      <trkpt lat="41.215" lon="0.87311">
        <ele>436.4</ele>
        <time>2022-05-24 08:50:20</time>
      </trkpt>
      <trkpt lat="41.21498" lon="0.87313">
        <ele>436.6</ele>
        <time>2022-05-24 08:50:21</time>
      </trkpt>
      <trkpt lat="41.21497" lon="0.87314">
        <ele>436.6</ele>
        <time>2022-05-24 08:50:22</time>
      </trkpt>
      <trkpt lat="41.21495" lon="0.87316">
        <ele>436.8</ele>
        <time>2022-05-24 08:50:23</time>
      </trkpt>
      <trkpt lat="41.21493" lon="0.87318">
        <ele>436.8</ele>
        <time>2022-05-24 08:50:24</time>
      </trkpt>
      <trkpt lat="41.21492" lon="0.87319">
        <ele>437</ele>
        <time>2022-05-24 08:50:25</time>
      </trkpt>
      <trkpt lat="41.2149" lon="0.87321">
        <ele>437</ele>
        <time>2022-05-24 08:50:26</time>
      </trkpt>
      <trkpt lat="41.21489" lon="0.87323">
        <ele>437.2</ele>
        <time>2022-05-24 08:50:27</time>
      </trkpt>
      <trkpt lat="41.21487" lon="0.87324">
        <ele>437.2</ele>
        <time>2022-05-24 08:50:28</time>
      </trkpt>
      <trkpt lat="41.21486" lon="0.87327">
        <ele>437.4</ele>
        <time>2022-05-24 08:50:29</time>
      </trkpt>
      <trkpt lat="41.21485" lon="0.87328">
        <ele>437.4</ele>
        <time>2022-05-24 08:50:30</time>
      </trkpt>
      <trkpt lat="41.21484" lon="0.8733">
        <ele>437.6</ele>
        <time>2022-05-24 08:50:31</time>
      </trkpt>
      <trkpt lat="41.21482" lon="0.87331">
        <ele>437.8</ele>
        <time>2022-05-24 08:50:32</time>
      </trkpt>
      <trkpt lat="41.2148" lon="0.87333">
        <ele>437.8</ele>
        <time>2022-05-24 08:50:33</time>
      </trkpt>
      <trkpt lat="41.21478" lon="0.87334">
        <ele>438</ele>
        <time>2022-05-24 08:50:34</time>
      </trkpt>
      <trkpt lat="41.21476" lon="0.87336">
        <ele>438</ele>
        <time>2022-05-24 08:50:35</time>
      </trkpt>
      <trkpt lat="41.21475" lon="0.87337">
        <ele>438.2</ele>
        <time>2022-05-24 08:50:36</time>
      </trkpt>
      <trkpt lat="41.21473" lon="0.87339">
        <ele>438.2</ele>
        <time>2022-05-24 08:50:37</time>
      </trkpt>
      <trkpt lat="41.21472" lon="0.8734">
        <ele>438.4</ele>
        <time>2022-05-24 08:50:38</time>
      </trkpt>
      <trkpt lat="41.2147" lon="0.87342">
        <ele>438.6</ele>
        <time>2022-05-24 08:50:39</time>
      </trkpt>
      <trkpt lat="41.21468" lon="0.87343">
        <ele>438.6</ele>
        <time>2022-05-24 08:50:40</time>
      </trkpt>
      <trkpt lat="41.21466" lon="0.87345">
        <ele>438.8</ele>
        <time>2022-05-24 08:50:41</time>
      </trkpt>
      <trkpt lat="41.21465" lon="0.87346">
        <ele>439</ele>
        <time>2022-05-24 08:50:42</time>
      </trkpt>
      <trkpt lat="41.21463" lon="0.87348">
        <ele>439</ele>
        <time>2022-05-24 08:50:43</time>
      </trkpt>
      <trkpt lat="41.21461" lon="0.87349">
        <ele>439.2</ele>
        <time>2022-05-24 08:50:44</time>
      </trkpt>
      <trkpt lat="41.2146" lon="0.87351">
        <ele>439.2</ele>
        <time>2022-05-24 08:50:45</time>
      </trkpt>
      <trkpt lat="41.21458" lon="0.87352">
        <ele>439.4</ele>
        <time>2022-05-24 08:50:46</time>
      </trkpt>
      <trkpt lat="41.21457" lon="0.87354">
        <ele>439.6</ele>
        <time>2022-05-24 08:50:47</time>
      </trkpt>
      <trkpt lat="41.21455" lon="0.87355">
        <ele>439.6</ele>
        <time>2022-05-24 08:50:48</time>
      </trkpt>
      <trkpt lat="41.21453" lon="0.87356">
        <ele>439.8</ele>
        <time>2022-05-24 08:50:49</time>
      </trkpt>
      <trkpt lat="41.21452" lon="0.87358">
        <ele>440</ele>
        <time>2022-05-24 08:50:50</time>
      </trkpt>
      <trkpt lat="41.2145" lon="0.87359">
        <ele>440.2</ele>
        <time>2022-05-24 08:50:51</time>
      </trkpt>
      <trkpt lat="41.21449" lon="0.8736">
        <ele>440.2</ele>
        <time>2022-05-24 08:50:52</time>
      </trkpt>
      <trkpt lat="41.21447" lon="0.87361">
        <ele>440.4</ele>
        <time>2022-05-24 08:50:53</time>
      </trkpt>
      <trkpt lat="41.21445" lon="0.87363">
        <ele>440.6</ele>
        <time>2022-05-24 08:50:54</time>
      </trkpt>
      <trkpt lat="41.21444" lon="0.87364">
        <ele>440.6</ele>
        <time>2022-05-24 08:50:55</time>
      </trkpt>
      <trkpt lat="41.21442" lon="0.87365">
        <ele>440.8</ele>
        <time>2022-05-24 08:50:56</time>
      </trkpt>
      <trkpt lat="41.2144" lon="0.87367">
        <ele>441</ele>
        <time>2022-05-24 08:50:57</time>
      </trkpt>
      <trkpt lat="41.21439" lon="0.87368">
        <ele>441.2</ele>
        <time>2022-05-24 08:50:58</time>
      </trkpt>
      <trkpt lat="41.21437" lon="0.87369">
        <ele>441.2</ele>
        <time>2022-05-24 08:50:59</time>
      </trkpt>
      <trkpt lat="41.21436" lon="0.87371">
        <ele>441.4</ele>
        <time>2022-05-24 08:51:00</time>
      </trkpt>
      <trkpt lat="41.21434" lon="0.87372">
        <ele>441.6</ele>
        <time>2022-05-24 08:51:01</time>
      </trkpt>
      <trkpt lat="41.21432" lon="0.87373">
        <ele>441.6</ele>
        <time>2022-05-24 08:51:02</time>
      </trkpt>
      <trkpt lat="41.21431" lon="0.87375">
        <ele>441.8</ele>
        <time>2022-05-24 08:51:03</time>
      </trkpt>
      <trkpt lat="41.21429" lon="0.87376">
        <ele>442</ele>
        <time>2022-05-24 08:51:04</time>
      </trkpt>
      <trkpt lat="41.21428" lon="0.87377">
        <ele>442.2</ele>
        <time>2022-05-24 08:51:05</time>
      </trkpt>
      <trkpt lat="41.21426" lon="0.87379">
        <ele>442.2</ele>
        <time>2022-05-24 08:51:06</time>
      </trkpt>
      <trkpt lat="41.21424" lon="0.8738">
        <ele>442.4</ele>
        <time>2022-05-24 08:51:07</time>
      </trkpt>
      <trkpt lat="41.21423" lon="0.87381">
        <ele>442.4</ele>
        <time>2022-05-24 08:51:08</time>
      </trkpt>
      <trkpt lat="41.21421" lon="0.87382">
        <ele>442.6</ele>
        <time>2022-05-24 08:51:09</time>
      </trkpt>
      <trkpt lat="41.21419" lon="0.87383">
        <ele>442.8</ele>
        <time>2022-05-24 08:51:10</time>
      </trkpt>
      <trkpt lat="41.21418" lon="0.87385">
        <ele>442.8</ele>
        <time>2022-05-24 08:51:11</time>
      </trkpt>
      <trkpt lat="41.21416" lon="0.87387">
        <ele>443</ele>
        <time>2022-05-24 08:51:12</time>
      </trkpt>
      <trkpt lat="41.21415" lon="0.87388">
        <ele>443.2</ele>
        <time>2022-05-24 08:51:13</time>
      </trkpt>
      <trkpt lat="41.21413" lon="0.8739">
        <ele>443.4</ele>
        <time>2022-05-24 08:51:14</time>
      </trkpt>
      <trkpt lat="41.21411" lon="0.87391">
        <ele>443.4</ele>
        <time>2022-05-24 08:51:15</time>
      </trkpt>
      <trkpt lat="41.21409" lon="0.87392">
        <ele>443.6</ele>
        <time>2022-05-24 08:51:16</time>
      </trkpt>
      <trkpt lat="41.21407" lon="0.87394">
        <ele>443.8</ele>
        <time>2022-05-24 08:51:17</time>
      </trkpt>
      <trkpt lat="41.21405" lon="0.87395">
        <ele>444</ele>
        <time>2022-05-24 08:51:18</time>
      </trkpt>
      <trkpt lat="41.21403" lon="0.87396">
        <ele>444.2</ele>
        <time>2022-05-24 08:51:19</time>
      </trkpt>
      <trkpt lat="41.21402" lon="0.87397">
        <ele>444.2</ele>
        <time>2022-05-24 08:51:20</time>
      </trkpt>
      <trkpt lat="41.214" lon="0.87399">
        <ele>444.4</ele>
        <time>2022-05-24 08:51:21</time>
      </trkpt>
      <trkpt lat="41.21399" lon="0.874">
        <ele>444.6</ele>
        <time>2022-05-24 08:51:22</time>
      </trkpt>
      <trkpt lat="41.21398" lon="0.87402">
        <ele>444.8</ele>
        <time>2022-05-24 08:51:23</time>
      </trkpt>
      <trkpt lat="41.21397" lon="0.87404">
        <ele>444.8</ele>
        <time>2022-05-24 08:51:24</time>
      </trkpt>
      <trkpt lat="41.21396" lon="0.87406">
        <ele>445</ele>
        <time>2022-05-24 08:51:25</time>
      </trkpt>
      <trkpt lat="41.21394" lon="0.87407">
        <ele>445.2</ele>
        <time>2022-05-24 08:51:26</time>
      </trkpt>
      <trkpt lat="41.21392" lon="0.87408">
        <ele>445.4</ele>
        <time>2022-05-24 08:51:27</time>
      </trkpt>
      <trkpt lat="41.2139" lon="0.87408">
        <ele>445.6</ele>
        <time>2022-05-24 08:51:28</time>
      </trkpt>
      <trkpt lat="41.21389" lon="0.87409">
        <ele>445.6</ele>
        <time>2022-05-24 08:51:29</time>
      </trkpt>
      <trkpt lat="41.21387" lon="0.8741">
        <ele>445.8</ele>
        <time>2022-05-24 08:51:30</time>
      </trkpt>
      <trkpt lat="41.21385" lon="0.87411">
        <ele>446</ele>
        <time>2022-05-24 08:51:31</time>
      </trkpt>
      <trkpt lat="41.21383" lon="0.87412">
        <ele>446.2</ele>
        <time>2022-05-24 08:51:32</time>
      </trkpt>
      <trkpt lat="41.21382" lon="0.87413">
        <ele>446.2</ele>
        <time>2022-05-24 08:51:33</time>
      </trkpt>
      <trkpt lat="41.2138" lon="0.87413">
        <ele>446.4</ele>
        <time>2022-05-24 08:51:34</time>
      </trkpt>
      <trkpt lat="41.21378" lon="0.87414">
        <ele>446.4</ele>
        <time>2022-05-24 08:51:35</time>
      </trkpt>
      <trkpt lat="41.21376" lon="0.87414">
        <ele>446.6</ele>
        <time>2022-05-24 08:51:36</time>
      </trkpt>
      <trkpt lat="41.21375" lon="0.87415">
        <ele>446.8</ele>
        <time>2022-05-24 08:51:37</time>
      </trkpt>
      <trkpt lat="41.21373" lon="0.87415">
        <ele>446.8</ele>
        <time>2022-05-24 08:51:38</time>
      </trkpt>
      <trkpt lat="41.21371" lon="0.87416">
        <ele>447</ele>
        <time>2022-05-24 08:51:39</time>
      </trkpt>
      <trkpt lat="41.21369" lon="0.87416">
        <ele>447.2</ele>
        <time>2022-05-24 08:51:40</time>
      </trkpt>
      <trkpt lat="41.21367" lon="0.87415">
        <ele>447.4</ele>
        <time>2022-05-24 08:51:41</time>
      </trkpt>
      <trkpt lat="41.21365" lon="0.87415">
        <ele>447.4</ele>
        <time>2022-05-24 08:51:42</time>
      </trkpt>
      <trkpt lat="41.21364" lon="0.87414">
        <ele>447.6</ele>
        <time>2022-05-24 08:51:43</time>
      </trkpt>
      <trkpt lat="41.21362" lon="0.87413">
        <ele>447.8</ele>
        <time>2022-05-24 08:51:44</time>
      </trkpt>
      <trkpt lat="41.2136" lon="0.87412">
        <ele>448</ele>
        <time>2022-05-24 08:51:45</time>
      </trkpt>
      <trkpt lat="41.21358" lon="0.87411">
        <ele>448</ele>
        <time>2022-05-24 08:51:46</time>
      </trkpt>
      <trkpt lat="41.21357" lon="0.8741">
        <ele>448.2</ele>
        <time>2022-05-24 08:51:47</time>
      </trkpt>
      <trkpt lat="41.21355" lon="0.87409">
        <ele>448.4</ele>
        <time>2022-05-24 08:51:48</time>
      </trkpt>
      <trkpt lat="41.21354" lon="0.87408">
        <ele>448.6</ele>
        <time>2022-05-24 08:51:49</time>
      </trkpt>
      <trkpt lat="41.21352" lon="0.87407">
        <ele>448.8</ele>
        <time>2022-05-24 08:51:50</time>
      </trkpt>
      <trkpt lat="41.21351" lon="0.87405">
        <ele>449</ele>
        <time>2022-05-24 08:51:51</time>
      </trkpt>
      <trkpt lat="41.21349" lon="0.87404">
        <ele>449.2</ele>
        <time>2022-05-24 08:51:52</time>
      </trkpt>
      <trkpt lat="41.21348" lon="0.87402">
        <ele>449.4</ele>
        <time>2022-05-24 08:51:53</time>
      </trkpt>
      <trkpt lat="41.21348" lon="0.87399">
        <ele>449.6</ele>
        <time>2022-05-24 08:51:54</time>
      </trkpt>
      <trkpt lat="41.21347" lon="0.87397">
        <ele>449.6</ele>
        <time>2022-05-24 08:51:55</time>
      </trkpt>
      <trkpt lat="41.21346" lon="0.87395">
        <ele>449.8</ele>
        <time>2022-05-24 08:51:56</time>
      </trkpt>
      <trkpt lat="41.21344" lon="0.87393">
        <ele>450</ele>
        <time>2022-05-24 08:51:57</time>
      </trkpt>
      <trkpt lat="41.21343" lon="0.87391">
        <ele>450.2</ele>
        <time>2022-05-24 08:51:58</time>
      </trkpt>
      <trkpt lat="41.21343" lon="0.87389">
        <ele>450.4</ele>
        <time>2022-05-24 08:51:59</time>
      </trkpt>
      <trkpt lat="41.21343" lon="0.87387">
        <ele>450.6</ele>
        <time>2022-05-24 08:52:00</time>
      </trkpt>
      <trkpt lat="41.21343" lon="0.87385">
        <ele>450.8</ele>
        <time>2022-05-24 08:52:01</time>
      </trkpt>
      <trkpt lat="41.21343" lon="0.87382">
        <ele>450.8</ele>
        <time>2022-05-24 08:52:02</time>
      </trkpt>
      <trkpt lat="41.21343" lon="0.8738">
        <ele>451</ele>
        <time>2022-05-24 08:52:03</time>
      </trkpt>
      <trkpt lat="41.21343" lon="0.87378">
        <ele>451.2</ele>
        <time>2022-05-24 08:52:04</time>
      </trkpt>
      <trkpt lat="41.21343" lon="0.87376">
        <ele>451.4</ele>
        <time>2022-05-24 08:52:05</time>
      </trkpt>
      <trkpt lat="41.21343" lon="0.87374">
        <ele>451.6</ele>
        <time>2022-05-24 08:52:06</time>
      </trkpt>
      <trkpt lat="41.21344" lon="0.87371">
        <ele>451.8</ele>
        <time>2022-05-24 08:52:07</time>
      </trkpt>
      <trkpt lat="41.21344" lon="0.87369">
        <ele>452</ele>
        <time>2022-05-24 08:52:08</time>
      </trkpt>
      <trkpt lat="41.21345" lon="0.87367">
        <ele>452</ele>
        <time>2022-05-24 08:52:09</time>
      </trkpt>
      <trkpt lat="41.21345" lon="0.87365">
        <ele>452.2</ele>
        <time>2022-05-24 08:52:10</time>
      </trkpt>
      <trkpt lat="41.21346" lon="0.87363">
        <ele>452.4</ele>
        <time>2022-05-24 08:52:11</time>
      </trkpt>
      <trkpt lat="41.21346" lon="0.87362">
        <ele>452.6</ele>
        <time>2022-05-24 08:52:12</time>
      </trkpt>
      <trkpt lat="41.21346" lon="0.87359">
        <ele>452.8</ele>
        <time>2022-05-24 08:52:13</time>
      </trkpt>
      <trkpt lat="41.21347" lon="0.87358">
        <ele>453</ele>
        <time>2022-05-24 08:52:14</time>
      </trkpt>
      <trkpt lat="41.21347" lon="0.87355">
        <ele>453</ele>
        <time>2022-05-24 08:52:15</time>
      </trkpt>
      <trkpt lat="41.21347" lon="0.87353">
        <ele>453.2</ele>
        <time>2022-05-24 08:52:16</time>
      </trkpt>
      <trkpt lat="41.21348" lon="0.87351">
        <ele>453.4</ele>
        <time>2022-05-24 08:52:17</time>
      </trkpt>
      <trkpt lat="41.21348" lon="0.87349">
        <ele>453.6</ele>
        <time>2022-05-24 08:52:18</time>
      </trkpt>
      <trkpt lat="41.21349" lon="0.87347">
        <ele>454</ele>
        <time>2022-05-24 08:52:19</time>
      </trkpt>
      <trkpt lat="41.21349" lon="0.87345">
        <ele>454.2</ele>
        <time>2022-05-24 08:52:20</time>
      </trkpt>
      <trkpt lat="41.2135" lon="0.87343">
        <ele>454.4</ele>
        <time>2022-05-24 08:52:21</time>
      </trkpt>
      <trkpt lat="41.2135" lon="0.87341">
        <ele>454.6</ele>
        <time>2022-05-24 08:52:22</time>
      </trkpt>
      <trkpt lat="41.21351" lon="0.87338">
        <ele>454.8</ele>
        <time>2022-05-24 08:52:23</time>
      </trkpt>
      <trkpt lat="41.21352" lon="0.87336">
        <ele>455</ele>
        <time>2022-05-24 08:52:24</time>
      </trkpt>
      <trkpt lat="41.21352" lon="0.87334">
        <ele>455.2</ele>
        <time>2022-05-24 08:52:25</time>
      </trkpt>
      <trkpt lat="41.21353" lon="0.87332">
        <ele>455.4</ele>
        <time>2022-05-24 08:52:26</time>
      </trkpt>
      <trkpt lat="41.21353" lon="0.8733">
        <ele>455.4</ele>
        <time>2022-05-24 08:52:27</time>
      </trkpt>
      <trkpt lat="41.21354" lon="0.87328">
        <ele>455.6</ele>
        <time>2022-05-24 08:52:28</time>
      </trkpt>
      <trkpt lat="41.21355" lon="0.87326">
        <ele>456</ele>
        <time>2022-05-24 08:52:29</time>
      </trkpt>
      <trkpt lat="41.21356" lon="0.87324">
        <ele>456.2</ele>
        <time>2022-05-24 08:52:30</time>
      </trkpt>
      <trkpt lat="41.21357" lon="0.87322">
        <ele>456.4</ele>
        <time>2022-05-24 08:52:31</time>
      </trkpt>
      <trkpt lat="41.21358" lon="0.8732">
        <ele>456.4</ele>
        <time>2022-05-24 08:52:32</time>
      </trkpt>
      <trkpt lat="41.21359" lon="0.87318">
        <ele>456.8</ele>
        <time>2022-05-24 08:52:33</time>
      </trkpt>
      <trkpt lat="41.2136" lon="0.87316">
        <ele>457</ele>
        <time>2022-05-24 08:52:34</time>
      </trkpt>
      <trkpt lat="41.21361" lon="0.87314">
        <ele>457</ele>
        <time>2022-05-24 08:52:35</time>
      </trkpt>
      <trkpt lat="41.21362" lon="0.87312">
        <ele>457.2</ele>
        <time>2022-05-24 08:52:36</time>
      </trkpt>
      <trkpt lat="41.21363" lon="0.8731">
        <ele>457.4</ele>
        <time>2022-05-24 08:52:37</time>
      </trkpt>
      <trkpt lat="41.21365" lon="0.87309">
        <ele>457.6</ele>
        <time>2022-05-24 08:52:38</time>
      </trkpt>
      <trkpt lat="41.21366" lon="0.87307">
        <ele>457.8</ele>
        <time>2022-05-24 08:52:39</time>
      </trkpt>
      <trkpt lat="41.21367" lon="0.87306">
        <ele>458</ele>
        <time>2022-05-24 08:52:40</time>
      </trkpt>
      <trkpt lat="41.21368" lon="0.87305">
        <ele>458</ele>
        <time>2022-05-24 08:52:41</time>
      </trkpt>
      <trkpt lat="41.21369" lon="0.87303">
        <ele>458.2</ele>
        <time>2022-05-24 08:52:42</time>
      </trkpt>
      <trkpt lat="41.21371" lon="0.87302">
        <ele>458.4</ele>
        <time>2022-05-24 08:52:43</time>
      </trkpt>
      <trkpt lat="41.21372" lon="0.87301">
        <ele>458.4</ele>
        <time>2022-05-24 08:52:44</time>
      </trkpt>
      <trkpt lat="41.21374" lon="0.87299">
        <ele>458.6</ele>
        <time>2022-05-24 08:52:45</time>
      </trkpt>
      <trkpt lat="41.21375" lon="0.87298">
        <ele>458.8</ele>
        <time>2022-05-24 08:52:46</time>
      </trkpt>
      <trkpt lat="41.21376" lon="0.87297">
        <ele>459</ele>
        <time>2022-05-24 08:52:47</time>
      </trkpt>
      <trkpt lat="41.21377" lon="0.87295">
        <ele>459.2</ele>
        <time>2022-05-24 08:52:48</time>
      </trkpt>
      <trkpt lat="41.21378" lon="0.87294">
        <ele>459.4</ele>
        <time>2022-05-24 08:52:49</time>
      </trkpt>
      <trkpt lat="41.2138" lon="0.87292">
        <ele>459.6</ele>
        <time>2022-05-24 08:52:50</time>
      </trkpt>
      <trkpt lat="41.21381" lon="0.87291">
        <ele>459.8</ele>
        <time>2022-05-24 08:52:51</time>
      </trkpt>
      <trkpt lat="41.21383" lon="0.8729">
        <ele>460</ele>
        <time>2022-05-24 08:52:52</time>
      </trkpt>
      <trkpt lat="41.21384" lon="0.87289">
        <ele>460</ele>
        <time>2022-05-24 08:52:53</time>
      </trkpt>
      <trkpt lat="41.21386" lon="0.87288">
        <ele>460.2</ele>
        <time>2022-05-24 08:52:54</time>
      </trkpt>
      <trkpt lat="41.21387" lon="0.87286">
        <ele>460.4</ele>
        <time>2022-05-24 08:52:55</time>
      </trkpt>
      <trkpt lat="41.21388" lon="0.87285">
        <ele>460.6</ele>
        <time>2022-05-24 08:52:56</time>
      </trkpt>
      <trkpt lat="41.21389" lon="0.87284">
        <ele>460.8</ele>
        <time>2022-05-24 08:52:57</time>
      </trkpt>
      <trkpt lat="41.21391" lon="0.87282">
        <ele>461</ele>
        <time>2022-05-24 08:52:58</time>
      </trkpt>
      <trkpt lat="41.21392" lon="0.87281">
        <ele>461.2</ele>
        <time>2022-05-24 08:52:59</time>
      </trkpt>
      <trkpt lat="41.21394" lon="0.8728">
        <ele>461.4</ele>
        <time>2022-05-24 08:53:00</time>
      </trkpt>
      <trkpt lat="41.21395" lon="0.87279">
        <ele>461.6</ele>
        <time>2022-05-24 08:53:01</time>
      </trkpt>
      <trkpt lat="41.21396" lon="0.87278">
        <ele>461.8</ele>
        <time>2022-05-24 08:53:02</time>
      </trkpt>
      <trkpt lat="41.21398" lon="0.87277">
        <ele>461.8</ele>
        <time>2022-05-24 08:53:03</time>
      </trkpt>
      <trkpt lat="41.21399" lon="0.87276">
        <ele>462</ele>
        <time>2022-05-24 08:53:04</time>
      </trkpt>
      <trkpt lat="41.214" lon="0.87274">
        <ele>462.2</ele>
        <time>2022-05-24 08:53:05</time>
      </trkpt>
      <trkpt lat="41.21401" lon="0.87273">
        <ele>462.4</ele>
        <time>2022-05-24 08:53:06</time>
      </trkpt>
      <trkpt lat="41.21402" lon="0.87271">
        <ele>462.6</ele>
        <time>2022-05-24 08:53:07</time>
      </trkpt>
      <trkpt lat="41.21404" lon="0.8727">
        <ele>462.8</ele>
        <time>2022-05-24 08:53:08</time>
      </trkpt>
      <trkpt lat="41.21405" lon="0.87268">
        <ele>463</ele>
        <time>2022-05-24 08:53:09</time>
      </trkpt>
      <trkpt lat="41.21406" lon="0.87266">
        <ele>463</ele>
        <time>2022-05-24 08:53:10</time>
      </trkpt>
      <trkpt lat="41.21407" lon="0.87264">
        <ele>463.2</ele>
        <time>2022-05-24 08:53:11</time>
      </trkpt>
      <trkpt lat="41.21408" lon="0.87262">
        <ele>463.4</ele>
        <time>2022-05-24 08:53:12</time>
      </trkpt>
      <trkpt lat="41.21409" lon="0.8726">
        <ele>463.6</ele>
        <time>2022-05-24 08:53:13</time>
      </trkpt>
      <trkpt lat="41.2141" lon="0.87259">
        <ele>463.8</ele>
        <time>2022-05-24 08:53:14</time>
      </trkpt>
      <trkpt lat="41.21412" lon="0.87258">
        <ele>464</ele>
        <time>2022-05-24 08:53:15</time>
      </trkpt>
      <trkpt lat="41.21413" lon="0.87256">
        <ele>464.2</ele>
        <time>2022-05-24 08:53:16</time>
      </trkpt>
      <trkpt lat="41.21413" lon="0.87254">
        <ele>464.4</ele>
        <time>2022-05-24 08:53:17</time>
      </trkpt>
      <trkpt lat="41.21413" lon="0.87252">
        <ele>464.6</ele>
        <time>2022-05-24 08:53:18</time>
      </trkpt>
      <trkpt lat="41.21414" lon="0.8725">
        <ele>464.8</ele>
        <time>2022-05-24 08:53:19</time>
      </trkpt>
      <trkpt lat="41.21414" lon="0.87247">
        <ele>464.8</ele>
        <time>2022-05-24 08:53:20</time>
      </trkpt>
      <trkpt lat="41.21415" lon="0.87245">
        <ele>465</ele>
        <time>2022-05-24 08:53:21</time>
      </trkpt>
      <trkpt lat="41.21415" lon="0.87243">
        <ele>465.2</ele>
        <time>2022-05-24 08:53:22</time>
      </trkpt>
      <trkpt lat="41.21416" lon="0.87241">
        <ele>465.4</ele>
        <time>2022-05-24 08:53:23</time>
      </trkpt>
      <trkpt lat="41.21416" lon="0.87239">
        <ele>465.6</ele>
        <time>2022-05-24 08:53:24</time>
      </trkpt>
      <trkpt lat="41.21416" lon="0.87237">
        <ele>465.8</ele>
        <time>2022-05-24 08:53:25</time>
      </trkpt>
      <trkpt lat="41.21416" lon="0.87235">
        <ele>465.8</ele>
        <time>2022-05-24 08:53:26</time>
      </trkpt>
      <trkpt lat="41.21415" lon="0.87232">
        <ele>466</ele>
        <time>2022-05-24 08:53:27</time>
      </trkpt>
      <trkpt lat="41.21415" lon="0.87231">
        <ele>466.2</ele>
        <time>2022-05-24 08:53:28</time>
      </trkpt>
      <trkpt lat="41.21414" lon="0.87229">
        <ele>466.2</ele>
        <time>2022-05-24 08:53:29</time>
      </trkpt>
      <trkpt lat="41.21413" lon="0.87227">
        <ele>466.4</ele>
        <time>2022-05-24 08:53:30</time>
      </trkpt>
      <trkpt lat="41.21413" lon="0.87224">
        <ele>466.6</ele>
        <time>2022-05-24 08:53:31</time>
      </trkpt>
      <trkpt lat="41.21413" lon="0.87222">
        <ele>466.8</ele>
        <time>2022-05-24 08:53:32</time>
      </trkpt>
      <trkpt lat="41.21413" lon="0.8722">
        <ele>467</ele>
        <time>2022-05-24 08:53:33</time>
      </trkpt>
      <trkpt lat="41.21413" lon="0.87218">
        <ele>467.2</ele>
        <time>2022-05-24 08:53:34</time>
      </trkpt>
      <trkpt lat="41.21412" lon="0.87216">
        <ele>467.2</ele>
        <time>2022-05-24 08:53:35</time>
      </trkpt>
      <trkpt lat="41.21412" lon="0.87214">
        <ele>467.4</ele>
        <time>2022-05-24 08:53:36</time>
      </trkpt>
      <trkpt lat="41.21411" lon="0.87212">
        <ele>467.6</ele>
        <time>2022-05-24 08:53:37</time>
      </trkpt>
      <trkpt lat="41.2141" lon="0.8721">
        <ele>467.8</ele>
        <time>2022-05-24 08:53:38</time>
      </trkpt>
      <trkpt lat="41.21409" lon="0.87208">
        <ele>468</ele>
        <time>2022-05-24 08:53:39</time>
      </trkpt>
      <trkpt lat="41.21408" lon="0.87206">
        <ele>468.2</ele>
        <time>2022-05-24 08:53:40</time>
      </trkpt>
      <trkpt lat="41.21407" lon="0.87205">
        <ele>468.4</ele>
        <time>2022-05-24 08:53:41</time>
      </trkpt>
      <trkpt lat="41.21406" lon="0.87203">
        <ele>468.6</ele>
        <time>2022-05-24 08:53:42</time>
      </trkpt>
      <trkpt lat="41.21405" lon="0.87201">
        <ele>468.8</ele>
        <time>2022-05-24 08:53:43</time>
      </trkpt>
      <trkpt lat="41.21405" lon="0.87199">
        <ele>468.8</ele>
        <time>2022-05-24 08:53:44</time>
      </trkpt>
      <trkpt lat="41.21404" lon="0.87197">
        <ele>469.2</ele>
        <time>2022-05-24 08:53:45</time>
      </trkpt>
      <trkpt lat="41.21403" lon="0.87195">
        <ele>469.2</ele>
        <time>2022-05-24 08:53:46</time>
      </trkpt>
      <trkpt lat="41.21403" lon="0.87194">
        <ele>469.4</ele>
        <time>2022-05-24 08:53:47</time>
      </trkpt>
      <trkpt lat="41.21402" lon="0.87192">
        <ele>469.6</ele>
        <time>2022-05-24 08:53:48</time>
      </trkpt>
      <trkpt lat="41.21401" lon="0.8719">
        <ele>469.8</ele>
        <time>2022-05-24 08:53:49</time>
      </trkpt>
      <trkpt lat="41.21401" lon="0.87189">
        <ele>470</ele>
        <time>2022-05-24 08:53:50</time>
      </trkpt>
      <trkpt lat="41.214" lon="0.87187">
        <ele>470.2</ele>
        <time>2022-05-24 08:53:51</time>
      </trkpt>
      <trkpt lat="41.21399" lon="0.87184">
        <ele>470.4</ele>
        <time>2022-05-24 08:53:52</time>
      </trkpt>
      <trkpt lat="41.21399" lon="0.87182">
        <ele>470.6</ele>
        <time>2022-05-24 08:53:53</time>
      </trkpt>
      <trkpt lat="41.21398" lon="0.8718">
        <ele>470.8</ele>
        <time>2022-05-24 08:53:54</time>
      </trkpt>
      <trkpt lat="41.21397" lon="0.87179">
        <ele>470.8</ele>
        <time>2022-05-24 08:53:55</time>
      </trkpt>
      <trkpt lat="41.21396" lon="0.87177">
        <ele>471.2</ele>
        <time>2022-05-24 08:53:56</time>
      </trkpt>
      <trkpt lat="41.21395" lon="0.87175">
        <ele>471.2</ele>
        <time>2022-05-24 08:53:57</time>
      </trkpt>
      <trkpt lat="41.21395" lon="0.87173">
        <ele>471.4</ele>
        <time>2022-05-24 08:53:58</time>
      </trkpt>
      <trkpt lat="41.21394" lon="0.87171">
        <ele>471.6</ele>
        <time>2022-05-24 08:53:59</time>
      </trkpt>
      <trkpt lat="41.21394" lon="0.87169">
        <ele>471.8</ele>
        <time>2022-05-24 08:54:00</time>
      </trkpt>
      <trkpt lat="41.21393" lon="0.87168">
        <ele>472</ele>
        <time>2022-05-24 08:54:01</time>
      </trkpt>
      <trkpt lat="41.21392" lon="0.87166">
        <ele>472.2</ele>
        <time>2022-05-24 08:54:02</time>
      </trkpt>
      <trkpt lat="41.21392" lon="0.87164">
        <ele>472.2</ele>
        <time>2022-05-24 08:54:03</time>
      </trkpt>
      <trkpt lat="41.21391" lon="0.87162">
        <ele>472.4</ele>
        <time>2022-05-24 08:54:04</time>
      </trkpt>
      <trkpt lat="41.2139" lon="0.87161">
        <ele>472.6</ele>
        <time>2022-05-24 08:54:05</time>
      </trkpt>
      <trkpt lat="41.21389" lon="0.87159">
        <ele>472.8</ele>
        <time>2022-05-24 08:54:06</time>
      </trkpt>
      <trkpt lat="41.21389" lon="0.87157">
        <ele>473</ele>
        <time>2022-05-24 08:54:07</time>
      </trkpt>
      <trkpt lat="41.21388" lon="0.87155">
        <ele>473</ele>
        <time>2022-05-24 08:54:08</time>
      </trkpt>
      <trkpt lat="41.21388" lon="0.87153">
        <ele>473.2</ele>
        <time>2022-05-24 08:54:09</time>
      </trkpt>
      <trkpt lat="41.21386" lon="0.87151">
        <ele>473.4</ele>
        <time>2022-05-24 08:54:10</time>
      </trkpt>
      <trkpt lat="41.21386" lon="0.8715">
        <ele>473.6</ele>
        <time>2022-05-24 08:54:11</time>
      </trkpt>
      <trkpt lat="41.21385" lon="0.87148">
        <ele>473.8</ele>
        <time>2022-05-24 08:54:12</time>
      </trkpt>
      <trkpt lat="41.21384" lon="0.87146">
        <ele>473.8</ele>
        <time>2022-05-24 08:54:13</time>
      </trkpt>
      <trkpt lat="41.21384" lon="0.87143">
        <ele>474</ele>
        <time>2022-05-24 08:54:14</time>
      </trkpt>
      <trkpt lat="41.21383" lon="0.87141">
        <ele>474.2</ele>
        <time>2022-05-24 08:54:15</time>
      </trkpt>
      <trkpt lat="41.21383" lon="0.87139">
        <ele>474.4</ele>
        <time>2022-05-24 08:54:16</time>
      </trkpt>
      <trkpt lat="41.21382" lon="0.87137">
        <ele>474.6</ele>
        <time>2022-05-24 08:54:17</time>
      </trkpt>
      <trkpt lat="41.21381" lon="0.87135">
        <ele>474.6</ele>
        <time>2022-05-24 08:54:18</time>
      </trkpt>
      <trkpt lat="41.2138" lon="0.87133">
        <ele>474.8</ele>
        <time>2022-05-24 08:54:19</time>
      </trkpt>
      <trkpt lat="41.2138" lon="0.87132">
        <ele>475</ele>
        <time>2022-05-24 08:54:20</time>
      </trkpt>
      <trkpt lat="41.21379" lon="0.8713">
        <ele>475</ele>
        <time>2022-05-24 08:54:21</time>
      </trkpt>
      <trkpt lat="41.21378" lon="0.87128">
        <ele>475.2</ele>
        <time>2022-05-24 08:54:22</time>
      </trkpt>
      <trkpt lat="41.21378" lon="0.87126">
        <ele>475.4</ele>
        <time>2022-05-24 08:54:23</time>
      </trkpt>
      <trkpt lat="41.21377" lon="0.87125">
        <ele>475.6</ele>
        <time>2022-05-24 08:54:24</time>
      </trkpt>
      <trkpt lat="41.21376" lon="0.87123">
        <ele>475.6</ele>
        <time>2022-05-24 08:54:25</time>
      </trkpt>
      <trkpt lat="41.21376" lon="0.87122">
        <ele>475.8</ele>
        <time>2022-05-24 08:54:26</time>
      </trkpt>
      <trkpt lat="41.21375" lon="0.8712">
        <ele>476</ele>
        <time>2022-05-24 08:54:27</time>
      </trkpt>
      <trkpt lat="41.21374" lon="0.87119">
        <ele>476</ele>
        <time>2022-05-24 08:54:28</time>
      </trkpt>
      <trkpt lat="41.21373" lon="0.87117">
        <ele>476.4</ele>
        <time>2022-05-24 08:54:29</time>
      </trkpt>
      <trkpt lat="41.21371" lon="0.87116">
        <ele>476.6</ele>
        <time>2022-05-24 08:54:30</time>
      </trkpt>
      <trkpt lat="41.2137" lon="0.87114">
        <ele>476.8</ele>
        <time>2022-05-24 08:54:31</time>
      </trkpt>
      <trkpt lat="41.2137" lon="0.87113">
        <ele>477</ele>
        <time>2022-05-24 08:54:32</time>
      </trkpt>
      <trkpt lat="41.2137" lon="0.87111">
        <ele>477</ele>
        <time>2022-05-24 08:54:33</time>
      </trkpt>
      <trkpt lat="41.21369" lon="0.87109">
        <ele>477.2</ele>
        <time>2022-05-24 08:54:34</time>
      </trkpt>
      <trkpt lat="41.21368" lon="0.87108">
        <ele>477.4</ele>
        <time>2022-05-24 08:54:35</time>
      </trkpt>
      <trkpt lat="41.21367" lon="0.87107">
        <ele>477.6</ele>
        <time>2022-05-24 08:54:36</time>
      </trkpt>
      <trkpt lat="41.21366" lon="0.87105">
        <ele>477.8</ele>
        <time>2022-05-24 08:54:37</time>
      </trkpt>
      <trkpt lat="41.21365" lon="0.87103">
        <ele>477.8</ele>
        <time>2022-05-24 08:54:38</time>
      </trkpt>
      <trkpt lat="41.21365" lon="0.87101">
        <ele>478</ele>
        <time>2022-05-24 08:54:39</time>
      </trkpt>
      <trkpt lat="41.21364" lon="0.87099">
        <ele>478.2</ele>
        <time>2022-05-24 08:54:40</time>
      </trkpt>
      <trkpt lat="41.21364" lon="0.87097">
        <ele>478.4</ele>
        <time>2022-05-24 08:54:41</time>
      </trkpt>
      <trkpt lat="41.21363" lon="0.87096">
        <ele>478.4</ele>
        <time>2022-05-24 08:54:42</time>
      </trkpt>
      <trkpt lat="41.21362" lon="0.87094">
        <ele>478.6</ele>
        <time>2022-05-24 08:54:43</time>
      </trkpt>
      <trkpt lat="41.21361" lon="0.87092">
        <ele>478.8</ele>
        <time>2022-05-24 08:54:44</time>
      </trkpt>
      <trkpt lat="41.2136" lon="0.8709">
        <ele>478.8</ele>
        <time>2022-05-24 08:54:45</time>
      </trkpt>
      <trkpt lat="41.21359" lon="0.87089">
        <ele>478.8</ele>
        <time>2022-05-24 08:54:46</time>
      </trkpt>
      <trkpt lat="41.21358" lon="0.87088">
        <ele>478.8</ele>
        <time>2022-05-24 08:54:47</time>
      </trkpt>
      <trkpt lat="41.21357" lon="0.87087">
        <ele>479</ele>
        <time>2022-05-24 08:54:48</time>
      </trkpt>
      <trkpt lat="41.21356" lon="0.87085">
        <ele>479.2</ele>
        <time>2022-05-24 08:54:49</time>
      </trkpt>
      <trkpt lat="41.21355" lon="0.87083">
        <ele>479.4</ele>
        <time>2022-05-24 08:54:50</time>
      </trkpt>
      <trkpt lat="41.21354" lon="0.87082">
        <ele>479.4</ele>
        <time>2022-05-24 08:54:51</time>
      </trkpt>
      <trkpt lat="41.21352" lon="0.8708">
        <ele>479.6</ele>
        <time>2022-05-24 08:54:52</time>
      </trkpt>
      <trkpt lat="41.21351" lon="0.87079">
        <ele>479.8</ele>
        <time>2022-05-24 08:54:53</time>
      </trkpt>
      <trkpt lat="41.2135" lon="0.87077">
        <ele>479.8</ele>
        <time>2022-05-24 08:54:54</time>
      </trkpt>
      <trkpt lat="41.21349" lon="0.87076">
        <ele>480</ele>
        <time>2022-05-24 08:54:55</time>
      </trkpt>
      <trkpt lat="41.21348" lon="0.87074">
        <ele>480.2</ele>
        <time>2022-05-24 08:54:56</time>
      </trkpt>
      <trkpt lat="41.21347" lon="0.87072">
        <ele>480.2</ele>
        <time>2022-05-24 08:54:57</time>
      </trkpt>
      <trkpt lat="41.21346" lon="0.8707">
        <ele>480.4</ele>
        <time>2022-05-24 08:54:58</time>
      </trkpt>
      <trkpt lat="41.21345" lon="0.87069">
        <ele>480.6</ele>
        <time>2022-05-24 08:54:59</time>
      </trkpt>
      <trkpt lat="41.21344" lon="0.87067">
        <ele>480.6</ele>
        <time>2022-05-24 08:55:00</time>
      </trkpt>
      <trkpt lat="41.21343" lon="0.87065">
        <ele>480.8</ele>
        <time>2022-05-24 08:55:01</time>
      </trkpt>
      <trkpt lat="41.21341" lon="0.87064">
        <ele>481</ele>
        <time>2022-05-24 08:55:02</time>
      </trkpt>
      <trkpt lat="41.2134" lon="0.87062">
        <ele>481</ele>
        <time>2022-05-24 08:55:03</time>
      </trkpt>
      <trkpt lat="41.21339" lon="0.87061">
        <ele>481.2</ele>
        <time>2022-05-24 08:55:04</time>
      </trkpt>
      <trkpt lat="41.21337" lon="0.87059">
        <ele>481.4</ele>
        <time>2022-05-24 08:55:05</time>
      </trkpt>
      <trkpt lat="41.21336" lon="0.87058">
        <ele>481.4</ele>
        <time>2022-05-24 08:55:06</time>
      </trkpt>
      <trkpt lat="41.21334" lon="0.87057">
        <ele>481.6</ele>
        <time>2022-05-24 08:55:07</time>
      </trkpt>
      <trkpt lat="41.21333" lon="0.87056">
        <ele>481.8</ele>
        <time>2022-05-24 08:55:08</time>
      </trkpt>
      <trkpt lat="41.21331" lon="0.87055">
        <ele>481.8</ele>
        <time>2022-05-24 08:55:09</time>
      </trkpt>
      <trkpt lat="41.2133" lon="0.87054">
        <ele>482</ele>
        <time>2022-05-24 08:55:10</time>
      </trkpt>
      <trkpt lat="41.21329" lon="0.87053">
        <ele>482</ele>
        <time>2022-05-24 08:55:11</time>
      </trkpt>
      <trkpt lat="41.21327" lon="0.87051">
        <ele>482.2</ele>
        <time>2022-05-24 08:55:12</time>
      </trkpt>
      <trkpt lat="41.21326" lon="0.8705">
        <ele>482.2</ele>
        <time>2022-05-24 08:55:13</time>
      </trkpt>
      <trkpt lat="41.21325" lon="0.8705">
        <ele>482.4</ele>
        <time>2022-05-24 08:55:14</time>
      </trkpt>
      <trkpt lat="41.21323" lon="0.87049">
        <ele>482.4</ele>
        <time>2022-05-24 08:55:15</time>
      </trkpt>
      <trkpt lat="41.21322" lon="0.87047">
        <ele>482.6</ele>
        <time>2022-05-24 08:55:16</time>
      </trkpt>
      <trkpt lat="41.2132" lon="0.87046">
        <ele>482.8</ele>
        <time>2022-05-24 08:55:17</time>
      </trkpt>
      <trkpt lat="41.21319" lon="0.87045">
        <ele>483</ele>
        <time>2022-05-24 08:55:18</time>
      </trkpt>
      <trkpt lat="41.21318" lon="0.87043">
        <ele>483.2</ele>
        <time>2022-05-24 08:55:19</time>
      </trkpt>
      <trkpt lat="41.21317" lon="0.87042">
        <ele>483.4</ele>
        <time>2022-05-24 08:55:20</time>
      </trkpt>
      <trkpt lat="41.21316" lon="0.87041">
        <ele>483.6</ele>
        <time>2022-05-24 08:55:21</time>
      </trkpt>
      <trkpt lat="41.21314" lon="0.8704">
        <ele>483.6</ele>
        <time>2022-05-24 08:55:22</time>
      </trkpt>
      <trkpt lat="41.21312" lon="0.87039">
        <ele>483.8</ele>
        <time>2022-05-24 08:55:23</time>
      </trkpt>
      <trkpt lat="41.21311" lon="0.87038">
        <ele>484</ele>
        <time>2022-05-24 08:55:24</time>
      </trkpt>
      <trkpt lat="41.2131" lon="0.87036">
        <ele>484.2</ele>
        <time>2022-05-24 08:55:25</time>
      </trkpt>
      <trkpt lat="41.21308" lon="0.87035">
        <ele>484.4</ele>
        <time>2022-05-24 08:55:26</time>
      </trkpt>
      <trkpt lat="41.21307" lon="0.87033">
        <ele>484.6</ele>
        <time>2022-05-24 08:55:27</time>
      </trkpt>
      <trkpt lat="41.21305" lon="0.87032">
        <ele>484.8</ele>
        <time>2022-05-24 08:55:28</time>
      </trkpt>
      <trkpt lat="41.21304" lon="0.87031">
        <ele>484.8</ele>
        <time>2022-05-24 08:55:29</time>
      </trkpt>
      <trkpt lat="41.21302" lon="0.8703">
        <ele>485</ele>
        <time>2022-05-24 08:55:30</time>
      </trkpt>
      <trkpt lat="41.21301" lon="0.8703">
        <ele>485.2</ele>
        <time>2022-05-24 08:55:31</time>
      </trkpt>
      <trkpt lat="41.21299" lon="0.87029">
        <ele>485.4</ele>
        <time>2022-05-24 08:55:32</time>
      </trkpt>
      <trkpt lat="41.21298" lon="0.87028">
        <ele>485.6</ele>
        <time>2022-05-24 08:55:33</time>
      </trkpt>
      <trkpt lat="41.21296" lon="0.87027">
        <ele>485.6</ele>
        <time>2022-05-24 08:55:34</time>
      </trkpt>
      <trkpt lat="41.21295" lon="0.87026">
        <ele>485.8</ele>
        <time>2022-05-24 08:55:35</time>
      </trkpt>
      <trkpt lat="41.21293" lon="0.87025">
        <ele>486</ele>
        <time>2022-05-24 08:55:36</time>
      </trkpt>
      <trkpt lat="41.21292" lon="0.87024">
        <ele>486.2</ele>
        <time>2022-05-24 08:55:37</time>
      </trkpt>
      <trkpt lat="41.21291" lon="0.87023">
        <ele>486.4</ele>
        <time>2022-05-24 08:55:38</time>
      </trkpt>
      <trkpt lat="41.21289" lon="0.87022">
        <ele>486.6</ele>
        <time>2022-05-24 08:55:39</time>
      </trkpt>
      <trkpt lat="41.21287" lon="0.87022">
        <ele>486.6</ele>
        <time>2022-05-24 08:55:40</time>
      </trkpt>
      <trkpt lat="41.21286" lon="0.87021">
        <ele>486.8</ele>
        <time>2022-05-24 08:55:41</time>
      </trkpt>
      <trkpt lat="41.21284" lon="0.8702">
        <ele>487</ele>
        <time>2022-05-24 08:55:42</time>
      </trkpt>
      <trkpt lat="41.21283" lon="0.87019">
        <ele>487.2</ele>
        <time>2022-05-24 08:55:43</time>
      </trkpt>
      <trkpt lat="41.21282" lon="0.87018">
        <ele>487.4</ele>
        <time>2022-05-24 08:55:44</time>
      </trkpt>
      <trkpt lat="41.2128" lon="0.87016">
        <ele>487.6</ele>
        <time>2022-05-24 08:55:45</time>
      </trkpt>
      <trkpt lat="41.21279" lon="0.87015">
        <ele>487.8</ele>
        <time>2022-05-24 08:55:46</time>
      </trkpt>
      <trkpt lat="41.21277" lon="0.87014">
        <ele>488</ele>
        <time>2022-05-24 08:55:47</time>
      </trkpt>
      <trkpt lat="41.21276" lon="0.87014">
        <ele>488</ele>
        <time>2022-05-24 08:55:48</time>
      </trkpt>
      <trkpt lat="41.21275" lon="0.87013">
        <ele>488.2</ele>
        <time>2022-05-24 08:55:49</time>
      </trkpt>
      <trkpt lat="41.21273" lon="0.87012">
        <ele>488.4</ele>
        <time>2022-05-24 08:55:50</time>
      </trkpt>
      <trkpt lat="41.21272" lon="0.87011">
        <ele>488.4</ele>
        <time>2022-05-24 08:55:51</time>
      </trkpt>
      <trkpt lat="41.21271" lon="0.87009">
        <ele>488.6</ele>
        <time>2022-05-24 08:55:52</time>
      </trkpt>
      <trkpt lat="41.21269" lon="0.87008">
        <ele>488.8</ele>
        <time>2022-05-24 08:55:53</time>
      </trkpt>
      <trkpt lat="41.21268" lon="0.87007">
        <ele>488.8</ele>
        <time>2022-05-24 08:55:54</time>
      </trkpt>
      <trkpt lat="41.21267" lon="0.87005">
        <ele>489</ele>
        <time>2022-05-24 08:55:55</time>
      </trkpt>
      <trkpt lat="41.21265" lon="0.87004">
        <ele>489.2</ele>
        <time>2022-05-24 08:55:56</time>
      </trkpt>
      <trkpt lat="41.21264" lon="0.87003">
        <ele>489.2</ele>
        <time>2022-05-24 08:55:57</time>
      </trkpt>
      <trkpt lat="41.21262" lon="0.87002">
        <ele>489.4</ele>
        <time>2022-05-24 08:55:58</time>
      </trkpt>
      <trkpt lat="41.21261" lon="0.87002">
        <ele>489.6</ele>
        <time>2022-05-24 08:55:59</time>
      </trkpt>
      <trkpt lat="41.21259" lon="0.87001">
        <ele>489.6</ele>
        <time>2022-05-24 08:56:00</time>
      </trkpt>
      <trkpt lat="41.21258" lon="0.87">
        <ele>489.8</ele>
        <time>2022-05-24 08:56:01</time>
      </trkpt>
      <trkpt lat="41.21257" lon="0.86998">
        <ele>490</ele>
        <time>2022-05-24 08:56:02</time>
      </trkpt>
      <trkpt lat="41.21256" lon="0.86997">
        <ele>490.2</ele>
        <time>2022-05-24 08:56:03</time>
      </trkpt>
      <trkpt lat="41.21254" lon="0.86996">
        <ele>490.4</ele>
        <time>2022-05-24 08:56:04</time>
      </trkpt>
      <trkpt lat="41.21253" lon="0.86994">
        <ele>490.6</ele>
        <time>2022-05-24 08:56:05</time>
      </trkpt>
      <trkpt lat="41.21252" lon="0.86993">
        <ele>490.6</ele>
        <time>2022-05-24 08:56:06</time>
      </trkpt>
      <trkpt lat="41.2125" lon="0.86992">
        <ele>490.8</ele>
        <time>2022-05-24 08:56:07</time>
      </trkpt>
      <trkpt lat="41.21249" lon="0.86991">
        <ele>491</ele>
        <time>2022-05-24 08:56:08</time>
      </trkpt>
      <trkpt lat="41.21248" lon="0.8699">
        <ele>491.2</ele>
        <time>2022-05-24 08:56:09</time>
      </trkpt>
      <trkpt lat="41.21246" lon="0.86988">
        <ele>491.2</ele>
        <time>2022-05-24 08:56:10</time>
      </trkpt>
      <trkpt lat="41.21245" lon="0.86986">
        <ele>491.4</ele>
        <time>2022-05-24 08:56:11</time>
      </trkpt>
      <trkpt lat="41.21244" lon="0.86984">
        <ele>491.6</ele>
        <time>2022-05-24 08:56:12</time>
      </trkpt>
      <trkpt lat="41.21242" lon="0.86983">
        <ele>491.6</ele>
        <time>2022-05-24 08:56:13</time>
      </trkpt>
      <trkpt lat="41.21241" lon="0.86982">
        <ele>491.8</ele>
        <time>2022-05-24 08:56:14</time>
      </trkpt>
      <trkpt lat="41.2124" lon="0.8698">
        <ele>492</ele>
        <time>2022-05-24 08:56:15</time>
      </trkpt>
      <trkpt lat="41.21238" lon="0.86979">
        <ele>492.2</ele>
        <time>2022-05-24 08:56:16</time>
      </trkpt>
      <trkpt lat="41.21237" lon="0.86978">
        <ele>492.4</ele>
        <time>2022-05-24 08:56:17</time>
      </trkpt>
      <trkpt lat="41.21236" lon="0.86977">
        <ele>492.6</ele>
        <time>2022-05-24 08:56:18</time>
      </trkpt>
      <trkpt lat="41.21235" lon="0.86975">
        <ele>492.8</ele>
        <time>2022-05-24 08:56:19</time>
      </trkpt>
      <trkpt lat="41.21233" lon="0.86974">
        <ele>493</ele>
        <time>2022-05-24 08:56:20</time>
      </trkpt>
      <trkpt lat="41.21232" lon="0.86972">
        <ele>493</ele>
        <time>2022-05-24 08:56:21</time>
      </trkpt>
      <trkpt lat="41.21231" lon="0.8697">
        <ele>493.2</ele>
        <time>2022-05-24 08:56:22</time>
      </trkpt>
      <trkpt lat="41.2123" lon="0.86968">
        <ele>493.4</ele>
        <time>2022-05-24 08:56:23</time>
      </trkpt>
      <trkpt lat="41.21229" lon="0.86966">
        <ele>493.6</ele>
        <time>2022-05-24 08:56:24</time>
      </trkpt>
      <trkpt lat="41.21227" lon="0.86964">
        <ele>493.8</ele>
        <time>2022-05-24 08:56:25</time>
      </trkpt>
      <trkpt lat="41.21227" lon="0.86962">
        <ele>494</ele>
        <time>2022-05-24 08:56:26</time>
      </trkpt>
      <trkpt lat="41.21225" lon="0.86959">
        <ele>494</ele>
        <time>2022-05-24 08:56:27</time>
      </trkpt>
      <trkpt lat="41.21224" lon="0.86958">
        <ele>494.2</ele>
        <time>2022-05-24 08:56:28</time>
      </trkpt>
      <trkpt lat="41.21223" lon="0.86956">
        <ele>494.4</ele>
        <time>2022-05-24 08:56:29</time>
      </trkpt>
      <trkpt lat="41.21222" lon="0.86954">
        <ele>494.6</ele>
        <time>2022-05-24 08:56:30</time>
      </trkpt>
      <trkpt lat="41.2122" lon="0.86953">
        <ele>494.6</ele>
        <time>2022-05-24 08:56:31</time>
      </trkpt>
      <trkpt lat="41.21219" lon="0.86951">
        <ele>494.8</ele>
        <time>2022-05-24 08:56:32</time>
      </trkpt>
      <trkpt lat="41.21218" lon="0.86949">
        <ele>495</ele>
        <time>2022-05-24 08:56:33</time>
      </trkpt>
      <trkpt lat="41.21217" lon="0.86948">
        <ele>495.2</ele>
        <time>2022-05-24 08:56:34</time>
      </trkpt>
      <trkpt lat="41.21215" lon="0.86946">
        <ele>495.4</ele>
        <time>2022-05-24 08:56:35</time>
      </trkpt>
      <trkpt lat="41.21214" lon="0.86944">
        <ele>495.6</ele>
        <time>2022-05-24 08:56:36</time>
      </trkpt>
      <trkpt lat="41.21213" lon="0.86942">
        <ele>495.8</ele>
        <time>2022-05-24 08:56:37</time>
      </trkpt>
      <trkpt lat="41.21212" lon="0.86939">
        <ele>496</ele>
        <time>2022-05-24 08:56:38</time>
      </trkpt>
      <trkpt lat="41.21211" lon="0.86937">
        <ele>496.2</ele>
        <time>2022-05-24 08:56:39</time>
      </trkpt>
      <trkpt lat="41.2121" lon="0.86935">
        <ele>496.4</ele>
        <time>2022-05-24 08:56:40</time>
      </trkpt>
      <trkpt lat="41.21209" lon="0.86933">
        <ele>496.6</ele>
        <time>2022-05-24 08:56:41</time>
      </trkpt>
      <trkpt lat="41.21208" lon="0.86931">
        <ele>496.8</ele>
        <time>2022-05-24 08:56:42</time>
      </trkpt>
      <trkpt lat="41.21207" lon="0.86928">
        <ele>497</ele>
        <time>2022-05-24 08:56:43</time>
      </trkpt>
      <trkpt lat="41.21206" lon="0.86927">
        <ele>497.2</ele>
        <time>2022-05-24 08:56:44</time>
      </trkpt>
      <trkpt lat="41.21205" lon="0.86925">
        <ele>497.2</ele>
        <time>2022-05-24 08:56:45</time>
      </trkpt>
      <trkpt lat="41.21203" lon="0.86924">
        <ele>497.4</ele>
        <time>2022-05-24 08:56:46</time>
      </trkpt>
      <trkpt lat="41.21202" lon="0.86922">
        <ele>497.4</ele>
        <time>2022-05-24 08:56:47</time>
      </trkpt>
      <trkpt lat="41.21201" lon="0.8692">
        <ele>497.6</ele>
        <time>2022-05-24 08:56:48</time>
      </trkpt>
      <trkpt lat="41.212" lon="0.86918">
        <ele>497.8</ele>
        <time>2022-05-24 08:56:49</time>
      </trkpt>
      <trkpt lat="41.21198" lon="0.86917">
        <ele>497.8</ele>
        <time>2022-05-24 08:56:50</time>
      </trkpt>
      <trkpt lat="41.21197" lon="0.86915">
        <ele>498</ele>
        <time>2022-05-24 08:56:51</time>
      </trkpt>
      <trkpt lat="41.21196" lon="0.86913">
        <ele>498.2</ele>
        <time>2022-05-24 08:56:52</time>
      </trkpt>
      <trkpt lat="41.21195" lon="0.86911">
        <ele>498.4</ele>
        <time>2022-05-24 08:56:53</time>
      </trkpt>
      <trkpt lat="41.21194" lon="0.8691">
        <ele>498.4</ele>
        <time>2022-05-24 08:56:54</time>
      </trkpt>
      <trkpt lat="41.21193" lon="0.86908">
        <ele>498.6</ele>
        <time>2022-05-24 08:56:55</time>
      </trkpt>
      <trkpt lat="41.21191" lon="0.86906">
        <ele>498.8</ele>
        <time>2022-05-24 08:56:56</time>
      </trkpt>
      <trkpt lat="41.2119" lon="0.86905">
        <ele>498.8</ele>
        <time>2022-05-24 08:56:57</time>
      </trkpt>
      <trkpt lat="41.21189" lon="0.86903">
        <ele>499</ele>
        <time>2022-05-24 08:56:58</time>
      </trkpt>
      <trkpt lat="41.21187" lon="0.86902">
        <ele>499.2</ele>
        <time>2022-05-24 08:56:59</time>
      </trkpt>
      <trkpt lat="41.21186" lon="0.86901">
        <ele>499.2</ele>
        <time>2022-05-24 08:57:00</time>
      </trkpt>
      <trkpt lat="41.21184" lon="0.86901">
        <ele>499.4</ele>
        <time>2022-05-24 08:57:01</time>
      </trkpt>
      <trkpt lat="41.21182" lon="0.869">
        <ele>499.6</ele>
        <time>2022-05-24 08:57:02</time>
      </trkpt>
      <trkpt lat="41.21181" lon="0.869">
        <ele>499.6</ele>
        <time>2022-05-24 08:57:03</time>
      </trkpt>
      <trkpt lat="41.21179" lon="0.86899">
        <ele>499.8</ele>
        <time>2022-05-24 08:57:04</time>
      </trkpt>
      <trkpt lat="41.21177" lon="0.86899">
        <ele>500</ele>
        <time>2022-05-24 08:57:05</time>
      </trkpt>
      <trkpt lat="41.21176" lon="0.86898">
        <ele>500</ele>
        <time>2022-05-24 08:57:06</time>
      </trkpt>
      <trkpt lat="41.21174" lon="0.86897">
        <ele>500.2</ele>
        <time>2022-05-24 08:57:07</time>
      </trkpt>
      <trkpt lat="41.21172" lon="0.86897">
        <ele>500.4</ele>
        <time>2022-05-24 08:57:08</time>
      </trkpt>
      <trkpt lat="41.21171" lon="0.86897">
        <ele>500.4</ele>
        <time>2022-05-24 08:57:09</time>
      </trkpt>
      <trkpt lat="41.21169" lon="0.86897">
        <ele>500.6</ele>
        <time>2022-05-24 08:57:10</time>
      </trkpt>
      <trkpt lat="41.21167" lon="0.86897">
        <ele>500.6</ele>
        <time>2022-05-24 08:57:11</time>
      </trkpt>
      <trkpt lat="41.21166" lon="0.86897">
        <ele>500.8</ele>
        <time>2022-05-24 08:57:12</time>
      </trkpt>
      <trkpt lat="41.21164" lon="0.86897">
        <ele>501</ele>
        <time>2022-05-24 08:57:13</time>
      </trkpt>
      <trkpt lat="41.21162" lon="0.86897">
        <ele>501.2</ele>
        <time>2022-05-24 08:57:14</time>
      </trkpt>
      <trkpt lat="41.2116" lon="0.86897">
        <ele>501.4</ele>
        <time>2022-05-24 08:57:15</time>
      </trkpt>
      <trkpt lat="41.21159" lon="0.86897">
        <ele>501.6</ele>
        <time>2022-05-24 08:57:16</time>
      </trkpt>
      <trkpt lat="41.21157" lon="0.86898">
        <ele>501.6</ele>
        <time>2022-05-24 08:57:17</time>
      </trkpt>
      <trkpt lat="41.21155" lon="0.86898">
        <ele>501.8</ele>
        <time>2022-05-24 08:57:18</time>
      </trkpt>
      <trkpt lat="41.21154" lon="0.86898">
        <ele>502</ele>
        <time>2022-05-24 08:57:19</time>
      </trkpt>
      <trkpt lat="41.21152" lon="0.86897">
        <ele>502</ele>
        <time>2022-05-24 08:57:20</time>
      </trkpt>
      <trkpt lat="41.2115" lon="0.86897">
        <ele>502.2</ele>
        <time>2022-05-24 08:57:21</time>
      </trkpt>
      <trkpt lat="41.21148" lon="0.86897">
        <ele>502.2</ele>
        <time>2022-05-24 08:57:22</time>
      </trkpt>
      <trkpt lat="41.21146" lon="0.86897">
        <ele>502.4</ele>
        <time>2022-05-24 08:57:23</time>
      </trkpt>
      <trkpt lat="41.21145" lon="0.86897">
        <ele>502.6</ele>
        <time>2022-05-24 08:57:24</time>
      </trkpt>
      <trkpt lat="41.21143" lon="0.86896">
        <ele>502.8</ele>
        <time>2022-05-24 08:57:25</time>
      </trkpt>
      <trkpt lat="41.21141" lon="0.86896">
        <ele>503</ele>
        <time>2022-05-24 08:57:26</time>
      </trkpt>
      <trkpt lat="41.21138" lon="0.86895">
        <ele>503.2</ele>
        <time>2022-05-24 08:57:27</time>
      </trkpt>
      <trkpt lat="41.21136" lon="0.86894">
        <ele>503.4</ele>
        <time>2022-05-24 08:57:28</time>
      </trkpt>
      <trkpt lat="41.21134" lon="0.86894">
        <ele>503.6</ele>
        <time>2022-05-24 08:57:29</time>
      </trkpt>
      <trkpt lat="41.21132" lon="0.86893">
        <ele>503.6</ele>
        <time>2022-05-24 08:57:30</time>
      </trkpt>
      <trkpt lat="41.2113" lon="0.86892">
        <ele>503.8</ele>
        <time>2022-05-24 08:57:31</time>
      </trkpt>
      <trkpt lat="41.21128" lon="0.86891">
        <ele>504</ele>
        <time>2022-05-24 08:57:32</time>
      </trkpt>
      <trkpt lat="41.21127" lon="0.86889">
        <ele>504.4</ele>
        <time>2022-05-24 08:57:33</time>
      </trkpt>
      <trkpt lat="41.21125" lon="0.86888">
        <ele>504.6</ele>
        <time>2022-05-24 08:57:34</time>
      </trkpt>
      <trkpt lat="41.21124" lon="0.86886">
        <ele>504.8</ele>
        <time>2022-05-24 08:57:35</time>
      </trkpt>
      <trkpt lat="41.21122" lon="0.86884">
        <ele>505</ele>
        <time>2022-05-24 08:57:36</time>
      </trkpt>
      <trkpt lat="41.21121" lon="0.86882">
        <ele>505.2</ele>
        <time>2022-05-24 08:57:37</time>
      </trkpt>
      <trkpt lat="41.21119" lon="0.86881">
        <ele>505.4</ele>
        <time>2022-05-24 08:57:38</time>
      </trkpt>
      <trkpt lat="41.21118" lon="0.86879">
        <ele>505.8</ele>
        <time>2022-05-24 08:57:39</time>
      </trkpt>
      <trkpt lat="41.21116" lon="0.86877">
        <ele>506</ele>
        <time>2022-05-24 08:57:40</time>
      </trkpt>
      <trkpt lat="41.21114" lon="0.86876">
        <ele>506.2</ele>
        <time>2022-05-24 08:57:41</time>
      </trkpt>
      <trkpt lat="41.21113" lon="0.86874">
        <ele>506.4</ele>
        <time>2022-05-24 08:57:42</time>
      </trkpt>
      <trkpt lat="41.21112" lon="0.86871">
        <ele>506.6</ele>
        <time>2022-05-24 08:57:43</time>
      </trkpt>
      <trkpt lat="41.2111" lon="0.8687">
        <ele>506.8</ele>
        <time>2022-05-24 08:57:44</time>
      </trkpt>
      <trkpt lat="41.21109" lon="0.86868">
        <ele>507</ele>
        <time>2022-05-24 08:57:45</time>
      </trkpt>
      <trkpt lat="41.21108" lon="0.86866">
        <ele>507</ele>
        <time>2022-05-24 08:57:46</time>
      </trkpt>
      <trkpt lat="41.21107" lon="0.86864">
        <ele>507.2</ele>
        <time>2022-05-24 08:57:47</time>
      </trkpt>
      <trkpt lat="41.21106" lon="0.86862">
        <ele>507.4</ele>
        <time>2022-05-24 08:57:48</time>
      </trkpt>
      <trkpt lat="41.21104" lon="0.86861">
        <ele>507.6</ele>
        <time>2022-05-24 08:57:49</time>
      </trkpt>
      <trkpt lat="41.21103" lon="0.8686">
        <ele>507.8</ele>
        <time>2022-05-24 08:57:50</time>
      </trkpt>
      <trkpt lat="41.21101" lon="0.86858">
        <ele>507.8</ele>
        <time>2022-05-24 08:57:51</time>
      </trkpt>
      <trkpt lat="41.21099" lon="0.86857">
        <ele>508</ele>
        <time>2022-05-24 08:57:52</time>
      </trkpt>
      <trkpt lat="41.21098" lon="0.86856">
        <ele>508.2</ele>
        <time>2022-05-24 08:57:53</time>
      </trkpt>
      <trkpt lat="41.21096" lon="0.86854">
        <ele>508.4</ele>
        <time>2022-05-24 08:57:54</time>
      </trkpt>
      <trkpt lat="41.21095" lon="0.86853">
        <ele>508.6</ele>
        <time>2022-05-24 08:57:55</time>
      </trkpt>
      <trkpt lat="41.21093" lon="0.86852">
        <ele>508.8</ele>
        <time>2022-05-24 08:57:56</time>
      </trkpt>
      <trkpt lat="41.21091" lon="0.86851">
        <ele>509</ele>
        <time>2022-05-24 08:57:57</time>
      </trkpt>
      <trkpt lat="41.21089" lon="0.8685">
        <ele>509</ele>
        <time>2022-05-24 08:57:58</time>
      </trkpt>
      <trkpt lat="41.21088" lon="0.86849">
        <ele>509.2</ele>
        <time>2022-05-24 08:57:59</time>
      </trkpt>
      <trkpt lat="41.21086" lon="0.86848">
        <ele>509.4</ele>
        <time>2022-05-24 08:58:00</time>
      </trkpt>
      <trkpt lat="41.21084" lon="0.86846">
        <ele>509.6</ele>
        <time>2022-05-24 08:58:01</time>
      </trkpt>
      <trkpt lat="41.21083" lon="0.86845">
        <ele>509.6</ele>
        <time>2022-05-24 08:58:02</time>
      </trkpt>
      <trkpt lat="41.21081" lon="0.86845">
        <ele>509.8</ele>
        <time>2022-05-24 08:58:03</time>
      </trkpt>
      <trkpt lat="41.21079" lon="0.86844">
        <ele>510</ele>
        <time>2022-05-24 08:58:04</time>
      </trkpt>
      <trkpt lat="41.21077" lon="0.86842">
        <ele>510.2</ele>
        <time>2022-05-24 08:58:05</time>
      </trkpt>
      <trkpt lat="41.21076" lon="0.86841">
        <ele>510.4</ele>
        <time>2022-05-24 08:58:06</time>
      </trkpt>
      <trkpt lat="41.21074" lon="0.8684">
        <ele>510.4</ele>
        <time>2022-05-24 08:58:07</time>
      </trkpt>
      <trkpt lat="41.21072" lon="0.86838">
        <ele>510.6</ele>
        <time>2022-05-24 08:58:08</time>
      </trkpt>
      <trkpt lat="41.21071" lon="0.86837">
        <ele>510.8</ele>
        <time>2022-05-24 08:58:09</time>
      </trkpt>
      <trkpt lat="41.21069" lon="0.86837">
        <ele>511</ele>
        <time>2022-05-24 08:58:10</time>
      </trkpt>
      <trkpt lat="41.21067" lon="0.86836">
        <ele>511.2</ele>
        <time>2022-05-24 08:58:11</time>
      </trkpt>
      <trkpt lat="41.21066" lon="0.86835">
        <ele>511.2</ele>
        <time>2022-05-24 08:58:12</time>
      </trkpt>
      <trkpt lat="41.21064" lon="0.86835">
        <ele>511.4</ele>
        <time>2022-05-24 08:58:13</time>
      </trkpt>
      <trkpt lat="41.21062" lon="0.86834">
        <ele>511.6</ele>
        <time>2022-05-24 08:58:14</time>
      </trkpt>
      <trkpt lat="41.2106" lon="0.86834">
        <ele>511.8</ele>
        <time>2022-05-24 08:58:15</time>
      </trkpt>
      <trkpt lat="41.21059" lon="0.86833">
        <ele>512</ele>
        <time>2022-05-24 08:58:16</time>
      </trkpt>
      <trkpt lat="41.21057" lon="0.86833">
        <ele>512.2</ele>
        <time>2022-05-24 08:58:17</time>
      </trkpt>
      <trkpt lat="41.21055" lon="0.86832">
        <ele>512.2</ele>
        <time>2022-05-24 08:58:18</time>
      </trkpt>
      <trkpt lat="41.21053" lon="0.86831">
        <ele>512.4</ele>
        <time>2022-05-24 08:58:19</time>
      </trkpt>
      <trkpt lat="41.21051" lon="0.86831">
        <ele>512.6</ele>
        <time>2022-05-24 08:58:20</time>
      </trkpt>
      <trkpt lat="41.2105" lon="0.8683">
        <ele>512.6</ele>
        <time>2022-05-24 08:58:21</time>
      </trkpt>
      <trkpt lat="41.21048" lon="0.86829">
        <ele>512.8</ele>
        <time>2022-05-24 08:58:22</time>
      </trkpt>
      <trkpt lat="41.21046" lon="0.86828">
        <ele>513</ele>
        <time>2022-05-24 08:58:23</time>
      </trkpt>
      <trkpt lat="41.21045" lon="0.86826">
        <ele>513.2</ele>
        <time>2022-05-24 08:58:24</time>
      </trkpt>
      <trkpt lat="41.21043" lon="0.86825">
        <ele>513.4</ele>
        <time>2022-05-24 08:58:25</time>
      </trkpt>
      <trkpt lat="41.21041" lon="0.86824">
        <ele>513.4</ele>
        <time>2022-05-24 08:58:26</time>
      </trkpt>
      <trkpt lat="41.2104" lon="0.86823">
        <ele>513.6</ele>
        <time>2022-05-24 08:58:27</time>
      </trkpt>
      <trkpt lat="41.21038" lon="0.86823">
        <ele>513.8</ele>
        <time>2022-05-24 08:58:28</time>
      </trkpt>
      <trkpt lat="41.21037" lon="0.86822">
        <ele>514</ele>
        <time>2022-05-24 08:58:29</time>
      </trkpt>
      <trkpt lat="41.21035" lon="0.86821">
        <ele>514.2</ele>
        <time>2022-05-24 08:58:30</time>
      </trkpt>
      <trkpt lat="41.21033" lon="0.86821">
        <ele>514.4</ele>
        <time>2022-05-24 08:58:31</time>
      </trkpt>
      <trkpt lat="41.21031" lon="0.8682">
        <ele>514.6</ele>
        <time>2022-05-24 08:58:32</time>
      </trkpt>
      <trkpt lat="41.21029" lon="0.86819">
        <ele>514.8</ele>
        <time>2022-05-24 08:58:33</time>
      </trkpt>
      <trkpt lat="41.21027" lon="0.86819">
        <ele>514.8</ele>
        <time>2022-05-24 08:58:34</time>
      </trkpt>
      <trkpt lat="41.21026" lon="0.86818">
        <ele>515</ele>
        <time>2022-05-24 08:58:35</time>
      </trkpt>
      <trkpt lat="41.21024" lon="0.86818">
        <ele>515.2</ele>
        <time>2022-05-24 08:58:36</time>
      </trkpt>
      <trkpt lat="41.21022" lon="0.86818">
        <ele>515.4</ele>
        <time>2022-05-24 08:58:37</time>
      </trkpt>
      <trkpt lat="41.2102" lon="0.86818">
        <ele>515.6</ele>
        <time>2022-05-24 08:58:38</time>
      </trkpt>
      <trkpt lat="41.21019" lon="0.86818">
        <ele>515.8</ele>
        <time>2022-05-24 08:58:39</time>
      </trkpt>
      <trkpt lat="41.21017" lon="0.86818">
        <ele>516</ele>
        <time>2022-05-24 08:58:40</time>
      </trkpt>
      <trkpt lat="41.21015" lon="0.86819">
        <ele>516</ele>
        <time>2022-05-24 08:58:41</time>
      </trkpt>
      <trkpt lat="41.21013" lon="0.86819">
        <ele>516.2</ele>
        <time>2022-05-24 08:58:42</time>
      </trkpt>
      <trkpt lat="41.21011" lon="0.8682">
        <ele>516.4</ele>
        <time>2022-05-24 08:58:43</time>
      </trkpt>
      <trkpt lat="41.21009" lon="0.8682">
        <ele>516.6</ele>
        <time>2022-05-24 08:58:44</time>
      </trkpt>
      <trkpt lat="41.21008" lon="0.86821">
        <ele>516.8</ele>
        <time>2022-05-24 08:58:45</time>
      </trkpt>
      <trkpt lat="41.21006" lon="0.86821">
        <ele>517</ele>
        <time>2022-05-24 08:58:46</time>
      </trkpt>
      <trkpt lat="41.21004" lon="0.86821">
        <ele>517</ele>
        <time>2022-05-24 08:58:47</time>
      </trkpt>
      <trkpt lat="41.21002" lon="0.86822">
        <ele>517.2</ele>
        <time>2022-05-24 08:58:48</time>
      </trkpt>
      <trkpt lat="41.21001" lon="0.86822">
        <ele>517.4</ele>
        <time>2022-05-24 08:58:49</time>
      </trkpt>
      <trkpt lat="41.20999" lon="0.86823">
        <ele>517.6</ele>
        <time>2022-05-24 08:58:50</time>
      </trkpt>
      <trkpt lat="41.20997" lon="0.86824">
        <ele>517.8</ele>
        <time>2022-05-24 08:58:51</time>
      </trkpt>
      <trkpt lat="41.20995" lon="0.86825">
        <ele>518</ele>
        <time>2022-05-24 08:58:52</time>
      </trkpt>
      <trkpt lat="41.20993" lon="0.86825">
        <ele>518</ele>
        <time>2022-05-24 08:58:53</time>
      </trkpt>
      <trkpt lat="41.20992" lon="0.86825">
        <ele>518.2</ele>
        <time>2022-05-24 08:58:54</time>
      </trkpt>
      <trkpt lat="41.2099" lon="0.86825">
        <ele>518.4</ele>
        <time>2022-05-24 08:58:55</time>
      </trkpt>
      <trkpt lat="41.20988" lon="0.86825">
        <ele>518.4</ele>
        <time>2022-05-24 08:58:56</time>
      </trkpt>
      <trkpt lat="41.20986" lon="0.86824">
        <ele>518.6</ele>
        <time>2022-05-24 08:58:57</time>
      </trkpt>
      <trkpt lat="41.20984" lon="0.86824">
        <ele>518.8</ele>
        <time>2022-05-24 08:58:58</time>
      </trkpt>
      <trkpt lat="41.20982" lon="0.86823">
        <ele>519</ele>
        <time>2022-05-24 08:58:59</time>
      </trkpt>
      <trkpt lat="41.2098" lon="0.86823">
        <ele>519</ele>
        <time>2022-05-24 08:59:00</time>
      </trkpt>
      <trkpt lat="41.20978" lon="0.86822">
        <ele>519.2</ele>
        <time>2022-05-24 08:59:01</time>
      </trkpt>
      <trkpt lat="41.20977" lon="0.86822">
        <ele>519.4</ele>
        <time>2022-05-24 08:59:02</time>
      </trkpt>
      <trkpt lat="41.20975" lon="0.86821">
        <ele>519.6</ele>
        <time>2022-05-24 08:59:03</time>
      </trkpt>
      <trkpt lat="41.20973" lon="0.86821">
        <ele>519.8</ele>
        <time>2022-05-24 08:59:04</time>
      </trkpt>
      <trkpt lat="41.20972" lon="0.8682">
        <ele>520</ele>
        <time>2022-05-24 08:59:05</time>
      </trkpt>
      <trkpt lat="41.2097" lon="0.86819">
        <ele>520.2</ele>
        <time>2022-05-24 08:59:06</time>
      </trkpt>
      <trkpt lat="41.20969" lon="0.86818">
        <ele>520.4</ele>
        <time>2022-05-24 08:59:07</time>
      </trkpt>
      <trkpt lat="41.20968" lon="0.86817">
        <ele>520.6</ele>
        <time>2022-05-24 08:59:08</time>
      </trkpt>
      <trkpt lat="41.20966" lon="0.86815">
        <ele>520.8</ele>
        <time>2022-05-24 08:59:09</time>
      </trkpt>
      <trkpt lat="41.20965" lon="0.86813">
        <ele>521</ele>
        <time>2022-05-24 08:59:10</time>
      </trkpt>
      <trkpt lat="41.20964" lon="0.86811">
        <ele>521.2</ele>
        <time>2022-05-24 08:59:11</time>
      </trkpt>
      <trkpt lat="41.20963" lon="0.86809">
        <ele>521.4</ele>
        <time>2022-05-24 08:59:12</time>
      </trkpt>
      <trkpt lat="41.20961" lon="0.86807">
        <ele>521.6</ele>
        <time>2022-05-24 08:59:13</time>
      </trkpt>
      <trkpt lat="41.20961" lon="0.86805">
        <ele>521.8</ele>
        <time>2022-05-24 08:59:14</time>
      </trkpt>
      <trkpt lat="41.2096" lon="0.86803">
        <ele>522</ele>
        <time>2022-05-24 08:59:15</time>
      </trkpt>
      <trkpt lat="41.20959" lon="0.86801">
        <ele>522.2</ele>
        <time>2022-05-24 08:59:16</time>
      </trkpt>
      <trkpt lat="41.20959" lon="0.86799">
        <ele>522.4</ele>
        <time>2022-05-24 08:59:17</time>
      </trkpt>
      <trkpt lat="41.20958" lon="0.86796">
        <ele>522.6</ele>
        <time>2022-05-24 08:59:18</time>
      </trkpt>
      <trkpt lat="41.20958" lon="0.86793">
        <ele>522.6</ele>
        <time>2022-05-24 08:59:19</time>
      </trkpt>
      <trkpt lat="41.20957" lon="0.86791">
        <ele>522.8</ele>
        <time>2022-05-24 08:59:20</time>
      </trkpt>
      <trkpt lat="41.20957" lon="0.86789">
        <ele>523</ele>
        <time>2022-05-24 08:59:21</time>
      </trkpt>
      <trkpt lat="41.20957" lon="0.86786">
        <ele>523.2</ele>
        <time>2022-05-24 08:59:22</time>
      </trkpt>
      <trkpt lat="41.20956" lon="0.86784">
        <ele>523.4</ele>
        <time>2022-05-24 08:59:23</time>
      </trkpt>
      <trkpt lat="41.20956" lon="0.86781">
        <ele>523.6</ele>
        <time>2022-05-24 08:59:24</time>
      </trkpt>
      <trkpt lat="41.20956" lon="0.86779">
        <ele>523.8</ele>
        <time>2022-05-24 08:59:25</time>
      </trkpt>
      <trkpt lat="41.20955" lon="0.86777">
        <ele>524</ele>
        <time>2022-05-24 08:59:26</time>
      </trkpt>
      <trkpt lat="41.20955" lon="0.86775">
        <ele>524.2</ele>
        <time>2022-05-24 08:59:27</time>
      </trkpt>
      <trkpt lat="41.20955" lon="0.86773">
        <ele>524.4</ele>
        <time>2022-05-24 08:59:28</time>
      </trkpt>
      <trkpt lat="41.20954" lon="0.86771">
        <ele>524.6</ele>
        <time>2022-05-24 08:59:29</time>
      </trkpt>
      <trkpt lat="41.20953" lon="0.86769">
        <ele>524.6</ele>
        <time>2022-05-24 08:59:30</time>
      </trkpt>
      <trkpt lat="41.20953" lon="0.86766">
        <ele>524.8</ele>
        <time>2022-05-24 08:59:31</time>
      </trkpt>
      <trkpt lat="41.20953" lon="0.86764">
        <ele>525</ele>
        <time>2022-05-24 08:59:32</time>
      </trkpt>
      <trkpt lat="41.20952" lon="0.86761">
        <ele>525.2</ele>
        <time>2022-05-24 08:59:33</time>
      </trkpt>
      <trkpt lat="41.20952" lon="0.86759">
        <ele>525.4</ele>
        <time>2022-05-24 08:59:34</time>
      </trkpt>
      <trkpt lat="41.20951" lon="0.86757">
        <ele>525.4</ele>
        <time>2022-05-24 08:59:35</time>
      </trkpt>
      <trkpt lat="41.20951" lon="0.86754">
        <ele>525.6</ele>
        <time>2022-05-24 08:59:36</time>
      </trkpt>
      <trkpt lat="41.2095" lon="0.86752">
        <ele>525.6</ele>
        <time>2022-05-24 08:59:37</time>
      </trkpt>
      <trkpt lat="41.2095" lon="0.8675">
        <ele>525.8</ele>
        <time>2022-05-24 08:59:38</time>
      </trkpt>
      <trkpt lat="41.2095" lon="0.86748">
        <ele>526</ele>
        <time>2022-05-24 08:59:39</time>
      </trkpt>
      <trkpt lat="41.20949" lon="0.86746">
        <ele>526</ele>
        <time>2022-05-24 08:59:40</time>
      </trkpt>
      <trkpt lat="41.20949" lon="0.86744">
        <ele>526.2</ele>
        <time>2022-05-24 08:59:41</time>
      </trkpt>
      <trkpt lat="41.20948" lon="0.86742">
        <ele>526.4</ele>
        <time>2022-05-24 08:59:42</time>
      </trkpt>
      <trkpt lat="41.20947" lon="0.86739">
        <ele>526.6</ele>
        <time>2022-05-24 08:59:43</time>
      </trkpt>
      <trkpt lat="41.20946" lon="0.86737">
        <ele>526.6</ele>
        <time>2022-05-24 08:59:44</time>
      </trkpt>
      <trkpt lat="41.20945" lon="0.86735">
        <ele>526.8</ele>
        <time>2022-05-24 08:59:45</time>
      </trkpt>
      <trkpt lat="41.20943" lon="0.86733">
        <ele>527</ele>
        <time>2022-05-24 08:59:46</time>
      </trkpt>
      <trkpt lat="41.20942" lon="0.86731">
        <ele>527.2</ele>
        <time>2022-05-24 08:59:47</time>
      </trkpt>
      <trkpt lat="41.2094" lon="0.86729">
        <ele>527.2</ele>
        <time>2022-05-24 08:59:48</time>
      </trkpt>
      <trkpt lat="41.20939" lon="0.86727">
        <ele>527.4</ele>
        <time>2022-05-24 08:59:49</time>
      </trkpt>
      <trkpt lat="41.20937" lon="0.86726">
        <ele>527.6</ele>
        <time>2022-05-24 08:59:50</time>
      </trkpt>
      <trkpt lat="41.20936" lon="0.86724">
        <ele>527.8</ele>
        <time>2022-05-24 08:59:51</time>
      </trkpt>
      <trkpt lat="41.20934" lon="0.86723">
        <ele>528</ele>
        <time>2022-05-24 08:59:52</time>
      </trkpt>
      <trkpt lat="41.20933" lon="0.86721">
        <ele>528.2</ele>
        <time>2022-05-24 08:59:53</time>
      </trkpt>
      <trkpt lat="41.20931" lon="0.8672">
        <ele>528.2</ele>
        <time>2022-05-24 08:59:54</time>
      </trkpt>
      <trkpt lat="41.20929" lon="0.86719">
        <ele>528.4</ele>
        <time>2022-05-24 08:59:55</time>
      </trkpt>
      <trkpt lat="41.20928" lon="0.86718">
        <ele>528.6</ele>
        <time>2022-05-24 08:59:56</time>
      </trkpt>
      <trkpt lat="41.20926" lon="0.86717">
        <ele>528.8</ele>
        <time>2022-05-24 08:59:57</time>
      </trkpt>
      <trkpt lat="41.20924" lon="0.86716">
        <ele>529</ele>
        <time>2022-05-24 08:59:58</time>
      </trkpt>
      <trkpt lat="41.20923" lon="0.86715">
        <ele>529.2</ele>
        <time>2022-05-24 08:59:59</time>
      </trkpt>
      <trkpt lat="41.2092" lon="0.86715">
        <ele>529.4</ele>
        <time>2022-05-24 09:00:00</time>
      </trkpt>
      <trkpt lat="41.20919" lon="0.86715">
        <ele>529.6</ele>
        <time>2022-05-24 09:00:01</time>
      </trkpt>
      <trkpt lat="41.20916" lon="0.86714">
        <ele>529.6</ele>
        <time>2022-05-24 09:00:02</time>
      </trkpt>
      <trkpt lat="41.20914" lon="0.86714">
        <ele>529.8</ele>
        <time>2022-05-24 09:00:03</time>
      </trkpt>
      <trkpt lat="41.20912" lon="0.86714">
        <ele>530</ele>
        <time>2022-05-24 09:00:04</time>
      </trkpt>
      <trkpt lat="41.2091" lon="0.86714">
        <ele>530.2</ele>
        <time>2022-05-24 09:00:05</time>
      </trkpt>
      <trkpt lat="41.20908" lon="0.86714">
        <ele>530.4</ele>
        <time>2022-05-24 09:00:06</time>
      </trkpt>
      <trkpt lat="41.20906" lon="0.86715">
        <ele>530.4</ele>
        <time>2022-05-24 09:00:07</time>
      </trkpt>
      <trkpt lat="41.20903" lon="0.86715">
        <ele>530.6</ele>
        <time>2022-05-24 09:00:08</time>
      </trkpt>
      <trkpt lat="41.20901" lon="0.86715">
        <ele>530.8</ele>
        <time>2022-05-24 09:00:09</time>
      </trkpt>
      <trkpt lat="41.20899" lon="0.86715">
        <ele>531</ele>
        <time>2022-05-24 09:00:10</time>
      </trkpt>
      <trkpt lat="41.20897" lon="0.86715">
        <ele>531.2</ele>
        <time>2022-05-24 09:00:11</time>
      </trkpt>
      <trkpt lat="41.20895" lon="0.86715">
        <ele>531.4</ele>
        <time>2022-05-24 09:00:12</time>
      </trkpt>
      <trkpt lat="41.20893" lon="0.86715">
        <ele>531.6</ele>
        <time>2022-05-24 09:00:13</time>
      </trkpt>
      <trkpt lat="41.2089" lon="0.86715">
        <ele>531.6</ele>
        <time>2022-05-24 09:00:14</time>
      </trkpt>
      <trkpt lat="41.20889" lon="0.86715">
        <ele>531.8</ele>
        <time>2022-05-24 09:00:15</time>
      </trkpt>
      <trkpt lat="41.20886" lon="0.86714">
        <ele>532</ele>
        <time>2022-05-24 09:00:16</time>
      </trkpt>
      <trkpt lat="41.20884" lon="0.86714">
        <ele>532.2</ele>
        <time>2022-05-24 09:00:17</time>
      </trkpt>
      <trkpt lat="41.20882" lon="0.86714">
        <ele>532.4</ele>
        <time>2022-05-24 09:00:18</time>
      </trkpt>
      <trkpt lat="41.2088" lon="0.86713">
        <ele>532.6</ele>
        <time>2022-05-24 09:00:19</time>
      </trkpt>
      <trkpt lat="41.20878" lon="0.86713">
        <ele>532.8</ele>
        <time>2022-05-24 09:00:20</time>
      </trkpt>
      <trkpt lat="41.20876" lon="0.86712">
        <ele>533</ele>
        <time>2022-05-24 09:00:21</time>
      </trkpt>
      <trkpt lat="41.20874" lon="0.86711">
        <ele>533.2</ele>
        <time>2022-05-24 09:00:22</time>
      </trkpt>
      <trkpt lat="41.20873" lon="0.8671">
        <ele>533.2</ele>
        <time>2022-05-24 09:00:23</time>
      </trkpt>
      <trkpt lat="41.20871" lon="0.86709">
        <ele>533.4</ele>
        <time>2022-05-24 09:00:24</time>
      </trkpt>
      <trkpt lat="41.20869" lon="0.86708">
        <ele>533.6</ele>
        <time>2022-05-24 09:00:25</time>
      </trkpt>
      <trkpt lat="41.20867" lon="0.86707">
        <ele>533.8</ele>
        <time>2022-05-24 09:00:26</time>
      </trkpt>
      <trkpt lat="41.20865" lon="0.86706">
        <ele>534</ele>
        <time>2022-05-24 09:00:27</time>
      </trkpt>
      <trkpt lat="41.20863" lon="0.86705">
        <ele>534.2</ele>
        <time>2022-05-24 09:00:28</time>
      </trkpt>
      <trkpt lat="41.20861" lon="0.86703">
        <ele>534.2</ele>
        <time>2022-05-24 09:00:29</time>
      </trkpt>
      <trkpt lat="41.20859" lon="0.86702">
        <ele>534.4</ele>
        <time>2022-05-24 09:00:30</time>
      </trkpt>
      <trkpt lat="41.20858" lon="0.86701">
        <ele>534.6</ele>
        <time>2022-05-24 09:00:31</time>
      </trkpt>
      <trkpt lat="41.20856" lon="0.86699">
        <ele>534.8</ele>
        <time>2022-05-24 09:00:32</time>
      </trkpt>
      <trkpt lat="41.20854" lon="0.86697">
        <ele>535</ele>
        <time>2022-05-24 09:00:33</time>
      </trkpt>
      <trkpt lat="41.20852" lon="0.86696">
        <ele>535.2</ele>
        <time>2022-05-24 09:00:34</time>
      </trkpt>
      <trkpt lat="41.2085" lon="0.86695">
        <ele>535.4</ele>
        <time>2022-05-24 09:00:35</time>
      </trkpt>
      <trkpt lat="41.20848" lon="0.86694">
        <ele>535.6</ele>
        <time>2022-05-24 09:00:36</time>
      </trkpt>
      <trkpt lat="41.20847" lon="0.86692">
        <ele>535.8</ele>
        <time>2022-05-24 09:00:37</time>
      </trkpt>
      <trkpt lat="41.20845" lon="0.8669">
        <ele>536</ele>
        <time>2022-05-24 09:00:38</time>
      </trkpt>
      <trkpt lat="41.20843" lon="0.86689">
        <ele>536.2</ele>
        <time>2022-05-24 09:00:39</time>
      </trkpt>
      <trkpt lat="41.20841" lon="0.86687">
        <ele>536.4</ele>
        <time>2022-05-24 09:00:40</time>
      </trkpt>
      <trkpt lat="41.20839" lon="0.86685">
        <ele>536.4</ele>
        <time>2022-05-24 09:00:41</time>
      </trkpt>
      <trkpt lat="41.20837" lon="0.86684">
        <ele>536.6</ele>
        <time>2022-05-24 09:00:42</time>
      </trkpt>
      <trkpt lat="41.20835" lon="0.86682">
        <ele>536.8</ele>
        <time>2022-05-24 09:00:43</time>
      </trkpt>
      <trkpt lat="41.20834" lon="0.8668">
        <ele>537</ele>
        <time>2022-05-24 09:00:44</time>
      </trkpt>
      <trkpt lat="41.20832" lon="0.86679">
        <ele>537.2</ele>
        <time>2022-05-24 09:00:45</time>
      </trkpt>
      <trkpt lat="41.2083" lon="0.86677">
        <ele>537.2</ele>
        <time>2022-05-24 09:00:46</time>
      </trkpt>
      <trkpt lat="41.20829" lon="0.86675">
        <ele>537.4</ele>
        <time>2022-05-24 09:00:47</time>
      </trkpt>
      <trkpt lat="41.20827" lon="0.86674">
        <ele>537.4</ele>
        <time>2022-05-24 09:00:48</time>
      </trkpt>
      <trkpt lat="41.20825" lon="0.86672">
        <ele>537.8</ele>
        <time>2022-05-24 09:00:49</time>
      </trkpt>
      <trkpt lat="41.20823" lon="0.86671">
        <ele>538</ele>
        <time>2022-05-24 09:00:50</time>
      </trkpt>
      <trkpt lat="41.20821" lon="0.86669">
        <ele>538.2</ele>
        <time>2022-05-24 09:00:51</time>
      </trkpt>
      <trkpt lat="41.2082" lon="0.86668">
        <ele>538.2</ele>
        <time>2022-05-24 09:00:52</time>
      </trkpt>
      <trkpt lat="41.20818" lon="0.86666">
        <ele>538.4</ele>
        <time>2022-05-24 09:00:53</time>
      </trkpt>
      <trkpt lat="41.20816" lon="0.86664">
        <ele>538.6</ele>
        <time>2022-05-24 09:00:54</time>
      </trkpt>
      <trkpt lat="41.20815" lon="0.86662">
        <ele>538.8</ele>
        <time>2022-05-24 09:00:55</time>
      </trkpt>
      <trkpt lat="41.20813" lon="0.86659">
        <ele>539</ele>
        <time>2022-05-24 09:00:56</time>
      </trkpt>
      <trkpt lat="41.20813" lon="0.86657">
        <ele>539.2</ele>
        <time>2022-05-24 09:00:57</time>
      </trkpt>
      <trkpt lat="41.20812" lon="0.86654">
        <ele>539.4</ele>
        <time>2022-05-24 09:00:58</time>
      </trkpt>
      <trkpt lat="41.20811" lon="0.86651">
        <ele>539.6</ele>
        <time>2022-05-24 09:00:59</time>
      </trkpt>
      <trkpt lat="41.20811" lon="0.86648">
        <ele>539.8</ele>
        <time>2022-05-24 09:01:00</time>
      </trkpt>
      <trkpt lat="41.20811" lon="0.86646">
        <ele>539.8</ele>
        <time>2022-05-24 09:01:01</time>
      </trkpt>
      <trkpt lat="41.20811" lon="0.86643">
        <ele>540</ele>
        <time>2022-05-24 09:01:02</time>
      </trkpt>
      <trkpt lat="41.20811" lon="0.8664">
        <ele>540.2</ele>
        <time>2022-05-24 09:01:03</time>
      </trkpt>
      <trkpt lat="41.20811" lon="0.86638">
        <ele>540.4</ele>
        <time>2022-05-24 09:01:04</time>
      </trkpt>
      <trkpt lat="41.20812" lon="0.86635">
        <ele>540.6</ele>
        <time>2022-05-24 09:01:05</time>
      </trkpt>
      <trkpt lat="41.20813" lon="0.86632">
        <ele>540.8</ele>
        <time>2022-05-24 09:01:06</time>
      </trkpt>
      <trkpt lat="41.20813" lon="0.86629">
        <ele>541.2</ele>
        <time>2022-05-24 09:01:07</time>
      </trkpt>
      <trkpt lat="41.20814" lon="0.86626">
        <ele>541.4</ele>
        <time>2022-05-24 09:01:08</time>
      </trkpt>
      <trkpt lat="41.20815" lon="0.86624">
        <ele>541.6</ele>
        <time>2022-05-24 09:01:09</time>
      </trkpt>
      <trkpt lat="41.20816" lon="0.86621">
        <ele>541.8</ele>
        <time>2022-05-24 09:01:10</time>
      </trkpt>
      <trkpt lat="41.20817" lon="0.86619">
        <ele>542</ele>
        <time>2022-05-24 09:01:11</time>
      </trkpt>
      <trkpt lat="41.20817" lon="0.86616">
        <ele>542.4</ele>
        <time>2022-05-24 09:01:12</time>
      </trkpt>
      <trkpt lat="41.20818" lon="0.86613">
        <ele>542.6</ele>
        <time>2022-05-24 09:01:13</time>
      </trkpt>
      <trkpt lat="41.20818" lon="0.86611">
        <ele>542.8</ele>
        <time>2022-05-24 09:01:14</time>
      </trkpt>
      <trkpt lat="41.20818" lon="0.86608">
        <ele>543</ele>
        <time>2022-05-24 09:01:15</time>
      </trkpt>
      <trkpt lat="41.20818" lon="0.86605">
        <ele>543.2</ele>
        <time>2022-05-24 09:01:16</time>
      </trkpt>
      <trkpt lat="41.20819" lon="0.86602">
        <ele>543.6</ele>
        <time>2022-05-24 09:01:17</time>
      </trkpt>
      <trkpt lat="41.20819" lon="0.86599">
        <ele>543.8</ele>
        <time>2022-05-24 09:01:18</time>
      </trkpt>
      <trkpt lat="41.20819" lon="0.86596">
        <ele>544</ele>
        <time>2022-05-24 09:01:19</time>
      </trkpt>
      <trkpt lat="41.20819" lon="0.86594">
        <ele>544.2</ele>
        <time>2022-05-24 09:01:20</time>
      </trkpt>
      <trkpt lat="41.20819" lon="0.86591">
        <ele>544.4</ele>
        <time>2022-05-24 09:01:21</time>
      </trkpt>
      <trkpt lat="41.20819" lon="0.86588">
        <ele>544.6</ele>
        <time>2022-05-24 09:01:22</time>
      </trkpt>
      <trkpt lat="41.20819" lon="0.86585">
        <ele>544.8</ele>
        <time>2022-05-24 09:01:23</time>
      </trkpt>
      <trkpt lat="41.20819" lon="0.86582">
        <ele>545</ele>
        <time>2022-05-24 09:01:24</time>
      </trkpt>
      <trkpt lat="41.20818" lon="0.86579">
        <ele>545.2</ele>
        <time>2022-05-24 09:01:25</time>
      </trkpt>
      <trkpt lat="41.20818" lon="0.86577">
        <ele>545.4</ele>
        <time>2022-05-24 09:01:26</time>
      </trkpt>
      <trkpt lat="41.20817" lon="0.86575">
        <ele>545.6</ele>
        <time>2022-05-24 09:01:27</time>
      </trkpt>
      <trkpt lat="41.20817" lon="0.86572">
        <ele>545.8</ele>
        <time>2022-05-24 09:01:28</time>
      </trkpt>
      <trkpt lat="41.20816" lon="0.8657">
        <ele>546.2</ele>
        <time>2022-05-24 09:01:29</time>
      </trkpt>
      <trkpt lat="41.20815" lon="0.86568">
        <ele>546.2</ele>
        <time>2022-05-24 09:01:30</time>
      </trkpt>
      <trkpt lat="41.20814" lon="0.86565">
        <ele>546.4</ele>
        <time>2022-05-24 09:01:31</time>
      </trkpt>
      <trkpt lat="41.20813" lon="0.86563">
        <ele>546.6</ele>
        <time>2022-05-24 09:01:32</time>
      </trkpt>
      <trkpt lat="41.20812" lon="0.86561">
        <ele>546.8</ele>
        <time>2022-05-24 09:01:33</time>
      </trkpt>
      <trkpt lat="41.20811" lon="0.86559">
        <ele>547</ele>
        <time>2022-05-24 09:01:34</time>
      </trkpt>
      <trkpt lat="41.2081" lon="0.86558">
        <ele>547.2</ele>
        <time>2022-05-24 09:01:35</time>
      </trkpt>
      <trkpt lat="41.20808" lon="0.86556">
        <ele>547.4</ele>
        <time>2022-05-24 09:01:36</time>
      </trkpt>
      <trkpt lat="41.20807" lon="0.86554">
        <ele>547.6</ele>
        <time>2022-05-24 09:01:37</time>
      </trkpt>
      <trkpt lat="41.20805" lon="0.86551">
        <ele>547.8</ele>
        <time>2022-05-24 09:01:38</time>
      </trkpt>
      <trkpt lat="41.20804" lon="0.86549">
        <ele>548</ele>
        <time>2022-05-24 09:01:39</time>
      </trkpt>
      <trkpt lat="41.20803" lon="0.86547">
        <ele>548.2</ele>
        <time>2022-05-24 09:01:40</time>
      </trkpt>
      <trkpt lat="41.20801" lon="0.86545">
        <ele>548.6</ele>
        <time>2022-05-24 09:01:41</time>
      </trkpt>
      <trkpt lat="41.20799" lon="0.86543">
        <ele>548.8</ele>
        <time>2022-05-24 09:01:42</time>
      </trkpt>
      <trkpt lat="41.20798" lon="0.86541">
        <ele>549</ele>
        <time>2022-05-24 09:01:43</time>
      </trkpt>
      <trkpt lat="41.20797" lon="0.86538">
        <ele>549.2</ele>
        <time>2022-05-24 09:01:44</time>
      </trkpt>
      <trkpt lat="41.20795" lon="0.86536">
        <ele>549.2</ele>
        <time>2022-05-24 09:01:45</time>
      </trkpt>
      <trkpt lat="41.20794" lon="0.86534">
        <ele>549.6</ele>
        <time>2022-05-24 09:01:46</time>
      </trkpt>
      <trkpt lat="41.20792" lon="0.86532">
        <ele>549.6</ele>
        <time>2022-05-24 09:01:47</time>
      </trkpt>
      <trkpt lat="41.20791" lon="0.8653">
        <ele>549.8</ele>
        <time>2022-05-24 09:01:48</time>
      </trkpt>
      <trkpt lat="41.20789" lon="0.86527">
        <ele>550</ele>
        <time>2022-05-24 09:01:49</time>
      </trkpt>
      <trkpt lat="41.20788" lon="0.86525">
        <ele>550</ele>
        <time>2022-05-24 09:01:50</time>
      </trkpt>
      <trkpt lat="41.20787" lon="0.86523">
        <ele>550.2</ele>
        <time>2022-05-24 09:01:51</time>
      </trkpt>
      <trkpt lat="41.20785" lon="0.8652">
        <ele>550.2</ele>
        <time>2022-05-24 09:01:52</time>
      </trkpt>
      <trkpt lat="41.20784" lon="0.86518">
        <ele>550.4</ele>
        <time>2022-05-24 09:01:53</time>
      </trkpt>
      <trkpt lat="41.20782" lon="0.86516">
        <ele>550.4</ele>
        <time>2022-05-24 09:01:54</time>
      </trkpt>
      <trkpt lat="41.20781" lon="0.86514">
        <ele>550.6</ele>
        <time>2022-05-24 09:01:55</time>
      </trkpt>
      <trkpt lat="41.20779" lon="0.86512">
        <ele>550.6</ele>
        <time>2022-05-24 09:01:56</time>
      </trkpt>
      <trkpt lat="41.20777" lon="0.8651">
        <ele>550.8</ele>
        <time>2022-05-24 09:01:57</time>
      </trkpt>
      <trkpt lat="41.20776" lon="0.86508">
        <ele>550.8</ele>
        <time>2022-05-24 09:01:58</time>
      </trkpt>
      <trkpt lat="41.20775" lon="0.86506">
        <ele>550.8</ele>
        <time>2022-05-24 09:01:59</time>
      </trkpt>
      <trkpt lat="41.20773" lon="0.86504">
        <ele>551</ele>
        <time>2022-05-24 09:02:00</time>
      </trkpt>
      <trkpt lat="41.20772" lon="0.86501">
        <ele>551</ele>
        <time>2022-05-24 09:02:01</time>
      </trkpt>
      <trkpt lat="41.2077" lon="0.86499">
        <ele>551.2</ele>
        <time>2022-05-24 09:02:02</time>
      </trkpt>
      <trkpt lat="41.20769" lon="0.86497">
        <ele>551.2</ele>
        <time>2022-05-24 09:02:03</time>
      </trkpt>
      <trkpt lat="41.20767" lon="0.86495">
        <ele>551.4</ele>
        <time>2022-05-24 09:02:04</time>
      </trkpt>
      <trkpt lat="41.20766" lon="0.86492">
        <ele>551.4</ele>
        <time>2022-05-24 09:02:05</time>
      </trkpt>
      <trkpt lat="41.20764" lon="0.8649">
        <ele>551.4</ele>
        <time>2022-05-24 09:02:06</time>
      </trkpt>
      <trkpt lat="41.20761" lon="0.86488">
        <ele>551.4</ele>
        <time>2022-05-24 09:02:07</time>
      </trkpt>
      <trkpt lat="41.2076" lon="0.86485">
        <ele>551.4</ele>
        <time>2022-05-24 09:02:08</time>
      </trkpt>
      <trkpt lat="41.20758" lon="0.86483">
        <ele>551.4</ele>
        <time>2022-05-24 09:02:09</time>
      </trkpt>
      <trkpt lat="41.20755" lon="0.8648">
        <ele>551.4</ele>
        <time>2022-05-24 09:02:10</time>
      </trkpt>
      <trkpt lat="41.20752" lon="0.86477">
        <ele>551.4</ele>
        <time>2022-05-24 09:02:11</time>
      </trkpt>
      <trkpt lat="41.2075" lon="0.86475">
        <ele>551.4</ele>
        <time>2022-05-24 09:02:12</time>
      </trkpt>
      <trkpt lat="41.20747" lon="0.86472">
        <ele>551.2</ele>
        <time>2022-05-24 09:02:13</time>
      </trkpt>
      <trkpt lat="41.20744" lon="0.86469">
        <ele>551.2</ele>
        <time>2022-05-24 09:02:14</time>
      </trkpt>
      <trkpt lat="41.20742" lon="0.86466">
        <ele>551</ele>
        <time>2022-05-24 09:02:15</time>
      </trkpt>
      <trkpt lat="41.20738" lon="0.86462">
        <ele>551</ele>
        <time>2022-05-24 09:02:16</time>
      </trkpt>
      <trkpt lat="41.20735" lon="0.86459">
        <ele>550.8</ele>
        <time>2022-05-24 09:02:17</time>
      </trkpt>
      <trkpt lat="41.20731" lon="0.86456">
        <ele>550.6</ele>
        <time>2022-05-24 09:02:18</time>
      </trkpt>
      <trkpt lat="41.20729" lon="0.86453">
        <ele>550.4</ele>
        <time>2022-05-24 09:02:19</time>
      </trkpt>
      <trkpt lat="41.20725" lon="0.86448">
        <ele>550.2</ele>
        <time>2022-05-24 09:02:20</time>
      </trkpt>
      <trkpt lat="41.20721" lon="0.86444">
        <ele>550</ele>
        <time>2022-05-24 09:02:21</time>
      </trkpt>
      <trkpt lat="41.20719" lon="0.86441">
        <ele>550</ele>
        <time>2022-05-24 09:02:22</time>
      </trkpt>
      <trkpt lat="41.20715" lon="0.86435">
        <ele>549.6</ele>
        <time>2022-05-24 09:02:23</time>
      </trkpt>
      <trkpt lat="41.20711" lon="0.86431">
        <ele>549.2</ele>
        <time>2022-05-24 09:02:24</time>
      </trkpt>
      <trkpt lat="41.20707" lon="0.86424">
        <ele>548.8</ele>
        <time>2022-05-24 09:02:25</time>
      </trkpt>
      <trkpt lat="41.20705" lon="0.86418">
        <ele>548.6</ele>
        <time>2022-05-24 09:02:26</time>
      </trkpt>
      <trkpt lat="41.20702" lon="0.86409">
        <ele>548.2</ele>
        <time>2022-05-24 09:02:27</time>
      </trkpt>
      <trkpt lat="41.207" lon="0.86402">
        <ele>547.8</ele>
        <time>2022-05-24 09:02:28</time>
      </trkpt>
      <trkpt lat="41.20697" lon="0.86393">
        <ele>547.2</ele>
        <time>2022-05-24 09:02:29</time>
      </trkpt>
      <trkpt lat="41.20692" lon="0.86385">
        <ele>546.8</ele>
        <time>2022-05-24 09:02:30</time>
      </trkpt>
      <trkpt lat="41.20684" lon="0.8638">
        <ele>545.8</ele>
        <time>2022-05-24 09:02:31</time>
      </trkpt>
      <trkpt lat="41.20675" lon="0.86377">
        <ele>545</ele>
        <time>2022-05-24 09:02:32</time>
      </trkpt>
      <trkpt lat="41.20665" lon="0.86377">
        <ele>544.2</ele>
        <time>2022-05-24 09:02:33</time>
      </trkpt>
      <trkpt lat="41.20658" lon="0.86382">
        <ele>543.4</ele>
        <time>2022-05-24 09:02:34</time>
      </trkpt>
      <trkpt lat="41.20649" lon="0.8639">
        <ele>542.4</ele>
        <time>2022-05-24 09:02:35</time>
      </trkpt>
      <trkpt lat="41.20641" lon="0.86397">
        <ele>541.2</ele>
        <time>2022-05-24 09:02:36</time>
      </trkpt>
      <trkpt lat="41.20632" lon="0.86405">
        <ele>540.2</ele>
        <time>2022-05-24 09:02:37</time>
      </trkpt>
      <trkpt lat="41.20622" lon="0.86412">
        <ele>539</ele>
        <time>2022-05-24 09:02:38</time>
      </trkpt>
      <trkpt lat="41.20612" lon="0.86416">
        <ele>537.8</ele>
        <time>2022-05-24 09:02:39</time>
      </trkpt>
      <trkpt lat="41.20601" lon="0.86416">
        <ele>536.6</ele>
        <time>2022-05-24 09:02:40</time>
      </trkpt>
      <trkpt lat="41.2059" lon="0.86412">
        <ele>535.6</ele>
        <time>2022-05-24 09:02:41</time>
      </trkpt>
      <trkpt lat="41.2058" lon="0.86403">
        <ele>534.8</ele>
        <time>2022-05-24 09:02:42</time>
      </trkpt>
      <trkpt lat="41.20572" lon="0.86394">
        <ele>533.8</ele>
        <time>2022-05-24 09:02:43</time>
      </trkpt>
      <trkpt lat="41.20563" lon="0.86381">
        <ele>532.6</ele>
        <time>2022-05-24 09:02:44</time>
      </trkpt>
      <trkpt lat="41.20554" lon="0.86368">
        <ele>531.4</ele>
        <time>2022-05-24 09:02:45</time>
      </trkpt>
      <trkpt lat="41.20546" lon="0.86355">
        <ele>530.2</ele>
        <time>2022-05-24 09:02:46</time>
      </trkpt>
      <trkpt lat="41.20539" lon="0.86341">
        <ele>529.2</ele>
        <time>2022-05-24 09:02:47</time>
      </trkpt>
      <trkpt lat="41.20532" lon="0.86325">
        <ele>528.2</ele>
        <time>2022-05-24 09:02:48</time>
      </trkpt>
      <trkpt lat="41.20527" lon="0.86308">
        <ele>527.4</ele>
        <time>2022-05-24 09:02:49</time>
      </trkpt>
      <trkpt lat="41.20523" lon="0.86292">
        <ele>526.4</ele>
        <time>2022-05-24 09:02:50</time>
      </trkpt>
      <trkpt lat="41.20521" lon="0.86273">
        <ele>525.6</ele>
        <time>2022-05-24 09:02:51</time>
      </trkpt>
      <trkpt lat="41.20519" lon="0.86257">
        <ele>525</ele>
        <time>2022-05-24 09:02:52</time>
      </trkpt>
      <trkpt lat="41.20518" lon="0.86243">
        <ele>524.4</ele>
        <time>2022-05-24 09:02:53</time>
      </trkpt>
      <trkpt lat="41.20515" lon="0.86225">
        <ele>523.8</ele>
        <time>2022-05-24 09:02:54</time>
      </trkpt>
      <trkpt lat="41.20513" lon="0.8621">
        <ele>522.8</ele>
        <time>2022-05-24 09:02:55</time>
      </trkpt>
      <trkpt lat="41.20511" lon="0.86193">
        <ele>522</ele>
        <time>2022-05-24 09:02:56</time>
      </trkpt>
      <trkpt lat="41.20509" lon="0.86176">
        <ele>521.2</ele>
        <time>2022-05-24 09:02:57</time>
      </trkpt>
      <trkpt lat="41.20506" lon="0.86163">
        <ele>520.2</ele>
        <time>2022-05-24 09:02:58</time>
      </trkpt>
      <trkpt lat="41.20502" lon="0.86149">
        <ele>519.2</ele>
        <time>2022-05-24 09:02:59</time>
      </trkpt>
      <trkpt lat="41.20497" lon="0.86136">
        <ele>518.2</ele>
        <time>2022-05-24 09:03:00</time>
      </trkpt>
      <trkpt lat="41.20489" lon="0.86127">
        <ele>517</ele>
        <time>2022-05-24 09:03:01</time>
      </trkpt>
      <trkpt lat="41.20479" lon="0.86121">
        <ele>515.8</ele>
        <time>2022-05-24 09:03:02</time>
      </trkpt>
      <trkpt lat="41.20467" lon="0.86123">
        <ele>514.6</ele>
        <time>2022-05-24 09:03:03</time>
      </trkpt>
      <trkpt lat="41.20457" lon="0.86133">
        <ele>514</ele>
        <time>2022-05-24 09:03:04</time>
      </trkpt>
      <trkpt lat="41.20451" lon="0.86144">
        <ele>513</ele>
        <time>2022-05-24 09:03:05</time>
      </trkpt>
      <trkpt lat="41.20444" lon="0.86157">
        <ele>512.4</ele>
        <time>2022-05-24 09:03:06</time>
      </trkpt>
      <trkpt lat="41.20438" lon="0.8617">
        <ele>511.6</ele>
        <time>2022-05-24 09:03:07</time>
      </trkpt>
      <trkpt lat="41.20432" lon="0.8618">
        <ele>510.8</ele>
        <time>2022-05-24 09:03:08</time>
      </trkpt>
      <trkpt lat="41.20423" lon="0.8619">
        <ele>510</ele>
        <time>2022-05-24 09:03:09</time>
      </trkpt>
      <trkpt lat="41.20413" lon="0.86197">
        <ele>509.2</ele>
        <time>2022-05-24 09:03:10</time>
      </trkpt>
      <trkpt lat="41.20403" lon="0.86202">
        <ele>508.4</ele>
        <time>2022-05-24 09:03:11</time>
      </trkpt>
      <trkpt lat="41.20392" lon="0.86207">
        <ele>507.4</ele>
        <time>2022-05-24 09:03:12</time>
      </trkpt>
      <trkpt lat="41.2038" lon="0.86211">
        <ele>506.6</ele>
        <time>2022-05-24 09:03:13</time>
      </trkpt>
      <trkpt lat="41.2037" lon="0.86214">
        <ele>505.8</ele>
        <time>2022-05-24 09:03:14</time>
      </trkpt>
      <trkpt lat="41.20358" lon="0.86215">
        <ele>505</ele>
        <time>2022-05-24 09:03:15</time>
      </trkpt>
      <trkpt lat="41.20346" lon="0.86215">
        <ele>504</ele>
        <time>2022-05-24 09:03:16</time>
      </trkpt>
      <trkpt lat="41.20333" lon="0.86212">
        <ele>502.6</ele>
        <time>2022-05-24 09:03:17</time>
      </trkpt>
      <trkpt lat="41.20321" lon="0.86209">
        <ele>501</ele>
        <time>2022-05-24 09:03:18</time>
      </trkpt>
      <trkpt lat="41.20306" lon="0.86205">
        <ele>499</ele>
        <time>2022-05-24 09:03:19</time>
      </trkpt>
      <trkpt lat="41.20294" lon="0.862">
        <ele>497.4</ele>
        <time>2022-05-24 09:03:20</time>
      </trkpt>
      <trkpt lat="41.20282" lon="0.86194">
        <ele>495.6</ele>
        <time>2022-05-24 09:03:21</time>
      </trkpt>
      <trkpt lat="41.2027" lon="0.86187">
        <ele>494</ele>
        <time>2022-05-24 09:03:22</time>
      </trkpt>
      <trkpt lat="41.20257" lon="0.86178">
        <ele>492.4</ele>
        <time>2022-05-24 09:03:23</time>
      </trkpt>
      <trkpt lat="41.20244" lon="0.86172">
        <ele>490.8</ele>
        <time>2022-05-24 09:03:24</time>
      </trkpt>
      <trkpt lat="41.2023" lon="0.86168">
        <ele>489.4</ele>
        <time>2022-05-24 09:03:25</time>
      </trkpt>
      <trkpt lat="41.20218" lon="0.86167">
        <ele>488.2</ele>
        <time>2022-05-24 09:03:26</time>
      </trkpt>
      <trkpt lat="41.20204" lon="0.86167">
        <ele>486.4</ele>
        <time>2022-05-24 09:03:27</time>
      </trkpt>
      <trkpt lat="41.20192" lon="0.86162">
        <ele>484.6</ele>
        <time>2022-05-24 09:03:28</time>
      </trkpt>
      <trkpt lat="41.20181" lon="0.86153">
        <ele>482.8</ele>
        <time>2022-05-24 09:03:29</time>
      </trkpt>
      <trkpt lat="41.20174" lon="0.8614">
        <ele>481.2</ele>
        <time>2022-05-24 09:03:30</time>
      </trkpt>
      <trkpt lat="41.20168" lon="0.86126">
        <ele>479.6</ele>
        <time>2022-05-24 09:03:31</time>
      </trkpt>
      <trkpt lat="41.20162" lon="0.86109">
        <ele>478.4</ele>
        <time>2022-05-24 09:03:32</time>
      </trkpt>
      <trkpt lat="41.20155" lon="0.86093">
        <ele>477</ele>
        <time>2022-05-24 09:03:33</time>
      </trkpt>
      <trkpt lat="41.20148" lon="0.86081">
        <ele>475.6</ele>
        <time>2022-05-24 09:03:34</time>
      </trkpt>
      <trkpt lat="41.20138" lon="0.86069">
        <ele>474</ele>
        <time>2022-05-24 09:03:35</time>
      </trkpt>
      <trkpt lat="41.20126" lon="0.86061">
        <ele>472.6</ele>
        <time>2022-05-24 09:03:36</time>
      </trkpt>
      <trkpt lat="41.20115" lon="0.86053">
        <ele>471.6</ele>
        <time>2022-05-24 09:03:37</time>
      </trkpt>
      <trkpt lat="41.20106" lon="0.86044">
        <ele>470.2</ele>
        <time>2022-05-24 09:03:38</time>
      </trkpt>
      <trkpt lat="41.201" lon="0.86032">
        <ele>468.8</ele>
        <time>2022-05-24 09:03:39</time>
      </trkpt>
      <trkpt lat="41.20097" lon="0.86016">
        <ele>467.4</ele>
        <time>2022-05-24 09:03:40</time>
      </trkpt>
      <trkpt lat="41.20102" lon="0.85999">
        <ele>466.2</ele>
        <time>2022-05-24 09:03:41</time>
      </trkpt>
      <trkpt lat="41.20111" lon="0.85985">
        <ele>465</ele>
        <time>2022-05-24 09:03:42</time>
      </trkpt>
      <trkpt lat="41.2012" lon="0.85973">
        <ele>463.6</ele>
        <time>2022-05-24 09:03:43</time>
      </trkpt>
      <trkpt lat="41.2013" lon="0.85962">
        <ele>462.2</ele>
        <time>2022-05-24 09:03:44</time>
      </trkpt>
      <trkpt lat="41.20139" lon="0.85949">
        <ele>461</ele>
        <time>2022-05-24 09:03:45</time>
      </trkpt>
      <trkpt lat="41.20146" lon="0.85939">
        <ele>459.8</ele>
        <time>2022-05-24 09:03:46</time>
      </trkpt>
      <trkpt lat="41.20152" lon="0.85929">
        <ele>459.2</ele>
        <time>2022-05-24 09:03:47</time>
      </trkpt>
      <trkpt lat="41.20159" lon="0.85919">
        <ele>458.2</ele>
        <time>2022-05-24 09:03:48</time>
      </trkpt>
      <trkpt lat="41.20166" lon="0.85908">
        <ele>457</ele>
        <time>2022-05-24 09:03:49</time>
      </trkpt>
      <trkpt lat="41.20168" lon="0.85895">
        <ele>456</ele>
        <time>2022-05-24 09:03:50</time>
      </trkpt>
      <trkpt lat="41.20166" lon="0.8588">
        <ele>454.8</ele>
        <time>2022-05-24 09:03:51</time>
      </trkpt>
      <trkpt lat="41.2016" lon="0.85865">
        <ele>453.8</ele>
        <time>2022-05-24 09:03:52</time>
      </trkpt>
      <trkpt lat="41.20152" lon="0.85853">
        <ele>453</ele>
        <time>2022-05-24 09:03:53</time>
      </trkpt>
      <trkpt lat="41.20145" lon="0.85843">
        <ele>452</ele>
        <time>2022-05-24 09:03:54</time>
      </trkpt>
      <trkpt lat="41.20137" lon="0.85832">
        <ele>451</ele>
        <time>2022-05-24 09:03:55</time>
      </trkpt>
      <trkpt lat="41.20129" lon="0.85822">
        <ele>449.8</ele>
        <time>2022-05-24 09:03:56</time>
      </trkpt>
      <trkpt lat="41.20117" lon="0.85813">
        <ele>448.4</ele>
        <time>2022-05-24 09:03:57</time>
      </trkpt>
      <trkpt lat="41.20104" lon="0.85811">
        <ele>447.2</ele>
        <time>2022-05-24 09:03:58</time>
      </trkpt>
      <trkpt lat="41.20092" lon="0.85819">
        <ele>446.2</ele>
        <time>2022-05-24 09:03:59</time>
      </trkpt>
      <trkpt lat="41.20083" lon="0.85829">
        <ele>445</ele>
        <time>2022-05-24 09:04:00</time>
      </trkpt>
      <trkpt lat="41.20073" lon="0.85842">
        <ele>443.6</ele>
        <time>2022-05-24 09:04:01</time>
      </trkpt>
      <trkpt lat="41.2006" lon="0.85853">
        <ele>442</ele>
        <time>2022-05-24 09:04:02</time>
      </trkpt>
      <trkpt lat="41.20048" lon="0.85861">
        <ele>440.6</ele>
        <time>2022-05-24 09:04:03</time>
      </trkpt>
      <trkpt lat="41.20035" lon="0.85866">
        <ele>439.2</ele>
        <time>2022-05-24 09:04:04</time>
      </trkpt>
      <trkpt lat="41.20023" lon="0.8587">
        <ele>437.8</ele>
        <time>2022-05-24 09:04:05</time>
      </trkpt>
      <trkpt lat="41.20008" lon="0.85875">
        <ele>436.4</ele>
        <time>2022-05-24 09:04:06</time>
      </trkpt>
      <trkpt lat="41.19994" lon="0.85879">
        <ele>435</ele>
        <time>2022-05-24 09:04:07</time>
      </trkpt>
      <trkpt lat="41.19979" lon="0.85881">
        <ele>433.6</ele>
        <time>2022-05-24 09:04:08</time>
      </trkpt>
      <trkpt lat="41.19966" lon="0.85882">
        <ele>432.4</ele>
        <time>2022-05-24 09:04:09</time>
      </trkpt>
      <trkpt lat="41.19953" lon="0.85882">
        <ele>431.4</ele>
        <time>2022-05-24 09:04:10</time>
      </trkpt>
      <trkpt lat="41.19937" lon="0.85881">
        <ele>430.4</ele>
        <time>2022-05-24 09:04:11</time>
      </trkpt>
      <trkpt lat="41.19924" lon="0.8588">
        <ele>429.2</ele>
        <time>2022-05-24 09:04:12</time>
      </trkpt>
      <trkpt lat="41.1991" lon="0.85879">
        <ele>427.8</ele>
        <time>2022-05-24 09:04:13</time>
      </trkpt>
      <trkpt lat="41.19896" lon="0.85878">
        <ele>426.4</ele>
        <time>2022-05-24 09:04:14</time>
      </trkpt>
      <trkpt lat="41.19883" lon="0.85877">
        <ele>425</ele>
        <time>2022-05-24 09:04:15</time>
      </trkpt>
      <trkpt lat="41.19867" lon="0.85881">
        <ele>423.6</ele>
        <time>2022-05-24 09:04:16</time>
      </trkpt>
      <trkpt lat="41.19854" lon="0.85888">
        <ele>422.2</ele>
        <time>2022-05-24 09:04:17</time>
      </trkpt>
      <trkpt lat="41.19843" lon="0.85899">
        <ele>421</ele>
        <time>2022-05-24 09:04:18</time>
      </trkpt>
      <trkpt lat="41.19834" lon="0.85915">
        <ele>419.8</ele>
        <time>2022-05-24 09:04:19</time>
      </trkpt>
      <trkpt lat="41.19826" lon="0.85934">
        <ele>418.8</ele>
        <time>2022-05-24 09:04:20</time>
      </trkpt>
      <trkpt lat="41.19821" lon="0.85949">
        <ele>418.2</ele>
        <time>2022-05-24 09:04:21</time>
      </trkpt>
      <trkpt lat="41.19816" lon="0.85965">
        <ele>417.2</ele>
        <time>2022-05-24 09:04:22</time>
      </trkpt>
      <trkpt lat="41.19811" lon="0.85977">
        <ele>416.2</ele>
        <time>2022-05-24 09:04:23</time>
      </trkpt>
      <trkpt lat="41.19805" lon="0.85985">
        <ele>415.4</ele>
        <time>2022-05-24 09:04:24</time>
      </trkpt>
      <trkpt lat="41.19796" lon="0.85988">
        <ele>414.2</ele>
        <time>2022-05-24 09:04:25</time>
      </trkpt>
      <trkpt lat="41.19784" lon="0.85982">
        <ele>413</ele>
        <time>2022-05-24 09:04:26</time>
      </trkpt>
      <trkpt lat="41.19777" lon="0.85976">
        <ele>411.8</ele>
        <time>2022-05-24 09:04:27</time>
      </trkpt>
      <trkpt lat="41.19768" lon="0.85962">
        <ele>410.2</ele>
        <time>2022-05-24 09:04:28</time>
      </trkpt>
      <trkpt lat="41.19761" lon="0.8595">
        <ele>408.6</ele>
        <time>2022-05-24 09:04:29</time>
      </trkpt>
      <trkpt lat="41.19756" lon="0.8594">
        <ele>407.2</ele>
        <time>2022-05-24 09:04:30</time>
      </trkpt>
      <trkpt lat="41.19752" lon="0.85927">
        <ele>406</ele>
        <time>2022-05-24 09:04:31</time>
      </trkpt>
      <trkpt lat="41.19754" lon="0.85913">
        <ele>405</ele>
        <time>2022-05-24 09:04:32</time>
      </trkpt>
      <trkpt lat="41.1976" lon="0.85903">
        <ele>404</ele>
        <time>2022-05-24 09:04:33</time>
      </trkpt>
      <trkpt lat="41.19768" lon="0.85898">
        <ele>403</ele>
        <time>2022-05-24 09:04:34</time>
      </trkpt>
      <trkpt lat="41.1978" lon="0.85896">
        <ele>402</ele>
        <time>2022-05-24 09:04:35</time>
      </trkpt>
      <trkpt lat="41.1979" lon="0.85893">
        <ele>401</ele>
        <time>2022-05-24 09:04:36</time>
      </trkpt>
      <trkpt lat="41.198" lon="0.85889">
        <ele>400.2</ele>
        <time>2022-05-24 09:04:37</time>
      </trkpt>
      <trkpt lat="41.19809" lon="0.85882">
        <ele>399.4</ele>
        <time>2022-05-24 09:04:38</time>
      </trkpt>
      <trkpt lat="41.19814" lon="0.85874">
        <ele>398.8</ele>
        <time>2022-05-24 09:04:39</time>
      </trkpt>
      <trkpt lat="41.19819" lon="0.85864">
        <ele>398.4</ele>
        <time>2022-05-24 09:04:40</time>
      </trkpt>
      <trkpt lat="41.19825" lon="0.85853">
        <ele>397.8</ele>
        <time>2022-05-24 09:04:41</time>
      </trkpt>
      <trkpt lat="41.19829" lon="0.85845">
        <ele>397.4</ele>
        <time>2022-05-24 09:04:42</time>
      </trkpt>
      <trkpt lat="41.19834" lon="0.85834">
        <ele>397</ele>
        <time>2022-05-24 09:04:43</time>
      </trkpt>
      <trkpt lat="41.1984" lon="0.85824">
        <ele>396.6</ele>
        <time>2022-05-24 09:04:44</time>
      </trkpt>
      <trkpt lat="41.19845" lon="0.85814">
        <ele>396.4</ele>
        <time>2022-05-24 09:04:45</time>
      </trkpt>
      <trkpt lat="41.19849" lon="0.85801">
        <ele>396.2</ele>
        <time>2022-05-24 09:04:46</time>
      </trkpt>
      <trkpt lat="41.19854" lon="0.85791">
        <ele>396</ele>
        <time>2022-05-24 09:04:47</time>
      </trkpt>
      <trkpt lat="41.19859" lon="0.85779">
        <ele>395.8</ele>
        <time>2022-05-24 09:04:48</time>
      </trkpt>
      <trkpt lat="41.19863" lon="0.85771">
        <ele>395.6</ele>
        <time>2022-05-24 09:04:49</time>
      </trkpt>
      <trkpt lat="41.19868" lon="0.85761">
        <ele>395.4</ele>
        <time>2022-05-24 09:04:50</time>
      </trkpt>
      <trkpt lat="41.19871" lon="0.85753">
        <ele>395.4</ele>
        <time>2022-05-24 09:04:51</time>
      </trkpt>
      <trkpt lat="41.19875" lon="0.85741">
        <ele>395.2</ele>
        <time>2022-05-24 09:04:52</time>
      </trkpt>
      <trkpt lat="41.19877" lon="0.85733">
        <ele>394.8</ele>
        <time>2022-05-24 09:04:53</time>
      </trkpt>
      <trkpt lat="41.19881" lon="0.85721">
        <ele>394.4</ele>
        <time>2022-05-24 09:04:54</time>
      </trkpt>
      <trkpt lat="41.19882" lon="0.85712">
        <ele>394</ele>
        <time>2022-05-24 09:04:55</time>
      </trkpt>
      <trkpt lat="41.19883" lon="0.85698">
        <ele>393.4</ele>
        <time>2022-05-24 09:04:56</time>
      </trkpt>
      <trkpt lat="41.19881" lon="0.85688">
        <ele>392.8</ele>
        <time>2022-05-24 09:04:57</time>
      </trkpt>
      <trkpt lat="41.19876" lon="0.85677">
        <ele>392.4</ele>
        <time>2022-05-24 09:04:58</time>
      </trkpt>
      <trkpt lat="41.1987" lon="0.85674">
        <ele>392</ele>
        <time>2022-05-24 09:04:59</time>
      </trkpt>
      <trkpt lat="41.19859" lon="0.85674">
        <ele>391.2</ele>
        <time>2022-05-24 09:05:00</time>
      </trkpt>
      <trkpt lat="41.1985" lon="0.85679">
        <ele>390.4</ele>
        <time>2022-05-24 09:05:01</time>
      </trkpt>
      <trkpt lat="41.19843" lon="0.85687">
        <ele>389.6</ele>
        <time>2022-05-24 09:05:02</time>
      </trkpt>
      <trkpt lat="41.19836" lon="0.85698">
        <ele>388.8</ele>
        <time>2022-05-24 09:05:03</time>
      </trkpt>
      <trkpt lat="41.19828" lon="0.85709">
        <ele>388.2</ele>
        <time>2022-05-24 09:05:04</time>
      </trkpt>
      <trkpt lat="41.19822" lon="0.85721">
        <ele>387.2</ele>
        <time>2022-05-24 09:05:05</time>
      </trkpt>
      <trkpt lat="41.19816" lon="0.85732">
        <ele>386</ele>
        <time>2022-05-24 09:05:06</time>
      </trkpt>
      <trkpt lat="41.19809" lon="0.85744">
        <ele>384.8</ele>
        <time>2022-05-24 09:05:07</time>
      </trkpt>
      <trkpt lat="41.198" lon="0.85756">
        <ele>383.4</ele>
        <time>2022-05-24 09:05:08</time>
      </trkpt>
      <trkpt lat="41.19792" lon="0.85767">
        <ele>382.2</ele>
        <time>2022-05-24 09:05:09</time>
      </trkpt>
      <trkpt lat="41.19782" lon="0.85779">
        <ele>380.8</ele>
        <time>2022-05-24 09:05:10</time>
      </trkpt>
      <trkpt lat="41.19772" lon="0.85788">
        <ele>379.4</ele>
        <time>2022-05-24 09:05:11</time>
      </trkpt>
      <trkpt lat="41.19759" lon="0.85796">
        <ele>378</ele>
        <time>2022-05-24 09:05:12</time>
      </trkpt>
      <trkpt lat="41.19745" lon="0.85802">
        <ele>376.4</ele>
        <time>2022-05-24 09:05:13</time>
      </trkpt>
      <trkpt lat="41.19731" lon="0.85805">
        <ele>374.8</ele>
        <time>2022-05-24 09:05:14</time>
      </trkpt>
      <trkpt lat="41.19715" lon="0.85806">
        <ele>373.2</ele>
        <time>2022-05-24 09:05:15</time>
      </trkpt>
      <trkpt lat="41.197" lon="0.85805">
        <ele>372</ele>
        <time>2022-05-24 09:05:16</time>
      </trkpt>
      <trkpt lat="41.19685" lon="0.85805">
        <ele>370.2</ele>
        <time>2022-05-24 09:05:17</time>
      </trkpt>
      <trkpt lat="41.19669" lon="0.85804">
        <ele>368.2</ele>
        <time>2022-05-24 09:05:18</time>
      </trkpt>
      <trkpt lat="41.19655" lon="0.85804">
        <ele>366.6</ele>
        <time>2022-05-24 09:05:19</time>
      </trkpt>
      <trkpt lat="41.19639" lon="0.85805">
        <ele>365.2</ele>
        <time>2022-05-24 09:05:20</time>
      </trkpt>
      <trkpt lat="41.19626" lon="0.85804">
        <ele>363.8</ele>
        <time>2022-05-24 09:05:21</time>
      </trkpt>
      <trkpt lat="41.1961" lon="0.85801">
        <ele>362.4</ele>
        <time>2022-05-24 09:05:22</time>
      </trkpt>
      <trkpt lat="41.19596" lon="0.85795">
        <ele>361</ele>
        <time>2022-05-24 09:05:23</time>
      </trkpt>
      <trkpt lat="41.19583" lon="0.85787">
        <ele>359.8</ele>
        <time>2022-05-24 09:05:24</time>
      </trkpt>
      <trkpt lat="41.19569" lon="0.85778">
        <ele>358.6</ele>
        <time>2022-05-24 09:05:25</time>
      </trkpt>
      <trkpt lat="41.19555" lon="0.85769">
        <ele>357.6</ele>
        <time>2022-05-24 09:05:26</time>
      </trkpt>
      <trkpt lat="41.19541" lon="0.85763">
        <ele>356.4</ele>
        <time>2022-05-24 09:05:27</time>
      </trkpt>
      <trkpt lat="41.1953" lon="0.85758">
        <ele>355.4</ele>
        <time>2022-05-24 09:05:28</time>
      </trkpt>
      <trkpt lat="41.19515" lon="0.85754">
        <ele>354.4</ele>
        <time>2022-05-24 09:05:29</time>
      </trkpt>
      <trkpt lat="41.19502" lon="0.85752">
        <ele>353.4</ele>
        <time>2022-05-24 09:05:30</time>
      </trkpt>
      <trkpt lat="41.19488" lon="0.85749">
        <ele>352.4</ele>
        <time>2022-05-24 09:05:31</time>
      </trkpt>
      <trkpt lat="41.19475" lon="0.85747">
        <ele>351.4</ele>
        <time>2022-05-24 09:05:32</time>
      </trkpt>
      <trkpt lat="41.19462" lon="0.85745">
        <ele>350.4</ele>
        <time>2022-05-24 09:05:33</time>
      </trkpt>
      <trkpt lat="41.19449" lon="0.85743">
        <ele>349.4</ele>
        <time>2022-05-24 09:05:34</time>
      </trkpt>
      <trkpt lat="41.19434" lon="0.8574">
        <ele>348.4</ele>
        <time>2022-05-24 09:05:35</time>
      </trkpt>
      <trkpt lat="41.1942" lon="0.85738">
        <ele>347.4</ele>
        <time>2022-05-24 09:05:36</time>
      </trkpt>
      <trkpt lat="41.19408" lon="0.85738">
        <ele>346.8</ele>
        <time>2022-05-24 09:05:37</time>
      </trkpt>
      <trkpt lat="41.19394" lon="0.85738">
        <ele>346</ele>
        <time>2022-05-24 09:05:38</time>
      </trkpt>
      <trkpt lat="41.1938" lon="0.85739">
        <ele>345</ele>
        <time>2022-05-24 09:05:39</time>
      </trkpt>
      <trkpt lat="41.19367" lon="0.85739">
        <ele>344.4</ele>
        <time>2022-05-24 09:05:40</time>
      </trkpt>
      <trkpt lat="41.19353" lon="0.85733">
        <ele>344</ele>
        <time>2022-05-24 09:05:41</time>
      </trkpt>
      <trkpt lat="41.19343" lon="0.85725">
        <ele>343.6</ele>
        <time>2022-05-24 09:05:42</time>
      </trkpt>
      <trkpt lat="41.19335" lon="0.85712">
        <ele>343.4</ele>
        <time>2022-05-24 09:05:43</time>
      </trkpt>
      <trkpt lat="41.19328" lon="0.85697">
        <ele>343</ele>
        <time>2022-05-24 09:05:44</time>
      </trkpt>
      <trkpt lat="41.19321" lon="0.85684">
        <ele>342.6</ele>
        <time>2022-05-24 09:05:45</time>
      </trkpt>
      <trkpt lat="41.19313" lon="0.85676">
        <ele>342.4</ele>
        <time>2022-05-24 09:05:46</time>
      </trkpt>
      <trkpt lat="41.19302" lon="0.8567">
        <ele>342.2</ele>
        <time>2022-05-24 09:05:47</time>
      </trkpt>
      <trkpt lat="41.1929" lon="0.85669">
        <ele>341.8</ele>
        <time>2022-05-24 09:05:48</time>
      </trkpt>
      <trkpt lat="41.1928" lon="0.8567">
        <ele>341.6</ele>
        <time>2022-05-24 09:05:49</time>
      </trkpt>
      <trkpt lat="41.19269" lon="0.85672">
        <ele>341</ele>
        <time>2022-05-24 09:05:50</time>
      </trkpt>
      <trkpt lat="41.19257" lon="0.85673">
        <ele>340.2</ele>
        <time>2022-05-24 09:05:51</time>
      </trkpt>
      <trkpt lat="41.19247" lon="0.85677">
        <ele>339.6</ele>
        <time>2022-05-24 09:05:52</time>
      </trkpt>
      <trkpt lat="41.19239" lon="0.85684">
        <ele>339</ele>
        <time>2022-05-24 09:05:53</time>
      </trkpt>
      <trkpt lat="41.19232" lon="0.85696">
        <ele>338.6</ele>
        <time>2022-05-24 09:05:54</time>
      </trkpt>
      <trkpt lat="41.19225" lon="0.85706">
        <ele>338.2</ele>
        <time>2022-05-24 09:05:55</time>
      </trkpt>
      <trkpt lat="41.19219" lon="0.85715">
        <ele>337.6</ele>
        <time>2022-05-24 09:05:56</time>
      </trkpt>
      <trkpt lat="41.19209" lon="0.85724">
        <ele>337.2</ele>
        <time>2022-05-24 09:05:57</time>
      </trkpt>
      <trkpt lat="41.19199" lon="0.85729">
        <ele>336.4</ele>
        <time>2022-05-24 09:05:58</time>
      </trkpt>
      <trkpt lat="41.19189" lon="0.85735">
        <ele>335.8</ele>
        <time>2022-05-24 09:05:59</time>
      </trkpt>
      <trkpt lat="41.19179" lon="0.8574">
        <ele>335.2</ele>
        <time>2022-05-24 09:06:00</time>
      </trkpt>
      <trkpt lat="41.19169" lon="0.85746">
        <ele>334.8</ele>
        <time>2022-05-24 09:06:01</time>
      </trkpt>
      <trkpt lat="41.19158" lon="0.85751">
        <ele>334.2</ele>
        <time>2022-05-24 09:06:02</time>
      </trkpt>
      <trkpt lat="41.19148" lon="0.85755">
        <ele>333.8</ele>
        <time>2022-05-24 09:06:03</time>
      </trkpt>
      <trkpt lat="41.19138" lon="0.85759">
        <ele>333.2</ele>
        <time>2022-05-24 09:06:04</time>
      </trkpt>
      <trkpt lat="41.19128" lon="0.85762">
        <ele>332.6</ele>
        <time>2022-05-24 09:06:05</time>
      </trkpt>
      <trkpt lat="41.19117" lon="0.85763">
        <ele>332</ele>
        <time>2022-05-24 09:06:06</time>
      </trkpt>
      <trkpt lat="41.19106" lon="0.85763">
        <ele>331.4</ele>
        <time>2022-05-24 09:06:07</time>
      </trkpt>
      <trkpt lat="41.19095" lon="0.85762">
        <ele>330.6</ele>
        <time>2022-05-24 09:06:08</time>
      </trkpt>
      <trkpt lat="41.19085" lon="0.85761">
        <ele>330</ele>
        <time>2022-05-24 09:06:09</time>
      </trkpt>
      <trkpt lat="41.19074" lon="0.85759">
        <ele>329.6</ele>
        <time>2022-05-24 09:06:10</time>
      </trkpt>
      <trkpt lat="41.19063" lon="0.85758">
        <ele>329</ele>
        <time>2022-05-24 09:06:11</time>
      </trkpt>
      <trkpt lat="41.19053" lon="0.85756">
        <ele>328.6</ele>
        <time>2022-05-24 09:06:12</time>
      </trkpt>
      <trkpt lat="41.19042" lon="0.85755">
        <ele>327.8</ele>
        <time>2022-05-24 09:06:13</time>
      </trkpt>
      <trkpt lat="41.19033" lon="0.85755">
        <ele>327.2</ele>
        <time>2022-05-24 09:06:14</time>
      </trkpt>
      <trkpt lat="41.19022" lon="0.85756">
        <ele>326.8</ele>
        <time>2022-05-24 09:06:15</time>
      </trkpt>
      <trkpt lat="41.19013" lon="0.85757">
        <ele>326.2</ele>
        <time>2022-05-24 09:06:16</time>
      </trkpt>
      <trkpt lat="41.19003" lon="0.8576">
        <ele>325.6</ele>
        <time>2022-05-24 09:06:17</time>
      </trkpt>
      <trkpt lat="41.18993" lon="0.85766">
        <ele>325</ele>
        <time>2022-05-24 09:06:18</time>
      </trkpt>
      <trkpt lat="41.18985" lon="0.85772">
        <ele>324.4</ele>
        <time>2022-05-24 09:06:19</time>
      </trkpt>
      <trkpt lat="41.18976" lon="0.8578">
        <ele>324</ele>
        <time>2022-05-24 09:06:20</time>
      </trkpt>
      <trkpt lat="41.18968" lon="0.85787">
        <ele>323.8</ele>
        <time>2022-05-24 09:06:21</time>
      </trkpt>
      <trkpt lat="41.18959" lon="0.85794">
        <ele>323.6</ele>
        <time>2022-05-24 09:06:22</time>
      </trkpt>
      <trkpt lat="41.18951" lon="0.85799">
        <ele>323.4</ele>
        <time>2022-05-24 09:06:23</time>
      </trkpt>
      <trkpt lat="41.18943" lon="0.85802">
        <ele>323.4</ele>
        <time>2022-05-24 09:06:24</time>
      </trkpt>
      <trkpt lat="41.18932" lon="0.85808">
        <ele>323.4</ele>
        <time>2022-05-24 09:06:25</time>
      </trkpt>
      <trkpt lat="41.18927" lon="0.85812">
        <ele>323.4</ele>
        <time>2022-05-24 09:06:26</time>
      </trkpt>
      <trkpt lat="41.18922" lon="0.85821">
        <ele>323.4</ele>
        <time>2022-05-24 09:06:27</time>
      </trkpt>
      <trkpt lat="41.1892" lon="0.85829">
        <ele>323.2</ele>
        <time>2022-05-24 09:06:28</time>
      </trkpt>
      <trkpt lat="41.18921" lon="0.85843">
        <ele>323.2</ele>
        <time>2022-05-24 09:06:29</time>
      </trkpt>
      <trkpt lat="41.18923" lon="0.8585">
        <ele>323</ele>
        <time>2022-05-24 09:06:30</time>
      </trkpt>
      <trkpt lat="41.18926" lon="0.85863">
        <ele>322.8</ele>
        <time>2022-05-24 09:06:31</time>
      </trkpt>
      <trkpt lat="41.18929" lon="0.85871">
        <ele>322.4</ele>
        <time>2022-05-24 09:06:32</time>
      </trkpt>
      <trkpt lat="41.18931" lon="0.85885">
        <ele>322</ele>
        <time>2022-05-24 09:06:33</time>
      </trkpt>
      <trkpt lat="41.1893" lon="0.85894">
        <ele>321.4</ele>
        <time>2022-05-24 09:06:34</time>
      </trkpt>
      <trkpt lat="41.18927" lon="0.85908">
        <ele>320.8</ele>
        <time>2022-05-24 09:06:35</time>
      </trkpt>
      <trkpt lat="41.18922" lon="0.85914">
        <ele>320.2</ele>
        <time>2022-05-24 09:06:36</time>
      </trkpt>
      <trkpt lat="41.18914" lon="0.85924">
        <ele>319.8</ele>
        <time>2022-05-24 09:06:37</time>
      </trkpt>
      <trkpt lat="41.18907" lon="0.85927">
        <ele>319.6</ele>
        <time>2022-05-24 09:06:38</time>
      </trkpt>
      <trkpt lat="41.18899" lon="0.85931">
        <ele>319.2</ele>
        <time>2022-05-24 09:06:39</time>
      </trkpt>
      <trkpt lat="41.18888" lon="0.85935">
        <ele>319.2</ele>
        <time>2022-05-24 09:06:40</time>
      </trkpt>
      <trkpt lat="41.18882" lon="0.85937">
        <ele>319</ele>
        <time>2022-05-24 09:06:41</time>
      </trkpt>
      <trkpt lat="41.18873" lon="0.8594">
        <ele>318.8</ele>
        <time>2022-05-24 09:06:42</time>
      </trkpt>
      <trkpt lat="41.18867" lon="0.85941">
        <ele>318.8</ele>
        <time>2022-05-24 09:06:43</time>
      </trkpt>
      <trkpt lat="41.18857" lon="0.85942">
        <ele>318.8</ele>
        <time>2022-05-24 09:06:44</time>
      </trkpt>
      <trkpt lat="41.18852" lon="0.8594">
        <ele>318.8</ele>
        <time>2022-05-24 09:06:45</time>
      </trkpt>
      <trkpt lat="41.18844" lon="0.85936">
        <ele>318.8</ele>
        <time>2022-05-24 09:06:46</time>
      </trkpt>
      <trkpt lat="41.1884" lon="0.85932">
        <ele>319</ele>
        <time>2022-05-24 09:06:47</time>
      </trkpt>
      <trkpt lat="41.18834" lon="0.85924">
        <ele>319</ele>
        <time>2022-05-24 09:06:48</time>
      </trkpt>
      <trkpt lat="41.18831" lon="0.85918">
        <ele>319</ele>
        <time>2022-05-24 09:06:49</time>
      </trkpt>
      <trkpt lat="41.18827" lon="0.8591">
        <ele>319</ele>
        <time>2022-05-24 09:06:50</time>
      </trkpt>
      <trkpt lat="41.18825" lon="0.85905">
        <ele>319.2</ele>
        <time>2022-05-24 09:06:51</time>
      </trkpt>
      <trkpt lat="41.18821" lon="0.85895">
        <ele>319.2</ele>
        <time>2022-05-24 09:06:52</time>
      </trkpt>
      <trkpt lat="41.18819" lon="0.8589">
        <ele>319.2</ele>
        <time>2022-05-24 09:06:53</time>
      </trkpt>
      <trkpt lat="41.18816" lon="0.85882">
        <ele>319.4</ele>
        <time>2022-05-24 09:06:54</time>
      </trkpt>
      <trkpt lat="41.18815" lon="0.85878">
        <ele>319.4</ele>
        <time>2022-05-24 09:06:55</time>
      </trkpt>
      <trkpt lat="41.18812" lon="0.85869">
        <ele>319.4</ele>
        <time>2022-05-24 09:06:56</time>
      </trkpt>
      <trkpt lat="41.1881" lon="0.85865">
        <ele>319.4</ele>
        <time>2022-05-24 09:06:57</time>
      </trkpt>
      <trkpt lat="41.18808" lon="0.85857">
        <ele>319.4</ele>
        <time>2022-05-24 09:06:58</time>
      </trkpt>
      <trkpt lat="41.18807" lon="0.85852">
        <ele>319.6</ele>
        <time>2022-05-24 09:06:59</time>
      </trkpt>
      <trkpt lat="41.18805" lon="0.85846">
        <ele>319.6</ele>
        <time>2022-05-24 09:07:00</time>
      </trkpt>
      <trkpt lat="41.18804" lon="0.85842">
        <ele>319.8</ele>
        <time>2022-05-24 09:07:01</time>
      </trkpt>
      <trkpt lat="41.18803" lon="0.85835">
        <ele>320</ele>
        <time>2022-05-24 09:07:02</time>
      </trkpt>
      <trkpt lat="41.18802" lon="0.8583">
        <ele>320</ele>
        <time>2022-05-24 09:07:03</time>
      </trkpt>
      <trkpt lat="41.188" lon="0.85824">
        <ele>320.2</ele>
        <time>2022-05-24 09:07:04</time>
      </trkpt>
      <trkpt lat="41.18799" lon="0.85819">
        <ele>320.4</ele>
        <time>2022-05-24 09:07:05</time>
      </trkpt>
      <trkpt lat="41.18798" lon="0.85815">
        <ele>320.6</ele>
        <time>2022-05-24 09:07:06</time>
      </trkpt>
      <trkpt lat="41.18797" lon="0.85809">
        <ele>320.6</ele>
        <time>2022-05-24 09:07:07</time>
      </trkpt>
      <trkpt lat="41.18796" lon="0.85804">
        <ele>320.8</ele>
        <time>2022-05-24 09:07:08</time>
      </trkpt>
      <trkpt lat="41.18795" lon="0.858">
        <ele>321</ele>
        <time>2022-05-24 09:07:09</time>
      </trkpt>
      <trkpt lat="41.18794" lon="0.85795">
        <ele>321.2</ele>
        <time>2022-05-24 09:07:10</time>
      </trkpt>
      <trkpt lat="41.18793" lon="0.8579">
        <ele>321.2</ele>
        <time>2022-05-24 09:07:11</time>
      </trkpt>
      <trkpt lat="41.18793" lon="0.85786">
        <ele>321.4</ele>
        <time>2022-05-24 09:07:12</time>
      </trkpt>
      <trkpt lat="41.18793" lon="0.85781">
        <ele>321.6</ele>
        <time>2022-05-24 09:07:13</time>
      </trkpt>
      <trkpt lat="41.18792" lon="0.85776">
        <ele>321.6</ele>
        <time>2022-05-24 09:07:14</time>
      </trkpt>
      <trkpt lat="41.18791" lon="0.85772">
        <ele>321.6</ele>
        <time>2022-05-24 09:07:15</time>
      </trkpt>
      <trkpt lat="41.1879" lon="0.85767">
        <ele>321.8</ele>
        <time>2022-05-24 09:07:16</time>
      </trkpt>
      <trkpt lat="41.18789" lon="0.85763">
        <ele>321.8</ele>
        <time>2022-05-24 09:07:17</time>
      </trkpt>
      <trkpt lat="41.18788" lon="0.85758">
        <ele>322</ele>
        <time>2022-05-24 09:07:18</time>
      </trkpt>
      <trkpt lat="41.18787" lon="0.85754">
        <ele>322.2</ele>
        <time>2022-05-24 09:07:19</time>
      </trkpt>
      <trkpt lat="41.18786" lon="0.8575">
        <ele>322.4</ele>
        <time>2022-05-24 09:07:20</time>
      </trkpt>
      <trkpt lat="41.18785" lon="0.85746">
        <ele>322.4</ele>
        <time>2022-05-24 09:07:21</time>
      </trkpt>
      <trkpt lat="41.18783" lon="0.85742">
        <ele>322.6</ele>
        <time>2022-05-24 09:07:22</time>
      </trkpt>
      <trkpt lat="41.18782" lon="0.85738">
        <ele>322.8</ele>
        <time>2022-05-24 09:07:23</time>
      </trkpt>
      <trkpt lat="41.1878" lon="0.85734">
        <ele>323</ele>
        <time>2022-05-24 09:07:24</time>
      </trkpt>
      <trkpt lat="41.18779" lon="0.85731">
        <ele>323.2</ele>
        <time>2022-05-24 09:07:25</time>
      </trkpt>
      <trkpt lat="41.18777" lon="0.85727">
        <ele>323.4</ele>
        <time>2022-05-24 09:07:26</time>
      </trkpt>
      <trkpt lat="41.18775" lon="0.85724">
        <ele>323.6</ele>
        <time>2022-05-24 09:07:27</time>
      </trkpt>
      <trkpt lat="41.18773" lon="0.8572">
        <ele>323.8</ele>
        <time>2022-05-24 09:07:28</time>
      </trkpt>
      <trkpt lat="41.18771" lon="0.85717">
        <ele>324</ele>
        <time>2022-05-24 09:07:29</time>
      </trkpt>
      <trkpt lat="41.18768" lon="0.85714">
        <ele>324.2</ele>
        <time>2022-05-24 09:07:30</time>
      </trkpt>
      <trkpt lat="41.18766" lon="0.85711">
        <ele>324.4</ele>
        <time>2022-05-24 09:07:31</time>
      </trkpt>
      <trkpt lat="41.18763" lon="0.85708">
        <ele>324.6</ele>
        <time>2022-05-24 09:07:32</time>
      </trkpt>
      <trkpt lat="41.1876" lon="0.85706">
        <ele>324.8</ele>
        <time>2022-05-24 09:07:33</time>
      </trkpt>
      <trkpt lat="41.18757" lon="0.85703">
        <ele>325</ele>
        <time>2022-05-24 09:07:34</time>
      </trkpt>
      <trkpt lat="41.18755" lon="0.85701">
        <ele>325.4</ele>
        <time>2022-05-24 09:07:35</time>
      </trkpt>
      <trkpt lat="41.18751" lon="0.85699">
        <ele>325.4</ele>
        <time>2022-05-24 09:07:36</time>
      </trkpt>
      <trkpt lat="41.18749" lon="0.85697">
        <ele>325.6</ele>
        <time>2022-05-24 09:07:37</time>
      </trkpt>
      <trkpt lat="41.18745" lon="0.85695">
        <ele>325.6</ele>
        <time>2022-05-24 09:07:38</time>
      </trkpt>
      <trkpt lat="41.18743" lon="0.85693">
        <ele>325.8</ele>
        <time>2022-05-24 09:07:39</time>
      </trkpt>
      <trkpt lat="41.1874" lon="0.85691">
        <ele>326</ele>
        <time>2022-05-24 09:07:40</time>
      </trkpt>
      <trkpt lat="41.18737" lon="0.85689">
        <ele>326</ele>
        <time>2022-05-24 09:07:41</time>
      </trkpt>
      <trkpt lat="41.18734" lon="0.85687">
        <ele>326.2</ele>
        <time>2022-05-24 09:07:42</time>
      </trkpt>
      <trkpt lat="41.18731" lon="0.85685">
        <ele>326.4</ele>
        <time>2022-05-24 09:07:43</time>
      </trkpt>
      <trkpt lat="41.18728" lon="0.85683">
        <ele>326.4</ele>
        <time>2022-05-24 09:07:44</time>
      </trkpt>
      <trkpt lat="41.18725" lon="0.85681">
        <ele>326.4</ele>
        <time>2022-05-24 09:07:45</time>
      </trkpt>
      <trkpt lat="41.18721" lon="0.85679">
        <ele>326.6</ele>
        <time>2022-05-24 09:07:46</time>
      </trkpt>
      <trkpt lat="41.18718" lon="0.85678">
        <ele>326.8</ele>
        <time>2022-05-24 09:07:47</time>
      </trkpt>
      <trkpt lat="41.18714" lon="0.85677">
        <ele>326.8</ele>
        <time>2022-05-24 09:07:48</time>
      </trkpt>
      <trkpt lat="41.1871" lon="0.85677">
        <ele>327</ele>
        <time>2022-05-24 09:07:49</time>
      </trkpt>
      <trkpt lat="41.18706" lon="0.85677">
        <ele>327</ele>
        <time>2022-05-24 09:07:50</time>
      </trkpt>
      <trkpt lat="41.18702" lon="0.85678">
        <ele>327.2</ele>
        <time>2022-05-24 09:07:51</time>
      </trkpt>
      <trkpt lat="41.18698" lon="0.8568">
        <ele>327.2</ele>
        <time>2022-05-24 09:07:52</time>
      </trkpt>
      <trkpt lat="41.18694" lon="0.85682">
        <ele>327.2</ele>
        <time>2022-05-24 09:07:53</time>
      </trkpt>
      <trkpt lat="41.18691" lon="0.85685">
        <ele>327.2</ele>
        <time>2022-05-24 09:07:54</time>
      </trkpt>
      <trkpt lat="41.18687" lon="0.85688">
        <ele>327.2</ele>
        <time>2022-05-24 09:07:55</time>
      </trkpt>
      <trkpt lat="41.18684" lon="0.85693">
        <ele>327</ele>
        <time>2022-05-24 09:07:56</time>
      </trkpt>
      <trkpt lat="41.18682" lon="0.85699">
        <ele>327</ele>
        <time>2022-05-24 09:07:57</time>
      </trkpt>
      <trkpt lat="41.1868" lon="0.85705">
        <ele>326.8</ele>
        <time>2022-05-24 09:07:58</time>
      </trkpt>
      <trkpt lat="41.18678" lon="0.85711">
        <ele>326.6</ele>
        <time>2022-05-24 09:07:59</time>
      </trkpt>
      <trkpt lat="41.18677" lon="0.85718">
        <ele>326.4</ele>
        <time>2022-05-24 09:08:00</time>
      </trkpt>
      <trkpt lat="41.18676" lon="0.85726">
        <ele>326.2</ele>
        <time>2022-05-24 09:08:01</time>
      </trkpt>
      <trkpt lat="41.18676" lon="0.85734">
        <ele>325.8</ele>
        <time>2022-05-24 09:08:02</time>
      </trkpt>
      <trkpt lat="41.18675" lon="0.85743">
        <ele>325.4</ele>
        <time>2022-05-24 09:08:03</time>
      </trkpt>
      <trkpt lat="41.18674" lon="0.85752">
        <ele>325</ele>
        <time>2022-05-24 09:08:04</time>
      </trkpt>
      <trkpt lat="41.18673" lon="0.85762">
        <ele>324.6</ele>
        <time>2022-05-24 09:08:05</time>
      </trkpt>
      <trkpt lat="41.18671" lon="0.85772">
        <ele>324.2</ele>
        <time>2022-05-24 09:08:06</time>
      </trkpt>
      <trkpt lat="41.18669" lon="0.85782">
        <ele>323.6</ele>
        <time>2022-05-24 09:08:07</time>
      </trkpt>
      <trkpt lat="41.18667" lon="0.85791">
        <ele>323.2</ele>
        <time>2022-05-24 09:08:08</time>
      </trkpt>
      <trkpt lat="41.18663" lon="0.85799">
        <ele>322.8</ele>
        <time>2022-05-24 09:08:09</time>
      </trkpt>
      <trkpt lat="41.18657" lon="0.85803">
        <ele>322.6</ele>
        <time>2022-05-24 09:08:10</time>
      </trkpt>
      <trkpt lat="41.18653" lon="0.85808">
        <ele>322.4</ele>
        <time>2022-05-24 09:08:11</time>
      </trkpt>
      <trkpt lat="41.18649" lon="0.85813">
        <ele>322.4</ele>
        <time>2022-05-24 09:08:12</time>
      </trkpt>
      <trkpt lat="41.18647" lon="0.85819">
        <ele>322.4</ele>
        <time>2022-05-24 09:08:13</time>
      </trkpt>
      <trkpt lat="41.18645" lon="0.85825">
        <ele>322.6</ele>
        <time>2022-05-24 09:08:14</time>
      </trkpt>
      <trkpt lat="41.18644" lon="0.85831">
        <ele>322.8</ele>
        <time>2022-05-24 09:08:15</time>
      </trkpt>
      <trkpt lat="41.18643" lon="0.85837">
        <ele>323</ele>
        <time>2022-05-24 09:08:16</time>
      </trkpt>
      <trkpt lat="41.18642" lon="0.85843">
        <ele>323.4</ele>
        <time>2022-05-24 09:08:17</time>
      </trkpt>
      <trkpt lat="41.18641" lon="0.85848">
        <ele>323.6</ele>
        <time>2022-05-24 09:08:18</time>
      </trkpt>
      <trkpt lat="41.1864" lon="0.85853">
        <ele>323.8</ele>
        <time>2022-05-24 09:08:19</time>
      </trkpt>
      <trkpt lat="41.18639" lon="0.85859">
        <ele>324.2</ele>
        <time>2022-05-24 09:08:20</time>
      </trkpt>
      <trkpt lat="41.18639" lon="0.85864">
        <ele>324.4</ele>
        <time>2022-05-24 09:08:21</time>
      </trkpt>
      <trkpt lat="41.18638" lon="0.85869">
        <ele>324.8</ele>
        <time>2022-05-24 09:08:22</time>
      </trkpt>
      <trkpt lat="41.18638" lon="0.85873">
        <ele>325</ele>
        <time>2022-05-24 09:08:23</time>
      </trkpt>
      <trkpt lat="41.18637" lon="0.85878">
        <ele>325.2</ele>
        <time>2022-05-24 09:08:24</time>
      </trkpt>
      <trkpt lat="41.18636" lon="0.85883">
        <ele>325.4</ele>
        <time>2022-05-24 09:08:25</time>
      </trkpt>
      <trkpt lat="41.18636" lon="0.85888">
        <ele>325.6</ele>
        <time>2022-05-24 09:08:26</time>
      </trkpt>
      <trkpt lat="41.18635" lon="0.85893">
        <ele>325.8</ele>
        <time>2022-05-24 09:08:27</time>
      </trkpt>
      <trkpt lat="41.18634" lon="0.85897">
        <ele>326</ele>
        <time>2022-05-24 09:08:28</time>
      </trkpt>
      <trkpt lat="41.18634" lon="0.85903">
        <ele>326.2</ele>
        <time>2022-05-24 09:08:29</time>
      </trkpt>
      <trkpt lat="41.18633" lon="0.85907">
        <ele>326.4</ele>
        <time>2022-05-24 09:08:30</time>
      </trkpt>
      <trkpt lat="41.18633" lon="0.85912">
        <ele>326.6</ele>
        <time>2022-05-24 09:08:31</time>
      </trkpt>
      <trkpt lat="41.18632" lon="0.85916">
        <ele>326.6</ele>
        <time>2022-05-24 09:08:32</time>
      </trkpt>
      <trkpt lat="41.18631" lon="0.85919">
        <ele>326.8</ele>
        <time>2022-05-24 09:08:33</time>
      </trkpt>
      <trkpt lat="41.1863" lon="0.85922">
        <ele>326.8</ele>
        <time>2022-05-24 09:08:34</time>
      </trkpt>
      <trkpt lat="41.18629" lon="0.85925">
        <ele>327</ele>
        <time>2022-05-24 09:08:35</time>
      </trkpt>
      <trkpt lat="41.18629" lon="0.85928">
        <ele>327</ele>
        <time>2022-05-24 09:08:36</time>
      </trkpt>
      <trkpt lat="41.18628" lon="0.8593">
        <ele>327.2</ele>
        <time>2022-05-24 09:08:37</time>
      </trkpt>
      <trkpt lat="41.18627" lon="0.85932">
        <ele>327.2</ele>
        <time>2022-05-24 09:08:38</time>
      </trkpt>
      <trkpt lat="41.18627" lon="0.85934">
        <ele>327.4</ele>
        <time>2022-05-24 09:08:39</time>
      </trkpt>
      <trkpt lat="41.18627" lon="0.85935">
        <ele>327.4</ele>
        <time>2022-05-24 09:08:40</time>
      </trkpt>
      <trkpt lat="41.18626" lon="0.85947">
        <ele>327.6</ele>
        <time>2022-05-24 09:08:41</time>
      </trkpt>
      <trkpt lat="41.18625" lon="0.85949">
        <ele>327.6</ele>
        <time>2022-05-24 09:16:56</time>
      </trkpt>
      <trkpt lat="41.18624" lon="0.85951">
        <ele>327.6</ele>
        <time>2022-05-24 09:16:57</time>
      </trkpt>
      <trkpt lat="41.18624" lon="0.85953">
        <ele>327.6</ele>
        <time>2022-05-24 09:16:58</time>
      </trkpt>
      <trkpt lat="41.18623" lon="0.85957">
        <ele>327.8</ele>
        <time>2022-05-24 09:16:59</time>
      </trkpt>
      <trkpt lat="41.18622" lon="0.8596">
        <ele>327.8</ele>
        <time>2022-05-24 09:17:00</time>
      </trkpt>
      <trkpt lat="41.18621" lon="0.85962">
        <ele>327.8</ele>
        <time>2022-05-24 09:17:01</time>
      </trkpt>
      <trkpt lat="41.1862" lon="0.85965">
        <ele>327.8</ele>
        <time>2022-05-24 09:17:02</time>
      </trkpt>
      <trkpt lat="41.18618" lon="0.85968">
        <ele>327.8</ele>
        <time>2022-05-24 09:17:03</time>
      </trkpt>
      <trkpt lat="41.18618" lon="0.85971">
        <ele>328</ele>
        <time>2022-05-24 09:17:04</time>
      </trkpt>
      <trkpt lat="41.18616" lon="0.85974">
        <ele>328</ele>
        <time>2022-05-24 09:17:05</time>
      </trkpt>
      <trkpt lat="41.18615" lon="0.85978">
        <ele>328</ele>
        <time>2022-05-24 09:17:06</time>
      </trkpt>
      <trkpt lat="41.18615" lon="0.8598">
        <ele>328</ele>
        <time>2022-05-24 09:17:07</time>
      </trkpt>
      <trkpt lat="41.18613" lon="0.85984">
        <ele>328.2</ele>
        <time>2022-05-24 09:17:08</time>
      </trkpt>
      <trkpt lat="41.18612" lon="0.85987">
        <ele>328.4</ele>
        <time>2022-05-24 09:17:09</time>
      </trkpt>
      <trkpt lat="41.1861" lon="0.8599">
        <ele>328.4</ele>
        <time>2022-05-24 09:17:10</time>
      </trkpt>
      <trkpt lat="41.18609" lon="0.85992">
        <ele>328.4</ele>
        <time>2022-05-24 09:17:11</time>
      </trkpt>
      <trkpt lat="41.18608" lon="0.85995">
        <ele>328.6</ele>
        <time>2022-05-24 09:17:12</time>
      </trkpt>
      <trkpt lat="41.18607" lon="0.85998">
        <ele>328.6</ele>
        <time>2022-05-24 09:17:13</time>
      </trkpt>
      <trkpt lat="41.18606" lon="0.86">
        <ele>328.6</ele>
        <time>2022-05-24 09:17:14</time>
      </trkpt>
      <trkpt lat="41.18605" lon="0.86003">
        <ele>328.8</ele>
        <time>2022-05-24 09:17:15</time>
      </trkpt>
      <trkpt lat="41.18604" lon="0.86005">
        <ele>328.8</ele>
        <time>2022-05-24 09:17:16</time>
      </trkpt>
      <trkpt lat="41.18602" lon="0.86008">
        <ele>328.8</ele>
        <time>2022-05-24 09:17:17</time>
      </trkpt>
      <trkpt lat="41.186" lon="0.86011">
        <ele>329</ele>
        <time>2022-05-24 09:17:18</time>
      </trkpt>
      <trkpt lat="41.18599" lon="0.86014">
        <ele>329</ele>
        <time>2022-05-24 09:17:19</time>
      </trkpt>
      <trkpt lat="41.18597" lon="0.86017">
        <ele>329</ele>
        <time>2022-05-24 09:17:20</time>
      </trkpt>
      <trkpt lat="41.18596" lon="0.86019">
        <ele>329.2</ele>
        <time>2022-05-24 09:17:21</time>
      </trkpt>
      <trkpt lat="41.18594" lon="0.86022">
        <ele>329.2</ele>
        <time>2022-05-24 09:17:22</time>
      </trkpt>
      <trkpt lat="41.18593" lon="0.86025">
        <ele>329.2</ele>
        <time>2022-05-24 09:17:23</time>
      </trkpt>
      <trkpt lat="41.18592" lon="0.86027">
        <ele>329.4</ele>
        <time>2022-05-24 09:17:24</time>
      </trkpt>
      <trkpt lat="41.1859" lon="0.8603">
        <ele>329.4</ele>
        <time>2022-05-24 09:17:25</time>
      </trkpt>
      <trkpt lat="41.18588" lon="0.86033">
        <ele>329.4</ele>
        <time>2022-05-24 09:17:26</time>
      </trkpt>
      <trkpt lat="41.18586" lon="0.86036">
        <ele>329.6</ele>
        <time>2022-05-24 09:17:27</time>
      </trkpt>
      <trkpt lat="41.18584" lon="0.86039">
        <ele>329.6</ele>
        <time>2022-05-24 09:17:28</time>
      </trkpt>
      <trkpt lat="41.18583" lon="0.86042">
        <ele>329.8</ele>
        <time>2022-05-24 09:17:29</time>
      </trkpt>
      <trkpt lat="41.18581" lon="0.86045">
        <ele>329.8</ele>
        <time>2022-05-24 09:17:30</time>
      </trkpt>
      <trkpt lat="41.18579" lon="0.86048">
        <ele>330</ele>
        <time>2022-05-24 09:17:31</time>
      </trkpt>
      <trkpt lat="41.18577" lon="0.8605">
        <ele>330.2</ele>
        <time>2022-05-24 09:17:32</time>
      </trkpt>
      <trkpt lat="41.18576" lon="0.86053">
        <ele>330.2</ele>
        <time>2022-05-24 09:17:33</time>
      </trkpt>
      <trkpt lat="41.18574" lon="0.86056">
        <ele>330.4</ele>
        <time>2022-05-24 09:17:34</time>
      </trkpt>
      <trkpt lat="41.18572" lon="0.86059">
        <ele>330.4</ele>
        <time>2022-05-24 09:17:35</time>
      </trkpt>
      <trkpt lat="41.18571" lon="0.86061">
        <ele>330.4</ele>
        <time>2022-05-24 09:17:36</time>
      </trkpt>
      <trkpt lat="41.18568" lon="0.86065">
        <ele>330.6</ele>
        <time>2022-05-24 09:17:37</time>
      </trkpt>
      <trkpt lat="41.18567" lon="0.86068">
        <ele>330.6</ele>
        <time>2022-05-24 09:17:38</time>
      </trkpt>
      <trkpt lat="41.18565" lon="0.86071">
        <ele>330.8</ele>
        <time>2022-05-24 09:17:39</time>
      </trkpt>
      <trkpt lat="41.18563" lon="0.86074">
        <ele>331</ele>
        <time>2022-05-24 09:17:40</time>
      </trkpt>
      <trkpt lat="41.18561" lon="0.86077">
        <ele>331</ele>
        <time>2022-05-24 09:17:41</time>
      </trkpt>
      <trkpt lat="41.18559" lon="0.8608">
        <ele>331.2</ele>
        <time>2022-05-24 09:17:42</time>
      </trkpt>
      <trkpt lat="41.18557" lon="0.86083">
        <ele>331.2</ele>
        <time>2022-05-24 09:17:43</time>
      </trkpt>
      <trkpt lat="41.18555" lon="0.86086">
        <ele>331.4</ele>
        <time>2022-05-24 09:17:44</time>
      </trkpt>
      <trkpt lat="41.18554" lon="0.86089">
        <ele>331.4</ele>
        <time>2022-05-24 09:17:45</time>
      </trkpt>
      <trkpt lat="41.18552" lon="0.86093">
        <ele>331.6</ele>
        <time>2022-05-24 09:17:46</time>
      </trkpt>
      <trkpt lat="41.1855" lon="0.86096">
        <ele>331.6</ele>
        <time>2022-05-24 09:17:47</time>
      </trkpt>
      <trkpt lat="41.18549" lon="0.86099">
        <ele>331.8</ele>
        <time>2022-05-24 09:17:48</time>
      </trkpt>
      <trkpt lat="41.18547" lon="0.86103">
        <ele>331.8</ele>
        <time>2022-05-24 09:17:49</time>
      </trkpt>
      <trkpt lat="41.18546" lon="0.86106">
        <ele>331.8</ele>
        <time>2022-05-24 09:17:50</time>
      </trkpt>
      <trkpt lat="41.18544" lon="0.8611">
        <ele>332</ele>
        <time>2022-05-24 09:17:51</time>
      </trkpt>
      <trkpt lat="41.18542" lon="0.86113">
        <ele>332</ele>
        <time>2022-05-24 09:17:52</time>
      </trkpt>
      <trkpt lat="41.18541" lon="0.86117">
        <ele>332.2</ele>
        <time>2022-05-24 09:17:53</time>
      </trkpt>
      <trkpt lat="41.18539" lon="0.8612">
        <ele>332.2</ele>
        <time>2022-05-24 09:17:54</time>
      </trkpt>
      <trkpt lat="41.18538" lon="0.86124">
        <ele>332.4</ele>
        <time>2022-05-24 09:17:55</time>
      </trkpt>
      <trkpt lat="41.18537" lon="0.86127">
        <ele>332.4</ele>
        <time>2022-05-24 09:17:56</time>
      </trkpt>
      <trkpt lat="41.18535" lon="0.86132">
        <ele>332.4</ele>
        <time>2022-05-24 09:17:57</time>
      </trkpt>
      <trkpt lat="41.18534" lon="0.86135">
        <ele>332.6</ele>
        <time>2022-05-24 09:17:58</time>
      </trkpt>
      <trkpt lat="41.18533" lon="0.86139">
        <ele>332.6</ele>
        <time>2022-05-24 09:17:59</time>
      </trkpt>
      <trkpt lat="41.18532" lon="0.86143">
        <ele>332.8</ele>
        <time>2022-05-24 09:18:00</time>
      </trkpt>
      <trkpt lat="41.18531" lon="0.86148">
        <ele>332.8</ele>
        <time>2022-05-24 09:18:01</time>
      </trkpt>
      <trkpt lat="41.1853" lon="0.86151">
        <ele>332.8</ele>
        <time>2022-05-24 09:18:02</time>
      </trkpt>
      <trkpt lat="41.1853" lon="0.86156">
        <ele>333</ele>
        <time>2022-05-24 09:18:03</time>
      </trkpt>
      <trkpt lat="41.18529" lon="0.8616">
        <ele>333</ele>
        <time>2022-05-24 09:18:04</time>
      </trkpt>
      <trkpt lat="41.18528" lon="0.86165">
        <ele>333</ele>
        <time>2022-05-24 09:18:05</time>
      </trkpt>
      <trkpt lat="41.18528" lon="0.86169">
        <ele>333</ele>
        <time>2022-05-24 09:18:06</time>
      </trkpt>
      <trkpt lat="41.18528" lon="0.86175">
        <ele>333.2</ele>
        <time>2022-05-24 09:18:07</time>
      </trkpt>
      <trkpt lat="41.18528" lon="0.86179">
        <ele>333.2</ele>
        <time>2022-05-24 09:18:08</time>
      </trkpt>
      <trkpt lat="41.18527" lon="0.86184">
        <ele>333.2</ele>
        <time>2022-05-24 09:18:09</time>
      </trkpt>
      <trkpt lat="41.18526" lon="0.86188">
        <ele>333.2</ele>
        <time>2022-05-24 09:18:10</time>
      </trkpt>
      <trkpt lat="41.18525" lon="0.86193">
        <ele>333.2</ele>
        <time>2022-05-24 09:18:11</time>
      </trkpt>
      <trkpt lat="41.18525" lon="0.86197">
        <ele>333.4</ele>
        <time>2022-05-24 09:18:12</time>
      </trkpt>
      <trkpt lat="41.18525" lon="0.86201">
        <ele>333.4</ele>
        <time>2022-05-24 09:18:13</time>
      </trkpt>
      <trkpt lat="41.18525" lon="0.86206">
        <ele>333.4</ele>
        <time>2022-05-24 09:18:14</time>
      </trkpt>
      <trkpt lat="41.18524" lon="0.86211">
        <ele>333.4</ele>
        <time>2022-05-24 09:18:15</time>
      </trkpt>
      <trkpt lat="41.18524" lon="0.86215">
        <ele>333.6</ele>
        <time>2022-05-24 09:18:16</time>
      </trkpt>
      <trkpt lat="41.18524" lon="0.8622">
        <ele>333.6</ele>
        <time>2022-05-24 09:18:17</time>
      </trkpt>
      <trkpt lat="41.18524" lon="0.86224">
        <ele>333.6</ele>
        <time>2022-05-24 09:18:18</time>
      </trkpt>
      <trkpt lat="41.18524" lon="0.86229">
        <ele>333.6</ele>
        <time>2022-05-24 09:18:19</time>
      </trkpt>
      <trkpt lat="41.18524" lon="0.86234">
        <ele>333.6</ele>
        <time>2022-05-24 09:18:20</time>
      </trkpt>
      <trkpt lat="41.18524" lon="0.86238">
        <ele>333.6</ele>
        <time>2022-05-24 09:18:21</time>
      </trkpt>
      <trkpt lat="41.18524" lon="0.86243">
        <ele>333.6</ele>
        <time>2022-05-24 09:18:22</time>
      </trkpt>
      <trkpt lat="41.18524" lon="0.86248">
        <ele>333.6</ele>
        <time>2022-05-24 09:18:23</time>
      </trkpt>
      <trkpt lat="41.18523" lon="0.86252">
        <ele>333.6</ele>
        <time>2022-05-24 09:18:24</time>
      </trkpt>
      <trkpt lat="41.18523" lon="0.86257">
        <ele>333.6</ele>
        <time>2022-05-24 09:18:25</time>
      </trkpt>
      <trkpt lat="41.18523" lon="0.86261">
        <ele>333.6</ele>
        <time>2022-05-24 09:18:26</time>
      </trkpt>
      <trkpt lat="41.18522" lon="0.86266">
        <ele>333.8</ele>
        <time>2022-05-24 09:18:27</time>
      </trkpt>
      <trkpt lat="41.18521" lon="0.86271">
        <ele>333.8</ele>
        <time>2022-05-24 09:18:28</time>
      </trkpt>
      <trkpt lat="41.1852" lon="0.86275">
        <ele>333.8</ele>
        <time>2022-05-24 09:18:29</time>
      </trkpt>
      <trkpt lat="41.18519" lon="0.8628">
        <ele>333.8</ele>
        <time>2022-05-24 09:18:30</time>
      </trkpt>
      <trkpt lat="41.18518" lon="0.86284">
        <ele>333.8</ele>
        <time>2022-05-24 09:18:31</time>
      </trkpt>
      <trkpt lat="41.18516" lon="0.86288">
        <ele>333.6</ele>
        <time>2022-05-24 09:18:32</time>
      </trkpt>
      <trkpt lat="41.18513" lon="0.86293">
        <ele>333.6</ele>
        <time>2022-05-24 09:18:33</time>
      </trkpt>
      <trkpt lat="41.18512" lon="0.86297">
        <ele>333.6</ele>
        <time>2022-05-24 09:18:34</time>
      </trkpt>
      <trkpt lat="41.18509" lon="0.863">
        <ele>333.6</ele>
        <time>2022-05-24 09:18:35</time>
      </trkpt>
      <trkpt lat="41.18506" lon="0.86304">
        <ele>333.6</ele>
        <time>2022-05-24 09:18:36</time>
      </trkpt>
      <trkpt lat="41.18503" lon="0.86306">
        <ele>333.6</ele>
        <time>2022-05-24 09:18:37</time>
      </trkpt>
      <trkpt lat="41.185" lon="0.86309">
        <ele>333.6</ele>
        <time>2022-05-24 09:18:38</time>
      </trkpt>
      <trkpt lat="41.18498" lon="0.86312">
        <ele>333.6</ele>
        <time>2022-05-24 09:18:39</time>
      </trkpt>
      <trkpt lat="41.18494" lon="0.86313">
        <ele>333.6</ele>
        <time>2022-05-24 09:18:40</time>
      </trkpt>
      <trkpt lat="41.18491" lon="0.86314">
        <ele>333.8</ele>
        <time>2022-05-24 09:18:41</time>
      </trkpt>
      <trkpt lat="41.18487" lon="0.86315">
        <ele>333.8</ele>
        <time>2022-05-24 09:18:42</time>
      </trkpt>
      <trkpt lat="41.18484" lon="0.86316">
        <ele>333.8</ele>
        <time>2022-05-24 09:18:43</time>
      </trkpt>
      <trkpt lat="41.1848" lon="0.86317">
        <ele>334</ele>
        <time>2022-05-24 09:18:44</time>
      </trkpt>
      <trkpt lat="41.18477" lon="0.86318">
        <ele>334</ele>
        <time>2022-05-24 09:18:45</time>
      </trkpt>
      <trkpt lat="41.18474" lon="0.86318">
        <ele>334.2</ele>
        <time>2022-05-24 09:18:46</time>
      </trkpt>
      <trkpt lat="41.1847" lon="0.86319">
        <ele>334.2</ele>
        <time>2022-05-24 09:18:47</time>
      </trkpt>
      <trkpt lat="41.18467" lon="0.86319">
        <ele>334.4</ele>
        <time>2022-05-24 09:18:48</time>
      </trkpt>
      <trkpt lat="41.18464" lon="0.86319">
        <ele>334.4</ele>
        <time>2022-05-24 09:18:49</time>
      </trkpt>
      <trkpt lat="41.1846" lon="0.86319">
        <ele>334.6</ele>
        <time>2022-05-24 09:18:50</time>
      </trkpt>
      <trkpt lat="41.18457" lon="0.86318">
        <ele>334.6</ele>
        <time>2022-05-24 09:18:51</time>
      </trkpt>
      <trkpt lat="41.18454" lon="0.86318">
        <ele>334.8</ele>
        <time>2022-05-24 09:18:52</time>
      </trkpt>
      <trkpt lat="41.1845" lon="0.86318">
        <ele>334.8</ele>
        <time>2022-05-24 09:18:53</time>
      </trkpt>
      <trkpt lat="41.18447" lon="0.86318">
        <ele>335</ele>
        <time>2022-05-24 09:18:54</time>
      </trkpt>
      <trkpt lat="41.18444" lon="0.86318">
        <ele>335</ele>
        <time>2022-05-24 09:18:55</time>
      </trkpt>
      <trkpt lat="41.18441" lon="0.86317">
        <ele>335</ele>
        <time>2022-05-24 09:18:56</time>
      </trkpt>
      <trkpt lat="41.18438" lon="0.86317">
        <ele>335.2</ele>
        <time>2022-05-24 09:18:57</time>
      </trkpt>
      <trkpt lat="41.18434" lon="0.86317">
        <ele>335.2</ele>
        <time>2022-05-24 09:18:58</time>
      </trkpt>
      <trkpt lat="41.18431" lon="0.86316">
        <ele>335.4</ele>
        <time>2022-05-24 09:18:59</time>
      </trkpt>
      <trkpt lat="41.18428" lon="0.86316">
        <ele>335.4</ele>
        <time>2022-05-24 09:19:00</time>
      </trkpt>
      <trkpt lat="41.18425" lon="0.86316">
        <ele>335.6</ele>
        <time>2022-05-24 09:19:01</time>
      </trkpt>
      <trkpt lat="41.18422" lon="0.86316">
        <ele>335.8</ele>
        <time>2022-05-24 09:19:02</time>
      </trkpt>
      <trkpt lat="41.1842" lon="0.86316">
        <ele>335.8</ele>
        <time>2022-05-24 09:19:03</time>
      </trkpt>
      <trkpt lat="41.18417" lon="0.86316">
        <ele>336</ele>
        <time>2022-05-24 09:19:04</time>
      </trkpt>
      <trkpt lat="41.18414" lon="0.86316">
        <ele>336</ele>
        <time>2022-05-24 09:19:05</time>
      </trkpt>
      <trkpt lat="41.18412" lon="0.86316">
        <ele>336.2</ele>
        <time>2022-05-24 09:19:06</time>
      </trkpt>
      <trkpt lat="41.18409" lon="0.86316">
        <ele>336.2</ele>
        <time>2022-05-24 09:19:07</time>
      </trkpt>
      <trkpt lat="41.18406" lon="0.86316">
        <ele>336.4</ele>
        <time>2022-05-24 09:19:08</time>
      </trkpt>
      <trkpt lat="41.18403" lon="0.86315">
        <ele>336.4</ele>
        <time>2022-05-24 09:19:09</time>
      </trkpt>
      <trkpt lat="41.18401" lon="0.86315">
        <ele>336.6</ele>
        <time>2022-05-24 09:19:10</time>
      </trkpt>
      <trkpt lat="41.18398" lon="0.86315">
        <ele>336.6</ele>
        <time>2022-05-24 09:19:11</time>
      </trkpt>
      <trkpt lat="41.18395" lon="0.86315">
        <ele>336.8</ele>
        <time>2022-05-24 09:19:12</time>
      </trkpt>
      <trkpt lat="41.18392" lon="0.86315">
        <ele>337</ele>
        <time>2022-05-24 09:19:13</time>
      </trkpt>
      <trkpt lat="41.18388" lon="0.86314">
        <ele>337.2</ele>
        <time>2022-05-24 09:19:14</time>
      </trkpt>
      <trkpt lat="41.18386" lon="0.86314">
        <ele>337.2</ele>
        <time>2022-05-24 09:19:15</time>
      </trkpt>
      <trkpt lat="41.18382" lon="0.86313">
        <ele>337.4</ele>
        <time>2022-05-24 09:19:16</time>
      </trkpt>
      <trkpt lat="41.1838" lon="0.86314">
        <ele>337.6</ele>
        <time>2022-05-24 09:19:17</time>
      </trkpt>
      <trkpt lat="41.18377" lon="0.86314">
        <ele>337.6</ele>
        <time>2022-05-24 09:19:18</time>
      </trkpt>
      <trkpt lat="41.18375" lon="0.86314">
        <ele>337.8</ele>
        <time>2022-05-24 09:19:19</time>
      </trkpt>
      <trkpt lat="41.18372" lon="0.86314">
        <ele>338</ele>
        <time>2022-05-24 09:19:20</time>
      </trkpt>
      <trkpt lat="41.1837" lon="0.86314">
        <ele>338</ele>
        <time>2022-05-24 09:19:21</time>
      </trkpt>
      <trkpt lat="41.18367" lon="0.86314">
        <ele>338.2</ele>
        <time>2022-05-24 09:19:22</time>
      </trkpt>
      <trkpt lat="41.18366" lon="0.86314">
        <ele>338.4</ele>
        <time>2022-05-24 09:19:23</time>
      </trkpt>
      <trkpt lat="41.18363" lon="0.86314">
        <ele>338.4</ele>
        <time>2022-05-24 09:19:24</time>
      </trkpt>
      <trkpt lat="41.18361" lon="0.86314">
        <ele>338.6</ele>
        <time>2022-05-24 09:19:25</time>
      </trkpt>
      <trkpt lat="41.18359" lon="0.86314">
        <ele>338.8</ele>
        <time>2022-05-24 09:19:26</time>
      </trkpt>
      <trkpt lat="41.18356" lon="0.86314">
        <ele>338.8</ele>
        <time>2022-05-24 09:19:27</time>
      </trkpt>
      <trkpt lat="41.18354" lon="0.86314">
        <ele>339</ele>
        <time>2022-05-24 09:19:28</time>
      </trkpt>
      <trkpt lat="41.18351" lon="0.86314">
        <ele>339.2</ele>
        <time>2022-05-24 09:19:29</time>
      </trkpt>
      <trkpt lat="41.18349" lon="0.86314">
        <ele>339.2</ele>
        <time>2022-05-24 09:19:30</time>
      </trkpt>
      <trkpt lat="41.18347" lon="0.86314">
        <ele>339.4</ele>
        <time>2022-05-24 09:19:31</time>
      </trkpt>
      <trkpt lat="41.18345" lon="0.86314">
        <ele>339.4</ele>
        <time>2022-05-24 09:19:32</time>
      </trkpt>
      <trkpt lat="41.18342" lon="0.86314">
        <ele>339.6</ele>
        <time>2022-05-24 09:19:33</time>
      </trkpt>
      <trkpt lat="41.1834" lon="0.86313">
        <ele>339.8</ele>
        <time>2022-05-24 09:19:34</time>
      </trkpt>
      <trkpt lat="41.18337" lon="0.86313">
        <ele>339.8</ele>
        <time>2022-05-24 09:19:35</time>
      </trkpt>
      <trkpt lat="41.18335" lon="0.86313">
        <ele>340</ele>
        <time>2022-05-24 09:19:36</time>
      </trkpt>
      <trkpt lat="41.18332" lon="0.86313">
        <ele>340.2</ele>
        <time>2022-05-24 09:19:37</time>
      </trkpt>
      <trkpt lat="41.1833" lon="0.86313">
        <ele>340.2</ele>
        <time>2022-05-24 09:19:38</time>
      </trkpt>
      <trkpt lat="41.18327" lon="0.86313">
        <ele>340.4</ele>
        <time>2022-05-24 09:19:39</time>
      </trkpt>
      <trkpt lat="41.18325" lon="0.86313">
        <ele>340.4</ele>
        <time>2022-05-24 09:19:40</time>
      </trkpt>
      <trkpt lat="41.18323" lon="0.86314">
        <ele>340.6</ele>
        <time>2022-05-24 09:19:41</time>
      </trkpt>
      <trkpt lat="41.1832" lon="0.86314">
        <ele>340.8</ele>
        <time>2022-05-24 09:19:42</time>
      </trkpt>
      <trkpt lat="41.18318" lon="0.86315">
        <ele>340.8</ele>
        <time>2022-05-24 09:19:43</time>
      </trkpt>
      <trkpt lat="41.18316" lon="0.86315">
        <ele>341</ele>
        <time>2022-05-24 09:19:44</time>
      </trkpt>
      <trkpt lat="41.18313" lon="0.86315">
        <ele>341</ele>
        <time>2022-05-24 09:19:45</time>
      </trkpt>
      <trkpt lat="41.18311" lon="0.86316">
        <ele>341.2</ele>
        <time>2022-05-24 09:19:46</time>
      </trkpt>
      <trkpt lat="41.18309" lon="0.86316">
        <ele>341.4</ele>
        <time>2022-05-24 09:19:47</time>
      </trkpt>
      <trkpt lat="41.18306" lon="0.86317">
        <ele>341.4</ele>
        <time>2022-05-24 09:19:48</time>
      </trkpt>
      <trkpt lat="41.18304" lon="0.86318">
        <ele>341.6</ele>
        <time>2022-05-24 09:19:49</time>
      </trkpt>
      <trkpt lat="41.18301" lon="0.86319">
        <ele>341.6</ele>
        <time>2022-05-24 09:19:50</time>
      </trkpt>
      <trkpt lat="41.18299" lon="0.8632">
        <ele>341.8</ele>
        <time>2022-05-24 09:19:51</time>
      </trkpt>
      <trkpt lat="41.18297" lon="0.86322">
        <ele>341.8</ele>
        <time>2022-05-24 09:19:52</time>
      </trkpt>
      <trkpt lat="41.18295" lon="0.86323">
        <ele>342</ele>
        <time>2022-05-24 09:19:53</time>
      </trkpt>
      <trkpt lat="41.18293" lon="0.86325">
        <ele>342</ele>
        <time>2022-05-24 09:19:54</time>
      </trkpt>
      <trkpt lat="41.18291" lon="0.86327">
        <ele>342.2</ele>
        <time>2022-05-24 09:19:55</time>
      </trkpt>
      <trkpt lat="41.18289" lon="0.86329">
        <ele>342.2</ele>
        <time>2022-05-24 09:19:56</time>
      </trkpt>
      <trkpt lat="41.18287" lon="0.86332">
        <ele>342.4</ele>
        <time>2022-05-24 09:19:57</time>
      </trkpt>
      <trkpt lat="41.18286" lon="0.86335">
        <ele>342.4</ele>
        <time>2022-05-24 09:19:58</time>
      </trkpt>
      <trkpt lat="41.18284" lon="0.86338">
        <ele>342.6</ele>
        <time>2022-05-24 09:19:59</time>
      </trkpt>
      <trkpt lat="41.18283" lon="0.86341">
        <ele>342.8</ele>
        <time>2022-05-24 09:20:00</time>
      </trkpt>
      <trkpt lat="41.18282" lon="0.86344">
        <ele>342.8</ele>
        <time>2022-05-24 09:20:01</time>
      </trkpt>
      <trkpt lat="41.18281" lon="0.86347">
        <ele>343</ele>
        <time>2022-05-24 09:20:02</time>
      </trkpt>
      <trkpt lat="41.1828" lon="0.86351">
        <ele>343</ele>
        <time>2022-05-24 09:20:03</time>
      </trkpt>
      <trkpt lat="41.1828" lon="0.86353">
        <ele>343.2</ele>
        <time>2022-05-24 09:20:04</time>
      </trkpt>
      <trkpt lat="41.18279" lon="0.86357">
        <ele>343.2</ele>
        <time>2022-05-24 09:20:05</time>
      </trkpt>
      <trkpt lat="41.18278" lon="0.86361">
        <ele>343.4</ele>
        <time>2022-05-24 09:20:06</time>
      </trkpt>
      <trkpt lat="41.18278" lon="0.86364">
        <ele>343.4</ele>
        <time>2022-05-24 09:20:07</time>
      </trkpt>
      <trkpt lat="41.18278" lon="0.86367">
        <ele>343.6</ele>
        <time>2022-05-24 09:20:08</time>
      </trkpt>
      <trkpt lat="41.18279" lon="0.8637">
        <ele>343.8</ele>
        <time>2022-05-24 09:20:09</time>
      </trkpt>
      <trkpt lat="41.1828" lon="0.86374">
        <ele>343.8</ele>
        <time>2022-05-24 09:20:10</time>
      </trkpt>
      <trkpt lat="41.1828" lon="0.86377">
        <ele>343.8</ele>
        <time>2022-05-24 09:20:11</time>
      </trkpt>
      <trkpt lat="41.18281" lon="0.8638">
        <ele>344</ele>
        <time>2022-05-24 09:20:12</time>
      </trkpt>
      <trkpt lat="41.18283" lon="0.86383">
        <ele>344</ele>
        <time>2022-05-24 09:20:13</time>
      </trkpt>
      <trkpt lat="41.18285" lon="0.86386">
        <ele>344</ele>
        <time>2022-05-24 09:20:14</time>
      </trkpt>
      <trkpt lat="41.18286" lon="0.86389">
        <ele>344</ele>
        <time>2022-05-24 09:20:15</time>
      </trkpt>
      <trkpt lat="41.18287" lon="0.86392">
        <ele>344.2</ele>
        <time>2022-05-24 09:20:16</time>
      </trkpt>
      <trkpt lat="41.18289" lon="0.86395">
        <ele>344.2</ele>
        <time>2022-05-24 09:20:17</time>
      </trkpt>
      <trkpt lat="41.1829" lon="0.86398">
        <ele>344.4</ele>
        <time>2022-05-24 09:20:18</time>
      </trkpt>
      <trkpt lat="41.18292" lon="0.86401">
        <ele>344.4</ele>
        <time>2022-05-24 09:20:19</time>
      </trkpt>
      <trkpt lat="41.18294" lon="0.86403">
        <ele>344.6</ele>
        <time>2022-05-24 09:20:20</time>
      </trkpt>
      <trkpt lat="41.18296" lon="0.86406">
        <ele>344.6</ele>
        <time>2022-05-24 09:20:21</time>
      </trkpt>
      <trkpt lat="41.18298" lon="0.86409">
        <ele>344.6</ele>
        <time>2022-05-24 09:20:22</time>
      </trkpt>
      <trkpt lat="41.18299" lon="0.86412">
        <ele>344.8</ele>
        <time>2022-05-24 09:20:23</time>
      </trkpt>
      <trkpt lat="41.18301" lon="0.86414">
        <ele>344.8</ele>
        <time>2022-05-24 09:20:24</time>
      </trkpt>
      <trkpt lat="41.18303" lon="0.86417">
        <ele>344.8</ele>
        <time>2022-05-24 09:20:25</time>
      </trkpt>
      <trkpt lat="41.18305" lon="0.8642">
        <ele>345</ele>
        <time>2022-05-24 09:20:26</time>
      </trkpt>
      <trkpt lat="41.18307" lon="0.86423">
        <ele>345</ele>
        <time>2022-05-24 09:20:27</time>
      </trkpt>
      <trkpt lat="41.18309" lon="0.86425">
        <ele>345</ele>
        <time>2022-05-24 09:20:28</time>
      </trkpt>
      <trkpt lat="41.18311" lon="0.86429">
        <ele>345</ele>
        <time>2022-05-24 09:20:29</time>
      </trkpt>
      <trkpt lat="41.18313" lon="0.86431">
        <ele>345.2</ele>
        <time>2022-05-24 09:20:30</time>
      </trkpt>
      <trkpt lat="41.18315" lon="0.86434">
        <ele>345.2</ele>
        <time>2022-05-24 09:20:31</time>
      </trkpt>
      <trkpt lat="41.18317" lon="0.86436">
        <ele>345.2</ele>
        <time>2022-05-24 09:20:32</time>
      </trkpt>
      <trkpt lat="41.18319" lon="0.8644">
        <ele>345.4</ele>
        <time>2022-05-24 09:20:33</time>
      </trkpt>
      <trkpt lat="41.18321" lon="0.86443">
        <ele>345.4</ele>
        <time>2022-05-24 09:20:34</time>
      </trkpt>
      <trkpt lat="41.18323" lon="0.86446">
        <ele>345.4</ele>
        <time>2022-05-24 09:20:35</time>
      </trkpt>
      <trkpt lat="41.18325" lon="0.86449">
        <ele>345.6</ele>
        <time>2022-05-24 09:20:36</time>
      </trkpt>
      <trkpt lat="41.18327" lon="0.86452">
        <ele>345.6</ele>
        <time>2022-05-24 09:20:37</time>
      </trkpt>
      <trkpt lat="41.18328" lon="0.86455">
        <ele>345.6</ele>
        <time>2022-05-24 09:20:38</time>
      </trkpt>
      <trkpt lat="41.1833" lon="0.86457">
        <ele>345.6</ele>
        <time>2022-05-24 09:20:39</time>
      </trkpt>
      <trkpt lat="41.18331" lon="0.86461">
        <ele>345.8</ele>
        <time>2022-05-24 09:20:40</time>
      </trkpt>
      <trkpt lat="41.18333" lon="0.86465">
        <ele>345.8</ele>
        <time>2022-05-24 09:20:41</time>
      </trkpt>
      <trkpt lat="41.18333" lon="0.86468">
        <ele>345.8</ele>
        <time>2022-05-24 09:20:42</time>
      </trkpt>
      <trkpt lat="41.18334" lon="0.86471">
        <ele>345.8</ele>
        <time>2022-05-24 09:20:43</time>
      </trkpt>
      <trkpt lat="41.18334" lon="0.86476">
        <ele>346</ele>
        <time>2022-05-24 09:20:44</time>
      </trkpt>
      <trkpt lat="41.18334" lon="0.8648">
        <ele>346</ele>
        <time>2022-05-24 09:20:45</time>
      </trkpt>
      <trkpt lat="41.18333" lon="0.86484">
        <ele>346.2</ele>
        <time>2022-05-24 09:20:46</time>
      </trkpt>
      <trkpt lat="41.18333" lon="0.86487">
        <ele>346.2</ele>
        <time>2022-05-24 09:20:47</time>
      </trkpt>
      <trkpt lat="41.18331" lon="0.86491">
        <ele>346.2</ele>
        <time>2022-05-24 09:20:48</time>
      </trkpt>
      <trkpt lat="41.1833" lon="0.86494">
        <ele>346.4</ele>
        <time>2022-05-24 09:20:49</time>
      </trkpt>
      <trkpt lat="41.18328" lon="0.86497">
        <ele>346.4</ele>
        <time>2022-05-24 09:20:50</time>
      </trkpt>
      <trkpt lat="41.18327" lon="0.865">
        <ele>346.6</ele>
        <time>2022-05-24 09:20:51</time>
      </trkpt>
      <trkpt lat="41.18325" lon="0.86503">
        <ele>346.6</ele>
        <time>2022-05-24 09:20:52</time>
      </trkpt>
      <trkpt lat="41.18323" lon="0.86506">
        <ele>346.6</ele>
        <time>2022-05-24 09:20:53</time>
      </trkpt>
      <trkpt lat="41.18321" lon="0.86508">
        <ele>346.8</ele>
        <time>2022-05-24 09:20:54</time>
      </trkpt>
      <trkpt lat="41.18319" lon="0.8651">
        <ele>346.8</ele>
        <time>2022-05-24 09:20:55</time>
      </trkpt>
      <trkpt lat="41.18317" lon="0.86512">
        <ele>346.8</ele>
        <time>2022-05-24 09:20:56</time>
      </trkpt>
      <trkpt lat="41.18314" lon="0.86514">
        <ele>347</ele>
        <time>2022-05-24 09:20:57</time>
      </trkpt>
      <trkpt lat="41.18312" lon="0.86516">
        <ele>347</ele>
        <time>2022-05-24 09:20:58</time>
      </trkpt>
      <trkpt lat="41.18311" lon="0.86518">
        <ele>347.2</ele>
        <time>2022-05-24 09:20:59</time>
      </trkpt>
      <trkpt lat="41.18308" lon="0.8652">
        <ele>347.2</ele>
        <time>2022-05-24 09:21:00</time>
      </trkpt>
      <trkpt lat="41.18306" lon="0.86523">
        <ele>347.2</ele>
        <time>2022-05-24 09:21:01</time>
      </trkpt>
      <trkpt lat="41.18304" lon="0.86525">
        <ele>347.4</ele>
        <time>2022-05-24 09:21:02</time>
      </trkpt>
      <trkpt lat="41.18302" lon="0.86527">
        <ele>347.4</ele>
        <time>2022-05-24 09:21:03</time>
      </trkpt>
      <trkpt lat="41.18299" lon="0.86529">
        <ele>347.6</ele>
        <time>2022-05-24 09:21:04</time>
      </trkpt>
      <trkpt lat="41.18297" lon="0.86531">
        <ele>347.6</ele>
        <time>2022-05-24 09:21:05</time>
      </trkpt>
      <trkpt lat="41.18295" lon="0.86534">
        <ele>347.6</ele>
        <time>2022-05-24 09:21:06</time>
      </trkpt>
      <trkpt lat="41.18293" lon="0.86536">
        <ele>347.8</ele>
        <time>2022-05-24 09:21:07</time>
      </trkpt>
      <trkpt lat="41.18291" lon="0.86538">
        <ele>347.8</ele>
        <time>2022-05-24 09:21:08</time>
      </trkpt>
      <trkpt lat="41.18289" lon="0.86541">
        <ele>348</ele>
        <time>2022-05-24 09:21:09</time>
      </trkpt>
      <trkpt lat="41.18287" lon="0.86543">
        <ele>348</ele>
        <time>2022-05-24 09:21:10</time>
      </trkpt>
      <trkpt lat="41.18285" lon="0.86545">
        <ele>348.2</ele>
        <time>2022-05-24 09:21:11</time>
      </trkpt>
      <trkpt lat="41.18283" lon="0.86547">
        <ele>348.2</ele>
        <time>2022-05-24 09:21:12</time>
      </trkpt>
      <trkpt lat="41.18281" lon="0.86549">
        <ele>348.4</ele>
        <time>2022-05-24 09:21:13</time>
      </trkpt>
      <trkpt lat="41.18278" lon="0.86551">
        <ele>348.4</ele>
        <time>2022-05-24 09:21:14</time>
      </trkpt>
      <trkpt lat="41.18277" lon="0.86553">
        <ele>348.6</ele>
        <time>2022-05-24 09:21:15</time>
      </trkpt>
      <trkpt lat="41.18275" lon="0.86555">
        <ele>348.6</ele>
        <time>2022-05-24 09:21:16</time>
      </trkpt>
      <trkpt lat="41.18272" lon="0.86557">
        <ele>348.8</ele>
        <time>2022-05-24 09:21:17</time>
      </trkpt>
      <trkpt lat="41.1827" lon="0.8656">
        <ele>348.8</ele>
        <time>2022-05-24 09:21:18</time>
      </trkpt>
      <trkpt lat="41.18268" lon="0.86562">
        <ele>349</ele>
        <time>2022-05-24 09:21:19</time>
      </trkpt>
      <trkpt lat="41.18265" lon="0.86565">
        <ele>349</ele>
        <time>2022-05-24 09:21:20</time>
      </trkpt>
      <trkpt lat="41.18263" lon="0.86567">
        <ele>349.2</ele>
        <time>2022-05-24 09:21:21</time>
      </trkpt>
      <trkpt lat="41.18261" lon="0.8657">
        <ele>349.4</ele>
        <time>2022-05-24 09:21:22</time>
      </trkpt>
      <trkpt lat="41.18259" lon="0.86573">
        <ele>349.4</ele>
        <time>2022-05-24 09:21:23</time>
      </trkpt>
      <trkpt lat="41.18257" lon="0.86576">
        <ele>349.6</ele>
        <time>2022-05-24 09:21:24</time>
      </trkpt>
      <trkpt lat="41.18255" lon="0.8658">
        <ele>349.6</ele>
        <time>2022-05-24 09:21:25</time>
      </trkpt>
      <trkpt lat="41.18253" lon="0.86582">
        <ele>349.8</ele>
        <time>2022-05-24 09:21:26</time>
      </trkpt>
      <trkpt lat="41.18251" lon="0.86587">
        <ele>350</ele>
        <time>2022-05-24 09:21:27</time>
      </trkpt>
      <trkpt lat="41.18249" lon="0.8659">
        <ele>350</ele>
        <time>2022-05-24 09:21:28</time>
      </trkpt>
      <trkpt lat="41.18247" lon="0.86594">
        <ele>350.2</ele>
        <time>2022-05-24 09:21:29</time>
      </trkpt>
      <trkpt lat="41.18246" lon="0.86598">
        <ele>350.4</ele>
        <time>2022-05-24 09:21:30</time>
      </trkpt>
      <trkpt lat="41.18245" lon="0.86601">
        <ele>350.4</ele>
        <time>2022-05-24 09:21:31</time>
      </trkpt>
      <trkpt lat="41.18244" lon="0.86604">
        <ele>350.6</ele>
        <time>2022-05-24 09:21:32</time>
      </trkpt>
      <trkpt lat="41.18242" lon="0.86608">
        <ele>350.8</ele>
        <time>2022-05-24 09:21:33</time>
      </trkpt>
      <trkpt lat="41.18241" lon="0.86611">
        <ele>351</ele>
        <time>2022-05-24 09:21:34</time>
      </trkpt>
      <trkpt lat="41.18241" lon="0.86615">
        <ele>351.2</ele>
        <time>2022-05-24 09:21:35</time>
      </trkpt>
      <trkpt lat="41.1824" lon="0.86618">
        <ele>351.2</ele>
        <time>2022-05-24 09:21:36</time>
      </trkpt>
      <trkpt lat="41.18239" lon="0.86622">
        <ele>351.4</ele>
        <time>2022-05-24 09:21:37</time>
      </trkpt>
      <trkpt lat="41.18238" lon="0.86625">
        <ele>351.6</ele>
        <time>2022-05-24 09:21:38</time>
      </trkpt>
      <trkpt lat="41.18238" lon="0.86629">
        <ele>351.8</ele>
        <time>2022-05-24 09:21:39</time>
      </trkpt>
      <trkpt lat="41.18237" lon="0.86632">
        <ele>351.8</ele>
        <time>2022-05-24 09:21:40</time>
      </trkpt>
      <trkpt lat="41.18237" lon="0.86636">
        <ele>352</ele>
        <time>2022-05-24 09:21:41</time>
      </trkpt>
      <trkpt lat="41.18236" lon="0.86639">
        <ele>352.2</ele>
        <time>2022-05-24 09:21:42</time>
      </trkpt>
      <trkpt lat="41.18236" lon="0.86643">
        <ele>352.4</ele>
        <time>2022-05-24 09:21:43</time>
      </trkpt>
      <trkpt lat="41.18235" lon="0.86646">
        <ele>352.4</ele>
        <time>2022-05-24 09:21:44</time>
      </trkpt>
      <trkpt lat="41.18235" lon="0.8665">
        <ele>352.6</ele>
        <time>2022-05-24 09:21:45</time>
      </trkpt>
      <trkpt lat="41.18235" lon="0.86653">
        <ele>352.8</ele>
        <time>2022-05-24 09:21:46</time>
      </trkpt>
      <trkpt lat="41.18234" lon="0.86656">
        <ele>352.8</ele>
        <time>2022-05-24 09:21:47</time>
      </trkpt>
      <trkpt lat="41.18234" lon="0.86659">
        <ele>353</ele>
        <time>2022-05-24 09:21:48</time>
      </trkpt>
      <trkpt lat="41.18234" lon="0.86664">
        <ele>353.2</ele>
        <time>2022-05-24 09:21:49</time>
      </trkpt>
      <trkpt lat="41.18234" lon="0.86667">
        <ele>353.2</ele>
        <time>2022-05-24 09:21:50</time>
      </trkpt>
      <trkpt lat="41.18233" lon="0.86671">
        <ele>353.4</ele>
        <time>2022-05-24 09:21:51</time>
      </trkpt>
      <trkpt lat="41.18233" lon="0.86674">
        <ele>353.4</ele>
        <time>2022-05-24 09:21:52</time>
      </trkpt>
      <trkpt lat="41.18232" lon="0.86679">
        <ele>353.6</ele>
        <time>2022-05-24 09:21:53</time>
      </trkpt>
      <trkpt lat="41.18232" lon="0.86683">
        <ele>353.6</ele>
        <time>2022-05-24 09:21:54</time>
      </trkpt>
      <trkpt lat="41.18232" lon="0.86686">
        <ele>353.6</ele>
        <time>2022-05-24 09:21:55</time>
      </trkpt>
      <trkpt lat="41.18232" lon="0.86689">
        <ele>353.8</ele>
        <time>2022-05-24 09:21:56</time>
      </trkpt>
      <trkpt lat="41.18231" lon="0.86693">
        <ele>353.8</ele>
        <time>2022-05-24 09:21:57</time>
      </trkpt>
      <trkpt lat="41.18231" lon="0.86697">
        <ele>353.8</ele>
        <time>2022-05-24 09:21:58</time>
      </trkpt>
      <trkpt lat="41.1823" lon="0.86701">
        <ele>354</ele>
        <time>2022-05-24 09:21:59</time>
      </trkpt>
      <trkpt lat="41.1823" lon="0.86705">
        <ele>354</ele>
        <time>2022-05-24 09:22:00</time>
      </trkpt>
      <trkpt lat="41.18229" lon="0.86711">
        <ele>354</ele>
        <time>2022-05-24 09:22:01</time>
      </trkpt>
      <trkpt lat="41.18228" lon="0.86714">
        <ele>354</ele>
        <time>2022-05-24 09:22:02</time>
      </trkpt>
      <trkpt lat="41.18228" lon="0.86718">
        <ele>354.2</ele>
        <time>2022-05-24 09:22:03</time>
      </trkpt>
      <trkpt lat="41.18226" lon="0.86723">
        <ele>354.2</ele>
        <time>2022-05-24 09:22:04</time>
      </trkpt>
      <trkpt lat="41.18225" lon="0.86727">
        <ele>354.2</ele>
        <time>2022-05-24 09:22:05</time>
      </trkpt>
      <trkpt lat="41.18224" lon="0.8673">
        <ele>354.2</ele>
        <time>2022-05-24 09:22:06</time>
      </trkpt>
      <trkpt lat="41.18222" lon="0.86735">
        <ele>354.2</ele>
        <time>2022-05-24 09:22:07</time>
      </trkpt>
      <trkpt lat="41.18221" lon="0.86739">
        <ele>354.2</ele>
        <time>2022-05-24 09:22:08</time>
      </trkpt>
      <trkpt lat="41.18219" lon="0.86742">
        <ele>354.2</ele>
        <time>2022-05-24 09:22:09</time>
      </trkpt>
      <trkpt lat="41.18216" lon="0.86746">
        <ele>354.2</ele>
        <time>2022-05-24 09:22:10</time>
      </trkpt>
      <trkpt lat="41.18214" lon="0.8675">
        <ele>354.2</ele>
        <time>2022-05-24 09:22:11</time>
      </trkpt>
      <trkpt lat="41.18211" lon="0.86753">
        <ele>354.2</ele>
        <time>2022-05-24 09:22:12</time>
      </trkpt>
      <trkpt lat="41.18208" lon="0.86756">
        <ele>354.2</ele>
        <time>2022-05-24 09:22:13</time>
      </trkpt>
      <trkpt lat="41.18205" lon="0.8676">
        <ele>354.2</ele>
        <time>2022-05-24 09:22:14</time>
      </trkpt>
      <trkpt lat="41.18203" lon="0.86762">
        <ele>354.2</ele>
        <time>2022-05-24 09:22:15</time>
      </trkpt>
      <trkpt lat="41.182" lon="0.86766">
        <ele>354.2</ele>
        <time>2022-05-24 09:22:16</time>
      </trkpt>
      <trkpt lat="41.18196" lon="0.86769">
        <ele>354.4</ele>
        <time>2022-05-24 09:22:17</time>
      </trkpt>
      <trkpt lat="41.18194" lon="0.86771">
        <ele>354.4</ele>
        <time>2022-05-24 09:22:18</time>
      </trkpt>
      <trkpt lat="41.1819" lon="0.86774">
        <ele>354.4</ele>
        <time>2022-05-24 09:22:19</time>
      </trkpt>
      <trkpt lat="41.18187" lon="0.86776">
        <ele>354.4</ele>
        <time>2022-05-24 09:22:20</time>
      </trkpt>
      <trkpt lat="41.18184" lon="0.86777">
        <ele>354.4</ele>
        <time>2022-05-24 09:22:21</time>
      </trkpt>
      <trkpt lat="41.18179" lon="0.8678">
        <ele>354.4</ele>
        <time>2022-05-24 09:22:22</time>
      </trkpt>
      <trkpt lat="41.18175" lon="0.86781">
        <ele>354.4</ele>
        <time>2022-05-24 09:22:23</time>
      </trkpt>
      <trkpt lat="41.18172" lon="0.86782">
        <ele>354.6</ele>
        <time>2022-05-24 09:22:24</time>
      </trkpt>
      <trkpt lat="41.18168" lon="0.86784">
        <ele>354.6</ele>
        <time>2022-05-24 09:22:25</time>
      </trkpt>
      <trkpt lat="41.18164" lon="0.86785">
        <ele>354.6</ele>
        <time>2022-05-24 09:22:26</time>
      </trkpt>
      <trkpt lat="41.18161" lon="0.86786">
        <ele>354.8</ele>
        <time>2022-05-24 09:22:27</time>
      </trkpt>
      <trkpt lat="41.18157" lon="0.86787">
        <ele>354.8</ele>
        <time>2022-05-24 09:22:28</time>
      </trkpt>
      <trkpt lat="41.18154" lon="0.86788">
        <ele>355</ele>
        <time>2022-05-24 09:22:29</time>
      </trkpt>
      <trkpt lat="41.18151" lon="0.86789">
        <ele>355</ele>
        <time>2022-05-24 09:22:30</time>
      </trkpt>
      <trkpt lat="41.18147" lon="0.8679">
        <ele>355.2</ele>
        <time>2022-05-24 09:22:31</time>
      </trkpt>
      <trkpt lat="41.18144" lon="0.8679">
        <ele>355.2</ele>
        <time>2022-05-24 09:22:32</time>
      </trkpt>
      <trkpt lat="41.1814" lon="0.8679">
        <ele>355.2</ele>
        <time>2022-05-24 09:22:33</time>
      </trkpt>
      <trkpt lat="41.18136" lon="0.8679">
        <ele>355.4</ele>
        <time>2022-05-24 09:22:34</time>
      </trkpt>
      <trkpt lat="41.18133" lon="0.8679">
        <ele>355.4</ele>
        <time>2022-05-24 09:22:35</time>
      </trkpt>
      <trkpt lat="41.1813" lon="0.86791">
        <ele>355.6</ele>
        <time>2022-05-24 09:22:36</time>
      </trkpt>
      <trkpt lat="41.18126" lon="0.86792">
        <ele>355.6</ele>
        <time>2022-05-24 09:22:37</time>
      </trkpt>
      <trkpt lat="41.18123" lon="0.86792">
        <ele>355.6</ele>
        <time>2022-05-24 09:22:38</time>
      </trkpt>
      <trkpt lat="41.18121" lon="0.86793">
        <ele>355.8</ele>
        <time>2022-05-24 09:22:39</time>
      </trkpt>
      <trkpt lat="41.18117" lon="0.86794">
        <ele>355.8</ele>
        <time>2022-05-24 09:22:40</time>
      </trkpt>
      <trkpt lat="41.18114" lon="0.86794">
        <ele>356</ele>
        <time>2022-05-24 09:22:41</time>
      </trkpt>
      <trkpt lat="41.18111" lon="0.86794">
        <ele>356</ele>
        <time>2022-05-24 09:22:42</time>
      </trkpt>
      <trkpt lat="41.18107" lon="0.86795">
        <ele>356.2</ele>
        <time>2022-05-24 09:22:43</time>
      </trkpt>
      <trkpt lat="41.18104" lon="0.86795">
        <ele>356.2</ele>
        <time>2022-05-24 09:22:44</time>
      </trkpt>
      <trkpt lat="41.18101" lon="0.86796">
        <ele>356.4</ele>
        <time>2022-05-24 09:22:45</time>
      </trkpt>
      <trkpt lat="41.18098" lon="0.86797">
        <ele>356.4</ele>
        <time>2022-05-24 09:22:46</time>
      </trkpt>
      <trkpt lat="41.18095" lon="0.86797">
        <ele>356.6</ele>
        <time>2022-05-24 09:22:47</time>
      </trkpt>
      <trkpt lat="41.18092" lon="0.86798">
        <ele>356.6</ele>
        <time>2022-05-24 09:22:48</time>
      </trkpt>
      <trkpt lat="41.18089" lon="0.86798">
        <ele>356.8</ele>
        <time>2022-05-24 09:22:49</time>
      </trkpt>
      <trkpt lat="41.18085" lon="0.86798">
        <ele>356.8</ele>
        <time>2022-05-24 09:22:50</time>
      </trkpt>
      <trkpt lat="41.18083" lon="0.86799">
        <ele>357</ele>
        <time>2022-05-24 09:22:51</time>
      </trkpt>
      <trkpt lat="41.18079" lon="0.86799">
        <ele>357</ele>
        <time>2022-05-24 09:22:52</time>
      </trkpt>
      <trkpt lat="41.18076" lon="0.868">
        <ele>357.2</ele>
        <time>2022-05-24 09:22:53</time>
      </trkpt>
      <trkpt lat="41.18074" lon="0.868">
        <ele>357.2</ele>
        <time>2022-05-24 09:22:54</time>
      </trkpt>
      <trkpt lat="41.18071" lon="0.86801">
        <ele>357.4</ele>
        <time>2022-05-24 09:22:55</time>
      </trkpt>
      <trkpt lat="41.18068" lon="0.86801">
        <ele>357.6</ele>
        <time>2022-05-24 09:22:56</time>
      </trkpt>
      <trkpt lat="41.18066" lon="0.86802">
        <ele>357.6</ele>
        <time>2022-05-24 09:22:57</time>
      </trkpt>
      <trkpt lat="41.18064" lon="0.86802">
        <ele>357.8</ele>
        <time>2022-05-24 09:22:58</time>
      </trkpt>
      <trkpt lat="41.18061" lon="0.86802">
        <ele>357.8</ele>
        <time>2022-05-24 09:22:59</time>
      </trkpt>
      <trkpt lat="41.18058" lon="0.86802">
        <ele>358</ele>
        <time>2022-05-24 09:23:00</time>
      </trkpt>
      <trkpt lat="41.18056" lon="0.86803">
        <ele>358.2</ele>
        <time>2022-05-24 09:23:01</time>
      </trkpt>
      <trkpt lat="41.18054" lon="0.86803">
        <ele>358.2</ele>
        <time>2022-05-24 09:23:02</time>
      </trkpt>
      <trkpt lat="41.18051" lon="0.86804">
        <ele>358.4</ele>
        <time>2022-05-24 09:23:03</time>
      </trkpt>
      <trkpt lat="41.18049" lon="0.86805">
        <ele>358.6</ele>
        <time>2022-05-24 09:23:04</time>
      </trkpt>
      <trkpt lat="41.18047" lon="0.86806">
        <ele>358.8</ele>
        <time>2022-05-24 09:23:05</time>
      </trkpt>
      <trkpt lat="41.18045" lon="0.86806">
        <ele>358.8</ele>
        <time>2022-05-24 09:23:06</time>
      </trkpt>
      <trkpt lat="41.18042" lon="0.86806">
        <ele>359</ele>
        <time>2022-05-24 09:23:07</time>
      </trkpt>
      <trkpt lat="41.18039" lon="0.86806">
        <ele>359.2</ele>
        <time>2022-05-24 09:23:08</time>
      </trkpt>
      <trkpt lat="41.18037" lon="0.86806">
        <ele>359.4</ele>
        <time>2022-05-24 09:23:09</time>
      </trkpt>
      <trkpt lat="41.18035" lon="0.86806">
        <ele>359.4</ele>
        <time>2022-05-24 09:23:10</time>
      </trkpt>
      <trkpt lat="41.18033" lon="0.86807">
        <ele>359.6</ele>
        <time>2022-05-24 09:23:11</time>
      </trkpt>
      <trkpt lat="41.18031" lon="0.86807">
        <ele>359.8</ele>
        <time>2022-05-24 09:23:12</time>
      </trkpt>
      <trkpt lat="41.18028" lon="0.86807">
        <ele>360</ele>
        <time>2022-05-24 09:23:13</time>
      </trkpt>
      <trkpt lat="41.18026" lon="0.86807">
        <ele>360.2</ele>
        <time>2022-05-24 09:23:14</time>
      </trkpt>
      <trkpt lat="41.18024" lon="0.86808">
        <ele>360.2</ele>
        <time>2022-05-24 09:23:15</time>
      </trkpt>
      <trkpt lat="41.18021" lon="0.86808">
        <ele>360.4</ele>
        <time>2022-05-24 09:23:16</time>
      </trkpt>
      <trkpt lat="41.18019" lon="0.86808">
        <ele>360.6</ele>
        <time>2022-05-24 09:23:17</time>
      </trkpt>
      <trkpt lat="41.18017" lon="0.86809">
        <ele>360.8</ele>
        <time>2022-05-24 09:23:18</time>
      </trkpt>
      <trkpt lat="41.18015" lon="0.86809">
        <ele>361</ele>
        <time>2022-05-24 09:23:19</time>
      </trkpt>
      <trkpt lat="41.18013" lon="0.8681">
        <ele>361.2</ele>
        <time>2022-05-24 09:23:20</time>
      </trkpt>
      <trkpt lat="41.1801" lon="0.8681">
        <ele>361.4</ele>
        <time>2022-05-24 09:23:21</time>
      </trkpt>
      <trkpt lat="41.18008" lon="0.8681">
        <ele>361.6</ele>
        <time>2022-05-24 09:23:22</time>
      </trkpt>
      <trkpt lat="41.18006" lon="0.8681">
        <ele>361.8</ele>
        <time>2022-05-24 09:23:23</time>
      </trkpt>
      <trkpt lat="41.18004" lon="0.8681">
        <ele>362</ele>
        <time>2022-05-24 09:23:24</time>
      </trkpt>
      <trkpt lat="41.18002" lon="0.86811">
        <ele>362.2</ele>
        <time>2022-05-24 09:23:25</time>
      </trkpt>
      <trkpt lat="41.18" lon="0.86812">
        <ele>362.4</ele>
        <time>2022-05-24 09:23:26</time>
      </trkpt>
      <trkpt lat="41.17997" lon="0.86813">
        <ele>362.6</ele>
        <time>2022-05-24 09:23:27</time>
      </trkpt>
      <trkpt lat="41.17995" lon="0.86814">
        <ele>362.8</ele>
        <time>2022-05-24 09:23:28</time>
      </trkpt>
      <trkpt lat="41.17994" lon="0.86814">
        <ele>363</ele>
        <time>2022-05-24 09:23:29</time>
      </trkpt>
      <trkpt lat="41.17991" lon="0.86816">
        <ele>363.2</ele>
        <time>2022-05-24 09:23:30</time>
      </trkpt>
      <trkpt lat="41.17989" lon="0.86817">
        <ele>363.4</ele>
        <time>2022-05-24 09:23:31</time>
      </trkpt>
      <trkpt lat="41.17987" lon="0.86818">
        <ele>363.6</ele>
        <time>2022-05-24 09:23:32</time>
      </trkpt>
      <trkpt lat="41.17985" lon="0.86819">
        <ele>363.8</ele>
        <time>2022-05-24 09:23:33</time>
      </trkpt>
      <trkpt lat="41.17983" lon="0.8682">
        <ele>364</ele>
        <time>2022-05-24 09:23:34</time>
      </trkpt>
      <trkpt lat="41.17981" lon="0.86822">
        <ele>364.2</ele>
        <time>2022-05-24 09:23:35</time>
      </trkpt>
      <trkpt lat="41.17979" lon="0.86824">
        <ele>364.4</ele>
        <time>2022-05-24 09:23:36</time>
      </trkpt>
      <trkpt lat="41.17977" lon="0.86826">
        <ele>364.6</ele>
        <time>2022-05-24 09:23:37</time>
      </trkpt>
      <trkpt lat="41.17975" lon="0.86828">
        <ele>364.8</ele>
        <time>2022-05-24 09:23:38</time>
      </trkpt>
      <trkpt lat="41.17973" lon="0.8683">
        <ele>364.8</ele>
        <time>2022-05-24 09:23:39</time>
      </trkpt>
      <trkpt lat="41.17972" lon="0.86832">
        <ele>365</ele>
        <time>2022-05-24 09:23:40</time>
      </trkpt>
      <trkpt lat="41.1797" lon="0.86835">
        <ele>365.2</ele>
        <time>2022-05-24 09:23:41</time>
      </trkpt>
      <trkpt lat="41.17969" lon="0.86837">
        <ele>365.4</ele>
        <time>2022-05-24 09:23:42</time>
      </trkpt>
      <trkpt lat="41.17968" lon="0.8684">
        <ele>365.6</ele>
        <time>2022-05-24 09:23:43</time>
      </trkpt>
      <trkpt lat="41.17966" lon="0.86842">
        <ele>365.8</ele>
        <time>2022-05-24 09:23:44</time>
      </trkpt>
      <trkpt lat="41.17965" lon="0.86845">
        <ele>365.8</ele>
        <time>2022-05-24 09:23:45</time>
      </trkpt>
      <trkpt lat="41.17964" lon="0.86847">
        <ele>366</ele>
        <time>2022-05-24 09:23:46</time>
      </trkpt>
      <trkpt lat="41.17963" lon="0.86851">
        <ele>366.2</ele>
        <time>2022-05-24 09:23:47</time>
      </trkpt>
      <trkpt lat="41.17962" lon="0.86853">
        <ele>366.4</ele>
        <time>2022-05-24 09:23:48</time>
      </trkpt>
      <trkpt lat="41.17961" lon="0.86856">
        <ele>366.6</ele>
        <time>2022-05-24 09:23:49</time>
      </trkpt>
      <trkpt lat="41.1796" lon="0.86859">
        <ele>366.6</ele>
        <time>2022-05-24 09:23:50</time>
      </trkpt>
      <trkpt lat="41.1796" lon="0.86862">
        <ele>366.8</ele>
        <time>2022-05-24 09:23:51</time>
      </trkpt>
      <trkpt lat="41.17959" lon="0.86865">
        <ele>367</ele>
        <time>2022-05-24 09:23:52</time>
      </trkpt>
      <trkpt lat="41.17958" lon="0.86868">
        <ele>367.2</ele>
        <time>2022-05-24 09:23:53</time>
      </trkpt>
      <trkpt lat="41.17958" lon="0.86871">
        <ele>367.2</ele>
        <time>2022-05-24 09:23:54</time>
      </trkpt>
      <trkpt lat="41.17958" lon="0.86873">
        <ele>367.4</ele>
        <time>2022-05-24 09:23:55</time>
      </trkpt>
      <trkpt lat="41.17959" lon="0.86877">
        <ele>367.6</ele>
        <time>2022-05-24 09:23:56</time>
      </trkpt>
      <trkpt lat="41.17959" lon="0.8688">
        <ele>367.8</ele>
        <time>2022-05-24 09:23:57</time>
      </trkpt>
      <trkpt lat="41.17959" lon="0.86883">
        <ele>368</ele>
        <time>2022-05-24 09:23:58</time>
      </trkpt>
      <trkpt lat="41.1796" lon="0.86886">
        <ele>368</ele>
        <time>2022-05-24 09:23:59</time>
      </trkpt>
      <trkpt lat="41.1796" lon="0.8689">
        <ele>368.2</ele>
        <time>2022-05-24 09:24:00</time>
      </trkpt>
      <trkpt lat="41.1796" lon="0.86893">
        <ele>368.2</ele>
        <time>2022-05-24 09:24:01</time>
      </trkpt>
      <trkpt lat="41.17961" lon="0.86897">
        <ele>368.4</ele>
        <time>2022-05-24 09:24:02</time>
      </trkpt>
      <trkpt lat="41.17961" lon="0.869">
        <ele>368.6</ele>
        <time>2022-05-24 09:24:03</time>
      </trkpt>
      <trkpt lat="41.17962" lon="0.86903">
        <ele>368.6</ele>
        <time>2022-05-24 09:24:04</time>
      </trkpt>
      <trkpt lat="41.17963" lon="0.86906">
        <ele>368.8</ele>
        <time>2022-05-24 09:24:05</time>
      </trkpt>
      <trkpt lat="41.17963" lon="0.86909">
        <ele>368.8</ele>
        <time>2022-05-24 09:24:06</time>
      </trkpt>
      <trkpt lat="41.17964" lon="0.86912">
        <ele>369</ele>
        <time>2022-05-24 09:24:07</time>
      </trkpt>
      <trkpt lat="41.17965" lon="0.86915">
        <ele>369.2</ele>
        <time>2022-05-24 09:24:08</time>
      </trkpt>
      <trkpt lat="41.17965" lon="0.86918">
        <ele>369.2</ele>
        <time>2022-05-24 09:24:09</time>
      </trkpt>
      <trkpt lat="41.17966" lon="0.86921">
        <ele>369.4</ele>
        <time>2022-05-24 09:24:10</time>
      </trkpt>
      <trkpt lat="41.17967" lon="0.86924">
        <ele>369.4</ele>
        <time>2022-05-24 09:24:11</time>
      </trkpt>
      <trkpt lat="41.17967" lon="0.86926">
        <ele>369.6</ele>
        <time>2022-05-24 09:24:12</time>
      </trkpt>
      <trkpt lat="41.17968" lon="0.86929">
        <ele>369.6</ele>
        <time>2022-05-24 09:24:13</time>
      </trkpt>
      <trkpt lat="41.17969" lon="0.86931">
        <ele>369.8</ele>
        <time>2022-05-24 09:24:14</time>
      </trkpt>
      <trkpt lat="41.1797" lon="0.86934">
        <ele>369.8</ele>
        <time>2022-05-24 09:24:15</time>
      </trkpt>
      <trkpt lat="41.17971" lon="0.86937">
        <ele>370</ele>
        <time>2022-05-24 09:24:16</time>
      </trkpt>
      <trkpt lat="41.17972" lon="0.8694">
        <ele>370</ele>
        <time>2022-05-24 09:24:17</time>
      </trkpt>
      <trkpt lat="41.17973" lon="0.86944">
        <ele>370.2</ele>
        <time>2022-05-24 09:24:18</time>
      </trkpt>
      <trkpt lat="41.17974" lon="0.86948">
        <ele>370.2</ele>
        <time>2022-05-24 09:24:19</time>
      </trkpt>
      <trkpt lat="41.17975" lon="0.86951">
        <ele>370.4</ele>
        <time>2022-05-24 09:24:20</time>
      </trkpt>
      <trkpt lat="41.17976" lon="0.86954">
        <ele>370.4</ele>
        <time>2022-05-24 09:24:21</time>
      </trkpt>
      <trkpt lat="41.17977" lon="0.86958">
        <ele>370.6</ele>
        <time>2022-05-24 09:24:22</time>
      </trkpt>
      <trkpt lat="41.17978" lon="0.8696">
        <ele>370.8</ele>
        <time>2022-05-24 09:24:23</time>
      </trkpt>
      <trkpt lat="41.17978" lon="0.86963">
        <ele>370.8</ele>
        <time>2022-05-24 09:24:24</time>
      </trkpt>
      <trkpt lat="41.17979" lon="0.86966">
        <ele>371</ele>
        <time>2022-05-24 09:24:25</time>
      </trkpt>
      <trkpt lat="41.1798" lon="0.86968">
        <ele>371</ele>
        <time>2022-05-24 09:24:26</time>
      </trkpt>
      <trkpt lat="41.17982" lon="0.86971">
        <ele>371.2</ele>
        <time>2022-05-24 09:24:27</time>
      </trkpt>
      <trkpt lat="41.17983" lon="0.86973">
        <ele>371.4</ele>
        <time>2022-05-24 09:24:28</time>
      </trkpt>
      <trkpt lat="41.17985" lon="0.86977">
        <ele>371.4</ele>
        <time>2022-05-24 09:24:29</time>
      </trkpt>
      <trkpt lat="41.17986" lon="0.8698">
        <ele>371.6</ele>
        <time>2022-05-24 09:24:30</time>
      </trkpt>
      <trkpt lat="41.17987" lon="0.86983">
        <ele>371.6</ele>
        <time>2022-05-24 09:24:31</time>
      </trkpt>
      <trkpt lat="41.17987" lon="0.86985">
        <ele>371.8</ele>
        <time>2022-05-24 09:24:32</time>
      </trkpt>
      <trkpt lat="41.17988" lon="0.86988">
        <ele>372</ele>
        <time>2022-05-24 09:24:33</time>
      </trkpt>
      <trkpt lat="41.17989" lon="0.86991">
        <ele>372</ele>
        <time>2022-05-24 09:24:34</time>
      </trkpt>
      <trkpt lat="41.17991" lon="0.86994">
        <ele>372.2</ele>
        <time>2022-05-24 09:24:35</time>
      </trkpt>
      <trkpt lat="41.17992" lon="0.86996">
        <ele>372.4</ele>
        <time>2022-05-24 09:24:36</time>
      </trkpt>
      <trkpt lat="41.17992" lon="0.87">
        <ele>372.4</ele>
        <time>2022-05-24 09:24:37</time>
      </trkpt>
      <trkpt lat="41.17993" lon="0.87003">
        <ele>372.6</ele>
        <time>2022-05-24 09:24:38</time>
      </trkpt>
      <trkpt lat="41.17994" lon="0.87006">
        <ele>372.8</ele>
        <time>2022-05-24 09:24:39</time>
      </trkpt>
      <trkpt lat="41.17995" lon="0.87009">
        <ele>372.8</ele>
        <time>2022-05-24 09:24:40</time>
      </trkpt>
      <trkpt lat="41.17996" lon="0.87011">
        <ele>373</ele>
        <time>2022-05-24 09:24:41</time>
      </trkpt>
      <trkpt lat="41.17997" lon="0.87014">
        <ele>373</ele>
        <time>2022-05-24 09:24:42</time>
      </trkpt>
      <trkpt lat="41.17998" lon="0.87017">
        <ele>373.2</ele>
        <time>2022-05-24 09:24:43</time>
      </trkpt>
      <trkpt lat="41.17999" lon="0.8702">
        <ele>373.4</ele>
        <time>2022-05-24 09:24:44</time>
      </trkpt>
      <trkpt lat="41.18" lon="0.87023">
        <ele>373.4</ele>
        <time>2022-05-24 09:24:45</time>
      </trkpt>
      <trkpt lat="41.18001" lon="0.87026">
        <ele>373.6</ele>
        <time>2022-05-24 09:24:46</time>
      </trkpt>
      <trkpt lat="41.18002" lon="0.87029">
        <ele>373.6</ele>
        <time>2022-05-24 09:24:47</time>
      </trkpt>
      <trkpt lat="41.18003" lon="0.87031">
        <ele>373.8</ele>
        <time>2022-05-24 09:24:48</time>
      </trkpt>
      <trkpt lat="41.18004" lon="0.87034">
        <ele>374</ele>
        <time>2022-05-24 09:24:49</time>
      </trkpt>
      <trkpt lat="41.18005" lon="0.87037">
        <ele>374</ele>
        <time>2022-05-24 09:24:50</time>
      </trkpt>
      <trkpt lat="41.18006" lon="0.8704">
        <ele>374.2</ele>
        <time>2022-05-24 09:24:51</time>
      </trkpt>
      <trkpt lat="41.18006" lon="0.87043">
        <ele>374.4</ele>
        <time>2022-05-24 09:24:52</time>
      </trkpt>
      <trkpt lat="41.18007" lon="0.87045">
        <ele>374.6</ele>
        <time>2022-05-24 09:24:53</time>
      </trkpt>
      <trkpt lat="41.18008" lon="0.87049">
        <ele>374.6</ele>
        <time>2022-05-24 09:24:54</time>
      </trkpt>
      <trkpt lat="41.18009" lon="0.87052">
        <ele>374.8</ele>
        <time>2022-05-24 09:24:55</time>
      </trkpt>
      <trkpt lat="41.1801" lon="0.87055">
        <ele>374.8</ele>
        <time>2022-05-24 09:24:56</time>
      </trkpt>
      <trkpt lat="41.18011" lon="0.87057">
        <ele>375</ele>
        <time>2022-05-24 09:24:57</time>
      </trkpt>
      <trkpt lat="41.18013" lon="0.87061">
        <ele>375</ele>
        <time>2022-05-24 09:24:58</time>
      </trkpt>
      <trkpt lat="41.18013" lon="0.87064">
        <ele>375.2</ele>
        <time>2022-05-24 09:24:59</time>
      </trkpt>
      <trkpt lat="41.18014" lon="0.87067">
        <ele>375.2</ele>
        <time>2022-05-24 09:25:00</time>
      </trkpt>
      <trkpt lat="41.18015" lon="0.87069">
        <ele>375.4</ele>
        <time>2022-05-24 09:25:01</time>
      </trkpt>
      <trkpt lat="41.18016" lon="0.87072">
        <ele>375.6</ele>
        <time>2022-05-24 09:25:02</time>
      </trkpt>
      <trkpt lat="41.18017" lon="0.87075">
        <ele>375.6</ele>
        <time>2022-05-24 09:25:03</time>
      </trkpt>
      <trkpt lat="41.18018" lon="0.87078">
        <ele>375.8</ele>
        <time>2022-05-24 09:25:04</time>
      </trkpt>
      <trkpt lat="41.18019" lon="0.87081">
        <ele>375.8</ele>
        <time>2022-05-24 09:25:05</time>
      </trkpt>
      <trkpt lat="41.1802" lon="0.87084">
        <ele>376</ele>
        <time>2022-05-24 09:25:06</time>
      </trkpt>
      <trkpt lat="41.18021" lon="0.87087">
        <ele>376</ele>
        <time>2022-05-24 09:25:07</time>
      </trkpt>
      <trkpt lat="41.18022" lon="0.87089">
        <ele>376.2</ele>
        <time>2022-05-24 09:25:08</time>
      </trkpt>
      <trkpt lat="41.18023" lon="0.87092">
        <ele>376.2</ele>
        <time>2022-05-24 09:25:09</time>
      </trkpt>
      <trkpt lat="41.18024" lon="0.87095">
        <ele>376.4</ele>
        <time>2022-05-24 09:25:10</time>
      </trkpt>
      <trkpt lat="41.18025" lon="0.87098">
        <ele>376.4</ele>
        <time>2022-05-24 09:25:11</time>
      </trkpt>
      <trkpt lat="41.18026" lon="0.87101">
        <ele>376.6</ele>
        <time>2022-05-24 09:25:12</time>
      </trkpt>
      <trkpt lat="41.18027" lon="0.87103">
        <ele>376.6</ele>
        <time>2022-05-24 09:25:13</time>
      </trkpt>
      <trkpt lat="41.18029" lon="0.87106">
        <ele>376.8</ele>
        <time>2022-05-24 09:25:14</time>
      </trkpt>
      <trkpt lat="41.18029" lon="0.87109">
        <ele>377</ele>
        <time>2022-05-24 09:25:15</time>
      </trkpt>
      <trkpt lat="41.1803" lon="0.87112">
        <ele>377</ele>
        <time>2022-05-24 09:25:16</time>
      </trkpt>
      <trkpt lat="41.18031" lon="0.87115">
        <ele>377.2</ele>
        <time>2022-05-24 09:25:17</time>
      </trkpt>
      <trkpt lat="41.18032" lon="0.87118">
        <ele>377.2</ele>
        <time>2022-05-24 09:25:18</time>
      </trkpt>
      <trkpt lat="41.18033" lon="0.87121">
        <ele>377.4</ele>
        <time>2022-05-24 09:25:19</time>
      </trkpt>
      <trkpt lat="41.18034" lon="0.87124">
        <ele>377.4</ele>
        <time>2022-05-24 09:25:20</time>
      </trkpt>
      <trkpt lat="41.18035" lon="0.87127">
        <ele>377.6</ele>
        <time>2022-05-24 09:25:21</time>
      </trkpt>
      <trkpt lat="41.18036" lon="0.8713">
        <ele>377.8</ele>
        <time>2022-05-24 09:25:22</time>
      </trkpt>
      <trkpt lat="41.18037" lon="0.87133">
        <ele>377.8</ele>
        <time>2022-05-24 09:25:23</time>
      </trkpt>
      <trkpt lat="41.18037" lon="0.87136">
        <ele>378</ele>
        <time>2022-05-24 09:25:24</time>
      </trkpt>
      <trkpt lat="41.18038" lon="0.87138">
        <ele>378</ele>
        <time>2022-05-24 09:25:25</time>
      </trkpt>
      <trkpt lat="41.18039" lon="0.87141">
        <ele>378.2</ele>
        <time>2022-05-24 09:25:26</time>
      </trkpt>
      <trkpt lat="41.1804" lon="0.87144">
        <ele>378.2</ele>
        <time>2022-05-24 09:25:27</time>
      </trkpt>
      <trkpt lat="41.18041" lon="0.87147">
        <ele>378.4</ele>
        <time>2022-05-24 09:25:28</time>
      </trkpt>
      <trkpt lat="41.18042" lon="0.87149">
        <ele>378.4</ele>
        <time>2022-05-24 09:25:29</time>
      </trkpt>
      <trkpt lat="41.18043" lon="0.87153">
        <ele>378.6</ele>
        <time>2022-05-24 09:25:30</time>
      </trkpt>
      <trkpt lat="41.18044" lon="0.87156">
        <ele>378.6</ele>
        <time>2022-05-24 09:25:31</time>
      </trkpt>
      <trkpt lat="41.18045" lon="0.87159">
        <ele>378.8</ele>
        <time>2022-05-24 09:25:32</time>
      </trkpt>
      <trkpt lat="41.18046" lon="0.87162">
        <ele>378.8</ele>
        <time>2022-05-24 09:25:33</time>
      </trkpt>
      <trkpt lat="41.18046" lon="0.87166">
        <ele>379</ele>
        <time>2022-05-24 09:25:34</time>
      </trkpt>
      <trkpt lat="41.18047" lon="0.87169">
        <ele>379</ele>
        <time>2022-05-24 09:25:35</time>
      </trkpt>
      <trkpt lat="41.18048" lon="0.87173">
        <ele>379.2</ele>
        <time>2022-05-24 09:25:36</time>
      </trkpt>
      <trkpt lat="41.18048" lon="0.87175">
        <ele>379.2</ele>
        <time>2022-05-24 09:25:37</time>
      </trkpt>
      <trkpt lat="41.18048" lon="0.87179">
        <ele>379.4</ele>
        <time>2022-05-24 09:25:38</time>
      </trkpt>
      <trkpt lat="41.18048" lon="0.87183">
        <ele>379.4</ele>
        <time>2022-05-24 09:25:39</time>
      </trkpt>
      <trkpt lat="41.18048" lon="0.87187">
        <ele>379.4</ele>
        <time>2022-05-24 09:25:40</time>
      </trkpt>
      <trkpt lat="41.18048" lon="0.8719">
        <ele>379.4</ele>
        <time>2022-05-24 09:25:41</time>
      </trkpt>
      <trkpt lat="41.18047" lon="0.87194">
        <ele>379.6</ele>
        <time>2022-05-24 09:25:42</time>
      </trkpt>
      <trkpt lat="41.18047" lon="0.87198">
        <ele>379.6</ele>
        <time>2022-05-24 09:25:43</time>
      </trkpt>
      <trkpt lat="41.18046" lon="0.87202">
        <ele>379.6</ele>
        <time>2022-05-24 09:25:44</time>
      </trkpt>
      <trkpt lat="41.18045" lon="0.87205">
        <ele>379.8</ele>
        <time>2022-05-24 09:25:45</time>
      </trkpt>
      <trkpt lat="41.18044" lon="0.8721">
        <ele>379.8</ele>
        <time>2022-05-24 09:25:46</time>
      </trkpt>
      <trkpt lat="41.18042" lon="0.87213">
        <ele>379.8</ele>
        <time>2022-05-24 09:25:47</time>
      </trkpt>
      <trkpt lat="41.18041" lon="0.87216">
        <ele>380</ele>
        <time>2022-05-24 09:25:48</time>
      </trkpt>
      <trkpt lat="41.18039" lon="0.8722">
        <ele>380</ele>
        <time>2022-05-24 09:25:49</time>
      </trkpt>
      <trkpt lat="41.18037" lon="0.87223">
        <ele>380</ele>
        <time>2022-05-24 09:25:50</time>
      </trkpt>
      <trkpt lat="41.18036" lon="0.87226">
        <ele>380.2</ele>
        <time>2022-05-24 09:25:51</time>
      </trkpt>
      <trkpt lat="41.18033" lon="0.8723">
        <ele>380.2</ele>
        <time>2022-05-24 09:25:52</time>
      </trkpt>
      <trkpt lat="41.18031" lon="0.87233">
        <ele>380.4</ele>
        <time>2022-05-24 09:25:53</time>
      </trkpt>
      <trkpt lat="41.18029" lon="0.87235">
        <ele>380.4</ele>
        <time>2022-05-24 09:25:54</time>
      </trkpt>
      <trkpt lat="41.18026" lon="0.87237">
        <ele>380.6</ele>
        <time>2022-05-24 09:25:55</time>
      </trkpt>
      <trkpt lat="41.18024" lon="0.8724">
        <ele>380.6</ele>
        <time>2022-05-24 09:25:56</time>
      </trkpt>
      <trkpt lat="41.18022" lon="0.87242">
        <ele>380.8</ele>
        <time>2022-05-24 09:25:57</time>
      </trkpt>
      <trkpt lat="41.18019" lon="0.87244">
        <ele>380.8</ele>
        <time>2022-05-24 09:25:58</time>
      </trkpt>
      <trkpt lat="41.18017" lon="0.87246">
        <ele>380.8</ele>
        <time>2022-05-24 09:25:59</time>
      </trkpt>
      <trkpt lat="41.18014" lon="0.87248">
        <ele>381</ele>
        <time>2022-05-24 09:26:00</time>
      </trkpt>
      <trkpt lat="41.18012" lon="0.8725">
        <ele>381</ele>
        <time>2022-05-24 09:26:01</time>
      </trkpt>
      <trkpt lat="41.18009" lon="0.87252">
        <ele>381</ele>
        <time>2022-05-24 09:26:02</time>
      </trkpt>
      <trkpt lat="41.18006" lon="0.87254">
        <ele>381.2</ele>
        <time>2022-05-24 09:26:03</time>
      </trkpt>
      <trkpt lat="41.18004" lon="0.87256">
        <ele>381.2</ele>
        <time>2022-05-24 09:26:04</time>
      </trkpt>
      <trkpt lat="41.18001" lon="0.87258">
        <ele>381.2</ele>
        <time>2022-05-24 09:26:05</time>
      </trkpt>
      <trkpt lat="41.17998" lon="0.8726">
        <ele>381.4</ele>
        <time>2022-05-24 09:26:06</time>
      </trkpt>
      <trkpt lat="41.17996" lon="0.87262">
        <ele>381.4</ele>
        <time>2022-05-24 09:26:07</time>
      </trkpt>
      <trkpt lat="41.17994" lon="0.87264">
        <ele>381.4</ele>
        <time>2022-05-24 09:26:08</time>
      </trkpt>
      <trkpt lat="41.17992" lon="0.87266">
        <ele>381.6</ele>
        <time>2022-05-24 09:26:09</time>
      </trkpt>
      <trkpt lat="41.17991" lon="0.87268">
        <ele>381.6</ele>
        <time>2022-05-24 09:26:10</time>
      </trkpt>
      <trkpt lat="41.1799" lon="0.8727">
        <ele>381.6</ele>
        <time>2022-05-24 09:26:11</time>
      </trkpt>
      <trkpt lat="41.17988" lon="0.87272">
        <ele>381.8</ele>
        <time>2022-05-24 09:26:12</time>
      </trkpt>
      <trkpt lat="41.17985" lon="0.87274">
        <ele>381.8</ele>
        <time>2022-05-24 09:26:13</time>
      </trkpt>
      <trkpt lat="41.17981" lon="0.87277">
        <ele>381.8</ele>
        <time>2022-05-24 09:26:14</time>
      </trkpt>
      <trkpt lat="41.17979" lon="0.87279">
        <ele>382</ele>
        <time>2022-05-24 09:26:15</time>
      </trkpt>
      <trkpt lat="41.17977" lon="0.87281">
        <ele>382</ele>
        <time>2022-05-24 09:26:16</time>
      </trkpt>
      <trkpt lat="41.17974" lon="0.87283">
        <ele>382</ele>
        <time>2022-05-24 09:26:17</time>
      </trkpt>
      <trkpt lat="41.17971" lon="0.87285">
        <ele>382</ele>
        <time>2022-05-24 09:26:18</time>
      </trkpt>
      <trkpt lat="41.17969" lon="0.87286">
        <ele>382.2</ele>
        <time>2022-05-24 09:26:19</time>
      </trkpt>
      <trkpt lat="41.17966" lon="0.87288">
        <ele>382.2</ele>
        <time>2022-05-24 09:26:20</time>
      </trkpt>
      <trkpt lat="41.17963" lon="0.8729">
        <ele>382.2</ele>
        <time>2022-05-24 09:26:21</time>
      </trkpt>
      <trkpt lat="41.1796" lon="0.87292">
        <ele>382.4</ele>
        <time>2022-05-24 09:26:22</time>
      </trkpt>
      <trkpt lat="41.17959" lon="0.87293">
        <ele>382.4</ele>
        <time>2022-05-24 09:26:23</time>
      </trkpt>
      <trkpt lat="41.17955" lon="0.87296">
        <ele>382.4</ele>
        <time>2022-05-24 09:26:24</time>
      </trkpt>
      <trkpt lat="41.17952" lon="0.87298">
        <ele>382.4</ele>
        <time>2022-05-24 09:26:25</time>
      </trkpt>
      <trkpt lat="41.1795" lon="0.873">
        <ele>382.6</ele>
        <time>2022-05-24 09:26:26</time>
      </trkpt>
      <trkpt lat="41.17947" lon="0.87302">
        <ele>382.6</ele>
        <time>2022-05-24 09:26:27</time>
      </trkpt>
      <trkpt lat="41.17944" lon="0.87304">
        <ele>382.6</ele>
        <time>2022-05-24 09:26:28</time>
      </trkpt>
      <trkpt lat="41.17942" lon="0.87305">
        <ele>382.6</ele>
        <time>2022-05-24 09:26:29</time>
      </trkpt>
      <trkpt lat="41.17939" lon="0.87307">
        <ele>382.6</ele>
        <time>2022-05-24 09:26:30</time>
      </trkpt>
      <trkpt lat="41.17936" lon="0.87309">
        <ele>382.8</ele>
        <time>2022-05-24 09:26:31</time>
      </trkpt>
      <trkpt lat="41.17933" lon="0.8731">
        <ele>382.8</ele>
        <time>2022-05-24 09:26:32</time>
      </trkpt>
      <trkpt lat="41.1793" lon="0.87312">
        <ele>382.8</ele>
        <time>2022-05-24 09:26:33</time>
      </trkpt>
      <trkpt lat="41.17927" lon="0.87313">
        <ele>383</ele>
        <time>2022-05-24 09:26:34</time>
      </trkpt>
      <trkpt lat="41.17924" lon="0.87314">
        <ele>383</ele>
        <time>2022-05-24 09:26:35</time>
      </trkpt>
      <trkpt lat="41.17921" lon="0.87314">
        <ele>383</ele>
        <time>2022-05-24 09:26:36</time>
      </trkpt>
      <trkpt lat="41.17918" lon="0.87315">
        <ele>383</ele>
        <time>2022-05-24 09:26:37</time>
      </trkpt>
      <trkpt lat="41.17915" lon="0.87315">
        <ele>383.2</ele>
        <time>2022-05-24 09:26:38</time>
      </trkpt>
      <trkpt lat="41.17913" lon="0.87315">
        <ele>383.2</ele>
        <time>2022-05-24 09:26:39</time>
      </trkpt>
      <trkpt lat="41.17909" lon="0.87315">
        <ele>383.2</ele>
        <time>2022-05-24 09:26:40</time>
      </trkpt>
      <trkpt lat="41.17906" lon="0.87315">
        <ele>383.4</ele>
        <time>2022-05-24 09:26:41</time>
      </trkpt>
      <trkpt lat="41.17904" lon="0.87314">
        <ele>383.4</ele>
        <time>2022-05-24 09:26:42</time>
      </trkpt>
      <trkpt lat="41.179" lon="0.87314">
        <ele>383.4</ele>
        <time>2022-05-24 09:26:43</time>
      </trkpt>
      <trkpt lat="41.17897" lon="0.87312">
        <ele>383.4</ele>
        <time>2022-05-24 09:26:44</time>
      </trkpt>
      <trkpt lat="41.17895" lon="0.87311">
        <ele>383.6</ele>
        <time>2022-05-24 09:26:45</time>
      </trkpt>
      <trkpt lat="41.17892" lon="0.8731">
        <ele>383.6</ele>
        <time>2022-05-24 09:26:46</time>
      </trkpt>
      <trkpt lat="41.17889" lon="0.87308">
        <ele>383.6</ele>
        <time>2022-05-24 09:26:47</time>
      </trkpt>
      <trkpt lat="41.17886" lon="0.87306">
        <ele>383.6</ele>
        <time>2022-05-24 09:26:48</time>
      </trkpt>
      <trkpt lat="41.17884" lon="0.87305">
        <ele>383.6</ele>
        <time>2022-05-24 09:26:49</time>
      </trkpt>
      <trkpt lat="41.17881" lon="0.87302">
        <ele>383.8</ele>
        <time>2022-05-24 09:26:50</time>
      </trkpt>
      <trkpt lat="41.17879" lon="0.87299">
        <ele>383.8</ele>
        <time>2022-05-24 09:26:51</time>
      </trkpt>
      <trkpt lat="41.17877" lon="0.87297">
        <ele>383.8</ele>
        <time>2022-05-24 09:26:52</time>
      </trkpt>
      <trkpt lat="41.17874" lon="0.87295">
        <ele>383.8</ele>
        <time>2022-05-24 09:26:53</time>
      </trkpt>
      <trkpt lat="41.17872" lon="0.87292">
        <ele>383.8</ele>
        <time>2022-05-24 09:26:54</time>
      </trkpt>
      <trkpt lat="41.1787" lon="0.8729">
        <ele>384</ele>
        <time>2022-05-24 09:26:55</time>
      </trkpt>
      <trkpt lat="41.17868" lon="0.87288">
        <ele>384</ele>
        <time>2022-05-24 09:26:56</time>
      </trkpt>
      <trkpt lat="41.17866" lon="0.87285">
        <ele>384</ele>
        <time>2022-05-24 09:26:57</time>
      </trkpt>
      <trkpt lat="41.17863" lon="0.87282">
        <ele>384.2</ele>
        <time>2022-05-24 09:26:58</time>
      </trkpt>
      <trkpt lat="41.17862" lon="0.87279">
        <ele>384.2</ele>
        <time>2022-05-24 09:26:59</time>
      </trkpt>
      <trkpt lat="41.1786" lon="0.87276">
        <ele>384.4</ele>
        <time>2022-05-24 09:27:00</time>
      </trkpt>
      <trkpt lat="41.17858" lon="0.87274">
        <ele>384.4</ele>
        <time>2022-05-24 09:27:01</time>
      </trkpt>
      <trkpt lat="41.17855" lon="0.87271">
        <ele>384.4</ele>
        <time>2022-05-24 09:27:02</time>
      </trkpt>
      <trkpt lat="41.17853" lon="0.87268">
        <ele>384.6</ele>
        <time>2022-05-24 09:27:03</time>
      </trkpt>
      <trkpt lat="41.17851" lon="0.87265">
        <ele>384.6</ele>
        <time>2022-05-24 09:27:04</time>
      </trkpt>
      <trkpt lat="41.17849" lon="0.87263">
        <ele>384.8</ele>
        <time>2022-05-24 09:27:05</time>
      </trkpt>
      <trkpt lat="41.17847" lon="0.8726">
        <ele>384.8</ele>
        <time>2022-05-24 09:27:06</time>
      </trkpt>
      <trkpt lat="41.17845" lon="0.87257">
        <ele>385</ele>
        <time>2022-05-24 09:27:07</time>
      </trkpt>
      <trkpt lat="41.17842" lon="0.87255">
        <ele>385.2</ele>
        <time>2022-05-24 09:27:08</time>
      </trkpt>
      <trkpt lat="41.1784" lon="0.87253">
        <ele>385.2</ele>
        <time>2022-05-24 09:27:09</time>
      </trkpt>
      <trkpt lat="41.17837" lon="0.8725">
        <ele>385.4</ele>
        <time>2022-05-24 09:27:10</time>
      </trkpt>
      <trkpt lat="41.17835" lon="0.87248">
        <ele>385.4</ele>
        <time>2022-05-24 09:27:11</time>
      </trkpt>
      <trkpt lat="41.17832" lon="0.87246">
        <ele>385.6</ele>
        <time>2022-05-24 09:27:12</time>
      </trkpt>
      <trkpt lat="41.17829" lon="0.87244">
        <ele>385.6</ele>
        <time>2022-05-24 09:27:13</time>
      </trkpt>
      <trkpt lat="41.17826" lon="0.87242">
        <ele>385.8</ele>
        <time>2022-05-24 09:27:14</time>
      </trkpt>
      <trkpt lat="41.17824" lon="0.87241">
        <ele>385.8</ele>
        <time>2022-05-24 09:27:15</time>
      </trkpt>
      <trkpt lat="41.1782" lon="0.8724">
        <ele>386</ele>
        <time>2022-05-24 09:27:16</time>
      </trkpt>
      <trkpt lat="41.17817" lon="0.87239">
        <ele>386</ele>
        <time>2022-05-24 09:27:17</time>
      </trkpt>
      <trkpt lat="41.17814" lon="0.87239">
        <ele>386</ele>
        <time>2022-05-24 09:27:18</time>
      </trkpt>
      <trkpt lat="41.17811" lon="0.87238">
        <ele>386</ele>
        <time>2022-05-24 09:27:19</time>
      </trkpt>
      <trkpt lat="41.17808" lon="0.87238">
        <ele>386</ele>
        <time>2022-05-24 09:27:20</time>
      </trkpt>
      <trkpt lat="41.17805" lon="0.87238">
        <ele>386.2</ele>
        <time>2022-05-24 09:27:21</time>
      </trkpt>
      <trkpt lat="41.17802" lon="0.87239">
        <ele>386.2</ele>
        <time>2022-05-24 09:27:22</time>
      </trkpt>
      <trkpt lat="41.17799" lon="0.8724">
        <ele>386.2</ele>
        <time>2022-05-24 09:27:23</time>
      </trkpt>
      <trkpt lat="41.17796" lon="0.8724">
        <ele>386.2</ele>
        <time>2022-05-24 09:27:24</time>
      </trkpt>
      <trkpt lat="41.17794" lon="0.87241">
        <ele>386.2</ele>
        <time>2022-05-24 09:27:25</time>
      </trkpt>
      <trkpt lat="41.17791" lon="0.87243">
        <ele>386.2</ele>
        <time>2022-05-24 09:27:26</time>
      </trkpt>
      <trkpt lat="41.17788" lon="0.87244">
        <ele>386.4</ele>
        <time>2022-05-24 09:27:27</time>
      </trkpt>
      <trkpt lat="41.17786" lon="0.87245">
        <ele>386.4</ele>
        <time>2022-05-24 09:27:28</time>
      </trkpt>
      <trkpt lat="41.17783" lon="0.87247">
        <ele>386.4</ele>
        <time>2022-05-24 09:27:29</time>
      </trkpt>
      <trkpt lat="41.1778" lon="0.87249">
        <ele>386.6</ele>
        <time>2022-05-24 09:27:30</time>
      </trkpt>
      <trkpt lat="41.17778" lon="0.8725">
        <ele>386.6</ele>
        <time>2022-05-24 09:27:31</time>
      </trkpt>
      <trkpt lat="41.17775" lon="0.87252">
        <ele>386.6</ele>
        <time>2022-05-24 09:27:32</time>
      </trkpt>
      <trkpt lat="41.17773" lon="0.87254">
        <ele>386.8</ele>
        <time>2022-05-24 09:27:33</time>
      </trkpt>
      <trkpt lat="41.17771" lon="0.87257">
        <ele>386.8</ele>
        <time>2022-05-24 09:27:34</time>
      </trkpt>
      <trkpt lat="41.17768" lon="0.87259">
        <ele>386.8</ele>
        <time>2022-05-24 09:27:35</time>
      </trkpt>
      <trkpt lat="41.17767" lon="0.87261">
        <ele>387</ele>
        <time>2022-05-24 09:27:36</time>
      </trkpt>
      <trkpt lat="41.17765" lon="0.87263">
        <ele>387</ele>
        <time>2022-05-24 09:27:37</time>
      </trkpt>
      <trkpt lat="41.17762" lon="0.87266">
        <ele>387.2</ele>
        <time>2022-05-24 09:27:38</time>
      </trkpt>
      <trkpt lat="41.1776" lon="0.87269">
        <ele>387.2</ele>
        <time>2022-05-24 09:27:39</time>
      </trkpt>
      <trkpt lat="41.17758" lon="0.87272">
        <ele>387.4</ele>
        <time>2022-05-24 09:27:40</time>
      </trkpt>
      <trkpt lat="41.17757" lon="0.87274">
        <ele>387.4</ele>
        <time>2022-05-24 09:27:41</time>
      </trkpt>
      <trkpt lat="41.17755" lon="0.87277">
        <ele>387.6</ele>
        <time>2022-05-24 09:27:42</time>
      </trkpt>
      <trkpt lat="41.17753" lon="0.8728">
        <ele>387.6</ele>
        <time>2022-05-24 09:27:43</time>
      </trkpt>
      <trkpt lat="41.17751" lon="0.87283">
        <ele>387.8</ele>
        <time>2022-05-24 09:27:44</time>
      </trkpt>
      <trkpt lat="41.1775" lon="0.87286">
        <ele>387.8</ele>
        <time>2022-05-24 09:27:45</time>
      </trkpt>
      <trkpt lat="41.17748" lon="0.8729">
        <ele>388</ele>
        <time>2022-05-24 09:27:46</time>
      </trkpt>
      <trkpt lat="41.17747" lon="0.87293">
        <ele>388</ele>
        <time>2022-05-24 09:27:47</time>
      </trkpt>
      <trkpt lat="41.17745" lon="0.87296">
        <ele>388.2</ele>
        <time>2022-05-24 09:27:48</time>
      </trkpt>
      <trkpt lat="41.17744" lon="0.87298">
        <ele>388.2</ele>
        <time>2022-05-24 09:27:49</time>
      </trkpt>
      <trkpt lat="41.17742" lon="0.87302">
        <ele>388.4</ele>
        <time>2022-05-24 09:27:50</time>
      </trkpt>
      <trkpt lat="41.17741" lon="0.87305">
        <ele>388.4</ele>
        <time>2022-05-24 09:27:51</time>
      </trkpt>
      <trkpt lat="41.17739" lon="0.87309">
        <ele>388.6</ele>
        <time>2022-05-24 09:27:52</time>
      </trkpt>
      <trkpt lat="41.17739" lon="0.87311">
        <ele>388.6</ele>
        <time>2022-05-24 09:27:53</time>
      </trkpt>
      <trkpt lat="41.17737" lon="0.87315">
        <ele>388.8</ele>
        <time>2022-05-24 09:27:54</time>
      </trkpt>
      <trkpt lat="41.17736" lon="0.87319">
        <ele>388.8</ele>
        <time>2022-05-24 09:27:55</time>
      </trkpt>
      <trkpt lat="41.17735" lon="0.87322">
        <ele>389</ele>
        <time>2022-05-24 09:27:56</time>
      </trkpt>
      <trkpt lat="41.17734" lon="0.87325">
        <ele>389</ele>
        <time>2022-05-24 09:27:57</time>
      </trkpt>
      <trkpt lat="41.17732" lon="0.87329">
        <ele>389.2</ele>
        <time>2022-05-24 09:27:58</time>
      </trkpt>
      <trkpt lat="41.17731" lon="0.87332">
        <ele>389.2</ele>
        <time>2022-05-24 09:27:59</time>
      </trkpt>
      <trkpt lat="41.1773" lon="0.87336">
        <ele>389.2</ele>
        <time>2022-05-24 09:28:00</time>
      </trkpt>
      <trkpt lat="41.17728" lon="0.87339">
        <ele>389.4</ele>
        <time>2022-05-24 09:28:01</time>
      </trkpt>
      <trkpt lat="41.17727" lon="0.87343">
        <ele>389.4</ele>
        <time>2022-05-24 09:28:02</time>
      </trkpt>
      <trkpt lat="41.17726" lon="0.87347">
        <ele>389.6</ele>
        <time>2022-05-24 09:28:03</time>
      </trkpt>
      <trkpt lat="41.17725" lon="0.8735">
        <ele>389.6</ele>
        <time>2022-05-24 09:28:04</time>
      </trkpt>
      <trkpt lat="41.17724" lon="0.87353">
        <ele>389.8</ele>
        <time>2022-05-24 09:28:05</time>
      </trkpt>
      <trkpt lat="41.17722" lon="0.87357">
        <ele>389.8</ele>
        <time>2022-05-24 09:28:06</time>
      </trkpt>
      <trkpt lat="41.17721" lon="0.8736">
        <ele>390</ele>
        <time>2022-05-24 09:28:07</time>
      </trkpt>
      <trkpt lat="41.1772" lon="0.87364">
        <ele>390</ele>
        <time>2022-05-24 09:28:08</time>
      </trkpt>
      <trkpt lat="41.17719" lon="0.87367">
        <ele>390</ele>
        <time>2022-05-24 09:28:09</time>
      </trkpt>
      <trkpt lat="41.17718" lon="0.87371">
        <ele>390.2</ele>
        <time>2022-05-24 09:28:10</time>
      </trkpt>
      <trkpt lat="41.17717" lon="0.87374">
        <ele>390.2</ele>
        <time>2022-05-24 09:28:11</time>
      </trkpt>
      <trkpt lat="41.17715" lon="0.87378">
        <ele>390.4</ele>
        <time>2022-05-24 09:28:12</time>
      </trkpt>
      <trkpt lat="41.17714" lon="0.87381">
        <ele>390.4</ele>
        <time>2022-05-24 09:28:13</time>
      </trkpt>
      <trkpt lat="41.17713" lon="0.87385">
        <ele>390.6</ele>
        <time>2022-05-24 09:28:14</time>
      </trkpt>
      <trkpt lat="41.17712" lon="0.87388">
        <ele>390.6</ele>
        <time>2022-05-24 09:28:15</time>
      </trkpt>
      <trkpt lat="41.1771" lon="0.87392">
        <ele>390.8</ele>
        <time>2022-05-24 09:28:16</time>
      </trkpt>
      <trkpt lat="41.17709" lon="0.87395">
        <ele>390.8</ele>
        <time>2022-05-24 09:28:17</time>
      </trkpt>
      <trkpt lat="41.17709" lon="0.87399">
        <ele>391</ele>
        <time>2022-05-24 09:28:18</time>
      </trkpt>
      <trkpt lat="41.17707" lon="0.87402">
        <ele>391</ele>
        <time>2022-05-24 09:28:19</time>
      </trkpt>
      <trkpt lat="41.17706" lon="0.87406">
        <ele>391.2</ele>
        <time>2022-05-24 09:28:20</time>
      </trkpt>
      <trkpt lat="41.17705" lon="0.87409">
        <ele>391.2</ele>
        <time>2022-05-24 09:28:21</time>
      </trkpt>
      <trkpt lat="41.17703" lon="0.87413">
        <ele>391.4</ele>
        <time>2022-05-24 09:28:22</time>
      </trkpt>
      <trkpt lat="41.17701" lon="0.87416">
        <ele>391.4</ele>
        <time>2022-05-24 09:28:23</time>
      </trkpt>
      <trkpt lat="41.177" lon="0.87419">
        <ele>391.6</ele>
        <time>2022-05-24 09:28:24</time>
      </trkpt>
      <trkpt lat="41.17699" lon="0.87422">
        <ele>391.8</ele>
        <time>2022-05-24 09:28:25</time>
      </trkpt>
      <trkpt lat="41.17698" lon="0.87426">
        <ele>391.8</ele>
        <time>2022-05-24 09:28:26</time>
      </trkpt>
      <trkpt lat="41.17696" lon="0.87429">
        <ele>392</ele>
        <time>2022-05-24 09:28:27</time>
      </trkpt>
      <trkpt lat="41.17695" lon="0.87433">
        <ele>392</ele>
        <time>2022-05-24 09:28:28</time>
      </trkpt>
      <trkpt lat="41.17694" lon="0.87436">
        <ele>392.2</ele>
        <time>2022-05-24 09:28:29</time>
      </trkpt>
      <trkpt lat="41.17692" lon="0.8744">
        <ele>392.2</ele>
        <time>2022-05-24 09:28:30</time>
      </trkpt>
      <trkpt lat="41.17691" lon="0.87443">
        <ele>392.4</ele>
        <time>2022-05-24 09:28:31</time>
      </trkpt>
      <trkpt lat="41.1769" lon="0.87447">
        <ele>392.6</ele>
        <time>2022-05-24 09:28:32</time>
      </trkpt>
      <trkpt lat="41.17689" lon="0.8745">
        <ele>392.6</ele>
        <time>2022-05-24 09:28:33</time>
      </trkpt>
      <trkpt lat="41.17688" lon="0.87454">
        <ele>392.8</ele>
        <time>2022-05-24 09:28:34</time>
      </trkpt>
      <trkpt lat="41.17686" lon="0.87457">
        <ele>392.8</ele>
        <time>2022-05-24 09:28:35</time>
      </trkpt>
      <trkpt lat="41.17685" lon="0.87461">
        <ele>393</ele>
        <time>2022-05-24 09:28:36</time>
      </trkpt>
      <trkpt lat="41.17684" lon="0.87464">
        <ele>393</ele>
        <time>2022-05-24 09:28:37</time>
      </trkpt>
      <trkpt lat="41.17683" lon="0.87468">
        <ele>393.2</ele>
        <time>2022-05-24 09:28:38</time>
      </trkpt>
      <trkpt lat="41.17681" lon="0.87472">
        <ele>393.2</ele>
        <time>2022-05-24 09:28:39</time>
      </trkpt>
      <trkpt lat="41.1768" lon="0.87475">
        <ele>393.4</ele>
        <time>2022-05-24 09:28:40</time>
      </trkpt>
      <trkpt lat="41.17679" lon="0.87478">
        <ele>393.4</ele>
        <time>2022-05-24 09:28:41</time>
      </trkpt>
      <trkpt lat="41.17678" lon="0.87482">
        <ele>393.6</ele>
        <time>2022-05-24 09:28:42</time>
      </trkpt>
      <trkpt lat="41.17676" lon="0.87486">
        <ele>393.6</ele>
        <time>2022-05-24 09:28:43</time>
      </trkpt>
      <trkpt lat="41.17675" lon="0.8749">
        <ele>393.8</ele>
        <time>2022-05-24 09:28:44</time>
      </trkpt>
      <trkpt lat="41.17674" lon="0.87493">
        <ele>393.8</ele>
        <time>2022-05-24 09:28:45</time>
      </trkpt>
      <trkpt lat="41.17673" lon="0.87497">
        <ele>394</ele>
        <time>2022-05-24 09:28:46</time>
      </trkpt>
      <trkpt lat="41.17671" lon="0.875">
        <ele>394</ele>
        <time>2022-05-24 09:28:47</time>
      </trkpt>
      <trkpt lat="41.1767" lon="0.87504">
        <ele>394</ele>
        <time>2022-05-24 09:28:48</time>
      </trkpt>
      <trkpt lat="41.17669" lon="0.87507">
        <ele>394.2</ele>
        <time>2022-05-24 09:28:49</time>
      </trkpt>
      <trkpt lat="41.17667" lon="0.87511">
        <ele>394.2</ele>
        <time>2022-05-24 09:28:50</time>
      </trkpt>
      <trkpt lat="41.17666" lon="0.87514">
        <ele>394.4</ele>
        <time>2022-05-24 09:28:51</time>
      </trkpt>
      <trkpt lat="41.17665" lon="0.87518">
        <ele>394.4</ele>
        <time>2022-05-24 09:28:52</time>
      </trkpt>
      <trkpt lat="41.17664" lon="0.87521">
        <ele>394.6</ele>
        <time>2022-05-24 09:28:53</time>
      </trkpt>
      <trkpt lat="41.17663" lon="0.87526">
        <ele>394.6</ele>
        <time>2022-05-24 09:28:54</time>
      </trkpt>
      <trkpt lat="41.17662" lon="0.87529">
        <ele>394.8</ele>
        <time>2022-05-24 09:28:55</time>
      </trkpt>
      <trkpt lat="41.17661" lon="0.87533">
        <ele>394.8</ele>
        <time>2022-05-24 09:28:56</time>
      </trkpt>
      <trkpt lat="41.17659" lon="0.87535">
        <ele>395</ele>
        <time>2022-05-24 09:28:57</time>
      </trkpt>
      <trkpt lat="41.17658" lon="0.8754">
        <ele>395</ele>
        <time>2022-05-24 09:28:58</time>
      </trkpt>
      <trkpt lat="41.17656" lon="0.87543">
        <ele>395.2</ele>
        <time>2022-05-24 09:28:59</time>
      </trkpt>
      <trkpt lat="41.17655" lon="0.87547">
        <ele>395.2</ele>
        <time>2022-05-24 09:29:00</time>
      </trkpt>
      <trkpt lat="41.17654" lon="0.8755">
        <ele>395.4</ele>
        <time>2022-05-24 09:29:01</time>
      </trkpt>
      <trkpt lat="41.17653" lon="0.87554">
        <ele>395.4</ele>
        <time>2022-05-24 09:29:02</time>
      </trkpt>
      <trkpt lat="41.17653" lon="0.87557">
        <ele>395.6</ele>
        <time>2022-05-24 09:29:03</time>
      </trkpt>
      <trkpt lat="41.17651" lon="0.87561">
        <ele>395.6</ele>
        <time>2022-05-24 09:29:04</time>
      </trkpt>
      <trkpt lat="41.1765" lon="0.87564">
        <ele>395.8</ele>
        <time>2022-05-24 09:29:05</time>
      </trkpt>
      <trkpt lat="41.17649" lon="0.87568">
        <ele>395.8</ele>
        <time>2022-05-24 09:29:06</time>
      </trkpt>
      <trkpt lat="41.17648" lon="0.87571">
        <ele>396</ele>
        <time>2022-05-24 09:29:07</time>
      </trkpt>
      <trkpt lat="41.17646" lon="0.87575">
        <ele>396</ele>
        <time>2022-05-24 09:29:08</time>
      </trkpt>
      <trkpt lat="41.17645" lon="0.87578">
        <ele>396.2</ele>
        <time>2022-05-24 09:29:09</time>
      </trkpt>
      <trkpt lat="41.17643" lon="0.87582">
        <ele>396.2</ele>
        <time>2022-05-24 09:29:10</time>
      </trkpt>
      <trkpt lat="41.17642" lon="0.87585">
        <ele>396.4</ele>
        <time>2022-05-24 09:29:11</time>
      </trkpt>
      <trkpt lat="41.17641" lon="0.87589">
        <ele>396.4</ele>
        <time>2022-05-24 09:29:12</time>
      </trkpt>
      <trkpt lat="41.1764" lon="0.87592">
        <ele>396.6</ele>
        <time>2022-05-24 09:29:13</time>
      </trkpt>
      <trkpt lat="41.17638" lon="0.87596">
        <ele>396.8</ele>
        <time>2022-05-24 09:29:14</time>
      </trkpt>
      <trkpt lat="41.17637" lon="0.876">
        <ele>396.8</ele>
        <time>2022-05-24 09:29:15</time>
      </trkpt>
      <trkpt lat="41.17636" lon="0.87603">
        <ele>397</ele>
        <time>2022-05-24 09:29:16</time>
      </trkpt>
      <trkpt lat="41.17634" lon="0.87607">
        <ele>397.2</ele>
        <time>2022-05-24 09:29:17</time>
      </trkpt>
      <trkpt lat="41.17633" lon="0.8761">
        <ele>397.4</ele>
        <time>2022-05-24 09:29:18</time>
      </trkpt>
      <trkpt lat="41.17632" lon="0.87613">
        <ele>397.4</ele>
        <time>2022-05-24 09:29:19</time>
      </trkpt>
      <trkpt lat="41.1763" lon="0.87616">
        <ele>397.6</ele>
        <time>2022-05-24 09:29:20</time>
      </trkpt>
      <trkpt lat="41.1763" lon="0.8762">
        <ele>397.8</ele>
        <time>2022-05-24 09:29:21</time>
      </trkpt>
      <trkpt lat="41.17628" lon="0.87623">
        <ele>398</ele>
        <time>2022-05-24 09:29:22</time>
      </trkpt>
      <trkpt lat="41.17628" lon="0.87626">
        <ele>398.2</ele>
        <time>2022-05-24 09:29:23</time>
      </trkpt>
      <trkpt lat="41.17627" lon="0.87629">
        <ele>398.2</ele>
        <time>2022-05-24 09:29:24</time>
      </trkpt>
      <trkpt lat="41.17626" lon="0.87633">
        <ele>398.4</ele>
        <time>2022-05-24 09:29:25</time>
      </trkpt>
      <trkpt lat="41.17625" lon="0.87637">
        <ele>398.6</ele>
        <time>2022-05-24 09:29:26</time>
      </trkpt>
      <trkpt lat="41.17625" lon="0.8764">
        <ele>398.8</ele>
        <time>2022-05-24 09:29:27</time>
      </trkpt>
      <trkpt lat="41.17624" lon="0.87642">
        <ele>399</ele>
        <time>2022-05-24 09:29:28</time>
      </trkpt>
      <trkpt lat="41.17623" lon="0.87646">
        <ele>399.2</ele>
        <time>2022-05-24 09:29:29</time>
      </trkpt>
      <trkpt lat="41.17622" lon="0.8765">
        <ele>399.4</ele>
        <time>2022-05-24 09:29:30</time>
      </trkpt>
      <trkpt lat="41.17622" lon="0.87654">
        <ele>399.6</ele>
        <time>2022-05-24 09:29:31</time>
      </trkpt>
      <trkpt lat="41.17622" lon="0.87657">
        <ele>399.6</ele>
        <time>2022-05-24 09:29:32</time>
      </trkpt>
      <trkpt lat="41.17622" lon="0.87661">
        <ele>399.8</ele>
        <time>2022-05-24 09:29:33</time>
      </trkpt>
      <trkpt lat="41.17622" lon="0.87664">
        <ele>400</ele>
        <time>2022-05-24 09:29:34</time>
      </trkpt>
      <trkpt lat="41.17621" lon="0.87667">
        <ele>400.2</ele>
        <time>2022-05-24 09:29:35</time>
      </trkpt>
      <trkpt lat="41.17622" lon="0.8767">
        <ele>400.4</ele>
        <time>2022-05-24 09:29:36</time>
      </trkpt>
      <trkpt lat="41.17622" lon="0.87675">
        <ele>400.6</ele>
        <time>2022-05-24 09:29:37</time>
      </trkpt>
      <trkpt lat="41.17623" lon="0.87679">
        <ele>400.6</ele>
        <time>2022-05-24 09:29:38</time>
      </trkpt>
      <trkpt lat="41.17623" lon="0.87683">
        <ele>400.8</ele>
        <time>2022-05-24 09:29:39</time>
      </trkpt>
      <trkpt lat="41.17624" lon="0.87687">
        <ele>401</ele>
        <time>2022-05-24 09:29:40</time>
      </trkpt>
      <trkpt lat="41.17625" lon="0.8769">
        <ele>401.2</ele>
        <time>2022-05-24 09:29:41</time>
      </trkpt>
      <trkpt lat="41.17626" lon="0.87694">
        <ele>401.2</ele>
        <time>2022-05-24 09:29:42</time>
      </trkpt>
      <trkpt lat="41.17627" lon="0.87697">
        <ele>401.4</ele>
        <time>2022-05-24 09:29:43</time>
      </trkpt>
      <trkpt lat="41.17628" lon="0.87701">
        <ele>401.6</ele>
        <time>2022-05-24 09:29:44</time>
      </trkpt>
      <trkpt lat="41.17629" lon="0.87704">
        <ele>401.6</ele>
        <time>2022-05-24 09:29:45</time>
      </trkpt>
      <trkpt lat="41.17631" lon="0.87708">
        <ele>401.8</ele>
        <time>2022-05-24 09:29:46</time>
      </trkpt>
      <trkpt lat="41.17632" lon="0.8771">
        <ele>402</ele>
        <time>2022-05-24 09:29:47</time>
      </trkpt>
      <trkpt lat="41.17633" lon="0.87714">
        <ele>402.2</ele>
        <time>2022-05-24 09:29:48</time>
      </trkpt>
      <trkpt lat="41.17635" lon="0.87717">
        <ele>402.2</ele>
        <time>2022-05-24 09:29:49</time>
      </trkpt>
      <trkpt lat="41.17636" lon="0.8772">
        <ele>402.4</ele>
        <time>2022-05-24 09:29:50</time>
      </trkpt>
      <trkpt lat="41.17638" lon="0.87723">
        <ele>402.6</ele>
        <time>2022-05-24 09:29:51</time>
      </trkpt>
      <trkpt lat="41.17639" lon="0.87727">
        <ele>402.8</ele>
        <time>2022-05-24 09:29:52</time>
      </trkpt>
      <trkpt lat="41.1764" lon="0.87731">
        <ele>402.8</ele>
        <time>2022-05-24 09:29:53</time>
      </trkpt>
      <trkpt lat="41.17642" lon="0.87734">
        <ele>403</ele>
        <time>2022-05-24 09:29:54</time>
      </trkpt>
      <trkpt lat="41.17643" lon="0.87738">
        <ele>403.2</ele>
        <time>2022-05-24 09:29:55</time>
      </trkpt>
      <trkpt lat="41.17643" lon="0.87741">
        <ele>403.4</ele>
        <time>2022-05-24 09:29:56</time>
      </trkpt>
      <trkpt lat="41.17644" lon="0.87745">
        <ele>403.6</ele>
        <time>2022-05-24 09:29:57</time>
      </trkpt>
      <trkpt lat="41.17644" lon="0.87749">
        <ele>403.6</ele>
        <time>2022-05-24 09:29:58</time>
      </trkpt>
      <trkpt lat="41.17644" lon="0.87753">
        <ele>403.8</ele>
        <time>2022-05-24 09:29:59</time>
      </trkpt>
      <trkpt lat="41.17644" lon="0.87757">
        <ele>403.8</ele>
        <time>2022-05-24 09:30:00</time>
      </trkpt>
      <trkpt lat="41.17644" lon="0.87761">
        <ele>404</ele>
        <time>2022-05-24 09:30:01</time>
      </trkpt>
      <trkpt lat="41.17643" lon="0.87765">
        <ele>404.2</ele>
        <time>2022-05-24 09:30:02</time>
      </trkpt>
      <trkpt lat="41.17643" lon="0.87769">
        <ele>404.4</ele>
        <time>2022-05-24 09:30:03</time>
      </trkpt>
      <trkpt lat="41.17642" lon="0.87773">
        <ele>404.6</ele>
        <time>2022-05-24 09:30:04</time>
      </trkpt>
      <trkpt lat="41.1764" lon="0.87777">
        <ele>404.6</ele>
        <time>2022-05-24 09:30:05</time>
      </trkpt>
      <trkpt lat="41.17639" lon="0.8778">
        <ele>404.8</ele>
        <time>2022-05-24 09:30:06</time>
      </trkpt>
      <trkpt lat="41.17638" lon="0.87784">
        <ele>405</ele>
        <time>2022-05-24 09:30:07</time>
      </trkpt>
      <trkpt lat="41.17636" lon="0.87787">
        <ele>405.2</ele>
        <time>2022-05-24 09:30:08</time>
      </trkpt>
      <trkpt lat="41.17634" lon="0.8779">
        <ele>405.4</ele>
        <time>2022-05-24 09:30:09</time>
      </trkpt>
      <trkpt lat="41.17632" lon="0.87794">
        <ele>405.6</ele>
        <time>2022-05-24 09:30:10</time>
      </trkpt>
      <trkpt lat="41.1763" lon="0.87796">
        <ele>405.8</ele>
        <time>2022-05-24 09:30:11</time>
      </trkpt>
      <trkpt lat="41.17628" lon="0.87799">
        <ele>406</ele>
        <time>2022-05-24 09:30:12</time>
      </trkpt>
      <trkpt lat="41.17626" lon="0.87802">
        <ele>406.2</ele>
        <time>2022-05-24 09:30:13</time>
      </trkpt>
      <trkpt lat="41.17624" lon="0.87804">
        <ele>406.4</ele>
        <time>2022-05-24 09:30:14</time>
      </trkpt>
      <trkpt lat="41.17622" lon="0.87807">
        <ele>406.6</ele>
        <time>2022-05-24 09:30:15</time>
      </trkpt>
      <trkpt lat="41.17619" lon="0.87809">
        <ele>406.6</ele>
        <time>2022-05-24 09:30:16</time>
      </trkpt>
      <trkpt lat="41.17617" lon="0.87812">
        <ele>406.8</ele>
        <time>2022-05-24 09:30:17</time>
      </trkpt>
      <trkpt lat="41.17614" lon="0.87814">
        <ele>407</ele>
        <time>2022-05-24 09:30:18</time>
      </trkpt>
      <trkpt lat="41.17612" lon="0.87816">
        <ele>407.2</ele>
        <time>2022-05-24 09:30:19</time>
      </trkpt>
      <trkpt lat="41.17609" lon="0.87818">
        <ele>407.4</ele>
        <time>2022-05-24 09:30:20</time>
      </trkpt>
      <trkpt lat="41.17607" lon="0.87821">
        <ele>407.6</ele>
        <time>2022-05-24 09:30:21</time>
      </trkpt>
      <trkpt lat="41.17605" lon="0.87823">
        <ele>407.8</ele>
        <time>2022-05-24 09:30:22</time>
      </trkpt>
      <trkpt lat="41.17602" lon="0.87825">
        <ele>408</ele>
        <time>2022-05-24 09:30:23</time>
      </trkpt>
      <trkpt lat="41.17599" lon="0.87828">
        <ele>408.2</ele>
        <time>2022-05-24 09:30:24</time>
      </trkpt>
      <trkpt lat="41.17597" lon="0.8783">
        <ele>408.2</ele>
        <time>2022-05-24 09:30:25</time>
      </trkpt>
      <trkpt lat="41.17595" lon="0.87832">
        <ele>408.4</ele>
        <time>2022-05-24 09:30:26</time>
      </trkpt>
      <trkpt lat="41.17592" lon="0.87835">
        <ele>408.6</ele>
        <time>2022-05-24 09:30:27</time>
      </trkpt>
      <trkpt lat="41.1759" lon="0.87837">
        <ele>408.8</ele>
        <time>2022-05-24 09:30:28</time>
      </trkpt>
      <trkpt lat="41.17587" lon="0.8784">
        <ele>409</ele>
        <time>2022-05-24 09:30:29</time>
      </trkpt>
      <trkpt lat="41.17585" lon="0.87842">
        <ele>409.2</ele>
        <time>2022-05-24 09:30:30</time>
      </trkpt>
      <trkpt lat="41.17582" lon="0.87844">
        <ele>409.4</ele>
        <time>2022-05-24 09:30:31</time>
      </trkpt>
      <trkpt lat="41.17579" lon="0.87848">
        <ele>409.6</ele>
        <time>2022-05-24 09:30:32</time>
      </trkpt>
      <trkpt lat="41.17577" lon="0.87851">
        <ele>409.8</ele>
        <time>2022-05-24 09:30:33</time>
      </trkpt>
      <trkpt lat="41.17573" lon="0.87853">
        <ele>410</ele>
        <time>2022-05-24 09:30:34</time>
      </trkpt>
      <trkpt lat="41.1757" lon="0.87856">
        <ele>410.2</ele>
        <time>2022-05-24 09:30:35</time>
      </trkpt>
      <trkpt lat="41.17567" lon="0.87858">
        <ele>410.2</ele>
        <time>2022-05-24 09:30:36</time>
      </trkpt>
      <trkpt lat="41.17565" lon="0.8786">
        <ele>410.4</ele>
        <time>2022-05-24 09:30:37</time>
      </trkpt>
      <trkpt lat="41.17562" lon="0.87863">
        <ele>410.6</ele>
        <time>2022-05-24 09:30:38</time>
      </trkpt>
      <trkpt lat="41.17559" lon="0.87865">
        <ele>410.8</ele>
        <time>2022-05-24 09:30:39</time>
      </trkpt>
      <trkpt lat="41.17556" lon="0.87868">
        <ele>411</ele>
        <time>2022-05-24 09:30:40</time>
      </trkpt>
      <trkpt lat="41.17554" lon="0.8787">
        <ele>411</ele>
        <time>2022-05-24 09:30:41</time>
      </trkpt>
      <trkpt lat="41.17551" lon="0.87873">
        <ele>411</ele>
        <time>2022-05-24 09:30:42</time>
      </trkpt>
      <trkpt lat="41.17548" lon="0.87875">
        <ele>411.2</ele>
        <time>2022-05-24 09:30:43</time>
      </trkpt>
      <trkpt lat="41.17545" lon="0.87878">
        <ele>411.4</ele>
        <time>2022-05-24 09:30:44</time>
      </trkpt>
      <trkpt lat="41.17543" lon="0.87881">
        <ele>411.6</ele>
        <time>2022-05-24 09:30:45</time>
      </trkpt>
      <trkpt lat="41.1754" lon="0.87884">
        <ele>411.6</ele>
        <time>2022-05-24 09:30:46</time>
      </trkpt>
      <trkpt lat="41.17538" lon="0.87886">
        <ele>411.8</ele>
        <time>2022-05-24 09:30:47</time>
      </trkpt>
      <trkpt lat="41.17535" lon="0.87889">
        <ele>412</ele>
        <time>2022-05-24 09:30:48</time>
      </trkpt>
      <trkpt lat="41.17533" lon="0.87892">
        <ele>412</ele>
        <time>2022-05-24 09:30:49</time>
      </trkpt>
      <trkpt lat="41.17532" lon="0.87896">
        <ele>412.2</ele>
        <time>2022-05-24 09:30:50</time>
      </trkpt>
      <trkpt lat="41.1753" lon="0.879">
        <ele>412.4</ele>
        <time>2022-05-24 09:30:51</time>
      </trkpt>
      <trkpt lat="41.17529" lon="0.87904">
        <ele>412.4</ele>
        <time>2022-05-24 09:30:52</time>
      </trkpt>
      <trkpt lat="41.17527" lon="0.87908">
        <ele>412.6</ele>
        <time>2022-05-24 09:30:53</time>
      </trkpt>
      <trkpt lat="41.17527" lon="0.87913">
        <ele>412.6</ele>
        <time>2022-05-24 09:30:54</time>
      </trkpt>
      <trkpt lat="41.17527" lon="0.87917">
        <ele>412.8</ele>
        <time>2022-05-24 09:30:55</time>
      </trkpt>
      <trkpt lat="41.17527" lon="0.87922">
        <ele>413</ele>
        <time>2022-05-24 09:30:56</time>
      </trkpt>
      <trkpt lat="41.17528" lon="0.87926">
        <ele>413</ele>
        <time>2022-05-24 09:30:57</time>
      </trkpt>
      <trkpt lat="41.17529" lon="0.87931">
        <ele>413.2</ele>
        <time>2022-05-24 09:30:58</time>
      </trkpt>
      <trkpt lat="41.1753" lon="0.87935">
        <ele>413.2</ele>
        <time>2022-05-24 09:30:59</time>
      </trkpt>
      <trkpt lat="41.17532" lon="0.87938">
        <ele>413.4</ele>
        <time>2022-05-24 09:31:00</time>
      </trkpt>
      <trkpt lat="41.17535" lon="0.87942">
        <ele>413.4</ele>
        <time>2022-05-24 09:31:01</time>
      </trkpt>
      <trkpt lat="41.17538" lon="0.87945">
        <ele>413.6</ele>
        <time>2022-05-24 09:31:02</time>
      </trkpt>
      <trkpt lat="41.17541" lon="0.87948">
        <ele>413.8</ele>
        <time>2022-05-24 09:31:03</time>
      </trkpt>
      <trkpt lat="41.17544" lon="0.8795">
        <ele>413.8</ele>
        <time>2022-05-24 09:31:04</time>
      </trkpt>
      <trkpt lat="41.17547" lon="0.87952">
        <ele>414</ele>
        <time>2022-05-24 09:31:05</time>
      </trkpt>
      <trkpt lat="41.1755" lon="0.87954">
        <ele>414.2</ele>
        <time>2022-05-24 09:31:06</time>
      </trkpt>
      <trkpt lat="41.17553" lon="0.87955">
        <ele>414.2</ele>
        <time>2022-05-24 09:31:07</time>
      </trkpt>
      <trkpt lat="41.17556" lon="0.87957">
        <ele>414.4</ele>
        <time>2022-05-24 09:31:08</time>
      </trkpt>
      <trkpt lat="41.1756" lon="0.87957">
        <ele>414.6</ele>
        <time>2022-05-24 09:31:09</time>
      </trkpt>
      <trkpt lat="41.17563" lon="0.87958">
        <ele>414.8</ele>
        <time>2022-05-24 09:31:10</time>
      </trkpt>
      <trkpt lat="41.17567" lon="0.87958">
        <ele>414.8</ele>
        <time>2022-05-24 09:31:11</time>
      </trkpt>
      <trkpt lat="41.17571" lon="0.87958">
        <ele>415</ele>
        <time>2022-05-24 09:31:12</time>
      </trkpt>
      <trkpt lat="41.17573" lon="0.87958">
        <ele>415</ele>
        <time>2022-05-24 09:31:13</time>
      </trkpt>
      <trkpt lat="41.17577" lon="0.87958">
        <ele>415.2</ele>
        <time>2022-05-24 09:31:14</time>
      </trkpt>
      <trkpt lat="41.1758" lon="0.87958">
        <ele>415.4</ele>
        <time>2022-05-24 09:31:15</time>
      </trkpt>
      <trkpt lat="41.17583" lon="0.87959">
        <ele>415.4</ele>
        <time>2022-05-24 09:31:16</time>
      </trkpt>
      <trkpt lat="41.17587" lon="0.87959">
        <ele>415.6</ele>
        <time>2022-05-24 09:31:17</time>
      </trkpt>
      <trkpt lat="41.1759" lon="0.87959">
        <ele>415.6</ele>
        <time>2022-05-24 09:31:18</time>
      </trkpt>
      <trkpt lat="41.17593" lon="0.8796">
        <ele>415.8</ele>
        <time>2022-05-24 09:31:19</time>
      </trkpt>
      <trkpt lat="41.17596" lon="0.87962">
        <ele>415.8</ele>
        <time>2022-05-24 09:31:20</time>
      </trkpt>
      <trkpt lat="41.17599" lon="0.87964">
        <ele>415.8</ele>
        <time>2022-05-24 09:31:21</time>
      </trkpt>
      <trkpt lat="41.17602" lon="0.87967">
        <ele>416</ele>
        <time>2022-05-24 09:31:22</time>
      </trkpt>
      <trkpt lat="41.17605" lon="0.8797">
        <ele>416</ele>
        <time>2022-05-24 09:31:23</time>
      </trkpt>
      <trkpt lat="41.17608" lon="0.87973">
        <ele>416.2</ele>
        <time>2022-05-24 09:31:24</time>
      </trkpt>
      <trkpt lat="41.1761" lon="0.87977">
        <ele>416.2</ele>
        <time>2022-05-24 09:31:25</time>
      </trkpt>
      <trkpt lat="41.17612" lon="0.87981">
        <ele>416.4</ele>
        <time>2022-05-24 09:31:26</time>
      </trkpt>
      <trkpt lat="41.17614" lon="0.87984">
        <ele>416.4</ele>
        <time>2022-05-24 09:31:27</time>
      </trkpt>
      <trkpt lat="41.17615" lon="0.87989">
        <ele>416.6</ele>
        <time>2022-05-24 09:31:28</time>
      </trkpt>
      <trkpt lat="41.17616" lon="0.87993">
        <ele>416.6</ele>
        <time>2022-05-24 09:31:29</time>
      </trkpt>
      <trkpt lat="41.17617" lon="0.87998">
        <ele>416.8</ele>
        <time>2022-05-24 09:31:30</time>
      </trkpt>
      <trkpt lat="41.17617" lon="0.88004">
        <ele>417</ele>
        <time>2022-05-24 09:31:31</time>
      </trkpt>
      <trkpt lat="41.17616" lon="0.88009">
        <ele>417</ele>
        <time>2022-05-24 09:31:32</time>
      </trkpt>
      <trkpt lat="41.17615" lon="0.88013">
        <ele>417.2</ele>
        <time>2022-05-24 09:31:33</time>
      </trkpt>
      <trkpt lat="41.17614" lon="0.88017">
        <ele>417.4</ele>
        <time>2022-05-24 09:31:34</time>
      </trkpt>
      <trkpt lat="41.17612" lon="0.88021">
        <ele>417.6</ele>
        <time>2022-05-24 09:31:35</time>
      </trkpt>
      <trkpt lat="41.17611" lon="0.88025">
        <ele>417.8</ele>
        <time>2022-05-24 09:31:36</time>
      </trkpt>
      <trkpt lat="41.17609" lon="0.88028">
        <ele>417.8</ele>
        <time>2022-05-24 09:31:37</time>
      </trkpt>
      <trkpt lat="41.17606" lon="0.88032">
        <ele>418</ele>
        <time>2022-05-24 09:31:38</time>
      </trkpt>
      <trkpt lat="41.17604" lon="0.88035">
        <ele>418.2</ele>
        <time>2022-05-24 09:31:39</time>
      </trkpt>
      <trkpt lat="41.17601" lon="0.88038">
        <ele>418.4</ele>
        <time>2022-05-24 09:31:40</time>
      </trkpt>
      <trkpt lat="41.17599" lon="0.88041">
        <ele>418.6</ele>
        <time>2022-05-24 09:31:41</time>
      </trkpt>
      <trkpt lat="41.17597" lon="0.88044">
        <ele>418.8</ele>
        <time>2022-05-24 09:31:42</time>
      </trkpt>
      <trkpt lat="41.17595" lon="0.88048">
        <ele>418.8</ele>
        <time>2022-05-24 09:31:43</time>
      </trkpt>
      <trkpt lat="41.17593" lon="0.8805">
        <ele>419</ele>
        <time>2022-05-24 09:31:44</time>
      </trkpt>
      <trkpt lat="41.1759" lon="0.88053">
        <ele>419</ele>
        <time>2022-05-24 09:31:45</time>
      </trkpt>
      <trkpt lat="41.17588" lon="0.88055">
        <ele>419.2</ele>
        <time>2022-05-24 09:31:46</time>
      </trkpt>
      <trkpt lat="41.17585" lon="0.88058">
        <ele>419.4</ele>
        <time>2022-05-24 09:31:47</time>
      </trkpt>
      <trkpt lat="41.17582" lon="0.88061">
        <ele>419.4</ele>
        <time>2022-05-24 09:31:48</time>
      </trkpt>
      <trkpt lat="41.1758" lon="0.88064">
        <ele>419.6</ele>
        <time>2022-05-24 09:31:49</time>
      </trkpt>
      <trkpt lat="41.17577" lon="0.88066">
        <ele>419.6</ele>
        <time>2022-05-24 09:31:50</time>
      </trkpt>
      <trkpt lat="41.17574" lon="0.88069">
        <ele>419.8</ele>
        <time>2022-05-24 09:31:51</time>
      </trkpt>
      <trkpt lat="41.17572" lon="0.88072">
        <ele>420</ele>
        <time>2022-05-24 09:31:52</time>
      </trkpt>
      <trkpt lat="41.1757" lon="0.88075">
        <ele>420</ele>
        <time>2022-05-24 09:31:53</time>
      </trkpt>
      <trkpt lat="41.17567" lon="0.88078">
        <ele>420.2</ele>
        <time>2022-05-24 09:31:54</time>
      </trkpt>
      <trkpt lat="41.17565" lon="0.8808">
        <ele>420.4</ele>
        <time>2022-05-24 09:31:55</time>
      </trkpt>
      <trkpt lat="41.17563" lon="0.88083">
        <ele>420.6</ele>
        <time>2022-05-24 09:31:56</time>
      </trkpt>
      <trkpt lat="41.1756" lon="0.88086">
        <ele>420.8</ele>
        <time>2022-05-24 09:31:57</time>
      </trkpt>
      <trkpt lat="41.17558" lon="0.88088">
        <ele>420.8</ele>
        <time>2022-05-24 09:31:58</time>
      </trkpt>
      <trkpt lat="41.17556" lon="0.88091">
        <ele>421.2</ele>
        <time>2022-05-24 09:31:59</time>
      </trkpt>
      <trkpt lat="41.17553" lon="0.88094">
        <ele>421.4</ele>
        <time>2022-05-24 09:32:00</time>
      </trkpt>
      <trkpt lat="41.17551" lon="0.88097">
        <ele>421.6</ele>
        <time>2022-05-24 09:32:01</time>
      </trkpt>
      <trkpt lat="41.17548" lon="0.881">
        <ele>421.8</ele>
        <time>2022-05-24 09:32:02</time>
      </trkpt>
      <trkpt lat="41.17546" lon="0.88102">
        <ele>422</ele>
        <time>2022-05-24 09:32:03</time>
      </trkpt>
      <trkpt lat="41.17544" lon="0.88105">
        <ele>422.2</ele>
        <time>2022-05-24 09:32:04</time>
      </trkpt>
      <trkpt lat="41.17541" lon="0.88108">
        <ele>422.4</ele>
        <time>2022-05-24 09:32:05</time>
      </trkpt>
      <trkpt lat="41.1754" lon="0.88111">
        <ele>422.6</ele>
        <time>2022-05-24 09:32:06</time>
      </trkpt>
      <trkpt lat="41.17537" lon="0.88114">
        <ele>422.8</ele>
        <time>2022-05-24 09:32:07</time>
      </trkpt>
      <trkpt lat="41.17535" lon="0.88117">
        <ele>423</ele>
        <time>2022-05-24 09:32:08</time>
      </trkpt>
      <trkpt lat="41.17533" lon="0.8812">
        <ele>423.2</ele>
        <time>2022-05-24 09:32:09</time>
      </trkpt>
      <trkpt lat="41.17531" lon="0.88123">
        <ele>423.4</ele>
        <time>2022-05-24 09:32:10</time>
      </trkpt>
      <trkpt lat="41.1753" lon="0.88127">
        <ele>423.6</ele>
        <time>2022-05-24 09:32:11</time>
      </trkpt>
      <trkpt lat="41.17528" lon="0.8813">
        <ele>423.8</ele>
        <time>2022-05-24 09:32:12</time>
      </trkpt>
      <trkpt lat="41.17526" lon="0.88133">
        <ele>424</ele>
        <time>2022-05-24 09:32:13</time>
      </trkpt>
      <trkpt lat="41.17525" lon="0.88137">
        <ele>424.2</ele>
        <time>2022-05-24 09:32:14</time>
      </trkpt>
      <trkpt lat="41.17523" lon="0.8814">
        <ele>424.4</ele>
        <time>2022-05-24 09:32:15</time>
      </trkpt>
      <trkpt lat="41.17522" lon="0.88143">
        <ele>424.6</ele>
        <time>2022-05-24 09:32:16</time>
      </trkpt>
      <trkpt lat="41.17521" lon="0.88147">
        <ele>424.8</ele>
        <time>2022-05-24 09:32:17</time>
      </trkpt>
      <trkpt lat="41.17519" lon="0.8815">
        <ele>425</ele>
        <time>2022-05-24 09:32:18</time>
      </trkpt>
      <trkpt lat="41.17518" lon="0.88153">
        <ele>425.2</ele>
        <time>2022-05-24 09:32:19</time>
      </trkpt>
      <trkpt lat="41.17516" lon="0.88156">
        <ele>425.2</ele>
        <time>2022-05-24 09:32:20</time>
      </trkpt>
      <trkpt lat="41.17516" lon="0.8816">
        <ele>425.4</ele>
        <time>2022-05-24 09:32:21</time>
      </trkpt>
      <trkpt lat="41.17515" lon="0.88163">
        <ele>425.6</ele>
        <time>2022-05-24 09:32:22</time>
      </trkpt>
      <trkpt lat="41.17514" lon="0.88167">
        <ele>425.8</ele>
        <time>2022-05-24 09:32:23</time>
      </trkpt>
      <trkpt lat="41.17513" lon="0.88171">
        <ele>426</ele>
        <time>2022-05-24 09:32:24</time>
      </trkpt>
      <trkpt lat="41.17512" lon="0.88175">
        <ele>426</ele>
        <time>2022-05-24 09:32:25</time>
      </trkpt>
      <trkpt lat="41.17512" lon="0.88179">
        <ele>426.4</ele>
        <time>2022-05-24 09:32:26</time>
      </trkpt>
      <trkpt lat="41.17511" lon="0.88183">
        <ele>426.4</ele>
        <time>2022-05-24 09:32:27</time>
      </trkpt>
      <trkpt lat="41.17511" lon="0.88187">
        <ele>426.6</ele>
        <time>2022-05-24 09:32:28</time>
      </trkpt>
      <trkpt lat="41.1751" lon="0.88192">
        <ele>426.8</ele>
        <time>2022-05-24 09:32:29</time>
      </trkpt>
      <trkpt lat="41.1751" lon="0.88195">
        <ele>427</ele>
        <time>2022-05-24 09:32:30</time>
      </trkpt>
      <trkpt lat="41.1751" lon="0.88199">
        <ele>427</ele>
        <time>2022-05-24 09:32:31</time>
      </trkpt>
      <trkpt lat="41.17509" lon="0.88203">
        <ele>427.2</ele>
        <time>2022-05-24 09:32:32</time>
      </trkpt>
      <trkpt lat="41.17509" lon="0.88207">
        <ele>427.4</ele>
        <time>2022-05-24 09:32:33</time>
      </trkpt>
      <trkpt lat="41.17509" lon="0.88211">
        <ele>427.6</ele>
        <time>2022-05-24 09:32:34</time>
      </trkpt>
      <trkpt lat="41.17509" lon="0.88215">
        <ele>427.6</ele>
        <time>2022-05-24 09:32:35</time>
      </trkpt>
      <trkpt lat="41.17509" lon="0.88219">
        <ele>427.8</ele>
        <time>2022-05-24 09:32:36</time>
      </trkpt>
      <trkpt lat="41.17509" lon="0.88222">
        <ele>428</ele>
        <time>2022-05-24 09:32:37</time>
      </trkpt>
      <trkpt lat="41.1751" lon="0.88226">
        <ele>428.2</ele>
        <time>2022-05-24 09:32:38</time>
      </trkpt>
      <trkpt lat="41.1751" lon="0.8823">
        <ele>428.2</ele>
        <time>2022-05-24 09:32:39</time>
      </trkpt>
      <trkpt lat="41.17511" lon="0.88234">
        <ele>428.4</ele>
        <time>2022-05-24 09:32:40</time>
      </trkpt>
      <trkpt lat="41.17511" lon="0.88237">
        <ele>428.6</ele>
        <time>2022-05-24 09:32:41</time>
      </trkpt>
      <trkpt lat="41.17511" lon="0.88241">
        <ele>428.6</ele>
        <time>2022-05-24 09:32:42</time>
      </trkpt>
      <trkpt lat="41.17512" lon="0.88245">
        <ele>428.8</ele>
        <time>2022-05-24 09:32:43</time>
      </trkpt>
      <trkpt lat="41.17513" lon="0.88249">
        <ele>429</ele>
        <time>2022-05-24 09:32:44</time>
      </trkpt>
      <trkpt lat="41.17514" lon="0.88253">
        <ele>429</ele>
        <time>2022-05-24 09:32:45</time>
      </trkpt>
      <trkpt lat="41.17515" lon="0.88257">
        <ele>429.2</ele>
        <time>2022-05-24 09:32:46</time>
      </trkpt>
      <trkpt lat="41.17516" lon="0.88261">
        <ele>429.4</ele>
        <time>2022-05-24 09:32:47</time>
      </trkpt>
      <trkpt lat="41.17518" lon="0.88265">
        <ele>429.6</ele>
        <time>2022-05-24 09:32:48</time>
      </trkpt>
      <trkpt lat="41.17519" lon="0.88268">
        <ele>429.8</ele>
        <time>2022-05-24 09:32:49</time>
      </trkpt>
      <trkpt lat="41.1752" lon="0.88272">
        <ele>429.8</ele>
        <time>2022-05-24 09:32:50</time>
      </trkpt>
      <trkpt lat="41.17522" lon="0.88276">
        <ele>430</ele>
        <time>2022-05-24 09:32:51</time>
      </trkpt>
      <trkpt lat="41.17523" lon="0.88279">
        <ele>430.2</ele>
        <time>2022-05-24 09:32:52</time>
      </trkpt>
      <trkpt lat="41.17524" lon="0.88282">
        <ele>430.2</ele>
        <time>2022-05-24 09:32:53</time>
      </trkpt>
      <trkpt lat="41.17526" lon="0.88286">
        <ele>430.4</ele>
        <time>2022-05-24 09:32:54</time>
      </trkpt>
      <trkpt lat="41.17527" lon="0.88289">
        <ele>430.6</ele>
        <time>2022-05-24 09:32:55</time>
      </trkpt>
      <trkpt lat="41.17529" lon="0.88292">
        <ele>430.6</ele>
        <time>2022-05-24 09:32:56</time>
      </trkpt>
      <trkpt lat="41.1753" lon="0.88295">
        <ele>430.8</ele>
        <time>2022-05-24 09:32:57</time>
      </trkpt>
      <trkpt lat="41.17532" lon="0.88299">
        <ele>430.8</ele>
        <time>2022-05-24 09:32:58</time>
      </trkpt>
      <trkpt lat="41.17533" lon="0.88302">
        <ele>431</ele>
        <time>2022-05-24 09:32:59</time>
      </trkpt>
      <trkpt lat="41.17535" lon="0.88305">
        <ele>431.2</ele>
        <time>2022-05-24 09:33:00</time>
      </trkpt>
      <trkpt lat="41.17537" lon="0.88308">
        <ele>431.2</ele>
        <time>2022-05-24 09:33:01</time>
      </trkpt>
      <trkpt lat="41.17538" lon="0.88312">
        <ele>431.4</ele>
        <time>2022-05-24 09:33:02</time>
      </trkpt>
      <trkpt lat="41.1754" lon="0.88315">
        <ele>431.6</ele>
        <time>2022-05-24 09:33:03</time>
      </trkpt>
      <trkpt lat="41.17542" lon="0.88318">
        <ele>431.6</ele>
        <time>2022-05-24 09:33:04</time>
      </trkpt>
      <trkpt lat="41.17543" lon="0.88321">
        <ele>431.8</ele>
        <time>2022-05-24 09:33:05</time>
      </trkpt>
      <trkpt lat="41.17545" lon="0.88325">
        <ele>431.8</ele>
        <time>2022-05-24 09:33:06</time>
      </trkpt>
      <trkpt lat="41.17546" lon="0.88328">
        <ele>432</ele>
        <time>2022-05-24 09:33:07</time>
      </trkpt>
      <trkpt lat="41.17548" lon="0.88331">
        <ele>432</ele>
        <time>2022-05-24 09:33:08</time>
      </trkpt>
      <trkpt lat="41.1755" lon="0.88334">
        <ele>432.2</ele>
        <time>2022-05-24 09:33:09</time>
      </trkpt>
      <trkpt lat="41.17551" lon="0.88336">
        <ele>432.4</ele>
        <time>2022-05-24 09:33:10</time>
      </trkpt>
      <trkpt lat="41.17553" lon="0.88339">
        <ele>432.4</ele>
        <time>2022-05-24 09:33:11</time>
      </trkpt>
      <trkpt lat="41.17555" lon="0.88342">
        <ele>432.6</ele>
        <time>2022-05-24 09:33:12</time>
      </trkpt>
      <trkpt lat="41.17556" lon="0.88345">
        <ele>432.8</ele>
        <time>2022-05-24 09:33:13</time>
      </trkpt>
      <trkpt lat="41.17558" lon="0.88348">
        <ele>432.8</ele>
        <time>2022-05-24 09:33:14</time>
      </trkpt>
      <trkpt lat="41.1756" lon="0.8835">
        <ele>433</ele>
        <time>2022-05-24 09:33:15</time>
      </trkpt>
      <trkpt lat="41.17561" lon="0.88353">
        <ele>433.2</ele>
        <time>2022-05-24 09:33:16</time>
      </trkpt>
      <trkpt lat="41.17562" lon="0.88356">
        <ele>433.4</ele>
        <time>2022-05-24 09:33:17</time>
      </trkpt>
      <trkpt lat="41.17564" lon="0.88359">
        <ele>433.4</ele>
        <time>2022-05-24 09:33:18</time>
      </trkpt>
      <trkpt lat="41.17565" lon="0.88362">
        <ele>433.6</ele>
        <time>2022-05-24 09:33:19</time>
      </trkpt>
      <trkpt lat="41.17567" lon="0.88364">
        <ele>433.8</ele>
        <time>2022-05-24 09:33:20</time>
      </trkpt>
      <trkpt lat="41.17569" lon="0.88366">
        <ele>434</ele>
        <time>2022-05-24 09:33:21</time>
      </trkpt>
      <trkpt lat="41.1757" lon="0.88369">
        <ele>434</ele>
        <time>2022-05-24 09:33:22</time>
      </trkpt>
      <trkpt lat="41.17572" lon="0.88372">
        <ele>434.2</ele>
        <time>2022-05-24 09:33:23</time>
      </trkpt>
      <trkpt lat="41.17573" lon="0.88374">
        <ele>434.2</ele>
        <time>2022-05-24 09:33:24</time>
      </trkpt>
      <trkpt lat="41.17575" lon="0.88377">
        <ele>434.4</ele>
        <time>2022-05-24 09:33:25</time>
      </trkpt>
      <trkpt lat="41.17576" lon="0.8838">
        <ele>434.4</ele>
        <time>2022-05-24 09:33:26</time>
      </trkpt>
      <trkpt lat="41.17578" lon="0.88382">
        <ele>434.6</ele>
        <time>2022-05-24 09:33:27</time>
      </trkpt>
      <trkpt lat="41.1758" lon="0.88385">
        <ele>434.8</ele>
        <time>2022-05-24 09:33:28</time>
      </trkpt>
      <trkpt lat="41.17581" lon="0.88387">
        <ele>434.8</ele>
        <time>2022-05-24 09:33:29</time>
      </trkpt>
      <trkpt lat="41.17583" lon="0.8839">
        <ele>435</ele>
        <time>2022-05-24 09:33:30</time>
      </trkpt>
      <trkpt lat="41.17585" lon="0.88392">
        <ele>435.2</ele>
        <time>2022-05-24 09:33:31</time>
      </trkpt>
      <trkpt lat="41.17587" lon="0.88395">
        <ele>435.2</ele>
        <time>2022-05-24 09:33:32</time>
      </trkpt>
      <trkpt lat="41.17588" lon="0.88397">
        <ele>435.4</ele>
        <time>2022-05-24 09:33:33</time>
      </trkpt>
      <trkpt lat="41.1759" lon="0.884">
        <ele>435.6</ele>
        <time>2022-05-24 09:33:34</time>
      </trkpt>
      <trkpt lat="41.17591" lon="0.88403">
        <ele>435.8</ele>
        <time>2022-05-24 09:33:35</time>
      </trkpt>
      <trkpt lat="41.17593" lon="0.88406">
        <ele>435.8</ele>
        <time>2022-05-24 09:33:36</time>
      </trkpt>
      <trkpt lat="41.17594" lon="0.88408">
        <ele>436</ele>
        <time>2022-05-24 09:33:37</time>
      </trkpt>
      <trkpt lat="41.17595" lon="0.88411">
        <ele>436.2</ele>
        <time>2022-05-24 09:33:38</time>
      </trkpt>
      <trkpt lat="41.17597" lon="0.88414">
        <ele>436.4</ele>
        <time>2022-05-24 09:33:39</time>
      </trkpt>
      <trkpt lat="41.17598" lon="0.88417">
        <ele>436.4</ele>
        <time>2022-05-24 09:33:40</time>
      </trkpt>
      <trkpt lat="41.176" lon="0.8842">
        <ele>436.6</ele>
        <time>2022-05-24 09:33:41</time>
      </trkpt>
      <trkpt lat="41.17601" lon="0.88423">
        <ele>436.8</ele>
        <time>2022-05-24 09:33:42</time>
      </trkpt>
      <trkpt lat="41.17602" lon="0.88427">
        <ele>436.8</ele>
        <time>2022-05-24 09:33:43</time>
      </trkpt>
      <trkpt lat="41.17603" lon="0.8843">
        <ele>437</ele>
        <time>2022-05-24 09:33:44</time>
      </trkpt>
      <trkpt lat="41.17604" lon="0.88433">
        <ele>437</ele>
        <time>2022-05-24 09:33:45</time>
      </trkpt>
      <trkpt lat="41.17606" lon="0.88437">
        <ele>437.2</ele>
        <time>2022-05-24 09:33:46</time>
      </trkpt>
      <trkpt lat="41.17607" lon="0.8844">
        <ele>437.4</ele>
        <time>2022-05-24 09:33:47</time>
      </trkpt>
      <trkpt lat="41.17608" lon="0.88444">
        <ele>437.6</ele>
        <time>2022-05-24 09:33:48</time>
      </trkpt>
      <trkpt lat="41.17608" lon="0.88447">
        <ele>437.8</ele>
        <time>2022-05-24 09:33:49</time>
      </trkpt>
      <trkpt lat="41.17609" lon="0.88451">
        <ele>437.8</ele>
        <time>2022-05-24 09:33:50</time>
      </trkpt>
      <trkpt lat="41.17609" lon="0.88455">
        <ele>438</ele>
        <time>2022-05-24 09:33:51</time>
      </trkpt>
      <trkpt lat="41.17609" lon="0.88458">
        <ele>438.2</ele>
        <time>2022-05-24 09:33:52</time>
      </trkpt>
      <trkpt lat="41.17609" lon="0.88462">
        <ele>438.4</ele>
        <time>2022-05-24 09:33:53</time>
      </trkpt>
      <trkpt lat="41.17608" lon="0.88466">
        <ele>438.4</ele>
        <time>2022-05-24 09:33:54</time>
      </trkpt>
      <trkpt lat="41.17607" lon="0.88469">
        <ele>438.6</ele>
        <time>2022-05-24 09:33:55</time>
      </trkpt>
      <trkpt lat="41.17607" lon="0.88473">
        <ele>438.8</ele>
        <time>2022-05-24 09:33:56</time>
      </trkpt>
      <trkpt lat="41.17606" lon="0.88476">
        <ele>438.8</ele>
        <time>2022-05-24 09:33:57</time>
      </trkpt>
      <trkpt lat="41.17605" lon="0.88479">
        <ele>439</ele>
        <time>2022-05-24 09:33:58</time>
      </trkpt>
      <trkpt lat="41.17604" lon="0.88482">
        <ele>439.2</ele>
        <time>2022-05-24 09:33:59</time>
      </trkpt>
      <trkpt lat="41.17603" lon="0.88485">
        <ele>439.4</ele>
        <time>2022-05-24 09:34:00</time>
      </trkpt>
      <trkpt lat="41.17601" lon="0.88488">
        <ele>439.4</ele>
        <time>2022-05-24 09:34:01</time>
      </trkpt>
      <trkpt lat="41.17599" lon="0.88491">
        <ele>439.6</ele>
        <time>2022-05-24 09:34:02</time>
      </trkpt>
      <trkpt lat="41.17598" lon="0.88494">
        <ele>439.8</ele>
        <time>2022-05-24 09:34:03</time>
      </trkpt>
      <trkpt lat="41.17596" lon="0.88497">
        <ele>440</ele>
        <time>2022-05-24 09:34:04</time>
      </trkpt>
      <trkpt lat="41.17595" lon="0.885">
        <ele>440.2</ele>
        <time>2022-05-24 09:34:05</time>
      </trkpt>
      <trkpt lat="41.17593" lon="0.88503">
        <ele>440.4</ele>
        <time>2022-05-24 09:34:06</time>
      </trkpt>
      <trkpt lat="41.1759" lon="0.88505">
        <ele>440.4</ele>
        <time>2022-05-24 09:34:07</time>
      </trkpt>
      <trkpt lat="41.17589" lon="0.88508">
        <ele>440.6</ele>
        <time>2022-05-24 09:34:08</time>
      </trkpt>
      <trkpt lat="41.17587" lon="0.8851">
        <ele>440.8</ele>
        <time>2022-05-24 09:34:09</time>
      </trkpt>
      <trkpt lat="41.17584" lon="0.88513">
        <ele>441</ele>
        <time>2022-05-24 09:34:10</time>
      </trkpt>
      <trkpt lat="41.17582" lon="0.88516">
        <ele>441.2</ele>
        <time>2022-05-24 09:34:11</time>
      </trkpt>
      <trkpt lat="41.1758" lon="0.8852">
        <ele>441.4</ele>
        <time>2022-05-24 09:34:12</time>
      </trkpt>
      <trkpt lat="41.17578" lon="0.88523">
        <ele>441.6</ele>
        <time>2022-05-24 09:34:13</time>
      </trkpt>
      <trkpt lat="41.17576" lon="0.88525">
        <ele>441.8</ele>
        <time>2022-05-24 09:34:14</time>
      </trkpt>
      <trkpt lat="41.17574" lon="0.88528">
        <ele>442</ele>
        <time>2022-05-24 09:34:15</time>
      </trkpt>
      <trkpt lat="41.17573" lon="0.88531">
        <ele>442.2</ele>
        <time>2022-05-24 09:34:16</time>
      </trkpt>
      <trkpt lat="41.17572" lon="0.88534">
        <ele>442.4</ele>
        <time>2022-05-24 09:34:17</time>
      </trkpt>
      <trkpt lat="41.17572" lon="0.88537">
        <ele>442.6</ele>
        <time>2022-05-24 09:34:18</time>
      </trkpt>
      <trkpt lat="41.17571" lon="0.8854">
        <ele>442.8</ele>
        <time>2022-05-24 09:34:19</time>
      </trkpt>
      <trkpt lat="41.1757" lon="0.88543">
        <ele>443</ele>
        <time>2022-05-24 09:34:20</time>
      </trkpt>
      <trkpt lat="41.17569" lon="0.88547">
        <ele>443</ele>
        <time>2022-05-24 09:34:21</time>
      </trkpt>
      <trkpt lat="41.17569" lon="0.88551">
        <ele>443.2</ele>
        <time>2022-05-24 09:34:22</time>
      </trkpt>
      <trkpt lat="41.17569" lon="0.88554">
        <ele>443.4</ele>
        <time>2022-05-24 09:34:23</time>
      </trkpt>
      <trkpt lat="41.1757" lon="0.88557">
        <ele>443.6</ele>
        <time>2022-05-24 09:34:24</time>
      </trkpt>
      <trkpt lat="41.1757" lon="0.88561">
        <ele>443.6</ele>
        <time>2022-05-24 09:34:25</time>
      </trkpt>
      <trkpt lat="41.17572" lon="0.88564">
        <ele>443.8</ele>
        <time>2022-05-24 09:34:26</time>
      </trkpt>
      <trkpt lat="41.17572" lon="0.88567">
        <ele>444</ele>
        <time>2022-05-24 09:34:27</time>
      </trkpt>
      <trkpt lat="41.17573" lon="0.88571">
        <ele>444.2</ele>
        <time>2022-05-24 09:34:28</time>
      </trkpt>
      <trkpt lat="41.17574" lon="0.88574">
        <ele>444.2</ele>
        <time>2022-05-24 09:34:29</time>
      </trkpt>
      <trkpt lat="41.17575" lon="0.88577">
        <ele>444.4</ele>
        <time>2022-05-24 09:34:30</time>
      </trkpt>
      <trkpt lat="41.17577" lon="0.8858">
        <ele>444.6</ele>
        <time>2022-05-24 09:34:31</time>
      </trkpt>
      <trkpt lat="41.17578" lon="0.88583">
        <ele>444.8</ele>
        <time>2022-05-24 09:34:32</time>
      </trkpt>
      <trkpt lat="41.1758" lon="0.88586">
        <ele>444.8</ele>
        <time>2022-05-24 09:34:33</time>
      </trkpt>
      <trkpt lat="41.17581" lon="0.88588">
        <ele>445</ele>
        <time>2022-05-24 09:34:34</time>
      </trkpt>
      <trkpt lat="41.17582" lon="0.88591">
        <ele>445.2</ele>
        <time>2022-05-24 09:34:35</time>
      </trkpt>
      <trkpt lat="41.17584" lon="0.88593">
        <ele>445.4</ele>
        <time>2022-05-24 09:34:36</time>
      </trkpt>
      <trkpt lat="41.17586" lon="0.88596">
        <ele>445.4</ele>
        <time>2022-05-24 09:34:37</time>
      </trkpt>
      <trkpt lat="41.17588" lon="0.88599">
        <ele>445.6</ele>
        <time>2022-05-24 09:34:38</time>
      </trkpt>
      <trkpt lat="41.17589" lon="0.88601">
        <ele>445.6</ele>
        <time>2022-05-24 09:34:39</time>
      </trkpt>
      <trkpt lat="41.17591" lon="0.88604">
        <ele>445.8</ele>
        <time>2022-05-24 09:34:40</time>
      </trkpt>
      <trkpt lat="41.17593" lon="0.88607">
        <ele>446</ele>
        <time>2022-05-24 09:34:41</time>
      </trkpt>
      <trkpt lat="41.17593" lon="0.88611">
        <ele>446.2</ele>
        <time>2022-05-24 09:34:42</time>
      </trkpt>
      <trkpt lat="41.17594" lon="0.88614">
        <ele>446.4</ele>
        <time>2022-05-24 09:34:43</time>
      </trkpt>
      <trkpt lat="41.17595" lon="0.88618">
        <ele>446.4</ele>
        <time>2022-05-24 09:34:44</time>
      </trkpt>
      <trkpt lat="41.17595" lon="0.88621">
        <ele>446.6</ele>
        <time>2022-05-24 09:34:45</time>
      </trkpt>
      <trkpt lat="41.17594" lon="0.88625">
        <ele>446.8</ele>
        <time>2022-05-24 09:34:46</time>
      </trkpt>
      <trkpt lat="41.17594" lon="0.88627">
        <ele>447</ele>
        <time>2022-05-24 09:34:47</time>
      </trkpt>
      <trkpt lat="41.17593" lon="0.88631">
        <ele>447.2</ele>
        <time>2022-05-24 09:34:48</time>
      </trkpt>
      <trkpt lat="41.17592" lon="0.88634">
        <ele>447.4</ele>
        <time>2022-05-24 09:34:49</time>
      </trkpt>
      <trkpt lat="41.17591" lon="0.88637">
        <ele>447.6</ele>
        <time>2022-05-24 09:34:50</time>
      </trkpt>
      <trkpt lat="41.1759" lon="0.8864">
        <ele>447.6</ele>
        <time>2022-05-24 09:34:51</time>
      </trkpt>
      <trkpt lat="41.17589" lon="0.88643">
        <ele>447.8</ele>
        <time>2022-05-24 09:34:52</time>
      </trkpt>
      <trkpt lat="41.17587" lon="0.88646">
        <ele>448</ele>
        <time>2022-05-24 09:34:53</time>
      </trkpt>
      <trkpt lat="41.17585" lon="0.88649">
        <ele>448.2</ele>
        <time>2022-05-24 09:34:54</time>
      </trkpt>
      <trkpt lat="41.17583" lon="0.88652">
        <ele>448.4</ele>
        <time>2022-05-24 09:34:55</time>
      </trkpt>
      <trkpt lat="41.17582" lon="0.88654">
        <ele>448.4</ele>
        <time>2022-05-24 09:34:56</time>
      </trkpt>
      <trkpt lat="41.1758" lon="0.88656">
        <ele>448.6</ele>
        <time>2022-05-24 09:34:57</time>
      </trkpt>
      <trkpt lat="41.17579" lon="0.88659">
        <ele>448.8</ele>
        <time>2022-05-24 09:34:58</time>
      </trkpt>
      <trkpt lat="41.17578" lon="0.88661">
        <ele>449</ele>
        <time>2022-05-24 09:34:59</time>
      </trkpt>
      <trkpt lat="41.17577" lon="0.88663">
        <ele>449</ele>
        <time>2022-05-24 09:35:00</time>
      </trkpt>
      <trkpt lat="41.17576" lon="0.88666">
        <ele>449.2</ele>
        <time>2022-05-24 09:35:01</time>
      </trkpt>
      <trkpt lat="41.17574" lon="0.88668">
        <ele>449.4</ele>
        <time>2022-05-24 09:35:02</time>
      </trkpt>
      <trkpt lat="41.17573" lon="0.88671">
        <ele>449.6</ele>
        <time>2022-05-24 09:35:03</time>
      </trkpt>
      <trkpt lat="41.17572" lon="0.88674">
        <ele>449.8</ele>
        <time>2022-05-24 09:35:04</time>
      </trkpt>
      <trkpt lat="41.1757" lon="0.88677">
        <ele>450</ele>
        <time>2022-05-24 09:35:05</time>
      </trkpt>
      <trkpt lat="41.17569" lon="0.8868">
        <ele>450</ele>
        <time>2022-05-24 09:35:06</time>
      </trkpt>
      <trkpt lat="41.17568" lon="0.88683">
        <ele>450.2</ele>
        <time>2022-05-24 09:35:07</time>
      </trkpt>
      <trkpt lat="41.17568" lon="0.88685">
        <ele>450.4</ele>
        <time>2022-05-24 09:35:08</time>
      </trkpt>
      <trkpt lat="41.17567" lon="0.88689">
        <ele>450.6</ele>
        <time>2022-05-24 09:35:09</time>
      </trkpt>
      <trkpt lat="41.17566" lon="0.88693">
        <ele>450.8</ele>
        <time>2022-05-24 09:35:10</time>
      </trkpt>
      <trkpt lat="41.17566" lon="0.88696">
        <ele>451</ele>
        <time>2022-05-24 09:35:11</time>
      </trkpt>
      <trkpt lat="41.17565" lon="0.887">
        <ele>451</ele>
        <time>2022-05-24 09:35:12</time>
      </trkpt>
      <trkpt lat="41.17565" lon="0.88704">
        <ele>451.2</ele>
        <time>2022-05-24 09:35:13</time>
      </trkpt>
      <trkpt lat="41.17564" lon="0.88707">
        <ele>451.4</ele>
        <time>2022-05-24 09:35:14</time>
      </trkpt>
      <trkpt lat="41.17564" lon="0.88711">
        <ele>451.6</ele>
        <time>2022-05-24 09:35:15</time>
      </trkpt>
      <trkpt lat="41.17564" lon="0.88714">
        <ele>451.8</ele>
        <time>2022-05-24 09:35:16</time>
      </trkpt>
      <trkpt lat="41.17565" lon="0.88718">
        <ele>452</ele>
        <time>2022-05-24 09:35:17</time>
      </trkpt>
      <trkpt lat="41.17566" lon="0.88721">
        <ele>452.2</ele>
        <time>2022-05-24 09:35:18</time>
      </trkpt>
      <trkpt lat="41.17567" lon="0.88724">
        <ele>452.2</ele>
        <time>2022-05-24 09:35:19</time>
      </trkpt>
      <trkpt lat="41.17567" lon="0.88726">
        <ele>452.4</ele>
        <time>2022-05-24 09:35:20</time>
      </trkpt>
      <trkpt lat="41.17568" lon="0.8873">
        <ele>452.6</ele>
        <time>2022-05-24 09:35:21</time>
      </trkpt>
      <trkpt lat="41.17569" lon="0.88733">
        <ele>452.8</ele>
        <time>2022-05-24 09:35:22</time>
      </trkpt>
      <trkpt lat="41.1757" lon="0.88737">
        <ele>452.8</ele>
        <time>2022-05-24 09:35:23</time>
      </trkpt>
      <trkpt lat="41.17571" lon="0.88739">
        <ele>453</ele>
        <time>2022-05-24 09:35:24</time>
      </trkpt>
      <trkpt lat="41.17572" lon="0.88743">
        <ele>453.2</ele>
        <time>2022-05-24 09:35:25</time>
      </trkpt>
      <trkpt lat="41.17573" lon="0.88747">
        <ele>453.4</ele>
        <time>2022-05-24 09:35:26</time>
      </trkpt>
      <trkpt lat="41.17573" lon="0.8875">
        <ele>453.4</ele>
        <time>2022-05-24 09:35:27</time>
      </trkpt>
      <trkpt lat="41.17574" lon="0.88753">
        <ele>453.6</ele>
        <time>2022-05-24 09:35:28</time>
      </trkpt>
      <trkpt lat="41.17575" lon="0.88757">
        <ele>453.8</ele>
        <time>2022-05-24 09:35:29</time>
      </trkpt>
      <trkpt lat="41.17575" lon="0.8876">
        <ele>453.8</ele>
        <time>2022-05-24 09:35:30</time>
      </trkpt>
      <trkpt lat="41.17576" lon="0.88763">
        <ele>454</ele>
        <time>2022-05-24 09:35:31</time>
      </trkpt>
      <trkpt lat="41.17577" lon="0.88766">
        <ele>454.2</ele>
        <time>2022-05-24 09:35:32</time>
      </trkpt>
      <trkpt lat="41.17578" lon="0.8877">
        <ele>454.4</ele>
        <time>2022-05-24 09:35:33</time>
      </trkpt>
      <trkpt lat="41.17578" lon="0.88773">
        <ele>454.6</ele>
        <time>2022-05-24 09:35:34</time>
      </trkpt>
      <trkpt lat="41.17578" lon="0.88776">
        <ele>454.6</ele>
        <time>2022-05-24 09:35:35</time>
      </trkpt>
      <trkpt lat="41.17578" lon="0.88779">
        <ele>454.8</ele>
        <time>2022-05-24 09:35:36</time>
      </trkpt>
      <trkpt lat="41.17577" lon="0.88783">
        <ele>455</ele>
        <time>2022-05-24 09:35:37</time>
      </trkpt>
      <trkpt lat="41.17577" lon="0.88787">
        <ele>455.2</ele>
        <time>2022-05-24 09:35:38</time>
      </trkpt>
      <trkpt lat="41.17576" lon="0.8879">
        <ele>455.4</ele>
        <time>2022-05-24 09:35:39</time>
      </trkpt>
      <trkpt lat="41.17576" lon="0.88792">
        <ele>455.4</ele>
        <time>2022-05-24 09:35:40</time>
      </trkpt>
      <trkpt lat="41.17575" lon="0.88796">
        <ele>455.6</ele>
        <time>2022-05-24 09:35:41</time>
      </trkpt>
      <trkpt lat="41.17574" lon="0.88798">
        <ele>455.8</ele>
        <time>2022-05-24 09:35:42</time>
      </trkpt>
      <trkpt lat="41.17573" lon="0.88801">
        <ele>456</ele>
        <time>2022-05-24 09:35:43</time>
      </trkpt>
      <trkpt lat="41.17572" lon="0.88803">
        <ele>456.2</ele>
        <time>2022-05-24 09:35:44</time>
      </trkpt>
      <trkpt lat="41.1757" lon="0.88807">
        <ele>456.2</ele>
        <time>2022-05-24 09:35:45</time>
      </trkpt>
      <trkpt lat="41.17569" lon="0.8881">
        <ele>456.4</ele>
        <time>2022-05-24 09:35:46</time>
      </trkpt>
      <trkpt lat="41.17568" lon="0.88813">
        <ele>456.6</ele>
        <time>2022-05-24 09:35:47</time>
      </trkpt>
      <trkpt lat="41.17567" lon="0.88815">
        <ele>456.8</ele>
        <time>2022-05-24 09:35:48</time>
      </trkpt>
      <trkpt lat="41.17566" lon="0.88819">
        <ele>457</ele>
        <time>2022-05-24 09:35:49</time>
      </trkpt>
      <trkpt lat="41.17564" lon="0.88822">
        <ele>457.2</ele>
        <time>2022-05-24 09:35:50</time>
      </trkpt>
      <trkpt lat="41.17563" lon="0.88826">
        <ele>457.4</ele>
        <time>2022-05-24 09:35:51</time>
      </trkpt>
      <trkpt lat="41.17563" lon="0.88829">
        <ele>457.6</ele>
        <time>2022-05-24 09:35:52</time>
      </trkpt>
      <trkpt lat="41.17561" lon="0.88832">
        <ele>457.8</ele>
        <time>2022-05-24 09:35:53</time>
      </trkpt>
      <trkpt lat="41.17561" lon="0.88836">
        <ele>458</ele>
        <time>2022-05-24 09:35:54</time>
      </trkpt>
      <trkpt lat="41.1756" lon="0.88839">
        <ele>458</ele>
        <time>2022-05-24 09:35:55</time>
      </trkpt>
      <trkpt lat="41.17559" lon="0.88841">
        <ele>458.2</ele>
        <time>2022-05-24 09:35:56</time>
      </trkpt>
      <trkpt lat="41.17559" lon="0.88846">
        <ele>458.4</ele>
        <time>2022-05-24 09:35:57</time>
      </trkpt>
      <trkpt lat="41.17558" lon="0.88849">
        <ele>458.6</ele>
        <time>2022-05-24 09:35:58</time>
      </trkpt>
      <trkpt lat="41.17558" lon="0.88852">
        <ele>458.6</ele>
        <time>2022-05-24 09:35:59</time>
      </trkpt>
      <trkpt lat="41.17559" lon="0.88855">
        <ele>458.8</ele>
        <time>2022-05-24 09:36:00</time>
      </trkpt>
      <trkpt lat="41.17559" lon="0.8886">
        <ele>458.8</ele>
        <time>2022-05-24 09:36:01</time>
      </trkpt>
      <trkpt lat="41.17559" lon="0.88863">
        <ele>459</ele>
        <time>2022-05-24 09:36:02</time>
      </trkpt>
      <trkpt lat="41.17559" lon="0.88866">
        <ele>459.2</ele>
        <time>2022-05-24 09:36:03</time>
      </trkpt>
      <trkpt lat="41.1756" lon="0.88869">
        <ele>459.2</ele>
        <time>2022-05-24 09:36:04</time>
      </trkpt>
      <trkpt lat="41.17561" lon="0.88872">
        <ele>459.4</ele>
        <time>2022-05-24 09:36:05</time>
      </trkpt>
      <trkpt lat="41.17562" lon="0.88875">
        <ele>459.6</ele>
        <time>2022-05-24 09:36:06</time>
      </trkpt>
      <trkpt lat="41.17564" lon="0.88878">
        <ele>459.6</ele>
        <time>2022-05-24 09:36:07</time>
      </trkpt>
      <trkpt lat="41.17565" lon="0.8888">
        <ele>459.6</ele>
        <time>2022-05-24 09:36:08</time>
      </trkpt>
      <trkpt lat="41.17567" lon="0.88883">
        <ele>459.8</ele>
        <time>2022-05-24 09:36:09</time>
      </trkpt>
      <trkpt lat="41.17569" lon="0.88885">
        <ele>460</ele>
        <time>2022-05-24 09:36:10</time>
      </trkpt>
      <trkpt lat="41.17571" lon="0.88888">
        <ele>460</ele>
        <time>2022-05-24 09:36:11</time>
      </trkpt>
      <trkpt lat="41.17572" lon="0.88889">
        <ele>460.2</ele>
        <time>2022-05-24 09:36:12</time>
      </trkpt>
      <trkpt lat="41.17575" lon="0.88892">
        <ele>460.2</ele>
        <time>2022-05-24 09:36:13</time>
      </trkpt>
      <trkpt lat="41.17577" lon="0.88895">
        <ele>460.4</ele>
        <time>2022-05-24 09:36:14</time>
      </trkpt>
      <trkpt lat="41.17579" lon="0.88897">
        <ele>460.4</ele>
        <time>2022-05-24 09:36:15</time>
      </trkpt>
      <trkpt lat="41.1758" lon="0.88899">
        <ele>460.6</ele>
        <time>2022-05-24 09:36:16</time>
      </trkpt>
      <trkpt lat="41.17582" lon="0.88902">
        <ele>460.6</ele>
        <time>2022-05-24 09:36:17</time>
      </trkpt>
      <trkpt lat="41.17584" lon="0.88904">
        <ele>460.8</ele>
        <time>2022-05-24 09:36:18</time>
      </trkpt>
      <trkpt lat="41.17587" lon="0.88906">
        <ele>461</ele>
        <time>2022-05-24 09:36:19</time>
      </trkpt>
      <trkpt lat="41.17589" lon="0.88907">
        <ele>461</ele>
        <time>2022-05-24 09:36:20</time>
      </trkpt>
      <trkpt lat="41.17591" lon="0.88909">
        <ele>461.2</ele>
        <time>2022-05-24 09:36:21</time>
      </trkpt>
      <trkpt lat="41.17593" lon="0.88911">
        <ele>461.4</ele>
        <time>2022-05-24 09:36:22</time>
      </trkpt>
      <trkpt lat="41.17595" lon="0.88913">
        <ele>461.4</ele>
        <time>2022-05-24 09:36:23</time>
      </trkpt>
      <trkpt lat="41.17598" lon="0.88915">
        <ele>461.6</ele>
        <time>2022-05-24 09:36:24</time>
      </trkpt>
      <trkpt lat="41.17599" lon="0.88917">
        <ele>461.8</ele>
        <time>2022-05-24 09:36:25</time>
      </trkpt>
      <trkpt lat="41.17602" lon="0.88919">
        <ele>461.8</ele>
        <time>2022-05-24 09:36:26</time>
      </trkpt>
      <trkpt lat="41.17604" lon="0.88921">
        <ele>462</ele>
        <time>2022-05-24 09:36:27</time>
      </trkpt>
      <trkpt lat="41.17606" lon="0.88923">
        <ele>462</ele>
        <time>2022-05-24 09:36:28</time>
      </trkpt>
      <trkpt lat="41.17607" lon="0.88924">
        <ele>462.2</ele>
        <time>2022-05-24 09:36:29</time>
      </trkpt>
      <trkpt lat="41.1761" lon="0.88926">
        <ele>462.4</ele>
        <time>2022-05-24 09:36:30</time>
      </trkpt>
      <trkpt lat="41.17611" lon="0.88928">
        <ele>462.6</ele>
        <time>2022-05-24 09:36:31</time>
      </trkpt>
      <trkpt lat="41.17613" lon="0.88931">
        <ele>462.8</ele>
        <time>2022-05-24 09:36:32</time>
      </trkpt>
      <trkpt lat="41.17614" lon="0.88932">
        <ele>462.8</ele>
        <time>2022-05-24 09:36:33</time>
      </trkpt>
      <trkpt lat="41.17617" lon="0.88935">
        <ele>463</ele>
        <time>2022-05-24 09:36:34</time>
      </trkpt>
      <trkpt lat="41.17618" lon="0.88937">
        <ele>463.2</ele>
        <time>2022-05-24 09:36:35</time>
      </trkpt>
      <trkpt lat="41.1762" lon="0.88939">
        <ele>463.4</ele>
        <time>2022-05-24 09:36:36</time>
      </trkpt>
      <trkpt lat="41.17622" lon="0.88941">
        <ele>463.6</ele>
        <time>2022-05-24 09:36:37</time>
      </trkpt>
      <trkpt lat="41.17624" lon="0.88944">
        <ele>463.6</ele>
        <time>2022-05-24 09:36:38</time>
      </trkpt>
      <trkpt lat="41.17625" lon="0.88946">
        <ele>463.8</ele>
        <time>2022-05-24 09:36:39</time>
      </trkpt>
      <trkpt lat="41.17627" lon="0.88949">
        <ele>464</ele>
        <time>2022-05-24 09:36:40</time>
      </trkpt>
      <trkpt lat="41.17628" lon="0.88952">
        <ele>464.2</ele>
        <time>2022-05-24 09:36:41</time>
      </trkpt>
      <trkpt lat="41.1763" lon="0.88954">
        <ele>464.4</ele>
        <time>2022-05-24 09:36:42</time>
      </trkpt>
      <trkpt lat="41.17631" lon="0.88957">
        <ele>464.6</ele>
        <time>2022-05-24 09:36:43</time>
      </trkpt>
      <trkpt lat="41.17633" lon="0.8896">
        <ele>464.8</ele>
        <time>2022-05-24 09:36:44</time>
      </trkpt>
      <trkpt lat="41.17634" lon="0.88962">
        <ele>465</ele>
        <time>2022-05-24 09:36:45</time>
      </trkpt>
      <trkpt lat="41.17635" lon="0.88965">
        <ele>465.2</ele>
        <time>2022-05-24 09:36:46</time>
      </trkpt>
      <trkpt lat="41.17636" lon="0.88968">
        <ele>465.4</ele>
        <time>2022-05-24 09:36:47</time>
      </trkpt>
      <trkpt lat="41.17637" lon="0.88971">
        <ele>465.6</ele>
        <time>2022-05-24 09:36:48</time>
      </trkpt>
      <trkpt lat="41.17638" lon="0.88974">
        <ele>465.8</ele>
        <time>2022-05-24 09:36:49</time>
      </trkpt>
      <trkpt lat="41.17639" lon="0.88977">
        <ele>466</ele>
        <time>2022-05-24 09:36:50</time>
      </trkpt>
      <trkpt lat="41.1764" lon="0.8898">
        <ele>466.2</ele>
        <time>2022-05-24 09:36:51</time>
      </trkpt>
      <trkpt lat="41.17641" lon="0.88983">
        <ele>466.4</ele>
        <time>2022-05-24 09:36:52</time>
      </trkpt>
      <trkpt lat="41.17642" lon="0.88985">
        <ele>466.6</ele>
        <time>2022-05-24 09:36:53</time>
      </trkpt>
      <trkpt lat="41.17643" lon="0.88989">
        <ele>466.8</ele>
        <time>2022-05-24 09:36:54</time>
      </trkpt>
      <trkpt lat="41.17644" lon="0.88992">
        <ele>467</ele>
        <time>2022-05-24 09:36:55</time>
      </trkpt>
      <trkpt lat="41.17645" lon="0.88995">
        <ele>467.2</ele>
        <time>2022-05-24 09:36:56</time>
      </trkpt>
      <trkpt lat="41.17646" lon="0.88998">
        <ele>467.4</ele>
        <time>2022-05-24 09:36:57</time>
      </trkpt>
      <trkpt lat="41.17647" lon="0.89001">
        <ele>467.6</ele>
        <time>2022-05-24 09:36:58</time>
      </trkpt>
      <trkpt lat="41.17648" lon="0.89004">
        <ele>467.8</ele>
        <time>2022-05-24 09:36:59</time>
      </trkpt>
      <trkpt lat="41.17648" lon="0.89008">
        <ele>468</ele>
        <time>2022-05-24 09:37:00</time>
      </trkpt>
      <trkpt lat="41.17649" lon="0.89011">
        <ele>468.2</ele>
        <time>2022-05-24 09:37:01</time>
      </trkpt>
      <trkpt lat="41.17648" lon="0.89014">
        <ele>468.4</ele>
        <time>2022-05-24 09:37:02</time>
      </trkpt>
      <trkpt lat="41.17648" lon="0.89017">
        <ele>468.6</ele>
        <time>2022-05-24 09:37:03</time>
      </trkpt>
      <trkpt lat="41.17649" lon="0.89021">
        <ele>468.8</ele>
        <time>2022-05-24 09:37:04</time>
      </trkpt>
      <trkpt lat="41.17649" lon="0.89025">
        <ele>468.8</ele>
        <time>2022-05-24 09:37:05</time>
      </trkpt>
      <trkpt lat="41.17649" lon="0.89028">
        <ele>469.2</ele>
        <time>2022-05-24 09:37:06</time>
      </trkpt>
      <trkpt lat="41.17649" lon="0.89031">
        <ele>469.4</ele>
        <time>2022-05-24 09:37:07</time>
      </trkpt>
      <trkpt lat="41.17649" lon="0.89035">
        <ele>469.6</ele>
        <time>2022-05-24 09:37:08</time>
      </trkpt>
      <trkpt lat="41.17648" lon="0.89037">
        <ele>469.8</ele>
        <time>2022-05-24 09:37:09</time>
      </trkpt>
      <trkpt lat="41.17648" lon="0.89041">
        <ele>470</ele>
        <time>2022-05-24 09:37:10</time>
      </trkpt>
      <trkpt lat="41.17648" lon="0.89043">
        <ele>470</ele>
        <time>2022-05-24 09:37:11</time>
      </trkpt>
      <trkpt lat="41.17648" lon="0.89046">
        <ele>470.2</ele>
        <time>2022-05-24 09:37:12</time>
      </trkpt>
      <trkpt lat="41.17647" lon="0.89049">
        <ele>470.4</ele>
        <time>2022-05-24 09:37:13</time>
      </trkpt>
      <trkpt lat="41.17647" lon="0.89051">
        <ele>470.6</ele>
        <time>2022-05-24 09:37:14</time>
      </trkpt>
      <trkpt lat="41.17646" lon="0.89055">
        <ele>470.8</ele>
        <time>2022-05-24 09:37:15</time>
      </trkpt>
      <trkpt lat="41.17646" lon="0.89057">
        <ele>471</ele>
        <time>2022-05-24 09:37:16</time>
      </trkpt>
      <trkpt lat="41.17646" lon="0.8906">
        <ele>471.2</ele>
        <time>2022-05-24 09:37:17</time>
      </trkpt>
      <trkpt lat="41.17645" lon="0.89063">
        <ele>471.2</ele>
        <time>2022-05-24 09:37:18</time>
      </trkpt>
      <trkpt lat="41.17645" lon="0.89066">
        <ele>471.4</ele>
        <time>2022-05-24 09:37:19</time>
      </trkpt>
      <trkpt lat="41.17644" lon="0.89069">
        <ele>471.6</ele>
        <time>2022-05-24 09:37:20</time>
      </trkpt>
      <trkpt lat="41.17643" lon="0.89072">
        <ele>471.8</ele>
        <time>2022-05-24 09:37:21</time>
      </trkpt>
      <trkpt lat="41.17643" lon="0.89075">
        <ele>471.8</ele>
        <time>2022-05-24 09:37:22</time>
      </trkpt>
      <trkpt lat="41.17643" lon="0.89078">
        <ele>472</ele>
        <time>2022-05-24 09:37:23</time>
      </trkpt>
      <trkpt lat="41.17642" lon="0.89081">
        <ele>472.2</ele>
        <time>2022-05-24 09:37:24</time>
      </trkpt>
      <trkpt lat="41.17641" lon="0.89084">
        <ele>472.4</ele>
        <time>2022-05-24 09:37:25</time>
      </trkpt>
      <trkpt lat="41.17641" lon="0.89087">
        <ele>472.6</ele>
        <time>2022-05-24 09:37:26</time>
      </trkpt>
      <trkpt lat="41.1764" lon="0.89089">
        <ele>472.6</ele>
        <time>2022-05-24 09:37:27</time>
      </trkpt>
      <trkpt lat="41.1764" lon="0.89092">
        <ele>472.8</ele>
        <time>2022-05-24 09:37:28</time>
      </trkpt>
      <trkpt lat="41.17639" lon="0.89095">
        <ele>473</ele>
        <time>2022-05-24 09:37:29</time>
      </trkpt>
      <trkpt lat="41.17638" lon="0.89098">
        <ele>473.2</ele>
        <time>2022-05-24 09:37:30</time>
      </trkpt>
      <trkpt lat="41.17638" lon="0.89101">
        <ele>473.4</ele>
        <time>2022-05-24 09:37:31</time>
      </trkpt>
      <trkpt lat="41.17637" lon="0.89104">
        <ele>473.4</ele>
        <time>2022-05-24 09:37:32</time>
      </trkpt>
      <trkpt lat="41.17636" lon="0.89107">
        <ele>473.6</ele>
        <time>2022-05-24 09:37:33</time>
      </trkpt>
      <trkpt lat="41.17636" lon="0.8911">
        <ele>473.8</ele>
        <time>2022-05-24 09:37:34</time>
      </trkpt>
      <trkpt lat="41.17635" lon="0.89112">
        <ele>474</ele>
        <time>2022-05-24 09:37:35</time>
      </trkpt>
      <trkpt lat="41.17635" lon="0.89116">
        <ele>474</ele>
        <time>2022-05-24 09:37:36</time>
      </trkpt>
      <trkpt lat="41.17634" lon="0.89118">
        <ele>474.2</ele>
        <time>2022-05-24 09:37:37</time>
      </trkpt>
      <trkpt lat="41.17634" lon="0.89122">
        <ele>474.4</ele>
        <time>2022-05-24 09:37:38</time>
      </trkpt>
      <trkpt lat="41.17633" lon="0.89124">
        <ele>474.6</ele>
        <time>2022-05-24 09:37:39</time>
      </trkpt>
      <trkpt lat="41.17633" lon="0.89128">
        <ele>474.6</ele>
        <time>2022-05-24 09:37:40</time>
      </trkpt>
      <trkpt lat="41.17632" lon="0.89131">
        <ele>474.8</ele>
        <time>2022-05-24 09:37:41</time>
      </trkpt>
      <trkpt lat="41.17632" lon="0.89134">
        <ele>475</ele>
        <time>2022-05-24 09:37:42</time>
      </trkpt>
      <trkpt lat="41.17632" lon="0.89137">
        <ele>475</ele>
        <time>2022-05-24 09:37:43</time>
      </trkpt>
      <trkpt lat="41.17631" lon="0.8914">
        <ele>475.2</ele>
        <time>2022-05-24 09:37:44</time>
      </trkpt>
      <trkpt lat="41.17631" lon="0.89143">
        <ele>475.4</ele>
        <time>2022-05-24 09:37:45</time>
      </trkpt>
      <trkpt lat="41.17631" lon="0.89146">
        <ele>475.4</ele>
        <time>2022-05-24 09:37:46</time>
      </trkpt>
      <trkpt lat="41.17631" lon="0.89149">
        <ele>475.6</ele>
        <time>2022-05-24 09:37:47</time>
      </trkpt>
      <trkpt lat="41.17632" lon="0.89152">
        <ele>475.8</ele>
        <time>2022-05-24 09:37:48</time>
      </trkpt>
      <trkpt lat="41.17632" lon="0.89155">
        <ele>476</ele>
        <time>2022-05-24 09:37:49</time>
      </trkpt>
      <trkpt lat="41.17633" lon="0.89158">
        <ele>476</ele>
        <time>2022-05-24 09:37:50</time>
      </trkpt>
      <trkpt lat="41.17633" lon="0.89161">
        <ele>476.2</ele>
        <time>2022-05-24 09:37:51</time>
      </trkpt>
      <trkpt lat="41.17634" lon="0.89164">
        <ele>476.4</ele>
        <time>2022-05-24 09:37:52</time>
      </trkpt>
      <trkpt lat="41.17635" lon="0.89167">
        <ele>476.4</ele>
        <time>2022-05-24 09:37:53</time>
      </trkpt>
      <trkpt lat="41.17635" lon="0.8917">
        <ele>476.6</ele>
        <time>2022-05-24 09:37:54</time>
      </trkpt>
      <trkpt lat="41.17636" lon="0.89173">
        <ele>476.8</ele>
        <time>2022-05-24 09:37:55</time>
      </trkpt>
      <trkpt lat="41.17637" lon="0.89175">
        <ele>476.8</ele>
        <time>2022-05-24 09:37:56</time>
      </trkpt>
      <trkpt lat="41.17638" lon="0.89178">
        <ele>477</ele>
        <time>2022-05-24 09:37:57</time>
      </trkpt>
      <trkpt lat="41.17638" lon="0.89181">
        <ele>477.2</ele>
        <time>2022-05-24 09:37:58</time>
      </trkpt>
      <trkpt lat="41.1764" lon="0.89183">
        <ele>477.4</ele>
        <time>2022-05-24 09:37:59</time>
      </trkpt>
      <trkpt lat="41.17641" lon="0.89186">
        <ele>477.4</ele>
        <time>2022-05-24 09:38:00</time>
      </trkpt>
      <trkpt lat="41.17642" lon="0.89188">
        <ele>477.6</ele>
        <time>2022-05-24 09:38:01</time>
      </trkpt>
      <trkpt lat="41.17643" lon="0.89191">
        <ele>477.8</ele>
        <time>2022-05-24 09:38:02</time>
      </trkpt>
      <trkpt lat="41.17644" lon="0.89193">
        <ele>478</ele>
        <time>2022-05-24 09:38:03</time>
      </trkpt>
      <trkpt lat="41.17645" lon="0.89196">
        <ele>478.2</ele>
        <time>2022-05-24 09:38:04</time>
      </trkpt>
      <trkpt lat="41.17647" lon="0.89198">
        <ele>478.2</ele>
        <time>2022-05-24 09:38:05</time>
      </trkpt>
      <trkpt lat="41.17648" lon="0.892">
        <ele>478.4</ele>
        <time>2022-05-24 09:38:06</time>
      </trkpt>
      <trkpt lat="41.1765" lon="0.89202">
        <ele>478.6</ele>
        <time>2022-05-24 09:38:07</time>
      </trkpt>
      <trkpt lat="41.17652" lon="0.89204">
        <ele>478.8</ele>
        <time>2022-05-24 09:38:08</time>
      </trkpt>
      <trkpt lat="41.17653" lon="0.89206">
        <ele>478.8</ele>
        <time>2022-05-24 09:38:09</time>
      </trkpt>
      <trkpt lat="41.17655" lon="0.89208">
        <ele>479</ele>
        <time>2022-05-24 09:38:10</time>
      </trkpt>
      <trkpt lat="41.17656" lon="0.8921">
        <ele>479.2</ele>
        <time>2022-05-24 09:38:11</time>
      </trkpt>
      <trkpt lat="41.17658" lon="0.89213">
        <ele>479.4</ele>
        <time>2022-05-24 09:38:12</time>
      </trkpt>
      <trkpt lat="41.17659" lon="0.89215">
        <ele>479.6</ele>
        <time>2022-05-24 09:38:13</time>
      </trkpt>
      <trkpt lat="41.17661" lon="0.89217">
        <ele>479.8</ele>
        <time>2022-05-24 09:38:14</time>
      </trkpt>
      <trkpt lat="41.17663" lon="0.89219">
        <ele>479.8</ele>
        <time>2022-05-24 09:38:15</time>
      </trkpt>
      <trkpt lat="41.17665" lon="0.8922">
        <ele>480</ele>
        <time>2022-05-24 09:38:16</time>
      </trkpt>
      <trkpt lat="41.17667" lon="0.89223">
        <ele>480.2</ele>
        <time>2022-05-24 09:38:17</time>
      </trkpt>
      <trkpt lat="41.17668" lon="0.89225">
        <ele>480.4</ele>
        <time>2022-05-24 09:38:18</time>
      </trkpt>
      <trkpt lat="41.1767" lon="0.89227">
        <ele>480.6</ele>
        <time>2022-05-24 09:38:19</time>
      </trkpt>
      <trkpt lat="41.17672" lon="0.89229">
        <ele>480.8</ele>
        <time>2022-05-24 09:38:20</time>
      </trkpt>
      <trkpt lat="41.17673" lon="0.89231">
        <ele>481</ele>
        <time>2022-05-24 09:38:21</time>
      </trkpt>
      <trkpt lat="41.17675" lon="0.89233">
        <ele>481.2</ele>
        <time>2022-05-24 09:38:22</time>
      </trkpt>
      <trkpt lat="41.17676" lon="0.89235">
        <ele>481.2</ele>
        <time>2022-05-24 09:38:23</time>
      </trkpt>
      <trkpt lat="41.17678" lon="0.89237">
        <ele>481.4</ele>
        <time>2022-05-24 09:38:24</time>
      </trkpt>
      <trkpt lat="41.1768" lon="0.8924">
        <ele>481.6</ele>
        <time>2022-05-24 09:38:25</time>
      </trkpt>
      <trkpt lat="41.17681" lon="0.89242">
        <ele>481.8</ele>
        <time>2022-05-24 09:38:26</time>
      </trkpt>
      <trkpt lat="41.17682" lon="0.89244">
        <ele>481.8</ele>
        <time>2022-05-24 09:38:27</time>
      </trkpt>
      <trkpt lat="41.17684" lon="0.89247">
        <ele>482.2</ele>
        <time>2022-05-24 09:38:28</time>
      </trkpt>
      <trkpt lat="41.17685" lon="0.89248">
        <ele>482.2</ele>
        <time>2022-05-24 09:38:29</time>
      </trkpt>
      <trkpt lat="41.17686" lon="0.89251">
        <ele>482.4</ele>
        <time>2022-05-24 09:38:30</time>
      </trkpt>
      <trkpt lat="41.17687" lon="0.89254">
        <ele>482.6</ele>
        <time>2022-05-24 09:38:31</time>
      </trkpt>
      <trkpt lat="41.17688" lon="0.89256">
        <ele>482.8</ele>
        <time>2022-05-24 09:38:32</time>
      </trkpt>
      <trkpt lat="41.1769" lon="0.89259">
        <ele>482.8</ele>
        <time>2022-05-24 09:38:33</time>
      </trkpt>
      <trkpt lat="41.1769" lon="0.89262">
        <ele>483</ele>
        <time>2022-05-24 09:38:34</time>
      </trkpt>
      <trkpt lat="41.17691" lon="0.89265">
        <ele>483.2</ele>
        <time>2022-05-24 09:38:35</time>
      </trkpt>
      <trkpt lat="41.17692" lon="0.89267">
        <ele>483.4</ele>
        <time>2022-05-24 09:38:36</time>
      </trkpt>
      <trkpt lat="41.17693" lon="0.8927">
        <ele>483.6</ele>
        <time>2022-05-24 09:38:37</time>
      </trkpt>
      <trkpt lat="41.17693" lon="0.89273">
        <ele>483.8</ele>
        <time>2022-05-24 09:38:38</time>
      </trkpt>
      <trkpt lat="41.17693" lon="0.89277">
        <ele>484</ele>
        <time>2022-05-24 09:38:39</time>
      </trkpt>
      <trkpt lat="41.17692" lon="0.8928">
        <ele>484.2</ele>
        <time>2022-05-24 09:38:40</time>
      </trkpt>
      <trkpt lat="41.17692" lon="0.89283">
        <ele>484.4</ele>
        <time>2022-05-24 09:38:41</time>
      </trkpt>
      <trkpt lat="41.17692" lon="0.89286">
        <ele>484.6</ele>
        <time>2022-05-24 09:38:42</time>
      </trkpt>
      <trkpt lat="41.17691" lon="0.89289">
        <ele>484.8</ele>
        <time>2022-05-24 09:38:43</time>
      </trkpt>
      <trkpt lat="41.17691" lon="0.89291">
        <ele>485</ele>
        <time>2022-05-24 09:38:44</time>
      </trkpt>
      <trkpt lat="41.17691" lon="0.89294">
        <ele>485.2</ele>
        <time>2022-05-24 09:38:45</time>
      </trkpt>
      <trkpt lat="41.17691" lon="0.89296">
        <ele>485.4</ele>
        <time>2022-05-24 09:38:46</time>
      </trkpt>
      <trkpt lat="41.1769" lon="0.89299">
        <ele>485.4</ele>
        <time>2022-05-24 09:38:47</time>
      </trkpt>
      <trkpt lat="41.1769" lon="0.89302">
        <ele>485.6</ele>
        <time>2022-05-24 09:38:48</time>
      </trkpt>
      <trkpt lat="41.17689" lon="0.89304">
        <ele>485.8</ele>
        <time>2022-05-24 09:38:49</time>
      </trkpt>
      <trkpt lat="41.17688" lon="0.89307">
        <ele>486</ele>
        <time>2022-05-24 09:38:50</time>
      </trkpt>
      <trkpt lat="41.17688" lon="0.8931">
        <ele>486.2</ele>
        <time>2022-05-24 09:38:51</time>
      </trkpt>
      <trkpt lat="41.17687" lon="0.89313">
        <ele>486.4</ele>
        <time>2022-05-24 09:38:52</time>
      </trkpt>
      <trkpt lat="41.17687" lon="0.89315">
        <ele>486.4</ele>
        <time>2022-05-24 09:38:53</time>
      </trkpt>
      <trkpt lat="41.17687" lon="0.89318">
        <ele>486.6</ele>
        <time>2022-05-24 09:38:54</time>
      </trkpt>
      <trkpt lat="41.17687" lon="0.89321">
        <ele>486.8</ele>
        <time>2022-05-24 09:38:55</time>
      </trkpt>
      <trkpt lat="41.17687" lon="0.89323">
        <ele>487</ele>
        <time>2022-05-24 09:38:56</time>
      </trkpt>
      <trkpt lat="41.17687" lon="0.89327">
        <ele>487</ele>
        <time>2022-05-24 09:38:57</time>
      </trkpt>
      <trkpt lat="41.17688" lon="0.89329">
        <ele>487.2</ele>
        <time>2022-05-24 09:38:58</time>
      </trkpt>
      <trkpt lat="41.17688" lon="0.89332">
        <ele>487.4</ele>
        <time>2022-05-24 09:38:59</time>
      </trkpt>
      <trkpt lat="41.17688" lon="0.89335">
        <ele>487.4</ele>
        <time>2022-05-24 09:39:00</time>
      </trkpt>
      <trkpt lat="41.17689" lon="0.89338">
        <ele>487.6</ele>
        <time>2022-05-24 09:39:01</time>
      </trkpt>
      <trkpt lat="41.1769" lon="0.8934">
        <ele>487.8</ele>
        <time>2022-05-24 09:39:02</time>
      </trkpt>
      <trkpt lat="41.1769" lon="0.89343">
        <ele>487.8</ele>
        <time>2022-05-24 09:39:03</time>
      </trkpt>
      <trkpt lat="41.1769" lon="0.89346">
        <ele>488</ele>
        <time>2022-05-24 09:39:04</time>
      </trkpt>
      <trkpt lat="41.17691" lon="0.89348">
        <ele>488.2</ele>
        <time>2022-05-24 09:39:05</time>
      </trkpt>
      <trkpt lat="41.17692" lon="0.89351">
        <ele>488.4</ele>
        <time>2022-05-24 09:39:06</time>
      </trkpt>
      <trkpt lat="41.17693" lon="0.89354">
        <ele>488.6</ele>
        <time>2022-05-24 09:39:07</time>
      </trkpt>
      <trkpt lat="41.17694" lon="0.89357">
        <ele>488.8</ele>
        <time>2022-05-24 09:39:08</time>
      </trkpt>
      <trkpt lat="41.17695" lon="0.8936">
        <ele>488.8</ele>
        <time>2022-05-24 09:39:09</time>
      </trkpt>
      <trkpt lat="41.17696" lon="0.89362">
        <ele>489</ele>
        <time>2022-05-24 09:39:10</time>
      </trkpt>
      <trkpt lat="41.17697" lon="0.89365">
        <ele>489.2</ele>
        <time>2022-05-24 09:39:11</time>
      </trkpt>
      <trkpt lat="41.17699" lon="0.89368">
        <ele>489.2</ele>
        <time>2022-05-24 09:39:12</time>
      </trkpt>
      <trkpt lat="41.177" lon="0.8937">
        <ele>489.4</ele>
        <time>2022-05-24 09:39:13</time>
      </trkpt>
      <trkpt lat="41.17702" lon="0.89373">
        <ele>489.4</ele>
        <time>2022-05-24 09:39:14</time>
      </trkpt>
      <trkpt lat="41.17703" lon="0.89374">
        <ele>489.6</ele>
        <time>2022-05-24 09:39:15</time>
      </trkpt>
      <trkpt lat="41.17705" lon="0.89378">
        <ele>489.6</ele>
        <time>2022-05-24 09:39:16</time>
      </trkpt>
      <trkpt lat="41.17707" lon="0.8938">
        <ele>489.8</ele>
        <time>2022-05-24 09:39:17</time>
      </trkpt>
      <trkpt lat="41.17708" lon="0.89383">
        <ele>490</ele>
        <time>2022-05-24 09:39:18</time>
      </trkpt>
      <trkpt lat="41.17709" lon="0.89384">
        <ele>490</ele>
        <time>2022-05-24 09:39:19</time>
      </trkpt>
      <trkpt lat="41.17711" lon="0.89388">
        <ele>490.2</ele>
        <time>2022-05-24 09:39:20</time>
      </trkpt>
      <trkpt lat="41.17712" lon="0.89391">
        <ele>490.4</ele>
        <time>2022-05-24 09:39:21</time>
      </trkpt>
      <trkpt lat="41.17713" lon="0.89394">
        <ele>490.4</ele>
        <time>2022-05-24 09:39:22</time>
      </trkpt>
      <trkpt lat="41.17714" lon="0.89396">
        <ele>490.6</ele>
        <time>2022-05-24 09:39:23</time>
      </trkpt>
      <trkpt lat="41.17716" lon="0.89399">
        <ele>490.8</ele>
        <time>2022-05-24 09:39:24</time>
      </trkpt>
      <trkpt lat="41.17717" lon="0.89402">
        <ele>490.8</ele>
        <time>2022-05-24 09:39:25</time>
      </trkpt>
      <trkpt lat="41.17719" lon="0.89405">
        <ele>491</ele>
        <time>2022-05-24 09:39:26</time>
      </trkpt>
      <trkpt lat="41.1772" lon="0.89407">
        <ele>491</ele>
        <time>2022-05-24 09:39:27</time>
      </trkpt>
      <trkpt lat="41.17722" lon="0.89411">
        <ele>491.2</ele>
        <time>2022-05-24 09:39:28</time>
      </trkpt>
      <trkpt lat="41.17723" lon="0.89414">
        <ele>491.2</ele>
        <time>2022-05-24 09:39:29</time>
      </trkpt>
      <trkpt lat="41.17725" lon="0.89417">
        <ele>491.4</ele>
        <time>2022-05-24 09:39:30</time>
      </trkpt>
      <trkpt lat="41.17726" lon="0.8942">
        <ele>491.6</ele>
        <time>2022-05-24 09:39:31</time>
      </trkpt>
      <trkpt lat="41.17728" lon="0.89423">
        <ele>491.6</ele>
        <time>2022-05-24 09:39:32</time>
      </trkpt>
      <trkpt lat="41.1773" lon="0.89426">
        <ele>491.8</ele>
        <time>2022-05-24 09:39:33</time>
      </trkpt>
      <trkpt lat="41.17731" lon="0.89429">
        <ele>492</ele>
        <time>2022-05-24 09:39:34</time>
      </trkpt>
      <trkpt lat="41.17733" lon="0.89431">
        <ele>492</ele>
        <time>2022-05-24 09:39:35</time>
      </trkpt>
      <trkpt lat="41.17735" lon="0.89435">
        <ele>492.2</ele>
        <time>2022-05-24 09:39:36</time>
      </trkpt>
      <trkpt lat="41.17736" lon="0.89438">
        <ele>492.4</ele>
        <time>2022-05-24 09:39:37</time>
      </trkpt>
      <trkpt lat="41.17738" lon="0.8944">
        <ele>492.4</ele>
        <time>2022-05-24 09:39:38</time>
      </trkpt>
      <trkpt lat="41.17739" lon="0.89442">
        <ele>492.6</ele>
        <time>2022-05-24 09:39:39</time>
      </trkpt>
      <trkpt lat="41.17741" lon="0.89446">
        <ele>492.8</ele>
        <time>2022-05-24 09:39:40</time>
      </trkpt>
      <trkpt lat="41.17742" lon="0.89448">
        <ele>492.8</ele>
        <time>2022-05-24 09:39:41</time>
      </trkpt>
      <trkpt lat="41.17744" lon="0.89451">
        <ele>493</ele>
        <time>2022-05-24 09:39:42</time>
      </trkpt>
      <trkpt lat="41.17745" lon="0.89453">
        <ele>493</ele>
        <time>2022-05-24 09:39:43</time>
      </trkpt>
      <trkpt lat="41.17747" lon="0.89458">
        <ele>493.2</ele>
        <time>2022-05-24 09:39:44</time>
      </trkpt>
      <trkpt lat="41.17748" lon="0.89461">
        <ele>493.4</ele>
        <time>2022-05-24 09:39:45</time>
      </trkpt>
      <trkpt lat="41.1775" lon="0.89464">
        <ele>493.4</ele>
        <time>2022-05-24 09:39:46</time>
      </trkpt>
      <trkpt lat="41.17751" lon="0.89466">
        <ele>493.6</ele>
        <time>2022-05-24 09:39:47</time>
      </trkpt>
      <trkpt lat="41.17753" lon="0.89469">
        <ele>493.8</ele>
        <time>2022-05-24 09:39:48</time>
      </trkpt>
      <trkpt lat="41.17754" lon="0.89472">
        <ele>493.8</ele>
        <time>2022-05-24 09:39:49</time>
      </trkpt>
      <trkpt lat="41.17756" lon="0.89475">
        <ele>494</ele>
        <time>2022-05-24 09:39:50</time>
      </trkpt>
      <trkpt lat="41.17757" lon="0.89477">
        <ele>494.2</ele>
        <time>2022-05-24 09:39:51</time>
      </trkpt>
      <trkpt lat="41.17759" lon="0.8948">
        <ele>494.2</ele>
        <time>2022-05-24 09:39:52</time>
      </trkpt>
      <trkpt lat="41.1776" lon="0.89483">
        <ele>494.4</ele>
        <time>2022-05-24 09:39:53</time>
      </trkpt>
      <trkpt lat="41.17761" lon="0.89486">
        <ele>494.6</ele>
        <time>2022-05-24 09:39:54</time>
      </trkpt>
      <trkpt lat="41.17763" lon="0.89488">
        <ele>494.8</ele>
        <time>2022-05-24 09:39:55</time>
      </trkpt>
      <trkpt lat="41.17765" lon="0.89491">
        <ele>494.8</ele>
        <time>2022-05-24 09:39:56</time>
      </trkpt>
      <trkpt lat="41.17766" lon="0.89494">
        <ele>495</ele>
        <time>2022-05-24 09:39:57</time>
      </trkpt>
      <trkpt lat="41.17768" lon="0.89497">
        <ele>495.2</ele>
        <time>2022-05-24 09:39:58</time>
      </trkpt>
      <trkpt lat="41.17768" lon="0.89498">
        <ele>495.2</ele>
        <time>2022-05-24 09:39:59</time>
      </trkpt>
      <trkpt lat="41.1777" lon="0.89502">
        <ele>495.4</ele>
        <time>2022-05-24 09:40:00</time>
      </trkpt>
      <trkpt lat="41.17772" lon="0.89505">
        <ele>495.6</ele>
        <time>2022-05-24 09:40:01</time>
      </trkpt>
      <trkpt lat="41.17773" lon="0.89507">
        <ele>495.8</ele>
        <time>2022-05-24 09:40:02</time>
      </trkpt>
      <trkpt lat="41.17775" lon="0.89509">
        <ele>496</ele>
        <time>2022-05-24 09:40:03</time>
      </trkpt>
      <trkpt lat="41.17777" lon="0.89512">
        <ele>496.2</ele>
        <time>2022-05-24 09:40:04</time>
      </trkpt>
      <trkpt lat="41.17778" lon="0.89515">
        <ele>496.4</ele>
        <time>2022-05-24 09:40:05</time>
      </trkpt>
      <trkpt lat="41.17779" lon="0.89517">
        <ele>496.4</ele>
        <time>2022-05-24 09:40:06</time>
      </trkpt>
      <trkpt lat="41.1778" lon="0.89519">
        <ele>496.6</ele>
        <time>2022-05-24 09:40:07</time>
      </trkpt>
      <trkpt lat="41.17782" lon="0.89522">
        <ele>496.8</ele>
        <time>2022-05-24 09:40:08</time>
      </trkpt>
      <trkpt lat="41.17783" lon="0.89525">
        <ele>497</ele>
        <time>2022-05-24 09:40:09</time>
      </trkpt>
      <trkpt lat="41.17784" lon="0.89528">
        <ele>497.2</ele>
        <time>2022-05-24 09:40:10</time>
      </trkpt>
      <trkpt lat="41.17785" lon="0.89529">
        <ele>497.4</ele>
        <time>2022-05-24 09:40:11</time>
      </trkpt>
      <trkpt lat="41.17787" lon="0.89532">
        <ele>497.6</ele>
        <time>2022-05-24 09:40:12</time>
      </trkpt>
      <trkpt lat="41.17788" lon="0.89534">
        <ele>497.6</ele>
        <time>2022-05-24 09:40:13</time>
      </trkpt>
      <trkpt lat="41.1779" lon="0.89537">
        <ele>497.8</ele>
        <time>2022-05-24 09:40:14</time>
      </trkpt>
      <trkpt lat="41.17791" lon="0.89539">
        <ele>498</ele>
        <time>2022-05-24 09:40:15</time>
      </trkpt>
      <trkpt lat="41.17792" lon="0.8954">
        <ele>498.2</ele>
        <time>2022-05-24 09:40:16</time>
      </trkpt>
      <trkpt lat="41.17794" lon="0.89543">
        <ele>498.4</ele>
        <time>2022-05-24 09:40:17</time>
      </trkpt>
      <trkpt lat="41.17795" lon="0.89546">
        <ele>498.6</ele>
        <time>2022-05-24 09:40:18</time>
      </trkpt>
      <trkpt lat="41.17796" lon="0.89548">
        <ele>498.6</ele>
        <time>2022-05-24 09:40:19</time>
      </trkpt>
      <trkpt lat="41.17797" lon="0.8955">
        <ele>498.8</ele>
        <time>2022-05-24 09:40:20</time>
      </trkpt>
      <trkpt lat="41.17799" lon="0.89554">
        <ele>499</ele>
        <time>2022-05-24 09:40:21</time>
      </trkpt>
      <trkpt lat="41.178" lon="0.89556">
        <ele>499.2</ele>
        <time>2022-05-24 09:40:22</time>
      </trkpt>
      <trkpt lat="41.17801" lon="0.89559">
        <ele>499.2</ele>
        <time>2022-05-24 09:40:23</time>
      </trkpt>
      <trkpt lat="41.17802" lon="0.89561">
        <ele>499.4</ele>
        <time>2022-05-24 09:40:24</time>
      </trkpt>
      <trkpt lat="41.17803" lon="0.89564">
        <ele>499.6</ele>
        <time>2022-05-24 09:40:25</time>
      </trkpt>
      <trkpt lat="41.17804" lon="0.89567">
        <ele>499.8</ele>
        <time>2022-05-24 09:40:26</time>
      </trkpt>
      <trkpt lat="41.17805" lon="0.89569">
        <ele>500</ele>
        <time>2022-05-24 09:40:27</time>
      </trkpt>
      <trkpt lat="41.17806" lon="0.89572">
        <ele>500</ele>
        <time>2022-05-24 09:40:28</time>
      </trkpt>
      <trkpt lat="41.17807" lon="0.89574">
        <ele>500.2</ele>
        <time>2022-05-24 09:40:29</time>
      </trkpt>
      <trkpt lat="41.17809" lon="0.89577">
        <ele>500.4</ele>
        <time>2022-05-24 09:40:30</time>
      </trkpt>
      <trkpt lat="41.1781" lon="0.8958">
        <ele>500.6</ele>
        <time>2022-05-24 09:40:31</time>
      </trkpt>
      <trkpt lat="41.17811" lon="0.89583">
        <ele>500.6</ele>
        <time>2022-05-24 09:40:32</time>
      </trkpt>
      <trkpt lat="41.17811" lon="0.89585">
        <ele>500.8</ele>
        <time>2022-05-24 09:40:33</time>
      </trkpt>
      <trkpt lat="41.17812" lon="0.89589">
        <ele>501</ele>
        <time>2022-05-24 09:40:34</time>
      </trkpt>
      <trkpt lat="41.17812" lon="0.89592">
        <ele>501</ele>
        <time>2022-05-24 09:40:35</time>
      </trkpt>
      <trkpt lat="41.17812" lon="0.89595">
        <ele>501.2</ele>
        <time>2022-05-24 09:40:36</time>
      </trkpt>
      <trkpt lat="41.17812" lon="0.89598">
        <ele>501.4</ele>
        <time>2022-05-24 09:40:37</time>
      </trkpt>
      <trkpt lat="41.17812" lon="0.89601">
        <ele>501.6</ele>
        <time>2022-05-24 09:40:38</time>
      </trkpt>
      <trkpt lat="41.17812" lon="0.89604">
        <ele>501.8</ele>
        <time>2022-05-24 09:40:39</time>
      </trkpt>
      <trkpt lat="41.17812" lon="0.89606">
        <ele>502</ele>
        <time>2022-05-24 09:40:40</time>
      </trkpt>
      <trkpt lat="41.17811" lon="0.89609">
        <ele>502.2</ele>
        <time>2022-05-24 09:40:41</time>
      </trkpt>
      <trkpt lat="41.17811" lon="0.89611">
        <ele>502.4</ele>
        <time>2022-05-24 09:40:42</time>
      </trkpt>
      <trkpt lat="41.1781" lon="0.89614">
        <ele>502.6</ele>
        <time>2022-05-24 09:40:43</time>
      </trkpt>
      <trkpt lat="41.17809" lon="0.89617">
        <ele>502.8</ele>
        <time>2022-05-24 09:40:44</time>
      </trkpt>
      <trkpt lat="41.17808" lon="0.8962">
        <ele>503</ele>
        <time>2022-05-24 09:40:45</time>
      </trkpt>
      <trkpt lat="41.17807" lon="0.89622">
        <ele>503</ele>
        <time>2022-05-24 09:40:46</time>
      </trkpt>
      <trkpt lat="41.17805" lon="0.89624">
        <ele>503.2</ele>
        <time>2022-05-24 09:40:47</time>
      </trkpt>
      <trkpt lat="41.17804" lon="0.89627">
        <ele>503.4</ele>
        <time>2022-05-24 09:40:48</time>
      </trkpt>
      <trkpt lat="41.17802" lon="0.89629">
        <ele>503.6</ele>
        <time>2022-05-24 09:40:49</time>
      </trkpt>
      <trkpt lat="41.17801" lon="0.89631">
        <ele>503.8</ele>
        <time>2022-05-24 09:40:50</time>
      </trkpt>
      <trkpt lat="41.17799" lon="0.89633">
        <ele>504</ele>
        <time>2022-05-24 09:40:51</time>
      </trkpt>
      <trkpt lat="41.17798" lon="0.89634">
        <ele>504.2</ele>
        <time>2022-05-24 09:40:52</time>
      </trkpt>
      <trkpt lat="41.17796" lon="0.89636">
        <ele>504.4</ele>
        <time>2022-05-24 09:40:53</time>
      </trkpt>
      <trkpt lat="41.17794" lon="0.89637">
        <ele>504.6</ele>
        <time>2022-05-24 09:40:54</time>
      </trkpt>
      <trkpt lat="41.17792" lon="0.89639">
        <ele>504.8</ele>
        <time>2022-05-24 09:40:55</time>
      </trkpt>
      <trkpt lat="41.1779" lon="0.8964">
        <ele>505</ele>
        <time>2022-05-24 09:40:56</time>
      </trkpt>
      <trkpt lat="41.17788" lon="0.89641">
        <ele>505.2</ele>
        <time>2022-05-24 09:40:57</time>
      </trkpt>
      <trkpt lat="41.17786" lon="0.89642">
        <ele>505.4</ele>
        <time>2022-05-24 09:40:58</time>
      </trkpt>
      <trkpt lat="41.17784" lon="0.89642">
        <ele>505.4</ele>
        <time>2022-05-24 09:40:59</time>
      </trkpt>
      <trkpt lat="41.17782" lon="0.89642">
        <ele>505.6</ele>
        <time>2022-05-24 09:41:00</time>
      </trkpt>
      <trkpt lat="41.1778" lon="0.89642">
        <ele>505.8</ele>
        <time>2022-05-24 09:41:01</time>
      </trkpt>
      <trkpt lat="41.17779" lon="0.89642">
        <ele>506</ele>
        <time>2022-05-24 09:41:02</time>
      </trkpt>
      <trkpt lat="41.17776" lon="0.89642">
        <ele>506.2</ele>
        <time>2022-05-24 09:41:03</time>
      </trkpt>
      <trkpt lat="41.17774" lon="0.89641">
        <ele>506.4</ele>
        <time>2022-05-24 09:41:04</time>
      </trkpt>
      <trkpt lat="41.17772" lon="0.89641">
        <ele>506.6</ele>
        <time>2022-05-24 09:41:05</time>
      </trkpt>
      <trkpt lat="41.1777" lon="0.8964">
        <ele>506.6</ele>
        <time>2022-05-24 09:41:06</time>
      </trkpt>
      <trkpt lat="41.17768" lon="0.8964">
        <ele>506.8</ele>
        <time>2022-05-24 09:41:07</time>
      </trkpt>
      <trkpt lat="41.17765" lon="0.89638">
        <ele>507</ele>
        <time>2022-05-24 09:41:08</time>
      </trkpt>
      <trkpt lat="41.17764" lon="0.89637">
        <ele>507.2</ele>
        <time>2022-05-24 09:41:09</time>
      </trkpt>
      <trkpt lat="41.17762" lon="0.89636">
        <ele>507.4</ele>
        <time>2022-05-24 09:41:10</time>
      </trkpt>
      <trkpt lat="41.1776" lon="0.89635">
        <ele>507.6</ele>
        <time>2022-05-24 09:41:11</time>
      </trkpt>
      <trkpt lat="41.17758" lon="0.89633">
        <ele>507.8</ele>
        <time>2022-05-24 09:41:12</time>
      </trkpt>
      <trkpt lat="41.17756" lon="0.89632">
        <ele>507.8</ele>
        <time>2022-05-24 09:41:13</time>
      </trkpt>
      <trkpt lat="41.17754" lon="0.8963">
        <ele>508</ele>
        <time>2022-05-24 09:41:14</time>
      </trkpt>
      <trkpt lat="41.17753" lon="0.89629">
        <ele>508.2</ele>
        <time>2022-05-24 09:41:15</time>
      </trkpt>
      <trkpt lat="41.17751" lon="0.89627">
        <ele>508.4</ele>
        <time>2022-05-24 09:41:16</time>
      </trkpt>
      <trkpt lat="41.1775" lon="0.89626">
        <ele>508.6</ele>
        <time>2022-05-24 09:41:17</time>
      </trkpt>
      <trkpt lat="41.17748" lon="0.89624">
        <ele>508.6</ele>
        <time>2022-05-24 09:41:18</time>
      </trkpt>
      <trkpt lat="41.17747" lon="0.89622">
        <ele>508.8</ele>
        <time>2022-05-24 09:41:19</time>
      </trkpt>
      <trkpt lat="41.17746" lon="0.8962">
        <ele>509</ele>
        <time>2022-05-24 09:41:20</time>
      </trkpt>
      <trkpt lat="41.17744" lon="0.89618">
        <ele>509.2</ele>
        <time>2022-05-24 09:41:21</time>
      </trkpt>
      <trkpt lat="41.17744" lon="0.89617">
        <ele>509.4</ele>
        <time>2022-05-24 09:41:22</time>
      </trkpt>
      <trkpt lat="41.17742" lon="0.89615">
        <ele>509.6</ele>
        <time>2022-05-24 09:41:23</time>
      </trkpt>
      <trkpt lat="41.17741" lon="0.89613">
        <ele>509.8</ele>
        <time>2022-05-24 09:41:24</time>
      </trkpt>
      <trkpt lat="41.1774" lon="0.89611">
        <ele>509.8</ele>
        <time>2022-05-24 09:41:25</time>
      </trkpt>
      <trkpt lat="41.17739" lon="0.89609">
        <ele>510.2</ele>
        <time>2022-05-24 09:41:26</time>
      </trkpt>
      <trkpt lat="41.17738" lon="0.89607">
        <ele>510.2</ele>
        <time>2022-05-24 09:41:27</time>
      </trkpt>
      <trkpt lat="41.17737" lon="0.89605">
        <ele>510.4</ele>
        <time>2022-05-24 09:41:28</time>
      </trkpt>
      <trkpt lat="41.17735" lon="0.89604">
        <ele>510.6</ele>
        <time>2022-05-24 09:41:29</time>
      </trkpt>
      <trkpt lat="41.17734" lon="0.89602">
        <ele>510.6</ele>
        <time>2022-05-24 09:41:30</time>
      </trkpt>
      <trkpt lat="41.17733" lon="0.896">
        <ele>510.8</ele>
        <time>2022-05-24 09:41:31</time>
      </trkpt>
      <trkpt lat="41.17732" lon="0.89598">
        <ele>511</ele>
        <time>2022-05-24 09:41:32</time>
      </trkpt>
      <trkpt lat="41.17731" lon="0.89596">
        <ele>511</ele>
        <time>2022-05-24 09:41:33</time>
      </trkpt>
      <trkpt lat="41.1773" lon="0.89594">
        <ele>511.2</ele>
        <time>2022-05-24 09:41:34</time>
      </trkpt>
      <trkpt lat="41.17729" lon="0.89592">
        <ele>511.4</ele>
        <time>2022-05-24 09:41:35</time>
      </trkpt>
      <trkpt lat="41.17728" lon="0.8959">
        <ele>511.6</ele>
        <time>2022-05-24 09:41:36</time>
      </trkpt>
      <trkpt lat="41.17727" lon="0.89587">
        <ele>511.6</ele>
        <time>2022-05-24 09:41:37</time>
      </trkpt>
      <trkpt lat="41.17726" lon="0.89586">
        <ele>511.8</ele>
        <time>2022-05-24 09:41:38</time>
      </trkpt>
      <trkpt lat="41.17725" lon="0.89584">
        <ele>512</ele>
        <time>2022-05-24 09:41:39</time>
      </trkpt>
      <trkpt lat="41.17724" lon="0.89582">
        <ele>512</ele>
        <time>2022-05-24 09:41:40</time>
      </trkpt>
      <trkpt lat="41.17723" lon="0.8958">
        <ele>512.2</ele>
        <time>2022-05-24 09:41:41</time>
      </trkpt>
      <trkpt lat="41.17722" lon="0.89578">
        <ele>512.4</ele>
        <time>2022-05-24 09:41:42</time>
      </trkpt>
      <trkpt lat="41.17721" lon="0.89576">
        <ele>512.4</ele>
        <time>2022-05-24 09:41:43</time>
      </trkpt>
      <trkpt lat="41.1772" lon="0.89574">
        <ele>512.6</ele>
        <time>2022-05-24 09:41:44</time>
      </trkpt>
      <trkpt lat="41.17719" lon="0.89572">
        <ele>512.6</ele>
        <time>2022-05-24 09:41:45</time>
      </trkpt>
      <trkpt lat="41.17718" lon="0.8957">
        <ele>512.8</ele>
        <time>2022-05-24 09:41:46</time>
      </trkpt>
      <trkpt lat="41.17717" lon="0.89568">
        <ele>512.8</ele>
        <time>2022-05-24 09:41:47</time>
      </trkpt>
      <trkpt lat="41.17715" lon="0.89566">
        <ele>513</ele>
        <time>2022-05-24 09:41:48</time>
      </trkpt>
      <trkpt lat="41.17714" lon="0.89564">
        <ele>513</ele>
        <time>2022-05-24 09:41:49</time>
      </trkpt>
      <trkpt lat="41.17713" lon="0.89563">
        <ele>513.2</ele>
        <time>2022-05-24 09:41:50</time>
      </trkpt>
      <trkpt lat="41.17712" lon="0.89561">
        <ele>513.4</ele>
        <time>2022-05-24 09:41:51</time>
      </trkpt>
      <trkpt lat="41.1771" lon="0.89559">
        <ele>513.4</ele>
        <time>2022-05-24 09:41:52</time>
      </trkpt>
      <trkpt lat="41.1771" lon="0.89557">
        <ele>513.6</ele>
        <time>2022-05-24 09:41:53</time>
      </trkpt>
      <trkpt lat="41.17709" lon="0.89555">
        <ele>513.8</ele>
        <time>2022-05-24 09:41:54</time>
      </trkpt>
      <trkpt lat="41.17708" lon="0.89554">
        <ele>513.8</ele>
        <time>2022-05-24 09:41:55</time>
      </trkpt>
      <trkpt lat="41.17707" lon="0.89552">
        <ele>514</ele>
        <time>2022-05-24 09:41:56</time>
      </trkpt>
      <trkpt lat="41.17706" lon="0.8955">
        <ele>514</ele>
        <time>2022-05-24 09:41:57</time>
      </trkpt>
      <trkpt lat="41.17705" lon="0.89548">
        <ele>514.2</ele>
        <time>2022-05-24 09:41:58</time>
      </trkpt>
      <trkpt lat="41.17704" lon="0.89545">
        <ele>514.4</ele>
        <time>2022-05-24 09:41:59</time>
      </trkpt>
      <trkpt lat="41.17703" lon="0.89544">
        <ele>514.4</ele>
        <time>2022-05-24 09:42:00</time>
      </trkpt>
      <trkpt lat="41.17702" lon="0.89542">
        <ele>514.6</ele>
        <time>2022-05-24 09:42:01</time>
      </trkpt>
      <trkpt lat="41.17701" lon="0.8954">
        <ele>514.6</ele>
        <time>2022-05-24 09:42:02</time>
      </trkpt>
      <trkpt lat="41.177" lon="0.89538">
        <ele>514.8</ele>
        <time>2022-05-24 09:42:03</time>
      </trkpt>
      <trkpt lat="41.17699" lon="0.89535">
        <ele>514.8</ele>
        <time>2022-05-24 09:42:04</time>
      </trkpt>
      <trkpt lat="41.17698" lon="0.89533">
        <ele>515</ele>
        <time>2022-05-24 09:42:05</time>
      </trkpt>
      <trkpt lat="41.17697" lon="0.89532">
        <ele>515</ele>
        <time>2022-05-24 09:42:06</time>
      </trkpt>
      <trkpt lat="41.17696" lon="0.8953">
        <ele>515.2</ele>
        <time>2022-05-24 09:42:07</time>
      </trkpt>
      <trkpt lat="41.17695" lon="0.89528">
        <ele>515.2</ele>
        <time>2022-05-24 09:42:08</time>
      </trkpt>
      <trkpt lat="41.17694" lon="0.89526">
        <ele>515.2</ele>
        <time>2022-05-24 09:42:09</time>
      </trkpt>
      <trkpt lat="41.17693" lon="0.89524">
        <ele>515.4</ele>
        <time>2022-05-24 09:42:10</time>
      </trkpt>
      <trkpt lat="41.17692" lon="0.89522">
        <ele>515.6</ele>
        <time>2022-05-24 09:42:11</time>
      </trkpt>
      <trkpt lat="41.17691" lon="0.8952">
        <ele>515.6</ele>
        <time>2022-05-24 09:42:12</time>
      </trkpt>
      <trkpt lat="41.1769" lon="0.89518">
        <ele>515.8</ele>
        <time>2022-05-24 09:42:13</time>
      </trkpt>
      <trkpt lat="41.17688" lon="0.89516">
        <ele>515.8</ele>
        <time>2022-05-24 09:42:14</time>
      </trkpt>
      <trkpt lat="41.17687" lon="0.89514">
        <ele>516</ele>
        <time>2022-05-24 09:42:15</time>
      </trkpt>
      <trkpt lat="41.17686" lon="0.89512">
        <ele>516.2</ele>
        <time>2022-05-24 09:42:16</time>
      </trkpt>
      <trkpt lat="41.17685" lon="0.89509">
        <ele>516.2</ele>
        <time>2022-05-24 09:42:17</time>
      </trkpt>
      <trkpt lat="41.17684" lon="0.89507">
        <ele>516.4</ele>
        <time>2022-05-24 09:42:18</time>
      </trkpt>
      <trkpt lat="41.17683" lon="0.89505">
        <ele>516.6</ele>
        <time>2022-05-24 09:42:19</time>
      </trkpt>
      <trkpt lat="41.17682" lon="0.89503">
        <ele>516.6</ele>
        <time>2022-05-24 09:42:20</time>
      </trkpt>
      <trkpt lat="41.1768" lon="0.89502">
        <ele>516.8</ele>
        <time>2022-05-24 09:42:21</time>
      </trkpt>
      <trkpt lat="41.17678" lon="0.89499">
        <ele>517</ele>
        <time>2022-05-24 09:42:22</time>
      </trkpt>
      <trkpt lat="41.17677" lon="0.89498">
        <ele>517.2</ele>
        <time>2022-05-24 09:42:23</time>
      </trkpt>
      <trkpt lat="41.17676" lon="0.89496">
        <ele>517.2</ele>
        <time>2022-05-24 09:42:24</time>
      </trkpt>
      <trkpt lat="41.17675" lon="0.89494">
        <ele>517.4</ele>
        <time>2022-05-24 09:42:25</time>
      </trkpt>
      <trkpt lat="41.17673" lon="0.89492">
        <ele>517.6</ele>
        <time>2022-05-24 09:42:26</time>
      </trkpt>
      <trkpt lat="41.17672" lon="0.89491">
        <ele>517.6</ele>
        <time>2022-05-24 09:42:27</time>
      </trkpt>
      <trkpt lat="41.1767" lon="0.89489">
        <ele>517.8</ele>
        <time>2022-05-24 09:42:28</time>
      </trkpt>
      <trkpt lat="41.17668" lon="0.89488">
        <ele>517.8</ele>
        <time>2022-05-24 09:42:29</time>
      </trkpt>
      <trkpt lat="41.17667" lon="0.89486">
        <ele>518</ele>
        <time>2022-05-24 09:42:30</time>
      </trkpt>
      <trkpt lat="41.17665" lon="0.89485">
        <ele>518</ele>
        <time>2022-05-24 09:42:31</time>
      </trkpt>
      <trkpt lat="41.17663" lon="0.89484">
        <ele>518.2</ele>
        <time>2022-05-24 09:42:32</time>
      </trkpt>
      <trkpt lat="41.17661" lon="0.89483">
        <ele>518.4</ele>
        <time>2022-05-24 09:42:33</time>
      </trkpt>
      <trkpt lat="41.17659" lon="0.89483">
        <ele>518.4</ele>
        <time>2022-05-24 09:42:34</time>
      </trkpt>
      <trkpt lat="41.17657" lon="0.89482">
        <ele>518.6</ele>
        <time>2022-05-24 09:42:35</time>
      </trkpt>
      <trkpt lat="41.17655" lon="0.89481">
        <ele>518.6</ele>
        <time>2022-05-24 09:42:36</time>
      </trkpt>
      <trkpt lat="41.17653" lon="0.89481">
        <ele>518.8</ele>
        <time>2022-05-24 09:42:37</time>
      </trkpt>
      <trkpt lat="41.17651" lon="0.8948">
        <ele>519</ele>
        <time>2022-05-24 09:42:38</time>
      </trkpt>
      <trkpt lat="41.17649" lon="0.89481">
        <ele>519</ele>
        <time>2022-05-24 09:42:39</time>
      </trkpt>
      <trkpt lat="41.17647" lon="0.89481">
        <ele>519.2</ele>
        <time>2022-05-24 09:42:40</time>
      </trkpt>
      <trkpt lat="41.17645" lon="0.89481">
        <ele>519.2</ele>
        <time>2022-05-24 09:42:41</time>
      </trkpt>
      <trkpt lat="41.17642" lon="0.89482">
        <ele>519.2</ele>
        <time>2022-05-24 09:42:42</time>
      </trkpt>
      <trkpt lat="41.1764" lon="0.89483">
        <ele>519.4</ele>
        <time>2022-05-24 09:42:43</time>
      </trkpt>
      <trkpt lat="41.17638" lon="0.89484">
        <ele>519.6</ele>
        <time>2022-05-24 09:42:44</time>
      </trkpt>
      <trkpt lat="41.17635" lon="0.89485">
        <ele>519.6</ele>
        <time>2022-05-24 09:42:45</time>
      </trkpt>
      <trkpt lat="41.17633" lon="0.89486">
        <ele>519.8</ele>
        <time>2022-05-24 09:42:46</time>
      </trkpt>
      <trkpt lat="41.17631" lon="0.89487">
        <ele>519.8</ele>
        <time>2022-05-24 09:42:47</time>
      </trkpt>
      <trkpt lat="41.17629" lon="0.89488">
        <ele>520</ele>
        <time>2022-05-24 09:42:48</time>
      </trkpt>
      <trkpt lat="41.17627" lon="0.89489">
        <ele>520</ele>
        <time>2022-05-24 09:42:49</time>
      </trkpt>
      <trkpt lat="41.17625" lon="0.89491">
        <ele>520.2</ele>
        <time>2022-05-24 09:42:50</time>
      </trkpt>
      <trkpt lat="41.17623" lon="0.89493">
        <ele>520.4</ele>
        <time>2022-05-24 09:42:51</time>
      </trkpt>
      <trkpt lat="41.17622" lon="0.89494">
        <ele>520.4</ele>
        <time>2022-05-24 09:42:52</time>
      </trkpt>
      <trkpt lat="41.17619" lon="0.89496">
        <ele>520.6</ele>
        <time>2022-05-24 09:42:53</time>
      </trkpt>
      <trkpt lat="41.17618" lon="0.89497">
        <ele>520.6</ele>
        <time>2022-05-24 09:42:54</time>
      </trkpt>
      <trkpt lat="41.17616" lon="0.89499">
        <ele>520.8</ele>
        <time>2022-05-24 09:42:55</time>
      </trkpt>
      <trkpt lat="41.17614" lon="0.895">
        <ele>520.8</ele>
        <time>2022-05-24 09:42:56</time>
      </trkpt>
      <trkpt lat="41.17612" lon="0.89501">
        <ele>521</ele>
        <time>2022-05-24 09:42:57</time>
      </trkpt>
      <trkpt lat="41.17611" lon="0.89502">
        <ele>521.2</ele>
        <time>2022-05-24 09:42:58</time>
      </trkpt>
      <trkpt lat="41.17609" lon="0.89504">
        <ele>521.4</ele>
        <time>2022-05-24 09:42:59</time>
      </trkpt>
      <trkpt lat="41.17607" lon="0.89505">
        <ele>521.4</ele>
        <time>2022-05-24 09:43:00</time>
      </trkpt>
      <trkpt lat="41.17605" lon="0.89507">
        <ele>521.6</ele>
        <time>2022-05-24 09:43:01</time>
      </trkpt>
      <trkpt lat="41.17603" lon="0.89508">
        <ele>521.8</ele>
        <time>2022-05-24 09:43:02</time>
      </trkpt>
      <trkpt lat="41.17601" lon="0.8951">
        <ele>521.8</ele>
        <time>2022-05-24 09:43:03</time>
      </trkpt>
      <trkpt lat="41.176" lon="0.89512">
        <ele>522</ele>
        <time>2022-05-24 09:43:04</time>
      </trkpt>
      <trkpt lat="41.17598" lon="0.89515">
        <ele>522.2</ele>
        <time>2022-05-24 09:43:05</time>
      </trkpt>
      <trkpt lat="41.17595" lon="0.89516">
        <ele>522.4</ele>
        <time>2022-05-24 09:43:06</time>
      </trkpt>
      <trkpt lat="41.17593" lon="0.89517">
        <ele>522.4</ele>
        <time>2022-05-24 09:43:07</time>
      </trkpt>
      <trkpt lat="41.17591" lon="0.89518">
        <ele>522.6</ele>
        <time>2022-05-24 09:43:08</time>
      </trkpt>
      <trkpt lat="41.1759" lon="0.89519">
        <ele>522.8</ele>
        <time>2022-05-24 09:43:09</time>
      </trkpt>
      <trkpt lat="41.17589" lon="0.89519">
        <ele>523</ele>
        <time>2022-05-24 09:43:10</time>
      </trkpt>
      <trkpt lat="41.17588" lon="0.8952">
        <ele>523.2</ele>
        <time>2022-05-24 09:43:11</time>
      </trkpt>
      <trkpt lat="41.17586" lon="0.89521">
        <ele>523.2</ele>
        <time>2022-05-24 09:43:12</time>
      </trkpt>
      <trkpt lat="41.17585" lon="0.89522">
        <ele>523.4</ele>
        <time>2022-05-24 09:43:13</time>
      </trkpt>
      <trkpt lat="41.17583" lon="0.89523">
        <ele>523.6</ele>
        <time>2022-05-24 09:43:14</time>
      </trkpt>
      <trkpt lat="41.17581" lon="0.89524">
        <ele>523.8</ele>
        <time>2022-05-24 09:43:15</time>
      </trkpt>
      <trkpt lat="41.1758" lon="0.89525">
        <ele>523.8</ele>
        <time>2022-05-24 09:43:16</time>
      </trkpt>
      <trkpt lat="41.17578" lon="0.89527">
        <ele>524</ele>
        <time>2022-05-24 09:43:17</time>
      </trkpt>
      <trkpt lat="41.17576" lon="0.89529">
        <ele>524.2</ele>
        <time>2022-05-24 09:43:18</time>
      </trkpt>
      <trkpt lat="41.17574" lon="0.89531">
        <ele>524.2</ele>
        <time>2022-05-24 09:43:19</time>
      </trkpt>
      <trkpt lat="41.17573" lon="0.89532">
        <ele>524.4</ele>
        <time>2022-05-24 09:43:20</time>
      </trkpt>
      <trkpt lat="41.17571" lon="0.89534">
        <ele>524.6</ele>
        <time>2022-05-24 09:43:21</time>
      </trkpt>
      <trkpt lat="41.1757" lon="0.89536">
        <ele>524.8</ele>
        <time>2022-05-24 09:43:22</time>
      </trkpt>
      <trkpt lat="41.17568" lon="0.89538">
        <ele>524.8</ele>
        <time>2022-05-24 09:43:23</time>
      </trkpt>
      <trkpt lat="41.17567" lon="0.8954">
        <ele>525</ele>
        <time>2022-05-24 09:43:24</time>
      </trkpt>
      <trkpt lat="41.17566" lon="0.89541">
        <ele>525.2</ele>
        <time>2022-05-24 09:43:25</time>
      </trkpt>
      <trkpt lat="41.17565" lon="0.89544">
        <ele>525.2</ele>
        <time>2022-05-24 09:43:26</time>
      </trkpt>
      <trkpt lat="41.17564" lon="0.89546">
        <ele>525.4</ele>
        <time>2022-05-24 09:43:27</time>
      </trkpt>
      <trkpt lat="41.17563" lon="0.89548">
        <ele>525.6</ele>
        <time>2022-05-24 09:43:28</time>
      </trkpt>
      <trkpt lat="41.17562" lon="0.8955">
        <ele>525.6</ele>
        <time>2022-05-24 09:43:29</time>
      </trkpt>
      <trkpt lat="41.17561" lon="0.89552">
        <ele>525.8</ele>
        <time>2022-05-24 09:43:30</time>
      </trkpt>
      <trkpt lat="41.17561" lon="0.89554">
        <ele>526</ele>
        <time>2022-05-24 09:43:31</time>
      </trkpt>
      <trkpt lat="41.1756" lon="0.89557">
        <ele>526</ele>
        <time>2022-05-24 09:43:32</time>
      </trkpt>
      <trkpt lat="41.1756" lon="0.89559">
        <ele>526.2</ele>
        <time>2022-05-24 09:43:33</time>
      </trkpt>
      <trkpt lat="41.1756" lon="0.89562">
        <ele>526.2</ele>
        <time>2022-05-24 09:43:34</time>
      </trkpt>
      <trkpt lat="41.17559" lon="0.89564">
        <ele>526.4</ele>
        <time>2022-05-24 09:43:35</time>
      </trkpt>
      <trkpt lat="41.17559" lon="0.89567">
        <ele>526.6</ele>
        <time>2022-05-24 09:43:36</time>
      </trkpt>
      <trkpt lat="41.1756" lon="0.89569">
        <ele>526.6</ele>
        <time>2022-05-24 09:43:37</time>
      </trkpt>
      <trkpt lat="41.1756" lon="0.89571">
        <ele>526.8</ele>
        <time>2022-05-24 09:43:38</time>
      </trkpt>
      <trkpt lat="41.17561" lon="0.89574">
        <ele>526.8</ele>
        <time>2022-05-24 09:43:39</time>
      </trkpt>
      <trkpt lat="41.17561" lon="0.89576">
        <ele>527</ele>
        <time>2022-05-24 09:43:40</time>
      </trkpt>
      <trkpt lat="41.17562" lon="0.89578">
        <ele>527</ele>
        <time>2022-05-24 09:43:41</time>
      </trkpt>
      <trkpt lat="41.17562" lon="0.89581">
        <ele>527.2</ele>
        <time>2022-05-24 09:43:42</time>
      </trkpt>
      <trkpt lat="41.17563" lon="0.89583">
        <ele>527.2</ele>
        <time>2022-05-24 09:43:43</time>
      </trkpt>
      <trkpt lat="41.17564" lon="0.89585">
        <ele>527.4</ele>
        <time>2022-05-24 09:43:44</time>
      </trkpt>
      <trkpt lat="41.17565" lon="0.89587">
        <ele>527.4</ele>
        <time>2022-05-24 09:43:45</time>
      </trkpt>
      <trkpt lat="41.17566" lon="0.89589">
        <ele>527.6</ele>
        <time>2022-05-24 09:43:46</time>
      </trkpt>
      <trkpt lat="41.17567" lon="0.89592">
        <ele>527.6</ele>
        <time>2022-05-24 09:43:47</time>
      </trkpt>
      <trkpt lat="41.17567" lon="0.89594">
        <ele>527.8</ele>
        <time>2022-05-24 09:43:48</time>
      </trkpt>
      <trkpt lat="41.17568" lon="0.89596">
        <ele>527.8</ele>
        <time>2022-05-24 09:43:49</time>
      </trkpt>
      <trkpt lat="41.17569" lon="0.89598">
        <ele>528</ele>
        <time>2022-05-24 09:43:50</time>
      </trkpt>
      <trkpt lat="41.1757" lon="0.896">
        <ele>528</ele>
        <time>2022-05-24 09:43:51</time>
      </trkpt>
      <trkpt lat="41.17571" lon="0.89602">
        <ele>528.2</ele>
        <time>2022-05-24 09:43:52</time>
      </trkpt>
      <trkpt lat="41.17572" lon="0.89604">
        <ele>528.4</ele>
        <time>2022-05-24 09:43:53</time>
      </trkpt>
      <trkpt lat="41.17574" lon="0.89606">
        <ele>528.4</ele>
        <time>2022-05-24 09:43:54</time>
      </trkpt>
      <trkpt lat="41.17574" lon="0.89608">
        <ele>528.6</ele>
        <time>2022-05-24 09:43:55</time>
      </trkpt>
      <trkpt lat="41.17575" lon="0.8961">
        <ele>528.6</ele>
        <time>2022-05-24 09:43:56</time>
      </trkpt>
      <trkpt lat="41.17576" lon="0.89612">
        <ele>528.8</ele>
        <time>2022-05-24 09:43:57</time>
      </trkpt>
      <trkpt lat="41.17577" lon="0.89614">
        <ele>529</ele>
        <time>2022-05-24 09:43:58</time>
      </trkpt>
      <trkpt lat="41.17578" lon="0.89617">
        <ele>529</ele>
        <time>2022-05-24 09:43:59</time>
      </trkpt>
      <trkpt lat="41.17579" lon="0.89618">
        <ele>529.2</ele>
        <time>2022-05-24 09:44:00</time>
      </trkpt>
      <trkpt lat="41.1758" lon="0.89621">
        <ele>529.4</ele>
        <time>2022-05-24 09:44:01</time>
      </trkpt>
      <trkpt lat="41.1758" lon="0.89623">
        <ele>529.4</ele>
        <time>2022-05-24 09:44:02</time>
      </trkpt>
      <trkpt lat="41.17581" lon="0.89625">
        <ele>529.6</ele>
        <time>2022-05-24 09:44:03</time>
      </trkpt>
      <trkpt lat="41.17582" lon="0.89628">
        <ele>529.6</ele>
        <time>2022-05-24 09:44:04</time>
      </trkpt>
      <trkpt lat="41.17583" lon="0.89631">
        <ele>529.8</ele>
        <time>2022-05-24 09:44:05</time>
      </trkpt>
      <trkpt lat="41.17583" lon="0.89633">
        <ele>530</ele>
        <time>2022-05-24 09:44:06</time>
      </trkpt>
      <trkpt lat="41.17583" lon="0.89636">
        <ele>530</ele>
        <time>2022-05-24 09:44:07</time>
      </trkpt>
      <trkpt lat="41.17583" lon="0.89638">
        <ele>530.2</ele>
        <time>2022-05-24 09:44:08</time>
      </trkpt>
      <trkpt lat="41.17582" lon="0.89641">
        <ele>530.2</ele>
        <time>2022-05-24 09:44:09</time>
      </trkpt>
      <trkpt lat="41.17582" lon="0.89643">
        <ele>530.4</ele>
        <time>2022-05-24 09:44:10</time>
      </trkpt>
      <trkpt lat="41.17581" lon="0.89646">
        <ele>530.6</ele>
        <time>2022-05-24 09:44:11</time>
      </trkpt>
      <trkpt lat="41.1758" lon="0.89648">
        <ele>530.6</ele>
        <time>2022-05-24 09:44:12</time>
      </trkpt>
      <trkpt lat="41.17578" lon="0.8965">
        <ele>530.8</ele>
        <time>2022-05-24 09:44:13</time>
      </trkpt>
      <trkpt lat="41.17577" lon="0.89653">
        <ele>530.8</ele>
        <time>2022-05-24 09:44:14</time>
      </trkpt>
      <trkpt lat="41.17576" lon="0.89654">
        <ele>531</ele>
        <time>2022-05-24 09:44:15</time>
      </trkpt>
      <trkpt lat="41.17576" lon="0.89657">
        <ele>531.2</ele>
        <time>2022-05-24 09:44:16</time>
      </trkpt>
      <trkpt lat="41.17575" lon="0.89659">
        <ele>531.2</ele>
        <time>2022-05-24 09:44:17</time>
      </trkpt>
      <trkpt lat="41.17573" lon="0.8966">
        <ele>531.4</ele>
        <time>2022-05-24 09:44:18</time>
      </trkpt>
      <trkpt lat="41.17572" lon="0.89662">
        <ele>531.6</ele>
        <time>2022-05-24 09:44:19</time>
      </trkpt>
      <trkpt lat="41.1757" lon="0.89664">
        <ele>531.6</ele>
        <time>2022-05-24 09:44:20</time>
      </trkpt>
      <trkpt lat="41.17569" lon="0.89664">
        <ele>531.8</ele>
        <time>2022-05-24 09:44:21</time>
      </trkpt>
      <trkpt lat="41.17567" lon="0.89665">
        <ele>531.8</ele>
        <time>2022-05-24 09:44:22</time>
      </trkpt>
      <trkpt lat="41.17565" lon="0.89666">
        <ele>532</ele>
        <time>2022-05-24 09:44:23</time>
      </trkpt>
      <trkpt lat="41.17563" lon="0.89666">
        <ele>532.2</ele>
        <time>2022-05-24 09:44:24</time>
      </trkpt>
      <trkpt lat="41.17561" lon="0.89666">
        <ele>532.2</ele>
        <time>2022-05-24 09:44:25</time>
      </trkpt>
      <trkpt lat="41.17559" lon="0.89667">
        <ele>532.4</ele>
        <time>2022-05-24 09:44:26</time>
      </trkpt>
      <trkpt lat="41.17558" lon="0.89667">
        <ele>532.4</ele>
        <time>2022-05-24 09:44:27</time>
      </trkpt>
      <trkpt lat="41.17556" lon="0.89668">
        <ele>532.6</ele>
        <time>2022-05-24 09:44:28</time>
      </trkpt>
      <trkpt lat="41.17554" lon="0.89668">
        <ele>532.8</ele>
        <time>2022-05-24 09:44:29</time>
      </trkpt>
      <trkpt lat="41.17553" lon="0.89667">
        <ele>532.8</ele>
        <time>2022-05-24 09:44:30</time>
      </trkpt>
      <trkpt lat="41.17551" lon="0.89667">
        <ele>533</ele>
        <time>2022-05-24 09:44:31</time>
      </trkpt>
      <trkpt lat="41.17549" lon="0.89667">
        <ele>533.2</ele>
        <time>2022-05-24 09:44:32</time>
      </trkpt>
      <trkpt lat="41.17548" lon="0.89667">
        <ele>533.2</ele>
        <time>2022-05-24 09:44:33</time>
      </trkpt>
      <trkpt lat="41.17546" lon="0.89667">
        <ele>533.4</ele>
        <time>2022-05-24 09:44:34</time>
      </trkpt>
      <trkpt lat="41.17544" lon="0.89667">
        <ele>533.6</ele>
        <time>2022-05-24 09:44:35</time>
      </trkpt>
      <trkpt lat="41.17543" lon="0.89668">
        <ele>533.6</ele>
        <time>2022-05-24 09:44:36</time>
      </trkpt>
      <trkpt lat="41.17541" lon="0.89668">
        <ele>533.8</ele>
        <time>2022-05-24 09:44:37</time>
      </trkpt>
      <trkpt lat="41.17539" lon="0.89668">
        <ele>534</ele>
        <time>2022-05-24 09:44:38</time>
      </trkpt>
      <trkpt lat="41.17538" lon="0.89668">
        <ele>534.2</ele>
        <time>2022-05-24 09:44:39</time>
      </trkpt>
      <trkpt lat="41.17536" lon="0.89669">
        <ele>534.4</ele>
        <time>2022-05-24 09:44:40</time>
      </trkpt>
      <trkpt lat="41.17534" lon="0.89669">
        <ele>534.6</ele>
        <time>2022-05-24 09:44:41</time>
      </trkpt>
      <trkpt lat="41.17532" lon="0.89669">
        <ele>534.8</ele>
        <time>2022-05-24 09:44:42</time>
      </trkpt>
      <trkpt lat="41.17531" lon="0.89669">
        <ele>534.8</ele>
        <time>2022-05-24 09:44:43</time>
      </trkpt>
      <trkpt lat="41.17529" lon="0.8967">
        <ele>535</ele>
        <time>2022-05-24 09:44:44</time>
      </trkpt>
      <trkpt lat="41.17527" lon="0.8967">
        <ele>535.2</ele>
        <time>2022-05-24 09:44:45</time>
      </trkpt>
      <trkpt lat="41.17525" lon="0.89671">
        <ele>535.4</ele>
        <time>2022-05-24 09:44:46</time>
      </trkpt>
      <trkpt lat="41.17524" lon="0.89671">
        <ele>535.6</ele>
        <time>2022-05-24 09:44:47</time>
      </trkpt>
      <trkpt lat="41.17522" lon="0.89672">
        <ele>535.6</ele>
        <time>2022-05-24 09:44:48</time>
      </trkpt>
      <trkpt lat="41.1752" lon="0.89672">
        <ele>535.8</ele>
        <time>2022-05-24 09:44:49</time>
      </trkpt>
      <trkpt lat="41.17518" lon="0.89673">
        <ele>536</ele>
        <time>2022-05-24 09:44:50</time>
      </trkpt>
      <trkpt lat="41.17516" lon="0.89675">
        <ele>536.2</ele>
        <time>2022-05-24 09:44:51</time>
      </trkpt>
      <trkpt lat="41.17515" lon="0.89676">
        <ele>536.4</ele>
        <time>2022-05-24 09:44:52</time>
      </trkpt>
      <trkpt lat="41.17513" lon="0.89677">
        <ele>536.4</ele>
        <time>2022-05-24 09:44:53</time>
      </trkpt>
      <trkpt lat="41.17512" lon="0.89678">
        <ele>536.6</ele>
        <time>2022-05-24 09:44:54</time>
      </trkpt>
      <trkpt lat="41.1751" lon="0.8968">
        <ele>536.8</ele>
        <time>2022-05-24 09:44:55</time>
      </trkpt>
      <trkpt lat="41.17509" lon="0.89681">
        <ele>537</ele>
        <time>2022-05-24 09:44:56</time>
      </trkpt>
      <trkpt lat="41.17507" lon="0.89683">
        <ele>537</ele>
        <time>2022-05-24 09:44:57</time>
      </trkpt>
      <trkpt lat="41.17506" lon="0.89685">
        <ele>537.2</ele>
        <time>2022-05-24 09:44:58</time>
      </trkpt>
      <trkpt lat="41.17505" lon="0.89687">
        <ele>537.4</ele>
        <time>2022-05-24 09:44:59</time>
      </trkpt>
      <trkpt lat="41.17503" lon="0.89689">
        <ele>537.4</ele>
        <time>2022-05-24 09:45:00</time>
      </trkpt>
      <trkpt lat="41.17502" lon="0.89691">
        <ele>537.6</ele>
        <time>2022-05-24 09:45:01</time>
      </trkpt>
      <trkpt lat="41.17501" lon="0.89693">
        <ele>537.8</ele>
        <time>2022-05-24 09:45:02</time>
      </trkpt>
      <trkpt lat="41.175" lon="0.89695">
        <ele>537.8</ele>
        <time>2022-05-24 09:45:03</time>
      </trkpt>
      <trkpt lat="41.17498" lon="0.89697">
        <ele>538</ele>
        <time>2022-05-24 09:45:04</time>
      </trkpt>
      <trkpt lat="41.17498" lon="0.897">
        <ele>538.2</ele>
        <time>2022-05-24 09:45:05</time>
      </trkpt>
      <trkpt lat="41.17496" lon="0.89702">
        <ele>538.2</ele>
        <time>2022-05-24 09:45:06</time>
      </trkpt>
      <trkpt lat="41.17495" lon="0.89704">
        <ele>538.4</ele>
        <time>2022-05-24 09:45:07</time>
      </trkpt>
      <trkpt lat="41.17494" lon="0.89706">
        <ele>538.4</ele>
        <time>2022-05-24 09:45:08</time>
      </trkpt>
      <trkpt lat="41.17493" lon="0.89708">
        <ele>538.6</ele>
        <time>2022-05-24 09:45:09</time>
      </trkpt>
      <trkpt lat="41.17492" lon="0.8971">
        <ele>538.6</ele>
        <time>2022-05-24 09:45:10</time>
      </trkpt>
      <trkpt lat="41.17491" lon="0.89712">
        <ele>538.8</ele>
        <time>2022-05-24 09:45:11</time>
      </trkpt>
      <trkpt lat="41.1749" lon="0.89715">
        <ele>539</ele>
        <time>2022-05-24 09:45:12</time>
      </trkpt>
      <trkpt lat="41.1749" lon="0.89717">
        <ele>539</ele>
        <time>2022-05-24 09:45:13</time>
      </trkpt>
      <trkpt lat="41.17489" lon="0.8972">
        <ele>539.2</ele>
        <time>2022-05-24 09:45:14</time>
      </trkpt>
      <trkpt lat="41.17488" lon="0.89723">
        <ele>539.4</ele>
        <time>2022-05-24 09:45:15</time>
      </trkpt>
      <trkpt lat="41.17488" lon="0.89725">
        <ele>539.4</ele>
        <time>2022-05-24 09:45:16</time>
      </trkpt>
      <trkpt lat="41.17488" lon="0.89728">
        <ele>539.6</ele>
        <time>2022-05-24 09:45:17</time>
      </trkpt>
      <trkpt lat="41.17488" lon="0.89731">
        <ele>539.8</ele>
        <time>2022-05-24 09:45:18</time>
      </trkpt>
      <trkpt lat="41.17487" lon="0.89733">
        <ele>540</ele>
        <time>2022-05-24 09:45:19</time>
      </trkpt>
      <trkpt lat="41.17487" lon="0.89736">
        <ele>540</ele>
        <time>2022-05-24 09:45:20</time>
      </trkpt>
      <trkpt lat="41.17486" lon="0.89739">
        <ele>540.2</ele>
        <time>2022-05-24 09:45:21</time>
      </trkpt>
      <trkpt lat="41.17486" lon="0.89742">
        <ele>540.4</ele>
        <time>2022-05-24 09:45:22</time>
      </trkpt>
      <trkpt lat="41.17485" lon="0.89744">
        <ele>540.6</ele>
        <time>2022-05-24 09:45:23</time>
      </trkpt>
      <trkpt lat="41.17485" lon="0.89747">
        <ele>540.6</ele>
        <time>2022-05-24 09:45:24</time>
      </trkpt>
      <trkpt lat="41.17484" lon="0.8975">
        <ele>540.8</ele>
        <time>2022-05-24 09:45:25</time>
      </trkpt>
      <trkpt lat="41.17484" lon="0.89753">
        <ele>541</ele>
        <time>2022-05-24 09:45:26</time>
      </trkpt>
      <trkpt lat="41.17484" lon="0.89755">
        <ele>541</ele>
        <time>2022-05-24 09:45:27</time>
      </trkpt>
      <trkpt lat="41.17483" lon="0.89759">
        <ele>541.2</ele>
        <time>2022-05-24 09:45:28</time>
      </trkpt>
      <trkpt lat="41.17482" lon="0.89761">
        <ele>541.4</ele>
        <time>2022-05-24 09:45:29</time>
      </trkpt>
      <trkpt lat="41.17482" lon="0.89764">
        <ele>541.6</ele>
        <time>2022-05-24 09:45:30</time>
      </trkpt>
      <trkpt lat="41.17482" lon="0.89767">
        <ele>541.6</ele>
        <time>2022-05-24 09:45:31</time>
      </trkpt>
      <trkpt lat="41.17481" lon="0.8977">
        <ele>541.8</ele>
        <time>2022-05-24 09:45:32</time>
      </trkpt>
      <trkpt lat="41.1748" lon="0.89773">
        <ele>542</ele>
        <time>2022-05-24 09:45:33</time>
      </trkpt>
      <trkpt lat="41.1748" lon="0.89776">
        <ele>542.2</ele>
        <time>2022-05-24 09:45:34</time>
      </trkpt>
      <trkpt lat="41.17479" lon="0.89779">
        <ele>542.2</ele>
        <time>2022-05-24 09:45:35</time>
      </trkpt>
      <trkpt lat="41.17479" lon="0.89782">
        <ele>542.4</ele>
        <time>2022-05-24 09:45:36</time>
      </trkpt>
      <trkpt lat="41.17479" lon="0.89785">
        <ele>542.6</ele>
        <time>2022-05-24 09:45:37</time>
      </trkpt>
      <trkpt lat="41.17479" lon="0.89788">
        <ele>542.8</ele>
        <time>2022-05-24 09:45:38</time>
      </trkpt>
      <trkpt lat="41.17479" lon="0.89791">
        <ele>543</ele>
        <time>2022-05-24 09:45:39</time>
      </trkpt>
      <trkpt lat="41.17478" lon="0.89794">
        <ele>543.2</ele>
        <time>2022-05-24 09:45:40</time>
      </trkpt>
      <trkpt lat="41.17477" lon="0.89797">
        <ele>543.4</ele>
        <time>2022-05-24 09:45:41</time>
      </trkpt>
      <trkpt lat="41.17477" lon="0.898">
        <ele>543.6</ele>
        <time>2022-05-24 09:45:42</time>
      </trkpt>
      <trkpt lat="41.17476" lon="0.89802">
        <ele>543.8</ele>
        <time>2022-05-24 09:45:43</time>
      </trkpt>
      <trkpt lat="41.17476" lon="0.89805">
        <ele>544</ele>
        <time>2022-05-24 09:45:44</time>
      </trkpt>
      <trkpt lat="41.17474" lon="0.89808">
        <ele>544.2</ele>
        <time>2022-05-24 09:45:45</time>
      </trkpt>
      <trkpt lat="41.17474" lon="0.89811">
        <ele>544.4</ele>
        <time>2022-05-24 09:45:46</time>
      </trkpt>
      <trkpt lat="41.17473" lon="0.89813">
        <ele>544.4</ele>
        <time>2022-05-24 09:45:47</time>
      </trkpt>
      <trkpt lat="41.17471" lon="0.89816">
        <ele>544.6</ele>
        <time>2022-05-24 09:45:48</time>
      </trkpt>
      <trkpt lat="41.1747" lon="0.89818">
        <ele>544.8</ele>
        <time>2022-05-24 09:45:49</time>
      </trkpt>
      <trkpt lat="41.17469" lon="0.89821">
        <ele>545</ele>
        <time>2022-05-24 09:45:50</time>
      </trkpt>
      <trkpt lat="41.17467" lon="0.89823">
        <ele>545.2</ele>
        <time>2022-05-24 09:45:51</time>
      </trkpt>
      <trkpt lat="41.17466" lon="0.89826">
        <ele>545.4</ele>
        <time>2022-05-24 09:45:52</time>
      </trkpt>
      <trkpt lat="41.17465" lon="0.89829">
        <ele>545.4</ele>
        <time>2022-05-24 09:45:53</time>
      </trkpt>
      <trkpt lat="41.17464" lon="0.89831">
        <ele>545.6</ele>
        <time>2022-05-24 09:45:54</time>
      </trkpt>
      <trkpt lat="41.17463" lon="0.89834">
        <ele>545.8</ele>
        <time>2022-05-24 09:45:55</time>
      </trkpt>
      <trkpt lat="41.17461" lon="0.89837">
        <ele>546</ele>
        <time>2022-05-24 09:45:56</time>
      </trkpt>
      <trkpt lat="41.1746" lon="0.89839">
        <ele>546.2</ele>
        <time>2022-05-24 09:45:57</time>
      </trkpt>
      <trkpt lat="41.17459" lon="0.89842">
        <ele>546.4</ele>
        <time>2022-05-24 09:45:58</time>
      </trkpt>
      <trkpt lat="41.17458" lon="0.89845">
        <ele>546.4</ele>
        <time>2022-05-24 09:45:59</time>
      </trkpt>
      <trkpt lat="41.17457" lon="0.89847">
        <ele>546.6</ele>
        <time>2022-05-24 09:46:00</time>
      </trkpt>
      <trkpt lat="41.17455" lon="0.8985">
        <ele>546.6</ele>
        <time>2022-05-24 09:46:01</time>
      </trkpt>
      <trkpt lat="41.17453" lon="0.89852">
        <ele>546.6</ele>
        <time>2022-05-24 09:46:02</time>
      </trkpt>
      <trkpt lat="41.17451" lon="0.89854">
        <ele>546.8</ele>
        <time>2022-05-24 09:46:03</time>
      </trkpt>
      <trkpt lat="41.1745" lon="0.89856">
        <ele>546.8</ele>
        <time>2022-05-24 09:46:04</time>
      </trkpt>
      <trkpt lat="41.17449" lon="0.89858">
        <ele>547</ele>
        <time>2022-05-24 09:46:05</time>
      </trkpt>
      <trkpt lat="41.17447" lon="0.8986">
        <ele>547</ele>
        <time>2022-05-24 09:46:06</time>
      </trkpt>
      <trkpt lat="41.17447" lon="0.89863">
        <ele>547.2</ele>
        <time>2022-05-24 09:46:07</time>
      </trkpt>
      <trkpt lat="41.17447" lon="0.89866">
        <ele>547.2</ele>
        <time>2022-05-24 09:46:08</time>
      </trkpt>
      <trkpt lat="41.17445" lon="0.89869">
        <ele>547.2</ele>
        <time>2022-05-24 09:46:09</time>
      </trkpt>
      <trkpt lat="41.17444" lon="0.89873">
        <ele>547.4</ele>
        <time>2022-05-24 09:46:10</time>
      </trkpt>
      <trkpt lat="41.17443" lon="0.89876">
        <ele>547.4</ele>
        <time>2022-05-24 09:46:11</time>
      </trkpt>
      <trkpt lat="41.17441" lon="0.8988">
        <ele>547.4</ele>
        <time>2022-05-24 09:46:12</time>
      </trkpt>
      <trkpt lat="41.1744" lon="0.89883">
        <ele>547.4</ele>
        <time>2022-05-24 09:46:13</time>
      </trkpt>
      <trkpt lat="41.17437" lon="0.89887">
        <ele>547.2</ele>
        <time>2022-05-24 09:46:14</time>
      </trkpt>
      <trkpt lat="41.17435" lon="0.89891">
        <ele>547.2</ele>
        <time>2022-05-24 09:46:15</time>
      </trkpt>
      <trkpt lat="41.17432" lon="0.89893">
        <ele>547.2</ele>
        <time>2022-05-24 09:46:16</time>
      </trkpt>
      <trkpt lat="41.17429" lon="0.89894">
        <ele>547.4</ele>
        <time>2022-05-24 09:46:17</time>
      </trkpt>
      <trkpt lat="41.17426" lon="0.89894">
        <ele>547.4</ele>
        <time>2022-05-24 09:46:18</time>
      </trkpt>
      <trkpt lat="41.17424" lon="0.89893">
        <ele>547.6</ele>
        <time>2022-05-24 09:46:19</time>
      </trkpt>
      <trkpt lat="41.17422" lon="0.89891">
        <ele>547.6</ele>
        <time>2022-05-24 09:46:20</time>
      </trkpt>
      <trkpt lat="41.17421" lon="0.89888">
        <ele>547.6</ele>
        <time>2022-05-24 09:46:21</time>
      </trkpt>
      <trkpt lat="41.17419" lon="0.89885">
        <ele>547.4</ele>
        <time>2022-05-24 09:46:22</time>
      </trkpt>
      <trkpt lat="41.17418" lon="0.8988">
        <ele>547.4</ele>
        <time>2022-05-24 09:46:23</time>
      </trkpt>
      <trkpt lat="41.17416" lon="0.89875">
        <ele>547.4</ele>
        <time>2022-05-24 09:46:24</time>
      </trkpt>
      <trkpt lat="41.17415" lon="0.8987">
        <ele>547.4</ele>
        <time>2022-05-24 09:46:25</time>
      </trkpt>
      <trkpt lat="41.17414" lon="0.89866">
        <ele>547.4</ele>
        <time>2022-05-24 09:46:26</time>
      </trkpt>
      <trkpt lat="41.17413" lon="0.8986">
        <ele>547.4</ele>
        <time>2022-05-24 09:46:27</time>
      </trkpt>
      <trkpt lat="41.17411" lon="0.89855">
        <ele>547.4</ele>
        <time>2022-05-24 09:46:28</time>
      </trkpt>
      <trkpt lat="41.17409" lon="0.8985">
        <ele>547.4</ele>
        <time>2022-05-24 09:46:29</time>
      </trkpt>
      <trkpt lat="41.17407" lon="0.89845">
        <ele>547.6</ele>
        <time>2022-05-24 09:46:30</time>
      </trkpt>
      <trkpt lat="41.17405" lon="0.8984">
        <ele>547.6</ele>
        <time>2022-05-24 09:46:31</time>
      </trkpt>
      <trkpt lat="41.17403" lon="0.89837">
        <ele>547.6</ele>
        <time>2022-05-24 09:46:32</time>
      </trkpt>
      <trkpt lat="41.174" lon="0.89832">
        <ele>547.6</ele>
        <time>2022-05-24 09:46:33</time>
      </trkpt>
      <trkpt lat="41.17397" lon="0.89828">
        <ele>547.6</ele>
        <time>2022-05-24 09:46:34</time>
      </trkpt>
      <trkpt lat="41.17394" lon="0.89825">
        <ele>547.8</ele>
        <time>2022-05-24 09:46:35</time>
      </trkpt>
      <trkpt lat="41.17392" lon="0.89821">
        <ele>547.8</ele>
        <time>2022-05-24 09:46:36</time>
      </trkpt>
      <trkpt lat="41.17389" lon="0.89817">
        <ele>547.8</ele>
        <time>2022-05-24 09:46:37</time>
      </trkpt>
      <trkpt lat="41.17386" lon="0.89813">
        <ele>547.8</ele>
        <time>2022-05-24 09:46:38</time>
      </trkpt>
      <trkpt lat="41.17384" lon="0.89809">
        <ele>547.8</ele>
        <time>2022-05-24 09:46:39</time>
      </trkpt>
      <trkpt lat="41.17381" lon="0.89806">
        <ele>547.8</ele>
        <time>2022-05-24 09:46:40</time>
      </trkpt>
      <trkpt lat="41.17378" lon="0.89802">
        <ele>548</ele>
        <time>2022-05-24 09:46:41</time>
      </trkpt>
      <trkpt lat="41.17376" lon="0.89798">
        <ele>548</ele>
        <time>2022-05-24 09:46:42</time>
      </trkpt>
      <trkpt lat="41.17373" lon="0.89794">
        <ele>548</ele>
        <time>2022-05-24 09:46:43</time>
      </trkpt>
      <trkpt lat="41.1737" lon="0.8979">
        <ele>548</ele>
        <time>2022-05-24 09:46:44</time>
      </trkpt>
      <trkpt lat="41.17368" lon="0.89787">
        <ele>548</ele>
        <time>2022-05-24 09:46:45</time>
      </trkpt>
      <trkpt lat="41.17365" lon="0.89782">
        <ele>548</ele>
        <time>2022-05-24 09:46:46</time>
      </trkpt>
      <trkpt lat="41.17363" lon="0.89778">
        <ele>548</ele>
        <time>2022-05-24 09:46:47</time>
      </trkpt>
      <trkpt lat="41.17361" lon="0.89774">
        <ele>548</ele>
        <time>2022-05-24 09:46:48</time>
      </trkpt>
      <trkpt lat="41.17358" lon="0.89769">
        <ele>548</ele>
        <time>2022-05-24 09:46:49</time>
      </trkpt>
      <trkpt lat="41.17357" lon="0.89765">
        <ele>547.8</ele>
        <time>2022-05-24 09:46:50</time>
      </trkpt>
      <trkpt lat="41.17355" lon="0.8976">
        <ele>548</ele>
        <time>2022-05-24 09:46:51</time>
      </trkpt>
      <trkpt lat="41.17353" lon="0.89755">
        <ele>548</ele>
        <time>2022-05-24 09:46:52</time>
      </trkpt>
      <trkpt lat="41.17352" lon="0.89751">
        <ele>548</ele>
        <time>2022-05-24 09:46:53</time>
      </trkpt>
      <trkpt lat="41.17351" lon="0.89746">
        <ele>547.8</ele>
        <time>2022-05-24 09:46:54</time>
      </trkpt>
      <trkpt lat="41.17349" lon="0.89741">
        <ele>547.8</ele>
        <time>2022-05-24 09:46:55</time>
      </trkpt>
      <trkpt lat="41.17349" lon="0.89736">
        <ele>547.8</ele>
        <time>2022-05-24 09:46:56</time>
      </trkpt>
      <trkpt lat="41.17348" lon="0.89731">
        <ele>547.8</ele>
        <time>2022-05-24 09:46:57</time>
      </trkpt>
      <trkpt lat="41.17347" lon="0.89726">
        <ele>548</ele>
        <time>2022-05-24 09:46:58</time>
      </trkpt>
      <trkpt lat="41.17346" lon="0.89721">
        <ele>548</ele>
        <time>2022-05-24 09:46:59</time>
      </trkpt>
      <trkpt lat="41.17346" lon="0.89716">
        <ele>548</ele>
        <time>2022-05-24 09:47:00</time>
      </trkpt>
      <trkpt lat="41.17345" lon="0.89711">
        <ele>548</ele>
        <time>2022-05-24 09:47:01</time>
      </trkpt>
      <trkpt lat="41.17345" lon="0.89706">
        <ele>548.2</ele>
        <time>2022-05-24 09:47:02</time>
      </trkpt>
      <trkpt lat="41.17344" lon="0.89701">
        <ele>548.2</ele>
        <time>2022-05-24 09:47:03</time>
      </trkpt>
      <trkpt lat="41.17344" lon="0.89696">
        <ele>548.2</ele>
        <time>2022-05-24 09:47:04</time>
      </trkpt>
      <trkpt lat="41.17344" lon="0.89692">
        <ele>548.2</ele>
        <time>2022-05-24 09:47:05</time>
      </trkpt>
      <trkpt lat="41.17343" lon="0.89687">
        <ele>548.4</ele>
        <time>2022-05-24 09:47:06</time>
      </trkpt>
      <trkpt lat="41.17343" lon="0.89682">
        <ele>548.4</ele>
        <time>2022-05-24 09:47:07</time>
      </trkpt>
      <trkpt lat="41.17343" lon="0.89678">
        <ele>548.6</ele>
        <time>2022-05-24 09:47:08</time>
      </trkpt>
      <trkpt lat="41.17342" lon="0.89673">
        <ele>548.8</ele>
        <time>2022-05-24 09:47:09</time>
      </trkpt>
      <trkpt lat="41.17342" lon="0.89668">
        <ele>548.8</ele>
        <time>2022-05-24 09:47:10</time>
      </trkpt>
      <trkpt lat="41.17342" lon="0.89664">
        <ele>549</ele>
        <time>2022-05-24 09:47:11</time>
      </trkpt>
      <trkpt lat="41.17342" lon="0.89659">
        <ele>549</ele>
        <time>2022-05-24 09:47:12</time>
      </trkpt>
      <trkpt lat="41.17341" lon="0.89655">
        <ele>549.2</ele>
        <time>2022-05-24 09:47:13</time>
      </trkpt>
      <trkpt lat="41.17341" lon="0.89651">
        <ele>549.4</ele>
        <time>2022-05-24 09:47:14</time>
      </trkpt>
      <trkpt lat="41.1734" lon="0.89646">
        <ele>549.4</ele>
        <time>2022-05-24 09:47:15</time>
      </trkpt>
      <trkpt lat="41.1734" lon="0.89642">
        <ele>549.6</ele>
        <time>2022-05-24 09:47:16</time>
      </trkpt>
      <trkpt lat="41.1734" lon="0.89638">
        <ele>549.8</ele>
        <time>2022-05-24 09:47:17</time>
      </trkpt>
      <trkpt lat="41.1734" lon="0.89633">
        <ele>549.8</ele>
        <time>2022-05-24 09:47:18</time>
      </trkpt>
      <trkpt lat="41.1734" lon="0.89628">
        <ele>550</ele>
        <time>2022-05-24 09:47:19</time>
      </trkpt>
      <trkpt lat="41.1734" lon="0.89624">
        <ele>550.2</ele>
        <time>2022-05-24 09:47:20</time>
      </trkpt>
      <trkpt lat="41.1734" lon="0.89619">
        <ele>550.2</ele>
        <time>2022-05-24 09:47:21</time>
      </trkpt>
      <trkpt lat="41.17339" lon="0.89614">
        <ele>550.4</ele>
        <time>2022-05-24 09:47:22</time>
      </trkpt>
      <trkpt lat="41.17339" lon="0.8961">
        <ele>550.6</ele>
        <time>2022-05-24 09:47:23</time>
      </trkpt>
      <trkpt lat="41.17339" lon="0.89605">
        <ele>550.8</ele>
        <time>2022-05-24 09:47:24</time>
      </trkpt>
      <trkpt lat="41.17339" lon="0.896">
        <ele>550.8</ele>
        <time>2022-05-24 09:47:25</time>
      </trkpt>
      <trkpt lat="41.17339" lon="0.89596">
        <ele>551</ele>
        <time>2022-05-24 09:47:26</time>
      </trkpt>
      <trkpt lat="41.17338" lon="0.8959">
        <ele>551.2</ele>
        <time>2022-05-24 09:47:27</time>
      </trkpt>
      <trkpt lat="41.17338" lon="0.89586">
        <ele>551.4</ele>
        <time>2022-05-24 09:47:28</time>
      </trkpt>
      <trkpt lat="41.17337" lon="0.89581">
        <ele>551.6</ele>
        <time>2022-05-24 09:47:29</time>
      </trkpt>
      <trkpt lat="41.17337" lon="0.89576">
        <ele>551.8</ele>
        <time>2022-05-24 09:47:30</time>
      </trkpt>
      <trkpt lat="41.17337" lon="0.89571">
        <ele>551.8</ele>
        <time>2022-05-24 09:47:31</time>
      </trkpt>
      <trkpt lat="41.17336" lon="0.89565">
        <ele>552</ele>
        <time>2022-05-24 09:47:32</time>
      </trkpt>
      <trkpt lat="41.17336" lon="0.8956">
        <ele>552.2</ele>
        <time>2022-05-24 09:47:33</time>
      </trkpt>
      <trkpt lat="41.17335" lon="0.89555">
        <ele>552.2</ele>
        <time>2022-05-24 09:47:34</time>
      </trkpt>
      <trkpt lat="41.17335" lon="0.8955">
        <ele>552.4</ele>
        <time>2022-05-24 09:47:35</time>
      </trkpt>
      <trkpt lat="41.17334" lon="0.89545">
        <ele>552.4</ele>
        <time>2022-05-24 09:47:36</time>
      </trkpt>
      <trkpt lat="41.17333" lon="0.8954">
        <ele>552.6</ele>
        <time>2022-05-24 09:47:37</time>
      </trkpt>
      <trkpt lat="41.17332" lon="0.89534">
        <ele>552.6</ele>
        <time>2022-05-24 09:47:38</time>
      </trkpt>
      <trkpt lat="41.17331" lon="0.89529">
        <ele>552.8</ele>
        <time>2022-05-24 09:47:39</time>
      </trkpt>
      <trkpt lat="41.17331" lon="0.89524">
        <ele>552.8</ele>
        <time>2022-05-24 09:47:40</time>
      </trkpt>
      <trkpt lat="41.1733" lon="0.8952">
        <ele>553</ele>
        <time>2022-05-24 09:47:41</time>
      </trkpt>
      <trkpt lat="41.17329" lon="0.89515">
        <ele>553</ele>
        <time>2022-05-24 09:47:42</time>
      </trkpt>
      <trkpt lat="41.17328" lon="0.89511">
        <ele>553</ele>
        <time>2022-05-24 09:47:43</time>
      </trkpt>
      <trkpt lat="41.17328" lon="0.89507">
        <ele>553.2</ele>
        <time>2022-05-24 09:47:44</time>
      </trkpt>
      <trkpt lat="41.17327" lon="0.89502">
        <ele>553.2</ele>
        <time>2022-05-24 09:47:45</time>
      </trkpt>
      <trkpt lat="41.17326" lon="0.89498">
        <ele>553.4</ele>
        <time>2022-05-24 09:47:46</time>
      </trkpt>
      <trkpt lat="41.17326" lon="0.89494">
        <ele>553.6</ele>
        <time>2022-05-24 09:47:47</time>
      </trkpt>
      <trkpt lat="41.17325" lon="0.89489">
        <ele>553.6</ele>
        <time>2022-05-24 09:47:48</time>
      </trkpt>
      <trkpt lat="41.17324" lon="0.89486">
        <ele>553.8</ele>
        <time>2022-05-24 09:47:49</time>
      </trkpt>
      <trkpt lat="41.17323" lon="0.89482">
        <ele>554</ele>
        <time>2022-05-24 09:47:50</time>
      </trkpt>
      <trkpt lat="41.17321" lon="0.89477">
        <ele>554</ele>
        <time>2022-05-24 09:47:51</time>
      </trkpt>
      <trkpt lat="41.17321" lon="0.89473">
        <ele>554.2</ele>
        <time>2022-05-24 09:47:52</time>
      </trkpt>
      <trkpt lat="41.1732" lon="0.8947">
        <ele>554.4</ele>
        <time>2022-05-24 09:47:53</time>
      </trkpt>
      <trkpt lat="41.17318" lon="0.89466">
        <ele>554.4</ele>
        <time>2022-05-24 09:47:54</time>
      </trkpt>
      <trkpt lat="41.17317" lon="0.89462">
        <ele>554.4</ele>
        <time>2022-05-24 09:47:55</time>
      </trkpt>
      <trkpt lat="41.17316" lon="0.89458">
        <ele>554.6</ele>
        <time>2022-05-24 09:47:56</time>
      </trkpt>
      <trkpt lat="41.17315" lon="0.89454">
        <ele>554.6</ele>
        <time>2022-05-24 09:47:57</time>
      </trkpt>
      <trkpt lat="41.17314" lon="0.8945">
        <ele>554.8</ele>
        <time>2022-05-24 09:47:58</time>
      </trkpt>
      <trkpt lat="41.17313" lon="0.89446">
        <ele>554.8</ele>
        <time>2022-05-24 09:47:59</time>
      </trkpt>
      <trkpt lat="41.17312" lon="0.89442">
        <ele>555</ele>
        <time>2022-05-24 09:48:00</time>
      </trkpt>
      <trkpt lat="41.17311" lon="0.89438">
        <ele>555.2</ele>
        <time>2022-05-24 09:48:01</time>
      </trkpt>
      <trkpt lat="41.1731" lon="0.89434">
        <ele>555.2</ele>
        <time>2022-05-24 09:48:02</time>
      </trkpt>
      <trkpt lat="41.17308" lon="0.89431">
        <ele>555.4</ele>
        <time>2022-05-24 09:48:03</time>
      </trkpt>
      <trkpt lat="41.17307" lon="0.89427">
        <ele>555.4</ele>
        <time>2022-05-24 09:48:04</time>
      </trkpt>
      <trkpt lat="41.17306" lon="0.89423">
        <ele>555.6</ele>
        <time>2022-05-24 09:48:05</time>
      </trkpt>
      <trkpt lat="41.17304" lon="0.89419">
        <ele>555.8</ele>
        <time>2022-05-24 09:48:06</time>
      </trkpt>
      <trkpt lat="41.17303" lon="0.89415">
        <ele>555.8</ele>
        <time>2022-05-24 09:48:07</time>
      </trkpt>
      <trkpt lat="41.17301" lon="0.89412">
        <ele>556</ele>
        <time>2022-05-24 09:48:08</time>
      </trkpt>
      <trkpt lat="41.173" lon="0.89408">
        <ele>556.2</ele>
        <time>2022-05-24 09:48:09</time>
      </trkpt>
      <trkpt lat="41.17299" lon="0.89404">
        <ele>556.2</ele>
        <time>2022-05-24 09:48:10</time>
      </trkpt>
      <trkpt lat="41.17297" lon="0.894">
        <ele>556.4</ele>
        <time>2022-05-24 09:48:11</time>
      </trkpt>
      <trkpt lat="41.17297" lon="0.89397">
        <ele>556.6</ele>
        <time>2022-05-24 09:48:12</time>
      </trkpt>
      <trkpt lat="41.17295" lon="0.89395">
        <ele>556.6</ele>
        <time>2022-05-24 09:48:13</time>
      </trkpt>
      <trkpt lat="41.17294" lon="0.89392">
        <ele>556.8</ele>
        <time>2022-05-24 09:48:14</time>
      </trkpt>
      <trkpt lat="41.17293" lon="0.8939">
        <ele>557</ele>
        <time>2022-05-24 09:48:15</time>
      </trkpt>
      <trkpt lat="41.17291" lon="0.89388">
        <ele>557.2</ele>
        <time>2022-05-24 09:48:16</time>
      </trkpt>
      <trkpt lat="41.17289" lon="0.89385">
        <ele>557.2</ele>
        <time>2022-05-24 09:48:17</time>
      </trkpt>
      <trkpt lat="41.17287" lon="0.89382">
        <ele>557.4</ele>
        <time>2022-05-24 09:48:18</time>
      </trkpt>
      <trkpt lat="41.17285" lon="0.89379">
        <ele>557.6</ele>
        <time>2022-05-24 09:48:19</time>
      </trkpt>
      <trkpt lat="41.17282" lon="0.89376">
        <ele>557.6</ele>
        <time>2022-05-24 09:48:20</time>
      </trkpt>
      <trkpt lat="41.17281" lon="0.89373">
        <ele>557.8</ele>
        <time>2022-05-24 09:48:21</time>
      </trkpt>
      <trkpt lat="41.17279" lon="0.89371">
        <ele>557.8</ele>
        <time>2022-05-24 09:48:22</time>
      </trkpt>
      <trkpt lat="41.17278" lon="0.89367">
        <ele>558</ele>
        <time>2022-05-24 09:48:23</time>
      </trkpt>
      <trkpt lat="41.17276" lon="0.89364">
        <ele>558.2</ele>
        <time>2022-05-24 09:48:24</time>
      </trkpt>
      <trkpt lat="41.17275" lon="0.89361">
        <ele>558.2</ele>
        <time>2022-05-24 09:48:25</time>
      </trkpt>
      <trkpt lat="41.17273" lon="0.89358">
        <ele>558.4</ele>
        <time>2022-05-24 09:48:26</time>
      </trkpt>
      <trkpt lat="41.17271" lon="0.89355">
        <ele>558.4</ele>
        <time>2022-05-24 09:48:27</time>
      </trkpt>
      <trkpt lat="41.17268" lon="0.89353">
        <ele>558.6</ele>
        <time>2022-05-24 09:48:28</time>
      </trkpt>
      <trkpt lat="41.17264" lon="0.89351">
        <ele>558.6</ele>
        <time>2022-05-24 09:48:29</time>
      </trkpt>
      <trkpt lat="41.17265" lon="0.89347">
        <ele>558.8</ele>
        <time>2022-05-24 09:48:30</time>
      </trkpt>
      <trkpt lat="41.17263" lon="0.89344">
        <ele>558.8</ele>
        <time>2022-05-24 09:48:31</time>
      </trkpt>
      <trkpt lat="41.17261" lon="0.8934">
        <ele>558.8</ele>
        <time>2022-05-24 09:48:32</time>
      </trkpt>
      <trkpt lat="41.17259" lon="0.89337">
        <ele>559</ele>
        <time>2022-05-24 09:48:33</time>
      </trkpt>
      <trkpt lat="41.17258" lon="0.89334">
        <ele>559</ele>
        <time>2022-05-24 09:48:34</time>
      </trkpt>
      <trkpt lat="41.17256" lon="0.8933">
        <ele>559.2</ele>
        <time>2022-05-24 09:48:35</time>
      </trkpt>
      <trkpt lat="41.17254" lon="0.89325">
        <ele>559.2</ele>
        <time>2022-05-24 09:48:36</time>
      </trkpt>
      <trkpt lat="41.17252" lon="0.89323">
        <ele>559.2</ele>
        <time>2022-05-24 09:48:37</time>
      </trkpt>
      <trkpt lat="41.1725" lon="0.89321">
        <ele>559.4</ele>
        <time>2022-05-24 09:48:38</time>
      </trkpt>
      <trkpt lat="41.17248" lon="0.89316">
        <ele>559.6</ele>
        <time>2022-05-24 09:48:39</time>
      </trkpt>
      <trkpt lat="41.17245" lon="0.89313">
        <ele>559.6</ele>
        <time>2022-05-24 09:48:40</time>
      </trkpt>
      <trkpt lat="41.17243" lon="0.89309">
        <ele>559.6</ele>
        <time>2022-05-24 09:48:41</time>
      </trkpt>
      <trkpt lat="41.17241" lon="0.89306">
        <ele>559.8</ele>
        <time>2022-05-24 09:48:42</time>
      </trkpt>
      <trkpt lat="41.17238" lon="0.89303">
        <ele>559.8</ele>
        <time>2022-05-24 09:48:43</time>
      </trkpt>
      <trkpt lat="41.17236" lon="0.893">
        <ele>560</ele>
        <time>2022-05-24 09:48:44</time>
      </trkpt>
      <trkpt lat="41.17234" lon="0.89298">
        <ele>560</ele>
        <time>2022-05-24 09:48:45</time>
      </trkpt>
      <trkpt lat="41.17231" lon="0.89295">
        <ele>560.2</ele>
        <time>2022-05-24 09:48:46</time>
      </trkpt>
      <trkpt lat="41.17229" lon="0.89293">
        <ele>560.2</ele>
        <time>2022-05-24 09:48:47</time>
      </trkpt>
      <trkpt lat="41.17226" lon="0.8929">
        <ele>560.4</ele>
        <time>2022-05-24 09:48:48</time>
      </trkpt>
      <trkpt lat="41.17224" lon="0.89288">
        <ele>560.4</ele>
        <time>2022-05-24 09:48:49</time>
      </trkpt>
      <trkpt lat="41.17222" lon="0.89285">
        <ele>560.6</ele>
        <time>2022-05-24 09:48:50</time>
      </trkpt>
      <trkpt lat="41.1722" lon="0.89283">
        <ele>560.6</ele>
        <time>2022-05-24 09:48:51</time>
      </trkpt>
      <trkpt lat="41.17218" lon="0.89281">
        <ele>560.8</ele>
        <time>2022-05-24 09:48:52</time>
      </trkpt>
      <trkpt lat="41.17215" lon="0.89278">
        <ele>560.8</ele>
        <time>2022-05-24 09:48:53</time>
      </trkpt>
      <trkpt lat="41.17213" lon="0.89276">
        <ele>561</ele>
        <time>2022-05-24 09:48:54</time>
      </trkpt>
      <trkpt lat="41.1721" lon="0.89274">
        <ele>561</ele>
        <time>2022-05-24 09:48:55</time>
      </trkpt>
      <trkpt lat="41.17208" lon="0.89271">
        <ele>561</ele>
        <time>2022-05-24 09:48:56</time>
      </trkpt>
      <trkpt lat="41.17205" lon="0.89269">
        <ele>561.2</ele>
        <time>2022-05-24 09:48:57</time>
      </trkpt>
      <trkpt lat="41.17203" lon="0.89266">
        <ele>561.4</ele>
        <time>2022-05-24 09:48:58</time>
      </trkpt>
      <trkpt lat="41.172" lon="0.89263">
        <ele>561.4</ele>
        <time>2022-05-24 09:48:59</time>
      </trkpt>
      <trkpt lat="41.17198" lon="0.8926">
        <ele>561.6</ele>
        <time>2022-05-24 09:49:00</time>
      </trkpt>
      <trkpt lat="41.17196" lon="0.89257">
        <ele>561.6</ele>
        <time>2022-05-24 09:49:01</time>
      </trkpt>
      <trkpt lat="41.17193" lon="0.89255">
        <ele>561.8</ele>
        <time>2022-05-24 09:49:02</time>
      </trkpt>
      <trkpt lat="41.17191" lon="0.89251">
        <ele>561.8</ele>
        <time>2022-05-24 09:49:03</time>
      </trkpt>
      <trkpt lat="41.17188" lon="0.89249">
        <ele>562</ele>
        <time>2022-05-24 09:49:04</time>
      </trkpt>
      <trkpt lat="41.17185" lon="0.89246">
        <ele>562</ele>
        <time>2022-05-24 09:49:05</time>
      </trkpt>
      <trkpt lat="41.17183" lon="0.89243">
        <ele>562.2</ele>
        <time>2022-05-24 09:49:06</time>
      </trkpt>
      <trkpt lat="41.1718" lon="0.89239">
        <ele>562.2</ele>
        <time>2022-05-24 09:49:07</time>
      </trkpt>
      <trkpt lat="41.17178" lon="0.89236">
        <ele>562.2</ele>
        <time>2022-05-24 09:49:08</time>
      </trkpt>
      <trkpt lat="41.17176" lon="0.89233">
        <ele>562.4</ele>
        <time>2022-05-24 09:49:09</time>
      </trkpt>
      <trkpt lat="41.17173" lon="0.8923">
        <ele>562.6</ele>
        <time>2022-05-24 09:49:10</time>
      </trkpt>
      <trkpt lat="41.17171" lon="0.89227">
        <ele>562.6</ele>
        <time>2022-05-24 09:49:11</time>
      </trkpt>
      <trkpt lat="41.17168" lon="0.89224">
        <ele>562.8</ele>
        <time>2022-05-24 09:49:12</time>
      </trkpt>
      <trkpt lat="41.17167" lon="0.89221">
        <ele>562.8</ele>
        <time>2022-05-24 09:49:13</time>
      </trkpt>
      <trkpt lat="41.17165" lon="0.89218">
        <ele>563</ele>
        <time>2022-05-24 09:49:14</time>
      </trkpt>
      <trkpt lat="41.17163" lon="0.89214">
        <ele>563</ele>
        <time>2022-05-24 09:49:15</time>
      </trkpt>
      <trkpt lat="41.17161" lon="0.89211">
        <ele>563.2</ele>
        <time>2022-05-24 09:49:16</time>
      </trkpt>
      <trkpt lat="41.17159" lon="0.89207">
        <ele>563.4</ele>
        <time>2022-05-24 09:49:17</time>
      </trkpt>
      <trkpt lat="41.17158" lon="0.89205">
        <ele>563.4</ele>
        <time>2022-05-24 09:49:18</time>
      </trkpt>
      <trkpt lat="41.17156" lon="0.89202">
        <ele>563.6</ele>
        <time>2022-05-24 09:49:19</time>
      </trkpt>
      <trkpt lat="41.17154" lon="0.89198">
        <ele>563.8</ele>
        <time>2022-05-24 09:49:20</time>
      </trkpt>
      <trkpt lat="41.17153" lon="0.89195">
        <ele>563.8</ele>
        <time>2022-05-24 09:49:21</time>
      </trkpt>
      <trkpt lat="41.17151" lon="0.89192">
        <ele>564</ele>
        <time>2022-05-24 09:49:22</time>
      </trkpt>
      <trkpt lat="41.17149" lon="0.89189">
        <ele>564.2</ele>
        <time>2022-05-24 09:49:23</time>
      </trkpt>
      <trkpt lat="41.17148" lon="0.89185">
        <ele>564.4</ele>
        <time>2022-05-24 09:49:24</time>
      </trkpt>
      <trkpt lat="41.17146" lon="0.89182">
        <ele>564.4</ele>
        <time>2022-05-24 09:49:25</time>
      </trkpt>
      <trkpt lat="41.17144" lon="0.89178">
        <ele>564.6</ele>
        <time>2022-05-24 09:49:26</time>
      </trkpt>
      <trkpt lat="41.17143" lon="0.89175">
        <ele>564.8</ele>
        <time>2022-05-24 09:49:27</time>
      </trkpt>
      <trkpt lat="41.17141" lon="0.89172">
        <ele>564.8</ele>
        <time>2022-05-24 09:49:28</time>
      </trkpt>
      <trkpt lat="41.1714" lon="0.89167">
        <ele>565</ele>
        <time>2022-05-24 09:49:29</time>
      </trkpt>
      <trkpt lat="41.17138" lon="0.89164">
        <ele>565.2</ele>
        <time>2022-05-24 09:49:30</time>
      </trkpt>
      <trkpt lat="41.17137" lon="0.8916">
        <ele>565.4</ele>
        <time>2022-05-24 09:49:31</time>
      </trkpt>
      <trkpt lat="41.17135" lon="0.89157">
        <ele>565.4</ele>
        <time>2022-05-24 09:49:32</time>
      </trkpt>
      <trkpt lat="41.17134" lon="0.89154">
        <ele>565.6</ele>
        <time>2022-05-24 09:49:33</time>
      </trkpt>
      <trkpt lat="41.17133" lon="0.8915">
        <ele>565.6</ele>
        <time>2022-05-24 09:49:34</time>
      </trkpt>
      <trkpt lat="41.17131" lon="0.89147">
        <ele>565.8</ele>
        <time>2022-05-24 09:49:35</time>
      </trkpt>
      <trkpt lat="41.17129" lon="0.89144">
        <ele>566</ele>
        <time>2022-05-24 09:49:36</time>
      </trkpt>
      <trkpt lat="41.17128" lon="0.8914">
        <ele>566.2</ele>
        <time>2022-05-24 09:49:37</time>
      </trkpt>
      <trkpt lat="41.17127" lon="0.89137">
        <ele>566.2</ele>
        <time>2022-05-24 09:49:38</time>
      </trkpt>
      <trkpt lat="41.17125" lon="0.89134">
        <ele>566.6</ele>
        <time>2022-05-24 09:49:39</time>
      </trkpt>
      <trkpt lat="41.17124" lon="0.89131">
        <ele>566.6</ele>
        <time>2022-05-24 09:49:40</time>
      </trkpt>
      <trkpt lat="41.17123" lon="0.89128">
        <ele>566.8</ele>
        <time>2022-05-24 09:49:41</time>
      </trkpt>
      <trkpt lat="41.17121" lon="0.89125">
        <ele>567</ele>
        <time>2022-05-24 09:49:42</time>
      </trkpt>
      <trkpt lat="41.1712" lon="0.89122">
        <ele>567.2</ele>
        <time>2022-05-24 09:49:43</time>
      </trkpt>
      <trkpt lat="41.17119" lon="0.89119">
        <ele>567.2</ele>
        <time>2022-05-24 09:49:44</time>
      </trkpt>
      <trkpt lat="41.17118" lon="0.89117">
        <ele>567.4</ele>
        <time>2022-05-24 09:49:45</time>
      </trkpt>
      <trkpt lat="41.17117" lon="0.89113">
        <ele>567.6</ele>
        <time>2022-05-24 09:49:46</time>
      </trkpt>
      <trkpt lat="41.17115" lon="0.89111">
        <ele>567.8</ele>
        <time>2022-05-24 09:49:47</time>
      </trkpt>
      <trkpt lat="41.17114" lon="0.89108">
        <ele>568</ele>
        <time>2022-05-24 09:49:48</time>
      </trkpt>
      <trkpt lat="41.17112" lon="0.89105">
        <ele>568</ele>
        <time>2022-05-24 09:49:49</time>
      </trkpt>
      <trkpt lat="41.17111" lon="0.89102">
        <ele>568.2</ele>
        <time>2022-05-24 09:49:50</time>
      </trkpt>
      <trkpt lat="41.1711" lon="0.891">
        <ele>568.4</ele>
        <time>2022-05-24 09:49:51</time>
      </trkpt>
      <trkpt lat="41.17109" lon="0.89097">
        <ele>568.4</ele>
        <time>2022-05-24 09:49:52</time>
      </trkpt>
      <trkpt lat="41.17107" lon="0.89094">
        <ele>568.6</ele>
        <time>2022-05-24 09:49:53</time>
      </trkpt>
      <trkpt lat="41.17106" lon="0.89091">
        <ele>568.8</ele>
        <time>2022-05-24 09:49:54</time>
      </trkpt>
      <trkpt lat="41.17105" lon="0.89089">
        <ele>568.8</ele>
        <time>2022-05-24 09:49:55</time>
      </trkpt>
      <trkpt lat="41.17103" lon="0.89086">
        <ele>569</ele>
        <time>2022-05-24 09:49:56</time>
      </trkpt>
      <trkpt lat="41.17102" lon="0.89083">
        <ele>569.2</ele>
        <time>2022-05-24 09:49:57</time>
      </trkpt>
      <trkpt lat="41.171" lon="0.8908">
        <ele>569.2</ele>
        <time>2022-05-24 09:49:58</time>
      </trkpt>
      <trkpt lat="41.17099" lon="0.89077">
        <ele>569.4</ele>
        <time>2022-05-24 09:49:59</time>
      </trkpt>
      <trkpt lat="41.17097" lon="0.89075">
        <ele>569.4</ele>
        <time>2022-05-24 09:50:00</time>
      </trkpt>
      <trkpt lat="41.17096" lon="0.89072">
        <ele>569.6</ele>
        <time>2022-05-24 09:50:01</time>
      </trkpt>
      <trkpt lat="41.17094" lon="0.89069">
        <ele>569.8</ele>
        <time>2022-05-24 09:50:02</time>
      </trkpt>
      <trkpt lat="41.17093" lon="0.89067">
        <ele>570</ele>
        <time>2022-05-24 09:50:03</time>
      </trkpt>
      <trkpt lat="41.17091" lon="0.89065">
        <ele>570</ele>
        <time>2022-05-24 09:50:04</time>
      </trkpt>
      <trkpt lat="41.1709" lon="0.89062">
        <ele>570.2</ele>
        <time>2022-05-24 09:50:05</time>
      </trkpt>
      <trkpt lat="41.17088" lon="0.8906">
        <ele>570.4</ele>
        <time>2022-05-24 09:50:06</time>
      </trkpt>
      <trkpt lat="41.17086" lon="0.89058">
        <ele>570.6</ele>
        <time>2022-05-24 09:50:07</time>
      </trkpt>
      <trkpt lat="41.17084" lon="0.89055">
        <ele>570.8</ele>
        <time>2022-05-24 09:50:08</time>
      </trkpt>
      <trkpt lat="41.17083" lon="0.89053">
        <ele>571</ele>
        <time>2022-05-24 09:50:09</time>
      </trkpt>
      <trkpt lat="41.17081" lon="0.89051">
        <ele>571.2</ele>
        <time>2022-05-24 09:50:10</time>
      </trkpt>
      <trkpt lat="41.17079" lon="0.89048">
        <ele>571.2</ele>
        <time>2022-05-24 09:50:11</time>
      </trkpt>
      <trkpt lat="41.17076" lon="0.89046">
        <ele>571.4</ele>
        <time>2022-05-24 09:50:12</time>
      </trkpt>
      <trkpt lat="41.17075" lon="0.89044">
        <ele>571.6</ele>
        <time>2022-05-24 09:50:13</time>
      </trkpt>
      <trkpt lat="41.17073" lon="0.89042">
        <ele>571.8</ele>
        <time>2022-05-24 09:50:14</time>
      </trkpt>
      <trkpt lat="41.1707" lon="0.8904">
        <ele>571.8</ele>
        <time>2022-05-24 09:50:15</time>
      </trkpt>
      <trkpt lat="41.17068" lon="0.89038">
        <ele>572</ele>
        <time>2022-05-24 09:50:16</time>
      </trkpt>
      <trkpt lat="41.17066" lon="0.89036">
        <ele>572.2</ele>
        <time>2022-05-24 09:50:17</time>
      </trkpt>
      <trkpt lat="41.17064" lon="0.89034">
        <ele>572.2</ele>
        <time>2022-05-24 09:50:18</time>
      </trkpt>
      <trkpt lat="41.17062" lon="0.89033">
        <ele>572.4</ele>
        <time>2022-05-24 09:50:19</time>
      </trkpt>
      <trkpt lat="41.17059" lon="0.89031">
        <ele>572.6</ele>
        <time>2022-05-24 09:50:20</time>
      </trkpt>
      <trkpt lat="41.17057" lon="0.8903">
        <ele>572.6</ele>
        <time>2022-05-24 09:50:21</time>
      </trkpt>
      <trkpt lat="41.17054" lon="0.89028">
        <ele>572.8</ele>
        <time>2022-05-24 09:50:22</time>
      </trkpt>
      <trkpt lat="41.17052" lon="0.89027">
        <ele>573</ele>
        <time>2022-05-24 09:50:23</time>
      </trkpt>
      <trkpt lat="41.17049" lon="0.89025">
        <ele>573</ele>
        <time>2022-05-24 09:50:24</time>
      </trkpt>
      <trkpt lat="41.17047" lon="0.89024">
        <ele>573.2</ele>
        <time>2022-05-24 09:50:25</time>
      </trkpt>
      <trkpt lat="41.17044" lon="0.89023">
        <ele>573.4</ele>
        <time>2022-05-24 09:50:26</time>
      </trkpt>
      <trkpt lat="41.17042" lon="0.89021">
        <ele>573.4</ele>
        <time>2022-05-24 09:50:27</time>
      </trkpt>
      <trkpt lat="41.17039" lon="0.8902">
        <ele>573.6</ele>
        <time>2022-05-24 09:50:28</time>
      </trkpt>
      <trkpt lat="41.17036" lon="0.89018">
        <ele>573.6</ele>
        <time>2022-05-24 09:50:29</time>
      </trkpt>
      <trkpt lat="41.17034" lon="0.89017">
        <ele>573.8</ele>
        <time>2022-05-24 09:50:30</time>
      </trkpt>
      <trkpt lat="41.17031" lon="0.89015">
        <ele>574</ele>
        <time>2022-05-24 09:50:31</time>
      </trkpt>
      <trkpt lat="41.17029" lon="0.89014">
        <ele>574</ele>
        <time>2022-05-24 09:50:32</time>
      </trkpt>
      <trkpt lat="41.17027" lon="0.89013">
        <ele>574.2</ele>
        <time>2022-05-24 09:50:33</time>
      </trkpt>
      <trkpt lat="41.17024" lon="0.89011">
        <ele>574.2</ele>
        <time>2022-05-24 09:50:34</time>
      </trkpt>
      <trkpt lat="41.17021" lon="0.89011">
        <ele>574.4</ele>
        <time>2022-05-24 09:50:35</time>
      </trkpt>
      <trkpt lat="41.17018" lon="0.89009">
        <ele>574.6</ele>
        <time>2022-05-24 09:50:36</time>
      </trkpt>
      <trkpt lat="41.17016" lon="0.89008">
        <ele>574.6</ele>
        <time>2022-05-24 09:50:37</time>
      </trkpt>
      <trkpt lat="41.17014" lon="0.89006">
        <ele>574.6</ele>
        <time>2022-05-24 09:50:38</time>
      </trkpt>
      <trkpt lat="41.17012" lon="0.89005">
        <ele>574.8</ele>
        <time>2022-05-24 09:50:39</time>
      </trkpt>
      <trkpt lat="41.17009" lon="0.89003">
        <ele>574.8</ele>
        <time>2022-05-24 09:50:40</time>
      </trkpt>
      <trkpt lat="41.17006" lon="0.89001">
        <ele>574.8</ele>
        <time>2022-05-24 09:50:41</time>
      </trkpt>
      <trkpt lat="41.17003" lon="0.89">
        <ele>575</ele>
        <time>2022-05-24 09:50:42</time>
      </trkpt>
      <trkpt lat="41.17001" lon="0.88998">
        <ele>575</ele>
        <time>2022-05-24 09:50:43</time>
      </trkpt>
      <trkpt lat="41.16998" lon="0.88996">
        <ele>575</ele>
        <time>2022-05-24 09:50:44</time>
      </trkpt>
      <trkpt lat="41.16997" lon="0.88995">
        <ele>575.2</ele>
        <time>2022-05-24 09:50:45</time>
      </trkpt>
      <trkpt lat="41.16994" lon="0.88993">
        <ele>575.2</ele>
        <time>2022-05-24 09:50:46</time>
      </trkpt>
      <trkpt lat="41.16991" lon="0.88991">
        <ele>575.2</ele>
        <time>2022-05-24 09:50:47</time>
      </trkpt>
      <trkpt lat="41.16988" lon="0.88989">
        <ele>575.4</ele>
        <time>2022-05-24 09:50:48</time>
      </trkpt>
      <trkpt lat="41.16986" lon="0.88987">
        <ele>575.6</ele>
        <time>2022-05-24 09:50:49</time>
      </trkpt>
      <trkpt lat="41.16983" lon="0.88985">
        <ele>575.6</ele>
        <time>2022-05-24 09:50:50</time>
      </trkpt>
      <trkpt lat="41.16981" lon="0.88983">
        <ele>575.8</ele>
        <time>2022-05-24 09:50:51</time>
      </trkpt>
      <trkpt lat="41.16979" lon="0.88981">
        <ele>575.8</ele>
        <time>2022-05-24 09:50:52</time>
      </trkpt>
      <trkpt lat="41.16976" lon="0.88978">
        <ele>576</ele>
        <time>2022-05-24 09:50:53</time>
      </trkpt>
      <trkpt lat="41.16973" lon="0.88976">
        <ele>576</ele>
        <time>2022-05-24 09:50:54</time>
      </trkpt>
      <trkpt lat="41.16972" lon="0.88973">
        <ele>576.2</ele>
        <time>2022-05-24 09:50:55</time>
      </trkpt>
      <trkpt lat="41.16969" lon="0.8897">
        <ele>576.2</ele>
        <time>2022-05-24 09:50:56</time>
      </trkpt>
      <trkpt lat="41.16967" lon="0.88967">
        <ele>576.4</ele>
        <time>2022-05-24 09:50:57</time>
      </trkpt>
      <trkpt lat="41.16965" lon="0.88965">
        <ele>576.4</ele>
        <time>2022-05-24 09:50:58</time>
      </trkpt>
      <trkpt lat="41.16962" lon="0.88962">
        <ele>576.4</ele>
        <time>2022-05-24 09:50:59</time>
      </trkpt>
      <trkpt lat="41.16961" lon="0.88959">
        <ele>576.6</ele>
        <time>2022-05-24 09:51:00</time>
      </trkpt>
      <trkpt lat="41.16958" lon="0.88956">
        <ele>576.6</ele>
        <time>2022-05-24 09:51:01</time>
      </trkpt>
      <trkpt lat="41.16956" lon="0.88952">
        <ele>576.6</ele>
        <time>2022-05-24 09:51:02</time>
      </trkpt>
      <trkpt lat="41.16954" lon="0.88949">
        <ele>576.6</ele>
        <time>2022-05-24 09:51:03</time>
      </trkpt>
      <trkpt lat="41.16951" lon="0.88946">
        <ele>576.6</ele>
        <time>2022-05-24 09:51:04</time>
      </trkpt>
      <trkpt lat="41.16949" lon="0.88942">
        <ele>576.6</ele>
        <time>2022-05-24 09:51:05</time>
      </trkpt>
      <trkpt lat="41.16947" lon="0.88938">
        <ele>576.6</ele>
        <time>2022-05-24 09:51:06</time>
      </trkpt>
      <trkpt lat="41.16945" lon="0.88934">
        <ele>576.6</ele>
        <time>2022-05-24 09:51:07</time>
      </trkpt>
      <trkpt lat="41.16943" lon="0.88929">
        <ele>576.8</ele>
        <time>2022-05-24 09:51:08</time>
      </trkpt>
      <trkpt lat="41.16941" lon="0.88924">
        <ele>576.8</ele>
        <time>2022-05-24 09:51:09</time>
      </trkpt>
      <trkpt lat="41.16938" lon="0.8892">
        <ele>576.8</ele>
        <time>2022-05-24 09:51:10</time>
      </trkpt>
      <trkpt lat="41.16936" lon="0.88915">
        <ele>576.8</ele>
        <time>2022-05-24 09:51:11</time>
      </trkpt>
      <trkpt lat="41.16935" lon="0.8891">
        <ele>576.8</ele>
        <time>2022-05-24 09:51:12</time>
      </trkpt>
      <trkpt lat="41.16933" lon="0.88905">
        <ele>576.8</ele>
        <time>2022-05-24 09:51:13</time>
      </trkpt>
      <trkpt lat="41.1693" lon="0.889">
        <ele>576.8</ele>
        <time>2022-05-24 09:51:14</time>
      </trkpt>
      <trkpt lat="41.16928" lon="0.88895">
        <ele>576.8</ele>
        <time>2022-05-24 09:51:15</time>
      </trkpt>
      <trkpt lat="41.16926" lon="0.88891">
        <ele>576.8</ele>
        <time>2022-05-24 09:51:16</time>
      </trkpt>
      <trkpt lat="41.16924" lon="0.88885">
        <ele>576.8</ele>
        <time>2022-05-24 09:51:17</time>
      </trkpt>
      <trkpt lat="41.16922" lon="0.88882">
        <ele>576.6</ele>
        <time>2022-05-24 09:51:18</time>
      </trkpt>
      <trkpt lat="41.1692" lon="0.88876">
        <ele>576.6</ele>
        <time>2022-05-24 09:51:19</time>
      </trkpt>
      <trkpt lat="41.16917" lon="0.88871">
        <ele>576.4</ele>
        <time>2022-05-24 09:51:20</time>
      </trkpt>
      <trkpt lat="41.16915" lon="0.88866">
        <ele>576.4</ele>
        <time>2022-05-24 09:51:21</time>
      </trkpt>
      <trkpt lat="41.16913" lon="0.88862">
        <ele>576.4</ele>
        <time>2022-05-24 09:51:22</time>
      </trkpt>
      <trkpt lat="41.1691" lon="0.88855">
        <ele>576.2</ele>
        <time>2022-05-24 09:51:23</time>
      </trkpt>
      <trkpt lat="41.16908" lon="0.8885">
        <ele>576.2</ele>
        <time>2022-05-24 09:51:24</time>
      </trkpt>
      <trkpt lat="41.16905" lon="0.88844">
        <ele>576.2</ele>
        <time>2022-05-24 09:51:25</time>
      </trkpt>
      <trkpt lat="41.16903" lon="0.88838">
        <ele>576</ele>
        <time>2022-05-24 09:51:26</time>
      </trkpt>
      <trkpt lat="41.169" lon="0.88833">
        <ele>575.8</ele>
        <time>2022-05-24 09:51:27</time>
      </trkpt>
      <trkpt lat="41.16897" lon="0.88827">
        <ele>575.6</ele>
        <time>2022-05-24 09:51:28</time>
      </trkpt>
      <trkpt lat="41.16895" lon="0.88822">
        <ele>575.4</ele>
        <time>2022-05-24 09:51:29</time>
      </trkpt>
      <trkpt lat="41.16892" lon="0.88815">
        <ele>575.4</ele>
        <time>2022-05-24 09:51:30</time>
      </trkpt>
      <trkpt lat="41.16889" lon="0.8881">
        <ele>575.2</ele>
        <time>2022-05-24 09:51:31</time>
      </trkpt>
      <trkpt lat="41.16886" lon="0.88804">
        <ele>575</ele>
        <time>2022-05-24 09:51:32</time>
      </trkpt>
      <trkpt lat="41.16883" lon="0.88797">
        <ele>575</ele>
        <time>2022-05-24 09:51:33</time>
      </trkpt>
      <trkpt lat="41.1688" lon="0.88791">
        <ele>574.6</ele>
        <time>2022-05-24 09:51:34</time>
      </trkpt>
      <trkpt lat="41.16877" lon="0.88784">
        <ele>574.6</ele>
        <time>2022-05-24 09:51:35</time>
      </trkpt>
      <trkpt lat="41.16874" lon="0.88778">
        <ele>574.4</ele>
        <time>2022-05-24 09:51:36</time>
      </trkpt>
      <trkpt lat="41.16871" lon="0.88771">
        <ele>574.4</ele>
        <time>2022-05-24 09:51:37</time>
      </trkpt>
      <trkpt lat="41.16867" lon="0.88765">
        <ele>574.2</ele>
        <time>2022-05-24 09:51:38</time>
      </trkpt>
      <trkpt lat="41.16863" lon="0.88758">
        <ele>573.8</ele>
        <time>2022-05-24 09:51:39</time>
      </trkpt>
      <trkpt lat="41.16859" lon="0.88752">
        <ele>573.6</ele>
        <time>2022-05-24 09:51:40</time>
      </trkpt>
      <trkpt lat="41.16855" lon="0.88745">
        <ele>573.6</ele>
        <time>2022-05-24 09:51:41</time>
      </trkpt>
      <trkpt lat="41.16851" lon="0.88738">
        <ele>573.4</ele>
        <time>2022-05-24 09:51:42</time>
      </trkpt>
      <trkpt lat="41.16847" lon="0.88731">
        <ele>573.2</ele>
        <time>2022-05-24 09:51:43</time>
      </trkpt>
      <trkpt lat="41.16842" lon="0.88724">
        <ele>572.8</ele>
        <time>2022-05-24 09:51:44</time>
      </trkpt>
      <trkpt lat="41.16837" lon="0.88717">
        <ele>572.6</ele>
        <time>2022-05-24 09:51:45</time>
      </trkpt>
      <trkpt lat="41.16832" lon="0.88711">
        <ele>572.2</ele>
        <time>2022-05-24 09:51:46</time>
      </trkpt>
      <trkpt lat="41.16827" lon="0.88704">
        <ele>572</ele>
        <time>2022-05-24 09:51:47</time>
      </trkpt>
      <trkpt lat="41.16822" lon="0.88697">
        <ele>571.8</ele>
        <time>2022-05-24 09:51:48</time>
      </trkpt>
      <trkpt lat="41.16816" lon="0.8869">
        <ele>571.6</ele>
        <time>2022-05-24 09:51:49</time>
      </trkpt>
      <trkpt lat="41.16811" lon="0.88683">
        <ele>571.4</ele>
        <time>2022-05-24 09:51:50</time>
      </trkpt>
      <trkpt lat="41.16805" lon="0.88677">
        <ele>571.2</ele>
        <time>2022-05-24 09:51:51</time>
      </trkpt>
      <trkpt lat="41.16799" lon="0.88671">
        <ele>571</ele>
        <time>2022-05-24 09:51:52</time>
      </trkpt>
      <trkpt lat="41.16793" lon="0.88665">
        <ele>570.8</ele>
        <time>2022-05-24 09:51:53</time>
      </trkpt>
      <trkpt lat="41.16787" lon="0.88659">
        <ele>570.4</ele>
        <time>2022-05-24 09:51:54</time>
      </trkpt>
      <trkpt lat="41.16781" lon="0.88653">
        <ele>570.2</ele>
        <time>2022-05-24 09:51:55</time>
      </trkpt>
      <trkpt lat="41.16774" lon="0.88648">
        <ele>569.8</ele>
        <time>2022-05-24 09:51:56</time>
      </trkpt>
      <trkpt lat="41.16768" lon="0.88642">
        <ele>569.8</ele>
        <time>2022-05-24 09:51:57</time>
      </trkpt>
      <trkpt lat="41.16762" lon="0.88637">
        <ele>569.6</ele>
        <time>2022-05-24 09:51:58</time>
      </trkpt>
      <trkpt lat="41.16755" lon="0.88631">
        <ele>569.4</ele>
        <time>2022-05-24 09:51:59</time>
      </trkpt>
      <trkpt lat="41.16749" lon="0.88626">
        <ele>569.4</ele>
        <time>2022-05-24 09:52:00</time>
      </trkpt>
      <trkpt lat="41.16742" lon="0.8862">
        <ele>569.2</ele>
        <time>2022-05-24 09:52:01</time>
      </trkpt>
      <trkpt lat="41.16735" lon="0.88615">
        <ele>569</ele>
        <time>2022-05-24 09:52:02</time>
      </trkpt>
      <trkpt lat="41.16729" lon="0.8861">
        <ele>568.8</ele>
        <time>2022-05-24 09:52:03</time>
      </trkpt>
      <trkpt lat="41.16723" lon="0.88605">
        <ele>568.8</ele>
        <time>2022-05-24 09:52:04</time>
      </trkpt>
      <trkpt lat="41.16716" lon="0.886">
        <ele>568.6</ele>
        <time>2022-05-24 09:52:05</time>
      </trkpt>
      <trkpt lat="41.16709" lon="0.88594">
        <ele>568.4</ele>
        <time>2022-05-24 09:52:06</time>
      </trkpt>
      <trkpt lat="41.16703" lon="0.88589">
        <ele>568.4</ele>
        <time>2022-05-24 09:52:07</time>
      </trkpt>
      <trkpt lat="41.16697" lon="0.88584">
        <ele>568.2</ele>
        <time>2022-05-24 09:52:08</time>
      </trkpt>
      <trkpt lat="41.16691" lon="0.88578">
        <ele>568</ele>
        <time>2022-05-24 09:52:09</time>
      </trkpt>
      <trkpt lat="41.16685" lon="0.88573">
        <ele>567.8</ele>
        <time>2022-05-24 09:52:10</time>
      </trkpt>
      <trkpt lat="41.16678" lon="0.88568">
        <ele>567.6</ele>
        <time>2022-05-24 09:52:11</time>
      </trkpt>
      <trkpt lat="41.16672" lon="0.88562">
        <ele>567.6</ele>
        <time>2022-05-24 09:52:12</time>
      </trkpt>
      <trkpt lat="41.16666" lon="0.88557">
        <ele>567.4</ele>
        <time>2022-05-24 09:52:13</time>
      </trkpt>
      <trkpt lat="41.16661" lon="0.88551">
        <ele>567.4</ele>
        <time>2022-05-24 09:52:14</time>
      </trkpt>
      <trkpt lat="41.16655" lon="0.88545">
        <ele>567.2</ele>
        <time>2022-05-24 09:52:15</time>
      </trkpt>
      <trkpt lat="41.1665" lon="0.88539">
        <ele>567.2</ele>
        <time>2022-05-24 09:52:16</time>
      </trkpt>
      <trkpt lat="41.16645" lon="0.88533">
        <ele>567.2</ele>
        <time>2022-05-24 09:52:17</time>
      </trkpt>
      <trkpt lat="41.1664" lon="0.88528">
        <ele>567</ele>
        <time>2022-05-24 09:52:18</time>
      </trkpt>
      <trkpt lat="41.16635" lon="0.88522">
        <ele>567</ele>
        <time>2022-05-24 09:52:19</time>
      </trkpt>
      <trkpt lat="41.1663" lon="0.88516">
        <ele>567</ele>
        <time>2022-05-24 09:52:20</time>
      </trkpt>
      <trkpt lat="41.16625" lon="0.88511">
        <ele>567</ele>
        <time>2022-05-24 09:52:21</time>
      </trkpt>
      <trkpt lat="41.1662" lon="0.88505">
        <ele>567</ele>
        <time>2022-05-24 09:52:22</time>
      </trkpt>
      <trkpt lat="41.16616" lon="0.88499">
        <ele>567</ele>
        <time>2022-05-24 09:52:23</time>
      </trkpt>
      <trkpt lat="41.16611" lon="0.88493">
        <ele>566.8</ele>
        <time>2022-05-24 09:52:24</time>
      </trkpt>
      <trkpt lat="41.16607" lon="0.88488">
        <ele>566.8</ele>
        <time>2022-05-24 09:52:25</time>
      </trkpt>
      <trkpt lat="41.16603" lon="0.88482">
        <ele>566.8</ele>
        <time>2022-05-24 09:52:26</time>
      </trkpt>
      <trkpt lat="41.16598" lon="0.88476">
        <ele>566.8</ele>
        <time>2022-05-24 09:52:27</time>
      </trkpt>
      <trkpt lat="41.16594" lon="0.88471">
        <ele>566.8</ele>
        <time>2022-05-24 09:52:28</time>
      </trkpt>
      <trkpt lat="41.1659" lon="0.88465">
        <ele>566.8</ele>
        <time>2022-05-24 09:52:29</time>
      </trkpt>
      <trkpt lat="41.16586" lon="0.8846">
        <ele>566.8</ele>
        <time>2022-05-24 09:52:30</time>
      </trkpt>
      <trkpt lat="41.16582" lon="0.88454">
        <ele>566.6</ele>
        <time>2022-05-24 09:52:31</time>
      </trkpt>
      <trkpt lat="41.16577" lon="0.88449">
        <ele>566.6</ele>
        <time>2022-05-24 09:52:32</time>
      </trkpt>
      <trkpt lat="41.16573" lon="0.88444">
        <ele>566.6</ele>
        <time>2022-05-24 09:52:33</time>
      </trkpt>
      <trkpt lat="41.16569" lon="0.88438">
        <ele>566.6</ele>
        <time>2022-05-24 09:52:34</time>
      </trkpt>
      <trkpt lat="41.16565" lon="0.88433">
        <ele>566.4</ele>
        <time>2022-05-24 09:52:35</time>
      </trkpt>
      <trkpt lat="41.16561" lon="0.88427">
        <ele>566.4</ele>
        <time>2022-05-24 09:52:36</time>
      </trkpt>
      <trkpt lat="41.16558" lon="0.88421">
        <ele>566.4</ele>
        <time>2022-05-24 09:52:37</time>
      </trkpt>
      <trkpt lat="41.16554" lon="0.88414">
        <ele>566.2</ele>
        <time>2022-05-24 09:52:38</time>
      </trkpt>
      <trkpt lat="41.16551" lon="0.88407">
        <ele>566</ele>
        <time>2022-05-24 09:52:39</time>
      </trkpt>
      <trkpt lat="41.16548" lon="0.88399">
        <ele>566</ele>
        <time>2022-05-24 09:52:40</time>
      </trkpt>
      <trkpt lat="41.16546" lon="0.88391">
        <ele>566</ele>
        <time>2022-05-24 09:52:41</time>
      </trkpt>
      <trkpt lat="41.16544" lon="0.88383">
        <ele>566</ele>
        <time>2022-05-24 09:52:42</time>
      </trkpt>
      <trkpt lat="41.16543" lon="0.88375">
        <ele>566</ele>
        <time>2022-05-24 09:52:43</time>
      </trkpt>
      <trkpt lat="41.16541" lon="0.88367">
        <ele>566</ele>
        <time>2022-05-24 09:52:44</time>
      </trkpt>
      <trkpt lat="41.1654" lon="0.88359">
        <ele>566</ele>
        <time>2022-05-24 09:52:45</time>
      </trkpt>
      <trkpt lat="41.16539" lon="0.8835">
        <ele>566</ele>
        <time>2022-05-24 09:52:46</time>
      </trkpt>
      <trkpt lat="41.16538" lon="0.88343">
        <ele>566</ele>
        <time>2022-05-24 09:52:47</time>
      </trkpt>
      <trkpt lat="41.16538" lon="0.88335">
        <ele>566</ele>
        <time>2022-05-24 09:52:48</time>
      </trkpt>
      <trkpt lat="41.16537" lon="0.88327">
        <ele>566</ele>
        <time>2022-05-24 09:52:49</time>
      </trkpt>
      <trkpt lat="41.16536" lon="0.8832">
        <ele>565.8</ele>
        <time>2022-05-24 09:52:50</time>
      </trkpt>
      <trkpt lat="41.16536" lon="0.88312">
        <ele>565.8</ele>
        <time>2022-05-24 09:52:51</time>
      </trkpt>
      <trkpt lat="41.16535" lon="0.88304">
        <ele>565.6</ele>
        <time>2022-05-24 09:52:52</time>
      </trkpt>
      <trkpt lat="41.16534" lon="0.88295">
        <ele>565.4</ele>
        <time>2022-05-24 09:52:53</time>
      </trkpt>
      <trkpt lat="41.16534" lon="0.88286">
        <ele>565</ele>
        <time>2022-05-24 09:52:54</time>
      </trkpt>
      <trkpt lat="41.16533" lon="0.88277">
        <ele>564.8</ele>
        <time>2022-05-24 09:52:55</time>
      </trkpt>
      <trkpt lat="41.16533" lon="0.88268">
        <ele>564.4</ele>
        <time>2022-05-24 09:52:56</time>
      </trkpt>
      <trkpt lat="41.16532" lon="0.88259">
        <ele>564.2</ele>
        <time>2022-05-24 09:52:57</time>
      </trkpt>
      <trkpt lat="41.1653" lon="0.88249">
        <ele>564</ele>
        <time>2022-05-24 09:52:58</time>
      </trkpt>
      <trkpt lat="41.16528" lon="0.88241">
        <ele>563.8</ele>
        <time>2022-05-24 09:52:59</time>
      </trkpt>
      <trkpt lat="41.16525" lon="0.88235">
        <ele>563.6</ele>
        <time>2022-05-24 09:53:00</time>
      </trkpt>
      <trkpt lat="41.16519" lon="0.88229">
        <ele>563.6</ele>
        <time>2022-05-24 09:53:01</time>
      </trkpt>
      <trkpt lat="41.16514" lon="0.88227">
        <ele>563.4</ele>
        <time>2022-05-24 09:53:02</time>
      </trkpt>
      <trkpt lat="41.16507" lon="0.88226">
        <ele>563.2</ele>
        <time>2022-05-24 09:53:03</time>
      </trkpt>
      <trkpt lat="41.165" lon="0.88227">
        <ele>562.8</ele>
        <time>2022-05-24 09:53:04</time>
      </trkpt>
      <trkpt lat="41.16493" lon="0.88229">
        <ele>562.4</ele>
        <time>2022-05-24 09:53:05</time>
      </trkpt>
      <trkpt lat="41.16485" lon="0.88233">
        <ele>561.8</ele>
        <time>2022-05-24 09:53:06</time>
      </trkpt>
      <trkpt lat="41.16476" lon="0.88238">
        <ele>561.2</ele>
        <time>2022-05-24 09:53:07</time>
      </trkpt>
      <trkpt lat="41.16468" lon="0.88243">
        <ele>560.4</ele>
        <time>2022-05-24 09:53:08</time>
      </trkpt>
      <trkpt lat="41.16459" lon="0.88249">
        <ele>559.4</ele>
        <time>2022-05-24 09:53:09</time>
      </trkpt>
      <trkpt lat="41.16448" lon="0.88256">
        <ele>558.6</ele>
        <time>2022-05-24 09:53:10</time>
      </trkpt>
      <trkpt lat="41.16439" lon="0.88263">
        <ele>557.8</ele>
        <time>2022-05-24 09:53:11</time>
      </trkpt>
      <trkpt lat="41.16429" lon="0.88271">
        <ele>557</ele>
        <time>2022-05-24 09:53:12</time>
      </trkpt>
      <trkpt lat="41.16419" lon="0.88278">
        <ele>556.4</ele>
        <time>2022-05-24 09:53:13</time>
      </trkpt>
      <trkpt lat="41.1641" lon="0.88287">
        <ele>555.8</ele>
        <time>2022-05-24 09:53:14</time>
      </trkpt>
      <trkpt lat="41.16402" lon="0.88295">
        <ele>555.4</ele>
        <time>2022-05-24 09:53:15</time>
      </trkpt>
      <trkpt lat="41.16394" lon="0.88306">
        <ele>554.8</ele>
        <time>2022-05-24 09:53:16</time>
      </trkpt>
      <trkpt lat="41.16385" lon="0.88313">
        <ele>554.2</ele>
        <time>2022-05-24 09:53:17</time>
      </trkpt>
      <trkpt lat="41.16375" lon="0.88315">
        <ele>553.6</ele>
        <time>2022-05-24 09:53:18</time>
      </trkpt>
      <trkpt lat="41.16366" lon="0.88314">
        <ele>553</ele>
        <time>2022-05-24 09:53:19</time>
      </trkpt>
      <trkpt lat="41.16355" lon="0.88309">
        <ele>552.6</ele>
        <time>2022-05-24 09:53:20</time>
      </trkpt>
      <trkpt lat="41.16345" lon="0.88303">
        <ele>552</ele>
        <time>2022-05-24 09:53:21</time>
      </trkpt>
      <trkpt lat="41.16337" lon="0.88294">
        <ele>551.6</ele>
        <time>2022-05-24 09:53:22</time>
      </trkpt>
      <trkpt lat="41.1633" lon="0.88284">
        <ele>550.8</ele>
        <time>2022-05-24 09:53:23</time>
      </trkpt>
      <trkpt lat="41.16325" lon="0.88273">
        <ele>550</ele>
        <time>2022-05-24 09:53:24</time>
      </trkpt>
      <trkpt lat="41.1632" lon="0.88258">
        <ele>549.4</ele>
        <time>2022-05-24 09:53:25</time>
      </trkpt>
      <trkpt lat="41.16315" lon="0.88245">
        <ele>548.6</ele>
        <time>2022-05-24 09:53:26</time>
      </trkpt>
      <trkpt lat="41.16308" lon="0.88233">
        <ele>548</ele>
        <time>2022-05-24 09:53:27</time>
      </trkpt>
      <trkpt lat="41.16302" lon="0.88221">
        <ele>547.4</ele>
        <time>2022-05-24 09:53:28</time>
      </trkpt>
      <trkpt lat="41.16297" lon="0.88209">
        <ele>546.6</ele>
        <time>2022-05-24 09:53:29</time>
      </trkpt>
      <trkpt lat="41.16291" lon="0.88198">
        <ele>545.8</ele>
        <time>2022-05-24 09:53:30</time>
      </trkpt>
      <trkpt lat="41.16285" lon="0.88187">
        <ele>545.2</ele>
        <time>2022-05-24 09:53:31</time>
      </trkpt>
      <trkpt lat="41.1628" lon="0.88175">
        <ele>544.8</ele>
        <time>2022-05-24 09:53:32</time>
      </trkpt>
      <trkpt lat="41.16274" lon="0.88163">
        <ele>544.2</ele>
        <time>2022-05-24 09:53:33</time>
      </trkpt>
      <trkpt lat="41.16268" lon="0.88151">
        <ele>544</ele>
        <time>2022-05-24 09:53:34</time>
      </trkpt>
      <trkpt lat="41.16263" lon="0.88139">
        <ele>543.6</ele>
        <time>2022-05-24 09:53:35</time>
      </trkpt>
      <trkpt lat="41.16257" lon="0.88128">
        <ele>543.2</ele>
        <time>2022-05-24 09:53:36</time>
      </trkpt>
      <trkpt lat="41.16252" lon="0.88117">
        <ele>542.8</ele>
        <time>2022-05-24 09:53:37</time>
      </trkpt>
      <trkpt lat="41.16247" lon="0.88107">
        <ele>542.6</ele>
        <time>2022-05-24 09:53:38</time>
      </trkpt>
      <trkpt lat="41.16243" lon="0.88095">
        <ele>542.2</ele>
        <time>2022-05-24 09:53:39</time>
      </trkpt>
      <trkpt lat="41.16237" lon="0.88085">
        <ele>541.6</ele>
        <time>2022-05-24 09:53:40</time>
      </trkpt>
      <trkpt lat="41.16229" lon="0.88076">
        <ele>541.2</ele>
        <time>2022-05-24 09:53:41</time>
      </trkpt>
      <trkpt lat="41.16218" lon="0.88073">
        <ele>540.4</ele>
        <time>2022-05-24 09:53:42</time>
      </trkpt>
      <trkpt lat="41.16208" lon="0.88077">
        <ele>539.8</ele>
        <time>2022-05-24 09:53:43</time>
      </trkpt>
      <trkpt lat="41.16199" lon="0.88084">
        <ele>539.2</ele>
        <time>2022-05-24 09:53:44</time>
      </trkpt>
      <trkpt lat="41.16189" lon="0.88093">
        <ele>538.6</ele>
        <time>2022-05-24 09:53:45</time>
      </trkpt>
      <trkpt lat="41.16179" lon="0.88097">
        <ele>538</ele>
        <time>2022-05-24 09:53:46</time>
      </trkpt>
      <trkpt lat="41.16172" lon="0.88098">
        <ele>537.4</ele>
        <time>2022-05-24 09:53:47</time>
      </trkpt>
      <trkpt lat="41.16162" lon="0.88095">
        <ele>536.8</ele>
        <time>2022-05-24 09:53:48</time>
      </trkpt>
      <trkpt lat="41.16155" lon="0.88091">
        <ele>536</ele>
        <time>2022-05-24 09:53:49</time>
      </trkpt>
      <trkpt lat="41.16147" lon="0.88082">
        <ele>535.2</ele>
        <time>2022-05-24 09:53:50</time>
      </trkpt>
      <trkpt lat="41.16141" lon="0.8807">
        <ele>534.4</ele>
        <time>2022-05-24 09:53:51</time>
      </trkpt>
      <trkpt lat="41.16136" lon="0.88057">
        <ele>533.6</ele>
        <time>2022-05-24 09:53:52</time>
      </trkpt>
      <trkpt lat="41.1613" lon="0.88044">
        <ele>532.6</ele>
        <time>2022-05-24 09:53:53</time>
      </trkpt>
      <trkpt lat="41.16123" lon="0.88032">
        <ele>531.6</ele>
        <time>2022-05-24 09:53:54</time>
      </trkpt>
      <trkpt lat="41.16117" lon="0.88019">
        <ele>530.6</ele>
        <time>2022-05-24 09:53:55</time>
      </trkpt>
      <trkpt lat="41.16111" lon="0.88008">
        <ele>529.8</ele>
        <time>2022-05-24 09:53:56</time>
      </trkpt>
      <trkpt lat="41.16104" lon="0.87996">
        <ele>529.2</ele>
        <time>2022-05-24 09:53:57</time>
      </trkpt>
      <trkpt lat="41.16098" lon="0.8799">
        <ele>528.4</ele>
        <time>2022-05-24 09:53:58</time>
      </trkpt>
      <trkpt lat="41.16089" lon="0.87989">
        <ele>527.8</ele>
        <time>2022-05-24 09:53:59</time>
      </trkpt>
      <trkpt lat="41.16081" lon="0.87992">
        <ele>527</ele>
        <time>2022-05-24 09:54:00</time>
      </trkpt>
      <trkpt lat="41.16072" lon="0.87997">
        <ele>526.6</ele>
        <time>2022-05-24 09:54:01</time>
      </trkpt>
      <trkpt lat="41.16064" lon="0.88006">
        <ele>526</ele>
        <time>2022-05-24 09:54:02</time>
      </trkpt>
      <trkpt lat="41.16058" lon="0.88011">
        <ele>525.6</ele>
        <time>2022-05-24 09:54:03</time>
      </trkpt>
      <trkpt lat="41.16049" lon="0.88018">
        <ele>524.8</ele>
        <time>2022-05-24 09:54:04</time>
      </trkpt>
      <trkpt lat="41.16041" lon="0.88023">
        <ele>524.2</ele>
        <time>2022-05-24 09:54:05</time>
      </trkpt>
      <trkpt lat="41.16033" lon="0.8803">
        <ele>523.8</ele>
        <time>2022-05-24 09:54:06</time>
      </trkpt>
      <trkpt lat="41.16026" lon="0.88035">
        <ele>523.2</ele>
        <time>2022-05-24 09:54:07</time>
      </trkpt>
      <trkpt lat="41.16016" lon="0.88042">
        <ele>522.8</ele>
        <time>2022-05-24 09:54:08</time>
      </trkpt>
      <trkpt lat="41.16008" lon="0.88044">
        <ele>522.2</ele>
        <time>2022-05-24 09:54:09</time>
      </trkpt>
      <trkpt lat="41.15998" lon="0.88043">
        <ele>521.6</ele>
        <time>2022-05-24 09:54:10</time>
      </trkpt>
      <trkpt lat="41.15991" lon="0.88037">
        <ele>520.8</ele>
        <time>2022-05-24 09:54:11</time>
      </trkpt>
      <trkpt lat="41.15984" lon="0.88029">
        <ele>520.2</ele>
        <time>2022-05-24 09:54:12</time>
      </trkpt>
      <trkpt lat="41.15977" lon="0.88017">
        <ele>519.4</ele>
        <time>2022-05-24 09:54:13</time>
      </trkpt>
      <trkpt lat="41.15974" lon="0.88003">
        <ele>518.6</ele>
        <time>2022-05-24 09:54:14</time>
      </trkpt>
      <trkpt lat="41.15972" lon="0.87992">
        <ele>517.8</ele>
        <time>2022-05-24 09:54:15</time>
      </trkpt>
      <trkpt lat="41.1597" lon="0.87979">
        <ele>516.8</ele>
        <time>2022-05-24 09:54:16</time>
      </trkpt>
      <trkpt lat="41.1597" lon="0.87962">
        <ele>516</ele>
        <time>2022-05-24 09:54:17</time>
      </trkpt>
      <trkpt lat="41.15971" lon="0.87947">
        <ele>515.2</ele>
        <time>2022-05-24 09:54:18</time>
      </trkpt>
      <trkpt lat="41.15971" lon="0.87933">
        <ele>514.2</ele>
        <time>2022-05-24 09:54:19</time>
      </trkpt>
      <trkpt lat="41.1597" lon="0.87917">
        <ele>513.6</ele>
        <time>2022-05-24 09:54:20</time>
      </trkpt>
      <trkpt lat="41.15968" lon="0.87903">
        <ele>513</ele>
        <time>2022-05-24 09:54:21</time>
      </trkpt>
      <trkpt lat="41.15966" lon="0.87892">
        <ele>512.6</ele>
        <time>2022-05-24 09:54:22</time>
      </trkpt>
      <trkpt lat="41.15963" lon="0.87884">
        <ele>512.2</ele>
        <time>2022-05-24 09:54:23</time>
      </trkpt>
      <trkpt lat="41.15958" lon="0.8788">
        <ele>512</ele>
        <time>2022-05-24 09:54:24</time>
      </trkpt>
      <trkpt lat="41.15951" lon="0.87881">
        <ele>511.4</ele>
        <time>2022-05-24 09:54:25</time>
      </trkpt>
      <trkpt lat="41.15944" lon="0.87885">
        <ele>511</ele>
        <time>2022-05-24 09:54:26</time>
      </trkpt>
      <trkpt lat="41.15937" lon="0.87891">
        <ele>510.4</ele>
        <time>2022-05-24 09:54:27</time>
      </trkpt>
      <trkpt lat="41.1593" lon="0.87896">
        <ele>509.8</ele>
        <time>2022-05-24 09:54:28</time>
      </trkpt>
      <trkpt lat="41.15923" lon="0.879">
        <ele>509.4</ele>
        <time>2022-05-24 09:54:29</time>
      </trkpt>
      <trkpt lat="41.15916" lon="0.87904">
        <ele>508.8</ele>
        <time>2022-05-24 09:54:30</time>
      </trkpt>
      <trkpt lat="41.15906" lon="0.87908">
        <ele>508.2</ele>
        <time>2022-05-24 09:54:31</time>
      </trkpt>
      <trkpt lat="41.15897" lon="0.87911">
        <ele>507.6</ele>
        <time>2022-05-24 09:54:32</time>
      </trkpt>
      <trkpt lat="41.15887" lon="0.87913">
        <ele>507</ele>
        <time>2022-05-24 09:54:33</time>
      </trkpt>
      <trkpt lat="41.15879" lon="0.87913">
        <ele>506.4</ele>
        <time>2022-05-24 09:54:34</time>
      </trkpt>
      <trkpt lat="41.15869" lon="0.87911">
        <ele>505.8</ele>
        <time>2022-05-24 09:54:35</time>
      </trkpt>
      <trkpt lat="41.15858" lon="0.87907">
        <ele>505.4</ele>
        <time>2022-05-24 09:54:36</time>
      </trkpt>
      <trkpt lat="41.15849" lon="0.87904">
        <ele>505</ele>
        <time>2022-05-24 09:54:37</time>
      </trkpt>
      <trkpt lat="41.1584" lon="0.87901">
        <ele>504.4</ele>
        <time>2022-05-24 09:54:38</time>
      </trkpt>
      <trkpt lat="41.15833" lon="0.87895">
        <ele>503.8</ele>
        <time>2022-05-24 09:54:39</time>
      </trkpt>
      <trkpt lat="41.15826" lon="0.87884">
        <ele>503.4</ele>
        <time>2022-05-24 09:54:40</time>
      </trkpt>
      <trkpt lat="41.15822" lon="0.87872">
        <ele>502.8</ele>
        <time>2022-05-24 09:54:41</time>
      </trkpt>
      <trkpt lat="41.1582" lon="0.87861">
        <ele>502</ele>
        <time>2022-05-24 09:54:42</time>
      </trkpt>
      <trkpt lat="41.15818" lon="0.87845">
        <ele>501.2</ele>
        <time>2022-05-24 09:54:43</time>
      </trkpt>
      <trkpt lat="41.15817" lon="0.87832">
        <ele>500.6</ele>
        <time>2022-05-24 09:54:44</time>
      </trkpt>
      <trkpt lat="41.15816" lon="0.87818">
        <ele>500.2</ele>
        <time>2022-05-24 09:54:45</time>
      </trkpt>
      <trkpt lat="41.15814" lon="0.87808">
        <ele>499.8</ele>
        <time>2022-05-24 09:54:46</time>
      </trkpt>
      <trkpt lat="41.15811" lon="0.87797">
        <ele>499.2</ele>
        <time>2022-05-24 09:54:47</time>
      </trkpt>
      <trkpt lat="41.15807" lon="0.8779">
        <ele>498.4</ele>
        <time>2022-05-24 09:54:48</time>
      </trkpt>
      <trkpt lat="41.158" lon="0.87786">
        <ele>497.6</ele>
        <time>2022-05-24 09:54:49</time>
      </trkpt>
      <trkpt lat="41.1579" lon="0.87783">
        <ele>496.8</ele>
        <time>2022-05-24 09:54:50</time>
      </trkpt>
      <trkpt lat="41.15782" lon="0.8778">
        <ele>496</ele>
        <time>2022-05-24 09:54:51</time>
      </trkpt>
      <trkpt lat="41.15772" lon="0.87776">
        <ele>495.2</ele>
        <time>2022-05-24 09:54:52</time>
      </trkpt>
      <trkpt lat="41.15763" lon="0.87771">
        <ele>494.4</ele>
        <time>2022-05-24 09:54:53</time>
      </trkpt>
      <trkpt lat="41.15756" lon="0.87767">
        <ele>493.6</ele>
        <time>2022-05-24 09:54:54</time>
      </trkpt>
      <trkpt lat="41.15752" lon="0.87764">
        <ele>493</ele>
        <time>2022-05-24 09:54:55</time>
      </trkpt>
      <trkpt lat="41.15746" lon="0.87759">
        <ele>492.4</ele>
        <time>2022-05-24 09:54:56</time>
      </trkpt>
      <trkpt lat="41.15742" lon="0.87755">
        <ele>491.6</ele>
        <time>2022-05-24 09:54:57</time>
      </trkpt>
      <trkpt lat="41.15739" lon="0.87748">
        <ele>491</ele>
        <time>2022-05-24 09:54:58</time>
      </trkpt>
      <trkpt lat="41.15735" lon="0.87741">
        <ele>490.2</ele>
        <time>2022-05-24 09:54:59</time>
      </trkpt>
      <trkpt lat="41.15731" lon="0.87734">
        <ele>489.4</ele>
        <time>2022-05-24 09:55:00</time>
      </trkpt>
      <trkpt lat="41.15726" lon="0.87728">
        <ele>488.6</ele>
        <time>2022-05-24 09:55:01</time>
      </trkpt>
      <trkpt lat="41.15721" lon="0.87721">
        <ele>487.8</ele>
        <time>2022-05-24 09:55:02</time>
      </trkpt>
      <trkpt lat="41.15717" lon="0.87715">
        <ele>486.8</ele>
        <time>2022-05-24 09:55:03</time>
      </trkpt>
      <trkpt lat="41.15713" lon="0.87707">
        <ele>486</ele>
        <time>2022-05-24 09:55:04</time>
      </trkpt>
      <trkpt lat="41.15711" lon="0.877">
        <ele>485</ele>
        <time>2022-05-24 09:55:05</time>
      </trkpt>
      <trkpt lat="41.15708" lon="0.87689">
        <ele>484.2</ele>
        <time>2022-05-24 09:55:06</time>
      </trkpt>
      <trkpt lat="41.15706" lon="0.8768">
        <ele>483.4</ele>
        <time>2022-05-24 09:55:07</time>
      </trkpt>
      <trkpt lat="41.15704" lon="0.87671">
        <ele>482.8</ele>
        <time>2022-05-24 09:55:08</time>
      </trkpt>
      <trkpt lat="41.15702" lon="0.87664">
        <ele>482.2</ele>
        <time>2022-05-24 09:55:09</time>
      </trkpt>
      <trkpt lat="41.15699" lon="0.87655">
        <ele>481.4</ele>
        <time>2022-05-24 09:55:10</time>
      </trkpt>
      <trkpt lat="41.15697" lon="0.87646">
        <ele>481</ele>
        <time>2022-05-24 09:55:11</time>
      </trkpt>
      <trkpt lat="41.15695" lon="0.87633">
        <ele>480.4</ele>
        <time>2022-05-24 09:55:12</time>
      </trkpt>
      <trkpt lat="41.15693" lon="0.87624">
        <ele>480</ele>
        <time>2022-05-24 09:55:13</time>
      </trkpt>
      <trkpt lat="41.15691" lon="0.87613">
        <ele>479.6</ele>
        <time>2022-05-24 09:55:14</time>
      </trkpt>
      <trkpt lat="41.15691" lon="0.87606">
        <ele>479.6</ele>
        <time>2022-05-24 09:55:15</time>
      </trkpt>
      <trkpt lat="41.15691" lon="0.87597">
        <ele>479.6</ele>
        <time>2022-05-24 09:55:16</time>
      </trkpt>
      <trkpt lat="41.15692" lon="0.87592">
        <ele>479.6</ele>
        <time>2022-05-24 09:55:17</time>
      </trkpt>
      <trkpt lat="41.15695" lon="0.87588">
        <ele>479.6</ele>
        <time>2022-05-24 09:55:18</time>
      </trkpt>
      <trkpt lat="41.15699" lon="0.87585">
        <ele>479.8</ele>
        <time>2022-05-24 09:55:19</time>
      </trkpt>
      <trkpt lat="41.15702" lon="0.87583">
        <ele>479.8</ele>
        <time>2022-05-24 09:55:20</time>
      </trkpt>
      <trkpt lat="41.15705" lon="0.8758">
        <ele>479.8</ele>
        <time>2022-05-24 09:55:21</time>
      </trkpt>
      <trkpt lat="41.15707" lon="0.87577">
        <ele>479.8</ele>
        <time>2022-05-24 09:55:22</time>
      </trkpt>
      <trkpt lat="41.15707" lon="0.87574">
        <ele>479.6</ele>
        <time>2022-05-24 09:55:23</time>
      </trkpt>
      <trkpt lat="41.15707" lon="0.8757">
        <ele>479.4</ele>
        <time>2022-05-24 09:55:24</time>
      </trkpt>
      <trkpt lat="41.15707" lon="0.87565">
        <ele>479</ele>
        <time>2022-05-24 09:55:25</time>
      </trkpt>
      <trkpt lat="41.15707" lon="0.87561">
        <ele>478.8</ele>
        <time>2022-05-24 09:55:26</time>
      </trkpt>
      <trkpt lat="41.15706" lon="0.87555">
        <ele>478.4</ele>
        <time>2022-05-24 09:55:27</time>
      </trkpt>
      <trkpt lat="41.15706" lon="0.87551">
        <ele>478.2</ele>
        <time>2022-05-24 09:55:28</time>
      </trkpt>
      <trkpt lat="41.15707" lon="0.87547">
        <ele>478</ele>
        <time>2022-05-24 09:55:29</time>
      </trkpt>
      <trkpt lat="41.15707" lon="0.87541">
        <ele>477.8</ele>
        <time>2022-05-24 09:55:30</time>
      </trkpt>
      <trkpt lat="41.15707" lon="0.87536">
        <ele>477.4</ele>
        <time>2022-05-24 09:55:31</time>
      </trkpt>
      <trkpt lat="41.15709" lon="0.87531">
        <ele>477.2</ele>
        <time>2022-05-24 09:55:32</time>
      </trkpt>
      <trkpt lat="41.15711" lon="0.87524">
        <ele>477.2</ele>
        <time>2022-05-24 09:55:33</time>
      </trkpt>
      <trkpt lat="41.15713" lon="0.87519">
        <ele>477.2</ele>
        <time>2022-05-24 09:55:34</time>
      </trkpt>
      <trkpt lat="41.15716" lon="0.87514">
        <ele>477</ele>
        <time>2022-05-24 09:55:35</time>
      </trkpt>
      <trkpt lat="41.15719" lon="0.8751">
        <ele>477</ele>
        <time>2022-05-24 09:55:36</time>
      </trkpt>
      <trkpt lat="41.15722" lon="0.87506">
        <ele>477</ele>
        <time>2022-05-24 09:55:37</time>
      </trkpt>
      <trkpt lat="41.15726" lon="0.87503">
        <ele>477.2</ele>
        <time>2022-05-24 09:55:38</time>
      </trkpt>
      <trkpt lat="41.15729" lon="0.87501">
        <ele>477.2</ele>
        <time>2022-05-24 09:55:39</time>
      </trkpt>
      <trkpt lat="41.15732" lon="0.87498">
        <ele>477.2</ele>
        <time>2022-05-24 09:55:40</time>
      </trkpt>
      <trkpt lat="41.15735" lon="0.87495">
        <ele>477.4</ele>
        <time>2022-05-24 09:55:41</time>
      </trkpt>
      <trkpt lat="41.15737" lon="0.87492">
        <ele>477.6</ele>
        <time>2022-05-24 09:55:42</time>
      </trkpt>
      <trkpt lat="41.15739" lon="0.87485">
        <ele>477.8</ele>
        <time>2022-05-24 09:55:43</time>
      </trkpt>
      <trkpt lat="41.1574" lon="0.87479">
        <ele>477.8</ele>
        <time>2022-05-24 09:55:44</time>
      </trkpt>
      <trkpt lat="41.15741" lon="0.87475">
        <ele>478</ele>
        <time>2022-05-24 09:55:45</time>
      </trkpt>
      <trkpt lat="41.15741" lon="0.8747">
        <ele>478.2</ele>
        <time>2022-05-24 09:55:46</time>
      </trkpt>
      <trkpt lat="41.15742" lon="0.87466">
        <ele>478.4</ele>
        <time>2022-05-24 09:55:47</time>
      </trkpt>
      <trkpt lat="41.15742" lon="0.87463">
        <ele>478.4</ele>
        <time>2022-05-24 09:55:48</time>
      </trkpt>
      <trkpt lat="41.15741" lon="0.87459">
        <ele>478.6</ele>
        <time>2022-05-24 09:55:49</time>
      </trkpt>
      <trkpt lat="41.1574" lon="0.87456">
        <ele>478.6</ele>
        <time>2022-05-24 09:55:50</time>
      </trkpt>
      <trkpt lat="41.15738" lon="0.87454">
        <ele>478.8</ele>
        <time>2022-05-24 09:55:51</time>
      </trkpt>
      <trkpt lat="41.15736" lon="0.87451">
        <ele>478.8</ele>
        <time>2022-05-24 09:55:52</time>
      </trkpt>
      <trkpt lat="41.15734" lon="0.87449">
        <ele>478.6</ele>
        <time>2022-05-24 09:55:53</time>
      </trkpt>
      <trkpt lat="41.15731" lon="0.87447">
        <ele>478.4</ele>
        <time>2022-05-24 09:55:54</time>
      </trkpt>
      <trkpt lat="41.15726" lon="0.87444">
        <ele>478.2</ele>
        <time>2022-05-24 09:55:55</time>
      </trkpt>
      <trkpt lat="41.15722" lon="0.87441">
        <ele>478</ele>
        <time>2022-05-24 09:55:56</time>
      </trkpt>
      <trkpt lat="41.15717" lon="0.87436">
        <ele>477.4</ele>
        <time>2022-05-24 09:55:57</time>
      </trkpt>
      <trkpt lat="41.15712" lon="0.87432">
        <ele>477</ele>
        <time>2022-05-24 09:55:58</time>
      </trkpt>
      <trkpt lat="41.15706" lon="0.87426">
        <ele>476.2</ele>
        <time>2022-05-24 09:55:59</time>
      </trkpt>
      <trkpt lat="41.15701" lon="0.87422">
        <ele>475.6</ele>
        <time>2022-05-24 09:56:00</time>
      </trkpt>
      <trkpt lat="41.15693" lon="0.87414">
        <ele>475</ele>
        <time>2022-05-24 09:56:01</time>
      </trkpt>
      <trkpt lat="41.15688" lon="0.87408">
        <ele>474.4</ele>
        <time>2022-05-24 09:56:02</time>
      </trkpt>
      <trkpt lat="41.15682" lon="0.87399">
        <ele>473.8</ele>
        <time>2022-05-24 09:56:03</time>
      </trkpt>
      <trkpt lat="41.15678" lon="0.87391">
        <ele>473.2</ele>
        <time>2022-05-24 09:56:04</time>
      </trkpt>
      <trkpt lat="41.15673" lon="0.8738">
        <ele>472.8</ele>
        <time>2022-05-24 09:56:05</time>
      </trkpt>
      <trkpt lat="41.1567" lon="0.87373">
        <ele>472.2</ele>
        <time>2022-05-24 09:56:06</time>
      </trkpt>
      <trkpt lat="41.15665" lon="0.8736">
        <ele>471.6</ele>
        <time>2022-05-24 09:56:07</time>
      </trkpt>
      <trkpt lat="41.1566" lon="0.87352">
        <ele>471.2</ele>
        <time>2022-05-24 09:56:08</time>
      </trkpt>
      <trkpt lat="41.15654" lon="0.87343">
        <ele>470.6</ele>
        <time>2022-05-24 09:56:09</time>
      </trkpt>
      <trkpt lat="41.15647" lon="0.87335">
        <ele>469.8</ele>
        <time>2022-05-24 09:56:10</time>
      </trkpt>
      <trkpt lat="41.15639" lon="0.8733">
        <ele>469.2</ele>
        <time>2022-05-24 09:56:11</time>
      </trkpt>
      <trkpt lat="41.1563" lon="0.87325">
        <ele>468.8</ele>
        <time>2022-05-24 09:56:12</time>
      </trkpt>
      <trkpt lat="41.15619" lon="0.87321">
        <ele>468.4</ele>
        <time>2022-05-24 09:56:13</time>
      </trkpt>
      <trkpt lat="41.15611" lon="0.87318">
        <ele>468.2</ele>
        <time>2022-05-24 09:56:14</time>
      </trkpt>
      <trkpt lat="41.156" lon="0.87315">
        <ele>468</ele>
        <time>2022-05-24 09:56:15</time>
      </trkpt>
      <trkpt lat="41.15593" lon="0.87313">
        <ele>467.8</ele>
        <time>2022-05-24 09:56:16</time>
      </trkpt>
      <trkpt lat="41.15583" lon="0.8731">
        <ele>467.8</ele>
        <time>2022-05-24 09:56:17</time>
      </trkpt>
      <trkpt lat="41.15577" lon="0.87309">
        <ele>467.6</ele>
        <time>2022-05-24 09:56:18</time>
      </trkpt>
      <trkpt lat="41.15567" lon="0.87305">
        <ele>467.2</ele>
        <time>2022-05-24 09:56:19</time>
      </trkpt>
      <trkpt lat="41.1556" lon="0.87302">
        <ele>467</ele>
        <time>2022-05-24 09:56:20</time>
      </trkpt>
      <trkpt lat="41.1555" lon="0.87298">
        <ele>466.6</ele>
        <time>2022-05-24 09:56:21</time>
      </trkpt>
      <trkpt lat="41.15543" lon="0.87294">
        <ele>466</ele>
        <time>2022-05-24 09:56:22</time>
      </trkpt>
      <trkpt lat="41.15534" lon="0.87287">
        <ele>465.6</ele>
        <time>2022-05-24 09:56:23</time>
      </trkpt>
      <trkpt lat="41.15527" lon="0.87279">
        <ele>464.8</ele>
        <time>2022-05-24 09:56:24</time>
      </trkpt>
      <trkpt lat="41.15522" lon="0.87269">
        <ele>464.2</ele>
        <time>2022-05-24 09:56:25</time>
      </trkpt>
      <trkpt lat="41.15518" lon="0.87256">
        <ele>463.6</ele>
        <time>2022-05-24 09:56:26</time>
      </trkpt>
      <trkpt lat="41.15515" lon="0.87243">
        <ele>463</ele>
        <time>2022-05-24 09:56:27</time>
      </trkpt>
      <trkpt lat="41.15513" lon="0.87231">
        <ele>462.2</ele>
        <time>2022-05-24 09:56:28</time>
      </trkpt>
      <trkpt lat="41.15513" lon="0.87217">
        <ele>461.4</ele>
        <time>2022-05-24 09:56:29</time>
      </trkpt>
      <trkpt lat="41.15511" lon="0.87203">
        <ele>461</ele>
        <time>2022-05-24 09:56:30</time>
      </trkpt>
      <trkpt lat="41.15506" lon="0.8719">
        <ele>460.2</ele>
        <time>2022-05-24 09:56:31</time>
      </trkpt>
      <trkpt lat="41.15499" lon="0.87178">
        <ele>459.4</ele>
        <time>2022-05-24 09:56:32</time>
      </trkpt>
      <trkpt lat="41.15491" lon="0.8717">
        <ele>458.8</ele>
        <time>2022-05-24 09:56:33</time>
      </trkpt>
      <trkpt lat="41.1548" lon="0.87164">
        <ele>458</ele>
        <time>2022-05-24 09:56:34</time>
      </trkpt>
      <trkpt lat="41.1547" lon="0.8716">
        <ele>457.2</ele>
        <time>2022-05-24 09:56:35</time>
      </trkpt>
      <trkpt lat="41.15459" lon="0.87152">
        <ele>456.4</ele>
        <time>2022-05-24 09:56:36</time>
      </trkpt>
      <trkpt lat="41.15451" lon="0.87143">
        <ele>455.6</ele>
        <time>2022-05-24 09:56:37</time>
      </trkpt>
      <trkpt lat="41.15443" lon="0.87132">
        <ele>454.6</ele>
        <time>2022-05-24 09:56:38</time>
      </trkpt>
      <trkpt lat="41.15435" lon="0.87119">
        <ele>453.8</ele>
        <time>2022-05-24 09:56:39</time>
      </trkpt>
      <trkpt lat="41.15426" lon="0.87106">
        <ele>453</ele>
        <time>2022-05-24 09:56:40</time>
      </trkpt>
      <trkpt lat="41.15418" lon="0.87093">
        <ele>452</ele>
        <time>2022-05-24 09:56:41</time>
      </trkpt>
      <trkpt lat="41.15413" lon="0.8708">
        <ele>451.4</ele>
        <time>2022-05-24 09:56:42</time>
      </trkpt>
      <trkpt lat="41.1541" lon="0.87062">
        <ele>450.4</ele>
        <time>2022-05-24 09:56:43</time>
      </trkpt>
      <trkpt lat="41.1541" lon="0.87047">
        <ele>449.6</ele>
        <time>2022-05-24 09:56:44</time>
      </trkpt>
      <trkpt lat="41.1541" lon="0.87029">
        <ele>449</ele>
        <time>2022-05-24 09:56:45</time>
      </trkpt>
      <trkpt lat="41.15408" lon="0.87013">
        <ele>448.4</ele>
        <time>2022-05-24 09:56:46</time>
      </trkpt>
      <trkpt lat="41.154" lon="0.87003">
        <ele>447.8</ele>
        <time>2022-05-24 09:56:47</time>
      </trkpt>
      <trkpt lat="41.1539" lon="0.86999">
        <ele>447.2</ele>
        <time>2022-05-24 09:56:48</time>
      </trkpt>
      <trkpt lat="41.15379" lon="0.87">
        <ele>446.4</ele>
        <time>2022-05-24 09:56:49</time>
      </trkpt>
      <trkpt lat="41.15368" lon="0.87003">
        <ele>445.6</ele>
        <time>2022-05-24 09:56:50</time>
      </trkpt>
      <trkpt lat="41.15357" lon="0.87008">
        <ele>444.6</ele>
        <time>2022-05-24 09:56:51</time>
      </trkpt>
      <trkpt lat="41.15345" lon="0.87011">
        <ele>443.4</ele>
        <time>2022-05-24 09:56:52</time>
      </trkpt>
      <trkpt lat="41.15335" lon="0.87015">
        <ele>442.4</ele>
        <time>2022-05-24 09:56:53</time>
      </trkpt>
      <trkpt lat="41.15322" lon="0.8702">
        <ele>441.6</ele>
        <time>2022-05-24 09:56:54</time>
      </trkpt>
      <trkpt lat="41.15311" lon="0.87026">
        <ele>440.8</ele>
        <time>2022-05-24 09:56:55</time>
      </trkpt>
      <trkpt lat="41.153" lon="0.87031">
        <ele>439.6</ele>
        <time>2022-05-24 09:56:56</time>
      </trkpt>
      <trkpt lat="41.15288" lon="0.87037">
        <ele>438.8</ele>
        <time>2022-05-24 09:56:57</time>
      </trkpt>
      <trkpt lat="41.15277" lon="0.87041">
        <ele>437.8</ele>
        <time>2022-05-24 09:56:58</time>
      </trkpt>
      <trkpt lat="41.15264" lon="0.87043">
        <ele>437</ele>
        <time>2022-05-24 09:56:59</time>
      </trkpt>
      <trkpt lat="41.15252" lon="0.87042">
        <ele>436.4</ele>
        <time>2022-05-24 09:57:00</time>
      </trkpt>
      <trkpt lat="41.15241" lon="0.87036">
        <ele>435.6</ele>
        <time>2022-05-24 09:57:01</time>
      </trkpt>
      <trkpt lat="41.15231" lon="0.87027">
        <ele>435.2</ele>
        <time>2022-05-24 09:57:02</time>
      </trkpt>
      <trkpt lat="41.15223" lon="0.87015">
        <ele>434.6</ele>
        <time>2022-05-24 09:57:03</time>
      </trkpt>
      <trkpt lat="41.15216" lon="0.87004">
        <ele>434.4</ele>
        <time>2022-05-24 09:57:04</time>
      </trkpt>
      <trkpt lat="41.15208" lon="0.86992">
        <ele>433.8</ele>
        <time>2022-05-24 09:57:05</time>
      </trkpt>
      <trkpt lat="41.15199" lon="0.86981">
        <ele>433.4</ele>
        <time>2022-05-24 09:57:06</time>
      </trkpt>
      <trkpt lat="41.15191" lon="0.86973">
        <ele>433</ele>
        <time>2022-05-24 09:57:07</time>
      </trkpt>
      <trkpt lat="41.15183" lon="0.86964">
        <ele>432.8</ele>
        <time>2022-05-24 09:57:08</time>
      </trkpt>
      <trkpt lat="41.15176" lon="0.86955">
        <ele>432.4</ele>
        <time>2022-05-24 09:57:09</time>
      </trkpt>
      <trkpt lat="41.15168" lon="0.86945">
        <ele>432</ele>
        <time>2022-05-24 09:57:10</time>
      </trkpt>
      <trkpt lat="41.1516" lon="0.86935">
        <ele>431.8</ele>
        <time>2022-05-24 09:57:11</time>
      </trkpt>
      <trkpt lat="41.15152" lon="0.86925">
        <ele>431.4</ele>
        <time>2022-05-24 09:57:12</time>
      </trkpt>
      <trkpt lat="41.15143" lon="0.86912">
        <ele>431</ele>
        <time>2022-05-24 09:57:13</time>
      </trkpt>
      <trkpt lat="41.15137" lon="0.86903">
        <ele>430.8</ele>
        <time>2022-05-24 09:57:14</time>
      </trkpt>
      <trkpt lat="41.15132" lon="0.86896">
        <ele>430.6</ele>
        <time>2022-05-24 09:57:15</time>
      </trkpt>
      <trkpt lat="41.15126" lon="0.86889">
        <ele>430.6</ele>
        <time>2022-05-24 09:57:16</time>
      </trkpt>
      <trkpt lat="41.15117" lon="0.86878">
        <ele>430.4</ele>
        <time>2022-05-24 09:57:17</time>
      </trkpt>
      <trkpt lat="41.15111" lon="0.86869">
        <ele>430</ele>
        <time>2022-05-24 09:57:18</time>
      </trkpt>
      <trkpt lat="41.15106" lon="0.8686">
        <ele>429.8</ele>
        <time>2022-05-24 09:57:19</time>
      </trkpt>
      <trkpt lat="41.151" lon="0.8685">
        <ele>429.4</ele>
        <time>2022-05-24 09:57:20</time>
      </trkpt>
      <trkpt lat="41.15095" lon="0.86839">
        <ele>429</ele>
        <time>2022-05-24 09:57:21</time>
      </trkpt>
      <trkpt lat="41.1509" lon="0.86828">
        <ele>428.8</ele>
        <time>2022-05-24 09:57:22</time>
      </trkpt>
      <trkpt lat="41.15084" lon="0.86818">
        <ele>428.6</ele>
        <time>2022-05-24 09:57:23</time>
      </trkpt>
      <trkpt lat="41.15078" lon="0.86808">
        <ele>428.4</ele>
        <time>2022-05-24 09:57:24</time>
      </trkpt>
      <trkpt lat="41.15073" lon="0.86798">
        <ele>428.4</ele>
        <time>2022-05-24 09:57:25</time>
      </trkpt>
      <trkpt lat="41.15068" lon="0.86789">
        <ele>428.2</ele>
        <time>2022-05-24 09:57:26</time>
      </trkpt>
      <trkpt lat="41.15063" lon="0.86779">
        <ele>428.2</ele>
        <time>2022-05-24 09:57:27</time>
      </trkpt>
      <trkpt lat="41.15058" lon="0.8677">
        <ele>428.2</ele>
        <time>2022-05-24 09:57:28</time>
      </trkpt>
      <trkpt lat="41.15053" lon="0.86761">
        <ele>428.2</ele>
        <time>2022-05-24 09:57:29</time>
      </trkpt>
      <trkpt lat="41.15048" lon="0.86753">
        <ele>428.2</ele>
        <time>2022-05-24 09:57:30</time>
      </trkpt>
      <trkpt lat="41.15043" lon="0.86745">
        <ele>428</ele>
        <time>2022-05-24 09:57:31</time>
      </trkpt>
      <trkpt lat="41.15038" lon="0.86736">
        <ele>428</ele>
        <time>2022-05-24 09:57:32</time>
      </trkpt>
      <trkpt lat="41.15033" lon="0.86727">
        <ele>427.8</ele>
        <time>2022-05-24 09:57:33</time>
      </trkpt>
      <trkpt lat="41.15029" lon="0.86719">
        <ele>427.8</ele>
        <time>2022-05-24 09:57:34</time>
      </trkpt>
      <trkpt lat="41.15024" lon="0.8671">
        <ele>427.4</ele>
        <time>2022-05-24 09:57:35</time>
      </trkpt>
      <trkpt lat="41.15019" lon="0.86701">
        <ele>427</ele>
        <time>2022-05-24 09:57:36</time>
      </trkpt>
      <trkpt lat="41.15014" lon="0.86692">
        <ele>426.8</ele>
        <time>2022-05-24 09:57:37</time>
      </trkpt>
      <trkpt lat="41.1501" lon="0.86683">
        <ele>426.4</ele>
        <time>2022-05-24 09:57:38</time>
      </trkpt>
      <trkpt lat="41.15005" lon="0.86675">
        <ele>426.2</ele>
        <time>2022-05-24 09:57:39</time>
      </trkpt>
      <trkpt lat="41.15" lon="0.86666">
        <ele>426</ele>
        <time>2022-05-24 09:57:40</time>
      </trkpt>
      <trkpt lat="41.14995" lon="0.86658">
        <ele>425.8</ele>
        <time>2022-05-24 09:57:41</time>
      </trkpt>
      <trkpt lat="41.14991" lon="0.8665">
        <ele>425.8</ele>
        <time>2022-05-24 09:57:42</time>
      </trkpt>
      <trkpt lat="41.14986" lon="0.86642">
        <ele>425.8</ele>
        <time>2022-05-24 09:57:43</time>
      </trkpt>
      <trkpt lat="41.14982" lon="0.86635">
        <ele>425.8</ele>
        <time>2022-05-24 09:57:44</time>
      </trkpt>
      <trkpt lat="41.14977" lon="0.86627">
        <ele>425.6</ele>
        <time>2022-05-24 09:57:45</time>
      </trkpt>
      <trkpt lat="41.14972" lon="0.8662">
        <ele>425.6</ele>
        <time>2022-05-24 09:57:46</time>
      </trkpt>
      <trkpt lat="41.14967" lon="0.86612">
        <ele>425.4</ele>
        <time>2022-05-24 09:57:47</time>
      </trkpt>
      <trkpt lat="41.14962" lon="0.86605">
        <ele>425.2</ele>
        <time>2022-05-24 09:57:48</time>
      </trkpt>
      <trkpt lat="41.14957" lon="0.86597">
        <ele>424.8</ele>
        <time>2022-05-24 09:57:49</time>
      </trkpt>
      <trkpt lat="41.14951" lon="0.8659">
        <ele>424.6</ele>
        <time>2022-05-24 09:57:50</time>
      </trkpt>
      <trkpt lat="41.14946" lon="0.86583">
        <ele>424.4</ele>
        <time>2022-05-24 09:57:51</time>
      </trkpt>
      <trkpt lat="41.14939" lon="0.86576">
        <ele>424</ele>
        <time>2022-05-24 09:57:52</time>
      </trkpt>
      <trkpt lat="41.14933" lon="0.86571">
        <ele>423.8</ele>
        <time>2022-05-24 09:57:53</time>
      </trkpt>
      <trkpt lat="41.14925" lon="0.86567">
        <ele>423.2</ele>
        <time>2022-05-24 09:57:54</time>
      </trkpt>
      <trkpt lat="41.14917" lon="0.86564">
        <ele>422.8</ele>
        <time>2022-05-24 09:57:55</time>
      </trkpt>
      <trkpt lat="41.14908" lon="0.86563">
        <ele>422.2</ele>
        <time>2022-05-24 09:57:56</time>
      </trkpt>
      <trkpt lat="41.14899" lon="0.86562">
        <ele>421.6</ele>
        <time>2022-05-24 09:57:57</time>
      </trkpt>
      <trkpt lat="41.1489" lon="0.86562">
        <ele>421.2</ele>
        <time>2022-05-24 09:57:58</time>
      </trkpt>
      <trkpt lat="41.14881" lon="0.86562">
        <ele>420.6</ele>
        <time>2022-05-24 09:57:59</time>
      </trkpt>
      <trkpt lat="41.14872" lon="0.86562">
        <ele>420.2</ele>
        <time>2022-05-24 09:58:00</time>
      </trkpt>
      <trkpt lat="41.14862" lon="0.86561">
        <ele>419.6</ele>
        <time>2022-05-24 09:58:01</time>
      </trkpt>
      <trkpt lat="41.14854" lon="0.8656">
        <ele>419.2</ele>
        <time>2022-05-24 09:58:02</time>
      </trkpt>
      <trkpt lat="41.14843" lon="0.86557">
        <ele>418.2</ele>
        <time>2022-05-24 09:58:03</time>
      </trkpt>
      <trkpt lat="41.14834" lon="0.86554">
        <ele>417.6</ele>
        <time>2022-05-24 09:58:04</time>
      </trkpt>
      <trkpt lat="41.14823" lon="0.86551">
        <ele>416.8</ele>
        <time>2022-05-24 09:58:05</time>
      </trkpt>
      <trkpt lat="41.14813" lon="0.86546">
        <ele>416</ele>
        <time>2022-05-24 09:58:06</time>
      </trkpt>
      <trkpt lat="41.14804" lon="0.8654">
        <ele>415.4</ele>
        <time>2022-05-24 09:58:07</time>
      </trkpt>
      <trkpt lat="41.14795" lon="0.86532">
        <ele>414.6</ele>
        <time>2022-05-24 09:58:08</time>
      </trkpt>
      <trkpt lat="41.14788" lon="0.86523">
        <ele>413.8</ele>
        <time>2022-05-24 09:58:09</time>
      </trkpt>
      <trkpt lat="41.1478" lon="0.86513">
        <ele>413.2</ele>
        <time>2022-05-24 09:58:10</time>
      </trkpt>
      <trkpt lat="41.14773" lon="0.86503">
        <ele>412.4</ele>
        <time>2022-05-24 09:58:11</time>
      </trkpt>
      <trkpt lat="41.14766" lon="0.86493">
        <ele>411.8</ele>
        <time>2022-05-24 09:58:12</time>
      </trkpt>
      <trkpt lat="41.14759" lon="0.86484">
        <ele>411.2</ele>
        <time>2022-05-24 09:58:13</time>
      </trkpt>
      <trkpt lat="41.14752" lon="0.86475">
        <ele>410.8</ele>
        <time>2022-05-24 09:58:14</time>
      </trkpt>
      <trkpt lat="41.14745" lon="0.86467">
        <ele>410.4</ele>
        <time>2022-05-24 09:58:15</time>
      </trkpt>
      <trkpt lat="41.14738" lon="0.86459">
        <ele>410.2</ele>
        <time>2022-05-24 09:58:16</time>
      </trkpt>
      <trkpt lat="41.1473" lon="0.86453">
        <ele>410</ele>
        <time>2022-05-24 09:58:17</time>
      </trkpt>
      <trkpt lat="41.14722" lon="0.86449">
        <ele>410</ele>
        <time>2022-05-24 09:58:18</time>
      </trkpt>
      <trkpt lat="41.14714" lon="0.86446">
        <ele>409.8</ele>
        <time>2022-05-24 09:58:19</time>
      </trkpt>
      <trkpt lat="41.14705" lon="0.86445">
        <ele>409.8</ele>
        <time>2022-05-24 09:58:20</time>
      </trkpt>
      <trkpt lat="41.14697" lon="0.86443">
        <ele>409.6</ele>
        <time>2022-05-24 09:58:21</time>
      </trkpt>
      <trkpt lat="41.1469" lon="0.8644">
        <ele>409.6</ele>
        <time>2022-05-24 09:58:22</time>
      </trkpt>
      <trkpt lat="41.14684" lon="0.86433">
        <ele>409.6</ele>
        <time>2022-05-24 09:58:23</time>
      </trkpt>
      <trkpt lat="41.14679" lon="0.86425">
        <ele>409.4</ele>
        <time>2022-05-24 09:58:24</time>
      </trkpt>
      <trkpt lat="41.14677" lon="0.86417">
        <ele>409.4</ele>
        <time>2022-05-24 09:58:25</time>
      </trkpt>
      <trkpt lat="41.14676" lon="0.86407">
        <ele>409.4</ele>
        <time>2022-05-24 09:58:26</time>
      </trkpt>
      <trkpt lat="41.14677" lon="0.86396">
        <ele>409.4</ele>
        <time>2022-05-24 09:58:27</time>
      </trkpt>
      <trkpt lat="41.14677" lon="0.86387">
        <ele>409.4</ele>
        <time>2022-05-24 09:58:28</time>
      </trkpt>
      <trkpt lat="41.14677" lon="0.86377">
        <ele>409.6</ele>
        <time>2022-05-24 09:58:29</time>
      </trkpt>
      <trkpt lat="41.14677" lon="0.86368">
        <ele>409.6</ele>
        <time>2022-05-24 09:58:30</time>
      </trkpt>
      <trkpt lat="41.14677" lon="0.8636">
        <ele>409.8</ele>
        <time>2022-05-24 09:58:31</time>
      </trkpt>
      <trkpt lat="41.14677" lon="0.8635">
        <ele>409.8</ele>
        <time>2022-05-24 09:58:32</time>
      </trkpt>
      <trkpt lat="41.14677" lon="0.86343">
        <ele>410</ele>
        <time>2022-05-24 09:58:33</time>
      </trkpt>
      <trkpt lat="41.14677" lon="0.86334">
        <ele>410.2</ele>
        <time>2022-05-24 09:58:34</time>
      </trkpt>
      <trkpt lat="41.14677" lon="0.86327">
        <ele>410.6</ele>
        <time>2022-05-24 09:58:35</time>
      </trkpt>
      <trkpt lat="41.14677" lon="0.86322">
        <ele>410.8</ele>
        <time>2022-05-24 09:58:36</time>
      </trkpt>
      <trkpt lat="41.14678" lon="0.86315">
        <ele>411.2</ele>
        <time>2022-05-24 09:58:37</time>
      </trkpt>
      <trkpt lat="41.14678" lon="0.86309">
        <ele>411.4</ele>
        <time>2022-05-24 09:58:38</time>
      </trkpt>
      <trkpt lat="41.14678" lon="0.86303">
        <ele>411.8</ele>
        <time>2022-05-24 09:58:39</time>
      </trkpt>
      <trkpt lat="41.14678" lon="0.86298">
        <ele>412</ele>
        <time>2022-05-24 09:58:40</time>
      </trkpt>
      <trkpt lat="41.14678" lon="0.86293">
        <ele>412.4</ele>
        <time>2022-05-24 09:58:41</time>
      </trkpt>
      <trkpt lat="41.14678" lon="0.86288">
        <ele>412.6</ele>
        <time>2022-05-24 09:58:42</time>
      </trkpt>
      <trkpt lat="41.14678" lon="0.86283">
        <ele>413</ele>
        <time>2022-05-24 09:58:43</time>
      </trkpt>
      <trkpt lat="41.14678" lon="0.86278">
        <ele>413.2</ele>
        <time>2022-05-24 09:58:44</time>
      </trkpt>
      <trkpt lat="41.14678" lon="0.86273">
        <ele>413.4</ele>
        <time>2022-05-24 09:58:45</time>
      </trkpt>
      <trkpt lat="41.14678" lon="0.86268">
        <ele>413.8</ele>
        <time>2022-05-24 09:58:46</time>
      </trkpt>
      <trkpt lat="41.14677" lon="0.86263">
        <ele>414</ele>
        <time>2022-05-24 09:58:47</time>
      </trkpt>
      <trkpt lat="41.14677" lon="0.86257">
        <ele>414.2</ele>
        <time>2022-05-24 09:58:48</time>
      </trkpt>
      <trkpt lat="41.14676" lon="0.86251">
        <ele>414.2</ele>
        <time>2022-05-24 09:58:49</time>
      </trkpt>
      <trkpt lat="41.14676" lon="0.86246">
        <ele>414.4</ele>
        <time>2022-05-24 09:58:50</time>
      </trkpt>
      <trkpt lat="41.14674" lon="0.8624">
        <ele>414.4</ele>
        <time>2022-05-24 09:58:51</time>
      </trkpt>
      <trkpt lat="41.14673" lon="0.86235">
        <ele>414.6</ele>
        <time>2022-05-24 09:58:52</time>
      </trkpt>
      <trkpt lat="41.14671" lon="0.86229">
        <ele>414.6</ele>
        <time>2022-05-24 09:58:53</time>
      </trkpt>
      <trkpt lat="41.14668" lon="0.86224">
        <ele>414.6</ele>
        <time>2022-05-24 09:58:54</time>
      </trkpt>
      <trkpt lat="41.14665" lon="0.8622">
        <ele>414.8</ele>
        <time>2022-05-24 09:58:55</time>
      </trkpt>
      <trkpt lat="41.14662" lon="0.86215">
        <ele>414.8</ele>
        <time>2022-05-24 09:58:56</time>
      </trkpt>
      <trkpt lat="41.14659" lon="0.86211">
        <ele>415</ele>
        <time>2022-05-24 09:58:57</time>
      </trkpt>
      <trkpt lat="41.14656" lon="0.86207">
        <ele>415</ele>
        <time>2022-05-24 09:58:58</time>
      </trkpt>
      <trkpt lat="41.14652" lon="0.86202">
        <ele>415</ele>
        <time>2022-05-24 09:58:59</time>
      </trkpt>
      <trkpt lat="41.14648" lon="0.86198">
        <ele>415.2</ele>
        <time>2022-05-24 09:59:00</time>
      </trkpt>
      <trkpt lat="41.14644" lon="0.86193">
        <ele>415.2</ele>
        <time>2022-05-24 09:59:01</time>
      </trkpt>
      <trkpt lat="41.14641" lon="0.8619">
        <ele>415.2</ele>
        <time>2022-05-24 09:59:02</time>
      </trkpt>
      <trkpt lat="41.14637" lon="0.86186">
        <ele>415.4</ele>
        <time>2022-05-24 09:59:03</time>
      </trkpt>
      <trkpt lat="41.14633" lon="0.86183">
        <ele>415.4</ele>
        <time>2022-05-24 09:59:04</time>
      </trkpt>
      <trkpt lat="41.14629" lon="0.86179">
        <ele>415.6</ele>
        <time>2022-05-24 09:59:05</time>
      </trkpt>
      <trkpt lat="41.14626" lon="0.86175">
        <ele>415.6</ele>
        <time>2022-05-24 09:59:06</time>
      </trkpt>
      <trkpt lat="41.14622" lon="0.86171">
        <ele>415.6</ele>
        <time>2022-05-24 09:59:07</time>
      </trkpt>
      <trkpt lat="41.14618" lon="0.86168">
        <ele>415.8</ele>
        <time>2022-05-24 09:59:08</time>
      </trkpt>
      <trkpt lat="41.14614" lon="0.86162">
        <ele>415.8</ele>
        <time>2022-05-24 09:59:09</time>
      </trkpt>
      <trkpt lat="41.14611" lon="0.86158">
        <ele>416</ele>
        <time>2022-05-24 09:59:10</time>
      </trkpt>
      <trkpt lat="41.14607" lon="0.86153">
        <ele>416</ele>
        <time>2022-05-24 09:59:11</time>
      </trkpt>
      <trkpt lat="41.14605" lon="0.86149">
        <ele>416</ele>
        <time>2022-05-24 09:59:12</time>
      </trkpt>
      <trkpt lat="41.14603" lon="0.86143">
        <ele>416.2</ele>
        <time>2022-05-24 09:59:13</time>
      </trkpt>
      <trkpt lat="41.14601" lon="0.86138">
        <ele>416.2</ele>
        <time>2022-05-24 09:59:14</time>
      </trkpt>
      <trkpt lat="41.146" lon="0.86132">
        <ele>416.2</ele>
        <time>2022-05-24 09:59:15</time>
      </trkpt>
      <trkpt lat="41.14598" lon="0.86126">
        <ele>416.2</ele>
        <time>2022-05-24 09:59:16</time>
      </trkpt>
      <trkpt lat="41.14596" lon="0.86121">
        <ele>416.4</ele>
        <time>2022-05-24 09:59:17</time>
      </trkpt>
      <trkpt lat="41.14595" lon="0.86115">
        <ele>416.4</ele>
        <time>2022-05-24 09:59:18</time>
      </trkpt>
      <trkpt lat="41.14594" lon="0.86111">
        <ele>416.4</ele>
        <time>2022-05-24 09:59:19</time>
      </trkpt>
      <trkpt lat="41.14592" lon="0.86106">
        <ele>416.6</ele>
        <time>2022-05-24 09:59:20</time>
      </trkpt>
      <trkpt lat="41.1459" lon="0.861">
        <ele>416.6</ele>
        <time>2022-05-24 09:59:21</time>
      </trkpt>
      <trkpt lat="41.14589" lon="0.86095">
        <ele>416.8</ele>
        <time>2022-05-24 09:59:22</time>
      </trkpt>
      <trkpt lat="41.14588" lon="0.8609">
        <ele>417</ele>
        <time>2022-05-24 09:59:23</time>
      </trkpt>
      <trkpt lat="41.14586" lon="0.86085">
        <ele>417.2</ele>
        <time>2022-05-24 09:59:24</time>
      </trkpt>
      <trkpt lat="41.14585" lon="0.8608">
        <ele>417.2</ele>
        <time>2022-05-24 09:59:25</time>
      </trkpt>
      <trkpt lat="41.14583" lon="0.86076">
        <ele>417.4</ele>
        <time>2022-05-24 09:59:26</time>
      </trkpt>
      <trkpt lat="41.14581" lon="0.86071">
        <ele>417.6</ele>
        <time>2022-05-24 09:59:27</time>
      </trkpt>
      <trkpt lat="41.14579" lon="0.86067">
        <ele>417.8</ele>
        <time>2022-05-24 09:59:28</time>
      </trkpt>
      <trkpt lat="41.14577" lon="0.86063">
        <ele>417.8</ele>
        <time>2022-05-24 09:59:29</time>
      </trkpt>
      <trkpt lat="41.14574" lon="0.86059">
        <ele>418</ele>
        <time>2022-05-24 09:59:30</time>
      </trkpt>
      <trkpt lat="41.14571" lon="0.86055">
        <ele>418</ele>
        <time>2022-05-24 09:59:31</time>
      </trkpt>
      <trkpt lat="41.14568" lon="0.86052">
        <ele>418.2</ele>
        <time>2022-05-24 09:59:32</time>
      </trkpt>
      <trkpt lat="41.14564" lon="0.86048">
        <ele>418.2</ele>
        <time>2022-05-24 09:59:33</time>
      </trkpt>
      <trkpt lat="41.14561" lon="0.86045">
        <ele>418.2</ele>
        <time>2022-05-24 09:59:34</time>
      </trkpt>
      <trkpt lat="41.14557" lon="0.86042">
        <ele>418</ele>
        <time>2022-05-24 09:59:35</time>
      </trkpt>
      <trkpt lat="41.14553" lon="0.86039">
        <ele>418</ele>
        <time>2022-05-24 09:59:36</time>
      </trkpt>
      <trkpt lat="41.14548" lon="0.86037">
        <ele>418</ele>
        <time>2022-05-24 09:59:37</time>
      </trkpt>
      <trkpt lat="41.14543" lon="0.86033">
        <ele>418</ele>
        <time>2022-05-24 09:59:38</time>
      </trkpt>
      <trkpt lat="41.14538" lon="0.86031">
        <ele>417.8</ele>
        <time>2022-05-24 09:59:39</time>
      </trkpt>
      <trkpt lat="41.14534" lon="0.86028">
        <ele>417.8</ele>
        <time>2022-05-24 09:59:40</time>
      </trkpt>
      <trkpt lat="41.14529" lon="0.86024">
        <ele>417.8</ele>
        <time>2022-05-24 09:59:41</time>
      </trkpt>
      <trkpt lat="41.14525" lon="0.8602">
        <ele>417.8</ele>
        <time>2022-05-24 09:59:42</time>
      </trkpt>
      <trkpt lat="41.14522" lon="0.86016">
        <ele>417.8</ele>
        <time>2022-05-24 09:59:43</time>
      </trkpt>
      <trkpt lat="41.14518" lon="0.86011">
        <ele>417.8</ele>
        <time>2022-05-24 09:59:44</time>
      </trkpt>
      <trkpt lat="41.14516" lon="0.86007">
        <ele>417.8</ele>
        <time>2022-05-24 09:59:45</time>
      </trkpt>
      <trkpt lat="41.14513" lon="0.86001">
        <ele>417.8</ele>
        <time>2022-05-24 09:59:46</time>
      </trkpt>
      <trkpt lat="41.14511" lon="0.85997">
        <ele>417.8</ele>
        <time>2022-05-24 09:59:47</time>
      </trkpt>
      <trkpt lat="41.14508" lon="0.85991">
        <ele>418</ele>
        <time>2022-05-24 09:59:48</time>
      </trkpt>
      <trkpt lat="41.14507" lon="0.85986">
        <ele>418</ele>
        <time>2022-05-24 09:59:49</time>
      </trkpt>
      <trkpt lat="41.14505" lon="0.8598">
        <ele>418</ele>
        <time>2022-05-24 09:59:50</time>
      </trkpt>
      <trkpt lat="41.14504" lon="0.85974">
        <ele>418.2</ele>
        <time>2022-05-24 09:59:51</time>
      </trkpt>
      <trkpt lat="41.14504" lon="0.85969">
        <ele>418.2</ele>
        <time>2022-05-24 09:59:52</time>
      </trkpt>
      <trkpt lat="41.14503" lon="0.85963">
        <ele>418.4</ele>
        <time>2022-05-24 09:59:53</time>
      </trkpt>
      <trkpt lat="41.14503" lon="0.85957">
        <ele>418.4</ele>
        <time>2022-05-24 09:59:54</time>
      </trkpt>
      <trkpt lat="41.14502" lon="0.85952">
        <ele>418.6</ele>
        <time>2022-05-24 09:59:55</time>
      </trkpt>
      <trkpt lat="41.14502" lon="0.85946">
        <ele>418.6</ele>
        <time>2022-05-24 09:59:56</time>
      </trkpt>
      <trkpt lat="41.14502" lon="0.8594">
        <ele>418.8</ele>
        <time>2022-05-24 09:59:57</time>
      </trkpt>
      <trkpt lat="41.14501" lon="0.85936">
        <ele>418.8</ele>
        <time>2022-05-24 09:59:58</time>
      </trkpt>
      <trkpt lat="41.145" lon="0.85929">
        <ele>418.8</ele>
        <time>2022-05-24 09:59:59</time>
      </trkpt>
      <trkpt lat="41.145" lon="0.85924">
        <ele>419</ele>
        <time>2022-05-24 10:00:00</time>
      </trkpt>
      <trkpt lat="41.14499" lon="0.85919">
        <ele>419</ele>
        <time>2022-05-24 10:00:01</time>
      </trkpt>
      <trkpt lat="41.14497" lon="0.85913">
        <ele>419</ele>
        <time>2022-05-24 10:00:02</time>
      </trkpt>
      <trkpt lat="41.14496" lon="0.85908">
        <ele>419</ele>
        <time>2022-05-24 10:00:03</time>
      </trkpt>
      <trkpt lat="41.14493" lon="0.85903">
        <ele>419</ele>
        <time>2022-05-24 10:00:04</time>
      </trkpt>
      <trkpt lat="41.1449" lon="0.85897">
        <ele>418.8</ele>
        <time>2022-05-24 10:00:05</time>
      </trkpt>
      <trkpt lat="41.14487" lon="0.85891">
        <ele>418.6</ele>
        <time>2022-05-24 10:00:06</time>
      </trkpt>
      <trkpt lat="41.14483" lon="0.85886">
        <ele>418.6</ele>
        <time>2022-05-24 10:00:07</time>
      </trkpt>
      <trkpt lat="41.14479" lon="0.85881">
        <ele>418.4</ele>
        <time>2022-05-24 10:00:08</time>
      </trkpt>
      <trkpt lat="41.14474" lon="0.85875">
        <ele>418.2</ele>
        <time>2022-05-24 10:00:09</time>
      </trkpt>
      <trkpt lat="41.1447" lon="0.85871">
        <ele>418.2</ele>
        <time>2022-05-24 10:00:10</time>
      </trkpt>
      <trkpt lat="41.14465" lon="0.85865">
        <ele>418</ele>
        <time>2022-05-24 10:00:11</time>
      </trkpt>
      <trkpt lat="41.14461" lon="0.8586">
        <ele>417.8</ele>
        <time>2022-05-24 10:00:12</time>
      </trkpt>
      <trkpt lat="41.14455" lon="0.85854">
        <ele>417.6</ele>
        <time>2022-05-24 10:00:13</time>
      </trkpt>
      <trkpt lat="41.1445" lon="0.85849">
        <ele>417.4</ele>
        <time>2022-05-24 10:00:14</time>
      </trkpt>
      <trkpt lat="41.14444" lon="0.85843">
        <ele>417</ele>
        <time>2022-05-24 10:00:15</time>
      </trkpt>
      <trkpt lat="41.14439" lon="0.85837">
        <ele>416.8</ele>
        <time>2022-05-24 10:00:16</time>
      </trkpt>
      <trkpt lat="41.14434" lon="0.85831">
        <ele>416.6</ele>
        <time>2022-05-24 10:00:17</time>
      </trkpt>
      <trkpt lat="41.14429" lon="0.85825">
        <ele>416.2</ele>
        <time>2022-05-24 10:00:18</time>
      </trkpt>
      <trkpt lat="41.14423" lon="0.85818">
        <ele>416</ele>
        <time>2022-05-24 10:00:19</time>
      </trkpt>
      <trkpt lat="41.14417" lon="0.85813">
        <ele>415.6</ele>
        <time>2022-05-24 10:00:20</time>
      </trkpt>
      <trkpt lat="41.1441" lon="0.85807">
        <ele>415.4</ele>
        <time>2022-05-24 10:00:21</time>
      </trkpt>
      <trkpt lat="41.14404" lon="0.85803">
        <ele>415</ele>
        <time>2022-05-24 10:00:22</time>
      </trkpt>
      <trkpt lat="41.14397" lon="0.85797">
        <ele>414.8</ele>
        <time>2022-05-24 10:00:23</time>
      </trkpt>
      <trkpt lat="41.14391" lon="0.85792">
        <ele>414.6</ele>
        <time>2022-05-24 10:00:24</time>
      </trkpt>
      <trkpt lat="41.14385" lon="0.85786">
        <ele>414.4</ele>
        <time>2022-05-24 10:00:25</time>
      </trkpt>
      <trkpt lat="41.14381" lon="0.85779">
        <ele>414.4</ele>
        <time>2022-05-24 10:00:26</time>
      </trkpt>
      <trkpt lat="41.14376" lon="0.85771">
        <ele>414.4</ele>
        <time>2022-05-24 10:00:27</time>
      </trkpt>
      <trkpt lat="41.14373" lon="0.85764">
        <ele>414.6</ele>
        <time>2022-05-24 10:00:28</time>
      </trkpt>
      <trkpt lat="41.14369" lon="0.85756">
        <ele>414.6</ele>
        <time>2022-05-24 10:00:29</time>
      </trkpt>
      <trkpt lat="41.14366" lon="0.8575">
        <ele>415</ele>
        <time>2022-05-24 10:00:30</time>
      </trkpt>
      <trkpt lat="41.14362" lon="0.85742">
        <ele>415.2</ele>
        <time>2022-05-24 10:00:31</time>
      </trkpt>
      <trkpt lat="41.1436" lon="0.85736">
        <ele>415.4</ele>
        <time>2022-05-24 10:00:32</time>
      </trkpt>
      <trkpt lat="41.14356" lon="0.85728">
        <ele>415.6</ele>
        <time>2022-05-24 10:00:33</time>
      </trkpt>
      <trkpt lat="41.14353" lon="0.85722">
        <ele>415.8</ele>
        <time>2022-05-24 10:00:34</time>
      </trkpt>
      <trkpt lat="41.14351" lon="0.85716">
        <ele>416</ele>
        <time>2022-05-24 10:00:35</time>
      </trkpt>
      <trkpt lat="41.14348" lon="0.8571">
        <ele>416.2</ele>
        <time>2022-05-24 10:00:36</time>
      </trkpt>
      <trkpt lat="41.14345" lon="0.85704">
        <ele>416.4</ele>
        <time>2022-05-24 10:00:37</time>
      </trkpt>
      <trkpt lat="41.14342" lon="0.85699">
        <ele>416.8</ele>
        <time>2022-05-24 10:00:38</time>
      </trkpt>
      <trkpt lat="41.14339" lon="0.85693">
        <ele>417</ele>
        <time>2022-05-24 10:00:39</time>
      </trkpt>
      <trkpt lat="41.14336" lon="0.85689">
        <ele>417</ele>
        <time>2022-05-24 10:00:40</time>
      </trkpt>
      <trkpt lat="41.14332" lon="0.85683">
        <ele>417.2</ele>
        <time>2022-05-24 10:00:41</time>
      </trkpt>
      <trkpt lat="41.14328" lon="0.85679">
        <ele>417.2</ele>
        <time>2022-05-24 10:00:42</time>
      </trkpt>
      <trkpt lat="41.14323" lon="0.85674">
        <ele>417.2</ele>
        <time>2022-05-24 10:00:43</time>
      </trkpt>
      <trkpt lat="41.14319" lon="0.85671">
        <ele>417.2</ele>
        <time>2022-05-24 10:00:44</time>
      </trkpt>
      <trkpt lat="41.14312" lon="0.85666">
        <ele>417</ele>
        <time>2022-05-24 10:00:45</time>
      </trkpt>
      <trkpt lat="41.14307" lon="0.85664">
        <ele>417</ele>
        <time>2022-05-24 10:00:46</time>
      </trkpt>
      <trkpt lat="41.14301" lon="0.85661">
        <ele>416.6</ele>
        <time>2022-05-24 10:00:47</time>
      </trkpt>
      <trkpt lat="41.14295" lon="0.85659">
        <ele>416.4</ele>
        <time>2022-05-24 10:00:48</time>
      </trkpt>
      <trkpt lat="41.14288" lon="0.85658">
        <ele>416.2</ele>
        <time>2022-05-24 10:00:49</time>
      </trkpt>
      <trkpt lat="41.14282" lon="0.85658">
        <ele>415.8</ele>
        <time>2022-05-24 10:00:50</time>
      </trkpt>
      <trkpt lat="41.14273" lon="0.85658">
        <ele>415.6</ele>
        <time>2022-05-24 10:00:51</time>
      </trkpt>
      <trkpt lat="41.14267" lon="0.85659">
        <ele>415.4</ele>
        <time>2022-05-24 10:00:52</time>
      </trkpt>
      <trkpt lat="41.14259" lon="0.85661">
        <ele>415</ele>
        <time>2022-05-24 10:00:53</time>
      </trkpt>
      <trkpt lat="41.14253" lon="0.85661">
        <ele>414.8</ele>
        <time>2022-05-24 10:00:54</time>
      </trkpt>
      <trkpt lat="41.14244" lon="0.85662">
        <ele>414.4</ele>
        <time>2022-05-24 10:00:55</time>
      </trkpt>
      <trkpt lat="41.14236" lon="0.85662">
        <ele>414.2</ele>
        <time>2022-05-24 10:00:56</time>
      </trkpt>
      <trkpt lat="41.14228" lon="0.8566">
        <ele>414</ele>
        <time>2022-05-24 10:00:57</time>
      </trkpt>
      <trkpt lat="41.14221" lon="0.85657">
        <ele>413.6</ele>
        <time>2022-05-24 10:00:58</time>
      </trkpt>
      <trkpt lat="41.14214" lon="0.85651">
        <ele>413.2</ele>
        <time>2022-05-24 10:00:59</time>
      </trkpt>
      <trkpt lat="41.14209" lon="0.85646">
        <ele>413</ele>
        <time>2022-05-24 10:01:00</time>
      </trkpt>
      <trkpt lat="41.14202" lon="0.85639">
        <ele>412.8</ele>
        <time>2022-05-24 10:01:01</time>
      </trkpt>
      <trkpt lat="41.14197" lon="0.85632">
        <ele>412.6</ele>
        <time>2022-05-24 10:01:02</time>
      </trkpt>
      <trkpt lat="41.14191" lon="0.85624">
        <ele>412.4</ele>
        <time>2022-05-24 10:01:03</time>
      </trkpt>
      <trkpt lat="41.14186" lon="0.85618">
        <ele>412.2</ele>
        <time>2022-05-24 10:01:04</time>
      </trkpt>
      <trkpt lat="41.1418" lon="0.8561">
        <ele>412</ele>
        <time>2022-05-24 10:01:05</time>
      </trkpt>
      <trkpt lat="41.14175" lon="0.85603">
        <ele>411.8</ele>
        <time>2022-05-24 10:01:06</time>
      </trkpt>
      <trkpt lat="41.1417" lon="0.85595">
        <ele>411.6</ele>
        <time>2022-05-24 10:01:07</time>
      </trkpt>
      <trkpt lat="41.14165" lon="0.85589">
        <ele>411.6</ele>
        <time>2022-05-24 10:01:08</time>
      </trkpt>
      <trkpt lat="41.14159" lon="0.85582">
        <ele>411.4</ele>
        <time>2022-05-24 10:01:09</time>
      </trkpt>
      <trkpt lat="41.14155" lon="0.85578">
        <ele>411.4</ele>
        <time>2022-05-24 10:01:10</time>
      </trkpt>
      <trkpt lat="41.14149" lon="0.8557">
        <ele>411.4</ele>
        <time>2022-05-24 10:01:11</time>
      </trkpt>
      <trkpt lat="41.14143" lon="0.85565">
        <ele>411.4</ele>
        <time>2022-05-24 10:01:12</time>
      </trkpt>
      <trkpt lat="41.14138" lon="0.8556">
        <ele>411.6</ele>
        <time>2022-05-24 10:01:13</time>
      </trkpt>
      <trkpt lat="41.14132" lon="0.85557">
        <ele>411.6</ele>
        <time>2022-05-24 10:01:14</time>
      </trkpt>
      <trkpt lat="41.14126" lon="0.85554">
        <ele>411.6</ele>
        <time>2022-05-24 10:01:15</time>
      </trkpt>
      <trkpt lat="41.1412" lon="0.85553">
        <ele>411.8</ele>
        <time>2022-05-24 10:01:16</time>
      </trkpt>
      <trkpt lat="41.14113" lon="0.85552">
        <ele>411.8</ele>
        <time>2022-05-24 10:01:17</time>
      </trkpt>
      <trkpt lat="41.14106" lon="0.85551">
        <ele>411.6</ele>
        <time>2022-05-24 10:01:18</time>
      </trkpt>
      <trkpt lat="41.14099" lon="0.85551">
        <ele>411.6</ele>
        <time>2022-05-24 10:01:19</time>
      </trkpt>
      <trkpt lat="41.14092" lon="0.85551">
        <ele>411.4</ele>
        <time>2022-05-24 10:01:20</time>
      </trkpt>
      <trkpt lat="41.14085" lon="0.8555">
        <ele>411</ele>
        <time>2022-05-24 10:01:21</time>
      </trkpt>
      <trkpt lat="41.14078" lon="0.8555">
        <ele>410.8</ele>
        <time>2022-05-24 10:01:22</time>
      </trkpt>
      <trkpt lat="41.1407" lon="0.8555">
        <ele>410.4</ele>
        <time>2022-05-24 10:01:23</time>
      </trkpt>
      <trkpt lat="41.14063" lon="0.8555">
        <ele>410</ele>
        <time>2022-05-24 10:01:24</time>
      </trkpt>
      <trkpt lat="41.14054" lon="0.8555">
        <ele>409.6</ele>
        <time>2022-05-24 10:01:25</time>
      </trkpt>
      <trkpt lat="41.14047" lon="0.85551">
        <ele>409.2</ele>
        <time>2022-05-24 10:01:26</time>
      </trkpt>
      <trkpt lat="41.14038" lon="0.85551">
        <ele>408.8</ele>
        <time>2022-05-24 10:01:27</time>
      </trkpt>
      <trkpt lat="41.1403" lon="0.85553">
        <ele>408.4</ele>
        <time>2022-05-24 10:01:28</time>
      </trkpt>
      <trkpt lat="41.14021" lon="0.85558">
        <ele>407.8</ele>
        <time>2022-05-24 10:01:29</time>
      </trkpt>
      <trkpt lat="41.14013" lon="0.85563">
        <ele>407.2</ele>
        <time>2022-05-24 10:01:30</time>
      </trkpt>
      <trkpt lat="41.14005" lon="0.85571">
        <ele>406.4</ele>
        <time>2022-05-24 10:01:31</time>
      </trkpt>
      <trkpt lat="41.13997" lon="0.8558">
        <ele>405.8</ele>
        <time>2022-05-24 10:01:32</time>
      </trkpt>
      <trkpt lat="41.13989" lon="0.85588">
        <ele>405.2</ele>
        <time>2022-05-24 10:01:33</time>
      </trkpt>
      <trkpt lat="41.13981" lon="0.85597">
        <ele>404.2</ele>
        <time>2022-05-24 10:01:34</time>
      </trkpt>
      <trkpt lat="41.13972" lon="0.85607">
        <ele>403.2</ele>
        <time>2022-05-24 10:01:35</time>
      </trkpt>
      <trkpt lat="41.13964" lon="0.85614">
        <ele>402.2</ele>
        <time>2022-05-24 10:01:36</time>
      </trkpt>
      <trkpt lat="41.13953" lon="0.8562">
        <ele>401</ele>
        <time>2022-05-24 10:01:37</time>
      </trkpt>
      <trkpt lat="41.13943" lon="0.85622">
        <ele>399.8</ele>
        <time>2022-05-24 10:01:38</time>
      </trkpt>
      <trkpt lat="41.13931" lon="0.85619">
        <ele>398.8</ele>
        <time>2022-05-24 10:01:39</time>
      </trkpt>
      <trkpt lat="41.13922" lon="0.85611">
        <ele>397.8</ele>
        <time>2022-05-24 10:01:40</time>
      </trkpt>
      <trkpt lat="41.13913" lon="0.85599">
        <ele>396.8</ele>
        <time>2022-05-24 10:01:41</time>
      </trkpt>
      <trkpt lat="41.13906" lon="0.85587">
        <ele>395.8</ele>
        <time>2022-05-24 10:01:42</time>
      </trkpt>
      <trkpt lat="41.13898" lon="0.85575">
        <ele>394.8</ele>
        <time>2022-05-24 10:01:43</time>
      </trkpt>
      <trkpt lat="41.13888" lon="0.85567">
        <ele>393.8</ele>
        <time>2022-05-24 10:01:44</time>
      </trkpt>
      <trkpt lat="41.13876" lon="0.8556">
        <ele>393.2</ele>
        <time>2022-05-24 10:01:45</time>
      </trkpt>
      <trkpt lat="41.13865" lon="0.85557">
        <ele>392.2</ele>
        <time>2022-05-24 10:01:46</time>
      </trkpt>
      <trkpt lat="41.13853" lon="0.85554">
        <ele>391.6</ele>
        <time>2022-05-24 10:01:47</time>
      </trkpt>
      <trkpt lat="41.13839" lon="0.85553">
        <ele>391</ele>
        <time>2022-05-24 10:01:48</time>
      </trkpt>
      <trkpt lat="41.13828" lon="0.85552">
        <ele>390.4</ele>
        <time>2022-05-24 10:01:49</time>
      </trkpt>
      <trkpt lat="41.13815" lon="0.85552">
        <ele>389.8</ele>
        <time>2022-05-24 10:01:50</time>
      </trkpt>
      <trkpt lat="41.13804" lon="0.85553">
        <ele>389.4</ele>
        <time>2022-05-24 10:01:51</time>
      </trkpt>
      <trkpt lat="41.13792" lon="0.85556">
        <ele>389</ele>
        <time>2022-05-24 10:01:52</time>
      </trkpt>
      <trkpt lat="41.1378" lon="0.85564">
        <ele>388.6</ele>
        <time>2022-05-24 10:01:53</time>
      </trkpt>
      <trkpt lat="41.13771" lon="0.85574">
        <ele>388</ele>
        <time>2022-05-24 10:01:54</time>
      </trkpt>
      <trkpt lat="41.13764" lon="0.85587">
        <ele>387.4</ele>
        <time>2022-05-24 10:01:55</time>
      </trkpt>
      <trkpt lat="41.13758" lon="0.856">
        <ele>387</ele>
        <time>2022-05-24 10:01:56</time>
      </trkpt>
      <trkpt lat="41.13752" lon="0.85612">
        <ele>386.2</ele>
        <time>2022-05-24 10:01:57</time>
      </trkpt>
      <trkpt lat="41.13743" lon="0.85625">
        <ele>385.4</ele>
        <time>2022-05-24 10:01:58</time>
      </trkpt>
      <trkpt lat="41.13735" lon="0.85634">
        <ele>384.4</ele>
        <time>2022-05-24 10:01:59</time>
      </trkpt>
      <trkpt lat="41.13722" lon="0.85638">
        <ele>383.8</ele>
        <time>2022-05-24 10:02:00</time>
      </trkpt>
      <trkpt lat="41.13711" lon="0.8564">
        <ele>383</ele>
        <time>2022-05-24 10:02:01</time>
      </trkpt>
      <trkpt lat="41.13699" lon="0.85639">
        <ele>382.4</ele>
        <time>2022-05-24 10:02:02</time>
      </trkpt>
      <trkpt lat="41.13689" lon="0.85632">
        <ele>381.8</ele>
        <time>2022-05-24 10:02:03</time>
      </trkpt>
      <trkpt lat="41.13679" lon="0.85619">
        <ele>381.2</ele>
        <time>2022-05-24 10:02:04</time>
      </trkpt>
      <trkpt lat="41.13671" lon="0.85608">
        <ele>380.4</ele>
        <time>2022-05-24 10:02:05</time>
      </trkpt>
      <trkpt lat="41.13665" lon="0.85592">
        <ele>379.8</ele>
        <time>2022-05-24 10:02:06</time>
      </trkpt>
      <trkpt lat="41.13658" lon="0.85578">
        <ele>378.8</ele>
        <time>2022-05-24 10:02:07</time>
      </trkpt>
      <trkpt lat="41.1365" lon="0.85566">
        <ele>378.2</ele>
        <time>2022-05-24 10:02:08</time>
      </trkpt>
      <trkpt lat="41.13641" lon="0.85559">
        <ele>377.2</ele>
        <time>2022-05-24 10:02:09</time>
      </trkpt>
      <trkpt lat="41.13629" lon="0.85551">
        <ele>376.4</ele>
        <time>2022-05-24 10:02:10</time>
      </trkpt>
      <trkpt lat="41.13616" lon="0.85545">
        <ele>375.4</ele>
        <time>2022-05-24 10:02:11</time>
      </trkpt>
      <trkpt lat="41.13602" lon="0.85542">
        <ele>374.6</ele>
        <time>2022-05-24 10:02:12</time>
      </trkpt>
      <trkpt lat="41.13588" lon="0.85543">
        <ele>373.6</ele>
        <time>2022-05-24 10:02:13</time>
      </trkpt>
      <trkpt lat="41.13576" lon="0.85548">
        <ele>372.8</ele>
        <time>2022-05-24 10:02:14</time>
      </trkpt>
      <trkpt lat="41.13564" lon="0.85556">
        <ele>372</ele>
        <time>2022-05-24 10:02:15</time>
      </trkpt>
      <trkpt lat="41.13553" lon="0.85564">
        <ele>371</ele>
        <time>2022-05-24 10:02:16</time>
      </trkpt>
      <trkpt lat="41.13542" lon="0.85573">
        <ele>370.4</ele>
        <time>2022-05-24 10:02:17</time>
      </trkpt>
      <trkpt lat="41.13531" lon="0.85582">
        <ele>369.6</ele>
        <time>2022-05-24 10:02:18</time>
      </trkpt>
      <trkpt lat="41.1352" lon="0.8559">
        <ele>369.2</ele>
        <time>2022-05-24 10:02:19</time>
      </trkpt>
      <trkpt lat="41.13511" lon="0.85597">
        <ele>368.8</ele>
        <time>2022-05-24 10:02:20</time>
      </trkpt>
      <trkpt lat="41.13498" lon="0.85606">
        <ele>368.2</ele>
        <time>2022-05-24 10:02:21</time>
      </trkpt>
      <trkpt lat="41.13487" lon="0.85612">
        <ele>367.8</ele>
        <time>2022-05-24 10:02:22</time>
      </trkpt>
      <trkpt lat="41.13476" lon="0.85617">
        <ele>367.4</ele>
        <time>2022-05-24 10:02:23</time>
      </trkpt>
      <trkpt lat="41.13472" lon="0.85618">
        <ele>367.2</ele>
        <time>2022-05-24 10:02:24</time>
      </trkpt>
      <trkpt lat="41.13467" lon="0.8562">
        <ele>367</ele>
        <time>2022-05-24 10:02:25</time>
      </trkpt>
      <trkpt lat="41.13444" lon="0.85626">
        <ele>366.8</ele>
        <time>2022-05-24 10:02:26</time>
      </trkpt>
      <trkpt lat="41.13433" lon="0.85628">
        <ele>366.4</ele>
        <time>2022-05-24 10:02:27</time>
      </trkpt>
      <trkpt lat="41.13422" lon="0.8563">
        <ele>366.2</ele>
        <time>2022-05-24 10:02:28</time>
      </trkpt>
      <trkpt lat="41.13411" lon="0.85632">
        <ele>366</ele>
        <time>2022-05-24 10:02:29</time>
      </trkpt>
      <trkpt lat="41.13401" lon="0.85634">
        <ele>365.8</ele>
        <time>2022-05-24 10:02:30</time>
      </trkpt>
      <trkpt lat="41.13391" lon="0.85637">
        <ele>365.6</ele>
        <time>2022-05-24 10:02:31</time>
      </trkpt>
      <trkpt lat="41.13382" lon="0.85643">
        <ele>365.6</ele>
        <time>2022-05-24 10:02:32</time>
      </trkpt>
      <trkpt lat="41.13375" lon="0.85653">
        <ele>365.6</ele>
        <time>2022-05-24 10:02:33</time>
      </trkpt>
      <trkpt lat="41.13372" lon="0.85665">
        <ele>365.4</ele>
        <time>2022-05-24 10:02:34</time>
      </trkpt>
      <trkpt lat="41.1337" lon="0.85677">
        <ele>365.4</ele>
        <time>2022-05-24 10:02:35</time>
      </trkpt>
      <trkpt lat="41.13369" lon="0.8569">
        <ele>365.2</ele>
        <time>2022-05-24 10:02:36</time>
      </trkpt>
      <trkpt lat="41.13367" lon="0.85702">
        <ele>365.2</ele>
        <time>2022-05-24 10:02:37</time>
      </trkpt>
      <trkpt lat="41.13365" lon="0.85714">
        <ele>365.2</ele>
        <time>2022-05-24 10:02:38</time>
      </trkpt>
      <trkpt lat="41.13363" lon="0.85725">
        <ele>365.2</ele>
        <time>2022-05-24 10:02:39</time>
      </trkpt>
      <trkpt lat="41.1336" lon="0.85737">
        <ele>365.2</ele>
        <time>2022-05-24 10:02:40</time>
      </trkpt>
      <trkpt lat="41.13357" lon="0.85747">
        <ele>365</ele>
        <time>2022-05-24 10:02:41</time>
      </trkpt>
      <trkpt lat="41.13354" lon="0.85758">
        <ele>365</ele>
        <time>2022-05-24 10:02:42</time>
      </trkpt>
      <trkpt lat="41.13352" lon="0.85768">
        <ele>365.2</ele>
        <time>2022-05-24 10:02:43</time>
      </trkpt>
      <trkpt lat="41.1335" lon="0.85778">
        <ele>365.2</ele>
        <time>2022-05-24 10:02:44</time>
      </trkpt>
      <trkpt lat="41.1335" lon="0.85787">
        <ele>365.2</ele>
        <time>2022-05-24 10:02:45</time>
      </trkpt>
      <trkpt lat="41.13349" lon="0.85796">
        <ele>365.2</ele>
        <time>2022-05-24 10:02:46</time>
      </trkpt>
      <trkpt lat="41.13348" lon="0.85805">
        <ele>365.4</ele>
        <time>2022-05-24 10:02:47</time>
      </trkpt>
      <trkpt lat="41.13348" lon="0.85814">
        <ele>365.4</ele>
        <time>2022-05-24 10:02:48</time>
      </trkpt>
      <trkpt lat="41.13347" lon="0.85823">
        <ele>365.4</ele>
        <time>2022-05-24 10:02:49</time>
      </trkpt>
      <trkpt lat="41.13346" lon="0.85831">
        <ele>365.6</ele>
        <time>2022-05-24 10:02:50</time>
      </trkpt>
      <trkpt lat="41.13345" lon="0.85838">
        <ele>365.8</ele>
        <time>2022-05-24 10:02:51</time>
      </trkpt>
      <trkpt lat="41.13344" lon="0.85847">
        <ele>366</ele>
        <time>2022-05-24 10:02:52</time>
      </trkpt>
      <trkpt lat="41.13343" lon="0.85855">
        <ele>366.2</ele>
        <time>2022-05-24 10:02:53</time>
      </trkpt>
      <trkpt lat="41.13343" lon="0.85862">
        <ele>366.4</ele>
        <time>2022-05-24 10:02:54</time>
      </trkpt>
      <trkpt lat="41.13342" lon="0.85869">
        <ele>366.6</ele>
        <time>2022-05-24 10:02:55</time>
      </trkpt>
      <trkpt lat="41.13342" lon="0.85875">
        <ele>366.8</ele>
        <time>2022-05-24 10:02:56</time>
      </trkpt>
      <trkpt lat="41.13341" lon="0.85881">
        <ele>367.2</ele>
        <time>2022-05-24 10:02:57</time>
      </trkpt>
      <trkpt lat="41.1334" lon="0.85886">
        <ele>367.4</ele>
        <time>2022-05-24 10:02:58</time>
      </trkpt>
      <trkpt lat="41.1334" lon="0.85891">
        <ele>367.8</ele>
        <time>2022-05-24 10:02:59</time>
      </trkpt>
      <trkpt lat="41.13339" lon="0.85895">
        <ele>368.2</ele>
        <time>2022-05-24 10:03:00</time>
      </trkpt>
      <trkpt lat="41.13338" lon="0.85897">
        <ele>368.4</ele>
        <time>2022-05-24 10:03:01</time>
      </trkpt>
      <trkpt lat="41.13338" lon="0.85902">
        <ele>368.8</ele>
        <time>2022-05-24 10:03:02</time>
      </trkpt>
      <trkpt lat="41.13338" lon="0.85905">
        <ele>369</ele>
        <time>2022-05-24 10:03:03</time>
      </trkpt>
      <trkpt lat="41.13338" lon="0.85908">
        <ele>369.4</ele>
        <time>2022-05-24 10:03:04</time>
      </trkpt>
      <trkpt lat="41.13337" lon="0.8591">
        <ele>369.6</ele>
        <time>2022-05-24 10:03:05</time>
      </trkpt>
      <trkpt lat="41.13337" lon="0.85912">
        <ele>369.8</ele>
        <time>2022-05-24 10:03:06</time>
      </trkpt>
      <trkpt lat="41.13337" lon="0.85915">
        <ele>370</ele>
        <time>2022-05-24 10:03:07</time>
      </trkpt>
      <trkpt lat="41.13337" lon="0.85918">
        <ele>370.2</ele>
        <time>2022-05-24 10:03:08</time>
      </trkpt>
      <trkpt lat="41.13336" lon="0.85921">
        <ele>370.4</ele>
        <time>2022-05-24 10:03:09</time>
      </trkpt>
      <trkpt lat="41.13336" lon="0.85924">
        <ele>370.6</ele>
        <time>2022-05-24 10:03:10</time>
      </trkpt>
      <trkpt lat="41.13335" lon="0.85926">
        <ele>370.8</ele>
        <time>2022-05-24 10:03:11</time>
      </trkpt>
      <trkpt lat="41.13335" lon="0.85929">
        <ele>371</ele>
        <time>2022-05-24 10:03:12</time>
      </trkpt>
      <trkpt lat="41.13335" lon="0.85932">
        <ele>371.4</ele>
        <time>2022-05-24 10:03:13</time>
      </trkpt>
      <trkpt lat="41.13334" lon="0.85935">
        <ele>371.4</ele>
        <time>2022-05-24 10:03:14</time>
      </trkpt>
      <trkpt lat="41.13334" lon="0.85938">
        <ele>371.8</ele>
        <time>2022-05-24 10:03:15</time>
      </trkpt>
      <trkpt lat="41.13334" lon="0.85941">
        <ele>372</ele>
        <time>2022-05-24 10:03:16</time>
      </trkpt>
      <trkpt lat="41.13334" lon="0.85944">
        <ele>372.2</ele>
        <time>2022-05-24 10:03:17</time>
      </trkpt>
      <trkpt lat="41.13333" lon="0.85947">
        <ele>372.4</ele>
        <time>2022-05-24 10:03:18</time>
      </trkpt>
      <trkpt lat="41.13332" lon="0.8595">
        <ele>372.6</ele>
        <time>2022-05-24 10:03:19</time>
      </trkpt>
      <trkpt lat="41.13332" lon="0.85953">
        <ele>372.8</ele>
        <time>2022-05-24 10:03:20</time>
      </trkpt>
      <trkpt lat="41.13332" lon="0.85955">
        <ele>373</ele>
        <time>2022-05-24 10:03:21</time>
      </trkpt>
      <trkpt lat="41.13331" lon="0.85958">
        <ele>373.2</ele>
        <time>2022-05-24 10:03:22</time>
      </trkpt>
      <trkpt lat="41.13331" lon="0.85961">
        <ele>373.4</ele>
        <time>2022-05-24 10:03:23</time>
      </trkpt>
      <trkpt lat="41.1333" lon="0.85964">
        <ele>373.6</ele>
        <time>2022-05-24 10:03:24</time>
      </trkpt>
      <trkpt lat="41.13329" lon="0.85967">
        <ele>373.8</ele>
        <time>2022-05-24 10:03:25</time>
      </trkpt>
      <trkpt lat="41.13329" lon="0.8597">
        <ele>374</ele>
        <time>2022-05-24 10:03:26</time>
      </trkpt>
      <trkpt lat="41.13328" lon="0.85973">
        <ele>374.2</ele>
        <time>2022-05-24 10:03:27</time>
      </trkpt>
      <trkpt lat="41.13327" lon="0.85975">
        <ele>374.4</ele>
        <time>2022-05-24 10:03:28</time>
      </trkpt>
      <trkpt lat="41.13327" lon="0.85978">
        <ele>374.6</ele>
        <time>2022-05-24 10:03:29</time>
      </trkpt>
      <trkpt lat="41.13327" lon="0.8598">
        <ele>374.8</ele>
        <time>2022-05-24 10:03:30</time>
      </trkpt>
      <trkpt lat="41.13326" lon="0.85982">
        <ele>375</ele>
        <time>2022-05-24 10:03:31</time>
      </trkpt>
      <trkpt lat="41.13325" lon="0.85985">
        <ele>375.2</ele>
        <time>2022-05-24 10:03:32</time>
      </trkpt>
      <trkpt lat="41.13325" lon="0.85987">
        <ele>375.4</ele>
        <time>2022-05-24 10:03:33</time>
      </trkpt>
      <trkpt lat="41.13325" lon="0.85989">
        <ele>375.6</ele>
        <time>2022-05-24 10:03:34</time>
      </trkpt>
      <trkpt lat="41.13325" lon="0.85992">
        <ele>375.6</ele>
        <time>2022-05-24 10:03:35</time>
      </trkpt>
      <trkpt lat="41.13324" lon="0.85994">
        <ele>375.8</ele>
        <time>2022-05-24 10:03:36</time>
      </trkpt>
      <trkpt lat="41.13323" lon="0.85997">
        <ele>376</ele>
        <time>2022-05-24 10:03:37</time>
      </trkpt>
      <trkpt lat="41.13323" lon="0.85999">
        <ele>376.2</ele>
        <time>2022-05-24 10:03:38</time>
      </trkpt>
      <trkpt lat="41.13322" lon="0.86002">
        <ele>376.4</ele>
        <time>2022-05-24 10:03:39</time>
      </trkpt>
      <trkpt lat="41.13321" lon="0.86004">
        <ele>376.4</ele>
        <time>2022-05-24 10:03:40</time>
      </trkpt>
      <trkpt lat="41.13321" lon="0.86007">
        <ele>376.6</ele>
        <time>2022-05-24 10:03:41</time>
      </trkpt>
      <trkpt lat="41.1332" lon="0.86009">
        <ele>376.8</ele>
        <time>2022-05-24 10:03:42</time>
      </trkpt>
      <trkpt lat="41.1332" lon="0.86012">
        <ele>376.8</ele>
        <time>2022-05-24 10:03:43</time>
      </trkpt>
      <trkpt lat="41.13319" lon="0.86014">
        <ele>377</ele>
        <time>2022-05-24 10:03:44</time>
      </trkpt>
      <trkpt lat="41.13319" lon="0.86016">
        <ele>377.2</ele>
        <time>2022-05-24 10:03:45</time>
      </trkpt>
      <trkpt lat="41.13318" lon="0.86019">
        <ele>377.2</ele>
        <time>2022-05-24 10:03:46</time>
      </trkpt>
      <trkpt lat="41.13318" lon="0.86021">
        <ele>377.4</ele>
        <time>2022-05-24 10:03:47</time>
      </trkpt>
      <trkpt lat="41.13317" lon="0.86024">
        <ele>377.4</ele>
        <time>2022-05-24 10:03:48</time>
      </trkpt>
      <trkpt lat="41.13317" lon="0.86026">
        <ele>377.6</ele>
        <time>2022-05-24 10:03:49</time>
      </trkpt>
      <trkpt lat="41.13316" lon="0.86029">
        <ele>377.8</ele>
        <time>2022-05-24 10:03:50</time>
      </trkpt>
      <trkpt lat="41.13316" lon="0.86032">
        <ele>377.8</ele>
        <time>2022-05-24 10:03:51</time>
      </trkpt>
      <trkpt lat="41.13316" lon="0.86035">
        <ele>378</ele>
        <time>2022-05-24 10:03:52</time>
      </trkpt>
      <trkpt lat="41.13315" lon="0.86039">
        <ele>378</ele>
        <time>2022-05-24 10:03:53</time>
      </trkpt>
      <trkpt lat="41.13315" lon="0.86042">
        <ele>378</ele>
        <time>2022-05-24 10:03:54</time>
      </trkpt>
      <trkpt lat="41.13315" lon="0.86046">
        <ele>378.2</ele>
        <time>2022-05-24 10:03:55</time>
      </trkpt>
      <trkpt lat="41.13315" lon="0.86049">
        <ele>378.2</ele>
        <time>2022-05-24 10:03:56</time>
      </trkpt>
      <trkpt lat="41.13314" lon="0.86054">
        <ele>378.2</ele>
        <time>2022-05-24 10:03:57</time>
      </trkpt>
      <trkpt lat="41.13314" lon="0.86058">
        <ele>378.2</ele>
        <time>2022-05-24 10:03:58</time>
      </trkpt>
      <trkpt lat="41.13313" lon="0.86062">
        <ele>378.2</ele>
        <time>2022-05-24 10:03:59</time>
      </trkpt>
      <trkpt lat="41.13313" lon="0.86066">
        <ele>378.4</ele>
        <time>2022-05-24 10:04:00</time>
      </trkpt>
      <trkpt lat="41.13313" lon="0.86071">
        <ele>378.4</ele>
        <time>2022-05-24 10:04:01</time>
      </trkpt>
      <trkpt lat="41.13313" lon="0.86076">
        <ele>378.4</ele>
        <time>2022-05-24 10:04:02</time>
      </trkpt>
      <trkpt lat="41.13313" lon="0.8608">
        <ele>378.4</ele>
        <time>2022-05-24 10:04:03</time>
      </trkpt>
      <trkpt lat="41.13313" lon="0.86086">
        <ele>378.4</ele>
        <time>2022-05-24 10:04:04</time>
      </trkpt>
      <trkpt lat="41.13313" lon="0.86091">
        <ele>378.4</ele>
        <time>2022-05-24 10:04:05</time>
      </trkpt>
      <trkpt lat="41.13313" lon="0.86096">
        <ele>378.4</ele>
        <time>2022-05-24 10:04:06</time>
      </trkpt>
      <trkpt lat="41.13313" lon="0.861">
        <ele>378.4</ele>
        <time>2022-05-24 10:04:07</time>
      </trkpt>
      <trkpt lat="41.13312" lon="0.86105">
        <ele>378.4</ele>
        <time>2022-05-24 10:04:08</time>
      </trkpt>
      <trkpt lat="41.13312" lon="0.8611">
        <ele>378.4</ele>
        <time>2022-05-24 10:04:09</time>
      </trkpt>
      <trkpt lat="41.13312" lon="0.86114">
        <ele>378.4</ele>
        <time>2022-05-24 10:04:10</time>
      </trkpt>
      <trkpt lat="41.13311" lon="0.8612">
        <ele>378.6</ele>
        <time>2022-05-24 10:04:11</time>
      </trkpt>
      <trkpt lat="41.13311" lon="0.86125">
        <ele>378.6</ele>
        <time>2022-05-24 10:04:12</time>
      </trkpt>
      <trkpt lat="41.13311" lon="0.86129">
        <ele>378.6</ele>
        <time>2022-05-24 10:04:13</time>
      </trkpt>
      <trkpt lat="41.13311" lon="0.86135">
        <ele>378.6</ele>
        <time>2022-05-24 10:04:14</time>
      </trkpt>
      <trkpt lat="41.13311" lon="0.86141">
        <ele>378.6</ele>
        <time>2022-05-24 10:04:15</time>
      </trkpt>
      <trkpt lat="41.13311" lon="0.86145">
        <ele>378.6</ele>
        <time>2022-05-24 10:04:16</time>
      </trkpt>
      <trkpt lat="41.1331" lon="0.86151">
        <ele>378.6</ele>
        <time>2022-05-24 10:04:17</time>
      </trkpt>
      <trkpt lat="41.1331" lon="0.86157">
        <ele>378.6</ele>
        <time>2022-05-24 10:04:18</time>
      </trkpt>
      <trkpt lat="41.1331" lon="0.86161">
        <ele>378.6</ele>
        <time>2022-05-24 10:04:19</time>
      </trkpt>
      <trkpt lat="41.13309" lon="0.86167">
        <ele>378.6</ele>
        <time>2022-05-24 10:04:20</time>
      </trkpt>
      <trkpt lat="41.13309" lon="0.86172">
        <ele>378.6</ele>
        <time>2022-05-24 10:04:21</time>
      </trkpt>
      <trkpt lat="41.13309" lon="0.86177">
        <ele>378.8</ele>
        <time>2022-05-24 10:04:22</time>
      </trkpt>
      <trkpt lat="41.13309" lon="0.86183">
        <ele>378.8</ele>
        <time>2022-05-24 10:04:23</time>
      </trkpt>
      <trkpt lat="41.13309" lon="0.86188">
        <ele>378.8</ele>
        <time>2022-05-24 10:04:24</time>
      </trkpt>
      <trkpt lat="41.13309" lon="0.86193">
        <ele>378.8</ele>
        <time>2022-05-24 10:04:25</time>
      </trkpt>
      <trkpt lat="41.13308" lon="0.86199">
        <ele>378.8</ele>
        <time>2022-05-24 10:04:26</time>
      </trkpt>
      <trkpt lat="41.13308" lon="0.86204">
        <ele>378.8</ele>
        <time>2022-05-24 10:04:27</time>
      </trkpt>
      <trkpt lat="41.13308" lon="0.8621">
        <ele>378.8</ele>
        <time>2022-05-24 10:04:28</time>
      </trkpt>
      <trkpt lat="41.13308" lon="0.86216">
        <ele>378.8</ele>
        <time>2022-05-24 10:04:29</time>
      </trkpt>
      <trkpt lat="41.13308" lon="0.86221">
        <ele>378.8</ele>
        <time>2022-05-24 10:04:30</time>
      </trkpt>
      <trkpt lat="41.13308" lon="0.86226">
        <ele>378.8</ele>
        <time>2022-05-24 10:04:31</time>
      </trkpt>
      <trkpt lat="41.13308" lon="0.86232">
        <ele>378.8</ele>
        <time>2022-05-24 10:04:32</time>
      </trkpt>
      <trkpt lat="41.13307" lon="0.86238">
        <ele>378.8</ele>
        <time>2022-05-24 10:04:33</time>
      </trkpt>
      <trkpt lat="41.13307" lon="0.86243">
        <ele>378.8</ele>
        <time>2022-05-24 10:04:34</time>
      </trkpt>
      <trkpt lat="41.13307" lon="0.86249">
        <ele>378.8</ele>
        <time>2022-05-24 10:04:35</time>
      </trkpt>
      <trkpt lat="41.13307" lon="0.86255">
        <ele>378.8</ele>
        <time>2022-05-24 10:04:36</time>
      </trkpt>
      <trkpt lat="41.13307" lon="0.86259">
        <ele>378.8</ele>
        <time>2022-05-24 10:04:37</time>
      </trkpt>
      <trkpt lat="41.13306" lon="0.86266">
        <ele>378.8</ele>
        <time>2022-05-24 10:04:38</time>
      </trkpt>
      <trkpt lat="41.13306" lon="0.86271">
        <ele>378.8</ele>
        <time>2022-05-24 10:04:39</time>
      </trkpt>
      <trkpt lat="41.13306" lon="0.86276">
        <ele>378.8</ele>
        <time>2022-05-24 10:04:40</time>
      </trkpt>
      <trkpt lat="41.13306" lon="0.86282">
        <ele>379</ele>
        <time>2022-05-24 10:04:41</time>
      </trkpt>
      <trkpt lat="41.13306" lon="0.86288">
        <ele>379</ele>
        <time>2022-05-24 10:04:42</time>
      </trkpt>
      <trkpt lat="41.13306" lon="0.86293">
        <ele>379</ele>
        <time>2022-05-24 10:04:43</time>
      </trkpt>
      <trkpt lat="41.13305" lon="0.86299">
        <ele>379</ele>
        <time>2022-05-24 10:04:44</time>
      </trkpt>
      <trkpt lat="41.13305" lon="0.86304">
        <ele>379</ele>
        <time>2022-05-24 10:04:45</time>
      </trkpt>
      <trkpt lat="41.13305" lon="0.86309">
        <ele>379.2</ele>
        <time>2022-05-24 10:04:46</time>
      </trkpt>
      <trkpt lat="41.13305" lon="0.86315">
        <ele>379.2</ele>
        <time>2022-05-24 10:04:47</time>
      </trkpt>
      <trkpt lat="41.13305" lon="0.8632">
        <ele>379.2</ele>
        <time>2022-05-24 10:04:48</time>
      </trkpt>
      <trkpt lat="41.13305" lon="0.86325">
        <ele>379.2</ele>
        <time>2022-05-24 10:04:49</time>
      </trkpt>
      <trkpt lat="41.13305" lon="0.86331">
        <ele>379.4</ele>
        <time>2022-05-24 10:04:50</time>
      </trkpt>
      <trkpt lat="41.13305" lon="0.86336">
        <ele>379.4</ele>
        <time>2022-05-24 10:04:51</time>
      </trkpt>
      <trkpt lat="41.13305" lon="0.8634">
        <ele>379.4</ele>
        <time>2022-05-24 10:04:52</time>
      </trkpt>
      <trkpt lat="41.13305" lon="0.86346">
        <ele>379.4</ele>
        <time>2022-05-24 10:04:53</time>
      </trkpt>
      <trkpt lat="41.13304" lon="0.86351">
        <ele>379.4</ele>
        <time>2022-05-24 10:04:54</time>
      </trkpt>
      <trkpt lat="41.13304" lon="0.86355">
        <ele>379.4</ele>
        <time>2022-05-24 10:04:55</time>
      </trkpt>
      <trkpt lat="41.13304" lon="0.86361">
        <ele>379.4</ele>
        <time>2022-05-24 10:04:56</time>
      </trkpt>
      <trkpt lat="41.13303" lon="0.86366">
        <ele>379.4</ele>
        <time>2022-05-24 10:04:57</time>
      </trkpt>
      <trkpt lat="41.13303" lon="0.8637">
        <ele>379.4</ele>
        <time>2022-05-24 10:04:58</time>
      </trkpt>
      <trkpt lat="41.13303" lon="0.86377">
        <ele>379.4</ele>
        <time>2022-05-24 10:04:59</time>
      </trkpt>
      <trkpt lat="41.13303" lon="0.86382">
        <ele>379.6</ele>
        <time>2022-05-24 10:05:00</time>
      </trkpt>
      <trkpt lat="41.13303" lon="0.86387">
        <ele>379.6</ele>
        <time>2022-05-24 10:05:01</time>
      </trkpt>
      <trkpt lat="41.13303" lon="0.86393">
        <ele>379.6</ele>
        <time>2022-05-24 10:05:02</time>
      </trkpt>
      <trkpt lat="41.13302" lon="0.86399">
        <ele>379.6</ele>
        <time>2022-05-24 10:05:03</time>
      </trkpt>
      <trkpt lat="41.13302" lon="0.86404">
        <ele>379.4</ele>
        <time>2022-05-24 10:05:04</time>
      </trkpt>
      <trkpt lat="41.13301" lon="0.86409">
        <ele>379.4</ele>
        <time>2022-05-24 10:05:05</time>
      </trkpt>
      <trkpt lat="41.13299" lon="0.86416">
        <ele>379.4</ele>
        <time>2022-05-24 10:05:06</time>
      </trkpt>
      <trkpt lat="41.13297" lon="0.86421">
        <ele>379.2</ele>
        <time>2022-05-24 10:05:07</time>
      </trkpt>
      <trkpt lat="41.13294" lon="0.86428">
        <ele>379.2</ele>
        <time>2022-05-24 10:05:08</time>
      </trkpt>
      <trkpt lat="41.13291" lon="0.86431">
        <ele>379</ele>
        <time>2022-05-24 10:05:09</time>
      </trkpt>
      <trkpt lat="41.13286" lon="0.86436">
        <ele>379</ele>
        <time>2022-05-24 10:05:10</time>
      </trkpt>
      <trkpt lat="41.13282" lon="0.86438">
        <ele>379</ele>
        <time>2022-05-24 10:05:11</time>
      </trkpt>
      <trkpt lat="41.13277" lon="0.8644">
        <ele>379</ele>
        <time>2022-05-24 10:05:12</time>
      </trkpt>
      <trkpt lat="41.13273" lon="0.86441">
        <ele>379</ele>
        <time>2022-05-24 10:05:13</time>
      </trkpt>
      <trkpt lat="41.13267" lon="0.86441">
        <ele>379</ele>
        <time>2022-05-24 10:05:14</time>
      </trkpt>
      <trkpt lat="41.13263" lon="0.86441">
        <ele>379</ele>
        <time>2022-05-24 10:05:15</time>
      </trkpt>
      <trkpt lat="41.13258" lon="0.86442">
        <ele>379</ele>
        <time>2022-05-24 10:05:16</time>
      </trkpt>
      <trkpt lat="41.13253" lon="0.86443">
        <ele>379</ele>
        <time>2022-05-24 10:05:17</time>
      </trkpt>
      <trkpt lat="41.13248" lon="0.86443">
        <ele>379.2</ele>
        <time>2022-05-24 10:05:18</time>
      </trkpt>
      <trkpt lat="41.13245" lon="0.86442">
        <ele>379.2</ele>
        <time>2022-05-24 10:05:19</time>
      </trkpt>
      <trkpt lat="41.13239" lon="0.86441">
        <ele>379.4</ele>
        <time>2022-05-24 10:05:20</time>
      </trkpt>
      <trkpt lat="41.13235" lon="0.8644">
        <ele>379.4</ele>
        <time>2022-05-24 10:05:21</time>
      </trkpt>
      <trkpt lat="41.13232" lon="0.86439">
        <ele>379.6</ele>
        <time>2022-05-24 10:05:22</time>
      </trkpt>
      <trkpt lat="41.13227" lon="0.86438">
        <ele>379.8</ele>
        <time>2022-05-24 10:05:23</time>
      </trkpt>
      <trkpt lat="41.13224" lon="0.86437">
        <ele>380</ele>
        <time>2022-05-24 10:05:24</time>
      </trkpt>
      <trkpt lat="41.13222" lon="0.86436">
        <ele>380.2</ele>
        <time>2022-05-24 10:05:25</time>
      </trkpt>
      <trkpt lat="41.13219" lon="0.86435">
        <ele>380.4</ele>
        <time>2022-05-24 10:05:26</time>
      </trkpt>
      <trkpt lat="41.13216" lon="0.86434">
        <ele>380.6</ele>
        <time>2022-05-24 10:05:27</time>
      </trkpt>
      <trkpt lat="41.13214" lon="0.86433">
        <ele>380.6</ele>
        <time>2022-05-24 10:05:28</time>
      </trkpt>
      <trkpt lat="41.13212" lon="0.86432">
        <ele>380.8</ele>
        <time>2022-05-24 10:05:29</time>
      </trkpt>
      <trkpt lat="41.13209" lon="0.86431">
        <ele>381</ele>
        <time>2022-05-24 10:05:30</time>
      </trkpt>
      <trkpt lat="41.13206" lon="0.8643">
        <ele>381.2</ele>
        <time>2022-05-24 10:05:31</time>
      </trkpt>
      <trkpt lat="41.13204" lon="0.86429">
        <ele>381.4</ele>
        <time>2022-05-24 10:05:32</time>
      </trkpt>
      <trkpt lat="41.13202" lon="0.86428">
        <ele>381.6</ele>
        <time>2022-05-24 10:05:33</time>
      </trkpt>
      <trkpt lat="41.13199" lon="0.86427">
        <ele>381.8</ele>
        <time>2022-05-24 10:05:34</time>
      </trkpt>
      <trkpt lat="41.13196" lon="0.86426">
        <ele>381.8</ele>
        <time>2022-05-24 10:05:35</time>
      </trkpt>
      <trkpt lat="41.13193" lon="0.86425">
        <ele>382</ele>
        <time>2022-05-24 10:05:36</time>
      </trkpt>
      <trkpt lat="41.13191" lon="0.86425">
        <ele>382.2</ele>
        <time>2022-05-24 10:05:37</time>
      </trkpt>
      <trkpt lat="41.13187" lon="0.86424">
        <ele>382.4</ele>
        <time>2022-05-24 10:05:38</time>
      </trkpt>
      <trkpt lat="41.13184" lon="0.86424">
        <ele>382.4</ele>
        <time>2022-05-24 10:05:39</time>
      </trkpt>
      <trkpt lat="41.13182" lon="0.86423">
        <ele>382.6</ele>
        <time>2022-05-24 10:05:40</time>
      </trkpt>
      <trkpt lat="41.13177" lon="0.86423">
        <ele>382.6</ele>
        <time>2022-05-24 10:05:41</time>
      </trkpt>
      <trkpt lat="41.13174" lon="0.86424">
        <ele>382.6</ele>
        <time>2022-05-24 10:05:42</time>
      </trkpt>
      <trkpt lat="41.13172" lon="0.86424">
        <ele>382.8</ele>
        <time>2022-05-24 10:05:43</time>
      </trkpt>
      <trkpt lat="41.13168" lon="0.86425">
        <ele>382.8</ele>
        <time>2022-05-24 10:05:44</time>
      </trkpt>
      <trkpt lat="41.13165" lon="0.86426">
        <ele>383</ele>
        <time>2022-05-24 10:05:45</time>
      </trkpt>
      <trkpt lat="41.13163" lon="0.86426">
        <ele>383</ele>
        <time>2022-05-24 10:05:46</time>
      </trkpt>
      <trkpt lat="41.13159" lon="0.86427">
        <ele>383.2</ele>
        <time>2022-05-24 10:05:47</time>
      </trkpt>
      <trkpt lat="41.13156" lon="0.86427">
        <ele>383.2</ele>
        <time>2022-05-24 10:05:48</time>
      </trkpt>
      <trkpt lat="41.13153" lon="0.86428">
        <ele>383.4</ele>
        <time>2022-05-24 10:05:49</time>
      </trkpt>
      <trkpt lat="41.1315" lon="0.8643">
        <ele>383.4</ele>
        <time>2022-05-24 10:05:50</time>
      </trkpt>
      <trkpt lat="41.13148" lon="0.86431">
        <ele>383.6</ele>
        <time>2022-05-24 10:05:51</time>
      </trkpt>
      <trkpt lat="41.13145" lon="0.86432">
        <ele>383.8</ele>
        <time>2022-05-24 10:05:52</time>
      </trkpt>
      <trkpt lat="41.13143" lon="0.86434">
        <ele>383.8</ele>
        <time>2022-05-24 10:05:53</time>
      </trkpt>
      <trkpt lat="41.1314" lon="0.86435">
        <ele>384</ele>
        <time>2022-05-24 10:05:54</time>
      </trkpt>
      <trkpt lat="41.13137" lon="0.86436">
        <ele>384</ele>
        <time>2022-05-24 10:05:55</time>
      </trkpt>
      <trkpt lat="41.13134" lon="0.86437">
        <ele>384.2</ele>
        <time>2022-05-24 10:05:56</time>
      </trkpt>
      <trkpt lat="41.13132" lon="0.86438">
        <ele>384.4</ele>
        <time>2022-05-24 10:05:57</time>
      </trkpt>
      <trkpt lat="41.13129" lon="0.86439">
        <ele>384.6</ele>
        <time>2022-05-24 10:05:58</time>
      </trkpt>
      <trkpt lat="41.13127" lon="0.86441">
        <ele>384.6</ele>
        <time>2022-05-24 10:05:59</time>
      </trkpt>
      <trkpt lat="41.13124" lon="0.86442">
        <ele>384.8</ele>
        <time>2022-05-24 10:06:00</time>
      </trkpt>
      <trkpt lat="41.13122" lon="0.86443">
        <ele>384.8</ele>
        <time>2022-05-24 10:06:01</time>
      </trkpt>
      <trkpt lat="41.13119" lon="0.86445">
        <ele>385</ele>
        <time>2022-05-24 10:06:02</time>
      </trkpt>
      <trkpt lat="41.13117" lon="0.86446">
        <ele>385</ele>
        <time>2022-05-24 10:06:03</time>
      </trkpt>
      <trkpt lat="41.13115" lon="0.86447">
        <ele>385.2</ele>
        <time>2022-05-24 10:06:04</time>
      </trkpt>
      <trkpt lat="41.13113" lon="0.86448">
        <ele>385.2</ele>
        <time>2022-05-24 10:06:05</time>
      </trkpt>
      <trkpt lat="41.13111" lon="0.86449">
        <ele>385.4</ele>
        <time>2022-05-24 10:06:06</time>
      </trkpt>
      <trkpt lat="41.13108" lon="0.86451">
        <ele>385.6</ele>
        <time>2022-05-24 10:06:07</time>
      </trkpt>
      <trkpt lat="41.13106" lon="0.86452">
        <ele>385.6</ele>
        <time>2022-05-24 10:06:08</time>
      </trkpt>
      <trkpt lat="41.13104" lon="0.86453">
        <ele>385.8</ele>
        <time>2022-05-24 10:06:09</time>
      </trkpt>
      <trkpt lat="41.13102" lon="0.86455">
        <ele>385.8</ele>
        <time>2022-05-24 10:06:10</time>
      </trkpt>
      <trkpt lat="41.131" lon="0.86456">
        <ele>386</ele>
        <time>2022-05-24 10:06:11</time>
      </trkpt>
      <trkpt lat="41.13097" lon="0.86458">
        <ele>386</ele>
        <time>2022-05-24 10:06:12</time>
      </trkpt>
      <trkpt lat="41.13095" lon="0.86459">
        <ele>386.2</ele>
        <time>2022-05-24 10:06:13</time>
      </trkpt>
      <trkpt lat="41.13093" lon="0.86461">
        <ele>386.2</ele>
        <time>2022-05-24 10:06:14</time>
      </trkpt>
      <trkpt lat="41.13091" lon="0.86462">
        <ele>386.4</ele>
        <time>2022-05-24 10:06:15</time>
      </trkpt>
      <trkpt lat="41.13089" lon="0.86463">
        <ele>386.6</ele>
        <time>2022-05-24 10:06:16</time>
      </trkpt>
      <trkpt lat="41.13087" lon="0.86464">
        <ele>386.6</ele>
        <time>2022-05-24 10:06:17</time>
      </trkpt>
      <trkpt lat="41.13084" lon="0.86466">
        <ele>386.8</ele>
        <time>2022-05-24 10:06:18</time>
      </trkpt>
      <trkpt lat="41.13082" lon="0.86468">
        <ele>387</ele>
        <time>2022-05-24 10:06:19</time>
      </trkpt>
      <trkpt lat="41.1308" lon="0.8647">
        <ele>387</ele>
        <time>2022-05-24 10:06:20</time>
      </trkpt>
      <trkpt lat="41.13078" lon="0.86472">
        <ele>387.2</ele>
        <time>2022-05-24 10:06:21</time>
      </trkpt>
      <trkpt lat="41.13076" lon="0.86474">
        <ele>387.2</ele>
        <time>2022-05-24 10:06:22</time>
      </trkpt>
      <trkpt lat="41.13074" lon="0.86477">
        <ele>387.4</ele>
        <time>2022-05-24 10:06:23</time>
      </trkpt>
      <trkpt lat="41.13072" lon="0.86479">
        <ele>387.4</ele>
        <time>2022-05-24 10:06:24</time>
      </trkpt>
      <trkpt lat="41.13071" lon="0.86481">
        <ele>387.6</ele>
        <time>2022-05-24 10:06:25</time>
      </trkpt>
      <trkpt lat="41.13068" lon="0.86484">
        <ele>387.8</ele>
        <time>2022-05-24 10:06:26</time>
      </trkpt>
      <trkpt lat="41.13066" lon="0.86486">
        <ele>387.8</ele>
        <time>2022-05-24 10:06:27</time>
      </trkpt>
      <trkpt lat="41.13064" lon="0.86488">
        <ele>387.8</ele>
        <time>2022-05-24 10:06:28</time>
      </trkpt>
      <trkpt lat="41.13063" lon="0.86491">
        <ele>388</ele>
        <time>2022-05-24 10:06:29</time>
      </trkpt>
      <trkpt lat="41.1306" lon="0.86494">
        <ele>388</ele>
        <time>2022-05-24 10:06:30</time>
      </trkpt>
      <trkpt lat="41.13059" lon="0.86497">
        <ele>388</ele>
        <time>2022-05-24 10:06:31</time>
      </trkpt>
      <trkpt lat="41.13057" lon="0.865">
        <ele>388.2</ele>
        <time>2022-05-24 10:06:32</time>
      </trkpt>
      <trkpt lat="41.13055" lon="0.86502">
        <ele>388.2</ele>
        <time>2022-05-24 10:06:33</time>
      </trkpt>
      <trkpt lat="41.13053" lon="0.86506">
        <ele>388.2</ele>
        <time>2022-05-24 10:06:34</time>
      </trkpt>
      <trkpt lat="41.13051" lon="0.86508">
        <ele>388.2</ele>
        <time>2022-05-24 10:06:35</time>
      </trkpt>
      <trkpt lat="41.13049" lon="0.8651">
        <ele>388.4</ele>
        <time>2022-05-24 10:06:36</time>
      </trkpt>
      <trkpt lat="41.13046" lon="0.86514">
        <ele>388.4</ele>
        <time>2022-05-24 10:06:37</time>
      </trkpt>
      <trkpt lat="41.13044" lon="0.86516">
        <ele>388.4</ele>
        <time>2022-05-24 10:06:38</time>
      </trkpt>
      <trkpt lat="41.13042" lon="0.86519">
        <ele>388.4</ele>
        <time>2022-05-24 10:06:39</time>
      </trkpt>
      <trkpt lat="41.13039" lon="0.86521">
        <ele>388.6</ele>
        <time>2022-05-24 10:06:40</time>
      </trkpt>
      <trkpt lat="41.13037" lon="0.86523">
        <ele>388.6</ele>
        <time>2022-05-24 10:06:41</time>
      </trkpt>
      <trkpt lat="41.13034" lon="0.86525">
        <ele>388.6</ele>
        <time>2022-05-24 10:06:42</time>
      </trkpt>
      <trkpt lat="41.13032" lon="0.86527">
        <ele>388.8</ele>
        <time>2022-05-24 10:06:43</time>
      </trkpt>
      <trkpt lat="41.1303" lon="0.86528">
        <ele>389</ele>
        <time>2022-05-24 10:06:44</time>
      </trkpt>
      <trkpt lat="41.13027" lon="0.86529">
        <ele>389</ele>
        <time>2022-05-24 10:06:45</time>
      </trkpt>
      <trkpt lat="41.13025" lon="0.8653">
        <ele>389.2</ele>
        <time>2022-05-24 10:06:46</time>
      </trkpt>
      <trkpt lat="41.13023" lon="0.8653">
        <ele>389.4</ele>
        <time>2022-05-24 10:06:47</time>
      </trkpt>
      <trkpt lat="41.1302" lon="0.86531">
        <ele>389.6</ele>
        <time>2022-05-24 10:06:48</time>
      </trkpt>
      <trkpt lat="41.13017" lon="0.86531">
        <ele>389.6</ele>
        <time>2022-05-24 10:06:49</time>
      </trkpt>
      <trkpt lat="41.13015" lon="0.86531">
        <ele>389.8</ele>
        <time>2022-05-24 10:06:50</time>
      </trkpt>
      <trkpt lat="41.13013" lon="0.86531">
        <ele>390</ele>
        <time>2022-05-24 10:06:51</time>
      </trkpt>
      <trkpt lat="41.1301" lon="0.86531">
        <ele>390</ele>
        <time>2022-05-24 10:06:52</time>
      </trkpt>
      <trkpt lat="41.13008" lon="0.86531">
        <ele>390.2</ele>
        <time>2022-05-24 10:06:53</time>
      </trkpt>
      <trkpt lat="41.13006" lon="0.86531">
        <ele>390.4</ele>
        <time>2022-05-24 10:06:54</time>
      </trkpt>
      <trkpt lat="41.13004" lon="0.86531">
        <ele>390.6</ele>
        <time>2022-05-24 10:06:55</time>
      </trkpt>
      <trkpt lat="41.13001" lon="0.86531">
        <ele>390.6</ele>
        <time>2022-05-24 10:06:56</time>
      </trkpt>
      <trkpt lat="41.12998" lon="0.86531">
        <ele>390.8</ele>
        <time>2022-05-24 10:06:57</time>
      </trkpt>
      <trkpt lat="41.12995" lon="0.86531">
        <ele>390.8</ele>
        <time>2022-05-24 10:06:58</time>
      </trkpt>
      <trkpt lat="41.12993" lon="0.86531">
        <ele>391</ele>
        <time>2022-05-24 10:06:59</time>
      </trkpt>
      <trkpt lat="41.1299" lon="0.86532">
        <ele>391</ele>
        <time>2022-05-24 10:07:00</time>
      </trkpt>
      <trkpt lat="41.12987" lon="0.86532">
        <ele>391</ele>
        <time>2022-05-24 10:07:01</time>
      </trkpt>
      <trkpt lat="41.12984" lon="0.86532">
        <ele>391.2</ele>
        <time>2022-05-24 10:07:02</time>
      </trkpt>
      <trkpt lat="41.12982" lon="0.86531">
        <ele>391.2</ele>
        <time>2022-05-24 10:07:03</time>
      </trkpt>
      <trkpt lat="41.12979" lon="0.86531">
        <ele>391.4</ele>
        <time>2022-05-24 10:07:04</time>
      </trkpt>
      <trkpt lat="41.12976" lon="0.86531">
        <ele>391.4</ele>
        <time>2022-05-24 10:07:05</time>
      </trkpt>
      <trkpt lat="41.12973" lon="0.86531">
        <ele>391.6</ele>
        <time>2022-05-24 10:07:06</time>
      </trkpt>
      <trkpt lat="41.12971" lon="0.86531">
        <ele>391.6</ele>
        <time>2022-05-24 10:07:07</time>
      </trkpt>
      <trkpt lat="41.12968" lon="0.86531">
        <ele>391.6</ele>
        <time>2022-05-24 10:07:08</time>
      </trkpt>
      <trkpt lat="41.12965" lon="0.86532">
        <ele>391.8</ele>
        <time>2022-05-24 10:07:09</time>
      </trkpt>
      <trkpt lat="41.12962" lon="0.86532">
        <ele>391.8</ele>
        <time>2022-05-24 10:07:10</time>
      </trkpt>
      <trkpt lat="41.1296" lon="0.86532">
        <ele>392</ele>
        <time>2022-05-24 10:07:11</time>
      </trkpt>
      <trkpt lat="41.12957" lon="0.86531">
        <ele>392</ele>
        <time>2022-05-24 10:07:12</time>
      </trkpt>
      <trkpt lat="41.12954" lon="0.86531">
        <ele>392</ele>
        <time>2022-05-24 10:07:13</time>
      </trkpt>
      <trkpt lat="41.12952" lon="0.86531">
        <ele>392.2</ele>
        <time>2022-05-24 10:07:14</time>
      </trkpt>
      <trkpt lat="41.12949" lon="0.86531">
        <ele>392.2</ele>
        <time>2022-05-24 10:07:15</time>
      </trkpt>
      <trkpt lat="41.12946" lon="0.86531">
        <ele>392.4</ele>
        <time>2022-05-24 10:07:16</time>
      </trkpt>
      <trkpt lat="41.12944" lon="0.86531">
        <ele>392.4</ele>
        <time>2022-05-24 10:07:17</time>
      </trkpt>
      <trkpt lat="41.12941" lon="0.86531">
        <ele>392.4</ele>
        <time>2022-05-24 10:07:18</time>
      </trkpt>
      <trkpt lat="41.12938" lon="0.86531">
        <ele>392.6</ele>
        <time>2022-05-24 10:07:19</time>
      </trkpt>
      <trkpt lat="41.12936" lon="0.86531">
        <ele>392.6</ele>
        <time>2022-05-24 10:07:20</time>
      </trkpt>
      <trkpt lat="41.12933" lon="0.86531">
        <ele>392.8</ele>
        <time>2022-05-24 10:07:21</time>
      </trkpt>
      <trkpt lat="41.12931" lon="0.86531">
        <ele>392.8</ele>
        <time>2022-05-24 10:07:22</time>
      </trkpt>
      <trkpt lat="41.12928" lon="0.86531">
        <ele>393</ele>
        <time>2022-05-24 10:07:23</time>
      </trkpt>
      <trkpt lat="41.12926" lon="0.86531">
        <ele>393</ele>
        <time>2022-05-24 10:07:24</time>
      </trkpt>
      <trkpt lat="41.12923" lon="0.86531">
        <ele>393.2</ele>
        <time>2022-05-24 10:07:25</time>
      </trkpt>
      <trkpt lat="41.12921" lon="0.86531">
        <ele>393.2</ele>
        <time>2022-05-24 10:07:26</time>
      </trkpt>
      <trkpt lat="41.12918" lon="0.86531">
        <ele>393.4</ele>
        <time>2022-05-24 10:07:27</time>
      </trkpt>
      <trkpt lat="41.12916" lon="0.86531">
        <ele>393.6</ele>
        <time>2022-05-24 10:07:28</time>
      </trkpt>
      <trkpt lat="41.12914" lon="0.86531">
        <ele>393.6</ele>
        <time>2022-05-24 10:07:29</time>
      </trkpt>
      <trkpt lat="41.12912" lon="0.86531">
        <ele>393.8</ele>
        <time>2022-05-24 10:07:30</time>
      </trkpt>
      <trkpt lat="41.12909" lon="0.86531">
        <ele>394</ele>
        <time>2022-05-24 10:07:31</time>
      </trkpt>
      <trkpt lat="41.12907" lon="0.8653">
        <ele>394</ele>
        <time>2022-05-24 10:07:32</time>
      </trkpt>
      <trkpt lat="41.12905" lon="0.8653">
        <ele>394.2</ele>
        <time>2022-05-24 10:07:33</time>
      </trkpt>
      <trkpt lat="41.12903" lon="0.8653">
        <ele>394.4</ele>
        <time>2022-05-24 10:07:34</time>
      </trkpt>
      <trkpt lat="41.12901" lon="0.86529">
        <ele>394.6</ele>
        <time>2022-05-24 10:07:35</time>
      </trkpt>
      <trkpt lat="41.12899" lon="0.86529">
        <ele>394.6</ele>
        <time>2022-05-24 10:07:36</time>
      </trkpt>
      <trkpt lat="41.12897" lon="0.86528">
        <ele>394.8</ele>
        <time>2022-05-24 10:07:37</time>
      </trkpt>
      <trkpt lat="41.12895" lon="0.86527">
        <ele>395</ele>
        <time>2022-05-24 10:07:38</time>
      </trkpt>
      <trkpt lat="41.12893" lon="0.86527">
        <ele>395.2</ele>
        <time>2022-05-24 10:07:39</time>
      </trkpt>
      <trkpt lat="41.12891" lon="0.86526">
        <ele>395.2</ele>
        <time>2022-05-24 10:07:40</time>
      </trkpt>
      <trkpt lat="41.12888" lon="0.86526">
        <ele>395.4</ele>
        <time>2022-05-24 10:07:41</time>
      </trkpt>
      <trkpt lat="41.12886" lon="0.86525">
        <ele>395.6</ele>
        <time>2022-05-24 10:07:42</time>
      </trkpt>
      <trkpt lat="41.12885" lon="0.86524">
        <ele>395.8</ele>
        <time>2022-05-24 10:07:43</time>
      </trkpt>
      <trkpt lat="41.12883" lon="0.86523">
        <ele>396</ele>
        <time>2022-05-24 10:07:44</time>
      </trkpt>
      <trkpt lat="41.1288" lon="0.86521">
        <ele>396</ele>
        <time>2022-05-24 10:07:45</time>
      </trkpt>
      <trkpt lat="41.12878" lon="0.8652">
        <ele>396.2</ele>
        <time>2022-05-24 10:07:46</time>
      </trkpt>
      <trkpt lat="41.12876" lon="0.86519">
        <ele>396.4</ele>
        <time>2022-05-24 10:07:47</time>
      </trkpt>
      <trkpt lat="41.12875" lon="0.86517">
        <ele>396.6</ele>
        <time>2022-05-24 10:07:48</time>
      </trkpt>
      <trkpt lat="41.12873" lon="0.86515">
        <ele>396.6</ele>
        <time>2022-05-24 10:07:49</time>
      </trkpt>
      <trkpt lat="41.12872" lon="0.86513">
        <ele>396.8</ele>
        <time>2022-05-24 10:07:50</time>
      </trkpt>
      <trkpt lat="41.1287" lon="0.86511">
        <ele>397</ele>
        <time>2022-05-24 10:07:51</time>
      </trkpt>
      <trkpt lat="41.12869" lon="0.86509">
        <ele>397.2</ele>
        <time>2022-05-24 10:07:52</time>
      </trkpt>
      <trkpt lat="41.12867" lon="0.86507">
        <ele>397.2</ele>
        <time>2022-05-24 10:07:53</time>
      </trkpt>
      <trkpt lat="41.12866" lon="0.86505">
        <ele>397.4</ele>
        <time>2022-05-24 10:07:54</time>
      </trkpt>
      <trkpt lat="41.12864" lon="0.86503">
        <ele>397.6</ele>
        <time>2022-05-24 10:07:55</time>
      </trkpt>
      <trkpt lat="41.12862" lon="0.86501">
        <ele>397.6</ele>
        <time>2022-05-24 10:07:56</time>
      </trkpt>
      <trkpt lat="41.12861" lon="0.86499">
        <ele>397.8</ele>
        <time>2022-05-24 10:07:57</time>
      </trkpt>
      <trkpt lat="41.12859" lon="0.86497">
        <ele>398</ele>
        <time>2022-05-24 10:07:58</time>
      </trkpt>
      <trkpt lat="41.12857" lon="0.86495">
        <ele>398.2</ele>
        <time>2022-05-24 10:07:59</time>
      </trkpt>
      <trkpt lat="41.12856" lon="0.86492">
        <ele>398.2</ele>
        <time>2022-05-24 10:08:00</time>
      </trkpt>
      <trkpt lat="41.12855" lon="0.8649">
        <ele>398.4</ele>
        <time>2022-05-24 10:08:01</time>
      </trkpt>
      <trkpt lat="41.12854" lon="0.86487">
        <ele>398.6</ele>
        <time>2022-05-24 10:08:02</time>
      </trkpt>
      <trkpt lat="41.12852" lon="0.86485">
        <ele>398.8</ele>
        <time>2022-05-24 10:08:03</time>
      </trkpt>
      <trkpt lat="41.12851" lon="0.86483">
        <ele>398.8</ele>
        <time>2022-05-24 10:08:04</time>
      </trkpt>
      <trkpt lat="41.12849" lon="0.86481">
        <ele>399</ele>
        <time>2022-05-24 10:08:05</time>
      </trkpt>
      <trkpt lat="41.12848" lon="0.8648">
        <ele>399.2</ele>
        <time>2022-05-24 10:08:06</time>
      </trkpt>
      <trkpt lat="41.12846" lon="0.86477">
        <ele>399.4</ele>
        <time>2022-05-24 10:08:07</time>
      </trkpt>
      <trkpt lat="41.12844" lon="0.86476">
        <ele>399.4</ele>
        <time>2022-05-24 10:08:08</time>
      </trkpt>
      <trkpt lat="41.12843" lon="0.86473">
        <ele>399.6</ele>
        <time>2022-05-24 10:08:09</time>
      </trkpt>
      <trkpt lat="41.12842" lon="0.86471">
        <ele>399.8</ele>
        <time>2022-05-24 10:08:10</time>
      </trkpt>
      <trkpt lat="41.12841" lon="0.8647">
        <ele>400</ele>
        <time>2022-05-24 10:08:11</time>
      </trkpt>
      <trkpt lat="41.12839" lon="0.86467">
        <ele>400</ele>
        <time>2022-05-24 10:08:12</time>
      </trkpt>
      <trkpt lat="41.12838" lon="0.86466">
        <ele>400.2</ele>
        <time>2022-05-24 10:08:13</time>
      </trkpt>
      <trkpt lat="41.12836" lon="0.86463">
        <ele>400.4</ele>
        <time>2022-05-24 10:08:14</time>
      </trkpt>
      <trkpt lat="41.12835" lon="0.86461">
        <ele>400.6</ele>
        <time>2022-05-24 10:08:15</time>
      </trkpt>
      <trkpt lat="41.12833" lon="0.86459">
        <ele>400.8</ele>
        <time>2022-05-24 10:08:16</time>
      </trkpt>
      <trkpt lat="41.12831" lon="0.86457">
        <ele>400.8</ele>
        <time>2022-05-24 10:08:17</time>
      </trkpt>
      <trkpt lat="41.1283" lon="0.86454">
        <ele>401</ele>
        <time>2022-05-24 10:08:18</time>
      </trkpt>
      <trkpt lat="41.12829" lon="0.86453">
        <ele>401.2</ele>
        <time>2022-05-24 10:08:19</time>
      </trkpt>
      <trkpt lat="41.12827" lon="0.8645">
        <ele>401.4</ele>
        <time>2022-05-24 10:08:20</time>
      </trkpt>
      <trkpt lat="41.12825" lon="0.86449">
        <ele>401.6</ele>
        <time>2022-05-24 10:08:21</time>
      </trkpt>
      <trkpt lat="41.12824" lon="0.86448">
        <ele>401.8</ele>
        <time>2022-05-24 10:08:22</time>
      </trkpt>
      <trkpt lat="41.12822" lon="0.86446">
        <ele>402</ele>
        <time>2022-05-24 10:08:23</time>
      </trkpt>
      <trkpt lat="41.1282" lon="0.86445">
        <ele>402.2</ele>
        <time>2022-05-24 10:08:24</time>
      </trkpt>
      <trkpt lat="41.12819" lon="0.86443">
        <ele>402.4</ele>
        <time>2022-05-24 10:08:25</time>
      </trkpt>
      <trkpt lat="41.12817" lon="0.86442">
        <ele>402.6</ele>
        <time>2022-05-24 10:08:26</time>
      </trkpt>
      <trkpt lat="41.12815" lon="0.86441">
        <ele>402.6</ele>
        <time>2022-05-24 10:08:27</time>
      </trkpt>
      <trkpt lat="41.12814" lon="0.8644">
        <ele>402.8</ele>
        <time>2022-05-24 10:08:28</time>
      </trkpt>
      <trkpt lat="41.12812" lon="0.86439">
        <ele>403</ele>
        <time>2022-05-24 10:08:29</time>
      </trkpt>
      <trkpt lat="41.1281" lon="0.86438">
        <ele>403.2</ele>
        <time>2022-05-24 10:08:30</time>
      </trkpt>
      <trkpt lat="41.12808" lon="0.86437">
        <ele>403.4</ele>
        <time>2022-05-24 10:08:31</time>
      </trkpt>
      <trkpt lat="41.12806" lon="0.86436">
        <ele>403.4</ele>
        <time>2022-05-24 10:08:32</time>
      </trkpt>
      <trkpt lat="41.12804" lon="0.86436">
        <ele>403.6</ele>
        <time>2022-05-24 10:08:33</time>
      </trkpt>
      <trkpt lat="41.12803" lon="0.86436">
        <ele>403.8</ele>
        <time>2022-05-24 10:08:34</time>
      </trkpt>
      <trkpt lat="41.12801" lon="0.86435">
        <ele>404</ele>
        <time>2022-05-24 10:08:35</time>
      </trkpt>
      <trkpt lat="41.12799" lon="0.86435">
        <ele>404.2</ele>
        <time>2022-05-24 10:08:36</time>
      </trkpt>
      <trkpt lat="41.12797" lon="0.86435">
        <ele>404.2</ele>
        <time>2022-05-24 10:08:37</time>
      </trkpt>
      <trkpt lat="41.12794" lon="0.86435">
        <ele>404.4</ele>
        <time>2022-05-24 10:08:38</time>
      </trkpt>
      <trkpt lat="41.12792" lon="0.86435">
        <ele>404.6</ele>
        <time>2022-05-24 10:08:39</time>
      </trkpt>
      <trkpt lat="41.1279" lon="0.86436">
        <ele>404.8</ele>
        <time>2022-05-24 10:08:40</time>
      </trkpt>
      <trkpt lat="41.12789" lon="0.86436">
        <ele>404.8</ele>
        <time>2022-05-24 10:08:41</time>
      </trkpt>
      <trkpt lat="41.12786" lon="0.86437">
        <ele>405</ele>
        <time>2022-05-24 10:08:42</time>
      </trkpt>
      <trkpt lat="41.12785" lon="0.86438">
        <ele>405.2</ele>
        <time>2022-05-24 10:08:43</time>
      </trkpt>
      <trkpt lat="41.12783" lon="0.86438">
        <ele>405.4</ele>
        <time>2022-05-24 10:08:44</time>
      </trkpt>
      <trkpt lat="41.12781" lon="0.86439">
        <ele>405.4</ele>
        <time>2022-05-24 10:08:45</time>
      </trkpt>
      <trkpt lat="41.12779" lon="0.8644">
        <ele>405.6</ele>
        <time>2022-05-24 10:08:46</time>
      </trkpt>
      <trkpt lat="41.12777" lon="0.86441">
        <ele>405.8</ele>
        <time>2022-05-24 10:08:47</time>
      </trkpt>
      <trkpt lat="41.12775" lon="0.86442">
        <ele>405.8</ele>
        <time>2022-05-24 10:08:48</time>
      </trkpt>
      <trkpt lat="41.12773" lon="0.86443">
        <ele>406</ele>
        <time>2022-05-24 10:08:49</time>
      </trkpt>
      <trkpt lat="41.12771" lon="0.86444">
        <ele>406.2</ele>
        <time>2022-05-24 10:08:50</time>
      </trkpt>
      <trkpt lat="41.1277" lon="0.86445">
        <ele>406.2</ele>
        <time>2022-05-24 10:08:51</time>
      </trkpt>
      <trkpt lat="41.12768" lon="0.86447">
        <ele>406.4</ele>
        <time>2022-05-24 10:08:52</time>
      </trkpt>
      <trkpt lat="41.12766" lon="0.86449">
        <ele>406.6</ele>
        <time>2022-05-24 10:08:53</time>
      </trkpt>
      <trkpt lat="41.12764" lon="0.86451">
        <ele>406.6</ele>
        <time>2022-05-24 10:08:54</time>
      </trkpt>
      <trkpt lat="41.12762" lon="0.86454">
        <ele>406.8</ele>
        <time>2022-05-24 10:08:55</time>
      </trkpt>
      <trkpt lat="41.1276" lon="0.86456">
        <ele>406.8</ele>
        <time>2022-05-24 10:08:56</time>
      </trkpt>
      <trkpt lat="41.12759" lon="0.86458">
        <ele>407</ele>
        <time>2022-05-24 10:08:57</time>
      </trkpt>
      <trkpt lat="41.12757" lon="0.86461">
        <ele>407</ele>
        <time>2022-05-24 10:08:58</time>
      </trkpt>
      <trkpt lat="41.12754" lon="0.86463">
        <ele>407</ele>
        <time>2022-05-24 10:08:59</time>
      </trkpt>
      <trkpt lat="41.12752" lon="0.86465">
        <ele>407.2</ele>
        <time>2022-05-24 10:09:00</time>
      </trkpt>
      <trkpt lat="41.12749" lon="0.86467">
        <ele>407.2</ele>
        <time>2022-05-24 10:09:01</time>
      </trkpt>
      <trkpt lat="41.12747" lon="0.86469">
        <ele>407.2</ele>
        <time>2022-05-24 10:09:02</time>
      </trkpt>
      <trkpt lat="41.12745" lon="0.86472">
        <ele>407.2</ele>
        <time>2022-05-24 10:09:03</time>
      </trkpt>
      <trkpt lat="41.12742" lon="0.86474">
        <ele>407.2</ele>
        <time>2022-05-24 10:09:04</time>
      </trkpt>
      <trkpt lat="41.12738" lon="0.86477">
        <ele>407.2</ele>
        <time>2022-05-24 10:09:05</time>
      </trkpt>
      <trkpt lat="41.12735" lon="0.86479">
        <ele>407.2</ele>
        <time>2022-05-24 10:09:06</time>
      </trkpt>
      <trkpt lat="41.12732" lon="0.8648">
        <ele>407.2</ele>
        <time>2022-05-24 10:09:07</time>
      </trkpt>
      <trkpt lat="41.12729" lon="0.86482">
        <ele>407.2</ele>
        <time>2022-05-24 10:09:08</time>
      </trkpt>
      <trkpt lat="41.12725" lon="0.86483">
        <ele>407</ele>
        <time>2022-05-24 10:09:09</time>
      </trkpt>
      <trkpt lat="41.12721" lon="0.86484">
        <ele>407</ele>
        <time>2022-05-24 10:09:10</time>
      </trkpt>
      <trkpt lat="41.12717" lon="0.86485">
        <ele>406.8</ele>
        <time>2022-05-24 10:09:11</time>
      </trkpt>
      <trkpt lat="41.12713" lon="0.86484">
        <ele>406.6</ele>
        <time>2022-05-24 10:09:12</time>
      </trkpt>
      <trkpt lat="41.12708" lon="0.86484">
        <ele>406.4</ele>
        <time>2022-05-24 10:09:13</time>
      </trkpt>
      <trkpt lat="41.12703" lon="0.86482">
        <ele>406</ele>
        <time>2022-05-24 10:09:14</time>
      </trkpt>
      <trkpt lat="41.12698" lon="0.8648">
        <ele>405.8</ele>
        <time>2022-05-24 10:09:15</time>
      </trkpt>
      <trkpt lat="41.12692" lon="0.86478">
        <ele>405.6</ele>
        <time>2022-05-24 10:09:16</time>
      </trkpt>
      <trkpt lat="41.12686" lon="0.86476">
        <ele>405.2</ele>
        <time>2022-05-24 10:09:17</time>
      </trkpt>
      <trkpt lat="41.1268" lon="0.86473">
        <ele>405</ele>
        <time>2022-05-24 10:09:18</time>
      </trkpt>
      <trkpt lat="41.12674" lon="0.86471">
        <ele>404.6</ele>
        <time>2022-05-24 10:09:19</time>
      </trkpt>
      <trkpt lat="41.12668" lon="0.86468">
        <ele>404.2</ele>
        <time>2022-05-24 10:09:20</time>
      </trkpt>
      <trkpt lat="41.12662" lon="0.86465">
        <ele>404</ele>
        <time>2022-05-24 10:09:21</time>
      </trkpt>
      <trkpt lat="41.12655" lon="0.86462">
        <ele>403.6</ele>
        <time>2022-05-24 10:09:22</time>
      </trkpt>
      <trkpt lat="41.12648" lon="0.8646">
        <ele>403.4</ele>
        <time>2022-05-24 10:09:23</time>
      </trkpt>
      <trkpt lat="41.12642" lon="0.86458">
        <ele>403</ele>
        <time>2022-05-24 10:09:24</time>
      </trkpt>
      <trkpt lat="41.12636" lon="0.86456">
        <ele>402.8</ele>
        <time>2022-05-24 10:09:25</time>
      </trkpt>
      <trkpt lat="41.12629" lon="0.86454">
        <ele>402.6</ele>
        <time>2022-05-24 10:09:26</time>
      </trkpt>
      <trkpt lat="41.12623" lon="0.86453">
        <ele>402.4</ele>
        <time>2022-05-24 10:09:27</time>
      </trkpt>
      <trkpt lat="41.12616" lon="0.86453">
        <ele>402.2</ele>
        <time>2022-05-24 10:09:28</time>
      </trkpt>
      <trkpt lat="41.1261" lon="0.86453">
        <ele>402</ele>
        <time>2022-05-24 10:09:29</time>
      </trkpt>
      <trkpt lat="41.12604" lon="0.86453">
        <ele>402</ele>
        <time>2022-05-24 10:09:30</time>
      </trkpt>
      <trkpt lat="41.12597" lon="0.86453">
        <ele>401.8</ele>
        <time>2022-05-24 10:09:31</time>
      </trkpt>
      <trkpt lat="41.12591" lon="0.86454">
        <ele>401.8</ele>
        <time>2022-05-24 10:09:32</time>
      </trkpt>
      <trkpt lat="41.12584" lon="0.86456">
        <ele>401.6</ele>
        <time>2022-05-24 10:09:33</time>
      </trkpt>
      <trkpt lat="41.12578" lon="0.86458">
        <ele>401.4</ele>
        <time>2022-05-24 10:09:34</time>
      </trkpt>
      <trkpt lat="41.12571" lon="0.86462">
        <ele>401</ele>
        <time>2022-05-24 10:09:35</time>
      </trkpt>
      <trkpt lat="41.12566" lon="0.86467">
        <ele>400.6</ele>
        <time>2022-05-24 10:09:36</time>
      </trkpt>
      <trkpt lat="41.1256" lon="0.86474">
        <ele>400.2</ele>
        <time>2022-05-24 10:09:37</time>
      </trkpt>
      <trkpt lat="41.12554" lon="0.8648">
        <ele>399.6</ele>
        <time>2022-05-24 10:09:38</time>
      </trkpt>
      <trkpt lat="41.12548" lon="0.86486">
        <ele>399</ele>
        <time>2022-05-24 10:09:39</time>
      </trkpt>
      <trkpt lat="41.12541" lon="0.86492">
        <ele>398.2</ele>
        <time>2022-05-24 10:09:40</time>
      </trkpt>
      <trkpt lat="41.12533" lon="0.86498">
        <ele>397.6</ele>
        <time>2022-05-24 10:09:41</time>
      </trkpt>
      <trkpt lat="41.12526" lon="0.86505">
        <ele>397</ele>
        <time>2022-05-24 10:09:42</time>
      </trkpt>
      <trkpt lat="41.12518" lon="0.86514">
        <ele>396.4</ele>
        <time>2022-05-24 10:09:43</time>
      </trkpt>
      <trkpt lat="41.12512" lon="0.86522">
        <ele>396</ele>
        <time>2022-05-24 10:09:44</time>
      </trkpt>
      <trkpt lat="41.12508" lon="0.86532">
        <ele>395.6</ele>
        <time>2022-05-24 10:09:45</time>
      </trkpt>
      <trkpt lat="41.12503" lon="0.86542">
        <ele>395.4</ele>
        <time>2022-05-24 10:09:46</time>
      </trkpt>
      <trkpt lat="41.12499" lon="0.86552">
        <ele>395.2</ele>
        <time>2022-05-24 10:09:47</time>
      </trkpt>
      <trkpt lat="41.12497" lon="0.86563">
        <ele>395</ele>
        <time>2022-05-24 10:09:48</time>
      </trkpt>
      <trkpt lat="41.12498" lon="0.86572">
        <ele>395</ele>
        <time>2022-05-24 10:09:49</time>
      </trkpt>
      <trkpt lat="41.12499" lon="0.86582">
        <ele>394.8</ele>
        <time>2022-05-24 10:09:50</time>
      </trkpt>
      <trkpt lat="41.12502" lon="0.86591">
        <ele>394.6</ele>
        <time>2022-05-24 10:09:51</time>
      </trkpt>
      <trkpt lat="41.12506" lon="0.86599">
        <ele>394.6</ele>
        <time>2022-05-24 10:09:52</time>
      </trkpt>
      <trkpt lat="41.12509" lon="0.86607">
        <ele>394.4</ele>
        <time>2022-05-24 10:09:53</time>
      </trkpt>
      <trkpt lat="41.12512" lon="0.86616">
        <ele>394.4</ele>
        <time>2022-05-24 10:09:54</time>
      </trkpt>
      <trkpt lat="41.12515" lon="0.86625">
        <ele>394.4</ele>
        <time>2022-05-24 10:09:55</time>
      </trkpt>
      <trkpt lat="41.12517" lon="0.86634">
        <ele>394.4</ele>
        <time>2022-05-24 10:09:56</time>
      </trkpt>
      <trkpt lat="41.12519" lon="0.86642">
        <ele>394.6</ele>
        <time>2022-05-24 10:09:57</time>
      </trkpt>
      <trkpt lat="41.12521" lon="0.8665">
        <ele>394.8</ele>
        <time>2022-05-24 10:09:58</time>
      </trkpt>
      <trkpt lat="41.12522" lon="0.86657">
        <ele>395</ele>
        <time>2022-05-24 10:09:59</time>
      </trkpt>
      <trkpt lat="41.12524" lon="0.86665">
        <ele>395.2</ele>
        <time>2022-05-24 10:10:00</time>
      </trkpt>
      <trkpt lat="41.12525" lon="0.86671">
        <ele>395.4</ele>
        <time>2022-05-24 10:10:01</time>
      </trkpt>
      <trkpt lat="41.12526" lon="0.86678">
        <ele>395.6</ele>
        <time>2022-05-24 10:10:02</time>
      </trkpt>
      <trkpt lat="41.12526" lon="0.86684">
        <ele>395.8</ele>
        <time>2022-05-24 10:10:03</time>
      </trkpt>
      <trkpt lat="41.12526" lon="0.8669">
        <ele>396</ele>
        <time>2022-05-24 10:10:04</time>
      </trkpt>
      <trkpt lat="41.12525" lon="0.86696">
        <ele>396.2</ele>
        <time>2022-05-24 10:10:05</time>
      </trkpt>
      <trkpt lat="41.12523" lon="0.86701">
        <ele>396.4</ele>
        <time>2022-05-24 10:10:06</time>
      </trkpt>
      <trkpt lat="41.12519" lon="0.86705">
        <ele>396.4</ele>
        <time>2022-05-24 10:10:07</time>
      </trkpt>
      <trkpt lat="41.12515" lon="0.86708">
        <ele>396.6</ele>
        <time>2022-05-24 10:10:08</time>
      </trkpt>
      <trkpt lat="41.12511" lon="0.8671">
        <ele>396.6</ele>
        <time>2022-05-24 10:10:09</time>
      </trkpt>
      <trkpt lat="41.12506" lon="0.86711">
        <ele>396.8</ele>
        <time>2022-05-24 10:10:10</time>
      </trkpt>
      <trkpt lat="41.12502" lon="0.86711">
        <ele>397</ele>
        <time>2022-05-24 10:10:11</time>
      </trkpt>
      <trkpt lat="41.12499" lon="0.8671">
        <ele>397.2</ele>
        <time>2022-05-24 10:10:12</time>
      </trkpt>
      <trkpt lat="41.12495" lon="0.86709">
        <ele>397.4</ele>
        <time>2022-05-24 10:10:13</time>
      </trkpt>
      <trkpt lat="41.12493" lon="0.86707">
        <ele>397.6</ele>
        <time>2022-05-24 10:10:14</time>
      </trkpt>
      <trkpt lat="41.1249" lon="0.86705">
        <ele>397.8</ele>
        <time>2022-05-24 10:10:15</time>
      </trkpt>
      <trkpt lat="41.12488" lon="0.86702">
        <ele>398</ele>
        <time>2022-05-24 10:10:16</time>
      </trkpt>
      <trkpt lat="41.12486" lon="0.86699">
        <ele>398.4</ele>
        <time>2022-05-24 10:10:17</time>
      </trkpt>
      <trkpt lat="41.12484" lon="0.86697">
        <ele>398.6</ele>
        <time>2022-05-24 10:10:18</time>
      </trkpt>
      <trkpt lat="41.12482" lon="0.86694">
        <ele>398.8</ele>
        <time>2022-05-24 10:10:19</time>
      </trkpt>
      <trkpt lat="41.12481" lon="0.86692">
        <ele>399</ele>
        <time>2022-05-24 10:10:20</time>
      </trkpt>
      <trkpt lat="41.1248" lon="0.86689">
        <ele>399.2</ele>
        <time>2022-05-24 10:10:21</time>
      </trkpt>
      <trkpt lat="41.12479" lon="0.86686">
        <ele>399.2</ele>
        <time>2022-05-24 10:10:22</time>
      </trkpt>
      <trkpt lat="41.12478" lon="0.86683">
        <ele>399.4</ele>
        <time>2022-05-24 10:10:23</time>
      </trkpt>
      <trkpt lat="41.12477" lon="0.8668">
        <ele>399.6</ele>
        <time>2022-05-24 10:10:24</time>
      </trkpt>
      <trkpt lat="41.12476" lon="0.86678">
        <ele>399.8</ele>
        <time>2022-05-24 10:10:25</time>
      </trkpt>
      <trkpt lat="41.12475" lon="0.86675">
        <ele>400</ele>
        <time>2022-05-24 10:10:26</time>
      </trkpt>
      <trkpt lat="41.12474" lon="0.86673">
        <ele>400.2</ele>
        <time>2022-05-24 10:10:27</time>
      </trkpt>
      <trkpt lat="41.12473" lon="0.8667">
        <ele>400.4</ele>
        <time>2022-05-24 10:10:28</time>
      </trkpt>
      <trkpt lat="41.12471" lon="0.86668">
        <ele>400.4</ele>
        <time>2022-05-24 10:10:29</time>
      </trkpt>
      <trkpt lat="41.1247" lon="0.86666">
        <ele>400.6</ele>
        <time>2022-05-24 10:10:30</time>
      </trkpt>
      <trkpt lat="41.12469" lon="0.86663">
        <ele>400.8</ele>
        <time>2022-05-24 10:10:31</time>
      </trkpt>
      <trkpt lat="41.12468" lon="0.86662">
        <ele>401</ele>
        <time>2022-05-24 10:10:32</time>
      </trkpt>
      <trkpt lat="41.12466" lon="0.8666">
        <ele>401</ele>
        <time>2022-05-24 10:10:33</time>
      </trkpt>
      <trkpt lat="41.12465" lon="0.86658">
        <ele>401.2</ele>
        <time>2022-05-24 10:10:34</time>
      </trkpt>
      <trkpt lat="41.12463" lon="0.86656">
        <ele>401.4</ele>
        <time>2022-05-24 10:10:35</time>
      </trkpt>
      <trkpt lat="41.12461" lon="0.86654">
        <ele>401.4</ele>
        <time>2022-05-24 10:10:36</time>
      </trkpt>
      <trkpt lat="41.1246" lon="0.86652">
        <ele>401.6</ele>
        <time>2022-05-24 10:10:37</time>
      </trkpt>
      <trkpt lat="41.12458" lon="0.86649">
        <ele>401.6</ele>
        <time>2022-05-24 10:10:38</time>
      </trkpt>
      <trkpt lat="41.12457" lon="0.86647">
        <ele>401.8</ele>
        <time>2022-05-24 10:10:39</time>
      </trkpt>
      <trkpt lat="41.12455" lon="0.86645">
        <ele>402</ele>
        <time>2022-05-24 10:10:40</time>
      </trkpt>
      <trkpt lat="41.12454" lon="0.86643">
        <ele>402</ele>
        <time>2022-05-24 10:10:41</time>
      </trkpt>
      <trkpt lat="41.12452" lon="0.86642">
        <ele>402.2</ele>
        <time>2022-05-24 10:10:42</time>
      </trkpt>
      <trkpt lat="41.12451" lon="0.8664">
        <ele>402.4</ele>
        <time>2022-05-24 10:10:43</time>
      </trkpt>
      <trkpt lat="41.12449" lon="0.86638">
        <ele>402.6</ele>
        <time>2022-05-24 10:10:44</time>
      </trkpt>
      <trkpt lat="41.12448" lon="0.86637">
        <ele>402.6</ele>
        <time>2022-05-24 10:10:45</time>
      </trkpt>
      <trkpt lat="41.12446" lon="0.86635">
        <ele>402.8</ele>
        <time>2022-05-24 10:10:46</time>
      </trkpt>
      <trkpt lat="41.12445" lon="0.86634">
        <ele>403</ele>
        <time>2022-05-24 10:10:47</time>
      </trkpt>
      <trkpt lat="41.12443" lon="0.86632">
        <ele>403</ele>
        <time>2022-05-24 10:10:48</time>
      </trkpt>
      <trkpt lat="41.12442" lon="0.8663">
        <ele>403.2</ele>
        <time>2022-05-24 10:10:49</time>
      </trkpt>
      <trkpt lat="41.12441" lon="0.86628">
        <ele>403.4</ele>
        <time>2022-05-24 10:10:50</time>
      </trkpt>
      <trkpt lat="41.12439" lon="0.86626">
        <ele>403.4</ele>
        <time>2022-05-24 10:10:51</time>
      </trkpt>
      <trkpt lat="41.12438" lon="0.86624">
        <ele>403.6</ele>
        <time>2022-05-24 10:10:52</time>
      </trkpt>
      <trkpt lat="41.12437" lon="0.86622">
        <ele>403.8</ele>
        <time>2022-05-24 10:10:53</time>
      </trkpt>
      <trkpt lat="41.12435" lon="0.8662">
        <ele>403.8</ele>
        <time>2022-05-24 10:10:54</time>
      </trkpt>
      <trkpt lat="41.12434" lon="0.86618">
        <ele>404</ele>
        <time>2022-05-24 10:10:55</time>
      </trkpt>
      <trkpt lat="41.12432" lon="0.86615">
        <ele>404.2</ele>
        <time>2022-05-24 10:10:56</time>
      </trkpt>
      <trkpt lat="41.12431" lon="0.86613">
        <ele>404.2</ele>
        <time>2022-05-24 10:10:57</time>
      </trkpt>
      <trkpt lat="41.1243" lon="0.8661">
        <ele>404.4</ele>
        <time>2022-05-24 10:10:58</time>
      </trkpt>
      <trkpt lat="41.12429" lon="0.86608">
        <ele>404.4</ele>
        <time>2022-05-24 10:10:59</time>
      </trkpt>
      <trkpt lat="41.12428" lon="0.86605">
        <ele>404.6</ele>
        <time>2022-05-24 10:11:00</time>
      </trkpt>
      <trkpt lat="41.12426" lon="0.86603">
        <ele>404.6</ele>
        <time>2022-05-24 10:11:01</time>
      </trkpt>
      <trkpt lat="41.12425" lon="0.866">
        <ele>404.8</ele>
        <time>2022-05-24 10:11:02</time>
      </trkpt>
      <trkpt lat="41.12424" lon="0.86598">
        <ele>405</ele>
        <time>2022-05-24 10:11:03</time>
      </trkpt>
      <trkpt lat="41.12423" lon="0.86596">
        <ele>405</ele>
        <time>2022-05-24 10:11:04</time>
      </trkpt>
      <trkpt lat="41.12422" lon="0.86593">
        <ele>405.2</ele>
        <time>2022-05-24 10:11:05</time>
      </trkpt>
      <trkpt lat="41.12421" lon="0.86591">
        <ele>405.2</ele>
        <time>2022-05-24 10:11:06</time>
      </trkpt>
      <trkpt lat="41.1242" lon="0.86589">
        <ele>405.4</ele>
        <time>2022-05-24 10:11:07</time>
      </trkpt>
      <trkpt lat="41.12418" lon="0.86586">
        <ele>405.6</ele>
        <time>2022-05-24 10:11:08</time>
      </trkpt>
      <trkpt lat="41.12417" lon="0.86584">
        <ele>405.6</ele>
        <time>2022-05-24 10:11:09</time>
      </trkpt>
      <trkpt lat="41.12416" lon="0.86582">
        <ele>405.8</ele>
        <time>2022-05-24 10:11:10</time>
      </trkpt>
      <trkpt lat="41.12414" lon="0.86581">
        <ele>406</ele>
        <time>2022-05-24 10:11:11</time>
      </trkpt>
      <trkpt lat="41.12412" lon="0.8658">
        <ele>406</ele>
        <time>2022-05-24 10:11:12</time>
      </trkpt>
      <trkpt lat="41.1241" lon="0.86579">
        <ele>406.2</ele>
        <time>2022-05-24 10:11:13</time>
      </trkpt>
      <trkpt lat="41.12408" lon="0.86578">
        <ele>406.4</ele>
        <time>2022-05-24 10:11:14</time>
      </trkpt>
      <trkpt lat="41.12406" lon="0.86577">
        <ele>406.4</ele>
        <time>2022-05-24 10:11:15</time>
      </trkpt>
      <trkpt lat="41.12404" lon="0.86577">
        <ele>406.6</ele>
        <time>2022-05-24 10:11:16</time>
      </trkpt>
      <trkpt lat="41.12402" lon="0.86577">
        <ele>406.8</ele>
        <time>2022-05-24 10:11:17</time>
      </trkpt>
      <trkpt lat="41.124" lon="0.86577">
        <ele>406.8</ele>
        <time>2022-05-24 10:11:18</time>
      </trkpt>
      <trkpt lat="41.12397" lon="0.86577">
        <ele>407</ele>
        <time>2022-05-24 10:11:19</time>
      </trkpt>
      <trkpt lat="41.12395" lon="0.86578">
        <ele>407.2</ele>
        <time>2022-05-24 10:11:20</time>
      </trkpt>
      <trkpt lat="41.12393" lon="0.86579">
        <ele>407.2</ele>
        <time>2022-05-24 10:11:21</time>
      </trkpt>
      <trkpt lat="41.12391" lon="0.8658">
        <ele>407.4</ele>
        <time>2022-05-24 10:11:22</time>
      </trkpt>
      <trkpt lat="41.12389" lon="0.86581">
        <ele>407.4</ele>
        <time>2022-05-24 10:11:23</time>
      </trkpt>
      <trkpt lat="41.12387" lon="0.86582">
        <ele>407.6</ele>
        <time>2022-05-24 10:11:24</time>
      </trkpt>
      <trkpt lat="41.12385" lon="0.86584">
        <ele>407.8</ele>
        <time>2022-05-24 10:11:25</time>
      </trkpt>
      <trkpt lat="41.12383" lon="0.86585">
        <ele>407.8</ele>
        <time>2022-05-24 10:11:26</time>
      </trkpt>
      <trkpt lat="41.12381" lon="0.86587">
        <ele>408</ele>
        <time>2022-05-24 10:11:27</time>
      </trkpt>
      <trkpt lat="41.1238" lon="0.86588">
        <ele>408.2</ele>
        <time>2022-05-24 10:11:28</time>
      </trkpt>
      <trkpt lat="41.12378" lon="0.8659">
        <ele>408.2</ele>
        <time>2022-05-24 10:11:29</time>
      </trkpt>
      <trkpt lat="41.12376" lon="0.86592">
        <ele>408.4</ele>
        <time>2022-05-24 10:11:30</time>
      </trkpt>
      <trkpt lat="41.12374" lon="0.86593">
        <ele>408.6</ele>
        <time>2022-05-24 10:11:31</time>
      </trkpt>
      <trkpt lat="41.12373" lon="0.86595">
        <ele>408.8</ele>
        <time>2022-05-24 10:11:32</time>
      </trkpt>
      <trkpt lat="41.12372" lon="0.86597">
        <ele>408.8</ele>
        <time>2022-05-24 10:11:33</time>
      </trkpt>
      <trkpt lat="41.12371" lon="0.86599">
        <ele>409</ele>
        <time>2022-05-24 10:11:34</time>
      </trkpt>
      <trkpt lat="41.12369" lon="0.86601">
        <ele>409.2</ele>
        <time>2022-05-24 10:11:35</time>
      </trkpt>
      <trkpt lat="41.12368" lon="0.86603">
        <ele>409.2</ele>
        <time>2022-05-24 10:11:36</time>
      </trkpt>
      <trkpt lat="41.12367" lon="0.86606">
        <ele>409.4</ele>
        <time>2022-05-24 10:11:37</time>
      </trkpt>
      <trkpt lat="41.12365" lon="0.86608">
        <ele>409.6</ele>
        <time>2022-05-24 10:11:38</time>
      </trkpt>
      <trkpt lat="41.12364" lon="0.8661">
        <ele>409.6</ele>
        <time>2022-05-24 10:11:39</time>
      </trkpt>
      <trkpt lat="41.12363" lon="0.86612">
        <ele>409.8</ele>
        <time>2022-05-24 10:11:40</time>
      </trkpt>
      <trkpt lat="41.12361" lon="0.86615">
        <ele>410</ele>
        <time>2022-05-24 10:11:41</time>
      </trkpt>
      <trkpt lat="41.1236" lon="0.86617">
        <ele>410.2</ele>
        <time>2022-05-24 10:11:42</time>
      </trkpt>
      <trkpt lat="41.12359" lon="0.86619">
        <ele>410.2</ele>
        <time>2022-05-24 10:11:43</time>
      </trkpt>
      <trkpt lat="41.12358" lon="0.86622">
        <ele>410.4</ele>
        <time>2022-05-24 10:11:44</time>
      </trkpt>
      <trkpt lat="41.12357" lon="0.86624">
        <ele>410.6</ele>
        <time>2022-05-24 10:11:45</time>
      </trkpt>
      <trkpt lat="41.12357" lon="0.86626">
        <ele>410.8</ele>
        <time>2022-05-24 10:11:46</time>
      </trkpt>
      <trkpt lat="41.12356" lon="0.86628">
        <ele>411</ele>
        <time>2022-05-24 10:11:47</time>
      </trkpt>
      <trkpt lat="41.12355" lon="0.8663">
        <ele>411</ele>
        <time>2022-05-24 10:11:48</time>
      </trkpt>
      <trkpt lat="41.12354" lon="0.86633">
        <ele>411.2</ele>
        <time>2022-05-24 10:11:49</time>
      </trkpt>
      <trkpt lat="41.12354" lon="0.86635">
        <ele>411.4</ele>
        <time>2022-05-24 10:11:50</time>
      </trkpt>
      <trkpt lat="41.12353" lon="0.86638">
        <ele>411.6</ele>
        <time>2022-05-24 10:11:51</time>
      </trkpt>
      <trkpt lat="41.12352" lon="0.8664">
        <ele>411.8</ele>
        <time>2022-05-24 10:11:52</time>
      </trkpt>
      <trkpt lat="41.12351" lon="0.86643">
        <ele>411.8</ele>
        <time>2022-05-24 10:11:53</time>
      </trkpt>
      <trkpt lat="41.12351" lon="0.86645">
        <ele>412</ele>
        <time>2022-05-24 10:11:54</time>
      </trkpt>
      <trkpt lat="41.1235" lon="0.86648">
        <ele>412.2</ele>
        <time>2022-05-24 10:11:55</time>
      </trkpt>
      <trkpt lat="41.1235" lon="0.8665">
        <ele>412.4</ele>
        <time>2022-05-24 10:11:56</time>
      </trkpt>
      <trkpt lat="41.12349" lon="0.86653">
        <ele>412.4</ele>
        <time>2022-05-24 10:11:57</time>
      </trkpt>
      <trkpt lat="41.12349" lon="0.86655">
        <ele>412.6</ele>
        <time>2022-05-24 10:11:58</time>
      </trkpt>
      <trkpt lat="41.12349" lon="0.86657">
        <ele>412.8</ele>
        <time>2022-05-24 10:11:59</time>
      </trkpt>
      <trkpt lat="41.12349" lon="0.8666">
        <ele>413</ele>
        <time>2022-05-24 10:12:00</time>
      </trkpt>
      <trkpt lat="41.12349" lon="0.86662">
        <ele>413</ele>
        <time>2022-05-24 10:12:01</time>
      </trkpt>
      <trkpt lat="41.12349" lon="0.86664">
        <ele>413.2</ele>
        <time>2022-05-24 10:12:02</time>
      </trkpt>
      <trkpt lat="41.12349" lon="0.86667">
        <ele>413.4</ele>
        <time>2022-05-24 10:12:03</time>
      </trkpt>
      <trkpt lat="41.12349" lon="0.86669">
        <ele>413.6</ele>
        <time>2022-05-24 10:12:04</time>
      </trkpt>
      <trkpt lat="41.12349" lon="0.86671">
        <ele>413.8</ele>
        <time>2022-05-24 10:12:05</time>
      </trkpt>
      <trkpt lat="41.12348" lon="0.86674">
        <ele>414</ele>
        <time>2022-05-24 10:12:06</time>
      </trkpt>
      <trkpt lat="41.12348" lon="0.86676">
        <ele>414</ele>
        <time>2022-05-24 10:12:07</time>
      </trkpt>
      <trkpt lat="41.12348" lon="0.86678">
        <ele>414.2</ele>
        <time>2022-05-24 10:12:08</time>
      </trkpt>
      <trkpt lat="41.12347" lon="0.86681">
        <ele>414.4</ele>
        <time>2022-05-24 10:12:09</time>
      </trkpt>
      <trkpt lat="41.12347" lon="0.86683">
        <ele>414.6</ele>
        <time>2022-05-24 10:12:10</time>
      </trkpt>
      <trkpt lat="41.12347" lon="0.86686">
        <ele>414.8</ele>
        <time>2022-05-24 10:12:11</time>
      </trkpt>
      <trkpt lat="41.12346" lon="0.86688">
        <ele>414.8</ele>
        <time>2022-05-24 10:12:12</time>
      </trkpt>
      <trkpt lat="41.12345" lon="0.8669">
        <ele>415</ele>
        <time>2022-05-24 10:12:13</time>
      </trkpt>
      <trkpt lat="41.12344" lon="0.86692">
        <ele>415.2</ele>
        <time>2022-05-24 10:12:14</time>
      </trkpt>
      <trkpt lat="41.12343" lon="0.86695">
        <ele>415.4</ele>
        <time>2022-05-24 10:12:15</time>
      </trkpt>
      <trkpt lat="41.12341" lon="0.86697">
        <ele>415.6</ele>
        <time>2022-05-24 10:12:16</time>
      </trkpt>
      <trkpt lat="41.1234" lon="0.86699">
        <ele>415.8</ele>
        <time>2022-05-24 10:12:17</time>
      </trkpt>
      <trkpt lat="41.1234" lon="0.86701">
        <ele>415.8</ele>
        <time>2022-05-24 10:12:18</time>
      </trkpt>
      <trkpt lat="41.12339" lon="0.86704">
        <ele>416</ele>
        <time>2022-05-24 10:12:19</time>
      </trkpt>
      <trkpt lat="41.12338" lon="0.86706">
        <ele>416.2</ele>
        <time>2022-05-24 10:12:20</time>
      </trkpt>
      <trkpt lat="41.12336" lon="0.86708">
        <ele>416.4</ele>
        <time>2022-05-24 10:12:21</time>
      </trkpt>
      <trkpt lat="41.12334" lon="0.86711">
        <ele>416.6</ele>
        <time>2022-05-24 10:12:22</time>
      </trkpt>
      <trkpt lat="41.12333" lon="0.86713">
        <ele>416.8</ele>
        <time>2022-05-24 10:12:23</time>
      </trkpt>
      <trkpt lat="41.12332" lon="0.86715">
        <ele>416.8</ele>
        <time>2022-05-24 10:12:24</time>
      </trkpt>
      <trkpt lat="41.1233" lon="0.86717">
        <ele>417</ele>
        <time>2022-05-24 10:12:25</time>
      </trkpt>
      <trkpt lat="41.12329" lon="0.86719">
        <ele>417.2</ele>
        <time>2022-05-24 10:12:26</time>
      </trkpt>
      <trkpt lat="41.12327" lon="0.86721">
        <ele>417.2</ele>
        <time>2022-05-24 10:12:27</time>
      </trkpt>
      <trkpt lat="41.12326" lon="0.86723">
        <ele>417.4</ele>
        <time>2022-05-24 10:12:28</time>
      </trkpt>
      <trkpt lat="41.12324" lon="0.86724">
        <ele>417.6</ele>
        <time>2022-05-24 10:12:29</time>
      </trkpt>
      <trkpt lat="41.12323" lon="0.86727">
        <ele>417.8</ele>
        <time>2022-05-24 10:12:30</time>
      </trkpt>
      <trkpt lat="41.12321" lon="0.86728">
        <ele>418</ele>
        <time>2022-05-24 10:12:31</time>
      </trkpt>
      <trkpt lat="41.1232" lon="0.8673">
        <ele>418</ele>
        <time>2022-05-24 10:12:32</time>
      </trkpt>
      <trkpt lat="41.12318" lon="0.86732">
        <ele>418.2</ele>
        <time>2022-05-24 10:12:33</time>
      </trkpt>
      <trkpt lat="41.12317" lon="0.86734">
        <ele>418.4</ele>
        <time>2022-05-24 10:12:34</time>
      </trkpt>
      <trkpt lat="41.12315" lon="0.86736">
        <ele>418.4</ele>
        <time>2022-05-24 10:12:35</time>
      </trkpt>
      <trkpt lat="41.12313" lon="0.86738">
        <ele>418.6</ele>
        <time>2022-05-24 10:12:36</time>
      </trkpt>
      <trkpt lat="41.12312" lon="0.8674">
        <ele>418.8</ele>
        <time>2022-05-24 10:12:37</time>
      </trkpt>
      <trkpt lat="41.12312" lon="0.86742">
        <ele>419</ele>
        <time>2022-05-24 10:12:38</time>
      </trkpt>
      <trkpt lat="41.1231" lon="0.86744">
        <ele>419.2</ele>
        <time>2022-05-24 10:12:39</time>
      </trkpt>
      <trkpt lat="41.12309" lon="0.86746">
        <ele>419.4</ele>
        <time>2022-05-24 10:12:40</time>
      </trkpt>
      <trkpt lat="41.12307" lon="0.86747">
        <ele>419.4</ele>
        <time>2022-05-24 10:12:41</time>
      </trkpt>
      <trkpt lat="41.12306" lon="0.86749">
        <ele>419.6</ele>
        <time>2022-05-24 10:12:42</time>
      </trkpt>
      <trkpt lat="41.12305" lon="0.86751">
        <ele>419.8</ele>
        <time>2022-05-24 10:12:43</time>
      </trkpt>
      <trkpt lat="41.12304" lon="0.86753">
        <ele>420</ele>
        <time>2022-05-24 10:12:44</time>
      </trkpt>
      <trkpt lat="41.12302" lon="0.86754">
        <ele>420</ele>
        <time>2022-05-24 10:12:45</time>
      </trkpt>
      <trkpt lat="41.123" lon="0.86756">
        <ele>420.2</ele>
        <time>2022-05-24 10:12:46</time>
      </trkpt>
      <trkpt lat="41.12299" lon="0.86758">
        <ele>420.2</ele>
        <time>2022-05-24 10:12:47</time>
      </trkpt>
      <trkpt lat="41.12297" lon="0.8676">
        <ele>420.4</ele>
        <time>2022-05-24 10:12:48</time>
      </trkpt>
      <trkpt lat="41.12296" lon="0.86761">
        <ele>420.6</ele>
        <time>2022-05-24 10:12:49</time>
      </trkpt>
      <trkpt lat="41.12294" lon="0.86763">
        <ele>420.6</ele>
        <time>2022-05-24 10:12:50</time>
      </trkpt>
      <trkpt lat="41.12292" lon="0.86764">
        <ele>420.8</ele>
        <time>2022-05-24 10:12:51</time>
      </trkpt>
      <trkpt lat="41.1229" lon="0.86766">
        <ele>420.8</ele>
        <time>2022-05-24 10:12:52</time>
      </trkpt>
      <trkpt lat="41.12288" lon="0.86767">
        <ele>421</ele>
        <time>2022-05-24 10:12:53</time>
      </trkpt>
      <trkpt lat="41.12286" lon="0.86769">
        <ele>421</ele>
        <time>2022-05-24 10:12:54</time>
      </trkpt>
      <trkpt lat="41.12284" lon="0.8677">
        <ele>421.2</ele>
        <time>2022-05-24 10:12:55</time>
      </trkpt>
      <trkpt lat="41.12283" lon="0.86771">
        <ele>421.2</ele>
        <time>2022-05-24 10:12:56</time>
      </trkpt>
      <trkpt lat="41.12281" lon="0.86772">
        <ele>421.4</ele>
        <time>2022-05-24 10:12:57</time>
      </trkpt>
      <trkpt lat="41.12279" lon="0.86773">
        <ele>421.4</ele>
        <time>2022-05-24 10:12:58</time>
      </trkpt>
      <trkpt lat="41.12277" lon="0.86774">
        <ele>421.6</ele>
        <time>2022-05-24 10:12:59</time>
      </trkpt>
      <trkpt lat="41.12275" lon="0.86775">
        <ele>421.6</ele>
        <time>2022-05-24 10:13:00</time>
      </trkpt>
      <trkpt lat="41.12273" lon="0.86776">
        <ele>421.8</ele>
        <time>2022-05-24 10:13:01</time>
      </trkpt>
      <trkpt lat="41.12272" lon="0.86777">
        <ele>421.8</ele>
        <time>2022-05-24 10:13:02</time>
      </trkpt>
      <trkpt lat="41.1227" lon="0.86778">
        <ele>421.8</ele>
        <time>2022-05-24 10:13:03</time>
      </trkpt>
      <trkpt lat="41.12268" lon="0.86779">
        <ele>422</ele>
        <time>2022-05-24 10:13:04</time>
      </trkpt>
      <trkpt lat="41.12266" lon="0.86781">
        <ele>422</ele>
        <time>2022-05-24 10:13:05</time>
      </trkpt>
      <trkpt lat="41.12265" lon="0.86782">
        <ele>422.2</ele>
        <time>2022-05-24 10:13:06</time>
      </trkpt>
      <trkpt lat="41.12263" lon="0.86783">
        <ele>422.2</ele>
        <time>2022-05-24 10:13:07</time>
      </trkpt>
      <trkpt lat="41.1226" lon="0.86783">
        <ele>422.4</ele>
        <time>2022-05-24 10:13:08</time>
      </trkpt>
      <trkpt lat="41.12259" lon="0.86784">
        <ele>422.4</ele>
        <time>2022-05-24 10:13:09</time>
      </trkpt>
      <trkpt lat="41.12257" lon="0.86786">
        <ele>422.6</ele>
        <time>2022-05-24 10:13:10</time>
      </trkpt>
      <trkpt lat="41.12255" lon="0.86787">
        <ele>422.6</ele>
        <time>2022-05-24 10:13:11</time>
      </trkpt>
      <trkpt lat="41.12254" lon="0.86788">
        <ele>422.8</ele>
        <time>2022-05-24 10:13:12</time>
      </trkpt>
      <trkpt lat="41.12252" lon="0.86789">
        <ele>422.8</ele>
        <time>2022-05-24 10:13:13</time>
      </trkpt>
      <trkpt lat="41.1225" lon="0.86791">
        <ele>423</ele>
        <time>2022-05-24 10:13:14</time>
      </trkpt>
      <trkpt lat="41.12249" lon="0.86792">
        <ele>423.2</ele>
        <time>2022-05-24 10:13:15</time>
      </trkpt>
      <trkpt lat="41.12247" lon="0.86793">
        <ele>423.2</ele>
        <time>2022-05-24 10:13:16</time>
      </trkpt>
      <trkpt lat="41.12245" lon="0.86794">
        <ele>423.4</ele>
        <time>2022-05-24 10:13:17</time>
      </trkpt>
      <trkpt lat="41.12244" lon="0.86795">
        <ele>423.6</ele>
        <time>2022-05-24 10:13:18</time>
      </trkpt>
      <trkpt lat="41.12242" lon="0.86797">
        <ele>423.6</ele>
        <time>2022-05-24 10:13:19</time>
      </trkpt>
      <trkpt lat="41.1224" lon="0.86798">
        <ele>423.8</ele>
        <time>2022-05-24 10:13:20</time>
      </trkpt>
      <trkpt lat="41.12239" lon="0.868">
        <ele>423.8</ele>
        <time>2022-05-24 10:13:21</time>
      </trkpt>
      <trkpt lat="41.12237" lon="0.86801">
        <ele>424</ele>
        <time>2022-05-24 10:13:22</time>
      </trkpt>
      <trkpt lat="41.12236" lon="0.86803">
        <ele>424.2</ele>
        <time>2022-05-24 10:13:23</time>
      </trkpt>
      <trkpt lat="41.12234" lon="0.86805">
        <ele>424.2</ele>
        <time>2022-05-24 10:13:24</time>
      </trkpt>
      <trkpt lat="41.12233" lon="0.86807">
        <ele>424.4</ele>
        <time>2022-05-24 10:13:25</time>
      </trkpt>
      <trkpt lat="41.12232" lon="0.86809">
        <ele>424.4</ele>
        <time>2022-05-24 10:13:26</time>
      </trkpt>
      <trkpt lat="41.12231" lon="0.8681">
        <ele>424.6</ele>
        <time>2022-05-24 10:13:27</time>
      </trkpt>
      <trkpt lat="41.1223" lon="0.86812">
        <ele>424.8</ele>
        <time>2022-05-24 10:13:28</time>
      </trkpt>
      <trkpt lat="41.12229" lon="0.86814">
        <ele>424.8</ele>
        <time>2022-05-24 10:13:29</time>
      </trkpt>
      <trkpt lat="41.12228" lon="0.86816">
        <ele>425</ele>
        <time>2022-05-24 10:13:30</time>
      </trkpt>
      <trkpt lat="41.12226" lon="0.86818">
        <ele>425.2</ele>
        <time>2022-05-24 10:13:31</time>
      </trkpt>
      <trkpt lat="41.12225" lon="0.86819">
        <ele>425.2</ele>
        <time>2022-05-24 10:13:32</time>
      </trkpt>
      <trkpt lat="41.12224" lon="0.86821">
        <ele>425.4</ele>
        <time>2022-05-24 10:13:33</time>
      </trkpt>
      <trkpt lat="41.12222" lon="0.86823">
        <ele>425.6</ele>
        <time>2022-05-24 10:13:34</time>
      </trkpt>
      <trkpt lat="41.12221" lon="0.86824">
        <ele>425.6</ele>
        <time>2022-05-24 10:13:35</time>
      </trkpt>
      <trkpt lat="41.1222" lon="0.86827">
        <ele>425.8</ele>
        <time>2022-05-24 10:13:36</time>
      </trkpt>
      <trkpt lat="41.12218" lon="0.86829">
        <ele>426</ele>
        <time>2022-05-24 10:13:37</time>
      </trkpt>
      <trkpt lat="41.12217" lon="0.8683">
        <ele>426.2</ele>
        <time>2022-05-24 10:13:38</time>
      </trkpt>
      <trkpt lat="41.12216" lon="0.86832">
        <ele>426.2</ele>
        <time>2022-05-24 10:13:39</time>
      </trkpt>
      <trkpt lat="41.12215" lon="0.86834">
        <ele>426.4</ele>
        <time>2022-05-24 10:13:40</time>
      </trkpt>
      <trkpt lat="41.12213" lon="0.86835">
        <ele>426.6</ele>
        <time>2022-05-24 10:13:41</time>
      </trkpt>
      <trkpt lat="41.12212" lon="0.86837">
        <ele>426.6</ele>
        <time>2022-05-24 10:13:42</time>
      </trkpt>
      <trkpt lat="41.1221" lon="0.86839">
        <ele>426.8</ele>
        <time>2022-05-24 10:13:43</time>
      </trkpt>
      <trkpt lat="41.12209" lon="0.8684">
        <ele>427</ele>
        <time>2022-05-24 10:13:44</time>
      </trkpt>
      <trkpt lat="41.12207" lon="0.86842">
        <ele>427</ele>
        <time>2022-05-24 10:13:45</time>
      </trkpt>
      <trkpt lat="41.12205" lon="0.86844">
        <ele>427.2</ele>
        <time>2022-05-24 10:13:46</time>
      </trkpt>
      <trkpt lat="41.12204" lon="0.86846">
        <ele>427.4</ele>
        <time>2022-05-24 10:13:47</time>
      </trkpt>
      <trkpt lat="41.12203" lon="0.86848">
        <ele>427.4</ele>
        <time>2022-05-24 10:13:48</time>
      </trkpt>
      <trkpt lat="41.12201" lon="0.8685">
        <ele>427.6</ele>
        <time>2022-05-24 10:13:49</time>
      </trkpt>
      <trkpt lat="41.122" lon="0.86852">
        <ele>427.6</ele>
        <time>2022-05-24 10:13:50</time>
      </trkpt>
      <trkpt lat="41.12199" lon="0.86854">
        <ele>427.8</ele>
        <time>2022-05-24 10:13:51</time>
      </trkpt>
      <trkpt lat="41.12198" lon="0.86856">
        <ele>428</ele>
        <time>2022-05-24 10:13:52</time>
      </trkpt>
      <trkpt lat="41.12196" lon="0.86857">
        <ele>428</ele>
        <time>2022-05-24 10:13:53</time>
      </trkpt>
      <trkpt lat="41.12195" lon="0.86859">
        <ele>428.2</ele>
        <time>2022-05-24 10:13:54</time>
      </trkpt>
      <trkpt lat="41.12193" lon="0.8686">
        <ele>428.4</ele>
        <time>2022-05-24 10:13:55</time>
      </trkpt>
      <trkpt lat="41.12192" lon="0.86861">
        <ele>428.4</ele>
        <time>2022-05-24 10:13:56</time>
      </trkpt>
      <trkpt lat="41.12191" lon="0.86862">
        <ele>428.6</ele>
        <time>2022-05-24 10:13:57</time>
      </trkpt>
      <trkpt lat="41.12189" lon="0.86864">
        <ele>428.6</ele>
        <time>2022-05-24 10:13:58</time>
      </trkpt>
      <trkpt lat="41.12187" lon="0.86865">
        <ele>428.8</ele>
        <time>2022-05-24 10:13:59</time>
      </trkpt>
      <trkpt lat="41.12185" lon="0.86866">
        <ele>429</ele>
        <time>2022-05-24 10:14:00</time>
      </trkpt>
      <trkpt lat="41.12183" lon="0.86867">
        <ele>429.2</ele>
        <time>2022-05-24 10:14:01</time>
      </trkpt>
      <trkpt lat="41.12181" lon="0.86869">
        <ele>429.2</ele>
        <time>2022-05-24 10:14:02</time>
      </trkpt>
      <trkpt lat="41.1218" lon="0.8687">
        <ele>429.4</ele>
        <time>2022-05-24 10:14:03</time>
      </trkpt>
      <trkpt lat="41.12178" lon="0.86871">
        <ele>429.6</ele>
        <time>2022-05-24 10:14:04</time>
      </trkpt>
      <trkpt lat="41.12177" lon="0.86872">
        <ele>429.8</ele>
        <time>2022-05-24 10:14:05</time>
      </trkpt>
      <trkpt lat="41.12175" lon="0.86873">
        <ele>429.8</ele>
        <time>2022-05-24 10:14:06</time>
      </trkpt>
      <trkpt lat="41.12173" lon="0.86874">
        <ele>430</ele>
        <time>2022-05-24 10:14:07</time>
      </trkpt>
      <trkpt lat="41.12172" lon="0.86874">
        <ele>430.2</ele>
        <time>2022-05-24 10:14:08</time>
      </trkpt>
      <trkpt lat="41.1217" lon="0.86875">
        <ele>430.2</ele>
        <time>2022-05-24 10:14:09</time>
      </trkpt>
      <trkpt lat="41.12168" lon="0.86875">
        <ele>430.4</ele>
        <time>2022-05-24 10:14:10</time>
      </trkpt>
      <trkpt lat="41.12166" lon="0.86875">
        <ele>430.6</ele>
        <time>2022-05-24 10:14:11</time>
      </trkpt>
      <trkpt lat="41.12164" lon="0.86875">
        <ele>430.6</ele>
        <time>2022-05-24 10:14:12</time>
      </trkpt>
      <trkpt lat="41.12162" lon="0.86875">
        <ele>430.6</ele>
        <time>2022-05-24 10:14:13</time>
      </trkpt>
      <trkpt lat="41.1216" lon="0.86875">
        <ele>430.8</ele>
        <time>2022-05-24 10:14:14</time>
      </trkpt>
      <trkpt lat="41.12158" lon="0.86876">
        <ele>430.8</ele>
        <time>2022-05-24 10:14:15</time>
      </trkpt>
      <trkpt lat="41.12156" lon="0.86876">
        <ele>431</ele>
        <time>2022-05-24 10:14:16</time>
      </trkpt>
      <trkpt lat="41.12154" lon="0.86876">
        <ele>431</ele>
        <time>2022-05-24 10:14:17</time>
      </trkpt>
      <trkpt lat="41.12152" lon="0.86876">
        <ele>431.2</ele>
        <time>2022-05-24 10:14:18</time>
      </trkpt>
      <trkpt lat="41.1215" lon="0.86876">
        <ele>431.2</ele>
        <time>2022-05-24 10:14:19</time>
      </trkpt>
      <trkpt lat="41.12148" lon="0.86876">
        <ele>431.4</ele>
        <time>2022-05-24 10:14:20</time>
      </trkpt>
      <trkpt lat="41.12146" lon="0.86876">
        <ele>431.4</ele>
        <time>2022-05-24 10:14:21</time>
      </trkpt>
      <trkpt lat="41.12144" lon="0.86877">
        <ele>431.4</ele>
        <time>2022-05-24 10:14:22</time>
      </trkpt>
      <trkpt lat="41.12142" lon="0.86877">
        <ele>431.6</ele>
        <time>2022-05-24 10:14:23</time>
      </trkpt>
      <trkpt lat="41.1214" lon="0.86877">
        <ele>431.6</ele>
        <time>2022-05-24 10:14:24</time>
      </trkpt>
      <trkpt lat="41.12138" lon="0.86876">
        <ele>431.8</ele>
        <time>2022-05-24 10:14:25</time>
      </trkpt>
      <trkpt lat="41.12136" lon="0.86876">
        <ele>431.8</ele>
        <time>2022-05-24 10:14:26</time>
      </trkpt>
      <trkpt lat="41.12134" lon="0.86876">
        <ele>431.8</ele>
        <time>2022-05-24 10:14:27</time>
      </trkpt>
      <trkpt lat="41.12132" lon="0.86876">
        <ele>431.8</ele>
        <time>2022-05-24 10:14:28</time>
      </trkpt>
      <trkpt lat="41.1213" lon="0.86876">
        <ele>432</ele>
        <time>2022-05-24 10:14:29</time>
      </trkpt>
      <trkpt lat="41.12128" lon="0.86875">
        <ele>432</ele>
        <time>2022-05-24 10:14:30</time>
      </trkpt>
      <trkpt lat="41.12126" lon="0.86874">
        <ele>432</ele>
        <time>2022-05-24 10:14:31</time>
      </trkpt>
      <trkpt lat="41.12124" lon="0.86873">
        <ele>432</ele>
        <time>2022-05-24 10:14:32</time>
      </trkpt>
      <trkpt lat="41.12122" lon="0.86871">
        <ele>432.2</ele>
        <time>2022-05-24 10:14:33</time>
      </trkpt>
      <trkpt lat="41.12119" lon="0.8687">
        <ele>432.2</ele>
        <time>2022-05-24 10:14:34</time>
      </trkpt>
      <trkpt lat="41.12117" lon="0.86868">
        <ele>432.2</ele>
        <time>2022-05-24 10:14:35</time>
      </trkpt>
      <trkpt lat="41.12116" lon="0.86867">
        <ele>432.4</ele>
        <time>2022-05-24 10:14:36</time>
      </trkpt>
      <trkpt lat="41.12114" lon="0.86865">
        <ele>432.4</ele>
        <time>2022-05-24 10:14:37</time>
      </trkpt>
      <trkpt lat="41.12112" lon="0.86863">
        <ele>432.4</ele>
        <time>2022-05-24 10:14:38</time>
      </trkpt>
      <trkpt lat="41.12111" lon="0.86861">
        <ele>432.6</ele>
        <time>2022-05-24 10:14:39</time>
      </trkpt>
      <trkpt lat="41.12109" lon="0.86859">
        <ele>432.6</ele>
        <time>2022-05-24 10:14:40</time>
      </trkpt>
      <trkpt lat="41.12106" lon="0.86858">
        <ele>432.6</ele>
        <time>2022-05-24 10:14:41</time>
      </trkpt>
      <trkpt lat="41.12105" lon="0.86857">
        <ele>432.8</ele>
        <time>2022-05-24 10:14:42</time>
      </trkpt>
      <trkpt lat="41.12103" lon="0.86855">
        <ele>433</ele>
        <time>2022-05-24 10:14:43</time>
      </trkpt>
      <trkpt lat="41.12101" lon="0.86854">
        <ele>433</ele>
        <time>2022-05-24 10:14:44</time>
      </trkpt>
      <trkpt lat="41.12099" lon="0.86852">
        <ele>433.2</ele>
        <time>2022-05-24 10:14:45</time>
      </trkpt>
      <trkpt lat="41.12098" lon="0.86851">
        <ele>433.2</ele>
        <time>2022-05-24 10:14:46</time>
      </trkpt>
      <trkpt lat="41.12095" lon="0.8685">
        <ele>433.4</ele>
        <time>2022-05-24 10:14:47</time>
      </trkpt>
      <trkpt lat="41.12094" lon="0.86849">
        <ele>433.6</ele>
        <time>2022-05-24 10:14:48</time>
      </trkpt>
      <trkpt lat="41.12091" lon="0.86848">
        <ele>433.6</ele>
        <time>2022-05-24 10:14:49</time>
      </trkpt>
      <trkpt lat="41.12089" lon="0.86847">
        <ele>433.8</ele>
        <time>2022-05-24 10:14:50</time>
      </trkpt>
      <trkpt lat="41.12086" lon="0.86847">
        <ele>433.8</ele>
        <time>2022-05-24 10:14:51</time>
      </trkpt>
      <trkpt lat="41.12084" lon="0.86847">
        <ele>434</ele>
        <time>2022-05-24 10:14:52</time>
      </trkpt>
      <trkpt lat="41.12081" lon="0.86847">
        <ele>434.2</ele>
        <time>2022-05-24 10:14:53</time>
      </trkpt>
      <trkpt lat="41.12079" lon="0.86847">
        <ele>434.4</ele>
        <time>2022-05-24 10:14:54</time>
      </trkpt>
      <trkpt lat="41.12077" lon="0.86847">
        <ele>434.6</ele>
        <time>2022-05-24 10:14:55</time>
      </trkpt>
      <trkpt lat="41.12074" lon="0.86848">
        <ele>434.6</ele>
        <time>2022-05-24 10:14:56</time>
      </trkpt>
      <trkpt lat="41.12072" lon="0.86849">
        <ele>434.8</ele>
        <time>2022-05-24 10:14:57</time>
      </trkpt>
      <trkpt lat="41.1207" lon="0.8685">
        <ele>435</ele>
        <time>2022-05-24 10:14:58</time>
      </trkpt>
      <trkpt lat="41.12068" lon="0.86852">
        <ele>435.2</ele>
        <time>2022-05-24 10:14:59</time>
      </trkpt>
      <trkpt lat="41.12066" lon="0.86854">
        <ele>435.2</ele>
        <time>2022-05-24 10:15:00</time>
      </trkpt>
      <trkpt lat="41.12064" lon="0.86856">
        <ele>435.4</ele>
        <time>2022-05-24 10:15:01</time>
      </trkpt>
      <trkpt lat="41.12063" lon="0.86858">
        <ele>435.6</ele>
        <time>2022-05-24 10:15:02</time>
      </trkpt>
      <trkpt lat="41.12061" lon="0.86861">
        <ele>435.8</ele>
        <time>2022-05-24 10:15:03</time>
      </trkpt>
      <trkpt lat="41.1206" lon="0.86863">
        <ele>436</ele>
        <time>2022-05-24 10:15:04</time>
      </trkpt>
      <trkpt lat="41.12059" lon="0.86865">
        <ele>436</ele>
        <time>2022-05-24 10:15:05</time>
      </trkpt>
      <trkpt lat="41.12057" lon="0.86868">
        <ele>436.2</ele>
        <time>2022-05-24 10:15:06</time>
      </trkpt>
      <trkpt lat="41.12056" lon="0.8687">
        <ele>436.4</ele>
        <time>2022-05-24 10:15:07</time>
      </trkpt>
      <trkpt lat="41.12054" lon="0.86872">
        <ele>436.4</ele>
        <time>2022-05-24 10:15:08</time>
      </trkpt>
      <trkpt lat="41.12053" lon="0.86874">
        <ele>436.6</ele>
        <time>2022-05-24 10:15:09</time>
      </trkpt>
      <trkpt lat="41.12052" lon="0.86875">
        <ele>436.8</ele>
        <time>2022-05-24 10:15:10</time>
      </trkpt>
      <trkpt lat="41.12051" lon="0.86878">
        <ele>436.8</ele>
        <time>2022-05-24 10:15:11</time>
      </trkpt>
      <trkpt lat="41.12049" lon="0.8688">
        <ele>437</ele>
        <time>2022-05-24 10:15:12</time>
      </trkpt>
      <trkpt lat="41.12048" lon="0.86882">
        <ele>437</ele>
        <time>2022-05-24 10:15:13</time>
      </trkpt>
      <trkpt lat="41.12047" lon="0.86884">
        <ele>437.2</ele>
        <time>2022-05-24 10:15:14</time>
      </trkpt>
      <trkpt lat="41.12046" lon="0.86886">
        <ele>437.4</ele>
        <time>2022-05-24 10:15:15</time>
      </trkpt>
      <trkpt lat="41.12044" lon="0.86888">
        <ele>437.4</ele>
        <time>2022-05-24 10:15:16</time>
      </trkpt>
      <trkpt lat="41.12043" lon="0.8689">
        <ele>437.6</ele>
        <time>2022-05-24 10:15:17</time>
      </trkpt>
      <trkpt lat="41.12043" lon="0.86891">
        <ele>437.8</ele>
        <time>2022-05-24 10:15:18</time>
      </trkpt>
      <trkpt lat="41.12042" lon="0.86893">
        <ele>438</ele>
        <time>2022-05-24 10:15:19</time>
      </trkpt>
      <trkpt lat="41.1204" lon="0.86895">
        <ele>438</ele>
        <time>2022-05-24 10:15:20</time>
      </trkpt>
      <trkpt lat="41.1204" lon="0.86897">
        <ele>438.2</ele>
        <time>2022-05-24 10:15:21</time>
      </trkpt>
      <trkpt lat="41.12039" lon="0.86899">
        <ele>438.4</ele>
        <time>2022-05-24 10:15:22</time>
      </trkpt>
      <trkpt lat="41.12038" lon="0.86901">
        <ele>438.4</ele>
        <time>2022-05-24 10:15:23</time>
      </trkpt>
      <trkpt lat="41.12037" lon="0.86903">
        <ele>438.6</ele>
        <time>2022-05-24 10:15:24</time>
      </trkpt>
      <trkpt lat="41.12035" lon="0.86905">
        <ele>438.8</ele>
        <time>2022-05-24 10:15:25</time>
      </trkpt>
      <trkpt lat="41.12034" lon="0.86907">
        <ele>438.8</ele>
        <time>2022-05-24 10:15:26</time>
      </trkpt>
      <trkpt lat="41.12032" lon="0.86909">
        <ele>439</ele>
        <time>2022-05-24 10:15:27</time>
      </trkpt>
      <trkpt lat="41.12031" lon="0.86911">
        <ele>439.2</ele>
        <time>2022-05-24 10:15:28</time>
      </trkpt>
      <trkpt lat="41.1203" lon="0.86913">
        <ele>439.2</ele>
        <time>2022-05-24 10:15:29</time>
      </trkpt>
      <trkpt lat="41.12029" lon="0.86915">
        <ele>439.4</ele>
        <time>2022-05-24 10:15:30</time>
      </trkpt>
      <trkpt lat="41.12028" lon="0.86917">
        <ele>439.4</ele>
        <time>2022-05-24 10:15:31</time>
      </trkpt>
      <trkpt lat="41.12027" lon="0.86919">
        <ele>439.6</ele>
        <time>2022-05-24 10:15:32</time>
      </trkpt>
      <trkpt lat="41.12026" lon="0.86921">
        <ele>439.6</ele>
        <time>2022-05-24 10:15:33</time>
      </trkpt>
      <trkpt lat="41.12025" lon="0.86922">
        <ele>439.8</ele>
        <time>2022-05-24 10:15:34</time>
      </trkpt>
      <trkpt lat="41.12024" lon="0.86925">
        <ele>440</ele>
        <time>2022-05-24 10:15:35</time>
      </trkpt>
      <trkpt lat="41.12023" lon="0.86927">
        <ele>440</ele>
        <time>2022-05-24 10:15:36</time>
      </trkpt>
      <trkpt lat="41.12022" lon="0.86929">
        <ele>440.2</ele>
        <time>2022-05-24 10:15:37</time>
      </trkpt>
      <trkpt lat="41.12021" lon="0.86931">
        <ele>440.2</ele>
        <time>2022-05-24 10:15:38</time>
      </trkpt>
      <trkpt lat="41.1202" lon="0.86932">
        <ele>440.4</ele>
        <time>2022-05-24 10:15:39</time>
      </trkpt>
      <trkpt lat="41.12019" lon="0.86934">
        <ele>440.6</ele>
        <time>2022-05-24 10:15:40</time>
      </trkpt>
      <trkpt lat="41.12017" lon="0.86936">
        <ele>440.6</ele>
        <time>2022-05-24 10:15:41</time>
      </trkpt>
      <trkpt lat="41.12016" lon="0.86937">
        <ele>440.8</ele>
        <time>2022-05-24 10:15:42</time>
      </trkpt>
      <trkpt lat="41.12015" lon="0.86939">
        <ele>441</ele>
        <time>2022-05-24 10:15:43</time>
      </trkpt>
      <trkpt lat="41.12014" lon="0.86941">
        <ele>441</ele>
        <time>2022-05-24 10:15:44</time>
      </trkpt>
      <trkpt lat="41.12013" lon="0.86943">
        <ele>441.2</ele>
        <time>2022-05-24 10:15:45</time>
      </trkpt>
      <trkpt lat="41.12012" lon="0.86945">
        <ele>441.4</ele>
        <time>2022-05-24 10:15:46</time>
      </trkpt>
      <trkpt lat="41.12012" lon="0.86947">
        <ele>441.6</ele>
        <time>2022-05-24 10:15:47</time>
      </trkpt>
      <trkpt lat="41.12011" lon="0.86948">
        <ele>441.6</ele>
        <time>2022-05-24 10:15:48</time>
      </trkpt>
      <trkpt lat="41.12009" lon="0.8695">
        <ele>441.8</ele>
        <time>2022-05-24 10:15:49</time>
      </trkpt>
      <trkpt lat="41.12008" lon="0.86951">
        <ele>442</ele>
        <time>2022-05-24 10:15:50</time>
      </trkpt>
      <trkpt lat="41.12007" lon="0.86953">
        <ele>442.2</ele>
        <time>2022-05-24 10:15:51</time>
      </trkpt>
      <trkpt lat="41.12006" lon="0.86954">
        <ele>442.2</ele>
        <time>2022-05-24 10:15:52</time>
      </trkpt>
      <trkpt lat="41.12005" lon="0.86956">
        <ele>442.4</ele>
        <time>2022-05-24 10:15:53</time>
      </trkpt>
      <trkpt lat="41.12003" lon="0.86957">
        <ele>442.6</ele>
        <time>2022-05-24 10:15:54</time>
      </trkpt>
      <trkpt lat="41.12002" lon="0.86959">
        <ele>442.6</ele>
        <time>2022-05-24 10:15:55</time>
      </trkpt>
      <trkpt lat="41.12001" lon="0.86961">
        <ele>442.8</ele>
        <time>2022-05-24 10:15:56</time>
      </trkpt>
      <trkpt lat="41.11999" lon="0.86961">
        <ele>443</ele>
        <time>2022-05-24 10:15:57</time>
      </trkpt>
      <trkpt lat="41.11998" lon="0.86962">
        <ele>443</ele>
        <time>2022-05-24 10:15:58</time>
      </trkpt>
      <trkpt lat="41.11996" lon="0.86962">
        <ele>443.2</ele>
        <time>2022-05-24 10:15:59</time>
      </trkpt>
      <trkpt lat="41.11994" lon="0.86962">
        <ele>443.2</ele>
        <time>2022-05-24 10:16:00</time>
      </trkpt>
      <trkpt lat="41.11992" lon="0.86963">
        <ele>443.4</ele>
        <time>2022-05-24 10:16:01</time>
      </trkpt>
      <trkpt lat="41.1199" lon="0.86963">
        <ele>443.6</ele>
        <time>2022-05-24 10:16:02</time>
      </trkpt>
      <trkpt lat="41.11989" lon="0.86962">
        <ele>443.6</ele>
        <time>2022-05-24 10:16:03</time>
      </trkpt>
      <trkpt lat="41.11987" lon="0.86962">
        <ele>443.8</ele>
        <time>2022-05-24 10:16:04</time>
      </trkpt>
      <trkpt lat="41.11985" lon="0.86961">
        <ele>444</ele>
        <time>2022-05-24 10:16:05</time>
      </trkpt>
      <trkpt lat="41.11983" lon="0.86961">
        <ele>444</ele>
        <time>2022-05-24 10:16:06</time>
      </trkpt>
      <trkpt lat="41.11982" lon="0.8696">
        <ele>444.2</ele>
        <time>2022-05-24 10:16:07</time>
      </trkpt>
      <trkpt lat="41.1198" lon="0.86959">
        <ele>444.4</ele>
        <time>2022-05-24 10:16:08</time>
      </trkpt>
      <trkpt lat="41.11978" lon="0.86958">
        <ele>444.4</ele>
        <time>2022-05-24 10:16:09</time>
      </trkpt>
      <trkpt lat="41.11976" lon="0.86956">
        <ele>444.4</ele>
        <time>2022-05-24 10:16:10</time>
      </trkpt>
      <trkpt lat="41.11975" lon="0.86955">
        <ele>444.6</ele>
        <time>2022-05-24 10:16:11</time>
      </trkpt>
      <trkpt lat="41.11973" lon="0.86952">
        <ele>444.6</ele>
        <time>2022-05-24 10:16:12</time>
      </trkpt>
      <trkpt lat="41.11972" lon="0.8695">
        <ele>444.6</ele>
        <time>2022-05-24 10:16:13</time>
      </trkpt>
      <trkpt lat="41.11971" lon="0.86948">
        <ele>444.8</ele>
        <time>2022-05-24 10:16:14</time>
      </trkpt>
      <trkpt lat="41.11969" lon="0.86946">
        <ele>444.8</ele>
        <time>2022-05-24 10:16:15</time>
      </trkpt>
      <trkpt lat="41.11968" lon="0.86943">
        <ele>444.8</ele>
        <time>2022-05-24 10:16:16</time>
      </trkpt>
      <trkpt lat="41.11968" lon="0.8694">
        <ele>445</ele>
        <time>2022-05-24 10:16:17</time>
      </trkpt>
      <trkpt lat="41.11968" lon="0.86938">
        <ele>445.2</ele>
        <time>2022-05-24 10:16:18</time>
      </trkpt>
      <trkpt lat="41.11968" lon="0.86935">
        <ele>445.2</ele>
        <time>2022-05-24 10:16:19</time>
      </trkpt>
      <trkpt lat="41.11968" lon="0.86932">
        <ele>445.4</ele>
        <time>2022-05-24 10:16:20</time>
      </trkpt>
      <trkpt lat="41.11969" lon="0.8693">
        <ele>445.6</ele>
        <time>2022-05-24 10:16:21</time>
      </trkpt>
      <trkpt lat="41.11969" lon="0.86927">
        <ele>445.6</ele>
        <time>2022-05-24 10:16:22</time>
      </trkpt>
      <trkpt lat="41.1197" lon="0.86925">
        <ele>445.8</ele>
        <time>2022-05-24 10:16:23</time>
      </trkpt>
      <trkpt lat="41.11971" lon="0.86922">
        <ele>445.8</ele>
        <time>2022-05-24 10:16:24</time>
      </trkpt>
      <trkpt lat="41.11972" lon="0.8692">
        <ele>446</ele>
        <time>2022-05-24 10:16:25</time>
      </trkpt>
      <trkpt lat="41.11973" lon="0.86917">
        <ele>446.2</ele>
        <time>2022-05-24 10:16:26</time>
      </trkpt>
      <trkpt lat="41.11974" lon="0.86915">
        <ele>446.2</ele>
        <time>2022-05-24 10:16:27</time>
      </trkpt>
      <trkpt lat="41.11975" lon="0.86913">
        <ele>446.4</ele>
        <time>2022-05-24 10:16:28</time>
      </trkpt>
      <trkpt lat="41.11976" lon="0.8691">
        <ele>446.6</ele>
        <time>2022-05-24 10:16:29</time>
      </trkpt>
      <trkpt lat="41.11976" lon="0.86908">
        <ele>446.6</ele>
        <time>2022-05-24 10:16:30</time>
      </trkpt>
      <trkpt lat="41.11976" lon="0.86905">
        <ele>446.8</ele>
        <time>2022-05-24 10:16:31</time>
      </trkpt>
      <trkpt lat="41.11977" lon="0.86902">
        <ele>447</ele>
        <time>2022-05-24 10:16:32</time>
      </trkpt>
      <trkpt lat="41.11977" lon="0.86899">
        <ele>447</ele>
        <time>2022-05-24 10:16:33</time>
      </trkpt>
      <trkpt lat="41.11977" lon="0.86896">
        <ele>447</ele>
        <time>2022-05-24 10:16:34</time>
      </trkpt>
      <trkpt lat="41.11977" lon="0.86894">
        <ele>447.2</ele>
        <time>2022-05-24 10:16:35</time>
      </trkpt>
      <trkpt lat="41.11977" lon="0.86891">
        <ele>447.2</ele>
        <time>2022-05-24 10:16:36</time>
      </trkpt>
      <trkpt lat="41.11977" lon="0.86888">
        <ele>447.4</ele>
        <time>2022-05-24 10:16:37</time>
      </trkpt>
      <trkpt lat="41.11976" lon="0.86885">
        <ele>447.4</ele>
        <time>2022-05-24 10:16:38</time>
      </trkpt>
      <trkpt lat="41.11976" lon="0.86882">
        <ele>447.6</ele>
        <time>2022-05-24 10:16:39</time>
      </trkpt>
      <trkpt lat="41.11975" lon="0.86879">
        <ele>447.6</ele>
        <time>2022-05-24 10:16:40</time>
      </trkpt>
      <trkpt lat="41.11975" lon="0.86876">
        <ele>447.8</ele>
        <time>2022-05-24 10:16:41</time>
      </trkpt>
      <trkpt lat="41.11975" lon="0.86873">
        <ele>447.8</ele>
        <time>2022-05-24 10:16:42</time>
      </trkpt>
      <trkpt lat="41.11974" lon="0.8687">
        <ele>448</ele>
        <time>2022-05-24 10:16:43</time>
      </trkpt>
      <trkpt lat="41.11974" lon="0.86868">
        <ele>448</ele>
        <time>2022-05-24 10:16:44</time>
      </trkpt>
      <trkpt lat="41.11974" lon="0.86865">
        <ele>448.2</ele>
        <time>2022-05-24 10:16:45</time>
      </trkpt>
      <trkpt lat="41.11974" lon="0.86862">
        <ele>448.4</ele>
        <time>2022-05-24 10:16:46</time>
      </trkpt>
      <trkpt lat="41.11974" lon="0.86859">
        <ele>448.4</ele>
        <time>2022-05-24 10:16:47</time>
      </trkpt>
      <trkpt lat="41.11974" lon="0.86856">
        <ele>448.6</ele>
        <time>2022-05-24 10:16:48</time>
      </trkpt>
      <trkpt lat="41.11974" lon="0.86854">
        <ele>448.6</ele>
        <time>2022-05-24 10:16:49</time>
      </trkpt>
      <trkpt lat="41.11974" lon="0.86851">
        <ele>448.8</ele>
        <time>2022-05-24 10:16:50</time>
      </trkpt>
      <trkpt lat="41.11974" lon="0.86848">
        <ele>449</ele>
        <time>2022-05-24 10:16:51</time>
      </trkpt>
      <trkpt lat="41.11974" lon="0.86845">
        <ele>449</ele>
        <time>2022-05-24 10:16:52</time>
      </trkpt>
      <trkpt lat="41.11975" lon="0.86842">
        <ele>449.2</ele>
        <time>2022-05-24 10:16:53</time>
      </trkpt>
      <trkpt lat="41.11975" lon="0.8684">
        <ele>449.2</ele>
        <time>2022-05-24 10:16:54</time>
      </trkpt>
      <trkpt lat="41.11976" lon="0.86837">
        <ele>449.4</ele>
        <time>2022-05-24 10:16:55</time>
      </trkpt>
      <trkpt lat="41.11977" lon="0.86835">
        <ele>449.6</ele>
        <time>2022-05-24 10:16:56</time>
      </trkpt>
      <trkpt lat="41.11977" lon="0.86832">
        <ele>449.8</ele>
        <time>2022-05-24 10:16:57</time>
      </trkpt>
      <trkpt lat="41.11977" lon="0.8683">
        <ele>449.8</ele>
        <time>2022-05-24 10:16:58</time>
      </trkpt>
      <trkpt lat="41.11977" lon="0.86827">
        <ele>450</ele>
        <time>2022-05-24 10:16:59</time>
      </trkpt>
      <trkpt lat="41.11978" lon="0.86824">
        <ele>450.2</ele>
        <time>2022-05-24 10:17:00</time>
      </trkpt>
      <trkpt lat="41.11978" lon="0.86822">
        <ele>450.4</ele>
        <time>2022-05-24 10:17:01</time>
      </trkpt>
      <trkpt lat="41.11977" lon="0.86819">
        <ele>450.4</ele>
        <time>2022-05-24 10:17:02</time>
      </trkpt>
      <trkpt lat="41.11977" lon="0.86816">
        <ele>450.6</ele>
        <time>2022-05-24 10:17:03</time>
      </trkpt>
      <trkpt lat="41.11977" lon="0.86814">
        <ele>450.8</ele>
        <time>2022-05-24 10:17:04</time>
      </trkpt>
      <trkpt lat="41.11976" lon="0.86811">
        <ele>451</ele>
        <time>2022-05-24 10:17:05</time>
      </trkpt>
      <trkpt lat="41.11975" lon="0.86808">
        <ele>451</ele>
        <time>2022-05-24 10:17:06</time>
      </trkpt>
      <trkpt lat="41.11975" lon="0.86806">
        <ele>451.2</ele>
        <time>2022-05-24 10:17:07</time>
      </trkpt>
      <trkpt lat="41.11974" lon="0.86803">
        <ele>451.4</ele>
        <time>2022-05-24 10:17:08</time>
      </trkpt>
      <trkpt lat="41.11974" lon="0.868">
        <ele>451.4</ele>
        <time>2022-05-24 10:17:09</time>
      </trkpt>
      <trkpt lat="41.11972" lon="0.86798">
        <ele>451.6</ele>
        <time>2022-05-24 10:17:10</time>
      </trkpt>
      <trkpt lat="41.11972" lon="0.86795">
        <ele>451.8</ele>
        <time>2022-05-24 10:17:11</time>
      </trkpt>
      <trkpt lat="41.11971" lon="0.86793">
        <ele>451.8</ele>
        <time>2022-05-24 10:17:12</time>
      </trkpt>
      <trkpt lat="41.11969" lon="0.86791">
        <ele>452</ele>
        <time>2022-05-24 10:17:13</time>
      </trkpt>
      <trkpt lat="41.11968" lon="0.86789">
        <ele>452.2</ele>
        <time>2022-05-24 10:17:14</time>
      </trkpt>
      <trkpt lat="41.11966" lon="0.86787">
        <ele>452.2</ele>
        <time>2022-05-24 10:17:15</time>
      </trkpt>
      <trkpt lat="41.11965" lon="0.86784">
        <ele>452.4</ele>
        <time>2022-05-24 10:17:16</time>
      </trkpt>
      <trkpt lat="41.11964" lon="0.86782">
        <ele>452.6</ele>
        <time>2022-05-24 10:17:17</time>
      </trkpt>
      <trkpt lat="41.11963" lon="0.8678">
        <ele>452.8</ele>
        <time>2022-05-24 10:17:18</time>
      </trkpt>
      <trkpt lat="41.11961" lon="0.86777">
        <ele>452.8</ele>
        <time>2022-05-24 10:17:19</time>
      </trkpt>
      <trkpt lat="41.1196" lon="0.86776">
        <ele>453</ele>
        <time>2022-05-24 10:17:20</time>
      </trkpt>
      <trkpt lat="41.11959" lon="0.86774">
        <ele>453.2</ele>
        <time>2022-05-24 10:17:21</time>
      </trkpt>
      <trkpt lat="41.11957" lon="0.86772">
        <ele>453.2</ele>
        <time>2022-05-24 10:17:22</time>
      </trkpt>
      <trkpt lat="41.11956" lon="0.8677">
        <ele>453.4</ele>
        <time>2022-05-24 10:17:23</time>
      </trkpt>
      <trkpt lat="41.11955" lon="0.86768">
        <ele>453.4</ele>
        <time>2022-05-24 10:17:24</time>
      </trkpt>
      <trkpt lat="41.11953" lon="0.86765">
        <ele>453.6</ele>
        <time>2022-05-24 10:17:25</time>
      </trkpt>
      <trkpt lat="41.11952" lon="0.86763">
        <ele>453.6</ele>
        <time>2022-05-24 10:17:26</time>
      </trkpt>
      <trkpt lat="41.1195" lon="0.8676">
        <ele>453.8</ele>
        <time>2022-05-24 10:17:27</time>
      </trkpt>
      <trkpt lat="41.1195" lon="0.86759">
        <ele>453.8</ele>
        <time>2022-05-24 10:17:28</time>
      </trkpt>
      <trkpt lat="41.11948" lon="0.86756">
        <ele>453.8</ele>
        <time>2022-05-24 10:17:29</time>
      </trkpt>
      <trkpt lat="41.11946" lon="0.86753">
        <ele>454</ele>
        <time>2022-05-24 10:17:30</time>
      </trkpt>
      <trkpt lat="41.11945" lon="0.86751">
        <ele>454.2</ele>
        <time>2022-05-24 10:17:31</time>
      </trkpt>
      <trkpt lat="41.11944" lon="0.86749">
        <ele>454.4</ele>
        <time>2022-05-24 10:17:32</time>
      </trkpt>
      <trkpt lat="41.11943" lon="0.86747">
        <ele>454.4</ele>
        <time>2022-05-24 10:17:33</time>
      </trkpt>
      <trkpt lat="41.11942" lon="0.86744">
        <ele>454.6</ele>
        <time>2022-05-24 10:17:34</time>
      </trkpt>
      <trkpt lat="41.11941" lon="0.86741">
        <ele>454.8</ele>
        <time>2022-05-24 10:17:35</time>
      </trkpt>
      <trkpt lat="41.1194" lon="0.86738">
        <ele>455</ele>
        <time>2022-05-24 10:17:36</time>
      </trkpt>
      <trkpt lat="41.1194" lon="0.86736">
        <ele>455</ele>
        <time>2022-05-24 10:17:37</time>
      </trkpt>
      <trkpt lat="41.11939" lon="0.86732">
        <ele>455.2</ele>
        <time>2022-05-24 10:17:38</time>
      </trkpt>
      <trkpt lat="41.11939" lon="0.86729">
        <ele>455.2</ele>
        <time>2022-05-24 10:17:39</time>
      </trkpt>
      <trkpt lat="41.11939" lon="0.86726">
        <ele>455.4</ele>
        <time>2022-05-24 10:17:40</time>
      </trkpt>
      <trkpt lat="41.1194" lon="0.86723">
        <ele>455.6</ele>
        <time>2022-05-24 10:17:41</time>
      </trkpt>
      <trkpt lat="41.1194" lon="0.86721">
        <ele>455.6</ele>
        <time>2022-05-24 10:17:42</time>
      </trkpt>
      <trkpt lat="41.11941" lon="0.86718">
        <ele>455.8</ele>
        <time>2022-05-24 10:17:43</time>
      </trkpt>
      <trkpt lat="41.11943" lon="0.86715">
        <ele>455.8</ele>
        <time>2022-05-24 10:17:44</time>
      </trkpt>
      <trkpt lat="41.11944" lon="0.86713">
        <ele>456</ele>
        <time>2022-05-24 10:17:45</time>
      </trkpt>
      <trkpt lat="41.11945" lon="0.86711">
        <ele>456.2</ele>
        <time>2022-05-24 10:17:46</time>
      </trkpt>
      <trkpt lat="41.11946" lon="0.86709">
        <ele>456.2</ele>
        <time>2022-05-24 10:17:47</time>
      </trkpt>
      <trkpt lat="41.11946" lon="0.86707">
        <ele>456.4</ele>
        <time>2022-05-24 10:17:48</time>
      </trkpt>
      <trkpt lat="41.11948" lon="0.86704">
        <ele>456.6</ele>
        <time>2022-05-24 10:17:49</time>
      </trkpt>
      <trkpt lat="41.11949" lon="0.86702">
        <ele>456.8</ele>
        <time>2022-05-24 10:17:50</time>
      </trkpt>
      <trkpt lat="41.1195" lon="0.86701">
        <ele>456.8</ele>
        <time>2022-05-24 10:17:51</time>
      </trkpt>
      <trkpt lat="41.11951" lon="0.86698">
        <ele>457</ele>
        <time>2022-05-24 10:17:52</time>
      </trkpt>
      <trkpt lat="41.11952" lon="0.86696">
        <ele>457.2</ele>
        <time>2022-05-24 10:17:53</time>
      </trkpt>
      <trkpt lat="41.11952" lon="0.86693">
        <ele>457.4</ele>
        <time>2022-05-24 10:17:54</time>
      </trkpt>
      <trkpt lat="41.11953" lon="0.86691">
        <ele>457.4</ele>
        <time>2022-05-24 10:17:55</time>
      </trkpt>
      <trkpt lat="41.11954" lon="0.86688">
        <ele>457.6</ele>
        <time>2022-05-24 10:17:56</time>
      </trkpt>
      <trkpt lat="41.11954" lon="0.86685">
        <ele>457.6</ele>
        <time>2022-05-24 10:17:57</time>
      </trkpt>
      <trkpt lat="41.11954" lon="0.86682">
        <ele>457.6</ele>
        <time>2022-05-24 10:17:58</time>
      </trkpt>
      <trkpt lat="41.11953" lon="0.86679">
        <ele>457.8</ele>
        <time>2022-05-24 10:17:59</time>
      </trkpt>
      <trkpt lat="41.11952" lon="0.86676">
        <ele>457.8</ele>
        <time>2022-05-24 10:18:00</time>
      </trkpt>
      <trkpt lat="41.11951" lon="0.86674">
        <ele>457.8</ele>
        <time>2022-05-24 10:18:01</time>
      </trkpt>
      <trkpt lat="41.1195" lon="0.86671">
        <ele>457.8</ele>
        <time>2022-05-24 10:18:02</time>
      </trkpt>
      <trkpt lat="41.11948" lon="0.86668">
        <ele>458</ele>
        <time>2022-05-24 10:18:03</time>
      </trkpt>
      <trkpt lat="41.11947" lon="0.86666">
        <ele>458</ele>
        <time>2022-05-24 10:18:04</time>
      </trkpt>
      <trkpt lat="41.11945" lon="0.86664">
        <ele>458</ele>
        <time>2022-05-24 10:18:05</time>
      </trkpt>
      <trkpt lat="41.11943" lon="0.86663">
        <ele>458</ele>
        <time>2022-05-24 10:18:06</time>
      </trkpt>
      <trkpt lat="41.11941" lon="0.86662">
        <ele>458.2</ele>
        <time>2022-05-24 10:18:07</time>
      </trkpt>
      <trkpt lat="41.11939" lon="0.8666">
        <ele>458.2</ele>
        <time>2022-05-24 10:18:08</time>
      </trkpt>
      <trkpt lat="41.11937" lon="0.86659">
        <ele>458.2</ele>
        <time>2022-05-24 10:18:09</time>
      </trkpt>
      <trkpt lat="41.11935" lon="0.86659">
        <ele>458.4</ele>
        <time>2022-05-24 10:18:10</time>
      </trkpt>
      <trkpt lat="41.11932" lon="0.86659">
        <ele>458.4</ele>
        <time>2022-05-24 10:18:11</time>
      </trkpt>
      <trkpt lat="41.1193" lon="0.86658">
        <ele>458.6</ele>
        <time>2022-05-24 10:18:12</time>
      </trkpt>
      <trkpt lat="41.11928" lon="0.86659">
        <ele>458.6</ele>
        <time>2022-05-24 10:18:13</time>
      </trkpt>
      <trkpt lat="41.11926" lon="0.86659">
        <ele>458.8</ele>
        <time>2022-05-24 10:18:14</time>
      </trkpt>
      <trkpt lat="41.11924" lon="0.86659">
        <ele>459</ele>
        <time>2022-05-24 10:18:15</time>
      </trkpt>
      <trkpt lat="41.11922" lon="0.86659">
        <ele>459</ele>
        <time>2022-05-24 10:18:16</time>
      </trkpt>
      <trkpt lat="41.11921" lon="0.86659">
        <ele>459.2</ele>
        <time>2022-05-24 10:18:17</time>
      </trkpt>
      <trkpt lat="41.11919" lon="0.86659">
        <ele>459.4</ele>
        <time>2022-05-24 10:18:18</time>
      </trkpt>
      <trkpt lat="41.11917" lon="0.86659">
        <ele>459.6</ele>
        <time>2022-05-24 10:18:19</time>
      </trkpt>
      <trkpt lat="41.11916" lon="0.8666">
        <ele>459.8</ele>
        <time>2022-05-24 10:18:20</time>
      </trkpt>
      <trkpt lat="41.11914" lon="0.86661">
        <ele>460</ele>
        <time>2022-05-24 10:18:21</time>
      </trkpt>
      <trkpt lat="41.11912" lon="0.86662">
        <ele>460</ele>
        <time>2022-05-24 10:18:22</time>
      </trkpt>
      <trkpt lat="41.1191" lon="0.86663">
        <ele>460.2</ele>
        <time>2022-05-24 10:18:23</time>
      </trkpt>
      <trkpt lat="41.11909" lon="0.86665">
        <ele>460.4</ele>
        <time>2022-05-24 10:18:24</time>
      </trkpt>
      <trkpt lat="41.11907" lon="0.86667">
        <ele>460.6</ele>
        <time>2022-05-24 10:18:25</time>
      </trkpt>
      <trkpt lat="41.11906" lon="0.86669">
        <ele>460.6</ele>
        <time>2022-05-24 10:18:26</time>
      </trkpt>
      <trkpt lat="41.11904" lon="0.86672">
        <ele>460.8</ele>
        <time>2022-05-24 10:18:27</time>
      </trkpt>
      <trkpt lat="41.11903" lon="0.86674">
        <ele>461</ele>
        <time>2022-05-24 10:18:28</time>
      </trkpt>
      <trkpt lat="41.11902" lon="0.86677">
        <ele>461</ele>
        <time>2022-05-24 10:18:29</time>
      </trkpt>
      <trkpt lat="41.11901" lon="0.8668">
        <ele>461.2</ele>
        <time>2022-05-24 10:18:30</time>
      </trkpt>
      <trkpt lat="41.11901" lon="0.86683">
        <ele>461.2</ele>
        <time>2022-05-24 10:18:31</time>
      </trkpt>
      <trkpt lat="41.119" lon="0.86686">
        <ele>461.4</ele>
        <time>2022-05-24 10:18:32</time>
      </trkpt>
      <trkpt lat="41.119" lon="0.86688">
        <ele>461.6</ele>
        <time>2022-05-24 10:18:33</time>
      </trkpt>
      <trkpt lat="41.119" lon="0.86691">
        <ele>461.6</ele>
        <time>2022-05-24 10:18:34</time>
      </trkpt>
      <trkpt lat="41.11899" lon="0.86694">
        <ele>461.8</ele>
        <time>2022-05-24 10:18:35</time>
      </trkpt>
      <trkpt lat="41.11899" lon="0.86697">
        <ele>462</ele>
        <time>2022-05-24 10:18:36</time>
      </trkpt>
      <trkpt lat="41.119" lon="0.86699">
        <ele>462</ele>
        <time>2022-05-24 10:18:37</time>
      </trkpt>
      <trkpt lat="41.119" lon="0.86702">
        <ele>462.2</ele>
        <time>2022-05-24 10:18:38</time>
      </trkpt>
      <trkpt lat="41.119" lon="0.86705">
        <ele>462.4</ele>
        <time>2022-05-24 10:18:39</time>
      </trkpt>
      <trkpt lat="41.11901" lon="0.86707">
        <ele>462.4</ele>
        <time>2022-05-24 10:18:40</time>
      </trkpt>
      <trkpt lat="41.11901" lon="0.8671">
        <ele>462.6</ele>
        <time>2022-05-24 10:18:41</time>
      </trkpt>
      <trkpt lat="41.11901" lon="0.86712">
        <ele>462.8</ele>
        <time>2022-05-24 10:18:42</time>
      </trkpt>
      <trkpt lat="41.11902" lon="0.86715">
        <ele>463</ele>
        <time>2022-05-24 10:18:43</time>
      </trkpt>
      <trkpt lat="41.11903" lon="0.86717">
        <ele>463</ele>
        <time>2022-05-24 10:18:44</time>
      </trkpt>
      <trkpt lat="41.11903" lon="0.86719">
        <ele>463.2</ele>
        <time>2022-05-24 10:18:45</time>
      </trkpt>
      <trkpt lat="41.11905" lon="0.86721">
        <ele>463.4</ele>
        <time>2022-05-24 10:18:46</time>
      </trkpt>
      <trkpt lat="41.11906" lon="0.86724">
        <ele>463.6</ele>
        <time>2022-05-24 10:18:47</time>
      </trkpt>
      <trkpt lat="41.11907" lon="0.86726">
        <ele>463.6</ele>
        <time>2022-05-24 10:18:48</time>
      </trkpt>
      <trkpt lat="41.11908" lon="0.86729">
        <ele>463.8</ele>
        <time>2022-05-24 10:18:49</time>
      </trkpt>
      <trkpt lat="41.11909" lon="0.86732">
        <ele>464</ele>
        <time>2022-05-24 10:18:50</time>
      </trkpt>
      <trkpt lat="41.1191" lon="0.86734">
        <ele>464.2</ele>
        <time>2022-05-24 10:18:51</time>
      </trkpt>
      <trkpt lat="41.11911" lon="0.86737">
        <ele>464.2</ele>
        <time>2022-05-24 10:18:52</time>
      </trkpt>
      <trkpt lat="41.11911" lon="0.8674">
        <ele>464.4</ele>
        <time>2022-05-24 10:18:53</time>
      </trkpt>
      <trkpt lat="41.11912" lon="0.86743">
        <ele>464.6</ele>
        <time>2022-05-24 10:18:54</time>
      </trkpt>
      <trkpt lat="41.11912" lon="0.86747">
        <ele>464.6</ele>
        <time>2022-05-24 10:18:55</time>
      </trkpt>
      <trkpt lat="41.11913" lon="0.8675">
        <ele>464.8</ele>
        <time>2022-05-24 10:18:56</time>
      </trkpt>
      <trkpt lat="41.11913" lon="0.86753">
        <ele>465</ele>
        <time>2022-05-24 10:18:57</time>
      </trkpt>
      <trkpt lat="41.11912" lon="0.86756">
        <ele>465</ele>
        <time>2022-05-24 10:18:58</time>
      </trkpt>
      <trkpt lat="41.11911" lon="0.86759">
        <ele>465.2</ele>
        <time>2022-05-24 10:18:59</time>
      </trkpt>
      <trkpt lat="41.1191" lon="0.86761">
        <ele>465.4</ele>
        <time>2022-05-24 10:19:00</time>
      </trkpt>
      <trkpt lat="41.11909" lon="0.86763">
        <ele>465.4</ele>
        <time>2022-05-24 10:19:01</time>
      </trkpt>
      <trkpt lat="41.11908" lon="0.86766">
        <ele>465.6</ele>
        <time>2022-05-24 10:19:02</time>
      </trkpt>
      <trkpt lat="41.11906" lon="0.86768">
        <ele>465.8</ele>
        <time>2022-05-24 10:19:03</time>
      </trkpt>
      <trkpt lat="41.11903" lon="0.8677">
        <ele>466</ele>
        <time>2022-05-24 10:19:04</time>
      </trkpt>
      <trkpt lat="41.11901" lon="0.86772">
        <ele>466</ele>
        <time>2022-05-24 10:19:05</time>
      </trkpt>
      <trkpt lat="41.11898" lon="0.86774">
        <ele>466.2</ele>
        <time>2022-05-24 10:19:06</time>
      </trkpt>
      <trkpt lat="41.11896" lon="0.86774">
        <ele>466.4</ele>
        <time>2022-05-24 10:19:07</time>
      </trkpt>
      <trkpt lat="41.11894" lon="0.86774">
        <ele>466.4</ele>
        <time>2022-05-24 10:19:08</time>
      </trkpt>
      <trkpt lat="41.11892" lon="0.86774">
        <ele>466.6</ele>
        <time>2022-05-24 10:19:09</time>
      </trkpt>
      <trkpt lat="41.11889" lon="0.86774">
        <ele>466.8</ele>
        <time>2022-05-24 10:19:10</time>
      </trkpt>
      <trkpt lat="41.11887" lon="0.86774">
        <ele>467</ele>
        <time>2022-05-24 10:19:11</time>
      </trkpt>
      <trkpt lat="41.11885" lon="0.86773">
        <ele>467</ele>
        <time>2022-05-24 10:19:12</time>
      </trkpt>
      <trkpt lat="41.11883" lon="0.86773">
        <ele>467.2</ele>
        <time>2022-05-24 10:19:13</time>
      </trkpt>
      <trkpt lat="41.11881" lon="0.86772">
        <ele>467.4</ele>
        <time>2022-05-24 10:19:14</time>
      </trkpt>
      <trkpt lat="41.11879" lon="0.86772">
        <ele>467.6</ele>
        <time>2022-05-24 10:19:15</time>
      </trkpt>
      <trkpt lat="41.11878" lon="0.86772">
        <ele>467.8</ele>
        <time>2022-05-24 10:19:16</time>
      </trkpt>
      <trkpt lat="41.11877" lon="0.86771">
        <ele>468</ele>
        <time>2022-05-24 10:19:17</time>
      </trkpt>
      <trkpt lat="41.11875" lon="0.86771">
        <ele>468</ele>
        <time>2022-05-24 10:19:18</time>
      </trkpt>
      <trkpt lat="41.11873" lon="0.8677">
        <ele>468.2</ele>
        <time>2022-05-24 10:19:19</time>
      </trkpt>
      <trkpt lat="41.11871" lon="0.8677">
        <ele>468.4</ele>
        <time>2022-05-24 10:19:20</time>
      </trkpt>
      <trkpt lat="41.11869" lon="0.86769">
        <ele>468.6</ele>
        <time>2022-05-24 10:19:21</time>
      </trkpt>
      <trkpt lat="41.11867" lon="0.86769">
        <ele>468.6</ele>
        <time>2022-05-24 10:19:22</time>
      </trkpt>
      <trkpt lat="41.11866" lon="0.86768">
        <ele>468.8</ele>
        <time>2022-05-24 10:19:23</time>
      </trkpt>
      <trkpt lat="41.11863" lon="0.86768">
        <ele>469</ele>
        <time>2022-05-24 10:19:24</time>
      </trkpt>
      <trkpt lat="41.11861" lon="0.86768">
        <ele>469.2</ele>
        <time>2022-05-24 10:19:25</time>
      </trkpt>
      <trkpt lat="41.1186" lon="0.86768">
        <ele>469.2</ele>
        <time>2022-05-24 10:19:26</time>
      </trkpt>
      <trkpt lat="41.11858" lon="0.86769">
        <ele>469.4</ele>
        <time>2022-05-24 10:19:27</time>
      </trkpt>
      <trkpt lat="41.11856" lon="0.86769">
        <ele>469.6</ele>
        <time>2022-05-24 10:19:28</time>
      </trkpt>
      <trkpt lat="41.11854" lon="0.86769">
        <ele>469.8</ele>
        <time>2022-05-24 10:19:29</time>
      </trkpt>
      <trkpt lat="41.11852" lon="0.8677">
        <ele>469.8</ele>
        <time>2022-05-24 10:19:30</time>
      </trkpt>
      <trkpt lat="41.1185" lon="0.86772">
        <ele>470</ele>
        <time>2022-05-24 10:19:31</time>
      </trkpt>
      <trkpt lat="41.11848" lon="0.86773">
        <ele>470</ele>
        <time>2022-05-24 10:19:32</time>
      </trkpt>
      <trkpt lat="41.11846" lon="0.86775">
        <ele>470.2</ele>
        <time>2022-05-24 10:19:33</time>
      </trkpt>
      <trkpt lat="41.11844" lon="0.86777">
        <ele>470.4</ele>
        <time>2022-05-24 10:19:34</time>
      </trkpt>
      <trkpt lat="41.11842" lon="0.86778">
        <ele>470.6</ele>
        <time>2022-05-24 10:19:35</time>
      </trkpt>
      <trkpt lat="41.11841" lon="0.8678">
        <ele>470.6</ele>
        <time>2022-05-24 10:19:36</time>
      </trkpt>
      <trkpt lat="41.11841" lon="0.86782">
        <ele>470.8</ele>
        <time>2022-05-24 10:19:37</time>
      </trkpt>
      <trkpt lat="41.1184" lon="0.86785">
        <ele>471</ele>
        <time>2022-05-24 10:19:38</time>
      </trkpt>
      <trkpt lat="41.11839" lon="0.86787">
        <ele>471.2</ele>
        <time>2022-05-24 10:19:39</time>
      </trkpt>
      <trkpt lat="41.11838" lon="0.86789">
        <ele>471.4</ele>
        <time>2022-05-24 10:19:40</time>
      </trkpt>
      <trkpt lat="41.11837" lon="0.86792">
        <ele>471.4</ele>
        <time>2022-05-24 10:19:41</time>
      </trkpt>
      <trkpt lat="41.11837" lon="0.86794">
        <ele>471.6</ele>
        <time>2022-05-24 10:19:42</time>
      </trkpt>
      <trkpt lat="41.11837" lon="0.86797">
        <ele>471.8</ele>
        <time>2022-05-24 10:19:43</time>
      </trkpt>
      <trkpt lat="41.11837" lon="0.868">
        <ele>471.8</ele>
        <time>2022-05-24 10:19:44</time>
      </trkpt>
      <trkpt lat="41.11836" lon="0.86802">
        <ele>472</ele>
        <time>2022-05-24 10:19:45</time>
      </trkpt>
      <trkpt lat="41.11836" lon="0.86805">
        <ele>472</ele>
        <time>2022-05-24 10:19:46</time>
      </trkpt>
      <trkpt lat="41.11837" lon="0.86807">
        <ele>472.2</ele>
        <time>2022-05-24 10:19:47</time>
      </trkpt>
      <trkpt lat="41.11837" lon="0.8681">
        <ele>472.4</ele>
        <time>2022-05-24 10:19:48</time>
      </trkpt>
      <trkpt lat="41.11837" lon="0.86812">
        <ele>472.4</ele>
        <time>2022-05-24 10:19:49</time>
      </trkpt>
      <trkpt lat="41.11838" lon="0.86815">
        <ele>472.6</ele>
        <time>2022-05-24 10:19:50</time>
      </trkpt>
      <trkpt lat="41.11839" lon="0.86817">
        <ele>472.6</ele>
        <time>2022-05-24 10:19:51</time>
      </trkpt>
      <trkpt lat="41.1184" lon="0.86819">
        <ele>472.8</ele>
        <time>2022-05-24 10:19:52</time>
      </trkpt>
      <trkpt lat="41.1184" lon="0.86822">
        <ele>473</ele>
        <time>2022-05-24 10:19:53</time>
      </trkpt>
      <trkpt lat="41.11842" lon="0.86824">
        <ele>473</ele>
        <time>2022-05-24 10:19:54</time>
      </trkpt>
      <trkpt lat="41.11842" lon="0.86827">
        <ele>473.2</ele>
        <time>2022-05-24 10:19:55</time>
      </trkpt>
      <trkpt lat="41.11843" lon="0.86829">
        <ele>473.4</ele>
        <time>2022-05-24 10:19:56</time>
      </trkpt>
      <trkpt lat="41.11844" lon="0.86831">
        <ele>473.4</ele>
        <time>2022-05-24 10:19:57</time>
      </trkpt>
      <trkpt lat="41.11845" lon="0.86834">
        <ele>473.6</ele>
        <time>2022-05-24 10:19:58</time>
      </trkpt>
      <trkpt lat="41.11845" lon="0.86837">
        <ele>473.8</ele>
        <time>2022-05-24 10:19:59</time>
      </trkpt>
      <trkpt lat="41.11845" lon="0.86839">
        <ele>474</ele>
        <time>2022-05-24 10:20:00</time>
      </trkpt>
      <trkpt lat="41.11846" lon="0.86842">
        <ele>474</ele>
        <time>2022-05-24 10:20:01</time>
      </trkpt>
      <trkpt lat="41.11846" lon="0.86844">
        <ele>474.2</ele>
        <time>2022-05-24 10:20:02</time>
      </trkpt>
      <trkpt lat="41.11846" lon="0.86847">
        <ele>474.4</ele>
        <time>2022-05-24 10:20:03</time>
      </trkpt>
      <trkpt lat="41.11847" lon="0.86849">
        <ele>474.6</ele>
        <time>2022-05-24 10:20:04</time>
      </trkpt>
      <trkpt lat="41.11847" lon="0.86852">
        <ele>474.8</ele>
        <time>2022-05-24 10:20:05</time>
      </trkpt>
      <trkpt lat="41.11847" lon="0.86855">
        <ele>474.8</ele>
        <time>2022-05-24 10:20:06</time>
      </trkpt>
      <trkpt lat="41.11848" lon="0.86858">
        <ele>475</ele>
        <time>2022-05-24 10:20:07</time>
      </trkpt>
      <trkpt lat="41.11848" lon="0.8686">
        <ele>475.2</ele>
        <time>2022-05-24 10:20:08</time>
      </trkpt>
      <trkpt lat="41.11847" lon="0.86863">
        <ele>475.4</ele>
        <time>2022-05-24 10:20:09</time>
      </trkpt>
      <trkpt lat="41.11847" lon="0.86866">
        <ele>475.4</ele>
        <time>2022-05-24 10:20:10</time>
      </trkpt>
      <trkpt lat="41.11846" lon="0.86869">
        <ele>475.6</ele>
        <time>2022-05-24 10:20:11</time>
      </trkpt>
      <trkpt lat="41.11845" lon="0.86871">
        <ele>475.6</ele>
        <time>2022-05-24 10:20:12</time>
      </trkpt>
      <trkpt lat="41.11845" lon="0.86874">
        <ele>475.8</ele>
        <time>2022-05-24 10:20:13</time>
      </trkpt>
      <trkpt lat="41.11844" lon="0.86877">
        <ele>476</ele>
        <time>2022-05-24 10:20:14</time>
      </trkpt>
      <trkpt lat="41.11843" lon="0.86879">
        <ele>476.2</ele>
        <time>2022-05-24 10:20:15</time>
      </trkpt>
      <trkpt lat="41.11842" lon="0.86882">
        <ele>476.2</ele>
        <time>2022-05-24 10:20:16</time>
      </trkpt>
      <trkpt lat="41.11842" lon="0.86885">
        <ele>476.4</ele>
        <time>2022-05-24 10:20:17</time>
      </trkpt>
      <trkpt lat="41.11841" lon="0.86887">
        <ele>476.6</ele>
        <time>2022-05-24 10:20:18</time>
      </trkpt>
      <trkpt lat="41.1184" lon="0.8689">
        <ele>476.6</ele>
        <time>2022-05-24 10:20:19</time>
      </trkpt>
      <trkpt lat="41.11839" lon="0.86892">
        <ele>476.8</ele>
        <time>2022-05-24 10:20:20</time>
      </trkpt>
      <trkpt lat="41.11837" lon="0.86894">
        <ele>477</ele>
        <time>2022-05-24 10:20:21</time>
      </trkpt>
      <trkpt lat="41.11836" lon="0.86897">
        <ele>477.2</ele>
        <time>2022-05-24 10:20:22</time>
      </trkpt>
      <trkpt lat="41.11835" lon="0.869">
        <ele>477.4</ele>
        <time>2022-05-24 10:20:23</time>
      </trkpt>
      <trkpt lat="41.11835" lon="0.86902">
        <ele>477.4</ele>
        <time>2022-05-24 10:20:24</time>
      </trkpt>
      <trkpt lat="41.11834" lon="0.86905">
        <ele>477.6</ele>
        <time>2022-05-24 10:20:25</time>
      </trkpt>
      <trkpt lat="41.11832" lon="0.86908">
        <ele>477.8</ele>
        <time>2022-05-24 10:20:26</time>
      </trkpt>
      <trkpt lat="41.11831" lon="0.8691">
        <ele>478</ele>
        <time>2022-05-24 10:20:27</time>
      </trkpt>
      <trkpt lat="41.11831" lon="0.86913">
        <ele>478.2</ele>
        <time>2022-05-24 10:20:28</time>
      </trkpt>
      <trkpt lat="41.11829" lon="0.86916">
        <ele>478.4</ele>
        <time>2022-05-24 10:20:29</time>
      </trkpt>
      <trkpt lat="41.11828" lon="0.86919">
        <ele>478.4</ele>
        <time>2022-05-24 10:20:30</time>
      </trkpt>
      <trkpt lat="41.11827" lon="0.86922">
        <ele>478.6</ele>
        <time>2022-05-24 10:20:31</time>
      </trkpt>
      <trkpt lat="41.11826" lon="0.86925">
        <ele>478.8</ele>
        <time>2022-05-24 10:20:32</time>
      </trkpt>
      <trkpt lat="41.11825" lon="0.86927">
        <ele>479</ele>
        <time>2022-05-24 10:20:33</time>
      </trkpt>
      <trkpt lat="41.11824" lon="0.86929">
        <ele>479.2</ele>
        <time>2022-05-24 10:20:34</time>
      </trkpt>
      <trkpt lat="41.11822" lon="0.86932">
        <ele>479.4</ele>
        <time>2022-05-24 10:20:35</time>
      </trkpt>
      <trkpt lat="41.11821" lon="0.86934">
        <ele>479.4</ele>
        <time>2022-05-24 10:20:36</time>
      </trkpt>
      <trkpt lat="41.11819" lon="0.86936">
        <ele>479.6</ele>
        <time>2022-05-24 10:20:37</time>
      </trkpt>
      <trkpt lat="41.11818" lon="0.86938">
        <ele>479.8</ele>
        <time>2022-05-24 10:20:38</time>
      </trkpt>
      <trkpt lat="41.11818" lon="0.8694">
        <ele>480</ele>
        <time>2022-05-24 10:20:39</time>
      </trkpt>
      <trkpt lat="41.11816" lon="0.86942">
        <ele>480</ele>
        <time>2022-05-24 10:20:40</time>
      </trkpt>
      <trkpt lat="41.11815" lon="0.86944">
        <ele>480.2</ele>
        <time>2022-05-24 10:20:41</time>
      </trkpt>
      <trkpt lat="41.11815" lon="0.86946">
        <ele>480.4</ele>
        <time>2022-05-24 10:20:42</time>
      </trkpt>
      <trkpt lat="41.11814" lon="0.86949">
        <ele>480.4</ele>
        <time>2022-05-24 10:20:43</time>
      </trkpt>
      <trkpt lat="41.11813" lon="0.86951">
        <ele>480.6</ele>
        <time>2022-05-24 10:20:44</time>
      </trkpt>
      <trkpt lat="41.11812" lon="0.86953">
        <ele>480.8</ele>
        <time>2022-05-24 10:20:45</time>
      </trkpt>
      <trkpt lat="41.11811" lon="0.86955">
        <ele>481</ele>
        <time>2022-05-24 10:20:46</time>
      </trkpt>
      <trkpt lat="41.11811" lon="0.86958">
        <ele>481</ele>
        <time>2022-05-24 10:20:47</time>
      </trkpt>
      <trkpt lat="41.1181" lon="0.8696">
        <ele>481.2</ele>
        <time>2022-05-24 10:20:48</time>
      </trkpt>
      <trkpt lat="41.11809" lon="0.86962">
        <ele>481.4</ele>
        <time>2022-05-24 10:20:49</time>
      </trkpt>
      <trkpt lat="41.11809" lon="0.86964">
        <ele>481.6</ele>
        <time>2022-05-24 10:20:50</time>
      </trkpt>
      <trkpt lat="41.11808" lon="0.86966">
        <ele>481.8</ele>
        <time>2022-05-24 10:20:51</time>
      </trkpt>
      <trkpt lat="41.11808" lon="0.86969">
        <ele>481.8</ele>
        <time>2022-05-24 10:20:52</time>
      </trkpt>
      <trkpt lat="41.11807" lon="0.86971">
        <ele>482</ele>
        <time>2022-05-24 10:20:53</time>
      </trkpt>
      <trkpt lat="41.11807" lon="0.86974">
        <ele>482.2</ele>
        <time>2022-05-24 10:20:54</time>
      </trkpt>
      <trkpt lat="41.11807" lon="0.86977">
        <ele>482.4</ele>
        <time>2022-05-24 10:20:55</time>
      </trkpt>
      <trkpt lat="41.11807" lon="0.86979">
        <ele>482.6</ele>
        <time>2022-05-24 10:20:56</time>
      </trkpt>
      <trkpt lat="41.11808" lon="0.86982">
        <ele>482.8</ele>
        <time>2022-05-24 10:20:57</time>
      </trkpt>
      <trkpt lat="41.11808" lon="0.86985">
        <ele>482.8</ele>
        <time>2022-05-24 10:20:58</time>
      </trkpt>
      <trkpt lat="41.11808" lon="0.86988">
        <ele>483</ele>
        <time>2022-05-24 10:20:59</time>
      </trkpt>
      <trkpt lat="41.11808" lon="0.86991">
        <ele>483.2</ele>
        <time>2022-05-24 10:21:00</time>
      </trkpt>
      <trkpt lat="41.11808" lon="0.86994">
        <ele>483.4</ele>
        <time>2022-05-24 10:21:01</time>
      </trkpt>
      <trkpt lat="41.11808" lon="0.86997">
        <ele>483.4</ele>
        <time>2022-05-24 10:21:02</time>
      </trkpt>
      <trkpt lat="41.11808" lon="0.87">
        <ele>483.6</ele>
        <time>2022-05-24 10:21:03</time>
      </trkpt>
      <trkpt lat="41.11809" lon="0.87003">
        <ele>483.8</ele>
        <time>2022-05-24 10:21:04</time>
      </trkpt>
      <trkpt lat="41.1181" lon="0.87006">
        <ele>484</ele>
        <time>2022-05-24 10:21:05</time>
      </trkpt>
      <trkpt lat="41.11811" lon="0.8701">
        <ele>484</ele>
        <time>2022-05-24 10:21:06</time>
      </trkpt>
      <trkpt lat="41.11812" lon="0.87013">
        <ele>484.2</ele>
        <time>2022-05-24 10:21:07</time>
      </trkpt>
      <trkpt lat="41.11813" lon="0.87016">
        <ele>484.4</ele>
        <time>2022-05-24 10:21:08</time>
      </trkpt>
      <trkpt lat="41.11813" lon="0.87019">
        <ele>484.6</ele>
        <time>2022-05-24 10:21:09</time>
      </trkpt>
      <trkpt lat="41.11814" lon="0.87022">
        <ele>484.6</ele>
        <time>2022-05-24 10:21:10</time>
      </trkpt>
      <trkpt lat="41.11815" lon="0.87025">
        <ele>484.8</ele>
        <time>2022-05-24 10:21:11</time>
      </trkpt>
      <trkpt lat="41.11815" lon="0.87028">
        <ele>485</ele>
        <time>2022-05-24 10:21:12</time>
      </trkpt>
      <trkpt lat="41.11816" lon="0.87031">
        <ele>485.2</ele>
        <time>2022-05-24 10:21:13</time>
      </trkpt>
      <trkpt lat="41.11816" lon="0.87034">
        <ele>485.2</ele>
        <time>2022-05-24 10:21:14</time>
      </trkpt>
      <trkpt lat="41.11816" lon="0.87037">
        <ele>485.4</ele>
        <time>2022-05-24 10:21:15</time>
      </trkpt>
      <trkpt lat="41.11816" lon="0.8704">
        <ele>485.6</ele>
        <time>2022-05-24 10:21:16</time>
      </trkpt>
      <trkpt lat="41.11816" lon="0.87043">
        <ele>485.6</ele>
        <time>2022-05-24 10:21:17</time>
      </trkpt>
      <trkpt lat="41.11816" lon="0.87046">
        <ele>485.8</ele>
        <time>2022-05-24 10:21:18</time>
      </trkpt>
      <trkpt lat="41.11815" lon="0.87048">
        <ele>486</ele>
        <time>2022-05-24 10:21:19</time>
      </trkpt>
      <trkpt lat="41.11815" lon="0.87051">
        <ele>486</ele>
        <time>2022-05-24 10:21:20</time>
      </trkpt>
      <trkpt lat="41.11815" lon="0.87054">
        <ele>486.2</ele>
        <time>2022-05-24 10:21:21</time>
      </trkpt>
      <trkpt lat="41.11815" lon="0.87056">
        <ele>486.4</ele>
        <time>2022-05-24 10:21:22</time>
      </trkpt>
      <trkpt lat="41.11814" lon="0.87059">
        <ele>486.4</ele>
        <time>2022-05-24 10:21:23</time>
      </trkpt>
      <trkpt lat="41.11813" lon="0.87061">
        <ele>486.6</ele>
        <time>2022-05-24 10:21:24</time>
      </trkpt>
      <trkpt lat="41.11813" lon="0.87064">
        <ele>486.8</ele>
        <time>2022-05-24 10:21:25</time>
      </trkpt>
      <trkpt lat="41.11811" lon="0.87067">
        <ele>487</ele>
        <time>2022-05-24 10:21:26</time>
      </trkpt>
      <trkpt lat="41.11811" lon="0.87069">
        <ele>487</ele>
        <time>2022-05-24 10:21:27</time>
      </trkpt>
      <trkpt lat="41.1181" lon="0.87072">
        <ele>487.2</ele>
        <time>2022-05-24 10:21:28</time>
      </trkpt>
      <trkpt lat="41.11809" lon="0.87075">
        <ele>487.4</ele>
        <time>2022-05-24 10:21:29</time>
      </trkpt>
      <trkpt lat="41.11808" lon="0.87077">
        <ele>487.4</ele>
        <time>2022-05-24 10:21:30</time>
      </trkpt>
      <trkpt lat="41.11807" lon="0.8708">
        <ele>487.6</ele>
        <time>2022-05-24 10:21:31</time>
      </trkpt>
      <trkpt lat="41.11806" lon="0.87083">
        <ele>487.8</ele>
        <time>2022-05-24 10:21:32</time>
      </trkpt>
      <trkpt lat="41.11805" lon="0.87086">
        <ele>488</ele>
        <time>2022-05-24 10:21:33</time>
      </trkpt>
      <trkpt lat="41.11804" lon="0.87089">
        <ele>488</ele>
        <time>2022-05-24 10:21:34</time>
      </trkpt>
      <trkpt lat="41.11803" lon="0.87091">
        <ele>488.2</ele>
        <time>2022-05-24 10:21:35</time>
      </trkpt>
      <trkpt lat="41.11802" lon="0.87094">
        <ele>488.2</ele>
        <time>2022-05-24 10:21:36</time>
      </trkpt>
      <trkpt lat="41.118" lon="0.87097">
        <ele>488.4</ele>
        <time>2022-05-24 10:21:37</time>
      </trkpt>
      <trkpt lat="41.11799" lon="0.871">
        <ele>488.4</ele>
        <time>2022-05-24 10:21:38</time>
      </trkpt>
      <trkpt lat="41.11798" lon="0.87102">
        <ele>488.6</ele>
        <time>2022-05-24 10:21:39</time>
      </trkpt>
      <trkpt lat="41.11797" lon="0.87105">
        <ele>488.6</ele>
        <time>2022-05-24 10:21:40</time>
      </trkpt>
      <trkpt lat="41.11796" lon="0.87108">
        <ele>488.8</ele>
        <time>2022-05-24 10:21:41</time>
      </trkpt>
      <trkpt lat="41.11795" lon="0.87111">
        <ele>488.8</ele>
        <time>2022-05-24 10:21:42</time>
      </trkpt>
      <trkpt lat="41.11795" lon="0.87114">
        <ele>489</ele>
        <time>2022-05-24 10:21:43</time>
      </trkpt>
      <trkpt lat="41.11794" lon="0.87117">
        <ele>489</ele>
        <time>2022-05-24 10:21:44</time>
      </trkpt>
      <trkpt lat="41.11794" lon="0.8712">
        <ele>489</ele>
        <time>2022-05-24 10:21:45</time>
      </trkpt>
      <trkpt lat="41.11793" lon="0.87123">
        <ele>489.2</ele>
        <time>2022-05-24 10:21:46</time>
      </trkpt>
      <trkpt lat="41.11792" lon="0.87126">
        <ele>489.2</ele>
        <time>2022-05-24 10:21:47</time>
      </trkpt>
      <trkpt lat="41.11792" lon="0.87129">
        <ele>489.4</ele>
        <time>2022-05-24 10:21:48</time>
      </trkpt>
      <trkpt lat="41.11791" lon="0.87132">
        <ele>489.4</ele>
        <time>2022-05-24 10:21:49</time>
      </trkpt>
      <trkpt lat="41.1179" lon="0.87135">
        <ele>489.6</ele>
        <time>2022-05-24 10:21:50</time>
      </trkpt>
      <trkpt lat="41.11789" lon="0.87137">
        <ele>489.6</ele>
        <time>2022-05-24 10:21:51</time>
      </trkpt>
      <trkpt lat="41.11789" lon="0.87141">
        <ele>489.8</ele>
        <time>2022-05-24 10:21:52</time>
      </trkpt>
      <trkpt lat="41.11788" lon="0.87143">
        <ele>489.8</ele>
        <time>2022-05-24 10:21:53</time>
      </trkpt>
      <trkpt lat="41.11788" lon="0.87146">
        <ele>490</ele>
        <time>2022-05-24 10:21:54</time>
      </trkpt>
      <trkpt lat="41.11787" lon="0.87149">
        <ele>490.2</ele>
        <time>2022-05-24 10:21:55</time>
      </trkpt>
      <trkpt lat="41.11787" lon="0.87152">
        <ele>490.2</ele>
        <time>2022-05-24 10:21:56</time>
      </trkpt>
      <trkpt lat="41.11787" lon="0.87155">
        <ele>490.4</ele>
        <time>2022-05-24 10:21:57</time>
      </trkpt>
      <trkpt lat="41.11786" lon="0.87157">
        <ele>490.4</ele>
        <time>2022-05-24 10:21:58</time>
      </trkpt>
      <trkpt lat="41.11786" lon="0.87159">
        <ele>490.6</ele>
        <time>2022-05-24 10:21:59</time>
      </trkpt>
      <trkpt lat="41.11786" lon="0.87162">
        <ele>490.8</ele>
        <time>2022-05-24 10:22:00</time>
      </trkpt>
      <trkpt lat="41.11785" lon="0.87164">
        <ele>490.8</ele>
        <time>2022-05-24 10:22:01</time>
      </trkpt>
      <trkpt lat="41.11784" lon="0.87166">
        <ele>491</ele>
        <time>2022-05-24 10:22:02</time>
      </trkpt>
      <trkpt lat="41.11783" lon="0.87168">
        <ele>491.2</ele>
        <time>2022-05-24 10:22:03</time>
      </trkpt>
      <trkpt lat="41.11781" lon="0.87171">
        <ele>491.4</ele>
        <time>2022-05-24 10:22:04</time>
      </trkpt>
      <trkpt lat="41.11781" lon="0.87173">
        <ele>491.6</ele>
        <time>2022-05-24 10:22:05</time>
      </trkpt>
      <trkpt lat="41.11779" lon="0.87175">
        <ele>491.6</ele>
        <time>2022-05-24 10:22:06</time>
      </trkpt>
      <trkpt lat="41.11778" lon="0.87177">
        <ele>491.8</ele>
        <time>2022-05-24 10:22:07</time>
      </trkpt>
      <trkpt lat="41.11777" lon="0.87179">
        <ele>492</ele>
        <time>2022-05-24 10:22:08</time>
      </trkpt>
      <trkpt lat="41.11776" lon="0.87181">
        <ele>492.2</ele>
        <time>2022-05-24 10:22:09</time>
      </trkpt>
      <trkpt lat="41.11774" lon="0.87183">
        <ele>492.4</ele>
        <time>2022-05-24 10:22:10</time>
      </trkpt>
      <trkpt lat="41.11772" lon="0.87184">
        <ele>492.6</ele>
        <time>2022-05-24 10:22:11</time>
      </trkpt>
      <trkpt lat="41.1177" lon="0.87186">
        <ele>492.8</ele>
        <time>2022-05-24 10:22:12</time>
      </trkpt>
      <trkpt lat="41.11768" lon="0.87187">
        <ele>493</ele>
        <time>2022-05-24 10:22:13</time>
      </trkpt>
      <trkpt lat="41.11766" lon="0.87188">
        <ele>493.2</ele>
        <time>2022-05-24 10:22:14</time>
      </trkpt>
      <trkpt lat="41.11763" lon="0.87189">
        <ele>493.4</ele>
        <time>2022-05-24 10:22:15</time>
      </trkpt>
      <trkpt lat="41.11761" lon="0.87189">
        <ele>493.6</ele>
        <time>2022-05-24 10:22:16</time>
      </trkpt>
      <trkpt lat="41.11759" lon="0.87189">
        <ele>493.6</ele>
        <time>2022-05-24 10:22:17</time>
      </trkpt>
      <trkpt lat="41.11757" lon="0.87189">
        <ele>493.8</ele>
        <time>2022-05-24 10:22:18</time>
      </trkpt>
      <trkpt lat="41.11754" lon="0.87188">
        <ele>494</ele>
        <time>2022-05-24 10:22:19</time>
      </trkpt>
      <trkpt lat="41.11752" lon="0.87186">
        <ele>494.2</ele>
        <time>2022-05-24 10:22:20</time>
      </trkpt>
      <trkpt lat="41.1175" lon="0.87185">
        <ele>494.4</ele>
        <time>2022-05-24 10:22:21</time>
      </trkpt>
      <trkpt lat="41.11749" lon="0.87183">
        <ele>494.6</ele>
        <time>2022-05-24 10:22:22</time>
      </trkpt>
      <trkpt lat="41.11747" lon="0.87181">
        <ele>494.8</ele>
        <time>2022-05-24 10:22:23</time>
      </trkpt>
      <trkpt lat="41.11745" lon="0.87179">
        <ele>494.8</ele>
        <time>2022-05-24 10:22:24</time>
      </trkpt>
      <trkpt lat="41.11744" lon="0.87177">
        <ele>495.2</ele>
        <time>2022-05-24 10:22:25</time>
      </trkpt>
      <trkpt lat="41.11743" lon="0.87174">
        <ele>495.2</ele>
        <time>2022-05-24 10:22:26</time>
      </trkpt>
      <trkpt lat="41.11742" lon="0.87172">
        <ele>495.4</ele>
        <time>2022-05-24 10:22:27</time>
      </trkpt>
      <trkpt lat="41.11742" lon="0.87169">
        <ele>495.6</ele>
        <time>2022-05-24 10:22:28</time>
      </trkpt>
      <trkpt lat="41.11741" lon="0.87166">
        <ele>495.8</ele>
        <time>2022-05-24 10:22:29</time>
      </trkpt>
      <trkpt lat="41.11741" lon="0.87164">
        <ele>495.8</ele>
        <time>2022-05-24 10:22:30</time>
      </trkpt>
      <trkpt lat="41.11741" lon="0.87161">
        <ele>496</ele>
        <time>2022-05-24 10:22:31</time>
      </trkpt>
      <trkpt lat="41.11741" lon="0.87158">
        <ele>496.2</ele>
        <time>2022-05-24 10:22:32</time>
      </trkpt>
      <trkpt lat="41.11742" lon="0.87155">
        <ele>496.2</ele>
        <time>2022-05-24 10:22:33</time>
      </trkpt>
      <trkpt lat="41.11743" lon="0.87152">
        <ele>496.4</ele>
        <time>2022-05-24 10:22:34</time>
      </trkpt>
      <trkpt lat="41.11744" lon="0.87149">
        <ele>496.4</ele>
        <time>2022-05-24 10:22:35</time>
      </trkpt>
      <trkpt lat="41.11745" lon="0.87146">
        <ele>496.4</ele>
        <time>2022-05-24 10:22:36</time>
      </trkpt>
      <trkpt lat="41.11747" lon="0.87143">
        <ele>496.6</ele>
        <time>2022-05-24 10:22:37</time>
      </trkpt>
      <trkpt lat="41.11748" lon="0.87139">
        <ele>496.6</ele>
        <time>2022-05-24 10:22:38</time>
      </trkpt>
      <trkpt lat="41.1175" lon="0.87135">
        <ele>496.6</ele>
        <time>2022-05-24 10:22:39</time>
      </trkpt>
      <trkpt lat="41.11751" lon="0.87131">
        <ele>496.6</ele>
        <time>2022-05-24 10:22:40</time>
      </trkpt>
      <trkpt lat="41.11753" lon="0.87129">
        <ele>496.6</ele>
        <time>2022-05-24 10:22:41</time>
      </trkpt>
      <trkpt lat="41.11755" lon="0.87124">
        <ele>496.6</ele>
        <time>2022-05-24 10:22:42</time>
      </trkpt>
      <trkpt lat="41.11757" lon="0.87121">
        <ele>496.6</ele>
        <time>2022-05-24 10:22:43</time>
      </trkpt>
      <trkpt lat="41.11758" lon="0.87118">
        <ele>496.6</ele>
        <time>2022-05-24 10:22:44</time>
      </trkpt>
      <trkpt lat="41.1176" lon="0.87114">
        <ele>496.6</ele>
        <time>2022-05-24 10:22:45</time>
      </trkpt>
      <trkpt lat="41.11762" lon="0.87111">
        <ele>496.8</ele>
        <time>2022-05-24 10:22:46</time>
      </trkpt>
      <trkpt lat="41.11763" lon="0.87108">
        <ele>496.8</ele>
        <time>2022-05-24 10:22:47</time>
      </trkpt>
      <trkpt lat="41.11766" lon="0.87104">
        <ele>496.8</ele>
        <time>2022-05-24 10:22:48</time>
      </trkpt>
      <trkpt lat="41.11768" lon="0.871">
        <ele>496.8</ele>
        <time>2022-05-24 10:22:49</time>
      </trkpt>
      <trkpt lat="41.11769" lon="0.87097">
        <ele>496.8</ele>
        <time>2022-05-24 10:22:50</time>
      </trkpt>
      <trkpt lat="41.11771" lon="0.87094">
        <ele>496.8</ele>
        <time>2022-05-24 10:22:51</time>
      </trkpt>
      <trkpt lat="41.11773" lon="0.8709">
        <ele>496.8</ele>
        <time>2022-05-24 10:22:52</time>
      </trkpt>
      <trkpt lat="41.11775" lon="0.87087">
        <ele>497</ele>
        <time>2022-05-24 10:22:53</time>
      </trkpt>
      <trkpt lat="41.11776" lon="0.87084">
        <ele>497</ele>
        <time>2022-05-24 10:22:54</time>
      </trkpt>
      <trkpt lat="41.11777" lon="0.87081">
        <ele>497.2</ele>
        <time>2022-05-24 10:22:55</time>
      </trkpt>
      <trkpt lat="41.11779" lon="0.87078">
        <ele>497.2</ele>
        <time>2022-05-24 10:22:56</time>
      </trkpt>
      <trkpt lat="41.11779" lon="0.87074">
        <ele>497.4</ele>
        <time>2022-05-24 10:22:57</time>
      </trkpt>
      <trkpt lat="41.1178" lon="0.87071">
        <ele>497.4</ele>
        <time>2022-05-24 10:22:58</time>
      </trkpt>
      <trkpt lat="41.11781" lon="0.87067">
        <ele>497.6</ele>
        <time>2022-05-24 10:22:59</time>
      </trkpt>
      <trkpt lat="41.11781" lon="0.87063">
        <ele>497.8</ele>
        <time>2022-05-24 10:23:00</time>
      </trkpt>
      <trkpt lat="41.11781" lon="0.8706">
        <ele>497.8</ele>
        <time>2022-05-24 10:23:01</time>
      </trkpt>
      <trkpt lat="41.1178" lon="0.87056">
        <ele>498</ele>
        <time>2022-05-24 10:23:02</time>
      </trkpt>
      <trkpt lat="41.1178" lon="0.87052">
        <ele>498</ele>
        <time>2022-05-24 10:23:03</time>
      </trkpt>
      <trkpt lat="41.1178" lon="0.87048">
        <ele>498.2</ele>
        <time>2022-05-24 10:23:04</time>
      </trkpt>
      <trkpt lat="41.1178" lon="0.87045">
        <ele>498.2</ele>
        <time>2022-05-24 10:23:05</time>
      </trkpt>
      <trkpt lat="41.1178" lon="0.87041">
        <ele>498.2</ele>
        <time>2022-05-24 10:23:06</time>
      </trkpt>
      <trkpt lat="41.1178" lon="0.87037">
        <ele>498.4</ele>
        <time>2022-05-24 10:23:07</time>
      </trkpt>
      <trkpt lat="41.11779" lon="0.87034">
        <ele>498.4</ele>
        <time>2022-05-24 10:23:08</time>
      </trkpt>
      <trkpt lat="41.11778" lon="0.8703">
        <ele>498.6</ele>
        <time>2022-05-24 10:23:09</time>
      </trkpt>
      <trkpt lat="41.11777" lon="0.87027">
        <ele>498.6</ele>
        <time>2022-05-24 10:23:10</time>
      </trkpt>
      <trkpt lat="41.11776" lon="0.87024">
        <ele>498.8</ele>
        <time>2022-05-24 10:23:11</time>
      </trkpt>
      <trkpt lat="41.11776" lon="0.8702">
        <ele>498.8</ele>
        <time>2022-05-24 10:23:12</time>
      </trkpt>
      <trkpt lat="41.11775" lon="0.87016">
        <ele>499</ele>
        <time>2022-05-24 10:23:13</time>
      </trkpt>
      <trkpt lat="41.11774" lon="0.87013">
        <ele>499.2</ele>
        <time>2022-05-24 10:23:14</time>
      </trkpt>
      <trkpt lat="41.11773" lon="0.87009">
        <ele>499.2</ele>
        <time>2022-05-24 10:23:15</time>
      </trkpt>
      <trkpt lat="41.11773" lon="0.87006">
        <ele>499.4</ele>
        <time>2022-05-24 10:23:16</time>
      </trkpt>
      <trkpt lat="41.11773" lon="0.87002">
        <ele>499.4</ele>
        <time>2022-05-24 10:23:17</time>
      </trkpt>
      <trkpt lat="41.11772" lon="0.86999">
        <ele>499.6</ele>
        <time>2022-05-24 10:23:18</time>
      </trkpt>
      <trkpt lat="41.11772" lon="0.86995">
        <ele>499.8</ele>
        <time>2022-05-24 10:23:19</time>
      </trkpt>
      <trkpt lat="41.11772" lon="0.86992">
        <ele>499.8</ele>
        <time>2022-05-24 10:23:20</time>
      </trkpt>
      <trkpt lat="41.11772" lon="0.86988">
        <ele>500</ele>
        <time>2022-05-24 10:23:21</time>
      </trkpt>
      <trkpt lat="41.11772" lon="0.86984">
        <ele>500</ele>
        <time>2022-05-24 10:23:22</time>
      </trkpt>
      <trkpt lat="41.11772" lon="0.8698">
        <ele>500.2</ele>
        <time>2022-05-24 10:23:23</time>
      </trkpt>
      <trkpt lat="41.11772" lon="0.86976">
        <ele>500.4</ele>
        <time>2022-05-24 10:23:24</time>
      </trkpt>
      <trkpt lat="41.11773" lon="0.86972">
        <ele>500.4</ele>
        <time>2022-05-24 10:23:25</time>
      </trkpt>
      <trkpt lat="41.11774" lon="0.86968">
        <ele>500.6</ele>
        <time>2022-05-24 10:23:26</time>
      </trkpt>
      <trkpt lat="41.11776" lon="0.86964">
        <ele>500.6</ele>
        <time>2022-05-24 10:23:27</time>
      </trkpt>
      <trkpt lat="41.11777" lon="0.8696">
        <ele>500.6</ele>
        <time>2022-05-24 10:23:28</time>
      </trkpt>
      <trkpt lat="41.11778" lon="0.86956">
        <ele>500.8</ele>
        <time>2022-05-24 10:23:29</time>
      </trkpt>
      <trkpt lat="41.11779" lon="0.86952">
        <ele>501</ele>
        <time>2022-05-24 10:23:30</time>
      </trkpt>
      <trkpt lat="41.1178" lon="0.86948">
        <ele>501</ele>
        <time>2022-05-24 10:23:31</time>
      </trkpt>
      <trkpt lat="41.11781" lon="0.86944">
        <ele>501</ele>
        <time>2022-05-24 10:23:32</time>
      </trkpt>
      <trkpt lat="41.11781" lon="0.8694">
        <ele>501</ele>
        <time>2022-05-24 10:23:33</time>
      </trkpt>
      <trkpt lat="41.11782" lon="0.86936">
        <ele>501.2</ele>
        <time>2022-05-24 10:23:34</time>
      </trkpt>
      <trkpt lat="41.11783" lon="0.86932">
        <ele>501.2</ele>
        <time>2022-05-24 10:23:35</time>
      </trkpt>
      <trkpt lat="41.11784" lon="0.86928">
        <ele>501.2</ele>
        <time>2022-05-24 10:23:36</time>
      </trkpt>
      <trkpt lat="41.11784" lon="0.86924">
        <ele>501.4</ele>
        <time>2022-05-24 10:23:37</time>
      </trkpt>
      <trkpt lat="41.11785" lon="0.8692">
        <ele>501.4</ele>
        <time>2022-05-24 10:23:38</time>
      </trkpt>
      <trkpt lat="41.11785" lon="0.86916">
        <ele>501.4</ele>
        <time>2022-05-24 10:23:39</time>
      </trkpt>
      <trkpt lat="41.11786" lon="0.86912">
        <ele>501.4</ele>
        <time>2022-05-24 10:23:40</time>
      </trkpt>
      <trkpt lat="41.11786" lon="0.86907">
        <ele>501.4</ele>
        <time>2022-05-24 10:23:41</time>
      </trkpt>
      <trkpt lat="41.11787" lon="0.86903">
        <ele>501.4</ele>
        <time>2022-05-24 10:23:42</time>
      </trkpt>
      <trkpt lat="41.11787" lon="0.86898">
        <ele>501.4</ele>
        <time>2022-05-24 10:23:43</time>
      </trkpt>
      <trkpt lat="41.11788" lon="0.86894">
        <ele>501.4</ele>
        <time>2022-05-24 10:23:44</time>
      </trkpt>
      <trkpt lat="41.11789" lon="0.8689">
        <ele>501.6</ele>
        <time>2022-05-24 10:23:45</time>
      </trkpt>
      <trkpt lat="41.11789" lon="0.86886">
        <ele>501.6</ele>
        <time>2022-05-24 10:23:46</time>
      </trkpt>
      <trkpt lat="41.11789" lon="0.86881">
        <ele>501.6</ele>
        <time>2022-05-24 10:23:47</time>
      </trkpt>
      <trkpt lat="41.1179" lon="0.86877">
        <ele>501.8</ele>
        <time>2022-05-24 10:23:48</time>
      </trkpt>
      <trkpt lat="41.1179" lon="0.86874">
        <ele>501.8</ele>
        <time>2022-05-24 10:23:49</time>
      </trkpt>
      <trkpt lat="41.11791" lon="0.8687">
        <ele>502</ele>
        <time>2022-05-24 10:23:50</time>
      </trkpt>
      <trkpt lat="41.11791" lon="0.86866">
        <ele>502.2</ele>
        <time>2022-05-24 10:23:51</time>
      </trkpt>
      <trkpt lat="41.11791" lon="0.86862">
        <ele>502.2</ele>
        <time>2022-05-24 10:23:52</time>
      </trkpt>
      <trkpt lat="41.11791" lon="0.86858">
        <ele>502.4</ele>
        <time>2022-05-24 10:23:53</time>
      </trkpt>
      <trkpt lat="41.1179" lon="0.86855">
        <ele>502.6</ele>
        <time>2022-05-24 10:23:54</time>
      </trkpt>
      <trkpt lat="41.1179" lon="0.86851">
        <ele>502.8</ele>
        <time>2022-05-24 10:23:55</time>
      </trkpt>
      <trkpt lat="41.11788" lon="0.86848">
        <ele>502.8</ele>
        <time>2022-05-24 10:23:56</time>
      </trkpt>
      <trkpt lat="41.11786" lon="0.86845">
        <ele>503</ele>
        <time>2022-05-24 10:23:57</time>
      </trkpt>
      <trkpt lat="41.11785" lon="0.86842">
        <ele>503.2</ele>
        <time>2022-05-24 10:23:58</time>
      </trkpt>
      <trkpt lat="41.11783" lon="0.86839">
        <ele>503.4</ele>
        <time>2022-05-24 10:23:59</time>
      </trkpt>
      <trkpt lat="41.1178" lon="0.86837">
        <ele>503.6</ele>
        <time>2022-05-24 10:24:00</time>
      </trkpt>
      <trkpt lat="41.11779" lon="0.86835">
        <ele>503.6</ele>
        <time>2022-05-24 10:24:01</time>
      </trkpt>
      <trkpt lat="41.11776" lon="0.86835">
        <ele>503.8</ele>
        <time>2022-05-24 10:24:02</time>
      </trkpt>
      <trkpt lat="41.11774" lon="0.86833">
        <ele>504</ele>
        <time>2022-05-24 10:24:03</time>
      </trkpt>
      <trkpt lat="41.11772" lon="0.86833">
        <ele>504.2</ele>
        <time>2022-05-24 10:24:04</time>
      </trkpt>
      <trkpt lat="41.11769" lon="0.86833">
        <ele>504.2</ele>
        <time>2022-05-24 10:24:05</time>
      </trkpt>
      <trkpt lat="41.11767" lon="0.86834">
        <ele>504.4</ele>
        <time>2022-05-24 10:24:06</time>
      </trkpt>
      <trkpt lat="41.11764" lon="0.86835">
        <ele>504.6</ele>
        <time>2022-05-24 10:24:07</time>
      </trkpt>
      <trkpt lat="41.11762" lon="0.86837">
        <ele>504.8</ele>
        <time>2022-05-24 10:24:08</time>
      </trkpt>
      <trkpt lat="41.11759" lon="0.86838">
        <ele>505</ele>
        <time>2022-05-24 10:24:09</time>
      </trkpt>
      <trkpt lat="41.11756" lon="0.8684">
        <ele>505.2</ele>
        <time>2022-05-24 10:24:10</time>
      </trkpt>
      <trkpt lat="41.11754" lon="0.86842">
        <ele>505.6</ele>
        <time>2022-05-24 10:24:11</time>
      </trkpt>
      <trkpt lat="41.11752" lon="0.86844">
        <ele>505.8</ele>
        <time>2022-05-24 10:24:12</time>
      </trkpt>
      <trkpt lat="41.11752" lon="0.86847">
        <ele>506</ele>
        <time>2022-05-24 10:24:13</time>
      </trkpt>
      <trkpt lat="41.11751" lon="0.8685">
        <ele>506.2</ele>
        <time>2022-05-24 10:24:14</time>
      </trkpt>
      <trkpt lat="41.1175" lon="0.86854">
        <ele>506.6</ele>
        <time>2022-05-24 10:24:15</time>
      </trkpt>
      <trkpt lat="41.1175" lon="0.86857">
        <ele>506.8</ele>
        <time>2022-05-24 10:24:16</time>
      </trkpt>
      <trkpt lat="41.11751" lon="0.8686">
        <ele>507</ele>
        <time>2022-05-24 10:24:17</time>
      </trkpt>
      <trkpt lat="41.11751" lon="0.86863">
        <ele>507.2</ele>
        <time>2022-05-24 10:24:18</time>
      </trkpt>
      <trkpt lat="41.11752" lon="0.86867">
        <ele>507.4</ele>
        <time>2022-05-24 10:24:19</time>
      </trkpt>
      <trkpt lat="41.11753" lon="0.8687">
        <ele>507.6</ele>
        <time>2022-05-24 10:24:20</time>
      </trkpt>
      <trkpt lat="41.11754" lon="0.86874">
        <ele>507.8</ele>
        <time>2022-05-24 10:24:21</time>
      </trkpt>
      <trkpt lat="41.11755" lon="0.86877">
        <ele>508</ele>
        <time>2022-05-24 10:24:22</time>
      </trkpt>
      <trkpt lat="41.11757" lon="0.86881">
        <ele>508</ele>
        <time>2022-05-24 10:24:23</time>
      </trkpt>
      <trkpt lat="41.11758" lon="0.86884">
        <ele>508.2</ele>
        <time>2022-05-24 10:24:24</time>
      </trkpt>
      <trkpt lat="41.11759" lon="0.86887">
        <ele>508.4</ele>
        <time>2022-05-24 10:24:25</time>
      </trkpt>
      <trkpt lat="41.1176" lon="0.8689">
        <ele>508.6</ele>
        <time>2022-05-24 10:24:26</time>
      </trkpt>
      <trkpt lat="41.11761" lon="0.86893">
        <ele>508.6</ele>
        <time>2022-05-24 10:24:27</time>
      </trkpt>
      <trkpt lat="41.11761" lon="0.86896">
        <ele>508.8</ele>
        <time>2022-05-24 10:24:28</time>
      </trkpt>
      <trkpt lat="41.11761" lon="0.86899">
        <ele>509</ele>
        <time>2022-05-24 10:24:29</time>
      </trkpt>
      <trkpt lat="41.11761" lon="0.86903">
        <ele>509</ele>
        <time>2022-05-24 10:24:30</time>
      </trkpt>
      <trkpt lat="41.11761" lon="0.86906">
        <ele>509.2</ele>
        <time>2022-05-24 10:24:31</time>
      </trkpt>
      <trkpt lat="41.11761" lon="0.86909">
        <ele>509.2</ele>
        <time>2022-05-24 10:24:32</time>
      </trkpt>
      <trkpt lat="41.11761" lon="0.86912">
        <ele>509.4</ele>
        <time>2022-05-24 10:24:33</time>
      </trkpt>
      <trkpt lat="41.11761" lon="0.86915">
        <ele>509.6</ele>
        <time>2022-05-24 10:24:34</time>
      </trkpt>
      <trkpt lat="41.1176" lon="0.86918">
        <ele>509.6</ele>
        <time>2022-05-24 10:24:35</time>
      </trkpt>
      <trkpt lat="41.11759" lon="0.8692">
        <ele>509.8</ele>
        <time>2022-05-24 10:24:36</time>
      </trkpt>
      <trkpt lat="41.11758" lon="0.86923">
        <ele>510</ele>
        <time>2022-05-24 10:24:37</time>
      </trkpt>
      <trkpt lat="41.11758" lon="0.86925">
        <ele>510.2</ele>
        <time>2022-05-24 10:24:38</time>
      </trkpt>
      <trkpt lat="41.11757" lon="0.86927">
        <ele>510.4</ele>
        <time>2022-05-24 10:24:39</time>
      </trkpt>
      <trkpt lat="41.11756" lon="0.8693">
        <ele>510.6</ele>
        <time>2022-05-24 10:24:40</time>
      </trkpt>
      <trkpt lat="41.11755" lon="0.86932">
        <ele>510.6</ele>
        <time>2022-05-24 10:24:41</time>
      </trkpt>
      <trkpt lat="41.11754" lon="0.86934">
        <ele>510.8</ele>
        <time>2022-05-24 10:24:42</time>
      </trkpt>
      <trkpt lat="41.11754" lon="0.86936">
        <ele>511</ele>
        <time>2022-05-24 10:24:43</time>
      </trkpt>
      <trkpt lat="41.11753" lon="0.86938">
        <ele>511.2</ele>
        <time>2022-05-24 10:24:44</time>
      </trkpt>
      <trkpt lat="41.11752" lon="0.86941">
        <ele>511.2</ele>
        <time>2022-05-24 10:24:45</time>
      </trkpt>
      <trkpt lat="41.11752" lon="0.86943">
        <ele>511.4</ele>
        <time>2022-05-24 10:24:46</time>
      </trkpt>
      <trkpt lat="41.11751" lon="0.86945">
        <ele>511.6</ele>
        <time>2022-05-24 10:24:47</time>
      </trkpt>
      <trkpt lat="41.1175" lon="0.86948">
        <ele>511.8</ele>
        <time>2022-05-24 10:24:48</time>
      </trkpt>
      <trkpt lat="41.11749" lon="0.8695">
        <ele>511.8</ele>
        <time>2022-05-24 10:24:49</time>
      </trkpt>
      <trkpt lat="41.11748" lon="0.86953">
        <ele>512</ele>
        <time>2022-05-24 10:24:50</time>
      </trkpt>
      <trkpt lat="41.11747" lon="0.86955">
        <ele>512.2</ele>
        <time>2022-05-24 10:24:51</time>
      </trkpt>
      <trkpt lat="41.11746" lon="0.86958">
        <ele>512.4</ele>
        <time>2022-05-24 10:24:52</time>
      </trkpt>
      <trkpt lat="41.11745" lon="0.8696">
        <ele>512.6</ele>
        <time>2022-05-24 10:24:53</time>
      </trkpt>
      <trkpt lat="41.11745" lon="0.86962">
        <ele>512.6</ele>
        <time>2022-05-24 10:24:54</time>
      </trkpt>
      <trkpt lat="41.11745" lon="0.86965">
        <ele>512.8</ele>
        <time>2022-05-24 10:24:55</time>
      </trkpt>
      <trkpt lat="41.11744" lon="0.86967">
        <ele>513</ele>
        <time>2022-05-24 10:24:56</time>
      </trkpt>
      <trkpt lat="41.11744" lon="0.8697">
        <ele>513</ele>
        <time>2022-05-24 10:24:57</time>
      </trkpt>
      <trkpt lat="41.11743" lon="0.86972">
        <ele>513.2</ele>
        <time>2022-05-24 10:24:58</time>
      </trkpt>
      <trkpt lat="41.11743" lon="0.86974">
        <ele>513.4</ele>
        <time>2022-05-24 10:24:59</time>
      </trkpt>
      <trkpt lat="41.11742" lon="0.86977">
        <ele>513.4</ele>
        <time>2022-05-24 10:25:00</time>
      </trkpt>
      <trkpt lat="41.11742" lon="0.86979">
        <ele>513.6</ele>
        <time>2022-05-24 10:25:01</time>
      </trkpt>
      <trkpt lat="41.11741" lon="0.86982">
        <ele>513.8</ele>
        <time>2022-05-24 10:25:02</time>
      </trkpt>
      <trkpt lat="41.11741" lon="0.86984">
        <ele>513.8</ele>
        <time>2022-05-24 10:25:03</time>
      </trkpt>
      <trkpt lat="41.11741" lon="0.86986">
        <ele>514</ele>
        <time>2022-05-24 10:25:04</time>
      </trkpt>
      <trkpt lat="41.1174" lon="0.8699">
        <ele>514.2</ele>
        <time>2022-05-24 10:25:05</time>
      </trkpt>
      <trkpt lat="41.1174" lon="0.86992">
        <ele>514.2</ele>
        <time>2022-05-24 10:25:06</time>
      </trkpt>
      <trkpt lat="41.1174" lon="0.86995">
        <ele>514.4</ele>
        <time>2022-05-24 10:25:07</time>
      </trkpt>
      <trkpt lat="41.1174" lon="0.86997">
        <ele>514.6</ele>
        <time>2022-05-24 10:25:08</time>
      </trkpt>
      <trkpt lat="41.11739" lon="0.86999">
        <ele>514.6</ele>
        <time>2022-05-24 10:25:09</time>
      </trkpt>
      <trkpt lat="41.11739" lon="0.87003">
        <ele>514.8</ele>
        <time>2022-05-24 10:25:10</time>
      </trkpt>
      <trkpt lat="41.11739" lon="0.87005">
        <ele>515</ele>
        <time>2022-05-24 10:25:11</time>
      </trkpt>
      <trkpt lat="41.11738" lon="0.87008">
        <ele>515</ele>
        <time>2022-05-24 10:25:12</time>
      </trkpt>
      <trkpt lat="41.11738" lon="0.87011">
        <ele>515.2</ele>
        <time>2022-05-24 10:25:13</time>
      </trkpt>
      <trkpt lat="41.11737" lon="0.87013">
        <ele>515.4</ele>
        <time>2022-05-24 10:25:14</time>
      </trkpt>
      <trkpt lat="41.11737" lon="0.87016">
        <ele>515.6</ele>
        <time>2022-05-24 10:25:15</time>
      </trkpt>
      <trkpt lat="41.11737" lon="0.87018">
        <ele>515.6</ele>
        <time>2022-05-24 10:25:16</time>
      </trkpt>
      <trkpt lat="41.11737" lon="0.87021">
        <ele>515.8</ele>
        <time>2022-05-24 10:25:17</time>
      </trkpt>
      <trkpt lat="41.11737" lon="0.87024">
        <ele>516</ele>
        <time>2022-05-24 10:25:18</time>
      </trkpt>
      <trkpt lat="41.11736" lon="0.87026">
        <ele>516</ele>
        <time>2022-05-24 10:25:19</time>
      </trkpt>
      <trkpt lat="41.11736" lon="0.87029">
        <ele>516.2</ele>
        <time>2022-05-24 10:25:20</time>
      </trkpt>
      <trkpt lat="41.11736" lon="0.87031">
        <ele>516.4</ele>
        <time>2022-05-24 10:25:21</time>
      </trkpt>
      <trkpt lat="41.11736" lon="0.87034">
        <ele>516.4</ele>
        <time>2022-05-24 10:25:22</time>
      </trkpt>
      <trkpt lat="41.11735" lon="0.87037">
        <ele>516.6</ele>
        <time>2022-05-24 10:25:23</time>
      </trkpt>
      <trkpt lat="41.11735" lon="0.87039">
        <ele>516.8</ele>
        <time>2022-05-24 10:25:24</time>
      </trkpt>
      <trkpt lat="41.11734" lon="0.87041">
        <ele>516.8</ele>
        <time>2022-05-24 10:25:25</time>
      </trkpt>
      <trkpt lat="41.11733" lon="0.87043">
        <ele>517</ele>
        <time>2022-05-24 10:25:26</time>
      </trkpt>
      <trkpt lat="41.11732" lon="0.87045">
        <ele>517.2</ele>
        <time>2022-05-24 10:25:27</time>
      </trkpt>
      <trkpt lat="41.11732" lon="0.87047">
        <ele>517.2</ele>
        <time>2022-05-24 10:25:28</time>
      </trkpt>
      <trkpt lat="41.11731" lon="0.87049">
        <ele>517.4</ele>
        <time>2022-05-24 10:25:29</time>
      </trkpt>
      <trkpt lat="41.1173" lon="0.8705">
        <ele>517.6</ele>
        <time>2022-05-24 10:25:30</time>
      </trkpt>
      <trkpt lat="41.11728" lon="0.87051">
        <ele>517.6</ele>
        <time>2022-05-24 10:25:31</time>
      </trkpt>
      <trkpt lat="41.11727" lon="0.87052">
        <ele>517.8</ele>
        <time>2022-05-24 10:25:32</time>
      </trkpt>
      <trkpt lat="41.11726" lon="0.87053">
        <ele>517.8</ele>
        <time>2022-05-24 10:25:33</time>
      </trkpt>
      <trkpt lat="41.11724" lon="0.87055">
        <ele>518</ele>
        <time>2022-05-24 10:25:34</time>
      </trkpt>
      <trkpt lat="41.11723" lon="0.87056">
        <ele>518.2</ele>
        <time>2022-05-24 10:25:35</time>
      </trkpt>
      <trkpt lat="41.11722" lon="0.87057">
        <ele>518.2</ele>
        <time>2022-05-24 10:25:36</time>
      </trkpt>
      <trkpt lat="41.11721" lon="0.87058">
        <ele>518.4</ele>
        <time>2022-05-24 10:25:37</time>
      </trkpt>
      <trkpt lat="41.1172" lon="0.8706">
        <ele>518.6</ele>
        <time>2022-05-24 10:25:38</time>
      </trkpt>
      <trkpt lat="41.11719" lon="0.87061">
        <ele>518.6</ele>
        <time>2022-05-24 10:25:39</time>
      </trkpt>
      <trkpt lat="41.11718" lon="0.87063">
        <ele>518.8</ele>
        <time>2022-05-24 10:25:40</time>
      </trkpt>
      <trkpt lat="41.11716" lon="0.87065">
        <ele>518.8</ele>
        <time>2022-05-24 10:25:41</time>
      </trkpt>
      <trkpt lat="41.11715" lon="0.87067">
        <ele>519</ele>
        <time>2022-05-24 10:25:42</time>
      </trkpt>
      <trkpt lat="41.11713" lon="0.87069">
        <ele>519.2</ele>
        <time>2022-05-24 10:25:43</time>
      </trkpt>
      <trkpt lat="41.11712" lon="0.87072">
        <ele>519.2</ele>
        <time>2022-05-24 10:25:44</time>
      </trkpt>
      <trkpt lat="41.11711" lon="0.87074">
        <ele>519.4</ele>
        <time>2022-05-24 10:25:45</time>
      </trkpt>
      <trkpt lat="41.1171" lon="0.87076">
        <ele>519.4</ele>
        <time>2022-05-24 10:25:46</time>
      </trkpt>
      <trkpt lat="41.11709" lon="0.87078">
        <ele>519.6</ele>
        <time>2022-05-24 10:25:47</time>
      </trkpt>
      <trkpt lat="41.11708" lon="0.8708">
        <ele>519.8</ele>
        <time>2022-05-24 10:25:48</time>
      </trkpt>
      <trkpt lat="41.11707" lon="0.87082">
        <ele>520</ele>
        <time>2022-05-24 10:25:49</time>
      </trkpt>
      <trkpt lat="41.11705" lon="0.87085">
        <ele>520</ele>
        <time>2022-05-24 10:25:50</time>
      </trkpt>
      <trkpt lat="41.11705" lon="0.87087">
        <ele>520.2</ele>
        <time>2022-05-24 10:25:51</time>
      </trkpt>
      <trkpt lat="41.11703" lon="0.87089">
        <ele>520.4</ele>
        <time>2022-05-24 10:25:52</time>
      </trkpt>
      <trkpt lat="41.11702" lon="0.87091">
        <ele>520.4</ele>
        <time>2022-05-24 10:25:53</time>
      </trkpt>
      <trkpt lat="41.117" lon="0.87093">
        <ele>520.6</ele>
        <time>2022-05-24 10:25:54</time>
      </trkpt>
      <trkpt lat="41.11698" lon="0.87095">
        <ele>520.8</ele>
        <time>2022-05-24 10:25:55</time>
      </trkpt>
      <trkpt lat="41.11696" lon="0.87097">
        <ele>520.8</ele>
        <time>2022-05-24 10:25:56</time>
      </trkpt>
      <trkpt lat="41.11694" lon="0.871">
        <ele>521</ele>
        <time>2022-05-24 10:25:57</time>
      </trkpt>
      <trkpt lat="41.11692" lon="0.87102">
        <ele>521.2</ele>
        <time>2022-05-24 10:25:58</time>
      </trkpt>
      <trkpt lat="41.1169" lon="0.87104">
        <ele>521.2</ele>
        <time>2022-05-24 10:25:59</time>
      </trkpt>
      <trkpt lat="41.11688" lon="0.87106">
        <ele>521.4</ele>
        <time>2022-05-24 10:26:00</time>
      </trkpt>
      <trkpt lat="41.11686" lon="0.87109">
        <ele>521.4</ele>
        <time>2022-05-24 10:26:01</time>
      </trkpt>
      <trkpt lat="41.11684" lon="0.8711">
        <ele>521.6</ele>
        <time>2022-05-24 10:26:02</time>
      </trkpt>
      <trkpt lat="41.11683" lon="0.87111">
        <ele>521.6</ele>
        <time>2022-05-24 10:26:03</time>
      </trkpt>
      <trkpt lat="41.11681" lon="0.87112">
        <ele>521.8</ele>
        <time>2022-05-24 10:26:04</time>
      </trkpt>
      <trkpt lat="41.11679" lon="0.87114">
        <ele>522</ele>
        <time>2022-05-24 10:26:05</time>
      </trkpt>
      <trkpt lat="41.11678" lon="0.87115">
        <ele>522</ele>
        <time>2022-05-24 10:26:06</time>
      </trkpt>
      <trkpt lat="41.11676" lon="0.87117">
        <ele>522.2</ele>
        <time>2022-05-24 10:26:07</time>
      </trkpt>
      <trkpt lat="41.11674" lon="0.87118">
        <ele>522.2</ele>
        <time>2022-05-24 10:26:08</time>
      </trkpt>
      <trkpt lat="41.11673" lon="0.87119">
        <ele>522.4</ele>
        <time>2022-05-24 10:26:09</time>
      </trkpt>
      <trkpt lat="41.11671" lon="0.87121">
        <ele>522.6</ele>
        <time>2022-05-24 10:26:10</time>
      </trkpt>
      <trkpt lat="41.1167" lon="0.87123">
        <ele>522.6</ele>
        <time>2022-05-24 10:26:11</time>
      </trkpt>
      <trkpt lat="41.11668" lon="0.87124">
        <ele>522.8</ele>
        <time>2022-05-24 10:26:12</time>
      </trkpt>
      <trkpt lat="41.11667" lon="0.87126">
        <ele>522.8</ele>
        <time>2022-05-24 10:26:13</time>
      </trkpt>
      <trkpt lat="41.11666" lon="0.87127">
        <ele>523</ele>
        <time>2022-05-24 10:26:14</time>
      </trkpt>
      <trkpt lat="41.11664" lon="0.87129">
        <ele>523</ele>
        <time>2022-05-24 10:26:15</time>
      </trkpt>
      <trkpt lat="41.11662" lon="0.87131">
        <ele>523.2</ele>
        <time>2022-05-24 10:26:16</time>
      </trkpt>
      <trkpt lat="41.1166" lon="0.87132">
        <ele>523.4</ele>
        <time>2022-05-24 10:26:17</time>
      </trkpt>
      <trkpt lat="41.11659" lon="0.87134">
        <ele>523.4</ele>
        <time>2022-05-24 10:26:18</time>
      </trkpt>
      <trkpt lat="41.11659" lon="0.87135">
        <ele>523.6</ele>
        <time>2022-05-24 10:26:19</time>
      </trkpt>
      <trkpt lat="41.11657" lon="0.87137">
        <ele>523.6</ele>
        <time>2022-05-24 10:26:20</time>
      </trkpt>
      <trkpt lat="41.11656" lon="0.87138">
        <ele>523.8</ele>
        <time>2022-05-24 10:26:21</time>
      </trkpt>
      <trkpt lat="41.11655" lon="0.8714">
        <ele>523.8</ele>
        <time>2022-05-24 10:26:22</time>
      </trkpt>
      <trkpt lat="41.11653" lon="0.87141">
        <ele>524</ele>
        <time>2022-05-24 10:26:23</time>
      </trkpt>
      <trkpt lat="41.11652" lon="0.87143">
        <ele>524</ele>
        <time>2022-05-24 10:26:24</time>
      </trkpt>
      <trkpt lat="41.1165" lon="0.87144">
        <ele>524.2</ele>
        <time>2022-05-24 10:26:25</time>
      </trkpt>
      <trkpt lat="41.11649" lon="0.87146">
        <ele>524.2</ele>
        <time>2022-05-24 10:26:26</time>
      </trkpt>
      <trkpt lat="41.11647" lon="0.87148">
        <ele>524.4</ele>
        <time>2022-05-24 10:26:27</time>
      </trkpt>
      <trkpt lat="41.11646" lon="0.8715">
        <ele>524.4</ele>
        <time>2022-05-24 10:26:28</time>
      </trkpt>
      <trkpt lat="41.11643" lon="0.87155">
        <ele>524.6</ele>
        <time>2022-05-24 10:26:29</time>
      </trkpt>
      <trkpt lat="41.1164" lon="0.8716">
        <ele>524.6</ele>
        <time>2022-05-24 10:26:30</time>
      </trkpt>
      <trkpt lat="41.11637" lon="0.87165">
        <ele>524.6</ele>
        <time>2022-05-24 10:26:31</time>
      </trkpt>
      <trkpt lat="41.1164" lon="0.87172">
        <ele>525</ele>
        <time>2022-05-24 10:26:32</time>
      </trkpt>
      <trkpt lat="41.1164" lon="0.87173">
        <ele>525</ele>
        <time>2022-05-24 10:29:24</time>
      </trkpt>
      <trkpt lat="41.1164" lon="0.87175">
        <ele>525</ele>
        <time>2022-05-24 10:29:25</time>
      </trkpt>
      <trkpt lat="41.1164" lon="0.87178">
        <ele>525</ele>
        <time>2022-05-24 10:29:26</time>
      </trkpt>
      <trkpt lat="41.1164" lon="0.8718">
        <ele>525</ele>
        <time>2022-05-24 10:29:27</time>
      </trkpt>
      <trkpt lat="41.1164" lon="0.87183">
        <ele>525.2</ele>
        <time>2022-05-24 10:29:28</time>
      </trkpt>
      <trkpt lat="41.1164" lon="0.87184">
        <ele>525.2</ele>
        <time>2022-05-24 10:29:29</time>
      </trkpt>
      <trkpt lat="41.1164" lon="0.87185">
        <ele>525.4</ele>
        <time>2022-05-24 10:29:30</time>
      </trkpt>
      <trkpt lat="41.1164" lon="0.87187">
        <ele>525.4</ele>
        <time>2022-05-24 10:29:31</time>
      </trkpt>
      <trkpt lat="41.11639" lon="0.87192">
        <ele>525.6</ele>
        <time>2022-05-24 10:29:32</time>
      </trkpt>
      <trkpt lat="41.11639" lon="0.87195">
        <ele>525.6</ele>
        <time>2022-05-24 10:29:33</time>
      </trkpt>
      <trkpt lat="41.11639" lon="0.87197">
        <ele>525.8</ele>
        <time>2022-05-24 10:29:34</time>
      </trkpt>
      <trkpt lat="41.1164" lon="0.87199">
        <ele>525.8</ele>
        <time>2022-05-24 10:29:35</time>
      </trkpt>
      <trkpt lat="41.1164" lon="0.87201">
        <ele>525.8</ele>
        <time>2022-05-24 10:29:36</time>
      </trkpt>
      <trkpt lat="41.11641" lon="0.87206">
        <ele>526</ele>
        <time>2022-05-24 10:29:37</time>
      </trkpt>
      <trkpt lat="41.11641" lon="0.87211">
        <ele>526.2</ele>
        <time>2022-05-24 10:29:38</time>
      </trkpt>
      <trkpt lat="41.11643" lon="0.87214">
        <ele>526.2</ele>
        <time>2022-05-24 10:29:39</time>
      </trkpt>
      <trkpt lat="41.11644" lon="0.87216">
        <ele>526.4</ele>
        <time>2022-05-24 10:29:40</time>
      </trkpt>
      <trkpt lat="41.11647" lon="0.87219">
        <ele>526.4</ele>
        <time>2022-05-24 10:29:41</time>
      </trkpt>
      <trkpt lat="41.11649" lon="0.87221">
        <ele>526.4</ele>
        <time>2022-05-24 10:29:42</time>
      </trkpt>
      <trkpt lat="41.11651" lon="0.87223">
        <ele>526.6</ele>
        <time>2022-05-24 10:29:43</time>
      </trkpt>
      <trkpt lat="41.11652" lon="0.87225">
        <ele>526.6</ele>
        <time>2022-05-24 10:29:44</time>
      </trkpt>
      <trkpt lat="41.11654" lon="0.87227">
        <ele>526.6</ele>
        <time>2022-05-24 10:29:45</time>
      </trkpt>
      <trkpt lat="41.11656" lon="0.87228">
        <ele>526.8</ele>
        <time>2022-05-24 10:29:46</time>
      </trkpt>
      <trkpt lat="41.11658" lon="0.87229">
        <ele>526.8</ele>
        <time>2022-05-24 10:29:47</time>
      </trkpt>
      <trkpt lat="41.1166" lon="0.8723">
        <ele>527</ele>
        <time>2022-05-24 10:29:48</time>
      </trkpt>
      <trkpt lat="41.11661" lon="0.87231">
        <ele>527</ele>
        <time>2022-05-24 10:29:49</time>
      </trkpt>
      <trkpt lat="41.11663" lon="0.87232">
        <ele>527.2</ele>
        <time>2022-05-24 10:29:50</time>
      </trkpt>
      <trkpt lat="41.11664" lon="0.87233">
        <ele>527.2</ele>
        <time>2022-05-24 10:29:51</time>
      </trkpt>
      <trkpt lat="41.11665" lon="0.87235">
        <ele>527.4</ele>
        <time>2022-05-24 10:29:52</time>
      </trkpt>
      <trkpt lat="41.11667" lon="0.87236">
        <ele>527.4</ele>
        <time>2022-05-24 10:29:53</time>
      </trkpt>
      <trkpt lat="41.11669" lon="0.87238">
        <ele>527.6</ele>
        <time>2022-05-24 10:29:54</time>
      </trkpt>
      <trkpt lat="41.1167" lon="0.87239">
        <ele>527.6</ele>
        <time>2022-05-24 10:29:55</time>
      </trkpt>
      <trkpt lat="41.11671" lon="0.87242">
        <ele>527.8</ele>
        <time>2022-05-24 10:29:56</time>
      </trkpt>
      <trkpt lat="41.11673" lon="0.87244">
        <ele>527.8</ele>
        <time>2022-05-24 10:29:57</time>
      </trkpt>
      <trkpt lat="41.11674" lon="0.87246">
        <ele>528</ele>
        <time>2022-05-24 10:29:58</time>
      </trkpt>
      <trkpt lat="41.11675" lon="0.87248">
        <ele>528.2</ele>
        <time>2022-05-24 10:29:59</time>
      </trkpt>
      <trkpt lat="41.11676" lon="0.8725">
        <ele>528.2</ele>
        <time>2022-05-24 10:30:00</time>
      </trkpt>
      <trkpt lat="41.11677" lon="0.87252">
        <ele>528.4</ele>
        <time>2022-05-24 10:30:01</time>
      </trkpt>
      <trkpt lat="41.11678" lon="0.87254">
        <ele>528.6</ele>
        <time>2022-05-24 10:30:02</time>
      </trkpt>
      <trkpt lat="41.11679" lon="0.87256">
        <ele>528.6</ele>
        <time>2022-05-24 10:30:03</time>
      </trkpt>
      <trkpt lat="41.11681" lon="0.87258">
        <ele>528.8</ele>
        <time>2022-05-24 10:30:04</time>
      </trkpt>
      <trkpt lat="41.11682" lon="0.8726">
        <ele>529</ele>
        <time>2022-05-24 10:30:05</time>
      </trkpt>
      <trkpt lat="41.11683" lon="0.87262">
        <ele>529</ele>
        <time>2022-05-24 10:30:06</time>
      </trkpt>
      <trkpt lat="41.11683" lon="0.87265">
        <ele>529.2</ele>
        <time>2022-05-24 10:30:07</time>
      </trkpt>
      <trkpt lat="41.11684" lon="0.87267">
        <ele>529.2</ele>
        <time>2022-05-24 10:30:08</time>
      </trkpt>
      <trkpt lat="41.11684" lon="0.87269">
        <ele>529.4</ele>
        <time>2022-05-24 10:30:09</time>
      </trkpt>
      <trkpt lat="41.11684" lon="0.87271">
        <ele>529.6</ele>
        <time>2022-05-24 10:30:10</time>
      </trkpt>
      <trkpt lat="41.11684" lon="0.87274">
        <ele>529.6</ele>
        <time>2022-05-24 10:30:11</time>
      </trkpt>
      <trkpt lat="41.11684" lon="0.87276">
        <ele>529.8</ele>
        <time>2022-05-24 10:30:12</time>
      </trkpt>
      <trkpt lat="41.11684" lon="0.87279">
        <ele>529.8</ele>
        <time>2022-05-24 10:30:13</time>
      </trkpt>
      <trkpt lat="41.11684" lon="0.87281">
        <ele>530</ele>
        <time>2022-05-24 10:30:14</time>
      </trkpt>
      <trkpt lat="41.11684" lon="0.87283">
        <ele>530.2</ele>
        <time>2022-05-24 10:30:15</time>
      </trkpt>
      <trkpt lat="41.11684" lon="0.87285">
        <ele>530.2</ele>
        <time>2022-05-24 10:30:16</time>
      </trkpt>
      <trkpt lat="41.11684" lon="0.87288">
        <ele>530.4</ele>
        <time>2022-05-24 10:30:17</time>
      </trkpt>
      <trkpt lat="41.11685" lon="0.8729">
        <ele>530.6</ele>
        <time>2022-05-24 10:30:18</time>
      </trkpt>
      <trkpt lat="41.11685" lon="0.87293">
        <ele>530.6</ele>
        <time>2022-05-24 10:30:19</time>
      </trkpt>
      <trkpt lat="41.11685" lon="0.87295">
        <ele>530.8</ele>
        <time>2022-05-24 10:30:20</time>
      </trkpt>
      <trkpt lat="41.11685" lon="0.87297">
        <ele>531</ele>
        <time>2022-05-24 10:30:21</time>
      </trkpt>
      <trkpt lat="41.11685" lon="0.87299">
        <ele>531</ele>
        <time>2022-05-24 10:30:22</time>
      </trkpt>
      <trkpt lat="41.11685" lon="0.87301">
        <ele>531.2</ele>
        <time>2022-05-24 10:30:23</time>
      </trkpt>
      <trkpt lat="41.11685" lon="0.87303">
        <ele>531.2</ele>
        <time>2022-05-24 10:30:24</time>
      </trkpt>
      <trkpt lat="41.11685" lon="0.87305">
        <ele>531.4</ele>
        <time>2022-05-24 10:30:25</time>
      </trkpt>
      <trkpt lat="41.11685" lon="0.87307">
        <ele>531.6</ele>
        <time>2022-05-24 10:30:26</time>
      </trkpt>
      <trkpt lat="41.11685" lon="0.87309">
        <ele>531.6</ele>
        <time>2022-05-24 10:30:27</time>
      </trkpt>
      <trkpt lat="41.11685" lon="0.87311">
        <ele>531.8</ele>
        <time>2022-05-24 10:30:28</time>
      </trkpt>
      <trkpt lat="41.11685" lon="0.87314">
        <ele>532</ele>
        <time>2022-05-24 10:30:29</time>
      </trkpt>
      <trkpt lat="41.11684" lon="0.87316">
        <ele>532</ele>
        <time>2022-05-24 10:30:30</time>
      </trkpt>
      <trkpt lat="41.11684" lon="0.87318">
        <ele>532.2</ele>
        <time>2022-05-24 10:30:31</time>
      </trkpt>
      <trkpt lat="41.11684" lon="0.8732">
        <ele>532.4</ele>
        <time>2022-05-24 10:30:32</time>
      </trkpt>
      <trkpt lat="41.11683" lon="0.87323">
        <ele>532.4</ele>
        <time>2022-05-24 10:30:33</time>
      </trkpt>
      <trkpt lat="41.11683" lon="0.87324">
        <ele>532.6</ele>
        <time>2022-05-24 10:30:34</time>
      </trkpt>
      <trkpt lat="41.11683" lon="0.87326">
        <ele>532.8</ele>
        <time>2022-05-24 10:30:35</time>
      </trkpt>
      <trkpt lat="41.11683" lon="0.87329">
        <ele>533</ele>
        <time>2022-05-24 10:30:36</time>
      </trkpt>
      <trkpt lat="41.11683" lon="0.87331">
        <ele>533</ele>
        <time>2022-05-24 10:30:37</time>
      </trkpt>
      <trkpt lat="41.11684" lon="0.87334">
        <ele>533.2</ele>
        <time>2022-05-24 10:30:38</time>
      </trkpt>
      <trkpt lat="41.11684" lon="0.87336">
        <ele>533.4</ele>
        <time>2022-05-24 10:30:39</time>
      </trkpt>
      <trkpt lat="41.11684" lon="0.87338">
        <ele>533.6</ele>
        <time>2022-05-24 10:30:40</time>
      </trkpt>
      <trkpt lat="41.11684" lon="0.8734">
        <ele>533.6</ele>
        <time>2022-05-24 10:30:41</time>
      </trkpt>
      <trkpt lat="41.11685" lon="0.87342">
        <ele>533.8</ele>
        <time>2022-05-24 10:30:42</time>
      </trkpt>
      <trkpt lat="41.11684" lon="0.87344">
        <ele>534</ele>
        <time>2022-05-24 10:30:43</time>
      </trkpt>
      <trkpt lat="41.11684" lon="0.87346">
        <ele>534.2</ele>
        <time>2022-05-24 10:30:44</time>
      </trkpt>
      <trkpt lat="41.11685" lon="0.87348">
        <ele>534.4</ele>
        <time>2022-05-24 10:30:45</time>
      </trkpt>
      <trkpt lat="41.11685" lon="0.8735">
        <ele>534.4</ele>
        <time>2022-05-24 10:30:46</time>
      </trkpt>
      <trkpt lat="41.11685" lon="0.87353">
        <ele>534.6</ele>
        <time>2022-05-24 10:30:47</time>
      </trkpt>
      <trkpt lat="41.11686" lon="0.87355">
        <ele>534.8</ele>
        <time>2022-05-24 10:30:48</time>
      </trkpt>
      <trkpt lat="41.11686" lon="0.87358">
        <ele>534.8</ele>
        <time>2022-05-24 10:30:49</time>
      </trkpt>
      <trkpt lat="41.11687" lon="0.87361">
        <ele>535</ele>
        <time>2022-05-24 10:30:50</time>
      </trkpt>
      <trkpt lat="41.11687" lon="0.87363">
        <ele>535</ele>
        <time>2022-05-24 10:30:51</time>
      </trkpt>
      <trkpt lat="41.11688" lon="0.87366">
        <ele>535.2</ele>
        <time>2022-05-24 10:30:52</time>
      </trkpt>
      <trkpt lat="41.11689" lon="0.87368">
        <ele>535.2</ele>
        <time>2022-05-24 10:30:53</time>
      </trkpt>
      <trkpt lat="41.1169" lon="0.87371">
        <ele>535.4</ele>
        <time>2022-05-24 10:30:54</time>
      </trkpt>
      <trkpt lat="41.11691" lon="0.87374">
        <ele>535.4</ele>
        <time>2022-05-24 10:30:55</time>
      </trkpt>
      <trkpt lat="41.11692" lon="0.87376">
        <ele>535.4</ele>
        <time>2022-05-24 10:30:56</time>
      </trkpt>
      <trkpt lat="41.11695" lon="0.87379">
        <ele>535.4</ele>
        <time>2022-05-24 10:30:57</time>
      </trkpt>
      <trkpt lat="41.11697" lon="0.87381">
        <ele>535.6</ele>
        <time>2022-05-24 10:30:58</time>
      </trkpt>
      <trkpt lat="41.11699" lon="0.87384">
        <ele>535.6</ele>
        <time>2022-05-24 10:30:59</time>
      </trkpt>
      <trkpt lat="41.11701" lon="0.87386">
        <ele>535.6</ele>
        <time>2022-05-24 10:31:00</time>
      </trkpt>
      <trkpt lat="41.11703" lon="0.87388">
        <ele>535.6</ele>
        <time>2022-05-24 10:31:01</time>
      </trkpt>
      <trkpt lat="41.11707" lon="0.87391">
        <ele>535.6</ele>
        <time>2022-05-24 10:31:02</time>
      </trkpt>
      <trkpt lat="41.11708" lon="0.87393">
        <ele>535.6</ele>
        <time>2022-05-24 10:31:03</time>
      </trkpt>
      <trkpt lat="41.11711" lon="0.87395">
        <ele>535.6</ele>
        <time>2022-05-24 10:31:04</time>
      </trkpt>
      <trkpt lat="41.11713" lon="0.87398">
        <ele>535.6</ele>
        <time>2022-05-24 10:31:05</time>
      </trkpt>
      <trkpt lat="41.11715" lon="0.874">
        <ele>535.6</ele>
        <time>2022-05-24 10:31:06</time>
      </trkpt>
      <trkpt lat="41.11717" lon="0.87403">
        <ele>535.6</ele>
        <time>2022-05-24 10:31:07</time>
      </trkpt>
      <trkpt lat="41.1172" lon="0.87407">
        <ele>535.8</ele>
        <time>2022-05-24 10:31:08</time>
      </trkpt>
      <trkpt lat="41.11723" lon="0.87411">
        <ele>535.8</ele>
        <time>2022-05-24 10:31:09</time>
      </trkpt>
      <trkpt lat="41.11725" lon="0.87415">
        <ele>535.8</ele>
        <time>2022-05-24 10:31:10</time>
      </trkpt>
      <trkpt lat="41.11726" lon="0.8742">
        <ele>535.8</ele>
        <time>2022-05-24 10:31:11</time>
      </trkpt>
      <trkpt lat="41.11728" lon="0.87424">
        <ele>535.8</ele>
        <time>2022-05-24 10:31:12</time>
      </trkpt>
      <trkpt lat="41.1173" lon="0.87427">
        <ele>535.8</ele>
        <time>2022-05-24 10:31:13</time>
      </trkpt>
      <trkpt lat="41.11732" lon="0.87432">
        <ele>536</ele>
        <time>2022-05-24 10:31:14</time>
      </trkpt>
      <trkpt lat="41.11734" lon="0.87436">
        <ele>536</ele>
        <time>2022-05-24 10:31:15</time>
      </trkpt>
      <trkpt lat="41.11735" lon="0.87439">
        <ele>536</ele>
        <time>2022-05-24 10:31:16</time>
      </trkpt>
      <trkpt lat="41.11738" lon="0.87443">
        <ele>536.2</ele>
        <time>2022-05-24 10:31:17</time>
      </trkpt>
      <trkpt lat="41.1174" lon="0.87446">
        <ele>536.2</ele>
        <time>2022-05-24 10:31:18</time>
      </trkpt>
      <trkpt lat="41.11742" lon="0.87449">
        <ele>536.2</ele>
        <time>2022-05-24 10:31:19</time>
      </trkpt>
      <trkpt lat="41.11743" lon="0.87454">
        <ele>536.4</ele>
        <time>2022-05-24 10:31:20</time>
      </trkpt>
      <trkpt lat="41.11744" lon="0.87457">
        <ele>536.4</ele>
        <time>2022-05-24 10:31:21</time>
      </trkpt>
      <trkpt lat="41.11744" lon="0.8746">
        <ele>536.6</ele>
        <time>2022-05-24 10:31:22</time>
      </trkpt>
      <trkpt lat="41.11744" lon="0.87465">
        <ele>536.6</ele>
        <time>2022-05-24 10:31:23</time>
      </trkpt>
      <trkpt lat="41.11744" lon="0.87468">
        <ele>536.8</ele>
        <time>2022-05-24 10:31:24</time>
      </trkpt>
      <trkpt lat="41.11744" lon="0.87472">
        <ele>536.8</ele>
        <time>2022-05-24 10:31:25</time>
      </trkpt>
      <trkpt lat="41.11743" lon="0.87475">
        <ele>537</ele>
        <time>2022-05-24 10:31:26</time>
      </trkpt>
      <trkpt lat="41.11743" lon="0.87479">
        <ele>537.2</ele>
        <time>2022-05-24 10:31:27</time>
      </trkpt>
      <trkpt lat="41.11742" lon="0.87482">
        <ele>537.2</ele>
        <time>2022-05-24 10:31:28</time>
      </trkpt>
      <trkpt lat="41.11741" lon="0.87485">
        <ele>537.4</ele>
        <time>2022-05-24 10:31:29</time>
      </trkpt>
      <trkpt lat="41.11741" lon="0.87488">
        <ele>537.4</ele>
        <time>2022-05-24 10:31:30</time>
      </trkpt>
      <trkpt lat="41.11739" lon="0.87492">
        <ele>537.6</ele>
        <time>2022-05-24 10:31:31</time>
      </trkpt>
      <trkpt lat="41.11737" lon="0.87495">
        <ele>537.8</ele>
        <time>2022-05-24 10:31:32</time>
      </trkpt>
      <trkpt lat="41.11736" lon="0.87498">
        <ele>537.8</ele>
        <time>2022-05-24 10:31:33</time>
      </trkpt>
      <trkpt lat="41.11734" lon="0.87501">
        <ele>538</ele>
        <time>2022-05-24 10:31:34</time>
      </trkpt>
      <trkpt lat="41.11732" lon="0.87504">
        <ele>538</ele>
        <time>2022-05-24 10:31:35</time>
      </trkpt>
      <trkpt lat="41.11731" lon="0.87507">
        <ele>538.2</ele>
        <time>2022-05-24 10:31:36</time>
      </trkpt>
      <trkpt lat="41.1173" lon="0.87509">
        <ele>538.2</ele>
        <time>2022-05-24 10:31:37</time>
      </trkpt>
      <trkpt lat="41.11729" lon="0.87512">
        <ele>538.4</ele>
        <time>2022-05-24 10:31:38</time>
      </trkpt>
      <trkpt lat="41.11729" lon="0.87516">
        <ele>538.4</ele>
        <time>2022-05-24 10:31:39</time>
      </trkpt>
      <trkpt lat="41.11728" lon="0.8752">
        <ele>538.4</ele>
        <time>2022-05-24 10:31:40</time>
      </trkpt>
      <trkpt lat="41.11728" lon="0.87525">
        <ele>538.4</ele>
        <time>2022-05-24 10:31:41</time>
      </trkpt>
      <trkpt lat="41.11728" lon="0.87528">
        <ele>538.2</ele>
        <time>2022-05-24 10:31:42</time>
      </trkpt>
      <trkpt lat="41.11729" lon="0.87535">
        <ele>538.2</ele>
        <time>2022-05-24 10:31:43</time>
      </trkpt>
      <trkpt lat="41.11731" lon="0.87539">
        <ele>538.2</ele>
        <time>2022-05-24 10:31:44</time>
      </trkpt>
      <trkpt lat="41.11734" lon="0.87543">
        <ele>538.2</ele>
        <time>2022-05-24 10:31:45</time>
      </trkpt>
      <trkpt lat="41.11737" lon="0.87547">
        <ele>538</ele>
        <time>2022-05-24 10:31:46</time>
      </trkpt>
      <trkpt lat="41.11741" lon="0.8755">
        <ele>538</ele>
        <time>2022-05-24 10:31:47</time>
      </trkpt>
      <trkpt lat="41.11744" lon="0.87551">
        <ele>538.2</ele>
        <time>2022-05-24 10:31:48</time>
      </trkpt>
      <trkpt lat="41.11748" lon="0.87554">
        <ele>538.2</ele>
        <time>2022-05-24 10:31:49</time>
      </trkpt>
      <trkpt lat="41.11752" lon="0.87555">
        <ele>538.4</ele>
        <time>2022-05-24 10:31:50</time>
      </trkpt>
      <trkpt lat="41.11754" lon="0.87555">
        <ele>538.6</ele>
        <time>2022-05-24 10:31:51</time>
      </trkpt>
      <trkpt lat="41.11759" lon="0.87555">
        <ele>538.8</ele>
        <time>2022-05-24 10:31:52</time>
      </trkpt>
      <trkpt lat="41.11762" lon="0.87554">
        <ele>538.8</ele>
        <time>2022-05-24 10:31:53</time>
      </trkpt>
      <trkpt lat="41.11764" lon="0.87553">
        <ele>538.8</ele>
        <time>2022-05-24 10:31:54</time>
      </trkpt>
      <trkpt lat="41.11768" lon="0.8755">
        <ele>539</ele>
        <time>2022-05-24 10:31:55</time>
      </trkpt>
      <trkpt lat="41.11771" lon="0.87548">
        <ele>539</ele>
        <time>2022-05-24 10:31:56</time>
      </trkpt>
      <trkpt lat="41.11774" lon="0.87546">
        <ele>539</ele>
        <time>2022-05-24 10:31:57</time>
      </trkpt>
      <trkpt lat="41.11777" lon="0.87542">
        <ele>539</ele>
        <time>2022-05-24 10:31:58</time>
      </trkpt>
      <trkpt lat="41.11779" lon="0.87539">
        <ele>539</ele>
        <time>2022-05-24 10:31:59</time>
      </trkpt>
      <trkpt lat="41.11782" lon="0.87536">
        <ele>539</ele>
        <time>2022-05-24 10:32:00</time>
      </trkpt>
      <trkpt lat="41.11786" lon="0.87532">
        <ele>539</ele>
        <time>2022-05-24 10:32:01</time>
      </trkpt>
      <trkpt lat="41.11788" lon="0.87529">
        <ele>539</ele>
        <time>2022-05-24 10:32:02</time>
      </trkpt>
      <trkpt lat="41.11791" lon="0.87526">
        <ele>539</ele>
        <time>2022-05-24 10:32:03</time>
      </trkpt>
      <trkpt lat="41.11795" lon="0.87523">
        <ele>539</ele>
        <time>2022-05-24 10:32:04</time>
      </trkpt>
      <trkpt lat="41.11798" lon="0.87521">
        <ele>539</ele>
        <time>2022-05-24 10:32:05</time>
      </trkpt>
      <trkpt lat="41.11801" lon="0.87519">
        <ele>539.2</ele>
        <time>2022-05-24 10:32:06</time>
      </trkpt>
      <trkpt lat="41.11805" lon="0.87518">
        <ele>539.2</ele>
        <time>2022-05-24 10:32:07</time>
      </trkpt>
      <trkpt lat="41.11808" lon="0.87518">
        <ele>539.4</ele>
        <time>2022-05-24 10:32:08</time>
      </trkpt>
      <trkpt lat="41.1181" lon="0.87518">
        <ele>539.6</ele>
        <time>2022-05-24 10:32:09</time>
      </trkpt>
      <trkpt lat="41.11814" lon="0.87519">
        <ele>539.8</ele>
        <time>2022-05-24 10:32:10</time>
      </trkpt>
      <trkpt lat="41.11816" lon="0.87521">
        <ele>540</ele>
        <time>2022-05-24 10:32:11</time>
      </trkpt>
      <trkpt lat="41.11818" lon="0.87523">
        <ele>540.2</ele>
        <time>2022-05-24 10:32:12</time>
      </trkpt>
      <trkpt lat="41.1182" lon="0.87525">
        <ele>540.4</ele>
        <time>2022-05-24 10:32:13</time>
      </trkpt>
      <trkpt lat="41.11821" lon="0.87529">
        <ele>540.6</ele>
        <time>2022-05-24 10:32:14</time>
      </trkpt>
      <trkpt lat="41.11823" lon="0.87533">
        <ele>540.8</ele>
        <time>2022-05-24 10:32:15</time>
      </trkpt>
      <trkpt lat="41.11824" lon="0.87537">
        <ele>541</ele>
        <time>2022-05-24 10:32:16</time>
      </trkpt>
      <trkpt lat="41.11825" lon="0.8754">
        <ele>541.2</ele>
        <time>2022-05-24 10:32:17</time>
      </trkpt>
      <trkpt lat="41.11825" lon="0.87544">
        <ele>541.6</ele>
        <time>2022-05-24 10:32:18</time>
      </trkpt>
      <trkpt lat="41.11825" lon="0.87547">
        <ele>541.8</ele>
        <time>2022-05-24 10:32:19</time>
      </trkpt>
      <trkpt lat="41.11825" lon="0.87551">
        <ele>542</ele>
        <time>2022-05-24 10:32:20</time>
      </trkpt>
      <trkpt lat="41.11825" lon="0.87554">
        <ele>542.2</ele>
        <time>2022-05-24 10:32:21</time>
      </trkpt>
      <trkpt lat="41.11825" lon="0.87558">
        <ele>542.4</ele>
        <time>2022-05-24 10:32:22</time>
      </trkpt>
      <trkpt lat="41.11825" lon="0.87561">
        <ele>542.6</ele>
        <time>2022-05-24 10:32:23</time>
      </trkpt>
      <trkpt lat="41.11825" lon="0.87564">
        <ele>542.8</ele>
        <time>2022-05-24 10:32:24</time>
      </trkpt>
      <trkpt lat="41.11824" lon="0.87567">
        <ele>543</ele>
        <time>2022-05-24 10:32:25</time>
      </trkpt>
      <trkpt lat="41.11824" lon="0.87571">
        <ele>543.2</ele>
        <time>2022-05-24 10:32:26</time>
      </trkpt>
      <trkpt lat="41.11824" lon="0.87574">
        <ele>543.4</ele>
        <time>2022-05-24 10:32:27</time>
      </trkpt>
      <trkpt lat="41.11824" lon="0.87578">
        <ele>543.6</ele>
        <time>2022-05-24 10:32:28</time>
      </trkpt>
      <trkpt lat="41.11824" lon="0.8758">
        <ele>543.8</ele>
        <time>2022-05-24 10:32:29</time>
      </trkpt>
      <trkpt lat="41.11824" lon="0.87584">
        <ele>544.2</ele>
        <time>2022-05-24 10:32:30</time>
      </trkpt>
      <trkpt lat="41.11824" lon="0.87587">
        <ele>544.4</ele>
        <time>2022-05-24 10:32:31</time>
      </trkpt>
      <trkpt lat="41.11825" lon="0.87591">
        <ele>544.6</ele>
        <time>2022-05-24 10:32:32</time>
      </trkpt>
      <trkpt lat="41.11825" lon="0.87593">
        <ele>544.8</ele>
        <time>2022-05-24 10:32:33</time>
      </trkpt>
      <trkpt lat="41.11825" lon="0.87597">
        <ele>545</ele>
        <time>2022-05-24 10:32:34</time>
      </trkpt>
      <trkpt lat="41.11826" lon="0.876">
        <ele>545.4</ele>
        <time>2022-05-24 10:32:35</time>
      </trkpt>
      <trkpt lat="41.11826" lon="0.87603">
        <ele>545.6</ele>
        <time>2022-05-24 10:32:36</time>
      </trkpt>
      <trkpt lat="41.11826" lon="0.87605">
        <ele>545.8</ele>
        <time>2022-05-24 10:32:37</time>
      </trkpt>
      <trkpt lat="41.11826" lon="0.87609">
        <ele>546</ele>
        <time>2022-05-24 10:32:38</time>
      </trkpt>
      <trkpt lat="41.11827" lon="0.87611">
        <ele>546.2</ele>
        <time>2022-05-24 10:32:39</time>
      </trkpt>
      <trkpt lat="41.11827" lon="0.87613">
        <ele>546.2</ele>
        <time>2022-05-24 10:32:40</time>
      </trkpt>
      <trkpt lat="41.11828" lon="0.87616">
        <ele>546.4</ele>
        <time>2022-05-24 10:32:41</time>
      </trkpt>
      <trkpt lat="41.11828" lon="0.87618">
        <ele>546.6</ele>
        <time>2022-05-24 10:32:42</time>
      </trkpt>
      <trkpt lat="41.11829" lon="0.87621">
        <ele>546.8</ele>
        <time>2022-05-24 10:32:43</time>
      </trkpt>
      <trkpt lat="41.11829" lon="0.87624">
        <ele>547</ele>
        <time>2022-05-24 10:32:44</time>
      </trkpt>
      <trkpt lat="41.11831" lon="0.87626">
        <ele>547.2</ele>
        <time>2022-05-24 10:32:45</time>
      </trkpt>
      <trkpt lat="41.11831" lon="0.87629">
        <ele>547.2</ele>
        <time>2022-05-24 10:32:46</time>
      </trkpt>
      <trkpt lat="41.11831" lon="0.87631">
        <ele>547.4</ele>
        <time>2022-05-24 10:32:47</time>
      </trkpt>
      <trkpt lat="41.11832" lon="0.87635">
        <ele>547.6</ele>
        <time>2022-05-24 10:32:48</time>
      </trkpt>
      <trkpt lat="41.11833" lon="0.87637">
        <ele>547.8</ele>
        <time>2022-05-24 10:32:49</time>
      </trkpt>
      <trkpt lat="41.11833" lon="0.8764">
        <ele>547.8</ele>
        <time>2022-05-24 10:32:50</time>
      </trkpt>
      <trkpt lat="41.11834" lon="0.87643">
        <ele>548</ele>
        <time>2022-05-24 10:32:51</time>
      </trkpt>
      <trkpt lat="41.11834" lon="0.87645">
        <ele>548.2</ele>
        <time>2022-05-24 10:32:52</time>
      </trkpt>
      <trkpt lat="41.11835" lon="0.87648">
        <ele>548.4</ele>
        <time>2022-05-24 10:32:53</time>
      </trkpt>
      <trkpt lat="41.11835" lon="0.8765">
        <ele>548.6</ele>
        <time>2022-05-24 10:32:54</time>
      </trkpt>
      <trkpt lat="41.11835" lon="0.87653">
        <ele>548.6</ele>
        <time>2022-05-24 10:32:55</time>
      </trkpt>
      <trkpt lat="41.11835" lon="0.87656">
        <ele>548.8</ele>
        <time>2022-05-24 10:32:56</time>
      </trkpt>
      <trkpt lat="41.11834" lon="0.87658">
        <ele>549</ele>
        <time>2022-05-24 10:32:57</time>
      </trkpt>
      <trkpt lat="41.11834" lon="0.87662">
        <ele>549.2</ele>
        <time>2022-05-24 10:32:58</time>
      </trkpt>
      <trkpt lat="41.11834" lon="0.87664">
        <ele>549.4</ele>
        <time>2022-05-24 10:32:59</time>
      </trkpt>
      <trkpt lat="41.11833" lon="0.87666">
        <ele>549.6</ele>
        <time>2022-05-24 10:33:00</time>
      </trkpt>
      <trkpt lat="41.11832" lon="0.87669">
        <ele>549.6</ele>
        <time>2022-05-24 10:33:01</time>
      </trkpt>
      <trkpt lat="41.11832" lon="0.87671">
        <ele>549.8</ele>
        <time>2022-05-24 10:33:02</time>
      </trkpt>
      <trkpt lat="41.11831" lon="0.87674">
        <ele>550</ele>
        <time>2022-05-24 10:33:03</time>
      </trkpt>
      <trkpt lat="41.1183" lon="0.87676">
        <ele>550.2</ele>
        <time>2022-05-24 10:33:04</time>
      </trkpt>
      <trkpt lat="41.11829" lon="0.87679">
        <ele>550.4</ele>
        <time>2022-05-24 10:33:05</time>
      </trkpt>
      <trkpt lat="41.11828" lon="0.87681">
        <ele>550.6</ele>
        <time>2022-05-24 10:33:06</time>
      </trkpt>
      <trkpt lat="41.11828" lon="0.87683">
        <ele>550.8</ele>
        <time>2022-05-24 10:33:07</time>
      </trkpt>
      <trkpt lat="41.11827" lon="0.87686">
        <ele>551</ele>
        <time>2022-05-24 10:33:08</time>
      </trkpt>
      <trkpt lat="41.11825" lon="0.87687">
        <ele>551.2</ele>
        <time>2022-05-24 10:33:09</time>
      </trkpt>
      <trkpt lat="41.11824" lon="0.87689">
        <ele>551.2</ele>
        <time>2022-05-24 10:33:10</time>
      </trkpt>
      <trkpt lat="41.11823" lon="0.87692">
        <ele>551.4</ele>
        <time>2022-05-24 10:33:11</time>
      </trkpt>
      <trkpt lat="41.11822" lon="0.87693">
        <ele>551.6</ele>
        <time>2022-05-24 10:33:12</time>
      </trkpt>
      <trkpt lat="41.1182" lon="0.87695">
        <ele>551.8</ele>
        <time>2022-05-24 10:33:13</time>
      </trkpt>
      <trkpt lat="41.11819" lon="0.87697">
        <ele>551.8</ele>
        <time>2022-05-24 10:33:14</time>
      </trkpt>
      <trkpt lat="41.11818" lon="0.87699">
        <ele>552</ele>
        <time>2022-05-24 10:33:15</time>
      </trkpt>
      <trkpt lat="41.11817" lon="0.87701">
        <ele>552.2</ele>
        <time>2022-05-24 10:33:16</time>
      </trkpt>
      <trkpt lat="41.11815" lon="0.87703">
        <ele>552.4</ele>
        <time>2022-05-24 10:33:17</time>
      </trkpt>
      <trkpt lat="41.11814" lon="0.87705">
        <ele>552.6</ele>
        <time>2022-05-24 10:33:18</time>
      </trkpt>
      <trkpt lat="41.11813" lon="0.87707">
        <ele>552.6</ele>
        <time>2022-05-24 10:33:19</time>
      </trkpt>
      <trkpt lat="41.11811" lon="0.8771">
        <ele>552.8</ele>
        <time>2022-05-24 10:33:20</time>
      </trkpt>
      <trkpt lat="41.1181" lon="0.87712">
        <ele>553</ele>
        <time>2022-05-24 10:33:21</time>
      </trkpt>
      <trkpt lat="41.11808" lon="0.87715">
        <ele>553.2</ele>
        <time>2022-05-24 10:33:22</time>
      </trkpt>
      <trkpt lat="41.11807" lon="0.87717">
        <ele>553.2</ele>
        <time>2022-05-24 10:33:23</time>
      </trkpt>
      <trkpt lat="41.11805" lon="0.87719">
        <ele>553.4</ele>
        <time>2022-05-24 10:33:24</time>
      </trkpt>
      <trkpt lat="41.11804" lon="0.87721">
        <ele>553.6</ele>
        <time>2022-05-24 10:33:25</time>
      </trkpt>
      <trkpt lat="41.11804" lon="0.87722">
        <ele>553.6</ele>
        <time>2022-05-24 10:33:26</time>
      </trkpt>
      <trkpt lat="41.11803" lon="0.87725">
        <ele>553.8</ele>
        <time>2022-05-24 10:33:27</time>
      </trkpt>
      <trkpt lat="41.11802" lon="0.87727">
        <ele>554</ele>
        <time>2022-05-24 10:33:28</time>
      </trkpt>
      <trkpt lat="41.118" lon="0.87729">
        <ele>554.2</ele>
        <time>2022-05-24 10:33:29</time>
      </trkpt>
      <trkpt lat="41.11799" lon="0.87731">
        <ele>554.2</ele>
        <time>2022-05-24 10:33:30</time>
      </trkpt>
      <trkpt lat="41.11799" lon="0.87732">
        <ele>554.4</ele>
        <time>2022-05-24 10:33:31</time>
      </trkpt>
      <trkpt lat="41.11797" lon="0.87734">
        <ele>554.6</ele>
        <time>2022-05-24 10:33:32</time>
      </trkpt>
      <trkpt lat="41.11796" lon="0.87736">
        <ele>554.6</ele>
        <time>2022-05-24 10:33:33</time>
      </trkpt>
      <trkpt lat="41.11795" lon="0.87738">
        <ele>554.8</ele>
        <time>2022-05-24 10:33:34</time>
      </trkpt>
      <trkpt lat="41.11794" lon="0.8774">
        <ele>555</ele>
        <time>2022-05-24 10:33:35</time>
      </trkpt>
      <trkpt lat="41.11792" lon="0.87743">
        <ele>555</ele>
        <time>2022-05-24 10:33:36</time>
      </trkpt>
      <trkpt lat="41.11791" lon="0.87745">
        <ele>555.2</ele>
        <time>2022-05-24 10:33:37</time>
      </trkpt>
      <trkpt lat="41.1179" lon="0.87748">
        <ele>555.4</ele>
        <time>2022-05-24 10:33:38</time>
      </trkpt>
      <trkpt lat="41.1179" lon="0.87751">
        <ele>555.4</ele>
        <time>2022-05-24 10:33:39</time>
      </trkpt>
      <trkpt lat="41.1179" lon="0.87753">
        <ele>555.6</ele>
        <time>2022-05-24 10:33:40</time>
      </trkpt>
      <trkpt lat="41.1179" lon="0.87756">
        <ele>555.6</ele>
        <time>2022-05-24 10:33:41</time>
      </trkpt>
      <trkpt lat="41.1179" lon="0.87759">
        <ele>555.8</ele>
        <time>2022-05-24 10:33:42</time>
      </trkpt>
      <trkpt lat="41.1179" lon="0.87762">
        <ele>555.8</ele>
        <time>2022-05-24 10:33:43</time>
      </trkpt>
      <trkpt lat="41.1179" lon="0.87765">
        <ele>556</ele>
        <time>2022-05-24 10:33:44</time>
      </trkpt>
      <trkpt lat="41.1179" lon="0.87767">
        <ele>556</ele>
        <time>2022-05-24 10:33:45</time>
      </trkpt>
      <trkpt lat="41.11789" lon="0.87769">
        <ele>556.2</ele>
        <time>2022-05-24 10:33:46</time>
      </trkpt>
      <trkpt lat="41.11789" lon="0.87772">
        <ele>556.4</ele>
        <time>2022-05-24 10:33:47</time>
      </trkpt>
      <trkpt lat="41.11789" lon="0.87776">
        <ele>556.4</ele>
        <time>2022-05-24 10:33:48</time>
      </trkpt>
      <trkpt lat="41.1179" lon="0.87779">
        <ele>556.6</ele>
        <time>2022-05-24 10:33:49</time>
      </trkpt>
      <trkpt lat="41.1179" lon="0.87782">
        <ele>556.6</ele>
        <time>2022-05-24 10:33:50</time>
      </trkpt>
      <trkpt lat="41.1179" lon="0.87784">
        <ele>556.8</ele>
        <time>2022-05-24 10:33:51</time>
      </trkpt>
      <trkpt lat="41.1179" lon="0.87787">
        <ele>557</ele>
        <time>2022-05-24 10:33:52</time>
      </trkpt>
      <trkpt lat="41.1179" lon="0.8779">
        <ele>557</ele>
        <time>2022-05-24 10:33:53</time>
      </trkpt>
      <trkpt lat="41.1179" lon="0.87793">
        <ele>557.2</ele>
        <time>2022-05-24 10:33:54</time>
      </trkpt>
      <trkpt lat="41.11791" lon="0.87796">
        <ele>557.4</ele>
        <time>2022-05-24 10:33:55</time>
      </trkpt>
      <trkpt lat="41.11791" lon="0.87798">
        <ele>557.4</ele>
        <time>2022-05-24 10:33:56</time>
      </trkpt>
      <trkpt lat="41.11792" lon="0.878">
        <ele>557.6</ele>
        <time>2022-05-24 10:33:57</time>
      </trkpt>
      <trkpt lat="41.11792" lon="0.87801">
        <ele>557.8</ele>
        <time>2022-05-24 10:33:58</time>
      </trkpt>
      <trkpt lat="41.11792" lon="0.87803">
        <ele>557.8</ele>
        <time>2022-05-24 10:33:59</time>
      </trkpt>
      <trkpt lat="41.11792" lon="0.87806">
        <ele>558</ele>
        <time>2022-05-24 10:34:00</time>
      </trkpt>
      <trkpt lat="41.11792" lon="0.87808">
        <ele>558.2</ele>
        <time>2022-05-24 10:34:01</time>
      </trkpt>
      <trkpt lat="41.11792" lon="0.87811">
        <ele>558.4</ele>
        <time>2022-05-24 10:34:02</time>
      </trkpt>
      <trkpt lat="41.11792" lon="0.87814">
        <ele>558.6</ele>
        <time>2022-05-24 10:34:03</time>
      </trkpt>
      <trkpt lat="41.11793" lon="0.87816">
        <ele>558.6</ele>
        <time>2022-05-24 10:34:04</time>
      </trkpt>
      <trkpt lat="41.11793" lon="0.87819">
        <ele>558.8</ele>
        <time>2022-05-24 10:34:05</time>
      </trkpt>
      <trkpt lat="41.11793" lon="0.87822">
        <ele>559</ele>
        <time>2022-05-24 10:34:06</time>
      </trkpt>
      <trkpt lat="41.11793" lon="0.87824">
        <ele>559.2</ele>
        <time>2022-05-24 10:34:07</time>
      </trkpt>
      <trkpt lat="41.11792" lon="0.87827">
        <ele>559.4</ele>
        <time>2022-05-24 10:34:08</time>
      </trkpt>
      <trkpt lat="41.11792" lon="0.87829">
        <ele>559.4</ele>
        <time>2022-05-24 10:34:09</time>
      </trkpt>
      <trkpt lat="41.11792" lon="0.87832">
        <ele>559.6</ele>
        <time>2022-05-24 10:34:10</time>
      </trkpt>
      <trkpt lat="41.11792" lon="0.87835">
        <ele>559.8</ele>
        <time>2022-05-24 10:34:11</time>
      </trkpt>
      <trkpt lat="41.11791" lon="0.87837">
        <ele>560</ele>
        <time>2022-05-24 10:34:12</time>
      </trkpt>
      <trkpt lat="41.11792" lon="0.8784">
        <ele>560</ele>
        <time>2022-05-24 10:34:13</time>
      </trkpt>
      <trkpt lat="41.11793" lon="0.87842">
        <ele>560.2</ele>
        <time>2022-05-24 10:34:14</time>
      </trkpt>
      <trkpt lat="41.11793" lon="0.87845">
        <ele>560.4</ele>
        <time>2022-05-24 10:34:15</time>
      </trkpt>
      <trkpt lat="41.11794" lon="0.87848">
        <ele>560.6</ele>
        <time>2022-05-24 10:34:16</time>
      </trkpt>
      <trkpt lat="41.11794" lon="0.8785">
        <ele>560.8</ele>
        <time>2022-05-24 10:34:17</time>
      </trkpt>
      <trkpt lat="41.11794" lon="0.87853">
        <ele>561</ele>
        <time>2022-05-24 10:34:18</time>
      </trkpt>
      <trkpt lat="41.11794" lon="0.87855">
        <ele>561.2</ele>
        <time>2022-05-24 10:34:19</time>
      </trkpt>
      <trkpt lat="41.11794" lon="0.87857">
        <ele>561.4</ele>
        <time>2022-05-24 10:34:20</time>
      </trkpt>
      <trkpt lat="41.11794" lon="0.8786">
        <ele>561.4</ele>
        <time>2022-05-24 10:34:21</time>
      </trkpt>
      <trkpt lat="41.11794" lon="0.87862">
        <ele>561.6</ele>
        <time>2022-05-24 10:34:22</time>
      </trkpt>
      <trkpt lat="41.11794" lon="0.87865">
        <ele>561.8</ele>
        <time>2022-05-24 10:34:23</time>
      </trkpt>
      <trkpt lat="41.11795" lon="0.87867">
        <ele>562</ele>
        <time>2022-05-24 10:34:24</time>
      </trkpt>
      <trkpt lat="41.11797" lon="0.8787">
        <ele>562.2</ele>
        <time>2022-05-24 10:34:25</time>
      </trkpt>
      <trkpt lat="41.11797" lon="0.87872">
        <ele>562.4</ele>
        <time>2022-05-24 10:34:26</time>
      </trkpt>
      <trkpt lat="41.11797" lon="0.87875">
        <ele>562.6</ele>
        <time>2022-05-24 10:34:27</time>
      </trkpt>
      <trkpt lat="41.11798" lon="0.87878">
        <ele>562.8</ele>
        <time>2022-05-24 10:34:28</time>
      </trkpt>
      <trkpt lat="41.11798" lon="0.8788">
        <ele>562.8</ele>
        <time>2022-05-24 10:34:29</time>
      </trkpt>
      <trkpt lat="41.11798" lon="0.87883">
        <ele>563</ele>
        <time>2022-05-24 10:34:30</time>
      </trkpt>
      <trkpt lat="41.11798" lon="0.87885">
        <ele>563.2</ele>
        <time>2022-05-24 10:34:31</time>
      </trkpt>
      <trkpt lat="41.11798" lon="0.87888">
        <ele>563.4</ele>
        <time>2022-05-24 10:34:32</time>
      </trkpt>
      <trkpt lat="41.11798" lon="0.8789">
        <ele>563.6</ele>
        <time>2022-05-24 10:34:33</time>
      </trkpt>
      <trkpt lat="41.11797" lon="0.87892">
        <ele>563.8</ele>
        <time>2022-05-24 10:34:34</time>
      </trkpt>
      <trkpt lat="41.11797" lon="0.87894">
        <ele>564</ele>
        <time>2022-05-24 10:34:35</time>
      </trkpt>
      <trkpt lat="41.11796" lon="0.87896">
        <ele>564.2</ele>
        <time>2022-05-24 10:34:36</time>
      </trkpt>
      <trkpt lat="41.11795" lon="0.87898">
        <ele>564.2</ele>
        <time>2022-05-24 10:34:37</time>
      </trkpt>
      <trkpt lat="41.11793" lon="0.879">
        <ele>564.4</ele>
        <time>2022-05-24 10:34:38</time>
      </trkpt>
      <trkpt lat="41.11792" lon="0.87903">
        <ele>564.6</ele>
        <time>2022-05-24 10:34:39</time>
      </trkpt>
      <trkpt lat="41.11791" lon="0.87905">
        <ele>564.8</ele>
        <time>2022-05-24 10:34:40</time>
      </trkpt>
      <trkpt lat="41.1179" lon="0.87907">
        <ele>565</ele>
        <time>2022-05-24 10:34:41</time>
      </trkpt>
      <trkpt lat="41.11789" lon="0.87909">
        <ele>565</ele>
        <time>2022-05-24 10:34:42</time>
      </trkpt>
      <trkpt lat="41.11787" lon="0.87911">
        <ele>565.2</ele>
        <time>2022-05-24 10:34:43</time>
      </trkpt>
      <trkpt lat="41.11785" lon="0.87913">
        <ele>565.4</ele>
        <time>2022-05-24 10:34:44</time>
      </trkpt>
      <trkpt lat="41.11783" lon="0.87914">
        <ele>565.6</ele>
        <time>2022-05-24 10:34:45</time>
      </trkpt>
      <trkpt lat="41.11781" lon="0.87917">
        <ele>565.8</ele>
        <time>2022-05-24 10:34:46</time>
      </trkpt>
      <trkpt lat="41.1178" lon="0.87919">
        <ele>565.8</ele>
        <time>2022-05-24 10:34:47</time>
      </trkpt>
      <trkpt lat="41.11778" lon="0.87921">
        <ele>566</ele>
        <time>2022-05-24 10:34:48</time>
      </trkpt>
      <trkpt lat="41.11776" lon="0.87923">
        <ele>566.2</ele>
        <time>2022-05-24 10:34:49</time>
      </trkpt>
      <trkpt lat="41.11775" lon="0.87924">
        <ele>566.2</ele>
        <time>2022-05-24 10:34:50</time>
      </trkpt>
      <trkpt lat="41.11774" lon="0.87926">
        <ele>566.4</ele>
        <time>2022-05-24 10:34:51</time>
      </trkpt>
      <trkpt lat="41.11772" lon="0.87928">
        <ele>566.4</ele>
        <time>2022-05-24 10:34:52</time>
      </trkpt>
      <trkpt lat="41.1177" lon="0.87929">
        <ele>566.6</ele>
        <time>2022-05-24 10:34:53</time>
      </trkpt>
      <trkpt lat="41.11768" lon="0.8793">
        <ele>566.6</ele>
        <time>2022-05-24 10:34:54</time>
      </trkpt>
      <trkpt lat="41.11766" lon="0.87931">
        <ele>566.8</ele>
        <time>2022-05-24 10:34:55</time>
      </trkpt>
      <trkpt lat="41.11764" lon="0.87932">
        <ele>566.8</ele>
        <time>2022-05-24 10:34:56</time>
      </trkpt>
      <trkpt lat="41.11762" lon="0.87933">
        <ele>567</ele>
        <time>2022-05-24 10:34:57</time>
      </trkpt>
      <trkpt lat="41.1176" lon="0.87933">
        <ele>567</ele>
        <time>2022-05-24 10:34:58</time>
      </trkpt>
      <trkpt lat="41.11759" lon="0.87934">
        <ele>567.2</ele>
        <time>2022-05-24 10:34:59</time>
      </trkpt>
      <trkpt lat="41.11757" lon="0.87935">
        <ele>567.2</ele>
        <time>2022-05-24 10:35:00</time>
      </trkpt>
      <trkpt lat="41.11755" lon="0.87936">
        <ele>567.4</ele>
        <time>2022-05-24 10:35:01</time>
      </trkpt>
      <trkpt lat="41.11752" lon="0.87937">
        <ele>567.6</ele>
        <time>2022-05-24 10:35:02</time>
      </trkpt>
      <trkpt lat="41.1175" lon="0.87938">
        <ele>567.6</ele>
        <time>2022-05-24 10:35:03</time>
      </trkpt>
      <trkpt lat="41.11748" lon="0.87939">
        <ele>567.8</ele>
        <time>2022-05-24 10:35:04</time>
      </trkpt>
      <trkpt lat="41.11746" lon="0.87939">
        <ele>567.8</ele>
        <time>2022-05-24 10:35:05</time>
      </trkpt>
      <trkpt lat="41.11743" lon="0.8794">
        <ele>568</ele>
        <time>2022-05-24 10:35:06</time>
      </trkpt>
      <trkpt lat="41.1174" lon="0.8794">
        <ele>568</ele>
        <time>2022-05-24 10:35:07</time>
      </trkpt>
      <trkpt lat="41.11738" lon="0.8794">
        <ele>568.2</ele>
        <time>2022-05-24 10:35:08</time>
      </trkpt>
      <trkpt lat="41.11736" lon="0.8794">
        <ele>568.4</ele>
        <time>2022-05-24 10:35:09</time>
      </trkpt>
      <trkpt lat="41.11734" lon="0.87939">
        <ele>568.4</ele>
        <time>2022-05-24 10:35:10</time>
      </trkpt>
      <trkpt lat="41.11731" lon="0.87939">
        <ele>568.6</ele>
        <time>2022-05-24 10:35:11</time>
      </trkpt>
      <trkpt lat="41.1173" lon="0.87939">
        <ele>568.6</ele>
        <time>2022-05-24 10:35:12</time>
      </trkpt>
      <trkpt lat="41.11727" lon="0.87939">
        <ele>568.8</ele>
        <time>2022-05-24 10:35:13</time>
      </trkpt>
      <trkpt lat="41.11725" lon="0.87939">
        <ele>568.8</ele>
        <time>2022-05-24 10:35:14</time>
      </trkpt>
      <trkpt lat="41.11722" lon="0.87938">
        <ele>568.8</ele>
        <time>2022-05-24 10:35:15</time>
      </trkpt>
      <trkpt lat="41.1172" lon="0.87938">
        <ele>569</ele>
        <time>2022-05-24 10:35:16</time>
      </trkpt>
      <trkpt lat="41.11717" lon="0.87937">
        <ele>569</ele>
        <time>2022-05-24 10:35:17</time>
      </trkpt>
      <trkpt lat="41.11715" lon="0.87937">
        <ele>569.2</ele>
        <time>2022-05-24 10:35:18</time>
      </trkpt>
      <trkpt lat="41.11713" lon="0.87937">
        <ele>569.2</ele>
        <time>2022-05-24 10:35:19</time>
      </trkpt>
      <trkpt lat="41.1171" lon="0.87937">
        <ele>569.4</ele>
        <time>2022-05-24 10:35:20</time>
      </trkpt>
      <trkpt lat="41.11708" lon="0.87937">
        <ele>569.4</ele>
        <time>2022-05-24 10:35:21</time>
      </trkpt>
      <trkpt lat="41.11705" lon="0.87938">
        <ele>569.4</ele>
        <time>2022-05-24 10:35:22</time>
      </trkpt>
      <trkpt lat="41.11702" lon="0.8794">
        <ele>569.4</ele>
        <time>2022-05-24 10:35:23</time>
      </trkpt>
      <trkpt lat="41.11699" lon="0.87943">
        <ele>569.4</ele>
        <time>2022-05-24 10:35:24</time>
      </trkpt>
      <trkpt lat="41.11696" lon="0.87947">
        <ele>569.4</ele>
        <time>2022-05-24 10:35:25</time>
      </trkpt>
      <trkpt lat="41.11694" lon="0.87953">
        <ele>569.4</ele>
        <time>2022-05-24 10:35:26</time>
      </trkpt>
      <trkpt lat="41.11693" lon="0.87957">
        <ele>569.4</ele>
        <time>2022-05-24 10:35:27</time>
      </trkpt>
      <trkpt lat="41.11692" lon="0.87962">
        <ele>569.6</ele>
        <time>2022-05-24 10:35:28</time>
      </trkpt>
      <trkpt lat="41.11692" lon="0.87967">
        <ele>569.6</ele>
        <time>2022-05-24 10:35:29</time>
      </trkpt>
      <trkpt lat="41.11692" lon="0.87972">
        <ele>569.8</ele>
        <time>2022-05-24 10:35:30</time>
      </trkpt>
      <trkpt lat="41.11692" lon="0.87976">
        <ele>569.8</ele>
        <time>2022-05-24 10:35:31</time>
      </trkpt>
      <trkpt lat="41.11692" lon="0.87981">
        <ele>570</ele>
        <time>2022-05-24 10:35:32</time>
      </trkpt>
      <trkpt lat="41.11692" lon="0.87985">
        <ele>570</ele>
        <time>2022-05-24 10:35:33</time>
      </trkpt>
      <trkpt lat="41.11692" lon="0.8799">
        <ele>570.2</ele>
        <time>2022-05-24 10:35:34</time>
      </trkpt>
      <trkpt lat="41.11691" lon="0.87994">
        <ele>570.2</ele>
        <time>2022-05-24 10:35:35</time>
      </trkpt>
      <trkpt lat="41.11689" lon="0.87998">
        <ele>570.4</ele>
        <time>2022-05-24 10:35:36</time>
      </trkpt>
      <trkpt lat="41.11687" lon="0.88001">
        <ele>570.4</ele>
        <time>2022-05-24 10:35:37</time>
      </trkpt>
      <trkpt lat="41.11685" lon="0.88005">
        <ele>570.6</ele>
        <time>2022-05-24 10:35:38</time>
      </trkpt>
      <trkpt lat="41.11684" lon="0.88008">
        <ele>570.8</ele>
        <time>2022-05-24 10:35:39</time>
      </trkpt>
      <trkpt lat="41.11682" lon="0.88011">
        <ele>570.8</ele>
        <time>2022-05-24 10:35:40</time>
      </trkpt>
      <trkpt lat="41.1168" lon="0.88014">
        <ele>571</ele>
        <time>2022-05-24 10:35:41</time>
      </trkpt>
      <trkpt lat="41.11678" lon="0.88016">
        <ele>571.2</ele>
        <time>2022-05-24 10:35:42</time>
      </trkpt>
      <trkpt lat="41.11676" lon="0.88019">
        <ele>571.2</ele>
        <time>2022-05-24 10:35:43</time>
      </trkpt>
      <trkpt lat="41.11673" lon="0.88021">
        <ele>571.4</ele>
        <time>2022-05-24 10:35:44</time>
      </trkpt>
      <trkpt lat="41.11671" lon="0.88023">
        <ele>571.6</ele>
        <time>2022-05-24 10:35:45</time>
      </trkpt>
      <trkpt lat="41.11668" lon="0.88025">
        <ele>571.8</ele>
        <time>2022-05-24 10:35:46</time>
      </trkpt>
      <trkpt lat="41.11666" lon="0.88027">
        <ele>571.8</ele>
        <time>2022-05-24 10:35:47</time>
      </trkpt>
      <trkpt lat="41.11663" lon="0.88029">
        <ele>572</ele>
        <time>2022-05-24 10:35:48</time>
      </trkpt>
      <trkpt lat="41.11661" lon="0.8803">
        <ele>572.2</ele>
        <time>2022-05-24 10:35:49</time>
      </trkpt>
      <trkpt lat="41.11658" lon="0.88032">
        <ele>572.2</ele>
        <time>2022-05-24 10:35:50</time>
      </trkpt>
      <trkpt lat="41.11656" lon="0.88034">
        <ele>572.4</ele>
        <time>2022-05-24 10:35:51</time>
      </trkpt>
      <trkpt lat="41.11653" lon="0.88036">
        <ele>572.6</ele>
        <time>2022-05-24 10:35:52</time>
      </trkpt>
      <trkpt lat="41.1165" lon="0.88038">
        <ele>572.8</ele>
        <time>2022-05-24 10:35:53</time>
      </trkpt>
      <trkpt lat="41.11647" lon="0.88039">
        <ele>572.8</ele>
        <time>2022-05-24 10:35:54</time>
      </trkpt>
      <trkpt lat="41.11644" lon="0.88041">
        <ele>573</ele>
        <time>2022-05-24 10:35:55</time>
      </trkpt>
      <trkpt lat="41.11642" lon="0.88042">
        <ele>573.2</ele>
        <time>2022-05-24 10:35:56</time>
      </trkpt>
      <trkpt lat="41.11639" lon="0.88042">
        <ele>573.2</ele>
        <time>2022-05-24 10:35:57</time>
      </trkpt>
      <trkpt lat="41.11635" lon="0.88043">
        <ele>573.4</ele>
        <time>2022-05-24 10:35:58</time>
      </trkpt>
      <trkpt lat="41.11632" lon="0.88043">
        <ele>573.6</ele>
        <time>2022-05-24 10:35:59</time>
      </trkpt>
      <trkpt lat="41.11629" lon="0.88042">
        <ele>573.6</ele>
        <time>2022-05-24 10:36:00</time>
      </trkpt>
      <trkpt lat="41.11625" lon="0.88041">
        <ele>573.8</ele>
        <time>2022-05-24 10:36:01</time>
      </trkpt>
      <trkpt lat="41.11622" lon="0.8804">
        <ele>573.8</ele>
        <time>2022-05-24 10:36:02</time>
      </trkpt>
      <trkpt lat="41.11618" lon="0.88039">
        <ele>573.8</ele>
        <time>2022-05-24 10:36:03</time>
      </trkpt>
      <trkpt lat="41.11615" lon="0.88037">
        <ele>573.8</ele>
        <time>2022-05-24 10:36:04</time>
      </trkpt>
      <trkpt lat="41.11611" lon="0.88036">
        <ele>573.8</ele>
        <time>2022-05-24 10:36:05</time>
      </trkpt>
      <trkpt lat="41.11606" lon="0.88033">
        <ele>573.6</ele>
        <time>2022-05-24 10:36:06</time>
      </trkpt>
      <trkpt lat="41.11601" lon="0.88032">
        <ele>573.4</ele>
        <time>2022-05-24 10:36:07</time>
      </trkpt>
      <trkpt lat="41.11596" lon="0.8803">
        <ele>573.2</ele>
        <time>2022-05-24 10:36:08</time>
      </trkpt>
      <trkpt lat="41.1159" lon="0.8803">
        <ele>573</ele>
        <time>2022-05-24 10:36:09</time>
      </trkpt>
      <trkpt lat="41.11584" lon="0.88028">
        <ele>572.6</ele>
        <time>2022-05-24 10:36:10</time>
      </trkpt>
      <trkpt lat="41.11577" lon="0.88028">
        <ele>572.4</ele>
        <time>2022-05-24 10:36:11</time>
      </trkpt>
      <trkpt lat="41.11571" lon="0.88027">
        <ele>572</ele>
        <time>2022-05-24 10:36:12</time>
      </trkpt>
      <trkpt lat="41.11564" lon="0.88026">
        <ele>571.8</ele>
        <time>2022-05-24 10:36:13</time>
      </trkpt>
      <trkpt lat="41.11558" lon="0.88027">
        <ele>571.4</ele>
        <time>2022-05-24 10:36:14</time>
      </trkpt>
      <trkpt lat="41.11552" lon="0.88028">
        <ele>571.2</ele>
        <time>2022-05-24 10:36:15</time>
      </trkpt>
      <trkpt lat="41.11546" lon="0.88031">
        <ele>571</ele>
        <time>2022-05-24 10:36:16</time>
      </trkpt>
      <trkpt lat="41.1154" lon="0.88035">
        <ele>570.8</ele>
        <time>2022-05-24 10:36:17</time>
      </trkpt>
      <trkpt lat="41.11535" lon="0.88041">
        <ele>570.6</ele>
        <time>2022-05-24 10:36:18</time>
      </trkpt>
      <trkpt lat="41.11533" lon="0.88049">
        <ele>570.6</ele>
        <time>2022-05-24 10:36:19</time>
      </trkpt>
      <trkpt lat="41.11531" lon="0.88056">
        <ele>570.6</ele>
        <time>2022-05-24 10:36:20</time>
      </trkpt>
      <trkpt lat="41.1153" lon="0.88063">
        <ele>570.6</ele>
        <time>2022-05-24 10:36:21</time>
      </trkpt>
      <trkpt lat="41.1153" lon="0.8807">
        <ele>570.8</ele>
        <time>2022-05-24 10:36:22</time>
      </trkpt>
      <trkpt lat="41.1153" lon="0.88076">
        <ele>571</ele>
        <time>2022-05-24 10:36:23</time>
      </trkpt>
      <trkpt lat="41.1153" lon="0.88082">
        <ele>571.2</ele>
        <time>2022-05-24 10:36:24</time>
      </trkpt>
      <trkpt lat="41.1153" lon="0.88088">
        <ele>571.4</ele>
        <time>2022-05-24 10:36:25</time>
      </trkpt>
      <trkpt lat="41.11531" lon="0.88094">
        <ele>571.6</ele>
        <time>2022-05-24 10:36:26</time>
      </trkpt>
      <trkpt lat="41.11531" lon="0.88099">
        <ele>571.8</ele>
        <time>2022-05-24 10:36:27</time>
      </trkpt>
      <trkpt lat="41.11532" lon="0.88104">
        <ele>572</ele>
        <time>2022-05-24 10:36:28</time>
      </trkpt>
      <trkpt lat="41.11533" lon="0.8811">
        <ele>572.2</ele>
        <time>2022-05-24 10:36:29</time>
      </trkpt>
      <trkpt lat="41.11534" lon="0.88115">
        <ele>572.6</ele>
        <time>2022-05-24 10:36:30</time>
      </trkpt>
      <trkpt lat="41.11536" lon="0.8812">
        <ele>572.8</ele>
        <time>2022-05-24 10:36:31</time>
      </trkpt>
      <trkpt lat="41.11538" lon="0.88125">
        <ele>573</ele>
        <time>2022-05-24 10:36:32</time>
      </trkpt>
      <trkpt lat="41.1154" lon="0.88129">
        <ele>573.2</ele>
        <time>2022-05-24 10:36:33</time>
      </trkpt>
      <trkpt lat="41.11542" lon="0.88134">
        <ele>573.4</ele>
        <time>2022-05-24 10:36:34</time>
      </trkpt>
      <trkpt lat="41.11544" lon="0.88139">
        <ele>573.6</ele>
        <time>2022-05-24 10:36:35</time>
      </trkpt>
      <trkpt lat="41.11546" lon="0.88143">
        <ele>573.8</ele>
        <time>2022-05-24 10:36:36</time>
      </trkpt>
      <trkpt lat="41.11547" lon="0.88148">
        <ele>574.2</ele>
        <time>2022-05-24 10:36:37</time>
      </trkpt>
      <trkpt lat="41.11549" lon="0.88153">
        <ele>574.4</ele>
        <time>2022-05-24 10:36:38</time>
      </trkpt>
      <trkpt lat="41.1155" lon="0.88158">
        <ele>574.6</ele>
        <time>2022-05-24 10:36:39</time>
      </trkpt>
      <trkpt lat="41.11551" lon="0.88163">
        <ele>574.8</ele>
        <time>2022-05-24 10:36:40</time>
      </trkpt>
      <trkpt lat="41.1155" lon="0.88169">
        <ele>575</ele>
        <time>2022-05-24 10:36:41</time>
      </trkpt>
      <trkpt lat="41.1155" lon="0.88174">
        <ele>575.2</ele>
        <time>2022-05-24 10:36:42</time>
      </trkpt>
      <trkpt lat="41.1155" lon="0.8818">
        <ele>575.2</ele>
        <time>2022-05-24 10:36:43</time>
      </trkpt>
      <trkpt lat="41.1155" lon="0.88186">
        <ele>575.4</ele>
        <time>2022-05-24 10:36:44</time>
      </trkpt>
      <trkpt lat="41.1155" lon="0.88192">
        <ele>575.4</ele>
        <time>2022-05-24 10:36:45</time>
      </trkpt>
      <trkpt lat="41.11551" lon="0.88199">
        <ele>575.4</ele>
        <time>2022-05-24 10:36:46</time>
      </trkpt>
      <trkpt lat="41.11553" lon="0.88205">
        <ele>575.4</ele>
        <time>2022-05-24 10:36:47</time>
      </trkpt>
      <trkpt lat="41.11555" lon="0.88211">
        <ele>575.4</ele>
        <time>2022-05-24 10:36:48</time>
      </trkpt>
      <trkpt lat="41.11558" lon="0.88215">
        <ele>575.4</ele>
        <time>2022-05-24 10:36:49</time>
      </trkpt>
      <trkpt lat="41.11561" lon="0.88221">
        <ele>575.4</ele>
        <time>2022-05-24 10:36:50</time>
      </trkpt>
      <trkpt lat="41.11564" lon="0.88226">
        <ele>575.4</ele>
        <time>2022-05-24 10:36:51</time>
      </trkpt>
      <trkpt lat="41.11567" lon="0.8823">
        <ele>575.4</ele>
        <time>2022-05-24 10:36:52</time>
      </trkpt>
      <trkpt lat="41.1157" lon="0.88235">
        <ele>575.4</ele>
        <time>2022-05-24 10:36:53</time>
      </trkpt>
      <trkpt lat="41.11573" lon="0.8824">
        <ele>575.4</ele>
        <time>2022-05-24 10:36:54</time>
      </trkpt>
      <trkpt lat="41.11575" lon="0.88245">
        <ele>575.4</ele>
        <time>2022-05-24 10:36:55</time>
      </trkpt>
      <trkpt lat="41.11578" lon="0.8825">
        <ele>575.4</ele>
        <time>2022-05-24 10:36:56</time>
      </trkpt>
      <trkpt lat="41.1158" lon="0.88256">
        <ele>575.4</ele>
        <time>2022-05-24 10:36:57</time>
      </trkpt>
      <trkpt lat="41.11582" lon="0.88261">
        <ele>575.4</ele>
        <time>2022-05-24 10:36:58</time>
      </trkpt>
      <trkpt lat="41.11584" lon="0.88266">
        <ele>575.4</ele>
        <time>2022-05-24 10:36:59</time>
      </trkpt>
      <trkpt lat="41.11586" lon="0.88271">
        <ele>575.2</ele>
        <time>2022-05-24 10:37:00</time>
      </trkpt>
      <trkpt lat="41.11588" lon="0.88276">
        <ele>575.2</ele>
        <time>2022-05-24 10:37:01</time>
      </trkpt>
      <trkpt lat="41.1159" lon="0.88281">
        <ele>575.2</ele>
        <time>2022-05-24 10:37:02</time>
      </trkpt>
      <trkpt lat="41.11592" lon="0.88286">
        <ele>575.2</ele>
        <time>2022-05-24 10:37:03</time>
      </trkpt>
      <trkpt lat="41.11594" lon="0.88291">
        <ele>575.2</ele>
        <time>2022-05-24 10:37:04</time>
      </trkpt>
      <trkpt lat="41.11597" lon="0.88297">
        <ele>575.2</ele>
        <time>2022-05-24 10:37:05</time>
      </trkpt>
      <trkpt lat="41.11599" lon="0.88302">
        <ele>575.2</ele>
        <time>2022-05-24 10:37:06</time>
      </trkpt>
      <trkpt lat="41.11601" lon="0.88307">
        <ele>575.2</ele>
        <time>2022-05-24 10:37:07</time>
      </trkpt>
      <trkpt lat="41.11602" lon="0.88313">
        <ele>575.2</ele>
        <time>2022-05-24 10:37:08</time>
      </trkpt>
      <trkpt lat="41.11604" lon="0.88319">
        <ele>575.2</ele>
        <time>2022-05-24 10:37:09</time>
      </trkpt>
      <trkpt lat="41.11605" lon="0.88324">
        <ele>575.2</ele>
        <time>2022-05-24 10:37:10</time>
      </trkpt>
      <trkpt lat="41.11605" lon="0.88328">
        <ele>575.2</ele>
        <time>2022-05-24 10:37:11</time>
      </trkpt>
      <trkpt lat="41.11606" lon="0.88331">
        <ele>575.2</ele>
        <time>2022-05-24 10:37:12</time>
      </trkpt>
      <trkpt lat="41.11606" lon="0.88333">
        <ele>575.2</ele>
        <time>2022-05-24 10:37:13</time>
      </trkpt>
      <trkpt lat="41.11606" lon="0.88335">
        <ele>575.4</ele>
        <time>2022-05-24 10:37:14</time>
      </trkpt>
      <trkpt lat="41.11604" lon="0.88337">
        <ele>575.4</ele>
        <time>2022-05-24 10:38:24</time>
      </trkpt>
      <trkpt lat="41.11603" lon="0.8834">
        <ele>575.4</ele>
        <time>2022-05-24 10:38:25</time>
      </trkpt>
      <trkpt lat="41.11602" lon="0.88342">
        <ele>575.4</ele>
        <time>2022-05-24 10:38:26</time>
      </trkpt>
      <trkpt lat="41.11602" lon="0.88346">
        <ele>575.2</ele>
        <time>2022-05-24 10:38:27</time>
      </trkpt>
      <trkpt lat="41.116" lon="0.88349">
        <ele>575.2</ele>
        <time>2022-05-24 10:38:28</time>
      </trkpt>
      <trkpt lat="41.11599" lon="0.88352">
        <ele>575.2</ele>
        <time>2022-05-24 10:38:29</time>
      </trkpt>
      <trkpt lat="41.11597" lon="0.88355">
        <ele>575.2</ele>
        <time>2022-05-24 10:38:30</time>
      </trkpt>
      <trkpt lat="41.11596" lon="0.88358">
        <ele>575</ele>
        <time>2022-05-24 10:38:31</time>
      </trkpt>
      <trkpt lat="41.11594" lon="0.88361">
        <ele>575</ele>
        <time>2022-05-24 10:38:32</time>
      </trkpt>
      <trkpt lat="41.11591" lon="0.88364">
        <ele>575</ele>
        <time>2022-05-24 10:38:33</time>
      </trkpt>
      <trkpt lat="41.11588" lon="0.88365">
        <ele>574.8</ele>
        <time>2022-05-24 10:38:34</time>
      </trkpt>
      <trkpt lat="41.11585" lon="0.88367">
        <ele>574.6</ele>
        <time>2022-05-24 10:38:35</time>
      </trkpt>
      <trkpt lat="41.11578" lon="0.8837">
        <ele>574.4</ele>
        <time>2022-05-24 10:38:36</time>
      </trkpt>
      <trkpt lat="41.11574" lon="0.88372">
        <ele>574</ele>
        <time>2022-05-24 10:38:37</time>
      </trkpt>
      <trkpt lat="41.11567" lon="0.88374">
        <ele>573.6</ele>
        <time>2022-05-24 10:38:38</time>
      </trkpt>
      <trkpt lat="41.11561" lon="0.88376">
        <ele>573.2</ele>
        <time>2022-05-24 10:38:39</time>
      </trkpt>
      <trkpt lat="41.11555" lon="0.88378">
        <ele>572.6</ele>
        <time>2022-05-24 10:38:40</time>
      </trkpt>
      <trkpt lat="41.11549" lon="0.8838">
        <ele>572</ele>
        <time>2022-05-24 10:38:41</time>
      </trkpt>
      <trkpt lat="41.11541" lon="0.88382">
        <ele>571.4</ele>
        <time>2022-05-24 10:38:42</time>
      </trkpt>
      <trkpt lat="41.11534" lon="0.88383">
        <ele>571</ele>
        <time>2022-05-24 10:38:43</time>
      </trkpt>
      <trkpt lat="41.11525" lon="0.88385">
        <ele>570</ele>
        <time>2022-05-24 10:38:44</time>
      </trkpt>
      <trkpt lat="41.11518" lon="0.88387">
        <ele>569.4</ele>
        <time>2022-05-24 10:38:45</time>
      </trkpt>
      <trkpt lat="41.11508" lon="0.88388">
        <ele>568.6</ele>
        <time>2022-05-24 10:38:46</time>
      </trkpt>
      <trkpt lat="41.115" lon="0.88387">
        <ele>568</ele>
        <time>2022-05-24 10:38:47</time>
      </trkpt>
      <trkpt lat="41.11492" lon="0.88383">
        <ele>567.6</ele>
        <time>2022-05-24 10:38:48</time>
      </trkpt>
      <trkpt lat="41.11487" lon="0.88376">
        <ele>567.4</ele>
        <time>2022-05-24 10:38:49</time>
      </trkpt>
      <trkpt lat="41.11483" lon="0.88366">
        <ele>567.2</ele>
        <time>2022-05-24 10:38:50</time>
      </trkpt>
      <trkpt lat="41.11483" lon="0.88357">
        <ele>567</ele>
        <time>2022-05-24 10:38:51</time>
      </trkpt>
      <trkpt lat="41.11482" lon="0.88347">
        <ele>567</ele>
        <time>2022-05-24 10:38:52</time>
      </trkpt>
      <trkpt lat="41.11481" lon="0.88339">
        <ele>567.2</ele>
        <time>2022-05-24 10:38:53</time>
      </trkpt>
      <trkpt lat="41.11481" lon="0.88328">
        <ele>567.2</ele>
        <time>2022-05-24 10:38:54</time>
      </trkpt>
      <trkpt lat="41.1148" lon="0.88321">
        <ele>567.2</ele>
        <time>2022-05-24 10:38:55</time>
      </trkpt>
      <trkpt lat="41.11477" lon="0.88311">
        <ele>567</ele>
        <time>2022-05-24 10:38:56</time>
      </trkpt>
      <trkpt lat="41.11473" lon="0.88306">
        <ele>567</ele>
        <time>2022-05-24 10:38:57</time>
      </trkpt>
      <trkpt lat="41.11468" lon="0.88302">
        <ele>566.8</ele>
        <time>2022-05-24 10:38:58</time>
      </trkpt>
      <trkpt lat="41.11464" lon="0.88301">
        <ele>566.6</ele>
        <time>2022-05-24 10:38:59</time>
      </trkpt>
      <trkpt lat="41.11456" lon="0.88305">
        <ele>566.2</ele>
        <time>2022-05-24 10:39:00</time>
      </trkpt>
      <trkpt lat="41.11451" lon="0.88311">
        <ele>566</ele>
        <time>2022-05-24 10:39:01</time>
      </trkpt>
      <trkpt lat="41.11443" lon="0.88318">
        <ele>565.6</ele>
        <time>2022-05-24 10:39:02</time>
      </trkpt>
      <trkpt lat="41.11437" lon="0.88321">
        <ele>565.2</ele>
        <time>2022-05-24 10:39:03</time>
      </trkpt>
      <trkpt lat="41.11428" lon="0.88325">
        <ele>564.8</ele>
        <time>2022-05-24 10:39:04</time>
      </trkpt>
      <trkpt lat="41.11421" lon="0.88326">
        <ele>564.4</ele>
        <time>2022-05-24 10:39:05</time>
      </trkpt>
      <trkpt lat="41.11412" lon="0.88324">
        <ele>563.8</ele>
        <time>2022-05-24 10:39:06</time>
      </trkpt>
      <trkpt lat="41.11405" lon="0.88322">
        <ele>563.4</ele>
        <time>2022-05-24 10:39:07</time>
      </trkpt>
      <trkpt lat="41.11395" lon="0.88321">
        <ele>562.6</ele>
        <time>2022-05-24 10:39:08</time>
      </trkpt>
      <trkpt lat="41.11388" lon="0.88323">
        <ele>562.2</ele>
        <time>2022-05-24 10:39:09</time>
      </trkpt>
      <trkpt lat="41.11379" lon="0.88329">
        <ele>561.6</ele>
        <time>2022-05-24 10:39:10</time>
      </trkpt>
      <trkpt lat="41.11373" lon="0.88336">
        <ele>561.2</ele>
        <time>2022-05-24 10:39:11</time>
      </trkpt>
      <trkpt lat="41.1137" lon="0.88349">
        <ele>560.8</ele>
        <time>2022-05-24 10:39:12</time>
      </trkpt>
      <trkpt lat="41.11371" lon="0.8836">
        <ele>560.6</ele>
        <time>2022-05-24 10:39:13</time>
      </trkpt>
      <trkpt lat="41.11372" lon="0.88372">
        <ele>560.2</ele>
        <time>2022-05-24 10:39:14</time>
      </trkpt>
      <trkpt lat="41.11373" lon="0.88384">
        <ele>559.8</ele>
        <time>2022-05-24 10:39:15</time>
      </trkpt>
      <trkpt lat="41.11374" lon="0.88401">
        <ele>559.6</ele>
        <time>2022-05-24 10:39:16</time>
      </trkpt>
      <trkpt lat="41.11373" lon="0.88415">
        <ele>559.2</ele>
        <time>2022-05-24 10:39:17</time>
      </trkpt>
      <trkpt lat="41.11371" lon="0.88426">
        <ele>558.8</ele>
        <time>2022-05-24 10:39:18</time>
      </trkpt>
      <trkpt lat="41.11369" lon="0.88437">
        <ele>558.4</ele>
        <time>2022-05-24 10:39:19</time>
      </trkpt>
      <trkpt lat="41.11367" lon="0.88448">
        <ele>558.2</ele>
        <time>2022-05-24 10:39:20</time>
      </trkpt>
      <trkpt lat="41.11362" lon="0.88466">
        <ele>557.6</ele>
        <time>2022-05-24 10:39:21</time>
      </trkpt>
      <trkpt lat="41.11358" lon="0.88476">
        <ele>557.2</ele>
        <time>2022-05-24 10:39:22</time>
      </trkpt>
      <trkpt lat="41.11352" lon="0.88491">
        <ele>556.8</ele>
        <time>2022-05-24 10:39:23</time>
      </trkpt>
      <trkpt lat="41.11347" lon="0.88498">
        <ele>556.4</ele>
        <time>2022-05-24 10:39:24</time>
      </trkpt>
      <trkpt lat="41.11338" lon="0.88504">
        <ele>556.2</ele>
        <time>2022-05-24 10:39:25</time>
      </trkpt>
      <trkpt lat="41.11331" lon="0.88501">
        <ele>555.8</ele>
        <time>2022-05-24 10:39:26</time>
      </trkpt>
      <trkpt lat="41.11323" lon="0.88497">
        <ele>555.4</ele>
        <time>2022-05-24 10:39:27</time>
      </trkpt>
      <trkpt lat="41.11316" lon="0.88489">
        <ele>555.2</ele>
        <time>2022-05-24 10:39:28</time>
      </trkpt>
      <trkpt lat="41.11309" lon="0.88482">
        <ele>554.8</ele>
        <time>2022-05-24 10:39:29</time>
      </trkpt>
      <trkpt lat="41.11302" lon="0.88475">
        <ele>554.4</ele>
        <time>2022-05-24 10:39:30</time>
      </trkpt>
      <trkpt lat="41.11294" lon="0.88468">
        <ele>554.4</ele>
        <time>2022-05-24 10:39:31</time>
      </trkpt>
      <trkpt lat="41.11287" lon="0.88461">
        <ele>554.2</ele>
        <time>2022-05-24 10:39:32</time>
      </trkpt>
      <trkpt lat="41.11282" lon="0.88454">
        <ele>553.8</ele>
        <time>2022-05-24 10:39:33</time>
      </trkpt>
      <trkpt lat="41.11276" lon="0.88443">
        <ele>553.6</ele>
        <time>2022-05-24 10:39:34</time>
      </trkpt>
      <trkpt lat="41.11272" lon="0.88433">
        <ele>553.2</ele>
        <time>2022-05-24 10:39:35</time>
      </trkpt>
      <trkpt lat="41.11268" lon="0.88423">
        <ele>553</ele>
        <time>2022-05-24 10:39:36</time>
      </trkpt>
      <trkpt lat="41.11264" lon="0.88415">
        <ele>552.8</ele>
        <time>2022-05-24 10:39:37</time>
      </trkpt>
      <trkpt lat="41.11257" lon="0.88408">
        <ele>552.4</ele>
        <time>2022-05-24 10:39:38</time>
      </trkpt>
      <trkpt lat="41.11251" lon="0.88404">
        <ele>552.2</ele>
        <time>2022-05-24 10:39:39</time>
      </trkpt>
      <trkpt lat="41.11242" lon="0.88403">
        <ele>552</ele>
        <time>2022-05-24 10:39:40</time>
      </trkpt>
      <trkpt lat="41.11235" lon="0.88406">
        <ele>551.8</ele>
        <time>2022-05-24 10:39:41</time>
      </trkpt>
      <trkpt lat="41.11228" lon="0.88413">
        <ele>551.2</ele>
        <time>2022-05-24 10:39:42</time>
      </trkpt>
      <trkpt lat="41.11224" lon="0.88422">
        <ele>550.6</ele>
        <time>2022-05-24 10:39:43</time>
      </trkpt>
      <trkpt lat="41.11218" lon="0.88432">
        <ele>549.8</ele>
        <time>2022-05-24 10:39:44</time>
      </trkpt>
      <trkpt lat="41.11211" lon="0.88437">
        <ele>549.2</ele>
        <time>2022-05-24 10:39:45</time>
      </trkpt>
      <trkpt lat="41.11202" lon="0.8844">
        <ele>548.6</ele>
        <time>2022-05-24 10:39:46</time>
      </trkpt>
      <trkpt lat="41.11194" lon="0.88439">
        <ele>547.8</ele>
        <time>2022-05-24 10:39:47</time>
      </trkpt>
      <trkpt lat="41.11184" lon="0.88439">
        <ele>547</ele>
        <time>2022-05-24 10:39:48</time>
      </trkpt>
      <trkpt lat="41.11173" lon="0.8844">
        <ele>546.2</ele>
        <time>2022-05-24 10:39:49</time>
      </trkpt>
      <trkpt lat="41.11166" lon="0.88442">
        <ele>545.6</ele>
        <time>2022-05-24 10:39:50</time>
      </trkpt>
      <trkpt lat="41.11156" lon="0.88447">
        <ele>545</ele>
        <time>2022-05-24 10:39:51</time>
      </trkpt>
      <trkpt lat="41.11146" lon="0.88455">
        <ele>544.4</ele>
        <time>2022-05-24 10:39:52</time>
      </trkpt>
      <trkpt lat="41.1114" lon="0.88463">
        <ele>543.8</ele>
        <time>2022-05-24 10:39:53</time>
      </trkpt>
      <trkpt lat="41.11135" lon="0.88473">
        <ele>543.2</ele>
        <time>2022-05-24 10:39:54</time>
      </trkpt>
      <trkpt lat="41.11131" lon="0.88485">
        <ele>542.4</ele>
        <time>2022-05-24 10:39:55</time>
      </trkpt>
      <trkpt lat="41.11129" lon="0.88497">
        <ele>542</ele>
        <time>2022-05-24 10:39:56</time>
      </trkpt>
      <trkpt lat="41.11129" lon="0.8851">
        <ele>541.4</ele>
        <time>2022-05-24 10:39:57</time>
      </trkpt>
      <trkpt lat="41.11129" lon="0.88523">
        <ele>540.6</ele>
        <time>2022-05-24 10:39:58</time>
      </trkpt>
      <trkpt lat="41.11136" lon="0.88539">
        <ele>539.8</ele>
        <time>2022-05-24 10:39:59</time>
      </trkpt>
      <trkpt lat="41.11143" lon="0.88553">
        <ele>539.2</ele>
        <time>2022-05-24 10:40:00</time>
      </trkpt>
      <trkpt lat="41.11147" lon="0.88566">
        <ele>538.8</ele>
        <time>2022-05-24 10:40:01</time>
      </trkpt>
      <trkpt lat="41.11151" lon="0.88579">
        <ele>538.4</ele>
        <time>2022-05-24 10:40:02</time>
      </trkpt>
      <trkpt lat="41.11153" lon="0.88592">
        <ele>537.8</ele>
        <time>2022-05-24 10:40:03</time>
      </trkpt>
      <trkpt lat="41.11153" lon="0.88606">
        <ele>537.2</ele>
        <time>2022-05-24 10:40:04</time>
      </trkpt>
      <trkpt lat="41.11153" lon="0.88618">
        <ele>536.4</ele>
        <time>2022-05-24 10:40:05</time>
      </trkpt>
      <trkpt lat="41.1115" lon="0.88632">
        <ele>535.6</ele>
        <time>2022-05-24 10:40:06</time>
      </trkpt>
      <trkpt lat="41.11145" lon="0.88644">
        <ele>535</ele>
        <time>2022-05-24 10:40:07</time>
      </trkpt>
      <trkpt lat="41.11139" lon="0.88653">
        <ele>534.4</ele>
        <time>2022-05-24 10:40:08</time>
      </trkpt>
      <trkpt lat="41.11131" lon="0.88661">
        <ele>533.6</ele>
        <time>2022-05-24 10:40:09</time>
      </trkpt>
      <trkpt lat="41.11123" lon="0.88668">
        <ele>532.8</ele>
        <time>2022-05-24 10:40:10</time>
      </trkpt>
      <trkpt lat="41.11112" lon="0.8867">
        <ele>532</ele>
        <time>2022-05-24 10:40:11</time>
      </trkpt>
      <trkpt lat="41.11102" lon="0.88672">
        <ele>531.2</ele>
        <time>2022-05-24 10:40:12</time>
      </trkpt>
      <trkpt lat="41.11092" lon="0.88672">
        <ele>530.6</ele>
        <time>2022-05-24 10:40:13</time>
      </trkpt>
      <trkpt lat="41.11082" lon="0.88671">
        <ele>529.8</ele>
        <time>2022-05-24 10:40:14</time>
      </trkpt>
      <trkpt lat="41.11071" lon="0.88669">
        <ele>529</ele>
        <time>2022-05-24 10:40:15</time>
      </trkpt>
      <trkpt lat="41.11062" lon="0.88668">
        <ele>528.4</ele>
        <time>2022-05-24 10:40:16</time>
      </trkpt>
      <trkpt lat="41.11055" lon="0.8867">
        <ele>527.6</ele>
        <time>2022-05-24 10:40:17</time>
      </trkpt>
      <trkpt lat="41.11045" lon="0.88676">
        <ele>526.6</ele>
        <time>2022-05-24 10:40:18</time>
      </trkpt>
      <trkpt lat="41.11038" lon="0.88682">
        <ele>526</ele>
        <time>2022-05-24 10:40:19</time>
      </trkpt>
      <trkpt lat="41.11033" lon="0.88692">
        <ele>525.2</ele>
        <time>2022-05-24 10:40:20</time>
      </trkpt>
      <trkpt lat="41.11031" lon="0.88704">
        <ele>524.4</ele>
        <time>2022-05-24 10:40:21</time>
      </trkpt>
      <trkpt lat="41.11029" lon="0.88715">
        <ele>523.6</ele>
        <time>2022-05-24 10:40:22</time>
      </trkpt>
      <trkpt lat="41.11027" lon="0.88728">
        <ele>522.8</ele>
        <time>2022-05-24 10:40:23</time>
      </trkpt>
      <trkpt lat="41.11026" lon="0.88739">
        <ele>522.2</ele>
        <time>2022-05-24 10:40:24</time>
      </trkpt>
      <trkpt lat="41.11024" lon="0.88755">
        <ele>521.2</ele>
        <time>2022-05-24 10:40:25</time>
      </trkpt>
      <trkpt lat="41.11022" lon="0.8877">
        <ele>520.2</ele>
        <time>2022-05-24 10:40:26</time>
      </trkpt>
      <trkpt lat="41.11021" lon="0.88784">
        <ele>519.2</ele>
        <time>2022-05-24 10:40:27</time>
      </trkpt>
      <trkpt lat="41.11018" lon="0.88799">
        <ele>518.2</ele>
        <time>2022-05-24 10:40:28</time>
      </trkpt>
      <trkpt lat="41.11015" lon="0.88813">
        <ele>517.2</ele>
        <time>2022-05-24 10:40:29</time>
      </trkpt>
      <trkpt lat="41.11011" lon="0.88828">
        <ele>516.6</ele>
        <time>2022-05-24 10:40:30</time>
      </trkpt>
      <trkpt lat="41.11005" lon="0.88843">
        <ele>515.8</ele>
        <time>2022-05-24 10:40:31</time>
      </trkpt>
      <trkpt lat="41.11" lon="0.88853">
        <ele>514.8</ele>
        <time>2022-05-24 10:40:32</time>
      </trkpt>
      <trkpt lat="41.10992" lon="0.88864">
        <ele>514</ele>
        <time>2022-05-24 10:40:33</time>
      </trkpt>
      <trkpt lat="41.10983" lon="0.88871">
        <ele>513</ele>
        <time>2022-05-24 10:40:34</time>
      </trkpt>
      <trkpt lat="41.10972" lon="0.88874">
        <ele>512.4</ele>
        <time>2022-05-24 10:40:35</time>
      </trkpt>
      <trkpt lat="41.10961" lon="0.88878">
        <ele>511.2</ele>
        <time>2022-05-24 10:40:36</time>
      </trkpt>
      <trkpt lat="41.1095" lon="0.88881">
        <ele>510.4</ele>
        <time>2022-05-24 10:40:37</time>
      </trkpt>
      <trkpt lat="41.10938" lon="0.88881">
        <ele>509.4</ele>
        <time>2022-05-24 10:40:38</time>
      </trkpt>
      <trkpt lat="41.10924" lon="0.88875">
        <ele>508.4</ele>
        <time>2022-05-24 10:40:39</time>
      </trkpt>
      <trkpt lat="41.10912" lon="0.8887">
        <ele>507.6</ele>
        <time>2022-05-24 10:40:40</time>
      </trkpt>
      <trkpt lat="41.10899" lon="0.88863">
        <ele>506.6</ele>
        <time>2022-05-24 10:40:41</time>
      </trkpt>
      <trkpt lat="41.10888" lon="0.88854">
        <ele>505.6</ele>
        <time>2022-05-24 10:40:42</time>
      </trkpt>
      <trkpt lat="41.10879" lon="0.88843">
        <ele>504.8</ele>
        <time>2022-05-24 10:40:43</time>
      </trkpt>
      <trkpt lat="41.10873" lon="0.8883">
        <ele>504.2</ele>
        <time>2022-05-24 10:40:44</time>
      </trkpt>
      <trkpt lat="41.10867" lon="0.88817">
        <ele>503.8</ele>
        <time>2022-05-24 10:40:45</time>
      </trkpt>
      <trkpt lat="41.10862" lon="0.88806">
        <ele>503.2</ele>
        <time>2022-05-24 10:40:46</time>
      </trkpt>
      <trkpt lat="41.10855" lon="0.88794">
        <ele>502.6</ele>
        <time>2022-05-24 10:40:47</time>
      </trkpt>
      <trkpt lat="41.10849" lon="0.88787">
        <ele>502.2</ele>
        <time>2022-05-24 10:40:48</time>
      </trkpt>
      <trkpt lat="41.10842" lon="0.88781">
        <ele>501.6</ele>
        <time>2022-05-24 10:40:49</time>
      </trkpt>
      <trkpt lat="41.10833" lon="0.88776">
        <ele>501</ele>
        <time>2022-05-24 10:40:50</time>
      </trkpt>
      <trkpt lat="41.10827" lon="0.88775">
        <ele>500.2</ele>
        <time>2022-05-24 10:40:51</time>
      </trkpt>
      <trkpt lat="41.10817" lon="0.88776">
        <ele>499.4</ele>
        <time>2022-05-24 10:40:52</time>
      </trkpt>
      <trkpt lat="41.10809" lon="0.88779">
        <ele>498.4</ele>
        <time>2022-05-24 10:40:53</time>
      </trkpt>
      <trkpt lat="41.10801" lon="0.88787">
        <ele>497.6</ele>
        <time>2022-05-24 10:40:54</time>
      </trkpt>
      <trkpt lat="41.10795" lon="0.88794">
        <ele>496.8</ele>
        <time>2022-05-24 10:40:55</time>
      </trkpt>
      <trkpt lat="41.10787" lon="0.88803">
        <ele>496.2</ele>
        <time>2022-05-24 10:40:56</time>
      </trkpt>
      <trkpt lat="41.10777" lon="0.88814">
        <ele>495.2</ele>
        <time>2022-05-24 10:40:57</time>
      </trkpt>
      <trkpt lat="41.10766" lon="0.88823">
        <ele>494.4</ele>
        <time>2022-05-24 10:40:58</time>
      </trkpt>
      <trkpt lat="41.10756" lon="0.8883">
        <ele>493.4</ele>
        <time>2022-05-24 10:40:59</time>
      </trkpt>
      <trkpt lat="41.10745" lon="0.88838">
        <ele>492.6</ele>
        <time>2022-05-24 10:41:00</time>
      </trkpt>
      <trkpt lat="41.10733" lon="0.88848">
        <ele>491.6</ele>
        <time>2022-05-24 10:41:01</time>
      </trkpt>
      <trkpt lat="41.10723" lon="0.88858">
        <ele>490.8</ele>
        <time>2022-05-24 10:41:02</time>
      </trkpt>
      <trkpt lat="41.10714" lon="0.88869">
        <ele>490.4</ele>
        <time>2022-05-24 10:41:03</time>
      </trkpt>
      <trkpt lat="41.10705" lon="0.88878">
        <ele>490</ele>
        <time>2022-05-24 10:41:04</time>
      </trkpt>
      <trkpt lat="41.10694" lon="0.88887">
        <ele>489.6</ele>
        <time>2022-05-24 10:41:05</time>
      </trkpt>
      <trkpt lat="41.10681" lon="0.88894">
        <ele>489.2</ele>
        <time>2022-05-24 10:41:06</time>
      </trkpt>
      <trkpt lat="41.10669" lon="0.88896">
        <ele>488.8</ele>
        <time>2022-05-24 10:41:07</time>
      </trkpt>
      <trkpt lat="41.10658" lon="0.88903">
        <ele>487.6</ele>
        <time>2022-05-24 10:41:08</time>
      </trkpt>
      <trkpt lat="41.10648" lon="0.88909">
        <ele>486.6</ele>
        <time>2022-05-24 10:41:09</time>
      </trkpt>
      <trkpt lat="41.10638" lon="0.88916">
        <ele>485.6</ele>
        <time>2022-05-24 10:41:10</time>
      </trkpt>
      <trkpt lat="41.10627" lon="0.88927">
        <ele>484.8</ele>
        <time>2022-05-24 10:41:11</time>
      </trkpt>
      <trkpt lat="41.10618" lon="0.88936">
        <ele>484</ele>
        <time>2022-05-24 10:41:12</time>
      </trkpt>
      <trkpt lat="41.10608" lon="0.88945">
        <ele>483.2</ele>
        <time>2022-05-24 10:41:13</time>
      </trkpt>
      <trkpt lat="41.10596" lon="0.88952">
        <ele>482.6</ele>
        <time>2022-05-24 10:41:14</time>
      </trkpt>
      <trkpt lat="41.10585" lon="0.88956">
        <ele>482</ele>
        <time>2022-05-24 10:41:15</time>
      </trkpt>
      <trkpt lat="41.10575" lon="0.88957">
        <ele>481.6</ele>
        <time>2022-05-24 10:41:16</time>
      </trkpt>
      <trkpt lat="41.10565" lon="0.88955">
        <ele>481.2</ele>
        <time>2022-05-24 10:41:17</time>
      </trkpt>
      <trkpt lat="41.10559" lon="0.88949">
        <ele>481</ele>
        <time>2022-05-24 10:41:18</time>
      </trkpt>
      <trkpt lat="41.10551" lon="0.8894">
        <ele>480.2</ele>
        <time>2022-05-24 10:41:19</time>
      </trkpt>
      <trkpt lat="41.10546" lon="0.88931">
        <ele>479.8</ele>
        <time>2022-05-24 10:41:20</time>
      </trkpt>
      <trkpt lat="41.10542" lon="0.88922">
        <ele>479.4</ele>
        <time>2022-05-24 10:41:21</time>
      </trkpt>
      <trkpt lat="41.10539" lon="0.88908">
        <ele>479</ele>
        <time>2022-05-24 10:41:22</time>
      </trkpt>
      <trkpt lat="41.10537" lon="0.88899">
        <ele>478.6</ele>
        <time>2022-05-24 10:41:23</time>
      </trkpt>
      <trkpt lat="41.10535" lon="0.88886">
        <ele>478.4</ele>
        <time>2022-05-24 10:41:24</time>
      </trkpt>
      <trkpt lat="41.10534" lon="0.88876">
        <ele>478.2</ele>
        <time>2022-05-24 10:41:25</time>
      </trkpt>
      <trkpt lat="41.10532" lon="0.88864">
        <ele>478</ele>
        <time>2022-05-24 10:41:26</time>
      </trkpt>
      <trkpt lat="41.1053" lon="0.88856">
        <ele>477.6</ele>
        <time>2022-05-24 10:41:27</time>
      </trkpt>
      <trkpt lat="41.10525" lon="0.88849">
        <ele>477.4</ele>
        <time>2022-05-24 10:41:28</time>
      </trkpt>
      <trkpt lat="41.10519" lon="0.88846">
        <ele>477</ele>
        <time>2022-05-24 10:41:29</time>
      </trkpt>
      <trkpt lat="41.1051" lon="0.88844">
        <ele>476.4</ele>
        <time>2022-05-24 10:41:30</time>
      </trkpt>
      <trkpt lat="41.10503" lon="0.88844">
        <ele>476</ele>
        <time>2022-05-24 10:41:31</time>
      </trkpt>
      <trkpt lat="41.1049" lon="0.88845">
        <ele>475.2</ele>
        <time>2022-05-24 10:41:32</time>
      </trkpt>
      <trkpt lat="41.10483" lon="0.88846">
        <ele>474.6</ele>
        <time>2022-05-24 10:41:33</time>
      </trkpt>
      <trkpt lat="41.1047" lon="0.88847">
        <ele>474</ele>
        <time>2022-05-24 10:41:34</time>
      </trkpt>
      <trkpt lat="41.1046" lon="0.88846">
        <ele>473.4</ele>
        <time>2022-05-24 10:41:35</time>
      </trkpt>
      <trkpt lat="41.1045" lon="0.88845">
        <ele>472.8</ele>
        <time>2022-05-24 10:41:36</time>
      </trkpt>
      <trkpt lat="41.10441" lon="0.88843">
        <ele>472.4</ele>
        <time>2022-05-24 10:41:37</time>
      </trkpt>
      <trkpt lat="41.10431" lon="0.88839">
        <ele>472</ele>
        <time>2022-05-24 10:41:38</time>
      </trkpt>
      <trkpt lat="41.10422" lon="0.88836">
        <ele>471.8</ele>
        <time>2022-05-24 10:41:39</time>
      </trkpt>
      <trkpt lat="41.10412" lon="0.88834">
        <ele>471.4</ele>
        <time>2022-05-24 10:41:40</time>
      </trkpt>
      <trkpt lat="41.10402" lon="0.88835">
        <ele>471</ele>
        <time>2022-05-24 10:41:41</time>
      </trkpt>
      <trkpt lat="41.10393" lon="0.88841">
        <ele>470.4</ele>
        <time>2022-05-24 10:41:42</time>
      </trkpt>
      <trkpt lat="41.10385" lon="0.8885">
        <ele>469.8</ele>
        <time>2022-05-24 10:41:43</time>
      </trkpt>
      <trkpt lat="41.10383" lon="0.88857">
        <ele>469.2</ele>
        <time>2022-05-24 10:41:44</time>
      </trkpt>
      <trkpt lat="41.10378" lon="0.88872">
        <ele>468.4</ele>
        <time>2022-05-24 10:41:45</time>
      </trkpt>
      <trkpt lat="41.10377" lon="0.88882">
        <ele>467.6</ele>
        <time>2022-05-24 10:41:46</time>
      </trkpt>
      <trkpt lat="41.10377" lon="0.88894">
        <ele>466.6</ele>
        <time>2022-05-24 10:41:47</time>
      </trkpt>
      <trkpt lat="41.10379" lon="0.88909">
        <ele>465.8</ele>
        <time>2022-05-24 10:41:48</time>
      </trkpt>
      <trkpt lat="41.10379" lon="0.88924">
        <ele>465</ele>
        <time>2022-05-24 10:41:49</time>
      </trkpt>
      <trkpt lat="41.10378" lon="0.88939">
        <ele>464.4</ele>
        <time>2022-05-24 10:41:50</time>
      </trkpt>
      <trkpt lat="41.10377" lon="0.88956">
        <ele>463.6</ele>
        <time>2022-05-24 10:41:51</time>
      </trkpt>
      <trkpt lat="41.10375" lon="0.88971">
        <ele>462.8</ele>
        <time>2022-05-24 10:41:52</time>
      </trkpt>
      <trkpt lat="41.10373" lon="0.88987">
        <ele>461.8</ele>
        <time>2022-05-24 10:41:53</time>
      </trkpt>
      <trkpt lat="41.1037" lon="0.89002">
        <ele>461.2</ele>
        <time>2022-05-24 10:41:54</time>
      </trkpt>
      <trkpt lat="41.10366" lon="0.89016">
        <ele>460.4</ele>
        <time>2022-05-24 10:41:55</time>
      </trkpt>
      <trkpt lat="41.10362" lon="0.89031">
        <ele>459.8</ele>
        <time>2022-05-24 10:41:56</time>
      </trkpt>
      <trkpt lat="41.10358" lon="0.89044">
        <ele>459</ele>
        <time>2022-05-24 10:41:57</time>
      </trkpt>
      <trkpt lat="41.10352" lon="0.8906">
        <ele>458.4</ele>
        <time>2022-05-24 10:41:58</time>
      </trkpt>
      <trkpt lat="41.10348" lon="0.89073">
        <ele>457.6</ele>
        <time>2022-05-24 10:41:59</time>
      </trkpt>
      <trkpt lat="41.10343" lon="0.89089">
        <ele>456.6</ele>
        <time>2022-05-24 10:42:00</time>
      </trkpt>
      <trkpt lat="41.10338" lon="0.89103">
        <ele>455.8</ele>
        <time>2022-05-24 10:42:01</time>
      </trkpt>
      <trkpt lat="41.10332" lon="0.89119">
        <ele>455</ele>
        <time>2022-05-24 10:42:02</time>
      </trkpt>
      <trkpt lat="41.10327" lon="0.89134">
        <ele>454</ele>
        <time>2022-05-24 10:42:03</time>
      </trkpt>
      <trkpt lat="41.10322" lon="0.8915">
        <ele>452.6</ele>
        <time>2022-05-24 10:42:04</time>
      </trkpt>
      <trkpt lat="41.10317" lon="0.89167">
        <ele>451.4</ele>
        <time>2022-05-24 10:42:05</time>
      </trkpt>
      <trkpt lat="41.10311" lon="0.89185">
        <ele>450.2</ele>
        <time>2022-05-24 10:42:06</time>
      </trkpt>
      <trkpt lat="41.10307" lon="0.89199">
        <ele>449.4</ele>
        <time>2022-05-24 10:42:07</time>
      </trkpt>
      <trkpt lat="41.10301" lon="0.89217">
        <ele>448.6</ele>
        <time>2022-05-24 10:42:08</time>
      </trkpt>
      <trkpt lat="41.10296" lon="0.89229">
        <ele>448</ele>
        <time>2022-05-24 10:42:09</time>
      </trkpt>
      <trkpt lat="41.10288" lon="0.89246">
        <ele>447.2</ele>
        <time>2022-05-24 10:42:10</time>
      </trkpt>
      <trkpt lat="41.1028" lon="0.89257">
        <ele>446.6</ele>
        <time>2022-05-24 10:42:11</time>
      </trkpt>
      <trkpt lat="41.10271" lon="0.89266">
        <ele>446.2</ele>
        <time>2022-05-24 10:42:12</time>
      </trkpt>
      <trkpt lat="41.10259" lon="0.89274">
        <ele>445.6</ele>
        <time>2022-05-24 10:42:13</time>
      </trkpt>
      <trkpt lat="41.10248" lon="0.89278">
        <ele>445</ele>
        <time>2022-05-24 10:42:14</time>
      </trkpt>
      <trkpt lat="41.10236" lon="0.8928">
        <ele>444.4</ele>
        <time>2022-05-24 10:42:15</time>
      </trkpt>
      <trkpt lat="41.10225" lon="0.89282">
        <ele>444</ele>
        <time>2022-05-24 10:42:16</time>
      </trkpt>
      <trkpt lat="41.10213" lon="0.89283">
        <ele>443.6</ele>
        <time>2022-05-24 10:42:17</time>
      </trkpt>
      <trkpt lat="41.10202" lon="0.89283">
        <ele>443.2</ele>
        <time>2022-05-24 10:42:18</time>
      </trkpt>
      <trkpt lat="41.10191" lon="0.89279">
        <ele>443</ele>
        <time>2022-05-24 10:42:19</time>
      </trkpt>
      <trkpt lat="41.10183" lon="0.89274">
        <ele>442.8</ele>
        <time>2022-05-24 10:42:20</time>
      </trkpt>
      <trkpt lat="41.10176" lon="0.89267">
        <ele>442.4</ele>
        <time>2022-05-24 10:42:21</time>
      </trkpt>
      <trkpt lat="41.10168" lon="0.89257">
        <ele>442.2</ele>
        <time>2022-05-24 10:42:22</time>
      </trkpt>
      <trkpt lat="41.10161" lon="0.8925">
        <ele>442</ele>
        <time>2022-05-24 10:42:23</time>
      </trkpt>
      <trkpt lat="41.10153" lon="0.89243">
        <ele>441.6</ele>
        <time>2022-05-24 10:42:24</time>
      </trkpt>
      <trkpt lat="41.10143" lon="0.89239">
        <ele>441.4</ele>
        <time>2022-05-24 10:42:25</time>
      </trkpt>
      <trkpt lat="41.10134" lon="0.89238">
        <ele>441</ele>
        <time>2022-05-24 10:42:26</time>
      </trkpt>
      <trkpt lat="41.10123" lon="0.89237">
        <ele>440.6</ele>
        <time>2022-05-24 10:42:27</time>
      </trkpt>
      <trkpt lat="41.10114" lon="0.89237">
        <ele>440.2</ele>
        <time>2022-05-24 10:42:28</time>
      </trkpt>
      <trkpt lat="41.10103" lon="0.89237">
        <ele>439.8</ele>
        <time>2022-05-24 10:42:29</time>
      </trkpt>
      <trkpt lat="41.10093" lon="0.89237">
        <ele>439.6</ele>
        <time>2022-05-24 10:42:30</time>
      </trkpt>
      <trkpt lat="41.10084" lon="0.89237">
        <ele>439.4</ele>
        <time>2022-05-24 10:42:31</time>
      </trkpt>
      <trkpt lat="41.10074" lon="0.89236">
        <ele>439.2</ele>
        <time>2022-05-24 10:42:32</time>
      </trkpt>
      <trkpt lat="41.10064" lon="0.89235">
        <ele>439</ele>
        <time>2022-05-24 10:42:33</time>
      </trkpt>
      <trkpt lat="41.10055" lon="0.89234">
        <ele>438.8</ele>
        <time>2022-05-24 10:42:34</time>
      </trkpt>
      <trkpt lat="41.10045" lon="0.89233">
        <ele>438.6</ele>
        <time>2022-05-24 10:42:35</time>
      </trkpt>
      <trkpt lat="41.10035" lon="0.89232">
        <ele>438.4</ele>
        <time>2022-05-24 10:42:36</time>
      </trkpt>
      <trkpt lat="41.10027" lon="0.89231">
        <ele>438.2</ele>
        <time>2022-05-24 10:42:37</time>
      </trkpt>
      <trkpt lat="41.10017" lon="0.8923">
        <ele>438</ele>
        <time>2022-05-24 10:42:38</time>
      </trkpt>
      <trkpt lat="41.10008" lon="0.89231">
        <ele>437.8</ele>
        <time>2022-05-24 10:42:39</time>
      </trkpt>
      <trkpt lat="41.09998" lon="0.89231">
        <ele>437.6</ele>
        <time>2022-05-24 10:42:40</time>
      </trkpt>
      <trkpt lat="41.09989" lon="0.8923">
        <ele>437.4</ele>
        <time>2022-05-24 10:42:41</time>
      </trkpt>
      <trkpt lat="41.09982" lon="0.89231">
        <ele>437</ele>
        <time>2022-05-24 10:42:42</time>
      </trkpt>
      <trkpt lat="41.09971" lon="0.8923">
        <ele>436.8</ele>
        <time>2022-05-24 10:42:43</time>
      </trkpt>
      <trkpt lat="41.09963" lon="0.89228">
        <ele>436.4</ele>
        <time>2022-05-24 10:42:44</time>
      </trkpt>
      <trkpt lat="41.09955" lon="0.89225">
        <ele>436.2</ele>
        <time>2022-05-24 10:42:45</time>
      </trkpt>
      <trkpt lat="41.09948" lon="0.89222">
        <ele>436</ele>
        <time>2022-05-24 10:42:46</time>
      </trkpt>
      <trkpt lat="41.09938" lon="0.89218">
        <ele>435.8</ele>
        <time>2022-05-24 10:42:47</time>
      </trkpt>
      <trkpt lat="41.09931" lon="0.89214">
        <ele>435.6</ele>
        <time>2022-05-24 10:42:48</time>
      </trkpt>
      <trkpt lat="41.09923" lon="0.89206">
        <ele>435.2</ele>
        <time>2022-05-24 10:42:49</time>
      </trkpt>
      <trkpt lat="41.09917" lon="0.892">
        <ele>434.8</ele>
        <time>2022-05-24 10:42:50</time>
      </trkpt>
      <trkpt lat="41.0991" lon="0.89191">
        <ele>434.4</ele>
        <time>2022-05-24 10:42:51</time>
      </trkpt>
      <trkpt lat="41.09905" lon="0.89185">
        <ele>434.2</ele>
        <time>2022-05-24 10:42:52</time>
      </trkpt>
      <trkpt lat="41.09898" lon="0.89173">
        <ele>434</ele>
        <time>2022-05-24 10:42:53</time>
      </trkpt>
      <trkpt lat="41.09894" lon="0.89167">
        <ele>434</ele>
        <time>2022-05-24 10:42:54</time>
      </trkpt>
      <trkpt lat="41.09886" lon="0.89155">
        <ele>433.6</ele>
        <time>2022-05-24 10:42:55</time>
      </trkpt>
      <trkpt lat="41.09882" lon="0.89148">
        <ele>433.4</ele>
        <time>2022-05-24 10:42:56</time>
      </trkpt>
      <trkpt lat="41.09876" lon="0.89136">
        <ele>433.2</ele>
        <time>2022-05-24 10:42:57</time>
      </trkpt>
      <trkpt lat="41.09872" lon="0.89129">
        <ele>432.8</ele>
        <time>2022-05-24 10:42:58</time>
      </trkpt>
      <trkpt lat="41.09866" lon="0.89117">
        <ele>432.4</ele>
        <time>2022-05-24 10:42:59</time>
      </trkpt>
      <trkpt lat="41.09863" lon="0.89113">
        <ele>432.2</ele>
        <time>2022-05-24 10:43:00</time>
      </trkpt>
      <trkpt lat="41.0986" lon="0.89109">
        <ele>432</ele>
        <time>2022-05-24 10:43:01</time>
      </trkpt>
      <trkpt lat="41.09848" lon="0.89091">
        <ele>431.8</ele>
        <time>2022-05-24 10:43:02</time>
      </trkpt>
      <trkpt lat="41.09843" lon="0.89083">
        <ele>431.4</ele>
        <time>2022-05-24 10:43:03</time>
      </trkpt>
      <trkpt lat="41.09837" lon="0.89073">
        <ele>430.8</ele>
        <time>2022-05-24 10:43:04</time>
      </trkpt>
      <trkpt lat="41.09832" lon="0.89064">
        <ele>430.6</ele>
        <time>2022-05-24 10:43:05</time>
      </trkpt>
      <trkpt lat="41.09829" lon="0.89053">
        <ele>430</ele>
        <time>2022-05-24 10:43:06</time>
      </trkpt>
      <trkpt lat="41.09827" lon="0.89043">
        <ele>429.8</ele>
        <time>2022-05-24 10:43:07</time>
      </trkpt>
      <trkpt lat="41.09827" lon="0.89033">
        <ele>429.6</ele>
        <time>2022-05-24 10:43:08</time>
      </trkpt>
      <trkpt lat="41.09828" lon="0.89023">
        <ele>429.2</ele>
        <time>2022-05-24 10:43:09</time>
      </trkpt>
      <trkpt lat="41.0983" lon="0.89012">
        <ele>429</ele>
        <time>2022-05-24 10:43:10</time>
      </trkpt>
      <trkpt lat="41.09832" lon="0.89003">
        <ele>429</ele>
        <time>2022-05-24 10:43:11</time>
      </trkpt>
      <trkpt lat="41.09834" lon="0.88993">
        <ele>429</ele>
        <time>2022-05-24 10:43:12</time>
      </trkpt>
      <trkpt lat="41.09836" lon="0.88983">
        <ele>429</ele>
        <time>2022-05-24 10:43:13</time>
      </trkpt>
      <trkpt lat="41.09836" lon="0.88974">
        <ele>429.2</ele>
        <time>2022-05-24 10:43:14</time>
      </trkpt>
      <trkpt lat="41.09836" lon="0.88965">
        <ele>429.2</ele>
        <time>2022-05-24 10:43:15</time>
      </trkpt>
      <trkpt lat="41.0984" lon="0.88955">
        <ele>429.2</ele>
        <time>2022-05-24 10:43:16</time>
      </trkpt>
      <trkpt lat="41.09838" lon="0.88947">
        <ele>429.4</ele>
        <time>2022-05-24 10:43:17</time>
      </trkpt>
      <trkpt lat="41.09836" lon="0.88937">
        <ele>429.4</ele>
        <time>2022-05-24 10:43:18</time>
      </trkpt>
      <trkpt lat="41.09834" lon="0.88928">
        <ele>429.2</ele>
        <time>2022-05-24 10:43:19</time>
      </trkpt>
      <trkpt lat="41.09833" lon="0.8892">
        <ele>429.2</ele>
        <time>2022-05-24 10:43:20</time>
      </trkpt>
      <trkpt lat="41.09834" lon="0.88911">
        <ele>429</ele>
        <time>2022-05-24 10:43:21</time>
      </trkpt>
      <trkpt lat="41.09836" lon="0.88903">
        <ele>429</ele>
        <time>2022-05-24 10:43:22</time>
      </trkpt>
      <trkpt lat="41.09838" lon="0.88896">
        <ele>429</ele>
        <time>2022-05-24 10:43:23</time>
      </trkpt>
      <trkpt lat="41.09842" lon="0.88891">
        <ele>429.2</ele>
        <time>2022-05-24 10:43:24</time>
      </trkpt>
      <trkpt lat="41.09846" lon="0.88886">
        <ele>429.2</ele>
        <time>2022-05-24 10:43:25</time>
      </trkpt>
      <trkpt lat="41.09851" lon="0.88882">
        <ele>429.2</ele>
        <time>2022-05-24 10:43:26</time>
      </trkpt>
      <trkpt lat="41.09856" lon="0.88879">
        <ele>429.2</ele>
        <time>2022-05-24 10:43:27</time>
      </trkpt>
      <trkpt lat="41.09861" lon="0.88875">
        <ele>429.2</ele>
        <time>2022-05-24 10:43:28</time>
      </trkpt>
      <trkpt lat="41.09866" lon="0.88871">
        <ele>429.2</ele>
        <time>2022-05-24 10:43:29</time>
      </trkpt>
      <trkpt lat="41.09871" lon="0.88867">
        <ele>429.6</ele>
        <time>2022-05-24 10:43:30</time>
      </trkpt>
      <trkpt lat="41.09876" lon="0.88862">
        <ele>429.6</ele>
        <time>2022-05-24 10:43:31</time>
      </trkpt>
      <trkpt lat="41.0988" lon="0.88857">
        <ele>429.8</ele>
        <time>2022-05-24 10:43:32</time>
      </trkpt>
      <trkpt lat="41.09885" lon="0.88851">
        <ele>429.8</ele>
        <time>2022-05-24 10:43:33</time>
      </trkpt>
      <trkpt lat="41.09888" lon="0.88844">
        <ele>429.8</ele>
        <time>2022-05-24 10:43:34</time>
      </trkpt>
      <trkpt lat="41.0989" lon="0.88837">
        <ele>429.8</ele>
        <time>2022-05-24 10:43:35</time>
      </trkpt>
      <trkpt lat="41.09893" lon="0.88829">
        <ele>429.8</ele>
        <time>2022-05-24 10:43:36</time>
      </trkpt>
      <trkpt lat="41.09894" lon="0.88821">
        <ele>429.6</ele>
        <time>2022-05-24 10:43:37</time>
      </trkpt>
      <trkpt lat="41.09896" lon="0.88813">
        <ele>429.6</ele>
        <time>2022-05-24 10:43:38</time>
      </trkpt>
      <trkpt lat="41.09897" lon="0.88804">
        <ele>429.4</ele>
        <time>2022-05-24 10:43:39</time>
      </trkpt>
      <trkpt lat="41.09898" lon="0.88795">
        <ele>429.2</ele>
        <time>2022-05-24 10:43:40</time>
      </trkpt>
      <trkpt lat="41.09898" lon="0.88786">
        <ele>429</ele>
        <time>2022-05-24 10:43:41</time>
      </trkpt>
      <trkpt lat="41.09897" lon="0.88778">
        <ele>428.8</ele>
        <time>2022-05-24 10:43:42</time>
      </trkpt>
      <trkpt lat="41.09894" lon="0.88772">
        <ele>428.6</ele>
        <time>2022-05-24 10:43:43</time>
      </trkpt>
      <trkpt lat="41.09889" lon="0.88769">
        <ele>428.2</ele>
        <time>2022-05-24 10:43:44</time>
      </trkpt>
      <trkpt lat="41.09884" lon="0.88764">
        <ele>427.8</ele>
        <time>2022-05-24 10:43:45</time>
      </trkpt>
      <trkpt lat="41.09875" lon="0.88759">
        <ele>427.6</ele>
        <time>2022-05-24 10:43:46</time>
      </trkpt>
      <trkpt lat="41.09869" lon="0.88755">
        <ele>427</ele>
        <time>2022-05-24 10:43:47</time>
      </trkpt>
      <trkpt lat="41.09862" lon="0.88751">
        <ele>426.4</ele>
        <time>2022-05-24 10:43:48</time>
      </trkpt>
      <trkpt lat="41.09856" lon="0.88745">
        <ele>425.6</ele>
        <time>2022-05-24 10:43:49</time>
      </trkpt>
      <trkpt lat="41.09849" lon="0.88735">
        <ele>424.6</ele>
        <time>2022-05-24 10:43:50</time>
      </trkpt>
      <trkpt lat="41.09845" lon="0.88725">
        <ele>423.8</ele>
        <time>2022-05-24 10:43:51</time>
      </trkpt>
      <trkpt lat="41.09842" lon="0.88713">
        <ele>423</ele>
        <time>2022-05-24 10:43:52</time>
      </trkpt>
      <trkpt lat="41.0984" lon="0.88702">
        <ele>422.4</ele>
        <time>2022-05-24 10:43:53</time>
      </trkpt>
      <trkpt lat="41.09841" lon="0.8869">
        <ele>422</ele>
        <time>2022-05-24 10:43:54</time>
      </trkpt>
      <trkpt lat="41.09842" lon="0.8868">
        <ele>421.6</ele>
        <time>2022-05-24 10:43:55</time>
      </trkpt>
      <trkpt lat="41.09844" lon="0.88671">
        <ele>421.2</ele>
        <time>2022-05-24 10:43:56</time>
      </trkpt>
      <trkpt lat="41.09846" lon="0.8866">
        <ele>420.8</ele>
        <time>2022-05-24 10:43:57</time>
      </trkpt>
      <trkpt lat="41.09849" lon="0.8865">
        <ele>420.4</ele>
        <time>2022-05-24 10:43:58</time>
      </trkpt>
      <trkpt lat="41.09852" lon="0.8864">
        <ele>420</ele>
        <time>2022-05-24 10:43:59</time>
      </trkpt>
      <trkpt lat="41.09855" lon="0.88629">
        <ele>419.6</ele>
        <time>2022-05-24 10:44:00</time>
      </trkpt>
      <trkpt lat="41.09858" lon="0.88619">
        <ele>419.4</ele>
        <time>2022-05-24 10:44:01</time>
      </trkpt>
      <trkpt lat="41.09861" lon="0.88608">
        <ele>418.8</ele>
        <time>2022-05-24 10:44:02</time>
      </trkpt>
      <trkpt lat="41.09864" lon="0.88597">
        <ele>418.2</ele>
        <time>2022-05-24 10:44:03</time>
      </trkpt>
      <trkpt lat="41.09866" lon="0.88586">
        <ele>417.8</ele>
        <time>2022-05-24 10:44:04</time>
      </trkpt>
      <trkpt lat="41.09867" lon="0.88576">
        <ele>417.4</ele>
        <time>2022-05-24 10:44:05</time>
      </trkpt>
      <trkpt lat="41.09866" lon="0.88564">
        <ele>417</ele>
        <time>2022-05-24 10:44:06</time>
      </trkpt>
      <trkpt lat="41.09864" lon="0.88553">
        <ele>416.4</ele>
        <time>2022-05-24 10:44:07</time>
      </trkpt>
      <trkpt lat="41.09859" lon="0.88542">
        <ele>415.8</ele>
        <time>2022-05-24 10:44:08</time>
      </trkpt>
      <trkpt lat="41.09853" lon="0.88532">
        <ele>415.4</ele>
        <time>2022-05-24 10:44:09</time>
      </trkpt>
      <trkpt lat="41.09847" lon="0.88525">
        <ele>414.8</ele>
        <time>2022-05-24 10:44:10</time>
      </trkpt>
      <trkpt lat="41.09837" lon="0.88518">
        <ele>414.6</ele>
        <time>2022-05-24 10:44:11</time>
      </trkpt>
      <trkpt lat="41.09827" lon="0.88513">
        <ele>414.2</ele>
        <time>2022-05-24 10:44:12</time>
      </trkpt>
      <trkpt lat="41.09818" lon="0.88511">
        <ele>413.8</ele>
        <time>2022-05-24 10:44:13</time>
      </trkpt>
      <trkpt lat="41.09808" lon="0.88509">
        <ele>413.4</ele>
        <time>2022-05-24 10:44:14</time>
      </trkpt>
      <trkpt lat="41.09798" lon="0.88509">
        <ele>412.8</ele>
        <time>2022-05-24 10:44:15</time>
      </trkpt>
      <trkpt lat="41.09788" lon="0.88506">
        <ele>412.4</ele>
        <time>2022-05-24 10:44:16</time>
      </trkpt>
      <trkpt lat="41.09778" lon="0.88504">
        <ele>412</ele>
        <time>2022-05-24 10:44:17</time>
      </trkpt>
      <trkpt lat="41.09768" lon="0.88504">
        <ele>411.4</ele>
        <time>2022-05-24 10:44:18</time>
      </trkpt>
      <trkpt lat="41.09759" lon="0.88506">
        <ele>411.2</ele>
        <time>2022-05-24 10:44:19</time>
      </trkpt>
      <trkpt lat="41.09749" lon="0.8851">
        <ele>410.8</ele>
        <time>2022-05-24 10:44:20</time>
      </trkpt>
      <trkpt lat="41.09739" lon="0.88515">
        <ele>410.6</ele>
        <time>2022-05-24 10:44:21</time>
      </trkpt>
      <trkpt lat="41.0973" lon="0.88523">
        <ele>410.4</ele>
        <time>2022-05-24 10:44:22</time>
      </trkpt>
      <trkpt lat="41.09723" lon="0.88532">
        <ele>410.4</ele>
        <time>2022-05-24 10:44:23</time>
      </trkpt>
      <trkpt lat="41.09717" lon="0.88541">
        <ele>410.4</ele>
        <time>2022-05-24 10:44:24</time>
      </trkpt>
      <trkpt lat="41.09711" lon="0.88551">
        <ele>410.2</ele>
        <time>2022-05-24 10:44:25</time>
      </trkpt>
      <trkpt lat="41.09703" lon="0.88561">
        <ele>409.8</ele>
        <time>2022-05-24 10:44:26</time>
      </trkpt>
      <trkpt lat="41.09695" lon="0.88569">
        <ele>408.8</ele>
        <time>2022-05-24 10:44:27</time>
      </trkpt>
      <trkpt lat="41.09685" lon="0.88576">
        <ele>408</ele>
        <time>2022-05-24 10:44:28</time>
      </trkpt>
      <trkpt lat="41.09674" lon="0.88584">
        <ele>407</ele>
        <time>2022-05-24 10:44:29</time>
      </trkpt>
      <trkpt lat="41.09664" lon="0.88593">
        <ele>406.2</ele>
        <time>2022-05-24 10:44:30</time>
      </trkpt>
      <trkpt lat="41.09655" lon="0.88601">
        <ele>405.6</ele>
        <time>2022-05-24 10:44:31</time>
      </trkpt>
      <trkpt lat="41.09643" lon="0.8861">
        <ele>404.8</ele>
        <time>2022-05-24 10:44:32</time>
      </trkpt>
      <trkpt lat="41.09633" lon="0.88619">
        <ele>404.2</ele>
        <time>2022-05-24 10:44:33</time>
      </trkpt>
      <trkpt lat="41.09623" lon="0.88627">
        <ele>403.2</ele>
        <time>2022-05-24 10:44:34</time>
      </trkpt>
      <trkpt lat="41.09612" lon="0.88636">
        <ele>402.4</ele>
        <time>2022-05-24 10:44:35</time>
      </trkpt>
      <trkpt lat="41.09601" lon="0.88645">
        <ele>401.6</ele>
        <time>2022-05-24 10:44:36</time>
      </trkpt>
      <trkpt lat="41.09592" lon="0.88653">
        <ele>401</ele>
        <time>2022-05-24 10:44:37</time>
      </trkpt>
      <trkpt lat="41.09582" lon="0.88661">
        <ele>400.4</ele>
        <time>2022-05-24 10:44:38</time>
      </trkpt>
      <trkpt lat="41.09572" lon="0.88669">
        <ele>399.8</ele>
        <time>2022-05-24 10:44:39</time>
      </trkpt>
      <trkpt lat="41.09563" lon="0.88677">
        <ele>399.2</ele>
        <time>2022-05-24 10:44:40</time>
      </trkpt>
      <trkpt lat="41.09552" lon="0.88686">
        <ele>398.6</ele>
        <time>2022-05-24 10:44:41</time>
      </trkpt>
      <trkpt lat="41.09542" lon="0.88694">
        <ele>398</ele>
        <time>2022-05-24 10:44:42</time>
      </trkpt>
      <trkpt lat="41.09532" lon="0.88703">
        <ele>397.4</ele>
        <time>2022-05-24 10:44:43</time>
      </trkpt>
      <trkpt lat="41.09523" lon="0.88712">
        <ele>396.8</ele>
        <time>2022-05-24 10:44:44</time>
      </trkpt>
      <trkpt lat="41.09513" lon="0.8872">
        <ele>396.4</ele>
        <time>2022-05-24 10:44:45</time>
      </trkpt>
      <trkpt lat="41.09503" lon="0.88727">
        <ele>396.2</ele>
        <time>2022-05-24 10:44:46</time>
      </trkpt>
      <trkpt lat="41.09494" lon="0.88735">
        <ele>395.8</ele>
        <time>2022-05-24 10:44:47</time>
      </trkpt>
      <trkpt lat="41.09485" lon="0.88743">
        <ele>395.6</ele>
        <time>2022-05-24 10:44:48</time>
      </trkpt>
      <trkpt lat="41.09475" lon="0.8875">
        <ele>395.4</ele>
        <time>2022-05-24 10:44:49</time>
      </trkpt>
      <trkpt lat="41.09466" lon="0.88753">
        <ele>395.2</ele>
        <time>2022-05-24 10:44:50</time>
      </trkpt>
      <trkpt lat="41.09457" lon="0.8875">
        <ele>394.8</ele>
        <time>2022-05-24 10:44:51</time>
      </trkpt>
      <trkpt lat="41.09449" lon="0.88741">
        <ele>394.4</ele>
        <time>2022-05-24 10:44:52</time>
      </trkpt>
      <trkpt lat="41.09443" lon="0.8873">
        <ele>394</ele>
        <time>2022-05-24 10:44:53</time>
      </trkpt>
      <trkpt lat="41.09439" lon="0.88722">
        <ele>393.8</ele>
        <time>2022-05-24 10:44:54</time>
      </trkpt>
      <trkpt lat="41.09431" lon="0.88711">
        <ele>393.4</ele>
        <time>2022-05-24 10:44:55</time>
      </trkpt>
      <trkpt lat="41.09423" lon="0.88702">
        <ele>392.8</ele>
        <time>2022-05-24 10:44:56</time>
      </trkpt>
      <trkpt lat="41.09417" lon="0.88694">
        <ele>392.2</ele>
        <time>2022-05-24 10:44:57</time>
      </trkpt>
      <trkpt lat="41.09409" lon="0.88686">
        <ele>391.6</ele>
        <time>2022-05-24 10:44:58</time>
      </trkpt>
      <trkpt lat="41.09402" lon="0.88679">
        <ele>391.2</ele>
        <time>2022-05-24 10:44:59</time>
      </trkpt>
      <trkpt lat="41.09394" lon="0.88674">
        <ele>390.6</ele>
        <time>2022-05-24 10:45:00</time>
      </trkpt>
      <trkpt lat="41.09384" lon="0.88671">
        <ele>390</ele>
        <time>2022-05-24 10:45:01</time>
      </trkpt>
      <trkpt lat="41.09375" lon="0.88676">
        <ele>389.6</ele>
        <time>2022-05-24 10:45:02</time>
      </trkpt>
      <trkpt lat="41.09368" lon="0.88684">
        <ele>389.4</ele>
        <time>2022-05-24 10:45:03</time>
      </trkpt>
      <trkpt lat="41.09364" lon="0.88695">
        <ele>389.4</ele>
        <time>2022-05-24 10:45:04</time>
      </trkpt>
      <trkpt lat="41.0936" lon="0.88705">
        <ele>389.2</ele>
        <time>2022-05-24 10:45:05</time>
      </trkpt>
      <trkpt lat="41.09358" lon="0.88715">
        <ele>389.4</ele>
        <time>2022-05-24 10:45:06</time>
      </trkpt>
      <trkpt lat="41.09357" lon="0.88726">
        <ele>389.6</ele>
        <time>2022-05-24 10:45:07</time>
      </trkpt>
      <trkpt lat="41.09357" lon="0.88736">
        <ele>389.8</ele>
        <time>2022-05-24 10:45:08</time>
      </trkpt>
      <trkpt lat="41.09357" lon="0.88745">
        <ele>390.2</ele>
        <time>2022-05-24 10:45:09</time>
      </trkpt>
      <trkpt lat="41.09357" lon="0.88754">
        <ele>390.4</ele>
        <time>2022-05-24 10:45:10</time>
      </trkpt>
      <trkpt lat="41.09356" lon="0.88763">
        <ele>390.6</ele>
        <time>2022-05-24 10:45:11</time>
      </trkpt>
      <trkpt lat="41.09354" lon="0.88771">
        <ele>390.8</ele>
        <time>2022-05-24 10:45:12</time>
      </trkpt>
      <trkpt lat="41.09352" lon="0.88779">
        <ele>391</ele>
        <time>2022-05-24 10:45:13</time>
      </trkpt>
      <trkpt lat="41.09351" lon="0.88787">
        <ele>391.4</ele>
        <time>2022-05-24 10:45:14</time>
      </trkpt>
      <trkpt lat="41.09349" lon="0.88794">
        <ele>391.6</ele>
        <time>2022-05-24 10:45:15</time>
      </trkpt>
      <trkpt lat="41.09346" lon="0.88803">
        <ele>391.8</ele>
        <time>2022-05-24 10:45:16</time>
      </trkpt>
      <trkpt lat="41.09344" lon="0.8881">
        <ele>392</ele>
        <time>2022-05-24 10:45:17</time>
      </trkpt>
      <trkpt lat="41.09343" lon="0.88817">
        <ele>392.2</ele>
        <time>2022-05-24 10:45:18</time>
      </trkpt>
      <trkpt lat="41.09341" lon="0.88825">
        <ele>392.4</ele>
        <time>2022-05-24 10:45:19</time>
      </trkpt>
      <trkpt lat="41.09341" lon="0.88833">
        <ele>392.6</ele>
        <time>2022-05-24 10:45:20</time>
      </trkpt>
      <trkpt lat="41.0934" lon="0.8884">
        <ele>392.8</ele>
        <time>2022-05-24 10:45:21</time>
      </trkpt>
      <trkpt lat="41.0934" lon="0.88847">
        <ele>392.8</ele>
        <time>2022-05-24 10:45:22</time>
      </trkpt>
      <trkpt lat="41.0934" lon="0.88855">
        <ele>393</ele>
        <time>2022-05-24 10:45:23</time>
      </trkpt>
      <trkpt lat="41.0934" lon="0.88862">
        <ele>393</ele>
        <time>2022-05-24 10:45:24</time>
      </trkpt>
      <trkpt lat="41.0934" lon="0.88871">
        <ele>393</ele>
        <time>2022-05-24 10:45:25</time>
      </trkpt>
      <trkpt lat="41.0934" lon="0.88878">
        <ele>393</ele>
        <time>2022-05-24 10:45:26</time>
      </trkpt>
      <trkpt lat="41.0934" lon="0.88886">
        <ele>393</ele>
        <time>2022-05-24 10:45:27</time>
      </trkpt>
      <trkpt lat="41.09338" lon="0.88896">
        <ele>392.8</ele>
        <time>2022-05-24 10:45:28</time>
      </trkpt>
      <trkpt lat="41.09337" lon="0.88905">
        <ele>392.6</ele>
        <time>2022-05-24 10:45:29</time>
      </trkpt>
      <trkpt lat="41.09333" lon="0.88914">
        <ele>392.4</ele>
        <time>2022-05-24 10:45:30</time>
      </trkpt>
      <trkpt lat="41.0933" lon="0.88922">
        <ele>392</ele>
        <time>2022-05-24 10:45:31</time>
      </trkpt>
      <trkpt lat="41.09327" lon="0.88931">
        <ele>391.8</ele>
        <time>2022-05-24 10:45:32</time>
      </trkpt>
      <trkpt lat="41.09322" lon="0.88939">
        <ele>391.6</ele>
        <time>2022-05-24 10:45:33</time>
      </trkpt>
      <trkpt lat="41.09319" lon="0.88948">
        <ele>391.2</ele>
        <time>2022-05-24 10:45:34</time>
      </trkpt>
      <trkpt lat="41.09316" lon="0.88957">
        <ele>390.8</ele>
        <time>2022-05-24 10:45:35</time>
      </trkpt>
      <trkpt lat="41.09313" lon="0.88967">
        <ele>390.4</ele>
        <time>2022-05-24 10:45:36</time>
      </trkpt>
      <trkpt lat="41.09313" lon="0.88978">
        <ele>390</ele>
        <time>2022-05-24 10:45:37</time>
      </trkpt>
      <trkpt lat="41.09314" lon="0.88991">
        <ele>389.6</ele>
        <time>2022-05-24 10:45:38</time>
      </trkpt>
      <trkpt lat="41.09317" lon="0.89003">
        <ele>389.2</ele>
        <time>2022-05-24 10:45:39</time>
      </trkpt>
      <trkpt lat="41.09319" lon="0.89015">
        <ele>388.8</ele>
        <time>2022-05-24 10:45:40</time>
      </trkpt>
      <trkpt lat="41.09321" lon="0.89025">
        <ele>388.4</ele>
        <time>2022-05-24 10:45:41</time>
      </trkpt>
      <trkpt lat="41.09321" lon="0.89035">
        <ele>388.2</ele>
        <time>2022-05-24 10:45:42</time>
      </trkpt>
      <trkpt lat="41.09319" lon="0.89046">
        <ele>387.6</ele>
        <time>2022-05-24 10:45:43</time>
      </trkpt>
      <trkpt lat="41.09316" lon="0.89057">
        <ele>387.4</ele>
        <time>2022-05-24 10:45:44</time>
      </trkpt>
      <trkpt lat="41.09315" lon="0.89069">
        <ele>386.8</ele>
        <time>2022-05-24 10:45:45</time>
      </trkpt>
      <trkpt lat="41.09314" lon="0.8908">
        <ele>386.6</ele>
        <time>2022-05-24 10:45:46</time>
      </trkpt>
      <trkpt lat="41.09316" lon="0.89091">
        <ele>386.2</ele>
        <time>2022-05-24 10:45:47</time>
      </trkpt>
      <trkpt lat="41.0932" lon="0.89101">
        <ele>386</ele>
        <time>2022-05-24 10:45:48</time>
      </trkpt>
      <trkpt lat="41.09326" lon="0.89109">
        <ele>386</ele>
        <time>2022-05-24 10:45:49</time>
      </trkpt>
      <trkpt lat="41.09332" lon="0.89115">
        <ele>385.8</ele>
        <time>2022-05-24 10:45:50</time>
      </trkpt>
      <trkpt lat="41.0934" lon="0.89122">
        <ele>385.6</ele>
        <time>2022-05-24 10:45:51</time>
      </trkpt>
      <trkpt lat="41.09347" lon="0.89127">
        <ele>385.4</ele>
        <time>2022-05-24 10:45:52</time>
      </trkpt>
      <trkpt lat="41.09354" lon="0.89132">
        <ele>385.2</ele>
        <time>2022-05-24 10:45:53</time>
      </trkpt>
      <trkpt lat="41.09362" lon="0.89136">
        <ele>384.8</ele>
        <time>2022-05-24 10:45:54</time>
      </trkpt>
      <trkpt lat="41.09369" lon="0.89139">
        <ele>384.6</ele>
        <time>2022-05-24 10:45:55</time>
      </trkpt>
      <trkpt lat="41.09378" lon="0.89144">
        <ele>384.4</ele>
        <time>2022-05-24 10:45:56</time>
      </trkpt>
      <trkpt lat="41.09385" lon="0.89148">
        <ele>384.4</ele>
        <time>2022-05-24 10:45:57</time>
      </trkpt>
      <trkpt lat="41.09392" lon="0.89152">
        <ele>384.2</ele>
        <time>2022-05-24 10:45:58</time>
      </trkpt>
      <trkpt lat="41.09399" lon="0.89157">
        <ele>384.2</ele>
        <time>2022-05-24 10:45:59</time>
      </trkpt>
      <trkpt lat="41.09405" lon="0.89164">
        <ele>384</ele>
        <time>2022-05-24 10:46:00</time>
      </trkpt>
      <trkpt lat="41.0941" lon="0.89172">
        <ele>383.8</ele>
        <time>2022-05-24 10:46:01</time>
      </trkpt>
      <trkpt lat="41.09412" lon="0.89181">
        <ele>383.6</ele>
        <time>2022-05-24 10:46:02</time>
      </trkpt>
      <trkpt lat="41.09411" lon="0.89191">
        <ele>383.2</ele>
        <time>2022-05-24 10:46:03</time>
      </trkpt>
      <trkpt lat="41.09407" lon="0.89199">
        <ele>382.8</ele>
        <time>2022-05-24 10:46:04</time>
      </trkpt>
      <trkpt lat="41.09401" lon="0.89207">
        <ele>382.4</ele>
        <time>2022-05-24 10:46:05</time>
      </trkpt>
      <trkpt lat="41.09393" lon="0.89213">
        <ele>382.2</ele>
        <time>2022-05-24 10:46:06</time>
      </trkpt>
      <trkpt lat="41.09386" lon="0.89219">
        <ele>381.8</ele>
        <time>2022-05-24 10:46:07</time>
      </trkpt>
      <trkpt lat="41.0938" lon="0.89228">
        <ele>381.4</ele>
        <time>2022-05-24 10:46:08</time>
      </trkpt>
      <trkpt lat="41.09376" lon="0.89235">
        <ele>381.2</ele>
        <time>2022-05-24 10:46:09</time>
      </trkpt>
      <trkpt lat="41.09372" lon="0.89247">
        <ele>381.2</ele>
        <time>2022-05-24 10:46:10</time>
      </trkpt>
      <trkpt lat="41.09368" lon="0.89254">
        <ele>381.4</ele>
        <time>2022-05-24 10:46:11</time>
      </trkpt>
      <trkpt lat="41.09363" lon="0.89259">
        <ele>381.8</ele>
        <time>2022-05-24 10:46:12</time>
      </trkpt>
      <trkpt lat="41.09359" lon="0.89261">
        <ele>382</ele>
        <time>2022-05-24 10:46:13</time>
      </trkpt>
      <trkpt lat="41.09355" lon="0.8926">
        <ele>382.6</ele>
        <time>2022-05-24 10:46:14</time>
      </trkpt>
      <trkpt lat="41.09352" lon="0.89261">
        <ele>383</ele>
        <time>2022-05-24 10:46:15</time>
      </trkpt>
      <trkpt lat="41.09349" lon="0.89261">
        <ele>383.4</ele>
        <time>2022-05-24 10:46:16</time>
      </trkpt>
      <trkpt lat="41.09347" lon="0.89262">
        <ele>383.6</ele>
        <time>2022-05-24 10:46:17</time>
      </trkpt>
      <trkpt lat="41.09344" lon="0.89262">
        <ele>384</ele>
        <time>2022-05-24 10:46:18</time>
      </trkpt>
      <trkpt lat="41.09343" lon="0.89263">
        <ele>384.2</ele>
        <time>2022-05-24 10:46:19</time>
      </trkpt>
      <trkpt lat="41.09341" lon="0.89263">
        <ele>384.4</ele>
        <time>2022-05-24 10:46:20</time>
      </trkpt>
      <trkpt lat="41.09339" lon="0.89264">
        <ele>384.8</ele>
        <time>2022-05-24 10:46:21</time>
      </trkpt>
      <trkpt lat="41.09337" lon="0.89264">
        <ele>385</ele>
        <time>2022-05-24 10:46:22</time>
      </trkpt>
      <trkpt lat="41.09336" lon="0.89264">
        <ele>385.2</ele>
        <time>2022-05-24 10:46:23</time>
      </trkpt>
      <trkpt lat="41.09335" lon="0.89265">
        <ele>385.2</ele>
        <time>2022-05-24 10:46:24</time>
      </trkpt>
      <trkpt lat="41.09334" lon="0.89266">
        <ele>385.6</ele>
        <time>2022-05-24 10:46:25</time>
      </trkpt>
      <trkpt lat="41.09333" lon="0.89266">
        <ele>385.8</ele>
        <time>2022-05-24 10:46:26</time>
      </trkpt>
      <trkpt lat="41.09331" lon="0.89267">
        <ele>386</ele>
        <time>2022-05-24 10:46:27</time>
      </trkpt>
      <trkpt lat="41.0933" lon="0.89267">
        <ele>386.2</ele>
        <time>2022-05-24 10:46:28</time>
      </trkpt>
      <trkpt lat="41.09329" lon="0.89268">
        <ele>386.4</ele>
        <time>2022-05-24 10:46:29</time>
      </trkpt>
      <trkpt lat="41.09327" lon="0.89269">
        <ele>386.4</ele>
        <time>2022-05-24 10:46:30</time>
      </trkpt>
      <trkpt lat="41.09326" lon="0.8927">
        <ele>386.6</ele>
        <time>2022-05-24 10:46:31</time>
      </trkpt>
      <trkpt lat="41.09325" lon="0.89271">
        <ele>386.8</ele>
        <time>2022-05-24 10:46:32</time>
      </trkpt>
      <trkpt lat="41.09324" lon="0.89272">
        <ele>387</ele>
        <time>2022-05-24 10:46:33</time>
      </trkpt>
      <trkpt lat="41.09323" lon="0.89273">
        <ele>387.2</ele>
        <time>2022-05-24 10:46:34</time>
      </trkpt>
      <trkpt lat="41.09322" lon="0.89275">
        <ele>387.4</ele>
        <time>2022-05-24 10:46:35</time>
      </trkpt>
      <trkpt lat="41.0932" lon="0.89276">
        <ele>387.6</ele>
        <time>2022-05-24 10:46:36</time>
      </trkpt>
      <trkpt lat="41.09319" lon="0.89277">
        <ele>387.8</ele>
        <time>2022-05-24 10:46:37</time>
      </trkpt>
      <trkpt lat="41.09318" lon="0.89278">
        <ele>388</ele>
        <time>2022-05-24 10:46:38</time>
      </trkpt>
      <trkpt lat="41.09317" lon="0.8928">
        <ele>388.2</ele>
        <time>2022-05-24 10:46:39</time>
      </trkpt>
      <trkpt lat="41.09317" lon="0.89281">
        <ele>388.4</ele>
        <time>2022-05-24 10:46:40</time>
      </trkpt>
      <trkpt lat="41.09316" lon="0.89283">
        <ele>388.8</ele>
        <time>2022-05-24 10:46:41</time>
      </trkpt>
      <trkpt lat="41.09316" lon="0.89284">
        <ele>388.8</ele>
        <time>2022-05-24 10:46:42</time>
      </trkpt>
      <trkpt lat="41.09316" lon="0.89286">
        <ele>389</ele>
        <time>2022-05-24 10:46:43</time>
      </trkpt>
      <trkpt lat="41.09316" lon="0.89288">
        <ele>389.2</ele>
        <time>2022-05-24 10:46:44</time>
      </trkpt>
      <trkpt lat="41.09315" lon="0.89289">
        <ele>389.4</ele>
        <time>2022-05-24 10:46:45</time>
      </trkpt>
      <trkpt lat="41.09315" lon="0.8929">
        <ele>389.6</ele>
        <time>2022-05-24 10:46:46</time>
      </trkpt>
      <trkpt lat="41.09314" lon="0.89292">
        <ele>389.8</ele>
        <time>2022-05-24 10:46:47</time>
      </trkpt>
      <trkpt lat="41.09314" lon="0.89293">
        <ele>390</ele>
        <time>2022-05-24 10:46:48</time>
      </trkpt>
      <trkpt lat="41.09313" lon="0.89295">
        <ele>390</ele>
        <time>2022-05-24 10:46:49</time>
      </trkpt>
      <trkpt lat="41.09312" lon="0.89296">
        <ele>390.2</ele>
        <time>2022-05-24 10:46:50</time>
      </trkpt>
      <trkpt lat="41.09312" lon="0.89297">
        <ele>390.4</ele>
        <time>2022-05-24 10:46:51</time>
      </trkpt>
      <trkpt lat="41.09311" lon="0.89299">
        <ele>390.6</ele>
        <time>2022-05-24 10:46:52</time>
      </trkpt>
      <trkpt lat="41.09311" lon="0.89301">
        <ele>390.8</ele>
        <time>2022-05-24 10:46:53</time>
      </trkpt>
      <trkpt lat="41.09309" lon="0.89302">
        <ele>391</ele>
        <time>2022-05-24 10:46:54</time>
      </trkpt>
      <trkpt lat="41.09308" lon="0.89303">
        <ele>391.2</ele>
        <time>2022-05-24 10:46:55</time>
      </trkpt>
      <trkpt lat="41.09307" lon="0.89304">
        <ele>391.4</ele>
        <time>2022-05-24 10:46:56</time>
      </trkpt>
      <trkpt lat="41.09306" lon="0.89306">
        <ele>391.8</ele>
        <time>2022-05-24 10:46:57</time>
      </trkpt>
      <trkpt lat="41.09304" lon="0.89307">
        <ele>392</ele>
        <time>2022-05-24 10:46:58</time>
      </trkpt>
      <trkpt lat="41.09303" lon="0.89308">
        <ele>392.2</ele>
        <time>2022-05-24 10:46:59</time>
      </trkpt>
      <trkpt lat="41.09302" lon="0.89308">
        <ele>392.4</ele>
        <time>2022-05-24 10:47:00</time>
      </trkpt>
      <trkpt lat="41.093" lon="0.89309">
        <ele>392.6</ele>
        <time>2022-05-24 10:47:01</time>
      </trkpt>
      <trkpt lat="41.09299" lon="0.89309">
        <ele>392.8</ele>
        <time>2022-05-24 10:47:02</time>
      </trkpt>
      <trkpt lat="41.09297" lon="0.89309">
        <ele>393</ele>
        <time>2022-05-24 10:47:03</time>
      </trkpt>
      <trkpt lat="41.09296" lon="0.89309">
        <ele>393.2</ele>
        <time>2022-05-24 10:47:04</time>
      </trkpt>
      <trkpt lat="41.09294" lon="0.89309">
        <ele>393.4</ele>
        <time>2022-05-24 10:47:05</time>
      </trkpt>
      <trkpt lat="41.09293" lon="0.89309">
        <ele>393.4</ele>
        <time>2022-05-24 10:47:06</time>
      </trkpt>
      <trkpt lat="41.09291" lon="0.89308">
        <ele>393.6</ele>
        <time>2022-05-24 10:47:07</time>
      </trkpt>
      <trkpt lat="41.0929" lon="0.89307">
        <ele>393.8</ele>
        <time>2022-05-24 10:47:08</time>
      </trkpt>
      <trkpt lat="41.09289" lon="0.89306">
        <ele>394</ele>
        <time>2022-05-24 10:47:09</time>
      </trkpt>
      <trkpt lat="41.09288" lon="0.89305">
        <ele>394.2</ele>
        <time>2022-05-24 10:47:10</time>
      </trkpt>
      <trkpt lat="41.09287" lon="0.89304">
        <ele>394.2</ele>
        <time>2022-05-24 10:47:11</time>
      </trkpt>
      <trkpt lat="41.09286" lon="0.89303">
        <ele>394.4</ele>
        <time>2022-05-24 10:47:12</time>
      </trkpt>
      <trkpt lat="41.09285" lon="0.89301">
        <ele>394.6</ele>
        <time>2022-05-24 10:47:13</time>
      </trkpt>
      <trkpt lat="41.09284" lon="0.893">
        <ele>394.8</ele>
        <time>2022-05-24 10:47:14</time>
      </trkpt>
      <trkpt lat="41.09283" lon="0.89298">
        <ele>395</ele>
        <time>2022-05-24 10:47:15</time>
      </trkpt>
      <trkpt lat="41.09282" lon="0.89297">
        <ele>395.2</ele>
        <time>2022-05-24 10:47:16</time>
      </trkpt>
      <trkpt lat="41.09281" lon="0.89296">
        <ele>395.4</ele>
        <time>2022-05-24 10:47:17</time>
      </trkpt>
      <trkpt lat="41.09279" lon="0.89295">
        <ele>395.6</ele>
        <time>2022-05-24 10:47:18</time>
      </trkpt>
      <trkpt lat="41.09278" lon="0.89294">
        <ele>395.8</ele>
        <time>2022-05-24 10:47:19</time>
      </trkpt>
      <trkpt lat="41.09277" lon="0.89293">
        <ele>396</ele>
        <time>2022-05-24 10:47:20</time>
      </trkpt>
      <trkpt lat="41.09275" lon="0.89293">
        <ele>396.2</ele>
        <time>2022-05-24 10:47:21</time>
      </trkpt>
      <trkpt lat="41.09274" lon="0.89293">
        <ele>396.2</ele>
        <time>2022-05-24 10:47:22</time>
      </trkpt>
      <trkpt lat="41.09272" lon="0.89293">
        <ele>396.4</ele>
        <time>2022-05-24 10:47:23</time>
      </trkpt>
      <trkpt lat="41.0927" lon="0.89293">
        <ele>396.6</ele>
        <time>2022-05-24 10:47:24</time>
      </trkpt>
      <trkpt lat="41.09269" lon="0.89294">
        <ele>396.8</ele>
        <time>2022-05-24 10:47:25</time>
      </trkpt>
      <trkpt lat="41.09267" lon="0.89294">
        <ele>397</ele>
        <time>2022-05-24 10:47:26</time>
      </trkpt>
      <trkpt lat="41.09266" lon="0.89295">
        <ele>397</ele>
        <time>2022-05-24 10:47:27</time>
      </trkpt>
      <trkpt lat="41.09264" lon="0.89296">
        <ele>397.2</ele>
        <time>2022-05-24 10:47:28</time>
      </trkpt>
      <trkpt lat="41.09262" lon="0.89297">
        <ele>397.2</ele>
        <time>2022-05-24 10:47:29</time>
      </trkpt>
      <trkpt lat="41.0926" lon="0.89298">
        <ele>397.2</ele>
        <time>2022-05-24 10:47:30</time>
      </trkpt>
      <trkpt lat="41.09259" lon="0.89299">
        <ele>397.4</ele>
        <time>2022-05-24 10:47:31</time>
      </trkpt>
      <trkpt lat="41.09258" lon="0.893">
        <ele>397.6</ele>
        <time>2022-05-24 10:47:32</time>
      </trkpt>
      <trkpt lat="41.09257" lon="0.89301">
        <ele>397.6</ele>
        <time>2022-05-24 10:47:33</time>
      </trkpt>
      <trkpt lat="41.09255" lon="0.89303">
        <ele>397.6</ele>
        <time>2022-05-24 10:47:34</time>
      </trkpt>
      <trkpt lat="41.09254" lon="0.89304">
        <ele>397.8</ele>
        <time>2022-05-24 10:47:35</time>
      </trkpt>
      <trkpt lat="41.09252" lon="0.89305">
        <ele>397.8</ele>
        <time>2022-05-24 10:47:36</time>
      </trkpt>
      <trkpt lat="41.09251" lon="0.89306">
        <ele>397.8</ele>
        <time>2022-05-24 10:47:37</time>
      </trkpt>
      <trkpt lat="41.09249" lon="0.89307">
        <ele>398</ele>
        <time>2022-05-24 10:47:38</time>
      </trkpt>
      <trkpt lat="41.09248" lon="0.89309">
        <ele>398</ele>
        <time>2022-05-24 10:47:39</time>
      </trkpt>
      <trkpt lat="41.09246" lon="0.8931">
        <ele>398</ele>
        <time>2022-05-24 10:47:40</time>
      </trkpt>
      <trkpt lat="41.09245" lon="0.89311">
        <ele>398.2</ele>
        <time>2022-05-24 10:47:41</time>
      </trkpt>
      <trkpt lat="41.09243" lon="0.89313">
        <ele>398.2</ele>
        <time>2022-05-24 10:47:42</time>
      </trkpt>
      <trkpt lat="41.09242" lon="0.89314">
        <ele>398.2</ele>
        <time>2022-05-24 10:47:43</time>
      </trkpt>
      <trkpt lat="41.0924" lon="0.89315">
        <ele>398.4</ele>
        <time>2022-05-24 10:47:44</time>
      </trkpt>
      <trkpt lat="41.09238" lon="0.89317">
        <ele>398.4</ele>
        <time>2022-05-24 10:47:45</time>
      </trkpt>
      <trkpt lat="41.09237" lon="0.89318">
        <ele>398.6</ele>
        <time>2022-05-24 10:47:46</time>
      </trkpt>
      <trkpt lat="41.09236" lon="0.89319">
        <ele>398.6</ele>
        <time>2022-05-24 10:47:47</time>
      </trkpt>
      <trkpt lat="41.09235" lon="0.89321">
        <ele>398.6</ele>
        <time>2022-05-24 10:47:48</time>
      </trkpt>
      <trkpt lat="41.09233" lon="0.89322">
        <ele>398.6</ele>
        <time>2022-05-24 10:47:49</time>
      </trkpt>
      <trkpt lat="41.09231" lon="0.89324">
        <ele>398.8</ele>
        <time>2022-05-24 10:47:50</time>
      </trkpt>
      <trkpt lat="41.0923" lon="0.89326">
        <ele>399</ele>
        <time>2022-05-24 10:47:51</time>
      </trkpt>
      <trkpt lat="41.09227" lon="0.89327">
        <ele>399</ele>
        <time>2022-05-24 10:47:52</time>
      </trkpt>
      <trkpt lat="41.09225" lon="0.89329">
        <ele>399.2</ele>
        <time>2022-05-24 10:47:53</time>
      </trkpt>
      <trkpt lat="41.09223" lon="0.89331">
        <ele>399.4</ele>
        <time>2022-05-24 10:47:54</time>
      </trkpt>
      <trkpt lat="41.09221" lon="0.89332">
        <ele>399.4</ele>
        <time>2022-05-24 10:47:55</time>
      </trkpt>
      <trkpt lat="41.09219" lon="0.89335">
        <ele>399.6</ele>
        <time>2022-05-24 10:47:56</time>
      </trkpt>
      <trkpt lat="41.09217" lon="0.89337">
        <ele>399.6</ele>
        <time>2022-05-24 10:47:57</time>
      </trkpt>
      <trkpt lat="41.09214" lon="0.8934">
        <ele>399.8</ele>
        <time>2022-05-24 10:47:58</time>
      </trkpt>
      <trkpt lat="41.09211" lon="0.89342">
        <ele>399.8</ele>
        <time>2022-05-24 10:47:59</time>
      </trkpt>
      <trkpt lat="41.09209" lon="0.89344">
        <ele>400</ele>
        <time>2022-05-24 10:48:00</time>
      </trkpt>
      <trkpt lat="41.09206" lon="0.89346">
        <ele>400</ele>
        <time>2022-05-24 10:48:01</time>
      </trkpt>
      <trkpt lat="41.09204" lon="0.89348">
        <ele>400.2</ele>
        <time>2022-05-24 10:48:02</time>
      </trkpt>
      <trkpt lat="41.09202" lon="0.8935">
        <ele>400.2</ele>
        <time>2022-05-24 10:48:03</time>
      </trkpt>
      <trkpt lat="41.092" lon="0.89352">
        <ele>400.4</ele>
        <time>2022-05-24 10:48:04</time>
      </trkpt>
      <trkpt lat="41.09197" lon="0.89355">
        <ele>400.4</ele>
        <time>2022-05-24 10:48:05</time>
      </trkpt>
      <trkpt lat="41.09196" lon="0.89357">
        <ele>400.4</ele>
        <time>2022-05-24 10:48:06</time>
      </trkpt>
      <trkpt lat="41.09193" lon="0.89359">
        <ele>400.6</ele>
        <time>2022-05-24 10:48:07</time>
      </trkpt>
      <trkpt lat="41.09192" lon="0.89361">
        <ele>400.6</ele>
        <time>2022-05-24 10:48:08</time>
      </trkpt>
      <trkpt lat="41.0919" lon="0.89362">
        <ele>400.8</ele>
        <time>2022-05-24 10:48:09</time>
      </trkpt>
      <trkpt lat="41.09188" lon="0.89364">
        <ele>400.8</ele>
        <time>2022-05-24 10:48:10</time>
      </trkpt>
      <trkpt lat="41.09186" lon="0.89366">
        <ele>400.8</ele>
        <time>2022-05-24 10:48:11</time>
      </trkpt>
      <trkpt lat="41.09185" lon="0.89367">
        <ele>401</ele>
        <time>2022-05-24 10:48:12</time>
      </trkpt>
      <trkpt lat="41.09183" lon="0.89369">
        <ele>401</ele>
        <time>2022-05-24 10:48:13</time>
      </trkpt>
      <trkpt lat="41.09182" lon="0.8937">
        <ele>401.2</ele>
        <time>2022-05-24 10:48:14</time>
      </trkpt>
      <trkpt lat="41.0918" lon="0.89372">
        <ele>401.2</ele>
        <time>2022-05-24 10:48:15</time>
      </trkpt>
      <trkpt lat="41.09178" lon="0.89373">
        <ele>401.2</ele>
        <time>2022-05-24 10:48:16</time>
      </trkpt>
      <trkpt lat="41.09176" lon="0.89376">
        <ele>401.4</ele>
        <time>2022-05-24 10:48:17</time>
      </trkpt>
      <trkpt lat="41.09174" lon="0.89377">
        <ele>401.4</ele>
        <time>2022-05-24 10:48:18</time>
      </trkpt>
      <trkpt lat="41.09172" lon="0.89379">
        <ele>401.4</ele>
        <time>2022-05-24 10:48:19</time>
      </trkpt>
      <trkpt lat="41.09171" lon="0.89381">
        <ele>401.6</ele>
        <time>2022-05-24 10:48:20</time>
      </trkpt>
      <trkpt lat="41.09169" lon="0.89383">
        <ele>401.6</ele>
        <time>2022-05-24 10:48:21</time>
      </trkpt>
      <trkpt lat="41.09167" lon="0.89384">
        <ele>401.8</ele>
        <time>2022-05-24 10:48:22</time>
      </trkpt>
      <trkpt lat="41.09166" lon="0.89386">
        <ele>401.8</ele>
        <time>2022-05-24 10:48:23</time>
      </trkpt>
      <trkpt lat="41.09164" lon="0.89388">
        <ele>402</ele>
        <time>2022-05-24 10:48:24</time>
      </trkpt>
      <trkpt lat="41.09162" lon="0.8939">
        <ele>402</ele>
        <time>2022-05-24 10:48:25</time>
      </trkpt>
      <trkpt lat="41.0916" lon="0.89392">
        <ele>402.2</ele>
        <time>2022-05-24 10:48:26</time>
      </trkpt>
      <trkpt lat="41.09158" lon="0.89393">
        <ele>402.2</ele>
        <time>2022-05-24 10:48:27</time>
      </trkpt>
      <trkpt lat="41.09156" lon="0.89395">
        <ele>402.4</ele>
        <time>2022-05-24 10:48:28</time>
      </trkpt>
      <trkpt lat="41.09155" lon="0.89397">
        <ele>402.4</ele>
        <time>2022-05-24 10:48:29</time>
      </trkpt>
      <trkpt lat="41.09154" lon="0.89399">
        <ele>402.6</ele>
        <time>2022-05-24 10:48:30</time>
      </trkpt>
      <trkpt lat="41.09152" lon="0.894">
        <ele>402.8</ele>
        <time>2022-05-24 10:48:31</time>
      </trkpt>
      <trkpt lat="41.0915" lon="0.89402">
        <ele>402.8</ele>
        <time>2022-05-24 10:48:32</time>
      </trkpt>
      <trkpt lat="41.09148" lon="0.89404">
        <ele>403</ele>
        <time>2022-05-24 10:48:33</time>
      </trkpt>
      <trkpt lat="41.09146" lon="0.89405">
        <ele>403</ele>
        <time>2022-05-24 10:48:34</time>
      </trkpt>
      <trkpt lat="41.09144" lon="0.89407">
        <ele>403.2</ele>
        <time>2022-05-24 10:48:35</time>
      </trkpt>
      <trkpt lat="41.09142" lon="0.89409">
        <ele>403.4</ele>
        <time>2022-05-24 10:48:36</time>
      </trkpt>
      <trkpt lat="41.0914" lon="0.89411">
        <ele>403.4</ele>
        <time>2022-05-24 10:48:37</time>
      </trkpt>
      <trkpt lat="41.09139" lon="0.89412">
        <ele>403.6</ele>
        <time>2022-05-24 10:48:38</time>
      </trkpt>
      <trkpt lat="41.09137" lon="0.89414">
        <ele>403.6</ele>
        <time>2022-05-24 10:48:39</time>
      </trkpt>
      <trkpt lat="41.09136" lon="0.89416">
        <ele>403.8</ele>
        <time>2022-05-24 10:48:40</time>
      </trkpt>
      <trkpt lat="41.09134" lon="0.89418">
        <ele>404</ele>
        <time>2022-05-24 10:48:41</time>
      </trkpt>
      <trkpt lat="41.09132" lon="0.89419">
        <ele>404</ele>
        <time>2022-05-24 10:48:42</time>
      </trkpt>
      <trkpt lat="41.09131" lon="0.89421">
        <ele>404.2</ele>
        <time>2022-05-24 10:48:43</time>
      </trkpt>
      <trkpt lat="41.09129" lon="0.89422">
        <ele>404.4</ele>
        <time>2022-05-24 10:48:44</time>
      </trkpt>
      <trkpt lat="41.09128" lon="0.89423">
        <ele>404.4</ele>
        <time>2022-05-24 10:48:45</time>
      </trkpt>
      <trkpt lat="41.09127" lon="0.89424">
        <ele>404.6</ele>
        <time>2022-05-24 10:48:46</time>
      </trkpt>
      <trkpt lat="41.09127" lon="0.89425">
        <ele>404.8</ele>
        <time>2022-05-24 10:48:47</time>
      </trkpt>
      <trkpt lat="41.09126" lon="0.89426">
        <ele>405</ele>
        <time>2022-05-24 10:48:48</time>
      </trkpt>
      <trkpt lat="41.09125" lon="0.89428">
        <ele>405</ele>
        <time>2022-05-24 10:48:49</time>
      </trkpt>
      <trkpt lat="41.09124" lon="0.89429">
        <ele>405.2</ele>
        <time>2022-05-24 10:48:50</time>
      </trkpt>
      <trkpt lat="41.09123" lon="0.8943">
        <ele>405.4</ele>
        <time>2022-05-24 10:48:51</time>
      </trkpt>
      <trkpt lat="41.09123" lon="0.89432">
        <ele>405.4</ele>
        <time>2022-05-24 10:48:52</time>
      </trkpt>
      <trkpt lat="41.09121" lon="0.89434">
        <ele>405.6</ele>
        <time>2022-05-24 10:48:53</time>
      </trkpt>
      <trkpt lat="41.0912" lon="0.89436">
        <ele>405.8</ele>
        <time>2022-05-24 10:48:54</time>
      </trkpt>
      <trkpt lat="41.09117" lon="0.89438">
        <ele>406</ele>
        <time>2022-05-24 10:48:55</time>
      </trkpt>
      <trkpt lat="41.09116" lon="0.8944">
        <ele>406</ele>
        <time>2022-05-24 10:48:56</time>
      </trkpt>
      <trkpt lat="41.09115" lon="0.89442">
        <ele>406.2</ele>
        <time>2022-05-24 10:48:57</time>
      </trkpt>
      <trkpt lat="41.09113" lon="0.89444">
        <ele>406.4</ele>
        <time>2022-05-24 10:48:58</time>
      </trkpt>
      <trkpt lat="41.09111" lon="0.89446">
        <ele>406.6</ele>
        <time>2022-05-24 10:48:59</time>
      </trkpt>
      <trkpt lat="41.09109" lon="0.89447">
        <ele>406.8</ele>
        <time>2022-05-24 10:49:00</time>
      </trkpt>
      <trkpt lat="41.09107" lon="0.89449">
        <ele>406.8</ele>
        <time>2022-05-24 10:49:01</time>
      </trkpt>
      <trkpt lat="41.09105" lon="0.89451">
        <ele>407</ele>
        <time>2022-05-24 10:49:02</time>
      </trkpt>
      <trkpt lat="41.09104" lon="0.89452">
        <ele>407</ele>
        <time>2022-05-24 10:49:03</time>
      </trkpt>
      <trkpt lat="41.09103" lon="0.89454">
        <ele>407.2</ele>
        <time>2022-05-24 10:49:04</time>
      </trkpt>
      <trkpt lat="41.09101" lon="0.89456">
        <ele>407.4</ele>
        <time>2022-05-24 10:49:05</time>
      </trkpt>
      <trkpt lat="41.091" lon="0.89458">
        <ele>407.6</ele>
        <time>2022-05-24 10:49:06</time>
      </trkpt>
      <trkpt lat="41.09099" lon="0.8946">
        <ele>407.8</ele>
        <time>2022-05-24 10:49:07</time>
      </trkpt>
      <trkpt lat="41.09098" lon="0.89462">
        <ele>407.8</ele>
        <time>2022-05-24 10:49:08</time>
      </trkpt>
      <trkpt lat="41.09098" lon="0.89464">
        <ele>408</ele>
        <time>2022-05-24 10:49:09</time>
      </trkpt>
      <trkpt lat="41.09097" lon="0.89465">
        <ele>408</ele>
        <time>2022-05-24 10:49:10</time>
      </trkpt>
      <trkpt lat="41.09096" lon="0.89467">
        <ele>408.2</ele>
        <time>2022-05-24 10:49:11</time>
      </trkpt>
      <trkpt lat="41.09094" lon="0.89469">
        <ele>408.4</ele>
        <time>2022-05-24 10:49:12</time>
      </trkpt>
      <trkpt lat="41.09092" lon="0.8947">
        <ele>408.4</ele>
        <time>2022-05-24 10:49:13</time>
      </trkpt>
      <trkpt lat="41.09091" lon="0.89472">
        <ele>408.6</ele>
        <time>2022-05-24 10:49:14</time>
      </trkpt>
      <trkpt lat="41.0909" lon="0.89473">
        <ele>408.6</ele>
        <time>2022-05-24 10:49:15</time>
      </trkpt>
      <trkpt lat="41.09089" lon="0.89475">
        <ele>408.8</ele>
        <time>2022-05-24 10:49:16</time>
      </trkpt>
      <trkpt lat="41.09087" lon="0.89477">
        <ele>408.8</ele>
        <time>2022-05-24 10:49:17</time>
      </trkpt>
      <trkpt lat="41.09086" lon="0.89479">
        <ele>409</ele>
        <time>2022-05-24 10:49:18</time>
      </trkpt>
      <trkpt lat="41.09085" lon="0.8948">
        <ele>409</ele>
        <time>2022-05-24 10:49:19</time>
      </trkpt>
      <trkpt lat="41.09084" lon="0.89482">
        <ele>409.2</ele>
        <time>2022-05-24 10:49:20</time>
      </trkpt>
      <trkpt lat="41.09082" lon="0.89484">
        <ele>409.2</ele>
        <time>2022-05-24 10:49:21</time>
      </trkpt>
      <trkpt lat="41.09081" lon="0.89486">
        <ele>409.4</ele>
        <time>2022-05-24 10:49:22</time>
      </trkpt>
      <trkpt lat="41.09079" lon="0.89489">
        <ele>409.4</ele>
        <time>2022-05-24 10:49:23</time>
      </trkpt>
      <trkpt lat="41.09077" lon="0.89491">
        <ele>409.6</ele>
        <time>2022-05-24 10:49:24</time>
      </trkpt>
      <trkpt lat="41.09075" lon="0.89493">
        <ele>409.6</ele>
        <time>2022-05-24 10:49:25</time>
      </trkpt>
      <trkpt lat="41.09073" lon="0.89495">
        <ele>409.8</ele>
        <time>2022-05-24 10:49:26</time>
      </trkpt>
      <trkpt lat="41.09071" lon="0.89497">
        <ele>410</ele>
        <time>2022-05-24 10:49:27</time>
      </trkpt>
      <trkpt lat="41.09069" lon="0.89499">
        <ele>410.2</ele>
        <time>2022-05-24 10:49:28</time>
      </trkpt>
      <trkpt lat="41.09067" lon="0.89501">
        <ele>410.4</ele>
        <time>2022-05-24 10:49:29</time>
      </trkpt>
      <trkpt lat="41.09065" lon="0.89503">
        <ele>410.4</ele>
        <time>2022-05-24 10:49:30</time>
      </trkpt>
      <trkpt lat="41.09063" lon="0.89505">
        <ele>410.6</ele>
        <time>2022-05-24 10:49:31</time>
      </trkpt>
      <trkpt lat="41.09061" lon="0.89508">
        <ele>410.8</ele>
        <time>2022-05-24 10:49:32</time>
      </trkpt>
      <trkpt lat="41.09059" lon="0.8951">
        <ele>411</ele>
        <time>2022-05-24 10:49:33</time>
      </trkpt>
      <trkpt lat="41.09058" lon="0.89512">
        <ele>411.2</ele>
        <time>2022-05-24 10:49:34</time>
      </trkpt>
      <trkpt lat="41.09056" lon="0.89514">
        <ele>411.6</ele>
        <time>2022-05-24 10:49:35</time>
      </trkpt>
      <trkpt lat="41.09054" lon="0.89515">
        <ele>411.8</ele>
        <time>2022-05-24 10:49:36</time>
      </trkpt>
      <trkpt lat="41.09052" lon="0.89517">
        <ele>412</ele>
        <time>2022-05-24 10:49:37</time>
      </trkpt>
      <trkpt lat="41.0905" lon="0.89518">
        <ele>412.2</ele>
        <time>2022-05-24 10:49:38</time>
      </trkpt>
      <trkpt lat="41.09048" lon="0.8952">
        <ele>412.4</ele>
        <time>2022-05-24 10:49:39</time>
      </trkpt>
      <trkpt lat="41.09047" lon="0.89522">
        <ele>412.8</ele>
        <time>2022-05-24 10:49:40</time>
      </trkpt>
      <trkpt lat="41.09045" lon="0.89523">
        <ele>413</ele>
        <time>2022-05-24 10:49:41</time>
      </trkpt>
      <trkpt lat="41.09043" lon="0.89524">
        <ele>413.2</ele>
        <time>2022-05-24 10:49:42</time>
      </trkpt>
      <trkpt lat="41.09042" lon="0.89526">
        <ele>413.6</ele>
        <time>2022-05-24 10:49:43</time>
      </trkpt>
      <trkpt lat="41.0904" lon="0.89527">
        <ele>413.8</ele>
        <time>2022-05-24 10:49:44</time>
      </trkpt>
      <trkpt lat="41.09039" lon="0.89529">
        <ele>414</ele>
        <time>2022-05-24 10:49:45</time>
      </trkpt>
      <trkpt lat="41.09037" lon="0.8953">
        <ele>414.4</ele>
        <time>2022-05-24 10:49:46</time>
      </trkpt>
      <trkpt lat="41.09036" lon="0.89532">
        <ele>414.6</ele>
        <time>2022-05-24 10:49:47</time>
      </trkpt>
      <trkpt lat="41.09034" lon="0.89533">
        <ele>414.8</ele>
        <time>2022-05-24 10:49:48</time>
      </trkpt>
      <trkpt lat="41.09032" lon="0.89534">
        <ele>415</ele>
        <time>2022-05-24 10:49:49</time>
      </trkpt>
      <trkpt lat="41.09031" lon="0.89535">
        <ele>415.2</ele>
        <time>2022-05-24 10:49:50</time>
      </trkpt>
      <trkpt lat="41.09029" lon="0.89537">
        <ele>415.4</ele>
        <time>2022-05-24 10:49:51</time>
      </trkpt>
      <trkpt lat="41.09027" lon="0.89538">
        <ele>415.6</ele>
        <time>2022-05-24 10:49:52</time>
      </trkpt>
      <trkpt lat="41.09026" lon="0.89539">
        <ele>415.6</ele>
        <time>2022-05-24 10:49:53</time>
      </trkpt>
      <trkpt lat="41.09024" lon="0.8954">
        <ele>415.8</ele>
        <time>2022-05-24 10:49:54</time>
      </trkpt>
      <trkpt lat="41.09023" lon="0.89541">
        <ele>416</ele>
        <time>2022-05-24 10:49:55</time>
      </trkpt>
      <trkpt lat="41.09021" lon="0.89542">
        <ele>416.2</ele>
        <time>2022-05-24 10:49:56</time>
      </trkpt>
      <trkpt lat="41.0902" lon="0.89544">
        <ele>416.2</ele>
        <time>2022-05-24 10:49:57</time>
      </trkpt>
      <trkpt lat="41.09019" lon="0.89545">
        <ele>416.4</ele>
        <time>2022-05-24 10:49:58</time>
      </trkpt>
      <trkpt lat="41.09017" lon="0.89546">
        <ele>416.6</ele>
        <time>2022-05-24 10:49:59</time>
      </trkpt>
      <trkpt lat="41.09016" lon="0.89548">
        <ele>416.6</ele>
        <time>2022-05-24 10:50:00</time>
      </trkpt>
      <trkpt lat="41.09015" lon="0.8955">
        <ele>416.8</ele>
        <time>2022-05-24 10:50:01</time>
      </trkpt>
      <trkpt lat="41.09013" lon="0.89551">
        <ele>416.8</ele>
        <time>2022-05-24 10:50:02</time>
      </trkpt>
      <trkpt lat="41.09011" lon="0.89552">
        <ele>417</ele>
        <time>2022-05-24 10:50:03</time>
      </trkpt>
      <trkpt lat="41.0901" lon="0.89553">
        <ele>417.2</ele>
        <time>2022-05-24 10:50:04</time>
      </trkpt>
      <trkpt lat="41.09009" lon="0.89554">
        <ele>417.2</ele>
        <time>2022-05-24 10:50:05</time>
      </trkpt>
      <trkpt lat="41.09007" lon="0.89556">
        <ele>417.4</ele>
        <time>2022-05-24 10:50:06</time>
      </trkpt>
      <trkpt lat="41.09006" lon="0.89557">
        <ele>417.4</ele>
        <time>2022-05-24 10:50:07</time>
      </trkpt>
      <trkpt lat="41.09004" lon="0.89558">
        <ele>417.6</ele>
        <time>2022-05-24 10:50:08</time>
      </trkpt>
      <trkpt lat="41.09003" lon="0.89559">
        <ele>417.8</ele>
        <time>2022-05-24 10:50:09</time>
      </trkpt>
      <trkpt lat="41.09002" lon="0.89561">
        <ele>417.8</ele>
        <time>2022-05-24 10:50:10</time>
      </trkpt>
      <trkpt lat="41.09" lon="0.89562">
        <ele>418</ele>
        <time>2022-05-24 10:50:11</time>
      </trkpt>
      <trkpt lat="41.08998" lon="0.89563">
        <ele>418.2</ele>
        <time>2022-05-24 10:50:12</time>
      </trkpt>
      <trkpt lat="41.08997" lon="0.89564">
        <ele>418.4</ele>
        <time>2022-05-24 10:50:13</time>
      </trkpt>
      <trkpt lat="41.08995" lon="0.89565">
        <ele>418.4</ele>
        <time>2022-05-24 10:50:14</time>
      </trkpt>
      <trkpt lat="41.08994" lon="0.89566">
        <ele>418.6</ele>
        <time>2022-05-24 10:50:15</time>
      </trkpt>
      <trkpt lat="41.08992" lon="0.89567">
        <ele>418.8</ele>
        <time>2022-05-24 10:50:16</time>
      </trkpt>
      <trkpt lat="41.0899" lon="0.89567">
        <ele>419</ele>
        <time>2022-05-24 10:50:17</time>
      </trkpt>
      <trkpt lat="41.08989" lon="0.89568">
        <ele>419</ele>
        <time>2022-05-24 10:50:18</time>
      </trkpt>
      <trkpt lat="41.08987" lon="0.89569">
        <ele>419.2</ele>
        <time>2022-05-24 10:50:19</time>
      </trkpt>
      <trkpt lat="41.08986" lon="0.89569">
        <ele>419.4</ele>
        <time>2022-05-24 10:50:20</time>
      </trkpt>
      <trkpt lat="41.08984" lon="0.8957">
        <ele>419.6</ele>
        <time>2022-05-24 10:50:21</time>
      </trkpt>
      <trkpt lat="41.08982" lon="0.8957">
        <ele>419.6</ele>
        <time>2022-05-24 10:50:22</time>
      </trkpt>
      <trkpt lat="41.08981" lon="0.89571">
        <ele>419.8</ele>
        <time>2022-05-24 10:50:23</time>
      </trkpt>
      <trkpt lat="41.08979" lon="0.89572">
        <ele>420</ele>
        <time>2022-05-24 10:50:24</time>
      </trkpt>
      <trkpt lat="41.08977" lon="0.89572">
        <ele>420</ele>
        <time>2022-05-24 10:50:25</time>
      </trkpt>
      <trkpt lat="41.08975" lon="0.89573">
        <ele>420.2</ele>
        <time>2022-05-24 10:50:26</time>
      </trkpt>
      <trkpt lat="41.08973" lon="0.89574">
        <ele>420.2</ele>
        <time>2022-05-24 10:50:27</time>
      </trkpt>
      <trkpt lat="41.08971" lon="0.89575">
        <ele>420.2</ele>
        <time>2022-05-24 10:50:28</time>
      </trkpt>
      <trkpt lat="41.08968" lon="0.89576">
        <ele>420.4</ele>
        <time>2022-05-24 10:50:29</time>
      </trkpt>
      <trkpt lat="41.08966" lon="0.89577">
        <ele>420.4</ele>
        <time>2022-05-24 10:50:30</time>
      </trkpt>
      <trkpt lat="41.08964" lon="0.89578">
        <ele>420.4</ele>
        <time>2022-05-24 10:50:31</time>
      </trkpt>
      <trkpt lat="41.08961" lon="0.89578">
        <ele>420.4</ele>
        <time>2022-05-24 10:50:32</time>
      </trkpt>
      <trkpt lat="41.08958" lon="0.89579">
        <ele>420.6</ele>
        <time>2022-05-24 10:50:33</time>
      </trkpt>
      <trkpt lat="41.08956" lon="0.89579">
        <ele>420.6</ele>
        <time>2022-05-24 10:50:34</time>
      </trkpt>
      <trkpt lat="41.08953" lon="0.89579">
        <ele>420.6</ele>
        <time>2022-05-24 10:50:35</time>
      </trkpt>
      <trkpt lat="41.0895" lon="0.8958">
        <ele>420.6</ele>
        <time>2022-05-24 10:50:36</time>
      </trkpt>
      <trkpt lat="41.08947" lon="0.89581">
        <ele>420.4</ele>
        <time>2022-05-24 10:50:37</time>
      </trkpt>
      <trkpt lat="41.08943" lon="0.89581">
        <ele>420.4</ele>
        <time>2022-05-24 10:50:38</time>
      </trkpt>
      <trkpt lat="41.0894" lon="0.89582">
        <ele>420.2</ele>
        <time>2022-05-24 10:50:39</time>
      </trkpt>
      <trkpt lat="41.08935" lon="0.89583">
        <ele>420</ele>
        <time>2022-05-24 10:50:40</time>
      </trkpt>
      <trkpt lat="41.0893" lon="0.89584">
        <ele>419.8</ele>
        <time>2022-05-24 10:50:41</time>
      </trkpt>
      <trkpt lat="41.08924" lon="0.89585">
        <ele>419.6</ele>
        <time>2022-05-24 10:50:42</time>
      </trkpt>
      <trkpt lat="41.08918" lon="0.89586">
        <ele>419.2</ele>
        <time>2022-05-24 10:50:43</time>
      </trkpt>
      <trkpt lat="41.08911" lon="0.89586">
        <ele>418.8</ele>
        <time>2022-05-24 10:50:44</time>
      </trkpt>
      <trkpt lat="41.08903" lon="0.89584">
        <ele>418</ele>
        <time>2022-05-24 10:50:45</time>
      </trkpt>
      <trkpt lat="41.08894" lon="0.89582">
        <ele>417</ele>
        <time>2022-05-24 10:50:46</time>
      </trkpt>
      <trkpt lat="41.08885" lon="0.8958">
        <ele>416</ele>
        <time>2022-05-24 10:50:47</time>
      </trkpt>
      <trkpt lat="41.08875" lon="0.89579">
        <ele>415</ele>
        <time>2022-05-24 10:50:48</time>
      </trkpt>
      <trkpt lat="41.08864" lon="0.89582">
        <ele>414.2</ele>
        <time>2022-05-24 10:50:49</time>
      </trkpt>
      <trkpt lat="41.08854" lon="0.89586">
        <ele>413.8</ele>
        <time>2022-05-24 10:50:50</time>
      </trkpt>
      <trkpt lat="41.08846" lon="0.89595">
        <ele>413.4</ele>
        <time>2022-05-24 10:50:51</time>
      </trkpt>
      <trkpt lat="41.08838" lon="0.89602">
        <ele>413.2</ele>
        <time>2022-05-24 10:50:52</time>
      </trkpt>
      <trkpt lat="41.08829" lon="0.89608">
        <ele>412.8</ele>
        <time>2022-05-24 10:50:53</time>
      </trkpt>
      <trkpt lat="41.08821" lon="0.8961">
        <ele>412.6</ele>
        <time>2022-05-24 10:50:54</time>
      </trkpt>
      <trkpt lat="41.08812" lon="0.8961">
        <ele>412.2</ele>
        <time>2022-05-24 10:50:55</time>
      </trkpt>
      <trkpt lat="41.08803" lon="0.8961">
        <ele>411.8</ele>
        <time>2022-05-24 10:50:56</time>
      </trkpt>
      <trkpt lat="41.08794" lon="0.89613">
        <ele>411.4</ele>
        <time>2022-05-24 10:50:57</time>
      </trkpt>
      <trkpt lat="41.08785" lon="0.89618">
        <ele>411.2</ele>
        <time>2022-05-24 10:50:58</time>
      </trkpt>
      <trkpt lat="41.08778" lon="0.89624">
        <ele>411.4</ele>
        <time>2022-05-24 10:50:59</time>
      </trkpt>
      <trkpt lat="41.08773" lon="0.8963">
        <ele>411.8</ele>
        <time>2022-05-24 10:51:00</time>
      </trkpt>
      <trkpt lat="41.08769" lon="0.89635">
        <ele>412.4</ele>
        <time>2022-05-24 10:51:01</time>
      </trkpt>
      <trkpt lat="41.08766" lon="0.8964">
        <ele>413</ele>
        <time>2022-05-24 10:51:02</time>
      </trkpt>
      <trkpt lat="41.08763" lon="0.89644">
        <ele>413.6</ele>
        <time>2022-05-24 10:51:03</time>
      </trkpt>
      <trkpt lat="41.08762" lon="0.89647">
        <ele>414</ele>
        <time>2022-05-24 10:51:04</time>
      </trkpt>
      <trkpt lat="41.0876" lon="0.89651">
        <ele>414.6</ele>
        <time>2022-05-24 10:51:05</time>
      </trkpt>
      <trkpt lat="41.08758" lon="0.89654">
        <ele>415</ele>
        <time>2022-05-24 10:51:06</time>
      </trkpt>
      <trkpt lat="41.08757" lon="0.89657">
        <ele>415.6</ele>
        <time>2022-05-24 10:51:07</time>
      </trkpt>
      <trkpt lat="41.08755" lon="0.89659">
        <ele>416</ele>
        <time>2022-05-24 10:51:08</time>
      </trkpt>
      <trkpt lat="41.08753" lon="0.89662">
        <ele>416.4</ele>
        <time>2022-05-24 10:51:09</time>
      </trkpt>
      <trkpt lat="41.08752" lon="0.89665">
        <ele>416.8</ele>
        <time>2022-05-24 10:51:10</time>
      </trkpt>
      <trkpt lat="41.08751" lon="0.89667">
        <ele>417.2</ele>
        <time>2022-05-24 10:51:11</time>
      </trkpt>
      <trkpt lat="41.08749" lon="0.8967">
        <ele>417.6</ele>
        <time>2022-05-24 10:51:12</time>
      </trkpt>
      <trkpt lat="41.08748" lon="0.89673">
        <ele>417.8</ele>
        <time>2022-05-24 10:51:13</time>
      </trkpt>
      <trkpt lat="41.08747" lon="0.89676">
        <ele>418.2</ele>
        <time>2022-05-24 10:51:14</time>
      </trkpt>
      <trkpt lat="41.08746" lon="0.89678">
        <ele>418.4</ele>
        <time>2022-05-24 10:51:15</time>
      </trkpt>
      <trkpt lat="41.08744" lon="0.89681">
        <ele>418.8</ele>
        <time>2022-05-24 10:51:16</time>
      </trkpt>
      <trkpt lat="41.08743" lon="0.89683">
        <ele>419</ele>
        <time>2022-05-24 10:51:17</time>
      </trkpt>
      <trkpt lat="41.08741" lon="0.89685">
        <ele>419.2</ele>
        <time>2022-05-24 10:51:18</time>
      </trkpt>
      <trkpt lat="41.0874" lon="0.89688">
        <ele>419.4</ele>
        <time>2022-05-24 10:51:19</time>
      </trkpt>
      <trkpt lat="41.08739" lon="0.89691">
        <ele>419.8</ele>
        <time>2022-05-24 10:51:20</time>
      </trkpt>
      <trkpt lat="41.08738" lon="0.89694">
        <ele>420</ele>
        <time>2022-05-24 10:51:21</time>
      </trkpt>
      <trkpt lat="41.08736" lon="0.89696">
        <ele>420.2</ele>
        <time>2022-05-24 10:51:22</time>
      </trkpt>
      <trkpt lat="41.08735" lon="0.89698">
        <ele>420.4</ele>
        <time>2022-05-24 10:51:23</time>
      </trkpt>
      <trkpt lat="41.08733" lon="0.897">
        <ele>420.6</ele>
        <time>2022-05-24 10:51:24</time>
      </trkpt>
      <trkpt lat="41.08731" lon="0.89703">
        <ele>420.8</ele>
        <time>2022-05-24 10:51:25</time>
      </trkpt>
      <trkpt lat="41.0873" lon="0.89705">
        <ele>421.2</ele>
        <time>2022-05-24 10:51:26</time>
      </trkpt>
      <trkpt lat="41.08729" lon="0.89708">
        <ele>421.4</ele>
        <time>2022-05-24 10:51:27</time>
      </trkpt>
      <trkpt lat="41.08728" lon="0.8971">
        <ele>421.6</ele>
        <time>2022-05-24 10:51:28</time>
      </trkpt>
      <trkpt lat="41.08726" lon="0.89713">
        <ele>421.8</ele>
        <time>2022-05-24 10:51:29</time>
      </trkpt>
      <trkpt lat="41.08725" lon="0.89716">
        <ele>422</ele>
        <time>2022-05-24 10:51:30</time>
      </trkpt>
      <trkpt lat="41.08723" lon="0.89718">
        <ele>422</ele>
        <time>2022-05-24 10:51:31</time>
      </trkpt>
      <trkpt lat="41.08721" lon="0.89722">
        <ele>422.2</ele>
        <time>2022-05-24 10:51:32</time>
      </trkpt>
      <trkpt lat="41.08719" lon="0.89725">
        <ele>422.2</ele>
        <time>2022-05-24 10:51:33</time>
      </trkpt>
      <trkpt lat="41.08716" lon="0.89728">
        <ele>422.2</ele>
        <time>2022-05-24 10:51:34</time>
      </trkpt>
      <trkpt lat="41.08713" lon="0.89731">
        <ele>422.2</ele>
        <time>2022-05-24 10:51:35</time>
      </trkpt>
      <trkpt lat="41.0871" lon="0.89734">
        <ele>422.2</ele>
        <time>2022-05-24 10:51:36</time>
      </trkpt>
      <trkpt lat="41.08707" lon="0.89735">
        <ele>422.2</ele>
        <time>2022-05-24 10:51:37</time>
      </trkpt>
      <trkpt lat="41.08704" lon="0.89737">
        <ele>422.2</ele>
        <time>2022-05-24 10:51:38</time>
      </trkpt>
      <trkpt lat="41.087" lon="0.89739">
        <ele>422.2</ele>
        <time>2022-05-24 10:51:39</time>
      </trkpt>
      <trkpt lat="41.08697" lon="0.89741">
        <ele>422</ele>
        <time>2022-05-24 10:51:40</time>
      </trkpt>
      <trkpt lat="41.08693" lon="0.89744">
        <ele>422</ele>
        <time>2022-05-24 10:51:41</time>
      </trkpt>
      <trkpt lat="41.08689" lon="0.89746">
        <ele>422.2</ele>
        <time>2022-05-24 10:51:42</time>
      </trkpt>
      <trkpt lat="41.08686" lon="0.89748">
        <ele>422.2</ele>
        <time>2022-05-24 10:51:43</time>
      </trkpt>
      <trkpt lat="41.08681" lon="0.8975">
        <ele>422.2</ele>
        <time>2022-05-24 10:51:44</time>
      </trkpt>
      <trkpt lat="41.08678" lon="0.89752">
        <ele>422.2</ele>
        <time>2022-05-24 10:51:45</time>
      </trkpt>
      <trkpt lat="41.08674" lon="0.89754">
        <ele>422.2</ele>
        <time>2022-05-24 10:51:46</time>
      </trkpt>
      <trkpt lat="41.0867" lon="0.89755">
        <ele>422.4</ele>
        <time>2022-05-24 10:51:47</time>
      </trkpt>
      <trkpt lat="41.08667" lon="0.89757">
        <ele>422.4</ele>
        <time>2022-05-24 10:51:48</time>
      </trkpt>
      <trkpt lat="41.08663" lon="0.89758">
        <ele>422.4</ele>
        <time>2022-05-24 10:51:49</time>
      </trkpt>
      <trkpt lat="41.08659" lon="0.89759">
        <ele>422.6</ele>
        <time>2022-05-24 10:51:50</time>
      </trkpt>
      <trkpt lat="41.08656" lon="0.8976">
        <ele>422.8</ele>
        <time>2022-05-24 10:51:51</time>
      </trkpt>
      <trkpt lat="41.08653" lon="0.89761">
        <ele>422.8</ele>
        <time>2022-05-24 10:51:52</time>
      </trkpt>
      <trkpt lat="41.0865" lon="0.89762">
        <ele>423</ele>
        <time>2022-05-24 10:51:53</time>
      </trkpt>
      <trkpt lat="41.08647" lon="0.89763">
        <ele>423.2</ele>
        <time>2022-05-24 10:51:54</time>
      </trkpt>
      <trkpt lat="41.08644" lon="0.89764">
        <ele>423.4</ele>
        <time>2022-05-24 10:51:55</time>
      </trkpt>
      <trkpt lat="41.08641" lon="0.89766">
        <ele>423.8</ele>
        <time>2022-05-24 10:51:56</time>
      </trkpt>
      <trkpt lat="41.08638" lon="0.89767">
        <ele>424</ele>
        <time>2022-05-24 10:51:57</time>
      </trkpt>
      <trkpt lat="41.08636" lon="0.89768">
        <ele>424.2</ele>
        <time>2022-05-24 10:51:58</time>
      </trkpt>
      <trkpt lat="41.08634" lon="0.89768">
        <ele>424.4</ele>
        <time>2022-05-24 10:51:59</time>
      </trkpt>
      <trkpt lat="41.08631" lon="0.89769">
        <ele>424.8</ele>
        <time>2022-05-24 10:52:00</time>
      </trkpt>
      <trkpt lat="41.08629" lon="0.8977">
        <ele>425</ele>
        <time>2022-05-24 10:52:01</time>
      </trkpt>
      <trkpt lat="41.08627" lon="0.89771">
        <ele>425.2</ele>
        <time>2022-05-24 10:52:02</time>
      </trkpt>
      <trkpt lat="41.08625" lon="0.89772">
        <ele>425.6</ele>
        <time>2022-05-24 10:52:03</time>
      </trkpt>
      <trkpt lat="41.08624" lon="0.89773">
        <ele>425.8</ele>
        <time>2022-05-24 10:52:04</time>
      </trkpt>
      <trkpt lat="41.08622" lon="0.89774">
        <ele>426</ele>
        <time>2022-05-24 10:52:05</time>
      </trkpt>
      <trkpt lat="41.0862" lon="0.89775">
        <ele>426.4</ele>
        <time>2022-05-24 10:52:06</time>
      </trkpt>
      <trkpt lat="41.08618" lon="0.89775">
        <ele>426.6</ele>
        <time>2022-05-24 10:52:07</time>
      </trkpt>
      <trkpt lat="41.08616" lon="0.89775">
        <ele>426.8</ele>
        <time>2022-05-24 10:52:08</time>
      </trkpt>
      <trkpt lat="41.08614" lon="0.89776">
        <ele>427</ele>
        <time>2022-05-24 10:52:09</time>
      </trkpt>
      <trkpt lat="41.08613" lon="0.89776">
        <ele>427.2</ele>
        <time>2022-05-24 10:52:10</time>
      </trkpt>
      <trkpt lat="41.08611" lon="0.89777">
        <ele>427.4</ele>
        <time>2022-05-24 10:52:11</time>
      </trkpt>
      <trkpt lat="41.0861" lon="0.89777">
        <ele>427.6</ele>
        <time>2022-05-24 10:52:12</time>
      </trkpt>
      <trkpt lat="41.08608" lon="0.89777">
        <ele>427.8</ele>
        <time>2022-05-24 10:52:13</time>
      </trkpt>
      <trkpt lat="41.08606" lon="0.89778">
        <ele>428</ele>
        <time>2022-05-24 10:52:14</time>
      </trkpt>
      <trkpt lat="41.08604" lon="0.89778">
        <ele>428.2</ele>
        <time>2022-05-24 10:52:15</time>
      </trkpt>
      <trkpt lat="41.08603" lon="0.89778">
        <ele>428.4</ele>
        <time>2022-05-24 10:52:16</time>
      </trkpt>
      <trkpt lat="41.08601" lon="0.89778">
        <ele>428.4</ele>
        <time>2022-05-24 10:52:17</time>
      </trkpt>
      <trkpt lat="41.08599" lon="0.89779">
        <ele>428.6</ele>
        <time>2022-05-24 10:52:18</time>
      </trkpt>
      <trkpt lat="41.08597" lon="0.89779">
        <ele>428.8</ele>
        <time>2022-05-24 10:52:19</time>
      </trkpt>
      <trkpt lat="41.08596" lon="0.8978">
        <ele>429</ele>
        <time>2022-05-24 10:52:20</time>
      </trkpt>
      <trkpt lat="41.08594" lon="0.89781">
        <ele>429.2</ele>
        <time>2022-05-24 10:52:21</time>
      </trkpt>
      <trkpt lat="41.08593" lon="0.89781">
        <ele>429.4</ele>
        <time>2022-05-24 10:52:22</time>
      </trkpt>
      <trkpt lat="41.0859" lon="0.89782">
        <ele>429.4</ele>
        <time>2022-05-24 10:52:23</time>
      </trkpt>
      <trkpt lat="41.08588" lon="0.89782">
        <ele>429.6</ele>
        <time>2022-05-24 10:52:24</time>
      </trkpt>
      <trkpt lat="41.08585" lon="0.89781">
        <ele>429.8</ele>
        <time>2022-05-24 10:52:25</time>
      </trkpt>
      <trkpt lat="41.08583" lon="0.89781">
        <ele>430</ele>
        <time>2022-05-24 10:52:26</time>
      </trkpt>
      <trkpt lat="41.08581" lon="0.89781">
        <ele>430</ele>
        <time>2022-05-24 10:52:27</time>
      </trkpt>
      <trkpt lat="41.08579" lon="0.89781">
        <ele>430.2</ele>
        <time>2022-05-24 10:52:28</time>
      </trkpt>
      <trkpt lat="41.08577" lon="0.89781">
        <ele>430.4</ele>
        <time>2022-05-24 10:52:29</time>
      </trkpt>
      <trkpt lat="41.08575" lon="0.89781">
        <ele>430.4</ele>
        <time>2022-05-24 10:52:30</time>
      </trkpt>
      <trkpt lat="41.08574" lon="0.89781">
        <ele>430.6</ele>
        <time>2022-05-24 10:52:31</time>
      </trkpt>
      <trkpt lat="41.08572" lon="0.89782">
        <ele>430.8</ele>
        <time>2022-05-24 10:52:32</time>
      </trkpt>
      <trkpt lat="41.0857" lon="0.89783">
        <ele>430.8</ele>
        <time>2022-05-24 10:52:33</time>
      </trkpt>
      <trkpt lat="41.08568" lon="0.89784">
        <ele>431</ele>
        <time>2022-05-24 10:52:34</time>
      </trkpt>
      <trkpt lat="41.08567" lon="0.89784">
        <ele>431</ele>
        <time>2022-05-24 10:52:35</time>
      </trkpt>
      <trkpt lat="41.08564" lon="0.89784">
        <ele>431.2</ele>
        <time>2022-05-24 10:52:36</time>
      </trkpt>
      <trkpt lat="41.08562" lon="0.89785">
        <ele>431.4</ele>
        <time>2022-05-24 10:52:37</time>
      </trkpt>
      <trkpt lat="41.08561" lon="0.89786">
        <ele>431.4</ele>
        <time>2022-05-24 10:52:38</time>
      </trkpt>
      <trkpt lat="41.08559" lon="0.89787">
        <ele>431.6</ele>
        <time>2022-05-24 10:52:39</time>
      </trkpt>
      <trkpt lat="41.08557" lon="0.89788">
        <ele>431.6</ele>
        <time>2022-05-24 10:52:40</time>
      </trkpt>
      <trkpt lat="41.08555" lon="0.8979">
        <ele>431.8</ele>
        <time>2022-05-24 10:52:41</time>
      </trkpt>
      <trkpt lat="41.08553" lon="0.89791">
        <ele>431.8</ele>
        <time>2022-05-24 10:52:42</time>
      </trkpt>
      <trkpt lat="41.0855" lon="0.89792">
        <ele>432</ele>
        <time>2022-05-24 10:52:43</time>
      </trkpt>
      <trkpt lat="41.08549" lon="0.89792">
        <ele>432</ele>
        <time>2022-05-24 10:52:44</time>
      </trkpt>
      <trkpt lat="41.08546" lon="0.89794">
        <ele>432.2</ele>
        <time>2022-05-24 10:52:45</time>
      </trkpt>
      <trkpt lat="41.08544" lon="0.89795">
        <ele>432.2</ele>
        <time>2022-05-24 10:52:46</time>
      </trkpt>
      <trkpt lat="41.08543" lon="0.89796">
        <ele>432.4</ele>
        <time>2022-05-24 10:52:47</time>
      </trkpt>
      <trkpt lat="41.08541" lon="0.89797">
        <ele>432.4</ele>
        <time>2022-05-24 10:52:48</time>
      </trkpt>
      <trkpt lat="41.08539" lon="0.89798">
        <ele>432.6</ele>
        <time>2022-05-24 10:52:49</time>
      </trkpt>
      <trkpt lat="41.08537" lon="0.89799">
        <ele>432.6</ele>
        <time>2022-05-24 10:52:50</time>
      </trkpt>
      <trkpt lat="41.08535" lon="0.898">
        <ele>432.8</ele>
        <time>2022-05-24 10:52:51</time>
      </trkpt>
      <trkpt lat="41.08532" lon="0.89801">
        <ele>432.8</ele>
        <time>2022-05-24 10:52:52</time>
      </trkpt>
      <trkpt lat="41.08531" lon="0.89803">
        <ele>433</ele>
        <time>2022-05-24 10:52:53</time>
      </trkpt>
      <trkpt lat="41.08529" lon="0.89804">
        <ele>433</ele>
        <time>2022-05-24 10:52:54</time>
      </trkpt>
      <trkpt lat="41.08527" lon="0.89805">
        <ele>433.2</ele>
        <time>2022-05-24 10:52:55</time>
      </trkpt>
      <trkpt lat="41.08526" lon="0.89807">
        <ele>433.2</ele>
        <time>2022-05-24 10:52:56</time>
      </trkpt>
      <trkpt lat="41.08524" lon="0.89808">
        <ele>433.2</ele>
        <time>2022-05-24 10:52:57</time>
      </trkpt>
      <trkpt lat="41.08523" lon="0.89809">
        <ele>433.4</ele>
        <time>2022-05-24 10:52:58</time>
      </trkpt>
      <trkpt lat="41.08522" lon="0.89811">
        <ele>433.4</ele>
        <time>2022-05-24 10:52:59</time>
      </trkpt>
      <trkpt lat="41.0852" lon="0.89812">
        <ele>433.6</ele>
        <time>2022-05-24 10:53:00</time>
      </trkpt>
      <trkpt lat="41.08518" lon="0.89814">
        <ele>433.6</ele>
        <time>2022-05-24 10:53:01</time>
      </trkpt>
      <trkpt lat="41.08516" lon="0.89815">
        <ele>433.6</ele>
        <time>2022-05-24 10:53:02</time>
      </trkpt>
      <trkpt lat="41.08515" lon="0.89817">
        <ele>433.8</ele>
        <time>2022-05-24 10:53:03</time>
      </trkpt>
      <trkpt lat="41.08513" lon="0.89818">
        <ele>433.8</ele>
        <time>2022-05-24 10:53:04</time>
      </trkpt>
      <trkpt lat="41.08511" lon="0.8982">
        <ele>434</ele>
        <time>2022-05-24 10:53:05</time>
      </trkpt>
      <trkpt lat="41.08509" lon="0.89822">
        <ele>434</ele>
        <time>2022-05-24 10:53:06</time>
      </trkpt>
      <trkpt lat="41.08507" lon="0.89823">
        <ele>434.2</ele>
        <time>2022-05-24 10:53:07</time>
      </trkpt>
      <trkpt lat="41.08506" lon="0.89824">
        <ele>434.2</ele>
        <time>2022-05-24 10:53:08</time>
      </trkpt>
      <trkpt lat="41.08504" lon="0.89827">
        <ele>434.2</ele>
        <time>2022-05-24 10:53:09</time>
      </trkpt>
      <trkpt lat="41.08503" lon="0.89829">
        <ele>434.4</ele>
        <time>2022-05-24 10:53:10</time>
      </trkpt>
      <trkpt lat="41.08501" lon="0.89831">
        <ele>434.4</ele>
        <time>2022-05-24 10:53:11</time>
      </trkpt>
      <trkpt lat="41.08499" lon="0.89833">
        <ele>434.6</ele>
        <time>2022-05-24 10:53:12</time>
      </trkpt>
      <trkpt lat="41.08497" lon="0.89834">
        <ele>434.8</ele>
        <time>2022-05-24 10:53:13</time>
      </trkpt>
      <trkpt lat="41.08495" lon="0.89835">
        <ele>434.8</ele>
        <time>2022-05-24 10:53:14</time>
      </trkpt>
      <trkpt lat="41.08494" lon="0.89836">
        <ele>435</ele>
        <time>2022-05-24 10:53:15</time>
      </trkpt>
      <trkpt lat="41.08492" lon="0.89838">
        <ele>435.2</ele>
        <time>2022-05-24 10:53:16</time>
      </trkpt>
      <trkpt lat="41.0849" lon="0.89839">
        <ele>435.4</ele>
        <time>2022-05-24 10:53:17</time>
      </trkpt>
      <trkpt lat="41.08489" lon="0.8984">
        <ele>435.6</ele>
        <time>2022-05-24 10:53:18</time>
      </trkpt>
      <trkpt lat="41.08488" lon="0.89842">
        <ele>435.8</ele>
        <time>2022-05-24 10:53:19</time>
      </trkpt>
      <trkpt lat="41.08486" lon="0.89843">
        <ele>435.8</ele>
        <time>2022-05-24 10:53:20</time>
      </trkpt>
      <trkpt lat="41.08484" lon="0.89845">
        <ele>436</ele>
        <time>2022-05-24 10:53:21</time>
      </trkpt>
      <trkpt lat="41.08483" lon="0.89847">
        <ele>436.2</ele>
        <time>2022-05-24 10:53:22</time>
      </trkpt>
      <trkpt lat="41.08481" lon="0.89848">
        <ele>436.6</ele>
        <time>2022-05-24 10:53:23</time>
      </trkpt>
      <trkpt lat="41.08479" lon="0.8985">
        <ele>436.8</ele>
        <time>2022-05-24 10:53:24</time>
      </trkpt>
      <trkpt lat="41.08477" lon="0.89852">
        <ele>437</ele>
        <time>2022-05-24 10:53:25</time>
      </trkpt>
      <trkpt lat="41.08475" lon="0.89853">
        <ele>437.2</ele>
        <time>2022-05-24 10:53:26</time>
      </trkpt>
      <trkpt lat="41.08473" lon="0.89854">
        <ele>437.6</ele>
        <time>2022-05-24 10:53:27</time>
      </trkpt>
      <trkpt lat="41.08472" lon="0.89856">
        <ele>437.8</ele>
        <time>2022-05-24 10:53:28</time>
      </trkpt>
      <trkpt lat="41.0847" lon="0.89857">
        <ele>438</ele>
        <time>2022-05-24 10:53:29</time>
      </trkpt>
      <trkpt lat="41.08469" lon="0.89859">
        <ele>438.2</ele>
        <time>2022-05-24 10:53:30</time>
      </trkpt>
      <trkpt lat="41.08467" lon="0.8986">
        <ele>438.4</ele>
        <time>2022-05-24 10:53:31</time>
      </trkpt>
      <trkpt lat="41.08466" lon="0.89861">
        <ele>438.8</ele>
        <time>2022-05-24 10:53:32</time>
      </trkpt>
      <trkpt lat="41.08464" lon="0.89863">
        <ele>439</ele>
        <time>2022-05-24 10:53:33</time>
      </trkpt>
      <trkpt lat="41.08462" lon="0.89864">
        <ele>439.2</ele>
        <time>2022-05-24 10:53:34</time>
      </trkpt>
      <trkpt lat="41.08461" lon="0.89865">
        <ele>439.4</ele>
        <time>2022-05-24 10:53:35</time>
      </trkpt>
      <trkpt lat="41.08458" lon="0.89866">
        <ele>439.6</ele>
        <time>2022-05-24 10:53:36</time>
      </trkpt>
      <trkpt lat="41.08456" lon="0.89867">
        <ele>439.8</ele>
        <time>2022-05-24 10:53:37</time>
      </trkpt>
      <trkpt lat="41.08455" lon="0.89868">
        <ele>440.2</ele>
        <time>2022-05-24 10:53:38</time>
      </trkpt>
      <trkpt lat="41.08453" lon="0.89869">
        <ele>440.4</ele>
        <time>2022-05-24 10:53:39</time>
      </trkpt>
      <trkpt lat="41.08451" lon="0.8987">
        <ele>440.6</ele>
        <time>2022-05-24 10:53:40</time>
      </trkpt>
      <trkpt lat="41.0845" lon="0.89871">
        <ele>440.8</ele>
        <time>2022-05-24 10:53:41</time>
      </trkpt>
      <trkpt lat="41.08448" lon="0.89872">
        <ele>440.8</ele>
        <time>2022-05-24 10:53:42</time>
      </trkpt>
      <trkpt lat="41.08447" lon="0.89873">
        <ele>441</ele>
        <time>2022-05-24 10:53:43</time>
      </trkpt>
      <trkpt lat="41.08446" lon="0.89875">
        <ele>441.2</ele>
        <time>2022-05-24 10:53:44</time>
      </trkpt>
      <trkpt lat="41.08444" lon="0.89876">
        <ele>441.4</ele>
        <time>2022-05-24 10:53:45</time>
      </trkpt>
      <trkpt lat="41.08442" lon="0.89878">
        <ele>441.6</ele>
        <time>2022-05-24 10:53:46</time>
      </trkpt>
      <trkpt lat="41.08441" lon="0.89879">
        <ele>441.8</ele>
        <time>2022-05-24 10:53:47</time>
      </trkpt>
      <trkpt lat="41.08439" lon="0.89879">
        <ele>441.8</ele>
        <time>2022-05-24 10:53:48</time>
      </trkpt>
      <trkpt lat="41.08438" lon="0.8988">
        <ele>442</ele>
        <time>2022-05-24 10:53:49</time>
      </trkpt>
      <trkpt lat="41.08436" lon="0.89881">
        <ele>442.2</ele>
        <time>2022-05-24 10:53:50</time>
      </trkpt>
      <trkpt lat="41.08434" lon="0.89882">
        <ele>442.2</ele>
        <time>2022-05-24 10:53:51</time>
      </trkpt>
      <trkpt lat="41.08432" lon="0.89883">
        <ele>442.4</ele>
        <time>2022-05-24 10:53:52</time>
      </trkpt>
      <trkpt lat="41.0843" lon="0.89884">
        <ele>442.4</ele>
        <time>2022-05-24 10:53:53</time>
      </trkpt>
      <trkpt lat="41.08429" lon="0.89885">
        <ele>442.6</ele>
        <time>2022-05-24 10:53:54</time>
      </trkpt>
      <trkpt lat="41.08427" lon="0.89886">
        <ele>442.8</ele>
        <time>2022-05-24 10:53:55</time>
      </trkpt>
      <trkpt lat="41.08426" lon="0.89888">
        <ele>442.8</ele>
        <time>2022-05-24 10:53:56</time>
      </trkpt>
      <trkpt lat="41.08424" lon="0.89889">
        <ele>443</ele>
        <time>2022-05-24 10:53:57</time>
      </trkpt>
      <trkpt lat="41.08423" lon="0.8989">
        <ele>443.2</ele>
        <time>2022-05-24 10:53:58</time>
      </trkpt>
      <trkpt lat="41.08421" lon="0.89891">
        <ele>443.2</ele>
        <time>2022-05-24 10:53:59</time>
      </trkpt>
      <trkpt lat="41.0842" lon="0.89892">
        <ele>443.4</ele>
        <time>2022-05-24 10:54:00</time>
      </trkpt>
      <trkpt lat="41.08419" lon="0.89893">
        <ele>443.4</ele>
        <time>2022-05-24 10:54:01</time>
      </trkpt>
      <trkpt lat="41.08417" lon="0.89894">
        <ele>443.6</ele>
        <time>2022-05-24 10:54:02</time>
      </trkpt>
      <trkpt lat="41.08416" lon="0.89896">
        <ele>443.6</ele>
        <time>2022-05-24 10:54:03</time>
      </trkpt>
      <trkpt lat="41.08414" lon="0.89898">
        <ele>443.8</ele>
        <time>2022-05-24 10:54:04</time>
      </trkpt>
      <trkpt lat="41.08412" lon="0.899">
        <ele>443.8</ele>
        <time>2022-05-24 10:54:05</time>
      </trkpt>
      <trkpt lat="41.08411" lon="0.89902">
        <ele>443.8</ele>
        <time>2022-05-24 10:54:06</time>
      </trkpt>
      <trkpt lat="41.08408" lon="0.89904">
        <ele>444</ele>
        <time>2022-05-24 10:54:07</time>
      </trkpt>
      <trkpt lat="41.08406" lon="0.89905">
        <ele>444</ele>
        <time>2022-05-24 10:54:08</time>
      </trkpt>
      <trkpt lat="41.08404" lon="0.89906">
        <ele>444</ele>
        <time>2022-05-24 10:54:09</time>
      </trkpt>
      <trkpt lat="41.08401" lon="0.89907">
        <ele>444</ele>
        <time>2022-05-24 10:54:10</time>
      </trkpt>
      <trkpt lat="41.08399" lon="0.89909">
        <ele>444.2</ele>
        <time>2022-05-24 10:54:11</time>
      </trkpt>
      <trkpt lat="41.08397" lon="0.8991">
        <ele>444.2</ele>
        <time>2022-05-24 10:54:12</time>
      </trkpt>
      <trkpt lat="41.08395" lon="0.89911">
        <ele>444.2</ele>
        <time>2022-05-24 10:54:13</time>
      </trkpt>
      <trkpt lat="41.08392" lon="0.89912">
        <ele>444.2</ele>
        <time>2022-05-24 10:54:14</time>
      </trkpt>
      <trkpt lat="41.08389" lon="0.89912">
        <ele>444.4</ele>
        <time>2022-05-24 10:54:15</time>
      </trkpt>
      <trkpt lat="41.08386" lon="0.89912">
        <ele>444.4</ele>
        <time>2022-05-24 10:54:16</time>
      </trkpt>
      <trkpt lat="41.08383" lon="0.89912">
        <ele>444.4</ele>
        <time>2022-05-24 10:54:17</time>
      </trkpt>
      <trkpt lat="41.08381" lon="0.89912">
        <ele>444.4</ele>
        <time>2022-05-24 10:54:18</time>
      </trkpt>
      <trkpt lat="41.08379" lon="0.89911">
        <ele>444.4</ele>
        <time>2022-05-24 10:54:19</time>
      </trkpt>
      <trkpt lat="41.08376" lon="0.8991">
        <ele>444.4</ele>
        <time>2022-05-24 10:54:20</time>
      </trkpt>
      <trkpt lat="41.08374" lon="0.8991">
        <ele>444.4</ele>
        <time>2022-05-24 10:54:21</time>
      </trkpt>
      <trkpt lat="41.08371" lon="0.89909">
        <ele>444.4</ele>
        <time>2022-05-24 10:54:22</time>
      </trkpt>
      <trkpt lat="41.08368" lon="0.89908">
        <ele>444.4</ele>
        <time>2022-05-24 10:54:23</time>
      </trkpt>
      <trkpt lat="41.08365" lon="0.89907">
        <ele>444.4</ele>
        <time>2022-05-24 10:54:24</time>
      </trkpt>
      <trkpt lat="41.08361" lon="0.89906">
        <ele>444.4</ele>
        <time>2022-05-24 10:54:25</time>
      </trkpt>
      <trkpt lat="41.08357" lon="0.89904">
        <ele>444.2</ele>
        <time>2022-05-24 10:54:26</time>
      </trkpt>
      <trkpt lat="41.08353" lon="0.89903">
        <ele>444</ele>
        <time>2022-05-24 10:54:27</time>
      </trkpt>
      <trkpt lat="41.08349" lon="0.89902">
        <ele>443.8</ele>
        <time>2022-05-24 10:54:28</time>
      </trkpt>
      <trkpt lat="41.08343" lon="0.899">
        <ele>443.6</ele>
        <time>2022-05-24 10:54:29</time>
      </trkpt>
      <trkpt lat="41.08338" lon="0.89899">
        <ele>443.4</ele>
        <time>2022-05-24 10:54:30</time>
      </trkpt>
      <trkpt lat="41.08332" lon="0.89898">
        <ele>442.8</ele>
        <time>2022-05-24 10:54:31</time>
      </trkpt>
      <trkpt lat="41.08326" lon="0.89898">
        <ele>442.4</ele>
        <time>2022-05-24 10:54:32</time>
      </trkpt>
      <trkpt lat="41.08319" lon="0.89899">
        <ele>441.8</ele>
        <time>2022-05-24 10:54:33</time>
      </trkpt>
      <trkpt lat="41.08311" lon="0.89898">
        <ele>441.4</ele>
        <time>2022-05-24 10:54:34</time>
      </trkpt>
      <trkpt lat="41.08304" lon="0.89897">
        <ele>440.8</ele>
        <time>2022-05-24 10:54:35</time>
      </trkpt>
      <trkpt lat="41.08296" lon="0.89894">
        <ele>439.8</ele>
        <time>2022-05-24 10:54:36</time>
      </trkpt>
      <trkpt lat="41.08288" lon="0.8989">
        <ele>439</ele>
        <time>2022-05-24 10:54:37</time>
      </trkpt>
      <trkpt lat="41.08279" lon="0.89885">
        <ele>438.2</ele>
        <time>2022-05-24 10:54:38</time>
      </trkpt>
      <trkpt lat="41.0827" lon="0.89881">
        <ele>437.6</ele>
        <time>2022-05-24 10:54:39</time>
      </trkpt>
      <trkpt lat="41.08261" lon="0.89878">
        <ele>437.2</ele>
        <time>2022-05-24 10:54:40</time>
      </trkpt>
      <trkpt lat="41.08251" lon="0.89877">
        <ele>436.6</ele>
        <time>2022-05-24 10:54:41</time>
      </trkpt>
      <trkpt lat="41.08243" lon="0.89877">
        <ele>436.2</ele>
        <time>2022-05-24 10:54:42</time>
      </trkpt>
      <trkpt lat="41.08233" lon="0.89878">
        <ele>435.8</ele>
        <time>2022-05-24 10:54:43</time>
      </trkpt>
      <trkpt lat="41.08224" lon="0.8988">
        <ele>435.6</ele>
        <time>2022-05-24 10:54:44</time>
      </trkpt>
      <trkpt lat="41.08215" lon="0.89882">
        <ele>435.4</ele>
        <time>2022-05-24 10:54:45</time>
      </trkpt>
      <trkpt lat="41.08206" lon="0.89885">
        <ele>435.2</ele>
        <time>2022-05-24 10:54:46</time>
      </trkpt>
      <trkpt lat="41.08198" lon="0.89888">
        <ele>435</ele>
        <time>2022-05-24 10:54:47</time>
      </trkpt>
      <trkpt lat="41.08189" lon="0.89891">
        <ele>434.6</ele>
        <time>2022-05-24 10:54:48</time>
      </trkpt>
      <trkpt lat="41.0818" lon="0.89894">
        <ele>434.4</ele>
        <time>2022-05-24 10:54:49</time>
      </trkpt>
      <trkpt lat="41.08172" lon="0.89897">
        <ele>434.2</ele>
        <time>2022-05-24 10:54:50</time>
      </trkpt>
      <trkpt lat="41.08163" lon="0.899">
        <ele>434</ele>
        <time>2022-05-24 10:54:51</time>
      </trkpt>
      <trkpt lat="41.08155" lon="0.89904">
        <ele>433.8</ele>
        <time>2022-05-24 10:54:52</time>
      </trkpt>
      <trkpt lat="41.08146" lon="0.89908">
        <ele>433.4</ele>
        <time>2022-05-24 10:54:53</time>
      </trkpt>
      <trkpt lat="41.08138" lon="0.89912">
        <ele>433</ele>
        <time>2022-05-24 10:54:54</time>
      </trkpt>
      <trkpt lat="41.0813" lon="0.89917">
        <ele>432.6</ele>
        <time>2022-05-24 10:54:55</time>
      </trkpt>
      <trkpt lat="41.08122" lon="0.89923">
        <ele>432.2</ele>
        <time>2022-05-24 10:54:56</time>
      </trkpt>
      <trkpt lat="41.08114" lon="0.89931">
        <ele>432</ele>
        <time>2022-05-24 10:54:57</time>
      </trkpt>
      <trkpt lat="41.08107" lon="0.89939">
        <ele>431.2</ele>
        <time>2022-05-24 10:54:58</time>
      </trkpt>
      <trkpt lat="41.08098" lon="0.89948">
        <ele>430.6</ele>
        <time>2022-05-24 10:54:59</time>
      </trkpt>
      <trkpt lat="41.08088" lon="0.89956">
        <ele>429.8</ele>
        <time>2022-05-24 10:55:00</time>
      </trkpt>
      <trkpt lat="41.08078" lon="0.89965">
        <ele>428.6</ele>
        <time>2022-05-24 10:55:01</time>
      </trkpt>
      <trkpt lat="41.08068" lon="0.89972">
        <ele>427.4</ele>
        <time>2022-05-24 10:55:02</time>
      </trkpt>
      <trkpt lat="41.08057" lon="0.89978">
        <ele>426.2</ele>
        <time>2022-05-24 10:55:03</time>
      </trkpt>
      <trkpt lat="41.08045" lon="0.89985">
        <ele>425</ele>
        <time>2022-05-24 10:55:04</time>
      </trkpt>
      <trkpt lat="41.08035" lon="0.89988">
        <ele>424.2</ele>
        <time>2022-05-24 10:55:05</time>
      </trkpt>
      <trkpt lat="41.08021" lon="0.8999">
        <ele>423.2</ele>
        <time>2022-05-24 10:55:06</time>
      </trkpt>
      <trkpt lat="41.08012" lon="0.89989">
        <ele>422.4</ele>
        <time>2022-05-24 10:55:07</time>
      </trkpt>
      <trkpt lat="41.08005" lon="0.89985">
        <ele>421.6</ele>
        <time>2022-05-24 10:55:08</time>
      </trkpt>
      <trkpt lat="41.07997" lon="0.89978">
        <ele>420.8</ele>
        <time>2022-05-24 10:55:09</time>
      </trkpt>
      <trkpt lat="41.07991" lon="0.8997">
        <ele>420.2</ele>
        <time>2022-05-24 10:55:10</time>
      </trkpt>
      <trkpt lat="41.07986" lon="0.89962">
        <ele>419.6</ele>
        <time>2022-05-24 10:55:11</time>
      </trkpt>
      <trkpt lat="41.07978" lon="0.89955">
        <ele>419.2</ele>
        <time>2022-05-24 10:55:12</time>
      </trkpt>
      <trkpt lat="41.07972" lon="0.89948">
        <ele>418.6</ele>
        <time>2022-05-24 10:55:13</time>
      </trkpt>
      <trkpt lat="41.07965" lon="0.89943">
        <ele>418.2</ele>
        <time>2022-05-24 10:55:14</time>
      </trkpt>
      <trkpt lat="41.07956" lon="0.89939">
        <ele>417.6</ele>
        <time>2022-05-24 10:55:15</time>
      </trkpt>
      <trkpt lat="41.07948" lon="0.89935">
        <ele>416.8</ele>
        <time>2022-05-24 10:55:16</time>
      </trkpt>
      <trkpt lat="41.07938" lon="0.89931">
        <ele>416.2</ele>
        <time>2022-05-24 10:55:17</time>
      </trkpt>
      <trkpt lat="41.07928" lon="0.89927">
        <ele>415.4</ele>
        <time>2022-05-24 10:55:18</time>
      </trkpt>
      <trkpt lat="41.07919" lon="0.89924">
        <ele>415</ele>
        <time>2022-05-24 10:55:19</time>
      </trkpt>
      <trkpt lat="41.0791" lon="0.89921">
        <ele>415</ele>
        <time>2022-05-24 10:55:20</time>
      </trkpt>
      <trkpt lat="41.07902" lon="0.89919">
        <ele>415</ele>
        <time>2022-05-24 10:55:21</time>
      </trkpt>
      <trkpt lat="41.07894" lon="0.89919">
        <ele>415.4</ele>
        <time>2022-05-24 10:55:22</time>
      </trkpt>
      <trkpt lat="41.07887" lon="0.89919">
        <ele>415.6</ele>
        <time>2022-05-24 10:55:23</time>
      </trkpt>
      <trkpt lat="41.0788" lon="0.89919">
        <ele>416</ele>
        <time>2022-05-24 10:55:24</time>
      </trkpt>
      <trkpt lat="41.07875" lon="0.89919">
        <ele>416.4</ele>
        <time>2022-05-24 10:55:25</time>
      </trkpt>
      <trkpt lat="41.07868" lon="0.8992">
        <ele>416.6</ele>
        <time>2022-05-24 10:55:26</time>
      </trkpt>
      <trkpt lat="41.07862" lon="0.89921">
        <ele>417</ele>
        <time>2022-05-24 10:55:27</time>
      </trkpt>
      <trkpt lat="41.07856" lon="0.89922">
        <ele>417.2</ele>
        <time>2022-05-24 10:55:28</time>
      </trkpt>
      <trkpt lat="41.0785" lon="0.89922">
        <ele>417.4</ele>
        <time>2022-05-24 10:55:29</time>
      </trkpt>
      <trkpt lat="41.07845" lon="0.89922">
        <ele>417.4</ele>
        <time>2022-05-24 10:55:30</time>
      </trkpt>
      <trkpt lat="41.07839" lon="0.89923">
        <ele>417.4</ele>
        <time>2022-05-24 10:55:31</time>
      </trkpt>
      <trkpt lat="41.07834" lon="0.89925">
        <ele>417.2</ele>
        <time>2022-05-24 10:55:32</time>
      </trkpt>
      <trkpt lat="41.07829" lon="0.89927">
        <ele>417</ele>
        <time>2022-05-24 10:55:33</time>
      </trkpt>
      <trkpt lat="41.07822" lon="0.8993">
        <ele>416.6</ele>
        <time>2022-05-24 10:55:34</time>
      </trkpt>
      <trkpt lat="41.07816" lon="0.89934">
        <ele>416.2</ele>
        <time>2022-05-24 10:55:35</time>
      </trkpt>
      <trkpt lat="41.07808" lon="0.89939">
        <ele>415.6</ele>
        <time>2022-05-24 10:55:36</time>
      </trkpt>
      <trkpt lat="41.078" lon="0.89943">
        <ele>414.8</ele>
        <time>2022-05-24 10:55:37</time>
      </trkpt>
      <trkpt lat="41.07791" lon="0.89946">
        <ele>414.2</ele>
        <time>2022-05-24 10:55:38</time>
      </trkpt>
      <trkpt lat="41.07781" lon="0.89949">
        <ele>413.4</ele>
        <time>2022-05-24 10:55:39</time>
      </trkpt>
      <trkpt lat="41.07772" lon="0.89949">
        <ele>412.8</ele>
        <time>2022-05-24 10:55:40</time>
      </trkpt>
      <trkpt lat="41.07764" lon="0.89946">
        <ele>412</ele>
        <time>2022-05-24 10:55:41</time>
      </trkpt>
      <trkpt lat="41.07756" lon="0.89941">
        <ele>411.2</ele>
        <time>2022-05-24 10:55:42</time>
      </trkpt>
      <trkpt lat="41.0775" lon="0.89934">
        <ele>410.4</ele>
        <time>2022-05-24 10:55:43</time>
      </trkpt>
      <trkpt lat="41.07747" lon="0.89924">
        <ele>409.4</ele>
        <time>2022-05-24 10:55:44</time>
      </trkpt>
      <trkpt lat="41.07743" lon="0.89912">
        <ele>408.6</ele>
        <time>2022-05-24 10:55:45</time>
      </trkpt>
      <trkpt lat="41.07741" lon="0.89901">
        <ele>407.8</ele>
        <time>2022-05-24 10:55:46</time>
      </trkpt>
      <trkpt lat="41.0774" lon="0.89887">
        <ele>406.6</ele>
        <time>2022-05-24 10:55:47</time>
      </trkpt>
      <trkpt lat="41.07741" lon="0.89875">
        <ele>405.8</ele>
        <time>2022-05-24 10:55:48</time>
      </trkpt>
      <trkpt lat="41.07743" lon="0.89862">
        <ele>404.8</ele>
        <time>2022-05-24 10:55:49</time>
      </trkpt>
      <trkpt lat="41.07747" lon="0.89849">
        <ele>404</ele>
        <time>2022-05-24 10:55:50</time>
      </trkpt>
      <trkpt lat="41.07754" lon="0.89836">
        <ele>403</ele>
        <time>2022-05-24 10:55:51</time>
      </trkpt>
      <trkpt lat="41.07761" lon="0.89825">
        <ele>402.4</ele>
        <time>2022-05-24 10:55:52</time>
      </trkpt>
      <trkpt lat="41.07769" lon="0.89815">
        <ele>401.8</ele>
        <time>2022-05-24 10:55:53</time>
      </trkpt>
      <trkpt lat="41.07778" lon="0.89807">
        <ele>401</ele>
        <time>2022-05-24 10:55:54</time>
      </trkpt>
      <trkpt lat="41.07786" lon="0.89799">
        <ele>400.2</ele>
        <time>2022-05-24 10:55:55</time>
      </trkpt>
      <trkpt lat="41.07795" lon="0.89792">
        <ele>399.4</ele>
        <time>2022-05-24 10:55:56</time>
      </trkpt>
      <trkpt lat="41.07805" lon="0.89785">
        <ele>398.6</ele>
        <time>2022-05-24 10:55:57</time>
      </trkpt>
      <trkpt lat="41.07814" lon="0.89779">
        <ele>397.8</ele>
        <time>2022-05-24 10:55:58</time>
      </trkpt>
      <trkpt lat="41.07825" lon="0.89772">
        <ele>396.8</ele>
        <time>2022-05-24 10:55:59</time>
      </trkpt>
      <trkpt lat="41.07836" lon="0.89768">
        <ele>395.8</ele>
        <time>2022-05-24 10:56:00</time>
      </trkpt>
      <trkpt lat="41.07847" lon="0.89766">
        <ele>394.8</ele>
        <time>2022-05-24 10:56:01</time>
      </trkpt>
      <trkpt lat="41.07858" lon="0.89766">
        <ele>394.2</ele>
        <time>2022-05-24 10:56:02</time>
      </trkpt>
      <trkpt lat="41.07868" lon="0.89766">
        <ele>393.4</ele>
        <time>2022-05-24 10:56:03</time>
      </trkpt>
      <trkpt lat="41.07877" lon="0.89762">
        <ele>393</ele>
        <time>2022-05-24 10:56:04</time>
      </trkpt>
      <trkpt lat="41.07885" lon="0.89757">
        <ele>392.8</ele>
        <time>2022-05-24 10:56:05</time>
      </trkpt>
      <trkpt lat="41.07888" lon="0.89748">
        <ele>392.2</ele>
        <time>2022-05-24 10:56:06</time>
      </trkpt>
      <trkpt lat="41.0789" lon="0.8974">
        <ele>391.8</ele>
        <time>2022-05-24 10:56:07</time>
      </trkpt>
      <trkpt lat="41.07886" lon="0.89728">
        <ele>391.2</ele>
        <time>2022-05-24 10:56:08</time>
      </trkpt>
      <trkpt lat="41.0788" lon="0.89719">
        <ele>390.6</ele>
        <time>2022-05-24 10:56:09</time>
      </trkpt>
      <trkpt lat="41.07873" lon="0.8971">
        <ele>389.8</ele>
        <time>2022-05-24 10:56:10</time>
      </trkpt>
      <trkpt lat="41.07865" lon="0.89703">
        <ele>388.8</ele>
        <time>2022-05-24 10:56:11</time>
      </trkpt>
      <trkpt lat="41.07856" lon="0.89695">
        <ele>387.4</ele>
        <time>2022-05-24 10:56:12</time>
      </trkpt>
      <trkpt lat="41.07848" lon="0.89684">
        <ele>386.2</ele>
        <time>2022-05-24 10:56:13</time>
      </trkpt>
      <trkpt lat="41.07842" lon="0.89669">
        <ele>384.6</ele>
        <time>2022-05-24 10:56:14</time>
      </trkpt>
      <trkpt lat="41.07837" lon="0.89654">
        <ele>383</ele>
        <time>2022-05-24 10:56:15</time>
      </trkpt>
      <trkpt lat="41.07832" lon="0.89637">
        <ele>381.6</ele>
        <time>2022-05-24 10:56:16</time>
      </trkpt>
      <trkpt lat="41.07825" lon="0.89623">
        <ele>380.2</ele>
        <time>2022-05-24 10:56:17</time>
      </trkpt>
      <trkpt lat="41.07817" lon="0.89604">
        <ele>378.2</ele>
        <time>2022-05-24 10:56:18</time>
      </trkpt>
      <trkpt lat="41.07812" lon="0.89587">
        <ele>377</ele>
        <time>2022-05-24 10:56:19</time>
      </trkpt>
      <trkpt lat="41.07809" lon="0.89569">
        <ele>375.4</ele>
        <time>2022-05-24 10:56:20</time>
      </trkpt>
      <trkpt lat="41.07808" lon="0.89553">
        <ele>374.4</ele>
        <time>2022-05-24 10:56:21</time>
      </trkpt>
      <trkpt lat="41.07808" lon="0.89535">
        <ele>373.4</ele>
        <time>2022-05-24 10:56:22</time>
      </trkpt>
      <trkpt lat="41.07806" lon="0.89521">
        <ele>372.4</ele>
        <time>2022-05-24 10:56:23</time>
      </trkpt>
      <trkpt lat="41.078" lon="0.89506">
        <ele>371.4</ele>
        <time>2022-05-24 10:56:24</time>
      </trkpt>
      <trkpt lat="41.07792" lon="0.89493">
        <ele>370.2</ele>
        <time>2022-05-24 10:56:25</time>
      </trkpt>
      <trkpt lat="41.07779" lon="0.89485">
        <ele>369.2</ele>
        <time>2022-05-24 10:56:26</time>
      </trkpt>
      <trkpt lat="41.07767" lon="0.89477">
        <ele>368</ele>
        <time>2022-05-24 10:56:27</time>
      </trkpt>
      <trkpt lat="41.07755" lon="0.89471">
        <ele>366</ele>
        <time>2022-05-24 10:56:28</time>
      </trkpt>
      <trkpt lat="41.07745" lon="0.89464">
        <ele>364.8</ele>
        <time>2022-05-24 10:56:29</time>
      </trkpt>
      <trkpt lat="41.07738" lon="0.89456">
        <ele>363.4</ele>
        <time>2022-05-24 10:56:30</time>
      </trkpt>
      <trkpt lat="41.07733" lon="0.89447">
        <ele>362</ele>
        <time>2022-05-24 10:56:31</time>
      </trkpt>
      <trkpt lat="41.07733" lon="0.89439">
        <ele>360.8</ele>
        <time>2022-05-24 10:56:32</time>
      </trkpt>
      <trkpt lat="41.07735" lon="0.89431">
        <ele>359.6</ele>
        <time>2022-05-24 10:56:33</time>
      </trkpt>
      <trkpt lat="41.0774" lon="0.89423">
        <ele>358.6</ele>
        <time>2022-05-24 10:56:34</time>
      </trkpt>
      <trkpt lat="41.07744" lon="0.89413">
        <ele>357.6</ele>
        <time>2022-05-24 10:56:35</time>
      </trkpt>
      <trkpt lat="41.07744" lon="0.89403">
        <ele>356.8</ele>
        <time>2022-05-24 10:56:36</time>
      </trkpt>
      <trkpt lat="41.0774" lon="0.89396">
        <ele>356.2</ele>
        <time>2022-05-24 10:56:37</time>
      </trkpt>
      <trkpt lat="41.07734" lon="0.89397">
        <ele>355.8</ele>
        <time>2022-05-24 10:56:38</time>
      </trkpt>
      <trkpt lat="41.07728" lon="0.894">
        <ele>355.6</ele>
        <time>2022-05-24 10:56:39</time>
      </trkpt>
      <trkpt lat="41.07723" lon="0.89404">
        <ele>355.6</ele>
        <time>2022-05-24 10:56:40</time>
      </trkpt>
      <trkpt lat="41.07718" lon="0.89407">
        <ele>355.6</ele>
        <time>2022-05-24 10:56:41</time>
      </trkpt>
      <trkpt lat="41.07712" lon="0.89412">
        <ele>355.6</ele>
        <time>2022-05-24 10:56:42</time>
      </trkpt>
      <trkpt lat="41.07707" lon="0.89414">
        <ele>355.6</ele>
        <time>2022-05-24 10:56:43</time>
      </trkpt>
      <trkpt lat="41.077" lon="0.89416">
        <ele>355.6</ele>
        <time>2022-05-24 10:56:44</time>
      </trkpt>
      <trkpt lat="41.07695" lon="0.89418">
        <ele>355.6</ele>
        <time>2022-05-24 10:56:45</time>
      </trkpt>
      <trkpt lat="41.07687" lon="0.8942">
        <ele>355.6</ele>
        <time>2022-05-24 10:56:46</time>
      </trkpt>
      <trkpt lat="41.0768" lon="0.89421">
        <ele>355.6</ele>
        <time>2022-05-24 10:56:47</time>
      </trkpt>
      <trkpt lat="41.07675" lon="0.89422">
        <ele>355.6</ele>
        <time>2022-05-24 10:56:48</time>
      </trkpt>
      <trkpt lat="41.0767" lon="0.89424">
        <ele>355.6</ele>
        <time>2022-05-24 10:56:49</time>
      </trkpt>
      <trkpt lat="41.07663" lon="0.89426">
        <ele>355.6</ele>
        <time>2022-05-24 10:56:50</time>
      </trkpt>
      <trkpt lat="41.07657" lon="0.89427">
        <ele>355.6</ele>
        <time>2022-05-24 10:56:51</time>
      </trkpt>
      <trkpt lat="41.07651" lon="0.8943">
        <ele>355.8</ele>
        <time>2022-05-24 10:56:52</time>
      </trkpt>
      <trkpt lat="41.07646" lon="0.89431">
        <ele>356</ele>
        <time>2022-05-24 10:56:53</time>
      </trkpt>
      <trkpt lat="41.0764" lon="0.89433">
        <ele>356.2</ele>
        <time>2022-05-24 10:56:54</time>
      </trkpt>
      <trkpt lat="41.07635" lon="0.89434">
        <ele>356.2</ele>
        <time>2022-05-24 10:56:55</time>
      </trkpt>
      <trkpt lat="41.07629" lon="0.89434">
        <ele>356.4</ele>
        <time>2022-05-24 10:56:56</time>
      </trkpt>
      <trkpt lat="41.07624" lon="0.89434">
        <ele>356.4</ele>
        <time>2022-05-24 10:56:57</time>
      </trkpt>
      <trkpt lat="41.07618" lon="0.89434">
        <ele>356.4</ele>
        <time>2022-05-24 10:56:58</time>
      </trkpt>
      <trkpt lat="41.07613" lon="0.89434">
        <ele>356.2</ele>
        <time>2022-05-24 10:56:59</time>
      </trkpt>
      <trkpt lat="41.07606" lon="0.89434">
        <ele>356</ele>
        <time>2022-05-24 10:57:00</time>
      </trkpt>
      <trkpt lat="41.076" lon="0.89435">
        <ele>355.6</ele>
        <time>2022-05-24 10:57:01</time>
      </trkpt>
      <trkpt lat="41.07593" lon="0.89435">
        <ele>355.4</ele>
        <time>2022-05-24 10:57:02</time>
      </trkpt>
      <trkpt lat="41.07586" lon="0.89436">
        <ele>355</ele>
        <time>2022-05-24 10:57:03</time>
      </trkpt>
      <trkpt lat="41.07577" lon="0.89435">
        <ele>354.4</ele>
        <time>2022-05-24 10:57:04</time>
      </trkpt>
      <trkpt lat="41.0757" lon="0.89434">
        <ele>353.8</ele>
        <time>2022-05-24 10:57:05</time>
      </trkpt>
      <trkpt lat="41.0756" lon="0.89431">
        <ele>353.2</ele>
        <time>2022-05-24 10:57:06</time>
      </trkpt>
      <trkpt lat="41.07553" lon="0.89429">
        <ele>352.6</ele>
        <time>2022-05-24 10:57:07</time>
      </trkpt>
      <trkpt lat="41.07543" lon="0.89424">
        <ele>352</ele>
        <time>2022-05-24 10:57:08</time>
      </trkpt>
      <trkpt lat="41.07534" lon="0.89418">
        <ele>351.4</ele>
        <time>2022-05-24 10:57:09</time>
      </trkpt>
      <trkpt lat="41.07525" lon="0.89413">
        <ele>350.8</ele>
        <time>2022-05-24 10:57:10</time>
      </trkpt>
      <trkpt lat="41.07516" lon="0.89407">
        <ele>350</ele>
        <time>2022-05-24 10:57:11</time>
      </trkpt>
      <trkpt lat="41.07507" lon="0.89404">
        <ele>349.4</ele>
        <time>2022-05-24 10:57:12</time>
      </trkpt>
      <trkpt lat="41.07498" lon="0.89402">
        <ele>348.8</ele>
        <time>2022-05-24 10:57:13</time>
      </trkpt>
      <trkpt lat="41.07485" lon="0.89401">
        <ele>347.8</ele>
        <time>2022-05-24 10:57:14</time>
      </trkpt>
      <trkpt lat="41.07476" lon="0.89401">
        <ele>347.2</ele>
        <time>2022-05-24 10:57:15</time>
      </trkpt>
      <trkpt lat="41.07467" lon="0.894">
        <ele>346.6</ele>
        <time>2022-05-24 10:57:16</time>
      </trkpt>
      <trkpt lat="41.07458" lon="0.89395">
        <ele>345.6</ele>
        <time>2022-05-24 10:57:17</time>
      </trkpt>
      <trkpt lat="41.07452" lon="0.89388">
        <ele>344.8</ele>
        <time>2022-05-24 10:57:18</time>
      </trkpt>
      <trkpt lat="41.07445" lon="0.89377">
        <ele>343.8</ele>
        <time>2022-05-24 10:57:19</time>
      </trkpt>
      <trkpt lat="41.07442" lon="0.89367">
        <ele>342.8</ele>
        <time>2022-05-24 10:57:20</time>
      </trkpt>
      <trkpt lat="41.07438" lon="0.89355">
        <ele>342</ele>
        <time>2022-05-24 10:57:21</time>
      </trkpt>
      <trkpt lat="41.07433" lon="0.8934">
        <ele>341.2</ele>
        <time>2022-05-24 10:57:22</time>
      </trkpt>
      <trkpt lat="41.07426" lon="0.8933">
        <ele>340.6</ele>
        <time>2022-05-24 10:57:23</time>
      </trkpt>
      <trkpt lat="41.07419" lon="0.89323">
        <ele>340</ele>
        <time>2022-05-24 10:57:24</time>
      </trkpt>
      <trkpt lat="41.0741" lon="0.89317">
        <ele>339.2</ele>
        <time>2022-05-24 10:57:25</time>
      </trkpt>
      <trkpt lat="41.07399" lon="0.89312">
        <ele>338.6</ele>
        <time>2022-05-24 10:57:26</time>
      </trkpt>
      <trkpt lat="41.07391" lon="0.89308">
        <ele>338</ele>
        <time>2022-05-24 10:57:27</time>
      </trkpt>
      <trkpt lat="41.07379" lon="0.89303">
        <ele>337.6</ele>
        <time>2022-05-24 10:57:28</time>
      </trkpt>
      <trkpt lat="41.07371" lon="0.893">
        <ele>337.2</ele>
        <time>2022-05-24 10:57:29</time>
      </trkpt>
      <trkpt lat="41.0736" lon="0.89295">
        <ele>336.8</ele>
        <time>2022-05-24 10:57:30</time>
      </trkpt>
      <trkpt lat="41.07351" lon="0.8929">
        <ele>336.4</ele>
        <time>2022-05-24 10:57:31</time>
      </trkpt>
      <trkpt lat="41.07342" lon="0.89285">
        <ele>336.2</ele>
        <time>2022-05-24 10:57:32</time>
      </trkpt>
      <trkpt lat="41.07334" lon="0.8928">
        <ele>336.2</ele>
        <time>2022-05-24 10:57:33</time>
      </trkpt>
      <trkpt lat="41.07324" lon="0.89274">
        <ele>336</ele>
        <time>2022-05-24 10:57:34</time>
      </trkpt>
      <trkpt lat="41.07317" lon="0.89271">
        <ele>336</ele>
        <time>2022-05-24 10:57:35</time>
      </trkpt>
      <trkpt lat="41.07309" lon="0.89268">
        <ele>336</ele>
        <time>2022-05-24 10:57:36</time>
      </trkpt>
      <trkpt lat="41.07298" lon="0.89263">
        <ele>335.8</ele>
        <time>2022-05-24 10:57:37</time>
      </trkpt>
      <trkpt lat="41.07292" lon="0.8926">
        <ele>335.8</ele>
        <time>2022-05-24 10:57:38</time>
      </trkpt>
      <trkpt lat="41.07283" lon="0.89254">
        <ele>335.4</ele>
        <time>2022-05-24 10:57:39</time>
      </trkpt>
      <trkpt lat="41.07276" lon="0.89248">
        <ele>335.2</ele>
        <time>2022-05-24 10:57:40</time>
      </trkpt>
      <trkpt lat="41.07269" lon="0.8924">
        <ele>334.6</ele>
        <time>2022-05-24 10:57:41</time>
      </trkpt>
      <trkpt lat="41.07263" lon="0.89234">
        <ele>333.8</ele>
        <time>2022-05-24 10:57:42</time>
      </trkpt>
      <trkpt lat="41.07254" lon="0.89226">
        <ele>332.8</ele>
        <time>2022-05-24 10:57:43</time>
      </trkpt>
      <trkpt lat="41.07244" lon="0.89219">
        <ele>331.8</ele>
        <time>2022-05-24 10:57:44</time>
      </trkpt>
      <trkpt lat="41.07233" lon="0.89213">
        <ele>330.4</ele>
        <time>2022-05-24 10:57:45</time>
      </trkpt>
      <trkpt lat="41.07223" lon="0.89208">
        <ele>329</ele>
        <time>2022-05-24 10:57:46</time>
      </trkpt>
      <trkpt lat="41.07211" lon="0.89203">
        <ele>327.4</ele>
        <time>2022-05-24 10:57:47</time>
      </trkpt>
      <trkpt lat="41.07196" lon="0.89198">
        <ele>326</ele>
        <time>2022-05-24 10:57:48</time>
      </trkpt>
      <trkpt lat="41.07184" lon="0.89196">
        <ele>325</ele>
        <time>2022-05-24 10:57:49</time>
      </trkpt>
      <trkpt lat="41.07173" lon="0.89192">
        <ele>324</ele>
        <time>2022-05-24 10:57:50</time>
      </trkpt>
      <trkpt lat="41.0716" lon="0.89188">
        <ele>323.2</ele>
        <time>2022-05-24 10:57:51</time>
      </trkpt>
      <trkpt lat="41.07149" lon="0.89183">
        <ele>322</ele>
        <time>2022-05-24 10:57:52</time>
      </trkpt>
      <trkpt lat="41.07139" lon="0.89177">
        <ele>321</ele>
        <time>2022-05-24 10:57:53</time>
      </trkpt>
      <trkpt lat="41.07131" lon="0.89171">
        <ele>320</ele>
        <time>2022-05-24 10:57:54</time>
      </trkpt>
      <trkpt lat="41.07121" lon="0.89164">
        <ele>319.2</ele>
        <time>2022-05-24 10:57:55</time>
      </trkpt>
      <trkpt lat="41.07113" lon="0.89159">
        <ele>318.2</ele>
        <time>2022-05-24 10:57:56</time>
      </trkpt>
      <trkpt lat="41.07104" lon="0.8916">
        <ele>317.2</ele>
        <time>2022-05-24 10:57:57</time>
      </trkpt>
      <trkpt lat="41.07097" lon="0.89163">
        <ele>317</ele>
        <time>2022-05-24 10:57:58</time>
      </trkpt>
      <trkpt lat="41.07091" lon="0.89167">
        <ele>316.8</ele>
        <time>2022-05-24 10:57:59</time>
      </trkpt>
      <trkpt lat="41.07083" lon="0.8917">
        <ele>316.8</ele>
        <time>2022-05-24 10:58:00</time>
      </trkpt>
      <trkpt lat="41.07078" lon="0.89171">
        <ele>316.8</ele>
        <time>2022-05-24 10:58:01</time>
      </trkpt>
      <trkpt lat="41.07069" lon="0.89173">
        <ele>316.6</ele>
        <time>2022-05-24 10:58:02</time>
      </trkpt>
      <trkpt lat="41.07064" lon="0.89174">
        <ele>316.4</ele>
        <time>2022-05-24 10:58:03</time>
      </trkpt>
      <trkpt lat="41.07056" lon="0.89174">
        <ele>315.8</ele>
        <time>2022-05-24 10:58:04</time>
      </trkpt>
      <trkpt lat="41.07049" lon="0.89175">
        <ele>315.2</ele>
        <time>2022-05-24 10:58:05</time>
      </trkpt>
      <trkpt lat="41.0704" lon="0.89176">
        <ele>314.6</ele>
        <time>2022-05-24 10:58:06</time>
      </trkpt>
      <trkpt lat="41.07033" lon="0.89177">
        <ele>314</ele>
        <time>2022-05-24 10:58:07</time>
      </trkpt>
      <trkpt lat="41.07022" lon="0.89177">
        <ele>313</ele>
        <time>2022-05-24 10:58:08</time>
      </trkpt>
      <trkpt lat="41.07015" lon="0.89176">
        <ele>312.2</ele>
        <time>2022-05-24 10:58:09</time>
      </trkpt>
      <trkpt lat="41.07007" lon="0.89172">
        <ele>311.4</ele>
        <time>2022-05-24 10:58:10</time>
      </trkpt>
      <trkpt lat="41.07003" lon="0.89168">
        <ele>310.6</ele>
        <time>2022-05-24 10:58:11</time>
      </trkpt>
      <trkpt lat="41.06998" lon="0.89161">
        <ele>309.8</ele>
        <time>2022-05-24 10:58:12</time>
      </trkpt>
      <trkpt lat="41.06997" lon="0.89154">
        <ele>309</ele>
        <time>2022-05-24 10:58:13</time>
      </trkpt>
      <trkpt lat="41.06998" lon="0.89143">
        <ele>308.2</ele>
        <time>2022-05-24 10:58:14</time>
      </trkpt>
      <trkpt lat="41.07001" lon="0.89135">
        <ele>307.6</ele>
        <time>2022-05-24 10:58:15</time>
      </trkpt>
      <trkpt lat="41.07007" lon="0.8912">
        <ele>307.2</ele>
        <time>2022-05-24 10:58:16</time>
      </trkpt>
      <trkpt lat="41.07011" lon="0.89111">
        <ele>306.8</ele>
        <time>2022-05-24 10:58:17</time>
      </trkpt>
      <trkpt lat="41.07015" lon="0.89098">
        <ele>306.4</ele>
        <time>2022-05-24 10:58:18</time>
      </trkpt>
      <trkpt lat="41.07017" lon="0.89088">
        <ele>306</ele>
        <time>2022-05-24 10:58:19</time>
      </trkpt>
      <trkpt lat="41.07016" lon="0.89076">
        <ele>305.6</ele>
        <time>2022-05-24 10:58:20</time>
      </trkpt>
      <trkpt lat="41.07014" lon="0.89071">
        <ele>305.4</ele>
        <time>2022-05-24 10:58:21</time>
      </trkpt>
      <trkpt lat="41.07009" lon="0.89065">
        <ele>305.6</ele>
        <time>2022-05-24 10:58:22</time>
      </trkpt>
      <trkpt lat="41.07004" lon="0.89065">
        <ele>305.6</ele>
        <time>2022-05-24 10:58:23</time>
      </trkpt>
      <trkpt lat="41.06995" lon="0.89068">
        <ele>305.8</ele>
        <time>2022-05-24 10:58:24</time>
      </trkpt>
      <trkpt lat="41.0699" lon="0.89072">
        <ele>305.8</ele>
        <time>2022-05-24 10:58:25</time>
      </trkpt>
      <trkpt lat="41.06983" lon="0.89078">
        <ele>306</ele>
        <time>2022-05-24 10:58:26</time>
      </trkpt>
      <trkpt lat="41.06978" lon="0.89081">
        <ele>305.8</ele>
        <time>2022-05-24 10:58:27</time>
      </trkpt>
      <trkpt lat="41.06971" lon="0.89086">
        <ele>305.8</ele>
        <time>2022-05-24 10:58:28</time>
      </trkpt>
      <trkpt lat="41.06966" lon="0.8909">
        <ele>305.6</ele>
        <time>2022-05-24 10:58:29</time>
      </trkpt>
      <trkpt lat="41.06958" lon="0.89095">
        <ele>305.2</ele>
        <time>2022-05-24 10:58:30</time>
      </trkpt>
      <trkpt lat="41.06952" lon="0.89098">
        <ele>304.8</ele>
        <time>2022-05-24 10:58:31</time>
      </trkpt>
      <trkpt lat="41.06943" lon="0.891">
        <ele>304.6</ele>
        <time>2022-05-24 10:58:32</time>
      </trkpt>
      <trkpt lat="41.06936" lon="0.891">
        <ele>304.2</ele>
        <time>2022-05-24 10:58:33</time>
      </trkpt>
      <trkpt lat="41.06927" lon="0.89099">
        <ele>304.2</ele>
        <time>2022-05-24 10:58:34</time>
      </trkpt>
      <trkpt lat="41.06921" lon="0.89099">
        <ele>304</ele>
        <time>2022-05-24 10:58:35</time>
      </trkpt>
      <trkpt lat="41.06912" lon="0.89097">
        <ele>304</ele>
        <time>2022-05-24 10:58:36</time>
      </trkpt>
      <trkpt lat="41.06907" lon="0.89097">
        <ele>304.2</ele>
        <time>2022-05-24 10:58:37</time>
      </trkpt>
      <trkpt lat="41.06899" lon="0.89095">
        <ele>304.2</ele>
        <time>2022-05-24 10:58:38</time>
      </trkpt>
      <trkpt lat="41.06894" lon="0.89095">
        <ele>304.4</ele>
        <time>2022-05-24 10:58:39</time>
      </trkpt>
      <trkpt lat="41.06887" lon="0.89093">
        <ele>304.6</ele>
        <time>2022-05-24 10:58:40</time>
      </trkpt>
      <trkpt lat="41.06883" lon="0.89093">
        <ele>304.8</ele>
        <time>2022-05-24 10:58:41</time>
      </trkpt>
      <trkpt lat="41.06876" lon="0.89092">
        <ele>305</ele>
        <time>2022-05-24 10:58:42</time>
      </trkpt>
      <trkpt lat="41.06873" lon="0.89092">
        <ele>305.4</ele>
        <time>2022-05-24 10:58:43</time>
      </trkpt>
      <trkpt lat="41.06868" lon="0.89094">
        <ele>305.6</ele>
        <time>2022-05-24 10:58:44</time>
      </trkpt>
      <trkpt lat="41.06864" lon="0.89097">
        <ele>305.8</ele>
        <time>2022-05-24 10:58:45</time>
      </trkpt>
      <trkpt lat="41.06861" lon="0.89099">
        <ele>306</ele>
        <time>2022-05-24 10:58:46</time>
      </trkpt>
      <trkpt lat="41.06856" lon="0.89102">
        <ele>306.2</ele>
        <time>2022-05-24 10:58:47</time>
      </trkpt>
      <trkpt lat="41.06852" lon="0.89104">
        <ele>306.4</ele>
        <time>2022-05-24 10:58:48</time>
      </trkpt>
      <trkpt lat="41.06849" lon="0.89106">
        <ele>306.6</ele>
        <time>2022-05-24 10:58:49</time>
      </trkpt>
      <trkpt lat="41.06846" lon="0.89108">
        <ele>306.8</ele>
        <time>2022-05-24 10:58:50</time>
      </trkpt>
      <trkpt lat="41.06842" lon="0.8911">
        <ele>307</ele>
        <time>2022-05-24 10:58:51</time>
      </trkpt>
      <trkpt lat="41.0684" lon="0.89111">
        <ele>307.2</ele>
        <time>2022-05-24 10:58:52</time>
      </trkpt>
      <trkpt lat="41.06836" lon="0.89113">
        <ele>307.4</ele>
        <time>2022-05-24 10:58:53</time>
      </trkpt>
      <trkpt lat="41.06834" lon="0.89114">
        <ele>307.6</ele>
        <time>2022-05-24 10:58:54</time>
      </trkpt>
      <trkpt lat="41.06831" lon="0.89116">
        <ele>308</ele>
        <time>2022-05-24 10:58:55</time>
      </trkpt>
      <trkpt lat="41.06829" lon="0.89118">
        <ele>308.2</ele>
        <time>2022-05-24 10:58:56</time>
      </trkpt>
      <trkpt lat="41.06827" lon="0.8912">
        <ele>308.4</ele>
        <time>2022-05-24 10:58:57</time>
      </trkpt>
      <trkpt lat="41.06825" lon="0.89122">
        <ele>308.6</ele>
        <time>2022-05-24 10:58:58</time>
      </trkpt>
      <trkpt lat="41.06824" lon="0.89123">
        <ele>308.8</ele>
        <time>2022-05-24 10:58:59</time>
      </trkpt>
      <trkpt lat="41.06822" lon="0.89124">
        <ele>309</ele>
        <time>2022-05-24 10:59:00</time>
      </trkpt>
      <trkpt lat="41.0682" lon="0.89125">
        <ele>309.2</ele>
        <time>2022-05-24 10:59:01</time>
      </trkpt>
      <trkpt lat="41.06818" lon="0.89126">
        <ele>309.4</ele>
        <time>2022-05-24 10:59:02</time>
      </trkpt>
      <trkpt lat="41.06817" lon="0.89127">
        <ele>309.6</ele>
        <time>2022-05-24 10:59:03</time>
      </trkpt>
      <trkpt lat="41.06815" lon="0.89128">
        <ele>309.8</ele>
        <time>2022-05-24 10:59:04</time>
      </trkpt>
      <trkpt lat="41.06813" lon="0.89129">
        <ele>310</ele>
        <time>2022-05-24 10:59:05</time>
      </trkpt>
      <trkpt lat="41.06811" lon="0.8913">
        <ele>310.2</ele>
        <time>2022-05-24 10:59:06</time>
      </trkpt>
      <trkpt lat="41.0681" lon="0.89131">
        <ele>310.4</ele>
        <time>2022-05-24 10:59:07</time>
      </trkpt>
      <trkpt lat="41.06808" lon="0.89131">
        <ele>310.6</ele>
        <time>2022-05-24 10:59:08</time>
      </trkpt>
      <trkpt lat="41.06806" lon="0.89132">
        <ele>310.6</ele>
        <time>2022-05-24 10:59:09</time>
      </trkpt>
      <trkpt lat="41.06804" lon="0.89133">
        <ele>310.8</ele>
        <time>2022-05-24 10:59:10</time>
      </trkpt>
      <trkpt lat="41.06802" lon="0.89134">
        <ele>311</ele>
        <time>2022-05-24 10:59:11</time>
      </trkpt>
      <trkpt lat="41.06801" lon="0.89134">
        <ele>311.2</ele>
        <time>2022-05-24 10:59:12</time>
      </trkpt>
      <trkpt lat="41.06799" lon="0.89135">
        <ele>311.2</ele>
        <time>2022-05-24 10:59:13</time>
      </trkpt>
      <trkpt lat="41.06797" lon="0.89136">
        <ele>311.4</ele>
        <time>2022-05-24 10:59:14</time>
      </trkpt>
      <trkpt lat="41.06795" lon="0.89137">
        <ele>311.6</ele>
        <time>2022-05-24 10:59:15</time>
      </trkpt>
      <trkpt lat="41.06794" lon="0.89138">
        <ele>311.8</ele>
        <time>2022-05-24 10:59:16</time>
      </trkpt>
      <trkpt lat="41.06792" lon="0.89139">
        <ele>311.8</ele>
        <time>2022-05-24 10:59:17</time>
      </trkpt>
      <trkpt lat="41.0679" lon="0.8914">
        <ele>312</ele>
        <time>2022-05-24 10:59:18</time>
      </trkpt>
      <trkpt lat="41.06789" lon="0.8914">
        <ele>312.2</ele>
        <time>2022-05-24 10:59:19</time>
      </trkpt>
      <trkpt lat="41.06787" lon="0.89141">
        <ele>312.2</ele>
        <time>2022-05-24 10:59:20</time>
      </trkpt>
      <trkpt lat="41.06785" lon="0.89141">
        <ele>312.4</ele>
        <time>2022-05-24 10:59:21</time>
      </trkpt>
      <trkpt lat="41.06783" lon="0.89142">
        <ele>312.4</ele>
        <time>2022-05-24 10:59:22</time>
      </trkpt>
      <trkpt lat="41.06781" lon="0.89142">
        <ele>312.6</ele>
        <time>2022-05-24 10:59:23</time>
      </trkpt>
      <trkpt lat="41.0678" lon="0.89142">
        <ele>312.6</ele>
        <time>2022-05-24 10:59:24</time>
      </trkpt>
      <trkpt lat="41.06778" lon="0.89143">
        <ele>312.8</ele>
        <time>2022-05-24 10:59:25</time>
      </trkpt>
      <trkpt lat="41.06776" lon="0.89143">
        <ele>312.8</ele>
        <time>2022-05-24 10:59:26</time>
      </trkpt>
      <trkpt lat="41.06774" lon="0.89144">
        <ele>313</ele>
        <time>2022-05-24 10:59:27</time>
      </trkpt>
      <trkpt lat="41.06772" lon="0.89144">
        <ele>313</ele>
        <time>2022-05-24 10:59:28</time>
      </trkpt>
      <trkpt lat="41.0677" lon="0.89145">
        <ele>313.2</ele>
        <time>2022-05-24 10:59:29</time>
      </trkpt>
      <trkpt lat="41.06768" lon="0.89146">
        <ele>313.2</ele>
        <time>2022-05-24 10:59:30</time>
      </trkpt>
      <trkpt lat="41.06766" lon="0.89146">
        <ele>313.2</ele>
        <time>2022-05-24 10:59:31</time>
      </trkpt>
      <trkpt lat="41.06764" lon="0.89147">
        <ele>313.4</ele>
        <time>2022-05-24 10:59:32</time>
      </trkpt>
      <trkpt lat="41.06762" lon="0.89147">
        <ele>313.4</ele>
        <time>2022-05-24 10:59:33</time>
      </trkpt>
      <trkpt lat="41.06759" lon="0.89148">
        <ele>313.4</ele>
        <time>2022-05-24 10:59:34</time>
      </trkpt>
      <trkpt lat="41.06757" lon="0.89148">
        <ele>313.4</ele>
        <time>2022-05-24 10:59:35</time>
      </trkpt>
      <trkpt lat="41.06755" lon="0.89149">
        <ele>313.6</ele>
        <time>2022-05-24 10:59:36</time>
      </trkpt>
      <trkpt lat="41.06752" lon="0.8915">
        <ele>313.6</ele>
        <time>2022-05-24 10:59:37</time>
      </trkpt>
      <trkpt lat="41.0675" lon="0.8915">
        <ele>313.6</ele>
        <time>2022-05-24 10:59:38</time>
      </trkpt>
      <trkpt lat="41.06747" lon="0.8915">
        <ele>313.6</ele>
        <time>2022-05-24 10:59:39</time>
      </trkpt>
      <trkpt lat="41.06745" lon="0.89151">
        <ele>313.8</ele>
        <time>2022-05-24 10:59:40</time>
      </trkpt>
      <trkpt lat="41.06743" lon="0.89152">
        <ele>313.8</ele>
        <time>2022-05-24 10:59:41</time>
      </trkpt>
      <trkpt lat="41.06741" lon="0.89152">
        <ele>313.8</ele>
        <time>2022-05-24 10:59:42</time>
      </trkpt>
      <trkpt lat="41.06739" lon="0.89153">
        <ele>313.8</ele>
        <time>2022-05-24 10:59:43</time>
      </trkpt>
      <trkpt lat="41.06737" lon="0.89153">
        <ele>314</ele>
        <time>2022-05-24 10:59:44</time>
      </trkpt>
      <trkpt lat="41.06734" lon="0.89154">
        <ele>314</ele>
        <time>2022-05-24 10:59:45</time>
      </trkpt>
      <trkpt lat="41.06732" lon="0.89154">
        <ele>314</ele>
        <time>2022-05-24 10:59:46</time>
      </trkpt>
      <trkpt lat="41.0673" lon="0.89155">
        <ele>314</ele>
        <time>2022-05-24 10:59:47</time>
      </trkpt>
      <trkpt lat="41.06728" lon="0.89155">
        <ele>314</ele>
        <time>2022-05-24 10:59:48</time>
      </trkpt>
      <trkpt lat="41.06726" lon="0.89156">
        <ele>314.2</ele>
        <time>2022-05-24 10:59:49</time>
      </trkpt>
      <trkpt lat="41.06724" lon="0.89157">
        <ele>314.2</ele>
        <time>2022-05-24 10:59:50</time>
      </trkpt>
      <trkpt lat="41.06722" lon="0.89158">
        <ele>314.2</ele>
        <time>2022-05-24 10:59:51</time>
      </trkpt>
      <trkpt lat="41.0672" lon="0.89159">
        <ele>314.4</ele>
        <time>2022-05-24 10:59:52</time>
      </trkpt>
      <trkpt lat="41.06718" lon="0.8916">
        <ele>314.4</ele>
        <time>2022-05-24 10:59:53</time>
      </trkpt>
      <trkpt lat="41.06715" lon="0.89162">
        <ele>314.4</ele>
        <time>2022-05-24 10:59:54</time>
      </trkpt>
      <trkpt lat="41.06714" lon="0.89163">
        <ele>314.4</ele>
        <time>2022-05-24 10:59:55</time>
      </trkpt>
      <trkpt lat="41.06712" lon="0.89164">
        <ele>314.6</ele>
        <time>2022-05-24 10:59:56</time>
      </trkpt>
      <trkpt lat="41.0671" lon="0.89166">
        <ele>314.6</ele>
        <time>2022-05-24 10:59:57</time>
      </trkpt>
      <trkpt lat="41.06708" lon="0.89167">
        <ele>314.6</ele>
        <time>2022-05-24 10:59:58</time>
      </trkpt>
      <trkpt lat="41.06706" lon="0.89168">
        <ele>314.8</ele>
        <time>2022-05-24 10:59:59</time>
      </trkpt>
      <trkpt lat="41.06704" lon="0.8917">
        <ele>314.8</ele>
        <time>2022-05-24 11:00:00</time>
      </trkpt>
      <trkpt lat="41.06702" lon="0.89171">
        <ele>314.8</ele>
        <time>2022-05-24 11:00:01</time>
      </trkpt>
      <trkpt lat="41.067" lon="0.89173">
        <ele>314.8</ele>
        <time>2022-05-24 11:00:02</time>
      </trkpt>
      <trkpt lat="41.06698" lon="0.89174">
        <ele>315</ele>
        <time>2022-05-24 11:00:03</time>
      </trkpt>
      <trkpt lat="41.06696" lon="0.89175">
        <ele>315</ele>
        <time>2022-05-24 11:00:04</time>
      </trkpt>
      <trkpt lat="41.06693" lon="0.89176">
        <ele>315</ele>
        <time>2022-05-24 11:00:05</time>
      </trkpt>
      <trkpt lat="41.06691" lon="0.89177">
        <ele>315</ele>
        <time>2022-05-24 11:00:06</time>
      </trkpt>
      <trkpt lat="41.06689" lon="0.89178">
        <ele>315.2</ele>
        <time>2022-05-24 11:00:07</time>
      </trkpt>
      <trkpt lat="41.06686" lon="0.89179">
        <ele>315.2</ele>
        <time>2022-05-24 11:00:08</time>
      </trkpt>
      <trkpt lat="41.06684" lon="0.89181">
        <ele>315.2</ele>
        <time>2022-05-24 11:00:09</time>
      </trkpt>
      <trkpt lat="41.06682" lon="0.89182">
        <ele>315.2</ele>
        <time>2022-05-24 11:00:10</time>
      </trkpt>
      <trkpt lat="41.0668" lon="0.89183">
        <ele>315.2</ele>
        <time>2022-05-24 11:00:11</time>
      </trkpt>
      <trkpt lat="41.06677" lon="0.89184">
        <ele>315.2</ele>
        <time>2022-05-24 11:00:12</time>
      </trkpt>
      <trkpt lat="41.06675" lon="0.89185">
        <ele>315.4</ele>
        <time>2022-05-24 11:00:13</time>
      </trkpt>
      <trkpt lat="41.06673" lon="0.89186">
        <ele>315.4</ele>
        <time>2022-05-24 11:00:14</time>
      </trkpt>
      <trkpt lat="41.06671" lon="0.89187">
        <ele>315.4</ele>
        <time>2022-05-24 11:00:15</time>
      </trkpt>
      <trkpt lat="41.06668" lon="0.89188">
        <ele>315.4</ele>
        <time>2022-05-24 11:00:16</time>
      </trkpt>
      <trkpt lat="41.06666" lon="0.89188">
        <ele>315.6</ele>
        <time>2022-05-24 11:00:17</time>
      </trkpt>
      <trkpt lat="41.06664" lon="0.89189">
        <ele>315.6</ele>
        <time>2022-05-24 11:00:18</time>
      </trkpt>
      <trkpt lat="41.06662" lon="0.89189">
        <ele>315.6</ele>
        <time>2022-05-24 11:00:19</time>
      </trkpt>
      <trkpt lat="41.06659" lon="0.89188">
        <ele>315.6</ele>
        <time>2022-05-24 11:00:20</time>
      </trkpt>
      <trkpt lat="41.06657" lon="0.89188">
        <ele>315.6</ele>
        <time>2022-05-24 11:00:21</time>
      </trkpt>
      <trkpt lat="41.06655" lon="0.89188">
        <ele>315.8</ele>
        <time>2022-05-24 11:00:22</time>
      </trkpt>
      <trkpt lat="41.06652" lon="0.89188">
        <ele>315.8</ele>
        <time>2022-05-24 11:00:23</time>
      </trkpt>
      <trkpt lat="41.0665" lon="0.89188">
        <ele>315.8</ele>
        <time>2022-05-24 11:00:24</time>
      </trkpt>
      <trkpt lat="41.06648" lon="0.89188">
        <ele>315.8</ele>
        <time>2022-05-24 11:00:25</time>
      </trkpt>
      <trkpt lat="41.06646" lon="0.89188">
        <ele>316</ele>
        <time>2022-05-24 11:00:26</time>
      </trkpt>
      <trkpt lat="41.06643" lon="0.89188">
        <ele>316</ele>
        <time>2022-05-24 11:00:27</time>
      </trkpt>
      <trkpt lat="41.06641" lon="0.89188">
        <ele>316</ele>
        <time>2022-05-24 11:00:28</time>
      </trkpt>
      <trkpt lat="41.06638" lon="0.89188">
        <ele>316</ele>
        <time>2022-05-24 11:00:29</time>
      </trkpt>
      <trkpt lat="41.06636" lon="0.89188">
        <ele>316</ele>
        <time>2022-05-24 11:00:30</time>
      </trkpt>
      <trkpt lat="41.06634" lon="0.89188">
        <ele>316.2</ele>
        <time>2022-05-24 11:00:31</time>
      </trkpt>
      <trkpt lat="41.06631" lon="0.89188">
        <ele>316.2</ele>
        <time>2022-05-24 11:00:32</time>
      </trkpt>
      <trkpt lat="41.06629" lon="0.89188">
        <ele>316.2</ele>
        <time>2022-05-24 11:00:33</time>
      </trkpt>
      <trkpt lat="41.06627" lon="0.89187">
        <ele>316.2</ele>
        <time>2022-05-24 11:00:34</time>
      </trkpt>
      <trkpt lat="41.06624" lon="0.89187">
        <ele>316.2</ele>
        <time>2022-05-24 11:00:35</time>
      </trkpt>
      <trkpt lat="41.06622" lon="0.89186">
        <ele>316.2</ele>
        <time>2022-05-24 11:00:36</time>
      </trkpt>
      <trkpt lat="41.06619" lon="0.89186">
        <ele>316.4</ele>
        <time>2022-05-24 11:00:37</time>
      </trkpt>
      <trkpt lat="41.06617" lon="0.89186">
        <ele>316.4</ele>
        <time>2022-05-24 11:00:38</time>
      </trkpt>
      <trkpt lat="41.06614" lon="0.89186">
        <ele>316.4</ele>
        <time>2022-05-24 11:00:39</time>
      </trkpt>
      <trkpt lat="41.06612" lon="0.89186">
        <ele>316.4</ele>
        <time>2022-05-24 11:00:40</time>
      </trkpt>
      <trkpt lat="41.06609" lon="0.89186">
        <ele>316.4</ele>
        <time>2022-05-24 11:00:41</time>
      </trkpt>
      <trkpt lat="41.06607" lon="0.89187">
        <ele>316.4</ele>
        <time>2022-05-24 11:00:42</time>
      </trkpt>
      <trkpt lat="41.06604" lon="0.89187">
        <ele>316.6</ele>
        <time>2022-05-24 11:00:43</time>
      </trkpt>
      <trkpt lat="41.06602" lon="0.89187">
        <ele>316.6</ele>
        <time>2022-05-24 11:00:44</time>
      </trkpt>
      <trkpt lat="41.066" lon="0.89186">
        <ele>316.6</ele>
        <time>2022-05-24 11:00:45</time>
      </trkpt>
      <trkpt lat="41.06598" lon="0.89186">
        <ele>316.6</ele>
        <time>2022-05-24 11:00:46</time>
      </trkpt>
      <trkpt lat="41.06595" lon="0.89186">
        <ele>316.6</ele>
        <time>2022-05-24 11:00:47</time>
      </trkpt>
      <trkpt lat="41.06593" lon="0.89187">
        <ele>316.6</ele>
        <time>2022-05-24 11:00:48</time>
      </trkpt>
      <trkpt lat="41.06591" lon="0.89187">
        <ele>316.8</ele>
        <time>2022-05-24 11:00:49</time>
      </trkpt>
      <trkpt lat="41.06588" lon="0.89187">
        <ele>316.8</ele>
        <time>2022-05-24 11:00:50</time>
      </trkpt>
      <trkpt lat="41.06586" lon="0.89187">
        <ele>316.8</ele>
        <time>2022-05-24 11:00:51</time>
      </trkpt>
      <trkpt lat="41.06584" lon="0.89187">
        <ele>316.8</ele>
        <time>2022-05-24 11:00:52</time>
      </trkpt>
      <trkpt lat="41.06581" lon="0.89186">
        <ele>316.8</ele>
        <time>2022-05-24 11:00:53</time>
      </trkpt>
      <trkpt lat="41.06579" lon="0.89186">
        <ele>316.8</ele>
        <time>2022-05-24 11:00:54</time>
      </trkpt>
      <trkpt lat="41.06577" lon="0.89186">
        <ele>317</ele>
        <time>2022-05-24 11:00:55</time>
      </trkpt>
      <trkpt lat="41.06575" lon="0.89186">
        <ele>317</ele>
        <time>2022-05-24 11:00:56</time>
      </trkpt>
      <trkpt lat="41.06573" lon="0.89186">
        <ele>317</ele>
        <time>2022-05-24 11:00:57</time>
      </trkpt>
      <trkpt lat="41.0657" lon="0.89186">
        <ele>317</ele>
        <time>2022-05-24 11:00:58</time>
      </trkpt>
      <trkpt lat="41.06568" lon="0.89186">
        <ele>317</ele>
        <time>2022-05-24 11:00:59</time>
      </trkpt>
      <trkpt lat="41.06565" lon="0.89186">
        <ele>317.2</ele>
        <time>2022-05-24 11:01:00</time>
      </trkpt>
      <trkpt lat="41.06563" lon="0.89186">
        <ele>317.2</ele>
        <time>2022-05-24 11:01:01</time>
      </trkpt>
      <trkpt lat="41.0656" lon="0.89186">
        <ele>317.2</ele>
        <time>2022-05-24 11:01:02</time>
      </trkpt>
      <trkpt lat="41.06558" lon="0.89186">
        <ele>317.2</ele>
        <time>2022-05-24 11:01:03</time>
      </trkpt>
      <trkpt lat="41.06555" lon="0.89186">
        <ele>317.2</ele>
        <time>2022-05-24 11:01:04</time>
      </trkpt>
      <trkpt lat="41.06552" lon="0.89186">
        <ele>317.4</ele>
        <time>2022-05-24 11:01:05</time>
      </trkpt>
      <trkpt lat="41.06549" lon="0.89186">
        <ele>317.4</ele>
        <time>2022-05-24 11:01:06</time>
      </trkpt>
      <trkpt lat="41.06546" lon="0.89186">
        <ele>317.4</ele>
        <time>2022-05-24 11:01:07</time>
      </trkpt>
      <trkpt lat="41.06543" lon="0.89187">
        <ele>317.6</ele>
        <time>2022-05-24 11:01:08</time>
      </trkpt>
      <trkpt lat="41.06541" lon="0.89187">
        <ele>317.6</ele>
        <time>2022-05-24 11:01:09</time>
      </trkpt>
      <trkpt lat="41.06539" lon="0.89187">
        <ele>317.6</ele>
        <time>2022-05-24 11:01:10</time>
      </trkpt>
      <trkpt lat="41.06536" lon="0.89187">
        <ele>317.6</ele>
        <time>2022-05-24 11:01:11</time>
      </trkpt>
      <trkpt lat="41.06534" lon="0.89187">
        <ele>317.8</ele>
        <time>2022-05-24 11:01:12</time>
      </trkpt>
      <trkpt lat="41.06531" lon="0.89186">
        <ele>317.8</ele>
        <time>2022-05-24 11:01:13</time>
      </trkpt>
      <trkpt lat="41.06528" lon="0.89186">
        <ele>318</ele>
        <time>2022-05-24 11:01:14</time>
      </trkpt>
      <trkpt lat="41.06525" lon="0.89186">
        <ele>318</ele>
        <time>2022-05-24 11:01:15</time>
      </trkpt>
      <trkpt lat="41.06522" lon="0.89185">
        <ele>318</ele>
        <time>2022-05-24 11:01:16</time>
      </trkpt>
      <trkpt lat="41.06519" lon="0.89184">
        <ele>318.2</ele>
        <time>2022-05-24 11:01:17</time>
      </trkpt>
      <trkpt lat="41.06517" lon="0.89183">
        <ele>318.2</ele>
        <time>2022-05-24 11:01:18</time>
      </trkpt>
      <trkpt lat="41.06514" lon="0.89183">
        <ele>318.4</ele>
        <time>2022-05-24 11:01:19</time>
      </trkpt>
      <trkpt lat="41.06512" lon="0.89182">
        <ele>318.4</ele>
        <time>2022-05-24 11:01:20</time>
      </trkpt>
      <trkpt lat="41.06509" lon="0.89181">
        <ele>318.6</ele>
        <time>2022-05-24 11:01:21</time>
      </trkpt>
      <trkpt lat="41.06506" lon="0.89179">
        <ele>318.6</ele>
        <time>2022-05-24 11:01:22</time>
      </trkpt>
      <trkpt lat="41.06504" lon="0.89178">
        <ele>318.8</ele>
        <time>2022-05-24 11:01:23</time>
      </trkpt>
      <trkpt lat="41.06501" lon="0.89177">
        <ele>318.8</ele>
        <time>2022-05-24 11:01:24</time>
      </trkpt>
      <trkpt lat="41.06499" lon="0.89176">
        <ele>319</ele>
        <time>2022-05-24 11:01:25</time>
      </trkpt>
      <trkpt lat="41.06496" lon="0.89176">
        <ele>319.2</ele>
        <time>2022-05-24 11:01:26</time>
      </trkpt>
      <trkpt lat="41.06494" lon="0.89175">
        <ele>319.2</ele>
        <time>2022-05-24 11:01:27</time>
      </trkpt>
      <trkpt lat="41.06491" lon="0.89174">
        <ele>319.4</ele>
        <time>2022-05-24 11:01:28</time>
      </trkpt>
      <trkpt lat="41.06489" lon="0.89174">
        <ele>319.4</ele>
        <time>2022-05-24 11:01:29</time>
      </trkpt>
      <trkpt lat="41.06487" lon="0.89173">
        <ele>319.6</ele>
        <time>2022-05-24 11:01:30</time>
      </trkpt>
      <trkpt lat="41.06485" lon="0.89172">
        <ele>319.6</ele>
        <time>2022-05-24 11:01:31</time>
      </trkpt>
      <trkpt lat="41.06482" lon="0.89171">
        <ele>319.8</ele>
        <time>2022-05-24 11:01:32</time>
      </trkpt>
      <trkpt lat="41.0648" lon="0.89171">
        <ele>320</ele>
        <time>2022-05-24 11:01:33</time>
      </trkpt>
      <trkpt lat="41.06477" lon="0.8917">
        <ele>320</ele>
        <time>2022-05-24 11:01:34</time>
      </trkpt>
      <trkpt lat="41.06475" lon="0.89169">
        <ele>320.2</ele>
        <time>2022-05-24 11:01:35</time>
      </trkpt>
      <trkpt lat="41.06472" lon="0.89169">
        <ele>320.2</ele>
        <time>2022-05-24 11:01:36</time>
      </trkpt>
      <trkpt lat="41.0647" lon="0.89168">
        <ele>320.4</ele>
        <time>2022-05-24 11:01:37</time>
      </trkpt>
      <trkpt lat="41.06468" lon="0.89167">
        <ele>320.4</ele>
        <time>2022-05-24 11:01:38</time>
      </trkpt>
      <trkpt lat="41.06465" lon="0.89166">
        <ele>320.4</ele>
        <time>2022-05-24 11:01:39</time>
      </trkpt>
      <trkpt lat="41.06462" lon="0.89166">
        <ele>320.6</ele>
        <time>2022-05-24 11:01:40</time>
      </trkpt>
      <trkpt lat="41.0646" lon="0.89164">
        <ele>320.6</ele>
        <time>2022-05-24 11:01:41</time>
      </trkpt>
      <trkpt lat="41.06457" lon="0.89164">
        <ele>320.6</ele>
        <time>2022-05-24 11:01:42</time>
      </trkpt>
      <trkpt lat="41.06455" lon="0.89163">
        <ele>320.8</ele>
        <time>2022-05-24 11:01:43</time>
      </trkpt>
      <trkpt lat="41.06452" lon="0.89161">
        <ele>320.8</ele>
        <time>2022-05-24 11:01:44</time>
      </trkpt>
      <trkpt lat="41.0645" lon="0.89161">
        <ele>320.8</ele>
        <time>2022-05-24 11:01:45</time>
      </trkpt>
      <trkpt lat="41.06447" lon="0.8916">
        <ele>321</ele>
        <time>2022-05-24 11:01:46</time>
      </trkpt>
      <trkpt lat="41.06445" lon="0.89159">
        <ele>321</ele>
        <time>2022-05-24 11:01:47</time>
      </trkpt>
      <trkpt lat="41.06442" lon="0.89159">
        <ele>321</ele>
        <time>2022-05-24 11:01:48</time>
      </trkpt>
      <trkpt lat="41.0644" lon="0.89159">
        <ele>321.2</ele>
        <time>2022-05-24 11:01:49</time>
      </trkpt>
      <trkpt lat="41.06437" lon="0.89158">
        <ele>321.2</ele>
        <time>2022-05-24 11:01:50</time>
      </trkpt>
      <trkpt lat="41.06435" lon="0.89158">
        <ele>321.2</ele>
        <time>2022-05-24 11:01:51</time>
      </trkpt>
      <trkpt lat="41.06432" lon="0.89158">
        <ele>321.4</ele>
        <time>2022-05-24 11:01:52</time>
      </trkpt>
      <trkpt lat="41.0643" lon="0.89158">
        <ele>321.4</ele>
        <time>2022-05-24 11:01:53</time>
      </trkpt>
      <trkpt lat="41.06427" lon="0.89157">
        <ele>321.6</ele>
        <time>2022-05-24 11:01:54</time>
      </trkpt>
      <trkpt lat="41.06424" lon="0.89157">
        <ele>321.6</ele>
        <time>2022-05-24 11:01:55</time>
      </trkpt>
      <trkpt lat="41.06422" lon="0.89156">
        <ele>321.6</ele>
        <time>2022-05-24 11:01:56</time>
      </trkpt>
      <trkpt lat="41.06419" lon="0.89155">
        <ele>321.6</ele>
        <time>2022-05-24 11:01:57</time>
      </trkpt>
      <trkpt lat="41.06416" lon="0.89154">
        <ele>321.8</ele>
        <time>2022-05-24 11:01:58</time>
      </trkpt>
      <trkpt lat="41.06414" lon="0.89154">
        <ele>321.8</ele>
        <time>2022-05-24 11:01:59</time>
      </trkpt>
      <trkpt lat="41.06411" lon="0.89152">
        <ele>321.8</ele>
        <time>2022-05-24 11:02:00</time>
      </trkpt>
      <trkpt lat="41.06407" lon="0.89151">
        <ele>321.8</ele>
        <time>2022-05-24 11:02:01</time>
      </trkpt>
      <trkpt lat="41.06404" lon="0.8915">
        <ele>321.8</ele>
        <time>2022-05-24 11:02:02</time>
      </trkpt>
      <trkpt lat="41.06401" lon="0.89149">
        <ele>321.8</ele>
        <time>2022-05-24 11:02:03</time>
      </trkpt>
      <trkpt lat="41.06396" lon="0.89148">
        <ele>321.8</ele>
        <time>2022-05-24 11:02:04</time>
      </trkpt>
      <trkpt lat="41.06393" lon="0.89147">
        <ele>321.6</ele>
        <time>2022-05-24 11:02:05</time>
      </trkpt>
      <trkpt lat="41.06389" lon="0.89146">
        <ele>321.6</ele>
        <time>2022-05-24 11:02:06</time>
      </trkpt>
      <trkpt lat="41.06385" lon="0.89145">
        <ele>321.4</ele>
        <time>2022-05-24 11:02:07</time>
      </trkpt>
      <trkpt lat="41.06381" lon="0.89145">
        <ele>321.4</ele>
        <time>2022-05-24 11:02:08</time>
      </trkpt>
      <trkpt lat="41.06377" lon="0.89145">
        <ele>321.4</ele>
        <time>2022-05-24 11:02:09</time>
      </trkpt>
      <trkpt lat="41.06374" lon="0.89145">
        <ele>321.4</ele>
        <time>2022-05-24 11:02:10</time>
      </trkpt>
      <trkpt lat="41.06371" lon="0.89144">
        <ele>321.4</ele>
        <time>2022-05-24 11:02:11</time>
      </trkpt>
      <trkpt lat="41.06367" lon="0.89144">
        <ele>321.6</ele>
        <time>2022-05-24 11:02:12</time>
      </trkpt>
      <trkpt lat="41.06364" lon="0.89144">
        <ele>321.6</ele>
        <time>2022-05-24 11:02:13</time>
      </trkpt>
      <trkpt lat="41.06361" lon="0.89144">
        <ele>321.8</ele>
        <time>2022-05-24 11:02:14</time>
      </trkpt>
      <trkpt lat="41.06358" lon="0.89144">
        <ele>321.8</ele>
        <time>2022-05-24 11:02:15</time>
      </trkpt>
      <trkpt lat="41.06356" lon="0.89144">
        <ele>322</ele>
        <time>2022-05-24 11:02:16</time>
      </trkpt>
      <trkpt lat="41.06353" lon="0.89143">
        <ele>322</ele>
        <time>2022-05-24 11:02:17</time>
      </trkpt>
      <trkpt lat="41.0635" lon="0.89143">
        <ele>322.2</ele>
        <time>2022-05-24 11:02:18</time>
      </trkpt>
      <trkpt lat="41.06347" lon="0.89143">
        <ele>322.4</ele>
        <time>2022-05-24 11:02:19</time>
      </trkpt>
      <trkpt lat="41.06345" lon="0.89143">
        <ele>322.4</ele>
        <time>2022-05-24 11:02:20</time>
      </trkpt>
      <trkpt lat="41.06342" lon="0.89143">
        <ele>322.6</ele>
        <time>2022-05-24 11:02:21</time>
      </trkpt>
      <trkpt lat="41.06338" lon="0.89142">
        <ele>322.6</ele>
        <time>2022-05-24 11:02:22</time>
      </trkpt>
      <trkpt lat="41.06336" lon="0.89142">
        <ele>322.8</ele>
        <time>2022-05-24 11:02:23</time>
      </trkpt>
      <trkpt lat="41.06333" lon="0.89141">
        <ele>322.8</ele>
        <time>2022-05-24 11:02:24</time>
      </trkpt>
      <trkpt lat="41.0633" lon="0.8914">
        <ele>322.8</ele>
        <time>2022-05-24 11:02:25</time>
      </trkpt>
      <trkpt lat="41.06327" lon="0.8914">
        <ele>323</ele>
        <time>2022-05-24 11:02:26</time>
      </trkpt>
      <trkpt lat="41.06324" lon="0.89139">
        <ele>323</ele>
        <time>2022-05-24 11:02:27</time>
      </trkpt>
      <trkpt lat="41.06321" lon="0.89139">
        <ele>323</ele>
        <time>2022-05-24 11:02:28</time>
      </trkpt>
      <trkpt lat="41.06318" lon="0.89138">
        <ele>323.2</ele>
        <time>2022-05-24 11:02:29</time>
      </trkpt>
      <trkpt lat="41.06314" lon="0.89137">
        <ele>323.2</ele>
        <time>2022-05-24 11:02:30</time>
      </trkpt>
      <trkpt lat="41.06311" lon="0.89136">
        <ele>323.2</ele>
        <time>2022-05-24 11:02:31</time>
      </trkpt>
      <trkpt lat="41.06308" lon="0.89135">
        <ele>323.2</ele>
        <time>2022-05-24 11:02:32</time>
      </trkpt>
      <trkpt lat="41.06305" lon="0.89134">
        <ele>323.4</ele>
        <time>2022-05-24 11:02:33</time>
      </trkpt>
      <trkpt lat="41.06301" lon="0.89134">
        <ele>323.4</ele>
        <time>2022-05-24 11:02:34</time>
      </trkpt>
      <trkpt lat="41.06298" lon="0.89133">
        <ele>323.4</ele>
        <time>2022-05-24 11:02:35</time>
      </trkpt>
      <trkpt lat="41.06294" lon="0.89132">
        <ele>323.4</ele>
        <time>2022-05-24 11:02:36</time>
      </trkpt>
      <trkpt lat="41.06291" lon="0.89131">
        <ele>323.4</ele>
        <time>2022-05-24 11:02:37</time>
      </trkpt>
      <trkpt lat="41.06287" lon="0.89131">
        <ele>323.4</ele>
        <time>2022-05-24 11:02:38</time>
      </trkpt>
      <trkpt lat="41.06283" lon="0.89131">
        <ele>323.4</ele>
        <time>2022-05-24 11:02:39</time>
      </trkpt>
      <trkpt lat="41.06279" lon="0.89131">
        <ele>323.2</ele>
        <time>2022-05-24 11:02:40</time>
      </trkpt>
      <trkpt lat="41.06276" lon="0.89131">
        <ele>323.2</ele>
        <time>2022-05-24 11:02:41</time>
      </trkpt>
      <trkpt lat="41.06272" lon="0.89131">
        <ele>323.2</ele>
        <time>2022-05-24 11:02:42</time>
      </trkpt>
      <trkpt lat="41.06268" lon="0.89132">
        <ele>323.4</ele>
        <time>2022-05-24 11:02:43</time>
      </trkpt>
      <trkpt lat="41.06265" lon="0.89132">
        <ele>323.4</ele>
        <time>2022-05-24 11:02:44</time>
      </trkpt>
      <trkpt lat="41.06261" lon="0.89133">
        <ele>323.4</ele>
        <time>2022-05-24 11:02:45</time>
      </trkpt>
      <trkpt lat="41.06257" lon="0.89134">
        <ele>323.4</ele>
        <time>2022-05-24 11:02:46</time>
      </trkpt>
      <trkpt lat="41.06254" lon="0.89134">
        <ele>323.4</ele>
        <time>2022-05-24 11:02:47</time>
      </trkpt>
      <trkpt lat="41.0625" lon="0.89135">
        <ele>323.4</ele>
        <time>2022-05-24 11:02:48</time>
      </trkpt>
      <trkpt lat="41.06246" lon="0.89137">
        <ele>323.4</ele>
        <time>2022-05-24 11:02:49</time>
      </trkpt>
      <trkpt lat="41.06243" lon="0.89138">
        <ele>323.4</ele>
        <time>2022-05-24 11:02:50</time>
      </trkpt>
      <trkpt lat="41.06239" lon="0.8914">
        <ele>323.6</ele>
        <time>2022-05-24 11:02:51</time>
      </trkpt>
      <trkpt lat="41.06235" lon="0.89142">
        <ele>323.6</ele>
        <time>2022-05-24 11:02:52</time>
      </trkpt>
      <trkpt lat="41.06232" lon="0.89144">
        <ele>323.6</ele>
        <time>2022-05-24 11:02:53</time>
      </trkpt>
      <trkpt lat="41.06229" lon="0.89147">
        <ele>323.8</ele>
        <time>2022-05-24 11:02:54</time>
      </trkpt>
      <trkpt lat="41.06226" lon="0.89149">
        <ele>323.8</ele>
        <time>2022-05-24 11:02:55</time>
      </trkpt>
      <trkpt lat="41.06224" lon="0.89151">
        <ele>323.8</ele>
        <time>2022-05-24 11:02:56</time>
      </trkpt>
      <trkpt lat="41.06221" lon="0.89154">
        <ele>324</ele>
        <time>2022-05-24 11:02:57</time>
      </trkpt>
      <trkpt lat="41.06217" lon="0.89157">
        <ele>324</ele>
        <time>2022-05-24 11:02:58</time>
      </trkpt>
      <trkpt lat="41.06214" lon="0.89159">
        <ele>324.2</ele>
        <time>2022-05-24 11:02:59</time>
      </trkpt>
      <trkpt lat="41.06211" lon="0.89162">
        <ele>324.2</ele>
        <time>2022-05-24 11:03:00</time>
      </trkpt>
      <trkpt lat="41.06208" lon="0.89164">
        <ele>324.4</ele>
        <time>2022-05-24 11:03:01</time>
      </trkpt>
      <trkpt lat="41.06204" lon="0.89166">
        <ele>324.4</ele>
        <time>2022-05-24 11:03:02</time>
      </trkpt>
      <trkpt lat="41.06201" lon="0.89169">
        <ele>324.6</ele>
        <time>2022-05-24 11:03:03</time>
      </trkpt>
      <trkpt lat="41.06198" lon="0.89172">
        <ele>324.6</ele>
        <time>2022-05-24 11:03:04</time>
      </trkpt>
      <trkpt lat="41.06195" lon="0.89175">
        <ele>324.8</ele>
        <time>2022-05-24 11:03:05</time>
      </trkpt>
      <trkpt lat="41.06191" lon="0.89178">
        <ele>324.8</ele>
        <time>2022-05-24 11:03:06</time>
      </trkpt>
      <trkpt lat="41.06188" lon="0.8918">
        <ele>325</ele>
        <time>2022-05-24 11:03:07</time>
      </trkpt>
      <trkpt lat="41.06185" lon="0.89183">
        <ele>325.2</ele>
        <time>2022-05-24 11:03:08</time>
      </trkpt>
      <trkpt lat="41.06182" lon="0.89185">
        <ele>325.2</ele>
        <time>2022-05-24 11:03:09</time>
      </trkpt>
      <trkpt lat="41.06179" lon="0.89188">
        <ele>325.4</ele>
        <time>2022-05-24 11:03:10</time>
      </trkpt>
      <trkpt lat="41.06177" lon="0.8919">
        <ele>325.4</ele>
        <time>2022-05-24 11:03:11</time>
      </trkpt>
      <trkpt lat="41.06174" lon="0.89192">
        <ele>325.6</ele>
        <time>2022-05-24 11:03:12</time>
      </trkpt>
      <trkpt lat="41.06171" lon="0.89193">
        <ele>325.8</ele>
        <time>2022-05-24 11:03:13</time>
      </trkpt>
      <trkpt lat="41.06169" lon="0.89195">
        <ele>326</ele>
        <time>2022-05-24 11:03:14</time>
      </trkpt>
      <trkpt lat="41.06167" lon="0.89197">
        <ele>326</ele>
        <time>2022-05-24 11:03:15</time>
      </trkpt>
      <trkpt lat="41.06165" lon="0.89199">
        <ele>326.2</ele>
        <time>2022-05-24 11:03:16</time>
      </trkpt>
      <trkpt lat="41.06162" lon="0.892">
        <ele>326.4</ele>
        <time>2022-05-24 11:03:17</time>
      </trkpt>
      <trkpt lat="41.0616" lon="0.89201">
        <ele>326.6</ele>
        <time>2022-05-24 11:03:18</time>
      </trkpt>
      <trkpt lat="41.06158" lon="0.89201">
        <ele>326.8</ele>
        <time>2022-05-24 11:03:19</time>
      </trkpt>
      <trkpt lat="41.06156" lon="0.89202">
        <ele>326.8</ele>
        <time>2022-05-24 11:03:20</time>
      </trkpt>
      <trkpt lat="41.06153" lon="0.89201">
        <ele>327</ele>
        <time>2022-05-24 11:03:21</time>
      </trkpt>
      <trkpt lat="41.06152" lon="0.892">
        <ele>327.2</ele>
        <time>2022-05-24 11:03:22</time>
      </trkpt>
      <trkpt lat="41.0615" lon="0.89198">
        <ele>327.2</ele>
        <time>2022-05-24 11:03:23</time>
      </trkpt>
      <trkpt lat="41.06148" lon="0.89196">
        <ele>327.4</ele>
        <time>2022-05-24 11:03:24</time>
      </trkpt>
      <trkpt lat="41.06147" lon="0.89195">
        <ele>327.4</ele>
        <time>2022-05-24 11:03:25</time>
      </trkpt>
      <trkpt lat="41.06145" lon="0.89192">
        <ele>327.6</ele>
        <time>2022-05-24 11:03:26</time>
      </trkpt>
      <trkpt lat="41.06144" lon="0.8919">
        <ele>327.8</ele>
        <time>2022-05-24 11:03:27</time>
      </trkpt>
      <trkpt lat="41.06142" lon="0.89188">
        <ele>327.8</ele>
        <time>2022-05-24 11:03:28</time>
      </trkpt>
      <trkpt lat="41.06141" lon="0.89185">
        <ele>328</ele>
        <time>2022-05-24 11:03:29</time>
      </trkpt>
      <trkpt lat="41.0614" lon="0.89183">
        <ele>328</ele>
        <time>2022-05-24 11:03:30</time>
      </trkpt>
      <trkpt lat="41.06139" lon="0.89181">
        <ele>328.2</ele>
        <time>2022-05-24 11:03:31</time>
      </trkpt>
      <trkpt lat="41.06137" lon="0.89178">
        <ele>328.4</ele>
        <time>2022-05-24 11:03:32</time>
      </trkpt>
      <trkpt lat="41.06136" lon="0.89176">
        <ele>328.6</ele>
        <time>2022-05-24 11:03:33</time>
      </trkpt>
      <trkpt lat="41.06134" lon="0.89174">
        <ele>328.8</ele>
        <time>2022-05-24 11:03:34</time>
      </trkpt>
      <trkpt lat="41.06133" lon="0.89171">
        <ele>328.8</ele>
        <time>2022-05-24 11:03:35</time>
      </trkpt>
      <trkpt lat="41.06131" lon="0.89169">
        <ele>329</ele>
        <time>2022-05-24 11:03:36</time>
      </trkpt>
      <trkpt lat="41.06131" lon="0.89167">
        <ele>329.2</ele>
        <time>2022-05-24 11:03:37</time>
      </trkpt>
      <trkpt lat="41.06129" lon="0.89165">
        <ele>329.4</ele>
        <time>2022-05-24 11:03:38</time>
      </trkpt>
      <trkpt lat="41.06129" lon="0.89162">
        <ele>329.6</ele>
        <time>2022-05-24 11:03:39</time>
      </trkpt>
      <trkpt lat="41.06128" lon="0.8916">
        <ele>329.8</ele>
        <time>2022-05-24 11:03:40</time>
      </trkpt>
      <trkpt lat="41.06127" lon="0.89157">
        <ele>330</ele>
        <time>2022-05-24 11:03:41</time>
      </trkpt>
      <trkpt lat="41.06126" lon="0.89155">
        <ele>330</ele>
        <time>2022-05-24 11:03:42</time>
      </trkpt>
      <trkpt lat="41.06125" lon="0.89153">
        <ele>330.2</ele>
        <time>2022-05-24 11:03:43</time>
      </trkpt>
      <trkpt lat="41.06124" lon="0.89151">
        <ele>330.4</ele>
        <time>2022-05-24 11:03:44</time>
      </trkpt>
      <trkpt lat="41.06123" lon="0.89149">
        <ele>330.6</ele>
        <time>2022-05-24 11:03:45</time>
      </trkpt>
      <trkpt lat="41.06121" lon="0.89147">
        <ele>331</ele>
        <time>2022-05-24 11:03:46</time>
      </trkpt>
      <trkpt lat="41.0612" lon="0.89145">
        <ele>331.2</ele>
        <time>2022-05-24 11:03:47</time>
      </trkpt>
      <trkpt lat="41.06119" lon="0.89143">
        <ele>331.4</ele>
        <time>2022-05-24 11:03:48</time>
      </trkpt>
      <trkpt lat="41.06118" lon="0.89141">
        <ele>331.4</ele>
        <time>2022-05-24 11:03:49</time>
      </trkpt>
      <trkpt lat="41.06118" lon="0.89139">
        <ele>331.6</ele>
        <time>2022-05-24 11:03:50</time>
      </trkpt>
      <trkpt lat="41.06116" lon="0.89136">
        <ele>332</ele>
        <time>2022-05-24 11:03:51</time>
      </trkpt>
      <trkpt lat="41.06116" lon="0.89134">
        <ele>332</ele>
        <time>2022-05-24 11:03:52</time>
      </trkpt>
      <trkpt lat="41.06115" lon="0.89132">
        <ele>332.4</ele>
        <time>2022-05-24 11:03:53</time>
      </trkpt>
      <trkpt lat="41.06113" lon="0.89131">
        <ele>332.6</ele>
        <time>2022-05-24 11:03:54</time>
      </trkpt>
      <trkpt lat="41.06112" lon="0.89128">
        <ele>332.8</ele>
        <time>2022-05-24 11:03:55</time>
      </trkpt>
      <trkpt lat="41.06111" lon="0.89126">
        <ele>333</ele>
        <time>2022-05-24 11:03:56</time>
      </trkpt>
      <trkpt lat="41.0611" lon="0.89123">
        <ele>333</ele>
        <time>2022-05-24 11:03:57</time>
      </trkpt>
      <trkpt lat="41.06109" lon="0.89121">
        <ele>333.2</ele>
        <time>2022-05-24 11:03:58</time>
      </trkpt>
      <trkpt lat="41.06107" lon="0.89119">
        <ele>333.4</ele>
        <time>2022-05-24 11:03:59</time>
      </trkpt>
      <trkpt lat="41.06105" lon="0.89117">
        <ele>333.6</ele>
        <time>2022-05-24 11:04:00</time>
      </trkpt>
      <trkpt lat="41.06104" lon="0.89115">
        <ele>333.8</ele>
        <time>2022-05-24 11:04:01</time>
      </trkpt>
      <trkpt lat="41.06102" lon="0.89114">
        <ele>334</ele>
        <time>2022-05-24 11:04:02</time>
      </trkpt>
      <trkpt lat="41.06101" lon="0.89111">
        <ele>334.2</ele>
        <time>2022-05-24 11:04:03</time>
      </trkpt>
      <trkpt lat="41.061" lon="0.89109">
        <ele>334.2</ele>
        <time>2022-05-24 11:04:04</time>
      </trkpt>
      <trkpt lat="41.06099" lon="0.89107">
        <ele>334.4</ele>
        <time>2022-05-24 11:04:05</time>
      </trkpt>
      <trkpt lat="41.06097" lon="0.89105">
        <ele>334.6</ele>
        <time>2022-05-24 11:04:06</time>
      </trkpt>
      <trkpt lat="41.06096" lon="0.89103">
        <ele>334.8</ele>
        <time>2022-05-24 11:04:07</time>
      </trkpt>
      <trkpt lat="41.06094" lon="0.89101">
        <ele>335</ele>
        <time>2022-05-24 11:04:08</time>
      </trkpt>
      <trkpt lat="41.06093" lon="0.89099">
        <ele>335.2</ele>
        <time>2022-05-24 11:04:09</time>
      </trkpt>
      <trkpt lat="41.06092" lon="0.89097">
        <ele>335.2</ele>
        <time>2022-05-24 11:04:10</time>
      </trkpt>
      <trkpt lat="41.0609" lon="0.89095">
        <ele>335.4</ele>
        <time>2022-05-24 11:04:11</time>
      </trkpt>
      <trkpt lat="41.06089" lon="0.89093">
        <ele>335.6</ele>
        <time>2022-05-24 11:04:12</time>
      </trkpt>
      <trkpt lat="41.06088" lon="0.89091">
        <ele>335.6</ele>
        <time>2022-05-24 11:04:13</time>
      </trkpt>
      <trkpt lat="41.06086" lon="0.89089">
        <ele>335.8</ele>
        <time>2022-05-24 11:04:14</time>
      </trkpt>
      <trkpt lat="41.06085" lon="0.89087">
        <ele>336</ele>
        <time>2022-05-24 11:04:15</time>
      </trkpt>
      <trkpt lat="41.06084" lon="0.89085">
        <ele>336</ele>
        <time>2022-05-24 11:04:16</time>
      </trkpt>
      <trkpt lat="41.06083" lon="0.89083">
        <ele>336.2</ele>
        <time>2022-05-24 11:04:17</time>
      </trkpt>
      <trkpt lat="41.06081" lon="0.8908">
        <ele>336.4</ele>
        <time>2022-05-24 11:04:18</time>
      </trkpt>
      <trkpt lat="41.0608" lon="0.89078">
        <ele>336.4</ele>
        <time>2022-05-24 11:04:19</time>
      </trkpt>
      <trkpt lat="41.0608" lon="0.89077">
        <ele>336.6</ele>
        <time>2022-05-24 11:04:20</time>
      </trkpt>
      <trkpt lat="41.06078" lon="0.89075">
        <ele>336.6</ele>
        <time>2022-05-24 11:04:21</time>
      </trkpt>
      <trkpt lat="41.06076" lon="0.89073">
        <ele>336.8</ele>
        <time>2022-05-24 11:04:22</time>
      </trkpt>
      <trkpt lat="41.06075" lon="0.89071">
        <ele>337</ele>
        <time>2022-05-24 11:04:23</time>
      </trkpt>
      <trkpt lat="41.06074" lon="0.89069">
        <ele>337.2</ele>
        <time>2022-05-24 11:04:24</time>
      </trkpt>
      <trkpt lat="41.06073" lon="0.89067">
        <ele>337.4</ele>
        <time>2022-05-24 11:04:25</time>
      </trkpt>
      <trkpt lat="41.06073" lon="0.89065">
        <ele>337.6</ele>
        <time>2022-05-24 11:04:26</time>
      </trkpt>
      <trkpt lat="41.06072" lon="0.89062">
        <ele>337.8</ele>
        <time>2022-05-24 11:04:27</time>
      </trkpt>
      <trkpt lat="41.06071" lon="0.89061">
        <ele>337.8</ele>
        <time>2022-05-24 11:04:28</time>
      </trkpt>
      <trkpt lat="41.0607" lon="0.89058">
        <ele>338</ele>
        <time>2022-05-24 11:04:29</time>
      </trkpt>
      <trkpt lat="41.06068" lon="0.89056">
        <ele>338.2</ele>
        <time>2022-05-24 11:04:30</time>
      </trkpt>
      <trkpt lat="41.06067" lon="0.89054">
        <ele>338.2</ele>
        <time>2022-05-24 11:04:31</time>
      </trkpt>
      <trkpt lat="41.06067" lon="0.89052">
        <ele>338.4</ele>
        <time>2022-05-24 11:04:32</time>
      </trkpt>
      <trkpt lat="41.06065" lon="0.89049">
        <ele>338.6</ele>
        <time>2022-05-24 11:04:33</time>
      </trkpt>
      <trkpt lat="41.06064" lon="0.89047">
        <ele>338.6</ele>
        <time>2022-05-24 11:04:34</time>
      </trkpt>
      <trkpt lat="41.06063" lon="0.89045">
        <ele>338.8</ele>
        <time>2022-05-24 11:04:35</time>
      </trkpt>
      <trkpt lat="41.06062" lon="0.89043">
        <ele>339</ele>
        <time>2022-05-24 11:04:36</time>
      </trkpt>
      <trkpt lat="41.06061" lon="0.89041">
        <ele>339.2</ele>
        <time>2022-05-24 11:04:37</time>
      </trkpt>
      <trkpt lat="41.0606" lon="0.89039">
        <ele>339.2</ele>
        <time>2022-05-24 11:04:38</time>
      </trkpt>
      <trkpt lat="41.06059" lon="0.89036">
        <ele>339.4</ele>
        <time>2022-05-24 11:04:39</time>
      </trkpt>
      <trkpt lat="41.06057" lon="0.89034">
        <ele>339.4</ele>
        <time>2022-05-24 11:04:40</time>
      </trkpt>
      <trkpt lat="41.06056" lon="0.89032">
        <ele>339.4</ele>
        <time>2022-05-24 11:04:41</time>
      </trkpt>
      <trkpt lat="41.06055" lon="0.89029">
        <ele>339.6</ele>
        <time>2022-05-24 11:04:42</time>
      </trkpt>
      <trkpt lat="41.06055" lon="0.89026">
        <ele>339.6</ele>
        <time>2022-05-24 11:04:43</time>
      </trkpt>
      <trkpt lat="41.06053" lon="0.89023">
        <ele>339.6</ele>
        <time>2022-05-24 11:04:44</time>
      </trkpt>
      <trkpt lat="41.06052" lon="0.89021">
        <ele>339.8</ele>
        <time>2022-05-24 11:04:45</time>
      </trkpt>
      <trkpt lat="41.06051" lon="0.89018">
        <ele>339.8</ele>
        <time>2022-05-24 11:04:46</time>
      </trkpt>
      <trkpt lat="41.0605" lon="0.89015">
        <ele>340</ele>
        <time>2022-05-24 11:04:47</time>
      </trkpt>
      <trkpt lat="41.06049" lon="0.89011">
        <ele>340</ele>
        <time>2022-05-24 11:04:48</time>
      </trkpt>
      <trkpt lat="41.06047" lon="0.89008">
        <ele>340</ele>
        <time>2022-05-24 11:04:49</time>
      </trkpt>
      <trkpt lat="41.06046" lon="0.89005">
        <ele>340.2</ele>
        <time>2022-05-24 11:04:50</time>
      </trkpt>
      <trkpt lat="41.06044" lon="0.89001">
        <ele>340.2</ele>
        <time>2022-05-24 11:04:51</time>
      </trkpt>
      <trkpt lat="41.06043" lon="0.88997">
        <ele>340.2</ele>
        <time>2022-05-24 11:04:52</time>
      </trkpt>
      <trkpt lat="41.06042" lon="0.88994">
        <ele>340.2</ele>
        <time>2022-05-24 11:04:53</time>
      </trkpt>
      <trkpt lat="41.06041" lon="0.8899">
        <ele>340.4</ele>
        <time>2022-05-24 11:04:54</time>
      </trkpt>
      <trkpt lat="41.0604" lon="0.88987">
        <ele>340.4</ele>
        <time>2022-05-24 11:04:55</time>
      </trkpt>
      <trkpt lat="41.06038" lon="0.88983">
        <ele>340.4</ele>
        <time>2022-05-24 11:04:56</time>
      </trkpt>
      <trkpt lat="41.06037" lon="0.8898">
        <ele>340.4</ele>
        <time>2022-05-24 11:04:57</time>
      </trkpt>
      <trkpt lat="41.06036" lon="0.88977">
        <ele>340.4</ele>
        <time>2022-05-24 11:04:58</time>
      </trkpt>
      <trkpt lat="41.06035" lon="0.88974">
        <ele>340.4</ele>
        <time>2022-05-24 11:04:59</time>
      </trkpt>
      <trkpt lat="41.06033" lon="0.88972">
        <ele>340.6</ele>
        <time>2022-05-24 11:05:00</time>
      </trkpt>
      <trkpt lat="41.06032" lon="0.88969">
        <ele>340.6</ele>
        <time>2022-05-24 11:05:01</time>
      </trkpt>
      <trkpt lat="41.06031" lon="0.88967">
        <ele>340.6</ele>
        <time>2022-05-24 11:05:02</time>
      </trkpt>
      <trkpt lat="41.0603" lon="0.88945">
        <ele>340.8</ele>
        <time>2022-05-24 11:05:03</time>
      </trkpt>
      <trkpt lat="41.0603" lon="0.88941">
        <ele>340.6</ele>
        <time>2022-05-24 11:07:14</time>
      </trkpt>
      <trkpt lat="41.06029" lon="0.88938">
        <ele>340.6</ele>
        <time>2022-05-24 11:07:15</time>
      </trkpt>
      <trkpt lat="41.06029" lon="0.88934">
        <ele>340.6</ele>
        <time>2022-05-24 11:07:16</time>
      </trkpt>
      <trkpt lat="41.06028" lon="0.8893">
        <ele>340.4</ele>
        <time>2022-05-24 11:07:17</time>
      </trkpt>
      <trkpt lat="41.06028" lon="0.88926">
        <ele>340.4</ele>
        <time>2022-05-24 11:07:18</time>
      </trkpt>
      <trkpt lat="41.06027" lon="0.88924">
        <ele>340.4</ele>
        <time>2022-05-24 11:07:19</time>
      </trkpt>
      <trkpt lat="41.06026" lon="0.88919">
        <ele>340.4</ele>
        <time>2022-05-24 11:07:20</time>
      </trkpt>
      <trkpt lat="41.06026" lon="0.88915">
        <ele>340.4</ele>
        <time>2022-05-24 11:07:21</time>
      </trkpt>
      <trkpt lat="41.06025" lon="0.88913">
        <ele>340.2</ele>
        <time>2022-05-24 11:07:22</time>
      </trkpt>
      <trkpt lat="41.06025" lon="0.88908">
        <ele>340.2</ele>
        <time>2022-05-24 11:07:23</time>
      </trkpt>
      <trkpt lat="41.06024" lon="0.88905">
        <ele>340.2</ele>
        <time>2022-05-24 11:07:24</time>
      </trkpt>
      <trkpt lat="41.06023" lon="0.889">
        <ele>340</ele>
        <time>2022-05-24 11:07:25</time>
      </trkpt>
      <trkpt lat="41.06022" lon="0.88896">
        <ele>340</ele>
        <time>2022-05-24 11:07:26</time>
      </trkpt>
      <trkpt lat="41.06021" lon="0.88893">
        <ele>340</ele>
        <time>2022-05-24 11:07:27</time>
      </trkpt>
      <trkpt lat="41.0602" lon="0.88888">
        <ele>340</ele>
        <time>2022-05-24 11:07:28</time>
      </trkpt>
      <trkpt lat="41.06018" lon="0.88884">
        <ele>340</ele>
        <time>2022-05-24 11:07:29</time>
      </trkpt>
      <trkpt lat="41.06017" lon="0.88882">
        <ele>340</ele>
        <time>2022-05-24 11:07:30</time>
      </trkpt>
      <trkpt lat="41.06014" lon="0.88877">
        <ele>340</ele>
        <time>2022-05-24 11:07:31</time>
      </trkpt>
      <trkpt lat="41.06012" lon="0.88874">
        <ele>340</ele>
        <time>2022-05-24 11:07:32</time>
      </trkpt>
      <trkpt lat="41.06009" lon="0.8887">
        <ele>340</ele>
        <time>2022-05-24 11:07:33</time>
      </trkpt>
      <trkpt lat="41.06006" lon="0.88865">
        <ele>339.8</ele>
        <time>2022-05-24 11:07:34</time>
      </trkpt>
      <trkpt lat="41.06003" lon="0.8886">
        <ele>339.6</ele>
        <time>2022-05-24 11:07:35</time>
      </trkpt>
      <trkpt lat="41.06" lon="0.88856">
        <ele>339.4</ele>
        <time>2022-05-24 11:07:36</time>
      </trkpt>
      <trkpt lat="41.05996" lon="0.8885">
        <ele>339.2</ele>
        <time>2022-05-24 11:07:37</time>
      </trkpt>
      <trkpt lat="41.05993" lon="0.88846">
        <ele>338.8</ele>
        <time>2022-05-24 11:07:38</time>
      </trkpt>
      <trkpt lat="41.05987" lon="0.8884">
        <ele>338.4</ele>
        <time>2022-05-24 11:07:39</time>
      </trkpt>
      <trkpt lat="41.05983" lon="0.88835">
        <ele>338</ele>
        <time>2022-05-24 11:07:40</time>
      </trkpt>
      <trkpt lat="41.05977" lon="0.88828">
        <ele>337.6</ele>
        <time>2022-05-24 11:07:41</time>
      </trkpt>
      <trkpt lat="41.05972" lon="0.88823">
        <ele>337.2</ele>
        <time>2022-05-24 11:07:42</time>
      </trkpt>
      <trkpt lat="41.05967" lon="0.88817">
        <ele>336.8</ele>
        <time>2022-05-24 11:07:43</time>
      </trkpt>
      <trkpt lat="41.05963" lon="0.88812">
        <ele>336.4</ele>
        <time>2022-05-24 11:07:44</time>
      </trkpt>
      <trkpt lat="41.05957" lon="0.88804">
        <ele>336</ele>
        <time>2022-05-24 11:07:45</time>
      </trkpt>
      <trkpt lat="41.05952" lon="0.88798">
        <ele>335.4</ele>
        <time>2022-05-24 11:07:46</time>
      </trkpt>
      <trkpt lat="41.05948" lon="0.88789">
        <ele>335</ele>
        <time>2022-05-24 11:07:47</time>
      </trkpt>
      <trkpt lat="41.05945" lon="0.88782">
        <ele>334.4</ele>
        <time>2022-05-24 11:07:48</time>
      </trkpt>
      <trkpt lat="41.05941" lon="0.88771">
        <ele>334</ele>
        <time>2022-05-24 11:07:49</time>
      </trkpt>
      <trkpt lat="41.05938" lon="0.88763">
        <ele>333.6</ele>
        <time>2022-05-24 11:07:50</time>
      </trkpt>
      <trkpt lat="41.05935" lon="0.88751">
        <ele>332.8</ele>
        <time>2022-05-24 11:07:51</time>
      </trkpt>
      <trkpt lat="41.05934" lon="0.88743">
        <ele>332.4</ele>
        <time>2022-05-24 11:07:52</time>
      </trkpt>
      <trkpt lat="41.05933" lon="0.8873">
        <ele>332.2</ele>
        <time>2022-05-24 11:07:53</time>
      </trkpt>
      <trkpt lat="41.05933" lon="0.88719">
        <ele>332</ele>
        <time>2022-05-24 11:07:54</time>
      </trkpt>
      <trkpt lat="41.05933" lon="0.88708">
        <ele>331.6</ele>
        <time>2022-05-24 11:07:55</time>
      </trkpt>
      <trkpt lat="41.05933" lon="0.88697">
        <ele>331.4</ele>
        <time>2022-05-24 11:07:56</time>
      </trkpt>
      <trkpt lat="41.05933" lon="0.88687">
        <ele>331.2</ele>
        <time>2022-05-24 11:07:57</time>
      </trkpt>
      <trkpt lat="41.05933" lon="0.88678">
        <ele>331.2</ele>
        <time>2022-05-24 11:07:58</time>
      </trkpt>
      <trkpt lat="41.05932" lon="0.8867">
        <ele>331.6</ele>
        <time>2022-05-24 11:07:59</time>
      </trkpt>
      <trkpt lat="41.05931" lon="0.88663">
        <ele>331.8</ele>
        <time>2022-05-24 11:08:00</time>
      </trkpt>
      <trkpt lat="41.05929" lon="0.88657">
        <ele>332.2</ele>
        <time>2022-05-24 11:08:01</time>
      </trkpt>
      <trkpt lat="41.05927" lon="0.88653">
        <ele>332.6</ele>
        <time>2022-05-24 11:08:02</time>
      </trkpt>
      <trkpt lat="41.05925" lon="0.88648">
        <ele>332.8</ele>
        <time>2022-05-24 11:08:03</time>
      </trkpt>
      <trkpt lat="41.05924" lon="0.88644">
        <ele>333</ele>
        <time>2022-05-24 11:08:04</time>
      </trkpt>
      <trkpt lat="41.05922" lon="0.88639">
        <ele>333.2</ele>
        <time>2022-05-24 11:08:05</time>
      </trkpt>
      <trkpt lat="41.0592" lon="0.88636">
        <ele>333.4</ele>
        <time>2022-05-24 11:08:06</time>
      </trkpt>
      <trkpt lat="41.05919" lon="0.88633">
        <ele>333.4</ele>
        <time>2022-05-24 11:08:07</time>
      </trkpt>
      <trkpt lat="41.05917" lon="0.88631">
        <ele>333.4</ele>
        <time>2022-05-24 11:08:08</time>
      </trkpt>
      <trkpt lat="41.05913" lon="0.88626">
        <ele>333.6</ele>
        <time>2022-05-24 11:08:09</time>
      </trkpt>
      <trkpt lat="41.05911" lon="0.88624">
        <ele>333.6</ele>
        <time>2022-05-24 11:08:29</time>
      </trkpt>
      <trkpt lat="41.0591" lon="0.88622">
        <ele>333.6</ele>
        <time>2022-05-24 11:08:30</time>
      </trkpt>
      <trkpt lat="41.05908" lon="0.8862">
        <ele>333.6</ele>
        <time>2022-05-24 11:08:31</time>
      </trkpt>
      <trkpt lat="41.05906" lon="0.88618">
        <ele>333.6</ele>
        <time>2022-05-24 11:08:32</time>
      </trkpt>
      <trkpt lat="41.05905" lon="0.88616">
        <ele>333.6</ele>
        <time>2022-05-24 11:08:33</time>
      </trkpt>
      <trkpt lat="41.05903" lon="0.88614">
        <ele>333.6</ele>
        <time>2022-05-24 11:08:34</time>
      </trkpt>
      <trkpt lat="41.05901" lon="0.88612">
        <ele>333.4</ele>
        <time>2022-05-24 11:08:35</time>
      </trkpt>
      <trkpt lat="41.05899" lon="0.8861">
        <ele>333.4</ele>
        <time>2022-05-24 11:08:36</time>
      </trkpt>
      <trkpt lat="41.05896" lon="0.88608">
        <ele>333.4</ele>
        <time>2022-05-24 11:08:37</time>
      </trkpt>
      <trkpt lat="41.05893" lon="0.88606">
        <ele>333.2</ele>
        <time>2022-05-24 11:08:38</time>
      </trkpt>
      <trkpt lat="41.0589" lon="0.88604">
        <ele>333.2</ele>
        <time>2022-05-24 11:08:39</time>
      </trkpt>
      <trkpt lat="41.05887" lon="0.88602">
        <ele>333</ele>
        <time>2022-05-24 11:08:40</time>
      </trkpt>
      <trkpt lat="41.05883" lon="0.886">
        <ele>332.8</ele>
        <time>2022-05-24 11:08:41</time>
      </trkpt>
      <trkpt lat="41.05879" lon="0.88596">
        <ele>332.4</ele>
        <time>2022-05-24 11:08:42</time>
      </trkpt>
      <trkpt lat="41.05875" lon="0.88591">
        <ele>332</ele>
        <time>2022-05-24 11:08:43</time>
      </trkpt>
      <trkpt lat="41.0587" lon="0.88585">
        <ele>331.6</ele>
        <time>2022-05-24 11:08:44</time>
      </trkpt>
      <trkpt lat="41.05866" lon="0.88578">
        <ele>331.2</ele>
        <time>2022-05-24 11:08:45</time>
      </trkpt>
      <trkpt lat="41.05862" lon="0.88571">
        <ele>330.8</ele>
        <time>2022-05-24 11:08:46</time>
      </trkpt>
      <trkpt lat="41.05859" lon="0.88562">
        <ele>330</ele>
        <time>2022-05-24 11:08:47</time>
      </trkpt>
      <trkpt lat="41.05856" lon="0.88553">
        <ele>329.6</ele>
        <time>2022-05-24 11:08:48</time>
      </trkpt>
      <trkpt lat="41.05854" lon="0.88542">
        <ele>328.8</ele>
        <time>2022-05-24 11:08:49</time>
      </trkpt>
      <trkpt lat="41.05853" lon="0.88531">
        <ele>328</ele>
        <time>2022-05-24 11:08:50</time>
      </trkpt>
      <trkpt lat="41.05852" lon="0.88519">
        <ele>327</ele>
        <time>2022-05-24 11:08:51</time>
      </trkpt>
      <trkpt lat="41.05852" lon="0.88507">
        <ele>326.2</ele>
        <time>2022-05-24 11:08:52</time>
      </trkpt>
      <trkpt lat="41.05852" lon="0.88494">
        <ele>325.4</ele>
        <time>2022-05-24 11:08:53</time>
      </trkpt>
      <trkpt lat="41.05851" lon="0.88481">
        <ele>324.6</ele>
        <time>2022-05-24 11:08:54</time>
      </trkpt>
      <trkpt lat="41.05849" lon="0.88468">
        <ele>323.8</ele>
        <time>2022-05-24 11:08:55</time>
      </trkpt>
      <trkpt lat="41.05846" lon="0.88455">
        <ele>323.6</ele>
        <time>2022-05-24 11:08:56</time>
      </trkpt>
      <trkpt lat="41.05841" lon="0.88445">
        <ele>323.2</ele>
        <time>2022-05-24 11:08:57</time>
      </trkpt>
      <trkpt lat="41.05836" lon="0.88434">
        <ele>322.8</ele>
        <time>2022-05-24 11:08:58</time>
      </trkpt>
      <trkpt lat="41.05831" lon="0.88424">
        <ele>322.4</ele>
        <time>2022-05-24 11:08:59</time>
      </trkpt>
      <trkpt lat="41.05827" lon="0.88414">
        <ele>322.2</ele>
        <time>2022-05-24 11:09:00</time>
      </trkpt>
      <trkpt lat="41.05823" lon="0.88403">
        <ele>322</ele>
        <time>2022-05-24 11:09:01</time>
      </trkpt>
      <trkpt lat="41.05821" lon="0.88392">
        <ele>321.8</ele>
        <time>2022-05-24 11:09:02</time>
      </trkpt>
      <trkpt lat="41.05818" lon="0.88381">
        <ele>321.8</ele>
        <time>2022-05-24 11:09:03</time>
      </trkpt>
      <trkpt lat="41.05816" lon="0.88371">
        <ele>321.6</ele>
        <time>2022-05-24 11:09:04</time>
      </trkpt>
      <trkpt lat="41.05813" lon="0.88362">
        <ele>321.4</ele>
        <time>2022-05-24 11:09:05</time>
      </trkpt>
      <trkpt lat="41.05809" lon="0.88352">
        <ele>321.2</ele>
        <time>2022-05-24 11:09:06</time>
      </trkpt>
      <trkpt lat="41.05805" lon="0.88342">
        <ele>320.8</ele>
        <time>2022-05-24 11:09:07</time>
      </trkpt>
      <trkpt lat="41.05802" lon="0.88332">
        <ele>320.4</ele>
        <time>2022-05-24 11:09:08</time>
      </trkpt>
      <trkpt lat="41.05798" lon="0.88322">
        <ele>320</ele>
        <time>2022-05-24 11:09:09</time>
      </trkpt>
      <trkpt lat="41.05794" lon="0.88311">
        <ele>319.4</ele>
        <time>2022-05-24 11:09:10</time>
      </trkpt>
      <trkpt lat="41.0579" lon="0.883">
        <ele>318.8</ele>
        <time>2022-05-24 11:09:11</time>
      </trkpt>
      <trkpt lat="41.05786" lon="0.88289">
        <ele>318.2</ele>
        <time>2022-05-24 11:09:12</time>
      </trkpt>
      <trkpt lat="41.05782" lon="0.88278">
        <ele>317.4</ele>
        <time>2022-05-24 11:09:13</time>
      </trkpt>
      <trkpt lat="41.0578" lon="0.88266">
        <ele>316.4</ele>
        <time>2022-05-24 11:09:14</time>
      </trkpt>
      <trkpt lat="41.05779" lon="0.88254">
        <ele>315.4</ele>
        <time>2022-05-24 11:09:15</time>
      </trkpt>
      <trkpt lat="41.05779" lon="0.88242">
        <ele>314.4</ele>
        <time>2022-05-24 11:09:16</time>
      </trkpt>
      <trkpt lat="41.0578" lon="0.8823">
        <ele>313.2</ele>
        <time>2022-05-24 11:09:17</time>
      </trkpt>
      <trkpt lat="41.05782" lon="0.88217">
        <ele>311.8</ele>
        <time>2022-05-24 11:09:18</time>
      </trkpt>
      <trkpt lat="41.05784" lon="0.88202">
        <ele>310.8</ele>
        <time>2022-05-24 11:09:19</time>
      </trkpt>
      <trkpt lat="41.05787" lon="0.88185">
        <ele>309.2</ele>
        <time>2022-05-24 11:09:20</time>
      </trkpt>
      <trkpt lat="41.05788" lon="0.88169">
        <ele>307.6</ele>
        <time>2022-05-24 11:09:21</time>
      </trkpt>
      <trkpt lat="41.05787" lon="0.88151">
        <ele>306.4</ele>
        <time>2022-05-24 11:09:22</time>
      </trkpt>
      <trkpt lat="41.05785" lon="0.88133">
        <ele>305</ele>
        <time>2022-05-24 11:09:23</time>
      </trkpt>
      <trkpt lat="41.05785" lon="0.88114">
        <ele>303.8</ele>
        <time>2022-05-24 11:09:24</time>
      </trkpt>
      <trkpt lat="41.05784" lon="0.881">
        <ele>302.8</ele>
        <time>2022-05-24 11:09:25</time>
      </trkpt>
      <trkpt lat="41.05783" lon="0.88083">
        <ele>302</ele>
        <time>2022-05-24 11:09:26</time>
      </trkpt>
      <trkpt lat="41.05778" lon="0.88074">
        <ele>301.4</ele>
        <time>2022-05-24 11:09:27</time>
      </trkpt>
      <trkpt lat="41.05768" lon="0.88066">
        <ele>301.2</ele>
        <time>2022-05-24 11:09:28</time>
      </trkpt>
      <trkpt lat="41.0576" lon="0.88064">
        <ele>301</ele>
        <time>2022-05-24 11:09:29</time>
      </trkpt>
      <trkpt lat="41.05752" lon="0.88062">
        <ele>301</ele>
        <time>2022-05-24 11:09:30</time>
      </trkpt>
      <trkpt lat="41.05743" lon="0.88059">
        <ele>301</ele>
        <time>2022-05-24 11:09:31</time>
      </trkpt>
      <trkpt lat="41.05737" lon="0.88057">
        <ele>301.2</ele>
        <time>2022-05-24 11:09:32</time>
      </trkpt>
      <trkpt lat="41.05729" lon="0.88055">
        <ele>301.4</ele>
        <time>2022-05-24 11:09:33</time>
      </trkpt>
      <trkpt lat="41.05725" lon="0.88053">
        <ele>301.6</ele>
        <time>2022-05-24 11:09:34</time>
      </trkpt>
      <trkpt lat="41.05719" lon="0.88052">
        <ele>302</ele>
        <time>2022-05-24 11:09:35</time>
      </trkpt>
      <trkpt lat="41.05714" lon="0.88051">
        <ele>302.2</ele>
        <time>2022-05-24 11:09:36</time>
      </trkpt>
      <trkpt lat="41.05709" lon="0.8805">
        <ele>302.4</ele>
        <time>2022-05-24 11:09:37</time>
      </trkpt>
      <trkpt lat="41.05706" lon="0.88049">
        <ele>302.4</ele>
        <time>2022-05-24 11:09:38</time>
      </trkpt>
      <trkpt lat="41.05699" lon="0.88048">
        <ele>302.6</ele>
        <time>2022-05-24 11:09:39</time>
      </trkpt>
      <trkpt lat="41.05695" lon="0.88046">
        <ele>302.6</ele>
        <time>2022-05-24 11:09:40</time>
      </trkpt>
      <trkpt lat="41.0569" lon="0.88043">
        <ele>302.6</ele>
        <time>2022-05-24 11:09:41</time>
      </trkpt>
      <trkpt lat="41.05686" lon="0.88041">
        <ele>302.6</ele>
        <time>2022-05-24 11:09:42</time>
      </trkpt>
      <trkpt lat="41.0568" lon="0.88035">
        <ele>302.4</ele>
        <time>2022-05-24 11:09:43</time>
      </trkpt>
      <trkpt lat="41.05676" lon="0.8803">
        <ele>302.2</ele>
        <time>2022-05-24 11:09:44</time>
      </trkpt>
      <trkpt lat="41.05671" lon="0.88022">
        <ele>302</ele>
        <time>2022-05-24 11:09:45</time>
      </trkpt>
      <trkpt lat="41.05668" lon="0.88017">
        <ele>301.8</ele>
        <time>2022-05-24 11:09:46</time>
      </trkpt>
      <trkpt lat="41.05664" lon="0.88007">
        <ele>301.8</ele>
        <time>2022-05-24 11:09:47</time>
      </trkpt>
      <trkpt lat="41.05661" lon="0.87999">
        <ele>301.6</ele>
        <time>2022-05-24 11:09:48</time>
      </trkpt>
      <trkpt lat="41.05657" lon="0.8799">
        <ele>301.4</ele>
        <time>2022-05-24 11:09:49</time>
      </trkpt>
      <trkpt lat="41.05654" lon="0.87983">
        <ele>301.2</ele>
        <time>2022-05-24 11:09:50</time>
      </trkpt>
      <trkpt lat="41.05649" lon="0.87972">
        <ele>300.8</ele>
        <time>2022-05-24 11:09:51</time>
      </trkpt>
      <trkpt lat="41.05645" lon="0.87966">
        <ele>300.4</ele>
        <time>2022-05-24 11:09:52</time>
      </trkpt>
      <trkpt lat="41.0564" lon="0.87956">
        <ele>300</ele>
        <time>2022-05-24 11:09:53</time>
      </trkpt>
      <trkpt lat="41.05637" lon="0.87949">
        <ele>299.8</ele>
        <time>2022-05-24 11:09:54</time>
      </trkpt>
      <trkpt lat="41.05632" lon="0.87938">
        <ele>299.2</ele>
        <time>2022-05-24 11:09:55</time>
      </trkpt>
      <trkpt lat="41.0563" lon="0.87931">
        <ele>298.8</ele>
        <time>2022-05-24 11:09:56</time>
      </trkpt>
      <trkpt lat="41.05625" lon="0.8792">
        <ele>298.4</ele>
        <time>2022-05-24 11:09:57</time>
      </trkpt>
      <trkpt lat="41.05622" lon="0.87913">
        <ele>297.8</ele>
        <time>2022-05-24 11:09:58</time>
      </trkpt>
      <trkpt lat="41.05617" lon="0.87904">
        <ele>297.4</ele>
        <time>2022-05-24 11:09:59</time>
      </trkpt>
      <trkpt lat="41.05611" lon="0.87894">
        <ele>296.6</ele>
        <time>2022-05-24 11:10:00</time>
      </trkpt>
      <trkpt lat="41.05606" lon="0.87885">
        <ele>296</ele>
        <time>2022-05-24 11:10:01</time>
      </trkpt>
      <trkpt lat="41.056" lon="0.87877">
        <ele>295.4</ele>
        <time>2022-05-24 11:10:02</time>
      </trkpt>
      <trkpt lat="41.05597" lon="0.87872">
        <ele>294.8</ele>
        <time>2022-05-24 11:10:03</time>
      </trkpt>
      <trkpt lat="41.05589" lon="0.87863">
        <ele>294.2</ele>
        <time>2022-05-24 11:10:04</time>
      </trkpt>
      <trkpt lat="41.05581" lon="0.87853">
        <ele>293.8</ele>
        <time>2022-05-24 11:10:05</time>
      </trkpt>
      <trkpt lat="41.05574" lon="0.87844">
        <ele>293.4</ele>
        <time>2022-05-24 11:10:06</time>
      </trkpt>
      <trkpt lat="41.05567" lon="0.87834">
        <ele>292.8</ele>
        <time>2022-05-24 11:10:07</time>
      </trkpt>
      <trkpt lat="41.05561" lon="0.87824">
        <ele>291.8</ele>
        <time>2022-05-24 11:10:08</time>
      </trkpt>
      <trkpt lat="41.05557" lon="0.87811">
        <ele>291</ele>
        <time>2022-05-24 11:10:09</time>
      </trkpt>
      <trkpt lat="41.05555" lon="0.87799">
        <ele>290.2</ele>
        <time>2022-05-24 11:10:10</time>
      </trkpt>
      <trkpt lat="41.05556" lon="0.87785">
        <ele>289.2</ele>
        <time>2022-05-24 11:10:11</time>
      </trkpt>
      <trkpt lat="41.05557" lon="0.87773">
        <ele>288.2</ele>
        <time>2022-05-24 11:10:12</time>
      </trkpt>
      <trkpt lat="41.05559" lon="0.8776">
        <ele>287.2</ele>
        <time>2022-05-24 11:10:13</time>
      </trkpt>
      <trkpt lat="41.05564" lon="0.87744">
        <ele>286.2</ele>
        <time>2022-05-24 11:10:14</time>
      </trkpt>
      <trkpt lat="41.05568" lon="0.87729">
        <ele>285.2</ele>
        <time>2022-05-24 11:10:15</time>
      </trkpt>
      <trkpt lat="41.0557" lon="0.87719">
        <ele>284.4</ele>
        <time>2022-05-24 11:10:16</time>
      </trkpt>
      <trkpt lat="41.05573" lon="0.87709">
        <ele>283.4</ele>
        <time>2022-05-24 11:10:17</time>
      </trkpt>
      <trkpt lat="41.05575" lon="0.87695">
        <ele>282.4</ele>
        <time>2022-05-24 11:10:18</time>
      </trkpt>
      <trkpt lat="41.05574" lon="0.87684">
        <ele>281.4</ele>
        <time>2022-05-24 11:10:19</time>
      </trkpt>
      <trkpt lat="41.05573" lon="0.87672">
        <ele>280.6</ele>
        <time>2022-05-24 11:10:20</time>
      </trkpt>
      <trkpt lat="41.05571" lon="0.87664">
        <ele>279.6</ele>
        <time>2022-05-24 11:10:21</time>
      </trkpt>
      <trkpt lat="41.05566" lon="0.87649">
        <ele>278.6</ele>
        <time>2022-05-24 11:10:22</time>
      </trkpt>
      <trkpt lat="41.05563" lon="0.8764">
        <ele>277.6</ele>
        <time>2022-05-24 11:10:23</time>
      </trkpt>
      <trkpt lat="41.05559" lon="0.87629">
        <ele>276.8</ele>
        <time>2022-05-24 11:10:24</time>
      </trkpt>
      <trkpt lat="41.05556" lon="0.87615">
        <ele>275.6</ele>
        <time>2022-05-24 11:10:25</time>
      </trkpt>
      <trkpt lat="41.05554" lon="0.876">
        <ele>274.4</ele>
        <time>2022-05-24 11:10:26</time>
      </trkpt>
      <trkpt lat="41.05554" lon="0.87584">
        <ele>273</ele>
        <time>2022-05-24 11:10:27</time>
      </trkpt>
      <trkpt lat="41.05553" lon="0.8757">
        <ele>271.6</ele>
        <time>2022-05-24 11:10:28</time>
      </trkpt>
      <trkpt lat="41.0555" lon="0.87553">
        <ele>270.4</ele>
        <time>2022-05-24 11:10:29</time>
      </trkpt>
      <trkpt lat="41.05548" lon="0.8754">
        <ele>269</ele>
        <time>2022-05-24 11:10:30</time>
      </trkpt>
      <trkpt lat="41.05546" lon="0.87523">
        <ele>268</ele>
        <time>2022-05-24 11:10:31</time>
      </trkpt>
      <trkpt lat="41.05544" lon="0.87508">
        <ele>267</ele>
        <time>2022-05-24 11:10:32</time>
      </trkpt>
      <trkpt lat="41.05543" lon="0.87493">
        <ele>266.2</ele>
        <time>2022-05-24 11:10:33</time>
      </trkpt>
      <trkpt lat="41.05542" lon="0.87478">
        <ele>265.2</ele>
        <time>2022-05-24 11:10:34</time>
      </trkpt>
      <trkpt lat="41.05541" lon="0.8746">
        <ele>264.4</ele>
        <time>2022-05-24 11:10:35</time>
      </trkpt>
      <trkpt lat="41.05542" lon="0.87444">
        <ele>263.6</ele>
        <time>2022-05-24 11:10:36</time>
      </trkpt>
      <trkpt lat="41.05544" lon="0.87429">
        <ele>262.8</ele>
        <time>2022-05-24 11:10:37</time>
      </trkpt>
      <trkpt lat="41.05546" lon="0.87417">
        <ele>262.4</ele>
        <time>2022-05-24 11:10:38</time>
      </trkpt>
      <trkpt lat="41.05546" lon="0.87407">
        <ele>262.2</ele>
        <time>2022-05-24 11:10:39</time>
      </trkpt>
      <trkpt lat="41.0554" lon="0.87396">
        <ele>262.2</ele>
        <time>2022-05-24 11:10:40</time>
      </trkpt>
      <trkpt lat="41.05535" lon="0.87391">
        <ele>262.2</ele>
        <time>2022-05-24 11:10:41</time>
      </trkpt>
      <trkpt lat="41.05527" lon="0.87384">
        <ele>262.6</ele>
        <time>2022-05-24 11:10:42</time>
      </trkpt>
      <trkpt lat="41.05523" lon="0.8738">
        <ele>262.8</ele>
        <time>2022-05-24 11:10:43</time>
      </trkpt>
      <trkpt lat="41.05518" lon="0.87374">
        <ele>263.2</ele>
        <time>2022-05-24 11:10:44</time>
      </trkpt>
      <trkpt lat="41.05515" lon="0.87371">
        <ele>263.6</ele>
        <time>2022-05-24 11:10:45</time>
      </trkpt>
      <trkpt lat="41.05511" lon="0.87367">
        <ele>263.8</ele>
        <time>2022-05-24 11:10:46</time>
      </trkpt>
      <trkpt lat="41.05509" lon="0.87363">
        <ele>264</ele>
        <time>2022-05-24 11:10:47</time>
      </trkpt>
      <trkpt lat="41.05507" lon="0.8736">
        <ele>264.2</ele>
        <time>2022-05-24 11:10:48</time>
      </trkpt>
      <trkpt lat="41.05504" lon="0.87355">
        <ele>264.4</ele>
        <time>2022-05-24 11:10:49</time>
      </trkpt>
      <trkpt lat="41.05502" lon="0.87351">
        <ele>264.6</ele>
        <time>2022-05-24 11:10:50</time>
      </trkpt>
      <trkpt lat="41.05499" lon="0.87348">
        <ele>264.8</ele>
        <time>2022-05-24 11:10:51</time>
      </trkpt>
      <trkpt lat="41.05495" lon="0.87343">
        <ele>265</ele>
        <time>2022-05-24 11:10:52</time>
      </trkpt>
      <trkpt lat="41.05492" lon="0.87339">
        <ele>265.2</ele>
        <time>2022-05-24 11:10:53</time>
      </trkpt>
      <trkpt lat="41.05487" lon="0.87335">
        <ele>265.2</ele>
        <time>2022-05-24 11:10:54</time>
      </trkpt>
      <trkpt lat="41.05484" lon="0.87332">
        <ele>265</ele>
        <time>2022-05-24 11:10:55</time>
      </trkpt>
      <trkpt lat="41.05479" lon="0.87327">
        <ele>265</ele>
        <time>2022-05-24 11:10:56</time>
      </trkpt>
      <trkpt lat="41.05475" lon="0.87325">
        <ele>264.8</ele>
        <time>2022-05-24 11:10:57</time>
      </trkpt>
      <trkpt lat="41.05469" lon="0.87319">
        <ele>264.4</ele>
        <time>2022-05-24 11:10:58</time>
      </trkpt>
      <trkpt lat="41.05464" lon="0.87316">
        <ele>264</ele>
        <time>2022-05-24 11:10:59</time>
      </trkpt>
      <trkpt lat="41.05457" lon="0.8731">
        <ele>263.4</ele>
        <time>2022-05-24 11:11:00</time>
      </trkpt>
      <trkpt lat="41.05452" lon="0.87306">
        <ele>262.8</ele>
        <time>2022-05-24 11:11:01</time>
      </trkpt>
      <trkpt lat="41.05442" lon="0.87301">
        <ele>262.2</ele>
        <time>2022-05-24 11:11:02</time>
      </trkpt>
      <trkpt lat="41.05435" lon="0.87298">
        <ele>261.4</ele>
        <time>2022-05-24 11:11:03</time>
      </trkpt>
      <trkpt lat="41.05424" lon="0.87296">
        <ele>260.6</ele>
        <time>2022-05-24 11:11:04</time>
      </trkpt>
      <trkpt lat="41.05415" lon="0.87296">
        <ele>259.8</ele>
        <time>2022-05-24 11:11:05</time>
      </trkpt>
      <trkpt lat="41.05406" lon="0.873">
        <ele>259.2</ele>
        <time>2022-05-24 11:11:06</time>
      </trkpt>
      <trkpt lat="41.05396" lon="0.87306">
        <ele>258.4</ele>
        <time>2022-05-24 11:11:07</time>
      </trkpt>
      <trkpt lat="41.05386" lon="0.87314">
        <ele>257.6</ele>
        <time>2022-05-24 11:11:08</time>
      </trkpt>
      <trkpt lat="41.05379" lon="0.87321">
        <ele>256.8</ele>
        <time>2022-05-24 11:11:09</time>
      </trkpt>
      <trkpt lat="41.05371" lon="0.87329">
        <ele>256.4</ele>
        <time>2022-05-24 11:11:10</time>
      </trkpt>
      <trkpt lat="41.05364" lon="0.87337">
        <ele>255.8</ele>
        <time>2022-05-24 11:11:11</time>
      </trkpt>
      <trkpt lat="41.05356" lon="0.87343">
        <ele>255</ele>
        <time>2022-05-24 11:11:12</time>
      </trkpt>
      <trkpt lat="41.05346" lon="0.87349">
        <ele>254</ele>
        <time>2022-05-24 11:11:13</time>
      </trkpt>
      <trkpt lat="41.0534" lon="0.8735">
        <ele>253.4</ele>
        <time>2022-05-24 11:11:14</time>
      </trkpt>
      <trkpt lat="41.05332" lon="0.87348">
        <ele>252.8</ele>
        <time>2022-05-24 11:11:15</time>
      </trkpt>
      <trkpt lat="41.05329" lon="0.87345">
        <ele>252.2</ele>
        <time>2022-05-24 11:11:16</time>
      </trkpt>
      <trkpt lat="41.05328" lon="0.87338">
        <ele>251.8</ele>
        <time>2022-05-24 11:11:17</time>
      </trkpt>
      <trkpt lat="41.0533" lon="0.87333">
        <ele>251.4</ele>
        <time>2022-05-24 11:11:18</time>
      </trkpt>
      <trkpt lat="41.05333" lon="0.87327">
        <ele>251.2</ele>
        <time>2022-05-24 11:11:19</time>
      </trkpt>
      <trkpt lat="41.05336" lon="0.87324">
        <ele>251</ele>
        <time>2022-05-24 11:11:20</time>
      </trkpt>
      <trkpt lat="41.05339" lon="0.87321">
        <ele>251</ele>
        <time>2022-05-24 11:11:21</time>
      </trkpt>
      <trkpt lat="41.05342" lon="0.87317">
        <ele>251</ele>
        <time>2022-05-24 11:11:22</time>
      </trkpt>
      <trkpt lat="41.05346" lon="0.87314">
        <ele>251</ele>
        <time>2022-05-24 11:11:23</time>
      </trkpt>
      <trkpt lat="41.05349" lon="0.8731">
        <ele>251.2</ele>
        <time>2022-05-24 11:11:24</time>
      </trkpt>
      <trkpt lat="41.05352" lon="0.87307">
        <ele>251.2</ele>
        <time>2022-05-24 11:11:25</time>
      </trkpt>
      <trkpt lat="41.05355" lon="0.87303">
        <ele>251.4</ele>
        <time>2022-05-24 11:11:26</time>
      </trkpt>
      <trkpt lat="41.05358" lon="0.873">
        <ele>251.6</ele>
        <time>2022-05-24 11:11:27</time>
      </trkpt>
      <trkpt lat="41.05361" lon="0.87297">
        <ele>251.8</ele>
        <time>2022-05-24 11:11:28</time>
      </trkpt>
      <trkpt lat="41.05363" lon="0.87293">
        <ele>252</ele>
        <time>2022-05-24 11:11:29</time>
      </trkpt>
      <trkpt lat="41.05365" lon="0.8729">
        <ele>252.2</ele>
        <time>2022-05-24 11:11:30</time>
      </trkpt>
      <trkpt lat="41.05368" lon="0.87287">
        <ele>252.2</ele>
        <time>2022-05-24 11:11:31</time>
      </trkpt>
      <trkpt lat="41.0537" lon="0.87285">
        <ele>252.4</ele>
        <time>2022-05-24 11:11:32</time>
      </trkpt>
      <trkpt lat="41.05373" lon="0.87281">
        <ele>252.6</ele>
        <time>2022-05-24 11:11:33</time>
      </trkpt>
      <trkpt lat="41.05375" lon="0.87278">
        <ele>252.6</ele>
        <time>2022-05-24 11:11:34</time>
      </trkpt>
      <trkpt lat="41.05378" lon="0.87276">
        <ele>252.8</ele>
        <time>2022-05-24 11:11:35</time>
      </trkpt>
      <trkpt lat="41.0538" lon="0.87273">
        <ele>252.8</ele>
        <time>2022-05-24 11:11:36</time>
      </trkpt>
      <trkpt lat="41.05382" lon="0.8727">
        <ele>253</ele>
        <time>2022-05-24 11:11:37</time>
      </trkpt>
      <trkpt lat="41.05384" lon="0.87268">
        <ele>253.2</ele>
        <time>2022-05-24 11:11:38</time>
      </trkpt>
      <trkpt lat="41.05386" lon="0.87265">
        <ele>253.4</ele>
        <time>2022-05-24 11:11:39</time>
      </trkpt>
      <trkpt lat="41.05388" lon="0.87263">
        <ele>253.4</ele>
        <time>2022-05-24 11:11:40</time>
      </trkpt>
      <trkpt lat="41.05391" lon="0.8726">
        <ele>253.6</ele>
        <time>2022-05-24 11:11:41</time>
      </trkpt>
      <trkpt lat="41.05392" lon="0.87258">
        <ele>253.8</ele>
        <time>2022-05-24 11:11:42</time>
      </trkpt>
      <trkpt lat="41.05394" lon="0.87255">
        <ele>253.8</ele>
        <time>2022-05-24 11:11:43</time>
      </trkpt>
      <trkpt lat="41.05396" lon="0.87251">
        <ele>254</ele>
        <time>2022-05-24 11:11:44</time>
      </trkpt>
      <trkpt lat="41.05397" lon="0.87248">
        <ele>254.2</ele>
        <time>2022-05-24 11:11:45</time>
      </trkpt>
      <trkpt lat="41.05397" lon="0.87244">
        <ele>254.4</ele>
        <time>2022-05-24 11:11:46</time>
      </trkpt>
      <trkpt lat="41.05398" lon="0.8724">
        <ele>254.4</ele>
        <time>2022-05-24 11:11:47</time>
      </trkpt>
      <trkpt lat="41.05398" lon="0.87236">
        <ele>254.4</ele>
        <time>2022-05-24 11:11:48</time>
      </trkpt>
      <trkpt lat="41.05399" lon="0.87233">
        <ele>254.6</ele>
        <time>2022-05-24 11:11:49</time>
      </trkpt>
      <trkpt lat="41.05399" lon="0.87229">
        <ele>254.6</ele>
        <time>2022-05-24 11:11:50</time>
      </trkpt>
      <trkpt lat="41.05398" lon="0.87225">
        <ele>254.8</ele>
        <time>2022-05-24 11:11:51</time>
      </trkpt>
      <trkpt lat="41.05398" lon="0.87221">
        <ele>254.8</ele>
        <time>2022-05-24 11:11:52</time>
      </trkpt>
      <trkpt lat="41.05397" lon="0.87218">
        <ele>255</ele>
        <time>2022-05-24 11:11:53</time>
      </trkpt>
      <trkpt lat="41.05396" lon="0.87214">
        <ele>255</ele>
        <time>2022-05-24 11:11:54</time>
      </trkpt>
      <trkpt lat="41.05395" lon="0.87209">
        <ele>255</ele>
        <time>2022-05-24 11:11:55</time>
      </trkpt>
      <trkpt lat="41.05393" lon="0.87205">
        <ele>255</ele>
        <time>2022-05-24 11:11:56</time>
      </trkpt>
      <trkpt lat="41.05392" lon="0.87201">
        <ele>255.2</ele>
        <time>2022-05-24 11:11:57</time>
      </trkpt>
      <trkpt lat="41.0539" lon="0.87197">
        <ele>255.2</ele>
        <time>2022-05-24 11:11:58</time>
      </trkpt>
      <trkpt lat="41.05389" lon="0.87192">
        <ele>255.2</ele>
        <time>2022-05-24 11:11:59</time>
      </trkpt>
      <trkpt lat="41.05388" lon="0.87188">
        <ele>255.2</ele>
        <time>2022-05-24 11:12:00</time>
      </trkpt>
      <trkpt lat="41.05387" lon="0.87184">
        <ele>255.2</ele>
        <time>2022-05-24 11:12:01</time>
      </trkpt>
      <trkpt lat="41.05385" lon="0.87179">
        <ele>255.2</ele>
        <time>2022-05-24 11:12:02</time>
      </trkpt>
      <trkpt lat="41.05384" lon="0.87175">
        <ele>255.4</ele>
        <time>2022-05-24 11:12:03</time>
      </trkpt>
      <trkpt lat="41.05382" lon="0.8717">
        <ele>255.4</ele>
        <time>2022-05-24 11:12:04</time>
      </trkpt>
      <trkpt lat="41.05381" lon="0.87165">
        <ele>255.4</ele>
        <time>2022-05-24 11:12:05</time>
      </trkpt>
      <trkpt lat="41.05381" lon="0.8716">
        <ele>255.4</ele>
        <time>2022-05-24 11:12:06</time>
      </trkpt>
      <trkpt lat="41.05381" lon="0.87156">
        <ele>255.6</ele>
        <time>2022-05-24 11:12:07</time>
      </trkpt>
      <trkpt lat="41.05381" lon="0.87152">
        <ele>255.6</ele>
        <time>2022-05-24 11:12:08</time>
      </trkpt>
      <trkpt lat="41.05381" lon="0.87147">
        <ele>255.8</ele>
        <time>2022-05-24 11:12:09</time>
      </trkpt>
      <trkpt lat="41.05381" lon="0.87143">
        <ele>255.8</ele>
        <time>2022-05-24 11:12:10</time>
      </trkpt>
      <trkpt lat="41.05381" lon="0.87138">
        <ele>256</ele>
        <time>2022-05-24 11:12:11</time>
      </trkpt>
      <trkpt lat="41.05382" lon="0.87134">
        <ele>256.2</ele>
        <time>2022-05-24 11:12:12</time>
      </trkpt>
      <trkpt lat="41.05382" lon="0.8713">
        <ele>256.2</ele>
        <time>2022-05-24 11:12:13</time>
      </trkpt>
      <trkpt lat="41.05383" lon="0.87127">
        <ele>256.4</ele>
        <time>2022-05-24 11:12:14</time>
      </trkpt>
      <trkpt lat="41.05383" lon="0.87124">
        <ele>256.6</ele>
        <time>2022-05-24 11:12:15</time>
      </trkpt>
      <trkpt lat="41.05384" lon="0.87121">
        <ele>256.8</ele>
        <time>2022-05-24 11:12:16</time>
      </trkpt>
      <trkpt lat="41.05384" lon="0.87119">
        <ele>256.8</ele>
        <time>2022-05-24 11:12:17</time>
      </trkpt>
      <trkpt lat="41.05385" lon="0.87117">
        <ele>257</ele>
        <time>2022-05-24 11:12:18</time>
      </trkpt>
      <trkpt lat="41.05386" lon="0.87114">
        <ele>257.2</ele>
        <time>2022-05-24 11:12:19</time>
      </trkpt>
      <trkpt lat="41.05387" lon="0.87112">
        <ele>257.4</ele>
        <time>2022-05-24 11:12:20</time>
      </trkpt>
      <trkpt lat="41.05388" lon="0.87109">
        <ele>257.6</ele>
        <time>2022-05-24 11:12:21</time>
      </trkpt>
      <trkpt lat="41.05388" lon="0.87106">
        <ele>257.8</ele>
        <time>2022-05-24 11:12:22</time>
      </trkpt>
      <trkpt lat="41.05389" lon="0.87103">
        <ele>257.8</ele>
        <time>2022-05-24 11:12:23</time>
      </trkpt>
      <trkpt lat="41.05389" lon="0.871">
        <ele>258</ele>
        <time>2022-05-24 11:12:24</time>
      </trkpt>
      <trkpt lat="41.0539" lon="0.87096">
        <ele>258.2</ele>
        <time>2022-05-24 11:12:25</time>
      </trkpt>
      <trkpt lat="41.0539" lon="0.87094">
        <ele>258.2</ele>
        <time>2022-05-24 11:12:26</time>
      </trkpt>
      <trkpt lat="41.05391" lon="0.8709">
        <ele>258.6</ele>
        <time>2022-05-24 11:12:27</time>
      </trkpt>
      <trkpt lat="41.05391" lon="0.87087">
        <ele>258.6</ele>
        <time>2022-05-24 11:12:28</time>
      </trkpt>
      <trkpt lat="41.05392" lon="0.87083">
        <ele>258.8</ele>
        <time>2022-05-24 11:12:29</time>
      </trkpt>
      <trkpt lat="41.05393" lon="0.8708">
        <ele>259</ele>
        <time>2022-05-24 11:12:30</time>
      </trkpt>
      <trkpt lat="41.05394" lon="0.87076">
        <ele>259.2</ele>
        <time>2022-05-24 11:12:31</time>
      </trkpt>
      <trkpt lat="41.05394" lon="0.87073">
        <ele>259.4</ele>
        <time>2022-05-24 11:12:32</time>
      </trkpt>
      <trkpt lat="41.05394" lon="0.8707">
        <ele>259.6</ele>
        <time>2022-05-24 11:12:33</time>
      </trkpt>
      <trkpt lat="41.05395" lon="0.87068">
        <ele>259.6</ele>
        <time>2022-05-24 11:12:34</time>
      </trkpt>
      <trkpt lat="41.05396" lon="0.87064">
        <ele>259.8</ele>
        <time>2022-05-24 11:12:35</time>
      </trkpt>
      <trkpt lat="41.05397" lon="0.87061">
        <ele>260</ele>
        <time>2022-05-24 11:12:36</time>
      </trkpt>
      <trkpt lat="41.05397" lon="0.87059">
        <ele>260.2</ele>
        <time>2022-05-24 11:12:37</time>
      </trkpt>
      <trkpt lat="41.05397" lon="0.87056">
        <ele>260.2</ele>
        <time>2022-05-24 11:12:38</time>
      </trkpt>
      <trkpt lat="41.05397" lon="0.87053">
        <ele>260.4</ele>
        <time>2022-05-24 11:12:39</time>
      </trkpt>
      <trkpt lat="41.05398" lon="0.87051">
        <ele>260.6</ele>
        <time>2022-05-24 11:12:40</time>
      </trkpt>
      <trkpt lat="41.05399" lon="0.87048">
        <ele>260.8</ele>
        <time>2022-05-24 11:12:41</time>
      </trkpt>
      <trkpt lat="41.05399" lon="0.87046">
        <ele>261</ele>
        <time>2022-05-24 11:12:42</time>
      </trkpt>
      <trkpt lat="41.054" lon="0.87043">
        <ele>261.2</ele>
        <time>2022-05-24 11:12:43</time>
      </trkpt>
      <trkpt lat="41.054" lon="0.8704">
        <ele>261.2</ele>
        <time>2022-05-24 11:12:44</time>
      </trkpt>
      <trkpt lat="41.05401" lon="0.87037">
        <ele>261.4</ele>
        <time>2022-05-24 11:12:45</time>
      </trkpt>
      <trkpt lat="41.05402" lon="0.87035">
        <ele>261.6</ele>
        <time>2022-05-24 11:12:46</time>
      </trkpt>
      <trkpt lat="41.05402" lon="0.87032">
        <ele>261.8</ele>
        <time>2022-05-24 11:12:47</time>
      </trkpt>
      <trkpt lat="41.05402" lon="0.8703">
        <ele>261.8</ele>
        <time>2022-05-24 11:12:48</time>
      </trkpt>
      <trkpt lat="41.05402" lon="0.87026">
        <ele>262</ele>
        <time>2022-05-24 11:12:49</time>
      </trkpt>
      <trkpt lat="41.05402" lon="0.87023">
        <ele>262</ele>
        <time>2022-05-24 11:12:50</time>
      </trkpt>
      <trkpt lat="41.05403" lon="0.8702">
        <ele>262.2</ele>
        <time>2022-05-24 11:12:51</time>
      </trkpt>
      <trkpt lat="41.05403" lon="0.87018">
        <ele>262.4</ele>
        <time>2022-05-24 11:12:52</time>
      </trkpt>
      <trkpt lat="41.05403" lon="0.87015">
        <ele>262.6</ele>
        <time>2022-05-24 11:12:53</time>
      </trkpt>
      <trkpt lat="41.05403" lon="0.87013">
        <ele>262.8</ele>
        <time>2022-05-24 11:12:54</time>
      </trkpt>
      <trkpt lat="41.05402" lon="0.8701">
        <ele>262.8</ele>
        <time>2022-05-24 11:12:55</time>
      </trkpt>
      <trkpt lat="41.05402" lon="0.87007">
        <ele>263</ele>
        <time>2022-05-24 11:12:56</time>
      </trkpt>
      <trkpt lat="41.05402" lon="0.87005">
        <ele>263.2</ele>
        <time>2022-05-24 11:12:57</time>
      </trkpt>
      <trkpt lat="41.05401" lon="0.87003">
        <ele>263.4</ele>
        <time>2022-05-24 11:12:58</time>
      </trkpt>
      <trkpt lat="41.054" lon="0.86999">
        <ele>263.6</ele>
        <time>2022-05-24 11:12:59</time>
      </trkpt>
      <trkpt lat="41.05399" lon="0.86997">
        <ele>263.8</ele>
        <time>2022-05-24 11:13:00</time>
      </trkpt>
      <trkpt lat="41.05399" lon="0.86994">
        <ele>263.8</ele>
        <time>2022-05-24 11:13:01</time>
      </trkpt>
      <trkpt lat="41.05397" lon="0.86992">
        <ele>264</ele>
        <time>2022-05-24 11:13:02</time>
      </trkpt>
      <trkpt lat="41.05397" lon="0.8699">
        <ele>264.2</ele>
        <time>2022-05-24 11:13:03</time>
      </trkpt>
      <trkpt lat="41.05395" lon="0.86987">
        <ele>264.2</ele>
        <time>2022-05-24 11:13:04</time>
      </trkpt>
      <trkpt lat="41.05393" lon="0.86984">
        <ele>264.4</ele>
        <time>2022-05-24 11:13:05</time>
      </trkpt>
      <trkpt lat="41.05392" lon="0.86982">
        <ele>264.6</ele>
        <time>2022-05-24 11:13:06</time>
      </trkpt>
      <trkpt lat="41.05391" lon="0.8698">
        <ele>264.8</ele>
        <time>2022-05-24 11:13:07</time>
      </trkpt>
      <trkpt lat="41.05389" lon="0.86978">
        <ele>264.8</ele>
        <time>2022-05-24 11:13:08</time>
      </trkpt>
      <trkpt lat="41.05387" lon="0.86977">
        <ele>265</ele>
        <time>2022-05-24 11:13:09</time>
      </trkpt>
      <trkpt lat="41.05385" lon="0.86975">
        <ele>265</ele>
        <time>2022-05-24 11:13:10</time>
      </trkpt>
      <trkpt lat="41.05383" lon="0.86973">
        <ele>265.2</ele>
        <time>2022-05-24 11:13:11</time>
      </trkpt>
      <trkpt lat="41.05382" lon="0.86972">
        <ele>265.4</ele>
        <time>2022-05-24 11:13:12</time>
      </trkpt>
      <trkpt lat="41.0538" lon="0.8697">
        <ele>265.4</ele>
        <time>2022-05-24 11:13:13</time>
      </trkpt>
      <trkpt lat="41.05379" lon="0.86968">
        <ele>265.6</ele>
        <time>2022-05-24 11:13:14</time>
      </trkpt>
      <trkpt lat="41.05377" lon="0.86967">
        <ele>265.6</ele>
        <time>2022-05-24 11:13:15</time>
      </trkpt>
      <trkpt lat="41.05375" lon="0.86966">
        <ele>265.8</ele>
        <time>2022-05-24 11:13:16</time>
      </trkpt>
      <trkpt lat="41.05373" lon="0.86964">
        <ele>266</ele>
        <time>2022-05-24 11:13:17</time>
      </trkpt>
      <trkpt lat="41.05371" lon="0.86963">
        <ele>266</ele>
        <time>2022-05-24 11:13:18</time>
      </trkpt>
      <trkpt lat="41.05369" lon="0.86962">
        <ele>266.2</ele>
        <time>2022-05-24 11:13:19</time>
      </trkpt>
      <trkpt lat="41.05367" lon="0.8696">
        <ele>266.4</ele>
        <time>2022-05-24 11:13:20</time>
      </trkpt>
      <trkpt lat="41.05365" lon="0.8696">
        <ele>266.4</ele>
        <time>2022-05-24 11:13:21</time>
      </trkpt>
      <trkpt lat="41.05363" lon="0.86959">
        <ele>266.6</ele>
        <time>2022-05-24 11:13:22</time>
      </trkpt>
      <trkpt lat="41.05361" lon="0.86958">
        <ele>266.6</ele>
        <time>2022-05-24 11:13:23</time>
      </trkpt>
      <trkpt lat="41.05358" lon="0.86958">
        <ele>266.8</ele>
        <time>2022-05-24 11:13:24</time>
      </trkpt>
      <trkpt lat="41.05357" lon="0.86958">
        <ele>266.8</ele>
        <time>2022-05-24 11:13:25</time>
      </trkpt>
      <trkpt lat="41.05355" lon="0.86958">
        <ele>267</ele>
        <time>2022-05-24 11:13:26</time>
      </trkpt>
      <trkpt lat="41.05352" lon="0.86958">
        <ele>267</ele>
        <time>2022-05-24 11:13:27</time>
      </trkpt>
      <trkpt lat="41.0535" lon="0.86958">
        <ele>267.2</ele>
        <time>2022-05-24 11:13:28</time>
      </trkpt>
      <trkpt lat="41.05348" lon="0.86958">
        <ele>267.4</ele>
        <time>2022-05-24 11:13:29</time>
      </trkpt>
      <trkpt lat="41.05346" lon="0.86958">
        <ele>267.4</ele>
        <time>2022-05-24 11:13:30</time>
      </trkpt>
      <trkpt lat="41.05344" lon="0.86958">
        <ele>267.6</ele>
        <time>2022-05-24 11:13:31</time>
      </trkpt>
      <trkpt lat="41.05341" lon="0.86958">
        <ele>267.8</ele>
        <time>2022-05-24 11:13:32</time>
      </trkpt>
      <trkpt lat="41.05339" lon="0.86958">
        <ele>267.8</ele>
        <time>2022-05-24 11:13:33</time>
      </trkpt>
      <trkpt lat="41.05337" lon="0.86959">
        <ele>268</ele>
        <time>2022-05-24 11:13:34</time>
      </trkpt>
      <trkpt lat="41.05335" lon="0.8696">
        <ele>268.2</ele>
        <time>2022-05-24 11:13:35</time>
      </trkpt>
      <trkpt lat="41.05333" lon="0.8696">
        <ele>268.2</ele>
        <time>2022-05-24 11:13:36</time>
      </trkpt>
      <trkpt lat="41.0533" lon="0.86961">
        <ele>268.4</ele>
        <time>2022-05-24 11:13:37</time>
      </trkpt>
      <trkpt lat="41.05328" lon="0.86962">
        <ele>268.6</ele>
        <time>2022-05-24 11:13:38</time>
      </trkpt>
      <trkpt lat="41.05326" lon="0.86962">
        <ele>268.6</ele>
        <time>2022-05-24 11:13:39</time>
      </trkpt>
      <trkpt lat="41.05324" lon="0.86963">
        <ele>268.8</ele>
        <time>2022-05-24 11:13:40</time>
      </trkpt>
      <trkpt lat="41.05322" lon="0.86964">
        <ele>269</ele>
        <time>2022-05-24 11:13:41</time>
      </trkpt>
      <trkpt lat="41.0532" lon="0.86964">
        <ele>269</ele>
        <time>2022-05-24 11:13:42</time>
      </trkpt>
      <trkpt lat="41.05318" lon="0.86964">
        <ele>269.2</ele>
        <time>2022-05-24 11:13:43</time>
      </trkpt>
      <trkpt lat="41.05317" lon="0.86964">
        <ele>269.2</ele>
        <time>2022-05-24 11:13:44</time>
      </trkpt>
      <trkpt lat="41.05315" lon="0.86964">
        <ele>269.4</ele>
        <time>2022-05-24 11:13:45</time>
      </trkpt>
      <trkpt lat="41.05312" lon="0.86964">
        <ele>269.4</ele>
        <time>2022-05-24 11:13:46</time>
      </trkpt>
      <trkpt lat="41.0531" lon="0.86964">
        <ele>269.6</ele>
        <time>2022-05-24 11:13:47</time>
      </trkpt>
      <trkpt lat="41.05309" lon="0.86964">
        <ele>269.8</ele>
        <time>2022-05-24 11:13:48</time>
      </trkpt>
      <trkpt lat="41.05307" lon="0.86964">
        <ele>269.8</ele>
        <time>2022-05-24 11:13:49</time>
      </trkpt>
      <trkpt lat="41.05304" lon="0.86963">
        <ele>270</ele>
        <time>2022-05-24 11:13:50</time>
      </trkpt>
      <trkpt lat="41.05303" lon="0.86962">
        <ele>270</ele>
        <time>2022-05-24 11:13:51</time>
      </trkpt>
      <trkpt lat="41.05301" lon="0.86961">
        <ele>270.2</ele>
        <time>2022-05-24 11:13:52</time>
      </trkpt>
      <trkpt lat="41.05299" lon="0.86961">
        <ele>270.4</ele>
        <time>2022-05-24 11:13:53</time>
      </trkpt>
      <trkpt lat="41.05297" lon="0.8696">
        <ele>270.6</ele>
        <time>2022-05-24 11:13:54</time>
      </trkpt>
      <trkpt lat="41.05296" lon="0.86958">
        <ele>270.6</ele>
        <time>2022-05-24 11:13:55</time>
      </trkpt>
      <trkpt lat="41.05294" lon="0.86957">
        <ele>270.8</ele>
        <time>2022-05-24 11:13:56</time>
      </trkpt>
      <trkpt lat="41.05293" lon="0.86955">
        <ele>271</ele>
        <time>2022-05-24 11:13:57</time>
      </trkpt>
      <trkpt lat="41.05291" lon="0.86953">
        <ele>271.2</ele>
        <time>2022-05-24 11:13:58</time>
      </trkpt>
      <trkpt lat="41.0529" lon="0.86952">
        <ele>271.2</ele>
        <time>2022-05-24 11:13:59</time>
      </trkpt>
      <trkpt lat="41.05289" lon="0.8695">
        <ele>271.4</ele>
        <time>2022-05-24 11:14:00</time>
      </trkpt>
      <trkpt lat="41.05288" lon="0.86948">
        <ele>271.6</ele>
        <time>2022-05-24 11:14:01</time>
      </trkpt>
      <trkpt lat="41.05287" lon="0.86946">
        <ele>271.8</ele>
        <time>2022-05-24 11:14:02</time>
      </trkpt>
      <trkpt lat="41.05286" lon="0.86944">
        <ele>271.8</ele>
        <time>2022-05-24 11:14:03</time>
      </trkpt>
      <trkpt lat="41.05285" lon="0.86942">
        <ele>272</ele>
        <time>2022-05-24 11:14:04</time>
      </trkpt>
      <trkpt lat="41.05284" lon="0.86939">
        <ele>272.2</ele>
        <time>2022-05-24 11:14:05</time>
      </trkpt>
      <trkpt lat="41.05283" lon="0.86937">
        <ele>272.4</ele>
        <time>2022-05-24 11:14:06</time>
      </trkpt>
      <trkpt lat="41.05281" lon="0.86936">
        <ele>272.4</ele>
        <time>2022-05-24 11:14:07</time>
      </trkpt>
      <trkpt lat="41.0528" lon="0.86935">
        <ele>272.6</ele>
        <time>2022-05-24 11:14:08</time>
      </trkpt>
      <trkpt lat="41.05279" lon="0.86935">
        <ele>272.8</ele>
        <time>2022-05-24 11:14:09</time>
      </trkpt>
      <trkpt lat="41.05278" lon="0.86934">
        <ele>272.8</ele>
        <time>2022-05-24 11:14:10</time>
      </trkpt>
      <trkpt lat="41.05277" lon="0.86933">
        <ele>273</ele>
        <time>2022-05-24 11:14:11</time>
      </trkpt>
      <trkpt lat="41.05276" lon="0.86931">
        <ele>273</ele>
        <time>2022-05-24 11:14:12</time>
      </trkpt>
      <trkpt lat="41.05275" lon="0.86929">
        <ele>273.2</ele>
        <time>2022-05-24 11:14:13</time>
      </trkpt>
      <trkpt lat="41.05274" lon="0.86926">
        <ele>273.2</ele>
        <time>2022-05-24 11:14:14</time>
      </trkpt>
      <trkpt lat="41.05273" lon="0.86924">
        <ele>273.4</ele>
        <time>2022-05-24 11:14:15</time>
      </trkpt>
      <trkpt lat="41.05273" lon="0.86922">
        <ele>273.6</ele>
        <time>2022-05-24 11:14:16</time>
      </trkpt>
      <trkpt lat="41.05272" lon="0.8692">
        <ele>273.6</ele>
        <time>2022-05-24 11:14:17</time>
      </trkpt>
      <trkpt lat="41.05271" lon="0.86917">
        <ele>273.8</ele>
        <time>2022-05-24 11:14:18</time>
      </trkpt>
      <trkpt lat="41.0527" lon="0.86915">
        <ele>274</ele>
        <time>2022-05-24 11:14:19</time>
      </trkpt>
      <trkpt lat="41.0527" lon="0.86913">
        <ele>274</ele>
        <time>2022-05-24 11:14:20</time>
      </trkpt>
      <trkpt lat="41.0527" lon="0.86911">
        <ele>274.2</ele>
        <time>2022-05-24 11:14:21</time>
      </trkpt>
      <trkpt lat="41.0527" lon="0.86909">
        <ele>274.4</ele>
        <time>2022-05-24 11:14:22</time>
      </trkpt>
      <trkpt lat="41.0527" lon="0.86907">
        <ele>274.4</ele>
        <time>2022-05-24 11:14:23</time>
      </trkpt>
      <trkpt lat="41.05269" lon="0.86905">
        <ele>274.6</ele>
        <time>2022-05-24 11:14:24</time>
      </trkpt>
      <trkpt lat="41.05268" lon="0.86903">
        <ele>274.8</ele>
        <time>2022-05-24 11:14:25</time>
      </trkpt>
      <trkpt lat="41.05267" lon="0.869">
        <ele>274.8</ele>
        <time>2022-05-24 11:14:26</time>
      </trkpt>
      <trkpt lat="41.05267" lon="0.86898">
        <ele>275</ele>
        <time>2022-05-24 11:14:27</time>
      </trkpt>
      <trkpt lat="41.05266" lon="0.86896">
        <ele>275.2</ele>
        <time>2022-05-24 11:14:28</time>
      </trkpt>
      <trkpt lat="41.05265" lon="0.86894">
        <ele>275.2</ele>
        <time>2022-05-24 11:14:29</time>
      </trkpt>
      <trkpt lat="41.05264" lon="0.86893">
        <ele>275.4</ele>
        <time>2022-05-24 11:14:30</time>
      </trkpt>
      <trkpt lat="41.05262" lon="0.86891">
        <ele>275.6</ele>
        <time>2022-05-24 11:14:31</time>
      </trkpt>
      <trkpt lat="41.05262" lon="0.8689">
        <ele>275.8</ele>
        <time>2022-05-24 11:14:32</time>
      </trkpt>
      <trkpt lat="41.0526" lon="0.86888">
        <ele>275.8</ele>
        <time>2022-05-24 11:14:33</time>
      </trkpt>
      <trkpt lat="41.05259" lon="0.86886">
        <ele>276</ele>
        <time>2022-05-24 11:14:34</time>
      </trkpt>
      <trkpt lat="41.05258" lon="0.86884">
        <ele>276.2</ele>
        <time>2022-05-24 11:14:35</time>
      </trkpt>
      <trkpt lat="41.05258" lon="0.86882">
        <ele>276.2</ele>
        <time>2022-05-24 11:14:36</time>
      </trkpt>
      <trkpt lat="41.05257" lon="0.8688">
        <ele>276.4</ele>
        <time>2022-05-24 11:14:37</time>
      </trkpt>
      <trkpt lat="41.05257" lon="0.86878">
        <ele>276.6</ele>
        <time>2022-05-24 11:14:38</time>
      </trkpt>
      <trkpt lat="41.05257" lon="0.86876">
        <ele>276.6</ele>
        <time>2022-05-24 11:14:39</time>
      </trkpt>
      <trkpt lat="41.05257" lon="0.86874">
        <ele>276.8</ele>
        <time>2022-05-24 11:14:40</time>
      </trkpt>
      <trkpt lat="41.05257" lon="0.86872">
        <ele>276.8</ele>
        <time>2022-05-24 11:14:41</time>
      </trkpt>
      <trkpt lat="41.05256" lon="0.86871">
        <ele>277</ele>
        <time>2022-05-24 11:14:42</time>
      </trkpt>
      <trkpt lat="41.05256" lon="0.86869">
        <ele>277.2</ele>
        <time>2022-05-24 11:14:43</time>
      </trkpt>
      <trkpt lat="41.05256" lon="0.86867">
        <ele>277.4</ele>
        <time>2022-05-24 11:14:44</time>
      </trkpt>
      <trkpt lat="41.05255" lon="0.86865">
        <ele>277.4</ele>
        <time>2022-05-24 11:14:45</time>
      </trkpt>
      <trkpt lat="41.05255" lon="0.86863">
        <ele>277.6</ele>
        <time>2022-05-24 11:14:46</time>
      </trkpt>
      <trkpt lat="41.05254" lon="0.86861">
        <ele>277.8</ele>
        <time>2022-05-24 11:14:47</time>
      </trkpt>
      <trkpt lat="41.05253" lon="0.86859">
        <ele>277.8</ele>
        <time>2022-05-24 11:14:48</time>
      </trkpt>
      <trkpt lat="41.05253" lon="0.86857">
        <ele>278</ele>
        <time>2022-05-24 11:14:49</time>
      </trkpt>
      <trkpt lat="41.05253" lon="0.86855">
        <ele>278.2</ele>
        <time>2022-05-24 11:14:50</time>
      </trkpt>
      <trkpt lat="41.05253" lon="0.86853">
        <ele>278.2</ele>
        <time>2022-05-24 11:14:51</time>
      </trkpt>
      <trkpt lat="41.05253" lon="0.86851">
        <ele>278.4</ele>
        <time>2022-05-24 11:14:52</time>
      </trkpt>
      <trkpt lat="41.05253" lon="0.86849">
        <ele>278.6</ele>
        <time>2022-05-24 11:14:53</time>
      </trkpt>
      <trkpt lat="41.05253" lon="0.86847">
        <ele>278.6</ele>
        <time>2022-05-24 11:14:54</time>
      </trkpt>
      <trkpt lat="41.05253" lon="0.86844">
        <ele>278.8</ele>
        <time>2022-05-24 11:14:55</time>
      </trkpt>
      <trkpt lat="41.05253" lon="0.86843">
        <ele>278.8</ele>
        <time>2022-05-24 11:14:56</time>
      </trkpt>
      <trkpt lat="41.05253" lon="0.86841">
        <ele>279</ele>
        <time>2022-05-24 11:14:57</time>
      </trkpt>
      <trkpt lat="41.05253" lon="0.86839">
        <ele>279.2</ele>
        <time>2022-05-24 11:14:58</time>
      </trkpt>
      <trkpt lat="41.05253" lon="0.86837">
        <ele>279.2</ele>
        <time>2022-05-24 11:14:59</time>
      </trkpt>
      <trkpt lat="41.05253" lon="0.86835">
        <ele>279.4</ele>
        <time>2022-05-24 11:15:00</time>
      </trkpt>
      <trkpt lat="41.05253" lon="0.86833">
        <ele>279.6</ele>
        <time>2022-05-24 11:15:01</time>
      </trkpt>
      <trkpt lat="41.05252" lon="0.86831">
        <ele>279.6</ele>
        <time>2022-05-24 11:15:02</time>
      </trkpt>
      <trkpt lat="41.05252" lon="0.86829">
        <ele>279.8</ele>
        <time>2022-05-24 11:15:03</time>
      </trkpt>
      <trkpt lat="41.05252" lon="0.86827">
        <ele>279.8</ele>
        <time>2022-05-24 11:15:04</time>
      </trkpt>
      <trkpt lat="41.05251" lon="0.86825">
        <ele>280</ele>
        <time>2022-05-24 11:15:05</time>
      </trkpt>
      <trkpt lat="41.05251" lon="0.86823">
        <ele>280</ele>
        <time>2022-05-24 11:15:06</time>
      </trkpt>
      <trkpt lat="41.05251" lon="0.8682">
        <ele>280.2</ele>
        <time>2022-05-24 11:15:07</time>
      </trkpt>
      <trkpt lat="41.05251" lon="0.86818">
        <ele>280.4</ele>
        <time>2022-05-24 11:15:08</time>
      </trkpt>
      <trkpt lat="41.0525" lon="0.86816">
        <ele>280.4</ele>
        <time>2022-05-24 11:15:09</time>
      </trkpt>
      <trkpt lat="41.0525" lon="0.86814">
        <ele>280.6</ele>
        <time>2022-05-24 11:15:10</time>
      </trkpt>
      <trkpt lat="41.05249" lon="0.86812">
        <ele>280.6</ele>
        <time>2022-05-24 11:15:11</time>
      </trkpt>
      <trkpt lat="41.05249" lon="0.8681">
        <ele>280.8</ele>
        <time>2022-05-24 11:15:12</time>
      </trkpt>
      <trkpt lat="41.05249" lon="0.86807">
        <ele>280.8</ele>
        <time>2022-05-24 11:15:13</time>
      </trkpt>
      <trkpt lat="41.05249" lon="0.86805">
        <ele>281</ele>
        <time>2022-05-24 11:15:14</time>
      </trkpt>
      <trkpt lat="41.05249" lon="0.86802">
        <ele>281</ele>
        <time>2022-05-24 11:15:15</time>
      </trkpt>
      <trkpt lat="41.05249" lon="0.868">
        <ele>281.2</ele>
        <time>2022-05-24 11:15:16</time>
      </trkpt>
      <trkpt lat="41.05249" lon="0.86798">
        <ele>281.2</ele>
        <time>2022-05-24 11:15:17</time>
      </trkpt>
      <trkpt lat="41.05248" lon="0.86796">
        <ele>281.4</ele>
        <time>2022-05-24 11:15:18</time>
      </trkpt>
      <trkpt lat="41.05248" lon="0.86794">
        <ele>281.4</ele>
        <time>2022-05-24 11:15:19</time>
      </trkpt>
      <trkpt lat="41.05248" lon="0.86793">
        <ele>281.6</ele>
        <time>2022-05-24 11:15:20</time>
      </trkpt>
      <trkpt lat="41.05247" lon="0.86791">
        <ele>281.6</ele>
        <time>2022-05-24 11:15:21</time>
      </trkpt>
      <trkpt lat="41.05246" lon="0.86789">
        <ele>281.8</ele>
        <time>2022-05-24 11:15:22</time>
      </trkpt>
      <trkpt lat="41.05246" lon="0.86787">
        <ele>282</ele>
        <time>2022-05-24 11:15:23</time>
      </trkpt>
      <trkpt lat="41.05246" lon="0.86785">
        <ele>282</ele>
        <time>2022-05-24 11:15:24</time>
      </trkpt>
      <trkpt lat="41.05245" lon="0.86783">
        <ele>282.2</ele>
        <time>2022-05-24 11:15:25</time>
      </trkpt>
      <trkpt lat="41.05245" lon="0.86781">
        <ele>282.4</ele>
        <time>2022-05-24 11:15:26</time>
      </trkpt>
      <trkpt lat="41.05245" lon="0.86778">
        <ele>282.6</ele>
        <time>2022-05-24 11:15:27</time>
      </trkpt>
      <trkpt lat="41.05245" lon="0.86776">
        <ele>282.6</ele>
        <time>2022-05-24 11:15:28</time>
      </trkpt>
      <trkpt lat="41.05245" lon="0.86774">
        <ele>282.8</ele>
        <time>2022-05-24 11:15:29</time>
      </trkpt>
      <trkpt lat="41.05244" lon="0.86772">
        <ele>283</ele>
        <time>2022-05-24 11:15:30</time>
      </trkpt>
      <trkpt lat="41.05243" lon="0.8677">
        <ele>283.2</ele>
        <time>2022-05-24 11:15:31</time>
      </trkpt>
      <trkpt lat="41.05242" lon="0.86768">
        <ele>283.2</ele>
        <time>2022-05-24 11:15:32</time>
      </trkpt>
      <trkpt lat="41.05241" lon="0.86766">
        <ele>283.4</ele>
        <time>2022-05-24 11:15:33</time>
      </trkpt>
      <trkpt lat="41.0524" lon="0.86764">
        <ele>283.6</ele>
        <time>2022-05-24 11:15:34</time>
      </trkpt>
      <trkpt lat="41.05239" lon="0.86762">
        <ele>283.8</ele>
        <time>2022-05-24 11:15:35</time>
      </trkpt>
      <trkpt lat="41.05238" lon="0.8676">
        <ele>284</ele>
        <time>2022-05-24 11:15:36</time>
      </trkpt>
      <trkpt lat="41.05237" lon="0.86757">
        <ele>284.2</ele>
        <time>2022-05-24 11:15:37</time>
      </trkpt>
      <trkpt lat="41.05236" lon="0.86755">
        <ele>284.2</ele>
        <time>2022-05-24 11:15:38</time>
      </trkpt>
      <trkpt lat="41.05235" lon="0.86753">
        <ele>284.4</ele>
        <time>2022-05-24 11:15:39</time>
      </trkpt>
      <trkpt lat="41.05233" lon="0.86751">
        <ele>284.6</ele>
        <time>2022-05-24 11:15:40</time>
      </trkpt>
      <trkpt lat="41.05232" lon="0.8675">
        <ele>284.8</ele>
        <time>2022-05-24 11:15:41</time>
      </trkpt>
      <trkpt lat="41.0523" lon="0.86748">
        <ele>284.8</ele>
        <time>2022-05-24 11:15:42</time>
      </trkpt>
      <trkpt lat="41.05228" lon="0.86746">
        <ele>285</ele>
        <time>2022-05-24 11:15:43</time>
      </trkpt>
      <trkpt lat="41.05227" lon="0.86744">
        <ele>285.2</ele>
        <time>2022-05-24 11:15:44</time>
      </trkpt>
      <trkpt lat="41.05225" lon="0.86742">
        <ele>285.2</ele>
        <time>2022-05-24 11:15:45</time>
      </trkpt>
      <trkpt lat="41.05224" lon="0.86741">
        <ele>285.4</ele>
        <time>2022-05-24 11:15:46</time>
      </trkpt>
      <trkpt lat="41.05222" lon="0.8674">
        <ele>285.6</ele>
        <time>2022-05-24 11:15:47</time>
      </trkpt>
      <trkpt lat="41.0522" lon="0.86738">
        <ele>285.8</ele>
        <time>2022-05-24 11:15:48</time>
      </trkpt>
      <trkpt lat="41.05218" lon="0.86737">
        <ele>285.8</ele>
        <time>2022-05-24 11:15:49</time>
      </trkpt>
      <trkpt lat="41.05216" lon="0.86736">
        <ele>286</ele>
        <time>2022-05-24 11:15:50</time>
      </trkpt>
      <trkpt lat="41.05215" lon="0.86734">
        <ele>286.2</ele>
        <time>2022-05-24 11:15:51</time>
      </trkpt>
      <trkpt lat="41.05214" lon="0.86733">
        <ele>286.4</ele>
        <time>2022-05-24 11:15:52</time>
      </trkpt>
      <trkpt lat="41.05212" lon="0.86732">
        <ele>286.4</ele>
        <time>2022-05-24 11:15:53</time>
      </trkpt>
      <trkpt lat="41.05211" lon="0.8673">
        <ele>286.6</ele>
        <time>2022-05-24 11:15:54</time>
      </trkpt>
      <trkpt lat="41.0521" lon="0.86728">
        <ele>286.8</ele>
        <time>2022-05-24 11:15:55</time>
      </trkpt>
      <trkpt lat="41.05208" lon="0.86727">
        <ele>287</ele>
        <time>2022-05-24 11:15:56</time>
      </trkpt>
      <trkpt lat="41.05207" lon="0.86725">
        <ele>287</ele>
        <time>2022-05-24 11:15:57</time>
      </trkpt>
      <trkpt lat="41.05205" lon="0.86724">
        <ele>287.2</ele>
        <time>2022-05-24 11:15:58</time>
      </trkpt>
      <trkpt lat="41.05203" lon="0.86723">
        <ele>287.4</ele>
        <time>2022-05-24 11:15:59</time>
      </trkpt>
      <trkpt lat="41.05202" lon="0.86721">
        <ele>287.4</ele>
        <time>2022-05-24 11:16:00</time>
      </trkpt>
      <trkpt lat="41.052" lon="0.8672">
        <ele>287.6</ele>
        <time>2022-05-24 11:16:01</time>
      </trkpt>
      <trkpt lat="41.05199" lon="0.86719">
        <ele>287.6</ele>
        <time>2022-05-24 11:16:02</time>
      </trkpt>
      <trkpt lat="41.05198" lon="0.86717">
        <ele>287.8</ele>
        <time>2022-05-24 11:16:03</time>
      </trkpt>
      <trkpt lat="41.05196" lon="0.86716">
        <ele>288</ele>
        <time>2022-05-24 11:16:04</time>
      </trkpt>
      <trkpt lat="41.05195" lon="0.86715">
        <ele>288</ele>
        <time>2022-05-24 11:16:05</time>
      </trkpt>
      <trkpt lat="41.05193" lon="0.86713">
        <ele>288.2</ele>
        <time>2022-05-24 11:16:06</time>
      </trkpt>
      <trkpt lat="41.05192" lon="0.86711">
        <ele>288.2</ele>
        <time>2022-05-24 11:16:07</time>
      </trkpt>
      <trkpt lat="41.05191" lon="0.86709">
        <ele>288.4</ele>
        <time>2022-05-24 11:16:08</time>
      </trkpt>
      <trkpt lat="41.0519" lon="0.86707">
        <ele>288.6</ele>
        <time>2022-05-24 11:16:09</time>
      </trkpt>
      <trkpt lat="41.05188" lon="0.86706">
        <ele>288.6</ele>
        <time>2022-05-24 11:16:10</time>
      </trkpt>
      <trkpt lat="41.05187" lon="0.86704">
        <ele>288.8</ele>
        <time>2022-05-24 11:16:11</time>
      </trkpt>
      <trkpt lat="41.05186" lon="0.86703">
        <ele>288.8</ele>
        <time>2022-05-24 11:16:12</time>
      </trkpt>
      <trkpt lat="41.05184" lon="0.86701">
        <ele>289</ele>
        <time>2022-05-24 11:16:13</time>
      </trkpt>
      <trkpt lat="41.05183" lon="0.867">
        <ele>289</ele>
        <time>2022-05-24 11:16:14</time>
      </trkpt>
      <trkpt lat="41.05182" lon="0.86698">
        <ele>289.2</ele>
        <time>2022-05-24 11:16:15</time>
      </trkpt>
      <trkpt lat="41.0518" lon="0.86697">
        <ele>289.2</ele>
        <time>2022-05-24 11:16:16</time>
      </trkpt>
      <trkpt lat="41.05179" lon="0.86695">
        <ele>289.4</ele>
        <time>2022-05-24 11:16:17</time>
      </trkpt>
      <trkpt lat="41.05178" lon="0.86693">
        <ele>289.6</ele>
        <time>2022-05-24 11:16:18</time>
      </trkpt>
      <trkpt lat="41.05177" lon="0.86691">
        <ele>289.6</ele>
        <time>2022-05-24 11:16:19</time>
      </trkpt>
      <trkpt lat="41.05176" lon="0.86688">
        <ele>289.8</ele>
        <time>2022-05-24 11:16:20</time>
      </trkpt>
      <trkpt lat="41.05175" lon="0.86686">
        <ele>289.8</ele>
        <time>2022-05-24 11:16:21</time>
      </trkpt>
      <trkpt lat="41.05174" lon="0.86684">
        <ele>290</ele>
        <time>2022-05-24 11:16:22</time>
      </trkpt>
      <trkpt lat="41.05173" lon="0.86682">
        <ele>290</ele>
        <time>2022-05-24 11:16:23</time>
      </trkpt>
      <trkpt lat="41.05172" lon="0.8668">
        <ele>290.2</ele>
        <time>2022-05-24 11:16:24</time>
      </trkpt>
      <trkpt lat="41.05172" lon="0.86677">
        <ele>290.4</ele>
        <time>2022-05-24 11:16:25</time>
      </trkpt>
      <trkpt lat="41.05172" lon="0.86675">
        <ele>290.4</ele>
        <time>2022-05-24 11:16:26</time>
      </trkpt>
      <trkpt lat="41.05171" lon="0.86674">
        <ele>290.6</ele>
        <time>2022-05-24 11:16:27</time>
      </trkpt>
      <trkpt lat="41.0517" lon="0.86672">
        <ele>290.6</ele>
        <time>2022-05-24 11:16:28</time>
      </trkpt>
      <trkpt lat="41.05169" lon="0.8667">
        <ele>290.8</ele>
        <time>2022-05-24 11:16:29</time>
      </trkpt>
      <trkpt lat="41.05168" lon="0.86668">
        <ele>290.8</ele>
        <time>2022-05-24 11:16:30</time>
      </trkpt>
      <trkpt lat="41.05167" lon="0.86666">
        <ele>291</ele>
        <time>2022-05-24 11:16:31</time>
      </trkpt>
      <trkpt lat="41.05167" lon="0.86664">
        <ele>291.2</ele>
        <time>2022-05-24 11:16:32</time>
      </trkpt>
      <trkpt lat="41.05166" lon="0.86662">
        <ele>291.2</ele>
        <time>2022-05-24 11:16:33</time>
      </trkpt>
      <trkpt lat="41.05166" lon="0.8666">
        <ele>291.4</ele>
        <time>2022-05-24 11:16:34</time>
      </trkpt>
      <trkpt lat="41.05165" lon="0.86658">
        <ele>291.4</ele>
        <time>2022-05-24 11:16:35</time>
      </trkpt>
      <trkpt lat="41.05164" lon="0.86656">
        <ele>291.6</ele>
        <time>2022-05-24 11:16:36</time>
      </trkpt>
      <trkpt lat="41.05163" lon="0.86653">
        <ele>291.6</ele>
        <time>2022-05-24 11:16:37</time>
      </trkpt>
      <trkpt lat="41.05162" lon="0.86651">
        <ele>291.8</ele>
        <time>2022-05-24 11:16:38</time>
      </trkpt>
      <trkpt lat="41.05161" lon="0.86649">
        <ele>292</ele>
        <time>2022-05-24 11:16:39</time>
      </trkpt>
      <trkpt lat="41.0516" lon="0.86647">
        <ele>292</ele>
        <time>2022-05-24 11:16:40</time>
      </trkpt>
      <trkpt lat="41.05159" lon="0.86645">
        <ele>292.2</ele>
        <time>2022-05-24 11:16:41</time>
      </trkpt>
      <trkpt lat="41.05158" lon="0.86643">
        <ele>292.4</ele>
        <time>2022-05-24 11:16:42</time>
      </trkpt>
      <trkpt lat="41.05157" lon="0.86641">
        <ele>292.4</ele>
        <time>2022-05-24 11:16:43</time>
      </trkpt>
      <trkpt lat="41.05156" lon="0.86639">
        <ele>292.6</ele>
        <time>2022-05-24 11:16:44</time>
      </trkpt>
      <trkpt lat="41.05155" lon="0.86637">
        <ele>292.6</ele>
        <time>2022-05-24 11:16:45</time>
      </trkpt>
      <trkpt lat="41.05154" lon="0.86635">
        <ele>292.8</ele>
        <time>2022-05-24 11:16:46</time>
      </trkpt>
      <trkpt lat="41.05154" lon="0.86633">
        <ele>292.8</ele>
        <time>2022-05-24 11:16:47</time>
      </trkpt>
      <trkpt lat="41.05154" lon="0.86631">
        <ele>293</ele>
        <time>2022-05-24 11:16:48</time>
      </trkpt>
      <trkpt lat="41.05153" lon="0.86628">
        <ele>293.2</ele>
        <time>2022-05-24 11:16:49</time>
      </trkpt>
      <trkpt lat="41.05152" lon="0.86626">
        <ele>293.2</ele>
        <time>2022-05-24 11:16:50</time>
      </trkpt>
      <trkpt lat="41.05151" lon="0.86623">
        <ele>293.4</ele>
        <time>2022-05-24 11:16:51</time>
      </trkpt>
      <trkpt lat="41.05151" lon="0.86621">
        <ele>293.6</ele>
        <time>2022-05-24 11:16:52</time>
      </trkpt>
      <trkpt lat="41.0515" lon="0.86619">
        <ele>293.8</ele>
        <time>2022-05-24 11:16:53</time>
      </trkpt>
      <trkpt lat="41.05149" lon="0.86618">
        <ele>293.8</ele>
        <time>2022-05-24 11:16:54</time>
      </trkpt>
      <trkpt lat="41.05148" lon="0.86616">
        <ele>294</ele>
        <time>2022-05-24 11:16:55</time>
      </trkpt>
      <trkpt lat="41.05147" lon="0.86613">
        <ele>294.2</ele>
        <time>2022-05-24 11:16:56</time>
      </trkpt>
      <trkpt lat="41.05146" lon="0.86611">
        <ele>294.2</ele>
        <time>2022-05-24 11:16:57</time>
      </trkpt>
      <trkpt lat="41.05145" lon="0.86609">
        <ele>294.4</ele>
        <time>2022-05-24 11:16:58</time>
      </trkpt>
      <trkpt lat="41.05144" lon="0.86607">
        <ele>294.4</ele>
        <time>2022-05-24 11:16:59</time>
      </trkpt>
      <trkpt lat="41.05143" lon="0.86605">
        <ele>294.6</ele>
        <time>2022-05-24 11:17:00</time>
      </trkpt>
      <trkpt lat="41.05142" lon="0.86603">
        <ele>294.8</ele>
        <time>2022-05-24 11:17:01</time>
      </trkpt>
      <trkpt lat="41.05141" lon="0.86601">
        <ele>294.8</ele>
        <time>2022-05-24 11:17:02</time>
      </trkpt>
      <trkpt lat="41.05139" lon="0.86599">
        <ele>295</ele>
        <time>2022-05-24 11:17:03</time>
      </trkpt>
      <trkpt lat="41.05137" lon="0.86597">
        <ele>295.2</ele>
        <time>2022-05-24 11:17:04</time>
      </trkpt>
      <trkpt lat="41.05136" lon="0.86595">
        <ele>295.2</ele>
        <time>2022-05-24 11:17:05</time>
      </trkpt>
      <trkpt lat="41.05134" lon="0.86594">
        <ele>295.4</ele>
        <time>2022-05-24 11:17:06</time>
      </trkpt>
      <trkpt lat="41.05132" lon="0.86592">
        <ele>295.6</ele>
        <time>2022-05-24 11:17:07</time>
      </trkpt>
      <trkpt lat="41.05131" lon="0.86591">
        <ele>295.8</ele>
        <time>2022-05-24 11:17:08</time>
      </trkpt>
      <trkpt lat="41.05129" lon="0.8659">
        <ele>295.8</ele>
        <time>2022-05-24 11:17:09</time>
      </trkpt>
      <trkpt lat="41.05126" lon="0.8659">
        <ele>296</ele>
        <time>2022-05-24 11:17:10</time>
      </trkpt>
      <trkpt lat="41.05124" lon="0.86589">
        <ele>296.2</ele>
        <time>2022-05-24 11:17:11</time>
      </trkpt>
      <trkpt lat="41.05121" lon="0.86589">
        <ele>296.4</ele>
        <time>2022-05-24 11:17:12</time>
      </trkpt>
      <trkpt lat="41.05119" lon="0.86589">
        <ele>296.4</ele>
        <time>2022-05-24 11:17:13</time>
      </trkpt>
      <trkpt lat="41.05117" lon="0.86589">
        <ele>296.6</ele>
        <time>2022-05-24 11:17:14</time>
      </trkpt>
      <trkpt lat="41.05116" lon="0.86589">
        <ele>296.8</ele>
        <time>2022-05-24 11:17:15</time>
      </trkpt>
      <trkpt lat="41.05114" lon="0.86589">
        <ele>297</ele>
        <time>2022-05-24 11:17:16</time>
      </trkpt>
      <trkpt lat="41.05112" lon="0.86589">
        <ele>297</ele>
        <time>2022-05-24 11:17:17</time>
      </trkpt>
      <trkpt lat="41.0511" lon="0.86589">
        <ele>297.2</ele>
        <time>2022-05-24 11:17:18</time>
      </trkpt>
      <trkpt lat="41.05109" lon="0.86589">
        <ele>297.4</ele>
        <time>2022-05-24 11:17:19</time>
      </trkpt>
      <trkpt lat="41.05107" lon="0.8659">
        <ele>297.6</ele>
        <time>2022-05-24 11:17:20</time>
      </trkpt>
      <trkpt lat="41.05105" lon="0.8659">
        <ele>297.6</ele>
        <time>2022-05-24 11:17:21</time>
      </trkpt>
      <trkpt lat="41.05103" lon="0.86591">
        <ele>297.8</ele>
        <time>2022-05-24 11:17:22</time>
      </trkpt>
      <trkpt lat="41.05101" lon="0.86592">
        <ele>298</ele>
        <time>2022-05-24 11:17:23</time>
      </trkpt>
      <trkpt lat="41.05099" lon="0.86593">
        <ele>298</ele>
        <time>2022-05-24 11:17:24</time>
      </trkpt>
      <trkpt lat="41.05097" lon="0.86594">
        <ele>298.2</ele>
        <time>2022-05-24 11:17:25</time>
      </trkpt>
      <trkpt lat="41.05095" lon="0.86594">
        <ele>298.4</ele>
        <time>2022-05-24 11:17:26</time>
      </trkpt>
      <trkpt lat="41.05093" lon="0.86594">
        <ele>298.4</ele>
        <time>2022-05-24 11:17:27</time>
      </trkpt>
      <trkpt lat="41.05091" lon="0.86594">
        <ele>298.6</ele>
        <time>2022-05-24 11:17:28</time>
      </trkpt>
      <trkpt lat="41.05089" lon="0.86594">
        <ele>298.8</ele>
        <time>2022-05-24 11:17:29</time>
      </trkpt>
      <trkpt lat="41.05088" lon="0.86595">
        <ele>298.8</ele>
        <time>2022-05-24 11:17:30</time>
      </trkpt>
      <trkpt lat="41.05086" lon="0.86595">
        <ele>299</ele>
        <time>2022-05-24 11:17:31</time>
      </trkpt>
      <trkpt lat="41.05084" lon="0.86596">
        <ele>299</ele>
        <time>2022-05-24 11:17:32</time>
      </trkpt>
      <trkpt lat="41.05082" lon="0.86597">
        <ele>299.2</ele>
        <time>2022-05-24 11:17:33</time>
      </trkpt>
      <trkpt lat="41.05081" lon="0.86597">
        <ele>299.4</ele>
        <time>2022-05-24 11:17:34</time>
      </trkpt>
      <trkpt lat="41.05079" lon="0.86598">
        <ele>299.4</ele>
        <time>2022-05-24 11:17:35</time>
      </trkpt>
      <trkpt lat="41.05077" lon="0.86598">
        <ele>299.6</ele>
        <time>2022-05-24 11:17:36</time>
      </trkpt>
      <trkpt lat="41.05076" lon="0.86599">
        <ele>299.8</ele>
        <time>2022-05-24 11:17:37</time>
      </trkpt>
      <trkpt lat="41.05074" lon="0.86599">
        <ele>300</ele>
        <time>2022-05-24 11:17:38</time>
      </trkpt>
      <trkpt lat="41.05072" lon="0.866">
        <ele>300</ele>
        <time>2022-05-24 11:17:39</time>
      </trkpt>
      <trkpt lat="41.05071" lon="0.866">
        <ele>300.2</ele>
        <time>2022-05-24 11:17:40</time>
      </trkpt>
      <trkpt lat="41.05069" lon="0.866">
        <ele>300.4</ele>
        <time>2022-05-24 11:17:41</time>
      </trkpt>
      <trkpt lat="41.05067" lon="0.866">
        <ele>300.4</ele>
        <time>2022-05-24 11:17:42</time>
      </trkpt>
      <trkpt lat="41.05066" lon="0.866">
        <ele>300.6</ele>
        <time>2022-05-24 11:17:43</time>
      </trkpt>
      <trkpt lat="41.05064" lon="0.86601">
        <ele>300.8</ele>
        <time>2022-05-24 11:17:44</time>
      </trkpt>
      <trkpt lat="41.05062" lon="0.86601">
        <ele>300.8</ele>
        <time>2022-05-24 11:17:45</time>
      </trkpt>
      <trkpt lat="41.0506" lon="0.86602">
        <ele>301</ele>
        <time>2022-05-24 11:17:46</time>
      </trkpt>
      <trkpt lat="41.05058" lon="0.86602">
        <ele>301.2</ele>
        <time>2022-05-24 11:17:47</time>
      </trkpt>
      <trkpt lat="41.05056" lon="0.86602">
        <ele>301.4</ele>
        <time>2022-05-24 11:17:48</time>
      </trkpt>
      <trkpt lat="41.05055" lon="0.86602">
        <ele>301.4</ele>
        <time>2022-05-24 11:17:49</time>
      </trkpt>
      <trkpt lat="41.05053" lon="0.86602">
        <ele>301.6</ele>
        <time>2022-05-24 11:17:50</time>
      </trkpt>
      <trkpt lat="41.05052" lon="0.86601">
        <ele>301.8</ele>
        <time>2022-05-24 11:17:51</time>
      </trkpt>
      <trkpt lat="41.0505" lon="0.866">
        <ele>301.8</ele>
        <time>2022-05-24 11:17:52</time>
      </trkpt>
      <trkpt lat="41.05048" lon="0.866">
        <ele>302</ele>
        <time>2022-05-24 11:17:53</time>
      </trkpt>
      <trkpt lat="41.05046" lon="0.86599">
        <ele>302.2</ele>
        <time>2022-05-24 11:17:54</time>
      </trkpt>
      <trkpt lat="41.05044" lon="0.86599">
        <ele>302.2</ele>
        <time>2022-05-24 11:17:55</time>
      </trkpt>
      <trkpt lat="41.05043" lon="0.86599">
        <ele>302.4</ele>
        <time>2022-05-24 11:17:56</time>
      </trkpt>
      <trkpt lat="41.05041" lon="0.86598">
        <ele>302.6</ele>
        <time>2022-05-24 11:17:57</time>
      </trkpt>
      <trkpt lat="41.05039" lon="0.86597">
        <ele>302.8</ele>
        <time>2022-05-24 11:17:58</time>
      </trkpt>
      <trkpt lat="41.05037" lon="0.86596">
        <ele>302.8</ele>
        <time>2022-05-24 11:17:59</time>
      </trkpt>
      <trkpt lat="41.05036" lon="0.86594">
        <ele>303</ele>
        <time>2022-05-24 11:18:00</time>
      </trkpt>
      <trkpt lat="41.05034" lon="0.86594">
        <ele>303.2</ele>
        <time>2022-05-24 11:18:01</time>
      </trkpt>
      <trkpt lat="41.05033" lon="0.86593">
        <ele>303.4</ele>
        <time>2022-05-24 11:18:02</time>
      </trkpt>
      <trkpt lat="41.05031" lon="0.86592">
        <ele>303.4</ele>
        <time>2022-05-24 11:18:03</time>
      </trkpt>
      <trkpt lat="41.0503" lon="0.86591">
        <ele>303.6</ele>
        <time>2022-05-24 11:18:04</time>
      </trkpt>
      <trkpt lat="41.05028" lon="0.86591">
        <ele>303.8</ele>
        <time>2022-05-24 11:18:05</time>
      </trkpt>
      <trkpt lat="41.05027" lon="0.8659">
        <ele>303.8</ele>
        <time>2022-05-24 11:18:06</time>
      </trkpt>
      <trkpt lat="41.05026" lon="0.86589">
        <ele>304</ele>
        <time>2022-05-24 11:18:07</time>
      </trkpt>
      <trkpt lat="41.05024" lon="0.86588">
        <ele>304.2</ele>
        <time>2022-05-24 11:18:08</time>
      </trkpt>
      <trkpt lat="41.05023" lon="0.86587">
        <ele>304.2</ele>
        <time>2022-05-24 11:18:09</time>
      </trkpt>
      <trkpt lat="41.05022" lon="0.86585">
        <ele>304.4</ele>
        <time>2022-05-24 11:18:10</time>
      </trkpt>
      <trkpt lat="41.0502" lon="0.86584">
        <ele>304.6</ele>
        <time>2022-05-24 11:18:11</time>
      </trkpt>
      <trkpt lat="41.05019" lon="0.86582">
        <ele>304.8</ele>
        <time>2022-05-24 11:18:12</time>
      </trkpt>
      <trkpt lat="41.05017" lon="0.86581">
        <ele>304.8</ele>
        <time>2022-05-24 11:18:13</time>
      </trkpt>
      <trkpt lat="41.05015" lon="0.8658">
        <ele>305</ele>
        <time>2022-05-24 11:18:14</time>
      </trkpt>
      <trkpt lat="41.05013" lon="0.8658">
        <ele>305.2</ele>
        <time>2022-05-24 11:18:15</time>
      </trkpt>
      <trkpt lat="41.05011" lon="0.86579">
        <ele>305.2</ele>
        <time>2022-05-24 11:18:16</time>
      </trkpt>
      <trkpt lat="41.0501" lon="0.86578">
        <ele>305.4</ele>
        <time>2022-05-24 11:18:17</time>
      </trkpt>
      <trkpt lat="41.05008" lon="0.86577">
        <ele>305.6</ele>
        <time>2022-05-24 11:18:18</time>
      </trkpt>
      <trkpt lat="41.05007" lon="0.86576">
        <ele>305.6</ele>
        <time>2022-05-24 11:18:19</time>
      </trkpt>
      <trkpt lat="41.05005" lon="0.86575">
        <ele>305.8</ele>
        <time>2022-05-24 11:18:20</time>
      </trkpt>
      <trkpt lat="41.05004" lon="0.86574">
        <ele>305.8</ele>
        <time>2022-05-24 11:18:21</time>
      </trkpt>
      <trkpt lat="41.05002" lon="0.86573">
        <ele>306</ele>
        <time>2022-05-24 11:18:22</time>
      </trkpt>
      <trkpt lat="41.05" lon="0.86572">
        <ele>306</ele>
        <time>2022-05-24 11:18:23</time>
      </trkpt>
      <trkpt lat="41.04999" lon="0.86571">
        <ele>306.2</ele>
        <time>2022-05-24 11:18:24</time>
      </trkpt>
      <trkpt lat="41.04997" lon="0.8657">
        <ele>306.4</ele>
        <time>2022-05-24 11:18:25</time>
      </trkpt>
      <trkpt lat="41.04996" lon="0.86569">
        <ele>306.4</ele>
        <time>2022-05-24 11:18:26</time>
      </trkpt>
      <trkpt lat="41.04994" lon="0.86568">
        <ele>306.6</ele>
        <time>2022-05-24 11:18:27</time>
      </trkpt>
      <trkpt lat="41.04992" lon="0.86568">
        <ele>306.6</ele>
        <time>2022-05-24 11:18:28</time>
      </trkpt>
      <trkpt lat="41.04991" lon="0.86567">
        <ele>306.8</ele>
        <time>2022-05-24 11:18:29</time>
      </trkpt>
      <trkpt lat="41.04989" lon="0.86567">
        <ele>307</ele>
        <time>2022-05-24 11:18:30</time>
      </trkpt>
      <trkpt lat="41.04988" lon="0.86566">
        <ele>307</ele>
        <time>2022-05-24 11:18:31</time>
      </trkpt>
      <trkpt lat="41.04986" lon="0.86565">
        <ele>307.2</ele>
        <time>2022-05-24 11:18:32</time>
      </trkpt>
      <trkpt lat="41.04984" lon="0.86564">
        <ele>307.2</ele>
        <time>2022-05-24 11:18:33</time>
      </trkpt>
      <trkpt lat="41.04982" lon="0.86563">
        <ele>307.4</ele>
        <time>2022-05-24 11:18:34</time>
      </trkpt>
      <trkpt lat="41.0498" lon="0.86562">
        <ele>307.4</ele>
        <time>2022-05-24 11:18:35</time>
      </trkpt>
      <trkpt lat="41.04979" lon="0.86561">
        <ele>307.6</ele>
        <time>2022-05-24 11:18:36</time>
      </trkpt>
      <trkpt lat="41.04977" lon="0.86561">
        <ele>307.6</ele>
        <time>2022-05-24 11:18:37</time>
      </trkpt>
      <trkpt lat="41.04976" lon="0.8656">
        <ele>307.8</ele>
        <time>2022-05-24 11:18:38</time>
      </trkpt>
      <trkpt lat="41.04974" lon="0.86559">
        <ele>307.8</ele>
        <time>2022-05-24 11:18:39</time>
      </trkpt>
      <trkpt lat="41.04973" lon="0.86559">
        <ele>307.8</ele>
        <time>2022-05-24 11:18:40</time>
      </trkpt>
      <trkpt lat="41.04971" lon="0.86558">
        <ele>308</ele>
        <time>2022-05-24 11:18:41</time>
      </trkpt>
      <trkpt lat="41.0497" lon="0.86557">
        <ele>308.2</ele>
        <time>2022-05-24 11:18:42</time>
      </trkpt>
      <trkpt lat="41.04969" lon="0.86556">
        <ele>308.2</ele>
        <time>2022-05-24 11:18:43</time>
      </trkpt>
      <trkpt lat="41.04967" lon="0.86555">
        <ele>308.4</ele>
        <time>2022-05-24 11:18:44</time>
      </trkpt>
      <trkpt lat="41.04966" lon="0.86554">
        <ele>308.4</ele>
        <time>2022-05-24 11:18:45</time>
      </trkpt>
      <trkpt lat="41.04964" lon="0.86553">
        <ele>308.6</ele>
        <time>2022-05-24 11:18:46</time>
      </trkpt>
      <trkpt lat="41.04962" lon="0.86552">
        <ele>308.6</ele>
        <time>2022-05-24 11:18:47</time>
      </trkpt>
      <trkpt lat="41.04961" lon="0.86552">
        <ele>308.8</ele>
        <time>2022-05-24 11:18:48</time>
      </trkpt>
      <trkpt lat="41.0496" lon="0.86551">
        <ele>308.8</ele>
        <time>2022-05-24 11:18:49</time>
      </trkpt>
      <trkpt lat="41.04958" lon="0.8655">
        <ele>308.8</ele>
        <time>2022-05-24 11:18:50</time>
      </trkpt>
      <trkpt lat="41.04957" lon="0.86549">
        <ele>309</ele>
        <time>2022-05-24 11:18:51</time>
      </trkpt>
      <trkpt lat="41.04955" lon="0.86548">
        <ele>309</ele>
        <time>2022-05-24 11:18:52</time>
      </trkpt>
      <trkpt lat="41.04953" lon="0.86547">
        <ele>309.2</ele>
        <time>2022-05-24 11:18:53</time>
      </trkpt>
      <trkpt lat="41.04952" lon="0.86546">
        <ele>309.2</ele>
        <time>2022-05-24 11:18:54</time>
      </trkpt>
      <trkpt lat="41.04951" lon="0.86545">
        <ele>309.4</ele>
        <time>2022-05-24 11:18:55</time>
      </trkpt>
      <trkpt lat="41.04949" lon="0.86544">
        <ele>309.6</ele>
        <time>2022-05-24 11:18:56</time>
      </trkpt>
      <trkpt lat="41.04947" lon="0.86543">
        <ele>309.6</ele>
        <time>2022-05-24 11:18:57</time>
      </trkpt>
      <trkpt lat="41.04946" lon="0.86543">
        <ele>309.8</ele>
        <time>2022-05-24 11:18:58</time>
      </trkpt>
      <trkpt lat="41.04944" lon="0.86542">
        <ele>310</ele>
        <time>2022-05-24 11:18:59</time>
      </trkpt>
      <trkpt lat="41.04942" lon="0.86542">
        <ele>310</ele>
        <time>2022-05-24 11:19:00</time>
      </trkpt>
      <trkpt lat="41.04941" lon="0.86541">
        <ele>310.2</ele>
        <time>2022-05-24 11:19:01</time>
      </trkpt>
      <trkpt lat="41.0494" lon="0.8654">
        <ele>310.4</ele>
        <time>2022-05-24 11:19:02</time>
      </trkpt>
      <trkpt lat="41.04938" lon="0.86539">
        <ele>310.6</ele>
        <time>2022-05-24 11:19:03</time>
      </trkpt>
      <trkpt lat="41.04937" lon="0.86538">
        <ele>310.6</ele>
        <time>2022-05-24 11:19:04</time>
      </trkpt>
      <trkpt lat="41.04936" lon="0.86537">
        <ele>310.8</ele>
        <time>2022-05-24 11:19:05</time>
      </trkpt>
      <trkpt lat="41.04934" lon="0.86536">
        <ele>311</ele>
        <time>2022-05-24 11:19:06</time>
      </trkpt>
      <trkpt lat="41.04933" lon="0.86535">
        <ele>311.2</ele>
        <time>2022-05-24 11:19:07</time>
      </trkpt>
      <trkpt lat="41.04932" lon="0.86533">
        <ele>311.2</ele>
        <time>2022-05-24 11:19:08</time>
      </trkpt>
      <trkpt lat="41.04931" lon="0.86532">
        <ele>311.4</ele>
        <time>2022-05-24 11:19:09</time>
      </trkpt>
      <trkpt lat="41.04929" lon="0.86531">
        <ele>311.6</ele>
        <time>2022-05-24 11:19:10</time>
      </trkpt>
      <trkpt lat="41.04928" lon="0.86529">
        <ele>311.6</ele>
        <time>2022-05-24 11:19:11</time>
      </trkpt>
      <trkpt lat="41.04927" lon="0.86528">
        <ele>311.8</ele>
        <time>2022-05-24 11:19:12</time>
      </trkpt>
      <trkpt lat="41.04926" lon="0.86526">
        <ele>312</ele>
        <time>2022-05-24 11:19:13</time>
      </trkpt>
      <trkpt lat="41.04925" lon="0.86524">
        <ele>312</ele>
        <time>2022-05-24 11:19:14</time>
      </trkpt>
      <trkpt lat="41.04924" lon="0.86522">
        <ele>312.2</ele>
        <time>2022-05-24 11:19:15</time>
      </trkpt>
      <trkpt lat="41.04923" lon="0.86521">
        <ele>312.2</ele>
        <time>2022-05-24 11:19:16</time>
      </trkpt>
      <trkpt lat="41.04921" lon="0.86518">
        <ele>312.4</ele>
        <time>2022-05-24 11:19:17</time>
      </trkpt>
      <trkpt lat="41.0492" lon="0.86517">
        <ele>312.6</ele>
        <time>2022-05-24 11:19:18</time>
      </trkpt>
      <trkpt lat="41.04919" lon="0.86515">
        <ele>312.6</ele>
        <time>2022-05-24 11:19:19</time>
      </trkpt>
      <trkpt lat="41.04917" lon="0.86512">
        <ele>312.8</ele>
        <time>2022-05-24 11:19:20</time>
      </trkpt>
      <trkpt lat="41.04916" lon="0.86511">
        <ele>313</ele>
        <time>2022-05-24 11:19:21</time>
      </trkpt>
      <trkpt lat="41.04915" lon="0.86509">
        <ele>313.2</ele>
        <time>2022-05-24 11:19:22</time>
      </trkpt>
      <trkpt lat="41.04913" lon="0.86507">
        <ele>313.4</ele>
        <time>2022-05-24 11:19:23</time>
      </trkpt>
      <trkpt lat="41.04912" lon="0.86505">
        <ele>313.4</ele>
        <time>2022-05-24 11:19:24</time>
      </trkpt>
      <trkpt lat="41.04911" lon="0.86503">
        <ele>313.6</ele>
        <time>2022-05-24 11:19:25</time>
      </trkpt>
      <trkpt lat="41.0491" lon="0.86501">
        <ele>313.8</ele>
        <time>2022-05-24 11:19:26</time>
      </trkpt>
      <trkpt lat="41.04908" lon="0.86499">
        <ele>314</ele>
        <time>2022-05-24 11:19:27</time>
      </trkpt>
      <trkpt lat="41.04907" lon="0.86498">
        <ele>314</ele>
        <time>2022-05-24 11:19:28</time>
      </trkpt>
      <trkpt lat="41.04906" lon="0.86496">
        <ele>314.2</ele>
        <time>2022-05-24 11:19:29</time>
      </trkpt>
      <trkpt lat="41.04905" lon="0.86494">
        <ele>314.2</ele>
        <time>2022-05-24 11:19:30</time>
      </trkpt>
      <trkpt lat="41.04904" lon="0.86492">
        <ele>314.4</ele>
        <time>2022-05-24 11:19:31</time>
      </trkpt>
      <trkpt lat="41.04903" lon="0.8649">
        <ele>314.4</ele>
        <time>2022-05-24 11:19:32</time>
      </trkpt>
      <trkpt lat="41.04902" lon="0.86489">
        <ele>314.4</ele>
        <time>2022-05-24 11:19:33</time>
      </trkpt>
      <trkpt lat="41.049" lon="0.86487">
        <ele>314.4</ele>
        <time>2022-05-24 11:19:34</time>
      </trkpt>
      <trkpt lat="41.04899" lon="0.86485">
        <ele>314.6</ele>
        <time>2022-05-24 11:19:35</time>
      </trkpt>
      <trkpt lat="41.04898" lon="0.86483">
        <ele>314.6</ele>
        <time>2022-05-24 11:19:36</time>
      </trkpt>
      <trkpt lat="41.04896" lon="0.86481">
        <ele>314.6</ele>
        <time>2022-05-24 11:19:37</time>
      </trkpt>
      <trkpt lat="41.04895" lon="0.86479">
        <ele>314.8</ele>
        <time>2022-05-24 11:19:38</time>
      </trkpt>
      <trkpt lat="41.04894" lon="0.86477">
        <ele>314.8</ele>
        <time>2022-05-24 11:19:39</time>
      </trkpt>
      <trkpt lat="41.04893" lon="0.86474">
        <ele>314.8</ele>
        <time>2022-05-24 11:19:40</time>
      </trkpt>
      <trkpt lat="41.04892" lon="0.86471">
        <ele>314.8</ele>
        <time>2022-05-24 11:19:41</time>
      </trkpt>
      <trkpt lat="41.04892" lon="0.86467">
        <ele>314.8</ele>
        <time>2022-05-24 11:19:42</time>
      </trkpt>
      <trkpt lat="41.04891" lon="0.86464">
        <ele>314.8</ele>
        <time>2022-05-24 11:19:43</time>
      </trkpt>
      <trkpt lat="41.0489" lon="0.8646">
        <ele>314.8</ele>
        <time>2022-05-24 11:19:44</time>
      </trkpt>
      <trkpt lat="41.04889" lon="0.86457">
        <ele>314.8</ele>
        <time>2022-05-24 11:19:45</time>
      </trkpt>
      <trkpt lat="41.04888" lon="0.86453">
        <ele>314.8</ele>
        <time>2022-05-24 11:19:46</time>
      </trkpt>
      <trkpt lat="41.04887" lon="0.86448">
        <ele>314.6</ele>
        <time>2022-05-24 11:19:47</time>
      </trkpt>
      <trkpt lat="41.04887" lon="0.86444">
        <ele>314.4</ele>
        <time>2022-05-24 11:19:48</time>
      </trkpt>
      <trkpt lat="41.04886" lon="0.86441">
        <ele>314.2</ele>
        <time>2022-05-24 11:19:49</time>
      </trkpt>
      <trkpt lat="41.04884" lon="0.86434">
        <ele>314</ele>
        <time>2022-05-24 11:19:50</time>
      </trkpt>
      <trkpt lat="41.04883" lon="0.86428">
        <ele>313.8</ele>
        <time>2022-05-24 11:19:51</time>
      </trkpt>
      <trkpt lat="41.04881" lon="0.86422">
        <ele>313.6</ele>
        <time>2022-05-24 11:19:52</time>
      </trkpt>
      <trkpt lat="41.04879" lon="0.86415">
        <ele>313.4</ele>
        <time>2022-05-24 11:19:53</time>
      </trkpt>
      <trkpt lat="41.04877" lon="0.86408">
        <ele>313.2</ele>
        <time>2022-05-24 11:19:54</time>
      </trkpt>
      <trkpt lat="41.04876" lon="0.86401">
        <ele>312.8</ele>
        <time>2022-05-24 11:19:55</time>
      </trkpt>
      <trkpt lat="41.04874" lon="0.86394">
        <ele>312.6</ele>
        <time>2022-05-24 11:19:56</time>
      </trkpt>
      <trkpt lat="41.04873" lon="0.86386">
        <ele>312.4</ele>
        <time>2022-05-24 11:19:57</time>
      </trkpt>
      <trkpt lat="41.04871" lon="0.86378">
        <ele>312</ele>
        <time>2022-05-24 11:19:58</time>
      </trkpt>
      <trkpt lat="41.0487" lon="0.86368">
        <ele>311.8</ele>
        <time>2022-05-24 11:19:59</time>
      </trkpt>
      <trkpt lat="41.0487" lon="0.86359">
        <ele>311.4</ele>
        <time>2022-05-24 11:20:00</time>
      </trkpt>
      <trkpt lat="41.04872" lon="0.8635">
        <ele>311</ele>
        <time>2022-05-24 11:20:01</time>
      </trkpt>
      <trkpt lat="41.04875" lon="0.86341">
        <ele>310.6</ele>
        <time>2022-05-24 11:20:02</time>
      </trkpt>
      <trkpt lat="41.0488" lon="0.86333">
        <ele>310.4</ele>
        <time>2022-05-24 11:20:03</time>
      </trkpt>
      <trkpt lat="41.04884" lon="0.86325">
        <ele>310</ele>
        <time>2022-05-24 11:20:04</time>
      </trkpt>
      <trkpt lat="41.04887" lon="0.86315">
        <ele>309.6</ele>
        <time>2022-05-24 11:20:05</time>
      </trkpt>
      <trkpt lat="41.04889" lon="0.86305">
        <ele>309.2</ele>
        <time>2022-05-24 11:20:06</time>
      </trkpt>
      <trkpt lat="41.04887" lon="0.86294">
        <ele>308.8</ele>
        <time>2022-05-24 11:20:07</time>
      </trkpt>
      <trkpt lat="41.04884" lon="0.86286">
        <ele>308.2</ele>
        <time>2022-05-24 11:20:08</time>
      </trkpt>
      <trkpt lat="41.04878" lon="0.86277">
        <ele>307.6</ele>
        <time>2022-05-24 11:20:09</time>
      </trkpt>
      <trkpt lat="41.04873" lon="0.86269">
        <ele>307</ele>
        <time>2022-05-24 11:20:10</time>
      </trkpt>
      <trkpt lat="41.04865" lon="0.8626">
        <ele>306.6</ele>
        <time>2022-05-24 11:20:11</time>
      </trkpt>
      <trkpt lat="41.04859" lon="0.86254">
        <ele>306.2</ele>
        <time>2022-05-24 11:20:12</time>
      </trkpt>
      <trkpt lat="41.04852" lon="0.86246">
        <ele>305.8</ele>
        <time>2022-05-24 11:20:13</time>
      </trkpt>
      <trkpt lat="41.04847" lon="0.8624">
        <ele>305.4</ele>
        <time>2022-05-24 11:20:14</time>
      </trkpt>
      <trkpt lat="41.04839" lon="0.86232">
        <ele>305</ele>
        <time>2022-05-24 11:20:15</time>
      </trkpt>
      <trkpt lat="41.04834" lon="0.86225">
        <ele>304.8</ele>
        <time>2022-05-24 11:20:16</time>
      </trkpt>
      <trkpt lat="41.04828" lon="0.86216">
        <ele>304.6</ele>
        <time>2022-05-24 11:20:17</time>
      </trkpt>
      <trkpt lat="41.04823" lon="0.86208">
        <ele>304.2</ele>
        <time>2022-05-24 11:20:18</time>
      </trkpt>
      <trkpt lat="41.04818" lon="0.86198">
        <ele>303.8</ele>
        <time>2022-05-24 11:20:19</time>
      </trkpt>
      <trkpt lat="41.04815" lon="0.8619">
        <ele>303.4</ele>
        <time>2022-05-24 11:20:20</time>
      </trkpt>
      <trkpt lat="41.04812" lon="0.86178">
        <ele>303</ele>
        <time>2022-05-24 11:20:21</time>
      </trkpt>
      <trkpt lat="41.0481" lon="0.86168">
        <ele>302.6</ele>
        <time>2022-05-24 11:20:22</time>
      </trkpt>
      <trkpt lat="41.04809" lon="0.86156">
        <ele>302.2</ele>
        <time>2022-05-24 11:20:23</time>
      </trkpt>
      <trkpt lat="41.0481" lon="0.86147">
        <ele>301.8</ele>
        <time>2022-05-24 11:20:24</time>
      </trkpt>
      <trkpt lat="41.04811" lon="0.86134">
        <ele>301.4</ele>
        <time>2022-05-24 11:20:25</time>
      </trkpt>
      <trkpt lat="41.04812" lon="0.86124">
        <ele>300.8</ele>
        <time>2022-05-24 11:20:26</time>
      </trkpt>
      <trkpt lat="41.04814" lon="0.86112">
        <ele>300.4</ele>
        <time>2022-05-24 11:20:27</time>
      </trkpt>
      <trkpt lat="41.04816" lon="0.86102">
        <ele>300.2</ele>
        <time>2022-05-24 11:20:28</time>
      </trkpt>
      <trkpt lat="41.0482" lon="0.86089">
        <ele>299.4</ele>
        <time>2022-05-24 11:20:29</time>
      </trkpt>
      <trkpt lat="41.04823" lon="0.86081">
        <ele>298.8</ele>
        <time>2022-05-24 11:20:30</time>
      </trkpt>
      <trkpt lat="41.04829" lon="0.8607">
        <ele>298.2</ele>
        <time>2022-05-24 11:20:31</time>
      </trkpt>
      <trkpt lat="41.04834" lon="0.86061">
        <ele>298</ele>
        <time>2022-05-24 11:20:32</time>
      </trkpt>
      <trkpt lat="41.04841" lon="0.86053">
        <ele>297.6</ele>
        <time>2022-05-24 11:20:33</time>
      </trkpt>
      <trkpt lat="41.04849" lon="0.86046">
        <ele>297.4</ele>
        <time>2022-05-24 11:20:34</time>
      </trkpt>
      <trkpt lat="41.04855" lon="0.86042">
        <ele>297.2</ele>
        <time>2022-05-24 11:20:35</time>
      </trkpt>
      <trkpt lat="41.04864" lon="0.86037">
        <ele>296.8</ele>
        <time>2022-05-24 11:20:36</time>
      </trkpt>
      <trkpt lat="41.04872" lon="0.86033">
        <ele>296.4</ele>
        <time>2022-05-24 11:20:37</time>
      </trkpt>
      <trkpt lat="41.04881" lon="0.8603">
        <ele>296.2</ele>
        <time>2022-05-24 11:20:38</time>
      </trkpt>
      <trkpt lat="41.04887" lon="0.86028">
        <ele>295.8</ele>
        <time>2022-05-24 11:20:39</time>
      </trkpt>
      <trkpt lat="41.04896" lon="0.86028">
        <ele>295.4</ele>
        <time>2022-05-24 11:20:40</time>
      </trkpt>
      <trkpt lat="41.04903" lon="0.8603">
        <ele>295.2</ele>
        <time>2022-05-24 11:20:41</time>
      </trkpt>
      <trkpt lat="41.04913" lon="0.86032">
        <ele>295</ele>
        <time>2022-05-24 11:20:42</time>
      </trkpt>
      <trkpt lat="41.0492" lon="0.86033">
        <ele>295</ele>
        <time>2022-05-24 11:20:43</time>
      </trkpt>
      <trkpt lat="41.0493" lon="0.8603">
        <ele>294.8</ele>
        <time>2022-05-24 11:20:44</time>
      </trkpt>
      <trkpt lat="41.04935" lon="0.86026">
        <ele>294.6</ele>
        <time>2022-05-24 11:20:45</time>
      </trkpt>
      <trkpt lat="41.0494" lon="0.86016">
        <ele>294.4</ele>
        <time>2022-05-24 11:20:46</time>
      </trkpt>
      <trkpt lat="41.04941" lon="0.86009">
        <ele>294.4</ele>
        <time>2022-05-24 11:20:47</time>
      </trkpt>
      <trkpt lat="41.04939" lon="0.85999">
        <ele>294.4</ele>
        <time>2022-05-24 11:20:48</time>
      </trkpt>
      <trkpt lat="41.04933" lon="0.85993">
        <ele>294.4</ele>
        <time>2022-05-24 11:20:49</time>
      </trkpt>
      <trkpt lat="41.04927" lon="0.85988">
        <ele>294.2</ele>
        <time>2022-05-24 11:20:50</time>
      </trkpt>
      <trkpt lat="41.04922" lon="0.85985">
        <ele>294</ele>
        <time>2022-05-24 11:20:51</time>
      </trkpt>
      <trkpt lat="41.04915" lon="0.85982">
        <ele>293.8</ele>
        <time>2022-05-24 11:20:52</time>
      </trkpt>
      <trkpt lat="41.04908" lon="0.8598">
        <ele>293.6</ele>
        <time>2022-05-24 11:20:53</time>
      </trkpt>
      <trkpt lat="41.04901" lon="0.85977">
        <ele>293.4</ele>
        <time>2022-05-24 11:20:54</time>
      </trkpt>
      <trkpt lat="41.04893" lon="0.85974">
        <ele>293.2</ele>
        <time>2022-05-24 11:20:55</time>
      </trkpt>
      <trkpt lat="41.04884" lon="0.85971">
        <ele>293.2</ele>
        <time>2022-05-24 11:20:56</time>
      </trkpt>
      <trkpt lat="41.04877" lon="0.85968">
        <ele>293</ele>
        <time>2022-05-24 11:20:57</time>
      </trkpt>
      <trkpt lat="41.04868" lon="0.85964">
        <ele>292.8</ele>
        <time>2022-05-24 11:20:58</time>
      </trkpt>
      <trkpt lat="41.04861" lon="0.85961">
        <ele>292.4</ele>
        <time>2022-05-24 11:20:59</time>
      </trkpt>
      <trkpt lat="41.04852" lon="0.85958">
        <ele>292.2</ele>
        <time>2022-05-24 11:21:00</time>
      </trkpt>
      <trkpt lat="41.04846" lon="0.85956">
        <ele>292</ele>
        <time>2022-05-24 11:21:01</time>
      </trkpt>
      <trkpt lat="41.04837" lon="0.85954">
        <ele>291.8</ele>
        <time>2022-05-24 11:21:02</time>
      </trkpt>
      <trkpt lat="41.0483" lon="0.85952">
        <ele>291.6</ele>
        <time>2022-05-24 11:21:03</time>
      </trkpt>
      <trkpt lat="41.04821" lon="0.85952">
        <ele>291.4</ele>
        <time>2022-05-24 11:21:04</time>
      </trkpt>
      <trkpt lat="41.04814" lon="0.85952">
        <ele>291.2</ele>
        <time>2022-05-24 11:21:05</time>
      </trkpt>
      <trkpt lat="41.04805" lon="0.85952">
        <ele>290.8</ele>
        <time>2022-05-24 11:21:06</time>
      </trkpt>
      <trkpt lat="41.04799" lon="0.85952">
        <ele>290.6</ele>
        <time>2022-05-24 11:21:07</time>
      </trkpt>
      <trkpt lat="41.04791" lon="0.85953">
        <ele>290.4</ele>
        <time>2022-05-24 11:21:08</time>
      </trkpt>
      <trkpt lat="41.04784" lon="0.85953">
        <ele>290.2</ele>
        <time>2022-05-24 11:21:09</time>
      </trkpt>
      <trkpt lat="41.04775" lon="0.85954">
        <ele>290</ele>
        <time>2022-05-24 11:21:10</time>
      </trkpt>
      <trkpt lat="41.04769" lon="0.85955">
        <ele>289.8</ele>
        <time>2022-05-24 11:21:11</time>
      </trkpt>
      <trkpt lat="41.0476" lon="0.85956">
        <ele>289.6</ele>
        <time>2022-05-24 11:21:12</time>
      </trkpt>
      <trkpt lat="41.04754" lon="0.85957">
        <ele>289.4</ele>
        <time>2022-05-24 11:21:13</time>
      </trkpt>
      <trkpt lat="41.04746" lon="0.85958">
        <ele>289.2</ele>
        <time>2022-05-24 11:21:14</time>
      </trkpt>
      <trkpt lat="41.04739" lon="0.85958">
        <ele>289</ele>
        <time>2022-05-24 11:21:15</time>
      </trkpt>
      <trkpt lat="41.04731" lon="0.85959">
        <ele>288.6</ele>
        <time>2022-05-24 11:21:16</time>
      </trkpt>
      <trkpt lat="41.04724" lon="0.8596">
        <ele>288.4</ele>
        <time>2022-05-24 11:21:17</time>
      </trkpt>
      <trkpt lat="41.04715" lon="0.8596">
        <ele>288</ele>
        <time>2022-05-24 11:21:18</time>
      </trkpt>
      <trkpt lat="41.04708" lon="0.85959">
        <ele>287.4</ele>
        <time>2022-05-24 11:21:19</time>
      </trkpt>
      <trkpt lat="41.04699" lon="0.85956">
        <ele>287</ele>
        <time>2022-05-24 11:21:20</time>
      </trkpt>
      <trkpt lat="41.04693" lon="0.85953">
        <ele>286.4</ele>
        <time>2022-05-24 11:21:21</time>
      </trkpt>
      <trkpt lat="41.04684" lon="0.85948">
        <ele>286</ele>
        <time>2022-05-24 11:21:22</time>
      </trkpt>
      <trkpt lat="41.04679" lon="0.85944">
        <ele>285.6</ele>
        <time>2022-05-24 11:21:23</time>
      </trkpt>
      <trkpt lat="41.0467" lon="0.85937">
        <ele>285.2</ele>
        <time>2022-05-24 11:21:24</time>
      </trkpt>
      <trkpt lat="41.04664" lon="0.85933">
        <ele>285</ele>
        <time>2022-05-24 11:21:25</time>
      </trkpt>
      <trkpt lat="41.04656" lon="0.85927">
        <ele>284.6</ele>
        <time>2022-05-24 11:21:26</time>
      </trkpt>
      <trkpt lat="41.04651" lon="0.85923">
        <ele>284.4</ele>
        <time>2022-05-24 11:21:27</time>
      </trkpt>
      <trkpt lat="41.04642" lon="0.85917">
        <ele>284.2</ele>
        <time>2022-05-24 11:21:28</time>
      </trkpt>
      <trkpt lat="41.04637" lon="0.85913">
        <ele>284</ele>
        <time>2022-05-24 11:21:29</time>
      </trkpt>
      <trkpt lat="41.04629" lon="0.85907">
        <ele>283.8</ele>
        <time>2022-05-24 11:21:30</time>
      </trkpt>
      <trkpt lat="41.04624" lon="0.85904">
        <ele>283.8</ele>
        <time>2022-05-24 11:21:31</time>
      </trkpt>
      <trkpt lat="41.04618" lon="0.85899">
        <ele>283.8</ele>
        <time>2022-05-24 11:21:32</time>
      </trkpt>
      <trkpt lat="41.04613" lon="0.85895">
        <ele>283.8</ele>
        <time>2022-05-24 11:21:33</time>
      </trkpt>
      <trkpt lat="41.04607" lon="0.85891">
        <ele>283.8</ele>
        <time>2022-05-24 11:21:34</time>
      </trkpt>
      <trkpt lat="41.04602" lon="0.85888">
        <ele>283.8</ele>
        <time>2022-05-24 11:21:35</time>
      </trkpt>
      <trkpt lat="41.04596" lon="0.85885">
        <ele>283.8</ele>
        <time>2022-05-24 11:21:36</time>
      </trkpt>
      <trkpt lat="41.04591" lon="0.85883">
        <ele>284</ele>
        <time>2022-05-24 11:21:37</time>
      </trkpt>
      <trkpt lat="41.04585" lon="0.85882">
        <ele>284</ele>
        <time>2022-05-24 11:21:38</time>
      </trkpt>
      <trkpt lat="41.04581" lon="0.85881">
        <ele>284</ele>
        <time>2022-05-24 11:21:39</time>
      </trkpt>
      <trkpt lat="41.04574" lon="0.85881">
        <ele>284</ele>
        <time>2022-05-24 11:21:40</time>
      </trkpt>
      <trkpt lat="41.04569" lon="0.85881">
        <ele>284</ele>
        <time>2022-05-24 11:21:41</time>
      </trkpt>
      <trkpt lat="41.04564" lon="0.85881">
        <ele>284.2</ele>
        <time>2022-05-24 11:21:42</time>
      </trkpt>
      <trkpt lat="41.04559" lon="0.8588">
        <ele>284.2</ele>
        <time>2022-05-24 11:21:43</time>
      </trkpt>
      <trkpt lat="41.04553" lon="0.85878">
        <ele>284.4</ele>
        <time>2022-05-24 11:21:44</time>
      </trkpt>
      <trkpt lat="41.04549" lon="0.85876">
        <ele>284.4</ele>
        <time>2022-05-24 11:21:45</time>
      </trkpt>
      <trkpt lat="41.04544" lon="0.85873">
        <ele>284.6</ele>
        <time>2022-05-24 11:21:46</time>
      </trkpt>
      <trkpt lat="41.0454" lon="0.8587">
        <ele>284.6</ele>
        <time>2022-05-24 11:21:47</time>
      </trkpt>
      <trkpt lat="41.04535" lon="0.85865">
        <ele>284.6</ele>
        <time>2022-05-24 11:21:48</time>
      </trkpt>
      <trkpt lat="41.04532" lon="0.8586">
        <ele>284.6</ele>
        <time>2022-05-24 11:21:49</time>
      </trkpt>
      <trkpt lat="41.04529" lon="0.85854">
        <ele>284.6</ele>
        <time>2022-05-24 11:21:50</time>
      </trkpt>
      <trkpt lat="41.04526" lon="0.85848">
        <ele>284.6</ele>
        <time>2022-05-24 11:21:51</time>
      </trkpt>
      <trkpt lat="41.04523" lon="0.85841">
        <ele>284.4</ele>
        <time>2022-05-24 11:21:52</time>
      </trkpt>
      <trkpt lat="41.04521" lon="0.85836">
        <ele>284.4</ele>
        <time>2022-05-24 11:21:53</time>
      </trkpt>
      <trkpt lat="41.04518" lon="0.85829">
        <ele>284.4</ele>
        <time>2022-05-24 11:21:54</time>
      </trkpt>
      <trkpt lat="41.04516" lon="0.85823">
        <ele>284.4</ele>
        <time>2022-05-24 11:21:55</time>
      </trkpt>
      <trkpt lat="41.04513" lon="0.85817">
        <ele>284.2</ele>
        <time>2022-05-24 11:21:56</time>
      </trkpt>
      <trkpt lat="41.04511" lon="0.85811">
        <ele>284.2</ele>
        <time>2022-05-24 11:21:57</time>
      </trkpt>
      <trkpt lat="41.04509" lon="0.85804">
        <ele>284.2</ele>
        <time>2022-05-24 11:21:58</time>
      </trkpt>
      <trkpt lat="41.04507" lon="0.85799">
        <ele>284.2</ele>
        <time>2022-05-24 11:21:59</time>
      </trkpt>
      <trkpt lat="41.04505" lon="0.85791">
        <ele>284.2</ele>
        <time>2022-05-24 11:22:00</time>
      </trkpt>
      <trkpt lat="41.04504" lon="0.85786">
        <ele>284.2</ele>
        <time>2022-05-24 11:22:01</time>
      </trkpt>
      <trkpt lat="41.04504" lon="0.85779">
        <ele>284.2</ele>
        <time>2022-05-24 11:22:02</time>
      </trkpt>
      <trkpt lat="41.04503" lon="0.85773">
        <ele>284.2</ele>
        <time>2022-05-24 11:22:03</time>
      </trkpt>
      <trkpt lat="41.04502" lon="0.85766">
        <ele>284.2</ele>
        <time>2022-05-24 11:22:04</time>
      </trkpt>
      <trkpt lat="41.04502" lon="0.8576">
        <ele>284.2</ele>
        <time>2022-05-24 11:22:05</time>
      </trkpt>
      <trkpt lat="41.04502" lon="0.85753">
        <ele>284.2</ele>
        <time>2022-05-24 11:22:06</time>
      </trkpt>
      <trkpt lat="41.04501" lon="0.85747">
        <ele>284.2</ele>
        <time>2022-05-24 11:22:07</time>
      </trkpt>
      <trkpt lat="41.045" lon="0.8574">
        <ele>284.2</ele>
        <time>2022-05-24 11:22:08</time>
      </trkpt>
      <trkpt lat="41.045" lon="0.85734">
        <ele>284.2</ele>
        <time>2022-05-24 11:22:09</time>
      </trkpt>
      <trkpt lat="41.045" lon="0.85727">
        <ele>284.2</ele>
        <time>2022-05-24 11:22:10</time>
      </trkpt>
      <trkpt lat="41.04499" lon="0.85721">
        <ele>284.2</ele>
        <time>2022-05-24 11:22:11</time>
      </trkpt>
      <trkpt lat="41.04499" lon="0.85715">
        <ele>284.2</ele>
        <time>2022-05-24 11:22:12</time>
      </trkpt>
      <trkpt lat="41.04499" lon="0.85708">
        <ele>284.4</ele>
        <time>2022-05-24 11:22:13</time>
      </trkpt>
      <trkpt lat="41.04498" lon="0.85702">
        <ele>284.4</ele>
        <time>2022-05-24 11:22:14</time>
      </trkpt>
      <trkpt lat="41.04496" lon="0.85696">
        <ele>284.4</ele>
        <time>2022-05-24 11:22:15</time>
      </trkpt>
      <trkpt lat="41.04495" lon="0.8569">
        <ele>284.4</ele>
        <time>2022-05-24 11:22:16</time>
      </trkpt>
      <trkpt lat="41.04492" lon="0.85683">
        <ele>284.4</ele>
        <time>2022-05-24 11:22:17</time>
      </trkpt>
      <trkpt lat="41.04488" lon="0.85679">
        <ele>284.6</ele>
        <time>2022-05-24 11:22:18</time>
      </trkpt>
      <trkpt lat="41.04485" lon="0.85675">
        <ele>284.6</ele>
        <time>2022-05-24 11:22:19</time>
      </trkpt>
      <trkpt lat="41.04481" lon="0.85672">
        <ele>284.6</ele>
        <time>2022-05-24 11:22:20</time>
      </trkpt>
      <trkpt lat="41.04477" lon="0.85669">
        <ele>284.6</ele>
        <time>2022-05-24 11:22:21</time>
      </trkpt>
      <trkpt lat="41.04473" lon="0.85667">
        <ele>284.8</ele>
        <time>2022-05-24 11:22:22</time>
      </trkpt>
      <trkpt lat="41.04471" lon="0.85665">
        <ele>284.8</ele>
        <time>2022-05-24 11:22:23</time>
      </trkpt>
      <trkpt lat="41.04467" lon="0.85662">
        <ele>284.8</ele>
        <time>2022-05-24 11:22:24</time>
      </trkpt>
      <trkpt lat="41.04463" lon="0.8566">
        <ele>285</ele>
        <time>2022-05-24 11:22:25</time>
      </trkpt>
      <trkpt lat="41.0446" lon="0.85659">
        <ele>285</ele>
        <time>2022-05-24 11:22:26</time>
      </trkpt>
      <trkpt lat="41.04456" lon="0.85656">
        <ele>285.2</ele>
        <time>2022-05-24 11:22:27</time>
      </trkpt>
      <trkpt lat="41.04452" lon="0.85655">
        <ele>285.2</ele>
        <time>2022-05-24 11:22:28</time>
      </trkpt>
      <trkpt lat="41.04448" lon="0.85653">
        <ele>285.4</ele>
        <time>2022-05-24 11:22:29</time>
      </trkpt>
      <trkpt lat="41.04445" lon="0.85651">
        <ele>285.4</ele>
        <time>2022-05-24 11:22:30</time>
      </trkpt>
      <trkpt lat="41.04441" lon="0.85649">
        <ele>285.6</ele>
        <time>2022-05-24 11:22:31</time>
      </trkpt>
      <trkpt lat="41.04438" lon="0.85647">
        <ele>285.6</ele>
        <time>2022-05-24 11:22:32</time>
      </trkpt>
      <trkpt lat="41.04436" lon="0.85646">
        <ele>285.8</ele>
        <time>2022-05-24 11:22:33</time>
      </trkpt>
      <trkpt lat="41.04433" lon="0.85644">
        <ele>285.8</ele>
        <time>2022-05-24 11:22:34</time>
      </trkpt>
      <trkpt lat="41.0443" lon="0.85643">
        <ele>285.8</ele>
        <time>2022-05-24 11:22:35</time>
      </trkpt>
      <trkpt lat="41.04427" lon="0.8564">
        <ele>286</ele>
        <time>2022-05-24 11:22:36</time>
      </trkpt>
      <trkpt lat="41.04424" lon="0.85638">
        <ele>286</ele>
        <time>2022-05-24 11:22:37</time>
      </trkpt>
      <trkpt lat="41.04421" lon="0.85636">
        <ele>286.2</ele>
        <time>2022-05-24 11:22:38</time>
      </trkpt>
      <trkpt lat="41.04418" lon="0.85635">
        <ele>286.2</ele>
        <time>2022-05-24 11:22:39</time>
      </trkpt>
      <trkpt lat="41.04415" lon="0.85633">
        <ele>286.4</ele>
        <time>2022-05-24 11:22:40</time>
      </trkpt>
      <trkpt lat="41.04412" lon="0.85631">
        <ele>286.4</ele>
        <time>2022-05-24 11:22:41</time>
      </trkpt>
      <trkpt lat="41.04409" lon="0.85628">
        <ele>286.4</ele>
        <time>2022-05-24 11:22:42</time>
      </trkpt>
      <trkpt lat="41.04406" lon="0.85626">
        <ele>286.6</ele>
        <time>2022-05-24 11:22:43</time>
      </trkpt>
      <trkpt lat="41.04403" lon="0.85624">
        <ele>286.6</ele>
        <time>2022-05-24 11:22:44</time>
      </trkpt>
      <trkpt lat="41.044" lon="0.85622">
        <ele>286.8</ele>
        <time>2022-05-24 11:22:45</time>
      </trkpt>
      <trkpt lat="41.04396" lon="0.8562">
        <ele>286.8</ele>
        <time>2022-05-24 11:22:46</time>
      </trkpt>
      <trkpt lat="41.04393" lon="0.85618">
        <ele>287</ele>
        <time>2022-05-24 11:22:47</time>
      </trkpt>
      <trkpt lat="41.0439" lon="0.85615">
        <ele>287</ele>
        <time>2022-05-24 11:22:48</time>
      </trkpt>
      <trkpt lat="41.04387" lon="0.85613">
        <ele>287.2</ele>
        <time>2022-05-24 11:22:49</time>
      </trkpt>
      <trkpt lat="41.04383" lon="0.8561">
        <ele>287.2</ele>
        <time>2022-05-24 11:22:50</time>
      </trkpt>
      <trkpt lat="41.0438" lon="0.85607">
        <ele>287.2</ele>
        <time>2022-05-24 11:22:51</time>
      </trkpt>
      <trkpt lat="41.04377" lon="0.85603">
        <ele>287.4</ele>
        <time>2022-05-24 11:22:52</time>
      </trkpt>
      <trkpt lat="41.04373" lon="0.856">
        <ele>287.4</ele>
        <time>2022-05-24 11:22:53</time>
      </trkpt>
      <trkpt lat="41.0437" lon="0.85596">
        <ele>287.4</ele>
        <time>2022-05-24 11:22:54</time>
      </trkpt>
      <trkpt lat="41.04366" lon="0.85592">
        <ele>287.6</ele>
        <time>2022-05-24 11:22:55</time>
      </trkpt>
      <trkpt lat="41.04363" lon="0.85588">
        <ele>287.6</ele>
        <time>2022-05-24 11:22:56</time>
      </trkpt>
      <trkpt lat="41.0436" lon="0.85584">
        <ele>287.6</ele>
        <time>2022-05-24 11:22:57</time>
      </trkpt>
      <trkpt lat="41.04357" lon="0.85579">
        <ele>287.6</ele>
        <time>2022-05-24 11:22:58</time>
      </trkpt>
      <trkpt lat="41.04354" lon="0.85575">
        <ele>287.8</ele>
        <time>2022-05-24 11:22:59</time>
      </trkpt>
      <trkpt lat="41.04352" lon="0.85571">
        <ele>287.8</ele>
        <time>2022-05-24 11:23:00</time>
      </trkpt>
      <trkpt lat="41.0435" lon="0.85567">
        <ele>287.8</ele>
        <time>2022-05-24 11:23:01</time>
      </trkpt>
      <trkpt lat="41.04347" lon="0.85563">
        <ele>288</ele>
        <time>2022-05-24 11:23:02</time>
      </trkpt>
      <trkpt lat="41.04345" lon="0.8556">
        <ele>288</ele>
        <time>2022-05-24 11:23:03</time>
      </trkpt>
      <trkpt lat="41.04343" lon="0.85556">
        <ele>288.2</ele>
        <time>2022-05-24 11:23:04</time>
      </trkpt>
      <trkpt lat="41.0434" lon="0.85553">
        <ele>288.2</ele>
        <time>2022-05-24 11:23:05</time>
      </trkpt>
      <trkpt lat="41.04338" lon="0.85549">
        <ele>288.4</ele>
        <time>2022-05-24 11:23:06</time>
      </trkpt>
      <trkpt lat="41.04336" lon="0.85546">
        <ele>288.4</ele>
        <time>2022-05-24 11:23:07</time>
      </trkpt>
      <trkpt lat="41.04334" lon="0.85543">
        <ele>288.4</ele>
        <time>2022-05-24 11:23:08</time>
      </trkpt>
      <trkpt lat="41.04332" lon="0.85539">
        <ele>288.6</ele>
        <time>2022-05-24 11:23:09</time>
      </trkpt>
      <trkpt lat="41.04329" lon="0.85536">
        <ele>288.6</ele>
        <time>2022-05-24 11:23:10</time>
      </trkpt>
      <trkpt lat="41.04327" lon="0.85532">
        <ele>288.8</ele>
        <time>2022-05-24 11:23:11</time>
      </trkpt>
      <trkpt lat="41.04324" lon="0.85529">
        <ele>288.8</ele>
        <time>2022-05-24 11:23:12</time>
      </trkpt>
      <trkpt lat="41.04321" lon="0.85526">
        <ele>288.8</ele>
        <time>2022-05-24 11:23:13</time>
      </trkpt>
      <trkpt lat="41.04318" lon="0.85523">
        <ele>288.8</ele>
        <time>2022-05-24 11:23:14</time>
      </trkpt>
      <trkpt lat="41.04316" lon="0.85521">
        <ele>288.8</ele>
        <time>2022-05-24 11:23:15</time>
      </trkpt>
      <trkpt lat="41.04313" lon="0.85518">
        <ele>289</ele>
        <time>2022-05-24 11:23:16</time>
      </trkpt>
      <trkpt lat="41.0431" lon="0.85516">
        <ele>289</ele>
        <time>2022-05-24 11:23:17</time>
      </trkpt>
      <trkpt lat="41.04307" lon="0.85514">
        <ele>289</ele>
        <time>2022-05-24 11:23:18</time>
      </trkpt>
      <trkpt lat="41.04304" lon="0.85512">
        <ele>289.2</ele>
        <time>2022-05-24 11:23:19</time>
      </trkpt>
      <trkpt lat="41.04301" lon="0.8551">
        <ele>289.4</ele>
        <time>2022-05-24 11:23:20</time>
      </trkpt>
      <trkpt lat="41.04298" lon="0.85508">
        <ele>289.4</ele>
        <time>2022-05-24 11:23:21</time>
      </trkpt>
      <trkpt lat="41.04295" lon="0.85506">
        <ele>289.6</ele>
        <time>2022-05-24 11:23:22</time>
      </trkpt>
      <trkpt lat="41.04292" lon="0.85504">
        <ele>289.6</ele>
        <time>2022-05-24 11:23:23</time>
      </trkpt>
      <trkpt lat="41.04289" lon="0.85503">
        <ele>289.8</ele>
        <time>2022-05-24 11:23:24</time>
      </trkpt>
      <trkpt lat="41.04286" lon="0.85501">
        <ele>290</ele>
        <time>2022-05-24 11:23:25</time>
      </trkpt>
      <trkpt lat="41.04283" lon="0.855">
        <ele>290</ele>
        <time>2022-05-24 11:23:26</time>
      </trkpt>
      <trkpt lat="41.0428" lon="0.85499">
        <ele>290.2</ele>
        <time>2022-05-24 11:23:27</time>
      </trkpt>
      <trkpt lat="41.04278" lon="0.85497">
        <ele>290.4</ele>
        <time>2022-05-24 11:23:28</time>
      </trkpt>
      <trkpt lat="41.04276" lon="0.85495">
        <ele>290.4</ele>
        <time>2022-05-24 11:23:29</time>
      </trkpt>
      <trkpt lat="41.04273" lon="0.85494">
        <ele>290.6</ele>
        <time>2022-05-24 11:23:30</time>
      </trkpt>
      <trkpt lat="41.0427" lon="0.85492">
        <ele>290.6</ele>
        <time>2022-05-24 11:23:31</time>
      </trkpt>
      <trkpt lat="41.04268" lon="0.85491">
        <ele>290.6</ele>
        <time>2022-05-24 11:23:32</time>
      </trkpt>
      <trkpt lat="41.04265" lon="0.85489">
        <ele>290.8</ele>
        <time>2022-05-24 11:23:33</time>
      </trkpt>
      <trkpt lat="41.04263" lon="0.85487">
        <ele>290.8</ele>
        <time>2022-05-24 11:23:34</time>
      </trkpt>
      <trkpt lat="41.0426" lon="0.85486">
        <ele>291</ele>
        <time>2022-05-24 11:23:35</time>
      </trkpt>
      <trkpt lat="41.04257" lon="0.85484">
        <ele>291.2</ele>
        <time>2022-05-24 11:23:36</time>
      </trkpt>
      <trkpt lat="41.04254" lon="0.85484">
        <ele>291.2</ele>
        <time>2022-05-24 11:23:37</time>
      </trkpt>
      <trkpt lat="41.04251" lon="0.85482">
        <ele>291.2</ele>
        <time>2022-05-24 11:23:38</time>
      </trkpt>
      <trkpt lat="41.04248" lon="0.8548">
        <ele>291.4</ele>
        <time>2022-05-24 11:23:39</time>
      </trkpt>
      <trkpt lat="41.04245" lon="0.85479">
        <ele>291.4</ele>
        <time>2022-05-24 11:23:40</time>
      </trkpt>
      <trkpt lat="41.04243" lon="0.85477">
        <ele>291.6</ele>
        <time>2022-05-24 11:23:41</time>
      </trkpt>
      <trkpt lat="41.0424" lon="0.85475">
        <ele>291.8</ele>
        <time>2022-05-24 11:23:42</time>
      </trkpt>
      <trkpt lat="41.04239" lon="0.85473">
        <ele>291.8</ele>
        <time>2022-05-24 11:23:43</time>
      </trkpt>
      <trkpt lat="41.04236" lon="0.85472">
        <ele>292</ele>
        <time>2022-05-24 11:23:44</time>
      </trkpt>
      <trkpt lat="41.04233" lon="0.85471">
        <ele>292.2</ele>
        <time>2022-05-24 11:23:45</time>
      </trkpt>
      <trkpt lat="41.04231" lon="0.85471">
        <ele>292.2</ele>
        <time>2022-05-24 11:23:46</time>
      </trkpt>
      <trkpt lat="41.04228" lon="0.85469">
        <ele>292.4</ele>
        <time>2022-05-24 11:23:47</time>
      </trkpt>
      <trkpt lat="41.04226" lon="0.85468">
        <ele>292.6</ele>
        <time>2022-05-24 11:23:48</time>
      </trkpt>
      <trkpt lat="41.04223" lon="0.85467">
        <ele>292.6</ele>
        <time>2022-05-24 11:23:49</time>
      </trkpt>
      <trkpt lat="41.04221" lon="0.85465">
        <ele>292.8</ele>
        <time>2022-05-24 11:23:50</time>
      </trkpt>
      <trkpt lat="41.04219" lon="0.85463">
        <ele>293</ele>
        <time>2022-05-24 11:23:51</time>
      </trkpt>
      <trkpt lat="41.04216" lon="0.85461">
        <ele>293</ele>
        <time>2022-05-24 11:23:52</time>
      </trkpt>
      <trkpt lat="41.04215" lon="0.85459">
        <ele>293.2</ele>
        <time>2022-05-24 11:23:53</time>
      </trkpt>
      <trkpt lat="41.04212" lon="0.85457">
        <ele>293.4</ele>
        <time>2022-05-24 11:23:54</time>
      </trkpt>
      <trkpt lat="41.0421" lon="0.85454">
        <ele>293.4</ele>
        <time>2022-05-24 11:23:55</time>
      </trkpt>
      <trkpt lat="41.04208" lon="0.85452">
        <ele>293.6</ele>
        <time>2022-05-24 11:23:56</time>
      </trkpt>
      <trkpt lat="41.04206" lon="0.8545">
        <ele>293.6</ele>
        <time>2022-05-24 11:23:57</time>
      </trkpt>
      <trkpt lat="41.04204" lon="0.85448">
        <ele>293.8</ele>
        <time>2022-05-24 11:23:58</time>
      </trkpt>
      <trkpt lat="41.04202" lon="0.85446">
        <ele>293.8</ele>
        <time>2022-05-24 11:23:59</time>
      </trkpt>
      <trkpt lat="41.042" lon="0.85443">
        <ele>294</ele>
        <time>2022-05-24 11:24:00</time>
      </trkpt>
      <trkpt lat="41.04198" lon="0.85441">
        <ele>294.2</ele>
        <time>2022-05-24 11:24:01</time>
      </trkpt>
      <trkpt lat="41.04195" lon="0.85439">
        <ele>294.2</ele>
        <time>2022-05-24 11:24:02</time>
      </trkpt>
      <trkpt lat="41.04194" lon="0.85437">
        <ele>294.4</ele>
        <time>2022-05-24 11:24:03</time>
      </trkpt>
      <trkpt lat="41.04192" lon="0.85435">
        <ele>294.4</ele>
        <time>2022-05-24 11:24:04</time>
      </trkpt>
      <trkpt lat="41.0419" lon="0.85433">
        <ele>294.6</ele>
        <time>2022-05-24 11:24:05</time>
      </trkpt>
      <trkpt lat="41.04188" lon="0.85431">
        <ele>294.6</ele>
        <time>2022-05-24 11:24:06</time>
      </trkpt>
      <trkpt lat="41.04186" lon="0.85429">
        <ele>294.8</ele>
        <time>2022-05-24 11:24:07</time>
      </trkpt>
      <trkpt lat="41.04184" lon="0.85428">
        <ele>294.8</ele>
        <time>2022-05-24 11:24:08</time>
      </trkpt>
      <trkpt lat="41.04182" lon="0.85426">
        <ele>295</ele>
        <time>2022-05-24 11:24:09</time>
      </trkpt>
      <trkpt lat="41.0418" lon="0.85424">
        <ele>295</ele>
        <time>2022-05-24 11:24:10</time>
      </trkpt>
      <trkpt lat="41.04178" lon="0.85423">
        <ele>295.2</ele>
        <time>2022-05-24 11:24:11</time>
      </trkpt>
      <trkpt lat="41.04176" lon="0.85421">
        <ele>295.2</ele>
        <time>2022-05-24 11:24:12</time>
      </trkpt>
      <trkpt lat="41.04174" lon="0.85419">
        <ele>295.4</ele>
        <time>2022-05-24 11:24:13</time>
      </trkpt>
      <trkpt lat="41.04172" lon="0.85417">
        <ele>295.4</ele>
        <time>2022-05-24 11:24:14</time>
      </trkpt>
      <trkpt lat="41.0417" lon="0.85415">
        <ele>295.6</ele>
        <time>2022-05-24 11:24:15</time>
      </trkpt>
      <trkpt lat="41.04169" lon="0.85412">
        <ele>295.8</ele>
        <time>2022-05-24 11:24:16</time>
      </trkpt>
      <trkpt lat="41.04167" lon="0.8541">
        <ele>295.8</ele>
        <time>2022-05-24 11:24:17</time>
      </trkpt>
      <trkpt lat="41.04166" lon="0.85408">
        <ele>296</ele>
        <time>2022-05-24 11:24:18</time>
      </trkpt>
      <trkpt lat="41.04165" lon="0.85405">
        <ele>296.2</ele>
        <time>2022-05-24 11:24:19</time>
      </trkpt>
      <trkpt lat="41.04164" lon="0.85402">
        <ele>296.2</ele>
        <time>2022-05-24 11:24:20</time>
      </trkpt>
      <trkpt lat="41.04163" lon="0.85399">
        <ele>296.4</ele>
        <time>2022-05-24 11:24:21</time>
      </trkpt>
      <trkpt lat="41.04162" lon="0.85396">
        <ele>296.6</ele>
        <time>2022-05-24 11:24:22</time>
      </trkpt>
      <trkpt lat="41.04161" lon="0.85392">
        <ele>296.6</ele>
        <time>2022-05-24 11:24:23</time>
      </trkpt>
      <trkpt lat="41.04161" lon="0.85389">
        <ele>296.8</ele>
        <time>2022-05-24 11:24:24</time>
      </trkpt>
      <trkpt lat="41.04161" lon="0.85385">
        <ele>296.8</ele>
        <time>2022-05-24 11:24:25</time>
      </trkpt>
      <trkpt lat="41.04161" lon="0.85381">
        <ele>297</ele>
        <time>2022-05-24 11:24:26</time>
      </trkpt>
      <trkpt lat="41.04161" lon="0.85378">
        <ele>297</ele>
        <time>2022-05-24 11:24:27</time>
      </trkpt>
      <trkpt lat="41.04161" lon="0.85374">
        <ele>297.2</ele>
        <time>2022-05-24 11:24:28</time>
      </trkpt>
      <trkpt lat="41.04161" lon="0.85371">
        <ele>297.2</ele>
        <time>2022-05-24 11:24:29</time>
      </trkpt>
      <trkpt lat="41.04162" lon="0.85368">
        <ele>297.4</ele>
        <time>2022-05-24 11:24:30</time>
      </trkpt>
      <trkpt lat="41.04163" lon="0.85365">
        <ele>297.4</ele>
        <time>2022-05-24 11:24:31</time>
      </trkpt>
      <trkpt lat="41.04163" lon="0.85361">
        <ele>297.6</ele>
        <time>2022-05-24 11:24:32</time>
      </trkpt>
      <trkpt lat="41.04164" lon="0.85358">
        <ele>297.6</ele>
        <time>2022-05-24 11:24:33</time>
      </trkpt>
      <trkpt lat="41.04164" lon="0.85354">
        <ele>297.6</ele>
        <time>2022-05-24 11:24:34</time>
      </trkpt>
      <trkpt lat="41.04164" lon="0.85351">
        <ele>297.6</ele>
        <time>2022-05-24 11:24:35</time>
      </trkpt>
      <trkpt lat="41.04164" lon="0.85348">
        <ele>297.8</ele>
        <time>2022-05-24 11:24:36</time>
      </trkpt>
      <trkpt lat="41.04164" lon="0.85345">
        <ele>297.8</ele>
        <time>2022-05-24 11:24:37</time>
      </trkpt>
      <trkpt lat="41.04163" lon="0.85341">
        <ele>297.8</ele>
        <time>2022-05-24 11:24:38</time>
      </trkpt>
      <trkpt lat="41.04163" lon="0.85338">
        <ele>297.8</ele>
        <time>2022-05-24 11:24:39</time>
      </trkpt>
      <trkpt lat="41.04162" lon="0.85334">
        <ele>298</ele>
        <time>2022-05-24 11:24:40</time>
      </trkpt>
      <trkpt lat="41.04161" lon="0.85331">
        <ele>298</ele>
        <time>2022-05-24 11:24:41</time>
      </trkpt>
      <trkpt lat="41.0416" lon="0.85327">
        <ele>298.2</ele>
        <time>2022-05-24 11:24:42</time>
      </trkpt>
      <trkpt lat="41.04159" lon="0.85324">
        <ele>298.2</ele>
        <time>2022-05-24 11:24:43</time>
      </trkpt>
      <trkpt lat="41.04158" lon="0.85321">
        <ele>298.4</ele>
        <time>2022-05-24 11:24:44</time>
      </trkpt>
      <trkpt lat="41.04158" lon="0.85318">
        <ele>298.4</ele>
        <time>2022-05-24 11:24:45</time>
      </trkpt>
      <trkpt lat="41.04157" lon="0.85315">
        <ele>298.6</ele>
        <time>2022-05-24 11:24:46</time>
      </trkpt>
      <trkpt lat="41.04156" lon="0.85312">
        <ele>298.6</ele>
        <time>2022-05-24 11:24:47</time>
      </trkpt>
      <trkpt lat="41.04156" lon="0.85309">
        <ele>298.8</ele>
        <time>2022-05-24 11:24:48</time>
      </trkpt>
      <trkpt lat="41.04155" lon="0.85306">
        <ele>298.8</ele>
        <time>2022-05-24 11:24:49</time>
      </trkpt>
      <trkpt lat="41.04154" lon="0.85302">
        <ele>299</ele>
        <time>2022-05-24 11:24:50</time>
      </trkpt>
      <trkpt lat="41.04153" lon="0.85298">
        <ele>299</ele>
        <time>2022-05-24 11:24:51</time>
      </trkpt>
      <trkpt lat="41.04152" lon="0.85295">
        <ele>299.2</ele>
        <time>2022-05-24 11:24:52</time>
      </trkpt>
      <trkpt lat="41.04151" lon="0.85292">
        <ele>299.4</ele>
        <time>2022-05-24 11:24:53</time>
      </trkpt>
      <trkpt lat="41.04149" lon="0.85289">
        <ele>299.6</ele>
        <time>2022-05-24 11:24:54</time>
      </trkpt>
      <trkpt lat="41.04148" lon="0.85286">
        <ele>299.6</ele>
        <time>2022-05-24 11:24:55</time>
      </trkpt>
      <trkpt lat="41.04147" lon="0.85283">
        <ele>299.8</ele>
        <time>2022-05-24 11:24:56</time>
      </trkpt>
      <trkpt lat="41.04145" lon="0.85279">
        <ele>300</ele>
        <time>2022-05-24 11:24:57</time>
      </trkpt>
      <trkpt lat="41.04144" lon="0.85277">
        <ele>300.2</ele>
        <time>2022-05-24 11:24:58</time>
      </trkpt>
      <trkpt lat="41.04142" lon="0.85274">
        <ele>300.4</ele>
        <time>2022-05-24 11:24:59</time>
      </trkpt>
      <trkpt lat="41.04139" lon="0.85271">
        <ele>300.6</ele>
        <time>2022-05-24 11:25:00</time>
      </trkpt>
      <trkpt lat="41.04137" lon="0.85268">
        <ele>300.8</ele>
        <time>2022-05-24 11:25:01</time>
      </trkpt>
      <trkpt lat="41.04135" lon="0.85266">
        <ele>301</ele>
        <time>2022-05-24 11:25:02</time>
      </trkpt>
      <trkpt lat="41.04132" lon="0.85264">
        <ele>301.2</ele>
        <time>2022-05-24 11:25:03</time>
      </trkpt>
      <trkpt lat="41.0413" lon="0.85262">
        <ele>301.4</ele>
        <time>2022-05-24 11:25:04</time>
      </trkpt>
      <trkpt lat="41.04127" lon="0.85261">
        <ele>301.6</ele>
        <time>2022-05-24 11:25:05</time>
      </trkpt>
      <trkpt lat="41.04124" lon="0.85259">
        <ele>301.8</ele>
        <time>2022-05-24 11:25:06</time>
      </trkpt>
      <trkpt lat="41.04122" lon="0.85259">
        <ele>302</ele>
        <time>2022-05-24 11:25:07</time>
      </trkpt>
      <trkpt lat="41.04119" lon="0.85258">
        <ele>302.2</ele>
        <time>2022-05-24 11:25:08</time>
      </trkpt>
      <trkpt lat="41.04118" lon="0.85257">
        <ele>302.4</ele>
        <time>2022-05-24 11:25:09</time>
      </trkpt>
      <trkpt lat="41.04115" lon="0.85256">
        <ele>302.6</ele>
        <time>2022-05-24 11:25:10</time>
      </trkpt>
      <trkpt lat="41.04113" lon="0.85256">
        <ele>302.8</ele>
        <time>2022-05-24 11:25:11</time>
      </trkpt>
      <trkpt lat="41.0411" lon="0.85256">
        <ele>303</ele>
        <time>2022-05-24 11:25:12</time>
      </trkpt>
      <trkpt lat="41.04108" lon="0.85256">
        <ele>303.2</ele>
        <time>2022-05-24 11:25:13</time>
      </trkpt>
      <trkpt lat="41.04107" lon="0.85256">
        <ele>303.4</ele>
        <time>2022-05-24 11:25:14</time>
      </trkpt>
      <trkpt lat="41.04105" lon="0.85256">
        <ele>303.4</ele>
        <time>2022-05-24 11:25:15</time>
      </trkpt>
      <trkpt lat="41.04102" lon="0.85256">
        <ele>303.6</ele>
        <time>2022-05-24 11:25:16</time>
      </trkpt>
      <trkpt lat="41.041" lon="0.85255">
        <ele>303.8</ele>
        <time>2022-05-24 11:25:17</time>
      </trkpt>
      <trkpt lat="41.04098" lon="0.85255">
        <ele>304</ele>
        <time>2022-05-24 11:25:18</time>
      </trkpt>
      <trkpt lat="41.04096" lon="0.85255">
        <ele>304.2</ele>
        <time>2022-05-24 11:25:19</time>
      </trkpt>
      <trkpt lat="41.04094" lon="0.85254">
        <ele>304.2</ele>
        <time>2022-05-24 11:25:20</time>
      </trkpt>
      <trkpt lat="41.04092" lon="0.85253">
        <ele>304.4</ele>
        <time>2022-05-24 11:25:21</time>
      </trkpt>
      <trkpt lat="41.0409" lon="0.85252">
        <ele>304.6</ele>
        <time>2022-05-24 11:25:22</time>
      </trkpt>
      <trkpt lat="41.04089" lon="0.85251">
        <ele>304.6</ele>
        <time>2022-05-24 11:25:23</time>
      </trkpt>
      <trkpt lat="41.04088" lon="0.8525">
        <ele>304.8</ele>
        <time>2022-05-24 11:25:24</time>
      </trkpt>
      <trkpt lat="41.04087" lon="0.85249">
        <ele>305</ele>
        <time>2022-05-24 11:25:25</time>
      </trkpt>
      <trkpt lat="41.04086" lon="0.85248">
        <ele>305</ele>
        <time>2022-05-24 11:25:26</time>
      </trkpt>
      <trkpt lat="41.04085" lon="0.85247">
        <ele>305.2</ele>
        <time>2022-05-24 11:25:27</time>
      </trkpt>
      <trkpt lat="41.04084" lon="0.85245">
        <ele>305.4</ele>
        <time>2022-05-24 11:25:28</time>
      </trkpt>
      <trkpt lat="41.04083" lon="0.85244">
        <ele>305.6</ele>
        <time>2022-05-24 11:25:29</time>
      </trkpt>
      <trkpt lat="41.04081" lon="0.85243">
        <ele>305.6</ele>
        <time>2022-05-24 11:25:30</time>
      </trkpt>
      <trkpt lat="41.0408" lon="0.85241">
        <ele>306</ele>
        <time>2022-05-24 11:25:31</time>
      </trkpt>
      <trkpt lat="41.0408" lon="0.8524">
        <ele>306</ele>
        <time>2022-05-24 11:25:32</time>
      </trkpt>
      <trkpt lat="41.04079" lon="0.85238">
        <ele>306.2</ele>
        <time>2022-05-24 11:25:33</time>
      </trkpt>
      <trkpt lat="41.04077" lon="0.85237">
        <ele>306.4</ele>
        <time>2022-05-24 11:25:34</time>
      </trkpt>
      <trkpt lat="41.04075" lon="0.85235">
        <ele>306.6</ele>
        <time>2022-05-24 11:25:35</time>
      </trkpt>
      <trkpt lat="41.04073" lon="0.85234">
        <ele>306.6</ele>
        <time>2022-05-24 11:25:36</time>
      </trkpt>
      <trkpt lat="41.04071" lon="0.85232">
        <ele>306.8</ele>
        <time>2022-05-24 11:25:37</time>
      </trkpt>
      <trkpt lat="41.0407" lon="0.85231">
        <ele>307</ele>
        <time>2022-05-24 11:25:38</time>
      </trkpt>
      <trkpt lat="41.04067" lon="0.8523">
        <ele>307</ele>
        <time>2022-05-24 11:25:39</time>
      </trkpt>
      <trkpt lat="41.04065" lon="0.85229">
        <ele>307.2</ele>
        <time>2022-05-24 11:25:40</time>
      </trkpt>
      <trkpt lat="41.04062" lon="0.85227">
        <ele>307.4</ele>
        <time>2022-05-24 11:25:41</time>
      </trkpt>
      <trkpt lat="41.0406" lon="0.85226">
        <ele>307.6</ele>
        <time>2022-05-24 11:25:42</time>
      </trkpt>
      <trkpt lat="41.04057" lon="0.85225">
        <ele>307.8</ele>
        <time>2022-05-24 11:25:43</time>
      </trkpt>
      <trkpt lat="41.04055" lon="0.85224">
        <ele>307.8</ele>
        <time>2022-05-24 11:25:44</time>
      </trkpt>
      <trkpt lat="41.04052" lon="0.85224">
        <ele>308</ele>
        <time>2022-05-24 11:25:45</time>
      </trkpt>
      <trkpt lat="41.0405" lon="0.85224">
        <ele>308.2</ele>
        <time>2022-05-24 11:25:46</time>
      </trkpt>
      <trkpt lat="41.04047" lon="0.85224">
        <ele>308.4</ele>
        <time>2022-05-24 11:25:47</time>
      </trkpt>
      <trkpt lat="41.04045" lon="0.85224">
        <ele>308.6</ele>
        <time>2022-05-24 11:25:48</time>
      </trkpt>
      <trkpt lat="41.04043" lon="0.85224">
        <ele>308.8</ele>
        <time>2022-05-24 11:25:49</time>
      </trkpt>
      <trkpt lat="41.04041" lon="0.85224">
        <ele>309</ele>
        <time>2022-05-24 11:25:50</time>
      </trkpt>
      <trkpt lat="41.04039" lon="0.85225">
        <ele>309</ele>
        <time>2022-05-24 11:25:51</time>
      </trkpt>
      <trkpt lat="41.04036" lon="0.85225">
        <ele>309.2</ele>
        <time>2022-05-24 11:25:52</time>
      </trkpt>
      <trkpt lat="41.04034" lon="0.85226">
        <ele>309.4</ele>
        <time>2022-05-24 11:25:53</time>
      </trkpt>
      <trkpt lat="41.04032" lon="0.85227">
        <ele>309.6</ele>
        <time>2022-05-24 11:25:54</time>
      </trkpt>
      <trkpt lat="41.0403" lon="0.85228">
        <ele>309.6</ele>
        <time>2022-05-24 11:25:55</time>
      </trkpt>
      <trkpt lat="41.04028" lon="0.85229">
        <ele>309.8</ele>
        <time>2022-05-24 11:25:56</time>
      </trkpt>
      <trkpt lat="41.04026" lon="0.85229">
        <ele>310</ele>
        <time>2022-05-24 11:25:57</time>
      </trkpt>
      <trkpt lat="41.04024" lon="0.8523">
        <ele>310.2</ele>
        <time>2022-05-24 11:25:58</time>
      </trkpt>
      <trkpt lat="41.04022" lon="0.8523">
        <ele>310.4</ele>
        <time>2022-05-24 11:25:59</time>
      </trkpt>
      <trkpt lat="41.0402" lon="0.8523">
        <ele>310.4</ele>
        <time>2022-05-24 11:26:00</time>
      </trkpt>
      <trkpt lat="41.04018" lon="0.85231">
        <ele>310.6</ele>
        <time>2022-05-24 11:26:01</time>
      </trkpt>
      <trkpt lat="41.04016" lon="0.85231">
        <ele>310.8</ele>
        <time>2022-05-24 11:26:02</time>
      </trkpt>
      <trkpt lat="41.04014" lon="0.85231">
        <ele>311</ele>
        <time>2022-05-24 11:26:03</time>
      </trkpt>
      <trkpt lat="41.04012" lon="0.85231">
        <ele>311</ele>
        <time>2022-05-24 11:26:04</time>
      </trkpt>
      <trkpt lat="41.0401" lon="0.8523">
        <ele>311.2</ele>
        <time>2022-05-24 11:26:05</time>
      </trkpt>
      <trkpt lat="41.04008" lon="0.8523">
        <ele>311.4</ele>
        <time>2022-05-24 11:26:06</time>
      </trkpt>
      <trkpt lat="41.04006" lon="0.8523">
        <ele>311.4</ele>
        <time>2022-05-24 11:26:07</time>
      </trkpt>
      <trkpt lat="41.04004" lon="0.85229">
        <ele>311.6</ele>
        <time>2022-05-24 11:26:08</time>
      </trkpt>
      <trkpt lat="41.04002" lon="0.8523">
        <ele>311.6</ele>
        <time>2022-05-24 11:26:09</time>
      </trkpt>
      <trkpt lat="41.03999" lon="0.8523">
        <ele>311.8</ele>
        <time>2022-05-24 11:26:10</time>
      </trkpt>
      <trkpt lat="41.03997" lon="0.8523">
        <ele>312</ele>
        <time>2022-05-24 11:26:11</time>
      </trkpt>
      <trkpt lat="41.03996" lon="0.8523">
        <ele>312.2</ele>
        <time>2022-05-24 11:26:12</time>
      </trkpt>
      <trkpt lat="41.03994" lon="0.85229">
        <ele>312.4</ele>
        <time>2022-05-24 11:26:13</time>
      </trkpt>
      <trkpt lat="41.03992" lon="0.8523">
        <ele>312.6</ele>
        <time>2022-05-24 11:26:14</time>
      </trkpt>
      <trkpt lat="41.0399" lon="0.8523">
        <ele>312.8</ele>
        <time>2022-05-24 11:26:15</time>
      </trkpt>
      <trkpt lat="41.03988" lon="0.8523">
        <ele>313</ele>
        <time>2022-05-24 11:26:16</time>
      </trkpt>
      <trkpt lat="41.03986" lon="0.85231">
        <ele>313</ele>
        <time>2022-05-24 11:26:17</time>
      </trkpt>
      <trkpt lat="41.03984" lon="0.85231">
        <ele>313.2</ele>
        <time>2022-05-24 11:26:18</time>
      </trkpt>
      <trkpt lat="41.03982" lon="0.85231">
        <ele>313.4</ele>
        <time>2022-05-24 11:26:19</time>
      </trkpt>
      <trkpt lat="41.0398" lon="0.85231">
        <ele>313.4</ele>
        <time>2022-05-24 11:26:20</time>
      </trkpt>
      <trkpt lat="41.03978" lon="0.85231">
        <ele>313.6</ele>
        <time>2022-05-24 11:26:21</time>
      </trkpt>
      <trkpt lat="41.03976" lon="0.85232">
        <ele>313.6</ele>
        <time>2022-05-24 11:26:22</time>
      </trkpt>
      <trkpt lat="41.03974" lon="0.85233">
        <ele>313.6</ele>
        <time>2022-05-24 11:26:23</time>
      </trkpt>
      <trkpt lat="41.03971" lon="0.85234">
        <ele>313.8</ele>
        <time>2022-05-24 11:26:24</time>
      </trkpt>
      <trkpt lat="41.0397" lon="0.85234">
        <ele>313.8</ele>
        <time>2022-05-24 11:26:25</time>
      </trkpt>
      <trkpt lat="41.03968" lon="0.85236">
        <ele>314</ele>
        <time>2022-05-24 11:26:26</time>
      </trkpt>
      <trkpt lat="41.03966" lon="0.85237">
        <ele>314</ele>
        <time>2022-05-24 11:26:27</time>
      </trkpt>
      <trkpt lat="41.03964" lon="0.85239">
        <ele>314.2</ele>
        <time>2022-05-24 11:26:28</time>
      </trkpt>
      <trkpt lat="41.03963" lon="0.85241">
        <ele>314.2</ele>
        <time>2022-05-24 11:26:29</time>
      </trkpt>
      <trkpt lat="41.03961" lon="0.85242">
        <ele>314.2</ele>
        <time>2022-05-24 11:26:30</time>
      </trkpt>
      <trkpt lat="41.0396" lon="0.85244">
        <ele>314.4</ele>
        <time>2022-05-24 11:26:31</time>
      </trkpt>
      <trkpt lat="41.03958" lon="0.85246">
        <ele>314.4</ele>
        <time>2022-05-24 11:26:32</time>
      </trkpt>
      <trkpt lat="41.03957" lon="0.85248">
        <ele>314.4</ele>
        <time>2022-05-24 11:26:33</time>
      </trkpt>
      <trkpt lat="41.03955" lon="0.85249">
        <ele>314.6</ele>
        <time>2022-05-24 11:26:34</time>
      </trkpt>
      <trkpt lat="41.03954" lon="0.85251">
        <ele>314.6</ele>
        <time>2022-05-24 11:26:35</time>
      </trkpt>
      <trkpt lat="41.03952" lon="0.85252">
        <ele>314.8</ele>
        <time>2022-05-24 11:26:36</time>
      </trkpt>
      <trkpt lat="41.03951" lon="0.85254">
        <ele>314.8</ele>
        <time>2022-05-24 11:26:37</time>
      </trkpt>
      <trkpt lat="41.03949" lon="0.85256">
        <ele>315</ele>
        <time>2022-05-24 11:26:38</time>
      </trkpt>
      <trkpt lat="41.03947" lon="0.85259">
        <ele>315</ele>
        <time>2022-05-24 11:26:39</time>
      </trkpt>
      <trkpt lat="41.03946" lon="0.85261">
        <ele>315.2</ele>
        <time>2022-05-24 11:26:40</time>
      </trkpt>
      <trkpt lat="41.03945" lon="0.85262">
        <ele>315.2</ele>
        <time>2022-05-24 11:26:41</time>
      </trkpt>
      <trkpt lat="41.03944" lon="0.85264">
        <ele>315.4</ele>
        <time>2022-05-24 11:26:42</time>
      </trkpt>
      <trkpt lat="41.03942" lon="0.85266">
        <ele>315.6</ele>
        <time>2022-05-24 11:26:43</time>
      </trkpt>
      <trkpt lat="41.03941" lon="0.85267">
        <ele>315.6</ele>
        <time>2022-05-24 11:26:44</time>
      </trkpt>
      <trkpt lat="41.03939" lon="0.85269">
        <ele>315.8</ele>
        <time>2022-05-24 11:26:45</time>
      </trkpt>
      <trkpt lat="41.03937" lon="0.8527">
        <ele>315.8</ele>
        <time>2022-05-24 11:26:46</time>
      </trkpt>
      <trkpt lat="41.03935" lon="0.85271">
        <ele>315.8</ele>
        <time>2022-05-24 11:26:47</time>
      </trkpt>
      <trkpt lat="41.03931" lon="0.85271">
        <ele>316</ele>
        <time>2022-05-24 11:26:48</time>
      </trkpt>
      <trkpt lat="41.03926" lon="0.85271">
        <ele>316</ele>
        <time>2022-05-24 11:26:49</time>
      </trkpt>
      <trkpt lat="41.03921" lon="0.85271">
        <ele>316.2</ele>
        <time>2022-05-24 11:26:50</time>
      </trkpt>
      <trkpt lat="41.0392" lon="0.85272">
        <ele>316.2</ele>
        <time>2022-05-24 11:26:51</time>
      </trkpt>
      <trkpt lat="41.03918" lon="0.85272">
        <ele>316.4</ele>
        <time>2022-05-24 11:26:52</time>
      </trkpt>
      <trkpt lat="41.03916" lon="0.85272">
        <ele>316.4</ele>
        <time>2022-05-24 11:26:53</time>
      </trkpt>
      <trkpt lat="41.03915" lon="0.85272">
        <ele>316.6</ele>
        <time>2022-05-24 11:26:54</time>
      </trkpt>
      <trkpt lat="41.03913" lon="0.85273">
        <ele>316.8</ele>
        <time>2022-05-24 11:26:55</time>
      </trkpt>
      <trkpt lat="41.03911" lon="0.85273">
        <ele>316.8</ele>
        <time>2022-05-24 11:26:56</time>
      </trkpt>
      <trkpt lat="41.03909" lon="0.85273">
        <ele>317</ele>
        <time>2022-05-24 11:26:57</time>
      </trkpt>
      <trkpt lat="41.03907" lon="0.85274">
        <ele>317.2</ele>
        <time>2022-05-24 11:26:58</time>
      </trkpt>
      <trkpt lat="41.03905" lon="0.85273">
        <ele>317.2</ele>
        <time>2022-05-24 11:26:59</time>
      </trkpt>
      <trkpt lat="41.03903" lon="0.85273">
        <ele>317.4</ele>
        <time>2022-05-24 11:27:00</time>
      </trkpt>
      <trkpt lat="41.03901" lon="0.85273">
        <ele>317.6</ele>
        <time>2022-05-24 11:27:01</time>
      </trkpt>
      <trkpt lat="41.03899" lon="0.85272">
        <ele>317.8</ele>
        <time>2022-05-24 11:27:02</time>
      </trkpt>
      <trkpt lat="41.03897" lon="0.85272">
        <ele>317.8</ele>
        <time>2022-05-24 11:27:03</time>
      </trkpt>
      <trkpt lat="41.03896" lon="0.85272">
        <ele>318</ele>
        <time>2022-05-24 11:27:04</time>
      </trkpt>
      <trkpt lat="41.03894" lon="0.85271">
        <ele>318.2</ele>
        <time>2022-05-24 11:27:05</time>
      </trkpt>
      <trkpt lat="41.03892" lon="0.85271">
        <ele>318.2</ele>
        <time>2022-05-24 11:27:06</time>
      </trkpt>
      <trkpt lat="41.0389" lon="0.8527">
        <ele>318.4</ele>
        <time>2022-05-24 11:27:07</time>
      </trkpt>
      <trkpt lat="41.03888" lon="0.8527">
        <ele>318.6</ele>
        <time>2022-05-24 11:27:08</time>
      </trkpt>
      <trkpt lat="41.03886" lon="0.85269">
        <ele>318.8</ele>
        <time>2022-05-24 11:27:09</time>
      </trkpt>
      <trkpt lat="41.03884" lon="0.85269">
        <ele>318.8</ele>
        <time>2022-05-24 11:27:10</time>
      </trkpt>
      <trkpt lat="41.03882" lon="0.85268">
        <ele>319</ele>
        <time>2022-05-24 11:27:11</time>
      </trkpt>
      <trkpt lat="41.0388" lon="0.85268">
        <ele>319</ele>
        <time>2022-05-24 11:27:12</time>
      </trkpt>
      <trkpt lat="41.03878" lon="0.85267">
        <ele>319.2</ele>
        <time>2022-05-24 11:27:13</time>
      </trkpt>
      <trkpt lat="41.03875" lon="0.85266">
        <ele>319.4</ele>
        <time>2022-05-24 11:27:14</time>
      </trkpt>
      <trkpt lat="41.03873" lon="0.85266">
        <ele>319.4</ele>
        <time>2022-05-24 11:27:15</time>
      </trkpt>
      <trkpt lat="41.03872" lon="0.85265">
        <ele>319.6</ele>
        <time>2022-05-24 11:27:16</time>
      </trkpt>
      <trkpt lat="41.0387" lon="0.85265">
        <ele>319.8</ele>
        <time>2022-05-24 11:27:17</time>
      </trkpt>
      <trkpt lat="41.03868" lon="0.85264">
        <ele>319.8</ele>
        <time>2022-05-24 11:27:18</time>
      </trkpt>
      <trkpt lat="41.03866" lon="0.85263">
        <ele>320</ele>
        <time>2022-05-24 11:27:19</time>
      </trkpt>
      <trkpt lat="41.03864" lon="0.85263">
        <ele>320.2</ele>
        <time>2022-05-24 11:27:20</time>
      </trkpt>
      <trkpt lat="41.03862" lon="0.85262">
        <ele>320.2</ele>
        <time>2022-05-24 11:27:21</time>
      </trkpt>
      <trkpt lat="41.0386" lon="0.85262">
        <ele>320.4</ele>
        <time>2022-05-24 11:27:22</time>
      </trkpt>
      <trkpt lat="41.03858" lon="0.85262">
        <ele>320.6</ele>
        <time>2022-05-24 11:27:23</time>
      </trkpt>
      <trkpt lat="41.03856" lon="0.85262">
        <ele>320.6</ele>
        <time>2022-05-24 11:27:24</time>
      </trkpt>
      <trkpt lat="41.03854" lon="0.85261">
        <ele>320.8</ele>
        <time>2022-05-24 11:27:25</time>
      </trkpt>
      <trkpt lat="41.03853" lon="0.85261">
        <ele>321</ele>
        <time>2022-05-24 11:27:26</time>
      </trkpt>
      <trkpt lat="41.03851" lon="0.8526">
        <ele>321</ele>
        <time>2022-05-24 11:27:27</time>
      </trkpt>
      <trkpt lat="41.03849" lon="0.85259">
        <ele>321.2</ele>
        <time>2022-05-24 11:27:28</time>
      </trkpt>
      <trkpt lat="41.03848" lon="0.85259">
        <ele>321.4</ele>
        <time>2022-05-24 11:27:29</time>
      </trkpt>
      <trkpt lat="41.03846" lon="0.85259">
        <ele>321.4</ele>
        <time>2022-05-24 11:27:30</time>
      </trkpt>
      <trkpt lat="41.03844" lon="0.85258">
        <ele>321.6</ele>
        <time>2022-05-24 11:27:31</time>
      </trkpt>
      <trkpt lat="41.03842" lon="0.85258">
        <ele>321.8</ele>
        <time>2022-05-24 11:27:32</time>
      </trkpt>
      <trkpt lat="41.03841" lon="0.85258">
        <ele>321.8</ele>
        <time>2022-05-24 11:27:33</time>
      </trkpt>
      <trkpt lat="41.03839" lon="0.85258">
        <ele>322</ele>
        <time>2022-05-24 11:27:34</time>
      </trkpt>
      <trkpt lat="41.03837" lon="0.85258">
        <ele>322.2</ele>
        <time>2022-05-24 11:27:35</time>
      </trkpt>
      <trkpt lat="41.03835" lon="0.85258">
        <ele>322.2</ele>
        <time>2022-05-24 11:27:36</time>
      </trkpt>
      <trkpt lat="41.03833" lon="0.85258">
        <ele>322.4</ele>
        <time>2022-05-24 11:27:37</time>
      </trkpt>
      <trkpt lat="41.03832" lon="0.85258">
        <ele>322.6</ele>
        <time>2022-05-24 11:27:38</time>
      </trkpt>
      <trkpt lat="41.0383" lon="0.85257">
        <ele>322.8</ele>
        <time>2022-05-24 11:27:39</time>
      </trkpt>
      <trkpt lat="41.03828" lon="0.85257">
        <ele>323</ele>
        <time>2022-05-24 11:27:40</time>
      </trkpt>
      <trkpt lat="41.03826" lon="0.85256">
        <ele>323.2</ele>
        <time>2022-05-24 11:27:41</time>
      </trkpt>
      <trkpt lat="41.03824" lon="0.85256">
        <ele>323.2</ele>
        <time>2022-05-24 11:27:42</time>
      </trkpt>
      <trkpt lat="41.03823" lon="0.85255">
        <ele>323.4</ele>
        <time>2022-05-24 11:27:43</time>
      </trkpt>
      <trkpt lat="41.0382" lon="0.85254">
        <ele>323.6</ele>
        <time>2022-05-24 11:27:44</time>
      </trkpt>
      <trkpt lat="41.03819" lon="0.85254">
        <ele>323.8</ele>
        <time>2022-05-24 11:27:45</time>
      </trkpt>
      <trkpt lat="41.03817" lon="0.85253">
        <ele>324</ele>
        <time>2022-05-24 11:27:46</time>
      </trkpt>
      <trkpt lat="41.03815" lon="0.85253">
        <ele>324</ele>
        <time>2022-05-24 11:27:47</time>
      </trkpt>
      <trkpt lat="41.03813" lon="0.85252">
        <ele>324.2</ele>
        <time>2022-05-24 11:27:48</time>
      </trkpt>
      <trkpt lat="41.03811" lon="0.85251">
        <ele>324.4</ele>
        <time>2022-05-24 11:27:49</time>
      </trkpt>
      <trkpt lat="41.03809" lon="0.85251">
        <ele>324.6</ele>
        <time>2022-05-24 11:27:50</time>
      </trkpt>
      <trkpt lat="41.03807" lon="0.85251">
        <ele>324.6</ele>
        <time>2022-05-24 11:27:51</time>
      </trkpt>
      <trkpt lat="41.03805" lon="0.85252">
        <ele>324.8</ele>
        <time>2022-05-24 11:27:52</time>
      </trkpt>
      <trkpt lat="41.03803" lon="0.85252">
        <ele>325</ele>
        <time>2022-05-24 11:27:53</time>
      </trkpt>
      <trkpt lat="41.03801" lon="0.85251">
        <ele>325</ele>
        <time>2022-05-24 11:27:54</time>
      </trkpt>
      <trkpt lat="41.038" lon="0.85251">
        <ele>325.2</ele>
        <time>2022-05-24 11:27:55</time>
      </trkpt>
      <trkpt lat="41.03798" lon="0.8525">
        <ele>325.4</ele>
        <time>2022-05-24 11:27:56</time>
      </trkpt>
      <trkpt lat="41.03796" lon="0.85249">
        <ele>325.4</ele>
        <time>2022-05-24 11:27:57</time>
      </trkpt>
      <trkpt lat="41.03795" lon="0.85249">
        <ele>325.6</ele>
        <time>2022-05-24 11:27:58</time>
      </trkpt>
      <trkpt lat="41.03794" lon="0.85248">
        <ele>325.8</ele>
        <time>2022-05-24 11:27:59</time>
      </trkpt>
      <trkpt lat="41.03791" lon="0.85248">
        <ele>326</ele>
        <time>2022-05-24 11:28:00</time>
      </trkpt>
      <trkpt lat="41.03789" lon="0.85247">
        <ele>326</ele>
        <time>2022-05-24 11:28:01</time>
      </trkpt>
      <trkpt lat="41.03787" lon="0.85247">
        <ele>326.2</ele>
        <time>2022-05-24 11:28:02</time>
      </trkpt>
      <trkpt lat="41.03786" lon="0.85246">
        <ele>326.4</ele>
        <time>2022-05-24 11:28:03</time>
      </trkpt>
      <trkpt lat="41.03783" lon="0.85246">
        <ele>326.4</ele>
        <time>2022-05-24 11:28:04</time>
      </trkpt>
      <trkpt lat="41.03782" lon="0.85245">
        <ele>326.6</ele>
        <time>2022-05-24 11:28:05</time>
      </trkpt>
      <trkpt lat="41.0378" lon="0.85245">
        <ele>326.8</ele>
        <time>2022-05-24 11:28:06</time>
      </trkpt>
      <trkpt lat="41.03778" lon="0.85245">
        <ele>326.8</ele>
        <time>2022-05-24 11:28:07</time>
      </trkpt>
      <trkpt lat="41.03776" lon="0.85245">
        <ele>327</ele>
        <time>2022-05-24 11:28:08</time>
      </trkpt>
      <trkpt lat="41.03774" lon="0.85245">
        <ele>327</ele>
        <time>2022-05-24 11:28:09</time>
      </trkpt>
      <trkpt lat="41.03772" lon="0.85244">
        <ele>327.2</ele>
        <time>2022-05-24 11:28:10</time>
      </trkpt>
      <trkpt lat="41.0377" lon="0.85243">
        <ele>327.2</ele>
        <time>2022-05-24 11:28:11</time>
      </trkpt>
      <trkpt lat="41.03768" lon="0.85242">
        <ele>327.4</ele>
        <time>2022-05-24 11:28:12</time>
      </trkpt>
      <trkpt lat="41.03766" lon="0.85242">
        <ele>327.6</ele>
        <time>2022-05-24 11:28:13</time>
      </trkpt>
      <trkpt lat="41.03764" lon="0.85241">
        <ele>327.6</ele>
        <time>2022-05-24 11:28:14</time>
      </trkpt>
      <trkpt lat="41.03762" lon="0.85241">
        <ele>327.8</ele>
        <time>2022-05-24 11:28:15</time>
      </trkpt>
      <trkpt lat="41.03761" lon="0.8524">
        <ele>328</ele>
        <time>2022-05-24 11:28:16</time>
      </trkpt>
      <trkpt lat="41.03759" lon="0.85239">
        <ele>328</ele>
        <time>2022-05-24 11:28:17</time>
      </trkpt>
      <trkpt lat="41.03757" lon="0.85239">
        <ele>328.2</ele>
        <time>2022-05-24 11:28:18</time>
      </trkpt>
      <trkpt lat="41.03755" lon="0.85238">
        <ele>328.4</ele>
        <time>2022-05-24 11:28:19</time>
      </trkpt>
      <trkpt lat="41.03753" lon="0.85238">
        <ele>328.4</ele>
        <time>2022-05-24 11:28:20</time>
      </trkpt>
      <trkpt lat="41.03751" lon="0.85238">
        <ele>328.6</ele>
        <time>2022-05-24 11:28:21</time>
      </trkpt>
      <trkpt lat="41.03749" lon="0.85237">
        <ele>328.8</ele>
        <time>2022-05-24 11:28:22</time>
      </trkpt>
      <trkpt lat="41.03747" lon="0.85237">
        <ele>328.8</ele>
        <time>2022-05-24 11:28:23</time>
      </trkpt>
      <trkpt lat="41.03745" lon="0.85236">
        <ele>329</ele>
        <time>2022-05-24 11:28:24</time>
      </trkpt>
      <trkpt lat="41.03743" lon="0.85236">
        <ele>329.2</ele>
        <time>2022-05-24 11:28:25</time>
      </trkpt>
      <trkpt lat="41.03741" lon="0.85235">
        <ele>329.4</ele>
        <time>2022-05-24 11:28:26</time>
      </trkpt>
      <trkpt lat="41.0374" lon="0.85235">
        <ele>329.4</ele>
        <time>2022-05-24 11:28:27</time>
      </trkpt>
      <trkpt lat="41.03738" lon="0.85234">
        <ele>329.6</ele>
        <time>2022-05-24 11:28:28</time>
      </trkpt>
      <trkpt lat="41.03736" lon="0.85233">
        <ele>329.8</ele>
        <time>2022-05-24 11:28:29</time>
      </trkpt>
      <trkpt lat="41.03734" lon="0.85232">
        <ele>329.8</ele>
        <time>2022-05-24 11:28:30</time>
      </trkpt>
      <trkpt lat="41.03733" lon="0.85231">
        <ele>330</ele>
        <time>2022-05-24 11:28:31</time>
      </trkpt>
      <trkpt lat="41.03731" lon="0.8523">
        <ele>330.2</ele>
        <time>2022-05-24 11:28:32</time>
      </trkpt>
      <trkpt lat="41.03729" lon="0.85229">
        <ele>330.4</ele>
        <time>2022-05-24 11:28:33</time>
      </trkpt>
      <trkpt lat="41.03727" lon="0.85228">
        <ele>330.6</ele>
        <time>2022-05-24 11:28:34</time>
      </trkpt>
      <trkpt lat="41.03726" lon="0.85226">
        <ele>330.6</ele>
        <time>2022-05-24 11:28:35</time>
      </trkpt>
      <trkpt lat="41.03725" lon="0.85225">
        <ele>330.8</ele>
        <time>2022-05-24 11:28:36</time>
      </trkpt>
      <trkpt lat="41.03723" lon="0.85223">
        <ele>331</ele>
        <time>2022-05-24 11:28:37</time>
      </trkpt>
      <trkpt lat="41.03722" lon="0.85222">
        <ele>331.2</ele>
        <time>2022-05-24 11:28:38</time>
      </trkpt>
      <trkpt lat="41.03721" lon="0.8522">
        <ele>331.4</ele>
        <time>2022-05-24 11:28:39</time>
      </trkpt>
      <trkpt lat="41.03719" lon="0.85219">
        <ele>331.4</ele>
        <time>2022-05-24 11:28:40</time>
      </trkpt>
      <trkpt lat="41.03718" lon="0.85217">
        <ele>331.6</ele>
        <time>2022-05-24 11:28:41</time>
      </trkpt>
      <trkpt lat="41.03716" lon="0.85215">
        <ele>331.8</ele>
        <time>2022-05-24 11:28:42</time>
      </trkpt>
      <trkpt lat="41.03715" lon="0.85213">
        <ele>332</ele>
        <time>2022-05-24 11:28:43</time>
      </trkpt>
      <trkpt lat="41.03714" lon="0.85211">
        <ele>332.2</ele>
        <time>2022-05-24 11:28:44</time>
      </trkpt>
      <trkpt lat="41.03713" lon="0.85209">
        <ele>332.2</ele>
        <time>2022-05-24 11:28:45</time>
      </trkpt>
      <trkpt lat="41.03712" lon="0.85207">
        <ele>332.4</ele>
        <time>2022-05-24 11:28:46</time>
      </trkpt>
      <trkpt lat="41.03711" lon="0.85205">
        <ele>332.6</ele>
        <time>2022-05-24 11:28:47</time>
      </trkpt>
      <trkpt lat="41.03709" lon="0.85203">
        <ele>332.6</ele>
        <time>2022-05-24 11:28:48</time>
      </trkpt>
      <trkpt lat="41.03708" lon="0.85201">
        <ele>332.8</ele>
        <time>2022-05-24 11:28:49</time>
      </trkpt>
      <trkpt lat="41.03707" lon="0.85199">
        <ele>332.8</ele>
        <time>2022-05-24 11:28:50</time>
      </trkpt>
      <trkpt lat="41.03706" lon="0.85198">
        <ele>333</ele>
        <time>2022-05-24 11:28:51</time>
      </trkpt>
      <trkpt lat="41.03705" lon="0.85196">
        <ele>333.2</ele>
        <time>2022-05-24 11:28:52</time>
      </trkpt>
      <trkpt lat="41.03704" lon="0.85195">
        <ele>333.4</ele>
        <time>2022-05-24 11:28:53</time>
      </trkpt>
      <trkpt lat="41.03703" lon="0.85194">
        <ele>333.4</ele>
        <time>2022-05-24 11:28:54</time>
      </trkpt>
      <trkpt lat="41.03701" lon="0.85193">
        <ele>333.6</ele>
        <time>2022-05-24 11:28:55</time>
      </trkpt>
      <trkpt lat="41.03699" lon="0.85192">
        <ele>333.8</ele>
        <time>2022-05-24 11:28:56</time>
      </trkpt>
      <trkpt lat="41.03698" lon="0.85192">
        <ele>333.8</ele>
        <time>2022-05-24 11:28:57</time>
      </trkpt>
      <trkpt lat="41.03697" lon="0.85184">
        <ele>334.2</ele>
        <time>2022-05-24 11:28:58</time>
      </trkpt>
      <trkpt lat="41.03696" lon="0.85183">
        <ele>334.2</ele>
        <time>2022-05-24 11:41:06</time>
      </trkpt>
      <trkpt lat="41.03696" lon="0.85181">
        <ele>334.4</ele>
        <time>2022-05-24 11:41:07</time>
      </trkpt>
      <trkpt lat="41.03695" lon="0.8518">
        <ele>334.4</ele>
        <time>2022-05-24 11:41:08</time>
      </trkpt>
      <trkpt lat="41.03693" lon="0.85179">
        <ele>334.4</ele>
        <time>2022-05-24 11:41:09</time>
      </trkpt>
      <trkpt lat="41.03693" lon="0.85177">
        <ele>334.4</ele>
        <time>2022-05-24 11:41:10</time>
      </trkpt>
      <trkpt lat="41.03692" lon="0.85176">
        <ele>334.4</ele>
        <time>2022-05-24 11:41:11</time>
      </trkpt>
      <trkpt lat="41.03692" lon="0.85175">
        <ele>334.6</ele>
        <time>2022-05-24 11:41:12</time>
      </trkpt>
      <trkpt lat="41.03691" lon="0.85174">
        <ele>334.6</ele>
        <time>2022-05-24 11:41:13</time>
      </trkpt>
      <trkpt lat="41.0369" lon="0.85172">
        <ele>334.8</ele>
        <time>2022-05-24 11:41:14</time>
      </trkpt>
      <trkpt lat="41.03689" lon="0.85171">
        <ele>334.8</ele>
        <time>2022-05-24 11:41:15</time>
      </trkpt>
      <trkpt lat="41.03688" lon="0.85168">
        <ele>335</ele>
        <time>2022-05-24 11:41:16</time>
      </trkpt>
      <trkpt lat="41.03687" lon="0.85166">
        <ele>335</ele>
        <time>2022-05-24 11:41:17</time>
      </trkpt>
      <trkpt lat="41.03686" lon="0.85164">
        <ele>335.2</ele>
        <time>2022-05-24 11:41:18</time>
      </trkpt>
      <trkpt lat="41.03684" lon="0.85162">
        <ele>335.4</ele>
        <time>2022-05-24 11:41:19</time>
      </trkpt>
      <trkpt lat="41.03683" lon="0.8516">
        <ele>335.4</ele>
        <time>2022-05-24 11:41:20</time>
      </trkpt>
      <trkpt lat="41.03682" lon="0.85157">
        <ele>335.6</ele>
        <time>2022-05-24 11:41:21</time>
      </trkpt>
      <trkpt lat="41.0368" lon="0.85155">
        <ele>335.8</ele>
        <time>2022-05-24 11:41:22</time>
      </trkpt>
      <trkpt lat="41.03679" lon="0.85153">
        <ele>335.8</ele>
        <time>2022-05-24 11:41:23</time>
      </trkpt>
      <trkpt lat="41.03678" lon="0.8515">
        <ele>336</ele>
        <time>2022-05-24 11:41:24</time>
      </trkpt>
      <trkpt lat="41.03677" lon="0.85148">
        <ele>336</ele>
        <time>2022-05-24 11:41:25</time>
      </trkpt>
      <trkpt lat="41.03676" lon="0.85145">
        <ele>336.2</ele>
        <time>2022-05-24 11:41:26</time>
      </trkpt>
      <trkpt lat="41.03675" lon="0.85142">
        <ele>336.4</ele>
        <time>2022-05-24 11:41:27</time>
      </trkpt>
      <trkpt lat="41.03674" lon="0.8514">
        <ele>336.4</ele>
        <time>2022-05-24 11:41:28</time>
      </trkpt>
      <trkpt lat="41.03674" lon="0.85137">
        <ele>336.6</ele>
        <time>2022-05-24 11:41:29</time>
      </trkpt>
      <trkpt lat="41.03673" lon="0.85135">
        <ele>336.8</ele>
        <time>2022-05-24 11:41:30</time>
      </trkpt>
      <trkpt lat="41.03673" lon="0.85132">
        <ele>336.8</ele>
        <time>2022-05-24 11:41:31</time>
      </trkpt>
      <trkpt lat="41.03672" lon="0.8513">
        <ele>337</ele>
        <time>2022-05-24 11:41:32</time>
      </trkpt>
      <trkpt lat="41.03672" lon="0.85127">
        <ele>337.2</ele>
        <time>2022-05-24 11:41:33</time>
      </trkpt>
      <trkpt lat="41.03671" lon="0.85125">
        <ele>337.4</ele>
        <time>2022-05-24 11:41:34</time>
      </trkpt>
      <trkpt lat="41.0367" lon="0.85123">
        <ele>337.4</ele>
        <time>2022-05-24 11:41:35</time>
      </trkpt>
      <trkpt lat="41.03669" lon="0.8512">
        <ele>337.4</ele>
        <time>2022-05-24 11:41:36</time>
      </trkpt>
      <trkpt lat="41.03669" lon="0.85118">
        <ele>337.6</ele>
        <time>2022-05-24 11:41:37</time>
      </trkpt>
      <trkpt lat="41.03668" lon="0.85116">
        <ele>337.6</ele>
        <time>2022-05-24 11:41:38</time>
      </trkpt>
      <trkpt lat="41.03667" lon="0.85114">
        <ele>337.8</ele>
        <time>2022-05-24 11:41:39</time>
      </trkpt>
      <trkpt lat="41.03666" lon="0.85112">
        <ele>338</ele>
        <time>2022-05-24 11:41:40</time>
      </trkpt>
      <trkpt lat="41.03665" lon="0.8511">
        <ele>338</ele>
        <time>2022-05-24 11:41:41</time>
      </trkpt>
      <trkpt lat="41.03664" lon="0.85108">
        <ele>338.2</ele>
        <time>2022-05-24 11:41:42</time>
      </trkpt>
      <trkpt lat="41.03663" lon="0.85106">
        <ele>338.4</ele>
        <time>2022-05-24 11:41:43</time>
      </trkpt>
      <trkpt lat="41.03662" lon="0.85105">
        <ele>338.6</ele>
        <time>2022-05-24 11:41:44</time>
      </trkpt>
      <trkpt lat="41.03661" lon="0.85103">
        <ele>338.8</ele>
        <time>2022-05-24 11:41:45</time>
      </trkpt>
      <trkpt lat="41.03659" lon="0.85102">
        <ele>338.8</ele>
        <time>2022-05-24 11:41:46</time>
      </trkpt>
      <trkpt lat="41.03658" lon="0.851">
        <ele>339</ele>
        <time>2022-05-24 11:41:47</time>
      </trkpt>
      <trkpt lat="41.03657" lon="0.85098">
        <ele>339.2</ele>
        <time>2022-05-24 11:41:48</time>
      </trkpt>
      <trkpt lat="41.03656" lon="0.85097">
        <ele>339.4</ele>
        <time>2022-05-24 11:41:49</time>
      </trkpt>
      <trkpt lat="41.03654" lon="0.85095">
        <ele>339.6</ele>
        <time>2022-05-24 11:41:50</time>
      </trkpt>
      <trkpt lat="41.03652" lon="0.85094">
        <ele>339.6</ele>
        <time>2022-05-24 11:41:51</time>
      </trkpt>
      <trkpt lat="41.03651" lon="0.85094">
        <ele>339.8</ele>
        <time>2022-05-24 11:41:52</time>
      </trkpt>
      <trkpt lat="41.03649" lon="0.85093">
        <ele>340</ele>
        <time>2022-05-24 11:41:53</time>
      </trkpt>
      <trkpt lat="41.03647" lon="0.85093">
        <ele>340</ele>
        <time>2022-05-24 11:41:54</time>
      </trkpt>
      <trkpt lat="41.03646" lon="0.85093">
        <ele>340.2</ele>
        <time>2022-05-24 11:41:55</time>
      </trkpt>
      <trkpt lat="41.03644" lon="0.85092">
        <ele>340.4</ele>
        <time>2022-05-24 11:41:56</time>
      </trkpt>
      <trkpt lat="41.03642" lon="0.85092">
        <ele>340.4</ele>
        <time>2022-05-24 11:41:57</time>
      </trkpt>
      <trkpt lat="41.0364" lon="0.85092">
        <ele>340.6</ele>
        <time>2022-05-24 11:41:58</time>
      </trkpt>
      <trkpt lat="41.03639" lon="0.85092">
        <ele>340.6</ele>
        <time>2022-05-24 11:41:59</time>
      </trkpt>
      <trkpt lat="41.03637" lon="0.85091">
        <ele>340.8</ele>
        <time>2022-05-24 11:42:00</time>
      </trkpt>
      <trkpt lat="41.03635" lon="0.85091">
        <ele>340.8</ele>
        <time>2022-05-24 11:42:01</time>
      </trkpt>
      <trkpt lat="41.03634" lon="0.85091">
        <ele>341</ele>
        <time>2022-05-24 11:42:02</time>
      </trkpt>
      <trkpt lat="41.03632" lon="0.8509">
        <ele>341</ele>
        <time>2022-05-24 11:42:03</time>
      </trkpt>
      <trkpt lat="41.03631" lon="0.8509">
        <ele>341.2</ele>
        <time>2022-05-24 11:42:04</time>
      </trkpt>
      <trkpt lat="41.03629" lon="0.8509">
        <ele>341.4</ele>
        <time>2022-05-24 11:42:05</time>
      </trkpt>
      <trkpt lat="41.03627" lon="0.8509">
        <ele>341.4</ele>
        <time>2022-05-24 11:42:06</time>
      </trkpt>
      <trkpt lat="41.03625" lon="0.8509">
        <ele>341.6</ele>
        <time>2022-05-24 11:42:07</time>
      </trkpt>
      <trkpt lat="41.03624" lon="0.8509">
        <ele>341.6</ele>
        <time>2022-05-24 11:42:08</time>
      </trkpt>
      <trkpt lat="41.03622" lon="0.85089">
        <ele>341.8</ele>
        <time>2022-05-24 11:42:09</time>
      </trkpt>
      <trkpt lat="41.0362" lon="0.85089">
        <ele>342</ele>
        <time>2022-05-24 11:42:10</time>
      </trkpt>
      <trkpt lat="41.03619" lon="0.85089">
        <ele>342</ele>
        <time>2022-05-24 11:42:11</time>
      </trkpt>
      <trkpt lat="41.03617" lon="0.85088">
        <ele>342.2</ele>
        <time>2022-05-24 11:42:12</time>
      </trkpt>
      <trkpt lat="41.03615" lon="0.85088">
        <ele>342.4</ele>
        <time>2022-05-24 11:42:13</time>
      </trkpt>
      <trkpt lat="41.03614" lon="0.85088">
        <ele>342.4</ele>
        <time>2022-05-24 11:42:14</time>
      </trkpt>
      <trkpt lat="41.03613" lon="0.85087">
        <ele>342.6</ele>
        <time>2022-05-24 11:42:15</time>
      </trkpt>
      <trkpt lat="41.03611" lon="0.85085">
        <ele>342.6</ele>
        <time>2022-05-24 11:42:16</time>
      </trkpt>
      <trkpt lat="41.0361" lon="0.85084">
        <ele>342.8</ele>
        <time>2022-05-24 11:42:17</time>
      </trkpt>
      <trkpt lat="41.03609" lon="0.85082">
        <ele>342.8</ele>
        <time>2022-05-24 11:42:18</time>
      </trkpt>
      <trkpt lat="41.03608" lon="0.8508">
        <ele>343</ele>
        <time>2022-05-24 11:42:19</time>
      </trkpt>
      <trkpt lat="41.03607" lon="0.85079">
        <ele>343</ele>
        <time>2022-05-24 11:42:20</time>
      </trkpt>
      <trkpt lat="41.03606" lon="0.85077">
        <ele>343.2</ele>
        <time>2022-05-24 11:42:21</time>
      </trkpt>
      <trkpt lat="41.03604" lon="0.85075">
        <ele>343.2</ele>
        <time>2022-05-24 11:42:22</time>
      </trkpt>
      <trkpt lat="41.03603" lon="0.85074">
        <ele>343.4</ele>
        <time>2022-05-24 11:42:23</time>
      </trkpt>
      <trkpt lat="41.03602" lon="0.85072">
        <ele>343.6</ele>
        <time>2022-05-24 11:42:24</time>
      </trkpt>
      <trkpt lat="41.03601" lon="0.8507">
        <ele>343.8</ele>
        <time>2022-05-24 11:42:25</time>
      </trkpt>
      <trkpt lat="41.036" lon="0.85068">
        <ele>343.8</ele>
        <time>2022-05-24 11:42:26</time>
      </trkpt>
      <trkpt lat="41.03599" lon="0.85066">
        <ele>344</ele>
        <time>2022-05-24 11:42:27</time>
      </trkpt>
      <trkpt lat="41.03598" lon="0.85064">
        <ele>344</ele>
        <time>2022-05-24 11:42:28</time>
      </trkpt>
      <trkpt lat="41.03598" lon="0.85062">
        <ele>344.2</ele>
        <time>2022-05-24 11:42:29</time>
      </trkpt>
      <trkpt lat="41.03596" lon="0.8506">
        <ele>344.2</ele>
        <time>2022-05-24 11:42:30</time>
      </trkpt>
      <trkpt lat="41.03596" lon="0.85058">
        <ele>344.4</ele>
        <time>2022-05-24 11:42:31</time>
      </trkpt>
      <trkpt lat="41.03595" lon="0.85056">
        <ele>344.4</ele>
        <time>2022-05-24 11:42:32</time>
      </trkpt>
      <trkpt lat="41.03595" lon="0.85054">
        <ele>344.6</ele>
        <time>2022-05-24 11:42:33</time>
      </trkpt>
      <trkpt lat="41.03594" lon="0.85053">
        <ele>344.6</ele>
        <time>2022-05-24 11:42:34</time>
      </trkpt>
      <trkpt lat="41.03593" lon="0.8505">
        <ele>344.8</ele>
        <time>2022-05-24 11:42:35</time>
      </trkpt>
      <trkpt lat="41.03592" lon="0.85048">
        <ele>344.8</ele>
        <time>2022-05-24 11:42:36</time>
      </trkpt>
      <trkpt lat="41.03592" lon="0.85046">
        <ele>344.8</ele>
        <time>2022-05-24 11:42:37</time>
      </trkpt>
      <trkpt lat="41.03591" lon="0.85044">
        <ele>345</ele>
        <time>2022-05-24 11:42:38</time>
      </trkpt>
      <trkpt lat="41.03591" lon="0.85041">
        <ele>345</ele>
        <time>2022-05-24 11:42:39</time>
      </trkpt>
      <trkpt lat="41.0359" lon="0.85039">
        <ele>345.2</ele>
        <time>2022-05-24 11:42:40</time>
      </trkpt>
      <trkpt lat="41.03589" lon="0.85037">
        <ele>345.4</ele>
        <time>2022-05-24 11:42:41</time>
      </trkpt>
      <trkpt lat="41.03588" lon="0.85035">
        <ele>345.4</ele>
        <time>2022-05-24 11:42:42</time>
      </trkpt>
      <trkpt lat="41.03588" lon="0.85033">
        <ele>345.6</ele>
        <time>2022-05-24 11:42:43</time>
      </trkpt>
      <trkpt lat="41.03587" lon="0.85031">
        <ele>345.6</ele>
        <time>2022-05-24 11:42:44</time>
      </trkpt>
      <trkpt lat="41.03585" lon="0.85029">
        <ele>345.8</ele>
        <time>2022-05-24 11:42:45</time>
      </trkpt>
      <trkpt lat="41.03585" lon="0.85027">
        <ele>346</ele>
        <time>2022-05-24 11:42:46</time>
      </trkpt>
      <trkpt lat="41.03584" lon="0.85025">
        <ele>346</ele>
        <time>2022-05-24 11:42:47</time>
      </trkpt>
      <trkpt lat="41.03584" lon="0.85022">
        <ele>346.2</ele>
        <time>2022-05-24 11:42:48</time>
      </trkpt>
      <trkpt lat="41.03583" lon="0.8502">
        <ele>346.2</ele>
        <time>2022-05-24 11:42:49</time>
      </trkpt>
      <trkpt lat="41.03583" lon="0.85018">
        <ele>346.4</ele>
        <time>2022-05-24 11:42:50</time>
      </trkpt>
      <trkpt lat="41.03582" lon="0.85015">
        <ele>346.6</ele>
        <time>2022-05-24 11:42:51</time>
      </trkpt>
      <trkpt lat="41.03582" lon="0.85013">
        <ele>346.6</ele>
        <time>2022-05-24 11:42:52</time>
      </trkpt>
      <trkpt lat="41.03581" lon="0.85011">
        <ele>346.8</ele>
        <time>2022-05-24 11:42:53</time>
      </trkpt>
      <trkpt lat="41.0358" lon="0.85009">
        <ele>347</ele>
        <time>2022-05-24 11:42:54</time>
      </trkpt>
      <trkpt lat="41.0358" lon="0.85007">
        <ele>347.2</ele>
        <time>2022-05-24 11:42:55</time>
      </trkpt>
      <trkpt lat="41.03579" lon="0.85005">
        <ele>347.2</ele>
        <time>2022-05-24 11:42:56</time>
      </trkpt>
      <trkpt lat="41.03578" lon="0.85003">
        <ele>347.4</ele>
        <time>2022-05-24 11:42:57</time>
      </trkpt>
      <trkpt lat="41.03577" lon="0.85001">
        <ele>347.4</ele>
        <time>2022-05-24 11:42:58</time>
      </trkpt>
      <trkpt lat="41.03577" lon="0.85">
        <ele>347.6</ele>
        <time>2022-05-24 11:42:59</time>
      </trkpt>
      <trkpt lat="41.03576" lon="0.84998">
        <ele>347.8</ele>
        <time>2022-05-24 11:43:00</time>
      </trkpt>
      <trkpt lat="41.03575" lon="0.84996">
        <ele>347.8</ele>
        <time>2022-05-24 11:43:01</time>
      </trkpt>
      <trkpt lat="41.03574" lon="0.84994">
        <ele>347.8</ele>
        <time>2022-05-24 11:43:02</time>
      </trkpt>
      <trkpt lat="41.03574" lon="0.84991">
        <ele>348</ele>
        <time>2022-05-24 11:43:03</time>
      </trkpt>
      <trkpt lat="41.03573" lon="0.84989">
        <ele>348</ele>
        <time>2022-05-24 11:43:04</time>
      </trkpt>
      <trkpt lat="41.03572" lon="0.84987">
        <ele>348.2</ele>
        <time>2022-05-24 11:43:05</time>
      </trkpt>
      <trkpt lat="41.03571" lon="0.84985">
        <ele>348.4</ele>
        <time>2022-05-24 11:43:06</time>
      </trkpt>
      <trkpt lat="41.0357" lon="0.84984">
        <ele>348.4</ele>
        <time>2022-05-24 11:43:07</time>
      </trkpt>
      <trkpt lat="41.03569" lon="0.84982">
        <ele>348.6</ele>
        <time>2022-05-24 11:43:08</time>
      </trkpt>
      <trkpt lat="41.03569" lon="0.8498">
        <ele>348.8</ele>
        <time>2022-05-24 11:43:09</time>
      </trkpt>
      <trkpt lat="41.03568" lon="0.84978">
        <ele>348.8</ele>
        <time>2022-05-24 11:43:10</time>
      </trkpt>
      <trkpt lat="41.03567" lon="0.84976">
        <ele>349</ele>
        <time>2022-05-24 11:43:11</time>
      </trkpt>
      <trkpt lat="41.03566" lon="0.84974">
        <ele>349.2</ele>
        <time>2022-05-24 11:43:12</time>
      </trkpt>
      <trkpt lat="41.03566" lon="0.84972">
        <ele>349.4</ele>
        <time>2022-05-24 11:43:13</time>
      </trkpt>
      <trkpt lat="41.03566" lon="0.8497">
        <ele>349.4</ele>
        <time>2022-05-24 11:43:14</time>
      </trkpt>
      <trkpt lat="41.03565" lon="0.84968">
        <ele>349.6</ele>
        <time>2022-05-24 11:43:15</time>
      </trkpt>
      <trkpt lat="41.03565" lon="0.84965">
        <ele>349.8</ele>
        <time>2022-05-24 11:43:16</time>
      </trkpt>
      <trkpt lat="41.03564" lon="0.84964">
        <ele>349.8</ele>
        <time>2022-05-24 11:43:17</time>
      </trkpt>
      <trkpt lat="41.03563" lon="0.84961">
        <ele>350</ele>
        <time>2022-05-24 11:43:18</time>
      </trkpt>
      <trkpt lat="41.03562" lon="0.84958">
        <ele>350.2</ele>
        <time>2022-05-24 11:43:19</time>
      </trkpt>
      <trkpt lat="41.03561" lon="0.84956">
        <ele>350.2</ele>
        <time>2022-05-24 11:43:20</time>
      </trkpt>
      <trkpt lat="41.03561" lon="0.84954">
        <ele>350.4</ele>
        <time>2022-05-24 11:43:21</time>
      </trkpt>
      <trkpt lat="41.03559" lon="0.84952">
        <ele>350.4</ele>
        <time>2022-05-24 11:43:22</time>
      </trkpt>
      <trkpt lat="41.03558" lon="0.84951">
        <ele>350.6</ele>
        <time>2022-05-24 11:43:23</time>
      </trkpt>
      <trkpt lat="41.03557" lon="0.84949">
        <ele>350.6</ele>
        <time>2022-05-24 11:43:24</time>
      </trkpt>
      <trkpt lat="41.03557" lon="0.84946">
        <ele>350.8</ele>
        <time>2022-05-24 11:43:25</time>
      </trkpt>
      <trkpt lat="41.03556" lon="0.84944">
        <ele>350.8</ele>
        <time>2022-05-24 11:43:26</time>
      </trkpt>
      <trkpt lat="41.03556" lon="0.84941">
        <ele>351</ele>
        <time>2022-05-24 11:43:27</time>
      </trkpt>
      <trkpt lat="41.03556" lon="0.84938">
        <ele>351</ele>
        <time>2022-05-24 11:43:28</time>
      </trkpt>
      <trkpt lat="41.03556" lon="0.84936">
        <ele>351.2</ele>
        <time>2022-05-24 11:43:29</time>
      </trkpt>
      <trkpt lat="41.03556" lon="0.84933">
        <ele>351.4</ele>
        <time>2022-05-24 11:43:30</time>
      </trkpt>
      <trkpt lat="41.03555" lon="0.84931">
        <ele>351.4</ele>
        <time>2022-05-24 11:43:31</time>
      </trkpt>
      <trkpt lat="41.03555" lon="0.8493">
        <ele>351.6</ele>
        <time>2022-05-24 11:43:32</time>
      </trkpt>
      <trkpt lat="41.03555" lon="0.84928">
        <ele>351.8</ele>
        <time>2022-05-24 11:43:33</time>
      </trkpt>
      <trkpt lat="41.03555" lon="0.84926">
        <ele>351.8</ele>
        <time>2022-05-24 11:43:34</time>
      </trkpt>
      <trkpt lat="41.03553" lon="0.84924">
        <ele>352</ele>
        <time>2022-05-24 11:43:35</time>
      </trkpt>
      <trkpt lat="41.03552" lon="0.84922">
        <ele>352.2</ele>
        <time>2022-05-24 11:43:36</time>
      </trkpt>
      <trkpt lat="41.03551" lon="0.84919">
        <ele>352.2</ele>
        <time>2022-05-24 11:43:37</time>
      </trkpt>
      <trkpt lat="41.0355" lon="0.84917">
        <ele>352.4</ele>
        <time>2022-05-24 11:43:38</time>
      </trkpt>
      <trkpt lat="41.0355" lon="0.84914">
        <ele>352.6</ele>
        <time>2022-05-24 11:43:39</time>
      </trkpt>
      <trkpt lat="41.0355" lon="0.84912">
        <ele>352.8</ele>
        <time>2022-05-24 11:43:40</time>
      </trkpt>
      <trkpt lat="41.03549" lon="0.8491">
        <ele>352.8</ele>
        <time>2022-05-24 11:43:41</time>
      </trkpt>
      <trkpt lat="41.03549" lon="0.84907">
        <ele>353</ele>
        <time>2022-05-24 11:43:42</time>
      </trkpt>
      <trkpt lat="41.03548" lon="0.84905">
        <ele>353.2</ele>
        <time>2022-05-24 11:43:43</time>
      </trkpt>
      <trkpt lat="41.03547" lon="0.84902">
        <ele>353.4</ele>
        <time>2022-05-24 11:43:44</time>
      </trkpt>
      <trkpt lat="41.03546" lon="0.849">
        <ele>353.4</ele>
        <time>2022-05-24 11:43:45</time>
      </trkpt>
      <trkpt lat="41.03545" lon="0.84898">
        <ele>353.6</ele>
        <time>2022-05-24 11:43:46</time>
      </trkpt>
      <trkpt lat="41.03545" lon="0.84896">
        <ele>353.8</ele>
        <time>2022-05-24 11:43:47</time>
      </trkpt>
      <trkpt lat="41.03544" lon="0.84894">
        <ele>354</ele>
        <time>2022-05-24 11:43:48</time>
      </trkpt>
      <trkpt lat="41.03544" lon="0.84891">
        <ele>354.2</ele>
        <time>2022-05-24 11:43:49</time>
      </trkpt>
      <trkpt lat="41.03543" lon="0.84889">
        <ele>354.2</ele>
        <time>2022-05-24 11:43:50</time>
      </trkpt>
      <trkpt lat="41.03543" lon="0.84887">
        <ele>354.4</ele>
        <time>2022-05-24 11:43:51</time>
      </trkpt>
      <trkpt lat="41.03542" lon="0.84885">
        <ele>354.6</ele>
        <time>2022-05-24 11:43:52</time>
      </trkpt>
      <trkpt lat="41.03542" lon="0.84882">
        <ele>354.6</ele>
        <time>2022-05-24 11:43:53</time>
      </trkpt>
      <trkpt lat="41.03541" lon="0.8488">
        <ele>354.8</ele>
        <time>2022-05-24 11:43:54</time>
      </trkpt>
      <trkpt lat="41.03541" lon="0.84877">
        <ele>354.8</ele>
        <time>2022-05-24 11:43:55</time>
      </trkpt>
      <trkpt lat="41.0354" lon="0.84873">
        <ele>355</ele>
        <time>2022-05-24 11:43:56</time>
      </trkpt>
      <trkpt lat="41.0354" lon="0.8487">
        <ele>355</ele>
        <time>2022-05-24 11:43:57</time>
      </trkpt>
      <trkpt lat="41.0354" lon="0.84868">
        <ele>355</ele>
        <time>2022-05-24 11:43:58</time>
      </trkpt>
      <trkpt lat="41.0354" lon="0.84865">
        <ele>355.2</ele>
        <time>2022-05-24 11:43:59</time>
      </trkpt>
      <trkpt lat="41.0354" lon="0.84862">
        <ele>355.2</ele>
        <time>2022-05-24 11:44:00</time>
      </trkpt>
      <trkpt lat="41.0354" lon="0.84859">
        <ele>355.2</ele>
        <time>2022-05-24 11:44:01</time>
      </trkpt>
      <trkpt lat="41.03542" lon="0.84856">
        <ele>355.4</ele>
        <time>2022-05-24 11:44:02</time>
      </trkpt>
      <trkpt lat="41.03542" lon="0.84852">
        <ele>355.4</ele>
        <time>2022-05-24 11:44:03</time>
      </trkpt>
      <trkpt lat="41.03543" lon="0.84849">
        <ele>355.4</ele>
        <time>2022-05-24 11:44:04</time>
      </trkpt>
      <trkpt lat="41.03544" lon="0.84845">
        <ele>355.6</ele>
        <time>2022-05-24 11:44:05</time>
      </trkpt>
      <trkpt lat="41.03545" lon="0.84842">
        <ele>355.6</ele>
        <time>2022-05-24 11:44:06</time>
      </trkpt>
      <trkpt lat="41.03545" lon="0.84838">
        <ele>355.6</ele>
        <time>2022-05-24 11:44:07</time>
      </trkpt>
      <trkpt lat="41.03546" lon="0.84835">
        <ele>355.8</ele>
        <time>2022-05-24 11:44:08</time>
      </trkpt>
      <trkpt lat="41.03547" lon="0.84832">
        <ele>355.8</ele>
        <time>2022-05-24 11:44:09</time>
      </trkpt>
      <trkpt lat="41.03548" lon="0.84829">
        <ele>355.8</ele>
        <time>2022-05-24 11:44:10</time>
      </trkpt>
      <trkpt lat="41.0355" lon="0.84826">
        <ele>356</ele>
        <time>2022-05-24 11:44:11</time>
      </trkpt>
      <trkpt lat="41.03551" lon="0.84823">
        <ele>356</ele>
        <time>2022-05-24 11:44:12</time>
      </trkpt>
      <trkpt lat="41.03552" lon="0.8482">
        <ele>356</ele>
        <time>2022-05-24 11:44:13</time>
      </trkpt>
      <trkpt lat="41.03553" lon="0.84817">
        <ele>356.2</ele>
        <time>2022-05-24 11:44:14</time>
      </trkpt>
      <trkpt lat="41.03554" lon="0.84815">
        <ele>356.2</ele>
        <time>2022-05-24 11:44:15</time>
      </trkpt>
      <trkpt lat="41.03555" lon="0.84813">
        <ele>356.4</ele>
        <time>2022-05-24 11:44:16</time>
      </trkpt>
      <trkpt lat="41.03556" lon="0.84811">
        <ele>356.4</ele>
        <time>2022-05-24 11:44:17</time>
      </trkpt>
      <trkpt lat="41.03556" lon="0.84809">
        <ele>356.4</ele>
        <time>2022-05-24 11:44:18</time>
      </trkpt>
      <trkpt lat="41.03557" lon="0.84807">
        <ele>356.6</ele>
        <time>2022-05-24 11:44:19</time>
      </trkpt>
      <trkpt lat="41.03558" lon="0.84805">
        <ele>356.6</ele>
        <time>2022-05-24 11:44:20</time>
      </trkpt>
      <trkpt lat="41.03559" lon="0.84803">
        <ele>356.6</ele>
        <time>2022-05-24 11:44:21</time>
      </trkpt>
      <trkpt lat="41.03561" lon="0.84801">
        <ele>356.6</ele>
        <time>2022-05-24 11:44:22</time>
      </trkpt>
      <trkpt lat="41.03562" lon="0.84799">
        <ele>356.8</ele>
        <time>2022-05-24 11:44:23</time>
      </trkpt>
      <trkpt lat="41.03563" lon="0.84798">
        <ele>356.8</ele>
        <time>2022-05-24 11:44:24</time>
      </trkpt>
      <trkpt lat="41.03565" lon="0.84796">
        <ele>356.8</ele>
        <time>2022-05-24 11:44:25</time>
      </trkpt>
      <trkpt lat="41.03566" lon="0.84794">
        <ele>356.8</ele>
        <time>2022-05-24 11:44:26</time>
      </trkpt>
      <trkpt lat="41.03569" lon="0.84793">
        <ele>357</ele>
        <time>2022-05-24 11:44:27</time>
      </trkpt>
      <trkpt lat="41.03571" lon="0.84792">
        <ele>357</ele>
        <time>2022-05-24 11:44:28</time>
      </trkpt>
      <trkpt lat="41.03573" lon="0.8479">
        <ele>357.2</ele>
        <time>2022-05-24 11:44:29</time>
      </trkpt>
      <trkpt lat="41.03574" lon="0.84788">
        <ele>357.2</ele>
        <time>2022-05-24 11:44:30</time>
      </trkpt>
      <trkpt lat="41.03576" lon="0.84786">
        <ele>357.4</ele>
        <time>2022-05-24 11:44:31</time>
      </trkpt>
      <trkpt lat="41.03577" lon="0.84785">
        <ele>357.4</ele>
        <time>2022-05-24 11:44:32</time>
      </trkpt>
      <trkpt lat="41.03579" lon="0.84783">
        <ele>357.6</ele>
        <time>2022-05-24 11:44:33</time>
      </trkpt>
      <trkpt lat="41.0358" lon="0.84782">
        <ele>357.6</ele>
        <time>2022-05-24 11:44:34</time>
      </trkpt>
      <trkpt lat="41.03581" lon="0.8478">
        <ele>357.8</ele>
        <time>2022-05-24 11:44:35</time>
      </trkpt>
      <trkpt lat="41.03582" lon="0.84779">
        <ele>358</ele>
        <time>2022-05-24 11:44:36</time>
      </trkpt>
      <trkpt lat="41.03585" lon="0.84778">
        <ele>358</ele>
        <time>2022-05-24 11:44:37</time>
      </trkpt>
      <trkpt lat="41.03586" lon="0.84777">
        <ele>358.2</ele>
        <time>2022-05-24 11:44:38</time>
      </trkpt>
      <trkpt lat="41.03588" lon="0.84776">
        <ele>358.2</ele>
        <time>2022-05-24 11:44:39</time>
      </trkpt>
      <trkpt lat="41.0359" lon="0.84775">
        <ele>358.2</ele>
        <time>2022-05-24 11:44:40</time>
      </trkpt>
      <trkpt lat="41.03592" lon="0.84774">
        <ele>358.4</ele>
        <time>2022-05-24 11:44:41</time>
      </trkpt>
      <trkpt lat="41.03594" lon="0.84772">
        <ele>358.4</ele>
        <time>2022-05-24 11:44:42</time>
      </trkpt>
      <trkpt lat="41.03597" lon="0.8477">
        <ele>358.4</ele>
        <time>2022-05-24 11:44:43</time>
      </trkpt>
      <trkpt lat="41.03599" lon="0.84768">
        <ele>358.4</ele>
        <time>2022-05-24 11:44:44</time>
      </trkpt>
      <trkpt lat="41.03601" lon="0.84765">
        <ele>358.4</ele>
        <time>2022-05-24 11:44:45</time>
      </trkpt>
      <trkpt lat="41.03604" lon="0.84763">
        <ele>358.4</ele>
        <time>2022-05-24 11:44:46</time>
      </trkpt>
      <trkpt lat="41.03606" lon="0.84761">
        <ele>358.4</ele>
        <time>2022-05-24 11:44:47</time>
      </trkpt>
      <trkpt lat="41.03609" lon="0.84759">
        <ele>358.4</ele>
        <time>2022-05-24 11:44:48</time>
      </trkpt>
      <trkpt lat="41.03611" lon="0.84757">
        <ele>358.4</ele>
        <time>2022-05-24 11:44:49</time>
      </trkpt>
      <trkpt lat="41.03614" lon="0.84755">
        <ele>358.6</ele>
        <time>2022-05-24 11:44:50</time>
      </trkpt>
      <trkpt lat="41.03616" lon="0.84754">
        <ele>358.6</ele>
        <time>2022-05-24 11:44:51</time>
      </trkpt>
      <trkpt lat="41.03618" lon="0.84752">
        <ele>358.6</ele>
        <time>2022-05-24 11:44:52</time>
      </trkpt>
      <trkpt lat="41.03621" lon="0.8475">
        <ele>358.8</ele>
        <time>2022-05-24 11:44:53</time>
      </trkpt>
      <trkpt lat="41.03623" lon="0.84748">
        <ele>358.8</ele>
        <time>2022-05-24 11:44:54</time>
      </trkpt>
      <trkpt lat="41.03625" lon="0.84746">
        <ele>359</ele>
        <time>2022-05-24 11:44:55</time>
      </trkpt>
      <trkpt lat="41.03627" lon="0.84744">
        <ele>359.2</ele>
        <time>2022-05-24 11:44:56</time>
      </trkpt>
      <trkpt lat="41.03629" lon="0.84742">
        <ele>359.2</ele>
        <time>2022-05-24 11:44:57</time>
      </trkpt>
      <trkpt lat="41.03631" lon="0.8474">
        <ele>359.4</ele>
        <time>2022-05-24 11:44:58</time>
      </trkpt>
      <trkpt lat="41.03633" lon="0.84738">
        <ele>359.4</ele>
        <time>2022-05-24 11:44:59</time>
      </trkpt>
      <trkpt lat="41.03635" lon="0.84736">
        <ele>359.6</ele>
        <time>2022-05-24 11:45:00</time>
      </trkpt>
      <trkpt lat="41.03638" lon="0.84734">
        <ele>359.8</ele>
        <time>2022-05-24 11:45:01</time>
      </trkpt>
      <trkpt lat="41.0364" lon="0.84732">
        <ele>359.8</ele>
        <time>2022-05-24 11:45:02</time>
      </trkpt>
      <trkpt lat="41.03643" lon="0.84731">
        <ele>359.8</ele>
        <time>2022-05-24 11:45:03</time>
      </trkpt>
      <trkpt lat="41.03645" lon="0.84729">
        <ele>360</ele>
        <time>2022-05-24 11:45:04</time>
      </trkpt>
      <trkpt lat="41.03648" lon="0.84727">
        <ele>360</ele>
        <time>2022-05-24 11:45:05</time>
      </trkpt>
      <trkpt lat="41.0365" lon="0.84725">
        <ele>360.2</ele>
        <time>2022-05-24 11:45:06</time>
      </trkpt>
      <trkpt lat="41.03652" lon="0.84724">
        <ele>360.4</ele>
        <time>2022-05-24 11:45:07</time>
      </trkpt>
      <trkpt lat="41.03654" lon="0.84722">
        <ele>360.4</ele>
        <time>2022-05-24 11:45:08</time>
      </trkpt>
      <trkpt lat="41.03656" lon="0.8472">
        <ele>360.6</ele>
        <time>2022-05-24 11:45:09</time>
      </trkpt>
      <trkpt lat="41.03659" lon="0.84718">
        <ele>360.8</ele>
        <time>2022-05-24 11:45:10</time>
      </trkpt>
      <trkpt lat="41.03661" lon="0.84716">
        <ele>360.8</ele>
        <time>2022-05-24 11:45:11</time>
      </trkpt>
      <trkpt lat="41.03663" lon="0.84715">
        <ele>361</ele>
        <time>2022-05-24 11:45:12</time>
      </trkpt>
      <trkpt lat="41.03665" lon="0.84712">
        <ele>361</ele>
        <time>2022-05-24 11:45:13</time>
      </trkpt>
      <trkpt lat="41.03667" lon="0.8471">
        <ele>361</ele>
        <time>2022-05-24 11:45:14</time>
      </trkpt>
      <trkpt lat="41.03669" lon="0.84708">
        <ele>361.2</ele>
        <time>2022-05-24 11:45:15</time>
      </trkpt>
      <trkpt lat="41.03671" lon="0.84706">
        <ele>361.4</ele>
        <time>2022-05-24 11:45:16</time>
      </trkpt>
      <trkpt lat="41.03673" lon="0.84703">
        <ele>361.4</ele>
        <time>2022-05-24 11:45:17</time>
      </trkpt>
      <trkpt lat="41.03675" lon="0.84701">
        <ele>361.4</ele>
        <time>2022-05-24 11:45:18</time>
      </trkpt>
      <trkpt lat="41.03678" lon="0.84698">
        <ele>361.4</ele>
        <time>2022-05-24 11:45:19</time>
      </trkpt>
      <trkpt lat="41.0368" lon="0.84696">
        <ele>361.4</ele>
        <time>2022-05-24 11:45:20</time>
      </trkpt>
      <trkpt lat="41.03683" lon="0.84693">
        <ele>361.6</ele>
        <time>2022-05-24 11:45:21</time>
      </trkpt>
      <trkpt lat="41.03685" lon="0.84691">
        <ele>361.8</ele>
        <time>2022-05-24 11:45:22</time>
      </trkpt>
      <trkpt lat="41.03687" lon="0.84689">
        <ele>361.8</ele>
        <time>2022-05-24 11:45:23</time>
      </trkpt>
      <trkpt lat="41.03689" lon="0.84687">
        <ele>361.8</ele>
        <time>2022-05-24 11:45:24</time>
      </trkpt>
      <trkpt lat="41.03691" lon="0.84685">
        <ele>362.2</ele>
        <time>2022-05-24 11:45:25</time>
      </trkpt>
      <trkpt lat="41.03694" lon="0.84683">
        <ele>362.4</ele>
        <time>2022-05-24 11:45:26</time>
      </trkpt>
      <trkpt lat="41.03696" lon="0.8468">
        <ele>362.6</ele>
        <time>2022-05-24 11:45:27</time>
      </trkpt>
      <trkpt lat="41.03698" lon="0.84678">
        <ele>362.8</ele>
        <time>2022-05-24 11:45:28</time>
      </trkpt>
      <trkpt lat="41.03701" lon="0.84676">
        <ele>363</ele>
        <time>2022-05-24 11:45:29</time>
      </trkpt>
      <trkpt lat="41.03703" lon="0.84674">
        <ele>363.2</ele>
        <time>2022-05-24 11:45:30</time>
      </trkpt>
      <trkpt lat="41.03705" lon="0.84672">
        <ele>363.4</ele>
        <time>2022-05-24 11:45:31</time>
      </trkpt>
      <trkpt lat="41.03707" lon="0.8467">
        <ele>363.4</ele>
        <time>2022-05-24 11:45:32</time>
      </trkpt>
      <trkpt lat="41.03709" lon="0.84668">
        <ele>363.4</ele>
        <time>2022-05-24 11:45:33</time>
      </trkpt>
      <trkpt lat="41.03711" lon="0.84665">
        <ele>363.6</ele>
        <time>2022-05-24 11:45:34</time>
      </trkpt>
      <trkpt lat="41.03713" lon="0.84663">
        <ele>363.8</ele>
        <time>2022-05-24 11:45:35</time>
      </trkpt>
      <trkpt lat="41.03714" lon="0.84661">
        <ele>363.8</ele>
        <time>2022-05-24 11:45:36</time>
      </trkpt>
      <trkpt lat="41.03716" lon="0.84658">
        <ele>364</ele>
        <time>2022-05-24 11:45:37</time>
      </trkpt>
      <trkpt lat="41.03718" lon="0.84656">
        <ele>364</ele>
        <time>2022-05-24 11:45:38</time>
      </trkpt>
      <trkpt lat="41.0372" lon="0.84654">
        <ele>364.2</ele>
        <time>2022-05-24 11:45:39</time>
      </trkpt>
      <trkpt lat="41.03721" lon="0.84652">
        <ele>364.2</ele>
        <time>2022-05-24 11:45:40</time>
      </trkpt>
      <trkpt lat="41.03723" lon="0.84649">
        <ele>364.4</ele>
        <time>2022-05-24 11:45:41</time>
      </trkpt>
      <trkpt lat="41.03725" lon="0.84648">
        <ele>364.6</ele>
        <time>2022-05-24 11:45:42</time>
      </trkpt>
      <trkpt lat="41.03727" lon="0.84646">
        <ele>364.6</ele>
        <time>2022-05-24 11:45:43</time>
      </trkpt>
      <trkpt lat="41.03728" lon="0.84644">
        <ele>364.8</ele>
        <time>2022-05-24 11:45:44</time>
      </trkpt>
      <trkpt lat="41.0373" lon="0.84642">
        <ele>365</ele>
        <time>2022-05-24 11:45:45</time>
      </trkpt>
      <trkpt lat="41.03732" lon="0.84639">
        <ele>365</ele>
        <time>2022-05-24 11:45:46</time>
      </trkpt>
      <trkpt lat="41.03734" lon="0.84638">
        <ele>365.2</ele>
        <time>2022-05-24 11:45:47</time>
      </trkpt>
      <trkpt lat="41.03735" lon="0.84636">
        <ele>365.2</ele>
        <time>2022-05-24 11:45:48</time>
      </trkpt>
      <trkpt lat="41.03738" lon="0.84634">
        <ele>365.4</ele>
        <time>2022-05-24 11:45:49</time>
      </trkpt>
      <trkpt lat="41.03739" lon="0.84632">
        <ele>365.4</ele>
        <time>2022-05-24 11:45:50</time>
      </trkpt>
      <trkpt lat="41.03741" lon="0.8463">
        <ele>365.6</ele>
        <time>2022-05-24 11:45:51</time>
      </trkpt>
      <trkpt lat="41.03743" lon="0.84628">
        <ele>365.6</ele>
        <time>2022-05-24 11:45:52</time>
      </trkpt>
      <trkpt lat="41.03745" lon="0.84626">
        <ele>365.8</ele>
        <time>2022-05-24 11:45:53</time>
      </trkpt>
      <trkpt lat="41.03747" lon="0.84624">
        <ele>365.8</ele>
        <time>2022-05-24 11:45:54</time>
      </trkpt>
      <trkpt lat="41.03749" lon="0.84621">
        <ele>366</ele>
        <time>2022-05-24 11:45:55</time>
      </trkpt>
      <trkpt lat="41.0375" lon="0.8462">
        <ele>366</ele>
        <time>2022-05-24 11:45:56</time>
      </trkpt>
      <trkpt lat="41.03752" lon="0.84617">
        <ele>366.2</ele>
        <time>2022-05-24 11:45:57</time>
      </trkpt>
      <trkpt lat="41.03754" lon="0.84615">
        <ele>366.2</ele>
        <time>2022-05-24 11:45:58</time>
      </trkpt>
      <trkpt lat="41.03756" lon="0.84613">
        <ele>366.2</ele>
        <time>2022-05-24 11:45:59</time>
      </trkpt>
      <trkpt lat="41.03757" lon="0.84611">
        <ele>366.4</ele>
        <time>2022-05-24 11:46:00</time>
      </trkpt>
      <trkpt lat="41.0376" lon="0.84609">
        <ele>366.4</ele>
        <time>2022-05-24 11:46:01</time>
      </trkpt>
      <trkpt lat="41.03762" lon="0.84607">
        <ele>366.4</ele>
        <time>2022-05-24 11:46:02</time>
      </trkpt>
      <trkpt lat="41.03763" lon="0.84605">
        <ele>366.6</ele>
        <time>2022-05-24 11:46:03</time>
      </trkpt>
      <trkpt lat="41.03765" lon="0.84603">
        <ele>366.8</ele>
        <time>2022-05-24 11:46:04</time>
      </trkpt>
      <trkpt lat="41.03767" lon="0.84601">
        <ele>366.8</ele>
        <time>2022-05-24 11:46:05</time>
      </trkpt>
      <trkpt lat="41.03769" lon="0.84599">
        <ele>367</ele>
        <time>2022-05-24 11:46:06</time>
      </trkpt>
      <trkpt lat="41.0377" lon="0.84597">
        <ele>367</ele>
        <time>2022-05-24 11:46:07</time>
      </trkpt>
      <trkpt lat="41.03772" lon="0.84595">
        <ele>367.2</ele>
        <time>2022-05-24 11:46:08</time>
      </trkpt>
      <trkpt lat="41.03774" lon="0.84593">
        <ele>367.2</ele>
        <time>2022-05-24 11:46:09</time>
      </trkpt>
      <trkpt lat="41.03776" lon="0.84591">
        <ele>367.4</ele>
        <time>2022-05-24 11:46:10</time>
      </trkpt>
      <trkpt lat="41.03777" lon="0.84589">
        <ele>367.6</ele>
        <time>2022-05-24 11:46:11</time>
      </trkpt>
      <trkpt lat="41.03779" lon="0.84587">
        <ele>367.6</ele>
        <time>2022-05-24 11:46:12</time>
      </trkpt>
      <trkpt lat="41.03781" lon="0.84585">
        <ele>367.8</ele>
        <time>2022-05-24 11:46:13</time>
      </trkpt>
      <trkpt lat="41.03782" lon="0.84583">
        <ele>367.8</ele>
        <time>2022-05-24 11:46:14</time>
      </trkpt>
      <trkpt lat="41.03784" lon="0.84581">
        <ele>368</ele>
        <time>2022-05-24 11:46:15</time>
      </trkpt>
      <trkpt lat="41.03786" lon="0.84579">
        <ele>368</ele>
        <time>2022-05-24 11:46:16</time>
      </trkpt>
      <trkpt lat="41.03787" lon="0.84577">
        <ele>368.2</ele>
        <time>2022-05-24 11:46:17</time>
      </trkpt>
      <trkpt lat="41.03789" lon="0.84574">
        <ele>368.2</ele>
        <time>2022-05-24 11:46:18</time>
      </trkpt>
      <trkpt lat="41.03791" lon="0.84572">
        <ele>368.2</ele>
        <time>2022-05-24 11:46:19</time>
      </trkpt>
      <trkpt lat="41.03792" lon="0.84569">
        <ele>368.4</ele>
        <time>2022-05-24 11:46:20</time>
      </trkpt>
      <trkpt lat="41.03793" lon="0.84567">
        <ele>368.4</ele>
        <time>2022-05-24 11:46:21</time>
      </trkpt>
      <trkpt lat="41.03794" lon="0.84563">
        <ele>368.6</ele>
        <time>2022-05-24 11:46:22</time>
      </trkpt>
      <trkpt lat="41.03794" lon="0.8456">
        <ele>368.8</ele>
        <time>2022-05-24 11:46:23</time>
      </trkpt>
      <trkpt lat="41.03795" lon="0.84557">
        <ele>368.8</ele>
        <time>2022-05-24 11:46:24</time>
      </trkpt>
      <trkpt lat="41.03796" lon="0.84555">
        <ele>369</ele>
        <time>2022-05-24 11:46:25</time>
      </trkpt>
      <trkpt lat="41.03796" lon="0.84551">
        <ele>369.2</ele>
        <time>2022-05-24 11:46:26</time>
      </trkpt>
      <trkpt lat="41.03796" lon="0.84548">
        <ele>369.4</ele>
        <time>2022-05-24 11:46:27</time>
      </trkpt>
      <trkpt lat="41.03796" lon="0.84545">
        <ele>369.4</ele>
        <time>2022-05-24 11:46:28</time>
      </trkpt>
      <trkpt lat="41.03796" lon="0.84542">
        <ele>369.6</ele>
        <time>2022-05-24 11:46:29</time>
      </trkpt>
      <trkpt lat="41.03796" lon="0.84539">
        <ele>369.8</ele>
        <time>2022-05-24 11:46:30</time>
      </trkpt>
      <trkpt lat="41.03796" lon="0.84536">
        <ele>370</ele>
        <time>2022-05-24 11:46:31</time>
      </trkpt>
      <trkpt lat="41.03796" lon="0.84533">
        <ele>370.2</ele>
        <time>2022-05-24 11:46:32</time>
      </trkpt>
      <trkpt lat="41.03796" lon="0.8453">
        <ele>370.4</ele>
        <time>2022-05-24 11:46:33</time>
      </trkpt>
      <trkpt lat="41.03796" lon="0.84526">
        <ele>370.6</ele>
        <time>2022-05-24 11:46:34</time>
      </trkpt>
      <trkpt lat="41.03795" lon="0.84523">
        <ele>370.8</ele>
        <time>2022-05-24 11:46:35</time>
      </trkpt>
      <trkpt lat="41.03795" lon="0.8452">
        <ele>371</ele>
        <time>2022-05-24 11:46:36</time>
      </trkpt>
      <trkpt lat="41.03795" lon="0.84518">
        <ele>371.2</ele>
        <time>2022-05-24 11:46:37</time>
      </trkpt>
      <trkpt lat="41.03795" lon="0.84515">
        <ele>371.2</ele>
        <time>2022-05-24 11:46:38</time>
      </trkpt>
      <trkpt lat="41.03795" lon="0.84512">
        <ele>371.4</ele>
        <time>2022-05-24 11:46:39</time>
      </trkpt>
      <trkpt lat="41.03795" lon="0.84508">
        <ele>371.6</ele>
        <time>2022-05-24 11:46:40</time>
      </trkpt>
      <trkpt lat="41.03795" lon="0.84505">
        <ele>371.8</ele>
        <time>2022-05-24 11:46:41</time>
      </trkpt>
      <trkpt lat="41.03795" lon="0.84502">
        <ele>372</ele>
        <time>2022-05-24 11:46:42</time>
      </trkpt>
      <trkpt lat="41.03794" lon="0.84499">
        <ele>372.2</ele>
        <time>2022-05-24 11:46:43</time>
      </trkpt>
      <trkpt lat="41.03794" lon="0.84496">
        <ele>372.4</ele>
        <time>2022-05-24 11:46:44</time>
      </trkpt>
      <trkpt lat="41.03794" lon="0.84494">
        <ele>372.6</ele>
        <time>2022-05-24 11:46:45</time>
      </trkpt>
      <trkpt lat="41.03794" lon="0.8449">
        <ele>372.8</ele>
        <time>2022-05-24 11:46:46</time>
      </trkpt>
      <trkpt lat="41.03793" lon="0.84488">
        <ele>372.8</ele>
        <time>2022-05-24 11:46:47</time>
      </trkpt>
      <trkpt lat="41.03793" lon="0.84485">
        <ele>373</ele>
        <time>2022-05-24 11:46:48</time>
      </trkpt>
      <trkpt lat="41.03793" lon="0.84483">
        <ele>373.2</ele>
        <time>2022-05-24 11:46:49</time>
      </trkpt>
      <trkpt lat="41.03793" lon="0.84481">
        <ele>373.4</ele>
        <time>2022-05-24 11:46:50</time>
      </trkpt>
      <trkpt lat="41.03793" lon="0.84478">
        <ele>373.6</ele>
        <time>2022-05-24 11:46:51</time>
      </trkpt>
      <trkpt lat="41.03793" lon="0.84476">
        <ele>373.6</ele>
        <time>2022-05-24 11:46:52</time>
      </trkpt>
      <trkpt lat="41.03793" lon="0.84473">
        <ele>373.8</ele>
        <time>2022-05-24 11:46:53</time>
      </trkpt>
      <trkpt lat="41.03793" lon="0.84471">
        <ele>374</ele>
        <time>2022-05-24 11:46:54</time>
      </trkpt>
      <trkpt lat="41.03793" lon="0.84469">
        <ele>374</ele>
        <time>2022-05-24 11:46:55</time>
      </trkpt>
      <trkpt lat="41.03793" lon="0.84466">
        <ele>374.2</ele>
        <time>2022-05-24 11:46:56</time>
      </trkpt>
      <trkpt lat="41.03793" lon="0.84464">
        <ele>374.2</ele>
        <time>2022-05-24 11:46:57</time>
      </trkpt>
      <trkpt lat="41.03793" lon="0.84461">
        <ele>374.4</ele>
        <time>2022-05-24 11:46:58</time>
      </trkpt>
      <trkpt lat="41.03793" lon="0.84459">
        <ele>374.6</ele>
        <time>2022-05-24 11:46:59</time>
      </trkpt>
      <trkpt lat="41.03793" lon="0.84457">
        <ele>374.6</ele>
        <time>2022-05-24 11:47:00</time>
      </trkpt>
      <trkpt lat="41.03793" lon="0.84454">
        <ele>374.8</ele>
        <time>2022-05-24 11:47:01</time>
      </trkpt>
      <trkpt lat="41.03793" lon="0.84452">
        <ele>374.8</ele>
        <time>2022-05-24 11:47:02</time>
      </trkpt>
      <trkpt lat="41.03793" lon="0.84449">
        <ele>375</ele>
        <time>2022-05-24 11:47:03</time>
      </trkpt>
      <trkpt lat="41.03793" lon="0.84447">
        <ele>375</ele>
        <time>2022-05-24 11:47:04</time>
      </trkpt>
      <trkpt lat="41.03793" lon="0.84445">
        <ele>375.2</ele>
        <time>2022-05-24 11:47:05</time>
      </trkpt>
      <trkpt lat="41.03793" lon="0.84443">
        <ele>375.4</ele>
        <time>2022-05-24 11:47:06</time>
      </trkpt>
      <trkpt lat="41.03794" lon="0.8444">
        <ele>375.4</ele>
        <time>2022-05-24 11:47:07</time>
      </trkpt>
      <trkpt lat="41.03794" lon="0.84438">
        <ele>375.6</ele>
        <time>2022-05-24 11:47:08</time>
      </trkpt>
      <trkpt lat="41.03794" lon="0.84435">
        <ele>375.8</ele>
        <time>2022-05-24 11:47:09</time>
      </trkpt>
      <trkpt lat="41.03795" lon="0.84433">
        <ele>376</ele>
        <time>2022-05-24 11:47:10</time>
      </trkpt>
      <trkpt lat="41.03795" lon="0.84431">
        <ele>376.2</ele>
        <time>2022-05-24 11:47:11</time>
      </trkpt>
      <trkpt lat="41.03796" lon="0.84429">
        <ele>376.4</ele>
        <time>2022-05-24 11:47:12</time>
      </trkpt>
      <trkpt lat="41.03797" lon="0.84426">
        <ele>376.6</ele>
        <time>2022-05-24 11:47:13</time>
      </trkpt>
      <trkpt lat="41.03798" lon="0.84424">
        <ele>376.6</ele>
        <time>2022-05-24 11:47:14</time>
      </trkpt>
      <trkpt lat="41.03799" lon="0.84422">
        <ele>376.8</ele>
        <time>2022-05-24 11:47:15</time>
      </trkpt>
      <trkpt lat="41.03799" lon="0.84419">
        <ele>377</ele>
        <time>2022-05-24 11:47:16</time>
      </trkpt>
      <trkpt lat="41.038" lon="0.84417">
        <ele>377.2</ele>
        <time>2022-05-24 11:47:17</time>
      </trkpt>
      <trkpt lat="41.03801" lon="0.84415">
        <ele>377.4</ele>
        <time>2022-05-24 11:47:18</time>
      </trkpt>
      <trkpt lat="41.03802" lon="0.84413">
        <ele>377.6</ele>
        <time>2022-05-24 11:47:19</time>
      </trkpt>
      <trkpt lat="41.03803" lon="0.84411">
        <ele>377.6</ele>
        <time>2022-05-24 11:47:20</time>
      </trkpt>
      <trkpt lat="41.03804" lon="0.84409">
        <ele>377.8</ele>
        <time>2022-05-24 11:47:21</time>
      </trkpt>
      <trkpt lat="41.03805" lon="0.84407">
        <ele>378</ele>
        <time>2022-05-24 11:47:22</time>
      </trkpt>
      <trkpt lat="41.03806" lon="0.84405">
        <ele>378.2</ele>
        <time>2022-05-24 11:47:23</time>
      </trkpt>
      <trkpt lat="41.03807" lon="0.84404">
        <ele>378.4</ele>
        <time>2022-05-24 11:47:24</time>
      </trkpt>
      <trkpt lat="41.03809" lon="0.84402">
        <ele>378.4</ele>
        <time>2022-05-24 11:47:25</time>
      </trkpt>
      <trkpt lat="41.03811" lon="0.84401">
        <ele>378.6</ele>
        <time>2022-05-24 11:47:26</time>
      </trkpt>
      <trkpt lat="41.03813" lon="0.84399">
        <ele>378.8</ele>
        <time>2022-05-24 11:47:27</time>
      </trkpt>
      <trkpt lat="41.03814" lon="0.84398">
        <ele>378.8</ele>
        <time>2022-05-24 11:47:28</time>
      </trkpt>
      <trkpt lat="41.03816" lon="0.84397">
        <ele>379</ele>
        <time>2022-05-24 11:47:29</time>
      </trkpt>
      <trkpt lat="41.03818" lon="0.84396">
        <ele>379.2</ele>
        <time>2022-05-24 11:47:30</time>
      </trkpt>
      <trkpt lat="41.0382" lon="0.84395">
        <ele>379.4</ele>
        <time>2022-05-24 11:47:31</time>
      </trkpt>
      <trkpt lat="41.03822" lon="0.84394">
        <ele>379.4</ele>
        <time>2022-05-24 11:47:32</time>
      </trkpt>
      <trkpt lat="41.03823" lon="0.84394">
        <ele>379.6</ele>
        <time>2022-05-24 11:47:33</time>
      </trkpt>
      <trkpt lat="41.03825" lon="0.84393">
        <ele>379.8</ele>
        <time>2022-05-24 11:47:34</time>
      </trkpt>
      <trkpt lat="41.03827" lon="0.84393">
        <ele>380</ele>
        <time>2022-05-24 11:47:35</time>
      </trkpt>
      <trkpt lat="41.03829" lon="0.84392">
        <ele>380.2</ele>
        <time>2022-05-24 11:47:36</time>
      </trkpt>
      <trkpt lat="41.03831" lon="0.84391">
        <ele>380.2</ele>
        <time>2022-05-24 11:47:37</time>
      </trkpt>
      <trkpt lat="41.03832" lon="0.84391">
        <ele>380.4</ele>
        <time>2022-05-24 11:47:38</time>
      </trkpt>
      <trkpt lat="41.03834" lon="0.8439">
        <ele>380.6</ele>
        <time>2022-05-24 11:47:39</time>
      </trkpt>
      <trkpt lat="41.03836" lon="0.8439">
        <ele>380.6</ele>
        <time>2022-05-24 11:47:40</time>
      </trkpt>
      <trkpt lat="41.03838" lon="0.8439">
        <ele>380.8</ele>
        <time>2022-05-24 11:47:41</time>
      </trkpt>
      <trkpt lat="41.03839" lon="0.84389">
        <ele>381</ele>
        <time>2022-05-24 11:47:42</time>
      </trkpt>
      <trkpt lat="41.03841" lon="0.84389">
        <ele>381</ele>
        <time>2022-05-24 11:47:43</time>
      </trkpt>
      <trkpt lat="41.03843" lon="0.84388">
        <ele>381.2</ele>
        <time>2022-05-24 11:47:44</time>
      </trkpt>
      <trkpt lat="41.03845" lon="0.84388">
        <ele>381.4</ele>
        <time>2022-05-24 11:47:45</time>
      </trkpt>
      <trkpt lat="41.03847" lon="0.84387">
        <ele>381.6</ele>
        <time>2022-05-24 11:47:46</time>
      </trkpt>
      <trkpt lat="41.03849" lon="0.84386">
        <ele>381.6</ele>
        <time>2022-05-24 11:47:47</time>
      </trkpt>
      <trkpt lat="41.0385" lon="0.84386">
        <ele>381.8</ele>
        <time>2022-05-24 11:47:48</time>
      </trkpt>
      <trkpt lat="41.03852" lon="0.84386">
        <ele>382</ele>
        <time>2022-05-24 11:47:49</time>
      </trkpt>
      <trkpt lat="41.03854" lon="0.84385">
        <ele>382</ele>
        <time>2022-05-24 11:47:50</time>
      </trkpt>
      <trkpt lat="41.03855" lon="0.84384">
        <ele>382.2</ele>
        <time>2022-05-24 11:47:51</time>
      </trkpt>
      <trkpt lat="41.03856" lon="0.84384">
        <ele>382.2</ele>
        <time>2022-05-24 11:47:52</time>
      </trkpt>
      <trkpt lat="41.03858" lon="0.84383">
        <ele>382.4</ele>
        <time>2022-05-24 11:47:53</time>
      </trkpt>
      <trkpt lat="41.0386" lon="0.84382">
        <ele>382.4</ele>
        <time>2022-05-24 11:47:54</time>
      </trkpt>
      <trkpt lat="41.03861" lon="0.84382">
        <ele>382.6</ele>
        <time>2022-05-24 11:47:55</time>
      </trkpt>
      <trkpt lat="41.03863" lon="0.84381">
        <ele>382.6</ele>
        <time>2022-05-24 11:47:56</time>
      </trkpt>
      <trkpt lat="41.03865" lon="0.8438">
        <ele>382.8</ele>
        <time>2022-05-24 11:47:57</time>
      </trkpt>
      <trkpt lat="41.03866" lon="0.84379">
        <ele>382.8</ele>
        <time>2022-05-24 11:47:58</time>
      </trkpt>
      <trkpt lat="41.03868" lon="0.84378">
        <ele>383</ele>
        <time>2022-05-24 11:47:59</time>
      </trkpt>
      <trkpt lat="41.03869" lon="0.84376">
        <ele>383.2</ele>
        <time>2022-05-24 11:48:00</time>
      </trkpt>
      <trkpt lat="41.0387" lon="0.84375">
        <ele>383.4</ele>
        <time>2022-05-24 11:48:01</time>
      </trkpt>
      <trkpt lat="41.03872" lon="0.84374">
        <ele>383.6</ele>
        <time>2022-05-24 11:48:02</time>
      </trkpt>
      <trkpt lat="41.03873" lon="0.84372">
        <ele>383.8</ele>
        <time>2022-05-24 11:48:03</time>
      </trkpt>
      <trkpt lat="41.03875" lon="0.84371">
        <ele>384</ele>
        <time>2022-05-24 11:48:04</time>
      </trkpt>
      <trkpt lat="41.03877" lon="0.84369">
        <ele>384</ele>
        <time>2022-05-24 11:48:05</time>
      </trkpt>
      <trkpt lat="41.03878" lon="0.84368">
        <ele>384.2</ele>
        <time>2022-05-24 11:48:06</time>
      </trkpt>
      <trkpt lat="41.0388" lon="0.84366">
        <ele>384.4</ele>
        <time>2022-05-24 11:48:07</time>
      </trkpt>
      <trkpt lat="41.03881" lon="0.84365">
        <ele>384.6</ele>
        <time>2022-05-24 11:48:08</time>
      </trkpt>
      <trkpt lat="41.03883" lon="0.84363">
        <ele>384.6</ele>
        <time>2022-05-24 11:48:09</time>
      </trkpt>
      <trkpt lat="41.03885" lon="0.84362">
        <ele>384.8</ele>
        <time>2022-05-24 11:48:10</time>
      </trkpt>
      <trkpt lat="41.03886" lon="0.84361">
        <ele>384.8</ele>
        <time>2022-05-24 11:48:11</time>
      </trkpt>
      <trkpt lat="41.03888" lon="0.84359">
        <ele>385</ele>
        <time>2022-05-24 11:48:12</time>
      </trkpt>
      <trkpt lat="41.03889" lon="0.84358">
        <ele>385.2</ele>
        <time>2022-05-24 11:48:13</time>
      </trkpt>
      <trkpt lat="41.0389" lon="0.84356">
        <ele>385.2</ele>
        <time>2022-05-24 11:48:14</time>
      </trkpt>
      <trkpt lat="41.03891" lon="0.84354">
        <ele>385.4</ele>
        <time>2022-05-24 11:48:15</time>
      </trkpt>
      <trkpt lat="41.03893" lon="0.84352">
        <ele>385.6</ele>
        <time>2022-05-24 11:48:16</time>
      </trkpt>
      <trkpt lat="41.03894" lon="0.84351">
        <ele>385.8</ele>
        <time>2022-05-24 11:48:17</time>
      </trkpt>
      <trkpt lat="41.03896" lon="0.8435">
        <ele>385.8</ele>
        <time>2022-05-24 11:48:18</time>
      </trkpt>
      <trkpt lat="41.03898" lon="0.84348">
        <ele>386</ele>
        <time>2022-05-24 11:48:19</time>
      </trkpt>
      <trkpt lat="41.039" lon="0.84347">
        <ele>386.2</ele>
        <time>2022-05-24 11:48:20</time>
      </trkpt>
      <trkpt lat="41.03901" lon="0.84346">
        <ele>386.2</ele>
        <time>2022-05-24 11:48:21</time>
      </trkpt>
      <trkpt lat="41.03902" lon="0.84344">
        <ele>386.4</ele>
        <time>2022-05-24 11:48:22</time>
      </trkpt>
      <trkpt lat="41.03903" lon="0.84342">
        <ele>386.6</ele>
        <time>2022-05-24 11:48:23</time>
      </trkpt>
      <trkpt lat="41.03904" lon="0.8434">
        <ele>386.8</ele>
        <time>2022-05-24 11:48:24</time>
      </trkpt>
      <trkpt lat="41.03906" lon="0.84338">
        <ele>386.8</ele>
        <time>2022-05-24 11:48:25</time>
      </trkpt>
      <trkpt lat="41.03907" lon="0.84336">
        <ele>387</ele>
        <time>2022-05-24 11:48:26</time>
      </trkpt>
      <trkpt lat="41.03908" lon="0.84334">
        <ele>387.2</ele>
        <time>2022-05-24 11:48:27</time>
      </trkpt>
      <trkpt lat="41.0391" lon="0.84331">
        <ele>387.4</ele>
        <time>2022-05-24 11:48:28</time>
      </trkpt>
      <trkpt lat="41.03912" lon="0.84329">
        <ele>387.4</ele>
        <time>2022-05-24 11:48:29</time>
      </trkpt>
      <trkpt lat="41.03913" lon="0.84327">
        <ele>387.6</ele>
        <time>2022-05-24 11:48:30</time>
      </trkpt>
      <trkpt lat="41.03914" lon="0.84325">
        <ele>387.6</ele>
        <time>2022-05-24 11:48:31</time>
      </trkpt>
      <trkpt lat="41.03915" lon="0.84323">
        <ele>387.6</ele>
        <time>2022-05-24 11:48:32</time>
      </trkpt>
      <trkpt lat="41.03917" lon="0.84321">
        <ele>387.8</ele>
        <time>2022-05-24 11:48:33</time>
      </trkpt>
      <trkpt lat="41.03918" lon="0.84319">
        <ele>388</ele>
        <time>2022-05-24 11:48:34</time>
      </trkpt>
      <trkpt lat="41.0392" lon="0.84316">
        <ele>388.2</ele>
        <time>2022-05-24 11:48:35</time>
      </trkpt>
      <trkpt lat="41.03921" lon="0.84314">
        <ele>388.2</ele>
        <time>2022-05-24 11:48:36</time>
      </trkpt>
      <trkpt lat="41.03922" lon="0.84312">
        <ele>388.4</ele>
        <time>2022-05-24 11:48:37</time>
      </trkpt>
      <trkpt lat="41.03923" lon="0.8431">
        <ele>388.6</ele>
        <time>2022-05-24 11:48:38</time>
      </trkpt>
      <trkpt lat="41.03924" lon="0.84308">
        <ele>388.6</ele>
        <time>2022-05-24 11:48:39</time>
      </trkpt>
      <trkpt lat="41.03925" lon="0.84306">
        <ele>388.8</ele>
        <time>2022-05-24 11:48:40</time>
      </trkpt>
      <trkpt lat="41.03925" lon="0.84305">
        <ele>388.8</ele>
        <time>2022-05-24 11:48:41</time>
      </trkpt>
      <trkpt lat="41.03926" lon="0.84302">
        <ele>389</ele>
        <time>2022-05-24 11:48:42</time>
      </trkpt>
      <trkpt lat="41.03927" lon="0.843">
        <ele>389.2</ele>
        <time>2022-05-24 11:48:43</time>
      </trkpt>
      <trkpt lat="41.03928" lon="0.84299">
        <ele>389.2</ele>
        <time>2022-05-24 11:48:44</time>
      </trkpt>
      <trkpt lat="41.03928" lon="0.84297">
        <ele>389.4</ele>
        <time>2022-05-24 11:48:45</time>
      </trkpt>
      <trkpt lat="41.0393" lon="0.84295">
        <ele>389.6</ele>
        <time>2022-05-24 11:48:46</time>
      </trkpt>
      <trkpt lat="41.0393" lon="0.84294">
        <ele>389.8</ele>
        <time>2022-05-24 11:48:47</time>
      </trkpt>
      <trkpt lat="41.03931" lon="0.84292">
        <ele>389.8</ele>
        <time>2022-05-24 11:48:48</time>
      </trkpt>
      <trkpt lat="41.03933" lon="0.8429">
        <ele>390</ele>
        <time>2022-05-24 11:48:49</time>
      </trkpt>
      <trkpt lat="41.03934" lon="0.84288">
        <ele>390.2</ele>
        <time>2022-05-24 11:48:50</time>
      </trkpt>
      <trkpt lat="41.03934" lon="0.84286">
        <ele>390.4</ele>
        <time>2022-05-24 11:48:51</time>
      </trkpt>
      <trkpt lat="41.03936" lon="0.84284">
        <ele>390.6</ele>
        <time>2022-05-24 11:48:52</time>
      </trkpt>
      <trkpt lat="41.03937" lon="0.84282">
        <ele>390.6</ele>
        <time>2022-05-24 11:48:53</time>
      </trkpt>
      <trkpt lat="41.03938" lon="0.8428">
        <ele>390.8</ele>
        <time>2022-05-24 11:48:54</time>
      </trkpt>
      <trkpt lat="41.03939" lon="0.84278">
        <ele>391</ele>
        <time>2022-05-24 11:48:55</time>
      </trkpt>
      <trkpt lat="41.0394" lon="0.84275">
        <ele>391.2</ele>
        <time>2022-05-24 11:48:56</time>
      </trkpt>
      <trkpt lat="41.03941" lon="0.84273">
        <ele>391.2</ele>
        <time>2022-05-24 11:48:57</time>
      </trkpt>
      <trkpt lat="41.03942" lon="0.84272">
        <ele>391.4</ele>
        <time>2022-05-24 11:48:58</time>
      </trkpt>
      <trkpt lat="41.03944" lon="0.8427">
        <ele>391.4</ele>
        <time>2022-05-24 11:48:59</time>
      </trkpt>
      <trkpt lat="41.03945" lon="0.84268">
        <ele>391.6</ele>
        <time>2022-05-24 11:49:00</time>
      </trkpt>
      <trkpt lat="41.03946" lon="0.84266">
        <ele>391.6</ele>
        <time>2022-05-24 11:49:01</time>
      </trkpt>
      <trkpt lat="41.03947" lon="0.84264">
        <ele>391.8</ele>
        <time>2022-05-24 11:49:02</time>
      </trkpt>
      <trkpt lat="41.03947" lon="0.84261">
        <ele>391.8</ele>
        <time>2022-05-24 11:49:03</time>
      </trkpt>
      <trkpt lat="41.03948" lon="0.84259">
        <ele>391.8</ele>
        <time>2022-05-24 11:49:04</time>
      </trkpt>
      <trkpt lat="41.03949" lon="0.84257">
        <ele>392</ele>
        <time>2022-05-24 11:49:05</time>
      </trkpt>
      <trkpt lat="41.0395" lon="0.84255">
        <ele>392</ele>
        <time>2022-05-24 11:49:06</time>
      </trkpt>
      <trkpt lat="41.03952" lon="0.84253">
        <ele>392.2</ele>
        <time>2022-05-24 11:49:07</time>
      </trkpt>
      <trkpt lat="41.03952" lon="0.84251">
        <ele>392.6</ele>
        <time>2022-05-24 11:49:08</time>
      </trkpt>
      <trkpt lat="41.03953" lon="0.8425">
        <ele>392.6</ele>
        <time>2022-05-24 11:49:09</time>
      </trkpt>
      <trkpt lat="41.03954" lon="0.84248">
        <ele>392.8</ele>
        <time>2022-05-24 11:49:10</time>
      </trkpt>
      <trkpt lat="41.03955" lon="0.84246">
        <ele>393</ele>
        <time>2022-05-24 11:49:11</time>
      </trkpt>
      <trkpt lat="41.03956" lon="0.84244">
        <ele>393.2</ele>
        <time>2022-05-24 11:49:12</time>
      </trkpt>
      <trkpt lat="41.03957" lon="0.84242">
        <ele>393.4</ele>
        <time>2022-05-24 11:49:13</time>
      </trkpt>
      <trkpt lat="41.03959" lon="0.84241">
        <ele>393.4</ele>
        <time>2022-05-24 11:49:14</time>
      </trkpt>
      <trkpt lat="41.0396" lon="0.84239">
        <ele>393.6</ele>
        <time>2022-05-24 11:49:15</time>
      </trkpt>
      <trkpt lat="41.03961" lon="0.84237">
        <ele>393.6</ele>
        <time>2022-05-24 11:49:16</time>
      </trkpt>
      <trkpt lat="41.03962" lon="0.84235">
        <ele>393.8</ele>
        <time>2022-05-24 11:49:17</time>
      </trkpt>
      <trkpt lat="41.03963" lon="0.84233">
        <ele>394</ele>
        <time>2022-05-24 11:49:18</time>
      </trkpt>
      <trkpt lat="41.03964" lon="0.84231">
        <ele>394</ele>
        <time>2022-05-24 11:49:19</time>
      </trkpt>
      <trkpt lat="41.03965" lon="0.84229">
        <ele>394.2</ele>
        <time>2022-05-24 11:49:20</time>
      </trkpt>
      <trkpt lat="41.03966" lon="0.84228">
        <ele>394.4</ele>
        <time>2022-05-24 11:49:21</time>
      </trkpt>
      <trkpt lat="41.03967" lon="0.84225">
        <ele>394.4</ele>
        <time>2022-05-24 11:49:22</time>
      </trkpt>
      <trkpt lat="41.03968" lon="0.84224">
        <ele>394.6</ele>
        <time>2022-05-24 11:49:23</time>
      </trkpt>
      <trkpt lat="41.03968" lon="0.84222">
        <ele>394.8</ele>
        <time>2022-05-24 11:49:24</time>
      </trkpt>
      <trkpt lat="41.03969" lon="0.8422">
        <ele>395</ele>
        <time>2022-05-24 11:49:25</time>
      </trkpt>
      <trkpt lat="41.0397" lon="0.84217">
        <ele>395</ele>
        <time>2022-05-24 11:49:26</time>
      </trkpt>
      <trkpt lat="41.03971" lon="0.84216">
        <ele>395.2</ele>
        <time>2022-05-24 11:49:27</time>
      </trkpt>
      <trkpt lat="41.03972" lon="0.84214">
        <ele>395.2</ele>
        <time>2022-05-24 11:49:28</time>
      </trkpt>
      <trkpt lat="41.03973" lon="0.84212">
        <ele>395.4</ele>
        <time>2022-05-24 11:49:29</time>
      </trkpt>
      <trkpt lat="41.03974" lon="0.8421">
        <ele>395.6</ele>
        <time>2022-05-24 11:49:30</time>
      </trkpt>
      <trkpt lat="41.03975" lon="0.84207">
        <ele>395.8</ele>
        <time>2022-05-24 11:49:31</time>
      </trkpt>
      <trkpt lat="41.03976" lon="0.84205">
        <ele>396</ele>
        <time>2022-05-24 11:49:32</time>
      </trkpt>
      <trkpt lat="41.03976" lon="0.84203">
        <ele>396</ele>
        <time>2022-05-24 11:49:33</time>
      </trkpt>
      <trkpt lat="41.03978" lon="0.842">
        <ele>396.2</ele>
        <time>2022-05-24 11:49:34</time>
      </trkpt>
      <trkpt lat="41.03979" lon="0.84199">
        <ele>396.2</ele>
        <time>2022-05-24 11:49:35</time>
      </trkpt>
      <trkpt lat="41.03979" lon="0.84196">
        <ele>396.4</ele>
        <time>2022-05-24 11:49:36</time>
      </trkpt>
      <trkpt lat="41.03981" lon="0.84194">
        <ele>396.4</ele>
        <time>2022-05-24 11:49:37</time>
      </trkpt>
      <trkpt lat="41.03982" lon="0.84192">
        <ele>396.6</ele>
        <time>2022-05-24 11:49:38</time>
      </trkpt>
      <trkpt lat="41.03983" lon="0.8419">
        <ele>396.6</ele>
        <time>2022-05-24 11:49:39</time>
      </trkpt>
      <trkpt lat="41.03984" lon="0.84188">
        <ele>396.6</ele>
        <time>2022-05-24 11:49:40</time>
      </trkpt>
      <trkpt lat="41.03985" lon="0.84186">
        <ele>396.8</ele>
        <time>2022-05-24 11:49:41</time>
      </trkpt>
      <trkpt lat="41.03986" lon="0.84184">
        <ele>396.8</ele>
        <time>2022-05-24 11:49:42</time>
      </trkpt>
      <trkpt lat="41.03987" lon="0.84183">
        <ele>397</ele>
        <time>2022-05-24 11:49:43</time>
      </trkpt>
      <trkpt lat="41.03988" lon="0.84181">
        <ele>397.2</ele>
        <time>2022-05-24 11:49:44</time>
      </trkpt>
      <trkpt lat="41.03989" lon="0.84179">
        <ele>397.4</ele>
        <time>2022-05-24 11:49:45</time>
      </trkpt>
      <trkpt lat="41.0399" lon="0.84177">
        <ele>397.4</ele>
        <time>2022-05-24 11:49:46</time>
      </trkpt>
      <trkpt lat="41.03991" lon="0.84175">
        <ele>397.6</ele>
        <time>2022-05-24 11:49:47</time>
      </trkpt>
      <trkpt lat="41.03992" lon="0.84173">
        <ele>397.8</ele>
        <time>2022-05-24 11:49:48</time>
      </trkpt>
      <trkpt lat="41.03993" lon="0.84171">
        <ele>397.8</ele>
        <time>2022-05-24 11:49:49</time>
      </trkpt>
      <trkpt lat="41.03994" lon="0.8417">
        <ele>398</ele>
        <time>2022-05-24 11:49:50</time>
      </trkpt>
      <trkpt lat="41.03995" lon="0.84168">
        <ele>398</ele>
        <time>2022-05-24 11:49:51</time>
      </trkpt>
      <trkpt lat="41.03996" lon="0.84166">
        <ele>398</ele>
        <time>2022-05-24 11:49:52</time>
      </trkpt>
      <trkpt lat="41.03997" lon="0.84164">
        <ele>398.2</ele>
        <time>2022-05-24 11:49:53</time>
      </trkpt>
      <trkpt lat="41.03998" lon="0.84162">
        <ele>398.2</ele>
        <time>2022-05-24 11:49:54</time>
      </trkpt>
      <trkpt lat="41.03999" lon="0.8416">
        <ele>398.4</ele>
        <time>2022-05-24 11:49:55</time>
      </trkpt>
      <trkpt lat="41.04" lon="0.84159">
        <ele>398.4</ele>
        <time>2022-05-24 11:49:56</time>
      </trkpt>
      <trkpt lat="41.04001" lon="0.84157">
        <ele>398.4</ele>
        <time>2022-05-24 11:49:57</time>
      </trkpt>
      <trkpt lat="41.04002" lon="0.84155">
        <ele>398.6</ele>
        <time>2022-05-24 11:49:58</time>
      </trkpt>
      <trkpt lat="41.04003" lon="0.84153">
        <ele>398.6</ele>
        <time>2022-05-24 11:49:59</time>
      </trkpt>
      <trkpt lat="41.04004" lon="0.8415">
        <ele>398.8</ele>
        <time>2022-05-24 11:50:00</time>
      </trkpt>
      <trkpt lat="41.04005" lon="0.84148">
        <ele>399</ele>
        <time>2022-05-24 11:50:01</time>
      </trkpt>
      <trkpt lat="41.04005" lon="0.84146">
        <ele>399</ele>
        <time>2022-05-24 11:50:02</time>
      </trkpt>
      <trkpt lat="41.04006" lon="0.84144">
        <ele>399.2</ele>
        <time>2022-05-24 11:50:03</time>
      </trkpt>
      <trkpt lat="41.04007" lon="0.84141">
        <ele>399.4</ele>
        <time>2022-05-24 11:50:04</time>
      </trkpt>
      <trkpt lat="41.04008" lon="0.84139">
        <ele>399.4</ele>
        <time>2022-05-24 11:50:05</time>
      </trkpt>
      <trkpt lat="41.04009" lon="0.84138">
        <ele>399.6</ele>
        <time>2022-05-24 11:50:06</time>
      </trkpt>
      <trkpt lat="41.0401" lon="0.84136">
        <ele>399.8</ele>
        <time>2022-05-24 11:50:07</time>
      </trkpt>
      <trkpt lat="41.04012" lon="0.84135">
        <ele>399.8</ele>
        <time>2022-05-24 11:50:08</time>
      </trkpt>
      <trkpt lat="41.04013" lon="0.84132">
        <ele>400</ele>
        <time>2022-05-24 11:50:09</time>
      </trkpt>
      <trkpt lat="41.04013" lon="0.8413">
        <ele>400.2</ele>
        <time>2022-05-24 11:50:10</time>
      </trkpt>
      <trkpt lat="41.04014" lon="0.84128">
        <ele>400.2</ele>
        <time>2022-05-24 11:50:11</time>
      </trkpt>
      <trkpt lat="41.04015" lon="0.84126">
        <ele>400.4</ele>
        <time>2022-05-24 11:50:12</time>
      </trkpt>
      <trkpt lat="41.04016" lon="0.84124">
        <ele>400.6</ele>
        <time>2022-05-24 11:50:13</time>
      </trkpt>
      <trkpt lat="41.04017" lon="0.84121">
        <ele>400.6</ele>
        <time>2022-05-24 11:50:14</time>
      </trkpt>
      <trkpt lat="41.04018" lon="0.84119">
        <ele>400.8</ele>
        <time>2022-05-24 11:50:15</time>
      </trkpt>
      <trkpt lat="41.0402" lon="0.84116">
        <ele>401</ele>
        <time>2022-05-24 11:50:16</time>
      </trkpt>
      <trkpt lat="41.04021" lon="0.84114">
        <ele>401</ele>
        <time>2022-05-24 11:50:17</time>
      </trkpt>
      <trkpt lat="41.04022" lon="0.84112">
        <ele>401</ele>
        <time>2022-05-24 11:50:18</time>
      </trkpt>
      <trkpt lat="41.04023" lon="0.84109">
        <ele>401.2</ele>
        <time>2022-05-24 11:50:19</time>
      </trkpt>
      <trkpt lat="41.04025" lon="0.84107">
        <ele>401.2</ele>
        <time>2022-05-24 11:50:20</time>
      </trkpt>
      <trkpt lat="41.04026" lon="0.84105">
        <ele>401.4</ele>
        <time>2022-05-24 11:50:21</time>
      </trkpt>
      <trkpt lat="41.04027" lon="0.84102">
        <ele>401.4</ele>
        <time>2022-05-24 11:50:22</time>
      </trkpt>
      <trkpt lat="41.04027" lon="0.841">
        <ele>401.4</ele>
        <time>2022-05-24 11:50:23</time>
      </trkpt>
      <trkpt lat="41.04028" lon="0.84097">
        <ele>401.6</ele>
        <time>2022-05-24 11:50:24</time>
      </trkpt>
      <trkpt lat="41.04029" lon="0.84094">
        <ele>401.6</ele>
        <time>2022-05-24 11:50:25</time>
      </trkpt>
      <trkpt lat="41.04029" lon="0.84091">
        <ele>401.6</ele>
        <time>2022-05-24 11:50:26</time>
      </trkpt>
      <trkpt lat="41.04029" lon="0.84087">
        <ele>401.8</ele>
        <time>2022-05-24 11:50:27</time>
      </trkpt>
      <trkpt lat="41.04029" lon="0.84084">
        <ele>401.8</ele>
        <time>2022-05-24 11:50:28</time>
      </trkpt>
      <trkpt lat="41.04029" lon="0.84081">
        <ele>402</ele>
        <time>2022-05-24 11:50:29</time>
      </trkpt>
      <trkpt lat="41.04028" lon="0.84078">
        <ele>402</ele>
        <time>2022-05-24 11:50:30</time>
      </trkpt>
      <trkpt lat="41.04028" lon="0.84076">
        <ele>402</ele>
        <time>2022-05-24 11:50:31</time>
      </trkpt>
      <trkpt lat="41.04028" lon="0.84073">
        <ele>402.2</ele>
        <time>2022-05-24 11:50:32</time>
      </trkpt>
      <trkpt lat="41.04028" lon="0.84069">
        <ele>402.2</ele>
        <time>2022-05-24 11:50:33</time>
      </trkpt>
      <trkpt lat="41.04029" lon="0.84066">
        <ele>402.4</ele>
        <time>2022-05-24 11:50:34</time>
      </trkpt>
      <trkpt lat="41.04029" lon="0.84063">
        <ele>402.4</ele>
        <time>2022-05-24 11:50:35</time>
      </trkpt>
      <trkpt lat="41.04029" lon="0.8406">
        <ele>402.4</ele>
        <time>2022-05-24 11:50:36</time>
      </trkpt>
      <trkpt lat="41.04029" lon="0.84057">
        <ele>402.4</ele>
        <time>2022-05-24 11:50:37</time>
      </trkpt>
      <trkpt lat="41.04029" lon="0.84054">
        <ele>402.6</ele>
        <time>2022-05-24 11:50:38</time>
      </trkpt>
      <trkpt lat="41.0403" lon="0.84051">
        <ele>402.6</ele>
        <time>2022-05-24 11:50:39</time>
      </trkpt>
      <trkpt lat="41.0403" lon="0.84049">
        <ele>402.6</ele>
        <time>2022-05-24 11:50:40</time>
      </trkpt>
      <trkpt lat="41.04031" lon="0.84045">
        <ele>402.6</ele>
        <time>2022-05-24 11:50:41</time>
      </trkpt>
      <trkpt lat="41.04031" lon="0.84042">
        <ele>402.4</ele>
        <time>2022-05-24 11:50:42</time>
      </trkpt>
      <trkpt lat="41.04031" lon="0.84039">
        <ele>402.4</ele>
        <time>2022-05-24 11:50:43</time>
      </trkpt>
      <trkpt lat="41.04031" lon="0.84036">
        <ele>402.4</ele>
        <time>2022-05-24 11:50:44</time>
      </trkpt>
      <trkpt lat="41.04032" lon="0.84032">
        <ele>402.2</ele>
        <time>2022-05-24 11:50:45</time>
      </trkpt>
      <trkpt lat="41.04033" lon="0.84029">
        <ele>402.2</ele>
        <time>2022-05-24 11:50:46</time>
      </trkpt>
      <trkpt lat="41.04033" lon="0.84025">
        <ele>402.2</ele>
        <time>2022-05-24 11:50:47</time>
      </trkpt>
      <trkpt lat="41.04034" lon="0.84023">
        <ele>402.2</ele>
        <time>2022-05-24 11:50:48</time>
      </trkpt>
      <trkpt lat="41.04036" lon="0.84019">
        <ele>402.4</ele>
        <time>2022-05-24 11:50:49</time>
      </trkpt>
      <trkpt lat="41.04037" lon="0.84016">
        <ele>402.6</ele>
        <time>2022-05-24 11:50:50</time>
      </trkpt>
      <trkpt lat="41.04039" lon="0.84013">
        <ele>402.8</ele>
        <time>2022-05-24 11:50:51</time>
      </trkpt>
      <trkpt lat="41.04041" lon="0.84011">
        <ele>403</ele>
        <time>2022-05-24 11:50:52</time>
      </trkpt>
      <trkpt lat="41.04043" lon="0.84008">
        <ele>403.2</ele>
        <time>2022-05-24 11:50:53</time>
      </trkpt>
      <trkpt lat="41.04045" lon="0.84006">
        <ele>403.4</ele>
        <time>2022-05-24 11:50:54</time>
      </trkpt>
      <trkpt lat="41.04048" lon="0.84003">
        <ele>403.6</ele>
        <time>2022-05-24 11:50:55</time>
      </trkpt>
      <trkpt lat="41.0405" lon="0.84002">
        <ele>403.6</ele>
        <time>2022-05-24 11:50:56</time>
      </trkpt>
      <trkpt lat="41.04052" lon="0.83999">
        <ele>403.8</ele>
        <time>2022-05-24 11:50:57</time>
      </trkpt>
      <trkpt lat="41.04055" lon="0.83997">
        <ele>403.8</ele>
        <time>2022-05-24 11:50:58</time>
      </trkpt>
      <trkpt lat="41.04057" lon="0.83996">
        <ele>403.8</ele>
        <time>2022-05-24 11:50:59</time>
      </trkpt>
      <trkpt lat="41.0406" lon="0.83994">
        <ele>403.8</ele>
        <time>2022-05-24 11:51:00</time>
      </trkpt>
      <trkpt lat="41.04062" lon="0.83992">
        <ele>403.8</ele>
        <time>2022-05-24 11:51:01</time>
      </trkpt>
      <trkpt lat="41.04064" lon="0.8399">
        <ele>403.8</ele>
        <time>2022-05-24 11:51:02</time>
      </trkpt>
      <trkpt lat="41.04066" lon="0.83988">
        <ele>403.8</ele>
        <time>2022-05-24 11:51:03</time>
      </trkpt>
      <trkpt lat="41.04068" lon="0.83986">
        <ele>404</ele>
        <time>2022-05-24 11:51:04</time>
      </trkpt>
      <trkpt lat="41.04071" lon="0.83984">
        <ele>404</ele>
        <time>2022-05-24 11:51:05</time>
      </trkpt>
      <trkpt lat="41.04073" lon="0.83983">
        <ele>404</ele>
        <time>2022-05-24 11:51:06</time>
      </trkpt>
      <trkpt lat="41.04076" lon="0.83981">
        <ele>404.2</ele>
        <time>2022-05-24 11:51:07</time>
      </trkpt>
      <trkpt lat="41.04078" lon="0.8398">
        <ele>404.2</ele>
        <time>2022-05-24 11:51:08</time>
      </trkpt>
      <trkpt lat="41.04081" lon="0.83978">
        <ele>404.2</ele>
        <time>2022-05-24 11:51:09</time>
      </trkpt>
      <trkpt lat="41.04083" lon="0.83977">
        <ele>404.4</ele>
        <time>2022-05-24 11:51:10</time>
      </trkpt>
      <trkpt lat="41.04086" lon="0.83975">
        <ele>404.6</ele>
        <time>2022-05-24 11:51:11</time>
      </trkpt>
      <trkpt lat="41.04088" lon="0.83973">
        <ele>404.8</ele>
        <time>2022-05-24 11:51:12</time>
      </trkpt>
      <trkpt lat="41.04091" lon="0.83971">
        <ele>405.2</ele>
        <time>2022-05-24 11:51:13</time>
      </trkpt>
      <trkpt lat="41.04094" lon="0.8397">
        <ele>405.4</ele>
        <time>2022-05-24 11:51:14</time>
      </trkpt>
      <trkpt lat="41.04096" lon="0.83968">
        <ele>405.6</ele>
        <time>2022-05-24 11:51:15</time>
      </trkpt>
      <trkpt lat="41.04098" lon="0.83966">
        <ele>405.8</ele>
        <time>2022-05-24 11:51:16</time>
      </trkpt>
      <trkpt lat="41.04101" lon="0.83964">
        <ele>406.2</ele>
        <time>2022-05-24 11:51:17</time>
      </trkpt>
      <trkpt lat="41.04103" lon="0.83962">
        <ele>406.4</ele>
        <time>2022-05-24 11:51:18</time>
      </trkpt>
      <trkpt lat="41.04106" lon="0.83961">
        <ele>406.4</ele>
        <time>2022-05-24 11:51:19</time>
      </trkpt>
      <trkpt lat="41.04108" lon="0.8396">
        <ele>406.6</ele>
        <time>2022-05-24 11:51:20</time>
      </trkpt>
      <trkpt lat="41.04111" lon="0.83958">
        <ele>406.6</ele>
        <time>2022-05-24 11:51:21</time>
      </trkpt>
      <trkpt lat="41.04113" lon="0.83956">
        <ele>406.8</ele>
        <time>2022-05-24 11:51:22</time>
      </trkpt>
      <trkpt lat="41.04115" lon="0.83954">
        <ele>406.8</ele>
        <time>2022-05-24 11:51:23</time>
      </trkpt>
      <trkpt lat="41.04116" lon="0.83952">
        <ele>407</ele>
        <time>2022-05-24 11:51:24</time>
      </trkpt>
      <trkpt lat="41.04119" lon="0.8395">
        <ele>407.2</ele>
        <time>2022-05-24 11:51:25</time>
      </trkpt>
      <trkpt lat="41.04121" lon="0.83948">
        <ele>407.2</ele>
        <time>2022-05-24 11:51:26</time>
      </trkpt>
      <trkpt lat="41.04123" lon="0.83946">
        <ele>407.4</ele>
        <time>2022-05-24 11:51:27</time>
      </trkpt>
      <trkpt lat="41.04124" lon="0.83944">
        <ele>407.4</ele>
        <time>2022-05-24 11:51:28</time>
      </trkpt>
      <trkpt lat="41.04127" lon="0.83942">
        <ele>407.6</ele>
        <time>2022-05-24 11:51:29</time>
      </trkpt>
      <trkpt lat="41.04129" lon="0.8394">
        <ele>407.6</ele>
        <time>2022-05-24 11:51:30</time>
      </trkpt>
      <trkpt lat="41.0413" lon="0.83937">
        <ele>407.8</ele>
        <time>2022-05-24 11:51:31</time>
      </trkpt>
      <trkpt lat="41.04132" lon="0.83935">
        <ele>407.8</ele>
        <time>2022-05-24 11:51:32</time>
      </trkpt>
      <trkpt lat="41.04133" lon="0.83933">
        <ele>407.8</ele>
        <time>2022-05-24 11:51:33</time>
      </trkpt>
      <trkpt lat="41.04134" lon="0.8393">
        <ele>408</ele>
        <time>2022-05-24 11:51:34</time>
      </trkpt>
      <trkpt lat="41.04136" lon="0.83927">
        <ele>408</ele>
        <time>2022-05-24 11:51:35</time>
      </trkpt>
      <trkpt lat="41.04136" lon="0.83925">
        <ele>408.2</ele>
        <time>2022-05-24 11:51:36</time>
      </trkpt>
      <trkpt lat="41.04137" lon="0.83921">
        <ele>408.4</ele>
        <time>2022-05-24 11:51:37</time>
      </trkpt>
      <trkpt lat="41.04138" lon="0.83919">
        <ele>408.6</ele>
        <time>2022-05-24 11:51:38</time>
      </trkpt>
      <trkpt lat="41.04139" lon="0.83915">
        <ele>408.8</ele>
        <time>2022-05-24 11:51:39</time>
      </trkpt>
      <trkpt lat="41.0414" lon="0.83913">
        <ele>408.8</ele>
        <time>2022-05-24 11:51:40</time>
      </trkpt>
      <trkpt lat="41.04141" lon="0.83909">
        <ele>409</ele>
        <time>2022-05-24 11:51:41</time>
      </trkpt>
      <trkpt lat="41.04141" lon="0.83906">
        <ele>409</ele>
        <time>2022-05-24 11:51:42</time>
      </trkpt>
      <trkpt lat="41.04142" lon="0.83903">
        <ele>409.2</ele>
        <time>2022-05-24 11:51:43</time>
      </trkpt>
      <trkpt lat="41.04143" lon="0.839">
        <ele>409.4</ele>
        <time>2022-05-24 11:51:44</time>
      </trkpt>
      <trkpt lat="41.04144" lon="0.83897">
        <ele>409.4</ele>
        <time>2022-05-24 11:51:45</time>
      </trkpt>
      <trkpt lat="41.04144" lon="0.83894">
        <ele>409.4</ele>
        <time>2022-05-24 11:51:46</time>
      </trkpt>
      <trkpt lat="41.04145" lon="0.83891">
        <ele>409.6</ele>
        <time>2022-05-24 11:51:47</time>
      </trkpt>
      <trkpt lat="41.04145" lon="0.83888">
        <ele>409.8</ele>
        <time>2022-05-24 11:51:48</time>
      </trkpt>
      <trkpt lat="41.04145" lon="0.83884">
        <ele>409.8</ele>
        <time>2022-05-24 11:51:49</time>
      </trkpt>
      <trkpt lat="41.04145" lon="0.83881">
        <ele>410</ele>
        <time>2022-05-24 11:51:50</time>
      </trkpt>
      <trkpt lat="41.04146" lon="0.83877">
        <ele>410</ele>
        <time>2022-05-24 11:51:51</time>
      </trkpt>
      <trkpt lat="41.04146" lon="0.83874">
        <ele>410.2</ele>
        <time>2022-05-24 11:51:52</time>
      </trkpt>
      <trkpt lat="41.04147" lon="0.83871">
        <ele>410.2</ele>
        <time>2022-05-24 11:51:53</time>
      </trkpt>
      <trkpt lat="41.04147" lon="0.83868">
        <ele>410.4</ele>
        <time>2022-05-24 11:51:54</time>
      </trkpt>
      <trkpt lat="41.04147" lon="0.83865">
        <ele>410.4</ele>
        <time>2022-05-24 11:51:55</time>
      </trkpt>
      <trkpt lat="41.04147" lon="0.83862">
        <ele>410.6</ele>
        <time>2022-05-24 11:51:56</time>
      </trkpt>
      <trkpt lat="41.04147" lon="0.83858">
        <ele>410.6</ele>
        <time>2022-05-24 11:51:57</time>
      </trkpt>
      <trkpt lat="41.04147" lon="0.83856">
        <ele>410.8</ele>
        <time>2022-05-24 11:51:58</time>
      </trkpt>
      <trkpt lat="41.04148" lon="0.83852">
        <ele>410.8</ele>
        <time>2022-05-24 11:51:59</time>
      </trkpt>
      <trkpt lat="41.04148" lon="0.83849">
        <ele>411</ele>
        <time>2022-05-24 11:52:00</time>
      </trkpt>
      <trkpt lat="41.04148" lon="0.83846">
        <ele>411</ele>
        <time>2022-05-24 11:52:01</time>
      </trkpt>
      <trkpt lat="41.04148" lon="0.83843">
        <ele>411.2</ele>
        <time>2022-05-24 11:52:02</time>
      </trkpt>
      <trkpt lat="41.04148" lon="0.83839">
        <ele>411.2</ele>
        <time>2022-05-24 11:52:03</time>
      </trkpt>
      <trkpt lat="41.04148" lon="0.83835">
        <ele>411.4</ele>
        <time>2022-05-24 11:52:04</time>
      </trkpt>
      <trkpt lat="41.04148" lon="0.83832">
        <ele>411.4</ele>
        <time>2022-05-24 11:52:05</time>
      </trkpt>
      <trkpt lat="41.04148" lon="0.83829">
        <ele>411.4</ele>
        <time>2022-05-24 11:52:06</time>
      </trkpt>
      <trkpt lat="41.04149" lon="0.83824">
        <ele>411.6</ele>
        <time>2022-05-24 11:52:07</time>
      </trkpt>
      <trkpt lat="41.0415" lon="0.83822">
        <ele>411.6</ele>
        <time>2022-05-24 11:52:08</time>
      </trkpt>
      <trkpt lat="41.04151" lon="0.83817">
        <ele>411.8</ele>
        <time>2022-05-24 11:52:09</time>
      </trkpt>
      <trkpt lat="41.04152" lon="0.83814">
        <ele>412</ele>
        <time>2022-05-24 11:52:10</time>
      </trkpt>
      <trkpt lat="41.04154" lon="0.8381">
        <ele>412</ele>
        <time>2022-05-24 11:52:11</time>
      </trkpt>
      <trkpt lat="41.04156" lon="0.83807">
        <ele>412.2</ele>
        <time>2022-05-24 11:52:12</time>
      </trkpt>
      <trkpt lat="41.04158" lon="0.83804">
        <ele>412.2</ele>
        <time>2022-05-24 11:52:13</time>
      </trkpt>
      <trkpt lat="41.04161" lon="0.83801">
        <ele>412.4</ele>
        <time>2022-05-24 11:52:14</time>
      </trkpt>
      <trkpt lat="41.04164" lon="0.83798">
        <ele>412.4</ele>
        <time>2022-05-24 11:52:15</time>
      </trkpt>
      <trkpt lat="41.04167" lon="0.83797">
        <ele>412.6</ele>
        <time>2022-05-24 11:52:16</time>
      </trkpt>
      <trkpt lat="41.0417" lon="0.83796">
        <ele>412.6</ele>
        <time>2022-05-24 11:52:17</time>
      </trkpt>
      <trkpt lat="41.04173" lon="0.83796">
        <ele>412.8</ele>
        <time>2022-05-24 11:52:18</time>
      </trkpt>
      <trkpt lat="41.04176" lon="0.83797">
        <ele>412.8</ele>
        <time>2022-05-24 11:52:19</time>
      </trkpt>
      <trkpt lat="41.0418" lon="0.83798">
        <ele>413</ele>
        <time>2022-05-24 11:52:20</time>
      </trkpt>
      <trkpt lat="41.04183" lon="0.838">
        <ele>413</ele>
        <time>2022-05-24 11:52:21</time>
      </trkpt>
      <trkpt lat="41.04185" lon="0.83801">
        <ele>413.2</ele>
        <time>2022-05-24 11:52:22</time>
      </trkpt>
      <trkpt lat="41.04188" lon="0.83804">
        <ele>413.2</ele>
        <time>2022-05-24 11:52:23</time>
      </trkpt>
      <trkpt lat="41.0419" lon="0.83806">
        <ele>413.2</ele>
        <time>2022-05-24 11:52:24</time>
      </trkpt>
      <trkpt lat="41.04192" lon="0.83809">
        <ele>413.4</ele>
        <time>2022-05-24 11:52:25</time>
      </trkpt>
      <trkpt lat="41.04194" lon="0.83812">
        <ele>413.4</ele>
        <time>2022-05-24 11:52:26</time>
      </trkpt>
      <trkpt lat="41.04196" lon="0.83815">
        <ele>413.4</ele>
        <time>2022-05-24 11:52:27</time>
      </trkpt>
      <trkpt lat="41.04198" lon="0.83818">
        <ele>413.6</ele>
        <time>2022-05-24 11:52:28</time>
      </trkpt>
      <trkpt lat="41.042" lon="0.83821">
        <ele>413.6</ele>
        <time>2022-05-24 11:52:29</time>
      </trkpt>
      <trkpt lat="41.04203" lon="0.83824">
        <ele>413.6</ele>
        <time>2022-05-24 11:52:30</time>
      </trkpt>
      <trkpt lat="41.04205" lon="0.83827">
        <ele>413.6</ele>
        <time>2022-05-24 11:52:31</time>
      </trkpt>
      <trkpt lat="41.04208" lon="0.83829">
        <ele>413.8</ele>
        <time>2022-05-24 11:52:32</time>
      </trkpt>
      <trkpt lat="41.0421" lon="0.83831">
        <ele>413.8</ele>
        <time>2022-05-24 11:52:33</time>
      </trkpt>
      <trkpt lat="41.04212" lon="0.83834">
        <ele>413.8</ele>
        <time>2022-05-24 11:52:34</time>
      </trkpt>
      <trkpt lat="41.04215" lon="0.83836">
        <ele>414</ele>
        <time>2022-05-24 11:52:35</time>
      </trkpt>
      <trkpt lat="41.04218" lon="0.83837">
        <ele>414</ele>
        <time>2022-05-24 11:52:36</time>
      </trkpt>
      <trkpt lat="41.0422" lon="0.83839">
        <ele>414</ele>
        <time>2022-05-24 11:52:37</time>
      </trkpt>
      <trkpt lat="41.04223" lon="0.8384">
        <ele>414</ele>
        <time>2022-05-24 11:52:38</time>
      </trkpt>
      <trkpt lat="41.04226" lon="0.83842">
        <ele>414</ele>
        <time>2022-05-24 11:52:39</time>
      </trkpt>
      <trkpt lat="41.04229" lon="0.83842">
        <ele>414.2</ele>
        <time>2022-05-24 11:52:40</time>
      </trkpt>
      <trkpt lat="41.04231" lon="0.83843">
        <ele>414.2</ele>
        <time>2022-05-24 11:52:41</time>
      </trkpt>
      <trkpt lat="41.04234" lon="0.83843">
        <ele>414.2</ele>
        <time>2022-05-24 11:52:42</time>
      </trkpt>
      <trkpt lat="41.04237" lon="0.83843">
        <ele>414.4</ele>
        <time>2022-05-24 11:52:43</time>
      </trkpt>
      <trkpt lat="41.04239" lon="0.83843">
        <ele>414.6</ele>
        <time>2022-05-24 11:52:44</time>
      </trkpt>
      <trkpt lat="41.04242" lon="0.83844">
        <ele>414.8</ele>
        <time>2022-05-24 11:52:45</time>
      </trkpt>
      <trkpt lat="41.04244" lon="0.83844">
        <ele>415</ele>
        <time>2022-05-24 11:52:46</time>
      </trkpt>
      <trkpt lat="41.04247" lon="0.83844">
        <ele>415.2</ele>
        <time>2022-05-24 11:52:47</time>
      </trkpt>
      <trkpt lat="41.04249" lon="0.83843">
        <ele>415.4</ele>
        <time>2022-05-24 11:52:48</time>
      </trkpt>
      <trkpt lat="41.04252" lon="0.83843">
        <ele>415.4</ele>
        <time>2022-05-24 11:52:49</time>
      </trkpt>
      <trkpt lat="41.04254" lon="0.83842">
        <ele>415.6</ele>
        <time>2022-05-24 11:52:50</time>
      </trkpt>
      <trkpt lat="41.04256" lon="0.83841">
        <ele>415.8</ele>
        <time>2022-05-24 11:52:51</time>
      </trkpt>
      <trkpt lat="41.04259" lon="0.83841">
        <ele>416</ele>
        <time>2022-05-24 11:52:52</time>
      </trkpt>
      <trkpt lat="41.04261" lon="0.8384">
        <ele>416.2</ele>
        <time>2022-05-24 11:52:53</time>
      </trkpt>
      <trkpt lat="41.04264" lon="0.83839">
        <ele>416.4</ele>
        <time>2022-05-24 11:52:54</time>
      </trkpt>
      <trkpt lat="41.04266" lon="0.83838">
        <ele>416.4</ele>
        <time>2022-05-24 11:52:55</time>
      </trkpt>
      <trkpt lat="41.04268" lon="0.83836">
        <ele>416.6</ele>
        <time>2022-05-24 11:52:56</time>
      </trkpt>
      <trkpt lat="41.0427" lon="0.83834">
        <ele>416.6</ele>
        <time>2022-05-24 11:52:57</time>
      </trkpt>
      <trkpt lat="41.04272" lon="0.83832">
        <ele>416.8</ele>
        <time>2022-05-24 11:52:58</time>
      </trkpt>
      <trkpt lat="41.04274" lon="0.8383">
        <ele>416.8</ele>
        <time>2022-05-24 11:52:59</time>
      </trkpt>
      <trkpt lat="41.04276" lon="0.83828">
        <ele>416.8</ele>
        <time>2022-05-24 11:53:00</time>
      </trkpt>
      <trkpt lat="41.04278" lon="0.83826">
        <ele>417</ele>
        <time>2022-05-24 11:53:01</time>
      </trkpt>
      <trkpt lat="41.04279" lon="0.83824">
        <ele>417</ele>
        <time>2022-05-24 11:53:02</time>
      </trkpt>
      <trkpt lat="41.04281" lon="0.83821">
        <ele>417.2</ele>
        <time>2022-05-24 11:53:03</time>
      </trkpt>
      <trkpt lat="41.04283" lon="0.83819">
        <ele>417.2</ele>
        <time>2022-05-24 11:53:04</time>
      </trkpt>
      <trkpt lat="41.04285" lon="0.83816">
        <ele>417.4</ele>
        <time>2022-05-24 11:53:05</time>
      </trkpt>
      <trkpt lat="41.04287" lon="0.83814">
        <ele>417.4</ele>
        <time>2022-05-24 11:53:06</time>
      </trkpt>
      <trkpt lat="41.04289" lon="0.83813">
        <ele>417.4</ele>
        <time>2022-05-24 11:53:07</time>
      </trkpt>
      <trkpt lat="41.04292" lon="0.83812">
        <ele>417.4</ele>
        <time>2022-05-24 11:53:08</time>
      </trkpt>
      <trkpt lat="41.04294" lon="0.83811">
        <ele>417.6</ele>
        <time>2022-05-24 11:53:09</time>
      </trkpt>
      <trkpt lat="41.04297" lon="0.8381">
        <ele>417.6</ele>
        <time>2022-05-24 11:53:10</time>
      </trkpt>
      <trkpt lat="41.04299" lon="0.8381">
        <ele>417.6</ele>
        <time>2022-05-24 11:53:11</time>
      </trkpt>
      <trkpt lat="41.04302" lon="0.8381">
        <ele>417.8</ele>
        <time>2022-05-24 11:53:12</time>
      </trkpt>
      <trkpt lat="41.04304" lon="0.8381">
        <ele>417.8</ele>
        <time>2022-05-24 11:53:13</time>
      </trkpt>
      <trkpt lat="41.04306" lon="0.83811">
        <ele>417.8</ele>
        <time>2022-05-24 11:53:14</time>
      </trkpt>
      <trkpt lat="41.04309" lon="0.83813">
        <ele>418</ele>
        <time>2022-05-24 11:53:15</time>
      </trkpt>
      <trkpt lat="41.04312" lon="0.83815">
        <ele>418</ele>
        <time>2022-05-24 11:53:16</time>
      </trkpt>
      <trkpt lat="41.04314" lon="0.83817">
        <ele>418.2</ele>
        <time>2022-05-24 11:53:17</time>
      </trkpt>
      <trkpt lat="41.04317" lon="0.83819">
        <ele>418.2</ele>
        <time>2022-05-24 11:53:18</time>
      </trkpt>
      <trkpt lat="41.04319" lon="0.83822">
        <ele>418.4</ele>
        <time>2022-05-24 11:53:19</time>
      </trkpt>
      <trkpt lat="41.04322" lon="0.83825">
        <ele>418.4</ele>
        <time>2022-05-24 11:53:20</time>
      </trkpt>
      <trkpt lat="41.04324" lon="0.83828">
        <ele>418.6</ele>
        <time>2022-05-24 11:53:21</time>
      </trkpt>
      <trkpt lat="41.04326" lon="0.8383">
        <ele>418.6</ele>
        <time>2022-05-24 11:53:22</time>
      </trkpt>
      <trkpt lat="41.04328" lon="0.83833">
        <ele>418.8</ele>
        <time>2022-05-24 11:53:23</time>
      </trkpt>
      <trkpt lat="41.04332" lon="0.83835">
        <ele>419</ele>
        <time>2022-05-24 11:53:24</time>
      </trkpt>
      <trkpt lat="41.04334" lon="0.83837">
        <ele>419</ele>
        <time>2022-05-24 11:53:25</time>
      </trkpt>
      <trkpt lat="41.04337" lon="0.8384">
        <ele>419.2</ele>
        <time>2022-05-24 11:53:26</time>
      </trkpt>
      <trkpt lat="41.0434" lon="0.83842">
        <ele>419.4</ele>
        <time>2022-05-24 11:53:27</time>
      </trkpt>
      <trkpt lat="41.04343" lon="0.83844">
        <ele>419.4</ele>
        <time>2022-05-24 11:53:28</time>
      </trkpt>
      <trkpt lat="41.04346" lon="0.83845">
        <ele>419.4</ele>
        <time>2022-05-24 11:53:29</time>
      </trkpt>
      <trkpt lat="41.04348" lon="0.83846">
        <ele>419.4</ele>
        <time>2022-05-24 11:53:30</time>
      </trkpt>
      <trkpt lat="41.04352" lon="0.83846">
        <ele>419.2</ele>
        <time>2022-05-24 11:53:31</time>
      </trkpt>
      <trkpt lat="41.04355" lon="0.83847">
        <ele>419</ele>
        <time>2022-05-24 11:53:32</time>
      </trkpt>
      <trkpt lat="41.04358" lon="0.83848">
        <ele>419.2</ele>
        <time>2022-05-24 11:53:33</time>
      </trkpt>
      <trkpt lat="41.04362" lon="0.83848">
        <ele>419.2</ele>
        <time>2022-05-24 11:53:34</time>
      </trkpt>
      <trkpt lat="41.04365" lon="0.83849">
        <ele>419.4</ele>
        <time>2022-05-24 11:53:35</time>
      </trkpt>
      <trkpt lat="41.04368" lon="0.83849">
        <ele>419.4</ele>
        <time>2022-05-24 11:53:36</time>
      </trkpt>
      <trkpt lat="41.04371" lon="0.83849">
        <ele>419.4</ele>
        <time>2022-05-24 11:53:37</time>
      </trkpt>
      <trkpt lat="41.04375" lon="0.83849">
        <ele>419.4</ele>
        <time>2022-05-24 11:53:38</time>
      </trkpt>
      <trkpt lat="41.04378" lon="0.83849">
        <ele>419.4</ele>
        <time>2022-05-24 11:53:39</time>
      </trkpt>
      <trkpt lat="41.04382" lon="0.83849">
        <ele>419.4</ele>
        <time>2022-05-24 11:53:40</time>
      </trkpt>
      <trkpt lat="41.04384" lon="0.8385">
        <ele>419.4</ele>
        <time>2022-05-24 11:53:41</time>
      </trkpt>
      <trkpt lat="41.04388" lon="0.8385">
        <ele>419.6</ele>
        <time>2022-05-24 11:53:42</time>
      </trkpt>
      <trkpt lat="41.04391" lon="0.83851">
        <ele>419.6</ele>
        <time>2022-05-24 11:53:43</time>
      </trkpt>
      <trkpt lat="41.04394" lon="0.83852">
        <ele>419.8</ele>
        <time>2022-05-24 11:53:44</time>
      </trkpt>
      <trkpt lat="41.04396" lon="0.83852">
        <ele>419.8</ele>
        <time>2022-05-24 11:53:45</time>
      </trkpt>
      <trkpt lat="41.04399" lon="0.83853">
        <ele>420</ele>
        <time>2022-05-24 11:53:46</time>
      </trkpt>
      <trkpt lat="41.04402" lon="0.83854">
        <ele>420</ele>
        <time>2022-05-24 11:53:47</time>
      </trkpt>
      <trkpt lat="41.04406" lon="0.83856">
        <ele>420.2</ele>
        <time>2022-05-24 11:53:48</time>
      </trkpt>
      <trkpt lat="41.04409" lon="0.83857">
        <ele>420.2</ele>
        <time>2022-05-24 11:53:49</time>
      </trkpt>
      <trkpt lat="41.04412" lon="0.8386">
        <ele>420.2</ele>
        <time>2022-05-24 11:53:50</time>
      </trkpt>
      <trkpt lat="41.04415" lon="0.83863">
        <ele>420.2</ele>
        <time>2022-05-24 11:53:51</time>
      </trkpt>
      <trkpt lat="41.04418" lon="0.83867">
        <ele>420.4</ele>
        <time>2022-05-24 11:53:52</time>
      </trkpt>
      <trkpt lat="41.04421" lon="0.8387">
        <ele>420.4</ele>
        <time>2022-05-24 11:53:53</time>
      </trkpt>
      <trkpt lat="41.04424" lon="0.83875">
        <ele>420.4</ele>
        <time>2022-05-24 11:53:54</time>
      </trkpt>
      <trkpt lat="41.04427" lon="0.83878">
        <ele>420.4</ele>
        <time>2022-05-24 11:53:55</time>
      </trkpt>
      <trkpt lat="41.04429" lon="0.83882">
        <ele>420.4</ele>
        <time>2022-05-24 11:53:56</time>
      </trkpt>
      <trkpt lat="41.04433" lon="0.83886">
        <ele>420.4</ele>
        <time>2022-05-24 11:53:57</time>
      </trkpt>
      <trkpt lat="41.04436" lon="0.83889">
        <ele>420.4</ele>
        <time>2022-05-24 11:53:58</time>
      </trkpt>
      <trkpt lat="41.0444" lon="0.83892">
        <ele>420.4</ele>
        <time>2022-05-24 11:53:59</time>
      </trkpt>
      <trkpt lat="41.04444" lon="0.83895">
        <ele>420.6</ele>
        <time>2022-05-24 11:54:00</time>
      </trkpt>
      <trkpt lat="41.04448" lon="0.83897">
        <ele>420.6</ele>
        <time>2022-05-24 11:54:01</time>
      </trkpt>
      <trkpt lat="41.04452" lon="0.83898">
        <ele>420.6</ele>
        <time>2022-05-24 11:54:02</time>
      </trkpt>
      <trkpt lat="41.04456" lon="0.83898">
        <ele>420.6</ele>
        <time>2022-05-24 11:54:03</time>
      </trkpt>
      <trkpt lat="41.0446" lon="0.83898">
        <ele>420.6</ele>
        <time>2022-05-24 11:54:04</time>
      </trkpt>
      <trkpt lat="41.04464" lon="0.83898">
        <ele>420.6</ele>
        <time>2022-05-24 11:54:05</time>
      </trkpt>
      <trkpt lat="41.04468" lon="0.83897">
        <ele>420.6</ele>
        <time>2022-05-24 11:54:06</time>
      </trkpt>
      <trkpt lat="41.04472" lon="0.83896">
        <ele>420.6</ele>
        <time>2022-05-24 11:54:07</time>
      </trkpt>
      <trkpt lat="41.04476" lon="0.83896">
        <ele>420.6</ele>
        <time>2022-05-24 11:54:08</time>
      </trkpt>
      <trkpt lat="41.0448" lon="0.83896">
        <ele>420.6</ele>
        <time>2022-05-24 11:54:09</time>
      </trkpt>
      <trkpt lat="41.04485" lon="0.83896">
        <ele>420.6</ele>
        <time>2022-05-24 11:54:10</time>
      </trkpt>
      <trkpt lat="41.0449" lon="0.83897">
        <ele>420.8</ele>
        <time>2022-05-24 11:54:11</time>
      </trkpt>
      <trkpt lat="41.04494" lon="0.83898">
        <ele>420.8</ele>
        <time>2022-05-24 11:54:12</time>
      </trkpt>
      <trkpt lat="41.04499" lon="0.839">
        <ele>420.8</ele>
        <time>2022-05-24 11:54:13</time>
      </trkpt>
      <trkpt lat="41.04502" lon="0.83902">
        <ele>420.8</ele>
        <time>2022-05-24 11:54:14</time>
      </trkpt>
      <trkpt lat="41.04505" lon="0.83904">
        <ele>420.6</ele>
        <time>2022-05-24 11:54:15</time>
      </trkpt>
      <trkpt lat="41.04509" lon="0.83907">
        <ele>420.6</ele>
        <time>2022-05-24 11:54:16</time>
      </trkpt>
      <trkpt lat="41.04512" lon="0.83909">
        <ele>420.6</ele>
        <time>2022-05-24 11:54:17</time>
      </trkpt>
      <trkpt lat="41.04515" lon="0.83911">
        <ele>420.6</ele>
        <time>2022-05-24 11:54:18</time>
      </trkpt>
      <trkpt lat="41.04519" lon="0.83913">
        <ele>420.6</ele>
        <time>2022-05-24 11:54:19</time>
      </trkpt>
      <trkpt lat="41.04523" lon="0.83915">
        <ele>420.6</ele>
        <time>2022-05-24 11:54:20</time>
      </trkpt>
      <trkpt lat="41.04528" lon="0.83916">
        <ele>420.8</ele>
        <time>2022-05-24 11:54:21</time>
      </trkpt>
      <trkpt lat="41.04532" lon="0.83917">
        <ele>420.8</ele>
        <time>2022-05-24 11:54:22</time>
      </trkpt>
      <trkpt lat="41.04536" lon="0.83917">
        <ele>420.8</ele>
        <time>2022-05-24 11:54:23</time>
      </trkpt>
      <trkpt lat="41.0454" lon="0.83915">
        <ele>420.6</ele>
        <time>2022-05-24 11:54:24</time>
      </trkpt>
      <trkpt lat="41.04544" lon="0.83913">
        <ele>420.6</ele>
        <time>2022-05-24 11:54:25</time>
      </trkpt>
      <trkpt lat="41.04548" lon="0.8391">
        <ele>420.4</ele>
        <time>2022-05-24 11:54:26</time>
      </trkpt>
      <trkpt lat="41.04551" lon="0.83908">
        <ele>420.2</ele>
        <time>2022-05-24 11:54:27</time>
      </trkpt>
      <trkpt lat="41.04554" lon="0.83905">
        <ele>420.2</ele>
        <time>2022-05-24 11:54:28</time>
      </trkpt>
      <trkpt lat="41.04557" lon="0.83902">
        <ele>420.4</ele>
        <time>2022-05-24 11:54:29</time>
      </trkpt>
      <trkpt lat="41.04559" lon="0.83899">
        <ele>420.4</ele>
        <time>2022-05-24 11:54:30</time>
      </trkpt>
      <trkpt lat="41.04561" lon="0.83895">
        <ele>420.4</ele>
        <time>2022-05-24 11:54:31</time>
      </trkpt>
      <trkpt lat="41.04563" lon="0.83891">
        <ele>420.6</ele>
        <time>2022-05-24 11:54:32</time>
      </trkpt>
      <trkpt lat="41.04565" lon="0.83887">
        <ele>420.6</ele>
        <time>2022-05-24 11:54:33</time>
      </trkpt>
      <trkpt lat="41.04567" lon="0.83882">
        <ele>420.6</ele>
        <time>2022-05-24 11:54:34</time>
      </trkpt>
      <trkpt lat="41.04568" lon="0.83878">
        <ele>420.8</ele>
        <time>2022-05-24 11:54:35</time>
      </trkpt>
      <trkpt lat="41.04569" lon="0.83873">
        <ele>420.8</ele>
        <time>2022-05-24 11:54:36</time>
      </trkpt>
      <trkpt lat="41.0457" lon="0.83868">
        <ele>420.8</ele>
        <time>2022-05-24 11:54:37</time>
      </trkpt>
      <trkpt lat="41.04572" lon="0.83863">
        <ele>420.8</ele>
        <time>2022-05-24 11:54:38</time>
      </trkpt>
      <trkpt lat="41.04573" lon="0.83858">
        <ele>420.8</ele>
        <time>2022-05-24 11:54:39</time>
      </trkpt>
      <trkpt lat="41.04573" lon="0.83852">
        <ele>420.8</ele>
        <time>2022-05-24 11:54:40</time>
      </trkpt>
      <trkpt lat="41.04574" lon="0.83847">
        <ele>420.6</ele>
        <time>2022-05-24 11:54:41</time>
      </trkpt>
      <trkpt lat="41.04575" lon="0.83841">
        <ele>420.6</ele>
        <time>2022-05-24 11:54:42</time>
      </trkpt>
      <trkpt lat="41.04576" lon="0.83836">
        <ele>420.6</ele>
        <time>2022-05-24 11:54:43</time>
      </trkpt>
      <trkpt lat="41.04577" lon="0.8383">
        <ele>420.6</ele>
        <time>2022-05-24 11:54:44</time>
      </trkpt>
      <trkpt lat="41.04578" lon="0.83825">
        <ele>420.8</ele>
        <time>2022-05-24 11:54:45</time>
      </trkpt>
      <trkpt lat="41.04579" lon="0.83819">
        <ele>420.8</ele>
        <time>2022-05-24 11:54:46</time>
      </trkpt>
      <trkpt lat="41.04581" lon="0.83814">
        <ele>420.8</ele>
        <time>2022-05-24 11:54:47</time>
      </trkpt>
      <trkpt lat="41.04582" lon="0.83809">
        <ele>420.8</ele>
        <time>2022-05-24 11:54:48</time>
      </trkpt>
      <trkpt lat="41.04584" lon="0.83804">
        <ele>420.8</ele>
        <time>2022-05-24 11:54:49</time>
      </trkpt>
      <trkpt lat="41.04585" lon="0.83798">
        <ele>420.8</ele>
        <time>2022-05-24 11:54:50</time>
      </trkpt>
      <trkpt lat="41.04586" lon="0.83793">
        <ele>421</ele>
        <time>2022-05-24 11:54:51</time>
      </trkpt>
      <trkpt lat="41.04588" lon="0.83789">
        <ele>421</ele>
        <time>2022-05-24 11:54:52</time>
      </trkpt>
      <trkpt lat="41.04589" lon="0.83784">
        <ele>420.8</ele>
        <time>2022-05-24 11:54:53</time>
      </trkpt>
      <trkpt lat="41.04591" lon="0.83779">
        <ele>420.8</ele>
        <time>2022-05-24 11:54:54</time>
      </trkpt>
      <trkpt lat="41.04593" lon="0.83774">
        <ele>420.8</ele>
        <time>2022-05-24 11:54:55</time>
      </trkpt>
      <trkpt lat="41.04594" lon="0.8377">
        <ele>420.8</ele>
        <time>2022-05-24 11:54:56</time>
      </trkpt>
      <trkpt lat="41.04596" lon="0.83765">
        <ele>420.8</ele>
        <time>2022-05-24 11:54:57</time>
      </trkpt>
      <trkpt lat="41.04597" lon="0.83759">
        <ele>420.8</ele>
        <time>2022-05-24 11:54:58</time>
      </trkpt>
      <trkpt lat="41.04599" lon="0.83754">
        <ele>420.8</ele>
        <time>2022-05-24 11:54:59</time>
      </trkpt>
      <trkpt lat="41.04601" lon="0.83749">
        <ele>420.8</ele>
        <time>2022-05-24 11:55:00</time>
      </trkpt>
      <trkpt lat="41.04602" lon="0.83744">
        <ele>420.6</ele>
        <time>2022-05-24 11:55:01</time>
      </trkpt>
      <trkpt lat="41.04603" lon="0.83739">
        <ele>420.6</ele>
        <time>2022-05-24 11:55:02</time>
      </trkpt>
      <trkpt lat="41.04604" lon="0.83734">
        <ele>420.6</ele>
        <time>2022-05-24 11:55:03</time>
      </trkpt>
      <trkpt lat="41.04606" lon="0.83729">
        <ele>420.6</ele>
        <time>2022-05-24 11:55:04</time>
      </trkpt>
      <trkpt lat="41.04607" lon="0.83724">
        <ele>420.6</ele>
        <time>2022-05-24 11:55:05</time>
      </trkpt>
      <trkpt lat="41.04608" lon="0.83719">
        <ele>420.6</ele>
        <time>2022-05-24 11:55:06</time>
      </trkpt>
      <trkpt lat="41.0461" lon="0.83715">
        <ele>420.6</ele>
        <time>2022-05-24 11:55:07</time>
      </trkpt>
      <trkpt lat="41.04611" lon="0.8371">
        <ele>420.8</ele>
        <time>2022-05-24 11:55:08</time>
      </trkpt>
      <trkpt lat="41.04613" lon="0.83706">
        <ele>420.8</ele>
        <time>2022-05-24 11:55:09</time>
      </trkpt>
      <trkpt lat="41.04615" lon="0.83701">
        <ele>421</ele>
        <time>2022-05-24 11:55:10</time>
      </trkpt>
      <trkpt lat="41.04617" lon="0.83697">
        <ele>421</ele>
        <time>2022-05-24 11:55:11</time>
      </trkpt>
      <trkpt lat="41.04618" lon="0.83693">
        <ele>421.2</ele>
        <time>2022-05-24 11:55:12</time>
      </trkpt>
      <trkpt lat="41.0462" lon="0.83689">
        <ele>421.4</ele>
        <time>2022-05-24 11:55:13</time>
      </trkpt>
      <trkpt lat="41.04622" lon="0.83685">
        <ele>421.6</ele>
        <time>2022-05-24 11:55:14</time>
      </trkpt>
      <trkpt lat="41.04624" lon="0.83681">
        <ele>421.6</ele>
        <time>2022-05-24 11:55:15</time>
      </trkpt>
      <trkpt lat="41.04627" lon="0.83678">
        <ele>421.8</ele>
        <time>2022-05-24 11:55:16</time>
      </trkpt>
      <trkpt lat="41.04629" lon="0.83674">
        <ele>421.8</ele>
        <time>2022-05-24 11:55:17</time>
      </trkpt>
      <trkpt lat="41.04631" lon="0.8367">
        <ele>421.8</ele>
        <time>2022-05-24 11:55:18</time>
      </trkpt>
      <trkpt lat="41.04633" lon="0.83666">
        <ele>421.8</ele>
        <time>2022-05-24 11:55:19</time>
      </trkpt>
      <trkpt lat="41.04636" lon="0.83662">
        <ele>422</ele>
        <time>2022-05-24 11:55:20</time>
      </trkpt>
      <trkpt lat="41.04638" lon="0.83659">
        <ele>422</ele>
        <time>2022-05-24 11:55:21</time>
      </trkpt>
      <trkpt lat="41.04641" lon="0.83655">
        <ele>422.2</ele>
        <time>2022-05-24 11:55:22</time>
      </trkpt>
      <trkpt lat="41.04643" lon="0.83652">
        <ele>422.4</ele>
        <time>2022-05-24 11:55:23</time>
      </trkpt>
      <trkpt lat="41.04646" lon="0.83648">
        <ele>422.4</ele>
        <time>2022-05-24 11:55:24</time>
      </trkpt>
      <trkpt lat="41.04648" lon="0.83644">
        <ele>422.4</ele>
        <time>2022-05-24 11:55:25</time>
      </trkpt>
      <trkpt lat="41.04651" lon="0.8364">
        <ele>422.4</ele>
        <time>2022-05-24 11:55:26</time>
      </trkpt>
      <trkpt lat="41.04653" lon="0.83636">
        <ele>422.4</ele>
        <time>2022-05-24 11:55:27</time>
      </trkpt>
      <trkpt lat="41.04654" lon="0.83631">
        <ele>422.4</ele>
        <time>2022-05-24 11:55:28</time>
      </trkpt>
      <trkpt lat="41.04655" lon="0.83626">
        <ele>422.4</ele>
        <time>2022-05-24 11:55:29</time>
      </trkpt>
      <trkpt lat="41.04657" lon="0.83621">
        <ele>422.4</ele>
        <time>2022-05-24 11:55:30</time>
      </trkpt>
      <trkpt lat="41.04658" lon="0.83616">
        <ele>422.6</ele>
        <time>2022-05-24 11:55:31</time>
      </trkpt>
      <trkpt lat="41.04659" lon="0.83611">
        <ele>422.8</ele>
        <time>2022-05-24 11:55:32</time>
      </trkpt>
      <trkpt lat="41.04659" lon="0.83606">
        <ele>423</ele>
        <time>2022-05-24 11:55:33</time>
      </trkpt>
      <trkpt lat="41.04659" lon="0.836">
        <ele>423.2</ele>
        <time>2022-05-24 11:55:34</time>
      </trkpt>
      <trkpt lat="41.0466" lon="0.83594">
        <ele>423.2</ele>
        <time>2022-05-24 11:55:35</time>
      </trkpt>
      <trkpt lat="41.0466" lon="0.83589">
        <ele>423.2</ele>
        <time>2022-05-24 11:55:36</time>
      </trkpt>
      <trkpt lat="41.0466" lon="0.83583">
        <ele>423.6</ele>
        <time>2022-05-24 11:55:37</time>
      </trkpt>
      <trkpt lat="41.04661" lon="0.83577">
        <ele>423.8</ele>
        <time>2022-05-24 11:55:38</time>
      </trkpt>
      <trkpt lat="41.04661" lon="0.83572">
        <ele>424</ele>
        <time>2022-05-24 11:55:39</time>
      </trkpt>
      <trkpt lat="41.04661" lon="0.83567">
        <ele>424</ele>
        <time>2022-05-24 11:55:40</time>
      </trkpt>
      <trkpt lat="41.04661" lon="0.83562">
        <ele>424.2</ele>
        <time>2022-05-24 11:55:41</time>
      </trkpt>
      <trkpt lat="41.04661" lon="0.83556">
        <ele>424.2</ele>
        <time>2022-05-24 11:55:42</time>
      </trkpt>
      <trkpt lat="41.0466" lon="0.83551">
        <ele>424.2</ele>
        <time>2022-05-24 11:55:43</time>
      </trkpt>
      <trkpt lat="41.0466" lon="0.83546">
        <ele>424.2</ele>
        <time>2022-05-24 11:55:44</time>
      </trkpt>
      <trkpt lat="41.0466" lon="0.83541">
        <ele>424.2</ele>
        <time>2022-05-24 11:55:45</time>
      </trkpt>
      <trkpt lat="41.0466" lon="0.83535">
        <ele>424.4</ele>
        <time>2022-05-24 11:55:46</time>
      </trkpt>
      <trkpt lat="41.0466" lon="0.8353">
        <ele>424.4</ele>
        <time>2022-05-24 11:55:47</time>
      </trkpt>
      <trkpt lat="41.0466" lon="0.83525">
        <ele>424.6</ele>
        <time>2022-05-24 11:55:48</time>
      </trkpt>
      <trkpt lat="41.0466" lon="0.8352">
        <ele>424.8</ele>
        <time>2022-05-24 11:55:49</time>
      </trkpt>
      <trkpt lat="41.04659" lon="0.83514">
        <ele>425</ele>
        <time>2022-05-24 11:55:50</time>
      </trkpt>
      <trkpt lat="41.04659" lon="0.83509">
        <ele>425</ele>
        <time>2022-05-24 11:55:51</time>
      </trkpt>
      <trkpt lat="41.04659" lon="0.83504">
        <ele>425</ele>
        <time>2022-05-24 11:55:52</time>
      </trkpt>
      <trkpt lat="41.04659" lon="0.83498">
        <ele>425</ele>
        <time>2022-05-24 11:55:53</time>
      </trkpt>
      <trkpt lat="41.0466" lon="0.83493">
        <ele>425</ele>
        <time>2022-05-24 11:55:54</time>
      </trkpt>
      <trkpt lat="41.0466" lon="0.83488">
        <ele>425</ele>
        <time>2022-05-24 11:55:55</time>
      </trkpt>
      <trkpt lat="41.0466" lon="0.83483">
        <ele>425.2</ele>
        <time>2022-05-24 11:55:56</time>
      </trkpt>
      <trkpt lat="41.04661" lon="0.83478">
        <ele>425.4</ele>
        <time>2022-05-24 11:55:57</time>
      </trkpt>
      <trkpt lat="41.04662" lon="0.83473">
        <ele>425.6</ele>
        <time>2022-05-24 11:55:58</time>
      </trkpt>
      <trkpt lat="41.04664" lon="0.83469">
        <ele>425.8</ele>
        <time>2022-05-24 11:55:59</time>
      </trkpt>
      <trkpt lat="41.04666" lon="0.83464">
        <ele>426</ele>
        <time>2022-05-24 11:56:00</time>
      </trkpt>
      <trkpt lat="41.04668" lon="0.83459">
        <ele>426.2</ele>
        <time>2022-05-24 11:56:01</time>
      </trkpt>
      <trkpt lat="41.0467" lon="0.83454">
        <ele>426.2</ele>
        <time>2022-05-24 11:56:02</time>
      </trkpt>
      <trkpt lat="41.04673" lon="0.8345">
        <ele>426.2</ele>
        <time>2022-05-24 11:56:03</time>
      </trkpt>
      <trkpt lat="41.04675" lon="0.83445">
        <ele>426.4</ele>
        <time>2022-05-24 11:56:04</time>
      </trkpt>
      <trkpt lat="41.04678" lon="0.8344">
        <ele>426.4</ele>
        <time>2022-05-24 11:56:05</time>
      </trkpt>
      <trkpt lat="41.04681" lon="0.83435">
        <ele>426.4</ele>
        <time>2022-05-24 11:56:06</time>
      </trkpt>
      <trkpt lat="41.04683" lon="0.8343">
        <ele>426.2</ele>
        <time>2022-05-24 11:56:07</time>
      </trkpt>
      <trkpt lat="41.04686" lon="0.83424">
        <ele>426.2</ele>
        <time>2022-05-24 11:56:08</time>
      </trkpt>
      <trkpt lat="41.04688" lon="0.83418">
        <ele>426.2</ele>
        <time>2022-05-24 11:56:09</time>
      </trkpt>
      <trkpt lat="41.04691" lon="0.83413">
        <ele>426</ele>
        <time>2022-05-24 11:56:10</time>
      </trkpt>
      <trkpt lat="41.04694" lon="0.83408">
        <ele>426</ele>
        <time>2022-05-24 11:56:11</time>
      </trkpt>
      <trkpt lat="41.04697" lon="0.83402">
        <ele>425.8</ele>
        <time>2022-05-24 11:56:12</time>
      </trkpt>
      <trkpt lat="41.04699" lon="0.83397">
        <ele>425.8</ele>
        <time>2022-05-24 11:56:13</time>
      </trkpt>
      <trkpt lat="41.04701" lon="0.83393">
        <ele>425.8</ele>
        <time>2022-05-24 11:56:14</time>
      </trkpt>
      <trkpt lat="41.04705" lon="0.83388">
        <ele>425.8</ele>
        <time>2022-05-24 11:56:15</time>
      </trkpt>
      <trkpt lat="41.04707" lon="0.83383">
        <ele>425.6</ele>
        <time>2022-05-24 11:56:16</time>
      </trkpt>
      <trkpt lat="41.0471" lon="0.83378">
        <ele>425.6</ele>
        <time>2022-05-24 11:56:17</time>
      </trkpt>
      <trkpt lat="41.04713" lon="0.83374">
        <ele>425.8</ele>
        <time>2022-05-24 11:56:18</time>
      </trkpt>
      <trkpt lat="41.04715" lon="0.83368">
        <ele>425.8</ele>
        <time>2022-05-24 11:56:19</time>
      </trkpt>
      <trkpt lat="41.04718" lon="0.83364">
        <ele>426</ele>
        <time>2022-05-24 11:56:20</time>
      </trkpt>
      <trkpt lat="41.04721" lon="0.83359">
        <ele>426.2</ele>
        <time>2022-05-24 11:56:21</time>
      </trkpt>
      <trkpt lat="41.04724" lon="0.83354">
        <ele>426.4</ele>
        <time>2022-05-24 11:56:22</time>
      </trkpt>
      <trkpt lat="41.04726" lon="0.83349">
        <ele>426.6</ele>
        <time>2022-05-24 11:56:23</time>
      </trkpt>
      <trkpt lat="41.04729" lon="0.83345">
        <ele>426.8</ele>
        <time>2022-05-24 11:56:24</time>
      </trkpt>
      <trkpt lat="41.04733" lon="0.83339">
        <ele>426.8</ele>
        <time>2022-05-24 11:56:25</time>
      </trkpt>
      <trkpt lat="41.04735" lon="0.83333">
        <ele>426.6</ele>
        <time>2022-05-24 11:56:26</time>
      </trkpt>
      <trkpt lat="41.04737" lon="0.83327">
        <ele>426.6</ele>
        <time>2022-05-24 11:56:27</time>
      </trkpt>
      <trkpt lat="41.04737" lon="0.83321">
        <ele>426.4</ele>
        <time>2022-05-24 11:56:28</time>
      </trkpt>
      <trkpt lat="41.04737" lon="0.83313">
        <ele>426.2</ele>
        <time>2022-05-24 11:56:29</time>
      </trkpt>
      <trkpt lat="41.04736" lon="0.83307">
        <ele>426</ele>
        <time>2022-05-24 11:56:30</time>
      </trkpt>
      <trkpt lat="41.04733" lon="0.833">
        <ele>426</ele>
        <time>2022-05-24 11:56:31</time>
      </trkpt>
      <trkpt lat="41.04731" lon="0.83294">
        <ele>425.8</ele>
        <time>2022-05-24 11:56:32</time>
      </trkpt>
      <trkpt lat="41.04728" lon="0.83288">
        <ele>425.8</ele>
        <time>2022-05-24 11:56:33</time>
      </trkpt>
      <trkpt lat="41.04724" lon="0.83283">
        <ele>425.6</ele>
        <time>2022-05-24 11:56:34</time>
      </trkpt>
      <trkpt lat="41.04721" lon="0.83277">
        <ele>425.4</ele>
        <time>2022-05-24 11:56:35</time>
      </trkpt>
      <trkpt lat="41.04717" lon="0.83271">
        <ele>425</ele>
        <time>2022-05-24 11:56:36</time>
      </trkpt>
      <trkpt lat="41.04714" lon="0.83265">
        <ele>424.8</ele>
        <time>2022-05-24 11:56:37</time>
      </trkpt>
      <trkpt lat="41.0471" lon="0.83258">
        <ele>424.4</ele>
        <time>2022-05-24 11:56:38</time>
      </trkpt>
      <trkpt lat="41.04706" lon="0.8325">
        <ele>424</ele>
        <time>2022-05-24 11:56:39</time>
      </trkpt>
      <trkpt lat="41.04702" lon="0.83242">
        <ele>423.4</ele>
        <time>2022-05-24 11:56:40</time>
      </trkpt>
      <trkpt lat="41.04698" lon="0.83234">
        <ele>423</ele>
        <time>2022-05-24 11:56:41</time>
      </trkpt>
      <trkpt lat="41.04694" lon="0.83227">
        <ele>422.6</ele>
        <time>2022-05-24 11:56:42</time>
      </trkpt>
      <trkpt lat="41.0469" lon="0.83216">
        <ele>422</ele>
        <time>2022-05-24 11:56:43</time>
      </trkpt>
      <trkpt lat="41.04686" lon="0.83207">
        <ele>421.4</ele>
        <time>2022-05-24 11:56:44</time>
      </trkpt>
      <trkpt lat="41.04683" lon="0.83196">
        <ele>421</ele>
        <time>2022-05-24 11:56:45</time>
      </trkpt>
      <trkpt lat="41.0468" lon="0.83186">
        <ele>420.4</ele>
        <time>2022-05-24 11:56:46</time>
      </trkpt>
      <trkpt lat="41.04678" lon="0.83173">
        <ele>419.8</ele>
        <time>2022-05-24 11:56:47</time>
      </trkpt>
      <trkpt lat="41.04677" lon="0.83161">
        <ele>419.4</ele>
        <time>2022-05-24 11:56:48</time>
      </trkpt>
      <trkpt lat="41.04676" lon="0.83148">
        <ele>418.6</ele>
        <time>2022-05-24 11:56:49</time>
      </trkpt>
      <trkpt lat="41.04675" lon="0.83136">
        <ele>418</ele>
        <time>2022-05-24 11:56:50</time>
      </trkpt>
      <trkpt lat="41.04674" lon="0.83123">
        <ele>417.6</ele>
        <time>2022-05-24 11:56:51</time>
      </trkpt>
      <trkpt lat="41.04674" lon="0.8311">
        <ele>417</ele>
        <time>2022-05-24 11:56:52</time>
      </trkpt>
      <trkpt lat="41.04676" lon="0.83097">
        <ele>416.2</ele>
        <time>2022-05-24 11:56:53</time>
      </trkpt>
      <trkpt lat="41.04677" lon="0.83084">
        <ele>415.6</ele>
        <time>2022-05-24 11:56:54</time>
      </trkpt>
      <trkpt lat="41.04679" lon="0.83071">
        <ele>415</ele>
        <time>2022-05-24 11:56:55</time>
      </trkpt>
      <trkpt lat="41.04677" lon="0.83058">
        <ele>414.4</ele>
        <time>2022-05-24 11:56:56</time>
      </trkpt>
      <trkpt lat="41.04673" lon="0.83047">
        <ele>413.8</ele>
        <time>2022-05-24 11:56:57</time>
      </trkpt>
      <trkpt lat="41.04666" lon="0.83036">
        <ele>413.4</ele>
        <time>2022-05-24 11:56:58</time>
      </trkpt>
      <trkpt lat="41.04655" lon="0.83025">
        <ele>412.8</ele>
        <time>2022-05-24 11:56:59</time>
      </trkpt>
      <trkpt lat="41.04648" lon="0.83018">
        <ele>412.2</ele>
        <time>2022-05-24 11:57:00</time>
      </trkpt>
      <trkpt lat="41.04641" lon="0.83008">
        <ele>411.8</ele>
        <time>2022-05-24 11:57:01</time>
      </trkpt>
      <trkpt lat="41.04633" lon="0.82994">
        <ele>411</ele>
        <time>2022-05-24 11:57:02</time>
      </trkpt>
      <trkpt lat="41.04629" lon="0.82983">
        <ele>410.4</ele>
        <time>2022-05-24 11:57:03</time>
      </trkpt>
      <trkpt lat="41.04624" lon="0.82972">
        <ele>409.8</ele>
        <time>2022-05-24 11:57:04</time>
      </trkpt>
      <trkpt lat="41.04618" lon="0.82959">
        <ele>409</ele>
        <time>2022-05-24 11:57:05</time>
      </trkpt>
      <trkpt lat="41.04612" lon="0.82949">
        <ele>408.4</ele>
        <time>2022-05-24 11:57:06</time>
      </trkpt>
      <trkpt lat="41.04604" lon="0.82938">
        <ele>407.8</ele>
        <time>2022-05-24 11:57:07</time>
      </trkpt>
      <trkpt lat="41.04595" lon="0.82931">
        <ele>407</ele>
        <time>2022-05-24 11:57:08</time>
      </trkpt>
      <trkpt lat="41.04586" lon="0.82924">
        <ele>406</ele>
        <time>2022-05-24 11:57:09</time>
      </trkpt>
      <trkpt lat="41.04575" lon="0.82917">
        <ele>405</ele>
        <time>2022-05-24 11:57:10</time>
      </trkpt>
      <trkpt lat="41.04567" lon="0.8291">
        <ele>404</ele>
        <time>2022-05-24 11:57:11</time>
      </trkpt>
      <trkpt lat="41.04557" lon="0.82902">
        <ele>403.2</ele>
        <time>2022-05-24 11:57:12</time>
      </trkpt>
      <trkpt lat="41.04549" lon="0.82892">
        <ele>402.6</ele>
        <time>2022-05-24 11:57:13</time>
      </trkpt>
      <trkpt lat="41.04539" lon="0.82879">
        <ele>401.4</ele>
        <time>2022-05-24 11:57:14</time>
      </trkpt>
      <trkpt lat="41.04532" lon="0.82871">
        <ele>400.8</ele>
        <time>2022-05-24 11:57:15</time>
      </trkpt>
      <trkpt lat="41.04523" lon="0.82859">
        <ele>399.6</ele>
        <time>2022-05-24 11:57:16</time>
      </trkpt>
      <trkpt lat="41.04516" lon="0.82849">
        <ele>399</ele>
        <time>2022-05-24 11:57:17</time>
      </trkpt>
      <trkpt lat="41.04509" lon="0.82835">
        <ele>398.4</ele>
        <time>2022-05-24 11:57:18</time>
      </trkpt>
      <trkpt lat="41.04505" lon="0.82825">
        <ele>397.8</ele>
        <time>2022-05-24 11:57:19</time>
      </trkpt>
      <trkpt lat="41.04501" lon="0.82813">
        <ele>397.2</ele>
        <time>2022-05-24 11:57:20</time>
      </trkpt>
      <trkpt lat="41.04501" lon="0.82802">
        <ele>396.8</ele>
        <time>2022-05-24 11:57:21</time>
      </trkpt>
      <trkpt lat="41.04503" lon="0.82791">
        <ele>396.4</ele>
        <time>2022-05-24 11:57:22</time>
      </trkpt>
      <trkpt lat="41.04507" lon="0.82777">
        <ele>396</ele>
        <time>2022-05-24 11:57:23</time>
      </trkpt>
      <trkpt lat="41.04509" lon="0.82764">
        <ele>395.6</ele>
        <time>2022-05-24 11:57:24</time>
      </trkpt>
      <trkpt lat="41.04508" lon="0.82751">
        <ele>395.4</ele>
        <time>2022-05-24 11:57:25</time>
      </trkpt>
      <trkpt lat="41.04505" lon="0.82743">
        <ele>395.2</ele>
        <time>2022-05-24 11:57:26</time>
      </trkpt>
      <trkpt lat="41.04498" lon="0.82735">
        <ele>395</ele>
        <time>2022-05-24 11:57:27</time>
      </trkpt>
      <trkpt lat="41.04492" lon="0.82729">
        <ele>394.8</ele>
        <time>2022-05-24 11:57:28</time>
      </trkpt>
      <trkpt lat="41.04485" lon="0.82721">
        <ele>394.6</ele>
        <time>2022-05-24 11:57:29</time>
      </trkpt>
      <trkpt lat="41.0448" lon="0.82714">
        <ele>394.6</ele>
        <time>2022-05-24 11:57:30</time>
      </trkpt>
      <trkpt lat="41.04478" lon="0.82704">
        <ele>394.6</ele>
        <time>2022-05-24 11:57:31</time>
      </trkpt>
      <trkpt lat="41.04477" lon="0.82696">
        <ele>394.6</ele>
        <time>2022-05-24 11:57:32</time>
      </trkpt>
      <trkpt lat="41.04476" lon="0.82686">
        <ele>394.6</ele>
        <time>2022-05-24 11:57:33</time>
      </trkpt>
      <trkpt lat="41.04477" lon="0.82677">
        <ele>394.6</ele>
        <time>2022-05-24 11:57:34</time>
      </trkpt>
      <trkpt lat="41.04478" lon="0.82666">
        <ele>394.8</ele>
        <time>2022-05-24 11:57:35</time>
      </trkpt>
      <trkpt lat="41.04479" lon="0.82658">
        <ele>394.8</ele>
        <time>2022-05-24 11:57:36</time>
      </trkpt>
      <trkpt lat="41.04482" lon="0.82649">
        <ele>395</ele>
        <time>2022-05-24 11:57:37</time>
      </trkpt>
      <trkpt lat="41.04484" lon="0.82642">
        <ele>395</ele>
        <time>2022-05-24 11:57:38</time>
      </trkpt>
      <trkpt lat="41.04486" lon="0.82635">
        <ele>395.2</ele>
        <time>2022-05-24 11:57:39</time>
      </trkpt>
      <trkpt lat="41.04487" lon="0.8263">
        <ele>395.4</ele>
        <time>2022-05-24 11:57:40</time>
      </trkpt>
      <trkpt lat="41.0449" lon="0.82622">
        <ele>395.6</ele>
        <time>2022-05-24 11:57:41</time>
      </trkpt>
      <trkpt lat="41.04493" lon="0.82618">
        <ele>395.8</ele>
        <time>2022-05-24 11:57:42</time>
      </trkpt>
      <trkpt lat="41.04496" lon="0.82613">
        <ele>396.2</ele>
        <time>2022-05-24 11:57:43</time>
      </trkpt>
      <trkpt lat="41.04498" lon="0.8261">
        <ele>396.4</ele>
        <time>2022-05-24 11:57:44</time>
      </trkpt>
      <trkpt lat="41.04501" lon="0.82608">
        <ele>396.6</ele>
        <time>2022-05-24 11:57:45</time>
      </trkpt>
      <trkpt lat="41.04505" lon="0.82606">
        <ele>397</ele>
        <time>2022-05-24 11:57:46</time>
      </trkpt>
      <trkpt lat="41.04509" lon="0.82606">
        <ele>397</ele>
        <time>2022-05-24 11:57:47</time>
      </trkpt>
      <trkpt lat="41.04511" lon="0.82606">
        <ele>397.2</ele>
        <time>2022-05-24 11:57:48</time>
      </trkpt>
      <trkpt lat="41.04515" lon="0.82606">
        <ele>397.4</ele>
        <time>2022-05-24 11:57:49</time>
      </trkpt>
      <trkpt lat="41.04519" lon="0.82606">
        <ele>397.6</ele>
        <time>2022-05-24 11:57:50</time>
      </trkpt>
      <trkpt lat="41.04521" lon="0.82606">
        <ele>397.6</ele>
        <time>2022-05-24 11:57:51</time>
      </trkpt>
      <trkpt lat="41.04525" lon="0.82606">
        <ele>397.8</ele>
        <time>2022-05-24 11:57:52</time>
      </trkpt>
      <trkpt lat="41.04528" lon="0.82607">
        <ele>398</ele>
        <time>2022-05-24 11:57:53</time>
      </trkpt>
      <trkpt lat="41.04531" lon="0.82607">
        <ele>398.2</ele>
        <time>2022-05-24 11:57:54</time>
      </trkpt>
      <trkpt lat="41.04535" lon="0.82608">
        <ele>398.4</ele>
        <time>2022-05-24 11:57:55</time>
      </trkpt>
      <trkpt lat="41.04538" lon="0.82608">
        <ele>398.6</ele>
        <time>2022-05-24 11:57:56</time>
      </trkpt>
      <trkpt lat="41.04541" lon="0.8261">
        <ele>398.8</ele>
        <time>2022-05-24 11:57:57</time>
      </trkpt>
      <trkpt lat="41.04544" lon="0.82612">
        <ele>398.8</ele>
        <time>2022-05-24 11:57:58</time>
      </trkpt>
      <trkpt lat="41.04547" lon="0.82614">
        <ele>399</ele>
        <time>2022-05-24 11:57:59</time>
      </trkpt>
      <trkpt lat="41.0455" lon="0.82616">
        <ele>399.2</ele>
        <time>2022-05-24 11:58:00</time>
      </trkpt>
      <trkpt lat="41.04553" lon="0.82619">
        <ele>399.2</ele>
        <time>2022-05-24 11:58:01</time>
      </trkpt>
      <trkpt lat="41.04556" lon="0.82621">
        <ele>399.4</ele>
        <time>2022-05-24 11:58:02</time>
      </trkpt>
      <trkpt lat="41.04559" lon="0.82624">
        <ele>399.6</ele>
        <time>2022-05-24 11:58:03</time>
      </trkpt>
      <trkpt lat="41.04562" lon="0.82626">
        <ele>399.8</ele>
        <time>2022-05-24 11:58:04</time>
      </trkpt>
      <trkpt lat="41.04564" lon="0.82628">
        <ele>399.8</ele>
        <time>2022-05-24 11:58:05</time>
      </trkpt>
      <trkpt lat="41.04566" lon="0.8263">
        <ele>400</ele>
        <time>2022-05-24 11:58:06</time>
      </trkpt>
      <trkpt lat="41.04567" lon="0.82632">
        <ele>400.2</ele>
        <time>2022-05-24 11:58:07</time>
      </trkpt>
      <trkpt lat="41.0457" lon="0.82634">
        <ele>400.2</ele>
        <time>2022-05-24 11:58:08</time>
      </trkpt>
      <trkpt lat="41.04572" lon="0.82635">
        <ele>400.4</ele>
        <time>2022-05-24 11:58:09</time>
      </trkpt>
      <trkpt lat="41.04575" lon="0.82636">
        <ele>400.4</ele>
        <time>2022-05-24 11:58:10</time>
      </trkpt>
      <trkpt lat="41.04576" lon="0.82638">
        <ele>400.6</ele>
        <time>2022-05-24 11:58:11</time>
      </trkpt>
      <trkpt lat="41.04578" lon="0.82641">
        <ele>400.6</ele>
        <time>2022-05-24 11:58:12</time>
      </trkpt>
      <trkpt lat="41.0458" lon="0.82643">
        <ele>400.8</ele>
        <time>2022-05-24 11:58:13</time>
      </trkpt>
      <trkpt lat="41.04582" lon="0.82646">
        <ele>400.8</ele>
        <time>2022-05-24 11:58:14</time>
      </trkpt>
      <trkpt lat="41.04583" lon="0.82647">
        <ele>401</ele>
        <time>2022-05-24 11:58:15</time>
      </trkpt>
      <trkpt lat="41.04585" lon="0.8265">
        <ele>401</ele>
        <time>2022-05-24 11:58:16</time>
      </trkpt>
      <trkpt lat="41.04587" lon="0.82653">
        <ele>401.2</ele>
        <time>2022-05-24 11:58:17</time>
      </trkpt>
      <trkpt lat="41.04588" lon="0.82654">
        <ele>401.2</ele>
        <time>2022-05-24 11:58:18</time>
      </trkpt>
      <trkpt lat="41.04589" lon="0.82656">
        <ele>401.4</ele>
        <time>2022-05-24 11:58:19</time>
      </trkpt>
      <trkpt lat="41.04591" lon="0.82658">
        <ele>401.4</ele>
        <time>2022-05-24 11:58:20</time>
      </trkpt>
      <trkpt lat="41.04594" lon="0.8266">
        <ele>401.6</ele>
        <time>2022-05-24 11:58:21</time>
      </trkpt>
      <trkpt lat="41.04596" lon="0.82662">
        <ele>401.8</ele>
        <time>2022-05-24 11:58:22</time>
      </trkpt>
      <trkpt lat="41.04597" lon="0.82664">
        <ele>401.8</ele>
        <time>2022-05-24 11:58:23</time>
      </trkpt>
      <trkpt lat="41.04599" lon="0.82666">
        <ele>402</ele>
        <time>2022-05-24 11:58:24</time>
      </trkpt>
      <trkpt lat="41.04602" lon="0.82668">
        <ele>402</ele>
        <time>2022-05-24 11:58:25</time>
      </trkpt>
      <trkpt lat="41.04604" lon="0.82669">
        <ele>402.2</ele>
        <time>2022-05-24 11:58:26</time>
      </trkpt>
      <trkpt lat="41.04606" lon="0.82671">
        <ele>402.2</ele>
        <time>2022-05-24 11:58:27</time>
      </trkpt>
      <trkpt lat="41.04608" lon="0.82672">
        <ele>402.4</ele>
        <time>2022-05-24 11:58:28</time>
      </trkpt>
      <trkpt lat="41.0461" lon="0.82674">
        <ele>402.6</ele>
        <time>2022-05-24 11:58:29</time>
      </trkpt>
      <trkpt lat="41.04612" lon="0.82676">
        <ele>402.6</ele>
        <time>2022-05-24 11:58:30</time>
      </trkpt>
      <trkpt lat="41.04614" lon="0.82677">
        <ele>402.8</ele>
        <time>2022-05-24 11:58:31</time>
      </trkpt>
      <trkpt lat="41.04616" lon="0.82678">
        <ele>402.8</ele>
        <time>2022-05-24 11:58:32</time>
      </trkpt>
      <trkpt lat="41.04619" lon="0.8268">
        <ele>402.8</ele>
        <time>2022-05-24 11:58:33</time>
      </trkpt>
      <trkpt lat="41.04621" lon="0.82682">
        <ele>403</ele>
        <time>2022-05-24 11:58:34</time>
      </trkpt>
      <trkpt lat="41.04623" lon="0.82684">
        <ele>403.2</ele>
        <time>2022-05-24 11:58:35</time>
      </trkpt>
      <trkpt lat="41.04625" lon="0.82686">
        <ele>403.4</ele>
        <time>2022-05-24 11:58:36</time>
      </trkpt>
      <trkpt lat="41.04628" lon="0.82688">
        <ele>403.6</ele>
        <time>2022-05-24 11:58:37</time>
      </trkpt>
      <trkpt lat="41.04629" lon="0.8269">
        <ele>403.6</ele>
        <time>2022-05-24 11:58:38</time>
      </trkpt>
      <trkpt lat="41.04631" lon="0.82693">
        <ele>403.8</ele>
        <time>2022-05-24 11:58:39</time>
      </trkpt>
      <trkpt lat="41.04632" lon="0.82694">
        <ele>404</ele>
        <time>2022-05-24 11:58:40</time>
      </trkpt>
      <trkpt lat="41.04635" lon="0.82697">
        <ele>404.2</ele>
        <time>2022-05-24 11:58:41</time>
      </trkpt>
      <trkpt lat="41.04637" lon="0.82698">
        <ele>404.4</ele>
        <time>2022-05-24 11:58:42</time>
      </trkpt>
      <trkpt lat="41.04639" lon="0.827">
        <ele>404.4</ele>
        <time>2022-05-24 11:58:43</time>
      </trkpt>
      <trkpt lat="41.0464" lon="0.82702">
        <ele>404.6</ele>
        <time>2022-05-24 11:58:44</time>
      </trkpt>
      <trkpt lat="41.04643" lon="0.82705">
        <ele>404.6</ele>
        <time>2022-05-24 11:58:45</time>
      </trkpt>
      <trkpt lat="41.04645" lon="0.82707">
        <ele>404.8</ele>
        <time>2022-05-24 11:58:46</time>
      </trkpt>
      <trkpt lat="41.04647" lon="0.82709">
        <ele>404.8</ele>
        <time>2022-05-24 11:58:47</time>
      </trkpt>
      <trkpt lat="41.04649" lon="0.8271">
        <ele>404.8</ele>
        <time>2022-05-24 11:58:48</time>
      </trkpt>
      <trkpt lat="41.04652" lon="0.82712">
        <ele>405</ele>
        <time>2022-05-24 11:58:49</time>
      </trkpt>
      <trkpt lat="41.04655" lon="0.82713">
        <ele>405</ele>
        <time>2022-05-24 11:58:50</time>
      </trkpt>
      <trkpt lat="41.04658" lon="0.82714">
        <ele>405</ele>
        <time>2022-05-24 11:58:51</time>
      </trkpt>
      <trkpt lat="41.0466" lon="0.82714">
        <ele>405.2</ele>
        <time>2022-05-24 11:58:52</time>
      </trkpt>
      <trkpt lat="41.04663" lon="0.82715">
        <ele>405.2</ele>
        <time>2022-05-24 11:58:53</time>
      </trkpt>
      <trkpt lat="41.04667" lon="0.82715">
        <ele>405.2</ele>
        <time>2022-05-24 11:58:54</time>
      </trkpt>
      <trkpt lat="41.04669" lon="0.82716">
        <ele>405.4</ele>
        <time>2022-05-24 11:58:55</time>
      </trkpt>
      <trkpt lat="41.04671" lon="0.82716">
        <ele>405.4</ele>
        <time>2022-05-24 11:58:56</time>
      </trkpt>
      <trkpt lat="41.04675" lon="0.82716">
        <ele>405.4</ele>
        <time>2022-05-24 11:58:57</time>
      </trkpt>
      <trkpt lat="41.04678" lon="0.82716">
        <ele>405.4</ele>
        <time>2022-05-24 11:58:58</time>
      </trkpt>
      <trkpt lat="41.04681" lon="0.82717">
        <ele>405.4</ele>
        <time>2022-05-24 11:58:59</time>
      </trkpt>
      <trkpt lat="41.04683" lon="0.82717">
        <ele>405.6</ele>
        <time>2022-05-24 11:59:00</time>
      </trkpt>
      <trkpt lat="41.04686" lon="0.82719">
        <ele>405.6</ele>
        <time>2022-05-24 11:59:01</time>
      </trkpt>
      <trkpt lat="41.04689" lon="0.8272">
        <ele>405.8</ele>
        <time>2022-05-24 11:59:02</time>
      </trkpt>
      <trkpt lat="41.04692" lon="0.82722">
        <ele>405.8</ele>
        <time>2022-05-24 11:59:03</time>
      </trkpt>
      <trkpt lat="41.04693" lon="0.82722">
        <ele>405.8</ele>
        <time>2022-05-24 11:59:04</time>
      </trkpt>
      <trkpt lat="41.04697" lon="0.82725">
        <ele>406</ele>
        <time>2022-05-24 11:59:05</time>
      </trkpt>
      <trkpt lat="41.047" lon="0.82727">
        <ele>406</ele>
        <time>2022-05-24 11:59:06</time>
      </trkpt>
      <trkpt lat="41.04702" lon="0.82729">
        <ele>406.2</ele>
        <time>2022-05-24 11:59:07</time>
      </trkpt>
      <trkpt lat="41.04704" lon="0.8273">
        <ele>406.2</ele>
        <time>2022-05-24 11:59:08</time>
      </trkpt>
      <trkpt lat="41.04707" lon="0.82733">
        <ele>406.4</ele>
        <time>2022-05-24 11:59:09</time>
      </trkpt>
      <trkpt lat="41.0471" lon="0.82734">
        <ele>406.4</ele>
        <time>2022-05-24 11:59:10</time>
      </trkpt>
      <trkpt lat="41.04712" lon="0.82735">
        <ele>406.6</ele>
        <time>2022-05-24 11:59:11</time>
      </trkpt>
      <trkpt lat="41.04714" lon="0.82736">
        <ele>406.8</ele>
        <time>2022-05-24 11:59:12</time>
      </trkpt>
      <trkpt lat="41.04718" lon="0.82737">
        <ele>406.8</ele>
        <time>2022-05-24 11:59:13</time>
      </trkpt>
      <trkpt lat="41.0472" lon="0.82738">
        <ele>407</ele>
        <time>2022-05-24 11:59:14</time>
      </trkpt>
      <trkpt lat="41.04723" lon="0.8274">
        <ele>407.2</ele>
        <time>2022-05-24 11:59:15</time>
      </trkpt>
      <trkpt lat="41.04725" lon="0.8274">
        <ele>407.2</ele>
        <time>2022-05-24 11:59:16</time>
      </trkpt>
      <trkpt lat="41.04728" lon="0.82741">
        <ele>407.4</ele>
        <time>2022-05-24 11:59:17</time>
      </trkpt>
      <trkpt lat="41.04731" lon="0.82741">
        <ele>407.4</ele>
        <time>2022-05-24 11:59:18</time>
      </trkpt>
      <trkpt lat="41.04733" lon="0.82741">
        <ele>407.6</ele>
        <time>2022-05-24 11:59:19</time>
      </trkpt>
      <trkpt lat="41.04735" lon="0.82741">
        <ele>407.6</ele>
        <time>2022-05-24 11:59:20</time>
      </trkpt>
      <trkpt lat="41.04739" lon="0.82741">
        <ele>407.8</ele>
        <time>2022-05-24 11:59:21</time>
      </trkpt>
      <trkpt lat="41.04741" lon="0.82741">
        <ele>408.2</ele>
        <time>2022-05-24 11:59:22</time>
      </trkpt>
      <trkpt lat="41.04744" lon="0.8274">
        <ele>408.4</ele>
        <time>2022-05-24 11:59:23</time>
      </trkpt>
      <trkpt lat="41.04745" lon="0.8274">
        <ele>408.6</ele>
        <time>2022-05-24 11:59:24</time>
      </trkpt>
      <trkpt lat="41.04749" lon="0.82738">
        <ele>408.8</ele>
        <time>2022-05-24 11:59:25</time>
      </trkpt>
      <trkpt lat="41.04752" lon="0.82737">
        <ele>409</ele>
        <time>2022-05-24 11:59:26</time>
      </trkpt>
      <trkpt lat="41.04755" lon="0.82735">
        <ele>409.2</ele>
        <time>2022-05-24 11:59:27</time>
      </trkpt>
      <trkpt lat="41.04757" lon="0.82733">
        <ele>409</ele>
        <time>2022-05-24 11:59:28</time>
      </trkpt>
      <trkpt lat="41.0476" lon="0.8273">
        <ele>408.8</ele>
        <time>2022-05-24 11:59:29</time>
      </trkpt>
      <trkpt lat="41.04763" lon="0.82727">
        <ele>408.8</ele>
        <time>2022-05-24 11:59:30</time>
      </trkpt>
      <trkpt lat="41.04764" lon="0.82724">
        <ele>408.6</ele>
        <time>2022-05-24 11:59:31</time>
      </trkpt>
      <trkpt lat="41.04766" lon="0.82717">
        <ele>408.4</ele>
        <time>2022-05-24 11:59:32</time>
      </trkpt>
      <trkpt lat="41.04768" lon="0.82711">
        <ele>408.2</ele>
        <time>2022-05-24 11:59:33</time>
      </trkpt>
      <trkpt lat="41.04769" lon="0.82707">
        <ele>408.2</ele>
        <time>2022-05-24 11:59:34</time>
      </trkpt>
      <trkpt lat="41.04771" lon="0.82699">
        <ele>408</ele>
        <time>2022-05-24 11:59:35</time>
      </trkpt>
      <trkpt lat="41.04773" lon="0.82694">
        <ele>407.8</ele>
        <time>2022-05-24 11:59:36</time>
      </trkpt>
      <trkpt lat="41.04774" lon="0.82686">
        <ele>407.6</ele>
        <time>2022-05-24 11:59:37</time>
      </trkpt>
      <trkpt lat="41.04775" lon="0.82681">
        <ele>407.4</ele>
        <time>2022-05-24 11:59:38</time>
      </trkpt>
      <trkpt lat="41.04777" lon="0.82672">
        <ele>407.2</ele>
        <time>2022-05-24 11:59:39</time>
      </trkpt>
      <trkpt lat="41.04779" lon="0.82666">
        <ele>406.8</ele>
        <time>2022-05-24 11:59:40</time>
      </trkpt>
      <trkpt lat="41.04781" lon="0.82658">
        <ele>406.6</ele>
        <time>2022-05-24 11:59:41</time>
      </trkpt>
      <trkpt lat="41.04783" lon="0.82653">
        <ele>406.4</ele>
        <time>2022-05-24 11:59:42</time>
      </trkpt>
      <trkpt lat="41.04788" lon="0.82644">
        <ele>405.8</ele>
        <time>2022-05-24 11:59:43</time>
      </trkpt>
      <trkpt lat="41.04792" lon="0.82641">
        <ele>405.4</ele>
        <time>2022-05-24 11:59:44</time>
      </trkpt>
      <trkpt lat="41.04799" lon="0.82636">
        <ele>405</ele>
        <time>2022-05-24 11:59:45</time>
      </trkpt>
      <trkpt lat="41.04804" lon="0.82634">
        <ele>404.8</ele>
        <time>2022-05-24 11:59:46</time>
      </trkpt>
      <trkpt lat="41.04812" lon="0.82632">
        <ele>404.4</ele>
        <time>2022-05-24 11:59:47</time>
      </trkpt>
      <trkpt lat="41.04817" lon="0.8263">
        <ele>404.2</ele>
        <time>2022-05-24 11:59:48</time>
      </trkpt>
      <trkpt lat="41.04826" lon="0.82629">
        <ele>403.6</ele>
        <time>2022-05-24 11:59:49</time>
      </trkpt>
      <trkpt lat="41.04831" lon="0.82628">
        <ele>403.2</ele>
        <time>2022-05-24 11:59:50</time>
      </trkpt>
      <trkpt lat="41.04841" lon="0.82627">
        <ele>402.8</ele>
        <time>2022-05-24 11:59:51</time>
      </trkpt>
      <trkpt lat="41.04847" lon="0.82626">
        <ele>402.6</ele>
        <time>2022-05-24 11:59:52</time>
      </trkpt>
      <trkpt lat="41.04856" lon="0.82623">
        <ele>402.2</ele>
        <time>2022-05-24 11:59:53</time>
      </trkpt>
      <trkpt lat="41.04861" lon="0.82619">
        <ele>401.8</ele>
        <time>2022-05-24 11:59:54</time>
      </trkpt>
      <trkpt lat="41.04869" lon="0.82612">
        <ele>401.4</ele>
        <time>2022-05-24 11:59:55</time>
      </trkpt>
      <trkpt lat="41.04873" lon="0.82606">
        <ele>401.2</ele>
        <time>2022-05-24 11:59:56</time>
      </trkpt>
      <trkpt lat="41.04879" lon="0.82596">
        <ele>401</ele>
        <time>2022-05-24 11:59:57</time>
      </trkpt>
      <trkpt lat="41.04882" lon="0.8259">
        <ele>400.6</ele>
        <time>2022-05-24 11:59:58</time>
      </trkpt>
      <trkpt lat="41.04885" lon="0.82579">
        <ele>400.6</ele>
        <time>2022-05-24 11:59:59</time>
      </trkpt>
      <trkpt lat="41.04885" lon="0.82572">
        <ele>400.4</ele>
        <time>2022-05-24 12:00:00</time>
      </trkpt>
      <trkpt lat="41.04884" lon="0.8256">
        <ele>400.4</ele>
        <time>2022-05-24 12:00:01</time>
      </trkpt>
      <trkpt lat="41.04882" lon="0.82552">
        <ele>400.4</ele>
        <time>2022-05-24 12:00:02</time>
      </trkpt>
      <trkpt lat="41.04877" lon="0.82543">
        <ele>400.4</ele>
        <time>2022-05-24 12:00:03</time>
      </trkpt>
      <trkpt lat="41.04874" lon="0.82539">
        <ele>400.6</ele>
        <time>2022-05-24 12:00:04</time>
      </trkpt>
      <trkpt lat="41.04868" lon="0.82535">
        <ele>400.8</ele>
        <time>2022-05-24 12:00:05</time>
      </trkpt>
      <trkpt lat="41.04864" lon="0.82533">
        <ele>401</ele>
        <time>2022-05-24 12:00:06</time>
      </trkpt>
      <trkpt lat="41.04859" lon="0.82531">
        <ele>401.2</ele>
        <time>2022-05-24 12:00:07</time>
      </trkpt>
      <trkpt lat="41.04855" lon="0.82531">
        <ele>401.6</ele>
        <time>2022-05-24 12:00:08</time>
      </trkpt>
      <trkpt lat="41.04851" lon="0.8253">
        <ele>401.8</ele>
        <time>2022-05-24 12:00:09</time>
      </trkpt>
      <trkpt lat="41.04848" lon="0.8253">
        <ele>402</ele>
        <time>2022-05-24 12:00:10</time>
      </trkpt>
      <trkpt lat="41.04845" lon="0.8253">
        <ele>402.2</ele>
        <time>2022-05-24 12:00:11</time>
      </trkpt>
      <trkpt lat="41.04841" lon="0.82529">
        <ele>402.4</ele>
        <time>2022-05-24 12:00:12</time>
      </trkpt>
      <trkpt lat="41.04839" lon="0.82529">
        <ele>402.8</ele>
        <time>2022-05-24 12:00:13</time>
      </trkpt>
      <trkpt lat="41.04836" lon="0.8253">
        <ele>403</ele>
        <time>2022-05-24 12:00:14</time>
      </trkpt>
      <trkpt lat="41.04833" lon="0.82531">
        <ele>403.2</ele>
        <time>2022-05-24 12:00:15</time>
      </trkpt>
      <trkpt lat="41.0483" lon="0.82532">
        <ele>403.2</ele>
        <time>2022-05-24 12:00:16</time>
      </trkpt>
      <trkpt lat="41.04828" lon="0.82533">
        <ele>403.4</ele>
        <time>2022-05-24 12:00:17</time>
      </trkpt>
      <trkpt lat="41.04826" lon="0.82535">
        <ele>403.6</ele>
        <time>2022-05-24 12:00:18</time>
      </trkpt>
      <trkpt lat="41.04824" lon="0.82536">
        <ele>403.8</ele>
        <time>2022-05-24 12:00:19</time>
      </trkpt>
      <trkpt lat="41.04821" lon="0.82538">
        <ele>404</ele>
        <time>2022-05-24 12:00:20</time>
      </trkpt>
      <trkpt lat="41.04819" lon="0.82539">
        <ele>404.2</ele>
        <time>2022-05-24 12:00:21</time>
      </trkpt>
      <trkpt lat="41.04817" lon="0.8254">
        <ele>404.4</ele>
        <time>2022-05-24 12:00:22</time>
      </trkpt>
      <trkpt lat="41.04815" lon="0.82542">
        <ele>404.6</ele>
        <time>2022-05-24 12:00:23</time>
      </trkpt>
      <trkpt lat="41.04813" lon="0.82543">
        <ele>404.6</ele>
        <time>2022-05-24 12:00:24</time>
      </trkpt>
      <trkpt lat="41.04811" lon="0.82545">
        <ele>404.8</ele>
        <time>2022-05-24 12:00:25</time>
      </trkpt>
      <trkpt lat="41.04809" lon="0.82546">
        <ele>405</ele>
        <time>2022-05-24 12:00:26</time>
      </trkpt>
      <trkpt lat="41.04807" lon="0.82547">
        <ele>405.2</ele>
        <time>2022-05-24 12:00:27</time>
      </trkpt>
      <trkpt lat="41.04804" lon="0.82548">
        <ele>405.4</ele>
        <time>2022-05-24 12:00:28</time>
      </trkpt>
      <trkpt lat="41.04802" lon="0.82548">
        <ele>405.4</ele>
        <time>2022-05-24 12:00:29</time>
      </trkpt>
      <trkpt lat="41.048" lon="0.82548">
        <ele>405.6</ele>
        <time>2022-05-24 12:00:30</time>
      </trkpt>
      <trkpt lat="41.04798" lon="0.82549">
        <ele>405.8</ele>
        <time>2022-05-24 12:00:31</time>
      </trkpt>
      <trkpt lat="41.04796" lon="0.82549">
        <ele>405.8</ele>
        <time>2022-05-24 12:00:32</time>
      </trkpt>
      <trkpt lat="41.04794" lon="0.82549">
        <ele>406</ele>
        <time>2022-05-24 12:00:33</time>
      </trkpt>
      <trkpt lat="41.04791" lon="0.8255">
        <ele>406.2</ele>
        <time>2022-05-24 12:00:34</time>
      </trkpt>
      <trkpt lat="41.0479" lon="0.82551">
        <ele>406.4</ele>
        <time>2022-05-24 12:00:35</time>
      </trkpt>
      <trkpt lat="41.04787" lon="0.82551">
        <ele>406.4</ele>
        <time>2022-05-24 12:00:36</time>
      </trkpt>
      <trkpt lat="41.04785" lon="0.82551">
        <ele>406.6</ele>
        <time>2022-05-24 12:00:37</time>
      </trkpt>
      <trkpt lat="41.04783" lon="0.82552">
        <ele>406.8</ele>
        <time>2022-05-24 12:00:38</time>
      </trkpt>
      <trkpt lat="41.04781" lon="0.82552">
        <ele>406.8</ele>
        <time>2022-05-24 12:00:39</time>
      </trkpt>
      <trkpt lat="41.04779" lon="0.82552">
        <ele>407</ele>
        <time>2022-05-24 12:00:40</time>
      </trkpt>
      <trkpt lat="41.04776" lon="0.82552">
        <ele>407.2</ele>
        <time>2022-05-24 12:00:41</time>
      </trkpt>
      <trkpt lat="41.04774" lon="0.82553">
        <ele>407.2</ele>
        <time>2022-05-24 12:00:42</time>
      </trkpt>
      <trkpt lat="41.04772" lon="0.82553">
        <ele>407.4</ele>
        <time>2022-05-24 12:00:43</time>
      </trkpt>
      <trkpt lat="41.0477" lon="0.82554">
        <ele>407.6</ele>
        <time>2022-05-24 12:00:44</time>
      </trkpt>
      <trkpt lat="41.04767" lon="0.82555">
        <ele>407.8</ele>
        <time>2022-05-24 12:00:45</time>
      </trkpt>
      <trkpt lat="41.04765" lon="0.82556">
        <ele>407.8</ele>
        <time>2022-05-24 12:00:46</time>
      </trkpt>
      <trkpt lat="41.04763" lon="0.82557">
        <ele>408</ele>
        <time>2022-05-24 12:00:47</time>
      </trkpt>
      <trkpt lat="41.04761" lon="0.82558">
        <ele>408.2</ele>
        <time>2022-05-24 12:00:48</time>
      </trkpt>
      <trkpt lat="41.04759" lon="0.82559">
        <ele>408.2</ele>
        <time>2022-05-24 12:00:49</time>
      </trkpt>
      <trkpt lat="41.04757" lon="0.8256">
        <ele>408.4</ele>
        <time>2022-05-24 12:00:50</time>
      </trkpt>
      <trkpt lat="41.04755" lon="0.82562">
        <ele>408.6</ele>
        <time>2022-05-24 12:00:51</time>
      </trkpt>
      <trkpt lat="41.04753" lon="0.82562">
        <ele>408.8</ele>
        <time>2022-05-24 12:00:52</time>
      </trkpt>
      <trkpt lat="41.04751" lon="0.82563">
        <ele>408.8</ele>
        <time>2022-05-24 12:00:53</time>
      </trkpt>
      <trkpt lat="41.04749" lon="0.82564">
        <ele>409</ele>
        <time>2022-05-24 12:00:54</time>
      </trkpt>
      <trkpt lat="41.04747" lon="0.82565">
        <ele>409.2</ele>
        <time>2022-05-24 12:00:55</time>
      </trkpt>
      <trkpt lat="41.04745" lon="0.82566">
        <ele>409.4</ele>
        <time>2022-05-24 12:00:56</time>
      </trkpt>
      <trkpt lat="41.04743" lon="0.82568">
        <ele>409.4</ele>
        <time>2022-05-24 12:00:57</time>
      </trkpt>
      <trkpt lat="41.04742" lon="0.82569">
        <ele>409.6</ele>
        <time>2022-05-24 12:00:58</time>
      </trkpt>
      <trkpt lat="41.0474" lon="0.8257">
        <ele>409.8</ele>
        <time>2022-05-24 12:00:59</time>
      </trkpt>
      <trkpt lat="41.04738" lon="0.82571">
        <ele>409.8</ele>
        <time>2022-05-24 12:01:00</time>
      </trkpt>
      <trkpt lat="41.04736" lon="0.82572">
        <ele>410</ele>
        <time>2022-05-24 12:01:01</time>
      </trkpt>
      <trkpt lat="41.04734" lon="0.82573">
        <ele>410.2</ele>
        <time>2022-05-24 12:01:02</time>
      </trkpt>
      <trkpt lat="41.04732" lon="0.82574">
        <ele>410.2</ele>
        <time>2022-05-24 12:01:03</time>
      </trkpt>
      <trkpt lat="41.0473" lon="0.82574">
        <ele>410.4</ele>
        <time>2022-05-24 12:01:04</time>
      </trkpt>
      <trkpt lat="41.04727" lon="0.82574">
        <ele>410.6</ele>
        <time>2022-05-24 12:01:05</time>
      </trkpt>
      <trkpt lat="41.04725" lon="0.82574">
        <ele>410.6</ele>
        <time>2022-05-24 12:01:06</time>
      </trkpt>
      <trkpt lat="41.04723" lon="0.82573">
        <ele>410.8</ele>
        <time>2022-05-24 12:01:07</time>
      </trkpt>
      <trkpt lat="41.04721" lon="0.82571">
        <ele>411</ele>
        <time>2022-05-24 12:01:08</time>
      </trkpt>
      <trkpt lat="41.0472" lon="0.82569">
        <ele>411</ele>
        <time>2022-05-24 12:01:09</time>
      </trkpt>
      <trkpt lat="41.04718" lon="0.82567">
        <ele>411.2</ele>
        <time>2022-05-24 12:01:10</time>
      </trkpt>
      <trkpt lat="41.04717" lon="0.82565">
        <ele>411.4</ele>
        <time>2022-05-24 12:01:11</time>
      </trkpt>
      <trkpt lat="41.04716" lon="0.82563">
        <ele>411.6</ele>
        <time>2022-05-24 12:01:12</time>
      </trkpt>
      <trkpt lat="41.04714" lon="0.82561">
        <ele>411.6</ele>
        <time>2022-05-24 12:01:13</time>
      </trkpt>
      <trkpt lat="41.04712" lon="0.82558">
        <ele>411.8</ele>
        <time>2022-05-24 12:01:14</time>
      </trkpt>
      <trkpt lat="41.04711" lon="0.82555">
        <ele>411.8</ele>
        <time>2022-05-24 12:01:15</time>
      </trkpt>
      <trkpt lat="41.04709" lon="0.82553">
        <ele>412</ele>
        <time>2022-05-24 12:01:16</time>
      </trkpt>
      <trkpt lat="41.04708" lon="0.8255">
        <ele>412</ele>
        <time>2022-05-24 12:01:17</time>
      </trkpt>
      <trkpt lat="41.04707" lon="0.82548">
        <ele>412.2</ele>
        <time>2022-05-24 12:01:18</time>
      </trkpt>
      <trkpt lat="41.04705" lon="0.82546">
        <ele>412.2</ele>
        <time>2022-05-24 12:01:19</time>
      </trkpt>
      <trkpt lat="41.04704" lon="0.82544">
        <ele>412.4</ele>
        <time>2022-05-24 12:01:20</time>
      </trkpt>
      <trkpt lat="41.04703" lon="0.82543">
        <ele>412.6</ele>
        <time>2022-05-24 12:01:21</time>
      </trkpt>
      <trkpt lat="41.04702" lon="0.82541">
        <ele>412.6</ele>
        <time>2022-05-24 12:01:22</time>
      </trkpt>
      <trkpt lat="41.04701" lon="0.82539">
        <ele>412.8</ele>
        <time>2022-05-24 12:01:23</time>
      </trkpt>
      <trkpt lat="41.04699" lon="0.82537">
        <ele>413</ele>
        <time>2022-05-24 12:01:24</time>
      </trkpt>
      <trkpt lat="41.04698" lon="0.82535">
        <ele>413</ele>
        <time>2022-05-24 12:01:25</time>
      </trkpt>
      <trkpt lat="41.04697" lon="0.82533">
        <ele>413.2</ele>
        <time>2022-05-24 12:01:26</time>
      </trkpt>
      <trkpt lat="41.04696" lon="0.8253">
        <ele>413.4</ele>
        <time>2022-05-24 12:01:27</time>
      </trkpt>
      <trkpt lat="41.04695" lon="0.82528">
        <ele>413.4</ele>
        <time>2022-05-24 12:01:28</time>
      </trkpt>
      <trkpt lat="41.04694" lon="0.82526">
        <ele>413.6</ele>
        <time>2022-05-24 12:01:29</time>
      </trkpt>
      <trkpt lat="41.04692" lon="0.82524">
        <ele>413.8</ele>
        <time>2022-05-24 12:01:30</time>
      </trkpt>
      <trkpt lat="41.04691" lon="0.82522">
        <ele>413.8</ele>
        <time>2022-05-24 12:01:31</time>
      </trkpt>
      <trkpt lat="41.0469" lon="0.8252">
        <ele>414</ele>
        <time>2022-05-24 12:01:32</time>
      </trkpt>
      <trkpt lat="41.04689" lon="0.82518">
        <ele>414.2</ele>
        <time>2022-05-24 12:01:33</time>
      </trkpt>
      <trkpt lat="41.04688" lon="0.82516">
        <ele>414.4</ele>
        <time>2022-05-24 12:01:34</time>
      </trkpt>
      <trkpt lat="41.04687" lon="0.82515">
        <ele>414.6</ele>
        <time>2022-05-24 12:01:35</time>
      </trkpt>
      <trkpt lat="41.04686" lon="0.82513">
        <ele>414.6</ele>
        <time>2022-05-24 12:01:36</time>
      </trkpt>
      <trkpt lat="41.04685" lon="0.82511">
        <ele>414.8</ele>
        <time>2022-05-24 12:01:37</time>
      </trkpt>
      <trkpt lat="41.04684" lon="0.82509">
        <ele>415</ele>
        <time>2022-05-24 12:01:38</time>
      </trkpt>
      <trkpt lat="41.04683" lon="0.82506">
        <ele>415.2</ele>
        <time>2022-05-24 12:01:39</time>
      </trkpt>
      <trkpt lat="41.04683" lon="0.82504">
        <ele>415.4</ele>
        <time>2022-05-24 12:01:40</time>
      </trkpt>
      <trkpt lat="41.04681" lon="0.82502">
        <ele>415.6</ele>
        <time>2022-05-24 12:01:41</time>
      </trkpt>
      <trkpt lat="41.0468" lon="0.82499">
        <ele>415.8</ele>
        <time>2022-05-24 12:01:42</time>
      </trkpt>
      <trkpt lat="41.04679" lon="0.82497">
        <ele>416</ele>
        <time>2022-05-24 12:01:43</time>
      </trkpt>
      <trkpt lat="41.04678" lon="0.82494">
        <ele>416.2</ele>
        <time>2022-05-24 12:01:44</time>
      </trkpt>
      <trkpt lat="41.04678" lon="0.82492">
        <ele>416.4</ele>
        <time>2022-05-24 12:01:45</time>
      </trkpt>
      <trkpt lat="41.04677" lon="0.8249">
        <ele>416.6</ele>
        <time>2022-05-24 12:01:46</time>
      </trkpt>
      <trkpt lat="41.04677" lon="0.82487">
        <ele>416.8</ele>
        <time>2022-05-24 12:01:47</time>
      </trkpt>
      <trkpt lat="41.04677" lon="0.82485">
        <ele>417</ele>
        <time>2022-05-24 12:01:48</time>
      </trkpt>
      <trkpt lat="41.04677" lon="0.82482">
        <ele>417.2</ele>
        <time>2022-05-24 12:01:49</time>
      </trkpt>
      <trkpt lat="41.04677" lon="0.8248">
        <ele>417.4</ele>
        <time>2022-05-24 12:01:50</time>
      </trkpt>
      <trkpt lat="41.04677" lon="0.82477">
        <ele>417.6</ele>
        <time>2022-05-24 12:01:51</time>
      </trkpt>
      <trkpt lat="41.04678" lon="0.82475">
        <ele>417.8</ele>
        <time>2022-05-24 12:01:52</time>
      </trkpt>
      <trkpt lat="41.04678" lon="0.82473">
        <ele>418</ele>
        <time>2022-05-24 12:01:53</time>
      </trkpt>
      <trkpt lat="41.04679" lon="0.8247">
        <ele>418</ele>
        <time>2022-05-24 12:01:54</time>
      </trkpt>
      <trkpt lat="41.0468" lon="0.82468">
        <ele>418.2</ele>
        <time>2022-05-24 12:01:55</time>
      </trkpt>
      <trkpt lat="41.04681" lon="0.82466">
        <ele>418.4</ele>
        <time>2022-05-24 12:01:56</time>
      </trkpt>
      <trkpt lat="41.04682" lon="0.82464">
        <ele>418.6</ele>
        <time>2022-05-24 12:01:57</time>
      </trkpt>
      <trkpt lat="41.04682" lon="0.82462">
        <ele>418.8</ele>
        <time>2022-05-24 12:01:58</time>
      </trkpt>
      <trkpt lat="41.04683" lon="0.8246">
        <ele>418.8</ele>
        <time>2022-05-24 12:01:59</time>
      </trkpt>
      <trkpt lat="41.04684" lon="0.82458">
        <ele>419</ele>
        <time>2022-05-24 12:02:00</time>
      </trkpt>
      <trkpt lat="41.04685" lon="0.82456">
        <ele>419.2</ele>
        <time>2022-05-24 12:02:01</time>
      </trkpt>
      <trkpt lat="41.04686" lon="0.82455">
        <ele>419.4</ele>
        <time>2022-05-24 12:02:02</time>
      </trkpt>
      <trkpt lat="41.04687" lon="0.82453">
        <ele>419.4</ele>
        <time>2022-05-24 12:02:03</time>
      </trkpt>
      <trkpt lat="41.04688" lon="0.82451">
        <ele>419.6</ele>
        <time>2022-05-24 12:02:04</time>
      </trkpt>
      <trkpt lat="41.04689" lon="0.8245">
        <ele>419.6</ele>
        <time>2022-05-24 12:02:05</time>
      </trkpt>
      <trkpt lat="41.0469" lon="0.82448">
        <ele>419.8</ele>
        <time>2022-05-24 12:02:06</time>
      </trkpt>
      <trkpt lat="41.04691" lon="0.82446">
        <ele>420</ele>
        <time>2022-05-24 12:02:07</time>
      </trkpt>
      <trkpt lat="41.04693" lon="0.82444">
        <ele>420.2</ele>
        <time>2022-05-24 12:02:08</time>
      </trkpt>
      <trkpt lat="41.04694" lon="0.82443">
        <ele>420.4</ele>
        <time>2022-05-24 12:02:09</time>
      </trkpt>
      <trkpt lat="41.04696" lon="0.82442">
        <ele>420.6</ele>
        <time>2022-05-24 12:02:10</time>
      </trkpt>
      <trkpt lat="41.04697" lon="0.8244">
        <ele>420.6</ele>
        <time>2022-05-24 12:02:11</time>
      </trkpt>
      <trkpt lat="41.04698" lon="0.82438">
        <ele>420.8</ele>
        <time>2022-05-24 12:02:12</time>
      </trkpt>
      <trkpt lat="41.047" lon="0.82437">
        <ele>421</ele>
        <time>2022-05-24 12:02:13</time>
      </trkpt>
      <trkpt lat="41.04701" lon="0.82435">
        <ele>421.2</ele>
        <time>2022-05-24 12:02:14</time>
      </trkpt>
      <trkpt lat="41.04702" lon="0.82433">
        <ele>421.2</ele>
        <time>2022-05-24 12:02:15</time>
      </trkpt>
      <trkpt lat="41.04703" lon="0.82431">
        <ele>421.4</ele>
        <time>2022-05-24 12:02:16</time>
      </trkpt>
      <trkpt lat="41.04704" lon="0.82429">
        <ele>421.6</ele>
        <time>2022-05-24 12:02:17</time>
      </trkpt>
      <trkpt lat="41.04705" lon="0.82427">
        <ele>421.8</ele>
        <time>2022-05-24 12:02:18</time>
      </trkpt>
      <trkpt lat="41.04705" lon="0.82425">
        <ele>421.8</ele>
        <time>2022-05-24 12:02:19</time>
      </trkpt>
      <trkpt lat="41.04706" lon="0.82423">
        <ele>422</ele>
        <time>2022-05-24 12:02:20</time>
      </trkpt>
      <trkpt lat="41.04707" lon="0.82421">
        <ele>422.2</ele>
        <time>2022-05-24 12:02:21</time>
      </trkpt>
      <trkpt lat="41.04707" lon="0.82419">
        <ele>422.4</ele>
        <time>2022-05-24 12:02:22</time>
      </trkpt>
      <trkpt lat="41.04708" lon="0.82417">
        <ele>422.4</ele>
        <time>2022-05-24 12:02:23</time>
      </trkpt>
      <trkpt lat="41.0471" lon="0.82415">
        <ele>422.6</ele>
        <time>2022-05-24 12:02:24</time>
      </trkpt>
      <trkpt lat="41.0471" lon="0.82413">
        <ele>422.8</ele>
        <time>2022-05-24 12:02:25</time>
      </trkpt>
      <trkpt lat="41.0471" lon="0.82411">
        <ele>423</ele>
        <time>2022-05-24 12:02:26</time>
      </trkpt>
      <trkpt lat="41.04711" lon="0.82409">
        <ele>423</ele>
        <time>2022-05-24 12:02:27</time>
      </trkpt>
      <trkpt lat="41.04711" lon="0.82408">
        <ele>423.2</ele>
        <time>2022-05-24 12:02:28</time>
      </trkpt>
      <trkpt lat="41.04712" lon="0.82405">
        <ele>423.2</ele>
        <time>2022-05-24 12:02:29</time>
      </trkpt>
      <trkpt lat="41.04712" lon="0.82403">
        <ele>423.4</ele>
        <time>2022-05-24 12:02:30</time>
      </trkpt>
      <trkpt lat="41.04713" lon="0.82401">
        <ele>423.6</ele>
        <time>2022-05-24 12:02:31</time>
      </trkpt>
      <trkpt lat="41.04713" lon="0.82398">
        <ele>423.6</ele>
        <time>2022-05-24 12:02:32</time>
      </trkpt>
      <trkpt lat="41.04713" lon="0.82396">
        <ele>423.8</ele>
        <time>2022-05-24 12:02:33</time>
      </trkpt>
      <trkpt lat="41.04713" lon="0.82394">
        <ele>424</ele>
        <time>2022-05-24 12:02:34</time>
      </trkpt>
      <trkpt lat="41.04714" lon="0.82392">
        <ele>424</ele>
        <time>2022-05-24 12:02:35</time>
      </trkpt>
      <trkpt lat="41.04714" lon="0.82391">
        <ele>424.2</ele>
        <time>2022-05-24 12:02:36</time>
      </trkpt>
      <trkpt lat="41.04715" lon="0.82389">
        <ele>424.4</ele>
        <time>2022-05-24 12:02:37</time>
      </trkpt>
      <trkpt lat="41.04715" lon="0.82387">
        <ele>424.4</ele>
        <time>2022-05-24 12:02:38</time>
      </trkpt>
      <trkpt lat="41.04715" lon="0.82385">
        <ele>424.6</ele>
        <time>2022-05-24 12:02:39</time>
      </trkpt>
      <trkpt lat="41.04716" lon="0.82383">
        <ele>424.8</ele>
        <time>2022-05-24 12:02:40</time>
      </trkpt>
      <trkpt lat="41.04716" lon="0.82381">
        <ele>425</ele>
        <time>2022-05-24 12:02:41</time>
      </trkpt>
      <trkpt lat="41.04717" lon="0.82378">
        <ele>425</ele>
        <time>2022-05-24 12:02:42</time>
      </trkpt>
      <trkpt lat="41.04717" lon="0.82376">
        <ele>425.2</ele>
        <time>2022-05-24 12:02:43</time>
      </trkpt>
      <trkpt lat="41.04718" lon="0.82374">
        <ele>425.4</ele>
        <time>2022-05-24 12:02:44</time>
      </trkpt>
      <trkpt lat="41.04718" lon="0.82371">
        <ele>425.6</ele>
        <time>2022-05-24 12:02:45</time>
      </trkpt>
      <trkpt lat="41.04718" lon="0.82369">
        <ele>425.8</ele>
        <time>2022-05-24 12:02:46</time>
      </trkpt>
      <trkpt lat="41.04719" lon="0.82366">
        <ele>426</ele>
        <time>2022-05-24 12:02:47</time>
      </trkpt>
      <trkpt lat="41.04719" lon="0.82364">
        <ele>426.2</ele>
        <time>2022-05-24 12:02:48</time>
      </trkpt>
      <trkpt lat="41.0472" lon="0.82361">
        <ele>426.4</ele>
        <time>2022-05-24 12:02:49</time>
      </trkpt>
      <trkpt lat="41.0472" lon="0.8236">
        <ele>426.4</ele>
        <time>2022-05-24 12:02:50</time>
      </trkpt>
      <trkpt lat="41.04721" lon="0.82357">
        <ele>426.6</ele>
        <time>2022-05-24 12:02:51</time>
      </trkpt>
      <trkpt lat="41.04721" lon="0.82355">
        <ele>426.8</ele>
        <time>2022-05-24 12:02:52</time>
      </trkpt>
      <trkpt lat="41.04722" lon="0.82353">
        <ele>426.8</ele>
        <time>2022-05-24 12:02:53</time>
      </trkpt>
      <trkpt lat="41.04723" lon="0.82351">
        <ele>426.8</ele>
        <time>2022-05-24 12:02:54</time>
      </trkpt>
      <trkpt lat="41.04725" lon="0.82349">
        <ele>426.8</ele>
        <time>2022-05-24 12:02:55</time>
      </trkpt>
      <trkpt lat="41.04725" lon="0.82348">
        <ele>427</ele>
        <time>2022-05-24 12:02:56</time>
      </trkpt>
      <trkpt lat="41.04727" lon="0.82346">
        <ele>427.2</ele>
        <time>2022-05-24 12:02:57</time>
      </trkpt>
      <trkpt lat="41.04728" lon="0.82344">
        <ele>427.2</ele>
        <time>2022-05-24 12:02:58</time>
      </trkpt>
      <trkpt lat="41.0473" lon="0.82343">
        <ele>427.4</ele>
        <time>2022-05-24 12:02:59</time>
      </trkpt>
      <trkpt lat="41.04731" lon="0.82342">
        <ele>427.6</ele>
        <time>2022-05-24 12:03:00</time>
      </trkpt>
      <trkpt lat="41.04733" lon="0.82341">
        <ele>427.6</ele>
        <time>2022-05-24 12:03:01</time>
      </trkpt>
      <trkpt lat="41.04735" lon="0.82341">
        <ele>427.8</ele>
        <time>2022-05-24 12:03:02</time>
      </trkpt>
      <trkpt lat="41.04737" lon="0.8234">
        <ele>427.8</ele>
        <time>2022-05-24 12:03:03</time>
      </trkpt>
      <trkpt lat="41.04739" lon="0.82339">
        <ele>428</ele>
        <time>2022-05-24 12:03:04</time>
      </trkpt>
      <trkpt lat="41.0474" lon="0.82339">
        <ele>428.2</ele>
        <time>2022-05-24 12:03:05</time>
      </trkpt>
      <trkpt lat="41.04742" lon="0.82339">
        <ele>428.2</ele>
        <time>2022-05-24 12:03:06</time>
      </trkpt>
      <trkpt lat="41.04744" lon="0.82339">
        <ele>428.4</ele>
        <time>2022-05-24 12:03:07</time>
      </trkpt>
      <trkpt lat="41.04745" lon="0.82339">
        <ele>428.4</ele>
        <time>2022-05-24 12:03:08</time>
      </trkpt>
      <trkpt lat="41.04747" lon="0.82338">
        <ele>428.6</ele>
        <time>2022-05-24 12:03:09</time>
      </trkpt>
      <trkpt lat="41.04749" lon="0.82338">
        <ele>428.6</ele>
        <time>2022-05-24 12:03:10</time>
      </trkpt>
      <trkpt lat="41.04751" lon="0.82337">
        <ele>428.6</ele>
        <time>2022-05-24 12:03:11</time>
      </trkpt>
      <trkpt lat="41.04754" lon="0.82337">
        <ele>428.8</ele>
        <time>2022-05-24 12:03:12</time>
      </trkpt>
      <trkpt lat="41.04756" lon="0.82337">
        <ele>428.8</ele>
        <time>2022-05-24 12:03:13</time>
      </trkpt>
      <trkpt lat="41.04758" lon="0.82337">
        <ele>428.8</ele>
        <time>2022-05-24 12:03:14</time>
      </trkpt>
      <trkpt lat="41.04761" lon="0.82337">
        <ele>428.8</ele>
        <time>2022-05-24 12:03:15</time>
      </trkpt>
      <trkpt lat="41.04763" lon="0.82337">
        <ele>429</ele>
        <time>2022-05-24 12:03:16</time>
      </trkpt>
      <trkpt lat="41.04766" lon="0.82337">
        <ele>429</ele>
        <time>2022-05-24 12:03:17</time>
      </trkpt>
      <trkpt lat="41.04768" lon="0.82337">
        <ele>429</ele>
        <time>2022-05-24 12:03:18</time>
      </trkpt>
      <trkpt lat="41.04773" lon="0.82335">
        <ele>429</ele>
        <time>2022-05-24 12:03:19</time>
      </trkpt>
      <trkpt lat="41.04776" lon="0.82333">
        <ele>429</ele>
        <time>2022-05-24 12:03:20</time>
      </trkpt>
      <trkpt lat="41.04779" lon="0.82332">
        <ele>429</ele>
        <time>2022-05-24 12:03:21</time>
      </trkpt>
      <trkpt lat="41.04782" lon="0.82331">
        <ele>429</ele>
        <time>2022-05-24 12:03:22</time>
      </trkpt>
      <trkpt lat="41.04786" lon="0.82329">
        <ele>429</ele>
        <time>2022-05-24 12:03:23</time>
      </trkpt>
      <trkpt lat="41.04789" lon="0.82328">
        <ele>429</ele>
        <time>2022-05-24 12:03:24</time>
      </trkpt>
      <trkpt lat="41.04791" lon="0.82327">
        <ele>429</ele>
        <time>2022-05-24 12:03:25</time>
      </trkpt>
      <trkpt lat="41.04795" lon="0.82325">
        <ele>428.8</ele>
        <time>2022-05-24 12:03:26</time>
      </trkpt>
      <trkpt lat="41.04799" lon="0.82323">
        <ele>428.8</ele>
        <time>2022-05-24 12:03:27</time>
      </trkpt>
      <trkpt lat="41.04802" lon="0.82322">
        <ele>429</ele>
        <time>2022-05-24 12:03:28</time>
      </trkpt>
      <trkpt lat="41.04805" lon="0.8232">
        <ele>429</ele>
        <time>2022-05-24 12:03:29</time>
      </trkpt>
      <trkpt lat="41.04808" lon="0.82319">
        <ele>429</ele>
        <time>2022-05-24 12:03:30</time>
      </trkpt>
      <trkpt lat="41.04811" lon="0.82318">
        <ele>429</ele>
        <time>2022-05-24 12:03:31</time>
      </trkpt>
      <trkpt lat="41.04814" lon="0.82317">
        <ele>429</ele>
        <time>2022-05-24 12:03:32</time>
      </trkpt>
      <trkpt lat="41.04818" lon="0.82315">
        <ele>429</ele>
        <time>2022-05-24 12:03:33</time>
      </trkpt>
      <trkpt lat="41.0482" lon="0.82314">
        <ele>429</ele>
        <time>2022-05-24 12:03:34</time>
      </trkpt>
      <trkpt lat="41.04824" lon="0.82313">
        <ele>429</ele>
        <time>2022-05-24 12:03:35</time>
      </trkpt>
      <trkpt lat="41.04827" lon="0.82313">
        <ele>429</ele>
        <time>2022-05-24 12:03:36</time>
      </trkpt>
      <trkpt lat="41.0483" lon="0.82312">
        <ele>429</ele>
        <time>2022-05-24 12:03:37</time>
      </trkpt>
      <trkpt lat="41.04834" lon="0.82312">
        <ele>429.2</ele>
        <time>2022-05-24 12:03:38</time>
      </trkpt>
      <trkpt lat="41.04837" lon="0.82311">
        <ele>429.2</ele>
        <time>2022-05-24 12:03:39</time>
      </trkpt>
      <trkpt lat="41.04839" lon="0.82309">
        <ele>429.2</ele>
        <time>2022-05-24 12:03:40</time>
      </trkpt>
      <trkpt lat="41.04843" lon="0.82308">
        <ele>429.4</ele>
        <time>2022-05-24 12:03:41</time>
      </trkpt>
      <trkpt lat="41.04846" lon="0.82306">
        <ele>429.4</ele>
        <time>2022-05-24 12:03:42</time>
      </trkpt>
      <trkpt lat="41.04848" lon="0.82304">
        <ele>429.4</ele>
        <time>2022-05-24 12:03:43</time>
      </trkpt>
      <trkpt lat="41.0485" lon="0.82302">
        <ele>429.6</ele>
        <time>2022-05-24 12:03:44</time>
      </trkpt>
      <trkpt lat="41.04853" lon="0.82299">
        <ele>429.6</ele>
        <time>2022-05-24 12:03:45</time>
      </trkpt>
      <trkpt lat="41.04855" lon="0.82297">
        <ele>429.8</ele>
        <time>2022-05-24 12:03:46</time>
      </trkpt>
      <trkpt lat="41.04857" lon="0.82296">
        <ele>429.8</ele>
        <time>2022-05-24 12:03:47</time>
      </trkpt>
      <trkpt lat="41.0486" lon="0.82294">
        <ele>429.8</ele>
        <time>2022-05-24 12:03:48</time>
      </trkpt>
      <trkpt lat="41.04863" lon="0.82292">
        <ele>430</ele>
        <time>2022-05-24 12:03:49</time>
      </trkpt>
      <trkpt lat="41.04866" lon="0.82291">
        <ele>430</ele>
        <time>2022-05-24 12:03:50</time>
      </trkpt>
      <trkpt lat="41.04869" lon="0.8229">
        <ele>430</ele>
        <time>2022-05-24 12:03:51</time>
      </trkpt>
      <trkpt lat="41.04872" lon="0.82289">
        <ele>430</ele>
        <time>2022-05-24 12:03:52</time>
      </trkpt>
      <trkpt lat="41.04875" lon="0.82288">
        <ele>430</ele>
        <time>2022-05-24 12:03:53</time>
      </trkpt>
      <trkpt lat="41.04878" lon="0.82287">
        <ele>430</ele>
        <time>2022-05-24 12:03:54</time>
      </trkpt>
      <trkpt lat="41.04882" lon="0.82286">
        <ele>430</ele>
        <time>2022-05-24 12:03:55</time>
      </trkpt>
      <trkpt lat="41.04885" lon="0.82285">
        <ele>430.2</ele>
        <time>2022-05-24 12:03:56</time>
      </trkpt>
      <trkpt lat="41.04888" lon="0.82284">
        <ele>430.2</ele>
        <time>2022-05-24 12:03:57</time>
      </trkpt>
      <trkpt lat="41.04891" lon="0.82282">
        <ele>430.2</ele>
        <time>2022-05-24 12:03:58</time>
      </trkpt>
      <trkpt lat="41.04894" lon="0.82281">
        <ele>430.2</ele>
        <time>2022-05-24 12:03:59</time>
      </trkpt>
      <trkpt lat="41.04897" lon="0.82279">
        <ele>430.4</ele>
        <time>2022-05-24 12:04:00</time>
      </trkpt>
      <trkpt lat="41.049" lon="0.82278">
        <ele>430.4</ele>
        <time>2022-05-24 12:04:01</time>
      </trkpt>
      <trkpt lat="41.04903" lon="0.82276">
        <ele>430.4</ele>
        <time>2022-05-24 12:04:02</time>
      </trkpt>
      <trkpt lat="41.04907" lon="0.82275">
        <ele>430.6</ele>
        <time>2022-05-24 12:04:03</time>
      </trkpt>
      <trkpt lat="41.0491" lon="0.82274">
        <ele>430.6</ele>
        <time>2022-05-24 12:04:04</time>
      </trkpt>
      <trkpt lat="41.04913" lon="0.82272">
        <ele>430.6</ele>
        <time>2022-05-24 12:04:05</time>
      </trkpt>
      <trkpt lat="41.04915" lon="0.8227">
        <ele>430.6</ele>
        <time>2022-05-24 12:04:06</time>
      </trkpt>
      <trkpt lat="41.04919" lon="0.82267">
        <ele>430.6</ele>
        <time>2022-05-24 12:04:07</time>
      </trkpt>
      <trkpt lat="41.04922" lon="0.82265">
        <ele>430.8</ele>
        <time>2022-05-24 12:04:08</time>
      </trkpt>
      <trkpt lat="41.04924" lon="0.82262">
        <ele>430.8</ele>
        <time>2022-05-24 12:04:09</time>
      </trkpt>
      <trkpt lat="41.04927" lon="0.82259">
        <ele>431</ele>
        <time>2022-05-24 12:04:10</time>
      </trkpt>
      <trkpt lat="41.04929" lon="0.82255">
        <ele>431</ele>
        <time>2022-05-24 12:04:11</time>
      </trkpt>
      <trkpt lat="41.0493" lon="0.82253">
        <ele>431</ele>
        <time>2022-05-24 12:04:12</time>
      </trkpt>
      <trkpt lat="41.04931" lon="0.82248">
        <ele>431</ele>
        <time>2022-05-24 12:04:13</time>
      </trkpt>
      <trkpt lat="41.04932" lon="0.82245">
        <ele>431</ele>
        <time>2022-05-24 12:04:14</time>
      </trkpt>
      <trkpt lat="41.04933" lon="0.8224">
        <ele>431</ele>
        <time>2022-05-24 12:04:15</time>
      </trkpt>
      <trkpt lat="41.04933" lon="0.82236">
        <ele>431</ele>
        <time>2022-05-24 12:04:16</time>
      </trkpt>
      <trkpt lat="41.04933" lon="0.82231">
        <ele>431</ele>
        <time>2022-05-24 12:04:17</time>
      </trkpt>
      <trkpt lat="41.04932" lon="0.82227">
        <ele>431</ele>
        <time>2022-05-24 12:04:18</time>
      </trkpt>
      <trkpt lat="41.04932" lon="0.82222">
        <ele>431</ele>
        <time>2022-05-24 12:04:19</time>
      </trkpt>
      <trkpt lat="41.04931" lon="0.82218">
        <ele>431</ele>
        <time>2022-05-24 12:04:20</time>
      </trkpt>
      <trkpt lat="41.04929" lon="0.82214">
        <ele>431.2</ele>
        <time>2022-05-24 12:04:21</time>
      </trkpt>
      <trkpt lat="41.04928" lon="0.82211">
        <ele>431.2</ele>
        <time>2022-05-24 12:04:22</time>
      </trkpt>
      <trkpt lat="41.04925" lon="0.82207">
        <ele>431.4</ele>
        <time>2022-05-24 12:04:23</time>
      </trkpt>
      <trkpt lat="41.04923" lon="0.82205">
        <ele>431.4</ele>
        <time>2022-05-24 12:04:24</time>
      </trkpt>
      <trkpt lat="41.04921" lon="0.82202">
        <ele>431.6</ele>
        <time>2022-05-24 12:04:25</time>
      </trkpt>
      <trkpt lat="41.04919" lon="0.822">
        <ele>431.6</ele>
        <time>2022-05-24 12:04:26</time>
      </trkpt>
      <trkpt lat="41.04916" lon="0.82198">
        <ele>431.8</ele>
        <time>2022-05-24 12:04:27</time>
      </trkpt>
      <trkpt lat="41.04913" lon="0.82197">
        <ele>431.8</ele>
        <time>2022-05-24 12:04:28</time>
      </trkpt>
      <trkpt lat="41.0491" lon="0.82195">
        <ele>432</ele>
        <time>2022-05-24 12:04:29</time>
      </trkpt>
      <trkpt lat="41.04907" lon="0.82194">
        <ele>432.2</ele>
        <time>2022-05-24 12:04:30</time>
      </trkpt>
      <trkpt lat="41.04904" lon="0.82193">
        <ele>432.2</ele>
        <time>2022-05-24 12:04:31</time>
      </trkpt>
      <trkpt lat="41.04901" lon="0.82191">
        <ele>432.4</ele>
        <time>2022-05-24 12:04:32</time>
      </trkpt>
      <trkpt lat="41.04898" lon="0.8219">
        <ele>432.4</ele>
        <time>2022-05-24 12:04:33</time>
      </trkpt>
      <trkpt lat="41.04895" lon="0.82188">
        <ele>432.4</ele>
        <time>2022-05-24 12:04:34</time>
      </trkpt>
      <trkpt lat="41.04892" lon="0.82187">
        <ele>432.2</ele>
        <time>2022-05-24 12:04:35</time>
      </trkpt>
      <trkpt lat="41.04888" lon="0.82185">
        <ele>432.2</ele>
        <time>2022-05-24 12:04:36</time>
      </trkpt>
      <trkpt lat="41.04884" lon="0.82185">
        <ele>432.2</ele>
        <time>2022-05-24 12:04:37</time>
      </trkpt>
      <trkpt lat="41.04881" lon="0.82184">
        <ele>432.2</ele>
        <time>2022-05-24 12:04:38</time>
      </trkpt>
      <trkpt lat="41.04877" lon="0.82183">
        <ele>432.2</ele>
        <time>2022-05-24 12:04:39</time>
      </trkpt>
      <trkpt lat="41.04873" lon="0.82182">
        <ele>432.2</ele>
        <time>2022-05-24 12:04:40</time>
      </trkpt>
      <trkpt lat="41.0487" lon="0.82181">
        <ele>432.2</ele>
        <time>2022-05-24 12:04:41</time>
      </trkpt>
      <trkpt lat="41.04867" lon="0.82181">
        <ele>432.4</ele>
        <time>2022-05-24 12:04:42</time>
      </trkpt>
      <trkpt lat="41.04863" lon="0.8218">
        <ele>432.4</ele>
        <time>2022-05-24 12:04:43</time>
      </trkpt>
      <trkpt lat="41.04861" lon="0.8218">
        <ele>432.4</ele>
        <time>2022-05-24 12:04:44</time>
      </trkpt>
      <trkpt lat="41.04857" lon="0.82179">
        <ele>432.6</ele>
        <time>2022-05-24 12:04:45</time>
      </trkpt>
      <trkpt lat="41.04854" lon="0.82179">
        <ele>432.6</ele>
        <time>2022-05-24 12:04:46</time>
      </trkpt>
      <trkpt lat="41.0485" lon="0.82179">
        <ele>432.6</ele>
        <time>2022-05-24 12:04:47</time>
      </trkpt>
      <trkpt lat="41.04847" lon="0.82178">
        <ele>432.8</ele>
        <time>2022-05-24 12:04:48</time>
      </trkpt>
      <trkpt lat="41.04843" lon="0.82178">
        <ele>432.8</ele>
        <time>2022-05-24 12:04:49</time>
      </trkpt>
      <trkpt lat="41.0484" lon="0.82178">
        <ele>433</ele>
        <time>2022-05-24 12:04:50</time>
      </trkpt>
      <trkpt lat="41.04835" lon="0.82179">
        <ele>433</ele>
        <time>2022-05-24 12:04:51</time>
      </trkpt>
      <trkpt lat="41.04832" lon="0.82179">
        <ele>433</ele>
        <time>2022-05-24 12:04:52</time>
      </trkpt>
      <trkpt lat="41.04828" lon="0.82179">
        <ele>433.2</ele>
        <time>2022-05-24 12:04:53</time>
      </trkpt>
      <trkpt lat="41.04824" lon="0.82179">
        <ele>433.2</ele>
        <time>2022-05-24 12:04:54</time>
      </trkpt>
      <trkpt lat="41.04821" lon="0.82178">
        <ele>433.2</ele>
        <time>2022-05-24 12:04:55</time>
      </trkpt>
      <trkpt lat="41.04817" lon="0.82177">
        <ele>433.4</ele>
        <time>2022-05-24 12:04:56</time>
      </trkpt>
      <trkpt lat="41.04813" lon="0.82176">
        <ele>433.4</ele>
        <time>2022-05-24 12:04:57</time>
      </trkpt>
      <trkpt lat="41.04809" lon="0.82176">
        <ele>433.6</ele>
        <time>2022-05-24 12:04:58</time>
      </trkpt>
      <trkpt lat="41.04805" lon="0.82176">
        <ele>433.6</ele>
        <time>2022-05-24 12:04:59</time>
      </trkpt>
      <trkpt lat="41.04802" lon="0.82175">
        <ele>433.6</ele>
        <time>2022-05-24 12:05:00</time>
      </trkpt>
      <trkpt lat="41.04798" lon="0.82174">
        <ele>433.6</ele>
        <time>2022-05-24 12:05:01</time>
      </trkpt>
      <trkpt lat="41.04794" lon="0.82174">
        <ele>433.8</ele>
        <time>2022-05-24 12:05:02</time>
      </trkpt>
      <trkpt lat="41.0479" lon="0.82173">
        <ele>433.8</ele>
        <time>2022-05-24 12:05:03</time>
      </trkpt>
      <trkpt lat="41.04786" lon="0.82172">
        <ele>433.8</ele>
        <time>2022-05-24 12:05:04</time>
      </trkpt>
      <trkpt lat="41.04783" lon="0.82172">
        <ele>434</ele>
        <time>2022-05-24 12:05:05</time>
      </trkpt>
      <trkpt lat="41.04779" lon="0.82171">
        <ele>434</ele>
        <time>2022-05-24 12:05:06</time>
      </trkpt>
      <trkpt lat="41.04775" lon="0.82168">
        <ele>434</ele>
        <time>2022-05-24 12:05:07</time>
      </trkpt>
      <trkpt lat="41.04772" lon="0.82166">
        <ele>434.2</ele>
        <time>2022-05-24 12:05:08</time>
      </trkpt>
      <trkpt lat="41.04769" lon="0.82163">
        <ele>434.2</ele>
        <time>2022-05-24 12:05:09</time>
      </trkpt>
      <trkpt lat="41.04766" lon="0.82161">
        <ele>434.4</ele>
        <time>2022-05-24 12:05:10</time>
      </trkpt>
      <trkpt lat="41.04763" lon="0.82157">
        <ele>434.4</ele>
        <time>2022-05-24 12:05:11</time>
      </trkpt>
      <trkpt lat="41.0476" lon="0.82154">
        <ele>434.4</ele>
        <time>2022-05-24 12:05:12</time>
      </trkpt>
      <trkpt lat="41.04758" lon="0.8215">
        <ele>434.6</ele>
        <time>2022-05-24 12:05:13</time>
      </trkpt>
      <trkpt lat="41.04755" lon="0.82147">
        <ele>434.6</ele>
        <time>2022-05-24 12:05:14</time>
      </trkpt>
      <trkpt lat="41.04751" lon="0.82144">
        <ele>434.8</ele>
        <time>2022-05-24 12:05:15</time>
      </trkpt>
      <trkpt lat="41.04748" lon="0.82141">
        <ele>434.8</ele>
        <time>2022-05-24 12:05:16</time>
      </trkpt>
      <trkpt lat="41.04744" lon="0.82139">
        <ele>434.8</ele>
        <time>2022-05-24 12:05:17</time>
      </trkpt>
      <trkpt lat="41.04741" lon="0.82137">
        <ele>435</ele>
        <time>2022-05-24 12:05:18</time>
      </trkpt>
      <trkpt lat="41.04737" lon="0.82135">
        <ele>435</ele>
        <time>2022-05-24 12:05:19</time>
      </trkpt>
      <trkpt lat="41.04734" lon="0.82134">
        <ele>435</ele>
        <time>2022-05-24 12:05:20</time>
      </trkpt>
      <trkpt lat="41.0473" lon="0.82132">
        <ele>435.2</ele>
        <time>2022-05-24 12:05:21</time>
      </trkpt>
      <trkpt lat="41.04726" lon="0.82131">
        <ele>435.2</ele>
        <time>2022-05-24 12:05:22</time>
      </trkpt>
      <trkpt lat="41.04722" lon="0.8213">
        <ele>435.4</ele>
        <time>2022-05-24 12:05:23</time>
      </trkpt>
      <trkpt lat="41.04719" lon="0.82129">
        <ele>435.4</ele>
        <time>2022-05-24 12:05:24</time>
      </trkpt>
      <trkpt lat="41.04715" lon="0.82128">
        <ele>435.4</ele>
        <time>2022-05-24 12:05:25</time>
      </trkpt>
      <trkpt lat="41.04712" lon="0.82127">
        <ele>435.4</ele>
        <time>2022-05-24 12:05:26</time>
      </trkpt>
      <trkpt lat="41.04708" lon="0.82123">
        <ele>435.4</ele>
        <time>2022-05-24 12:05:27</time>
      </trkpt>
      <trkpt lat="41.04705" lon="0.82121">
        <ele>435.6</ele>
        <time>2022-05-24 12:05:28</time>
      </trkpt>
      <trkpt lat="41.04701" lon="0.82118">
        <ele>435.6</ele>
        <time>2022-05-24 12:05:29</time>
      </trkpt>
      <trkpt lat="41.04698" lon="0.82115">
        <ele>435.8</ele>
        <time>2022-05-24 12:05:30</time>
      </trkpt>
      <trkpt lat="41.04694" lon="0.82112">
        <ele>435.8</ele>
        <time>2022-05-24 12:05:31</time>
      </trkpt>
      <trkpt lat="41.04691" lon="0.8211">
        <ele>435.8</ele>
        <time>2022-05-24 12:05:32</time>
      </trkpt>
      <trkpt lat="41.04687" lon="0.82107">
        <ele>436</ele>
        <time>2022-05-24 12:05:33</time>
      </trkpt>
      <trkpt lat="41.04683" lon="0.82105">
        <ele>436</ele>
        <time>2022-05-24 12:05:34</time>
      </trkpt>
      <trkpt lat="41.0468" lon="0.82105">
        <ele>436.2</ele>
        <time>2022-05-24 12:05:35</time>
      </trkpt>
      <trkpt lat="41.04676" lon="0.82104">
        <ele>436.2</ele>
        <time>2022-05-24 12:05:36</time>
      </trkpt>
      <trkpt lat="41.04671" lon="0.82104">
        <ele>436.2</ele>
        <time>2022-05-24 12:05:37</time>
      </trkpt>
      <trkpt lat="41.04668" lon="0.82104">
        <ele>436.4</ele>
        <time>2022-05-24 12:05:38</time>
      </trkpt>
      <trkpt lat="41.04664" lon="0.82105">
        <ele>436.4</ele>
        <time>2022-05-24 12:05:39</time>
      </trkpt>
      <trkpt lat="41.04661" lon="0.82105">
        <ele>436.6</ele>
        <time>2022-05-24 12:05:40</time>
      </trkpt>
      <trkpt lat="41.04657" lon="0.82107">
        <ele>436.6</ele>
        <time>2022-05-24 12:05:41</time>
      </trkpt>
      <trkpt lat="41.04654" lon="0.82108">
        <ele>436.6</ele>
        <time>2022-05-24 12:05:42</time>
      </trkpt>
      <trkpt lat="41.04651" lon="0.82109">
        <ele>436.8</ele>
        <time>2022-05-24 12:05:43</time>
      </trkpt>
      <trkpt lat="41.04648" lon="0.8211">
        <ele>436.8</ele>
        <time>2022-05-24 12:05:44</time>
      </trkpt>
      <trkpt lat="41.04645" lon="0.82112">
        <ele>436.8</ele>
        <time>2022-05-24 12:05:45</time>
      </trkpt>
      <trkpt lat="41.04642" lon="0.82113">
        <ele>436.8</ele>
        <time>2022-05-24 12:05:46</time>
      </trkpt>
      <trkpt lat="41.04639" lon="0.82116">
        <ele>437</ele>
        <time>2022-05-24 12:05:47</time>
      </trkpt>
      <trkpt lat="41.04636" lon="0.82118">
        <ele>437</ele>
        <time>2022-05-24 12:05:48</time>
      </trkpt>
      <trkpt lat="41.04633" lon="0.8212">
        <ele>437</ele>
        <time>2022-05-24 12:05:49</time>
      </trkpt>
      <trkpt lat="41.0463" lon="0.82123">
        <ele>437</ele>
        <time>2022-05-24 12:05:50</time>
      </trkpt>
      <trkpt lat="41.04628" lon="0.82126">
        <ele>437.2</ele>
        <time>2022-05-24 12:05:51</time>
      </trkpt>
      <trkpt lat="41.04625" lon="0.82129">
        <ele>437.2</ele>
        <time>2022-05-24 12:05:52</time>
      </trkpt>
      <trkpt lat="41.04623" lon="0.82131">
        <ele>437.2</ele>
        <time>2022-05-24 12:05:53</time>
      </trkpt>
      <trkpt lat="41.0462" lon="0.82133">
        <ele>437.4</ele>
        <time>2022-05-24 12:05:54</time>
      </trkpt>
      <trkpt lat="41.04618" lon="0.82136">
        <ele>437.4</ele>
        <time>2022-05-24 12:05:55</time>
      </trkpt>
      <trkpt lat="41.04616" lon="0.82138">
        <ele>437.4</ele>
        <time>2022-05-24 12:05:56</time>
      </trkpt>
      <trkpt lat="41.04613" lon="0.8214">
        <ele>437.4</ele>
        <time>2022-05-24 12:05:57</time>
      </trkpt>
      <trkpt lat="41.04611" lon="0.82142">
        <ele>437.6</ele>
        <time>2022-05-24 12:05:58</time>
      </trkpt>
      <trkpt lat="41.04609" lon="0.82145">
        <ele>437.6</ele>
        <time>2022-05-24 12:05:59</time>
      </trkpt>
      <trkpt lat="41.04607" lon="0.82148">
        <ele>437.6</ele>
        <time>2022-05-24 12:06:00</time>
      </trkpt>
      <trkpt lat="41.04604" lon="0.82151">
        <ele>437.6</ele>
        <time>2022-05-24 12:06:01</time>
      </trkpt>
      <trkpt lat="41.04602" lon="0.82155">
        <ele>437.6</ele>
        <time>2022-05-24 12:06:02</time>
      </trkpt>
      <trkpt lat="41.04601" lon="0.82159">
        <ele>437.6</ele>
        <time>2022-05-24 12:06:03</time>
      </trkpt>
      <trkpt lat="41.04599" lon="0.82163">
        <ele>437.6</ele>
        <time>2022-05-24 12:06:04</time>
      </trkpt>
      <trkpt lat="41.04598" lon="0.82167">
        <ele>437.8</ele>
        <time>2022-05-24 12:06:05</time>
      </trkpt>
      <trkpt lat="41.04596" lon="0.82171">
        <ele>437.8</ele>
        <time>2022-05-24 12:06:06</time>
      </trkpt>
      <trkpt lat="41.04595" lon="0.82175">
        <ele>437.8</ele>
        <time>2022-05-24 12:06:07</time>
      </trkpt>
      <trkpt lat="41.04594" lon="0.82179">
        <ele>438</ele>
        <time>2022-05-24 12:06:08</time>
      </trkpt>
      <trkpt lat="41.04593" lon="0.82183">
        <ele>438.2</ele>
        <time>2022-05-24 12:06:09</time>
      </trkpt>
      <trkpt lat="41.04592" lon="0.82186">
        <ele>438.2</ele>
        <time>2022-05-24 12:06:10</time>
      </trkpt>
      <trkpt lat="41.04591" lon="0.8219">
        <ele>438.4</ele>
        <time>2022-05-24 12:06:11</time>
      </trkpt>
      <trkpt lat="41.0459" lon="0.82194">
        <ele>438.6</ele>
        <time>2022-05-24 12:06:12</time>
      </trkpt>
      <trkpt lat="41.04589" lon="0.82198">
        <ele>438.6</ele>
        <time>2022-05-24 12:06:13</time>
      </trkpt>
      <trkpt lat="41.04589" lon="0.82201">
        <ele>438.6</ele>
        <time>2022-05-24 12:06:14</time>
      </trkpt>
      <trkpt lat="41.04587" lon="0.82205">
        <ele>438.8</ele>
        <time>2022-05-24 12:06:15</time>
      </trkpt>
      <trkpt lat="41.04586" lon="0.82209">
        <ele>439</ele>
        <time>2022-05-24 12:06:16</time>
      </trkpt>
      <trkpt lat="41.04585" lon="0.82213">
        <ele>439.4</ele>
        <time>2022-05-24 12:06:17</time>
      </trkpt>
      <trkpt lat="41.04584" lon="0.82216">
        <ele>439.6</ele>
        <time>2022-05-24 12:06:18</time>
      </trkpt>
      <trkpt lat="41.04582" lon="0.82221">
        <ele>439.8</ele>
        <time>2022-05-24 12:06:19</time>
      </trkpt>
      <trkpt lat="41.04581" lon="0.82224">
        <ele>440</ele>
        <time>2022-05-24 12:06:20</time>
      </trkpt>
      <trkpt lat="41.04579" lon="0.82227">
        <ele>440.4</ele>
        <time>2022-05-24 12:06:21</time>
      </trkpt>
      <trkpt lat="41.04577" lon="0.8223">
        <ele>440.6</ele>
        <time>2022-05-24 12:06:22</time>
      </trkpt>
      <trkpt lat="41.04574" lon="0.82233">
        <ele>440.8</ele>
        <time>2022-05-24 12:06:23</time>
      </trkpt>
      <trkpt lat="41.04572" lon="0.82234">
        <ele>441</ele>
        <time>2022-05-24 12:06:24</time>
      </trkpt>
      <trkpt lat="41.04568" lon="0.82238">
        <ele>441.2</ele>
        <time>2022-05-24 12:06:25</time>
      </trkpt>
      <trkpt lat="41.04566" lon="0.8224">
        <ele>441.4</ele>
        <time>2022-05-24 12:06:26</time>
      </trkpt>
      <trkpt lat="41.04563" lon="0.82242">
        <ele>441.6</ele>
        <time>2022-05-24 12:06:27</time>
      </trkpt>
      <trkpt lat="41.04559" lon="0.82243">
        <ele>441.8</ele>
        <time>2022-05-24 12:06:28</time>
      </trkpt>
      <trkpt lat="41.04556" lon="0.82244">
        <ele>442</ele>
        <time>2022-05-24 12:06:29</time>
      </trkpt>
      <trkpt lat="41.04553" lon="0.82245">
        <ele>442</ele>
        <time>2022-05-24 12:06:30</time>
      </trkpt>
      <trkpt lat="41.04548" lon="0.82246">
        <ele>442.2</ele>
        <time>2022-05-24 12:06:31</time>
      </trkpt>
      <trkpt lat="41.04544" lon="0.82246">
        <ele>442.6</ele>
        <time>2022-05-24 12:06:32</time>
      </trkpt>
      <trkpt lat="41.0454" lon="0.82245">
        <ele>442.8</ele>
        <time>2022-05-24 12:06:33</time>
      </trkpt>
      <trkpt lat="41.04537" lon="0.82243">
        <ele>442.8</ele>
        <time>2022-05-24 12:06:34</time>
      </trkpt>
      <trkpt lat="41.04533" lon="0.82241">
        <ele>443</ele>
        <time>2022-05-24 12:06:35</time>
      </trkpt>
      <trkpt lat="41.0453" lon="0.8224">
        <ele>443.2</ele>
        <time>2022-05-24 12:06:36</time>
      </trkpt>
      <trkpt lat="41.04527" lon="0.82238">
        <ele>443.4</ele>
        <time>2022-05-24 12:06:37</time>
      </trkpt>
      <trkpt lat="41.04525" lon="0.82237">
        <ele>443.4</ele>
        <time>2022-05-24 12:06:38</time>
      </trkpt>
      <trkpt lat="41.04522" lon="0.82235">
        <ele>443.6</ele>
        <time>2022-05-24 12:06:39</time>
      </trkpt>
      <trkpt lat="41.04519" lon="0.82234">
        <ele>443.8</ele>
        <time>2022-05-24 12:06:40</time>
      </trkpt>
      <trkpt lat="41.04517" lon="0.82232">
        <ele>444</ele>
        <time>2022-05-24 12:06:41</time>
      </trkpt>
      <trkpt lat="41.04515" lon="0.8223">
        <ele>444</ele>
        <time>2022-05-24 12:06:42</time>
      </trkpt>
      <trkpt lat="41.04512" lon="0.82229">
        <ele>444.2</ele>
        <time>2022-05-24 12:06:43</time>
      </trkpt>
      <trkpt lat="41.0451" lon="0.82228">
        <ele>444.4</ele>
        <time>2022-05-24 12:06:44</time>
      </trkpt>
      <trkpt lat="41.04508" lon="0.82227">
        <ele>444.4</ele>
        <time>2022-05-24 12:06:45</time>
      </trkpt>
      <trkpt lat="41.04506" lon="0.82226">
        <ele>444.6</ele>
        <time>2022-05-24 12:06:46</time>
      </trkpt>
      <trkpt lat="41.04503" lon="0.82225">
        <ele>444.8</ele>
        <time>2022-05-24 12:06:47</time>
      </trkpt>
      <trkpt lat="41.04501" lon="0.82224">
        <ele>444.8</ele>
        <time>2022-05-24 12:06:48</time>
      </trkpt>
      <trkpt lat="41.04499" lon="0.82222">
        <ele>445</ele>
        <time>2022-05-24 12:06:49</time>
      </trkpt>
      <trkpt lat="41.04497" lon="0.82221">
        <ele>445.2</ele>
        <time>2022-05-24 12:06:50</time>
      </trkpt>
      <trkpt lat="41.04495" lon="0.82219">
        <ele>445.4</ele>
        <time>2022-05-24 12:06:51</time>
      </trkpt>
      <trkpt lat="41.04493" lon="0.82218">
        <ele>445.4</ele>
        <time>2022-05-24 12:06:52</time>
      </trkpt>
      <trkpt lat="41.04491" lon="0.82216">
        <ele>445.6</ele>
        <time>2022-05-24 12:06:53</time>
      </trkpt>
      <trkpt lat="41.04489" lon="0.82215">
        <ele>445.8</ele>
        <time>2022-05-24 12:06:54</time>
      </trkpt>
      <trkpt lat="41.04487" lon="0.82214">
        <ele>446</ele>
        <time>2022-05-24 12:06:55</time>
      </trkpt>
      <trkpt lat="41.04484" lon="0.82213">
        <ele>446.2</ele>
        <time>2022-05-24 12:06:56</time>
      </trkpt>
      <trkpt lat="41.04482" lon="0.82211">
        <ele>446.2</ele>
        <time>2022-05-24 12:06:57</time>
      </trkpt>
      <trkpt lat="41.0448" lon="0.8221">
        <ele>446.4</ele>
        <time>2022-05-24 12:06:58</time>
      </trkpt>
      <trkpt lat="41.04479" lon="0.82208">
        <ele>446.6</ele>
        <time>2022-05-24 12:06:59</time>
      </trkpt>
      <trkpt lat="41.04477" lon="0.82206">
        <ele>446.8</ele>
        <time>2022-05-24 12:07:00</time>
      </trkpt>
      <trkpt lat="41.04475" lon="0.82204">
        <ele>447</ele>
        <time>2022-05-24 12:07:01</time>
      </trkpt>
      <trkpt lat="41.04474" lon="0.82202">
        <ele>447</ele>
        <time>2022-05-24 12:07:02</time>
      </trkpt>
      <trkpt lat="41.04473" lon="0.82199">
        <ele>447.2</ele>
        <time>2022-05-24 12:07:03</time>
      </trkpt>
      <trkpt lat="41.04472" lon="0.82197">
        <ele>447.4</ele>
        <time>2022-05-24 12:07:04</time>
      </trkpt>
      <trkpt lat="41.04471" lon="0.82193">
        <ele>447.4</ele>
        <time>2022-05-24 12:07:05</time>
      </trkpt>
      <trkpt lat="41.0447" lon="0.8219">
        <ele>447.6</ele>
        <time>2022-05-24 12:07:06</time>
      </trkpt>
      <trkpt lat="41.0447" lon="0.82187">
        <ele>447.6</ele>
        <time>2022-05-24 12:07:07</time>
      </trkpt>
      <trkpt lat="41.0447" lon="0.82184">
        <ele>447.8</ele>
        <time>2022-05-24 12:07:08</time>
      </trkpt>
      <trkpt lat="41.0447" lon="0.8218">
        <ele>447.8</ele>
        <time>2022-05-24 12:07:09</time>
      </trkpt>
      <trkpt lat="41.04471" lon="0.82177">
        <ele>448</ele>
        <time>2022-05-24 12:07:10</time>
      </trkpt>
      <trkpt lat="41.04472" lon="0.82173">
        <ele>448</ele>
        <time>2022-05-24 12:07:11</time>
      </trkpt>
      <trkpt lat="41.04472" lon="0.82171">
        <ele>448</ele>
        <time>2022-05-24 12:07:12</time>
      </trkpt>
      <trkpt lat="41.04473" lon="0.82166">
        <ele>448.2</ele>
        <time>2022-05-24 12:07:13</time>
      </trkpt>
      <trkpt lat="41.04473" lon="0.82163">
        <ele>448.4</ele>
        <time>2022-05-24 12:07:14</time>
      </trkpt>
      <trkpt lat="41.04474" lon="0.82159">
        <ele>448.4</ele>
        <time>2022-05-24 12:07:15</time>
      </trkpt>
      <trkpt lat="41.04475" lon="0.82156">
        <ele>448.6</ele>
        <time>2022-05-24 12:07:16</time>
      </trkpt>
      <trkpt lat="41.04476" lon="0.82152">
        <ele>448.6</ele>
        <time>2022-05-24 12:07:17</time>
      </trkpt>
      <trkpt lat="41.04477" lon="0.82148">
        <ele>448.8</ele>
        <time>2022-05-24 12:07:18</time>
      </trkpt>
      <trkpt lat="41.04478" lon="0.82144">
        <ele>448.8</ele>
        <time>2022-05-24 12:07:19</time>
      </trkpt>
      <trkpt lat="41.04479" lon="0.82141">
        <ele>449</ele>
        <time>2022-05-24 12:07:20</time>
      </trkpt>
      <trkpt lat="41.0448" lon="0.82137">
        <ele>449</ele>
        <time>2022-05-24 12:07:21</time>
      </trkpt>
      <trkpt lat="41.0448" lon="0.82134">
        <ele>449.2</ele>
        <time>2022-05-24 12:07:22</time>
      </trkpt>
      <trkpt lat="41.04481" lon="0.8213">
        <ele>449.2</ele>
        <time>2022-05-24 12:07:23</time>
      </trkpt>
      <trkpt lat="41.04481" lon="0.82127">
        <ele>449.4</ele>
        <time>2022-05-24 12:07:24</time>
      </trkpt>
      <trkpt lat="41.04482" lon="0.82123">
        <ele>449.4</ele>
        <time>2022-05-24 12:07:25</time>
      </trkpt>
      <trkpt lat="41.04482" lon="0.8212">
        <ele>449.6</ele>
        <time>2022-05-24 12:07:26</time>
      </trkpt>
      <trkpt lat="41.04482" lon="0.82116">
        <ele>449.6</ele>
        <time>2022-05-24 12:07:27</time>
      </trkpt>
      <trkpt lat="41.04482" lon="0.82114">
        <ele>449.8</ele>
        <time>2022-05-24 12:07:28</time>
      </trkpt>
      <trkpt lat="41.04483" lon="0.82109">
        <ele>450</ele>
        <time>2022-05-24 12:07:29</time>
      </trkpt>
      <trkpt lat="41.04484" lon="0.82106">
        <ele>450</ele>
        <time>2022-05-24 12:07:30</time>
      </trkpt>
      <trkpt lat="41.04484" lon="0.82102">
        <ele>450.2</ele>
        <time>2022-05-24 12:07:31</time>
      </trkpt>
      <trkpt lat="41.04484" lon="0.82099">
        <ele>450.2</ele>
        <time>2022-05-24 12:07:32</time>
      </trkpt>
      <trkpt lat="41.04485" lon="0.82095">
        <ele>450.4</ele>
        <time>2022-05-24 12:07:33</time>
      </trkpt>
      <trkpt lat="41.04485" lon="0.82092">
        <ele>450.4</ele>
        <time>2022-05-24 12:07:34</time>
      </trkpt>
      <trkpt lat="41.04485" lon="0.82088">
        <ele>450.6</ele>
        <time>2022-05-24 12:07:35</time>
      </trkpt>
      <trkpt lat="41.04486" lon="0.82085">
        <ele>450.6</ele>
        <time>2022-05-24 12:07:36</time>
      </trkpt>
      <trkpt lat="41.04486" lon="0.82081">
        <ele>450.8</ele>
        <time>2022-05-24 12:07:37</time>
      </trkpt>
      <trkpt lat="41.04486" lon="0.82077">
        <ele>451</ele>
        <time>2022-05-24 12:07:38</time>
      </trkpt>
      <trkpt lat="41.04487" lon="0.82074">
        <ele>451</ele>
        <time>2022-05-24 12:07:39</time>
      </trkpt>
      <trkpt lat="41.04487" lon="0.82071">
        <ele>451.2</ele>
        <time>2022-05-24 12:07:40</time>
      </trkpt>
      <trkpt lat="41.04488" lon="0.82067">
        <ele>451.2</ele>
        <time>2022-05-24 12:07:41</time>
      </trkpt>
      <trkpt lat="41.04488" lon="0.82064">
        <ele>451.4</ele>
        <time>2022-05-24 12:07:42</time>
      </trkpt>
      <trkpt lat="41.04488" lon="0.82061">
        <ele>451.4</ele>
        <time>2022-05-24 12:07:43</time>
      </trkpt>
      <trkpt lat="41.04488" lon="0.82058">
        <ele>451.6</ele>
        <time>2022-05-24 12:07:44</time>
      </trkpt>
      <trkpt lat="41.04488" lon="0.82054">
        <ele>451.6</ele>
        <time>2022-05-24 12:07:45</time>
      </trkpt>
      <trkpt lat="41.04487" lon="0.82051">
        <ele>451.8</ele>
        <time>2022-05-24 12:07:46</time>
      </trkpt>
      <trkpt lat="41.04486" lon="0.82048">
        <ele>451.8</ele>
        <time>2022-05-24 12:07:47</time>
      </trkpt>
      <trkpt lat="41.04485" lon="0.82046">
        <ele>452</ele>
        <time>2022-05-24 12:07:48</time>
      </trkpt>
      <trkpt lat="41.04484" lon="0.82041">
        <ele>452</ele>
        <time>2022-05-24 12:07:49</time>
      </trkpt>
      <trkpt lat="41.04482" lon="0.82038">
        <ele>452.2</ele>
        <time>2022-05-24 12:07:50</time>
      </trkpt>
      <trkpt lat="41.04481" lon="0.82035">
        <ele>452.4</ele>
        <time>2022-05-24 12:07:51</time>
      </trkpt>
      <trkpt lat="41.0448" lon="0.82033">
        <ele>452.4</ele>
        <time>2022-05-24 12:07:52</time>
      </trkpt>
      <trkpt lat="41.04477" lon="0.82029">
        <ele>452.6</ele>
        <time>2022-05-24 12:07:53</time>
      </trkpt>
      <trkpt lat="41.04476" lon="0.82026">
        <ele>452.6</ele>
        <time>2022-05-24 12:07:54</time>
      </trkpt>
      <trkpt lat="41.04474" lon="0.82023">
        <ele>452.8</ele>
        <time>2022-05-24 12:07:55</time>
      </trkpt>
      <trkpt lat="41.04473" lon="0.82021">
        <ele>452.8</ele>
        <time>2022-05-24 12:07:56</time>
      </trkpt>
      <trkpt lat="41.04471" lon="0.82018">
        <ele>453</ele>
        <time>2022-05-24 12:07:57</time>
      </trkpt>
      <trkpt lat="41.04469" lon="0.82016">
        <ele>453</ele>
        <time>2022-05-24 12:07:58</time>
      </trkpt>
      <trkpt lat="41.04467" lon="0.82014">
        <ele>453.2</ele>
        <time>2022-05-24 12:07:59</time>
      </trkpt>
      <trkpt lat="41.04466" lon="0.82012">
        <ele>453.4</ele>
        <time>2022-05-24 12:08:00</time>
      </trkpt>
      <trkpt lat="41.04464" lon="0.82009">
        <ele>453.4</ele>
        <time>2022-05-24 12:08:01</time>
      </trkpt>
      <trkpt lat="41.04462" lon="0.82007">
        <ele>453.6</ele>
        <time>2022-05-24 12:08:02</time>
      </trkpt>
      <trkpt lat="41.0446" lon="0.82004">
        <ele>453.6</ele>
        <time>2022-05-24 12:08:03</time>
      </trkpt>
      <trkpt lat="41.04459" lon="0.82003">
        <ele>453.8</ele>
        <time>2022-05-24 12:08:04</time>
      </trkpt>
      <trkpt lat="41.04457" lon="0.82">
        <ele>453.8</ele>
        <time>2022-05-24 12:08:05</time>
      </trkpt>
      <trkpt lat="41.04456" lon="0.81998">
        <ele>454</ele>
        <time>2022-05-24 12:08:06</time>
      </trkpt>
      <trkpt lat="41.04454" lon="0.81996">
        <ele>454</ele>
        <time>2022-05-24 12:08:07</time>
      </trkpt>
      <trkpt lat="41.04451" lon="0.81994">
        <ele>454.2</ele>
        <time>2022-05-24 12:08:08</time>
      </trkpt>
      <trkpt lat="41.0445" lon="0.81992">
        <ele>454.2</ele>
        <time>2022-05-24 12:08:09</time>
      </trkpt>
      <trkpt lat="41.04447" lon="0.81989">
        <ele>454.4</ele>
        <time>2022-05-24 12:08:10</time>
      </trkpt>
      <trkpt lat="41.04446" lon="0.81987">
        <ele>454.4</ele>
        <time>2022-05-24 12:08:11</time>
      </trkpt>
      <trkpt lat="41.04444" lon="0.81985">
        <ele>454.6</ele>
        <time>2022-05-24 12:08:12</time>
      </trkpt>
      <trkpt lat="41.04442" lon="0.81983">
        <ele>454.6</ele>
        <time>2022-05-24 12:08:13</time>
      </trkpt>
      <trkpt lat="41.0444" lon="0.8198">
        <ele>454.8</ele>
        <time>2022-05-24 12:08:14</time>
      </trkpt>
      <trkpt lat="41.04438" lon="0.81977">
        <ele>454.8</ele>
        <time>2022-05-24 12:08:15</time>
      </trkpt>
      <trkpt lat="41.04437" lon="0.81973">
        <ele>455</ele>
        <time>2022-05-24 12:08:16</time>
      </trkpt>
      <trkpt lat="41.04436" lon="0.81971">
        <ele>455.2</ele>
        <time>2022-05-24 12:08:17</time>
      </trkpt>
      <trkpt lat="41.04435" lon="0.81966">
        <ele>455.2</ele>
        <time>2022-05-24 12:08:18</time>
      </trkpt>
      <trkpt lat="41.04435" lon="0.81962">
        <ele>455.4</ele>
        <time>2022-05-24 12:08:19</time>
      </trkpt>
      <trkpt lat="41.04434" lon="0.81958">
        <ele>455.4</ele>
        <time>2022-05-24 12:08:20</time>
      </trkpt>
      <trkpt lat="41.04434" lon="0.81956">
        <ele>455.6</ele>
        <time>2022-05-24 12:08:21</time>
      </trkpt>
      <trkpt lat="41.04434" lon="0.8195">
        <ele>455.6</ele>
        <time>2022-05-24 12:08:22</time>
      </trkpt>
      <trkpt lat="41.04433" lon="0.81947">
        <ele>455.6</ele>
        <time>2022-05-24 12:08:23</time>
      </trkpt>
      <trkpt lat="41.04433" lon="0.81943">
        <ele>455.8</ele>
        <time>2022-05-24 12:08:24</time>
      </trkpt>
      <trkpt lat="41.04433" lon="0.8194">
        <ele>455.8</ele>
        <time>2022-05-24 12:08:25</time>
      </trkpt>
      <trkpt lat="41.04432" lon="0.81935">
        <ele>455.8</ele>
        <time>2022-05-24 12:08:26</time>
      </trkpt>
      <trkpt lat="41.04432" lon="0.81931">
        <ele>456</ele>
        <time>2022-05-24 12:08:27</time>
      </trkpt>
      <trkpt lat="41.04432" lon="0.81927">
        <ele>456</ele>
        <time>2022-05-24 12:08:28</time>
      </trkpt>
      <trkpt lat="41.04432" lon="0.81923">
        <ele>456.2</ele>
        <time>2022-05-24 12:08:29</time>
      </trkpt>
      <trkpt lat="41.04431" lon="0.8192">
        <ele>456.2</ele>
        <time>2022-05-24 12:08:30</time>
      </trkpt>
      <trkpt lat="41.04431" lon="0.81916">
        <ele>456.4</ele>
        <time>2022-05-24 12:08:31</time>
      </trkpt>
      <trkpt lat="41.04431" lon="0.81913">
        <ele>456.4</ele>
        <time>2022-05-24 12:08:32</time>
      </trkpt>
      <trkpt lat="41.0443" lon="0.81909">
        <ele>456.6</ele>
        <time>2022-05-24 12:08:33</time>
      </trkpt>
      <trkpt lat="41.0443" lon="0.81905">
        <ele>456.6</ele>
        <time>2022-05-24 12:08:34</time>
      </trkpt>
      <trkpt lat="41.0443" lon="0.81902">
        <ele>456.8</ele>
        <time>2022-05-24 12:08:35</time>
      </trkpt>
      <trkpt lat="41.0443" lon="0.81899">
        <ele>456.8</ele>
        <time>2022-05-24 12:08:36</time>
      </trkpt>
      <trkpt lat="41.0443" lon="0.81895">
        <ele>457</ele>
        <time>2022-05-24 12:08:37</time>
      </trkpt>
      <trkpt lat="41.0443" lon="0.81891">
        <ele>457</ele>
        <time>2022-05-24 12:08:38</time>
      </trkpt>
      <trkpt lat="41.04431" lon="0.81888">
        <ele>457.2</ele>
        <time>2022-05-24 12:08:39</time>
      </trkpt>
      <trkpt lat="41.04431" lon="0.81884">
        <ele>457.2</ele>
        <time>2022-05-24 12:08:40</time>
      </trkpt>
      <trkpt lat="41.04433" lon="0.8188">
        <ele>457.4</ele>
        <time>2022-05-24 12:08:41</time>
      </trkpt>
      <trkpt lat="41.04434" lon="0.81876">
        <ele>457.4</ele>
        <time>2022-05-24 12:08:42</time>
      </trkpt>
      <trkpt lat="41.04435" lon="0.81873">
        <ele>457.6</ele>
        <time>2022-05-24 12:08:43</time>
      </trkpt>
      <trkpt lat="41.04437" lon="0.81869">
        <ele>457.6</ele>
        <time>2022-05-24 12:08:44</time>
      </trkpt>
      <trkpt lat="41.04438" lon="0.81865">
        <ele>457.8</ele>
        <time>2022-05-24 12:08:45</time>
      </trkpt>
      <trkpt lat="41.04439" lon="0.81862">
        <ele>457.8</ele>
        <time>2022-05-24 12:08:46</time>
      </trkpt>
      <trkpt lat="41.04441" lon="0.81858">
        <ele>458</ele>
        <time>2022-05-24 12:08:47</time>
      </trkpt>
      <trkpt lat="41.04442" lon="0.81854">
        <ele>458</ele>
        <time>2022-05-24 12:08:48</time>
      </trkpt>
      <trkpt lat="41.04443" lon="0.81851">
        <ele>458.2</ele>
        <time>2022-05-24 12:08:49</time>
      </trkpt>
      <trkpt lat="41.04444" lon="0.81846">
        <ele>458.2</ele>
        <time>2022-05-24 12:08:50</time>
      </trkpt>
      <trkpt lat="41.04445" lon="0.81842">
        <ele>458.2</ele>
        <time>2022-05-24 12:08:51</time>
      </trkpt>
      <trkpt lat="41.04446" lon="0.81838">
        <ele>458.4</ele>
        <time>2022-05-24 12:08:52</time>
      </trkpt>
      <trkpt lat="41.04447" lon="0.81834">
        <ele>458.4</ele>
        <time>2022-05-24 12:08:53</time>
      </trkpt>
      <trkpt lat="41.04448" lon="0.81831">
        <ele>458.4</ele>
        <time>2022-05-24 12:08:54</time>
      </trkpt>
      <trkpt lat="41.04449" lon="0.81828">
        <ele>458.6</ele>
        <time>2022-05-24 12:08:55</time>
      </trkpt>
      <trkpt lat="41.04451" lon="0.81824">
        <ele>458.6</ele>
        <time>2022-05-24 12:08:56</time>
      </trkpt>
      <trkpt lat="41.04452" lon="0.81821">
        <ele>458.8</ele>
        <time>2022-05-24 12:08:57</time>
      </trkpt>
      <trkpt lat="41.04453" lon="0.81818">
        <ele>458.8</ele>
        <time>2022-05-24 12:08:58</time>
      </trkpt>
      <trkpt lat="41.04454" lon="0.81815">
        <ele>459</ele>
        <time>2022-05-24 12:08:59</time>
      </trkpt>
      <trkpt lat="41.04456" lon="0.81811">
        <ele>459.2</ele>
        <time>2022-05-24 12:09:00</time>
      </trkpt>
      <trkpt lat="41.04457" lon="0.81808">
        <ele>459.2</ele>
        <time>2022-05-24 12:09:01</time>
      </trkpt>
      <trkpt lat="41.04459" lon="0.81805">
        <ele>459.4</ele>
        <time>2022-05-24 12:09:02</time>
      </trkpt>
      <trkpt lat="41.04461" lon="0.81803">
        <ele>459.4</ele>
        <time>2022-05-24 12:09:03</time>
      </trkpt>
      <trkpt lat="41.04464" lon="0.818">
        <ele>459.6</ele>
        <time>2022-05-24 12:09:04</time>
      </trkpt>
      <trkpt lat="41.04466" lon="0.81798">
        <ele>459.6</ele>
        <time>2022-05-24 12:09:05</time>
      </trkpt>
      <trkpt lat="41.04469" lon="0.81796">
        <ele>459.6</ele>
        <time>2022-05-24 12:09:06</time>
      </trkpt>
      <trkpt lat="41.04471" lon="0.81794">
        <ele>459.6</ele>
        <time>2022-05-24 12:09:07</time>
      </trkpt>
      <trkpt lat="41.04475" lon="0.81791">
        <ele>459.8</ele>
        <time>2022-05-24 12:09:08</time>
      </trkpt>
      <trkpt lat="41.04477" lon="0.8179">
        <ele>459.8</ele>
        <time>2022-05-24 12:09:09</time>
      </trkpt>
      <trkpt lat="41.0448" lon="0.81787">
        <ele>459.8</ele>
        <time>2022-05-24 12:09:10</time>
      </trkpt>
      <trkpt lat="41.04482" lon="0.81786">
        <ele>460</ele>
        <time>2022-05-24 12:09:11</time>
      </trkpt>
      <trkpt lat="41.04485" lon="0.81784">
        <ele>460.2</ele>
        <time>2022-05-24 12:09:12</time>
      </trkpt>
      <trkpt lat="41.04487" lon="0.81782">
        <ele>460.4</ele>
        <time>2022-05-24 12:09:13</time>
      </trkpt>
      <trkpt lat="41.0449" lon="0.8178">
        <ele>460.4</ele>
        <time>2022-05-24 12:09:14</time>
      </trkpt>
      <trkpt lat="41.04493" lon="0.81779">
        <ele>460.6</ele>
        <time>2022-05-24 12:09:15</time>
      </trkpt>
      <trkpt lat="41.04495" lon="0.81778">
        <ele>460.6</ele>
        <time>2022-05-24 12:09:16</time>
      </trkpt>
      <trkpt lat="41.04497" lon="0.81777">
        <ele>460.8</ele>
        <time>2022-05-24 12:09:17</time>
      </trkpt>
      <trkpt lat="41.045" lon="0.81775">
        <ele>460.8</ele>
        <time>2022-05-24 12:09:18</time>
      </trkpt>
      <trkpt lat="41.04502" lon="0.81774">
        <ele>461</ele>
        <time>2022-05-24 12:09:19</time>
      </trkpt>
      <trkpt lat="41.04505" lon="0.81772">
        <ele>461</ele>
        <time>2022-05-24 12:09:20</time>
      </trkpt>
      <trkpt lat="41.04507" lon="0.81771">
        <ele>461.2</ele>
        <time>2022-05-24 12:09:21</time>
      </trkpt>
      <trkpt lat="41.04509" lon="0.8177">
        <ele>461.2</ele>
        <time>2022-05-24 12:09:22</time>
      </trkpt>
      <trkpt lat="41.04512" lon="0.81769">
        <ele>461.4</ele>
        <time>2022-05-24 12:09:23</time>
      </trkpt>
      <trkpt lat="41.04514" lon="0.81768">
        <ele>461.4</ele>
        <time>2022-05-24 12:09:24</time>
      </trkpt>
      <trkpt lat="41.04516" lon="0.81768">
        <ele>461.6</ele>
        <time>2022-05-24 12:09:25</time>
      </trkpt>
      <trkpt lat="41.04518" lon="0.81767">
        <ele>461.6</ele>
        <time>2022-05-24 12:09:26</time>
      </trkpt>
      <trkpt lat="41.0452" lon="0.81766">
        <ele>461.8</ele>
        <time>2022-05-24 12:09:27</time>
      </trkpt>
      <trkpt lat="41.04522" lon="0.81765">
        <ele>461.8</ele>
        <time>2022-05-24 12:09:28</time>
      </trkpt>
      <trkpt lat="41.04525" lon="0.81764">
        <ele>462</ele>
        <time>2022-05-24 12:09:29</time>
      </trkpt>
      <trkpt lat="41.04526" lon="0.81763">
        <ele>462</ele>
        <time>2022-05-24 12:09:30</time>
      </trkpt>
      <trkpt lat="41.04529" lon="0.81761">
        <ele>462.2</ele>
        <time>2022-05-24 12:09:31</time>
      </trkpt>
      <trkpt lat="41.04531" lon="0.8176">
        <ele>462.2</ele>
        <time>2022-05-24 12:09:32</time>
      </trkpt>
      <trkpt lat="41.04534" lon="0.81759">
        <ele>462.4</ele>
        <time>2022-05-24 12:09:33</time>
      </trkpt>
      <trkpt lat="41.04536" lon="0.81759">
        <ele>462.6</ele>
        <time>2022-05-24 12:09:34</time>
      </trkpt>
      <trkpt lat="41.0454" lon="0.81759">
        <ele>462.6</ele>
        <time>2022-05-24 12:09:35</time>
      </trkpt>
      <trkpt lat="41.04543" lon="0.81759">
        <ele>462.8</ele>
        <time>2022-05-24 12:09:36</time>
      </trkpt>
      <trkpt lat="41.04546" lon="0.81758">
        <ele>463</ele>
        <time>2022-05-24 12:09:37</time>
      </trkpt>
      <trkpt lat="41.04549" lon="0.81758">
        <ele>463.2</ele>
        <time>2022-05-24 12:09:38</time>
      </trkpt>
      <trkpt lat="41.04552" lon="0.81758">
        <ele>463.4</ele>
        <time>2022-05-24 12:09:39</time>
      </trkpt>
      <trkpt lat="41.04554" lon="0.81758">
        <ele>463.6</ele>
        <time>2022-05-24 12:09:40</time>
      </trkpt>
      <trkpt lat="41.04557" lon="0.81757">
        <ele>463.8</ele>
        <time>2022-05-24 12:09:41</time>
      </trkpt>
      <trkpt lat="41.0456" lon="0.81757">
        <ele>464</ele>
        <time>2022-05-24 12:09:42</time>
      </trkpt>
      <trkpt lat="41.04563" lon="0.81757">
        <ele>464.2</ele>
        <time>2022-05-24 12:09:43</time>
      </trkpt>
      <trkpt lat="41.04565" lon="0.81758">
        <ele>464.2</ele>
        <time>2022-05-24 12:09:44</time>
      </trkpt>
      <trkpt lat="41.04567" lon="0.81758">
        <ele>464.4</ele>
        <time>2022-05-24 12:09:45</time>
      </trkpt>
      <trkpt lat="41.0457" lon="0.81759">
        <ele>464.6</ele>
        <time>2022-05-24 12:09:46</time>
      </trkpt>
      <trkpt lat="41.04573" lon="0.81759">
        <ele>464.8</ele>
        <time>2022-05-24 12:09:47</time>
      </trkpt>
      <trkpt lat="41.04576" lon="0.81759">
        <ele>464.8</ele>
        <time>2022-05-24 12:09:48</time>
      </trkpt>
      <trkpt lat="41.04579" lon="0.81758">
        <ele>465</ele>
        <time>2022-05-24 12:09:49</time>
      </trkpt>
      <trkpt lat="41.04582" lon="0.81755">
        <ele>465.2</ele>
        <time>2022-05-24 12:09:50</time>
      </trkpt>
      <trkpt lat="41.04585" lon="0.81752">
        <ele>465.4</ele>
        <time>2022-05-24 12:09:51</time>
      </trkpt>
      <trkpt lat="41.04586" lon="0.8175">
        <ele>465.4</ele>
        <time>2022-05-24 12:09:52</time>
      </trkpt>
      <trkpt lat="41.04588" lon="0.81746">
        <ele>465.6</ele>
        <time>2022-05-24 12:09:53</time>
      </trkpt>
      <trkpt lat="41.04589" lon="0.81742">
        <ele>465.8</ele>
        <time>2022-05-24 12:09:54</time>
      </trkpt>
      <trkpt lat="41.04591" lon="0.81739">
        <ele>466</ele>
        <time>2022-05-24 12:09:55</time>
      </trkpt>
      <trkpt lat="41.04591" lon="0.81737">
        <ele>466.2</ele>
        <time>2022-05-24 12:09:56</time>
      </trkpt>
      <trkpt lat="41.04592" lon="0.81732">
        <ele>466.4</ele>
        <time>2022-05-24 12:09:57</time>
      </trkpt>
      <trkpt lat="41.04593" lon="0.81729">
        <ele>466.6</ele>
        <time>2022-05-24 12:09:58</time>
      </trkpt>
      <trkpt lat="41.04594" lon="0.81724">
        <ele>466.6</ele>
        <time>2022-05-24 12:09:59</time>
      </trkpt>
      <trkpt lat="41.04594" lon="0.81722">
        <ele>466.8</ele>
        <time>2022-05-24 12:10:00</time>
      </trkpt>
      <trkpt lat="41.04594" lon="0.81717">
        <ele>467.2</ele>
        <time>2022-05-24 12:10:01</time>
      </trkpt>
      <trkpt lat="41.04594" lon="0.81715">
        <ele>467.4</ele>
        <time>2022-05-24 12:10:02</time>
      </trkpt>
      <trkpt lat="41.04595" lon="0.81711">
        <ele>467.6</ele>
        <time>2022-05-24 12:10:03</time>
      </trkpt>
      <trkpt lat="41.04595" lon="0.81709">
        <ele>467.8</ele>
        <time>2022-05-24 12:10:04</time>
      </trkpt>
      <trkpt lat="41.04595" lon="0.81705">
        <ele>467.8</ele>
        <time>2022-05-24 12:10:05</time>
      </trkpt>
      <trkpt lat="41.04595" lon="0.81703">
        <ele>468</ele>
        <time>2022-05-24 12:10:06</time>
      </trkpt>
      <trkpt lat="41.04595" lon="0.817">
        <ele>468.2</ele>
        <time>2022-05-24 12:10:07</time>
      </trkpt>
      <trkpt lat="41.04595" lon="0.81696">
        <ele>468.4</ele>
        <time>2022-05-24 12:10:08</time>
      </trkpt>
      <trkpt lat="41.04595" lon="0.81694">
        <ele>468.6</ele>
        <time>2022-05-24 12:10:09</time>
      </trkpt>
      <trkpt lat="41.04595" lon="0.8169">
        <ele>468.8</ele>
        <time>2022-05-24 12:10:10</time>
      </trkpt>
      <trkpt lat="41.04595" lon="0.81687">
        <ele>468.8</ele>
        <time>2022-05-24 12:10:11</time>
      </trkpt>
      <trkpt lat="41.04596" lon="0.81683">
        <ele>469</ele>
        <time>2022-05-24 12:10:12</time>
      </trkpt>
      <trkpt lat="41.04596" lon="0.8168">
        <ele>469.2</ele>
        <time>2022-05-24 12:10:13</time>
      </trkpt>
      <trkpt lat="41.04596" lon="0.81677">
        <ele>469.6</ele>
        <time>2022-05-24 12:10:14</time>
      </trkpt>
      <trkpt lat="41.04597" lon="0.81674">
        <ele>469.8</ele>
        <time>2022-05-24 12:10:15</time>
      </trkpt>
      <trkpt lat="41.04598" lon="0.81671">
        <ele>470</ele>
        <time>2022-05-24 12:10:16</time>
      </trkpt>
      <trkpt lat="41.04598" lon="0.81669">
        <ele>470.2</ele>
        <time>2022-05-24 12:10:17</time>
      </trkpt>
      <trkpt lat="41.04599" lon="0.81666">
        <ele>470.2</ele>
        <time>2022-05-24 12:10:18</time>
      </trkpt>
      <trkpt lat="41.04599" lon="0.81662">
        <ele>470.4</ele>
        <time>2022-05-24 12:10:19</time>
      </trkpt>
      <trkpt lat="41.04599" lon="0.81659">
        <ele>470.6</ele>
        <time>2022-05-24 12:10:20</time>
      </trkpt>
      <trkpt lat="41.04599" lon="0.81656">
        <ele>470.8</ele>
        <time>2022-05-24 12:10:21</time>
      </trkpt>
      <trkpt lat="41.04599" lon="0.81653">
        <ele>471</ele>
        <time>2022-05-24 12:10:22</time>
      </trkpt>
      <trkpt lat="41.046" lon="0.8165">
        <ele>471</ele>
        <time>2022-05-24 12:10:23</time>
      </trkpt>
      <trkpt lat="41.046" lon="0.81647">
        <ele>471.2</ele>
        <time>2022-05-24 12:10:24</time>
      </trkpt>
      <trkpt lat="41.046" lon="0.81644">
        <ele>471.4</ele>
        <time>2022-05-24 12:10:25</time>
      </trkpt>
      <trkpt lat="41.046" lon="0.81641">
        <ele>471.6</ele>
        <time>2022-05-24 12:10:26</time>
      </trkpt>
      <trkpt lat="41.046" lon="0.81639">
        <ele>471.8</ele>
        <time>2022-05-24 12:10:27</time>
      </trkpt>
      <trkpt lat="41.04601" lon="0.81636">
        <ele>472</ele>
        <time>2022-05-24 12:10:28</time>
      </trkpt>
      <trkpt lat="41.04601" lon="0.81633">
        <ele>472.2</ele>
        <time>2022-05-24 12:10:29</time>
      </trkpt>
      <trkpt lat="41.04602" lon="0.8163">
        <ele>472.4</ele>
        <time>2022-05-24 12:10:30</time>
      </trkpt>
      <trkpt lat="41.04603" lon="0.81626">
        <ele>472.4</ele>
        <time>2022-05-24 12:10:31</time>
      </trkpt>
      <trkpt lat="41.04604" lon="0.81623">
        <ele>472.6</ele>
        <time>2022-05-24 12:10:32</time>
      </trkpt>
      <trkpt lat="41.04604" lon="0.8162">
        <ele>472.8</ele>
        <time>2022-05-24 12:10:33</time>
      </trkpt>
      <trkpt lat="41.04605" lon="0.81617">
        <ele>472.8</ele>
        <time>2022-05-24 12:10:34</time>
      </trkpt>
      <trkpt lat="41.04605" lon="0.81613">
        <ele>473</ele>
        <time>2022-05-24 12:10:35</time>
      </trkpt>
      <trkpt lat="41.04606" lon="0.8161">
        <ele>473.2</ele>
        <time>2022-05-24 12:10:36</time>
      </trkpt>
      <trkpt lat="41.04607" lon="0.81607">
        <ele>473.4</ele>
        <time>2022-05-24 12:10:37</time>
      </trkpt>
      <trkpt lat="41.04607" lon="0.81604">
        <ele>473.6</ele>
        <time>2022-05-24 12:10:38</time>
      </trkpt>
      <trkpt lat="41.04608" lon="0.81601">
        <ele>473.8</ele>
        <time>2022-05-24 12:10:39</time>
      </trkpt>
      <trkpt lat="41.04609" lon="0.81598">
        <ele>473.8</ele>
        <time>2022-05-24 12:10:40</time>
      </trkpt>
      <trkpt lat="41.04609" lon="0.81595">
        <ele>474</ele>
        <time>2022-05-24 12:10:41</time>
      </trkpt>
      <trkpt lat="41.0461" lon="0.81593">
        <ele>474.2</ele>
        <time>2022-05-24 12:10:42</time>
      </trkpt>
      <trkpt lat="41.0461" lon="0.81589">
        <ele>474.4</ele>
        <time>2022-05-24 12:10:43</time>
      </trkpt>
      <trkpt lat="41.04611" lon="0.81586">
        <ele>474.4</ele>
        <time>2022-05-24 12:10:44</time>
      </trkpt>
      <trkpt lat="41.04612" lon="0.81583">
        <ele>474.6</ele>
        <time>2022-05-24 12:10:45</time>
      </trkpt>
      <trkpt lat="41.04613" lon="0.81581">
        <ele>474.8</ele>
        <time>2022-05-24 12:10:46</time>
      </trkpt>
      <trkpt lat="41.04615" lon="0.81576">
        <ele>474.8</ele>
        <time>2022-05-24 12:10:47</time>
      </trkpt>
      <trkpt lat="41.04616" lon="0.81573">
        <ele>475</ele>
        <time>2022-05-24 12:10:48</time>
      </trkpt>
      <trkpt lat="41.04618" lon="0.8157">
        <ele>475.2</ele>
        <time>2022-05-24 12:10:49</time>
      </trkpt>
      <trkpt lat="41.04619" lon="0.81568">
        <ele>475.4</ele>
        <time>2022-05-24 12:10:50</time>
      </trkpt>
      <trkpt lat="41.04619" lon="0.81564">
        <ele>475.6</ele>
        <time>2022-05-24 12:10:51</time>
      </trkpt>
      <trkpt lat="41.0462" lon="0.81561">
        <ele>476</ele>
        <time>2022-05-24 12:10:52</time>
      </trkpt>
      <trkpt lat="41.04622" lon="0.81557">
        <ele>476.2</ele>
        <time>2022-05-24 12:10:53</time>
      </trkpt>
      <trkpt lat="41.04623" lon="0.81555">
        <ele>476.2</ele>
        <time>2022-05-24 12:10:54</time>
      </trkpt>
      <trkpt lat="41.04624" lon="0.81551">
        <ele>476.4</ele>
        <time>2022-05-24 12:10:55</time>
      </trkpt>
      <trkpt lat="41.04625" lon="0.81548">
        <ele>476.6</ele>
        <time>2022-05-24 12:10:56</time>
      </trkpt>
      <trkpt lat="41.04627" lon="0.81545">
        <ele>476.8</ele>
        <time>2022-05-24 12:10:57</time>
      </trkpt>
      <trkpt lat="41.04628" lon="0.81543">
        <ele>477</ele>
        <time>2022-05-24 12:10:58</time>
      </trkpt>
      <trkpt lat="41.04629" lon="0.8154">
        <ele>477.2</ele>
        <time>2022-05-24 12:10:59</time>
      </trkpt>
      <trkpt lat="41.0463" lon="0.81536">
        <ele>477.4</ele>
        <time>2022-05-24 12:11:00</time>
      </trkpt>
      <trkpt lat="41.04632" lon="0.81533">
        <ele>477.6</ele>
        <time>2022-05-24 12:11:01</time>
      </trkpt>
      <trkpt lat="41.04633" lon="0.81531">
        <ele>477.6</ele>
        <time>2022-05-24 12:11:02</time>
      </trkpt>
      <trkpt lat="41.04635" lon="0.81527">
        <ele>477.8</ele>
        <time>2022-05-24 12:11:03</time>
      </trkpt>
      <trkpt lat="41.04636" lon="0.81525">
        <ele>478</ele>
        <time>2022-05-24 12:11:04</time>
      </trkpt>
      <trkpt lat="41.04637" lon="0.81522">
        <ele>478.2</ele>
        <time>2022-05-24 12:11:05</time>
      </trkpt>
      <trkpt lat="41.04638" lon="0.8152">
        <ele>478.2</ele>
        <time>2022-05-24 12:11:06</time>
      </trkpt>
      <trkpt lat="41.04639" lon="0.81516">
        <ele>478.4</ele>
        <time>2022-05-24 12:11:07</time>
      </trkpt>
      <trkpt lat="41.0464" lon="0.81514">
        <ele>478.6</ele>
        <time>2022-05-24 12:11:08</time>
      </trkpt>
      <trkpt lat="41.04641" lon="0.8151">
        <ele>478.8</ele>
        <time>2022-05-24 12:11:09</time>
      </trkpt>
      <trkpt lat="41.04642" lon="0.81509">
        <ele>479</ele>
        <time>2022-05-24 12:11:10</time>
      </trkpt>
      <trkpt lat="41.04643" lon="0.81505">
        <ele>479.2</ele>
        <time>2022-05-24 12:11:11</time>
      </trkpt>
      <trkpt lat="41.04644" lon="0.81502">
        <ele>479.6</ele>
        <time>2022-05-24 12:11:12</time>
      </trkpt>
      <trkpt lat="41.04645" lon="0.81499">
        <ele>479.8</ele>
        <time>2022-05-24 12:11:13</time>
      </trkpt>
      <trkpt lat="41.04646" lon="0.81497">
        <ele>480</ele>
        <time>2022-05-24 12:11:14</time>
      </trkpt>
      <trkpt lat="41.04647" lon="0.81495">
        <ele>480.2</ele>
        <time>2022-05-24 12:11:15</time>
      </trkpt>
      <trkpt lat="41.04648" lon="0.81492">
        <ele>480.4</ele>
        <time>2022-05-24 12:11:16</time>
      </trkpt>
      <trkpt lat="41.04649" lon="0.8149">
        <ele>480.4</ele>
        <time>2022-05-24 12:11:17</time>
      </trkpt>
      <trkpt lat="41.0465" lon="0.81488">
        <ele>480.6</ele>
        <time>2022-05-24 12:11:18</time>
      </trkpt>
      <trkpt lat="41.0465" lon="0.81486">
        <ele>480.8</ele>
        <time>2022-05-24 12:11:19</time>
      </trkpt>
      <trkpt lat="41.04651" lon="0.81483">
        <ele>481</ele>
        <time>2022-05-24 12:11:20</time>
      </trkpt>
      <trkpt lat="41.04652" lon="0.81482">
        <ele>481.2</ele>
        <time>2022-05-24 12:11:21</time>
      </trkpt>
      <trkpt lat="41.04653" lon="0.81479">
        <ele>481.4</ele>
        <time>2022-05-24 12:11:22</time>
      </trkpt>
      <trkpt lat="41.04654" lon="0.81477">
        <ele>481.6</ele>
        <time>2022-05-24 12:11:23</time>
      </trkpt>
      <trkpt lat="41.04655" lon="0.81476">
        <ele>481.8</ele>
        <time>2022-05-24 12:11:24</time>
      </trkpt>
      <trkpt lat="41.04657" lon="0.81473">
        <ele>481.8</ele>
        <time>2022-05-24 12:11:25</time>
      </trkpt>
      <trkpt lat="41.04658" lon="0.81471">
        <ele>482</ele>
        <time>2022-05-24 12:11:26</time>
      </trkpt>
      <trkpt lat="41.04659" lon="0.81469">
        <ele>482.2</ele>
        <time>2022-05-24 12:11:27</time>
      </trkpt>
      <trkpt lat="41.04661" lon="0.81467">
        <ele>482.4</ele>
        <time>2022-05-24 12:11:28</time>
      </trkpt>
      <trkpt lat="41.04662" lon="0.81466">
        <ele>482.4</ele>
        <time>2022-05-24 12:11:29</time>
      </trkpt>
      <trkpt lat="41.04663" lon="0.81463">
        <ele>482.6</ele>
        <time>2022-05-24 12:11:30</time>
      </trkpt>
      <trkpt lat="41.04665" lon="0.81462">
        <ele>482.8</ele>
        <time>2022-05-24 12:11:31</time>
      </trkpt>
      <trkpt lat="41.04666" lon="0.81461">
        <ele>483</ele>
        <time>2022-05-24 12:11:32</time>
      </trkpt>
      <trkpt lat="41.04668" lon="0.81459">
        <ele>483</ele>
        <time>2022-05-24 12:11:33</time>
      </trkpt>
      <trkpt lat="41.04669" lon="0.81458">
        <ele>483.2</ele>
        <time>2022-05-24 12:11:34</time>
      </trkpt>
      <trkpt lat="41.04671" lon="0.81456">
        <ele>483.4</ele>
        <time>2022-05-24 12:11:35</time>
      </trkpt>
      <trkpt lat="41.04673" lon="0.81455">
        <ele>483.6</ele>
        <time>2022-05-24 12:11:36</time>
      </trkpt>
      <trkpt lat="41.04676" lon="0.81453">
        <ele>483.6</ele>
        <time>2022-05-24 12:11:37</time>
      </trkpt>
      <trkpt lat="41.04678" lon="0.81453">
        <ele>483.8</ele>
        <time>2022-05-24 12:11:38</time>
      </trkpt>
      <trkpt lat="41.0468" lon="0.81451">
        <ele>484</ele>
        <time>2022-05-24 12:11:39</time>
      </trkpt>
      <trkpt lat="41.04681" lon="0.8145">
        <ele>484.2</ele>
        <time>2022-05-24 12:11:40</time>
      </trkpt>
      <trkpt lat="41.04683" lon="0.81448">
        <ele>484.4</ele>
        <time>2022-05-24 12:11:41</time>
      </trkpt>
      <trkpt lat="41.04684" lon="0.81447">
        <ele>484.4</ele>
        <time>2022-05-24 12:11:42</time>
      </trkpt>
      <trkpt lat="41.04686" lon="0.81446">
        <ele>484.6</ele>
        <time>2022-05-24 12:11:43</time>
      </trkpt>
      <trkpt lat="41.04687" lon="0.81444">
        <ele>484.8</ele>
        <time>2022-05-24 12:11:44</time>
      </trkpt>
      <trkpt lat="41.04689" lon="0.81443">
        <ele>485</ele>
        <time>2022-05-24 12:11:45</time>
      </trkpt>
      <trkpt lat="41.04691" lon="0.81442">
        <ele>485.2</ele>
        <time>2022-05-24 12:11:46</time>
      </trkpt>
      <trkpt lat="41.04692" lon="0.81441">
        <ele>485.4</ele>
        <time>2022-05-24 12:11:47</time>
      </trkpt>
      <trkpt lat="41.04693" lon="0.81439">
        <ele>485.6</ele>
        <time>2022-05-24 12:11:48</time>
      </trkpt>
      <trkpt lat="41.04695" lon="0.81438">
        <ele>485.8</ele>
        <time>2022-05-24 12:11:49</time>
      </trkpt>
      <trkpt lat="41.04697" lon="0.81436">
        <ele>486</ele>
        <time>2022-05-24 12:11:50</time>
      </trkpt>
      <trkpt lat="41.04699" lon="0.81434">
        <ele>486.2</ele>
        <time>2022-05-24 12:11:51</time>
      </trkpt>
      <trkpt lat="41.047" lon="0.81433">
        <ele>486.4</ele>
        <time>2022-05-24 12:11:52</time>
      </trkpt>
      <trkpt lat="41.04702" lon="0.81431">
        <ele>486.6</ele>
        <time>2022-05-24 12:11:53</time>
      </trkpt>
      <trkpt lat="41.04704" lon="0.81429">
        <ele>486.8</ele>
        <time>2022-05-24 12:11:54</time>
      </trkpt>
      <trkpt lat="41.04705" lon="0.81428">
        <ele>487</ele>
        <time>2022-05-24 12:11:55</time>
      </trkpt>
      <trkpt lat="41.04707" lon="0.81426">
        <ele>487.2</ele>
        <time>2022-05-24 12:11:56</time>
      </trkpt>
      <trkpt lat="41.04708" lon="0.81425">
        <ele>487.4</ele>
        <time>2022-05-24 12:11:57</time>
      </trkpt>
      <trkpt lat="41.0471" lon="0.81423">
        <ele>487.6</ele>
        <time>2022-05-24 12:11:58</time>
      </trkpt>
      <trkpt lat="41.04712" lon="0.81421">
        <ele>487.8</ele>
        <time>2022-05-24 12:11:59</time>
      </trkpt>
      <trkpt lat="41.04714" lon="0.8142">
        <ele>488</ele>
        <time>2022-05-24 12:12:00</time>
      </trkpt>
      <trkpt lat="41.04715" lon="0.81417">
        <ele>488.2</ele>
        <time>2022-05-24 12:12:01</time>
      </trkpt>
      <trkpt lat="41.04716" lon="0.81415">
        <ele>488.4</ele>
        <time>2022-05-24 12:12:02</time>
      </trkpt>
      <trkpt lat="41.04717" lon="0.81412">
        <ele>488.6</ele>
        <time>2022-05-24 12:12:03</time>
      </trkpt>
      <trkpt lat="41.04718" lon="0.8141">
        <ele>488.8</ele>
        <time>2022-05-24 12:12:04</time>
      </trkpt>
      <trkpt lat="41.04718" lon="0.81408">
        <ele>489</ele>
        <time>2022-05-24 12:12:05</time>
      </trkpt>
      <trkpt lat="41.04719" lon="0.81405">
        <ele>489.2</ele>
        <time>2022-05-24 12:12:06</time>
      </trkpt>
      <trkpt lat="41.04719" lon="0.81403">
        <ele>489.4</ele>
        <time>2022-05-24 12:12:07</time>
      </trkpt>
      <trkpt lat="41.0472" lon="0.81401">
        <ele>489.6</ele>
        <time>2022-05-24 12:12:08</time>
      </trkpt>
      <trkpt lat="41.0472" lon="0.81398">
        <ele>489.6</ele>
        <time>2022-05-24 12:12:09</time>
      </trkpt>
      <trkpt lat="41.0472" lon="0.81396">
        <ele>489.8</ele>
        <time>2022-05-24 12:12:10</time>
      </trkpt>
      <trkpt lat="41.0472" lon="0.81392">
        <ele>490</ele>
        <time>2022-05-24 12:12:11</time>
      </trkpt>
      <trkpt lat="41.04721" lon="0.81389">
        <ele>490.2</ele>
        <time>2022-05-24 12:12:12</time>
      </trkpt>
      <trkpt lat="41.04721" lon="0.81386">
        <ele>490.4</ele>
        <time>2022-05-24 12:12:13</time>
      </trkpt>
      <trkpt lat="41.04721" lon="0.81382">
        <ele>490.6</ele>
        <time>2022-05-24 12:12:14</time>
      </trkpt>
      <trkpt lat="41.04721" lon="0.81379">
        <ele>490.8</ele>
        <time>2022-05-24 12:12:15</time>
      </trkpt>
      <trkpt lat="41.04721" lon="0.81377">
        <ele>491</ele>
        <time>2022-05-24 12:12:16</time>
      </trkpt>
      <trkpt lat="41.04721" lon="0.81374">
        <ele>491</ele>
        <time>2022-05-24 12:12:17</time>
      </trkpt>
      <trkpt lat="41.04721" lon="0.81371">
        <ele>491.2</ele>
        <time>2022-05-24 12:12:18</time>
      </trkpt>
      <trkpt lat="41.04721" lon="0.81368">
        <ele>491.4</ele>
        <time>2022-05-24 12:12:19</time>
      </trkpt>
      <trkpt lat="41.04721" lon="0.81366">
        <ele>491.6</ele>
        <time>2022-05-24 12:12:20</time>
      </trkpt>
      <trkpt lat="41.0472" lon="0.81363">
        <ele>491.6</ele>
        <time>2022-05-24 12:12:21</time>
      </trkpt>
      <trkpt lat="41.0472" lon="0.81361">
        <ele>491.8</ele>
        <time>2022-05-24 12:12:22</time>
      </trkpt>
      <trkpt lat="41.04719" lon="0.81358">
        <ele>492</ele>
        <time>2022-05-24 12:12:23</time>
      </trkpt>
      <trkpt lat="41.04718" lon="0.81356">
        <ele>492.2</ele>
        <time>2022-05-24 12:12:24</time>
      </trkpt>
      <trkpt lat="41.04717" lon="0.81354">
        <ele>492.4</ele>
        <time>2022-05-24 12:12:25</time>
      </trkpt>
      <trkpt lat="41.04715" lon="0.81352">
        <ele>492.6</ele>
        <time>2022-05-24 12:12:26</time>
      </trkpt>
      <trkpt lat="41.04714" lon="0.8135">
        <ele>492.6</ele>
        <time>2022-05-24 12:12:27</time>
      </trkpt>
      <trkpt lat="41.04712" lon="0.81349">
        <ele>492.8</ele>
        <time>2022-05-24 12:12:28</time>
      </trkpt>
      <trkpt lat="41.0471" lon="0.81347">
        <ele>493</ele>
        <time>2022-05-24 12:12:29</time>
      </trkpt>
      <trkpt lat="41.04708" lon="0.81346">
        <ele>493</ele>
        <time>2022-05-24 12:12:30</time>
      </trkpt>
      <trkpt lat="41.04706" lon="0.81345">
        <ele>493.2</ele>
        <time>2022-05-24 12:12:31</time>
      </trkpt>
      <trkpt lat="41.04704" lon="0.81344">
        <ele>493.2</ele>
        <time>2022-05-24 12:12:32</time>
      </trkpt>
      <trkpt lat="41.04702" lon="0.81344">
        <ele>493.2</ele>
        <time>2022-05-24 12:12:33</time>
      </trkpt>
      <trkpt lat="41.047" lon="0.81343">
        <ele>493.4</ele>
        <time>2022-05-24 12:12:34</time>
      </trkpt>
      <trkpt lat="41.04697" lon="0.81343">
        <ele>493.4</ele>
        <time>2022-05-24 12:12:35</time>
      </trkpt>
      <trkpt lat="41.04695" lon="0.81342">
        <ele>493.6</ele>
        <time>2022-05-24 12:12:36</time>
      </trkpt>
      <trkpt lat="41.04693" lon="0.81342">
        <ele>493.8</ele>
        <time>2022-05-24 12:12:37</time>
      </trkpt>
      <trkpt lat="41.04691" lon="0.81342">
        <ele>494</ele>
        <time>2022-05-24 12:12:38</time>
      </trkpt>
      <trkpt lat="41.04689" lon="0.81341">
        <ele>494.2</ele>
        <time>2022-05-24 12:12:39</time>
      </trkpt>
      <trkpt lat="41.04687" lon="0.81341">
        <ele>494.4</ele>
        <time>2022-05-24 12:12:40</time>
      </trkpt>
      <trkpt lat="41.04685" lon="0.8134">
        <ele>494.4</ele>
        <time>2022-05-24 12:12:41</time>
      </trkpt>
      <trkpt lat="41.04683" lon="0.8134">
        <ele>494.8</ele>
        <time>2022-05-24 12:12:42</time>
      </trkpt>
      <trkpt lat="41.04681" lon="0.81339">
        <ele>495</ele>
        <time>2022-05-24 12:12:43</time>
      </trkpt>
      <trkpt lat="41.04679" lon="0.81339">
        <ele>495.2</ele>
        <time>2022-05-24 12:12:44</time>
      </trkpt>
      <trkpt lat="41.04677" lon="0.81339">
        <ele>495.4</ele>
        <time>2022-05-24 12:12:45</time>
      </trkpt>
      <trkpt lat="41.04675" lon="0.81338">
        <ele>495.6</ele>
        <time>2022-05-24 12:12:46</time>
      </trkpt>
      <trkpt lat="41.04673" lon="0.81338">
        <ele>495.8</ele>
        <time>2022-05-24 12:12:47</time>
      </trkpt>
      <trkpt lat="41.04671" lon="0.81338">
        <ele>496</ele>
        <time>2022-05-24 12:12:48</time>
      </trkpt>
      <trkpt lat="41.04669" lon="0.81337">
        <ele>496.4</ele>
        <time>2022-05-24 12:12:49</time>
      </trkpt>
      <trkpt lat="41.04667" lon="0.81336">
        <ele>496.6</ele>
        <time>2022-05-24 12:12:50</time>
      </trkpt>
      <trkpt lat="41.04665" lon="0.81336">
        <ele>496.8</ele>
        <time>2022-05-24 12:12:51</time>
      </trkpt>
      <trkpt lat="41.04663" lon="0.81335">
        <ele>497</ele>
        <time>2022-05-24 12:12:52</time>
      </trkpt>
      <trkpt lat="41.04661" lon="0.81335">
        <ele>497.2</ele>
        <time>2022-05-24 12:12:53</time>
      </trkpt>
      <trkpt lat="41.04659" lon="0.81334">
        <ele>497.4</ele>
        <time>2022-05-24 12:12:54</time>
      </trkpt>
      <trkpt lat="41.04657" lon="0.81332">
        <ele>497.6</ele>
        <time>2022-05-24 12:12:55</time>
      </trkpt>
      <trkpt lat="41.04655" lon="0.81331">
        <ele>497.8</ele>
        <time>2022-05-24 12:12:56</time>
      </trkpt>
      <trkpt lat="41.04652" lon="0.8133">
        <ele>498</ele>
        <time>2022-05-24 12:12:57</time>
      </trkpt>
      <trkpt lat="41.04651" lon="0.81329">
        <ele>498.2</ele>
        <time>2022-05-24 12:12:58</time>
      </trkpt>
      <trkpt lat="41.04648" lon="0.81327">
        <ele>498.2</ele>
        <time>2022-05-24 12:12:59</time>
      </trkpt>
      <trkpt lat="41.04646" lon="0.81326">
        <ele>498.4</ele>
        <time>2022-05-24 12:13:00</time>
      </trkpt>
      <trkpt lat="41.04643" lon="0.81325">
        <ele>498.6</ele>
        <time>2022-05-24 12:13:01</time>
      </trkpt>
      <trkpt lat="41.04641" lon="0.81323">
        <ele>498.6</ele>
        <time>2022-05-24 12:13:02</time>
      </trkpt>
      <trkpt lat="41.0464" lon="0.81321">
        <ele>498.8</ele>
        <time>2022-05-24 12:13:03</time>
      </trkpt>
      <trkpt lat="41.04638" lon="0.81319">
        <ele>498.8</ele>
        <time>2022-05-24 12:13:04</time>
      </trkpt>
      <trkpt lat="41.04635" lon="0.81317">
        <ele>499</ele>
        <time>2022-05-24 12:13:05</time>
      </trkpt>
      <trkpt lat="41.04633" lon="0.81316">
        <ele>499</ele>
        <time>2022-05-24 12:13:06</time>
      </trkpt>
      <trkpt lat="41.0463" lon="0.81313">
        <ele>499.2</ele>
        <time>2022-05-24 12:13:07</time>
      </trkpt>
      <trkpt lat="41.04628" lon="0.81311">
        <ele>499.2</ele>
        <time>2022-05-24 12:13:08</time>
      </trkpt>
      <trkpt lat="41.04626" lon="0.81309">
        <ele>499.4</ele>
        <time>2022-05-24 12:13:09</time>
      </trkpt>
      <trkpt lat="41.04624" lon="0.81308">
        <ele>499.6</ele>
        <time>2022-05-24 12:13:10</time>
      </trkpt>
      <trkpt lat="41.04622" lon="0.81304">
        <ele>499.6</ele>
        <time>2022-05-24 12:13:11</time>
      </trkpt>
      <trkpt lat="41.0462" lon="0.81302">
        <ele>499.8</ele>
        <time>2022-05-24 12:13:12</time>
      </trkpt>
      <trkpt lat="41.04618" lon="0.81299">
        <ele>499.8</ele>
        <time>2022-05-24 12:13:13</time>
      </trkpt>
      <trkpt lat="41.04616" lon="0.81297">
        <ele>500</ele>
        <time>2022-05-24 12:13:14</time>
      </trkpt>
      <trkpt lat="41.04615" lon="0.81294">
        <ele>500.2</ele>
        <time>2022-05-24 12:13:15</time>
      </trkpt>
      <trkpt lat="41.04613" lon="0.81291">
        <ele>500.4</ele>
        <time>2022-05-24 12:13:16</time>
      </trkpt>
      <trkpt lat="41.04611" lon="0.81289">
        <ele>500.4</ele>
        <time>2022-05-24 12:13:17</time>
      </trkpt>
      <trkpt lat="41.0461" lon="0.81287">
        <ele>500.6</ele>
        <time>2022-05-24 12:13:18</time>
      </trkpt>
      <trkpt lat="41.04608" lon="0.81284">
        <ele>500.8</ele>
        <time>2022-05-24 12:13:19</time>
      </trkpt>
      <trkpt lat="41.04607" lon="0.81281">
        <ele>500.8</ele>
        <time>2022-05-24 12:13:20</time>
      </trkpt>
      <trkpt lat="41.04605" lon="0.81279">
        <ele>501</ele>
        <time>2022-05-24 12:13:21</time>
      </trkpt>
      <trkpt lat="41.04604" lon="0.81276">
        <ele>501.2</ele>
        <time>2022-05-24 12:13:22</time>
      </trkpt>
      <trkpt lat="41.046" lon="0.81274">
        <ele>501.4</ele>
        <time>2022-05-24 12:13:23</time>
      </trkpt>
      <trkpt lat="41.04598" lon="0.81271">
        <ele>501.6</ele>
        <time>2022-05-24 12:13:24</time>
      </trkpt>
      <trkpt lat="41.04596" lon="0.81269">
        <ele>501.8</ele>
        <time>2022-05-24 12:13:25</time>
      </trkpt>
      <trkpt lat="41.04595" lon="0.81267">
        <ele>501.8</ele>
        <time>2022-05-24 12:13:26</time>
      </trkpt>
      <trkpt lat="41.04592" lon="0.81264">
        <ele>502.2</ele>
        <time>2022-05-24 12:13:27</time>
      </trkpt>
      <trkpt lat="41.04591" lon="0.81261">
        <ele>502.2</ele>
        <time>2022-05-24 12:13:28</time>
      </trkpt>
      <trkpt lat="41.04589" lon="0.81259">
        <ele>502.4</ele>
        <time>2022-05-24 12:13:29</time>
      </trkpt>
      <trkpt lat="41.04588" lon="0.81257">
        <ele>502.6</ele>
        <time>2022-05-24 12:13:30</time>
      </trkpt>
      <trkpt lat="41.04586" lon="0.81253">
        <ele>502.8</ele>
        <time>2022-05-24 12:13:31</time>
      </trkpt>
      <trkpt lat="41.04584" lon="0.81251">
        <ele>503</ele>
        <time>2022-05-24 12:13:32</time>
      </trkpt>
      <trkpt lat="41.04582" lon="0.81248">
        <ele>503.2</ele>
        <time>2022-05-24 12:13:33</time>
      </trkpt>
      <trkpt lat="41.04581" lon="0.81247">
        <ele>503.4</ele>
        <time>2022-05-24 12:13:34</time>
      </trkpt>
      <trkpt lat="41.04578" lon="0.81244">
        <ele>503.6</ele>
        <time>2022-05-24 12:13:35</time>
      </trkpt>
      <trkpt lat="41.04577" lon="0.81242">
        <ele>503.6</ele>
        <time>2022-05-24 12:13:36</time>
      </trkpt>
      <trkpt lat="41.04575" lon="0.81239">
        <ele>503.8</ele>
        <time>2022-05-24 12:13:37</time>
      </trkpt>
      <trkpt lat="41.04574" lon="0.81237">
        <ele>504</ele>
        <time>2022-05-24 12:13:38</time>
      </trkpt>
      <trkpt lat="41.04572" lon="0.81234">
        <ele>504.2</ele>
        <time>2022-05-24 12:13:39</time>
      </trkpt>
      <trkpt lat="41.04571" lon="0.81231">
        <ele>504.4</ele>
        <time>2022-05-24 12:13:40</time>
      </trkpt>
      <trkpt lat="41.0457" lon="0.81228">
        <ele>504.6</ele>
        <time>2022-05-24 12:13:41</time>
      </trkpt>
      <trkpt lat="41.04569" lon="0.81227">
        <ele>504.6</ele>
        <time>2022-05-24 12:13:42</time>
      </trkpt>
      <trkpt lat="41.04567" lon="0.81224">
        <ele>504.8</ele>
        <time>2022-05-24 12:13:43</time>
      </trkpt>
      <trkpt lat="41.04566" lon="0.81223">
        <ele>505</ele>
        <time>2022-05-24 12:13:44</time>
      </trkpt>
      <trkpt lat="41.04565" lon="0.81221">
        <ele>505.2</ele>
        <time>2022-05-24 12:13:45</time>
      </trkpt>
      <trkpt lat="41.04565" lon="0.81218">
        <ele>505.4</ele>
        <time>2022-05-24 12:13:46</time>
      </trkpt>
      <trkpt lat="41.04564" lon="0.81217">
        <ele>505.6</ele>
        <time>2022-05-24 12:13:47</time>
      </trkpt>
      <trkpt lat="41.04565" lon="0.81214">
        <ele>505.6</ele>
        <time>2022-05-24 12:13:48</time>
      </trkpt>
      <trkpt lat="41.04565" lon="0.81211">
        <ele>505.8</ele>
        <time>2022-05-24 12:13:49</time>
      </trkpt>
      <trkpt lat="41.04565" lon="0.81208">
        <ele>506</ele>
        <time>2022-05-24 12:13:50</time>
      </trkpt>
      <trkpt lat="41.04564" lon="0.81206">
        <ele>506.2</ele>
        <time>2022-05-24 12:13:51</time>
      </trkpt>
      <trkpt lat="41.04564" lon="0.81203">
        <ele>506.4</ele>
        <time>2022-05-24 12:13:52</time>
      </trkpt>
      <trkpt lat="41.04563" lon="0.812">
        <ele>506.6</ele>
        <time>2022-05-24 12:13:53</time>
      </trkpt>
      <trkpt lat="41.04563" lon="0.81198">
        <ele>506.6</ele>
        <time>2022-05-24 12:13:54</time>
      </trkpt>
      <trkpt lat="41.04562" lon="0.81196">
        <ele>506.8</ele>
        <time>2022-05-24 12:13:55</time>
      </trkpt>
      <trkpt lat="41.04561" lon="0.81194">
        <ele>507</ele>
        <time>2022-05-24 12:13:56</time>
      </trkpt>
      <trkpt lat="41.0456" lon="0.81192">
        <ele>507</ele>
        <time>2022-05-24 12:13:57</time>
      </trkpt>
      <trkpt lat="41.04559" lon="0.81189">
        <ele>507.2</ele>
        <time>2022-05-24 12:13:58</time>
      </trkpt>
      <trkpt lat="41.04558" lon="0.81186">
        <ele>507.4</ele>
        <time>2022-05-24 12:13:59</time>
      </trkpt>
      <trkpt lat="41.04557" lon="0.81183">
        <ele>507.6</ele>
        <time>2022-05-24 12:14:00</time>
      </trkpt>
      <trkpt lat="41.04556" lon="0.8118">
        <ele>507.8</ele>
        <time>2022-05-24 12:14:01</time>
      </trkpt>
      <trkpt lat="41.04555" lon="0.81179">
        <ele>507.8</ele>
        <time>2022-05-24 12:14:02</time>
      </trkpt>
      <trkpt lat="41.04554" lon="0.81176">
        <ele>508</ele>
        <time>2022-05-24 12:14:03</time>
      </trkpt>
      <trkpt lat="41.04552" lon="0.81174">
        <ele>508.2</ele>
        <time>2022-05-24 12:14:04</time>
      </trkpt>
      <trkpt lat="41.04551" lon="0.81172">
        <ele>508.4</ele>
        <time>2022-05-24 12:14:05</time>
      </trkpt>
      <trkpt lat="41.0455" lon="0.81171">
        <ele>508.6</ele>
        <time>2022-05-24 12:14:06</time>
      </trkpt>
      <trkpt lat="41.04549" lon="0.81168">
        <ele>508.8</ele>
        <time>2022-05-24 12:14:07</time>
      </trkpt>
      <trkpt lat="41.04548" lon="0.81166">
        <ele>509</ele>
        <time>2022-05-24 12:14:08</time>
      </trkpt>
      <trkpt lat="41.04548" lon="0.81163">
        <ele>509</ele>
        <time>2022-05-24 12:14:09</time>
      </trkpt>
      <trkpt lat="41.04546" lon="0.81161">
        <ele>509.2</ele>
        <time>2022-05-24 12:14:10</time>
      </trkpt>
      <trkpt lat="41.04546" lon="0.81159">
        <ele>509.4</ele>
        <time>2022-05-24 12:14:11</time>
      </trkpt>
      <trkpt lat="41.04545" lon="0.81157">
        <ele>509.6</ele>
        <time>2022-05-24 12:14:12</time>
      </trkpt>
      <trkpt lat="41.04544" lon="0.81154">
        <ele>510</ele>
        <time>2022-05-24 12:14:13</time>
      </trkpt>
      <trkpt lat="41.04544" lon="0.81151">
        <ele>510.2</ele>
        <time>2022-05-24 12:14:14</time>
      </trkpt>
      <trkpt lat="41.04544" lon="0.81148">
        <ele>510.4</ele>
        <time>2022-05-24 12:14:15</time>
      </trkpt>
      <trkpt lat="41.04545" lon="0.81146">
        <ele>510.6</ele>
        <time>2022-05-24 12:14:16</time>
      </trkpt>
      <trkpt lat="41.04545" lon="0.81144">
        <ele>510.8</ele>
        <time>2022-05-24 12:14:17</time>
      </trkpt>
      <trkpt lat="41.04546" lon="0.81141">
        <ele>510.8</ele>
        <time>2022-05-24 12:14:18</time>
      </trkpt>
      <trkpt lat="41.04547" lon="0.81138">
        <ele>511</ele>
        <time>2022-05-24 12:14:19</time>
      </trkpt>
      <trkpt lat="41.04548" lon="0.81135">
        <ele>511.2</ele>
        <time>2022-05-24 12:14:20</time>
      </trkpt>
      <trkpt lat="41.04549" lon="0.81133">
        <ele>511.4</ele>
        <time>2022-05-24 12:14:21</time>
      </trkpt>
      <trkpt lat="41.04551" lon="0.81132">
        <ele>511.6</ele>
        <time>2022-05-24 12:14:22</time>
      </trkpt>
      <trkpt lat="41.04552" lon="0.81129">
        <ele>511.6</ele>
        <time>2022-05-24 12:14:23</time>
      </trkpt>
      <trkpt lat="41.04554" lon="0.81127">
        <ele>511.8</ele>
        <time>2022-05-24 12:14:24</time>
      </trkpt>
      <trkpt lat="41.04555" lon="0.81125">
        <ele>512</ele>
        <time>2022-05-24 12:14:25</time>
      </trkpt>
      <trkpt lat="41.04556" lon="0.81123">
        <ele>512.2</ele>
        <time>2022-05-24 12:14:26</time>
      </trkpt>
      <trkpt lat="41.04557" lon="0.81121">
        <ele>512.4</ele>
        <time>2022-05-24 12:14:27</time>
      </trkpt>
      <trkpt lat="41.04558" lon="0.81118">
        <ele>512.6</ele>
        <time>2022-05-24 12:14:28</time>
      </trkpt>
      <trkpt lat="41.04559" lon="0.81116">
        <ele>512.8</ele>
        <time>2022-05-24 12:14:29</time>
      </trkpt>
      <trkpt lat="41.0456" lon="0.81115">
        <ele>512.8</ele>
        <time>2022-05-24 12:14:30</time>
      </trkpt>
      <trkpt lat="41.0456" lon="0.81112">
        <ele>513</ele>
        <time>2022-05-24 12:14:31</time>
      </trkpt>
      <trkpt lat="41.04561" lon="0.8111">
        <ele>513.2</ele>
        <time>2022-05-24 12:14:32</time>
      </trkpt>
      <trkpt lat="41.04561" lon="0.81107">
        <ele>513.4</ele>
        <time>2022-05-24 12:14:33</time>
      </trkpt>
      <trkpt lat="41.04562" lon="0.81104">
        <ele>513.6</ele>
        <time>2022-05-24 12:14:34</time>
      </trkpt>
      <trkpt lat="41.04562" lon="0.81102">
        <ele>513.8</ele>
        <time>2022-05-24 12:14:35</time>
      </trkpt>
      <trkpt lat="41.04562" lon="0.81099">
        <ele>514</ele>
        <time>2022-05-24 12:14:36</time>
      </trkpt>
      <trkpt lat="41.04562" lon="0.81097">
        <ele>514</ele>
        <time>2022-05-24 12:14:37</time>
      </trkpt>
      <trkpt lat="41.04562" lon="0.81094">
        <ele>514.2</ele>
        <time>2022-05-24 12:14:38</time>
      </trkpt>
      <trkpt lat="41.04562" lon="0.81091">
        <ele>514.6</ele>
        <time>2022-05-24 12:14:39</time>
      </trkpt>
      <trkpt lat="41.04562" lon="0.81089">
        <ele>514.8</ele>
        <time>2022-05-24 12:14:40</time>
      </trkpt>
      <trkpt lat="41.04562" lon="0.81086">
        <ele>515</ele>
        <time>2022-05-24 12:14:41</time>
      </trkpt>
      <trkpt lat="41.04562" lon="0.81084">
        <ele>515.2</ele>
        <time>2022-05-24 12:14:42</time>
      </trkpt>
      <trkpt lat="41.04562" lon="0.81081">
        <ele>515.2</ele>
        <time>2022-05-24 12:14:43</time>
      </trkpt>
      <trkpt lat="41.04562" lon="0.81079">
        <ele>515.4</ele>
        <time>2022-05-24 12:14:44</time>
      </trkpt>
      <trkpt lat="41.04562" lon="0.81076">
        <ele>515.6</ele>
        <time>2022-05-24 12:14:45</time>
      </trkpt>
      <trkpt lat="41.04561" lon="0.81073">
        <ele>515.6</ele>
        <time>2022-05-24 12:14:46</time>
      </trkpt>
      <trkpt lat="41.04561" lon="0.81071">
        <ele>515.6</ele>
        <time>2022-05-24 12:14:47</time>
      </trkpt>
      <trkpt lat="41.0456" lon="0.81068">
        <ele>515.8</ele>
        <time>2022-05-24 12:14:48</time>
      </trkpt>
      <trkpt lat="41.04559" lon="0.81065">
        <ele>516</ele>
        <time>2022-05-24 12:14:49</time>
      </trkpt>
      <trkpt lat="41.04559" lon="0.81063">
        <ele>516</ele>
        <time>2022-05-24 12:14:50</time>
      </trkpt>
      <trkpt lat="41.04558" lon="0.8106">
        <ele>516.2</ele>
        <time>2022-05-24 12:14:51</time>
      </trkpt>
      <trkpt lat="41.04557" lon="0.81058">
        <ele>516.4</ele>
        <time>2022-05-24 12:14:52</time>
      </trkpt>
      <trkpt lat="41.04556" lon="0.81056">
        <ele>516.4</ele>
        <time>2022-05-24 12:14:53</time>
      </trkpt>
      <trkpt lat="41.04554" lon="0.81054">
        <ele>516.6</ele>
        <time>2022-05-24 12:14:54</time>
      </trkpt>
      <trkpt lat="41.04553" lon="0.81052">
        <ele>516.8</ele>
        <time>2022-05-24 12:14:55</time>
      </trkpt>
      <trkpt lat="41.04552" lon="0.8105">
        <ele>517</ele>
        <time>2022-05-24 12:14:56</time>
      </trkpt>
      <trkpt lat="41.04551" lon="0.81049">
        <ele>517.2</ele>
        <time>2022-05-24 12:14:57</time>
      </trkpt>
      <trkpt lat="41.04549" lon="0.81047">
        <ele>517.4</ele>
        <time>2022-05-24 12:14:58</time>
      </trkpt>
      <trkpt lat="41.04547" lon="0.81046">
        <ele>517.4</ele>
        <time>2022-05-24 12:14:59</time>
      </trkpt>
      <trkpt lat="41.04546" lon="0.81046">
        <ele>517.6</ele>
        <time>2022-05-24 12:15:00</time>
      </trkpt>
      <trkpt lat="41.04544" lon="0.81045">
        <ele>517.8</ele>
        <time>2022-05-24 12:15:01</time>
      </trkpt>
      <trkpt lat="41.04543" lon="0.81044">
        <ele>518</ele>
        <time>2022-05-24 12:15:02</time>
      </trkpt>
      <trkpt lat="41.04541" lon="0.81043">
        <ele>518.2</ele>
        <time>2022-05-24 12:15:03</time>
      </trkpt>
      <trkpt lat="41.04539" lon="0.81042">
        <ele>518.4</ele>
        <time>2022-05-24 12:15:04</time>
      </trkpt>
      <trkpt lat="41.04537" lon="0.81041">
        <ele>518.6</ele>
        <time>2022-05-24 12:15:05</time>
      </trkpt>
      <trkpt lat="41.04536" lon="0.8104">
        <ele>518.8</ele>
        <time>2022-05-24 12:15:06</time>
      </trkpt>
      <trkpt lat="41.04533" lon="0.8104">
        <ele>518.8</ele>
        <time>2022-05-24 12:15:07</time>
      </trkpt>
      <trkpt lat="41.04532" lon="0.8104">
        <ele>519</ele>
        <time>2022-05-24 12:15:08</time>
      </trkpt>
      <trkpt lat="41.0453" lon="0.81039">
        <ele>519.2</ele>
        <time>2022-05-24 12:15:09</time>
      </trkpt>
      <trkpt lat="41.04528" lon="0.81038">
        <ele>519.4</ele>
        <time>2022-05-24 12:15:10</time>
      </trkpt>
      <trkpt lat="41.04527" lon="0.81036">
        <ele>519.6</ele>
        <time>2022-05-24 12:15:11</time>
      </trkpt>
      <trkpt lat="41.04525" lon="0.81034">
        <ele>519.8</ele>
        <time>2022-05-24 12:15:12</time>
      </trkpt>
      <trkpt lat="41.04524" lon="0.81033">
        <ele>519.8</ele>
        <time>2022-05-24 12:15:13</time>
      </trkpt>
      <trkpt lat="41.04522" lon="0.8103">
        <ele>520</ele>
        <time>2022-05-24 12:15:14</time>
      </trkpt>
      <trkpt lat="41.04521" lon="0.81028">
        <ele>520</ele>
        <time>2022-05-24 12:15:15</time>
      </trkpt>
      <trkpt lat="41.0452" lon="0.81026">
        <ele>520.2</ele>
        <time>2022-05-24 12:15:16</time>
      </trkpt>
      <trkpt lat="41.04519" lon="0.81024">
        <ele>520.2</ele>
        <time>2022-05-24 12:15:17</time>
      </trkpt>
      <trkpt lat="41.04517" lon="0.81023">
        <ele>520.4</ele>
        <time>2022-05-24 12:15:18</time>
      </trkpt>
      <trkpt lat="41.04515" lon="0.8102">
        <ele>520.4</ele>
        <time>2022-05-24 12:15:19</time>
      </trkpt>
      <trkpt lat="41.04514" lon="0.81018">
        <ele>520.6</ele>
        <time>2022-05-24 12:15:20</time>
      </trkpt>
      <trkpt lat="41.04513" lon="0.81016">
        <ele>520.8</ele>
        <time>2022-05-24 12:15:21</time>
      </trkpt>
      <trkpt lat="41.04512" lon="0.81014">
        <ele>520.8</ele>
        <time>2022-05-24 12:15:22</time>
      </trkpt>
      <trkpt lat="41.04511" lon="0.81013">
        <ele>521</ele>
        <time>2022-05-24 12:15:23</time>
      </trkpt>
      <trkpt lat="41.04509" lon="0.81011">
        <ele>521.2</ele>
        <time>2022-05-24 12:15:24</time>
      </trkpt>
      <trkpt lat="41.04508" lon="0.81009">
        <ele>521.4</ele>
        <time>2022-05-24 12:15:25</time>
      </trkpt>
      <trkpt lat="41.04507" lon="0.81008">
        <ele>521.4</ele>
        <time>2022-05-24 12:15:26</time>
      </trkpt>
      <trkpt lat="41.04505" lon="0.81006">
        <ele>521.6</ele>
        <time>2022-05-24 12:15:27</time>
      </trkpt>
      <trkpt lat="41.04504" lon="0.81004">
        <ele>521.8</ele>
        <time>2022-05-24 12:15:28</time>
      </trkpt>
      <trkpt lat="41.04503" lon="0.81003">
        <ele>522</ele>
        <time>2022-05-24 12:15:29</time>
      </trkpt>
      <trkpt lat="41.04502" lon="0.81001">
        <ele>522</ele>
        <time>2022-05-24 12:15:30</time>
      </trkpt>
      <trkpt lat="41.04501" lon="0.81">
        <ele>522.2</ele>
        <time>2022-05-24 12:15:31</time>
      </trkpt>
      <trkpt lat="41.04499" lon="0.80998">
        <ele>522.4</ele>
        <time>2022-05-24 12:15:32</time>
      </trkpt>
      <trkpt lat="41.04497" lon="0.80997">
        <ele>522.6</ele>
        <time>2022-05-24 12:15:33</time>
      </trkpt>
      <trkpt lat="41.04496" lon="0.80995">
        <ele>522.6</ele>
        <time>2022-05-24 12:15:34</time>
      </trkpt>
      <trkpt lat="41.04494" lon="0.80993">
        <ele>522.8</ele>
        <time>2022-05-24 12:15:35</time>
      </trkpt>
      <trkpt lat="41.04494" lon="0.80991">
        <ele>523</ele>
        <time>2022-05-24 12:15:36</time>
      </trkpt>
      <trkpt lat="41.04493" lon="0.80989">
        <ele>523.2</ele>
        <time>2022-05-24 12:15:37</time>
      </trkpt>
      <trkpt lat="41.04491" lon="0.80987">
        <ele>523.2</ele>
        <time>2022-05-24 12:15:38</time>
      </trkpt>
      <trkpt lat="41.04491" lon="0.80985">
        <ele>523.4</ele>
        <time>2022-05-24 12:15:39</time>
      </trkpt>
      <trkpt lat="41.0449" lon="0.80982">
        <ele>523.6</ele>
        <time>2022-05-24 12:15:40</time>
      </trkpt>
      <trkpt lat="41.04488" lon="0.8098">
        <ele>523.6</ele>
        <time>2022-05-24 12:15:41</time>
      </trkpt>
      <trkpt lat="41.04487" lon="0.80978">
        <ele>523.8</ele>
        <time>2022-05-24 12:15:42</time>
      </trkpt>
      <trkpt lat="41.04486" lon="0.80976">
        <ele>523.8</ele>
        <time>2022-05-24 12:15:43</time>
      </trkpt>
      <trkpt lat="41.04485" lon="0.80974">
        <ele>524</ele>
        <time>2022-05-24 12:15:44</time>
      </trkpt>
      <trkpt lat="41.04483" lon="0.80972">
        <ele>524.2</ele>
        <time>2022-05-24 12:15:45</time>
      </trkpt>
      <trkpt lat="41.04481" lon="0.8097">
        <ele>524.4</ele>
        <time>2022-05-24 12:15:46</time>
      </trkpt>
      <trkpt lat="41.0448" lon="0.80968">
        <ele>524.4</ele>
        <time>2022-05-24 12:15:47</time>
      </trkpt>
      <trkpt lat="41.0448" lon="0.80966">
        <ele>524.6</ele>
        <time>2022-05-24 12:15:48</time>
      </trkpt>
      <trkpt lat="41.04479" lon="0.80964">
        <ele>524.8</ele>
        <time>2022-05-24 12:15:49</time>
      </trkpt>
      <trkpt lat="41.04478" lon="0.80961">
        <ele>525</ele>
        <time>2022-05-24 12:15:50</time>
      </trkpt>
      <trkpt lat="41.04477" lon="0.80959">
        <ele>525.2</ele>
        <time>2022-05-24 12:15:51</time>
      </trkpt>
      <trkpt lat="41.04475" lon="0.80956">
        <ele>525.2</ele>
        <time>2022-05-24 12:15:52</time>
      </trkpt>
      <trkpt lat="41.04474" lon="0.80955">
        <ele>525.4</ele>
        <time>2022-05-24 12:15:53</time>
      </trkpt>
      <trkpt lat="41.04473" lon="0.80954">
        <ele>525.6</ele>
        <time>2022-05-24 12:15:54</time>
      </trkpt>
      <trkpt lat="41.04471" lon="0.80951">
        <ele>525.8</ele>
        <time>2022-05-24 12:15:55</time>
      </trkpt>
      <trkpt lat="41.0447" lon="0.80949">
        <ele>525.8</ele>
        <time>2022-05-24 12:15:56</time>
      </trkpt>
      <trkpt lat="41.04469" lon="0.80947">
        <ele>526</ele>
        <time>2022-05-24 12:15:57</time>
      </trkpt>
      <trkpt lat="41.04468" lon="0.80945">
        <ele>526.2</ele>
        <time>2022-05-24 12:15:58</time>
      </trkpt>
      <trkpt lat="41.04467" lon="0.80944">
        <ele>526.4</ele>
        <time>2022-05-24 12:15:59</time>
      </trkpt>
      <trkpt lat="41.04465" lon="0.80942">
        <ele>526.6</ele>
        <time>2022-05-24 12:16:00</time>
      </trkpt>
      <trkpt lat="41.04464" lon="0.8094">
        <ele>526.6</ele>
        <time>2022-05-24 12:16:01</time>
      </trkpt>
      <trkpt lat="41.04462" lon="0.80938">
        <ele>526.8</ele>
        <time>2022-05-24 12:16:02</time>
      </trkpt>
      <trkpt lat="41.04461" lon="0.80936">
        <ele>527</ele>
        <time>2022-05-24 12:16:03</time>
      </trkpt>
      <trkpt lat="41.0446" lon="0.80934">
        <ele>527.2</ele>
        <time>2022-05-24 12:16:04</time>
      </trkpt>
      <trkpt lat="41.04459" lon="0.80932">
        <ele>527.4</ele>
        <time>2022-05-24 12:16:05</time>
      </trkpt>
      <trkpt lat="41.04458" lon="0.8093">
        <ele>527.4</ele>
        <time>2022-05-24 12:16:06</time>
      </trkpt>
      <trkpt lat="41.04457" lon="0.80927">
        <ele>527.6</ele>
        <time>2022-05-24 12:16:07</time>
      </trkpt>
      <trkpt lat="41.04456" lon="0.80925">
        <ele>527.8</ele>
        <time>2022-05-24 12:16:08</time>
      </trkpt>
      <trkpt lat="41.04455" lon="0.80924">
        <ele>528</ele>
        <time>2022-05-24 12:16:09</time>
      </trkpt>
      <trkpt lat="41.04454" lon="0.80921">
        <ele>528.2</ele>
        <time>2022-05-24 12:16:10</time>
      </trkpt>
      <trkpt lat="41.04452" lon="0.80919">
        <ele>528.4</ele>
        <time>2022-05-24 12:16:11</time>
      </trkpt>
      <trkpt lat="41.04452" lon="0.80917">
        <ele>528.6</ele>
        <time>2022-05-24 12:16:12</time>
      </trkpt>
      <trkpt lat="41.04451" lon="0.80915">
        <ele>528.6</ele>
        <time>2022-05-24 12:16:13</time>
      </trkpt>
      <trkpt lat="41.0445" lon="0.80913">
        <ele>528.8</ele>
        <time>2022-05-24 12:16:14</time>
      </trkpt>
      <trkpt lat="41.04449" lon="0.80911">
        <ele>529</ele>
        <time>2022-05-24 12:16:15</time>
      </trkpt>
      <trkpt lat="41.04448" lon="0.80908">
        <ele>529.2</ele>
        <time>2022-05-24 12:16:16</time>
      </trkpt>
      <trkpt lat="41.04448" lon="0.80905">
        <ele>529.4</ele>
        <time>2022-05-24 12:16:17</time>
      </trkpt>
      <trkpt lat="41.04447" lon="0.80903">
        <ele>529.6</ele>
        <time>2022-05-24 12:16:18</time>
      </trkpt>
      <trkpt lat="41.04446" lon="0.80901">
        <ele>529.6</ele>
        <time>2022-05-24 12:16:19</time>
      </trkpt>
      <trkpt lat="41.04445" lon="0.80898">
        <ele>529.8</ele>
        <time>2022-05-24 12:16:20</time>
      </trkpt>
      <trkpt lat="41.04444" lon="0.80896">
        <ele>530</ele>
        <time>2022-05-24 12:16:21</time>
      </trkpt>
      <trkpt lat="41.04443" lon="0.80894">
        <ele>530.2</ele>
        <time>2022-05-24 12:16:22</time>
      </trkpt>
      <trkpt lat="41.04441" lon="0.80892">
        <ele>530.4</ele>
        <time>2022-05-24 12:16:23</time>
      </trkpt>
      <trkpt lat="41.04441" lon="0.8089">
        <ele>530.4</ele>
        <time>2022-05-24 12:16:24</time>
      </trkpt>
      <trkpt lat="41.0444" lon="0.80887">
        <ele>530.6</ele>
        <time>2022-05-24 12:16:25</time>
      </trkpt>
      <trkpt lat="41.04438" lon="0.80885">
        <ele>530.8</ele>
        <time>2022-05-24 12:16:26</time>
      </trkpt>
      <trkpt lat="41.04437" lon="0.80882">
        <ele>531</ele>
        <time>2022-05-24 12:16:27</time>
      </trkpt>
      <trkpt lat="41.04436" lon="0.8088">
        <ele>531.2</ele>
        <time>2022-05-24 12:16:28</time>
      </trkpt>
      <trkpt lat="41.04436" lon="0.80878">
        <ele>531.4</ele>
        <time>2022-05-24 12:16:29</time>
      </trkpt>
      <trkpt lat="41.04435" lon="0.80875">
        <ele>531.4</ele>
        <time>2022-05-24 12:16:30</time>
      </trkpt>
      <trkpt lat="41.04435" lon="0.80872">
        <ele>531.6</ele>
        <time>2022-05-24 12:16:31</time>
      </trkpt>
      <trkpt lat="41.04434" lon="0.8087">
        <ele>531.8</ele>
        <time>2022-05-24 12:16:32</time>
      </trkpt>
      <trkpt lat="41.04434" lon="0.80868">
        <ele>532</ele>
        <time>2022-05-24 12:16:33</time>
      </trkpt>
      <trkpt lat="41.04433" lon="0.80866">
        <ele>532.2</ele>
        <time>2022-05-24 12:16:34</time>
      </trkpt>
      <trkpt lat="41.04432" lon="0.80863">
        <ele>532.2</ele>
        <time>2022-05-24 12:16:35</time>
      </trkpt>
      <trkpt lat="41.04431" lon="0.80861">
        <ele>532.4</ele>
        <time>2022-05-24 12:16:36</time>
      </trkpt>
      <trkpt lat="41.0443" lon="0.80858">
        <ele>532.4</ele>
        <time>2022-05-24 12:16:37</time>
      </trkpt>
      <trkpt lat="41.04429" lon="0.80855">
        <ele>532.6</ele>
        <time>2022-05-24 12:16:38</time>
      </trkpt>
      <trkpt lat="41.04429" lon="0.80853">
        <ele>532.8</ele>
        <time>2022-05-24 12:16:39</time>
      </trkpt>
      <trkpt lat="41.04428" lon="0.8085">
        <ele>533</ele>
        <time>2022-05-24 12:16:40</time>
      </trkpt>
      <trkpt lat="41.04427" lon="0.80848">
        <ele>533.2</ele>
        <time>2022-05-24 12:16:41</time>
      </trkpt>
      <trkpt lat="41.04427" lon="0.80845">
        <ele>533.4</ele>
        <time>2022-05-24 12:16:42</time>
      </trkpt>
      <trkpt lat="41.04425" lon="0.80843">
        <ele>533.6</ele>
        <time>2022-05-24 12:16:43</time>
      </trkpt>
      <trkpt lat="41.04425" lon="0.80841">
        <ele>533.8</ele>
        <time>2022-05-24 12:16:44</time>
      </trkpt>
      <trkpt lat="41.04424" lon="0.80838">
        <ele>534</ele>
        <time>2022-05-24 12:16:45</time>
      </trkpt>
      <trkpt lat="41.04424" lon="0.80835">
        <ele>534.2</ele>
        <time>2022-05-24 12:16:46</time>
      </trkpt>
      <trkpt lat="41.04422" lon="0.80833">
        <ele>534.2</ele>
        <time>2022-05-24 12:16:47</time>
      </trkpt>
      <trkpt lat="41.04422" lon="0.8083">
        <ele>534.4</ele>
        <time>2022-05-24 12:16:48</time>
      </trkpt>
      <trkpt lat="41.04421" lon="0.80828">
        <ele>534.6</ele>
        <time>2022-05-24 12:16:49</time>
      </trkpt>
      <trkpt lat="41.0442" lon="0.80824">
        <ele>534.8</ele>
        <time>2022-05-24 12:16:50</time>
      </trkpt>
      <trkpt lat="41.04419" lon="0.80822">
        <ele>535</ele>
        <time>2022-05-24 12:16:51</time>
      </trkpt>
      <trkpt lat="41.04418" lon="0.80819">
        <ele>535.2</ele>
        <time>2022-05-24 12:16:52</time>
      </trkpt>
      <trkpt lat="41.04417" lon="0.80817">
        <ele>535.4</ele>
        <time>2022-05-24 12:16:53</time>
      </trkpt>
      <trkpt lat="41.04416" lon="0.80814">
        <ele>535.6</ele>
        <time>2022-05-24 12:16:54</time>
      </trkpt>
      <trkpt lat="41.04416" lon="0.80811">
        <ele>535.8</ele>
        <time>2022-05-24 12:16:55</time>
      </trkpt>
      <trkpt lat="41.04415" lon="0.80809">
        <ele>536.2</ele>
        <time>2022-05-24 12:16:56</time>
      </trkpt>
      <trkpt lat="41.04414" lon="0.80806">
        <ele>536.4</ele>
        <time>2022-05-24 12:16:57</time>
      </trkpt>
      <trkpt lat="41.04413" lon="0.80804">
        <ele>536.6</ele>
        <time>2022-05-24 12:16:58</time>
      </trkpt>
      <trkpt lat="41.04413" lon="0.80802">
        <ele>536.8</ele>
        <time>2022-05-24 12:16:59</time>
      </trkpt>
      <trkpt lat="41.04412" lon="0.80798">
        <ele>537</ele>
        <time>2022-05-24 12:17:00</time>
      </trkpt>
      <trkpt lat="41.04411" lon="0.80796">
        <ele>537.2</ele>
        <time>2022-05-24 12:17:01</time>
      </trkpt>
      <trkpt lat="41.0441" lon="0.80794">
        <ele>537.4</ele>
        <time>2022-05-24 12:17:02</time>
      </trkpt>
      <trkpt lat="41.04409" lon="0.80792">
        <ele>537.6</ele>
        <time>2022-05-24 12:17:03</time>
      </trkpt>
      <trkpt lat="41.04408" lon="0.8079">
        <ele>537.8</ele>
        <time>2022-05-24 12:17:04</time>
      </trkpt>
      <trkpt lat="41.04407" lon="0.80787">
        <ele>538</ele>
        <time>2022-05-24 12:17:05</time>
      </trkpt>
      <trkpt lat="41.04406" lon="0.80784">
        <ele>538.2</ele>
        <time>2022-05-24 12:17:06</time>
      </trkpt>
      <trkpt lat="41.04405" lon="0.80781">
        <ele>538.6</ele>
        <time>2022-05-24 12:17:07</time>
      </trkpt>
      <trkpt lat="41.04405" lon="0.80778">
        <ele>538.6</ele>
        <time>2022-05-24 12:17:08</time>
      </trkpt>
      <trkpt lat="41.04405" lon="0.80776">
        <ele>538.8</ele>
        <time>2022-05-24 12:17:09</time>
      </trkpt>
      <trkpt lat="41.04404" lon="0.80772">
        <ele>539</ele>
        <time>2022-05-24 12:17:10</time>
      </trkpt>
      <trkpt lat="41.04403" lon="0.8077">
        <ele>539</ele>
        <time>2022-05-24 12:17:11</time>
      </trkpt>
      <trkpt lat="41.04403" lon="0.80767">
        <ele>539.2</ele>
        <time>2022-05-24 12:17:12</time>
      </trkpt>
      <trkpt lat="41.04403" lon="0.80764">
        <ele>539.2</ele>
        <time>2022-05-24 12:17:13</time>
      </trkpt>
      <trkpt lat="41.04403" lon="0.80759">
        <ele>539.4</ele>
        <time>2022-05-24 12:17:14</time>
      </trkpt>
      <trkpt lat="41.04403" lon="0.80756">
        <ele>539.4</ele>
        <time>2022-05-24 12:17:15</time>
      </trkpt>
      <trkpt lat="41.04403" lon="0.80752">
        <ele>539.4</ele>
        <time>2022-05-24 12:17:16</time>
      </trkpt>
      <trkpt lat="41.04403" lon="0.80748">
        <ele>539.6</ele>
        <time>2022-05-24 12:17:17</time>
      </trkpt>
      <trkpt lat="41.04403" lon="0.80744">
        <ele>539.6</ele>
        <time>2022-05-24 12:17:18</time>
      </trkpt>
      <trkpt lat="41.04404" lon="0.8074">
        <ele>539.6</ele>
        <time>2022-05-24 12:17:19</time>
      </trkpt>
      <trkpt lat="41.04404" lon="0.80735">
        <ele>539.6</ele>
        <time>2022-05-24 12:17:20</time>
      </trkpt>
      <trkpt lat="41.04403" lon="0.80732">
        <ele>539.6</ele>
        <time>2022-05-24 12:17:21</time>
      </trkpt>
      <trkpt lat="41.04403" lon="0.80727">
        <ele>539.6</ele>
        <time>2022-05-24 12:17:22</time>
      </trkpt>
      <trkpt lat="41.04403" lon="0.80723">
        <ele>539.4</ele>
        <time>2022-05-24 12:17:23</time>
      </trkpt>
      <trkpt lat="41.04403" lon="0.80718">
        <ele>539.4</ele>
        <time>2022-05-24 12:17:24</time>
      </trkpt>
      <trkpt lat="41.04403" lon="0.80713">
        <ele>539.4</ele>
        <time>2022-05-24 12:17:25</time>
      </trkpt>
      <trkpt lat="41.04403" lon="0.80708">
        <ele>539.2</ele>
        <time>2022-05-24 12:17:26</time>
      </trkpt>
      <trkpt lat="41.04404" lon="0.80703">
        <ele>539.2</ele>
        <time>2022-05-24 12:17:27</time>
      </trkpt>
      <trkpt lat="41.04404" lon="0.80699">
        <ele>539.2</ele>
        <time>2022-05-24 12:17:28</time>
      </trkpt>
      <trkpt lat="41.04406" lon="0.80693">
        <ele>539.2</ele>
        <time>2022-05-24 12:17:29</time>
      </trkpt>
      <trkpt lat="41.04408" lon="0.80688">
        <ele>539</ele>
        <time>2022-05-24 12:17:30</time>
      </trkpt>
      <trkpt lat="41.04409" lon="0.80683">
        <ele>539</ele>
        <time>2022-05-24 12:17:31</time>
      </trkpt>
      <trkpt lat="41.04411" lon="0.80678">
        <ele>539</ele>
        <time>2022-05-24 12:17:32</time>
      </trkpt>
      <trkpt lat="41.04412" lon="0.80673">
        <ele>538.8</ele>
        <time>2022-05-24 12:17:33</time>
      </trkpt>
      <trkpt lat="41.04414" lon="0.80668">
        <ele>538.8</ele>
        <time>2022-05-24 12:17:34</time>
      </trkpt>
      <trkpt lat="41.04416" lon="0.80663">
        <ele>538.8</ele>
        <time>2022-05-24 12:17:35</time>
      </trkpt>
      <trkpt lat="41.04417" lon="0.80658">
        <ele>538.8</ele>
        <time>2022-05-24 12:17:36</time>
      </trkpt>
      <trkpt lat="41.04419" lon="0.80652">
        <ele>538.8</ele>
        <time>2022-05-24 12:17:37</time>
      </trkpt>
      <trkpt lat="41.0442" lon="0.80646">
        <ele>538.6</ele>
        <time>2022-05-24 12:17:38</time>
      </trkpt>
      <trkpt lat="41.0442" lon="0.8064">
        <ele>538.6</ele>
        <time>2022-05-24 12:17:39</time>
      </trkpt>
      <trkpt lat="41.04419" lon="0.80633">
        <ele>538.4</ele>
        <time>2022-05-24 12:17:40</time>
      </trkpt>
      <trkpt lat="41.04418" lon="0.80627">
        <ele>538.4</ele>
        <time>2022-05-24 12:17:41</time>
      </trkpt>
      <trkpt lat="41.04416" lon="0.80621">
        <ele>538.4</ele>
        <time>2022-05-24 12:17:42</time>
      </trkpt>
      <trkpt lat="41.04414" lon="0.80615">
        <ele>538.4</ele>
        <time>2022-05-24 12:17:43</time>
      </trkpt>
      <trkpt lat="41.04411" lon="0.8061">
        <ele>538.2</ele>
        <time>2022-05-24 12:17:44</time>
      </trkpt>
      <trkpt lat="41.04407" lon="0.80606">
        <ele>538.2</ele>
        <time>2022-05-24 12:17:45</time>
      </trkpt>
      <trkpt lat="41.04403" lon="0.80602">
        <ele>538.2</ele>
        <time>2022-05-24 12:17:46</time>
      </trkpt>
      <trkpt lat="41.04399" lon="0.80599">
        <ele>538.2</ele>
        <time>2022-05-24 12:17:47</time>
      </trkpt>
      <trkpt lat="41.04395" lon="0.80596">
        <ele>538.2</ele>
        <time>2022-05-24 12:17:48</time>
      </trkpt>
      <trkpt lat="41.0439" lon="0.80594">
        <ele>538.2</ele>
        <time>2022-05-24 12:17:49</time>
      </trkpt>
      <trkpt lat="41.04386" lon="0.80592">
        <ele>538.2</ele>
        <time>2022-05-24 12:17:50</time>
      </trkpt>
      <trkpt lat="41.04382" lon="0.8059">
        <ele>538.4</ele>
        <time>2022-05-24 12:17:51</time>
      </trkpt>
      <trkpt lat="41.04378" lon="0.80589">
        <ele>538.4</ele>
        <time>2022-05-24 12:17:52</time>
      </trkpt>
      <trkpt lat="41.04373" lon="0.80587">
        <ele>538.4</ele>
        <time>2022-05-24 12:17:53</time>
      </trkpt>
      <trkpt lat="41.04369" lon="0.80585">
        <ele>538.4</ele>
        <time>2022-05-24 12:17:54</time>
      </trkpt>
      <trkpt lat="41.04364" lon="0.80583">
        <ele>538.4</ele>
        <time>2022-05-24 12:17:55</time>
      </trkpt>
      <trkpt lat="41.0436" lon="0.80581">
        <ele>538.4</ele>
        <time>2022-05-24 12:17:56</time>
      </trkpt>
      <trkpt lat="41.04355" lon="0.80579">
        <ele>538.4</ele>
        <time>2022-05-24 12:17:57</time>
      </trkpt>
      <trkpt lat="41.04351" lon="0.80577">
        <ele>538.4</ele>
        <time>2022-05-24 12:17:58</time>
      </trkpt>
      <trkpt lat="41.04346" lon="0.80574">
        <ele>538.4</ele>
        <time>2022-05-24 12:17:59</time>
      </trkpt>
      <trkpt lat="41.04342" lon="0.8057">
        <ele>538.4</ele>
        <time>2022-05-24 12:18:00</time>
      </trkpt>
      <trkpt lat="41.04337" lon="0.80566">
        <ele>538.4</ele>
        <time>2022-05-24 12:18:01</time>
      </trkpt>
      <trkpt lat="41.04334" lon="0.80562">
        <ele>538.4</ele>
        <time>2022-05-24 12:18:02</time>
      </trkpt>
      <trkpt lat="41.0433" lon="0.80557">
        <ele>538.4</ele>
        <time>2022-05-24 12:18:03</time>
      </trkpt>
      <trkpt lat="41.04326" lon="0.80552">
        <ele>538.2</ele>
        <time>2022-05-24 12:18:04</time>
      </trkpt>
      <trkpt lat="41.04323" lon="0.80548">
        <ele>538.2</ele>
        <time>2022-05-24 12:18:05</time>
      </trkpt>
      <trkpt lat="41.0432" lon="0.80542">
        <ele>538.2</ele>
        <time>2022-05-24 12:18:06</time>
      </trkpt>
      <trkpt lat="41.04317" lon="0.80536">
        <ele>538.2</ele>
        <time>2022-05-24 12:18:07</time>
      </trkpt>
      <trkpt lat="41.04314" lon="0.80529">
        <ele>538</ele>
        <time>2022-05-24 12:18:08</time>
      </trkpt>
      <trkpt lat="41.04311" lon="0.80523">
        <ele>538</ele>
        <time>2022-05-24 12:18:09</time>
      </trkpt>
      <trkpt lat="41.04308" lon="0.80517">
        <ele>538</ele>
        <time>2022-05-24 12:18:10</time>
      </trkpt>
      <trkpt lat="41.04306" lon="0.80511">
        <ele>537.8</ele>
        <time>2022-05-24 12:18:11</time>
      </trkpt>
      <trkpt lat="41.04304" lon="0.80505">
        <ele>537.8</ele>
        <time>2022-05-24 12:18:12</time>
      </trkpt>
      <trkpt lat="41.04303" lon="0.80498">
        <ele>537.6</ele>
        <time>2022-05-24 12:18:13</time>
      </trkpt>
      <trkpt lat="41.04302" lon="0.80491">
        <ele>537.4</ele>
        <time>2022-05-24 12:18:14</time>
      </trkpt>
      <trkpt lat="41.04302" lon="0.80483">
        <ele>537.4</ele>
        <time>2022-05-24 12:18:15</time>
      </trkpt>
      <trkpt lat="41.04303" lon="0.80475">
        <ele>537.2</ele>
        <time>2022-05-24 12:18:16</time>
      </trkpt>
      <trkpt lat="41.04303" lon="0.80466">
        <ele>537.2</ele>
        <time>2022-05-24 12:18:17</time>
      </trkpt>
      <trkpt lat="41.04303" lon="0.80458">
        <ele>537</ele>
        <time>2022-05-24 12:18:18</time>
      </trkpt>
      <trkpt lat="41.043" lon="0.80447">
        <ele>537</ele>
        <time>2022-05-24 12:18:19</time>
      </trkpt>
      <trkpt lat="41.04298" lon="0.80439">
        <ele>536.8</ele>
        <time>2022-05-24 12:18:20</time>
      </trkpt>
      <trkpt lat="41.04294" lon="0.80431">
        <ele>536.8</ele>
        <time>2022-05-24 12:18:21</time>
      </trkpt>
      <trkpt lat="41.04289" lon="0.80424">
        <ele>536.8</ele>
        <time>2022-05-24 12:18:22</time>
      </trkpt>
      <trkpt lat="41.04283" lon="0.80419">
        <ele>536.8</ele>
        <time>2022-05-24 12:18:23</time>
      </trkpt>
      <trkpt lat="41.04278" lon="0.80415">
        <ele>536.8</ele>
        <time>2022-05-24 12:18:24</time>
      </trkpt>
      <trkpt lat="41.04272" lon="0.80411">
        <ele>536.8</ele>
        <time>2022-05-24 12:18:25</time>
      </trkpt>
      <trkpt lat="41.04268" lon="0.80406">
        <ele>536.8</ele>
        <time>2022-05-24 12:18:26</time>
      </trkpt>
      <trkpt lat="41.04263" lon="0.804">
        <ele>536.8</ele>
        <time>2022-05-24 12:18:27</time>
      </trkpt>
      <trkpt lat="41.04258" lon="0.80394">
        <ele>536.6</ele>
        <time>2022-05-24 12:18:28</time>
      </trkpt>
      <trkpt lat="41.04256" lon="0.80387">
        <ele>536.6</ele>
        <time>2022-05-24 12:18:29</time>
      </trkpt>
      <trkpt lat="41.04256" lon="0.80378">
        <ele>536.6</ele>
        <time>2022-05-24 12:18:30</time>
      </trkpt>
      <trkpt lat="41.04256" lon="0.8037">
        <ele>536.4</ele>
        <time>2022-05-24 12:18:31</time>
      </trkpt>
      <trkpt lat="41.04256" lon="0.80361">
        <ele>536.2</ele>
        <time>2022-05-24 12:18:32</time>
      </trkpt>
      <trkpt lat="41.04256" lon="0.80352">
        <ele>536</ele>
        <time>2022-05-24 12:18:33</time>
      </trkpt>
      <trkpt lat="41.04257" lon="0.80343">
        <ele>536</ele>
        <time>2022-05-24 12:18:34</time>
      </trkpt>
      <trkpt lat="41.04257" lon="0.80333">
        <ele>535.8</ele>
        <time>2022-05-24 12:18:35</time>
      </trkpt>
      <trkpt lat="41.04257" lon="0.80324">
        <ele>535.6</ele>
        <time>2022-05-24 12:18:36</time>
      </trkpt>
      <trkpt lat="41.04258" lon="0.80315">
        <ele>535.4</ele>
        <time>2022-05-24 12:18:37</time>
      </trkpt>
      <trkpt lat="41.04259" lon="0.80306">
        <ele>535.4</ele>
        <time>2022-05-24 12:18:38</time>
      </trkpt>
      <trkpt lat="41.04259" lon="0.80296">
        <ele>535.4</ele>
        <time>2022-05-24 12:18:39</time>
      </trkpt>
      <trkpt lat="41.0426" lon="0.80287">
        <ele>535.4</ele>
        <time>2022-05-24 12:18:40</time>
      </trkpt>
      <trkpt lat="41.04261" lon="0.80277">
        <ele>535.4</ele>
        <time>2022-05-24 12:18:41</time>
      </trkpt>
      <trkpt lat="41.04262" lon="0.80268">
        <ele>535.6</ele>
        <time>2022-05-24 12:18:42</time>
      </trkpt>
      <trkpt lat="41.04263" lon="0.80259">
        <ele>535.6</ele>
        <time>2022-05-24 12:18:43</time>
      </trkpt>
      <trkpt lat="41.04263" lon="0.80251">
        <ele>535.8</ele>
        <time>2022-05-24 12:18:44</time>
      </trkpt>
      <trkpt lat="41.04264" lon="0.80243">
        <ele>536.2</ele>
        <time>2022-05-24 12:18:45</time>
      </trkpt>
      <trkpt lat="41.04265" lon="0.80237">
        <ele>536.4</ele>
        <time>2022-05-24 12:18:46</time>
      </trkpt>
      <trkpt lat="41.04266" lon="0.8023">
        <ele>536.8</ele>
        <time>2022-05-24 12:18:47</time>
      </trkpt>
      <trkpt lat="41.04266" lon="0.80224">
        <ele>537.2</ele>
        <time>2022-05-24 12:18:48</time>
      </trkpt>
      <trkpt lat="41.04266" lon="0.80218">
        <ele>537.4</ele>
        <time>2022-05-24 12:18:49</time>
      </trkpt>
      <trkpt lat="41.04267" lon="0.80213">
        <ele>537.8</ele>
        <time>2022-05-24 12:18:50</time>
      </trkpt>
      <trkpt lat="41.04267" lon="0.80208">
        <ele>538.2</ele>
        <time>2022-05-24 12:18:51</time>
      </trkpt>
      <trkpt lat="41.04268" lon="0.80203">
        <ele>538.6</ele>
        <time>2022-05-24 12:18:52</time>
      </trkpt>
      <trkpt lat="41.04268" lon="0.80198">
        <ele>538.8</ele>
        <time>2022-05-24 12:18:53</time>
      </trkpt>
      <trkpt lat="41.04268" lon="0.80193">
        <ele>539.2</ele>
        <time>2022-05-24 12:18:54</time>
      </trkpt>
      <trkpt lat="41.04268" lon="0.80189">
        <ele>539.4</ele>
        <time>2022-05-24 12:18:55</time>
      </trkpt>
      <trkpt lat="41.04268" lon="0.80185">
        <ele>539.8</ele>
        <time>2022-05-24 12:18:56</time>
      </trkpt>
      <trkpt lat="41.04267" lon="0.80181">
        <ele>540</ele>
        <time>2022-05-24 12:18:57</time>
      </trkpt>
      <trkpt lat="41.04268" lon="0.80176">
        <ele>540.2</ele>
        <time>2022-05-24 12:18:58</time>
      </trkpt>
      <trkpt lat="41.04268" lon="0.80172">
        <ele>540.6</ele>
        <time>2022-05-24 12:18:59</time>
      </trkpt>
      <trkpt lat="41.04269" lon="0.80167">
        <ele>541</ele>
        <time>2022-05-24 12:19:00</time>
      </trkpt>
      <trkpt lat="41.04269" lon="0.80162">
        <ele>541.2</ele>
        <time>2022-05-24 12:19:01</time>
      </trkpt>
      <trkpt lat="41.0427" lon="0.80157">
        <ele>541.6</ele>
        <time>2022-05-24 12:19:02</time>
      </trkpt>
      <trkpt lat="41.04269" lon="0.80153">
        <ele>541.8</ele>
        <time>2022-05-24 12:19:03</time>
      </trkpt>
      <trkpt lat="41.04269" lon="0.80148">
        <ele>542</ele>
        <time>2022-05-24 12:19:04</time>
      </trkpt>
      <trkpt lat="41.04269" lon="0.80144">
        <ele>542.2</ele>
        <time>2022-05-24 12:19:05</time>
      </trkpt>
      <trkpt lat="41.04269" lon="0.80139">
        <ele>542.4</ele>
        <time>2022-05-24 12:19:06</time>
      </trkpt>
      <trkpt lat="41.04269" lon="0.80135">
        <ele>542.8</ele>
        <time>2022-05-24 12:19:07</time>
      </trkpt>
      <trkpt lat="41.0427" lon="0.8013">
        <ele>543</ele>
        <time>2022-05-24 12:19:08</time>
      </trkpt>
      <trkpt lat="41.04271" lon="0.80126">
        <ele>543.4</ele>
        <time>2022-05-24 12:19:09</time>
      </trkpt>
      <trkpt lat="41.04271" lon="0.80121">
        <ele>543.8</ele>
        <time>2022-05-24 12:19:10</time>
      </trkpt>
      <trkpt lat="41.04271" lon="0.80118">
        <ele>544</ele>
        <time>2022-05-24 12:19:11</time>
      </trkpt>
      <trkpt lat="41.04271" lon="0.80114">
        <ele>544.2</ele>
        <time>2022-05-24 12:19:12</time>
      </trkpt>
      <trkpt lat="41.04271" lon="0.8011">
        <ele>544.4</ele>
        <time>2022-05-24 12:19:13</time>
      </trkpt>
      <trkpt lat="41.04271" lon="0.80107">
        <ele>544.8</ele>
        <time>2022-05-24 12:19:14</time>
      </trkpt>
      <trkpt lat="41.04271" lon="0.80103">
        <ele>545</ele>
        <time>2022-05-24 12:19:15</time>
      </trkpt>
      <trkpt lat="41.04271" lon="0.801">
        <ele>545.4</ele>
        <time>2022-05-24 12:19:16</time>
      </trkpt>
      <trkpt lat="41.04272" lon="0.80098">
        <ele>545.6</ele>
        <time>2022-05-24 12:19:17</time>
      </trkpt>
      <trkpt lat="41.04272" lon="0.80094">
        <ele>545.8</ele>
        <time>2022-05-24 12:19:18</time>
      </trkpt>
      <trkpt lat="41.04273" lon="0.80092">
        <ele>546</ele>
        <time>2022-05-24 12:19:19</time>
      </trkpt>
      <trkpt lat="41.04274" lon="0.80089">
        <ele>546.2</ele>
        <time>2022-05-24 12:19:20</time>
      </trkpt>
      <trkpt lat="41.04275" lon="0.80087">
        <ele>546.4</ele>
        <time>2022-05-24 12:19:21</time>
      </trkpt>
      <trkpt lat="41.04275" lon="0.80084">
        <ele>546.6</ele>
        <time>2022-05-24 12:19:22</time>
      </trkpt>
      <trkpt lat="41.04277" lon="0.80082">
        <ele>546.8</ele>
        <time>2022-05-24 12:19:23</time>
      </trkpt>
      <trkpt lat="41.04278" lon="0.8008">
        <ele>547</ele>
        <time>2022-05-24 12:19:24</time>
      </trkpt>
      <trkpt lat="41.04279" lon="0.80078">
        <ele>547</ele>
        <time>2022-05-24 12:19:25</time>
      </trkpt>
      <trkpt lat="41.04279" lon="0.80075">
        <ele>547.2</ele>
        <time>2022-05-24 12:19:26</time>
      </trkpt>
      <trkpt lat="41.0428" lon="0.80073">
        <ele>547.4</ele>
        <time>2022-05-24 12:19:27</time>
      </trkpt>
      <trkpt lat="41.04282" lon="0.8007">
        <ele>547.6</ele>
        <time>2022-05-24 12:19:28</time>
      </trkpt>
      <trkpt lat="41.04283" lon="0.80068">
        <ele>547.8</ele>
        <time>2022-05-24 12:19:29</time>
      </trkpt>
      <trkpt lat="41.04284" lon="0.80066">
        <ele>547.8</ele>
        <time>2022-05-24 12:19:30</time>
      </trkpt>
      <trkpt lat="41.04285" lon="0.80064">
        <ele>548</ele>
        <time>2022-05-24 12:19:31</time>
      </trkpt>
      <trkpt lat="41.04286" lon="0.80062">
        <ele>548.2</ele>
        <time>2022-05-24 12:19:32</time>
      </trkpt>
      <trkpt lat="41.04287" lon="0.8006">
        <ele>548.4</ele>
        <time>2022-05-24 12:19:33</time>
      </trkpt>
      <trkpt lat="41.04288" lon="0.80058">
        <ele>548.6</ele>
        <time>2022-05-24 12:19:34</time>
      </trkpt>
      <trkpt lat="41.0429" lon="0.80056">
        <ele>548.8</ele>
        <time>2022-05-24 12:19:35</time>
      </trkpt>
      <trkpt lat="41.04291" lon="0.80054">
        <ele>548.8</ele>
        <time>2022-05-24 12:19:36</time>
      </trkpt>
      <trkpt lat="41.04292" lon="0.80053">
        <ele>549</ele>
        <time>2022-05-24 12:19:37</time>
      </trkpt>
      <trkpt lat="41.04293" lon="0.80051">
        <ele>549.2</ele>
        <time>2022-05-24 12:19:38</time>
      </trkpt>
      <trkpt lat="41.04294" lon="0.80049">
        <ele>549.2</ele>
        <time>2022-05-24 12:19:39</time>
      </trkpt>
      <trkpt lat="41.04295" lon="0.80047">
        <ele>549.4</ele>
        <time>2022-05-24 12:19:40</time>
      </trkpt>
      <trkpt lat="41.04296" lon="0.80045">
        <ele>549.6</ele>
        <time>2022-05-24 12:19:41</time>
      </trkpt>
      <trkpt lat="41.04297" lon="0.80043">
        <ele>549.6</ele>
        <time>2022-05-24 12:19:42</time>
      </trkpt>
      <trkpt lat="41.04298" lon="0.80041">
        <ele>549.8</ele>
        <time>2022-05-24 12:19:43</time>
      </trkpt>
      <trkpt lat="41.043" lon="0.80039">
        <ele>550</ele>
        <time>2022-05-24 12:19:44</time>
      </trkpt>
      <trkpt lat="41.04301" lon="0.80037">
        <ele>550.2</ele>
        <time>2022-05-24 12:19:45</time>
      </trkpt>
      <trkpt lat="41.04302" lon="0.80036">
        <ele>550.4</ele>
        <time>2022-05-24 12:19:46</time>
      </trkpt>
      <trkpt lat="41.04304" lon="0.80035">
        <ele>550.6</ele>
        <time>2022-05-24 12:19:47</time>
      </trkpt>
      <trkpt lat="41.04305" lon="0.80033">
        <ele>550.8</ele>
        <time>2022-05-24 12:19:48</time>
      </trkpt>
      <trkpt lat="41.04306" lon="0.80031">
        <ele>551</ele>
        <time>2022-05-24 12:19:49</time>
      </trkpt>
      <trkpt lat="41.04307" lon="0.80029">
        <ele>551.2</ele>
        <time>2022-05-24 12:19:50</time>
      </trkpt>
      <trkpt lat="41.04308" lon="0.80027">
        <ele>551.4</ele>
        <time>2022-05-24 12:19:51</time>
      </trkpt>
      <trkpt lat="41.04308" lon="0.80025">
        <ele>551.4</ele>
        <time>2022-05-24 12:19:52</time>
      </trkpt>
      <trkpt lat="41.04309" lon="0.80022">
        <ele>551.6</ele>
        <time>2022-05-24 12:19:53</time>
      </trkpt>
      <trkpt lat="41.04311" lon="0.8002">
        <ele>551.8</ele>
        <time>2022-05-24 12:19:54</time>
      </trkpt>
      <trkpt lat="41.04312" lon="0.80018">
        <ele>552</ele>
        <time>2022-05-24 12:19:55</time>
      </trkpt>
      <trkpt lat="41.04313" lon="0.80016">
        <ele>552.2</ele>
        <time>2022-05-24 12:19:56</time>
      </trkpt>
      <trkpt lat="41.04314" lon="0.80013">
        <ele>552.4</ele>
        <time>2022-05-24 12:19:57</time>
      </trkpt>
      <trkpt lat="41.04314" lon="0.80011">
        <ele>552.6</ele>
        <time>2022-05-24 12:19:58</time>
      </trkpt>
      <trkpt lat="41.04315" lon="0.80008">
        <ele>552.6</ele>
        <time>2022-05-24 12:19:59</time>
      </trkpt>
      <trkpt lat="41.04316" lon="0.80005">
        <ele>552.8</ele>
        <time>2022-05-24 12:20:00</time>
      </trkpt>
      <trkpt lat="41.04316" lon="0.80002">
        <ele>553</ele>
        <time>2022-05-24 12:20:01</time>
      </trkpt>
      <trkpt lat="41.04317" lon="0.79999">
        <ele>553.2</ele>
        <time>2022-05-24 12:20:02</time>
      </trkpt>
      <trkpt lat="41.04317" lon="0.79997">
        <ele>553.4</ele>
        <time>2022-05-24 12:20:03</time>
      </trkpt>
      <trkpt lat="41.04317" lon="0.79993">
        <ele>553.6</ele>
        <time>2022-05-24 12:20:04</time>
      </trkpt>
      <trkpt lat="41.04317" lon="0.7999">
        <ele>553.6</ele>
        <time>2022-05-24 12:20:05</time>
      </trkpt>
      <trkpt lat="41.04317" lon="0.79987">
        <ele>553.8</ele>
        <time>2022-05-24 12:20:06</time>
      </trkpt>
      <trkpt lat="41.04317" lon="0.79984">
        <ele>554</ele>
        <time>2022-05-24 12:20:07</time>
      </trkpt>
      <trkpt lat="41.04317" lon="0.79981">
        <ele>554.2</ele>
        <time>2022-05-24 12:20:08</time>
      </trkpt>
      <trkpt lat="41.04317" lon="0.79978">
        <ele>554.4</ele>
        <time>2022-05-24 12:20:09</time>
      </trkpt>
      <trkpt lat="41.04317" lon="0.79974">
        <ele>554.6</ele>
        <time>2022-05-24 12:20:10</time>
      </trkpt>
      <trkpt lat="41.04316" lon="0.79972">
        <ele>554.6</ele>
        <time>2022-05-24 12:20:11</time>
      </trkpt>
      <trkpt lat="41.04316" lon="0.79968">
        <ele>554.8</ele>
        <time>2022-05-24 12:20:12</time>
      </trkpt>
      <trkpt lat="41.04315" lon="0.79966">
        <ele>555</ele>
        <time>2022-05-24 12:20:13</time>
      </trkpt>
      <trkpt lat="41.04314" lon="0.79964">
        <ele>555.2</ele>
        <time>2022-05-24 12:20:14</time>
      </trkpt>
      <trkpt lat="41.04314" lon="0.79961">
        <ele>555.4</ele>
        <time>2022-05-24 12:20:15</time>
      </trkpt>
      <trkpt lat="41.04313" lon="0.79958">
        <ele>555.6</ele>
        <time>2022-05-24 12:20:16</time>
      </trkpt>
      <trkpt lat="41.04313" lon="0.79955">
        <ele>555.8</ele>
        <time>2022-05-24 12:20:17</time>
      </trkpt>
      <trkpt lat="41.04311" lon="0.79952">
        <ele>556</ele>
        <time>2022-05-24 12:20:18</time>
      </trkpt>
      <trkpt lat="41.04311" lon="0.79949">
        <ele>556</ele>
        <time>2022-05-24 12:20:19</time>
      </trkpt>
      <trkpt lat="41.04309" lon="0.79947">
        <ele>556.2</ele>
        <time>2022-05-24 12:20:20</time>
      </trkpt>
      <trkpt lat="41.04308" lon="0.79944">
        <ele>556.4</ele>
        <time>2022-05-24 12:20:21</time>
      </trkpt>
      <trkpt lat="41.04307" lon="0.79941">
        <ele>556.6</ele>
        <time>2022-05-24 12:20:22</time>
      </trkpt>
      <trkpt lat="41.04306" lon="0.79939">
        <ele>556.6</ele>
        <time>2022-05-24 12:20:23</time>
      </trkpt>
      <trkpt lat="41.04304" lon="0.79936">
        <ele>556.8</ele>
        <time>2022-05-24 12:20:24</time>
      </trkpt>
      <trkpt lat="41.04302" lon="0.79934">
        <ele>557</ele>
        <time>2022-05-24 12:20:25</time>
      </trkpt>
      <trkpt lat="41.043" lon="0.79932">
        <ele>557.2</ele>
        <time>2022-05-24 12:20:26</time>
      </trkpt>
      <trkpt lat="41.04298" lon="0.7993">
        <ele>557.2</ele>
        <time>2022-05-24 12:20:27</time>
      </trkpt>
      <trkpt lat="41.04296" lon="0.79927">
        <ele>557.4</ele>
        <time>2022-05-24 12:20:28</time>
      </trkpt>
      <trkpt lat="41.04294" lon="0.79925">
        <ele>557.4</ele>
        <time>2022-05-24 12:20:29</time>
      </trkpt>
      <trkpt lat="41.04292" lon="0.79922">
        <ele>557.6</ele>
        <time>2022-05-24 12:20:30</time>
      </trkpt>
      <trkpt lat="41.0429" lon="0.7992">
        <ele>557.6</ele>
        <time>2022-05-24 12:20:31</time>
      </trkpt>
      <trkpt lat="41.04287" lon="0.79918">
        <ele>557.8</ele>
        <time>2022-05-24 12:20:32</time>
      </trkpt>
      <trkpt lat="41.04285" lon="0.79915">
        <ele>558</ele>
        <time>2022-05-24 12:20:33</time>
      </trkpt>
      <trkpt lat="41.04283" lon="0.79914">
        <ele>558.2</ele>
        <time>2022-05-24 12:20:34</time>
      </trkpt>
      <trkpt lat="41.04281" lon="0.79912">
        <ele>558.4</ele>
        <time>2022-05-24 12:20:35</time>
      </trkpt>
      <trkpt lat="41.04279" lon="0.7991">
        <ele>558.8</ele>
        <time>2022-05-24 12:20:36</time>
      </trkpt>
      <trkpt lat="41.04277" lon="0.79908">
        <ele>559</ele>
        <time>2022-05-24 12:20:37</time>
      </trkpt>
      <trkpt lat="41.04274" lon="0.79906">
        <ele>559.2</ele>
        <time>2022-05-24 12:20:38</time>
      </trkpt>
      <trkpt lat="41.04272" lon="0.79905">
        <ele>559.4</ele>
        <time>2022-05-24 12:20:39</time>
      </trkpt>
      <trkpt lat="41.0427" lon="0.79902">
        <ele>559.6</ele>
        <time>2022-05-24 12:20:40</time>
      </trkpt>
      <trkpt lat="41.04268" lon="0.799">
        <ele>559.8</ele>
        <time>2022-05-24 12:20:41</time>
      </trkpt>
      <trkpt lat="41.04266" lon="0.79898">
        <ele>560</ele>
        <time>2022-05-24 12:20:42</time>
      </trkpt>
      <trkpt lat="41.04264" lon="0.79896">
        <ele>560.2</ele>
        <time>2022-05-24 12:20:43</time>
      </trkpt>
      <trkpt lat="41.04262" lon="0.79894">
        <ele>560.4</ele>
        <time>2022-05-24 12:20:44</time>
      </trkpt>
      <trkpt lat="41.0426" lon="0.79892">
        <ele>560.6</ele>
        <time>2022-05-24 12:20:45</time>
      </trkpt>
      <trkpt lat="41.04257" lon="0.79891">
        <ele>560.8</ele>
        <time>2022-05-24 12:20:46</time>
      </trkpt>
      <trkpt lat="41.04255" lon="0.7989">
        <ele>561</ele>
        <time>2022-05-24 12:20:47</time>
      </trkpt>
      <trkpt lat="41.04253" lon="0.79889">
        <ele>561.2</ele>
        <time>2022-05-24 12:20:48</time>
      </trkpt>
      <trkpt lat="41.0425" lon="0.79889">
        <ele>561.2</ele>
        <time>2022-05-24 12:20:49</time>
      </trkpt>
      <trkpt lat="41.04248" lon="0.79888">
        <ele>561.4</ele>
        <time>2022-05-24 12:20:50</time>
      </trkpt>
      <trkpt lat="41.04246" lon="0.79887">
        <ele>561.6</ele>
        <time>2022-05-24 12:20:51</time>
      </trkpt>
      <trkpt lat="41.04243" lon="0.79886">
        <ele>561.8</ele>
        <time>2022-05-24 12:20:52</time>
      </trkpt>
      <trkpt lat="41.04242" lon="0.79885">
        <ele>562</ele>
        <time>2022-05-24 12:20:53</time>
      </trkpt>
      <trkpt lat="41.04239" lon="0.79884">
        <ele>562.2</ele>
        <time>2022-05-24 12:20:54</time>
      </trkpt>
      <trkpt lat="41.04237" lon="0.79883">
        <ele>562.4</ele>
        <time>2022-05-24 12:20:55</time>
      </trkpt>
      <trkpt lat="41.04235" lon="0.79882">
        <ele>562.8</ele>
        <time>2022-05-24 12:20:56</time>
      </trkpt>
      <trkpt lat="41.04233" lon="0.79881">
        <ele>563</ele>
        <time>2022-05-24 12:20:57</time>
      </trkpt>
      <trkpt lat="41.04231" lon="0.7988">
        <ele>563</ele>
        <time>2022-05-24 12:20:58</time>
      </trkpt>
      <trkpt lat="41.04229" lon="0.79879">
        <ele>563.2</ele>
        <time>2022-05-24 12:20:59</time>
      </trkpt>
      <trkpt lat="41.04227" lon="0.79878">
        <ele>563.4</ele>
        <time>2022-05-24 12:21:00</time>
      </trkpt>
      <trkpt lat="41.04225" lon="0.79877">
        <ele>563.6</ele>
        <time>2022-05-24 12:21:01</time>
      </trkpt>
      <trkpt lat="41.04222" lon="0.79875">
        <ele>563.8</ele>
        <time>2022-05-24 12:21:02</time>
      </trkpt>
      <trkpt lat="41.0422" lon="0.79873">
        <ele>564</ele>
        <time>2022-05-24 12:21:03</time>
      </trkpt>
      <trkpt lat="41.04218" lon="0.79871">
        <ele>564.2</ele>
        <time>2022-05-24 12:21:04</time>
      </trkpt>
      <trkpt lat="41.04217" lon="0.7987">
        <ele>564.2</ele>
        <time>2022-05-24 12:21:05</time>
      </trkpt>
      <trkpt lat="41.04214" lon="0.79867">
        <ele>564.4</ele>
        <time>2022-05-24 12:21:06</time>
      </trkpt>
      <trkpt lat="41.04213" lon="0.79864">
        <ele>564.6</ele>
        <time>2022-05-24 12:21:07</time>
      </trkpt>
      <trkpt lat="41.04212" lon="0.79862">
        <ele>564.6</ele>
        <time>2022-05-24 12:21:08</time>
      </trkpt>
      <trkpt lat="41.04211" lon="0.79859">
        <ele>564.6</ele>
        <time>2022-05-24 12:21:09</time>
      </trkpt>
      <trkpt lat="41.04211" lon="0.79855">
        <ele>564.8</ele>
        <time>2022-05-24 12:21:10</time>
      </trkpt>
      <trkpt lat="41.04211" lon="0.79852">
        <ele>564.8</ele>
        <time>2022-05-24 12:21:11</time>
      </trkpt>
      <trkpt lat="41.0421" lon="0.79847">
        <ele>564.8</ele>
        <time>2022-05-24 12:21:12</time>
      </trkpt>
      <trkpt lat="41.0421" lon="0.79843">
        <ele>564.6</ele>
        <time>2022-05-24 12:21:13</time>
      </trkpt>
      <trkpt lat="41.0421" lon="0.79839">
        <ele>564.6</ele>
        <time>2022-05-24 12:21:14</time>
      </trkpt>
      <trkpt lat="41.0421" lon="0.79835">
        <ele>564.4</ele>
        <time>2022-05-24 12:21:15</time>
      </trkpt>
      <trkpt lat="41.0421" lon="0.7983">
        <ele>564.4</ele>
        <time>2022-05-24 12:21:16</time>
      </trkpt>
      <trkpt lat="41.04209" lon="0.79824">
        <ele>564</ele>
        <time>2022-05-24 12:21:17</time>
      </trkpt>
      <trkpt lat="41.04208" lon="0.79818">
        <ele>563.8</ele>
        <time>2022-05-24 12:21:18</time>
      </trkpt>
      <trkpt lat="41.04207" lon="0.79812">
        <ele>563.4</ele>
        <time>2022-05-24 12:21:19</time>
      </trkpt>
      <trkpt lat="41.04204" lon="0.79805">
        <ele>563.2</ele>
        <time>2022-05-24 12:21:20</time>
      </trkpt>
      <trkpt lat="41.04202" lon="0.79799">
        <ele>562.8</ele>
        <time>2022-05-24 12:21:21</time>
      </trkpt>
      <trkpt lat="41.042" lon="0.79792">
        <ele>562.6</ele>
        <time>2022-05-24 12:21:22</time>
      </trkpt>
      <trkpt lat="41.04197" lon="0.79785">
        <ele>562.2</ele>
        <time>2022-05-24 12:21:23</time>
      </trkpt>
      <trkpt lat="41.04194" lon="0.79778">
        <ele>561.8</ele>
        <time>2022-05-24 12:21:24</time>
      </trkpt>
      <trkpt lat="41.04192" lon="0.7977">
        <ele>561.4</ele>
        <time>2022-05-24 12:21:25</time>
      </trkpt>
      <trkpt lat="41.04189" lon="0.79762">
        <ele>561.2</ele>
        <time>2022-05-24 12:21:26</time>
      </trkpt>
      <trkpt lat="41.04186" lon="0.79754">
        <ele>561</ele>
        <time>2022-05-24 12:21:27</time>
      </trkpt>
      <trkpt lat="41.04184" lon="0.79746">
        <ele>560.6</ele>
        <time>2022-05-24 12:21:28</time>
      </trkpt>
      <trkpt lat="41.04181" lon="0.79739">
        <ele>560.4</ele>
        <time>2022-05-24 12:21:29</time>
      </trkpt>
      <trkpt lat="41.04179" lon="0.79731">
        <ele>560</ele>
        <time>2022-05-24 12:21:30</time>
      </trkpt>
      <trkpt lat="41.04177" lon="0.79722">
        <ele>559.8</ele>
        <time>2022-05-24 12:21:31</time>
      </trkpt>
      <trkpt lat="41.04176" lon="0.79714">
        <ele>559.6</ele>
        <time>2022-05-24 12:21:32</time>
      </trkpt>
      <trkpt lat="41.04176" lon="0.79704">
        <ele>559.4</ele>
        <time>2022-05-24 12:21:33</time>
      </trkpt>
      <trkpt lat="41.04177" lon="0.79696">
        <ele>559.4</ele>
        <time>2022-05-24 12:21:34</time>
      </trkpt>
      <trkpt lat="41.04178" lon="0.79688">
        <ele>559.2</ele>
        <time>2022-05-24 12:21:35</time>
      </trkpt>
      <trkpt lat="41.04182" lon="0.79681">
        <ele>559.2</ele>
        <time>2022-05-24 12:21:36</time>
      </trkpt>
      <trkpt lat="41.04185" lon="0.79674">
        <ele>559.2</ele>
        <time>2022-05-24 12:21:37</time>
      </trkpt>
      <trkpt lat="41.04189" lon="0.79666">
        <ele>559</ele>
        <time>2022-05-24 12:21:38</time>
      </trkpt>
      <trkpt lat="41.04193" lon="0.79659">
        <ele>559</ele>
        <time>2022-05-24 12:21:39</time>
      </trkpt>
      <trkpt lat="41.04198" lon="0.79652">
        <ele>559</ele>
        <time>2022-05-24 12:21:40</time>
      </trkpt>
      <trkpt lat="41.04203" lon="0.79644">
        <ele>559</ele>
        <time>2022-05-24 12:21:41</time>
      </trkpt>
      <trkpt lat="41.04207" lon="0.79638">
        <ele>559</ele>
        <time>2022-05-24 12:21:42</time>
      </trkpt>
      <trkpt lat="41.04212" lon="0.79631">
        <ele>558.8</ele>
        <time>2022-05-24 12:21:43</time>
      </trkpt>
      <trkpt lat="41.04216" lon="0.79624">
        <ele>558.8</ele>
        <time>2022-05-24 12:21:44</time>
      </trkpt>
      <trkpt lat="41.0422" lon="0.79619">
        <ele>558.6</ele>
        <time>2022-05-24 12:21:45</time>
      </trkpt>
      <trkpt lat="41.04225" lon="0.79613">
        <ele>558.6</ele>
        <time>2022-05-24 12:21:46</time>
      </trkpt>
      <trkpt lat="41.04229" lon="0.79606">
        <ele>558.6</ele>
        <time>2022-05-24 12:21:47</time>
      </trkpt>
      <trkpt lat="41.04232" lon="0.796">
        <ele>558.4</ele>
        <time>2022-05-24 12:21:48</time>
      </trkpt>
      <trkpt lat="41.04235" lon="0.79593">
        <ele>558.2</ele>
        <time>2022-05-24 12:21:49</time>
      </trkpt>
      <trkpt lat="41.04238" lon="0.79585">
        <ele>558</ele>
        <time>2022-05-24 12:21:50</time>
      </trkpt>
      <trkpt lat="41.04241" lon="0.79577">
        <ele>557.6</ele>
        <time>2022-05-24 12:21:51</time>
      </trkpt>
      <trkpt lat="41.04245" lon="0.79566">
        <ele>557</ele>
        <time>2022-05-24 12:21:52</time>
      </trkpt>
      <trkpt lat="41.04248" lon="0.7956">
        <ele>556.6</ele>
        <time>2022-05-24 12:21:53</time>
      </trkpt>
      <trkpt lat="41.04252" lon="0.79546">
        <ele>556</ele>
        <time>2022-05-24 12:21:54</time>
      </trkpt>
      <trkpt lat="41.04254" lon="0.79539">
        <ele>555.6</ele>
        <time>2022-05-24 12:21:55</time>
      </trkpt>
      <trkpt lat="41.04259" lon="0.79525">
        <ele>554.8</ele>
        <time>2022-05-24 12:21:56</time>
      </trkpt>
      <trkpt lat="41.04263" lon="0.79515">
        <ele>554.2</ele>
        <time>2022-05-24 12:21:57</time>
      </trkpt>
      <trkpt lat="41.04267" lon="0.79503">
        <ele>553.4</ele>
        <time>2022-05-24 12:21:58</time>
      </trkpt>
      <trkpt lat="41.04272" lon="0.79491">
        <ele>552.6</ele>
        <time>2022-05-24 12:21:59</time>
      </trkpt>
      <trkpt lat="41.04277" lon="0.79478">
        <ele>551.8</ele>
        <time>2022-05-24 12:22:00</time>
      </trkpt>
      <trkpt lat="41.04281" lon="0.79466">
        <ele>551.2</ele>
        <time>2022-05-24 12:22:01</time>
      </trkpt>
      <trkpt lat="41.04283" lon="0.79456">
        <ele>550.4</ele>
        <time>2022-05-24 12:22:02</time>
      </trkpt>
      <trkpt lat="41.04282" lon="0.79442">
        <ele>549.8</ele>
        <time>2022-05-24 12:22:03</time>
      </trkpt>
      <trkpt lat="41.04279" lon="0.79434">
        <ele>549.2</ele>
        <time>2022-05-24 12:22:04</time>
      </trkpt>
      <trkpt lat="41.04272" lon="0.79425">
        <ele>548</ele>
        <time>2022-05-24 12:22:05</time>
      </trkpt>
      <trkpt lat="41.04262" lon="0.79428">
        <ele>547.4</ele>
        <time>2022-05-24 12:22:06</time>
      </trkpt>
      <trkpt lat="41.04249" lon="0.79433">
        <ele>546.4</ele>
        <time>2022-05-24 12:22:07</time>
      </trkpt>
      <trkpt lat="41.0424" lon="0.79438">
        <ele>545.8</ele>
        <time>2022-05-24 12:22:08</time>
      </trkpt>
      <trkpt lat="41.04229" lon="0.79445">
        <ele>545</ele>
        <time>2022-05-24 12:22:09</time>
      </trkpt>
      <trkpt lat="41.0422" lon="0.79449">
        <ele>544.2</ele>
        <time>2022-05-24 12:22:10</time>
      </trkpt>
      <trkpt lat="41.0421" lon="0.7945">
        <ele>543.6</ele>
        <time>2022-05-24 12:22:11</time>
      </trkpt>
      <trkpt lat="41.042" lon="0.79448">
        <ele>543.2</ele>
        <time>2022-05-24 12:22:12</time>
      </trkpt>
      <trkpt lat="41.04192" lon="0.79444">
        <ele>543</ele>
        <time>2022-05-24 12:22:13</time>
      </trkpt>
      <trkpt lat="41.04182" lon="0.79439">
        <ele>542.8</ele>
        <time>2022-05-24 12:22:14</time>
      </trkpt>
      <trkpt lat="41.04174" lon="0.79438">
        <ele>542.8</ele>
        <time>2022-05-24 12:22:15</time>
      </trkpt>
      <trkpt lat="41.04165" lon="0.7944">
        <ele>542.6</ele>
        <time>2022-05-24 12:22:16</time>
      </trkpt>
      <trkpt lat="41.04158" lon="0.79443">
        <ele>542.4</ele>
        <time>2022-05-24 12:22:17</time>
      </trkpt>
      <trkpt lat="41.0415" lon="0.7945">
        <ele>542.2</ele>
        <time>2022-05-24 12:22:18</time>
      </trkpt>
      <trkpt lat="41.04143" lon="0.79456">
        <ele>542</ele>
        <time>2022-05-24 12:22:19</time>
      </trkpt>
      <trkpt lat="41.04137" lon="0.79466">
        <ele>541.8</ele>
        <time>2022-05-24 12:22:20</time>
      </trkpt>
      <trkpt lat="41.04132" lon="0.79474">
        <ele>541.6</ele>
        <time>2022-05-24 12:22:21</time>
      </trkpt>
      <trkpt lat="41.04125" lon="0.79484">
        <ele>541.2</ele>
        <time>2022-05-24 12:22:22</time>
      </trkpt>
      <trkpt lat="41.04119" lon="0.79488">
        <ele>540.8</ele>
        <time>2022-05-24 12:22:23</time>
      </trkpt>
      <trkpt lat="41.0411" lon="0.79488">
        <ele>540.4</ele>
        <time>2022-05-24 12:22:24</time>
      </trkpt>
      <trkpt lat="41.04103" lon="0.79485">
        <ele>540</ele>
        <time>2022-05-24 12:22:25</time>
      </trkpt>
      <trkpt lat="41.04096" lon="0.7948">
        <ele>539.6</ele>
        <time>2022-05-24 12:22:26</time>
      </trkpt>
      <trkpt lat="41.04087" lon="0.7947">
        <ele>539</ele>
        <time>2022-05-24 12:22:27</time>
      </trkpt>
      <trkpt lat="41.04083" lon="0.79465">
        <ele>538.6</ele>
        <time>2022-05-24 12:22:28</time>
      </trkpt>
      <trkpt lat="41.04073" lon="0.79457">
        <ele>538</ele>
        <time>2022-05-24 12:22:29</time>
      </trkpt>
      <trkpt lat="41.04065" lon="0.79454">
        <ele>537.2</ele>
        <time>2022-05-24 12:22:30</time>
      </trkpt>
      <trkpt lat="41.04055" lon="0.79453">
        <ele>536.4</ele>
        <time>2022-05-24 12:22:31</time>
      </trkpt>
      <trkpt lat="41.04045" lon="0.79453">
        <ele>535.6</ele>
        <time>2022-05-24 12:22:32</time>
      </trkpt>
      <trkpt lat="41.04033" lon="0.79453">
        <ele>534.8</ele>
        <time>2022-05-24 12:22:33</time>
      </trkpt>
      <trkpt lat="41.04023" lon="0.79452">
        <ele>534</ele>
        <time>2022-05-24 12:22:34</time>
      </trkpt>
      <trkpt lat="41.04012" lon="0.79449">
        <ele>533.4</ele>
        <time>2022-05-24 12:22:35</time>
      </trkpt>
      <trkpt lat="41.04" lon="0.79447">
        <ele>532.6</ele>
        <time>2022-05-24 12:22:36</time>
      </trkpt>
      <trkpt lat="41.03989" lon="0.79443">
        <ele>531.6</ele>
        <time>2022-05-24 12:22:37</time>
      </trkpt>
      <trkpt lat="41.03978" lon="0.79441">
        <ele>530.8</ele>
        <time>2022-05-24 12:22:38</time>
      </trkpt>
      <trkpt lat="41.03966" lon="0.79438">
        <ele>529.8</ele>
        <time>2022-05-24 12:22:39</time>
      </trkpt>
      <trkpt lat="41.03955" lon="0.79435">
        <ele>528.8</ele>
        <time>2022-05-24 12:22:40</time>
      </trkpt>
      <trkpt lat="41.03943" lon="0.79432">
        <ele>528</ele>
        <time>2022-05-24 12:22:41</time>
      </trkpt>
      <trkpt lat="41.03931" lon="0.79429">
        <ele>527</ele>
        <time>2022-05-24 12:22:42</time>
      </trkpt>
      <trkpt lat="41.0392" lon="0.79426">
        <ele>526.2</ele>
        <time>2022-05-24 12:22:43</time>
      </trkpt>
      <trkpt lat="41.03909" lon="0.79424">
        <ele>525.4</ele>
        <time>2022-05-24 12:22:44</time>
      </trkpt>
      <trkpt lat="41.03896" lon="0.7942">
        <ele>524.4</ele>
        <time>2022-05-24 12:22:45</time>
      </trkpt>
      <trkpt lat="41.03885" lon="0.79414">
        <ele>523.4</ele>
        <time>2022-05-24 12:22:46</time>
      </trkpt>
      <trkpt lat="41.03875" lon="0.79406">
        <ele>522.6</ele>
        <time>2022-05-24 12:22:47</time>
      </trkpt>
      <trkpt lat="41.03867" lon="0.79395">
        <ele>521.4</ele>
        <time>2022-05-24 12:22:48</time>
      </trkpt>
      <trkpt lat="41.03864" lon="0.79378">
        <ele>520.4</ele>
        <time>2022-05-24 12:22:49</time>
      </trkpt>
      <trkpt lat="41.0386" lon="0.79363">
        <ele>519.8</ele>
        <time>2022-05-24 12:22:50</time>
      </trkpt>
      <trkpt lat="41.03858" lon="0.79346">
        <ele>519</ele>
        <time>2022-05-24 12:22:51</time>
      </trkpt>
      <trkpt lat="41.03854" lon="0.7933">
        <ele>518.6</ele>
        <time>2022-05-24 12:22:52</time>
      </trkpt>
      <trkpt lat="41.03851" lon="0.79317">
        <ele>518.4</ele>
        <time>2022-05-24 12:22:53</time>
      </trkpt>
      <trkpt lat="41.03847" lon="0.79303">
        <ele>518.4</ele>
        <time>2022-05-24 12:22:54</time>
      </trkpt>
      <trkpt lat="41.03844" lon="0.79291">
        <ele>518.4</ele>
        <time>2022-05-24 12:22:55</time>
      </trkpt>
      <trkpt lat="41.0384" lon="0.79283">
        <ele>518.6</ele>
        <time>2022-05-24 12:22:56</time>
      </trkpt>
      <trkpt lat="41.03833" lon="0.79276">
        <ele>518.8</ele>
        <time>2022-05-24 12:22:57</time>
      </trkpt>
      <trkpt lat="41.03827" lon="0.79277">
        <ele>519</ele>
        <time>2022-05-24 12:22:58</time>
      </trkpt>
      <trkpt lat="41.03819" lon="0.7928">
        <ele>519.2</ele>
        <time>2022-05-24 12:22:59</time>
      </trkpt>
      <trkpt lat="41.03813" lon="0.79282">
        <ele>519.2</ele>
        <time>2022-05-24 12:23:00</time>
      </trkpt>
      <trkpt lat="41.03805" lon="0.79285">
        <ele>519.4</ele>
        <time>2022-05-24 12:23:01</time>
      </trkpt>
      <trkpt lat="41.03801" lon="0.79289">
        <ele>519.4</ele>
        <time>2022-05-24 12:23:02</time>
      </trkpt>
      <trkpt lat="41.03795" lon="0.79294">
        <ele>519.6</ele>
        <time>2022-05-24 12:23:03</time>
      </trkpt>
      <trkpt lat="41.03791" lon="0.79297">
        <ele>519.6</ele>
        <time>2022-05-24 12:23:04</time>
      </trkpt>
      <trkpt lat="41.03783" lon="0.79299">
        <ele>519.6</ele>
        <time>2022-05-24 12:23:05</time>
      </trkpt>
      <trkpt lat="41.03779" lon="0.79299">
        <ele>519.6</ele>
        <time>2022-05-24 12:23:06</time>
      </trkpt>
      <trkpt lat="41.03773" lon="0.79297">
        <ele>519.6</ele>
        <time>2022-05-24 12:23:07</time>
      </trkpt>
      <trkpt lat="41.03769" lon="0.79293">
        <ele>519.6</ele>
        <time>2022-05-24 12:23:08</time>
      </trkpt>
      <trkpt lat="41.03765" lon="0.79286">
        <ele>519.6</ele>
        <time>2022-05-24 12:23:09</time>
      </trkpt>
      <trkpt lat="41.03762" lon="0.79282">
        <ele>519.6</ele>
        <time>2022-05-24 12:23:10</time>
      </trkpt>
      <trkpt lat="41.03758" lon="0.79275">
        <ele>519.8</ele>
        <time>2022-05-24 12:23:11</time>
      </trkpt>
      <trkpt lat="41.03755" lon="0.79271">
        <ele>519.8</ele>
        <time>2022-05-24 12:23:12</time>
      </trkpt>
      <trkpt lat="41.0375" lon="0.79264">
        <ele>519.8</ele>
        <time>2022-05-24 12:23:13</time>
      </trkpt>
      <trkpt lat="41.03747" lon="0.79259">
        <ele>519.8</ele>
        <time>2022-05-24 12:23:14</time>
      </trkpt>
      <trkpt lat="41.03744" lon="0.79253">
        <ele>519.4</ele>
        <time>2022-05-24 12:23:15</time>
      </trkpt>
      <trkpt lat="41.03744" lon="0.79248">
        <ele>519.2</ele>
        <time>2022-05-24 12:23:16</time>
      </trkpt>
      <trkpt lat="41.03744" lon="0.79241">
        <ele>519</ele>
        <time>2022-05-24 12:23:17</time>
      </trkpt>
      <trkpt lat="41.03746" lon="0.79236">
        <ele>519</ele>
        <time>2022-05-24 12:23:18</time>
      </trkpt>
      <trkpt lat="41.03748" lon="0.79232">
        <ele>518.8</ele>
        <time>2022-05-24 12:23:19</time>
      </trkpt>
      <trkpt lat="41.03752" lon="0.7923">
        <ele>519</ele>
        <time>2022-05-24 12:23:20</time>
      </trkpt>
      <trkpt lat="41.03756" lon="0.79229">
        <ele>519</ele>
        <time>2022-05-24 12:23:21</time>
      </trkpt>
      <trkpt lat="41.0376" lon="0.79228">
        <ele>519</ele>
        <time>2022-05-24 12:23:22</time>
      </trkpt>
      <trkpt lat="41.03764" lon="0.79228">
        <ele>519.2</ele>
        <time>2022-05-24 12:23:23</time>
      </trkpt>
      <trkpt lat="41.03767" lon="0.79228">
        <ele>519.2</ele>
        <time>2022-05-24 12:23:24</time>
      </trkpt>
      <trkpt lat="41.03772" lon="0.79228">
        <ele>519.4</ele>
        <time>2022-05-24 12:23:25</time>
      </trkpt>
      <trkpt lat="41.03776" lon="0.79227">
        <ele>519.4</ele>
        <time>2022-05-24 12:23:26</time>
      </trkpt>
      <trkpt lat="41.0378" lon="0.79226">
        <ele>519.4</ele>
        <time>2022-05-24 12:23:27</time>
      </trkpt>
      <trkpt lat="41.03784" lon="0.79225">
        <ele>519.6</ele>
        <time>2022-05-24 12:23:28</time>
      </trkpt>
      <trkpt lat="41.03788" lon="0.79223">
        <ele>519.6</ele>
        <time>2022-05-24 12:23:29</time>
      </trkpt>
      <trkpt lat="41.03791" lon="0.79222">
        <ele>519.6</ele>
        <time>2022-05-24 12:23:30</time>
      </trkpt>
      <trkpt lat="41.03796" lon="0.79219">
        <ele>519.8</ele>
        <time>2022-05-24 12:23:31</time>
      </trkpt>
      <trkpt lat="41.03799" lon="0.79217">
        <ele>519.8</ele>
        <time>2022-05-24 12:23:32</time>
      </trkpt>
      <trkpt lat="41.03803" lon="0.79214">
        <ele>519.8</ele>
        <time>2022-05-24 12:23:33</time>
      </trkpt>
      <trkpt lat="41.03808" lon="0.79211">
        <ele>519.8</ele>
        <time>2022-05-24 12:23:34</time>
      </trkpt>
      <trkpt lat="41.03811" lon="0.79208">
        <ele>519.8</ele>
        <time>2022-05-24 12:23:35</time>
      </trkpt>
      <trkpt lat="41.03815" lon="0.79205">
        <ele>519.8</ele>
        <time>2022-05-24 12:23:36</time>
      </trkpt>
      <trkpt lat="41.0382" lon="0.79202">
        <ele>519.8</ele>
        <time>2022-05-24 12:23:37</time>
      </trkpt>
      <trkpt lat="41.03822" lon="0.79201">
        <ele>519.8</ele>
        <time>2022-05-24 12:23:38</time>
      </trkpt>
      <trkpt lat="41.03828" lon="0.79196">
        <ele>519.8</ele>
        <time>2022-05-24 12:23:39</time>
      </trkpt>
      <trkpt lat="41.03831" lon="0.79193">
        <ele>520</ele>
        <time>2022-05-24 12:23:40</time>
      </trkpt>
      <trkpt lat="41.03836" lon="0.79189">
        <ele>520</ele>
        <time>2022-05-24 12:23:41</time>
      </trkpt>
      <trkpt lat="41.03838" lon="0.79186">
        <ele>520</ele>
        <time>2022-05-24 12:23:42</time>
      </trkpt>
      <trkpt lat="41.03843" lon="0.79182">
        <ele>520</ele>
        <time>2022-05-24 12:23:43</time>
      </trkpt>
      <trkpt lat="41.03846" lon="0.79178">
        <ele>520</ele>
        <time>2022-05-24 12:23:44</time>
      </trkpt>
      <trkpt lat="41.03849" lon="0.79175">
        <ele>520</ele>
        <time>2022-05-24 12:23:45</time>
      </trkpt>
      <trkpt lat="41.03853" lon="0.7917">
        <ele>519.8</ele>
        <time>2022-05-24 12:23:46</time>
      </trkpt>
      <trkpt lat="41.03856" lon="0.79165">
        <ele>519.8</ele>
        <time>2022-05-24 12:23:47</time>
      </trkpt>
      <trkpt lat="41.03859" lon="0.79162">
        <ele>519.8</ele>
        <time>2022-05-24 12:23:48</time>
      </trkpt>
      <trkpt lat="41.03862" lon="0.79156">
        <ele>519.6</ele>
        <time>2022-05-24 12:23:49</time>
      </trkpt>
      <trkpt lat="41.03865" lon="0.79152">
        <ele>519.6</ele>
        <time>2022-05-24 12:23:50</time>
      </trkpt>
      <trkpt lat="41.03869" lon="0.79146">
        <ele>519.4</ele>
        <time>2022-05-24 12:23:51</time>
      </trkpt>
      <trkpt lat="41.03872" lon="0.79142">
        <ele>519.2</ele>
        <time>2022-05-24 12:23:52</time>
      </trkpt>
      <trkpt lat="41.03877" lon="0.79136">
        <ele>519</ele>
        <time>2022-05-24 12:23:53</time>
      </trkpt>
      <trkpt lat="41.03879" lon="0.79132">
        <ele>519</ele>
        <time>2022-05-24 12:23:54</time>
      </trkpt>
      <trkpt lat="41.03883" lon="0.79125">
        <ele>518.6</ele>
        <time>2022-05-24 12:23:55</time>
      </trkpt>
      <trkpt lat="41.03885" lon="0.79121">
        <ele>518.6</ele>
        <time>2022-05-24 12:23:56</time>
      </trkpt>
      <trkpt lat="41.0389" lon="0.79114">
        <ele>518.4</ele>
        <time>2022-05-24 12:23:57</time>
      </trkpt>
      <trkpt lat="41.03893" lon="0.79109">
        <ele>518.2</ele>
        <time>2022-05-24 12:23:58</time>
      </trkpt>
      <trkpt lat="41.03897" lon="0.79103">
        <ele>518</ele>
        <time>2022-05-24 12:23:59</time>
      </trkpt>
      <trkpt lat="41.039" lon="0.79098">
        <ele>517.8</ele>
        <time>2022-05-24 12:24:00</time>
      </trkpt>
      <trkpt lat="41.03904" lon="0.7909">
        <ele>517.6</ele>
        <time>2022-05-24 12:24:01</time>
      </trkpt>
      <trkpt lat="41.03906" lon="0.79085">
        <ele>517.6</ele>
        <time>2022-05-24 12:24:02</time>
      </trkpt>
      <trkpt lat="41.03909" lon="0.79078">
        <ele>517.2</ele>
        <time>2022-05-24 12:24:03</time>
      </trkpt>
      <trkpt lat="41.03911" lon="0.79072">
        <ele>517</ele>
        <time>2022-05-24 12:24:04</time>
      </trkpt>
      <trkpt lat="41.03914" lon="0.79064">
        <ele>516.8</ele>
        <time>2022-05-24 12:24:05</time>
      </trkpt>
      <trkpt lat="41.03915" lon="0.79059">
        <ele>516.8</ele>
        <time>2022-05-24 12:24:06</time>
      </trkpt>
      <trkpt lat="41.03917" lon="0.7905">
        <ele>516.6</ele>
        <time>2022-05-24 12:24:07</time>
      </trkpt>
      <trkpt lat="41.03919" lon="0.79044">
        <ele>516.2</ele>
        <time>2022-05-24 12:24:08</time>
      </trkpt>
      <trkpt lat="41.03921" lon="0.79036">
        <ele>516</ele>
        <time>2022-05-24 12:24:09</time>
      </trkpt>
      <trkpt lat="41.03922" lon="0.7903">
        <ele>515.8</ele>
        <time>2022-05-24 12:24:10</time>
      </trkpt>
      <trkpt lat="41.03923" lon="0.79021">
        <ele>515.6</ele>
        <time>2022-05-24 12:24:11</time>
      </trkpt>
      <trkpt lat="41.03924" lon="0.79014">
        <ele>515.4</ele>
        <time>2022-05-24 12:24:12</time>
      </trkpt>
      <trkpt lat="41.03924" lon="0.79004">
        <ele>515</ele>
        <time>2022-05-24 12:24:13</time>
      </trkpt>
      <trkpt lat="41.03924" lon="0.78997">
        <ele>514.8</ele>
        <time>2022-05-24 12:24:14</time>
      </trkpt>
      <trkpt lat="41.03925" lon="0.78985">
        <ele>514.4</ele>
        <time>2022-05-24 12:24:15</time>
      </trkpt>
      <trkpt lat="41.03926" lon="0.78977">
        <ele>514.2</ele>
        <time>2022-05-24 12:24:16</time>
      </trkpt>
      <trkpt lat="41.03926" lon="0.78965">
        <ele>513.8</ele>
        <time>2022-05-24 12:24:17</time>
      </trkpt>
      <trkpt lat="41.03926" lon="0.78957">
        <ele>513.4</ele>
        <time>2022-05-24 12:24:18</time>
      </trkpt>
      <trkpt lat="41.03927" lon="0.78946">
        <ele>513.2</ele>
        <time>2022-05-24 12:24:19</time>
      </trkpt>
      <trkpt lat="41.03927" lon="0.78938">
        <ele>513</ele>
        <time>2022-05-24 12:24:20</time>
      </trkpt>
      <trkpt lat="41.03928" lon="0.78924">
        <ele>512.8</ele>
        <time>2022-05-24 12:24:21</time>
      </trkpt>
      <trkpt lat="41.03927" lon="0.78917">
        <ele>512.4</ele>
        <time>2022-05-24 12:24:22</time>
      </trkpt>
      <trkpt lat="41.03927" lon="0.78903">
        <ele>512.2</ele>
        <time>2022-05-24 12:24:23</time>
      </trkpt>
      <trkpt lat="41.03927" lon="0.78896">
        <ele>512</ele>
        <time>2022-05-24 12:24:24</time>
      </trkpt>
      <trkpt lat="41.03925" lon="0.78882">
        <ele>511.6</ele>
        <time>2022-05-24 12:24:25</time>
      </trkpt>
      <trkpt lat="41.03924" lon="0.78875">
        <ele>511.4</ele>
        <time>2022-05-24 12:24:26</time>
      </trkpt>
      <trkpt lat="41.03922" lon="0.78862">
        <ele>511</ele>
        <time>2022-05-24 12:24:27</time>
      </trkpt>
      <trkpt lat="41.0392" lon="0.78854">
        <ele>510.8</ele>
        <time>2022-05-24 12:24:28</time>
      </trkpt>
      <trkpt lat="41.03917" lon="0.78842">
        <ele>510.4</ele>
        <time>2022-05-24 12:24:29</time>
      </trkpt>
      <trkpt lat="41.03914" lon="0.78834">
        <ele>510.2</ele>
        <time>2022-05-24 12:24:30</time>
      </trkpt>
      <trkpt lat="41.0391" lon="0.78823">
        <ele>509.8</ele>
        <time>2022-05-24 12:24:31</time>
      </trkpt>
      <trkpt lat="41.03907" lon="0.78817">
        <ele>509.4</ele>
        <time>2022-05-24 12:24:32</time>
      </trkpt>
      <trkpt lat="41.03902" lon="0.78806">
        <ele>509.2</ele>
        <time>2022-05-24 12:24:33</time>
      </trkpt>
      <trkpt lat="41.03899" lon="0.788">
        <ele>508.8</ele>
        <time>2022-05-24 12:24:34</time>
      </trkpt>
      <trkpt lat="41.03893" lon="0.78789">
        <ele>508.6</ele>
        <time>2022-05-24 12:24:35</time>
      </trkpt>
      <trkpt lat="41.0389" lon="0.78783">
        <ele>508.4</ele>
        <time>2022-05-24 12:24:36</time>
      </trkpt>
      <trkpt lat="41.03884" lon="0.78773">
        <ele>508</ele>
        <time>2022-05-24 12:24:37</time>
      </trkpt>
      <trkpt lat="41.0388" lon="0.78767">
        <ele>507.6</ele>
        <time>2022-05-24 12:24:38</time>
      </trkpt>
      <trkpt lat="41.03874" lon="0.78757">
        <ele>507.2</ele>
        <time>2022-05-24 12:24:39</time>
      </trkpt>
      <trkpt lat="41.0387" lon="0.7875">
        <ele>506.8</ele>
        <time>2022-05-24 12:24:40</time>
      </trkpt>
      <trkpt lat="41.03864" lon="0.7874">
        <ele>506.6</ele>
        <time>2022-05-24 12:24:41</time>
      </trkpt>
      <trkpt lat="41.03861" lon="0.78734">
        <ele>506.2</ele>
        <time>2022-05-24 12:24:42</time>
      </trkpt>
      <trkpt lat="41.03855" lon="0.78724">
        <ele>506</ele>
        <time>2022-05-24 12:24:43</time>
      </trkpt>
      <trkpt lat="41.03851" lon="0.78718">
        <ele>505.8</ele>
        <time>2022-05-24 12:24:44</time>
      </trkpt>
      <trkpt lat="41.03845" lon="0.78707">
        <ele>505.4</ele>
        <time>2022-05-24 12:24:45</time>
      </trkpt>
      <trkpt lat="41.03841" lon="0.78701">
        <ele>505.2</ele>
        <time>2022-05-24 12:24:46</time>
      </trkpt>
      <trkpt lat="41.03835" lon="0.78691">
        <ele>505</ele>
        <time>2022-05-24 12:24:47</time>
      </trkpt>
      <trkpt lat="41.03832" lon="0.78684">
        <ele>504.8</ele>
        <time>2022-05-24 12:24:48</time>
      </trkpt>
      <trkpt lat="41.03825" lon="0.78672">
        <ele>504.2</ele>
        <time>2022-05-24 12:24:49</time>
      </trkpt>
      <trkpt lat="41.03822" lon="0.78665">
        <ele>503.8</ele>
        <time>2022-05-24 12:24:50</time>
      </trkpt>
      <trkpt lat="41.03815" lon="0.78653">
        <ele>503.4</ele>
        <time>2022-05-24 12:24:51</time>
      </trkpt>
      <trkpt lat="41.03812" lon="0.78646">
        <ele>503</ele>
        <time>2022-05-24 12:24:52</time>
      </trkpt>
      <trkpt lat="41.03807" lon="0.78636">
        <ele>502.4</ele>
        <time>2022-05-24 12:24:53</time>
      </trkpt>
      <trkpt lat="41.03801" lon="0.78623">
        <ele>502</ele>
        <time>2022-05-24 12:24:54</time>
      </trkpt>
      <trkpt lat="41.03797" lon="0.78614">
        <ele>501.6</ele>
        <time>2022-05-24 12:24:55</time>
      </trkpt>
      <trkpt lat="41.03792" lon="0.78605">
        <ele>501.2</ele>
        <time>2022-05-24 12:24:56</time>
      </trkpt>
      <trkpt lat="41.03787" lon="0.78591">
        <ele>500.8</ele>
        <time>2022-05-24 12:24:57</time>
      </trkpt>
      <trkpt lat="41.03784" lon="0.78584">
        <ele>500.6</ele>
        <time>2022-05-24 12:24:58</time>
      </trkpt>
      <trkpt lat="41.0378" lon="0.78573">
        <ele>500.2</ele>
        <time>2022-05-24 12:24:59</time>
      </trkpt>
      <trkpt lat="41.03775" lon="0.78562">
        <ele>499.8</ele>
        <time>2022-05-24 12:25:00</time>
      </trkpt>
      <trkpt lat="41.03772" lon="0.78552">
        <ele>499.4</ele>
        <time>2022-05-24 12:25:01</time>
      </trkpt>
      <trkpt lat="41.03767" lon="0.78538">
        <ele>499</ele>
        <time>2022-05-24 12:25:02</time>
      </trkpt>
      <trkpt lat="41.03764" lon="0.7853">
        <ele>498.8</ele>
        <time>2022-05-24 12:25:03</time>
      </trkpt>
      <trkpt lat="41.0376" lon="0.78517">
        <ele>498.6</ele>
        <time>2022-05-24 12:25:04</time>
      </trkpt>
      <trkpt lat="41.03758" lon="0.78509">
        <ele>498.4</ele>
        <time>2022-05-24 12:25:05</time>
      </trkpt>
      <trkpt lat="41.03755" lon="0.785">
        <ele>498</ele>
        <time>2022-05-24 12:25:06</time>
      </trkpt>
      <trkpt lat="41.0375" lon="0.78486">
        <ele>497.8</ele>
        <time>2022-05-24 12:25:07</time>
      </trkpt>
      <trkpt lat="41.03748" lon="0.78477">
        <ele>497.6</ele>
        <time>2022-05-24 12:25:08</time>
      </trkpt>
      <trkpt lat="41.03745" lon="0.78464">
        <ele>497.4</ele>
        <time>2022-05-24 12:25:09</time>
      </trkpt>
      <trkpt lat="41.03743" lon="0.78458">
        <ele>497.2</ele>
        <time>2022-05-24 12:25:10</time>
      </trkpt>
      <trkpt lat="41.03738" lon="0.78444">
        <ele>497</ele>
        <time>2022-05-24 12:25:11</time>
      </trkpt>
      <trkpt lat="41.03736" lon="0.78436">
        <ele>496.6</ele>
        <time>2022-05-24 12:25:12</time>
      </trkpt>
      <trkpt lat="41.03731" lon="0.78425">
        <ele>496.4</ele>
        <time>2022-05-24 12:25:13</time>
      </trkpt>
      <trkpt lat="41.03729" lon="0.78417">
        <ele>496</ele>
        <time>2022-05-24 12:25:14</time>
      </trkpt>
      <trkpt lat="41.03724" lon="0.78404">
        <ele>495.8</ele>
        <time>2022-05-24 12:25:15</time>
      </trkpt>
      <trkpt lat="41.03722" lon="0.78396">
        <ele>495.2</ele>
        <time>2022-05-24 12:25:16</time>
      </trkpt>
      <trkpt lat="41.03717" lon="0.78383">
        <ele>494.8</ele>
        <time>2022-05-24 12:25:17</time>
      </trkpt>
      <trkpt lat="41.03714" lon="0.78375">
        <ele>494.2</ele>
        <time>2022-05-24 12:25:18</time>
      </trkpt>
      <trkpt lat="41.0371" lon="0.78362">
        <ele>493.8</ele>
        <time>2022-05-24 12:25:19</time>
      </trkpt>
      <trkpt lat="41.03707" lon="0.78354">
        <ele>493.4</ele>
        <time>2022-05-24 12:25:20</time>
      </trkpt>
      <trkpt lat="41.03705" lon="0.78344">
        <ele>492.8</ele>
        <time>2022-05-24 12:25:21</time>
      </trkpt>
      <trkpt lat="41.03702" lon="0.78333">
        <ele>492.2</ele>
        <time>2022-05-24 12:25:22</time>
      </trkpt>
      <trkpt lat="41.03698" lon="0.78319">
        <ele>491.4</ele>
        <time>2022-05-24 12:25:23</time>
      </trkpt>
      <trkpt lat="41.03695" lon="0.78307">
        <ele>490.6</ele>
        <time>2022-05-24 12:25:24</time>
      </trkpt>
      <trkpt lat="41.03693" lon="0.78295">
        <ele>490</ele>
        <time>2022-05-24 12:25:25</time>
      </trkpt>
      <trkpt lat="41.03691" lon="0.78283">
        <ele>489.2</ele>
        <time>2022-05-24 12:25:26</time>
      </trkpt>
      <trkpt lat="41.0369" lon="0.7827">
        <ele>488.4</ele>
        <time>2022-05-24 12:25:27</time>
      </trkpt>
      <trkpt lat="41.03689" lon="0.78258">
        <ele>487.6</ele>
        <time>2022-05-24 12:25:28</time>
      </trkpt>
      <trkpt lat="41.03688" lon="0.78245">
        <ele>486.6</ele>
        <time>2022-05-24 12:25:29</time>
      </trkpt>
      <trkpt lat="41.03688" lon="0.78231">
        <ele>485.8</ele>
        <time>2022-05-24 12:25:30</time>
      </trkpt>
      <trkpt lat="41.03689" lon="0.78216">
        <ele>484.8</ele>
        <time>2022-05-24 12:25:31</time>
      </trkpt>
      <trkpt lat="41.03691" lon="0.782">
        <ele>484</ele>
        <time>2022-05-24 12:25:32</time>
      </trkpt>
      <trkpt lat="41.03693" lon="0.78185">
        <ele>482.8</ele>
        <time>2022-05-24 12:25:33</time>
      </trkpt>
      <trkpt lat="41.03696" lon="0.78169">
        <ele>481.6</ele>
        <time>2022-05-24 12:25:34</time>
      </trkpt>
      <trkpt lat="41.037" lon="0.78155">
        <ele>480.4</ele>
        <time>2022-05-24 12:25:35</time>
      </trkpt>
      <trkpt lat="41.03705" lon="0.78141">
        <ele>479.2</ele>
        <time>2022-05-24 12:25:36</time>
      </trkpt>
      <trkpt lat="41.03711" lon="0.78126">
        <ele>478.2</ele>
        <time>2022-05-24 12:25:37</time>
      </trkpt>
      <trkpt lat="41.03718" lon="0.78109">
        <ele>477</ele>
        <time>2022-05-24 12:25:38</time>
      </trkpt>
      <trkpt lat="41.03726" lon="0.78094">
        <ele>475.8</ele>
        <time>2022-05-24 12:25:39</time>
      </trkpt>
      <trkpt lat="41.03735" lon="0.78082">
        <ele>474.8</ele>
        <time>2022-05-24 12:25:40</time>
      </trkpt>
      <trkpt lat="41.03743" lon="0.78069">
        <ele>473.8</ele>
        <time>2022-05-24 12:25:41</time>
      </trkpt>
      <trkpt lat="41.03752" lon="0.78058">
        <ele>472.8</ele>
        <time>2022-05-24 12:25:42</time>
      </trkpt>
      <trkpt lat="41.03761" lon="0.78046">
        <ele>472</ele>
        <time>2022-05-24 12:25:43</time>
      </trkpt>
      <trkpt lat="41.03771" lon="0.78035">
        <ele>471</ele>
        <time>2022-05-24 12:25:44</time>
      </trkpt>
      <trkpt lat="41.0378" lon="0.78024">
        <ele>469.8</ele>
        <time>2022-05-24 12:25:45</time>
      </trkpt>
      <trkpt lat="41.0379" lon="0.78015">
        <ele>468.8</ele>
        <time>2022-05-24 12:25:46</time>
      </trkpt>
      <trkpt lat="41.038" lon="0.78006">
        <ele>467.4</ele>
        <time>2022-05-24 12:25:47</time>
      </trkpt>
      <trkpt lat="41.03809" lon="0.77995">
        <ele>466.4</ele>
        <time>2022-05-24 12:25:48</time>
      </trkpt>
      <trkpt lat="41.03818" lon="0.77982">
        <ele>465.4</ele>
        <time>2022-05-24 12:25:49</time>
      </trkpt>
      <trkpt lat="41.03825" lon="0.77968">
        <ele>464.4</ele>
        <time>2022-05-24 12:25:50</time>
      </trkpt>
      <trkpt lat="41.03832" lon="0.77955">
        <ele>463.2</ele>
        <time>2022-05-24 12:25:51</time>
      </trkpt>
      <trkpt lat="41.03838" lon="0.77939">
        <ele>462.2</ele>
        <time>2022-05-24 12:25:52</time>
      </trkpt>
      <trkpt lat="41.03843" lon="0.77924">
        <ele>461.2</ele>
        <time>2022-05-24 12:25:53</time>
      </trkpt>
      <trkpt lat="41.03846" lon="0.77908">
        <ele>460.6</ele>
        <time>2022-05-24 12:25:54</time>
      </trkpt>
      <trkpt lat="41.03848" lon="0.7789">
        <ele>459.6</ele>
        <time>2022-05-24 12:25:55</time>
      </trkpt>
      <trkpt lat="41.0385" lon="0.77873">
        <ele>458.4</ele>
        <time>2022-05-24 12:25:56</time>
      </trkpt>
      <trkpt lat="41.03851" lon="0.77856">
        <ele>457.2</ele>
        <time>2022-05-24 12:25:57</time>
      </trkpt>
      <trkpt lat="41.03852" lon="0.77836">
        <ele>455.8</ele>
        <time>2022-05-24 12:25:58</time>
      </trkpt>
      <trkpt lat="41.03853" lon="0.7782">
        <ele>454.6</ele>
        <time>2022-05-24 12:25:59</time>
      </trkpt>
      <trkpt lat="41.03853" lon="0.77804">
        <ele>453.6</ele>
        <time>2022-05-24 12:26:00</time>
      </trkpt>
      <trkpt lat="41.03853" lon="0.77787">
        <ele>452.6</ele>
        <time>2022-05-24 12:26:01</time>
      </trkpt>
      <trkpt lat="41.03853" lon="0.7777">
        <ele>451.8</ele>
        <time>2022-05-24 12:26:02</time>
      </trkpt>
      <trkpt lat="41.03855" lon="0.7775">
        <ele>450.6</ele>
        <time>2022-05-24 12:26:03</time>
      </trkpt>
      <trkpt lat="41.03856" lon="0.77728">
        <ele>449.6</ele>
        <time>2022-05-24 12:26:04</time>
      </trkpt>
      <trkpt lat="41.0386" lon="0.7771">
        <ele>448.8</ele>
        <time>2022-05-24 12:26:05</time>
      </trkpt>
      <trkpt lat="41.03866" lon="0.77694">
        <ele>448</ele>
        <time>2022-05-24 12:26:06</time>
      </trkpt>
      <trkpt lat="41.03875" lon="0.7768">
        <ele>447.2</ele>
        <time>2022-05-24 12:26:07</time>
      </trkpt>
      <trkpt lat="41.03884" lon="0.77669">
        <ele>446.4</ele>
        <time>2022-05-24 12:26:08</time>
      </trkpt>
      <trkpt lat="41.03894" lon="0.7766">
        <ele>445.6</ele>
        <time>2022-05-24 12:26:09</time>
      </trkpt>
      <trkpt lat="41.03906" lon="0.7765">
        <ele>445</ele>
        <time>2022-05-24 12:26:10</time>
      </trkpt>
      <trkpt lat="41.03918" lon="0.77642">
        <ele>444.4</ele>
        <time>2022-05-24 12:26:11</time>
      </trkpt>
      <trkpt lat="41.03929" lon="0.77634">
        <ele>443.8</ele>
        <time>2022-05-24 12:26:12</time>
      </trkpt>
      <trkpt lat="41.03939" lon="0.77627">
        <ele>443.2</ele>
        <time>2022-05-24 12:26:13</time>
      </trkpt>
      <trkpt lat="41.03949" lon="0.77618">
        <ele>442.6</ele>
        <time>2022-05-24 12:26:14</time>
      </trkpt>
      <trkpt lat="41.03959" lon="0.77609">
        <ele>442.2</ele>
        <time>2022-05-24 12:26:15</time>
      </trkpt>
      <trkpt lat="41.03968" lon="0.77599">
        <ele>441.6</ele>
        <time>2022-05-24 12:26:16</time>
      </trkpt>
      <trkpt lat="41.03976" lon="0.77587">
        <ele>441</ele>
        <time>2022-05-24 12:26:17</time>
      </trkpt>
      <trkpt lat="41.03984" lon="0.77575">
        <ele>440.6</ele>
        <time>2022-05-24 12:26:18</time>
      </trkpt>
      <trkpt lat="41.0399" lon="0.77561">
        <ele>440</ele>
        <time>2022-05-24 12:26:19</time>
      </trkpt>
      <trkpt lat="41.03994" lon="0.77546">
        <ele>439.2</ele>
        <time>2022-05-24 12:26:20</time>
      </trkpt>
      <trkpt lat="41.03998" lon="0.77532">
        <ele>438.6</ele>
        <time>2022-05-24 12:26:21</time>
      </trkpt>
      <trkpt lat="41.04" lon="0.77517">
        <ele>438</ele>
        <time>2022-05-24 12:26:22</time>
      </trkpt>
      <trkpt lat="41.04001" lon="0.77503">
        <ele>437.4</ele>
        <time>2022-05-24 12:26:23</time>
      </trkpt>
      <trkpt lat="41.04002" lon="0.77487">
        <ele>436.8</ele>
        <time>2022-05-24 12:26:24</time>
      </trkpt>
      <trkpt lat="41.04004" lon="0.77472">
        <ele>436.2</ele>
        <time>2022-05-24 12:26:25</time>
      </trkpt>
      <trkpt lat="41.04005" lon="0.77456">
        <ele>435.4</ele>
        <time>2022-05-24 12:26:26</time>
      </trkpt>
      <trkpt lat="41.04007" lon="0.77441">
        <ele>435.2</ele>
        <time>2022-05-24 12:26:27</time>
      </trkpt>
      <trkpt lat="41.04009" lon="0.77426">
        <ele>434.6</ele>
        <time>2022-05-24 12:26:28</time>
      </trkpt>
      <trkpt lat="41.0401" lon="0.77411">
        <ele>434</ele>
        <time>2022-05-24 12:26:29</time>
      </trkpt>
      <trkpt lat="41.04012" lon="0.77396">
        <ele>433.4</ele>
        <time>2022-05-24 12:26:30</time>
      </trkpt>
      <trkpt lat="41.04013" lon="0.77382">
        <ele>433</ele>
        <time>2022-05-24 12:26:31</time>
      </trkpt>
      <trkpt lat="41.04015" lon="0.77368">
        <ele>432.6</ele>
        <time>2022-05-24 12:26:32</time>
      </trkpt>
      <trkpt lat="41.04016" lon="0.77355">
        <ele>432.2</ele>
        <time>2022-05-24 12:26:33</time>
      </trkpt>
      <trkpt lat="41.04019" lon="0.77341">
        <ele>432</ele>
        <time>2022-05-24 12:26:34</time>
      </trkpt>
      <trkpt lat="41.0402" lon="0.77327">
        <ele>431.8</ele>
        <time>2022-05-24 12:26:35</time>
      </trkpt>
      <trkpt lat="41.0402" lon="0.77313">
        <ele>431.6</ele>
        <time>2022-05-24 12:26:36</time>
      </trkpt>
      <trkpt lat="41.04022" lon="0.77298">
        <ele>431.2</ele>
        <time>2022-05-24 12:26:37</time>
      </trkpt>
      <trkpt lat="41.04023" lon="0.77284">
        <ele>431</ele>
        <time>2022-05-24 12:26:38</time>
      </trkpt>
      <trkpt lat="41.04025" lon="0.7727">
        <ele>430.8</ele>
        <time>2022-05-24 12:26:39</time>
      </trkpt>
      <trkpt lat="41.04026" lon="0.77256">
        <ele>430.6</ele>
        <time>2022-05-24 12:26:40</time>
      </trkpt>
      <trkpt lat="41.04027" lon="0.77241">
        <ele>430.2</ele>
        <time>2022-05-24 12:26:41</time>
      </trkpt>
      <trkpt lat="41.04028" lon="0.77228">
        <ele>430</ele>
        <time>2022-05-24 12:26:42</time>
      </trkpt>
      <trkpt lat="41.04028" lon="0.77215">
        <ele>429.8</ele>
        <time>2022-05-24 12:26:43</time>
      </trkpt>
      <trkpt lat="41.04029" lon="0.77202">
        <ele>429.6</ele>
        <time>2022-05-24 12:26:44</time>
      </trkpt>
      <trkpt lat="41.0403" lon="0.77189">
        <ele>429.4</ele>
        <time>2022-05-24 12:26:45</time>
      </trkpt>
      <trkpt lat="41.04031" lon="0.77176">
        <ele>429.4</ele>
        <time>2022-05-24 12:26:46</time>
      </trkpt>
      <trkpt lat="41.04032" lon="0.77163">
        <ele>429.2</ele>
        <time>2022-05-24 12:26:47</time>
      </trkpt>
      <trkpt lat="41.04032" lon="0.77151">
        <ele>429</ele>
        <time>2022-05-24 12:26:48</time>
      </trkpt>
      <trkpt lat="41.04032" lon="0.77138">
        <ele>429</ele>
        <time>2022-05-24 12:26:49</time>
      </trkpt>
      <trkpt lat="41.04033" lon="0.77126">
        <ele>429</ele>
        <time>2022-05-24 12:26:50</time>
      </trkpt>
      <trkpt lat="41.04033" lon="0.77115">
        <ele>429</ele>
        <time>2022-05-24 12:26:51</time>
      </trkpt>
      <trkpt lat="41.04033" lon="0.77104">
        <ele>429</ele>
        <time>2022-05-24 12:26:52</time>
      </trkpt>
      <trkpt lat="41.04033" lon="0.77092">
        <ele>428.8</ele>
        <time>2022-05-24 12:26:53</time>
      </trkpt>
      <trkpt lat="41.04033" lon="0.7708">
        <ele>428.8</ele>
        <time>2022-05-24 12:26:54</time>
      </trkpt>
      <trkpt lat="41.04033" lon="0.77068">
        <ele>428.8</ele>
        <time>2022-05-24 12:26:55</time>
      </trkpt>
      <trkpt lat="41.04034" lon="0.77057">
        <ele>428.6</ele>
        <time>2022-05-24 12:26:56</time>
      </trkpt>
      <trkpt lat="41.04034" lon="0.77045">
        <ele>428.6</ele>
        <time>2022-05-24 12:26:57</time>
      </trkpt>
      <trkpt lat="41.04034" lon="0.77033">
        <ele>428.4</ele>
        <time>2022-05-24 12:26:58</time>
      </trkpt>
      <trkpt lat="41.04034" lon="0.77022">
        <ele>428.4</ele>
        <time>2022-05-24 12:26:59</time>
      </trkpt>
      <trkpt lat="41.04034" lon="0.77012">
        <ele>428.4</ele>
        <time>2022-05-24 12:27:00</time>
      </trkpt>
      <trkpt lat="41.04035" lon="0.77002">
        <ele>428.4</ele>
        <time>2022-05-24 12:27:01</time>
      </trkpt>
      <trkpt lat="41.04035" lon="0.76992">
        <ele>428.4</ele>
        <time>2022-05-24 12:27:02</time>
      </trkpt>
      <trkpt lat="41.04035" lon="0.76984">
        <ele>428.4</ele>
        <time>2022-05-24 12:27:03</time>
      </trkpt>
      <trkpt lat="41.04035" lon="0.76974">
        <ele>428.6</ele>
        <time>2022-05-24 12:27:04</time>
      </trkpt>
      <trkpt lat="41.04035" lon="0.76963">
        <ele>428.6</ele>
        <time>2022-05-24 12:27:05</time>
      </trkpt>
      <trkpt lat="41.04035" lon="0.76953">
        <ele>428.6</ele>
        <time>2022-05-24 12:27:06</time>
      </trkpt>
      <trkpt lat="41.04035" lon="0.76943">
        <ele>428.6</ele>
        <time>2022-05-24 12:27:07</time>
      </trkpt>
      <trkpt lat="41.04036" lon="0.76934">
        <ele>428.6</ele>
        <time>2022-05-24 12:27:08</time>
      </trkpt>
      <trkpt lat="41.04036" lon="0.76924">
        <ele>428.8</ele>
        <time>2022-05-24 12:27:09</time>
      </trkpt>
      <trkpt lat="41.04036" lon="0.76915">
        <ele>428.8</ele>
        <time>2022-05-24 12:27:10</time>
      </trkpt>
      <trkpt lat="41.04036" lon="0.76906">
        <ele>428.8</ele>
        <time>2022-05-24 12:27:11</time>
      </trkpt>
      <trkpt lat="41.04036" lon="0.76896">
        <ele>428.8</ele>
        <time>2022-05-24 12:27:12</time>
      </trkpt>
      <trkpt lat="41.04037" lon="0.76887">
        <ele>429</ele>
        <time>2022-05-24 12:27:13</time>
      </trkpt>
      <trkpt lat="41.04037" lon="0.76877">
        <ele>429</ele>
        <time>2022-05-24 12:27:14</time>
      </trkpt>
      <trkpt lat="41.04037" lon="0.76867">
        <ele>429</ele>
        <time>2022-05-24 12:27:15</time>
      </trkpt>
      <trkpt lat="41.04037" lon="0.76858">
        <ele>429.2</ele>
        <time>2022-05-24 12:27:16</time>
      </trkpt>
      <trkpt lat="41.04037" lon="0.76848">
        <ele>429.2</ele>
        <time>2022-05-24 12:27:17</time>
      </trkpt>
      <trkpt lat="41.04037" lon="0.76838">
        <ele>429.4</ele>
        <time>2022-05-24 12:27:18</time>
      </trkpt>
      <trkpt lat="41.04037" lon="0.76829">
        <ele>429.4</ele>
        <time>2022-05-24 12:27:19</time>
      </trkpt>
      <trkpt lat="41.04038" lon="0.76819">
        <ele>429.4</ele>
        <time>2022-05-24 12:27:20</time>
      </trkpt>
      <trkpt lat="41.04038" lon="0.7681">
        <ele>429.6</ele>
        <time>2022-05-24 12:27:21</time>
      </trkpt>
      <trkpt lat="41.04038" lon="0.76801">
        <ele>429.6</ele>
        <time>2022-05-24 12:27:22</time>
      </trkpt>
      <trkpt lat="41.04039" lon="0.76791">
        <ele>429.6</ele>
        <time>2022-05-24 12:27:23</time>
      </trkpt>
      <trkpt lat="41.04039" lon="0.76782">
        <ele>429.6</ele>
        <time>2022-05-24 12:27:24</time>
      </trkpt>
      <trkpt lat="41.04039" lon="0.76773">
        <ele>429.6</ele>
        <time>2022-05-24 12:27:25</time>
      </trkpt>
      <trkpt lat="41.04039" lon="0.76763">
        <ele>429.6</ele>
        <time>2022-05-24 12:27:26</time>
      </trkpt>
      <trkpt lat="41.04039" lon="0.76754">
        <ele>429.6</ele>
        <time>2022-05-24 12:27:27</time>
      </trkpt>
      <trkpt lat="41.04039" lon="0.76743">
        <ele>429.6</ele>
        <time>2022-05-24 12:27:28</time>
      </trkpt>
      <trkpt lat="41.04038" lon="0.76734">
        <ele>429.6</ele>
        <time>2022-05-24 12:27:29</time>
      </trkpt>
      <trkpt lat="41.04037" lon="0.76725">
        <ele>429.6</ele>
        <time>2022-05-24 12:27:30</time>
      </trkpt>
      <trkpt lat="41.04037" lon="0.76715">
        <ele>429.6</ele>
        <time>2022-05-24 12:27:31</time>
      </trkpt>
      <trkpt lat="41.04035" lon="0.76706">
        <ele>429.4</ele>
        <time>2022-05-24 12:27:32</time>
      </trkpt>
      <trkpt lat="41.04034" lon="0.76697">
        <ele>429.4</ele>
        <time>2022-05-24 12:27:33</time>
      </trkpt>
      <trkpt lat="41.04031" lon="0.76687">
        <ele>429.2</ele>
        <time>2022-05-24 12:27:34</time>
      </trkpt>
      <trkpt lat="41.04029" lon="0.76678">
        <ele>429.2</ele>
        <time>2022-05-24 12:27:35</time>
      </trkpt>
      <trkpt lat="41.04026" lon="0.76669">
        <ele>429</ele>
        <time>2022-05-24 12:27:36</time>
      </trkpt>
      <trkpt lat="41.04022" lon="0.76659">
        <ele>429</ele>
        <time>2022-05-24 12:27:37</time>
      </trkpt>
      <trkpt lat="41.04018" lon="0.7665">
        <ele>428.8</ele>
        <time>2022-05-24 12:27:38</time>
      </trkpt>
      <trkpt lat="41.04014" lon="0.76641">
        <ele>428.6</ele>
        <time>2022-05-24 12:27:39</time>
      </trkpt>
      <trkpt lat="41.0401" lon="0.76633">
        <ele>428.2</ele>
        <time>2022-05-24 12:27:40</time>
      </trkpt>
      <trkpt lat="41.04005" lon="0.76624">
        <ele>428</ele>
        <time>2022-05-24 12:27:41</time>
      </trkpt>
      <trkpt lat="41.04" lon="0.76616">
        <ele>427.8</ele>
        <time>2022-05-24 12:27:42</time>
      </trkpt>
      <trkpt lat="41.03995" lon="0.76607">
        <ele>427.4</ele>
        <time>2022-05-24 12:27:43</time>
      </trkpt>
      <trkpt lat="41.03989" lon="0.76598">
        <ele>427.2</ele>
        <time>2022-05-24 12:27:44</time>
      </trkpt>
      <trkpt lat="41.03984" lon="0.7659">
        <ele>426.8</ele>
        <time>2022-05-24 12:27:45</time>
      </trkpt>
      <trkpt lat="41.03977" lon="0.76582">
        <ele>426.4</ele>
        <time>2022-05-24 12:27:46</time>
      </trkpt>
      <trkpt lat="41.03971" lon="0.76575">
        <ele>426</ele>
        <time>2022-05-24 12:27:47</time>
      </trkpt>
      <trkpt lat="41.03963" lon="0.76568">
        <ele>425.6</ele>
        <time>2022-05-24 12:27:48</time>
      </trkpt>
      <trkpt lat="41.03955" lon="0.76561">
        <ele>425</ele>
        <time>2022-05-24 12:27:49</time>
      </trkpt>
      <trkpt lat="41.03947" lon="0.76554">
        <ele>424.4</ele>
        <time>2022-05-24 12:27:50</time>
      </trkpt>
      <trkpt lat="41.03939" lon="0.76548">
        <ele>423.6</ele>
        <time>2022-05-24 12:27:51</time>
      </trkpt>
      <trkpt lat="41.0393" lon="0.76542">
        <ele>423</ele>
        <time>2022-05-24 12:27:52</time>
      </trkpt>
      <trkpt lat="41.0392" lon="0.76536">
        <ele>422.2</ele>
        <time>2022-05-24 12:27:53</time>
      </trkpt>
      <trkpt lat="41.03911" lon="0.76531">
        <ele>421.6</ele>
        <time>2022-05-24 12:27:54</time>
      </trkpt>
      <trkpt lat="41.03901" lon="0.76525">
        <ele>420.8</ele>
        <time>2022-05-24 12:27:55</time>
      </trkpt>
      <trkpt lat="41.03891" lon="0.76519">
        <ele>419.8</ele>
        <time>2022-05-24 12:27:56</time>
      </trkpt>
      <trkpt lat="41.03881" lon="0.76512">
        <ele>419.2</ele>
        <time>2022-05-24 12:27:57</time>
      </trkpt>
      <trkpt lat="41.03871" lon="0.76505">
        <ele>418.2</ele>
        <time>2022-05-24 12:27:58</time>
      </trkpt>
      <trkpt lat="41.0386" lon="0.76498">
        <ele>417</ele>
        <time>2022-05-24 12:27:59</time>
      </trkpt>
      <trkpt lat="41.0385" lon="0.7649">
        <ele>415.8</ele>
        <time>2022-05-24 12:28:00</time>
      </trkpt>
      <trkpt lat="41.0384" lon="0.7648">
        <ele>414.6</ele>
        <time>2022-05-24 12:28:01</time>
      </trkpt>
      <trkpt lat="41.03831" lon="0.76471">
        <ele>413.4</ele>
        <time>2022-05-24 12:28:02</time>
      </trkpt>
      <trkpt lat="41.03822" lon="0.76462">
        <ele>412.2</ele>
        <time>2022-05-24 12:28:03</time>
      </trkpt>
      <trkpt lat="41.03812" lon="0.7645">
        <ele>411.2</ele>
        <time>2022-05-24 12:28:04</time>
      </trkpt>
      <trkpt lat="41.03803" lon="0.76438">
        <ele>410</ele>
        <time>2022-05-24 12:28:05</time>
      </trkpt>
      <trkpt lat="41.03795" lon="0.76424">
        <ele>408.6</ele>
        <time>2022-05-24 12:28:06</time>
      </trkpt>
      <trkpt lat="41.03788" lon="0.7641">
        <ele>407.8</ele>
        <time>2022-05-24 12:28:07</time>
      </trkpt>
      <trkpt lat="41.03781" lon="0.76394">
        <ele>406.6</ele>
        <time>2022-05-24 12:28:08</time>
      </trkpt>
      <trkpt lat="41.03775" lon="0.76379">
        <ele>405.2</ele>
        <time>2022-05-24 12:28:09</time>
      </trkpt>
      <trkpt lat="41.03768" lon="0.76361">
        <ele>403.8</ele>
        <time>2022-05-24 12:28:10</time>
      </trkpt>
      <trkpt lat="41.03763" lon="0.76344">
        <ele>402.6</ele>
        <time>2022-05-24 12:28:11</time>
      </trkpt>
      <trkpt lat="41.03758" lon="0.76328">
        <ele>401.2</ele>
        <time>2022-05-24 12:28:12</time>
      </trkpt>
      <trkpt lat="41.03752" lon="0.7631">
        <ele>399.8</ele>
        <time>2022-05-24 12:28:13</time>
      </trkpt>
      <trkpt lat="41.03746" lon="0.76292">
        <ele>398.6</ele>
        <time>2022-05-24 12:28:14</time>
      </trkpt>
      <trkpt lat="41.03741" lon="0.76275">
        <ele>397.2</ele>
        <time>2022-05-24 12:28:15</time>
      </trkpt>
      <trkpt lat="41.03735" lon="0.76257">
        <ele>396</ele>
        <time>2022-05-24 12:28:16</time>
      </trkpt>
      <trkpt lat="41.0373" lon="0.76241">
        <ele>394.6</ele>
        <time>2022-05-24 12:28:17</time>
      </trkpt>
      <trkpt lat="41.03724" lon="0.76222">
        <ele>393.6</ele>
        <time>2022-05-24 12:28:18</time>
      </trkpt>
      <trkpt lat="41.03718" lon="0.76205">
        <ele>392.4</ele>
        <time>2022-05-24 12:28:19</time>
      </trkpt>
      <trkpt lat="41.03713" lon="0.76187">
        <ele>391.2</ele>
        <time>2022-05-24 12:28:20</time>
      </trkpt>
      <trkpt lat="41.03709" lon="0.76169">
        <ele>389.6</ele>
        <time>2022-05-24 12:28:21</time>
      </trkpt>
      <trkpt lat="41.03705" lon="0.7615">
        <ele>388.2</ele>
        <time>2022-05-24 12:28:22</time>
      </trkpt>
      <trkpt lat="41.03702" lon="0.76131">
        <ele>386.8</ele>
        <time>2022-05-24 12:28:23</time>
      </trkpt>
      <trkpt lat="41.037" lon="0.76112">
        <ele>385.6</ele>
        <time>2022-05-24 12:28:24</time>
      </trkpt>
      <trkpt lat="41.03698" lon="0.76092">
        <ele>384.2</ele>
        <time>2022-05-24 12:28:25</time>
      </trkpt>
      <trkpt lat="41.03697" lon="0.76072">
        <ele>382.8</ele>
        <time>2022-05-24 12:28:26</time>
      </trkpt>
      <trkpt lat="41.03697" lon="0.76053">
        <ele>381.6</ele>
        <time>2022-05-24 12:28:27</time>
      </trkpt>
      <trkpt lat="41.03698" lon="0.76032">
        <ele>380.2</ele>
        <time>2022-05-24 12:28:28</time>
      </trkpt>
      <trkpt lat="41.03699" lon="0.76013">
        <ele>379.2</ele>
        <time>2022-05-24 12:28:29</time>
      </trkpt>
      <trkpt lat="41.037" lon="0.75993">
        <ele>378</ele>
        <time>2022-05-24 12:28:30</time>
      </trkpt>
      <trkpt lat="41.03702" lon="0.75974">
        <ele>376.4</ele>
        <time>2022-05-24 12:28:31</time>
      </trkpt>
      <trkpt lat="41.03703" lon="0.75954">
        <ele>375</ele>
        <time>2022-05-24 12:28:32</time>
      </trkpt>
      <trkpt lat="41.03704" lon="0.75934">
        <ele>373.8</ele>
        <time>2022-05-24 12:28:33</time>
      </trkpt>
      <trkpt lat="41.03706" lon="0.75914">
        <ele>372.4</ele>
        <time>2022-05-24 12:28:34</time>
      </trkpt>
      <trkpt lat="41.03707" lon="0.75894">
        <ele>371</ele>
        <time>2022-05-24 12:28:35</time>
      </trkpt>
      <trkpt lat="41.03709" lon="0.75875">
        <ele>369.6</ele>
        <time>2022-05-24 12:28:36</time>
      </trkpt>
      <trkpt lat="41.03711" lon="0.75857">
        <ele>368.4</ele>
        <time>2022-05-24 12:28:37</time>
      </trkpt>
      <trkpt lat="41.03714" lon="0.75837">
        <ele>367</ele>
        <time>2022-05-24 12:28:38</time>
      </trkpt>
      <trkpt lat="41.03719" lon="0.75818">
        <ele>365.8</ele>
        <time>2022-05-24 12:28:39</time>
      </trkpt>
      <trkpt lat="41.03724" lon="0.75801">
        <ele>365.2</ele>
        <time>2022-05-24 12:28:40</time>
      </trkpt>
      <trkpt lat="41.0373" lon="0.75783">
        <ele>364.2</ele>
        <time>2022-05-24 12:28:41</time>
      </trkpt>
      <trkpt lat="41.03736" lon="0.75765">
        <ele>363.2</ele>
        <time>2022-05-24 12:28:42</time>
      </trkpt>
      <trkpt lat="41.03743" lon="0.75748">
        <ele>362.2</ele>
        <time>2022-05-24 12:28:43</time>
      </trkpt>
      <trkpt lat="41.03752" lon="0.75732">
        <ele>361.4</ele>
        <time>2022-05-24 12:28:44</time>
      </trkpt>
      <trkpt lat="41.03761" lon="0.75717">
        <ele>360.6</ele>
        <time>2022-05-24 12:28:45</time>
      </trkpt>
      <trkpt lat="41.0377" lon="0.75702">
        <ele>360</ele>
        <time>2022-05-24 12:28:46</time>
      </trkpt>
      <trkpt lat="41.03778" lon="0.75687">
        <ele>359.4</ele>
        <time>2022-05-24 12:28:47</time>
      </trkpt>
      <trkpt lat="41.03785" lon="0.75673">
        <ele>359</ele>
        <time>2022-05-24 12:28:48</time>
      </trkpt>
      <trkpt lat="41.03793" lon="0.75657">
        <ele>358.4</ele>
        <time>2022-05-24 12:28:49</time>
      </trkpt>
      <trkpt lat="41.03799" lon="0.75643">
        <ele>357.8</ele>
        <time>2022-05-24 12:28:50</time>
      </trkpt>
      <trkpt lat="41.03804" lon="0.75628">
        <ele>357.4</ele>
        <time>2022-05-24 12:28:51</time>
      </trkpt>
      <trkpt lat="41.03807" lon="0.75613">
        <ele>357</ele>
        <time>2022-05-24 12:28:52</time>
      </trkpt>
      <trkpt lat="41.0381" lon="0.75598">
        <ele>356.4</ele>
        <time>2022-05-24 12:28:53</time>
      </trkpt>
      <trkpt lat="41.03813" lon="0.75583">
        <ele>356</ele>
        <time>2022-05-24 12:28:54</time>
      </trkpt>
      <trkpt lat="41.03815" lon="0.75568">
        <ele>355.6</ele>
        <time>2022-05-24 12:28:55</time>
      </trkpt>
      <trkpt lat="41.03817" lon="0.75553">
        <ele>355.2</ele>
        <time>2022-05-24 12:28:56</time>
      </trkpt>
      <trkpt lat="41.03819" lon="0.75537">
        <ele>354.8</ele>
        <time>2022-05-24 12:28:57</time>
      </trkpt>
      <trkpt lat="41.03821" lon="0.75523">
        <ele>354.4</ele>
        <time>2022-05-24 12:28:58</time>
      </trkpt>
      <trkpt lat="41.03823" lon="0.75509">
        <ele>354</ele>
        <time>2022-05-24 12:28:59</time>
      </trkpt>
      <trkpt lat="41.03826" lon="0.75495">
        <ele>353.8</ele>
        <time>2022-05-24 12:29:00</time>
      </trkpt>
      <trkpt lat="41.03829" lon="0.75482">
        <ele>353.6</ele>
        <time>2022-05-24 12:29:01</time>
      </trkpt>
      <trkpt lat="41.03832" lon="0.75468">
        <ele>353.4</ele>
        <time>2022-05-24 12:29:02</time>
      </trkpt>
      <trkpt lat="41.03836" lon="0.75456">
        <ele>353.4</ele>
        <time>2022-05-24 12:29:03</time>
      </trkpt>
      <trkpt lat="41.03841" lon="0.75444">
        <ele>353.2</ele>
        <time>2022-05-24 12:29:04</time>
      </trkpt>
      <trkpt lat="41.03847" lon="0.75433">
        <ele>353.2</ele>
        <time>2022-05-24 12:29:05</time>
      </trkpt>
      <trkpt lat="41.03852" lon="0.75423">
        <ele>353.2</ele>
        <time>2022-05-24 12:29:06</time>
      </trkpt>
      <trkpt lat="41.03857" lon="0.75413">
        <ele>353.2</ele>
        <time>2022-05-24 12:29:07</time>
      </trkpt>
      <trkpt lat="41.03863" lon="0.75404">
        <ele>353.2</ele>
        <time>2022-05-24 12:29:08</time>
      </trkpt>
      <trkpt lat="41.0387" lon="0.75395">
        <ele>353.4</ele>
        <time>2022-05-24 12:29:09</time>
      </trkpt>
      <trkpt lat="41.03876" lon="0.75387">
        <ele>353.4</ele>
        <time>2022-05-24 12:29:10</time>
      </trkpt>
      <trkpt lat="41.03883" lon="0.75379">
        <ele>353.4</ele>
        <time>2022-05-24 12:29:11</time>
      </trkpt>
      <trkpt lat="41.0389" lon="0.75372">
        <ele>353.4</ele>
        <time>2022-05-24 12:29:12</time>
      </trkpt>
      <trkpt lat="41.03898" lon="0.75365">
        <ele>353.4</ele>
        <time>2022-05-24 12:29:13</time>
      </trkpt>
      <trkpt lat="41.03904" lon="0.75358">
        <ele>353.6</ele>
        <time>2022-05-24 12:29:14</time>
      </trkpt>
      <trkpt lat="41.03911" lon="0.75351">
        <ele>353.6</ele>
        <time>2022-05-24 12:29:15</time>
      </trkpt>
      <trkpt lat="41.03918" lon="0.75344">
        <ele>353.8</ele>
        <time>2022-05-24 12:29:16</time>
      </trkpt>
      <trkpt lat="41.03924" lon="0.75337">
        <ele>353.8</ele>
        <time>2022-05-24 12:29:17</time>
      </trkpt>
      <trkpt lat="41.0393" lon="0.7533">
        <ele>354</ele>
        <time>2022-05-24 12:29:18</time>
      </trkpt>
      <trkpt lat="41.03936" lon="0.75323">
        <ele>354</ele>
        <time>2022-05-24 12:29:19</time>
      </trkpt>
      <trkpt lat="41.03942" lon="0.75315">
        <ele>354</ele>
        <time>2022-05-24 12:29:20</time>
      </trkpt>
      <trkpt lat="41.03949" lon="0.75307">
        <ele>354.2</ele>
        <time>2022-05-24 12:29:21</time>
      </trkpt>
      <trkpt lat="41.03955" lon="0.75299">
        <ele>354.2</ele>
        <time>2022-05-24 12:29:22</time>
      </trkpt>
      <trkpt lat="41.03961" lon="0.7529">
        <ele>354.2</ele>
        <time>2022-05-24 12:29:23</time>
      </trkpt>
      <trkpt lat="41.03966" lon="0.75281">
        <ele>354.2</ele>
        <time>2022-05-24 12:29:24</time>
      </trkpt>
      <trkpt lat="41.03971" lon="0.75273">
        <ele>354.4</ele>
        <time>2022-05-24 12:29:25</time>
      </trkpt>
      <trkpt lat="41.03975" lon="0.75264">
        <ele>354.4</ele>
        <time>2022-05-24 12:29:26</time>
      </trkpt>
      <trkpt lat="41.03979" lon="0.75256">
        <ele>354.4</ele>
        <time>2022-05-24 12:29:27</time>
      </trkpt>
      <trkpt lat="41.03983" lon="0.75247">
        <ele>354.4</ele>
        <time>2022-05-24 12:29:28</time>
      </trkpt>
      <trkpt lat="41.03987" lon="0.75237">
        <ele>354.4</ele>
        <time>2022-05-24 12:29:29</time>
      </trkpt>
      <trkpt lat="41.03991" lon="0.75228">
        <ele>354.4</ele>
        <time>2022-05-24 12:29:30</time>
      </trkpt>
      <trkpt lat="41.03994" lon="0.75219">
        <ele>354.4</ele>
        <time>2022-05-24 12:29:31</time>
      </trkpt>
      <trkpt lat="41.03998" lon="0.7521">
        <ele>354.6</ele>
        <time>2022-05-24 12:29:32</time>
      </trkpt>
      <trkpt lat="41.04002" lon="0.75201">
        <ele>354.6</ele>
        <time>2022-05-24 12:29:33</time>
      </trkpt>
      <trkpt lat="41.04006" lon="0.75192">
        <ele>354.6</ele>
        <time>2022-05-24 12:29:34</time>
      </trkpt>
      <trkpt lat="41.04009" lon="0.75183">
        <ele>354.6</ele>
        <time>2022-05-24 12:29:35</time>
      </trkpt>
      <trkpt lat="41.04013" lon="0.75175">
        <ele>354.6</ele>
        <time>2022-05-24 12:29:36</time>
      </trkpt>
      <trkpt lat="41.04016" lon="0.75166">
        <ele>354.6</ele>
        <time>2022-05-24 12:29:37</time>
      </trkpt>
      <trkpt lat="41.0402" lon="0.75157">
        <ele>354.6</ele>
        <time>2022-05-24 12:29:38</time>
      </trkpt>
      <trkpt lat="41.04023" lon="0.75149">
        <ele>354.6</ele>
        <time>2022-05-24 12:29:39</time>
      </trkpt>
      <trkpt lat="41.04027" lon="0.7514">
        <ele>354.6</ele>
        <time>2022-05-24 12:29:40</time>
      </trkpt>
      <trkpt lat="41.0403" lon="0.75131">
        <ele>354.6</ele>
        <time>2022-05-24 12:29:41</time>
      </trkpt>
      <trkpt lat="41.04034" lon="0.75122">
        <ele>354.6</ele>
        <time>2022-05-24 12:29:42</time>
      </trkpt>
      <trkpt lat="41.04038" lon="0.75113">
        <ele>354.6</ele>
        <time>2022-05-24 12:29:43</time>
      </trkpt>
      <trkpt lat="41.04041" lon="0.75104">
        <ele>354.4</ele>
        <time>2022-05-24 12:29:44</time>
      </trkpt>
      <trkpt lat="41.04045" lon="0.75095">
        <ele>354.4</ele>
        <time>2022-05-24 12:29:45</time>
      </trkpt>
      <trkpt lat="41.04049" lon="0.75086">
        <ele>354.4</ele>
        <time>2022-05-24 12:29:46</time>
      </trkpt>
      <trkpt lat="41.04052" lon="0.75077">
        <ele>354.4</ele>
        <time>2022-05-24 12:29:47</time>
      </trkpt>
      <trkpt lat="41.04055" lon="0.75067">
        <ele>354.4</ele>
        <time>2022-05-24 12:29:48</time>
      </trkpt>
      <trkpt lat="41.04057" lon="0.75058">
        <ele>354.4</ele>
        <time>2022-05-24 12:29:49</time>
      </trkpt>
      <trkpt lat="41.04059" lon="0.75048">
        <ele>354.4</ele>
        <time>2022-05-24 12:29:50</time>
      </trkpt>
      <trkpt lat="41.04059" lon="0.75038">
        <ele>354.4</ele>
        <time>2022-05-24 12:29:51</time>
      </trkpt>
      <trkpt lat="41.0406" lon="0.75027">
        <ele>354.2</ele>
        <time>2022-05-24 12:29:52</time>
      </trkpt>
      <trkpt lat="41.04059" lon="0.75017">
        <ele>354.2</ele>
        <time>2022-05-24 12:29:53</time>
      </trkpt>
      <trkpt lat="41.04058" lon="0.75007">
        <ele>354</ele>
        <time>2022-05-24 12:29:54</time>
      </trkpt>
      <trkpt lat="41.04057" lon="0.74996">
        <ele>353.8</ele>
        <time>2022-05-24 12:29:55</time>
      </trkpt>
      <trkpt lat="41.04055" lon="0.74986">
        <ele>353.6</ele>
        <time>2022-05-24 12:29:56</time>
      </trkpt>
      <trkpt lat="41.04054" lon="0.74975">
        <ele>353.6</ele>
        <time>2022-05-24 12:29:57</time>
      </trkpt>
      <trkpt lat="41.04053" lon="0.74965">
        <ele>353.4</ele>
        <time>2022-05-24 12:29:58</time>
      </trkpt>
      <trkpt lat="41.04052" lon="0.74954">
        <ele>353.2</ele>
        <time>2022-05-24 12:29:59</time>
      </trkpt>
      <trkpt lat="41.04051" lon="0.74945">
        <ele>353</ele>
        <time>2022-05-24 12:30:00</time>
      </trkpt>
      <trkpt lat="41.04051" lon="0.74932">
        <ele>352.6</ele>
        <time>2022-05-24 12:30:01</time>
      </trkpt>
      <trkpt lat="41.04051" lon="0.74922">
        <ele>352.4</ele>
        <time>2022-05-24 12:30:02</time>
      </trkpt>
      <trkpt lat="41.04052" lon="0.7491">
        <ele>352.2</ele>
        <time>2022-05-24 12:30:03</time>
      </trkpt>
      <trkpt lat="41.04053" lon="0.749">
        <ele>352</ele>
        <time>2022-05-24 12:30:04</time>
      </trkpt>
      <trkpt lat="41.04055" lon="0.74889">
        <ele>351.8</ele>
        <time>2022-05-24 12:30:05</time>
      </trkpt>
      <trkpt lat="41.04057" lon="0.74878">
        <ele>351.4</ele>
        <time>2022-05-24 12:30:06</time>
      </trkpt>
      <trkpt lat="41.0406" lon="0.74868">
        <ele>351.2</ele>
        <time>2022-05-24 12:30:07</time>
      </trkpt>
      <trkpt lat="41.04063" lon="0.74857">
        <ele>351</ele>
        <time>2022-05-24 12:30:08</time>
      </trkpt>
      <trkpt lat="41.04067" lon="0.74847">
        <ele>350.8</ele>
        <time>2022-05-24 12:30:09</time>
      </trkpt>
      <trkpt lat="41.04071" lon="0.74838">
        <ele>350.8</ele>
        <time>2022-05-24 12:30:10</time>
      </trkpt>
      <trkpt lat="41.04075" lon="0.74828">
        <ele>350.4</ele>
        <time>2022-05-24 12:30:11</time>
      </trkpt>
      <trkpt lat="41.0408" lon="0.74818">
        <ele>350.2</ele>
        <time>2022-05-24 12:30:12</time>
      </trkpt>
      <trkpt lat="41.04084" lon="0.74808">
        <ele>350</ele>
        <time>2022-05-24 12:30:13</time>
      </trkpt>
      <trkpt lat="41.04089" lon="0.74799">
        <ele>349.8</ele>
        <time>2022-05-24 12:30:14</time>
      </trkpt>
      <trkpt lat="41.04093" lon="0.74788">
        <ele>349.6</ele>
        <time>2022-05-24 12:30:15</time>
      </trkpt>
      <trkpt lat="41.04097" lon="0.74778">
        <ele>349.4</ele>
        <time>2022-05-24 12:30:16</time>
      </trkpt>
      <trkpt lat="41.041" lon="0.74767">
        <ele>349</ele>
        <time>2022-05-24 12:30:17</time>
      </trkpt>
      <trkpt lat="41.04104" lon="0.74756">
        <ele>348.8</ele>
        <time>2022-05-24 12:30:18</time>
      </trkpt>
      <trkpt lat="41.04107" lon="0.74746">
        <ele>348.4</ele>
        <time>2022-05-24 12:30:19</time>
      </trkpt>
      <trkpt lat="41.0411" lon="0.74734">
        <ele>348</ele>
        <time>2022-05-24 12:30:20</time>
      </trkpt>
      <trkpt lat="41.04112" lon="0.74722">
        <ele>347.6</ele>
        <time>2022-05-24 12:30:21</time>
      </trkpt>
      <trkpt lat="41.04114" lon="0.74711">
        <ele>347</ele>
        <time>2022-05-24 12:30:22</time>
      </trkpt>
      <trkpt lat="41.04116" lon="0.74698">
        <ele>346.4</ele>
        <time>2022-05-24 12:30:23</time>
      </trkpt>
      <trkpt lat="41.04117" lon="0.74686">
        <ele>346</ele>
        <time>2022-05-24 12:30:24</time>
      </trkpt>
      <trkpt lat="41.04118" lon="0.74673">
        <ele>345.4</ele>
        <time>2022-05-24 12:30:25</time>
      </trkpt>
      <trkpt lat="41.04118" lon="0.7466">
        <ele>344.8</ele>
        <time>2022-05-24 12:30:26</time>
      </trkpt>
      <trkpt lat="41.04118" lon="0.74647">
        <ele>344.2</ele>
        <time>2022-05-24 12:30:27</time>
      </trkpt>
      <trkpt lat="41.04118" lon="0.74633">
        <ele>343.6</ele>
        <time>2022-05-24 12:30:28</time>
      </trkpt>
      <trkpt lat="41.04118" lon="0.7462">
        <ele>343</ele>
        <time>2022-05-24 12:30:29</time>
      </trkpt>
      <trkpt lat="41.04119" lon="0.74606">
        <ele>342.6</ele>
        <time>2022-05-24 12:30:30</time>
      </trkpt>
      <trkpt lat="41.04119" lon="0.74593">
        <ele>342</ele>
        <time>2022-05-24 12:30:31</time>
      </trkpt>
      <trkpt lat="41.04121" lon="0.74579">
        <ele>341.4</ele>
        <time>2022-05-24 12:30:32</time>
      </trkpt>
      <trkpt lat="41.04123" lon="0.74566">
        <ele>340.8</ele>
        <time>2022-05-24 12:30:33</time>
      </trkpt>
      <trkpt lat="41.04126" lon="0.74552">
        <ele>340</ele>
        <time>2022-05-24 12:30:34</time>
      </trkpt>
      <trkpt lat="41.0413" lon="0.7454">
        <ele>339.6</ele>
        <time>2022-05-24 12:30:35</time>
      </trkpt>
      <trkpt lat="41.04135" lon="0.74528">
        <ele>339</ele>
        <time>2022-05-24 12:30:36</time>
      </trkpt>
      <trkpt lat="41.04141" lon="0.74517">
        <ele>338.6</ele>
        <time>2022-05-24 12:30:37</time>
      </trkpt>
      <trkpt lat="41.04147" lon="0.74506">
        <ele>338.2</ele>
        <time>2022-05-24 12:30:38</time>
      </trkpt>
      <trkpt lat="41.04155" lon="0.74496">
        <ele>337.8</ele>
        <time>2022-05-24 12:30:39</time>
      </trkpt>
      <trkpt lat="41.04162" lon="0.74488">
        <ele>337.6</ele>
        <time>2022-05-24 12:30:40</time>
      </trkpt>
      <trkpt lat="41.04171" lon="0.7448">
        <ele>337.2</ele>
        <time>2022-05-24 12:30:41</time>
      </trkpt>
      <trkpt lat="41.04178" lon="0.74474">
        <ele>337</ele>
        <time>2022-05-24 12:30:42</time>
      </trkpt>
      <trkpt lat="41.04188" lon="0.74467">
        <ele>336.6</ele>
        <time>2022-05-24 12:30:43</time>
      </trkpt>
      <trkpt lat="41.04196" lon="0.74461">
        <ele>336.4</ele>
        <time>2022-05-24 12:30:44</time>
      </trkpt>
      <trkpt lat="41.04205" lon="0.74455">
        <ele>336</ele>
        <time>2022-05-24 12:30:45</time>
      </trkpt>
      <trkpt lat="41.04214" lon="0.7445">
        <ele>335.8</ele>
        <time>2022-05-24 12:30:46</time>
      </trkpt>
      <trkpt lat="41.04222" lon="0.74444">
        <ele>335.6</ele>
        <time>2022-05-24 12:30:47</time>
      </trkpt>
      <trkpt lat="41.04231" lon="0.74437">
        <ele>335.4</ele>
        <time>2022-05-24 12:30:48</time>
      </trkpt>
      <trkpt lat="41.04239" lon="0.74431">
        <ele>335.2</ele>
        <time>2022-05-24 12:30:49</time>
      </trkpt>
      <trkpt lat="41.04246" lon="0.74423">
        <ele>335</ele>
        <time>2022-05-24 12:30:50</time>
      </trkpt>
      <trkpt lat="41.04254" lon="0.74415">
        <ele>335</ele>
        <time>2022-05-24 12:30:51</time>
      </trkpt>
      <trkpt lat="41.04261" lon="0.74406">
        <ele>334.8</ele>
        <time>2022-05-24 12:30:52</time>
      </trkpt>
      <trkpt lat="41.04266" lon="0.74396">
        <ele>334.4</ele>
        <time>2022-05-24 12:30:53</time>
      </trkpt>
      <trkpt lat="41.04271" lon="0.74386">
        <ele>334.2</ele>
        <time>2022-05-24 12:30:54</time>
      </trkpt>
      <trkpt lat="41.04276" lon="0.74375">
        <ele>333.8</ele>
        <time>2022-05-24 12:30:55</time>
      </trkpt>
      <trkpt lat="41.04279" lon="0.74364">
        <ele>333.4</ele>
        <time>2022-05-24 12:30:56</time>
      </trkpt>
      <trkpt lat="41.04283" lon="0.74353">
        <ele>333.2</ele>
        <time>2022-05-24 12:30:57</time>
      </trkpt>
      <trkpt lat="41.04286" lon="0.74341">
        <ele>332.8</ele>
        <time>2022-05-24 12:30:58</time>
      </trkpt>
      <trkpt lat="41.04289" lon="0.74329">
        <ele>332.4</ele>
        <time>2022-05-24 12:30:59</time>
      </trkpt>
      <trkpt lat="41.04291" lon="0.74317">
        <ele>332</ele>
        <time>2022-05-24 12:31:00</time>
      </trkpt>
      <trkpt lat="41.04293" lon="0.74304">
        <ele>331.4</ele>
        <time>2022-05-24 12:31:01</time>
      </trkpt>
      <trkpt lat="41.04295" lon="0.74292">
        <ele>331</ele>
        <time>2022-05-24 12:31:02</time>
      </trkpt>
      <trkpt lat="41.04298" lon="0.7428">
        <ele>330.6</ele>
        <time>2022-05-24 12:31:03</time>
      </trkpt>
      <trkpt lat="41.043" lon="0.74267">
        <ele>330.2</ele>
        <time>2022-05-24 12:31:04</time>
      </trkpt>
      <trkpt lat="41.04303" lon="0.74254">
        <ele>329.6</ele>
        <time>2022-05-24 12:31:05</time>
      </trkpt>
      <trkpt lat="41.04305" lon="0.74242">
        <ele>329.2</ele>
        <time>2022-05-24 12:31:06</time>
      </trkpt>
      <trkpt lat="41.04307" lon="0.7423">
        <ele>328.6</ele>
        <time>2022-05-24 12:31:07</time>
      </trkpt>
      <trkpt lat="41.0431" lon="0.74217">
        <ele>328.2</ele>
        <time>2022-05-24 12:31:08</time>
      </trkpt>
      <trkpt lat="41.04313" lon="0.74204">
        <ele>327.8</ele>
        <time>2022-05-24 12:31:09</time>
      </trkpt>
      <trkpt lat="41.04316" lon="0.74192">
        <ele>327.4</ele>
        <time>2022-05-24 12:31:10</time>
      </trkpt>
      <trkpt lat="41.04319" lon="0.74179">
        <ele>327.2</ele>
        <time>2022-05-24 12:31:11</time>
      </trkpt>
      <trkpt lat="41.04323" lon="0.74166">
        <ele>326.6</ele>
        <time>2022-05-24 12:31:12</time>
      </trkpt>
      <trkpt lat="41.04327" lon="0.74154">
        <ele>326.2</ele>
        <time>2022-05-24 12:31:13</time>
      </trkpt>
      <trkpt lat="41.04331" lon="0.74141">
        <ele>325.6</ele>
        <time>2022-05-24 12:31:14</time>
      </trkpt>
      <trkpt lat="41.04335" lon="0.74129">
        <ele>325.2</ele>
        <time>2022-05-24 12:31:15</time>
      </trkpt>
      <trkpt lat="41.0434" lon="0.74117">
        <ele>324.4</ele>
        <time>2022-05-24 12:31:16</time>
      </trkpt>
      <trkpt lat="41.04346" lon="0.74105">
        <ele>323.8</ele>
        <time>2022-05-24 12:31:17</time>
      </trkpt>
      <trkpt lat="41.04353" lon="0.74093">
        <ele>323.2</ele>
        <time>2022-05-24 12:31:18</time>
      </trkpt>
      <trkpt lat="41.0436" lon="0.74082">
        <ele>322.6</ele>
        <time>2022-05-24 12:31:19</time>
      </trkpt>
      <trkpt lat="41.04368" lon="0.74071">
        <ele>321.8</ele>
        <time>2022-05-24 12:31:20</time>
      </trkpt>
      <trkpt lat="41.04376" lon="0.74061">
        <ele>321</ele>
        <time>2022-05-24 12:31:21</time>
      </trkpt>
      <trkpt lat="41.04384" lon="0.74051">
        <ele>320</ele>
        <time>2022-05-24 12:31:22</time>
      </trkpt>
      <trkpt lat="41.04392" lon="0.74041">
        <ele>319.2</ele>
        <time>2022-05-24 12:31:23</time>
      </trkpt>
      <trkpt lat="41.044" lon="0.74032">
        <ele>318.4</ele>
        <time>2022-05-24 12:31:24</time>
      </trkpt>
      <trkpt lat="41.04408" lon="0.74022">
        <ele>317.8</ele>
        <time>2022-05-24 12:31:25</time>
      </trkpt>
      <trkpt lat="41.04416" lon="0.74012">
        <ele>317.4</ele>
        <time>2022-05-24 12:31:26</time>
      </trkpt>
      <trkpt lat="41.04423" lon="0.74001">
        <ele>316.8</ele>
        <time>2022-05-24 12:31:27</time>
      </trkpt>
      <trkpt lat="41.0443" lon="0.73989">
        <ele>316</ele>
        <time>2022-05-24 12:31:28</time>
      </trkpt>
      <trkpt lat="41.04436" lon="0.73978">
        <ele>315.4</ele>
        <time>2022-05-24 12:31:29</time>
      </trkpt>
      <trkpt lat="41.04442" lon="0.73965">
        <ele>314.4</ele>
        <time>2022-05-24 12:31:30</time>
      </trkpt>
      <trkpt lat="41.04448" lon="0.73953">
        <ele>313.6</ele>
        <time>2022-05-24 12:31:31</time>
      </trkpt>
      <trkpt lat="41.04454" lon="0.7394">
        <ele>312.8</ele>
        <time>2022-05-24 12:31:32</time>
      </trkpt>
      <trkpt lat="41.04459" lon="0.73928">
        <ele>312</ele>
        <time>2022-05-24 12:31:33</time>
      </trkpt>
      <trkpt lat="41.04465" lon="0.73915">
        <ele>311</ele>
        <time>2022-05-24 12:31:34</time>
      </trkpt>
      <trkpt lat="41.0447" lon="0.73902">
        <ele>310.2</ele>
        <time>2022-05-24 12:31:35</time>
      </trkpt>
      <trkpt lat="41.04475" lon="0.73889">
        <ele>309.8</ele>
        <time>2022-05-24 12:31:36</time>
      </trkpt>
      <trkpt lat="41.0448" lon="0.73875">
        <ele>309</ele>
        <time>2022-05-24 12:31:37</time>
      </trkpt>
      <trkpt lat="41.04485" lon="0.73861">
        <ele>308.2</ele>
        <time>2022-05-24 12:31:38</time>
      </trkpt>
      <trkpt lat="41.0449" lon="0.73848">
        <ele>307.4</ele>
        <time>2022-05-24 12:31:39</time>
      </trkpt>
      <trkpt lat="41.04495" lon="0.73834">
        <ele>306.6</ele>
        <time>2022-05-24 12:31:40</time>
      </trkpt>
      <trkpt lat="41.045" lon="0.73821">
        <ele>305.8</ele>
        <time>2022-05-24 12:31:41</time>
      </trkpt>
      <trkpt lat="41.04505" lon="0.73807">
        <ele>305</ele>
        <time>2022-05-24 12:31:42</time>
      </trkpt>
      <trkpt lat="41.04511" lon="0.73793">
        <ele>304.2</ele>
        <time>2022-05-24 12:31:43</time>
      </trkpt>
      <trkpt lat="41.04515" lon="0.73779">
        <ele>303.6</ele>
        <time>2022-05-24 12:31:44</time>
      </trkpt>
      <trkpt lat="41.04521" lon="0.73765">
        <ele>302.8</ele>
        <time>2022-05-24 12:31:45</time>
      </trkpt>
      <trkpt lat="41.04526" lon="0.73751">
        <ele>302</ele>
        <time>2022-05-24 12:31:46</time>
      </trkpt>
      <trkpt lat="41.04531" lon="0.73737">
        <ele>301.4</ele>
        <time>2022-05-24 12:31:47</time>
      </trkpt>
      <trkpt lat="41.04536" lon="0.73723">
        <ele>300.8</ele>
        <time>2022-05-24 12:31:48</time>
      </trkpt>
      <trkpt lat="41.04541" lon="0.73709">
        <ele>300</ele>
        <time>2022-05-24 12:31:49</time>
      </trkpt>
      <trkpt lat="41.04546" lon="0.73694">
        <ele>299</ele>
        <time>2022-05-24 12:31:50</time>
      </trkpt>
      <trkpt lat="41.04552" lon="0.7368">
        <ele>298.2</ele>
        <time>2022-05-24 12:31:51</time>
      </trkpt>
      <trkpt lat="41.04557" lon="0.73666">
        <ele>297.4</ele>
        <time>2022-05-24 12:31:52</time>
      </trkpt>
      <trkpt lat="41.04563" lon="0.73652">
        <ele>296.6</ele>
        <time>2022-05-24 12:31:53</time>
      </trkpt>
      <trkpt lat="41.04568" lon="0.73638">
        <ele>296</ele>
        <time>2022-05-24 12:31:54</time>
      </trkpt>
      <trkpt lat="41.04573" lon="0.73624">
        <ele>295.2</ele>
        <time>2022-05-24 12:31:55</time>
      </trkpt>
      <trkpt lat="41.04579" lon="0.7361">
        <ele>294.4</ele>
        <time>2022-05-24 12:31:56</time>
      </trkpt>
      <trkpt lat="41.04585" lon="0.73596">
        <ele>293.8</ele>
        <time>2022-05-24 12:31:57</time>
      </trkpt>
      <trkpt lat="41.04589" lon="0.73583">
        <ele>293</ele>
        <time>2022-05-24 12:31:58</time>
      </trkpt>
      <trkpt lat="41.04595" lon="0.73569">
        <ele>292.6</ele>
        <time>2022-05-24 12:31:59</time>
      </trkpt>
      <trkpt lat="41.04601" lon="0.73554">
        <ele>292</ele>
        <time>2022-05-24 12:32:00</time>
      </trkpt>
      <trkpt lat="41.04606" lon="0.7354">
        <ele>291.2</ele>
        <time>2022-05-24 12:32:01</time>
      </trkpt>
      <trkpt lat="41.04611" lon="0.73526">
        <ele>290.8</ele>
        <time>2022-05-24 12:32:02</time>
      </trkpt>
      <trkpt lat="41.04617" lon="0.73513">
        <ele>290.2</ele>
        <time>2022-05-24 12:32:03</time>
      </trkpt>
      <trkpt lat="41.04621" lon="0.73499">
        <ele>289.6</ele>
        <time>2022-05-24 12:32:04</time>
      </trkpt>
      <trkpt lat="41.04627" lon="0.73486">
        <ele>289</ele>
        <time>2022-05-24 12:32:05</time>
      </trkpt>
      <trkpt lat="41.04633" lon="0.73472">
        <ele>288.4</ele>
        <time>2022-05-24 12:32:06</time>
      </trkpt>
      <trkpt lat="41.04638" lon="0.73459">
        <ele>288</ele>
        <time>2022-05-24 12:32:07</time>
      </trkpt>
      <trkpt lat="41.04644" lon="0.73445">
        <ele>287.4</ele>
        <time>2022-05-24 12:32:08</time>
      </trkpt>
      <trkpt lat="41.04648" lon="0.73432">
        <ele>287</ele>
        <time>2022-05-24 12:32:09</time>
      </trkpt>
      <trkpt lat="41.04654" lon="0.73419">
        <ele>286.8</ele>
        <time>2022-05-24 12:32:10</time>
      </trkpt>
      <trkpt lat="41.0466" lon="0.73404">
        <ele>286.2</ele>
        <time>2022-05-24 12:32:11</time>
      </trkpt>
      <trkpt lat="41.04664" lon="0.73392">
        <ele>285.8</ele>
        <time>2022-05-24 12:32:12</time>
      </trkpt>
      <trkpt lat="41.04669" lon="0.73379">
        <ele>285.2</ele>
        <time>2022-05-24 12:32:13</time>
      </trkpt>
      <trkpt lat="41.04675" lon="0.73365">
        <ele>284.8</ele>
        <time>2022-05-24 12:32:14</time>
      </trkpt>
      <trkpt lat="41.0468" lon="0.73351">
        <ele>284.4</ele>
        <time>2022-05-24 12:32:15</time>
      </trkpt>
      <trkpt lat="41.04686" lon="0.73339">
        <ele>284</ele>
        <time>2022-05-24 12:32:16</time>
      </trkpt>
      <trkpt lat="41.04691" lon="0.73326">
        <ele>283.6</ele>
        <time>2022-05-24 12:32:17</time>
      </trkpt>
      <trkpt lat="41.04697" lon="0.73313">
        <ele>283.2</ele>
        <time>2022-05-24 12:32:18</time>
      </trkpt>
      <trkpt lat="41.04702" lon="0.733">
        <ele>282.8</ele>
        <time>2022-05-24 12:32:19</time>
      </trkpt>
      <trkpt lat="41.04706" lon="0.73287">
        <ele>282.6</ele>
        <time>2022-05-24 12:32:20</time>
      </trkpt>
      <trkpt lat="41.0471" lon="0.73275">
        <ele>282.4</ele>
        <time>2022-05-24 12:32:21</time>
      </trkpt>
      <trkpt lat="41.04715" lon="0.73261">
        <ele>282</ele>
        <time>2022-05-24 12:32:22</time>
      </trkpt>
      <trkpt lat="41.04719" lon="0.73249">
        <ele>281.8</ele>
        <time>2022-05-24 12:32:23</time>
      </trkpt>
      <trkpt lat="41.04722" lon="0.73238">
        <ele>281.4</ele>
        <time>2022-05-24 12:32:24</time>
      </trkpt>
      <trkpt lat="41.04726" lon="0.73227">
        <ele>281.2</ele>
        <time>2022-05-24 12:32:25</time>
      </trkpt>
      <trkpt lat="41.04728" lon="0.73215">
        <ele>280.8</ele>
        <time>2022-05-24 12:32:26</time>
      </trkpt>
      <trkpt lat="41.04732" lon="0.73203">
        <ele>280.6</ele>
        <time>2022-05-24 12:32:27</time>
      </trkpt>
      <trkpt lat="41.04735" lon="0.73192">
        <ele>280.2</ele>
        <time>2022-05-24 12:32:28</time>
      </trkpt>
      <trkpt lat="41.04739" lon="0.73178">
        <ele>279.8</ele>
        <time>2022-05-24 12:32:29</time>
      </trkpt>
      <trkpt lat="41.04743" lon="0.73167">
        <ele>279.4</ele>
        <time>2022-05-24 12:32:30</time>
      </trkpt>
      <trkpt lat="41.04746" lon="0.73156">
        <ele>279.2</ele>
        <time>2022-05-24 12:32:31</time>
      </trkpt>
      <trkpt lat="41.0475" lon="0.73145">
        <ele>278.8</ele>
        <time>2022-05-24 12:32:32</time>
      </trkpt>
      <trkpt lat="41.04753" lon="0.73133">
        <ele>278.6</ele>
        <time>2022-05-24 12:32:33</time>
      </trkpt>
      <trkpt lat="41.04755" lon="0.73122">
        <ele>278.4</ele>
        <time>2022-05-24 12:32:34</time>
      </trkpt>
      <trkpt lat="41.04759" lon="0.73112">
        <ele>278.2</ele>
        <time>2022-05-24 12:32:35</time>
      </trkpt>
      <trkpt lat="41.04762" lon="0.73102">
        <ele>278</ele>
        <time>2022-05-24 12:32:36</time>
      </trkpt>
      <trkpt lat="41.04765" lon="0.73091">
        <ele>277.8</ele>
        <time>2022-05-24 12:32:37</time>
      </trkpt>
      <trkpt lat="41.04768" lon="0.7308">
        <ele>277.6</ele>
        <time>2022-05-24 12:32:38</time>
      </trkpt>
      <trkpt lat="41.04772" lon="0.73067">
        <ele>277.4</ele>
        <time>2022-05-24 12:32:39</time>
      </trkpt>
      <trkpt lat="41.04775" lon="0.73057">
        <ele>277.2</ele>
        <time>2022-05-24 12:32:40</time>
      </trkpt>
      <trkpt lat="41.04778" lon="0.73045">
        <ele>277</ele>
        <time>2022-05-24 12:32:41</time>
      </trkpt>
      <trkpt lat="41.04781" lon="0.73032">
        <ele>276.8</ele>
        <time>2022-05-24 12:32:42</time>
      </trkpt>
      <trkpt lat="41.04783" lon="0.73024">
        <ele>276.8</ele>
        <time>2022-05-24 12:32:43</time>
      </trkpt>
      <trkpt lat="41.04784" lon="0.73014">
        <ele>276.6</ele>
        <time>2022-05-24 12:32:44</time>
      </trkpt>
      <trkpt lat="41.04784" lon="0.73007">
        <ele>276.6</ele>
        <time>2022-05-24 12:32:45</time>
      </trkpt>
      <trkpt lat="41.04784" lon="0.72999">
        <ele>276.6</ele>
        <time>2022-05-24 12:32:46</time>
      </trkpt>
      <trkpt lat="41.04783" lon="0.72996">
        <ele>276.4</ele>
        <time>2022-05-24 12:32:47</time>
      </trkpt>
      <trkpt lat="41.04781" lon="0.72991">
        <ele>276.4</ele>
        <time>2022-05-24 12:32:48</time>
      </trkpt>
      <trkpt lat="41.04779" lon="0.72988">
        <ele>276.4</ele>
        <time>2022-05-24 12:32:49</time>
      </trkpt>
      <trkpt lat="41.04778" lon="0.72986">
        <ele>276.2</ele>
        <time>2022-05-24 12:32:50</time>
      </trkpt>
      <trkpt lat="41.04777" lon="0.72984">
        <ele>276.2</ele>
        <time>2022-05-24 12:32:51</time>
      </trkpt>
      <trkpt lat="41.04777" lon="0.72982">
        <ele>276.2</ele>
        <time>2022-05-24 12:32:52</time>
      </trkpt>
      <trkpt lat="41.04787" lon="0.73002">
        <ele>276.2</ele>
        <time>2022-05-24 12:32:53</time>
      </trkpt>
      <trkpt lat="41.04788" lon="0.73">
        <ele>276.2</ele>
        <time>2022-05-24 12:53:57</time>
      </trkpt>
      <trkpt lat="41.04789" lon="0.72998">
        <ele>276.2</ele>
        <time>2022-05-24 12:53:58</time>
      </trkpt>
      <trkpt lat="41.0479" lon="0.72996">
        <ele>276.2</ele>
        <time>2022-05-24 12:53:59</time>
      </trkpt>
      <trkpt lat="41.04792" lon="0.72993">
        <ele>276.2</ele>
        <time>2022-05-24 12:54:00</time>
      </trkpt>
      <trkpt lat="41.04794" lon="0.7299">
        <ele>276.2</ele>
        <time>2022-05-24 12:54:01</time>
      </trkpt>
      <trkpt lat="41.04795" lon="0.72988">
        <ele>276.2</ele>
        <time>2022-05-24 12:54:02</time>
      </trkpt>
      <trkpt lat="41.04797" lon="0.72984">
        <ele>276</ele>
        <time>2022-05-24 12:54:03</time>
      </trkpt>
      <trkpt lat="41.04799" lon="0.72981">
        <ele>276</ele>
        <time>2022-05-24 12:54:04</time>
      </trkpt>
      <trkpt lat="41.04801" lon="0.72975">
        <ele>276</ele>
        <time>2022-05-24 12:54:05</time>
      </trkpt>
      <trkpt lat="41.04802" lon="0.7297">
        <ele>275.8</ele>
        <time>2022-05-24 12:54:06</time>
      </trkpt>
      <trkpt lat="41.04803" lon="0.72964">
        <ele>275.8</ele>
        <time>2022-05-24 12:54:07</time>
      </trkpt>
      <trkpt lat="41.04804" lon="0.72959">
        <ele>275.6</ele>
        <time>2022-05-24 12:54:08</time>
      </trkpt>
      <trkpt lat="41.04806" lon="0.72953">
        <ele>275.6</ele>
        <time>2022-05-24 12:54:09</time>
      </trkpt>
      <trkpt lat="41.04807" lon="0.72949">
        <ele>275.4</ele>
        <time>2022-05-24 12:54:10</time>
      </trkpt>
      <trkpt lat="41.04809" lon="0.72942">
        <ele>275.4</ele>
        <time>2022-05-24 12:54:11</time>
      </trkpt>
      <trkpt lat="41.0481" lon="0.72936">
        <ele>275.2</ele>
        <time>2022-05-24 12:54:12</time>
      </trkpt>
      <trkpt lat="41.04812" lon="0.72931">
        <ele>275.2</ele>
        <time>2022-05-24 12:54:13</time>
      </trkpt>
      <trkpt lat="41.04814" lon="0.72924">
        <ele>275</ele>
        <time>2022-05-24 12:54:14</time>
      </trkpt>
      <trkpt lat="41.04815" lon="0.72919">
        <ele>275</ele>
        <time>2022-05-24 12:54:15</time>
      </trkpt>
      <trkpt lat="41.04818" lon="0.72912">
        <ele>274.8</ele>
        <time>2022-05-24 12:54:16</time>
      </trkpt>
      <trkpt lat="41.04819" lon="0.72906">
        <ele>274.6</ele>
        <time>2022-05-24 12:54:17</time>
      </trkpt>
      <trkpt lat="41.04821" lon="0.72899">
        <ele>274.6</ele>
        <time>2022-05-24 12:54:18</time>
      </trkpt>
      <trkpt lat="41.04823" lon="0.72893">
        <ele>274.4</ele>
        <time>2022-05-24 12:54:19</time>
      </trkpt>
      <trkpt lat="41.04826" lon="0.72885">
        <ele>274.2</ele>
        <time>2022-05-24 12:54:20</time>
      </trkpt>
      <trkpt lat="41.04827" lon="0.72879">
        <ele>274</ele>
        <time>2022-05-24 12:54:21</time>
      </trkpt>
      <trkpt lat="41.0483" lon="0.72871">
        <ele>273.8</ele>
        <time>2022-05-24 12:54:22</time>
      </trkpt>
      <trkpt lat="41.04832" lon="0.72865">
        <ele>273.6</ele>
        <time>2022-05-24 12:54:23</time>
      </trkpt>
      <trkpt lat="41.04834" lon="0.72856">
        <ele>273.6</ele>
        <time>2022-05-24 12:54:24</time>
      </trkpt>
      <trkpt lat="41.04836" lon="0.72849">
        <ele>273.4</ele>
        <time>2022-05-24 12:54:25</time>
      </trkpt>
      <trkpt lat="41.04839" lon="0.72841">
        <ele>273.2</ele>
        <time>2022-05-24 12:54:26</time>
      </trkpt>
      <trkpt lat="41.04841" lon="0.72834">
        <ele>273</ele>
        <time>2022-05-24 12:54:27</time>
      </trkpt>
      <trkpt lat="41.04844" lon="0.72826">
        <ele>273</ele>
        <time>2022-05-24 12:54:28</time>
      </trkpt>
      <trkpt lat="41.04846" lon="0.72821">
        <ele>272.8</ele>
        <time>2022-05-24 12:54:29</time>
      </trkpt>
      <trkpt lat="41.0485" lon="0.7281">
        <ele>272.6</ele>
        <time>2022-05-24 12:54:30</time>
      </trkpt>
      <trkpt lat="41.04852" lon="0.72803">
        <ele>272.4</ele>
        <time>2022-05-24 12:54:31</time>
      </trkpt>
      <trkpt lat="41.04854" lon="0.72794">
        <ele>272.2</ele>
        <time>2022-05-24 12:54:32</time>
      </trkpt>
      <trkpt lat="41.04856" lon="0.72787">
        <ele>272</ele>
        <time>2022-05-24 12:54:33</time>
      </trkpt>
      <trkpt lat="41.04859" lon="0.72778">
        <ele>271.8</ele>
        <time>2022-05-24 12:54:34</time>
      </trkpt>
      <trkpt lat="41.04861" lon="0.72771">
        <ele>271.8</ele>
        <time>2022-05-24 12:54:35</time>
      </trkpt>
      <trkpt lat="41.04864" lon="0.72761">
        <ele>271.4</ele>
        <time>2022-05-24 12:54:36</time>
      </trkpt>
      <trkpt lat="41.04866" lon="0.72752">
        <ele>271.4</ele>
        <time>2022-05-24 12:54:37</time>
      </trkpt>
      <trkpt lat="41.04869" lon="0.72743">
        <ele>271.2</ele>
        <time>2022-05-24 12:54:38</time>
      </trkpt>
      <trkpt lat="41.04871" lon="0.72737">
        <ele>271</ele>
        <time>2022-05-24 12:54:39</time>
      </trkpt>
      <trkpt lat="41.04874" lon="0.72726">
        <ele>270.8</ele>
        <time>2022-05-24 12:54:40</time>
      </trkpt>
      <trkpt lat="41.04876" lon="0.7272">
        <ele>270.4</ele>
        <time>2022-05-24 12:54:41</time>
      </trkpt>
      <trkpt lat="41.04879" lon="0.72708">
        <ele>270.2</ele>
        <time>2022-05-24 12:54:42</time>
      </trkpt>
      <trkpt lat="41.04882" lon="0.727">
        <ele>270</ele>
        <time>2022-05-24 12:54:43</time>
      </trkpt>
      <trkpt lat="41.04885" lon="0.7269">
        <ele>269.8</ele>
        <time>2022-05-24 12:54:44</time>
      </trkpt>
      <trkpt lat="41.04887" lon="0.72683">
        <ele>269.6</ele>
        <time>2022-05-24 12:54:45</time>
      </trkpt>
      <trkpt lat="41.0489" lon="0.72672">
        <ele>269.4</ele>
        <time>2022-05-24 12:54:46</time>
      </trkpt>
      <trkpt lat="41.04892" lon="0.72664">
        <ele>269.2</ele>
        <time>2022-05-24 12:54:47</time>
      </trkpt>
      <trkpt lat="41.04895" lon="0.72654">
        <ele>269</ele>
        <time>2022-05-24 12:54:48</time>
      </trkpt>
      <trkpt lat="41.04897" lon="0.72647">
        <ele>268.8</ele>
        <time>2022-05-24 12:54:49</time>
      </trkpt>
      <trkpt lat="41.04901" lon="0.72635">
        <ele>268.6</ele>
        <time>2022-05-24 12:54:50</time>
      </trkpt>
      <trkpt lat="41.04903" lon="0.72628">
        <ele>268.4</ele>
        <time>2022-05-24 12:54:51</time>
      </trkpt>
      <trkpt lat="41.04906" lon="0.72617">
        <ele>268.2</ele>
        <time>2022-05-24 12:54:52</time>
      </trkpt>
      <trkpt lat="41.04909" lon="0.7261">
        <ele>268</ele>
        <time>2022-05-24 12:54:53</time>
      </trkpt>
      <trkpt lat="41.04912" lon="0.72599">
        <ele>267.8</ele>
        <time>2022-05-24 12:54:54</time>
      </trkpt>
      <trkpt lat="41.04914" lon="0.72591">
        <ele>267.6</ele>
        <time>2022-05-24 12:54:55</time>
      </trkpt>
      <trkpt lat="41.04917" lon="0.72579">
        <ele>267.4</ele>
        <time>2022-05-24 12:54:56</time>
      </trkpt>
      <trkpt lat="41.04919" lon="0.72571">
        <ele>267</ele>
        <time>2022-05-24 12:54:57</time>
      </trkpt>
      <trkpt lat="41.04923" lon="0.7256">
        <ele>266.8</ele>
        <time>2022-05-24 12:54:58</time>
      </trkpt>
      <trkpt lat="41.04925" lon="0.72553">
        <ele>266.4</ele>
        <time>2022-05-24 12:54:59</time>
      </trkpt>
      <trkpt lat="41.04929" lon="0.7254">
        <ele>266</ele>
        <time>2022-05-24 12:55:00</time>
      </trkpt>
      <trkpt lat="41.04932" lon="0.72531">
        <ele>265.8</ele>
        <time>2022-05-24 12:55:01</time>
      </trkpt>
      <trkpt lat="41.04936" lon="0.7252">
        <ele>265.6</ele>
        <time>2022-05-24 12:55:02</time>
      </trkpt>
      <trkpt lat="41.04939" lon="0.72509">
        <ele>265.2</ele>
        <time>2022-05-24 12:55:03</time>
      </trkpt>
      <trkpt lat="41.04943" lon="0.72499">
        <ele>264.8</ele>
        <time>2022-05-24 12:55:04</time>
      </trkpt>
      <trkpt lat="41.04946" lon="0.72489">
        <ele>264.4</ele>
        <time>2022-05-24 12:55:05</time>
      </trkpt>
      <trkpt lat="41.0495" lon="0.72478">
        <ele>264.2</ele>
        <time>2022-05-24 12:55:06</time>
      </trkpt>
      <trkpt lat="41.04954" lon="0.72468">
        <ele>263.8</ele>
        <time>2022-05-24 12:55:07</time>
      </trkpt>
      <trkpt lat="41.04958" lon="0.72457">
        <ele>263.4</ele>
        <time>2022-05-24 12:55:08</time>
      </trkpt>
      <trkpt lat="41.04962" lon="0.72447">
        <ele>263</ele>
        <time>2022-05-24 12:55:09</time>
      </trkpt>
      <trkpt lat="41.04966" lon="0.72436">
        <ele>262.6</ele>
        <time>2022-05-24 12:55:10</time>
      </trkpt>
      <trkpt lat="41.04971" lon="0.72425">
        <ele>262.2</ele>
        <time>2022-05-24 12:55:11</time>
      </trkpt>
      <trkpt lat="41.04975" lon="0.72414">
        <ele>261.8</ele>
        <time>2022-05-24 12:55:12</time>
      </trkpt>
      <trkpt lat="41.0498" lon="0.72403">
        <ele>261.6</ele>
        <time>2022-05-24 12:55:13</time>
      </trkpt>
      <trkpt lat="41.04984" lon="0.72394">
        <ele>261.2</ele>
        <time>2022-05-24 12:55:14</time>
      </trkpt>
      <trkpt lat="41.04989" lon="0.72381">
        <ele>260.8</ele>
        <time>2022-05-24 12:55:15</time>
      </trkpt>
      <trkpt lat="41.04994" lon="0.7237">
        <ele>260.4</ele>
        <time>2022-05-24 12:55:16</time>
      </trkpt>
      <trkpt lat="41.04998" lon="0.72359">
        <ele>260</ele>
        <time>2022-05-24 12:55:17</time>
      </trkpt>
      <trkpt lat="41.05003" lon="0.72348">
        <ele>259.6</ele>
        <time>2022-05-24 12:55:18</time>
      </trkpt>
      <trkpt lat="41.05008" lon="0.72336">
        <ele>259.2</ele>
        <time>2022-05-24 12:55:19</time>
      </trkpt>
      <trkpt lat="41.05013" lon="0.72325">
        <ele>258.8</ele>
        <time>2022-05-24 12:55:20</time>
      </trkpt>
      <trkpt lat="41.05017" lon="0.72314">
        <ele>258.4</ele>
        <time>2022-05-24 12:55:21</time>
      </trkpt>
      <trkpt lat="41.05022" lon="0.72303">
        <ele>258</ele>
        <time>2022-05-24 12:55:22</time>
      </trkpt>
      <trkpt lat="41.05026" lon="0.72293">
        <ele>257.6</ele>
        <time>2022-05-24 12:55:23</time>
      </trkpt>
      <trkpt lat="41.05032" lon="0.72281">
        <ele>257</ele>
        <time>2022-05-24 12:55:24</time>
      </trkpt>
      <trkpt lat="41.05037" lon="0.72269">
        <ele>256.6</ele>
        <time>2022-05-24 12:55:25</time>
      </trkpt>
      <trkpt lat="41.05042" lon="0.72258">
        <ele>256.4</ele>
        <time>2022-05-24 12:55:26</time>
      </trkpt>
      <trkpt lat="41.05047" lon="0.72247">
        <ele>256</ele>
        <time>2022-05-24 12:55:27</time>
      </trkpt>
      <trkpt lat="41.05051" lon="0.72236">
        <ele>255.6</ele>
        <time>2022-05-24 12:55:28</time>
      </trkpt>
      <trkpt lat="41.05055" lon="0.72224">
        <ele>255.2</ele>
        <time>2022-05-24 12:55:29</time>
      </trkpt>
      <trkpt lat="41.05059" lon="0.72212">
        <ele>254.8</ele>
        <time>2022-05-24 12:55:30</time>
      </trkpt>
      <trkpt lat="41.05063" lon="0.722">
        <ele>254.4</ele>
        <time>2022-05-24 12:55:31</time>
      </trkpt>
      <trkpt lat="41.05067" lon="0.72189">
        <ele>254</ele>
        <time>2022-05-24 12:55:32</time>
      </trkpt>
      <trkpt lat="41.05071" lon="0.72177">
        <ele>253.6</ele>
        <time>2022-05-24 12:55:33</time>
      </trkpt>
      <trkpt lat="41.05075" lon="0.72166">
        <ele>253.2</ele>
        <time>2022-05-24 12:55:34</time>
      </trkpt>
      <trkpt lat="41.0508" lon="0.72154">
        <ele>252.8</ele>
        <time>2022-05-24 12:55:35</time>
      </trkpt>
      <trkpt lat="41.05084" lon="0.72143">
        <ele>252.4</ele>
        <time>2022-05-24 12:55:36</time>
      </trkpt>
      <trkpt lat="41.05089" lon="0.72132">
        <ele>252</ele>
        <time>2022-05-24 12:55:37</time>
      </trkpt>
      <trkpt lat="41.05093" lon="0.7212">
        <ele>251.6</ele>
        <time>2022-05-24 12:55:38</time>
      </trkpt>
      <trkpt lat="41.05098" lon="0.72108">
        <ele>251.2</ele>
        <time>2022-05-24 12:55:39</time>
      </trkpt>
      <trkpt lat="41.05104" lon="0.72097">
        <ele>250.8</ele>
        <time>2022-05-24 12:55:40</time>
      </trkpt>
      <trkpt lat="41.05109" lon="0.72086">
        <ele>250.4</ele>
        <time>2022-05-24 12:55:41</time>
      </trkpt>
      <trkpt lat="41.05114" lon="0.72074">
        <ele>250.2</ele>
        <time>2022-05-24 12:55:42</time>
      </trkpt>
      <trkpt lat="41.05119" lon="0.72062">
        <ele>249.6</ele>
        <time>2022-05-24 12:55:43</time>
      </trkpt>
      <trkpt lat="41.05125" lon="0.72049">
        <ele>249.2</ele>
        <time>2022-05-24 12:55:44</time>
      </trkpt>
      <trkpt lat="41.0513" lon="0.72037">
        <ele>248.8</ele>
        <time>2022-05-24 12:55:45</time>
      </trkpt>
      <trkpt lat="41.05135" lon="0.72025">
        <ele>248.4</ele>
        <time>2022-05-24 12:55:46</time>
      </trkpt>
      <trkpt lat="41.05139" lon="0.72014">
        <ele>247.8</ele>
        <time>2022-05-24 12:55:47</time>
      </trkpt>
      <trkpt lat="41.05143" lon="0.72002">
        <ele>247.4</ele>
        <time>2022-05-24 12:55:48</time>
      </trkpt>
      <trkpt lat="41.05148" lon="0.7199">
        <ele>247</ele>
        <time>2022-05-24 12:55:49</time>
      </trkpt>
      <trkpt lat="41.05153" lon="0.71978">
        <ele>246.6</ele>
        <time>2022-05-24 12:55:50</time>
      </trkpt>
      <trkpt lat="41.05158" lon="0.71966">
        <ele>246.2</ele>
        <time>2022-05-24 12:55:51</time>
      </trkpt>
      <trkpt lat="41.05164" lon="0.71954">
        <ele>245.8</ele>
        <time>2022-05-24 12:55:52</time>
      </trkpt>
      <trkpt lat="41.05168" lon="0.71942">
        <ele>245.6</ele>
        <time>2022-05-24 12:55:53</time>
      </trkpt>
      <trkpt lat="41.05172" lon="0.7193">
        <ele>245</ele>
        <time>2022-05-24 12:55:54</time>
      </trkpt>
      <trkpt lat="41.05178" lon="0.71917">
        <ele>244.6</ele>
        <time>2022-05-24 12:55:55</time>
      </trkpt>
      <trkpt lat="41.05183" lon="0.71906">
        <ele>244</ele>
        <time>2022-05-24 12:55:56</time>
      </trkpt>
      <trkpt lat="41.05187" lon="0.71895">
        <ele>243.6</ele>
        <time>2022-05-24 12:55:57</time>
      </trkpt>
      <trkpt lat="41.05192" lon="0.71881">
        <ele>243.2</ele>
        <time>2022-05-24 12:55:58</time>
      </trkpt>
      <trkpt lat="41.05197" lon="0.71868">
        <ele>242.8</ele>
        <time>2022-05-24 12:55:59</time>
      </trkpt>
      <trkpt lat="41.05201" lon="0.71856">
        <ele>242.4</ele>
        <time>2022-05-24 12:56:00</time>
      </trkpt>
      <trkpt lat="41.05207" lon="0.71843">
        <ele>242</ele>
        <time>2022-05-24 12:56:01</time>
      </trkpt>
      <trkpt lat="41.05212" lon="0.71831">
        <ele>241.6</ele>
        <time>2022-05-24 12:56:02</time>
      </trkpt>
      <trkpt lat="41.05217" lon="0.71818">
        <ele>241</ele>
        <time>2022-05-24 12:56:03</time>
      </trkpt>
      <trkpt lat="41.05223" lon="0.71805">
        <ele>240.6</ele>
        <time>2022-05-24 12:56:04</time>
      </trkpt>
      <trkpt lat="41.05228" lon="0.71793">
        <ele>240.2</ele>
        <time>2022-05-24 12:56:05</time>
      </trkpt>
      <trkpt lat="41.05233" lon="0.7178">
        <ele>239.8</ele>
        <time>2022-05-24 12:56:06</time>
      </trkpt>
      <trkpt lat="41.05238" lon="0.71768">
        <ele>239.4</ele>
        <time>2022-05-24 12:56:07</time>
      </trkpt>
      <trkpt lat="41.05243" lon="0.71755">
        <ele>238.8</ele>
        <time>2022-05-24 12:56:08</time>
      </trkpt>
      <trkpt lat="41.05248" lon="0.71743">
        <ele>238.6</ele>
        <time>2022-05-24 12:56:09</time>
      </trkpt>
      <trkpt lat="41.05253" lon="0.7173">
        <ele>238.2</ele>
        <time>2022-05-24 12:56:10</time>
      </trkpt>
      <trkpt lat="41.05258" lon="0.71718">
        <ele>237.8</ele>
        <time>2022-05-24 12:56:11</time>
      </trkpt>
      <trkpt lat="41.05262" lon="0.71706">
        <ele>237.6</ele>
        <time>2022-05-24 12:56:12</time>
      </trkpt>
      <trkpt lat="41.05267" lon="0.71695">
        <ele>237.4</ele>
        <time>2022-05-24 12:56:13</time>
      </trkpt>
      <trkpt lat="41.05272" lon="0.71683">
        <ele>237.2</ele>
        <time>2022-05-24 12:56:14</time>
      </trkpt>
      <trkpt lat="41.05276" lon="0.71671">
        <ele>237</ele>
        <time>2022-05-24 12:56:15</time>
      </trkpt>
      <trkpt lat="41.05278" lon="0.7166">
        <ele>236.8</ele>
        <time>2022-05-24 12:56:16</time>
      </trkpt>
      <trkpt lat="41.05281" lon="0.71648">
        <ele>236.6</ele>
        <time>2022-05-24 12:56:17</time>
      </trkpt>
      <trkpt lat="41.05283" lon="0.71635">
        <ele>236.4</ele>
        <time>2022-05-24 12:56:18</time>
      </trkpt>
      <trkpt lat="41.05285" lon="0.71621">
        <ele>236.2</ele>
        <time>2022-05-24 12:56:19</time>
      </trkpt>
      <trkpt lat="41.05286" lon="0.71609">
        <ele>236.2</ele>
        <time>2022-05-24 12:56:20</time>
      </trkpt>
      <trkpt lat="41.05288" lon="0.71596">
        <ele>236</ele>
        <time>2022-05-24 12:56:21</time>
      </trkpt>
      <trkpt lat="41.05288" lon="0.71585">
        <ele>235.8</ele>
        <time>2022-05-24 12:56:22</time>
      </trkpt>
      <trkpt lat="41.05289" lon="0.71573">
        <ele>235.6</ele>
        <time>2022-05-24 12:56:23</time>
      </trkpt>
      <trkpt lat="41.0529" lon="0.71561">
        <ele>235.6</ele>
        <time>2022-05-24 12:56:24</time>
      </trkpt>
      <trkpt lat="41.05291" lon="0.71549">
        <ele>235.6</ele>
        <time>2022-05-24 12:56:25</time>
      </trkpt>
      <trkpt lat="41.05292" lon="0.71538">
        <ele>235.6</ele>
        <time>2022-05-24 12:56:26</time>
      </trkpt>
      <trkpt lat="41.05292" lon="0.71527">
        <ele>235.6</ele>
        <time>2022-05-24 12:56:27</time>
      </trkpt>
      <trkpt lat="41.05293" lon="0.71515">
        <ele>235.6</ele>
        <time>2022-05-24 12:56:28</time>
      </trkpt>
      <trkpt lat="41.05294" lon="0.71504">
        <ele>235.4</ele>
        <time>2022-05-24 12:56:29</time>
      </trkpt>
      <trkpt lat="41.05295" lon="0.71493">
        <ele>235.4</ele>
        <time>2022-05-24 12:56:30</time>
      </trkpt>
      <trkpt lat="41.05296" lon="0.71482">
        <ele>235.2</ele>
        <time>2022-05-24 12:56:31</time>
      </trkpt>
      <trkpt lat="41.05297" lon="0.71471">
        <ele>235.2</ele>
        <time>2022-05-24 12:56:32</time>
      </trkpt>
      <trkpt lat="41.05298" lon="0.7146">
        <ele>235.2</ele>
        <time>2022-05-24 12:56:33</time>
      </trkpt>
      <trkpt lat="41.05299" lon="0.7145">
        <ele>235</ele>
        <time>2022-05-24 12:56:34</time>
      </trkpt>
      <trkpt lat="41.05299" lon="0.71442">
        <ele>235</ele>
        <time>2022-05-24 12:56:35</time>
      </trkpt>
      <trkpt lat="41.05301" lon="0.71429">
        <ele>235</ele>
        <time>2022-05-24 12:56:36</time>
      </trkpt>
      <trkpt lat="41.05302" lon="0.71419">
        <ele>234.8</ele>
        <time>2022-05-24 12:56:37</time>
      </trkpt>
      <trkpt lat="41.05302" lon="0.71407">
        <ele>234.8</ele>
        <time>2022-05-24 12:56:38</time>
      </trkpt>
      <trkpt lat="41.05304" lon="0.71397">
        <ele>234.6</ele>
        <time>2022-05-24 12:56:39</time>
      </trkpt>
      <trkpt lat="41.05305" lon="0.71386">
        <ele>234.4</ele>
        <time>2022-05-24 12:56:40</time>
      </trkpt>
      <trkpt lat="41.05306" lon="0.71375">
        <ele>234.2</ele>
        <time>2022-05-24 12:56:41</time>
      </trkpt>
      <trkpt lat="41.05307" lon="0.71364">
        <ele>234</ele>
        <time>2022-05-24 12:56:42</time>
      </trkpt>
      <trkpt lat="41.05309" lon="0.71353">
        <ele>233.8</ele>
        <time>2022-05-24 12:56:43</time>
      </trkpt>
      <trkpt lat="41.05309" lon="0.71341">
        <ele>233.6</ele>
        <time>2022-05-24 12:56:44</time>
      </trkpt>
      <trkpt lat="41.0531" lon="0.7133">
        <ele>233.4</ele>
        <time>2022-05-24 12:56:45</time>
      </trkpt>
      <trkpt lat="41.0531" lon="0.71319">
        <ele>233.2</ele>
        <time>2022-05-24 12:56:46</time>
      </trkpt>
      <trkpt lat="41.05312" lon="0.71307">
        <ele>233</ele>
        <time>2022-05-24 12:56:47</time>
      </trkpt>
      <trkpt lat="41.05312" lon="0.71296">
        <ele>232.8</ele>
        <time>2022-05-24 12:56:48</time>
      </trkpt>
      <trkpt lat="41.05313" lon="0.71286">
        <ele>232.6</ele>
        <time>2022-05-24 12:56:49</time>
      </trkpt>
      <trkpt lat="41.05315" lon="0.71273">
        <ele>232.2</ele>
        <time>2022-05-24 12:56:50</time>
      </trkpt>
      <trkpt lat="41.05316" lon="0.71262">
        <ele>232</ele>
        <time>2022-05-24 12:56:51</time>
      </trkpt>
      <trkpt lat="41.05318" lon="0.7125">
        <ele>231.6</ele>
        <time>2022-05-24 12:56:52</time>
      </trkpt>
      <trkpt lat="41.05321" lon="0.71239">
        <ele>231.4</ele>
        <time>2022-05-24 12:56:53</time>
      </trkpt>
      <trkpt lat="41.05324" lon="0.71227">
        <ele>231</ele>
        <time>2022-05-24 12:56:54</time>
      </trkpt>
      <trkpt lat="41.05327" lon="0.71218">
        <ele>230.8</ele>
        <time>2022-05-24 12:56:55</time>
      </trkpt>
      <trkpt lat="41.05332" lon="0.71206">
        <ele>230.4</ele>
        <time>2022-05-24 12:56:56</time>
      </trkpt>
      <trkpt lat="41.05336" lon="0.71197">
        <ele>230.2</ele>
        <time>2022-05-24 12:56:57</time>
      </trkpt>
      <trkpt lat="41.05341" lon="0.71187">
        <ele>229.8</ele>
        <time>2022-05-24 12:56:58</time>
      </trkpt>
      <trkpt lat="41.05347" lon="0.71177">
        <ele>229.6</ele>
        <time>2022-05-24 12:56:59</time>
      </trkpt>
      <trkpt lat="41.05354" lon="0.71167">
        <ele>229.2</ele>
        <time>2022-05-24 12:57:00</time>
      </trkpt>
      <trkpt lat="41.0536" lon="0.71158">
        <ele>229</ele>
        <time>2022-05-24 12:57:01</time>
      </trkpt>
      <trkpt lat="41.05365" lon="0.71149">
        <ele>228.6</ele>
        <time>2022-05-24 12:57:02</time>
      </trkpt>
      <trkpt lat="41.05371" lon="0.71139">
        <ele>228.4</ele>
        <time>2022-05-24 12:57:03</time>
      </trkpt>
      <trkpt lat="41.05376" lon="0.7113">
        <ele>228</ele>
        <time>2022-05-24 12:57:04</time>
      </trkpt>
      <trkpt lat="41.05383" lon="0.71119">
        <ele>227.8</ele>
        <time>2022-05-24 12:57:05</time>
      </trkpt>
      <trkpt lat="41.05388" lon="0.7111">
        <ele>227.4</ele>
        <time>2022-05-24 12:57:06</time>
      </trkpt>
      <trkpt lat="41.05393" lon="0.711">
        <ele>227</ele>
        <time>2022-05-24 12:57:07</time>
      </trkpt>
      <trkpt lat="41.05398" lon="0.7109">
        <ele>226.6</ele>
        <time>2022-05-24 12:57:08</time>
      </trkpt>
      <trkpt lat="41.05402" lon="0.71078">
        <ele>226.4</ele>
        <time>2022-05-24 12:57:09</time>
      </trkpt>
      <trkpt lat="41.05405" lon="0.71067">
        <ele>226</ele>
        <time>2022-05-24 12:57:10</time>
      </trkpt>
      <trkpt lat="41.05407" lon="0.71054">
        <ele>225.6</ele>
        <time>2022-05-24 12:57:11</time>
      </trkpt>
      <trkpt lat="41.05408" lon="0.71042">
        <ele>225.4</ele>
        <time>2022-05-24 12:57:12</time>
      </trkpt>
      <trkpt lat="41.0541" lon="0.7103">
        <ele>225</ele>
        <time>2022-05-24 12:57:13</time>
      </trkpt>
      <trkpt lat="41.05411" lon="0.71018">
        <ele>224.6</ele>
        <time>2022-05-24 12:57:14</time>
      </trkpt>
      <trkpt lat="41.05412" lon="0.71006">
        <ele>224.4</ele>
        <time>2022-05-24 12:57:15</time>
      </trkpt>
      <trkpt lat="41.05413" lon="0.70993">
        <ele>224.2</ele>
        <time>2022-05-24 12:57:16</time>
      </trkpt>
      <trkpt lat="41.05415" lon="0.70981">
        <ele>224</ele>
        <time>2022-05-24 12:57:17</time>
      </trkpt>
      <trkpt lat="41.05416" lon="0.7097">
        <ele>223.6</ele>
        <time>2022-05-24 12:57:18</time>
      </trkpt>
      <trkpt lat="41.05417" lon="0.70958">
        <ele>223.2</ele>
        <time>2022-05-24 12:57:19</time>
      </trkpt>
      <trkpt lat="41.05418" lon="0.70947">
        <ele>223</ele>
        <time>2022-05-24 12:57:20</time>
      </trkpt>
      <trkpt lat="41.0542" lon="0.70935">
        <ele>222.8</ele>
        <time>2022-05-24 12:57:21</time>
      </trkpt>
      <trkpt lat="41.0542" lon="0.70924">
        <ele>222.6</ele>
        <time>2022-05-24 12:57:22</time>
      </trkpt>
      <trkpt lat="41.05421" lon="0.70912">
        <ele>222.2</ele>
        <time>2022-05-24 12:57:23</time>
      </trkpt>
      <trkpt lat="41.05422" lon="0.70901">
        <ele>222</ele>
        <time>2022-05-24 12:57:24</time>
      </trkpt>
      <trkpt lat="41.05423" lon="0.70888">
        <ele>221.6</ele>
        <time>2022-05-24 12:57:25</time>
      </trkpt>
      <trkpt lat="41.05425" lon="0.70876">
        <ele>221.2</ele>
        <time>2022-05-24 12:57:26</time>
      </trkpt>
      <trkpt lat="41.05426" lon="0.70863">
        <ele>221</ele>
        <time>2022-05-24 12:57:27</time>
      </trkpt>
      <trkpt lat="41.05427" lon="0.70851">
        <ele>220.8</ele>
        <time>2022-05-24 12:57:28</time>
      </trkpt>
      <trkpt lat="41.05429" lon="0.7084">
        <ele>220.6</ele>
        <time>2022-05-24 12:57:29</time>
      </trkpt>
      <trkpt lat="41.0543" lon="0.70828">
        <ele>220.4</ele>
        <time>2022-05-24 12:57:30</time>
      </trkpt>
      <trkpt lat="41.05433" lon="0.70816">
        <ele>220.2</ele>
        <time>2022-05-24 12:57:31</time>
      </trkpt>
      <trkpt lat="41.05434" lon="0.70804">
        <ele>219.8</ele>
        <time>2022-05-24 12:57:32</time>
      </trkpt>
      <trkpt lat="41.05435" lon="0.70792">
        <ele>219.6</ele>
        <time>2022-05-24 12:57:33</time>
      </trkpt>
      <trkpt lat="41.05436" lon="0.70779">
        <ele>219.4</ele>
        <time>2022-05-24 12:57:34</time>
      </trkpt>
      <trkpt lat="41.05438" lon="0.70767">
        <ele>219.2</ele>
        <time>2022-05-24 12:57:35</time>
      </trkpt>
      <trkpt lat="41.05438" lon="0.70756">
        <ele>218.8</ele>
        <time>2022-05-24 12:57:36</time>
      </trkpt>
      <trkpt lat="41.05439" lon="0.70746">
        <ele>218.6</ele>
        <time>2022-05-24 12:57:37</time>
      </trkpt>
      <trkpt lat="41.05441" lon="0.70733">
        <ele>218.4</ele>
        <time>2022-05-24 12:57:38</time>
      </trkpt>
      <trkpt lat="41.05442" lon="0.70722">
        <ele>218.2</ele>
        <time>2022-05-24 12:57:39</time>
      </trkpt>
      <trkpt lat="41.05443" lon="0.7071">
        <ele>218</ele>
        <time>2022-05-24 12:57:40</time>
      </trkpt>
      <trkpt lat="41.05444" lon="0.707">
        <ele>218</ele>
        <time>2022-05-24 12:57:41</time>
      </trkpt>
      <trkpt lat="41.05445" lon="0.70688">
        <ele>217.6</ele>
        <time>2022-05-24 12:57:42</time>
      </trkpt>
      <trkpt lat="41.05447" lon="0.70678">
        <ele>217.4</ele>
        <time>2022-05-24 12:57:43</time>
      </trkpt>
      <trkpt lat="41.05448" lon="0.70666">
        <ele>217.4</ele>
        <time>2022-05-24 12:57:44</time>
      </trkpt>
      <trkpt lat="41.05449" lon="0.70655">
        <ele>217.2</ele>
        <time>2022-05-24 12:57:45</time>
      </trkpt>
      <trkpt lat="41.0545" lon="0.70644">
        <ele>217</ele>
        <time>2022-05-24 12:57:46</time>
      </trkpt>
      <trkpt lat="41.05452" lon="0.70634">
        <ele>216.8</ele>
        <time>2022-05-24 12:57:47</time>
      </trkpt>
      <trkpt lat="41.05454" lon="0.70623">
        <ele>216.6</ele>
        <time>2022-05-24 12:57:48</time>
      </trkpt>
      <trkpt lat="41.05457" lon="0.70612">
        <ele>216.4</ele>
        <time>2022-05-24 12:57:49</time>
      </trkpt>
      <trkpt lat="41.0546" lon="0.70601">
        <ele>216.2</ele>
        <time>2022-05-24 12:57:50</time>
      </trkpt>
      <trkpt lat="41.05463" lon="0.7059">
        <ele>216</ele>
        <time>2022-05-24 12:57:51</time>
      </trkpt>
      <trkpt lat="41.05466" lon="0.7058">
        <ele>215.8</ele>
        <time>2022-05-24 12:57:52</time>
      </trkpt>
      <trkpt lat="41.0547" lon="0.70568">
        <ele>215.6</ele>
        <time>2022-05-24 12:57:53</time>
      </trkpt>
      <trkpt lat="41.05473" lon="0.70557">
        <ele>215.4</ele>
        <time>2022-05-24 12:57:54</time>
      </trkpt>
      <trkpt lat="41.05477" lon="0.70545">
        <ele>215.2</ele>
        <time>2022-05-24 12:57:55</time>
      </trkpt>
      <trkpt lat="41.05481" lon="0.70535">
        <ele>214.8</ele>
        <time>2022-05-24 12:57:56</time>
      </trkpt>
      <trkpt lat="41.05485" lon="0.70523">
        <ele>214.6</ele>
        <time>2022-05-24 12:57:57</time>
      </trkpt>
      <trkpt lat="41.05489" lon="0.70513">
        <ele>214.2</ele>
        <time>2022-05-24 12:57:58</time>
      </trkpt>
      <trkpt lat="41.05494" lon="0.705">
        <ele>213.8</ele>
        <time>2022-05-24 12:57:59</time>
      </trkpt>
      <trkpt lat="41.05498" lon="0.70489">
        <ele>213.4</ele>
        <time>2022-05-24 12:58:00</time>
      </trkpt>
      <trkpt lat="41.05502" lon="0.70477">
        <ele>212.8</ele>
        <time>2022-05-24 12:58:01</time>
      </trkpt>
      <trkpt lat="41.05507" lon="0.70465">
        <ele>212.4</ele>
        <time>2022-05-24 12:58:02</time>
      </trkpt>
      <trkpt lat="41.05511" lon="0.70453">
        <ele>212</ele>
        <time>2022-05-24 12:58:03</time>
      </trkpt>
      <trkpt lat="41.05515" lon="0.70443">
        <ele>211.6</ele>
        <time>2022-05-24 12:58:04</time>
      </trkpt>
      <trkpt lat="41.0552" lon="0.70429">
        <ele>211.2</ele>
        <time>2022-05-24 12:58:05</time>
      </trkpt>
      <trkpt lat="41.05525" lon="0.70417">
        <ele>210.8</ele>
        <time>2022-05-24 12:58:06</time>
      </trkpt>
      <trkpt lat="41.05529" lon="0.70405">
        <ele>210.2</ele>
        <time>2022-05-24 12:58:07</time>
      </trkpt>
      <trkpt lat="41.05534" lon="0.70394">
        <ele>209.6</ele>
        <time>2022-05-24 12:58:08</time>
      </trkpt>
      <trkpt lat="41.05538" lon="0.7038">
        <ele>209.2</ele>
        <time>2022-05-24 12:58:09</time>
      </trkpt>
      <trkpt lat="41.05543" lon="0.70367">
        <ele>208.6</ele>
        <time>2022-05-24 12:58:10</time>
      </trkpt>
      <trkpt lat="41.05548" lon="0.70353">
        <ele>208.2</ele>
        <time>2022-05-24 12:58:11</time>
      </trkpt>
      <trkpt lat="41.05553" lon="0.7034">
        <ele>207.6</ele>
        <time>2022-05-24 12:58:12</time>
      </trkpt>
      <trkpt lat="41.05557" lon="0.70329">
        <ele>207</ele>
        <time>2022-05-24 12:58:13</time>
      </trkpt>
      <trkpt lat="41.05563" lon="0.70313">
        <ele>206.4</ele>
        <time>2022-05-24 12:58:14</time>
      </trkpt>
      <trkpt lat="41.05568" lon="0.70299">
        <ele>206</ele>
        <time>2022-05-24 12:58:15</time>
      </trkpt>
      <trkpt lat="41.05574" lon="0.70286">
        <ele>205.4</ele>
        <time>2022-05-24 12:58:16</time>
      </trkpt>
      <trkpt lat="41.0558" lon="0.70272">
        <ele>204.8</ele>
        <time>2022-05-24 12:58:17</time>
      </trkpt>
      <trkpt lat="41.05586" lon="0.70259">
        <ele>204</ele>
        <time>2022-05-24 12:58:18</time>
      </trkpt>
      <trkpt lat="41.05591" lon="0.70245">
        <ele>203.4</ele>
        <time>2022-05-24 12:58:19</time>
      </trkpt>
      <trkpt lat="41.05596" lon="0.70232">
        <ele>202.8</ele>
        <time>2022-05-24 12:58:20</time>
      </trkpt>
      <trkpt lat="41.05601" lon="0.70218">
        <ele>202.2</ele>
        <time>2022-05-24 12:58:21</time>
      </trkpt>
      <trkpt lat="41.05608" lon="0.70204">
        <ele>201.6</ele>
        <time>2022-05-24 12:58:22</time>
      </trkpt>
      <trkpt lat="41.05614" lon="0.70189">
        <ele>201.2</ele>
        <time>2022-05-24 12:58:23</time>
      </trkpt>
      <trkpt lat="41.05619" lon="0.70176">
        <ele>200.6</ele>
        <time>2022-05-24 12:58:24</time>
      </trkpt>
      <trkpt lat="41.05626" lon="0.7016">
        <ele>199.8</ele>
        <time>2022-05-24 12:58:25</time>
      </trkpt>
      <trkpt lat="41.05631" lon="0.70147">
        <ele>199.2</ele>
        <time>2022-05-24 12:58:26</time>
      </trkpt>
      <trkpt lat="41.05636" lon="0.7013">
        <ele>198.8</ele>
        <time>2022-05-24 12:58:27</time>
      </trkpt>
      <trkpt lat="41.05641" lon="0.70117">
        <ele>198.2</ele>
        <time>2022-05-24 12:58:28</time>
      </trkpt>
      <trkpt lat="41.05647" lon="0.70102">
        <ele>197.4</ele>
        <time>2022-05-24 12:58:29</time>
      </trkpt>
      <trkpt lat="41.05652" lon="0.70088">
        <ele>196.8</ele>
        <time>2022-05-24 12:58:30</time>
      </trkpt>
      <trkpt lat="41.05657" lon="0.70073">
        <ele>196.2</ele>
        <time>2022-05-24 12:58:31</time>
      </trkpt>
      <trkpt lat="41.05661" lon="0.70059">
        <ele>195.8</ele>
        <time>2022-05-24 12:58:32</time>
      </trkpt>
      <trkpt lat="41.05666" lon="0.70044">
        <ele>195.4</ele>
        <time>2022-05-24 12:58:33</time>
      </trkpt>
      <trkpt lat="41.05671" lon="0.70031">
        <ele>195</ele>
        <time>2022-05-24 12:58:34</time>
      </trkpt>
      <trkpt lat="41.05677" lon="0.70016">
        <ele>194.6</ele>
        <time>2022-05-24 12:58:35</time>
      </trkpt>
      <trkpt lat="41.05683" lon="0.70001">
        <ele>194.4</ele>
        <time>2022-05-24 12:58:36</time>
      </trkpt>
      <trkpt lat="41.05689" lon="0.69987">
        <ele>194.2</ele>
        <time>2022-05-24 12:58:37</time>
      </trkpt>
      <trkpt lat="41.05693" lon="0.69975">
        <ele>194.2</ele>
        <time>2022-05-24 12:58:38</time>
      </trkpt>
      <trkpt lat="41.05698" lon="0.69962">
        <ele>194</ele>
        <time>2022-05-24 12:58:39</time>
      </trkpt>
      <trkpt lat="41.05703" lon="0.69948">
        <ele>193.8</ele>
        <time>2022-05-24 12:58:40</time>
      </trkpt>
      <trkpt lat="41.05707" lon="0.69936">
        <ele>193.6</ele>
        <time>2022-05-24 12:58:41</time>
      </trkpt>
      <trkpt lat="41.05713" lon="0.69923">
        <ele>193.4</ele>
        <time>2022-05-24 12:58:42</time>
      </trkpt>
      <trkpt lat="41.05717" lon="0.69912">
        <ele>193.2</ele>
        <time>2022-05-24 12:58:43</time>
      </trkpt>
      <trkpt lat="41.05721" lon="0.69899">
        <ele>193</ele>
        <time>2022-05-24 12:58:44</time>
      </trkpt>
      <trkpt lat="41.05726" lon="0.69886">
        <ele>192.8</ele>
        <time>2022-05-24 12:58:45</time>
      </trkpt>
      <trkpt lat="41.05731" lon="0.69875">
        <ele>192.8</ele>
        <time>2022-05-24 12:58:46</time>
      </trkpt>
      <trkpt lat="41.05735" lon="0.69863">
        <ele>192.6</ele>
        <time>2022-05-24 12:58:47</time>
      </trkpt>
      <trkpt lat="41.0574" lon="0.69851">
        <ele>192.6</ele>
        <time>2022-05-24 12:58:48</time>
      </trkpt>
      <trkpt lat="41.05744" lon="0.69839">
        <ele>192.4</ele>
        <time>2022-05-24 12:58:49</time>
      </trkpt>
      <trkpt lat="41.05748" lon="0.69827">
        <ele>192.2</ele>
        <time>2022-05-24 12:58:50</time>
      </trkpt>
      <trkpt lat="41.05753" lon="0.69816">
        <ele>192</ele>
        <time>2022-05-24 12:58:51</time>
      </trkpt>
      <trkpt lat="41.05758" lon="0.69805">
        <ele>191.8</ele>
        <time>2022-05-24 12:58:52</time>
      </trkpt>
      <trkpt lat="41.05762" lon="0.69793">
        <ele>191.6</ele>
        <time>2022-05-24 12:58:53</time>
      </trkpt>
      <trkpt lat="41.05767" lon="0.69782">
        <ele>191.6</ele>
        <time>2022-05-24 12:58:54</time>
      </trkpt>
      <trkpt lat="41.05771" lon="0.69771">
        <ele>191.4</ele>
        <time>2022-05-24 12:58:55</time>
      </trkpt>
      <trkpt lat="41.05775" lon="0.69759">
        <ele>191.4</ele>
        <time>2022-05-24 12:58:56</time>
      </trkpt>
      <trkpt lat="41.05779" lon="0.69748">
        <ele>191.2</ele>
        <time>2022-05-24 12:58:57</time>
      </trkpt>
      <trkpt lat="41.05783" lon="0.69737">
        <ele>191</ele>
        <time>2022-05-24 12:58:58</time>
      </trkpt>
      <trkpt lat="41.05788" lon="0.69724">
        <ele>190.8</ele>
        <time>2022-05-24 12:58:59</time>
      </trkpt>
      <trkpt lat="41.05793" lon="0.69712">
        <ele>190.6</ele>
        <time>2022-05-24 12:59:00</time>
      </trkpt>
      <trkpt lat="41.05798" lon="0.69699">
        <ele>190.6</ele>
        <time>2022-05-24 12:59:01</time>
      </trkpt>
      <trkpt lat="41.05802" lon="0.69688">
        <ele>190.4</ele>
        <time>2022-05-24 12:59:02</time>
      </trkpt>
      <trkpt lat="41.05806" lon="0.69676">
        <ele>190.4</ele>
        <time>2022-05-24 12:59:03</time>
      </trkpt>
      <trkpt lat="41.0581" lon="0.69665">
        <ele>190.4</ele>
        <time>2022-05-24 12:59:04</time>
      </trkpt>
      <trkpt lat="41.05814" lon="0.69654">
        <ele>190.4</ele>
        <time>2022-05-24 12:59:05</time>
      </trkpt>
      <trkpt lat="41.05817" lon="0.69642">
        <ele>190.4</ele>
        <time>2022-05-24 12:59:06</time>
      </trkpt>
      <trkpt lat="41.0582" lon="0.69631">
        <ele>190.2</ele>
        <time>2022-05-24 12:59:07</time>
      </trkpt>
      <trkpt lat="41.05823" lon="0.6962">
        <ele>190</ele>
        <time>2022-05-24 12:59:08</time>
      </trkpt>
      <trkpt lat="41.05825" lon="0.69608">
        <ele>189.6</ele>
        <time>2022-05-24 12:59:09</time>
      </trkpt>
      <trkpt lat="41.05827" lon="0.69597">
        <ele>189.4</ele>
        <time>2022-05-24 12:59:10</time>
      </trkpt>
      <trkpt lat="41.05828" lon="0.69586">
        <ele>189.4</ele>
        <time>2022-05-24 12:59:11</time>
      </trkpt>
      <trkpt lat="41.0583" lon="0.69575">
        <ele>189.4</ele>
        <time>2022-05-24 12:59:12</time>
      </trkpt>
      <trkpt lat="41.05832" lon="0.69563">
        <ele>189.4</ele>
        <time>2022-05-24 12:59:13</time>
      </trkpt>
      <trkpt lat="41.05833" lon="0.69552">
        <ele>189.4</ele>
        <time>2022-05-24 12:59:14</time>
      </trkpt>
      <trkpt lat="41.05835" lon="0.6954">
        <ele>189.4</ele>
        <time>2022-05-24 12:59:15</time>
      </trkpt>
      <trkpt lat="41.05836" lon="0.6953">
        <ele>189.4</ele>
        <time>2022-05-24 12:59:16</time>
      </trkpt>
      <trkpt lat="41.05836" lon="0.69518">
        <ele>189.4</ele>
        <time>2022-05-24 12:59:17</time>
      </trkpt>
      <trkpt lat="41.05838" lon="0.69507">
        <ele>189.4</ele>
        <time>2022-05-24 12:59:18</time>
      </trkpt>
      <trkpt lat="41.05838" lon="0.69497">
        <ele>189.6</ele>
        <time>2022-05-24 12:59:19</time>
      </trkpt>
      <trkpt lat="41.05839" lon="0.69487">
        <ele>189.6</ele>
        <time>2022-05-24 12:59:20</time>
      </trkpt>
      <trkpt lat="41.0584" lon="0.69477">
        <ele>189.6</ele>
        <time>2022-05-24 12:59:21</time>
      </trkpt>
      <trkpt lat="41.05841" lon="0.69467">
        <ele>189.8</ele>
        <time>2022-05-24 12:59:22</time>
      </trkpt>
      <trkpt lat="41.05841" lon="0.69458">
        <ele>189.8</ele>
        <time>2022-05-24 12:59:23</time>
      </trkpt>
      <trkpt lat="41.05842" lon="0.69449">
        <ele>189.8</ele>
        <time>2022-05-24 12:59:24</time>
      </trkpt>
      <trkpt lat="41.05843" lon="0.69439">
        <ele>189.8</ele>
        <time>2022-05-24 12:59:25</time>
      </trkpt>
      <trkpt lat="41.05843" lon="0.69429">
        <ele>189.8</ele>
        <time>2022-05-24 12:59:26</time>
      </trkpt>
      <trkpt lat="41.05844" lon="0.6942">
        <ele>189.8</ele>
        <time>2022-05-24 12:59:27</time>
      </trkpt>
      <trkpt lat="41.05845" lon="0.6941">
        <ele>189.8</ele>
        <time>2022-05-24 12:59:28</time>
      </trkpt>
      <trkpt lat="41.05846" lon="0.694">
        <ele>189.8</ele>
        <time>2022-05-24 12:59:29</time>
      </trkpt>
      <trkpt lat="41.05846" lon="0.69391">
        <ele>189.8</ele>
        <time>2022-05-24 12:59:30</time>
      </trkpt>
      <trkpt lat="41.05847" lon="0.69381">
        <ele>189.8</ele>
        <time>2022-05-24 12:59:31</time>
      </trkpt>
      <trkpt lat="41.05847" lon="0.69372">
        <ele>189.8</ele>
        <time>2022-05-24 12:59:32</time>
      </trkpt>
      <trkpt lat="41.05848" lon="0.69362">
        <ele>189.8</ele>
        <time>2022-05-24 12:59:33</time>
      </trkpt>
      <trkpt lat="41.05849" lon="0.69353">
        <ele>190</ele>
        <time>2022-05-24 12:59:34</time>
      </trkpt>
      <trkpt lat="41.0585" lon="0.69344">
        <ele>190</ele>
        <time>2022-05-24 12:59:35</time>
      </trkpt>
      <trkpt lat="41.05851" lon="0.69335">
        <ele>190</ele>
        <time>2022-05-24 12:59:36</time>
      </trkpt>
      <trkpt lat="41.05851" lon="0.69327">
        <ele>190</ele>
        <time>2022-05-24 12:59:37</time>
      </trkpt>
      <trkpt lat="41.05852" lon="0.69318">
        <ele>189.8</ele>
        <time>2022-05-24 12:59:38</time>
      </trkpt>
      <trkpt lat="41.05853" lon="0.69308">
        <ele>189.8</ele>
        <time>2022-05-24 12:59:39</time>
      </trkpt>
      <trkpt lat="41.05854" lon="0.69299">
        <ele>189.6</ele>
        <time>2022-05-24 12:59:40</time>
      </trkpt>
      <trkpt lat="41.05855" lon="0.69291">
        <ele>189.6</ele>
        <time>2022-05-24 12:59:41</time>
      </trkpt>
      <trkpt lat="41.05856" lon="0.6928">
        <ele>189.4</ele>
        <time>2022-05-24 12:59:42</time>
      </trkpt>
      <trkpt lat="41.05856" lon="0.69271">
        <ele>189.2</ele>
        <time>2022-05-24 12:59:43</time>
      </trkpt>
      <trkpt lat="41.05857" lon="0.69261">
        <ele>189</ele>
        <time>2022-05-24 12:59:44</time>
      </trkpt>
      <trkpt lat="41.05858" lon="0.69251">
        <ele>188.6</ele>
        <time>2022-05-24 12:59:45</time>
      </trkpt>
      <trkpt lat="41.05859" lon="0.69242">
        <ele>188.4</ele>
        <time>2022-05-24 12:59:46</time>
      </trkpt>
      <trkpt lat="41.05861" lon="0.69231">
        <ele>188.2</ele>
        <time>2022-05-24 12:59:47</time>
      </trkpt>
      <trkpt lat="41.05861" lon="0.69221">
        <ele>188</ele>
        <time>2022-05-24 12:59:48</time>
      </trkpt>
      <trkpt lat="41.05862" lon="0.6921">
        <ele>187.8</ele>
        <time>2022-05-24 12:59:49</time>
      </trkpt>
      <trkpt lat="41.05863" lon="0.692">
        <ele>187.4</ele>
        <time>2022-05-24 12:59:50</time>
      </trkpt>
      <trkpt lat="41.05864" lon="0.69189">
        <ele>187</ele>
        <time>2022-05-24 12:59:51</time>
      </trkpt>
      <trkpt lat="41.05866" lon="0.69178">
        <ele>186.4</ele>
        <time>2022-05-24 12:59:52</time>
      </trkpt>
      <trkpt lat="41.05868" lon="0.69167">
        <ele>186</ele>
        <time>2022-05-24 12:59:53</time>
      </trkpt>
      <trkpt lat="41.05871" lon="0.69156">
        <ele>185.4</ele>
        <time>2022-05-24 12:59:54</time>
      </trkpt>
      <trkpt lat="41.05873" lon="0.69143">
        <ele>185</ele>
        <time>2022-05-24 12:59:55</time>
      </trkpt>
      <trkpt lat="41.05877" lon="0.69132">
        <ele>184.4</ele>
        <time>2022-05-24 12:59:56</time>
      </trkpt>
      <trkpt lat="41.05881" lon="0.69121">
        <ele>183.6</ele>
        <time>2022-05-24 12:59:57</time>
      </trkpt>
      <trkpt lat="41.05885" lon="0.6911">
        <ele>182.8</ele>
        <time>2022-05-24 12:59:58</time>
      </trkpt>
      <trkpt lat="41.0589" lon="0.69098">
        <ele>182.2</ele>
        <time>2022-05-24 12:59:59</time>
      </trkpt>
      <trkpt lat="41.05897" lon="0.69084">
        <ele>181.6</ele>
        <time>2022-05-24 13:00:00</time>
      </trkpt>
      <trkpt lat="41.05903" lon="0.69072">
        <ele>181.2</ele>
        <time>2022-05-24 13:00:01</time>
      </trkpt>
      <trkpt lat="41.05909" lon="0.6906">
        <ele>180.2</ele>
        <time>2022-05-24 13:00:02</time>
      </trkpt>
      <trkpt lat="41.05917" lon="0.69045">
        <ele>179.4</ele>
        <time>2022-05-24 13:00:03</time>
      </trkpt>
      <trkpt lat="41.05923" lon="0.69032">
        <ele>178.2</ele>
        <time>2022-05-24 13:00:04</time>
      </trkpt>
      <trkpt lat="41.0593" lon="0.6902">
        <ele>177.4</ele>
        <time>2022-05-24 13:00:05</time>
      </trkpt>
      <trkpt lat="41.05936" lon="0.69007">
        <ele>176.4</ele>
        <time>2022-05-24 13:00:06</time>
      </trkpt>
      <trkpt lat="41.05942" lon="0.68994">
        <ele>175.4</ele>
        <time>2022-05-24 13:00:07</time>
      </trkpt>
      <trkpt lat="41.05949" lon="0.6898">
        <ele>174.6</ele>
        <time>2022-05-24 13:00:08</time>
      </trkpt>
      <trkpt lat="41.05956" lon="0.68965">
        <ele>173.6</ele>
        <time>2022-05-24 13:00:09</time>
      </trkpt>
      <trkpt lat="41.05963" lon="0.68952">
        <ele>172.6</ele>
        <time>2022-05-24 13:00:10</time>
      </trkpt>
      <trkpt lat="41.0597" lon="0.68937">
        <ele>171.6</ele>
        <time>2022-05-24 13:00:11</time>
      </trkpt>
      <trkpt lat="41.05976" lon="0.68923">
        <ele>170.6</ele>
        <time>2022-05-24 13:00:12</time>
      </trkpt>
      <trkpt lat="41.05983" lon="0.68907">
        <ele>169.6</ele>
        <time>2022-05-24 13:00:13</time>
      </trkpt>
      <trkpt lat="41.0599" lon="0.68892">
        <ele>168.6</ele>
        <time>2022-05-24 13:00:14</time>
      </trkpt>
      <trkpt lat="41.05997" lon="0.68877">
        <ele>167.6</ele>
        <time>2022-05-24 13:00:15</time>
      </trkpt>
      <trkpt lat="41.06004" lon="0.68861">
        <ele>166.6</ele>
        <time>2022-05-24 13:00:16</time>
      </trkpt>
      <trkpt lat="41.06012" lon="0.68846">
        <ele>165.8</ele>
        <time>2022-05-24 13:00:17</time>
      </trkpt>
      <trkpt lat="41.06019" lon="0.6883">
        <ele>164.8</ele>
        <time>2022-05-24 13:00:18</time>
      </trkpt>
      <trkpt lat="41.06026" lon="0.68815">
        <ele>163.8</ele>
        <time>2022-05-24 13:00:19</time>
      </trkpt>
      <trkpt lat="41.06032" lon="0.68798">
        <ele>162.8</ele>
        <time>2022-05-24 13:00:20</time>
      </trkpt>
      <trkpt lat="41.06038" lon="0.68782">
        <ele>161.6</ele>
        <time>2022-05-24 13:00:21</time>
      </trkpt>
      <trkpt lat="41.06045" lon="0.68765">
        <ele>160.6</ele>
        <time>2022-05-24 13:00:22</time>
      </trkpt>
      <trkpt lat="41.06051" lon="0.68749">
        <ele>159.6</ele>
        <time>2022-05-24 13:00:23</time>
      </trkpt>
      <trkpt lat="41.06058" lon="0.68732">
        <ele>158.6</ele>
        <time>2022-05-24 13:00:24</time>
      </trkpt>
      <trkpt lat="41.06064" lon="0.68715">
        <ele>157.4</ele>
        <time>2022-05-24 13:00:25</time>
      </trkpt>
      <trkpt lat="41.0607" lon="0.68698">
        <ele>156.2</ele>
        <time>2022-05-24 13:00:26</time>
      </trkpt>
      <trkpt lat="41.06076" lon="0.68681">
        <ele>155</ele>
        <time>2022-05-24 13:00:27</time>
      </trkpt>
      <trkpt lat="41.06083" lon="0.68664">
        <ele>154</ele>
        <time>2022-05-24 13:00:28</time>
      </trkpt>
      <trkpt lat="41.06089" lon="0.68647">
        <ele>153</ele>
        <time>2022-05-24 13:00:29</time>
      </trkpt>
      <trkpt lat="41.06095" lon="0.6863">
        <ele>151.8</ele>
        <time>2022-05-24 13:00:30</time>
      </trkpt>
      <trkpt lat="41.06101" lon="0.68613">
        <ele>150.8</ele>
        <time>2022-05-24 13:00:31</time>
      </trkpt>
      <trkpt lat="41.06104" lon="0.68604">
        <ele>150.2</ele>
        <time>2022-05-24 13:00:32</time>
      </trkpt>
      <trkpt lat="41.06109" lon="0.68591">
        <ele>149.2</ele>
        <time>2022-05-24 13:00:33</time>
      </trkpt>
      <trkpt lat="41.06118" lon="0.68569">
        <ele>147.6</ele>
        <time>2022-05-24 13:00:34</time>
      </trkpt>
      <trkpt lat="41.06125" lon="0.68553">
        <ele>146.4</ele>
        <time>2022-05-24 13:00:35</time>
      </trkpt>
      <trkpt lat="41.06131" lon="0.68536">
        <ele>145.4</ele>
        <time>2022-05-24 13:00:36</time>
      </trkpt>
      <trkpt lat="41.06138" lon="0.68519">
        <ele>144.2</ele>
        <time>2022-05-24 13:00:37</time>
      </trkpt>
      <trkpt lat="41.06144" lon="0.68504">
        <ele>143</ele>
        <time>2022-05-24 13:00:38</time>
      </trkpt>
      <trkpt lat="41.06151" lon="0.68487">
        <ele>141.8</ele>
        <time>2022-05-24 13:00:39</time>
      </trkpt>
      <trkpt lat="41.06159" lon="0.68471">
        <ele>140.6</ele>
        <time>2022-05-24 13:00:40</time>
      </trkpt>
      <trkpt lat="41.06167" lon="0.68457">
        <ele>139.8</ele>
        <time>2022-05-24 13:00:41</time>
      </trkpt>
      <trkpt lat="41.06173" lon="0.68444">
        <ele>138.8</ele>
        <time>2022-05-24 13:00:42</time>
      </trkpt>
      <trkpt lat="41.06181" lon="0.68428">
        <ele>137.8</ele>
        <time>2022-05-24 13:00:43</time>
      </trkpt>
      <trkpt lat="41.06191" lon="0.68404">
        <ele>136.8</ele>
        <time>2022-05-24 13:00:44</time>
      </trkpt>
      <trkpt lat="41.06194" lon="0.68394">
        <ele>136</ele>
        <time>2022-05-24 13:00:45</time>
      </trkpt>
      <trkpt lat="41.06199" lon="0.68379">
        <ele>135</ele>
        <time>2022-05-24 13:00:46</time>
      </trkpt>
      <trkpt lat="41.06204" lon="0.6836">
        <ele>134.2</ele>
        <time>2022-05-24 13:00:47</time>
      </trkpt>
      <trkpt lat="41.06206" lon="0.68342">
        <ele>133.4</ele>
        <time>2022-05-24 13:00:48</time>
      </trkpt>
      <trkpt lat="41.06206" lon="0.68323">
        <ele>132.4</ele>
        <time>2022-05-24 13:00:49</time>
      </trkpt>
      <trkpt lat="41.06206" lon="0.68305">
        <ele>131.4</ele>
        <time>2022-05-24 13:00:50</time>
      </trkpt>
      <trkpt lat="41.06206" lon="0.68286">
        <ele>130.2</ele>
        <time>2022-05-24 13:00:51</time>
      </trkpt>
      <trkpt lat="41.06207" lon="0.68266">
        <ele>129</ele>
        <time>2022-05-24 13:00:52</time>
      </trkpt>
      <trkpt lat="41.0621" lon="0.68249">
        <ele>127.8</ele>
        <time>2022-05-24 13:00:53</time>
      </trkpt>
      <trkpt lat="41.06216" lon="0.68231">
        <ele>126.6</ele>
        <time>2022-05-24 13:00:54</time>
      </trkpt>
      <trkpt lat="41.06224" lon="0.68209">
        <ele>125.4</ele>
        <time>2022-05-24 13:00:55</time>
      </trkpt>
      <trkpt lat="41.06233" lon="0.68194">
        <ele>124.4</ele>
        <time>2022-05-24 13:00:56</time>
      </trkpt>
      <trkpt lat="41.06242" lon="0.68181">
        <ele>123.4</ele>
        <time>2022-05-24 13:00:57</time>
      </trkpt>
      <trkpt lat="41.06252" lon="0.68168">
        <ele>122.4</ele>
        <time>2022-05-24 13:00:58</time>
      </trkpt>
      <trkpt lat="41.06262" lon="0.68154">
        <ele>121.8</ele>
        <time>2022-05-24 13:00:59</time>
      </trkpt>
      <trkpt lat="41.06271" lon="0.6814">
        <ele>121</ele>
        <time>2022-05-24 13:01:00</time>
      </trkpt>
      <trkpt lat="41.06281" lon="0.68126">
        <ele>119.8</ele>
        <time>2022-05-24 13:01:01</time>
      </trkpt>
      <trkpt lat="41.0629" lon="0.68112">
        <ele>119</ele>
        <time>2022-05-24 13:01:02</time>
      </trkpt>
      <trkpt lat="41.06299" lon="0.681">
        <ele>118.4</ele>
        <time>2022-05-24 13:01:03</time>
      </trkpt>
      <trkpt lat="41.06309" lon="0.68084">
        <ele>117.6</ele>
        <time>2022-05-24 13:01:04</time>
      </trkpt>
      <trkpt lat="41.06317" lon="0.68072">
        <ele>116.4</ele>
        <time>2022-05-24 13:01:05</time>
      </trkpt>
      <trkpt lat="41.06326" lon="0.68058">
        <ele>115.8</ele>
        <time>2022-05-24 13:01:06</time>
      </trkpt>
      <trkpt lat="41.06335" lon="0.68044">
        <ele>115.2</ele>
        <time>2022-05-24 13:01:07</time>
      </trkpt>
      <trkpt lat="41.06343" lon="0.68031">
        <ele>114.6</ele>
        <time>2022-05-24 13:01:08</time>
      </trkpt>
      <trkpt lat="41.06351" lon="0.68019">
        <ele>114</ele>
        <time>2022-05-24 13:01:09</time>
      </trkpt>
      <trkpt lat="41.0636" lon="0.68006">
        <ele>113.6</ele>
        <time>2022-05-24 13:01:10</time>
      </trkpt>
      <trkpt lat="41.06368" lon="0.67994">
        <ele>113.4</ele>
        <time>2022-05-24 13:01:11</time>
      </trkpt>
      <trkpt lat="41.06375" lon="0.67981">
        <ele>113</ele>
        <time>2022-05-24 13:01:12</time>
      </trkpt>
      <trkpt lat="41.06382" lon="0.67969">
        <ele>112.8</ele>
        <time>2022-05-24 13:01:13</time>
      </trkpt>
      <trkpt lat="41.06388" lon="0.67955">
        <ele>112.4</ele>
        <time>2022-05-24 13:01:14</time>
      </trkpt>
      <trkpt lat="41.06395" lon="0.67941">
        <ele>112</ele>
        <time>2022-05-24 13:01:15</time>
      </trkpt>
      <trkpt lat="41.06398" lon="0.67927">
        <ele>111.8</ele>
        <time>2022-05-24 13:01:16</time>
      </trkpt>
      <trkpt lat="41.06401" lon="0.67913">
        <ele>111.4</ele>
        <time>2022-05-24 13:01:17</time>
      </trkpt>
      <trkpt lat="41.06402" lon="0.67899">
        <ele>111.2</ele>
        <time>2022-05-24 13:01:18</time>
      </trkpt>
      <trkpt lat="41.06403" lon="0.67883">
        <ele>110.8</ele>
        <time>2022-05-24 13:01:19</time>
      </trkpt>
      <trkpt lat="41.06403" lon="0.67868">
        <ele>110.4</ele>
        <time>2022-05-24 13:01:20</time>
      </trkpt>
      <trkpt lat="41.06403" lon="0.67853">
        <ele>110</ele>
        <time>2022-05-24 13:01:21</time>
      </trkpt>
      <trkpt lat="41.06401" lon="0.67836">
        <ele>109.4</ele>
        <time>2022-05-24 13:01:22</time>
      </trkpt>
      <trkpt lat="41.06401" lon="0.67822">
        <ele>109</ele>
        <time>2022-05-24 13:01:23</time>
      </trkpt>
      <trkpt lat="41.06398" lon="0.67806">
        <ele>108.6</ele>
        <time>2022-05-24 13:01:24</time>
      </trkpt>
      <trkpt lat="41.06398" lon="0.6779">
        <ele>108.2</ele>
        <time>2022-05-24 13:01:25</time>
      </trkpt>
      <trkpt lat="41.06395" lon="0.67775">
        <ele>107.6</ele>
        <time>2022-05-24 13:01:26</time>
      </trkpt>
      <trkpt lat="41.06395" lon="0.6776">
        <ele>107</ele>
        <time>2022-05-24 13:01:27</time>
      </trkpt>
      <trkpt lat="41.06394" lon="0.67744">
        <ele>106</ele>
        <time>2022-05-24 13:01:28</time>
      </trkpt>
      <trkpt lat="41.06395" lon="0.67728">
        <ele>105.4</ele>
        <time>2022-05-24 13:01:29</time>
      </trkpt>
      <trkpt lat="41.06398" lon="0.67714">
        <ele>104.6</ele>
        <time>2022-05-24 13:01:30</time>
      </trkpt>
      <trkpt lat="41.06403" lon="0.67698">
        <ele>103.8</ele>
        <time>2022-05-24 13:01:31</time>
      </trkpt>
      <trkpt lat="41.06408" lon="0.67685">
        <ele>103</ele>
        <time>2022-05-24 13:01:32</time>
      </trkpt>
      <trkpt lat="41.06416" lon="0.67669">
        <ele>102.4</ele>
        <time>2022-05-24 13:01:33</time>
      </trkpt>
      <trkpt lat="41.06424" lon="0.67657">
        <ele>101.6</ele>
        <time>2022-05-24 13:01:34</time>
      </trkpt>
      <trkpt lat="41.06433" lon="0.67646">
        <ele>101</ele>
        <time>2022-05-24 13:01:35</time>
      </trkpt>
      <trkpt lat="41.06442" lon="0.67635">
        <ele>100.4</ele>
        <time>2022-05-24 13:01:36</time>
      </trkpt>
      <trkpt lat="41.06451" lon="0.67624">
        <ele>99.8</ele>
        <time>2022-05-24 13:01:37</time>
      </trkpt>
      <trkpt lat="41.0646" lon="0.67612">
        <ele>99.2</ele>
        <time>2022-05-24 13:01:38</time>
      </trkpt>
      <trkpt lat="41.06469" lon="0.67601">
        <ele>98.6</ele>
        <time>2022-05-24 13:01:39</time>
      </trkpt>
      <trkpt lat="41.06477" lon="0.67589">
        <ele>98</ele>
        <time>2022-05-24 13:01:40</time>
      </trkpt>
      <trkpt lat="41.06484" lon="0.67575">
        <ele>97</ele>
        <time>2022-05-24 13:01:41</time>
      </trkpt>
      <trkpt lat="41.0649" lon="0.6756">
        <ele>96.2</ele>
        <time>2022-05-24 13:01:42</time>
      </trkpt>
      <trkpt lat="41.06496" lon="0.67544">
        <ele>95.6</ele>
        <time>2022-05-24 13:01:43</time>
      </trkpt>
      <trkpt lat="41.065" lon="0.67529">
        <ele>95</ele>
        <time>2022-05-24 13:01:44</time>
      </trkpt>
      <trkpt lat="41.06505" lon="0.67514">
        <ele>94.4</ele>
        <time>2022-05-24 13:01:45</time>
      </trkpt>
      <trkpt lat="41.0651" lon="0.67496">
        <ele>93.6</ele>
        <time>2022-05-24 13:01:46</time>
      </trkpt>
      <trkpt lat="41.06515" lon="0.67482">
        <ele>93</ele>
        <time>2022-05-24 13:01:47</time>
      </trkpt>
      <trkpt lat="41.06521" lon="0.67467">
        <ele>92.4</ele>
        <time>2022-05-24 13:01:48</time>
      </trkpt>
      <trkpt lat="41.06525" lon="0.67453">
        <ele>92</ele>
        <time>2022-05-24 13:01:49</time>
      </trkpt>
      <trkpt lat="41.0653" lon="0.6744">
        <ele>91.4</ele>
        <time>2022-05-24 13:01:50</time>
      </trkpt>
      <trkpt lat="41.06536" lon="0.67426">
        <ele>90.6</ele>
        <time>2022-05-24 13:01:51</time>
      </trkpt>
      <trkpt lat="41.06541" lon="0.67412">
        <ele>90</ele>
        <time>2022-05-24 13:01:52</time>
      </trkpt>
      <trkpt lat="41.06546" lon="0.67398">
        <ele>89.4</ele>
        <time>2022-05-24 13:01:53</time>
      </trkpt>
      <trkpt lat="41.06552" lon="0.67382">
        <ele>88.6</ele>
        <time>2022-05-24 13:01:54</time>
      </trkpt>
      <trkpt lat="41.06557" lon="0.67368">
        <ele>88</ele>
        <time>2022-05-24 13:01:55</time>
      </trkpt>
      <trkpt lat="41.06563" lon="0.67353">
        <ele>87.4</ele>
        <time>2022-05-24 13:01:56</time>
      </trkpt>
      <trkpt lat="41.06569" lon="0.67341">
        <ele>86.8</ele>
        <time>2022-05-24 13:01:57</time>
      </trkpt>
      <trkpt lat="41.06577" lon="0.6733">
        <ele>86.2</ele>
        <time>2022-05-24 13:01:58</time>
      </trkpt>
      <trkpt lat="41.06585" lon="0.67318">
        <ele>85.6</ele>
        <time>2022-05-24 13:01:59</time>
      </trkpt>
      <trkpt lat="41.06593" lon="0.67308">
        <ele>85.2</ele>
        <time>2022-05-24 13:02:00</time>
      </trkpt>
      <trkpt lat="41.06602" lon="0.67298">
        <ele>84.8</ele>
        <time>2022-05-24 13:02:01</time>
      </trkpt>
      <trkpt lat="41.06611" lon="0.67289">
        <ele>84.2</ele>
        <time>2022-05-24 13:02:02</time>
      </trkpt>
      <trkpt lat="41.06621" lon="0.67281">
        <ele>83.6</ele>
        <time>2022-05-24 13:02:03</time>
      </trkpt>
      <trkpt lat="41.06631" lon="0.67274">
        <ele>83</ele>
        <time>2022-05-24 13:02:04</time>
      </trkpt>
      <trkpt lat="41.06642" lon="0.67268">
        <ele>82.4</ele>
        <time>2022-05-24 13:02:05</time>
      </trkpt>
      <trkpt lat="41.06652" lon="0.67262">
        <ele>81.8</ele>
        <time>2022-05-24 13:02:06</time>
      </trkpt>
      <trkpt lat="41.06663" lon="0.67255">
        <ele>81.2</ele>
        <time>2022-05-24 13:02:07</time>
      </trkpt>
      <trkpt lat="41.06673" lon="0.6725">
        <ele>80.8</ele>
        <time>2022-05-24 13:02:08</time>
      </trkpt>
      <trkpt lat="41.06683" lon="0.67244">
        <ele>80.2</ele>
        <time>2022-05-24 13:02:09</time>
      </trkpt>
      <trkpt lat="41.06694" lon="0.67237">
        <ele>79.6</ele>
        <time>2022-05-24 13:02:10</time>
      </trkpt>
      <trkpt lat="41.06706" lon="0.67231">
        <ele>79.2</ele>
        <time>2022-05-24 13:02:11</time>
      </trkpt>
      <trkpt lat="41.06716" lon="0.67226">
        <ele>78.2</ele>
        <time>2022-05-24 13:02:12</time>
      </trkpt>
      <trkpt lat="41.06727" lon="0.67219">
        <ele>77.6</ele>
        <time>2022-05-24 13:02:13</time>
      </trkpt>
      <trkpt lat="41.06735" lon="0.67213">
        <ele>76.8</ele>
        <time>2022-05-24 13:02:14</time>
      </trkpt>
      <trkpt lat="41.06748" lon="0.67204">
        <ele>75.8</ele>
        <time>2022-05-24 13:02:15</time>
      </trkpt>
      <trkpt lat="41.06758" lon="0.67196">
        <ele>75</ele>
        <time>2022-05-24 13:02:16</time>
      </trkpt>
      <trkpt lat="41.06768" lon="0.67187">
        <ele>74.4</ele>
        <time>2022-05-24 13:02:17</time>
      </trkpt>
      <trkpt lat="41.06777" lon="0.67175">
        <ele>73.6</ele>
        <time>2022-05-24 13:02:18</time>
      </trkpt>
      <trkpt lat="41.06786" lon="0.67164">
        <ele>72.8</ele>
        <time>2022-05-24 13:02:19</time>
      </trkpt>
      <trkpt lat="41.06794" lon="0.67151">
        <ele>72</ele>
        <time>2022-05-24 13:02:20</time>
      </trkpt>
      <trkpt lat="41.06802" lon="0.67135">
        <ele>71.2</ele>
        <time>2022-05-24 13:02:21</time>
      </trkpt>
      <trkpt lat="41.06807" lon="0.67121">
        <ele>70.6</ele>
        <time>2022-05-24 13:02:22</time>
      </trkpt>
      <trkpt lat="41.06814" lon="0.67104">
        <ele>69.4</ele>
        <time>2022-05-24 13:02:23</time>
      </trkpt>
      <trkpt lat="41.06818" lon="0.67088">
        <ele>68.6</ele>
        <time>2022-05-24 13:02:24</time>
      </trkpt>
      <trkpt lat="41.06822" lon="0.67072">
        <ele>67.4</ele>
        <time>2022-05-24 13:02:25</time>
      </trkpt>
      <trkpt lat="41.06826" lon="0.67052">
        <ele>66.2</ele>
        <time>2022-05-24 13:02:26</time>
      </trkpt>
      <trkpt lat="41.06828" lon="0.67036">
        <ele>65</ele>
        <time>2022-05-24 13:02:27</time>
      </trkpt>
      <trkpt lat="41.0683" lon="0.6702">
        <ele>63.8</ele>
        <time>2022-05-24 13:02:28</time>
      </trkpt>
      <trkpt lat="41.06832" lon="0.67">
        <ele>62.8</ele>
        <time>2022-05-24 13:02:29</time>
      </trkpt>
      <trkpt lat="41.06835" lon="0.66981">
        <ele>61.6</ele>
        <time>2022-05-24 13:02:30</time>
      </trkpt>
      <trkpt lat="41.06838" lon="0.66964">
        <ele>60.4</ele>
        <time>2022-05-24 13:02:31</time>
      </trkpt>
      <trkpt lat="41.0684" lon="0.66944">
        <ele>59.2</ele>
        <time>2022-05-24 13:02:32</time>
      </trkpt>
      <trkpt lat="41.06842" lon="0.66924">
        <ele>58.2</ele>
        <time>2022-05-24 13:02:33</time>
      </trkpt>
      <trkpt lat="41.06844" lon="0.66905">
        <ele>57.2</ele>
        <time>2022-05-24 13:02:34</time>
      </trkpt>
      <trkpt lat="41.06845" lon="0.66885">
        <ele>55.6</ele>
        <time>2022-05-24 13:02:35</time>
      </trkpt>
      <trkpt lat="41.06848" lon="0.66867">
        <ele>54.4</ele>
        <time>2022-05-24 13:02:36</time>
      </trkpt>
      <trkpt lat="41.06849" lon="0.66851">
        <ele>53.2</ele>
        <time>2022-05-24 13:02:37</time>
      </trkpt>
      <trkpt lat="41.06851" lon="0.66834">
        <ele>52</ele>
        <time>2022-05-24 13:02:38</time>
      </trkpt>
      <trkpt lat="41.06855" lon="0.66813">
        <ele>51</ele>
        <time>2022-05-24 13:02:39</time>
      </trkpt>
      <trkpt lat="41.06859" lon="0.66797">
        <ele>49.8</ele>
        <time>2022-05-24 13:02:40</time>
      </trkpt>
      <trkpt lat="41.06865" lon="0.66777">
        <ele>48.8</ele>
        <time>2022-05-24 13:02:41</time>
      </trkpt>
      <trkpt lat="41.06871" lon="0.66762">
        <ele>48</ele>
        <time>2022-05-24 13:02:42</time>
      </trkpt>
      <trkpt lat="41.06877" lon="0.66745">
        <ele>47.2</ele>
        <time>2022-05-24 13:02:43</time>
      </trkpt>
      <trkpt lat="41.06883" lon="0.66732">
        <ele>46.4</ele>
        <time>2022-05-24 13:02:44</time>
      </trkpt>
      <trkpt lat="41.06893" lon="0.66721">
        <ele>45.8</ele>
        <time>2022-05-24 13:02:45</time>
      </trkpt>
      <trkpt lat="41.06904" lon="0.6671">
        <ele>45.4</ele>
        <time>2022-05-24 13:02:46</time>
      </trkpt>
      <trkpt lat="41.06917" lon="0.66698">
        <ele>44.8</ele>
        <time>2022-05-24 13:02:47</time>
      </trkpt>
      <trkpt lat="41.06927" lon="0.6669">
        <ele>44.6</ele>
        <time>2022-05-24 13:02:48</time>
      </trkpt>
      <trkpt lat="41.06938" lon="0.66681">
        <ele>44.4</ele>
        <time>2022-05-24 13:02:49</time>
      </trkpt>
      <trkpt lat="41.06947" lon="0.66674">
        <ele>44.4</ele>
        <time>2022-05-24 13:02:50</time>
      </trkpt>
      <trkpt lat="41.06958" lon="0.66666">
        <ele>44.4</ele>
        <time>2022-05-24 13:02:51</time>
      </trkpt>
      <trkpt lat="41.06967" lon="0.66659">
        <ele>44.6</ele>
        <time>2022-05-24 13:02:52</time>
      </trkpt>
      <trkpt lat="41.06977" lon="0.66653">
        <ele>44.6</ele>
        <time>2022-05-24 13:02:53</time>
      </trkpt>
      <trkpt lat="41.06985" lon="0.66647">
        <ele>44.8</ele>
        <time>2022-05-24 13:02:54</time>
      </trkpt>
      <trkpt lat="41.06993" lon="0.66642">
        <ele>45</ele>
        <time>2022-05-24 13:02:55</time>
      </trkpt>
      <trkpt lat="41.07" lon="0.66636">
        <ele>45.6</ele>
        <time>2022-05-24 13:02:56</time>
      </trkpt>
      <trkpt lat="41.07006" lon="0.66631">
        <ele>45.8</ele>
        <time>2022-05-24 13:02:57</time>
      </trkpt>
      <trkpt lat="41.07013" lon="0.66624">
        <ele>46.4</ele>
        <time>2022-05-24 13:02:58</time>
      </trkpt>
      <trkpt lat="41.07018" lon="0.66618">
        <ele>46.8</ele>
        <time>2022-05-24 13:02:59</time>
      </trkpt>
      <trkpt lat="41.07024" lon="0.6661">
        <ele>47.2</ele>
        <time>2022-05-24 13:03:00</time>
      </trkpt>
      <trkpt lat="41.07028" lon="0.66604">
        <ele>47.6</ele>
        <time>2022-05-24 13:03:01</time>
      </trkpt>
      <trkpt lat="41.07031" lon="0.66597">
        <ele>48</ele>
        <time>2022-05-24 13:03:02</time>
      </trkpt>
      <trkpt lat="41.07034" lon="0.66589">
        <ele>48.4</ele>
        <time>2022-05-24 13:03:03</time>
      </trkpt>
      <trkpt lat="41.07036" lon="0.66582">
        <ele>48.8</ele>
        <time>2022-05-24 13:03:04</time>
      </trkpt>
      <trkpt lat="41.07038" lon="0.66575">
        <ele>49.2</ele>
        <time>2022-05-24 13:03:05</time>
      </trkpt>
      <trkpt lat="41.0704" lon="0.66568">
        <ele>49.6</ele>
        <time>2022-05-24 13:03:06</time>
      </trkpt>
      <trkpt lat="41.07042" lon="0.66562">
        <ele>50</ele>
        <time>2022-05-24 13:03:07</time>
      </trkpt>
      <trkpt lat="41.07044" lon="0.66557">
        <ele>50.4</ele>
        <time>2022-05-24 13:03:08</time>
      </trkpt>
      <trkpt lat="41.07045" lon="0.66552">
        <ele>51</ele>
        <time>2022-05-24 13:03:09</time>
      </trkpt>
      <trkpt lat="41.07047" lon="0.66547">
        <ele>51.4</ele>
        <time>2022-05-24 13:03:10</time>
      </trkpt>
      <trkpt lat="41.0705" lon="0.66544">
        <ele>51.8</ele>
        <time>2022-05-24 13:03:11</time>
      </trkpt>
      <trkpt lat="41.07053" lon="0.66542">
        <ele>52</ele>
        <time>2022-05-24 13:03:12</time>
      </trkpt>
      <trkpt lat="41.07057" lon="0.6654">
        <ele>52.4</ele>
        <time>2022-05-24 13:03:13</time>
      </trkpt>
      <trkpt lat="41.0706" lon="0.66538">
        <ele>52.6</ele>
        <time>2022-05-24 13:03:14</time>
      </trkpt>
      <trkpt lat="41.07064" lon="0.66536">
        <ele>52.8</ele>
        <time>2022-05-24 13:03:15</time>
      </trkpt>
      <trkpt lat="41.07067" lon="0.66534">
        <ele>53.2</ele>
        <time>2022-05-24 13:03:16</time>
      </trkpt>
      <trkpt lat="41.07071" lon="0.66531">
        <ele>53.2</ele>
        <time>2022-05-24 13:03:17</time>
      </trkpt>
      <trkpt lat="41.07074" lon="0.66529">
        <ele>53.4</ele>
        <time>2022-05-24 13:03:18</time>
      </trkpt>
      <trkpt lat="41.07077" lon="0.66524">
        <ele>53.6</ele>
        <time>2022-05-24 13:03:19</time>
      </trkpt>
      <trkpt lat="41.07079" lon="0.6652">
        <ele>53.8</ele>
        <time>2022-05-24 13:03:20</time>
      </trkpt>
      <trkpt lat="41.07081" lon="0.66515">
        <ele>54</ele>
        <time>2022-05-24 13:03:21</time>
      </trkpt>
      <trkpt lat="41.07082" lon="0.6651">
        <ele>54.2</ele>
        <time>2022-05-24 13:03:22</time>
      </trkpt>
      <trkpt lat="41.07083" lon="0.66506">
        <ele>54.4</ele>
        <time>2022-05-24 13:03:23</time>
      </trkpt>
      <trkpt lat="41.07083" lon="0.66501">
        <ele>54.6</ele>
        <time>2022-05-24 13:03:24</time>
      </trkpt>
      <trkpt lat="41.07082" lon="0.66496">
        <ele>54.6</ele>
        <time>2022-05-24 13:03:25</time>
      </trkpt>
      <trkpt lat="41.07081" lon="0.66491">
        <ele>54.8</ele>
        <time>2022-05-24 13:03:26</time>
      </trkpt>
      <trkpt lat="41.07079" lon="0.66487">
        <ele>55</ele>
        <time>2022-05-24 13:03:27</time>
      </trkpt>
      <trkpt lat="41.07077" lon="0.66483">
        <ele>55</ele>
        <time>2022-05-24 13:03:28</time>
      </trkpt>
      <trkpt lat="41.07074" lon="0.66479">
        <ele>55</ele>
        <time>2022-05-24 13:03:29</time>
      </trkpt>
      <trkpt lat="41.07071" lon="0.66475">
        <ele>55.2</ele>
        <time>2022-05-24 13:03:30</time>
      </trkpt>
      <trkpt lat="41.07068" lon="0.66472">
        <ele>55</ele>
        <time>2022-05-24 13:03:31</time>
      </trkpt>
      <trkpt lat="41.07065" lon="0.66469">
        <ele>55</ele>
        <time>2022-05-24 13:03:32</time>
      </trkpt>
      <trkpt lat="41.07061" lon="0.66467">
        <ele>55</ele>
        <time>2022-05-24 13:03:33</time>
      </trkpt>
      <trkpt lat="41.07057" lon="0.66466">
        <ele>54.8</ele>
        <time>2022-05-24 13:03:34</time>
      </trkpt>
      <trkpt lat="41.07053" lon="0.66466">
        <ele>54.6</ele>
        <time>2022-05-24 13:03:35</time>
      </trkpt>
      <trkpt lat="41.07051" lon="0.66467">
        <ele>54.4</ele>
        <time>2022-05-24 13:03:36</time>
      </trkpt>
      <trkpt lat="41.07045" lon="0.6647">
        <ele>54.2</ele>
        <time>2022-05-24 13:03:37</time>
      </trkpt>
      <trkpt lat="41.07042" lon="0.66474">
        <ele>54</ele>
        <time>2022-05-24 13:03:38</time>
      </trkpt>
      <trkpt lat="41.07039" lon="0.66477">
        <ele>53.6</ele>
        <time>2022-05-24 13:03:39</time>
      </trkpt>
      <trkpt lat="41.07035" lon="0.66483">
        <ele>53.4</ele>
        <time>2022-05-24 13:03:40</time>
      </trkpt>
      <trkpt lat="41.07034" lon="0.66487">
        <ele>53.2</ele>
        <time>2022-05-24 13:03:41</time>
      </trkpt>
      <trkpt lat="41.07032" lon="0.66495">
        <ele>53</ele>
        <time>2022-05-24 13:03:42</time>
      </trkpt>
      <trkpt lat="41.07032" lon="0.66499">
        <ele>52.8</ele>
        <time>2022-05-24 13:03:43</time>
      </trkpt>
      <trkpt lat="41.07033" lon="0.66508">
        <ele>52.6</ele>
        <time>2022-05-24 13:03:44</time>
      </trkpt>
      <trkpt lat="41.07034" lon="0.66514">
        <ele>52.4</ele>
        <time>2022-05-24 13:03:45</time>
      </trkpt>
      <trkpt lat="41.07037" lon="0.66521">
        <ele>52.4</ele>
        <time>2022-05-24 13:03:46</time>
      </trkpt>
      <trkpt lat="41.07039" lon="0.66525">
        <ele>52.2</ele>
        <time>2022-05-24 13:03:47</time>
      </trkpt>
      <trkpt lat="41.07044" lon="0.6653">
        <ele>52.4</ele>
        <time>2022-05-24 13:03:48</time>
      </trkpt>
      <trkpt lat="41.07047" lon="0.66532">
        <ele>52.4</ele>
        <time>2022-05-24 13:03:49</time>
      </trkpt>
      <trkpt lat="41.07053" lon="0.66533">
        <ele>52.6</ele>
        <time>2022-05-24 13:03:50</time>
      </trkpt>
      <trkpt lat="41.07056" lon="0.66532">
        <ele>52.8</ele>
        <time>2022-05-24 13:03:51</time>
      </trkpt>
      <trkpt lat="41.07062" lon="0.6653">
        <ele>53</ele>
        <time>2022-05-24 13:03:52</time>
      </trkpt>
      <trkpt lat="41.07065" lon="0.66528">
        <ele>53.2</ele>
        <time>2022-05-24 13:03:53</time>
      </trkpt>
      <trkpt lat="41.07069" lon="0.66524">
        <ele>53.6</ele>
        <time>2022-05-24 13:03:54</time>
      </trkpt>
      <trkpt lat="41.07072" lon="0.6652">
        <ele>53.8</ele>
        <time>2022-05-24 13:03:55</time>
      </trkpt>
      <trkpt lat="41.07074" lon="0.66516">
        <ele>54</ele>
        <time>2022-05-24 13:03:56</time>
      </trkpt>
      <trkpt lat="41.07077" lon="0.66509">
        <ele>54.2</ele>
        <time>2022-05-24 13:03:57</time>
      </trkpt>
      <trkpt lat="41.07079" lon="0.66505">
        <ele>54.4</ele>
        <time>2022-05-24 13:03:58</time>
      </trkpt>
      <trkpt lat="41.07081" lon="0.66498">
        <ele>54.6</ele>
        <time>2022-05-24 13:03:59</time>
      </trkpt>
      <trkpt lat="41.07082" lon="0.66493">
        <ele>54.6</ele>
        <time>2022-05-24 13:04:00</time>
      </trkpt>
      <trkpt lat="41.07084" lon="0.66487">
        <ele>54.8</ele>
        <time>2022-05-24 13:04:01</time>
      </trkpt>
      <trkpt lat="41.07086" lon="0.66481">
        <ele>55</ele>
        <time>2022-05-24 13:04:02</time>
      </trkpt>
      <trkpt lat="41.07088" lon="0.66477">
        <ele>55</ele>
        <time>2022-05-24 13:04:03</time>
      </trkpt>
      <trkpt lat="41.07091" lon="0.66472">
        <ele>55</ele>
        <time>2022-05-24 13:04:04</time>
      </trkpt>
      <trkpt lat="41.07094" lon="0.66467">
        <ele>55.2</ele>
        <time>2022-05-24 13:04:05</time>
      </trkpt>
      <trkpt lat="41.07096" lon="0.66465">
        <ele>55.2</ele>
        <time>2022-05-24 13:04:06</time>
      </trkpt>
      <trkpt lat="41.07101" lon="0.6646">
        <ele>55.4</ele>
        <time>2022-05-24 13:04:07</time>
      </trkpt>
      <trkpt lat="41.07104" lon="0.66456">
        <ele>55.6</ele>
        <time>2022-05-24 13:04:08</time>
      </trkpt>
      <trkpt lat="41.07108" lon="0.66452">
        <ele>55.6</ele>
        <time>2022-05-24 13:04:09</time>
      </trkpt>
      <trkpt lat="41.07111" lon="0.6645">
        <ele>55.8</ele>
        <time>2022-05-24 13:04:10</time>
      </trkpt>
      <trkpt lat="41.07116" lon="0.66446">
        <ele>56.2</ele>
        <time>2022-05-24 13:04:11</time>
      </trkpt>
      <trkpt lat="41.07119" lon="0.66443">
        <ele>56.4</ele>
        <time>2022-05-24 13:04:12</time>
      </trkpt>
      <trkpt lat="41.07122" lon="0.66441">
        <ele>56.6</ele>
        <time>2022-05-24 13:04:13</time>
      </trkpt>
      <trkpt lat="41.07126" lon="0.66437">
        <ele>56.8</ele>
        <time>2022-05-24 13:04:14</time>
      </trkpt>
      <trkpt lat="41.07129" lon="0.66434">
        <ele>57</ele>
        <time>2022-05-24 13:04:15</time>
      </trkpt>
      <trkpt lat="41.07132" lon="0.6643">
        <ele>57.4</ele>
        <time>2022-05-24 13:04:16</time>
      </trkpt>
      <trkpt lat="41.07134" lon="0.66426">
        <ele>57.6</ele>
        <time>2022-05-24 13:04:17</time>
      </trkpt>
      <trkpt lat="41.07136" lon="0.66421">
        <ele>57.8</ele>
        <time>2022-05-24 13:04:18</time>
      </trkpt>
      <trkpt lat="41.07137" lon="0.66416">
        <ele>58.2</ele>
        <time>2022-05-24 13:04:19</time>
      </trkpt>
      <trkpt lat="41.07137" lon="0.66411">
        <ele>58.4</ele>
        <time>2022-05-24 13:04:20</time>
      </trkpt>
      <trkpt lat="41.07137" lon="0.66405">
        <ele>58.6</ele>
        <time>2022-05-24 13:04:21</time>
      </trkpt>
      <trkpt lat="41.07136" lon="0.664">
        <ele>58.8</ele>
        <time>2022-05-24 13:04:22</time>
      </trkpt>
      <trkpt lat="41.07135" lon="0.66395">
        <ele>59</ele>
        <time>2022-05-24 13:04:23</time>
      </trkpt>
      <trkpt lat="41.07133" lon="0.66391">
        <ele>59.4</ele>
        <time>2022-05-24 13:04:24</time>
      </trkpt>
      <trkpt lat="41.07131" lon="0.66388">
        <ele>59.4</ele>
        <time>2022-05-24 13:04:25</time>
      </trkpt>
      <trkpt lat="41.07127" lon="0.66384">
        <ele>59.6</ele>
        <time>2022-05-24 13:04:26</time>
      </trkpt>
      <trkpt lat="41.07123" lon="0.66381">
        <ele>59.6</ele>
        <time>2022-05-24 13:04:27</time>
      </trkpt>
      <trkpt lat="41.0712" lon="0.66379">
        <ele>59.4</ele>
        <time>2022-05-24 13:04:28</time>
      </trkpt>
      <trkpt lat="41.07115" lon="0.66377">
        <ele>59.2</ele>
        <time>2022-05-24 13:04:29</time>
      </trkpt>
      <trkpt lat="41.0711" lon="0.66375">
        <ele>59</ele>
        <time>2022-05-24 13:04:30</time>
      </trkpt>
      <trkpt lat="41.07103" lon="0.66373">
        <ele>58.8</ele>
        <time>2022-05-24 13:04:31</time>
      </trkpt>
      <trkpt lat="41.07098" lon="0.66372">
        <ele>58.4</ele>
        <time>2022-05-24 13:04:32</time>
      </trkpt>
      <trkpt lat="41.07091" lon="0.66371">
        <ele>58.2</ele>
        <time>2022-05-24 13:04:33</time>
      </trkpt>
      <trkpt lat="41.07085" lon="0.66371">
        <ele>58</ele>
        <time>2022-05-24 13:04:34</time>
      </trkpt>
      <trkpt lat="41.07077" lon="0.6637">
        <ele>57.6</ele>
        <time>2022-05-24 13:04:35</time>
      </trkpt>
      <trkpt lat="41.07071" lon="0.66369">
        <ele>57.2</ele>
        <time>2022-05-24 13:04:36</time>
      </trkpt>
      <trkpt lat="41.07064" lon="0.66368">
        <ele>56.8</ele>
        <time>2022-05-24 13:04:37</time>
      </trkpt>
      <trkpt lat="41.07057" lon="0.66367">
        <ele>56.4</ele>
        <time>2022-05-24 13:04:38</time>
      </trkpt>
      <trkpt lat="41.07048" lon="0.66366">
        <ele>56</ele>
        <time>2022-05-24 13:04:39</time>
      </trkpt>
      <trkpt lat="41.07041" lon="0.66365">
        <ele>55.8</ele>
        <time>2022-05-24 13:04:40</time>
      </trkpt>
      <trkpt lat="41.07034" lon="0.66364">
        <ele>55.4</ele>
        <time>2022-05-24 13:04:41</time>
      </trkpt>
      <trkpt lat="41.07026" lon="0.66362">
        <ele>55</ele>
        <time>2022-05-24 13:04:42</time>
      </trkpt>
      <trkpt lat="41.07017" lon="0.66361">
        <ele>54.6</ele>
        <time>2022-05-24 13:04:43</time>
      </trkpt>
      <trkpt lat="41.0701" lon="0.66359">
        <ele>54.2</ele>
        <time>2022-05-24 13:04:44</time>
      </trkpt>
      <trkpt lat="41.07001" lon="0.66357">
        <ele>53.6</ele>
        <time>2022-05-24 13:04:45</time>
      </trkpt>
      <trkpt lat="41.06993" lon="0.66355">
        <ele>53</ele>
        <time>2022-05-24 13:04:46</time>
      </trkpt>
      <trkpt lat="41.06984" lon="0.66353">
        <ele>52.6</ele>
        <time>2022-05-24 13:04:47</time>
      </trkpt>
      <trkpt lat="41.06976" lon="0.66351">
        <ele>52.2</ele>
        <time>2022-05-24 13:04:48</time>
      </trkpt>
      <trkpt lat="41.06966" lon="0.66348">
        <ele>51.8</ele>
        <time>2022-05-24 13:04:49</time>
      </trkpt>
      <trkpt lat="41.06959" lon="0.66346">
        <ele>51.2</ele>
        <time>2022-05-24 13:04:50</time>
      </trkpt>
      <trkpt lat="41.06949" lon="0.66342">
        <ele>50.8</ele>
        <time>2022-05-24 13:04:51</time>
      </trkpt>
      <trkpt lat="41.0694" lon="0.6634">
        <ele>50.4</ele>
        <time>2022-05-24 13:04:52</time>
      </trkpt>
      <trkpt lat="41.06931" lon="0.66337">
        <ele>50</ele>
        <time>2022-05-24 13:04:53</time>
      </trkpt>
      <trkpt lat="41.06921" lon="0.66334">
        <ele>49.6</ele>
        <time>2022-05-24 13:04:54</time>
      </trkpt>
      <trkpt lat="41.06913" lon="0.66331">
        <ele>49.2</ele>
        <time>2022-05-24 13:04:55</time>
      </trkpt>
      <trkpt lat="41.06904" lon="0.66327">
        <ele>48.8</ele>
        <time>2022-05-24 13:04:56</time>
      </trkpt>
      <trkpt lat="41.06895" lon="0.66324">
        <ele>48.4</ele>
        <time>2022-05-24 13:04:57</time>
      </trkpt>
      <trkpt lat="41.06885" lon="0.66321">
        <ele>47.8</ele>
        <time>2022-05-24 13:04:58</time>
      </trkpt>
      <trkpt lat="41.06876" lon="0.66318">
        <ele>47.4</ele>
        <time>2022-05-24 13:04:59</time>
      </trkpt>
      <trkpt lat="41.06868" lon="0.66315">
        <ele>47</ele>
        <time>2022-05-24 13:05:00</time>
      </trkpt>
      <trkpt lat="41.06858" lon="0.66313">
        <ele>46.6</ele>
        <time>2022-05-24 13:05:01</time>
      </trkpt>
      <trkpt lat="41.0685" lon="0.6631">
        <ele>46.4</ele>
        <time>2022-05-24 13:05:02</time>
      </trkpt>
      <trkpt lat="41.0684" lon="0.66308">
        <ele>45.8</ele>
        <time>2022-05-24 13:05:03</time>
      </trkpt>
      <trkpt lat="41.0683" lon="0.66305">
        <ele>45.6</ele>
        <time>2022-05-24 13:05:04</time>
      </trkpt>
      <trkpt lat="41.0682" lon="0.66304">
        <ele>45.2</ele>
        <time>2022-05-24 13:05:05</time>
      </trkpt>
      <trkpt lat="41.06811" lon="0.66303">
        <ele>45</ele>
        <time>2022-05-24 13:05:06</time>
      </trkpt>
      <trkpt lat="41.06801" lon="0.66303">
        <ele>44.8</ele>
        <time>2022-05-24 13:05:07</time>
      </trkpt>
      <trkpt lat="41.06792" lon="0.66304">
        <ele>44.2</ele>
        <time>2022-05-24 13:05:08</time>
      </trkpt>
      <trkpt lat="41.06783" lon="0.66305">
        <ele>43.8</ele>
        <time>2022-05-24 13:05:09</time>
      </trkpt>
      <trkpt lat="41.06773" lon="0.66305">
        <ele>43.6</ele>
        <time>2022-05-24 13:05:10</time>
      </trkpt>
      <trkpt lat="41.06765" lon="0.66305">
        <ele>43.2</ele>
        <time>2022-05-24 13:05:11</time>
      </trkpt>
      <trkpt lat="41.06754" lon="0.66307">
        <ele>43</ele>
        <time>2022-05-24 13:05:12</time>
      </trkpt>
      <trkpt lat="41.06745" lon="0.66308">
        <ele>43</ele>
        <time>2022-05-24 13:05:13</time>
      </trkpt>
      <trkpt lat="41.06735" lon="0.6631">
        <ele>42.8</ele>
        <time>2022-05-24 13:05:14</time>
      </trkpt>
      <trkpt lat="41.06727" lon="0.66312">
        <ele>42.8</ele>
        <time>2022-05-24 13:05:15</time>
      </trkpt>
      <trkpt lat="41.06718" lon="0.66316">
        <ele>42.8</ele>
        <time>2022-05-24 13:05:16</time>
      </trkpt>
      <trkpt lat="41.0671" lon="0.66319">
        <ele>42.8</ele>
        <time>2022-05-24 13:05:17</time>
      </trkpt>
      <trkpt lat="41.06701" lon="0.66322">
        <ele>42.8</ele>
        <time>2022-05-24 13:05:18</time>
      </trkpt>
      <trkpt lat="41.06694" lon="0.66325">
        <ele>42.8</ele>
        <time>2022-05-24 13:05:19</time>
      </trkpt>
      <trkpt lat="41.06686" lon="0.66328">
        <ele>42.6</ele>
        <time>2022-05-24 13:05:20</time>
      </trkpt>
      <trkpt lat="41.06679" lon="0.6633">
        <ele>42.6</ele>
        <time>2022-05-24 13:05:21</time>
      </trkpt>
      <trkpt lat="41.06671" lon="0.66333">
        <ele>42.6</ele>
        <time>2022-05-24 13:05:22</time>
      </trkpt>
      <trkpt lat="41.06664" lon="0.66336">
        <ele>42.8</ele>
        <time>2022-05-24 13:05:23</time>
      </trkpt>
      <trkpt lat="41.06657" lon="0.66339">
        <ele>42.8</ele>
        <time>2022-05-24 13:05:24</time>
      </trkpt>
      <trkpt lat="41.0665" lon="0.66341">
        <ele>42.8</ele>
        <time>2022-05-24 13:05:25</time>
      </trkpt>
      <trkpt lat="41.06643" lon="0.66344">
        <ele>42.8</ele>
        <time>2022-05-24 13:05:26</time>
      </trkpt>
      <trkpt lat="41.06636" lon="0.66347">
        <ele>42.8</ele>
        <time>2022-05-24 13:05:27</time>
      </trkpt>
      <trkpt lat="41.06628" lon="0.66349">
        <ele>42.8</ele>
        <time>2022-05-24 13:05:28</time>
      </trkpt>
      <trkpt lat="41.06622" lon="0.66352">
        <ele>43</ele>
        <time>2022-05-24 13:05:29</time>
      </trkpt>
      <trkpt lat="41.06615" lon="0.66355">
        <ele>43</ele>
        <time>2022-05-24 13:05:30</time>
      </trkpt>
      <trkpt lat="41.06609" lon="0.66357">
        <ele>43</ele>
        <time>2022-05-24 13:05:31</time>
      </trkpt>
      <trkpt lat="41.06601" lon="0.6636">
        <ele>43</ele>
        <time>2022-05-24 13:05:32</time>
      </trkpt>
      <trkpt lat="41.06595" lon="0.66362">
        <ele>42.8</ele>
        <time>2022-05-24 13:05:33</time>
      </trkpt>
      <trkpt lat="41.06588" lon="0.66365">
        <ele>42.8</ele>
        <time>2022-05-24 13:05:34</time>
      </trkpt>
      <trkpt lat="41.06581" lon="0.66367">
        <ele>42.6</ele>
        <time>2022-05-24 13:05:35</time>
      </trkpt>
      <trkpt lat="41.06574" lon="0.66369">
        <ele>42.4</ele>
        <time>2022-05-24 13:05:36</time>
      </trkpt>
      <trkpt lat="41.06569" lon="0.66371">
        <ele>42.4</ele>
        <time>2022-05-24 13:05:37</time>
      </trkpt>
      <trkpt lat="41.06561" lon="0.66373">
        <ele>42.4</ele>
        <time>2022-05-24 13:05:38</time>
      </trkpt>
      <trkpt lat="41.06556" lon="0.66375">
        <ele>42.4</ele>
        <time>2022-05-24 13:05:39</time>
      </trkpt>
      <trkpt lat="41.06549" lon="0.66377">
        <ele>42.2</ele>
        <time>2022-05-24 13:05:40</time>
      </trkpt>
      <trkpt lat="41.06544" lon="0.66378">
        <ele>42.4</ele>
        <time>2022-05-24 13:05:41</time>
      </trkpt>
      <trkpt lat="41.06537" lon="0.66379">
        <ele>42.2</ele>
        <time>2022-05-24 13:05:42</time>
      </trkpt>
      <trkpt lat="41.06531" lon="0.66381">
        <ele>42.2</ele>
        <time>2022-05-24 13:05:43</time>
      </trkpt>
      <trkpt lat="41.06524" lon="0.66382">
        <ele>42.2</ele>
        <time>2022-05-24 13:05:44</time>
      </trkpt>
      <trkpt lat="41.06519" lon="0.66382">
        <ele>42.4</ele>
        <time>2022-05-24 13:05:45</time>
      </trkpt>
      <trkpt lat="41.06512" lon="0.66383">
        <ele>42.4</ele>
        <time>2022-05-24 13:05:46</time>
      </trkpt>
      <trkpt lat="41.06507" lon="0.66383">
        <ele>42.4</ele>
        <time>2022-05-24 13:05:47</time>
      </trkpt>
      <trkpt lat="41.065" lon="0.66383">
        <ele>42.4</ele>
        <time>2022-05-24 13:05:48</time>
      </trkpt>
      <trkpt lat="41.06494" lon="0.66382">
        <ele>42.4</ele>
        <time>2022-05-24 13:05:49</time>
      </trkpt>
      <trkpt lat="41.06488" lon="0.66382">
        <ele>42.4</ele>
        <time>2022-05-24 13:05:50</time>
      </trkpt>
      <trkpt lat="41.06483" lon="0.66381">
        <ele>42.6</ele>
        <time>2022-05-24 13:05:51</time>
      </trkpt>
      <trkpt lat="41.06477" lon="0.6638">
        <ele>42.6</ele>
        <time>2022-05-24 13:05:52</time>
      </trkpt>
      <trkpt lat="41.06471" lon="0.66379">
        <ele>42.8</ele>
        <time>2022-05-24 13:05:53</time>
      </trkpt>
      <trkpt lat="41.06465" lon="0.66377">
        <ele>42.8</ele>
        <time>2022-05-24 13:05:54</time>
      </trkpt>
      <trkpt lat="41.06461" lon="0.66376">
        <ele>43</ele>
        <time>2022-05-24 13:05:55</time>
      </trkpt>
      <trkpt lat="41.06455" lon="0.66374">
        <ele>43</ele>
        <time>2022-05-24 13:05:56</time>
      </trkpt>
      <trkpt lat="41.0645" lon="0.66372">
        <ele>43</ele>
        <time>2022-05-24 13:05:57</time>
      </trkpt>
      <trkpt lat="41.06444" lon="0.6637">
        <ele>43.2</ele>
        <time>2022-05-24 13:05:58</time>
      </trkpt>
      <trkpt lat="41.06439" lon="0.66368">
        <ele>43.4</ele>
        <time>2022-05-24 13:05:59</time>
      </trkpt>
      <trkpt lat="41.06434" lon="0.66366">
        <ele>43.4</ele>
        <time>2022-05-24 13:06:00</time>
      </trkpt>
      <trkpt lat="41.06429" lon="0.66364">
        <ele>43.6</ele>
        <time>2022-05-24 13:06:01</time>
      </trkpt>
      <trkpt lat="41.06424" lon="0.66361">
        <ele>43.6</ele>
        <time>2022-05-24 13:06:02</time>
      </trkpt>
      <trkpt lat="41.0642" lon="0.66358">
        <ele>43.8</ele>
        <time>2022-05-24 13:06:03</time>
      </trkpt>
      <trkpt lat="41.06415" lon="0.66355">
        <ele>43.8</ele>
        <time>2022-05-24 13:06:04</time>
      </trkpt>
      <trkpt lat="41.06411" lon="0.66353">
        <ele>44</ele>
        <time>2022-05-24 13:06:05</time>
      </trkpt>
      <trkpt lat="41.06406" lon="0.6635">
        <ele>44.2</ele>
        <time>2022-05-24 13:06:06</time>
      </trkpt>
      <trkpt lat="41.06402" lon="0.66347">
        <ele>44.6</ele>
        <time>2022-05-24 13:06:07</time>
      </trkpt>
      <trkpt lat="41.06397" lon="0.66344">
        <ele>44.6</ele>
        <time>2022-05-24 13:06:08</time>
      </trkpt>
      <trkpt lat="41.06393" lon="0.66341">
        <ele>44.6</ele>
        <time>2022-05-24 13:06:09</time>
      </trkpt>
      <trkpt lat="41.06389" lon="0.66338">
        <ele>44.8</ele>
        <time>2022-05-24 13:06:10</time>
      </trkpt>
      <trkpt lat="41.06385" lon="0.66336">
        <ele>44.8</ele>
        <time>2022-05-24 13:06:11</time>
      </trkpt>
      <trkpt lat="41.06381" lon="0.66333">
        <ele>45</ele>
        <time>2022-05-24 13:06:12</time>
      </trkpt>
      <trkpt lat="41.06377" lon="0.6633">
        <ele>45.2</ele>
        <time>2022-05-24 13:06:13</time>
      </trkpt>
      <trkpt lat="41.06373" lon="0.66327">
        <ele>45.4</ele>
        <time>2022-05-24 13:06:14</time>
      </trkpt>
      <trkpt lat="41.06369" lon="0.66325">
        <ele>45.6</ele>
        <time>2022-05-24 13:06:15</time>
      </trkpt>
      <trkpt lat="41.06366" lon="0.66322">
        <ele>45.8</ele>
        <time>2022-05-24 13:06:16</time>
      </trkpt>
      <trkpt lat="41.06362" lon="0.6632">
        <ele>46</ele>
        <time>2022-05-24 13:06:17</time>
      </trkpt>
      <trkpt lat="41.06359" lon="0.66317">
        <ele>46</ele>
        <time>2022-05-24 13:06:18</time>
      </trkpt>
      <trkpt lat="41.06356" lon="0.66315">
        <ele>46.2</ele>
        <time>2022-05-24 13:06:19</time>
      </trkpt>
      <trkpt lat="41.06352" lon="0.66312">
        <ele>46.4</ele>
        <time>2022-05-24 13:06:20</time>
      </trkpt>
      <trkpt lat="41.06349" lon="0.6631">
        <ele>46.4</ele>
        <time>2022-05-24 13:06:21</time>
      </trkpt>
      <trkpt lat="41.06346" lon="0.66309">
        <ele>46.6</ele>
        <time>2022-05-24 13:06:22</time>
      </trkpt>
      <trkpt lat="41.06343" lon="0.66306">
        <ele>46.6</ele>
        <time>2022-05-24 13:06:23</time>
      </trkpt>
      <trkpt lat="41.0634" lon="0.66304">
        <ele>46.8</ele>
        <time>2022-05-24 13:06:24</time>
      </trkpt>
      <trkpt lat="41.06337" lon="0.66302">
        <ele>47</ele>
        <time>2022-05-24 13:06:25</time>
      </trkpt>
      <trkpt lat="41.06334" lon="0.663">
        <ele>47</ele>
        <time>2022-05-24 13:06:26</time>
      </trkpt>
      <trkpt lat="41.06331" lon="0.66298">
        <ele>47.2</ele>
        <time>2022-05-24 13:06:27</time>
      </trkpt>
      <trkpt lat="41.06328" lon="0.66297">
        <ele>47.2</ele>
        <time>2022-05-24 13:06:28</time>
      </trkpt>
      <trkpt lat="41.06324" lon="0.66295">
        <ele>47.2</ele>
        <time>2022-05-24 13:06:29</time>
      </trkpt>
      <trkpt lat="41.06322" lon="0.66293">
        <ele>47.2</ele>
        <time>2022-05-24 13:06:30</time>
      </trkpt>
      <trkpt lat="41.06319" lon="0.6629">
        <ele>47.2</ele>
        <time>2022-05-24 13:06:31</time>
      </trkpt>
      <trkpt lat="41.06315" lon="0.66287">
        <ele>47.2</ele>
        <time>2022-05-24 13:06:32</time>
      </trkpt>
      <trkpt lat="41.06312" lon="0.66285">
        <ele>47.2</ele>
        <time>2022-05-24 13:06:33</time>
      </trkpt>
      <trkpt lat="41.06308" lon="0.66283">
        <ele>47.2</ele>
        <time>2022-05-24 13:06:34</time>
      </trkpt>
      <trkpt lat="41.06303" lon="0.6628">
        <ele>47.4</ele>
        <time>2022-05-24 13:06:35</time>
      </trkpt>
      <trkpt lat="41.063" lon="0.66278">
        <ele>47.4</ele>
        <time>2022-05-24 13:06:36</time>
      </trkpt>
      <trkpt lat="41.06296" lon="0.66275">
        <ele>47.4</ele>
        <time>2022-05-24 13:06:37</time>
      </trkpt>
      <trkpt lat="41.06292" lon="0.66273">
        <ele>47.6</ele>
        <time>2022-05-24 13:06:38</time>
      </trkpt>
      <trkpt lat="41.06288" lon="0.6627">
        <ele>47.6</ele>
        <time>2022-05-24 13:06:39</time>
      </trkpt>
      <trkpt lat="41.06285" lon="0.66268">
        <ele>47.6</ele>
        <time>2022-05-24 13:06:40</time>
      </trkpt>
      <trkpt lat="41.0628" lon="0.66266">
        <ele>47.6</ele>
        <time>2022-05-24 13:06:41</time>
      </trkpt>
      <trkpt lat="41.06276" lon="0.66264">
        <ele>47.6</ele>
        <time>2022-05-24 13:06:42</time>
      </trkpt>
      <trkpt lat="41.06272" lon="0.66262">
        <ele>47.6</ele>
        <time>2022-05-24 13:06:43</time>
      </trkpt>
      <trkpt lat="41.06268" lon="0.66259">
        <ele>47.8</ele>
        <time>2022-05-24 13:06:44</time>
      </trkpt>
      <trkpt lat="41.06264" lon="0.66257">
        <ele>47.8</ele>
        <time>2022-05-24 13:06:45</time>
      </trkpt>
      <trkpt lat="41.0626" lon="0.66255">
        <ele>47.8</ele>
        <time>2022-05-24 13:06:46</time>
      </trkpt>
      <trkpt lat="41.06256" lon="0.66253">
        <ele>48</ele>
        <time>2022-05-24 13:06:47</time>
      </trkpt>
      <trkpt lat="41.06252" lon="0.66251">
        <ele>48</ele>
        <time>2022-05-24 13:06:48</time>
      </trkpt>
      <trkpt lat="41.06248" lon="0.66249">
        <ele>48</ele>
        <time>2022-05-24 13:06:49</time>
      </trkpt>
      <trkpt lat="41.06244" lon="0.66247">
        <ele>48</ele>
        <time>2022-05-24 13:06:50</time>
      </trkpt>
      <trkpt lat="41.0624" lon="0.66245">
        <ele>48</ele>
        <time>2022-05-24 13:06:51</time>
      </trkpt>
      <trkpt lat="41.06236" lon="0.66244">
        <ele>48</ele>
        <time>2022-05-24 13:06:52</time>
      </trkpt>
      <trkpt lat="41.06231" lon="0.66242">
        <ele>48</ele>
        <time>2022-05-24 13:06:53</time>
      </trkpt>
      <trkpt lat="41.06228" lon="0.6624">
        <ele>48</ele>
        <time>2022-05-24 13:06:54</time>
      </trkpt>
      <trkpt lat="41.06224" lon="0.66239">
        <ele>48.2</ele>
        <time>2022-05-24 13:06:55</time>
      </trkpt>
      <trkpt lat="41.0622" lon="0.66236">
        <ele>48.2</ele>
        <time>2022-05-24 13:06:56</time>
      </trkpt>
      <trkpt lat="41.06215" lon="0.66235">
        <ele>48.4</ele>
        <time>2022-05-24 13:06:57</time>
      </trkpt>
      <trkpt lat="41.06212" lon="0.66234">
        <ele>48.4</ele>
        <time>2022-05-24 13:06:58</time>
      </trkpt>
      <trkpt lat="41.06208" lon="0.66232">
        <ele>48.4</ele>
        <time>2022-05-24 13:06:59</time>
      </trkpt>
      <trkpt lat="41.06204" lon="0.6623">
        <ele>48.4</ele>
        <time>2022-05-24 13:07:00</time>
      </trkpt>
      <trkpt lat="41.06199" lon="0.66229">
        <ele>48.4</ele>
        <time>2022-05-24 13:07:01</time>
      </trkpt>
      <trkpt lat="41.06195" lon="0.66227">
        <ele>48.4</ele>
        <time>2022-05-24 13:07:02</time>
      </trkpt>
      <trkpt lat="41.06191" lon="0.66225">
        <ele>48.4</ele>
        <time>2022-05-24 13:07:03</time>
      </trkpt>
      <trkpt lat="41.06187" lon="0.66224">
        <ele>48.6</ele>
        <time>2022-05-24 13:07:04</time>
      </trkpt>
      <trkpt lat="41.06182" lon="0.66222">
        <ele>48.6</ele>
        <time>2022-05-24 13:07:05</time>
      </trkpt>
      <trkpt lat="41.06178" lon="0.66221">
        <ele>48.4</ele>
        <time>2022-05-24 13:07:06</time>
      </trkpt>
      <trkpt lat="41.06173" lon="0.6622">
        <ele>48.4</ele>
        <time>2022-05-24 13:07:07</time>
      </trkpt>
      <trkpt lat="41.06168" lon="0.66218">
        <ele>48.4</ele>
        <time>2022-05-24 13:07:08</time>
      </trkpt>
      <trkpt lat="41.06164" lon="0.66217">
        <ele>48.4</ele>
        <time>2022-05-24 13:07:09</time>
      </trkpt>
      <trkpt lat="41.06159" lon="0.66216">
        <ele>48.4</ele>
        <time>2022-05-24 13:07:10</time>
      </trkpt>
      <trkpt lat="41.06155" lon="0.66214">
        <ele>48.4</ele>
        <time>2022-05-24 13:07:11</time>
      </trkpt>
      <trkpt lat="41.0615" lon="0.66213">
        <ele>48.4</ele>
        <time>2022-05-24 13:07:12</time>
      </trkpt>
      <trkpt lat="41.06145" lon="0.66212">
        <ele>48.4</ele>
        <time>2022-05-24 13:07:13</time>
      </trkpt>
      <trkpt lat="41.06141" lon="0.66211">
        <ele>48.4</ele>
        <time>2022-05-24 13:07:14</time>
      </trkpt>
      <trkpt lat="41.06137" lon="0.6621">
        <ele>48.4</ele>
        <time>2022-05-24 13:07:15</time>
      </trkpt>
      <trkpt lat="41.06131" lon="0.6621">
        <ele>48.2</ele>
        <time>2022-05-24 13:07:16</time>
      </trkpt>
      <trkpt lat="41.06127" lon="0.66209">
        <ele>48.2</ele>
        <time>2022-05-24 13:07:17</time>
      </trkpt>
      <trkpt lat="41.06123" lon="0.66208">
        <ele>48.2</ele>
        <time>2022-05-24 13:07:18</time>
      </trkpt>
      <trkpt lat="41.06118" lon="0.66208">
        <ele>48</ele>
        <time>2022-05-24 13:07:19</time>
      </trkpt>
      <trkpt lat="41.06113" lon="0.66207">
        <ele>48</ele>
        <time>2022-05-24 13:07:20</time>
      </trkpt>
      <trkpt lat="41.06108" lon="0.66206">
        <ele>48</ele>
        <time>2022-05-24 13:07:21</time>
      </trkpt>
      <trkpt lat="41.06103" lon="0.66205">
        <ele>47.8</ele>
        <time>2022-05-24 13:07:22</time>
      </trkpt>
      <trkpt lat="41.06098" lon="0.66204">
        <ele>47.8</ele>
        <time>2022-05-24 13:07:23</time>
      </trkpt>
      <trkpt lat="41.06092" lon="0.66202">
        <ele>47.8</ele>
        <time>2022-05-24 13:07:24</time>
      </trkpt>
      <trkpt lat="41.06088" lon="0.66201">
        <ele>47.6</ele>
        <time>2022-05-24 13:07:25</time>
      </trkpt>
      <trkpt lat="41.06081" lon="0.66199">
        <ele>47.6</ele>
        <time>2022-05-24 13:07:26</time>
      </trkpt>
      <trkpt lat="41.06076" lon="0.66198">
        <ele>47.4</ele>
        <time>2022-05-24 13:07:27</time>
      </trkpt>
      <trkpt lat="41.06069" lon="0.66196">
        <ele>47.4</ele>
        <time>2022-05-24 13:07:28</time>
      </trkpt>
      <trkpt lat="41.06064" lon="0.66195">
        <ele>47.4</ele>
        <time>2022-05-24 13:07:29</time>
      </trkpt>
      <trkpt lat="41.06058" lon="0.66193">
        <ele>47.4</ele>
        <time>2022-05-24 13:07:30</time>
      </trkpt>
      <trkpt lat="41.06053" lon="0.66192">
        <ele>47.2</ele>
        <time>2022-05-24 13:07:31</time>
      </trkpt>
      <trkpt lat="41.06047" lon="0.66191">
        <ele>47.2</ele>
        <time>2022-05-24 13:07:32</time>
      </trkpt>
      <trkpt lat="41.06041" lon="0.6619">
        <ele>47.2</ele>
        <time>2022-05-24 13:07:33</time>
      </trkpt>
      <trkpt lat="41.06035" lon="0.66189">
        <ele>47</ele>
        <time>2022-05-24 13:07:34</time>
      </trkpt>
      <trkpt lat="41.06029" lon="0.66188">
        <ele>47</ele>
        <time>2022-05-24 13:07:35</time>
      </trkpt>
      <trkpt lat="41.06023" lon="0.66188">
        <ele>47</ele>
        <time>2022-05-24 13:07:36</time>
      </trkpt>
      <trkpt lat="41.06018" lon="0.66188">
        <ele>47</ele>
        <time>2022-05-24 13:07:37</time>
      </trkpt>
      <trkpt lat="41.06012" lon="0.66188">
        <ele>46.8</ele>
        <time>2022-05-24 13:07:38</time>
      </trkpt>
      <trkpt lat="41.06008" lon="0.66187">
        <ele>46.8</ele>
        <time>2022-05-24 13:07:39</time>
      </trkpt>
      <trkpt lat="41.06001" lon="0.66187">
        <ele>46.6</ele>
        <time>2022-05-24 13:07:40</time>
      </trkpt>
      <trkpt lat="41.05996" lon="0.66188">
        <ele>46.6</ele>
        <time>2022-05-24 13:07:41</time>
      </trkpt>
      <trkpt lat="41.05989" lon="0.66189">
        <ele>46.4</ele>
        <time>2022-05-24 13:07:42</time>
      </trkpt>
      <trkpt lat="41.05984" lon="0.6619">
        <ele>46.4</ele>
        <time>2022-05-24 13:07:43</time>
      </trkpt>
      <trkpt lat="41.05978" lon="0.66191">
        <ele>46.2</ele>
        <time>2022-05-24 13:07:44</time>
      </trkpt>
      <trkpt lat="41.05973" lon="0.66192">
        <ele>46.2</ele>
        <time>2022-05-24 13:07:45</time>
      </trkpt>
      <trkpt lat="41.05966" lon="0.66193">
        <ele>46</ele>
        <time>2022-05-24 13:07:46</time>
      </trkpt>
      <trkpt lat="41.05961" lon="0.66194">
        <ele>45.8</ele>
        <time>2022-05-24 13:07:47</time>
      </trkpt>
      <trkpt lat="41.05955" lon="0.66197">
        <ele>45.8</ele>
        <time>2022-05-24 13:07:48</time>
      </trkpt>
      <trkpt lat="41.0595" lon="0.66198">
        <ele>45.6</ele>
        <time>2022-05-24 13:07:49</time>
      </trkpt>
      <trkpt lat="41.05944" lon="0.66201">
        <ele>45.6</ele>
        <time>2022-05-24 13:07:50</time>
      </trkpt>
      <trkpt lat="41.0594" lon="0.66202">
        <ele>45.4</ele>
        <time>2022-05-24 13:07:51</time>
      </trkpt>
      <trkpt lat="41.05933" lon="0.66205">
        <ele>45.4</ele>
        <time>2022-05-24 13:07:52</time>
      </trkpt>
      <trkpt lat="41.05928" lon="0.66207">
        <ele>45.4</ele>
        <time>2022-05-24 13:07:53</time>
      </trkpt>
      <trkpt lat="41.05922" lon="0.6621">
        <ele>45.4</ele>
        <time>2022-05-24 13:07:54</time>
      </trkpt>
      <trkpt lat="41.05916" lon="0.66213">
        <ele>45.2</ele>
        <time>2022-05-24 13:07:55</time>
      </trkpt>
      <trkpt lat="41.05911" lon="0.66216">
        <ele>45.2</ele>
        <time>2022-05-24 13:07:56</time>
      </trkpt>
      <trkpt lat="41.05906" lon="0.66219">
        <ele>45.2</ele>
        <time>2022-05-24 13:07:57</time>
      </trkpt>
      <trkpt lat="41.05901" lon="0.66223">
        <ele>45</ele>
        <time>2022-05-24 13:07:58</time>
      </trkpt>
      <trkpt lat="41.05896" lon="0.66226">
        <ele>45</ele>
        <time>2022-05-24 13:07:59</time>
      </trkpt>
      <trkpt lat="41.0589" lon="0.6623">
        <ele>45</ele>
        <time>2022-05-24 13:08:00</time>
      </trkpt>
      <trkpt lat="41.05885" lon="0.66233">
        <ele>45</ele>
        <time>2022-05-24 13:08:01</time>
      </trkpt>
      <trkpt lat="41.0588" lon="0.66237">
        <ele>45</ele>
        <time>2022-05-24 13:08:02</time>
      </trkpt>
      <trkpt lat="41.05876" lon="0.6624">
        <ele>44.8</ele>
        <time>2022-05-24 13:08:03</time>
      </trkpt>
      <trkpt lat="41.0587" lon="0.66244">
        <ele>44.8</ele>
        <time>2022-05-24 13:08:04</time>
      </trkpt>
      <trkpt lat="41.05865" lon="0.66247">
        <ele>44.8</ele>
        <time>2022-05-24 13:08:05</time>
      </trkpt>
      <trkpt lat="41.05859" lon="0.66252">
        <ele>44.6</ele>
        <time>2022-05-24 13:08:06</time>
      </trkpt>
      <trkpt lat="41.05855" lon="0.66255">
        <ele>44.4</ele>
        <time>2022-05-24 13:08:07</time>
      </trkpt>
      <trkpt lat="41.05849" lon="0.66258">
        <ele>44.4</ele>
        <time>2022-05-24 13:08:08</time>
      </trkpt>
      <trkpt lat="41.05843" lon="0.66262">
        <ele>44.2</ele>
        <time>2022-05-24 13:08:09</time>
      </trkpt>
      <trkpt lat="41.05838" lon="0.66266">
        <ele>44.2</ele>
        <time>2022-05-24 13:08:10</time>
      </trkpt>
      <trkpt lat="41.05832" lon="0.66269">
        <ele>44.2</ele>
        <time>2022-05-24 13:08:11</time>
      </trkpt>
      <trkpt lat="41.05827" lon="0.66272">
        <ele>44.2</ele>
        <time>2022-05-24 13:08:12</time>
      </trkpt>
      <trkpt lat="41.05822" lon="0.66275">
        <ele>44.2</ele>
        <time>2022-05-24 13:08:13</time>
      </trkpt>
      <trkpt lat="41.05816" lon="0.66278">
        <ele>44.2</ele>
        <time>2022-05-24 13:08:14</time>
      </trkpt>
      <trkpt lat="41.05811" lon="0.66281">
        <ele>44.2</ele>
        <time>2022-05-24 13:08:15</time>
      </trkpt>
      <trkpt lat="41.05805" lon="0.66283">
        <ele>44</ele>
        <time>2022-05-24 13:08:16</time>
      </trkpt>
      <trkpt lat="41.05801" lon="0.66286">
        <ele>44</ele>
        <time>2022-05-24 13:08:17</time>
      </trkpt>
      <trkpt lat="41.05794" lon="0.66288">
        <ele>44</ele>
        <time>2022-05-24 13:08:18</time>
      </trkpt>
      <trkpt lat="41.05789" lon="0.6629">
        <ele>44</ele>
        <time>2022-05-24 13:08:19</time>
      </trkpt>
      <trkpt lat="41.05783" lon="0.66292">
        <ele>44</ele>
        <time>2022-05-24 13:08:20</time>
      </trkpt>
      <trkpt lat="41.05777" lon="0.66294">
        <ele>44</ele>
        <time>2022-05-24 13:08:21</time>
      </trkpt>
      <trkpt lat="41.05772" lon="0.66295">
        <ele>44</ele>
        <time>2022-05-24 13:08:22</time>
      </trkpt>
      <trkpt lat="41.05767" lon="0.66296">
        <ele>43.8</ele>
        <time>2022-05-24 13:08:23</time>
      </trkpt>
      <trkpt lat="41.0576" lon="0.66298">
        <ele>43.8</ele>
        <time>2022-05-24 13:08:24</time>
      </trkpt>
      <trkpt lat="41.05754" lon="0.66299">
        <ele>43.8</ele>
        <time>2022-05-24 13:08:25</time>
      </trkpt>
      <trkpt lat="41.05749" lon="0.66299">
        <ele>43.8</ele>
        <time>2022-05-24 13:08:26</time>
      </trkpt>
      <trkpt lat="41.05743" lon="0.66299">
        <ele>43.6</ele>
        <time>2022-05-24 13:08:27</time>
      </trkpt>
      <trkpt lat="41.05737" lon="0.663">
        <ele>43.6</ele>
        <time>2022-05-24 13:08:28</time>
      </trkpt>
      <trkpt lat="41.05732" lon="0.663">
        <ele>43.8</ele>
        <time>2022-05-24 13:08:29</time>
      </trkpt>
      <trkpt lat="41.05726" lon="0.663">
        <ele>43.8</ele>
        <time>2022-05-24 13:08:30</time>
      </trkpt>
      <trkpt lat="41.0572" lon="0.66299">
        <ele>43.8</ele>
        <time>2022-05-24 13:08:31</time>
      </trkpt>
      <trkpt lat="41.05715" lon="0.66299">
        <ele>43.8</ele>
        <time>2022-05-24 13:08:32</time>
      </trkpt>
      <trkpt lat="41.05709" lon="0.66298">
        <ele>43.6</ele>
        <time>2022-05-24 13:08:33</time>
      </trkpt>
      <trkpt lat="41.05704" lon="0.66298">
        <ele>44</ele>
        <time>2022-05-24 13:08:34</time>
      </trkpt>
      <trkpt lat="41.05698" lon="0.66297">
        <ele>44</ele>
        <time>2022-05-24 13:08:35</time>
      </trkpt>
      <trkpt lat="41.05693" lon="0.66296">
        <ele>44</ele>
        <time>2022-05-24 13:08:36</time>
      </trkpt>
      <trkpt lat="41.05688" lon="0.66295">
        <ele>43.8</ele>
        <time>2022-05-24 13:08:37</time>
      </trkpt>
      <trkpt lat="41.05682" lon="0.66293">
        <ele>43.8</ele>
        <time>2022-05-24 13:08:38</time>
      </trkpt>
      <trkpt lat="41.05677" lon="0.66292">
        <ele>44</ele>
        <time>2022-05-24 13:08:39</time>
      </trkpt>
      <trkpt lat="41.05672" lon="0.6629">
        <ele>44</ele>
        <time>2022-05-24 13:08:40</time>
      </trkpt>
      <trkpt lat="41.05667" lon="0.66288">
        <ele>44.2</ele>
        <time>2022-05-24 13:08:41</time>
      </trkpt>
      <trkpt lat="41.05662" lon="0.66286">
        <ele>44.2</ele>
        <time>2022-05-24 13:08:42</time>
      </trkpt>
      <trkpt lat="41.05658" lon="0.66284">
        <ele>44.2</ele>
        <time>2022-05-24 13:08:43</time>
      </trkpt>
      <trkpt lat="41.05653" lon="0.66282">
        <ele>44.2</ele>
        <time>2022-05-24 13:08:44</time>
      </trkpt>
      <trkpt lat="41.05648" lon="0.6628">
        <ele>44.2</ele>
        <time>2022-05-24 13:08:45</time>
      </trkpt>
      <trkpt lat="41.05644" lon="0.66277">
        <ele>44.4</ele>
        <time>2022-05-24 13:08:46</time>
      </trkpt>
      <trkpt lat="41.05639" lon="0.66275">
        <ele>44.4</ele>
        <time>2022-05-24 13:08:47</time>
      </trkpt>
      <trkpt lat="41.05635" lon="0.66273">
        <ele>44.4</ele>
        <time>2022-05-24 13:08:48</time>
      </trkpt>
      <trkpt lat="41.0563" lon="0.6627">
        <ele>44.6</ele>
        <time>2022-05-24 13:08:49</time>
      </trkpt>
      <trkpt lat="41.05625" lon="0.66268">
        <ele>44.6</ele>
        <time>2022-05-24 13:08:50</time>
      </trkpt>
      <trkpt lat="41.05621" lon="0.66265">
        <ele>44.8</ele>
        <time>2022-05-24 13:08:51</time>
      </trkpt>
      <trkpt lat="41.05616" lon="0.66262">
        <ele>44.6</ele>
        <time>2022-05-24 13:08:52</time>
      </trkpt>
      <trkpt lat="41.05611" lon="0.6626">
        <ele>44.6</ele>
        <time>2022-05-24 13:08:53</time>
      </trkpt>
      <trkpt lat="41.05606" lon="0.66257">
        <ele>44.6</ele>
        <time>2022-05-24 13:08:54</time>
      </trkpt>
      <trkpt lat="41.05601" lon="0.66255">
        <ele>44.6</ele>
        <time>2022-05-24 13:08:55</time>
      </trkpt>
      <trkpt lat="41.05597" lon="0.66252">
        <ele>44.6</ele>
        <time>2022-05-24 13:08:56</time>
      </trkpt>
      <trkpt lat="41.05592" lon="0.6625">
        <ele>44.6</ele>
        <time>2022-05-24 13:08:57</time>
      </trkpt>
      <trkpt lat="41.05588" lon="0.66247">
        <ele>44.6</ele>
        <time>2022-05-24 13:08:58</time>
      </trkpt>
      <trkpt lat="41.05583" lon="0.66244">
        <ele>44.6</ele>
        <time>2022-05-24 13:08:59</time>
      </trkpt>
      <trkpt lat="41.05579" lon="0.66242">
        <ele>44.8</ele>
        <time>2022-05-24 13:09:00</time>
      </trkpt>
      <trkpt lat="41.05574" lon="0.66239">
        <ele>44.8</ele>
        <time>2022-05-24 13:09:01</time>
      </trkpt>
      <trkpt lat="41.05569" lon="0.66236">
        <ele>44.8</ele>
        <time>2022-05-24 13:09:02</time>
      </trkpt>
      <trkpt lat="41.05564" lon="0.66233">
        <ele>44.8</ele>
        <time>2022-05-24 13:09:03</time>
      </trkpt>
      <trkpt lat="41.0556" lon="0.66231">
        <ele>44.8</ele>
        <time>2022-05-24 13:09:04</time>
      </trkpt>
      <trkpt lat="41.05556" lon="0.66228">
        <ele>44.8</ele>
        <time>2022-05-24 13:09:05</time>
      </trkpt>
      <trkpt lat="41.05551" lon="0.66225">
        <ele>44.8</ele>
        <time>2022-05-24 13:09:06</time>
      </trkpt>
      <trkpt lat="41.05546" lon="0.66223">
        <ele>44.8</ele>
        <time>2022-05-24 13:09:07</time>
      </trkpt>
      <trkpt lat="41.05542" lon="0.6622">
        <ele>44.8</ele>
        <time>2022-05-24 13:09:08</time>
      </trkpt>
      <trkpt lat="41.05537" lon="0.66217">
        <ele>44.8</ele>
        <time>2022-05-24 13:09:09</time>
      </trkpt>
      <trkpt lat="41.05532" lon="0.66214">
        <ele>44.8</ele>
        <time>2022-05-24 13:09:10</time>
      </trkpt>
      <trkpt lat="41.05528" lon="0.66211">
        <ele>45</ele>
        <time>2022-05-24 13:09:11</time>
      </trkpt>
      <trkpt lat="41.05524" lon="0.66209">
        <ele>45</ele>
        <time>2022-05-24 13:09:12</time>
      </trkpt>
      <trkpt lat="41.05519" lon="0.66206">
        <ele>45</ele>
        <time>2022-05-24 13:09:13</time>
      </trkpt>
      <trkpt lat="41.05514" lon="0.66203">
        <ele>45</ele>
        <time>2022-05-24 13:09:14</time>
      </trkpt>
      <trkpt lat="41.0551" lon="0.66201">
        <ele>45</ele>
        <time>2022-05-24 13:09:15</time>
      </trkpt>
      <trkpt lat="41.05505" lon="0.66198">
        <ele>45</ele>
        <time>2022-05-24 13:09:16</time>
      </trkpt>
      <trkpt lat="41.055" lon="0.66195">
        <ele>45</ele>
        <time>2022-05-24 13:09:17</time>
      </trkpt>
      <trkpt lat="41.05496" lon="0.66193">
        <ele>45</ele>
        <time>2022-05-24 13:09:18</time>
      </trkpt>
      <trkpt lat="41.05492" lon="0.6619">
        <ele>45</ele>
        <time>2022-05-24 13:09:19</time>
      </trkpt>
      <trkpt lat="41.05487" lon="0.66187">
        <ele>45.2</ele>
        <time>2022-05-24 13:09:20</time>
      </trkpt>
      <trkpt lat="41.05482" lon="0.66185">
        <ele>45.2</ele>
        <time>2022-05-24 13:09:21</time>
      </trkpt>
      <trkpt lat="41.05478" lon="0.66182">
        <ele>45.2</ele>
        <time>2022-05-24 13:09:22</time>
      </trkpt>
      <trkpt lat="41.05473" lon="0.66179">
        <ele>45.2</ele>
        <time>2022-05-24 13:09:23</time>
      </trkpt>
      <trkpt lat="41.05469" lon="0.66177">
        <ele>45.2</ele>
        <time>2022-05-24 13:09:24</time>
      </trkpt>
      <trkpt lat="41.05464" lon="0.66174">
        <ele>45.2</ele>
        <time>2022-05-24 13:09:25</time>
      </trkpt>
      <trkpt lat="41.0546" lon="0.66171">
        <ele>45.2</ele>
        <time>2022-05-24 13:09:26</time>
      </trkpt>
      <trkpt lat="41.05456" lon="0.66169">
        <ele>45.2</ele>
        <time>2022-05-24 13:09:27</time>
      </trkpt>
      <trkpt lat="41.05451" lon="0.66166">
        <ele>45.2</ele>
        <time>2022-05-24 13:09:28</time>
      </trkpt>
      <trkpt lat="41.05447" lon="0.66164">
        <ele>45.2</ele>
        <time>2022-05-24 13:09:29</time>
      </trkpt>
      <trkpt lat="41.05442" lon="0.66161">
        <ele>45.2</ele>
        <time>2022-05-24 13:09:30</time>
      </trkpt>
      <trkpt lat="41.05438" lon="0.66158">
        <ele>45.2</ele>
        <time>2022-05-24 13:09:31</time>
      </trkpt>
      <trkpt lat="41.05433" lon="0.66155">
        <ele>45.4</ele>
        <time>2022-05-24 13:09:32</time>
      </trkpt>
      <trkpt lat="41.05429" lon="0.66153">
        <ele>45.4</ele>
        <time>2022-05-24 13:09:33</time>
      </trkpt>
      <trkpt lat="41.05424" lon="0.6615">
        <ele>45.4</ele>
        <time>2022-05-24 13:09:34</time>
      </trkpt>
      <trkpt lat="41.0542" lon="0.66148">
        <ele>45.2</ele>
        <time>2022-05-24 13:09:35</time>
      </trkpt>
      <trkpt lat="41.05416" lon="0.66145">
        <ele>45.2</ele>
        <time>2022-05-24 13:09:36</time>
      </trkpt>
      <trkpt lat="41.05411" lon="0.66143">
        <ele>45.2</ele>
        <time>2022-05-24 13:09:37</time>
      </trkpt>
      <trkpt lat="41.05407" lon="0.66141">
        <ele>45.2</ele>
        <time>2022-05-24 13:09:38</time>
      </trkpt>
      <trkpt lat="41.05403" lon="0.66139">
        <ele>45.2</ele>
        <time>2022-05-24 13:09:39</time>
      </trkpt>
      <trkpt lat="41.05398" lon="0.66137">
        <ele>45.2</ele>
        <time>2022-05-24 13:09:40</time>
      </trkpt>
      <trkpt lat="41.05394" lon="0.66134">
        <ele>45.4</ele>
        <time>2022-05-24 13:09:41</time>
      </trkpt>
      <trkpt lat="41.0539" lon="0.66132">
        <ele>45.4</ele>
        <time>2022-05-24 13:09:42</time>
      </trkpt>
      <trkpt lat="41.05386" lon="0.66129">
        <ele>45.6</ele>
        <time>2022-05-24 13:09:43</time>
      </trkpt>
      <trkpt lat="41.05382" lon="0.66127">
        <ele>45.6</ele>
        <time>2022-05-24 13:09:44</time>
      </trkpt>
      <trkpt lat="41.05378" lon="0.66125">
        <ele>45.6</ele>
        <time>2022-05-24 13:09:45</time>
      </trkpt>
      <trkpt lat="41.05373" lon="0.66122">
        <ele>45.6</ele>
        <time>2022-05-24 13:09:46</time>
      </trkpt>
      <trkpt lat="41.05369" lon="0.6612">
        <ele>45.6</ele>
        <time>2022-05-24 13:09:47</time>
      </trkpt>
      <trkpt lat="41.05365" lon="0.66117">
        <ele>45.6</ele>
        <time>2022-05-24 13:09:48</time>
      </trkpt>
      <trkpt lat="41.05361" lon="0.66114">
        <ele>45.6</ele>
        <time>2022-05-24 13:09:49</time>
      </trkpt>
      <trkpt lat="41.05357" lon="0.66112">
        <ele>45.6</ele>
        <time>2022-05-24 13:09:50</time>
      </trkpt>
      <trkpt lat="41.05352" lon="0.66109">
        <ele>45.6</ele>
        <time>2022-05-24 13:09:51</time>
      </trkpt>
      <trkpt lat="41.05348" lon="0.66107">
        <ele>45.6</ele>
        <time>2022-05-24 13:09:52</time>
      </trkpt>
      <trkpt lat="41.05344" lon="0.66104">
        <ele>45.6</ele>
        <time>2022-05-24 13:09:53</time>
      </trkpt>
      <trkpt lat="41.0534" lon="0.66102">
        <ele>45.6</ele>
        <time>2022-05-24 13:09:54</time>
      </trkpt>
      <trkpt lat="41.05335" lon="0.66099">
        <ele>45.8</ele>
        <time>2022-05-24 13:09:55</time>
      </trkpt>
      <trkpt lat="41.05331" lon="0.66096">
        <ele>45.8</ele>
        <time>2022-05-24 13:09:56</time>
      </trkpt>
      <trkpt lat="41.05326" lon="0.66094">
        <ele>45.8</ele>
        <time>2022-05-24 13:09:57</time>
      </trkpt>
      <trkpt lat="41.05322" lon="0.66091">
        <ele>45.8</ele>
        <time>2022-05-24 13:09:58</time>
      </trkpt>
      <trkpt lat="41.05318" lon="0.66088">
        <ele>45.8</ele>
        <time>2022-05-24 13:09:59</time>
      </trkpt>
      <trkpt lat="41.05313" lon="0.66086">
        <ele>45.8</ele>
        <time>2022-05-24 13:10:00</time>
      </trkpt>
      <trkpt lat="41.05309" lon="0.66083">
        <ele>45.8</ele>
        <time>2022-05-24 13:10:01</time>
      </trkpt>
      <trkpt lat="41.05305" lon="0.6608">
        <ele>45.8</ele>
        <time>2022-05-24 13:10:02</time>
      </trkpt>
      <trkpt lat="41.05302" lon="0.66078">
        <ele>45.8</ele>
        <time>2022-05-24 13:10:03</time>
      </trkpt>
      <trkpt lat="41.05297" lon="0.66075">
        <ele>46</ele>
        <time>2022-05-24 13:10:04</time>
      </trkpt>
      <trkpt lat="41.05293" lon="0.66073">
        <ele>46</ele>
        <time>2022-05-24 13:10:05</time>
      </trkpt>
      <trkpt lat="41.05288" lon="0.6607">
        <ele>46</ele>
        <time>2022-05-24 13:10:06</time>
      </trkpt>
      <trkpt lat="41.05283" lon="0.66068">
        <ele>46</ele>
        <time>2022-05-24 13:10:07</time>
      </trkpt>
      <trkpt lat="41.05279" lon="0.66065">
        <ele>46.2</ele>
        <time>2022-05-24 13:10:08</time>
      </trkpt>
      <trkpt lat="41.05275" lon="0.66063">
        <ele>46.2</ele>
        <time>2022-05-24 13:10:09</time>
      </trkpt>
      <trkpt lat="41.05271" lon="0.6606">
        <ele>46.2</ele>
        <time>2022-05-24 13:10:10</time>
      </trkpt>
      <trkpt lat="41.05266" lon="0.66057">
        <ele>46.2</ele>
        <time>2022-05-24 13:10:11</time>
      </trkpt>
      <trkpt lat="41.05262" lon="0.66055">
        <ele>46.2</ele>
        <time>2022-05-24 13:10:12</time>
      </trkpt>
      <trkpt lat="41.05257" lon="0.66052">
        <ele>46.2</ele>
        <time>2022-05-24 13:10:13</time>
      </trkpt>
      <trkpt lat="41.05253" lon="0.66049">
        <ele>46.2</ele>
        <time>2022-05-24 13:10:14</time>
      </trkpt>
      <trkpt lat="41.05247" lon="0.66046">
        <ele>46.2</ele>
        <time>2022-05-24 13:10:15</time>
      </trkpt>
      <trkpt lat="41.05243" lon="0.66044">
        <ele>46.2</ele>
        <time>2022-05-24 13:10:16</time>
      </trkpt>
      <trkpt lat="41.05239" lon="0.66041">
        <ele>46.2</ele>
        <time>2022-05-24 13:10:17</time>
      </trkpt>
      <trkpt lat="41.05234" lon="0.66038">
        <ele>46.4</ele>
        <time>2022-05-24 13:10:18</time>
      </trkpt>
      <trkpt lat="41.05229" lon="0.66035">
        <ele>46.4</ele>
        <time>2022-05-24 13:10:19</time>
      </trkpt>
      <trkpt lat="41.05226" lon="0.66033">
        <ele>46.6</ele>
        <time>2022-05-24 13:10:20</time>
      </trkpt>
      <trkpt lat="41.05221" lon="0.6603">
        <ele>46.6</ele>
        <time>2022-05-24 13:10:21</time>
      </trkpt>
      <trkpt lat="41.05218" lon="0.66028">
        <ele>46.6</ele>
        <time>2022-05-24 13:10:22</time>
      </trkpt>
      <trkpt lat="41.05213" lon="0.66025">
        <ele>46.8</ele>
        <time>2022-05-24 13:10:23</time>
      </trkpt>
      <trkpt lat="41.05208" lon="0.66022">
        <ele>46.8</ele>
        <time>2022-05-24 13:10:24</time>
      </trkpt>
      <trkpt lat="41.05206" lon="0.66021">
        <ele>46.8</ele>
        <time>2022-05-24 13:10:25</time>
      </trkpt>
      <trkpt lat="41.052" lon="0.66017">
        <ele>46.8</ele>
        <time>2022-05-24 13:10:26</time>
      </trkpt>
      <trkpt lat="41.05195" lon="0.66014">
        <ele>46.8</ele>
        <time>2022-05-24 13:10:27</time>
      </trkpt>
      <trkpt lat="41.0519" lon="0.66012">
        <ele>46.8</ele>
        <time>2022-05-24 13:10:28</time>
      </trkpt>
      <trkpt lat="41.05185" lon="0.66009">
        <ele>46.8</ele>
        <time>2022-05-24 13:10:29</time>
      </trkpt>
      <trkpt lat="41.0518" lon="0.66006">
        <ele>46.8</ele>
        <time>2022-05-24 13:10:30</time>
      </trkpt>
      <trkpt lat="41.05175" lon="0.66003">
        <ele>46.8</ele>
        <time>2022-05-24 13:10:31</time>
      </trkpt>
      <trkpt lat="41.05171" lon="0.66">
        <ele>46.8</ele>
        <time>2022-05-24 13:10:32</time>
      </trkpt>
      <trkpt lat="41.05165" lon="0.65997">
        <ele>46.8</ele>
        <time>2022-05-24 13:10:33</time>
      </trkpt>
      <trkpt lat="41.0516" lon="0.65994">
        <ele>46.8</ele>
        <time>2022-05-24 13:10:34</time>
      </trkpt>
      <trkpt lat="41.05155" lon="0.65991">
        <ele>46.8</ele>
        <time>2022-05-24 13:10:35</time>
      </trkpt>
      <trkpt lat="41.0515" lon="0.65988">
        <ele>46.8</ele>
        <time>2022-05-24 13:10:36</time>
      </trkpt>
      <trkpt lat="41.05145" lon="0.65985">
        <ele>46.8</ele>
        <time>2022-05-24 13:10:37</time>
      </trkpt>
      <trkpt lat="41.0514" lon="0.65983">
        <ele>46.8</ele>
        <time>2022-05-24 13:10:38</time>
      </trkpt>
      <trkpt lat="41.05135" lon="0.6598">
        <ele>47</ele>
        <time>2022-05-24 13:10:39</time>
      </trkpt>
      <trkpt lat="41.0513" lon="0.65977">
        <ele>47</ele>
        <time>2022-05-24 13:10:40</time>
      </trkpt>
      <trkpt lat="41.05125" lon="0.65974">
        <ele>47</ele>
        <time>2022-05-24 13:10:41</time>
      </trkpt>
      <trkpt lat="41.05119" lon="0.65971">
        <ele>47</ele>
        <time>2022-05-24 13:10:42</time>
      </trkpt>
      <trkpt lat="41.05114" lon="0.65968">
        <ele>47</ele>
        <time>2022-05-24 13:10:43</time>
      </trkpt>
      <trkpt lat="41.0511" lon="0.65965">
        <ele>47</ele>
        <time>2022-05-24 13:10:44</time>
      </trkpt>
      <trkpt lat="41.05105" lon="0.65962">
        <ele>47</ele>
        <time>2022-05-24 13:10:45</time>
      </trkpt>
      <trkpt lat="41.051" lon="0.65959">
        <ele>47</ele>
        <time>2022-05-24 13:10:46</time>
      </trkpt>
      <trkpt lat="41.05095" lon="0.65956">
        <ele>47</ele>
        <time>2022-05-24 13:10:47</time>
      </trkpt>
      <trkpt lat="41.05089" lon="0.65953">
        <ele>47</ele>
        <time>2022-05-24 13:10:48</time>
      </trkpt>
      <trkpt lat="41.05084" lon="0.6595">
        <ele>47</ele>
        <time>2022-05-24 13:10:49</time>
      </trkpt>
      <trkpt lat="41.0508" lon="0.65947">
        <ele>47</ele>
        <time>2022-05-24 13:10:50</time>
      </trkpt>
      <trkpt lat="41.05074" lon="0.65944">
        <ele>47.2</ele>
        <time>2022-05-24 13:10:51</time>
      </trkpt>
      <trkpt lat="41.0507" lon="0.65942">
        <ele>47.2</ele>
        <time>2022-05-24 13:10:52</time>
      </trkpt>
      <trkpt lat="41.05066" lon="0.65939">
        <ele>47.2</ele>
        <time>2022-05-24 13:10:53</time>
      </trkpt>
      <trkpt lat="41.05061" lon="0.65936">
        <ele>47.2</ele>
        <time>2022-05-24 13:10:54</time>
      </trkpt>
      <trkpt lat="41.05057" lon="0.65933">
        <ele>47.2</ele>
        <time>2022-05-24 13:10:55</time>
      </trkpt>
      <trkpt lat="41.05052" lon="0.6593">
        <ele>47.2</ele>
        <time>2022-05-24 13:10:56</time>
      </trkpt>
      <trkpt lat="41.05047" lon="0.65928">
        <ele>47.2</ele>
        <time>2022-05-24 13:10:57</time>
      </trkpt>
      <trkpt lat="41.05043" lon="0.65925">
        <ele>47.2</ele>
        <time>2022-05-24 13:10:58</time>
      </trkpt>
      <trkpt lat="41.05038" lon="0.65922">
        <ele>47.2</ele>
        <time>2022-05-24 13:10:59</time>
      </trkpt>
      <trkpt lat="41.05032" lon="0.65919">
        <ele>47.2</ele>
        <time>2022-05-24 13:11:00</time>
      </trkpt>
      <trkpt lat="41.05028" lon="0.65916">
        <ele>47.2</ele>
        <time>2022-05-24 13:11:01</time>
      </trkpt>
      <trkpt lat="41.05023" lon="0.65913">
        <ele>47.2</ele>
        <time>2022-05-24 13:11:02</time>
      </trkpt>
      <trkpt lat="41.05018" lon="0.6591">
        <ele>47.2</ele>
        <time>2022-05-24 13:11:03</time>
      </trkpt>
      <trkpt lat="41.05013" lon="0.65907">
        <ele>47.2</ele>
        <time>2022-05-24 13:11:04</time>
      </trkpt>
      <trkpt lat="41.05008" lon="0.65904">
        <ele>47.4</ele>
        <time>2022-05-24 13:11:05</time>
      </trkpt>
      <trkpt lat="41.05004" lon="0.65901">
        <ele>47.4</ele>
        <time>2022-05-24 13:11:06</time>
      </trkpt>
      <trkpt lat="41.04999" lon="0.65897">
        <ele>47.4</ele>
        <time>2022-05-24 13:11:07</time>
      </trkpt>
      <trkpt lat="41.04994" lon="0.65894">
        <ele>47.6</ele>
        <time>2022-05-24 13:11:08</time>
      </trkpt>
      <trkpt lat="41.04989" lon="0.6589">
        <ele>47.6</ele>
        <time>2022-05-24 13:11:09</time>
      </trkpt>
      <trkpt lat="41.04985" lon="0.65887">
        <ele>47.6</ele>
        <time>2022-05-24 13:11:10</time>
      </trkpt>
      <trkpt lat="41.0498" lon="0.65883">
        <ele>47.6</ele>
        <time>2022-05-24 13:11:11</time>
      </trkpt>
      <trkpt lat="41.04976" lon="0.6588">
        <ele>47.8</ele>
        <time>2022-05-24 13:11:12</time>
      </trkpt>
      <trkpt lat="41.04971" lon="0.65875">
        <ele>47.8</ele>
        <time>2022-05-24 13:11:13</time>
      </trkpt>
      <trkpt lat="41.04967" lon="0.65871">
        <ele>47.8</ele>
        <time>2022-05-24 13:11:14</time>
      </trkpt>
      <trkpt lat="41.04963" lon="0.65867">
        <ele>48</ele>
        <time>2022-05-24 13:11:15</time>
      </trkpt>
      <trkpt lat="41.04959" lon="0.65864">
        <ele>48</ele>
        <time>2022-05-24 13:11:16</time>
      </trkpt>
      <trkpt lat="41.04955" lon="0.65859">
        <ele>48</ele>
        <time>2022-05-24 13:11:17</time>
      </trkpt>
      <trkpt lat="41.04951" lon="0.65856">
        <ele>48.2</ele>
        <time>2022-05-24 13:11:18</time>
      </trkpt>
      <trkpt lat="41.04947" lon="0.65852">
        <ele>48.2</ele>
        <time>2022-05-24 13:11:19</time>
      </trkpt>
      <trkpt lat="41.04943" lon="0.65847">
        <ele>48.2</ele>
        <time>2022-05-24 13:11:20</time>
      </trkpt>
      <trkpt lat="41.04939" lon="0.65843">
        <ele>48.4</ele>
        <time>2022-05-24 13:11:21</time>
      </trkpt>
      <trkpt lat="41.04936" lon="0.65839">
        <ele>48.4</ele>
        <time>2022-05-24 13:11:22</time>
      </trkpt>
      <trkpt lat="41.04933" lon="0.65835">
        <ele>48.6</ele>
        <time>2022-05-24 13:11:23</time>
      </trkpt>
      <trkpt lat="41.04929" lon="0.65831">
        <ele>48.8</ele>
        <time>2022-05-24 13:11:24</time>
      </trkpt>
      <trkpt lat="41.04926" lon="0.65827">
        <ele>48.8</ele>
        <time>2022-05-24 13:11:25</time>
      </trkpt>
      <trkpt lat="41.04923" lon="0.65823">
        <ele>49</ele>
        <time>2022-05-24 13:11:26</time>
      </trkpt>
      <trkpt lat="41.04921" lon="0.65819">
        <ele>49</ele>
        <time>2022-05-24 13:11:27</time>
      </trkpt>
      <trkpt lat="41.04917" lon="0.65815">
        <ele>49.2</ele>
        <time>2022-05-24 13:11:28</time>
      </trkpt>
      <trkpt lat="41.04915" lon="0.65811">
        <ele>49.4</ele>
        <time>2022-05-24 13:11:29</time>
      </trkpt>
      <trkpt lat="41.04912" lon="0.65807">
        <ele>49.4</ele>
        <time>2022-05-24 13:11:30</time>
      </trkpt>
      <trkpt lat="41.0491" lon="0.65803">
        <ele>49.6</ele>
        <time>2022-05-24 13:11:31</time>
      </trkpt>
      <trkpt lat="41.04907" lon="0.658">
        <ele>49.8</ele>
        <time>2022-05-24 13:11:32</time>
      </trkpt>
      <trkpt lat="41.04904" lon="0.65796">
        <ele>50</ele>
        <time>2022-05-24 13:11:33</time>
      </trkpt>
      <trkpt lat="41.04901" lon="0.65792">
        <ele>50</ele>
        <time>2022-05-24 13:11:34</time>
      </trkpt>
      <trkpt lat="41.04899" lon="0.65788">
        <ele>50.2</ele>
        <time>2022-05-24 13:11:35</time>
      </trkpt>
      <trkpt lat="41.04896" lon="0.65783">
        <ele>50.4</ele>
        <time>2022-05-24 13:11:36</time>
      </trkpt>
      <trkpt lat="41.04894" lon="0.65779">
        <ele>50.6</ele>
        <time>2022-05-24 13:11:37</time>
      </trkpt>
      <trkpt lat="41.04891" lon="0.65775">
        <ele>50.8</ele>
        <time>2022-05-24 13:11:38</time>
      </trkpt>
      <trkpt lat="41.04889" lon="0.65771">
        <ele>51</ele>
        <time>2022-05-24 13:11:39</time>
      </trkpt>
      <trkpt lat="41.04886" lon="0.65766">
        <ele>51</ele>
        <time>2022-05-24 13:11:40</time>
      </trkpt>
      <trkpt lat="41.04884" lon="0.65762">
        <ele>51.2</ele>
        <time>2022-05-24 13:11:41</time>
      </trkpt>
      <trkpt lat="41.04881" lon="0.65757">
        <ele>51.4</ele>
        <time>2022-05-24 13:11:42</time>
      </trkpt>
      <trkpt lat="41.04879" lon="0.65753">
        <ele>51.4</ele>
        <time>2022-05-24 13:11:43</time>
      </trkpt>
      <trkpt lat="41.04876" lon="0.65748">
        <ele>51.6</ele>
        <time>2022-05-24 13:11:44</time>
      </trkpt>
      <trkpt lat="41.04873" lon="0.65744">
        <ele>51.8</ele>
        <time>2022-05-24 13:11:45</time>
      </trkpt>
      <trkpt lat="41.0487" lon="0.6574">
        <ele>52</ele>
        <time>2022-05-24 13:11:46</time>
      </trkpt>
      <trkpt lat="41.04868" lon="0.65736">
        <ele>52</ele>
        <time>2022-05-24 13:11:47</time>
      </trkpt>
      <trkpt lat="41.04865" lon="0.65732">
        <ele>52.2</ele>
        <time>2022-05-24 13:11:48</time>
      </trkpt>
      <trkpt lat="41.04863" lon="0.65729">
        <ele>52.4</ele>
        <time>2022-05-24 13:11:49</time>
      </trkpt>
      <trkpt lat="41.04861" lon="0.65725">
        <ele>52.4</ele>
        <time>2022-05-24 13:11:50</time>
      </trkpt>
      <trkpt lat="41.04859" lon="0.65721">
        <ele>52.6</ele>
        <time>2022-05-24 13:11:51</time>
      </trkpt>
      <trkpt lat="41.04856" lon="0.65717">
        <ele>52.8</ele>
        <time>2022-05-24 13:11:52</time>
      </trkpt>
      <trkpt lat="41.04854" lon="0.65713">
        <ele>52.8</ele>
        <time>2022-05-24 13:11:53</time>
      </trkpt>
      <trkpt lat="41.04852" lon="0.65709">
        <ele>53</ele>
        <time>2022-05-24 13:11:54</time>
      </trkpt>
      <trkpt lat="41.04849" lon="0.65705">
        <ele>53.2</ele>
        <time>2022-05-24 13:11:55</time>
      </trkpt>
      <trkpt lat="41.04847" lon="0.65701">
        <ele>53.2</ele>
        <time>2022-05-24 13:11:56</time>
      </trkpt>
      <trkpt lat="41.04845" lon="0.65698">
        <ele>53.4</ele>
        <time>2022-05-24 13:11:57</time>
      </trkpt>
      <trkpt lat="41.04842" lon="0.65694">
        <ele>53.6</ele>
        <time>2022-05-24 13:11:58</time>
      </trkpt>
      <trkpt lat="41.0484" lon="0.6569">
        <ele>53.6</ele>
        <time>2022-05-24 13:11:59</time>
      </trkpt>
      <trkpt lat="41.04838" lon="0.65686">
        <ele>53.8</ele>
        <time>2022-05-24 13:12:00</time>
      </trkpt>
      <trkpt lat="41.04836" lon="0.65683">
        <ele>53.8</ele>
        <time>2022-05-24 13:12:01</time>
      </trkpt>
      <trkpt lat="41.04833" lon="0.65679">
        <ele>54</ele>
        <time>2022-05-24 13:12:02</time>
      </trkpt>
      <trkpt lat="41.04831" lon="0.65675">
        <ele>54</ele>
        <time>2022-05-24 13:12:03</time>
      </trkpt>
      <trkpt lat="41.04829" lon="0.65672">
        <ele>54.2</ele>
        <time>2022-05-24 13:12:04</time>
      </trkpt>
      <trkpt lat="41.04827" lon="0.65668">
        <ele>54.2</ele>
        <time>2022-05-24 13:12:05</time>
      </trkpt>
      <trkpt lat="41.04824" lon="0.65665">
        <ele>54.4</ele>
        <time>2022-05-24 13:12:06</time>
      </trkpt>
      <trkpt lat="41.04822" lon="0.65661">
        <ele>54.6</ele>
        <time>2022-05-24 13:12:07</time>
      </trkpt>
      <trkpt lat="41.0482" lon="0.65657">
        <ele>54.6</ele>
        <time>2022-05-24 13:12:08</time>
      </trkpt>
      <trkpt lat="41.04818" lon="0.65653">
        <ele>54.8</ele>
        <time>2022-05-24 13:12:09</time>
      </trkpt>
      <trkpt lat="41.04816" lon="0.6565">
        <ele>55</ele>
        <time>2022-05-24 13:12:10</time>
      </trkpt>
      <trkpt lat="41.04813" lon="0.65646">
        <ele>55</ele>
        <time>2022-05-24 13:12:11</time>
      </trkpt>
      <trkpt lat="41.04811" lon="0.65642">
        <ele>55.2</ele>
        <time>2022-05-24 13:12:12</time>
      </trkpt>
      <trkpt lat="41.04809" lon="0.65638">
        <ele>55.4</ele>
        <time>2022-05-24 13:12:13</time>
      </trkpt>
      <trkpt lat="41.04807" lon="0.65634">
        <ele>55.4</ele>
        <time>2022-05-24 13:12:14</time>
      </trkpt>
      <trkpt lat="41.04805" lon="0.65631">
        <ele>55.6</ele>
        <time>2022-05-24 13:12:15</time>
      </trkpt>
      <trkpt lat="41.04803" lon="0.65627">
        <ele>55.6</ele>
        <time>2022-05-24 13:12:16</time>
      </trkpt>
      <trkpt lat="41.048" lon="0.65623">
        <ele>55.8</ele>
        <time>2022-05-24 13:12:17</time>
      </trkpt>
      <trkpt lat="41.04799" lon="0.65619">
        <ele>56</ele>
        <time>2022-05-24 13:12:18</time>
      </trkpt>
      <trkpt lat="41.04797" lon="0.65615">
        <ele>56.2</ele>
        <time>2022-05-24 13:12:19</time>
      </trkpt>
      <trkpt lat="41.04795" lon="0.6561">
        <ele>56.2</ele>
        <time>2022-05-24 13:12:20</time>
      </trkpt>
      <trkpt lat="41.04793" lon="0.65607">
        <ele>56.4</ele>
        <time>2022-05-24 13:12:21</time>
      </trkpt>
      <trkpt lat="41.04791" lon="0.65602">
        <ele>56.6</ele>
        <time>2022-05-24 13:12:22</time>
      </trkpt>
      <trkpt lat="41.04789" lon="0.65599">
        <ele>56.6</ele>
        <time>2022-05-24 13:12:23</time>
      </trkpt>
      <trkpt lat="41.04788" lon="0.65595">
        <ele>56.8</ele>
        <time>2022-05-24 13:12:24</time>
      </trkpt>
      <trkpt lat="41.04786" lon="0.65591">
        <ele>56.8</ele>
        <time>2022-05-24 13:12:25</time>
      </trkpt>
      <trkpt lat="41.04784" lon="0.65587">
        <ele>57</ele>
        <time>2022-05-24 13:12:26</time>
      </trkpt>
      <trkpt lat="41.04783" lon="0.65583">
        <ele>57</ele>
        <time>2022-05-24 13:12:27</time>
      </trkpt>
      <trkpt lat="41.04782" lon="0.65579">
        <ele>57.2</ele>
        <time>2022-05-24 13:12:28</time>
      </trkpt>
      <trkpt lat="41.0478" lon="0.65576">
        <ele>57.4</ele>
        <time>2022-05-24 13:12:29</time>
      </trkpt>
      <trkpt lat="41.04779" lon="0.65572">
        <ele>57.4</ele>
        <time>2022-05-24 13:12:30</time>
      </trkpt>
      <trkpt lat="41.04778" lon="0.65568">
        <ele>57.6</ele>
        <time>2022-05-24 13:12:31</time>
      </trkpt>
      <trkpt lat="41.04776" lon="0.65564">
        <ele>57.8</ele>
        <time>2022-05-24 13:12:32</time>
      </trkpt>
      <trkpt lat="41.04775" lon="0.6556">
        <ele>58</ele>
        <time>2022-05-24 13:12:33</time>
      </trkpt>
      <trkpt lat="41.04774" lon="0.65556">
        <ele>58</ele>
        <time>2022-05-24 13:12:34</time>
      </trkpt>
      <trkpt lat="41.04773" lon="0.65552">
        <ele>58.2</ele>
        <time>2022-05-24 13:12:35</time>
      </trkpt>
      <trkpt lat="41.04771" lon="0.65548">
        <ele>58.4</ele>
        <time>2022-05-24 13:12:36</time>
      </trkpt>
      <trkpt lat="41.04771" lon="0.65545">
        <ele>58.4</ele>
        <time>2022-05-24 13:12:37</time>
      </trkpt>
      <trkpt lat="41.0477" lon="0.65541">
        <ele>58.6</ele>
        <time>2022-05-24 13:12:38</time>
      </trkpt>
      <trkpt lat="41.04768" lon="0.65537">
        <ele>58.6</ele>
        <time>2022-05-24 13:12:39</time>
      </trkpt>
      <trkpt lat="41.04768" lon="0.65533">
        <ele>58.8</ele>
        <time>2022-05-24 13:12:40</time>
      </trkpt>
      <trkpt lat="41.04767" lon="0.65529">
        <ele>59</ele>
        <time>2022-05-24 13:12:41</time>
      </trkpt>
      <trkpt lat="41.04766" lon="0.65525">
        <ele>59</ele>
        <time>2022-05-24 13:12:42</time>
      </trkpt>
      <trkpt lat="41.04765" lon="0.6552">
        <ele>59.2</ele>
        <time>2022-05-24 13:12:43</time>
      </trkpt>
      <trkpt lat="41.04765" lon="0.65515">
        <ele>59.4</ele>
        <time>2022-05-24 13:12:44</time>
      </trkpt>
      <trkpt lat="41.04764" lon="0.65511">
        <ele>59.6</ele>
        <time>2022-05-24 13:12:45</time>
      </trkpt>
      <trkpt lat="41.04763" lon="0.65506">
        <ele>59.8</ele>
        <time>2022-05-24 13:12:46</time>
      </trkpt>
      <trkpt lat="41.04762" lon="0.65503">
        <ele>59.8</ele>
        <time>2022-05-24 13:12:47</time>
      </trkpt>
      <trkpt lat="41.04762" lon="0.65499">
        <ele>60</ele>
        <time>2022-05-24 13:12:48</time>
      </trkpt>
      <trkpt lat="41.04762" lon="0.65494">
        <ele>60.2</ele>
        <time>2022-05-24 13:12:49</time>
      </trkpt>
      <trkpt lat="41.04761" lon="0.6549">
        <ele>60.2</ele>
        <time>2022-05-24 13:12:50</time>
      </trkpt>
      <trkpt lat="41.04761" lon="0.65486">
        <ele>60.4</ele>
        <time>2022-05-24 13:12:51</time>
      </trkpt>
      <trkpt lat="41.0476" lon="0.65482">
        <ele>60.4</ele>
        <time>2022-05-24 13:12:52</time>
      </trkpt>
      <trkpt lat="41.0476" lon="0.65478">
        <ele>60.6</ele>
        <time>2022-05-24 13:12:53</time>
      </trkpt>
      <trkpt lat="41.0476" lon="0.65475">
        <ele>60.8</ele>
        <time>2022-05-24 13:12:54</time>
      </trkpt>
      <trkpt lat="41.0476" lon="0.65471">
        <ele>61</ele>
        <time>2022-05-24 13:12:55</time>
      </trkpt>
      <trkpt lat="41.04759" lon="0.65468">
        <ele>61.2</ele>
        <time>2022-05-24 13:12:56</time>
      </trkpt>
      <trkpt lat="41.04759" lon="0.65464">
        <ele>61.4</ele>
        <time>2022-05-24 13:12:57</time>
      </trkpt>
      <trkpt lat="41.04759" lon="0.6546">
        <ele>61.6</ele>
        <time>2022-05-24 13:12:58</time>
      </trkpt>
      <trkpt lat="41.04759" lon="0.65456">
        <ele>61.8</ele>
        <time>2022-05-24 13:12:59</time>
      </trkpt>
      <trkpt lat="41.04759" lon="0.65452">
        <ele>61.8</ele>
        <time>2022-05-24 13:13:00</time>
      </trkpt>
      <trkpt lat="41.04759" lon="0.65448">
        <ele>62</ele>
        <time>2022-05-24 13:13:01</time>
      </trkpt>
      <trkpt lat="41.04759" lon="0.65444">
        <ele>62.2</ele>
        <time>2022-05-24 13:13:02</time>
      </trkpt>
      <trkpt lat="41.04759" lon="0.65441">
        <ele>62.2</ele>
        <time>2022-05-24 13:13:03</time>
      </trkpt>
      <trkpt lat="41.04759" lon="0.65437">
        <ele>62.4</ele>
        <time>2022-05-24 13:13:04</time>
      </trkpt>
      <trkpt lat="41.04759" lon="0.65433">
        <ele>62.6</ele>
        <time>2022-05-24 13:13:05</time>
      </trkpt>
      <trkpt lat="41.0476" lon="0.65429">
        <ele>62.8</ele>
        <time>2022-05-24 13:13:06</time>
      </trkpt>
      <trkpt lat="41.0476" lon="0.65425">
        <ele>63</ele>
        <time>2022-05-24 13:13:07</time>
      </trkpt>
      <trkpt lat="41.0476" lon="0.65421">
        <ele>63</ele>
        <time>2022-05-24 13:13:08</time>
      </trkpt>
      <trkpt lat="41.04761" lon="0.65417">
        <ele>63.2</ele>
        <time>2022-05-24 13:13:09</time>
      </trkpt>
      <trkpt lat="41.04761" lon="0.65413">
        <ele>63.4</ele>
        <time>2022-05-24 13:13:10</time>
      </trkpt>
      <trkpt lat="41.04761" lon="0.65409">
        <ele>63.6</ele>
        <time>2022-05-24 13:13:11</time>
      </trkpt>
      <trkpt lat="41.04762" lon="0.65405">
        <ele>63.8</ele>
        <time>2022-05-24 13:13:12</time>
      </trkpt>
      <trkpt lat="41.04762" lon="0.65401">
        <ele>64</ele>
        <time>2022-05-24 13:13:13</time>
      </trkpt>
      <trkpt lat="41.04762" lon="0.65397">
        <ele>64.2</ele>
        <time>2022-05-24 13:13:14</time>
      </trkpt>
      <trkpt lat="41.04763" lon="0.65393">
        <ele>64.2</ele>
        <time>2022-05-24 13:13:15</time>
      </trkpt>
      <trkpt lat="41.04763" lon="0.65389">
        <ele>64.4</ele>
        <time>2022-05-24 13:13:16</time>
      </trkpt>
      <trkpt lat="41.04764" lon="0.65385">
        <ele>64.6</ele>
        <time>2022-05-24 13:13:17</time>
      </trkpt>
      <trkpt lat="41.04764" lon="0.65381">
        <ele>65</ele>
        <time>2022-05-24 13:13:18</time>
      </trkpt>
      <trkpt lat="41.04765" lon="0.65377">
        <ele>65.2</ele>
        <time>2022-05-24 13:13:19</time>
      </trkpt>
      <trkpt lat="41.04765" lon="0.65373">
        <ele>65.4</ele>
        <time>2022-05-24 13:13:20</time>
      </trkpt>
      <trkpt lat="41.04766" lon="0.65369">
        <ele>65.6</ele>
        <time>2022-05-24 13:13:21</time>
      </trkpt>
      <trkpt lat="41.04766" lon="0.65365">
        <ele>65.8</ele>
        <time>2022-05-24 13:13:22</time>
      </trkpt>
      <trkpt lat="41.04766" lon="0.65362">
        <ele>65.8</ele>
        <time>2022-05-24 13:13:23</time>
      </trkpt>
      <trkpt lat="41.04767" lon="0.65358">
        <ele>66</ele>
        <time>2022-05-24 13:13:24</time>
      </trkpt>
      <trkpt lat="41.04767" lon="0.65353">
        <ele>66.2</ele>
        <time>2022-05-24 13:13:25</time>
      </trkpt>
      <trkpt lat="41.04767" lon="0.65349">
        <ele>66.4</ele>
        <time>2022-05-24 13:13:26</time>
      </trkpt>
      <trkpt lat="41.04768" lon="0.65345">
        <ele>66.6</ele>
        <time>2022-05-24 13:13:27</time>
      </trkpt>
      <trkpt lat="41.04768" lon="0.65341">
        <ele>66.8</ele>
        <time>2022-05-24 13:13:28</time>
      </trkpt>
      <trkpt lat="41.04768" lon="0.65336">
        <ele>66.8</ele>
        <time>2022-05-24 13:13:29</time>
      </trkpt>
      <trkpt lat="41.04769" lon="0.65332">
        <ele>67</ele>
        <time>2022-05-24 13:13:30</time>
      </trkpt>
      <trkpt lat="41.04769" lon="0.65328">
        <ele>67.2</ele>
        <time>2022-05-24 13:13:31</time>
      </trkpt>
      <trkpt lat="41.0477" lon="0.65324">
        <ele>67.2</ele>
        <time>2022-05-24 13:13:32</time>
      </trkpt>
      <trkpt lat="41.0477" lon="0.6532">
        <ele>67.4</ele>
        <time>2022-05-24 13:13:33</time>
      </trkpt>
      <trkpt lat="41.0477" lon="0.65316">
        <ele>67.6</ele>
        <time>2022-05-24 13:13:34</time>
      </trkpt>
      <trkpt lat="41.0477" lon="0.65311">
        <ele>67.6</ele>
        <time>2022-05-24 13:13:35</time>
      </trkpt>
      <trkpt lat="41.0477" lon="0.65307">
        <ele>67.8</ele>
        <time>2022-05-24 13:13:36</time>
      </trkpt>
      <trkpt lat="41.04771" lon="0.65302">
        <ele>67.8</ele>
        <time>2022-05-24 13:13:37</time>
      </trkpt>
      <trkpt lat="41.04771" lon="0.65298">
        <ele>68</ele>
        <time>2022-05-24 13:13:38</time>
      </trkpt>
      <trkpt lat="41.04771" lon="0.65294">
        <ele>68</ele>
        <time>2022-05-24 13:13:39</time>
      </trkpt>
      <trkpt lat="41.04771" lon="0.65289">
        <ele>68.2</ele>
        <time>2022-05-24 13:13:40</time>
      </trkpt>
      <trkpt lat="41.04771" lon="0.65285">
        <ele>68.2</ele>
        <time>2022-05-24 13:13:41</time>
      </trkpt>
      <trkpt lat="41.04771" lon="0.65281">
        <ele>68.4</ele>
        <time>2022-05-24 13:13:42</time>
      </trkpt>
      <trkpt lat="41.04772" lon="0.65276">
        <ele>68.4</ele>
        <time>2022-05-24 13:13:43</time>
      </trkpt>
      <trkpt lat="41.04772" lon="0.65272">
        <ele>68.6</ele>
        <time>2022-05-24 13:13:44</time>
      </trkpt>
      <trkpt lat="41.04772" lon="0.65267">
        <ele>68.6</ele>
        <time>2022-05-24 13:13:45</time>
      </trkpt>
      <trkpt lat="41.04772" lon="0.65263">
        <ele>68.8</ele>
        <time>2022-05-24 13:13:46</time>
      </trkpt>
      <trkpt lat="41.04772" lon="0.65258">
        <ele>68.8</ele>
        <time>2022-05-24 13:13:47</time>
      </trkpt>
      <trkpt lat="41.04772" lon="0.65253">
        <ele>68.8</ele>
        <time>2022-05-24 13:13:48</time>
      </trkpt>
      <trkpt lat="41.04772" lon="0.65248">
        <ele>68.8</ele>
        <time>2022-05-24 13:13:49</time>
      </trkpt>
      <trkpt lat="41.04772" lon="0.65243">
        <ele>68.8</ele>
        <time>2022-05-24 13:13:50</time>
      </trkpt>
      <trkpt lat="41.04772" lon="0.65238">
        <ele>68.8</ele>
        <time>2022-05-24 13:13:51</time>
      </trkpt>
      <trkpt lat="41.04771" lon="0.65232">
        <ele>69</ele>
        <time>2022-05-24 13:13:52</time>
      </trkpt>
      <trkpt lat="41.04771" lon="0.65227">
        <ele>69</ele>
        <time>2022-05-24 13:13:53</time>
      </trkpt>
      <trkpt lat="41.04771" lon="0.65221">
        <ele>69</ele>
        <time>2022-05-24 13:13:54</time>
      </trkpt>
      <trkpt lat="41.0477" lon="0.65215">
        <ele>69.2</ele>
        <time>2022-05-24 13:13:55</time>
      </trkpt>
      <trkpt lat="41.0477" lon="0.65208">
        <ele>69.2</ele>
        <time>2022-05-24 13:13:56</time>
      </trkpt>
      <trkpt lat="41.04769" lon="0.65202">
        <ele>69</ele>
        <time>2022-05-24 13:13:57</time>
      </trkpt>
      <trkpt lat="41.04768" lon="0.65195">
        <ele>69</ele>
        <time>2022-05-24 13:13:58</time>
      </trkpt>
      <trkpt lat="41.04767" lon="0.65189">
        <ele>69</ele>
        <time>2022-05-24 13:13:59</time>
      </trkpt>
      <trkpt lat="41.04765" lon="0.65181">
        <ele>68.8</ele>
        <time>2022-05-24 13:14:00</time>
      </trkpt>
      <trkpt lat="41.04764" lon="0.65174">
        <ele>68.8</ele>
        <time>2022-05-24 13:14:01</time>
      </trkpt>
      <trkpt lat="41.04763" lon="0.65165">
        <ele>68.6</ele>
        <time>2022-05-24 13:14:02</time>
      </trkpt>
      <trkpt lat="41.04762" lon="0.65158">
        <ele>68.4</ele>
        <time>2022-05-24 13:14:03</time>
      </trkpt>
      <trkpt lat="41.0476" lon="0.6515">
        <ele>68.2</ele>
        <time>2022-05-24 13:14:04</time>
      </trkpt>
      <trkpt lat="41.04758" lon="0.65142">
        <ele>68</ele>
        <time>2022-05-24 13:14:05</time>
      </trkpt>
      <trkpt lat="41.04757" lon="0.65134">
        <ele>67.8</ele>
        <time>2022-05-24 13:14:06</time>
      </trkpt>
      <trkpt lat="41.04755" lon="0.65126">
        <ele>67.6</ele>
        <time>2022-05-24 13:14:07</time>
      </trkpt>
      <trkpt lat="41.04753" lon="0.65117">
        <ele>67.4</ele>
        <time>2022-05-24 13:14:08</time>
      </trkpt>
      <trkpt lat="41.04751" lon="0.65109">
        <ele>67</ele>
        <time>2022-05-24 13:14:09</time>
      </trkpt>
      <trkpt lat="41.04749" lon="0.65099">
        <ele>66.6</ele>
        <time>2022-05-24 13:14:10</time>
      </trkpt>
      <trkpt lat="41.04747" lon="0.6509">
        <ele>66.4</ele>
        <time>2022-05-24 13:14:11</time>
      </trkpt>
      <trkpt lat="41.04744" lon="0.6508">
        <ele>66</ele>
        <time>2022-05-24 13:14:12</time>
      </trkpt>
      <trkpt lat="41.04742" lon="0.65071">
        <ele>65.6</ele>
        <time>2022-05-24 13:14:13</time>
      </trkpt>
      <trkpt lat="41.0474" lon="0.6506">
        <ele>65.2</ele>
        <time>2022-05-24 13:14:14</time>
      </trkpt>
      <trkpt lat="41.04738" lon="0.65052">
        <ele>64.8</ele>
        <time>2022-05-24 13:14:15</time>
      </trkpt>
      <trkpt lat="41.04735" lon="0.65039">
        <ele>64.4</ele>
        <time>2022-05-24 13:14:16</time>
      </trkpt>
      <trkpt lat="41.04733" lon="0.65028">
        <ele>64</ele>
        <time>2022-05-24 13:14:17</time>
      </trkpt>
      <trkpt lat="41.04731" lon="0.65017">
        <ele>63.6</ele>
        <time>2022-05-24 13:14:18</time>
      </trkpt>
      <trkpt lat="41.04728" lon="0.65006">
        <ele>63.2</ele>
        <time>2022-05-24 13:14:19</time>
      </trkpt>
      <trkpt lat="41.04726" lon="0.64994">
        <ele>62.8</ele>
        <time>2022-05-24 13:14:20</time>
      </trkpt>
      <trkpt lat="41.04723" lon="0.64984">
        <ele>62.4</ele>
        <time>2022-05-24 13:14:21</time>
      </trkpt>
      <trkpt lat="41.0472" lon="0.64972">
        <ele>62.2</ele>
        <time>2022-05-24 13:14:22</time>
      </trkpt>
      <trkpt lat="41.04717" lon="0.64959">
        <ele>61.6</ele>
        <time>2022-05-24 13:14:23</time>
      </trkpt>
      <trkpt lat="41.04715" lon="0.64946">
        <ele>61.2</ele>
        <time>2022-05-24 13:14:24</time>
      </trkpt>
      <trkpt lat="41.04711" lon="0.64933">
        <ele>60.8</ele>
        <time>2022-05-24 13:14:25</time>
      </trkpt>
      <trkpt lat="41.04709" lon="0.64922">
        <ele>60.4</ele>
        <time>2022-05-24 13:14:26</time>
      </trkpt>
      <trkpt lat="41.04707" lon="0.64909">
        <ele>60</ele>
        <time>2022-05-24 13:14:27</time>
      </trkpt>
      <trkpt lat="41.04703" lon="0.64897">
        <ele>59.6</ele>
        <time>2022-05-24 13:14:28</time>
      </trkpt>
      <trkpt lat="41.047" lon="0.64886">
        <ele>59.2</ele>
        <time>2022-05-24 13:14:29</time>
      </trkpt>
      <trkpt lat="41.04697" lon="0.64873">
        <ele>59</ele>
        <time>2022-05-24 13:14:30</time>
      </trkpt>
      <trkpt lat="41.04695" lon="0.64862">
        <ele>58.6</ele>
        <time>2022-05-24 13:14:31</time>
      </trkpt>
      <trkpt lat="41.04691" lon="0.64848">
        <ele>58.2</ele>
        <time>2022-05-24 13:14:32</time>
      </trkpt>
      <trkpt lat="41.04689" lon="0.64837">
        <ele>57.8</ele>
        <time>2022-05-24 13:14:33</time>
      </trkpt>
      <trkpt lat="41.04687" lon="0.64824">
        <ele>57.4</ele>
        <time>2022-05-24 13:14:34</time>
      </trkpt>
      <trkpt lat="41.04684" lon="0.64814">
        <ele>57.2</ele>
        <time>2022-05-24 13:14:35</time>
      </trkpt>
      <trkpt lat="41.0468" lon="0.64799">
        <ele>56.6</ele>
        <time>2022-05-24 13:14:36</time>
      </trkpt>
      <trkpt lat="41.04677" lon="0.64786">
        <ele>56</ele>
        <time>2022-05-24 13:14:37</time>
      </trkpt>
      <trkpt lat="41.04674" lon="0.64774">
        <ele>55.6</ele>
        <time>2022-05-24 13:14:38</time>
      </trkpt>
      <trkpt lat="41.0467" lon="0.64761">
        <ele>55.2</ele>
        <time>2022-05-24 13:14:39</time>
      </trkpt>
      <trkpt lat="41.04667" lon="0.64749">
        <ele>54.8</ele>
        <time>2022-05-24 13:14:40</time>
      </trkpt>
      <trkpt lat="41.04663" lon="0.64734">
        <ele>54.4</ele>
        <time>2022-05-24 13:14:41</time>
      </trkpt>
      <trkpt lat="41.04659" lon="0.64722">
        <ele>54</ele>
        <time>2022-05-24 13:14:42</time>
      </trkpt>
      <trkpt lat="41.04654" lon="0.64711">
        <ele>53.6</ele>
        <time>2022-05-24 13:14:43</time>
      </trkpt>
      <trkpt lat="41.0465" lon="0.64698">
        <ele>53.2</ele>
        <time>2022-05-24 13:14:44</time>
      </trkpt>
      <trkpt lat="41.04645" lon="0.64685">
        <ele>52.8</ele>
        <time>2022-05-24 13:14:45</time>
      </trkpt>
      <trkpt lat="41.0464" lon="0.64673">
        <ele>52.6</ele>
        <time>2022-05-24 13:14:46</time>
      </trkpt>
      <trkpt lat="41.04636" lon="0.64663">
        <ele>52.2</ele>
        <time>2022-05-24 13:14:47</time>
      </trkpt>
      <trkpt lat="41.0463" lon="0.6465">
        <ele>52</ele>
        <time>2022-05-24 13:14:48</time>
      </trkpt>
      <trkpt lat="41.04625" lon="0.64639">
        <ele>51.6</ele>
        <time>2022-05-24 13:14:49</time>
      </trkpt>
      <trkpt lat="41.0462" lon="0.64627">
        <ele>51.4</ele>
        <time>2022-05-24 13:14:50</time>
      </trkpt>
      <trkpt lat="41.04616" lon="0.64617">
        <ele>51.2</ele>
        <time>2022-05-24 13:14:51</time>
      </trkpt>
      <trkpt lat="41.04611" lon="0.64605">
        <ele>51</ele>
        <time>2022-05-24 13:14:52</time>
      </trkpt>
      <trkpt lat="41.04608" lon="0.64595">
        <ele>50.8</ele>
        <time>2022-05-24 13:14:53</time>
      </trkpt>
      <trkpt lat="41.04604" lon="0.64583">
        <ele>50.6</ele>
        <time>2022-05-24 13:14:54</time>
      </trkpt>
      <trkpt lat="41.046" lon="0.64573">
        <ele>50.4</ele>
        <time>2022-05-24 13:14:55</time>
      </trkpt>
      <trkpt lat="41.04596" lon="0.64561">
        <ele>50.2</ele>
        <time>2022-05-24 13:14:56</time>
      </trkpt>
      <trkpt lat="41.04592" lon="0.6455">
        <ele>50</ele>
        <time>2022-05-24 13:14:57</time>
      </trkpt>
      <trkpt lat="41.04587" lon="0.6454">
        <ele>49.8</ele>
        <time>2022-05-24 13:14:58</time>
      </trkpt>
      <trkpt lat="41.04583" lon="0.6453">
        <ele>49.8</ele>
        <time>2022-05-24 13:14:59</time>
      </trkpt>
      <trkpt lat="41.04578" lon="0.64519">
        <ele>49.6</ele>
        <time>2022-05-24 13:15:00</time>
      </trkpt>
      <trkpt lat="41.04575" lon="0.64509">
        <ele>49.4</ele>
        <time>2022-05-24 13:15:01</time>
      </trkpt>
      <trkpt lat="41.04571" lon="0.64498">
        <ele>49.2</ele>
        <time>2022-05-24 13:15:02</time>
      </trkpt>
      <trkpt lat="41.04568" lon="0.64489">
        <ele>49.2</ele>
        <time>2022-05-24 13:15:03</time>
      </trkpt>
      <trkpt lat="41.04564" lon="0.64477">
        <ele>49</ele>
        <time>2022-05-24 13:15:04</time>
      </trkpt>
      <trkpt lat="41.04561" lon="0.64468">
        <ele>48.8</ele>
        <time>2022-05-24 13:15:05</time>
      </trkpt>
      <trkpt lat="41.04557" lon="0.64456">
        <ele>48.6</ele>
        <time>2022-05-24 13:15:06</time>
      </trkpt>
      <trkpt lat="41.04554" lon="0.64447">
        <ele>48.4</ele>
        <time>2022-05-24 13:15:07</time>
      </trkpt>
      <trkpt lat="41.0455" lon="0.64435">
        <ele>48.4</ele>
        <time>2022-05-24 13:15:08</time>
      </trkpt>
      <trkpt lat="41.04547" lon="0.64425">
        <ele>48.2</ele>
        <time>2022-05-24 13:15:09</time>
      </trkpt>
      <trkpt lat="41.04544" lon="0.64415">
        <ele>47.8</ele>
        <time>2022-05-24 13:15:10</time>
      </trkpt>
      <trkpt lat="41.04541" lon="0.64406">
        <ele>47.8</ele>
        <time>2022-05-24 13:15:11</time>
      </trkpt>
      <trkpt lat="41.04538" lon="0.64396">
        <ele>47.4</ele>
        <time>2022-05-24 13:15:12</time>
      </trkpt>
      <trkpt lat="41.04535" lon="0.64388">
        <ele>47.4</ele>
        <time>2022-05-24 13:15:13</time>
      </trkpt>
      <trkpt lat="41.04531" lon="0.64376">
        <ele>47.2</ele>
        <time>2022-05-24 13:15:14</time>
      </trkpt>
      <trkpt lat="41.04528" lon="0.64368">
        <ele>47.2</ele>
        <time>2022-05-24 13:15:15</time>
      </trkpt>
      <trkpt lat="41.04525" lon="0.64358">
        <ele>47</ele>
        <time>2022-05-24 13:15:16</time>
      </trkpt>
      <trkpt lat="41.04523" lon="0.64349">
        <ele>47</ele>
        <time>2022-05-24 13:15:17</time>
      </trkpt>
      <trkpt lat="41.04519" lon="0.64339">
        <ele>46.8</ele>
        <time>2022-05-24 13:15:18</time>
      </trkpt>
      <trkpt lat="41.04516" lon="0.64329">
        <ele>46.8</ele>
        <time>2022-05-24 13:15:19</time>
      </trkpt>
      <trkpt lat="41.04514" lon="0.6432">
        <ele>46.8</ele>
        <time>2022-05-24 13:15:20</time>
      </trkpt>
      <trkpt lat="41.04511" lon="0.64311">
        <ele>46.6</ele>
        <time>2022-05-24 13:15:21</time>
      </trkpt>
      <trkpt lat="41.04508" lon="0.64302">
        <ele>46.4</ele>
        <time>2022-05-24 13:15:22</time>
      </trkpt>
      <trkpt lat="41.04506" lon="0.64294">
        <ele>46.4</ele>
        <time>2022-05-24 13:15:23</time>
      </trkpt>
      <trkpt lat="41.04502" lon="0.64283">
        <ele>46.2</ele>
        <time>2022-05-24 13:15:24</time>
      </trkpt>
      <trkpt lat="41.04499" lon="0.64275">
        <ele>46</ele>
        <time>2022-05-24 13:15:25</time>
      </trkpt>
      <trkpt lat="41.04496" lon="0.64265">
        <ele>46</ele>
        <time>2022-05-24 13:15:26</time>
      </trkpt>
      <trkpt lat="41.04493" lon="0.64257">
        <ele>45.8</ele>
        <time>2022-05-24 13:15:27</time>
      </trkpt>
      <trkpt lat="41.0449" lon="0.64248">
        <ele>45.8</ele>
        <time>2022-05-24 13:15:28</time>
      </trkpt>
      <trkpt lat="41.04487" lon="0.6424">
        <ele>45.6</ele>
        <time>2022-05-24 13:15:29</time>
      </trkpt>
      <trkpt lat="41.04483" lon="0.64231">
        <ele>45.6</ele>
        <time>2022-05-24 13:15:30</time>
      </trkpt>
      <trkpt lat="41.0448" lon="0.64223">
        <ele>45.4</ele>
        <time>2022-05-24 13:15:31</time>
      </trkpt>
      <trkpt lat="41.04476" lon="0.64214">
        <ele>45.4</ele>
        <time>2022-05-24 13:15:32</time>
      </trkpt>
      <trkpt lat="41.04472" lon="0.64206">
        <ele>45.4</ele>
        <time>2022-05-24 13:15:33</time>
      </trkpt>
      <trkpt lat="41.04469" lon="0.64199">
        <ele>45.4</ele>
        <time>2022-05-24 13:15:34</time>
      </trkpt>
      <trkpt lat="41.04464" lon="0.64189">
        <ele>45.2</ele>
        <time>2022-05-24 13:15:35</time>
      </trkpt>
      <trkpt lat="41.04459" lon="0.64182">
        <ele>45</ele>
        <time>2022-05-24 13:15:36</time>
      </trkpt>
      <trkpt lat="41.04454" lon="0.64174">
        <ele>45</ele>
        <time>2022-05-24 13:15:37</time>
      </trkpt>
      <trkpt lat="41.0445" lon="0.64168">
        <ele>45</ele>
        <time>2022-05-24 13:15:38</time>
      </trkpt>
      <trkpt lat="41.04444" lon="0.6416">
        <ele>44.8</ele>
        <time>2022-05-24 13:15:39</time>
      </trkpt>
      <trkpt lat="41.0444" lon="0.64154">
        <ele>44.8</ele>
        <time>2022-05-24 13:15:40</time>
      </trkpt>
      <trkpt lat="41.04434" lon="0.64147">
        <ele>44.8</ele>
        <time>2022-05-24 13:15:41</time>
      </trkpt>
      <trkpt lat="41.04429" lon="0.64141">
        <ele>44.6</ele>
        <time>2022-05-24 13:15:42</time>
      </trkpt>
      <trkpt lat="41.04424" lon="0.64135">
        <ele>44.4</ele>
        <time>2022-05-24 13:15:43</time>
      </trkpt>
      <trkpt lat="41.04418" lon="0.64129">
        <ele>44.4</ele>
        <time>2022-05-24 13:15:44</time>
      </trkpt>
      <trkpt lat="41.04413" lon="0.64124">
        <ele>44.2</ele>
        <time>2022-05-24 13:15:45</time>
      </trkpt>
      <trkpt lat="41.04407" lon="0.64119">
        <ele>44.2</ele>
        <time>2022-05-24 13:15:46</time>
      </trkpt>
      <trkpt lat="41.04401" lon="0.64114">
        <ele>44</ele>
        <time>2022-05-24 13:15:47</time>
      </trkpt>
      <trkpt lat="41.04395" lon="0.64109">
        <ele>44</ele>
        <time>2022-05-24 13:15:48</time>
      </trkpt>
      <trkpt lat="41.04388" lon="0.64104">
        <ele>44.2</ele>
        <time>2022-05-24 13:15:49</time>
      </trkpt>
      <trkpt lat="41.04383" lon="0.641">
        <ele>44.2</ele>
        <time>2022-05-24 13:15:50</time>
      </trkpt>
      <trkpt lat="41.04376" lon="0.64096">
        <ele>44.2</ele>
        <time>2022-05-24 13:15:51</time>
      </trkpt>
      <trkpt lat="41.0437" lon="0.64092">
        <ele>44.4</ele>
        <time>2022-05-24 13:15:52</time>
      </trkpt>
      <trkpt lat="41.04364" lon="0.64087">
        <ele>44.4</ele>
        <time>2022-05-24 13:15:53</time>
      </trkpt>
      <trkpt lat="41.04358" lon="0.64084">
        <ele>44.6</ele>
        <time>2022-05-24 13:15:54</time>
      </trkpt>
      <trkpt lat="41.04352" lon="0.64081">
        <ele>44.8</ele>
        <time>2022-05-24 13:15:55</time>
      </trkpt>
      <trkpt lat="41.04347" lon="0.64078">
        <ele>45</ele>
        <time>2022-05-24 13:15:56</time>
      </trkpt>
      <trkpt lat="41.04341" lon="0.64076">
        <ele>45</ele>
        <time>2022-05-24 13:15:57</time>
      </trkpt>
      <trkpt lat="41.04335" lon="0.64074">
        <ele>45.2</ele>
        <time>2022-05-24 13:15:58</time>
      </trkpt>
      <trkpt lat="41.0433" lon="0.64072">
        <ele>45.2</ele>
        <time>2022-05-24 13:15:59</time>
      </trkpt>
      <trkpt lat="41.04324" lon="0.6407">
        <ele>45.4</ele>
        <time>2022-05-24 13:16:00</time>
      </trkpt>
      <trkpt lat="41.04319" lon="0.64068">
        <ele>45.6</ele>
        <time>2022-05-24 13:16:01</time>
      </trkpt>
      <trkpt lat="41.04314" lon="0.64066">
        <ele>45.6</ele>
        <time>2022-05-24 13:16:02</time>
      </trkpt>
      <trkpt lat="41.04309" lon="0.64064">
        <ele>45.8</ele>
        <time>2022-05-24 13:16:03</time>
      </trkpt>
      <trkpt lat="41.04304" lon="0.64062">
        <ele>45.8</ele>
        <time>2022-05-24 13:16:04</time>
      </trkpt>
      <trkpt lat="41.04299" lon="0.6406">
        <ele>46</ele>
        <time>2022-05-24 13:16:05</time>
      </trkpt>
      <trkpt lat="41.04294" lon="0.64059">
        <ele>46</ele>
        <time>2022-05-24 13:16:06</time>
      </trkpt>
      <trkpt lat="41.04289" lon="0.64057">
        <ele>46.2</ele>
        <time>2022-05-24 13:16:07</time>
      </trkpt>
      <trkpt lat="41.04284" lon="0.64055">
        <ele>46.2</ele>
        <time>2022-05-24 13:16:08</time>
      </trkpt>
      <trkpt lat="41.04279" lon="0.64054">
        <ele>46.2</ele>
        <time>2022-05-24 13:16:09</time>
      </trkpt>
      <trkpt lat="41.04274" lon="0.64052">
        <ele>46.4</ele>
        <time>2022-05-24 13:16:10</time>
      </trkpt>
      <trkpt lat="41.04269" lon="0.64051">
        <ele>46.4</ele>
        <time>2022-05-24 13:16:11</time>
      </trkpt>
      <trkpt lat="41.04264" lon="0.64049">
        <ele>46.6</ele>
        <time>2022-05-24 13:16:12</time>
      </trkpt>
      <trkpt lat="41.04259" lon="0.64048">
        <ele>46.6</ele>
        <time>2022-05-24 13:16:13</time>
      </trkpt>
      <trkpt lat="41.04254" lon="0.64046">
        <ele>46.8</ele>
        <time>2022-05-24 13:16:14</time>
      </trkpt>
      <trkpt lat="41.04249" lon="0.64044">
        <ele>47</ele>
        <time>2022-05-24 13:16:15</time>
      </trkpt>
      <trkpt lat="41.04245" lon="0.64042">
        <ele>47</ele>
        <time>2022-05-24 13:16:16</time>
      </trkpt>
      <trkpt lat="41.0424" lon="0.64041">
        <ele>47</ele>
        <time>2022-05-24 13:16:17</time>
      </trkpt>
      <trkpt lat="41.04235" lon="0.64039">
        <ele>47.2</ele>
        <time>2022-05-24 13:16:18</time>
      </trkpt>
      <trkpt lat="41.0423" lon="0.64038">
        <ele>47.2</ele>
        <time>2022-05-24 13:16:19</time>
      </trkpt>
      <trkpt lat="41.04226" lon="0.64036">
        <ele>47.4</ele>
        <time>2022-05-24 13:16:20</time>
      </trkpt>
      <trkpt lat="41.04221" lon="0.64034">
        <ele>47.4</ele>
        <time>2022-05-24 13:16:21</time>
      </trkpt>
      <trkpt lat="41.04216" lon="0.64032">
        <ele>47.4</ele>
        <time>2022-05-24 13:16:22</time>
      </trkpt>
      <trkpt lat="41.04211" lon="0.6403">
        <ele>47.6</ele>
        <time>2022-05-24 13:16:23</time>
      </trkpt>
      <trkpt lat="41.04207" lon="0.64028">
        <ele>47.6</ele>
        <time>2022-05-24 13:16:24</time>
      </trkpt>
      <trkpt lat="41.04203" lon="0.64026">
        <ele>47.8</ele>
        <time>2022-05-24 13:16:25</time>
      </trkpt>
      <trkpt lat="41.04198" lon="0.64024">
        <ele>47.8</ele>
        <time>2022-05-24 13:16:26</time>
      </trkpt>
      <trkpt lat="41.04194" lon="0.64022">
        <ele>47.8</ele>
        <time>2022-05-24 13:16:27</time>
      </trkpt>
      <trkpt lat="41.04189" lon="0.6402">
        <ele>48</ele>
        <time>2022-05-24 13:16:28</time>
      </trkpt>
      <trkpt lat="41.04184" lon="0.64018">
        <ele>48</ele>
        <time>2022-05-24 13:16:29</time>
      </trkpt>
      <trkpt lat="41.0418" lon="0.64015">
        <ele>48.2</ele>
        <time>2022-05-24 13:16:30</time>
      </trkpt>
      <trkpt lat="41.04176" lon="0.64013">
        <ele>48.2</ele>
        <time>2022-05-24 13:16:31</time>
      </trkpt>
      <trkpt lat="41.04171" lon="0.6401">
        <ele>48.2</ele>
        <time>2022-05-24 13:16:32</time>
      </trkpt>
      <trkpt lat="41.04167" lon="0.64008">
        <ele>48.4</ele>
        <time>2022-05-24 13:16:33</time>
      </trkpt>
      <trkpt lat="41.04163" lon="0.64005">
        <ele>48.4</ele>
        <time>2022-05-24 13:16:34</time>
      </trkpt>
      <trkpt lat="41.04158" lon="0.64003">
        <ele>48.4</ele>
        <time>2022-05-24 13:16:35</time>
      </trkpt>
      <trkpt lat="41.04155" lon="0.64">
        <ele>48.6</ele>
        <time>2022-05-24 13:16:36</time>
      </trkpt>
      <trkpt lat="41.0415" lon="0.63997">
        <ele>48.6</ele>
        <time>2022-05-24 13:16:37</time>
      </trkpt>
      <trkpt lat="41.04146" lon="0.63994">
        <ele>48.6</ele>
        <time>2022-05-24 13:16:38</time>
      </trkpt>
      <trkpt lat="41.04142" lon="0.63991">
        <ele>48.8</ele>
        <time>2022-05-24 13:16:39</time>
      </trkpt>
      <trkpt lat="41.04138" lon="0.63988">
        <ele>48.8</ele>
        <time>2022-05-24 13:16:40</time>
      </trkpt>
      <trkpt lat="41.04134" lon="0.63986">
        <ele>49</ele>
        <time>2022-05-24 13:16:41</time>
      </trkpt>
      <trkpt lat="41.0413" lon="0.63982">
        <ele>49</ele>
        <time>2022-05-24 13:16:42</time>
      </trkpt>
      <trkpt lat="41.04126" lon="0.63979">
        <ele>49.2</ele>
        <time>2022-05-24 13:16:43</time>
      </trkpt>
      <trkpt lat="41.04123" lon="0.63977">
        <ele>49.2</ele>
        <time>2022-05-24 13:16:44</time>
      </trkpt>
      <trkpt lat="41.04118" lon="0.63973">
        <ele>49.2</ele>
        <time>2022-05-24 13:16:45</time>
      </trkpt>
      <trkpt lat="41.04115" lon="0.6397">
        <ele>49.4</ele>
        <time>2022-05-24 13:16:46</time>
      </trkpt>
      <trkpt lat="41.04111" lon="0.63966">
        <ele>49.4</ele>
        <time>2022-05-24 13:16:47</time>
      </trkpt>
      <trkpt lat="41.04107" lon="0.63963">
        <ele>49.6</ele>
        <time>2022-05-24 13:16:48</time>
      </trkpt>
      <trkpt lat="41.04104" lon="0.6396">
        <ele>49.6</ele>
        <time>2022-05-24 13:16:49</time>
      </trkpt>
      <trkpt lat="41.041" lon="0.63956">
        <ele>49.8</ele>
        <time>2022-05-24 13:16:50</time>
      </trkpt>
      <trkpt lat="41.04096" lon="0.63953">
        <ele>49.8</ele>
        <time>2022-05-24 13:16:51</time>
      </trkpt>
      <trkpt lat="41.04092" lon="0.63949">
        <ele>50</ele>
        <time>2022-05-24 13:16:52</time>
      </trkpt>
      <trkpt lat="41.04089" lon="0.63946">
        <ele>50</ele>
        <time>2022-05-24 13:16:53</time>
      </trkpt>
      <trkpt lat="41.04085" lon="0.63942">
        <ele>50.2</ele>
        <time>2022-05-24 13:16:54</time>
      </trkpt>
      <trkpt lat="41.04081" lon="0.63938">
        <ele>50.2</ele>
        <time>2022-05-24 13:16:55</time>
      </trkpt>
      <trkpt lat="41.04078" lon="0.63935">
        <ele>50.2</ele>
        <time>2022-05-24 13:16:56</time>
      </trkpt>
      <trkpt lat="41.04074" lon="0.6393">
        <ele>50.4</ele>
        <time>2022-05-24 13:16:57</time>
      </trkpt>
      <trkpt lat="41.04071" lon="0.63927">
        <ele>50.4</ele>
        <time>2022-05-24 13:16:58</time>
      </trkpt>
      <trkpt lat="41.04067" lon="0.63923">
        <ele>50.4</ele>
        <time>2022-05-24 13:16:59</time>
      </trkpt>
      <trkpt lat="41.04064" lon="0.6392">
        <ele>50.6</ele>
        <time>2022-05-24 13:17:00</time>
      </trkpt>
      <trkpt lat="41.0406" lon="0.63915">
        <ele>50.6</ele>
        <time>2022-05-24 13:17:01</time>
      </trkpt>
      <trkpt lat="41.04056" lon="0.63912">
        <ele>50.6</ele>
        <time>2022-05-24 13:17:02</time>
      </trkpt>
      <trkpt lat="41.04052" lon="0.63907">
        <ele>50.6</ele>
        <time>2022-05-24 13:17:03</time>
      </trkpt>
      <trkpt lat="41.04049" lon="0.63903">
        <ele>50.8</ele>
        <time>2022-05-24 13:17:04</time>
      </trkpt>
      <trkpt lat="41.04045" lon="0.63899">
        <ele>50.8</ele>
        <time>2022-05-24 13:17:05</time>
      </trkpt>
      <trkpt lat="41.04042" lon="0.63895">
        <ele>51</ele>
        <time>2022-05-24 13:17:06</time>
      </trkpt>
      <trkpt lat="41.04038" lon="0.63891">
        <ele>51</ele>
        <time>2022-05-24 13:17:07</time>
      </trkpt>
      <trkpt lat="41.04035" lon="0.63887">
        <ele>51</ele>
        <time>2022-05-24 13:17:08</time>
      </trkpt>
      <trkpt lat="41.04031" lon="0.63883">
        <ele>51</ele>
        <time>2022-05-24 13:17:09</time>
      </trkpt>
      <trkpt lat="41.04029" lon="0.6388">
        <ele>51</ele>
        <time>2022-05-24 13:17:10</time>
      </trkpt>
      <trkpt lat="41.04024" lon="0.63874">
        <ele>51.2</ele>
        <time>2022-05-24 13:17:11</time>
      </trkpt>
      <trkpt lat="41.0402" lon="0.6387">
        <ele>51.2</ele>
        <time>2022-05-24 13:17:12</time>
      </trkpt>
      <trkpt lat="41.04016" lon="0.63866">
        <ele>51.4</ele>
        <time>2022-05-24 13:17:13</time>
      </trkpt>
      <trkpt lat="41.04013" lon="0.63862">
        <ele>51.4</ele>
        <time>2022-05-24 13:17:14</time>
      </trkpt>
      <trkpt lat="41.0401" lon="0.63857">
        <ele>51.4</ele>
        <time>2022-05-24 13:17:15</time>
      </trkpt>
      <trkpt lat="41.04006" lon="0.63853">
        <ele>51.4</ele>
        <time>2022-05-24 13:17:16</time>
      </trkpt>
      <trkpt lat="41.04002" lon="0.63848">
        <ele>51.6</ele>
        <time>2022-05-24 13:17:17</time>
      </trkpt>
      <trkpt lat="41.03999" lon="0.63844">
        <ele>51.6</ele>
        <time>2022-05-24 13:17:18</time>
      </trkpt>
      <trkpt lat="41.03995" lon="0.63839">
        <ele>51.6</ele>
        <time>2022-05-24 13:17:19</time>
      </trkpt>
      <trkpt lat="41.03991" lon="0.63835">
        <ele>51.6</ele>
        <time>2022-05-24 13:17:20</time>
      </trkpt>
      <trkpt lat="41.03988" lon="0.63831">
        <ele>51.6</ele>
        <time>2022-05-24 13:17:21</time>
      </trkpt>
      <trkpt lat="41.03984" lon="0.63826">
        <ele>51.6</ele>
        <time>2022-05-24 13:17:22</time>
      </trkpt>
      <trkpt lat="41.03981" lon="0.63821">
        <ele>51.6</ele>
        <time>2022-05-24 13:17:23</time>
      </trkpt>
      <trkpt lat="41.03977" lon="0.63816">
        <ele>51.8</ele>
        <time>2022-05-24 13:17:24</time>
      </trkpt>
      <trkpt lat="41.03973" lon="0.63811">
        <ele>51.8</ele>
        <time>2022-05-24 13:17:25</time>
      </trkpt>
      <trkpt lat="41.0397" lon="0.63806">
        <ele>51.6</ele>
        <time>2022-05-24 13:17:26</time>
      </trkpt>
      <trkpt lat="41.03967" lon="0.63801">
        <ele>51.6</ele>
        <time>2022-05-24 13:17:27</time>
      </trkpt>
      <trkpt lat="41.03963" lon="0.63796">
        <ele>51.6</ele>
        <time>2022-05-24 13:17:28</time>
      </trkpt>
      <trkpt lat="41.0396" lon="0.63791">
        <ele>51.6</ele>
        <time>2022-05-24 13:17:29</time>
      </trkpt>
      <trkpt lat="41.03957" lon="0.63786">
        <ele>51.6</ele>
        <time>2022-05-24 13:17:30</time>
      </trkpt>
      <trkpt lat="41.03953" lon="0.63781">
        <ele>51.8</ele>
        <time>2022-05-24 13:17:31</time>
      </trkpt>
      <trkpt lat="41.0395" lon="0.63776">
        <ele>51.8</ele>
        <time>2022-05-24 13:17:32</time>
      </trkpt>
      <trkpt lat="41.03946" lon="0.6377">
        <ele>51.8</ele>
        <time>2022-05-24 13:17:33</time>
      </trkpt>
      <trkpt lat="41.03942" lon="0.63765">
        <ele>51.8</ele>
        <time>2022-05-24 13:17:34</time>
      </trkpt>
      <trkpt lat="41.03939" lon="0.63759">
        <ele>51.8</ele>
        <time>2022-05-24 13:17:35</time>
      </trkpt>
      <trkpt lat="41.03936" lon="0.63754">
        <ele>51.6</ele>
        <time>2022-05-24 13:17:36</time>
      </trkpt>
      <trkpt lat="41.03932" lon="0.63748">
        <ele>51.6</ele>
        <time>2022-05-24 13:17:37</time>
      </trkpt>
      <trkpt lat="41.03929" lon="0.63743">
        <ele>51.6</ele>
        <time>2022-05-24 13:17:38</time>
      </trkpt>
      <trkpt lat="41.03925" lon="0.63737">
        <ele>51.6</ele>
        <time>2022-05-24 13:17:39</time>
      </trkpt>
      <trkpt lat="41.03922" lon="0.63731">
        <ele>51.6</ele>
        <time>2022-05-24 13:17:40</time>
      </trkpt>
      <trkpt lat="41.03919" lon="0.63725">
        <ele>51.4</ele>
        <time>2022-05-24 13:17:41</time>
      </trkpt>
      <trkpt lat="41.03916" lon="0.6372">
        <ele>51.4</ele>
        <time>2022-05-24 13:17:42</time>
      </trkpt>
      <trkpt lat="41.03912" lon="0.63714">
        <ele>51.4</ele>
        <time>2022-05-24 13:17:43</time>
      </trkpt>
      <trkpt lat="41.03908" lon="0.63707">
        <ele>51.2</ele>
        <time>2022-05-24 13:17:44</time>
      </trkpt>
      <trkpt lat="41.03905" lon="0.63701">
        <ele>51.2</ele>
        <time>2022-05-24 13:17:45</time>
      </trkpt>
      <trkpt lat="41.03901" lon="0.63694">
        <ele>51</ele>
        <time>2022-05-24 13:17:46</time>
      </trkpt>
      <trkpt lat="41.03897" lon="0.63688">
        <ele>51</ele>
        <time>2022-05-24 13:17:47</time>
      </trkpt>
      <trkpt lat="41.03894" lon="0.63681">
        <ele>51</ele>
        <time>2022-05-24 13:17:48</time>
      </trkpt>
      <trkpt lat="41.0389" lon="0.63674">
        <ele>50.8</ele>
        <time>2022-05-24 13:17:49</time>
      </trkpt>
      <trkpt lat="41.03887" lon="0.63667">
        <ele>50.8</ele>
        <time>2022-05-24 13:17:50</time>
      </trkpt>
      <trkpt lat="41.03883" lon="0.6366">
        <ele>50.6</ele>
        <time>2022-05-24 13:17:51</time>
      </trkpt>
      <trkpt lat="41.0388" lon="0.63654">
        <ele>50.6</ele>
        <time>2022-05-24 13:17:52</time>
      </trkpt>
      <trkpt lat="41.03876" lon="0.63646">
        <ele>50.4</ele>
        <time>2022-05-24 13:17:53</time>
      </trkpt>
      <trkpt lat="41.03873" lon="0.6364">
        <ele>50.4</ele>
        <time>2022-05-24 13:17:54</time>
      </trkpt>
      <trkpt lat="41.0387" lon="0.63633">
        <ele>50.2</ele>
        <time>2022-05-24 13:17:55</time>
      </trkpt>
      <trkpt lat="41.03866" lon="0.63625">
        <ele>50.2</ele>
        <time>2022-05-24 13:17:56</time>
      </trkpt>
      <trkpt lat="41.03863" lon="0.63618">
        <ele>50.2</ele>
        <time>2022-05-24 13:17:57</time>
      </trkpt>
      <trkpt lat="41.0386" lon="0.63612">
        <ele>50.2</ele>
        <time>2022-05-24 13:17:58</time>
      </trkpt>
      <trkpt lat="41.03856" lon="0.63604">
        <ele>50</ele>
        <time>2022-05-24 13:17:59</time>
      </trkpt>
      <trkpt lat="41.03853" lon="0.63596">
        <ele>49.8</ele>
        <time>2022-05-24 13:18:00</time>
      </trkpt>
      <trkpt lat="41.0385" lon="0.63589">
        <ele>49.8</ele>
        <time>2022-05-24 13:18:01</time>
      </trkpt>
      <trkpt lat="41.03847" lon="0.63582">
        <ele>49.6</ele>
        <time>2022-05-24 13:18:02</time>
      </trkpt>
      <trkpt lat="41.03843" lon="0.63574">
        <ele>49.6</ele>
        <time>2022-05-24 13:18:03</time>
      </trkpt>
      <trkpt lat="41.0384" lon="0.63566">
        <ele>49.6</ele>
        <time>2022-05-24 13:18:04</time>
      </trkpt>
      <trkpt lat="41.03837" lon="0.63558">
        <ele>49.4</ele>
        <time>2022-05-24 13:18:05</time>
      </trkpt>
      <trkpt lat="41.03834" lon="0.63551">
        <ele>49.4</ele>
        <time>2022-05-24 13:18:06</time>
      </trkpt>
      <trkpt lat="41.03831" lon="0.63543">
        <ele>49.4</ele>
        <time>2022-05-24 13:18:07</time>
      </trkpt>
      <trkpt lat="41.03828" lon="0.63536">
        <ele>49.2</ele>
        <time>2022-05-24 13:18:08</time>
      </trkpt>
      <trkpt lat="41.03825" lon="0.63528">
        <ele>49.2</ele>
        <time>2022-05-24 13:18:09</time>
      </trkpt>
      <trkpt lat="41.03822" lon="0.6352">
        <ele>49.2</ele>
        <time>2022-05-24 13:18:10</time>
      </trkpt>
      <trkpt lat="41.0382" lon="0.63513">
        <ele>49.2</ele>
        <time>2022-05-24 13:18:11</time>
      </trkpt>
      <trkpt lat="41.03817" lon="0.63505">
        <ele>49.2</ele>
        <time>2022-05-24 13:18:12</time>
      </trkpt>
      <trkpt lat="41.03814" lon="0.63497">
        <ele>49</ele>
        <time>2022-05-24 13:18:13</time>
      </trkpt>
      <trkpt lat="41.03811" lon="0.6349">
        <ele>49</ele>
        <time>2022-05-24 13:18:14</time>
      </trkpt>
      <trkpt lat="41.03808" lon="0.63482">
        <ele>49</ele>
        <time>2022-05-24 13:18:15</time>
      </trkpt>
      <trkpt lat="41.03806" lon="0.63474">
        <ele>48.8</ele>
        <time>2022-05-24 13:18:16</time>
      </trkpt>
      <trkpt lat="41.03804" lon="0.63467">
        <ele>48.8</ele>
        <time>2022-05-24 13:18:17</time>
      </trkpt>
      <trkpt lat="41.03801" lon="0.63459">
        <ele>48.6</ele>
        <time>2022-05-24 13:18:18</time>
      </trkpt>
      <trkpt lat="41.03799" lon="0.63451">
        <ele>48.6</ele>
        <time>2022-05-24 13:18:19</time>
      </trkpt>
      <trkpt lat="41.03797" lon="0.63443">
        <ele>48.4</ele>
        <time>2022-05-24 13:18:20</time>
      </trkpt>
      <trkpt lat="41.03794" lon="0.63436">
        <ele>48.4</ele>
        <time>2022-05-24 13:18:21</time>
      </trkpt>
      <trkpt lat="41.03792" lon="0.63428">
        <ele>48.4</ele>
        <time>2022-05-24 13:18:22</time>
      </trkpt>
      <trkpt lat="41.0379" lon="0.63421">
        <ele>48.4</ele>
        <time>2022-05-24 13:18:23</time>
      </trkpt>
      <trkpt lat="41.03788" lon="0.63413">
        <ele>48.4</ele>
        <time>2022-05-24 13:18:24</time>
      </trkpt>
      <trkpt lat="41.03786" lon="0.63406">
        <ele>48.4</ele>
        <time>2022-05-24 13:18:25</time>
      </trkpt>
      <trkpt lat="41.03784" lon="0.63398">
        <ele>48.2</ele>
        <time>2022-05-24 13:18:26</time>
      </trkpt>
      <trkpt lat="41.03782" lon="0.63391">
        <ele>48.2</ele>
        <time>2022-05-24 13:18:27</time>
      </trkpt>
      <trkpt lat="41.0378" lon="0.63383">
        <ele>48</ele>
        <time>2022-05-24 13:18:28</time>
      </trkpt>
      <trkpt lat="41.03778" lon="0.63375">
        <ele>48</ele>
        <time>2022-05-24 13:18:29</time>
      </trkpt>
      <trkpt lat="41.03776" lon="0.63367">
        <ele>48</ele>
        <time>2022-05-24 13:18:30</time>
      </trkpt>
      <trkpt lat="41.03774" lon="0.63359">
        <ele>47.8</ele>
        <time>2022-05-24 13:18:31</time>
      </trkpt>
      <trkpt lat="41.03772" lon="0.63351">
        <ele>47.8</ele>
        <time>2022-05-24 13:18:32</time>
      </trkpt>
      <trkpt lat="41.0377" lon="0.63343">
        <ele>47.8</ele>
        <time>2022-05-24 13:18:33</time>
      </trkpt>
      <trkpt lat="41.03769" lon="0.63335">
        <ele>47.6</ele>
        <time>2022-05-24 13:18:34</time>
      </trkpt>
      <trkpt lat="41.03767" lon="0.63328">
        <ele>47.6</ele>
        <time>2022-05-24 13:18:35</time>
      </trkpt>
      <trkpt lat="41.03765" lon="0.6332">
        <ele>47.4</ele>
        <time>2022-05-24 13:18:36</time>
      </trkpt>
      <trkpt lat="41.03763" lon="0.63312">
        <ele>47.4</ele>
        <time>2022-05-24 13:18:37</time>
      </trkpt>
      <trkpt lat="41.03762" lon="0.63304">
        <ele>47.4</ele>
        <time>2022-05-24 13:18:38</time>
      </trkpt>
      <trkpt lat="41.0376" lon="0.63296">
        <ele>47.4</ele>
        <time>2022-05-24 13:18:39</time>
      </trkpt>
      <trkpt lat="41.03759" lon="0.63288">
        <ele>47.4</ele>
        <time>2022-05-24 13:18:40</time>
      </trkpt>
      <trkpt lat="41.03757" lon="0.63281">
        <ele>47.4</ele>
        <time>2022-05-24 13:18:41</time>
      </trkpt>
      <trkpt lat="41.03755" lon="0.63273">
        <ele>47.2</ele>
        <time>2022-05-24 13:18:42</time>
      </trkpt>
      <trkpt lat="41.03753" lon="0.63265">
        <ele>47.2</ele>
        <time>2022-05-24 13:18:43</time>
      </trkpt>
      <trkpt lat="41.03751" lon="0.63257">
        <ele>47</ele>
        <time>2022-05-24 13:18:44</time>
      </trkpt>
      <trkpt lat="41.0375" lon="0.6325">
        <ele>47</ele>
        <time>2022-05-24 13:18:45</time>
      </trkpt>
      <trkpt lat="41.03748" lon="0.63241">
        <ele>46.8</ele>
        <time>2022-05-24 13:18:46</time>
      </trkpt>
      <trkpt lat="41.03746" lon="0.63234">
        <ele>46.8</ele>
        <time>2022-05-24 13:18:47</time>
      </trkpt>
      <trkpt lat="41.03744" lon="0.63226">
        <ele>46.8</ele>
        <time>2022-05-24 13:18:48</time>
      </trkpt>
      <trkpt lat="41.03742" lon="0.63218">
        <ele>46.8</ele>
        <time>2022-05-24 13:18:49</time>
      </trkpt>
      <trkpt lat="41.0374" lon="0.6321">
        <ele>46.6</ele>
        <time>2022-05-24 13:18:50</time>
      </trkpt>
      <trkpt lat="41.03738" lon="0.63202">
        <ele>46.6</ele>
        <time>2022-05-24 13:18:51</time>
      </trkpt>
      <trkpt lat="41.03736" lon="0.63194">
        <ele>46.6</ele>
        <time>2022-05-24 13:18:52</time>
      </trkpt>
      <trkpt lat="41.03734" lon="0.63186">
        <ele>46.4</ele>
        <time>2022-05-24 13:18:53</time>
      </trkpt>
      <trkpt lat="41.03732" lon="0.63178">
        <ele>46.4</ele>
        <time>2022-05-24 13:18:54</time>
      </trkpt>
      <trkpt lat="41.0373" lon="0.63171">
        <ele>46.2</ele>
        <time>2022-05-24 13:18:55</time>
      </trkpt>
      <trkpt lat="41.03728" lon="0.63163">
        <ele>46.2</ele>
        <time>2022-05-24 13:18:56</time>
      </trkpt>
      <trkpt lat="41.03725" lon="0.63156">
        <ele>46.2</ele>
        <time>2022-05-24 13:18:57</time>
      </trkpt>
      <trkpt lat="41.03724" lon="0.63147">
        <ele>46.2</ele>
        <time>2022-05-24 13:18:58</time>
      </trkpt>
      <trkpt lat="41.03722" lon="0.63139">
        <ele>46</ele>
        <time>2022-05-24 13:18:59</time>
      </trkpt>
      <trkpt lat="41.0372" lon="0.63131">
        <ele>46</ele>
        <time>2022-05-24 13:19:00</time>
      </trkpt>
      <trkpt lat="41.03717" lon="0.63123">
        <ele>46</ele>
        <time>2022-05-24 13:19:01</time>
      </trkpt>
      <trkpt lat="41.03715" lon="0.63115">
        <ele>45.8</ele>
        <time>2022-05-24 13:19:02</time>
      </trkpt>
      <trkpt lat="41.03713" lon="0.63108">
        <ele>45.8</ele>
        <time>2022-05-24 13:19:03</time>
      </trkpt>
      <trkpt lat="41.0371" lon="0.63099">
        <ele>45.8</ele>
        <time>2022-05-24 13:19:04</time>
      </trkpt>
      <trkpt lat="41.03708" lon="0.63092">
        <ele>45.8</ele>
        <time>2022-05-24 13:19:05</time>
      </trkpt>
      <trkpt lat="41.03704" lon="0.63084">
        <ele>45.6</ele>
        <time>2022-05-24 13:19:06</time>
      </trkpt>
      <trkpt lat="41.03702" lon="0.63076">
        <ele>45.6</ele>
        <time>2022-05-24 13:19:07</time>
      </trkpt>
      <trkpt lat="41.03699" lon="0.63068">
        <ele>45.4</ele>
        <time>2022-05-24 13:19:08</time>
      </trkpt>
      <trkpt lat="41.03697" lon="0.6306">
        <ele>45.4</ele>
        <time>2022-05-24 13:19:09</time>
      </trkpt>
      <trkpt lat="41.03694" lon="0.63052">
        <ele>45.4</ele>
        <time>2022-05-24 13:19:10</time>
      </trkpt>
      <trkpt lat="41.03692" lon="0.63044">
        <ele>45.4</ele>
        <time>2022-05-24 13:19:11</time>
      </trkpt>
      <trkpt lat="41.03689" lon="0.63037">
        <ele>45.2</ele>
        <time>2022-05-24 13:19:12</time>
      </trkpt>
      <trkpt lat="41.03686" lon="0.63029">
        <ele>45.2</ele>
        <time>2022-05-24 13:19:13</time>
      </trkpt>
      <trkpt lat="41.03683" lon="0.63021">
        <ele>45.2</ele>
        <time>2022-05-24 13:19:14</time>
      </trkpt>
      <trkpt lat="41.0368" lon="0.63013">
        <ele>45</ele>
        <time>2022-05-24 13:19:15</time>
      </trkpt>
      <trkpt lat="41.03678" lon="0.63006">
        <ele>45</ele>
        <time>2022-05-24 13:19:16</time>
      </trkpt>
      <trkpt lat="41.03675" lon="0.62998">
        <ele>44.8</ele>
        <time>2022-05-24 13:19:17</time>
      </trkpt>
      <trkpt lat="41.03672" lon="0.62991">
        <ele>44.8</ele>
        <time>2022-05-24 13:19:18</time>
      </trkpt>
      <trkpt lat="41.0367" lon="0.62983">
        <ele>44.8</ele>
        <time>2022-05-24 13:19:19</time>
      </trkpt>
      <trkpt lat="41.03666" lon="0.62974">
        <ele>44.6</ele>
        <time>2022-05-24 13:19:20</time>
      </trkpt>
      <trkpt lat="41.03663" lon="0.62967">
        <ele>44.6</ele>
        <time>2022-05-24 13:19:21</time>
      </trkpt>
      <trkpt lat="41.0366" lon="0.62959">
        <ele>44.6</ele>
        <time>2022-05-24 13:19:22</time>
      </trkpt>
      <trkpt lat="41.03656" lon="0.62951">
        <ele>44.4</ele>
        <time>2022-05-24 13:19:23</time>
      </trkpt>
      <trkpt lat="41.03653" lon="0.62943">
        <ele>44.4</ele>
        <time>2022-05-24 13:19:24</time>
      </trkpt>
      <trkpt lat="41.0365" lon="0.62936">
        <ele>44.4</ele>
        <time>2022-05-24 13:19:25</time>
      </trkpt>
      <trkpt lat="41.03647" lon="0.62928">
        <ele>44.4</ele>
        <time>2022-05-24 13:19:26</time>
      </trkpt>
      <trkpt lat="41.03643" lon="0.6292">
        <ele>44.2</ele>
        <time>2022-05-24 13:19:27</time>
      </trkpt>
      <trkpt lat="41.0364" lon="0.62913">
        <ele>44.2</ele>
        <time>2022-05-24 13:19:28</time>
      </trkpt>
      <trkpt lat="41.03637" lon="0.62906">
        <ele>44.2</ele>
        <time>2022-05-24 13:19:29</time>
      </trkpt>
      <trkpt lat="41.03633" lon="0.62898">
        <ele>44</ele>
        <time>2022-05-24 13:19:30</time>
      </trkpt>
      <trkpt lat="41.03629" lon="0.62891">
        <ele>44</ele>
        <time>2022-05-24 13:19:31</time>
      </trkpt>
      <trkpt lat="41.03625" lon="0.62883">
        <ele>43.8</ele>
        <time>2022-05-24 13:19:32</time>
      </trkpt>
      <trkpt lat="41.03622" lon="0.62876">
        <ele>43.8</ele>
        <time>2022-05-24 13:19:33</time>
      </trkpt>
      <trkpt lat="41.03618" lon="0.62868">
        <ele>43.8</ele>
        <time>2022-05-24 13:19:34</time>
      </trkpt>
      <trkpt lat="41.03615" lon="0.62861">
        <ele>43.6</ele>
        <time>2022-05-24 13:19:35</time>
      </trkpt>
      <trkpt lat="41.03611" lon="0.62853">
        <ele>43.6</ele>
        <time>2022-05-24 13:19:36</time>
      </trkpt>
      <trkpt lat="41.03607" lon="0.62846">
        <ele>43.4</ele>
        <time>2022-05-24 13:19:37</time>
      </trkpt>
      <trkpt lat="41.03603" lon="0.62838">
        <ele>43.4</ele>
        <time>2022-05-24 13:19:38</time>
      </trkpt>
      <trkpt lat="41.036" lon="0.62831">
        <ele>43.2</ele>
        <time>2022-05-24 13:19:39</time>
      </trkpt>
      <trkpt lat="41.03596" lon="0.62823">
        <ele>43.2</ele>
        <time>2022-05-24 13:19:40</time>
      </trkpt>
      <trkpt lat="41.03592" lon="0.62816">
        <ele>43.2</ele>
        <time>2022-05-24 13:19:41</time>
      </trkpt>
      <trkpt lat="41.03588" lon="0.62809">
        <ele>43</ele>
        <time>2022-05-24 13:19:42</time>
      </trkpt>
      <trkpt lat="41.03584" lon="0.62802">
        <ele>43</ele>
        <time>2022-05-24 13:19:43</time>
      </trkpt>
      <trkpt lat="41.0358" lon="0.62795">
        <ele>43</ele>
        <time>2022-05-24 13:19:44</time>
      </trkpt>
      <trkpt lat="41.03576" lon="0.62788">
        <ele>43</ele>
        <time>2022-05-24 13:19:45</time>
      </trkpt>
      <trkpt lat="41.03573" lon="0.62781">
        <ele>43</ele>
        <time>2022-05-24 13:19:46</time>
      </trkpt>
      <trkpt lat="41.03569" lon="0.62774">
        <ele>42.8</ele>
        <time>2022-05-24 13:19:47</time>
      </trkpt>
      <trkpt lat="41.03565" lon="0.62767">
        <ele>42.8</ele>
        <time>2022-05-24 13:19:48</time>
      </trkpt>
      <trkpt lat="41.03561" lon="0.62761">
        <ele>42.8</ele>
        <time>2022-05-24 13:19:49</time>
      </trkpt>
      <trkpt lat="41.03557" lon="0.62754">
        <ele>42.8</ele>
        <time>2022-05-24 13:19:50</time>
      </trkpt>
      <trkpt lat="41.03553" lon="0.62748">
        <ele>42.8</ele>
        <time>2022-05-24 13:19:51</time>
      </trkpt>
      <trkpt lat="41.03549" lon="0.62741">
        <ele>42.6</ele>
        <time>2022-05-24 13:19:52</time>
      </trkpt>
      <trkpt lat="41.03545" lon="0.62735">
        <ele>42.6</ele>
        <time>2022-05-24 13:19:53</time>
      </trkpt>
      <trkpt lat="41.03541" lon="0.62728">
        <ele>42.6</ele>
        <time>2022-05-24 13:19:54</time>
      </trkpt>
      <trkpt lat="41.03537" lon="0.62722">
        <ele>42.6</ele>
        <time>2022-05-24 13:19:55</time>
      </trkpt>
      <trkpt lat="41.03533" lon="0.62715">
        <ele>42.6</ele>
        <time>2022-05-24 13:19:56</time>
      </trkpt>
      <trkpt lat="41.03529" lon="0.62709">
        <ele>42.6</ele>
        <time>2022-05-24 13:19:57</time>
      </trkpt>
      <trkpt lat="41.03525" lon="0.62703">
        <ele>42.4</ele>
        <time>2022-05-24 13:19:58</time>
      </trkpt>
      <trkpt lat="41.03521" lon="0.62697">
        <ele>42.4</ele>
        <time>2022-05-24 13:19:59</time>
      </trkpt>
      <trkpt lat="41.03517" lon="0.62691">
        <ele>42.6</ele>
        <time>2022-05-24 13:20:00</time>
      </trkpt>
      <trkpt lat="41.03513" lon="0.62684">
        <ele>42.6</ele>
        <time>2022-05-24 13:20:01</time>
      </trkpt>
      <trkpt lat="41.0351" lon="0.62678">
        <ele>42.6</ele>
        <time>2022-05-24 13:20:02</time>
      </trkpt>
      <trkpt lat="41.03506" lon="0.62672">
        <ele>42.6</ele>
        <time>2022-05-24 13:20:03</time>
      </trkpt>
      <trkpt lat="41.03502" lon="0.62666">
        <ele>42.6</ele>
        <time>2022-05-24 13:20:04</time>
      </trkpt>
      <trkpt lat="41.03498" lon="0.62659">
        <ele>42.6</ele>
        <time>2022-05-24 13:20:05</time>
      </trkpt>
      <trkpt lat="41.03494" lon="0.62653">
        <ele>42.6</ele>
        <time>2022-05-24 13:20:06</time>
      </trkpt>
      <trkpt lat="41.0349" lon="0.62648">
        <ele>42.6</ele>
        <time>2022-05-24 13:20:07</time>
      </trkpt>
      <trkpt lat="41.03486" lon="0.62641">
        <ele>42.8</ele>
        <time>2022-05-24 13:20:08</time>
      </trkpt>
      <trkpt lat="41.03482" lon="0.62636">
        <ele>42.8</ele>
        <time>2022-05-24 13:20:09</time>
      </trkpt>
      <trkpt lat="41.03478" lon="0.62629">
        <ele>42.6</ele>
        <time>2022-05-24 13:20:10</time>
      </trkpt>
      <trkpt lat="41.03475" lon="0.62623">
        <ele>42.6</ele>
        <time>2022-05-24 13:20:11</time>
      </trkpt>
      <trkpt lat="41.03471" lon="0.62617">
        <ele>42.6</ele>
        <time>2022-05-24 13:20:12</time>
      </trkpt>
      <trkpt lat="41.03467" lon="0.62611">
        <ele>42.6</ele>
        <time>2022-05-24 13:20:13</time>
      </trkpt>
      <trkpt lat="41.03462" lon="0.62604">
        <ele>42.6</ele>
        <time>2022-05-24 13:20:14</time>
      </trkpt>
      <trkpt lat="41.03458" lon="0.62598">
        <ele>42.6</ele>
        <time>2022-05-24 13:20:15</time>
      </trkpt>
      <trkpt lat="41.03454" lon="0.62591">
        <ele>42.6</ele>
        <time>2022-05-24 13:20:16</time>
      </trkpt>
      <trkpt lat="41.0345" lon="0.62586">
        <ele>42.6</ele>
        <time>2022-05-24 13:20:17</time>
      </trkpt>
      <trkpt lat="41.03446" lon="0.62579">
        <ele>42.8</ele>
        <time>2022-05-24 13:20:18</time>
      </trkpt>
      <trkpt lat="41.03441" lon="0.62572">
        <ele>42.8</ele>
        <time>2022-05-24 13:20:19</time>
      </trkpt>
      <trkpt lat="41.03437" lon="0.62565">
        <ele>42.8</ele>
        <time>2022-05-24 13:20:20</time>
      </trkpt>
      <trkpt lat="41.03433" lon="0.62558">
        <ele>42.8</ele>
        <time>2022-05-24 13:20:21</time>
      </trkpt>
      <trkpt lat="41.03428" lon="0.62551">
        <ele>42.8</ele>
        <time>2022-05-24 13:20:22</time>
      </trkpt>
      <trkpt lat="41.03424" lon="0.62545">
        <ele>43</ele>
        <time>2022-05-24 13:20:23</time>
      </trkpt>
      <trkpt lat="41.03419" lon="0.62538">
        <ele>43</ele>
        <time>2022-05-24 13:20:24</time>
      </trkpt>
      <trkpt lat="41.03415" lon="0.62531">
        <ele>43</ele>
        <time>2022-05-24 13:20:25</time>
      </trkpt>
      <trkpt lat="41.03411" lon="0.62524">
        <ele>43</ele>
        <time>2022-05-24 13:20:26</time>
      </trkpt>
      <trkpt lat="41.03407" lon="0.62518">
        <ele>43</ele>
        <time>2022-05-24 13:20:27</time>
      </trkpt>
      <trkpt lat="41.03403" lon="0.62511">
        <ele>43</ele>
        <time>2022-05-24 13:20:28</time>
      </trkpt>
      <trkpt lat="41.03399" lon="0.62504">
        <ele>43</ele>
        <time>2022-05-24 13:20:29</time>
      </trkpt>
      <trkpt lat="41.03394" lon="0.62497">
        <ele>42.8</ele>
        <time>2022-05-24 13:20:30</time>
      </trkpt>
      <trkpt lat="41.0339" lon="0.6249">
        <ele>43</ele>
        <time>2022-05-24 13:20:31</time>
      </trkpt>
      <trkpt lat="41.03386" lon="0.62484">
        <ele>43</ele>
        <time>2022-05-24 13:20:32</time>
      </trkpt>
      <trkpt lat="41.03382" lon="0.62478">
        <ele>43</ele>
        <time>2022-05-24 13:20:33</time>
      </trkpt>
      <trkpt lat="41.03378" lon="0.62471">
        <ele>43.2</ele>
        <time>2022-05-24 13:20:34</time>
      </trkpt>
      <trkpt lat="41.03374" lon="0.62465">
        <ele>43.2</ele>
        <time>2022-05-24 13:20:35</time>
      </trkpt>
      <trkpt lat="41.0337" lon="0.62458">
        <ele>43.2</ele>
        <time>2022-05-24 13:20:36</time>
      </trkpt>
      <trkpt lat="41.03366" lon="0.62452">
        <ele>43.2</ele>
        <time>2022-05-24 13:20:37</time>
      </trkpt>
      <trkpt lat="41.03362" lon="0.62445">
        <ele>43.2</ele>
        <time>2022-05-24 13:20:38</time>
      </trkpt>
      <trkpt lat="41.03358" lon="0.62439">
        <ele>43.2</ele>
        <time>2022-05-24 13:20:39</time>
      </trkpt>
      <trkpt lat="41.03353" lon="0.62432">
        <ele>43.2</ele>
        <time>2022-05-24 13:20:40</time>
      </trkpt>
      <trkpt lat="41.03349" lon="0.62426">
        <ele>43.2</ele>
        <time>2022-05-24 13:20:41</time>
      </trkpt>
      <trkpt lat="41.03345" lon="0.6242">
        <ele>43.4</ele>
        <time>2022-05-24 13:20:42</time>
      </trkpt>
      <trkpt lat="41.03341" lon="0.62413">
        <ele>43.4</ele>
        <time>2022-05-24 13:20:43</time>
      </trkpt>
      <trkpt lat="41.03338" lon="0.62407">
        <ele>43.4</ele>
        <time>2022-05-24 13:20:44</time>
      </trkpt>
      <trkpt lat="41.03333" lon="0.62401">
        <ele>43.4</ele>
        <time>2022-05-24 13:20:45</time>
      </trkpt>
      <trkpt lat="41.03329" lon="0.62395">
        <ele>43.4</ele>
        <time>2022-05-24 13:20:46</time>
      </trkpt>
      <trkpt lat="41.03326" lon="0.62389">
        <ele>43.4</ele>
        <time>2022-05-24 13:20:47</time>
      </trkpt>
      <trkpt lat="41.03322" lon="0.62383">
        <ele>43.4</ele>
        <time>2022-05-24 13:20:48</time>
      </trkpt>
      <trkpt lat="41.03318" lon="0.62377">
        <ele>43.4</ele>
        <time>2022-05-24 13:20:49</time>
      </trkpt>
      <trkpt lat="41.03314" lon="0.62371">
        <ele>43.6</ele>
        <time>2022-05-24 13:20:50</time>
      </trkpt>
      <trkpt lat="41.0331" lon="0.62365">
        <ele>43.6</ele>
        <time>2022-05-24 13:20:51</time>
      </trkpt>
      <trkpt lat="41.03307" lon="0.62359">
        <ele>43.6</ele>
        <time>2022-05-24 13:20:52</time>
      </trkpt>
      <trkpt lat="41.03303" lon="0.62354">
        <ele>43.6</ele>
        <time>2022-05-24 13:20:53</time>
      </trkpt>
      <trkpt lat="41.03299" lon="0.62347">
        <ele>43.8</ele>
        <time>2022-05-24 13:20:54</time>
      </trkpt>
      <trkpt lat="41.03296" lon="0.62341">
        <ele>43.8</ele>
        <time>2022-05-24 13:20:55</time>
      </trkpt>
      <trkpt lat="41.03293" lon="0.62335">
        <ele>43.8</ele>
        <time>2022-05-24 13:20:56</time>
      </trkpt>
      <trkpt lat="41.03289" lon="0.62329">
        <ele>43.8</ele>
        <time>2022-05-24 13:20:57</time>
      </trkpt>
      <trkpt lat="41.03285" lon="0.62323">
        <ele>43.8</ele>
        <time>2022-05-24 13:20:58</time>
      </trkpt>
      <trkpt lat="41.03281" lon="0.62316">
        <ele>43.8</ele>
        <time>2022-05-24 13:20:59</time>
      </trkpt>
      <trkpt lat="41.03278" lon="0.6231">
        <ele>43.8</ele>
        <time>2022-05-24 13:21:00</time>
      </trkpt>
      <trkpt lat="41.03275" lon="0.62303">
        <ele>43.8</ele>
        <time>2022-05-24 13:21:01</time>
      </trkpt>
      <trkpt lat="41.03272" lon="0.62297">
        <ele>43.8</ele>
        <time>2022-05-24 13:21:02</time>
      </trkpt>
      <trkpt lat="41.03268" lon="0.6229">
        <ele>43.8</ele>
        <time>2022-05-24 13:21:03</time>
      </trkpt>
      <trkpt lat="41.03265" lon="0.62283">
        <ele>43.8</ele>
        <time>2022-05-24 13:21:04</time>
      </trkpt>
      <trkpt lat="41.03262" lon="0.62276">
        <ele>43.8</ele>
        <time>2022-05-24 13:21:05</time>
      </trkpt>
      <trkpt lat="41.0326" lon="0.62269">
        <ele>44</ele>
        <time>2022-05-24 13:21:06</time>
      </trkpt>
      <trkpt lat="41.03257" lon="0.62262">
        <ele>44</ele>
        <time>2022-05-24 13:21:07</time>
      </trkpt>
      <trkpt lat="41.03255" lon="0.62255">
        <ele>44</ele>
        <time>2022-05-24 13:21:08</time>
      </trkpt>
      <trkpt lat="41.03253" lon="0.62248">
        <ele>44</ele>
        <time>2022-05-24 13:21:09</time>
      </trkpt>
      <trkpt lat="41.03251" lon="0.62241">
        <ele>44</ele>
        <time>2022-05-24 13:21:10</time>
      </trkpt>
      <trkpt lat="41.03249" lon="0.62234">
        <ele>44</ele>
        <time>2022-05-24 13:21:11</time>
      </trkpt>
      <trkpt lat="41.03248" lon="0.62227">
        <ele>44</ele>
        <time>2022-05-24 13:21:12</time>
      </trkpt>
      <trkpt lat="41.03246" lon="0.62219">
        <ele>44.2</ele>
        <time>2022-05-24 13:21:13</time>
      </trkpt>
      <trkpt lat="41.03245" lon="0.62211">
        <ele>44.2</ele>
        <time>2022-05-24 13:21:14</time>
      </trkpt>
      <trkpt lat="41.03244" lon="0.62204">
        <ele>44.2</ele>
        <time>2022-05-24 13:21:15</time>
      </trkpt>
      <trkpt lat="41.03243" lon="0.62196">
        <ele>44.2</ele>
        <time>2022-05-24 13:21:16</time>
      </trkpt>
      <trkpt lat="41.03241" lon="0.62188">
        <ele>44.2</ele>
        <time>2022-05-24 13:21:17</time>
      </trkpt>
      <trkpt lat="41.0324" lon="0.62181">
        <ele>44.2</ele>
        <time>2022-05-24 13:21:18</time>
      </trkpt>
      <trkpt lat="41.03239" lon="0.62174">
        <ele>44.4</ele>
        <time>2022-05-24 13:21:19</time>
      </trkpt>
      <trkpt lat="41.03238" lon="0.62165">
        <ele>44.4</ele>
        <time>2022-05-24 13:21:20</time>
      </trkpt>
      <trkpt lat="41.03237" lon="0.62158">
        <ele>44.4</ele>
        <time>2022-05-24 13:21:21</time>
      </trkpt>
      <trkpt lat="41.03236" lon="0.6215">
        <ele>44.4</ele>
        <time>2022-05-24 13:21:22</time>
      </trkpt>
      <trkpt lat="41.03236" lon="0.62143">
        <ele>44.4</ele>
        <time>2022-05-24 13:21:23</time>
      </trkpt>
      <trkpt lat="41.03235" lon="0.62135">
        <ele>44.4</ele>
        <time>2022-05-24 13:21:24</time>
      </trkpt>
      <trkpt lat="41.03234" lon="0.62128">
        <ele>44.6</ele>
        <time>2022-05-24 13:21:25</time>
      </trkpt>
      <trkpt lat="41.03233" lon="0.6212">
        <ele>44.6</ele>
        <time>2022-05-24 13:21:26</time>
      </trkpt>
      <trkpt lat="41.03232" lon="0.62112">
        <ele>44.6</ele>
        <time>2022-05-24 13:21:27</time>
      </trkpt>
      <trkpt lat="41.03232" lon="0.62104">
        <ele>44.6</ele>
        <time>2022-05-24 13:21:28</time>
      </trkpt>
      <trkpt lat="41.03231" lon="0.62098">
        <ele>44.6</ele>
        <time>2022-05-24 13:21:29</time>
      </trkpt>
      <trkpt lat="41.0323" lon="0.62089">
        <ele>44.6</ele>
        <time>2022-05-24 13:21:30</time>
      </trkpt>
      <trkpt lat="41.0323" lon="0.62082">
        <ele>44.6</ele>
        <time>2022-05-24 13:21:31</time>
      </trkpt>
      <trkpt lat="41.0323" lon="0.62074">
        <ele>44.8</ele>
        <time>2022-05-24 13:21:32</time>
      </trkpt>
      <trkpt lat="41.03229" lon="0.62067">
        <ele>44.8</ele>
        <time>2022-05-24 13:21:33</time>
      </trkpt>
      <trkpt lat="41.03228" lon="0.62058">
        <ele>44.8</ele>
        <time>2022-05-24 13:21:34</time>
      </trkpt>
      <trkpt lat="41.03227" lon="0.62051">
        <ele>44.8</ele>
        <time>2022-05-24 13:21:35</time>
      </trkpt>
      <trkpt lat="41.03226" lon="0.62043">
        <ele>44.8</ele>
        <time>2022-05-24 13:21:36</time>
      </trkpt>
      <trkpt lat="41.03225" lon="0.62036">
        <ele>44.8</ele>
        <time>2022-05-24 13:21:37</time>
      </trkpt>
      <trkpt lat="41.03225" lon="0.62027">
        <ele>45</ele>
        <time>2022-05-24 13:21:38</time>
      </trkpt>
      <trkpt lat="41.03225" lon="0.6202">
        <ele>45</ele>
        <time>2022-05-24 13:21:39</time>
      </trkpt>
      <trkpt lat="41.03224" lon="0.62011">
        <ele>45</ele>
        <time>2022-05-24 13:21:40</time>
      </trkpt>
      <trkpt lat="41.03223" lon="0.62005">
        <ele>45.2</ele>
        <time>2022-05-24 13:21:41</time>
      </trkpt>
      <trkpt lat="41.03223" lon="0.61996">
        <ele>45.2</ele>
        <time>2022-05-24 13:21:42</time>
      </trkpt>
      <trkpt lat="41.03222" lon="0.61989">
        <ele>45.2</ele>
        <time>2022-05-24 13:21:43</time>
      </trkpt>
      <trkpt lat="41.03222" lon="0.6198">
        <ele>45.2</ele>
        <time>2022-05-24 13:21:44</time>
      </trkpt>
      <trkpt lat="41.03221" lon="0.61973">
        <ele>45.2</ele>
        <time>2022-05-24 13:21:45</time>
      </trkpt>
      <trkpt lat="41.0322" lon="0.61964">
        <ele>45.2</ele>
        <time>2022-05-24 13:21:46</time>
      </trkpt>
      <trkpt lat="41.0322" lon="0.61958">
        <ele>45.2</ele>
        <time>2022-05-24 13:21:47</time>
      </trkpt>
      <trkpt lat="41.03219" lon="0.61949">
        <ele>45.2</ele>
        <time>2022-05-24 13:21:48</time>
      </trkpt>
      <trkpt lat="41.03218" lon="0.61941">
        <ele>45.4</ele>
        <time>2022-05-24 13:21:49</time>
      </trkpt>
      <trkpt lat="41.03217" lon="0.61933">
        <ele>45.4</ele>
        <time>2022-05-24 13:21:50</time>
      </trkpt>
      <trkpt lat="41.03217" lon="0.61926">
        <ele>45.4</ele>
        <time>2022-05-24 13:21:51</time>
      </trkpt>
      <trkpt lat="41.03216" lon="0.61917">
        <ele>45.4</ele>
        <time>2022-05-24 13:21:52</time>
      </trkpt>
      <trkpt lat="41.03215" lon="0.6191">
        <ele>45.6</ele>
        <time>2022-05-24 13:21:53</time>
      </trkpt>
      <trkpt lat="41.03215" lon="0.61901">
        <ele>45.6</ele>
        <time>2022-05-24 13:21:54</time>
      </trkpt>
      <trkpt lat="41.03214" lon="0.61893">
        <ele>45.6</ele>
        <time>2022-05-24 13:21:55</time>
      </trkpt>
      <trkpt lat="41.03213" lon="0.61885">
        <ele>45.8</ele>
        <time>2022-05-24 13:21:56</time>
      </trkpt>
      <trkpt lat="41.03212" lon="0.61878">
        <ele>45.8</ele>
        <time>2022-05-24 13:21:57</time>
      </trkpt>
      <trkpt lat="41.03212" lon="0.61869">
        <ele>45.8</ele>
        <time>2022-05-24 13:21:58</time>
      </trkpt>
      <trkpt lat="41.03211" lon="0.61861">
        <ele>45.8</ele>
        <time>2022-05-24 13:21:59</time>
      </trkpt>
      <trkpt lat="41.0321" lon="0.61852">
        <ele>45.8</ele>
        <time>2022-05-24 13:22:00</time>
      </trkpt>
      <trkpt lat="41.0321" lon="0.61845">
        <ele>45.8</ele>
        <time>2022-05-24 13:22:01</time>
      </trkpt>
      <trkpt lat="41.03209" lon="0.61836">
        <ele>45.8</ele>
        <time>2022-05-24 13:22:02</time>
      </trkpt>
      <trkpt lat="41.03209" lon="0.61829">
        <ele>46</ele>
        <time>2022-05-24 13:22:03</time>
      </trkpt>
      <trkpt lat="41.03209" lon="0.61819">
        <ele>46</ele>
        <time>2022-05-24 13:22:04</time>
      </trkpt>
      <trkpt lat="41.03209" lon="0.61812">
        <ele>46</ele>
        <time>2022-05-24 13:22:05</time>
      </trkpt>
      <trkpt lat="41.03208" lon="0.61804">
        <ele>46</ele>
        <time>2022-05-24 13:22:06</time>
      </trkpt>
      <trkpt lat="41.03208" lon="0.61797">
        <ele>46</ele>
        <time>2022-05-24 13:22:07</time>
      </trkpt>
      <trkpt lat="41.03208" lon="0.61788">
        <ele>46</ele>
        <time>2022-05-24 13:22:08</time>
      </trkpt>
      <trkpt lat="41.03208" lon="0.61782">
        <ele>46</ele>
        <time>2022-05-24 13:22:09</time>
      </trkpt>
      <trkpt lat="41.03209" lon="0.61773">
        <ele>46</ele>
        <time>2022-05-24 13:22:10</time>
      </trkpt>
      <trkpt lat="41.03209" lon="0.61765">
        <ele>46</ele>
        <time>2022-05-24 13:22:11</time>
      </trkpt>
      <trkpt lat="41.0321" lon="0.61757">
        <ele>46</ele>
        <time>2022-05-24 13:22:12</time>
      </trkpt>
      <trkpt lat="41.0321" lon="0.61749">
        <ele>46</ele>
        <time>2022-05-24 13:22:13</time>
      </trkpt>
      <trkpt lat="41.0321" lon="0.61741">
        <ele>46</ele>
        <time>2022-05-24 13:22:14</time>
      </trkpt>
      <trkpt lat="41.03211" lon="0.61734">
        <ele>46.2</ele>
        <time>2022-05-24 13:22:15</time>
      </trkpt>
      <trkpt lat="41.03212" lon="0.61726">
        <ele>46.2</ele>
        <time>2022-05-24 13:22:16</time>
      </trkpt>
      <trkpt lat="41.03212" lon="0.6172">
        <ele>46.2</ele>
        <time>2022-05-24 13:22:17</time>
      </trkpt>
      <trkpt lat="41.03213" lon="0.61711">
        <ele>46.2</ele>
        <time>2022-05-24 13:22:18</time>
      </trkpt>
      <trkpt lat="41.03214" lon="0.61704">
        <ele>46.4</ele>
        <time>2022-05-24 13:22:19</time>
      </trkpt>
      <trkpt lat="41.03215" lon="0.61697">
        <ele>46.6</ele>
        <time>2022-05-24 13:22:20</time>
      </trkpt>
      <trkpt lat="41.03215" lon="0.6169">
        <ele>46.6</ele>
        <time>2022-05-24 13:22:21</time>
      </trkpt>
      <trkpt lat="41.03216" lon="0.61683">
        <ele>46.6</ele>
        <time>2022-05-24 13:22:22</time>
      </trkpt>
      <trkpt lat="41.03217" lon="0.61677">
        <ele>46.6</ele>
        <time>2022-05-24 13:22:23</time>
      </trkpt>
      <trkpt lat="41.03218" lon="0.61669">
        <ele>46.6</ele>
        <time>2022-05-24 13:22:24</time>
      </trkpt>
      <trkpt lat="41.03219" lon="0.61662">
        <ele>46.6</ele>
        <time>2022-05-24 13:22:25</time>
      </trkpt>
      <trkpt lat="41.03219" lon="0.61655">
        <ele>46.6</ele>
        <time>2022-05-24 13:22:26</time>
      </trkpt>
      <trkpt lat="41.0322" lon="0.61648">
        <ele>46.6</ele>
        <time>2022-05-24 13:22:27</time>
      </trkpt>
      <trkpt lat="41.03221" lon="0.61641">
        <ele>46.8</ele>
        <time>2022-05-24 13:22:28</time>
      </trkpt>
      <trkpt lat="41.03222" lon="0.61634">
        <ele>46.8</ele>
        <time>2022-05-24 13:22:29</time>
      </trkpt>
      <trkpt lat="41.03223" lon="0.61627">
        <ele>46.8</ele>
        <time>2022-05-24 13:22:30</time>
      </trkpt>
      <trkpt lat="41.03224" lon="0.61621">
        <ele>46.8</ele>
        <time>2022-05-24 13:22:31</time>
      </trkpt>
      <trkpt lat="41.03224" lon="0.61613">
        <ele>46.8</ele>
        <time>2022-05-24 13:22:32</time>
      </trkpt>
      <trkpt lat="41.03225" lon="0.61608">
        <ele>46.8</ele>
        <time>2022-05-24 13:22:33</time>
      </trkpt>
      <trkpt lat="41.03226" lon="0.61599">
        <ele>46.8</ele>
        <time>2022-05-24 13:22:34</time>
      </trkpt>
      <trkpt lat="41.03226" lon="0.61594">
        <ele>46.8</ele>
        <time>2022-05-24 13:22:35</time>
      </trkpt>
      <trkpt lat="41.03227" lon="0.61586">
        <ele>47</ele>
        <time>2022-05-24 13:22:36</time>
      </trkpt>
      <trkpt lat="41.03227" lon="0.61581">
        <ele>47</ele>
        <time>2022-05-24 13:22:37</time>
      </trkpt>
      <trkpt lat="41.03228" lon="0.61573">
        <ele>47</ele>
        <time>2022-05-24 13:22:38</time>
      </trkpt>
      <trkpt lat="41.03229" lon="0.61567">
        <ele>47</ele>
        <time>2022-05-24 13:22:39</time>
      </trkpt>
      <trkpt lat="41.03228" lon="0.61559">
        <ele>47</ele>
        <time>2022-05-24 13:22:40</time>
      </trkpt>
      <trkpt lat="41.03228" lon="0.61553">
        <ele>47.2</ele>
        <time>2022-05-24 13:22:41</time>
      </trkpt>
      <trkpt lat="41.03228" lon="0.61545">
        <ele>47.2</ele>
        <time>2022-05-24 13:22:42</time>
      </trkpt>
      <trkpt lat="41.03227" lon="0.61537">
        <ele>47.2</ele>
        <time>2022-05-24 13:22:43</time>
      </trkpt>
      <trkpt lat="41.03227" lon="0.6153">
        <ele>47.2</ele>
        <time>2022-05-24 13:22:44</time>
      </trkpt>
      <trkpt lat="41.03226" lon="0.61523">
        <ele>47.4</ele>
        <time>2022-05-24 13:22:45</time>
      </trkpt>
      <trkpt lat="41.03225" lon="0.61514">
        <ele>47.4</ele>
        <time>2022-05-24 13:22:46</time>
      </trkpt>
      <trkpt lat="41.03224" lon="0.61508">
        <ele>47.2</ele>
        <time>2022-05-24 13:22:47</time>
      </trkpt>
      <trkpt lat="41.03223" lon="0.61499">
        <ele>47.2</ele>
        <time>2022-05-24 13:22:48</time>
      </trkpt>
      <trkpt lat="41.03223" lon="0.61492">
        <ele>47.2</ele>
        <time>2022-05-24 13:22:49</time>
      </trkpt>
      <trkpt lat="41.03221" lon="0.61484">
        <ele>47.2</ele>
        <time>2022-05-24 13:22:50</time>
      </trkpt>
      <trkpt lat="41.0322" lon="0.61478">
        <ele>47</ele>
        <time>2022-05-24 13:22:51</time>
      </trkpt>
      <trkpt lat="41.03218" lon="0.61469">
        <ele>47</ele>
        <time>2022-05-24 13:22:52</time>
      </trkpt>
      <trkpt lat="41.03217" lon="0.61462">
        <ele>46.8</ele>
        <time>2022-05-24 13:22:53</time>
      </trkpt>
      <trkpt lat="41.03216" lon="0.61453">
        <ele>46.8</ele>
        <time>2022-05-24 13:22:54</time>
      </trkpt>
      <trkpt lat="41.03215" lon="0.61446">
        <ele>46.6</ele>
        <time>2022-05-24 13:22:55</time>
      </trkpt>
      <trkpt lat="41.03213" lon="0.61436">
        <ele>46.6</ele>
        <time>2022-05-24 13:22:56</time>
      </trkpt>
      <trkpt lat="41.03211" lon="0.61429">
        <ele>46.4</ele>
        <time>2022-05-24 13:22:57</time>
      </trkpt>
      <trkpt lat="41.0321" lon="0.6142">
        <ele>46.2</ele>
        <time>2022-05-24 13:22:58</time>
      </trkpt>
      <trkpt lat="41.03208" lon="0.61413">
        <ele>46</ele>
        <time>2022-05-24 13:22:59</time>
      </trkpt>
      <trkpt lat="41.03207" lon="0.61404">
        <ele>45.8</ele>
        <time>2022-05-24 13:23:00</time>
      </trkpt>
      <trkpt lat="41.03205" lon="0.61395">
        <ele>45.8</ele>
        <time>2022-05-24 13:23:01</time>
      </trkpt>
      <trkpt lat="41.03204" lon="0.61387">
        <ele>45.6</ele>
        <time>2022-05-24 13:23:02</time>
      </trkpt>
      <trkpt lat="41.03203" lon="0.61379">
        <ele>45.4</ele>
        <time>2022-05-24 13:23:03</time>
      </trkpt>
      <trkpt lat="41.03201" lon="0.6137">
        <ele>45.2</ele>
        <time>2022-05-24 13:23:04</time>
      </trkpt>
      <trkpt lat="41.032" lon="0.61363">
        <ele>45.2</ele>
        <time>2022-05-24 13:23:05</time>
      </trkpt>
      <trkpt lat="41.03198" lon="0.61353">
        <ele>45</ele>
        <time>2022-05-24 13:23:06</time>
      </trkpt>
      <trkpt lat="41.03197" lon="0.61345">
        <ele>44.8</ele>
        <time>2022-05-24 13:23:07</time>
      </trkpt>
      <trkpt lat="41.03196" lon="0.61336">
        <ele>44.6</ele>
        <time>2022-05-24 13:23:08</time>
      </trkpt>
      <trkpt lat="41.03195" lon="0.61329">
        <ele>44.4</ele>
        <time>2022-05-24 13:23:09</time>
      </trkpt>
      <trkpt lat="41.03194" lon="0.61319">
        <ele>44.4</ele>
        <time>2022-05-24 13:23:10</time>
      </trkpt>
      <trkpt lat="41.03193" lon="0.61312">
        <ele>44.2</ele>
        <time>2022-05-24 13:23:11</time>
      </trkpt>
      <trkpt lat="41.03193" lon="0.61302">
        <ele>44.2</ele>
        <time>2022-05-24 13:23:12</time>
      </trkpt>
      <trkpt lat="41.03192" lon="0.61296">
        <ele>44.2</ele>
        <time>2022-05-24 13:23:13</time>
      </trkpt>
      <trkpt lat="41.03192" lon="0.61286">
        <ele>44.2</ele>
        <time>2022-05-24 13:23:14</time>
      </trkpt>
      <trkpt lat="41.03192" lon="0.61278">
        <ele>44.2</ele>
        <time>2022-05-24 13:23:15</time>
      </trkpt>
      <trkpt lat="41.03192" lon="0.61269">
        <ele>44.2</ele>
        <time>2022-05-24 13:23:16</time>
      </trkpt>
      <trkpt lat="41.03192" lon="0.61263">
        <ele>44.4</ele>
        <time>2022-05-24 13:23:17</time>
      </trkpt>
      <trkpt lat="41.03192" lon="0.61254">
        <ele>44.4</ele>
        <time>2022-05-24 13:23:18</time>
      </trkpt>
      <trkpt lat="41.03192" lon="0.61248">
        <ele>44.4</ele>
        <time>2022-05-24 13:23:19</time>
      </trkpt>
      <trkpt lat="41.03193" lon="0.61239">
        <ele>44.6</ele>
        <time>2022-05-24 13:23:20</time>
      </trkpt>
      <trkpt lat="41.03193" lon="0.61232">
        <ele>44.6</ele>
        <time>2022-05-24 13:23:21</time>
      </trkpt>
      <trkpt lat="41.03193" lon="0.61223">
        <ele>44.6</ele>
        <time>2022-05-24 13:23:22</time>
      </trkpt>
      <trkpt lat="41.03193" lon="0.61217">
        <ele>44.8</ele>
        <time>2022-05-24 13:23:23</time>
      </trkpt>
      <trkpt lat="41.03194" lon="0.61207">
        <ele>44.8</ele>
        <time>2022-05-24 13:23:24</time>
      </trkpt>
      <trkpt lat="41.03194" lon="0.612">
        <ele>45</ele>
        <time>2022-05-24 13:23:25</time>
      </trkpt>
      <trkpt lat="41.03194" lon="0.61192">
        <ele>45</ele>
        <time>2022-05-24 13:23:26</time>
      </trkpt>
      <trkpt lat="41.03195" lon="0.61186">
        <ele>45</ele>
        <time>2022-05-24 13:23:27</time>
      </trkpt>
      <trkpt lat="41.03195" lon="0.61177">
        <ele>45.2</ele>
        <time>2022-05-24 13:23:28</time>
      </trkpt>
      <trkpt lat="41.03195" lon="0.61171">
        <ele>45.2</ele>
        <time>2022-05-24 13:23:29</time>
      </trkpt>
      <trkpt lat="41.03195" lon="0.61162">
        <ele>45.4</ele>
        <time>2022-05-24 13:23:30</time>
      </trkpt>
      <trkpt lat="41.03195" lon="0.61156">
        <ele>45.4</ele>
        <time>2022-05-24 13:23:31</time>
      </trkpt>
      <trkpt lat="41.03195" lon="0.61147">
        <ele>45.4</ele>
        <time>2022-05-24 13:23:32</time>
      </trkpt>
      <trkpt lat="41.03195" lon="0.6114">
        <ele>45.4</ele>
        <time>2022-05-24 13:23:33</time>
      </trkpt>
      <trkpt lat="41.03194" lon="0.61132">
        <ele>45.6</ele>
        <time>2022-05-24 13:23:34</time>
      </trkpt>
      <trkpt lat="41.03194" lon="0.61126">
        <ele>45.6</ele>
        <time>2022-05-24 13:23:35</time>
      </trkpt>
      <trkpt lat="41.03193" lon="0.61118">
        <ele>45.6</ele>
        <time>2022-05-24 13:23:36</time>
      </trkpt>
      <trkpt lat="41.03192" lon="0.61111">
        <ele>45.6</ele>
        <time>2022-05-24 13:23:37</time>
      </trkpt>
      <trkpt lat="41.03191" lon="0.61101">
        <ele>45.6</ele>
        <time>2022-05-24 13:23:38</time>
      </trkpt>
      <trkpt lat="41.0319" lon="0.61094">
        <ele>45.6</ele>
        <time>2022-05-24 13:23:39</time>
      </trkpt>
      <trkpt lat="41.03189" lon="0.61085">
        <ele>45.6</ele>
        <time>2022-05-24 13:23:40</time>
      </trkpt>
      <trkpt lat="41.03189" lon="0.61079">
        <ele>45.6</ele>
        <time>2022-05-24 13:23:41</time>
      </trkpt>
      <trkpt lat="41.03187" lon="0.61069">
        <ele>45.6</ele>
        <time>2022-05-24 13:23:42</time>
      </trkpt>
      <trkpt lat="41.03186" lon="0.61062">
        <ele>45.6</ele>
        <time>2022-05-24 13:23:43</time>
      </trkpt>
      <trkpt lat="41.03184" lon="0.61053">
        <ele>45.4</ele>
        <time>2022-05-24 13:23:44</time>
      </trkpt>
      <trkpt lat="41.03182" lon="0.61046">
        <ele>45.4</ele>
        <time>2022-05-24 13:23:45</time>
      </trkpt>
      <trkpt lat="41.0318" lon="0.61037">
        <ele>45.4</ele>
        <time>2022-05-24 13:23:46</time>
      </trkpt>
      <trkpt lat="41.03179" lon="0.6103">
        <ele>45.4</ele>
        <time>2022-05-24 13:23:47</time>
      </trkpt>
      <trkpt lat="41.03177" lon="0.61021">
        <ele>45.4</ele>
        <time>2022-05-24 13:23:48</time>
      </trkpt>
      <trkpt lat="41.03176" lon="0.61014">
        <ele>45.4</ele>
        <time>2022-05-24 13:23:49</time>
      </trkpt>
      <trkpt lat="41.03174" lon="0.61005">
        <ele>45.2</ele>
        <time>2022-05-24 13:23:50</time>
      </trkpt>
      <trkpt lat="41.03173" lon="0.60998">
        <ele>45.2</ele>
        <time>2022-05-24 13:23:51</time>
      </trkpt>
      <trkpt lat="41.03171" lon="0.60989">
        <ele>45</ele>
        <time>2022-05-24 13:23:52</time>
      </trkpt>
      <trkpt lat="41.0317" lon="0.60982">
        <ele>45</ele>
        <time>2022-05-24 13:23:53</time>
      </trkpt>
      <trkpt lat="41.03169" lon="0.60973">
        <ele>44.8</ele>
        <time>2022-05-24 13:23:54</time>
      </trkpt>
      <trkpt lat="41.03167" lon="0.60965">
        <ele>44.8</ele>
        <time>2022-05-24 13:23:55</time>
      </trkpt>
      <trkpt lat="41.03165" lon="0.60956">
        <ele>44.6</ele>
        <time>2022-05-24 13:23:56</time>
      </trkpt>
      <trkpt lat="41.03164" lon="0.60949">
        <ele>44.6</ele>
        <time>2022-05-24 13:23:57</time>
      </trkpt>
      <trkpt lat="41.03162" lon="0.6094">
        <ele>44.6</ele>
        <time>2022-05-24 13:23:58</time>
      </trkpt>
      <trkpt lat="41.03161" lon="0.60934">
        <ele>44.4</ele>
        <time>2022-05-24 13:23:59</time>
      </trkpt>
      <trkpt lat="41.03159" lon="0.60925">
        <ele>44.2</ele>
        <time>2022-05-24 13:24:00</time>
      </trkpt>
      <trkpt lat="41.03157" lon="0.60918">
        <ele>44.2</ele>
        <time>2022-05-24 13:24:01</time>
      </trkpt>
      <trkpt lat="41.03156" lon="0.60909">
        <ele>44.2</ele>
        <time>2022-05-24 13:24:02</time>
      </trkpt>
      <trkpt lat="41.03154" lon="0.60903">
        <ele>44</ele>
        <time>2022-05-24 13:24:03</time>
      </trkpt>
      <trkpt lat="41.03152" lon="0.60894">
        <ele>44</ele>
        <time>2022-05-24 13:24:04</time>
      </trkpt>
      <trkpt lat="41.03151" lon="0.60887">
        <ele>44</ele>
        <time>2022-05-24 13:24:05</time>
      </trkpt>
      <trkpt lat="41.03149" lon="0.60878">
        <ele>44</ele>
        <time>2022-05-24 13:24:06</time>
      </trkpt>
      <trkpt lat="41.03147" lon="0.60872">
        <ele>43.8</ele>
        <time>2022-05-24 13:24:07</time>
      </trkpt>
      <trkpt lat="41.03145" lon="0.60862">
        <ele>43.8</ele>
        <time>2022-05-24 13:24:08</time>
      </trkpt>
      <trkpt lat="41.03144" lon="0.60856">
        <ele>43.8</ele>
        <time>2022-05-24 13:24:09</time>
      </trkpt>
      <trkpt lat="41.03142" lon="0.60847">
        <ele>43.8</ele>
        <time>2022-05-24 13:24:10</time>
      </trkpt>
      <trkpt lat="41.03141" lon="0.60841">
        <ele>43.6</ele>
        <time>2022-05-24 13:24:11</time>
      </trkpt>
      <trkpt lat="41.0314" lon="0.60832">
        <ele>43.6</ele>
        <time>2022-05-24 13:24:12</time>
      </trkpt>
      <trkpt lat="41.03138" lon="0.60825">
        <ele>43.6</ele>
        <time>2022-05-24 13:24:13</time>
      </trkpt>
      <trkpt lat="41.03137" lon="0.60816">
        <ele>43.6</ele>
        <time>2022-05-24 13:24:14</time>
      </trkpt>
      <trkpt lat="41.03136" lon="0.6081">
        <ele>43.6</ele>
        <time>2022-05-24 13:24:15</time>
      </trkpt>
      <trkpt lat="41.03135" lon="0.60801">
        <ele>43.6</ele>
        <time>2022-05-24 13:24:16</time>
      </trkpt>
      <trkpt lat="41.03133" lon="0.60795">
        <ele>43.6</ele>
        <time>2022-05-24 13:24:17</time>
      </trkpt>
      <trkpt lat="41.03132" lon="0.60786">
        <ele>43.6</ele>
        <time>2022-05-24 13:24:18</time>
      </trkpt>
      <trkpt lat="41.03131" lon="0.60779">
        <ele>43.6</ele>
        <time>2022-05-24 13:24:19</time>
      </trkpt>
      <trkpt lat="41.0313" lon="0.60771">
        <ele>43.6</ele>
        <time>2022-05-24 13:24:20</time>
      </trkpt>
      <trkpt lat="41.03129" lon="0.60765">
        <ele>43.6</ele>
        <time>2022-05-24 13:24:21</time>
      </trkpt>
      <trkpt lat="41.03127" lon="0.60757">
        <ele>43.6</ele>
        <time>2022-05-24 13:24:22</time>
      </trkpt>
      <trkpt lat="41.03127" lon="0.60751">
        <ele>43.6</ele>
        <time>2022-05-24 13:24:23</time>
      </trkpt>
      <trkpt lat="41.03125" lon="0.60743">
        <ele>43.8</ele>
        <time>2022-05-24 13:24:24</time>
      </trkpt>
      <trkpt lat="41.03124" lon="0.60737">
        <ele>43.8</ele>
        <time>2022-05-24 13:24:25</time>
      </trkpt>
      <trkpt lat="41.03123" lon="0.60728">
        <ele>43.8</ele>
        <time>2022-05-24 13:24:26</time>
      </trkpt>
      <trkpt lat="41.03123" lon="0.60723">
        <ele>44</ele>
        <time>2022-05-24 13:24:27</time>
      </trkpt>
      <trkpt lat="41.03121" lon="0.60714">
        <ele>44</ele>
        <time>2022-05-24 13:24:28</time>
      </trkpt>
      <trkpt lat="41.03121" lon="0.60709">
        <ele>44</ele>
        <time>2022-05-24 13:24:29</time>
      </trkpt>
      <trkpt lat="41.0312" lon="0.607">
        <ele>44.2</ele>
        <time>2022-05-24 13:24:30</time>
      </trkpt>
      <trkpt lat="41.0312" lon="0.60694">
        <ele>44.2</ele>
        <time>2022-05-24 13:24:31</time>
      </trkpt>
      <trkpt lat="41.03119" lon="0.60686">
        <ele>44.4</ele>
        <time>2022-05-24 13:24:32</time>
      </trkpt>
      <trkpt lat="41.03119" lon="0.6068">
        <ele>44.4</ele>
        <time>2022-05-24 13:24:33</time>
      </trkpt>
      <trkpt lat="41.03118" lon="0.60673">
        <ele>44.6</ele>
        <time>2022-05-24 13:24:34</time>
      </trkpt>
      <trkpt lat="41.03117" lon="0.60668">
        <ele>44.8</ele>
        <time>2022-05-24 13:24:35</time>
      </trkpt>
      <trkpt lat="41.03116" lon="0.6066">
        <ele>44.8</ele>
        <time>2022-05-24 13:24:36</time>
      </trkpt>
      <trkpt lat="41.03116" lon="0.60655">
        <ele>45</ele>
        <time>2022-05-24 13:24:37</time>
      </trkpt>
      <trkpt lat="41.03114" lon="0.60648">
        <ele>45.2</ele>
        <time>2022-05-24 13:24:38</time>
      </trkpt>
      <trkpt lat="41.03113" lon="0.60643">
        <ele>45.2</ele>
        <time>2022-05-24 13:24:39</time>
      </trkpt>
      <trkpt lat="41.03112" lon="0.60636">
        <ele>45.2</ele>
        <time>2022-05-24 13:24:40</time>
      </trkpt>
      <trkpt lat="41.03112" lon="0.6063">
        <ele>45.4</ele>
        <time>2022-05-24 13:24:41</time>
      </trkpt>
      <trkpt lat="41.03111" lon="0.60623">
        <ele>45.6</ele>
        <time>2022-05-24 13:24:42</time>
      </trkpt>
      <trkpt lat="41.03109" lon="0.60619">
        <ele>45.6</ele>
        <time>2022-05-24 13:24:43</time>
      </trkpt>
      <trkpt lat="41.03108" lon="0.60611">
        <ele>45.8</ele>
        <time>2022-05-24 13:24:44</time>
      </trkpt>
      <trkpt lat="41.03107" lon="0.60606">
        <ele>45.8</ele>
        <time>2022-05-24 13:24:45</time>
      </trkpt>
      <trkpt lat="41.03106" lon="0.60598">
        <ele>46</ele>
        <time>2022-05-24 13:24:46</time>
      </trkpt>
      <trkpt lat="41.03105" lon="0.60593">
        <ele>46</ele>
        <time>2022-05-24 13:24:47</time>
      </trkpt>
      <trkpt lat="41.03103" lon="0.60586">
        <ele>46.2</ele>
        <time>2022-05-24 13:24:48</time>
      </trkpt>
      <trkpt lat="41.03102" lon="0.60581">
        <ele>46.4</ele>
        <time>2022-05-24 13:24:49</time>
      </trkpt>
      <trkpt lat="41.031" lon="0.60573">
        <ele>46.4</ele>
        <time>2022-05-24 13:24:50</time>
      </trkpt>
      <trkpt lat="41.03099" lon="0.60569">
        <ele>46.6</ele>
        <time>2022-05-24 13:24:51</time>
      </trkpt>
      <trkpt lat="41.03097" lon="0.60563">
        <ele>47</ele>
        <time>2022-05-24 13:24:52</time>
      </trkpt>
      <trkpt lat="41.03095" lon="0.60558">
        <ele>47</ele>
        <time>2022-05-24 13:24:53</time>
      </trkpt>
      <trkpt lat="41.03092" lon="0.60551">
        <ele>47.4</ele>
        <time>2022-05-24 13:24:54</time>
      </trkpt>
      <trkpt lat="41.0309" lon="0.60546">
        <ele>47.6</ele>
        <time>2022-05-24 13:24:55</time>
      </trkpt>
      <trkpt lat="41.03087" lon="0.60539">
        <ele>47.6</ele>
        <time>2022-05-24 13:24:56</time>
      </trkpt>
      <trkpt lat="41.03085" lon="0.60534">
        <ele>47.6</ele>
        <time>2022-05-24 13:24:57</time>
      </trkpt>
      <trkpt lat="41.03081" lon="0.60526">
        <ele>47.8</ele>
        <time>2022-05-24 13:24:58</time>
      </trkpt>
      <trkpt lat="41.03079" lon="0.60522">
        <ele>47.8</ele>
        <time>2022-05-24 13:24:59</time>
      </trkpt>
      <trkpt lat="41.03075" lon="0.60515">
        <ele>48</ele>
        <time>2022-05-24 13:25:00</time>
      </trkpt>
      <trkpt lat="41.03072" lon="0.60511">
        <ele>48.2</ele>
        <time>2022-05-24 13:25:01</time>
      </trkpt>
      <trkpt lat="41.03068" lon="0.60505">
        <ele>48.2</ele>
        <time>2022-05-24 13:25:02</time>
      </trkpt>
      <trkpt lat="41.03065" lon="0.60501">
        <ele>48.4</ele>
        <time>2022-05-24 13:25:03</time>
      </trkpt>
      <trkpt lat="41.03061" lon="0.60495">
        <ele>48.4</ele>
        <time>2022-05-24 13:25:04</time>
      </trkpt>
      <trkpt lat="41.03059" lon="0.60491">
        <ele>48.6</ele>
        <time>2022-05-24 13:25:05</time>
      </trkpt>
      <trkpt lat="41.03054" lon="0.60485">
        <ele>48.6</ele>
        <time>2022-05-24 13:25:06</time>
      </trkpt>
      <trkpt lat="41.03052" lon="0.60482">
        <ele>48.6</ele>
        <time>2022-05-24 13:25:07</time>
      </trkpt>
      <trkpt lat="41.03047" lon="0.60477">
        <ele>48.8</ele>
        <time>2022-05-24 13:25:08</time>
      </trkpt>
      <trkpt lat="41.03044" lon="0.60473">
        <ele>48.8</ele>
        <time>2022-05-24 13:25:09</time>
      </trkpt>
      <trkpt lat="41.03039" lon="0.60468">
        <ele>48.8</ele>
        <time>2022-05-24 13:25:10</time>
      </trkpt>
      <trkpt lat="41.03036" lon="0.60465">
        <ele>49</ele>
        <time>2022-05-24 13:25:11</time>
      </trkpt>
      <trkpt lat="41.03032" lon="0.6046">
        <ele>49</ele>
        <time>2022-05-24 13:25:12</time>
      </trkpt>
      <trkpt lat="41.03028" lon="0.60456">
        <ele>49.2</ele>
        <time>2022-05-24 13:25:13</time>
      </trkpt>
      <trkpt lat="41.03024" lon="0.60452">
        <ele>49.2</ele>
        <time>2022-05-24 13:25:14</time>
      </trkpt>
      <trkpt lat="41.03021" lon="0.6045">
        <ele>49.4</ele>
        <time>2022-05-24 13:25:15</time>
      </trkpt>
      <trkpt lat="41.03016" lon="0.60446">
        <ele>49.6</ele>
        <time>2022-05-24 13:25:16</time>
      </trkpt>
      <trkpt lat="41.03012" lon="0.60443">
        <ele>49.6</ele>
        <time>2022-05-24 13:25:17</time>
      </trkpt>
      <trkpt lat="41.03007" lon="0.60439">
        <ele>49.8</ele>
        <time>2022-05-24 13:25:18</time>
      </trkpt>
      <trkpt lat="41.03004" lon="0.60437">
        <ele>49.8</ele>
        <time>2022-05-24 13:25:19</time>
      </trkpt>
      <trkpt lat="41.02998" lon="0.60433">
        <ele>49.8</ele>
        <time>2022-05-24 13:25:20</time>
      </trkpt>
      <trkpt lat="41.02995" lon="0.60431">
        <ele>50</ele>
        <time>2022-05-24 13:25:21</time>
      </trkpt>
      <trkpt lat="41.02989" lon="0.60428">
        <ele>50</ele>
        <time>2022-05-24 13:25:22</time>
      </trkpt>
      <trkpt lat="41.02986" lon="0.60426">
        <ele>50.2</ele>
        <time>2022-05-24 13:25:23</time>
      </trkpt>
      <trkpt lat="41.0298" lon="0.60423">
        <ele>50.2</ele>
        <time>2022-05-24 13:25:24</time>
      </trkpt>
      <trkpt lat="41.02976" lon="0.60422">
        <ele>50.2</ele>
        <time>2022-05-24 13:25:25</time>
      </trkpt>
      <trkpt lat="41.0297" lon="0.6042">
        <ele>50.4</ele>
        <time>2022-05-24 13:25:26</time>
      </trkpt>
      <trkpt lat="41.02966" lon="0.60419">
        <ele>50.4</ele>
        <time>2022-05-24 13:25:27</time>
      </trkpt>
      <trkpt lat="41.0296" lon="0.60417">
        <ele>50.6</ele>
        <time>2022-05-24 13:25:28</time>
      </trkpt>
      <trkpt lat="41.02957" lon="0.60416">
        <ele>50.6</ele>
        <time>2022-05-24 13:25:29</time>
      </trkpt>
      <trkpt lat="41.0295" lon="0.60414">
        <ele>50.6</ele>
        <time>2022-05-24 13:25:30</time>
      </trkpt>
      <trkpt lat="41.02946" lon="0.60413">
        <ele>50.6</ele>
        <time>2022-05-24 13:25:31</time>
      </trkpt>
      <trkpt lat="41.0294" lon="0.60411">
        <ele>50.8</ele>
        <time>2022-05-24 13:25:32</time>
      </trkpt>
      <trkpt lat="41.02936" lon="0.6041">
        <ele>50.8</ele>
        <time>2022-05-24 13:25:33</time>
      </trkpt>
      <trkpt lat="41.0293" lon="0.60409">
        <ele>50.8</ele>
        <time>2022-05-24 13:25:34</time>
      </trkpt>
      <trkpt lat="41.02927" lon="0.60409">
        <ele>51</ele>
        <time>2022-05-24 13:25:35</time>
      </trkpt>
      <trkpt lat="41.0292" lon="0.60407">
        <ele>51</ele>
        <time>2022-05-24 13:25:36</time>
      </trkpt>
      <trkpt lat="41.02916" lon="0.60407">
        <ele>51.2</ele>
        <time>2022-05-24 13:25:37</time>
      </trkpt>
      <trkpt lat="41.02911" lon="0.60406">
        <ele>51.2</ele>
        <time>2022-05-24 13:25:38</time>
      </trkpt>
      <trkpt lat="41.02906" lon="0.60405">
        <ele>51.4</ele>
        <time>2022-05-24 13:25:39</time>
      </trkpt>
      <trkpt lat="41.02901" lon="0.60405">
        <ele>51.4</ele>
        <time>2022-05-24 13:25:40</time>
      </trkpt>
      <trkpt lat="41.02897" lon="0.60404">
        <ele>51.6</ele>
        <time>2022-05-24 13:25:41</time>
      </trkpt>
      <trkpt lat="41.0289" lon="0.60403">
        <ele>51.6</ele>
        <time>2022-05-24 13:25:42</time>
      </trkpt>
      <trkpt lat="41.02887" lon="0.60403">
        <ele>51.8</ele>
        <time>2022-05-24 13:25:43</time>
      </trkpt>
      <trkpt lat="41.02881" lon="0.60402">
        <ele>51.8</ele>
        <time>2022-05-24 13:25:44</time>
      </trkpt>
      <trkpt lat="41.02877" lon="0.60401">
        <ele>52</ele>
        <time>2022-05-24 13:25:45</time>
      </trkpt>
      <trkpt lat="41.02872" lon="0.60401">
        <ele>52</ele>
        <time>2022-05-24 13:25:46</time>
      </trkpt>
      <trkpt lat="41.02868" lon="0.604">
        <ele>52.2</ele>
        <time>2022-05-24 13:25:47</time>
      </trkpt>
      <trkpt lat="41.02862" lon="0.60399">
        <ele>52.2</ele>
        <time>2022-05-24 13:25:48</time>
      </trkpt>
      <trkpt lat="41.02859" lon="0.60399">
        <ele>52.2</ele>
        <time>2022-05-24 13:25:49</time>
      </trkpt>
      <trkpt lat="41.02853" lon="0.60398">
        <ele>52.2</ele>
        <time>2022-05-24 13:25:50</time>
      </trkpt>
      <trkpt lat="41.02849" lon="0.60397">
        <ele>52.4</ele>
        <time>2022-05-24 13:25:51</time>
      </trkpt>
      <trkpt lat="41.02844" lon="0.60396">
        <ele>52.4</ele>
        <time>2022-05-24 13:25:52</time>
      </trkpt>
      <trkpt lat="41.0284" lon="0.60396">
        <ele>52.6</ele>
        <time>2022-05-24 13:25:53</time>
      </trkpt>
      <trkpt lat="41.02837" lon="0.60395">
        <ele>52.6</ele>
        <time>2022-05-24 13:25:54</time>
      </trkpt>
      <trkpt lat="41.02831" lon="0.60395">
        <ele>52.8</ele>
        <time>2022-05-24 13:25:55</time>
      </trkpt>
      <trkpt lat="41.02827" lon="0.60395">
        <ele>52.8</ele>
        <time>2022-05-24 13:25:56</time>
      </trkpt>
      <trkpt lat="41.02823" lon="0.60394">
        <ele>52.8</ele>
        <time>2022-05-24 13:25:57</time>
      </trkpt>
      <trkpt lat="41.02817" lon="0.60393">
        <ele>53</ele>
        <time>2022-05-24 13:25:58</time>
      </trkpt>
      <trkpt lat="41.02814" lon="0.60393">
        <ele>53</ele>
        <time>2022-05-24 13:25:59</time>
      </trkpt>
      <trkpt lat="41.02808" lon="0.60392">
        <ele>53.2</ele>
        <time>2022-05-24 13:26:00</time>
      </trkpt>
      <trkpt lat="41.02804" lon="0.60391">
        <ele>53.2</ele>
        <time>2022-05-24 13:26:01</time>
      </trkpt>
      <trkpt lat="41.02798" lon="0.60391">
        <ele>53.4</ele>
        <time>2022-05-24 13:26:02</time>
      </trkpt>
      <trkpt lat="41.02795" lon="0.6039">
        <ele>53.4</ele>
        <time>2022-05-24 13:26:03</time>
      </trkpt>
      <trkpt lat="41.02788" lon="0.60389">
        <ele>53.4</ele>
        <time>2022-05-24 13:26:04</time>
      </trkpt>
      <trkpt lat="41.02785" lon="0.60389">
        <ele>53.6</ele>
        <time>2022-05-24 13:26:05</time>
      </trkpt>
      <trkpt lat="41.02779" lon="0.60388">
        <ele>53.6</ele>
        <time>2022-05-24 13:26:06</time>
      </trkpt>
      <trkpt lat="41.02775" lon="0.60388">
        <ele>53.8</ele>
        <time>2022-05-24 13:26:07</time>
      </trkpt>
      <trkpt lat="41.02769" lon="0.60387">
        <ele>53.8</ele>
        <time>2022-05-24 13:26:08</time>
      </trkpt>
      <trkpt lat="41.02765" lon="0.60387">
        <ele>53.8</ele>
        <time>2022-05-24 13:26:09</time>
      </trkpt>
      <trkpt lat="41.02759" lon="0.60387">
        <ele>54</ele>
        <time>2022-05-24 13:26:10</time>
      </trkpt>
      <trkpt lat="41.02755" lon="0.60386">
        <ele>54</ele>
        <time>2022-05-24 13:26:11</time>
      </trkpt>
      <trkpt lat="41.02748" lon="0.60386">
        <ele>54.2</ele>
        <time>2022-05-24 13:26:12</time>
      </trkpt>
      <trkpt lat="41.02745" lon="0.60386">
        <ele>54.2</ele>
        <time>2022-05-24 13:26:13</time>
      </trkpt>
      <trkpt lat="41.02739" lon="0.60386">
        <ele>54.4</ele>
        <time>2022-05-24 13:26:14</time>
      </trkpt>
      <trkpt lat="41.02736" lon="0.60387">
        <ele>54.6</ele>
        <time>2022-05-24 13:26:15</time>
      </trkpt>
      <trkpt lat="41.0273" lon="0.60387">
        <ele>54.6</ele>
        <time>2022-05-24 13:26:16</time>
      </trkpt>
      <trkpt lat="41.02727" lon="0.60387">
        <ele>54.6</ele>
        <time>2022-05-24 13:26:17</time>
      </trkpt>
      <trkpt lat="41.02721" lon="0.60388">
        <ele>54.8</ele>
        <time>2022-05-24 13:26:18</time>
      </trkpt>
      <trkpt lat="41.02718" lon="0.60388">
        <ele>54.8</ele>
        <time>2022-05-24 13:26:19</time>
      </trkpt>
      <trkpt lat="41.02712" lon="0.60388">
        <ele>55</ele>
        <time>2022-05-24 13:26:20</time>
      </trkpt>
      <trkpt lat="41.02708" lon="0.60389">
        <ele>55</ele>
        <time>2022-05-24 13:26:21</time>
      </trkpt>
      <trkpt lat="41.02703" lon="0.6039">
        <ele>55</ele>
        <time>2022-05-24 13:26:22</time>
      </trkpt>
      <trkpt lat="41.027" lon="0.6039">
        <ele>55.2</ele>
        <time>2022-05-24 13:26:23</time>
      </trkpt>
      <trkpt lat="41.02694" lon="0.60391">
        <ele>55.2</ele>
        <time>2022-05-24 13:26:24</time>
      </trkpt>
      <trkpt lat="41.02691" lon="0.60391">
        <ele>55.2</ele>
        <time>2022-05-24 13:26:25</time>
      </trkpt>
      <trkpt lat="41.02685" lon="0.60392">
        <ele>55.2</ele>
        <time>2022-05-24 13:26:26</time>
      </trkpt>
      <trkpt lat="41.02682" lon="0.60393">
        <ele>55.4</ele>
        <time>2022-05-24 13:26:27</time>
      </trkpt>
      <trkpt lat="41.02675" lon="0.60394">
        <ele>55.4</ele>
        <time>2022-05-24 13:26:28</time>
      </trkpt>
      <trkpt lat="41.02672" lon="0.60395">
        <ele>55.4</ele>
        <time>2022-05-24 13:26:29</time>
      </trkpt>
      <trkpt lat="41.02665" lon="0.60396">
        <ele>55.4</ele>
        <time>2022-05-24 13:26:30</time>
      </trkpt>
      <trkpt lat="41.02662" lon="0.60397">
        <ele>55.6</ele>
        <time>2022-05-24 13:26:31</time>
      </trkpt>
      <trkpt lat="41.02656" lon="0.60398">
        <ele>55.6</ele>
        <time>2022-05-24 13:26:32</time>
      </trkpt>
      <trkpt lat="41.02652" lon="0.60399">
        <ele>55.6</ele>
        <time>2022-05-24 13:26:33</time>
      </trkpt>
      <trkpt lat="41.02646" lon="0.604">
        <ele>55.8</ele>
        <time>2022-05-24 13:26:34</time>
      </trkpt>
      <trkpt lat="41.02642" lon="0.60401">
        <ele>55.8</ele>
        <time>2022-05-24 13:26:35</time>
      </trkpt>
      <trkpt lat="41.02636" lon="0.60403">
        <ele>55.8</ele>
        <time>2022-05-24 13:26:36</time>
      </trkpt>
      <trkpt lat="41.02633" lon="0.60404">
        <ele>55.8</ele>
        <time>2022-05-24 13:26:37</time>
      </trkpt>
      <trkpt lat="41.02627" lon="0.60405">
        <ele>56</ele>
        <time>2022-05-24 13:26:38</time>
      </trkpt>
      <trkpt lat="41.02623" lon="0.60406">
        <ele>56</ele>
        <time>2022-05-24 13:26:39</time>
      </trkpt>
      <trkpt lat="41.02617" lon="0.60407">
        <ele>56</ele>
        <time>2022-05-24 13:26:40</time>
      </trkpt>
      <trkpt lat="41.02613" lon="0.60408">
        <ele>56</ele>
        <time>2022-05-24 13:26:41</time>
      </trkpt>
      <trkpt lat="41.02607" lon="0.60409">
        <ele>56</ele>
        <time>2022-05-24 13:26:42</time>
      </trkpt>
      <trkpt lat="41.02604" lon="0.6041">
        <ele>55.8</ele>
        <time>2022-05-24 13:26:43</time>
      </trkpt>
      <trkpt lat="41.02598" lon="0.60412">
        <ele>55.8</ele>
        <time>2022-05-24 13:26:44</time>
      </trkpt>
      <trkpt lat="41.02594" lon="0.60413">
        <ele>55.8</ele>
        <time>2022-05-24 13:26:45</time>
      </trkpt>
      <trkpt lat="41.02588" lon="0.60414">
        <ele>56</ele>
        <time>2022-05-24 13:26:46</time>
      </trkpt>
      <trkpt lat="41.02584" lon="0.60415">
        <ele>56</ele>
        <time>2022-05-24 13:26:47</time>
      </trkpt>
      <trkpt lat="41.02579" lon="0.60417">
        <ele>56</ele>
        <time>2022-05-24 13:26:48</time>
      </trkpt>
      <trkpt lat="41.02575" lon="0.60418">
        <ele>56</ele>
        <time>2022-05-24 13:26:49</time>
      </trkpt>
      <trkpt lat="41.02569" lon="0.60419">
        <ele>56</ele>
        <time>2022-05-24 13:26:50</time>
      </trkpt>
      <trkpt lat="41.02565" lon="0.6042">
        <ele>56</ele>
        <time>2022-05-24 13:26:51</time>
      </trkpt>
      <trkpt lat="41.02559" lon="0.60422">
        <ele>56</ele>
        <time>2022-05-24 13:26:52</time>
      </trkpt>
      <trkpt lat="41.02555" lon="0.60423">
        <ele>56.2</ele>
        <time>2022-05-24 13:26:53</time>
      </trkpt>
      <trkpt lat="41.02549" lon="0.60424">
        <ele>56.2</ele>
        <time>2022-05-24 13:26:54</time>
      </trkpt>
      <trkpt lat="41.02546" lon="0.60425">
        <ele>56.2</ele>
        <time>2022-05-24 13:26:55</time>
      </trkpt>
      <trkpt lat="41.0254" lon="0.60427">
        <ele>56.2</ele>
        <time>2022-05-24 13:26:56</time>
      </trkpt>
      <trkpt lat="41.02536" lon="0.60428">
        <ele>56.4</ele>
        <time>2022-05-24 13:26:57</time>
      </trkpt>
      <trkpt lat="41.0253" lon="0.6043">
        <ele>56.4</ele>
        <time>2022-05-24 13:26:58</time>
      </trkpt>
      <trkpt lat="41.02526" lon="0.60431">
        <ele>56.2</ele>
        <time>2022-05-24 13:26:59</time>
      </trkpt>
      <trkpt lat="41.0252" lon="0.60432">
        <ele>56.4</ele>
        <time>2022-05-24 13:27:00</time>
      </trkpt>
      <trkpt lat="41.02516" lon="0.60433">
        <ele>56.8</ele>
        <time>2022-05-24 13:27:01</time>
      </trkpt>
      <trkpt lat="41.0251" lon="0.60435">
        <ele>56.4</ele>
        <time>2022-05-24 13:27:02</time>
      </trkpt>
      <trkpt lat="41.02506" lon="0.60436">
        <ele>56.6</ele>
        <time>2022-05-24 13:27:03</time>
      </trkpt>
      <trkpt lat="41.025" lon="0.60437">
        <ele>56.8</ele>
        <time>2022-05-24 13:27:04</time>
      </trkpt>
      <trkpt lat="41.02495" lon="0.60438">
        <ele>56.8</ele>
        <time>2022-05-24 13:27:05</time>
      </trkpt>
      <trkpt lat="41.02489" lon="0.6044">
        <ele>57</ele>
        <time>2022-05-24 13:27:06</time>
      </trkpt>
      <trkpt lat="41.02486" lon="0.60441">
        <ele>57</ele>
        <time>2022-05-24 13:27:07</time>
      </trkpt>
      <trkpt lat="41.02479" lon="0.60442">
        <ele>57.2</ele>
        <time>2022-05-24 13:27:08</time>
      </trkpt>
      <trkpt lat="41.02475" lon="0.60443">
        <ele>57.2</ele>
        <time>2022-05-24 13:27:09</time>
      </trkpt>
      <trkpt lat="41.02469" lon="0.60445">
        <ele>57.2</ele>
        <time>2022-05-24 13:27:10</time>
      </trkpt>
      <trkpt lat="41.02465" lon="0.60446">
        <ele>57.4</ele>
        <time>2022-05-24 13:27:11</time>
      </trkpt>
      <trkpt lat="41.02459" lon="0.60448">
        <ele>57.4</ele>
        <time>2022-05-24 13:27:12</time>
      </trkpt>
      <trkpt lat="41.02453" lon="0.6045">
        <ele>57.4</ele>
        <time>2022-05-24 13:27:13</time>
      </trkpt>
      <trkpt lat="41.02446" lon="0.60453">
        <ele>57.4</ele>
        <time>2022-05-24 13:27:14</time>
      </trkpt>
      <trkpt lat="41.02441" lon="0.60457">
        <ele>57.4</ele>
        <time>2022-05-24 13:27:15</time>
      </trkpt>
      <trkpt lat="41.02436" lon="0.6046">
        <ele>57.4</ele>
        <time>2022-05-24 13:27:16</time>
      </trkpt>
      <trkpt lat="41.02431" lon="0.6046">
        <ele>57.6</ele>
        <time>2022-05-24 13:27:17</time>
      </trkpt>
      <trkpt lat="41.02429" lon="0.6046">
        <ele>57.6</ele>
        <time>2022-05-24 13:27:18</time>
      </trkpt>
      <trkpt lat="41.02422" lon="0.60461">
        <ele>57.6</ele>
        <time>2022-05-24 13:27:19</time>
      </trkpt>
      <trkpt lat="41.02419" lon="0.60462">
        <ele>57.6</ele>
        <time>2022-05-24 13:27:20</time>
      </trkpt>
      <trkpt lat="41.02413" lon="0.60463">
        <ele>57.8</ele>
        <time>2022-05-24 13:27:21</time>
      </trkpt>
      <trkpt lat="41.0241" lon="0.60464">
        <ele>57.8</ele>
        <time>2022-05-24 13:27:22</time>
      </trkpt>
      <trkpt lat="41.02404" lon="0.60466">
        <ele>57.8</ele>
        <time>2022-05-24 13:27:23</time>
      </trkpt>
      <trkpt lat="41.02399" lon="0.60468">
        <ele>57.8</ele>
        <time>2022-05-24 13:27:24</time>
      </trkpt>
      <trkpt lat="41.02396" lon="0.6047">
        <ele>57.8</ele>
        <time>2022-05-24 13:27:25</time>
      </trkpt>
      <trkpt lat="41.02389" lon="0.60473">
        <ele>57.8</ele>
        <time>2022-05-24 13:27:26</time>
      </trkpt>
      <trkpt lat="41.02386" lon="0.60474">
        <ele>57.8</ele>
        <time>2022-05-24 13:27:27</time>
      </trkpt>
      <trkpt lat="41.0238" lon="0.60476">
        <ele>57.8</ele>
        <time>2022-05-24 13:27:28</time>
      </trkpt>
      <trkpt lat="41.02377" lon="0.60478">
        <ele>58</ele>
        <time>2022-05-24 13:27:29</time>
      </trkpt>
      <trkpt lat="41.02371" lon="0.60481">
        <ele>58</ele>
        <time>2022-05-24 13:27:30</time>
      </trkpt>
      <trkpt lat="41.02368" lon="0.60482">
        <ele>58</ele>
        <time>2022-05-24 13:27:31</time>
      </trkpt>
      <trkpt lat="41.02363" lon="0.60485">
        <ele>58.2</ele>
        <time>2022-05-24 13:27:32</time>
      </trkpt>
      <trkpt lat="41.02359" lon="0.60487">
        <ele>58.2</ele>
        <time>2022-05-24 13:27:33</time>
      </trkpt>
      <trkpt lat="41.02354" lon="0.6049">
        <ele>58.4</ele>
        <time>2022-05-24 13:27:34</time>
      </trkpt>
      <trkpt lat="41.02351" lon="0.60492">
        <ele>58.4</ele>
        <time>2022-05-24 13:27:35</time>
      </trkpt>
      <trkpt lat="41.02346" lon="0.60495">
        <ele>58.4</ele>
        <time>2022-05-24 13:27:36</time>
      </trkpt>
      <trkpt lat="41.02343" lon="0.60498">
        <ele>58.6</ele>
        <time>2022-05-24 13:27:37</time>
      </trkpt>
      <trkpt lat="41.02338" lon="0.60502">
        <ele>58.6</ele>
        <time>2022-05-24 13:27:38</time>
      </trkpt>
      <trkpt lat="41.02334" lon="0.60505">
        <ele>58.6</ele>
        <time>2022-05-24 13:27:39</time>
      </trkpt>
      <trkpt lat="41.0233" lon="0.60508">
        <ele>58.6</ele>
        <time>2022-05-24 13:27:40</time>
      </trkpt>
      <trkpt lat="41.02326" lon="0.60511">
        <ele>58.8</ele>
        <time>2022-05-24 13:27:41</time>
      </trkpt>
      <trkpt lat="41.02322" lon="0.60514">
        <ele>58.8</ele>
        <time>2022-05-24 13:27:42</time>
      </trkpt>
      <trkpt lat="41.02319" lon="0.60518">
        <ele>58.8</ele>
        <time>2022-05-24 13:27:43</time>
      </trkpt>
      <trkpt lat="41.02316" lon="0.60521">
        <ele>59</ele>
        <time>2022-05-24 13:27:44</time>
      </trkpt>
      <trkpt lat="41.02313" lon="0.60524">
        <ele>59</ele>
        <time>2022-05-24 13:27:45</time>
      </trkpt>
      <trkpt lat="41.0231" lon="0.60528">
        <ele>59</ele>
        <time>2022-05-24 13:27:46</time>
      </trkpt>
      <trkpt lat="41.02306" lon="0.60532">
        <ele>59.2</ele>
        <time>2022-05-24 13:27:47</time>
      </trkpt>
      <trkpt lat="41.02303" lon="0.60535">
        <ele>59.2</ele>
        <time>2022-05-24 13:27:48</time>
      </trkpt>
      <trkpt lat="41.023" lon="0.60539">
        <ele>59.2</ele>
        <time>2022-05-24 13:27:49</time>
      </trkpt>
      <trkpt lat="41.02297" lon="0.60543">
        <ele>59.4</ele>
        <time>2022-05-24 13:27:50</time>
      </trkpt>
      <trkpt lat="41.02294" lon="0.60547">
        <ele>59.4</ele>
        <time>2022-05-24 13:27:51</time>
      </trkpt>
      <trkpt lat="41.02291" lon="0.60551">
        <ele>59.6</ele>
        <time>2022-05-24 13:27:52</time>
      </trkpt>
      <trkpt lat="41.02288" lon="0.60555">
        <ele>59.8</ele>
        <time>2022-05-24 13:27:53</time>
      </trkpt>
      <trkpt lat="41.02286" lon="0.60559">
        <ele>59.8</ele>
        <time>2022-05-24 13:27:54</time>
      </trkpt>
      <trkpt lat="41.02283" lon="0.60563">
        <ele>60</ele>
        <time>2022-05-24 13:27:55</time>
      </trkpt>
      <trkpt lat="41.02281" lon="0.60567">
        <ele>60</ele>
        <time>2022-05-24 13:27:56</time>
      </trkpt>
      <trkpt lat="41.02279" lon="0.60571">
        <ele>60.2</ele>
        <time>2022-05-24 13:27:57</time>
      </trkpt>
      <trkpt lat="41.02276" lon="0.60575">
        <ele>60.2</ele>
        <time>2022-05-24 13:27:58</time>
      </trkpt>
      <trkpt lat="41.02273" lon="0.60579">
        <ele>60.4</ele>
        <time>2022-05-24 13:27:59</time>
      </trkpt>
      <trkpt lat="41.02271" lon="0.60584">
        <ele>60.4</ele>
        <time>2022-05-24 13:28:00</time>
      </trkpt>
      <trkpt lat="41.02268" lon="0.60588">
        <ele>60.6</ele>
        <time>2022-05-24 13:28:01</time>
      </trkpt>
      <trkpt lat="41.02266" lon="0.60592">
        <ele>60.6</ele>
        <time>2022-05-24 13:28:02</time>
      </trkpt>
      <trkpt lat="41.02263" lon="0.60596">
        <ele>60.8</ele>
        <time>2022-05-24 13:28:03</time>
      </trkpt>
      <trkpt lat="41.02261" lon="0.606">
        <ele>60.8</ele>
        <time>2022-05-24 13:28:04</time>
      </trkpt>
      <trkpt lat="41.02258" lon="0.60605">
        <ele>61</ele>
        <time>2022-05-24 13:28:05</time>
      </trkpt>
      <trkpt lat="41.02256" lon="0.60609">
        <ele>61</ele>
        <time>2022-05-24 13:28:06</time>
      </trkpt>
      <trkpt lat="41.02254" lon="0.60613">
        <ele>61.2</ele>
        <time>2022-05-24 13:28:07</time>
      </trkpt>
      <trkpt lat="41.02252" lon="0.60616">
        <ele>61.2</ele>
        <time>2022-05-24 13:28:08</time>
      </trkpt>
      <trkpt lat="41.02249" lon="0.60621">
        <ele>61.2</ele>
        <time>2022-05-24 13:28:09</time>
      </trkpt>
      <trkpt lat="41.02247" lon="0.60625">
        <ele>61.4</ele>
        <time>2022-05-24 13:28:10</time>
      </trkpt>
      <trkpt lat="41.02245" lon="0.6063">
        <ele>61.4</ele>
        <time>2022-05-24 13:28:11</time>
      </trkpt>
      <trkpt lat="41.02242" lon="0.60634">
        <ele>61.4</ele>
        <time>2022-05-24 13:28:12</time>
      </trkpt>
      <trkpt lat="41.02239" lon="0.60639">
        <ele>61.4</ele>
        <time>2022-05-24 13:28:13</time>
      </trkpt>
      <trkpt lat="41.02237" lon="0.60644">
        <ele>61.4</ele>
        <time>2022-05-24 13:28:14</time>
      </trkpt>
      <trkpt lat="41.02235" lon="0.60648">
        <ele>61.6</ele>
        <time>2022-05-24 13:28:15</time>
      </trkpt>
      <trkpt lat="41.02233" lon="0.60653">
        <ele>61.6</ele>
        <time>2022-05-24 13:28:16</time>
      </trkpt>
      <trkpt lat="41.02231" lon="0.60657">
        <ele>61.6</ele>
        <time>2022-05-24 13:28:17</time>
      </trkpt>
      <trkpt lat="41.02228" lon="0.60663">
        <ele>61.8</ele>
        <time>2022-05-24 13:28:18</time>
      </trkpt>
      <trkpt lat="41.02226" lon="0.60668">
        <ele>61.8</ele>
        <time>2022-05-24 13:28:19</time>
      </trkpt>
      <trkpt lat="41.02223" lon="0.60673">
        <ele>61.8</ele>
        <time>2022-05-24 13:28:20</time>
      </trkpt>
      <trkpt lat="41.02221" lon="0.60678">
        <ele>62</ele>
        <time>2022-05-24 13:28:21</time>
      </trkpt>
      <trkpt lat="41.02218" lon="0.60682">
        <ele>62</ele>
        <time>2022-05-24 13:28:22</time>
      </trkpt>
      <trkpt lat="41.02215" lon="0.60687">
        <ele>62</ele>
        <time>2022-05-24 13:28:23</time>
      </trkpt>
      <trkpt lat="41.02212" lon="0.60692">
        <ele>62</ele>
        <time>2022-05-24 13:28:24</time>
      </trkpt>
      <trkpt lat="41.0221" lon="0.60696">
        <ele>62.2</ele>
        <time>2022-05-24 13:28:25</time>
      </trkpt>
      <trkpt lat="41.02206" lon="0.60701">
        <ele>62.2</ele>
        <time>2022-05-24 13:28:26</time>
      </trkpt>
      <trkpt lat="41.02203" lon="0.60705">
        <ele>62.2</ele>
        <time>2022-05-24 13:28:27</time>
      </trkpt>
      <trkpt lat="41.022" lon="0.60709">
        <ele>62.2</ele>
        <time>2022-05-24 13:28:28</time>
      </trkpt>
      <trkpt lat="41.02197" lon="0.60713">
        <ele>62.2</ele>
        <time>2022-05-24 13:28:29</time>
      </trkpt>
      <trkpt lat="41.02195" lon="0.60717">
        <ele>62.4</ele>
        <time>2022-05-24 13:28:30</time>
      </trkpt>
      <trkpt lat="41.02192" lon="0.60721">
        <ele>62.4</ele>
        <time>2022-05-24 13:28:31</time>
      </trkpt>
      <trkpt lat="41.02189" lon="0.60724">
        <ele>62.6</ele>
        <time>2022-05-24 13:28:32</time>
      </trkpt>
      <trkpt lat="41.02186" lon="0.60728">
        <ele>62.6</ele>
        <time>2022-05-24 13:28:33</time>
      </trkpt>
      <trkpt lat="41.02182" lon="0.60731">
        <ele>62.8</ele>
        <time>2022-05-24 13:28:34</time>
      </trkpt>
      <trkpt lat="41.02179" lon="0.60734">
        <ele>62.8</ele>
        <time>2022-05-24 13:28:35</time>
      </trkpt>
      <trkpt lat="41.02176" lon="0.60737">
        <ele>63</ele>
        <time>2022-05-24 13:28:36</time>
      </trkpt>
      <trkpt lat="41.02174" lon="0.6074">
        <ele>63.2</ele>
        <time>2022-05-24 13:28:37</time>
      </trkpt>
      <trkpt lat="41.0217" lon="0.60743">
        <ele>63.2</ele>
        <time>2022-05-24 13:28:38</time>
      </trkpt>
      <trkpt lat="41.02167" lon="0.60747">
        <ele>63.4</ele>
        <time>2022-05-24 13:28:39</time>
      </trkpt>
      <trkpt lat="41.02164" lon="0.6075">
        <ele>63.4</ele>
        <time>2022-05-24 13:28:40</time>
      </trkpt>
      <trkpt lat="41.02161" lon="0.60753">
        <ele>63.6</ele>
        <time>2022-05-24 13:28:41</time>
      </trkpt>
      <trkpt lat="41.02158" lon="0.60756">
        <ele>63.8</ele>
        <time>2022-05-24 13:28:42</time>
      </trkpt>
      <trkpt lat="41.02154" lon="0.60759">
        <ele>64</ele>
        <time>2022-05-24 13:28:43</time>
      </trkpt>
      <trkpt lat="41.02151" lon="0.60762">
        <ele>64</ele>
        <time>2022-05-24 13:28:44</time>
      </trkpt>
      <trkpt lat="41.02148" lon="0.60765">
        <ele>64.2</ele>
        <time>2022-05-24 13:28:45</time>
      </trkpt>
      <trkpt lat="41.02144" lon="0.60768">
        <ele>64.2</ele>
        <time>2022-05-24 13:28:46</time>
      </trkpt>
      <trkpt lat="41.02141" lon="0.6077">
        <ele>64.4</ele>
        <time>2022-05-24 13:28:47</time>
      </trkpt>
      <trkpt lat="41.02138" lon="0.60773">
        <ele>64.4</ele>
        <time>2022-05-24 13:28:48</time>
      </trkpt>
      <trkpt lat="41.02134" lon="0.60776">
        <ele>64.6</ele>
        <time>2022-05-24 13:28:49</time>
      </trkpt>
      <trkpt lat="41.02131" lon="0.60779">
        <ele>64.6</ele>
        <time>2022-05-24 13:28:50</time>
      </trkpt>
      <trkpt lat="41.02128" lon="0.60781">
        <ele>64.8</ele>
        <time>2022-05-24 13:28:51</time>
      </trkpt>
      <trkpt lat="41.02125" lon="0.60783">
        <ele>64.8</ele>
        <time>2022-05-24 13:28:52</time>
      </trkpt>
      <trkpt lat="41.02121" lon="0.60786">
        <ele>65</ele>
        <time>2022-05-24 13:28:53</time>
      </trkpt>
      <trkpt lat="41.02118" lon="0.60788">
        <ele>65</ele>
        <time>2022-05-24 13:28:54</time>
      </trkpt>
      <trkpt lat="41.02114" lon="0.6079">
        <ele>65.2</ele>
        <time>2022-05-24 13:28:55</time>
      </trkpt>
      <trkpt lat="41.02111" lon="0.60792">
        <ele>65.2</ele>
        <time>2022-05-24 13:28:56</time>
      </trkpt>
      <trkpt lat="41.02108" lon="0.60794">
        <ele>65.2</ele>
        <time>2022-05-24 13:28:57</time>
      </trkpt>
      <trkpt lat="41.02104" lon="0.60795">
        <ele>65.4</ele>
        <time>2022-05-24 13:28:58</time>
      </trkpt>
      <trkpt lat="41.021" lon="0.60797">
        <ele>65.4</ele>
        <time>2022-05-24 13:28:59</time>
      </trkpt>
      <trkpt lat="41.02096" lon="0.60799">
        <ele>65.6</ele>
        <time>2022-05-24 13:29:00</time>
      </trkpt>
      <trkpt lat="41.02093" lon="0.60801">
        <ele>65.6</ele>
        <time>2022-05-24 13:29:01</time>
      </trkpt>
      <trkpt lat="41.02089" lon="0.60803">
        <ele>65.8</ele>
        <time>2022-05-24 13:29:02</time>
      </trkpt>
      <trkpt lat="41.02086" lon="0.60804">
        <ele>65.8</ele>
        <time>2022-05-24 13:29:03</time>
      </trkpt>
      <trkpt lat="41.02082" lon="0.60805">
        <ele>66</ele>
        <time>2022-05-24 13:29:04</time>
      </trkpt>
      <trkpt lat="41.02079" lon="0.60806">
        <ele>66</ele>
        <time>2022-05-24 13:29:05</time>
      </trkpt>
      <trkpt lat="41.02075" lon="0.60808">
        <ele>66.2</ele>
        <time>2022-05-24 13:29:06</time>
      </trkpt>
      <trkpt lat="41.02071" lon="0.60809">
        <ele>66.2</ele>
        <time>2022-05-24 13:29:07</time>
      </trkpt>
      <trkpt lat="41.02067" lon="0.60811">
        <ele>66.4</ele>
        <time>2022-05-24 13:29:08</time>
      </trkpt>
      <trkpt lat="41.02063" lon="0.60812">
        <ele>66.4</ele>
        <time>2022-05-24 13:29:09</time>
      </trkpt>
      <trkpt lat="41.0206" lon="0.60813">
        <ele>66.4</ele>
        <time>2022-05-24 13:29:10</time>
      </trkpt>
      <trkpt lat="41.02057" lon="0.60814">
        <ele>66.4</ele>
        <time>2022-05-24 13:29:11</time>
      </trkpt>
      <trkpt lat="41.02053" lon="0.60815">
        <ele>66.6</ele>
        <time>2022-05-24 13:29:12</time>
      </trkpt>
      <trkpt lat="41.02049" lon="0.60815">
        <ele>66.6</ele>
        <time>2022-05-24 13:29:13</time>
      </trkpt>
      <trkpt lat="41.02045" lon="0.60816">
        <ele>66.8</ele>
        <time>2022-05-24 13:29:14</time>
      </trkpt>
      <trkpt lat="41.02041" lon="0.60817">
        <ele>66.8</ele>
        <time>2022-05-24 13:29:15</time>
      </trkpt>
      <trkpt lat="41.02037" lon="0.60818">
        <ele>67</ele>
        <time>2022-05-24 13:29:16</time>
      </trkpt>
      <trkpt lat="41.02034" lon="0.60819">
        <ele>67</ele>
        <time>2022-05-24 13:29:17</time>
      </trkpt>
      <trkpt lat="41.0203" lon="0.6082">
        <ele>67.2</ele>
        <time>2022-05-24 13:29:18</time>
      </trkpt>
      <trkpt lat="41.02026" lon="0.6082">
        <ele>67.2</ele>
        <time>2022-05-24 13:29:19</time>
      </trkpt>
      <trkpt lat="41.02022" lon="0.6082">
        <ele>67.2</ele>
        <time>2022-05-24 13:29:20</time>
      </trkpt>
      <trkpt lat="41.02018" lon="0.60821">
        <ele>67.4</ele>
        <time>2022-05-24 13:29:21</time>
      </trkpt>
      <trkpt lat="41.02014" lon="0.60821">
        <ele>67.4</ele>
        <time>2022-05-24 13:29:22</time>
      </trkpt>
      <trkpt lat="41.0201" lon="0.60822">
        <ele>67.6</ele>
        <time>2022-05-24 13:29:23</time>
      </trkpt>
      <trkpt lat="41.02006" lon="0.60822">
        <ele>67.6</ele>
        <time>2022-05-24 13:29:24</time>
      </trkpt>
      <trkpt lat="41.02002" lon="0.60823">
        <ele>67.8</ele>
        <time>2022-05-24 13:29:25</time>
      </trkpt>
      <trkpt lat="41.01999" lon="0.60823">
        <ele>67.8</ele>
        <time>2022-05-24 13:29:26</time>
      </trkpt>
      <trkpt lat="41.01994" lon="0.60823">
        <ele>68</ele>
        <time>2022-05-24 13:29:27</time>
      </trkpt>
      <trkpt lat="41.0199" lon="0.60823">
        <ele>68</ele>
        <time>2022-05-24 13:29:28</time>
      </trkpt>
      <trkpt lat="41.01987" lon="0.60823">
        <ele>68.2</ele>
        <time>2022-05-24 13:29:29</time>
      </trkpt>
      <trkpt lat="41.01983" lon="0.60823">
        <ele>68.2</ele>
        <time>2022-05-24 13:29:30</time>
      </trkpt>
      <trkpt lat="41.01979" lon="0.60823">
        <ele>68.4</ele>
        <time>2022-05-24 13:29:31</time>
      </trkpt>
      <trkpt lat="41.01975" lon="0.60824">
        <ele>68.4</ele>
        <time>2022-05-24 13:29:32</time>
      </trkpt>
      <trkpt lat="41.01971" lon="0.60824">
        <ele>68.6</ele>
        <time>2022-05-24 13:29:33</time>
      </trkpt>
      <trkpt lat="41.01967" lon="0.60824">
        <ele>68.6</ele>
        <time>2022-05-24 13:29:34</time>
      </trkpt>
      <trkpt lat="41.01963" lon="0.60824">
        <ele>68.8</ele>
        <time>2022-05-24 13:29:35</time>
      </trkpt>
      <trkpt lat="41.01959" lon="0.60824">
        <ele>68.8</ele>
        <time>2022-05-24 13:29:36</time>
      </trkpt>
      <trkpt lat="41.01955" lon="0.60824">
        <ele>68.8</ele>
        <time>2022-05-24 13:29:37</time>
      </trkpt>
      <trkpt lat="41.01952" lon="0.60824">
        <ele>69</ele>
        <time>2022-05-24 13:29:38</time>
      </trkpt>
      <trkpt lat="41.01948" lon="0.60824">
        <ele>69</ele>
        <time>2022-05-24 13:29:39</time>
      </trkpt>
      <trkpt lat="41.01944" lon="0.60824">
        <ele>69.2</ele>
        <time>2022-05-24 13:29:40</time>
      </trkpt>
      <trkpt lat="41.0194" lon="0.60824">
        <ele>69.2</ele>
        <time>2022-05-24 13:29:41</time>
      </trkpt>
      <trkpt lat="41.01936" lon="0.60824">
        <ele>69.4</ele>
        <time>2022-05-24 13:29:42</time>
      </trkpt>
      <trkpt lat="41.01932" lon="0.60824">
        <ele>69.4</ele>
        <time>2022-05-24 13:29:43</time>
      </trkpt>
      <trkpt lat="41.01928" lon="0.60824">
        <ele>69.6</ele>
        <time>2022-05-24 13:29:44</time>
      </trkpt>
      <trkpt lat="41.01924" lon="0.60824">
        <ele>69.6</ele>
        <time>2022-05-24 13:29:45</time>
      </trkpt>
      <trkpt lat="41.0192" lon="0.60824">
        <ele>69.8</ele>
        <time>2022-05-24 13:29:46</time>
      </trkpt>
      <trkpt lat="41.01916" lon="0.60824">
        <ele>69.8</ele>
        <time>2022-05-24 13:29:47</time>
      </trkpt>
      <trkpt lat="41.01912" lon="0.60824">
        <ele>70</ele>
        <time>2022-05-24 13:29:48</time>
      </trkpt>
      <trkpt lat="41.01908" lon="0.60825">
        <ele>70</ele>
        <time>2022-05-24 13:29:49</time>
      </trkpt>
      <trkpt lat="41.01904" lon="0.60825">
        <ele>70.2</ele>
        <time>2022-05-24 13:29:50</time>
      </trkpt>
      <trkpt lat="41.019" lon="0.60825">
        <ele>70.2</ele>
        <time>2022-05-24 13:29:51</time>
      </trkpt>
      <trkpt lat="41.01896" lon="0.60826">
        <ele>70.4</ele>
        <time>2022-05-24 13:29:52</time>
      </trkpt>
      <trkpt lat="41.01891" lon="0.60827">
        <ele>70.4</ele>
        <time>2022-05-24 13:29:53</time>
      </trkpt>
      <trkpt lat="41.01888" lon="0.60827">
        <ele>70.6</ele>
        <time>2022-05-24 13:29:54</time>
      </trkpt>
      <trkpt lat="41.01883" lon="0.60828">
        <ele>70.8</ele>
        <time>2022-05-24 13:29:55</time>
      </trkpt>
      <trkpt lat="41.0188" lon="0.60829">
        <ele>70.8</ele>
        <time>2022-05-24 13:29:56</time>
      </trkpt>
      <trkpt lat="41.01876" lon="0.60829">
        <ele>71</ele>
        <time>2022-05-24 13:29:57</time>
      </trkpt>
      <trkpt lat="41.01871" lon="0.6083">
        <ele>71</ele>
        <time>2022-05-24 13:29:58</time>
      </trkpt>
      <trkpt lat="41.01868" lon="0.60831">
        <ele>71.2</ele>
        <time>2022-05-24 13:29:59</time>
      </trkpt>
      <trkpt lat="41.01863" lon="0.60833">
        <ele>71.4</ele>
        <time>2022-05-24 13:30:00</time>
      </trkpt>
      <trkpt lat="41.0186" lon="0.60834">
        <ele>71.4</ele>
        <time>2022-05-24 13:30:01</time>
      </trkpt>
      <trkpt lat="41.01856" lon="0.60835">
        <ele>71.4</ele>
        <time>2022-05-24 13:30:02</time>
      </trkpt>
      <trkpt lat="41.01852" lon="0.60836">
        <ele>71.6</ele>
        <time>2022-05-24 13:30:03</time>
      </trkpt>
      <trkpt lat="41.01848" lon="0.60838">
        <ele>71.8</ele>
        <time>2022-05-24 13:30:04</time>
      </trkpt>
      <trkpt lat="41.01845" lon="0.60839">
        <ele>71.8</ele>
        <time>2022-05-24 13:30:05</time>
      </trkpt>
      <trkpt lat="41.01842" lon="0.60841">
        <ele>71.8</ele>
        <time>2022-05-24 13:30:06</time>
      </trkpt>
      <trkpt lat="41.01838" lon="0.60844">
        <ele>72</ele>
        <time>2022-05-24 13:30:07</time>
      </trkpt>
      <trkpt lat="41.01834" lon="0.60846">
        <ele>72</ele>
        <time>2022-05-24 13:30:08</time>
      </trkpt>
      <trkpt lat="41.01831" lon="0.60848">
        <ele>72</ele>
        <time>2022-05-24 13:30:09</time>
      </trkpt>
      <trkpt lat="41.01827" lon="0.6085">
        <ele>72</ele>
        <time>2022-05-24 13:30:10</time>
      </trkpt>
      <trkpt lat="41.01823" lon="0.60852">
        <ele>72.2</ele>
        <time>2022-05-24 13:30:11</time>
      </trkpt>
      <trkpt lat="41.0182" lon="0.60854">
        <ele>72.4</ele>
        <time>2022-05-24 13:30:12</time>
      </trkpt>
      <trkpt lat="41.01816" lon="0.60856">
        <ele>72.4</ele>
        <time>2022-05-24 13:30:13</time>
      </trkpt>
      <trkpt lat="41.01813" lon="0.60858">
        <ele>72.6</ele>
        <time>2022-05-24 13:30:14</time>
      </trkpt>
      <trkpt lat="41.0181" lon="0.60861">
        <ele>72.6</ele>
        <time>2022-05-24 13:30:15</time>
      </trkpt>
      <trkpt lat="41.01806" lon="0.60864">
        <ele>72.8</ele>
        <time>2022-05-24 13:30:16</time>
      </trkpt>
      <trkpt lat="41.01803" lon="0.60866">
        <ele>72.8</ele>
        <time>2022-05-24 13:30:17</time>
      </trkpt>
      <trkpt lat="41.018" lon="0.60869">
        <ele>73</ele>
        <time>2022-05-24 13:30:18</time>
      </trkpt>
      <trkpt lat="41.01797" lon="0.60872">
        <ele>73.2</ele>
        <time>2022-05-24 13:30:19</time>
      </trkpt>
      <trkpt lat="41.01794" lon="0.60875">
        <ele>73.4</ele>
        <time>2022-05-24 13:30:20</time>
      </trkpt>
      <trkpt lat="41.0179" lon="0.60877">
        <ele>73.6</ele>
        <time>2022-05-24 13:30:21</time>
      </trkpt>
      <trkpt lat="41.01788" lon="0.60879">
        <ele>73.8</ele>
        <time>2022-05-24 13:30:22</time>
      </trkpt>
      <trkpt lat="41.01785" lon="0.60882">
        <ele>73.8</ele>
        <time>2022-05-24 13:30:23</time>
      </trkpt>
      <trkpt lat="41.01782" lon="0.60884">
        <ele>74</ele>
        <time>2022-05-24 13:30:24</time>
      </trkpt>
      <trkpt lat="41.0178" lon="0.60887">
        <ele>74.2</ele>
        <time>2022-05-24 13:30:25</time>
      </trkpt>
      <trkpt lat="41.01777" lon="0.60889">
        <ele>74.4</ele>
        <time>2022-05-24 13:30:26</time>
      </trkpt>
      <trkpt lat="41.01775" lon="0.60891">
        <ele>74.4</ele>
        <time>2022-05-24 13:30:27</time>
      </trkpt>
      <trkpt lat="41.01772" lon="0.60894">
        <ele>74.6</ele>
        <time>2022-05-24 13:30:28</time>
      </trkpt>
      <trkpt lat="41.0177" lon="0.60897">
        <ele>74.8</ele>
        <time>2022-05-24 13:30:29</time>
      </trkpt>
      <trkpt lat="41.01768" lon="0.60899">
        <ele>74.8</ele>
        <time>2022-05-24 13:30:30</time>
      </trkpt>
      <trkpt lat="41.01766" lon="0.60902">
        <ele>75</ele>
        <time>2022-05-24 13:30:31</time>
      </trkpt>
      <trkpt lat="41.01764" lon="0.60905">
        <ele>75.2</ele>
        <time>2022-05-24 13:30:32</time>
      </trkpt>
      <trkpt lat="41.01762" lon="0.60908">
        <ele>75.2</ele>
        <time>2022-05-24 13:30:33</time>
      </trkpt>
      <trkpt lat="41.0176" lon="0.60911">
        <ele>75.4</ele>
        <time>2022-05-24 13:30:34</time>
      </trkpt>
      <trkpt lat="41.01758" lon="0.60914">
        <ele>75.4</ele>
        <time>2022-05-24 13:30:35</time>
      </trkpt>
      <trkpt lat="41.01756" lon="0.60916">
        <ele>75.6</ele>
        <time>2022-05-24 13:30:36</time>
      </trkpt>
      <trkpt lat="41.01753" lon="0.60919">
        <ele>75.8</ele>
        <time>2022-05-24 13:30:37</time>
      </trkpt>
      <trkpt lat="41.01751" lon="0.60922">
        <ele>75.8</ele>
        <time>2022-05-24 13:30:38</time>
      </trkpt>
      <trkpt lat="41.01749" lon="0.60924">
        <ele>76</ele>
        <time>2022-05-24 13:30:39</time>
      </trkpt>
      <trkpt lat="41.01748" lon="0.60927">
        <ele>76.2</ele>
        <time>2022-05-24 13:30:40</time>
      </trkpt>
      <trkpt lat="41.01746" lon="0.6093">
        <ele>76.2</ele>
        <time>2022-05-24 13:30:41</time>
      </trkpt>
      <trkpt lat="41.01744" lon="0.60934">
        <ele>76.4</ele>
        <time>2022-05-24 13:30:42</time>
      </trkpt>
      <trkpt lat="41.01742" lon="0.60936">
        <ele>76.6</ele>
        <time>2022-05-24 13:30:43</time>
      </trkpt>
      <trkpt lat="41.0174" lon="0.60939">
        <ele>76.6</ele>
        <time>2022-05-24 13:30:44</time>
      </trkpt>
      <trkpt lat="41.01738" lon="0.60942">
        <ele>76.8</ele>
        <time>2022-05-24 13:30:45</time>
      </trkpt>
      <trkpt lat="41.01736" lon="0.60945">
        <ele>77</ele>
        <time>2022-05-24 13:30:46</time>
      </trkpt>
      <trkpt lat="41.01734" lon="0.60948">
        <ele>77.2</ele>
        <time>2022-05-24 13:30:47</time>
      </trkpt>
      <trkpt lat="41.01733" lon="0.60951">
        <ele>77.2</ele>
        <time>2022-05-24 13:30:48</time>
      </trkpt>
      <trkpt lat="41.01731" lon="0.60954">
        <ele>77.4</ele>
        <time>2022-05-24 13:30:49</time>
      </trkpt>
      <trkpt lat="41.01729" lon="0.60958">
        <ele>77.4</ele>
        <time>2022-05-24 13:30:50</time>
      </trkpt>
      <trkpt lat="41.01727" lon="0.60961">
        <ele>77.6</ele>
        <time>2022-05-24 13:30:51</time>
      </trkpt>
      <trkpt lat="41.01725" lon="0.60964">
        <ele>77.8</ele>
        <time>2022-05-24 13:30:52</time>
      </trkpt>
      <trkpt lat="41.01724" lon="0.60967">
        <ele>78</ele>
        <time>2022-05-24 13:30:53</time>
      </trkpt>
      <trkpt lat="41.01722" lon="0.6097">
        <ele>78</ele>
        <time>2022-05-24 13:30:54</time>
      </trkpt>
      <trkpt lat="41.01721" lon="0.60974">
        <ele>78.2</ele>
        <time>2022-05-24 13:30:55</time>
      </trkpt>
      <trkpt lat="41.01719" lon="0.60977">
        <ele>78.4</ele>
        <time>2022-05-24 13:30:56</time>
      </trkpt>
      <trkpt lat="41.01717" lon="0.6098">
        <ele>78.4</ele>
        <time>2022-05-24 13:30:57</time>
      </trkpt>
      <trkpt lat="41.01716" lon="0.60983">
        <ele>78.6</ele>
        <time>2022-05-24 13:30:58</time>
      </trkpt>
      <trkpt lat="41.01714" lon="0.60986">
        <ele>78.8</ele>
        <time>2022-05-24 13:30:59</time>
      </trkpt>
      <trkpt lat="41.01712" lon="0.6099">
        <ele>78.8</ele>
        <time>2022-05-24 13:31:00</time>
      </trkpt>
      <trkpt lat="41.0171" lon="0.60993">
        <ele>79</ele>
        <time>2022-05-24 13:31:01</time>
      </trkpt>
      <trkpt lat="41.01708" lon="0.60996">
        <ele>79.2</ele>
        <time>2022-05-24 13:31:02</time>
      </trkpt>
      <trkpt lat="41.01706" lon="0.60999">
        <ele>79.4</ele>
        <time>2022-05-24 13:31:03</time>
      </trkpt>
      <trkpt lat="41.01704" lon="0.61002">
        <ele>79.6</ele>
        <time>2022-05-24 13:31:04</time>
      </trkpt>
      <trkpt lat="41.01702" lon="0.61005">
        <ele>79.6</ele>
        <time>2022-05-24 13:31:05</time>
      </trkpt>
      <trkpt lat="41.017" lon="0.61008">
        <ele>79.8</ele>
        <time>2022-05-24 13:31:06</time>
      </trkpt>
      <trkpt lat="41.01698" lon="0.61011">
        <ele>80</ele>
        <time>2022-05-24 13:31:07</time>
      </trkpt>
      <trkpt lat="41.01697" lon="0.61014">
        <ele>80</ele>
        <time>2022-05-24 13:31:08</time>
      </trkpt>
      <trkpt lat="41.01695" lon="0.61017">
        <ele>80.2</ele>
        <time>2022-05-24 13:31:09</time>
      </trkpt>
      <trkpt lat="41.01694" lon="0.61021">
        <ele>80.2</ele>
        <time>2022-05-24 13:31:10</time>
      </trkpt>
      <trkpt lat="41.01692" lon="0.61023">
        <ele>80.4</ele>
        <time>2022-05-24 13:31:11</time>
      </trkpt>
      <trkpt lat="41.0169" lon="0.61026">
        <ele>80.6</ele>
        <time>2022-05-24 13:31:12</time>
      </trkpt>
      <trkpt lat="41.01688" lon="0.61029">
        <ele>80.6</ele>
        <time>2022-05-24 13:31:13</time>
      </trkpt>
      <trkpt lat="41.01687" lon="0.61031">
        <ele>80.8</ele>
        <time>2022-05-24 13:31:14</time>
      </trkpt>
      <trkpt lat="41.01685" lon="0.61034">
        <ele>81</ele>
        <time>2022-05-24 13:31:15</time>
      </trkpt>
      <trkpt lat="41.01683" lon="0.61037">
        <ele>81</ele>
        <time>2022-05-24 13:31:16</time>
      </trkpt>
      <trkpt lat="41.01682" lon="0.61039">
        <ele>81.2</ele>
        <time>2022-05-24 13:31:17</time>
      </trkpt>
      <trkpt lat="41.0168" lon="0.61042">
        <ele>81.4</ele>
        <time>2022-05-24 13:31:18</time>
      </trkpt>
      <trkpt lat="41.01678" lon="0.61045">
        <ele>81.6</ele>
        <time>2022-05-24 13:31:19</time>
      </trkpt>
      <trkpt lat="41.01676" lon="0.61047">
        <ele>81.6</ele>
        <time>2022-05-24 13:31:20</time>
      </trkpt>
      <trkpt lat="41.01674" lon="0.6105">
        <ele>81.8</ele>
        <time>2022-05-24 13:31:21</time>
      </trkpt>
      <trkpt lat="41.01672" lon="0.61053">
        <ele>82</ele>
        <time>2022-05-24 13:31:22</time>
      </trkpt>
      <trkpt lat="41.0167" lon="0.61055">
        <ele>82</ele>
        <time>2022-05-24 13:31:23</time>
      </trkpt>
      <trkpt lat="41.01668" lon="0.61057">
        <ele>82.4</ele>
        <time>2022-05-24 13:31:24</time>
      </trkpt>
      <trkpt lat="41.01666" lon="0.6106">
        <ele>82.4</ele>
        <time>2022-05-24 13:31:25</time>
      </trkpt>
      <trkpt lat="41.01664" lon="0.61062">
        <ele>82.6</ele>
        <time>2022-05-24 13:31:26</time>
      </trkpt>
      <trkpt lat="41.01662" lon="0.61064">
        <ele>82.6</ele>
        <time>2022-05-24 13:31:27</time>
      </trkpt>
      <trkpt lat="41.0166" lon="0.61066">
        <ele>82.8</ele>
        <time>2022-05-24 13:31:28</time>
      </trkpt>
      <trkpt lat="41.01658" lon="0.61069">
        <ele>83</ele>
        <time>2022-05-24 13:31:29</time>
      </trkpt>
      <trkpt lat="41.01656" lon="0.61071">
        <ele>83</ele>
        <time>2022-05-24 13:31:30</time>
      </trkpt>
      <trkpt lat="41.01654" lon="0.61073">
        <ele>83.2</ele>
        <time>2022-05-24 13:31:31</time>
      </trkpt>
      <trkpt lat="41.01652" lon="0.61075">
        <ele>83.2</ele>
        <time>2022-05-24 13:31:32</time>
      </trkpt>
      <trkpt lat="41.0165" lon="0.61077">
        <ele>83.4</ele>
        <time>2022-05-24 13:31:33</time>
      </trkpt>
      <trkpt lat="41.01648" lon="0.61079">
        <ele>83.4</ele>
        <time>2022-05-24 13:31:34</time>
      </trkpt>
      <trkpt lat="41.01646" lon="0.61082">
        <ele>83.6</ele>
        <time>2022-05-24 13:31:35</time>
      </trkpt>
      <trkpt lat="41.01644" lon="0.61084">
        <ele>83.8</ele>
        <time>2022-05-24 13:31:36</time>
      </trkpt>
      <trkpt lat="41.01642" lon="0.61086">
        <ele>84</ele>
        <time>2022-05-24 13:31:37</time>
      </trkpt>
      <trkpt lat="41.0164" lon="0.61088">
        <ele>84</ele>
        <time>2022-05-24 13:31:38</time>
      </trkpt>
      <trkpt lat="41.01638" lon="0.6109">
        <ele>84.2</ele>
        <time>2022-05-24 13:31:39</time>
      </trkpt>
      <trkpt lat="41.01635" lon="0.61092">
        <ele>84.4</ele>
        <time>2022-05-24 13:31:40</time>
      </trkpt>
      <trkpt lat="41.01633" lon="0.61094">
        <ele>84.4</ele>
        <time>2022-05-24 13:31:41</time>
      </trkpt>
      <trkpt lat="41.01631" lon="0.61096">
        <ele>84.6</ele>
        <time>2022-05-24 13:31:42</time>
      </trkpt>
      <trkpt lat="41.01628" lon="0.61098">
        <ele>84.8</ele>
        <time>2022-05-24 13:31:43</time>
      </trkpt>
      <trkpt lat="41.01626" lon="0.611">
        <ele>84.8</ele>
        <time>2022-05-24 13:31:44</time>
      </trkpt>
      <trkpt lat="41.01623" lon="0.61102">
        <ele>85</ele>
        <time>2022-05-24 13:31:45</time>
      </trkpt>
      <trkpt lat="41.01621" lon="0.61103">
        <ele>85.2</ele>
        <time>2022-05-24 13:31:46</time>
      </trkpt>
      <trkpt lat="41.01618" lon="0.61105">
        <ele>85.4</ele>
        <time>2022-05-24 13:31:47</time>
      </trkpt>
      <trkpt lat="41.01616" lon="0.61106">
        <ele>85.4</ele>
        <time>2022-05-24 13:31:48</time>
      </trkpt>
      <trkpt lat="41.01613" lon="0.61108">
        <ele>85.6</ele>
        <time>2022-05-24 13:31:49</time>
      </trkpt>
      <trkpt lat="41.01611" lon="0.61109">
        <ele>85.8</ele>
        <time>2022-05-24 13:31:50</time>
      </trkpt>
      <trkpt lat="41.01608" lon="0.61111">
        <ele>86</ele>
        <time>2022-05-24 13:31:51</time>
      </trkpt>
      <trkpt lat="41.01605" lon="0.61112">
        <ele>86.2</ele>
        <time>2022-05-24 13:31:52</time>
      </trkpt>
      <trkpt lat="41.01603" lon="0.61113">
        <ele>86.2</ele>
        <time>2022-05-24 13:31:53</time>
      </trkpt>
      <trkpt lat="41.01598" lon="0.61112">
        <ele>86.4</ele>
        <time>2022-05-24 13:31:54</time>
      </trkpt>
      <trkpt lat="41.01595" lon="0.61114">
        <ele>86.6</ele>
        <time>2022-05-24 13:31:55</time>
      </trkpt>
      <trkpt lat="41.01593" lon="0.61115">
        <ele>86.8</ele>
        <time>2022-05-24 13:31:56</time>
      </trkpt>
      <trkpt lat="41.01591" lon="0.61117">
        <ele>86.8</ele>
        <time>2022-05-24 13:31:57</time>
      </trkpt>
      <trkpt lat="41.01588" lon="0.61118">
        <ele>87</ele>
        <time>2022-05-24 13:31:58</time>
      </trkpt>
      <trkpt lat="41.01586" lon="0.61119">
        <ele>87.2</ele>
        <time>2022-05-24 13:31:59</time>
      </trkpt>
      <trkpt lat="41.01583" lon="0.6112">
        <ele>87.2</ele>
        <time>2022-05-24 13:32:00</time>
      </trkpt>
      <trkpt lat="41.0158" lon="0.61121">
        <ele>87.4</ele>
        <time>2022-05-24 13:32:01</time>
      </trkpt>
      <trkpt lat="41.01577" lon="0.61122">
        <ele>87.6</ele>
        <time>2022-05-24 13:32:02</time>
      </trkpt>
      <trkpt lat="41.01575" lon="0.61123">
        <ele>87.8</ele>
        <time>2022-05-24 13:32:03</time>
      </trkpt>
      <trkpt lat="41.01571" lon="0.61124">
        <ele>88</ele>
        <time>2022-05-24 13:32:04</time>
      </trkpt>
      <trkpt lat="41.01569" lon="0.61125">
        <ele>88.2</ele>
        <time>2022-05-24 13:32:05</time>
      </trkpt>
      <trkpt lat="41.01566" lon="0.61126">
        <ele>88.4</ele>
        <time>2022-05-24 13:32:06</time>
      </trkpt>
      <trkpt lat="41.01563" lon="0.61127">
        <ele>88.6</ele>
        <time>2022-05-24 13:32:07</time>
      </trkpt>
      <trkpt lat="41.01561" lon="0.61128">
        <ele>88.8</ele>
        <time>2022-05-24 13:32:08</time>
      </trkpt>
      <trkpt lat="41.01558" lon="0.61128">
        <ele>89</ele>
        <time>2022-05-24 13:32:09</time>
      </trkpt>
      <trkpt lat="41.01555" lon="0.61129">
        <ele>89</ele>
        <time>2022-05-24 13:32:10</time>
      </trkpt>
      <trkpt lat="41.01553" lon="0.61129">
        <ele>89.2</ele>
        <time>2022-05-24 13:32:11</time>
      </trkpt>
      <trkpt lat="41.0155" lon="0.6113">
        <ele>89.4</ele>
        <time>2022-05-24 13:32:12</time>
      </trkpt>
      <trkpt lat="41.01547" lon="0.6113">
        <ele>89.6</ele>
        <time>2022-05-24 13:32:13</time>
      </trkpt>
      <trkpt lat="41.01544" lon="0.61131">
        <ele>89.8</ele>
        <time>2022-05-24 13:32:14</time>
      </trkpt>
      <trkpt lat="41.01542" lon="0.61132">
        <ele>89.8</ele>
        <time>2022-05-24 13:32:15</time>
      </trkpt>
      <trkpt lat="41.01539" lon="0.61132">
        <ele>90</ele>
        <time>2022-05-24 13:32:16</time>
      </trkpt>
      <trkpt lat="41.01536" lon="0.61133">
        <ele>90.2</ele>
        <time>2022-05-24 13:32:17</time>
      </trkpt>
      <trkpt lat="41.01534" lon="0.61133">
        <ele>90.2</ele>
        <time>2022-05-24 13:32:18</time>
      </trkpt>
      <trkpt lat="41.01531" lon="0.61133">
        <ele>90.4</ele>
        <time>2022-05-24 13:32:19</time>
      </trkpt>
      <trkpt lat="41.01529" lon="0.61133">
        <ele>90.6</ele>
        <time>2022-05-24 13:32:20</time>
      </trkpt>
      <trkpt lat="41.01526" lon="0.61133">
        <ele>90.8</ele>
        <time>2022-05-24 13:32:21</time>
      </trkpt>
      <trkpt lat="41.01523" lon="0.61133">
        <ele>90.8</ele>
        <time>2022-05-24 13:32:22</time>
      </trkpt>
      <trkpt lat="41.01521" lon="0.61133">
        <ele>91</ele>
        <time>2022-05-24 13:32:23</time>
      </trkpt>
      <trkpt lat="41.01519" lon="0.61133">
        <ele>91.2</ele>
        <time>2022-05-24 13:32:24</time>
      </trkpt>
      <trkpt lat="41.01516" lon="0.61133">
        <ele>91.4</ele>
        <time>2022-05-24 13:32:25</time>
      </trkpt>
      <trkpt lat="41.01513" lon="0.61133">
        <ele>91.4</ele>
        <time>2022-05-24 13:32:26</time>
      </trkpt>
      <trkpt lat="41.0151" lon="0.61133">
        <ele>91.6</ele>
        <time>2022-05-24 13:32:27</time>
      </trkpt>
      <trkpt lat="41.01508" lon="0.61133">
        <ele>91.8</ele>
        <time>2022-05-24 13:32:28</time>
      </trkpt>
      <trkpt lat="41.01505" lon="0.61132">
        <ele>92</ele>
        <time>2022-05-24 13:32:29</time>
      </trkpt>
      <trkpt lat="41.01502" lon="0.61132">
        <ele>92</ele>
        <time>2022-05-24 13:32:30</time>
      </trkpt>
      <trkpt lat="41.01499" lon="0.61131">
        <ele>92.2</ele>
        <time>2022-05-24 13:32:31</time>
      </trkpt>
      <trkpt lat="41.01497" lon="0.61131">
        <ele>92.4</ele>
        <time>2022-05-24 13:32:32</time>
      </trkpt>
      <trkpt lat="41.01493" lon="0.61131">
        <ele>92.6</ele>
        <time>2022-05-24 13:32:33</time>
      </trkpt>
      <trkpt lat="41.01491" lon="0.6113">
        <ele>92.6</ele>
        <time>2022-05-24 13:32:34</time>
      </trkpt>
      <trkpt lat="41.01488" lon="0.61129">
        <ele>92.8</ele>
        <time>2022-05-24 13:32:35</time>
      </trkpt>
      <trkpt lat="41.01486" lon="0.61128">
        <ele>93</ele>
        <time>2022-05-24 13:32:36</time>
      </trkpt>
      <trkpt lat="41.01482" lon="0.61127">
        <ele>93.2</ele>
        <time>2022-05-24 13:32:37</time>
      </trkpt>
      <trkpt lat="41.01479" lon="0.61125">
        <ele>93.4</ele>
        <time>2022-05-24 13:32:38</time>
      </trkpt>
      <trkpt lat="41.01477" lon="0.61124">
        <ele>93.4</ele>
        <time>2022-05-24 13:32:39</time>
      </trkpt>
      <trkpt lat="41.01475" lon="0.61124">
        <ele>93.6</ele>
        <time>2022-05-24 13:32:40</time>
      </trkpt>
      <trkpt lat="41.01472" lon="0.61123">
        <ele>93.8</ele>
        <time>2022-05-24 13:32:41</time>
      </trkpt>
      <trkpt lat="41.01469" lon="0.61122">
        <ele>94</ele>
        <time>2022-05-24 13:32:42</time>
      </trkpt>
      <trkpt lat="41.01467" lon="0.61121">
        <ele>94.2</ele>
        <time>2022-05-24 13:32:43</time>
      </trkpt>
      <trkpt lat="41.01465" lon="0.6112">
        <ele>94.2</ele>
        <time>2022-05-24 13:32:44</time>
      </trkpt>
      <trkpt lat="41.01462" lon="0.61119">
        <ele>94.4</ele>
        <time>2022-05-24 13:32:45</time>
      </trkpt>
      <trkpt lat="41.01459" lon="0.61119">
        <ele>94.6</ele>
        <time>2022-05-24 13:32:46</time>
      </trkpt>
      <trkpt lat="41.01457" lon="0.61118">
        <ele>94.8</ele>
        <time>2022-05-24 13:32:47</time>
      </trkpt>
      <trkpt lat="41.01455" lon="0.61117">
        <ele>95</ele>
        <time>2022-05-24 13:32:48</time>
      </trkpt>
      <trkpt lat="41.01452" lon="0.61116">
        <ele>95.2</ele>
        <time>2022-05-24 13:32:49</time>
      </trkpt>
      <trkpt lat="41.0145" lon="0.61115">
        <ele>95.4</ele>
        <time>2022-05-24 13:32:50</time>
      </trkpt>
      <trkpt lat="41.01448" lon="0.61113">
        <ele>95.4</ele>
        <time>2022-05-24 13:32:51</time>
      </trkpt>
      <trkpt lat="41.01446" lon="0.61112">
        <ele>95.6</ele>
        <time>2022-05-24 13:32:52</time>
      </trkpt>
      <trkpt lat="41.01443" lon="0.61111">
        <ele>95.8</ele>
        <time>2022-05-24 13:32:53</time>
      </trkpt>
      <trkpt lat="41.0144" lon="0.6111">
        <ele>95.8</ele>
        <time>2022-05-24 13:32:54</time>
      </trkpt>
      <trkpt lat="41.01438" lon="0.61109">
        <ele>96</ele>
        <time>2022-05-24 13:32:55</time>
      </trkpt>
      <trkpt lat="41.01436" lon="0.61108">
        <ele>96.2</ele>
        <time>2022-05-24 13:32:56</time>
      </trkpt>
      <trkpt lat="41.01433" lon="0.61106">
        <ele>96.2</ele>
        <time>2022-05-24 13:32:57</time>
      </trkpt>
      <trkpt lat="41.01431" lon="0.61105">
        <ele>96.4</ele>
        <time>2022-05-24 13:32:58</time>
      </trkpt>
      <trkpt lat="41.01429" lon="0.61104">
        <ele>96.6</ele>
        <time>2022-05-24 13:32:59</time>
      </trkpt>
      <trkpt lat="41.01426" lon="0.61102">
        <ele>96.8</ele>
        <time>2022-05-24 13:33:00</time>
      </trkpt>
      <trkpt lat="41.01423" lon="0.61101">
        <ele>96.8</ele>
        <time>2022-05-24 13:33:01</time>
      </trkpt>
      <trkpt lat="41.01421" lon="0.61099">
        <ele>97</ele>
        <time>2022-05-24 13:33:02</time>
      </trkpt>
      <trkpt lat="41.01418" lon="0.61098">
        <ele>97.2</ele>
        <time>2022-05-24 13:33:03</time>
      </trkpt>
      <trkpt lat="41.01417" lon="0.61097">
        <ele>97.4</ele>
        <time>2022-05-24 13:33:04</time>
      </trkpt>
      <trkpt lat="41.01413" lon="0.61094">
        <ele>97.6</ele>
        <time>2022-05-24 13:33:05</time>
      </trkpt>
      <trkpt lat="41.01411" lon="0.61093">
        <ele>97.6</ele>
        <time>2022-05-24 13:33:06</time>
      </trkpt>
      <trkpt lat="41.01409" lon="0.61091">
        <ele>97.8</ele>
        <time>2022-05-24 13:33:07</time>
      </trkpt>
      <trkpt lat="41.01407" lon="0.6109">
        <ele>98</ele>
        <time>2022-05-24 13:33:08</time>
      </trkpt>
      <trkpt lat="41.01404" lon="0.61088">
        <ele>98.2</ele>
        <time>2022-05-24 13:33:09</time>
      </trkpt>
      <trkpt lat="41.01402" lon="0.61087">
        <ele>98.4</ele>
        <time>2022-05-24 13:33:10</time>
      </trkpt>
      <trkpt lat="41.01399" lon="0.61085">
        <ele>98.6</ele>
        <time>2022-05-24 13:33:11</time>
      </trkpt>
      <trkpt lat="41.01397" lon="0.61083">
        <ele>98.8</ele>
        <time>2022-05-24 13:33:12</time>
      </trkpt>
      <trkpt lat="41.01394" lon="0.61081">
        <ele>99</ele>
        <time>2022-05-24 13:33:13</time>
      </trkpt>
      <trkpt lat="41.01392" lon="0.6108">
        <ele>99.2</ele>
        <time>2022-05-24 13:33:14</time>
      </trkpt>
      <trkpt lat="41.01389" lon="0.61078">
        <ele>99.2</ele>
        <time>2022-05-24 13:33:15</time>
      </trkpt>
      <trkpt lat="41.01387" lon="0.61077">
        <ele>99.4</ele>
        <time>2022-05-24 13:33:16</time>
      </trkpt>
      <trkpt lat="41.01384" lon="0.61075">
        <ele>99.6</ele>
        <time>2022-05-24 13:33:17</time>
      </trkpt>
      <trkpt lat="41.01382" lon="0.61072">
        <ele>99.8</ele>
        <time>2022-05-24 13:33:18</time>
      </trkpt>
      <trkpt lat="41.01379" lon="0.6107">
        <ele>100</ele>
        <time>2022-05-24 13:33:19</time>
      </trkpt>
      <trkpt lat="41.01378" lon="0.61069">
        <ele>100.2</ele>
        <time>2022-05-24 13:33:20</time>
      </trkpt>
      <trkpt lat="41.01374" lon="0.61066">
        <ele>100.2</ele>
        <time>2022-05-24 13:33:21</time>
      </trkpt>
      <trkpt lat="41.01372" lon="0.61064">
        <ele>100.4</ele>
        <time>2022-05-24 13:33:22</time>
      </trkpt>
      <trkpt lat="41.0137" lon="0.61062">
        <ele>100.6</ele>
        <time>2022-05-24 13:33:23</time>
      </trkpt>
      <trkpt lat="41.01368" lon="0.61061">
        <ele>100.8</ele>
        <time>2022-05-24 13:33:24</time>
      </trkpt>
      <trkpt lat="41.01365" lon="0.61059">
        <ele>101</ele>
        <time>2022-05-24 13:33:25</time>
      </trkpt>
      <trkpt lat="41.01363" lon="0.61057">
        <ele>101</ele>
        <time>2022-05-24 13:33:26</time>
      </trkpt>
      <trkpt lat="41.0136" lon="0.61056">
        <ele>101.2</ele>
        <time>2022-05-24 13:33:27</time>
      </trkpt>
      <trkpt lat="41.01359" lon="0.61055">
        <ele>101.4</ele>
        <time>2022-05-24 13:33:28</time>
      </trkpt>
      <trkpt lat="41.01357" lon="0.61053">
        <ele>101.6</ele>
        <time>2022-05-24 13:33:29</time>
      </trkpt>
      <trkpt lat="41.01355" lon="0.61052">
        <ele>101.8</ele>
        <time>2022-05-24 13:33:30</time>
      </trkpt>
      <trkpt lat="41.01352" lon="0.6105">
        <ele>102</ele>
        <time>2022-05-24 13:33:31</time>
      </trkpt>
      <trkpt lat="41.01351" lon="0.61049">
        <ele>102</ele>
        <time>2022-05-24 13:33:32</time>
      </trkpt>
      <trkpt lat="41.01349" lon="0.61047">
        <ele>102.2</ele>
        <time>2022-05-24 13:33:33</time>
      </trkpt>
      <trkpt lat="41.01347" lon="0.61045">
        <ele>102.4</ele>
        <time>2022-05-24 13:33:34</time>
      </trkpt>
      <trkpt lat="41.01345" lon="0.61044">
        <ele>102.4</ele>
        <time>2022-05-24 13:33:35</time>
      </trkpt>
      <trkpt lat="41.01343" lon="0.61043">
        <ele>102.6</ele>
        <time>2022-05-24 13:33:36</time>
      </trkpt>
      <trkpt lat="41.0134" lon="0.61041">
        <ele>102.8</ele>
        <time>2022-05-24 13:33:37</time>
      </trkpt>
      <trkpt lat="41.01339" lon="0.61039">
        <ele>102.8</ele>
        <time>2022-05-24 13:33:38</time>
      </trkpt>
      <trkpt lat="41.01337" lon="0.61038">
        <ele>103</ele>
        <time>2022-05-24 13:33:39</time>
      </trkpt>
      <trkpt lat="41.01335" lon="0.61037">
        <ele>103.2</ele>
        <time>2022-05-24 13:33:40</time>
      </trkpt>
      <trkpt lat="41.01332" lon="0.61035">
        <ele>103.2</ele>
        <time>2022-05-24 13:33:41</time>
      </trkpt>
      <trkpt lat="41.0133" lon="0.61034">
        <ele>103.4</ele>
        <time>2022-05-24 13:33:42</time>
      </trkpt>
      <trkpt lat="41.01328" lon="0.61032">
        <ele>103.6</ele>
        <time>2022-05-24 13:33:43</time>
      </trkpt>
      <trkpt lat="41.01326" lon="0.61031">
        <ele>103.6</ele>
        <time>2022-05-24 13:33:44</time>
      </trkpt>
      <trkpt lat="41.01324" lon="0.61029">
        <ele>103.8</ele>
        <time>2022-05-24 13:33:45</time>
      </trkpt>
      <trkpt lat="41.01322" lon="0.61028">
        <ele>104</ele>
        <time>2022-05-24 13:33:46</time>
      </trkpt>
      <trkpt lat="41.0132" lon="0.61026">
        <ele>104</ele>
        <time>2022-05-24 13:33:47</time>
      </trkpt>
      <trkpt lat="41.01318" lon="0.61025">
        <ele>104.2</ele>
        <time>2022-05-24 13:33:48</time>
      </trkpt>
      <trkpt lat="41.01316" lon="0.61023">
        <ele>104.4</ele>
        <time>2022-05-24 13:33:49</time>
      </trkpt>
      <trkpt lat="41.01314" lon="0.61022">
        <ele>104.4</ele>
        <time>2022-05-24 13:33:50</time>
      </trkpt>
      <trkpt lat="41.01312" lon="0.6102">
        <ele>104.6</ele>
        <time>2022-05-24 13:33:51</time>
      </trkpt>
      <trkpt lat="41.0131" lon="0.61019">
        <ele>104.8</ele>
        <time>2022-05-24 13:33:52</time>
      </trkpt>
      <trkpt lat="41.01309" lon="0.61017">
        <ele>104.8</ele>
        <time>2022-05-24 13:33:53</time>
      </trkpt>
      <trkpt lat="41.01306" lon="0.61016">
        <ele>105</ele>
        <time>2022-05-24 13:33:54</time>
      </trkpt>
      <trkpt lat="41.01304" lon="0.61014">
        <ele>105.2</ele>
        <time>2022-05-24 13:33:55</time>
      </trkpt>
      <trkpt lat="41.01302" lon="0.61013">
        <ele>105.4</ele>
        <time>2022-05-24 13:33:56</time>
      </trkpt>
      <trkpt lat="41.013" lon="0.61012">
        <ele>105.4</ele>
        <time>2022-05-24 13:33:57</time>
      </trkpt>
      <trkpt lat="41.01297" lon="0.61009">
        <ele>105.6</ele>
        <time>2022-05-24 13:33:58</time>
      </trkpt>
      <trkpt lat="41.01295" lon="0.61007">
        <ele>105.8</ele>
        <time>2022-05-24 13:33:59</time>
      </trkpt>
      <trkpt lat="41.01293" lon="0.61005">
        <ele>106</ele>
        <time>2022-05-24 13:34:00</time>
      </trkpt>
      <trkpt lat="41.01291" lon="0.61004">
        <ele>106.2</ele>
        <time>2022-05-24 13:34:01</time>
      </trkpt>
      <trkpt lat="41.01288" lon="0.61002">
        <ele>106.2</ele>
        <time>2022-05-24 13:34:02</time>
      </trkpt>
      <trkpt lat="41.01285" lon="0.61">
        <ele>106.4</ele>
        <time>2022-05-24 13:34:03</time>
      </trkpt>
      <trkpt lat="41.01283" lon="0.60998">
        <ele>106.6</ele>
        <time>2022-05-24 13:34:04</time>
      </trkpt>
      <trkpt lat="41.01281" lon="0.60997">
        <ele>106.6</ele>
        <time>2022-05-24 13:34:05</time>
      </trkpt>
      <trkpt lat="41.01277" lon="0.60994">
        <ele>106.8</ele>
        <time>2022-05-24 13:34:06</time>
      </trkpt>
      <trkpt lat="41.01275" lon="0.60992">
        <ele>107</ele>
        <time>2022-05-24 13:34:07</time>
      </trkpt>
      <trkpt lat="41.01272" lon="0.60991">
        <ele>107.2</ele>
        <time>2022-05-24 13:34:08</time>
      </trkpt>
      <trkpt lat="41.0127" lon="0.60989">
        <ele>107.4</ele>
        <time>2022-05-24 13:34:09</time>
      </trkpt>
      <trkpt lat="41.01267" lon="0.60987">
        <ele>107.6</ele>
        <time>2022-05-24 13:34:10</time>
      </trkpt>
      <trkpt lat="41.01265" lon="0.60985">
        <ele>107.6</ele>
        <time>2022-05-24 13:34:11</time>
      </trkpt>
      <trkpt lat="41.01263" lon="0.60984">
        <ele>107.8</ele>
        <time>2022-05-24 13:34:12</time>
      </trkpt>
      <trkpt lat="41.01261" lon="0.60982">
        <ele>108</ele>
        <time>2022-05-24 13:34:13</time>
      </trkpt>
      <trkpt lat="41.01258" lon="0.6098">
        <ele>108.2</ele>
        <time>2022-05-24 13:34:14</time>
      </trkpt>
      <trkpt lat="41.01256" lon="0.60978">
        <ele>108.4</ele>
        <time>2022-05-24 13:34:15</time>
      </trkpt>
      <trkpt lat="41.01254" lon="0.60977">
        <ele>108.6</ele>
        <time>2022-05-24 13:34:16</time>
      </trkpt>
      <trkpt lat="41.01252" lon="0.60975">
        <ele>108.8</ele>
        <time>2022-05-24 13:34:17</time>
      </trkpt>
      <trkpt lat="41.01249" lon="0.60973">
        <ele>108.8</ele>
        <time>2022-05-24 13:34:18</time>
      </trkpt>
      <trkpt lat="41.01247" lon="0.60971">
        <ele>109</ele>
        <time>2022-05-24 13:34:19</time>
      </trkpt>
      <trkpt lat="41.01246" lon="0.6097">
        <ele>109.2</ele>
        <time>2022-05-24 13:34:20</time>
      </trkpt>
      <trkpt lat="41.01243" lon="0.60968">
        <ele>109.4</ele>
        <time>2022-05-24 13:34:21</time>
      </trkpt>
      <trkpt lat="41.01241" lon="0.60966">
        <ele>109.4</ele>
        <time>2022-05-24 13:34:22</time>
      </trkpt>
      <trkpt lat="41.01239" lon="0.60964">
        <ele>109.6</ele>
        <time>2022-05-24 13:34:23</time>
      </trkpt>
      <trkpt lat="41.01237" lon="0.60963">
        <ele>109.8</ele>
        <time>2022-05-24 13:34:24</time>
      </trkpt>
      <trkpt lat="41.01235" lon="0.60961">
        <ele>109.8</ele>
        <time>2022-05-24 13:34:25</time>
      </trkpt>
      <trkpt lat="41.01233" lon="0.60959">
        <ele>110</ele>
        <time>2022-05-24 13:34:26</time>
      </trkpt>
      <trkpt lat="41.0123" lon="0.60958">
        <ele>110.2</ele>
        <time>2022-05-24 13:34:27</time>
      </trkpt>
      <trkpt lat="41.01228" lon="0.60956">
        <ele>110.2</ele>
        <time>2022-05-24 13:34:28</time>
      </trkpt>
      <trkpt lat="41.01226" lon="0.60954">
        <ele>110.4</ele>
        <time>2022-05-24 13:34:29</time>
      </trkpt>
      <trkpt lat="41.01224" lon="0.60953">
        <ele>110.6</ele>
        <time>2022-05-24 13:34:30</time>
      </trkpt>
      <trkpt lat="41.01222" lon="0.60951">
        <ele>110.8</ele>
        <time>2022-05-24 13:34:31</time>
      </trkpt>
      <trkpt lat="41.0122" lon="0.6095">
        <ele>111</ele>
        <time>2022-05-24 13:34:32</time>
      </trkpt>
      <trkpt lat="41.01217" lon="0.60948">
        <ele>111</ele>
        <time>2022-05-24 13:34:33</time>
      </trkpt>
      <trkpt lat="41.01215" lon="0.60946">
        <ele>111.2</ele>
        <time>2022-05-24 13:34:34</time>
      </trkpt>
      <trkpt lat="41.01213" lon="0.60944">
        <ele>111.4</ele>
        <time>2022-05-24 13:34:35</time>
      </trkpt>
      <trkpt lat="41.01211" lon="0.60943">
        <ele>111.4</ele>
        <time>2022-05-24 13:34:36</time>
      </trkpt>
      <trkpt lat="41.01208" lon="0.60941">
        <ele>111.6</ele>
        <time>2022-05-24 13:34:37</time>
      </trkpt>
      <trkpt lat="41.01206" lon="0.60939">
        <ele>111.8</ele>
        <time>2022-05-24 13:34:38</time>
      </trkpt>
      <trkpt lat="41.01204" lon="0.60937">
        <ele>112</ele>
        <time>2022-05-24 13:34:39</time>
      </trkpt>
      <trkpt lat="41.01203" lon="0.60936">
        <ele>112</ele>
        <time>2022-05-24 13:34:40</time>
      </trkpt>
      <trkpt lat="41.012" lon="0.60934">
        <ele>112.2</ele>
        <time>2022-05-24 13:34:41</time>
      </trkpt>
      <trkpt lat="41.01197" lon="0.60932">
        <ele>112.4</ele>
        <time>2022-05-24 13:34:42</time>
      </trkpt>
      <trkpt lat="41.01195" lon="0.6093">
        <ele>112.4</ele>
        <time>2022-05-24 13:34:43</time>
      </trkpt>
      <trkpt lat="41.01193" lon="0.60929">
        <ele>112.6</ele>
        <time>2022-05-24 13:34:44</time>
      </trkpt>
      <trkpt lat="41.01191" lon="0.60927">
        <ele>112.6</ele>
        <time>2022-05-24 13:34:45</time>
      </trkpt>
      <trkpt lat="41.01188" lon="0.60925">
        <ele>112.8</ele>
        <time>2022-05-24 13:34:46</time>
      </trkpt>
      <trkpt lat="41.01186" lon="0.60923">
        <ele>113</ele>
        <time>2022-05-24 13:34:47</time>
      </trkpt>
      <trkpt lat="41.01184" lon="0.60922">
        <ele>113</ele>
        <time>2022-05-24 13:34:48</time>
      </trkpt>
      <trkpt lat="41.01182" lon="0.6092">
        <ele>113.2</ele>
        <time>2022-05-24 13:34:49</time>
      </trkpt>
      <trkpt lat="41.0118" lon="0.60918">
        <ele>113.2</ele>
        <time>2022-05-24 13:34:50</time>
      </trkpt>
      <trkpt lat="41.01177" lon="0.60917">
        <ele>113.4</ele>
        <time>2022-05-24 13:34:51</time>
      </trkpt>
      <trkpt lat="41.01176" lon="0.60915">
        <ele>113.4</ele>
        <time>2022-05-24 13:34:52</time>
      </trkpt>
      <trkpt lat="41.01173" lon="0.60913">
        <ele>113.6</ele>
        <time>2022-05-24 13:34:53</time>
      </trkpt>
      <trkpt lat="41.01171" lon="0.60912">
        <ele>113.8</ele>
        <time>2022-05-24 13:34:54</time>
      </trkpt>
      <trkpt lat="41.01168" lon="0.6091">
        <ele>114</ele>
        <time>2022-05-24 13:34:55</time>
      </trkpt>
      <trkpt lat="41.01167" lon="0.60909">
        <ele>114</ele>
        <time>2022-05-24 13:34:56</time>
      </trkpt>
      <trkpt lat="41.01164" lon="0.60907">
        <ele>114.2</ele>
        <time>2022-05-24 13:34:57</time>
      </trkpt>
      <trkpt lat="41.01162" lon="0.60905">
        <ele>114.2</ele>
        <time>2022-05-24 13:34:58</time>
      </trkpt>
      <trkpt lat="41.0116" lon="0.60903">
        <ele>114.4</ele>
        <time>2022-05-24 13:34:59</time>
      </trkpt>
      <trkpt lat="41.01158" lon="0.60902">
        <ele>114.4</ele>
        <time>2022-05-24 13:35:00</time>
      </trkpt>
      <trkpt lat="41.01155" lon="0.60899">
        <ele>114.6</ele>
        <time>2022-05-24 13:35:01</time>
      </trkpt>
      <trkpt lat="41.01153" lon="0.60898">
        <ele>114.6</ele>
        <time>2022-05-24 13:35:02</time>
      </trkpt>
      <trkpt lat="41.01151" lon="0.60896">
        <ele>114.8</ele>
        <time>2022-05-24 13:35:03</time>
      </trkpt>
      <trkpt lat="41.01149" lon="0.60895">
        <ele>115</ele>
        <time>2022-05-24 13:35:04</time>
      </trkpt>
      <trkpt lat="41.01146" lon="0.60893">
        <ele>115</ele>
        <time>2022-05-24 13:35:05</time>
      </trkpt>
      <trkpt lat="41.01144" lon="0.60891">
        <ele>115.2</ele>
        <time>2022-05-24 13:35:06</time>
      </trkpt>
      <trkpt lat="41.01141" lon="0.60889">
        <ele>115.4</ele>
        <time>2022-05-24 13:35:07</time>
      </trkpt>
      <trkpt lat="41.0114" lon="0.60888">
        <ele>115.4</ele>
        <time>2022-05-24 13:35:08</time>
      </trkpt>
      <trkpt lat="41.01137" lon="0.60885">
        <ele>115.6</ele>
        <time>2022-05-24 13:35:09</time>
      </trkpt>
      <trkpt lat="41.01134" lon="0.60883">
        <ele>115.6</ele>
        <time>2022-05-24 13:35:10</time>
      </trkpt>
      <trkpt lat="41.01132" lon="0.60882">
        <ele>115.8</ele>
        <time>2022-05-24 13:35:11</time>
      </trkpt>
      <trkpt lat="41.0113" lon="0.6088">
        <ele>116</ele>
        <time>2022-05-24 13:35:12</time>
      </trkpt>
      <trkpt lat="41.01127" lon="0.60878">
        <ele>116.2</ele>
        <time>2022-05-24 13:35:13</time>
      </trkpt>
      <trkpt lat="41.01125" lon="0.60877">
        <ele>116.2</ele>
        <time>2022-05-24 13:35:14</time>
      </trkpt>
      <trkpt lat="41.01122" lon="0.60875">
        <ele>116.4</ele>
        <time>2022-05-24 13:35:15</time>
      </trkpt>
      <trkpt lat="41.01121" lon="0.60874">
        <ele>116.4</ele>
        <time>2022-05-24 13:35:16</time>
      </trkpt>
      <trkpt lat="41.01117" lon="0.60871">
        <ele>116.4</ele>
        <time>2022-05-24 13:35:17</time>
      </trkpt>
      <trkpt lat="41.01115" lon="0.60869">
        <ele>116.6</ele>
        <time>2022-05-24 13:35:18</time>
      </trkpt>
      <trkpt lat="41.01113" lon="0.60868">
        <ele>116.8</ele>
        <time>2022-05-24 13:35:19</time>
      </trkpt>
      <trkpt lat="41.01111" lon="0.60866">
        <ele>116.8</ele>
        <time>2022-05-24 13:35:20</time>
      </trkpt>
      <trkpt lat="41.01109" lon="0.60864">
        <ele>117</ele>
        <time>2022-05-24 13:35:21</time>
      </trkpt>
      <trkpt lat="41.01106" lon="0.60862">
        <ele>117.2</ele>
        <time>2022-05-24 13:35:22</time>
      </trkpt>
      <trkpt lat="41.01104" lon="0.6086">
        <ele>117.2</ele>
        <time>2022-05-24 13:35:23</time>
      </trkpt>
      <trkpt lat="41.01101" lon="0.60858">
        <ele>117.4</ele>
        <time>2022-05-24 13:35:24</time>
      </trkpt>
      <trkpt lat="41.01099" lon="0.60856">
        <ele>117.6</ele>
        <time>2022-05-24 13:35:25</time>
      </trkpt>
      <trkpt lat="41.01096" lon="0.60855">
        <ele>117.6</ele>
        <time>2022-05-24 13:35:26</time>
      </trkpt>
      <trkpt lat="41.01094" lon="0.60853">
        <ele>117.8</ele>
        <time>2022-05-24 13:35:27</time>
      </trkpt>
      <trkpt lat="41.01092" lon="0.60851">
        <ele>117.8</ele>
        <time>2022-05-24 13:35:28</time>
      </trkpt>
      <trkpt lat="41.0109" lon="0.60849">
        <ele>118</ele>
        <time>2022-05-24 13:35:29</time>
      </trkpt>
      <trkpt lat="41.01087" lon="0.60847">
        <ele>118.2</ele>
        <time>2022-05-24 13:35:30</time>
      </trkpt>
      <trkpt lat="41.01085" lon="0.60845">
        <ele>118.2</ele>
        <time>2022-05-24 13:35:31</time>
      </trkpt>
      <trkpt lat="41.01082" lon="0.60843">
        <ele>118.4</ele>
        <time>2022-05-24 13:35:32</time>
      </trkpt>
      <trkpt lat="41.0108" lon="0.60842">
        <ele>118.4</ele>
        <time>2022-05-24 13:35:33</time>
      </trkpt>
      <trkpt lat="41.01078" lon="0.6084">
        <ele>118.6</ele>
        <time>2022-05-24 13:35:34</time>
      </trkpt>
      <trkpt lat="41.01075" lon="0.60838">
        <ele>118.8</ele>
        <time>2022-05-24 13:35:35</time>
      </trkpt>
      <trkpt lat="41.01073" lon="0.60836">
        <ele>118.8</ele>
        <time>2022-05-24 13:35:36</time>
      </trkpt>
      <trkpt lat="41.01071" lon="0.60835">
        <ele>119</ele>
        <time>2022-05-24 13:35:37</time>
      </trkpt>
      <trkpt lat="41.01068" lon="0.60833">
        <ele>119</ele>
        <time>2022-05-24 13:35:38</time>
      </trkpt>
      <trkpt lat="41.01066" lon="0.60831">
        <ele>119.2</ele>
        <time>2022-05-24 13:35:39</time>
      </trkpt>
      <trkpt lat="41.01063" lon="0.60829">
        <ele>119.4</ele>
        <time>2022-05-24 13:35:40</time>
      </trkpt>
      <trkpt lat="41.01061" lon="0.60827">
        <ele>119.4</ele>
        <time>2022-05-24 13:35:41</time>
      </trkpt>
      <trkpt lat="41.01058" lon="0.60825">
        <ele>119.6</ele>
        <time>2022-05-24 13:35:42</time>
      </trkpt>
      <trkpt lat="41.01056" lon="0.60823">
        <ele>119.8</ele>
        <time>2022-05-24 13:35:43</time>
      </trkpt>
      <trkpt lat="41.01053" lon="0.60821">
        <ele>119.8</ele>
        <time>2022-05-24 13:35:44</time>
      </trkpt>
      <trkpt lat="41.01051" lon="0.6082">
        <ele>120</ele>
        <time>2022-05-24 13:35:45</time>
      </trkpt>
      <trkpt lat="41.01048" lon="0.60818">
        <ele>120</ele>
        <time>2022-05-24 13:35:46</time>
      </trkpt>
      <trkpt lat="41.01046" lon="0.60816">
        <ele>120.2</ele>
        <time>2022-05-24 13:35:47</time>
      </trkpt>
      <trkpt lat="41.01044" lon="0.60814">
        <ele>120.4</ele>
        <time>2022-05-24 13:35:48</time>
      </trkpt>
      <trkpt lat="41.01041" lon="0.60812">
        <ele>120.4</ele>
        <time>2022-05-24 13:35:49</time>
      </trkpt>
      <trkpt lat="41.01039" lon="0.6081">
        <ele>120.6</ele>
        <time>2022-05-24 13:35:50</time>
      </trkpt>
      <trkpt lat="41.01037" lon="0.60809">
        <ele>120.8</ele>
        <time>2022-05-24 13:35:51</time>
      </trkpt>
      <trkpt lat="41.01034" lon="0.60807">
        <ele>121</ele>
        <time>2022-05-24 13:35:52</time>
      </trkpt>
      <trkpt lat="41.01032" lon="0.60805">
        <ele>121</ele>
        <time>2022-05-24 13:35:53</time>
      </trkpt>
      <trkpt lat="41.0103" lon="0.60804">
        <ele>121.2</ele>
        <time>2022-05-24 13:35:54</time>
      </trkpt>
      <trkpt lat="41.01027" lon="0.60802">
        <ele>121.2</ele>
        <time>2022-05-24 13:35:55</time>
      </trkpt>
      <trkpt lat="41.01025" lon="0.60801">
        <ele>121.4</ele>
        <time>2022-05-24 13:35:56</time>
      </trkpt>
      <trkpt lat="41.01023" lon="0.60799">
        <ele>121.6</ele>
        <time>2022-05-24 13:35:57</time>
      </trkpt>
      <trkpt lat="41.01021" lon="0.60797">
        <ele>121.6</ele>
        <time>2022-05-24 13:35:58</time>
      </trkpt>
      <trkpt lat="41.01019" lon="0.60795">
        <ele>121.8</ele>
        <time>2022-05-24 13:35:59</time>
      </trkpt>
      <trkpt lat="41.01017" lon="0.60793">
        <ele>121.8</ele>
        <time>2022-05-24 13:36:00</time>
      </trkpt>
      <trkpt lat="41.01014" lon="0.60792">
        <ele>122</ele>
        <time>2022-05-24 13:36:01</time>
      </trkpt>
      <trkpt lat="41.01012" lon="0.6079">
        <ele>122.2</ele>
        <time>2022-05-24 13:36:02</time>
      </trkpt>
      <trkpt lat="41.0101" lon="0.60789">
        <ele>122.2</ele>
        <time>2022-05-24 13:36:03</time>
      </trkpt>
      <trkpt lat="41.01008" lon="0.60788">
        <ele>122.4</ele>
        <time>2022-05-24 13:36:04</time>
      </trkpt>
      <trkpt lat="41.01005" lon="0.60786">
        <ele>122.6</ele>
        <time>2022-05-24 13:36:05</time>
      </trkpt>
      <trkpt lat="41.01003" lon="0.60784">
        <ele>122.6</ele>
        <time>2022-05-24 13:36:06</time>
      </trkpt>
      <trkpt lat="41.01001" lon="0.60782">
        <ele>122.8</ele>
        <time>2022-05-24 13:36:07</time>
      </trkpt>
      <trkpt lat="41.00999" lon="0.6078">
        <ele>122.8</ele>
        <time>2022-05-24 13:36:08</time>
      </trkpt>
      <trkpt lat="41.00997" lon="0.60779">
        <ele>123</ele>
        <time>2022-05-24 13:36:09</time>
      </trkpt>
      <trkpt lat="41.00994" lon="0.60777">
        <ele>123</ele>
        <time>2022-05-24 13:36:10</time>
      </trkpt>
      <trkpt lat="41.00992" lon="0.60775">
        <ele>123.2</ele>
        <time>2022-05-24 13:36:11</time>
      </trkpt>
      <trkpt lat="41.00989" lon="0.60774">
        <ele>123.4</ele>
        <time>2022-05-24 13:36:12</time>
      </trkpt>
      <trkpt lat="41.00987" lon="0.60772">
        <ele>123.4</ele>
        <time>2022-05-24 13:36:13</time>
      </trkpt>
      <trkpt lat="41.00985" lon="0.60771">
        <ele>123.6</ele>
        <time>2022-05-24 13:36:14</time>
      </trkpt>
      <trkpt lat="41.00983" lon="0.60769">
        <ele>123.8</ele>
        <time>2022-05-24 13:36:15</time>
      </trkpt>
      <trkpt lat="41.0098" lon="0.60767">
        <ele>124</ele>
        <time>2022-05-24 13:36:16</time>
      </trkpt>
      <trkpt lat="41.00978" lon="0.60765">
        <ele>124</ele>
        <time>2022-05-24 13:36:17</time>
      </trkpt>
      <trkpt lat="41.00975" lon="0.60763">
        <ele>124.2</ele>
        <time>2022-05-24 13:36:18</time>
      </trkpt>
      <trkpt lat="41.00974" lon="0.60762">
        <ele>124.2</ele>
        <time>2022-05-24 13:36:19</time>
      </trkpt>
      <trkpt lat="41.00971" lon="0.6076">
        <ele>124.4</ele>
        <time>2022-05-24 13:36:20</time>
      </trkpt>
      <trkpt lat="41.00969" lon="0.60759">
        <ele>124.6</ele>
        <time>2022-05-24 13:36:21</time>
      </trkpt>
      <trkpt lat="41.00967" lon="0.60757">
        <ele>124.6</ele>
        <time>2022-05-24 13:36:22</time>
      </trkpt>
      <trkpt lat="41.00964" lon="0.60755">
        <ele>124.8</ele>
        <time>2022-05-24 13:36:23</time>
      </trkpt>
      <trkpt lat="41.00962" lon="0.60753">
        <ele>125</ele>
        <time>2022-05-24 13:36:24</time>
      </trkpt>
      <trkpt lat="41.0096" lon="0.60751">
        <ele>125</ele>
        <time>2022-05-24 13:36:25</time>
      </trkpt>
      <trkpt lat="41.00958" lon="0.60749">
        <ele>125.2</ele>
        <time>2022-05-24 13:36:26</time>
      </trkpt>
      <trkpt lat="41.00956" lon="0.60748">
        <ele>125.4</ele>
        <time>2022-05-24 13:36:27</time>
      </trkpt>
      <trkpt lat="41.00953" lon="0.60746">
        <ele>125.4</ele>
        <time>2022-05-24 13:36:28</time>
      </trkpt>
      <trkpt lat="41.00951" lon="0.60745">
        <ele>125.6</ele>
        <time>2022-05-24 13:36:29</time>
      </trkpt>
      <trkpt lat="41.00948" lon="0.60743">
        <ele>125.8</ele>
        <time>2022-05-24 13:36:30</time>
      </trkpt>
      <trkpt lat="41.00946" lon="0.60741">
        <ele>125.8</ele>
        <time>2022-05-24 13:36:31</time>
      </trkpt>
      <trkpt lat="41.00944" lon="0.60739">
        <ele>126</ele>
        <time>2022-05-24 13:36:32</time>
      </trkpt>
      <trkpt lat="41.00942" lon="0.60737">
        <ele>126.2</ele>
        <time>2022-05-24 13:36:33</time>
      </trkpt>
      <trkpt lat="41.00939" lon="0.60735">
        <ele>126.2</ele>
        <time>2022-05-24 13:36:34</time>
      </trkpt>
      <trkpt lat="41.00937" lon="0.60733">
        <ele>126.4</ele>
        <time>2022-05-24 13:36:35</time>
      </trkpt>
      <trkpt lat="41.00934" lon="0.60732">
        <ele>126.6</ele>
        <time>2022-05-24 13:36:36</time>
      </trkpt>
      <trkpt lat="41.00932" lon="0.6073">
        <ele>126.6</ele>
        <time>2022-05-24 13:36:37</time>
      </trkpt>
      <trkpt lat="41.00929" lon="0.60728">
        <ele>126.8</ele>
        <time>2022-05-24 13:36:38</time>
      </trkpt>
      <trkpt lat="41.00927" lon="0.60726">
        <ele>127</ele>
        <time>2022-05-24 13:36:39</time>
      </trkpt>
      <trkpt lat="41.00924" lon="0.60724">
        <ele>127.2</ele>
        <time>2022-05-24 13:36:40</time>
      </trkpt>
      <trkpt lat="41.00922" lon="0.60722">
        <ele>127.4</ele>
        <time>2022-05-24 13:36:41</time>
      </trkpt>
      <trkpt lat="41.00919" lon="0.6072">
        <ele>127.4</ele>
        <time>2022-05-24 13:36:42</time>
      </trkpt>
      <trkpt lat="41.00917" lon="0.60718">
        <ele>127.6</ele>
        <time>2022-05-24 13:36:43</time>
      </trkpt>
      <trkpt lat="41.00915" lon="0.60716">
        <ele>127.8</ele>
        <time>2022-05-24 13:36:44</time>
      </trkpt>
      <trkpt lat="41.00912" lon="0.60714">
        <ele>128</ele>
        <time>2022-05-24 13:36:45</time>
      </trkpt>
      <trkpt lat="41.0091" lon="0.60712">
        <ele>128</ele>
        <time>2022-05-24 13:36:46</time>
      </trkpt>
      <trkpt lat="41.00908" lon="0.6071">
        <ele>128.2</ele>
        <time>2022-05-24 13:36:47</time>
      </trkpt>
      <trkpt lat="41.00905" lon="0.60708">
        <ele>128.4</ele>
        <time>2022-05-24 13:36:48</time>
      </trkpt>
      <trkpt lat="41.00903" lon="0.60706">
        <ele>128.6</ele>
        <time>2022-05-24 13:36:49</time>
      </trkpt>
      <trkpt lat="41.009" lon="0.60704">
        <ele>128.6</ele>
        <time>2022-05-24 13:36:50</time>
      </trkpt>
      <trkpt lat="41.00898" lon="0.60702">
        <ele>128.8</ele>
        <time>2022-05-24 13:36:51</time>
      </trkpt>
      <trkpt lat="41.00895" lon="0.607">
        <ele>129</ele>
        <time>2022-05-24 13:36:52</time>
      </trkpt>
      <trkpt lat="41.00894" lon="0.60699">
        <ele>129.2</ele>
        <time>2022-05-24 13:36:53</time>
      </trkpt>
      <trkpt lat="41.0089" lon="0.60696">
        <ele>129.4</ele>
        <time>2022-05-24 13:36:54</time>
      </trkpt>
      <trkpt lat="41.00888" lon="0.60694">
        <ele>129.4</ele>
        <time>2022-05-24 13:36:55</time>
      </trkpt>
      <trkpt lat="41.00885" lon="0.60692">
        <ele>129.6</ele>
        <time>2022-05-24 13:36:56</time>
      </trkpt>
      <trkpt lat="41.00884" lon="0.60691">
        <ele>129.8</ele>
        <time>2022-05-24 13:36:57</time>
      </trkpt>
      <trkpt lat="41.00881" lon="0.60688">
        <ele>130</ele>
        <time>2022-05-24 13:36:58</time>
      </trkpt>
      <trkpt lat="41.00879" lon="0.60686">
        <ele>130.2</ele>
        <time>2022-05-24 13:36:59</time>
      </trkpt>
      <trkpt lat="41.00876" lon="0.60684">
        <ele>130.2</ele>
        <time>2022-05-24 13:37:00</time>
      </trkpt>
      <trkpt lat="41.00874" lon="0.60682">
        <ele>130.4</ele>
        <time>2022-05-24 13:37:01</time>
      </trkpt>
      <trkpt lat="41.00871" lon="0.60679">
        <ele>130.6</ele>
        <time>2022-05-24 13:37:02</time>
      </trkpt>
      <trkpt lat="41.00869" lon="0.60677">
        <ele>130.8</ele>
        <time>2022-05-24 13:37:03</time>
      </trkpt>
      <trkpt lat="41.00866" lon="0.60675">
        <ele>131</ele>
        <time>2022-05-24 13:37:04</time>
      </trkpt>
      <trkpt lat="41.00865" lon="0.60674">
        <ele>131</ele>
        <time>2022-05-24 13:37:05</time>
      </trkpt>
      <trkpt lat="41.00861" lon="0.60671">
        <ele>131.2</ele>
        <time>2022-05-24 13:37:06</time>
      </trkpt>
      <trkpt lat="41.00859" lon="0.60669">
        <ele>131.4</ele>
        <time>2022-05-24 13:37:07</time>
      </trkpt>
      <trkpt lat="41.00857" lon="0.60666">
        <ele>131.6</ele>
        <time>2022-05-24 13:37:08</time>
      </trkpt>
      <trkpt lat="41.00855" lon="0.60665">
        <ele>131.6</ele>
        <time>2022-05-24 13:37:09</time>
      </trkpt>
      <trkpt lat="41.00852" lon="0.60662">
        <ele>131.8</ele>
        <time>2022-05-24 13:37:10</time>
      </trkpt>
      <trkpt lat="41.0085" lon="0.60659">
        <ele>132</ele>
        <time>2022-05-24 13:37:11</time>
      </trkpt>
      <trkpt lat="41.00847" lon="0.60657">
        <ele>132.2</ele>
        <time>2022-05-24 13:37:12</time>
      </trkpt>
      <trkpt lat="41.00846" lon="0.60655">
        <ele>132.4</ele>
        <time>2022-05-24 13:37:13</time>
      </trkpt>
      <trkpt lat="41.00843" lon="0.60652">
        <ele>132.4</ele>
        <time>2022-05-24 13:37:14</time>
      </trkpt>
      <trkpt lat="41.00841" lon="0.60649">
        <ele>132.6</ele>
        <time>2022-05-24 13:37:15</time>
      </trkpt>
      <trkpt lat="41.00838" lon="0.60647">
        <ele>132.8</ele>
        <time>2022-05-24 13:37:16</time>
      </trkpt>
      <trkpt lat="41.00837" lon="0.60645">
        <ele>133</ele>
        <time>2022-05-24 13:37:17</time>
      </trkpt>
      <trkpt lat="41.00834" lon="0.60642">
        <ele>133.2</ele>
        <time>2022-05-24 13:37:18</time>
      </trkpt>
      <trkpt lat="41.00832" lon="0.60639">
        <ele>133.4</ele>
        <time>2022-05-24 13:37:19</time>
      </trkpt>
      <trkpt lat="41.0083" lon="0.60637">
        <ele>133.4</ele>
        <time>2022-05-24 13:37:20</time>
      </trkpt>
      <trkpt lat="41.00828" lon="0.60635">
        <ele>133.6</ele>
        <time>2022-05-24 13:37:21</time>
      </trkpt>
      <trkpt lat="41.00826" lon="0.60632">
        <ele>133.8</ele>
        <time>2022-05-24 13:37:22</time>
      </trkpt>
      <trkpt lat="41.00824" lon="0.60629">
        <ele>134</ele>
        <time>2022-05-24 13:37:23</time>
      </trkpt>
      <trkpt lat="41.00822" lon="0.60626">
        <ele>134.2</ele>
        <time>2022-05-24 13:37:24</time>
      </trkpt>
      <trkpt lat="41.00821" lon="0.60625">
        <ele>134.2</ele>
        <time>2022-05-24 13:37:25</time>
      </trkpt>
      <trkpt lat="41.00818" lon="0.60621">
        <ele>134.4</ele>
        <time>2022-05-24 13:37:26</time>
      </trkpt>
      <trkpt lat="41.00816" lon="0.60618">
        <ele>134.6</ele>
        <time>2022-05-24 13:37:27</time>
      </trkpt>
      <trkpt lat="41.00814" lon="0.60616">
        <ele>134.8</ele>
        <time>2022-05-24 13:37:28</time>
      </trkpt>
      <trkpt lat="41.00813" lon="0.60614">
        <ele>134.8</ele>
        <time>2022-05-24 13:37:29</time>
      </trkpt>
      <trkpt lat="41.0081" lon="0.6061">
        <ele>135</ele>
        <time>2022-05-24 13:37:30</time>
      </trkpt>
      <trkpt lat="41.00808" lon="0.60607">
        <ele>135.2</ele>
        <time>2022-05-24 13:37:31</time>
      </trkpt>
      <trkpt lat="41.00806" lon="0.60604">
        <ele>135.4</ele>
        <time>2022-05-24 13:37:32</time>
      </trkpt>
      <trkpt lat="41.00806" lon="0.60602">
        <ele>135.4</ele>
        <time>2022-05-24 13:37:33</time>
      </trkpt>
      <trkpt lat="41.00803" lon="0.60598">
        <ele>135.6</ele>
        <time>2022-05-24 13:37:34</time>
      </trkpt>
      <trkpt lat="41.00801" lon="0.60595">
        <ele>135.8</ele>
        <time>2022-05-24 13:37:35</time>
      </trkpt>
      <trkpt lat="41.00798" lon="0.60591">
        <ele>136</ele>
        <time>2022-05-24 13:37:36</time>
      </trkpt>
      <trkpt lat="41.00797" lon="0.6059">
        <ele>136</ele>
        <time>2022-05-24 13:37:37</time>
      </trkpt>
      <trkpt lat="41.00794" lon="0.60586">
        <ele>136.2</ele>
        <time>2022-05-24 13:37:38</time>
      </trkpt>
      <trkpt lat="41.00792" lon="0.60582">
        <ele>136.4</ele>
        <time>2022-05-24 13:37:39</time>
      </trkpt>
      <trkpt lat="41.00791" lon="0.6058">
        <ele>136.6</ele>
        <time>2022-05-24 13:37:40</time>
      </trkpt>
      <trkpt lat="41.00788" lon="0.60576">
        <ele>136.8</ele>
        <time>2022-05-24 13:37:41</time>
      </trkpt>
      <trkpt lat="41.00786" lon="0.60573">
        <ele>136.8</ele>
        <time>2022-05-24 13:37:42</time>
      </trkpt>
      <trkpt lat="41.00784" lon="0.6057">
        <ele>137</ele>
        <time>2022-05-24 13:37:43</time>
      </trkpt>
      <trkpt lat="41.00782" lon="0.60566">
        <ele>137.2</ele>
        <time>2022-05-24 13:37:44</time>
      </trkpt>
      <trkpt lat="41.00779" lon="0.60563">
        <ele>137.4</ele>
        <time>2022-05-24 13:37:45</time>
      </trkpt>
      <trkpt lat="41.00778" lon="0.60561">
        <ele>137.4</ele>
        <time>2022-05-24 13:37:46</time>
      </trkpt>
      <trkpt lat="41.00775" lon="0.60557">
        <ele>137.6</ele>
        <time>2022-05-24 13:37:47</time>
      </trkpt>
      <trkpt lat="41.00773" lon="0.60553">
        <ele>137.8</ele>
        <time>2022-05-24 13:37:48</time>
      </trkpt>
      <trkpt lat="41.00772" lon="0.60551">
        <ele>137.8</ele>
        <time>2022-05-24 13:37:49</time>
      </trkpt>
      <trkpt lat="41.00769" lon="0.60546">
        <ele>138</ele>
        <time>2022-05-24 13:37:50</time>
      </trkpt>
      <trkpt lat="41.00767" lon="0.60543">
        <ele>138</ele>
        <time>2022-05-24 13:37:51</time>
      </trkpt>
      <trkpt lat="41.00765" lon="0.6054">
        <ele>138.2</ele>
        <time>2022-05-24 13:37:52</time>
      </trkpt>
      <trkpt lat="41.00763" lon="0.60536">
        <ele>138.2</ele>
        <time>2022-05-24 13:37:53</time>
      </trkpt>
      <trkpt lat="41.00761" lon="0.60532">
        <ele>138.4</ele>
        <time>2022-05-24 13:37:54</time>
      </trkpt>
      <trkpt lat="41.0076" lon="0.6053">
        <ele>138.4</ele>
        <time>2022-05-24 13:37:55</time>
      </trkpt>
      <trkpt lat="41.00757" lon="0.60525">
        <ele>138.6</ele>
        <time>2022-05-24 13:37:56</time>
      </trkpt>
      <trkpt lat="41.00755" lon="0.60521">
        <ele>138.8</ele>
        <time>2022-05-24 13:37:57</time>
      </trkpt>
      <trkpt lat="41.00754" lon="0.60518">
        <ele>138.8</ele>
        <time>2022-05-24 13:37:58</time>
      </trkpt>
      <trkpt lat="41.00752" lon="0.60514">
        <ele>138.8</ele>
        <time>2022-05-24 13:37:59</time>
      </trkpt>
      <trkpt lat="41.0075" lon="0.6051">
        <ele>138.8</ele>
        <time>2022-05-24 13:38:00</time>
      </trkpt>
      <trkpt lat="41.00749" lon="0.60506">
        <ele>139</ele>
        <time>2022-05-24 13:38:01</time>
      </trkpt>
      <trkpt lat="41.00746" lon="0.60502">
        <ele>139</ele>
        <time>2022-05-24 13:38:02</time>
      </trkpt>
      <trkpt lat="41.00744" lon="0.60497">
        <ele>139</ele>
        <time>2022-05-24 13:38:03</time>
      </trkpt>
      <trkpt lat="41.00742" lon="0.60493">
        <ele>139.2</ele>
        <time>2022-05-24 13:38:04</time>
      </trkpt>
      <trkpt lat="41.00741" lon="0.60489">
        <ele>139.2</ele>
        <time>2022-05-24 13:38:05</time>
      </trkpt>
      <trkpt lat="41.00739" lon="0.60486">
        <ele>139.2</ele>
        <time>2022-05-24 13:38:06</time>
      </trkpt>
      <trkpt lat="41.00737" lon="0.60482">
        <ele>139.2</ele>
        <time>2022-05-24 13:38:07</time>
      </trkpt>
      <trkpt lat="41.00735" lon="0.60477">
        <ele>139.2</ele>
        <time>2022-05-24 13:38:08</time>
      </trkpt>
      <trkpt lat="41.00733" lon="0.60473">
        <ele>139.4</ele>
        <time>2022-05-24 13:38:09</time>
      </trkpt>
      <trkpt lat="41.00731" lon="0.60469">
        <ele>139.4</ele>
        <time>2022-05-24 13:38:10</time>
      </trkpt>
      <trkpt lat="41.00729" lon="0.60464">
        <ele>139.4</ele>
        <time>2022-05-24 13:38:11</time>
      </trkpt>
      <trkpt lat="41.00728" lon="0.60459">
        <ele>139.4</ele>
        <time>2022-05-24 13:38:12</time>
      </trkpt>
      <trkpt lat="41.00726" lon="0.60455">
        <ele>139.4</ele>
        <time>2022-05-24 13:38:13</time>
      </trkpt>
      <trkpt lat="41.00724" lon="0.6045">
        <ele>139.4</ele>
        <time>2022-05-24 13:38:14</time>
      </trkpt>
      <trkpt lat="41.00722" lon="0.60445">
        <ele>139.4</ele>
        <time>2022-05-24 13:38:15</time>
      </trkpt>
      <trkpt lat="41.0072" lon="0.6044">
        <ele>139.4</ele>
        <time>2022-05-24 13:38:16</time>
      </trkpt>
      <trkpt lat="41.00719" lon="0.60434">
        <ele>139.4</ele>
        <time>2022-05-24 13:38:17</time>
      </trkpt>
      <trkpt lat="41.00717" lon="0.60429">
        <ele>139.4</ele>
        <time>2022-05-24 13:38:18</time>
      </trkpt>
      <trkpt lat="41.00715" lon="0.60424">
        <ele>139.2</ele>
        <time>2022-05-24 13:38:19</time>
      </trkpt>
      <trkpt lat="41.00713" lon="0.60419">
        <ele>139.2</ele>
        <time>2022-05-24 13:38:20</time>
      </trkpt>
      <trkpt lat="41.00711" lon="0.60413">
        <ele>139.2</ele>
        <time>2022-05-24 13:38:21</time>
      </trkpt>
      <trkpt lat="41.00709" lon="0.60408">
        <ele>139.2</ele>
        <time>2022-05-24 13:38:22</time>
      </trkpt>
      <trkpt lat="41.00707" lon="0.60402">
        <ele>139.2</ele>
        <time>2022-05-24 13:38:23</time>
      </trkpt>
      <trkpt lat="41.00705" lon="0.60396">
        <ele>139</ele>
        <time>2022-05-24 13:38:24</time>
      </trkpt>
      <trkpt lat="41.00704" lon="0.60391">
        <ele>139</ele>
        <time>2022-05-24 13:38:25</time>
      </trkpt>
      <trkpt lat="41.00702" lon="0.60385">
        <ele>138.8</ele>
        <time>2022-05-24 13:38:26</time>
      </trkpt>
      <trkpt lat="41.00701" lon="0.60379">
        <ele>138.8</ele>
        <time>2022-05-24 13:38:27</time>
      </trkpt>
      <trkpt lat="41.007" lon="0.60373">
        <ele>138.8</ele>
        <time>2022-05-24 13:38:28</time>
      </trkpt>
      <trkpt lat="41.00699" lon="0.60367">
        <ele>138.6</ele>
        <time>2022-05-24 13:38:29</time>
      </trkpt>
      <trkpt lat="41.00697" lon="0.60361">
        <ele>138.6</ele>
        <time>2022-05-24 13:38:30</time>
      </trkpt>
      <trkpt lat="41.00696" lon="0.60354">
        <ele>138.4</ele>
        <time>2022-05-24 13:38:31</time>
      </trkpt>
      <trkpt lat="41.00696" lon="0.60348">
        <ele>138.4</ele>
        <time>2022-05-24 13:38:32</time>
      </trkpt>
      <trkpt lat="41.00695" lon="0.6034">
        <ele>138.2</ele>
        <time>2022-05-24 13:38:33</time>
      </trkpt>
      <trkpt lat="41.00695" lon="0.60333">
        <ele>138</ele>
        <time>2022-05-24 13:38:34</time>
      </trkpt>
      <trkpt lat="41.00694" lon="0.60325">
        <ele>137.6</ele>
        <time>2022-05-24 13:38:35</time>
      </trkpt>
      <trkpt lat="41.00694" lon="0.60318">
        <ele>137.4</ele>
        <time>2022-05-24 13:38:36</time>
      </trkpt>
      <trkpt lat="41.00694" lon="0.6031">
        <ele>137.2</ele>
        <time>2022-05-24 13:38:37</time>
      </trkpt>
      <trkpt lat="41.00693" lon="0.60302">
        <ele>137</ele>
        <time>2022-05-24 13:38:38</time>
      </trkpt>
      <trkpt lat="41.00693" lon="0.60293">
        <ele>136.8</ele>
        <time>2022-05-24 13:38:39</time>
      </trkpt>
      <trkpt lat="41.00693" lon="0.60284">
        <ele>136.4</ele>
        <time>2022-05-24 13:38:40</time>
      </trkpt>
      <trkpt lat="41.00692" lon="0.60275">
        <ele>136.2</ele>
        <time>2022-05-24 13:38:41</time>
      </trkpt>
      <trkpt lat="41.00692" lon="0.60266">
        <ele>135.8</ele>
        <time>2022-05-24 13:38:42</time>
      </trkpt>
      <trkpt lat="41.00692" lon="0.60257">
        <ele>135.6</ele>
        <time>2022-05-24 13:38:43</time>
      </trkpt>
      <trkpt lat="41.00693" lon="0.60247">
        <ele>135.2</ele>
        <time>2022-05-24 13:38:44</time>
      </trkpt>
      <trkpt lat="41.00694" lon="0.60237">
        <ele>134.8</ele>
        <time>2022-05-24 13:38:45</time>
      </trkpt>
      <trkpt lat="41.00696" lon="0.60226">
        <ele>134.2</ele>
        <time>2022-05-24 13:38:46</time>
      </trkpt>
      <trkpt lat="41.00697" lon="0.60216">
        <ele>133.8</ele>
        <time>2022-05-24 13:38:47</time>
      </trkpt>
      <trkpt lat="41.00699" lon="0.60205">
        <ele>133.2</ele>
        <time>2022-05-24 13:38:48</time>
      </trkpt>
      <trkpt lat="41.00702" lon="0.60193">
        <ele>132.8</ele>
        <time>2022-05-24 13:38:49</time>
      </trkpt>
      <trkpt lat="41.00704" lon="0.60182">
        <ele>132.4</ele>
        <time>2022-05-24 13:38:50</time>
      </trkpt>
      <trkpt lat="41.00707" lon="0.60171">
        <ele>131.8</ele>
        <time>2022-05-24 13:38:51</time>
      </trkpt>
      <trkpt lat="41.0071" lon="0.6016">
        <ele>131.2</ele>
        <time>2022-05-24 13:38:52</time>
      </trkpt>
      <trkpt lat="41.00714" lon="0.60149">
        <ele>130.6</ele>
        <time>2022-05-24 13:38:53</time>
      </trkpt>
      <trkpt lat="41.00716" lon="0.60138">
        <ele>130</ele>
        <time>2022-05-24 13:38:54</time>
      </trkpt>
      <trkpt lat="41.00721" lon="0.60129">
        <ele>129.6</ele>
        <time>2022-05-24 13:38:55</time>
      </trkpt>
      <trkpt lat="41.00725" lon="0.60117">
        <ele>129</ele>
        <time>2022-05-24 13:38:56</time>
      </trkpt>
      <trkpt lat="41.00729" lon="0.60104">
        <ele>128.4</ele>
        <time>2022-05-24 13:38:57</time>
      </trkpt>
      <trkpt lat="41.00732" lon="0.60092">
        <ele>127.8</ele>
        <time>2022-05-24 13:38:58</time>
      </trkpt>
      <trkpt lat="41.00735" lon="0.6008">
        <ele>127.4</ele>
        <time>2022-05-24 13:38:59</time>
      </trkpt>
      <trkpt lat="41.00739" lon="0.60067">
        <ele>126.8</ele>
        <time>2022-05-24 13:39:00</time>
      </trkpt>
      <trkpt lat="41.00743" lon="0.60055">
        <ele>126.4</ele>
        <time>2022-05-24 13:39:01</time>
      </trkpt>
      <trkpt lat="41.00746" lon="0.60043">
        <ele>126</ele>
        <time>2022-05-24 13:39:02</time>
      </trkpt>
      <trkpt lat="41.00749" lon="0.60031">
        <ele>125.4</ele>
        <time>2022-05-24 13:39:03</time>
      </trkpt>
      <trkpt lat="41.00751" lon="0.60018">
        <ele>124.8</ele>
        <time>2022-05-24 13:39:04</time>
      </trkpt>
      <trkpt lat="41.00753" lon="0.60005">
        <ele>124.4</ele>
        <time>2022-05-24 13:39:05</time>
      </trkpt>
      <trkpt lat="41.00754" lon="0.59993">
        <ele>124</ele>
        <time>2022-05-24 13:39:06</time>
      </trkpt>
      <trkpt lat="41.00756" lon="0.5998">
        <ele>123.6</ele>
        <time>2022-05-24 13:39:07</time>
      </trkpt>
      <trkpt lat="41.00757" lon="0.59967">
        <ele>123.4</ele>
        <time>2022-05-24 13:39:08</time>
      </trkpt>
      <trkpt lat="41.00758" lon="0.59955">
        <ele>123.2</ele>
        <time>2022-05-24 13:39:09</time>
      </trkpt>
      <trkpt lat="41.00758" lon="0.59943">
        <ele>123</ele>
        <time>2022-05-24 13:39:10</time>
      </trkpt>
      <trkpt lat="41.00758" lon="0.59931">
        <ele>123</ele>
        <time>2022-05-24 13:39:11</time>
      </trkpt>
      <trkpt lat="41.00758" lon="0.59919">
        <ele>122.8</ele>
        <time>2022-05-24 13:39:12</time>
      </trkpt>
      <trkpt lat="41.00758" lon="0.59908">
        <ele>122.8</ele>
        <time>2022-05-24 13:39:13</time>
      </trkpt>
      <trkpt lat="41.00757" lon="0.59897">
        <ele>122.8</ele>
        <time>2022-05-24 13:39:14</time>
      </trkpt>
      <trkpt lat="41.00756" lon="0.59886">
        <ele>122.8</ele>
        <time>2022-05-24 13:39:15</time>
      </trkpt>
      <trkpt lat="41.00755" lon="0.59875">
        <ele>122.8</ele>
        <time>2022-05-24 13:39:16</time>
      </trkpt>
      <trkpt lat="41.00753" lon="0.59865">
        <ele>123</ele>
        <time>2022-05-24 13:39:17</time>
      </trkpt>
      <trkpt lat="41.00752" lon="0.59855">
        <ele>123</ele>
        <time>2022-05-24 13:39:18</time>
      </trkpt>
      <trkpt lat="41.0075" lon="0.59845">
        <ele>123</ele>
        <time>2022-05-24 13:39:19</time>
      </trkpt>
      <trkpt lat="41.00748" lon="0.59836">
        <ele>123.2</ele>
        <time>2022-05-24 13:39:20</time>
      </trkpt>
      <trkpt lat="41.00746" lon="0.59827">
        <ele>123.4</ele>
        <time>2022-05-24 13:39:21</time>
      </trkpt>
      <trkpt lat="41.00743" lon="0.59818">
        <ele>123.6</ele>
        <time>2022-05-24 13:39:22</time>
      </trkpt>
      <trkpt lat="41.00741" lon="0.5981">
        <ele>123.6</ele>
        <time>2022-05-24 13:39:23</time>
      </trkpt>
      <trkpt lat="41.00739" lon="0.59802">
        <ele>123.8</ele>
        <time>2022-05-24 13:39:24</time>
      </trkpt>
      <trkpt lat="41.00736" lon="0.59795">
        <ele>124</ele>
        <time>2022-05-24 13:39:25</time>
      </trkpt>
      <trkpt lat="41.00734" lon="0.59787">
        <ele>124.2</ele>
        <time>2022-05-24 13:39:26</time>
      </trkpt>
      <trkpt lat="41.00731" lon="0.5978">
        <ele>124.4</ele>
        <time>2022-05-24 13:39:27</time>
      </trkpt>
      <trkpt lat="41.00729" lon="0.59773">
        <ele>124.8</ele>
        <time>2022-05-24 13:39:28</time>
      </trkpt>
      <trkpt lat="41.00726" lon="0.59767">
        <ele>125</ele>
        <time>2022-05-24 13:39:29</time>
      </trkpt>
      <trkpt lat="41.00724" lon="0.5976">
        <ele>125.2</ele>
        <time>2022-05-24 13:39:30</time>
      </trkpt>
      <trkpt lat="41.00721" lon="0.59754">
        <ele>125.6</ele>
        <time>2022-05-24 13:39:31</time>
      </trkpt>
      <trkpt lat="41.00719" lon="0.59748">
        <ele>125.8</ele>
        <time>2022-05-24 13:39:32</time>
      </trkpt>
      <trkpt lat="41.00716" lon="0.59743">
        <ele>126.2</ele>
        <time>2022-05-24 13:39:33</time>
      </trkpt>
      <trkpt lat="41.00713" lon="0.59737">
        <ele>126.4</ele>
        <time>2022-05-24 13:39:34</time>
      </trkpt>
      <trkpt lat="41.00711" lon="0.59732">
        <ele>126.8</ele>
        <time>2022-05-24 13:39:35</time>
      </trkpt>
      <trkpt lat="41.00708" lon="0.59728">
        <ele>127</ele>
        <time>2022-05-24 13:39:36</time>
      </trkpt>
      <trkpt lat="41.00706" lon="0.59723">
        <ele>127.2</ele>
        <time>2022-05-24 13:39:37</time>
      </trkpt>
      <trkpt lat="41.00703" lon="0.59718">
        <ele>127.4</ele>
        <time>2022-05-24 13:39:38</time>
      </trkpt>
      <trkpt lat="41.00701" lon="0.59713">
        <ele>127.6</ele>
        <time>2022-05-24 13:39:39</time>
      </trkpt>
      <trkpt lat="41.00698" lon="0.59709">
        <ele>128</ele>
        <time>2022-05-24 13:39:40</time>
      </trkpt>
      <trkpt lat="41.00696" lon="0.59704">
        <ele>128.2</ele>
        <time>2022-05-24 13:39:41</time>
      </trkpt>
      <trkpt lat="41.00693" lon="0.59699">
        <ele>128.4</ele>
        <time>2022-05-24 13:39:42</time>
      </trkpt>
      <trkpt lat="41.00691" lon="0.59694">
        <ele>128.6</ele>
        <time>2022-05-24 13:39:43</time>
      </trkpt>
      <trkpt lat="41.00688" lon="0.5969">
        <ele>128.8</ele>
        <time>2022-05-24 13:39:44</time>
      </trkpt>
      <trkpt lat="41.00686" lon="0.59686">
        <ele>129</ele>
        <time>2022-05-24 13:39:45</time>
      </trkpt>
      <trkpt lat="41.00683" lon="0.59681">
        <ele>129.2</ele>
        <time>2022-05-24 13:39:46</time>
      </trkpt>
      <trkpt lat="41.00681" lon="0.59677">
        <ele>129.4</ele>
        <time>2022-05-24 13:39:47</time>
      </trkpt>
      <trkpt lat="41.00679" lon="0.59673">
        <ele>129.6</ele>
        <time>2022-05-24 13:39:48</time>
      </trkpt>
      <trkpt lat="41.00676" lon="0.59668">
        <ele>129.6</ele>
        <time>2022-05-24 13:39:49</time>
      </trkpt>
      <trkpt lat="41.00674" lon="0.59664">
        <ele>129.8</ele>
        <time>2022-05-24 13:39:50</time>
      </trkpt>
      <trkpt lat="41.00672" lon="0.5966">
        <ele>130.2</ele>
        <time>2022-05-24 13:39:51</time>
      </trkpt>
      <trkpt lat="41.00669" lon="0.59657">
        <ele>130.4</ele>
        <time>2022-05-24 13:39:52</time>
      </trkpt>
      <trkpt lat="41.00668" lon="0.59653">
        <ele>130.6</ele>
        <time>2022-05-24 13:39:53</time>
      </trkpt>
      <trkpt lat="41.00666" lon="0.5965">
        <ele>130.8</ele>
        <time>2022-05-24 13:39:54</time>
      </trkpt>
      <trkpt lat="41.00664" lon="0.59647">
        <ele>130.8</ele>
        <time>2022-05-24 13:39:55</time>
      </trkpt>
      <trkpt lat="41.00662" lon="0.59643">
        <ele>131</ele>
        <time>2022-05-24 13:39:56</time>
      </trkpt>
      <trkpt lat="41.0066" lon="0.5964">
        <ele>131.2</ele>
        <time>2022-05-24 13:39:57</time>
      </trkpt>
      <trkpt lat="41.00659" lon="0.59637">
        <ele>131.4</ele>
        <time>2022-05-24 13:39:58</time>
      </trkpt>
      <trkpt lat="41.00657" lon="0.59633">
        <ele>131.6</ele>
        <time>2022-05-24 13:39:59</time>
      </trkpt>
      <trkpt lat="41.00655" lon="0.5963">
        <ele>131.6</ele>
        <time>2022-05-24 13:40:00</time>
      </trkpt>
      <trkpt lat="41.00654" lon="0.59628">
        <ele>131.8</ele>
        <time>2022-05-24 13:40:01</time>
      </trkpt>
      <trkpt lat="41.00652" lon="0.59625">
        <ele>132</ele>
        <time>2022-05-24 13:40:02</time>
      </trkpt>
      <trkpt lat="41.0065" lon="0.59622">
        <ele>132</ele>
        <time>2022-05-24 13:40:03</time>
      </trkpt>
      <trkpt lat="41.00648" lon="0.59619">
        <ele>132.2</ele>
        <time>2022-05-24 13:40:04</time>
      </trkpt>
      <trkpt lat="41.00647" lon="0.59615">
        <ele>132.4</ele>
        <time>2022-05-24 13:40:05</time>
      </trkpt>
      <trkpt lat="41.00645" lon="0.59612">
        <ele>132.6</ele>
        <time>2022-05-24 13:40:06</time>
      </trkpt>
      <trkpt lat="41.00643" lon="0.59609">
        <ele>132.6</ele>
        <time>2022-05-24 13:40:07</time>
      </trkpt>
      <trkpt lat="41.00642" lon="0.59606">
        <ele>132.8</ele>
        <time>2022-05-24 13:40:08</time>
      </trkpt>
      <trkpt lat="41.0064" lon="0.59603">
        <ele>133</ele>
        <time>2022-05-24 13:40:09</time>
      </trkpt>
      <trkpt lat="41.00638" lon="0.596">
        <ele>133</ele>
        <time>2022-05-24 13:40:10</time>
      </trkpt>
      <trkpt lat="41.00637" lon="0.59598">
        <ele>133.2</ele>
        <time>2022-05-24 13:40:11</time>
      </trkpt>
      <trkpt lat="41.00635" lon="0.59595">
        <ele>133.4</ele>
        <time>2022-05-24 13:40:12</time>
      </trkpt>
      <trkpt lat="41.00633" lon="0.59592">
        <ele>133.6</ele>
        <time>2022-05-24 13:40:13</time>
      </trkpt>
      <trkpt lat="41.00631" lon="0.59589">
        <ele>133.8</ele>
        <time>2022-05-24 13:40:14</time>
      </trkpt>
      <trkpt lat="41.0063" lon="0.59586">
        <ele>134</ele>
        <time>2022-05-24 13:40:15</time>
      </trkpt>
      <trkpt lat="41.00628" lon="0.59583">
        <ele>134</ele>
        <time>2022-05-24 13:40:16</time>
      </trkpt>
      <trkpt lat="41.00626" lon="0.5958">
        <ele>134.2</ele>
        <time>2022-05-24 13:40:17</time>
      </trkpt>
      <trkpt lat="41.00625" lon="0.59577">
        <ele>134.4</ele>
        <time>2022-05-24 13:40:18</time>
      </trkpt>
      <trkpt lat="41.00623" lon="0.59574">
        <ele>134.6</ele>
        <time>2022-05-24 13:40:19</time>
      </trkpt>
      <trkpt lat="41.00621" lon="0.59571">
        <ele>134.6</ele>
        <time>2022-05-24 13:40:20</time>
      </trkpt>
      <trkpt lat="41.0062" lon="0.59568">
        <ele>134.8</ele>
        <time>2022-05-24 13:40:21</time>
      </trkpt>
      <trkpt lat="41.00618" lon="0.59565">
        <ele>135</ele>
        <time>2022-05-24 13:40:22</time>
      </trkpt>
      <trkpt lat="41.00616" lon="0.59562">
        <ele>135</ele>
        <time>2022-05-24 13:40:23</time>
      </trkpt>
      <trkpt lat="41.00615" lon="0.59559">
        <ele>135.2</ele>
        <time>2022-05-24 13:40:24</time>
      </trkpt>
      <trkpt lat="41.00613" lon="0.59556">
        <ele>135.4</ele>
        <time>2022-05-24 13:40:25</time>
      </trkpt>
      <trkpt lat="41.00611" lon="0.59553">
        <ele>135.6</ele>
        <time>2022-05-24 13:40:26</time>
      </trkpt>
      <trkpt lat="41.0061" lon="0.59551">
        <ele>135.6</ele>
        <time>2022-05-24 13:40:27</time>
      </trkpt>
      <trkpt lat="41.00608" lon="0.59547">
        <ele>135.8</ele>
        <time>2022-05-24 13:40:28</time>
      </trkpt>
      <trkpt lat="41.00606" lon="0.59544">
        <ele>136</ele>
        <time>2022-05-24 13:40:29</time>
      </trkpt>
      <trkpt lat="41.00605" lon="0.59541">
        <ele>136.2</ele>
        <time>2022-05-24 13:40:30</time>
      </trkpt>
      <trkpt lat="41.00603" lon="0.59538">
        <ele>136.2</ele>
        <time>2022-05-24 13:40:31</time>
      </trkpt>
      <trkpt lat="41.00601" lon="0.59535">
        <ele>136.4</ele>
        <time>2022-05-24 13:40:32</time>
      </trkpt>
      <trkpt lat="41.006" lon="0.59533">
        <ele>136.6</ele>
        <time>2022-05-24 13:40:33</time>
      </trkpt>
      <trkpt lat="41.00598" lon="0.5953">
        <ele>136.6</ele>
        <time>2022-05-24 13:40:34</time>
      </trkpt>
      <trkpt lat="41.00597" lon="0.59526">
        <ele>136.8</ele>
        <time>2022-05-24 13:40:35</time>
      </trkpt>
      <trkpt lat="41.00595" lon="0.59523">
        <ele>137</ele>
        <time>2022-05-24 13:40:36</time>
      </trkpt>
      <trkpt lat="41.00593" lon="0.59521">
        <ele>137</ele>
        <time>2022-05-24 13:40:37</time>
      </trkpt>
      <trkpt lat="41.00592" lon="0.59518">
        <ele>137.2</ele>
        <time>2022-05-24 13:40:38</time>
      </trkpt>
      <trkpt lat="41.0059" lon="0.59515">
        <ele>137.4</ele>
        <time>2022-05-24 13:40:39</time>
      </trkpt>
      <trkpt lat="41.00588" lon="0.59512">
        <ele>137.6</ele>
        <time>2022-05-24 13:40:40</time>
      </trkpt>
      <trkpt lat="41.00586" lon="0.59509">
        <ele>137.6</ele>
        <time>2022-05-24 13:40:41</time>
      </trkpt>
      <trkpt lat="41.00585" lon="0.59507">
        <ele>137.8</ele>
        <time>2022-05-24 13:40:42</time>
      </trkpt>
      <trkpt lat="41.00583" lon="0.59504">
        <ele>138</ele>
        <time>2022-05-24 13:40:43</time>
      </trkpt>
      <trkpt lat="41.00582" lon="0.59501">
        <ele>138</ele>
        <time>2022-05-24 13:40:44</time>
      </trkpt>
      <trkpt lat="41.00581" lon="0.59498">
        <ele>138.2</ele>
        <time>2022-05-24 13:40:45</time>
      </trkpt>
      <trkpt lat="41.00579" lon="0.59495">
        <ele>138.4</ele>
        <time>2022-05-24 13:40:46</time>
      </trkpt>
      <trkpt lat="41.00578" lon="0.59492">
        <ele>138.4</ele>
        <time>2022-05-24 13:40:47</time>
      </trkpt>
      <trkpt lat="41.00576" lon="0.5949">
        <ele>138.6</ele>
        <time>2022-05-24 13:40:48</time>
      </trkpt>
      <trkpt lat="41.00574" lon="0.59487">
        <ele>138.6</ele>
        <time>2022-05-24 13:40:49</time>
      </trkpt>
      <trkpt lat="41.00573" lon="0.59483">
        <ele>138.8</ele>
        <time>2022-05-24 13:40:50</time>
      </trkpt>
      <trkpt lat="41.00571" lon="0.5948">
        <ele>138.8</ele>
        <time>2022-05-24 13:40:51</time>
      </trkpt>
      <trkpt lat="41.0057" lon="0.59478">
        <ele>139</ele>
        <time>2022-05-24 13:40:52</time>
      </trkpt>
      <trkpt lat="41.00568" lon="0.59475">
        <ele>139.2</ele>
        <time>2022-05-24 13:40:53</time>
      </trkpt>
      <trkpt lat="41.00567" lon="0.59472">
        <ele>139.4</ele>
        <time>2022-05-24 13:40:54</time>
      </trkpt>
      <trkpt lat="41.00566" lon="0.59469">
        <ele>139.4</ele>
        <time>2022-05-24 13:40:55</time>
      </trkpt>
      <trkpt lat="41.00564" lon="0.59466">
        <ele>139.6</ele>
        <time>2022-05-24 13:40:56</time>
      </trkpt>
      <trkpt lat="41.00562" lon="0.59463">
        <ele>139.8</ele>
        <time>2022-05-24 13:40:57</time>
      </trkpt>
      <trkpt lat="41.00561" lon="0.5946">
        <ele>139.8</ele>
        <time>2022-05-24 13:40:58</time>
      </trkpt>
      <trkpt lat="41.00559" lon="0.59457">
        <ele>140</ele>
        <time>2022-05-24 13:40:59</time>
      </trkpt>
      <trkpt lat="41.00557" lon="0.59455">
        <ele>140.2</ele>
        <time>2022-05-24 13:41:00</time>
      </trkpt>
      <trkpt lat="41.00556" lon="0.59452">
        <ele>140.2</ele>
        <time>2022-05-24 13:41:01</time>
      </trkpt>
      <trkpt lat="41.00554" lon="0.59448">
        <ele>140.4</ele>
        <time>2022-05-24 13:41:02</time>
      </trkpt>
      <trkpt lat="41.00553" lon="0.59446">
        <ele>140.4</ele>
        <time>2022-05-24 13:41:03</time>
      </trkpt>
      <trkpt lat="41.00551" lon="0.59443">
        <ele>140.6</ele>
        <time>2022-05-24 13:41:04</time>
      </trkpt>
      <trkpt lat="41.00549" lon="0.5944">
        <ele>140.8</ele>
        <time>2022-05-24 13:41:05</time>
      </trkpt>
      <trkpt lat="41.00548" lon="0.59437">
        <ele>140.8</ele>
        <time>2022-05-24 13:41:06</time>
      </trkpt>
      <trkpt lat="41.00546" lon="0.59434">
        <ele>141</ele>
        <time>2022-05-24 13:41:07</time>
      </trkpt>
      <trkpt lat="41.00545" lon="0.5943">
        <ele>141.2</ele>
        <time>2022-05-24 13:41:08</time>
      </trkpt>
      <trkpt lat="41.00543" lon="0.59428">
        <ele>141.4</ele>
        <time>2022-05-24 13:41:09</time>
      </trkpt>
      <trkpt lat="41.00542" lon="0.59425">
        <ele>141.4</ele>
        <time>2022-05-24 13:41:10</time>
      </trkpt>
      <trkpt lat="41.00541" lon="0.59422">
        <ele>141.6</ele>
        <time>2022-05-24 13:41:11</time>
      </trkpt>
      <trkpt lat="41.00539" lon="0.59419">
        <ele>141.8</ele>
        <time>2022-05-24 13:41:12</time>
      </trkpt>
      <trkpt lat="41.00538" lon="0.59417">
        <ele>141.8</ele>
        <time>2022-05-24 13:41:13</time>
      </trkpt>
      <trkpt lat="41.00535" lon="0.59414">
        <ele>142</ele>
        <time>2022-05-24 13:41:14</time>
      </trkpt>
      <trkpt lat="41.00534" lon="0.59411">
        <ele>142.2</ele>
        <time>2022-05-24 13:41:15</time>
      </trkpt>
      <trkpt lat="41.00532" lon="0.59408">
        <ele>142.4</ele>
        <time>2022-05-24 13:41:16</time>
      </trkpt>
      <trkpt lat="41.0053" lon="0.59405">
        <ele>142.4</ele>
        <time>2022-05-24 13:41:17</time>
      </trkpt>
      <trkpt lat="41.00528" lon="0.59402">
        <ele>142.6</ele>
        <time>2022-05-24 13:41:18</time>
      </trkpt>
      <trkpt lat="41.00527" lon="0.594">
        <ele>142.8</ele>
        <time>2022-05-24 13:41:19</time>
      </trkpt>
      <trkpt lat="41.00525" lon="0.59398">
        <ele>142.8</ele>
        <time>2022-05-24 13:41:20</time>
      </trkpt>
      <trkpt lat="41.00524" lon="0.59394">
        <ele>143</ele>
        <time>2022-05-24 13:41:21</time>
      </trkpt>
      <trkpt lat="41.00522" lon="0.59391">
        <ele>143.2</ele>
        <time>2022-05-24 13:41:22</time>
      </trkpt>
      <trkpt lat="41.00521" lon="0.59389">
        <ele>143.2</ele>
        <time>2022-05-24 13:41:23</time>
      </trkpt>
      <trkpt lat="41.00518" lon="0.59386">
        <ele>143.4</ele>
        <time>2022-05-24 13:41:24</time>
      </trkpt>
      <trkpt lat="41.00517" lon="0.59383">
        <ele>143.6</ele>
        <time>2022-05-24 13:41:25</time>
      </trkpt>
      <trkpt lat="41.00515" lon="0.5938">
        <ele>143.8</ele>
        <time>2022-05-24 13:41:26</time>
      </trkpt>
      <trkpt lat="41.00514" lon="0.59377">
        <ele>143.8</ele>
        <time>2022-05-24 13:41:27</time>
      </trkpt>
      <trkpt lat="41.00512" lon="0.59374">
        <ele>144</ele>
        <time>2022-05-24 13:41:28</time>
      </trkpt>
      <trkpt lat="41.0051" lon="0.59371">
        <ele>144.2</ele>
        <time>2022-05-24 13:41:29</time>
      </trkpt>
      <trkpt lat="41.00508" lon="0.59368">
        <ele>144.2</ele>
        <time>2022-05-24 13:41:30</time>
      </trkpt>
      <trkpt lat="41.00506" lon="0.59366">
        <ele>144.4</ele>
        <time>2022-05-24 13:41:31</time>
      </trkpt>
      <trkpt lat="41.00504" lon="0.59362">
        <ele>144.6</ele>
        <time>2022-05-24 13:41:32</time>
      </trkpt>
      <trkpt lat="41.00502" lon="0.5936">
        <ele>144.6</ele>
        <time>2022-05-24 13:41:33</time>
      </trkpt>
      <trkpt lat="41.00501" lon="0.59356">
        <ele>144.8</ele>
        <time>2022-05-24 13:41:34</time>
      </trkpt>
      <trkpt lat="41.00499" lon="0.59353">
        <ele>145</ele>
        <time>2022-05-24 13:41:35</time>
      </trkpt>
      <trkpt lat="41.00497" lon="0.5935">
        <ele>145.2</ele>
        <time>2022-05-24 13:41:36</time>
      </trkpt>
      <trkpt lat="41.00496" lon="0.59347">
        <ele>145.2</ele>
        <time>2022-05-24 13:41:37</time>
      </trkpt>
      <trkpt lat="41.00494" lon="0.59344">
        <ele>145.4</ele>
        <time>2022-05-24 13:41:38</time>
      </trkpt>
      <trkpt lat="41.00492" lon="0.59341">
        <ele>145.4</ele>
        <time>2022-05-24 13:41:39</time>
      </trkpt>
      <trkpt lat="41.0049" lon="0.59338">
        <ele>145.6</ele>
        <time>2022-05-24 13:41:40</time>
      </trkpt>
      <trkpt lat="41.00488" lon="0.59335">
        <ele>145.8</ele>
        <time>2022-05-24 13:41:41</time>
      </trkpt>
      <trkpt lat="41.00487" lon="0.59332">
        <ele>145.8</ele>
        <time>2022-05-24 13:41:42</time>
      </trkpt>
      <trkpt lat="41.00485" lon="0.59329">
        <ele>146</ele>
        <time>2022-05-24 13:41:43</time>
      </trkpt>
      <trkpt lat="41.00483" lon="0.59326">
        <ele>146.2</ele>
        <time>2022-05-24 13:41:44</time>
      </trkpt>
      <trkpt lat="41.00482" lon="0.59323">
        <ele>146.4</ele>
        <time>2022-05-24 13:41:45</time>
      </trkpt>
      <trkpt lat="41.0048" lon="0.5932">
        <ele>146.4</ele>
        <time>2022-05-24 13:41:46</time>
      </trkpt>
      <trkpt lat="41.00478" lon="0.59317">
        <ele>146.6</ele>
        <time>2022-05-24 13:41:47</time>
      </trkpt>
      <trkpt lat="41.00476" lon="0.59314">
        <ele>146.8</ele>
        <time>2022-05-24 13:41:48</time>
      </trkpt>
      <trkpt lat="41.00474" lon="0.59311">
        <ele>146.8</ele>
        <time>2022-05-24 13:41:49</time>
      </trkpt>
      <trkpt lat="41.00472" lon="0.59308">
        <ele>147</ele>
        <time>2022-05-24 13:41:50</time>
      </trkpt>
      <trkpt lat="41.00471" lon="0.59305">
        <ele>147.2</ele>
        <time>2022-05-24 13:41:51</time>
      </trkpt>
      <trkpt lat="41.00469" lon="0.59301">
        <ele>147.2</ele>
        <time>2022-05-24 13:41:52</time>
      </trkpt>
      <trkpt lat="41.00467" lon="0.59298">
        <ele>147.4</ele>
        <time>2022-05-24 13:41:53</time>
      </trkpt>
      <trkpt lat="41.00466" lon="0.59295">
        <ele>147.6</ele>
        <time>2022-05-24 13:41:54</time>
      </trkpt>
      <trkpt lat="41.00465" lon="0.59292">
        <ele>147.6</ele>
        <time>2022-05-24 13:41:55</time>
      </trkpt>
      <trkpt lat="41.00463" lon="0.59289">
        <ele>147.8</ele>
        <time>2022-05-24 13:41:56</time>
      </trkpt>
      <trkpt lat="41.00461" lon="0.59286">
        <ele>148</ele>
        <time>2022-05-24 13:41:57</time>
      </trkpt>
      <trkpt lat="41.00459" lon="0.59283">
        <ele>148.2</ele>
        <time>2022-05-24 13:41:58</time>
      </trkpt>
      <trkpt lat="41.00458" lon="0.5928">
        <ele>148.2</ele>
        <time>2022-05-24 13:41:59</time>
      </trkpt>
      <trkpt lat="41.00456" lon="0.59277">
        <ele>148.4</ele>
        <time>2022-05-24 13:42:00</time>
      </trkpt>
      <trkpt lat="41.00455" lon="0.59273">
        <ele>148.6</ele>
        <time>2022-05-24 13:42:01</time>
      </trkpt>
      <trkpt lat="41.00453" lon="0.5927">
        <ele>148.6</ele>
        <time>2022-05-24 13:42:02</time>
      </trkpt>
      <trkpt lat="41.00451" lon="0.59268">
        <ele>148.8</ele>
        <time>2022-05-24 13:42:03</time>
      </trkpt>
      <trkpt lat="41.0045" lon="0.59264">
        <ele>149</ele>
        <time>2022-05-24 13:42:04</time>
      </trkpt>
      <trkpt lat="41.00449" lon="0.59261">
        <ele>149.2</ele>
        <time>2022-05-24 13:42:05</time>
      </trkpt>
      <trkpt lat="41.00447" lon="0.59258">
        <ele>149.4</ele>
        <time>2022-05-24 13:42:06</time>
      </trkpt>
      <trkpt lat="41.00446" lon="0.59255">
        <ele>149.4</ele>
        <time>2022-05-24 13:42:07</time>
      </trkpt>
      <trkpt lat="41.00444" lon="0.59251">
        <ele>149.6</ele>
        <time>2022-05-24 13:42:08</time>
      </trkpt>
      <trkpt lat="41.00442" lon="0.59248">
        <ele>149.8</ele>
        <time>2022-05-24 13:42:09</time>
      </trkpt>
      <trkpt lat="41.0044" lon="0.59245">
        <ele>149.8</ele>
        <time>2022-05-24 13:42:10</time>
      </trkpt>
      <trkpt lat="41.00438" lon="0.59242">
        <ele>150</ele>
        <time>2022-05-24 13:42:11</time>
      </trkpt>
      <trkpt lat="41.00436" lon="0.59239">
        <ele>150.2</ele>
        <time>2022-05-24 13:42:12</time>
      </trkpt>
      <trkpt lat="41.00434" lon="0.59236">
        <ele>150.2</ele>
        <time>2022-05-24 13:42:13</time>
      </trkpt>
      <trkpt lat="41.00433" lon="0.59233">
        <ele>150.4</ele>
        <time>2022-05-24 13:42:14</time>
      </trkpt>
      <trkpt lat="41.00431" lon="0.5923">
        <ele>150.6</ele>
        <time>2022-05-24 13:42:15</time>
      </trkpt>
      <trkpt lat="41.00429" lon="0.59226">
        <ele>150.6</ele>
        <time>2022-05-24 13:42:16</time>
      </trkpt>
      <trkpt lat="41.00427" lon="0.59223">
        <ele>150.8</ele>
        <time>2022-05-24 13:42:17</time>
      </trkpt>
      <trkpt lat="41.00426" lon="0.5922">
        <ele>151</ele>
        <time>2022-05-24 13:42:18</time>
      </trkpt>
      <trkpt lat="41.00424" lon="0.59217">
        <ele>151.2</ele>
        <time>2022-05-24 13:42:19</time>
      </trkpt>
      <trkpt lat="41.00422" lon="0.59214">
        <ele>151.2</ele>
        <time>2022-05-24 13:42:20</time>
      </trkpt>
      <trkpt lat="41.0042" lon="0.59211">
        <ele>151.6</ele>
        <time>2022-05-24 13:42:21</time>
      </trkpt>
      <trkpt lat="41.00418" lon="0.59208">
        <ele>151.6</ele>
        <time>2022-05-24 13:42:22</time>
      </trkpt>
      <trkpt lat="41.00417" lon="0.59206">
        <ele>151.8</ele>
        <time>2022-05-24 13:42:23</time>
      </trkpt>
      <trkpt lat="41.00415" lon="0.59203">
        <ele>152</ele>
        <time>2022-05-24 13:42:24</time>
      </trkpt>
      <trkpt lat="41.00414" lon="0.592">
        <ele>152</ele>
        <time>2022-05-24 13:42:25</time>
      </trkpt>
      <trkpt lat="41.00412" lon="0.59196">
        <ele>152.2</ele>
        <time>2022-05-24 13:42:26</time>
      </trkpt>
      <trkpt lat="41.00411" lon="0.59194">
        <ele>152.4</ele>
        <time>2022-05-24 13:42:27</time>
      </trkpt>
      <trkpt lat="41.00409" lon="0.59191">
        <ele>152.6</ele>
        <time>2022-05-24 13:42:28</time>
      </trkpt>
      <trkpt lat="41.00407" lon="0.59188">
        <ele>152.8</ele>
        <time>2022-05-24 13:42:29</time>
      </trkpt>
      <trkpt lat="41.00406" lon="0.59185">
        <ele>152.8</ele>
        <time>2022-05-24 13:42:30</time>
      </trkpt>
      <trkpt lat="41.00405" lon="0.59183">
        <ele>153</ele>
        <time>2022-05-24 13:42:31</time>
      </trkpt>
      <trkpt lat="41.00403" lon="0.5918">
        <ele>153.2</ele>
        <time>2022-05-24 13:42:32</time>
      </trkpt>
      <trkpt lat="41.00402" lon="0.59177">
        <ele>153.4</ele>
        <time>2022-05-24 13:42:33</time>
      </trkpt>
      <trkpt lat="41.00401" lon="0.59174">
        <ele>153.4</ele>
        <time>2022-05-24 13:42:34</time>
      </trkpt>
      <trkpt lat="41.00399" lon="0.59172">
        <ele>153.6</ele>
        <time>2022-05-24 13:42:35</time>
      </trkpt>
      <trkpt lat="41.00398" lon="0.59169">
        <ele>153.8</ele>
        <time>2022-05-24 13:42:36</time>
      </trkpt>
      <trkpt lat="41.00396" lon="0.59166">
        <ele>154</ele>
        <time>2022-05-24 13:42:37</time>
      </trkpt>
      <trkpt lat="41.00395" lon="0.59163">
        <ele>154</ele>
        <time>2022-05-24 13:42:38</time>
      </trkpt>
      <trkpt lat="41.00393" lon="0.5916">
        <ele>154.2</ele>
        <time>2022-05-24 13:42:39</time>
      </trkpt>
      <trkpt lat="41.00391" lon="0.59157">
        <ele>154.4</ele>
        <time>2022-05-24 13:42:40</time>
      </trkpt>
      <trkpt lat="41.00389" lon="0.59154">
        <ele>154.4</ele>
        <time>2022-05-24 13:42:41</time>
      </trkpt>
      <trkpt lat="41.00388" lon="0.59151">
        <ele>154.6</ele>
        <time>2022-05-24 13:42:42</time>
      </trkpt>
      <trkpt lat="41.00386" lon="0.59148">
        <ele>154.8</ele>
        <time>2022-05-24 13:42:43</time>
      </trkpt>
      <trkpt lat="41.00385" lon="0.59145">
        <ele>154.8</ele>
        <time>2022-05-24 13:42:44</time>
      </trkpt>
      <trkpt lat="41.00383" lon="0.59142">
        <ele>155</ele>
        <time>2022-05-24 13:42:45</time>
      </trkpt>
      <trkpt lat="41.00381" lon="0.59139">
        <ele>155.2</ele>
        <time>2022-05-24 13:42:46</time>
      </trkpt>
      <trkpt lat="41.00379" lon="0.59136">
        <ele>155.2</ele>
        <time>2022-05-24 13:42:47</time>
      </trkpt>
      <trkpt lat="41.00378" lon="0.59133">
        <ele>155.4</ele>
        <time>2022-05-24 13:42:48</time>
      </trkpt>
      <trkpt lat="41.00376" lon="0.5913">
        <ele>155.6</ele>
        <time>2022-05-24 13:42:49</time>
      </trkpt>
      <trkpt lat="41.00374" lon="0.59126">
        <ele>155.6</ele>
        <time>2022-05-24 13:42:50</time>
      </trkpt>
      <trkpt lat="41.00372" lon="0.59123">
        <ele>155.8</ele>
        <time>2022-05-24 13:42:51</time>
      </trkpt>
      <trkpt lat="41.0037" lon="0.5912">
        <ele>156</ele>
        <time>2022-05-24 13:42:52</time>
      </trkpt>
      <trkpt lat="41.00369" lon="0.59117">
        <ele>156</ele>
        <time>2022-05-24 13:42:53</time>
      </trkpt>
      <trkpt lat="41.00367" lon="0.59114">
        <ele>156.2</ele>
        <time>2022-05-24 13:42:54</time>
      </trkpt>
      <trkpt lat="41.00365" lon="0.59111">
        <ele>156.4</ele>
        <time>2022-05-24 13:42:55</time>
      </trkpt>
      <trkpt lat="41.00364" lon="0.59108">
        <ele>156.4</ele>
        <time>2022-05-24 13:42:56</time>
      </trkpt>
      <trkpt lat="41.00362" lon="0.59105">
        <ele>156.6</ele>
        <time>2022-05-24 13:42:57</time>
      </trkpt>
      <trkpt lat="41.00359" lon="0.59101">
        <ele>156.8</ele>
        <time>2022-05-24 13:42:58</time>
      </trkpt>
      <trkpt lat="41.00358" lon="0.59098">
        <ele>156.8</ele>
        <time>2022-05-24 13:42:59</time>
      </trkpt>
      <trkpt lat="41.00356" lon="0.59094">
        <ele>157</ele>
        <time>2022-05-24 13:43:00</time>
      </trkpt>
      <trkpt lat="41.00354" lon="0.59091">
        <ele>157.2</ele>
        <time>2022-05-24 13:43:01</time>
      </trkpt>
      <trkpt lat="41.00352" lon="0.59088">
        <ele>157.2</ele>
        <time>2022-05-24 13:43:02</time>
      </trkpt>
      <trkpt lat="41.0035" lon="0.59085">
        <ele>157.4</ele>
        <time>2022-05-24 13:43:03</time>
      </trkpt>
      <trkpt lat="41.00348" lon="0.59082">
        <ele>157.6</ele>
        <time>2022-05-24 13:43:04</time>
      </trkpt>
      <trkpt lat="41.00346" lon="0.59078">
        <ele>157.6</ele>
        <time>2022-05-24 13:43:05</time>
      </trkpt>
      <trkpt lat="41.00344" lon="0.59074">
        <ele>157.8</ele>
        <time>2022-05-24 13:43:06</time>
      </trkpt>
      <trkpt lat="41.00342" lon="0.59072">
        <ele>158</ele>
        <time>2022-05-24 13:43:07</time>
      </trkpt>
      <trkpt lat="41.0034" lon="0.59068">
        <ele>158.2</ele>
        <time>2022-05-24 13:43:08</time>
      </trkpt>
      <trkpt lat="41.00338" lon="0.59065">
        <ele>158.4</ele>
        <time>2022-05-24 13:43:09</time>
      </trkpt>
      <trkpt lat="41.00336" lon="0.59062">
        <ele>158.4</ele>
        <time>2022-05-24 13:43:10</time>
      </trkpt>
      <trkpt lat="41.00334" lon="0.59059">
        <ele>158.6</ele>
        <time>2022-05-24 13:43:11</time>
      </trkpt>
      <trkpt lat="41.00332" lon="0.59056">
        <ele>158.8</ele>
        <time>2022-05-24 13:43:12</time>
      </trkpt>
      <trkpt lat="41.0033" lon="0.59053">
        <ele>158.8</ele>
        <time>2022-05-24 13:43:13</time>
      </trkpt>
      <trkpt lat="41.00329" lon="0.5905">
        <ele>159</ele>
        <time>2022-05-24 13:43:14</time>
      </trkpt>
      <trkpt lat="41.00327" lon="0.59048">
        <ele>159.4</ele>
        <time>2022-05-24 13:43:15</time>
      </trkpt>
      <trkpt lat="41.00325" lon="0.59045">
        <ele>159.4</ele>
        <time>2022-05-24 13:43:16</time>
      </trkpt>
      <trkpt lat="41.00323" lon="0.59042">
        <ele>159.6</ele>
        <time>2022-05-24 13:43:17</time>
      </trkpt>
      <trkpt lat="41.00321" lon="0.59039">
        <ele>159.6</ele>
        <time>2022-05-24 13:43:18</time>
      </trkpt>
      <trkpt lat="41.00319" lon="0.59037">
        <ele>159.8</ele>
        <time>2022-05-24 13:43:19</time>
      </trkpt>
      <trkpt lat="41.00318" lon="0.59033">
        <ele>159.8</ele>
        <time>2022-05-24 13:43:20</time>
      </trkpt>
      <trkpt lat="41.00316" lon="0.5903">
        <ele>160</ele>
        <time>2022-05-24 13:43:21</time>
      </trkpt>
      <trkpt lat="41.00314" lon="0.59027">
        <ele>160.2</ele>
        <time>2022-05-24 13:43:22</time>
      </trkpt>
      <trkpt lat="41.00312" lon="0.59024">
        <ele>160.4</ele>
        <time>2022-05-24 13:43:23</time>
      </trkpt>
      <trkpt lat="41.00311" lon="0.59021">
        <ele>160.4</ele>
        <time>2022-05-24 13:43:24</time>
      </trkpt>
      <trkpt lat="41.00309" lon="0.59018">
        <ele>160.6</ele>
        <time>2022-05-24 13:43:25</time>
      </trkpt>
      <trkpt lat="41.00307" lon="0.59015">
        <ele>160.8</ele>
        <time>2022-05-24 13:43:26</time>
      </trkpt>
      <trkpt lat="41.00305" lon="0.59012">
        <ele>160.8</ele>
        <time>2022-05-24 13:43:27</time>
      </trkpt>
      <trkpt lat="41.00303" lon="0.59009">
        <ele>161</ele>
        <time>2022-05-24 13:43:28</time>
      </trkpt>
      <trkpt lat="41.00301" lon="0.59007">
        <ele>161.2</ele>
        <time>2022-05-24 13:43:29</time>
      </trkpt>
      <trkpt lat="41.00298" lon="0.59004">
        <ele>161.2</ele>
        <time>2022-05-24 13:43:30</time>
      </trkpt>
      <trkpt lat="41.00296" lon="0.59001">
        <ele>161.4</ele>
        <time>2022-05-24 13:43:31</time>
      </trkpt>
      <trkpt lat="41.00294" lon="0.58998">
        <ele>161.4</ele>
        <time>2022-05-24 13:43:32</time>
      </trkpt>
      <trkpt lat="41.00292" lon="0.58996">
        <ele>161.4</ele>
        <time>2022-05-24 13:43:33</time>
      </trkpt>
      <trkpt lat="41.0029" lon="0.58992">
        <ele>161.6</ele>
        <time>2022-05-24 13:43:34</time>
      </trkpt>
      <trkpt lat="41.00287" lon="0.58989">
        <ele>161.6</ele>
        <time>2022-05-24 13:43:35</time>
      </trkpt>
      <trkpt lat="41.00285" lon="0.58986">
        <ele>161.8</ele>
        <time>2022-05-24 13:43:36</time>
      </trkpt>
      <trkpt lat="41.00282" lon="0.58983">
        <ele>162</ele>
        <time>2022-05-24 13:43:37</time>
      </trkpt>
      <trkpt lat="41.0028" lon="0.58979">
        <ele>162</ele>
        <time>2022-05-24 13:43:38</time>
      </trkpt>
      <trkpt lat="41.00277" lon="0.58976">
        <ele>162.2</ele>
        <time>2022-05-24 13:43:39</time>
      </trkpt>
      <trkpt lat="41.00274" lon="0.58973">
        <ele>162.4</ele>
        <time>2022-05-24 13:43:40</time>
      </trkpt>
      <trkpt lat="41.00272" lon="0.58969">
        <ele>162.4</ele>
        <time>2022-05-24 13:43:41</time>
      </trkpt>
      <trkpt lat="41.00269" lon="0.58965">
        <ele>162.6</ele>
        <time>2022-05-24 13:43:42</time>
      </trkpt>
      <trkpt lat="41.00267" lon="0.58962">
        <ele>162.6</ele>
        <time>2022-05-24 13:43:43</time>
      </trkpt>
      <trkpt lat="41.00264" lon="0.58958">
        <ele>162.8</ele>
        <time>2022-05-24 13:43:44</time>
      </trkpt>
      <trkpt lat="41.00262" lon="0.58954">
        <ele>162.8</ele>
        <time>2022-05-24 13:43:45</time>
      </trkpt>
      <trkpt lat="41.00259" lon="0.5895">
        <ele>163</ele>
        <time>2022-05-24 13:43:46</time>
      </trkpt>
      <trkpt lat="41.00256" lon="0.58946">
        <ele>163</ele>
        <time>2022-05-24 13:43:47</time>
      </trkpt>
      <trkpt lat="41.00253" lon="0.58941">
        <ele>163.2</ele>
        <time>2022-05-24 13:43:48</time>
      </trkpt>
      <trkpt lat="41.0025" lon="0.58937">
        <ele>163.4</ele>
        <time>2022-05-24 13:43:49</time>
      </trkpt>
      <trkpt lat="41.00247" lon="0.58933">
        <ele>163.4</ele>
        <time>2022-05-24 13:43:50</time>
      </trkpt>
      <trkpt lat="41.00244" lon="0.58929">
        <ele>163.6</ele>
        <time>2022-05-24 13:43:51</time>
      </trkpt>
      <trkpt lat="41.00241" lon="0.58924">
        <ele>163.8</ele>
        <time>2022-05-24 13:43:52</time>
      </trkpt>
      <trkpt lat="41.00239" lon="0.58919">
        <ele>164</ele>
        <time>2022-05-24 13:43:53</time>
      </trkpt>
      <trkpt lat="41.00236" lon="0.58915">
        <ele>164</ele>
        <time>2022-05-24 13:43:54</time>
      </trkpt>
      <trkpt lat="41.00233" lon="0.58911">
        <ele>164.2</ele>
        <time>2022-05-24 13:43:55</time>
      </trkpt>
      <trkpt lat="41.00231" lon="0.58907">
        <ele>164.2</ele>
        <time>2022-05-24 13:43:56</time>
      </trkpt>
      <trkpt lat="41.00229" lon="0.58903">
        <ele>164.4</ele>
        <time>2022-05-24 13:43:57</time>
      </trkpt>
      <trkpt lat="41.00226" lon="0.58898">
        <ele>164.4</ele>
        <time>2022-05-24 13:43:58</time>
      </trkpt>
      <trkpt lat="41.00224" lon="0.58894">
        <ele>164.6</ele>
        <time>2022-05-24 13:43:59</time>
      </trkpt>
      <trkpt lat="41.00222" lon="0.5889">
        <ele>164.8</ele>
        <time>2022-05-24 13:44:00</time>
      </trkpt>
      <trkpt lat="41.00219" lon="0.58886">
        <ele>165</ele>
        <time>2022-05-24 13:44:01</time>
      </trkpt>
      <trkpt lat="41.00217" lon="0.58882">
        <ele>165</ele>
        <time>2022-05-24 13:44:02</time>
      </trkpt>
      <trkpt lat="41.00215" lon="0.58878">
        <ele>165.2</ele>
        <time>2022-05-24 13:44:03</time>
      </trkpt>
      <trkpt lat="41.00213" lon="0.58874">
        <ele>165.4</ele>
        <time>2022-05-24 13:44:04</time>
      </trkpt>
      <trkpt lat="41.00211" lon="0.5887">
        <ele>165.6</ele>
        <time>2022-05-24 13:44:05</time>
      </trkpt>
      <trkpt lat="41.00209" lon="0.58866">
        <ele>165.6</ele>
        <time>2022-05-24 13:44:06</time>
      </trkpt>
      <trkpt lat="41.00207" lon="0.58861">
        <ele>165.8</ele>
        <time>2022-05-24 13:44:07</time>
      </trkpt>
      <trkpt lat="41.00205" lon="0.58857">
        <ele>166</ele>
        <time>2022-05-24 13:44:08</time>
      </trkpt>
      <trkpt lat="41.00203" lon="0.58853">
        <ele>166.2</ele>
        <time>2022-05-24 13:44:09</time>
      </trkpt>
      <trkpt lat="41.00201" lon="0.58849">
        <ele>166.2</ele>
        <time>2022-05-24 13:44:10</time>
      </trkpt>
      <trkpt lat="41.00199" lon="0.58845">
        <ele>166.4</ele>
        <time>2022-05-24 13:44:11</time>
      </trkpt>
      <trkpt lat="41.00197" lon="0.58841">
        <ele>166.6</ele>
        <time>2022-05-24 13:44:12</time>
      </trkpt>
      <trkpt lat="41.00196" lon="0.58837">
        <ele>166.8</ele>
        <time>2022-05-24 13:44:13</time>
      </trkpt>
      <trkpt lat="41.00194" lon="0.58833">
        <ele>166.8</ele>
        <time>2022-05-24 13:44:14</time>
      </trkpt>
      <trkpt lat="41.00193" lon="0.58829">
        <ele>167</ele>
        <time>2022-05-24 13:44:15</time>
      </trkpt>
      <trkpt lat="41.00191" lon="0.58825">
        <ele>167.2</ele>
        <time>2022-05-24 13:44:16</time>
      </trkpt>
      <trkpt lat="41.00191" lon="0.58822">
        <ele>167.2</ele>
        <time>2022-05-24 13:44:17</time>
      </trkpt>
      <trkpt lat="41.00189" lon="0.58817">
        <ele>167.4</ele>
        <time>2022-05-24 13:44:18</time>
      </trkpt>
      <trkpt lat="41.00187" lon="0.58813">
        <ele>167.6</ele>
        <time>2022-05-24 13:44:19</time>
      </trkpt>
      <trkpt lat="41.00186" lon="0.58809">
        <ele>167.6</ele>
        <time>2022-05-24 13:44:20</time>
      </trkpt>
      <trkpt lat="41.00185" lon="0.58804">
        <ele>167.8</ele>
        <time>2022-05-24 13:44:21</time>
      </trkpt>
      <trkpt lat="41.00183" lon="0.588">
        <ele>167.8</ele>
        <time>2022-05-24 13:44:22</time>
      </trkpt>
      <trkpt lat="41.00183" lon="0.58797">
        <ele>168</ele>
        <time>2022-05-24 13:44:23</time>
      </trkpt>
      <trkpt lat="41.00181" lon="0.58792">
        <ele>168.2</ele>
        <time>2022-05-24 13:44:24</time>
      </trkpt>
      <trkpt lat="41.0018" lon="0.58788">
        <ele>168.2</ele>
        <time>2022-05-24 13:44:25</time>
      </trkpt>
      <trkpt lat="41.00179" lon="0.58784">
        <ele>168.4</ele>
        <time>2022-05-24 13:44:26</time>
      </trkpt>
      <trkpt lat="41.00178" lon="0.5878">
        <ele>168.6</ele>
        <time>2022-05-24 13:44:27</time>
      </trkpt>
      <trkpt lat="41.00177" lon="0.58777">
        <ele>168.6</ele>
        <time>2022-05-24 13:44:28</time>
      </trkpt>
      <trkpt lat="41.00176" lon="0.58772">
        <ele>168.8</ele>
        <time>2022-05-24 13:44:29</time>
      </trkpt>
      <trkpt lat="41.00175" lon="0.58768">
        <ele>168.8</ele>
        <time>2022-05-24 13:44:30</time>
      </trkpt>
      <trkpt lat="41.00174" lon="0.58764">
        <ele>169</ele>
        <time>2022-05-24 13:44:31</time>
      </trkpt>
      <trkpt lat="41.00173" lon="0.5876">
        <ele>169.2</ele>
        <time>2022-05-24 13:44:32</time>
      </trkpt>
      <trkpt lat="41.00172" lon="0.58755">
        <ele>169.2</ele>
        <time>2022-05-24 13:44:33</time>
      </trkpt>
      <trkpt lat="41.00172" lon="0.58751">
        <ele>169.4</ele>
        <time>2022-05-24 13:44:34</time>
      </trkpt>
      <trkpt lat="41.00171" lon="0.58747">
        <ele>169.4</ele>
        <time>2022-05-24 13:44:35</time>
      </trkpt>
      <trkpt lat="41.00171" lon="0.58742">
        <ele>169.6</ele>
        <time>2022-05-24 13:44:36</time>
      </trkpt>
      <trkpt lat="41.0017" lon="0.58738">
        <ele>169.8</ele>
        <time>2022-05-24 13:44:37</time>
      </trkpt>
      <trkpt lat="41.00169" lon="0.58733">
        <ele>169.8</ele>
        <time>2022-05-24 13:44:38</time>
      </trkpt>
      <trkpt lat="41.00168" lon="0.58728">
        <ele>170</ele>
        <time>2022-05-24 13:44:39</time>
      </trkpt>
      <trkpt lat="41.00168" lon="0.58724">
        <ele>170.2</ele>
        <time>2022-05-24 13:44:40</time>
      </trkpt>
      <trkpt lat="41.00168" lon="0.5872">
        <ele>170.2</ele>
        <time>2022-05-24 13:44:41</time>
      </trkpt>
      <trkpt lat="41.00167" lon="0.58718">
        <ele>170.4</ele>
        <time>2022-05-24 13:44:42</time>
      </trkpt>
      <trkpt lat="41.00166" lon="0.58712">
        <ele>170.6</ele>
        <time>2022-05-24 13:44:43</time>
      </trkpt>
      <trkpt lat="41.00166" lon="0.58708">
        <ele>170.6</ele>
        <time>2022-05-24 13:44:44</time>
      </trkpt>
      <trkpt lat="41.00165" lon="0.58704">
        <ele>170.8</ele>
        <time>2022-05-24 13:44:45</time>
      </trkpt>
      <trkpt lat="41.00165" lon="0.587">
        <ele>171</ele>
        <time>2022-05-24 13:44:46</time>
      </trkpt>
      <trkpt lat="41.00164" lon="0.58696">
        <ele>171</ele>
        <time>2022-05-24 13:44:47</time>
      </trkpt>
      <trkpt lat="41.00164" lon="0.58692">
        <ele>171.2</ele>
        <time>2022-05-24 13:44:48</time>
      </trkpt>
      <trkpt lat="41.00164" lon="0.58688">
        <ele>171.4</ele>
        <time>2022-05-24 13:44:49</time>
      </trkpt>
      <trkpt lat="41.00164" lon="0.58684">
        <ele>171.4</ele>
        <time>2022-05-24 13:44:50</time>
      </trkpt>
      <trkpt lat="41.00164" lon="0.58679">
        <ele>171.6</ele>
        <time>2022-05-24 13:44:51</time>
      </trkpt>
      <trkpt lat="41.00164" lon="0.58675">
        <ele>171.8</ele>
        <time>2022-05-24 13:44:52</time>
      </trkpt>
      <trkpt lat="41.00163" lon="0.58672">
        <ele>171.8</ele>
        <time>2022-05-24 13:44:53</time>
      </trkpt>
      <trkpt lat="41.00163" lon="0.58667">
        <ele>172</ele>
        <time>2022-05-24 13:44:54</time>
      </trkpt>
      <trkpt lat="41.00163" lon="0.58663">
        <ele>172</ele>
        <time>2022-05-24 13:44:55</time>
      </trkpt>
      <trkpt lat="41.00163" lon="0.58659">
        <ele>172.2</ele>
        <time>2022-05-24 13:44:56</time>
      </trkpt>
      <trkpt lat="41.00163" lon="0.58654">
        <ele>172.4</ele>
        <time>2022-05-24 13:44:57</time>
      </trkpt>
      <trkpt lat="41.00162" lon="0.5865">
        <ele>172.4</ele>
        <time>2022-05-24 13:44:58</time>
      </trkpt>
      <trkpt lat="41.00162" lon="0.58646">
        <ele>172.6</ele>
        <time>2022-05-24 13:44:59</time>
      </trkpt>
      <trkpt lat="41.00162" lon="0.58641">
        <ele>172.8</ele>
        <time>2022-05-24 13:45:00</time>
      </trkpt>
      <trkpt lat="41.00162" lon="0.58637">
        <ele>172.8</ele>
        <time>2022-05-24 13:45:01</time>
      </trkpt>
      <trkpt lat="41.00162" lon="0.58634">
        <ele>173</ele>
        <time>2022-05-24 13:45:02</time>
      </trkpt>
      <trkpt lat="41.00162" lon="0.58629">
        <ele>173</ele>
        <time>2022-05-24 13:45:03</time>
      </trkpt>
      <trkpt lat="41.00161" lon="0.58625">
        <ele>173.2</ele>
        <time>2022-05-24 13:45:04</time>
      </trkpt>
      <trkpt lat="41.00161" lon="0.58622">
        <ele>173.4</ele>
        <time>2022-05-24 13:45:05</time>
      </trkpt>
      <trkpt lat="41.00161" lon="0.58617">
        <ele>173.6</ele>
        <time>2022-05-24 13:45:06</time>
      </trkpt>
      <trkpt lat="41.00161" lon="0.58612">
        <ele>173.6</ele>
        <time>2022-05-24 13:45:07</time>
      </trkpt>
      <trkpt lat="41.00161" lon="0.58609">
        <ele>173.8</ele>
        <time>2022-05-24 13:45:08</time>
      </trkpt>
      <trkpt lat="41.00161" lon="0.58603">
        <ele>174</ele>
        <time>2022-05-24 13:45:09</time>
      </trkpt>
      <trkpt lat="41.00161" lon="0.58599">
        <ele>174</ele>
        <time>2022-05-24 13:45:10</time>
      </trkpt>
      <trkpt lat="41.00161" lon="0.58595">
        <ele>174.2</ele>
        <time>2022-05-24 13:45:11</time>
      </trkpt>
      <trkpt lat="41.00161" lon="0.5859">
        <ele>174.4</ele>
        <time>2022-05-24 13:45:12</time>
      </trkpt>
      <trkpt lat="41.00161" lon="0.58586">
        <ele>174.4</ele>
        <time>2022-05-24 13:45:13</time>
      </trkpt>
      <trkpt lat="41.00161" lon="0.58582">
        <ele>174.6</ele>
        <time>2022-05-24 13:45:14</time>
      </trkpt>
      <trkpt lat="41.0016" lon="0.58577">
        <ele>174.8</ele>
        <time>2022-05-24 13:45:15</time>
      </trkpt>
      <trkpt lat="41.0016" lon="0.58573">
        <ele>175</ele>
        <time>2022-05-24 13:45:16</time>
      </trkpt>
      <trkpt lat="41.0016" lon="0.58569">
        <ele>175.2</ele>
        <time>2022-05-24 13:45:17</time>
      </trkpt>
      <trkpt lat="41.00159" lon="0.58564">
        <ele>175.2</ele>
        <time>2022-05-24 13:45:18</time>
      </trkpt>
      <trkpt lat="41.00159" lon="0.5856">
        <ele>175.4</ele>
        <time>2022-05-24 13:45:19</time>
      </trkpt>
      <trkpt lat="41.00158" lon="0.58556">
        <ele>175.6</ele>
        <time>2022-05-24 13:45:20</time>
      </trkpt>
      <trkpt lat="41.00158" lon="0.58551">
        <ele>175.8</ele>
        <time>2022-05-24 13:45:21</time>
      </trkpt>
      <trkpt lat="41.00157" lon="0.58546">
        <ele>176</ele>
        <time>2022-05-24 13:45:22</time>
      </trkpt>
      <trkpt lat="41.00157" lon="0.58543">
        <ele>176</ele>
        <time>2022-05-24 13:45:23</time>
      </trkpt>
      <trkpt lat="41.00156" lon="0.58538">
        <ele>176.2</ele>
        <time>2022-05-24 13:45:24</time>
      </trkpt>
      <trkpt lat="41.00155" lon="0.58533">
        <ele>176.4</ele>
        <time>2022-05-24 13:45:25</time>
      </trkpt>
      <trkpt lat="41.00155" lon="0.58529">
        <ele>176.6</ele>
        <time>2022-05-24 13:45:26</time>
      </trkpt>
      <trkpt lat="41.00153" lon="0.58524">
        <ele>176.8</ele>
        <time>2022-05-24 13:45:27</time>
      </trkpt>
      <trkpt lat="41.00152" lon="0.58519">
        <ele>177</ele>
        <time>2022-05-24 13:45:28</time>
      </trkpt>
      <trkpt lat="41.00152" lon="0.58515">
        <ele>177</ele>
        <time>2022-05-24 13:45:29</time>
      </trkpt>
      <trkpt lat="41.00151" lon="0.5851">
        <ele>177.2</ele>
        <time>2022-05-24 13:45:30</time>
      </trkpt>
      <trkpt lat="41.0015" lon="0.58506">
        <ele>177.4</ele>
        <time>2022-05-24 13:45:31</time>
      </trkpt>
      <trkpt lat="41.00149" lon="0.58503">
        <ele>177.6</ele>
        <time>2022-05-24 13:45:32</time>
      </trkpt>
      <trkpt lat="41.00148" lon="0.58498">
        <ele>177.8</ele>
        <time>2022-05-24 13:45:33</time>
      </trkpt>
      <trkpt lat="41.00147" lon="0.58494">
        <ele>178</ele>
        <time>2022-05-24 13:45:34</time>
      </trkpt>
      <trkpt lat="41.00146" lon="0.58491">
        <ele>178</ele>
        <time>2022-05-24 13:45:35</time>
      </trkpt>
      <trkpt lat="41.00145" lon="0.58486">
        <ele>178.2</ele>
        <time>2022-05-24 13:45:36</time>
      </trkpt>
      <trkpt lat="41.00144" lon="0.58483">
        <ele>178.4</ele>
        <time>2022-05-24 13:45:37</time>
      </trkpt>
      <trkpt lat="41.00143" lon="0.58479">
        <ele>178.6</ele>
        <time>2022-05-24 13:45:38</time>
      </trkpt>
      <trkpt lat="41.00142" lon="0.58476">
        <ele>178.8</ele>
        <time>2022-05-24 13:45:39</time>
      </trkpt>
      <trkpt lat="41.00141" lon="0.58473">
        <ele>179</ele>
        <time>2022-05-24 13:45:40</time>
      </trkpt>
      <trkpt lat="41.0014" lon="0.5847">
        <ele>179.2</ele>
        <time>2022-05-24 13:45:41</time>
      </trkpt>
      <trkpt lat="41.00138" lon="0.58467">
        <ele>179.2</ele>
        <time>2022-05-24 13:45:42</time>
      </trkpt>
      <trkpt lat="41.00138" lon="0.58464">
        <ele>179.4</ele>
        <time>2022-05-24 13:45:43</time>
      </trkpt>
      <trkpt lat="41.00136" lon="0.5846">
        <ele>179.6</ele>
        <time>2022-05-24 13:45:44</time>
      </trkpt>
      <trkpt lat="41.00135" lon="0.58457">
        <ele>179.8</ele>
        <time>2022-05-24 13:45:45</time>
      </trkpt>
      <trkpt lat="41.00135" lon="0.58454">
        <ele>180</ele>
        <time>2022-05-24 13:45:46</time>
      </trkpt>
      <trkpt lat="41.00134" lon="0.58451">
        <ele>180</ele>
        <time>2022-05-24 13:45:47</time>
      </trkpt>
      <trkpt lat="41.00132" lon="0.58448">
        <ele>180.2</ele>
        <time>2022-05-24 13:45:48</time>
      </trkpt>
      <trkpt lat="41.00131" lon="0.58445">
        <ele>180.4</ele>
        <time>2022-05-24 13:45:49</time>
      </trkpt>
      <trkpt lat="41.0013" lon="0.58442">
        <ele>180.6</ele>
        <time>2022-05-24 13:45:50</time>
      </trkpt>
      <trkpt lat="41.00129" lon="0.58439">
        <ele>180.8</ele>
        <time>2022-05-24 13:45:51</time>
      </trkpt>
      <trkpt lat="41.00128" lon="0.58436">
        <ele>180.8</ele>
        <time>2022-05-24 13:45:52</time>
      </trkpt>
      <trkpt lat="41.00127" lon="0.58433">
        <ele>181</ele>
        <time>2022-05-24 13:45:53</time>
      </trkpt>
      <trkpt lat="41.00127" lon="0.5843">
        <ele>181.2</ele>
        <time>2022-05-24 13:45:54</time>
      </trkpt>
      <trkpt lat="41.00125" lon="0.58428">
        <ele>181.4</ele>
        <time>2022-05-24 13:45:55</time>
      </trkpt>
      <trkpt lat="41.00124" lon="0.58425">
        <ele>181.6</ele>
        <time>2022-05-24 13:45:56</time>
      </trkpt>
      <trkpt lat="41.00123" lon="0.58422">
        <ele>181.6</ele>
        <time>2022-05-24 13:45:57</time>
      </trkpt>
      <trkpt lat="41.00122" lon="0.58419">
        <ele>181.8</ele>
        <time>2022-05-24 13:45:58</time>
      </trkpt>
      <trkpt lat="41.00121" lon="0.58417">
        <ele>182</ele>
        <time>2022-05-24 13:45:59</time>
      </trkpt>
      <trkpt lat="41.00119" lon="0.58413">
        <ele>182</ele>
        <time>2022-05-24 13:46:00</time>
      </trkpt>
      <trkpt lat="41.00118" lon="0.5841">
        <ele>182.2</ele>
        <time>2022-05-24 13:46:01</time>
      </trkpt>
      <trkpt lat="41.00117" lon="0.58407">
        <ele>182.4</ele>
        <time>2022-05-24 13:46:02</time>
      </trkpt>
      <trkpt lat="41.00116" lon="0.58404">
        <ele>182.6</ele>
        <time>2022-05-24 13:46:03</time>
      </trkpt>
      <trkpt lat="41.00115" lon="0.58402">
        <ele>182.8</ele>
        <time>2022-05-24 13:46:04</time>
      </trkpt>
      <trkpt lat="41.00113" lon="0.58399">
        <ele>182.8</ele>
        <time>2022-05-24 13:46:05</time>
      </trkpt>
      <trkpt lat="41.00112" lon="0.58396">
        <ele>183</ele>
        <time>2022-05-24 13:46:06</time>
      </trkpt>
      <trkpt lat="41.00111" lon="0.58393">
        <ele>183.2</ele>
        <time>2022-05-24 13:46:07</time>
      </trkpt>
      <trkpt lat="41.0011" lon="0.58389">
        <ele>183.4</ele>
        <time>2022-05-24 13:46:08</time>
      </trkpt>
      <trkpt lat="41.00109" lon="0.58386">
        <ele>183.6</ele>
        <time>2022-05-24 13:46:09</time>
      </trkpt>
      <trkpt lat="41.00108" lon="0.58382">
        <ele>183.6</ele>
        <time>2022-05-24 13:46:10</time>
      </trkpt>
      <trkpt lat="41.00108" lon="0.58379">
        <ele>183.8</ele>
        <time>2022-05-24 13:46:11</time>
      </trkpt>
      <trkpt lat="41.00106" lon="0.58376">
        <ele>184</ele>
        <time>2022-05-24 13:46:12</time>
      </trkpt>
      <trkpt lat="41.00105" lon="0.58372">
        <ele>184.2</ele>
        <time>2022-05-24 13:46:13</time>
      </trkpt>
      <trkpt lat="41.00104" lon="0.58369">
        <ele>184.2</ele>
        <time>2022-05-24 13:46:14</time>
      </trkpt>
      <trkpt lat="41.00103" lon="0.58366">
        <ele>184.4</ele>
        <time>2022-05-24 13:46:15</time>
      </trkpt>
      <trkpt lat="41.00102" lon="0.58362">
        <ele>184.6</ele>
        <time>2022-05-24 13:46:16</time>
      </trkpt>
      <trkpt lat="41.00101" lon="0.58359">
        <ele>184.6</ele>
        <time>2022-05-24 13:46:17</time>
      </trkpt>
      <trkpt lat="41.001" lon="0.58355">
        <ele>184.8</ele>
        <time>2022-05-24 13:46:18</time>
      </trkpt>
      <trkpt lat="41.00099" lon="0.58352">
        <ele>185</ele>
        <time>2022-05-24 13:46:19</time>
      </trkpt>
      <trkpt lat="41.00097" lon="0.58348">
        <ele>185</ele>
        <time>2022-05-24 13:46:20</time>
      </trkpt>
      <trkpt lat="41.00096" lon="0.58343">
        <ele>185.2</ele>
        <time>2022-05-24 13:46:21</time>
      </trkpt>
      <trkpt lat="41.00095" lon="0.58339">
        <ele>185.4</ele>
        <time>2022-05-24 13:46:22</time>
      </trkpt>
      <trkpt lat="41.00093" lon="0.58335">
        <ele>185.4</ele>
        <time>2022-05-24 13:46:23</time>
      </trkpt>
      <trkpt lat="41.00092" lon="0.58332">
        <ele>185.6</ele>
        <time>2022-05-24 13:46:24</time>
      </trkpt>
      <trkpt lat="41.00091" lon="0.58328">
        <ele>185.8</ele>
        <time>2022-05-24 13:46:25</time>
      </trkpt>
      <trkpt lat="41.0009" lon="0.58324">
        <ele>185.8</ele>
        <time>2022-05-24 13:46:26</time>
      </trkpt>
      <trkpt lat="41.00089" lon="0.5832">
        <ele>186</ele>
        <time>2022-05-24 13:46:27</time>
      </trkpt>
      <trkpt lat="41.00088" lon="0.58316">
        <ele>186</ele>
        <time>2022-05-24 13:46:28</time>
      </trkpt>
      <trkpt lat="41.00087" lon="0.58312">
        <ele>186.2</ele>
        <time>2022-05-24 13:46:29</time>
      </trkpt>
      <trkpt lat="41.00086" lon="0.58309">
        <ele>186.2</ele>
        <time>2022-05-24 13:46:30</time>
      </trkpt>
      <trkpt lat="41.00085" lon="0.58305">
        <ele>186.4</ele>
        <time>2022-05-24 13:46:31</time>
      </trkpt>
      <trkpt lat="41.00084" lon="0.58301">
        <ele>186.6</ele>
        <time>2022-05-24 13:46:32</time>
      </trkpt>
      <trkpt lat="41.00083" lon="0.58297">
        <ele>186.6</ele>
        <time>2022-05-24 13:46:33</time>
      </trkpt>
      <trkpt lat="41.00082" lon="0.58294">
        <ele>186.8</ele>
        <time>2022-05-24 13:46:34</time>
      </trkpt>
      <trkpt lat="41.00081" lon="0.5829">
        <ele>186.8</ele>
        <time>2022-05-24 13:46:35</time>
      </trkpt>
      <trkpt lat="41.0008" lon="0.58286">
        <ele>187</ele>
        <time>2022-05-24 13:46:36</time>
      </trkpt>
      <trkpt lat="41.0008" lon="0.58282">
        <ele>187</ele>
        <time>2022-05-24 13:46:37</time>
      </trkpt>
      <trkpt lat="41.00079" lon="0.58279">
        <ele>187.2</ele>
        <time>2022-05-24 13:46:38</time>
      </trkpt>
      <trkpt lat="41.00078" lon="0.58274">
        <ele>187.2</ele>
        <time>2022-05-24 13:46:39</time>
      </trkpt>
      <trkpt lat="41.00077" lon="0.5827">
        <ele>187.4</ele>
        <time>2022-05-24 13:46:40</time>
      </trkpt>
      <trkpt lat="41.00077" lon="0.58267">
        <ele>187.4</ele>
        <time>2022-05-24 13:46:41</time>
      </trkpt>
      <trkpt lat="41.00076" lon="0.58263">
        <ele>187.4</ele>
        <time>2022-05-24 13:46:42</time>
      </trkpt>
      <trkpt lat="41.00075" lon="0.58259">
        <ele>187.6</ele>
        <time>2022-05-24 13:46:43</time>
      </trkpt>
      <trkpt lat="41.00075" lon="0.58255">
        <ele>187.6</ele>
        <time>2022-05-24 13:46:44</time>
      </trkpt>
      <trkpt lat="41.00074" lon="0.58251">
        <ele>187.8</ele>
        <time>2022-05-24 13:46:45</time>
      </trkpt>
      <trkpt lat="41.00073" lon="0.58247">
        <ele>187.8</ele>
        <time>2022-05-24 13:46:46</time>
      </trkpt>
      <trkpt lat="41.00073" lon="0.58243">
        <ele>188</ele>
        <time>2022-05-24 13:46:47</time>
      </trkpt>
      <trkpt lat="41.00072" lon="0.58239">
        <ele>188</ele>
        <time>2022-05-24 13:46:48</time>
      </trkpt>
      <trkpt lat="41.00071" lon="0.58235">
        <ele>188.2</ele>
        <time>2022-05-24 13:46:49</time>
      </trkpt>
      <trkpt lat="41.0007" lon="0.58231">
        <ele>188.2</ele>
        <time>2022-05-24 13:46:50</time>
      </trkpt>
      <trkpt lat="41.00069" lon="0.58226">
        <ele>188.2</ele>
        <time>2022-05-24 13:46:51</time>
      </trkpt>
      <trkpt lat="41.00069" lon="0.58223">
        <ele>188.4</ele>
        <time>2022-05-24 13:46:52</time>
      </trkpt>
      <trkpt lat="41.00068" lon="0.58219">
        <ele>188.4</ele>
        <time>2022-05-24 13:46:53</time>
      </trkpt>
      <trkpt lat="41.00068" lon="0.58214">
        <ele>188.4</ele>
        <time>2022-05-24 13:46:54</time>
      </trkpt>
      <trkpt lat="41.00066" lon="0.5821">
        <ele>188.6</ele>
        <time>2022-05-24 13:46:55</time>
      </trkpt>
      <trkpt lat="41.00065" lon="0.58205">
        <ele>188.6</ele>
        <time>2022-05-24 13:46:56</time>
      </trkpt>
      <trkpt lat="41.00064" lon="0.58201">
        <ele>188.6</ele>
        <time>2022-05-24 13:46:57</time>
      </trkpt>
      <trkpt lat="41.00063" lon="0.58196">
        <ele>188.6</ele>
        <time>2022-05-24 13:46:58</time>
      </trkpt>
      <trkpt lat="41.00062" lon="0.58192">
        <ele>188.6</ele>
        <time>2022-05-24 13:46:59</time>
      </trkpt>
      <trkpt lat="41.00061" lon="0.58186">
        <ele>188.6</ele>
        <time>2022-05-24 13:47:00</time>
      </trkpt>
      <trkpt lat="41.0006" lon="0.58182">
        <ele>188.6</ele>
        <time>2022-05-24 13:47:01</time>
      </trkpt>
      <trkpt lat="41.00059" lon="0.58177">
        <ele>188.6</ele>
        <time>2022-05-24 13:47:02</time>
      </trkpt>
      <trkpt lat="41.00058" lon="0.58171">
        <ele>188.6</ele>
        <time>2022-05-24 13:47:03</time>
      </trkpt>
      <trkpt lat="41.00056" lon="0.58166">
        <ele>188.6</ele>
        <time>2022-05-24 13:47:04</time>
      </trkpt>
      <trkpt lat="41.00055" lon="0.58161">
        <ele>188.6</ele>
        <time>2022-05-24 13:47:05</time>
      </trkpt>
      <trkpt lat="41.00053" lon="0.58155">
        <ele>188.6</ele>
        <time>2022-05-24 13:47:06</time>
      </trkpt>
      <trkpt lat="41.00052" lon="0.5815">
        <ele>188.6</ele>
        <time>2022-05-24 13:47:07</time>
      </trkpt>
      <trkpt lat="41.0005" lon="0.58145">
        <ele>188.2</ele>
        <time>2022-05-24 13:47:08</time>
      </trkpt>
      <trkpt lat="41.00049" lon="0.58139">
        <ele>188.6</ele>
        <time>2022-05-24 13:47:09</time>
      </trkpt>
      <trkpt lat="41.00047" lon="0.58133">
        <ele>188.4</ele>
        <time>2022-05-24 13:47:10</time>
      </trkpt>
      <trkpt lat="41.00045" lon="0.58127">
        <ele>188.6</ele>
        <time>2022-05-24 13:47:11</time>
      </trkpt>
      <trkpt lat="41.00044" lon="0.58122">
        <ele>188.6</ele>
        <time>2022-05-24 13:47:12</time>
      </trkpt>
      <trkpt lat="41.00042" lon="0.58116">
        <ele>188.6</ele>
        <time>2022-05-24 13:47:13</time>
      </trkpt>
      <trkpt lat="41.0004" lon="0.58111">
        <ele>188.6</ele>
        <time>2022-05-24 13:47:14</time>
      </trkpt>
      <trkpt lat="41.00038" lon="0.58104">
        <ele>188.6</ele>
        <time>2022-05-24 13:47:15</time>
      </trkpt>
      <trkpt lat="41.00035" lon="0.58098">
        <ele>188.6</ele>
        <time>2022-05-24 13:47:16</time>
      </trkpt>
      <trkpt lat="41.00033" lon="0.58091">
        <ele>188.6</ele>
        <time>2022-05-24 13:47:17</time>
      </trkpt>
      <trkpt lat="41.0003" lon="0.58085">
        <ele>188.4</ele>
        <time>2022-05-24 13:47:18</time>
      </trkpt>
      <trkpt lat="41.00027" lon="0.58078">
        <ele>188</ele>
        <time>2022-05-24 13:47:19</time>
      </trkpt>
      <trkpt lat="41.00024" lon="0.58071">
        <ele>187.8</ele>
        <time>2022-05-24 13:47:20</time>
      </trkpt>
      <trkpt lat="41.0002" lon="0.58064">
        <ele>187.6</ele>
        <time>2022-05-24 13:47:21</time>
      </trkpt>
      <trkpt lat="41.00017" lon="0.58057">
        <ele>187.4</ele>
        <time>2022-05-24 13:47:22</time>
      </trkpt>
      <trkpt lat="41.00013" lon="0.58049">
        <ele>187.2</ele>
        <time>2022-05-24 13:47:23</time>
      </trkpt>
      <trkpt lat="41.0001" lon="0.58043">
        <ele>186.8</ele>
        <time>2022-05-24 13:47:24</time>
      </trkpt>
      <trkpt lat="41.00005" lon="0.58034">
        <ele>186.4</ele>
        <time>2022-05-24 13:47:25</time>
      </trkpt>
      <trkpt lat="41.00001" lon="0.58027">
        <ele>186.2</ele>
        <time>2022-05-24 13:47:26</time>
      </trkpt>
      <trkpt lat="40.99997" lon="0.5802">
        <ele>185.8</ele>
        <time>2022-05-24 13:47:27</time>
      </trkpt>
      <trkpt lat="40.99992" lon="0.58013">
        <ele>185.6</ele>
        <time>2022-05-24 13:47:28</time>
      </trkpt>
      <trkpt lat="40.99985" lon="0.58005">
        <ele>185.2</ele>
        <time>2022-05-24 13:47:29</time>
      </trkpt>
      <trkpt lat="40.9998" lon="0.57998">
        <ele>184.8</ele>
        <time>2022-05-24 13:47:30</time>
      </trkpt>
      <trkpt lat="40.99974" lon="0.57989">
        <ele>184.4</ele>
        <time>2022-05-24 13:47:31</time>
      </trkpt>
      <trkpt lat="40.99968" lon="0.57981">
        <ele>183.8</ele>
        <time>2022-05-24 13:47:32</time>
      </trkpt>
      <trkpt lat="40.99961" lon="0.57973">
        <ele>183.2</ele>
        <time>2022-05-24 13:47:33</time>
      </trkpt>
      <trkpt lat="40.99954" lon="0.57965">
        <ele>182.8</ele>
        <time>2022-05-24 13:47:34</time>
      </trkpt>
      <trkpt lat="40.99946" lon="0.57957">
        <ele>182.2</ele>
        <time>2022-05-24 13:47:35</time>
      </trkpt>
      <trkpt lat="40.99939" lon="0.5795">
        <ele>181.4</ele>
        <time>2022-05-24 13:47:36</time>
      </trkpt>
      <trkpt lat="40.99931" lon="0.57941">
        <ele>180.8</ele>
        <time>2022-05-24 13:47:37</time>
      </trkpt>
      <trkpt lat="40.99924" lon="0.57933">
        <ele>180.2</ele>
        <time>2022-05-24 13:47:38</time>
      </trkpt>
      <trkpt lat="40.99916" lon="0.57924">
        <ele>179.8</ele>
        <time>2022-05-24 13:47:39</time>
      </trkpt>
      <trkpt lat="40.99909" lon="0.57917">
        <ele>179.2</ele>
        <time>2022-05-24 13:47:40</time>
      </trkpt>
      <trkpt lat="40.999" lon="0.57907">
        <ele>178.6</ele>
        <time>2022-05-24 13:47:41</time>
      </trkpt>
      <trkpt lat="40.99893" lon="0.57899">
        <ele>177.8</ele>
        <time>2022-05-24 13:47:42</time>
      </trkpt>
      <trkpt lat="40.99885" lon="0.57887">
        <ele>177</ele>
        <time>2022-05-24 13:47:43</time>
      </trkpt>
      <trkpt lat="40.99878" lon="0.57877">
        <ele>176.4</ele>
        <time>2022-05-24 13:47:44</time>
      </trkpt>
      <trkpt lat="40.99871" lon="0.57866">
        <ele>176</ele>
        <time>2022-05-24 13:47:45</time>
      </trkpt>
      <trkpt lat="40.99865" lon="0.57856">
        <ele>175.4</ele>
        <time>2022-05-24 13:47:46</time>
      </trkpt>
      <trkpt lat="40.99859" lon="0.57844">
        <ele>175</ele>
        <time>2022-05-24 13:47:47</time>
      </trkpt>
      <trkpt lat="40.99854" lon="0.57833">
        <ele>174.8</ele>
        <time>2022-05-24 13:47:48</time>
      </trkpt>
      <trkpt lat="40.99848" lon="0.57822">
        <ele>174.4</ele>
        <time>2022-05-24 13:47:49</time>
      </trkpt>
      <trkpt lat="40.99844" lon="0.57811">
        <ele>174.4</ele>
        <time>2022-05-24 13:47:50</time>
      </trkpt>
      <trkpt lat="40.9984" lon="0.578">
        <ele>174.2</ele>
        <time>2022-05-24 13:47:51</time>
      </trkpt>
      <trkpt lat="40.99836" lon="0.57788">
        <ele>174</ele>
        <time>2022-05-24 13:47:52</time>
      </trkpt>
      <trkpt lat="40.99833" lon="0.57777">
        <ele>174</ele>
        <time>2022-05-24 13:47:53</time>
      </trkpt>
      <trkpt lat="40.99831" lon="0.57766">
        <ele>174</ele>
        <time>2022-05-24 13:47:54</time>
      </trkpt>
      <trkpt lat="40.99828" lon="0.57756">
        <ele>174</ele>
        <time>2022-05-24 13:47:55</time>
      </trkpt>
      <trkpt lat="40.99826" lon="0.57745">
        <ele>174.2</ele>
        <time>2022-05-24 13:47:56</time>
      </trkpt>
      <trkpt lat="40.99824" lon="0.57736">
        <ele>174.2</ele>
        <time>2022-05-24 13:47:57</time>
      </trkpt>
      <trkpt lat="40.99822" lon="0.57726">
        <ele>174.4</ele>
        <time>2022-05-24 13:47:58</time>
      </trkpt>
      <trkpt lat="40.9982" lon="0.57717">
        <ele>174.4</ele>
        <time>2022-05-24 13:47:59</time>
      </trkpt>
      <trkpt lat="40.99819" lon="0.57707">
        <ele>174.6</ele>
        <time>2022-05-24 13:48:00</time>
      </trkpt>
      <trkpt lat="40.99818" lon="0.577">
        <ele>174.6</ele>
        <time>2022-05-24 13:48:01</time>
      </trkpt>
      <trkpt lat="40.99816" lon="0.57689">
        <ele>174.8</ele>
        <time>2022-05-24 13:48:02</time>
      </trkpt>
      <trkpt lat="40.99815" lon="0.57681">
        <ele>174.8</ele>
        <time>2022-05-24 13:48:03</time>
      </trkpt>
      <trkpt lat="40.99814" lon="0.57671">
        <ele>175</ele>
        <time>2022-05-24 13:48:04</time>
      </trkpt>
      <trkpt lat="40.99813" lon="0.57662">
        <ele>175</ele>
        <time>2022-05-24 13:48:05</time>
      </trkpt>
      <trkpt lat="40.99812" lon="0.57652">
        <ele>175.2</ele>
        <time>2022-05-24 13:48:06</time>
      </trkpt>
      <trkpt lat="40.9981" lon="0.57645">
        <ele>175.2</ele>
        <time>2022-05-24 13:48:07</time>
      </trkpt>
      <trkpt lat="40.99809" lon="0.57634">
        <ele>175.2</ele>
        <time>2022-05-24 13:48:08</time>
      </trkpt>
      <trkpt lat="40.99808" lon="0.57625">
        <ele>175.4</ele>
        <time>2022-05-24 13:48:09</time>
      </trkpt>
      <trkpt lat="40.99806" lon="0.57616">
        <ele>175.4</ele>
        <time>2022-05-24 13:48:10</time>
      </trkpt>
      <trkpt lat="40.99805" lon="0.57607">
        <ele>175.4</ele>
        <time>2022-05-24 13:48:11</time>
      </trkpt>
      <trkpt lat="40.99803" lon="0.57598">
        <ele>175.6</ele>
        <time>2022-05-24 13:48:12</time>
      </trkpt>
      <trkpt lat="40.99802" lon="0.5759">
        <ele>175.6</ele>
        <time>2022-05-24 13:48:13</time>
      </trkpt>
      <trkpt lat="40.998" lon="0.5758">
        <ele>175.6</ele>
        <time>2022-05-24 13:48:14</time>
      </trkpt>
      <trkpt lat="40.99798" lon="0.57572">
        <ele>175.8</ele>
        <time>2022-05-24 13:48:15</time>
      </trkpt>
      <trkpt lat="40.99796" lon="0.57563">
        <ele>175.8</ele>
        <time>2022-05-24 13:48:16</time>
      </trkpt>
      <trkpt lat="40.99794" lon="0.57555">
        <ele>175.8</ele>
        <time>2022-05-24 13:48:17</time>
      </trkpt>
      <trkpt lat="40.99791" lon="0.57545">
        <ele>175.8</ele>
        <time>2022-05-24 13:48:18</time>
      </trkpt>
      <trkpt lat="40.9979" lon="0.57536">
        <ele>175.8</ele>
        <time>2022-05-24 13:48:19</time>
      </trkpt>
      <trkpt lat="40.99787" lon="0.57527">
        <ele>175.8</ele>
        <time>2022-05-24 13:48:20</time>
      </trkpt>
      <trkpt lat="40.99785" lon="0.57518">
        <ele>175.6</ele>
        <time>2022-05-24 13:48:21</time>
      </trkpt>
      <trkpt lat="40.99782" lon="0.57508">
        <ele>175.6</ele>
        <time>2022-05-24 13:48:22</time>
      </trkpt>
      <trkpt lat="40.9978" lon="0.57501">
        <ele>175.4</ele>
        <time>2022-05-24 13:48:23</time>
      </trkpt>
      <trkpt lat="40.99776" lon="0.5749">
        <ele>175.4</ele>
        <time>2022-05-24 13:48:24</time>
      </trkpt>
      <trkpt lat="40.99774" lon="0.57482">
        <ele>175.4</ele>
        <time>2022-05-24 13:48:25</time>
      </trkpt>
      <trkpt lat="40.9977" lon="0.57473">
        <ele>175.4</ele>
        <time>2022-05-24 13:48:26</time>
      </trkpt>
      <trkpt lat="40.99767" lon="0.57465">
        <ele>175.4</ele>
        <time>2022-05-24 13:48:27</time>
      </trkpt>
      <trkpt lat="40.99763" lon="0.57455">
        <ele>175.4</ele>
        <time>2022-05-24 13:48:28</time>
      </trkpt>
      <trkpt lat="40.9976" lon="0.57447">
        <ele>175.2</ele>
        <time>2022-05-24 13:48:29</time>
      </trkpt>
      <trkpt lat="40.99755" lon="0.57437">
        <ele>175.2</ele>
        <time>2022-05-24 13:48:30</time>
      </trkpt>
      <trkpt lat="40.99752" lon="0.5743">
        <ele>175</ele>
        <time>2022-05-24 13:48:31</time>
      </trkpt>
      <trkpt lat="40.99747" lon="0.57419">
        <ele>174.6</ele>
        <time>2022-05-24 13:48:32</time>
      </trkpt>
      <trkpt lat="40.99743" lon="0.5741">
        <ele>174.4</ele>
        <time>2022-05-24 13:48:33</time>
      </trkpt>
      <trkpt lat="40.99739" lon="0.57401">
        <ele>174</ele>
        <time>2022-05-24 13:48:34</time>
      </trkpt>
      <trkpt lat="40.99734" lon="0.57391">
        <ele>173.6</ele>
        <time>2022-05-24 13:48:35</time>
      </trkpt>
      <trkpt lat="40.99729" lon="0.57381">
        <ele>173.2</ele>
        <time>2022-05-24 13:48:36</time>
      </trkpt>
      <trkpt lat="40.99724" lon="0.57372">
        <ele>172.8</ele>
        <time>2022-05-24 13:48:37</time>
      </trkpt>
      <trkpt lat="40.99719" lon="0.57363">
        <ele>172.4</ele>
        <time>2022-05-24 13:48:38</time>
      </trkpt>
      <trkpt lat="40.99713" lon="0.57352">
        <ele>171.8</ele>
        <time>2022-05-24 13:48:39</time>
      </trkpt>
      <trkpt lat="40.99707" lon="0.57342">
        <ele>171.4</ele>
        <time>2022-05-24 13:48:40</time>
      </trkpt>
      <trkpt lat="40.997" lon="0.57332">
        <ele>170.6</ele>
        <time>2022-05-24 13:48:41</time>
      </trkpt>
      <trkpt lat="40.99693" lon="0.57322">
        <ele>170</ele>
        <time>2022-05-24 13:48:42</time>
      </trkpt>
      <trkpt lat="40.99687" lon="0.57314">
        <ele>169.2</ele>
        <time>2022-05-24 13:48:43</time>
      </trkpt>
      <trkpt lat="40.99678" lon="0.57303">
        <ele>168.4</ele>
        <time>2022-05-24 13:48:44</time>
      </trkpt>
      <trkpt lat="40.99669" lon="0.57293">
        <ele>167.6</ele>
        <time>2022-05-24 13:48:45</time>
      </trkpt>
      <trkpt lat="40.99661" lon="0.57283">
        <ele>166.6</ele>
        <time>2022-05-24 13:48:46</time>
      </trkpt>
      <trkpt lat="40.99652" lon="0.57272">
        <ele>165.8</ele>
        <time>2022-05-24 13:48:47</time>
      </trkpt>
      <trkpt lat="40.99644" lon="0.57263">
        <ele>164.8</ele>
        <time>2022-05-24 13:48:48</time>
      </trkpt>
      <trkpt lat="40.99635" lon="0.57253">
        <ele>164</ele>
        <time>2022-05-24 13:48:49</time>
      </trkpt>
      <trkpt lat="40.99624" lon="0.57242">
        <ele>163</ele>
        <time>2022-05-24 13:48:50</time>
      </trkpt>
      <trkpt lat="40.99615" lon="0.57233">
        <ele>162.4</ele>
        <time>2022-05-24 13:48:51</time>
      </trkpt>
      <trkpt lat="40.99604" lon="0.57223">
        <ele>161.2</ele>
        <time>2022-05-24 13:48:52</time>
      </trkpt>
      <trkpt lat="40.99595" lon="0.57215">
        <ele>160.2</ele>
        <time>2022-05-24 13:48:53</time>
      </trkpt>
      <trkpt lat="40.99583" lon="0.57206">
        <ele>158.8</ele>
        <time>2022-05-24 13:48:54</time>
      </trkpt>
      <trkpt lat="40.99573" lon="0.57197">
        <ele>157.8</ele>
        <time>2022-05-24 13:48:55</time>
      </trkpt>
      <trkpt lat="40.99561" lon="0.57186">
        <ele>156.6</ele>
        <time>2022-05-24 13:48:56</time>
      </trkpt>
      <trkpt lat="40.99551" lon="0.57177">
        <ele>155.6</ele>
        <time>2022-05-24 13:48:57</time>
      </trkpt>
      <trkpt lat="40.99541" lon="0.57168">
        <ele>154.4</ele>
        <time>2022-05-24 13:48:58</time>
      </trkpt>
      <trkpt lat="40.99529" lon="0.57156">
        <ele>153.2</ele>
        <time>2022-05-24 13:48:59</time>
      </trkpt>
      <trkpt lat="40.99519" lon="0.57145">
        <ele>152.2</ele>
        <time>2022-05-24 13:49:00</time>
      </trkpt>
      <trkpt lat="40.99509" lon="0.57132">
        <ele>151</ele>
        <time>2022-05-24 13:49:01</time>
      </trkpt>
      <trkpt lat="40.995" lon="0.57118">
        <ele>149.8</ele>
        <time>2022-05-24 13:49:02</time>
      </trkpt>
      <trkpt lat="40.99491" lon="0.57103">
        <ele>149</ele>
        <time>2022-05-24 13:49:03</time>
      </trkpt>
      <trkpt lat="40.99484" lon="0.5709">
        <ele>148</ele>
        <time>2022-05-24 13:49:04</time>
      </trkpt>
      <trkpt lat="40.99477" lon="0.57071">
        <ele>146.6</ele>
        <time>2022-05-24 13:49:05</time>
      </trkpt>
      <trkpt lat="40.99472" lon="0.57055">
        <ele>145.4</ele>
        <time>2022-05-24 13:49:06</time>
      </trkpt>
      <trkpt lat="40.99467" lon="0.57036">
        <ele>144.2</ele>
        <time>2022-05-24 13:49:07</time>
      </trkpt>
      <trkpt lat="40.99464" lon="0.57019">
        <ele>143.2</ele>
        <time>2022-05-24 13:49:08</time>
      </trkpt>
      <trkpt lat="40.99462" lon="0.57002">
        <ele>142</ele>
        <time>2022-05-24 13:49:09</time>
      </trkpt>
      <trkpt lat="40.99461" lon="0.56981">
        <ele>141</ele>
        <time>2022-05-24 13:49:10</time>
      </trkpt>
      <trkpt lat="40.9946" lon="0.56964">
        <ele>140</ele>
        <time>2022-05-24 13:49:11</time>
      </trkpt>
      <trkpt lat="40.99462" lon="0.56945">
        <ele>139</ele>
        <time>2022-05-24 13:49:12</time>
      </trkpt>
      <trkpt lat="40.99464" lon="0.56928">
        <ele>137.8</ele>
        <time>2022-05-24 13:49:13</time>
      </trkpt>
      <trkpt lat="40.99466" lon="0.56912">
        <ele>137</ele>
        <time>2022-05-24 13:49:14</time>
      </trkpt>
      <trkpt lat="40.99471" lon="0.56892">
        <ele>136.2</ele>
        <time>2022-05-24 13:49:15</time>
      </trkpt>
      <trkpt lat="40.99475" lon="0.56875">
        <ele>135.6</ele>
        <time>2022-05-24 13:49:16</time>
      </trkpt>
      <trkpt lat="40.9948" lon="0.56863">
        <ele>134.8</ele>
        <time>2022-05-24 13:49:17</time>
      </trkpt>
      <trkpt lat="40.99486" lon="0.56849">
        <ele>134</ele>
        <time>2022-05-24 13:49:18</time>
      </trkpt>
      <trkpt lat="40.99493" lon="0.56834">
        <ele>133</ele>
        <time>2022-05-24 13:49:19</time>
      </trkpt>
      <trkpt lat="40.995" lon="0.56821">
        <ele>132.4</ele>
        <time>2022-05-24 13:49:20</time>
      </trkpt>
      <trkpt lat="40.99508" lon="0.56808">
        <ele>132</ele>
        <time>2022-05-24 13:49:21</time>
      </trkpt>
      <trkpt lat="40.99514" lon="0.56796">
        <ele>131.6</ele>
        <time>2022-05-24 13:49:22</time>
      </trkpt>
      <trkpt lat="40.99522" lon="0.56783">
        <ele>131.2</ele>
        <time>2022-05-24 13:49:23</time>
      </trkpt>
      <trkpt lat="40.99528" lon="0.5677">
        <ele>130.8</ele>
        <time>2022-05-24 13:49:24</time>
      </trkpt>
      <trkpt lat="40.99535" lon="0.56757">
        <ele>130.4</ele>
        <time>2022-05-24 13:49:25</time>
      </trkpt>
      <trkpt lat="40.99541" lon="0.56744">
        <ele>130</ele>
        <time>2022-05-24 13:49:26</time>
      </trkpt>
      <trkpt lat="40.99547" lon="0.5673">
        <ele>129.6</ele>
        <time>2022-05-24 13:49:27</time>
      </trkpt>
      <trkpt lat="40.99551" lon="0.56718">
        <ele>129.4</ele>
        <time>2022-05-24 13:49:28</time>
      </trkpt>
      <trkpt lat="40.99556" lon="0.56704">
        <ele>129</ele>
        <time>2022-05-24 13:49:29</time>
      </trkpt>
      <trkpt lat="40.99559" lon="0.56691">
        <ele>128.8</ele>
        <time>2022-05-24 13:49:30</time>
      </trkpt>
      <trkpt lat="40.99562" lon="0.56676">
        <ele>128.6</ele>
        <time>2022-05-24 13:49:31</time>
      </trkpt>
      <trkpt lat="40.99564" lon="0.56663">
        <ele>128.2</ele>
        <time>2022-05-24 13:49:32</time>
      </trkpt>
      <trkpt lat="40.99565" lon="0.56649">
        <ele>128</ele>
        <time>2022-05-24 13:49:33</time>
      </trkpt>
      <trkpt lat="40.99566" lon="0.56633">
        <ele>127.6</ele>
        <time>2022-05-24 13:49:34</time>
      </trkpt>
      <trkpt lat="40.99566" lon="0.56619">
        <ele>127.2</ele>
        <time>2022-05-24 13:49:35</time>
      </trkpt>
      <trkpt lat="40.99566" lon="0.56605">
        <ele>126.8</ele>
        <time>2022-05-24 13:49:36</time>
      </trkpt>
      <trkpt lat="40.99565" lon="0.56591">
        <ele>126.4</ele>
        <time>2022-05-24 13:49:37</time>
      </trkpt>
      <trkpt lat="40.99562" lon="0.56576">
        <ele>125.8</ele>
        <time>2022-05-24 13:49:38</time>
      </trkpt>
      <trkpt lat="40.99559" lon="0.56558">
        <ele>125.4</ele>
        <time>2022-05-24 13:49:39</time>
      </trkpt>
      <trkpt lat="40.99556" lon="0.56545">
        <ele>125</ele>
        <time>2022-05-24 13:49:40</time>
      </trkpt>
      <trkpt lat="40.99553" lon="0.56532">
        <ele>124.8</ele>
        <time>2022-05-24 13:49:41</time>
      </trkpt>
      <trkpt lat="40.99549" lon="0.5652">
        <ele>124.6</ele>
        <time>2022-05-24 13:49:42</time>
      </trkpt>
      <trkpt lat="40.99544" lon="0.56508">
        <ele>124.2</ele>
        <time>2022-05-24 13:49:43</time>
      </trkpt>
      <trkpt lat="40.99539" lon="0.56496">
        <ele>123.8</ele>
        <time>2022-05-24 13:49:44</time>
      </trkpt>
      <trkpt lat="40.99533" lon="0.56485">
        <ele>123.6</ele>
        <time>2022-05-24 13:49:45</time>
      </trkpt>
      <trkpt lat="40.99528" lon="0.56474">
        <ele>123.4</ele>
        <time>2022-05-24 13:49:46</time>
      </trkpt>
      <trkpt lat="40.99522" lon="0.56464">
        <ele>123</ele>
        <time>2022-05-24 13:49:47</time>
      </trkpt>
      <trkpt lat="40.99516" lon="0.56453">
        <ele>122.8</ele>
        <time>2022-05-24 13:49:48</time>
      </trkpt>
      <trkpt lat="40.9951" lon="0.56443">
        <ele>122.6</ele>
        <time>2022-05-24 13:49:49</time>
      </trkpt>
      <trkpt lat="40.99504" lon="0.56433">
        <ele>122.2</ele>
        <time>2022-05-24 13:49:50</time>
      </trkpt>
      <trkpt lat="40.99499" lon="0.56423">
        <ele>122</ele>
        <time>2022-05-24 13:49:51</time>
      </trkpt>
      <trkpt lat="40.99493" lon="0.56412">
        <ele>121.6</ele>
        <time>2022-05-24 13:49:52</time>
      </trkpt>
      <trkpt lat="40.99487" lon="0.56402">
        <ele>121.4</ele>
        <time>2022-05-24 13:49:53</time>
      </trkpt>
      <trkpt lat="40.99481" lon="0.56392">
        <ele>121.2</ele>
        <time>2022-05-24 13:49:54</time>
      </trkpt>
      <trkpt lat="40.99475" lon="0.56383">
        <ele>120.8</ele>
        <time>2022-05-24 13:49:55</time>
      </trkpt>
      <trkpt lat="40.99469" lon="0.56373">
        <ele>120.6</ele>
        <time>2022-05-24 13:49:56</time>
      </trkpt>
      <trkpt lat="40.99463" lon="0.56363">
        <ele>120.2</ele>
        <time>2022-05-24 13:49:57</time>
      </trkpt>
      <trkpt lat="40.99457" lon="0.56354">
        <ele>120</ele>
        <time>2022-05-24 13:49:58</time>
      </trkpt>
      <trkpt lat="40.99451" lon="0.56344">
        <ele>119.8</ele>
        <time>2022-05-24 13:49:59</time>
      </trkpt>
      <trkpt lat="40.99446" lon="0.56334">
        <ele>119.6</ele>
        <time>2022-05-24 13:50:00</time>
      </trkpt>
      <trkpt lat="40.9944" lon="0.56324">
        <ele>119.2</ele>
        <time>2022-05-24 13:50:01</time>
      </trkpt>
      <trkpt lat="40.99434" lon="0.56315">
        <ele>119</ele>
        <time>2022-05-24 13:50:02</time>
      </trkpt>
      <trkpt lat="40.99429" lon="0.56305">
        <ele>118.8</ele>
        <time>2022-05-24 13:50:03</time>
      </trkpt>
      <trkpt lat="40.99423" lon="0.56295">
        <ele>118.4</ele>
        <time>2022-05-24 13:50:04</time>
      </trkpt>
      <trkpt lat="40.99417" lon="0.56285">
        <ele>118.2</ele>
        <time>2022-05-24 13:50:05</time>
      </trkpt>
      <trkpt lat="40.99412" lon="0.56275">
        <ele>117.8</ele>
        <time>2022-05-24 13:50:06</time>
      </trkpt>
      <trkpt lat="40.99408" lon="0.56266">
        <ele>117.4</ele>
        <time>2022-05-24 13:50:07</time>
      </trkpt>
      <trkpt lat="40.99403" lon="0.56255">
        <ele>117.2</ele>
        <time>2022-05-24 13:50:08</time>
      </trkpt>
      <trkpt lat="40.99398" lon="0.56245">
        <ele>116.8</ele>
        <time>2022-05-24 13:50:09</time>
      </trkpt>
      <trkpt lat="40.99393" lon="0.56234">
        <ele>116.4</ele>
        <time>2022-05-24 13:50:10</time>
      </trkpt>
      <trkpt lat="40.99389" lon="0.56223">
        <ele>116</ele>
        <time>2022-05-24 13:50:11</time>
      </trkpt>
      <trkpt lat="40.99384" lon="0.56212">
        <ele>115.6</ele>
        <time>2022-05-24 13:50:12</time>
      </trkpt>
      <trkpt lat="40.9938" lon="0.562">
        <ele>115.2</ele>
        <time>2022-05-24 13:50:13</time>
      </trkpt>
      <trkpt lat="40.99376" lon="0.56189">
        <ele>114.8</ele>
        <time>2022-05-24 13:50:14</time>
      </trkpt>
      <trkpt lat="40.99372" lon="0.56177">
        <ele>114.2</ele>
        <time>2022-05-24 13:50:15</time>
      </trkpt>
      <trkpt lat="40.99368" lon="0.56164">
        <ele>114</ele>
        <time>2022-05-24 13:50:16</time>
      </trkpt>
      <trkpt lat="40.99364" lon="0.56151">
        <ele>113.6</ele>
        <time>2022-05-24 13:50:17</time>
      </trkpt>
      <trkpt lat="40.99361" lon="0.56139">
        <ele>113</ele>
        <time>2022-05-24 13:50:18</time>
      </trkpt>
      <trkpt lat="40.99357" lon="0.56126">
        <ele>112.2</ele>
        <time>2022-05-24 13:50:19</time>
      </trkpt>
      <trkpt lat="40.99354" lon="0.56111">
        <ele>111.6</ele>
        <time>2022-05-24 13:50:20</time>
      </trkpt>
      <trkpt lat="40.99351" lon="0.56098">
        <ele>111.2</ele>
        <time>2022-05-24 13:50:21</time>
      </trkpt>
      <trkpt lat="40.99348" lon="0.56083">
        <ele>110.2</ele>
        <time>2022-05-24 13:50:22</time>
      </trkpt>
      <trkpt lat="40.99346" lon="0.56069">
        <ele>109.6</ele>
        <time>2022-05-24 13:50:23</time>
      </trkpt>
      <trkpt lat="40.99344" lon="0.56054">
        <ele>108.8</ele>
        <time>2022-05-24 13:50:24</time>
      </trkpt>
      <trkpt lat="40.99342" lon="0.56039">
        <ele>108</ele>
        <time>2022-05-24 13:50:25</time>
      </trkpt>
      <trkpt lat="40.9934" lon="0.56024">
        <ele>107.4</ele>
        <time>2022-05-24 13:50:26</time>
      </trkpt>
      <trkpt lat="40.9934" lon="0.56009">
        <ele>106.8</ele>
        <time>2022-05-24 13:50:27</time>
      </trkpt>
      <trkpt lat="40.9934" lon="0.55993">
        <ele>106.4</ele>
        <time>2022-05-24 13:50:28</time>
      </trkpt>
      <trkpt lat="40.99342" lon="0.55979">
        <ele>106</ele>
        <time>2022-05-24 13:50:29</time>
      </trkpt>
      <trkpt lat="40.99344" lon="0.55964">
        <ele>105.6</ele>
        <time>2022-05-24 13:50:30</time>
      </trkpt>
      <trkpt lat="40.99346" lon="0.55951">
        <ele>105.4</ele>
        <time>2022-05-24 13:50:31</time>
      </trkpt>
      <trkpt lat="40.99349" lon="0.55938">
        <ele>105.2</ele>
        <time>2022-05-24 13:50:32</time>
      </trkpt>
      <trkpt lat="40.99352" lon="0.55925">
        <ele>105.2</ele>
        <time>2022-05-24 13:50:33</time>
      </trkpt>
      <trkpt lat="40.99356" lon="0.55913">
        <ele>105.2</ele>
        <time>2022-05-24 13:50:34</time>
      </trkpt>
      <trkpt lat="40.99359" lon="0.55903">
        <ele>105.4</ele>
        <time>2022-05-24 13:50:35</time>
      </trkpt>
      <trkpt lat="40.99363" lon="0.55893">
        <ele>105.8</ele>
        <time>2022-05-24 13:50:36</time>
      </trkpt>
      <trkpt lat="40.99368" lon="0.55884">
        <ele>106.2</ele>
        <time>2022-05-24 13:50:37</time>
      </trkpt>
      <trkpt lat="40.99372" lon="0.55876">
        <ele>106.6</ele>
        <time>2022-05-24 13:50:38</time>
      </trkpt>
      <trkpt lat="40.99376" lon="0.55868">
        <ele>107</ele>
        <time>2022-05-24 13:50:39</time>
      </trkpt>
      <trkpt lat="40.9938" lon="0.55861">
        <ele>107.4</ele>
        <time>2022-05-24 13:50:40</time>
      </trkpt>
      <trkpt lat="40.99383" lon="0.55855">
        <ele>107.8</ele>
        <time>2022-05-24 13:50:41</time>
      </trkpt>
      <trkpt lat="40.99387" lon="0.55848">
        <ele>108.2</ele>
        <time>2022-05-24 13:50:42</time>
      </trkpt>
      <trkpt lat="40.9939" lon="0.55842">
        <ele>108.4</ele>
        <time>2022-05-24 13:50:43</time>
      </trkpt>
      <trkpt lat="40.99394" lon="0.55836">
        <ele>109</ele>
        <time>2022-05-24 13:50:44</time>
      </trkpt>
      <trkpt lat="40.99396" lon="0.55831">
        <ele>109.4</ele>
        <time>2022-05-24 13:50:45</time>
      </trkpt>
      <trkpt lat="40.994" lon="0.55826">
        <ele>110</ele>
        <time>2022-05-24 13:50:46</time>
      </trkpt>
      <trkpt lat="40.99402" lon="0.55821">
        <ele>110.4</ele>
        <time>2022-05-24 13:50:47</time>
      </trkpt>
      <trkpt lat="40.99404" lon="0.55817">
        <ele>110.8</ele>
        <time>2022-05-24 13:50:48</time>
      </trkpt>
      <trkpt lat="40.99407" lon="0.55813">
        <ele>111.2</ele>
        <time>2022-05-24 13:50:49</time>
      </trkpt>
      <trkpt lat="40.99409" lon="0.55808">
        <ele>111.4</ele>
        <time>2022-05-24 13:50:50</time>
      </trkpt>
      <trkpt lat="40.99411" lon="0.55804">
        <ele>111.8</ele>
        <time>2022-05-24 13:50:51</time>
      </trkpt>
      <trkpt lat="40.99413" lon="0.558">
        <ele>112</ele>
        <time>2022-05-24 13:50:52</time>
      </trkpt>
      <trkpt lat="40.99415" lon="0.55796">
        <ele>112.4</ele>
        <time>2022-05-24 13:50:53</time>
      </trkpt>
      <trkpt lat="40.99417" lon="0.55792">
        <ele>112.6</ele>
        <time>2022-05-24 13:50:54</time>
      </trkpt>
      <trkpt lat="40.99419" lon="0.55788">
        <ele>113</ele>
        <time>2022-05-24 13:50:55</time>
      </trkpt>
      <trkpt lat="40.99421" lon="0.55784">
        <ele>113.2</ele>
        <time>2022-05-24 13:50:56</time>
      </trkpt>
      <trkpt lat="40.99422" lon="0.55782">
        <ele>113.6</ele>
        <time>2022-05-24 13:50:57</time>
      </trkpt>
      <trkpt lat="40.99423" lon="0.55778">
        <ele>113.8</ele>
        <time>2022-05-24 13:50:58</time>
      </trkpt>
      <trkpt lat="40.99424" lon="0.55775">
        <ele>114</ele>
        <time>2022-05-24 13:50:59</time>
      </trkpt>
      <trkpt lat="40.99425" lon="0.55773">
        <ele>114.2</ele>
        <time>2022-05-24 13:51:00</time>
      </trkpt>
      <trkpt lat="40.99426" lon="0.55769">
        <ele>114.4</ele>
        <time>2022-05-24 13:51:01</time>
      </trkpt>
      <trkpt lat="40.99427" lon="0.55766">
        <ele>114.6</ele>
        <time>2022-05-24 13:51:02</time>
      </trkpt>
      <trkpt lat="40.99429" lon="0.55763">
        <ele>114.8</ele>
        <time>2022-05-24 13:51:03</time>
      </trkpt>
      <trkpt lat="40.9943" lon="0.5576">
        <ele>115</ele>
        <time>2022-05-24 13:51:04</time>
      </trkpt>
      <trkpt lat="40.99431" lon="0.55756">
        <ele>115.2</ele>
        <time>2022-05-24 13:51:05</time>
      </trkpt>
      <trkpt lat="40.99432" lon="0.55753">
        <ele>115.4</ele>
        <time>2022-05-24 13:51:06</time>
      </trkpt>
      <trkpt lat="40.99432" lon="0.5575">
        <ele>115.4</ele>
        <time>2022-05-24 13:51:07</time>
      </trkpt>
      <trkpt lat="40.99433" lon="0.55746">
        <ele>115.6</ele>
        <time>2022-05-24 13:51:08</time>
      </trkpt>
      <trkpt lat="40.99434" lon="0.55743">
        <ele>115.8</ele>
        <time>2022-05-24 13:51:09</time>
      </trkpt>
      <trkpt lat="40.99435" lon="0.5574">
        <ele>116</ele>
        <time>2022-05-24 13:51:10</time>
      </trkpt>
      <trkpt lat="40.99436" lon="0.55737">
        <ele>116.2</ele>
        <time>2022-05-24 13:51:11</time>
      </trkpt>
      <trkpt lat="40.99437" lon="0.55734">
        <ele>116.2</ele>
        <time>2022-05-24 13:51:12</time>
      </trkpt>
      <trkpt lat="40.99437" lon="0.55731">
        <ele>116.4</ele>
        <time>2022-05-24 13:51:13</time>
      </trkpt>
      <trkpt lat="40.99437" lon="0.55727">
        <ele>116.6</ele>
        <time>2022-05-24 13:51:14</time>
      </trkpt>
      <trkpt lat="40.99438" lon="0.55724">
        <ele>116.6</ele>
        <time>2022-05-24 13:51:15</time>
      </trkpt>
      <trkpt lat="40.99438" lon="0.55721">
        <ele>116.8</ele>
        <time>2022-05-24 13:51:16</time>
      </trkpt>
      <trkpt lat="40.99439" lon="0.55718">
        <ele>117</ele>
        <time>2022-05-24 13:51:17</time>
      </trkpt>
      <trkpt lat="40.9944" lon="0.55715">
        <ele>117</ele>
        <time>2022-05-24 13:51:18</time>
      </trkpt>
      <trkpt lat="40.9944" lon="0.55712">
        <ele>117.2</ele>
        <time>2022-05-24 13:51:19</time>
      </trkpt>
      <trkpt lat="40.99441" lon="0.55709">
        <ele>117.4</ele>
        <time>2022-05-24 13:51:20</time>
      </trkpt>
      <trkpt lat="40.99441" lon="0.55705">
        <ele>117.6</ele>
        <time>2022-05-24 13:51:21</time>
      </trkpt>
      <trkpt lat="40.99442" lon="0.55702">
        <ele>117.6</ele>
        <time>2022-05-24 13:51:22</time>
      </trkpt>
      <trkpt lat="40.99443" lon="0.55699">
        <ele>117.8</ele>
        <time>2022-05-24 13:51:23</time>
      </trkpt>
      <trkpt lat="40.99444" lon="0.55696">
        <ele>118</ele>
        <time>2022-05-24 13:51:24</time>
      </trkpt>
      <trkpt lat="40.99445" lon="0.55692">
        <ele>118.2</ele>
        <time>2022-05-24 13:51:25</time>
      </trkpt>
      <trkpt lat="40.99445" lon="0.55689">
        <ele>118.2</ele>
        <time>2022-05-24 13:51:26</time>
      </trkpt>
      <trkpt lat="40.99445" lon="0.55686">
        <ele>118.4</ele>
        <time>2022-05-24 13:51:27</time>
      </trkpt>
      <trkpt lat="40.99446" lon="0.55683">
        <ele>118.6</ele>
        <time>2022-05-24 13:51:28</time>
      </trkpt>
      <trkpt lat="40.99446" lon="0.55679">
        <ele>118.6</ele>
        <time>2022-05-24 13:51:29</time>
      </trkpt>
      <trkpt lat="40.99447" lon="0.55676">
        <ele>118.8</ele>
        <time>2022-05-24 13:51:30</time>
      </trkpt>
      <trkpt lat="40.99448" lon="0.55673">
        <ele>119</ele>
        <time>2022-05-24 13:51:31</time>
      </trkpt>
      <trkpt lat="40.99448" lon="0.5567">
        <ele>119</ele>
        <time>2022-05-24 13:51:32</time>
      </trkpt>
      <trkpt lat="40.99449" lon="0.55666">
        <ele>119.2</ele>
        <time>2022-05-24 13:51:33</time>
      </trkpt>
      <trkpt lat="40.9945" lon="0.55663">
        <ele>119.4</ele>
        <time>2022-05-24 13:51:34</time>
      </trkpt>
      <trkpt lat="40.9945" lon="0.5566">
        <ele>119.6</ele>
        <time>2022-05-24 13:51:35</time>
      </trkpt>
      <trkpt lat="40.9945" lon="0.55658">
        <ele>119.8</ele>
        <time>2022-05-24 13:51:36</time>
      </trkpt>
      <trkpt lat="40.9945" lon="0.55655">
        <ele>120</ele>
        <time>2022-05-24 13:51:37</time>
      </trkpt>
      <trkpt lat="40.99451" lon="0.55652">
        <ele>120</ele>
        <time>2022-05-24 13:51:38</time>
      </trkpt>
      <trkpt lat="40.99451" lon="0.55649">
        <ele>120.2</ele>
        <time>2022-05-24 13:51:39</time>
      </trkpt>
      <trkpt lat="40.99452" lon="0.55646">
        <ele>120.4</ele>
        <time>2022-05-24 13:51:40</time>
      </trkpt>
      <trkpt lat="40.99452" lon="0.55642">
        <ele>120.6</ele>
        <time>2022-05-24 13:51:41</time>
      </trkpt>
      <trkpt lat="40.99453" lon="0.55639">
        <ele>120.8</ele>
        <time>2022-05-24 13:51:42</time>
      </trkpt>
      <trkpt lat="40.99453" lon="0.55637">
        <ele>120.8</ele>
        <time>2022-05-24 13:51:43</time>
      </trkpt>
      <trkpt lat="40.99454" lon="0.55634">
        <ele>121</ele>
        <time>2022-05-24 13:51:44</time>
      </trkpt>
      <trkpt lat="40.99454" lon="0.5563">
        <ele>121.2</ele>
        <time>2022-05-24 13:51:45</time>
      </trkpt>
      <trkpt lat="40.99454" lon="0.55627">
        <ele>121.4</ele>
        <time>2022-05-24 13:51:46</time>
      </trkpt>
      <trkpt lat="40.99455" lon="0.55624">
        <ele>121.4</ele>
        <time>2022-05-24 13:51:47</time>
      </trkpt>
      <trkpt lat="40.99456" lon="0.55622">
        <ele>121.6</ele>
        <time>2022-05-24 13:51:48</time>
      </trkpt>
      <trkpt lat="40.99456" lon="0.55618">
        <ele>121.8</ele>
        <time>2022-05-24 13:51:49</time>
      </trkpt>
      <trkpt lat="40.99456" lon="0.55615">
        <ele>122</ele>
        <time>2022-05-24 13:51:50</time>
      </trkpt>
      <trkpt lat="40.99456" lon="0.55612">
        <ele>122</ele>
        <time>2022-05-24 13:51:51</time>
      </trkpt>
      <trkpt lat="40.99457" lon="0.55609">
        <ele>122.2</ele>
        <time>2022-05-24 13:51:52</time>
      </trkpt>
      <trkpt lat="40.99457" lon="0.55605">
        <ele>122.4</ele>
        <time>2022-05-24 13:51:53</time>
      </trkpt>
      <trkpt lat="40.99457" lon="0.55602">
        <ele>122.6</ele>
        <time>2022-05-24 13:51:54</time>
      </trkpt>
      <trkpt lat="40.99458" lon="0.55599">
        <ele>122.8</ele>
        <time>2022-05-24 13:51:55</time>
      </trkpt>
      <trkpt lat="40.99458" lon="0.55596">
        <ele>122.8</ele>
        <time>2022-05-24 13:51:56</time>
      </trkpt>
      <trkpt lat="40.99459" lon="0.55592">
        <ele>123</ele>
        <time>2022-05-24 13:51:57</time>
      </trkpt>
      <trkpt lat="40.99459" lon="0.55589">
        <ele>123.2</ele>
        <time>2022-05-24 13:51:58</time>
      </trkpt>
      <trkpt lat="40.9946" lon="0.55586">
        <ele>123.4</ele>
        <time>2022-05-24 13:51:59</time>
      </trkpt>
      <trkpt lat="40.9946" lon="0.55584">
        <ele>123.4</ele>
        <time>2022-05-24 13:52:00</time>
      </trkpt>
      <trkpt lat="40.9946" lon="0.55581">
        <ele>123.6</ele>
        <time>2022-05-24 13:52:01</time>
      </trkpt>
      <trkpt lat="40.99461" lon="0.55577">
        <ele>123.8</ele>
        <time>2022-05-24 13:52:02</time>
      </trkpt>
      <trkpt lat="40.99461" lon="0.55575">
        <ele>124</ele>
        <time>2022-05-24 13:52:03</time>
      </trkpt>
      <trkpt lat="40.99461" lon="0.55572">
        <ele>124</ele>
        <time>2022-05-24 13:52:04</time>
      </trkpt>
      <trkpt lat="40.99461" lon="0.5557">
        <ele>124.2</ele>
        <time>2022-05-24 13:52:05</time>
      </trkpt>
      <trkpt lat="40.99461" lon="0.55566">
        <ele>124.4</ele>
        <time>2022-05-24 13:52:06</time>
      </trkpt>
      <trkpt lat="40.99461" lon="0.55563">
        <ele>124.6</ele>
        <time>2022-05-24 13:52:07</time>
      </trkpt>
      <trkpt lat="40.99461" lon="0.55559">
        <ele>124.6</ele>
        <time>2022-05-24 13:52:08</time>
      </trkpt>
      <trkpt lat="40.99461" lon="0.55557">
        <ele>124.8</ele>
        <time>2022-05-24 13:52:09</time>
      </trkpt>
      <trkpt lat="40.99462" lon="0.55553">
        <ele>125</ele>
        <time>2022-05-24 13:52:10</time>
      </trkpt>
      <trkpt lat="40.99462" lon="0.55551">
        <ele>125</ele>
        <time>2022-05-24 13:52:11</time>
      </trkpt>
      <trkpt lat="40.99462" lon="0.55548">
        <ele>125.2</ele>
        <time>2022-05-24 13:52:12</time>
      </trkpt>
      <trkpt lat="40.99463" lon="0.55545">
        <ele>125.4</ele>
        <time>2022-05-24 13:52:13</time>
      </trkpt>
      <trkpt lat="40.99463" lon="0.55543">
        <ele>125.6</ele>
        <time>2022-05-24 13:52:14</time>
      </trkpt>
      <trkpt lat="40.99463" lon="0.55539">
        <ele>125.6</ele>
        <time>2022-05-24 13:52:15</time>
      </trkpt>
      <trkpt lat="40.99463" lon="0.55536">
        <ele>125.8</ele>
        <time>2022-05-24 13:52:16</time>
      </trkpt>
      <trkpt lat="40.99463" lon="0.55534">
        <ele>126</ele>
        <time>2022-05-24 13:52:17</time>
      </trkpt>
      <trkpt lat="40.99463" lon="0.55531">
        <ele>126</ele>
        <time>2022-05-24 13:52:18</time>
      </trkpt>
      <trkpt lat="40.99464" lon="0.55528">
        <ele>126.2</ele>
        <time>2022-05-24 13:52:19</time>
      </trkpt>
      <trkpt lat="40.99464" lon="0.55525">
        <ele>126.4</ele>
        <time>2022-05-24 13:52:20</time>
      </trkpt>
      <trkpt lat="40.99463" lon="0.55521">
        <ele>126.6</ele>
        <time>2022-05-24 13:52:21</time>
      </trkpt>
      <trkpt lat="40.99463" lon="0.55518">
        <ele>126.6</ele>
        <time>2022-05-24 13:52:22</time>
      </trkpt>
      <trkpt lat="40.99462" lon="0.55515">
        <ele>126.8</ele>
        <time>2022-05-24 13:52:23</time>
      </trkpt>
      <trkpt lat="40.99462" lon="0.55512">
        <ele>127</ele>
        <time>2022-05-24 13:52:24</time>
      </trkpt>
      <trkpt lat="40.99462" lon="0.55509">
        <ele>127.2</ele>
        <time>2022-05-24 13:52:25</time>
      </trkpt>
      <trkpt lat="40.99461" lon="0.55506">
        <ele>127.2</ele>
        <time>2022-05-24 13:52:26</time>
      </trkpt>
      <trkpt lat="40.99461" lon="0.55503">
        <ele>127.4</ele>
        <time>2022-05-24 13:52:27</time>
      </trkpt>
      <trkpt lat="40.99461" lon="0.555">
        <ele>127.6</ele>
        <time>2022-05-24 13:52:28</time>
      </trkpt>
      <trkpt lat="40.9946" lon="0.55496">
        <ele>127.8</ele>
        <time>2022-05-24 13:52:29</time>
      </trkpt>
      <trkpt lat="40.9946" lon="0.55493">
        <ele>127.8</ele>
        <time>2022-05-24 13:52:30</time>
      </trkpt>
      <trkpt lat="40.9946" lon="0.5549">
        <ele>128</ele>
        <time>2022-05-24 13:52:31</time>
      </trkpt>
      <trkpt lat="40.99459" lon="0.55487">
        <ele>128.2</ele>
        <time>2022-05-24 13:52:32</time>
      </trkpt>
      <trkpt lat="40.99458" lon="0.55484">
        <ele>128.2</ele>
        <time>2022-05-24 13:52:33</time>
      </trkpt>
      <trkpt lat="40.99458" lon="0.5548">
        <ele>128.4</ele>
        <time>2022-05-24 13:52:34</time>
      </trkpt>
      <trkpt lat="40.99457" lon="0.55477">
        <ele>128.6</ele>
        <time>2022-05-24 13:52:35</time>
      </trkpt>
      <trkpt lat="40.99457" lon="0.55475">
        <ele>128.8</ele>
        <time>2022-05-24 13:52:36</time>
      </trkpt>
      <trkpt lat="40.99457" lon="0.55471">
        <ele>128.8</ele>
        <time>2022-05-24 13:52:37</time>
      </trkpt>
      <trkpt lat="40.99456" lon="0.55468">
        <ele>129</ele>
        <time>2022-05-24 13:52:38</time>
      </trkpt>
      <trkpt lat="40.99456" lon="0.55465">
        <ele>129.2</ele>
        <time>2022-05-24 13:52:39</time>
      </trkpt>
      <trkpt lat="40.99455" lon="0.55463">
        <ele>129.4</ele>
        <time>2022-05-24 13:52:40</time>
      </trkpt>
      <trkpt lat="40.99455" lon="0.55459">
        <ele>129.6</ele>
        <time>2022-05-24 13:52:41</time>
      </trkpt>
      <trkpt lat="40.99454" lon="0.55456">
        <ele>129.8</ele>
        <time>2022-05-24 13:52:42</time>
      </trkpt>
      <trkpt lat="40.99453" lon="0.55453">
        <ele>129.8</ele>
        <time>2022-05-24 13:52:43</time>
      </trkpt>
      <trkpt lat="40.99453" lon="0.5545">
        <ele>130</ele>
        <time>2022-05-24 13:52:44</time>
      </trkpt>
      <trkpt lat="40.99452" lon="0.55447">
        <ele>130.2</ele>
        <time>2022-05-24 13:52:45</time>
      </trkpt>
      <trkpt lat="40.99451" lon="0.55444">
        <ele>130.4</ele>
        <time>2022-05-24 13:52:46</time>
      </trkpt>
      <trkpt lat="40.99451" lon="0.55441">
        <ele>130.6</ele>
        <time>2022-05-24 13:52:47</time>
      </trkpt>
      <trkpt lat="40.9945" lon="0.55438">
        <ele>130.6</ele>
        <time>2022-05-24 13:52:48</time>
      </trkpt>
      <trkpt lat="40.99449" lon="0.55434">
        <ele>130.8</ele>
        <time>2022-05-24 13:52:49</time>
      </trkpt>
      <trkpt lat="40.99448" lon="0.55431">
        <ele>131</ele>
        <time>2022-05-24 13:52:50</time>
      </trkpt>
      <trkpt lat="40.99447" lon="0.55427">
        <ele>131</ele>
        <time>2022-05-24 13:52:51</time>
      </trkpt>
      <trkpt lat="40.99447" lon="0.55424">
        <ele>131.2</ele>
        <time>2022-05-24 13:52:52</time>
      </trkpt>
      <trkpt lat="40.99446" lon="0.55421">
        <ele>131.4</ele>
        <time>2022-05-24 13:52:53</time>
      </trkpt>
      <trkpt lat="40.99445" lon="0.55418">
        <ele>131.6</ele>
        <time>2022-05-24 13:52:54</time>
      </trkpt>
      <trkpt lat="40.99444" lon="0.55416">
        <ele>131.8</ele>
        <time>2022-05-24 13:52:55</time>
      </trkpt>
      <trkpt lat="40.99443" lon="0.55413">
        <ele>132</ele>
        <time>2022-05-24 13:52:56</time>
      </trkpt>
      <trkpt lat="40.99442" lon="0.5541">
        <ele>132</ele>
        <time>2022-05-24 13:52:57</time>
      </trkpt>
      <trkpt lat="40.99441" lon="0.55407">
        <ele>132.2</ele>
        <time>2022-05-24 13:52:58</time>
      </trkpt>
      <trkpt lat="40.9944" lon="0.55405">
        <ele>132.4</ele>
        <time>2022-05-24 13:52:59</time>
      </trkpt>
      <trkpt lat="40.99439" lon="0.55402">
        <ele>132.4</ele>
        <time>2022-05-24 13:53:00</time>
      </trkpt>
      <trkpt lat="40.99437" lon="0.55399">
        <ele>132.6</ele>
        <time>2022-05-24 13:53:01</time>
      </trkpt>
      <trkpt lat="40.99436" lon="0.55397">
        <ele>132.8</ele>
        <time>2022-05-24 13:53:02</time>
      </trkpt>
      <trkpt lat="40.99435" lon="0.55394">
        <ele>132.8</ele>
        <time>2022-05-24 13:53:03</time>
      </trkpt>
      <trkpt lat="40.99434" lon="0.55391">
        <ele>133</ele>
        <time>2022-05-24 13:53:04</time>
      </trkpt>
      <trkpt lat="40.99434" lon="0.55388">
        <ele>133</ele>
        <time>2022-05-24 13:53:05</time>
      </trkpt>
      <trkpt lat="40.99432" lon="0.55386">
        <ele>133.2</ele>
        <time>2022-05-24 13:53:06</time>
      </trkpt>
      <trkpt lat="40.99432" lon="0.55383">
        <ele>133.4</ele>
        <time>2022-05-24 13:53:07</time>
      </trkpt>
      <trkpt lat="40.99431" lon="0.55381">
        <ele>133.4</ele>
        <time>2022-05-24 13:53:08</time>
      </trkpt>
      <trkpt lat="40.99429" lon="0.55378">
        <ele>133.6</ele>
        <time>2022-05-24 13:53:09</time>
      </trkpt>
      <trkpt lat="40.99427" lon="0.55376">
        <ele>133.8</ele>
        <time>2022-05-24 13:53:10</time>
      </trkpt>
      <trkpt lat="40.99426" lon="0.55374">
        <ele>133.8</ele>
        <time>2022-05-24 13:53:11</time>
      </trkpt>
      <trkpt lat="40.99425" lon="0.55371">
        <ele>134</ele>
        <time>2022-05-24 13:53:12</time>
      </trkpt>
      <trkpt lat="40.99424" lon="0.55369">
        <ele>134.2</ele>
        <time>2022-05-24 13:53:13</time>
      </trkpt>
      <trkpt lat="40.99423" lon="0.55366">
        <ele>134.2</ele>
        <time>2022-05-24 13:53:14</time>
      </trkpt>
      <trkpt lat="40.99422" lon="0.55363">
        <ele>134.4</ele>
        <time>2022-05-24 13:53:15</time>
      </trkpt>
      <trkpt lat="40.99421" lon="0.5536">
        <ele>134.6</ele>
        <time>2022-05-24 13:53:16</time>
      </trkpt>
      <trkpt lat="40.9942" lon="0.55358">
        <ele>134.6</ele>
        <time>2022-05-24 13:53:17</time>
      </trkpt>
      <trkpt lat="40.99419" lon="0.55355">
        <ele>134.8</ele>
        <time>2022-05-24 13:53:18</time>
      </trkpt>
      <trkpt lat="40.99417" lon="0.55353">
        <ele>135</ele>
        <time>2022-05-24 13:53:19</time>
      </trkpt>
      <trkpt lat="40.99416" lon="0.5535">
        <ele>135</ele>
        <time>2022-05-24 13:53:20</time>
      </trkpt>
      <trkpt lat="40.99415" lon="0.55348">
        <ele>135.2</ele>
        <time>2022-05-24 13:53:21</time>
      </trkpt>
      <trkpt lat="40.99414" lon="0.55345">
        <ele>135.4</ele>
        <time>2022-05-24 13:53:22</time>
      </trkpt>
      <trkpt lat="40.99413" lon="0.55342">
        <ele>135.4</ele>
        <time>2022-05-24 13:53:23</time>
      </trkpt>
      <trkpt lat="40.99411" lon="0.55339">
        <ele>135.6</ele>
        <time>2022-05-24 13:53:24</time>
      </trkpt>
      <trkpt lat="40.9941" lon="0.55337">
        <ele>135.8</ele>
        <time>2022-05-24 13:53:25</time>
      </trkpt>
      <trkpt lat="40.99409" lon="0.55335">
        <ele>135.8</ele>
        <time>2022-05-24 13:53:26</time>
      </trkpt>
      <trkpt lat="40.99408" lon="0.55331">
        <ele>136</ele>
        <time>2022-05-24 13:53:27</time>
      </trkpt>
      <trkpt lat="40.99406" lon="0.55329">
        <ele>136.2</ele>
        <time>2022-05-24 13:53:28</time>
      </trkpt>
      <trkpt lat="40.99405" lon="0.55326">
        <ele>136.4</ele>
        <time>2022-05-24 13:53:29</time>
      </trkpt>
      <trkpt lat="40.99404" lon="0.55323">
        <ele>136.4</ele>
        <time>2022-05-24 13:53:30</time>
      </trkpt>
      <trkpt lat="40.99403" lon="0.5532">
        <ele>136.6</ele>
        <time>2022-05-24 13:53:31</time>
      </trkpt>
      <trkpt lat="40.99401" lon="0.55318">
        <ele>136.8</ele>
        <time>2022-05-24 13:53:32</time>
      </trkpt>
      <trkpt lat="40.994" lon="0.55315">
        <ele>137</ele>
        <time>2022-05-24 13:53:33</time>
      </trkpt>
      <trkpt lat="40.99399" lon="0.55312">
        <ele>137</ele>
        <time>2022-05-24 13:53:34</time>
      </trkpt>
      <trkpt lat="40.99398" lon="0.55309">
        <ele>137.2</ele>
        <time>2022-05-24 13:53:35</time>
      </trkpt>
      <trkpt lat="40.99396" lon="0.55306">
        <ele>137.4</ele>
        <time>2022-05-24 13:53:36</time>
      </trkpt>
      <trkpt lat="40.99395" lon="0.55303">
        <ele>137.4</ele>
        <time>2022-05-24 13:53:37</time>
      </trkpt>
      <trkpt lat="40.99393" lon="0.55301">
        <ele>137.6</ele>
        <time>2022-05-24 13:53:38</time>
      </trkpt>
      <trkpt lat="40.99392" lon="0.55298">
        <ele>137.8</ele>
        <time>2022-05-24 13:53:39</time>
      </trkpt>
      <trkpt lat="40.9939" lon="0.55295">
        <ele>137.8</ele>
        <time>2022-05-24 13:53:40</time>
      </trkpt>
      <trkpt lat="40.99389" lon="0.55292">
        <ele>138</ele>
        <time>2022-05-24 13:53:41</time>
      </trkpt>
      <trkpt lat="40.99388" lon="0.55289">
        <ele>138.2</ele>
        <time>2022-05-24 13:53:42</time>
      </trkpt>
      <trkpt lat="40.99387" lon="0.55286">
        <ele>138.2</ele>
        <time>2022-05-24 13:53:43</time>
      </trkpt>
      <trkpt lat="40.99387" lon="0.55282">
        <ele>138.4</ele>
        <time>2022-05-24 13:53:44</time>
      </trkpt>
      <trkpt lat="40.99386" lon="0.55278">
        <ele>138.4</ele>
        <time>2022-05-24 13:53:45</time>
      </trkpt>
      <trkpt lat="40.99384" lon="0.55275">
        <ele>138.6</ele>
        <time>2022-05-24 13:53:46</time>
      </trkpt>
      <trkpt lat="40.99383" lon="0.55272">
        <ele>138.8</ele>
        <time>2022-05-24 13:53:47</time>
      </trkpt>
      <trkpt lat="40.99382" lon="0.55268">
        <ele>138.8</ele>
        <time>2022-05-24 13:53:48</time>
      </trkpt>
      <trkpt lat="40.99381" lon="0.55265">
        <ele>139</ele>
        <time>2022-05-24 13:53:49</time>
      </trkpt>
      <trkpt lat="40.9938" lon="0.55262">
        <ele>139.2</ele>
        <time>2022-05-24 13:53:50</time>
      </trkpt>
      <trkpt lat="40.99379" lon="0.55259">
        <ele>139.4</ele>
        <time>2022-05-24 13:53:51</time>
      </trkpt>
      <trkpt lat="40.99378" lon="0.55256">
        <ele>139.6</ele>
        <time>2022-05-24 13:53:52</time>
      </trkpt>
      <trkpt lat="40.99377" lon="0.55253">
        <ele>139.6</ele>
        <time>2022-05-24 13:53:53</time>
      </trkpt>
      <trkpt lat="40.99377" lon="0.5525">
        <ele>139.8</ele>
        <time>2022-05-24 13:53:54</time>
      </trkpt>
      <trkpt lat="40.99376" lon="0.55247">
        <ele>140</ele>
        <time>2022-05-24 13:53:55</time>
      </trkpt>
      <trkpt lat="40.99376" lon="0.55244">
        <ele>140.2</ele>
        <time>2022-05-24 13:53:56</time>
      </trkpt>
      <trkpt lat="40.99375" lon="0.55241">
        <ele>140.4</ele>
        <time>2022-05-24 13:53:57</time>
      </trkpt>
      <trkpt lat="40.99375" lon="0.55238">
        <ele>140.4</ele>
        <time>2022-05-24 13:53:58</time>
      </trkpt>
      <trkpt lat="40.99374" lon="0.55236">
        <ele>140.6</ele>
        <time>2022-05-24 13:53:59</time>
      </trkpt>
      <trkpt lat="40.99374" lon="0.55233">
        <ele>140.8</ele>
        <time>2022-05-24 13:54:00</time>
      </trkpt>
      <trkpt lat="40.99374" lon="0.5523">
        <ele>141</ele>
        <time>2022-05-24 13:54:01</time>
      </trkpt>
      <trkpt lat="40.99373" lon="0.55228">
        <ele>141.2</ele>
        <time>2022-05-24 13:54:02</time>
      </trkpt>
      <trkpt lat="40.99372" lon="0.55225">
        <ele>141.2</ele>
        <time>2022-05-24 13:54:03</time>
      </trkpt>
      <trkpt lat="40.99372" lon="0.55223">
        <ele>141.4</ele>
        <time>2022-05-24 13:54:04</time>
      </trkpt>
      <trkpt lat="40.99372" lon="0.5522">
        <ele>141.6</ele>
        <time>2022-05-24 13:54:05</time>
      </trkpt>
      <trkpt lat="40.99372" lon="0.55217">
        <ele>141.8</ele>
        <time>2022-05-24 13:54:06</time>
      </trkpt>
      <trkpt lat="40.99371" lon="0.55214">
        <ele>141.8</ele>
        <time>2022-05-24 13:54:07</time>
      </trkpt>
      <trkpt lat="40.99371" lon="0.55212">
        <ele>142</ele>
        <time>2022-05-24 13:54:08</time>
      </trkpt>
      <trkpt lat="40.99371" lon="0.5521">
        <ele>142.2</ele>
        <time>2022-05-24 13:54:09</time>
      </trkpt>
      <trkpt lat="40.9937" lon="0.55206">
        <ele>142.2</ele>
        <time>2022-05-24 13:54:10</time>
      </trkpt>
      <trkpt lat="40.9937" lon="0.55203">
        <ele>142.4</ele>
        <time>2022-05-24 13:54:11</time>
      </trkpt>
      <trkpt lat="40.9937" lon="0.552">
        <ele>142.6</ele>
        <time>2022-05-24 13:54:12</time>
      </trkpt>
      <trkpt lat="40.9937" lon="0.55198">
        <ele>142.6</ele>
        <time>2022-05-24 13:54:13</time>
      </trkpt>
      <trkpt lat="40.9937" lon="0.55195">
        <ele>142.8</ele>
        <time>2022-05-24 13:54:14</time>
      </trkpt>
      <trkpt lat="40.9937" lon="0.55192">
        <ele>143</ele>
        <time>2022-05-24 13:54:15</time>
      </trkpt>
      <trkpt lat="40.9937" lon="0.55189">
        <ele>143</ele>
        <time>2022-05-24 13:54:16</time>
      </trkpt>
      <trkpt lat="40.99369" lon="0.55186">
        <ele>143.2</ele>
        <time>2022-05-24 13:54:17</time>
      </trkpt>
      <trkpt lat="40.99369" lon="0.55183">
        <ele>143.4</ele>
        <time>2022-05-24 13:54:18</time>
      </trkpt>
      <trkpt lat="40.99369" lon="0.55181">
        <ele>143.6</ele>
        <time>2022-05-24 13:54:19</time>
      </trkpt>
      <trkpt lat="40.99369" lon="0.55177">
        <ele>143.6</ele>
        <time>2022-05-24 13:54:20</time>
      </trkpt>
      <trkpt lat="40.9937" lon="0.55175">
        <ele>143.8</ele>
        <time>2022-05-24 13:54:21</time>
      </trkpt>
      <trkpt lat="40.9937" lon="0.55172">
        <ele>144</ele>
        <time>2022-05-24 13:54:22</time>
      </trkpt>
      <trkpt lat="40.9937" lon="0.55169">
        <ele>144.2</ele>
        <time>2022-05-24 13:54:23</time>
      </trkpt>
      <trkpt lat="40.9937" lon="0.55166">
        <ele>144.2</ele>
        <time>2022-05-24 13:54:24</time>
      </trkpt>
      <trkpt lat="40.9937" lon="0.55163">
        <ele>144.4</ele>
        <time>2022-05-24 13:54:25</time>
      </trkpt>
      <trkpt lat="40.99371" lon="0.5516">
        <ele>144.6</ele>
        <time>2022-05-24 13:54:26</time>
      </trkpt>
      <trkpt lat="40.99371" lon="0.55157">
        <ele>144.6</ele>
        <time>2022-05-24 13:54:27</time>
      </trkpt>
      <trkpt lat="40.99371" lon="0.55154">
        <ele>144.8</ele>
        <time>2022-05-24 13:54:28</time>
      </trkpt>
      <trkpt lat="40.99371" lon="0.55151">
        <ele>145</ele>
        <time>2022-05-24 13:54:29</time>
      </trkpt>
      <trkpt lat="40.99371" lon="0.55148">
        <ele>145.2</ele>
        <time>2022-05-24 13:54:30</time>
      </trkpt>
      <trkpt lat="40.99372" lon="0.55146">
        <ele>145.2</ele>
        <time>2022-05-24 13:54:31</time>
      </trkpt>
      <trkpt lat="40.99372" lon="0.55143">
        <ele>145.4</ele>
        <time>2022-05-24 13:54:32</time>
      </trkpt>
      <trkpt lat="40.99372" lon="0.5514">
        <ele>145.6</ele>
        <time>2022-05-24 13:54:33</time>
      </trkpt>
      <trkpt lat="40.99373" lon="0.55137">
        <ele>145.8</ele>
        <time>2022-05-24 13:54:34</time>
      </trkpt>
      <trkpt lat="40.99373" lon="0.55134">
        <ele>145.8</ele>
        <time>2022-05-24 13:54:35</time>
      </trkpt>
      <trkpt lat="40.99374" lon="0.55131">
        <ele>146</ele>
        <time>2022-05-24 13:54:36</time>
      </trkpt>
      <trkpt lat="40.99374" lon="0.55128">
        <ele>146.2</ele>
        <time>2022-05-24 13:54:37</time>
      </trkpt>
      <trkpt lat="40.99375" lon="0.55125">
        <ele>146.4</ele>
        <time>2022-05-24 13:54:38</time>
      </trkpt>
      <trkpt lat="40.99376" lon="0.55121">
        <ele>146.6</ele>
        <time>2022-05-24 13:54:39</time>
      </trkpt>
      <trkpt lat="40.99376" lon="0.55118">
        <ele>146.6</ele>
        <time>2022-05-24 13:54:40</time>
      </trkpt>
      <trkpt lat="40.99377" lon="0.55115">
        <ele>146.8</ele>
        <time>2022-05-24 13:54:41</time>
      </trkpt>
      <trkpt lat="40.99378" lon="0.55112">
        <ele>147</ele>
        <time>2022-05-24 13:54:42</time>
      </trkpt>
      <trkpt lat="40.99378" lon="0.55108">
        <ele>147.2</ele>
        <time>2022-05-24 13:54:43</time>
      </trkpt>
      <trkpt lat="40.99379" lon="0.55105">
        <ele>147.4</ele>
        <time>2022-05-24 13:54:44</time>
      </trkpt>
      <trkpt lat="40.9938" lon="0.55102">
        <ele>147.6</ele>
        <time>2022-05-24 13:54:45</time>
      </trkpt>
      <trkpt lat="40.9938" lon="0.55099">
        <ele>147.6</ele>
        <time>2022-05-24 13:54:46</time>
      </trkpt>
      <trkpt lat="40.99381" lon="0.55095">
        <ele>147.8</ele>
        <time>2022-05-24 13:54:47</time>
      </trkpt>
      <trkpt lat="40.99382" lon="0.55092">
        <ele>148</ele>
        <time>2022-05-24 13:54:48</time>
      </trkpt>
      <trkpt lat="40.99384" lon="0.55088">
        <ele>148.2</ele>
        <time>2022-05-24 13:54:49</time>
      </trkpt>
      <trkpt lat="40.99385" lon="0.55085">
        <ele>148.4</ele>
        <time>2022-05-24 13:54:50</time>
      </trkpt>
      <trkpt lat="40.99386" lon="0.55082">
        <ele>148.4</ele>
        <time>2022-05-24 13:54:51</time>
      </trkpt>
      <trkpt lat="40.99387" lon="0.55078">
        <ele>148.6</ele>
        <time>2022-05-24 13:54:52</time>
      </trkpt>
      <trkpt lat="40.99388" lon="0.55075">
        <ele>148.8</ele>
        <time>2022-05-24 13:54:53</time>
      </trkpt>
      <trkpt lat="40.99389" lon="0.55072">
        <ele>149</ele>
        <time>2022-05-24 13:54:54</time>
      </trkpt>
      <trkpt lat="40.9939" lon="0.55068">
        <ele>149</ele>
        <time>2022-05-24 13:54:55</time>
      </trkpt>
      <trkpt lat="40.99392" lon="0.55065">
        <ele>149.2</ele>
        <time>2022-05-24 13:54:56</time>
      </trkpt>
      <trkpt lat="40.99393" lon="0.55062">
        <ele>149.4</ele>
        <time>2022-05-24 13:54:57</time>
      </trkpt>
      <trkpt lat="40.99394" lon="0.55058">
        <ele>149.4</ele>
        <time>2022-05-24 13:54:58</time>
      </trkpt>
      <trkpt lat="40.99395" lon="0.55054">
        <ele>149.6</ele>
        <time>2022-05-24 13:54:59</time>
      </trkpt>
      <trkpt lat="40.99396" lon="0.55051">
        <ele>149.8</ele>
        <time>2022-05-24 13:55:00</time>
      </trkpt>
      <trkpt lat="40.99398" lon="0.55048">
        <ele>150</ele>
        <time>2022-05-24 13:55:01</time>
      </trkpt>
      <trkpt lat="40.99399" lon="0.55045">
        <ele>150.2</ele>
        <time>2022-05-24 13:55:02</time>
      </trkpt>
      <trkpt lat="40.994" lon="0.55041">
        <ele>150.2</ele>
        <time>2022-05-24 13:55:03</time>
      </trkpt>
      <trkpt lat="40.99402" lon="0.55038">
        <ele>150.4</ele>
        <time>2022-05-24 13:55:04</time>
      </trkpt>
      <trkpt lat="40.99403" lon="0.55035">
        <ele>150.6</ele>
        <time>2022-05-24 13:55:05</time>
      </trkpt>
      <trkpt lat="40.99404" lon="0.55033">
        <ele>150.8</ele>
        <time>2022-05-24 13:55:06</time>
      </trkpt>
      <trkpt lat="40.99405" lon="0.55029">
        <ele>150.8</ele>
        <time>2022-05-24 13:55:07</time>
      </trkpt>
      <trkpt lat="40.99406" lon="0.55026">
        <ele>151</ele>
        <time>2022-05-24 13:55:08</time>
      </trkpt>
      <trkpt lat="40.99408" lon="0.55023">
        <ele>151.2</ele>
        <time>2022-05-24 13:55:09</time>
      </trkpt>
      <trkpt lat="40.99409" lon="0.55021">
        <ele>151.2</ele>
        <time>2022-05-24 13:55:10</time>
      </trkpt>
      <trkpt lat="40.9941" lon="0.55017">
        <ele>151.2</ele>
        <time>2022-05-24 13:55:11</time>
      </trkpt>
      <trkpt lat="40.99412" lon="0.55014">
        <ele>151.4</ele>
        <time>2022-05-24 13:55:12</time>
      </trkpt>
      <trkpt lat="40.99413" lon="0.55011">
        <ele>151.6</ele>
        <time>2022-05-24 13:55:13</time>
      </trkpt>
      <trkpt lat="40.99414" lon="0.55008">
        <ele>151.6</ele>
        <time>2022-05-24 13:55:14</time>
      </trkpt>
      <trkpt lat="40.99415" lon="0.55005">
        <ele>151.8</ele>
        <time>2022-05-24 13:55:15</time>
      </trkpt>
      <trkpt lat="40.99416" lon="0.55001">
        <ele>152</ele>
        <time>2022-05-24 13:55:16</time>
      </trkpt>
      <trkpt lat="40.99417" lon="0.54998">
        <ele>152.2</ele>
        <time>2022-05-24 13:55:17</time>
      </trkpt>
      <trkpt lat="40.99419" lon="0.54995">
        <ele>152.2</ele>
        <time>2022-05-24 13:55:18</time>
      </trkpt>
      <trkpt lat="40.99419" lon="0.54992">
        <ele>152.4</ele>
        <time>2022-05-24 13:55:19</time>
      </trkpt>
      <trkpt lat="40.9942" lon="0.54988">
        <ele>152.6</ele>
        <time>2022-05-24 13:55:20</time>
      </trkpt>
      <trkpt lat="40.99421" lon="0.54985">
        <ele>152.6</ele>
        <time>2022-05-24 13:55:21</time>
      </trkpt>
      <trkpt lat="40.99422" lon="0.54981">
        <ele>152.8</ele>
        <time>2022-05-24 13:55:22</time>
      </trkpt>
      <trkpt lat="40.99423" lon="0.54977">
        <ele>152.8</ele>
        <time>2022-05-24 13:55:23</time>
      </trkpt>
      <trkpt lat="40.99424" lon="0.54974">
        <ele>153</ele>
        <time>2022-05-24 13:55:24</time>
      </trkpt>
      <trkpt lat="40.99426" lon="0.5497">
        <ele>153.2</ele>
        <time>2022-05-24 13:55:25</time>
      </trkpt>
      <trkpt lat="40.99426" lon="0.54966">
        <ele>153.2</ele>
        <time>2022-05-24 13:55:26</time>
      </trkpt>
      <trkpt lat="40.99427" lon="0.54962">
        <ele>153.4</ele>
        <time>2022-05-24 13:55:27</time>
      </trkpt>
      <trkpt lat="40.99428" lon="0.54958">
        <ele>153.4</ele>
        <time>2022-05-24 13:55:28</time>
      </trkpt>
      <trkpt lat="40.99429" lon="0.54954">
        <ele>153.6</ele>
        <time>2022-05-24 13:55:29</time>
      </trkpt>
      <trkpt lat="40.99429" lon="0.5495">
        <ele>153.6</ele>
        <time>2022-05-24 13:55:30</time>
      </trkpt>
      <trkpt lat="40.9943" lon="0.54946">
        <ele>153.8</ele>
        <time>2022-05-24 13:55:31</time>
      </trkpt>
      <trkpt lat="40.99431" lon="0.54942">
        <ele>154</ele>
        <time>2022-05-24 13:55:32</time>
      </trkpt>
      <trkpt lat="40.99431" lon="0.54938">
        <ele>154</ele>
        <time>2022-05-24 13:55:33</time>
      </trkpt>
      <trkpt lat="40.99432" lon="0.54934">
        <ele>154</ele>
        <time>2022-05-24 13:55:34</time>
      </trkpt>
      <trkpt lat="40.99432" lon="0.54929">
        <ele>154.2</ele>
        <time>2022-05-24 13:55:35</time>
      </trkpt>
      <trkpt lat="40.99432" lon="0.54925">
        <ele>154.2</ele>
        <time>2022-05-24 13:55:36</time>
      </trkpt>
      <trkpt lat="40.99432" lon="0.54921">
        <ele>154.4</ele>
        <time>2022-05-24 13:55:37</time>
      </trkpt>
      <trkpt lat="40.99432" lon="0.54916">
        <ele>154.4</ele>
        <time>2022-05-24 13:55:38</time>
      </trkpt>
      <trkpt lat="40.99433" lon="0.54911">
        <ele>154.4</ele>
        <time>2022-05-24 13:55:39</time>
      </trkpt>
      <trkpt lat="40.99433" lon="0.54906">
        <ele>154.6</ele>
        <time>2022-05-24 13:55:40</time>
      </trkpt>
      <trkpt lat="40.99433" lon="0.54901">
        <ele>154.6</ele>
        <time>2022-05-24 13:55:41</time>
      </trkpt>
      <trkpt lat="40.99433" lon="0.54896">
        <ele>154.8</ele>
        <time>2022-05-24 13:55:42</time>
      </trkpt>
      <trkpt lat="40.99433" lon="0.54891">
        <ele>154.8</ele>
        <time>2022-05-24 13:55:43</time>
      </trkpt>
      <trkpt lat="40.99433" lon="0.54885">
        <ele>154.8</ele>
        <time>2022-05-24 13:55:44</time>
      </trkpt>
      <trkpt lat="40.99433" lon="0.54881">
        <ele>155</ele>
        <time>2022-05-24 13:55:45</time>
      </trkpt>
      <trkpt lat="40.99432" lon="0.54876">
        <ele>155</ele>
        <time>2022-05-24 13:55:46</time>
      </trkpt>
      <trkpt lat="40.99432" lon="0.54871">
        <ele>155</ele>
        <time>2022-05-24 13:55:47</time>
      </trkpt>
      <trkpt lat="40.99431" lon="0.54866">
        <ele>155</ele>
        <time>2022-05-24 13:55:48</time>
      </trkpt>
      <trkpt lat="40.99431" lon="0.54861">
        <ele>155.2</ele>
        <time>2022-05-24 13:55:49</time>
      </trkpt>
      <trkpt lat="40.9943" lon="0.54857">
        <ele>155.2</ele>
        <time>2022-05-24 13:55:50</time>
      </trkpt>
      <trkpt lat="40.99429" lon="0.54851">
        <ele>155.2</ele>
        <time>2022-05-24 13:55:51</time>
      </trkpt>
      <trkpt lat="40.99428" lon="0.54846">
        <ele>155.4</ele>
        <time>2022-05-24 13:55:52</time>
      </trkpt>
      <trkpt lat="40.99427" lon="0.54841">
        <ele>155.4</ele>
        <time>2022-05-24 13:55:53</time>
      </trkpt>
      <trkpt lat="40.99426" lon="0.54836">
        <ele>155.4</ele>
        <time>2022-05-24 13:55:54</time>
      </trkpt>
      <trkpt lat="40.99425" lon="0.5483">
        <ele>155.4</ele>
        <time>2022-05-24 13:55:55</time>
      </trkpt>
      <trkpt lat="40.99424" lon="0.54825">
        <ele>155.4</ele>
        <time>2022-05-24 13:55:56</time>
      </trkpt>
      <trkpt lat="40.99422" lon="0.54819">
        <ele>155.4</ele>
        <time>2022-05-24 13:55:57</time>
      </trkpt>
      <trkpt lat="40.9942" lon="0.54814">
        <ele>155.4</ele>
        <time>2022-05-24 13:55:58</time>
      </trkpt>
      <trkpt lat="40.99419" lon="0.54808">
        <ele>155.4</ele>
        <time>2022-05-24 13:55:59</time>
      </trkpt>
      <trkpt lat="40.99416" lon="0.54803">
        <ele>155.4</ele>
        <time>2022-05-24 13:56:00</time>
      </trkpt>
      <trkpt lat="40.99414" lon="0.54798">
        <ele>155.4</ele>
        <time>2022-05-24 13:56:01</time>
      </trkpt>
      <trkpt lat="40.99412" lon="0.54793">
        <ele>155.4</ele>
        <time>2022-05-24 13:56:02</time>
      </trkpt>
      <trkpt lat="40.9941" lon="0.54787">
        <ele>155.2</ele>
        <time>2022-05-24 13:56:03</time>
      </trkpt>
      <trkpt lat="40.99408" lon="0.54781">
        <ele>155.2</ele>
        <time>2022-05-24 13:56:04</time>
      </trkpt>
      <trkpt lat="40.99405" lon="0.54776">
        <ele>155.2</ele>
        <time>2022-05-24 13:56:05</time>
      </trkpt>
      <trkpt lat="40.99403" lon="0.5477">
        <ele>155.2</ele>
        <time>2022-05-24 13:56:06</time>
      </trkpt>
      <trkpt lat="40.994" lon="0.54765">
        <ele>155</ele>
        <time>2022-05-24 13:56:07</time>
      </trkpt>
      <trkpt lat="40.99397" lon="0.54759">
        <ele>155</ele>
        <time>2022-05-24 13:56:08</time>
      </trkpt>
      <trkpt lat="40.99394" lon="0.54754">
        <ele>155</ele>
        <time>2022-05-24 13:56:09</time>
      </trkpt>
      <trkpt lat="40.99391" lon="0.54748">
        <ele>154.8</ele>
        <time>2022-05-24 13:56:10</time>
      </trkpt>
      <trkpt lat="40.99387" lon="0.54743">
        <ele>154.6</ele>
        <time>2022-05-24 13:56:11</time>
      </trkpt>
      <trkpt lat="40.99384" lon="0.54738">
        <ele>154.6</ele>
        <time>2022-05-24 13:56:12</time>
      </trkpt>
      <trkpt lat="40.99381" lon="0.54733">
        <ele>154.4</ele>
        <time>2022-05-24 13:56:13</time>
      </trkpt>
      <trkpt lat="40.99377" lon="0.54728">
        <ele>154.4</ele>
        <time>2022-05-24 13:56:14</time>
      </trkpt>
      <trkpt lat="40.99372" lon="0.54723">
        <ele>154.2</ele>
        <time>2022-05-24 13:56:15</time>
      </trkpt>
      <trkpt lat="40.99368" lon="0.54717">
        <ele>154</ele>
        <time>2022-05-24 13:56:16</time>
      </trkpt>
      <trkpt lat="40.99363" lon="0.54713">
        <ele>154</ele>
        <time>2022-05-24 13:56:17</time>
      </trkpt>
      <trkpt lat="40.99359" lon="0.54708">
        <ele>153.8</ele>
        <time>2022-05-24 13:56:18</time>
      </trkpt>
      <trkpt lat="40.99353" lon="0.54703">
        <ele>153.4</ele>
        <time>2022-05-24 13:56:19</time>
      </trkpt>
      <trkpt lat="40.99348" lon="0.54698">
        <ele>153.2</ele>
        <time>2022-05-24 13:56:20</time>
      </trkpt>
      <trkpt lat="40.99343" lon="0.54694">
        <ele>153</ele>
        <time>2022-05-24 13:56:21</time>
      </trkpt>
      <trkpt lat="40.99337" lon="0.54689">
        <ele>152.8</ele>
        <time>2022-05-24 13:56:22</time>
      </trkpt>
      <trkpt lat="40.99331" lon="0.54684">
        <ele>152.4</ele>
        <time>2022-05-24 13:56:23</time>
      </trkpt>
      <trkpt lat="40.99325" lon="0.54679">
        <ele>152.2</ele>
        <time>2022-05-24 13:56:24</time>
      </trkpt>
      <trkpt lat="40.99319" lon="0.54674">
        <ele>152</ele>
        <time>2022-05-24 13:56:25</time>
      </trkpt>
      <trkpt lat="40.99313" lon="0.54669">
        <ele>151.6</ele>
        <time>2022-05-24 13:56:26</time>
      </trkpt>
      <trkpt lat="40.99306" lon="0.54664">
        <ele>151.2</ele>
        <time>2022-05-24 13:56:27</time>
      </trkpt>
      <trkpt lat="40.99299" lon="0.54658">
        <ele>150.8</ele>
        <time>2022-05-24 13:56:28</time>
      </trkpt>
      <trkpt lat="40.99293" lon="0.54653">
        <ele>150.6</ele>
        <time>2022-05-24 13:56:29</time>
      </trkpt>
      <trkpt lat="40.99286" lon="0.54647">
        <ele>150.2</ele>
        <time>2022-05-24 13:56:30</time>
      </trkpt>
      <trkpt lat="40.99278" lon="0.54639">
        <ele>149.8</ele>
        <time>2022-05-24 13:56:31</time>
      </trkpt>
      <trkpt lat="40.99271" lon="0.54631">
        <ele>149.4</ele>
        <time>2022-05-24 13:56:32</time>
      </trkpt>
      <trkpt lat="40.99263" lon="0.54623">
        <ele>148.8</ele>
        <time>2022-05-24 13:56:33</time>
      </trkpt>
      <trkpt lat="40.99256" lon="0.54615">
        <ele>148</ele>
        <time>2022-05-24 13:56:34</time>
      </trkpt>
      <trkpt lat="40.99249" lon="0.54606">
        <ele>147.4</ele>
        <time>2022-05-24 13:56:35</time>
      </trkpt>
      <trkpt lat="40.99241" lon="0.54597">
        <ele>146.8</ele>
        <time>2022-05-24 13:56:36</time>
      </trkpt>
      <trkpt lat="40.99235" lon="0.54586">
        <ele>146</ele>
        <time>2022-05-24 13:56:37</time>
      </trkpt>
      <trkpt lat="40.99228" lon="0.54576">
        <ele>145.4</ele>
        <time>2022-05-24 13:56:38</time>
      </trkpt>
      <trkpt lat="40.99222" lon="0.54565">
        <ele>144.8</ele>
        <time>2022-05-24 13:56:39</time>
      </trkpt>
      <trkpt lat="40.99216" lon="0.54553">
        <ele>144.2</ele>
        <time>2022-05-24 13:56:40</time>
      </trkpt>
      <trkpt lat="40.99211" lon="0.54541">
        <ele>143.6</ele>
        <time>2022-05-24 13:56:41</time>
      </trkpt>
      <trkpt lat="40.99206" lon="0.54528">
        <ele>143</ele>
        <time>2022-05-24 13:56:42</time>
      </trkpt>
      <trkpt lat="40.99202" lon="0.54516">
        <ele>142.2</ele>
        <time>2022-05-24 13:56:43</time>
      </trkpt>
      <trkpt lat="40.99198" lon="0.54501">
        <ele>141.6</ele>
        <time>2022-05-24 13:56:44</time>
      </trkpt>
      <trkpt lat="40.99193" lon="0.54487">
        <ele>140.8</ele>
        <time>2022-05-24 13:56:45</time>
      </trkpt>
      <trkpt lat="40.99189" lon="0.54473">
        <ele>140</ele>
        <time>2022-05-24 13:56:46</time>
      </trkpt>
      <trkpt lat="40.99185" lon="0.54459">
        <ele>139.4</ele>
        <time>2022-05-24 13:56:47</time>
      </trkpt>
      <trkpt lat="40.99181" lon="0.54445">
        <ele>138.8</ele>
        <time>2022-05-24 13:56:48</time>
      </trkpt>
      <trkpt lat="40.99176" lon="0.54431">
        <ele>138</ele>
        <time>2022-05-24 13:56:49</time>
      </trkpt>
      <trkpt lat="40.99172" lon="0.54416">
        <ele>137.4</ele>
        <time>2022-05-24 13:56:50</time>
      </trkpt>
      <trkpt lat="40.99167" lon="0.54403">
        <ele>136.8</ele>
        <time>2022-05-24 13:56:51</time>
      </trkpt>
      <trkpt lat="40.99162" lon="0.54389">
        <ele>136</ele>
        <time>2022-05-24 13:56:52</time>
      </trkpt>
      <trkpt lat="40.99156" lon="0.54375">
        <ele>135.4</ele>
        <time>2022-05-24 13:56:53</time>
      </trkpt>
      <trkpt lat="40.9915" lon="0.54363">
        <ele>134.6</ele>
        <time>2022-05-24 13:56:54</time>
      </trkpt>
      <trkpt lat="40.99143" lon="0.54349">
        <ele>133.8</ele>
        <time>2022-05-24 13:56:55</time>
      </trkpt>
      <trkpt lat="40.99136" lon="0.54337">
        <ele>133</ele>
        <time>2022-05-24 13:56:56</time>
      </trkpt>
      <trkpt lat="40.99128" lon="0.54325">
        <ele>132.4</ele>
        <time>2022-05-24 13:56:57</time>
      </trkpt>
      <trkpt lat="40.9912" lon="0.54313">
        <ele>132</ele>
        <time>2022-05-24 13:56:58</time>
      </trkpt>
      <trkpt lat="40.99111" lon="0.54301">
        <ele>131.6</ele>
        <time>2022-05-24 13:56:59</time>
      </trkpt>
      <trkpt lat="40.99103" lon="0.54289">
        <ele>131</ele>
        <time>2022-05-24 13:57:00</time>
      </trkpt>
      <trkpt lat="40.99094" lon="0.54277">
        <ele>130.4</ele>
        <time>2022-05-24 13:57:01</time>
      </trkpt>
      <trkpt lat="40.99085" lon="0.54265">
        <ele>129.2</ele>
        <time>2022-05-24 13:57:02</time>
      </trkpt>
      <trkpt lat="40.99076" lon="0.54253">
        <ele>128.2</ele>
        <time>2022-05-24 13:57:03</time>
      </trkpt>
      <trkpt lat="40.99067" lon="0.54242">
        <ele>127.4</ele>
        <time>2022-05-24 13:57:04</time>
      </trkpt>
      <trkpt lat="40.99057" lon="0.54231">
        <ele>127</ele>
        <time>2022-05-24 13:57:05</time>
      </trkpt>
      <trkpt lat="40.99047" lon="0.5422">
        <ele>126.2</ele>
        <time>2022-05-24 13:57:06</time>
      </trkpt>
      <trkpt lat="40.99037" lon="0.54208">
        <ele>125.6</ele>
        <time>2022-05-24 13:57:07</time>
      </trkpt>
      <trkpt lat="40.99027" lon="0.54197">
        <ele>125.2</ele>
        <time>2022-05-24 13:57:08</time>
      </trkpt>
      <trkpt lat="40.99016" lon="0.54187">
        <ele>124.2</ele>
        <time>2022-05-24 13:57:09</time>
      </trkpt>
      <trkpt lat="40.99006" lon="0.54176">
        <ele>123.4</ele>
        <time>2022-05-24 13:57:10</time>
      </trkpt>
      <trkpt lat="40.98995" lon="0.54165">
        <ele>122.6</ele>
        <time>2022-05-24 13:57:11</time>
      </trkpt>
      <trkpt lat="40.98983" lon="0.54154">
        <ele>121.6</ele>
        <time>2022-05-24 13:57:12</time>
      </trkpt>
      <trkpt lat="40.98971" lon="0.54143">
        <ele>120.6</ele>
        <time>2022-05-24 13:57:13</time>
      </trkpt>
      <trkpt lat="40.98961" lon="0.54133">
        <ele>119.8</ele>
        <time>2022-05-24 13:57:14</time>
      </trkpt>
      <trkpt lat="40.98949" lon="0.54122">
        <ele>119</ele>
        <time>2022-05-24 13:57:15</time>
      </trkpt>
      <trkpt lat="40.98938" lon="0.54112">
        <ele>118</ele>
        <time>2022-05-24 13:57:16</time>
      </trkpt>
      <trkpt lat="40.98925" lon="0.54101">
        <ele>117</ele>
        <time>2022-05-24 13:57:17</time>
      </trkpt>
      <trkpt lat="40.98914" lon="0.5409">
        <ele>116</ele>
        <time>2022-05-24 13:57:18</time>
      </trkpt>
      <trkpt lat="40.98903" lon="0.54077">
        <ele>115</ele>
        <time>2022-05-24 13:57:19</time>
      </trkpt>
      <trkpt lat="40.98892" lon="0.54064">
        <ele>114.2</ele>
        <time>2022-05-24 13:57:20</time>
      </trkpt>
      <trkpt lat="40.98882" lon="0.54052">
        <ele>113.4</ele>
        <time>2022-05-24 13:57:21</time>
      </trkpt>
      <trkpt lat="40.98872" lon="0.54038">
        <ele>112.2</ele>
        <time>2022-05-24 13:57:22</time>
      </trkpt>
      <trkpt lat="40.98863" lon="0.54025">
        <ele>111.4</ele>
        <time>2022-05-24 13:57:23</time>
      </trkpt>
      <trkpt lat="40.98853" lon="0.5401">
        <ele>110.4</ele>
        <time>2022-05-24 13:57:24</time>
      </trkpt>
      <trkpt lat="40.98845" lon="0.53997">
        <ele>109.6</ele>
        <time>2022-05-24 13:57:25</time>
      </trkpt>
      <trkpt lat="40.98836" lon="0.53982">
        <ele>109</ele>
        <time>2022-05-24 13:57:26</time>
      </trkpt>
      <trkpt lat="40.98828" lon="0.53968">
        <ele>108.2</ele>
        <time>2022-05-24 13:57:27</time>
      </trkpt>
      <trkpt lat="40.98819" lon="0.53953">
        <ele>107.6</ele>
        <time>2022-05-24 13:57:28</time>
      </trkpt>
      <trkpt lat="40.98811" lon="0.5394">
        <ele>107</ele>
        <time>2022-05-24 13:57:29</time>
      </trkpt>
      <trkpt lat="40.98802" lon="0.53925">
        <ele>106.4</ele>
        <time>2022-05-24 13:57:30</time>
      </trkpt>
      <trkpt lat="40.98794" lon="0.53912">
        <ele>105.8</ele>
        <time>2022-05-24 13:57:31</time>
      </trkpt>
      <trkpt lat="40.98784" lon="0.53899">
        <ele>105.2</ele>
        <time>2022-05-24 13:57:32</time>
      </trkpt>
      <trkpt lat="40.98774" lon="0.53886">
        <ele>104.4</ele>
        <time>2022-05-24 13:57:33</time>
      </trkpt>
      <trkpt lat="40.98763" lon="0.53874">
        <ele>103.2</ele>
        <time>2022-05-24 13:57:34</time>
      </trkpt>
      <trkpt lat="40.98752" lon="0.53863">
        <ele>102</ele>
        <time>2022-05-24 13:57:35</time>
      </trkpt>
      <trkpt lat="40.98741" lon="0.53852">
        <ele>101.2</ele>
        <time>2022-05-24 13:57:36</time>
      </trkpt>
      <trkpt lat="40.9873" lon="0.53843">
        <ele>100.2</ele>
        <time>2022-05-24 13:57:37</time>
      </trkpt>
      <trkpt lat="40.98718" lon="0.53835">
        <ele>99.4</ele>
        <time>2022-05-24 13:57:38</time>
      </trkpt>
      <trkpt lat="40.98706" lon="0.53828">
        <ele>98.8</ele>
        <time>2022-05-24 13:57:39</time>
      </trkpt>
      <trkpt lat="40.98692" lon="0.5382">
        <ele>98.2</ele>
        <time>2022-05-24 13:57:40</time>
      </trkpt>
      <trkpt lat="40.98678" lon="0.53814">
        <ele>97.4</ele>
        <time>2022-05-24 13:57:41</time>
      </trkpt>
      <trkpt lat="40.98667" lon="0.5381">
        <ele>97</ele>
        <time>2022-05-24 13:57:42</time>
      </trkpt>
      <trkpt lat="40.98653" lon="0.53805">
        <ele>96.2</ele>
        <time>2022-05-24 13:57:43</time>
      </trkpt>
      <trkpt lat="40.98639" lon="0.538">
        <ele>95</ele>
        <time>2022-05-24 13:57:44</time>
      </trkpt>
      <trkpt lat="40.98627" lon="0.53796">
        <ele>94.2</ele>
        <time>2022-05-24 13:57:45</time>
      </trkpt>
      <trkpt lat="40.98613" lon="0.53791">
        <ele>93</ele>
        <time>2022-05-24 13:57:46</time>
      </trkpt>
      <trkpt lat="40.98601" lon="0.53788">
        <ele>92.2</ele>
        <time>2022-05-24 13:57:47</time>
      </trkpt>
      <trkpt lat="40.98587" lon="0.53783">
        <ele>91.4</ele>
        <time>2022-05-24 13:57:48</time>
      </trkpt>
      <trkpt lat="40.98574" lon="0.53778">
        <ele>90.6</ele>
        <time>2022-05-24 13:57:49</time>
      </trkpt>
      <trkpt lat="40.98561" lon="0.53773">
        <ele>89.8</ele>
        <time>2022-05-24 13:57:50</time>
      </trkpt>
      <trkpt lat="40.98549" lon="0.53767">
        <ele>88.8</ele>
        <time>2022-05-24 13:57:51</time>
      </trkpt>
      <trkpt lat="40.98537" lon="0.5376">
        <ele>88</ele>
        <time>2022-05-24 13:57:52</time>
      </trkpt>
      <trkpt lat="40.98524" lon="0.5375">
        <ele>87.2</ele>
        <time>2022-05-24 13:57:53</time>
      </trkpt>
      <trkpt lat="40.98513" lon="0.5374">
        <ele>86.2</ele>
        <time>2022-05-24 13:57:54</time>
      </trkpt>
      <trkpt lat="40.98501" lon="0.5373">
        <ele>85.2</ele>
        <time>2022-05-24 13:57:55</time>
      </trkpt>
      <trkpt lat="40.98492" lon="0.5372">
        <ele>84.4</ele>
        <time>2022-05-24 13:57:56</time>
      </trkpt>
      <trkpt lat="40.98481" lon="0.53709">
        <ele>83.6</ele>
        <time>2022-05-24 13:57:57</time>
      </trkpt>
      <trkpt lat="40.98471" lon="0.53698">
        <ele>82.8</ele>
        <time>2022-05-24 13:57:58</time>
      </trkpt>
      <trkpt lat="40.9846" lon="0.53685">
        <ele>82</ele>
        <time>2022-05-24 13:57:59</time>
      </trkpt>
      <trkpt lat="40.98449" lon="0.53674">
        <ele>81</ele>
        <time>2022-05-24 13:58:00</time>
      </trkpt>
      <trkpt lat="40.98439" lon="0.53663">
        <ele>80.2</ele>
        <time>2022-05-24 13:58:01</time>
      </trkpt>
      <trkpt lat="40.98429" lon="0.53652">
        <ele>79.4</ele>
        <time>2022-05-24 13:58:02</time>
      </trkpt>
      <trkpt lat="40.98418" lon="0.53642">
        <ele>78.6</ele>
        <time>2022-05-24 13:58:03</time>
      </trkpt>
      <trkpt lat="40.98406" lon="0.5363">
        <ele>77.8</ele>
        <time>2022-05-24 13:58:04</time>
      </trkpt>
      <trkpt lat="40.98396" lon="0.53621">
        <ele>77.2</ele>
        <time>2022-05-24 13:58:05</time>
      </trkpt>
      <trkpt lat="40.98385" lon="0.53612">
        <ele>76.2</ele>
        <time>2022-05-24 13:58:06</time>
      </trkpt>
      <trkpt lat="40.98373" lon="0.53602">
        <ele>75.2</ele>
        <time>2022-05-24 13:58:07</time>
      </trkpt>
      <trkpt lat="40.98359" lon="0.53591">
        <ele>74.4</ele>
        <time>2022-05-24 13:58:08</time>
      </trkpt>
      <trkpt lat="40.9835" lon="0.53584">
        <ele>73.6</ele>
        <time>2022-05-24 13:58:09</time>
      </trkpt>
      <trkpt lat="40.98334" lon="0.53574">
        <ele>72.4</ele>
        <time>2022-05-24 13:58:10</time>
      </trkpt>
      <trkpt lat="40.98322" lon="0.53565">
        <ele>71.2</ele>
        <time>2022-05-24 13:58:11</time>
      </trkpt>
      <trkpt lat="40.98311" lon="0.53557">
        <ele>70.4</ele>
        <time>2022-05-24 13:58:12</time>
      </trkpt>
      <trkpt lat="40.98297" lon="0.53546">
        <ele>69.4</ele>
        <time>2022-05-24 13:58:13</time>
      </trkpt>
      <trkpt lat="40.98287" lon="0.53539">
        <ele>68.2</ele>
        <time>2022-05-24 13:58:14</time>
      </trkpt>
      <trkpt lat="40.98273" lon="0.53526">
        <ele>67.2</ele>
        <time>2022-05-24 13:58:15</time>
      </trkpt>
      <trkpt lat="40.98263" lon="0.53515">
        <ele>66.4</ele>
        <time>2022-05-24 13:58:16</time>
      </trkpt>
      <trkpt lat="40.98251" lon="0.535">
        <ele>65.2</ele>
        <time>2022-05-24 13:58:17</time>
      </trkpt>
      <trkpt lat="40.98242" lon="0.53488">
        <ele>64.4</ele>
        <time>2022-05-24 13:58:18</time>
      </trkpt>
      <trkpt lat="40.98233" lon="0.53473">
        <ele>63.4</ele>
        <time>2022-05-24 13:58:19</time>
      </trkpt>
      <trkpt lat="40.98226" lon="0.53459">
        <ele>62.6</ele>
        <time>2022-05-24 13:58:20</time>
      </trkpt>
      <trkpt lat="40.98218" lon="0.53443">
        <ele>61.8</ele>
        <time>2022-05-24 13:58:21</time>
      </trkpt>
      <trkpt lat="40.98212" lon="0.53424">
        <ele>61</ele>
        <time>2022-05-24 13:58:22</time>
      </trkpt>
      <trkpt lat="40.98208" lon="0.53409">
        <ele>60.6</ele>
        <time>2022-05-24 13:58:23</time>
      </trkpt>
      <trkpt lat="40.98204" lon="0.53392">
        <ele>60.2</ele>
        <time>2022-05-24 13:58:24</time>
      </trkpt>
      <trkpt lat="40.98201" lon="0.53377">
        <ele>59.8</ele>
        <time>2022-05-24 13:58:25</time>
      </trkpt>
      <trkpt lat="40.98199" lon="0.53359">
        <ele>59.6</ele>
        <time>2022-05-24 13:58:26</time>
      </trkpt>
      <trkpt lat="40.98199" lon="0.53346">
        <ele>59.4</ele>
        <time>2022-05-24 13:58:27</time>
      </trkpt>
      <trkpt lat="40.98198" lon="0.53328">
        <ele>59.4</ele>
        <time>2022-05-24 13:58:28</time>
      </trkpt>
      <trkpt lat="40.98199" lon="0.53313">
        <ele>59.4</ele>
        <time>2022-05-24 13:58:29</time>
      </trkpt>
      <trkpt lat="40.98199" lon="0.533">
        <ele>59.6</ele>
        <time>2022-05-24 13:58:30</time>
      </trkpt>
      <trkpt lat="40.982" lon="0.53287">
        <ele>59.6</ele>
        <time>2022-05-24 13:58:31</time>
      </trkpt>
      <trkpt lat="40.98201" lon="0.53272">
        <ele>59.6</ele>
        <time>2022-05-24 13:58:32</time>
      </trkpt>
      <trkpt lat="40.98201" lon="0.53259">
        <ele>59.6</ele>
        <time>2022-05-24 13:58:33</time>
      </trkpt>
      <trkpt lat="40.98202" lon="0.53244">
        <ele>59.6</ele>
        <time>2022-05-24 13:58:34</time>
      </trkpt>
      <trkpt lat="40.98202" lon="0.53232">
        <ele>59.6</ele>
        <time>2022-05-24 13:58:35</time>
      </trkpt>
      <trkpt lat="40.98203" lon="0.53219">
        <ele>59.6</ele>
        <time>2022-05-24 13:58:36</time>
      </trkpt>
      <trkpt lat="40.98204" lon="0.53208">
        <ele>59.6</ele>
        <time>2022-05-24 13:58:37</time>
      </trkpt>
      <trkpt lat="40.98205" lon="0.53195">
        <ele>59.8</ele>
        <time>2022-05-24 13:58:38</time>
      </trkpt>
      <trkpt lat="40.98205" lon="0.53184">
        <ele>59.8</ele>
        <time>2022-05-24 13:58:39</time>
      </trkpt>
      <trkpt lat="40.98206" lon="0.53174">
        <ele>59.8</ele>
        <time>2022-05-24 13:58:40</time>
      </trkpt>
      <trkpt lat="40.98207" lon="0.53163">
        <ele>60</ele>
        <time>2022-05-24 13:58:41</time>
      </trkpt>
      <trkpt lat="40.98207" lon="0.53154">
        <ele>60.2</ele>
        <time>2022-05-24 13:58:42</time>
      </trkpt>
      <trkpt lat="40.98208" lon="0.53142">
        <ele>60.2</ele>
        <time>2022-05-24 13:58:43</time>
      </trkpt>
      <trkpt lat="40.98208" lon="0.53133">
        <ele>60.4</ele>
        <time>2022-05-24 13:58:44</time>
      </trkpt>
      <trkpt lat="40.98209" lon="0.53124">
        <ele>60.4</ele>
        <time>2022-05-24 13:58:45</time>
      </trkpt>
      <trkpt lat="40.98209" lon="0.53115">
        <ele>60.6</ele>
        <time>2022-05-24 13:58:46</time>
      </trkpt>
      <trkpt lat="40.98209" lon="0.53106">
        <ele>60.6</ele>
        <time>2022-05-24 13:58:47</time>
      </trkpt>
      <trkpt lat="40.9821" lon="0.53098">
        <ele>60.8</ele>
        <time>2022-05-24 13:58:48</time>
      </trkpt>
      <trkpt lat="40.98211" lon="0.53089">
        <ele>60.8</ele>
        <time>2022-05-24 13:58:49</time>
      </trkpt>
      <trkpt lat="40.98211" lon="0.53082">
        <ele>61</ele>
        <time>2022-05-24 13:58:50</time>
      </trkpt>
      <trkpt lat="40.98211" lon="0.53073">
        <ele>61</ele>
        <time>2022-05-24 13:58:51</time>
      </trkpt>
      <trkpt lat="40.98212" lon="0.53066">
        <ele>61.2</ele>
        <time>2022-05-24 13:58:52</time>
      </trkpt>
      <trkpt lat="40.98212" lon="0.53058">
        <ele>61.2</ele>
        <time>2022-05-24 13:58:53</time>
      </trkpt>
      <trkpt lat="40.98212" lon="0.53051">
        <ele>61.2</ele>
        <time>2022-05-24 13:58:54</time>
      </trkpt>
      <trkpt lat="40.98212" lon="0.53043">
        <ele>61.4</ele>
        <time>2022-05-24 13:58:55</time>
      </trkpt>
      <trkpt lat="40.98212" lon="0.53037">
        <ele>61.4</ele>
        <time>2022-05-24 13:58:56</time>
      </trkpt>
      <trkpt lat="40.98212" lon="0.53029">
        <ele>61.4</ele>
        <time>2022-05-24 13:58:57</time>
      </trkpt>
      <trkpt lat="40.98212" lon="0.53023">
        <ele>61.4</ele>
        <time>2022-05-24 13:58:58</time>
      </trkpt>
      <trkpt lat="40.98212" lon="0.53014">
        <ele>61.4</ele>
        <time>2022-05-24 13:58:59</time>
      </trkpt>
      <trkpt lat="40.98211" lon="0.53009">
        <ele>61.4</ele>
        <time>2022-05-24 13:59:00</time>
      </trkpt>
      <trkpt lat="40.98211" lon="0.52999">
        <ele>61.2</ele>
        <time>2022-05-24 13:59:01</time>
      </trkpt>
      <trkpt lat="40.9821" lon="0.52991">
        <ele>61.2</ele>
        <time>2022-05-24 13:59:02</time>
      </trkpt>
      <trkpt lat="40.9821" lon="0.52983">
        <ele>61.2</ele>
        <time>2022-05-24 13:59:03</time>
      </trkpt>
      <trkpt lat="40.98209" lon="0.52975">
        <ele>61</ele>
        <time>2022-05-24 13:59:04</time>
      </trkpt>
      <trkpt lat="40.98208" lon="0.52968">
        <ele>61</ele>
        <time>2022-05-24 13:59:05</time>
      </trkpt>
      <trkpt lat="40.98207" lon="0.52959">
        <ele>60.8</ele>
        <time>2022-05-24 13:59:06</time>
      </trkpt>
      <trkpt lat="40.98205" lon="0.52951">
        <ele>60.6</ele>
        <time>2022-05-24 13:59:07</time>
      </trkpt>
      <trkpt lat="40.98204" lon="0.52943">
        <ele>60.4</ele>
        <time>2022-05-24 13:59:08</time>
      </trkpt>
      <trkpt lat="40.98201" lon="0.52934">
        <ele>60.2</ele>
        <time>2022-05-24 13:59:09</time>
      </trkpt>
      <trkpt lat="40.98199" lon="0.52926">
        <ele>60</ele>
        <time>2022-05-24 13:59:10</time>
      </trkpt>
      <trkpt lat="40.98197" lon="0.52917">
        <ele>59.8</ele>
        <time>2022-05-24 13:59:11</time>
      </trkpt>
      <trkpt lat="40.98194" lon="0.52909">
        <ele>59.4</ele>
        <time>2022-05-24 13:59:12</time>
      </trkpt>
      <trkpt lat="40.98191" lon="0.529">
        <ele>59.2</ele>
        <time>2022-05-24 13:59:13</time>
      </trkpt>
      <trkpt lat="40.98188" lon="0.52891">
        <ele>58.8</ele>
        <time>2022-05-24 13:59:14</time>
      </trkpt>
      <trkpt lat="40.98185" lon="0.52882">
        <ele>58.4</ele>
        <time>2022-05-24 13:59:15</time>
      </trkpt>
      <trkpt lat="40.9818" lon="0.52873">
        <ele>58</ele>
        <time>2022-05-24 13:59:16</time>
      </trkpt>
      <trkpt lat="40.98176" lon="0.52864">
        <ele>57.6</ele>
        <time>2022-05-24 13:59:17</time>
      </trkpt>
      <trkpt lat="40.98171" lon="0.52854">
        <ele>57.2</ele>
        <time>2022-05-24 13:59:18</time>
      </trkpt>
      <trkpt lat="40.98166" lon="0.52845">
        <ele>56.6</ele>
        <time>2022-05-24 13:59:19</time>
      </trkpt>
      <trkpt lat="40.9816" lon="0.52835">
        <ele>56</ele>
        <time>2022-05-24 13:59:20</time>
      </trkpt>
      <trkpt lat="40.98155" lon="0.52825">
        <ele>55.4</ele>
        <time>2022-05-24 13:59:21</time>
      </trkpt>
      <trkpt lat="40.98149" lon="0.52815">
        <ele>54.6</ele>
        <time>2022-05-24 13:59:22</time>
      </trkpt>
      <trkpt lat="40.98143" lon="0.52804">
        <ele>53.8</ele>
        <time>2022-05-24 13:59:23</time>
      </trkpt>
      <trkpt lat="40.98137" lon="0.52793">
        <ele>53</ele>
        <time>2022-05-24 13:59:24</time>
      </trkpt>
      <trkpt lat="40.9813" lon="0.52782">
        <ele>52.4</ele>
        <time>2022-05-24 13:59:25</time>
      </trkpt>
      <trkpt lat="40.98124" lon="0.52771">
        <ele>51.6</ele>
        <time>2022-05-24 13:59:26</time>
      </trkpt>
      <trkpt lat="40.98117" lon="0.5276">
        <ele>50.8</ele>
        <time>2022-05-24 13:59:27</time>
      </trkpt>
      <trkpt lat="40.98111" lon="0.52748">
        <ele>50.2</ele>
        <time>2022-05-24 13:59:28</time>
      </trkpt>
      <trkpt lat="40.98108" lon="0.52741">
        <ele>49.8</ele>
        <time>2022-05-24 13:59:29</time>
      </trkpt>
      <trkpt lat="40.98105" lon="0.52733">
        <ele>49.2</ele>
        <time>2022-05-24 13:59:30</time>
      </trkpt>
      <trkpt lat="40.98097" lon="0.52714">
        <ele>48.2</ele>
        <time>2022-05-24 13:59:31</time>
      </trkpt>
      <trkpt lat="40.98091" lon="0.52698">
        <ele>47.6</ele>
        <time>2022-05-24 13:59:32</time>
      </trkpt>
      <trkpt lat="40.98087" lon="0.52685">
        <ele>46.8</ele>
        <time>2022-05-24 13:59:33</time>
      </trkpt>
      <trkpt lat="40.98083" lon="0.52671">
        <ele>46.2</ele>
        <time>2022-05-24 13:59:34</time>
      </trkpt>
      <trkpt lat="40.98079" lon="0.52657">
        <ele>45.6</ele>
        <time>2022-05-24 13:59:35</time>
      </trkpt>
      <trkpt lat="40.98077" lon="0.52645">
        <ele>45.2</ele>
        <time>2022-05-24 13:59:36</time>
      </trkpt>
      <trkpt lat="40.98074" lon="0.52632">
        <ele>44.6</ele>
        <time>2022-05-24 13:59:37</time>
      </trkpt>
      <trkpt lat="40.98072" lon="0.52618">
        <ele>44</ele>
        <time>2022-05-24 13:59:38</time>
      </trkpt>
      <trkpt lat="40.9807" lon="0.52603">
        <ele>43.6</ele>
        <time>2022-05-24 13:59:39</time>
      </trkpt>
      <trkpt lat="40.98068" lon="0.52585">
        <ele>43.4</ele>
        <time>2022-05-24 13:59:40</time>
      </trkpt>
      <trkpt lat="40.98066" lon="0.52573">
        <ele>43.2</ele>
        <time>2022-05-24 13:59:41</time>
      </trkpt>
      <trkpt lat="40.98065" lon="0.52565">
        <ele>43</ele>
        <time>2022-05-24 13:59:42</time>
      </trkpt>
      <trkpt lat="40.98063" lon="0.52555">
        <ele>43</ele>
        <time>2022-05-24 13:59:43</time>
      </trkpt>
      <trkpt lat="40.98059" lon="0.5254">
        <ele>43.2</ele>
        <time>2022-05-24 13:59:44</time>
      </trkpt>
      <trkpt lat="40.98055" lon="0.5253">
        <ele>43.2</ele>
        <time>2022-05-24 13:59:45</time>
      </trkpt>
      <trkpt lat="40.98049" lon="0.52523">
        <ele>43.4</ele>
        <time>2022-05-24 13:59:46</time>
      </trkpt>
      <trkpt lat="40.98044" lon="0.52517">
        <ele>43.6</ele>
        <time>2022-05-24 13:59:47</time>
      </trkpt>
      <trkpt lat="40.98039" lon="0.52511">
        <ele>43.8</ele>
        <time>2022-05-24 13:59:48</time>
      </trkpt>
      <trkpt lat="40.98033" lon="0.52505">
        <ele>43.8</ele>
        <time>2022-05-24 13:59:49</time>
      </trkpt>
      <trkpt lat="40.98028" lon="0.52499">
        <ele>43.8</ele>
        <time>2022-05-24 13:59:50</time>
      </trkpt>
      <trkpt lat="40.98023" lon="0.52491">
        <ele>43.6</ele>
        <time>2022-05-24 13:59:51</time>
      </trkpt>
      <trkpt lat="40.98019" lon="0.52483">
        <ele>43.4</ele>
        <time>2022-05-24 13:59:52</time>
      </trkpt>
      <trkpt lat="40.98015" lon="0.52474">
        <ele>43</ele>
        <time>2022-05-24 13:59:53</time>
      </trkpt>
      <trkpt lat="40.9801" lon="0.52465">
        <ele>42.6</ele>
        <time>2022-05-24 13:59:54</time>
      </trkpt>
      <trkpt lat="40.98006" lon="0.52456">
        <ele>42.2</ele>
        <time>2022-05-24 13:59:55</time>
      </trkpt>
      <trkpt lat="40.98001" lon="0.52446">
        <ele>41.8</ele>
        <time>2022-05-24 13:59:56</time>
      </trkpt>
      <trkpt lat="40.97996" lon="0.52436">
        <ele>41.2</ele>
        <time>2022-05-24 13:59:57</time>
      </trkpt>
      <trkpt lat="40.97991" lon="0.52424">
        <ele>40.6</ele>
        <time>2022-05-24 13:59:58</time>
      </trkpt>
      <trkpt lat="40.97987" lon="0.52413">
        <ele>40</ele>
        <time>2022-05-24 13:59:59</time>
      </trkpt>
      <trkpt lat="40.97984" lon="0.52402">
        <ele>39.2</ele>
        <time>2022-05-24 14:00:00</time>
      </trkpt>
      <trkpt lat="40.97979" lon="0.5239">
        <ele>38.8</ele>
        <time>2022-05-24 14:00:01</time>
      </trkpt>
      <trkpt lat="40.97975" lon="0.52376">
        <ele>38.2</ele>
        <time>2022-05-24 14:00:02</time>
      </trkpt>
      <trkpt lat="40.97971" lon="0.52364">
        <ele>37.4</ele>
        <time>2022-05-24 14:00:03</time>
      </trkpt>
      <trkpt lat="40.97967" lon="0.5235">
        <ele>36.8</ele>
        <time>2022-05-24 14:00:04</time>
      </trkpt>
      <trkpt lat="40.97964" lon="0.52337">
        <ele>36.4</ele>
        <time>2022-05-24 14:00:05</time>
      </trkpt>
      <trkpt lat="40.97961" lon="0.52325">
        <ele>36.2</ele>
        <time>2022-05-24 14:00:06</time>
      </trkpt>
      <trkpt lat="40.97957" lon="0.52313">
        <ele>36</ele>
        <time>2022-05-24 14:00:07</time>
      </trkpt>
      <trkpt lat="40.97954" lon="0.52301">
        <ele>35.8</ele>
        <time>2022-05-24 14:00:08</time>
      </trkpt>
      <trkpt lat="40.9795" lon="0.52291">
        <ele>35.8</ele>
        <time>2022-05-24 14:00:09</time>
      </trkpt>
      <trkpt lat="40.97947" lon="0.52279">
        <ele>36</ele>
        <time>2022-05-24 14:00:10</time>
      </trkpt>
      <trkpt lat="40.97943" lon="0.52269">
        <ele>36</ele>
        <time>2022-05-24 14:00:11</time>
      </trkpt>
      <trkpt lat="40.9794" lon="0.52259">
        <ele>36.2</ele>
        <time>2022-05-24 14:00:12</time>
      </trkpt>
      <trkpt lat="40.97937" lon="0.5225">
        <ele>36.2</ele>
        <time>2022-05-24 14:00:13</time>
      </trkpt>
      <trkpt lat="40.97933" lon="0.52241">
        <ele>36.4</ele>
        <time>2022-05-24 14:00:14</time>
      </trkpt>
      <trkpt lat="40.9793" lon="0.52234">
        <ele>36.8</ele>
        <time>2022-05-24 14:00:15</time>
      </trkpt>
      <trkpt lat="40.97926" lon="0.52227">
        <ele>37</ele>
        <time>2022-05-24 14:00:16</time>
      </trkpt>
      <trkpt lat="40.97923" lon="0.5222">
        <ele>37.2</ele>
        <time>2022-05-24 14:00:17</time>
      </trkpt>
      <trkpt lat="40.9792" lon="0.52215">
        <ele>37.6</ele>
        <time>2022-05-24 14:00:18</time>
      </trkpt>
      <trkpt lat="40.97916" lon="0.52209">
        <ele>37.8</ele>
        <time>2022-05-24 14:00:19</time>
      </trkpt>
      <trkpt lat="40.97913" lon="0.52204">
        <ele>38</ele>
        <time>2022-05-24 14:00:20</time>
      </trkpt>
      <trkpt lat="40.9791" lon="0.52199">
        <ele>38.4</ele>
        <time>2022-05-24 14:00:21</time>
      </trkpt>
      <trkpt lat="40.97906" lon="0.52195">
        <ele>38.6</ele>
        <time>2022-05-24 14:00:22</time>
      </trkpt>
      <trkpt lat="40.97903" lon="0.52191">
        <ele>38.6</ele>
        <time>2022-05-24 14:00:23</time>
      </trkpt>
      <trkpt lat="40.97899" lon="0.52187">
        <ele>39</ele>
        <time>2022-05-24 14:00:24</time>
      </trkpt>
      <trkpt lat="40.97896" lon="0.52183">
        <ele>39.2</ele>
        <time>2022-05-24 14:00:25</time>
      </trkpt>
      <trkpt lat="40.97892" lon="0.52179">
        <ele>39.4</ele>
        <time>2022-05-24 14:00:26</time>
      </trkpt>
      <trkpt lat="40.97889" lon="0.52175">
        <ele>39.6</ele>
        <time>2022-05-24 14:00:27</time>
      </trkpt>
      <trkpt lat="40.97885" lon="0.52171">
        <ele>39.8</ele>
        <time>2022-05-24 14:00:28</time>
      </trkpt>
      <trkpt lat="40.97882" lon="0.52168">
        <ele>40</ele>
        <time>2022-05-24 14:00:29</time>
      </trkpt>
      <trkpt lat="40.97878" lon="0.52165">
        <ele>40.2</ele>
        <time>2022-05-24 14:00:30</time>
      </trkpt>
      <trkpt lat="40.97875" lon="0.52162">
        <ele>40.4</ele>
        <time>2022-05-24 14:00:31</time>
      </trkpt>
      <trkpt lat="40.97871" lon="0.52159">
        <ele>40.6</ele>
        <time>2022-05-24 14:00:32</time>
      </trkpt>
      <trkpt lat="40.97868" lon="0.52156">
        <ele>40.6</ele>
        <time>2022-05-24 14:00:33</time>
      </trkpt>
      <trkpt lat="40.97865" lon="0.52153">
        <ele>40.8</ele>
        <time>2022-05-24 14:00:34</time>
      </trkpt>
      <trkpt lat="40.97862" lon="0.5215">
        <ele>41</ele>
        <time>2022-05-24 14:00:35</time>
      </trkpt>
      <trkpt lat="40.97858" lon="0.52147">
        <ele>41.2</ele>
        <time>2022-05-24 14:00:36</time>
      </trkpt>
      <trkpt lat="40.97854" lon="0.52144">
        <ele>41.2</ele>
        <time>2022-05-24 14:00:37</time>
      </trkpt>
      <trkpt lat="40.9785" lon="0.52141">
        <ele>41.4</ele>
        <time>2022-05-24 14:00:38</time>
      </trkpt>
      <trkpt lat="40.97846" lon="0.52138">
        <ele>41.4</ele>
        <time>2022-05-24 14:00:39</time>
      </trkpt>
      <trkpt lat="40.97841" lon="0.52135">
        <ele>41.4</ele>
        <time>2022-05-24 14:00:40</time>
      </trkpt>
      <trkpt lat="40.97837" lon="0.52132">
        <ele>41.4</ele>
        <time>2022-05-24 14:00:41</time>
      </trkpt>
      <trkpt lat="40.97833" lon="0.52129">
        <ele>41.4</ele>
        <time>2022-05-24 14:00:42</time>
      </trkpt>
      <trkpt lat="40.97829" lon="0.52126">
        <ele>41.4</ele>
        <time>2022-05-24 14:00:43</time>
      </trkpt>
      <trkpt lat="40.97824" lon="0.52123">
        <ele>41.6</ele>
        <time>2022-05-24 14:00:44</time>
      </trkpt>
      <trkpt lat="40.9782" lon="0.5212">
        <ele>41.6</ele>
        <time>2022-05-24 14:00:45</time>
      </trkpt>
      <trkpt lat="40.97815" lon="0.52118">
        <ele>41.6</ele>
        <time>2022-05-24 14:00:46</time>
      </trkpt>
      <trkpt lat="40.97811" lon="0.52115">
        <ele>41.6</ele>
        <time>2022-05-24 14:00:47</time>
      </trkpt>
      <trkpt lat="40.97806" lon="0.52112">
        <ele>41.6</ele>
        <time>2022-05-24 14:00:48</time>
      </trkpt>
      <trkpt lat="40.97802" lon="0.52109">
        <ele>41.6</ele>
        <time>2022-05-24 14:00:49</time>
      </trkpt>
      <trkpt lat="40.97797" lon="0.52107">
        <ele>41.6</ele>
        <time>2022-05-24 14:00:50</time>
      </trkpt>
      <trkpt lat="40.97793" lon="0.52104">
        <ele>41.8</ele>
        <time>2022-05-24 14:00:51</time>
      </trkpt>
      <trkpt lat="40.97789" lon="0.52102">
        <ele>41.8</ele>
        <time>2022-05-24 14:00:52</time>
      </trkpt>
      <trkpt lat="40.97784" lon="0.52099">
        <ele>41.8</ele>
        <time>2022-05-24 14:00:53</time>
      </trkpt>
      <trkpt lat="40.97779" lon="0.52096">
        <ele>41.8</ele>
        <time>2022-05-24 14:00:54</time>
      </trkpt>
      <trkpt lat="40.97774" lon="0.52094">
        <ele>41.8</ele>
        <time>2022-05-24 14:00:55</time>
      </trkpt>
      <trkpt lat="40.9777" lon="0.52091">
        <ele>41.6</ele>
        <time>2022-05-24 14:00:56</time>
      </trkpt>
      <trkpt lat="40.97765" lon="0.52088">
        <ele>41.6</ele>
        <time>2022-05-24 14:00:57</time>
      </trkpt>
      <trkpt lat="40.9776" lon="0.52085">
        <ele>41.4</ele>
        <time>2022-05-24 14:00:58</time>
      </trkpt>
      <trkpt lat="40.97754" lon="0.52082">
        <ele>41.2</ele>
        <time>2022-05-24 14:00:59</time>
      </trkpt>
      <trkpt lat="40.97748" lon="0.5208">
        <ele>41</ele>
        <time>2022-05-24 14:01:00</time>
      </trkpt>
      <trkpt lat="40.97743" lon="0.52076">
        <ele>40.8</ele>
        <time>2022-05-24 14:01:01</time>
      </trkpt>
      <trkpt lat="40.97737" lon="0.52072">
        <ele>40.6</ele>
        <time>2022-05-24 14:01:02</time>
      </trkpt>
      <trkpt lat="40.97731" lon="0.52068">
        <ele>40.2</ele>
        <time>2022-05-24 14:01:03</time>
      </trkpt>
      <trkpt lat="40.97725" lon="0.52063">
        <ele>40</ele>
        <time>2022-05-24 14:01:04</time>
      </trkpt>
      <trkpt lat="40.97719" lon="0.52058">
        <ele>39.6</ele>
        <time>2022-05-24 14:01:05</time>
      </trkpt>
      <trkpt lat="40.97712" lon="0.52053">
        <ele>39.2</ele>
        <time>2022-05-24 14:01:06</time>
      </trkpt>
      <trkpt lat="40.97707" lon="0.52047">
        <ele>39</ele>
        <time>2022-05-24 14:01:07</time>
      </trkpt>
      <trkpt lat="40.97701" lon="0.52041">
        <ele>38.6</ele>
        <time>2022-05-24 14:01:08</time>
      </trkpt>
      <trkpt lat="40.97695" lon="0.52034">
        <ele>38.2</ele>
        <time>2022-05-24 14:01:09</time>
      </trkpt>
      <trkpt lat="40.97689" lon="0.52027">
        <ele>37.8</ele>
        <time>2022-05-24 14:01:10</time>
      </trkpt>
      <trkpt lat="40.97683" lon="0.52019">
        <ele>37.2</ele>
        <time>2022-05-24 14:01:11</time>
      </trkpt>
      <trkpt lat="40.97677" lon="0.52011">
        <ele>37</ele>
        <time>2022-05-24 14:01:12</time>
      </trkpt>
      <trkpt lat="40.97672" lon="0.52003">
        <ele>36.6</ele>
        <time>2022-05-24 14:01:13</time>
      </trkpt>
      <trkpt lat="40.97667" lon="0.51995">
        <ele>36.2</ele>
        <time>2022-05-24 14:01:14</time>
      </trkpt>
      <trkpt lat="40.97663" lon="0.51985">
        <ele>35.8</ele>
        <time>2022-05-24 14:01:15</time>
      </trkpt>
      <trkpt lat="40.97659" lon="0.51976">
        <ele>35.6</ele>
        <time>2022-05-24 14:01:16</time>
      </trkpt>
      <trkpt lat="40.97655" lon="0.51969">
        <ele>35.4</ele>
        <time>2022-05-24 14:01:17</time>
      </trkpt>
      <trkpt lat="40.97649" lon="0.51964">
        <ele>35.2</ele>
        <time>2022-05-24 14:01:18</time>
      </trkpt>
      <trkpt lat="40.97643" lon="0.51959">
        <ele>35</ele>
        <time>2022-05-24 14:01:19</time>
      </trkpt>
      <trkpt lat="40.97635" lon="0.51955">
        <ele>35</ele>
        <time>2022-05-24 14:01:20</time>
      </trkpt>
      <trkpt lat="40.97628" lon="0.51949">
        <ele>34.8</ele>
        <time>2022-05-24 14:01:21</time>
      </trkpt>
      <trkpt lat="40.97621" lon="0.51943">
        <ele>34.8</ele>
        <time>2022-05-24 14:01:22</time>
      </trkpt>
      <trkpt lat="40.97615" lon="0.51937">
        <ele>34.6</ele>
        <time>2022-05-24 14:01:23</time>
      </trkpt>
      <trkpt lat="40.97609" lon="0.51932">
        <ele>34.6</ele>
        <time>2022-05-24 14:01:24</time>
      </trkpt>
      <trkpt lat="40.97603" lon="0.51926">
        <ele>34.4</ele>
        <time>2022-05-24 14:01:25</time>
      </trkpt>
      <trkpt lat="40.97597" lon="0.5192">
        <ele>34.4</ele>
        <time>2022-05-24 14:01:26</time>
      </trkpt>
      <trkpt lat="40.97591" lon="0.51914">
        <ele>34.2</ele>
        <time>2022-05-24 14:01:27</time>
      </trkpt>
      <trkpt lat="40.97586" lon="0.51908">
        <ele>34.2</ele>
        <time>2022-05-24 14:01:28</time>
      </trkpt>
      <trkpt lat="40.9758" lon="0.51902">
        <ele>34</ele>
        <time>2022-05-24 14:01:29</time>
      </trkpt>
      <trkpt lat="40.97575" lon="0.51895">
        <ele>34</ele>
        <time>2022-05-24 14:01:30</time>
      </trkpt>
      <trkpt lat="40.97571" lon="0.51888">
        <ele>34</ele>
        <time>2022-05-24 14:01:31</time>
      </trkpt>
      <trkpt lat="40.97567" lon="0.51881">
        <ele>34</ele>
        <time>2022-05-24 14:01:32</time>
      </trkpt>
      <trkpt lat="40.97562" lon="0.51873">
        <ele>33.8</ele>
        <time>2022-05-24 14:01:33</time>
      </trkpt>
      <trkpt lat="40.97558" lon="0.51866">
        <ele>33.8</ele>
        <time>2022-05-24 14:01:34</time>
      </trkpt>
      <trkpt lat="40.97554" lon="0.51859">
        <ele>33.8</ele>
        <time>2022-05-24 14:01:35</time>
      </trkpt>
      <trkpt lat="40.97551" lon="0.51852">
        <ele>33.8</ele>
        <time>2022-05-24 14:01:36</time>
      </trkpt>
      <trkpt lat="40.97548" lon="0.51845">
        <ele>33.8</ele>
        <time>2022-05-24 14:01:37</time>
      </trkpt>
      <trkpt lat="40.97544" lon="0.51838">
        <ele>33.6</ele>
        <time>2022-05-24 14:01:38</time>
      </trkpt>
      <trkpt lat="40.97541" lon="0.51831">
        <ele>33.6</ele>
        <time>2022-05-24 14:01:39</time>
      </trkpt>
      <trkpt lat="40.97538" lon="0.51825">
        <ele>33.6</ele>
        <time>2022-05-24 14:01:40</time>
      </trkpt>
      <trkpt lat="40.97534" lon="0.51818">
        <ele>33.4</ele>
        <time>2022-05-24 14:01:41</time>
      </trkpt>
      <trkpt lat="40.9753" lon="0.51811">
        <ele>33.2</ele>
        <time>2022-05-24 14:01:42</time>
      </trkpt>
      <trkpt lat="40.97526" lon="0.51804">
        <ele>33</ele>
        <time>2022-05-24 14:01:43</time>
      </trkpt>
      <trkpt lat="40.97523" lon="0.51797">
        <ele>32.8</ele>
        <time>2022-05-24 14:01:44</time>
      </trkpt>
      <trkpt lat="40.97519" lon="0.5179">
        <ele>32.8</ele>
        <time>2022-05-24 14:01:45</time>
      </trkpt>
      <trkpt lat="40.97516" lon="0.51783">
        <ele>32.8</ele>
        <time>2022-05-24 14:01:46</time>
      </trkpt>
      <trkpt lat="40.97512" lon="0.51776">
        <ele>32.6</ele>
        <time>2022-05-24 14:01:47</time>
      </trkpt>
      <trkpt lat="40.97509" lon="0.5177">
        <ele>32.6</ele>
        <time>2022-05-24 14:01:48</time>
      </trkpt>
      <trkpt lat="40.97506" lon="0.51764">
        <ele>32.4</ele>
        <time>2022-05-24 14:01:49</time>
      </trkpt>
      <trkpt lat="40.97502" lon="0.51758">
        <ele>32.4</ele>
        <time>2022-05-24 14:01:50</time>
      </trkpt>
      <trkpt lat="40.97499" lon="0.51753">
        <ele>32.4</ele>
        <time>2022-05-24 14:01:51</time>
      </trkpt>
      <trkpt lat="40.97496" lon="0.51747">
        <ele>32.4</ele>
        <time>2022-05-24 14:01:52</time>
      </trkpt>
      <trkpt lat="40.97491" lon="0.51743">
        <ele>32.4</ele>
        <time>2022-05-24 14:01:53</time>
      </trkpt>
      <trkpt lat="40.97487" lon="0.51739">
        <ele>32.4</ele>
        <time>2022-05-24 14:01:54</time>
      </trkpt>
      <trkpt lat="40.97482" lon="0.51735">
        <ele>32.4</ele>
        <time>2022-05-24 14:01:55</time>
      </trkpt>
      <trkpt lat="40.97477" lon="0.51731">
        <ele>32.6</ele>
        <time>2022-05-24 14:01:56</time>
      </trkpt>
      <trkpt lat="40.97474" lon="0.51727">
        <ele>32.6</ele>
        <time>2022-05-24 14:01:57</time>
      </trkpt>
      <trkpt lat="40.97469" lon="0.51723">
        <ele>32.6</ele>
        <time>2022-05-24 14:01:58</time>
      </trkpt>
      <trkpt lat="40.97465" lon="0.51719">
        <ele>32.6</ele>
        <time>2022-05-24 14:01:59</time>
      </trkpt>
      <trkpt lat="40.97461" lon="0.51715">
        <ele>32.6</ele>
        <time>2022-05-24 14:02:00</time>
      </trkpt>
      <trkpt lat="40.97456" lon="0.51711">
        <ele>32.6</ele>
        <time>2022-05-24 14:02:01</time>
      </trkpt>
      <trkpt lat="40.97452" lon="0.51708">
        <ele>32.6</ele>
        <time>2022-05-24 14:02:02</time>
      </trkpt>
      <trkpt lat="40.97449" lon="0.51705">
        <ele>32.4</ele>
        <time>2022-05-24 14:02:03</time>
      </trkpt>
      <trkpt lat="40.97446" lon="0.51703">
        <ele>32.6</ele>
        <time>2022-05-24 14:02:04</time>
      </trkpt>
      <trkpt lat="40.97442" lon="0.51701">
        <ele>32.6</ele>
        <time>2022-05-24 14:02:05</time>
      </trkpt>
      <trkpt lat="40.97438" lon="0.51698">
        <ele>32.6</ele>
        <time>2022-05-24 14:02:06</time>
      </trkpt>
      <trkpt lat="40.97434" lon="0.51695">
        <ele>32.8</ele>
        <time>2022-05-24 14:02:07</time>
      </trkpt>
      <trkpt lat="40.9743" lon="0.51692">
        <ele>32.8</ele>
        <time>2022-05-24 14:02:08</time>
      </trkpt>
      <trkpt lat="40.97426" lon="0.51689">
        <ele>33</ele>
        <time>2022-05-24 14:02:09</time>
      </trkpt>
      <trkpt lat="40.97422" lon="0.51685">
        <ele>33</ele>
        <time>2022-05-24 14:02:10</time>
      </trkpt>
      <trkpt lat="40.97417" lon="0.51682">
        <ele>33</ele>
        <time>2022-05-24 14:02:11</time>
      </trkpt>
      <trkpt lat="40.97414" lon="0.51678">
        <ele>33</ele>
        <time>2022-05-24 14:02:12</time>
      </trkpt>
      <trkpt lat="40.9741" lon="0.51674">
        <ele>33</ele>
        <time>2022-05-24 14:02:13</time>
      </trkpt>
      <trkpt lat="40.97406" lon="0.51671">
        <ele>33.2</ele>
        <time>2022-05-24 14:02:14</time>
      </trkpt>
      <trkpt lat="40.97402" lon="0.51667">
        <ele>33.2</ele>
        <time>2022-05-24 14:02:15</time>
      </trkpt>
      <trkpt lat="40.97398" lon="0.51664">
        <ele>33.2</ele>
        <time>2022-05-24 14:02:16</time>
      </trkpt>
      <trkpt lat="40.97394" lon="0.51662">
        <ele>33.2</ele>
        <time>2022-05-24 14:02:17</time>
      </trkpt>
      <trkpt lat="40.9739" lon="0.51659">
        <ele>33.4</ele>
        <time>2022-05-24 14:02:18</time>
      </trkpt>
      <trkpt lat="40.97386" lon="0.51655">
        <ele>33.4</ele>
        <time>2022-05-24 14:02:19</time>
      </trkpt>
      <trkpt lat="40.97381" lon="0.51651">
        <ele>33.4</ele>
        <time>2022-05-24 14:02:20</time>
      </trkpt>
      <trkpt lat="40.97377" lon="0.51648">
        <ele>33.4</ele>
        <time>2022-05-24 14:02:21</time>
      </trkpt>
      <trkpt lat="40.97373" lon="0.51645">
        <ele>33.4</ele>
        <time>2022-05-24 14:02:22</time>
      </trkpt>
      <trkpt lat="40.97369" lon="0.51642">
        <ele>33.4</ele>
        <time>2022-05-24 14:02:23</time>
      </trkpt>
      <trkpt lat="40.97363" lon="0.51639">
        <ele>33.4</ele>
        <time>2022-05-24 14:02:24</time>
      </trkpt>
      <trkpt lat="40.97359" lon="0.51635">
        <ele>33.6</ele>
        <time>2022-05-24 14:02:25</time>
      </trkpt>
      <trkpt lat="40.97354" lon="0.5163">
        <ele>33.6</ele>
        <time>2022-05-24 14:02:26</time>
      </trkpt>
      <trkpt lat="40.97351" lon="0.51627">
        <ele>33.6</ele>
        <time>2022-05-24 14:02:27</time>
      </trkpt>
      <trkpt lat="40.97347" lon="0.51625">
        <ele>33.6</ele>
        <time>2022-05-24 14:02:28</time>
      </trkpt>
      <trkpt lat="40.97343" lon="0.51622">
        <ele>33.8</ele>
        <time>2022-05-24 14:02:29</time>
      </trkpt>
      <trkpt lat="40.97339" lon="0.51619">
        <ele>33.8</ele>
        <time>2022-05-24 14:02:30</time>
      </trkpt>
      <trkpt lat="40.97335" lon="0.51616">
        <ele>33.8</ele>
        <time>2022-05-24 14:02:31</time>
      </trkpt>
      <trkpt lat="40.9733" lon="0.51614">
        <ele>33.8</ele>
        <time>2022-05-24 14:02:32</time>
      </trkpt>
      <trkpt lat="40.97326" lon="0.51612">
        <ele>33.8</ele>
        <time>2022-05-24 14:02:33</time>
      </trkpt>
      <trkpt lat="40.97321" lon="0.5161">
        <ele>33.8</ele>
        <time>2022-05-24 14:02:34</time>
      </trkpt>
      <trkpt lat="40.97317" lon="0.51608">
        <ele>33.8</ele>
        <time>2022-05-24 14:02:35</time>
      </trkpt>
      <trkpt lat="40.97313" lon="0.51607">
        <ele>34</ele>
        <time>2022-05-24 14:02:36</time>
      </trkpt>
      <trkpt lat="40.97308" lon="0.51605">
        <ele>34</ele>
        <time>2022-05-24 14:02:37</time>
      </trkpt>
      <trkpt lat="40.97304" lon="0.51604">
        <ele>33.8</ele>
        <time>2022-05-24 14:02:38</time>
      </trkpt>
      <trkpt lat="40.973" lon="0.51602">
        <ele>33.8</ele>
        <time>2022-05-24 14:02:39</time>
      </trkpt>
      <trkpt lat="40.97295" lon="0.516">
        <ele>33.8</ele>
        <time>2022-05-24 14:02:40</time>
      </trkpt>
      <trkpt lat="40.97291" lon="0.51598">
        <ele>33.8</ele>
        <time>2022-05-24 14:02:41</time>
      </trkpt>
      <trkpt lat="40.97286" lon="0.51596">
        <ele>33.8</ele>
        <time>2022-05-24 14:02:42</time>
      </trkpt>
      <trkpt lat="40.97282" lon="0.51595">
        <ele>33.8</ele>
        <time>2022-05-24 14:02:43</time>
      </trkpt>
      <trkpt lat="40.97277" lon="0.51593">
        <ele>33.8</ele>
        <time>2022-05-24 14:02:44</time>
      </trkpt>
      <trkpt lat="40.97272" lon="0.51592">
        <ele>33.8</ele>
        <time>2022-05-24 14:02:45</time>
      </trkpt>
      <trkpt lat="40.97267" lon="0.51591">
        <ele>33.8</ele>
        <time>2022-05-24 14:02:46</time>
      </trkpt>
      <trkpt lat="40.97262" lon="0.51589">
        <ele>33.8</ele>
        <time>2022-05-24 14:02:47</time>
      </trkpt>
      <trkpt lat="40.97257" lon="0.51587">
        <ele>33.6</ele>
        <time>2022-05-24 14:02:48</time>
      </trkpt>
      <trkpt lat="40.97252" lon="0.51586">
        <ele>33.6</ele>
        <time>2022-05-24 14:02:49</time>
      </trkpt>
      <trkpt lat="40.97247" lon="0.51584">
        <ele>33.6</ele>
        <time>2022-05-24 14:02:50</time>
      </trkpt>
      <trkpt lat="40.97242" lon="0.51583">
        <ele>33.6</ele>
        <time>2022-05-24 14:02:51</time>
      </trkpt>
      <trkpt lat="40.97237" lon="0.51581">
        <ele>33.6</ele>
        <time>2022-05-24 14:02:52</time>
      </trkpt>
      <trkpt lat="40.97232" lon="0.51579">
        <ele>33.6</ele>
        <time>2022-05-24 14:02:53</time>
      </trkpt>
      <trkpt lat="40.97227" lon="0.51578">
        <ele>33.6</ele>
        <time>2022-05-24 14:02:54</time>
      </trkpt>
      <trkpt lat="40.97223" lon="0.51577">
        <ele>33.6</ele>
        <time>2022-05-24 14:02:55</time>
      </trkpt>
      <trkpt lat="40.97219" lon="0.51576">
        <ele>33.6</ele>
        <time>2022-05-24 14:02:56</time>
      </trkpt>
      <trkpt lat="40.97214" lon="0.51574">
        <ele>33.6</ele>
        <time>2022-05-24 14:02:57</time>
      </trkpt>
      <trkpt lat="40.97209" lon="0.51572">
        <ele>33.6</ele>
        <time>2022-05-24 14:02:58</time>
      </trkpt>
      <trkpt lat="40.97204" lon="0.5157">
        <ele>33.6</ele>
        <time>2022-05-24 14:02:59</time>
      </trkpt>
      <trkpt lat="40.972" lon="0.51569">
        <ele>33.6</ele>
        <time>2022-05-24 14:03:00</time>
      </trkpt>
      <trkpt lat="40.97195" lon="0.51566">
        <ele>33.4</ele>
        <time>2022-05-24 14:03:01</time>
      </trkpt>
      <trkpt lat="40.97189" lon="0.51564">
        <ele>33.4</ele>
        <time>2022-05-24 14:03:02</time>
      </trkpt>
      <trkpt lat="40.97184" lon="0.51563">
        <ele>33.4</ele>
        <time>2022-05-24 14:03:03</time>
      </trkpt>
      <trkpt lat="40.97179" lon="0.51561">
        <ele>33.4</ele>
        <time>2022-05-24 14:03:04</time>
      </trkpt>
      <trkpt lat="40.97175" lon="0.5156">
        <ele>33.4</ele>
        <time>2022-05-24 14:03:05</time>
      </trkpt>
      <trkpt lat="40.97169" lon="0.51558">
        <ele>33.4</ele>
        <time>2022-05-24 14:03:06</time>
      </trkpt>
      <trkpt lat="40.97165" lon="0.51556">
        <ele>33.2</ele>
        <time>2022-05-24 14:03:07</time>
      </trkpt>
      <trkpt lat="40.97159" lon="0.51555">
        <ele>33.2</ele>
        <time>2022-05-24 14:03:08</time>
      </trkpt>
      <trkpt lat="40.97155" lon="0.51554">
        <ele>33.2</ele>
        <time>2022-05-24 14:03:09</time>
      </trkpt>
      <trkpt lat="40.9715" lon="0.51553">
        <ele>33.2</ele>
        <time>2022-05-24 14:03:10</time>
      </trkpt>
      <trkpt lat="40.97145" lon="0.51552">
        <ele>33</ele>
        <time>2022-05-24 14:03:11</time>
      </trkpt>
      <trkpt lat="40.9714" lon="0.51552">
        <ele>33</ele>
        <time>2022-05-24 14:03:12</time>
      </trkpt>
      <trkpt lat="40.97135" lon="0.51552">
        <ele>33</ele>
        <time>2022-05-24 14:03:13</time>
      </trkpt>
      <trkpt lat="40.9713" lon="0.51552">
        <ele>33</ele>
        <time>2022-05-24 14:03:14</time>
      </trkpt>
      <trkpt lat="40.97125" lon="0.51552">
        <ele>33</ele>
        <time>2022-05-24 14:03:15</time>
      </trkpt>
      <trkpt lat="40.97121" lon="0.51552">
        <ele>33</ele>
        <time>2022-05-24 14:03:16</time>
      </trkpt>
      <trkpt lat="40.97116" lon="0.51551">
        <ele>33</ele>
        <time>2022-05-24 14:03:17</time>
      </trkpt>
      <trkpt lat="40.97111" lon="0.51551">
        <ele>33.2</ele>
        <time>2022-05-24 14:03:18</time>
      </trkpt>
      <trkpt lat="40.97107" lon="0.51551">
        <ele>33.2</ele>
        <time>2022-05-24 14:03:19</time>
      </trkpt>
      <trkpt lat="40.97102" lon="0.51551">
        <ele>33.2</ele>
        <time>2022-05-24 14:03:20</time>
      </trkpt>
      <trkpt lat="40.97097" lon="0.5155">
        <ele>33.2</ele>
        <time>2022-05-24 14:03:21</time>
      </trkpt>
      <trkpt lat="40.97093" lon="0.5155">
        <ele>33.2</ele>
        <time>2022-05-24 14:03:22</time>
      </trkpt>
      <trkpt lat="40.97089" lon="0.5155">
        <ele>33.2</ele>
        <time>2022-05-24 14:03:23</time>
      </trkpt>
      <trkpt lat="40.97084" lon="0.5155">
        <ele>33.2</ele>
        <time>2022-05-24 14:03:24</time>
      </trkpt>
      <trkpt lat="40.97078" lon="0.5155">
        <ele>33.2</ele>
        <time>2022-05-24 14:03:25</time>
      </trkpt>
      <trkpt lat="40.97073" lon="0.5155">
        <ele>33.2</ele>
        <time>2022-05-24 14:03:26</time>
      </trkpt>
      <trkpt lat="40.97068" lon="0.5155">
        <ele>33.2</ele>
        <time>2022-05-24 14:03:27</time>
      </trkpt>
      <trkpt lat="40.97063" lon="0.51549">
        <ele>33.2</ele>
        <time>2022-05-24 14:03:28</time>
      </trkpt>
      <trkpt lat="40.97058" lon="0.51549">
        <ele>33.2</ele>
        <time>2022-05-24 14:03:29</time>
      </trkpt>
      <trkpt lat="40.97054" lon="0.51548">
        <ele>33.2</ele>
        <time>2022-05-24 14:03:30</time>
      </trkpt>
      <trkpt lat="40.97049" lon="0.51548">
        <ele>33.2</ele>
        <time>2022-05-24 14:03:31</time>
      </trkpt>
      <trkpt lat="40.97044" lon="0.51547">
        <ele>33.2</ele>
        <time>2022-05-24 14:03:32</time>
      </trkpt>
      <trkpt lat="40.97039" lon="0.51547">
        <ele>33.2</ele>
        <time>2022-05-24 14:03:33</time>
      </trkpt>
      <trkpt lat="40.97034" lon="0.51547">
        <ele>33</ele>
        <time>2022-05-24 14:03:34</time>
      </trkpt>
      <trkpt lat="40.97029" lon="0.51547">
        <ele>33</ele>
        <time>2022-05-24 14:03:35</time>
      </trkpt>
      <trkpt lat="40.97025" lon="0.51546">
        <ele>33</ele>
        <time>2022-05-24 14:03:36</time>
      </trkpt>
      <trkpt lat="40.97021" lon="0.51545">
        <ele>33</ele>
        <time>2022-05-24 14:03:37</time>
      </trkpt>
      <trkpt lat="40.97015" lon="0.51544">
        <ele>33</ele>
        <time>2022-05-24 14:03:38</time>
      </trkpt>
      <trkpt lat="40.9701" lon="0.51542">
        <ele>33.2</ele>
        <time>2022-05-24 14:03:39</time>
      </trkpt>
      <trkpt lat="40.97005" lon="0.5154">
        <ele>33.2</ele>
        <time>2022-05-24 14:03:40</time>
      </trkpt>
      <trkpt lat="40.97001" lon="0.51538">
        <ele>33.2</ele>
        <time>2022-05-24 14:03:41</time>
      </trkpt>
      <trkpt lat="40.96996" lon="0.51536">
        <ele>33</ele>
        <time>2022-05-24 14:03:42</time>
      </trkpt>
      <trkpt lat="40.96991" lon="0.51535">
        <ele>33</ele>
        <time>2022-05-24 14:03:43</time>
      </trkpt>
      <trkpt lat="40.96986" lon="0.51533">
        <ele>33</ele>
        <time>2022-05-24 14:03:44</time>
      </trkpt>
      <trkpt lat="40.96982" lon="0.51531">
        <ele>33</ele>
        <time>2022-05-24 14:03:45</time>
      </trkpt>
      <trkpt lat="40.96977" lon="0.51529">
        <ele>33</ele>
        <time>2022-05-24 14:03:46</time>
      </trkpt>
      <trkpt lat="40.96972" lon="0.51527">
        <ele>33</ele>
        <time>2022-05-24 14:03:47</time>
      </trkpt>
      <trkpt lat="40.96967" lon="0.51525">
        <ele>33</ele>
        <time>2022-05-24 14:03:48</time>
      </trkpt>
      <trkpt lat="40.96962" lon="0.51523">
        <ele>33</ele>
        <time>2022-05-24 14:03:49</time>
      </trkpt>
      <trkpt lat="40.96957" lon="0.51521">
        <ele>33</ele>
        <time>2022-05-24 14:03:50</time>
      </trkpt>
      <trkpt lat="40.96952" lon="0.51519">
        <ele>33</ele>
        <time>2022-05-24 14:03:51</time>
      </trkpt>
      <trkpt lat="40.96947" lon="0.51517">
        <ele>33</ele>
        <time>2022-05-24 14:03:52</time>
      </trkpt>
      <trkpt lat="40.96943" lon="0.51515">
        <ele>33</ele>
        <time>2022-05-24 14:03:53</time>
      </trkpt>
      <trkpt lat="40.96937" lon="0.51513">
        <ele>33</ele>
        <time>2022-05-24 14:03:54</time>
      </trkpt>
      <trkpt lat="40.96932" lon="0.51511">
        <ele>33</ele>
        <time>2022-05-24 14:03:55</time>
      </trkpt>
      <trkpt lat="40.96927" lon="0.51509">
        <ele>33</ele>
        <time>2022-05-24 14:03:56</time>
      </trkpt>
      <trkpt lat="40.96922" lon="0.51508">
        <ele>33</ele>
        <time>2022-05-24 14:03:57</time>
      </trkpt>
      <trkpt lat="40.96917" lon="0.51506">
        <ele>33</ele>
        <time>2022-05-24 14:03:58</time>
      </trkpt>
      <trkpt lat="40.96912" lon="0.51505">
        <ele>33</ele>
        <time>2022-05-24 14:03:59</time>
      </trkpt>
      <trkpt lat="40.96907" lon="0.51503">
        <ele>33</ele>
        <time>2022-05-24 14:04:00</time>
      </trkpt>
      <trkpt lat="40.96902" lon="0.51501">
        <ele>33</ele>
        <time>2022-05-24 14:04:01</time>
      </trkpt>
      <trkpt lat="40.96898" lon="0.51499">
        <ele>33.2</ele>
        <time>2022-05-24 14:04:02</time>
      </trkpt>
      <trkpt lat="40.96893" lon="0.51497">
        <ele>33</ele>
        <time>2022-05-24 14:04:03</time>
      </trkpt>
      <trkpt lat="40.96888" lon="0.51496">
        <ele>33.2</ele>
        <time>2022-05-24 14:04:04</time>
      </trkpt>
      <trkpt lat="40.96883" lon="0.51494">
        <ele>33.2</ele>
        <time>2022-05-24 14:04:05</time>
      </trkpt>
      <trkpt lat="40.96878" lon="0.51492">
        <ele>33.2</ele>
        <time>2022-05-24 14:04:06</time>
      </trkpt>
      <trkpt lat="40.96874" lon="0.5149">
        <ele>33.2</ele>
        <time>2022-05-24 14:04:07</time>
      </trkpt>
      <trkpt lat="40.96869" lon="0.51487">
        <ele>33.2</ele>
        <time>2022-05-24 14:04:08</time>
      </trkpt>
      <trkpt lat="40.96865" lon="0.51485">
        <ele>33.2</ele>
        <time>2022-05-24 14:04:09</time>
      </trkpt>
      <trkpt lat="40.9686" lon="0.51482">
        <ele>33.2</ele>
        <time>2022-05-24 14:04:10</time>
      </trkpt>
      <trkpt lat="40.96857" lon="0.51479">
        <ele>33.2</ele>
        <time>2022-05-24 14:04:11</time>
      </trkpt>
      <trkpt lat="40.96852" lon="0.51475">
        <ele>33.2</ele>
        <time>2022-05-24 14:04:12</time>
      </trkpt>
      <trkpt lat="40.96848" lon="0.51471">
        <ele>33.2</ele>
        <time>2022-05-24 14:04:13</time>
      </trkpt>
      <trkpt lat="40.96843" lon="0.51468">
        <ele>33.2</ele>
        <time>2022-05-24 14:04:14</time>
      </trkpt>
      <trkpt lat="40.96839" lon="0.51464">
        <ele>33.2</ele>
        <time>2022-05-24 14:04:15</time>
      </trkpt>
      <trkpt lat="40.96835" lon="0.51461">
        <ele>33</ele>
        <time>2022-05-24 14:04:16</time>
      </trkpt>
      <trkpt lat="40.96831" lon="0.51457">
        <ele>33</ele>
        <time>2022-05-24 14:04:17</time>
      </trkpt>
      <trkpt lat="40.96827" lon="0.51454">
        <ele>33</ele>
        <time>2022-05-24 14:04:18</time>
      </trkpt>
      <trkpt lat="40.96822" lon="0.51451">
        <ele>33</ele>
        <time>2022-05-24 14:04:19</time>
      </trkpt>
      <trkpt lat="40.96818" lon="0.51447">
        <ele>33</ele>
        <time>2022-05-24 14:04:20</time>
      </trkpt>
      <trkpt lat="40.96813" lon="0.51445">
        <ele>33</ele>
        <time>2022-05-24 14:04:21</time>
      </trkpt>
      <trkpt lat="40.96808" lon="0.51442">
        <ele>33</ele>
        <time>2022-05-24 14:04:22</time>
      </trkpt>
      <trkpt lat="40.96804" lon="0.5144">
        <ele>33</ele>
        <time>2022-05-24 14:04:23</time>
      </trkpt>
      <trkpt lat="40.96798" lon="0.51438">
        <ele>33</ele>
        <time>2022-05-24 14:04:24</time>
      </trkpt>
      <trkpt lat="40.96794" lon="0.51437">
        <ele>33</ele>
        <time>2022-05-24 14:04:25</time>
      </trkpt>
      <trkpt lat="40.96789" lon="0.51435">
        <ele>33</ele>
        <time>2022-05-24 14:04:26</time>
      </trkpt>
      <trkpt lat="40.96784" lon="0.51434">
        <ele>33</ele>
        <time>2022-05-24 14:04:27</time>
      </trkpt>
      <trkpt lat="40.96779" lon="0.51433">
        <ele>33</ele>
        <time>2022-05-24 14:04:28</time>
      </trkpt>
      <trkpt lat="40.96774" lon="0.51431">
        <ele>32.8</ele>
        <time>2022-05-24 14:04:29</time>
      </trkpt>
      <trkpt lat="40.96769" lon="0.51429">
        <ele>32.8</ele>
        <time>2022-05-24 14:04:30</time>
      </trkpt>
      <trkpt lat="40.96764" lon="0.51428">
        <ele>32.8</ele>
        <time>2022-05-24 14:04:31</time>
      </trkpt>
      <trkpt lat="40.96759" lon="0.51426">
        <ele>32.8</ele>
        <time>2022-05-24 14:04:32</time>
      </trkpt>
      <trkpt lat="40.96754" lon="0.51424">
        <ele>32.8</ele>
        <time>2022-05-24 14:04:33</time>
      </trkpt>
      <trkpt lat="40.96749" lon="0.51423">
        <ele>32.8</ele>
        <time>2022-05-24 14:04:34</time>
      </trkpt>
      <trkpt lat="40.96744" lon="0.51422">
        <ele>32.8</ele>
        <time>2022-05-24 14:04:35</time>
      </trkpt>
      <trkpt lat="40.96739" lon="0.51421">
        <ele>32.8</ele>
        <time>2022-05-24 14:04:36</time>
      </trkpt>
      <trkpt lat="40.96734" lon="0.51421">
        <ele>32.8</ele>
        <time>2022-05-24 14:04:37</time>
      </trkpt>
      <trkpt lat="40.96729" lon="0.51422">
        <ele>32.8</ele>
        <time>2022-05-24 14:04:38</time>
      </trkpt>
      <trkpt lat="40.96724" lon="0.51423">
        <ele>32.8</ele>
        <time>2022-05-24 14:04:39</time>
      </trkpt>
      <trkpt lat="40.9672" lon="0.51425">
        <ele>32.8</ele>
        <time>2022-05-24 14:04:40</time>
      </trkpt>
      <trkpt lat="40.96715" lon="0.51426">
        <ele>32.8</ele>
        <time>2022-05-24 14:04:41</time>
      </trkpt>
      <trkpt lat="40.96711" lon="0.51429">
        <ele>32.8</ele>
        <time>2022-05-24 14:04:42</time>
      </trkpt>
      <trkpt lat="40.96706" lon="0.51431">
        <ele>32.8</ele>
        <time>2022-05-24 14:04:43</time>
      </trkpt>
      <trkpt lat="40.96702" lon="0.51434">
        <ele>32.8</ele>
        <time>2022-05-24 14:04:44</time>
      </trkpt>
      <trkpt lat="40.96698" lon="0.51436">
        <ele>32.8</ele>
        <time>2022-05-24 14:04:45</time>
      </trkpt>
      <trkpt lat="40.96693" lon="0.51438">
        <ele>32.8</ele>
        <time>2022-05-24 14:04:46</time>
      </trkpt>
      <trkpt lat="40.96689" lon="0.5144">
        <ele>33</ele>
        <time>2022-05-24 14:04:47</time>
      </trkpt>
      <trkpt lat="40.96684" lon="0.51441">
        <ele>33</ele>
        <time>2022-05-24 14:04:48</time>
      </trkpt>
      <trkpt lat="40.9668" lon="0.51442">
        <ele>33</ele>
        <time>2022-05-24 14:04:49</time>
      </trkpt>
      <trkpt lat="40.96675" lon="0.51441">
        <ele>33.2</ele>
        <time>2022-05-24 14:04:50</time>
      </trkpt>
      <trkpt lat="40.9667" lon="0.5144">
        <ele>33.2</ele>
        <time>2022-05-24 14:04:51</time>
      </trkpt>
      <trkpt lat="40.96666" lon="0.5144">
        <ele>33.2</ele>
        <time>2022-05-24 14:04:52</time>
      </trkpt>
      <trkpt lat="40.96661" lon="0.51439">
        <ele>33.2</ele>
        <time>2022-05-24 14:04:53</time>
      </trkpt>
      <trkpt lat="40.96656" lon="0.51438">
        <ele>33.2</ele>
        <time>2022-05-24 14:04:54</time>
      </trkpt>
      <trkpt lat="40.96652" lon="0.51437">
        <ele>33.2</ele>
        <time>2022-05-24 14:04:55</time>
      </trkpt>
      <trkpt lat="40.96647" lon="0.51436">
        <ele>33.2</ele>
        <time>2022-05-24 14:04:56</time>
      </trkpt>
      <trkpt lat="40.96643" lon="0.51436">
        <ele>33.2</ele>
        <time>2022-05-24 14:04:57</time>
      </trkpt>
      <trkpt lat="40.96638" lon="0.51435">
        <ele>33.2</ele>
        <time>2022-05-24 14:04:58</time>
      </trkpt>
      <trkpt lat="40.96633" lon="0.51434">
        <ele>33.2</ele>
        <time>2022-05-24 14:04:59</time>
      </trkpt>
      <trkpt lat="40.96629" lon="0.51434">
        <ele>33.2</ele>
        <time>2022-05-24 14:05:00</time>
      </trkpt>
      <trkpt lat="40.96624" lon="0.51433">
        <ele>33.2</ele>
        <time>2022-05-24 14:05:01</time>
      </trkpt>
      <trkpt lat="40.96619" lon="0.51432">
        <ele>33.2</ele>
        <time>2022-05-24 14:05:02</time>
      </trkpt>
      <trkpt lat="40.96614" lon="0.51431">
        <ele>33.2</ele>
        <time>2022-05-24 14:05:03</time>
      </trkpt>
      <trkpt lat="40.9661" lon="0.5143">
        <ele>33.2</ele>
        <time>2022-05-24 14:05:04</time>
      </trkpt>
      <trkpt lat="40.96605" lon="0.51429">
        <ele>33.2</ele>
        <time>2022-05-24 14:05:05</time>
      </trkpt>
      <trkpt lat="40.966" lon="0.51428">
        <ele>33.2</ele>
        <time>2022-05-24 14:05:06</time>
      </trkpt>
      <trkpt lat="40.96595" lon="0.51427">
        <ele>33.2</ele>
        <time>2022-05-24 14:05:07</time>
      </trkpt>
      <trkpt lat="40.9659" lon="0.51426">
        <ele>33.2</ele>
        <time>2022-05-24 14:05:08</time>
      </trkpt>
      <trkpt lat="40.96585" lon="0.51425">
        <ele>33.2</ele>
        <time>2022-05-24 14:05:09</time>
      </trkpt>
      <trkpt lat="40.9658" lon="0.51424">
        <ele>33.2</ele>
        <time>2022-05-24 14:05:10</time>
      </trkpt>
      <trkpt lat="40.96575" lon="0.51423">
        <ele>33.2</ele>
        <time>2022-05-24 14:05:11</time>
      </trkpt>
      <trkpt lat="40.96571" lon="0.51422">
        <ele>33.2</ele>
        <time>2022-05-24 14:05:12</time>
      </trkpt>
      <trkpt lat="40.96566" lon="0.5142">
        <ele>33.2</ele>
        <time>2022-05-24 14:05:13</time>
      </trkpt>
      <trkpt lat="40.96561" lon="0.51418">
        <ele>33.2</ele>
        <time>2022-05-24 14:05:14</time>
      </trkpt>
      <trkpt lat="40.96557" lon="0.51417">
        <ele>33.2</ele>
        <time>2022-05-24 14:05:15</time>
      </trkpt>
      <trkpt lat="40.96551" lon="0.51415">
        <ele>33.2</ele>
        <time>2022-05-24 14:05:16</time>
      </trkpt>
      <trkpt lat="40.96547" lon="0.51413">
        <ele>33.2</ele>
        <time>2022-05-24 14:05:17</time>
      </trkpt>
      <trkpt lat="40.96543" lon="0.51411">
        <ele>33.2</ele>
        <time>2022-05-24 14:05:18</time>
      </trkpt>
      <trkpt lat="40.96538" lon="0.51408">
        <ele>33.2</ele>
        <time>2022-05-24 14:05:19</time>
      </trkpt>
      <trkpt lat="40.96534" lon="0.51406">
        <ele>33.2</ele>
        <time>2022-05-24 14:05:20</time>
      </trkpt>
      <trkpt lat="40.9653" lon="0.51403">
        <ele>33.2</ele>
        <time>2022-05-24 14:05:21</time>
      </trkpt>
      <trkpt lat="40.96526" lon="0.51401">
        <ele>33</ele>
        <time>2022-05-24 14:05:22</time>
      </trkpt>
      <trkpt lat="40.96523" lon="0.51399">
        <ele>33</ele>
        <time>2022-05-24 14:05:23</time>
      </trkpt>
      <trkpt lat="40.96518" lon="0.51397">
        <ele>32.8</ele>
        <time>2022-05-24 14:05:24</time>
      </trkpt>
      <trkpt lat="40.96515" lon="0.51395">
        <ele>32.8</ele>
        <time>2022-05-24 14:05:25</time>
      </trkpt>
      <trkpt lat="40.96511" lon="0.51393">
        <ele>32.8</ele>
        <time>2022-05-24 14:05:26</time>
      </trkpt>
      <trkpt lat="40.96506" lon="0.51392">
        <ele>32.8</ele>
        <time>2022-05-24 14:05:27</time>
      </trkpt>
      <trkpt lat="40.96503" lon="0.51391">
        <ele>32.8</ele>
        <time>2022-05-24 14:05:28</time>
      </trkpt>
      <trkpt lat="40.96498" lon="0.51391">
        <ele>33</ele>
        <time>2022-05-24 14:05:29</time>
      </trkpt>
      <trkpt lat="40.96494" lon="0.51391">
        <ele>33</ele>
        <time>2022-05-24 14:05:30</time>
      </trkpt>
      <trkpt lat="40.96489" lon="0.5139">
        <ele>33</ele>
        <time>2022-05-24 14:05:31</time>
      </trkpt>
      <trkpt lat="40.96484" lon="0.5139">
        <ele>33</ele>
        <time>2022-05-24 14:05:32</time>
      </trkpt>
      <trkpt lat="40.9648" lon="0.51389">
        <ele>33</ele>
        <time>2022-05-24 14:05:33</time>
      </trkpt>
      <trkpt lat="40.96475" lon="0.51389">
        <ele>33</ele>
        <time>2022-05-24 14:05:34</time>
      </trkpt>
      <trkpt lat="40.96471" lon="0.51389">
        <ele>33</ele>
        <time>2022-05-24 14:05:35</time>
      </trkpt>
      <trkpt lat="40.96466" lon="0.51388">
        <ele>33</ele>
        <time>2022-05-24 14:05:36</time>
      </trkpt>
      <trkpt lat="40.96462" lon="0.51388">
        <ele>33.2</ele>
        <time>2022-05-24 14:05:37</time>
      </trkpt>
      <trkpt lat="40.96457" lon="0.51387">
        <ele>33</ele>
        <time>2022-05-24 14:05:38</time>
      </trkpt>
      <trkpt lat="40.96453" lon="0.51387">
        <ele>33.2</ele>
        <time>2022-05-24 14:05:39</time>
      </trkpt>
      <trkpt lat="40.96448" lon="0.51387">
        <ele>33.2</ele>
        <time>2022-05-24 14:05:40</time>
      </trkpt>
      <trkpt lat="40.96444" lon="0.51388">
        <ele>33.2</ele>
        <time>2022-05-24 14:05:41</time>
      </trkpt>
      <trkpt lat="40.96439" lon="0.51388">
        <ele>33.2</ele>
        <time>2022-05-24 14:05:42</time>
      </trkpt>
      <trkpt lat="40.96435" lon="0.51387">
        <ele>33.4</ele>
        <time>2022-05-24 14:05:43</time>
      </trkpt>
      <trkpt lat="40.96431" lon="0.51387">
        <ele>33.4</ele>
        <time>2022-05-24 14:05:44</time>
      </trkpt>
      <trkpt lat="40.96426" lon="0.51387">
        <ele>33.4</ele>
        <time>2022-05-24 14:05:45</time>
      </trkpt>
      <trkpt lat="40.96422" lon="0.51387">
        <ele>33.4</ele>
        <time>2022-05-24 14:05:46</time>
      </trkpt>
      <trkpt lat="40.96418" lon="0.51387">
        <ele>33.6</ele>
        <time>2022-05-24 14:05:47</time>
      </trkpt>
      <trkpt lat="40.96413" lon="0.51386">
        <ele>33.6</ele>
        <time>2022-05-24 14:05:48</time>
      </trkpt>
      <trkpt lat="40.96408" lon="0.51386">
        <ele>33.6</ele>
        <time>2022-05-24 14:05:49</time>
      </trkpt>
      <trkpt lat="40.96404" lon="0.51386">
        <ele>33.8</ele>
        <time>2022-05-24 14:05:50</time>
      </trkpt>
      <trkpt lat="40.964" lon="0.51386">
        <ele>33.8</ele>
        <time>2022-05-24 14:05:51</time>
      </trkpt>
      <trkpt lat="40.96395" lon="0.51386">
        <ele>34</ele>
        <time>2022-05-24 14:05:52</time>
      </trkpt>
      <trkpt lat="40.96391" lon="0.51386">
        <ele>34</ele>
        <time>2022-05-24 14:05:53</time>
      </trkpt>
      <trkpt lat="40.96387" lon="0.51387">
        <ele>34</ele>
        <time>2022-05-24 14:05:54</time>
      </trkpt>
      <trkpt lat="40.96384" lon="0.51387">
        <ele>34.2</ele>
        <time>2022-05-24 14:05:55</time>
      </trkpt>
      <trkpt lat="40.9638" lon="0.51387">
        <ele>34.2</ele>
        <time>2022-05-24 14:05:56</time>
      </trkpt>
      <trkpt lat="40.96376" lon="0.51387">
        <ele>34.2</ele>
        <time>2022-05-24 14:05:57</time>
      </trkpt>
      <trkpt lat="40.96371" lon="0.51386">
        <ele>34.4</ele>
        <time>2022-05-24 14:05:58</time>
      </trkpt>
      <trkpt lat="40.96367" lon="0.51386">
        <ele>34.4</ele>
        <time>2022-05-24 14:05:59</time>
      </trkpt>
      <trkpt lat="40.96362" lon="0.51387">
        <ele>34.4</ele>
        <time>2022-05-24 14:06:00</time>
      </trkpt>
      <trkpt lat="40.96358" lon="0.51387">
        <ele>34.4</ele>
        <time>2022-05-24 14:06:01</time>
      </trkpt>
      <trkpt lat="40.96353" lon="0.51387">
        <ele>34.6</ele>
        <time>2022-05-24 14:06:02</time>
      </trkpt>
      <trkpt lat="40.96348" lon="0.51388">
        <ele>34.6</ele>
        <time>2022-05-24 14:06:03</time>
      </trkpt>
      <trkpt lat="40.96344" lon="0.51388">
        <ele>34.6</ele>
        <time>2022-05-24 14:06:04</time>
      </trkpt>
      <trkpt lat="40.96341" lon="0.51388">
        <ele>34.8</ele>
        <time>2022-05-24 14:06:05</time>
      </trkpt>
      <trkpt lat="40.96336" lon="0.51389">
        <ele>34.8</ele>
        <time>2022-05-24 14:06:06</time>
      </trkpt>
      <trkpt lat="40.96332" lon="0.51389">
        <ele>34.8</ele>
        <time>2022-05-24 14:06:07</time>
      </trkpt>
      <trkpt lat="40.96328" lon="0.51389">
        <ele>34.8</ele>
        <time>2022-05-24 14:06:08</time>
      </trkpt>
      <trkpt lat="40.96324" lon="0.51389">
        <ele>34.8</ele>
        <time>2022-05-24 14:06:09</time>
      </trkpt>
      <trkpt lat="40.9632" lon="0.51389">
        <ele>35</ele>
        <time>2022-05-24 14:06:10</time>
      </trkpt>
      <trkpt lat="40.96315" lon="0.51389">
        <ele>35</ele>
        <time>2022-05-24 14:06:11</time>
      </trkpt>
      <trkpt lat="40.96311" lon="0.51389">
        <ele>35</ele>
        <time>2022-05-24 14:06:12</time>
      </trkpt>
      <trkpt lat="40.96307" lon="0.51388">
        <ele>35</ele>
        <time>2022-05-24 14:06:13</time>
      </trkpt>
      <trkpt lat="40.96302" lon="0.51387">
        <ele>35.2</ele>
        <time>2022-05-24 14:06:14</time>
      </trkpt>
      <trkpt lat="40.96298" lon="0.51386">
        <ele>35.2</ele>
        <time>2022-05-24 14:06:15</time>
      </trkpt>
      <trkpt lat="40.96294" lon="0.51385">
        <ele>35.4</ele>
        <time>2022-05-24 14:06:16</time>
      </trkpt>
      <trkpt lat="40.9629" lon="0.51385">
        <ele>35.4</ele>
        <time>2022-05-24 14:06:17</time>
      </trkpt>
      <trkpt lat="40.96285" lon="0.51384">
        <ele>35.4</ele>
        <time>2022-05-24 14:06:18</time>
      </trkpt>
      <trkpt lat="40.96281" lon="0.51384">
        <ele>35.6</ele>
        <time>2022-05-24 14:06:19</time>
      </trkpt>
      <trkpt lat="40.96276" lon="0.51383">
        <ele>35.6</ele>
        <time>2022-05-24 14:06:20</time>
      </trkpt>
      <trkpt lat="40.96272" lon="0.51383">
        <ele>35.6</ele>
        <time>2022-05-24 14:06:21</time>
      </trkpt>
      <trkpt lat="40.96266" lon="0.51382">
        <ele>35.6</ele>
        <time>2022-05-24 14:06:22</time>
      </trkpt>
      <trkpt lat="40.96262" lon="0.51382">
        <ele>35.6</ele>
        <time>2022-05-24 14:06:23</time>
      </trkpt>
      <trkpt lat="40.96257" lon="0.51382">
        <ele>35.6</ele>
        <time>2022-05-24 14:06:24</time>
      </trkpt>
      <trkpt lat="40.96252" lon="0.51381">
        <ele>35.6</ele>
        <time>2022-05-24 14:06:25</time>
      </trkpt>
      <trkpt lat="40.96247" lon="0.51381">
        <ele>35.6</ele>
        <time>2022-05-24 14:06:26</time>
      </trkpt>
      <trkpt lat="40.96243" lon="0.5138">
        <ele>35.4</ele>
        <time>2022-05-24 14:06:27</time>
      </trkpt>
      <trkpt lat="40.96239" lon="0.5138">
        <ele>35.4</ele>
        <time>2022-05-24 14:06:28</time>
      </trkpt>
      <trkpt lat="40.96235" lon="0.5138">
        <ele>35.4</ele>
        <time>2022-05-24 14:06:29</time>
      </trkpt>
      <trkpt lat="40.9623" lon="0.51379">
        <ele>35.4</ele>
        <time>2022-05-24 14:06:30</time>
      </trkpt>
      <trkpt lat="40.96225" lon="0.51379">
        <ele>35.4</ele>
        <time>2022-05-24 14:06:31</time>
      </trkpt>
      <trkpt lat="40.96221" lon="0.51378">
        <ele>35.4</ele>
        <time>2022-05-24 14:06:32</time>
      </trkpt>
      <trkpt lat="40.96216" lon="0.51378">
        <ele>35.4</ele>
        <time>2022-05-24 14:06:33</time>
      </trkpt>
      <trkpt lat="40.96211" lon="0.51377">
        <ele>35.4</ele>
        <time>2022-05-24 14:06:34</time>
      </trkpt>
      <trkpt lat="40.96206" lon="0.51377">
        <ele>35.4</ele>
        <time>2022-05-24 14:06:35</time>
      </trkpt>
      <trkpt lat="40.96201" lon="0.51377">
        <ele>35.4</ele>
        <time>2022-05-24 14:06:36</time>
      </trkpt>
      <trkpt lat="40.96196" lon="0.51376">
        <ele>35.4</ele>
        <time>2022-05-24 14:06:37</time>
      </trkpt>
      <trkpt lat="40.96192" lon="0.51376">
        <ele>35.4</ele>
        <time>2022-05-24 14:06:38</time>
      </trkpt>
      <trkpt lat="40.96187" lon="0.51375">
        <ele>35.4</ele>
        <time>2022-05-24 14:06:39</time>
      </trkpt>
      <trkpt lat="40.96183" lon="0.51375">
        <ele>35.4</ele>
        <time>2022-05-24 14:06:40</time>
      </trkpt>
      <trkpt lat="40.96177" lon="0.51374">
        <ele>35.4</ele>
        <time>2022-05-24 14:06:41</time>
      </trkpt>
      <trkpt lat="40.96173" lon="0.51373">
        <ele>35.2</ele>
        <time>2022-05-24 14:06:42</time>
      </trkpt>
      <trkpt lat="40.96167" lon="0.51373">
        <ele>35.2</ele>
        <time>2022-05-24 14:06:43</time>
      </trkpt>
      <trkpt lat="40.96163" lon="0.51372">
        <ele>35.2</ele>
        <time>2022-05-24 14:06:44</time>
      </trkpt>
      <trkpt lat="40.96157" lon="0.51371">
        <ele>35.4</ele>
        <time>2022-05-24 14:06:45</time>
      </trkpt>
      <trkpt lat="40.96152" lon="0.51369">
        <ele>35.2</ele>
        <time>2022-05-24 14:06:46</time>
      </trkpt>
      <trkpt lat="40.96146" lon="0.51368">
        <ele>35.2</ele>
        <time>2022-05-24 14:06:47</time>
      </trkpt>
      <trkpt lat="40.96142" lon="0.51367">
        <ele>35.2</ele>
        <time>2022-05-24 14:06:48</time>
      </trkpt>
      <trkpt lat="40.96136" lon="0.51366">
        <ele>35.2</ele>
        <time>2022-05-24 14:06:49</time>
      </trkpt>
      <trkpt lat="40.96132" lon="0.51365">
        <ele>35.2</ele>
        <time>2022-05-24 14:06:50</time>
      </trkpt>
      <trkpt lat="40.96126" lon="0.51364">
        <ele>35.2</ele>
        <time>2022-05-24 14:06:51</time>
      </trkpt>
      <trkpt lat="40.96122" lon="0.51363">
        <ele>35.2</ele>
        <time>2022-05-24 14:06:52</time>
      </trkpt>
      <trkpt lat="40.96116" lon="0.51362">
        <ele>35.2</ele>
        <time>2022-05-24 14:06:53</time>
      </trkpt>
      <trkpt lat="40.96112" lon="0.51361">
        <ele>35.2</ele>
        <time>2022-05-24 14:06:54</time>
      </trkpt>
      <trkpt lat="40.96106" lon="0.5136">
        <ele>35.2</ele>
        <time>2022-05-24 14:06:55</time>
      </trkpt>
      <trkpt lat="40.96102" lon="0.51359">
        <ele>35.2</ele>
        <time>2022-05-24 14:06:56</time>
      </trkpt>
      <trkpt lat="40.96096" lon="0.51358">
        <ele>35.2</ele>
        <time>2022-05-24 14:06:57</time>
      </trkpt>
      <trkpt lat="40.96091" lon="0.51357">
        <ele>35.2</ele>
        <time>2022-05-24 14:06:58</time>
      </trkpt>
      <trkpt lat="40.96086" lon="0.51356">
        <ele>35.2</ele>
        <time>2022-05-24 14:06:59</time>
      </trkpt>
      <trkpt lat="40.96081" lon="0.51354">
        <ele>35.2</ele>
        <time>2022-05-24 14:07:00</time>
      </trkpt>
      <trkpt lat="40.96076" lon="0.51353">
        <ele>35.2</ele>
        <time>2022-05-24 14:07:01</time>
      </trkpt>
      <trkpt lat="40.96071" lon="0.51352">
        <ele>35.2</ele>
        <time>2022-05-24 14:07:02</time>
      </trkpt>
      <trkpt lat="40.96065" lon="0.51351">
        <ele>35.2</ele>
        <time>2022-05-24 14:07:03</time>
      </trkpt>
      <trkpt lat="40.9606" lon="0.5135">
        <ele>35.2</ele>
        <time>2022-05-24 14:07:04</time>
      </trkpt>
      <trkpt lat="40.96055" lon="0.51349">
        <ele>35.2</ele>
        <time>2022-05-24 14:07:05</time>
      </trkpt>
      <trkpt lat="40.9605" lon="0.51347">
        <ele>35.2</ele>
        <time>2022-05-24 14:07:06</time>
      </trkpt>
      <trkpt lat="40.96044" lon="0.51346">
        <ele>35.2</ele>
        <time>2022-05-24 14:07:07</time>
      </trkpt>
      <trkpt lat="40.96039" lon="0.51344">
        <ele>35.2</ele>
        <time>2022-05-24 14:07:08</time>
      </trkpt>
      <trkpt lat="40.96034" lon="0.51342">
        <ele>35.2</ele>
        <time>2022-05-24 14:07:09</time>
      </trkpt>
      <trkpt lat="40.96029" lon="0.5134">
        <ele>35.2</ele>
        <time>2022-05-24 14:07:10</time>
      </trkpt>
      <trkpt lat="40.96024" lon="0.51338">
        <ele>35.2</ele>
        <time>2022-05-24 14:07:11</time>
      </trkpt>
      <trkpt lat="40.96019" lon="0.51335">
        <ele>35.2</ele>
        <time>2022-05-24 14:07:12</time>
      </trkpt>
      <trkpt lat="40.96014" lon="0.51332">
        <ele>35.2</ele>
        <time>2022-05-24 14:07:13</time>
      </trkpt>
      <trkpt lat="40.9601" lon="0.51329">
        <ele>35.2</ele>
        <time>2022-05-24 14:07:14</time>
      </trkpt>
      <trkpt lat="40.96005" lon="0.51325">
        <ele>35.2</ele>
        <time>2022-05-24 14:07:15</time>
      </trkpt>
      <trkpt lat="40.96001" lon="0.51321">
        <ele>35.2</ele>
        <time>2022-05-24 14:07:16</time>
      </trkpt>
      <trkpt lat="40.95995" lon="0.51318">
        <ele>35.4</ele>
        <time>2022-05-24 14:07:17</time>
      </trkpt>
      <trkpt lat="40.95992" lon="0.51315">
        <ele>35.4</ele>
        <time>2022-05-24 14:07:18</time>
      </trkpt>
      <trkpt lat="40.95987" lon="0.5131">
        <ele>35.4</ele>
        <time>2022-05-24 14:07:19</time>
      </trkpt>
      <trkpt lat="40.95983" lon="0.51306">
        <ele>35.4</ele>
        <time>2022-05-24 14:07:20</time>
      </trkpt>
      <trkpt lat="40.95979" lon="0.51302">
        <ele>35.4</ele>
        <time>2022-05-24 14:07:21</time>
      </trkpt>
      <trkpt lat="40.95974" lon="0.51298">
        <ele>35.4</ele>
        <time>2022-05-24 14:07:22</time>
      </trkpt>
      <trkpt lat="40.9597" lon="0.51294">
        <ele>35.4</ele>
        <time>2022-05-24 14:07:23</time>
      </trkpt>
      <trkpt lat="40.95965" lon="0.51291">
        <ele>35.4</ele>
        <time>2022-05-24 14:07:24</time>
      </trkpt>
      <trkpt lat="40.9596" lon="0.51286">
        <ele>35.4</ele>
        <time>2022-05-24 14:07:25</time>
      </trkpt>
      <trkpt lat="40.95956" lon="0.51282">
        <ele>35.4</ele>
        <time>2022-05-24 14:07:26</time>
      </trkpt>
      <trkpt lat="40.95952" lon="0.51278">
        <ele>35.4</ele>
        <time>2022-05-24 14:07:27</time>
      </trkpt>
      <trkpt lat="40.95948" lon="0.51275">
        <ele>35.4</ele>
        <time>2022-05-24 14:07:28</time>
      </trkpt>
      <trkpt lat="40.95944" lon="0.51271">
        <ele>35.4</ele>
        <time>2022-05-24 14:07:29</time>
      </trkpt>
      <trkpt lat="40.95939" lon="0.51266">
        <ele>35.4</ele>
        <time>2022-05-24 14:07:30</time>
      </trkpt>
      <trkpt lat="40.95935" lon="0.51262">
        <ele>35.4</ele>
        <time>2022-05-24 14:07:31</time>
      </trkpt>
      <trkpt lat="40.95931" lon="0.51258">
        <ele>35.4</ele>
        <time>2022-05-24 14:07:32</time>
      </trkpt>
      <trkpt lat="40.95927" lon="0.51254">
        <ele>35.6</ele>
        <time>2022-05-24 14:07:33</time>
      </trkpt>
      <trkpt lat="40.95924" lon="0.5125">
        <ele>35.4</ele>
        <time>2022-05-24 14:07:34</time>
      </trkpt>
      <trkpt lat="40.9592" lon="0.51246">
        <ele>35.6</ele>
        <time>2022-05-24 14:07:35</time>
      </trkpt>
      <trkpt lat="40.95916" lon="0.51242">
        <ele>35.6</ele>
        <time>2022-05-24 14:07:36</time>
      </trkpt>
      <trkpt lat="40.95912" lon="0.51237">
        <ele>35.6</ele>
        <time>2022-05-24 14:07:37</time>
      </trkpt>
      <trkpt lat="40.95909" lon="0.51233">
        <ele>35.6</ele>
        <time>2022-05-24 14:07:38</time>
      </trkpt>
      <trkpt lat="40.95906" lon="0.51228">
        <ele>35.6</ele>
        <time>2022-05-24 14:07:39</time>
      </trkpt>
      <trkpt lat="40.95903" lon="0.51223">
        <ele>35.8</ele>
        <time>2022-05-24 14:07:40</time>
      </trkpt>
      <trkpt lat="40.95901" lon="0.51218">
        <ele>35.8</ele>
        <time>2022-05-24 14:07:41</time>
      </trkpt>
      <trkpt lat="40.95899" lon="0.51213">
        <ele>36</ele>
        <time>2022-05-24 14:07:42</time>
      </trkpt>
      <trkpt lat="40.95897" lon="0.51209">
        <ele>36</ele>
        <time>2022-05-24 14:07:43</time>
      </trkpt>
      <trkpt lat="40.95895" lon="0.51204">
        <ele>36.2</ele>
        <time>2022-05-24 14:07:44</time>
      </trkpt>
      <trkpt lat="40.95893" lon="0.51199">
        <ele>36.4</ele>
        <time>2022-05-24 14:07:45</time>
      </trkpt>
      <trkpt lat="40.95892" lon="0.51194">
        <ele>36.6</ele>
        <time>2022-05-24 14:07:46</time>
      </trkpt>
      <trkpt lat="40.9589" lon="0.5119">
        <ele>36.6</ele>
        <time>2022-05-24 14:07:47</time>
      </trkpt>
      <trkpt lat="40.95887" lon="0.51185">
        <ele>36.8</ele>
        <time>2022-05-24 14:07:48</time>
      </trkpt>
      <trkpt lat="40.95884" lon="0.5118">
        <ele>36.8</ele>
        <time>2022-05-24 14:07:49</time>
      </trkpt>
      <trkpt lat="40.95881" lon="0.51175">
        <ele>37</ele>
        <time>2022-05-24 14:07:50</time>
      </trkpt>
      <trkpt lat="40.95878" lon="0.51171">
        <ele>37</ele>
        <time>2022-05-24 14:07:51</time>
      </trkpt>
      <trkpt lat="40.95875" lon="0.51166">
        <ele>37.2</ele>
        <time>2022-05-24 14:07:52</time>
      </trkpt>
      <trkpt lat="40.95873" lon="0.5116">
        <ele>37.2</ele>
        <time>2022-05-24 14:07:53</time>
      </trkpt>
      <trkpt lat="40.9587" lon="0.51155">
        <ele>37.4</ele>
        <time>2022-05-24 14:07:54</time>
      </trkpt>
      <trkpt lat="40.95867" lon="0.5115">
        <ele>37.4</ele>
        <time>2022-05-24 14:07:55</time>
      </trkpt>
      <trkpt lat="40.95864" lon="0.51145">
        <ele>37.6</ele>
        <time>2022-05-24 14:07:56</time>
      </trkpt>
      <trkpt lat="40.95861" lon="0.5114">
        <ele>37.6</ele>
        <time>2022-05-24 14:07:57</time>
      </trkpt>
      <trkpt lat="40.95859" lon="0.51136">
        <ele>37.8</ele>
        <time>2022-05-24 14:07:58</time>
      </trkpt>
      <trkpt lat="40.95855" lon="0.51131">
        <ele>38</ele>
        <time>2022-05-24 14:07:59</time>
      </trkpt>
      <trkpt lat="40.95852" lon="0.51127">
        <ele>38</ele>
        <time>2022-05-24 14:08:00</time>
      </trkpt>
      <trkpt lat="40.95849" lon="0.51122">
        <ele>38.2</ele>
        <time>2022-05-24 14:08:01</time>
      </trkpt>
      <trkpt lat="40.95845" lon="0.51118">
        <ele>38.2</ele>
        <time>2022-05-24 14:08:02</time>
      </trkpt>
      <trkpt lat="40.95841" lon="0.51115">
        <ele>38.4</ele>
        <time>2022-05-24 14:08:03</time>
      </trkpt>
      <trkpt lat="40.95837" lon="0.51111">
        <ele>38.6</ele>
        <time>2022-05-24 14:08:04</time>
      </trkpt>
      <trkpt lat="40.95833" lon="0.51108">
        <ele>38.8</ele>
        <time>2022-05-24 14:08:05</time>
      </trkpt>
      <trkpt lat="40.9583" lon="0.51104">
        <ele>38.8</ele>
        <time>2022-05-24 14:08:06</time>
      </trkpt>
      <trkpt lat="40.95826" lon="0.511">
        <ele>39</ele>
        <time>2022-05-24 14:08:07</time>
      </trkpt>
      <trkpt lat="40.95824" lon="0.51096">
        <ele>39.2</ele>
        <time>2022-05-24 14:08:08</time>
      </trkpt>
      <trkpt lat="40.95821" lon="0.51092">
        <ele>39.4</ele>
        <time>2022-05-24 14:08:09</time>
      </trkpt>
      <trkpt lat="40.9582" lon="0.51087">
        <ele>39.6</ele>
        <time>2022-05-24 14:08:10</time>
      </trkpt>
      <trkpt lat="40.95819" lon="0.51083">
        <ele>39.6</ele>
        <time>2022-05-24 14:08:11</time>
      </trkpt>
      <trkpt lat="40.95817" lon="0.51078">
        <ele>39.8</ele>
        <time>2022-05-24 14:08:12</time>
      </trkpt>
      <trkpt lat="40.95815" lon="0.51073">
        <ele>40</ele>
        <time>2022-05-24 14:08:13</time>
      </trkpt>
      <trkpt lat="40.95813" lon="0.51069">
        <ele>40</ele>
        <time>2022-05-24 14:08:14</time>
      </trkpt>
      <trkpt lat="40.95812" lon="0.51065">
        <ele>40.2</ele>
        <time>2022-05-24 14:08:15</time>
      </trkpt>
      <trkpt lat="40.9581" lon="0.5106">
        <ele>40.4</ele>
        <time>2022-05-24 14:08:16</time>
      </trkpt>
      <trkpt lat="40.95807" lon="0.51056">
        <ele>40.4</ele>
        <time>2022-05-24 14:08:17</time>
      </trkpt>
      <trkpt lat="40.95805" lon="0.51052">
        <ele>40.6</ele>
        <time>2022-05-24 14:08:18</time>
      </trkpt>
      <trkpt lat="40.95803" lon="0.51047">
        <ele>40.8</ele>
        <time>2022-05-24 14:08:19</time>
      </trkpt>
      <trkpt lat="40.95801" lon="0.51042">
        <ele>41</ele>
        <time>2022-05-24 14:08:20</time>
      </trkpt>
      <trkpt lat="40.95798" lon="0.51038">
        <ele>41</ele>
        <time>2022-05-24 14:08:21</time>
      </trkpt>
      <trkpt lat="40.95796" lon="0.51034">
        <ele>41.2</ele>
        <time>2022-05-24 14:08:22</time>
      </trkpt>
      <trkpt lat="40.95794" lon="0.5103">
        <ele>41.4</ele>
        <time>2022-05-24 14:08:23</time>
      </trkpt>
      <trkpt lat="40.95792" lon="0.51026">
        <ele>41.4</ele>
        <time>2022-05-24 14:08:24</time>
      </trkpt>
      <trkpt lat="40.95789" lon="0.51022">
        <ele>41.6</ele>
        <time>2022-05-24 14:08:25</time>
      </trkpt>
      <trkpt lat="40.95787" lon="0.51019">
        <ele>41.8</ele>
        <time>2022-05-24 14:08:26</time>
      </trkpt>
      <trkpt lat="40.95785" lon="0.51015">
        <ele>41.8</ele>
        <time>2022-05-24 14:08:27</time>
      </trkpt>
      <trkpt lat="40.95783" lon="0.5101">
        <ele>42</ele>
        <time>2022-05-24 14:08:28</time>
      </trkpt>
      <trkpt lat="40.95781" lon="0.51006">
        <ele>42</ele>
        <time>2022-05-24 14:08:29</time>
      </trkpt>
      <trkpt lat="40.9578" lon="0.51002">
        <ele>42.2</ele>
        <time>2022-05-24 14:08:30</time>
      </trkpt>
      <trkpt lat="40.95778" lon="0.50997">
        <ele>42.2</ele>
        <time>2022-05-24 14:08:31</time>
      </trkpt>
      <trkpt lat="40.95776" lon="0.50991">
        <ele>42.2</ele>
        <time>2022-05-24 14:08:32</time>
      </trkpt>
      <trkpt lat="40.95775" lon="0.50985">
        <ele>42</ele>
        <time>2022-05-24 14:08:33</time>
      </trkpt>
      <trkpt lat="40.95773" lon="0.5098">
        <ele>42</ele>
        <time>2022-05-24 14:08:34</time>
      </trkpt>
      <trkpt lat="40.95772" lon="0.50973">
        <ele>41.8</ele>
        <time>2022-05-24 14:08:35</time>
      </trkpt>
      <trkpt lat="40.9577" lon="0.50967">
        <ele>41.6</ele>
        <time>2022-05-24 14:08:36</time>
      </trkpt>
      <trkpt lat="40.95769" lon="0.5096">
        <ele>41.4</ele>
        <time>2022-05-24 14:08:37</time>
      </trkpt>
      <trkpt lat="40.95766" lon="0.50953">
        <ele>41.4</ele>
        <time>2022-05-24 14:08:38</time>
      </trkpt>
      <trkpt lat="40.95764" lon="0.50946">
        <ele>41.2</ele>
        <time>2022-05-24 14:08:39</time>
      </trkpt>
      <trkpt lat="40.95762" lon="0.50939">
        <ele>41</ele>
        <time>2022-05-24 14:08:40</time>
      </trkpt>
      <trkpt lat="40.9576" lon="0.50932">
        <ele>40.8</ele>
        <time>2022-05-24 14:08:41</time>
      </trkpt>
      <trkpt lat="40.95756" lon="0.50925">
        <ele>40.4</ele>
        <time>2022-05-24 14:08:42</time>
      </trkpt>
      <trkpt lat="40.95752" lon="0.50918">
        <ele>40.2</ele>
        <time>2022-05-24 14:08:43</time>
      </trkpt>
      <trkpt lat="40.95749" lon="0.50911">
        <ele>40</ele>
        <time>2022-05-24 14:08:44</time>
      </trkpt>
      <trkpt lat="40.95745" lon="0.50903">
        <ele>39.8</ele>
        <time>2022-05-24 14:08:45</time>
      </trkpt>
      <trkpt lat="40.95743" lon="0.50896">
        <ele>39.6</ele>
        <time>2022-05-24 14:08:46</time>
      </trkpt>
      <trkpt lat="40.95741" lon="0.50888">
        <ele>39.4</ele>
        <time>2022-05-24 14:08:47</time>
      </trkpt>
      <trkpt lat="40.95741" lon="0.50879">
        <ele>39.4</ele>
        <time>2022-05-24 14:08:48</time>
      </trkpt>
      <trkpt lat="40.9574" lon="0.50872">
        <ele>39.4</ele>
        <time>2022-05-24 14:08:49</time>
      </trkpt>
      <trkpt lat="40.95739" lon="0.50863">
        <ele>39.4</ele>
        <time>2022-05-24 14:08:50</time>
      </trkpt>
      <trkpt lat="40.95738" lon="0.50857">
        <ele>39.6</ele>
        <time>2022-05-24 14:08:51</time>
      </trkpt>
      <trkpt lat="40.95736" lon="0.50849">
        <ele>39.8</ele>
        <time>2022-05-24 14:08:52</time>
      </trkpt>
      <trkpt lat="40.95735" lon="0.50843">
        <ele>39.8</ele>
        <time>2022-05-24 14:08:53</time>
      </trkpt>
      <trkpt lat="40.95734" lon="0.50837">
        <ele>40</ele>
        <time>2022-05-24 14:08:54</time>
      </trkpt>
      <trkpt lat="40.95733" lon="0.5083">
        <ele>40.2</ele>
        <time>2022-05-24 14:08:55</time>
      </trkpt>
      <trkpt lat="40.95731" lon="0.50824">
        <ele>40.4</ele>
        <time>2022-05-24 14:08:56</time>
      </trkpt>
      <trkpt lat="40.95729" lon="0.50818">
        <ele>40.6</ele>
        <time>2022-05-24 14:08:57</time>
      </trkpt>
      <trkpt lat="40.95727" lon="0.50812">
        <ele>40.6</ele>
        <time>2022-05-24 14:08:58</time>
      </trkpt>
      <trkpt lat="40.95726" lon="0.50806">
        <ele>40.8</ele>
        <time>2022-05-24 14:08:59</time>
      </trkpt>
      <trkpt lat="40.95724" lon="0.508">
        <ele>41</ele>
        <time>2022-05-24 14:09:00</time>
      </trkpt>
      <trkpt lat="40.95722" lon="0.50796">
        <ele>41.2</ele>
        <time>2022-05-24 14:09:01</time>
      </trkpt>
      <trkpt lat="40.9572" lon="0.5079">
        <ele>41.4</ele>
        <time>2022-05-24 14:09:02</time>
      </trkpt>
      <trkpt lat="40.95718" lon="0.50785">
        <ele>41.6</ele>
        <time>2022-05-24 14:09:03</time>
      </trkpt>
      <trkpt lat="40.95716" lon="0.5078">
        <ele>41.8</ele>
        <time>2022-05-24 14:09:04</time>
      </trkpt>
      <trkpt lat="40.95715" lon="0.50775">
        <ele>42</ele>
        <time>2022-05-24 14:09:05</time>
      </trkpt>
      <trkpt lat="40.95713" lon="0.50769">
        <ele>42</ele>
        <time>2022-05-24 14:09:06</time>
      </trkpt>
      <trkpt lat="40.95711" lon="0.50765">
        <ele>42.2</ele>
        <time>2022-05-24 14:09:07</time>
      </trkpt>
      <trkpt lat="40.95708" lon="0.50759">
        <ele>42.2</ele>
        <time>2022-05-24 14:09:08</time>
      </trkpt>
      <trkpt lat="40.95706" lon="0.50755">
        <ele>42.4</ele>
        <time>2022-05-24 14:09:09</time>
      </trkpt>
      <trkpt lat="40.95704" lon="0.5075">
        <ele>42.4</ele>
        <time>2022-05-24 14:09:10</time>
      </trkpt>
      <trkpt lat="40.95701" lon="0.50745">
        <ele>42.4</ele>
        <time>2022-05-24 14:09:11</time>
      </trkpt>
      <trkpt lat="40.95699" lon="0.5074">
        <ele>42.4</ele>
        <time>2022-05-24 14:09:12</time>
      </trkpt>
      <trkpt lat="40.95696" lon="0.50734">
        <ele>42.4</ele>
        <time>2022-05-24 14:09:13</time>
      </trkpt>
      <trkpt lat="40.95694" lon="0.50728">
        <ele>42.2</ele>
        <time>2022-05-24 14:09:14</time>
      </trkpt>
      <trkpt lat="40.95692" lon="0.50723">
        <ele>42.2</ele>
        <time>2022-05-24 14:09:15</time>
      </trkpt>
      <trkpt lat="40.95689" lon="0.50716">
        <ele>42.2</ele>
        <time>2022-05-24 14:09:16</time>
      </trkpt>
      <trkpt lat="40.95686" lon="0.50711">
        <ele>42</ele>
        <time>2022-05-24 14:09:17</time>
      </trkpt>
      <trkpt lat="40.95683" lon="0.50703">
        <ele>42</ele>
        <time>2022-05-24 14:09:18</time>
      </trkpt>
      <trkpt lat="40.9568" lon="0.50698">
        <ele>42</ele>
        <time>2022-05-24 14:09:19</time>
      </trkpt>
      <trkpt lat="40.95677" lon="0.50692">
        <ele>42</ele>
        <time>2022-05-24 14:09:20</time>
      </trkpt>
      <trkpt lat="40.95674" lon="0.50687">
        <ele>42</ele>
        <time>2022-05-24 14:09:21</time>
      </trkpt>
      <trkpt lat="40.95671" lon="0.50681">
        <ele>41.8</ele>
        <time>2022-05-24 14:09:22</time>
      </trkpt>
      <trkpt lat="40.95667" lon="0.50677">
        <ele>41.8</ele>
        <time>2022-05-24 14:09:23</time>
      </trkpt>
      <trkpt lat="40.95663" lon="0.50672">
        <ele>41.8</ele>
        <time>2022-05-24 14:09:24</time>
      </trkpt>
      <trkpt lat="40.95659" lon="0.50668">
        <ele>41.8</ele>
        <time>2022-05-24 14:09:25</time>
      </trkpt>
      <trkpt lat="40.95655" lon="0.50663">
        <ele>41.8</ele>
        <time>2022-05-24 14:09:26</time>
      </trkpt>
      <trkpt lat="40.95653" lon="0.50659">
        <ele>41.8</ele>
        <time>2022-05-24 14:09:27</time>
      </trkpt>
      <trkpt lat="40.95648" lon="0.50653">
        <ele>41.8</ele>
        <time>2022-05-24 14:09:28</time>
      </trkpt>
      <trkpt lat="40.95646" lon="0.50649">
        <ele>41.8</ele>
        <time>2022-05-24 14:09:29</time>
      </trkpt>
      <trkpt lat="40.95642" lon="0.50643">
        <ele>41.6</ele>
        <time>2022-05-24 14:09:30</time>
      </trkpt>
      <trkpt lat="40.9564" lon="0.50638">
        <ele>41.6</ele>
        <time>2022-05-24 14:09:31</time>
      </trkpt>
      <trkpt lat="40.95636" lon="0.50632">
        <ele>41.6</ele>
        <time>2022-05-24 14:09:32</time>
      </trkpt>
      <trkpt lat="40.95634" lon="0.50627">
        <ele>41.6</ele>
        <time>2022-05-24 14:09:33</time>
      </trkpt>
      <trkpt lat="40.95629" lon="0.50621">
        <ele>41.6</ele>
        <time>2022-05-24 14:09:34</time>
      </trkpt>
      <trkpt lat="40.95627" lon="0.50615">
        <ele>41.6</ele>
        <time>2022-05-24 14:09:35</time>
      </trkpt>
      <trkpt lat="40.95623" lon="0.50608">
        <ele>41.4</ele>
        <time>2022-05-24 14:09:36</time>
      </trkpt>
      <trkpt lat="40.95621" lon="0.50601">
        <ele>41.4</ele>
        <time>2022-05-24 14:09:37</time>
      </trkpt>
      <trkpt lat="40.95619" lon="0.50593">
        <ele>41.2</ele>
        <time>2022-05-24 14:09:38</time>
      </trkpt>
      <trkpt lat="40.95618" lon="0.50586">
        <ele>41.2</ele>
        <time>2022-05-24 14:09:39</time>
      </trkpt>
      <trkpt lat="40.95616" lon="0.50578">
        <ele>41.2</ele>
        <time>2022-05-24 14:09:40</time>
      </trkpt>
      <trkpt lat="40.95615" lon="0.50572">
        <ele>41</ele>
        <time>2022-05-24 14:09:41</time>
      </trkpt>
      <trkpt lat="40.95613" lon="0.50563">
        <ele>41</ele>
        <time>2022-05-24 14:09:42</time>
      </trkpt>
      <trkpt lat="40.95611" lon="0.50556">
        <ele>41</ele>
        <time>2022-05-24 14:09:43</time>
      </trkpt>
      <trkpt lat="40.95609" lon="0.50548">
        <ele>41</ele>
        <time>2022-05-24 14:09:44</time>
      </trkpt>
      <trkpt lat="40.95607" lon="0.50541">
        <ele>41</ele>
        <time>2022-05-24 14:09:45</time>
      </trkpt>
      <trkpt lat="40.95606" lon="0.50534">
        <ele>40.8</ele>
        <time>2022-05-24 14:09:46</time>
      </trkpt>
      <trkpt lat="40.95605" lon="0.50526">
        <ele>40.8</ele>
        <time>2022-05-24 14:09:47</time>
      </trkpt>
      <trkpt lat="40.95603" lon="0.50518">
        <ele>40.8</ele>
        <time>2022-05-24 14:09:48</time>
      </trkpt>
      <trkpt lat="40.95602" lon="0.50511">
        <ele>40.8</ele>
        <time>2022-05-24 14:09:49</time>
      </trkpt>
      <trkpt lat="40.956" lon="0.50504">
        <ele>40.8</ele>
        <time>2022-05-24 14:09:50</time>
      </trkpt>
      <trkpt lat="40.95598" lon="0.50498">
        <ele>40.6</ele>
        <time>2022-05-24 14:09:51</time>
      </trkpt>
      <trkpt lat="40.95596" lon="0.50492">
        <ele>40.6</ele>
        <time>2022-05-24 14:09:52</time>
      </trkpt>
      <trkpt lat="40.95594" lon="0.50485">
        <ele>40.6</ele>
        <time>2022-05-24 14:09:53</time>
      </trkpt>
      <trkpt lat="40.95591" lon="0.50478">
        <ele>40.6</ele>
        <time>2022-05-24 14:09:54</time>
      </trkpt>
      <trkpt lat="40.95589" lon="0.50473">
        <ele>40.4</ele>
        <time>2022-05-24 14:09:55</time>
      </trkpt>
      <trkpt lat="40.95586" lon="0.50466">
        <ele>40.4</ele>
        <time>2022-05-24 14:09:56</time>
      </trkpt>
      <trkpt lat="40.95583" lon="0.50459">
        <ele>40.4</ele>
        <time>2022-05-24 14:09:57</time>
      </trkpt>
      <trkpt lat="40.95579" lon="0.50455">
        <ele>40.4</ele>
        <time>2022-05-24 14:09:58</time>
      </trkpt>
      <trkpt lat="40.95575" lon="0.50451">
        <ele>40.4</ele>
        <time>2022-05-24 14:09:59</time>
      </trkpt>
      <trkpt lat="40.95569" lon="0.50449">
        <ele>40.2</ele>
        <time>2022-05-24 14:10:00</time>
      </trkpt>
      <trkpt lat="40.95563" lon="0.50447">
        <ele>40.2</ele>
        <time>2022-05-24 14:10:01</time>
      </trkpt>
      <trkpt lat="40.95559" lon="0.50446">
        <ele>40.2</ele>
        <time>2022-05-24 14:10:02</time>
      </trkpt>
      <trkpt lat="40.95553" lon="0.50443">
        <ele>40</ele>
        <time>2022-05-24 14:10:03</time>
      </trkpt>
      <trkpt lat="40.95548" lon="0.50439">
        <ele>40</ele>
        <time>2022-05-24 14:10:04</time>
      </trkpt>
      <trkpt lat="40.95544" lon="0.50434">
        <ele>40</ele>
        <time>2022-05-24 14:10:05</time>
      </trkpt>
      <trkpt lat="40.9554" lon="0.50429">
        <ele>40</ele>
        <time>2022-05-24 14:10:06</time>
      </trkpt>
      <trkpt lat="40.95536" lon="0.50425">
        <ele>40</ele>
        <time>2022-05-24 14:10:07</time>
      </trkpt>
      <trkpt lat="40.95532" lon="0.5042">
        <ele>40</ele>
        <time>2022-05-24 14:10:08</time>
      </trkpt>
      <trkpt lat="40.95528" lon="0.50416">
        <ele>40</ele>
        <time>2022-05-24 14:10:09</time>
      </trkpt>
      <trkpt lat="40.95523" lon="0.50412">
        <ele>40</ele>
        <time>2022-05-24 14:10:10</time>
      </trkpt>
      <trkpt lat="40.95518" lon="0.50409">
        <ele>40</ele>
        <time>2022-05-24 14:10:11</time>
      </trkpt>
      <trkpt lat="40.95514" lon="0.50404">
        <ele>40</ele>
        <time>2022-05-24 14:10:12</time>
      </trkpt>
      <trkpt lat="40.95509" lon="0.50401">
        <ele>40.2</ele>
        <time>2022-05-24 14:10:13</time>
      </trkpt>
      <trkpt lat="40.95505" lon="0.50397">
        <ele>40.2</ele>
        <time>2022-05-24 14:10:14</time>
      </trkpt>
      <trkpt lat="40.95501" lon="0.50393">
        <ele>40.2</ele>
        <time>2022-05-24 14:10:15</time>
      </trkpt>
      <trkpt lat="40.95496" lon="0.5039">
        <ele>40.2</ele>
        <time>2022-05-24 14:10:16</time>
      </trkpt>
      <trkpt lat="40.95492" lon="0.50386">
        <ele>40.4</ele>
        <time>2022-05-24 14:10:17</time>
      </trkpt>
      <trkpt lat="40.95488" lon="0.50383">
        <ele>40.4</ele>
        <time>2022-05-24 14:10:18</time>
      </trkpt>
      <trkpt lat="40.95484" lon="0.5038">
        <ele>40.4</ele>
        <time>2022-05-24 14:10:19</time>
      </trkpt>
      <trkpt lat="40.9548" lon="0.50378">
        <ele>40.6</ele>
        <time>2022-05-24 14:10:20</time>
      </trkpt>
      <trkpt lat="40.95475" lon="0.50375">
        <ele>40.6</ele>
        <time>2022-05-24 14:10:21</time>
      </trkpt>
      <trkpt lat="40.95471" lon="0.50374">
        <ele>40.6</ele>
        <time>2022-05-24 14:10:22</time>
      </trkpt>
      <trkpt lat="40.95466" lon="0.50373">
        <ele>40.8</ele>
        <time>2022-05-24 14:10:23</time>
      </trkpt>
      <trkpt lat="40.95461" lon="0.50374">
        <ele>40.8</ele>
        <time>2022-05-24 14:10:24</time>
      </trkpt>
      <trkpt lat="40.95457" lon="0.50375">
        <ele>40.8</ele>
        <time>2022-05-24 14:10:25</time>
      </trkpt>
      <trkpt lat="40.95453" lon="0.50379">
        <ele>41</ele>
        <time>2022-05-24 14:10:26</time>
      </trkpt>
      <trkpt lat="40.9545" lon="0.50383">
        <ele>41</ele>
        <time>2022-05-24 14:10:27</time>
      </trkpt>
      <trkpt lat="40.95447" lon="0.50389">
        <ele>41.2</ele>
        <time>2022-05-24 14:10:28</time>
      </trkpt>
      <trkpt lat="40.95445" lon="0.50394">
        <ele>41.2</ele>
        <time>2022-05-24 14:10:29</time>
      </trkpt>
      <trkpt lat="40.95444" lon="0.50401">
        <ele>41.2</ele>
        <time>2022-05-24 14:10:30</time>
      </trkpt>
      <trkpt lat="40.95443" lon="0.50407">
        <ele>41.2</ele>
        <time>2022-05-24 14:10:31</time>
      </trkpt>
      <trkpt lat="40.95441" lon="0.50413">
        <ele>41</ele>
        <time>2022-05-24 14:10:32</time>
      </trkpt>
      <trkpt lat="40.95439" lon="0.50418">
        <ele>41</ele>
        <time>2022-05-24 14:10:33</time>
      </trkpt>
      <trkpt lat="40.95436" lon="0.50423">
        <ele>40.8</ele>
        <time>2022-05-24 14:10:34</time>
      </trkpt>
      <trkpt lat="40.95432" lon="0.50427">
        <ele>40.8</ele>
        <time>2022-05-24 14:10:35</time>
      </trkpt>
      <trkpt lat="40.95427" lon="0.5043">
        <ele>40.8</ele>
        <time>2022-05-24 14:10:36</time>
      </trkpt>
      <trkpt lat="40.95422" lon="0.50433">
        <ele>40.6</ele>
        <time>2022-05-24 14:10:37</time>
      </trkpt>
      <trkpt lat="40.95416" lon="0.50435">
        <ele>40.6</ele>
        <time>2022-05-24 14:10:38</time>
      </trkpt>
      <trkpt lat="40.95411" lon="0.50437">
        <ele>40.6</ele>
        <time>2022-05-24 14:10:39</time>
      </trkpt>
      <trkpt lat="40.95405" lon="0.50438">
        <ele>40.4</ele>
        <time>2022-05-24 14:10:40</time>
      </trkpt>
      <trkpt lat="40.954" lon="0.50438">
        <ele>40.4</ele>
        <time>2022-05-24 14:10:41</time>
      </trkpt>
      <trkpt lat="40.95395" lon="0.50437">
        <ele>40.4</ele>
        <time>2022-05-24 14:10:42</time>
      </trkpt>
      <trkpt lat="40.9539" lon="0.50435">
        <ele>40.4</ele>
        <time>2022-05-24 14:10:43</time>
      </trkpt>
      <trkpt lat="40.95385" lon="0.50431">
        <ele>40.4</ele>
        <time>2022-05-24 14:10:44</time>
      </trkpt>
      <trkpt lat="40.95382" lon="0.50427">
        <ele>40.6</ele>
        <time>2022-05-24 14:10:45</time>
      </trkpt>
      <trkpt lat="40.95378" lon="0.50423">
        <ele>40.6</ele>
        <time>2022-05-24 14:10:46</time>
      </trkpt>
      <trkpt lat="40.95375" lon="0.5042">
        <ele>40.8</ele>
        <time>2022-05-24 14:10:47</time>
      </trkpt>
      <trkpt lat="40.95372" lon="0.50415">
        <ele>41</ele>
        <time>2022-05-24 14:10:48</time>
      </trkpt>
      <trkpt lat="40.9537" lon="0.50411">
        <ele>41</ele>
        <time>2022-05-24 14:10:49</time>
      </trkpt>
      <trkpt lat="40.95367" lon="0.50407">
        <ele>41.2</ele>
        <time>2022-05-24 14:10:50</time>
      </trkpt>
      <trkpt lat="40.95364" lon="0.50404">
        <ele>41.4</ele>
        <time>2022-05-24 14:10:51</time>
      </trkpt>
      <trkpt lat="40.95361" lon="0.50401">
        <ele>41.6</ele>
        <time>2022-05-24 14:10:52</time>
      </trkpt>
      <trkpt lat="40.95357" lon="0.50399">
        <ele>41.8</ele>
        <time>2022-05-24 14:10:53</time>
      </trkpt>
      <trkpt lat="40.95355" lon="0.50396">
        <ele>42</ele>
        <time>2022-05-24 14:10:54</time>
      </trkpt>
      <trkpt lat="40.95353" lon="0.50394">
        <ele>42.2</ele>
        <time>2022-05-24 14:10:55</time>
      </trkpt>
      <trkpt lat="40.9535" lon="0.50392">
        <ele>42.4</ele>
        <time>2022-05-24 14:10:56</time>
      </trkpt>
      <trkpt lat="40.95348" lon="0.50389">
        <ele>42.6</ele>
        <time>2022-05-24 14:10:57</time>
      </trkpt>
      <trkpt lat="40.95345" lon="0.50387">
        <ele>42.8</ele>
        <time>2022-05-24 14:10:58</time>
      </trkpt>
      <trkpt lat="40.95342" lon="0.50385">
        <ele>43</ele>
        <time>2022-05-24 14:10:59</time>
      </trkpt>
      <trkpt lat="40.9534" lon="0.50384">
        <ele>43.2</ele>
        <time>2022-05-24 14:11:00</time>
      </trkpt>
      <trkpt lat="40.95337" lon="0.50382">
        <ele>43.4</ele>
        <time>2022-05-24 14:11:01</time>
      </trkpt>
      <trkpt lat="40.95334" lon="0.50381">
        <ele>43.6</ele>
        <time>2022-05-24 14:11:02</time>
      </trkpt>
      <trkpt lat="40.95331" lon="0.50379">
        <ele>43.8</ele>
        <time>2022-05-24 14:11:03</time>
      </trkpt>
      <trkpt lat="40.95328" lon="0.50379">
        <ele>44</ele>
        <time>2022-05-24 14:11:04</time>
      </trkpt>
      <trkpt lat="40.95325" lon="0.50377">
        <ele>44.2</ele>
        <time>2022-05-24 14:11:05</time>
      </trkpt>
      <trkpt lat="40.95322" lon="0.50376">
        <ele>44.4</ele>
        <time>2022-05-24 14:11:06</time>
      </trkpt>
      <trkpt lat="40.9532" lon="0.50375">
        <ele>44.6</ele>
        <time>2022-05-24 14:11:07</time>
      </trkpt>
      <trkpt lat="40.95317" lon="0.50373">
        <ele>44.8</ele>
        <time>2022-05-24 14:11:08</time>
      </trkpt>
      <trkpt lat="40.95315" lon="0.50371">
        <ele>45</ele>
        <time>2022-05-24 14:11:09</time>
      </trkpt>
      <trkpt lat="40.95313" lon="0.50369">
        <ele>45.2</ele>
        <time>2022-05-24 14:11:10</time>
      </trkpt>
      <trkpt lat="40.95311" lon="0.50366">
        <ele>45.4</ele>
        <time>2022-05-24 14:11:11</time>
      </trkpt>
      <trkpt lat="40.95308" lon="0.50364">
        <ele>45.6</ele>
        <time>2022-05-24 14:11:12</time>
      </trkpt>
      <trkpt lat="40.95306" lon="0.50361">
        <ele>45.8</ele>
        <time>2022-05-24 14:11:13</time>
      </trkpt>
      <trkpt lat="40.95304" lon="0.50359">
        <ele>46</ele>
        <time>2022-05-24 14:11:14</time>
      </trkpt>
      <trkpt lat="40.95302" lon="0.50357">
        <ele>46.4</ele>
        <time>2022-05-24 14:11:15</time>
      </trkpt>
      <trkpt lat="40.953" lon="0.50355">
        <ele>46.6</ele>
        <time>2022-05-24 14:11:16</time>
      </trkpt>
      <trkpt lat="40.95299" lon="0.50354">
        <ele>46.8</ele>
        <time>2022-05-24 14:11:17</time>
      </trkpt>
      <trkpt lat="40.95297" lon="0.50352">
        <ele>47</ele>
        <time>2022-05-24 14:11:18</time>
      </trkpt>
      <trkpt lat="40.95296" lon="0.5035">
        <ele>47.2</ele>
        <time>2022-05-24 14:11:19</time>
      </trkpt>
      <trkpt lat="40.95295" lon="0.50347">
        <ele>47.4</ele>
        <time>2022-05-24 14:11:20</time>
      </trkpt>
      <trkpt lat="40.95293" lon="0.50345">
        <ele>47.8</ele>
        <time>2022-05-24 14:11:21</time>
      </trkpt>
      <trkpt lat="40.95292" lon="0.50343">
        <ele>47.8</ele>
        <time>2022-05-24 14:11:22</time>
      </trkpt>
      <trkpt lat="40.95291" lon="0.50341">
        <ele>48</ele>
        <time>2022-05-24 14:11:23</time>
      </trkpt>
      <trkpt lat="40.9529" lon="0.50339">
        <ele>48.2</ele>
        <time>2022-05-24 14:11:24</time>
      </trkpt>
      <trkpt lat="40.95288" lon="0.50336">
        <ele>48.4</ele>
        <time>2022-05-24 14:11:25</time>
      </trkpt>
      <trkpt lat="40.95287" lon="0.50335">
        <ele>48.6</ele>
        <time>2022-05-24 14:11:26</time>
      </trkpt>
      <trkpt lat="40.95285" lon="0.50332">
        <ele>48.8</ele>
        <time>2022-05-24 14:11:27</time>
      </trkpt>
      <trkpt lat="40.95284" lon="0.5033">
        <ele>49</ele>
        <time>2022-05-24 14:11:28</time>
      </trkpt>
      <trkpt lat="40.95282" lon="0.50328">
        <ele>49.2</ele>
        <time>2022-05-24 14:11:29</time>
      </trkpt>
      <trkpt lat="40.95281" lon="0.50326">
        <ele>49.2</ele>
        <time>2022-05-24 14:11:30</time>
      </trkpt>
      <trkpt lat="40.95279" lon="0.50325">
        <ele>49.4</ele>
        <time>2022-05-24 14:11:31</time>
      </trkpt>
      <trkpt lat="40.95278" lon="0.50323">
        <ele>49.6</ele>
        <time>2022-05-24 14:11:32</time>
      </trkpt>
      <trkpt lat="40.95276" lon="0.50322">
        <ele>49.8</ele>
        <time>2022-05-24 14:11:33</time>
      </trkpt>
      <trkpt lat="40.95275" lon="0.5032">
        <ele>50</ele>
        <time>2022-05-24 14:11:34</time>
      </trkpt>
      <trkpt lat="40.95273" lon="0.50319">
        <ele>50.2</ele>
        <time>2022-05-24 14:11:35</time>
      </trkpt>
      <trkpt lat="40.95272" lon="0.50317">
        <ele>50.4</ele>
        <time>2022-05-24 14:11:36</time>
      </trkpt>
      <trkpt lat="40.95271" lon="0.50315">
        <ele>50.4</ele>
        <time>2022-05-24 14:11:37</time>
      </trkpt>
      <trkpt lat="40.95269" lon="0.50313">
        <ele>50.6</ele>
        <time>2022-05-24 14:11:38</time>
      </trkpt>
      <trkpt lat="40.95267" lon="0.50311">
        <ele>50.8</ele>
        <time>2022-05-24 14:11:39</time>
      </trkpt>
      <trkpt lat="40.95266" lon="0.5031">
        <ele>51</ele>
        <time>2022-05-24 14:11:40</time>
      </trkpt>
      <trkpt lat="40.95264" lon="0.50309">
        <ele>51.2</ele>
        <time>2022-05-24 14:11:41</time>
      </trkpt>
      <trkpt lat="40.95263" lon="0.50308">
        <ele>51.4</ele>
        <time>2022-05-24 14:11:42</time>
      </trkpt>
      <trkpt lat="40.95261" lon="0.50306">
        <ele>51.4</ele>
        <time>2022-05-24 14:11:43</time>
      </trkpt>
      <trkpt lat="40.95259" lon="0.50305">
        <ele>51.6</ele>
        <time>2022-05-24 14:11:44</time>
      </trkpt>
      <trkpt lat="40.95257" lon="0.50303">
        <ele>51.8</ele>
        <time>2022-05-24 14:11:45</time>
      </trkpt>
      <trkpt lat="40.95255" lon="0.50302">
        <ele>52</ele>
        <time>2022-05-24 14:11:46</time>
      </trkpt>
      <trkpt lat="40.95254" lon="0.503">
        <ele>52.2</ele>
        <time>2022-05-24 14:11:47</time>
      </trkpt>
      <trkpt lat="40.95252" lon="0.50298">
        <ele>52.2</ele>
        <time>2022-05-24 14:11:48</time>
      </trkpt>
      <trkpt lat="40.9525" lon="0.50297">
        <ele>52.4</ele>
        <time>2022-05-24 14:11:49</time>
      </trkpt>
      <trkpt lat="40.95249" lon="0.50296">
        <ele>52.6</ele>
        <time>2022-05-24 14:11:50</time>
      </trkpt>
      <trkpt lat="40.95247" lon="0.50294">
        <ele>52.8</ele>
        <time>2022-05-24 14:11:51</time>
      </trkpt>
      <trkpt lat="40.95245" lon="0.50293">
        <ele>52.8</ele>
        <time>2022-05-24 14:11:52</time>
      </trkpt>
      <trkpt lat="40.95243" lon="0.50292">
        <ele>53</ele>
        <time>2022-05-24 14:11:53</time>
      </trkpt>
      <trkpt lat="40.95242" lon="0.5029">
        <ele>53.2</ele>
        <time>2022-05-24 14:11:54</time>
      </trkpt>
      <trkpt lat="40.9524" lon="0.50288">
        <ele>53.4</ele>
        <time>2022-05-24 14:11:55</time>
      </trkpt>
      <trkpt lat="40.95238" lon="0.50287">
        <ele>53.6</ele>
        <time>2022-05-24 14:11:56</time>
      </trkpt>
      <trkpt lat="40.95237" lon="0.50285">
        <ele>53.8</ele>
        <time>2022-05-24 14:11:57</time>
      </trkpt>
      <trkpt lat="40.95235" lon="0.50284">
        <ele>53.8</ele>
        <time>2022-05-24 14:11:58</time>
      </trkpt>
      <trkpt lat="40.95233" lon="0.50283">
        <ele>54</ele>
        <time>2022-05-24 14:11:59</time>
      </trkpt>
      <trkpt lat="40.95232" lon="0.50282">
        <ele>54.2</ele>
        <time>2022-05-24 14:12:00</time>
      </trkpt>
      <trkpt lat="40.9523" lon="0.50281">
        <ele>54.4</ele>
        <time>2022-05-24 14:12:01</time>
      </trkpt>
      <trkpt lat="40.95229" lon="0.50279">
        <ele>54.6</ele>
        <time>2022-05-24 14:12:02</time>
      </trkpt>
      <trkpt lat="40.95227" lon="0.50278">
        <ele>54.6</ele>
        <time>2022-05-24 14:12:03</time>
      </trkpt>
      <trkpt lat="40.95226" lon="0.50277">
        <ele>54.8</ele>
        <time>2022-05-24 14:12:04</time>
      </trkpt>
      <trkpt lat="40.95224" lon="0.50276">
        <ele>55</ele>
        <time>2022-05-24 14:12:05</time>
      </trkpt>
      <trkpt lat="40.95222" lon="0.50275">
        <ele>55.2</ele>
        <time>2022-05-24 14:12:06</time>
      </trkpt>
      <trkpt lat="40.9522" lon="0.50274">
        <ele>55.2</ele>
        <time>2022-05-24 14:12:07</time>
      </trkpt>
      <trkpt lat="40.95219" lon="0.50273">
        <ele>55.4</ele>
        <time>2022-05-24 14:12:08</time>
      </trkpt>
      <trkpt lat="40.95218" lon="0.50271">
        <ele>55.6</ele>
        <time>2022-05-24 14:12:09</time>
      </trkpt>
      <trkpt lat="40.95216" lon="0.5027">
        <ele>55.8</ele>
        <time>2022-05-24 14:12:10</time>
      </trkpt>
      <trkpt lat="40.95215" lon="0.50269">
        <ele>56</ele>
        <time>2022-05-24 14:12:11</time>
      </trkpt>
      <trkpt lat="40.95213" lon="0.50268">
        <ele>56</ele>
        <time>2022-05-24 14:12:12</time>
      </trkpt>
      <trkpt lat="40.95212" lon="0.50266">
        <ele>56.2</ele>
        <time>2022-05-24 14:12:13</time>
      </trkpt>
      <trkpt lat="40.9521" lon="0.50265">
        <ele>56.4</ele>
        <time>2022-05-24 14:12:14</time>
      </trkpt>
      <trkpt lat="40.95209" lon="0.50263">
        <ele>56.6</ele>
        <time>2022-05-24 14:12:15</time>
      </trkpt>
      <trkpt lat="40.95208" lon="0.50261">
        <ele>56.8</ele>
        <time>2022-05-24 14:12:16</time>
      </trkpt>
      <trkpt lat="40.95206" lon="0.50259">
        <ele>56.8</ele>
        <time>2022-05-24 14:12:17</time>
      </trkpt>
      <trkpt lat="40.95205" lon="0.50257">
        <ele>57</ele>
        <time>2022-05-24 14:12:18</time>
      </trkpt>
      <trkpt lat="40.95203" lon="0.50256">
        <ele>57.2</ele>
        <time>2022-05-24 14:12:19</time>
      </trkpt>
      <trkpt lat="40.95202" lon="0.50254">
        <ele>57.4</ele>
        <time>2022-05-24 14:12:20</time>
      </trkpt>
      <trkpt lat="40.95201" lon="0.50253">
        <ele>57.6</ele>
        <time>2022-05-24 14:12:21</time>
      </trkpt>
      <trkpt lat="40.952" lon="0.50252">
        <ele>57.6</ele>
        <time>2022-05-24 14:12:22</time>
      </trkpt>
      <trkpt lat="40.952" lon="0.5025">
        <ele>57.8</ele>
        <time>2022-05-24 14:12:23</time>
      </trkpt>
      <trkpt lat="40.95198" lon="0.50247">
        <ele>58</ele>
        <time>2022-05-24 14:12:24</time>
      </trkpt>
      <trkpt lat="40.95198" lon="0.50246">
        <ele>58.2</ele>
        <time>2022-05-24 14:12:25</time>
      </trkpt>
      <trkpt lat="40.95197" lon="0.50244">
        <ele>58.2</ele>
        <time>2022-05-24 14:12:26</time>
      </trkpt>
      <trkpt lat="40.95197" lon="0.50243">
        <ele>58.4</ele>
        <time>2022-05-24 14:12:27</time>
      </trkpt>
      <trkpt lat="40.95196" lon="0.5024">
        <ele>58.6</ele>
        <time>2022-05-24 14:12:28</time>
      </trkpt>
      <trkpt lat="40.95195" lon="0.50239">
        <ele>58.8</ele>
        <time>2022-05-24 14:12:29</time>
      </trkpt>
      <trkpt lat="40.95193" lon="0.50235">
        <ele>59</ele>
        <time>2022-05-24 14:12:30</time>
      </trkpt>
      <trkpt lat="40.95192" lon="0.50232">
        <ele>59.2</ele>
        <time>2022-05-24 14:12:31</time>
      </trkpt>
      <trkpt lat="40.95191" lon="0.50229">
        <ele>59.4</ele>
        <time>2022-05-24 14:12:32</time>
      </trkpt>
      <trkpt lat="40.95191" lon="0.50227">
        <ele>59.6</ele>
        <time>2022-05-24 14:12:33</time>
      </trkpt>
      <trkpt lat="40.95192" lon="0.50224">
        <ele>59.8</ele>
        <time>2022-05-24 14:12:34</time>
      </trkpt>
      <trkpt lat="40.95192" lon="0.50222">
        <ele>59.8</ele>
        <time>2022-05-24 14:12:35</time>
      </trkpt>
      <trkpt lat="40.95193" lon="0.5022">
        <ele>60</ele>
        <time>2022-05-24 14:12:36</time>
      </trkpt>
      <trkpt lat="40.95194" lon="0.50218">
        <ele>60.2</ele>
        <time>2022-05-24 14:12:37</time>
      </trkpt>
      <trkpt lat="40.95195" lon="0.50215">
        <ele>60.4</ele>
        <time>2022-05-24 14:12:38</time>
      </trkpt>
      <trkpt lat="40.95196" lon="0.50214">
        <ele>60.6</ele>
        <time>2022-05-24 14:12:39</time>
      </trkpt>
      <trkpt lat="40.95197" lon="0.50212">
        <ele>60.8</ele>
        <time>2022-05-24 14:12:40</time>
      </trkpt>
      <trkpt lat="40.95199" lon="0.50212">
        <ele>61</ele>
        <time>2022-05-24 14:12:41</time>
      </trkpt>
      <trkpt lat="40.952" lon="0.50211">
        <ele>61</ele>
        <time>2022-05-24 14:12:42</time>
      </trkpt>
      <trkpt lat="40.95202" lon="0.5021">
        <ele>61.2</ele>
        <time>2022-05-24 14:12:43</time>
      </trkpt>
      <trkpt lat="40.95203" lon="0.50209">
        <ele>61.4</ele>
        <time>2022-05-24 14:12:44</time>
      </trkpt>
      <trkpt lat="40.95204" lon="0.50209">
        <ele>61.6</ele>
        <time>2022-05-24 14:12:45</time>
      </trkpt>
      <trkpt lat="40.95206" lon="0.50208">
        <ele>61.6</ele>
        <time>2022-05-24 14:12:46</time>
      </trkpt>
      <trkpt lat="40.95207" lon="0.50209">
        <ele>61.8</ele>
        <time>2022-05-24 14:12:47</time>
      </trkpt>
      <trkpt lat="40.95209" lon="0.50209">
        <ele>62</ele>
        <time>2022-05-24 14:12:48</time>
      </trkpt>
      <trkpt lat="40.95211" lon="0.50209">
        <ele>62.2</ele>
        <time>2022-05-24 14:12:49</time>
      </trkpt>
      <trkpt lat="40.95214" lon="0.5021">
        <ele>62.2</ele>
        <time>2022-05-24 14:12:50</time>
      </trkpt>
      <trkpt lat="40.95216" lon="0.5021">
        <ele>62.4</ele>
        <time>2022-05-24 14:12:51</time>
      </trkpt>
      <trkpt lat="40.95218" lon="0.50211">
        <ele>62.6</ele>
        <time>2022-05-24 14:12:52</time>
      </trkpt>
      <trkpt lat="40.9522" lon="0.50211">
        <ele>62.6</ele>
        <time>2022-05-24 14:12:53</time>
      </trkpt>
      <trkpt lat="40.95223" lon="0.50212">
        <ele>62.8</ele>
        <time>2022-05-24 14:12:54</time>
      </trkpt>
      <trkpt lat="40.95226" lon="0.50213">
        <ele>62.8</ele>
        <time>2022-05-24 14:12:55</time>
      </trkpt>
      <trkpt lat="40.95228" lon="0.50213">
        <ele>63</ele>
        <time>2022-05-24 14:12:56</time>
      </trkpt>
      <trkpt lat="40.9523" lon="0.50214">
        <ele>63.2</ele>
        <time>2022-05-24 14:12:57</time>
      </trkpt>
      <trkpt lat="40.95233" lon="0.50214">
        <ele>63.4</ele>
        <time>2022-05-24 14:12:58</time>
      </trkpt>
      <trkpt lat="40.95236" lon="0.50215">
        <ele>63.4</ele>
        <time>2022-05-24 14:12:59</time>
      </trkpt>
      <trkpt lat="40.95238" lon="0.50215">
        <ele>63.6</ele>
        <time>2022-05-24 14:13:00</time>
      </trkpt>
      <trkpt lat="40.9524" lon="0.50215">
        <ele>63.8</ele>
        <time>2022-05-24 14:13:01</time>
      </trkpt>
      <trkpt lat="40.95242" lon="0.50214">
        <ele>63.8</ele>
        <time>2022-05-24 14:13:02</time>
      </trkpt>
      <trkpt lat="40.95244" lon="0.50214">
        <ele>64</ele>
        <time>2022-05-24 14:13:03</time>
      </trkpt>
      <trkpt lat="40.95246" lon="0.50214">
        <ele>64.2</ele>
        <time>2022-05-24 14:13:04</time>
      </trkpt>
      <trkpt lat="40.95248" lon="0.50214">
        <ele>64.2</ele>
        <time>2022-05-24 14:13:05</time>
      </trkpt>
      <trkpt lat="40.9525" lon="0.50214">
        <ele>64.4</ele>
        <time>2022-05-24 14:13:06</time>
      </trkpt>
      <trkpt lat="40.95252" lon="0.50214">
        <ele>64.6</ele>
        <time>2022-05-24 14:13:07</time>
      </trkpt>
      <trkpt lat="40.95254" lon="0.50214">
        <ele>64.6</ele>
        <time>2022-05-24 14:13:08</time>
      </trkpt>
      <trkpt lat="40.95256" lon="0.50214">
        <ele>64.8</ele>
        <time>2022-05-24 14:13:09</time>
      </trkpt>
      <trkpt lat="40.95258" lon="0.50213">
        <ele>65</ele>
        <time>2022-05-24 14:13:10</time>
      </trkpt>
      <trkpt lat="40.9526" lon="0.50213">
        <ele>65</ele>
        <time>2022-05-24 14:13:11</time>
      </trkpt>
      <trkpt lat="40.95262" lon="0.50212">
        <ele>65.2</ele>
        <time>2022-05-24 14:13:12</time>
      </trkpt>
      <trkpt lat="40.95264" lon="0.50212">
        <ele>65.4</ele>
        <time>2022-05-24 14:13:13</time>
      </trkpt>
      <trkpt lat="40.95266" lon="0.50211">
        <ele>65.4</ele>
        <time>2022-05-24 14:13:14</time>
      </trkpt>
      <trkpt lat="40.95267" lon="0.50211">
        <ele>65.6</ele>
        <time>2022-05-24 14:13:15</time>
      </trkpt>
      <trkpt lat="40.95269" lon="0.5021">
        <ele>65.6</ele>
        <time>2022-05-24 14:13:16</time>
      </trkpt>
      <trkpt lat="40.95271" lon="0.50208">
        <ele>65.8</ele>
        <time>2022-05-24 14:13:17</time>
      </trkpt>
      <trkpt lat="40.95272" lon="0.50207">
        <ele>65.8</ele>
        <time>2022-05-24 14:13:18</time>
      </trkpt>
      <trkpt lat="40.95274" lon="0.50205">
        <ele>66</ele>
        <time>2022-05-24 14:13:19</time>
      </trkpt>
      <trkpt lat="40.95275" lon="0.50204">
        <ele>66</ele>
        <time>2022-05-24 14:13:20</time>
      </trkpt>
      <trkpt lat="40.95276" lon="0.50202">
        <ele>66.2</ele>
        <time>2022-05-24 14:13:21</time>
      </trkpt>
      <trkpt lat="40.95278" lon="0.502">
        <ele>66.4</ele>
        <time>2022-05-24 14:13:22</time>
      </trkpt>
      <trkpt lat="40.95279" lon="0.50198">
        <ele>66.4</ele>
        <time>2022-05-24 14:13:23</time>
      </trkpt>
      <trkpt lat="40.95281" lon="0.50196">
        <ele>66.6</ele>
        <time>2022-05-24 14:13:24</time>
      </trkpt>
      <trkpt lat="40.95283" lon="0.50195">
        <ele>66.8</ele>
        <time>2022-05-24 14:13:25</time>
      </trkpt>
      <trkpt lat="40.95284" lon="0.50194">
        <ele>66.8</ele>
        <time>2022-05-24 14:13:26</time>
      </trkpt>
      <trkpt lat="40.95287" lon="0.50193">
        <ele>67</ele>
        <time>2022-05-24 14:13:27</time>
      </trkpt>
      <trkpt lat="40.95289" lon="0.50192">
        <ele>67</ele>
        <time>2022-05-24 14:13:28</time>
      </trkpt>
      <trkpt lat="40.95291" lon="0.50191">
        <ele>67.2</ele>
        <time>2022-05-24 14:13:29</time>
      </trkpt>
      <trkpt lat="40.95293" lon="0.50189">
        <ele>67.4</ele>
        <time>2022-05-24 14:13:30</time>
      </trkpt>
      <trkpt lat="40.95295" lon="0.50188">
        <ele>67.4</ele>
        <time>2022-05-24 14:13:31</time>
      </trkpt>
      <trkpt lat="40.95297" lon="0.50187">
        <ele>67.6</ele>
        <time>2022-05-24 14:13:32</time>
      </trkpt>
      <trkpt lat="40.953" lon="0.50186">
        <ele>67.6</ele>
        <time>2022-05-24 14:13:33</time>
      </trkpt>
      <trkpt lat="40.95302" lon="0.50186">
        <ele>67.8</ele>
        <time>2022-05-24 14:13:34</time>
      </trkpt>
      <trkpt lat="40.95304" lon="0.50186">
        <ele>68</ele>
        <time>2022-05-24 14:13:35</time>
      </trkpt>
      <trkpt lat="40.95308" lon="0.50188">
        <ele>68</ele>
        <time>2022-05-24 14:13:36</time>
      </trkpt>
      <trkpt lat="40.9531" lon="0.50189">
        <ele>68.2</ele>
        <time>2022-05-24 14:13:37</time>
      </trkpt>
      <trkpt lat="40.95312" lon="0.5019">
        <ele>68.4</ele>
        <time>2022-05-24 14:13:38</time>
      </trkpt>
      <trkpt lat="40.95313" lon="0.50192">
        <ele>68.4</ele>
        <time>2022-05-24 14:13:39</time>
      </trkpt>
      <trkpt lat="40.95316" lon="0.50193">
        <ele>68.6</ele>
        <time>2022-05-24 14:13:40</time>
      </trkpt>
      <trkpt lat="40.95317" lon="0.50194">
        <ele>68.8</ele>
        <time>2022-05-24 14:13:41</time>
      </trkpt>
      <trkpt lat="40.95319" lon="0.50195">
        <ele>68.8</ele>
        <time>2022-05-24 14:13:42</time>
      </trkpt>
      <trkpt lat="40.95322" lon="0.50195">
        <ele>69</ele>
        <time>2022-05-24 14:13:43</time>
      </trkpt>
      <trkpt lat="40.95323" lon="0.50196">
        <ele>69.2</ele>
        <time>2022-05-24 14:13:44</time>
      </trkpt>
      <trkpt lat="40.95326" lon="0.50196">
        <ele>69.2</ele>
        <time>2022-05-24 14:13:45</time>
      </trkpt>
      <trkpt lat="40.95328" lon="0.50197">
        <ele>69.4</ele>
        <time>2022-05-24 14:13:46</time>
      </trkpt>
      <trkpt lat="40.95331" lon="0.50197">
        <ele>69.4</ele>
        <time>2022-05-24 14:13:47</time>
      </trkpt>
      <trkpt lat="40.95333" lon="0.50197">
        <ele>69.6</ele>
        <time>2022-05-24 14:13:48</time>
      </trkpt>
      <trkpt lat="40.95335" lon="0.50196">
        <ele>69.8</ele>
        <time>2022-05-24 14:13:49</time>
      </trkpt>
      <trkpt lat="40.95338" lon="0.50195">
        <ele>69.8</ele>
        <time>2022-05-24 14:13:50</time>
      </trkpt>
      <trkpt lat="40.9534" lon="0.50195">
        <ele>70</ele>
        <time>2022-05-24 14:13:51</time>
      </trkpt>
      <trkpt lat="40.95342" lon="0.50194">
        <ele>70</ele>
        <time>2022-05-24 14:13:52</time>
      </trkpt>
      <trkpt lat="40.95345" lon="0.50193">
        <ele>70.2</ele>
        <time>2022-05-24 14:13:53</time>
      </trkpt>
      <trkpt lat="40.95347" lon="0.50192">
        <ele>70.2</ele>
        <time>2022-05-24 14:13:54</time>
      </trkpt>
      <trkpt lat="40.95349" lon="0.5019">
        <ele>70.4</ele>
        <time>2022-05-24 14:13:55</time>
      </trkpt>
      <trkpt lat="40.95351" lon="0.50188">
        <ele>70.4</ele>
        <time>2022-05-24 14:13:56</time>
      </trkpt>
      <trkpt lat="40.95353" lon="0.50186">
        <ele>70.4</ele>
        <time>2022-05-24 14:13:57</time>
      </trkpt>
      <trkpt lat="40.95355" lon="0.50184">
        <ele>70.6</ele>
        <time>2022-05-24 14:13:58</time>
      </trkpt>
      <trkpt lat="40.95357" lon="0.50182">
        <ele>70.6</ele>
        <time>2022-05-24 14:13:59</time>
      </trkpt>
      <trkpt lat="40.95358" lon="0.5018">
        <ele>70.8</ele>
        <time>2022-05-24 14:14:00</time>
      </trkpt>
      <trkpt lat="40.9536" lon="0.50178">
        <ele>70.8</ele>
        <time>2022-05-24 14:14:01</time>
      </trkpt>
      <trkpt lat="40.95362" lon="0.50176">
        <ele>71</ele>
        <time>2022-05-24 14:14:02</time>
      </trkpt>
      <trkpt lat="40.95364" lon="0.50174">
        <ele>71</ele>
        <time>2022-05-24 14:14:03</time>
      </trkpt>
      <trkpt lat="40.95365" lon="0.50172">
        <ele>71.2</ele>
        <time>2022-05-24 14:14:04</time>
      </trkpt>
      <trkpt lat="40.95368" lon="0.5017">
        <ele>71.2</ele>
        <time>2022-05-24 14:14:05</time>
      </trkpt>
      <trkpt lat="40.9537" lon="0.50168">
        <ele>71.2</ele>
        <time>2022-05-24 14:14:06</time>
      </trkpt>
      <trkpt lat="40.95373" lon="0.50167">
        <ele>71.4</ele>
        <time>2022-05-24 14:14:07</time>
      </trkpt>
      <trkpt lat="40.95375" lon="0.50166">
        <ele>71.4</ele>
        <time>2022-05-24 14:14:08</time>
      </trkpt>
      <trkpt lat="40.95378" lon="0.50165">
        <ele>71.6</ele>
        <time>2022-05-24 14:14:09</time>
      </trkpt>
      <trkpt lat="40.9538" lon="0.50164">
        <ele>71.6</ele>
        <time>2022-05-24 14:14:10</time>
      </trkpt>
      <trkpt lat="40.95382" lon="0.50163">
        <ele>71.8</ele>
        <time>2022-05-24 14:14:11</time>
      </trkpt>
      <trkpt lat="40.95384" lon="0.50162">
        <ele>71.8</ele>
        <time>2022-05-24 14:14:12</time>
      </trkpt>
      <trkpt lat="40.95387" lon="0.50161">
        <ele>72</ele>
        <time>2022-05-24 14:14:13</time>
      </trkpt>
      <trkpt lat="40.9539" lon="0.50161">
        <ele>72.2</ele>
        <time>2022-05-24 14:14:14</time>
      </trkpt>
      <trkpt lat="40.95392" lon="0.5016">
        <ele>72.2</ele>
        <time>2022-05-24 14:14:15</time>
      </trkpt>
      <trkpt lat="40.95394" lon="0.50159">
        <ele>72.4</ele>
        <time>2022-05-24 14:14:16</time>
      </trkpt>
      <trkpt lat="40.95397" lon="0.50159">
        <ele>72.6</ele>
        <time>2022-05-24 14:14:17</time>
      </trkpt>
      <trkpt lat="40.95399" lon="0.50158">
        <ele>72.6</ele>
        <time>2022-05-24 14:14:18</time>
      </trkpt>
      <trkpt lat="40.95402" lon="0.50157">
        <ele>72.8</ele>
        <time>2022-05-24 14:14:19</time>
      </trkpt>
      <trkpt lat="40.95404" lon="0.50156">
        <ele>72.8</ele>
        <time>2022-05-24 14:14:20</time>
      </trkpt>
      <trkpt lat="40.95406" lon="0.50155">
        <ele>73</ele>
        <time>2022-05-24 14:14:21</time>
      </trkpt>
      <trkpt lat="40.95409" lon="0.50155">
        <ele>73.2</ele>
        <time>2022-05-24 14:14:22</time>
      </trkpt>
      <trkpt lat="40.95411" lon="0.50154">
        <ele>73.4</ele>
        <time>2022-05-24 14:14:23</time>
      </trkpt>
      <trkpt lat="40.95413" lon="0.50154">
        <ele>73.4</ele>
        <time>2022-05-24 14:14:24</time>
      </trkpt>
      <trkpt lat="40.95416" lon="0.50154">
        <ele>73.6</ele>
        <time>2022-05-24 14:14:25</time>
      </trkpt>
      <trkpt lat="40.95418" lon="0.50154">
        <ele>73.8</ele>
        <time>2022-05-24 14:14:26</time>
      </trkpt>
      <trkpt lat="40.9542" lon="0.50153">
        <ele>73.8</ele>
        <time>2022-05-24 14:14:27</time>
      </trkpt>
      <trkpt lat="40.95422" lon="0.50153">
        <ele>74</ele>
        <time>2022-05-24 14:14:28</time>
      </trkpt>
      <trkpt lat="40.95425" lon="0.50152">
        <ele>74.2</ele>
        <time>2022-05-24 14:14:29</time>
      </trkpt>
      <trkpt lat="40.95428" lon="0.50151">
        <ele>74.2</ele>
        <time>2022-05-24 14:14:30</time>
      </trkpt>
      <trkpt lat="40.9543" lon="0.50151">
        <ele>74.4</ele>
        <time>2022-05-24 14:14:31</time>
      </trkpt>
      <trkpt lat="40.95432" lon="0.5015">
        <ele>74.4</ele>
        <time>2022-05-24 14:14:32</time>
      </trkpt>
      <trkpt lat="40.95435" lon="0.5015">
        <ele>74.6</ele>
        <time>2022-05-24 14:14:33</time>
      </trkpt>
      <trkpt lat="40.95438" lon="0.5015">
        <ele>74.8</ele>
        <time>2022-05-24 14:14:34</time>
      </trkpt>
      <trkpt lat="40.9544" lon="0.50149">
        <ele>74.8</ele>
        <time>2022-05-24 14:14:35</time>
      </trkpt>
      <trkpt lat="40.95442" lon="0.50149">
        <ele>75</ele>
        <time>2022-05-24 14:14:36</time>
      </trkpt>
      <trkpt lat="40.95446" lon="0.50148">
        <ele>75</ele>
        <time>2022-05-24 14:14:37</time>
      </trkpt>
      <trkpt lat="40.95448" lon="0.50148">
        <ele>75.2</ele>
        <time>2022-05-24 14:14:38</time>
      </trkpt>
      <trkpt lat="40.9545" lon="0.50148">
        <ele>75.4</ele>
        <time>2022-05-24 14:14:39</time>
      </trkpt>
      <trkpt lat="40.95453" lon="0.50148">
        <ele>75.4</ele>
        <time>2022-05-24 14:14:40</time>
      </trkpt>
      <trkpt lat="40.95456" lon="0.50148">
        <ele>75.6</ele>
        <time>2022-05-24 14:14:41</time>
      </trkpt>
      <trkpt lat="40.95459" lon="0.50148">
        <ele>75.8</ele>
        <time>2022-05-24 14:14:42</time>
      </trkpt>
      <trkpt lat="40.95461" lon="0.50148">
        <ele>76</ele>
        <time>2022-05-24 14:14:43</time>
      </trkpt>
      <trkpt lat="40.95463" lon="0.50148">
        <ele>76</ele>
        <time>2022-05-24 14:14:44</time>
      </trkpt>
      <trkpt lat="40.95466" lon="0.50148">
        <ele>76.2</ele>
        <time>2022-05-24 14:14:45</time>
      </trkpt>
      <trkpt lat="40.95469" lon="0.50148">
        <ele>76.4</ele>
        <time>2022-05-24 14:14:46</time>
      </trkpt>
      <trkpt lat="40.95471" lon="0.50147">
        <ele>76.6</ele>
        <time>2022-05-24 14:14:47</time>
      </trkpt>
      <trkpt lat="40.95472" lon="0.50145">
        <ele>76.8</ele>
        <time>2022-05-24 14:14:48</time>
      </trkpt>
      <trkpt lat="40.95475" lon="0.50143">
        <ele>77</ele>
        <time>2022-05-24 14:14:49</time>
      </trkpt>
      <trkpt lat="40.95477" lon="0.5014">
        <ele>77.2</ele>
        <time>2022-05-24 14:14:50</time>
      </trkpt>
      <trkpt lat="40.95477" lon="0.50137">
        <ele>77.2</ele>
        <time>2022-05-24 14:14:51</time>
      </trkpt>
      <trkpt lat="40.95477" lon="0.50134">
        <ele>77.4</ele>
        <time>2022-05-24 14:14:52</time>
      </trkpt>
      <trkpt lat="40.95476" lon="0.5013">
        <ele>77.6</ele>
        <time>2022-05-24 14:14:53</time>
      </trkpt>
      <trkpt lat="40.95475" lon="0.50127">
        <ele>77.6</ele>
        <time>2022-05-24 14:14:54</time>
      </trkpt>
      <trkpt lat="40.95473" lon="0.50125">
        <ele>77.8</ele>
        <time>2022-05-24 14:14:55</time>
      </trkpt>
      <trkpt lat="40.95471" lon="0.50123">
        <ele>77.8</ele>
        <time>2022-05-24 14:14:56</time>
      </trkpt>
      <trkpt lat="40.95469" lon="0.50121">
        <ele>78</ele>
        <time>2022-05-24 14:14:57</time>
      </trkpt>
      <trkpt lat="40.95466" lon="0.50119">
        <ele>78.2</ele>
        <time>2022-05-24 14:14:58</time>
      </trkpt>
      <trkpt lat="40.95464" lon="0.50118">
        <ele>78.4</ele>
        <time>2022-05-24 14:14:59</time>
      </trkpt>
      <trkpt lat="40.95462" lon="0.50117">
        <ele>78.4</ele>
        <time>2022-05-24 14:15:00</time>
      </trkpt>
      <trkpt lat="40.9546" lon="0.50115">
        <ele>78.6</ele>
        <time>2022-05-24 14:15:01</time>
      </trkpt>
      <trkpt lat="40.95458" lon="0.50114">
        <ele>78.8</ele>
        <time>2022-05-24 14:15:02</time>
      </trkpt>
      <trkpt lat="40.95456" lon="0.50112">
        <ele>79</ele>
        <time>2022-05-24 14:15:03</time>
      </trkpt>
      <trkpt lat="40.95454" lon="0.5011">
        <ele>79</ele>
        <time>2022-05-24 14:15:04</time>
      </trkpt>
      <trkpt lat="40.95452" lon="0.50108">
        <ele>79.2</ele>
        <time>2022-05-24 14:15:05</time>
      </trkpt>
      <trkpt lat="40.95451" lon="0.50106">
        <ele>79.4</ele>
        <time>2022-05-24 14:15:06</time>
      </trkpt>
      <trkpt lat="40.95449" lon="0.50104">
        <ele>79.6</ele>
        <time>2022-05-24 14:15:07</time>
      </trkpt>
      <trkpt lat="40.95447" lon="0.50102">
        <ele>79.8</ele>
        <time>2022-05-24 14:15:08</time>
      </trkpt>
      <trkpt lat="40.95445" lon="0.501">
        <ele>79.8</ele>
        <time>2022-05-24 14:15:09</time>
      </trkpt>
      <trkpt lat="40.95443" lon="0.50098">
        <ele>80</ele>
        <time>2022-05-24 14:15:10</time>
      </trkpt>
      <trkpt lat="40.95442" lon="0.50096">
        <ele>80.2</ele>
        <time>2022-05-24 14:15:11</time>
      </trkpt>
      <trkpt lat="40.9544" lon="0.50093">
        <ele>80.4</ele>
        <time>2022-05-24 14:15:12</time>
      </trkpt>
      <trkpt lat="40.95438" lon="0.50091">
        <ele>80.6</ele>
        <time>2022-05-24 14:15:13</time>
      </trkpt>
      <trkpt lat="40.95436" lon="0.50089">
        <ele>80.8</ele>
        <time>2022-05-24 14:15:14</time>
      </trkpt>
      <trkpt lat="40.95434" lon="0.50087">
        <ele>81</ele>
        <time>2022-05-24 14:15:15</time>
      </trkpt>
      <trkpt lat="40.95432" lon="0.50086">
        <ele>81.2</ele>
        <time>2022-05-24 14:15:16</time>
      </trkpt>
      <trkpt lat="40.9543" lon="0.50084">
        <ele>81.4</ele>
        <time>2022-05-24 14:15:17</time>
      </trkpt>
      <trkpt lat="40.95427" lon="0.50083">
        <ele>81.6</ele>
        <time>2022-05-24 14:15:18</time>
      </trkpt>
      <trkpt lat="40.95425" lon="0.50082">
        <ele>81.8</ele>
        <time>2022-05-24 14:15:19</time>
      </trkpt>
      <trkpt lat="40.95424" lon="0.50082">
        <ele>81.8</ele>
        <time>2022-05-24 14:15:20</time>
      </trkpt>
      <trkpt lat="40.95421" lon="0.50081">
        <ele>82</ele>
        <time>2022-05-24 14:15:21</time>
      </trkpt>
      <trkpt lat="40.95419" lon="0.50079">
        <ele>82.2</ele>
        <time>2022-05-24 14:15:22</time>
      </trkpt>
      <trkpt lat="40.95417" lon="0.50078">
        <ele>82.4</ele>
        <time>2022-05-24 14:15:23</time>
      </trkpt>
      <trkpt lat="40.95415" lon="0.50077">
        <ele>82.4</ele>
        <time>2022-05-24 14:15:24</time>
      </trkpt>
      <trkpt lat="40.95412" lon="0.50076">
        <ele>82.6</ele>
        <time>2022-05-24 14:15:25</time>
      </trkpt>
      <trkpt lat="40.9541" lon="0.50076">
        <ele>82.8</ele>
        <time>2022-05-24 14:15:26</time>
      </trkpt>
      <trkpt lat="40.95407" lon="0.50076">
        <ele>83</ele>
        <time>2022-05-24 14:15:27</time>
      </trkpt>
      <trkpt lat="40.95406" lon="0.50076">
        <ele>83</ele>
        <time>2022-05-24 14:15:28</time>
      </trkpt>
      <trkpt lat="40.95403" lon="0.50075">
        <ele>83.2</ele>
        <time>2022-05-24 14:15:29</time>
      </trkpt>
      <trkpt lat="40.95401" lon="0.50075">
        <ele>83.4</ele>
        <time>2022-05-24 14:15:30</time>
      </trkpt>
      <trkpt lat="40.95399" lon="0.50075">
        <ele>83.4</ele>
        <time>2022-05-24 14:15:31</time>
      </trkpt>
      <trkpt lat="40.95396" lon="0.50074">
        <ele>83.6</ele>
        <time>2022-05-24 14:15:32</time>
      </trkpt>
      <trkpt lat="40.95394" lon="0.50074">
        <ele>83.8</ele>
        <time>2022-05-24 14:15:33</time>
      </trkpt>
      <trkpt lat="40.95392" lon="0.50074">
        <ele>84</ele>
        <time>2022-05-24 14:15:34</time>
      </trkpt>
      <trkpt lat="40.95389" lon="0.50073">
        <ele>84</ele>
        <time>2022-05-24 14:15:35</time>
      </trkpt>
      <trkpt lat="40.95387" lon="0.50072">
        <ele>84.2</ele>
        <time>2022-05-24 14:15:36</time>
      </trkpt>
      <trkpt lat="40.95385" lon="0.50071">
        <ele>84.4</ele>
        <time>2022-05-24 14:15:37</time>
      </trkpt>
      <trkpt lat="40.95383" lon="0.5007">
        <ele>84.6</ele>
        <time>2022-05-24 14:15:38</time>
      </trkpt>
      <trkpt lat="40.9538" lon="0.50068">
        <ele>84.6</ele>
        <time>2022-05-24 14:15:39</time>
      </trkpt>
      <trkpt lat="40.95378" lon="0.50067">
        <ele>84.8</ele>
        <time>2022-05-24 14:15:40</time>
      </trkpt>
      <trkpt lat="40.95377" lon="0.50066">
        <ele>85</ele>
        <time>2022-05-24 14:15:41</time>
      </trkpt>
      <trkpt lat="40.95375" lon="0.50064">
        <ele>85.2</ele>
        <time>2022-05-24 14:15:42</time>
      </trkpt>
      <trkpt lat="40.95373" lon="0.50062">
        <ele>85.2</ele>
        <time>2022-05-24 14:15:43</time>
      </trkpt>
      <trkpt lat="40.95371" lon="0.5006">
        <ele>85.4</ele>
        <time>2022-05-24 14:15:44</time>
      </trkpt>
      <trkpt lat="40.9537" lon="0.50058">
        <ele>85.6</ele>
        <time>2022-05-24 14:15:45</time>
      </trkpt>
      <trkpt lat="40.95369" lon="0.50056">
        <ele>85.8</ele>
        <time>2022-05-24 14:15:46</time>
      </trkpt>
      <trkpt lat="40.95368" lon="0.50053">
        <ele>86</ele>
        <time>2022-05-24 14:15:47</time>
      </trkpt>
      <trkpt lat="40.95367" lon="0.5005">
        <ele>86</ele>
        <time>2022-05-24 14:15:48</time>
      </trkpt>
      <trkpt lat="40.95367" lon="0.50047">
        <ele>86.2</ele>
        <time>2022-05-24 14:15:49</time>
      </trkpt>
      <trkpt lat="40.95368" lon="0.50044">
        <ele>86.4</ele>
        <time>2022-05-24 14:15:50</time>
      </trkpt>
      <trkpt lat="40.95369" lon="0.50042">
        <ele>86.6</ele>
        <time>2022-05-24 14:15:51</time>
      </trkpt>
      <trkpt lat="40.9537" lon="0.50039">
        <ele>86.8</ele>
        <time>2022-05-24 14:15:52</time>
      </trkpt>
      <trkpt lat="40.95372" lon="0.50037">
        <ele>86.8</ele>
        <time>2022-05-24 14:15:53</time>
      </trkpt>
      <trkpt lat="40.95373" lon="0.50034">
        <ele>87</ele>
        <time>2022-05-24 14:15:54</time>
      </trkpt>
      <trkpt lat="40.95374" lon="0.50033">
        <ele>87.2</ele>
        <time>2022-05-24 14:15:55</time>
      </trkpt>
      <trkpt lat="40.95376" lon="0.5003">
        <ele>87.4</ele>
        <time>2022-05-24 14:15:56</time>
      </trkpt>
      <trkpt lat="40.95377" lon="0.50028">
        <ele>87.6</ele>
        <time>2022-05-24 14:15:57</time>
      </trkpt>
      <trkpt lat="40.95378" lon="0.50026">
        <ele>87.8</ele>
        <time>2022-05-24 14:15:58</time>
      </trkpt>
      <trkpt lat="40.95379" lon="0.50024">
        <ele>88</ele>
        <time>2022-05-24 14:15:59</time>
      </trkpt>
      <trkpt lat="40.9538" lon="0.50022">
        <ele>88.2</ele>
        <time>2022-05-24 14:16:00</time>
      </trkpt>
      <trkpt lat="40.9538" lon="0.50018">
        <ele>88.4</ele>
        <time>2022-05-24 14:16:01</time>
      </trkpt>
      <trkpt lat="40.95381" lon="0.50016">
        <ele>88.6</ele>
        <time>2022-05-24 14:16:02</time>
      </trkpt>
      <trkpt lat="40.95381" lon="0.50013">
        <ele>88.6</ele>
        <time>2022-05-24 14:16:03</time>
      </trkpt>
      <trkpt lat="40.95382" lon="0.5001">
        <ele>88.8</ele>
        <time>2022-05-24 14:16:04</time>
      </trkpt>
      <trkpt lat="40.95382" lon="0.50008">
        <ele>89</ele>
        <time>2022-05-24 14:16:05</time>
      </trkpt>
      <trkpt lat="40.95382" lon="0.50004">
        <ele>89.2</ele>
        <time>2022-05-24 14:16:06</time>
      </trkpt>
      <trkpt lat="40.95382" lon="0.50001">
        <ele>89.2</ele>
        <time>2022-05-24 14:16:07</time>
      </trkpt>
      <trkpt lat="40.95381" lon="0.49998">
        <ele>89.4</ele>
        <time>2022-05-24 14:16:08</time>
      </trkpt>
      <trkpt lat="40.9538" lon="0.49995">
        <ele>89.6</ele>
        <time>2022-05-24 14:16:09</time>
      </trkpt>
      <trkpt lat="40.9538" lon="0.49993">
        <ele>89.8</ele>
        <time>2022-05-24 14:16:10</time>
      </trkpt>
      <trkpt lat="40.95378" lon="0.4999">
        <ele>90</ele>
        <time>2022-05-24 14:16:11</time>
      </trkpt>
      <trkpt lat="40.95377" lon="0.49988">
        <ele>90</ele>
        <time>2022-05-24 14:16:12</time>
      </trkpt>
      <trkpt lat="40.95376" lon="0.49985">
        <ele>90.2</ele>
        <time>2022-05-24 14:16:13</time>
      </trkpt>
      <trkpt lat="40.95375" lon="0.49983">
        <ele>90.4</ele>
        <time>2022-05-24 14:16:14</time>
      </trkpt>
      <trkpt lat="40.95373" lon="0.49981">
        <ele>90.4</ele>
        <time>2022-05-24 14:16:15</time>
      </trkpt>
      <trkpt lat="40.95372" lon="0.49978">
        <ele>90.6</ele>
        <time>2022-05-24 14:16:16</time>
      </trkpt>
      <trkpt lat="40.95371" lon="0.49976">
        <ele>90.8</ele>
        <time>2022-05-24 14:16:17</time>
      </trkpt>
      <trkpt lat="40.9537" lon="0.49973">
        <ele>90.8</ele>
        <time>2022-05-24 14:16:18</time>
      </trkpt>
      <trkpt lat="40.95369" lon="0.49971">
        <ele>91</ele>
        <time>2022-05-24 14:16:19</time>
      </trkpt>
      <trkpt lat="40.95368" lon="0.49969">
        <ele>91.2</ele>
        <time>2022-05-24 14:16:20</time>
      </trkpt>
      <trkpt lat="40.95367" lon="0.49967">
        <ele>91.4</ele>
        <time>2022-05-24 14:16:21</time>
      </trkpt>
      <trkpt lat="40.95366" lon="0.49964">
        <ele>91.4</ele>
        <time>2022-05-24 14:16:22</time>
      </trkpt>
      <trkpt lat="40.95364" lon="0.49963">
        <ele>91.6</ele>
        <time>2022-05-24 14:16:23</time>
      </trkpt>
      <trkpt lat="40.95364" lon="0.49961">
        <ele>91.8</ele>
        <time>2022-05-24 14:16:24</time>
      </trkpt>
      <trkpt lat="40.95363" lon="0.49959">
        <ele>91.8</ele>
        <time>2022-05-24 14:16:25</time>
      </trkpt>
      <trkpt lat="40.95361" lon="0.49957">
        <ele>92</ele>
        <time>2022-05-24 14:16:26</time>
      </trkpt>
      <trkpt lat="40.9536" lon="0.49955">
        <ele>92.2</ele>
        <time>2022-05-24 14:16:27</time>
      </trkpt>
      <trkpt lat="40.95358" lon="0.49953">
        <ele>92.4</ele>
        <time>2022-05-24 14:16:28</time>
      </trkpt>
      <trkpt lat="40.95356" lon="0.49951">
        <ele>92.6</ele>
        <time>2022-05-24 14:16:29</time>
      </trkpt>
      <trkpt lat="40.95355" lon="0.49949">
        <ele>92.6</ele>
        <time>2022-05-24 14:16:30</time>
      </trkpt>
      <trkpt lat="40.95353" lon="0.49947">
        <ele>92.8</ele>
        <time>2022-05-24 14:16:31</time>
      </trkpt>
      <trkpt lat="40.95351" lon="0.49945">
        <ele>93</ele>
        <time>2022-05-24 14:16:32</time>
      </trkpt>
      <trkpt lat="40.9535" lon="0.49942">
        <ele>93</ele>
        <time>2022-05-24 14:16:33</time>
      </trkpt>
      <trkpt lat="40.95349" lon="0.49941">
        <ele>93.2</ele>
        <time>2022-05-24 14:16:34</time>
      </trkpt>
      <trkpt lat="40.95346" lon="0.49938">
        <ele>93.4</ele>
        <time>2022-05-24 14:16:35</time>
      </trkpt>
      <trkpt lat="40.95345" lon="0.49937">
        <ele>93.6</ele>
        <time>2022-05-24 14:16:36</time>
      </trkpt>
      <trkpt lat="40.95343" lon="0.49934">
        <ele>93.6</ele>
        <time>2022-05-24 14:16:37</time>
      </trkpt>
      <trkpt lat="40.95341" lon="0.49932">
        <ele>93.8</ele>
        <time>2022-05-24 14:16:38</time>
      </trkpt>
      <trkpt lat="40.9534" lon="0.4993">
        <ele>94</ele>
        <time>2022-05-24 14:16:39</time>
      </trkpt>
      <trkpt lat="40.95338" lon="0.49927">
        <ele>94.2</ele>
        <time>2022-05-24 14:16:40</time>
      </trkpt>
      <trkpt lat="40.95337" lon="0.49925">
        <ele>94.2</ele>
        <time>2022-05-24 14:16:41</time>
      </trkpt>
      <trkpt lat="40.95335" lon="0.49923">
        <ele>94.4</ele>
        <time>2022-05-24 14:16:42</time>
      </trkpt>
      <trkpt lat="40.95334" lon="0.49922">
        <ele>94.6</ele>
        <time>2022-05-24 14:16:43</time>
      </trkpt>
      <trkpt lat="40.95332" lon="0.49919">
        <ele>94.8</ele>
        <time>2022-05-24 14:16:44</time>
      </trkpt>
      <trkpt lat="40.9533" lon="0.49917">
        <ele>95</ele>
        <time>2022-05-24 14:16:45</time>
      </trkpt>
      <trkpt lat="40.95329" lon="0.49915">
        <ele>95</ele>
        <time>2022-05-24 14:16:46</time>
      </trkpt>
      <trkpt lat="40.95327" lon="0.49914">
        <ele>95.2</ele>
        <time>2022-05-24 14:16:47</time>
      </trkpt>
      <trkpt lat="40.95325" lon="0.49913">
        <ele>95.4</ele>
        <time>2022-05-24 14:16:48</time>
      </trkpt>
      <trkpt lat="40.95323" lon="0.49912">
        <ele>95.6</ele>
        <time>2022-05-24 14:16:49</time>
      </trkpt>
      <trkpt lat="40.95321" lon="0.49912">
        <ele>95.6</ele>
        <time>2022-05-24 14:16:50</time>
      </trkpt>
      <trkpt lat="40.95319" lon="0.49912">
        <ele>95.8</ele>
        <time>2022-05-24 14:16:51</time>
      </trkpt>
      <trkpt lat="40.95317" lon="0.49912">
        <ele>96</ele>
        <time>2022-05-24 14:16:52</time>
      </trkpt>
      <trkpt lat="40.95315" lon="0.49914">
        <ele>96.2</ele>
        <time>2022-05-24 14:16:53</time>
      </trkpt>
      <trkpt lat="40.95313" lon="0.49916">
        <ele>96.4</ele>
        <time>2022-05-24 14:16:54</time>
      </trkpt>
      <trkpt lat="40.95312" lon="0.49918">
        <ele>96.6</ele>
        <time>2022-05-24 14:16:55</time>
      </trkpt>
      <trkpt lat="40.95311" lon="0.49921">
        <ele>96.8</ele>
        <time>2022-05-24 14:16:56</time>
      </trkpt>
      <trkpt lat="40.95309" lon="0.49923">
        <ele>96.8</ele>
        <time>2022-05-24 14:16:57</time>
      </trkpt>
      <trkpt lat="40.95308" lon="0.49926">
        <ele>97</ele>
        <time>2022-05-24 14:16:58</time>
      </trkpt>
      <trkpt lat="40.95307" lon="0.49928">
        <ele>97.2</ele>
        <time>2022-05-24 14:16:59</time>
      </trkpt>
      <trkpt lat="40.95306" lon="0.49931">
        <ele>97.2</ele>
        <time>2022-05-24 14:17:00</time>
      </trkpt>
      <trkpt lat="40.95305" lon="0.49934">
        <ele>97.4</ele>
        <time>2022-05-24 14:17:01</time>
      </trkpt>
      <trkpt lat="40.95304" lon="0.49936">
        <ele>97.6</ele>
        <time>2022-05-24 14:17:02</time>
      </trkpt>
      <trkpt lat="40.95303" lon="0.49939">
        <ele>97.8</ele>
        <time>2022-05-24 14:17:03</time>
      </trkpt>
      <trkpt lat="40.95302" lon="0.49942">
        <ele>97.8</ele>
        <time>2022-05-24 14:17:04</time>
      </trkpt>
      <trkpt lat="40.95301" lon="0.49945">
        <ele>98</ele>
        <time>2022-05-24 14:17:05</time>
      </trkpt>
      <trkpt lat="40.953" lon="0.49947">
        <ele>98.2</ele>
        <time>2022-05-24 14:17:06</time>
      </trkpt>
      <trkpt lat="40.95299" lon="0.4995">
        <ele>98.4</ele>
        <time>2022-05-24 14:17:07</time>
      </trkpt>
      <trkpt lat="40.95298" lon="0.49953">
        <ele>98.4</ele>
        <time>2022-05-24 14:17:08</time>
      </trkpt>
      <trkpt lat="40.95298" lon="0.49955">
        <ele>98.6</ele>
        <time>2022-05-24 14:17:09</time>
      </trkpt>
      <trkpt lat="40.95296" lon="0.49958">
        <ele>98.8</ele>
        <time>2022-05-24 14:17:10</time>
      </trkpt>
      <trkpt lat="40.95296" lon="0.4996">
        <ele>99</ele>
        <time>2022-05-24 14:17:11</time>
      </trkpt>
      <trkpt lat="40.95295" lon="0.49964">
        <ele>99.2</ele>
        <time>2022-05-24 14:17:12</time>
      </trkpt>
      <trkpt lat="40.95293" lon="0.49966">
        <ele>99.2</ele>
        <time>2022-05-24 14:17:13</time>
      </trkpt>
      <trkpt lat="40.95292" lon="0.49968">
        <ele>99.4</ele>
        <time>2022-05-24 14:17:14</time>
      </trkpt>
      <trkpt lat="40.95291" lon="0.49971">
        <ele>99.6</ele>
        <time>2022-05-24 14:17:15</time>
      </trkpt>
      <trkpt lat="40.9529" lon="0.49973">
        <ele>99.8</ele>
        <time>2022-05-24 14:17:16</time>
      </trkpt>
      <trkpt lat="40.95288" lon="0.49975">
        <ele>99.8</ele>
        <time>2022-05-24 14:17:17</time>
      </trkpt>
      <trkpt lat="40.95287" lon="0.49978">
        <ele>100</ele>
        <time>2022-05-24 14:17:18</time>
      </trkpt>
      <trkpt lat="40.95285" lon="0.4998">
        <ele>100.2</ele>
        <time>2022-05-24 14:17:19</time>
      </trkpt>
      <trkpt lat="40.95284" lon="0.49982">
        <ele>100.4</ele>
        <time>2022-05-24 14:17:20</time>
      </trkpt>
      <trkpt lat="40.95283" lon="0.49984">
        <ele>100.6</ele>
        <time>2022-05-24 14:17:21</time>
      </trkpt>
      <trkpt lat="40.95281" lon="0.49986">
        <ele>100.6</ele>
        <time>2022-05-24 14:17:22</time>
      </trkpt>
      <trkpt lat="40.9528" lon="0.49987">
        <ele>100.8</ele>
        <time>2022-05-24 14:17:23</time>
      </trkpt>
      <trkpt lat="40.95277" lon="0.49989">
        <ele>101</ele>
        <time>2022-05-24 14:17:24</time>
      </trkpt>
      <trkpt lat="40.95275" lon="0.4999">
        <ele>101</ele>
        <time>2022-05-24 14:17:25</time>
      </trkpt>
      <trkpt lat="40.95273" lon="0.49991">
        <ele>101.2</ele>
        <time>2022-05-24 14:17:26</time>
      </trkpt>
      <trkpt lat="40.95271" lon="0.49993">
        <ele>101.4</ele>
        <time>2022-05-24 14:17:27</time>
      </trkpt>
      <trkpt lat="40.95269" lon="0.49995">
        <ele>101.4</ele>
        <time>2022-05-24 14:17:28</time>
      </trkpt>
      <trkpt lat="40.95267" lon="0.49995">
        <ele>101.6</ele>
        <time>2022-05-24 14:17:29</time>
      </trkpt>
      <trkpt lat="40.95265" lon="0.49996">
        <ele>101.8</ele>
        <time>2022-05-24 14:17:30</time>
      </trkpt>
      <trkpt lat="40.95262" lon="0.49997">
        <ele>102</ele>
        <time>2022-05-24 14:17:31</time>
      </trkpt>
      <trkpt lat="40.95259" lon="0.49997">
        <ele>102.2</ele>
        <time>2022-05-24 14:17:32</time>
      </trkpt>
      <trkpt lat="40.95257" lon="0.49997">
        <ele>102.2</ele>
        <time>2022-05-24 14:17:33</time>
      </trkpt>
      <trkpt lat="40.95255" lon="0.49996">
        <ele>102.4</ele>
        <time>2022-05-24 14:17:34</time>
      </trkpt>
      <trkpt lat="40.95253" lon="0.49995">
        <ele>102.6</ele>
        <time>2022-05-24 14:17:35</time>
      </trkpt>
      <trkpt lat="40.9525" lon="0.49994">
        <ele>102.6</ele>
        <time>2022-05-24 14:17:36</time>
      </trkpt>
      <trkpt lat="40.95248" lon="0.49993">
        <ele>102.8</ele>
        <time>2022-05-24 14:17:37</time>
      </trkpt>
      <trkpt lat="40.95247" lon="0.49991">
        <ele>103</ele>
        <time>2022-05-24 14:17:38</time>
      </trkpt>
      <trkpt lat="40.95245" lon="0.49989">
        <ele>103</ele>
        <time>2022-05-24 14:17:39</time>
      </trkpt>
      <trkpt lat="40.95244" lon="0.49987">
        <ele>103.2</ele>
        <time>2022-05-24 14:17:40</time>
      </trkpt>
      <trkpt lat="40.95242" lon="0.49985">
        <ele>103.4</ele>
        <time>2022-05-24 14:17:41</time>
      </trkpt>
      <trkpt lat="40.95241" lon="0.49982">
        <ele>103.6</ele>
        <time>2022-05-24 14:17:42</time>
      </trkpt>
      <trkpt lat="40.9524" lon="0.4998">
        <ele>103.8</ele>
        <time>2022-05-24 14:17:43</time>
      </trkpt>
      <trkpt lat="40.95239" lon="0.49977">
        <ele>104</ele>
        <time>2022-05-24 14:17:44</time>
      </trkpt>
      <trkpt lat="40.95238" lon="0.49975">
        <ele>104</ele>
        <time>2022-05-24 14:17:45</time>
      </trkpt>
      <trkpt lat="40.95237" lon="0.49972">
        <ele>104.2</ele>
        <time>2022-05-24 14:17:46</time>
      </trkpt>
      <trkpt lat="40.95236" lon="0.4997">
        <ele>104.4</ele>
        <time>2022-05-24 14:17:47</time>
      </trkpt>
      <trkpt lat="40.95236" lon="0.49968">
        <ele>104.6</ele>
        <time>2022-05-24 14:17:48</time>
      </trkpt>
      <trkpt lat="40.95235" lon="0.49966">
        <ele>104.8</ele>
        <time>2022-05-24 14:17:49</time>
      </trkpt>
      <trkpt lat="40.95234" lon="0.49963">
        <ele>104.8</ele>
        <time>2022-05-24 14:17:50</time>
      </trkpt>
      <trkpt lat="40.95232" lon="0.49961">
        <ele>105</ele>
        <time>2022-05-24 14:17:51</time>
      </trkpt>
      <trkpt lat="40.9523" lon="0.49959">
        <ele>105.2</ele>
        <time>2022-05-24 14:17:52</time>
      </trkpt>
      <trkpt lat="40.95228" lon="0.49958">
        <ele>105.4</ele>
        <time>2022-05-24 14:17:53</time>
      </trkpt>
      <trkpt lat="40.95226" lon="0.49957">
        <ele>105.6</ele>
        <time>2022-05-24 14:17:54</time>
      </trkpt>
      <trkpt lat="40.95223" lon="0.49956">
        <ele>105.6</ele>
        <time>2022-05-24 14:17:55</time>
      </trkpt>
      <trkpt lat="40.95221" lon="0.49956">
        <ele>105.8</ele>
        <time>2022-05-24 14:17:56</time>
      </trkpt>
      <trkpt lat="40.95219" lon="0.49957">
        <ele>106</ele>
        <time>2022-05-24 14:17:57</time>
      </trkpt>
      <trkpt lat="40.95216" lon="0.49958">
        <ele>106.2</ele>
        <time>2022-05-24 14:17:58</time>
      </trkpt>
      <trkpt lat="40.95214" lon="0.49959">
        <ele>106.4</ele>
        <time>2022-05-24 14:17:59</time>
      </trkpt>
      <trkpt lat="40.95212" lon="0.49961">
        <ele>106.4</ele>
        <time>2022-05-24 14:18:00</time>
      </trkpt>
      <trkpt lat="40.95209" lon="0.49962">
        <ele>106.6</ele>
        <time>2022-05-24 14:18:01</time>
      </trkpt>
      <trkpt lat="40.95207" lon="0.49963">
        <ele>106.8</ele>
        <time>2022-05-24 14:18:02</time>
      </trkpt>
      <trkpt lat="40.95205" lon="0.49965">
        <ele>107</ele>
        <time>2022-05-24 14:18:03</time>
      </trkpt>
      <trkpt lat="40.95203" lon="0.49967">
        <ele>107.2</ele>
        <time>2022-05-24 14:18:04</time>
      </trkpt>
      <trkpt lat="40.95201" lon="0.49968">
        <ele>107.4</ele>
        <time>2022-05-24 14:18:05</time>
      </trkpt>
      <trkpt lat="40.95199" lon="0.4997">
        <ele>107.6</ele>
        <time>2022-05-24 14:18:06</time>
      </trkpt>
      <trkpt lat="40.95197" lon="0.49971">
        <ele>107.8</ele>
        <time>2022-05-24 14:18:07</time>
      </trkpt>
      <trkpt lat="40.95195" lon="0.49973">
        <ele>108</ele>
        <time>2022-05-24 14:18:08</time>
      </trkpt>
      <trkpt lat="40.95193" lon="0.49974">
        <ele>108.2</ele>
        <time>2022-05-24 14:18:09</time>
      </trkpt>
      <trkpt lat="40.9519" lon="0.49976">
        <ele>108.4</ele>
        <time>2022-05-24 14:18:10</time>
      </trkpt>
      <trkpt lat="40.95189" lon="0.49978">
        <ele>108.6</ele>
        <time>2022-05-24 14:18:11</time>
      </trkpt>
      <trkpt lat="40.95187" lon="0.4998">
        <ele>108.8</ele>
        <time>2022-05-24 14:18:12</time>
      </trkpt>
      <trkpt lat="40.95186" lon="0.49982">
        <ele>109</ele>
        <time>2022-05-24 14:18:13</time>
      </trkpt>
      <trkpt lat="40.95184" lon="0.49985">
        <ele>109.2</ele>
        <time>2022-05-24 14:18:14</time>
      </trkpt>
      <trkpt lat="40.95183" lon="0.49988">
        <ele>109.2</ele>
        <time>2022-05-24 14:18:15</time>
      </trkpt>
      <trkpt lat="40.95182" lon="0.49991">
        <ele>109.4</ele>
        <time>2022-05-24 14:18:16</time>
      </trkpt>
      <trkpt lat="40.95181" lon="0.49993">
        <ele>109.6</ele>
        <time>2022-05-24 14:18:17</time>
      </trkpt>
      <trkpt lat="40.95181" lon="0.49996">
        <ele>109.8</ele>
        <time>2022-05-24 14:18:18</time>
      </trkpt>
      <trkpt lat="40.9518" lon="0.49999">
        <ele>109.8</ele>
        <time>2022-05-24 14:18:19</time>
      </trkpt>
      <trkpt lat="40.95179" lon="0.50002">
        <ele>110</ele>
        <time>2022-05-24 14:18:20</time>
      </trkpt>
      <trkpt lat="40.95178" lon="0.50005">
        <ele>110.2</ele>
        <time>2022-05-24 14:18:21</time>
      </trkpt>
      <trkpt lat="40.95177" lon="0.50007">
        <ele>110.4</ele>
        <time>2022-05-24 14:18:22</time>
      </trkpt>
      <trkpt lat="40.95176" lon="0.5001">
        <ele>110.4</ele>
        <time>2022-05-24 14:18:23</time>
      </trkpt>
      <trkpt lat="40.95175" lon="0.50013">
        <ele>110.6</ele>
        <time>2022-05-24 14:18:24</time>
      </trkpt>
      <trkpt lat="40.95174" lon="0.50016">
        <ele>110.8</ele>
        <time>2022-05-24 14:18:25</time>
      </trkpt>
      <trkpt lat="40.95173" lon="0.50018">
        <ele>111</ele>
        <time>2022-05-24 14:18:26</time>
      </trkpt>
      <trkpt lat="40.95173" lon="0.50022">
        <ele>111</ele>
        <time>2022-05-24 14:18:27</time>
      </trkpt>
      <trkpt lat="40.95172" lon="0.50024">
        <ele>111.2</ele>
        <time>2022-05-24 14:18:28</time>
      </trkpt>
      <trkpt lat="40.95171" lon="0.50027">
        <ele>111.4</ele>
        <time>2022-05-24 14:18:29</time>
      </trkpt>
      <trkpt lat="40.95171" lon="0.5003">
        <ele>111.6</ele>
        <time>2022-05-24 14:18:30</time>
      </trkpt>
      <trkpt lat="40.95169" lon="0.50032">
        <ele>111.6</ele>
        <time>2022-05-24 14:18:31</time>
      </trkpt>
      <trkpt lat="40.95168" lon="0.50035">
        <ele>111.8</ele>
        <time>2022-05-24 14:18:32</time>
      </trkpt>
      <trkpt lat="40.95166" lon="0.50038">
        <ele>112</ele>
        <time>2022-05-24 14:18:33</time>
      </trkpt>
      <trkpt lat="40.95165" lon="0.5004">
        <ele>112</ele>
        <time>2022-05-24 14:18:34</time>
      </trkpt>
      <trkpt lat="40.95163" lon="0.50042">
        <ele>112.2</ele>
        <time>2022-05-24 14:18:35</time>
      </trkpt>
      <trkpt lat="40.95161" lon="0.50044">
        <ele>112.4</ele>
        <time>2022-05-24 14:18:36</time>
      </trkpt>
      <trkpt lat="40.95159" lon="0.50046">
        <ele>112.4</ele>
        <time>2022-05-24 14:18:37</time>
      </trkpt>
      <trkpt lat="40.95158" lon="0.50049">
        <ele>112.6</ele>
        <time>2022-05-24 14:18:38</time>
      </trkpt>
      <trkpt lat="40.95157" lon="0.50051">
        <ele>112.8</ele>
        <time>2022-05-24 14:18:39</time>
      </trkpt>
      <trkpt lat="40.95156" lon="0.50054">
        <ele>113</ele>
        <time>2022-05-24 14:18:40</time>
      </trkpt>
      <trkpt lat="40.95155" lon="0.50056">
        <ele>113</ele>
        <time>2022-05-24 14:18:41</time>
      </trkpt>
      <trkpt lat="40.95154" lon="0.50058">
        <ele>113.2</ele>
        <time>2022-05-24 14:18:42</time>
      </trkpt>
      <trkpt lat="40.95153" lon="0.5006">
        <ele>113.4</ele>
        <time>2022-05-24 14:18:43</time>
      </trkpt>
      <trkpt lat="40.95152" lon="0.50062">
        <ele>113.4</ele>
        <time>2022-05-24 14:18:44</time>
      </trkpt>
      <trkpt lat="40.95151" lon="0.50065">
        <ele>113.6</ele>
        <time>2022-05-24 14:18:45</time>
      </trkpt>
      <trkpt lat="40.9515" lon="0.50068">
        <ele>113.6</ele>
        <time>2022-05-24 14:18:46</time>
      </trkpt>
      <trkpt lat="40.95148" lon="0.5007">
        <ele>113.8</ele>
        <time>2022-05-24 14:18:47</time>
      </trkpt>
      <trkpt lat="40.95147" lon="0.50072">
        <ele>114</ele>
        <time>2022-05-24 14:18:48</time>
      </trkpt>
      <trkpt lat="40.95146" lon="0.50074">
        <ele>114</ele>
        <time>2022-05-24 14:18:49</time>
      </trkpt>
      <trkpt lat="40.95145" lon="0.50078">
        <ele>114.2</ele>
        <time>2022-05-24 14:18:50</time>
      </trkpt>
      <trkpt lat="40.95144" lon="0.5008">
        <ele>114.2</ele>
        <time>2022-05-24 14:18:51</time>
      </trkpt>
      <trkpt lat="40.95142" lon="0.50083">
        <ele>114.4</ele>
        <time>2022-05-24 14:18:52</time>
      </trkpt>
      <trkpt lat="40.95142" lon="0.50085">
        <ele>114.6</ele>
        <time>2022-05-24 14:18:53</time>
      </trkpt>
      <trkpt lat="40.95141" lon="0.50087">
        <ele>114.6</ele>
        <time>2022-05-24 14:18:54</time>
      </trkpt>
      <trkpt lat="40.95139" lon="0.5009">
        <ele>114.8</ele>
        <time>2022-05-24 14:18:55</time>
      </trkpt>
      <trkpt lat="40.95137" lon="0.50092">
        <ele>115</ele>
        <time>2022-05-24 14:18:56</time>
      </trkpt>
      <trkpt lat="40.95135" lon="0.50094">
        <ele>115</ele>
        <time>2022-05-24 14:18:57</time>
      </trkpt>
      <trkpt lat="40.95133" lon="0.50096">
        <ele>115.2</ele>
        <time>2022-05-24 14:18:58</time>
      </trkpt>
      <trkpt lat="40.95131" lon="0.50098">
        <ele>115.4</ele>
        <time>2022-05-24 14:18:59</time>
      </trkpt>
      <trkpt lat="40.95129" lon="0.501">
        <ele>115.6</ele>
        <time>2022-05-24 14:19:00</time>
      </trkpt>
      <trkpt lat="40.95127" lon="0.50102">
        <ele>115.6</ele>
        <time>2022-05-24 14:19:01</time>
      </trkpt>
      <trkpt lat="40.95126" lon="0.50104">
        <ele>115.8</ele>
        <time>2022-05-24 14:19:02</time>
      </trkpt>
      <trkpt lat="40.95123" lon="0.50106">
        <ele>116</ele>
        <time>2022-05-24 14:19:03</time>
      </trkpt>
      <trkpt lat="40.95121" lon="0.50108">
        <ele>116.2</ele>
        <time>2022-05-24 14:19:04</time>
      </trkpt>
      <trkpt lat="40.95119" lon="0.5011">
        <ele>116.2</ele>
        <time>2022-05-24 14:19:05</time>
      </trkpt>
      <trkpt lat="40.95118" lon="0.50112">
        <ele>116.4</ele>
        <time>2022-05-24 14:19:06</time>
      </trkpt>
      <trkpt lat="40.95116" lon="0.50114">
        <ele>116.4</ele>
        <time>2022-05-24 14:19:07</time>
      </trkpt>
      <trkpt lat="40.95114" lon="0.50116">
        <ele>116.6</ele>
        <time>2022-05-24 14:19:08</time>
      </trkpt>
      <trkpt lat="40.95112" lon="0.50119">
        <ele>116.6</ele>
        <time>2022-05-24 14:19:09</time>
      </trkpt>
      <trkpt lat="40.9511" lon="0.5012">
        <ele>116.6</ele>
        <time>2022-05-24 14:19:10</time>
      </trkpt>
      <trkpt lat="40.95108" lon="0.50123">
        <ele>116.8</ele>
        <time>2022-05-24 14:19:11</time>
      </trkpt>
      <trkpt lat="40.95106" lon="0.50125">
        <ele>116.8</ele>
        <time>2022-05-24 14:19:12</time>
      </trkpt>
      <trkpt lat="40.95103" lon="0.50128">
        <ele>116.8</ele>
        <time>2022-05-24 14:19:13</time>
      </trkpt>
      <trkpt lat="40.95101" lon="0.5013">
        <ele>117</ele>
        <time>2022-05-24 14:19:14</time>
      </trkpt>
      <trkpt lat="40.95098" lon="0.50134">
        <ele>117</ele>
        <time>2022-05-24 14:19:15</time>
      </trkpt>
      <trkpt lat="40.95097" lon="0.50136">
        <ele>117</ele>
        <time>2022-05-24 14:19:16</time>
      </trkpt>
      <trkpt lat="40.95094" lon="0.50138">
        <ele>117</ele>
        <time>2022-05-24 14:19:17</time>
      </trkpt>
      <trkpt lat="40.95092" lon="0.50142">
        <ele>117.2</ele>
        <time>2022-05-24 14:19:18</time>
      </trkpt>
      <trkpt lat="40.95089" lon="0.50144">
        <ele>117.2</ele>
        <time>2022-05-24 14:19:19</time>
      </trkpt>
      <trkpt lat="40.95087" lon="0.50147">
        <ele>117.2</ele>
        <time>2022-05-24 14:19:20</time>
      </trkpt>
      <trkpt lat="40.95084" lon="0.50151">
        <ele>117.2</ele>
        <time>2022-05-24 14:19:21</time>
      </trkpt>
      <trkpt lat="40.95082" lon="0.50153">
        <ele>117.4</ele>
        <time>2022-05-24 14:19:22</time>
      </trkpt>
      <trkpt lat="40.9508" lon="0.50156">
        <ele>117.4</ele>
        <time>2022-05-24 14:19:23</time>
      </trkpt>
      <trkpt lat="40.95077" lon="0.50159">
        <ele>117.4</ele>
        <time>2022-05-24 14:19:24</time>
      </trkpt>
      <trkpt lat="40.95074" lon="0.50162">
        <ele>117.6</ele>
        <time>2022-05-24 14:19:25</time>
      </trkpt>
      <trkpt lat="40.95072" lon="0.50165">
        <ele>117.6</ele>
        <time>2022-05-24 14:19:26</time>
      </trkpt>
      <trkpt lat="40.95071" lon="0.50169">
        <ele>117.6</ele>
        <time>2022-05-24 14:19:27</time>
      </trkpt>
      <trkpt lat="40.95069" lon="0.50172">
        <ele>117.8</ele>
        <time>2022-05-24 14:19:28</time>
      </trkpt>
      <trkpt lat="40.95067" lon="0.50175">
        <ele>117.8</ele>
        <time>2022-05-24 14:19:29</time>
      </trkpt>
      <trkpt lat="40.95066" lon="0.50179">
        <ele>117.8</ele>
        <time>2022-05-24 14:19:30</time>
      </trkpt>
      <trkpt lat="40.95065" lon="0.50183">
        <ele>117.8</ele>
        <time>2022-05-24 14:19:31</time>
      </trkpt>
      <trkpt lat="40.95063" lon="0.50187">
        <ele>117.8</ele>
        <time>2022-05-24 14:19:32</time>
      </trkpt>
      <trkpt lat="40.95062" lon="0.50191">
        <ele>118</ele>
        <time>2022-05-24 14:19:33</time>
      </trkpt>
      <trkpt lat="40.95061" lon="0.50195">
        <ele>118</ele>
        <time>2022-05-24 14:19:34</time>
      </trkpt>
      <trkpt lat="40.9506" lon="0.50199">
        <ele>118</ele>
        <time>2022-05-24 14:19:35</time>
      </trkpt>
      <trkpt lat="40.95059" lon="0.50203">
        <ele>118.2</ele>
        <time>2022-05-24 14:19:36</time>
      </trkpt>
      <trkpt lat="40.95058" lon="0.50208">
        <ele>118.2</ele>
        <time>2022-05-24 14:19:37</time>
      </trkpt>
      <trkpt lat="40.95058" lon="0.50212">
        <ele>118.2</ele>
        <time>2022-05-24 14:19:38</time>
      </trkpt>
      <trkpt lat="40.95058" lon="0.50216">
        <ele>118.4</ele>
        <time>2022-05-24 14:19:39</time>
      </trkpt>
      <trkpt lat="40.95058" lon="0.5022">
        <ele>118.4</ele>
        <time>2022-05-24 14:19:40</time>
      </trkpt>
      <trkpt lat="40.95058" lon="0.50224">
        <ele>118.4</ele>
        <time>2022-05-24 14:19:41</time>
      </trkpt>
      <trkpt lat="40.95058" lon="0.50229">
        <ele>118.6</ele>
        <time>2022-05-24 14:19:42</time>
      </trkpt>
      <trkpt lat="40.95059" lon="0.50233">
        <ele>118.6</ele>
        <time>2022-05-24 14:19:43</time>
      </trkpt>
      <trkpt lat="40.95059" lon="0.50238">
        <ele>118.6</ele>
        <time>2022-05-24 14:19:44</time>
      </trkpt>
      <trkpt lat="40.95059" lon="0.50242">
        <ele>118.8</ele>
        <time>2022-05-24 14:19:45</time>
      </trkpt>
      <trkpt lat="40.9506" lon="0.50247">
        <ele>118.8</ele>
        <time>2022-05-24 14:19:46</time>
      </trkpt>
      <trkpt lat="40.9506" lon="0.50251">
        <ele>119</ele>
        <time>2022-05-24 14:19:47</time>
      </trkpt>
      <trkpt lat="40.95061" lon="0.50256">
        <ele>119</ele>
        <time>2022-05-24 14:19:48</time>
      </trkpt>
      <trkpt lat="40.95061" lon="0.5026">
        <ele>119</ele>
        <time>2022-05-24 14:19:49</time>
      </trkpt>
      <trkpt lat="40.95062" lon="0.50265">
        <ele>119.2</ele>
        <time>2022-05-24 14:19:50</time>
      </trkpt>
      <trkpt lat="40.95063" lon="0.5027">
        <ele>119.2</ele>
        <time>2022-05-24 14:19:51</time>
      </trkpt>
      <trkpt lat="40.95063" lon="0.50274">
        <ele>119.2</ele>
        <time>2022-05-24 14:19:52</time>
      </trkpt>
      <trkpt lat="40.95064" lon="0.50278">
        <ele>119.4</ele>
        <time>2022-05-24 14:19:53</time>
      </trkpt>
      <trkpt lat="40.95065" lon="0.50283">
        <ele>119.4</ele>
        <time>2022-05-24 14:19:54</time>
      </trkpt>
      <trkpt lat="40.95065" lon="0.50287">
        <ele>119.6</ele>
        <time>2022-05-24 14:19:55</time>
      </trkpt>
      <trkpt lat="40.95065" lon="0.50291">
        <ele>119.6</ele>
        <time>2022-05-24 14:19:56</time>
      </trkpt>
      <trkpt lat="40.95066" lon="0.50295">
        <ele>119.8</ele>
        <time>2022-05-24 14:19:57</time>
      </trkpt>
      <trkpt lat="40.95066" lon="0.50299">
        <ele>119.8</ele>
        <time>2022-05-24 14:19:58</time>
      </trkpt>
      <trkpt lat="40.95067" lon="0.50302">
        <ele>119.8</ele>
        <time>2022-05-24 14:19:59</time>
      </trkpt>
      <trkpt lat="40.95068" lon="0.50306">
        <ele>120</ele>
        <time>2022-05-24 14:20:00</time>
      </trkpt>
      <trkpt lat="40.95068" lon="0.5031">
        <ele>120.2</ele>
        <time>2022-05-24 14:20:01</time>
      </trkpt>
      <trkpt lat="40.95069" lon="0.50314">
        <ele>120.2</ele>
        <time>2022-05-24 14:20:02</time>
      </trkpt>
      <trkpt lat="40.95069" lon="0.50317">
        <ele>120.4</ele>
        <time>2022-05-24 14:20:03</time>
      </trkpt>
      <trkpt lat="40.95069" lon="0.50321">
        <ele>120.6</ele>
        <time>2022-05-24 14:20:04</time>
      </trkpt>
      <trkpt lat="40.9507" lon="0.50325">
        <ele>120.6</ele>
        <time>2022-05-24 14:20:05</time>
      </trkpt>
      <trkpt lat="40.9507" lon="0.50329">
        <ele>120.8</ele>
        <time>2022-05-24 14:20:06</time>
      </trkpt>
      <trkpt lat="40.95071" lon="0.50332">
        <ele>121</ele>
        <time>2022-05-24 14:20:07</time>
      </trkpt>
      <trkpt lat="40.95072" lon="0.50337">
        <ele>121.2</ele>
        <time>2022-05-24 14:20:08</time>
      </trkpt>
      <trkpt lat="40.95073" lon="0.5034">
        <ele>121.4</ele>
        <time>2022-05-24 14:20:09</time>
      </trkpt>
      <trkpt lat="40.95073" lon="0.50344">
        <ele>121.6</ele>
        <time>2022-05-24 14:20:10</time>
      </trkpt>
      <trkpt lat="40.95074" lon="0.50348">
        <ele>121.6</ele>
        <time>2022-05-24 14:20:11</time>
      </trkpt>
      <trkpt lat="40.95075" lon="0.50352">
        <ele>122</ele>
        <time>2022-05-24 14:20:12</time>
      </trkpt>
      <trkpt lat="40.95075" lon="0.50355">
        <ele>122.2</ele>
        <time>2022-05-24 14:20:13</time>
      </trkpt>
      <trkpt lat="40.95076" lon="0.50359">
        <ele>122.4</ele>
        <time>2022-05-24 14:20:14</time>
      </trkpt>
      <trkpt lat="40.95077" lon="0.50361">
        <ele>122.6</ele>
        <time>2022-05-24 14:20:15</time>
      </trkpt>
      <trkpt lat="40.95078" lon="0.50365">
        <ele>122.8</ele>
        <time>2022-05-24 14:20:16</time>
      </trkpt>
      <trkpt lat="40.95079" lon="0.50368">
        <ele>123</ele>
        <time>2022-05-24 14:20:17</time>
      </trkpt>
      <trkpt lat="40.95081" lon="0.50371">
        <ele>123</ele>
        <time>2022-05-24 14:20:18</time>
      </trkpt>
      <trkpt lat="40.95083" lon="0.50375">
        <ele>123.2</ele>
        <time>2022-05-24 14:20:19</time>
      </trkpt>
      <trkpt lat="40.95084" lon="0.50378">
        <ele>123.4</ele>
        <time>2022-05-24 14:20:20</time>
      </trkpt>
      <trkpt lat="40.95086" lon="0.5038">
        <ele>123.6</ele>
        <time>2022-05-24 14:20:21</time>
      </trkpt>
      <trkpt lat="40.95087" lon="0.50383">
        <ele>123.8</ele>
        <time>2022-05-24 14:20:22</time>
      </trkpt>
      <trkpt lat="40.95089" lon="0.50385">
        <ele>124</ele>
        <time>2022-05-24 14:20:23</time>
      </trkpt>
      <trkpt lat="40.95091" lon="0.50388">
        <ele>124.2</ele>
        <time>2022-05-24 14:20:24</time>
      </trkpt>
      <trkpt lat="40.95093" lon="0.5039">
        <ele>124.4</ele>
        <time>2022-05-24 14:20:25</time>
      </trkpt>
      <trkpt lat="40.95095" lon="0.50393">
        <ele>124.6</ele>
        <time>2022-05-24 14:20:26</time>
      </trkpt>
      <trkpt lat="40.95096" lon="0.50394">
        <ele>124.6</ele>
        <time>2022-05-24 14:20:27</time>
      </trkpt>
      <trkpt lat="40.95098" lon="0.50397">
        <ele>124.8</ele>
        <time>2022-05-24 14:20:28</time>
      </trkpt>
      <trkpt lat="40.951" lon="0.504">
        <ele>125</ele>
        <time>2022-05-24 14:20:29</time>
      </trkpt>
      <trkpt lat="40.95101" lon="0.50403">
        <ele>125.2</ele>
        <time>2022-05-24 14:20:30</time>
      </trkpt>
      <trkpt lat="40.95102" lon="0.50406">
        <ele>125.4</ele>
        <time>2022-05-24 14:20:31</time>
      </trkpt>
      <trkpt lat="40.95103" lon="0.50409">
        <ele>125.6</ele>
        <time>2022-05-24 14:20:32</time>
      </trkpt>
      <trkpt lat="40.95105" lon="0.50413">
        <ele>125.8</ele>
        <time>2022-05-24 14:20:33</time>
      </trkpt>
      <trkpt lat="40.95105" lon="0.50416">
        <ele>125.8</ele>
        <time>2022-05-24 14:20:34</time>
      </trkpt>
      <trkpt lat="40.95107" lon="0.50419">
        <ele>126</ele>
        <time>2022-05-24 14:20:35</time>
      </trkpt>
      <trkpt lat="40.95107" lon="0.50423">
        <ele>126</ele>
        <time>2022-05-24 14:20:36</time>
      </trkpt>
      <trkpt lat="40.95108" lon="0.50426">
        <ele>126.2</ele>
        <time>2022-05-24 14:20:37</time>
      </trkpt>
      <trkpt lat="40.9511" lon="0.5043">
        <ele>126.2</ele>
        <time>2022-05-24 14:20:38</time>
      </trkpt>
      <trkpt lat="40.95111" lon="0.50434">
        <ele>126.4</ele>
        <time>2022-05-24 14:20:39</time>
      </trkpt>
      <trkpt lat="40.95113" lon="0.50438">
        <ele>126.4</ele>
        <time>2022-05-24 14:20:40</time>
      </trkpt>
      <trkpt lat="40.95113" lon="0.50441">
        <ele>126.6</ele>
        <time>2022-05-24 14:20:41</time>
      </trkpt>
      <trkpt lat="40.95115" lon="0.50446">
        <ele>126.6</ele>
        <time>2022-05-24 14:20:42</time>
      </trkpt>
      <trkpt lat="40.95115" lon="0.50449">
        <ele>126.6</ele>
        <time>2022-05-24 14:20:43</time>
      </trkpt>
      <trkpt lat="40.95115" lon="0.50453">
        <ele>126.8</ele>
        <time>2022-05-24 14:20:44</time>
      </trkpt>
      <trkpt lat="40.95115" lon="0.50457">
        <ele>126.8</ele>
        <time>2022-05-24 14:20:45</time>
      </trkpt>
      <trkpt lat="40.95114" lon="0.50461">
        <ele>127</ele>
        <time>2022-05-24 14:20:46</time>
      </trkpt>
      <trkpt lat="40.95113" lon="0.50464">
        <ele>127.2</ele>
        <time>2022-05-24 14:20:47</time>
      </trkpt>
      <trkpt lat="40.9511" lon="0.50466">
        <ele>127.4</ele>
        <time>2022-05-24 14:20:48</time>
      </trkpt>
      <trkpt lat="40.95108" lon="0.50468">
        <ele>127.6</ele>
        <time>2022-05-24 14:20:49</time>
      </trkpt>
      <trkpt lat="40.95106" lon="0.5047">
        <ele>127.8</ele>
        <time>2022-05-24 14:20:50</time>
      </trkpt>
      <trkpt lat="40.95103" lon="0.50471">
        <ele>127.8</ele>
        <time>2022-05-24 14:20:51</time>
      </trkpt>
      <trkpt lat="40.951" lon="0.50473">
        <ele>128</ele>
        <time>2022-05-24 14:20:52</time>
      </trkpt>
      <trkpt lat="40.95098" lon="0.50474">
        <ele>128</ele>
        <time>2022-05-24 14:20:53</time>
      </trkpt>
      <trkpt lat="40.95095" lon="0.50476">
        <ele>128.2</ele>
        <time>2022-05-24 14:20:54</time>
      </trkpt>
      <trkpt lat="40.95093" lon="0.50477">
        <ele>128.2</ele>
        <time>2022-05-24 14:20:55</time>
      </trkpt>
      <trkpt lat="40.9509" lon="0.50479">
        <ele>128.4</ele>
        <time>2022-05-24 14:20:56</time>
      </trkpt>
      <trkpt lat="40.95087" lon="0.5048">
        <ele>128.4</ele>
        <time>2022-05-24 14:20:57</time>
      </trkpt>
      <trkpt lat="40.95085" lon="0.50482">
        <ele>128.6</ele>
        <time>2022-05-24 14:20:58</time>
      </trkpt>
      <trkpt lat="40.95082" lon="0.50482">
        <ele>128.8</ele>
        <time>2022-05-24 14:20:59</time>
      </trkpt>
      <trkpt lat="40.95079" lon="0.50482">
        <ele>128.8</ele>
        <time>2022-05-24 14:21:00</time>
      </trkpt>
      <trkpt lat="40.95076" lon="0.50482">
        <ele>129</ele>
        <time>2022-05-24 14:21:01</time>
      </trkpt>
      <trkpt lat="40.95073" lon="0.50482">
        <ele>129</ele>
        <time>2022-05-24 14:21:02</time>
      </trkpt>
      <trkpt lat="40.9507" lon="0.50482">
        <ele>129.2</ele>
        <time>2022-05-24 14:21:03</time>
      </trkpt>
      <trkpt lat="40.95067" lon="0.50482">
        <ele>129.4</ele>
        <time>2022-05-24 14:21:04</time>
      </trkpt>
      <trkpt lat="40.95065" lon="0.50481">
        <ele>129.6</ele>
        <time>2022-05-24 14:21:05</time>
      </trkpt>
      <trkpt lat="40.95061" lon="0.50481">
        <ele>129.6</ele>
        <time>2022-05-24 14:21:06</time>
      </trkpt>
      <trkpt lat="40.95059" lon="0.50481">
        <ele>129.8</ele>
        <time>2022-05-24 14:21:07</time>
      </trkpt>
      <trkpt lat="40.95056" lon="0.5048">
        <ele>130</ele>
        <time>2022-05-24 14:21:08</time>
      </trkpt>
      <trkpt lat="40.95053" lon="0.5048">
        <ele>130.2</ele>
        <time>2022-05-24 14:21:09</time>
      </trkpt>
      <trkpt lat="40.9505" lon="0.50479">
        <ele>130.4</ele>
        <time>2022-05-24 14:21:10</time>
      </trkpt>
      <trkpt lat="40.95047" lon="0.50479">
        <ele>130.4</ele>
        <time>2022-05-24 14:21:11</time>
      </trkpt>
      <trkpt lat="40.95044" lon="0.50478">
        <ele>130.6</ele>
        <time>2022-05-24 14:21:12</time>
      </trkpt>
      <trkpt lat="40.95041" lon="0.50478">
        <ele>130.8</ele>
        <time>2022-05-24 14:21:13</time>
      </trkpt>
      <trkpt lat="40.95038" lon="0.50479">
        <ele>130.8</ele>
        <time>2022-05-24 14:21:14</time>
      </trkpt>
      <trkpt lat="40.95036" lon="0.5048">
        <ele>131</ele>
        <time>2022-05-24 14:21:15</time>
      </trkpt>
      <trkpt lat="40.95033" lon="0.50481">
        <ele>131</ele>
        <time>2022-05-24 14:21:16</time>
      </trkpt>
      <trkpt lat="40.9503" lon="0.50483">
        <ele>131.2</ele>
        <time>2022-05-24 14:21:17</time>
      </trkpt>
      <trkpt lat="40.95027" lon="0.50484">
        <ele>131.2</ele>
        <time>2022-05-24 14:21:18</time>
      </trkpt>
      <trkpt lat="40.95024" lon="0.50485">
        <ele>131.4</ele>
        <time>2022-05-24 14:21:19</time>
      </trkpt>
      <trkpt lat="40.95021" lon="0.50487">
        <ele>131.4</ele>
        <time>2022-05-24 14:21:20</time>
      </trkpt>
      <trkpt lat="40.95018" lon="0.50488">
        <ele>131.6</ele>
        <time>2022-05-24 14:21:21</time>
      </trkpt>
      <trkpt lat="40.95016" lon="0.50489">
        <ele>131.8</ele>
        <time>2022-05-24 14:21:22</time>
      </trkpt>
      <trkpt lat="40.95013" lon="0.5049">
        <ele>132</ele>
        <time>2022-05-24 14:21:23</time>
      </trkpt>
      <trkpt lat="40.9501" lon="0.50491">
        <ele>132.2</ele>
        <time>2022-05-24 14:21:24</time>
      </trkpt>
      <trkpt lat="40.95007" lon="0.50492">
        <ele>132.2</ele>
        <time>2022-05-24 14:21:25</time>
      </trkpt>
      <trkpt lat="40.95004" lon="0.50492">
        <ele>132.4</ele>
        <time>2022-05-24 14:21:26</time>
      </trkpt>
      <trkpt lat="40.95" lon="0.50492">
        <ele>132.6</ele>
        <time>2022-05-24 14:21:27</time>
      </trkpt>
      <trkpt lat="40.94998" lon="0.50493">
        <ele>132.8</ele>
        <time>2022-05-24 14:21:28</time>
      </trkpt>
      <trkpt lat="40.94995" lon="0.50493">
        <ele>133</ele>
        <time>2022-05-24 14:21:29</time>
      </trkpt>
      <trkpt lat="40.94992" lon="0.50493">
        <ele>133.2</ele>
        <time>2022-05-24 14:21:30</time>
      </trkpt>
      <trkpt lat="40.94989" lon="0.50492">
        <ele>133.4</ele>
        <time>2022-05-24 14:21:31</time>
      </trkpt>
      <trkpt lat="40.94986" lon="0.50492">
        <ele>133.6</ele>
        <time>2022-05-24 14:21:32</time>
      </trkpt>
      <trkpt lat="40.94983" lon="0.50491">
        <ele>133.8</ele>
        <time>2022-05-24 14:21:33</time>
      </trkpt>
      <trkpt lat="40.94979" lon="0.5049">
        <ele>134</ele>
        <time>2022-05-24 14:21:34</time>
      </trkpt>
      <trkpt lat="40.94976" lon="0.50489">
        <ele>134.2</ele>
        <time>2022-05-24 14:21:35</time>
      </trkpt>
      <trkpt lat="40.94973" lon="0.50489">
        <ele>134.4</ele>
        <time>2022-05-24 14:21:36</time>
      </trkpt>
      <trkpt lat="40.9497" lon="0.50488">
        <ele>134.6</ele>
        <time>2022-05-24 14:21:37</time>
      </trkpt>
      <trkpt lat="40.94967" lon="0.50487">
        <ele>134.8</ele>
        <time>2022-05-24 14:21:38</time>
      </trkpt>
      <trkpt lat="40.94964" lon="0.50486">
        <ele>135</ele>
        <time>2022-05-24 14:21:39</time>
      </trkpt>
      <trkpt lat="40.94961" lon="0.50485">
        <ele>135</ele>
        <time>2022-05-24 14:21:40</time>
      </trkpt>
      <trkpt lat="40.94959" lon="0.50485">
        <ele>135.2</ele>
        <time>2022-05-24 14:21:41</time>
      </trkpt>
      <trkpt lat="40.94956" lon="0.50484">
        <ele>135.4</ele>
        <time>2022-05-24 14:21:42</time>
      </trkpt>
      <trkpt lat="40.94953" lon="0.50483">
        <ele>135.6</ele>
        <time>2022-05-24 14:21:43</time>
      </trkpt>
      <trkpt lat="40.9495" lon="0.50482">
        <ele>135.8</ele>
        <time>2022-05-24 14:21:44</time>
      </trkpt>
      <trkpt lat="40.94947" lon="0.50481">
        <ele>136</ele>
        <time>2022-05-24 14:21:45</time>
      </trkpt>
      <trkpt lat="40.94944" lon="0.50481">
        <ele>136</ele>
        <time>2022-05-24 14:21:46</time>
      </trkpt>
      <trkpt lat="40.94942" lon="0.5048">
        <ele>136.2</ele>
        <time>2022-05-24 14:21:47</time>
      </trkpt>
      <trkpt lat="40.94939" lon="0.50479">
        <ele>136.4</ele>
        <time>2022-05-24 14:21:48</time>
      </trkpt>
      <trkpt lat="40.94936" lon="0.50479">
        <ele>136.6</ele>
        <time>2022-05-24 14:21:49</time>
      </trkpt>
      <trkpt lat="40.94933" lon="0.50478">
        <ele>136.8</ele>
        <time>2022-05-24 14:21:50</time>
      </trkpt>
      <trkpt lat="40.94931" lon="0.50478">
        <ele>137</ele>
        <time>2022-05-24 14:21:51</time>
      </trkpt>
      <trkpt lat="40.94928" lon="0.50477">
        <ele>137</ele>
        <time>2022-05-24 14:21:52</time>
      </trkpt>
      <trkpt lat="40.94925" lon="0.50477">
        <ele>137.2</ele>
        <time>2022-05-24 14:21:53</time>
      </trkpt>
      <trkpt lat="40.94923" lon="0.50477">
        <ele>137.4</ele>
        <time>2022-05-24 14:21:54</time>
      </trkpt>
      <trkpt lat="40.9492" lon="0.50477">
        <ele>137.6</ele>
        <time>2022-05-24 14:21:55</time>
      </trkpt>
      <trkpt lat="40.94917" lon="0.50477">
        <ele>137.8</ele>
        <time>2022-05-24 14:21:56</time>
      </trkpt>
      <trkpt lat="40.94915" lon="0.50477">
        <ele>138</ele>
        <time>2022-05-24 14:21:57</time>
      </trkpt>
      <trkpt lat="40.94912" lon="0.50477">
        <ele>138</ele>
        <time>2022-05-24 14:21:58</time>
      </trkpt>
      <trkpt lat="40.94909" lon="0.50477">
        <ele>138.2</ele>
        <time>2022-05-24 14:21:59</time>
      </trkpt>
      <trkpt lat="40.94907" lon="0.50477">
        <ele>138.4</ele>
        <time>2022-05-24 14:22:00</time>
      </trkpt>
      <trkpt lat="40.94904" lon="0.50478">
        <ele>138.6</ele>
        <time>2022-05-24 14:22:01</time>
      </trkpt>
      <trkpt lat="40.94902" lon="0.50479">
        <ele>138.6</ele>
        <time>2022-05-24 14:22:02</time>
      </trkpt>
      <trkpt lat="40.94899" lon="0.5048">
        <ele>138.8</ele>
        <time>2022-05-24 14:22:03</time>
      </trkpt>
      <trkpt lat="40.94897" lon="0.50482">
        <ele>139</ele>
        <time>2022-05-24 14:22:04</time>
      </trkpt>
      <trkpt lat="40.94895" lon="0.50483">
        <ele>139.2</ele>
        <time>2022-05-24 14:22:05</time>
      </trkpt>
      <trkpt lat="40.94892" lon="0.50485">
        <ele>139.2</ele>
        <time>2022-05-24 14:22:06</time>
      </trkpt>
      <trkpt lat="40.9489" lon="0.50487">
        <ele>139.4</ele>
        <time>2022-05-24 14:22:07</time>
      </trkpt>
      <trkpt lat="40.94888" lon="0.50488">
        <ele>139.6</ele>
        <time>2022-05-24 14:22:08</time>
      </trkpt>
      <trkpt lat="40.94886" lon="0.50491">
        <ele>139.8</ele>
        <time>2022-05-24 14:22:09</time>
      </trkpt>
      <trkpt lat="40.94884" lon="0.50493">
        <ele>139.8</ele>
        <time>2022-05-24 14:22:10</time>
      </trkpt>
      <trkpt lat="40.94883" lon="0.50495">
        <ele>140</ele>
        <time>2022-05-24 14:22:11</time>
      </trkpt>
      <trkpt lat="40.9488" lon="0.50497">
        <ele>140.2</ele>
        <time>2022-05-24 14:22:12</time>
      </trkpt>
      <trkpt lat="40.94878" lon="0.50498">
        <ele>140.4</ele>
        <time>2022-05-24 14:22:13</time>
      </trkpt>
      <trkpt lat="40.94876" lon="0.505">
        <ele>140.6</ele>
        <time>2022-05-24 14:22:14</time>
      </trkpt>
      <trkpt lat="40.94873" lon="0.50502">
        <ele>140.8</ele>
        <time>2022-05-24 14:22:15</time>
      </trkpt>
      <trkpt lat="40.94871" lon="0.50505">
        <ele>141</ele>
        <time>2022-05-24 14:22:16</time>
      </trkpt>
      <trkpt lat="40.94869" lon="0.50507">
        <ele>141</ele>
        <time>2022-05-24 14:22:17</time>
      </trkpt>
      <trkpt lat="40.94866" lon="0.50509">
        <ele>141.2</ele>
        <time>2022-05-24 14:22:18</time>
      </trkpt>
      <trkpt lat="40.94864" lon="0.50511">
        <ele>141.4</ele>
        <time>2022-05-24 14:22:19</time>
      </trkpt>
      <trkpt lat="40.94861" lon="0.50512">
        <ele>141.4</ele>
        <time>2022-05-24 14:22:20</time>
      </trkpt>
      <trkpt lat="40.94858" lon="0.50513">
        <ele>141.6</ele>
        <time>2022-05-24 14:22:21</time>
      </trkpt>
      <trkpt lat="40.94856" lon="0.50514">
        <ele>141.8</ele>
        <time>2022-05-24 14:22:22</time>
      </trkpt>
      <trkpt lat="40.94853" lon="0.50515">
        <ele>142</ele>
        <time>2022-05-24 14:22:23</time>
      </trkpt>
      <trkpt lat="40.94851" lon="0.50515">
        <ele>142.2</ele>
        <time>2022-05-24 14:22:24</time>
      </trkpt>
      <trkpt lat="40.94848" lon="0.50514">
        <ele>142.4</ele>
        <time>2022-05-24 14:22:25</time>
      </trkpt>
      <trkpt lat="40.94846" lon="0.50514">
        <ele>142.6</ele>
        <time>2022-05-24 14:22:26</time>
      </trkpt>
      <trkpt lat="40.94843" lon="0.50513">
        <ele>142.8</ele>
        <time>2022-05-24 14:22:27</time>
      </trkpt>
      <trkpt lat="40.9484" lon="0.50513">
        <ele>143</ele>
        <time>2022-05-24 14:22:28</time>
      </trkpt>
      <trkpt lat="40.94838" lon="0.50512">
        <ele>143.2</ele>
        <time>2022-05-24 14:22:29</time>
      </trkpt>
      <trkpt lat="40.94835" lon="0.50512">
        <ele>143.4</ele>
        <time>2022-05-24 14:22:30</time>
      </trkpt>
      <trkpt lat="40.94833" lon="0.50511">
        <ele>143.6</ele>
        <time>2022-05-24 14:22:31</time>
      </trkpt>
      <trkpt lat="40.9483" lon="0.50511">
        <ele>143.8</ele>
        <time>2022-05-24 14:22:32</time>
      </trkpt>
      <trkpt lat="40.94828" lon="0.5051">
        <ele>143.8</ele>
        <time>2022-05-24 14:22:33</time>
      </trkpt>
      <trkpt lat="40.94824" lon="0.50509">
        <ele>144.2</ele>
        <time>2022-05-24 14:22:34</time>
      </trkpt>
      <trkpt lat="40.94821" lon="0.50508">
        <ele>144.2</ele>
        <time>2022-05-24 14:22:35</time>
      </trkpt>
      <trkpt lat="40.94818" lon="0.50507">
        <ele>144.4</ele>
        <time>2022-05-24 14:22:36</time>
      </trkpt>
      <trkpt lat="40.94815" lon="0.50506">
        <ele>144.6</ele>
        <time>2022-05-24 14:22:37</time>
      </trkpt>
      <trkpt lat="40.94813" lon="0.50504">
        <ele>144.8</ele>
        <time>2022-05-24 14:22:38</time>
      </trkpt>
      <trkpt lat="40.9481" lon="0.50502">
        <ele>145</ele>
        <time>2022-05-24 14:22:39</time>
      </trkpt>
      <trkpt lat="40.94808" lon="0.505">
        <ele>145.2</ele>
        <time>2022-05-24 14:22:40</time>
      </trkpt>
      <trkpt lat="40.94806" lon="0.50499">
        <ele>145.4</ele>
        <time>2022-05-24 14:22:41</time>
      </trkpt>
      <trkpt lat="40.94803" lon="0.50496">
        <ele>145.6</ele>
        <time>2022-05-24 14:22:42</time>
      </trkpt>
      <trkpt lat="40.94801" lon="0.50495">
        <ele>145.8</ele>
        <time>2022-05-24 14:22:43</time>
      </trkpt>
      <trkpt lat="40.94799" lon="0.50493">
        <ele>146</ele>
        <time>2022-05-24 14:22:44</time>
      </trkpt>
      <trkpt lat="40.94797" lon="0.50491">
        <ele>146.2</ele>
        <time>2022-05-24 14:22:45</time>
      </trkpt>
      <trkpt lat="40.94795" lon="0.50489">
        <ele>146.4</ele>
        <time>2022-05-24 14:22:46</time>
      </trkpt>
      <trkpt lat="40.94793" lon="0.50487">
        <ele>146.6</ele>
        <time>2022-05-24 14:22:47</time>
      </trkpt>
      <trkpt lat="40.94791" lon="0.50485">
        <ele>146.8</ele>
        <time>2022-05-24 14:22:48</time>
      </trkpt>
      <trkpt lat="40.94789" lon="0.50483">
        <ele>147</ele>
        <time>2022-05-24 14:22:49</time>
      </trkpt>
      <trkpt lat="40.94787" lon="0.50482">
        <ele>147.2</ele>
        <time>2022-05-24 14:22:50</time>
      </trkpt>
      <trkpt lat="40.94785" lon="0.5048">
        <ele>147.4</ele>
        <time>2022-05-24 14:22:51</time>
      </trkpt>
      <trkpt lat="40.94783" lon="0.50478">
        <ele>147.6</ele>
        <time>2022-05-24 14:22:52</time>
      </trkpt>
      <trkpt lat="40.94781" lon="0.50476">
        <ele>147.8</ele>
        <time>2022-05-24 14:22:53</time>
      </trkpt>
      <trkpt lat="40.94779" lon="0.50475">
        <ele>148</ele>
        <time>2022-05-24 14:22:54</time>
      </trkpt>
      <trkpt lat="40.94777" lon="0.50473">
        <ele>148</ele>
        <time>2022-05-24 14:22:55</time>
      </trkpt>
      <trkpt lat="40.94774" lon="0.50472">
        <ele>148.2</ele>
        <time>2022-05-24 14:22:56</time>
      </trkpt>
      <trkpt lat="40.94772" lon="0.50471">
        <ele>148.4</ele>
        <time>2022-05-24 14:22:57</time>
      </trkpt>
      <trkpt lat="40.9477" lon="0.50469">
        <ele>148.6</ele>
        <time>2022-05-24 14:22:58</time>
      </trkpt>
      <trkpt lat="40.94767" lon="0.50468">
        <ele>148.8</ele>
        <time>2022-05-24 14:22:59</time>
      </trkpt>
      <trkpt lat="40.94765" lon="0.50467">
        <ele>149</ele>
        <time>2022-05-24 14:23:00</time>
      </trkpt>
      <trkpt lat="40.94762" lon="0.50467">
        <ele>149</ele>
        <time>2022-05-24 14:23:01</time>
      </trkpt>
      <trkpt lat="40.9476" lon="0.50467">
        <ele>149.2</ele>
        <time>2022-05-24 14:23:02</time>
      </trkpt>
      <trkpt lat="40.94757" lon="0.50467">
        <ele>149.4</ele>
        <time>2022-05-24 14:23:03</time>
      </trkpt>
      <trkpt lat="40.94755" lon="0.50466">
        <ele>149.4</ele>
        <time>2022-05-24 14:23:04</time>
      </trkpt>
      <trkpt lat="40.94752" lon="0.50466">
        <ele>149.6</ele>
        <time>2022-05-24 14:23:05</time>
      </trkpt>
      <trkpt lat="40.9475" lon="0.50467">
        <ele>149.8</ele>
        <time>2022-05-24 14:23:06</time>
      </trkpt>
      <trkpt lat="40.94747" lon="0.50467">
        <ele>150</ele>
        <time>2022-05-24 14:23:07</time>
      </trkpt>
      <trkpt lat="40.94744" lon="0.50467">
        <ele>150</ele>
        <time>2022-05-24 14:23:08</time>
      </trkpt>
      <trkpt lat="40.94742" lon="0.50467">
        <ele>150.2</ele>
        <time>2022-05-24 14:23:09</time>
      </trkpt>
      <trkpt lat="40.9474" lon="0.50467">
        <ele>150.4</ele>
        <time>2022-05-24 14:23:10</time>
      </trkpt>
      <trkpt lat="40.94737" lon="0.50467">
        <ele>150.6</ele>
        <time>2022-05-24 14:23:11</time>
      </trkpt>
      <trkpt lat="40.94735" lon="0.50467">
        <ele>150.8</ele>
        <time>2022-05-24 14:23:12</time>
      </trkpt>
      <trkpt lat="40.94732" lon="0.50467">
        <ele>150.8</ele>
        <time>2022-05-24 14:23:13</time>
      </trkpt>
      <trkpt lat="40.9473" lon="0.50467">
        <ele>151</ele>
        <time>2022-05-24 14:23:14</time>
      </trkpt>
      <trkpt lat="40.94727" lon="0.50467">
        <ele>151.2</ele>
        <time>2022-05-24 14:23:15</time>
      </trkpt>
      <trkpt lat="40.94725" lon="0.50468">
        <ele>151.4</ele>
        <time>2022-05-24 14:23:16</time>
      </trkpt>
      <trkpt lat="40.94722" lon="0.50469">
        <ele>151.6</ele>
        <time>2022-05-24 14:23:17</time>
      </trkpt>
      <trkpt lat="40.9472" lon="0.50469">
        <ele>151.8</ele>
        <time>2022-05-24 14:23:18</time>
      </trkpt>
      <trkpt lat="40.94718" lon="0.5047">
        <ele>152</ele>
        <time>2022-05-24 14:23:19</time>
      </trkpt>
      <trkpt lat="40.94715" lon="0.5047">
        <ele>152.2</ele>
        <time>2022-05-24 14:23:20</time>
      </trkpt>
      <trkpt lat="40.94713" lon="0.5047">
        <ele>152.2</ele>
        <time>2022-05-24 14:23:21</time>
      </trkpt>
      <trkpt lat="40.9471" lon="0.50471">
        <ele>152.4</ele>
        <time>2022-05-24 14:23:22</time>
      </trkpt>
      <trkpt lat="40.94708" lon="0.50471">
        <ele>152.6</ele>
        <time>2022-05-24 14:23:23</time>
      </trkpt>
      <trkpt lat="40.94705" lon="0.50471">
        <ele>152.8</ele>
        <time>2022-05-24 14:23:24</time>
      </trkpt>
      <trkpt lat="40.94703" lon="0.50471">
        <ele>153</ele>
        <time>2022-05-24 14:23:25</time>
      </trkpt>
      <trkpt lat="40.947" lon="0.50471">
        <ele>153</ele>
        <time>2022-05-24 14:23:26</time>
      </trkpt>
      <trkpt lat="40.94698" lon="0.50471">
        <ele>153.2</ele>
        <time>2022-05-24 14:23:27</time>
      </trkpt>
      <trkpt lat="40.94696" lon="0.50471">
        <ele>153.4</ele>
        <time>2022-05-24 14:23:28</time>
      </trkpt>
      <trkpt lat="40.94693" lon="0.50471">
        <ele>153.6</ele>
        <time>2022-05-24 14:23:29</time>
      </trkpt>
      <trkpt lat="40.94691" lon="0.50472">
        <ele>153.6</ele>
        <time>2022-05-24 14:23:30</time>
      </trkpt>
      <trkpt lat="40.94689" lon="0.50472">
        <ele>153.8</ele>
        <time>2022-05-24 14:23:31</time>
      </trkpt>
      <trkpt lat="40.94686" lon="0.50473">
        <ele>154</ele>
        <time>2022-05-24 14:23:32</time>
      </trkpt>
      <trkpt lat="40.94684" lon="0.50473">
        <ele>154.2</ele>
        <time>2022-05-24 14:23:33</time>
      </trkpt>
      <trkpt lat="40.94682" lon="0.50475">
        <ele>154.4</ele>
        <time>2022-05-24 14:23:34</time>
      </trkpt>
      <trkpt lat="40.9468" lon="0.50476">
        <ele>154.6</ele>
        <time>2022-05-24 14:23:35</time>
      </trkpt>
      <trkpt lat="40.94677" lon="0.50477">
        <ele>154.8</ele>
        <time>2022-05-24 14:23:36</time>
      </trkpt>
      <trkpt lat="40.94675" lon="0.50479">
        <ele>154.8</ele>
        <time>2022-05-24 14:23:37</time>
      </trkpt>
      <trkpt lat="40.94673" lon="0.5048">
        <ele>155</ele>
        <time>2022-05-24 14:23:38</time>
      </trkpt>
      <trkpt lat="40.94671" lon="0.50482">
        <ele>155.2</ele>
        <time>2022-05-24 14:23:39</time>
      </trkpt>
      <trkpt lat="40.94669" lon="0.50484">
        <ele>155.2</ele>
        <time>2022-05-24 14:23:40</time>
      </trkpt>
      <trkpt lat="40.94668" lon="0.50486">
        <ele>155.4</ele>
        <time>2022-05-24 14:23:41</time>
      </trkpt>
      <trkpt lat="40.94666" lon="0.50488">
        <ele>155.6</ele>
        <time>2022-05-24 14:23:42</time>
      </trkpt>
      <trkpt lat="40.94665" lon="0.5049">
        <ele>155.6</ele>
        <time>2022-05-24 14:23:43</time>
      </trkpt>
      <trkpt lat="40.94663" lon="0.50492">
        <ele>155.8</ele>
        <time>2022-05-24 14:23:44</time>
      </trkpt>
      <trkpt lat="40.94662" lon="0.50495">
        <ele>156</ele>
        <time>2022-05-24 14:23:45</time>
      </trkpt>
      <trkpt lat="40.94661" lon="0.50497">
        <ele>156</ele>
        <time>2022-05-24 14:23:46</time>
      </trkpt>
      <trkpt lat="40.94659" lon="0.50499">
        <ele>156.2</ele>
        <time>2022-05-24 14:23:47</time>
      </trkpt>
      <trkpt lat="40.94658" lon="0.50502">
        <ele>156.4</ele>
        <time>2022-05-24 14:23:48</time>
      </trkpt>
      <trkpt lat="40.94657" lon="0.50504">
        <ele>156.4</ele>
        <time>2022-05-24 14:23:49</time>
      </trkpt>
      <trkpt lat="40.94656" lon="0.50506">
        <ele>156.6</ele>
        <time>2022-05-24 14:23:50</time>
      </trkpt>
      <trkpt lat="40.94654" lon="0.50508">
        <ele>156.8</ele>
        <time>2022-05-24 14:23:51</time>
      </trkpt>
      <trkpt lat="40.94653" lon="0.5051">
        <ele>157</ele>
        <time>2022-05-24 14:23:52</time>
      </trkpt>
      <trkpt lat="40.94651" lon="0.50512">
        <ele>157</ele>
        <time>2022-05-24 14:23:53</time>
      </trkpt>
      <trkpt lat="40.9465" lon="0.50514">
        <ele>157.2</ele>
        <time>2022-05-24 14:23:54</time>
      </trkpt>
      <trkpt lat="40.94648" lon="0.50515">
        <ele>157.4</ele>
        <time>2022-05-24 14:23:55</time>
      </trkpt>
      <trkpt lat="40.94646" lon="0.50517">
        <ele>157.4</ele>
        <time>2022-05-24 14:23:56</time>
      </trkpt>
      <trkpt lat="40.94644" lon="0.50519">
        <ele>157.6</ele>
        <time>2022-05-24 14:23:57</time>
      </trkpt>
      <trkpt lat="40.94643" lon="0.50521">
        <ele>157.6</ele>
        <time>2022-05-24 14:23:58</time>
      </trkpt>
      <trkpt lat="40.94641" lon="0.50524">
        <ele>157.8</ele>
        <time>2022-05-24 14:23:59</time>
      </trkpt>
      <trkpt lat="40.94639" lon="0.50526">
        <ele>158</ele>
        <time>2022-05-24 14:24:00</time>
      </trkpt>
      <trkpt lat="40.94637" lon="0.50529">
        <ele>158</ele>
        <time>2022-05-24 14:24:01</time>
      </trkpt>
      <trkpt lat="40.94635" lon="0.50532">
        <ele>158.2</ele>
        <time>2022-05-24 14:24:02</time>
      </trkpt>
      <trkpt lat="40.94633" lon="0.50534">
        <ele>158.4</ele>
        <time>2022-05-24 14:24:03</time>
      </trkpt>
      <trkpt lat="40.94631" lon="0.50537">
        <ele>158.6</ele>
        <time>2022-05-24 14:24:04</time>
      </trkpt>
      <trkpt lat="40.94629" lon="0.50539">
        <ele>158.6</ele>
        <time>2022-05-24 14:24:05</time>
      </trkpt>
      <trkpt lat="40.94627" lon="0.50542">
        <ele>158.8</ele>
        <time>2022-05-24 14:24:06</time>
      </trkpt>
      <trkpt lat="40.94625" lon="0.50544">
        <ele>159</ele>
        <time>2022-05-24 14:24:07</time>
      </trkpt>
      <trkpt lat="40.94623" lon="0.50546">
        <ele>159.2</ele>
        <time>2022-05-24 14:24:08</time>
      </trkpt>
      <trkpt lat="40.94621" lon="0.50548">
        <ele>159.4</ele>
        <time>2022-05-24 14:24:09</time>
      </trkpt>
      <trkpt lat="40.94619" lon="0.5055">
        <ele>159.6</ele>
        <time>2022-05-24 14:24:10</time>
      </trkpt>
      <trkpt lat="40.94616" lon="0.50553">
        <ele>159.6</ele>
        <time>2022-05-24 14:24:11</time>
      </trkpt>
      <trkpt lat="40.94614" lon="0.50555">
        <ele>159.8</ele>
        <time>2022-05-24 14:24:12</time>
      </trkpt>
      <trkpt lat="40.94612" lon="0.50558">
        <ele>160</ele>
        <time>2022-05-24 14:24:13</time>
      </trkpt>
      <trkpt lat="40.94609" lon="0.5056">
        <ele>160.2</ele>
        <time>2022-05-24 14:24:14</time>
      </trkpt>
      <trkpt lat="40.94607" lon="0.50563">
        <ele>160.4</ele>
        <time>2022-05-24 14:24:15</time>
      </trkpt>
      <trkpt lat="40.94605" lon="0.50566">
        <ele>160.6</ele>
        <time>2022-05-24 14:24:16</time>
      </trkpt>
      <trkpt lat="40.94603" lon="0.50568">
        <ele>160.8</ele>
        <time>2022-05-24 14:24:17</time>
      </trkpt>
      <trkpt lat="40.94601" lon="0.50571">
        <ele>161</ele>
        <time>2022-05-24 14:24:18</time>
      </trkpt>
      <trkpt lat="40.94599" lon="0.50574">
        <ele>161</ele>
        <time>2022-05-24 14:24:19</time>
      </trkpt>
      <trkpt lat="40.94597" lon="0.50576">
        <ele>161.2</ele>
        <time>2022-05-24 14:24:20</time>
      </trkpt>
      <trkpt lat="40.94595" lon="0.50578">
        <ele>161.4</ele>
        <time>2022-05-24 14:24:21</time>
      </trkpt>
      <trkpt lat="40.94593" lon="0.50581">
        <ele>161.4</ele>
        <time>2022-05-24 14:24:22</time>
      </trkpt>
      <trkpt lat="40.94591" lon="0.50583">
        <ele>161.6</ele>
        <time>2022-05-24 14:24:23</time>
      </trkpt>
      <trkpt lat="40.94588" lon="0.50585">
        <ele>161.6</ele>
        <time>2022-05-24 14:24:24</time>
      </trkpt>
      <trkpt lat="40.94586" lon="0.50587">
        <ele>161.8</ele>
        <time>2022-05-24 14:24:25</time>
      </trkpt>
      <trkpt lat="40.94584" lon="0.50589">
        <ele>161.8</ele>
        <time>2022-05-24 14:24:26</time>
      </trkpt>
      <trkpt lat="40.94581" lon="0.50591">
        <ele>162</ele>
        <time>2022-05-24 14:24:27</time>
      </trkpt>
      <trkpt lat="40.94578" lon="0.50593">
        <ele>162</ele>
        <time>2022-05-24 14:24:28</time>
      </trkpt>
      <trkpt lat="40.94575" lon="0.50595">
        <ele>162</ele>
        <time>2022-05-24 14:24:29</time>
      </trkpt>
      <trkpt lat="40.94572" lon="0.50597">
        <ele>162.2</ele>
        <time>2022-05-24 14:24:30</time>
      </trkpt>
      <trkpt lat="40.94569" lon="0.50599">
        <ele>162.2</ele>
        <time>2022-05-24 14:24:31</time>
      </trkpt>
      <trkpt lat="40.94565" lon="0.50601">
        <ele>162.2</ele>
        <time>2022-05-24 14:24:32</time>
      </trkpt>
      <trkpt lat="40.94562" lon="0.50603">
        <ele>162.4</ele>
        <time>2022-05-24 14:24:33</time>
      </trkpt>
      <trkpt lat="40.94558" lon="0.50605">
        <ele>162.4</ele>
        <time>2022-05-24 14:24:34</time>
      </trkpt>
      <trkpt lat="40.94555" lon="0.50606">
        <ele>162.4</ele>
        <time>2022-05-24 14:24:35</time>
      </trkpt>
      <trkpt lat="40.94551" lon="0.50607">
        <ele>162.4</ele>
        <time>2022-05-24 14:24:36</time>
      </trkpt>
      <trkpt lat="40.94546" lon="0.50608">
        <ele>162.4</ele>
        <time>2022-05-24 14:24:37</time>
      </trkpt>
      <trkpt lat="40.94543" lon="0.50609">
        <ele>162.4</ele>
        <time>2022-05-24 14:24:38</time>
      </trkpt>
      <trkpt lat="40.94539" lon="0.5061">
        <ele>162.4</ele>
        <time>2022-05-24 14:24:39</time>
      </trkpt>
      <trkpt lat="40.94535" lon="0.5061">
        <ele>162.6</ele>
        <time>2022-05-24 14:24:40</time>
      </trkpt>
      <trkpt lat="40.94531" lon="0.5061">
        <ele>162.6</ele>
        <time>2022-05-24 14:24:41</time>
      </trkpt>
      <trkpt lat="40.94527" lon="0.50611">
        <ele>162.6</ele>
        <time>2022-05-24 14:24:42</time>
      </trkpt>
      <trkpt lat="40.94522" lon="0.5061">
        <ele>162.6</ele>
        <time>2022-05-24 14:24:43</time>
      </trkpt>
      <trkpt lat="40.94518" lon="0.5061">
        <ele>162.6</ele>
        <time>2022-05-24 14:24:44</time>
      </trkpt>
      <trkpt lat="40.94514" lon="0.50609">
        <ele>162.6</ele>
        <time>2022-05-24 14:24:45</time>
      </trkpt>
      <trkpt lat="40.94509" lon="0.50608">
        <ele>162.6</ele>
        <time>2022-05-24 14:24:46</time>
      </trkpt>
      <trkpt lat="40.94505" lon="0.50607">
        <ele>162.6</ele>
        <time>2022-05-24 14:24:47</time>
      </trkpt>
      <trkpt lat="40.94501" lon="0.50606">
        <ele>162.8</ele>
        <time>2022-05-24 14:24:48</time>
      </trkpt>
      <trkpt lat="40.94497" lon="0.50604">
        <ele>162.8</ele>
        <time>2022-05-24 14:24:49</time>
      </trkpt>
      <trkpt lat="40.94493" lon="0.50601">
        <ele>162.8</ele>
        <time>2022-05-24 14:24:50</time>
      </trkpt>
      <trkpt lat="40.9449" lon="0.50598">
        <ele>162.8</ele>
        <time>2022-05-24 14:24:51</time>
      </trkpt>
      <trkpt lat="40.94487" lon="0.50595">
        <ele>162.8</ele>
        <time>2022-05-24 14:24:52</time>
      </trkpt>
      <trkpt lat="40.94484" lon="0.50592">
        <ele>162.8</ele>
        <time>2022-05-24 14:24:53</time>
      </trkpt>
      <trkpt lat="40.94481" lon="0.50588">
        <ele>162.8</ele>
        <time>2022-05-24 14:24:54</time>
      </trkpt>
      <trkpt lat="40.94478" lon="0.50585">
        <ele>162.8</ele>
        <time>2022-05-24 14:24:55</time>
      </trkpt>
      <trkpt lat="40.94474" lon="0.50582">
        <ele>163</ele>
        <time>2022-05-24 14:24:56</time>
      </trkpt>
      <trkpt lat="40.94471" lon="0.50579">
        <ele>163</ele>
        <time>2022-05-24 14:24:57</time>
      </trkpt>
      <trkpt lat="40.94468" lon="0.50576">
        <ele>163</ele>
        <time>2022-05-24 14:24:58</time>
      </trkpt>
      <trkpt lat="40.94464" lon="0.50573">
        <ele>163</ele>
        <time>2022-05-24 14:24:59</time>
      </trkpt>
      <trkpt lat="40.94461" lon="0.5057">
        <ele>163</ele>
        <time>2022-05-24 14:25:00</time>
      </trkpt>
      <trkpt lat="40.94458" lon="0.50567">
        <ele>163.2</ele>
        <time>2022-05-24 14:25:01</time>
      </trkpt>
      <trkpt lat="40.94455" lon="0.50563">
        <ele>163.2</ele>
        <time>2022-05-24 14:25:02</time>
      </trkpt>
      <trkpt lat="40.94452" lon="0.5056">
        <ele>163.2</ele>
        <time>2022-05-24 14:25:03</time>
      </trkpt>
      <trkpt lat="40.94448" lon="0.50557">
        <ele>163.2</ele>
        <time>2022-05-24 14:25:04</time>
      </trkpt>
      <trkpt lat="40.94445" lon="0.50555">
        <ele>163.4</ele>
        <time>2022-05-24 14:25:05</time>
      </trkpt>
      <trkpt lat="40.94441" lon="0.50555">
        <ele>163.4</ele>
        <time>2022-05-24 14:25:06</time>
      </trkpt>
      <trkpt lat="40.94437" lon="0.50555">
        <ele>163.4</ele>
        <time>2022-05-24 14:25:07</time>
      </trkpt>
      <trkpt lat="40.94433" lon="0.50555">
        <ele>163.4</ele>
        <time>2022-05-24 14:25:08</time>
      </trkpt>
      <trkpt lat="40.94429" lon="0.50557">
        <ele>163.4</ele>
        <time>2022-05-24 14:25:09</time>
      </trkpt>
      <trkpt lat="40.94425" lon="0.50557">
        <ele>163.4</ele>
        <time>2022-05-24 14:25:10</time>
      </trkpt>
      <trkpt lat="40.9442" lon="0.50556">
        <ele>163.4</ele>
        <time>2022-05-24 14:25:11</time>
      </trkpt>
      <trkpt lat="40.94416" lon="0.50554">
        <ele>163.4</ele>
        <time>2022-05-24 14:25:12</time>
      </trkpt>
      <trkpt lat="40.94412" lon="0.50551">
        <ele>163.4</ele>
        <time>2022-05-24 14:25:13</time>
      </trkpt>
      <trkpt lat="40.94409" lon="0.50549">
        <ele>163.4</ele>
        <time>2022-05-24 14:25:14</time>
      </trkpt>
      <trkpt lat="40.94405" lon="0.50546">
        <ele>163.6</ele>
        <time>2022-05-24 14:25:15</time>
      </trkpt>
      <trkpt lat="40.94402" lon="0.50542">
        <ele>163.6</ele>
        <time>2022-05-24 14:25:16</time>
      </trkpt>
      <trkpt lat="40.94399" lon="0.5054">
        <ele>163.6</ele>
        <time>2022-05-24 14:25:17</time>
      </trkpt>
      <trkpt lat="40.94395" lon="0.50537">
        <ele>163.8</ele>
        <time>2022-05-24 14:25:18</time>
      </trkpt>
      <trkpt lat="40.94392" lon="0.50535">
        <ele>164</ele>
        <time>2022-05-24 14:25:19</time>
      </trkpt>
      <trkpt lat="40.94388" lon="0.50533">
        <ele>164</ele>
        <time>2022-05-24 14:25:20</time>
      </trkpt>
      <trkpt lat="40.94385" lon="0.50531">
        <ele>164.2</ele>
        <time>2022-05-24 14:25:21</time>
      </trkpt>
      <trkpt lat="40.94381" lon="0.50529">
        <ele>164.4</ele>
        <time>2022-05-24 14:25:22</time>
      </trkpt>
      <trkpt lat="40.94378" lon="0.50527">
        <ele>164.4</ele>
        <time>2022-05-24 14:25:23</time>
      </trkpt>
      <trkpt lat="40.94374" lon="0.50526">
        <ele>164.6</ele>
        <time>2022-05-24 14:25:24</time>
      </trkpt>
      <trkpt lat="40.94371" lon="0.50525">
        <ele>164.6</ele>
        <time>2022-05-24 14:25:25</time>
      </trkpt>
      <trkpt lat="40.94367" lon="0.50524">
        <ele>164.8</ele>
        <time>2022-05-24 14:25:26</time>
      </trkpt>
      <trkpt lat="40.94364" lon="0.50523">
        <ele>165</ele>
        <time>2022-05-24 14:25:27</time>
      </trkpt>
      <trkpt lat="40.94361" lon="0.5052">
        <ele>165</ele>
        <time>2022-05-24 14:25:28</time>
      </trkpt>
      <trkpt lat="40.94358" lon="0.50518">
        <ele>165.2</ele>
        <time>2022-05-24 14:25:29</time>
      </trkpt>
      <trkpt lat="40.94356" lon="0.50515">
        <ele>165.4</ele>
        <time>2022-05-24 14:25:30</time>
      </trkpt>
      <trkpt lat="40.94354" lon="0.50512">
        <ele>165.6</ele>
        <time>2022-05-24 14:25:31</time>
      </trkpt>
      <trkpt lat="40.94352" lon="0.50508">
        <ele>165.8</ele>
        <time>2022-05-24 14:25:32</time>
      </trkpt>
      <trkpt lat="40.94351" lon="0.50505">
        <ele>166</ele>
        <time>2022-05-24 14:25:33</time>
      </trkpt>
      <trkpt lat="40.94349" lon="0.50502">
        <ele>166</ele>
        <time>2022-05-24 14:25:34</time>
      </trkpt>
      <trkpt lat="40.94347" lon="0.50498">
        <ele>166.2</ele>
        <time>2022-05-24 14:25:35</time>
      </trkpt>
      <trkpt lat="40.94344" lon="0.50495">
        <ele>166.4</ele>
        <time>2022-05-24 14:25:36</time>
      </trkpt>
      <trkpt lat="40.94342" lon="0.50492">
        <ele>166.4</ele>
        <time>2022-05-24 14:25:37</time>
      </trkpt>
      <trkpt lat="40.94339" lon="0.50489">
        <ele>166.6</ele>
        <time>2022-05-24 14:25:38</time>
      </trkpt>
      <trkpt lat="40.94336" lon="0.50486">
        <ele>166.8</ele>
        <time>2022-05-24 14:25:39</time>
      </trkpt>
      <trkpt lat="40.94334" lon="0.50483">
        <ele>167</ele>
        <time>2022-05-24 14:25:40</time>
      </trkpt>
      <trkpt lat="40.94331" lon="0.50481">
        <ele>167.2</ele>
        <time>2022-05-24 14:25:41</time>
      </trkpt>
      <trkpt lat="40.94329" lon="0.50478">
        <ele>167.4</ele>
        <time>2022-05-24 14:25:42</time>
      </trkpt>
      <trkpt lat="40.94326" lon="0.50476">
        <ele>167.6</ele>
        <time>2022-05-24 14:25:43</time>
      </trkpt>
      <trkpt lat="40.94324" lon="0.50474">
        <ele>167.8</ele>
        <time>2022-05-24 14:25:44</time>
      </trkpt>
      <trkpt lat="40.94321" lon="0.50472">
        <ele>167.8</ele>
        <time>2022-05-24 14:25:45</time>
      </trkpt>
      <trkpt lat="40.9432" lon="0.50469">
        <ele>168</ele>
        <time>2022-05-24 14:25:46</time>
      </trkpt>
      <trkpt lat="40.94319" lon="0.50466">
        <ele>168.2</ele>
        <time>2022-05-24 14:25:47</time>
      </trkpt>
      <trkpt lat="40.94318" lon="0.50463">
        <ele>168.4</ele>
        <time>2022-05-24 14:25:48</time>
      </trkpt>
      <trkpt lat="40.94316" lon="0.50459">
        <ele>168.4</ele>
        <time>2022-05-24 14:25:49</time>
      </trkpt>
      <trkpt lat="40.94315" lon="0.50456">
        <ele>168.6</ele>
        <time>2022-05-24 14:25:50</time>
      </trkpt>
      <trkpt lat="40.94314" lon="0.50452">
        <ele>168.8</ele>
        <time>2022-05-24 14:25:51</time>
      </trkpt>
      <trkpt lat="40.94313" lon="0.50448">
        <ele>169</ele>
        <time>2022-05-24 14:25:52</time>
      </trkpt>
      <trkpt lat="40.94312" lon="0.50444">
        <ele>169</ele>
        <time>2022-05-24 14:25:53</time>
      </trkpt>
      <trkpt lat="40.94312" lon="0.50441">
        <ele>169.2</ele>
        <time>2022-05-24 14:25:54</time>
      </trkpt>
      <trkpt lat="40.94312" lon="0.50437">
        <ele>169.2</ele>
        <time>2022-05-24 14:25:55</time>
      </trkpt>
      <trkpt lat="40.94312" lon="0.50433">
        <ele>169.4</ele>
        <time>2022-05-24 14:25:56</time>
      </trkpt>
      <trkpt lat="40.94312" lon="0.5043">
        <ele>169.6</ele>
        <time>2022-05-24 14:25:57</time>
      </trkpt>
      <trkpt lat="40.94312" lon="0.50426">
        <ele>169.6</ele>
        <time>2022-05-24 14:25:58</time>
      </trkpt>
      <trkpt lat="40.94312" lon="0.50422">
        <ele>169.8</ele>
        <time>2022-05-24 14:25:59</time>
      </trkpt>
      <trkpt lat="40.94312" lon="0.50419">
        <ele>169.8</ele>
        <time>2022-05-24 14:26:00</time>
      </trkpt>
      <trkpt lat="40.94312" lon="0.50415">
        <ele>170</ele>
        <time>2022-05-24 14:26:01</time>
      </trkpt>
      <trkpt lat="40.94312" lon="0.50411">
        <ele>170.2</ele>
        <time>2022-05-24 14:26:02</time>
      </trkpt>
      <trkpt lat="40.94311" lon="0.50407">
        <ele>170.2</ele>
        <time>2022-05-24 14:26:03</time>
      </trkpt>
      <trkpt lat="40.9431" lon="0.50404">
        <ele>170.4</ele>
        <time>2022-05-24 14:26:04</time>
      </trkpt>
      <trkpt lat="40.9431" lon="0.504">
        <ele>170.4</ele>
        <time>2022-05-24 14:26:05</time>
      </trkpt>
      <trkpt lat="40.94309" lon="0.50396">
        <ele>170.6</ele>
        <time>2022-05-24 14:26:06</time>
      </trkpt>
      <trkpt lat="40.94308" lon="0.50393">
        <ele>170.8</ele>
        <time>2022-05-24 14:26:07</time>
      </trkpt>
      <trkpt lat="40.94308" lon="0.50389">
        <ele>170.8</ele>
        <time>2022-05-24 14:26:08</time>
      </trkpt>
      <trkpt lat="40.94307" lon="0.50386">
        <ele>171</ele>
        <time>2022-05-24 14:26:09</time>
      </trkpt>
      <trkpt lat="40.94307" lon="0.50384">
        <ele>171</ele>
        <time>2022-05-24 14:26:10</time>
      </trkpt>
      <trkpt lat="40.94307" lon="0.50382">
        <ele>171.2</ele>
        <time>2022-05-24 14:26:11</time>
      </trkpt>
      <trkpt lat="40.94306" lon="0.50379">
        <ele>171.2</ele>
        <time>2022-05-24 14:26:12</time>
      </trkpt>
      <trkpt lat="40.94305" lon="0.50377">
        <ele>171.4</ele>
        <time>2022-05-24 14:26:13</time>
      </trkpt>
      <trkpt lat="40.94304" lon="0.50375">
        <ele>171.4</ele>
        <time>2022-05-24 14:26:14</time>
      </trkpt>
      <trkpt lat="40.94303" lon="0.50372">
        <ele>171.6</ele>
        <time>2022-05-24 14:26:15</time>
      </trkpt>
      <trkpt lat="40.94302" lon="0.50369">
        <ele>171.6</ele>
        <time>2022-05-24 14:26:16</time>
      </trkpt>
      <trkpt lat="40.94302" lon="0.50366">
        <ele>171.8</ele>
        <time>2022-05-24 14:26:17</time>
      </trkpt>
      <trkpt lat="40.94301" lon="0.50363">
        <ele>171.8</ele>
        <time>2022-05-24 14:26:18</time>
      </trkpt>
      <trkpt lat="40.94299" lon="0.50361">
        <ele>172</ele>
        <time>2022-05-24 14:26:19</time>
      </trkpt>
      <trkpt lat="40.94297" lon="0.50359">
        <ele>172</ele>
        <time>2022-05-24 14:26:20</time>
      </trkpt>
      <trkpt lat="40.94295" lon="0.50357">
        <ele>172.2</ele>
        <time>2022-05-24 14:26:21</time>
      </trkpt>
      <trkpt lat="40.94292" lon="0.50355">
        <ele>172.2</ele>
        <time>2022-05-24 14:26:22</time>
      </trkpt>
      <trkpt lat="40.94289" lon="0.50354">
        <ele>172.4</ele>
        <time>2022-05-24 14:26:23</time>
      </trkpt>
      <trkpt lat="40.94286" lon="0.50355">
        <ele>172.4</ele>
        <time>2022-05-24 14:26:24</time>
      </trkpt>
      <trkpt lat="40.94283" lon="0.50356">
        <ele>172.4</ele>
        <time>2022-05-24 14:26:25</time>
      </trkpt>
      <trkpt lat="40.94281" lon="0.50358">
        <ele>172.6</ele>
        <time>2022-05-24 14:26:26</time>
      </trkpt>
      <trkpt lat="40.94278" lon="0.5036">
        <ele>172.6</ele>
        <time>2022-05-24 14:26:27</time>
      </trkpt>
      <trkpt lat="40.94276" lon="0.50363">
        <ele>172.6</ele>
        <time>2022-05-24 14:26:28</time>
      </trkpt>
      <trkpt lat="40.94274" lon="0.50365">
        <ele>172.8</ele>
        <time>2022-05-24 14:26:29</time>
      </trkpt>
      <trkpt lat="40.94272" lon="0.50368">
        <ele>172.8</ele>
        <time>2022-05-24 14:26:30</time>
      </trkpt>
      <trkpt lat="40.9427" lon="0.5037">
        <ele>173</ele>
        <time>2022-05-24 14:26:31</time>
      </trkpt>
      <trkpt lat="40.94268" lon="0.50371">
        <ele>173</ele>
        <time>2022-05-24 14:26:32</time>
      </trkpt>
      <trkpt lat="40.94266" lon="0.50373">
        <ele>173.2</ele>
        <time>2022-05-24 14:26:33</time>
      </trkpt>
      <trkpt lat="40.94264" lon="0.50374">
        <ele>173.4</ele>
        <time>2022-05-24 14:26:34</time>
      </trkpt>
      <trkpt lat="40.94261" lon="0.50375">
        <ele>173.4</ele>
        <time>2022-05-24 14:26:35</time>
      </trkpt>
      <trkpt lat="40.94258" lon="0.50375">
        <ele>173.6</ele>
        <time>2022-05-24 14:26:36</time>
      </trkpt>
      <trkpt lat="40.94256" lon="0.50376">
        <ele>173.8</ele>
        <time>2022-05-24 14:26:37</time>
      </trkpt>
      <trkpt lat="40.94253" lon="0.50378">
        <ele>174</ele>
        <time>2022-05-24 14:26:38</time>
      </trkpt>
      <trkpt lat="40.94251" lon="0.50379">
        <ele>174</ele>
        <time>2022-05-24 14:26:39</time>
      </trkpt>
      <trkpt lat="40.94249" lon="0.50381">
        <ele>174.2</ele>
        <time>2022-05-24 14:26:40</time>
      </trkpt>
      <trkpt lat="40.94246" lon="0.50382">
        <ele>174.4</ele>
        <time>2022-05-24 14:26:41</time>
      </trkpt>
      <trkpt lat="40.94243" lon="0.50383">
        <ele>174.4</ele>
        <time>2022-05-24 14:26:42</time>
      </trkpt>
      <trkpt lat="40.94241" lon="0.50384">
        <ele>174.6</ele>
        <time>2022-05-24 14:26:43</time>
      </trkpt>
      <trkpt lat="40.94238" lon="0.50384">
        <ele>174.8</ele>
        <time>2022-05-24 14:26:44</time>
      </trkpt>
      <trkpt lat="40.94236" lon="0.50385">
        <ele>175</ele>
        <time>2022-05-24 14:26:45</time>
      </trkpt>
      <trkpt lat="40.94233" lon="0.50387">
        <ele>175</ele>
        <time>2022-05-24 14:26:46</time>
      </trkpt>
      <trkpt lat="40.94231" lon="0.50388">
        <ele>175.2</ele>
        <time>2022-05-24 14:26:47</time>
      </trkpt>
      <trkpt lat="40.94229" lon="0.5039">
        <ele>175.4</ele>
        <time>2022-05-24 14:26:48</time>
      </trkpt>
      <trkpt lat="40.94226" lon="0.50391">
        <ele>175.4</ele>
        <time>2022-05-24 14:26:49</time>
      </trkpt>
      <trkpt lat="40.94224" lon="0.50392">
        <ele>175.6</ele>
        <time>2022-05-24 14:26:50</time>
      </trkpt>
      <trkpt lat="40.94222" lon="0.50394">
        <ele>175.8</ele>
        <time>2022-05-24 14:26:51</time>
      </trkpt>
      <trkpt lat="40.94219" lon="0.50396">
        <ele>176</ele>
        <time>2022-05-24 14:26:52</time>
      </trkpt>
      <trkpt lat="40.94217" lon="0.50398">
        <ele>176</ele>
        <time>2022-05-24 14:26:53</time>
      </trkpt>
      <trkpt lat="40.94215" lon="0.504">
        <ele>176.2</ele>
        <time>2022-05-24 14:26:54</time>
      </trkpt>
      <trkpt lat="40.94214" lon="0.50402">
        <ele>176.4</ele>
        <time>2022-05-24 14:26:55</time>
      </trkpt>
      <trkpt lat="40.94212" lon="0.50404">
        <ele>176.4</ele>
        <time>2022-05-24 14:26:56</time>
      </trkpt>
      <trkpt lat="40.9421" lon="0.50406">
        <ele>176.6</ele>
        <time>2022-05-24 14:26:57</time>
      </trkpt>
      <trkpt lat="40.94208" lon="0.50408">
        <ele>176.8</ele>
        <time>2022-05-24 14:26:58</time>
      </trkpt>
      <trkpt lat="40.94207" lon="0.5041">
        <ele>177</ele>
        <time>2022-05-24 14:26:59</time>
      </trkpt>
      <trkpt lat="40.94205" lon="0.50412">
        <ele>177</ele>
        <time>2022-05-24 14:27:00</time>
      </trkpt>
      <trkpt lat="40.94204" lon="0.50414">
        <ele>177.2</ele>
        <time>2022-05-24 14:27:01</time>
      </trkpt>
      <trkpt lat="40.94202" lon="0.50417">
        <ele>177.4</ele>
        <time>2022-05-24 14:27:02</time>
      </trkpt>
      <trkpt lat="40.94201" lon="0.5042">
        <ele>177.4</ele>
        <time>2022-05-24 14:27:03</time>
      </trkpt>
      <trkpt lat="40.94199" lon="0.50422">
        <ele>177.6</ele>
        <time>2022-05-24 14:27:04</time>
      </trkpt>
      <trkpt lat="40.94198" lon="0.50425">
        <ele>177.8</ele>
        <time>2022-05-24 14:27:05</time>
      </trkpt>
      <trkpt lat="40.94196" lon="0.50428">
        <ele>177.8</ele>
        <time>2022-05-24 14:27:06</time>
      </trkpt>
      <trkpt lat="40.94194" lon="0.5043">
        <ele>178</ele>
        <time>2022-05-24 14:27:07</time>
      </trkpt>
      <trkpt lat="40.94191" lon="0.50432">
        <ele>178</ele>
        <time>2022-05-24 14:27:08</time>
      </trkpt>
      <trkpt lat="40.94188" lon="0.50434">
        <ele>178.2</ele>
        <time>2022-05-24 14:27:09</time>
      </trkpt>
      <trkpt lat="40.94185" lon="0.50436">
        <ele>178.4</ele>
        <time>2022-05-24 14:27:10</time>
      </trkpt>
      <trkpt lat="40.94182" lon="0.50436">
        <ele>178.4</ele>
        <time>2022-05-24 14:27:11</time>
      </trkpt>
      <trkpt lat="40.94179" lon="0.50436">
        <ele>178.6</ele>
        <time>2022-05-24 14:27:12</time>
      </trkpt>
      <trkpt lat="40.94176" lon="0.50436">
        <ele>178.8</ele>
        <time>2022-05-24 14:27:13</time>
      </trkpt>
      <trkpt lat="40.94173" lon="0.50434">
        <ele>178.8</ele>
        <time>2022-05-24 14:27:14</time>
      </trkpt>
      <trkpt lat="40.9417" lon="0.50432">
        <ele>179</ele>
        <time>2022-05-24 14:27:15</time>
      </trkpt>
      <trkpt lat="40.94168" lon="0.5043">
        <ele>179</ele>
        <time>2022-05-24 14:27:16</time>
      </trkpt>
      <trkpt lat="40.94165" lon="0.50427">
        <ele>179.2</ele>
        <time>2022-05-24 14:27:17</time>
      </trkpt>
      <trkpt lat="40.94162" lon="0.50424">
        <ele>179.2</ele>
        <time>2022-05-24 14:27:18</time>
      </trkpt>
      <trkpt lat="40.94159" lon="0.50422">
        <ele>179.2</ele>
        <time>2022-05-24 14:27:19</time>
      </trkpt>
      <trkpt lat="40.94156" lon="0.50419">
        <ele>179</ele>
        <time>2022-05-24 14:27:20</time>
      </trkpt>
      <trkpt lat="40.94152" lon="0.50415">
        <ele>179</ele>
        <time>2022-05-24 14:27:21</time>
      </trkpt>
      <trkpt lat="40.94148" lon="0.50412">
        <ele>179</ele>
        <time>2022-05-24 14:27:22</time>
      </trkpt>
      <trkpt lat="40.94145" lon="0.50408">
        <ele>178.8</ele>
        <time>2022-05-24 14:27:23</time>
      </trkpt>
      <trkpt lat="40.94141" lon="0.50405">
        <ele>178.8</ele>
        <time>2022-05-24 14:27:24</time>
      </trkpt>
      <trkpt lat="40.94138" lon="0.50402">
        <ele>178.8</ele>
        <time>2022-05-24 14:27:25</time>
      </trkpt>
      <trkpt lat="40.94135" lon="0.50398">
        <ele>178.6</ele>
        <time>2022-05-24 14:27:26</time>
      </trkpt>
      <trkpt lat="40.94131" lon="0.50394">
        <ele>178.6</ele>
        <time>2022-05-24 14:27:27</time>
      </trkpt>
      <trkpt lat="40.94129" lon="0.50389">
        <ele>178.4</ele>
        <time>2022-05-24 14:27:28</time>
      </trkpt>
      <trkpt lat="40.94127" lon="0.50381">
        <ele>178.4</ele>
        <time>2022-05-24 14:27:29</time>
      </trkpt>
      <trkpt lat="40.94124" lon="0.50373">
        <ele>178.4</ele>
        <time>2022-05-24 14:27:30</time>
      </trkpt>
      <trkpt lat="40.94121" lon="0.50365">
        <ele>178.2</ele>
        <time>2022-05-24 14:27:31</time>
      </trkpt>
      <trkpt lat="40.94121" lon="0.5036">
        <ele>178.2</ele>
        <time>2022-05-24 14:27:32</time>
      </trkpt>
      <trkpt lat="40.9412" lon="0.50357">
        <ele>178.2</ele>
        <time>2022-05-24 14:27:33</time>
      </trkpt>
      <trkpt lat="40.94118" lon="0.50352">
        <ele>178</ele>
        <time>2022-05-24 14:27:34</time>
      </trkpt>
      <trkpt lat="40.94116" lon="0.5035">
        <ele>178</ele>
        <time>2022-05-24 14:27:35</time>
      </trkpt>
      <trkpt lat="40.94113" lon="0.50346">
        <ele>178</ele>
        <time>2022-05-24 14:27:36</time>
      </trkpt>
      <trkpt lat="40.94108" lon="0.50345">
        <ele>177.8</ele>
        <time>2022-05-24 14:27:37</time>
      </trkpt>
      <trkpt lat="40.94104" lon="0.50346">
        <ele>177.6</ele>
        <time>2022-05-24 14:27:38</time>
      </trkpt>
      <trkpt lat="40.94099" lon="0.50344">
        <ele>177.6</ele>
        <time>2022-05-24 14:27:39</time>
      </trkpt>
      <trkpt lat="40.94095" lon="0.50343">
        <ele>177.6</ele>
        <time>2022-05-24 14:27:40</time>
      </trkpt>
      <trkpt lat="40.94091" lon="0.50341">
        <ele>177.4</ele>
        <time>2022-05-24 14:27:41</time>
      </trkpt>
      <trkpt lat="40.94086" lon="0.5034">
        <ele>177.4</ele>
        <time>2022-05-24 14:27:42</time>
      </trkpt>
      <trkpt lat="40.94082" lon="0.50339">
        <ele>177.4</ele>
        <time>2022-05-24 14:27:43</time>
      </trkpt>
      <trkpt lat="40.94078" lon="0.50337">
        <ele>177.4</ele>
        <time>2022-05-24 14:27:44</time>
      </trkpt>
      <trkpt lat="40.94073" lon="0.50336">
        <ele>177.4</ele>
        <time>2022-05-24 14:27:45</time>
      </trkpt>
      <trkpt lat="40.9407" lon="0.50336">
        <ele>177.4</ele>
        <time>2022-05-24 14:27:46</time>
      </trkpt>
      <trkpt lat="40.94066" lon="0.50334">
        <ele>177.4</ele>
        <time>2022-05-24 14:27:47</time>
      </trkpt>
      <trkpt lat="40.94062" lon="0.50333">
        <ele>177.4</ele>
        <time>2022-05-24 14:27:48</time>
      </trkpt>
      <trkpt lat="40.94057" lon="0.50331">
        <ele>177.4</ele>
        <time>2022-05-24 14:27:49</time>
      </trkpt>
      <trkpt lat="40.94054" lon="0.50331">
        <ele>177.4</ele>
        <time>2022-05-24 14:27:50</time>
      </trkpt>
      <trkpt lat="40.9405" lon="0.5033">
        <ele>177.6</ele>
        <time>2022-05-24 14:27:51</time>
      </trkpt>
      <trkpt lat="40.94046" lon="0.50329">
        <ele>177.6</ele>
        <time>2022-05-24 14:27:52</time>
      </trkpt>
      <trkpt lat="40.94042" lon="0.50327">
        <ele>177.6</ele>
        <time>2022-05-24 14:27:53</time>
      </trkpt>
      <trkpt lat="40.94038" lon="0.50326">
        <ele>177.6</ele>
        <time>2022-05-24 14:27:54</time>
      </trkpt>
      <trkpt lat="40.94034" lon="0.50325">
        <ele>177.8</ele>
        <time>2022-05-24 14:27:55</time>
      </trkpt>
      <trkpt lat="40.94031" lon="0.50324">
        <ele>177.8</ele>
        <time>2022-05-24 14:27:56</time>
      </trkpt>
      <trkpt lat="40.94027" lon="0.50323">
        <ele>177.8</ele>
        <time>2022-05-24 14:27:57</time>
      </trkpt>
      <trkpt lat="40.94024" lon="0.50322">
        <ele>177.8</ele>
        <time>2022-05-24 14:27:58</time>
      </trkpt>
      <trkpt lat="40.94019" lon="0.50322">
        <ele>177.8</ele>
        <time>2022-05-24 14:27:59</time>
      </trkpt>
      <trkpt lat="40.94016" lon="0.50321">
        <ele>178</ele>
        <time>2022-05-24 14:28:00</time>
      </trkpt>
      <trkpt lat="40.94012" lon="0.50321">
        <ele>178</ele>
        <time>2022-05-24 14:28:01</time>
      </trkpt>
      <trkpt lat="40.94007" lon="0.50321">
        <ele>178.2</ele>
        <time>2022-05-24 14:28:02</time>
      </trkpt>
      <trkpt lat="40.94003" lon="0.50322">
        <ele>178.2</ele>
        <time>2022-05-24 14:28:03</time>
      </trkpt>
      <trkpt lat="40.93999" lon="0.50322">
        <ele>178.2</ele>
        <time>2022-05-24 14:28:04</time>
      </trkpt>
      <trkpt lat="40.93994" lon="0.50323">
        <ele>178.2</ele>
        <time>2022-05-24 14:28:05</time>
      </trkpt>
      <trkpt lat="40.9399" lon="0.50324">
        <ele>178.4</ele>
        <time>2022-05-24 14:28:06</time>
      </trkpt>
      <trkpt lat="40.93986" lon="0.50326">
        <ele>178.4</ele>
        <time>2022-05-24 14:28:07</time>
      </trkpt>
      <trkpt lat="40.93982" lon="0.50327">
        <ele>178.2</ele>
        <time>2022-05-24 14:28:08</time>
      </trkpt>
      <trkpt lat="40.93977" lon="0.50327">
        <ele>178.2</ele>
        <time>2022-05-24 14:28:09</time>
      </trkpt>
      <trkpt lat="40.93972" lon="0.50328">
        <ele>178.2</ele>
        <time>2022-05-24 14:28:10</time>
      </trkpt>
      <trkpt lat="40.93967" lon="0.50327">
        <ele>178.2</ele>
        <time>2022-05-24 14:28:11</time>
      </trkpt>
      <trkpt lat="40.93962" lon="0.50326">
        <ele>178.2</ele>
        <time>2022-05-24 14:28:12</time>
      </trkpt>
      <trkpt lat="40.93957" lon="0.50324">
        <ele>178.2</ele>
        <time>2022-05-24 14:28:13</time>
      </trkpt>
      <trkpt lat="40.93952" lon="0.50322">
        <ele>178.2</ele>
        <time>2022-05-24 14:28:14</time>
      </trkpt>
      <trkpt lat="40.93948" lon="0.50319">
        <ele>178</ele>
        <time>2022-05-24 14:28:15</time>
      </trkpt>
      <trkpt lat="40.93943" lon="0.50315">
        <ele>178</ele>
        <time>2022-05-24 14:28:16</time>
      </trkpt>
      <trkpt lat="40.93939" lon="0.50312">
        <ele>178</ele>
        <time>2022-05-24 14:28:17</time>
      </trkpt>
      <trkpt lat="40.93935" lon="0.50308">
        <ele>178</ele>
        <time>2022-05-24 14:28:18</time>
      </trkpt>
      <trkpt lat="40.9393" lon="0.50304">
        <ele>178</ele>
        <time>2022-05-24 14:28:19</time>
      </trkpt>
      <trkpt lat="40.93925" lon="0.50301">
        <ele>177.8</ele>
        <time>2022-05-24 14:28:20</time>
      </trkpt>
      <trkpt lat="40.93921" lon="0.50297">
        <ele>177.8</ele>
        <time>2022-05-24 14:28:21</time>
      </trkpt>
      <trkpt lat="40.93917" lon="0.50293">
        <ele>177.8</ele>
        <time>2022-05-24 14:28:22</time>
      </trkpt>
      <trkpt lat="40.93912" lon="0.5029">
        <ele>177.8</ele>
        <time>2022-05-24 14:28:23</time>
      </trkpt>
      <trkpt lat="40.93908" lon="0.50286">
        <ele>177.6</ele>
        <time>2022-05-24 14:28:24</time>
      </trkpt>
      <trkpt lat="40.93903" lon="0.50283">
        <ele>177.6</ele>
        <time>2022-05-24 14:28:25</time>
      </trkpt>
      <trkpt lat="40.93899" lon="0.50279">
        <ele>177.6</ele>
        <time>2022-05-24 14:28:26</time>
      </trkpt>
      <trkpt lat="40.93894" lon="0.50276">
        <ele>177.4</ele>
        <time>2022-05-24 14:28:27</time>
      </trkpt>
      <trkpt lat="40.9389" lon="0.50272">
        <ele>177.4</ele>
        <time>2022-05-24 14:28:28</time>
      </trkpt>
      <trkpt lat="40.93887" lon="0.5027">
        <ele>177.4</ele>
        <time>2022-05-24 14:28:29</time>
      </trkpt>
      <trkpt lat="40.93882" lon="0.50266">
        <ele>177.2</ele>
        <time>2022-05-24 14:28:30</time>
      </trkpt>
      <trkpt lat="40.93877" lon="0.50261">
        <ele>177.2</ele>
        <time>2022-05-24 14:28:31</time>
      </trkpt>
      <trkpt lat="40.93873" lon="0.50257">
        <ele>177.2</ele>
        <time>2022-05-24 14:28:32</time>
      </trkpt>
      <trkpt lat="40.93868" lon="0.50255">
        <ele>177.4</ele>
        <time>2022-05-24 14:28:33</time>
      </trkpt>
      <trkpt lat="40.93864" lon="0.50252">
        <ele>177.6</ele>
        <time>2022-05-24 14:28:34</time>
      </trkpt>
      <trkpt lat="40.93861" lon="0.5025">
        <ele>177.8</ele>
        <time>2022-05-24 14:28:35</time>
      </trkpt>
      <trkpt lat="40.93858" lon="0.50248">
        <ele>178</ele>
        <time>2022-05-24 14:28:36</time>
      </trkpt>
      <trkpt lat="40.93854" lon="0.50245">
        <ele>178.4</ele>
        <time>2022-05-24 14:28:37</time>
      </trkpt>
      <trkpt lat="40.93851" lon="0.50243">
        <ele>178.6</ele>
        <time>2022-05-24 14:28:38</time>
      </trkpt>
      <trkpt lat="40.93848" lon="0.50241">
        <ele>178.8</ele>
        <time>2022-05-24 14:28:39</time>
      </trkpt>
      <trkpt lat="40.93846" lon="0.5024">
        <ele>179</ele>
        <time>2022-05-24 14:28:40</time>
      </trkpt>
      <trkpt lat="40.93842" lon="0.50238">
        <ele>179.4</ele>
        <time>2022-05-24 14:28:41</time>
      </trkpt>
      <trkpt lat="40.93839" lon="0.50237">
        <ele>179.4</ele>
        <time>2022-05-24 14:28:42</time>
      </trkpt>
      <trkpt lat="40.93835" lon="0.50236">
        <ele>179.8</ele>
        <time>2022-05-24 14:28:43</time>
      </trkpt>
      <trkpt lat="40.93832" lon="0.50236">
        <ele>180</ele>
        <time>2022-05-24 14:28:44</time>
      </trkpt>
      <trkpt lat="40.93829" lon="0.50235">
        <ele>180.2</ele>
        <time>2022-05-24 14:28:45</time>
      </trkpt>
      <trkpt lat="40.93825" lon="0.50234">
        <ele>180.6</ele>
        <time>2022-05-24 14:28:46</time>
      </trkpt>
      <trkpt lat="40.93822" lon="0.50233">
        <ele>180.8</ele>
        <time>2022-05-24 14:28:47</time>
      </trkpt>
      <trkpt lat="40.93819" lon="0.50232">
        <ele>181</ele>
        <time>2022-05-24 14:28:48</time>
      </trkpt>
      <trkpt lat="40.93815" lon="0.50231">
        <ele>181.2</ele>
        <time>2022-05-24 14:28:49</time>
      </trkpt>
      <trkpt lat="40.93812" lon="0.50231">
        <ele>181.6</ele>
        <time>2022-05-24 14:28:50</time>
      </trkpt>
      <trkpt lat="40.9381" lon="0.5023">
        <ele>181.8</ele>
        <time>2022-05-24 14:28:51</time>
      </trkpt>
      <trkpt lat="40.93806" lon="0.5023">
        <ele>182</ele>
        <time>2022-05-24 14:28:52</time>
      </trkpt>
      <trkpt lat="40.93803" lon="0.50229">
        <ele>182.2</ele>
        <time>2022-05-24 14:28:53</time>
      </trkpt>
      <trkpt lat="40.93801" lon="0.50229">
        <ele>182.4</ele>
        <time>2022-05-24 14:28:54</time>
      </trkpt>
      <trkpt lat="40.93797" lon="0.50228">
        <ele>182.8</ele>
        <time>2022-05-24 14:28:55</time>
      </trkpt>
      <trkpt lat="40.93794" lon="0.50228">
        <ele>183</ele>
        <time>2022-05-24 14:28:56</time>
      </trkpt>
      <trkpt lat="40.93791" lon="0.50227">
        <ele>183.2</ele>
        <time>2022-05-24 14:28:57</time>
      </trkpt>
      <trkpt lat="40.93787" lon="0.50226">
        <ele>183.4</ele>
        <time>2022-05-24 14:28:58</time>
      </trkpt>
      <trkpt lat="40.93784" lon="0.50226">
        <ele>183.6</ele>
        <time>2022-05-24 14:28:59</time>
      </trkpt>
      <trkpt lat="40.93782" lon="0.50225">
        <ele>183.8</ele>
        <time>2022-05-24 14:29:00</time>
      </trkpt>
      <trkpt lat="40.93778" lon="0.50225">
        <ele>184.2</ele>
        <time>2022-05-24 14:29:01</time>
      </trkpt>
      <trkpt lat="40.93775" lon="0.50225">
        <ele>184.4</ele>
        <time>2022-05-24 14:29:02</time>
      </trkpt>
      <trkpt lat="40.93772" lon="0.50225">
        <ele>184.6</ele>
        <time>2022-05-24 14:29:03</time>
      </trkpt>
      <trkpt lat="40.93769" lon="0.50225">
        <ele>184.8</ele>
        <time>2022-05-24 14:29:04</time>
      </trkpt>
      <trkpt lat="40.93764" lon="0.50224">
        <ele>185</ele>
        <time>2022-05-24 14:29:05</time>
      </trkpt>
      <trkpt lat="40.93762" lon="0.50224">
        <ele>185</ele>
        <time>2022-05-24 14:29:06</time>
      </trkpt>
      <trkpt lat="40.93757" lon="0.50224">
        <ele>185.2</ele>
        <time>2022-05-24 14:29:07</time>
      </trkpt>
      <trkpt lat="40.93754" lon="0.50223">
        <ele>185.4</ele>
        <time>2022-05-24 14:29:08</time>
      </trkpt>
      <trkpt lat="40.93751" lon="0.50223">
        <ele>185.6</ele>
        <time>2022-05-24 14:29:09</time>
      </trkpt>
      <trkpt lat="40.93747" lon="0.50222">
        <ele>185.6</ele>
        <time>2022-05-24 14:29:10</time>
      </trkpt>
      <trkpt lat="40.93744" lon="0.50221">
        <ele>185.8</ele>
        <time>2022-05-24 14:29:11</time>
      </trkpt>
      <trkpt lat="40.93742" lon="0.50221">
        <ele>186</ele>
        <time>2022-05-24 14:29:12</time>
      </trkpt>
      <trkpt lat="40.93737" lon="0.5022">
        <ele>186</ele>
        <time>2022-05-24 14:29:13</time>
      </trkpt>
      <trkpt lat="40.93734" lon="0.50219">
        <ele>186.2</ele>
        <time>2022-05-24 14:29:14</time>
      </trkpt>
      <trkpt lat="40.93731" lon="0.50219">
        <ele>186.4</ele>
        <time>2022-05-24 14:29:15</time>
      </trkpt>
      <trkpt lat="40.93728" lon="0.50218">
        <ele>186.4</ele>
        <time>2022-05-24 14:29:16</time>
      </trkpt>
      <trkpt lat="40.93724" lon="0.50218">
        <ele>186.6</ele>
        <time>2022-05-24 14:29:17</time>
      </trkpt>
      <trkpt lat="40.93722" lon="0.50218">
        <ele>186.6</ele>
        <time>2022-05-24 14:29:18</time>
      </trkpt>
      <trkpt lat="40.93718" lon="0.50218">
        <ele>186.8</ele>
        <time>2022-05-24 14:29:19</time>
      </trkpt>
      <trkpt lat="40.93714" lon="0.50218">
        <ele>187</ele>
        <time>2022-05-24 14:29:20</time>
      </trkpt>
      <trkpt lat="40.93711" lon="0.50217">
        <ele>187</ele>
        <time>2022-05-24 14:29:21</time>
      </trkpt>
      <trkpt lat="40.93707" lon="0.50217">
        <ele>187.2</ele>
        <time>2022-05-24 14:29:22</time>
      </trkpt>
      <trkpt lat="40.93704" lon="0.50217">
        <ele>187.2</ele>
        <time>2022-05-24 14:29:23</time>
      </trkpt>
      <trkpt lat="40.93702" lon="0.50216">
        <ele>187.4</ele>
        <time>2022-05-24 14:29:24</time>
      </trkpt>
      <trkpt lat="40.93697" lon="0.50216">
        <ele>187.6</ele>
        <time>2022-05-24 14:29:25</time>
      </trkpt>
      <trkpt lat="40.93694" lon="0.50215">
        <ele>187.6</ele>
        <time>2022-05-24 14:29:26</time>
      </trkpt>
      <trkpt lat="40.93691" lon="0.50215">
        <ele>187.8</ele>
        <time>2022-05-24 14:29:27</time>
      </trkpt>
      <trkpt lat="40.93687" lon="0.50214">
        <ele>188</ele>
        <time>2022-05-24 14:29:28</time>
      </trkpt>
      <trkpt lat="40.93684" lon="0.50213">
        <ele>188</ele>
        <time>2022-05-24 14:29:29</time>
      </trkpt>
      <trkpt lat="40.93682" lon="0.50212">
        <ele>188.2</ele>
        <time>2022-05-24 14:29:30</time>
      </trkpt>
      <trkpt lat="40.93677" lon="0.50211">
        <ele>188.4</ele>
        <time>2022-05-24 14:29:31</time>
      </trkpt>
      <trkpt lat="40.93674" lon="0.50209">
        <ele>188.4</ele>
        <time>2022-05-24 14:29:32</time>
      </trkpt>
      <trkpt lat="40.93671" lon="0.50207">
        <ele>188.6</ele>
        <time>2022-05-24 14:29:33</time>
      </trkpt>
      <trkpt lat="40.93667" lon="0.50204">
        <ele>188.8</ele>
        <time>2022-05-24 14:29:34</time>
      </trkpt>
      <trkpt lat="40.93664" lon="0.502">
        <ele>189</ele>
        <time>2022-05-24 14:29:35</time>
      </trkpt>
      <trkpt lat="40.93663" lon="0.50197">
        <ele>189.2</ele>
        <time>2022-05-24 14:29:36</time>
      </trkpt>
      <trkpt lat="40.93661" lon="0.50193">
        <ele>189.4</ele>
        <time>2022-05-24 14:29:37</time>
      </trkpt>
      <trkpt lat="40.93659" lon="0.50189">
        <ele>189.6</ele>
        <time>2022-05-24 14:29:38</time>
      </trkpt>
      <trkpt lat="40.93658" lon="0.50186">
        <ele>189.8</ele>
        <time>2022-05-24 14:29:39</time>
      </trkpt>
      <trkpt lat="40.93656" lon="0.50181">
        <ele>190</ele>
        <time>2022-05-24 14:29:40</time>
      </trkpt>
      <trkpt lat="40.93655" lon="0.50177">
        <ele>190.2</ele>
        <time>2022-05-24 14:29:41</time>
      </trkpt>
      <trkpt lat="40.93655" lon="0.50174">
        <ele>190.4</ele>
        <time>2022-05-24 14:29:42</time>
      </trkpt>
      <trkpt lat="40.93654" lon="0.50169">
        <ele>190.6</ele>
        <time>2022-05-24 14:29:43</time>
      </trkpt>
      <trkpt lat="40.93653" lon="0.50164">
        <ele>190.6</ele>
        <time>2022-05-24 14:29:44</time>
      </trkpt>
      <trkpt lat="40.93652" lon="0.50161">
        <ele>190.8</ele>
        <time>2022-05-24 14:29:45</time>
      </trkpt>
      <trkpt lat="40.93651" lon="0.50157">
        <ele>191</ele>
        <time>2022-05-24 14:29:46</time>
      </trkpt>
      <trkpt lat="40.93649" lon="0.50153">
        <ele>191</ele>
        <time>2022-05-24 14:29:47</time>
      </trkpt>
      <trkpt lat="40.93648" lon="0.5015">
        <ele>191.2</ele>
        <time>2022-05-24 14:29:48</time>
      </trkpt>
      <trkpt lat="40.93646" lon="0.50146">
        <ele>191.2</ele>
        <time>2022-05-24 14:29:49</time>
      </trkpt>
      <trkpt lat="40.93644" lon="0.50142">
        <ele>191.2</ele>
        <time>2022-05-24 14:29:50</time>
      </trkpt>
      <trkpt lat="40.93642" lon="0.50139">
        <ele>191.4</ele>
        <time>2022-05-24 14:29:51</time>
      </trkpt>
      <trkpt lat="40.93639" lon="0.50135">
        <ele>191.4</ele>
        <time>2022-05-24 14:29:52</time>
      </trkpt>
      <trkpt lat="40.93636" lon="0.50132">
        <ele>191.6</ele>
        <time>2022-05-24 14:29:53</time>
      </trkpt>
      <trkpt lat="40.93634" lon="0.5013">
        <ele>191.6</ele>
        <time>2022-05-24 14:29:54</time>
      </trkpt>
      <trkpt lat="40.93631" lon="0.50127">
        <ele>191.6</ele>
        <time>2022-05-24 14:29:55</time>
      </trkpt>
      <trkpt lat="40.93628" lon="0.50125">
        <ele>191.8</ele>
        <time>2022-05-24 14:29:56</time>
      </trkpt>
      <trkpt lat="40.93625" lon="0.50124">
        <ele>191.8</ele>
        <time>2022-05-24 14:29:57</time>
      </trkpt>
      <trkpt lat="40.93621" lon="0.50123">
        <ele>192</ele>
        <time>2022-05-24 14:29:58</time>
      </trkpt>
      <trkpt lat="40.93617" lon="0.50124">
        <ele>192</ele>
        <time>2022-05-24 14:29:59</time>
      </trkpt>
      <trkpt lat="40.93614" lon="0.50125">
        <ele>192.2</ele>
        <time>2022-05-24 14:30:00</time>
      </trkpt>
      <trkpt lat="40.9361" lon="0.50127">
        <ele>192.4</ele>
        <time>2022-05-24 14:30:01</time>
      </trkpt>
      <trkpt lat="40.93607" lon="0.50129">
        <ele>192.6</ele>
        <time>2022-05-24 14:30:02</time>
      </trkpt>
      <trkpt lat="40.93604" lon="0.5013">
        <ele>192.8</ele>
        <time>2022-05-24 14:30:03</time>
      </trkpt>
      <trkpt lat="40.93601" lon="0.50132">
        <ele>192.8</ele>
        <time>2022-05-24 14:30:04</time>
      </trkpt>
      <trkpt lat="40.93598" lon="0.50133">
        <ele>193</ele>
        <time>2022-05-24 14:30:05</time>
      </trkpt>
      <trkpt lat="40.93596" lon="0.50135">
        <ele>193.2</ele>
        <time>2022-05-24 14:30:06</time>
      </trkpt>
      <trkpt lat="40.93592" lon="0.50137">
        <ele>193.4</ele>
        <time>2022-05-24 14:30:07</time>
      </trkpt>
      <trkpt lat="40.93589" lon="0.50138">
        <ele>193.4</ele>
        <time>2022-05-24 14:30:08</time>
      </trkpt>
      <trkpt lat="40.93586" lon="0.50139">
        <ele>193.4</ele>
        <time>2022-05-24 14:30:09</time>
      </trkpt>
      <trkpt lat="40.93581" lon="0.5014">
        <ele>193.6</ele>
        <time>2022-05-24 14:30:10</time>
      </trkpt>
      <trkpt lat="40.93578" lon="0.5014">
        <ele>193.8</ele>
        <time>2022-05-24 14:30:11</time>
      </trkpt>
      <trkpt lat="40.93575" lon="0.50139">
        <ele>193.8</ele>
        <time>2022-05-24 14:30:12</time>
      </trkpt>
      <trkpt lat="40.93571" lon="0.50138">
        <ele>194</ele>
        <time>2022-05-24 14:30:13</time>
      </trkpt>
      <trkpt lat="40.93568" lon="0.50136">
        <ele>194.2</ele>
        <time>2022-05-24 14:30:14</time>
      </trkpt>
      <trkpt lat="40.93566" lon="0.50134">
        <ele>194.4</ele>
        <time>2022-05-24 14:30:15</time>
      </trkpt>
      <trkpt lat="40.93562" lon="0.50132">
        <ele>194.6</ele>
        <time>2022-05-24 14:30:16</time>
      </trkpt>
      <trkpt lat="40.93559" lon="0.5013">
        <ele>195</ele>
        <time>2022-05-24 14:30:17</time>
      </trkpt>
      <trkpt lat="40.93557" lon="0.50128">
        <ele>195.2</ele>
        <time>2022-05-24 14:30:18</time>
      </trkpt>
      <trkpt lat="40.93553" lon="0.50125">
        <ele>195.2</ele>
        <time>2022-05-24 14:30:19</time>
      </trkpt>
      <trkpt lat="40.93551" lon="0.50123">
        <ele>195.4</ele>
        <time>2022-05-24 14:30:20</time>
      </trkpt>
      <trkpt lat="40.93548" lon="0.50121">
        <ele>195.6</ele>
        <time>2022-05-24 14:30:21</time>
      </trkpt>
      <trkpt lat="40.93544" lon="0.50119">
        <ele>195.8</ele>
        <time>2022-05-24 14:30:22</time>
      </trkpt>
      <trkpt lat="40.93541" lon="0.50116">
        <ele>196</ele>
        <time>2022-05-24 14:30:23</time>
      </trkpt>
      <trkpt lat="40.93539" lon="0.50115">
        <ele>196</ele>
        <time>2022-05-24 14:30:24</time>
      </trkpt>
      <trkpt lat="40.93535" lon="0.50111">
        <ele>196.2</ele>
        <time>2022-05-24 14:30:25</time>
      </trkpt>
      <trkpt lat="40.93533" lon="0.5011">
        <ele>196.4</ele>
        <time>2022-05-24 14:30:26</time>
      </trkpt>
      <trkpt lat="40.93531" lon="0.50108">
        <ele>196.6</ele>
        <time>2022-05-24 14:30:27</time>
      </trkpt>
      <trkpt lat="40.93527" lon="0.50105">
        <ele>196.8</ele>
        <time>2022-05-24 14:30:28</time>
      </trkpt>
      <trkpt lat="40.93525" lon="0.50104">
        <ele>196.8</ele>
        <time>2022-05-24 14:30:29</time>
      </trkpt>
      <trkpt lat="40.93523" lon="0.50102">
        <ele>197</ele>
        <time>2022-05-24 14:30:30</time>
      </trkpt>
      <trkpt lat="40.93519" lon="0.501">
        <ele>197.2</ele>
        <time>2022-05-24 14:30:31</time>
      </trkpt>
      <trkpt lat="40.93516" lon="0.50099">
        <ele>197.4</ele>
        <time>2022-05-24 14:30:32</time>
      </trkpt>
      <trkpt lat="40.93513" lon="0.50098">
        <ele>197.4</ele>
        <time>2022-05-24 14:30:33</time>
      </trkpt>
      <trkpt lat="40.93512" lon="0.50097">
        <ele>197.6</ele>
        <time>2022-05-24 14:30:34</time>
      </trkpt>
      <trkpt lat="40.93509" lon="0.50096">
        <ele>197.8</ele>
        <time>2022-05-24 14:30:35</time>
      </trkpt>
      <trkpt lat="40.93506" lon="0.50095">
        <ele>198</ele>
        <time>2022-05-24 14:30:36</time>
      </trkpt>
      <trkpt lat="40.93503" lon="0.50095">
        <ele>198.2</ele>
        <time>2022-05-24 14:30:37</time>
      </trkpt>
      <trkpt lat="40.93501" lon="0.50095">
        <ele>198.2</ele>
        <time>2022-05-24 14:30:38</time>
      </trkpt>
      <trkpt lat="40.93497" lon="0.50094">
        <ele>198.4</ele>
        <time>2022-05-24 14:30:39</time>
      </trkpt>
      <trkpt lat="40.93495" lon="0.50094">
        <ele>198.6</ele>
        <time>2022-05-24 14:30:40</time>
      </trkpt>
      <trkpt lat="40.93492" lon="0.50094">
        <ele>198.6</ele>
        <time>2022-05-24 14:30:41</time>
      </trkpt>
      <trkpt lat="40.93489" lon="0.50094">
        <ele>198.8</ele>
        <time>2022-05-24 14:30:42</time>
      </trkpt>
      <trkpt lat="40.93486" lon="0.50094">
        <ele>199</ele>
        <time>2022-05-24 14:30:43</time>
      </trkpt>
      <trkpt lat="40.93484" lon="0.50095">
        <ele>199.2</ele>
        <time>2022-05-24 14:30:44</time>
      </trkpt>
      <trkpt lat="40.93481" lon="0.50097">
        <ele>199.2</ele>
        <time>2022-05-24 14:30:45</time>
      </trkpt>
      <trkpt lat="40.93479" lon="0.50099">
        <ele>199.4</ele>
        <time>2022-05-24 14:30:46</time>
      </trkpt>
      <trkpt lat="40.93477" lon="0.50103">
        <ele>199.4</ele>
        <time>2022-05-24 14:30:47</time>
      </trkpt>
      <trkpt lat="40.93475" lon="0.50106">
        <ele>199.6</ele>
        <time>2022-05-24 14:30:48</time>
      </trkpt>
      <trkpt lat="40.93475" lon="0.50111">
        <ele>199.8</ele>
        <time>2022-05-24 14:30:49</time>
      </trkpt>
      <trkpt lat="40.93475" lon="0.50114">
        <ele>199.8</ele>
        <time>2022-05-24 14:30:50</time>
      </trkpt>
      <trkpt lat="40.93474" lon="0.50118">
        <ele>200</ele>
        <time>2022-05-24 14:30:51</time>
      </trkpt>
      <trkpt lat="40.93474" lon="0.50122">
        <ele>200.2</ele>
        <time>2022-05-24 14:30:52</time>
      </trkpt>
      <trkpt lat="40.93474" lon="0.50126">
        <ele>200.2</ele>
        <time>2022-05-24 14:30:53</time>
      </trkpt>
      <trkpt lat="40.93474" lon="0.50131">
        <ele>200.4</ele>
        <time>2022-05-24 14:30:54</time>
      </trkpt>
      <trkpt lat="40.93474" lon="0.50135">
        <ele>200.4</ele>
        <time>2022-05-24 14:30:55</time>
      </trkpt>
      <trkpt lat="40.93474" lon="0.50139">
        <ele>200.6</ele>
        <time>2022-05-24 14:30:56</time>
      </trkpt>
      <trkpt lat="40.93474" lon="0.50144">
        <ele>200.6</ele>
        <time>2022-05-24 14:30:57</time>
      </trkpt>
      <trkpt lat="40.93474" lon="0.50148">
        <ele>200.8</ele>
        <time>2022-05-24 14:30:58</time>
      </trkpt>
      <trkpt lat="40.93474" lon="0.50151">
        <ele>200.8</ele>
        <time>2022-05-24 14:30:59</time>
      </trkpt>
      <trkpt lat="40.93475" lon="0.50157">
        <ele>201</ele>
        <time>2022-05-24 14:31:00</time>
      </trkpt>
      <trkpt lat="40.93476" lon="0.50161">
        <ele>201</ele>
        <time>2022-05-24 14:31:01</time>
      </trkpt>
      <trkpt lat="40.93476" lon="0.50165">
        <ele>201.2</ele>
        <time>2022-05-24 14:31:02</time>
      </trkpt>
      <trkpt lat="40.93477" lon="0.50169">
        <ele>201.2</ele>
        <time>2022-05-24 14:31:03</time>
      </trkpt>
      <trkpt lat="40.93477" lon="0.50174">
        <ele>201.4</ele>
        <time>2022-05-24 14:31:04</time>
      </trkpt>
      <trkpt lat="40.93478" lon="0.50177">
        <ele>201.4</ele>
        <time>2022-05-24 14:31:05</time>
      </trkpt>
      <trkpt lat="40.93478" lon="0.50182">
        <ele>201.4</ele>
        <time>2022-05-24 14:31:06</time>
      </trkpt>
      <trkpt lat="40.93478" lon="0.50187">
        <ele>201.6</ele>
        <time>2022-05-24 14:31:07</time>
      </trkpt>
      <trkpt lat="40.93477" lon="0.5019">
        <ele>201.6</ele>
        <time>2022-05-24 14:31:08</time>
      </trkpt>
      <trkpt lat="40.93476" lon="0.50195">
        <ele>201.6</ele>
        <time>2022-05-24 14:31:09</time>
      </trkpt>
      <trkpt lat="40.93474" lon="0.50199">
        <ele>201.8</ele>
        <time>2022-05-24 14:31:10</time>
      </trkpt>
      <trkpt lat="40.93471" lon="0.502">
        <ele>201.8</ele>
        <time>2022-05-24 14:31:11</time>
      </trkpt>
      <trkpt lat="40.93467" lon="0.50202">
        <ele>202</ele>
        <time>2022-05-24 14:31:12</time>
      </trkpt>
      <trkpt lat="40.93463" lon="0.50203">
        <ele>202</ele>
        <time>2022-05-24 14:31:13</time>
      </trkpt>
      <trkpt lat="40.9346" lon="0.50203">
        <ele>202</ele>
        <time>2022-05-24 14:31:14</time>
      </trkpt>
      <trkpt lat="40.93456" lon="0.50203">
        <ele>202.2</ele>
        <time>2022-05-24 14:31:15</time>
      </trkpt>
      <trkpt lat="40.93452" lon="0.50203">
        <ele>202.2</ele>
        <time>2022-05-24 14:31:16</time>
      </trkpt>
      <trkpt lat="40.93448" lon="0.50202">
        <ele>202.2</ele>
        <time>2022-05-24 14:31:17</time>
      </trkpt>
      <trkpt lat="40.93443" lon="0.50202">
        <ele>202.2</ele>
        <time>2022-05-24 14:31:18</time>
      </trkpt>
      <trkpt lat="40.9344" lon="0.50202">
        <ele>202.2</ele>
        <time>2022-05-24 14:31:19</time>
      </trkpt>
      <trkpt lat="40.93436" lon="0.50203">
        <ele>202.2</ele>
        <time>2022-05-24 14:31:20</time>
      </trkpt>
      <trkpt lat="40.9343" lon="0.50203">
        <ele>202.2</ele>
        <time>2022-05-24 14:31:21</time>
      </trkpt>
      <trkpt lat="40.93427" lon="0.50204">
        <ele>202.4</ele>
        <time>2022-05-24 14:31:22</time>
      </trkpt>
      <trkpt lat="40.93423" lon="0.50205">
        <ele>202.4</ele>
        <time>2022-05-24 14:31:23</time>
      </trkpt>
      <trkpt lat="40.9342" lon="0.50209">
        <ele>202.4</ele>
        <time>2022-05-24 14:31:24</time>
      </trkpt>
      <trkpt lat="40.93417" lon="0.50213">
        <ele>202.6</ele>
        <time>2022-05-24 14:31:25</time>
      </trkpt>
      <trkpt lat="40.93416" lon="0.50216">
        <ele>202.6</ele>
        <time>2022-05-24 14:31:26</time>
      </trkpt>
      <trkpt lat="40.93415" lon="0.50222">
        <ele>202.8</ele>
        <time>2022-05-24 14:31:27</time>
      </trkpt>
      <trkpt lat="40.93414" lon="0.50226">
        <ele>203</ele>
        <time>2022-05-24 14:31:28</time>
      </trkpt>
      <trkpt lat="40.93414" lon="0.5023">
        <ele>203</ele>
        <time>2022-05-24 14:31:29</time>
      </trkpt>
      <trkpt lat="40.93413" lon="0.50235">
        <ele>203.2</ele>
        <time>2022-05-24 14:31:30</time>
      </trkpt>
      <trkpt lat="40.93413" lon="0.50239">
        <ele>203.4</ele>
        <time>2022-05-24 14:31:31</time>
      </trkpt>
      <trkpt lat="40.93413" lon="0.50243">
        <ele>203.4</ele>
        <time>2022-05-24 14:31:32</time>
      </trkpt>
      <trkpt lat="40.93412" lon="0.50248">
        <ele>203.6</ele>
        <time>2022-05-24 14:31:33</time>
      </trkpt>
      <trkpt lat="40.93412" lon="0.50252">
        <ele>203.8</ele>
        <time>2022-05-24 14:31:34</time>
      </trkpt>
      <trkpt lat="40.93412" lon="0.50255">
        <ele>203.8</ele>
        <time>2022-05-24 14:31:35</time>
      </trkpt>
      <trkpt lat="40.93411" lon="0.50261">
        <ele>204</ele>
        <time>2022-05-24 14:31:36</time>
      </trkpt>
      <trkpt lat="40.9341" lon="0.50265">
        <ele>204</ele>
        <time>2022-05-24 14:31:37</time>
      </trkpt>
      <trkpt lat="40.9341" lon="0.50268">
        <ele>204.2</ele>
        <time>2022-05-24 14:31:38</time>
      </trkpt>
      <trkpt lat="40.93409" lon="0.50273">
        <ele>204.2</ele>
        <time>2022-05-24 14:31:39</time>
      </trkpt>
      <trkpt lat="40.93408" lon="0.50277">
        <ele>204.4</ele>
        <time>2022-05-24 14:31:40</time>
      </trkpt>
      <trkpt lat="40.93407" lon="0.50281">
        <ele>204.4</ele>
        <time>2022-05-24 14:31:41</time>
      </trkpt>
      <trkpt lat="40.93406" lon="0.50286">
        <ele>204.4</ele>
        <time>2022-05-24 14:31:42</time>
      </trkpt>
      <trkpt lat="40.93404" lon="0.5029">
        <ele>204.4</ele>
        <time>2022-05-24 14:31:43</time>
      </trkpt>
      <trkpt lat="40.93402" lon="0.50292">
        <ele>204.4</ele>
        <time>2022-05-24 14:31:44</time>
      </trkpt>
      <trkpt lat="40.93398" lon="0.50295">
        <ele>204.4</ele>
        <time>2022-05-24 14:31:45</time>
      </trkpt>
      <trkpt lat="40.93395" lon="0.50297">
        <ele>204.4</ele>
        <time>2022-05-24 14:31:46</time>
      </trkpt>
      <trkpt lat="40.93392" lon="0.50296">
        <ele>204.4</ele>
        <time>2022-05-24 14:31:47</time>
      </trkpt>
      <trkpt lat="40.93387" lon="0.50294">
        <ele>204.4</ele>
        <time>2022-05-24 14:31:48</time>
      </trkpt>
      <trkpt lat="40.93383" lon="0.50291">
        <ele>204.4</ele>
        <time>2022-05-24 14:31:49</time>
      </trkpt>
      <trkpt lat="40.93381" lon="0.50288">
        <ele>204.6</ele>
        <time>2022-05-24 14:31:50</time>
      </trkpt>
      <trkpt lat="40.93378" lon="0.50283">
        <ele>204.6</ele>
        <time>2022-05-24 14:31:51</time>
      </trkpt>
      <trkpt lat="40.93375" lon="0.50278">
        <ele>204.6</ele>
        <time>2022-05-24 14:31:52</time>
      </trkpt>
      <trkpt lat="40.93374" lon="0.50274">
        <ele>204.6</ele>
        <time>2022-05-24 14:31:53</time>
      </trkpt>
      <trkpt lat="40.9337" lon="0.50269">
        <ele>204.6</ele>
        <time>2022-05-24 14:31:54</time>
      </trkpt>
      <trkpt lat="40.93368" lon="0.50264">
        <ele>204.6</ele>
        <time>2022-05-24 14:31:55</time>
      </trkpt>
      <trkpt lat="40.93366" lon="0.5026">
        <ele>204.4</ele>
        <time>2022-05-24 14:31:56</time>
      </trkpt>
      <trkpt lat="40.93363" lon="0.50255">
        <ele>204.4</ele>
        <time>2022-05-24 14:31:57</time>
      </trkpt>
      <trkpt lat="40.9336" lon="0.50249">
        <ele>204.4</ele>
        <time>2022-05-24 14:31:58</time>
      </trkpt>
      <trkpt lat="40.93357" lon="0.50244">
        <ele>204.4</ele>
        <time>2022-05-24 14:31:59</time>
      </trkpt>
      <trkpt lat="40.93354" lon="0.50239">
        <ele>204.4</ele>
        <time>2022-05-24 14:32:00</time>
      </trkpt>
      <trkpt lat="40.93351" lon="0.50234">
        <ele>204.4</ele>
        <time>2022-05-24 14:32:01</time>
      </trkpt>
      <trkpt lat="40.93349" lon="0.50231">
        <ele>204.4</ele>
        <time>2022-05-24 14:32:02</time>
      </trkpt>
      <trkpt lat="40.93347" lon="0.50227">
        <ele>204.4</ele>
        <time>2022-05-24 14:32:03</time>
      </trkpt>
      <trkpt lat="40.93343" lon="0.5022">
        <ele>204.4</ele>
        <time>2022-05-24 14:32:04</time>
      </trkpt>
      <trkpt lat="40.93339" lon="0.50217">
        <ele>204.4</ele>
        <time>2022-05-24 14:32:05</time>
      </trkpt>
      <trkpt lat="40.93337" lon="0.50214">
        <ele>204.4</ele>
        <time>2022-05-24 14:32:06</time>
      </trkpt>
      <trkpt lat="40.93332" lon="0.5021">
        <ele>204.4</ele>
        <time>2022-05-24 14:32:07</time>
      </trkpt>
      <trkpt lat="40.93328" lon="0.50207">
        <ele>204.4</ele>
        <time>2022-05-24 14:32:08</time>
      </trkpt>
      <trkpt lat="40.93325" lon="0.50205">
        <ele>204.4</ele>
        <time>2022-05-24 14:32:09</time>
      </trkpt>
      <trkpt lat="40.9332" lon="0.50201">
        <ele>204.6</ele>
        <time>2022-05-24 14:32:10</time>
      </trkpt>
      <trkpt lat="40.93317" lon="0.502">
        <ele>204.6</ele>
        <time>2022-05-24 14:32:11</time>
      </trkpt>
      <trkpt lat="40.93312" lon="0.50197">
        <ele>204.6</ele>
        <time>2022-05-24 14:32:12</time>
      </trkpt>
      <trkpt lat="40.93309" lon="0.50194">
        <ele>204.4</ele>
        <time>2022-05-24 14:32:13</time>
      </trkpt>
      <trkpt lat="40.93306" lon="0.50192">
        <ele>204.4</ele>
        <time>2022-05-24 14:32:14</time>
      </trkpt>
      <trkpt lat="40.93301" lon="0.50188">
        <ele>204.4</ele>
        <time>2022-05-24 14:32:15</time>
      </trkpt>
      <trkpt lat="40.93298" lon="0.50185">
        <ele>204.4</ele>
        <time>2022-05-24 14:32:16</time>
      </trkpt>
      <trkpt lat="40.93296" lon="0.50182">
        <ele>204.4</ele>
        <time>2022-05-24 14:32:17</time>
      </trkpt>
      <trkpt lat="40.93292" lon="0.50177">
        <ele>204.4</ele>
        <time>2022-05-24 14:32:18</time>
      </trkpt>
      <trkpt lat="40.9329" lon="0.50174">
        <ele>204.4</ele>
        <time>2022-05-24 14:32:19</time>
      </trkpt>
      <trkpt lat="40.93287" lon="0.50171">
        <ele>204.6</ele>
        <time>2022-05-24 14:32:20</time>
      </trkpt>
      <trkpt lat="40.93284" lon="0.50166">
        <ele>204.6</ele>
        <time>2022-05-24 14:32:21</time>
      </trkpt>
      <trkpt lat="40.93282" lon="0.50161">
        <ele>204.6</ele>
        <time>2022-05-24 14:32:22</time>
      </trkpt>
      <trkpt lat="40.93281" lon="0.50158">
        <ele>204.6</ele>
        <time>2022-05-24 14:32:23</time>
      </trkpt>
      <trkpt lat="40.93277" lon="0.50152">
        <ele>204.4</ele>
        <time>2022-05-24 14:32:24</time>
      </trkpt>
      <trkpt lat="40.93275" lon="0.50147">
        <ele>204.4</ele>
        <time>2022-05-24 14:32:25</time>
      </trkpt>
      <trkpt lat="40.93273" lon="0.50142">
        <ele>204.4</ele>
        <time>2022-05-24 14:32:26</time>
      </trkpt>
      <trkpt lat="40.93272" lon="0.50138">
        <ele>204.4</ele>
        <time>2022-05-24 14:32:27</time>
      </trkpt>
      <trkpt lat="40.9327" lon="0.5013">
        <ele>204.4</ele>
        <time>2022-05-24 14:32:28</time>
      </trkpt>
      <trkpt lat="40.9327" lon="0.50126">
        <ele>204.4</ele>
        <time>2022-05-24 14:32:29</time>
      </trkpt>
      <trkpt lat="40.93269" lon="0.50119">
        <ele>204.4</ele>
        <time>2022-05-24 14:32:30</time>
      </trkpt>
      <trkpt lat="40.93269" lon="0.50113">
        <ele>204.4</ele>
        <time>2022-05-24 14:32:31</time>
      </trkpt>
      <trkpt lat="40.93269" lon="0.50109">
        <ele>204.4</ele>
        <time>2022-05-24 14:32:32</time>
      </trkpt>
      <trkpt lat="40.93268" lon="0.50102">
        <ele>204.4</ele>
        <time>2022-05-24 14:32:33</time>
      </trkpt>
      <trkpt lat="40.93268" lon="0.50096">
        <ele>204.4</ele>
        <time>2022-05-24 14:32:34</time>
      </trkpt>
      <trkpt lat="40.93267" lon="0.50091">
        <ele>204.4</ele>
        <time>2022-05-24 14:32:35</time>
      </trkpt>
      <trkpt lat="40.93265" lon="0.50085">
        <ele>204.4</ele>
        <time>2022-05-24 14:32:36</time>
      </trkpt>
      <trkpt lat="40.93263" lon="0.50081">
        <ele>204.4</ele>
        <time>2022-05-24 14:32:37</time>
      </trkpt>
      <trkpt lat="40.93258" lon="0.50076">
        <ele>204.6</ele>
        <time>2022-05-24 14:32:38</time>
      </trkpt>
      <trkpt lat="40.93255" lon="0.50075">
        <ele>204.6</ele>
        <time>2022-05-24 14:32:39</time>
      </trkpt>
      <trkpt lat="40.93249" lon="0.50076">
        <ele>204.8</ele>
        <time>2022-05-24 14:32:40</time>
      </trkpt>
      <trkpt lat="40.93246" lon="0.50078">
        <ele>204.8</ele>
        <time>2022-05-24 14:32:41</time>
      </trkpt>
      <trkpt lat="40.93243" lon="0.50083">
        <ele>204.8</ele>
        <time>2022-05-24 14:32:42</time>
      </trkpt>
      <trkpt lat="40.9324" lon="0.50088">
        <ele>204.8</ele>
        <time>2022-05-24 14:32:43</time>
      </trkpt>
      <trkpt lat="40.93239" lon="0.50092">
        <ele>204.8</ele>
        <time>2022-05-24 14:32:44</time>
      </trkpt>
      <trkpt lat="40.93236" lon="0.50098">
        <ele>204.6</ele>
        <time>2022-05-24 14:32:45</time>
      </trkpt>
      <trkpt lat="40.93234" lon="0.50104">
        <ele>204.6</ele>
        <time>2022-05-24 14:32:46</time>
      </trkpt>
      <trkpt lat="40.93231" lon="0.50111">
        <ele>204.4</ele>
        <time>2022-05-24 14:32:47</time>
      </trkpt>
      <trkpt lat="40.93229" lon="0.50116">
        <ele>204.2</ele>
        <time>2022-05-24 14:32:48</time>
      </trkpt>
      <trkpt lat="40.93226" lon="0.50125">
        <ele>204</ele>
        <time>2022-05-24 14:32:49</time>
      </trkpt>
      <trkpt lat="40.93224" lon="0.5013">
        <ele>203.8</ele>
        <time>2022-05-24 14:32:50</time>
      </trkpt>
      <trkpt lat="40.93221" lon="0.5014">
        <ele>203.4</ele>
        <time>2022-05-24 14:32:51</time>
      </trkpt>
      <trkpt lat="40.9322" lon="0.50146">
        <ele>203.2</ele>
        <time>2022-05-24 14:32:52</time>
      </trkpt>
      <trkpt lat="40.9322" lon="0.50156">
        <ele>202.8</ele>
        <time>2022-05-24 14:32:53</time>
      </trkpt>
      <trkpt lat="40.9322" lon="0.50163">
        <ele>202.6</ele>
        <time>2022-05-24 14:32:54</time>
      </trkpt>
      <trkpt lat="40.93221" lon="0.50173">
        <ele>202.2</ele>
        <time>2022-05-24 14:32:55</time>
      </trkpt>
      <trkpt lat="40.93221" lon="0.50181">
        <ele>201.6</ele>
        <time>2022-05-24 14:32:56</time>
      </trkpt>
      <trkpt lat="40.93223" lon="0.50192">
        <ele>201.2</ele>
        <time>2022-05-24 14:32:57</time>
      </trkpt>
      <trkpt lat="40.93224" lon="0.50198">
        <ele>200.8</ele>
        <time>2022-05-24 14:32:58</time>
      </trkpt>
      <trkpt lat="40.93225" lon="0.5021">
        <ele>200.4</ele>
        <time>2022-05-24 14:32:59</time>
      </trkpt>
      <trkpt lat="40.93226" lon="0.50217">
        <ele>200</ele>
        <time>2022-05-24 14:33:00</time>
      </trkpt>
      <trkpt lat="40.93228" lon="0.5023">
        <ele>199.6</ele>
        <time>2022-05-24 14:33:01</time>
      </trkpt>
      <trkpt lat="40.93229" lon="0.50237">
        <ele>199.4</ele>
        <time>2022-05-24 14:33:02</time>
      </trkpt>
      <trkpt lat="40.9323" lon="0.50249">
        <ele>199</ele>
        <time>2022-05-24 14:33:03</time>
      </trkpt>
      <trkpt lat="40.9323" lon="0.50256">
        <ele>198.8</ele>
        <time>2022-05-24 14:33:04</time>
      </trkpt>
      <trkpt lat="40.93227" lon="0.50268">
        <ele>198.2</ele>
        <time>2022-05-24 14:33:05</time>
      </trkpt>
      <trkpt lat="40.93223" lon="0.50271">
        <ele>198</ele>
        <time>2022-05-24 14:33:06</time>
      </trkpt>
      <trkpt lat="40.93215" lon="0.5027">
        <ele>197.6</ele>
        <time>2022-05-24 14:33:07</time>
      </trkpt>
      <trkpt lat="40.93211" lon="0.50267">
        <ele>197.4</ele>
        <time>2022-05-24 14:33:08</time>
      </trkpt>
      <trkpt lat="40.93205" lon="0.50258">
        <ele>197.2</ele>
        <time>2022-05-24 14:33:09</time>
      </trkpt>
      <trkpt lat="40.93202" lon="0.50251">
        <ele>197</ele>
        <time>2022-05-24 14:33:10</time>
      </trkpt>
      <trkpt lat="40.93198" lon="0.50242">
        <ele>196.8</ele>
        <time>2022-05-24 14:33:11</time>
      </trkpt>
      <trkpt lat="40.93195" lon="0.50236">
        <ele>196.6</ele>
        <time>2022-05-24 14:33:12</time>
      </trkpt>
      <trkpt lat="40.9319" lon="0.50225">
        <ele>196.2</ele>
        <time>2022-05-24 14:33:13</time>
      </trkpt>
      <trkpt lat="40.93187" lon="0.5022">
        <ele>196</ele>
        <time>2022-05-24 14:33:14</time>
      </trkpt>
      <trkpt lat="40.93181" lon="0.50209">
        <ele>195.6</ele>
        <time>2022-05-24 14:33:15</time>
      </trkpt>
      <trkpt lat="40.93177" lon="0.50203">
        <ele>195.2</ele>
        <time>2022-05-24 14:33:16</time>
      </trkpt>
      <trkpt lat="40.9317" lon="0.50192">
        <ele>194.8</ele>
        <time>2022-05-24 14:33:17</time>
      </trkpt>
      <trkpt lat="40.93166" lon="0.50186">
        <ele>194.4</ele>
        <time>2022-05-24 14:33:18</time>
      </trkpt>
      <trkpt lat="40.9316" lon="0.50174">
        <ele>194</ele>
        <time>2022-05-24 14:33:19</time>
      </trkpt>
      <trkpt lat="40.93156" lon="0.50167">
        <ele>193.6</ele>
        <time>2022-05-24 14:33:20</time>
      </trkpt>
      <trkpt lat="40.93151" lon="0.50155">
        <ele>193.2</ele>
        <time>2022-05-24 14:33:21</time>
      </trkpt>
      <trkpt lat="40.93146" lon="0.50146">
        <ele>192.8</ele>
        <time>2022-05-24 14:33:22</time>
      </trkpt>
      <trkpt lat="40.93141" lon="0.50136">
        <ele>192.2</ele>
        <time>2022-05-24 14:33:23</time>
      </trkpt>
      <trkpt lat="40.93136" lon="0.50126">
        <ele>191.8</ele>
        <time>2022-05-24 14:33:24</time>
      </trkpt>
      <trkpt lat="40.93129" lon="0.50115">
        <ele>191.2</ele>
        <time>2022-05-24 14:33:25</time>
      </trkpt>
      <trkpt lat="40.93121" lon="0.50106">
        <ele>190.4</ele>
        <time>2022-05-24 14:33:26</time>
      </trkpt>
      <trkpt lat="40.93113" lon="0.50098">
        <ele>189.6</ele>
        <time>2022-05-24 14:33:27</time>
      </trkpt>
      <trkpt lat="40.93104" lon="0.5009">
        <ele>188.8</ele>
        <time>2022-05-24 14:33:28</time>
      </trkpt>
      <trkpt lat="40.93095" lon="0.50082">
        <ele>187.8</ele>
        <time>2022-05-24 14:33:29</time>
      </trkpt>
      <trkpt lat="40.93086" lon="0.50072">
        <ele>186.8</ele>
        <time>2022-05-24 14:33:30</time>
      </trkpt>
      <trkpt lat="40.93078" lon="0.5006">
        <ele>185.8</ele>
        <time>2022-05-24 14:33:31</time>
      </trkpt>
      <trkpt lat="40.9307" lon="0.50048">
        <ele>185</ele>
        <time>2022-05-24 14:33:32</time>
      </trkpt>
      <trkpt lat="40.93063" lon="0.50037">
        <ele>184.2</ele>
        <time>2022-05-24 14:33:33</time>
      </trkpt>
      <trkpt lat="40.93054" lon="0.50024">
        <ele>183.2</ele>
        <time>2022-05-24 14:33:34</time>
      </trkpt>
      <trkpt lat="40.93047" lon="0.50012">
        <ele>182.6</ele>
        <time>2022-05-24 14:33:35</time>
      </trkpt>
      <trkpt lat="40.9304" lon="0.50003">
        <ele>182.2</ele>
        <time>2022-05-24 14:33:36</time>
      </trkpt>
      <trkpt lat="40.93034" lon="0.49993">
        <ele>181.8</ele>
        <time>2022-05-24 14:33:37</time>
      </trkpt>
      <trkpt lat="40.93027" lon="0.49987">
        <ele>181.4</ele>
        <time>2022-05-24 14:33:38</time>
      </trkpt>
      <trkpt lat="40.93017" lon="0.49987">
        <ele>180.8</ele>
        <time>2022-05-24 14:33:39</time>
      </trkpt>
      <trkpt lat="40.93012" lon="0.49991">
        <ele>180.2</ele>
        <time>2022-05-24 14:33:40</time>
      </trkpt>
      <trkpt lat="40.93004" lon="0.49999">
        <ele>179.6</ele>
        <time>2022-05-24 14:33:41</time>
      </trkpt>
      <trkpt lat="40.92999" lon="0.50004">
        <ele>179</ele>
        <time>2022-05-24 14:33:42</time>
      </trkpt>
      <trkpt lat="40.9299" lon="0.50013">
        <ele>178.4</ele>
        <time>2022-05-24 14:33:43</time>
      </trkpt>
      <trkpt lat="40.92987" lon="0.50019">
        <ele>177.6</ele>
        <time>2022-05-24 14:33:44</time>
      </trkpt>
      <trkpt lat="40.92981" lon="0.50027">
        <ele>177</ele>
        <time>2022-05-24 14:33:45</time>
      </trkpt>
      <trkpt lat="40.92974" lon="0.50036">
        <ele>176.4</ele>
        <time>2022-05-24 14:33:46</time>
      </trkpt>
      <trkpt lat="40.92967" lon="0.50045">
        <ele>176</ele>
        <time>2022-05-24 14:33:47</time>
      </trkpt>
      <trkpt lat="40.92961" lon="0.50053">
        <ele>175.4</ele>
        <time>2022-05-24 14:33:48</time>
      </trkpt>
      <trkpt lat="40.92956" lon="0.50066">
        <ele>174.8</ele>
        <time>2022-05-24 14:33:49</time>
      </trkpt>
      <trkpt lat="40.92956" lon="0.50072">
        <ele>174.2</ele>
        <time>2022-05-24 14:33:50</time>
      </trkpt>
      <trkpt lat="40.92959" lon="0.50084">
        <ele>173.6</ele>
        <time>2022-05-24 14:33:51</time>
      </trkpt>
      <trkpt lat="40.92963" lon="0.50091">
        <ele>173</ele>
        <time>2022-05-24 14:33:52</time>
      </trkpt>
      <trkpt lat="40.9297" lon="0.50103">
        <ele>172.2</ele>
        <time>2022-05-24 14:33:53</time>
      </trkpt>
      <trkpt lat="40.92974" lon="0.50109">
        <ele>171.6</ele>
        <time>2022-05-24 14:33:54</time>
      </trkpt>
      <trkpt lat="40.92982" lon="0.50121">
        <ele>170.8</ele>
        <time>2022-05-24 14:33:55</time>
      </trkpt>
      <trkpt lat="40.92986" lon="0.50126">
        <ele>170.4</ele>
        <time>2022-05-24 14:33:56</time>
      </trkpt>
      <trkpt lat="40.92992" lon="0.50135">
        <ele>169.8</ele>
        <time>2022-05-24 14:33:57</time>
      </trkpt>
      <trkpt lat="40.92998" lon="0.50144">
        <ele>169.2</ele>
        <time>2022-05-24 14:33:58</time>
      </trkpt>
      <trkpt lat="40.93003" lon="0.50155">
        <ele>168.8</ele>
        <time>2022-05-24 14:33:59</time>
      </trkpt>
      <trkpt lat="40.93007" lon="0.50167">
        <ele>168.2</ele>
        <time>2022-05-24 14:34:00</time>
      </trkpt>
      <trkpt lat="40.9301" lon="0.5018">
        <ele>167.4</ele>
        <time>2022-05-24 14:34:01</time>
      </trkpt>
      <trkpt lat="40.93012" lon="0.50191">
        <ele>167</ele>
        <time>2022-05-24 14:34:02</time>
      </trkpt>
      <trkpt lat="40.93014" lon="0.50203">
        <ele>166.4</ele>
        <time>2022-05-24 14:34:03</time>
      </trkpt>
      <trkpt lat="40.93017" lon="0.50217">
        <ele>165.8</ele>
        <time>2022-05-24 14:34:04</time>
      </trkpt>
      <trkpt lat="40.93019" lon="0.50232">
        <ele>165.2</ele>
        <time>2022-05-24 14:34:05</time>
      </trkpt>
      <trkpt lat="40.9302" lon="0.50246">
        <ele>164.8</ele>
        <time>2022-05-24 14:34:06</time>
      </trkpt>
      <trkpt lat="40.93019" lon="0.50256">
        <ele>164.2</ele>
        <time>2022-05-24 14:34:07</time>
      </trkpt>
      <trkpt lat="40.93013" lon="0.50272">
        <ele>163.4</ele>
        <time>2022-05-24 14:34:08</time>
      </trkpt>
      <trkpt lat="40.9301" lon="0.5028">
        <ele>162.8</ele>
        <time>2022-05-24 14:34:09</time>
      </trkpt>
      <trkpt lat="40.93006" lon="0.50289">
        <ele>162.4</ele>
        <time>2022-05-24 14:34:10</time>
      </trkpt>
      <trkpt lat="40.93004" lon="0.50304">
        <ele>161.6</ele>
        <time>2022-05-24 14:34:11</time>
      </trkpt>
      <trkpt lat="40.93006" lon="0.50311">
        <ele>161.2</ele>
        <time>2022-05-24 14:34:12</time>
      </trkpt>
      <trkpt lat="40.93012" lon="0.50322">
        <ele>160.6</ele>
        <time>2022-05-24 14:34:13</time>
      </trkpt>
      <trkpt lat="40.93017" lon="0.50326">
        <ele>160</ele>
        <time>2022-05-24 14:34:14</time>
      </trkpt>
      <trkpt lat="40.93026" lon="0.50333">
        <ele>159.4</ele>
        <time>2022-05-24 14:34:15</time>
      </trkpt>
      <trkpt lat="40.93032" lon="0.50339">
        <ele>158.8</ele>
        <time>2022-05-24 14:34:16</time>
      </trkpt>
      <trkpt lat="40.93039" lon="0.50349">
        <ele>158</ele>
        <time>2022-05-24 14:34:17</time>
      </trkpt>
      <trkpt lat="40.9304" lon="0.50357">
        <ele>157.4</ele>
        <time>2022-05-24 14:34:18</time>
      </trkpt>
      <trkpt lat="40.93041" lon="0.50371">
        <ele>156.8</ele>
        <time>2022-05-24 14:34:19</time>
      </trkpt>
      <trkpt lat="40.93041" lon="0.50379">
        <ele>156.2</ele>
        <time>2022-05-24 14:34:20</time>
      </trkpt>
      <trkpt lat="40.93043" lon="0.50395">
        <ele>155.6</ele>
        <time>2022-05-24 14:34:21</time>
      </trkpt>
      <trkpt lat="40.93045" lon="0.50404">
        <ele>155.2</ele>
        <time>2022-05-24 14:34:22</time>
      </trkpt>
      <trkpt lat="40.93049" lon="0.50415">
        <ele>154.4</ele>
        <time>2022-05-24 14:34:23</time>
      </trkpt>
      <trkpt lat="40.93053" lon="0.50426">
        <ele>153.8</ele>
        <time>2022-05-24 14:34:24</time>
      </trkpt>
      <trkpt lat="40.93058" lon="0.50437">
        <ele>153.2</ele>
        <time>2022-05-24 14:34:25</time>
      </trkpt>
      <trkpt lat="40.93063" lon="0.50448">
        <ele>152.4</ele>
        <time>2022-05-24 14:34:26</time>
      </trkpt>
      <trkpt lat="40.93068" lon="0.5046">
        <ele>151.8</ele>
        <time>2022-05-24 14:34:27</time>
      </trkpt>
      <trkpt lat="40.93071" lon="0.50473">
        <ele>151.2</ele>
        <time>2022-05-24 14:34:28</time>
      </trkpt>
      <trkpt lat="40.93074" lon="0.50486">
        <ele>150.6</ele>
        <time>2022-05-24 14:34:29</time>
      </trkpt>
      <trkpt lat="40.93076" lon="0.505">
        <ele>150</ele>
        <time>2022-05-24 14:34:30</time>
      </trkpt>
      <trkpt lat="40.93078" lon="0.5051">
        <ele>149.6</ele>
        <time>2022-05-24 14:34:31</time>
      </trkpt>
      <trkpt lat="40.93079" lon="0.50524">
        <ele>149.2</ele>
        <time>2022-05-24 14:34:32</time>
      </trkpt>
      <trkpt lat="40.93079" lon="0.50529">
        <ele>148.8</ele>
        <time>2022-05-24 14:34:33</time>
      </trkpt>
      <trkpt lat="40.93074" lon="0.50537">
        <ele>148.6</ele>
        <time>2022-05-24 14:34:34</time>
      </trkpt>
      <trkpt lat="40.93068" lon="0.50539">
        <ele>148.2</ele>
        <time>2022-05-24 14:34:35</time>
      </trkpt>
      <trkpt lat="40.9306" lon="0.50541">
        <ele>147.8</ele>
        <time>2022-05-24 14:34:36</time>
      </trkpt>
      <trkpt lat="40.93054" lon="0.50537">
        <ele>147.4</ele>
        <time>2022-05-24 14:34:37</time>
      </trkpt>
      <trkpt lat="40.93047" lon="0.50532">
        <ele>147</ele>
        <time>2022-05-24 14:34:38</time>
      </trkpt>
      <trkpt lat="40.93039" lon="0.50524">
        <ele>146.4</ele>
        <time>2022-05-24 14:34:39</time>
      </trkpt>
      <trkpt lat="40.9303" lon="0.50517">
        <ele>145.8</ele>
        <time>2022-05-24 14:34:40</time>
      </trkpt>
      <trkpt lat="40.93022" lon="0.50511">
        <ele>145.4</ele>
        <time>2022-05-24 14:34:41</time>
      </trkpt>
      <trkpt lat="40.93014" lon="0.50506">
        <ele>145</ele>
        <time>2022-05-24 14:34:42</time>
      </trkpt>
      <trkpt lat="40.93005" lon="0.50499">
        <ele>144.6</ele>
        <time>2022-05-24 14:34:43</time>
      </trkpt>
      <trkpt lat="40.92996" lon="0.50494">
        <ele>144.2</ele>
        <time>2022-05-24 14:34:44</time>
      </trkpt>
      <trkpt lat="40.92986" lon="0.50487">
        <ele>143.6</ele>
        <time>2022-05-24 14:34:45</time>
      </trkpt>
      <trkpt lat="40.92977" lon="0.50482">
        <ele>143</ele>
        <time>2022-05-24 14:34:46</time>
      </trkpt>
      <trkpt lat="40.92967" lon="0.50476">
        <ele>142.4</ele>
        <time>2022-05-24 14:34:47</time>
      </trkpt>
      <trkpt lat="40.92957" lon="0.5047">
        <ele>141.8</ele>
        <time>2022-05-24 14:34:48</time>
      </trkpt>
      <trkpt lat="40.92947" lon="0.50463">
        <ele>141</ele>
        <time>2022-05-24 14:34:49</time>
      </trkpt>
      <trkpt lat="40.92938" lon="0.50458">
        <ele>140.2</ele>
        <time>2022-05-24 14:34:50</time>
      </trkpt>
      <trkpt lat="40.92929" lon="0.50453">
        <ele>139.6</ele>
        <time>2022-05-24 14:34:51</time>
      </trkpt>
      <trkpt lat="40.92918" lon="0.50447">
        <ele>138.8</ele>
        <time>2022-05-24 14:34:52</time>
      </trkpt>
      <trkpt lat="40.92907" lon="0.50441">
        <ele>138.2</ele>
        <time>2022-05-24 14:34:53</time>
      </trkpt>
      <trkpt lat="40.92896" lon="0.50433">
        <ele>137.8</ele>
        <time>2022-05-24 14:34:54</time>
      </trkpt>
      <trkpt lat="40.92886" lon="0.50426">
        <ele>137.4</ele>
        <time>2022-05-24 14:34:55</time>
      </trkpt>
      <trkpt lat="40.92879" lon="0.50421">
        <ele>137</ele>
        <time>2022-05-24 14:34:56</time>
      </trkpt>
      <trkpt lat="40.92866" lon="0.5041">
        <ele>136.2</ele>
        <time>2022-05-24 14:34:57</time>
      </trkpt>
      <trkpt lat="40.92861" lon="0.50403">
        <ele>135.6</ele>
        <time>2022-05-24 14:34:58</time>
      </trkpt>
      <trkpt lat="40.92855" lon="0.50395">
        <ele>135.2</ele>
        <time>2022-05-24 14:34:59</time>
      </trkpt>
      <trkpt lat="40.92848" lon="0.50384">
        <ele>134.6</ele>
        <time>2022-05-24 14:35:00</time>
      </trkpt>
      <trkpt lat="40.92841" lon="0.50373">
        <ele>134</ele>
        <time>2022-05-24 14:35:01</time>
      </trkpt>
      <trkpt lat="40.92835" lon="0.50361">
        <ele>133.6</ele>
        <time>2022-05-24 14:35:02</time>
      </trkpt>
      <trkpt lat="40.92829" lon="0.50351">
        <ele>133</ele>
        <time>2022-05-24 14:35:03</time>
      </trkpt>
      <trkpt lat="40.92822" lon="0.5034">
        <ele>132.4</ele>
        <time>2022-05-24 14:35:04</time>
      </trkpt>
      <trkpt lat="40.92817" lon="0.50328">
        <ele>131.8</ele>
        <time>2022-05-24 14:35:05</time>
      </trkpt>
      <trkpt lat="40.92812" lon="0.50317">
        <ele>131.4</ele>
        <time>2022-05-24 14:35:06</time>
      </trkpt>
      <trkpt lat="40.92807" lon="0.50304">
        <ele>130.8</ele>
        <time>2022-05-24 14:35:07</time>
      </trkpt>
      <trkpt lat="40.92803" lon="0.50291">
        <ele>130.2</ele>
        <time>2022-05-24 14:35:08</time>
      </trkpt>
      <trkpt lat="40.92799" lon="0.50279">
        <ele>129.6</ele>
        <time>2022-05-24 14:35:09</time>
      </trkpt>
      <trkpt lat="40.92795" lon="0.50266">
        <ele>129</ele>
        <time>2022-05-24 14:35:10</time>
      </trkpt>
      <trkpt lat="40.92789" lon="0.50252">
        <ele>128.2</ele>
        <time>2022-05-24 14:35:11</time>
      </trkpt>
      <trkpt lat="40.92782" lon="0.50236">
        <ele>127.6</ele>
        <time>2022-05-24 14:35:12</time>
      </trkpt>
      <trkpt lat="40.92774" lon="0.5022">
        <ele>127</ele>
        <time>2022-05-24 14:35:13</time>
      </trkpt>
      <trkpt lat="40.92767" lon="0.50206">
        <ele>126.2</ele>
        <time>2022-05-24 14:35:14</time>
      </trkpt>
      <trkpt lat="40.92759" lon="0.50193">
        <ele>125.4</ele>
        <time>2022-05-24 14:35:15</time>
      </trkpt>
      <trkpt lat="40.92754" lon="0.50185">
        <ele>124.6</ele>
        <time>2022-05-24 14:35:16</time>
      </trkpt>
      <trkpt lat="40.92748" lon="0.50174">
        <ele>123.8</ele>
        <time>2022-05-24 14:35:17</time>
      </trkpt>
      <trkpt lat="40.92739" lon="0.50159">
        <ele>123.2</ele>
        <time>2022-05-24 14:35:18</time>
      </trkpt>
      <trkpt lat="40.92729" lon="0.5014">
        <ele>122.4</ele>
        <time>2022-05-24 14:35:19</time>
      </trkpt>
      <trkpt lat="40.92721" lon="0.50128">
        <ele>121.4</ele>
        <time>2022-05-24 14:35:20</time>
      </trkpt>
      <trkpt lat="40.92715" lon="0.50118">
        <ele>120.8</ele>
        <time>2022-05-24 14:35:21</time>
      </trkpt>
      <trkpt lat="40.92707" lon="0.50105">
        <ele>120</ele>
        <time>2022-05-24 14:35:22</time>
      </trkpt>
      <trkpt lat="40.92697" lon="0.50088">
        <ele>119.2</ele>
        <time>2022-05-24 14:35:23</time>
      </trkpt>
      <trkpt lat="40.9269" lon="0.50074">
        <ele>118.6</ele>
        <time>2022-05-24 14:35:24</time>
      </trkpt>
      <trkpt lat="40.92683" lon="0.50061">
        <ele>117.8</ele>
        <time>2022-05-24 14:35:25</time>
      </trkpt>
      <trkpt lat="40.92676" lon="0.50049">
        <ele>117.2</ele>
        <time>2022-05-24 14:35:26</time>
      </trkpt>
      <trkpt lat="40.9267" lon="0.50037">
        <ele>116.4</ele>
        <time>2022-05-24 14:35:27</time>
      </trkpt>
      <trkpt lat="40.92661" lon="0.50025">
        <ele>115.8</ele>
        <time>2022-05-24 14:35:28</time>
      </trkpt>
      <trkpt lat="40.92651" lon="0.50017">
        <ele>115.4</ele>
        <time>2022-05-24 14:35:29</time>
      </trkpt>
      <trkpt lat="40.92642" lon="0.50012">
        <ele>115</ele>
        <time>2022-05-24 14:35:30</time>
      </trkpt>
      <trkpt lat="40.92632" lon="0.50014">
        <ele>114.6</ele>
        <time>2022-05-24 14:35:31</time>
      </trkpt>
      <trkpt lat="40.92622" lon="0.50016">
        <ele>114</ele>
        <time>2022-05-24 14:35:32</time>
      </trkpt>
      <trkpt lat="40.92613" lon="0.50018">
        <ele>113.4</ele>
        <time>2022-05-24 14:35:33</time>
      </trkpt>
      <trkpt lat="40.92603" lon="0.50017">
        <ele>113.2</ele>
        <time>2022-05-24 14:35:34</time>
      </trkpt>
      <trkpt lat="40.92594" lon="0.50015">
        <ele>112.8</ele>
        <time>2022-05-24 14:35:35</time>
      </trkpt>
      <trkpt lat="40.92585" lon="0.50012">
        <ele>112.6</ele>
        <time>2022-05-24 14:35:36</time>
      </trkpt>
      <trkpt lat="40.92576" lon="0.5001">
        <ele>112.4</ele>
        <time>2022-05-24 14:35:37</time>
      </trkpt>
      <trkpt lat="40.92567" lon="0.5001">
        <ele>112.2</ele>
        <time>2022-05-24 14:35:38</time>
      </trkpt>
      <trkpt lat="40.92557" lon="0.5001">
        <ele>112</ele>
        <time>2022-05-24 14:35:39</time>
      </trkpt>
      <trkpt lat="40.92549" lon="0.50011">
        <ele>111.6</ele>
        <time>2022-05-24 14:35:40</time>
      </trkpt>
      <trkpt lat="40.9254" lon="0.50012">
        <ele>111.4</ele>
        <time>2022-05-24 14:35:41</time>
      </trkpt>
      <trkpt lat="40.92532" lon="0.50012">
        <ele>111.2</ele>
        <time>2022-05-24 14:35:42</time>
      </trkpt>
      <trkpt lat="40.92523" lon="0.50014">
        <ele>111</ele>
        <time>2022-05-24 14:35:43</time>
      </trkpt>
      <trkpt lat="40.92515" lon="0.50016">
        <ele>110.8</ele>
        <time>2022-05-24 14:35:44</time>
      </trkpt>
      <trkpt lat="40.92506" lon="0.50019">
        <ele>110.4</ele>
        <time>2022-05-24 14:35:45</time>
      </trkpt>
      <trkpt lat="40.92499" lon="0.50025">
        <ele>110.2</ele>
        <time>2022-05-24 14:35:46</time>
      </trkpt>
      <trkpt lat="40.92492" lon="0.50032">
        <ele>109.8</ele>
        <time>2022-05-24 14:35:47</time>
      </trkpt>
      <trkpt lat="40.92486" lon="0.50041">
        <ele>109.2</ele>
        <time>2022-05-24 14:35:48</time>
      </trkpt>
      <trkpt lat="40.92481" lon="0.50051">
        <ele>108.6</ele>
        <time>2022-05-24 14:35:49</time>
      </trkpt>
      <trkpt lat="40.92478" lon="0.50062">
        <ele>108</ele>
        <time>2022-05-24 14:35:50</time>
      </trkpt>
      <trkpt lat="40.92475" lon="0.50073">
        <ele>107.4</ele>
        <time>2022-05-24 14:35:51</time>
      </trkpt>
      <trkpt lat="40.92475" lon="0.50087">
        <ele>106.8</ele>
        <time>2022-05-24 14:35:52</time>
      </trkpt>
      <trkpt lat="40.92477" lon="0.50099">
        <ele>106.4</ele>
        <time>2022-05-24 14:35:53</time>
      </trkpt>
      <trkpt lat="40.92481" lon="0.5011">
        <ele>105.8</ele>
        <time>2022-05-24 14:35:54</time>
      </trkpt>
      <trkpt lat="40.92488" lon="0.50117">
        <ele>105.2</ele>
        <time>2022-05-24 14:35:55</time>
      </trkpt>
      <trkpt lat="40.92497" lon="0.50121">
        <ele>104.6</ele>
        <time>2022-05-24 14:35:56</time>
      </trkpt>
      <trkpt lat="40.92506" lon="0.50125">
        <ele>104</ele>
        <time>2022-05-24 14:35:57</time>
      </trkpt>
      <trkpt lat="40.92516" lon="0.50128">
        <ele>103.4</ele>
        <time>2022-05-24 14:35:58</time>
      </trkpt>
      <trkpt lat="40.92523" lon="0.50133">
        <ele>103</ele>
        <time>2022-05-24 14:35:59</time>
      </trkpt>
      <trkpt lat="40.9253" lon="0.50138">
        <ele>102.4</ele>
        <time>2022-05-24 14:36:00</time>
      </trkpt>
      <trkpt lat="40.92536" lon="0.50144">
        <ele>102</ele>
        <time>2022-05-24 14:36:01</time>
      </trkpt>
      <trkpt lat="40.92539" lon="0.50152">
        <ele>101.6</ele>
        <time>2022-05-24 14:36:02</time>
      </trkpt>
      <trkpt lat="40.92541" lon="0.50161">
        <ele>101.2</ele>
        <time>2022-05-24 14:36:03</time>
      </trkpt>
      <trkpt lat="40.92539" lon="0.50168">
        <ele>100.8</ele>
        <time>2022-05-24 14:36:04</time>
      </trkpt>
      <trkpt lat="40.92535" lon="0.50175">
        <ele>100.4</ele>
        <time>2022-05-24 14:36:05</time>
      </trkpt>
      <trkpt lat="40.92527" lon="0.50183">
        <ele>99.6</ele>
        <time>2022-05-24 14:36:06</time>
      </trkpt>
      <trkpt lat="40.92521" lon="0.5019">
        <ele>99.2</ele>
        <time>2022-05-24 14:36:07</time>
      </trkpt>
      <trkpt lat="40.92515" lon="0.50197">
        <ele>98.6</ele>
        <time>2022-05-24 14:36:08</time>
      </trkpt>
      <trkpt lat="40.92509" lon="0.50206">
        <ele>98</ele>
        <time>2022-05-24 14:36:09</time>
      </trkpt>
      <trkpt lat="40.92502" lon="0.50214">
        <ele>97.2</ele>
        <time>2022-05-24 14:36:10</time>
      </trkpt>
      <trkpt lat="40.92496" lon="0.50223">
        <ele>96.6</ele>
        <time>2022-05-24 14:36:11</time>
      </trkpt>
      <trkpt lat="40.92492" lon="0.50233">
        <ele>96</ele>
        <time>2022-05-24 14:36:12</time>
      </trkpt>
      <trkpt lat="40.92487" lon="0.50244">
        <ele>95.4</ele>
        <time>2022-05-24 14:36:13</time>
      </trkpt>
      <trkpt lat="40.92483" lon="0.50256">
        <ele>95</ele>
        <time>2022-05-24 14:36:14</time>
      </trkpt>
      <trkpt lat="40.92482" lon="0.50269">
        <ele>94.4</ele>
        <time>2022-05-24 14:36:15</time>
      </trkpt>
      <trkpt lat="40.92482" lon="0.50283">
        <ele>93.8</ele>
        <time>2022-05-24 14:36:16</time>
      </trkpt>
      <trkpt lat="40.92481" lon="0.50294">
        <ele>93.2</ele>
        <time>2022-05-24 14:36:17</time>
      </trkpt>
      <trkpt lat="40.92477" lon="0.50306">
        <ele>92.4</ele>
        <time>2022-05-24 14:36:18</time>
      </trkpt>
      <trkpt lat="40.92471" lon="0.50315">
        <ele>92</ele>
        <time>2022-05-24 14:36:19</time>
      </trkpt>
      <trkpt lat="40.92464" lon="0.50324">
        <ele>91.2</ele>
        <time>2022-05-24 14:36:20</time>
      </trkpt>
      <trkpt lat="40.92456" lon="0.50334">
        <ele>90.4</ele>
        <time>2022-05-24 14:36:21</time>
      </trkpt>
      <trkpt lat="40.92449" lon="0.50343">
        <ele>89.6</ele>
        <time>2022-05-24 14:36:22</time>
      </trkpt>
      <trkpt lat="40.92441" lon="0.50352">
        <ele>88.8</ele>
        <time>2022-05-24 14:36:23</time>
      </trkpt>
      <trkpt lat="40.92432" lon="0.50361">
        <ele>88</ele>
        <time>2022-05-24 14:36:24</time>
      </trkpt>
      <trkpt lat="40.92423" lon="0.50369">
        <ele>87.4</ele>
        <time>2022-05-24 14:36:25</time>
      </trkpt>
      <trkpt lat="40.92413" lon="0.50377">
        <ele>87</ele>
        <time>2022-05-24 14:36:26</time>
      </trkpt>
      <trkpt lat="40.92403" lon="0.50382">
        <ele>86.4</ele>
        <time>2022-05-24 14:36:27</time>
      </trkpt>
      <trkpt lat="40.92392" lon="0.5039">
        <ele>85.6</ele>
        <time>2022-05-24 14:36:28</time>
      </trkpt>
      <trkpt lat="40.92383" lon="0.50395">
        <ele>85</ele>
        <time>2022-05-24 14:36:29</time>
      </trkpt>
      <trkpt lat="40.92376" lon="0.50402">
        <ele>84.4</ele>
        <time>2022-05-24 14:36:30</time>
      </trkpt>
      <trkpt lat="40.92374" lon="0.50411">
        <ele>84</ele>
        <time>2022-05-24 14:36:31</time>
      </trkpt>
      <trkpt lat="40.92373" lon="0.50419">
        <ele>83.6</ele>
        <time>2022-05-24 14:36:32</time>
      </trkpt>
      <trkpt lat="40.92376" lon="0.50428">
        <ele>83</ele>
        <time>2022-05-24 14:36:33</time>
      </trkpt>
      <trkpt lat="40.92383" lon="0.50438">
        <ele>82.2</ele>
        <time>2022-05-24 14:36:34</time>
      </trkpt>
      <trkpt lat="40.9239" lon="0.50445">
        <ele>81.8</ele>
        <time>2022-05-24 14:36:35</time>
      </trkpt>
      <trkpt lat="40.92396" lon="0.50453">
        <ele>81.4</ele>
        <time>2022-05-24 14:36:36</time>
      </trkpt>
      <trkpt lat="40.92402" lon="0.50459">
        <ele>81</ele>
        <time>2022-05-24 14:36:37</time>
      </trkpt>
      <trkpt lat="40.92406" lon="0.50467">
        <ele>80.6</ele>
        <time>2022-05-24 14:36:38</time>
      </trkpt>
      <trkpt lat="40.92408" lon="0.50474">
        <ele>80.4</ele>
        <time>2022-05-24 14:36:39</time>
      </trkpt>
      <trkpt lat="40.92404" lon="0.50481">
        <ele>79.8</ele>
        <time>2022-05-24 14:36:40</time>
      </trkpt>
      <trkpt lat="40.92399" lon="0.50486">
        <ele>79.6</ele>
        <time>2022-05-24 14:36:41</time>
      </trkpt>
      <trkpt lat="40.92393" lon="0.50489">
        <ele>79</ele>
        <time>2022-05-24 14:36:42</time>
      </trkpt>
      <trkpt lat="40.92386" lon="0.50488">
        <ele>78.6</ele>
        <time>2022-05-24 14:36:43</time>
      </trkpt>
      <trkpt lat="40.92379" lon="0.50485">
        <ele>78</ele>
        <time>2022-05-24 14:36:44</time>
      </trkpt>
      <trkpt lat="40.92372" lon="0.50478">
        <ele>77.6</ele>
        <time>2022-05-24 14:36:45</time>
      </trkpt>
      <trkpt lat="40.92363" lon="0.50471">
        <ele>77</ele>
        <time>2022-05-24 14:36:46</time>
      </trkpt>
      <trkpt lat="40.92355" lon="0.50466">
        <ele>76.6</ele>
        <time>2022-05-24 14:36:47</time>
      </trkpt>
      <trkpt lat="40.92345" lon="0.50462">
        <ele>76</ele>
        <time>2022-05-24 14:36:48</time>
      </trkpt>
      <trkpt lat="40.92335" lon="0.50458">
        <ele>75.4</ele>
        <time>2022-05-24 14:36:49</time>
      </trkpt>
      <trkpt lat="40.92324" lon="0.50454">
        <ele>74.8</ele>
        <time>2022-05-24 14:36:50</time>
      </trkpt>
      <trkpt lat="40.92314" lon="0.50452">
        <ele>74.2</ele>
        <time>2022-05-24 14:36:51</time>
      </trkpt>
      <trkpt lat="40.92303" lon="0.5045">
        <ele>73.4</ele>
        <time>2022-05-24 14:36:52</time>
      </trkpt>
      <trkpt lat="40.92292" lon="0.50445">
        <ele>72.4</ele>
        <time>2022-05-24 14:36:53</time>
      </trkpt>
      <trkpt lat="40.92283" lon="0.50439">
        <ele>71.6</ele>
        <time>2022-05-24 14:36:54</time>
      </trkpt>
      <trkpt lat="40.92274" lon="0.50431">
        <ele>70.6</ele>
        <time>2022-05-24 14:36:55</time>
      </trkpt>
      <trkpt lat="40.92263" lon="0.50426">
        <ele>69.8</ele>
        <time>2022-05-24 14:36:56</time>
      </trkpt>
      <trkpt lat="40.92252" lon="0.50424">
        <ele>69.2</ele>
        <time>2022-05-24 14:36:57</time>
      </trkpt>
      <trkpt lat="40.92243" lon="0.50426">
        <ele>68.4</ele>
        <time>2022-05-24 14:36:58</time>
      </trkpt>
      <trkpt lat="40.92236" lon="0.50432">
        <ele>67.8</ele>
        <time>2022-05-24 14:36:59</time>
      </trkpt>
      <trkpt lat="40.9223" lon="0.5044">
        <ele>66.8</ele>
        <time>2022-05-24 14:37:00</time>
      </trkpt>
      <trkpt lat="40.92226" lon="0.50451">
        <ele>66.2</ele>
        <time>2022-05-24 14:37:01</time>
      </trkpt>
      <trkpt lat="40.92223" lon="0.50464">
        <ele>65.6</ele>
        <time>2022-05-24 14:37:02</time>
      </trkpt>
      <trkpt lat="40.9222" lon="0.50478">
        <ele>65</ele>
        <time>2022-05-24 14:37:03</time>
      </trkpt>
      <trkpt lat="40.92218" lon="0.50494">
        <ele>64.4</ele>
        <time>2022-05-24 14:37:04</time>
      </trkpt>
      <trkpt lat="40.92216" lon="0.50506">
        <ele>64</ele>
        <time>2022-05-24 14:37:05</time>
      </trkpt>
      <trkpt lat="40.92214" lon="0.50516">
        <ele>63.4</ele>
        <time>2022-05-24 14:37:06</time>
      </trkpt>
      <trkpt lat="40.92211" lon="0.50529">
        <ele>62.8</ele>
        <time>2022-05-24 14:37:07</time>
      </trkpt>
      <trkpt lat="40.92209" lon="0.50541">
        <ele>62.4</ele>
        <time>2022-05-24 14:37:08</time>
      </trkpt>
      <trkpt lat="40.92209" lon="0.50553">
        <ele>62</ele>
        <time>2022-05-24 14:37:09</time>
      </trkpt>
      <trkpt lat="40.92214" lon="0.50559">
        <ele>61.6</ele>
        <time>2022-05-24 14:37:10</time>
      </trkpt>
      <trkpt lat="40.92219" lon="0.50565">
        <ele>61.4</ele>
        <time>2022-05-24 14:37:11</time>
      </trkpt>
      <trkpt lat="40.92221" lon="0.50572">
        <ele>61</ele>
        <time>2022-05-24 14:37:12</time>
      </trkpt>
      <trkpt lat="40.92222" lon="0.50579">
        <ele>60.6</ele>
        <time>2022-05-24 14:37:13</time>
      </trkpt>
      <trkpt lat="40.92221" lon="0.50586">
        <ele>60.2</ele>
        <time>2022-05-24 14:37:14</time>
      </trkpt>
      <trkpt lat="40.92217" lon="0.50589">
        <ele>59.8</ele>
        <time>2022-05-24 14:37:15</time>
      </trkpt>
      <trkpt lat="40.92204" lon="0.50584">
        <ele>59.2</ele>
        <time>2022-05-24 14:37:16</time>
      </trkpt>
      <trkpt lat="40.92197" lon="0.5058">
        <ele>58.8</ele>
        <time>2022-05-24 14:37:17</time>
      </trkpt>
      <trkpt lat="40.92189" lon="0.50574">
        <ele>58.2</ele>
        <time>2022-05-24 14:37:18</time>
      </trkpt>
      <trkpt lat="40.92183" lon="0.50567">
        <ele>57.6</ele>
        <time>2022-05-24 14:37:19</time>
      </trkpt>
      <trkpt lat="40.92176" lon="0.50559">
        <ele>57</ele>
        <time>2022-05-24 14:37:20</time>
      </trkpt>
      <trkpt lat="40.9217" lon="0.5055">
        <ele>56.4</ele>
        <time>2022-05-24 14:37:21</time>
      </trkpt>
      <trkpt lat="40.92166" lon="0.5054">
        <ele>55.8</ele>
        <time>2022-05-24 14:37:22</time>
      </trkpt>
      <trkpt lat="40.92163" lon="0.50529">
        <ele>55</ele>
        <time>2022-05-24 14:37:23</time>
      </trkpt>
      <trkpt lat="40.9216" lon="0.50519">
        <ele>54.4</ele>
        <time>2022-05-24 14:37:24</time>
      </trkpt>
      <trkpt lat="40.92154" lon="0.50503">
        <ele>53.6</ele>
        <time>2022-05-24 14:37:25</time>
      </trkpt>
      <trkpt lat="40.9215" lon="0.50493">
        <ele>53</ele>
        <time>2022-05-24 14:37:26</time>
      </trkpt>
      <trkpt lat="40.92145" lon="0.50482">
        <ele>52.2</ele>
        <time>2022-05-24 14:37:27</time>
      </trkpt>
      <trkpt lat="40.92137" lon="0.5047">
        <ele>51.4</ele>
        <time>2022-05-24 14:37:28</time>
      </trkpt>
      <trkpt lat="40.92129" lon="0.50458">
        <ele>50.2</ele>
        <time>2022-05-24 14:37:29</time>
      </trkpt>
      <trkpt lat="40.92118" lon="0.50447">
        <ele>49.4</ele>
        <time>2022-05-24 14:37:30</time>
      </trkpt>
      <trkpt lat="40.9211" lon="0.5044">
        <ele>48.4</ele>
        <time>2022-05-24 14:37:31</time>
      </trkpt>
      <trkpt lat="40.921" lon="0.50429">
        <ele>47.4</ele>
        <time>2022-05-24 14:37:32</time>
      </trkpt>
      <trkpt lat="40.92093" lon="0.50419">
        <ele>46.4</ele>
        <time>2022-05-24 14:37:33</time>
      </trkpt>
      <trkpt lat="40.92086" lon="0.50409">
        <ele>45.4</ele>
        <time>2022-05-24 14:37:34</time>
      </trkpt>
      <trkpt lat="40.9208" lon="0.50394">
        <ele>44.8</ele>
        <time>2022-05-24 14:37:35</time>
      </trkpt>
      <trkpt lat="40.92077" lon="0.50381">
        <ele>44.2</ele>
        <time>2022-05-24 14:37:36</time>
      </trkpt>
      <trkpt lat="40.92076" lon="0.50365">
        <ele>43</ele>
        <time>2022-05-24 14:37:37</time>
      </trkpt>
      <trkpt lat="40.92076" lon="0.5035">
        <ele>42.4</ele>
        <time>2022-05-24 14:37:38</time>
      </trkpt>
      <trkpt lat="40.92077" lon="0.50332">
        <ele>41.2</ele>
        <time>2022-05-24 14:37:39</time>
      </trkpt>
      <trkpt lat="40.92075" lon="0.50315">
        <ele>40.2</ele>
        <time>2022-05-24 14:37:40</time>
      </trkpt>
      <trkpt lat="40.92074" lon="0.50301">
        <ele>39.4</ele>
        <time>2022-05-24 14:37:41</time>
      </trkpt>
      <trkpt lat="40.92072" lon="0.50288">
        <ele>38.4</ele>
        <time>2022-05-24 14:37:42</time>
      </trkpt>
      <trkpt lat="40.92067" lon="0.50269">
        <ele>37.6</ele>
        <time>2022-05-24 14:37:43</time>
      </trkpt>
      <trkpt lat="40.92063" lon="0.50257">
        <ele>37</ele>
        <time>2022-05-24 14:37:44</time>
      </trkpt>
      <trkpt lat="40.92057" lon="0.50245">
        <ele>36.2</ele>
        <time>2022-05-24 14:37:45</time>
      </trkpt>
      <trkpt lat="40.92047" lon="0.50236">
        <ele>35.6</ele>
        <time>2022-05-24 14:37:46</time>
      </trkpt>
      <trkpt lat="40.92038" lon="0.5023">
        <ele>35.2</ele>
        <time>2022-05-24 14:37:47</time>
      </trkpt>
      <trkpt lat="40.92028" lon="0.5023">
        <ele>34.6</ele>
        <time>2022-05-24 14:37:48</time>
      </trkpt>
      <trkpt lat="40.92017" lon="0.50231">
        <ele>33.8</ele>
        <time>2022-05-24 14:37:49</time>
      </trkpt>
      <trkpt lat="40.92007" lon="0.50235">
        <ele>33.4</ele>
        <time>2022-05-24 14:37:50</time>
      </trkpt>
      <trkpt lat="40.91997" lon="0.50245">
        <ele>32.8</ele>
        <time>2022-05-24 14:37:51</time>
      </trkpt>
      <trkpt lat="40.9199" lon="0.50254">
        <ele>32.2</ele>
        <time>2022-05-24 14:37:52</time>
      </trkpt>
      <trkpt lat="40.91983" lon="0.50264">
        <ele>31.8</ele>
        <time>2022-05-24 14:37:53</time>
      </trkpt>
      <trkpt lat="40.91977" lon="0.50274">
        <ele>31.6</ele>
        <time>2022-05-24 14:37:54</time>
      </trkpt>
      <trkpt lat="40.91971" lon="0.50286">
        <ele>31.2</ele>
        <time>2022-05-24 14:37:55</time>
      </trkpt>
      <trkpt lat="40.91966" lon="0.50295">
        <ele>30.8</ele>
        <time>2022-05-24 14:37:56</time>
      </trkpt>
      <trkpt lat="40.91959" lon="0.50306">
        <ele>30.4</ele>
        <time>2022-05-24 14:37:57</time>
      </trkpt>
      <trkpt lat="40.91954" lon="0.50314">
        <ele>30</ele>
        <time>2022-05-24 14:37:58</time>
      </trkpt>
      <trkpt lat="40.91948" lon="0.50324">
        <ele>29.8</ele>
        <time>2022-05-24 14:37:59</time>
      </trkpt>
      <trkpt lat="40.91943" lon="0.50333">
        <ele>29.8</ele>
        <time>2022-05-24 14:38:00</time>
      </trkpt>
      <trkpt lat="40.91938" lon="0.50342">
        <ele>29.6</ele>
        <time>2022-05-24 14:38:01</time>
      </trkpt>
      <trkpt lat="40.91934" lon="0.5035">
        <ele>29.6</ele>
        <time>2022-05-24 14:38:02</time>
      </trkpt>
      <trkpt lat="40.9193" lon="0.5036">
        <ele>29.6</ele>
        <time>2022-05-24 14:38:03</time>
      </trkpt>
      <trkpt lat="40.91927" lon="0.50367">
        <ele>29.6</ele>
        <time>2022-05-24 14:38:04</time>
      </trkpt>
      <trkpt lat="40.91924" lon="0.50376">
        <ele>29.6</ele>
        <time>2022-05-24 14:38:05</time>
      </trkpt>
      <trkpt lat="40.91921" lon="0.50385">
        <ele>29.4</ele>
        <time>2022-05-24 14:38:06</time>
      </trkpt>
      <trkpt lat="40.91917" lon="0.50393">
        <ele>29.4</ele>
        <time>2022-05-24 14:38:07</time>
      </trkpt>
      <trkpt lat="40.91912" lon="0.50398">
        <ele>29.4</ele>
        <time>2022-05-24 14:38:08</time>
      </trkpt>
      <trkpt lat="40.91906" lon="0.50403">
        <ele>29.6</ele>
        <time>2022-05-24 14:38:09</time>
      </trkpt>
      <trkpt lat="40.91901" lon="0.50406">
        <ele>29.8</ele>
        <time>2022-05-24 14:38:10</time>
      </trkpt>
      <trkpt lat="40.91895" lon="0.50409">
        <ele>30</ele>
        <time>2022-05-24 14:38:11</time>
      </trkpt>
      <trkpt lat="40.91889" lon="0.5041">
        <ele>30</ele>
        <time>2022-05-24 14:38:12</time>
      </trkpt>
      <trkpt lat="40.91882" lon="0.50412">
        <ele>30</ele>
        <time>2022-05-24 14:38:13</time>
      </trkpt>
      <trkpt lat="40.91876" lon="0.50414">
        <ele>30.2</ele>
        <time>2022-05-24 14:38:14</time>
      </trkpt>
      <trkpt lat="40.9187" lon="0.50415">
        <ele>30</ele>
        <time>2022-05-24 14:38:15</time>
      </trkpt>
      <trkpt lat="40.91864" lon="0.50416">
        <ele>30</ele>
        <time>2022-05-24 14:38:16</time>
      </trkpt>
      <trkpt lat="40.91856" lon="0.50417">
        <ele>29.8</ele>
        <time>2022-05-24 14:38:17</time>
      </trkpt>
      <trkpt lat="40.9185" lon="0.50418">
        <ele>29.8</ele>
        <time>2022-05-24 14:38:18</time>
      </trkpt>
      <trkpt lat="40.91843" lon="0.50419">
        <ele>29.8</ele>
        <time>2022-05-24 14:38:19</time>
      </trkpt>
      <trkpt lat="40.91838" lon="0.50421">
        <ele>29.8</ele>
        <time>2022-05-24 14:38:20</time>
      </trkpt>
      <trkpt lat="40.91831" lon="0.50424">
        <ele>29.6</ele>
        <time>2022-05-24 14:38:21</time>
      </trkpt>
      <trkpt lat="40.91825" lon="0.50428">
        <ele>29.6</ele>
        <time>2022-05-24 14:38:22</time>
      </trkpt>
      <trkpt lat="40.9182" lon="0.50431">
        <ele>29.6</ele>
        <time>2022-05-24 14:38:23</time>
      </trkpt>
      <trkpt lat="40.91814" lon="0.50435">
        <ele>29.4</ele>
        <time>2022-05-24 14:38:24</time>
      </trkpt>
      <trkpt lat="40.91808" lon="0.5044">
        <ele>29.2</ele>
        <time>2022-05-24 14:38:25</time>
      </trkpt>
      <trkpt lat="40.91804" lon="0.50445">
        <ele>29.2</ele>
        <time>2022-05-24 14:38:26</time>
      </trkpt>
      <trkpt lat="40.91798" lon="0.50451">
        <ele>29</ele>
        <time>2022-05-24 14:38:27</time>
      </trkpt>
      <trkpt lat="40.91794" lon="0.50456">
        <ele>28.8</ele>
        <time>2022-05-24 14:38:28</time>
      </trkpt>
      <trkpt lat="40.91789" lon="0.50463">
        <ele>28.8</ele>
        <time>2022-05-24 14:38:29</time>
      </trkpt>
      <trkpt lat="40.91785" lon="0.50468">
        <ele>28.6</ele>
        <time>2022-05-24 14:38:30</time>
      </trkpt>
      <trkpt lat="40.9178" lon="0.50475">
        <ele>28.4</ele>
        <time>2022-05-24 14:38:31</time>
      </trkpt>
      <trkpt lat="40.91776" lon="0.50482">
        <ele>28.4</ele>
        <time>2022-05-24 14:38:32</time>
      </trkpt>
      <trkpt lat="40.91772" lon="0.50489">
        <ele>28.2</ele>
        <time>2022-05-24 14:38:33</time>
      </trkpt>
      <trkpt lat="40.91768" lon="0.50495">
        <ele>28</ele>
        <time>2022-05-24 14:38:34</time>
      </trkpt>
      <trkpt lat="40.91765" lon="0.505">
        <ele>27.6</ele>
        <time>2022-05-24 14:38:35</time>
      </trkpt>
      <trkpt lat="40.91761" lon="0.50508">
        <ele>27.6</ele>
        <time>2022-05-24 14:38:36</time>
      </trkpt>
      <trkpt lat="40.91756" lon="0.50518">
        <ele>27.4</ele>
        <time>2022-05-24 14:38:37</time>
      </trkpt>
      <trkpt lat="40.91753" lon="0.50523">
        <ele>27.4</ele>
        <time>2022-05-24 14:38:38</time>
      </trkpt>
      <trkpt lat="40.91749" lon="0.50531">
        <ele>27.4</ele>
        <time>2022-05-24 14:38:39</time>
      </trkpt>
      <trkpt lat="40.91745" lon="0.50537">
        <ele>27.4</ele>
        <time>2022-05-24 14:38:40</time>
      </trkpt>
      <trkpt lat="40.91742" lon="0.50543">
        <ele>27.4</ele>
        <time>2022-05-24 14:38:41</time>
      </trkpt>
      <trkpt lat="40.91739" lon="0.50548">
        <ele>27.6</ele>
        <time>2022-05-24 14:38:42</time>
      </trkpt>
      <trkpt lat="40.91734" lon="0.50556">
        <ele>27.6</ele>
        <time>2022-05-24 14:38:43</time>
      </trkpt>
      <trkpt lat="40.91731" lon="0.50562">
        <ele>27.6</ele>
        <time>2022-05-24 14:38:44</time>
      </trkpt>
      <trkpt lat="40.91726" lon="0.50569">
        <ele>27.6</ele>
        <time>2022-05-24 14:38:45</time>
      </trkpt>
      <trkpt lat="40.91723" lon="0.50576">
        <ele>27.6</ele>
        <time>2022-05-24 14:38:46</time>
      </trkpt>
      <trkpt lat="40.91719" lon="0.50582">
        <ele>27.6</ele>
        <time>2022-05-24 14:38:47</time>
      </trkpt>
      <trkpt lat="40.91716" lon="0.50588">
        <ele>27.6</ele>
        <time>2022-05-24 14:38:48</time>
      </trkpt>
      <trkpt lat="40.91713" lon="0.50595">
        <ele>27.6</ele>
        <time>2022-05-24 14:38:49</time>
      </trkpt>
      <trkpt lat="40.9171" lon="0.506">
        <ele>27.6</ele>
        <time>2022-05-24 14:38:50</time>
      </trkpt>
      <trkpt lat="40.91705" lon="0.50607">
        <ele>27.6</ele>
        <time>2022-05-24 14:38:51</time>
      </trkpt>
      <trkpt lat="40.91702" lon="0.50613">
        <ele>27.6</ele>
        <time>2022-05-24 14:38:52</time>
      </trkpt>
      <trkpt lat="40.91698" lon="0.5062">
        <ele>27.6</ele>
        <time>2022-05-24 14:38:53</time>
      </trkpt>
      <trkpt lat="40.91695" lon="0.50624">
        <ele>27.6</ele>
        <time>2022-05-24 14:38:54</time>
      </trkpt>
      <trkpt lat="40.91691" lon="0.50632">
        <ele>27.6</ele>
        <time>2022-05-24 14:38:55</time>
      </trkpt>
      <trkpt lat="40.91688" lon="0.50637">
        <ele>27.6</ele>
        <time>2022-05-24 14:38:56</time>
      </trkpt>
      <trkpt lat="40.91684" lon="0.50645">
        <ele>27.6</ele>
        <time>2022-05-24 14:38:57</time>
      </trkpt>
      <trkpt lat="40.91681" lon="0.5065">
        <ele>27.6</ele>
        <time>2022-05-24 14:38:58</time>
      </trkpt>
      <trkpt lat="40.91678" lon="0.50658">
        <ele>27.6</ele>
        <time>2022-05-24 14:38:59</time>
      </trkpt>
      <trkpt lat="40.91675" lon="0.50663">
        <ele>27.6</ele>
        <time>2022-05-24 14:39:00</time>
      </trkpt>
      <trkpt lat="40.91671" lon="0.5067">
        <ele>27.6</ele>
        <time>2022-05-24 14:39:01</time>
      </trkpt>
      <trkpt lat="40.91669" lon="0.50676">
        <ele>27.4</ele>
        <time>2022-05-24 14:39:02</time>
      </trkpt>
      <trkpt lat="40.91666" lon="0.50684">
        <ele>27.4</ele>
        <time>2022-05-24 14:39:03</time>
      </trkpt>
      <trkpt lat="40.91663" lon="0.50689">
        <ele>27.4</ele>
        <time>2022-05-24 14:39:04</time>
      </trkpt>
      <trkpt lat="40.9166" lon="0.50697">
        <ele>27.2</ele>
        <time>2022-05-24 14:39:05</time>
      </trkpt>
      <trkpt lat="40.91657" lon="0.50702">
        <ele>27.2</ele>
        <time>2022-05-24 14:39:06</time>
      </trkpt>
      <trkpt lat="40.91654" lon="0.5071">
        <ele>27.2</ele>
        <time>2022-05-24 14:39:07</time>
      </trkpt>
      <trkpt lat="40.91652" lon="0.50716">
        <ele>27.2</ele>
        <time>2022-05-24 14:39:08</time>
      </trkpt>
      <trkpt lat="40.91648" lon="0.50723">
        <ele>27.2</ele>
        <time>2022-05-24 14:39:09</time>
      </trkpt>
      <trkpt lat="40.91646" lon="0.50728">
        <ele>27.2</ele>
        <time>2022-05-24 14:39:10</time>
      </trkpt>
      <trkpt lat="40.91644" lon="0.50737">
        <ele>27.2</ele>
        <time>2022-05-24 14:39:11</time>
      </trkpt>
      <trkpt lat="40.91641" lon="0.50742">
        <ele>27.4</ele>
        <time>2022-05-24 14:39:12</time>
      </trkpt>
      <trkpt lat="40.91638" lon="0.5075">
        <ele>27.4</ele>
        <time>2022-05-24 14:39:13</time>
      </trkpt>
      <trkpt lat="40.91636" lon="0.50756">
        <ele>27.4</ele>
        <time>2022-05-24 14:39:14</time>
      </trkpt>
      <trkpt lat="40.91632" lon="0.50763">
        <ele>27.2</ele>
        <time>2022-05-24 14:39:15</time>
      </trkpt>
      <trkpt lat="40.91629" lon="0.50768">
        <ele>27.2</ele>
        <time>2022-05-24 14:39:16</time>
      </trkpt>
      <trkpt lat="40.91624" lon="0.50776">
        <ele>27</ele>
        <time>2022-05-24 14:39:17</time>
      </trkpt>
      <trkpt lat="40.91621" lon="0.5078">
        <ele>27</ele>
        <time>2022-05-24 14:39:18</time>
      </trkpt>
      <trkpt lat="40.91617" lon="0.50787">
        <ele>27</ele>
        <time>2022-05-24 14:39:19</time>
      </trkpt>
      <trkpt lat="40.91614" lon="0.50792">
        <ele>26.8</ele>
        <time>2022-05-24 14:39:20</time>
      </trkpt>
      <trkpt lat="40.91608" lon="0.50798">
        <ele>26.8</ele>
        <time>2022-05-24 14:39:21</time>
      </trkpt>
      <trkpt lat="40.91605" lon="0.50802">
        <ele>26.8</ele>
        <time>2022-05-24 14:39:22</time>
      </trkpt>
      <trkpt lat="40.91599" lon="0.50808">
        <ele>26.8</ele>
        <time>2022-05-24 14:39:23</time>
      </trkpt>
      <trkpt lat="40.91595" lon="0.50813">
        <ele>26.8</ele>
        <time>2022-05-24 14:39:24</time>
      </trkpt>
      <trkpt lat="40.9159" lon="0.50819">
        <ele>26.8</ele>
        <time>2022-05-24 14:39:25</time>
      </trkpt>
      <trkpt lat="40.91587" lon="0.50823">
        <ele>26.8</ele>
        <time>2022-05-24 14:39:26</time>
      </trkpt>
      <trkpt lat="40.91581" lon="0.5083">
        <ele>26.8</ele>
        <time>2022-05-24 14:39:27</time>
      </trkpt>
      <trkpt lat="40.91578" lon="0.50834">
        <ele>26.8</ele>
        <time>2022-05-24 14:39:28</time>
      </trkpt>
      <trkpt lat="40.91573" lon="0.50841">
        <ele>26.6</ele>
        <time>2022-05-24 14:39:29</time>
      </trkpt>
      <trkpt lat="40.9157" lon="0.50845">
        <ele>26.6</ele>
        <time>2022-05-24 14:39:30</time>
      </trkpt>
      <trkpt lat="40.91565" lon="0.50852">
        <ele>26.6</ele>
        <time>2022-05-24 14:39:31</time>
      </trkpt>
      <trkpt lat="40.91562" lon="0.50856">
        <ele>26.6</ele>
        <time>2022-05-24 14:39:32</time>
      </trkpt>
      <trkpt lat="40.91557" lon="0.50864">
        <ele>26.6</ele>
        <time>2022-05-24 14:39:33</time>
      </trkpt>
      <trkpt lat="40.91554" lon="0.50868">
        <ele>26.6</ele>
        <time>2022-05-24 14:39:34</time>
      </trkpt>
      <trkpt lat="40.9155" lon="0.50875">
        <ele>26.4</ele>
        <time>2022-05-24 14:39:35</time>
      </trkpt>
      <trkpt lat="40.91547" lon="0.5088">
        <ele>26.4</ele>
        <time>2022-05-24 14:39:36</time>
      </trkpt>
      <trkpt lat="40.91542" lon="0.50888">
        <ele>26.4</ele>
        <time>2022-05-24 14:39:37</time>
      </trkpt>
      <trkpt lat="40.9154" lon="0.50892">
        <ele>26.4</ele>
        <time>2022-05-24 14:39:38</time>
      </trkpt>
      <trkpt lat="40.91535" lon="0.509">
        <ele>26.4</ele>
        <time>2022-05-24 14:39:39</time>
      </trkpt>
      <trkpt lat="40.91533" lon="0.50904">
        <ele>26.4</ele>
        <time>2022-05-24 14:39:40</time>
      </trkpt>
      <trkpt lat="40.91528" lon="0.50911">
        <ele>26.4</ele>
        <time>2022-05-24 14:39:41</time>
      </trkpt>
      <trkpt lat="40.91525" lon="0.50916">
        <ele>26.2</ele>
        <time>2022-05-24 14:39:42</time>
      </trkpt>
      <trkpt lat="40.9152" lon="0.50923">
        <ele>26.2</ele>
        <time>2022-05-24 14:39:43</time>
      </trkpt>
      <trkpt lat="40.91518" lon="0.50928">
        <ele>26.2</ele>
        <time>2022-05-24 14:39:44</time>
      </trkpt>
      <trkpt lat="40.91513" lon="0.50935">
        <ele>26.2</ele>
        <time>2022-05-24 14:39:45</time>
      </trkpt>
      <trkpt lat="40.91511" lon="0.5094">
        <ele>26.2</ele>
        <time>2022-05-24 14:39:46</time>
      </trkpt>
      <trkpt lat="40.91507" lon="0.50947">
        <ele>26.2</ele>
        <time>2022-05-24 14:39:47</time>
      </trkpt>
      <trkpt lat="40.91504" lon="0.50952">
        <ele>26.2</ele>
        <time>2022-05-24 14:39:48</time>
      </trkpt>
      <trkpt lat="40.91499" lon="0.50959">
        <ele>26.2</ele>
        <time>2022-05-24 14:39:49</time>
      </trkpt>
      <trkpt lat="40.91497" lon="0.50964">
        <ele>26.2</ele>
        <time>2022-05-24 14:39:50</time>
      </trkpt>
      <trkpt lat="40.91492" lon="0.5097">
        <ele>26.2</ele>
        <time>2022-05-24 14:39:51</time>
      </trkpt>
      <trkpt lat="40.91489" lon="0.50975">
        <ele>26.2</ele>
        <time>2022-05-24 14:39:52</time>
      </trkpt>
      <trkpt lat="40.91485" lon="0.50981">
        <ele>26.2</ele>
        <time>2022-05-24 14:39:53</time>
      </trkpt>
      <trkpt lat="40.91483" lon="0.50986">
        <ele>26.4</ele>
        <time>2022-05-24 14:39:54</time>
      </trkpt>
      <trkpt lat="40.91478" lon="0.50993">
        <ele>26.4</ele>
        <time>2022-05-24 14:39:55</time>
      </trkpt>
      <trkpt lat="40.91476" lon="0.50997">
        <ele>26.4</ele>
        <time>2022-05-24 14:39:56</time>
      </trkpt>
      <trkpt lat="40.91471" lon="0.51004">
        <ele>26.4</ele>
        <time>2022-05-24 14:39:57</time>
      </trkpt>
      <trkpt lat="40.91469" lon="0.51008">
        <ele>26.4</ele>
        <time>2022-05-24 14:39:58</time>
      </trkpt>
      <trkpt lat="40.91464" lon="0.51014">
        <ele>26.4</ele>
        <time>2022-05-24 14:39:59</time>
      </trkpt>
      <trkpt lat="40.91461" lon="0.51018">
        <ele>26.4</ele>
        <time>2022-05-24 14:40:00</time>
      </trkpt>
      <trkpt lat="40.91457" lon="0.51025">
        <ele>26.4</ele>
        <time>2022-05-24 14:40:01</time>
      </trkpt>
      <trkpt lat="40.91455" lon="0.51029">
        <ele>26.4</ele>
        <time>2022-05-24 14:40:02</time>
      </trkpt>
      <trkpt lat="40.91451" lon="0.51036">
        <ele>26.4</ele>
        <time>2022-05-24 14:40:03</time>
      </trkpt>
      <trkpt lat="40.91448" lon="0.5104">
        <ele>26.4</ele>
        <time>2022-05-24 14:40:04</time>
      </trkpt>
      <trkpt lat="40.91444" lon="0.51047">
        <ele>26.6</ele>
        <time>2022-05-24 14:40:05</time>
      </trkpt>
      <trkpt lat="40.91441" lon="0.51051">
        <ele>26.6</ele>
        <time>2022-05-24 14:40:06</time>
      </trkpt>
      <trkpt lat="40.91436" lon="0.51057">
        <ele>26.6</ele>
        <time>2022-05-24 14:40:07</time>
      </trkpt>
      <trkpt lat="40.91433" lon="0.51061">
        <ele>26.6</ele>
        <time>2022-05-24 14:40:08</time>
      </trkpt>
      <trkpt lat="40.91429" lon="0.51067">
        <ele>26.6</ele>
        <time>2022-05-24 14:40:09</time>
      </trkpt>
      <trkpt lat="40.91426" lon="0.51071">
        <ele>26.6</ele>
        <time>2022-05-24 14:40:10</time>
      </trkpt>
      <trkpt lat="40.91421" lon="0.51077">
        <ele>26.6</ele>
        <time>2022-05-24 14:40:11</time>
      </trkpt>
      <trkpt lat="40.91418" lon="0.5108">
        <ele>26.4</ele>
        <time>2022-05-24 14:40:12</time>
      </trkpt>
      <trkpt lat="40.91413" lon="0.51086">
        <ele>26.4</ele>
        <time>2022-05-24 14:40:13</time>
      </trkpt>
      <trkpt lat="40.91409" lon="0.5109">
        <ele>26.4</ele>
        <time>2022-05-24 14:40:14</time>
      </trkpt>
      <trkpt lat="40.91404" lon="0.51095">
        <ele>26.4</ele>
        <time>2022-05-24 14:40:15</time>
      </trkpt>
      <trkpt lat="40.914" lon="0.51098">
        <ele>26.4</ele>
        <time>2022-05-24 14:40:16</time>
      </trkpt>
      <trkpt lat="40.91395" lon="0.51103">
        <ele>26.4</ele>
        <time>2022-05-24 14:40:17</time>
      </trkpt>
      <trkpt lat="40.91392" lon="0.51106">
        <ele>26.4</ele>
        <time>2022-05-24 14:40:18</time>
      </trkpt>
      <trkpt lat="40.91387" lon="0.51111">
        <ele>26.6</ele>
        <time>2022-05-24 14:40:19</time>
      </trkpt>
      <trkpt lat="40.91384" lon="0.51113">
        <ele>26.6</ele>
        <time>2022-05-24 14:40:20</time>
      </trkpt>
      <trkpt lat="40.91378" lon="0.51117">
        <ele>26.6</ele>
        <time>2022-05-24 14:40:21</time>
      </trkpt>
      <trkpt lat="40.91374" lon="0.51119">
        <ele>26.6</ele>
        <time>2022-05-24 14:40:22</time>
      </trkpt>
      <trkpt lat="40.91368" lon="0.51121">
        <ele>26.8</ele>
        <time>2022-05-24 14:40:23</time>
      </trkpt>
      <trkpt lat="40.91364" lon="0.51123">
        <ele>26.8</ele>
        <time>2022-05-24 14:40:24</time>
      </trkpt>
      <trkpt lat="40.91358" lon="0.51125">
        <ele>26.8</ele>
        <time>2022-05-24 14:40:25</time>
      </trkpt>
      <trkpt lat="40.91354" lon="0.51127">
        <ele>26.8</ele>
        <time>2022-05-24 14:40:26</time>
      </trkpt>
      <trkpt lat="40.91348" lon="0.5113">
        <ele>26.8</ele>
        <time>2022-05-24 14:40:27</time>
      </trkpt>
      <trkpt lat="40.91344" lon="0.51132">
        <ele>26.8</ele>
        <time>2022-05-24 14:40:28</time>
      </trkpt>
      <trkpt lat="40.91337" lon="0.51135">
        <ele>26.8</ele>
        <time>2022-05-24 14:40:29</time>
      </trkpt>
      <trkpt lat="40.91333" lon="0.51137">
        <ele>26.8</ele>
        <time>2022-05-24 14:40:30</time>
      </trkpt>
      <trkpt lat="40.91327" lon="0.5114">
        <ele>26.8</ele>
        <time>2022-05-24 14:40:31</time>
      </trkpt>
      <trkpt lat="40.91323" lon="0.51141">
        <ele>27</ele>
        <time>2022-05-24 14:40:32</time>
      </trkpt>
      <trkpt lat="40.91316" lon="0.51144">
        <ele>27</ele>
        <time>2022-05-24 14:40:33</time>
      </trkpt>
      <trkpt lat="40.91312" lon="0.51145">
        <ele>27</ele>
        <time>2022-05-24 14:40:34</time>
      </trkpt>
      <trkpt lat="40.91305" lon="0.51148">
        <ele>27</ele>
        <time>2022-05-24 14:40:35</time>
      </trkpt>
      <trkpt lat="40.91301" lon="0.5115">
        <ele>27</ele>
        <time>2022-05-24 14:40:36</time>
      </trkpt>
      <trkpt lat="40.91295" lon="0.51153">
        <ele>27</ele>
        <time>2022-05-24 14:40:37</time>
      </trkpt>
      <trkpt lat="40.91291" lon="0.51154">
        <ele>27</ele>
        <time>2022-05-24 14:40:38</time>
      </trkpt>
      <trkpt lat="40.91285" lon="0.51157">
        <ele>27</ele>
        <time>2022-05-24 14:40:39</time>
      </trkpt>
      <trkpt lat="40.91281" lon="0.51159">
        <ele>27.2</ele>
        <time>2022-05-24 14:40:40</time>
      </trkpt>
      <trkpt lat="40.91276" lon="0.51161">
        <ele>27.2</ele>
        <time>2022-05-24 14:40:41</time>
      </trkpt>
      <trkpt lat="40.91271" lon="0.51164">
        <ele>27.2</ele>
        <time>2022-05-24 14:40:42</time>
      </trkpt>
      <trkpt lat="40.91266" lon="0.51166">
        <ele>27.2</ele>
        <time>2022-05-24 14:40:43</time>
      </trkpt>
      <trkpt lat="40.9126" lon="0.51169">
        <ele>27.2</ele>
        <time>2022-05-24 14:40:44</time>
      </trkpt>
      <trkpt lat="40.91257" lon="0.51171">
        <ele>27.4</ele>
        <time>2022-05-24 14:40:45</time>
      </trkpt>
      <trkpt lat="40.91252" lon="0.51174">
        <ele>27.4</ele>
        <time>2022-05-24 14:40:46</time>
      </trkpt>
      <trkpt lat="40.91248" lon="0.51176">
        <ele>27.6</ele>
        <time>2022-05-24 14:40:47</time>
      </trkpt>
      <trkpt lat="40.91243" lon="0.51178">
        <ele>27.6</ele>
        <time>2022-05-24 14:40:48</time>
      </trkpt>
      <trkpt lat="40.9124" lon="0.5118">
        <ele>27.8</ele>
        <time>2022-05-24 14:40:49</time>
      </trkpt>
      <trkpt lat="40.91237" lon="0.51181">
        <ele>27.8</ele>
        <time>2022-05-24 14:40:50</time>
      </trkpt>
      <trkpt lat="40.91232" lon="0.51183">
        <ele>28</ele>
        <time>2022-05-24 14:40:51</time>
      </trkpt>
      <trkpt lat="40.91229" lon="0.51185">
        <ele>28</ele>
        <time>2022-05-24 14:40:52</time>
      </trkpt>
      <trkpt lat="40.91226" lon="0.51187">
        <ele>28</ele>
        <time>2022-05-24 14:40:53</time>
      </trkpt>
      <trkpt lat="40.91222" lon="0.51189">
        <ele>28.2</ele>
        <time>2022-05-24 14:40:54</time>
      </trkpt>
      <trkpt lat="40.91219" lon="0.51191">
        <ele>28.2</ele>
        <time>2022-05-24 14:40:55</time>
      </trkpt>
      <trkpt lat="40.91217" lon="0.51192">
        <ele>28.4</ele>
        <time>2022-05-24 14:40:56</time>
      </trkpt>
      <trkpt lat="40.91214" lon="0.51194">
        <ele>28.4</ele>
        <time>2022-05-24 14:40:57</time>
      </trkpt>
      <trkpt lat="40.91212" lon="0.51195">
        <ele>28.6</ele>
        <time>2022-05-24 14:40:58</time>
      </trkpt>
      <trkpt lat="40.91209" lon="0.51195">
        <ele>28.6</ele>
        <time>2022-05-24 14:40:59</time>
      </trkpt>
      <trkpt lat="40.91208" lon="0.51196">
        <ele>28.6</ele>
        <time>2022-05-24 14:41:00</time>
      </trkpt>
      <trkpt lat="40.91206" lon="0.51197">
        <ele>28.8</ele>
        <time>2022-05-24 14:41:01</time>
      </trkpt>
      <trkpt lat="40.91204" lon="0.51198">
        <ele>28.8</ele>
        <time>2022-05-24 14:41:02</time>
      </trkpt>
      <trkpt lat="40.91203" lon="0.51198">
        <ele>28.8</ele>
        <time>2022-05-24 14:41:03</time>
      </trkpt>
      <trkpt lat="40.91199" lon="0.512">
        <ele>29.2</ele>
        <time>2022-05-24 14:41:04</time>
      </trkpt>
      <trkpt lat="40.91197" lon="0.51202">
        <ele>29.2</ele>
        <time>2022-05-24 14:41:52</time>
      </trkpt>
      <trkpt lat="40.91195" lon="0.51203">
        <ele>29.2</ele>
        <time>2022-05-24 14:41:53</time>
      </trkpt>
      <trkpt lat="40.91193" lon="0.51204">
        <ele>29.2</ele>
        <time>2022-05-24 14:41:54</time>
      </trkpt>
      <trkpt lat="40.9119" lon="0.51205">
        <ele>29</ele>
        <time>2022-05-24 14:41:55</time>
      </trkpt>
      <trkpt lat="40.91187" lon="0.51206">
        <ele>29</ele>
        <time>2022-05-24 14:41:56</time>
      </trkpt>
      <trkpt lat="40.91184" lon="0.51207">
        <ele>29</ele>
        <time>2022-05-24 14:41:57</time>
      </trkpt>
      <trkpt lat="40.91181" lon="0.51208">
        <ele>29</ele>
        <time>2022-05-24 14:41:58</time>
      </trkpt>
      <trkpt lat="40.91178" lon="0.51209">
        <ele>29</ele>
        <time>2022-05-24 14:41:59</time>
      </trkpt>
      <trkpt lat="40.91174" lon="0.5121">
        <ele>29</ele>
        <time>2022-05-24 14:42:00</time>
      </trkpt>
      <trkpt lat="40.91171" lon="0.5121">
        <ele>29</ele>
        <time>2022-05-24 14:42:01</time>
      </trkpt>
      <trkpt lat="40.91167" lon="0.51211">
        <ele>29</ele>
        <time>2022-05-24 14:42:02</time>
      </trkpt>
      <trkpt lat="40.91164" lon="0.51212">
        <ele>29.2</ele>
        <time>2022-05-24 14:42:03</time>
      </trkpt>
      <trkpt lat="40.9116" lon="0.51212">
        <ele>29.2</ele>
        <time>2022-05-24 14:42:04</time>
      </trkpt>
      <trkpt lat="40.91156" lon="0.51212">
        <ele>29.2</ele>
        <time>2022-05-24 14:42:05</time>
      </trkpt>
      <trkpt lat="40.91152" lon="0.51212">
        <ele>29.2</ele>
        <time>2022-05-24 14:42:06</time>
      </trkpt>
      <trkpt lat="40.91148" lon="0.51212">
        <ele>29.2</ele>
        <time>2022-05-24 14:42:07</time>
      </trkpt>
      <trkpt lat="40.91143" lon="0.51211">
        <ele>29.2</ele>
        <time>2022-05-24 14:42:08</time>
      </trkpt>
      <trkpt lat="40.91139" lon="0.5121">
        <ele>29.2</ele>
        <time>2022-05-24 14:42:09</time>
      </trkpt>
      <trkpt lat="40.91134" lon="0.51209">
        <ele>29.4</ele>
        <time>2022-05-24 14:42:10</time>
      </trkpt>
      <trkpt lat="40.9113" lon="0.51208">
        <ele>29.4</ele>
        <time>2022-05-24 14:42:11</time>
      </trkpt>
      <trkpt lat="40.91126" lon="0.51208">
        <ele>29.4</ele>
        <time>2022-05-24 14:42:12</time>
      </trkpt>
      <trkpt lat="40.9112" lon="0.51208">
        <ele>29.6</ele>
        <time>2022-05-24 14:42:13</time>
      </trkpt>
      <trkpt lat="40.91115" lon="0.51207">
        <ele>29.6</ele>
        <time>2022-05-24 14:42:14</time>
      </trkpt>
      <trkpt lat="40.91111" lon="0.51205">
        <ele>29.6</ele>
        <time>2022-05-24 14:42:15</time>
      </trkpt>
      <trkpt lat="40.91106" lon="0.51204">
        <ele>29.8</ele>
        <time>2022-05-24 14:42:16</time>
      </trkpt>
      <trkpt lat="40.91102" lon="0.51202">
        <ele>29.8</ele>
        <time>2022-05-24 14:42:17</time>
      </trkpt>
      <trkpt lat="40.91098" lon="0.51201">
        <ele>29.8</ele>
        <time>2022-05-24 14:42:18</time>
      </trkpt>
      <trkpt lat="40.91094" lon="0.512">
        <ele>29.8</ele>
        <time>2022-05-24 14:42:19</time>
      </trkpt>
      <trkpt lat="40.9109" lon="0.512">
        <ele>30</ele>
        <time>2022-05-24 14:42:20</time>
      </trkpt>
      <trkpt lat="40.91086" lon="0.51199">
        <ele>30</ele>
        <time>2022-05-24 14:42:21</time>
      </trkpt>
      <trkpt lat="40.91081" lon="0.51198">
        <ele>30</ele>
        <time>2022-05-24 14:42:22</time>
      </trkpt>
      <trkpt lat="40.91077" lon="0.51198">
        <ele>30</ele>
        <time>2022-05-24 14:42:23</time>
      </trkpt>
      <trkpt lat="40.91073" lon="0.51197">
        <ele>30</ele>
        <time>2022-05-24 14:42:24</time>
      </trkpt>
      <trkpt lat="40.91069" lon="0.51197">
        <ele>30</ele>
        <time>2022-05-24 14:42:25</time>
      </trkpt>
      <trkpt lat="40.91064" lon="0.51197">
        <ele>30</ele>
        <time>2022-05-24 14:42:26</time>
      </trkpt>
      <trkpt lat="40.9106" lon="0.51197">
        <ele>30</ele>
        <time>2022-05-24 14:42:27</time>
      </trkpt>
      <trkpt lat="40.91056" lon="0.51196">
        <ele>30.2</ele>
        <time>2022-05-24 14:42:28</time>
      </trkpt>
      <trkpt lat="40.91052" lon="0.51196">
        <ele>30.2</ele>
        <time>2022-05-24 14:42:29</time>
      </trkpt>
      <trkpt lat="40.91048" lon="0.51196">
        <ele>30.2</ele>
        <time>2022-05-24 14:42:30</time>
      </trkpt>
      <trkpt lat="40.91044" lon="0.51195">
        <ele>30.4</ele>
        <time>2022-05-24 14:42:31</time>
      </trkpt>
      <trkpt lat="40.9104" lon="0.51194">
        <ele>30.4</ele>
        <time>2022-05-24 14:42:32</time>
      </trkpt>
      <trkpt lat="40.91036" lon="0.51193">
        <ele>30.4</ele>
        <time>2022-05-24 14:42:33</time>
      </trkpt>
      <trkpt lat="40.91031" lon="0.51193">
        <ele>30.4</ele>
        <time>2022-05-24 14:42:34</time>
      </trkpt>
      <trkpt lat="40.91027" lon="0.51192">
        <ele>30.6</ele>
        <time>2022-05-24 14:42:35</time>
      </trkpt>
      <trkpt lat="40.91023" lon="0.51192">
        <ele>30.6</ele>
        <time>2022-05-24 14:42:36</time>
      </trkpt>
      <trkpt lat="40.91018" lon="0.51192">
        <ele>30.4</ele>
        <time>2022-05-24 14:42:37</time>
      </trkpt>
      <trkpt lat="40.91014" lon="0.51192">
        <ele>30.4</ele>
        <time>2022-05-24 14:42:38</time>
      </trkpt>
      <trkpt lat="40.91009" lon="0.51192">
        <ele>30.4</ele>
        <time>2022-05-24 14:42:39</time>
      </trkpt>
      <trkpt lat="40.91004" lon="0.51192">
        <ele>30.4</ele>
        <time>2022-05-24 14:42:40</time>
      </trkpt>
      <trkpt lat="40.91" lon="0.51192">
        <ele>30.2</ele>
        <time>2022-05-24 14:42:41</time>
      </trkpt>
      <trkpt lat="40.90995" lon="0.51192">
        <ele>30.2</ele>
        <time>2022-05-24 14:42:42</time>
      </trkpt>
      <trkpt lat="40.9099" lon="0.51193">
        <ele>30.2</ele>
        <time>2022-05-24 14:42:43</time>
      </trkpt>
      <trkpt lat="40.90985" lon="0.51193">
        <ele>30</ele>
        <time>2022-05-24 14:42:44</time>
      </trkpt>
      <trkpt lat="40.9098" lon="0.51192">
        <ele>30</ele>
        <time>2022-05-24 14:42:45</time>
      </trkpt>
      <trkpt lat="40.90974" lon="0.51192">
        <ele>29.8</ele>
        <time>2022-05-24 14:42:46</time>
      </trkpt>
      <trkpt lat="40.90969" lon="0.51191">
        <ele>29.8</ele>
        <time>2022-05-24 14:42:47</time>
      </trkpt>
      <trkpt lat="40.90964" lon="0.5119">
        <ele>29.6</ele>
        <time>2022-05-24 14:42:48</time>
      </trkpt>
      <trkpt lat="40.90959" lon="0.51188">
        <ele>29.6</ele>
        <time>2022-05-24 14:42:49</time>
      </trkpt>
      <trkpt lat="40.90953" lon="0.51186">
        <ele>29.4</ele>
        <time>2022-05-24 14:42:50</time>
      </trkpt>
      <trkpt lat="40.90948" lon="0.51184">
        <ele>29.2</ele>
        <time>2022-05-24 14:42:51</time>
      </trkpt>
      <trkpt lat="40.90943" lon="0.51182">
        <ele>29.2</ele>
        <time>2022-05-24 14:42:52</time>
      </trkpt>
      <trkpt lat="40.90938" lon="0.5118">
        <ele>29</ele>
        <time>2022-05-24 14:42:53</time>
      </trkpt>
      <trkpt lat="40.90932" lon="0.51178">
        <ele>28.8</ele>
        <time>2022-05-24 14:42:54</time>
      </trkpt>
      <trkpt lat="40.90926" lon="0.51176">
        <ele>28.6</ele>
        <time>2022-05-24 14:42:55</time>
      </trkpt>
      <trkpt lat="40.90921" lon="0.51173">
        <ele>28.6</ele>
        <time>2022-05-24 14:42:56</time>
      </trkpt>
      <trkpt lat="40.90916" lon="0.51171">
        <ele>28.4</ele>
        <time>2022-05-24 14:42:57</time>
      </trkpt>
      <trkpt lat="40.9091" lon="0.51169">
        <ele>28.4</ele>
        <time>2022-05-24 14:42:58</time>
      </trkpt>
      <trkpt lat="40.90904" lon="0.51166">
        <ele>28.2</ele>
        <time>2022-05-24 14:42:59</time>
      </trkpt>
      <trkpt lat="40.90899" lon="0.51164">
        <ele>28.2</ele>
        <time>2022-05-24 14:43:00</time>
      </trkpt>
      <trkpt lat="40.90894" lon="0.51162">
        <ele>28</ele>
        <time>2022-05-24 14:43:01</time>
      </trkpt>
      <trkpt lat="40.90888" lon="0.51159">
        <ele>28</ele>
        <time>2022-05-24 14:43:02</time>
      </trkpt>
      <trkpt lat="40.90883" lon="0.51158">
        <ele>27.8</ele>
        <time>2022-05-24 14:43:03</time>
      </trkpt>
      <trkpt lat="40.90878" lon="0.51156">
        <ele>27.8</ele>
        <time>2022-05-24 14:43:04</time>
      </trkpt>
      <trkpt lat="40.90873" lon="0.51155">
        <ele>27.6</ele>
        <time>2022-05-24 14:43:05</time>
      </trkpt>
      <trkpt lat="40.90867" lon="0.51153">
        <ele>27.6</ele>
        <time>2022-05-24 14:43:06</time>
      </trkpt>
      <trkpt lat="40.90862" lon="0.51151">
        <ele>27.4</ele>
        <time>2022-05-24 14:43:07</time>
      </trkpt>
      <trkpt lat="40.90856" lon="0.5115">
        <ele>27.4</ele>
        <time>2022-05-24 14:43:08</time>
      </trkpt>
      <trkpt lat="40.90851" lon="0.51149">
        <ele>27.4</ele>
        <time>2022-05-24 14:43:09</time>
      </trkpt>
      <trkpt lat="40.90846" lon="0.51148">
        <ele>27.2</ele>
        <time>2022-05-24 14:43:10</time>
      </trkpt>
      <trkpt lat="40.90841" lon="0.51148">
        <ele>27.2</ele>
        <time>2022-05-24 14:43:11</time>
      </trkpt>
      <trkpt lat="40.90836" lon="0.51148">
        <ele>27.2</ele>
        <time>2022-05-24 14:43:12</time>
      </trkpt>
      <trkpt lat="40.90831" lon="0.51147">
        <ele>27.2</ele>
        <time>2022-05-24 14:43:13</time>
      </trkpt>
      <trkpt lat="40.90825" lon="0.51146">
        <ele>27.2</ele>
        <time>2022-05-24 14:43:14</time>
      </trkpt>
      <trkpt lat="40.9082" lon="0.51145">
        <ele>27.2</ele>
        <time>2022-05-24 14:43:15</time>
      </trkpt>
      <trkpt lat="40.90815" lon="0.51144">
        <ele>27</ele>
        <time>2022-05-24 14:43:16</time>
      </trkpt>
      <trkpt lat="40.9081" lon="0.51143">
        <ele>26.8</ele>
        <time>2022-05-24 14:43:17</time>
      </trkpt>
      <trkpt lat="40.90804" lon="0.51142">
        <ele>26.8</ele>
        <time>2022-05-24 14:43:18</time>
      </trkpt>
      <trkpt lat="40.90798" lon="0.51142">
        <ele>26.6</ele>
        <time>2022-05-24 14:43:19</time>
      </trkpt>
      <trkpt lat="40.90793" lon="0.51141">
        <ele>26.6</ele>
        <time>2022-05-24 14:43:20</time>
      </trkpt>
      <trkpt lat="40.90787" lon="0.51139">
        <ele>26.6</ele>
        <time>2022-05-24 14:43:21</time>
      </trkpt>
      <trkpt lat="40.90782" lon="0.51137">
        <ele>26.6</ele>
        <time>2022-05-24 14:43:22</time>
      </trkpt>
      <trkpt lat="40.90776" lon="0.51136">
        <ele>26.8</ele>
        <time>2022-05-24 14:43:23</time>
      </trkpt>
      <trkpt lat="40.90771" lon="0.51134">
        <ele>26.8</ele>
        <time>2022-05-24 14:43:24</time>
      </trkpt>
      <trkpt lat="40.90766" lon="0.51133">
        <ele>26.8</ele>
        <time>2022-05-24 14:43:25</time>
      </trkpt>
      <trkpt lat="40.9076" lon="0.51131">
        <ele>26.8</ele>
        <time>2022-05-24 14:43:26</time>
      </trkpt>
      <trkpt lat="40.90755" lon="0.51131">
        <ele>26.8</ele>
        <time>2022-05-24 14:43:27</time>
      </trkpt>
      <trkpt lat="40.9075" lon="0.5113">
        <ele>27</ele>
        <time>2022-05-24 14:43:28</time>
      </trkpt>
      <trkpt lat="40.90744" lon="0.51129">
        <ele>27</ele>
        <time>2022-05-24 14:43:29</time>
      </trkpt>
      <trkpt lat="40.9074" lon="0.51128">
        <ele>27.2</ele>
        <time>2022-05-24 14:43:30</time>
      </trkpt>
      <trkpt lat="40.90735" lon="0.51127">
        <ele>27.2</ele>
        <time>2022-05-24 14:43:31</time>
      </trkpt>
      <trkpt lat="40.9073" lon="0.51126">
        <ele>27.2</ele>
        <time>2022-05-24 14:43:32</time>
      </trkpt>
      <trkpt lat="40.90724" lon="0.51124">
        <ele>27.4</ele>
        <time>2022-05-24 14:43:33</time>
      </trkpt>
      <trkpt lat="40.9072" lon="0.51123">
        <ele>27.4</ele>
        <time>2022-05-24 14:43:34</time>
      </trkpt>
      <trkpt lat="40.90714" lon="0.51122">
        <ele>27.4</ele>
        <time>2022-05-24 14:43:35</time>
      </trkpt>
      <trkpt lat="40.9071" lon="0.5112">
        <ele>27.4</ele>
        <time>2022-05-24 14:43:36</time>
      </trkpt>
      <trkpt lat="40.90705" lon="0.51119">
        <ele>27.4</ele>
        <time>2022-05-24 14:43:37</time>
      </trkpt>
      <trkpt lat="40.90701" lon="0.51118">
        <ele>27.6</ele>
        <time>2022-05-24 14:43:38</time>
      </trkpt>
      <trkpt lat="40.90697" lon="0.51117">
        <ele>27.6</ele>
        <time>2022-05-24 14:43:39</time>
      </trkpt>
      <trkpt lat="40.90691" lon="0.51116">
        <ele>27.6</ele>
        <time>2022-05-24 14:43:40</time>
      </trkpt>
      <trkpt lat="40.90687" lon="0.51114">
        <ele>27.4</ele>
        <time>2022-05-24 14:43:41</time>
      </trkpt>
      <trkpt lat="40.90682" lon="0.51113">
        <ele>27.4</ele>
        <time>2022-05-24 14:43:42</time>
      </trkpt>
      <trkpt lat="40.90678" lon="0.51111">
        <ele>27.4</ele>
        <time>2022-05-24 14:43:43</time>
      </trkpt>
      <trkpt lat="40.90673" lon="0.5111">
        <ele>27.4</ele>
        <time>2022-05-24 14:43:44</time>
      </trkpt>
      <trkpt lat="40.90668" lon="0.51109">
        <ele>27.4</ele>
        <time>2022-05-24 14:43:45</time>
      </trkpt>
      <trkpt lat="40.90664" lon="0.51108">
        <ele>27.4</ele>
        <time>2022-05-24 14:43:46</time>
      </trkpt>
      <trkpt lat="40.90659" lon="0.51108">
        <ele>27.4</ele>
        <time>2022-05-24 14:43:47</time>
      </trkpt>
      <trkpt lat="40.90654" lon="0.51107">
        <ele>27.4</ele>
        <time>2022-05-24 14:43:48</time>
      </trkpt>
      <trkpt lat="40.9065" lon="0.51107">
        <ele>27.4</ele>
        <time>2022-05-24 14:43:49</time>
      </trkpt>
      <trkpt lat="40.90645" lon="0.51106">
        <ele>27.4</ele>
        <time>2022-05-24 14:43:50</time>
      </trkpt>
      <trkpt lat="40.9064" lon="0.51105">
        <ele>27.4</ele>
        <time>2022-05-24 14:43:51</time>
      </trkpt>
      <trkpt lat="40.90635" lon="0.51105">
        <ele>27.4</ele>
        <time>2022-05-24 14:43:52</time>
      </trkpt>
      <trkpt lat="40.9063" lon="0.51104">
        <ele>27.4</ele>
        <time>2022-05-24 14:43:53</time>
      </trkpt>
      <trkpt lat="40.90626" lon="0.51104">
        <ele>27.2</ele>
        <time>2022-05-24 14:43:54</time>
      </trkpt>
      <trkpt lat="40.90621" lon="0.51103">
        <ele>27.2</ele>
        <time>2022-05-24 14:43:55</time>
      </trkpt>
      <trkpt lat="40.90616" lon="0.51102">
        <ele>27.2</ele>
        <time>2022-05-24 14:43:56</time>
      </trkpt>
      <trkpt lat="40.90611" lon="0.51101">
        <ele>27.2</ele>
        <time>2022-05-24 14:43:57</time>
      </trkpt>
      <trkpt lat="40.90606" lon="0.511">
        <ele>27.2</ele>
        <time>2022-05-24 14:43:58</time>
      </trkpt>
      <trkpt lat="40.90601" lon="0.51099">
        <ele>27.2</ele>
        <time>2022-05-24 14:43:59</time>
      </trkpt>
      <trkpt lat="40.90597" lon="0.51098">
        <ele>27.2</ele>
        <time>2022-05-24 14:44:00</time>
      </trkpt>
      <trkpt lat="40.90591" lon="0.51096">
        <ele>27.2</ele>
        <time>2022-05-24 14:44:01</time>
      </trkpt>
      <trkpt lat="40.90586" lon="0.51095">
        <ele>27.2</ele>
        <time>2022-05-24 14:44:02</time>
      </trkpt>
      <trkpt lat="40.90582" lon="0.51095">
        <ele>27.2</ele>
        <time>2022-05-24 14:44:03</time>
      </trkpt>
      <trkpt lat="40.90577" lon="0.51094">
        <ele>27.2</ele>
        <time>2022-05-24 14:44:04</time>
      </trkpt>
      <trkpt lat="40.90572" lon="0.51093">
        <ele>27.2</ele>
        <time>2022-05-24 14:44:05</time>
      </trkpt>
      <trkpt lat="40.90567" lon="0.51093">
        <ele>27.2</ele>
        <time>2022-05-24 14:44:06</time>
      </trkpt>
      <trkpt lat="40.90563" lon="0.51092">
        <ele>27.2</ele>
        <time>2022-05-24 14:44:07</time>
      </trkpt>
      <trkpt lat="40.90559" lon="0.51091">
        <ele>27.4</ele>
        <time>2022-05-24 14:44:08</time>
      </trkpt>
      <trkpt lat="40.90554" lon="0.51091">
        <ele>27.4</ele>
        <time>2022-05-24 14:44:09</time>
      </trkpt>
      <trkpt lat="40.90551" lon="0.51091">
        <ele>27.4</ele>
        <time>2022-05-24 14:44:10</time>
      </trkpt>
      <trkpt lat="40.90546" lon="0.5109">
        <ele>27.4</ele>
        <time>2022-05-24 14:44:11</time>
      </trkpt>
      <trkpt lat="40.90542" lon="0.51089">
        <ele>27.4</ele>
        <time>2022-05-24 14:44:12</time>
      </trkpt>
      <trkpt lat="40.90538" lon="0.51088">
        <ele>27.4</ele>
        <time>2022-05-24 14:44:13</time>
      </trkpt>
      <trkpt lat="40.90533" lon="0.51087">
        <ele>27.4</ele>
        <time>2022-05-24 14:44:14</time>
      </trkpt>
      <trkpt lat="40.90529" lon="0.51086">
        <ele>27.4</ele>
        <time>2022-05-24 14:44:15</time>
      </trkpt>
      <trkpt lat="40.90524" lon="0.51086">
        <ele>27.4</ele>
        <time>2022-05-24 14:44:16</time>
      </trkpt>
      <trkpt lat="40.9052" lon="0.51085">
        <ele>27.4</ele>
        <time>2022-05-24 14:44:17</time>
      </trkpt>
      <trkpt lat="40.90516" lon="0.51084">
        <ele>27.4</ele>
        <time>2022-05-24 14:44:18</time>
      </trkpt>
      <trkpt lat="40.90511" lon="0.51083">
        <ele>27.4</ele>
        <time>2022-05-24 14:44:19</time>
      </trkpt>
      <trkpt lat="40.90507" lon="0.51082">
        <ele>27.4</ele>
        <time>2022-05-24 14:44:20</time>
      </trkpt>
      <trkpt lat="40.90503" lon="0.5108">
        <ele>27.4</ele>
        <time>2022-05-24 14:44:21</time>
      </trkpt>
      <trkpt lat="40.90498" lon="0.5108">
        <ele>27.4</ele>
        <time>2022-05-24 14:44:22</time>
      </trkpt>
      <trkpt lat="40.90494" lon="0.5108">
        <ele>27.4</ele>
        <time>2022-05-24 14:44:23</time>
      </trkpt>
      <trkpt lat="40.9049" lon="0.5108">
        <ele>27.4</ele>
        <time>2022-05-24 14:44:24</time>
      </trkpt>
      <trkpt lat="40.90486" lon="0.51081">
        <ele>27.4</ele>
        <time>2022-05-24 14:44:25</time>
      </trkpt>
      <trkpt lat="40.90482" lon="0.51082">
        <ele>27.4</ele>
        <time>2022-05-24 14:44:26</time>
      </trkpt>
      <trkpt lat="40.90477" lon="0.51082">
        <ele>27.4</ele>
        <time>2022-05-24 14:44:27</time>
      </trkpt>
      <trkpt lat="40.90473" lon="0.51083">
        <ele>27.4</ele>
        <time>2022-05-24 14:44:28</time>
      </trkpt>
      <trkpt lat="40.90469" lon="0.51084">
        <ele>27.6</ele>
        <time>2022-05-24 14:44:29</time>
      </trkpt>
      <trkpt lat="40.90464" lon="0.51086">
        <ele>27.4</ele>
        <time>2022-05-24 14:44:30</time>
      </trkpt>
      <trkpt lat="40.9046" lon="0.51087">
        <ele>27.4</ele>
        <time>2022-05-24 14:44:31</time>
      </trkpt>
      <trkpt lat="40.90456" lon="0.51088">
        <ele>27.4</ele>
        <time>2022-05-24 14:44:32</time>
      </trkpt>
      <trkpt lat="40.90451" lon="0.51088">
        <ele>27.4</ele>
        <time>2022-05-24 14:44:33</time>
      </trkpt>
      <trkpt lat="40.90446" lon="0.51088">
        <ele>27.2</ele>
        <time>2022-05-24 14:44:34</time>
      </trkpt>
      <trkpt lat="40.90441" lon="0.51088">
        <ele>27.2</ele>
        <time>2022-05-24 14:44:35</time>
      </trkpt>
      <trkpt lat="40.90436" lon="0.51088">
        <ele>27.2</ele>
        <time>2022-05-24 14:44:36</time>
      </trkpt>
      <trkpt lat="40.90431" lon="0.51087">
        <ele>27.2</ele>
        <time>2022-05-24 14:44:37</time>
      </trkpt>
      <trkpt lat="40.90427" lon="0.51086">
        <ele>27</ele>
        <time>2022-05-24 14:44:38</time>
      </trkpt>
      <trkpt lat="40.90422" lon="0.51086">
        <ele>27</ele>
        <time>2022-05-24 14:44:39</time>
      </trkpt>
      <trkpt lat="40.90417" lon="0.51084">
        <ele>27</ele>
        <time>2022-05-24 14:44:40</time>
      </trkpt>
      <trkpt lat="40.90412" lon="0.51083">
        <ele>27</ele>
        <time>2022-05-24 14:44:41</time>
      </trkpt>
      <trkpt lat="40.90407" lon="0.51082">
        <ele>27</ele>
        <time>2022-05-24 14:44:42</time>
      </trkpt>
      <trkpt lat="40.90402" lon="0.51081">
        <ele>27</ele>
        <time>2022-05-24 14:44:43</time>
      </trkpt>
      <trkpt lat="40.90398" lon="0.51079">
        <ele>27</ele>
        <time>2022-05-24 14:44:44</time>
      </trkpt>
      <trkpt lat="40.90393" lon="0.51077">
        <ele>27</ele>
        <time>2022-05-24 14:44:45</time>
      </trkpt>
      <trkpt lat="40.90389" lon="0.51075">
        <ele>27</ele>
        <time>2022-05-24 14:44:46</time>
      </trkpt>
      <trkpt lat="40.90385" lon="0.51073">
        <ele>27</ele>
        <time>2022-05-24 14:44:47</time>
      </trkpt>
      <trkpt lat="40.9038" lon="0.5107">
        <ele>27</ele>
        <time>2022-05-24 14:44:48</time>
      </trkpt>
      <trkpt lat="40.90376" lon="0.51067">
        <ele>27</ele>
        <time>2022-05-24 14:44:49</time>
      </trkpt>
      <trkpt lat="40.90372" lon="0.51063">
        <ele>27.2</ele>
        <time>2022-05-24 14:44:50</time>
      </trkpt>
      <trkpt lat="40.90369" lon="0.5106">
        <ele>27.2</ele>
        <time>2022-05-24 14:44:51</time>
      </trkpt>
      <trkpt lat="40.90365" lon="0.51055">
        <ele>27.2</ele>
        <time>2022-05-24 14:44:52</time>
      </trkpt>
      <trkpt lat="40.90362" lon="0.51051">
        <ele>27</ele>
        <time>2022-05-24 14:44:53</time>
      </trkpt>
      <trkpt lat="40.90357" lon="0.51047">
        <ele>27</ele>
        <time>2022-05-24 14:44:54</time>
      </trkpt>
      <trkpt lat="40.90354" lon="0.51043">
        <ele>27</ele>
        <time>2022-05-24 14:44:55</time>
      </trkpt>
      <trkpt lat="40.9035" lon="0.51039">
        <ele>27</ele>
        <time>2022-05-24 14:44:56</time>
      </trkpt>
      <trkpt lat="40.90347" lon="0.51034">
        <ele>27</ele>
        <time>2022-05-24 14:44:57</time>
      </trkpt>
      <trkpt lat="40.90343" lon="0.51029">
        <ele>27</ele>
        <time>2022-05-24 14:44:58</time>
      </trkpt>
      <trkpt lat="40.9034" lon="0.51024">
        <ele>27</ele>
        <time>2022-05-24 14:44:59</time>
      </trkpt>
      <trkpt lat="40.90337" lon="0.51018">
        <ele>27</ele>
        <time>2022-05-24 14:45:00</time>
      </trkpt>
      <trkpt lat="40.90335" lon="0.51013">
        <ele>27</ele>
        <time>2022-05-24 14:45:01</time>
      </trkpt>
      <trkpt lat="40.90332" lon="0.51007">
        <ele>26.8</ele>
        <time>2022-05-24 14:45:02</time>
      </trkpt>
      <trkpt lat="40.9033" lon="0.51001">
        <ele>27</ele>
        <time>2022-05-24 14:45:03</time>
      </trkpt>
      <trkpt lat="40.90328" lon="0.50995">
        <ele>27</ele>
        <time>2022-05-24 14:45:04</time>
      </trkpt>
      <trkpt lat="40.90326" lon="0.50989">
        <ele>26.8</ele>
        <time>2022-05-24 14:45:05</time>
      </trkpt>
      <trkpt lat="40.90324" lon="0.50983">
        <ele>26.8</ele>
        <time>2022-05-24 14:45:06</time>
      </trkpt>
      <trkpt lat="40.90322" lon="0.50977">
        <ele>26.8</ele>
        <time>2022-05-24 14:45:07</time>
      </trkpt>
      <trkpt lat="40.9032" lon="0.5097">
        <ele>26.8</ele>
        <time>2022-05-24 14:45:08</time>
      </trkpt>
      <trkpt lat="40.90319" lon="0.50964">
        <ele>26.8</ele>
        <time>2022-05-24 14:45:09</time>
      </trkpt>
      <trkpt lat="40.90318" lon="0.50956">
        <ele>26.8</ele>
        <time>2022-05-24 14:45:10</time>
      </trkpt>
      <trkpt lat="40.90317" lon="0.5095">
        <ele>26.6</ele>
        <time>2022-05-24 14:45:11</time>
      </trkpt>
      <trkpt lat="40.90316" lon="0.50943">
        <ele>26.6</ele>
        <time>2022-05-24 14:45:12</time>
      </trkpt>
      <trkpt lat="40.90315" lon="0.50936">
        <ele>26.4</ele>
        <time>2022-05-24 14:45:13</time>
      </trkpt>
      <trkpt lat="40.90315" lon="0.50929">
        <ele>26.4</ele>
        <time>2022-05-24 14:45:14</time>
      </trkpt>
      <trkpt lat="40.90315" lon="0.50922">
        <ele>26.4</ele>
        <time>2022-05-24 14:45:15</time>
      </trkpt>
      <trkpt lat="40.90314" lon="0.50914">
        <ele>26.2</ele>
        <time>2022-05-24 14:45:16</time>
      </trkpt>
      <trkpt lat="40.90314" lon="0.50907">
        <ele>26.2</ele>
        <time>2022-05-24 14:45:17</time>
      </trkpt>
      <trkpt lat="40.90313" lon="0.50899">
        <ele>26</ele>
        <time>2022-05-24 14:45:18</time>
      </trkpt>
      <trkpt lat="40.90313" lon="0.50893">
        <ele>26</ele>
        <time>2022-05-24 14:45:19</time>
      </trkpt>
      <trkpt lat="40.90313" lon="0.50885">
        <ele>26</ele>
        <time>2022-05-24 14:45:20</time>
      </trkpt>
      <trkpt lat="40.90312" lon="0.50877">
        <ele>25.8</ele>
        <time>2022-05-24 14:45:21</time>
      </trkpt>
      <trkpt lat="40.90312" lon="0.50871">
        <ele>25.8</ele>
        <time>2022-05-24 14:45:22</time>
      </trkpt>
      <trkpt lat="40.90311" lon="0.50865">
        <ele>25.8</ele>
        <time>2022-05-24 14:45:23</time>
      </trkpt>
      <trkpt lat="40.90311" lon="0.50857">
        <ele>25.8</ele>
        <time>2022-05-24 14:45:24</time>
      </trkpt>
      <trkpt lat="40.90311" lon="0.5085">
        <ele>25.8</ele>
        <time>2022-05-24 14:45:25</time>
      </trkpt>
      <trkpt lat="40.9031" lon="0.50842">
        <ele>25.6</ele>
        <time>2022-05-24 14:45:26</time>
      </trkpt>
      <trkpt lat="40.9031" lon="0.50836">
        <ele>25.6</ele>
        <time>2022-05-24 14:45:27</time>
      </trkpt>
      <trkpt lat="40.9031" lon="0.50829">
        <ele>25.6</ele>
        <time>2022-05-24 14:45:28</time>
      </trkpt>
      <trkpt lat="40.9031" lon="0.50823">
        <ele>25.6</ele>
        <time>2022-05-24 14:45:29</time>
      </trkpt>
      <trkpt lat="40.90309" lon="0.50815">
        <ele>25.6</ele>
        <time>2022-05-24 14:45:30</time>
      </trkpt>
      <trkpt lat="40.90309" lon="0.5081">
        <ele>25.6</ele>
        <time>2022-05-24 14:45:31</time>
      </trkpt>
      <trkpt lat="40.90308" lon="0.50802">
        <ele>25.6</ele>
        <time>2022-05-24 14:45:32</time>
      </trkpt>
      <trkpt lat="40.90308" lon="0.50796">
        <ele>25.6</ele>
        <time>2022-05-24 14:45:33</time>
      </trkpt>
      <trkpt lat="40.90308" lon="0.50789">
        <ele>25.6</ele>
        <time>2022-05-24 14:45:34</time>
      </trkpt>
      <trkpt lat="40.90308" lon="0.50784">
        <ele>25.6</ele>
        <time>2022-05-24 14:45:35</time>
      </trkpt>
      <trkpt lat="40.90308" lon="0.50776">
        <ele>25.4</ele>
        <time>2022-05-24 14:45:36</time>
      </trkpt>
      <trkpt lat="40.90308" lon="0.5077">
        <ele>25.4</ele>
        <time>2022-05-24 14:45:37</time>
      </trkpt>
      <trkpt lat="40.90308" lon="0.50761">
        <ele>25.4</ele>
        <time>2022-05-24 14:45:38</time>
      </trkpt>
      <trkpt lat="40.90308" lon="0.50756">
        <ele>25.4</ele>
        <time>2022-05-24 14:45:39</time>
      </trkpt>
      <trkpt lat="40.90308" lon="0.50747">
        <ele>25.2</ele>
        <time>2022-05-24 14:45:40</time>
      </trkpt>
      <trkpt lat="40.90309" lon="0.50741">
        <ele>25.2</ele>
        <time>2022-05-24 14:45:41</time>
      </trkpt>
      <trkpt lat="40.9031" lon="0.50732">
        <ele>25.2</ele>
        <time>2022-05-24 14:45:42</time>
      </trkpt>
      <trkpt lat="40.90311" lon="0.50726">
        <ele>25</ele>
        <time>2022-05-24 14:45:43</time>
      </trkpt>
      <trkpt lat="40.90312" lon="0.50718">
        <ele>25</ele>
        <time>2022-05-24 14:45:44</time>
      </trkpt>
      <trkpt lat="40.90313" lon="0.50712">
        <ele>24.8</ele>
        <time>2022-05-24 14:45:45</time>
      </trkpt>
      <trkpt lat="40.90314" lon="0.50703">
        <ele>24.8</ele>
        <time>2022-05-24 14:45:46</time>
      </trkpt>
      <trkpt lat="40.90316" lon="0.50698">
        <ele>24.8</ele>
        <time>2022-05-24 14:45:47</time>
      </trkpt>
      <trkpt lat="40.90317" lon="0.50688">
        <ele>24.8</ele>
        <time>2022-05-24 14:45:48</time>
      </trkpt>
      <trkpt lat="40.90318" lon="0.50683">
        <ele>24.8</ele>
        <time>2022-05-24 14:45:49</time>
      </trkpt>
      <trkpt lat="40.90319" lon="0.50673">
        <ele>24.6</ele>
        <time>2022-05-24 14:45:50</time>
      </trkpt>
      <trkpt lat="40.9032" lon="0.50668">
        <ele>24.6</ele>
        <time>2022-05-24 14:45:51</time>
      </trkpt>
      <trkpt lat="40.90321" lon="0.50658">
        <ele>24.6</ele>
        <time>2022-05-24 14:45:52</time>
      </trkpt>
      <trkpt lat="40.90322" lon="0.50651">
        <ele>24.4</ele>
        <time>2022-05-24 14:45:53</time>
      </trkpt>
      <trkpt lat="40.90323" lon="0.50643">
        <ele>24.4</ele>
        <time>2022-05-24 14:45:54</time>
      </trkpt>
      <trkpt lat="40.90324" lon="0.50637">
        <ele>24.4</ele>
        <time>2022-05-24 14:45:55</time>
      </trkpt>
      <trkpt lat="40.90325" lon="0.50626">
        <ele>24.2</ele>
        <time>2022-05-24 14:45:56</time>
      </trkpt>
      <trkpt lat="40.90325" lon="0.50621">
        <ele>24.2</ele>
        <time>2022-05-24 14:45:57</time>
      </trkpt>
      <trkpt lat="40.90326" lon="0.50612">
        <ele>24.2</ele>
        <time>2022-05-24 14:45:58</time>
      </trkpt>
      <trkpt lat="40.90326" lon="0.50606">
        <ele>24.2</ele>
        <time>2022-05-24 14:45:59</time>
      </trkpt>
      <trkpt lat="40.90326" lon="0.50597">
        <ele>24.2</ele>
        <time>2022-05-24 14:46:00</time>
      </trkpt>
      <trkpt lat="40.90327" lon="0.50592">
        <ele>24.2</ele>
        <time>2022-05-24 14:46:01</time>
      </trkpt>
      <trkpt lat="40.90327" lon="0.50583">
        <ele>24</ele>
        <time>2022-05-24 14:46:02</time>
      </trkpt>
      <trkpt lat="40.90326" lon="0.50578">
        <ele>24</ele>
        <time>2022-05-24 14:46:03</time>
      </trkpt>
      <trkpt lat="40.90326" lon="0.50569">
        <ele>24</ele>
        <time>2022-05-24 14:46:04</time>
      </trkpt>
      <trkpt lat="40.90326" lon="0.50563">
        <ele>24</ele>
        <time>2022-05-24 14:46:05</time>
      </trkpt>
      <trkpt lat="40.90325" lon="0.50555">
        <ele>24</ele>
        <time>2022-05-24 14:46:06</time>
      </trkpt>
      <trkpt lat="40.90325" lon="0.50549">
        <ele>24</ele>
        <time>2022-05-24 14:46:07</time>
      </trkpt>
      <trkpt lat="40.90324" lon="0.50539">
        <ele>24</ele>
        <time>2022-05-24 14:46:08</time>
      </trkpt>
      <trkpt lat="40.90323" lon="0.50533">
        <ele>24</ele>
        <time>2022-05-24 14:46:09</time>
      </trkpt>
      <trkpt lat="40.90321" lon="0.50524">
        <ele>24</ele>
        <time>2022-05-24 14:46:10</time>
      </trkpt>
      <trkpt lat="40.9032" lon="0.50519">
        <ele>24</ele>
        <time>2022-05-24 14:46:11</time>
      </trkpt>
      <trkpt lat="40.90318" lon="0.50511">
        <ele>24</ele>
        <time>2022-05-24 14:46:12</time>
      </trkpt>
      <trkpt lat="40.90317" lon="0.50505">
        <ele>24</ele>
        <time>2022-05-24 14:46:13</time>
      </trkpt>
      <trkpt lat="40.90315" lon="0.50496">
        <ele>24</ele>
        <time>2022-05-24 14:46:14</time>
      </trkpt>
      <trkpt lat="40.90314" lon="0.50491">
        <ele>24</ele>
        <time>2022-05-24 14:46:15</time>
      </trkpt>
      <trkpt lat="40.90311" lon="0.50482">
        <ele>24</ele>
        <time>2022-05-24 14:46:16</time>
      </trkpt>
      <trkpt lat="40.9031" lon="0.50477">
        <ele>24</ele>
        <time>2022-05-24 14:46:17</time>
      </trkpt>
      <trkpt lat="40.90309" lon="0.5047">
        <ele>24</ele>
        <time>2022-05-24 14:46:18</time>
      </trkpt>
      <trkpt lat="40.90308" lon="0.50465">
        <ele>24</ele>
        <time>2022-05-24 14:46:19</time>
      </trkpt>
      <trkpt lat="40.90308" lon="0.50458">
        <ele>24</ele>
        <time>2022-05-24 14:46:20</time>
      </trkpt>
      <trkpt lat="40.90307" lon="0.50449">
        <ele>24</ele>
        <time>2022-05-24 14:46:21</time>
      </trkpt>
      <trkpt lat="40.90306" lon="0.50442">
        <ele>24</ele>
        <time>2022-05-24 14:46:22</time>
      </trkpt>
      <trkpt lat="40.90305" lon="0.50435">
        <ele>24</ele>
        <time>2022-05-24 14:46:23</time>
      </trkpt>
      <trkpt lat="40.90304" lon="0.50428">
        <ele>24</ele>
        <time>2022-05-24 14:46:24</time>
      </trkpt>
      <trkpt lat="40.90304" lon="0.50421">
        <ele>24</ele>
        <time>2022-05-24 14:46:25</time>
      </trkpt>
      <trkpt lat="40.90304" lon="0.50415">
        <ele>24</ele>
        <time>2022-05-24 14:46:26</time>
      </trkpt>
      <trkpt lat="40.90303" lon="0.50408">
        <ele>24</ele>
        <time>2022-05-24 14:46:27</time>
      </trkpt>
      <trkpt lat="40.90303" lon="0.50401">
        <ele>24</ele>
        <time>2022-05-24 14:46:28</time>
      </trkpt>
      <trkpt lat="40.90302" lon="0.50394">
        <ele>24</ele>
        <time>2022-05-24 14:46:29</time>
      </trkpt>
      <trkpt lat="40.90301" lon="0.50387">
        <ele>24</ele>
        <time>2022-05-24 14:46:30</time>
      </trkpt>
      <trkpt lat="40.903" lon="0.5038">
        <ele>24</ele>
        <time>2022-05-24 14:46:31</time>
      </trkpt>
      <trkpt lat="40.90299" lon="0.50373">
        <ele>24</ele>
        <time>2022-05-24 14:46:32</time>
      </trkpt>
      <trkpt lat="40.90298" lon="0.50365">
        <ele>24</ele>
        <time>2022-05-24 14:46:33</time>
      </trkpt>
      <trkpt lat="40.90297" lon="0.50357">
        <ele>24</ele>
        <time>2022-05-24 14:46:34</time>
      </trkpt>
      <trkpt lat="40.90297" lon="0.5035">
        <ele>24</ele>
        <time>2022-05-24 14:46:35</time>
      </trkpt>
      <trkpt lat="40.90296" lon="0.50343">
        <ele>24</ele>
        <time>2022-05-24 14:46:36</time>
      </trkpt>
      <trkpt lat="40.90295" lon="0.50336">
        <ele>24</ele>
        <time>2022-05-24 14:46:37</time>
      </trkpt>
      <trkpt lat="40.90294" lon="0.50329">
        <ele>24</ele>
        <time>2022-05-24 14:46:38</time>
      </trkpt>
      <trkpt lat="40.90293" lon="0.50322">
        <ele>24</ele>
        <time>2022-05-24 14:46:39</time>
      </trkpt>
      <trkpt lat="40.90292" lon="0.50314">
        <ele>24.2</ele>
        <time>2022-05-24 14:46:40</time>
      </trkpt>
      <trkpt lat="40.90291" lon="0.50307">
        <ele>24.2</ele>
        <time>2022-05-24 14:46:41</time>
      </trkpt>
      <trkpt lat="40.9029" lon="0.503">
        <ele>24.2</ele>
        <time>2022-05-24 14:46:42</time>
      </trkpt>
      <trkpt lat="40.90289" lon="0.50293">
        <ele>24.2</ele>
        <time>2022-05-24 14:46:43</time>
      </trkpt>
      <trkpt lat="40.90287" lon="0.50286">
        <ele>24.2</ele>
        <time>2022-05-24 14:46:44</time>
      </trkpt>
      <trkpt lat="40.90286" lon="0.50278">
        <ele>24.2</ele>
        <time>2022-05-24 14:46:45</time>
      </trkpt>
      <trkpt lat="40.90284" lon="0.50271">
        <ele>24.2</ele>
        <time>2022-05-24 14:46:46</time>
      </trkpt>
      <trkpt lat="40.90283" lon="0.50263">
        <ele>24.2</ele>
        <time>2022-05-24 14:46:47</time>
      </trkpt>
      <trkpt lat="40.90281" lon="0.50256">
        <ele>24.2</ele>
        <time>2022-05-24 14:46:48</time>
      </trkpt>
      <trkpt lat="40.90279" lon="0.50248">
        <ele>24.2</ele>
        <time>2022-05-24 14:46:49</time>
      </trkpt>
      <trkpt lat="40.90278" lon="0.50241">
        <ele>24.2</ele>
        <time>2022-05-24 14:46:50</time>
      </trkpt>
      <trkpt lat="40.90276" lon="0.50234">
        <ele>24.2</ele>
        <time>2022-05-24 14:46:51</time>
      </trkpt>
      <trkpt lat="40.90275" lon="0.50226">
        <ele>24.2</ele>
        <time>2022-05-24 14:46:52</time>
      </trkpt>
      <trkpt lat="40.90273" lon="0.50218">
        <ele>24.2</ele>
        <time>2022-05-24 14:46:53</time>
      </trkpt>
      <trkpt lat="40.90272" lon="0.50211">
        <ele>24.2</ele>
        <time>2022-05-24 14:46:54</time>
      </trkpt>
      <trkpt lat="40.90271" lon="0.50204">
        <ele>24.2</ele>
        <time>2022-05-24 14:46:55</time>
      </trkpt>
      <trkpt lat="40.90269" lon="0.50198">
        <ele>24.2</ele>
        <time>2022-05-24 14:46:56</time>
      </trkpt>
      <trkpt lat="40.90268" lon="0.50191">
        <ele>24.2</ele>
        <time>2022-05-24 14:46:57</time>
      </trkpt>
      <trkpt lat="40.90266" lon="0.50184">
        <ele>24.4</ele>
        <time>2022-05-24 14:46:58</time>
      </trkpt>
      <trkpt lat="40.90265" lon="0.50177">
        <ele>24.4</ele>
        <time>2022-05-24 14:46:59</time>
      </trkpt>
      <trkpt lat="40.90264" lon="0.5017">
        <ele>24.4</ele>
        <time>2022-05-24 14:47:00</time>
      </trkpt>
      <trkpt lat="40.90263" lon="0.50163">
        <ele>24.4</ele>
        <time>2022-05-24 14:47:01</time>
      </trkpt>
      <trkpt lat="40.90262" lon="0.50155">
        <ele>24.4</ele>
        <time>2022-05-24 14:47:02</time>
      </trkpt>
      <trkpt lat="40.9026" lon="0.50148">
        <ele>24.4</ele>
        <time>2022-05-24 14:47:03</time>
      </trkpt>
      <trkpt lat="40.90259" lon="0.50141">
        <ele>24.4</ele>
        <time>2022-05-24 14:47:04</time>
      </trkpt>
      <trkpt lat="40.90258" lon="0.50133">
        <ele>24.4</ele>
        <time>2022-05-24 14:47:05</time>
      </trkpt>
      <trkpt lat="40.90256" lon="0.50125">
        <ele>24.4</ele>
        <time>2022-05-24 14:47:06</time>
      </trkpt>
      <trkpt lat="40.90255" lon="0.50115">
        <ele>24.4</ele>
        <time>2022-05-24 14:47:07</time>
      </trkpt>
      <trkpt lat="40.90254" lon="0.50108">
        <ele>24.4</ele>
        <time>2022-05-24 14:47:08</time>
      </trkpt>
      <trkpt lat="40.90253" lon="0.501">
        <ele>24.4</ele>
        <time>2022-05-24 14:47:09</time>
      </trkpt>
      <trkpt lat="40.90252" lon="0.50093">
        <ele>24.4</ele>
        <time>2022-05-24 14:47:10</time>
      </trkpt>
      <trkpt lat="40.90252" lon="0.50085">
        <ele>24.4</ele>
        <time>2022-05-24 14:47:11</time>
      </trkpt>
      <trkpt lat="40.9025" lon="0.50079">
        <ele>24.6</ele>
        <time>2022-05-24 14:47:12</time>
      </trkpt>
      <trkpt lat="40.90248" lon="0.50072">
        <ele>24.6</ele>
        <time>2022-05-24 14:47:13</time>
      </trkpt>
      <trkpt lat="40.90247" lon="0.50065">
        <ele>24.6</ele>
        <time>2022-05-24 14:47:14</time>
      </trkpt>
      <trkpt lat="40.90246" lon="0.50058">
        <ele>24.6</ele>
        <time>2022-05-24 14:47:15</time>
      </trkpt>
      <trkpt lat="40.90244" lon="0.50052">
        <ele>24.6</ele>
        <time>2022-05-24 14:47:16</time>
      </trkpt>
      <trkpt lat="40.90242" lon="0.50044">
        <ele>24.6</ele>
        <time>2022-05-24 14:47:17</time>
      </trkpt>
      <trkpt lat="40.90241" lon="0.50038">
        <ele>24.6</ele>
        <time>2022-05-24 14:47:18</time>
      </trkpt>
      <trkpt lat="40.90239" lon="0.50031">
        <ele>24.6</ele>
        <time>2022-05-24 14:47:19</time>
      </trkpt>
      <trkpt lat="40.90238" lon="0.50024">
        <ele>24.6</ele>
        <time>2022-05-24 14:47:20</time>
      </trkpt>
      <trkpt lat="40.90237" lon="0.50017">
        <ele>24.6</ele>
        <time>2022-05-24 14:47:21</time>
      </trkpt>
      <trkpt lat="40.90235" lon="0.5001">
        <ele>24.6</ele>
        <time>2022-05-24 14:47:22</time>
      </trkpt>
      <trkpt lat="40.90233" lon="0.50004">
        <ele>24.6</ele>
        <time>2022-05-24 14:47:23</time>
      </trkpt>
      <trkpt lat="40.90231" lon="0.49997">
        <ele>24.6</ele>
        <time>2022-05-24 14:47:24</time>
      </trkpt>
      <trkpt lat="40.90229" lon="0.4999">
        <ele>24.6</ele>
        <time>2022-05-24 14:47:25</time>
      </trkpt>
      <trkpt lat="40.90228" lon="0.49983">
        <ele>24.6</ele>
        <time>2022-05-24 14:47:26</time>
      </trkpt>
      <trkpt lat="40.90226" lon="0.49976">
        <ele>24.6</ele>
        <time>2022-05-24 14:47:27</time>
      </trkpt>
      <trkpt lat="40.90224" lon="0.4997">
        <ele>24.6</ele>
        <time>2022-05-24 14:47:28</time>
      </trkpt>
      <trkpt lat="40.90222" lon="0.49962">
        <ele>24.6</ele>
        <time>2022-05-24 14:47:29</time>
      </trkpt>
      <trkpt lat="40.90221" lon="0.49956">
        <ele>24.6</ele>
        <time>2022-05-24 14:47:30</time>
      </trkpt>
      <trkpt lat="40.90219" lon="0.49949">
        <ele>24.6</ele>
        <time>2022-05-24 14:47:31</time>
      </trkpt>
      <trkpt lat="40.90217" lon="0.49943">
        <ele>24.6</ele>
        <time>2022-05-24 14:47:32</time>
      </trkpt>
      <trkpt lat="40.90215" lon="0.49936">
        <ele>24.6</ele>
        <time>2022-05-24 14:47:33</time>
      </trkpt>
      <trkpt lat="40.90213" lon="0.4993">
        <ele>24.6</ele>
        <time>2022-05-24 14:47:34</time>
      </trkpt>
      <trkpt lat="40.90211" lon="0.49923">
        <ele>24.8</ele>
        <time>2022-05-24 14:47:35</time>
      </trkpt>
      <trkpt lat="40.9021" lon="0.49917">
        <ele>24.8</ele>
        <time>2022-05-24 14:47:36</time>
      </trkpt>
      <trkpt lat="40.90208" lon="0.49911">
        <ele>24.8</ele>
        <time>2022-05-24 14:47:37</time>
      </trkpt>
      <trkpt lat="40.90206" lon="0.49904">
        <ele>24.8</ele>
        <time>2022-05-24 14:47:38</time>
      </trkpt>
      <trkpt lat="40.90204" lon="0.49898">
        <ele>24.8</ele>
        <time>2022-05-24 14:47:39</time>
      </trkpt>
      <trkpt lat="40.90202" lon="0.49891">
        <ele>24.8</ele>
        <time>2022-05-24 14:47:40</time>
      </trkpt>
      <trkpt lat="40.902" lon="0.49885">
        <ele>25</ele>
        <time>2022-05-24 14:47:41</time>
      </trkpt>
      <trkpt lat="40.90198" lon="0.49879">
        <ele>25</ele>
        <time>2022-05-24 14:47:42</time>
      </trkpt>
      <trkpt lat="40.90196" lon="0.49872">
        <ele>25</ele>
        <time>2022-05-24 14:47:43</time>
      </trkpt>
      <trkpt lat="40.90193" lon="0.49866">
        <ele>25</ele>
        <time>2022-05-24 14:47:44</time>
      </trkpt>
      <trkpt lat="40.90191" lon="0.4986">
        <ele>25</ele>
        <time>2022-05-24 14:47:45</time>
      </trkpt>
      <trkpt lat="40.90188" lon="0.49855">
        <ele>25</ele>
        <time>2022-05-24 14:47:46</time>
      </trkpt>
      <trkpt lat="40.90186" lon="0.49848">
        <ele>25.2</ele>
        <time>2022-05-24 14:47:47</time>
      </trkpt>
      <trkpt lat="40.90183" lon="0.49843">
        <ele>25.2</ele>
        <time>2022-05-24 14:47:48</time>
      </trkpt>
      <trkpt lat="40.9018" lon="0.49838">
        <ele>25.2</ele>
        <time>2022-05-24 14:47:49</time>
      </trkpt>
      <trkpt lat="40.90176" lon="0.49832">
        <ele>25.2</ele>
        <time>2022-05-24 14:47:50</time>
      </trkpt>
      <trkpt lat="40.90174" lon="0.49827">
        <ele>25.4</ele>
        <time>2022-05-24 14:47:51</time>
      </trkpt>
      <trkpt lat="40.9017" lon="0.49822">
        <ele>25.4</ele>
        <time>2022-05-24 14:47:52</time>
      </trkpt>
      <trkpt lat="40.90166" lon="0.49817">
        <ele>25.4</ele>
        <time>2022-05-24 14:47:53</time>
      </trkpt>
      <trkpt lat="40.90163" lon="0.49812">
        <ele>25.4</ele>
        <time>2022-05-24 14:47:54</time>
      </trkpt>
      <trkpt lat="40.90159" lon="0.49808">
        <ele>25.6</ele>
        <time>2022-05-24 14:47:55</time>
      </trkpt>
      <trkpt lat="40.90155" lon="0.49804">
        <ele>25.6</ele>
        <time>2022-05-24 14:47:56</time>
      </trkpt>
      <trkpt lat="40.90151" lon="0.49799">
        <ele>25.8</ele>
        <time>2022-05-24 14:47:57</time>
      </trkpt>
      <trkpt lat="40.90147" lon="0.49795">
        <ele>25.8</ele>
        <time>2022-05-24 14:47:58</time>
      </trkpt>
      <trkpt lat="40.90143" lon="0.49791">
        <ele>26</ele>
        <time>2022-05-24 14:47:59</time>
      </trkpt>
      <trkpt lat="40.9014" lon="0.49788">
        <ele>26</ele>
        <time>2022-05-24 14:48:00</time>
      </trkpt>
      <trkpt lat="40.90135" lon="0.49783">
        <ele>26.2</ele>
        <time>2022-05-24 14:48:01</time>
      </trkpt>
      <trkpt lat="40.90131" lon="0.49779">
        <ele>26.4</ele>
        <time>2022-05-24 14:48:02</time>
      </trkpt>
      <trkpt lat="40.90126" lon="0.49775">
        <ele>26.4</ele>
        <time>2022-05-24 14:48:03</time>
      </trkpt>
      <trkpt lat="40.90123" lon="0.49771">
        <ele>26.4</ele>
        <time>2022-05-24 14:48:04</time>
      </trkpt>
      <trkpt lat="40.90118" lon="0.49767">
        <ele>26.6</ele>
        <time>2022-05-24 14:48:05</time>
      </trkpt>
      <trkpt lat="40.90114" lon="0.49763">
        <ele>26.8</ele>
        <time>2022-05-24 14:48:06</time>
      </trkpt>
      <trkpt lat="40.9011" lon="0.49759">
        <ele>26.8</ele>
        <time>2022-05-24 14:48:07</time>
      </trkpt>
      <trkpt lat="40.90106" lon="0.49756">
        <ele>26.8</ele>
        <time>2022-05-24 14:48:08</time>
      </trkpt>
      <trkpt lat="40.90101" lon="0.49752">
        <ele>27</ele>
        <time>2022-05-24 14:48:09</time>
      </trkpt>
      <trkpt lat="40.90096" lon="0.49748">
        <ele>27</ele>
        <time>2022-05-24 14:48:10</time>
      </trkpt>
      <trkpt lat="40.90092" lon="0.49744">
        <ele>27</ele>
        <time>2022-05-24 14:48:11</time>
      </trkpt>
      <trkpt lat="40.90087" lon="0.49739">
        <ele>27.2</ele>
        <time>2022-05-24 14:48:12</time>
      </trkpt>
      <trkpt lat="40.90083" lon="0.49735">
        <ele>27.2</ele>
        <time>2022-05-24 14:48:13</time>
      </trkpt>
      <trkpt lat="40.90079" lon="0.49732">
        <ele>27.2</ele>
        <time>2022-05-24 14:48:14</time>
      </trkpt>
      <trkpt lat="40.90076" lon="0.49729">
        <ele>27.2</ele>
        <time>2022-05-24 14:48:15</time>
      </trkpt>
      <trkpt lat="40.9007" lon="0.49724">
        <ele>27.4</ele>
        <time>2022-05-24 14:48:16</time>
      </trkpt>
      <trkpt lat="40.90067" lon="0.4972">
        <ele>27.4</ele>
        <time>2022-05-24 14:48:17</time>
      </trkpt>
      <trkpt lat="40.90063" lon="0.49716">
        <ele>27.4</ele>
        <time>2022-05-24 14:48:18</time>
      </trkpt>
      <trkpt lat="40.90058" lon="0.49712">
        <ele>27.4</ele>
        <time>2022-05-24 14:48:19</time>
      </trkpt>
      <trkpt lat="40.90054" lon="0.49709">
        <ele>27.4</ele>
        <time>2022-05-24 14:48:20</time>
      </trkpt>
      <trkpt lat="40.90049" lon="0.49705">
        <ele>27.4</ele>
        <time>2022-05-24 14:48:21</time>
      </trkpt>
      <trkpt lat="40.90045" lon="0.49701">
        <ele>27.4</ele>
        <time>2022-05-24 14:48:22</time>
      </trkpt>
      <trkpt lat="40.90041" lon="0.49696">
        <ele>27.2</ele>
        <time>2022-05-24 14:48:23</time>
      </trkpt>
      <trkpt lat="40.90037" lon="0.49693">
        <ele>27.2</ele>
        <time>2022-05-24 14:48:24</time>
      </trkpt>
      <trkpt lat="40.90032" lon="0.49688">
        <ele>27.2</ele>
        <time>2022-05-24 14:48:25</time>
      </trkpt>
      <trkpt lat="40.90028" lon="0.49684">
        <ele>27.2</ele>
        <time>2022-05-24 14:48:26</time>
      </trkpt>
      <trkpt lat="40.90023" lon="0.4968">
        <ele>27.2</ele>
        <time>2022-05-24 14:48:27</time>
      </trkpt>
      <trkpt lat="40.90019" lon="0.49676">
        <ele>27.2</ele>
        <time>2022-05-24 14:48:28</time>
      </trkpt>
      <trkpt lat="40.90014" lon="0.49671">
        <ele>27.2</ele>
        <time>2022-05-24 14:48:29</time>
      </trkpt>
      <trkpt lat="40.9001" lon="0.49668">
        <ele>27.2</ele>
        <time>2022-05-24 14:48:30</time>
      </trkpt>
      <trkpt lat="40.90004" lon="0.49663">
        <ele>27.2</ele>
        <time>2022-05-24 14:48:31</time>
      </trkpt>
      <trkpt lat="40.9" lon="0.4966">
        <ele>27</ele>
        <time>2022-05-24 14:48:32</time>
      </trkpt>
      <trkpt lat="40.89994" lon="0.49655">
        <ele>27</ele>
        <time>2022-05-24 14:48:33</time>
      </trkpt>
      <trkpt lat="40.8999" lon="0.49652">
        <ele>26.8</ele>
        <time>2022-05-24 14:48:34</time>
      </trkpt>
      <trkpt lat="40.89986" lon="0.4965">
        <ele>26.8</ele>
        <time>2022-05-24 14:48:35</time>
      </trkpt>
      <trkpt lat="40.8998" lon="0.49646">
        <ele>26.8</ele>
        <time>2022-05-24 14:48:36</time>
      </trkpt>
      <trkpt lat="40.89973" lon="0.49642">
        <ele>26.6</ele>
        <time>2022-05-24 14:48:37</time>
      </trkpt>
      <trkpt lat="40.89968" lon="0.4964">
        <ele>26.4</ele>
        <time>2022-05-24 14:48:38</time>
      </trkpt>
      <trkpt lat="40.89961" lon="0.49637">
        <ele>26.4</ele>
        <time>2022-05-24 14:48:39</time>
      </trkpt>
      <trkpt lat="40.89957" lon="0.49635">
        <ele>26.2</ele>
        <time>2022-05-24 14:48:40</time>
      </trkpt>
      <trkpt lat="40.89949" lon="0.49633">
        <ele>26</ele>
        <time>2022-05-24 14:48:41</time>
      </trkpt>
      <trkpt lat="40.89943" lon="0.49632">
        <ele>25.8</ele>
        <time>2022-05-24 14:48:42</time>
      </trkpt>
      <trkpt lat="40.89936" lon="0.49631">
        <ele>25.8</ele>
        <time>2022-05-24 14:48:43</time>
      </trkpt>
      <trkpt lat="40.89931" lon="0.4963">
        <ele>25.6</ele>
        <time>2022-05-24 14:48:44</time>
      </trkpt>
      <trkpt lat="40.89923" lon="0.4963">
        <ele>25.4</ele>
        <time>2022-05-24 14:48:45</time>
      </trkpt>
      <trkpt lat="40.89918" lon="0.49629">
        <ele>25.2</ele>
        <time>2022-05-24 14:48:46</time>
      </trkpt>
      <trkpt lat="40.89911" lon="0.49629">
        <ele>25.2</ele>
        <time>2022-05-24 14:48:47</time>
      </trkpt>
      <trkpt lat="40.89905" lon="0.49629">
        <ele>25</ele>
        <time>2022-05-24 14:48:48</time>
      </trkpt>
      <trkpt lat="40.89897" lon="0.4963">
        <ele>24.8</ele>
        <time>2022-05-24 14:48:49</time>
      </trkpt>
      <trkpt lat="40.89892" lon="0.49631">
        <ele>24.6</ele>
        <time>2022-05-24 14:48:50</time>
      </trkpt>
      <trkpt lat="40.89884" lon="0.49632">
        <ele>24.4</ele>
        <time>2022-05-24 14:48:51</time>
      </trkpt>
      <trkpt lat="40.89878" lon="0.49632">
        <ele>24.4</ele>
        <time>2022-05-24 14:48:52</time>
      </trkpt>
      <trkpt lat="40.89871" lon="0.49633">
        <ele>24.2</ele>
        <time>2022-05-24 14:48:53</time>
      </trkpt>
      <trkpt lat="40.89865" lon="0.49633">
        <ele>24</ele>
        <time>2022-05-24 14:48:54</time>
      </trkpt>
      <trkpt lat="40.89857" lon="0.49634">
        <ele>23.8</ele>
        <time>2022-05-24 14:48:55</time>
      </trkpt>
      <trkpt lat="40.89852" lon="0.49634">
        <ele>23.8</ele>
        <time>2022-05-24 14:48:56</time>
      </trkpt>
      <trkpt lat="40.89844" lon="0.49635">
        <ele>23.6</ele>
        <time>2022-05-24 14:48:57</time>
      </trkpt>
      <trkpt lat="40.89838" lon="0.49636">
        <ele>23.6</ele>
        <time>2022-05-24 14:48:58</time>
      </trkpt>
      <trkpt lat="40.8983" lon="0.49637">
        <ele>23.4</ele>
        <time>2022-05-24 14:48:59</time>
      </trkpt>
      <trkpt lat="40.89825" lon="0.49638">
        <ele>23.4</ele>
        <time>2022-05-24 14:49:00</time>
      </trkpt>
      <trkpt lat="40.89817" lon="0.4964">
        <ele>23.4</ele>
        <time>2022-05-24 14:49:01</time>
      </trkpt>
      <trkpt lat="40.89813" lon="0.49642">
        <ele>23.4</ele>
        <time>2022-05-24 14:49:02</time>
      </trkpt>
      <trkpt lat="40.89805" lon="0.49644">
        <ele>23.4</ele>
        <time>2022-05-24 14:49:03</time>
      </trkpt>
      <trkpt lat="40.89801" lon="0.49646">
        <ele>23.2</ele>
        <time>2022-05-24 14:49:04</time>
      </trkpt>
      <trkpt lat="40.89793" lon="0.4965">
        <ele>23.2</ele>
        <time>2022-05-24 14:49:05</time>
      </trkpt>
      <trkpt lat="40.8979" lon="0.49652">
        <ele>23.2</ele>
        <time>2022-05-24 14:49:06</time>
      </trkpt>
      <trkpt lat="40.89783" lon="0.49656">
        <ele>23.2</ele>
        <time>2022-05-24 14:49:07</time>
      </trkpt>
      <trkpt lat="40.89778" lon="0.49659">
        <ele>23.2</ele>
        <time>2022-05-24 14:49:08</time>
      </trkpt>
      <trkpt lat="40.89771" lon="0.49663">
        <ele>23.2</ele>
        <time>2022-05-24 14:49:09</time>
      </trkpt>
      <trkpt lat="40.89767" lon="0.49666">
        <ele>23.2</ele>
        <time>2022-05-24 14:49:10</time>
      </trkpt>
      <trkpt lat="40.8976" lon="0.4967">
        <ele>23.2</ele>
        <time>2022-05-24 14:49:11</time>
      </trkpt>
      <trkpt lat="40.89757" lon="0.49672">
        <ele>23.2</ele>
        <time>2022-05-24 14:49:12</time>
      </trkpt>
      <trkpt lat="40.89749" lon="0.49677">
        <ele>23.2</ele>
        <time>2022-05-24 14:49:13</time>
      </trkpt>
      <trkpt lat="40.89745" lon="0.49679">
        <ele>23.2</ele>
        <time>2022-05-24 14:49:14</time>
      </trkpt>
      <trkpt lat="40.89739" lon="0.49684">
        <ele>23.2</ele>
        <time>2022-05-24 14:49:15</time>
      </trkpt>
      <trkpt lat="40.89735" lon="0.49686">
        <ele>23.2</ele>
        <time>2022-05-24 14:49:16</time>
      </trkpt>
      <trkpt lat="40.89728" lon="0.49691">
        <ele>23.2</ele>
        <time>2022-05-24 14:49:17</time>
      </trkpt>
      <trkpt lat="40.89724" lon="0.49693">
        <ele>23.2</ele>
        <time>2022-05-24 14:49:18</time>
      </trkpt>
      <trkpt lat="40.89717" lon="0.49697">
        <ele>23.2</ele>
        <time>2022-05-24 14:49:19</time>
      </trkpt>
      <trkpt lat="40.89713" lon="0.49699">
        <ele>23.2</ele>
        <time>2022-05-24 14:49:20</time>
      </trkpt>
      <trkpt lat="40.89707" lon="0.49702">
        <ele>23.2</ele>
        <time>2022-05-24 14:49:21</time>
      </trkpt>
      <trkpt lat="40.89702" lon="0.49705">
        <ele>23.2</ele>
        <time>2022-05-24 14:49:22</time>
      </trkpt>
      <trkpt lat="40.89695" lon="0.49708">
        <ele>23.2</ele>
        <time>2022-05-24 14:49:23</time>
      </trkpt>
      <trkpt lat="40.89691" lon="0.4971">
        <ele>23.2</ele>
        <time>2022-05-24 14:49:24</time>
      </trkpt>
      <trkpt lat="40.89684" lon="0.49713">
        <ele>23.4</ele>
        <time>2022-05-24 14:49:25</time>
      </trkpt>
      <trkpt lat="40.8968" lon="0.49714">
        <ele>23.4</ele>
        <time>2022-05-24 14:49:26</time>
      </trkpt>
      <trkpt lat="40.89672" lon="0.49717">
        <ele>23.4</ele>
        <time>2022-05-24 14:49:27</time>
      </trkpt>
      <trkpt lat="40.89668" lon="0.49718">
        <ele>23.4</ele>
        <time>2022-05-24 14:49:28</time>
      </trkpt>
      <trkpt lat="40.8966" lon="0.49721">
        <ele>23.4</ele>
        <time>2022-05-24 14:49:29</time>
      </trkpt>
      <trkpt lat="40.89656" lon="0.49722">
        <ele>23.4</ele>
        <time>2022-05-24 14:49:30</time>
      </trkpt>
      <trkpt lat="40.89648" lon="0.49725">
        <ele>23.4</ele>
        <time>2022-05-24 14:49:31</time>
      </trkpt>
      <trkpt lat="40.89644" lon="0.49726">
        <ele>23.4</ele>
        <time>2022-05-24 14:49:32</time>
      </trkpt>
      <trkpt lat="40.89637" lon="0.49728">
        <ele>23.4</ele>
        <time>2022-05-24 14:49:33</time>
      </trkpt>
      <trkpt lat="40.89632" lon="0.49729">
        <ele>23.4</ele>
        <time>2022-05-24 14:49:34</time>
      </trkpt>
      <trkpt lat="40.89625" lon="0.49732">
        <ele>23.4</ele>
        <time>2022-05-24 14:49:35</time>
      </trkpt>
      <trkpt lat="40.89621" lon="0.49733">
        <ele>23.4</ele>
        <time>2022-05-24 14:49:36</time>
      </trkpt>
      <trkpt lat="40.89613" lon="0.49736">
        <ele>23.4</ele>
        <time>2022-05-24 14:49:37</time>
      </trkpt>
      <trkpt lat="40.89609" lon="0.49737">
        <ele>23.4</ele>
        <time>2022-05-24 14:49:38</time>
      </trkpt>
      <trkpt lat="40.89602" lon="0.49741">
        <ele>23.2</ele>
        <time>2022-05-24 14:49:39</time>
      </trkpt>
      <trkpt lat="40.89598" lon="0.49743">
        <ele>23.2</ele>
        <time>2022-05-24 14:49:40</time>
      </trkpt>
      <trkpt lat="40.89591" lon="0.49747">
        <ele>23.2</ele>
        <time>2022-05-24 14:49:41</time>
      </trkpt>
      <trkpt lat="40.89587" lon="0.49749">
        <ele>23.2</ele>
        <time>2022-05-24 14:49:42</time>
      </trkpt>
      <trkpt lat="40.8958" lon="0.49753">
        <ele>23.2</ele>
        <time>2022-05-24 14:49:43</time>
      </trkpt>
      <trkpt lat="40.89576" lon="0.49755">
        <ele>23.2</ele>
        <time>2022-05-24 14:49:44</time>
      </trkpt>
      <trkpt lat="40.89569" lon="0.49759">
        <ele>23.2</ele>
        <time>2022-05-24 14:49:45</time>
      </trkpt>
      <trkpt lat="40.89565" lon="0.49761">
        <ele>23.2</ele>
        <time>2022-05-24 14:49:46</time>
      </trkpt>
      <trkpt lat="40.89558" lon="0.49766">
        <ele>23.2</ele>
        <time>2022-05-24 14:49:47</time>
      </trkpt>
      <trkpt lat="40.89554" lon="0.49768">
        <ele>23</ele>
        <time>2022-05-24 14:49:48</time>
      </trkpt>
      <trkpt lat="40.89547" lon="0.49772">
        <ele>23</ele>
        <time>2022-05-24 14:49:49</time>
      </trkpt>
      <trkpt lat="40.89544" lon="0.49774">
        <ele>23</ele>
        <time>2022-05-24 14:49:50</time>
      </trkpt>
      <trkpt lat="40.89537" lon="0.49778">
        <ele>23</ele>
        <time>2022-05-24 14:49:51</time>
      </trkpt>
      <trkpt lat="40.89532" lon="0.49781">
        <ele>23</ele>
        <time>2022-05-24 14:49:52</time>
      </trkpt>
      <trkpt lat="40.89525" lon="0.49785">
        <ele>23</ele>
        <time>2022-05-24 14:49:53</time>
      </trkpt>
      <trkpt lat="40.89521" lon="0.49787">
        <ele>23</ele>
        <time>2022-05-24 14:49:54</time>
      </trkpt>
      <trkpt lat="40.89514" lon="0.49791">
        <ele>23</ele>
        <time>2022-05-24 14:49:55</time>
      </trkpt>
      <trkpt lat="40.8951" lon="0.49793">
        <ele>23</ele>
        <time>2022-05-24 14:49:56</time>
      </trkpt>
      <trkpt lat="40.89503" lon="0.49798">
        <ele>23</ele>
        <time>2022-05-24 14:49:57</time>
      </trkpt>
      <trkpt lat="40.89499" lon="0.498">
        <ele>23</ele>
        <time>2022-05-24 14:49:58</time>
      </trkpt>
      <trkpt lat="40.89492" lon="0.49804">
        <ele>22.8</ele>
        <time>2022-05-24 14:49:59</time>
      </trkpt>
      <trkpt lat="40.89488" lon="0.49807">
        <ele>22.8</ele>
        <time>2022-05-24 14:50:00</time>
      </trkpt>
      <trkpt lat="40.89481" lon="0.49811">
        <ele>22.8</ele>
        <time>2022-05-24 14:50:01</time>
      </trkpt>
      <trkpt lat="40.89478" lon="0.49813">
        <ele>22.8</ele>
        <time>2022-05-24 14:50:02</time>
      </trkpt>
      <trkpt lat="40.89471" lon="0.49817">
        <ele>22.8</ele>
        <time>2022-05-24 14:50:03</time>
      </trkpt>
      <trkpt lat="40.89466" lon="0.49819">
        <ele>22.8</ele>
        <time>2022-05-24 14:50:04</time>
      </trkpt>
      <trkpt lat="40.8946" lon="0.49823">
        <ele>22.8</ele>
        <time>2022-05-24 14:50:05</time>
      </trkpt>
      <trkpt lat="40.89457" lon="0.49825">
        <ele>22.8</ele>
        <time>2022-05-24 14:50:06</time>
      </trkpt>
      <trkpt lat="40.8945" lon="0.49828">
        <ele>22.8</ele>
        <time>2022-05-24 14:50:07</time>
      </trkpt>
      <trkpt lat="40.89446" lon="0.49831">
        <ele>22.8</ele>
        <time>2022-05-24 14:50:08</time>
      </trkpt>
      <trkpt lat="40.89439" lon="0.49835">
        <ele>22.8</ele>
        <time>2022-05-24 14:50:09</time>
      </trkpt>
      <trkpt lat="40.89436" lon="0.49837">
        <ele>22.8</ele>
        <time>2022-05-24 14:50:10</time>
      </trkpt>
      <trkpt lat="40.89429" lon="0.49842">
        <ele>22.6</ele>
        <time>2022-05-24 14:50:11</time>
      </trkpt>
      <trkpt lat="40.89425" lon="0.49844">
        <ele>22.6</ele>
        <time>2022-05-24 14:50:12</time>
      </trkpt>
      <trkpt lat="40.89418" lon="0.49848">
        <ele>22.6</ele>
        <time>2022-05-24 14:50:13</time>
      </trkpt>
      <trkpt lat="40.89415" lon="0.49851">
        <ele>22.6</ele>
        <time>2022-05-24 14:50:14</time>
      </trkpt>
      <trkpt lat="40.89407" lon="0.49856">
        <ele>22.8</ele>
        <time>2022-05-24 14:50:15</time>
      </trkpt>
      <trkpt lat="40.89403" lon="0.49859">
        <ele>22.8</ele>
        <time>2022-05-24 14:50:16</time>
      </trkpt>
      <trkpt lat="40.89399" lon="0.49863">
        <ele>22.8</ele>
        <time>2022-05-24 14:50:17</time>
      </trkpt>
      <trkpt lat="40.89394" lon="0.49867">
        <ele>22.8</ele>
        <time>2022-05-24 14:50:18</time>
      </trkpt>
      <trkpt lat="40.8939" lon="0.49871">
        <ele>22.8</ele>
        <time>2022-05-24 14:50:19</time>
      </trkpt>
      <trkpt lat="40.89385" lon="0.49876">
        <ele>22.8</ele>
        <time>2022-05-24 14:50:20</time>
      </trkpt>
      <trkpt lat="40.89381" lon="0.49882">
        <ele>22.8</ele>
        <time>2022-05-24 14:50:21</time>
      </trkpt>
      <trkpt lat="40.89376" lon="0.49887">
        <ele>22.8</ele>
        <time>2022-05-24 14:50:22</time>
      </trkpt>
      <trkpt lat="40.89372" lon="0.49892">
        <ele>22.8</ele>
        <time>2022-05-24 14:50:23</time>
      </trkpt>
      <trkpt lat="40.89368" lon="0.49896">
        <ele>22.8</ele>
        <time>2022-05-24 14:50:24</time>
      </trkpt>
      <trkpt lat="40.89364" lon="0.49901">
        <ele>22.6</ele>
        <time>2022-05-24 14:50:25</time>
      </trkpt>
      <trkpt lat="40.8936" lon="0.49906">
        <ele>22.6</ele>
        <time>2022-05-24 14:50:26</time>
      </trkpt>
      <trkpt lat="40.89356" lon="0.49911">
        <ele>22.6</ele>
        <time>2022-05-24 14:50:27</time>
      </trkpt>
      <trkpt lat="40.89352" lon="0.49916">
        <ele>22.6</ele>
        <time>2022-05-24 14:50:28</time>
      </trkpt>
      <trkpt lat="40.89348" lon="0.49921">
        <ele>22.6</ele>
        <time>2022-05-24 14:50:29</time>
      </trkpt>
      <trkpt lat="40.89343" lon="0.49926">
        <ele>22.6</ele>
        <time>2022-05-24 14:50:30</time>
      </trkpt>
      <trkpt lat="40.89338" lon="0.49931">
        <ele>22.4</ele>
        <time>2022-05-24 14:50:31</time>
      </trkpt>
      <trkpt lat="40.89334" lon="0.49936">
        <ele>22.4</ele>
        <time>2022-05-24 14:50:32</time>
      </trkpt>
      <trkpt lat="40.8933" lon="0.4994">
        <ele>22.4</ele>
        <time>2022-05-24 14:50:33</time>
      </trkpt>
      <trkpt lat="40.89326" lon="0.49945">
        <ele>22.4</ele>
        <time>2022-05-24 14:50:34</time>
      </trkpt>
      <trkpt lat="40.89321" lon="0.49951">
        <ele>22.4</ele>
        <time>2022-05-24 14:50:35</time>
      </trkpt>
      <trkpt lat="40.89316" lon="0.49955">
        <ele>22.4</ele>
        <time>2022-05-24 14:50:36</time>
      </trkpt>
      <trkpt lat="40.89312" lon="0.4996">
        <ele>22.4</ele>
        <time>2022-05-24 14:50:37</time>
      </trkpt>
      <trkpt lat="40.89308" lon="0.49964">
        <ele>22.4</ele>
        <time>2022-05-24 14:50:38</time>
      </trkpt>
      <trkpt lat="40.89304" lon="0.4997">
        <ele>22.4</ele>
        <time>2022-05-24 14:50:39</time>
      </trkpt>
      <trkpt lat="40.89299" lon="0.49974">
        <ele>22.4</ele>
        <time>2022-05-24 14:50:40</time>
      </trkpt>
      <trkpt lat="40.89295" lon="0.4998">
        <ele>22.2</ele>
        <time>2022-05-24 14:50:41</time>
      </trkpt>
      <trkpt lat="40.89291" lon="0.49984">
        <ele>22.2</ele>
        <time>2022-05-24 14:50:42</time>
      </trkpt>
      <trkpt lat="40.89287" lon="0.4999">
        <ele>22</ele>
        <time>2022-05-24 14:50:43</time>
      </trkpt>
      <trkpt lat="40.89284" lon="0.49994">
        <ele>22</ele>
        <time>2022-05-24 14:50:44</time>
      </trkpt>
      <trkpt lat="40.89279" lon="0.49999">
        <ele>22</ele>
        <time>2022-05-24 14:50:45</time>
      </trkpt>
      <trkpt lat="40.89275" lon="0.50003">
        <ele>22</ele>
        <time>2022-05-24 14:50:46</time>
      </trkpt>
      <trkpt lat="40.89271" lon="0.50008">
        <ele>22</ele>
        <time>2022-05-24 14:50:47</time>
      </trkpt>
      <trkpt lat="40.89267" lon="0.50012">
        <ele>22</ele>
        <time>2022-05-24 14:50:48</time>
      </trkpt>
      <trkpt lat="40.89263" lon="0.50016">
        <ele>22</ele>
        <time>2022-05-24 14:50:49</time>
      </trkpt>
      <trkpt lat="40.89259" lon="0.5002">
        <ele>22.2</ele>
        <time>2022-05-24 14:50:50</time>
      </trkpt>
      <trkpt lat="40.89255" lon="0.50025">
        <ele>22.2</ele>
        <time>2022-05-24 14:50:51</time>
      </trkpt>
      <trkpt lat="40.89251" lon="0.5003">
        <ele>22.2</ele>
        <time>2022-05-24 14:50:52</time>
      </trkpt>
      <trkpt lat="40.89246" lon="0.50034">
        <ele>22.2</ele>
        <time>2022-05-24 14:50:53</time>
      </trkpt>
      <trkpt lat="40.89242" lon="0.50038">
        <ele>22.4</ele>
        <time>2022-05-24 14:50:54</time>
      </trkpt>
      <trkpt lat="40.89238" lon="0.50043">
        <ele>22.4</ele>
        <time>2022-05-24 14:50:55</time>
      </trkpt>
      <trkpt lat="40.89235" lon="0.50047">
        <ele>22.4</ele>
        <time>2022-05-24 14:50:56</time>
      </trkpt>
      <trkpt lat="40.8923" lon="0.50052">
        <ele>22.4</ele>
        <time>2022-05-24 14:50:57</time>
      </trkpt>
      <trkpt lat="40.89226" lon="0.50056">
        <ele>22.4</ele>
        <time>2022-05-24 14:50:58</time>
      </trkpt>
      <trkpt lat="40.89222" lon="0.50061">
        <ele>22.4</ele>
        <time>2022-05-24 14:50:59</time>
      </trkpt>
      <trkpt lat="40.89218" lon="0.50066">
        <ele>22.4</ele>
        <time>2022-05-24 14:51:00</time>
      </trkpt>
      <trkpt lat="40.89213" lon="0.50071">
        <ele>22.4</ele>
        <time>2022-05-24 14:51:01</time>
      </trkpt>
      <trkpt lat="40.8921" lon="0.50076">
        <ele>22.4</ele>
        <time>2022-05-24 14:51:02</time>
      </trkpt>
      <trkpt lat="40.89205" lon="0.50082">
        <ele>22.4</ele>
        <time>2022-05-24 14:51:03</time>
      </trkpt>
      <trkpt lat="40.89202" lon="0.50086">
        <ele>22.4</ele>
        <time>2022-05-24 14:51:04</time>
      </trkpt>
      <trkpt lat="40.89197" lon="0.50092">
        <ele>22.4</ele>
        <time>2022-05-24 14:51:05</time>
      </trkpt>
      <trkpt lat="40.89194" lon="0.50096">
        <ele>22.4</ele>
        <time>2022-05-24 14:51:06</time>
      </trkpt>
      <trkpt lat="40.89189" lon="0.50101">
        <ele>22.4</ele>
        <time>2022-05-24 14:51:07</time>
      </trkpt>
      <trkpt lat="40.89185" lon="0.50106">
        <ele>22.4</ele>
        <time>2022-05-24 14:51:08</time>
      </trkpt>
      <trkpt lat="40.8918" lon="0.50112">
        <ele>22.4</ele>
        <time>2022-05-24 14:51:09</time>
      </trkpt>
      <trkpt lat="40.89176" lon="0.50116">
        <ele>22.2</ele>
        <time>2022-05-24 14:51:10</time>
      </trkpt>
      <trkpt lat="40.89171" lon="0.50122">
        <ele>22.2</ele>
        <time>2022-05-24 14:51:11</time>
      </trkpt>
      <trkpt lat="40.89167" lon="0.50126">
        <ele>22.2</ele>
        <time>2022-05-24 14:51:12</time>
      </trkpt>
      <trkpt lat="40.89162" lon="0.50132">
        <ele>22.2</ele>
        <time>2022-05-24 14:51:13</time>
      </trkpt>
      <trkpt lat="40.89159" lon="0.50137">
        <ele>22.2</ele>
        <time>2022-05-24 14:51:14</time>
      </trkpt>
      <trkpt lat="40.89155" lon="0.50143">
        <ele>22.2</ele>
        <time>2022-05-24 14:51:15</time>
      </trkpt>
      <trkpt lat="40.89151" lon="0.50148">
        <ele>22.2</ele>
        <time>2022-05-24 14:51:16</time>
      </trkpt>
      <trkpt lat="40.89147" lon="0.50154">
        <ele>22.2</ele>
        <time>2022-05-24 14:51:17</time>
      </trkpt>
      <trkpt lat="40.89143" lon="0.50159">
        <ele>22.2</ele>
        <time>2022-05-24 14:51:18</time>
      </trkpt>
      <trkpt lat="40.89139" lon="0.50166">
        <ele>22.2</ele>
        <time>2022-05-24 14:51:19</time>
      </trkpt>
      <trkpt lat="40.89136" lon="0.50172">
        <ele>22.4</ele>
        <time>2022-05-24 14:51:20</time>
      </trkpt>
      <trkpt lat="40.89132" lon="0.50179">
        <ele>22.4</ele>
        <time>2022-05-24 14:51:21</time>
      </trkpt>
      <trkpt lat="40.89129" lon="0.50184">
        <ele>22.4</ele>
        <time>2022-05-24 14:51:22</time>
      </trkpt>
      <trkpt lat="40.89124" lon="0.50191">
        <ele>22.4</ele>
        <time>2022-05-24 14:51:23</time>
      </trkpt>
      <trkpt lat="40.89121" lon="0.50197">
        <ele>22.2</ele>
        <time>2022-05-24 14:51:24</time>
      </trkpt>
      <trkpt lat="40.89117" lon="0.50203">
        <ele>22.2</ele>
        <time>2022-05-24 14:51:25</time>
      </trkpt>
      <trkpt lat="40.89113" lon="0.50208">
        <ele>22.2</ele>
        <time>2022-05-24 14:51:26</time>
      </trkpt>
      <trkpt lat="40.89109" lon="0.50214">
        <ele>22.2</ele>
        <time>2022-05-24 14:51:27</time>
      </trkpt>
      <trkpt lat="40.89106" lon="0.50219">
        <ele>22.4</ele>
        <time>2022-05-24 14:51:28</time>
      </trkpt>
      <trkpt lat="40.89101" lon="0.50225">
        <ele>22.4</ele>
        <time>2022-05-24 14:51:29</time>
      </trkpt>
      <trkpt lat="40.89098" lon="0.50231">
        <ele>22.2</ele>
        <time>2022-05-24 14:51:30</time>
      </trkpt>
      <trkpt lat="40.89093" lon="0.50237">
        <ele>22.2</ele>
        <time>2022-05-24 14:51:31</time>
      </trkpt>
      <trkpt lat="40.89089" lon="0.50241">
        <ele>22.2</ele>
        <time>2022-05-24 14:51:32</time>
      </trkpt>
      <trkpt lat="40.89085" lon="0.50248">
        <ele>22.2</ele>
        <time>2022-05-24 14:51:33</time>
      </trkpt>
      <trkpt lat="40.89081" lon="0.50253">
        <ele>22.2</ele>
        <time>2022-05-24 14:51:34</time>
      </trkpt>
      <trkpt lat="40.89076" lon="0.50259">
        <ele>22.2</ele>
        <time>2022-05-24 14:51:35</time>
      </trkpt>
      <trkpt lat="40.89073" lon="0.50263">
        <ele>22.2</ele>
        <time>2022-05-24 14:51:36</time>
      </trkpt>
      <trkpt lat="40.89069" lon="0.50269">
        <ele>22.2</ele>
        <time>2022-05-24 14:51:37</time>
      </trkpt>
      <trkpt lat="40.89065" lon="0.50273">
        <ele>22.2</ele>
        <time>2022-05-24 14:51:38</time>
      </trkpt>
      <trkpt lat="40.89061" lon="0.50279">
        <ele>22.4</ele>
        <time>2022-05-24 14:51:39</time>
      </trkpt>
      <trkpt lat="40.89057" lon="0.50283">
        <ele>22.4</ele>
        <time>2022-05-24 14:51:40</time>
      </trkpt>
      <trkpt lat="40.89053" lon="0.50289">
        <ele>22.4</ele>
        <time>2022-05-24 14:51:41</time>
      </trkpt>
      <trkpt lat="40.8905" lon="0.50293">
        <ele>22.4</ele>
        <time>2022-05-24 14:51:42</time>
      </trkpt>
      <trkpt lat="40.89046" lon="0.50299">
        <ele>22.4</ele>
        <time>2022-05-24 14:51:43</time>
      </trkpt>
      <trkpt lat="40.89042" lon="0.50304">
        <ele>22.6</ele>
        <time>2022-05-24 14:51:44</time>
      </trkpt>
      <trkpt lat="40.89038" lon="0.50309">
        <ele>22.6</ele>
        <time>2022-05-24 14:51:45</time>
      </trkpt>
      <trkpt lat="40.89034" lon="0.50314">
        <ele>22.6</ele>
        <time>2022-05-24 14:51:46</time>
      </trkpt>
      <trkpt lat="40.8903" lon="0.50319">
        <ele>22.6</ele>
        <time>2022-05-24 14:51:47</time>
      </trkpt>
      <trkpt lat="40.89026" lon="0.50324">
        <ele>22.6</ele>
        <time>2022-05-24 14:51:48</time>
      </trkpt>
      <trkpt lat="40.89022" lon="0.5033">
        <ele>22.6</ele>
        <time>2022-05-24 14:51:49</time>
      </trkpt>
      <trkpt lat="40.89018" lon="0.50335">
        <ele>22.6</ele>
        <time>2022-05-24 14:51:50</time>
      </trkpt>
      <trkpt lat="40.89014" lon="0.5034">
        <ele>22.6</ele>
        <time>2022-05-24 14:51:51</time>
      </trkpt>
      <trkpt lat="40.8901" lon="0.50345">
        <ele>22.6</ele>
        <time>2022-05-24 14:51:52</time>
      </trkpt>
      <trkpt lat="40.89006" lon="0.50351">
        <ele>22.6</ele>
        <time>2022-05-24 14:51:53</time>
      </trkpt>
      <trkpt lat="40.89002" lon="0.50355">
        <ele>22.6</ele>
        <time>2022-05-24 14:51:54</time>
      </trkpt>
      <trkpt lat="40.88998" lon="0.50361">
        <ele>22.6</ele>
        <time>2022-05-24 14:51:55</time>
      </trkpt>
      <trkpt lat="40.88994" lon="0.50366">
        <ele>22.4</ele>
        <time>2022-05-24 14:51:56</time>
      </trkpt>
      <trkpt lat="40.8899" lon="0.50371">
        <ele>22.4</ele>
        <time>2022-05-24 14:51:57</time>
      </trkpt>
      <trkpt lat="40.88986" lon="0.50375">
        <ele>22.4</ele>
        <time>2022-05-24 14:51:58</time>
      </trkpt>
      <trkpt lat="40.88982" lon="0.50381">
        <ele>22.4</ele>
        <time>2022-05-24 14:51:59</time>
      </trkpt>
      <trkpt lat="40.88978" lon="0.50385">
        <ele>22.4</ele>
        <time>2022-05-24 14:52:00</time>
      </trkpt>
      <trkpt lat="40.88974" lon="0.5039">
        <ele>22.4</ele>
        <time>2022-05-24 14:52:01</time>
      </trkpt>
      <trkpt lat="40.8897" lon="0.50395">
        <ele>22.4</ele>
        <time>2022-05-24 14:52:02</time>
      </trkpt>
      <trkpt lat="40.88966" lon="0.50399">
        <ele>22.2</ele>
        <time>2022-05-24 14:52:03</time>
      </trkpt>
      <trkpt lat="40.88962" lon="0.50404">
        <ele>22.2</ele>
        <time>2022-05-24 14:52:04</time>
      </trkpt>
      <trkpt lat="40.88957" lon="0.50408">
        <ele>22.2</ele>
        <time>2022-05-24 14:52:05</time>
      </trkpt>
      <trkpt lat="40.88953" lon="0.50412">
        <ele>22.2</ele>
        <time>2022-05-24 14:52:06</time>
      </trkpt>
      <trkpt lat="40.88949" lon="0.50416">
        <ele>22.2</ele>
        <time>2022-05-24 14:52:07</time>
      </trkpt>
      <trkpt lat="40.88945" lon="0.5042">
        <ele>22.2</ele>
        <time>2022-05-24 14:52:08</time>
      </trkpt>
      <trkpt lat="40.88941" lon="0.50424">
        <ele>22.2</ele>
        <time>2022-05-24 14:52:09</time>
      </trkpt>
      <trkpt lat="40.88937" lon="0.50427">
        <ele>22.2</ele>
        <time>2022-05-24 14:52:10</time>
      </trkpt>
      <trkpt lat="40.88932" lon="0.50432">
        <ele>22.4</ele>
        <time>2022-05-24 14:52:11</time>
      </trkpt>
      <trkpt lat="40.88928" lon="0.50436">
        <ele>22.4</ele>
        <time>2022-05-24 14:52:12</time>
      </trkpt>
      <trkpt lat="40.88923" lon="0.5044">
        <ele>22.4</ele>
        <time>2022-05-24 14:52:13</time>
      </trkpt>
      <trkpt lat="40.88919" lon="0.50444">
        <ele>22.4</ele>
        <time>2022-05-24 14:52:14</time>
      </trkpt>
      <trkpt lat="40.88914" lon="0.50448">
        <ele>22.4</ele>
        <time>2022-05-24 14:52:15</time>
      </trkpt>
      <trkpt lat="40.88909" lon="0.50452">
        <ele>22.4</ele>
        <time>2022-05-24 14:52:16</time>
      </trkpt>
      <trkpt lat="40.88905" lon="0.50456">
        <ele>22.4</ele>
        <time>2022-05-24 14:52:17</time>
      </trkpt>
      <trkpt lat="40.88901" lon="0.50459">
        <ele>22.4</ele>
        <time>2022-05-24 14:52:18</time>
      </trkpt>
      <trkpt lat="40.88897" lon="0.50463">
        <ele>22.4</ele>
        <time>2022-05-24 14:52:19</time>
      </trkpt>
      <trkpt lat="40.88892" lon="0.50467">
        <ele>22.6</ele>
        <time>2022-05-24 14:52:20</time>
      </trkpt>
      <trkpt lat="40.88888" lon="0.50471">
        <ele>22.6</ele>
        <time>2022-05-24 14:52:21</time>
      </trkpt>
      <trkpt lat="40.88883" lon="0.50475">
        <ele>22.6</ele>
        <time>2022-05-24 14:52:22</time>
      </trkpt>
      <trkpt lat="40.88879" lon="0.50478">
        <ele>22.6</ele>
        <time>2022-05-24 14:52:23</time>
      </trkpt>
      <trkpt lat="40.88874" lon="0.50482">
        <ele>22.6</ele>
        <time>2022-05-24 14:52:24</time>
      </trkpt>
      <trkpt lat="40.8887" lon="0.50486">
        <ele>22.6</ele>
        <time>2022-05-24 14:52:25</time>
      </trkpt>
      <trkpt lat="40.88865" lon="0.5049">
        <ele>22.6</ele>
        <time>2022-05-24 14:52:26</time>
      </trkpt>
      <trkpt lat="40.8886" lon="0.50494">
        <ele>22.6</ele>
        <time>2022-05-24 14:52:27</time>
      </trkpt>
      <trkpt lat="40.88856" lon="0.50498">
        <ele>22.6</ele>
        <time>2022-05-24 14:52:28</time>
      </trkpt>
      <trkpt lat="40.88851" lon="0.50502">
        <ele>22.6</ele>
        <time>2022-05-24 14:52:29</time>
      </trkpt>
      <trkpt lat="40.88847" lon="0.50506">
        <ele>22.6</ele>
        <time>2022-05-24 14:52:30</time>
      </trkpt>
      <trkpt lat="40.88842" lon="0.50509">
        <ele>22.6</ele>
        <time>2022-05-24 14:52:31</time>
      </trkpt>
      <trkpt lat="40.88837" lon="0.50513">
        <ele>22.6</ele>
        <time>2022-05-24 14:52:32</time>
      </trkpt>
      <trkpt lat="40.88833" lon="0.50517">
        <ele>22.6</ele>
        <time>2022-05-24 14:52:33</time>
      </trkpt>
      <trkpt lat="40.88828" lon="0.5052">
        <ele>22.6</ele>
        <time>2022-05-24 14:52:34</time>
      </trkpt>
      <trkpt lat="40.88823" lon="0.50524">
        <ele>22.6</ele>
        <time>2022-05-24 14:52:35</time>
      </trkpt>
      <trkpt lat="40.8882" lon="0.50527">
        <ele>22.6</ele>
        <time>2022-05-24 14:52:36</time>
      </trkpt>
      <trkpt lat="40.88815" lon="0.50531">
        <ele>22.6</ele>
        <time>2022-05-24 14:52:37</time>
      </trkpt>
      <trkpt lat="40.88811" lon="0.50534">
        <ele>22.6</ele>
        <time>2022-05-24 14:52:38</time>
      </trkpt>
      <trkpt lat="40.88806" lon="0.50538">
        <ele>22.4</ele>
        <time>2022-05-24 14:52:39</time>
      </trkpt>
      <trkpt lat="40.88802" lon="0.50542">
        <ele>22.4</ele>
        <time>2022-05-24 14:52:40</time>
      </trkpt>
      <trkpt lat="40.88797" lon="0.50546">
        <ele>22.4</ele>
        <time>2022-05-24 14:52:41</time>
      </trkpt>
      <trkpt lat="40.88792" lon="0.5055">
        <ele>22.4</ele>
        <time>2022-05-24 14:52:42</time>
      </trkpt>
      <trkpt lat="40.88787" lon="0.50555">
        <ele>22.4</ele>
        <time>2022-05-24 14:52:43</time>
      </trkpt>
      <trkpt lat="40.88782" lon="0.50559">
        <ele>22.2</ele>
        <time>2022-05-24 14:52:44</time>
      </trkpt>
      <trkpt lat="40.88777" lon="0.50563">
        <ele>22.2</ele>
        <time>2022-05-24 14:52:45</time>
      </trkpt>
      <trkpt lat="40.88771" lon="0.50568">
        <ele>22.4</ele>
        <time>2022-05-24 14:52:46</time>
      </trkpt>
      <trkpt lat="40.88766" lon="0.50573">
        <ele>22.4</ele>
        <time>2022-05-24 14:52:47</time>
      </trkpt>
      <trkpt lat="40.88761" lon="0.50577">
        <ele>22.4</ele>
        <time>2022-05-24 14:52:48</time>
      </trkpt>
      <trkpt lat="40.88757" lon="0.5058">
        <ele>22.4</ele>
        <time>2022-05-24 14:52:49</time>
      </trkpt>
      <trkpt lat="40.8875" lon="0.50585">
        <ele>22.4</ele>
        <time>2022-05-24 14:52:50</time>
      </trkpt>
      <trkpt lat="40.88745" lon="0.50589">
        <ele>22.2</ele>
        <time>2022-05-24 14:52:51</time>
      </trkpt>
      <trkpt lat="40.88739" lon="0.50593">
        <ele>22.2</ele>
        <time>2022-05-24 14:52:52</time>
      </trkpt>
      <trkpt lat="40.88734" lon="0.50597">
        <ele>22.2</ele>
        <time>2022-05-24 14:52:53</time>
      </trkpt>
      <trkpt lat="40.88728" lon="0.50601">
        <ele>22.2</ele>
        <time>2022-05-24 14:52:54</time>
      </trkpt>
      <trkpt lat="40.88723" lon="0.50605">
        <ele>22.2</ele>
        <time>2022-05-24 14:52:55</time>
      </trkpt>
      <trkpt lat="40.88718" lon="0.50608">
        <ele>22</ele>
        <time>2022-05-24 14:52:56</time>
      </trkpt>
      <trkpt lat="40.88712" lon="0.50612">
        <ele>22</ele>
        <time>2022-05-24 14:52:57</time>
      </trkpt>
      <trkpt lat="40.88707" lon="0.50616">
        <ele>22</ele>
        <time>2022-05-24 14:52:58</time>
      </trkpt>
      <trkpt lat="40.88702" lon="0.5062">
        <ele>22</ele>
        <time>2022-05-24 14:52:59</time>
      </trkpt>
      <trkpt lat="40.88697" lon="0.50624">
        <ele>22</ele>
        <time>2022-05-24 14:53:00</time>
      </trkpt>
      <trkpt lat="40.88692" lon="0.50628">
        <ele>22</ele>
        <time>2022-05-24 14:53:01</time>
      </trkpt>
      <trkpt lat="40.88687" lon="0.50632">
        <ele>22</ele>
        <time>2022-05-24 14:53:02</time>
      </trkpt>
      <trkpt lat="40.88682" lon="0.50636">
        <ele>22</ele>
        <time>2022-05-24 14:53:03</time>
      </trkpt>
      <trkpt lat="40.88676" lon="0.50639">
        <ele>21.8</ele>
        <time>2022-05-24 14:53:04</time>
      </trkpt>
      <trkpt lat="40.88672" lon="0.50643">
        <ele>21.8</ele>
        <time>2022-05-24 14:53:05</time>
      </trkpt>
      <trkpt lat="40.88667" lon="0.50647">
        <ele>21.8</ele>
        <time>2022-05-24 14:53:06</time>
      </trkpt>
      <trkpt lat="40.88662" lon="0.5065">
        <ele>21.8</ele>
        <time>2022-05-24 14:53:07</time>
      </trkpt>
      <trkpt lat="40.88657" lon="0.50655">
        <ele>21.8</ele>
        <time>2022-05-24 14:53:08</time>
      </trkpt>
      <trkpt lat="40.88653" lon="0.50658">
        <ele>21.8</ele>
        <time>2022-05-24 14:53:09</time>
      </trkpt>
      <trkpt lat="40.88647" lon="0.50662">
        <ele>22</ele>
        <time>2022-05-24 14:53:10</time>
      </trkpt>
      <trkpt lat="40.88642" lon="0.50666">
        <ele>22</ele>
        <time>2022-05-24 14:53:11</time>
      </trkpt>
      <trkpt lat="40.88637" lon="0.5067">
        <ele>22</ele>
        <time>2022-05-24 14:53:12</time>
      </trkpt>
      <trkpt lat="40.88632" lon="0.50674">
        <ele>22</ele>
        <time>2022-05-24 14:53:13</time>
      </trkpt>
      <trkpt lat="40.88627" lon="0.50678">
        <ele>21.8</ele>
        <time>2022-05-24 14:53:14</time>
      </trkpt>
      <trkpt lat="40.88622" lon="0.50682">
        <ele>21.8</ele>
        <time>2022-05-24 14:53:15</time>
      </trkpt>
      <trkpt lat="40.88616" lon="0.50685">
        <ele>21.8</ele>
        <time>2022-05-24 14:53:16</time>
      </trkpt>
      <trkpt lat="40.88611" lon="0.50688">
        <ele>21.8</ele>
        <time>2022-05-24 14:53:17</time>
      </trkpt>
      <trkpt lat="40.88605" lon="0.50692">
        <ele>21.8</ele>
        <time>2022-05-24 14:53:18</time>
      </trkpt>
      <trkpt lat="40.886" lon="0.50696">
        <ele>21.8</ele>
        <time>2022-05-24 14:53:19</time>
      </trkpt>
      <trkpt lat="40.88594" lon="0.507">
        <ele>21.6</ele>
        <time>2022-05-24 14:53:20</time>
      </trkpt>
      <trkpt lat="40.88589" lon="0.50704">
        <ele>21.6</ele>
        <time>2022-05-24 14:53:21</time>
      </trkpt>
      <trkpt lat="40.88584" lon="0.50708">
        <ele>21.6</ele>
        <time>2022-05-24 14:53:22</time>
      </trkpt>
      <trkpt lat="40.88579" lon="0.50711">
        <ele>21.4</ele>
        <time>2022-05-24 14:53:23</time>
      </trkpt>
      <trkpt lat="40.88574" lon="0.50715">
        <ele>21.4</ele>
        <time>2022-05-24 14:53:24</time>
      </trkpt>
      <trkpt lat="40.88569" lon="0.50719">
        <ele>21.4</ele>
        <time>2022-05-24 14:53:25</time>
      </trkpt>
      <trkpt lat="40.88564" lon="0.50722">
        <ele>21.4</ele>
        <time>2022-05-24 14:53:26</time>
      </trkpt>
      <trkpt lat="40.88559" lon="0.50726">
        <ele>21.4</ele>
        <time>2022-05-24 14:53:27</time>
      </trkpt>
      <trkpt lat="40.88553" lon="0.50729">
        <ele>21.2</ele>
        <time>2022-05-24 14:53:28</time>
      </trkpt>
      <trkpt lat="40.88548" lon="0.50732">
        <ele>21.2</ele>
        <time>2022-05-24 14:53:29</time>
      </trkpt>
      <trkpt lat="40.88543" lon="0.50736">
        <ele>21.2</ele>
        <time>2022-05-24 14:53:30</time>
      </trkpt>
      <trkpt lat="40.88538" lon="0.50739">
        <ele>21.4</ele>
        <time>2022-05-24 14:53:31</time>
      </trkpt>
      <trkpt lat="40.88533" lon="0.50741">
        <ele>21.4</ele>
        <time>2022-05-24 14:53:32</time>
      </trkpt>
      <trkpt lat="40.88529" lon="0.50744">
        <ele>21.4</ele>
        <time>2022-05-24 14:53:33</time>
      </trkpt>
      <trkpt lat="40.88524" lon="0.50746">
        <ele>21.4</ele>
        <time>2022-05-24 14:53:34</time>
      </trkpt>
      <trkpt lat="40.8852" lon="0.50748">
        <ele>21.6</ele>
        <time>2022-05-24 14:53:35</time>
      </trkpt>
      <trkpt lat="40.88514" lon="0.50751">
        <ele>21.6</ele>
        <time>2022-05-24 14:53:36</time>
      </trkpt>
      <trkpt lat="40.8851" lon="0.50753">
        <ele>21.6</ele>
        <time>2022-05-24 14:53:37</time>
      </trkpt>
      <trkpt lat="40.88505" lon="0.50756">
        <ele>21.6</ele>
        <time>2022-05-24 14:53:38</time>
      </trkpt>
      <trkpt lat="40.88501" lon="0.50758">
        <ele>21.6</ele>
        <time>2022-05-24 14:53:39</time>
      </trkpt>
      <trkpt lat="40.88496" lon="0.50761">
        <ele>21.6</ele>
        <time>2022-05-24 14:53:40</time>
      </trkpt>
      <trkpt lat="40.88491" lon="0.50763">
        <ele>21.8</ele>
        <time>2022-05-24 14:53:41</time>
      </trkpt>
      <trkpt lat="40.88487" lon="0.50765">
        <ele>21.8</ele>
        <time>2022-05-24 14:53:42</time>
      </trkpt>
      <trkpt lat="40.88483" lon="0.50768">
        <ele>21.8</ele>
        <time>2022-05-24 14:53:43</time>
      </trkpt>
      <trkpt lat="40.88477" lon="0.5077">
        <ele>21.8</ele>
        <time>2022-05-24 14:53:44</time>
      </trkpt>
      <trkpt lat="40.88473" lon="0.50772">
        <ele>21.8</ele>
        <time>2022-05-24 14:53:45</time>
      </trkpt>
      <trkpt lat="40.88468" lon="0.50774">
        <ele>21.8</ele>
        <time>2022-05-24 14:53:46</time>
      </trkpt>
      <trkpt lat="40.88464" lon="0.50777">
        <ele>21.8</ele>
        <time>2022-05-24 14:53:47</time>
      </trkpt>
      <trkpt lat="40.88459" lon="0.50778">
        <ele>22</ele>
        <time>2022-05-24 14:53:48</time>
      </trkpt>
      <trkpt lat="40.88455" lon="0.5078">
        <ele>22</ele>
        <time>2022-05-24 14:53:49</time>
      </trkpt>
      <trkpt lat="40.8845" lon="0.50782">
        <ele>22</ele>
        <time>2022-05-24 14:53:50</time>
      </trkpt>
      <trkpt lat="40.88446" lon="0.50784">
        <ele>22</ele>
        <time>2022-05-24 14:53:51</time>
      </trkpt>
      <trkpt lat="40.88441" lon="0.50785">
        <ele>22.2</ele>
        <time>2022-05-24 14:53:52</time>
      </trkpt>
      <trkpt lat="40.88437" lon="0.50786">
        <ele>22.2</ele>
        <time>2022-05-24 14:53:53</time>
      </trkpt>
      <trkpt lat="40.88432" lon="0.50787">
        <ele>22.4</ele>
        <time>2022-05-24 14:53:54</time>
      </trkpt>
      <trkpt lat="40.88428" lon="0.50788">
        <ele>22.6</ele>
        <time>2022-05-24 14:53:55</time>
      </trkpt>
      <trkpt lat="40.88424" lon="0.50789">
        <ele>22.8</ele>
        <time>2022-05-24 14:53:56</time>
      </trkpt>
      <trkpt lat="40.8842" lon="0.50791">
        <ele>23</ele>
        <time>2022-05-24 14:53:57</time>
      </trkpt>
      <trkpt lat="40.88416" lon="0.50793">
        <ele>23.2</ele>
        <time>2022-05-24 14:53:58</time>
      </trkpt>
      <trkpt lat="40.88412" lon="0.50795">
        <ele>23.4</ele>
        <time>2022-05-24 14:53:59</time>
      </trkpt>
      <trkpt lat="40.88408" lon="0.50797">
        <ele>23.6</ele>
        <time>2022-05-24 14:54:00</time>
      </trkpt>
      <trkpt lat="40.88403" lon="0.50798">
        <ele>23.8</ele>
        <time>2022-05-24 14:54:01</time>
      </trkpt>
      <trkpt lat="40.88399" lon="0.508">
        <ele>23.8</ele>
        <time>2022-05-24 14:54:02</time>
      </trkpt>
      <trkpt lat="40.88395" lon="0.50802">
        <ele>24</ele>
        <time>2022-05-24 14:54:03</time>
      </trkpt>
      <trkpt lat="40.88391" lon="0.50805">
        <ele>24.2</ele>
        <time>2022-05-24 14:54:04</time>
      </trkpt>
      <trkpt lat="40.88387" lon="0.50808">
        <ele>24.4</ele>
        <time>2022-05-24 14:54:05</time>
      </trkpt>
      <trkpt lat="40.88383" lon="0.50811">
        <ele>24.4</ele>
        <time>2022-05-24 14:54:06</time>
      </trkpt>
      <trkpt lat="40.88379" lon="0.50813">
        <ele>24.4</ele>
        <time>2022-05-24 14:54:07</time>
      </trkpt>
      <trkpt lat="40.88374" lon="0.50816">
        <ele>24.4</ele>
        <time>2022-05-24 14:54:08</time>
      </trkpt>
      <trkpt lat="40.8837" lon="0.50818">
        <ele>24.6</ele>
        <time>2022-05-24 14:54:09</time>
      </trkpt>
      <trkpt lat="40.88366" lon="0.50821">
        <ele>24.6</ele>
        <time>2022-05-24 14:54:10</time>
      </trkpt>
      <trkpt lat="40.88362" lon="0.50823">
        <ele>24.8</ele>
        <time>2022-05-24 14:54:11</time>
      </trkpt>
      <trkpt lat="40.88358" lon="0.50826">
        <ele>24.8</ele>
        <time>2022-05-24 14:54:12</time>
      </trkpt>
      <trkpt lat="40.88354" lon="0.50829">
        <ele>25</ele>
        <time>2022-05-24 14:54:13</time>
      </trkpt>
      <trkpt lat="40.8835" lon="0.50832">
        <ele>25</ele>
        <time>2022-05-24 14:54:14</time>
      </trkpt>
      <trkpt lat="40.88347" lon="0.50835">
        <ele>25</ele>
        <time>2022-05-24 14:54:15</time>
      </trkpt>
      <trkpt lat="40.88343" lon="0.50839">
        <ele>25.2</ele>
        <time>2022-05-24 14:54:16</time>
      </trkpt>
      <trkpt lat="40.8834" lon="0.50842">
        <ele>25.4</ele>
        <time>2022-05-24 14:54:17</time>
      </trkpt>
      <trkpt lat="40.88337" lon="0.50846">
        <ele>25.4</ele>
        <time>2022-05-24 14:54:18</time>
      </trkpt>
      <trkpt lat="40.88334" lon="0.5085">
        <ele>25.6</ele>
        <time>2022-05-24 14:54:19</time>
      </trkpt>
      <trkpt lat="40.88331" lon="0.50855">
        <ele>25.6</ele>
        <time>2022-05-24 14:54:20</time>
      </trkpt>
      <trkpt lat="40.88328" lon="0.50858">
        <ele>25.6</ele>
        <time>2022-05-24 14:54:21</time>
      </trkpt>
      <trkpt lat="40.88325" lon="0.50863">
        <ele>25.6</ele>
        <time>2022-05-24 14:54:22</time>
      </trkpt>
      <trkpt lat="40.88322" lon="0.50868">
        <ele>25.6</ele>
        <time>2022-05-24 14:54:23</time>
      </trkpt>
      <trkpt lat="40.88319" lon="0.50872">
        <ele>25.8</ele>
        <time>2022-05-24 14:54:24</time>
      </trkpt>
      <trkpt lat="40.88317" lon="0.50877">
        <ele>25.8</ele>
        <time>2022-05-24 14:54:25</time>
      </trkpt>
      <trkpt lat="40.88314" lon="0.50882">
        <ele>25.8</ele>
        <time>2022-05-24 14:54:26</time>
      </trkpt>
      <trkpt lat="40.88313" lon="0.50885">
        <ele>25.6</ele>
        <time>2022-05-24 14:54:27</time>
      </trkpt>
      <trkpt lat="40.88309" lon="0.50892">
        <ele>25.6</ele>
        <time>2022-05-24 14:54:28</time>
      </trkpt>
      <trkpt lat="40.88306" lon="0.50896">
        <ele>25.6</ele>
        <time>2022-05-24 14:54:29</time>
      </trkpt>
      <trkpt lat="40.88303" lon="0.50902">
        <ele>25.6</ele>
        <time>2022-05-24 14:54:30</time>
      </trkpt>
      <trkpt lat="40.88301" lon="0.50906">
        <ele>25.4</ele>
        <time>2022-05-24 14:54:31</time>
      </trkpt>
      <trkpt lat="40.88297" lon="0.50913">
        <ele>25.4</ele>
        <time>2022-05-24 14:54:32</time>
      </trkpt>
      <trkpt lat="40.88294" lon="0.50917">
        <ele>25.4</ele>
        <time>2022-05-24 14:54:33</time>
      </trkpt>
      <trkpt lat="40.8829" lon="0.50922">
        <ele>25.2</ele>
        <time>2022-05-24 14:54:34</time>
      </trkpt>
      <trkpt lat="40.88286" lon="0.50927">
        <ele>25</ele>
        <time>2022-05-24 14:54:35</time>
      </trkpt>
      <trkpt lat="40.88282" lon="0.50931">
        <ele>25</ele>
        <time>2022-05-24 14:54:36</time>
      </trkpt>
      <trkpt lat="40.88277" lon="0.50935">
        <ele>24.8</ele>
        <time>2022-05-24 14:54:37</time>
      </trkpt>
      <trkpt lat="40.88273" lon="0.50939">
        <ele>24.8</ele>
        <time>2022-05-24 14:54:38</time>
      </trkpt>
      <trkpt lat="40.8827" lon="0.50941">
        <ele>24.8</ele>
        <time>2022-05-24 14:54:39</time>
      </trkpt>
      <trkpt lat="40.88265" lon="0.50944">
        <ele>24.6</ele>
        <time>2022-05-24 14:54:40</time>
      </trkpt>
      <trkpt lat="40.8826" lon="0.50946">
        <ele>24.6</ele>
        <time>2022-05-24 14:54:41</time>
      </trkpt>
      <trkpt lat="40.88255" lon="0.50949">
        <ele>24.6</ele>
        <time>2022-05-24 14:54:42</time>
      </trkpt>
      <trkpt lat="40.8825" lon="0.5095">
        <ele>24.6</ele>
        <time>2022-05-24 14:54:43</time>
      </trkpt>
      <trkpt lat="40.88245" lon="0.50951">
        <ele>24.6</ele>
        <time>2022-05-24 14:54:44</time>
      </trkpt>
      <trkpt lat="40.8824" lon="0.50952">
        <ele>24.4</ele>
        <time>2022-05-24 14:54:45</time>
      </trkpt>
      <trkpt lat="40.88233" lon="0.50952">
        <ele>24.4</ele>
        <time>2022-05-24 14:54:46</time>
      </trkpt>
      <trkpt lat="40.88227" lon="0.50952">
        <ele>24.2</ele>
        <time>2022-05-24 14:54:47</time>
      </trkpt>
      <trkpt lat="40.88222" lon="0.50952">
        <ele>24.2</ele>
        <time>2022-05-24 14:54:48</time>
      </trkpt>
      <trkpt lat="40.88217" lon="0.50952">
        <ele>24.2</ele>
        <time>2022-05-24 14:54:49</time>
      </trkpt>
      <trkpt lat="40.88211" lon="0.50952">
        <ele>24</ele>
        <time>2022-05-24 14:54:50</time>
      </trkpt>
      <trkpt lat="40.88207" lon="0.50952">
        <ele>24</ele>
        <time>2022-05-24 14:54:51</time>
      </trkpt>
      <trkpt lat="40.88202" lon="0.50952">
        <ele>24</ele>
        <time>2022-05-24 14:54:52</time>
      </trkpt>
      <trkpt lat="40.88196" lon="0.50952">
        <ele>24</ele>
        <time>2022-05-24 14:54:53</time>
      </trkpt>
      <trkpt lat="40.88191" lon="0.50953">
        <ele>24</ele>
        <time>2022-05-24 14:54:54</time>
      </trkpt>
      <trkpt lat="40.88186" lon="0.50954">
        <ele>23.8</ele>
        <time>2022-05-24 14:54:55</time>
      </trkpt>
      <trkpt lat="40.88181" lon="0.50954">
        <ele>23.8</ele>
        <time>2022-05-24 14:54:56</time>
      </trkpt>
      <trkpt lat="40.88176" lon="0.50955">
        <ele>23.6</ele>
        <time>2022-05-24 14:54:57</time>
      </trkpt>
      <trkpt lat="40.8817" lon="0.50956">
        <ele>23.6</ele>
        <time>2022-05-24 14:54:58</time>
      </trkpt>
      <trkpt lat="40.88165" lon="0.50958">
        <ele>23.4</ele>
        <time>2022-05-24 14:54:59</time>
      </trkpt>
      <trkpt lat="40.8816" lon="0.5096">
        <ele>23.4</ele>
        <time>2022-05-24 14:55:00</time>
      </trkpt>
      <trkpt lat="40.88154" lon="0.50962">
        <ele>23.2</ele>
        <time>2022-05-24 14:55:01</time>
      </trkpt>
      <trkpt lat="40.88148" lon="0.50963">
        <ele>23.2</ele>
        <time>2022-05-24 14:55:02</time>
      </trkpt>
      <trkpt lat="40.88143" lon="0.50965">
        <ele>23</ele>
        <time>2022-05-24 14:55:03</time>
      </trkpt>
      <trkpt lat="40.88137" lon="0.50966">
        <ele>22.8</ele>
        <time>2022-05-24 14:55:04</time>
      </trkpt>
      <trkpt lat="40.88132" lon="0.50968">
        <ele>22.6</ele>
        <time>2022-05-24 14:55:05</time>
      </trkpt>
      <trkpt lat="40.88126" lon="0.5097">
        <ele>22.6</ele>
        <time>2022-05-24 14:55:06</time>
      </trkpt>
      <trkpt lat="40.88121" lon="0.50972">
        <ele>22.4</ele>
        <time>2022-05-24 14:55:07</time>
      </trkpt>
      <trkpt lat="40.88115" lon="0.50973">
        <ele>22.4</ele>
        <time>2022-05-24 14:55:08</time>
      </trkpt>
      <trkpt lat="40.88109" lon="0.50975">
        <ele>22.2</ele>
        <time>2022-05-24 14:55:09</time>
      </trkpt>
      <trkpt lat="40.88103" lon="0.50977">
        <ele>22</ele>
        <time>2022-05-24 14:55:10</time>
      </trkpt>
      <trkpt lat="40.88098" lon="0.50978">
        <ele>21.8</ele>
        <time>2022-05-24 14:55:11</time>
      </trkpt>
      <trkpt lat="40.88093" lon="0.5098">
        <ele>21.8</ele>
        <time>2022-05-24 14:55:12</time>
      </trkpt>
      <trkpt lat="40.88087" lon="0.50982">
        <ele>21.6</ele>
        <time>2022-05-24 14:55:13</time>
      </trkpt>
      <trkpt lat="40.88082" lon="0.50984">
        <ele>21.6</ele>
        <time>2022-05-24 14:55:14</time>
      </trkpt>
      <trkpt lat="40.88077" lon="0.50986">
        <ele>21.6</ele>
        <time>2022-05-24 14:55:15</time>
      </trkpt>
      <trkpt lat="40.88071" lon="0.50988">
        <ele>21.4</ele>
        <time>2022-05-24 14:55:16</time>
      </trkpt>
      <trkpt lat="40.88066" lon="0.50989">
        <ele>21.4</ele>
        <time>2022-05-24 14:55:17</time>
      </trkpt>
      <trkpt lat="40.88062" lon="0.50991">
        <ele>21.4</ele>
        <time>2022-05-24 14:55:18</time>
      </trkpt>
      <trkpt lat="40.88057" lon="0.50993">
        <ele>21.6</ele>
        <time>2022-05-24 14:55:19</time>
      </trkpt>
      <trkpt lat="40.88053" lon="0.50994">
        <ele>21.6</ele>
        <time>2022-05-24 14:55:20</time>
      </trkpt>
      <trkpt lat="40.88048" lon="0.50996">
        <ele>21.6</ele>
        <time>2022-05-24 14:55:21</time>
      </trkpt>
      <trkpt lat="40.88044" lon="0.50997">
        <ele>21.6</ele>
        <time>2022-05-24 14:55:22</time>
      </trkpt>
      <trkpt lat="40.88039" lon="0.50999">
        <ele>21.6</ele>
        <time>2022-05-24 14:55:23</time>
      </trkpt>
      <trkpt lat="40.88035" lon="0.51">
        <ele>21.6</ele>
        <time>2022-05-24 14:55:24</time>
      </trkpt>
      <trkpt lat="40.88029" lon="0.51002">
        <ele>21.6</ele>
        <time>2022-05-24 14:55:25</time>
      </trkpt>
      <trkpt lat="40.88025" lon="0.51003">
        <ele>21.6</ele>
        <time>2022-05-24 14:55:26</time>
      </trkpt>
      <trkpt lat="40.8802" lon="0.51005">
        <ele>21.6</ele>
        <time>2022-05-24 14:55:27</time>
      </trkpt>
      <trkpt lat="40.88016" lon="0.51007">
        <ele>21.6</ele>
        <time>2022-05-24 14:55:28</time>
      </trkpt>
      <trkpt lat="40.88011" lon="0.51008">
        <ele>21.6</ele>
        <time>2022-05-24 14:55:29</time>
      </trkpt>
      <trkpt lat="40.88006" lon="0.5101">
        <ele>21.6</ele>
        <time>2022-05-24 14:55:30</time>
      </trkpt>
      <trkpt lat="40.88002" lon="0.51012">
        <ele>21.6</ele>
        <time>2022-05-24 14:55:31</time>
      </trkpt>
      <trkpt lat="40.87997" lon="0.51013">
        <ele>21.6</ele>
        <time>2022-05-24 14:55:32</time>
      </trkpt>
      <trkpt lat="40.87992" lon="0.51014">
        <ele>21.6</ele>
        <time>2022-05-24 14:55:33</time>
      </trkpt>
      <trkpt lat="40.87987" lon="0.51016">
        <ele>21.6</ele>
        <time>2022-05-24 14:55:34</time>
      </trkpt>
      <trkpt lat="40.87982" lon="0.51017">
        <ele>21.6</ele>
        <time>2022-05-24 14:55:35</time>
      </trkpt>
      <trkpt lat="40.87977" lon="0.51019">
        <ele>21.6</ele>
        <time>2022-05-24 14:55:36</time>
      </trkpt>
      <trkpt lat="40.87973" lon="0.5102">
        <ele>21.6</ele>
        <time>2022-05-24 14:55:37</time>
      </trkpt>
      <trkpt lat="40.87968" lon="0.51022">
        <ele>21.6</ele>
        <time>2022-05-24 14:55:38</time>
      </trkpt>
      <trkpt lat="40.87962" lon="0.51024">
        <ele>21.6</ele>
        <time>2022-05-24 14:55:39</time>
      </trkpt>
      <trkpt lat="40.87957" lon="0.51025">
        <ele>21.6</ele>
        <time>2022-05-24 14:55:40</time>
      </trkpt>
      <trkpt lat="40.87953" lon="0.51027">
        <ele>21.6</ele>
        <time>2022-05-24 14:55:41</time>
      </trkpt>
      <trkpt lat="40.87948" lon="0.51028">
        <ele>21.6</ele>
        <time>2022-05-24 14:55:42</time>
      </trkpt>
      <trkpt lat="40.87943" lon="0.5103">
        <ele>21.6</ele>
        <time>2022-05-24 14:55:43</time>
      </trkpt>
      <trkpt lat="40.87938" lon="0.51031">
        <ele>21.6</ele>
        <time>2022-05-24 14:55:44</time>
      </trkpt>
      <trkpt lat="40.87933" lon="0.51032">
        <ele>21.6</ele>
        <time>2022-05-24 14:55:45</time>
      </trkpt>
      <trkpt lat="40.87928" lon="0.51034">
        <ele>21.6</ele>
        <time>2022-05-24 14:55:46</time>
      </trkpt>
      <trkpt lat="40.87923" lon="0.51036">
        <ele>21.8</ele>
        <time>2022-05-24 14:55:47</time>
      </trkpt>
      <trkpt lat="40.87918" lon="0.51038">
        <ele>21.8</ele>
        <time>2022-05-24 14:55:48</time>
      </trkpt>
      <trkpt lat="40.87914" lon="0.5104">
        <ele>21.8</ele>
        <time>2022-05-24 14:55:49</time>
      </trkpt>
      <trkpt lat="40.87909" lon="0.51042">
        <ele>21.8</ele>
        <time>2022-05-24 14:55:50</time>
      </trkpt>
      <trkpt lat="40.87905" lon="0.51044">
        <ele>21.8</ele>
        <time>2022-05-24 14:55:51</time>
      </trkpt>
      <trkpt lat="40.879" lon="0.51046">
        <ele>21.8</ele>
        <time>2022-05-24 14:55:52</time>
      </trkpt>
      <trkpt lat="40.87896" lon="0.51048">
        <ele>21.8</ele>
        <time>2022-05-24 14:55:53</time>
      </trkpt>
      <trkpt lat="40.87892" lon="0.5105">
        <ele>21.8</ele>
        <time>2022-05-24 14:55:54</time>
      </trkpt>
      <trkpt lat="40.87887" lon="0.51052">
        <ele>21.8</ele>
        <time>2022-05-24 14:55:55</time>
      </trkpt>
      <trkpt lat="40.87883" lon="0.51054">
        <ele>21.8</ele>
        <time>2022-05-24 14:55:56</time>
      </trkpt>
      <trkpt lat="40.87878" lon="0.51057">
        <ele>21.8</ele>
        <time>2022-05-24 14:55:57</time>
      </trkpt>
      <trkpt lat="40.87874" lon="0.51059">
        <ele>21.8</ele>
        <time>2022-05-24 14:55:58</time>
      </trkpt>
      <trkpt lat="40.87868" lon="0.51061">
        <ele>21.8</ele>
        <time>2022-05-24 14:55:59</time>
      </trkpt>
      <trkpt lat="40.87864" lon="0.51063">
        <ele>22</ele>
        <time>2022-05-24 14:56:00</time>
      </trkpt>
      <trkpt lat="40.87859" lon="0.51065">
        <ele>22</ele>
        <time>2022-05-24 14:56:01</time>
      </trkpt>
      <trkpt lat="40.87855" lon="0.51067">
        <ele>22</ele>
        <time>2022-05-24 14:56:02</time>
      </trkpt>
      <trkpt lat="40.87851" lon="0.51069">
        <ele>22</ele>
        <time>2022-05-24 14:56:03</time>
      </trkpt>
      <trkpt lat="40.87846" lon="0.51071">
        <ele>22</ele>
        <time>2022-05-24 14:56:04</time>
      </trkpt>
      <trkpt lat="40.87841" lon="0.51073">
        <ele>22.2</ele>
        <time>2022-05-24 14:56:05</time>
      </trkpt>
      <trkpt lat="40.87837" lon="0.51075">
        <ele>22.2</ele>
        <time>2022-05-24 14:56:06</time>
      </trkpt>
      <trkpt lat="40.87833" lon="0.51077">
        <ele>22.2</ele>
        <time>2022-05-24 14:56:07</time>
      </trkpt>
      <trkpt lat="40.87829" lon="0.5108">
        <ele>22.4</ele>
        <time>2022-05-24 14:56:08</time>
      </trkpt>
      <trkpt lat="40.87825" lon="0.51083">
        <ele>22.4</ele>
        <time>2022-05-24 14:56:09</time>
      </trkpt>
      <trkpt lat="40.87821" lon="0.51085">
        <ele>22.4</ele>
        <time>2022-05-24 14:56:10</time>
      </trkpt>
      <trkpt lat="40.87817" lon="0.51089">
        <ele>22.4</ele>
        <time>2022-05-24 14:56:11</time>
      </trkpt>
      <trkpt lat="40.87812" lon="0.51092">
        <ele>22.4</ele>
        <time>2022-05-24 14:56:12</time>
      </trkpt>
      <trkpt lat="40.87809" lon="0.51095">
        <ele>22.4</ele>
        <time>2022-05-24 14:56:13</time>
      </trkpt>
      <trkpt lat="40.87804" lon="0.51099">
        <ele>22.4</ele>
        <time>2022-05-24 14:56:14</time>
      </trkpt>
      <trkpt lat="40.87801" lon="0.51102">
        <ele>22.4</ele>
        <time>2022-05-24 14:56:15</time>
      </trkpt>
      <trkpt lat="40.87797" lon="0.51106">
        <ele>22.6</ele>
        <time>2022-05-24 14:56:16</time>
      </trkpt>
      <trkpt lat="40.87793" lon="0.5111">
        <ele>22.6</ele>
        <time>2022-05-24 14:56:17</time>
      </trkpt>
      <trkpt lat="40.8779" lon="0.51114">
        <ele>22.4</ele>
        <time>2022-05-24 14:56:18</time>
      </trkpt>
      <trkpt lat="40.87786" lon="0.51119">
        <ele>22.6</ele>
        <time>2022-05-24 14:56:19</time>
      </trkpt>
      <trkpt lat="40.87783" lon="0.51123">
        <ele>22.6</ele>
        <time>2022-05-24 14:56:20</time>
      </trkpt>
      <trkpt lat="40.87779" lon="0.51127">
        <ele>22.6</ele>
        <time>2022-05-24 14:56:21</time>
      </trkpt>
      <trkpt lat="40.87776" lon="0.51132">
        <ele>22.6</ele>
        <time>2022-05-24 14:56:22</time>
      </trkpt>
      <trkpt lat="40.87773" lon="0.51137">
        <ele>22.6</ele>
        <time>2022-05-24 14:56:23</time>
      </trkpt>
      <trkpt lat="40.8777" lon="0.51142">
        <ele>22.6</ele>
        <time>2022-05-24 14:56:24</time>
      </trkpt>
      <trkpt lat="40.87767" lon="0.51147">
        <ele>22.6</ele>
        <time>2022-05-24 14:56:25</time>
      </trkpt>
      <trkpt lat="40.87764" lon="0.51152">
        <ele>22.6</ele>
        <time>2022-05-24 14:56:26</time>
      </trkpt>
      <trkpt lat="40.87761" lon="0.51158">
        <ele>22.4</ele>
        <time>2022-05-24 14:56:27</time>
      </trkpt>
      <trkpt lat="40.87759" lon="0.51163">
        <ele>22.4</ele>
        <time>2022-05-24 14:56:28</time>
      </trkpt>
      <trkpt lat="40.87756" lon="0.51169">
        <ele>22.4</ele>
        <time>2022-05-24 14:56:29</time>
      </trkpt>
      <trkpt lat="40.87753" lon="0.51175">
        <ele>22.2</ele>
        <time>2022-05-24 14:56:30</time>
      </trkpt>
      <trkpt lat="40.8775" lon="0.51181">
        <ele>22.2</ele>
        <time>2022-05-24 14:56:31</time>
      </trkpt>
      <trkpt lat="40.87748" lon="0.51186">
        <ele>22.2</ele>
        <time>2022-05-24 14:56:32</time>
      </trkpt>
      <trkpt lat="40.87745" lon="0.51193">
        <ele>22</ele>
        <time>2022-05-24 14:56:33</time>
      </trkpt>
      <trkpt lat="40.87743" lon="0.51198">
        <ele>22</ele>
        <time>2022-05-24 14:56:34</time>
      </trkpt>
      <trkpt lat="40.8774" lon="0.51205">
        <ele>21.8</ele>
        <time>2022-05-24 14:56:35</time>
      </trkpt>
      <trkpt lat="40.87738" lon="0.51211">
        <ele>21.8</ele>
        <time>2022-05-24 14:56:36</time>
      </trkpt>
      <trkpt lat="40.87735" lon="0.51217">
        <ele>21.8</ele>
        <time>2022-05-24 14:56:37</time>
      </trkpt>
      <trkpt lat="40.87733" lon="0.51223">
        <ele>21.6</ele>
        <time>2022-05-24 14:56:38</time>
      </trkpt>
      <trkpt lat="40.8773" lon="0.51229">
        <ele>21.6</ele>
        <time>2022-05-24 14:56:39</time>
      </trkpt>
      <trkpt lat="40.87727" lon="0.51235">
        <ele>21.6</ele>
        <time>2022-05-24 14:56:40</time>
      </trkpt>
      <trkpt lat="40.87725" lon="0.5124">
        <ele>21.6</ele>
        <time>2022-05-24 14:56:41</time>
      </trkpt>
      <trkpt lat="40.87722" lon="0.51246">
        <ele>21.6</ele>
        <time>2022-05-24 14:56:42</time>
      </trkpt>
      <trkpt lat="40.87719" lon="0.51251">
        <ele>21.6</ele>
        <time>2022-05-24 14:56:43</time>
      </trkpt>
      <trkpt lat="40.87716" lon="0.51256">
        <ele>21.6</ele>
        <time>2022-05-24 14:56:44</time>
      </trkpt>
      <trkpt lat="40.87712" lon="0.5126">
        <ele>21.6</ele>
        <time>2022-05-24 14:56:45</time>
      </trkpt>
      <trkpt lat="40.87708" lon="0.51265">
        <ele>21.6</ele>
        <time>2022-05-24 14:56:46</time>
      </trkpt>
      <trkpt lat="40.87704" lon="0.51269">
        <ele>21.6</ele>
        <time>2022-05-24 14:56:47</time>
      </trkpt>
      <trkpt lat="40.877" lon="0.51273">
        <ele>21.6</ele>
        <time>2022-05-24 14:56:48</time>
      </trkpt>
      <trkpt lat="40.87696" lon="0.51277">
        <ele>21.6</ele>
        <time>2022-05-24 14:56:49</time>
      </trkpt>
      <trkpt lat="40.87693" lon="0.51281">
        <ele>21.6</ele>
        <time>2022-05-24 14:56:50</time>
      </trkpt>
      <trkpt lat="40.87689" lon="0.51285">
        <ele>21.4</ele>
        <time>2022-05-24 14:56:51</time>
      </trkpt>
      <trkpt lat="40.87685" lon="0.51289">
        <ele>21.4</ele>
        <time>2022-05-24 14:56:52</time>
      </trkpt>
      <trkpt lat="40.8768" lon="0.51293">
        <ele>21.4</ele>
        <time>2022-05-24 14:56:53</time>
      </trkpt>
      <trkpt lat="40.87676" lon="0.51297">
        <ele>21.4</ele>
        <time>2022-05-24 14:56:54</time>
      </trkpt>
      <trkpt lat="40.87672" lon="0.51301">
        <ele>21.4</ele>
        <time>2022-05-24 14:56:55</time>
      </trkpt>
      <trkpt lat="40.87667" lon="0.51305">
        <ele>21.4</ele>
        <time>2022-05-24 14:56:56</time>
      </trkpt>
      <trkpt lat="40.87662" lon="0.5131">
        <ele>21.4</ele>
        <time>2022-05-24 14:56:57</time>
      </trkpt>
      <trkpt lat="40.87658" lon="0.51314">
        <ele>21.4</ele>
        <time>2022-05-24 14:56:58</time>
      </trkpt>
      <trkpt lat="40.87653" lon="0.51318">
        <ele>21.4</ele>
        <time>2022-05-24 14:56:59</time>
      </trkpt>
      <trkpt lat="40.87649" lon="0.51322">
        <ele>21.4</ele>
        <time>2022-05-24 14:57:00</time>
      </trkpt>
      <trkpt lat="40.87645" lon="0.51326">
        <ele>21.2</ele>
        <time>2022-05-24 14:57:01</time>
      </trkpt>
      <trkpt lat="40.8764" lon="0.5133">
        <ele>21.2</ele>
        <time>2022-05-24 14:57:02</time>
      </trkpt>
      <trkpt lat="40.87635" lon="0.51335">
        <ele>21.2</ele>
        <time>2022-05-24 14:57:03</time>
      </trkpt>
      <trkpt lat="40.8763" lon="0.51339">
        <ele>21.2</ele>
        <time>2022-05-24 14:57:04</time>
      </trkpt>
      <trkpt lat="40.87624" lon="0.51343">
        <ele>21.2</ele>
        <time>2022-05-24 14:57:05</time>
      </trkpt>
      <trkpt lat="40.8762" lon="0.51348">
        <ele>21</ele>
        <time>2022-05-24 14:57:06</time>
      </trkpt>
      <trkpt lat="40.87615" lon="0.51352">
        <ele>21</ele>
        <time>2022-05-24 14:57:07</time>
      </trkpt>
      <trkpt lat="40.8761" lon="0.51357">
        <ele>21</ele>
        <time>2022-05-24 14:57:08</time>
      </trkpt>
      <trkpt lat="40.87606" lon="0.51362">
        <ele>21</ele>
        <time>2022-05-24 14:57:09</time>
      </trkpt>
      <trkpt lat="40.87601" lon="0.51366">
        <ele>21</ele>
        <time>2022-05-24 14:57:10</time>
      </trkpt>
      <trkpt lat="40.87597" lon="0.51371">
        <ele>21</ele>
        <time>2022-05-24 14:57:11</time>
      </trkpt>
      <trkpt lat="40.87592" lon="0.51375">
        <ele>21</ele>
        <time>2022-05-24 14:57:12</time>
      </trkpt>
      <trkpt lat="40.87587" lon="0.5138">
        <ele>21</ele>
        <time>2022-05-24 14:57:13</time>
      </trkpt>
      <trkpt lat="40.87583" lon="0.51383">
        <ele>21</ele>
        <time>2022-05-24 14:57:14</time>
      </trkpt>
      <trkpt lat="40.87577" lon="0.51388">
        <ele>21</ele>
        <time>2022-05-24 14:57:15</time>
      </trkpt>
      <trkpt lat="40.87572" lon="0.51392">
        <ele>21</ele>
        <time>2022-05-24 14:57:16</time>
      </trkpt>
      <trkpt lat="40.87568" lon="0.51397">
        <ele>21</ele>
        <time>2022-05-24 14:57:17</time>
      </trkpt>
      <trkpt lat="40.87563" lon="0.51401">
        <ele>20.8</ele>
        <time>2022-05-24 14:57:18</time>
      </trkpt>
      <trkpt lat="40.87557" lon="0.51405">
        <ele>20.8</ele>
        <time>2022-05-24 14:57:19</time>
      </trkpt>
      <trkpt lat="40.87553" lon="0.51409">
        <ele>20.8</ele>
        <time>2022-05-24 14:57:20</time>
      </trkpt>
      <trkpt lat="40.87547" lon="0.51414">
        <ele>20.8</ele>
        <time>2022-05-24 14:57:21</time>
      </trkpt>
      <trkpt lat="40.87542" lon="0.51418">
        <ele>20.8</ele>
        <time>2022-05-24 14:57:22</time>
      </trkpt>
      <trkpt lat="40.87537" lon="0.51422">
        <ele>20.8</ele>
        <time>2022-05-24 14:57:23</time>
      </trkpt>
      <trkpt lat="40.87532" lon="0.51426">
        <ele>20.8</ele>
        <time>2022-05-24 14:57:24</time>
      </trkpt>
      <trkpt lat="40.87526" lon="0.51431">
        <ele>20.8</ele>
        <time>2022-05-24 14:57:25</time>
      </trkpt>
      <trkpt lat="40.87521" lon="0.51435">
        <ele>20.8</ele>
        <time>2022-05-24 14:57:26</time>
      </trkpt>
      <trkpt lat="40.87516" lon="0.51439">
        <ele>20.8</ele>
        <time>2022-05-24 14:57:27</time>
      </trkpt>
      <trkpt lat="40.87512" lon="0.51442">
        <ele>20.8</ele>
        <time>2022-05-24 14:57:28</time>
      </trkpt>
      <trkpt lat="40.87506" lon="0.51446">
        <ele>20.8</ele>
        <time>2022-05-24 14:57:29</time>
      </trkpt>
      <trkpt lat="40.87502" lon="0.5145">
        <ele>20.8</ele>
        <time>2022-05-24 14:57:30</time>
      </trkpt>
      <trkpt lat="40.87496" lon="0.51455">
        <ele>20.8</ele>
        <time>2022-05-24 14:57:31</time>
      </trkpt>
      <trkpt lat="40.87491" lon="0.51458">
        <ele>20.8</ele>
        <time>2022-05-24 14:57:32</time>
      </trkpt>
      <trkpt lat="40.87486" lon="0.51462">
        <ele>20.8</ele>
        <time>2022-05-24 14:57:33</time>
      </trkpt>
      <trkpt lat="40.8748" lon="0.51467">
        <ele>20.6</ele>
        <time>2022-05-24 14:57:34</time>
      </trkpt>
      <trkpt lat="40.87475" lon="0.51471">
        <ele>20.6</ele>
        <time>2022-05-24 14:57:35</time>
      </trkpt>
      <trkpt lat="40.8747" lon="0.51475">
        <ele>20.6</ele>
        <time>2022-05-24 14:57:36</time>
      </trkpt>
      <trkpt lat="40.87465" lon="0.51479">
        <ele>20.6</ele>
        <time>2022-05-24 14:57:37</time>
      </trkpt>
      <trkpt lat="40.87461" lon="0.51483">
        <ele>20.6</ele>
        <time>2022-05-24 14:57:38</time>
      </trkpt>
      <trkpt lat="40.87455" lon="0.51487">
        <ele>20.6</ele>
        <time>2022-05-24 14:57:39</time>
      </trkpt>
      <trkpt lat="40.87451" lon="0.5149">
        <ele>20.6</ele>
        <time>2022-05-24 14:57:40</time>
      </trkpt>
      <trkpt lat="40.87445" lon="0.51494">
        <ele>20.6</ele>
        <time>2022-05-24 14:57:41</time>
      </trkpt>
      <trkpt lat="40.87441" lon="0.51498">
        <ele>20.8</ele>
        <time>2022-05-24 14:57:42</time>
      </trkpt>
      <trkpt lat="40.87436" lon="0.51502">
        <ele>20.8</ele>
        <time>2022-05-24 14:57:43</time>
      </trkpt>
      <trkpt lat="40.87431" lon="0.51506">
        <ele>20.8</ele>
        <time>2022-05-24 14:57:44</time>
      </trkpt>
      <trkpt lat="40.87427" lon="0.51511">
        <ele>20.8</ele>
        <time>2022-05-24 14:57:45</time>
      </trkpt>
      <trkpt lat="40.87423" lon="0.51515">
        <ele>20.8</ele>
        <time>2022-05-24 14:57:46</time>
      </trkpt>
      <trkpt lat="40.87419" lon="0.51521">
        <ele>20.8</ele>
        <time>2022-05-24 14:57:47</time>
      </trkpt>
      <trkpt lat="40.87415" lon="0.51525">
        <ele>20.8</ele>
        <time>2022-05-24 14:57:48</time>
      </trkpt>
      <trkpt lat="40.87411" lon="0.51531">
        <ele>20.8</ele>
        <time>2022-05-24 14:57:49</time>
      </trkpt>
      <trkpt lat="40.87408" lon="0.51536">
        <ele>20.8</ele>
        <time>2022-05-24 14:57:50</time>
      </trkpt>
      <trkpt lat="40.87404" lon="0.51542">
        <ele>20.8</ele>
        <time>2022-05-24 14:57:51</time>
      </trkpt>
      <trkpt lat="40.87401" lon="0.51547">
        <ele>20.8</ele>
        <time>2022-05-24 14:57:52</time>
      </trkpt>
      <trkpt lat="40.87397" lon="0.51553">
        <ele>20.8</ele>
        <time>2022-05-24 14:57:53</time>
      </trkpt>
      <trkpt lat="40.87394" lon="0.51558">
        <ele>20.8</ele>
        <time>2022-05-24 14:57:54</time>
      </trkpt>
      <trkpt lat="40.8739" lon="0.51563">
        <ele>20.8</ele>
        <time>2022-05-24 14:57:55</time>
      </trkpt>
      <trkpt lat="40.87387" lon="0.51568">
        <ele>20.6</ele>
        <time>2022-05-24 14:57:56</time>
      </trkpt>
      <trkpt lat="40.87383" lon="0.51574">
        <ele>20.6</ele>
        <time>2022-05-24 14:57:57</time>
      </trkpt>
      <trkpt lat="40.87378" lon="0.5158">
        <ele>20.6</ele>
        <time>2022-05-24 14:57:58</time>
      </trkpt>
      <trkpt lat="40.87375" lon="0.51585">
        <ele>20.6</ele>
        <time>2022-05-24 14:57:59</time>
      </trkpt>
      <trkpt lat="40.87372" lon="0.51589">
        <ele>20.6</ele>
        <time>2022-05-24 14:58:00</time>
      </trkpt>
      <trkpt lat="40.87368" lon="0.51595">
        <ele>20.6</ele>
        <time>2022-05-24 14:58:01</time>
      </trkpt>
      <trkpt lat="40.87364" lon="0.516">
        <ele>20.6</ele>
        <time>2022-05-24 14:58:02</time>
      </trkpt>
      <trkpt lat="40.8736" lon="0.51605">
        <ele>20.6</ele>
        <time>2022-05-24 14:58:03</time>
      </trkpt>
      <trkpt lat="40.87356" lon="0.5161">
        <ele>20.6</ele>
        <time>2022-05-24 14:58:04</time>
      </trkpt>
      <trkpt lat="40.87352" lon="0.51615">
        <ele>20.6</ele>
        <time>2022-05-24 14:58:05</time>
      </trkpt>
      <trkpt lat="40.87347" lon="0.51618">
        <ele>20.4</ele>
        <time>2022-05-24 14:58:06</time>
      </trkpt>
      <trkpt lat="40.87342" lon="0.51622">
        <ele>20.4</ele>
        <time>2022-05-24 14:58:07</time>
      </trkpt>
      <trkpt lat="40.87338" lon="0.51626">
        <ele>20.4</ele>
        <time>2022-05-24 14:58:08</time>
      </trkpt>
      <trkpt lat="40.87334" lon="0.5163">
        <ele>20.6</ele>
        <time>2022-05-24 14:58:09</time>
      </trkpt>
      <trkpt lat="40.8733" lon="0.51634">
        <ele>20.6</ele>
        <time>2022-05-24 14:58:10</time>
      </trkpt>
      <trkpt lat="40.87325" lon="0.51639">
        <ele>20.6</ele>
        <time>2022-05-24 14:58:11</time>
      </trkpt>
      <trkpt lat="40.87321" lon="0.51642">
        <ele>20.6</ele>
        <time>2022-05-24 14:58:12</time>
      </trkpt>
      <trkpt lat="40.87317" lon="0.51646">
        <ele>20.6</ele>
        <time>2022-05-24 14:58:13</time>
      </trkpt>
      <trkpt lat="40.87313" lon="0.5165">
        <ele>20.6</ele>
        <time>2022-05-24 14:58:14</time>
      </trkpt>
      <trkpt lat="40.87308" lon="0.51654">
        <ele>20.6</ele>
        <time>2022-05-24 14:58:15</time>
      </trkpt>
      <trkpt lat="40.87304" lon="0.51658">
        <ele>20.6</ele>
        <time>2022-05-24 14:58:16</time>
      </trkpt>
      <trkpt lat="40.87299" lon="0.51663">
        <ele>20.6</ele>
        <time>2022-05-24 14:58:17</time>
      </trkpt>
      <trkpt lat="40.87295" lon="0.51666">
        <ele>20.6</ele>
        <time>2022-05-24 14:58:18</time>
      </trkpt>
      <trkpt lat="40.8729" lon="0.5167">
        <ele>20.6</ele>
        <time>2022-05-24 14:58:19</time>
      </trkpt>
      <trkpt lat="40.87286" lon="0.51674">
        <ele>20.8</ele>
        <time>2022-05-24 14:58:20</time>
      </trkpt>
      <trkpt lat="40.87281" lon="0.51679">
        <ele>20.8</ele>
        <time>2022-05-24 14:58:21</time>
      </trkpt>
      <trkpt lat="40.87277" lon="0.51683">
        <ele>20.8</ele>
        <time>2022-05-24 14:58:22</time>
      </trkpt>
      <trkpt lat="40.87272" lon="0.51686">
        <ele>20.8</ele>
        <time>2022-05-24 14:58:23</time>
      </trkpt>
      <trkpt lat="40.87268" lon="0.5169">
        <ele>21</ele>
        <time>2022-05-24 14:58:24</time>
      </trkpt>
      <trkpt lat="40.87263" lon="0.51695">
        <ele>21</ele>
        <time>2022-05-24 14:58:25</time>
      </trkpt>
      <trkpt lat="40.87259" lon="0.51699">
        <ele>21</ele>
        <time>2022-05-24 14:58:26</time>
      </trkpt>
      <trkpt lat="40.87255" lon="0.51703">
        <ele>21</ele>
        <time>2022-05-24 14:58:27</time>
      </trkpt>
      <trkpt lat="40.87251" lon="0.51707">
        <ele>21</ele>
        <time>2022-05-24 14:58:28</time>
      </trkpt>
      <trkpt lat="40.87247" lon="0.51712">
        <ele>21</ele>
        <time>2022-05-24 14:58:29</time>
      </trkpt>
      <trkpt lat="40.87243" lon="0.51716">
        <ele>21</ele>
        <time>2022-05-24 14:58:30</time>
      </trkpt>
      <trkpt lat="40.87239" lon="0.51722">
        <ele>21</ele>
        <time>2022-05-24 14:58:31</time>
      </trkpt>
      <trkpt lat="40.87236" lon="0.51726">
        <ele>21</ele>
        <time>2022-05-24 14:58:32</time>
      </trkpt>
      <trkpt lat="40.87233" lon="0.51733">
        <ele>21</ele>
        <time>2022-05-24 14:58:33</time>
      </trkpt>
      <trkpt lat="40.87229" lon="0.51738">
        <ele>21</ele>
        <time>2022-05-24 14:58:34</time>
      </trkpt>
      <trkpt lat="40.87226" lon="0.51744">
        <ele>21</ele>
        <time>2022-05-24 14:58:35</time>
      </trkpt>
      <trkpt lat="40.87223" lon="0.5175">
        <ele>21.2</ele>
        <time>2022-05-24 14:58:36</time>
      </trkpt>
      <trkpt lat="40.8722" lon="0.51756">
        <ele>21.2</ele>
        <time>2022-05-24 14:58:37</time>
      </trkpt>
      <trkpt lat="40.87217" lon="0.51762">
        <ele>21.2</ele>
        <time>2022-05-24 14:58:38</time>
      </trkpt>
      <trkpt lat="40.87214" lon="0.51768">
        <ele>21.2</ele>
        <time>2022-05-24 14:58:39</time>
      </trkpt>
      <trkpt lat="40.87211" lon="0.51773">
        <ele>21.2</ele>
        <time>2022-05-24 14:58:40</time>
      </trkpt>
      <trkpt lat="40.87208" lon="0.51779">
        <ele>21.4</ele>
        <time>2022-05-24 14:58:41</time>
      </trkpt>
      <trkpt lat="40.87205" lon="0.51784">
        <ele>21.4</ele>
        <time>2022-05-24 14:58:42</time>
      </trkpt>
      <trkpt lat="40.87202" lon="0.51789">
        <ele>21.4</ele>
        <time>2022-05-24 14:58:43</time>
      </trkpt>
      <trkpt lat="40.87199" lon="0.51795">
        <ele>21.4</ele>
        <time>2022-05-24 14:58:44</time>
      </trkpt>
      <trkpt lat="40.87196" lon="0.51801">
        <ele>21.4</ele>
        <time>2022-05-24 14:58:45</time>
      </trkpt>
      <trkpt lat="40.87193" lon="0.51807">
        <ele>21.2</ele>
        <time>2022-05-24 14:58:46</time>
      </trkpt>
      <trkpt lat="40.8719" lon="0.51813">
        <ele>21.2</ele>
        <time>2022-05-24 14:58:47</time>
      </trkpt>
      <trkpt lat="40.87186" lon="0.51818">
        <ele>21.2</ele>
        <time>2022-05-24 14:58:48</time>
      </trkpt>
      <trkpt lat="40.87183" lon="0.51825">
        <ele>21.2</ele>
        <time>2022-05-24 14:58:49</time>
      </trkpt>
      <trkpt lat="40.8718" lon="0.51831">
        <ele>21</ele>
        <time>2022-05-24 14:58:50</time>
      </trkpt>
      <trkpt lat="40.87177" lon="0.51838">
        <ele>21</ele>
        <time>2022-05-24 14:58:51</time>
      </trkpt>
      <trkpt lat="40.87174" lon="0.51844">
        <ele>21</ele>
        <time>2022-05-24 14:58:52</time>
      </trkpt>
      <trkpt lat="40.8717" lon="0.5185">
        <ele>21</ele>
        <time>2022-05-24 14:58:53</time>
      </trkpt>
      <trkpt lat="40.87167" lon="0.51854">
        <ele>21</ele>
        <time>2022-05-24 14:58:54</time>
      </trkpt>
      <trkpt lat="40.87163" lon="0.5186">
        <ele>21</ele>
        <time>2022-05-24 14:58:55</time>
      </trkpt>
      <trkpt lat="40.87159" lon="0.51865">
        <ele>21</ele>
        <time>2022-05-24 14:58:56</time>
      </trkpt>
      <trkpt lat="40.87156" lon="0.5187">
        <ele>21</ele>
        <time>2022-05-24 14:58:57</time>
      </trkpt>
      <trkpt lat="40.87152" lon="0.51874">
        <ele>21</ele>
        <time>2022-05-24 14:58:58</time>
      </trkpt>
      <trkpt lat="40.87148" lon="0.5188">
        <ele>21</ele>
        <time>2022-05-24 14:58:59</time>
      </trkpt>
      <trkpt lat="40.87145" lon="0.51885">
        <ele>21</ele>
        <time>2022-05-24 14:59:00</time>
      </trkpt>
      <trkpt lat="40.87141" lon="0.51891">
        <ele>21</ele>
        <time>2022-05-24 14:59:01</time>
      </trkpt>
      <trkpt lat="40.87137" lon="0.51895">
        <ele>21</ele>
        <time>2022-05-24 14:59:02</time>
      </trkpt>
      <trkpt lat="40.87132" lon="0.51901">
        <ele>20.8</ele>
        <time>2022-05-24 14:59:03</time>
      </trkpt>
      <trkpt lat="40.87129" lon="0.51905">
        <ele>20.8</ele>
        <time>2022-05-24 14:59:04</time>
      </trkpt>
      <trkpt lat="40.87125" lon="0.51911">
        <ele>20.8</ele>
        <time>2022-05-24 14:59:05</time>
      </trkpt>
      <trkpt lat="40.87121" lon="0.51916">
        <ele>20.8</ele>
        <time>2022-05-24 14:59:06</time>
      </trkpt>
      <trkpt lat="40.87117" lon="0.51922">
        <ele>20.8</ele>
        <time>2022-05-24 14:59:07</time>
      </trkpt>
      <trkpt lat="40.87113" lon="0.51927">
        <ele>20.8</ele>
        <time>2022-05-24 14:59:08</time>
      </trkpt>
      <trkpt lat="40.8711" lon="0.51932">
        <ele>21</ele>
        <time>2022-05-24 14:59:09</time>
      </trkpt>
      <trkpt lat="40.87107" lon="0.51937">
        <ele>21</ele>
        <time>2022-05-24 14:59:10</time>
      </trkpt>
      <trkpt lat="40.87103" lon="0.51942">
        <ele>21</ele>
        <time>2022-05-24 14:59:11</time>
      </trkpt>
      <trkpt lat="40.87099" lon="0.51947">
        <ele>21</ele>
        <time>2022-05-24 14:59:12</time>
      </trkpt>
      <trkpt lat="40.87096" lon="0.51952">
        <ele>21</ele>
        <time>2022-05-24 14:59:13</time>
      </trkpt>
      <trkpt lat="40.87093" lon="0.51956">
        <ele>21</ele>
        <time>2022-05-24 14:59:14</time>
      </trkpt>
      <trkpt lat="40.87089" lon="0.51961">
        <ele>21</ele>
        <time>2022-05-24 14:59:15</time>
      </trkpt>
      <trkpt lat="40.87086" lon="0.51966">
        <ele>21</ele>
        <time>2022-05-24 14:59:16</time>
      </trkpt>
      <trkpt lat="40.87082" lon="0.51971">
        <ele>21</ele>
        <time>2022-05-24 14:59:17</time>
      </trkpt>
      <trkpt lat="40.87079" lon="0.51975">
        <ele>21</ele>
        <time>2022-05-24 14:59:18</time>
      </trkpt>
      <trkpt lat="40.87075" lon="0.51981">
        <ele>20.8</ele>
        <time>2022-05-24 14:59:19</time>
      </trkpt>
      <trkpt lat="40.87071" lon="0.51985">
        <ele>20.8</ele>
        <time>2022-05-24 14:59:20</time>
      </trkpt>
      <trkpt lat="40.87067" lon="0.5199">
        <ele>20.8</ele>
        <time>2022-05-24 14:59:21</time>
      </trkpt>
      <trkpt lat="40.87064" lon="0.51994">
        <ele>20.8</ele>
        <time>2022-05-24 14:59:22</time>
      </trkpt>
      <trkpt lat="40.87059" lon="0.51998">
        <ele>20.8</ele>
        <time>2022-05-24 14:59:23</time>
      </trkpt>
      <trkpt lat="40.87056" lon="0.52001">
        <ele>20.8</ele>
        <time>2022-05-24 14:59:24</time>
      </trkpt>
      <trkpt lat="40.87051" lon="0.52005">
        <ele>20.8</ele>
        <time>2022-05-24 14:59:25</time>
      </trkpt>
      <trkpt lat="40.87047" lon="0.52008">
        <ele>20.8</ele>
        <time>2022-05-24 14:59:26</time>
      </trkpt>
      <trkpt lat="40.87042" lon="0.52012">
        <ele>20.8</ele>
        <time>2022-05-24 14:59:27</time>
      </trkpt>
      <trkpt lat="40.87039" lon="0.52015">
        <ele>20.8</ele>
        <time>2022-05-24 14:59:28</time>
      </trkpt>
      <trkpt lat="40.87034" lon="0.52019">
        <ele>21</ele>
        <time>2022-05-24 14:59:29</time>
      </trkpt>
      <trkpt lat="40.8703" lon="0.52022">
        <ele>21</ele>
        <time>2022-05-24 14:59:30</time>
      </trkpt>
      <trkpt lat="40.87025" lon="0.52026">
        <ele>21</ele>
        <time>2022-05-24 14:59:31</time>
      </trkpt>
      <trkpt lat="40.87022" lon="0.52028">
        <ele>21</ele>
        <time>2022-05-24 14:59:32</time>
      </trkpt>
      <trkpt lat="40.87016" lon="0.52031">
        <ele>21.2</ele>
        <time>2022-05-24 14:59:33</time>
      </trkpt>
      <trkpt lat="40.87012" lon="0.52034">
        <ele>21.2</ele>
        <time>2022-05-24 14:59:34</time>
      </trkpt>
      <trkpt lat="40.87008" lon="0.52037">
        <ele>21.2</ele>
        <time>2022-05-24 14:59:35</time>
      </trkpt>
      <trkpt lat="40.87004" lon="0.52039">
        <ele>21.2</ele>
        <time>2022-05-24 14:59:36</time>
      </trkpt>
      <trkpt lat="40.86999" lon="0.52043">
        <ele>21.2</ele>
        <time>2022-05-24 14:59:37</time>
      </trkpt>
      <trkpt lat="40.86995" lon="0.52046">
        <ele>21.2</ele>
        <time>2022-05-24 14:59:38</time>
      </trkpt>
      <trkpt lat="40.86991" lon="0.52049">
        <ele>21.2</ele>
        <time>2022-05-24 14:59:39</time>
      </trkpt>
      <trkpt lat="40.86987" lon="0.52051">
        <ele>21.2</ele>
        <time>2022-05-24 14:59:40</time>
      </trkpt>
      <trkpt lat="40.86983" lon="0.52054">
        <ele>21.2</ele>
        <time>2022-05-24 14:59:41</time>
      </trkpt>
      <trkpt lat="40.86979" lon="0.52057">
        <ele>21.2</ele>
        <time>2022-05-24 14:59:42</time>
      </trkpt>
      <trkpt lat="40.86975" lon="0.52059">
        <ele>21.2</ele>
        <time>2022-05-24 14:59:43</time>
      </trkpt>
      <trkpt lat="40.86971" lon="0.52063">
        <ele>21.2</ele>
        <time>2022-05-24 14:59:44</time>
      </trkpt>
      <trkpt lat="40.86967" lon="0.52066">
        <ele>21.2</ele>
        <time>2022-05-24 14:59:45</time>
      </trkpt>
      <trkpt lat="40.86962" lon="0.5207">
        <ele>21.2</ele>
        <time>2022-05-24 14:59:46</time>
      </trkpt>
      <trkpt lat="40.86957" lon="0.52073">
        <ele>21.2</ele>
        <time>2022-05-24 14:59:47</time>
      </trkpt>
      <trkpt lat="40.86952" lon="0.52077">
        <ele>21.2</ele>
        <time>2022-05-24 14:59:48</time>
      </trkpt>
      <trkpt lat="40.86948" lon="0.52079">
        <ele>21.2</ele>
        <time>2022-05-24 14:59:49</time>
      </trkpt>
      <trkpt lat="40.86942" lon="0.52083">
        <ele>21.2</ele>
        <time>2022-05-24 14:59:50</time>
      </trkpt>
      <trkpt lat="40.86938" lon="0.52086">
        <ele>21.2</ele>
        <time>2022-05-24 14:59:51</time>
      </trkpt>
      <trkpt lat="40.86933" lon="0.5209">
        <ele>21.4</ele>
        <time>2022-05-24 14:59:52</time>
      </trkpt>
      <trkpt lat="40.86928" lon="0.52094">
        <ele>21.4</ele>
        <time>2022-05-24 14:59:53</time>
      </trkpt>
      <trkpt lat="40.86923" lon="0.52097">
        <ele>21.4</ele>
        <time>2022-05-24 14:59:54</time>
      </trkpt>
      <trkpt lat="40.86919" lon="0.52099">
        <ele>21.4</ele>
        <time>2022-05-24 14:59:55</time>
      </trkpt>
      <trkpt lat="40.86913" lon="0.52103">
        <ele>21.4</ele>
        <time>2022-05-24 14:59:56</time>
      </trkpt>
      <trkpt lat="40.86909" lon="0.52106">
        <ele>21.4</ele>
        <time>2022-05-24 14:59:57</time>
      </trkpt>
      <trkpt lat="40.86903" lon="0.52109">
        <ele>21.4</ele>
        <time>2022-05-24 14:59:58</time>
      </trkpt>
      <trkpt lat="40.86899" lon="0.52112">
        <ele>21.4</ele>
        <time>2022-05-24 14:59:59</time>
      </trkpt>
      <trkpt lat="40.86894" lon="0.52115">
        <ele>21.4</ele>
        <time>2022-05-24 15:00:00</time>
      </trkpt>
      <trkpt lat="40.8689" lon="0.52118">
        <ele>21.4</ele>
        <time>2022-05-24 15:00:01</time>
      </trkpt>
      <trkpt lat="40.86885" lon="0.52121">
        <ele>21.4</ele>
        <time>2022-05-24 15:00:02</time>
      </trkpt>
      <trkpt lat="40.86881" lon="0.52124">
        <ele>21.2</ele>
        <time>2022-05-24 15:00:03</time>
      </trkpt>
      <trkpt lat="40.86875" lon="0.52127">
        <ele>21.2</ele>
        <time>2022-05-24 15:00:04</time>
      </trkpt>
      <trkpt lat="40.86871" lon="0.5213">
        <ele>21.2</ele>
        <time>2022-05-24 15:00:05</time>
      </trkpt>
      <trkpt lat="40.86865" lon="0.52133">
        <ele>21.2</ele>
        <time>2022-05-24 15:00:06</time>
      </trkpt>
      <trkpt lat="40.86861" lon="0.52136">
        <ele>21.2</ele>
        <time>2022-05-24 15:00:07</time>
      </trkpt>
      <trkpt lat="40.86855" lon="0.52139">
        <ele>21.4</ele>
        <time>2022-05-24 15:00:08</time>
      </trkpt>
      <trkpt lat="40.86851" lon="0.5214">
        <ele>21.4</ele>
        <time>2022-05-24 15:00:09</time>
      </trkpt>
      <trkpt lat="40.86845" lon="0.52143">
        <ele>21.4</ele>
        <time>2022-05-24 15:00:10</time>
      </trkpt>
      <trkpt lat="40.8684" lon="0.52145">
        <ele>21.4</ele>
        <time>2022-05-24 15:00:11</time>
      </trkpt>
      <trkpt lat="40.86834" lon="0.52147">
        <ele>21.4</ele>
        <time>2022-05-24 15:00:12</time>
      </trkpt>
      <trkpt lat="40.8683" lon="0.52149">
        <ele>21.4</ele>
        <time>2022-05-24 15:00:13</time>
      </trkpt>
      <trkpt lat="40.86825" lon="0.52151">
        <ele>21.4</ele>
        <time>2022-05-24 15:00:14</time>
      </trkpt>
      <trkpt lat="40.8682" lon="0.52153">
        <ele>21.4</ele>
        <time>2022-05-24 15:00:15</time>
      </trkpt>
      <trkpt lat="40.86816" lon="0.52155">
        <ele>21.4</ele>
        <time>2022-05-24 15:00:16</time>
      </trkpt>
      <trkpt lat="40.86812" lon="0.52156">
        <ele>21.4</ele>
        <time>2022-05-24 15:00:17</time>
      </trkpt>
      <trkpt lat="40.86806" lon="0.52159">
        <ele>21.4</ele>
        <time>2022-05-24 15:00:18</time>
      </trkpt>
      <trkpt lat="40.86803" lon="0.5216">
        <ele>21.4</ele>
        <time>2022-05-24 15:00:19</time>
      </trkpt>
      <trkpt lat="40.86797" lon="0.52162">
        <ele>21.4</ele>
        <time>2022-05-24 15:00:20</time>
      </trkpt>
      <trkpt lat="40.86793" lon="0.52164">
        <ele>21.4</ele>
        <time>2022-05-24 15:00:21</time>
      </trkpt>
      <trkpt lat="40.86787" lon="0.52166">
        <ele>21.4</ele>
        <time>2022-05-24 15:00:22</time>
      </trkpt>
      <trkpt lat="40.86782" lon="0.52168">
        <ele>21.4</ele>
        <time>2022-05-24 15:00:23</time>
      </trkpt>
      <trkpt lat="40.86777" lon="0.5217">
        <ele>21.4</ele>
        <time>2022-05-24 15:00:24</time>
      </trkpt>
      <trkpt lat="40.86772" lon="0.52172">
        <ele>21.4</ele>
        <time>2022-05-24 15:00:25</time>
      </trkpt>
      <trkpt lat="40.86766" lon="0.52174">
        <ele>21.4</ele>
        <time>2022-05-24 15:00:26</time>
      </trkpt>
      <trkpt lat="40.86762" lon="0.52175">
        <ele>21.4</ele>
        <time>2022-05-24 15:00:27</time>
      </trkpt>
      <trkpt lat="40.86756" lon="0.52177">
        <ele>21.6</ele>
        <time>2022-05-24 15:00:28</time>
      </trkpt>
      <trkpt lat="40.86752" lon="0.52179">
        <ele>21.6</ele>
        <time>2022-05-24 15:00:29</time>
      </trkpt>
      <trkpt lat="40.86746" lon="0.52181">
        <ele>21.6</ele>
        <time>2022-05-24 15:00:30</time>
      </trkpt>
      <trkpt lat="40.86741" lon="0.52182">
        <ele>21.6</ele>
        <time>2022-05-24 15:00:31</time>
      </trkpt>
      <trkpt lat="40.86735" lon="0.52184">
        <ele>21.6</ele>
        <time>2022-05-24 15:00:32</time>
      </trkpt>
      <trkpt lat="40.86731" lon="0.52185">
        <ele>21.6</ele>
        <time>2022-05-24 15:00:33</time>
      </trkpt>
      <trkpt lat="40.86725" lon="0.52186">
        <ele>21.6</ele>
        <time>2022-05-24 15:00:34</time>
      </trkpt>
      <trkpt lat="40.8672" lon="0.52186">
        <ele>21.6</ele>
        <time>2022-05-24 15:00:35</time>
      </trkpt>
      <trkpt lat="40.86714" lon="0.52187">
        <ele>21.4</ele>
        <time>2022-05-24 15:00:36</time>
      </trkpt>
      <trkpt lat="40.86709" lon="0.52188">
        <ele>21.4</ele>
        <time>2022-05-24 15:00:37</time>
      </trkpt>
      <trkpt lat="40.86703" lon="0.52188">
        <ele>21.6</ele>
        <time>2022-05-24 15:00:38</time>
      </trkpt>
      <trkpt lat="40.86699" lon="0.52188">
        <ele>21.6</ele>
        <time>2022-05-24 15:00:39</time>
      </trkpt>
      <trkpt lat="40.86693" lon="0.52188">
        <ele>21.6</ele>
        <time>2022-05-24 15:00:40</time>
      </trkpt>
      <trkpt lat="40.86689" lon="0.52188">
        <ele>21.6</ele>
        <time>2022-05-24 15:00:41</time>
      </trkpt>
      <trkpt lat="40.86683" lon="0.52188">
        <ele>21.6</ele>
        <time>2022-05-24 15:00:42</time>
      </trkpt>
      <trkpt lat="40.86679" lon="0.52187">
        <ele>21.6</ele>
        <time>2022-05-24 15:00:43</time>
      </trkpt>
      <trkpt lat="40.86672" lon="0.52187">
        <ele>21.6</ele>
        <time>2022-05-24 15:00:44</time>
      </trkpt>
      <trkpt lat="40.86668" lon="0.52186">
        <ele>21.6</ele>
        <time>2022-05-24 15:00:45</time>
      </trkpt>
      <trkpt lat="40.86662" lon="0.52185">
        <ele>21.6</ele>
        <time>2022-05-24 15:00:46</time>
      </trkpt>
      <trkpt lat="40.86657" lon="0.52185">
        <ele>21.6</ele>
        <time>2022-05-24 15:00:47</time>
      </trkpt>
      <trkpt lat="40.86652" lon="0.52184">
        <ele>21.8</ele>
        <time>2022-05-24 15:00:48</time>
      </trkpt>
      <trkpt lat="40.86647" lon="0.52183">
        <ele>21.8</ele>
        <time>2022-05-24 15:00:49</time>
      </trkpt>
      <trkpt lat="40.86641" lon="0.52183">
        <ele>21.8</ele>
        <time>2022-05-24 15:00:50</time>
      </trkpt>
      <trkpt lat="40.86637" lon="0.52182">
        <ele>21.8</ele>
        <time>2022-05-24 15:00:51</time>
      </trkpt>
      <trkpt lat="40.86631" lon="0.52181">
        <ele>21.8</ele>
        <time>2022-05-24 15:00:52</time>
      </trkpt>
      <trkpt lat="40.86626" lon="0.52181">
        <ele>21.8</ele>
        <time>2022-05-24 15:00:53</time>
      </trkpt>
      <trkpt lat="40.8662" lon="0.5218">
        <ele>21.8</ele>
        <time>2022-05-24 15:00:54</time>
      </trkpt>
      <trkpt lat="40.86615" lon="0.5218">
        <ele>21.8</ele>
        <time>2022-05-24 15:00:55</time>
      </trkpt>
      <trkpt lat="40.86609" lon="0.5218">
        <ele>21.8</ele>
        <time>2022-05-24 15:00:56</time>
      </trkpt>
      <trkpt lat="40.86605" lon="0.52181">
        <ele>21.6</ele>
        <time>2022-05-24 15:00:57</time>
      </trkpt>
      <trkpt lat="40.86598" lon="0.52181">
        <ele>21.6</ele>
        <time>2022-05-24 15:00:58</time>
      </trkpt>
      <trkpt lat="40.86594" lon="0.52182">
        <ele>21.6</ele>
        <time>2022-05-24 15:00:59</time>
      </trkpt>
      <trkpt lat="40.86588" lon="0.52182">
        <ele>21.6</ele>
        <time>2022-05-24 15:01:00</time>
      </trkpt>
      <trkpt lat="40.86584" lon="0.52182">
        <ele>21.6</ele>
        <time>2022-05-24 15:01:01</time>
      </trkpt>
      <trkpt lat="40.86578" lon="0.52183">
        <ele>21.6</ele>
        <time>2022-05-24 15:01:02</time>
      </trkpt>
      <trkpt lat="40.86573" lon="0.52184">
        <ele>21.6</ele>
        <time>2022-05-24 15:01:03</time>
      </trkpt>
      <trkpt lat="40.86567" lon="0.52185">
        <ele>21.4</ele>
        <time>2022-05-24 15:01:04</time>
      </trkpt>
      <trkpt lat="40.86564" lon="0.52186">
        <ele>21.4</ele>
        <time>2022-05-24 15:01:05</time>
      </trkpt>
      <trkpt lat="40.86557" lon="0.52186">
        <ele>21.4</ele>
        <time>2022-05-24 15:01:06</time>
      </trkpt>
      <trkpt lat="40.86554" lon="0.52187">
        <ele>21.2</ele>
        <time>2022-05-24 15:01:07</time>
      </trkpt>
      <trkpt lat="40.86547" lon="0.52188">
        <ele>21.2</ele>
        <time>2022-05-24 15:01:08</time>
      </trkpt>
      <trkpt lat="40.86543" lon="0.52188">
        <ele>21</ele>
        <time>2022-05-24 15:01:09</time>
      </trkpt>
      <trkpt lat="40.86536" lon="0.52189">
        <ele>21</ele>
        <time>2022-05-24 15:01:10</time>
      </trkpt>
      <trkpt lat="40.86531" lon="0.5219">
        <ele>21</ele>
        <time>2022-05-24 15:01:11</time>
      </trkpt>
      <trkpt lat="40.86524" lon="0.5219">
        <ele>21</ele>
        <time>2022-05-24 15:01:12</time>
      </trkpt>
      <trkpt lat="40.86519" lon="0.5219">
        <ele>21</ele>
        <time>2022-05-24 15:01:13</time>
      </trkpt>
      <trkpt lat="40.86511" lon="0.5219">
        <ele>21</ele>
        <time>2022-05-24 15:01:14</time>
      </trkpt>
      <trkpt lat="40.86506" lon="0.52189">
        <ele>21</ele>
        <time>2022-05-24 15:01:15</time>
      </trkpt>
      <trkpt lat="40.86499" lon="0.52188">
        <ele>20.8</ele>
        <time>2022-05-24 15:01:16</time>
      </trkpt>
      <trkpt lat="40.86494" lon="0.52188">
        <ele>20.8</ele>
        <time>2022-05-24 15:01:17</time>
      </trkpt>
      <trkpt lat="40.86486" lon="0.52188">
        <ele>20.8</ele>
        <time>2022-05-24 15:01:18</time>
      </trkpt>
      <trkpt lat="40.86481" lon="0.52188">
        <ele>20.8</ele>
        <time>2022-05-24 15:01:19</time>
      </trkpt>
      <trkpt lat="40.86473" lon="0.52189">
        <ele>20.8</ele>
        <time>2022-05-24 15:01:20</time>
      </trkpt>
      <trkpt lat="40.86469" lon="0.5219">
        <ele>20.8</ele>
        <time>2022-05-24 15:01:21</time>
      </trkpt>
      <trkpt lat="40.86461" lon="0.52191">
        <ele>20.8</ele>
        <time>2022-05-24 15:01:22</time>
      </trkpt>
      <trkpt lat="40.86456" lon="0.52192">
        <ele>20.8</ele>
        <time>2022-05-24 15:01:23</time>
      </trkpt>
      <trkpt lat="40.86449" lon="0.52194">
        <ele>20.8</ele>
        <time>2022-05-24 15:01:24</time>
      </trkpt>
      <trkpt lat="40.86444" lon="0.52195">
        <ele>20.8</ele>
        <time>2022-05-24 15:01:25</time>
      </trkpt>
      <trkpt lat="40.86437" lon="0.52198">
        <ele>20.8</ele>
        <time>2022-05-24 15:01:26</time>
      </trkpt>
      <trkpt lat="40.86433" lon="0.522">
        <ele>20.8</ele>
        <time>2022-05-24 15:01:27</time>
      </trkpt>
      <trkpt lat="40.86425" lon="0.52203">
        <ele>21</ele>
        <time>2022-05-24 15:01:28</time>
      </trkpt>
      <trkpt lat="40.8642" lon="0.52204">
        <ele>21</ele>
        <time>2022-05-24 15:01:29</time>
      </trkpt>
      <trkpt lat="40.86413" lon="0.52207">
        <ele>21</ele>
        <time>2022-05-24 15:01:30</time>
      </trkpt>
      <trkpt lat="40.8641" lon="0.52208">
        <ele>21</ele>
        <time>2022-05-24 15:01:31</time>
      </trkpt>
      <trkpt lat="40.86408" lon="0.52209">
        <ele>21</ele>
        <time>2022-05-24 15:01:32</time>
      </trkpt>
      <trkpt lat="40.86396" lon="0.52213">
        <ele>21</ele>
        <time>2022-05-24 15:01:33</time>
      </trkpt>
      <trkpt lat="40.86392" lon="0.52215">
        <ele>21</ele>
        <time>2022-05-24 15:01:34</time>
      </trkpt>
      <trkpt lat="40.86387" lon="0.52217">
        <ele>21</ele>
        <time>2022-05-24 15:01:35</time>
      </trkpt>
      <trkpt lat="40.8638" lon="0.5222">
        <ele>21</ele>
        <time>2022-05-24 15:01:36</time>
      </trkpt>
      <trkpt lat="40.86376" lon="0.52222">
        <ele>21</ele>
        <time>2022-05-24 15:01:37</time>
      </trkpt>
      <trkpt lat="40.8637" lon="0.52224">
        <ele>21</ele>
        <time>2022-05-24 15:01:38</time>
      </trkpt>
      <trkpt lat="40.86366" lon="0.52226">
        <ele>21</ele>
        <time>2022-05-24 15:01:39</time>
      </trkpt>
      <trkpt lat="40.86359" lon="0.52228">
        <ele>21</ele>
        <time>2022-05-24 15:01:40</time>
      </trkpt>
      <trkpt lat="40.86354" lon="0.5223">
        <ele>21</ele>
        <time>2022-05-24 15:01:41</time>
      </trkpt>
      <trkpt lat="40.86348" lon="0.52232">
        <ele>21</ele>
        <time>2022-05-24 15:01:42</time>
      </trkpt>
      <trkpt lat="40.86343" lon="0.52234">
        <ele>21</ele>
        <time>2022-05-24 15:01:43</time>
      </trkpt>
      <trkpt lat="40.86337" lon="0.52236">
        <ele>21</ele>
        <time>2022-05-24 15:01:44</time>
      </trkpt>
      <trkpt lat="40.86333" lon="0.52238">
        <ele>21</ele>
        <time>2022-05-24 15:01:45</time>
      </trkpt>
      <trkpt lat="40.86326" lon="0.52241">
        <ele>21</ele>
        <time>2022-05-24 15:01:46</time>
      </trkpt>
      <trkpt lat="40.86321" lon="0.52242">
        <ele>21</ele>
        <time>2022-05-24 15:01:47</time>
      </trkpt>
      <trkpt lat="40.86315" lon="0.52245">
        <ele>21</ele>
        <time>2022-05-24 15:01:48</time>
      </trkpt>
      <trkpt lat="40.8631" lon="0.52246">
        <ele>21</ele>
        <time>2022-05-24 15:01:49</time>
      </trkpt>
      <trkpt lat="40.86304" lon="0.52249">
        <ele>21</ele>
        <time>2022-05-24 15:01:50</time>
      </trkpt>
      <trkpt lat="40.863" lon="0.5225">
        <ele>21</ele>
        <time>2022-05-24 15:01:51</time>
      </trkpt>
      <trkpt lat="40.86293" lon="0.52253">
        <ele>21</ele>
        <time>2022-05-24 15:01:52</time>
      </trkpt>
      <trkpt lat="40.86289" lon="0.52255">
        <ele>21</ele>
        <time>2022-05-24 15:01:53</time>
      </trkpt>
      <trkpt lat="40.86282" lon="0.52258">
        <ele>21</ele>
        <time>2022-05-24 15:01:54</time>
      </trkpt>
      <trkpt lat="40.86277" lon="0.5226">
        <ele>21</ele>
        <time>2022-05-24 15:01:55</time>
      </trkpt>
      <trkpt lat="40.86271" lon="0.52261">
        <ele>21</ele>
        <time>2022-05-24 15:01:56</time>
      </trkpt>
      <trkpt lat="40.86266" lon="0.52263">
        <ele>21</ele>
        <time>2022-05-24 15:01:57</time>
      </trkpt>
      <trkpt lat="40.8626" lon="0.52264">
        <ele>21</ele>
        <time>2022-05-24 15:01:58</time>
      </trkpt>
      <trkpt lat="40.86254" lon="0.52265">
        <ele>21</ele>
        <time>2022-05-24 15:01:59</time>
      </trkpt>
      <trkpt lat="40.86249" lon="0.52267">
        <ele>21</ele>
        <time>2022-05-24 15:02:00</time>
      </trkpt>
      <trkpt lat="40.86244" lon="0.52269">
        <ele>21.2</ele>
        <time>2022-05-24 15:02:01</time>
      </trkpt>
      <trkpt lat="40.86238" lon="0.5227">
        <ele>21.2</ele>
        <time>2022-05-24 15:02:02</time>
      </trkpt>
      <trkpt lat="40.86234" lon="0.52271">
        <ele>21.2</ele>
        <time>2022-05-24 15:02:03</time>
      </trkpt>
      <trkpt lat="40.86227" lon="0.52272">
        <ele>21.2</ele>
        <time>2022-05-24 15:02:04</time>
      </trkpt>
      <trkpt lat="40.86224" lon="0.52272">
        <ele>21.2</ele>
        <time>2022-05-24 15:02:05</time>
      </trkpt>
      <trkpt lat="40.86218" lon="0.52271">
        <ele>21.4</ele>
        <time>2022-05-24 15:02:06</time>
      </trkpt>
      <trkpt lat="40.86214" lon="0.52271">
        <ele>21.4</ele>
        <time>2022-05-24 15:02:07</time>
      </trkpt>
      <trkpt lat="40.86209" lon="0.5227">
        <ele>21.4</ele>
        <time>2022-05-24 15:02:08</time>
      </trkpt>
      <trkpt lat="40.86205" lon="0.5227">
        <ele>21.6</ele>
        <time>2022-05-24 15:02:09</time>
      </trkpt>
      <trkpt lat="40.86201" lon="0.52269">
        <ele>21.6</ele>
        <time>2022-05-24 15:02:10</time>
      </trkpt>
      <trkpt lat="40.86197" lon="0.52267">
        <ele>21.8</ele>
        <time>2022-05-24 15:02:11</time>
      </trkpt>
      <trkpt lat="40.86192" lon="0.52266">
        <ele>21.8</ele>
        <time>2022-05-24 15:02:12</time>
      </trkpt>
      <trkpt lat="40.86189" lon="0.52266">
        <ele>21.8</ele>
        <time>2022-05-24 15:02:13</time>
      </trkpt>
      <trkpt lat="40.86184" lon="0.52266">
        <ele>22</ele>
        <time>2022-05-24 15:02:14</time>
      </trkpt>
      <trkpt lat="40.86179" lon="0.52265">
        <ele>22</ele>
        <time>2022-05-24 15:02:15</time>
      </trkpt>
      <trkpt lat="40.86176" lon="0.52266">
        <ele>22</ele>
        <time>2022-05-24 15:02:16</time>
      </trkpt>
      <trkpt lat="40.86171" lon="0.52266">
        <ele>22.2</ele>
        <time>2022-05-24 15:02:17</time>
      </trkpt>
      <trkpt lat="40.86167" lon="0.52267">
        <ele>22.2</ele>
        <time>2022-05-24 15:02:18</time>
      </trkpt>
      <trkpt lat="40.86164" lon="0.52266">
        <ele>22.2</ele>
        <time>2022-05-24 15:02:19</time>
      </trkpt>
      <trkpt lat="40.86158" lon="0.52266">
        <ele>22.4</ele>
        <time>2022-05-24 15:02:20</time>
      </trkpt>
      <trkpt lat="40.86154" lon="0.52265">
        <ele>22.6</ele>
        <time>2022-05-24 15:02:21</time>
      </trkpt>
      <trkpt lat="40.86149" lon="0.52265">
        <ele>22.8</ele>
        <time>2022-05-24 15:02:22</time>
      </trkpt>
      <trkpt lat="40.86145" lon="0.52264">
        <ele>22.8</ele>
        <time>2022-05-24 15:02:23</time>
      </trkpt>
      <trkpt lat="40.8614" lon="0.52264">
        <ele>23</ele>
        <time>2022-05-24 15:02:24</time>
      </trkpt>
      <trkpt lat="40.86137" lon="0.52263">
        <ele>23.2</ele>
        <time>2022-05-24 15:02:25</time>
      </trkpt>
      <trkpt lat="40.86134" lon="0.52262">
        <ele>23.4</ele>
        <time>2022-05-24 15:02:26</time>
      </trkpt>
      <trkpt lat="40.86129" lon="0.52262">
        <ele>23.6</ele>
        <time>2022-05-24 15:02:27</time>
      </trkpt>
      <trkpt lat="40.86125" lon="0.52263">
        <ele>23.8</ele>
        <time>2022-05-24 15:02:28</time>
      </trkpt>
      <trkpt lat="40.86122" lon="0.52263">
        <ele>24</ele>
        <time>2022-05-24 15:02:29</time>
      </trkpt>
      <trkpt lat="40.86118" lon="0.52263">
        <ele>24.2</ele>
        <time>2022-05-24 15:02:30</time>
      </trkpt>
      <trkpt lat="40.86114" lon="0.52264">
        <ele>24.2</ele>
        <time>2022-05-24 15:02:31</time>
      </trkpt>
      <trkpt lat="40.86111" lon="0.52265">
        <ele>24.4</ele>
        <time>2022-05-24 15:02:32</time>
      </trkpt>
      <trkpt lat="40.86106" lon="0.52267">
        <ele>24.6</ele>
        <time>2022-05-24 15:02:33</time>
      </trkpt>
      <trkpt lat="40.86103" lon="0.52267">
        <ele>24.6</ele>
        <time>2022-05-24 15:02:34</time>
      </trkpt>
      <trkpt lat="40.86099" lon="0.52268">
        <ele>24.8</ele>
        <time>2022-05-24 15:02:35</time>
      </trkpt>
      <trkpt lat="40.86094" lon="0.52269">
        <ele>24.8</ele>
        <time>2022-05-24 15:02:36</time>
      </trkpt>
      <trkpt lat="40.8609" lon="0.5227">
        <ele>24.8</ele>
        <time>2022-05-24 15:02:37</time>
      </trkpt>
      <trkpt lat="40.86086" lon="0.52271">
        <ele>25</ele>
        <time>2022-05-24 15:02:38</time>
      </trkpt>
      <trkpt lat="40.86081" lon="0.52272">
        <ele>25</ele>
        <time>2022-05-24 15:02:39</time>
      </trkpt>
      <trkpt lat="40.86077" lon="0.52273">
        <ele>25</ele>
        <time>2022-05-24 15:02:40</time>
      </trkpt>
      <trkpt lat="40.86071" lon="0.52275">
        <ele>25.2</ele>
        <time>2022-05-24 15:02:41</time>
      </trkpt>
      <trkpt lat="40.86067" lon="0.52275">
        <ele>25.2</ele>
        <time>2022-05-24 15:02:42</time>
      </trkpt>
      <trkpt lat="40.86063" lon="0.52276">
        <ele>25.4</ele>
        <time>2022-05-24 15:02:43</time>
      </trkpt>
      <trkpt lat="40.86059" lon="0.52276">
        <ele>25.4</ele>
        <time>2022-05-24 15:02:44</time>
      </trkpt>
      <trkpt lat="40.86056" lon="0.52277">
        <ele>25.4</ele>
        <time>2022-05-24 15:02:45</time>
      </trkpt>
      <trkpt lat="40.86051" lon="0.52277">
        <ele>25.4</ele>
        <time>2022-05-24 15:02:46</time>
      </trkpt>
      <trkpt lat="40.86046" lon="0.52278">
        <ele>25.6</ele>
        <time>2022-05-24 15:02:47</time>
      </trkpt>
      <trkpt lat="40.86042" lon="0.52278">
        <ele>25.6</ele>
        <time>2022-05-24 15:02:48</time>
      </trkpt>
      <trkpt lat="40.86037" lon="0.52278">
        <ele>25.8</ele>
        <time>2022-05-24 15:02:49</time>
      </trkpt>
      <trkpt lat="40.86031" lon="0.52279">
        <ele>25.8</ele>
        <time>2022-05-24 15:02:50</time>
      </trkpt>
      <trkpt lat="40.86027" lon="0.52279">
        <ele>25.8</ele>
        <time>2022-05-24 15:02:51</time>
      </trkpt>
      <trkpt lat="40.86021" lon="0.52279">
        <ele>25.8</ele>
        <time>2022-05-24 15:02:52</time>
      </trkpt>
      <trkpt lat="40.86017" lon="0.52278">
        <ele>25.8</ele>
        <time>2022-05-24 15:02:53</time>
      </trkpt>
      <trkpt lat="40.86011" lon="0.52278">
        <ele>25.8</ele>
        <time>2022-05-24 15:02:54</time>
      </trkpt>
      <trkpt lat="40.86007" lon="0.52278">
        <ele>25.8</ele>
        <time>2022-05-24 15:02:55</time>
      </trkpt>
      <trkpt lat="40.86" lon="0.52277">
        <ele>25.8</ele>
        <time>2022-05-24 15:02:56</time>
      </trkpt>
      <trkpt lat="40.85997" lon="0.52277">
        <ele>25.8</ele>
        <time>2022-05-24 15:02:57</time>
      </trkpt>
      <trkpt lat="40.85991" lon="0.52275">
        <ele>25.8</ele>
        <time>2022-05-24 15:02:58</time>
      </trkpt>
      <trkpt lat="40.85986" lon="0.52275">
        <ele>25.8</ele>
        <time>2022-05-24 15:02:59</time>
      </trkpt>
      <trkpt lat="40.8598" lon="0.52274">
        <ele>25.8</ele>
        <time>2022-05-24 15:03:00</time>
      </trkpt>
      <trkpt lat="40.85975" lon="0.52274">
        <ele>25.8</ele>
        <time>2022-05-24 15:03:01</time>
      </trkpt>
      <trkpt lat="40.85969" lon="0.52274">
        <ele>25.6</ele>
        <time>2022-05-24 15:03:02</time>
      </trkpt>
      <trkpt lat="40.85965" lon="0.52274">
        <ele>25.6</ele>
        <time>2022-05-24 15:03:03</time>
      </trkpt>
      <trkpt lat="40.85958" lon="0.52275">
        <ele>25.6</ele>
        <time>2022-05-24 15:03:04</time>
      </trkpt>
      <trkpt lat="40.85953" lon="0.52275">
        <ele>25.6</ele>
        <time>2022-05-24 15:03:05</time>
      </trkpt>
      <trkpt lat="40.85948" lon="0.52275">
        <ele>25.6</ele>
        <time>2022-05-24 15:03:06</time>
      </trkpt>
      <trkpt lat="40.85942" lon="0.52276">
        <ele>25.6</ele>
        <time>2022-05-24 15:03:07</time>
      </trkpt>
      <trkpt lat="40.85937" lon="0.52276">
        <ele>25.6</ele>
        <time>2022-05-24 15:03:08</time>
      </trkpt>
      <trkpt lat="40.85931" lon="0.52276">
        <ele>25.6</ele>
        <time>2022-05-24 15:03:09</time>
      </trkpt>
      <trkpt lat="40.85926" lon="0.52277">
        <ele>25.6</ele>
        <time>2022-05-24 15:03:10</time>
      </trkpt>
      <trkpt lat="40.85921" lon="0.52278">
        <ele>25.6</ele>
        <time>2022-05-24 15:03:11</time>
      </trkpt>
      <trkpt lat="40.85916" lon="0.52278">
        <ele>25.6</ele>
        <time>2022-05-24 15:03:12</time>
      </trkpt>
      <trkpt lat="40.8591" lon="0.52277">
        <ele>25.6</ele>
        <time>2022-05-24 15:03:13</time>
      </trkpt>
      <trkpt lat="40.85906" lon="0.52276">
        <ele>25.6</ele>
        <time>2022-05-24 15:03:14</time>
      </trkpt>
      <trkpt lat="40.85901" lon="0.52276">
        <ele>25.6</ele>
        <time>2022-05-24 15:03:15</time>
      </trkpt>
      <trkpt lat="40.85897" lon="0.52275">
        <ele>25.6</ele>
        <time>2022-05-24 15:03:16</time>
      </trkpt>
      <trkpt lat="40.85892" lon="0.52275">
        <ele>25.4</ele>
        <time>2022-05-24 15:03:17</time>
      </trkpt>
      <trkpt lat="40.85887" lon="0.52274">
        <ele>25.4</ele>
        <time>2022-05-24 15:03:18</time>
      </trkpt>
      <trkpt lat="40.85882" lon="0.52274">
        <ele>25.4</ele>
        <time>2022-05-24 15:03:19</time>
      </trkpt>
      <trkpt lat="40.85877" lon="0.52274">
        <ele>25.4</ele>
        <time>2022-05-24 15:03:20</time>
      </trkpt>
      <trkpt lat="40.85871" lon="0.52275">
        <ele>25.4</ele>
        <time>2022-05-24 15:03:21</time>
      </trkpt>
      <trkpt lat="40.85865" lon="0.52276">
        <ele>25.4</ele>
        <time>2022-05-24 15:03:22</time>
      </trkpt>
      <trkpt lat="40.8586" lon="0.52278">
        <ele>25.4</ele>
        <time>2022-05-24 15:03:23</time>
      </trkpt>
      <trkpt lat="40.85855" lon="0.52281">
        <ele>25.4</ele>
        <time>2022-05-24 15:03:24</time>
      </trkpt>
      <trkpt lat="40.8585" lon="0.52285">
        <ele>25.4</ele>
        <time>2022-05-24 15:03:25</time>
      </trkpt>
      <trkpt lat="40.85846" lon="0.52289">
        <ele>25.2</ele>
        <time>2022-05-24 15:03:26</time>
      </trkpt>
      <trkpt lat="40.85841" lon="0.52293">
        <ele>25.2</ele>
        <time>2022-05-24 15:03:27</time>
      </trkpt>
      <trkpt lat="40.85838" lon="0.52297">
        <ele>25.2</ele>
        <time>2022-05-24 15:03:28</time>
      </trkpt>
      <trkpt lat="40.85833" lon="0.52302">
        <ele>25</ele>
        <time>2022-05-24 15:03:29</time>
      </trkpt>
      <trkpt lat="40.85828" lon="0.52306">
        <ele>25</ele>
        <time>2022-05-24 15:03:30</time>
      </trkpt>
      <trkpt lat="40.85823" lon="0.5231">
        <ele>24.8</ele>
        <time>2022-05-24 15:03:31</time>
      </trkpt>
      <trkpt lat="40.85819" lon="0.52315">
        <ele>24.8</ele>
        <time>2022-05-24 15:03:32</time>
      </trkpt>
      <trkpt lat="40.85814" lon="0.5232">
        <ele>24.6</ele>
        <time>2022-05-24 15:03:33</time>
      </trkpt>
      <trkpt lat="40.8581" lon="0.52324">
        <ele>24.6</ele>
        <time>2022-05-24 15:03:34</time>
      </trkpt>
      <trkpt lat="40.85805" lon="0.5233">
        <ele>24.4</ele>
        <time>2022-05-24 15:03:35</time>
      </trkpt>
      <trkpt lat="40.85802" lon="0.52334">
        <ele>24.2</ele>
        <time>2022-05-24 15:03:36</time>
      </trkpt>
      <trkpt lat="40.85796" lon="0.5234">
        <ele>24.2</ele>
        <time>2022-05-24 15:03:37</time>
      </trkpt>
      <trkpt lat="40.85792" lon="0.52345">
        <ele>24</ele>
        <time>2022-05-24 15:03:38</time>
      </trkpt>
      <trkpt lat="40.85787" lon="0.5235">
        <ele>24</ele>
        <time>2022-05-24 15:03:39</time>
      </trkpt>
      <trkpt lat="40.85782" lon="0.52355">
        <ele>23.8</ele>
        <time>2022-05-24 15:03:40</time>
      </trkpt>
      <trkpt lat="40.85778" lon="0.5236">
        <ele>23.6</ele>
        <time>2022-05-24 15:03:41</time>
      </trkpt>
      <trkpt lat="40.85773" lon="0.52365">
        <ele>23.6</ele>
        <time>2022-05-24 15:03:42</time>
      </trkpt>
      <trkpt lat="40.85768" lon="0.52371">
        <ele>23.4</ele>
        <time>2022-05-24 15:03:43</time>
      </trkpt>
      <trkpt lat="40.85764" lon="0.52375">
        <ele>23.4</ele>
        <time>2022-05-24 15:03:44</time>
      </trkpt>
      <trkpt lat="40.85759" lon="0.52381">
        <ele>23.2</ele>
        <time>2022-05-24 15:03:45</time>
      </trkpt>
      <trkpt lat="40.85754" lon="0.52386">
        <ele>23.2</ele>
        <time>2022-05-24 15:03:46</time>
      </trkpt>
      <trkpt lat="40.8575" lon="0.52391">
        <ele>23</ele>
        <time>2022-05-24 15:03:47</time>
      </trkpt>
      <trkpt lat="40.85745" lon="0.52395">
        <ele>23</ele>
        <time>2022-05-24 15:03:48</time>
      </trkpt>
      <trkpt lat="40.8574" lon="0.52401">
        <ele>22.6</ele>
        <time>2022-05-24 15:03:49</time>
      </trkpt>
      <trkpt lat="40.85735" lon="0.52406">
        <ele>22.6</ele>
        <time>2022-05-24 15:03:50</time>
      </trkpt>
      <trkpt lat="40.85729" lon="0.52411">
        <ele>22.4</ele>
        <time>2022-05-24 15:03:51</time>
      </trkpt>
      <trkpt lat="40.85724" lon="0.52416">
        <ele>22.4</ele>
        <time>2022-05-24 15:03:52</time>
      </trkpt>
      <trkpt lat="40.85718" lon="0.52421">
        <ele>22.2</ele>
        <time>2022-05-24 15:03:53</time>
      </trkpt>
      <trkpt lat="40.85713" lon="0.52425">
        <ele>22</ele>
        <time>2022-05-24 15:03:54</time>
      </trkpt>
      <trkpt lat="40.85707" lon="0.52429">
        <ele>21.8</ele>
        <time>2022-05-24 15:03:55</time>
      </trkpt>
      <trkpt lat="40.85701" lon="0.52433">
        <ele>21.8</ele>
        <time>2022-05-24 15:03:56</time>
      </trkpt>
      <trkpt lat="40.85695" lon="0.52437">
        <ele>21.6</ele>
        <time>2022-05-24 15:03:57</time>
      </trkpt>
      <trkpt lat="40.85689" lon="0.5244">
        <ele>21.6</ele>
        <time>2022-05-24 15:03:58</time>
      </trkpt>
      <trkpt lat="40.85683" lon="0.52443">
        <ele>21.4</ele>
        <time>2022-05-24 15:03:59</time>
      </trkpt>
      <trkpt lat="40.85677" lon="0.52445">
        <ele>21.4</ele>
        <time>2022-05-24 15:04:00</time>
      </trkpt>
      <trkpt lat="40.8567" lon="0.52447">
        <ele>21.2</ele>
        <time>2022-05-24 15:04:01</time>
      </trkpt>
      <trkpt lat="40.85664" lon="0.52449">
        <ele>21.2</ele>
        <time>2022-05-24 15:04:02</time>
      </trkpt>
      <trkpt lat="40.85658" lon="0.52451">
        <ele>21.2</ele>
        <time>2022-05-24 15:04:03</time>
      </trkpt>
      <trkpt lat="40.85652" lon="0.52452">
        <ele>21.2</ele>
        <time>2022-05-24 15:04:04</time>
      </trkpt>
      <trkpt lat="40.85646" lon="0.52453">
        <ele>21</ele>
        <time>2022-05-24 15:04:05</time>
      </trkpt>
      <trkpt lat="40.85642" lon="0.52454">
        <ele>21</ele>
        <time>2022-05-24 15:04:06</time>
      </trkpt>
      <trkpt lat="40.85635" lon="0.52455">
        <ele>21</ele>
        <time>2022-05-24 15:04:07</time>
      </trkpt>
      <trkpt lat="40.85629" lon="0.52456">
        <ele>21</ele>
        <time>2022-05-24 15:04:08</time>
      </trkpt>
      <trkpt lat="40.85626" lon="0.52456">
        <ele>21</ele>
        <time>2022-05-24 15:04:09</time>
      </trkpt>
      <trkpt lat="40.8562" lon="0.52456">
        <ele>21</ele>
        <time>2022-05-24 15:04:10</time>
      </trkpt>
      <trkpt lat="40.85611" lon="0.52457">
        <ele>21</ele>
        <time>2022-05-24 15:04:11</time>
      </trkpt>
      <trkpt lat="40.85606" lon="0.52457">
        <ele>21</ele>
        <time>2022-05-24 15:04:12</time>
      </trkpt>
      <trkpt lat="40.85599" lon="0.52457">
        <ele>21</ele>
        <time>2022-05-24 15:04:13</time>
      </trkpt>
      <trkpt lat="40.85595" lon="0.52458">
        <ele>21</ele>
        <time>2022-05-24 15:04:14</time>
      </trkpt>
      <trkpt lat="40.85588" lon="0.52458">
        <ele>20.8</ele>
        <time>2022-05-24 15:04:15</time>
      </trkpt>
      <trkpt lat="40.85582" lon="0.52458">
        <ele>20.8</ele>
        <time>2022-05-24 15:04:16</time>
      </trkpt>
      <trkpt lat="40.85576" lon="0.52459">
        <ele>20.8</ele>
        <time>2022-05-24 15:04:17</time>
      </trkpt>
      <trkpt lat="40.85571" lon="0.52459">
        <ele>20.8</ele>
        <time>2022-05-24 15:04:18</time>
      </trkpt>
      <trkpt lat="40.85565" lon="0.52459">
        <ele>20.8</ele>
        <time>2022-05-24 15:04:19</time>
      </trkpt>
      <trkpt lat="40.8556" lon="0.52459">
        <ele>20.8</ele>
        <time>2022-05-24 15:04:20</time>
      </trkpt>
      <trkpt lat="40.85553" lon="0.52459">
        <ele>20.8</ele>
        <time>2022-05-24 15:04:21</time>
      </trkpt>
      <trkpt lat="40.85549" lon="0.5246">
        <ele>20.8</ele>
        <time>2022-05-24 15:04:22</time>
      </trkpt>
      <trkpt lat="40.85542" lon="0.52461">
        <ele>20.8</ele>
        <time>2022-05-24 15:04:23</time>
      </trkpt>
      <trkpt lat="40.85538" lon="0.52461">
        <ele>20.8</ele>
        <time>2022-05-24 15:04:24</time>
      </trkpt>
      <trkpt lat="40.85531" lon="0.52462">
        <ele>20.8</ele>
        <time>2022-05-24 15:04:25</time>
      </trkpt>
      <trkpt lat="40.85526" lon="0.52463">
        <ele>20.8</ele>
        <time>2022-05-24 15:04:26</time>
      </trkpt>
      <trkpt lat="40.8552" lon="0.52464">
        <ele>20.8</ele>
        <time>2022-05-24 15:04:27</time>
      </trkpt>
      <trkpt lat="40.85516" lon="0.52464">
        <ele>20.8</ele>
        <time>2022-05-24 15:04:28</time>
      </trkpt>
      <trkpt lat="40.85509" lon="0.52464">
        <ele>20.8</ele>
        <time>2022-05-24 15:04:29</time>
      </trkpt>
      <trkpt lat="40.85504" lon="0.52464">
        <ele>20.8</ele>
        <time>2022-05-24 15:04:30</time>
      </trkpt>
      <trkpt lat="40.85498" lon="0.52464">
        <ele>20.8</ele>
        <time>2022-05-24 15:04:31</time>
      </trkpt>
      <trkpt lat="40.85493" lon="0.52464">
        <ele>20.8</ele>
        <time>2022-05-24 15:04:32</time>
      </trkpt>
      <trkpt lat="40.85486" lon="0.52464">
        <ele>20.8</ele>
        <time>2022-05-24 15:04:33</time>
      </trkpt>
      <trkpt lat="40.85482" lon="0.52465">
        <ele>20.8</ele>
        <time>2022-05-24 15:04:34</time>
      </trkpt>
      <trkpt lat="40.85475" lon="0.52465">
        <ele>20.8</ele>
        <time>2022-05-24 15:04:35</time>
      </trkpt>
      <trkpt lat="40.85471" lon="0.52465">
        <ele>20.8</ele>
        <time>2022-05-24 15:04:36</time>
      </trkpt>
      <trkpt lat="40.85464" lon="0.52465">
        <ele>20.8</ele>
        <time>2022-05-24 15:04:37</time>
      </trkpt>
      <trkpt lat="40.8546" lon="0.52466">
        <ele>20.8</ele>
        <time>2022-05-24 15:04:38</time>
      </trkpt>
      <trkpt lat="40.85453" lon="0.52467">
        <ele>20.8</ele>
        <time>2022-05-24 15:04:39</time>
      </trkpt>
      <trkpt lat="40.85449" lon="0.52467">
        <ele>20.8</ele>
        <time>2022-05-24 15:04:40</time>
      </trkpt>
      <trkpt lat="40.85442" lon="0.52468">
        <ele>20.8</ele>
        <time>2022-05-24 15:04:41</time>
      </trkpt>
      <trkpt lat="40.85438" lon="0.52468">
        <ele>20.8</ele>
        <time>2022-05-24 15:04:42</time>
      </trkpt>
      <trkpt lat="40.85431" lon="0.52469">
        <ele>20.8</ele>
        <time>2022-05-24 15:04:43</time>
      </trkpt>
      <trkpt lat="40.85427" lon="0.52469">
        <ele>20.8</ele>
        <time>2022-05-24 15:04:44</time>
      </trkpt>
      <trkpt lat="40.8542" lon="0.5247">
        <ele>20.8</ele>
        <time>2022-05-24 15:04:45</time>
      </trkpt>
      <trkpt lat="40.85416" lon="0.52471">
        <ele>20.8</ele>
        <time>2022-05-24 15:04:46</time>
      </trkpt>
      <trkpt lat="40.8541" lon="0.52472">
        <ele>20.8</ele>
        <time>2022-05-24 15:04:47</time>
      </trkpt>
      <trkpt lat="40.85406" lon="0.52473">
        <ele>20.8</ele>
        <time>2022-05-24 15:04:48</time>
      </trkpt>
      <trkpt lat="40.854" lon="0.52475">
        <ele>20.8</ele>
        <time>2022-05-24 15:04:49</time>
      </trkpt>
      <trkpt lat="40.85396" lon="0.52477">
        <ele>21</ele>
        <time>2022-05-24 15:04:50</time>
      </trkpt>
      <trkpt lat="40.85391" lon="0.52479">
        <ele>21</ele>
        <time>2022-05-24 15:04:51</time>
      </trkpt>
      <trkpt lat="40.85387" lon="0.52481">
        <ele>20.8</ele>
        <time>2022-05-24 15:04:52</time>
      </trkpt>
      <trkpt lat="40.85381" lon="0.52484">
        <ele>20.8</ele>
        <time>2022-05-24 15:04:53</time>
      </trkpt>
      <trkpt lat="40.85378" lon="0.52486">
        <ele>20.8</ele>
        <time>2022-05-24 15:04:54</time>
      </trkpt>
      <trkpt lat="40.85371" lon="0.52489">
        <ele>20.8</ele>
        <time>2022-05-24 15:04:55</time>
      </trkpt>
      <trkpt lat="40.85368" lon="0.52492">
        <ele>20.8</ele>
        <time>2022-05-24 15:04:56</time>
      </trkpt>
      <trkpt lat="40.85361" lon="0.52496">
        <ele>20.8</ele>
        <time>2022-05-24 15:04:57</time>
      </trkpt>
      <trkpt lat="40.85357" lon="0.52498">
        <ele>20.8</ele>
        <time>2022-05-24 15:04:58</time>
      </trkpt>
      <trkpt lat="40.85351" lon="0.52502">
        <ele>20.8</ele>
        <time>2022-05-24 15:04:59</time>
      </trkpt>
      <trkpt lat="40.85346" lon="0.52505">
        <ele>20.8</ele>
        <time>2022-05-24 15:05:00</time>
      </trkpt>
      <trkpt lat="40.8534" lon="0.52508">
        <ele>20.8</ele>
        <time>2022-05-24 15:05:01</time>
      </trkpt>
      <trkpt lat="40.85336" lon="0.5251">
        <ele>20.8</ele>
        <time>2022-05-24 15:05:02</time>
      </trkpt>
      <trkpt lat="40.85329" lon="0.52514">
        <ele>20.8</ele>
        <time>2022-05-24 15:05:03</time>
      </trkpt>
      <trkpt lat="40.85326" lon="0.52517">
        <ele>20.8</ele>
        <time>2022-05-24 15:05:04</time>
      </trkpt>
      <trkpt lat="40.8532" lon="0.52521">
        <ele>21</ele>
        <time>2022-05-24 15:05:05</time>
      </trkpt>
      <trkpt lat="40.85316" lon="0.52524">
        <ele>21</ele>
        <time>2022-05-24 15:05:06</time>
      </trkpt>
      <trkpt lat="40.8531" lon="0.52528">
        <ele>21</ele>
        <time>2022-05-24 15:05:07</time>
      </trkpt>
      <trkpt lat="40.85306" lon="0.5253">
        <ele>21</ele>
        <time>2022-05-24 15:05:08</time>
      </trkpt>
      <trkpt lat="40.853" lon="0.52533">
        <ele>21</ele>
        <time>2022-05-24 15:05:09</time>
      </trkpt>
      <trkpt lat="40.85296" lon="0.52535">
        <ele>21</ele>
        <time>2022-05-24 15:05:10</time>
      </trkpt>
      <trkpt lat="40.85291" lon="0.52538">
        <ele>21</ele>
        <time>2022-05-24 15:05:11</time>
      </trkpt>
      <trkpt lat="40.85287" lon="0.5254">
        <ele>21</ele>
        <time>2022-05-24 15:05:12</time>
      </trkpt>
      <trkpt lat="40.8528" lon="0.52543">
        <ele>21</ele>
        <time>2022-05-24 15:05:13</time>
      </trkpt>
      <trkpt lat="40.85277" lon="0.52545">
        <ele>21.2</ele>
        <time>2022-05-24 15:05:14</time>
      </trkpt>
      <trkpt lat="40.8527" lon="0.52548">
        <ele>21.2</ele>
        <time>2022-05-24 15:05:15</time>
      </trkpt>
      <trkpt lat="40.85266" lon="0.52549">
        <ele>21.2</ele>
        <time>2022-05-24 15:05:16</time>
      </trkpt>
      <trkpt lat="40.8526" lon="0.52551">
        <ele>21.2</ele>
        <time>2022-05-24 15:05:17</time>
      </trkpt>
      <trkpt lat="40.85256" lon="0.52552">
        <ele>21.2</ele>
        <time>2022-05-24 15:05:18</time>
      </trkpt>
      <trkpt lat="40.8525" lon="0.52553">
        <ele>21.2</ele>
        <time>2022-05-24 15:05:19</time>
      </trkpt>
      <trkpt lat="40.85246" lon="0.52554">
        <ele>21.2</ele>
        <time>2022-05-24 15:05:20</time>
      </trkpt>
      <trkpt lat="40.85239" lon="0.52555">
        <ele>21.2</ele>
        <time>2022-05-24 15:05:21</time>
      </trkpt>
      <trkpt lat="40.85236" lon="0.52556">
        <ele>21.2</ele>
        <time>2022-05-24 15:05:22</time>
      </trkpt>
      <trkpt lat="40.85229" lon="0.52558">
        <ele>21.2</ele>
        <time>2022-05-24 15:05:23</time>
      </trkpt>
      <trkpt lat="40.85225" lon="0.52559">
        <ele>21.2</ele>
        <time>2022-05-24 15:05:24</time>
      </trkpt>
      <trkpt lat="40.85219" lon="0.5256">
        <ele>21.2</ele>
        <time>2022-05-24 15:05:25</time>
      </trkpt>
      <trkpt lat="40.85216" lon="0.5256">
        <ele>21.2</ele>
        <time>2022-05-24 15:05:26</time>
      </trkpt>
      <trkpt lat="40.85209" lon="0.52561">
        <ele>21.2</ele>
        <time>2022-05-24 15:05:27</time>
      </trkpt>
      <trkpt lat="40.85205" lon="0.52562">
        <ele>21.2</ele>
        <time>2022-05-24 15:05:28</time>
      </trkpt>
      <trkpt lat="40.85199" lon="0.52563">
        <ele>21.2</ele>
        <time>2022-05-24 15:05:29</time>
      </trkpt>
      <trkpt lat="40.85195" lon="0.52563">
        <ele>21.2</ele>
        <time>2022-05-24 15:05:30</time>
      </trkpt>
      <trkpt lat="40.85189" lon="0.52564">
        <ele>21</ele>
        <time>2022-05-24 15:05:31</time>
      </trkpt>
      <trkpt lat="40.85185" lon="0.52565">
        <ele>21</ele>
        <time>2022-05-24 15:05:32</time>
      </trkpt>
      <trkpt lat="40.85179" lon="0.52566">
        <ele>21</ele>
        <time>2022-05-24 15:05:33</time>
      </trkpt>
      <trkpt lat="40.85175" lon="0.52566">
        <ele>21</ele>
        <time>2022-05-24 15:05:34</time>
      </trkpt>
      <trkpt lat="40.85168" lon="0.52567">
        <ele>21.2</ele>
        <time>2022-05-24 15:05:35</time>
      </trkpt>
      <trkpt lat="40.85163" lon="0.52568">
        <ele>21.2</ele>
        <time>2022-05-24 15:05:36</time>
      </trkpt>
      <trkpt lat="40.85157" lon="0.52569">
        <ele>21.2</ele>
        <time>2022-05-24 15:05:37</time>
      </trkpt>
      <trkpt lat="40.85153" lon="0.5257">
        <ele>21.2</ele>
        <time>2022-05-24 15:05:38</time>
      </trkpt>
      <trkpt lat="40.85148" lon="0.5257">
        <ele>21.2</ele>
        <time>2022-05-24 15:05:39</time>
      </trkpt>
      <trkpt lat="40.85142" lon="0.52571">
        <ele>21.2</ele>
        <time>2022-05-24 15:05:40</time>
      </trkpt>
      <trkpt lat="40.85137" lon="0.52571">
        <ele>21.2</ele>
        <time>2022-05-24 15:05:41</time>
      </trkpt>
      <trkpt lat="40.85132" lon="0.52572">
        <ele>21.2</ele>
        <time>2022-05-24 15:05:42</time>
      </trkpt>
      <trkpt lat="40.85127" lon="0.52573">
        <ele>21.2</ele>
        <time>2022-05-24 15:05:43</time>
      </trkpt>
      <trkpt lat="40.85122" lon="0.52574">
        <ele>21.2</ele>
        <time>2022-05-24 15:05:44</time>
      </trkpt>
      <trkpt lat="40.85117" lon="0.52575">
        <ele>21.2</ele>
        <time>2022-05-24 15:05:45</time>
      </trkpt>
      <trkpt lat="40.85112" lon="0.52576">
        <ele>21.2</ele>
        <time>2022-05-24 15:05:46</time>
      </trkpt>
      <trkpt lat="40.85107" lon="0.52577">
        <ele>21.2</ele>
        <time>2022-05-24 15:05:47</time>
      </trkpt>
      <trkpt lat="40.85102" lon="0.52577">
        <ele>21.2</ele>
        <time>2022-05-24 15:05:48</time>
      </trkpt>
      <trkpt lat="40.85097" lon="0.52578">
        <ele>21.4</ele>
        <time>2022-05-24 15:05:49</time>
      </trkpt>
      <trkpt lat="40.85093" lon="0.52579">
        <ele>21.4</ele>
        <time>2022-05-24 15:05:50</time>
      </trkpt>
      <trkpt lat="40.85088" lon="0.5258">
        <ele>21.4</ele>
        <time>2022-05-24 15:05:51</time>
      </trkpt>
      <trkpt lat="40.85083" lon="0.5258">
        <ele>21.4</ele>
        <time>2022-05-24 15:05:52</time>
      </trkpt>
      <trkpt lat="40.85078" lon="0.52581">
        <ele>21.4</ele>
        <time>2022-05-24 15:05:53</time>
      </trkpt>
      <trkpt lat="40.85072" lon="0.52581">
        <ele>21.4</ele>
        <time>2022-05-24 15:05:54</time>
      </trkpt>
      <trkpt lat="40.85067" lon="0.52582">
        <ele>21.4</ele>
        <time>2022-05-24 15:05:55</time>
      </trkpt>
      <trkpt lat="40.85062" lon="0.52583">
        <ele>21.4</ele>
        <time>2022-05-24 15:05:56</time>
      </trkpt>
      <trkpt lat="40.85058" lon="0.52584">
        <ele>21.4</ele>
        <time>2022-05-24 15:05:57</time>
      </trkpt>
      <trkpt lat="40.85053" lon="0.52585">
        <ele>21.2</ele>
        <time>2022-05-24 15:05:58</time>
      </trkpt>
      <trkpt lat="40.85047" lon="0.52585">
        <ele>21.2</ele>
        <time>2022-05-24 15:05:59</time>
      </trkpt>
      <trkpt lat="40.85042" lon="0.52586">
        <ele>21.4</ele>
        <time>2022-05-24 15:06:00</time>
      </trkpt>
      <trkpt lat="40.85037" lon="0.52586">
        <ele>21.4</ele>
        <time>2022-05-24 15:06:01</time>
      </trkpt>
      <trkpt lat="40.85032" lon="0.52587">
        <ele>21.4</ele>
        <time>2022-05-24 15:06:02</time>
      </trkpt>
      <trkpt lat="40.85027" lon="0.52588">
        <ele>21.4</ele>
        <time>2022-05-24 15:06:03</time>
      </trkpt>
      <trkpt lat="40.85022" lon="0.52589">
        <ele>21.4</ele>
        <time>2022-05-24 15:06:04</time>
      </trkpt>
      <trkpt lat="40.85017" lon="0.5259">
        <ele>21.4</ele>
        <time>2022-05-24 15:06:05</time>
      </trkpt>
      <trkpt lat="40.85012" lon="0.5259">
        <ele>21.4</ele>
        <time>2022-05-24 15:06:06</time>
      </trkpt>
      <trkpt lat="40.85007" lon="0.52591">
        <ele>21.4</ele>
        <time>2022-05-24 15:06:07</time>
      </trkpt>
      <trkpt lat="40.85002" lon="0.52593">
        <ele>21.4</ele>
        <time>2022-05-24 15:06:08</time>
      </trkpt>
      <trkpt lat="40.84997" lon="0.52594">
        <ele>21.4</ele>
        <time>2022-05-24 15:06:09</time>
      </trkpt>
      <trkpt lat="40.84992" lon="0.52595">
        <ele>21.4</ele>
        <time>2022-05-24 15:06:10</time>
      </trkpt>
      <trkpt lat="40.84987" lon="0.52596">
        <ele>21.4</ele>
        <time>2022-05-24 15:06:11</time>
      </trkpt>
      <trkpt lat="40.84982" lon="0.52597">
        <ele>21.4</ele>
        <time>2022-05-24 15:06:12</time>
      </trkpt>
      <trkpt lat="40.84977" lon="0.52598">
        <ele>21.4</ele>
        <time>2022-05-24 15:06:13</time>
      </trkpt>
      <trkpt lat="40.84972" lon="0.52599">
        <ele>21.4</ele>
        <time>2022-05-24 15:06:14</time>
      </trkpt>
      <trkpt lat="40.84966" lon="0.52601">
        <ele>21.4</ele>
        <time>2022-05-24 15:06:15</time>
      </trkpt>
      <trkpt lat="40.84961" lon="0.52602">
        <ele>21.4</ele>
        <time>2022-05-24 15:06:16</time>
      </trkpt>
      <trkpt lat="40.84956" lon="0.52603">
        <ele>21.2</ele>
        <time>2022-05-24 15:06:17</time>
      </trkpt>
      <trkpt lat="40.84951" lon="0.52605">
        <ele>21.2</ele>
        <time>2022-05-24 15:06:18</time>
      </trkpt>
      <trkpt lat="40.84946" lon="0.52606">
        <ele>21.2</ele>
        <time>2022-05-24 15:06:19</time>
      </trkpt>
      <trkpt lat="40.8494" lon="0.52607">
        <ele>21.2</ele>
        <time>2022-05-24 15:06:20</time>
      </trkpt>
      <trkpt lat="40.84935" lon="0.52608">
        <ele>21.2</ele>
        <time>2022-05-24 15:06:21</time>
      </trkpt>
      <trkpt lat="40.8493" lon="0.5261">
        <ele>21</ele>
        <time>2022-05-24 15:06:22</time>
      </trkpt>
      <trkpt lat="40.84925" lon="0.52612">
        <ele>21</ele>
        <time>2022-05-24 15:06:23</time>
      </trkpt>
      <trkpt lat="40.8492" lon="0.52613">
        <ele>21</ele>
        <time>2022-05-24 15:06:24</time>
      </trkpt>
      <trkpt lat="40.84915" lon="0.52614">
        <ele>21</ele>
        <time>2022-05-24 15:06:25</time>
      </trkpt>
      <trkpt lat="40.84909" lon="0.52616">
        <ele>21</ele>
        <time>2022-05-24 15:06:26</time>
      </trkpt>
      <trkpt lat="40.84904" lon="0.52617">
        <ele>20.8</ele>
        <time>2022-05-24 15:06:27</time>
      </trkpt>
      <trkpt lat="40.84898" lon="0.52618">
        <ele>20.8</ele>
        <time>2022-05-24 15:06:28</time>
      </trkpt>
      <trkpt lat="40.84893" lon="0.52619">
        <ele>20.8</ele>
        <time>2022-05-24 15:06:29</time>
      </trkpt>
      <trkpt lat="40.84888" lon="0.52621">
        <ele>20.8</ele>
        <time>2022-05-24 15:06:30</time>
      </trkpt>
      <trkpt lat="40.84882" lon="0.52622">
        <ele>20.6</ele>
        <time>2022-05-24 15:06:31</time>
      </trkpt>
      <trkpt lat="40.84877" lon="0.52623">
        <ele>20.6</ele>
        <time>2022-05-24 15:06:32</time>
      </trkpt>
      <trkpt lat="40.84872" lon="0.52625">
        <ele>20.6</ele>
        <time>2022-05-24 15:06:33</time>
      </trkpt>
      <trkpt lat="40.84867" lon="0.52626">
        <ele>20.6</ele>
        <time>2022-05-24 15:06:34</time>
      </trkpt>
      <trkpt lat="40.84862" lon="0.52627">
        <ele>20.6</ele>
        <time>2022-05-24 15:06:35</time>
      </trkpt>
      <trkpt lat="40.84857" lon="0.52628">
        <ele>20.6</ele>
        <time>2022-05-24 15:06:36</time>
      </trkpt>
      <trkpt lat="40.84852" lon="0.52629">
        <ele>20.4</ele>
        <time>2022-05-24 15:06:37</time>
      </trkpt>
      <trkpt lat="40.84847" lon="0.52631">
        <ele>20.4</ele>
        <time>2022-05-24 15:06:38</time>
      </trkpt>
      <trkpt lat="40.84841" lon="0.52632">
        <ele>20.4</ele>
        <time>2022-05-24 15:06:39</time>
      </trkpt>
      <trkpt lat="40.84836" lon="0.52633">
        <ele>20.4</ele>
        <time>2022-05-24 15:06:40</time>
      </trkpt>
      <trkpt lat="40.84831" lon="0.52634">
        <ele>20.4</ele>
        <time>2022-05-24 15:06:41</time>
      </trkpt>
      <trkpt lat="40.84826" lon="0.52634">
        <ele>20.4</ele>
        <time>2022-05-24 15:06:42</time>
      </trkpt>
      <trkpt lat="40.8482" lon="0.52635">
        <ele>20.4</ele>
        <time>2022-05-24 15:06:43</time>
      </trkpt>
      <trkpt lat="40.84815" lon="0.52636">
        <ele>20.4</ele>
        <time>2022-05-24 15:06:44</time>
      </trkpt>
      <trkpt lat="40.8481" lon="0.52636">
        <ele>20.4</ele>
        <time>2022-05-24 15:06:45</time>
      </trkpt>
      <trkpt lat="40.84805" lon="0.52637">
        <ele>20.4</ele>
        <time>2022-05-24 15:06:46</time>
      </trkpt>
      <trkpt lat="40.848" lon="0.52637">
        <ele>20.4</ele>
        <time>2022-05-24 15:06:47</time>
      </trkpt>
      <trkpt lat="40.84795" lon="0.52638">
        <ele>20.6</ele>
        <time>2022-05-24 15:06:48</time>
      </trkpt>
      <trkpt lat="40.8479" lon="0.52639">
        <ele>20.6</ele>
        <time>2022-05-24 15:06:49</time>
      </trkpt>
      <trkpt lat="40.84785" lon="0.5264">
        <ele>20.6</ele>
        <time>2022-05-24 15:06:50</time>
      </trkpt>
      <trkpt lat="40.84781" lon="0.52641">
        <ele>20.6</ele>
        <time>2022-05-24 15:06:51</time>
      </trkpt>
      <trkpt lat="40.84775" lon="0.52642">
        <ele>20.6</ele>
        <time>2022-05-24 15:06:52</time>
      </trkpt>
      <trkpt lat="40.8477" lon="0.52643">
        <ele>20.6</ele>
        <time>2022-05-24 15:06:53</time>
      </trkpt>
      <trkpt lat="40.84766" lon="0.52644">
        <ele>20.6</ele>
        <time>2022-05-24 15:06:54</time>
      </trkpt>
      <trkpt lat="40.84761" lon="0.52645">
        <ele>20.8</ele>
        <time>2022-05-24 15:06:55</time>
      </trkpt>
      <trkpt lat="40.84756" lon="0.52647">
        <ele>20.8</ele>
        <time>2022-05-24 15:06:56</time>
      </trkpt>
      <trkpt lat="40.84752" lon="0.52648">
        <ele>20.8</ele>
        <time>2022-05-24 15:06:57</time>
      </trkpt>
      <trkpt lat="40.84747" lon="0.52649">
        <ele>20.8</ele>
        <time>2022-05-24 15:06:58</time>
      </trkpt>
      <trkpt lat="40.84742" lon="0.52651">
        <ele>20.8</ele>
        <time>2022-05-24 15:06:59</time>
      </trkpt>
      <trkpt lat="40.84738" lon="0.52653">
        <ele>20.8</ele>
        <time>2022-05-24 15:07:00</time>
      </trkpt>
      <trkpt lat="40.84733" lon="0.52655">
        <ele>20.8</ele>
        <time>2022-05-24 15:07:01</time>
      </trkpt>
      <trkpt lat="40.84729" lon="0.52657">
        <ele>20.8</ele>
        <time>2022-05-24 15:07:02</time>
      </trkpt>
      <trkpt lat="40.84724" lon="0.52659">
        <ele>20.8</ele>
        <time>2022-05-24 15:07:03</time>
      </trkpt>
      <trkpt lat="40.84719" lon="0.52661">
        <ele>20.8</ele>
        <time>2022-05-24 15:07:04</time>
      </trkpt>
      <trkpt lat="40.84714" lon="0.52663">
        <ele>20.8</ele>
        <time>2022-05-24 15:07:05</time>
      </trkpt>
      <trkpt lat="40.84709" lon="0.52665">
        <ele>20.8</ele>
        <time>2022-05-24 15:07:06</time>
      </trkpt>
      <trkpt lat="40.84703" lon="0.52666">
        <ele>20.8</ele>
        <time>2022-05-24 15:07:07</time>
      </trkpt>
      <trkpt lat="40.84698" lon="0.52668">
        <ele>20.8</ele>
        <time>2022-05-24 15:07:08</time>
      </trkpt>
      <trkpt lat="40.84693" lon="0.5267">
        <ele>20.8</ele>
        <time>2022-05-24 15:07:09</time>
      </trkpt>
      <trkpt lat="40.84687" lon="0.52671">
        <ele>20.8</ele>
        <time>2022-05-24 15:07:10</time>
      </trkpt>
      <trkpt lat="40.84682" lon="0.52673">
        <ele>20.8</ele>
        <time>2022-05-24 15:07:11</time>
      </trkpt>
      <trkpt lat="40.84677" lon="0.52675">
        <ele>20.8</ele>
        <time>2022-05-24 15:07:12</time>
      </trkpt>
      <trkpt lat="40.84672" lon="0.52676">
        <ele>20.8</ele>
        <time>2022-05-24 15:07:13</time>
      </trkpt>
      <trkpt lat="40.84666" lon="0.52677">
        <ele>20.6</ele>
        <time>2022-05-24 15:07:14</time>
      </trkpt>
      <trkpt lat="40.8466" lon="0.52678">
        <ele>20.6</ele>
        <time>2022-05-24 15:07:15</time>
      </trkpt>
      <trkpt lat="40.84654" lon="0.52679">
        <ele>20.6</ele>
        <time>2022-05-24 15:07:16</time>
      </trkpt>
      <trkpt lat="40.84648" lon="0.5268">
        <ele>20.6</ele>
        <time>2022-05-24 15:07:17</time>
      </trkpt>
      <trkpt lat="40.84643" lon="0.52681">
        <ele>20.6</ele>
        <time>2022-05-24 15:07:18</time>
      </trkpt>
      <trkpt lat="40.84637" lon="0.52682">
        <ele>20.6</ele>
        <time>2022-05-24 15:07:19</time>
      </trkpt>
      <trkpt lat="40.84631" lon="0.52682">
        <ele>20.6</ele>
        <time>2022-05-24 15:07:20</time>
      </trkpt>
      <trkpt lat="40.84626" lon="0.52682">
        <ele>20.6</ele>
        <time>2022-05-24 15:07:21</time>
      </trkpt>
      <trkpt lat="40.84621" lon="0.52682">
        <ele>20.8</ele>
        <time>2022-05-24 15:07:22</time>
      </trkpt>
      <trkpt lat="40.84615" lon="0.52682">
        <ele>20.8</ele>
        <time>2022-05-24 15:07:23</time>
      </trkpt>
      <trkpt lat="40.8461" lon="0.52682">
        <ele>20.8</ele>
        <time>2022-05-24 15:07:24</time>
      </trkpt>
      <trkpt lat="40.84605" lon="0.52682">
        <ele>21</ele>
        <time>2022-05-24 15:07:25</time>
      </trkpt>
      <trkpt lat="40.846" lon="0.52682">
        <ele>21</ele>
        <time>2022-05-24 15:07:26</time>
      </trkpt>
      <trkpt lat="40.84595" lon="0.52681">
        <ele>21</ele>
        <time>2022-05-24 15:07:27</time>
      </trkpt>
      <trkpt lat="40.8459" lon="0.52681">
        <ele>21</ele>
        <time>2022-05-24 15:07:28</time>
      </trkpt>
      <trkpt lat="40.84585" lon="0.5268">
        <ele>21.2</ele>
        <time>2022-05-24 15:07:29</time>
      </trkpt>
      <trkpt lat="40.8458" lon="0.52679">
        <ele>21.2</ele>
        <time>2022-05-24 15:07:30</time>
      </trkpt>
      <trkpt lat="40.84574" lon="0.52679">
        <ele>21.2</ele>
        <time>2022-05-24 15:07:31</time>
      </trkpt>
      <trkpt lat="40.8457" lon="0.52679">
        <ele>21.2</ele>
        <time>2022-05-24 15:07:32</time>
      </trkpt>
      <trkpt lat="40.84564" lon="0.52678">
        <ele>21.2</ele>
        <time>2022-05-24 15:07:33</time>
      </trkpt>
      <trkpt lat="40.84559" lon="0.52677">
        <ele>21.2</ele>
        <time>2022-05-24 15:07:34</time>
      </trkpt>
      <trkpt lat="40.84554" lon="0.52676">
        <ele>21.2</ele>
        <time>2022-05-24 15:07:35</time>
      </trkpt>
      <trkpt lat="40.84549" lon="0.52675">
        <ele>21.2</ele>
        <time>2022-05-24 15:07:36</time>
      </trkpt>
      <trkpt lat="40.84543" lon="0.52673">
        <ele>21</ele>
        <time>2022-05-24 15:07:37</time>
      </trkpt>
      <trkpt lat="40.84537" lon="0.52672">
        <ele>21</ele>
        <time>2022-05-24 15:07:38</time>
      </trkpt>
      <trkpt lat="40.84532" lon="0.5267">
        <ele>21</ele>
        <time>2022-05-24 15:07:39</time>
      </trkpt>
      <trkpt lat="40.84527" lon="0.52668">
        <ele>21</ele>
        <time>2022-05-24 15:07:40</time>
      </trkpt>
      <trkpt lat="40.84521" lon="0.52666">
        <ele>21</ele>
        <time>2022-05-24 15:07:41</time>
      </trkpt>
      <trkpt lat="40.84515" lon="0.52664">
        <ele>21</ele>
        <time>2022-05-24 15:07:42</time>
      </trkpt>
      <trkpt lat="40.8451" lon="0.52661">
        <ele>21</ele>
        <time>2022-05-24 15:07:43</time>
      </trkpt>
      <trkpt lat="40.84505" lon="0.52659">
        <ele>21</ele>
        <time>2022-05-24 15:07:44</time>
      </trkpt>
      <trkpt lat="40.845" lon="0.52656">
        <ele>21</ele>
        <time>2022-05-24 15:07:45</time>
      </trkpt>
      <trkpt lat="40.84495" lon="0.52654">
        <ele>21</ele>
        <time>2022-05-24 15:07:46</time>
      </trkpt>
      <trkpt lat="40.84489" lon="0.52651">
        <ele>21</ele>
        <time>2022-05-24 15:07:47</time>
      </trkpt>
      <trkpt lat="40.84484" lon="0.52649">
        <ele>21.2</ele>
        <time>2022-05-24 15:07:48</time>
      </trkpt>
      <trkpt lat="40.84479" lon="0.52647">
        <ele>21.2</ele>
        <time>2022-05-24 15:07:49</time>
      </trkpt>
      <trkpt lat="40.84474" lon="0.52644">
        <ele>21.2</ele>
        <time>2022-05-24 15:07:50</time>
      </trkpt>
      <trkpt lat="40.84468" lon="0.52642">
        <ele>21.2</ele>
        <time>2022-05-24 15:07:51</time>
      </trkpt>
      <trkpt lat="40.84464" lon="0.52639">
        <ele>21.2</ele>
        <time>2022-05-24 15:07:52</time>
      </trkpt>
      <trkpt lat="40.84458" lon="0.52637">
        <ele>21.2</ele>
        <time>2022-05-24 15:07:53</time>
      </trkpt>
      <trkpt lat="40.84453" lon="0.52634">
        <ele>21.2</ele>
        <time>2022-05-24 15:07:54</time>
      </trkpt>
      <trkpt lat="40.84448" lon="0.52632">
        <ele>21.2</ele>
        <time>2022-05-24 15:07:55</time>
      </trkpt>
      <trkpt lat="40.84443" lon="0.5263">
        <ele>21.2</ele>
        <time>2022-05-24 15:07:56</time>
      </trkpt>
      <trkpt lat="40.84438" lon="0.52628">
        <ele>21.2</ele>
        <time>2022-05-24 15:07:57</time>
      </trkpt>
      <trkpt lat="40.84433" lon="0.52626">
        <ele>21.2</ele>
        <time>2022-05-24 15:07:58</time>
      </trkpt>
      <trkpt lat="40.84427" lon="0.52624">
        <ele>21.2</ele>
        <time>2022-05-24 15:07:59</time>
      </trkpt>
      <trkpt lat="40.84422" lon="0.52622">
        <ele>21.2</ele>
        <time>2022-05-24 15:08:00</time>
      </trkpt>
      <trkpt lat="40.84416" lon="0.5262">
        <ele>21</ele>
        <time>2022-05-24 15:08:01</time>
      </trkpt>
      <trkpt lat="40.84411" lon="0.52619">
        <ele>21</ele>
        <time>2022-05-24 15:08:02</time>
      </trkpt>
      <trkpt lat="40.84404" lon="0.52617">
        <ele>20.8</ele>
        <time>2022-05-24 15:08:03</time>
      </trkpt>
      <trkpt lat="40.84399" lon="0.52616">
        <ele>20.8</ele>
        <time>2022-05-24 15:08:04</time>
      </trkpt>
      <trkpt lat="40.84393" lon="0.52615">
        <ele>20.6</ele>
        <time>2022-05-24 15:08:05</time>
      </trkpt>
      <trkpt lat="40.84386" lon="0.52614">
        <ele>20.6</ele>
        <time>2022-05-24 15:08:06</time>
      </trkpt>
      <trkpt lat="40.8438" lon="0.52613">
        <ele>20.4</ele>
        <time>2022-05-24 15:08:07</time>
      </trkpt>
      <trkpt lat="40.84374" lon="0.52612">
        <ele>20.4</ele>
        <time>2022-05-24 15:08:08</time>
      </trkpt>
      <trkpt lat="40.84368" lon="0.52611">
        <ele>20.4</ele>
        <time>2022-05-24 15:08:09</time>
      </trkpt>
      <trkpt lat="40.84363" lon="0.5261">
        <ele>20.2</ele>
        <time>2022-05-24 15:08:10</time>
      </trkpt>
      <trkpt lat="40.84357" lon="0.52609">
        <ele>20.2</ele>
        <time>2022-05-24 15:08:11</time>
      </trkpt>
      <trkpt lat="40.84351" lon="0.52608">
        <ele>20</ele>
        <time>2022-05-24 15:08:12</time>
      </trkpt>
      <trkpt lat="40.84345" lon="0.52607">
        <ele>20</ele>
        <time>2022-05-24 15:08:13</time>
      </trkpt>
      <trkpt lat="40.84339" lon="0.52606">
        <ele>20</ele>
        <time>2022-05-24 15:08:14</time>
      </trkpt>
      <trkpt lat="40.84334" lon="0.52605">
        <ele>19.8</ele>
        <time>2022-05-24 15:08:15</time>
      </trkpt>
      <trkpt lat="40.84328" lon="0.52604">
        <ele>19.8</ele>
        <time>2022-05-24 15:08:16</time>
      </trkpt>
      <trkpt lat="40.84322" lon="0.52603">
        <ele>19.8</ele>
        <time>2022-05-24 15:08:17</time>
      </trkpt>
      <trkpt lat="40.84317" lon="0.52602">
        <ele>19.8</ele>
        <time>2022-05-24 15:08:18</time>
      </trkpt>
      <trkpt lat="40.84311" lon="0.52601">
        <ele>19.8</ele>
        <time>2022-05-24 15:08:19</time>
      </trkpt>
      <trkpt lat="40.84306" lon="0.526">
        <ele>19.8</ele>
        <time>2022-05-24 15:08:20</time>
      </trkpt>
      <trkpt lat="40.843" lon="0.52599">
        <ele>19.8</ele>
        <time>2022-05-24 15:08:21</time>
      </trkpt>
      <trkpt lat="40.84296" lon="0.52598">
        <ele>19.8</ele>
        <time>2022-05-24 15:08:22</time>
      </trkpt>
      <trkpt lat="40.84289" lon="0.52597">
        <ele>19.8</ele>
        <time>2022-05-24 15:08:23</time>
      </trkpt>
      <trkpt lat="40.84285" lon="0.52596">
        <ele>19.6</ele>
        <time>2022-05-24 15:08:24</time>
      </trkpt>
      <trkpt lat="40.84278" lon="0.52594">
        <ele>19.6</ele>
        <time>2022-05-24 15:08:25</time>
      </trkpt>
      <trkpt lat="40.84272" lon="0.52593">
        <ele>19.6</ele>
        <time>2022-05-24 15:08:26</time>
      </trkpt>
      <trkpt lat="40.84266" lon="0.52592">
        <ele>19.6</ele>
        <time>2022-05-24 15:08:27</time>
      </trkpt>
      <trkpt lat="40.84261" lon="0.52591">
        <ele>19.6</ele>
        <time>2022-05-24 15:08:28</time>
      </trkpt>
      <trkpt lat="40.84255" lon="0.52589">
        <ele>19.6</ele>
        <time>2022-05-24 15:08:29</time>
      </trkpt>
      <trkpt lat="40.8425" lon="0.52588">
        <ele>19.6</ele>
        <time>2022-05-24 15:08:30</time>
      </trkpt>
      <trkpt lat="40.84244" lon="0.52587">
        <ele>19.6</ele>
        <time>2022-05-24 15:08:31</time>
      </trkpt>
      <trkpt lat="40.84239" lon="0.52586">
        <ele>19.6</ele>
        <time>2022-05-24 15:08:32</time>
      </trkpt>
      <trkpt lat="40.84234" lon="0.52585">
        <ele>19.6</ele>
        <time>2022-05-24 15:08:33</time>
      </trkpt>
      <trkpt lat="40.84229" lon="0.52583">
        <ele>19.6</ele>
        <time>2022-05-24 15:08:34</time>
      </trkpt>
      <trkpt lat="40.84223" lon="0.52581">
        <ele>19.6</ele>
        <time>2022-05-24 15:08:35</time>
      </trkpt>
      <trkpt lat="40.84219" lon="0.52579">
        <ele>19.6</ele>
        <time>2022-05-24 15:08:36</time>
      </trkpt>
      <trkpt lat="40.84212" lon="0.52577">
        <ele>19.6</ele>
        <time>2022-05-24 15:08:37</time>
      </trkpt>
      <trkpt lat="40.84207" lon="0.52575">
        <ele>19.6</ele>
        <time>2022-05-24 15:08:38</time>
      </trkpt>
      <trkpt lat="40.842" lon="0.52573">
        <ele>19.6</ele>
        <time>2022-05-24 15:08:39</time>
      </trkpt>
      <trkpt lat="40.84196" lon="0.52572">
        <ele>19.6</ele>
        <time>2022-05-24 15:08:40</time>
      </trkpt>
      <trkpt lat="40.8419" lon="0.52569">
        <ele>19.6</ele>
        <time>2022-05-24 15:08:41</time>
      </trkpt>
      <trkpt lat="40.84185" lon="0.52568">
        <ele>19.6</ele>
        <time>2022-05-24 15:08:42</time>
      </trkpt>
      <trkpt lat="40.84178" lon="0.52566">
        <ele>19.4</ele>
        <time>2022-05-24 15:08:43</time>
      </trkpt>
      <trkpt lat="40.84173" lon="0.52564">
        <ele>19.4</ele>
        <time>2022-05-24 15:08:44</time>
      </trkpt>
      <trkpt lat="40.84167" lon="0.52562">
        <ele>19.4</ele>
        <time>2022-05-24 15:08:45</time>
      </trkpt>
      <trkpt lat="40.84161" lon="0.52561">
        <ele>19.4</ele>
        <time>2022-05-24 15:08:46</time>
      </trkpt>
      <trkpt lat="40.84155" lon="0.52559">
        <ele>19.6</ele>
        <time>2022-05-24 15:08:47</time>
      </trkpt>
      <trkpt lat="40.8415" lon="0.52557">
        <ele>19.6</ele>
        <time>2022-05-24 15:08:48</time>
      </trkpt>
      <trkpt lat="40.84143" lon="0.52555">
        <ele>19.6</ele>
        <time>2022-05-24 15:08:49</time>
      </trkpt>
      <trkpt lat="40.84138" lon="0.52554">
        <ele>19.6</ele>
        <time>2022-05-24 15:08:50</time>
      </trkpt>
      <trkpt lat="40.84131" lon="0.52552">
        <ele>19.6</ele>
        <time>2022-05-24 15:08:51</time>
      </trkpt>
      <trkpt lat="40.84127" lon="0.52551">
        <ele>19.6</ele>
        <time>2022-05-24 15:08:52</time>
      </trkpt>
      <trkpt lat="40.8412" lon="0.52549">
        <ele>19.6</ele>
        <time>2022-05-24 15:08:53</time>
      </trkpt>
      <trkpt lat="40.84116" lon="0.52548">
        <ele>19.6</ele>
        <time>2022-05-24 15:08:54</time>
      </trkpt>
      <trkpt lat="40.84108" lon="0.52546">
        <ele>19.6</ele>
        <time>2022-05-24 15:08:55</time>
      </trkpt>
      <trkpt lat="40.84104" lon="0.52545">
        <ele>19.6</ele>
        <time>2022-05-24 15:08:56</time>
      </trkpt>
      <trkpt lat="40.84097" lon="0.52543">
        <ele>19.6</ele>
        <time>2022-05-24 15:08:57</time>
      </trkpt>
      <trkpt lat="40.84092" lon="0.52542">
        <ele>19.6</ele>
        <time>2022-05-24 15:08:58</time>
      </trkpt>
      <trkpt lat="40.84085" lon="0.5254">
        <ele>19.6</ele>
        <time>2022-05-24 15:08:59</time>
      </trkpt>
      <trkpt lat="40.8408" lon="0.52539">
        <ele>19.6</ele>
        <time>2022-05-24 15:09:00</time>
      </trkpt>
      <trkpt lat="40.84073" lon="0.52538">
        <ele>19.6</ele>
        <time>2022-05-24 15:09:01</time>
      </trkpt>
      <trkpt lat="40.84069" lon="0.52537">
        <ele>19.6</ele>
        <time>2022-05-24 15:09:02</time>
      </trkpt>
      <trkpt lat="40.84061" lon="0.52536">
        <ele>19.6</ele>
        <time>2022-05-24 15:09:03</time>
      </trkpt>
      <trkpt lat="40.84057" lon="0.52535">
        <ele>19.6</ele>
        <time>2022-05-24 15:09:04</time>
      </trkpt>
      <trkpt lat="40.84049" lon="0.52534">
        <ele>19.4</ele>
        <time>2022-05-24 15:09:05</time>
      </trkpt>
      <trkpt lat="40.84044" lon="0.52534">
        <ele>19.4</ele>
        <time>2022-05-24 15:09:06</time>
      </trkpt>
      <trkpt lat="40.84037" lon="0.52532">
        <ele>19.4</ele>
        <time>2022-05-24 15:09:07</time>
      </trkpt>
      <trkpt lat="40.84032" lon="0.52531">
        <ele>19.4</ele>
        <time>2022-05-24 15:09:08</time>
      </trkpt>
      <trkpt lat="40.84025" lon="0.5253">
        <ele>19.4</ele>
        <time>2022-05-24 15:09:09</time>
      </trkpt>
      <trkpt lat="40.8402" lon="0.5253">
        <ele>19.4</ele>
        <time>2022-05-24 15:09:10</time>
      </trkpt>
      <trkpt lat="40.84012" lon="0.52529">
        <ele>19.4</ele>
        <time>2022-05-24 15:09:11</time>
      </trkpt>
      <trkpt lat="40.84008" lon="0.52528">
        <ele>19.4</ele>
        <time>2022-05-24 15:09:12</time>
      </trkpt>
      <trkpt lat="40.84" lon="0.52527">
        <ele>19.4</ele>
        <time>2022-05-24 15:09:13</time>
      </trkpt>
      <trkpt lat="40.83996" lon="0.52526">
        <ele>19.6</ele>
        <time>2022-05-24 15:09:14</time>
      </trkpt>
      <trkpt lat="40.83988" lon="0.52525">
        <ele>19.6</ele>
        <time>2022-05-24 15:09:15</time>
      </trkpt>
      <trkpt lat="40.83984" lon="0.52525">
        <ele>19.6</ele>
        <time>2022-05-24 15:09:16</time>
      </trkpt>
      <trkpt lat="40.83977" lon="0.52523">
        <ele>19.6</ele>
        <time>2022-05-24 15:09:17</time>
      </trkpt>
      <trkpt lat="40.83972" lon="0.52523">
        <ele>19.6</ele>
        <time>2022-05-24 15:09:18</time>
      </trkpt>
      <trkpt lat="40.83965" lon="0.52522">
        <ele>19.6</ele>
        <time>2022-05-24 15:09:19</time>
      </trkpt>
      <trkpt lat="40.83959" lon="0.52521">
        <ele>19.6</ele>
        <time>2022-05-24 15:09:20</time>
      </trkpt>
      <trkpt lat="40.83952" lon="0.52521">
        <ele>19.6</ele>
        <time>2022-05-24 15:09:21</time>
      </trkpt>
      <trkpt lat="40.83948" lon="0.5252">
        <ele>19.6</ele>
        <time>2022-05-24 15:09:22</time>
      </trkpt>
      <trkpt lat="40.83941" lon="0.52519">
        <ele>19.8</ele>
        <time>2022-05-24 15:09:23</time>
      </trkpt>
      <trkpt lat="40.83937" lon="0.52518">
        <ele>19.8</ele>
        <time>2022-05-24 15:09:24</time>
      </trkpt>
      <trkpt lat="40.8393" lon="0.52517">
        <ele>20</ele>
        <time>2022-05-24 15:09:25</time>
      </trkpt>
      <trkpt lat="40.83926" lon="0.52516">
        <ele>20.2</ele>
        <time>2022-05-24 15:09:26</time>
      </trkpt>
      <trkpt lat="40.83919" lon="0.52515">
        <ele>20.2</ele>
        <time>2022-05-24 15:09:27</time>
      </trkpt>
      <trkpt lat="40.83915" lon="0.52515">
        <ele>20.4</ele>
        <time>2022-05-24 15:09:28</time>
      </trkpt>
      <trkpt lat="40.83908" lon="0.52514">
        <ele>20.6</ele>
        <time>2022-05-24 15:09:29</time>
      </trkpt>
      <trkpt lat="40.83904" lon="0.52513">
        <ele>20.6</ele>
        <time>2022-05-24 15:09:30</time>
      </trkpt>
      <trkpt lat="40.83897" lon="0.52513">
        <ele>20.8</ele>
        <time>2022-05-24 15:09:31</time>
      </trkpt>
      <trkpt lat="40.83893" lon="0.52512">
        <ele>20.8</ele>
        <time>2022-05-24 15:09:32</time>
      </trkpt>
      <trkpt lat="40.83886" lon="0.52512">
        <ele>21</ele>
        <time>2022-05-24 15:09:33</time>
      </trkpt>
      <trkpt lat="40.83882" lon="0.52511">
        <ele>21</ele>
        <time>2022-05-24 15:09:34</time>
      </trkpt>
      <trkpt lat="40.83874" lon="0.5251">
        <ele>21.2</ele>
        <time>2022-05-24 15:09:35</time>
      </trkpt>
      <trkpt lat="40.8387" lon="0.52509">
        <ele>21.2</ele>
        <time>2022-05-24 15:09:36</time>
      </trkpt>
      <trkpt lat="40.83863" lon="0.52508">
        <ele>21.4</ele>
        <time>2022-05-24 15:09:37</time>
      </trkpt>
      <trkpt lat="40.83858" lon="0.52508">
        <ele>21.4</ele>
        <time>2022-05-24 15:09:38</time>
      </trkpt>
      <trkpt lat="40.83852" lon="0.52507">
        <ele>21.6</ele>
        <time>2022-05-24 15:09:39</time>
      </trkpt>
      <trkpt lat="40.83847" lon="0.52506">
        <ele>21.6</ele>
        <time>2022-05-24 15:09:40</time>
      </trkpt>
      <trkpt lat="40.8384" lon="0.52505">
        <ele>21.8</ele>
        <time>2022-05-24 15:09:41</time>
      </trkpt>
      <trkpt lat="40.83836" lon="0.52505">
        <ele>21.8</ele>
        <time>2022-05-24 15:09:42</time>
      </trkpt>
      <trkpt lat="40.83829" lon="0.52504">
        <ele>22</ele>
        <time>2022-05-24 15:09:43</time>
      </trkpt>
      <trkpt lat="40.83824" lon="0.52503">
        <ele>22</ele>
        <time>2022-05-24 15:09:44</time>
      </trkpt>
      <trkpt lat="40.83817" lon="0.52502">
        <ele>22</ele>
        <time>2022-05-24 15:09:45</time>
      </trkpt>
      <trkpt lat="40.83812" lon="0.52501">
        <ele>22</ele>
        <time>2022-05-24 15:09:46</time>
      </trkpt>
      <trkpt lat="40.83806" lon="0.525">
        <ele>22</ele>
        <time>2022-05-24 15:09:47</time>
      </trkpt>
      <trkpt lat="40.83802" lon="0.52499">
        <ele>22.2</ele>
        <time>2022-05-24 15:09:48</time>
      </trkpt>
      <trkpt lat="40.83794" lon="0.52498">
        <ele>22.2</ele>
        <time>2022-05-24 15:09:49</time>
      </trkpt>
      <trkpt lat="40.8379" lon="0.52497">
        <ele>22.2</ele>
        <time>2022-05-24 15:09:50</time>
      </trkpt>
      <trkpt lat="40.83783" lon="0.52495">
        <ele>22.2</ele>
        <time>2022-05-24 15:09:51</time>
      </trkpt>
      <trkpt lat="40.83779" lon="0.52494">
        <ele>22.2</ele>
        <time>2022-05-24 15:09:52</time>
      </trkpt>
      <trkpt lat="40.83773" lon="0.52493">
        <ele>22.2</ele>
        <time>2022-05-24 15:09:53</time>
      </trkpt>
      <trkpt lat="40.83766" lon="0.52492">
        <ele>22.4</ele>
        <time>2022-05-24 15:09:54</time>
      </trkpt>
      <trkpt lat="40.8376" lon="0.52491">
        <ele>22.4</ele>
        <time>2022-05-24 15:09:55</time>
      </trkpt>
      <trkpt lat="40.83754" lon="0.52489">
        <ele>22.4</ele>
        <time>2022-05-24 15:09:56</time>
      </trkpt>
      <trkpt lat="40.83749" lon="0.52488">
        <ele>22.4</ele>
        <time>2022-05-24 15:09:57</time>
      </trkpt>
      <trkpt lat="40.83743" lon="0.52487">
        <ele>22.4</ele>
        <time>2022-05-24 15:09:58</time>
      </trkpt>
      <trkpt lat="40.83737" lon="0.52487">
        <ele>22.4</ele>
        <time>2022-05-24 15:09:59</time>
      </trkpt>
      <trkpt lat="40.83731" lon="0.52486">
        <ele>22.4</ele>
        <time>2022-05-24 15:10:00</time>
      </trkpt>
      <trkpt lat="40.83725" lon="0.52485">
        <ele>22.2</ele>
        <time>2022-05-24 15:10:01</time>
      </trkpt>
      <trkpt lat="40.8372" lon="0.52485">
        <ele>22.2</ele>
        <time>2022-05-24 15:10:02</time>
      </trkpt>
      <trkpt lat="40.83714" lon="0.52484">
        <ele>22.2</ele>
        <time>2022-05-24 15:10:03</time>
      </trkpt>
      <trkpt lat="40.83707" lon="0.52483">
        <ele>22.2</ele>
        <time>2022-05-24 15:10:04</time>
      </trkpt>
      <trkpt lat="40.83701" lon="0.52482">
        <ele>22</ele>
        <time>2022-05-24 15:10:05</time>
      </trkpt>
      <trkpt lat="40.83695" lon="0.52481">
        <ele>22</ele>
        <time>2022-05-24 15:10:06</time>
      </trkpt>
      <trkpt lat="40.83689" lon="0.52481">
        <ele>22</ele>
        <time>2022-05-24 15:10:07</time>
      </trkpt>
      <trkpt lat="40.83682" lon="0.52479">
        <ele>22</ele>
        <time>2022-05-24 15:10:08</time>
      </trkpt>
      <trkpt lat="40.83676" lon="0.52479">
        <ele>21.8</ele>
        <time>2022-05-24 15:10:09</time>
      </trkpt>
      <trkpt lat="40.8367" lon="0.52478">
        <ele>21.8</ele>
        <time>2022-05-24 15:10:10</time>
      </trkpt>
      <trkpt lat="40.83663" lon="0.52477">
        <ele>21.6</ele>
        <time>2022-05-24 15:10:11</time>
      </trkpt>
      <trkpt lat="40.83657" lon="0.52476">
        <ele>21.6</ele>
        <time>2022-05-24 15:10:12</time>
      </trkpt>
      <trkpt lat="40.8365" lon="0.52475">
        <ele>21.6</ele>
        <time>2022-05-24 15:10:13</time>
      </trkpt>
      <trkpt lat="40.83643" lon="0.52475">
        <ele>21.6</ele>
        <time>2022-05-24 15:10:14</time>
      </trkpt>
      <trkpt lat="40.83637" lon="0.52474">
        <ele>21.4</ele>
        <time>2022-05-24 15:10:15</time>
      </trkpt>
      <trkpt lat="40.8363" lon="0.52473">
        <ele>21.4</ele>
        <time>2022-05-24 15:10:16</time>
      </trkpt>
      <trkpt lat="40.83624" lon="0.52472">
        <ele>21.4</ele>
        <time>2022-05-24 15:10:17</time>
      </trkpt>
      <trkpt lat="40.83618" lon="0.52471">
        <ele>21.4</ele>
        <time>2022-05-24 15:10:18</time>
      </trkpt>
      <trkpt lat="40.83611" lon="0.5247">
        <ele>21.2</ele>
        <time>2022-05-24 15:10:19</time>
      </trkpt>
      <trkpt lat="40.83606" lon="0.52469">
        <ele>21.2</ele>
        <time>2022-05-24 15:10:20</time>
      </trkpt>
      <trkpt lat="40.83599" lon="0.52467">
        <ele>21.2</ele>
        <time>2022-05-24 15:10:21</time>
      </trkpt>
      <trkpt lat="40.83593" lon="0.52465">
        <ele>21.2</ele>
        <time>2022-05-24 15:10:22</time>
      </trkpt>
      <trkpt lat="40.83587" lon="0.52463">
        <ele>21.2</ele>
        <time>2022-05-24 15:10:23</time>
      </trkpt>
      <trkpt lat="40.8358" lon="0.52461">
        <ele>21.2</ele>
        <time>2022-05-24 15:10:24</time>
      </trkpt>
      <trkpt lat="40.83573" lon="0.52459">
        <ele>21.2</ele>
        <time>2022-05-24 15:10:25</time>
      </trkpt>
      <trkpt lat="40.83567" lon="0.52457">
        <ele>21.2</ele>
        <time>2022-05-24 15:10:26</time>
      </trkpt>
      <trkpt lat="40.83561" lon="0.52455">
        <ele>21.4</ele>
        <time>2022-05-24 15:10:27</time>
      </trkpt>
      <trkpt lat="40.83556" lon="0.52454">
        <ele>21.4</ele>
        <time>2022-05-24 15:10:28</time>
      </trkpt>
      <trkpt lat="40.83549" lon="0.52452">
        <ele>21.4</ele>
        <time>2022-05-24 15:10:29</time>
      </trkpt>
      <trkpt lat="40.83543" lon="0.52451">
        <ele>21.4</ele>
        <time>2022-05-24 15:10:30</time>
      </trkpt>
      <trkpt lat="40.83537" lon="0.52449">
        <ele>21.2</ele>
        <time>2022-05-24 15:10:31</time>
      </trkpt>
      <trkpt lat="40.83531" lon="0.52448">
        <ele>21.2</ele>
        <time>2022-05-24 15:10:32</time>
      </trkpt>
      <trkpt lat="40.83524" lon="0.52447">
        <ele>21.2</ele>
        <time>2022-05-24 15:10:33</time>
      </trkpt>
      <trkpt lat="40.83519" lon="0.52446">
        <ele>21.2</ele>
        <time>2022-05-24 15:10:34</time>
      </trkpt>
      <trkpt lat="40.83513" lon="0.52446">
        <ele>21.2</ele>
        <time>2022-05-24 15:10:35</time>
      </trkpt>
      <trkpt lat="40.83507" lon="0.52445">
        <ele>21</ele>
        <time>2022-05-24 15:10:36</time>
      </trkpt>
      <trkpt lat="40.835" lon="0.52445">
        <ele>21</ele>
        <time>2022-05-24 15:10:37</time>
      </trkpt>
      <trkpt lat="40.83494" lon="0.52445">
        <ele>20.8</ele>
        <time>2022-05-24 15:10:38</time>
      </trkpt>
      <trkpt lat="40.83488" lon="0.52445">
        <ele>20.6</ele>
        <time>2022-05-24 15:10:39</time>
      </trkpt>
      <trkpt lat="40.83482" lon="0.52445">
        <ele>20.6</ele>
        <time>2022-05-24 15:10:40</time>
      </trkpt>
      <trkpt lat="40.83475" lon="0.52446">
        <ele>20.4</ele>
        <time>2022-05-24 15:10:41</time>
      </trkpt>
      <trkpt lat="40.83469" lon="0.52446">
        <ele>20.4</ele>
        <time>2022-05-24 15:10:42</time>
      </trkpt>
      <trkpt lat="40.83462" lon="0.52446">
        <ele>20.4</ele>
        <time>2022-05-24 15:10:43</time>
      </trkpt>
      <trkpt lat="40.83456" lon="0.52446">
        <ele>20.4</ele>
        <time>2022-05-24 15:10:44</time>
      </trkpt>
      <trkpt lat="40.83449" lon="0.52446">
        <ele>20.2</ele>
        <time>2022-05-24 15:10:45</time>
      </trkpt>
      <trkpt lat="40.83443" lon="0.52447">
        <ele>20.2</ele>
        <time>2022-05-24 15:10:46</time>
      </trkpt>
      <trkpt lat="40.83436" lon="0.52447">
        <ele>20.2</ele>
        <time>2022-05-24 15:10:47</time>
      </trkpt>
      <trkpt lat="40.83431" lon="0.52447">
        <ele>20.4</ele>
        <time>2022-05-24 15:10:48</time>
      </trkpt>
      <trkpt lat="40.83424" lon="0.52448">
        <ele>20.2</ele>
        <time>2022-05-24 15:10:49</time>
      </trkpt>
      <trkpt lat="40.83418" lon="0.52448">
        <ele>20.2</ele>
        <time>2022-05-24 15:10:50</time>
      </trkpt>
      <trkpt lat="40.83411" lon="0.52449">
        <ele>20.2</ele>
        <time>2022-05-24 15:10:51</time>
      </trkpt>
      <trkpt lat="40.83407" lon="0.52449">
        <ele>20.2</ele>
        <time>2022-05-24 15:10:52</time>
      </trkpt>
      <trkpt lat="40.83399" lon="0.5245">
        <ele>20.2</ele>
        <time>2022-05-24 15:10:53</time>
      </trkpt>
      <trkpt lat="40.83395" lon="0.5245">
        <ele>20.2</ele>
        <time>2022-05-24 15:10:54</time>
      </trkpt>
      <trkpt lat="40.83387" lon="0.5245">
        <ele>20.2</ele>
        <time>2022-05-24 15:10:55</time>
      </trkpt>
      <trkpt lat="40.83382" lon="0.5245">
        <ele>20.4</ele>
        <time>2022-05-24 15:10:56</time>
      </trkpt>
      <trkpt lat="40.83376" lon="0.52451">
        <ele>20.4</ele>
        <time>2022-05-24 15:10:57</time>
      </trkpt>
      <trkpt lat="40.8337" lon="0.5245">
        <ele>20.2</ele>
        <time>2022-05-24 15:10:58</time>
      </trkpt>
      <trkpt lat="40.83364" lon="0.5245">
        <ele>20.2</ele>
        <time>2022-05-24 15:10:59</time>
      </trkpt>
      <trkpt lat="40.83358" lon="0.5245">
        <ele>20.2</ele>
        <time>2022-05-24 15:11:00</time>
      </trkpt>
      <trkpt lat="40.83352" lon="0.52449">
        <ele>20.2</ele>
        <time>2022-05-24 15:11:01</time>
      </trkpt>
      <trkpt lat="40.83346" lon="0.52449">
        <ele>20.2</ele>
        <time>2022-05-24 15:11:02</time>
      </trkpt>
      <trkpt lat="40.83341" lon="0.52449">
        <ele>20.2</ele>
        <time>2022-05-24 15:11:03</time>
      </trkpt>
      <trkpt lat="40.83335" lon="0.52449">
        <ele>20.2</ele>
        <time>2022-05-24 15:11:04</time>
      </trkpt>
      <trkpt lat="40.83329" lon="0.52448">
        <ele>20.2</ele>
        <time>2022-05-24 15:11:05</time>
      </trkpt>
      <trkpt lat="40.83323" lon="0.52448">
        <ele>20.2</ele>
        <time>2022-05-24 15:11:06</time>
      </trkpt>
      <trkpt lat="40.83317" lon="0.52447">
        <ele>20.2</ele>
        <time>2022-05-24 15:11:07</time>
      </trkpt>
      <trkpt lat="40.83311" lon="0.52447">
        <ele>20.2</ele>
        <time>2022-05-24 15:11:08</time>
      </trkpt>
      <trkpt lat="40.83305" lon="0.52447">
        <ele>20.2</ele>
        <time>2022-05-24 15:11:09</time>
      </trkpt>
      <trkpt lat="40.833" lon="0.52446">
        <ele>20.2</ele>
        <time>2022-05-24 15:11:10</time>
      </trkpt>
      <trkpt lat="40.83294" lon="0.52446">
        <ele>20.2</ele>
        <time>2022-05-24 15:11:11</time>
      </trkpt>
      <trkpt lat="40.83288" lon="0.52446">
        <ele>20.2</ele>
        <time>2022-05-24 15:11:12</time>
      </trkpt>
      <trkpt lat="40.83282" lon="0.52445">
        <ele>20.2</ele>
        <time>2022-05-24 15:11:13</time>
      </trkpt>
      <trkpt lat="40.83277" lon="0.52445">
        <ele>20</ele>
        <time>2022-05-24 15:11:14</time>
      </trkpt>
      <trkpt lat="40.8327" lon="0.52445">
        <ele>20</ele>
        <time>2022-05-24 15:11:15</time>
      </trkpt>
      <trkpt lat="40.83265" lon="0.52444">
        <ele>20</ele>
        <time>2022-05-24 15:11:16</time>
      </trkpt>
      <trkpt lat="40.83259" lon="0.52444">
        <ele>20</ele>
        <time>2022-05-24 15:11:17</time>
      </trkpt>
      <trkpt lat="40.83253" lon="0.52443">
        <ele>20</ele>
        <time>2022-05-24 15:11:18</time>
      </trkpt>
      <trkpt lat="40.83247" lon="0.52443">
        <ele>20</ele>
        <time>2022-05-24 15:11:19</time>
      </trkpt>
      <trkpt lat="40.83241" lon="0.52443">
        <ele>20</ele>
        <time>2022-05-24 15:11:20</time>
      </trkpt>
      <trkpt lat="40.83235" lon="0.52442">
        <ele>20</ele>
        <time>2022-05-24 15:11:21</time>
      </trkpt>
      <trkpt lat="40.83229" lon="0.52442">
        <ele>20</ele>
        <time>2022-05-24 15:11:22</time>
      </trkpt>
      <trkpt lat="40.83223" lon="0.52442">
        <ele>20</ele>
        <time>2022-05-24 15:11:23</time>
      </trkpt>
      <trkpt lat="40.83218" lon="0.52442">
        <ele>20</ele>
        <time>2022-05-24 15:11:24</time>
      </trkpt>
      <trkpt lat="40.83212" lon="0.52441">
        <ele>20</ele>
        <time>2022-05-24 15:11:25</time>
      </trkpt>
      <trkpt lat="40.83206" lon="0.52441">
        <ele>20</ele>
        <time>2022-05-24 15:11:26</time>
      </trkpt>
      <trkpt lat="40.832" lon="0.52441">
        <ele>20.2</ele>
        <time>2022-05-24 15:11:27</time>
      </trkpt>
      <trkpt lat="40.83195" lon="0.52441">
        <ele>20.2</ele>
        <time>2022-05-24 15:11:28</time>
      </trkpt>
      <trkpt lat="40.83189" lon="0.52441">
        <ele>20.2</ele>
        <time>2022-05-24 15:11:29</time>
      </trkpt>
      <trkpt lat="40.83184" lon="0.52441">
        <ele>20.2</ele>
        <time>2022-05-24 15:11:30</time>
      </trkpt>
      <trkpt lat="40.83178" lon="0.52441">
        <ele>20.2</ele>
        <time>2022-05-24 15:11:31</time>
      </trkpt>
      <trkpt lat="40.83172" lon="0.52442">
        <ele>20.2</ele>
        <time>2022-05-24 15:11:32</time>
      </trkpt>
      <trkpt lat="40.83166" lon="0.52442">
        <ele>20.2</ele>
        <time>2022-05-24 15:11:33</time>
      </trkpt>
      <trkpt lat="40.8316" lon="0.52443">
        <ele>20.2</ele>
        <time>2022-05-24 15:11:34</time>
      </trkpt>
      <trkpt lat="40.83154" lon="0.52443">
        <ele>20</ele>
        <time>2022-05-24 15:11:35</time>
      </trkpt>
      <trkpt lat="40.83149" lon="0.52444">
        <ele>20</ele>
        <time>2022-05-24 15:11:36</time>
      </trkpt>
      <trkpt lat="40.83143" lon="0.52445">
        <ele>20</ele>
        <time>2022-05-24 15:11:37</time>
      </trkpt>
      <trkpt lat="40.83137" lon="0.52445">
        <ele>20</ele>
        <time>2022-05-24 15:11:38</time>
      </trkpt>
      <trkpt lat="40.83131" lon="0.52446">
        <ele>20</ele>
        <time>2022-05-24 15:11:39</time>
      </trkpt>
      <trkpt lat="40.83126" lon="0.52447">
        <ele>20</ele>
        <time>2022-05-24 15:11:40</time>
      </trkpt>
      <trkpt lat="40.8312" lon="0.52448">
        <ele>20</ele>
        <time>2022-05-24 15:11:41</time>
      </trkpt>
      <trkpt lat="40.83113" lon="0.52449">
        <ele>20</ele>
        <time>2022-05-24 15:11:42</time>
      </trkpt>
      <trkpt lat="40.83108" lon="0.52449">
        <ele>20</ele>
        <time>2022-05-24 15:11:43</time>
      </trkpt>
      <trkpt lat="40.83102" lon="0.5245">
        <ele>20</ele>
        <time>2022-05-24 15:11:44</time>
      </trkpt>
      <trkpt lat="40.83097" lon="0.5245">
        <ele>20</ele>
        <time>2022-05-24 15:11:45</time>
      </trkpt>
      <trkpt lat="40.8309" lon="0.5245">
        <ele>20</ele>
        <time>2022-05-24 15:11:46</time>
      </trkpt>
      <trkpt lat="40.83085" lon="0.52451">
        <ele>20</ele>
        <time>2022-05-24 15:11:47</time>
      </trkpt>
      <trkpt lat="40.83079" lon="0.52451">
        <ele>20</ele>
        <time>2022-05-24 15:11:48</time>
      </trkpt>
      <trkpt lat="40.83073" lon="0.52452">
        <ele>19.8</ele>
        <time>2022-05-24 15:11:49</time>
      </trkpt>
      <trkpt lat="40.83068" lon="0.52452">
        <ele>19.8</ele>
        <time>2022-05-24 15:11:50</time>
      </trkpt>
      <trkpt lat="40.83062" lon="0.52453">
        <ele>19.8</ele>
        <time>2022-05-24 15:11:51</time>
      </trkpt>
      <trkpt lat="40.83057" lon="0.52453">
        <ele>19.8</ele>
        <time>2022-05-24 15:11:52</time>
      </trkpt>
      <trkpt lat="40.8305" lon="0.52453">
        <ele>19.8</ele>
        <time>2022-05-24 15:11:53</time>
      </trkpt>
      <trkpt lat="40.83044" lon="0.52453">
        <ele>19.8</ele>
        <time>2022-05-24 15:11:54</time>
      </trkpt>
      <trkpt lat="40.83038" lon="0.52454">
        <ele>19.8</ele>
        <time>2022-05-24 15:11:55</time>
      </trkpt>
      <trkpt lat="40.83033" lon="0.52454">
        <ele>19.8</ele>
        <time>2022-05-24 15:11:56</time>
      </trkpt>
      <trkpt lat="40.83026" lon="0.52453">
        <ele>20</ele>
        <time>2022-05-24 15:11:57</time>
      </trkpt>
      <trkpt lat="40.8302" lon="0.52453">
        <ele>19.8</ele>
        <time>2022-05-24 15:11:58</time>
      </trkpt>
      <trkpt lat="40.83015" lon="0.52452">
        <ele>19.8</ele>
        <time>2022-05-24 15:11:59</time>
      </trkpt>
      <trkpt lat="40.83009" lon="0.52451">
        <ele>19.8</ele>
        <time>2022-05-24 15:12:00</time>
      </trkpt>
      <trkpt lat="40.83003" lon="0.52451">
        <ele>20</ele>
        <time>2022-05-24 15:12:01</time>
      </trkpt>
      <trkpt lat="40.82998" lon="0.5245">
        <ele>20</ele>
        <time>2022-05-24 15:12:02</time>
      </trkpt>
      <trkpt lat="40.82992" lon="0.52449">
        <ele>20</ele>
        <time>2022-05-24 15:12:03</time>
      </trkpt>
      <trkpt lat="40.82987" lon="0.52448">
        <ele>20</ele>
        <time>2022-05-24 15:12:04</time>
      </trkpt>
      <trkpt lat="40.82981" lon="0.52447">
        <ele>20</ele>
        <time>2022-05-24 15:12:05</time>
      </trkpt>
      <trkpt lat="40.82976" lon="0.52446">
        <ele>20</ele>
        <time>2022-05-24 15:12:06</time>
      </trkpt>
      <trkpt lat="40.8297" lon="0.52445">
        <ele>20</ele>
        <time>2022-05-24 15:12:07</time>
      </trkpt>
      <trkpt lat="40.82965" lon="0.52444">
        <ele>20</ele>
        <time>2022-05-24 15:12:08</time>
      </trkpt>
      <trkpt lat="40.82959" lon="0.52443">
        <ele>20</ele>
        <time>2022-05-24 15:12:09</time>
      </trkpt>
      <trkpt lat="40.82954" lon="0.52442">
        <ele>20</ele>
        <time>2022-05-24 15:12:10</time>
      </trkpt>
      <trkpt lat="40.82948" lon="0.5244">
        <ele>20</ele>
        <time>2022-05-24 15:12:11</time>
      </trkpt>
      <trkpt lat="40.82943" lon="0.52439">
        <ele>20.2</ele>
        <time>2022-05-24 15:12:12</time>
      </trkpt>
      <trkpt lat="40.82937" lon="0.52437">
        <ele>20.2</ele>
        <time>2022-05-24 15:12:13</time>
      </trkpt>
      <trkpt lat="40.82932" lon="0.52436">
        <ele>20.2</ele>
        <time>2022-05-24 15:12:14</time>
      </trkpt>
      <trkpt lat="40.82926" lon="0.52435">
        <ele>20.2</ele>
        <time>2022-05-24 15:12:15</time>
      </trkpt>
      <trkpt lat="40.82921" lon="0.52433">
        <ele>20.2</ele>
        <time>2022-05-24 15:12:16</time>
      </trkpt>
      <trkpt lat="40.82916" lon="0.52432">
        <ele>20.2</ele>
        <time>2022-05-24 15:12:17</time>
      </trkpt>
      <trkpt lat="40.8291" lon="0.52431">
        <ele>20.2</ele>
        <time>2022-05-24 15:12:18</time>
      </trkpt>
      <trkpt lat="40.82905" lon="0.52429">
        <ele>20.2</ele>
        <time>2022-05-24 15:12:19</time>
      </trkpt>
      <trkpt lat="40.829" lon="0.52428">
        <ele>20.2</ele>
        <time>2022-05-24 15:12:20</time>
      </trkpt>
      <trkpt lat="40.82894" lon="0.52426">
        <ele>20.2</ele>
        <time>2022-05-24 15:12:21</time>
      </trkpt>
      <trkpt lat="40.8289" lon="0.52424">
        <ele>20.2</ele>
        <time>2022-05-24 15:12:22</time>
      </trkpt>
      <trkpt lat="40.82883" lon="0.52422">
        <ele>20.2</ele>
        <time>2022-05-24 15:12:23</time>
      </trkpt>
      <trkpt lat="40.82879" lon="0.52421">
        <ele>20.2</ele>
        <time>2022-05-24 15:12:24</time>
      </trkpt>
      <trkpt lat="40.82873" lon="0.5242">
        <ele>20.2</ele>
        <time>2022-05-24 15:12:25</time>
      </trkpt>
      <trkpt lat="40.82868" lon="0.52419">
        <ele>20.2</ele>
        <time>2022-05-24 15:12:26</time>
      </trkpt>
      <trkpt lat="40.82862" lon="0.52418">
        <ele>20.2</ele>
        <time>2022-05-24 15:12:27</time>
      </trkpt>
      <trkpt lat="40.82858" lon="0.52418">
        <ele>20.2</ele>
        <time>2022-05-24 15:12:28</time>
      </trkpt>
      <trkpt lat="40.82852" lon="0.52417">
        <ele>20.2</ele>
        <time>2022-05-24 15:12:29</time>
      </trkpt>
      <trkpt lat="40.82847" lon="0.52417">
        <ele>20.2</ele>
        <time>2022-05-24 15:12:30</time>
      </trkpt>
      <trkpt lat="40.82842" lon="0.52417">
        <ele>20.2</ele>
        <time>2022-05-24 15:12:31</time>
      </trkpt>
      <trkpt lat="40.82838" lon="0.52417">
        <ele>20.2</ele>
        <time>2022-05-24 15:12:32</time>
      </trkpt>
      <trkpt lat="40.82833" lon="0.52417">
        <ele>20.2</ele>
        <time>2022-05-24 15:12:33</time>
      </trkpt>
      <trkpt lat="40.82828" lon="0.52417">
        <ele>20.2</ele>
        <time>2022-05-24 15:12:34</time>
      </trkpt>
      <trkpt lat="40.82822" lon="0.52417">
        <ele>20.2</ele>
        <time>2022-05-24 15:12:35</time>
      </trkpt>
      <trkpt lat="40.82817" lon="0.52417">
        <ele>20</ele>
        <time>2022-05-24 15:12:36</time>
      </trkpt>
      <trkpt lat="40.82811" lon="0.52417">
        <ele>20</ele>
        <time>2022-05-24 15:12:37</time>
      </trkpt>
      <trkpt lat="40.82807" lon="0.52417">
        <ele>20</ele>
        <time>2022-05-24 15:12:38</time>
      </trkpt>
      <trkpt lat="40.82799" lon="0.52417">
        <ele>20</ele>
        <time>2022-05-24 15:12:39</time>
      </trkpt>
      <trkpt lat="40.82794" lon="0.52416">
        <ele>20</ele>
        <time>2022-05-24 15:12:40</time>
      </trkpt>
      <trkpt lat="40.82786" lon="0.52416">
        <ele>20</ele>
        <time>2022-05-24 15:12:41</time>
      </trkpt>
      <trkpt lat="40.82782" lon="0.52416">
        <ele>20</ele>
        <time>2022-05-24 15:12:42</time>
      </trkpt>
      <trkpt lat="40.82775" lon="0.52416">
        <ele>20</ele>
        <time>2022-05-24 15:12:43</time>
      </trkpt>
      <trkpt lat="40.8277" lon="0.52416">
        <ele>20</ele>
        <time>2022-05-24 15:12:44</time>
      </trkpt>
      <trkpt lat="40.82763" lon="0.52416">
        <ele>20</ele>
        <time>2022-05-24 15:12:45</time>
      </trkpt>
      <trkpt lat="40.82759" lon="0.52416">
        <ele>20</ele>
        <time>2022-05-24 15:12:46</time>
      </trkpt>
      <trkpt lat="40.82752" lon="0.52416">
        <ele>20</ele>
        <time>2022-05-24 15:12:47</time>
      </trkpt>
      <trkpt lat="40.82748" lon="0.52416">
        <ele>20</ele>
        <time>2022-05-24 15:12:48</time>
      </trkpt>
      <trkpt lat="40.82741" lon="0.52417">
        <ele>20</ele>
        <time>2022-05-24 15:12:49</time>
      </trkpt>
      <trkpt lat="40.82737" lon="0.52417">
        <ele>20</ele>
        <time>2022-05-24 15:12:50</time>
      </trkpt>
      <trkpt lat="40.82729" lon="0.52417">
        <ele>20</ele>
        <time>2022-05-24 15:12:51</time>
      </trkpt>
      <trkpt lat="40.82725" lon="0.52417">
        <ele>20</ele>
        <time>2022-05-24 15:12:52</time>
      </trkpt>
      <trkpt lat="40.82717" lon="0.52417">
        <ele>20</ele>
        <time>2022-05-24 15:12:53</time>
      </trkpt>
      <trkpt lat="40.82713" lon="0.52417">
        <ele>20</ele>
        <time>2022-05-24 15:12:54</time>
      </trkpt>
      <trkpt lat="40.82706" lon="0.52417">
        <ele>20</ele>
        <time>2022-05-24 15:12:55</time>
      </trkpt>
      <trkpt lat="40.82702" lon="0.52417">
        <ele>20</ele>
        <time>2022-05-24 15:12:56</time>
      </trkpt>
      <trkpt lat="40.82694" lon="0.52417">
        <ele>20</ele>
        <time>2022-05-24 15:12:57</time>
      </trkpt>
      <trkpt lat="40.8269" lon="0.52417">
        <ele>20</ele>
        <time>2022-05-24 15:12:58</time>
      </trkpt>
      <trkpt lat="40.82683" lon="0.52417">
        <ele>20</ele>
        <time>2022-05-24 15:12:59</time>
      </trkpt>
      <trkpt lat="40.82679" lon="0.52417">
        <ele>20</ele>
        <time>2022-05-24 15:13:00</time>
      </trkpt>
      <trkpt lat="40.82671" lon="0.52417">
        <ele>20</ele>
        <time>2022-05-24 15:13:01</time>
      </trkpt>
      <trkpt lat="40.82667" lon="0.52417">
        <ele>20</ele>
        <time>2022-05-24 15:13:02</time>
      </trkpt>
      <trkpt lat="40.82659" lon="0.52417">
        <ele>19.8</ele>
        <time>2022-05-24 15:13:03</time>
      </trkpt>
      <trkpt lat="40.82655" lon="0.52417">
        <ele>19.8</ele>
        <time>2022-05-24 15:13:04</time>
      </trkpt>
      <trkpt lat="40.82647" lon="0.52417">
        <ele>19.8</ele>
        <time>2022-05-24 15:13:05</time>
      </trkpt>
      <trkpt lat="40.82643" lon="0.52418">
        <ele>19.8</ele>
        <time>2022-05-24 15:13:06</time>
      </trkpt>
      <trkpt lat="40.82636" lon="0.52418">
        <ele>19.8</ele>
        <time>2022-05-24 15:13:07</time>
      </trkpt>
      <trkpt lat="40.82632" lon="0.52417">
        <ele>19.8</ele>
        <time>2022-05-24 15:13:08</time>
      </trkpt>
      <trkpt lat="40.82624" lon="0.52418">
        <ele>19.8</ele>
        <time>2022-05-24 15:13:09</time>
      </trkpt>
      <trkpt lat="40.8262" lon="0.52418">
        <ele>19.8</ele>
        <time>2022-05-24 15:13:10</time>
      </trkpt>
      <trkpt lat="40.82613" lon="0.52418">
        <ele>19.8</ele>
        <time>2022-05-24 15:13:11</time>
      </trkpt>
      <trkpt lat="40.82608" lon="0.52418">
        <ele>19.8</ele>
        <time>2022-05-24 15:13:12</time>
      </trkpt>
      <trkpt lat="40.82601" lon="0.52418">
        <ele>19.8</ele>
        <time>2022-05-24 15:13:13</time>
      </trkpt>
      <trkpt lat="40.82597" lon="0.52417">
        <ele>19.8</ele>
        <time>2022-05-24 15:13:14</time>
      </trkpt>
      <trkpt lat="40.8259" lon="0.52418">
        <ele>19.8</ele>
        <time>2022-05-24 15:13:15</time>
      </trkpt>
      <trkpt lat="40.82586" lon="0.52418">
        <ele>19.8</ele>
        <time>2022-05-24 15:13:16</time>
      </trkpt>
      <trkpt lat="40.82579" lon="0.52419">
        <ele>19.8</ele>
        <time>2022-05-24 15:13:17</time>
      </trkpt>
      <trkpt lat="40.82574" lon="0.52419">
        <ele>19.8</ele>
        <time>2022-05-24 15:13:18</time>
      </trkpt>
      <trkpt lat="40.82567" lon="0.52419">
        <ele>19.8</ele>
        <time>2022-05-24 15:13:19</time>
      </trkpt>
      <trkpt lat="40.82563" lon="0.52419">
        <ele>19.8</ele>
        <time>2022-05-24 15:13:20</time>
      </trkpt>
      <trkpt lat="40.82556" lon="0.5242">
        <ele>19.8</ele>
        <time>2022-05-24 15:13:21</time>
      </trkpt>
      <trkpt lat="40.82552" lon="0.52421">
        <ele>19.6</ele>
        <time>2022-05-24 15:13:22</time>
      </trkpt>
      <trkpt lat="40.82544" lon="0.52422">
        <ele>19.6</ele>
        <time>2022-05-24 15:13:23</time>
      </trkpt>
      <trkpt lat="40.8254" lon="0.52422">
        <ele>19.6</ele>
        <time>2022-05-24 15:13:24</time>
      </trkpt>
      <trkpt lat="40.82534" lon="0.52423">
        <ele>19.8</ele>
        <time>2022-05-24 15:13:25</time>
      </trkpt>
      <trkpt lat="40.8253" lon="0.52424">
        <ele>19.8</ele>
        <time>2022-05-24 15:13:26</time>
      </trkpt>
      <trkpt lat="40.82523" lon="0.52426">
        <ele>19.8</ele>
        <time>2022-05-24 15:13:27</time>
      </trkpt>
      <trkpt lat="40.82518" lon="0.52427">
        <ele>19.8</ele>
        <time>2022-05-24 15:13:28</time>
      </trkpt>
      <trkpt lat="40.82512" lon="0.52429">
        <ele>19.8</ele>
        <time>2022-05-24 15:13:29</time>
      </trkpt>
      <trkpt lat="40.82508" lon="0.52431">
        <ele>19.8</ele>
        <time>2022-05-24 15:13:30</time>
      </trkpt>
      <trkpt lat="40.82501" lon="0.52434">
        <ele>19.8</ele>
        <time>2022-05-24 15:13:31</time>
      </trkpt>
      <trkpt lat="40.82497" lon="0.52435">
        <ele>19.8</ele>
        <time>2022-05-24 15:13:32</time>
      </trkpt>
      <trkpt lat="40.8249" lon="0.52437">
        <ele>19.8</ele>
        <time>2022-05-24 15:13:33</time>
      </trkpt>
      <trkpt lat="40.82486" lon="0.52439">
        <ele>19.8</ele>
        <time>2022-05-24 15:13:34</time>
      </trkpt>
      <trkpt lat="40.82479" lon="0.52442">
        <ele>19.8</ele>
        <time>2022-05-24 15:13:35</time>
      </trkpt>
      <trkpt lat="40.82475" lon="0.52443">
        <ele>19.8</ele>
        <time>2022-05-24 15:13:36</time>
      </trkpt>
      <trkpt lat="40.82468" lon="0.52446">
        <ele>19.8</ele>
        <time>2022-05-24 15:13:37</time>
      </trkpt>
      <trkpt lat="40.82464" lon="0.52448">
        <ele>19.8</ele>
        <time>2022-05-24 15:13:38</time>
      </trkpt>
      <trkpt lat="40.82457" lon="0.5245">
        <ele>19.8</ele>
        <time>2022-05-24 15:13:39</time>
      </trkpt>
      <trkpt lat="40.82453" lon="0.52452">
        <ele>19.8</ele>
        <time>2022-05-24 15:13:40</time>
      </trkpt>
      <trkpt lat="40.82446" lon="0.52455">
        <ele>19.6</ele>
        <time>2022-05-24 15:13:41</time>
      </trkpt>
      <trkpt lat="40.82442" lon="0.52456">
        <ele>19.6</ele>
        <time>2022-05-24 15:13:42</time>
      </trkpt>
      <trkpt lat="40.82435" lon="0.52459">
        <ele>19.6</ele>
        <time>2022-05-24 15:13:43</time>
      </trkpt>
      <trkpt lat="40.82431" lon="0.5246">
        <ele>19.6</ele>
        <time>2022-05-24 15:13:44</time>
      </trkpt>
      <trkpt lat="40.82423" lon="0.52462">
        <ele>19.6</ele>
        <time>2022-05-24 15:13:45</time>
      </trkpt>
      <trkpt lat="40.82419" lon="0.52464">
        <ele>19.6</ele>
        <time>2022-05-24 15:13:46</time>
      </trkpt>
      <trkpt lat="40.82412" lon="0.52467">
        <ele>19.6</ele>
        <time>2022-05-24 15:13:47</time>
      </trkpt>
      <trkpt lat="40.82408" lon="0.52468">
        <ele>19.6</ele>
        <time>2022-05-24 15:13:48</time>
      </trkpt>
      <trkpt lat="40.82401" lon="0.52471">
        <ele>19.6</ele>
        <time>2022-05-24 15:13:49</time>
      </trkpt>
      <trkpt lat="40.82397" lon="0.52473">
        <ele>19.6</ele>
        <time>2022-05-24 15:13:50</time>
      </trkpt>
      <trkpt lat="40.8239" lon="0.52475">
        <ele>19.6</ele>
        <time>2022-05-24 15:13:51</time>
      </trkpt>
      <trkpt lat="40.82385" lon="0.52477">
        <ele>19.6</ele>
        <time>2022-05-24 15:13:52</time>
      </trkpt>
      <trkpt lat="40.82378" lon="0.5248">
        <ele>19.6</ele>
        <time>2022-05-24 15:13:53</time>
      </trkpt>
      <trkpt lat="40.82374" lon="0.52482">
        <ele>19.6</ele>
        <time>2022-05-24 15:13:54</time>
      </trkpt>
      <trkpt lat="40.82367" lon="0.52484">
        <ele>19.6</ele>
        <time>2022-05-24 15:13:55</time>
      </trkpt>
      <trkpt lat="40.82362" lon="0.52486">
        <ele>19.6</ele>
        <time>2022-05-24 15:13:56</time>
      </trkpt>
      <trkpt lat="40.82355" lon="0.52489">
        <ele>19.4</ele>
        <time>2022-05-24 15:13:57</time>
      </trkpt>
      <trkpt lat="40.82351" lon="0.5249">
        <ele>19.4</ele>
        <time>2022-05-24 15:13:58</time>
      </trkpt>
      <trkpt lat="40.82343" lon="0.52493">
        <ele>19.4</ele>
        <time>2022-05-24 15:13:59</time>
      </trkpt>
      <trkpt lat="40.82339" lon="0.52495">
        <ele>19.4</ele>
        <time>2022-05-24 15:14:00</time>
      </trkpt>
      <trkpt lat="40.82332" lon="0.52497">
        <ele>19.4</ele>
        <time>2022-05-24 15:14:01</time>
      </trkpt>
      <trkpt lat="40.82327" lon="0.52499">
        <ele>19.4</ele>
        <time>2022-05-24 15:14:02</time>
      </trkpt>
      <trkpt lat="40.8232" lon="0.52501">
        <ele>19.4</ele>
        <time>2022-05-24 15:14:03</time>
      </trkpt>
      <trkpt lat="40.82316" lon="0.52503">
        <ele>19.4</ele>
        <time>2022-05-24 15:14:04</time>
      </trkpt>
      <trkpt lat="40.82308" lon="0.52505">
        <ele>19.4</ele>
        <time>2022-05-24 15:14:05</time>
      </trkpt>
      <trkpt lat="40.82303" lon="0.52506">
        <ele>19.4</ele>
        <time>2022-05-24 15:14:06</time>
      </trkpt>
      <trkpt lat="40.82296" lon="0.52508">
        <ele>19.4</ele>
        <time>2022-05-24 15:14:07</time>
      </trkpt>
      <trkpt lat="40.82291" lon="0.52509">
        <ele>19.2</ele>
        <time>2022-05-24 15:14:08</time>
      </trkpt>
      <trkpt lat="40.82283" lon="0.52511">
        <ele>19.2</ele>
        <time>2022-05-24 15:14:09</time>
      </trkpt>
      <trkpt lat="40.82278" lon="0.52512">
        <ele>19.2</ele>
        <time>2022-05-24 15:14:10</time>
      </trkpt>
      <trkpt lat="40.82272" lon="0.52513">
        <ele>19.2</ele>
        <time>2022-05-24 15:14:11</time>
      </trkpt>
      <trkpt lat="40.82266" lon="0.52514">
        <ele>19.2</ele>
        <time>2022-05-24 15:14:12</time>
      </trkpt>
      <trkpt lat="40.8226" lon="0.52515">
        <ele>19.2</ele>
        <time>2022-05-24 15:14:13</time>
      </trkpt>
      <trkpt lat="40.82254" lon="0.52516">
        <ele>19.2</ele>
        <time>2022-05-24 15:14:14</time>
      </trkpt>
      <trkpt lat="40.82248" lon="0.52516">
        <ele>19.2</ele>
        <time>2022-05-24 15:14:15</time>
      </trkpt>
      <trkpt lat="40.82242" lon="0.52516">
        <ele>19.4</ele>
        <time>2022-05-24 15:14:16</time>
      </trkpt>
      <trkpt lat="40.82236" lon="0.52516">
        <ele>19.2</ele>
        <time>2022-05-24 15:14:17</time>
      </trkpt>
      <trkpt lat="40.82231" lon="0.52517">
        <ele>19.4</ele>
        <time>2022-05-24 15:14:18</time>
      </trkpt>
      <trkpt lat="40.82225" lon="0.52517">
        <ele>19.4</ele>
        <time>2022-05-24 15:14:19</time>
      </trkpt>
      <trkpt lat="40.82219" lon="0.52516">
        <ele>19.4</ele>
        <time>2022-05-24 15:14:20</time>
      </trkpt>
      <trkpt lat="40.82214" lon="0.52516">
        <ele>19.2</ele>
        <time>2022-05-24 15:14:21</time>
      </trkpt>
      <trkpt lat="40.82208" lon="0.52516">
        <ele>19.4</ele>
        <time>2022-05-24 15:14:22</time>
      </trkpt>
      <trkpt lat="40.82202" lon="0.52516">
        <ele>19.4</ele>
        <time>2022-05-24 15:14:23</time>
      </trkpt>
      <trkpt lat="40.82197" lon="0.52516">
        <ele>19.4</ele>
        <time>2022-05-24 15:14:24</time>
      </trkpt>
      <trkpt lat="40.82192" lon="0.52515">
        <ele>19.4</ele>
        <time>2022-05-24 15:14:25</time>
      </trkpt>
      <trkpt lat="40.82186" lon="0.52515">
        <ele>19.4</ele>
        <time>2022-05-24 15:14:26</time>
      </trkpt>
      <trkpt lat="40.8218" lon="0.52515">
        <ele>19.4</ele>
        <time>2022-05-24 15:14:27</time>
      </trkpt>
      <trkpt lat="40.82175" lon="0.52515">
        <ele>19.4</ele>
        <time>2022-05-24 15:14:28</time>
      </trkpt>
      <trkpt lat="40.8217" lon="0.52515">
        <ele>19.6</ele>
        <time>2022-05-24 15:14:29</time>
      </trkpt>
      <trkpt lat="40.82164" lon="0.52514">
        <ele>19.6</ele>
        <time>2022-05-24 15:14:30</time>
      </trkpt>
      <trkpt lat="40.82159" lon="0.52514">
        <ele>19.6</ele>
        <time>2022-05-24 15:14:31</time>
      </trkpt>
      <trkpt lat="40.82154" lon="0.52513">
        <ele>19.6</ele>
        <time>2022-05-24 15:14:32</time>
      </trkpt>
      <trkpt lat="40.82148" lon="0.52513">
        <ele>19.6</ele>
        <time>2022-05-24 15:14:33</time>
      </trkpt>
      <trkpt lat="40.82141" lon="0.52513">
        <ele>19.4</ele>
        <time>2022-05-24 15:14:34</time>
      </trkpt>
      <trkpt lat="40.82135" lon="0.52513">
        <ele>19.4</ele>
        <time>2022-05-24 15:14:35</time>
      </trkpt>
      <trkpt lat="40.82129" lon="0.52512">
        <ele>19.4</ele>
        <time>2022-05-24 15:14:36</time>
      </trkpt>
      <trkpt lat="40.82123" lon="0.52512">
        <ele>19.4</ele>
        <time>2022-05-24 15:14:37</time>
      </trkpt>
      <trkpt lat="40.82116" lon="0.52512">
        <ele>19.4</ele>
        <time>2022-05-24 15:14:38</time>
      </trkpt>
      <trkpt lat="40.8211" lon="0.52511">
        <ele>19.4</ele>
        <time>2022-05-24 15:14:39</time>
      </trkpt>
      <trkpt lat="40.82105" lon="0.52511">
        <ele>19.4</ele>
        <time>2022-05-24 15:14:40</time>
      </trkpt>
      <trkpt lat="40.82099" lon="0.52511">
        <ele>19.4</ele>
        <time>2022-05-24 15:14:41</time>
      </trkpt>
      <trkpt lat="40.82093" lon="0.52511">
        <ele>19.4</ele>
        <time>2022-05-24 15:14:42</time>
      </trkpt>
      <trkpt lat="40.82088" lon="0.52511">
        <ele>19.4</ele>
        <time>2022-05-24 15:14:43</time>
      </trkpt>
      <trkpt lat="40.82082" lon="0.5251">
        <ele>19.2</ele>
        <time>2022-05-24 15:14:44</time>
      </trkpt>
      <trkpt lat="40.82077" lon="0.5251">
        <ele>19.2</ele>
        <time>2022-05-24 15:14:45</time>
      </trkpt>
      <trkpt lat="40.82073" lon="0.52509">
        <ele>19.2</ele>
        <time>2022-05-24 15:14:46</time>
      </trkpt>
      <trkpt lat="40.82067" lon="0.52508">
        <ele>19.2</ele>
        <time>2022-05-24 15:14:47</time>
      </trkpt>
      <trkpt lat="40.82062" lon="0.52507">
        <ele>19.2</ele>
        <time>2022-05-24 15:14:48</time>
      </trkpt>
      <trkpt lat="40.82057" lon="0.52504">
        <ele>19.2</ele>
        <time>2022-05-24 15:14:49</time>
      </trkpt>
      <trkpt lat="40.82052" lon="0.52501">
        <ele>19</ele>
        <time>2022-05-24 15:14:50</time>
      </trkpt>
      <trkpt lat="40.82048" lon="0.52497">
        <ele>19</ele>
        <time>2022-05-24 15:14:51</time>
      </trkpt>
      <trkpt lat="40.82045" lon="0.52492">
        <ele>19</ele>
        <time>2022-05-24 15:14:52</time>
      </trkpt>
      <trkpt lat="40.8204" lon="0.52484">
        <ele>19.2</ele>
        <time>2022-05-24 15:14:53</time>
      </trkpt>
      <trkpt lat="40.82038" lon="0.52479">
        <ele>19.2</ele>
        <time>2022-05-24 15:14:54</time>
      </trkpt>
      <trkpt lat="40.82035" lon="0.52471">
        <ele>19.2</ele>
        <time>2022-05-24 15:14:55</time>
      </trkpt>
      <trkpt lat="40.82032" lon="0.52465">
        <ele>19.2</ele>
        <time>2022-05-24 15:14:56</time>
      </trkpt>
      <trkpt lat="40.82029" lon="0.52457">
        <ele>19.2</ele>
        <time>2022-05-24 15:14:57</time>
      </trkpt>
      <trkpt lat="40.82026" lon="0.5245">
        <ele>19.2</ele>
        <time>2022-05-24 15:14:58</time>
      </trkpt>
      <trkpt lat="40.82024" lon="0.52442">
        <ele>19.2</ele>
        <time>2022-05-24 15:14:59</time>
      </trkpt>
      <trkpt lat="40.82021" lon="0.52435">
        <ele>19.2</ele>
        <time>2022-05-24 15:15:00</time>
      </trkpt>
      <trkpt lat="40.82021" lon="0.52427">
        <ele>19.2</ele>
        <time>2022-05-24 15:15:01</time>
      </trkpt>
      <trkpt lat="40.82021" lon="0.52422">
        <ele>19.2</ele>
        <time>2022-05-24 15:15:02</time>
      </trkpt>
      <trkpt lat="40.82023" lon="0.52413">
        <ele>19.4</ele>
        <time>2022-05-24 15:15:03</time>
      </trkpt>
      <trkpt lat="40.82024" lon="0.52406">
        <ele>19.4</ele>
        <time>2022-05-24 15:15:04</time>
      </trkpt>
      <trkpt lat="40.82025" lon="0.52398">
        <ele>19.4</ele>
        <time>2022-05-24 15:15:05</time>
      </trkpt>
      <trkpt lat="40.82025" lon="0.52392">
        <ele>19.4</ele>
        <time>2022-05-24 15:15:06</time>
      </trkpt>
      <trkpt lat="40.82022" lon="0.52385">
        <ele>19.4</ele>
        <time>2022-05-24 15:15:07</time>
      </trkpt>
      <trkpt lat="40.8202" lon="0.52381">
        <ele>19.4</ele>
        <time>2022-05-24 15:15:08</time>
      </trkpt>
      <trkpt lat="40.82015" lon="0.52377">
        <ele>19.6</ele>
        <time>2022-05-24 15:15:09</time>
      </trkpt>
      <trkpt lat="40.8201" lon="0.52374">
        <ele>19.6</ele>
        <time>2022-05-24 15:15:10</time>
      </trkpt>
      <trkpt lat="40.82005" lon="0.52371">
        <ele>19.6</ele>
        <time>2022-05-24 15:15:11</time>
      </trkpt>
      <trkpt lat="40.82001" lon="0.52368">
        <ele>19.6</ele>
        <time>2022-05-24 15:15:12</time>
      </trkpt>
      <trkpt lat="40.81996" lon="0.52364">
        <ele>19.6</ele>
        <time>2022-05-24 15:15:13</time>
      </trkpt>
      <trkpt lat="40.81993" lon="0.52359">
        <ele>19.6</ele>
        <time>2022-05-24 15:15:14</time>
      </trkpt>
      <trkpt lat="40.8199" lon="0.52354">
        <ele>19.6</ele>
        <time>2022-05-24 15:15:15</time>
      </trkpt>
      <trkpt lat="40.81987" lon="0.52348">
        <ele>19.6</ele>
        <time>2022-05-24 15:15:16</time>
      </trkpt>
      <trkpt lat="40.81984" lon="0.52342">
        <ele>19.6</ele>
        <time>2022-05-24 15:15:17</time>
      </trkpt>
      <trkpt lat="40.81982" lon="0.52338">
        <ele>19.6</ele>
        <time>2022-05-24 15:15:18</time>
      </trkpt>
      <trkpt lat="40.81977" lon="0.52332">
        <ele>19.6</ele>
        <time>2022-05-24 15:15:19</time>
      </trkpt>
      <trkpt lat="40.81974" lon="0.52328">
        <ele>19.8</ele>
        <time>2022-05-24 15:15:20</time>
      </trkpt>
      <trkpt lat="40.8197" lon="0.52323">
        <ele>19.8</ele>
        <time>2022-05-24 15:15:21</time>
      </trkpt>
      <trkpt lat="40.81966" lon="0.52318">
        <ele>19.8</ele>
        <time>2022-05-24 15:15:22</time>
      </trkpt>
      <trkpt lat="40.81962" lon="0.52314">
        <ele>19.8</ele>
        <time>2022-05-24 15:15:23</time>
      </trkpt>
      <trkpt lat="40.81958" lon="0.52311">
        <ele>19.8</ele>
        <time>2022-05-24 15:15:24</time>
      </trkpt>
      <trkpt lat="40.81953" lon="0.52307">
        <ele>19.8</ele>
        <time>2022-05-24 15:15:25</time>
      </trkpt>
      <trkpt lat="40.81949" lon="0.52304">
        <ele>19.8</ele>
        <time>2022-05-24 15:15:26</time>
      </trkpt>
      <trkpt lat="40.81942" lon="0.523">
        <ele>19.8</ele>
        <time>2022-05-24 15:15:27</time>
      </trkpt>
      <trkpt lat="40.81937" lon="0.52298">
        <ele>19.8</ele>
        <time>2022-05-24 15:15:28</time>
      </trkpt>
      <trkpt lat="40.81932" lon="0.52295">
        <ele>19.8</ele>
        <time>2022-05-24 15:15:29</time>
      </trkpt>
      <trkpt lat="40.81927" lon="0.52293">
        <ele>19.8</ele>
        <time>2022-05-24 15:15:30</time>
      </trkpt>
      <trkpt lat="40.8192" lon="0.5229">
        <ele>19.8</ele>
        <time>2022-05-24 15:15:31</time>
      </trkpt>
      <trkpt lat="40.81915" lon="0.52288">
        <ele>19.6</ele>
        <time>2022-05-24 15:15:32</time>
      </trkpt>
      <trkpt lat="40.81909" lon="0.52285">
        <ele>19.6</ele>
        <time>2022-05-24 15:15:33</time>
      </trkpt>
      <trkpt lat="40.81905" lon="0.52284">
        <ele>19.6</ele>
        <time>2022-05-24 15:15:34</time>
      </trkpt>
      <trkpt lat="40.81898" lon="0.52281">
        <ele>19.6</ele>
        <time>2022-05-24 15:15:35</time>
      </trkpt>
      <trkpt lat="40.81894" lon="0.5228">
        <ele>19.6</ele>
        <time>2022-05-24 15:15:36</time>
      </trkpt>
      <trkpt lat="40.81888" lon="0.52278">
        <ele>19.4</ele>
        <time>2022-05-24 15:15:37</time>
      </trkpt>
      <trkpt lat="40.81884" lon="0.52276">
        <ele>19.6</ele>
        <time>2022-05-24 15:15:38</time>
      </trkpt>
      <trkpt lat="40.81877" lon="0.52272">
        <ele>19.4</ele>
        <time>2022-05-24 15:15:39</time>
      </trkpt>
      <trkpt lat="40.81873" lon="0.52271">
        <ele>19.4</ele>
        <time>2022-05-24 15:15:40</time>
      </trkpt>
      <trkpt lat="40.81865" lon="0.52268">
        <ele>19.4</ele>
        <time>2022-05-24 15:15:41</time>
      </trkpt>
      <trkpt lat="40.8186" lon="0.52266">
        <ele>19.4</ele>
        <time>2022-05-24 15:15:42</time>
      </trkpt>
      <trkpt lat="40.81853" lon="0.52263">
        <ele>19.4</ele>
        <time>2022-05-24 15:15:43</time>
      </trkpt>
      <trkpt lat="40.81848" lon="0.52261">
        <ele>19.4</ele>
        <time>2022-05-24 15:15:44</time>
      </trkpt>
      <trkpt lat="40.81842" lon="0.52259">
        <ele>19.4</ele>
        <time>2022-05-24 15:15:45</time>
      </trkpt>
      <trkpt lat="40.81838" lon="0.52257">
        <ele>19.4</ele>
        <time>2022-05-24 15:15:46</time>
      </trkpt>
      <trkpt lat="40.81832" lon="0.52255">
        <ele>19.2</ele>
        <time>2022-05-24 15:15:47</time>
      </trkpt>
      <trkpt lat="40.81828" lon="0.52254">
        <ele>19.2</ele>
        <time>2022-05-24 15:15:48</time>
      </trkpt>
      <trkpt lat="40.81822" lon="0.52252">
        <ele>19.2</ele>
        <time>2022-05-24 15:15:49</time>
      </trkpt>
      <trkpt lat="40.81817" lon="0.5225">
        <ele>19.2</ele>
        <time>2022-05-24 15:15:50</time>
      </trkpt>
      <trkpt lat="40.8181" lon="0.52247">
        <ele>19.2</ele>
        <time>2022-05-24 15:15:51</time>
      </trkpt>
      <trkpt lat="40.81807" lon="0.52245">
        <ele>19</ele>
        <time>2022-05-24 15:15:52</time>
      </trkpt>
      <trkpt lat="40.81799" lon="0.52242">
        <ele>19</ele>
        <time>2022-05-24 15:15:53</time>
      </trkpt>
      <trkpt lat="40.81795" lon="0.5224">
        <ele>19</ele>
        <time>2022-05-24 15:15:54</time>
      </trkpt>
      <trkpt lat="40.81788" lon="0.52238">
        <ele>19</ele>
        <time>2022-05-24 15:15:55</time>
      </trkpt>
      <trkpt lat="40.81784" lon="0.52236">
        <ele>19</ele>
        <time>2022-05-24 15:15:56</time>
      </trkpt>
      <trkpt lat="40.81776" lon="0.52233">
        <ele>19</ele>
        <time>2022-05-24 15:15:57</time>
      </trkpt>
      <trkpt lat="40.81772" lon="0.52231">
        <ele>18.8</ele>
        <time>2022-05-24 15:15:58</time>
      </trkpt>
      <trkpt lat="40.81766" lon="0.52226">
        <ele>18.8</ele>
        <time>2022-05-24 15:15:59</time>
      </trkpt>
      <trkpt lat="40.81762" lon="0.52224">
        <ele>18.8</ele>
        <time>2022-05-24 15:16:00</time>
      </trkpt>
      <trkpt lat="40.81755" lon="0.52221">
        <ele>18.8</ele>
        <time>2022-05-24 15:16:01</time>
      </trkpt>
      <trkpt lat="40.81751" lon="0.52219">
        <ele>18.6</ele>
        <time>2022-05-24 15:16:02</time>
      </trkpt>
      <trkpt lat="40.81744" lon="0.52217">
        <ele>18.6</ele>
        <time>2022-05-24 15:16:03</time>
      </trkpt>
      <trkpt lat="40.8174" lon="0.52214">
        <ele>18.6</ele>
        <time>2022-05-24 15:16:04</time>
      </trkpt>
      <trkpt lat="40.81733" lon="0.52212">
        <ele>18.6</ele>
        <time>2022-05-24 15:16:05</time>
      </trkpt>
      <trkpt lat="40.8173" lon="0.5221">
        <ele>18.6</ele>
        <time>2022-05-24 15:16:06</time>
      </trkpt>
      <trkpt lat="40.81724" lon="0.52206">
        <ele>18.6</ele>
        <time>2022-05-24 15:16:07</time>
      </trkpt>
      <trkpt lat="40.8172" lon="0.52204">
        <ele>18.6</ele>
        <time>2022-05-24 15:16:08</time>
      </trkpt>
      <trkpt lat="40.81714" lon="0.52202">
        <ele>18.4</ele>
        <time>2022-05-24 15:16:09</time>
      </trkpt>
      <trkpt lat="40.8171" lon="0.522">
        <ele>18.4</ele>
        <time>2022-05-24 15:16:10</time>
      </trkpt>
      <trkpt lat="40.81704" lon="0.52198">
        <ele>18.4</ele>
        <time>2022-05-24 15:16:11</time>
      </trkpt>
      <trkpt lat="40.81699" lon="0.52196">
        <ele>18.4</ele>
        <time>2022-05-24 15:16:12</time>
      </trkpt>
      <trkpt lat="40.81693" lon="0.52193">
        <ele>18.4</ele>
        <time>2022-05-24 15:16:13</time>
      </trkpt>
      <trkpt lat="40.81688" lon="0.52191">
        <ele>18.4</ele>
        <time>2022-05-24 15:16:14</time>
      </trkpt>
      <trkpt lat="40.81681" lon="0.52188">
        <ele>18.4</ele>
        <time>2022-05-24 15:16:15</time>
      </trkpt>
      <trkpt lat="40.81678" lon="0.52186">
        <ele>18.4</ele>
        <time>2022-05-24 15:16:16</time>
      </trkpt>
      <trkpt lat="40.81671" lon="0.52181">
        <ele>18.4</ele>
        <time>2022-05-24 15:16:17</time>
      </trkpt>
      <trkpt lat="40.81667" lon="0.52177">
        <ele>18.4</ele>
        <time>2022-05-24 15:16:18</time>
      </trkpt>
      <trkpt lat="40.8166" lon="0.52172">
        <ele>18.4</ele>
        <time>2022-05-24 15:16:19</time>
      </trkpt>
      <trkpt lat="40.81657" lon="0.52169">
        <ele>18.4</ele>
        <time>2022-05-24 15:16:20</time>
      </trkpt>
      <trkpt lat="40.81651" lon="0.52164">
        <ele>18.2</ele>
        <time>2022-05-24 15:16:21</time>
      </trkpt>
      <trkpt lat="40.81646" lon="0.5216">
        <ele>18.2</ele>
        <time>2022-05-24 15:16:22</time>
      </trkpt>
      <trkpt lat="40.8164" lon="0.52155">
        <ele>18.2</ele>
        <time>2022-05-24 15:16:23</time>
      </trkpt>
      <trkpt lat="40.81635" lon="0.52151">
        <ele>18.2</ele>
        <time>2022-05-24 15:16:24</time>
      </trkpt>
      <trkpt lat="40.81629" lon="0.52147">
        <ele>18.2</ele>
        <time>2022-05-24 15:16:25</time>
      </trkpt>
      <trkpt lat="40.81625" lon="0.52145">
        <ele>18.2</ele>
        <time>2022-05-24 15:16:26</time>
      </trkpt>
      <trkpt lat="40.81618" lon="0.52141">
        <ele>18.2</ele>
        <time>2022-05-24 15:16:27</time>
      </trkpt>
      <trkpt lat="40.81614" lon="0.52139">
        <ele>18.2</ele>
        <time>2022-05-24 15:16:28</time>
      </trkpt>
      <trkpt lat="40.81607" lon="0.52137">
        <ele>18.2</ele>
        <time>2022-05-24 15:16:29</time>
      </trkpt>
      <trkpt lat="40.81602" lon="0.52136">
        <ele>18.2</ele>
        <time>2022-05-24 15:16:30</time>
      </trkpt>
      <trkpt lat="40.81595" lon="0.52135">
        <ele>18.2</ele>
        <time>2022-05-24 15:16:31</time>
      </trkpt>
      <trkpt lat="40.81591" lon="0.52134">
        <ele>18.2</ele>
        <time>2022-05-24 15:16:32</time>
      </trkpt>
      <trkpt lat="40.81583" lon="0.52134">
        <ele>18.2</ele>
        <time>2022-05-24 15:16:33</time>
      </trkpt>
      <trkpt lat="40.81579" lon="0.52134">
        <ele>18.2</ele>
        <time>2022-05-24 15:16:34</time>
      </trkpt>
      <trkpt lat="40.81572" lon="0.52135">
        <ele>18.2</ele>
        <time>2022-05-24 15:16:35</time>
      </trkpt>
      <trkpt lat="40.81567" lon="0.52136">
        <ele>18.2</ele>
        <time>2022-05-24 15:16:36</time>
      </trkpt>
      <trkpt lat="40.81561" lon="0.52138">
        <ele>18.2</ele>
        <time>2022-05-24 15:16:37</time>
      </trkpt>
      <trkpt lat="40.81556" lon="0.52139">
        <ele>18.2</ele>
        <time>2022-05-24 15:16:38</time>
      </trkpt>
      <trkpt lat="40.81551" lon="0.52141">
        <ele>18.2</ele>
        <time>2022-05-24 15:16:39</time>
      </trkpt>
      <trkpt lat="40.81546" lon="0.52142">
        <ele>18.2</ele>
        <time>2022-05-24 15:16:40</time>
      </trkpt>
      <trkpt lat="40.81541" lon="0.52145">
        <ele>18.2</ele>
        <time>2022-05-24 15:16:41</time>
      </trkpt>
      <trkpt lat="40.81537" lon="0.52148">
        <ele>18.2</ele>
        <time>2022-05-24 15:16:42</time>
      </trkpt>
      <trkpt lat="40.81531" lon="0.5215">
        <ele>18.2</ele>
        <time>2022-05-24 15:16:43</time>
      </trkpt>
      <trkpt lat="40.81527" lon="0.52153">
        <ele>18.2</ele>
        <time>2022-05-24 15:16:44</time>
      </trkpt>
      <trkpt lat="40.81522" lon="0.52155">
        <ele>18.2</ele>
        <time>2022-05-24 15:16:45</time>
      </trkpt>
      <trkpt lat="40.81517" lon="0.52158">
        <ele>18.2</ele>
        <time>2022-05-24 15:16:46</time>
      </trkpt>
      <trkpt lat="40.81513" lon="0.5216">
        <ele>18.2</ele>
        <time>2022-05-24 15:16:47</time>
      </trkpt>
      <trkpt lat="40.81507" lon="0.52163">
        <ele>18.2</ele>
        <time>2022-05-24 15:16:48</time>
      </trkpt>
      <trkpt lat="40.81502" lon="0.52164">
        <ele>18</ele>
        <time>2022-05-24 15:16:49</time>
      </trkpt>
      <trkpt lat="40.81497" lon="0.52165">
        <ele>18</ele>
        <time>2022-05-24 15:16:50</time>
      </trkpt>
      <trkpt lat="40.81492" lon="0.52166">
        <ele>18</ele>
        <time>2022-05-24 15:16:51</time>
      </trkpt>
      <trkpt lat="40.81487" lon="0.52167">
        <ele>18</ele>
        <time>2022-05-24 15:16:52</time>
      </trkpt>
      <trkpt lat="40.81483" lon="0.52166">
        <ele>18</ele>
        <time>2022-05-24 15:16:53</time>
      </trkpt>
      <trkpt lat="40.81478" lon="0.52165">
        <ele>18</ele>
        <time>2022-05-24 15:16:54</time>
      </trkpt>
      <trkpt lat="40.81474" lon="0.52163">
        <ele>18</ele>
        <time>2022-05-24 15:16:55</time>
      </trkpt>
      <trkpt lat="40.8147" lon="0.5216">
        <ele>18</ele>
        <time>2022-05-24 15:16:56</time>
      </trkpt>
      <trkpt lat="40.81466" lon="0.52156">
        <ele>18</ele>
        <time>2022-05-24 15:16:57</time>
      </trkpt>
      <trkpt lat="40.81463" lon="0.52153">
        <ele>18</ele>
        <time>2022-05-24 15:16:58</time>
      </trkpt>
      <trkpt lat="40.81458" lon="0.5215">
        <ele>18</ele>
        <time>2022-05-24 15:16:59</time>
      </trkpt>
      <trkpt lat="40.81454" lon="0.52147">
        <ele>18</ele>
        <time>2022-05-24 15:17:00</time>
      </trkpt>
      <trkpt lat="40.81451" lon="0.52144">
        <ele>18</ele>
        <time>2022-05-24 15:17:01</time>
      </trkpt>
      <trkpt lat="40.81447" lon="0.52141">
        <ele>18</ele>
        <time>2022-05-24 15:17:02</time>
      </trkpt>
      <trkpt lat="40.81443" lon="0.52138">
        <ele>18</ele>
        <time>2022-05-24 15:17:03</time>
      </trkpt>
      <trkpt lat="40.8144" lon="0.52135">
        <ele>18</ele>
        <time>2022-05-24 15:17:04</time>
      </trkpt>
      <trkpt lat="40.81437" lon="0.52133">
        <ele>18</ele>
        <time>2022-05-24 15:17:05</time>
      </trkpt>
      <trkpt lat="40.81433" lon="0.52129">
        <ele>18</ele>
        <time>2022-05-24 15:17:06</time>
      </trkpt>
      <trkpt lat="40.81429" lon="0.52126">
        <ele>18</ele>
        <time>2022-05-24 15:17:07</time>
      </trkpt>
      <trkpt lat="40.81425" lon="0.52123">
        <ele>18</ele>
        <time>2022-05-24 15:17:08</time>
      </trkpt>
      <trkpt lat="40.81421" lon="0.5212">
        <ele>18</ele>
        <time>2022-05-24 15:17:09</time>
      </trkpt>
      <trkpt lat="40.81417" lon="0.52117">
        <ele>18</ele>
        <time>2022-05-24 15:17:10</time>
      </trkpt>
      <trkpt lat="40.81412" lon="0.52114">
        <ele>18</ele>
        <time>2022-05-24 15:17:11</time>
      </trkpt>
      <trkpt lat="40.81407" lon="0.52111">
        <ele>18</ele>
        <time>2022-05-24 15:17:12</time>
      </trkpt>
      <trkpt lat="40.81402" lon="0.52109">
        <ele>18</ele>
        <time>2022-05-24 15:17:13</time>
      </trkpt>
      <trkpt lat="40.81398" lon="0.52106">
        <ele>18</ele>
        <time>2022-05-24 15:17:14</time>
      </trkpt>
      <trkpt lat="40.81394" lon="0.52103">
        <ele>18</ele>
        <time>2022-05-24 15:17:15</time>
      </trkpt>
      <trkpt lat="40.81388" lon="0.521">
        <ele>18</ele>
        <time>2022-05-24 15:17:16</time>
      </trkpt>
      <trkpt lat="40.81385" lon="0.52097">
        <ele>18</ele>
        <time>2022-05-24 15:17:17</time>
      </trkpt>
      <trkpt lat="40.81378" lon="0.52094">
        <ele>18</ele>
        <time>2022-05-24 15:17:18</time>
      </trkpt>
      <trkpt lat="40.81374" lon="0.52091">
        <ele>18</ele>
        <time>2022-05-24 15:17:19</time>
      </trkpt>
      <trkpt lat="40.81368" lon="0.52089">
        <ele>18</ele>
        <time>2022-05-24 15:17:20</time>
      </trkpt>
      <trkpt lat="40.81364" lon="0.52086">
        <ele>18</ele>
        <time>2022-05-24 15:17:21</time>
      </trkpt>
      <trkpt lat="40.81359" lon="0.52084">
        <ele>18</ele>
        <time>2022-05-24 15:17:22</time>
      </trkpt>
      <trkpt lat="40.81355" lon="0.52082">
        <ele>18</ele>
        <time>2022-05-24 15:17:23</time>
      </trkpt>
      <trkpt lat="40.8135" lon="0.52079">
        <ele>18</ele>
        <time>2022-05-24 15:17:24</time>
      </trkpt>
      <trkpt lat="40.81346" lon="0.52078">
        <ele>18</ele>
        <time>2022-05-24 15:17:25</time>
      </trkpt>
      <trkpt lat="40.81341" lon="0.52076">
        <ele>18</ele>
        <time>2022-05-24 15:17:26</time>
      </trkpt>
      <trkpt lat="40.81337" lon="0.52074">
        <ele>18</ele>
        <time>2022-05-24 15:17:27</time>
      </trkpt>
      <trkpt lat="40.81332" lon="0.52072">
        <ele>18</ele>
        <time>2022-05-24 15:17:28</time>
      </trkpt>
      <trkpt lat="40.81329" lon="0.52071">
        <ele>18</ele>
        <time>2022-05-24 15:17:29</time>
      </trkpt>
      <trkpt lat="40.81326" lon="0.52071">
        <ele>18</ele>
        <time>2022-05-24 15:17:30</time>
      </trkpt>
      <trkpt lat="40.81321" lon="0.52071">
        <ele>18</ele>
        <time>2022-05-24 15:17:31</time>
      </trkpt>
      <trkpt lat="40.81318" lon="0.52072">
        <ele>18.2</ele>
        <time>2022-05-24 15:17:32</time>
      </trkpt>
      <trkpt lat="40.81316" lon="0.52074">
        <ele>18.2</ele>
        <time>2022-05-24 15:17:33</time>
      </trkpt>
      <trkpt lat="40.81315" lon="0.52076">
        <ele>18.2</ele>
        <time>2022-05-24 15:17:34</time>
      </trkpt>
      <trkpt lat="40.81314" lon="0.52078">
        <ele>18.4</ele>
        <time>2022-05-24 15:17:35</time>
      </trkpt>
      <trkpt lat="40.81314" lon="0.5208">
        <ele>18.4</ele>
        <time>2022-05-24 15:17:36</time>
      </trkpt>
      <trkpt lat="40.81314" lon="0.52082">
        <ele>18.6</ele>
        <time>2022-05-24 15:17:37</time>
      </trkpt>
      <trkpt lat="40.81313" lon="0.52085">
        <ele>18.6</ele>
        <time>2022-05-24 15:17:38</time>
      </trkpt>
      <trkpt lat="40.81313" lon="0.52088">
        <ele>18.6</ele>
        <time>2022-05-24 15:17:39</time>
      </trkpt>
      <trkpt lat="40.81312" lon="0.52092">
        <ele>18.4</ele>
        <time>2022-05-24 15:17:40</time>
      </trkpt>
      <trkpt lat="40.81312" lon="0.52096">
        <ele>18.4</ele>
        <time>2022-05-24 15:17:41</time>
      </trkpt>
      <trkpt lat="40.81311" lon="0.52101">
        <ele>18.2</ele>
        <time>2022-05-24 15:17:42</time>
      </trkpt>
      <trkpt lat="40.8131" lon="0.52105">
        <ele>18.2</ele>
        <time>2022-05-24 15:17:43</time>
      </trkpt>
      <trkpt lat="40.81309" lon="0.5211">
        <ele>18.2</ele>
        <time>2022-05-24 15:17:44</time>
      </trkpt>
      <trkpt lat="40.81308" lon="0.52116">
        <ele>18</ele>
        <time>2022-05-24 15:17:45</time>
      </trkpt>
      <trkpt lat="40.81307" lon="0.5212">
        <ele>18</ele>
        <time>2022-05-24 15:17:46</time>
      </trkpt>
      <trkpt lat="40.81305" lon="0.52126">
        <ele>18</ele>
        <time>2022-05-24 15:17:47</time>
      </trkpt>
      <trkpt lat="40.81303" lon="0.52132">
        <ele>18</ele>
        <time>2022-05-24 15:17:48</time>
      </trkpt>
      <trkpt lat="40.81302" lon="0.52136">
        <ele>18.2</ele>
        <time>2022-05-24 15:17:49</time>
      </trkpt>
      <trkpt lat="40.81301" lon="0.52142">
        <ele>18.2</ele>
        <time>2022-05-24 15:17:50</time>
      </trkpt>
      <trkpt lat="40.813" lon="0.52146">
        <ele>18.4</ele>
        <time>2022-05-24 15:17:51</time>
      </trkpt>
      <trkpt lat="40.81299" lon="0.52148">
        <ele>18.6</ele>
        <time>2022-05-24 15:17:52</time>
      </trkpt>
      <trkpt lat="40.81299" lon="0.5215">
        <ele>18.8</ele>
        <time>2022-05-24 15:17:53</time>
      </trkpt>
      <trkpt lat="40.81299" lon="0.52151">
        <ele>18.8</ele>
        <time>2022-05-24 15:17:54</time>
      </trkpt>
      <trkpt lat="40.813" lon="0.52151">
        <ele>19</ele>
        <time>2022-05-24 15:17:55</time>
      </trkpt>
      <trkpt lat="40.813" lon="0.52151">
        <ele>19</ele>
        <time>2022-05-24 15:17:56</time>
      </trkpt>
      <trkpt lat="40.813" lon="0.52151">
        <ele>19.2</ele>
        <time>2022-05-24 15:17:57</time>
      </trkpt>
      <trkpt lat="40.81303" lon="0.52149">
        <ele>13</ele>
        <time>2022-05-24 15:56:57</time>
      </trkpt>
      <trkpt lat="40.81303" lon="0.52149">
        <ele>13</ele>
        <time>2022-05-24 15:56:58</time>
      </trkpt>
      <trkpt lat="40.81303" lon="0.52151">
        <ele>13</ele>
        <time>2022-05-24 15:56:59</time>
      </trkpt>
      <trkpt lat="40.81301" lon="0.52152">
        <ele>13</ele>
        <time>2022-05-24 15:57:00</time>
      </trkpt>
      <trkpt lat="40.81301" lon="0.52153">
        <ele>13</ele>
        <time>2022-05-24 15:57:01</time>
      </trkpt>
      <trkpt lat="40.813" lon="0.52154">
        <ele>13</ele>
        <time>2022-05-24 15:57:02</time>
      </trkpt>
      <trkpt lat="40.813" lon="0.52155">
        <ele>13.2</ele>
        <time>2022-05-24 15:57:03</time>
      </trkpt>
      <trkpt lat="40.81299" lon="0.52156">
        <ele>13.2</ele>
        <time>2022-05-24 15:57:04</time>
      </trkpt>
      <trkpt lat="40.81297" lon="0.52157">
        <ele>13.2</ele>
        <time>2022-05-24 15:57:05</time>
      </trkpt>
      <trkpt lat="40.81296" lon="0.52158">
        <ele>13.2</ele>
        <time>2022-05-24 15:57:06</time>
      </trkpt>
      <trkpt lat="40.81295" lon="0.52158">
        <ele>13.2</ele>
        <time>2022-05-24 15:57:07</time>
      </trkpt>
      <trkpt lat="40.81293" lon="0.52159">
        <ele>13.2</ele>
        <time>2022-05-24 15:57:08</time>
      </trkpt>
      <trkpt lat="40.81292" lon="0.5216">
        <ele>13.2</ele>
        <time>2022-05-24 15:57:09</time>
      </trkpt>
      <trkpt lat="40.81291" lon="0.5216">
        <ele>13.2</ele>
        <time>2022-05-24 15:57:10</time>
      </trkpt>
      <trkpt lat="40.8129" lon="0.5216">
        <ele>13</ele>
        <time>2022-05-24 15:57:11</time>
      </trkpt>
      <trkpt lat="40.81287" lon="0.52159">
        <ele>13</ele>
        <time>2022-05-24 15:57:12</time>
      </trkpt>
      <trkpt lat="40.81282" lon="0.52157">
        <ele>13</ele>
        <time>2022-05-24 15:57:13</time>
      </trkpt>
      <trkpt lat="40.8128" lon="0.52157">
        <ele>13</ele>
        <time>2022-05-24 15:57:14</time>
      </trkpt>
      <trkpt lat="40.81276" lon="0.52157">
        <ele>12.8</ele>
        <time>2022-05-24 15:57:15</time>
      </trkpt>
      <trkpt lat="40.81272" lon="0.52157">
        <ele>12.8</ele>
        <time>2022-05-24 15:57:16</time>
      </trkpt>
      <trkpt lat="40.8127" lon="0.52157">
        <ele>12.8</ele>
        <time>2022-05-24 15:57:17</time>
      </trkpt>
      <trkpt lat="40.8127" lon="0.52153">
        <ele>12.8</ele>
        <time>2022-05-24 15:57:18</time>
      </trkpt>
      <trkpt lat="40.81269" lon="0.5215">
        <ele>12.8</ele>
        <time>2022-05-24 15:57:19</time>
      </trkpt>
      <trkpt lat="40.81269" lon="0.52147">
        <ele>12.8</ele>
        <time>2022-05-24 15:57:20</time>
      </trkpt>
      <trkpt lat="40.81268" lon="0.52144">
        <ele>12.8</ele>
        <time>2022-05-24 15:57:21</time>
      </trkpt>
      <trkpt lat="40.81264" lon="0.52143">
        <ele>12.8</ele>
        <time>2022-05-24 15:57:22</time>
      </trkpt>
      <trkpt lat="40.81262" lon="0.52138">
        <ele>12.8</ele>
        <time>2022-05-24 15:57:23</time>
      </trkpt>
      <trkpt lat="40.81263" lon="0.52135">
        <ele>12.8</ele>
        <time>2022-05-24 15:57:24</time>
      </trkpt>
      <trkpt lat="40.81264" lon="0.52133">
        <ele>13</ele>
        <time>2022-05-24 15:57:25</time>
      </trkpt>
      <trkpt lat="40.81265" lon="0.52131">
        <ele>13.2</ele>
        <time>2022-05-24 15:57:26</time>
      </trkpt>
      <trkpt lat="40.81266" lon="0.52126">
        <ele>13.2</ele>
        <time>2022-05-24 15:57:27</time>
      </trkpt>
      <trkpt lat="40.81267" lon="0.52123">
        <ele>13.4</ele>
        <time>2022-05-24 15:57:28</time>
      </trkpt>
      <trkpt lat="40.81268" lon="0.52119">
        <ele>13.6</ele>
        <time>2022-05-24 15:57:29</time>
      </trkpt>
      <trkpt lat="40.8127" lon="0.52116">
        <ele>13.8</ele>
        <time>2022-05-24 15:57:30</time>
      </trkpt>
      <trkpt lat="40.81271" lon="0.52112">
        <ele>13.8</ele>
        <time>2022-05-24 15:57:31</time>
      </trkpt>
      <trkpt lat="40.81272" lon="0.52109">
        <ele>14</ele>
        <time>2022-05-24 15:57:32</time>
      </trkpt>
      <trkpt lat="40.81273" lon="0.52106">
        <ele>14.2</ele>
        <time>2022-05-24 15:57:33</time>
      </trkpt>
      <trkpt lat="40.81275" lon="0.52103">
        <ele>14.4</ele>
        <time>2022-05-24 15:57:34</time>
      </trkpt>
      <trkpt lat="40.81276" lon="0.521">
        <ele>14.6</ele>
        <time>2022-05-24 15:57:35</time>
      </trkpt>
      <trkpt lat="40.81277" lon="0.52097">
        <ele>14.8</ele>
        <time>2022-05-24 15:57:36</time>
      </trkpt>
      <trkpt lat="40.81277" lon="0.52093">
        <ele>15</ele>
        <time>2022-05-24 15:57:37</time>
      </trkpt>
      <trkpt lat="40.81279" lon="0.5209">
        <ele>15</ele>
        <time>2022-05-24 15:57:38</time>
      </trkpt>
      <trkpt lat="40.8128" lon="0.52087">
        <ele>15.2</ele>
        <time>2022-05-24 15:57:39</time>
      </trkpt>
      <trkpt lat="40.81281" lon="0.52084">
        <ele>15.4</ele>
        <time>2022-05-24 15:57:40</time>
      </trkpt>
      <trkpt lat="40.81282" lon="0.5208">
        <ele>15.6</ele>
        <time>2022-05-24 15:57:41</time>
      </trkpt>
      <trkpt lat="40.81283" lon="0.52077">
        <ele>15.6</ele>
        <time>2022-05-24 15:57:42</time>
      </trkpt>
      <trkpt lat="40.81284" lon="0.52073">
        <ele>15.8</ele>
        <time>2022-05-24 15:57:43</time>
      </trkpt>
      <trkpt lat="40.81285" lon="0.52069">
        <ele>16</ele>
        <time>2022-05-24 15:57:44</time>
      </trkpt>
      <trkpt lat="40.81286" lon="0.52066">
        <ele>16.2</ele>
        <time>2022-05-24 15:57:45</time>
      </trkpt>
      <trkpt lat="40.81287" lon="0.52063">
        <ele>16.4</ele>
        <time>2022-05-24 15:57:46</time>
      </trkpt>
      <trkpt lat="40.81289" lon="0.5206">
        <ele>16.6</ele>
        <time>2022-05-24 15:57:47</time>
      </trkpt>
      <trkpt lat="40.8129" lon="0.52057">
        <ele>16.6</ele>
        <time>2022-05-24 15:57:48</time>
      </trkpt>
      <trkpt lat="40.81291" lon="0.52054">
        <ele>17</ele>
        <time>2022-05-24 15:57:49</time>
      </trkpt>
      <trkpt lat="40.81292" lon="0.52052">
        <ele>17.2</ele>
        <time>2022-05-24 15:57:50</time>
      </trkpt>
      <trkpt lat="40.81293" lon="0.52049">
        <ele>17.2</ele>
        <time>2022-05-24 15:57:51</time>
      </trkpt>
      <trkpt lat="40.81293" lon="0.52046">
        <ele>17.4</ele>
        <time>2022-05-24 15:57:52</time>
      </trkpt>
      <trkpt lat="40.81295" lon="0.52043">
        <ele>17.4</ele>
        <time>2022-05-24 15:57:53</time>
      </trkpt>
      <trkpt lat="40.81296" lon="0.52041">
        <ele>17.6</ele>
        <time>2022-05-24 15:57:54</time>
      </trkpt>
      <trkpt lat="40.81298" lon="0.52037">
        <ele>17.6</ele>
        <time>2022-05-24 15:57:55</time>
      </trkpt>
      <trkpt lat="40.81299" lon="0.52034">
        <ele>17.8</ele>
        <time>2022-05-24 15:57:56</time>
      </trkpt>
      <trkpt lat="40.81301" lon="0.5203">
        <ele>17.8</ele>
        <time>2022-05-24 15:57:57</time>
      </trkpt>
      <trkpt lat="40.81302" lon="0.52028">
        <ele>17.8</ele>
        <time>2022-05-24 15:57:58</time>
      </trkpt>
      <trkpt lat="40.81304" lon="0.52023">
        <ele>17.8</ele>
        <time>2022-05-24 15:57:59</time>
      </trkpt>
      <trkpt lat="40.81306" lon="0.52019">
        <ele>17.8</ele>
        <time>2022-05-24 15:58:00</time>
      </trkpt>
      <trkpt lat="40.81307" lon="0.52016">
        <ele>17.8</ele>
        <time>2022-05-24 15:58:01</time>
      </trkpt>
      <trkpt lat="40.81309" lon="0.52012">
        <ele>17.8</ele>
        <time>2022-05-24 15:58:02</time>
      </trkpt>
      <trkpt lat="40.8131" lon="0.52008">
        <ele>17.8</ele>
        <time>2022-05-24 15:58:03</time>
      </trkpt>
      <trkpt lat="40.81312" lon="0.52006">
        <ele>17.8</ele>
        <time>2022-05-24 15:58:04</time>
      </trkpt>
      <trkpt lat="40.81314" lon="0.52002">
        <ele>17.8</ele>
        <time>2022-05-24 15:58:05</time>
      </trkpt>
      <trkpt lat="40.81315" lon="0.51998">
        <ele>17.8</ele>
        <time>2022-05-24 15:58:06</time>
      </trkpt>
      <trkpt lat="40.81317" lon="0.51995">
        <ele>17.8</ele>
        <time>2022-05-24 15:58:07</time>
      </trkpt>
      <trkpt lat="40.81319" lon="0.5199">
        <ele>17.8</ele>
        <time>2022-05-24 15:58:08</time>
      </trkpt>
      <trkpt lat="40.8132" lon="0.51986">
        <ele>17.8</ele>
        <time>2022-05-24 15:58:09</time>
      </trkpt>
      <trkpt lat="40.81321" lon="0.51983">
        <ele>17.8</ele>
        <time>2022-05-24 15:58:10</time>
      </trkpt>
      <trkpt lat="40.81324" lon="0.51978">
        <ele>17.8</ele>
        <time>2022-05-24 15:58:11</time>
      </trkpt>
      <trkpt lat="40.81325" lon="0.51974">
        <ele>17.8</ele>
        <time>2022-05-24 15:58:12</time>
      </trkpt>
      <trkpt lat="40.81327" lon="0.5197">
        <ele>17.8</ele>
        <time>2022-05-24 15:58:13</time>
      </trkpt>
      <trkpt lat="40.81329" lon="0.51966">
        <ele>17.8</ele>
        <time>2022-05-24 15:58:14</time>
      </trkpt>
      <trkpt lat="40.8133" lon="0.51962">
        <ele>17.8</ele>
        <time>2022-05-24 15:58:15</time>
      </trkpt>
      <trkpt lat="40.81331" lon="0.51959">
        <ele>17.8</ele>
        <time>2022-05-24 15:58:16</time>
      </trkpt>
      <trkpt lat="40.81334" lon="0.51954">
        <ele>17.8</ele>
        <time>2022-05-24 15:58:17</time>
      </trkpt>
      <trkpt lat="40.81335" lon="0.51949">
        <ele>17.8</ele>
        <time>2022-05-24 15:58:18</time>
      </trkpt>
      <trkpt lat="40.81337" lon="0.51945">
        <ele>17.8</ele>
        <time>2022-05-24 15:58:19</time>
      </trkpt>
      <trkpt lat="40.81339" lon="0.51941">
        <ele>17.8</ele>
        <time>2022-05-24 15:58:20</time>
      </trkpt>
      <trkpt lat="40.8134" lon="0.51937">
        <ele>17.8</ele>
        <time>2022-05-24 15:58:21</time>
      </trkpt>
      <trkpt lat="40.81342" lon="0.51934">
        <ele>17.8</ele>
        <time>2022-05-24 15:58:22</time>
      </trkpt>
      <trkpt lat="40.81344" lon="0.51929">
        <ele>17.8</ele>
        <time>2022-05-24 15:58:23</time>
      </trkpt>
      <trkpt lat="40.81345" lon="0.51926">
        <ele>17.8</ele>
        <time>2022-05-24 15:58:24</time>
      </trkpt>
      <trkpt lat="40.81347" lon="0.51922">
        <ele>17.8</ele>
        <time>2022-05-24 15:58:25</time>
      </trkpt>
      <trkpt lat="40.81348" lon="0.51917">
        <ele>17.8</ele>
        <time>2022-05-24 15:58:26</time>
      </trkpt>
      <trkpt lat="40.8135" lon="0.51913">
        <ele>17.8</ele>
        <time>2022-05-24 15:58:27</time>
      </trkpt>
      <trkpt lat="40.81351" lon="0.5191">
        <ele>17.8</ele>
        <time>2022-05-24 15:58:28</time>
      </trkpt>
      <trkpt lat="40.81353" lon="0.51906">
        <ele>17.8</ele>
        <time>2022-05-24 15:58:29</time>
      </trkpt>
      <trkpt lat="40.81354" lon="0.51902">
        <ele>17.8</ele>
        <time>2022-05-24 15:58:30</time>
      </trkpt>
      <trkpt lat="40.81356" lon="0.51898">
        <ele>17.8</ele>
        <time>2022-05-24 15:58:31</time>
      </trkpt>
      <trkpt lat="40.81357" lon="0.51894">
        <ele>17.8</ele>
        <time>2022-05-24 15:58:32</time>
      </trkpt>
      <trkpt lat="40.81358" lon="0.51891">
        <ele>17.8</ele>
        <time>2022-05-24 15:58:33</time>
      </trkpt>
      <trkpt lat="40.81359" lon="0.51889">
        <ele>17.8</ele>
        <time>2022-05-24 15:58:34</time>
      </trkpt>
      <trkpt lat="40.8136" lon="0.51885">
        <ele>17.8</ele>
        <time>2022-05-24 15:58:35</time>
      </trkpt>
      <trkpt lat="40.81361" lon="0.51882">
        <ele>17.8</ele>
        <time>2022-05-24 15:58:36</time>
      </trkpt>
      <trkpt lat="40.81362" lon="0.5188">
        <ele>17.8</ele>
        <time>2022-05-24 15:58:37</time>
      </trkpt>
      <trkpt lat="40.81362" lon="0.51877">
        <ele>17.8</ele>
        <time>2022-05-24 15:58:38</time>
      </trkpt>
      <trkpt lat="40.81363" lon="0.51874">
        <ele>17.6</ele>
        <time>2022-05-24 15:58:39</time>
      </trkpt>
      <trkpt lat="40.81364" lon="0.5187">
        <ele>17.6</ele>
        <time>2022-05-24 15:58:40</time>
      </trkpt>
      <trkpt lat="40.81365" lon="0.51867">
        <ele>17.4</ele>
        <time>2022-05-24 15:58:41</time>
      </trkpt>
      <trkpt lat="40.81366" lon="0.51864">
        <ele>17.2</ele>
        <time>2022-05-24 15:58:42</time>
      </trkpt>
      <trkpt lat="40.81369" lon="0.51857">
        <ele>16.8</ele>
        <time>2022-05-24 15:58:43</time>
      </trkpt>
      <trkpt lat="40.81371" lon="0.51853">
        <ele>16.6</ele>
        <time>2022-05-24 15:58:44</time>
      </trkpt>
      <trkpt lat="40.81372" lon="0.51849">
        <ele>16.2</ele>
        <time>2022-05-24 15:58:45</time>
      </trkpt>
      <trkpt lat="40.81374" lon="0.51842">
        <ele>16</ele>
        <time>2022-05-24 15:58:46</time>
      </trkpt>
      <trkpt lat="40.81376" lon="0.51837">
        <ele>15.6</ele>
        <time>2022-05-24 15:58:47</time>
      </trkpt>
      <trkpt lat="40.81379" lon="0.51829">
        <ele>15.4</ele>
        <time>2022-05-24 15:58:48</time>
      </trkpt>
      <trkpt lat="40.8138" lon="0.51824">
        <ele>15.2</ele>
        <time>2022-05-24 15:58:49</time>
      </trkpt>
      <trkpt lat="40.81383" lon="0.51816">
        <ele>14.8</ele>
        <time>2022-05-24 15:58:50</time>
      </trkpt>
      <trkpt lat="40.81386" lon="0.51812">
        <ele>14.4</ele>
        <time>2022-05-24 15:58:51</time>
      </trkpt>
      <trkpt lat="40.81388" lon="0.51804">
        <ele>14.2</ele>
        <time>2022-05-24 15:58:52</time>
      </trkpt>
      <trkpt lat="40.81389" lon="0.518">
        <ele>14</ele>
        <time>2022-05-24 15:58:53</time>
      </trkpt>
      <trkpt lat="40.81393" lon="0.51792">
        <ele>13.8</ele>
        <time>2022-05-24 15:58:54</time>
      </trkpt>
      <trkpt lat="40.81394" lon="0.51787">
        <ele>13.6</ele>
        <time>2022-05-24 15:58:55</time>
      </trkpt>
      <trkpt lat="40.81397" lon="0.51778">
        <ele>13.6</ele>
        <time>2022-05-24 15:58:56</time>
      </trkpt>
      <trkpt lat="40.81399" lon="0.51773">
        <ele>13.6</ele>
        <time>2022-05-24 15:58:57</time>
      </trkpt>
      <trkpt lat="40.81402" lon="0.51764">
        <ele>13.4</ele>
        <time>2022-05-24 15:58:58</time>
      </trkpt>
      <trkpt lat="40.81404" lon="0.51759">
        <ele>13.4</ele>
        <time>2022-05-24 15:58:59</time>
      </trkpt>
      <trkpt lat="40.81406" lon="0.5175">
        <ele>13.4</ele>
        <time>2022-05-24 15:59:00</time>
      </trkpt>
      <trkpt lat="40.81407" lon="0.51746">
        <ele>13.4</ele>
        <time>2022-05-24 15:59:01</time>
      </trkpt>
      <trkpt lat="40.81408" lon="0.5174">
        <ele>13.4</ele>
        <time>2022-05-24 15:59:02</time>
      </trkpt>
      <trkpt lat="40.81408" lon="0.51737">
        <ele>13.6</ele>
        <time>2022-05-24 15:59:03</time>
      </trkpt>
      <trkpt lat="40.81407" lon="0.51737">
        <ele>13.6</ele>
        <time>2022-05-24 15:59:04</time>
      </trkpt>
      <trkpt lat="40.81405" lon="0.51738">
        <ele>13.6</ele>
        <time>2022-05-24 15:59:05</time>
      </trkpt>
      <trkpt lat="40.81402" lon="0.51738">
        <ele>13.6</ele>
        <time>2022-05-24 15:59:06</time>
      </trkpt>
      <trkpt lat="40.81401" lon="0.51738">
        <ele>13.6</ele>
        <time>2022-05-24 15:59:07</time>
      </trkpt>
      <trkpt lat="40.81398" lon="0.51738">
        <ele>13.6</ele>
        <time>2022-05-24 15:59:08</time>
      </trkpt>
      <trkpt lat="40.81396" lon="0.51737">
        <ele>13.6</ele>
        <time>2022-05-24 15:59:09</time>
      </trkpt>
      <trkpt lat="40.81392" lon="0.51735">
        <ele>13.6</ele>
        <time>2022-05-24 15:59:10</time>
      </trkpt>
      <trkpt lat="40.81389" lon="0.51734">
        <ele>13.6</ele>
        <time>2022-05-24 15:59:11</time>
      </trkpt>
      <trkpt lat="40.81386" lon="0.51732">
        <ele>13.6</ele>
        <time>2022-05-24 15:59:12</time>
      </trkpt>
      <trkpt lat="40.81384" lon="0.51731">
        <ele>13.6</ele>
        <time>2022-05-24 15:59:13</time>
      </trkpt>
      <trkpt lat="40.81379" lon="0.51727">
        <ele>13.6</ele>
        <time>2022-05-24 15:59:14</time>
      </trkpt>
      <trkpt lat="40.81378" lon="0.51725">
        <ele>13.6</ele>
        <time>2022-05-24 15:59:15</time>
      </trkpt>
      <trkpt lat="40.81377" lon="0.51721">
        <ele>13.6</ele>
        <time>2022-05-24 15:59:16</time>
      </trkpt>
      <trkpt lat="40.81377" lon="0.51715">
        <ele>13.6</ele>
        <time>2022-05-24 15:59:17</time>
      </trkpt>
      <trkpt lat="40.81377" lon="0.5171">
        <ele>13.8</ele>
        <time>2022-05-24 15:59:18</time>
      </trkpt>
      <trkpt lat="40.81378" lon="0.51706">
        <ele>13.8</ele>
        <time>2022-05-24 15:59:19</time>
      </trkpt>
      <trkpt lat="40.81379" lon="0.51701">
        <ele>13.8</ele>
        <time>2022-05-24 15:59:20</time>
      </trkpt>
      <trkpt lat="40.81381" lon="0.51695">
        <ele>13.6</ele>
        <time>2022-05-24 15:59:21</time>
      </trkpt>
      <trkpt lat="40.81383" lon="0.5169">
        <ele>13.6</ele>
        <time>2022-05-24 15:59:22</time>
      </trkpt>
      <trkpt lat="40.81385" lon="0.51686">
        <ele>13.6</ele>
        <time>2022-05-24 15:59:23</time>
      </trkpt>
      <trkpt lat="40.81387" lon="0.51681">
        <ele>13.6</ele>
        <time>2022-05-24 15:59:24</time>
      </trkpt>
      <trkpt lat="40.81388" lon="0.51677">
        <ele>13.6</ele>
        <time>2022-05-24 15:59:25</time>
      </trkpt>
      <trkpt lat="40.8139" lon="0.51672">
        <ele>13.6</ele>
        <time>2022-05-24 15:59:26</time>
      </trkpt>
      <trkpt lat="40.81391" lon="0.51665">
        <ele>13.6</ele>
        <time>2022-05-24 15:59:27</time>
      </trkpt>
      <trkpt lat="40.81392" lon="0.5166">
        <ele>13.4</ele>
        <time>2022-05-24 15:59:28</time>
      </trkpt>
      <trkpt lat="40.81393" lon="0.51653">
        <ele>13.4</ele>
        <time>2022-05-24 15:59:29</time>
      </trkpt>
      <trkpt lat="40.81393" lon="0.51646">
        <ele>13.4</ele>
        <time>2022-05-24 15:59:30</time>
      </trkpt>
      <trkpt lat="40.81393" lon="0.51639">
        <ele>13.2</ele>
        <time>2022-05-24 15:59:31</time>
      </trkpt>
      <trkpt lat="40.81393" lon="0.51632">
        <ele>13.2</ele>
        <time>2022-05-24 15:59:32</time>
      </trkpt>
      <trkpt lat="40.81393" lon="0.51626">
        <ele>13.2</ele>
        <time>2022-05-24 15:59:33</time>
      </trkpt>
      <trkpt lat="40.81393" lon="0.51619">
        <ele>13.2</ele>
        <time>2022-05-24 15:59:34</time>
      </trkpt>
      <trkpt lat="40.81393" lon="0.51614">
        <ele>13.2</ele>
        <time>2022-05-24 15:59:35</time>
      </trkpt>
      <trkpt lat="40.81392" lon="0.51608">
        <ele>13.2</ele>
        <time>2022-05-24 15:59:36</time>
      </trkpt>
      <trkpt lat="40.81392" lon="0.51601">
        <ele>13.2</ele>
        <time>2022-05-24 15:59:37</time>
      </trkpt>
      <trkpt lat="40.81393" lon="0.51595">
        <ele>13.2</ele>
        <time>2022-05-24 15:59:38</time>
      </trkpt>
      <trkpt lat="40.81395" lon="0.51589">
        <ele>13.2</ele>
        <time>2022-05-24 15:59:39</time>
      </trkpt>
      <trkpt lat="40.81396" lon="0.51583">
        <ele>13.2</ele>
        <time>2022-05-24 15:59:40</time>
      </trkpt>
      <trkpt lat="40.81398" lon="0.51577">
        <ele>13.2</ele>
        <time>2022-05-24 15:59:41</time>
      </trkpt>
      <trkpt lat="40.814" lon="0.51571">
        <ele>13</ele>
        <time>2022-05-24 15:59:42</time>
      </trkpt>
      <trkpt lat="40.81402" lon="0.51566">
        <ele>13</ele>
        <time>2022-05-24 15:59:43</time>
      </trkpt>
      <trkpt lat="40.81404" lon="0.5156">
        <ele>13</ele>
        <time>2022-05-24 15:59:44</time>
      </trkpt>
      <trkpt lat="40.81406" lon="0.51554">
        <ele>13</ele>
        <time>2022-05-24 15:59:45</time>
      </trkpt>
      <trkpt lat="40.81407" lon="0.51549">
        <ele>13</ele>
        <time>2022-05-24 15:59:46</time>
      </trkpt>
      <trkpt lat="40.81408" lon="0.51545">
        <ele>13</ele>
        <time>2022-05-24 15:59:47</time>
      </trkpt>
      <trkpt lat="40.81408" lon="0.51543">
        <ele>13</ele>
        <time>2022-05-24 15:59:48</time>
      </trkpt>
      <trkpt lat="40.81407" lon="0.5154">
        <ele>13</ele>
        <time>2022-05-24 15:59:49</time>
      </trkpt>
      <trkpt lat="40.81405" lon="0.51537">
        <ele>13</ele>
        <time>2022-05-24 15:59:50</time>
      </trkpt>
      <trkpt lat="40.81403" lon="0.51533">
        <ele>13</ele>
        <time>2022-05-24 15:59:51</time>
      </trkpt>
      <trkpt lat="40.814" lon="0.5153">
        <ele>13</ele>
        <time>2022-05-24 15:59:52</time>
      </trkpt>
      <trkpt lat="40.81396" lon="0.51528">
        <ele>13</ele>
        <time>2022-05-24 15:59:53</time>
      </trkpt>
      <trkpt lat="40.81392" lon="0.51526">
        <ele>13</ele>
        <time>2022-05-24 15:59:54</time>
      </trkpt>
      <trkpt lat="40.81388" lon="0.51524">
        <ele>12.8</ele>
        <time>2022-05-24 15:59:55</time>
      </trkpt>
      <trkpt lat="40.81384" lon="0.51521">
        <ele>12.8</ele>
        <time>2022-05-24 15:59:56</time>
      </trkpt>
      <trkpt lat="40.81379" lon="0.51519">
        <ele>12.8</ele>
        <time>2022-05-24 15:59:57</time>
      </trkpt>
      <trkpt lat="40.81375" lon="0.51517">
        <ele>12.8</ele>
        <time>2022-05-24 15:59:58</time>
      </trkpt>
      <trkpt lat="40.81371" lon="0.51514">
        <ele>12.8</ele>
        <time>2022-05-24 15:59:59</time>
      </trkpt>
      <trkpt lat="40.81367" lon="0.51512">
        <ele>12.8</ele>
        <time>2022-05-24 16:00:00</time>
      </trkpt>
      <trkpt lat="40.81363" lon="0.5151">
        <ele>12.8</ele>
        <time>2022-05-24 16:00:01</time>
      </trkpt>
      <trkpt lat="40.81358" lon="0.51508">
        <ele>12.8</ele>
        <time>2022-05-24 16:00:02</time>
      </trkpt>
      <trkpt lat="40.81354" lon="0.51506">
        <ele>12.8</ele>
        <time>2022-05-24 16:00:03</time>
      </trkpt>
      <trkpt lat="40.8135" lon="0.51504">
        <ele>12.8</ele>
        <time>2022-05-24 16:00:04</time>
      </trkpt>
      <trkpt lat="40.81345" lon="0.51502">
        <ele>12.8</ele>
        <time>2022-05-24 16:00:05</time>
      </trkpt>
      <trkpt lat="40.81341" lon="0.515">
        <ele>12.8</ele>
        <time>2022-05-24 16:00:06</time>
      </trkpt>
      <trkpt lat="40.81337" lon="0.51498">
        <ele>12.8</ele>
        <time>2022-05-24 16:00:07</time>
      </trkpt>
      <trkpt lat="40.81332" lon="0.51497">
        <ele>12.8</ele>
        <time>2022-05-24 16:00:08</time>
      </trkpt>
      <trkpt lat="40.81328" lon="0.51495">
        <ele>12.8</ele>
        <time>2022-05-24 16:00:09</time>
      </trkpt>
      <trkpt lat="40.81324" lon="0.51493">
        <ele>12.6</ele>
        <time>2022-05-24 16:00:10</time>
      </trkpt>
      <trkpt lat="40.81319" lon="0.51491">
        <ele>12.6</ele>
        <time>2022-05-24 16:00:11</time>
      </trkpt>
      <trkpt lat="40.81314" lon="0.51489">
        <ele>12.6</ele>
        <time>2022-05-24 16:00:12</time>
      </trkpt>
      <trkpt lat="40.8131" lon="0.51487">
        <ele>12.6</ele>
        <time>2022-05-24 16:00:13</time>
      </trkpt>
      <trkpt lat="40.81305" lon="0.51484">
        <ele>12.4</ele>
        <time>2022-05-24 16:00:14</time>
      </trkpt>
      <trkpt lat="40.813" lon="0.51482">
        <ele>12.4</ele>
        <time>2022-05-24 16:00:15</time>
      </trkpt>
      <trkpt lat="40.81294" lon="0.51479">
        <ele>12.4</ele>
        <time>2022-05-24 16:00:16</time>
      </trkpt>
      <trkpt lat="40.8129" lon="0.51477">
        <ele>12.4</ele>
        <time>2022-05-24 16:00:17</time>
      </trkpt>
      <trkpt lat="40.81285" lon="0.51475">
        <ele>12.4</ele>
        <time>2022-05-24 16:00:18</time>
      </trkpt>
      <trkpt lat="40.8128" lon="0.51473">
        <ele>12.4</ele>
        <time>2022-05-24 16:00:19</time>
      </trkpt>
      <trkpt lat="40.81275" lon="0.5147">
        <ele>12.4</ele>
        <time>2022-05-24 16:00:20</time>
      </trkpt>
      <trkpt lat="40.8127" lon="0.51468">
        <ele>12.4</ele>
        <time>2022-05-24 16:00:21</time>
      </trkpt>
      <trkpt lat="40.81265" lon="0.51465">
        <ele>12.4</ele>
        <time>2022-05-24 16:00:22</time>
      </trkpt>
      <trkpt lat="40.8126" lon="0.51463">
        <ele>12.4</ele>
        <time>2022-05-24 16:00:23</time>
      </trkpt>
      <trkpt lat="40.81255" lon="0.5146">
        <ele>12.4</ele>
        <time>2022-05-24 16:00:24</time>
      </trkpt>
      <trkpt lat="40.8125" lon="0.51458">
        <ele>12.4</ele>
        <time>2022-05-24 16:00:25</time>
      </trkpt>
      <trkpt lat="40.81245" lon="0.51455">
        <ele>12.4</ele>
        <time>2022-05-24 16:00:26</time>
      </trkpt>
      <trkpt lat="40.8124" lon="0.51453">
        <ele>12.4</ele>
        <time>2022-05-24 16:00:27</time>
      </trkpt>
      <trkpt lat="40.81234" lon="0.5145">
        <ele>12.4</ele>
        <time>2022-05-24 16:00:28</time>
      </trkpt>
      <trkpt lat="40.81229" lon="0.51447">
        <ele>12.4</ele>
        <time>2022-05-24 16:00:29</time>
      </trkpt>
      <trkpt lat="40.81224" lon="0.51445">
        <ele>12.4</ele>
        <time>2022-05-24 16:00:30</time>
      </trkpt>
      <trkpt lat="40.81218" lon="0.51442">
        <ele>12.4</ele>
        <time>2022-05-24 16:00:31</time>
      </trkpt>
      <trkpt lat="40.81213" lon="0.5144">
        <ele>12.2</ele>
        <time>2022-05-24 16:00:32</time>
      </trkpt>
      <trkpt lat="40.81207" lon="0.51437">
        <ele>12.2</ele>
        <time>2022-05-24 16:00:33</time>
      </trkpt>
      <trkpt lat="40.81202" lon="0.51434">
        <ele>12.2</ele>
        <time>2022-05-24 16:00:34</time>
      </trkpt>
      <trkpt lat="40.81197" lon="0.51432">
        <ele>12.2</ele>
        <time>2022-05-24 16:00:35</time>
      </trkpt>
      <trkpt lat="40.81192" lon="0.5143">
        <ele>12.2</ele>
        <time>2022-05-24 16:00:36</time>
      </trkpt>
      <trkpt lat="40.81186" lon="0.51427">
        <ele>12.2</ele>
        <time>2022-05-24 16:00:37</time>
      </trkpt>
      <trkpt lat="40.81181" lon="0.51425">
        <ele>12.2</ele>
        <time>2022-05-24 16:00:38</time>
      </trkpt>
      <trkpt lat="40.81175" lon="0.51422">
        <ele>12.2</ele>
        <time>2022-05-24 16:00:39</time>
      </trkpt>
      <trkpt lat="40.8117" lon="0.5142">
        <ele>12.2</ele>
        <time>2022-05-24 16:00:40</time>
      </trkpt>
      <trkpt lat="40.81165" lon="0.51418">
        <ele>12.2</ele>
        <time>2022-05-24 16:00:41</time>
      </trkpt>
      <trkpt lat="40.81159" lon="0.51415">
        <ele>12.2</ele>
        <time>2022-05-24 16:00:42</time>
      </trkpt>
      <trkpt lat="40.81154" lon="0.51413">
        <ele>12</ele>
        <time>2022-05-24 16:00:43</time>
      </trkpt>
      <trkpt lat="40.81148" lon="0.5141">
        <ele>11.8</ele>
        <time>2022-05-24 16:00:44</time>
      </trkpt>
      <trkpt lat="40.81142" lon="0.51407">
        <ele>11.6</ele>
        <time>2022-05-24 16:00:45</time>
      </trkpt>
      <trkpt lat="40.81137" lon="0.51405">
        <ele>11.4</ele>
        <time>2022-05-24 16:00:46</time>
      </trkpt>
      <trkpt lat="40.8113" lon="0.51402">
        <ele>11.4</ele>
        <time>2022-05-24 16:00:47</time>
      </trkpt>
      <trkpt lat="40.81124" lon="0.51399">
        <ele>11.2</ele>
        <time>2022-05-24 16:00:48</time>
      </trkpt>
      <trkpt lat="40.81118" lon="0.51397">
        <ele>11</ele>
        <time>2022-05-24 16:00:49</time>
      </trkpt>
      <trkpt lat="40.81113" lon="0.51395">
        <ele>10.8</ele>
        <time>2022-05-24 16:00:50</time>
      </trkpt>
      <trkpt lat="40.81106" lon="0.51392">
        <ele>10.6</ele>
        <time>2022-05-24 16:00:51</time>
      </trkpt>
      <trkpt lat="40.81101" lon="0.5139">
        <ele>10.6</ele>
        <time>2022-05-24 16:00:52</time>
      </trkpt>
      <trkpt lat="40.81094" lon="0.51387">
        <ele>10.4</ele>
        <time>2022-05-24 16:00:53</time>
      </trkpt>
      <trkpt lat="40.81089" lon="0.51385">
        <ele>10.6</ele>
        <time>2022-05-24 16:00:54</time>
      </trkpt>
      <trkpt lat="40.81083" lon="0.51382">
        <ele>10.6</ele>
        <time>2022-05-24 16:00:55</time>
      </trkpt>
      <trkpt lat="40.81078" lon="0.5138">
        <ele>10.4</ele>
        <time>2022-05-24 16:00:56</time>
      </trkpt>
      <trkpt lat="40.81072" lon="0.51377">
        <ele>10.4</ele>
        <time>2022-05-24 16:00:57</time>
      </trkpt>
      <trkpt lat="40.81067" lon="0.51375">
        <ele>10.4</ele>
        <time>2022-05-24 16:00:58</time>
      </trkpt>
      <trkpt lat="40.81061" lon="0.51372">
        <ele>10.4</ele>
        <time>2022-05-24 16:00:59</time>
      </trkpt>
      <trkpt lat="40.81055" lon="0.5137">
        <ele>10.4</ele>
        <time>2022-05-24 16:01:00</time>
      </trkpt>
      <trkpt lat="40.81049" lon="0.51367">
        <ele>10.4</ele>
        <time>2022-05-24 16:01:01</time>
      </trkpt>
      <trkpt lat="40.81043" lon="0.51365">
        <ele>10.6</ele>
        <time>2022-05-24 16:01:02</time>
      </trkpt>
      <trkpt lat="40.81037" lon="0.51362">
        <ele>10.6</ele>
        <time>2022-05-24 16:01:03</time>
      </trkpt>
      <trkpt lat="40.81032" lon="0.5136">
        <ele>10.8</ele>
        <time>2022-05-24 16:01:04</time>
      </trkpt>
      <trkpt lat="40.81026" lon="0.51358">
        <ele>10.8</ele>
        <time>2022-05-24 16:01:05</time>
      </trkpt>
      <trkpt lat="40.81022" lon="0.51356">
        <ele>11</ele>
        <time>2022-05-24 16:01:06</time>
      </trkpt>
      <trkpt lat="40.81017" lon="0.51352">
        <ele>11.2</ele>
        <time>2022-05-24 16:01:07</time>
      </trkpt>
      <trkpt lat="40.81014" lon="0.51349">
        <ele>11.2</ele>
        <time>2022-05-24 16:01:08</time>
      </trkpt>
      <trkpt lat="40.81012" lon="0.51343">
        <ele>11.4</ele>
        <time>2022-05-24 16:01:09</time>
      </trkpt>
      <trkpt lat="40.81012" lon="0.51337">
        <ele>11.4</ele>
        <time>2022-05-24 16:01:10</time>
      </trkpt>
      <trkpt lat="40.81014" lon="0.51331">
        <ele>11.4</ele>
        <time>2022-05-24 16:01:11</time>
      </trkpt>
      <trkpt lat="40.81015" lon="0.51324">
        <ele>11.4</ele>
        <time>2022-05-24 16:01:12</time>
      </trkpt>
      <trkpt lat="40.81017" lon="0.51317">
        <ele>11.4</ele>
        <time>2022-05-24 16:01:13</time>
      </trkpt>
      <trkpt lat="40.81019" lon="0.51311">
        <ele>11.4</ele>
        <time>2022-05-24 16:01:14</time>
      </trkpt>
      <trkpt lat="40.81021" lon="0.51303">
        <ele>11.4</ele>
        <time>2022-05-24 16:01:15</time>
      </trkpt>
      <trkpt lat="40.81023" lon="0.51296">
        <ele>11.2</ele>
        <time>2022-05-24 16:01:16</time>
      </trkpt>
      <trkpt lat="40.81025" lon="0.51288">
        <ele>11.2</ele>
        <time>2022-05-24 16:01:17</time>
      </trkpt>
      <trkpt lat="40.81027" lon="0.5128">
        <ele>11.4</ele>
        <time>2022-05-24 16:01:18</time>
      </trkpt>
      <trkpt lat="40.81028" lon="0.51273">
        <ele>11.4</ele>
        <time>2022-05-24 16:01:19</time>
      </trkpt>
      <trkpt lat="40.81031" lon="0.51264">
        <ele>11.4</ele>
        <time>2022-05-24 16:01:20</time>
      </trkpt>
      <trkpt lat="40.81033" lon="0.51256">
        <ele>11.6</ele>
        <time>2022-05-24 16:01:21</time>
      </trkpt>
      <trkpt lat="40.81034" lon="0.51249">
        <ele>11.6</ele>
        <time>2022-05-24 16:01:22</time>
      </trkpt>
      <trkpt lat="40.81036" lon="0.51242">
        <ele>11.6</ele>
        <time>2022-05-24 16:01:23</time>
      </trkpt>
      <trkpt lat="40.81038" lon="0.51235">
        <ele>11.8</ele>
        <time>2022-05-24 16:01:24</time>
      </trkpt>
      <trkpt lat="40.81039" lon="0.51228">
        <ele>11.8</ele>
        <time>2022-05-24 16:01:25</time>
      </trkpt>
      <trkpt lat="40.81042" lon="0.51221">
        <ele>11.6</ele>
        <time>2022-05-24 16:01:26</time>
      </trkpt>
      <trkpt lat="40.81044" lon="0.51214">
        <ele>11.6</ele>
        <time>2022-05-24 16:01:27</time>
      </trkpt>
      <trkpt lat="40.81046" lon="0.51206">
        <ele>11.6</ele>
        <time>2022-05-24 16:01:28</time>
      </trkpt>
      <trkpt lat="40.81047" lon="0.51199">
        <ele>11.6</ele>
        <time>2022-05-24 16:01:29</time>
      </trkpt>
      <trkpt lat="40.8105" lon="0.51191">
        <ele>11.6</ele>
        <time>2022-05-24 16:01:30</time>
      </trkpt>
      <trkpt lat="40.81052" lon="0.51184">
        <ele>11.8</ele>
        <time>2022-05-24 16:01:31</time>
      </trkpt>
      <trkpt lat="40.81054" lon="0.51177">
        <ele>11.8</ele>
        <time>2022-05-24 16:01:32</time>
      </trkpt>
      <trkpt lat="40.81055" lon="0.5117">
        <ele>11.8</ele>
        <time>2022-05-24 16:01:33</time>
      </trkpt>
      <trkpt lat="40.81057" lon="0.51164">
        <ele>12</ele>
        <time>2022-05-24 16:01:34</time>
      </trkpt>
      <trkpt lat="40.81058" lon="0.51158">
        <ele>12</ele>
        <time>2022-05-24 16:01:35</time>
      </trkpt>
      <trkpt lat="40.8106" lon="0.51151">
        <ele>12</ele>
        <time>2022-05-24 16:01:36</time>
      </trkpt>
      <trkpt lat="40.81061" lon="0.51146">
        <ele>12</ele>
        <time>2022-05-24 16:01:37</time>
      </trkpt>
      <trkpt lat="40.81063" lon="0.51138">
        <ele>12.2</ele>
        <time>2022-05-24 16:01:38</time>
      </trkpt>
      <trkpt lat="40.81065" lon="0.51132">
        <ele>12.2</ele>
        <time>2022-05-24 16:01:39</time>
      </trkpt>
      <trkpt lat="40.81067" lon="0.51127">
        <ele>12.2</ele>
        <time>2022-05-24 16:01:40</time>
      </trkpt>
      <trkpt lat="40.81068" lon="0.51121">
        <ele>12.2</ele>
        <time>2022-05-24 16:01:41</time>
      </trkpt>
      <trkpt lat="40.81069" lon="0.51116">
        <ele>12.2</ele>
        <time>2022-05-24 16:01:42</time>
      </trkpt>
      <trkpt lat="40.8107" lon="0.5111">
        <ele>12.2</ele>
        <time>2022-05-24 16:01:43</time>
      </trkpt>
      <trkpt lat="40.81072" lon="0.51105">
        <ele>12.2</ele>
        <time>2022-05-24 16:01:44</time>
      </trkpt>
      <trkpt lat="40.81073" lon="0.511">
        <ele>12.4</ele>
        <time>2022-05-24 16:01:45</time>
      </trkpt>
      <trkpt lat="40.81075" lon="0.51095">
        <ele>12.4</ele>
        <time>2022-05-24 16:01:46</time>
      </trkpt>
      <trkpt lat="40.81076" lon="0.51091">
        <ele>12.4</ele>
        <time>2022-05-24 16:01:47</time>
      </trkpt>
      <trkpt lat="40.81078" lon="0.51085">
        <ele>12.4</ele>
        <time>2022-05-24 16:01:48</time>
      </trkpt>
      <trkpt lat="40.81079" lon="0.51081">
        <ele>12.4</ele>
        <time>2022-05-24 16:01:49</time>
      </trkpt>
      <trkpt lat="40.8108" lon="0.51077">
        <ele>12.4</ele>
        <time>2022-05-24 16:01:50</time>
      </trkpt>
      <trkpt lat="40.81081" lon="0.51073">
        <ele>12.4</ele>
        <time>2022-05-24 16:01:51</time>
      </trkpt>
      <trkpt lat="40.81081" lon="0.51069">
        <ele>12.4</ele>
        <time>2022-05-24 16:01:52</time>
      </trkpt>
      <trkpt lat="40.81083" lon="0.51066">
        <ele>12.4</ele>
        <time>2022-05-24 16:01:53</time>
      </trkpt>
      <trkpt lat="40.81084" lon="0.51062">
        <ele>12.4</ele>
        <time>2022-05-24 16:01:54</time>
      </trkpt>
      <trkpt lat="40.81086" lon="0.51057">
        <ele>12.2</ele>
        <time>2022-05-24 16:01:55</time>
      </trkpt>
      <trkpt lat="40.81087" lon="0.51052">
        <ele>12.2</ele>
        <time>2022-05-24 16:01:56</time>
      </trkpt>
      <trkpt lat="40.8109" lon="0.51047">
        <ele>12</ele>
        <time>2022-05-24 16:01:57</time>
      </trkpt>
      <trkpt lat="40.81093" lon="0.51042">
        <ele>12</ele>
        <time>2022-05-24 16:01:58</time>
      </trkpt>
      <trkpt lat="40.81097" lon="0.51037">
        <ele>11.8</ele>
        <time>2022-05-24 16:01:59</time>
      </trkpt>
      <trkpt lat="40.81099" lon="0.5103">
        <ele>11.6</ele>
        <time>2022-05-24 16:02:00</time>
      </trkpt>
      <trkpt lat="40.81101" lon="0.51024">
        <ele>11.6</ele>
        <time>2022-05-24 16:02:01</time>
      </trkpt>
      <trkpt lat="40.81104" lon="0.51017">
        <ele>11.6</ele>
        <time>2022-05-24 16:02:02</time>
      </trkpt>
      <trkpt lat="40.81107" lon="0.51012">
        <ele>11.6</ele>
        <time>2022-05-24 16:02:03</time>
      </trkpt>
      <trkpt lat="40.8111" lon="0.51006">
        <ele>11.6</ele>
        <time>2022-05-24 16:02:04</time>
      </trkpt>
      <trkpt lat="40.81113" lon="0.51002">
        <ele>11.6</ele>
        <time>2022-05-24 16:02:05</time>
      </trkpt>
      <trkpt lat="40.81117" lon="0.50998">
        <ele>11.6</ele>
        <time>2022-05-24 16:02:06</time>
      </trkpt>
      <trkpt lat="40.8112" lon="0.50995">
        <ele>11.6</ele>
        <time>2022-05-24 16:02:07</time>
      </trkpt>
      <trkpt lat="40.81125" lon="0.50992">
        <ele>11.8</ele>
        <time>2022-05-24 16:02:08</time>
      </trkpt>
      <trkpt lat="40.81129" lon="0.50989">
        <ele>11.8</ele>
        <time>2022-05-24 16:02:09</time>
      </trkpt>
      <trkpt lat="40.81133" lon="0.50987">
        <ele>11.8</ele>
        <time>2022-05-24 16:02:10</time>
      </trkpt>
      <trkpt lat="40.81137" lon="0.50984">
        <ele>12</ele>
        <time>2022-05-24 16:02:11</time>
      </trkpt>
      <trkpt lat="40.81141" lon="0.50982">
        <ele>12</ele>
        <time>2022-05-24 16:02:12</time>
      </trkpt>
      <trkpt lat="40.81146" lon="0.50978">
        <ele>12.2</ele>
        <time>2022-05-24 16:02:13</time>
      </trkpt>
      <trkpt lat="40.8115" lon="0.50976">
        <ele>12.4</ele>
        <time>2022-05-24 16:02:14</time>
      </trkpt>
      <trkpt lat="40.81154" lon="0.50973">
        <ele>12.4</ele>
        <time>2022-05-24 16:02:15</time>
      </trkpt>
      <trkpt lat="40.81157" lon="0.5097">
        <ele>12.6</ele>
        <time>2022-05-24 16:02:16</time>
      </trkpt>
      <trkpt lat="40.81162" lon="0.50967">
        <ele>12.8</ele>
        <time>2022-05-24 16:02:17</time>
      </trkpt>
      <trkpt lat="40.81165" lon="0.50964">
        <ele>12.8</ele>
        <time>2022-05-24 16:02:18</time>
      </trkpt>
      <trkpt lat="40.8117" lon="0.5096">
        <ele>13</ele>
        <time>2022-05-24 16:02:19</time>
      </trkpt>
      <trkpt lat="40.81173" lon="0.50956">
        <ele>13</ele>
        <time>2022-05-24 16:02:20</time>
      </trkpt>
      <trkpt lat="40.81176" lon="0.5095">
        <ele>13.2</ele>
        <time>2022-05-24 16:02:21</time>
      </trkpt>
      <trkpt lat="40.81178" lon="0.50946">
        <ele>13.4</ele>
        <time>2022-05-24 16:02:22</time>
      </trkpt>
      <trkpt lat="40.8118" lon="0.5094">
        <ele>13.6</ele>
        <time>2022-05-24 16:02:23</time>
      </trkpt>
      <trkpt lat="40.81182" lon="0.50935">
        <ele>13.6</ele>
        <time>2022-05-24 16:02:24</time>
      </trkpt>
      <trkpt lat="40.81184" lon="0.50928">
        <ele>13.6</ele>
        <time>2022-05-24 16:02:25</time>
      </trkpt>
      <trkpt lat="40.81187" lon="0.50923">
        <ele>13.8</ele>
        <time>2022-05-24 16:02:26</time>
      </trkpt>
      <trkpt lat="40.8119" lon="0.50916">
        <ele>14</ele>
        <time>2022-05-24 16:02:27</time>
      </trkpt>
      <trkpt lat="40.81191" lon="0.50911">
        <ele>14.2</ele>
        <time>2022-05-24 16:02:28</time>
      </trkpt>
      <trkpt lat="40.81194" lon="0.50904">
        <ele>14.2</ele>
        <time>2022-05-24 16:02:29</time>
      </trkpt>
      <trkpt lat="40.81196" lon="0.50898">
        <ele>14.4</ele>
        <time>2022-05-24 16:02:30</time>
      </trkpt>
      <trkpt lat="40.812" lon="0.5089">
        <ele>14.4</ele>
        <time>2022-05-24 16:02:31</time>
      </trkpt>
      <trkpt lat="40.81202" lon="0.50885">
        <ele>14.4</ele>
        <time>2022-05-24 16:02:32</time>
      </trkpt>
      <trkpt lat="40.81205" lon="0.50878">
        <ele>14.6</ele>
        <time>2022-05-24 16:02:33</time>
      </trkpt>
      <trkpt lat="40.81206" lon="0.50874">
        <ele>14.6</ele>
        <time>2022-05-24 16:02:34</time>
      </trkpt>
      <trkpt lat="40.81208" lon="0.50867">
        <ele>14.6</ele>
        <time>2022-05-24 16:02:35</time>
      </trkpt>
      <trkpt lat="40.8121" lon="0.50861">
        <ele>14.6</ele>
        <time>2022-05-24 16:02:36</time>
      </trkpt>
      <trkpt lat="40.81214" lon="0.50856">
        <ele>14.6</ele>
        <time>2022-05-24 16:02:37</time>
      </trkpt>
      <trkpt lat="40.81216" lon="0.5085">
        <ele>14.6</ele>
        <time>2022-05-24 16:02:38</time>
      </trkpt>
      <trkpt lat="40.81219" lon="0.50843">
        <ele>14.4</ele>
        <time>2022-05-24 16:02:39</time>
      </trkpt>
      <trkpt lat="40.81221" lon="0.50836">
        <ele>14.4</ele>
        <time>2022-05-24 16:02:40</time>
      </trkpt>
      <trkpt lat="40.81223" lon="0.50829">
        <ele>14.4</ele>
        <time>2022-05-24 16:02:41</time>
      </trkpt>
      <trkpt lat="40.81224" lon="0.50824">
        <ele>14.6</ele>
        <time>2022-05-24 16:02:42</time>
      </trkpt>
      <trkpt lat="40.81226" lon="0.50817">
        <ele>14.6</ele>
        <time>2022-05-24 16:02:43</time>
      </trkpt>
      <trkpt lat="40.81228" lon="0.50812">
        <ele>14.6</ele>
        <time>2022-05-24 16:02:44</time>
      </trkpt>
      <trkpt lat="40.81231" lon="0.50805">
        <ele>14.6</ele>
        <time>2022-05-24 16:02:45</time>
      </trkpt>
      <trkpt lat="40.81232" lon="0.508">
        <ele>14.6</ele>
        <time>2022-05-24 16:02:46</time>
      </trkpt>
      <trkpt lat="40.81234" lon="0.50793">
        <ele>14.6</ele>
        <time>2022-05-24 16:02:47</time>
      </trkpt>
      <trkpt lat="40.81236" lon="0.50788">
        <ele>14.6</ele>
        <time>2022-05-24 16:02:48</time>
      </trkpt>
      <trkpt lat="40.81239" lon="0.50781">
        <ele>14.6</ele>
        <time>2022-05-24 16:02:49</time>
      </trkpt>
      <trkpt lat="40.8124" lon="0.50775">
        <ele>14.6</ele>
        <time>2022-05-24 16:02:50</time>
      </trkpt>
      <trkpt lat="40.81243" lon="0.50769">
        <ele>14.4</ele>
        <time>2022-05-24 16:02:51</time>
      </trkpt>
      <trkpt lat="40.81244" lon="0.50764">
        <ele>14.4</ele>
        <time>2022-05-24 16:02:52</time>
      </trkpt>
      <trkpt lat="40.81246" lon="0.50757">
        <ele>14.2</ele>
        <time>2022-05-24 16:02:53</time>
      </trkpt>
      <trkpt lat="40.81248" lon="0.50751">
        <ele>14.2</ele>
        <time>2022-05-24 16:02:54</time>
      </trkpt>
      <trkpt lat="40.81251" lon="0.50745">
        <ele>14.2</ele>
        <time>2022-05-24 16:02:55</time>
      </trkpt>
      <trkpt lat="40.81253" lon="0.5074">
        <ele>14.2</ele>
        <time>2022-05-24 16:02:56</time>
      </trkpt>
      <trkpt lat="40.81256" lon="0.50734">
        <ele>14.2</ele>
        <time>2022-05-24 16:02:57</time>
      </trkpt>
      <trkpt lat="40.81258" lon="0.50729">
        <ele>14.2</ele>
        <time>2022-05-24 16:02:58</time>
      </trkpt>
      <trkpt lat="40.8126" lon="0.50723">
        <ele>14.2</ele>
        <time>2022-05-24 16:02:59</time>
      </trkpt>
      <trkpt lat="40.81261" lon="0.50718">
        <ele>14.2</ele>
        <time>2022-05-24 16:03:00</time>
      </trkpt>
      <trkpt lat="40.81264" lon="0.5071">
        <ele>14.2</ele>
        <time>2022-05-24 16:03:01</time>
      </trkpt>
      <trkpt lat="40.81266" lon="0.50705">
        <ele>14.2</ele>
        <time>2022-05-24 16:03:02</time>
      </trkpt>
      <trkpt lat="40.81268" lon="0.50699">
        <ele>14.2</ele>
        <time>2022-05-24 16:03:03</time>
      </trkpt>
      <trkpt lat="40.81269" lon="0.50694">
        <ele>14.2</ele>
        <time>2022-05-24 16:03:04</time>
      </trkpt>
      <trkpt lat="40.81272" lon="0.50687">
        <ele>14.2</ele>
        <time>2022-05-24 16:03:05</time>
      </trkpt>
      <trkpt lat="40.81274" lon="0.50683">
        <ele>14.2</ele>
        <time>2022-05-24 16:03:06</time>
      </trkpt>
      <trkpt lat="40.81277" lon="0.50676">
        <ele>14.2</ele>
        <time>2022-05-24 16:03:07</time>
      </trkpt>
      <trkpt lat="40.81279" lon="0.50671">
        <ele>14.2</ele>
        <time>2022-05-24 16:03:08</time>
      </trkpt>
      <trkpt lat="40.81281" lon="0.50664">
        <ele>14.2</ele>
        <time>2022-05-24 16:03:09</time>
      </trkpt>
      <trkpt lat="40.81282" lon="0.5066">
        <ele>14.2</ele>
        <time>2022-05-24 16:03:10</time>
      </trkpt>
      <trkpt lat="40.81285" lon="0.50652">
        <ele>14.2</ele>
        <time>2022-05-24 16:03:11</time>
      </trkpt>
      <trkpt lat="40.81287" lon="0.50647">
        <ele>14.2</ele>
        <time>2022-05-24 16:03:12</time>
      </trkpt>
      <trkpt lat="40.81289" lon="0.50641">
        <ele>14.2</ele>
        <time>2022-05-24 16:03:13</time>
      </trkpt>
      <trkpt lat="40.8129" lon="0.50635">
        <ele>14.2</ele>
        <time>2022-05-24 16:03:14</time>
      </trkpt>
      <trkpt lat="40.81292" lon="0.50629">
        <ele>14.2</ele>
        <time>2022-05-24 16:03:15</time>
      </trkpt>
      <trkpt lat="40.81293" lon="0.50623">
        <ele>14.2</ele>
        <time>2022-05-24 16:03:16</time>
      </trkpt>
      <trkpt lat="40.81295" lon="0.50617">
        <ele>14.2</ele>
        <time>2022-05-24 16:03:17</time>
      </trkpt>
      <trkpt lat="40.81296" lon="0.50612">
        <ele>14.2</ele>
        <time>2022-05-24 16:03:18</time>
      </trkpt>
      <trkpt lat="40.81297" lon="0.50605">
        <ele>14.2</ele>
        <time>2022-05-24 16:03:19</time>
      </trkpt>
      <trkpt lat="40.81298" lon="0.506">
        <ele>14.4</ele>
        <time>2022-05-24 16:03:20</time>
      </trkpt>
      <trkpt lat="40.81299" lon="0.50593">
        <ele>14.4</ele>
        <time>2022-05-24 16:03:21</time>
      </trkpt>
      <trkpt lat="40.813" lon="0.50587">
        <ele>14.4</ele>
        <time>2022-05-24 16:03:22</time>
      </trkpt>
      <trkpt lat="40.813" lon="0.5058">
        <ele>14.4</ele>
        <time>2022-05-24 16:03:23</time>
      </trkpt>
      <trkpt lat="40.813" lon="0.50575">
        <ele>14.4</ele>
        <time>2022-05-24 16:03:24</time>
      </trkpt>
      <trkpt lat="40.81301" lon="0.50567">
        <ele>14.4</ele>
        <time>2022-05-24 16:03:25</time>
      </trkpt>
      <trkpt lat="40.81301" lon="0.50562">
        <ele>14.4</ele>
        <time>2022-05-24 16:03:26</time>
      </trkpt>
      <trkpt lat="40.81301" lon="0.50555">
        <ele>14.4</ele>
        <time>2022-05-24 16:03:27</time>
      </trkpt>
      <trkpt lat="40.81302" lon="0.5055">
        <ele>14.6</ele>
        <time>2022-05-24 16:03:28</time>
      </trkpt>
      <trkpt lat="40.81302" lon="0.50542">
        <ele>14.6</ele>
        <time>2022-05-24 16:03:29</time>
      </trkpt>
      <trkpt lat="40.81303" lon="0.50537">
        <ele>14.6</ele>
        <time>2022-05-24 16:03:30</time>
      </trkpt>
      <trkpt lat="40.81303" lon="0.50528">
        <ele>14.6</ele>
        <time>2022-05-24 16:03:31</time>
      </trkpt>
      <trkpt lat="40.81304" lon="0.50523">
        <ele>14.6</ele>
        <time>2022-05-24 16:03:32</time>
      </trkpt>
      <trkpt lat="40.81305" lon="0.50515">
        <ele>14.6</ele>
        <time>2022-05-24 16:03:33</time>
      </trkpt>
      <trkpt lat="40.81305" lon="0.5051">
        <ele>14.6</ele>
        <time>2022-05-24 16:03:34</time>
      </trkpt>
      <trkpt lat="40.81305" lon="0.50502">
        <ele>14.6</ele>
        <time>2022-05-24 16:03:35</time>
      </trkpt>
      <trkpt lat="40.81306" lon="0.50497">
        <ele>14.6</ele>
        <time>2022-05-24 16:03:36</time>
      </trkpt>
      <trkpt lat="40.81307" lon="0.50489">
        <ele>14.8</ele>
        <time>2022-05-24 16:03:37</time>
      </trkpt>
      <trkpt lat="40.81308" lon="0.50484">
        <ele>14.8</ele>
        <time>2022-05-24 16:03:38</time>
      </trkpt>
      <trkpt lat="40.81308" lon="0.50476">
        <ele>14.8</ele>
        <time>2022-05-24 16:03:39</time>
      </trkpt>
      <trkpt lat="40.8131" lon="0.5047">
        <ele>14.8</ele>
        <time>2022-05-24 16:03:40</time>
      </trkpt>
      <trkpt lat="40.81312" lon="0.50463">
        <ele>14.8</ele>
        <time>2022-05-24 16:03:41</time>
      </trkpt>
      <trkpt lat="40.81313" lon="0.50458">
        <ele>14.8</ele>
        <time>2022-05-24 16:03:42</time>
      </trkpt>
      <trkpt lat="40.81316" lon="0.5045">
        <ele>14.8</ele>
        <time>2022-05-24 16:03:43</time>
      </trkpt>
      <trkpt lat="40.81318" lon="0.50445">
        <ele>14.8</ele>
        <time>2022-05-24 16:03:44</time>
      </trkpt>
      <trkpt lat="40.81321" lon="0.50437">
        <ele>14.8</ele>
        <time>2022-05-24 16:03:45</time>
      </trkpt>
      <trkpt lat="40.81322" lon="0.50432">
        <ele>14.8</ele>
        <time>2022-05-24 16:03:46</time>
      </trkpt>
      <trkpt lat="40.81325" lon="0.50425">
        <ele>15</ele>
        <time>2022-05-24 16:03:47</time>
      </trkpt>
      <trkpt lat="40.81326" lon="0.5042">
        <ele>15</ele>
        <time>2022-05-24 16:03:48</time>
      </trkpt>
      <trkpt lat="40.81329" lon="0.50413">
        <ele>14.8</ele>
        <time>2022-05-24 16:03:49</time>
      </trkpt>
      <trkpt lat="40.81332" lon="0.50409">
        <ele>14.8</ele>
        <time>2022-05-24 16:03:50</time>
      </trkpt>
      <trkpt lat="40.81335" lon="0.50402">
        <ele>14.8</ele>
        <time>2022-05-24 16:03:51</time>
      </trkpt>
      <trkpt lat="40.81337" lon="0.50397">
        <ele>14.8</ele>
        <time>2022-05-24 16:03:52</time>
      </trkpt>
      <trkpt lat="40.81342" lon="0.5039">
        <ele>14.6</ele>
        <time>2022-05-24 16:03:53</time>
      </trkpt>
      <trkpt lat="40.81344" lon="0.50386">
        <ele>14.6</ele>
        <time>2022-05-24 16:03:54</time>
      </trkpt>
      <trkpt lat="40.81348" lon="0.50379">
        <ele>14.6</ele>
        <time>2022-05-24 16:03:55</time>
      </trkpt>
      <trkpt lat="40.81351" lon="0.50375">
        <ele>14.6</ele>
        <time>2022-05-24 16:03:56</time>
      </trkpt>
      <trkpt lat="40.81356" lon="0.50369">
        <ele>14.6</ele>
        <time>2022-05-24 16:03:57</time>
      </trkpt>
      <trkpt lat="40.81359" lon="0.50365">
        <ele>14.6</ele>
        <time>2022-05-24 16:03:58</time>
      </trkpt>
      <trkpt lat="40.81364" lon="0.50359">
        <ele>14.6</ele>
        <time>2022-05-24 16:03:59</time>
      </trkpt>
      <trkpt lat="40.81368" lon="0.50355">
        <ele>14.8</ele>
        <time>2022-05-24 16:04:00</time>
      </trkpt>
      <trkpt lat="40.81373" lon="0.5035">
        <ele>14.8</ele>
        <time>2022-05-24 16:04:01</time>
      </trkpt>
      <trkpt lat="40.81377" lon="0.50346">
        <ele>14.8</ele>
        <time>2022-05-24 16:04:02</time>
      </trkpt>
      <trkpt lat="40.81382" lon="0.50342">
        <ele>14.8</ele>
        <time>2022-05-24 16:04:03</time>
      </trkpt>
      <trkpt lat="40.81385" lon="0.50339">
        <ele>14.8</ele>
        <time>2022-05-24 16:04:04</time>
      </trkpt>
      <trkpt lat="40.81391" lon="0.50334">
        <ele>14.8</ele>
        <time>2022-05-24 16:04:05</time>
      </trkpt>
      <trkpt lat="40.81394" lon="0.50332">
        <ele>14.8</ele>
        <time>2022-05-24 16:04:06</time>
      </trkpt>
      <trkpt lat="40.814" lon="0.50327">
        <ele>14.8</ele>
        <time>2022-05-24 16:04:07</time>
      </trkpt>
      <trkpt lat="40.81404" lon="0.50325">
        <ele>15</ele>
        <time>2022-05-24 16:04:08</time>
      </trkpt>
      <trkpt lat="40.8141" lon="0.50321">
        <ele>15</ele>
        <time>2022-05-24 16:04:09</time>
      </trkpt>
      <trkpt lat="40.81414" lon="0.50318">
        <ele>15</ele>
        <time>2022-05-24 16:04:10</time>
      </trkpt>
      <trkpt lat="40.81419" lon="0.50314">
        <ele>15</ele>
        <time>2022-05-24 16:04:11</time>
      </trkpt>
      <trkpt lat="40.81424" lon="0.50311">
        <ele>15</ele>
        <time>2022-05-24 16:04:12</time>
      </trkpt>
      <trkpt lat="40.81429" lon="0.50307">
        <ele>15</ele>
        <time>2022-05-24 16:04:13</time>
      </trkpt>
      <trkpt lat="40.81433" lon="0.50305">
        <ele>15</ele>
        <time>2022-05-24 16:04:14</time>
      </trkpt>
      <trkpt lat="40.81439" lon="0.503">
        <ele>15.2</ele>
        <time>2022-05-24 16:04:15</time>
      </trkpt>
      <trkpt lat="40.81442" lon="0.50297">
        <ele>15.2</ele>
        <time>2022-05-24 16:04:16</time>
      </trkpt>
      <trkpt lat="40.81448" lon="0.50292">
        <ele>15.2</ele>
        <time>2022-05-24 16:04:17</time>
      </trkpt>
      <trkpt lat="40.81451" lon="0.50288">
        <ele>15.2</ele>
        <time>2022-05-24 16:04:18</time>
      </trkpt>
      <trkpt lat="40.81456" lon="0.50282">
        <ele>15.2</ele>
        <time>2022-05-24 16:04:19</time>
      </trkpt>
      <trkpt lat="40.81459" lon="0.50279">
        <ele>15.2</ele>
        <time>2022-05-24 16:04:20</time>
      </trkpt>
      <trkpt lat="40.81464" lon="0.50272">
        <ele>15.2</ele>
        <time>2022-05-24 16:04:21</time>
      </trkpt>
      <trkpt lat="40.81467" lon="0.50267">
        <ele>15.4</ele>
        <time>2022-05-24 16:04:22</time>
      </trkpt>
      <trkpt lat="40.8147" lon="0.50262">
        <ele>15.4</ele>
        <time>2022-05-24 16:04:23</time>
      </trkpt>
      <trkpt lat="40.81473" lon="0.50257">
        <ele>15.4</ele>
        <time>2022-05-24 16:04:24</time>
      </trkpt>
      <trkpt lat="40.81476" lon="0.50251">
        <ele>15.4</ele>
        <time>2022-05-24 16:04:25</time>
      </trkpt>
      <trkpt lat="40.81479" lon="0.50245">
        <ele>15.4</ele>
        <time>2022-05-24 16:04:26</time>
      </trkpt>
      <trkpt lat="40.81482" lon="0.50239">
        <ele>15.4</ele>
        <time>2022-05-24 16:04:27</time>
      </trkpt>
      <trkpt lat="40.81483" lon="0.50234">
        <ele>15.4</ele>
        <time>2022-05-24 16:04:28</time>
      </trkpt>
      <trkpt lat="40.81486" lon="0.50227">
        <ele>15.2</ele>
        <time>2022-05-24 16:04:29</time>
      </trkpt>
      <trkpt lat="40.81487" lon="0.50222">
        <ele>15.2</ele>
        <time>2022-05-24 16:04:30</time>
      </trkpt>
      <trkpt lat="40.81491" lon="0.50214">
        <ele>15.2</ele>
        <time>2022-05-24 16:04:31</time>
      </trkpt>
      <trkpt lat="40.81493" lon="0.50207">
        <ele>15.2</ele>
        <time>2022-05-24 16:04:32</time>
      </trkpt>
      <trkpt lat="40.81495" lon="0.50201">
        <ele>15.2</ele>
        <time>2022-05-24 16:04:33</time>
      </trkpt>
      <trkpt lat="40.81497" lon="0.50196">
        <ele>15.2</ele>
        <time>2022-05-24 16:04:34</time>
      </trkpt>
      <trkpt lat="40.81499" lon="0.50189">
        <ele>15.2</ele>
        <time>2022-05-24 16:04:35</time>
      </trkpt>
      <trkpt lat="40.81501" lon="0.50181">
        <ele>15.2</ele>
        <time>2022-05-24 16:04:36</time>
      </trkpt>
      <trkpt lat="40.81504" lon="0.50175">
        <ele>15.2</ele>
        <time>2022-05-24 16:04:37</time>
      </trkpt>
      <trkpt lat="40.81506" lon="0.50169">
        <ele>15.2</ele>
        <time>2022-05-24 16:04:38</time>
      </trkpt>
      <trkpt lat="40.81507" lon="0.50163">
        <ele>15.2</ele>
        <time>2022-05-24 16:04:39</time>
      </trkpt>
      <trkpt lat="40.81511" lon="0.50156">
        <ele>15.2</ele>
        <time>2022-05-24 16:04:40</time>
      </trkpt>
      <trkpt lat="40.81513" lon="0.5015">
        <ele>15.2</ele>
        <time>2022-05-24 16:04:41</time>
      </trkpt>
      <trkpt lat="40.81515" lon="0.50144">
        <ele>15.2</ele>
        <time>2022-05-24 16:04:42</time>
      </trkpt>
      <trkpt lat="40.81517" lon="0.50137">
        <ele>15.2</ele>
        <time>2022-05-24 16:04:43</time>
      </trkpt>
      <trkpt lat="40.8152" lon="0.50131">
        <ele>15.2</ele>
        <time>2022-05-24 16:04:44</time>
      </trkpt>
      <trkpt lat="40.81522" lon="0.50125">
        <ele>15</ele>
        <time>2022-05-24 16:04:45</time>
      </trkpt>
      <trkpt lat="40.81524" lon="0.50118">
        <ele>15</ele>
        <time>2022-05-24 16:04:46</time>
      </trkpt>
      <trkpt lat="40.81526" lon="0.50112">
        <ele>15</ele>
        <time>2022-05-24 16:04:47</time>
      </trkpt>
      <trkpt lat="40.81528" lon="0.50106">
        <ele>15</ele>
        <time>2022-05-24 16:04:48</time>
      </trkpt>
      <trkpt lat="40.8153" lon="0.50099">
        <ele>15</ele>
        <time>2022-05-24 16:04:49</time>
      </trkpt>
      <trkpt lat="40.81532" lon="0.50093">
        <ele>15</ele>
        <time>2022-05-24 16:04:50</time>
      </trkpt>
      <trkpt lat="40.81534" lon="0.50087">
        <ele>15</ele>
        <time>2022-05-24 16:04:51</time>
      </trkpt>
      <trkpt lat="40.81536" lon="0.50083">
        <ele>15</ele>
        <time>2022-05-24 16:04:52</time>
      </trkpt>
      <trkpt lat="40.81539" lon="0.50075">
        <ele>15</ele>
        <time>2022-05-24 16:04:53</time>
      </trkpt>
      <trkpt lat="40.81541" lon="0.50069">
        <ele>15</ele>
        <time>2022-05-24 16:04:54</time>
      </trkpt>
      <trkpt lat="40.81544" lon="0.50062">
        <ele>15</ele>
        <time>2022-05-24 16:04:55</time>
      </trkpt>
      <trkpt lat="40.81546" lon="0.50055">
        <ele>15</ele>
        <time>2022-05-24 16:04:56</time>
      </trkpt>
      <trkpt lat="40.81548" lon="0.50049">
        <ele>15</ele>
        <time>2022-05-24 16:04:57</time>
      </trkpt>
      <trkpt lat="40.81551" lon="0.50043">
        <ele>15</ele>
        <time>2022-05-24 16:04:58</time>
      </trkpt>
      <trkpt lat="40.81553" lon="0.50036">
        <ele>15</ele>
        <time>2022-05-24 16:04:59</time>
      </trkpt>
      <trkpt lat="40.81556" lon="0.5003">
        <ele>14.8</ele>
        <time>2022-05-24 16:05:00</time>
      </trkpt>
      <trkpt lat="40.81558" lon="0.50023">
        <ele>14.8</ele>
        <time>2022-05-24 16:05:01</time>
      </trkpt>
      <trkpt lat="40.8156" lon="0.50017">
        <ele>14.8</ele>
        <time>2022-05-24 16:05:02</time>
      </trkpt>
      <trkpt lat="40.81562" lon="0.5001">
        <ele>14.8</ele>
        <time>2022-05-24 16:05:03</time>
      </trkpt>
      <trkpt lat="40.81564" lon="0.50004">
        <ele>14.6</ele>
        <time>2022-05-24 16:05:04</time>
      </trkpt>
      <trkpt lat="40.81566" lon="0.49997">
        <ele>14.6</ele>
        <time>2022-05-24 16:05:05</time>
      </trkpt>
      <trkpt lat="40.81568" lon="0.49991">
        <ele>14.6</ele>
        <time>2022-05-24 16:05:06</time>
      </trkpt>
      <trkpt lat="40.8157" lon="0.49984">
        <ele>14.6</ele>
        <time>2022-05-24 16:05:07</time>
      </trkpt>
      <trkpt lat="40.81573" lon="0.49978">
        <ele>14.6</ele>
        <time>2022-05-24 16:05:08</time>
      </trkpt>
      <trkpt lat="40.81574" lon="0.49972">
        <ele>14.6</ele>
        <time>2022-05-24 16:05:09</time>
      </trkpt>
      <trkpt lat="40.81577" lon="0.49965">
        <ele>14.6</ele>
        <time>2022-05-24 16:05:10</time>
      </trkpt>
      <trkpt lat="40.81578" lon="0.49959">
        <ele>14.6</ele>
        <time>2022-05-24 16:05:11</time>
      </trkpt>
      <trkpt lat="40.8158" lon="0.49952">
        <ele>14.6</ele>
        <time>2022-05-24 16:05:12</time>
      </trkpt>
      <trkpt lat="40.81582" lon="0.49946">
        <ele>14.6</ele>
        <time>2022-05-24 16:05:13</time>
      </trkpt>
      <trkpt lat="40.81584" lon="0.4994">
        <ele>14.8</ele>
        <time>2022-05-24 16:05:14</time>
      </trkpt>
      <trkpt lat="40.81585" lon="0.49934">
        <ele>14.8</ele>
        <time>2022-05-24 16:05:15</time>
      </trkpt>
      <trkpt lat="40.81588" lon="0.49927">
        <ele>14.8</ele>
        <time>2022-05-24 16:05:16</time>
      </trkpt>
      <trkpt lat="40.81589" lon="0.49921">
        <ele>14.8</ele>
        <time>2022-05-24 16:05:17</time>
      </trkpt>
      <trkpt lat="40.81591" lon="0.49915">
        <ele>14.8</ele>
        <time>2022-05-24 16:05:18</time>
      </trkpt>
      <trkpt lat="40.81593" lon="0.49909">
        <ele>14.8</ele>
        <time>2022-05-24 16:05:19</time>
      </trkpt>
      <trkpt lat="40.81594" lon="0.49902">
        <ele>15</ele>
        <time>2022-05-24 16:05:20</time>
      </trkpt>
      <trkpt lat="40.81595" lon="0.49896">
        <ele>15</ele>
        <time>2022-05-24 16:05:21</time>
      </trkpt>
      <trkpt lat="40.81597" lon="0.49889">
        <ele>15</ele>
        <time>2022-05-24 16:05:22</time>
      </trkpt>
      <trkpt lat="40.81598" lon="0.49883">
        <ele>15</ele>
        <time>2022-05-24 16:05:23</time>
      </trkpt>
      <trkpt lat="40.81599" lon="0.49876">
        <ele>15</ele>
        <time>2022-05-24 16:05:24</time>
      </trkpt>
      <trkpt lat="40.81601" lon="0.4987">
        <ele>15.2</ele>
        <time>2022-05-24 16:05:25</time>
      </trkpt>
      <trkpt lat="40.81602" lon="0.49863">
        <ele>15.2</ele>
        <time>2022-05-24 16:05:26</time>
      </trkpt>
      <trkpt lat="40.81602" lon="0.49858">
        <ele>15.2</ele>
        <time>2022-05-24 16:05:27</time>
      </trkpt>
      <trkpt lat="40.81604" lon="0.49851">
        <ele>15.2</ele>
        <time>2022-05-24 16:05:28</time>
      </trkpt>
      <trkpt lat="40.81605" lon="0.49845">
        <ele>15.2</ele>
        <time>2022-05-24 16:05:29</time>
      </trkpt>
      <trkpt lat="40.81606" lon="0.49839">
        <ele>15.2</ele>
        <time>2022-05-24 16:05:30</time>
      </trkpt>
      <trkpt lat="40.81607" lon="0.49832">
        <ele>15.2</ele>
        <time>2022-05-24 16:05:31</time>
      </trkpt>
      <trkpt lat="40.81607" lon="0.49826">
        <ele>15.2</ele>
        <time>2022-05-24 16:05:32</time>
      </trkpt>
      <trkpt lat="40.81608" lon="0.49819">
        <ele>15.2</ele>
        <time>2022-05-24 16:05:33</time>
      </trkpt>
      <trkpt lat="40.81608" lon="0.49813">
        <ele>15.2</ele>
        <time>2022-05-24 16:05:34</time>
      </trkpt>
      <trkpt lat="40.81609" lon="0.49806">
        <ele>15.2</ele>
        <time>2022-05-24 16:05:35</time>
      </trkpt>
      <trkpt lat="40.8161" lon="0.49799">
        <ele>15.2</ele>
        <time>2022-05-24 16:05:36</time>
      </trkpt>
      <trkpt lat="40.8161" lon="0.49793">
        <ele>15.2</ele>
        <time>2022-05-24 16:05:37</time>
      </trkpt>
      <trkpt lat="40.8161" lon="0.49785">
        <ele>15.4</ele>
        <time>2022-05-24 16:05:38</time>
      </trkpt>
      <trkpt lat="40.8161" lon="0.49779">
        <ele>15.4</ele>
        <time>2022-05-24 16:05:39</time>
      </trkpt>
      <trkpt lat="40.81611" lon="0.49772">
        <ele>15.4</ele>
        <time>2022-05-24 16:05:40</time>
      </trkpt>
      <trkpt lat="40.81611" lon="0.49765">
        <ele>15.6</ele>
        <time>2022-05-24 16:05:41</time>
      </trkpt>
      <trkpt lat="40.81611" lon="0.49758">
        <ele>15.6</ele>
        <time>2022-05-24 16:05:42</time>
      </trkpt>
      <trkpt lat="40.81611" lon="0.49752">
        <ele>15.6</ele>
        <time>2022-05-24 16:05:43</time>
      </trkpt>
      <trkpt lat="40.81611" lon="0.49744">
        <ele>15.6</ele>
        <time>2022-05-24 16:05:44</time>
      </trkpt>
      <trkpt lat="40.8161" lon="0.49738">
        <ele>15.6</ele>
        <time>2022-05-24 16:05:45</time>
      </trkpt>
      <trkpt lat="40.8161" lon="0.49731">
        <ele>15.6</ele>
        <time>2022-05-24 16:05:46</time>
      </trkpt>
      <trkpt lat="40.8161" lon="0.49724">
        <ele>15.6</ele>
        <time>2022-05-24 16:05:47</time>
      </trkpt>
      <trkpt lat="40.8161" lon="0.49717">
        <ele>15.8</ele>
        <time>2022-05-24 16:05:48</time>
      </trkpt>
      <trkpt lat="40.81609" lon="0.4971">
        <ele>15.8</ele>
        <time>2022-05-24 16:05:49</time>
      </trkpt>
      <trkpt lat="40.81609" lon="0.49703">
        <ele>15.8</ele>
        <time>2022-05-24 16:05:50</time>
      </trkpt>
      <trkpt lat="40.81608" lon="0.49697">
        <ele>15.8</ele>
        <time>2022-05-24 16:05:51</time>
      </trkpt>
      <trkpt lat="40.81607" lon="0.4969">
        <ele>15.8</ele>
        <time>2022-05-24 16:05:52</time>
      </trkpt>
      <trkpt lat="40.81607" lon="0.49683">
        <ele>16</ele>
        <time>2022-05-24 16:05:53</time>
      </trkpt>
      <trkpt lat="40.81606" lon="0.49676">
        <ele>16</ele>
        <time>2022-05-24 16:05:54</time>
      </trkpt>
      <trkpt lat="40.81605" lon="0.49669">
        <ele>16</ele>
        <time>2022-05-24 16:05:55</time>
      </trkpt>
      <trkpt lat="40.81604" lon="0.49662">
        <ele>16</ele>
        <time>2022-05-24 16:05:56</time>
      </trkpt>
      <trkpt lat="40.81603" lon="0.49656">
        <ele>16</ele>
        <time>2022-05-24 16:05:57</time>
      </trkpt>
      <trkpt lat="40.81601" lon="0.49649">
        <ele>16</ele>
        <time>2022-05-24 16:05:58</time>
      </trkpt>
      <trkpt lat="40.816" lon="0.49643">
        <ele>16</ele>
        <time>2022-05-24 16:05:59</time>
      </trkpt>
      <trkpt lat="40.81598" lon="0.49636">
        <ele>16</ele>
        <time>2022-05-24 16:06:00</time>
      </trkpt>
      <trkpt lat="40.81597" lon="0.4963">
        <ele>16</ele>
        <time>2022-05-24 16:06:01</time>
      </trkpt>
      <trkpt lat="40.81595" lon="0.49623">
        <ele>16</ele>
        <time>2022-05-24 16:06:02</time>
      </trkpt>
      <trkpt lat="40.81594" lon="0.49617">
        <ele>16</ele>
        <time>2022-05-24 16:06:03</time>
      </trkpt>
      <trkpt lat="40.81592" lon="0.4961">
        <ele>16</ele>
        <time>2022-05-24 16:06:04</time>
      </trkpt>
      <trkpt lat="40.81591" lon="0.49604">
        <ele>16</ele>
        <time>2022-05-24 16:06:05</time>
      </trkpt>
      <trkpt lat="40.81589" lon="0.49597">
        <ele>16</ele>
        <time>2022-05-24 16:06:06</time>
      </trkpt>
      <trkpt lat="40.81588" lon="0.49591">
        <ele>16</ele>
        <time>2022-05-24 16:06:07</time>
      </trkpt>
      <trkpt lat="40.81585" lon="0.49583">
        <ele>16</ele>
        <time>2022-05-24 16:06:08</time>
      </trkpt>
      <trkpt lat="40.81583" lon="0.49577">
        <ele>15.8</ele>
        <time>2022-05-24 16:06:09</time>
      </trkpt>
      <trkpt lat="40.81581" lon="0.49569">
        <ele>15.8</ele>
        <time>2022-05-24 16:06:10</time>
      </trkpt>
      <trkpt lat="40.81579" lon="0.49563">
        <ele>15.6</ele>
        <time>2022-05-24 16:06:11</time>
      </trkpt>
      <trkpt lat="40.81577" lon="0.49555">
        <ele>15.4</ele>
        <time>2022-05-24 16:06:12</time>
      </trkpt>
      <trkpt lat="40.81575" lon="0.49548">
        <ele>15.4</ele>
        <time>2022-05-24 16:06:13</time>
      </trkpt>
      <trkpt lat="40.81572" lon="0.4954">
        <ele>15.4</ele>
        <time>2022-05-24 16:06:14</time>
      </trkpt>
      <trkpt lat="40.8157" lon="0.49533">
        <ele>15.4</ele>
        <time>2022-05-24 16:06:15</time>
      </trkpt>
      <trkpt lat="40.81569" lon="0.49526">
        <ele>15.4</ele>
        <time>2022-05-24 16:06:16</time>
      </trkpt>
      <trkpt lat="40.81568" lon="0.49519">
        <ele>15.2</ele>
        <time>2022-05-24 16:06:17</time>
      </trkpt>
      <trkpt lat="40.81567" lon="0.49512">
        <ele>15.4</ele>
        <time>2022-05-24 16:06:18</time>
      </trkpt>
      <trkpt lat="40.81565" lon="0.49506">
        <ele>15.4</ele>
        <time>2022-05-24 16:06:19</time>
      </trkpt>
      <trkpt lat="40.81564" lon="0.49498">
        <ele>15.4</ele>
        <time>2022-05-24 16:06:20</time>
      </trkpt>
      <trkpt lat="40.81564" lon="0.49492">
        <ele>15.6</ele>
        <time>2022-05-24 16:06:21</time>
      </trkpt>
      <trkpt lat="40.81563" lon="0.49486">
        <ele>15.8</ele>
        <time>2022-05-24 16:06:22</time>
      </trkpt>
      <trkpt lat="40.81563" lon="0.4948">
        <ele>16</ele>
        <time>2022-05-24 16:06:23</time>
      </trkpt>
      <trkpt lat="40.81565" lon="0.49475">
        <ele>16.2</ele>
        <time>2022-05-24 16:06:24</time>
      </trkpt>
      <trkpt lat="40.81566" lon="0.4947">
        <ele>16.4</ele>
        <time>2022-05-24 16:06:25</time>
      </trkpt>
      <trkpt lat="40.81569" lon="0.49466">
        <ele>16.6</ele>
        <time>2022-05-24 16:06:26</time>
      </trkpt>
      <trkpt lat="40.81571" lon="0.49462">
        <ele>16.8</ele>
        <time>2022-05-24 16:06:27</time>
      </trkpt>
      <trkpt lat="40.81575" lon="0.49459">
        <ele>17</ele>
        <time>2022-05-24 16:06:28</time>
      </trkpt>
      <trkpt lat="40.81577" lon="0.49455">
        <ele>17</ele>
        <time>2022-05-24 16:06:29</time>
      </trkpt>
      <trkpt lat="40.8158" lon="0.4945">
        <ele>17.2</ele>
        <time>2022-05-24 16:06:30</time>
      </trkpt>
      <trkpt lat="40.81581" lon="0.49445">
        <ele>17.2</ele>
        <time>2022-05-24 16:06:31</time>
      </trkpt>
      <trkpt lat="40.81582" lon="0.49439">
        <ele>17.4</ele>
        <time>2022-05-24 16:06:32</time>
      </trkpt>
      <trkpt lat="40.81582" lon="0.49433">
        <ele>17.4</ele>
        <time>2022-05-24 16:06:33</time>
      </trkpt>
      <trkpt lat="40.81581" lon="0.49427">
        <ele>17.6</ele>
        <time>2022-05-24 16:06:34</time>
      </trkpt>
      <trkpt lat="40.8158" lon="0.49421">
        <ele>17.6</ele>
        <time>2022-05-24 16:06:35</time>
      </trkpt>
      <trkpt lat="40.81578" lon="0.49414">
        <ele>17.8</ele>
        <time>2022-05-24 16:06:36</time>
      </trkpt>
      <trkpt lat="40.81578" lon="0.49409">
        <ele>17.8</ele>
        <time>2022-05-24 16:06:37</time>
      </trkpt>
      <trkpt lat="40.81579" lon="0.49402">
        <ele>17.8</ele>
        <time>2022-05-24 16:06:38</time>
      </trkpt>
      <trkpt lat="40.8158" lon="0.49397">
        <ele>18</ele>
        <time>2022-05-24 16:06:39</time>
      </trkpt>
      <trkpt lat="40.81581" lon="0.4939">
        <ele>18</ele>
        <time>2022-05-24 16:06:40</time>
      </trkpt>
      <trkpt lat="40.81583" lon="0.49385">
        <ele>18</ele>
        <time>2022-05-24 16:06:41</time>
      </trkpt>
      <trkpt lat="40.81585" lon="0.49378">
        <ele>18</ele>
        <time>2022-05-24 16:06:42</time>
      </trkpt>
      <trkpt lat="40.81586" lon="0.49372">
        <ele>18.2</ele>
        <time>2022-05-24 16:06:43</time>
      </trkpt>
      <trkpt lat="40.81588" lon="0.49366">
        <ele>18.2</ele>
        <time>2022-05-24 16:06:44</time>
      </trkpt>
      <trkpt lat="40.8159" lon="0.4936">
        <ele>18.2</ele>
        <time>2022-05-24 16:06:45</time>
      </trkpt>
      <trkpt lat="40.81593" lon="0.49355">
        <ele>18.4</ele>
        <time>2022-05-24 16:06:46</time>
      </trkpt>
      <trkpt lat="40.81594" lon="0.4935">
        <ele>18.4</ele>
        <time>2022-05-24 16:06:47</time>
      </trkpt>
      <trkpt lat="40.81596" lon="0.49344">
        <ele>18.6</ele>
        <time>2022-05-24 16:06:48</time>
      </trkpt>
      <trkpt lat="40.81598" lon="0.49339">
        <ele>18.6</ele>
        <time>2022-05-24 16:06:49</time>
      </trkpt>
      <trkpt lat="40.81601" lon="0.49333">
        <ele>18.6</ele>
        <time>2022-05-24 16:06:50</time>
      </trkpt>
      <trkpt lat="40.81603" lon="0.49328">
        <ele>18.8</ele>
        <time>2022-05-24 16:06:51</time>
      </trkpt>
      <trkpt lat="40.81606" lon="0.49322">
        <ele>18.8</ele>
        <time>2022-05-24 16:06:52</time>
      </trkpt>
      <trkpt lat="40.81609" lon="0.49318">
        <ele>18.8</ele>
        <time>2022-05-24 16:06:53</time>
      </trkpt>
      <trkpt lat="40.81612" lon="0.49314">
        <ele>19</ele>
        <time>2022-05-24 16:06:54</time>
      </trkpt>
      <trkpt lat="40.81615" lon="0.49312">
        <ele>19</ele>
        <time>2022-05-24 16:06:55</time>
      </trkpt>
      <trkpt lat="40.81619" lon="0.49311">
        <ele>19</ele>
        <time>2022-05-24 16:06:56</time>
      </trkpt>
      <trkpt lat="40.81624" lon="0.49311">
        <ele>19.2</ele>
        <time>2022-05-24 16:06:57</time>
      </trkpt>
      <trkpt lat="40.81628" lon="0.49313">
        <ele>19.2</ele>
        <time>2022-05-24 16:06:58</time>
      </trkpt>
      <trkpt lat="40.81633" lon="0.49315">
        <ele>19.4</ele>
        <time>2022-05-24 16:06:59</time>
      </trkpt>
      <trkpt lat="40.81637" lon="0.49317">
        <ele>19.4</ele>
        <time>2022-05-24 16:07:00</time>
      </trkpt>
      <trkpt lat="40.81641" lon="0.49319">
        <ele>19.6</ele>
        <time>2022-05-24 16:07:01</time>
      </trkpt>
      <trkpt lat="40.81644" lon="0.49321">
        <ele>19.8</ele>
        <time>2022-05-24 16:07:02</time>
      </trkpt>
      <trkpt lat="40.81649" lon="0.49324">
        <ele>19.8</ele>
        <time>2022-05-24 16:07:03</time>
      </trkpt>
      <trkpt lat="40.81652" lon="0.49326">
        <ele>20</ele>
        <time>2022-05-24 16:07:04</time>
      </trkpt>
      <trkpt lat="40.81656" lon="0.49328">
        <ele>20</ele>
        <time>2022-05-24 16:07:05</time>
      </trkpt>
      <trkpt lat="40.8166" lon="0.49331">
        <ele>20.2</ele>
        <time>2022-05-24 16:07:06</time>
      </trkpt>
      <trkpt lat="40.81664" lon="0.49334">
        <ele>20.4</ele>
        <time>2022-05-24 16:07:07</time>
      </trkpt>
      <trkpt lat="40.81668" lon="0.49337">
        <ele>20.4</ele>
        <time>2022-05-24 16:07:08</time>
      </trkpt>
      <trkpt lat="40.81671" lon="0.4934">
        <ele>20.6</ele>
        <time>2022-05-24 16:07:09</time>
      </trkpt>
      <trkpt lat="40.81675" lon="0.49343">
        <ele>20.6</ele>
        <time>2022-05-24 16:07:10</time>
      </trkpt>
      <trkpt lat="40.81677" lon="0.49345">
        <ele>20.8</ele>
        <time>2022-05-24 16:07:11</time>
      </trkpt>
      <trkpt lat="40.81682" lon="0.49349">
        <ele>20.8</ele>
        <time>2022-05-24 16:07:12</time>
      </trkpt>
      <trkpt lat="40.81685" lon="0.49352">
        <ele>20.8</ele>
        <time>2022-05-24 16:07:13</time>
      </trkpt>
      <trkpt lat="40.81689" lon="0.49355">
        <ele>21</ele>
        <time>2022-05-24 16:07:14</time>
      </trkpt>
      <trkpt lat="40.81693" lon="0.49358">
        <ele>21</ele>
        <time>2022-05-24 16:07:15</time>
      </trkpt>
      <trkpt lat="40.81696" lon="0.49362">
        <ele>21</ele>
        <time>2022-05-24 16:07:16</time>
      </trkpt>
      <trkpt lat="40.81699" lon="0.49365">
        <ele>21</ele>
        <time>2022-05-24 16:07:17</time>
      </trkpt>
      <trkpt lat="40.81704" lon="0.4937">
        <ele>21</ele>
        <time>2022-05-24 16:07:18</time>
      </trkpt>
      <trkpt lat="40.81708" lon="0.49373">
        <ele>21</ele>
        <time>2022-05-24 16:07:19</time>
      </trkpt>
      <trkpt lat="40.81712" lon="0.49377">
        <ele>21</ele>
        <time>2022-05-24 16:07:20</time>
      </trkpt>
      <trkpt lat="40.81716" lon="0.4938">
        <ele>21</ele>
        <time>2022-05-24 16:07:21</time>
      </trkpt>
      <trkpt lat="40.81721" lon="0.49384">
        <ele>21</ele>
        <time>2022-05-24 16:07:22</time>
      </trkpt>
      <trkpt lat="40.81725" lon="0.49387">
        <ele>21</ele>
        <time>2022-05-24 16:07:23</time>
      </trkpt>
      <trkpt lat="40.81729" lon="0.4939">
        <ele>21</ele>
        <time>2022-05-24 16:07:24</time>
      </trkpt>
      <trkpt lat="40.81733" lon="0.49391">
        <ele>21</ele>
        <time>2022-05-24 16:07:25</time>
      </trkpt>
      <trkpt lat="40.81739" lon="0.49393">
        <ele>21</ele>
        <time>2022-05-24 16:07:26</time>
      </trkpt>
      <trkpt lat="40.81743" lon="0.49393">
        <ele>21.2</ele>
        <time>2022-05-24 16:07:27</time>
      </trkpt>
      <trkpt lat="40.81748" lon="0.49392">
        <ele>21.2</ele>
        <time>2022-05-24 16:07:28</time>
      </trkpt>
      <trkpt lat="40.81751" lon="0.4939">
        <ele>21.2</ele>
        <time>2022-05-24 16:07:29</time>
      </trkpt>
      <trkpt lat="40.81755" lon="0.49386">
        <ele>21.4</ele>
        <time>2022-05-24 16:07:30</time>
      </trkpt>
      <trkpt lat="40.81759" lon="0.49382">
        <ele>21.6</ele>
        <time>2022-05-24 16:07:31</time>
      </trkpt>
      <trkpt lat="40.81762" lon="0.49378">
        <ele>21.6</ele>
        <time>2022-05-24 16:07:32</time>
      </trkpt>
      <trkpt lat="40.81765" lon="0.49375">
        <ele>21.8</ele>
        <time>2022-05-24 16:07:33</time>
      </trkpt>
      <trkpt lat="40.81767" lon="0.4937">
        <ele>22</ele>
        <time>2022-05-24 16:07:34</time>
      </trkpt>
      <trkpt lat="40.81769" lon="0.49367">
        <ele>22.2</ele>
        <time>2022-05-24 16:07:35</time>
      </trkpt>
      <trkpt lat="40.81771" lon="0.49362">
        <ele>22.2</ele>
        <time>2022-05-24 16:07:36</time>
      </trkpt>
      <trkpt lat="40.81773" lon="0.49358">
        <ele>22.4</ele>
        <time>2022-05-24 16:07:37</time>
      </trkpt>
      <trkpt lat="40.81776" lon="0.49354">
        <ele>22.6</ele>
        <time>2022-05-24 16:07:38</time>
      </trkpt>
      <trkpt lat="40.81779" lon="0.49349">
        <ele>22.8</ele>
        <time>2022-05-24 16:07:39</time>
      </trkpt>
      <trkpt lat="40.81781" lon="0.49346">
        <ele>23</ele>
        <time>2022-05-24 16:07:40</time>
      </trkpt>
      <trkpt lat="40.81783" lon="0.49343">
        <ele>23</ele>
        <time>2022-05-24 16:07:41</time>
      </trkpt>
      <trkpt lat="40.81786" lon="0.49338">
        <ele>23.2</ele>
        <time>2022-05-24 16:07:42</time>
      </trkpt>
      <trkpt lat="40.81789" lon="0.49334">
        <ele>23.4</ele>
        <time>2022-05-24 16:07:43</time>
      </trkpt>
      <trkpt lat="40.81791" lon="0.49331">
        <ele>23.6</ele>
        <time>2022-05-24 16:07:44</time>
      </trkpt>
      <trkpt lat="40.81794" lon="0.49327">
        <ele>23.8</ele>
        <time>2022-05-24 16:07:45</time>
      </trkpt>
      <trkpt lat="40.81796" lon="0.49323">
        <ele>24</ele>
        <time>2022-05-24 16:07:46</time>
      </trkpt>
      <trkpt lat="40.81797" lon="0.49321">
        <ele>24</ele>
        <time>2022-05-24 16:07:47</time>
      </trkpt>
      <trkpt lat="40.818" lon="0.49317">
        <ele>24.2</ele>
        <time>2022-05-24 16:07:48</time>
      </trkpt>
      <trkpt lat="40.81802" lon="0.49313">
        <ele>24.4</ele>
        <time>2022-05-24 16:07:49</time>
      </trkpt>
      <trkpt lat="40.81804" lon="0.4931">
        <ele>24.6</ele>
        <time>2022-05-24 16:07:50</time>
      </trkpt>
      <trkpt lat="40.81806" lon="0.49307">
        <ele>25</ele>
        <time>2022-05-24 16:07:51</time>
      </trkpt>
      <trkpt lat="40.81808" lon="0.49304">
        <ele>25.2</ele>
        <time>2022-05-24 16:07:52</time>
      </trkpt>
      <trkpt lat="40.81809" lon="0.49301">
        <ele>25.4</ele>
        <time>2022-05-24 16:07:53</time>
      </trkpt>
      <trkpt lat="40.81811" lon="0.49298">
        <ele>25.8</ele>
        <time>2022-05-24 16:07:54</time>
      </trkpt>
      <trkpt lat="40.81812" lon="0.49295">
        <ele>26</ele>
        <time>2022-05-24 16:07:55</time>
      </trkpt>
      <trkpt lat="40.81813" lon="0.49291">
        <ele>26.2</ele>
        <time>2022-05-24 16:07:56</time>
      </trkpt>
      <trkpt lat="40.81815" lon="0.49288">
        <ele>26.6</ele>
        <time>2022-05-24 16:07:57</time>
      </trkpt>
      <trkpt lat="40.81815" lon="0.49284">
        <ele>26.8</ele>
        <time>2022-05-24 16:07:58</time>
      </trkpt>
      <trkpt lat="40.81816" lon="0.4928">
        <ele>27</ele>
        <time>2022-05-24 16:07:59</time>
      </trkpt>
      <trkpt lat="40.81817" lon="0.49276">
        <ele>27.2</ele>
        <time>2022-05-24 16:08:00</time>
      </trkpt>
      <trkpt lat="40.81818" lon="0.49273">
        <ele>27.4</ele>
        <time>2022-05-24 16:08:01</time>
      </trkpt>
      <trkpt lat="40.81818" lon="0.49269">
        <ele>27.8</ele>
        <time>2022-05-24 16:08:02</time>
      </trkpt>
      <trkpt lat="40.81819" lon="0.49265">
        <ele>28</ele>
        <time>2022-05-24 16:08:03</time>
      </trkpt>
      <trkpt lat="40.8182" lon="0.49262">
        <ele>28.4</ele>
        <time>2022-05-24 16:08:04</time>
      </trkpt>
      <trkpt lat="40.81821" lon="0.49259">
        <ele>28.6</ele>
        <time>2022-05-24 16:08:05</time>
      </trkpt>
      <trkpt lat="40.81821" lon="0.49255">
        <ele>29</ele>
        <time>2022-05-24 16:08:06</time>
      </trkpt>
      <trkpt lat="40.81822" lon="0.49251">
        <ele>29.2</ele>
        <time>2022-05-24 16:08:07</time>
      </trkpt>
      <trkpt lat="40.81823" lon="0.49248">
        <ele>29.4</ele>
        <time>2022-05-24 16:08:08</time>
      </trkpt>
      <trkpt lat="40.81824" lon="0.49245">
        <ele>29.8</ele>
        <time>2022-05-24 16:08:09</time>
      </trkpt>
      <trkpt lat="40.81826" lon="0.4924">
        <ele>30</ele>
        <time>2022-05-24 16:08:10</time>
      </trkpt>
      <trkpt lat="40.81827" lon="0.49237">
        <ele>30.2</ele>
        <time>2022-05-24 16:08:11</time>
      </trkpt>
      <trkpt lat="40.81828" lon="0.49233">
        <ele>30.4</ele>
        <time>2022-05-24 16:08:12</time>
      </trkpt>
      <trkpt lat="40.81829" lon="0.49229">
        <ele>30.6</ele>
        <time>2022-05-24 16:08:13</time>
      </trkpt>
      <trkpt lat="40.81831" lon="0.49225">
        <ele>30.8</ele>
        <time>2022-05-24 16:08:14</time>
      </trkpt>
      <trkpt lat="40.81832" lon="0.49221">
        <ele>30.8</ele>
        <time>2022-05-24 16:08:15</time>
      </trkpt>
      <trkpt lat="40.81834" lon="0.49217">
        <ele>31</ele>
        <time>2022-05-24 16:08:16</time>
      </trkpt>
      <trkpt lat="40.81835" lon="0.49214">
        <ele>31</ele>
        <time>2022-05-24 16:08:17</time>
      </trkpt>
      <trkpt lat="40.81837" lon="0.4921">
        <ele>31</ele>
        <time>2022-05-24 16:08:18</time>
      </trkpt>
      <trkpt lat="40.81839" lon="0.49206">
        <ele>31.2</ele>
        <time>2022-05-24 16:08:19</time>
      </trkpt>
      <trkpt lat="40.8184" lon="0.49202">
        <ele>31.2</ele>
        <time>2022-05-24 16:08:20</time>
      </trkpt>
      <trkpt lat="40.81842" lon="0.49199">
        <ele>31.2</ele>
        <time>2022-05-24 16:08:21</time>
      </trkpt>
      <trkpt lat="40.81844" lon="0.49195">
        <ele>31.2</ele>
        <time>2022-05-24 16:08:22</time>
      </trkpt>
      <trkpt lat="40.81846" lon="0.49192">
        <ele>31.4</ele>
        <time>2022-05-24 16:08:23</time>
      </trkpt>
      <trkpt lat="40.81848" lon="0.49189">
        <ele>31.4</ele>
        <time>2022-05-24 16:08:24</time>
      </trkpt>
      <trkpt lat="40.8185" lon="0.49187">
        <ele>31.6</ele>
        <time>2022-05-24 16:08:25</time>
      </trkpt>
      <trkpt lat="40.81853" lon="0.49186">
        <ele>31.6</ele>
        <time>2022-05-24 16:08:26</time>
      </trkpt>
      <trkpt lat="40.81855" lon="0.49184">
        <ele>31.8</ele>
        <time>2022-05-24 16:08:27</time>
      </trkpt>
      <trkpt lat="40.81857" lon="0.49182">
        <ele>32</ele>
        <time>2022-05-24 16:08:28</time>
      </trkpt>
      <trkpt lat="40.8186" lon="0.4918">
        <ele>32</ele>
        <time>2022-05-24 16:08:29</time>
      </trkpt>
      <trkpt lat="40.81862" lon="0.49179">
        <ele>32.2</ele>
        <time>2022-05-24 16:08:30</time>
      </trkpt>
      <trkpt lat="40.81865" lon="0.49177">
        <ele>32.2</ele>
        <time>2022-05-24 16:08:31</time>
      </trkpt>
      <trkpt lat="40.81867" lon="0.49175">
        <ele>32.4</ele>
        <time>2022-05-24 16:08:32</time>
      </trkpt>
      <trkpt lat="40.8187" lon="0.49173">
        <ele>32.4</ele>
        <time>2022-05-24 16:08:33</time>
      </trkpt>
      <trkpt lat="40.81872" lon="0.4917">
        <ele>32.6</ele>
        <time>2022-05-24 16:08:34</time>
      </trkpt>
      <trkpt lat="40.81874" lon="0.49168">
        <ele>32.8</ele>
        <time>2022-05-24 16:08:35</time>
      </trkpt>
      <trkpt lat="40.81877" lon="0.49166">
        <ele>33</ele>
        <time>2022-05-24 16:08:36</time>
      </trkpt>
      <trkpt lat="40.81879" lon="0.49163">
        <ele>33.2</ele>
        <time>2022-05-24 16:08:37</time>
      </trkpt>
      <trkpt lat="40.81881" lon="0.49161">
        <ele>33.2</ele>
        <time>2022-05-24 16:08:38</time>
      </trkpt>
      <trkpt lat="40.81884" lon="0.49159">
        <ele>33.4</ele>
        <time>2022-05-24 16:08:39</time>
      </trkpt>
      <trkpt lat="40.81886" lon="0.49158">
        <ele>33.6</ele>
        <time>2022-05-24 16:08:40</time>
      </trkpt>
      <trkpt lat="40.81888" lon="0.49156">
        <ele>33.8</ele>
        <time>2022-05-24 16:08:41</time>
      </trkpt>
      <trkpt lat="40.8189" lon="0.49154">
        <ele>34</ele>
        <time>2022-05-24 16:08:42</time>
      </trkpt>
      <trkpt lat="40.81892" lon="0.49152">
        <ele>34.2</ele>
        <time>2022-05-24 16:08:43</time>
      </trkpt>
      <trkpt lat="40.81894" lon="0.4915">
        <ele>34.4</ele>
        <time>2022-05-24 16:08:44</time>
      </trkpt>
      <trkpt lat="40.81896" lon="0.49148">
        <ele>34.6</ele>
        <time>2022-05-24 16:08:45</time>
      </trkpt>
      <trkpt lat="40.81898" lon="0.49146">
        <ele>34.8</ele>
        <time>2022-05-24 16:08:46</time>
      </trkpt>
      <trkpt lat="40.819" lon="0.49144">
        <ele>35</ele>
        <time>2022-05-24 16:08:47</time>
      </trkpt>
      <trkpt lat="40.81902" lon="0.49141">
        <ele>35.2</ele>
        <time>2022-05-24 16:08:48</time>
      </trkpt>
      <trkpt lat="40.81904" lon="0.49139">
        <ele>35.2</ele>
        <time>2022-05-24 16:08:49</time>
      </trkpt>
      <trkpt lat="40.81906" lon="0.49137">
        <ele>35.4</ele>
        <time>2022-05-24 16:08:50</time>
      </trkpt>
      <trkpt lat="40.81908" lon="0.49134">
        <ele>35.4</ele>
        <time>2022-05-24 16:08:51</time>
      </trkpt>
      <trkpt lat="40.8191" lon="0.49132">
        <ele>35.6</ele>
        <time>2022-05-24 16:08:52</time>
      </trkpt>
      <trkpt lat="40.81912" lon="0.4913">
        <ele>35.8</ele>
        <time>2022-05-24 16:08:53</time>
      </trkpt>
      <trkpt lat="40.81914" lon="0.49128">
        <ele>36</ele>
        <time>2022-05-24 16:08:54</time>
      </trkpt>
      <trkpt lat="40.81916" lon="0.49125">
        <ele>36.2</ele>
        <time>2022-05-24 16:08:55</time>
      </trkpt>
      <trkpt lat="40.81918" lon="0.49123">
        <ele>36.2</ele>
        <time>2022-05-24 16:08:56</time>
      </trkpt>
      <trkpt lat="40.8192" lon="0.49121">
        <ele>36.4</ele>
        <time>2022-05-24 16:08:57</time>
      </trkpt>
      <trkpt lat="40.81923" lon="0.49118">
        <ele>36.6</ele>
        <time>2022-05-24 16:08:58</time>
      </trkpt>
      <trkpt lat="40.81925" lon="0.49116">
        <ele>36.8</ele>
        <time>2022-05-24 16:08:59</time>
      </trkpt>
      <trkpt lat="40.81927" lon="0.49113">
        <ele>37</ele>
        <time>2022-05-24 16:09:00</time>
      </trkpt>
      <trkpt lat="40.81929" lon="0.49111">
        <ele>37</ele>
        <time>2022-05-24 16:09:01</time>
      </trkpt>
      <trkpt lat="40.81931" lon="0.49108">
        <ele>37.2</ele>
        <time>2022-05-24 16:09:02</time>
      </trkpt>
      <trkpt lat="40.81932" lon="0.49105">
        <ele>37.4</ele>
        <time>2022-05-24 16:09:03</time>
      </trkpt>
      <trkpt lat="40.81934" lon="0.49102">
        <ele>37.6</ele>
        <time>2022-05-24 16:09:04</time>
      </trkpt>
      <trkpt lat="40.81936" lon="0.49099">
        <ele>37.8</ele>
        <time>2022-05-24 16:09:05</time>
      </trkpt>
      <trkpt lat="40.81938" lon="0.49096">
        <ele>38</ele>
        <time>2022-05-24 16:09:06</time>
      </trkpt>
      <trkpt lat="40.8194" lon="0.49094">
        <ele>38.2</ele>
        <time>2022-05-24 16:09:07</time>
      </trkpt>
      <trkpt lat="40.81942" lon="0.4909">
        <ele>38.2</ele>
        <time>2022-05-24 16:09:08</time>
      </trkpt>
      <trkpt lat="40.81944" lon="0.49088">
        <ele>38.4</ele>
        <time>2022-05-24 16:09:09</time>
      </trkpt>
      <trkpt lat="40.81946" lon="0.49084">
        <ele>38.6</ele>
        <time>2022-05-24 16:09:10</time>
      </trkpt>
      <trkpt lat="40.81947" lon="0.49082">
        <ele>38.8</ele>
        <time>2022-05-24 16:09:11</time>
      </trkpt>
      <trkpt lat="40.8195" lon="0.49078">
        <ele>38.8</ele>
        <time>2022-05-24 16:09:12</time>
      </trkpt>
      <trkpt lat="40.81951" lon="0.49075">
        <ele>39</ele>
        <time>2022-05-24 16:09:13</time>
      </trkpt>
      <trkpt lat="40.81953" lon="0.49071">
        <ele>39.2</ele>
        <time>2022-05-24 16:09:14</time>
      </trkpt>
      <trkpt lat="40.81955" lon="0.49068">
        <ele>39.4</ele>
        <time>2022-05-24 16:09:15</time>
      </trkpt>
      <trkpt lat="40.81956" lon="0.49065">
        <ele>39.6</ele>
        <time>2022-05-24 16:09:16</time>
      </trkpt>
      <trkpt lat="40.81958" lon="0.49062">
        <ele>39.6</ele>
        <time>2022-05-24 16:09:17</time>
      </trkpt>
      <trkpt lat="40.81961" lon="0.49059">
        <ele>39.8</ele>
        <time>2022-05-24 16:09:18</time>
      </trkpt>
      <trkpt lat="40.81963" lon="0.49057">
        <ele>40</ele>
        <time>2022-05-24 16:09:19</time>
      </trkpt>
      <trkpt lat="40.81965" lon="0.49054">
        <ele>40.2</ele>
        <time>2022-05-24 16:09:20</time>
      </trkpt>
      <trkpt lat="40.81968" lon="0.49052">
        <ele>40.2</ele>
        <time>2022-05-24 16:09:21</time>
      </trkpt>
      <trkpt lat="40.81969" lon="0.49051">
        <ele>40.4</ele>
        <time>2022-05-24 16:09:22</time>
      </trkpt>
      <trkpt lat="40.81972" lon="0.49048">
        <ele>40.6</ele>
        <time>2022-05-24 16:09:23</time>
      </trkpt>
      <trkpt lat="40.81975" lon="0.49046">
        <ele>40.6</ele>
        <time>2022-05-24 16:09:24</time>
      </trkpt>
      <trkpt lat="40.81977" lon="0.49044">
        <ele>40.8</ele>
        <time>2022-05-24 16:09:25</time>
      </trkpt>
      <trkpt lat="40.81981" lon="0.49043">
        <ele>41</ele>
        <time>2022-05-24 16:09:26</time>
      </trkpt>
      <trkpt lat="40.81983" lon="0.49041">
        <ele>41</ele>
        <time>2022-05-24 16:09:27</time>
      </trkpt>
      <trkpt lat="40.81986" lon="0.4904">
        <ele>41.2</ele>
        <time>2022-05-24 16:09:28</time>
      </trkpt>
      <trkpt lat="40.81989" lon="0.49039">
        <ele>41.4</ele>
        <time>2022-05-24 16:09:29</time>
      </trkpt>
      <trkpt lat="40.81992" lon="0.49037">
        <ele>41.6</ele>
        <time>2022-05-24 16:09:30</time>
      </trkpt>
      <trkpt lat="40.81995" lon="0.49036">
        <ele>41.8</ele>
        <time>2022-05-24 16:09:31</time>
      </trkpt>
      <trkpt lat="40.81998" lon="0.49034">
        <ele>42</ele>
        <time>2022-05-24 16:09:32</time>
      </trkpt>
      <trkpt lat="40.82" lon="0.49033">
        <ele>42</ele>
        <time>2022-05-24 16:09:33</time>
      </trkpt>
      <trkpt lat="40.82003" lon="0.4903">
        <ele>42.4</ele>
        <time>2022-05-24 16:09:34</time>
      </trkpt>
      <trkpt lat="40.82006" lon="0.49028">
        <ele>42.6</ele>
        <time>2022-05-24 16:09:35</time>
      </trkpt>
      <trkpt lat="40.82008" lon="0.49026">
        <ele>42.8</ele>
        <time>2022-05-24 16:09:36</time>
      </trkpt>
      <trkpt lat="40.82011" lon="0.49025">
        <ele>43</ele>
        <time>2022-05-24 16:09:37</time>
      </trkpt>
      <trkpt lat="40.82014" lon="0.49023">
        <ele>43.2</ele>
        <time>2022-05-24 16:09:38</time>
      </trkpt>
      <trkpt lat="40.82017" lon="0.49022">
        <ele>43.4</ele>
        <time>2022-05-24 16:09:39</time>
      </trkpt>
      <trkpt lat="40.82021" lon="0.4902">
        <ele>43.6</ele>
        <time>2022-05-24 16:09:40</time>
      </trkpt>
      <trkpt lat="40.82024" lon="0.49018">
        <ele>44</ele>
        <time>2022-05-24 16:09:41</time>
      </trkpt>
      <trkpt lat="40.82027" lon="0.49016">
        <ele>44.2</ele>
        <time>2022-05-24 16:09:42</time>
      </trkpt>
      <trkpt lat="40.8203" lon="0.49015">
        <ele>44.4</ele>
        <time>2022-05-24 16:09:43</time>
      </trkpt>
      <trkpt lat="40.82032" lon="0.49013">
        <ele>44.6</ele>
        <time>2022-05-24 16:09:44</time>
      </trkpt>
      <trkpt lat="40.82035" lon="0.49011">
        <ele>44.8</ele>
        <time>2022-05-24 16:09:45</time>
      </trkpt>
      <trkpt lat="40.82037" lon="0.49009">
        <ele>45.2</ele>
        <time>2022-05-24 16:09:46</time>
      </trkpt>
      <trkpt lat="40.8204" lon="0.49007">
        <ele>45.4</ele>
        <time>2022-05-24 16:09:47</time>
      </trkpt>
      <trkpt lat="40.82042" lon="0.49005">
        <ele>45.8</ele>
        <time>2022-05-24 16:09:48</time>
      </trkpt>
      <trkpt lat="40.82044" lon="0.49002">
        <ele>46</ele>
        <time>2022-05-24 16:09:49</time>
      </trkpt>
      <trkpt lat="40.82046" lon="0.48999">
        <ele>46.4</ele>
        <time>2022-05-24 16:09:50</time>
      </trkpt>
      <trkpt lat="40.82048" lon="0.48996">
        <ele>46.6</ele>
        <time>2022-05-24 16:09:51</time>
      </trkpt>
      <trkpt lat="40.8205" lon="0.48993">
        <ele>47</ele>
        <time>2022-05-24 16:09:52</time>
      </trkpt>
      <trkpt lat="40.82051" lon="0.4899">
        <ele>47.2</ele>
        <time>2022-05-24 16:09:53</time>
      </trkpt>
      <trkpt lat="40.82053" lon="0.48987">
        <ele>47.8</ele>
        <time>2022-05-24 16:09:54</time>
      </trkpt>
      <trkpt lat="40.82055" lon="0.48984">
        <ele>48</ele>
        <time>2022-05-24 16:09:55</time>
      </trkpt>
      <trkpt lat="40.82056" lon="0.48982">
        <ele>48.4</ele>
        <time>2022-05-24 16:09:56</time>
      </trkpt>
      <trkpt lat="40.82056" lon="0.4898">
        <ele>48.8</ele>
        <time>2022-05-24 16:09:57</time>
      </trkpt>
      <trkpt lat="40.82058" lon="0.48978">
        <ele>49.2</ele>
        <time>2022-05-24 16:09:58</time>
      </trkpt>
      <trkpt lat="40.8206" lon="0.48976">
        <ele>49.4</ele>
        <time>2022-05-24 16:09:59</time>
      </trkpt>
      <trkpt lat="40.82061" lon="0.48975">
        <ele>49.8</ele>
        <time>2022-05-24 16:10:00</time>
      </trkpt>
      <trkpt lat="40.82062" lon="0.48972">
        <ele>50.2</ele>
        <time>2022-05-24 16:10:01</time>
      </trkpt>
      <trkpt lat="40.82063" lon="0.4897">
        <ele>50.6</ele>
        <time>2022-05-24 16:10:02</time>
      </trkpt>
      <trkpt lat="40.82064" lon="0.48968">
        <ele>50.8</ele>
        <time>2022-05-24 16:10:03</time>
      </trkpt>
      <trkpt lat="40.82065" lon="0.48966">
        <ele>51.2</ele>
        <time>2022-05-24 16:10:04</time>
      </trkpt>
      <trkpt lat="40.82066" lon="0.48963">
        <ele>51.6</ele>
        <time>2022-05-24 16:10:05</time>
      </trkpt>
      <trkpt lat="40.82067" lon="0.48961">
        <ele>51.8</ele>
        <time>2022-05-24 16:10:06</time>
      </trkpt>
      <trkpt lat="40.82067" lon="0.48959">
        <ele>52</ele>
        <time>2022-05-24 16:10:07</time>
      </trkpt>
      <trkpt lat="40.82068" lon="0.48957">
        <ele>52.4</ele>
        <time>2022-05-24 16:10:08</time>
      </trkpt>
      <trkpt lat="40.82069" lon="0.48955">
        <ele>52.6</ele>
        <time>2022-05-24 16:10:09</time>
      </trkpt>
      <trkpt lat="40.8207" lon="0.48952">
        <ele>53</ele>
        <time>2022-05-24 16:10:10</time>
      </trkpt>
      <trkpt lat="40.8207" lon="0.4895">
        <ele>53.2</ele>
        <time>2022-05-24 16:10:11</time>
      </trkpt>
      <trkpt lat="40.82071" lon="0.48948">
        <ele>53.6</ele>
        <time>2022-05-24 16:10:12</time>
      </trkpt>
      <trkpt lat="40.82071" lon="0.48945">
        <ele>53.8</ele>
        <time>2022-05-24 16:10:13</time>
      </trkpt>
      <trkpt lat="40.82071" lon="0.48943">
        <ele>54</ele>
        <time>2022-05-24 16:10:14</time>
      </trkpt>
      <trkpt lat="40.82071" lon="0.48941">
        <ele>54.4</ele>
        <time>2022-05-24 16:10:15</time>
      </trkpt>
      <trkpt lat="40.82071" lon="0.4894">
        <ele>54.6</ele>
        <time>2022-05-24 16:10:16</time>
      </trkpt>
      <trkpt lat="40.82072" lon="0.48938">
        <ele>55</ele>
        <time>2022-05-24 16:10:17</time>
      </trkpt>
      <trkpt lat="40.82072" lon="0.48936">
        <ele>55.2</ele>
        <time>2022-05-24 16:10:18</time>
      </trkpt>
      <trkpt lat="40.82072" lon="0.48933">
        <ele>55.4</ele>
        <time>2022-05-24 16:10:19</time>
      </trkpt>
      <trkpt lat="40.82072" lon="0.48931">
        <ele>55.6</ele>
        <time>2022-05-24 16:10:20</time>
      </trkpt>
      <trkpt lat="40.82073" lon="0.48928">
        <ele>55.8</ele>
        <time>2022-05-24 16:10:21</time>
      </trkpt>
      <trkpt lat="40.82073" lon="0.48926">
        <ele>56.2</ele>
        <time>2022-05-24 16:10:22</time>
      </trkpt>
      <trkpt lat="40.82073" lon="0.48924">
        <ele>56.4</ele>
        <time>2022-05-24 16:10:23</time>
      </trkpt>
      <trkpt lat="40.82074" lon="0.48922">
        <ele>56.6</ele>
        <time>2022-05-24 16:10:24</time>
      </trkpt>
      <trkpt lat="40.82074" lon="0.4892">
        <ele>56.8</ele>
        <time>2022-05-24 16:10:25</time>
      </trkpt>
      <trkpt lat="40.82075" lon="0.48918">
        <ele>57</ele>
        <time>2022-05-24 16:10:26</time>
      </trkpt>
      <trkpt lat="40.82075" lon="0.48917">
        <ele>57.2</ele>
        <time>2022-05-24 16:10:27</time>
      </trkpt>
      <trkpt lat="40.82075" lon="0.48915">
        <ele>57.4</ele>
        <time>2022-05-24 16:10:28</time>
      </trkpt>
      <trkpt lat="40.82076" lon="0.48913">
        <ele>57.6</ele>
        <time>2022-05-24 16:10:29</time>
      </trkpt>
      <trkpt lat="40.82077" lon="0.48912">
        <ele>57.8</ele>
        <time>2022-05-24 16:10:30</time>
      </trkpt>
      <trkpt lat="40.82079" lon="0.48911">
        <ele>58</ele>
        <time>2022-05-24 16:10:31</time>
      </trkpt>
      <trkpt lat="40.8208" lon="0.4891">
        <ele>58.2</ele>
        <time>2022-05-24 16:10:32</time>
      </trkpt>
      <trkpt lat="40.82081" lon="0.48909">
        <ele>58.4</ele>
        <time>2022-05-24 16:10:33</time>
      </trkpt>
      <trkpt lat="40.82083" lon="0.48908">
        <ele>58.6</ele>
        <time>2022-05-24 16:10:34</time>
      </trkpt>
      <trkpt lat="40.82084" lon="0.48907">
        <ele>59</ele>
        <time>2022-05-24 16:10:35</time>
      </trkpt>
      <trkpt lat="40.82085" lon="0.48906">
        <ele>59.2</ele>
        <time>2022-05-24 16:10:36</time>
      </trkpt>
      <trkpt lat="40.82087" lon="0.48905">
        <ele>59.4</ele>
        <time>2022-05-24 16:10:37</time>
      </trkpt>
      <trkpt lat="40.82088" lon="0.48904">
        <ele>59.6</ele>
        <time>2022-05-24 16:10:38</time>
      </trkpt>
      <trkpt lat="40.82089" lon="0.48903">
        <ele>59.8</ele>
        <time>2022-05-24 16:10:39</time>
      </trkpt>
      <trkpt lat="40.8209" lon="0.48902">
        <ele>60</ele>
        <time>2022-05-24 16:10:40</time>
      </trkpt>
      <trkpt lat="40.82092" lon="0.48902">
        <ele>60.2</ele>
        <time>2022-05-24 16:10:41</time>
      </trkpt>
      <trkpt lat="40.82093" lon="0.48902">
        <ele>60.4</ele>
        <time>2022-05-24 16:10:42</time>
      </trkpt>
      <trkpt lat="40.82095" lon="0.48902">
        <ele>60.6</ele>
        <time>2022-05-24 16:10:43</time>
      </trkpt>
      <trkpt lat="40.82096" lon="0.48902">
        <ele>60.8</ele>
        <time>2022-05-24 16:10:44</time>
      </trkpt>
      <trkpt lat="40.82098" lon="0.48902">
        <ele>61</ele>
        <time>2022-05-24 16:10:45</time>
      </trkpt>
      <trkpt lat="40.821" lon="0.48902">
        <ele>61.4</ele>
        <time>2022-05-24 16:10:46</time>
      </trkpt>
      <trkpt lat="40.82101" lon="0.48902">
        <ele>61.6</ele>
        <time>2022-05-24 16:10:47</time>
      </trkpt>
      <trkpt lat="40.82102" lon="0.48902">
        <ele>61.8</ele>
        <time>2022-05-24 16:10:48</time>
      </trkpt>
      <trkpt lat="40.82104" lon="0.48902">
        <ele>62</ele>
        <time>2022-05-24 16:10:49</time>
      </trkpt>
      <trkpt lat="40.82105" lon="0.48903">
        <ele>62.2</ele>
        <time>2022-05-24 16:10:50</time>
      </trkpt>
      <trkpt lat="40.82106" lon="0.48903">
        <ele>62.6</ele>
        <time>2022-05-24 16:10:51</time>
      </trkpt>
      <trkpt lat="40.82108" lon="0.48902">
        <ele>62.8</ele>
        <time>2022-05-24 16:10:52</time>
      </trkpt>
      <trkpt lat="40.82109" lon="0.48901">
        <ele>63</ele>
        <time>2022-05-24 16:10:53</time>
      </trkpt>
      <trkpt lat="40.8211" lon="0.489">
        <ele>63.2</ele>
        <time>2022-05-24 16:10:54</time>
      </trkpt>
      <trkpt lat="40.82112" lon="0.48899">
        <ele>63.4</ele>
        <time>2022-05-24 16:10:55</time>
      </trkpt>
      <trkpt lat="40.82113" lon="0.48898">
        <ele>63.6</ele>
        <time>2022-05-24 16:10:56</time>
      </trkpt>
      <trkpt lat="40.82114" lon="0.48897">
        <ele>64</ele>
        <time>2022-05-24 16:10:57</time>
      </trkpt>
      <trkpt lat="40.82116" lon="0.48896">
        <ele>64.2</ele>
        <time>2022-05-24 16:10:58</time>
      </trkpt>
      <trkpt lat="40.82117" lon="0.48894">
        <ele>64.4</ele>
        <time>2022-05-24 16:10:59</time>
      </trkpt>
      <trkpt lat="40.82118" lon="0.48893">
        <ele>64.6</ele>
        <time>2022-05-24 16:11:00</time>
      </trkpt>
      <trkpt lat="40.82119" lon="0.48891">
        <ele>64.8</ele>
        <time>2022-05-24 16:11:01</time>
      </trkpt>
      <trkpt lat="40.82121" lon="0.48889">
        <ele>65</ele>
        <time>2022-05-24 16:11:02</time>
      </trkpt>
      <trkpt lat="40.82122" lon="0.48887">
        <ele>65</ele>
        <time>2022-05-24 16:11:03</time>
      </trkpt>
      <trkpt lat="40.82124" lon="0.48886">
        <ele>65.2</ele>
        <time>2022-05-24 16:11:04</time>
      </trkpt>
      <trkpt lat="40.82126" lon="0.48885">
        <ele>65.4</ele>
        <time>2022-05-24 16:11:05</time>
      </trkpt>
      <trkpt lat="40.82129" lon="0.48884">
        <ele>65.6</ele>
        <time>2022-05-24 16:11:06</time>
      </trkpt>
      <trkpt lat="40.82131" lon="0.48883">
        <ele>65.6</ele>
        <time>2022-05-24 16:11:07</time>
      </trkpt>
      <trkpt lat="40.82132" lon="0.48882">
        <ele>65.6</ele>
        <time>2022-05-24 16:11:08</time>
      </trkpt>
      <trkpt lat="40.82136" lon="0.4888">
        <ele>65.8</ele>
        <time>2022-05-24 16:11:09</time>
      </trkpt>
      <trkpt lat="40.82138" lon="0.4888">
        <ele>65.8</ele>
        <time>2022-05-24 16:11:10</time>
      </trkpt>
      <trkpt lat="40.82141" lon="0.48879">
        <ele>65.8</ele>
        <time>2022-05-24 16:11:11</time>
      </trkpt>
      <trkpt lat="40.82144" lon="0.48878">
        <ele>66</ele>
        <time>2022-05-24 16:11:12</time>
      </trkpt>
      <trkpt lat="40.82147" lon="0.48877">
        <ele>66</ele>
        <time>2022-05-24 16:11:13</time>
      </trkpt>
      <trkpt lat="40.8215" lon="0.48876">
        <ele>66</ele>
        <time>2022-05-24 16:11:14</time>
      </trkpt>
      <trkpt lat="40.82153" lon="0.48875">
        <ele>66</ele>
        <time>2022-05-24 16:11:15</time>
      </trkpt>
      <trkpt lat="40.82156" lon="0.48873">
        <ele>66</ele>
        <time>2022-05-24 16:11:16</time>
      </trkpt>
      <trkpt lat="40.82159" lon="0.48871">
        <ele>66.2</ele>
        <time>2022-05-24 16:11:17</time>
      </trkpt>
      <trkpt lat="40.82161" lon="0.4887">
        <ele>66.2</ele>
        <time>2022-05-24 16:11:18</time>
      </trkpt>
      <trkpt lat="40.82165" lon="0.48867">
        <ele>66.2</ele>
        <time>2022-05-24 16:11:19</time>
      </trkpt>
      <trkpt lat="40.82168" lon="0.48865">
        <ele>66.2</ele>
        <time>2022-05-24 16:11:20</time>
      </trkpt>
      <trkpt lat="40.82169" lon="0.48863">
        <ele>66.2</ele>
        <time>2022-05-24 16:11:21</time>
      </trkpt>
      <trkpt lat="40.82173" lon="0.4886">
        <ele>66.2</ele>
        <time>2022-05-24 16:11:22</time>
      </trkpt>
      <trkpt lat="40.82175" lon="0.48857">
        <ele>66.4</ele>
        <time>2022-05-24 16:11:23</time>
      </trkpt>
      <trkpt lat="40.82177" lon="0.48854">
        <ele>66.4</ele>
        <time>2022-05-24 16:11:24</time>
      </trkpt>
      <trkpt lat="40.82179" lon="0.4885">
        <ele>66.4</ele>
        <time>2022-05-24 16:11:25</time>
      </trkpt>
      <trkpt lat="40.8218" lon="0.48847">
        <ele>66.6</ele>
        <time>2022-05-24 16:11:26</time>
      </trkpt>
      <trkpt lat="40.82182" lon="0.48844">
        <ele>66.6</ele>
        <time>2022-05-24 16:11:27</time>
      </trkpt>
      <trkpt lat="40.82183" lon="0.48839">
        <ele>66.6</ele>
        <time>2022-05-24 16:11:28</time>
      </trkpt>
      <trkpt lat="40.82185" lon="0.48835">
        <ele>66.8</ele>
        <time>2022-05-24 16:11:29</time>
      </trkpt>
      <trkpt lat="40.82186" lon="0.48831">
        <ele>66.8</ele>
        <time>2022-05-24 16:11:30</time>
      </trkpt>
      <trkpt lat="40.82187" lon="0.48827">
        <ele>66.8</ele>
        <time>2022-05-24 16:11:31</time>
      </trkpt>
      <trkpt lat="40.82188" lon="0.48823">
        <ele>67</ele>
        <time>2022-05-24 16:11:32</time>
      </trkpt>
      <trkpt lat="40.8219" lon="0.48819">
        <ele>67</ele>
        <time>2022-05-24 16:11:33</time>
      </trkpt>
      <trkpt lat="40.82191" lon="0.48814">
        <ele>67</ele>
        <time>2022-05-24 16:11:34</time>
      </trkpt>
      <trkpt lat="40.82192" lon="0.4881">
        <ele>67.2</ele>
        <time>2022-05-24 16:11:35</time>
      </trkpt>
      <trkpt lat="40.82193" lon="0.48806">
        <ele>67.2</ele>
        <time>2022-05-24 16:11:36</time>
      </trkpt>
      <trkpt lat="40.82195" lon="0.48801">
        <ele>67.2</ele>
        <time>2022-05-24 16:11:37</time>
      </trkpt>
      <trkpt lat="40.82197" lon="0.48797">
        <ele>67.2</ele>
        <time>2022-05-24 16:11:38</time>
      </trkpt>
      <trkpt lat="40.82198" lon="0.48793">
        <ele>67.4</ele>
        <time>2022-05-24 16:11:39</time>
      </trkpt>
      <trkpt lat="40.82201" lon="0.48788">
        <ele>67.4</ele>
        <time>2022-05-24 16:11:40</time>
      </trkpt>
      <trkpt lat="40.82202" lon="0.48784">
        <ele>67.4</ele>
        <time>2022-05-24 16:11:41</time>
      </trkpt>
      <trkpt lat="40.82204" lon="0.48781">
        <ele>67.4</ele>
        <time>2022-05-24 16:11:42</time>
      </trkpt>
      <trkpt lat="40.82206" lon="0.48775">
        <ele>67.4</ele>
        <time>2022-05-24 16:11:43</time>
      </trkpt>
      <trkpt lat="40.82208" lon="0.4877">
        <ele>67.4</ele>
        <time>2022-05-24 16:11:44</time>
      </trkpt>
      <trkpt lat="40.82209" lon="0.48766">
        <ele>67.4</ele>
        <time>2022-05-24 16:11:45</time>
      </trkpt>
      <trkpt lat="40.82211" lon="0.4876">
        <ele>67.4</ele>
        <time>2022-05-24 16:11:46</time>
      </trkpt>
      <trkpt lat="40.82213" lon="0.48755">
        <ele>67.4</ele>
        <time>2022-05-24 16:11:47</time>
      </trkpt>
      <trkpt lat="40.82214" lon="0.4875">
        <ele>67.4</ele>
        <time>2022-05-24 16:11:48</time>
      </trkpt>
      <trkpt lat="40.82217" lon="0.48745">
        <ele>67.4</ele>
        <time>2022-05-24 16:11:49</time>
      </trkpt>
      <trkpt lat="40.82218" lon="0.4874">
        <ele>67.4</ele>
        <time>2022-05-24 16:11:50</time>
      </trkpt>
      <trkpt lat="40.82219" lon="0.48737">
        <ele>67.4</ele>
        <time>2022-05-24 16:11:51</time>
      </trkpt>
      <trkpt lat="40.82222" lon="0.4873">
        <ele>67.4</ele>
        <time>2022-05-24 16:11:52</time>
      </trkpt>
      <trkpt lat="40.82224" lon="0.48725">
        <ele>67.4</ele>
        <time>2022-05-24 16:11:53</time>
      </trkpt>
      <trkpt lat="40.82225" lon="0.4872">
        <ele>67.6</ele>
        <time>2022-05-24 16:11:54</time>
      </trkpt>
      <trkpt lat="40.82227" lon="0.48716">
        <ele>67.6</ele>
        <time>2022-05-24 16:11:55</time>
      </trkpt>
      <trkpt lat="40.82228" lon="0.48711">
        <ele>67.6</ele>
        <time>2022-05-24 16:11:56</time>
      </trkpt>
      <trkpt lat="40.82229" lon="0.48708">
        <ele>67.6</ele>
        <time>2022-05-24 16:11:57</time>
      </trkpt>
      <trkpt lat="40.82231" lon="0.48702">
        <ele>67.8</ele>
        <time>2022-05-24 16:11:58</time>
      </trkpt>
      <trkpt lat="40.82232" lon="0.48699">
        <ele>67.8</ele>
        <time>2022-05-24 16:11:59</time>
      </trkpt>
      <trkpt lat="40.82234" lon="0.48696">
        <ele>67.8</ele>
        <time>2022-05-24 16:12:00</time>
      </trkpt>
      <trkpt lat="40.82236" lon="0.48692">
        <ele>67.8</ele>
        <time>2022-05-24 16:12:01</time>
      </trkpt>
      <trkpt lat="40.82238" lon="0.48688">
        <ele>67.8</ele>
        <time>2022-05-24 16:12:02</time>
      </trkpt>
      <trkpt lat="40.8224" lon="0.48685">
        <ele>67.8</ele>
        <time>2022-05-24 16:12:03</time>
      </trkpt>
      <trkpt lat="40.82242" lon="0.4868">
        <ele>68</ele>
        <time>2022-05-24 16:12:04</time>
      </trkpt>
      <trkpt lat="40.82243" lon="0.48675">
        <ele>68</ele>
        <time>2022-05-24 16:12:05</time>
      </trkpt>
      <trkpt lat="40.82245" lon="0.48671">
        <ele>68</ele>
        <time>2022-05-24 16:12:06</time>
      </trkpt>
      <trkpt lat="40.82247" lon="0.48666">
        <ele>68</ele>
        <time>2022-05-24 16:12:07</time>
      </trkpt>
      <trkpt lat="40.82248" lon="0.48661">
        <ele>68</ele>
        <time>2022-05-24 16:12:08</time>
      </trkpt>
      <trkpt lat="40.8225" lon="0.48657">
        <ele>68.2</ele>
        <time>2022-05-24 16:12:09</time>
      </trkpt>
      <trkpt lat="40.82251" lon="0.48651">
        <ele>68.2</ele>
        <time>2022-05-24 16:12:10</time>
      </trkpt>
      <trkpt lat="40.82252" lon="0.48646">
        <ele>68.2</ele>
        <time>2022-05-24 16:12:11</time>
      </trkpt>
      <trkpt lat="40.82253" lon="0.48641">
        <ele>68.2</ele>
        <time>2022-05-24 16:12:12</time>
      </trkpt>
      <trkpt lat="40.82254" lon="0.48636">
        <ele>68.2</ele>
        <time>2022-05-24 16:12:13</time>
      </trkpt>
      <trkpt lat="40.82255" lon="0.48631">
        <ele>68.2</ele>
        <time>2022-05-24 16:12:14</time>
      </trkpt>
      <trkpt lat="40.82255" lon="0.48626">
        <ele>68.2</ele>
        <time>2022-05-24 16:12:15</time>
      </trkpt>
      <trkpt lat="40.82257" lon="0.4862">
        <ele>68.4</ele>
        <time>2022-05-24 16:12:16</time>
      </trkpt>
      <trkpt lat="40.82258" lon="0.48615">
        <ele>68.4</ele>
        <time>2022-05-24 16:12:17</time>
      </trkpt>
      <trkpt lat="40.82259" lon="0.4861">
        <ele>68.4</ele>
        <time>2022-05-24 16:12:18</time>
      </trkpt>
      <trkpt lat="40.82261" lon="0.48605">
        <ele>68.4</ele>
        <time>2022-05-24 16:12:19</time>
      </trkpt>
      <trkpt lat="40.82263" lon="0.486">
        <ele>68.4</ele>
        <time>2022-05-24 16:12:20</time>
      </trkpt>
      <trkpt lat="40.82264" lon="0.48595">
        <ele>68.4</ele>
        <time>2022-05-24 16:12:21</time>
      </trkpt>
      <trkpt lat="40.82266" lon="0.4859">
        <ele>68.4</ele>
        <time>2022-05-24 16:12:22</time>
      </trkpt>
      <trkpt lat="40.82268" lon="0.48586">
        <ele>68.6</ele>
        <time>2022-05-24 16:12:23</time>
      </trkpt>
      <trkpt lat="40.82269" lon="0.48581">
        <ele>68.6</ele>
        <time>2022-05-24 16:12:24</time>
      </trkpt>
      <trkpt lat="40.82271" lon="0.48577">
        <ele>68.8</ele>
        <time>2022-05-24 16:12:25</time>
      </trkpt>
      <trkpt lat="40.82273" lon="0.48573">
        <ele>69</ele>
        <time>2022-05-24 16:12:26</time>
      </trkpt>
      <trkpt lat="40.82275" lon="0.4857">
        <ele>69</ele>
        <time>2022-05-24 16:12:27</time>
      </trkpt>
      <trkpt lat="40.82278" lon="0.48565">
        <ele>69.2</ele>
        <time>2022-05-24 16:12:28</time>
      </trkpt>
      <trkpt lat="40.82281" lon="0.48561">
        <ele>69.2</ele>
        <time>2022-05-24 16:12:29</time>
      </trkpt>
      <trkpt lat="40.82283" lon="0.48557">
        <ele>69.2</ele>
        <time>2022-05-24 16:12:30</time>
      </trkpt>
      <trkpt lat="40.82285" lon="0.48553">
        <ele>69.4</ele>
        <time>2022-05-24 16:12:31</time>
      </trkpt>
      <trkpt lat="40.82286" lon="0.48548">
        <ele>69.4</ele>
        <time>2022-05-24 16:12:32</time>
      </trkpt>
      <trkpt lat="40.82287" lon="0.48545">
        <ele>69.6</ele>
        <time>2022-05-24 16:12:33</time>
      </trkpt>
      <trkpt lat="40.82288" lon="0.48538">
        <ele>69.8</ele>
        <time>2022-05-24 16:12:34</time>
      </trkpt>
      <trkpt lat="40.8229" lon="0.48533">
        <ele>69.8</ele>
        <time>2022-05-24 16:12:35</time>
      </trkpt>
      <trkpt lat="40.82291" lon="0.48528">
        <ele>69.8</ele>
        <time>2022-05-24 16:12:36</time>
      </trkpt>
      <trkpt lat="40.82294" lon="0.48522">
        <ele>70</ele>
        <time>2022-05-24 16:12:37</time>
      </trkpt>
      <trkpt lat="40.82295" lon="0.48518">
        <ele>70</ele>
        <time>2022-05-24 16:12:38</time>
      </trkpt>
      <trkpt lat="40.82298" lon="0.48512">
        <ele>70.2</ele>
        <time>2022-05-24 16:12:39</time>
      </trkpt>
      <trkpt lat="40.823" lon="0.48507">
        <ele>70.4</ele>
        <time>2022-05-24 16:12:40</time>
      </trkpt>
      <trkpt lat="40.82302" lon="0.48503">
        <ele>70.4</ele>
        <time>2022-05-24 16:12:41</time>
      </trkpt>
      <trkpt lat="40.82304" lon="0.48497">
        <ele>70.6</ele>
        <time>2022-05-24 16:12:42</time>
      </trkpt>
      <trkpt lat="40.82305" lon="0.48493">
        <ele>70.8</ele>
        <time>2022-05-24 16:12:43</time>
      </trkpt>
      <trkpt lat="40.82307" lon="0.48488">
        <ele>70.8</ele>
        <time>2022-05-24 16:12:44</time>
      </trkpt>
      <trkpt lat="40.82309" lon="0.48484">
        <ele>71</ele>
        <time>2022-05-24 16:12:45</time>
      </trkpt>
      <trkpt lat="40.8231" lon="0.48479">
        <ele>71</ele>
        <time>2022-05-24 16:12:46</time>
      </trkpt>
      <trkpt lat="40.82311" lon="0.48476">
        <ele>71.2</ele>
        <time>2022-05-24 16:12:47</time>
      </trkpt>
      <trkpt lat="40.82314" lon="0.4847">
        <ele>71.2</ele>
        <time>2022-05-24 16:12:48</time>
      </trkpt>
      <trkpt lat="40.82315" lon="0.48466">
        <ele>71.4</ele>
        <time>2022-05-24 16:12:49</time>
      </trkpt>
      <trkpt lat="40.82317" lon="0.48462">
        <ele>71.4</ele>
        <time>2022-05-24 16:12:50</time>
      </trkpt>
      <trkpt lat="40.82319" lon="0.48457">
        <ele>71.4</ele>
        <time>2022-05-24 16:12:51</time>
      </trkpt>
      <trkpt lat="40.82322" lon="0.48454">
        <ele>71.4</ele>
        <time>2022-05-24 16:12:52</time>
      </trkpt>
      <trkpt lat="40.82323" lon="0.48451">
        <ele>71.4</ele>
        <time>2022-05-24 16:12:53</time>
      </trkpt>
      <trkpt lat="40.82327" lon="0.48447">
        <ele>71.4</ele>
        <time>2022-05-24 16:12:54</time>
      </trkpt>
      <trkpt lat="40.8233" lon="0.48443">
        <ele>71.4</ele>
        <time>2022-05-24 16:12:55</time>
      </trkpt>
      <trkpt lat="40.82333" lon="0.4844">
        <ele>71.4</ele>
        <time>2022-05-24 16:12:56</time>
      </trkpt>
      <trkpt lat="40.82337" lon="0.48435">
        <ele>71.4</ele>
        <time>2022-05-24 16:12:57</time>
      </trkpt>
      <trkpt lat="40.8234" lon="0.48431">
        <ele>71.4</ele>
        <time>2022-05-24 16:12:58</time>
      </trkpt>
      <trkpt lat="40.82342" lon="0.48428">
        <ele>71.4</ele>
        <time>2022-05-24 16:12:59</time>
      </trkpt>
      <trkpt lat="40.82346" lon="0.48423">
        <ele>71.4</ele>
        <time>2022-05-24 16:13:00</time>
      </trkpt>
      <trkpt lat="40.82349" lon="0.48418">
        <ele>71.4</ele>
        <time>2022-05-24 16:13:01</time>
      </trkpt>
      <trkpt lat="40.82351" lon="0.48414">
        <ele>71.4</ele>
        <time>2022-05-24 16:13:02</time>
      </trkpt>
      <trkpt lat="40.82355" lon="0.4841">
        <ele>71.4</ele>
        <time>2022-05-24 16:13:03</time>
      </trkpt>
      <trkpt lat="40.82358" lon="0.48406">
        <ele>71.4</ele>
        <time>2022-05-24 16:13:04</time>
      </trkpt>
      <trkpt lat="40.8236" lon="0.48403">
        <ele>71.4</ele>
        <time>2022-05-24 16:13:05</time>
      </trkpt>
      <trkpt lat="40.82364" lon="0.48398">
        <ele>71.4</ele>
        <time>2022-05-24 16:13:06</time>
      </trkpt>
      <trkpt lat="40.82367" lon="0.48394">
        <ele>71.4</ele>
        <time>2022-05-24 16:13:07</time>
      </trkpt>
      <trkpt lat="40.8237" lon="0.48391">
        <ele>71.4</ele>
        <time>2022-05-24 16:13:08</time>
      </trkpt>
      <trkpt lat="40.82373" lon="0.48386">
        <ele>71.4</ele>
        <time>2022-05-24 16:13:09</time>
      </trkpt>
      <trkpt lat="40.82377" lon="0.48383">
        <ele>71.6</ele>
        <time>2022-05-24 16:13:10</time>
      </trkpt>
      <trkpt lat="40.8238" lon="0.48381">
        <ele>71.6</ele>
        <time>2022-05-24 16:13:11</time>
      </trkpt>
      <trkpt lat="40.82384" lon="0.48377">
        <ele>71.8</ele>
        <time>2022-05-24 16:13:12</time>
      </trkpt>
      <trkpt lat="40.82387" lon="0.48374">
        <ele>71.8</ele>
        <time>2022-05-24 16:13:13</time>
      </trkpt>
      <trkpt lat="40.8239" lon="0.48371">
        <ele>72</ele>
        <time>2022-05-24 16:13:14</time>
      </trkpt>
      <trkpt lat="40.82394" lon="0.48368">
        <ele>72</ele>
        <time>2022-05-24 16:13:15</time>
      </trkpt>
      <trkpt lat="40.82397" lon="0.48365">
        <ele>72</ele>
        <time>2022-05-24 16:13:16</time>
      </trkpt>
      <trkpt lat="40.82399" lon="0.48363">
        <ele>72.2</ele>
        <time>2022-05-24 16:13:17</time>
      </trkpt>
      <trkpt lat="40.82404" lon="0.48358">
        <ele>72.2</ele>
        <time>2022-05-24 16:13:18</time>
      </trkpt>
      <trkpt lat="40.82406" lon="0.48355">
        <ele>72.2</ele>
        <time>2022-05-24 16:13:19</time>
      </trkpt>
      <trkpt lat="40.82409" lon="0.48352">
        <ele>72.4</ele>
        <time>2022-05-24 16:13:20</time>
      </trkpt>
      <trkpt lat="40.82412" lon="0.48348">
        <ele>72.4</ele>
        <time>2022-05-24 16:13:21</time>
      </trkpt>
      <trkpt lat="40.82415" lon="0.48344">
        <ele>72.6</ele>
        <time>2022-05-24 16:13:22</time>
      </trkpt>
      <trkpt lat="40.82417" lon="0.4834">
        <ele>72.6</ele>
        <time>2022-05-24 16:13:23</time>
      </trkpt>
      <trkpt lat="40.82419" lon="0.48335">
        <ele>72.8</ele>
        <time>2022-05-24 16:13:24</time>
      </trkpt>
      <trkpt lat="40.8242" lon="0.48331">
        <ele>72.8</ele>
        <time>2022-05-24 16:13:25</time>
      </trkpt>
      <trkpt lat="40.82421" lon="0.48327">
        <ele>73</ele>
        <time>2022-05-24 16:13:26</time>
      </trkpt>
      <trkpt lat="40.82423" lon="0.48322">
        <ele>73</ele>
        <time>2022-05-24 16:13:27</time>
      </trkpt>
      <trkpt lat="40.82424" lon="0.48317">
        <ele>73.2</ele>
        <time>2022-05-24 16:13:28</time>
      </trkpt>
      <trkpt lat="40.82425" lon="0.48313">
        <ele>73.2</ele>
        <time>2022-05-24 16:13:29</time>
      </trkpt>
      <trkpt lat="40.82426" lon="0.48307">
        <ele>73.4</ele>
        <time>2022-05-24 16:13:30</time>
      </trkpt>
      <trkpt lat="40.82427" lon="0.48303">
        <ele>73.4</ele>
        <time>2022-05-24 16:13:31</time>
      </trkpt>
      <trkpt lat="40.82428" lon="0.48299">
        <ele>73.6</ele>
        <time>2022-05-24 16:13:32</time>
      </trkpt>
      <trkpt lat="40.8243" lon="0.48293">
        <ele>73.6</ele>
        <time>2022-05-24 16:13:33</time>
      </trkpt>
      <trkpt lat="40.82431" lon="0.48288">
        <ele>73.6</ele>
        <time>2022-05-24 16:13:34</time>
      </trkpt>
      <trkpt lat="40.82432" lon="0.48284">
        <ele>73.8</ele>
        <time>2022-05-24 16:13:35</time>
      </trkpt>
      <trkpt lat="40.82433" lon="0.48278">
        <ele>73.8</ele>
        <time>2022-05-24 16:13:36</time>
      </trkpt>
      <trkpt lat="40.82434" lon="0.48273">
        <ele>73.8</ele>
        <time>2022-05-24 16:13:37</time>
      </trkpt>
      <trkpt lat="40.82436" lon="0.48268">
        <ele>73.8</ele>
        <time>2022-05-24 16:13:38</time>
      </trkpt>
      <trkpt lat="40.82438" lon="0.48263">
        <ele>73.8</ele>
        <time>2022-05-24 16:13:39</time>
      </trkpt>
      <trkpt lat="40.82439" lon="0.48258">
        <ele>73.8</ele>
        <time>2022-05-24 16:13:40</time>
      </trkpt>
      <trkpt lat="40.8244" lon="0.48254">
        <ele>73.8</ele>
        <time>2022-05-24 16:13:41</time>
      </trkpt>
      <trkpt lat="40.82441" lon="0.48248">
        <ele>73.8</ele>
        <time>2022-05-24 16:13:42</time>
      </trkpt>
      <trkpt lat="40.82443" lon="0.48243">
        <ele>73.8</ele>
        <time>2022-05-24 16:13:43</time>
      </trkpt>
      <trkpt lat="40.82445" lon="0.48239">
        <ele>73.8</ele>
        <time>2022-05-24 16:13:44</time>
      </trkpt>
      <trkpt lat="40.82447" lon="0.48234">
        <ele>73.8</ele>
        <time>2022-05-24 16:13:45</time>
      </trkpt>
      <trkpt lat="40.82448" lon="0.48229">
        <ele>74</ele>
        <time>2022-05-24 16:13:46</time>
      </trkpt>
      <trkpt lat="40.82449" lon="0.48227">
        <ele>74</ele>
        <time>2022-05-24 16:13:47</time>
      </trkpt>
      <trkpt lat="40.82452" lon="0.4822">
        <ele>74</ele>
        <time>2022-05-24 16:13:48</time>
      </trkpt>
      <trkpt lat="40.82454" lon="0.48216">
        <ele>74</ele>
        <time>2022-05-24 16:13:49</time>
      </trkpt>
      <trkpt lat="40.82456" lon="0.48212">
        <ele>74</ele>
        <time>2022-05-24 16:13:50</time>
      </trkpt>
      <trkpt lat="40.82458" lon="0.48208">
        <ele>74</ele>
        <time>2022-05-24 16:13:51</time>
      </trkpt>
      <trkpt lat="40.82461" lon="0.48206">
        <ele>74</ele>
        <time>2022-05-24 16:13:52</time>
      </trkpt>
      <trkpt lat="40.82464" lon="0.48204">
        <ele>74</ele>
        <time>2022-05-24 16:13:53</time>
      </trkpt>
      <trkpt lat="40.82467" lon="0.48204">
        <ele>73.8</ele>
        <time>2022-05-24 16:13:54</time>
      </trkpt>
      <trkpt lat="40.8247" lon="0.48205">
        <ele>73.8</ele>
        <time>2022-05-24 16:13:55</time>
      </trkpt>
      <trkpt lat="40.82474" lon="0.48206">
        <ele>73.8</ele>
        <time>2022-05-24 16:13:56</time>
      </trkpt>
      <trkpt lat="40.82478" lon="0.48208">
        <ele>73.8</ele>
        <time>2022-05-24 16:13:57</time>
      </trkpt>
      <trkpt lat="40.82481" lon="0.48209">
        <ele>74</ele>
        <time>2022-05-24 16:13:58</time>
      </trkpt>
      <trkpt lat="40.82484" lon="0.4821">
        <ele>74</ele>
        <time>2022-05-24 16:13:59</time>
      </trkpt>
      <trkpt lat="40.82487" lon="0.48212">
        <ele>74</ele>
        <time>2022-05-24 16:14:00</time>
      </trkpt>
      <trkpt lat="40.8249" lon="0.48213">
        <ele>74</ele>
        <time>2022-05-24 16:14:01</time>
      </trkpt>
      <trkpt lat="40.82492" lon="0.48214">
        <ele>74</ele>
        <time>2022-05-24 16:14:02</time>
      </trkpt>
      <trkpt lat="40.82496" lon="0.48214">
        <ele>74.2</ele>
        <time>2022-05-24 16:14:03</time>
      </trkpt>
      <trkpt lat="40.82499" lon="0.48213">
        <ele>74.2</ele>
        <time>2022-05-24 16:14:04</time>
      </trkpt>
      <trkpt lat="40.82501" lon="0.48212">
        <ele>74.2</ele>
        <time>2022-05-24 16:14:05</time>
      </trkpt>
      <trkpt lat="40.82505" lon="0.48208">
        <ele>74.2</ele>
        <time>2022-05-24 16:14:06</time>
      </trkpt>
      <trkpt lat="40.82506" lon="0.48204">
        <ele>74.2</ele>
        <time>2022-05-24 16:14:07</time>
      </trkpt>
      <trkpt lat="40.82507" lon="0.482">
        <ele>74.2</ele>
        <time>2022-05-24 16:14:08</time>
      </trkpt>
      <trkpt lat="40.82508" lon="0.48194">
        <ele>74</ele>
        <time>2022-05-24 16:14:09</time>
      </trkpt>
      <trkpt lat="40.82508" lon="0.48189">
        <ele>74</ele>
        <time>2022-05-24 16:14:10</time>
      </trkpt>
      <trkpt lat="40.82509" lon="0.48184">
        <ele>74</ele>
        <time>2022-05-24 16:14:11</time>
      </trkpt>
      <trkpt lat="40.82509" lon="0.48176">
        <ele>74</ele>
        <time>2022-05-24 16:14:12</time>
      </trkpt>
      <trkpt lat="40.8251" lon="0.48172">
        <ele>74</ele>
        <time>2022-05-24 16:14:13</time>
      </trkpt>
      <trkpt lat="40.8251" lon="0.48164">
        <ele>74</ele>
        <time>2022-05-24 16:14:14</time>
      </trkpt>
      <trkpt lat="40.8251" lon="0.4816">
        <ele>74.2</ele>
        <time>2022-05-24 16:14:15</time>
      </trkpt>
      <trkpt lat="40.8251" lon="0.48152">
        <ele>74.2</ele>
        <time>2022-05-24 16:14:16</time>
      </trkpt>
      <trkpt lat="40.8251" lon="0.48147">
        <ele>74.2</ele>
        <time>2022-05-24 16:14:17</time>
      </trkpt>
      <trkpt lat="40.8251" lon="0.48142">
        <ele>74.2</ele>
        <time>2022-05-24 16:14:18</time>
      </trkpt>
      <trkpt lat="40.82511" lon="0.48135">
        <ele>74.4</ele>
        <time>2022-05-24 16:14:19</time>
      </trkpt>
      <trkpt lat="40.82511" lon="0.48129">
        <ele>74.4</ele>
        <time>2022-05-24 16:14:20</time>
      </trkpt>
      <trkpt lat="40.82511" lon="0.48124">
        <ele>74.4</ele>
        <time>2022-05-24 16:14:21</time>
      </trkpt>
      <trkpt lat="40.82512" lon="0.48117">
        <ele>74.6</ele>
        <time>2022-05-24 16:14:22</time>
      </trkpt>
      <trkpt lat="40.82512" lon="0.48112">
        <ele>74.6</ele>
        <time>2022-05-24 16:14:23</time>
      </trkpt>
      <trkpt lat="40.82512" lon="0.48105">
        <ele>74.6</ele>
        <time>2022-05-24 16:14:24</time>
      </trkpt>
      <trkpt lat="40.82513" lon="0.48099">
        <ele>74.6</ele>
        <time>2022-05-24 16:14:25</time>
      </trkpt>
      <trkpt lat="40.82513" lon="0.48094">
        <ele>74.8</ele>
        <time>2022-05-24 16:14:26</time>
      </trkpt>
      <trkpt lat="40.82514" lon="0.48087">
        <ele>74.8</ele>
        <time>2022-05-24 16:14:27</time>
      </trkpt>
      <trkpt lat="40.82515" lon="0.48082">
        <ele>74.8</ele>
        <time>2022-05-24 16:14:28</time>
      </trkpt>
      <trkpt lat="40.82516" lon="0.48075">
        <ele>75</ele>
        <time>2022-05-24 16:14:29</time>
      </trkpt>
      <trkpt lat="40.82517" lon="0.48071">
        <ele>75</ele>
        <time>2022-05-24 16:14:30</time>
      </trkpt>
      <trkpt lat="40.82518" lon="0.48063">
        <ele>75.2</ele>
        <time>2022-05-24 16:14:31</time>
      </trkpt>
      <trkpt lat="40.82519" lon="0.48058">
        <ele>75.2</ele>
        <time>2022-05-24 16:14:32</time>
      </trkpt>
      <trkpt lat="40.8252" lon="0.48052">
        <ele>75.4</ele>
        <time>2022-05-24 16:14:33</time>
      </trkpt>
      <trkpt lat="40.82521" lon="0.48046">
        <ele>75.4</ele>
        <time>2022-05-24 16:14:34</time>
      </trkpt>
      <trkpt lat="40.82522" lon="0.4804">
        <ele>75.6</ele>
        <time>2022-05-24 16:14:35</time>
      </trkpt>
      <trkpt lat="40.82523" lon="0.48035">
        <ele>75.6</ele>
        <time>2022-05-24 16:14:36</time>
      </trkpt>
      <trkpt lat="40.82525" lon="0.48029">
        <ele>75.8</ele>
        <time>2022-05-24 16:14:37</time>
      </trkpt>
      <trkpt lat="40.82526" lon="0.48023">
        <ele>75.8</ele>
        <time>2022-05-24 16:14:38</time>
      </trkpt>
      <trkpt lat="40.82527" lon="0.48019">
        <ele>76</ele>
        <time>2022-05-24 16:14:39</time>
      </trkpt>
      <trkpt lat="40.82528" lon="0.48012">
        <ele>76.2</ele>
        <time>2022-05-24 16:14:40</time>
      </trkpt>
      <trkpt lat="40.82529" lon="0.48007">
        <ele>76.2</ele>
        <time>2022-05-24 16:14:41</time>
      </trkpt>
      <trkpt lat="40.8253" lon="0.48002">
        <ele>76.4</ele>
        <time>2022-05-24 16:14:42</time>
      </trkpt>
      <trkpt lat="40.82531" lon="0.47996">
        <ele>76.6</ele>
        <time>2022-05-24 16:14:43</time>
      </trkpt>
      <trkpt lat="40.82532" lon="0.47991">
        <ele>76.6</ele>
        <time>2022-05-24 16:14:44</time>
      </trkpt>
      <trkpt lat="40.82533" lon="0.47986">
        <ele>76.8</ele>
        <time>2022-05-24 16:14:45</time>
      </trkpt>
      <trkpt lat="40.82534" lon="0.4798">
        <ele>76.8</ele>
        <time>2022-05-24 16:14:46</time>
      </trkpt>
      <trkpt lat="40.82535" lon="0.47974">
        <ele>77</ele>
        <time>2022-05-24 16:14:47</time>
      </trkpt>
      <trkpt lat="40.82536" lon="0.47969">
        <ele>77</ele>
        <time>2022-05-24 16:14:48</time>
      </trkpt>
      <trkpt lat="40.82537" lon="0.47963">
        <ele>77</ele>
        <time>2022-05-24 16:14:49</time>
      </trkpt>
      <trkpt lat="40.82538" lon="0.47957">
        <ele>77.2</ele>
        <time>2022-05-24 16:14:50</time>
      </trkpt>
      <trkpt lat="40.82538" lon="0.47953">
        <ele>77.2</ele>
        <time>2022-05-24 16:14:51</time>
      </trkpt>
      <trkpt lat="40.82539" lon="0.47945">
        <ele>77.2</ele>
        <time>2022-05-24 16:14:52</time>
      </trkpt>
      <trkpt lat="40.82539" lon="0.4794">
        <ele>77.2</ele>
        <time>2022-05-24 16:14:53</time>
      </trkpt>
      <trkpt lat="40.8254" lon="0.47934">
        <ele>77.4</ele>
        <time>2022-05-24 16:14:54</time>
      </trkpt>
      <trkpt lat="40.8254" lon="0.47928">
        <ele>77.4</ele>
        <time>2022-05-24 16:14:55</time>
      </trkpt>
      <trkpt lat="40.82541" lon="0.47922">
        <ele>77.4</ele>
        <time>2022-05-24 16:14:56</time>
      </trkpt>
      <trkpt lat="40.82541" lon="0.47916">
        <ele>77.4</ele>
        <time>2022-05-24 16:14:57</time>
      </trkpt>
      <trkpt lat="40.82541" lon="0.4791">
        <ele>77.6</ele>
        <time>2022-05-24 16:14:58</time>
      </trkpt>
      <trkpt lat="40.82541" lon="0.47905">
        <ele>77.6</ele>
        <time>2022-05-24 16:14:59</time>
      </trkpt>
      <trkpt lat="40.82541" lon="0.47899">
        <ele>77.6</ele>
        <time>2022-05-24 16:15:00</time>
      </trkpt>
      <trkpt lat="40.82541" lon="0.47893">
        <ele>77.8</ele>
        <time>2022-05-24 16:15:01</time>
      </trkpt>
      <trkpt lat="40.82542" lon="0.47887">
        <ele>78</ele>
        <time>2022-05-24 16:15:02</time>
      </trkpt>
      <trkpt lat="40.82542" lon="0.47883">
        <ele>78</ele>
        <time>2022-05-24 16:15:03</time>
      </trkpt>
      <trkpt lat="40.82542" lon="0.47875">
        <ele>78.2</ele>
        <time>2022-05-24 16:15:04</time>
      </trkpt>
      <trkpt lat="40.82542" lon="0.4787">
        <ele>78.2</ele>
        <time>2022-05-24 16:15:05</time>
      </trkpt>
      <trkpt lat="40.82542" lon="0.47865">
        <ele>78.4</ele>
        <time>2022-05-24 16:15:06</time>
      </trkpt>
      <trkpt lat="40.82542" lon="0.47858">
        <ele>78.6</ele>
        <time>2022-05-24 16:15:07</time>
      </trkpt>
      <trkpt lat="40.82543" lon="0.47853">
        <ele>78.6</ele>
        <time>2022-05-24 16:15:08</time>
      </trkpt>
      <trkpt lat="40.82543" lon="0.47847">
        <ele>78.8</ele>
        <time>2022-05-24 16:15:09</time>
      </trkpt>
      <trkpt lat="40.82543" lon="0.47841">
        <ele>78.8</ele>
        <time>2022-05-24 16:15:10</time>
      </trkpt>
      <trkpt lat="40.82543" lon="0.47836">
        <ele>78.8</ele>
        <time>2022-05-24 16:15:11</time>
      </trkpt>
      <trkpt lat="40.82543" lon="0.47831">
        <ele>79</ele>
        <time>2022-05-24 16:15:12</time>
      </trkpt>
      <trkpt lat="40.82544" lon="0.47825">
        <ele>79</ele>
        <time>2022-05-24 16:15:13</time>
      </trkpt>
      <trkpt lat="40.82544" lon="0.4782">
        <ele>79.2</ele>
        <time>2022-05-24 16:15:14</time>
      </trkpt>
      <trkpt lat="40.82544" lon="0.47814">
        <ele>79.2</ele>
        <time>2022-05-24 16:15:15</time>
      </trkpt>
      <trkpt lat="40.82544" lon="0.47809">
        <ele>79.4</ele>
        <time>2022-05-24 16:15:16</time>
      </trkpt>
      <trkpt lat="40.82544" lon="0.47804">
        <ele>79.4</ele>
        <time>2022-05-24 16:15:17</time>
      </trkpt>
      <trkpt lat="40.82544" lon="0.47798">
        <ele>79.6</ele>
        <time>2022-05-24 16:15:18</time>
      </trkpt>
      <trkpt lat="40.82544" lon="0.47793">
        <ele>79.6</ele>
        <time>2022-05-24 16:15:19</time>
      </trkpt>
      <trkpt lat="40.82544" lon="0.47787">
        <ele>79.8</ele>
        <time>2022-05-24 16:15:20</time>
      </trkpt>
      <trkpt lat="40.82544" lon="0.47782">
        <ele>79.8</ele>
        <time>2022-05-24 16:15:21</time>
      </trkpt>
      <trkpt lat="40.82545" lon="0.47776">
        <ele>80</ele>
        <time>2022-05-24 16:15:22</time>
      </trkpt>
      <trkpt lat="40.82545" lon="0.4777">
        <ele>80</ele>
        <time>2022-05-24 16:15:23</time>
      </trkpt>
      <trkpt lat="40.82545" lon="0.47764">
        <ele>80</ele>
        <time>2022-05-24 16:15:24</time>
      </trkpt>
      <trkpt lat="40.82545" lon="0.47758">
        <ele>80</ele>
        <time>2022-05-24 16:15:25</time>
      </trkpt>
      <trkpt lat="40.82545" lon="0.47752">
        <ele>80</ele>
        <time>2022-05-24 16:15:26</time>
      </trkpt>
      <trkpt lat="40.82545" lon="0.47747">
        <ele>80</ele>
        <time>2022-05-24 16:15:27</time>
      </trkpt>
      <trkpt lat="40.82545" lon="0.4774">
        <ele>80</ele>
        <time>2022-05-24 16:15:28</time>
      </trkpt>
      <trkpt lat="40.82545" lon="0.47734">
        <ele>80.2</ele>
        <time>2022-05-24 16:15:29</time>
      </trkpt>
      <trkpt lat="40.82545" lon="0.47729">
        <ele>80.2</ele>
        <time>2022-05-24 16:15:30</time>
      </trkpt>
      <trkpt lat="40.82545" lon="0.47722">
        <ele>80.2</ele>
        <time>2022-05-24 16:15:31</time>
      </trkpt>
      <trkpt lat="40.82546" lon="0.47716">
        <ele>80.2</ele>
        <time>2022-05-24 16:15:32</time>
      </trkpt>
      <trkpt lat="40.82546" lon="0.4771">
        <ele>80.2</ele>
        <time>2022-05-24 16:15:33</time>
      </trkpt>
      <trkpt lat="40.82546" lon="0.47704">
        <ele>80.2</ele>
        <time>2022-05-24 16:15:34</time>
      </trkpt>
      <trkpt lat="40.82546" lon="0.47698">
        <ele>80.2</ele>
        <time>2022-05-24 16:15:35</time>
      </trkpt>
      <trkpt lat="40.82546" lon="0.47693">
        <ele>80.2</ele>
        <time>2022-05-24 16:15:36</time>
      </trkpt>
      <trkpt lat="40.82547" lon="0.47686">
        <ele>80.2</ele>
        <time>2022-05-24 16:15:37</time>
      </trkpt>
      <trkpt lat="40.82547" lon="0.47681">
        <ele>80.2</ele>
        <time>2022-05-24 16:15:38</time>
      </trkpt>
      <trkpt lat="40.82548" lon="0.47674">
        <ele>80.2</ele>
        <time>2022-05-24 16:15:39</time>
      </trkpt>
      <trkpt lat="40.82549" lon="0.47669">
        <ele>80.2</ele>
        <time>2022-05-24 16:15:40</time>
      </trkpt>
      <trkpt lat="40.82549" lon="0.47662">
        <ele>80.2</ele>
        <time>2022-05-24 16:15:41</time>
      </trkpt>
      <trkpt lat="40.8255" lon="0.47657">
        <ele>80.4</ele>
        <time>2022-05-24 16:15:42</time>
      </trkpt>
      <trkpt lat="40.82552" lon="0.4765">
        <ele>80.4</ele>
        <time>2022-05-24 16:15:43</time>
      </trkpt>
      <trkpt lat="40.82553" lon="0.47645">
        <ele>80.4</ele>
        <time>2022-05-24 16:15:44</time>
      </trkpt>
      <trkpt lat="40.82554" lon="0.47638">
        <ele>80.4</ele>
        <time>2022-05-24 16:15:45</time>
      </trkpt>
      <trkpt lat="40.82555" lon="0.47632">
        <ele>80.4</ele>
        <time>2022-05-24 16:15:46</time>
      </trkpt>
      <trkpt lat="40.82557" lon="0.47626">
        <ele>80.4</ele>
        <time>2022-05-24 16:15:47</time>
      </trkpt>
      <trkpt lat="40.82558" lon="0.47621">
        <ele>80.4</ele>
        <time>2022-05-24 16:15:48</time>
      </trkpt>
      <trkpt lat="40.82559" lon="0.47615">
        <ele>80.4</ele>
        <time>2022-05-24 16:15:49</time>
      </trkpt>
      <trkpt lat="40.8256" lon="0.47609">
        <ele>80.6</ele>
        <time>2022-05-24 16:15:50</time>
      </trkpt>
      <trkpt lat="40.82561" lon="0.47604">
        <ele>80.6</ele>
        <time>2022-05-24 16:15:51</time>
      </trkpt>
      <trkpt lat="40.82562" lon="0.47599">
        <ele>80.8</ele>
        <time>2022-05-24 16:15:52</time>
      </trkpt>
      <trkpt lat="40.82563" lon="0.47594">
        <ele>80.8</ele>
        <time>2022-05-24 16:15:53</time>
      </trkpt>
      <trkpt lat="40.82564" lon="0.47587">
        <ele>81</ele>
        <time>2022-05-24 16:15:54</time>
      </trkpt>
      <trkpt lat="40.82565" lon="0.47582">
        <ele>81</ele>
        <time>2022-05-24 16:15:55</time>
      </trkpt>
      <trkpt lat="40.82566" lon="0.47576">
        <ele>81</ele>
        <time>2022-05-24 16:15:56</time>
      </trkpt>
      <trkpt lat="40.82567" lon="0.47571">
        <ele>81.2</ele>
        <time>2022-05-24 16:15:57</time>
      </trkpt>
      <trkpt lat="40.82568" lon="0.47565">
        <ele>81.2</ele>
        <time>2022-05-24 16:15:58</time>
      </trkpt>
      <trkpt lat="40.82568" lon="0.4756">
        <ele>81.2</ele>
        <time>2022-05-24 16:15:59</time>
      </trkpt>
      <trkpt lat="40.8257" lon="0.47554">
        <ele>81.4</ele>
        <time>2022-05-24 16:16:00</time>
      </trkpt>
      <trkpt lat="40.8257" lon="0.47548">
        <ele>81.4</ele>
        <time>2022-05-24 16:16:01</time>
      </trkpt>
      <trkpt lat="40.82571" lon="0.47542">
        <ele>81.6</ele>
        <time>2022-05-24 16:16:02</time>
      </trkpt>
      <trkpt lat="40.82571" lon="0.47537">
        <ele>81.6</ele>
        <time>2022-05-24 16:16:03</time>
      </trkpt>
      <trkpt lat="40.82572" lon="0.47531">
        <ele>81.6</ele>
        <time>2022-05-24 16:16:04</time>
      </trkpt>
      <trkpt lat="40.82573" lon="0.47526">
        <ele>81.6</ele>
        <time>2022-05-24 16:16:05</time>
      </trkpt>
      <trkpt lat="40.82573" lon="0.4752">
        <ele>81.8</ele>
        <time>2022-05-24 16:16:06</time>
      </trkpt>
      <trkpt lat="40.82574" lon="0.47515">
        <ele>81.8</ele>
        <time>2022-05-24 16:16:07</time>
      </trkpt>
      <trkpt lat="40.82574" lon="0.47509">
        <ele>82</ele>
        <time>2022-05-24 16:16:08</time>
      </trkpt>
      <trkpt lat="40.82575" lon="0.47504">
        <ele>82</ele>
        <time>2022-05-24 16:16:09</time>
      </trkpt>
      <trkpt lat="40.82576" lon="0.47498">
        <ele>82.2</ele>
        <time>2022-05-24 16:16:10</time>
      </trkpt>
      <trkpt lat="40.82577" lon="0.47494">
        <ele>82.2</ele>
        <time>2022-05-24 16:16:11</time>
      </trkpt>
      <trkpt lat="40.82578" lon="0.47487">
        <ele>82.2</ele>
        <time>2022-05-24 16:16:12</time>
      </trkpt>
      <trkpt lat="40.82578" lon="0.47482">
        <ele>82.4</ele>
        <time>2022-05-24 16:16:13</time>
      </trkpt>
      <trkpt lat="40.82579" lon="0.47476">
        <ele>82.4</ele>
        <time>2022-05-24 16:16:14</time>
      </trkpt>
      <trkpt lat="40.8258" lon="0.4747">
        <ele>82.4</ele>
        <time>2022-05-24 16:16:15</time>
      </trkpt>
      <trkpt lat="40.8258" lon="0.47465">
        <ele>82.6</ele>
        <time>2022-05-24 16:16:16</time>
      </trkpt>
      <trkpt lat="40.82581" lon="0.47461">
        <ele>82.6</ele>
        <time>2022-05-24 16:16:17</time>
      </trkpt>
      <trkpt lat="40.82582" lon="0.47454">
        <ele>82.8</ele>
        <time>2022-05-24 16:16:18</time>
      </trkpt>
      <trkpt lat="40.82582" lon="0.47448">
        <ele>82.8</ele>
        <time>2022-05-24 16:16:19</time>
      </trkpt>
      <trkpt lat="40.82583" lon="0.47443">
        <ele>82.8</ele>
        <time>2022-05-24 16:16:20</time>
      </trkpt>
      <trkpt lat="40.82584" lon="0.47437">
        <ele>83</ele>
        <time>2022-05-24 16:16:21</time>
      </trkpt>
      <trkpt lat="40.82584" lon="0.47432">
        <ele>83</ele>
        <time>2022-05-24 16:16:22</time>
      </trkpt>
      <trkpt lat="40.82585" lon="0.47427">
        <ele>83.2</ele>
        <time>2022-05-24 16:16:23</time>
      </trkpt>
      <trkpt lat="40.82586" lon="0.47419">
        <ele>83.2</ele>
        <time>2022-05-24 16:16:24</time>
      </trkpt>
      <trkpt lat="40.82587" lon="0.47414">
        <ele>83.4</ele>
        <time>2022-05-24 16:16:25</time>
      </trkpt>
      <trkpt lat="40.82588" lon="0.47408">
        <ele>83.6</ele>
        <time>2022-05-24 16:16:26</time>
      </trkpt>
      <trkpt lat="40.82589" lon="0.47401">
        <ele>83.6</ele>
        <time>2022-05-24 16:16:27</time>
      </trkpt>
      <trkpt lat="40.8259" lon="0.47396">
        <ele>83.8</ele>
        <time>2022-05-24 16:16:28</time>
      </trkpt>
      <trkpt lat="40.8259" lon="0.47391">
        <ele>83.8</ele>
        <time>2022-05-24 16:16:29</time>
      </trkpt>
      <trkpt lat="40.82591" lon="0.47384">
        <ele>84</ele>
        <time>2022-05-24 16:16:30</time>
      </trkpt>
      <trkpt lat="40.82592" lon="0.47378">
        <ele>84</ele>
        <time>2022-05-24 16:16:31</time>
      </trkpt>
      <trkpt lat="40.82593" lon="0.47373">
        <ele>84</ele>
        <time>2022-05-24 16:16:32</time>
      </trkpt>
      <trkpt lat="40.82594" lon="0.47366">
        <ele>84</ele>
        <time>2022-05-24 16:16:33</time>
      </trkpt>
      <trkpt lat="40.82594" lon="0.47361">
        <ele>84.2</ele>
        <time>2022-05-24 16:16:34</time>
      </trkpt>
      <trkpt lat="40.82595" lon="0.47354">
        <ele>84.2</ele>
        <time>2022-05-24 16:16:35</time>
      </trkpt>
      <trkpt lat="40.82596" lon="0.47348">
        <ele>84.4</ele>
        <time>2022-05-24 16:16:36</time>
      </trkpt>
      <trkpt lat="40.82596" lon="0.47342">
        <ele>84.4</ele>
        <time>2022-05-24 16:16:37</time>
      </trkpt>
      <trkpt lat="40.82597" lon="0.47337">
        <ele>84.4</ele>
        <time>2022-05-24 16:16:38</time>
      </trkpt>
      <trkpt lat="40.82598" lon="0.47331">
        <ele>84.6</ele>
        <time>2022-05-24 16:16:39</time>
      </trkpt>
      <trkpt lat="40.82598" lon="0.47326">
        <ele>84.6</ele>
        <time>2022-05-24 16:16:40</time>
      </trkpt>
      <trkpt lat="40.82599" lon="0.4732">
        <ele>84.6</ele>
        <time>2022-05-24 16:16:41</time>
      </trkpt>
      <trkpt lat="40.826" lon="0.47314">
        <ele>84.6</ele>
        <time>2022-05-24 16:16:42</time>
      </trkpt>
      <trkpt lat="40.826" lon="0.4731">
        <ele>84.6</ele>
        <time>2022-05-24 16:16:43</time>
      </trkpt>
      <trkpt lat="40.82601" lon="0.47304">
        <ele>84.6</ele>
        <time>2022-05-24 16:16:44</time>
      </trkpt>
      <trkpt lat="40.82602" lon="0.47299">
        <ele>84.6</ele>
        <time>2022-05-24 16:16:45</time>
      </trkpt>
      <trkpt lat="40.82602" lon="0.47294">
        <ele>84.8</ele>
        <time>2022-05-24 16:16:46</time>
      </trkpt>
      <trkpt lat="40.82603" lon="0.47288">
        <ele>84.8</ele>
        <time>2022-05-24 16:16:47</time>
      </trkpt>
      <trkpt lat="40.82603" lon="0.47283">
        <ele>84.8</ele>
        <time>2022-05-24 16:16:48</time>
      </trkpt>
      <trkpt lat="40.82604" lon="0.47279">
        <ele>84.8</ele>
        <time>2022-05-24 16:16:49</time>
      </trkpt>
      <trkpt lat="40.82605" lon="0.47272">
        <ele>85</ele>
        <time>2022-05-24 16:16:50</time>
      </trkpt>
      <trkpt lat="40.82605" lon="0.47267">
        <ele>85</ele>
        <time>2022-05-24 16:16:51</time>
      </trkpt>
      <trkpt lat="40.82606" lon="0.47262">
        <ele>85.2</ele>
        <time>2022-05-24 16:16:52</time>
      </trkpt>
      <trkpt lat="40.82607" lon="0.47256">
        <ele>85.2</ele>
        <time>2022-05-24 16:16:53</time>
      </trkpt>
      <trkpt lat="40.82607" lon="0.47251">
        <ele>85.4</ele>
        <time>2022-05-24 16:16:54</time>
      </trkpt>
      <trkpt lat="40.82608" lon="0.47248">
        <ele>85.4</ele>
        <time>2022-05-24 16:16:55</time>
      </trkpt>
      <trkpt lat="40.82608" lon="0.4724">
        <ele>85.4</ele>
        <time>2022-05-24 16:16:56</time>
      </trkpt>
      <trkpt lat="40.82609" lon="0.47235">
        <ele>85.6</ele>
        <time>2022-05-24 16:16:57</time>
      </trkpt>
      <trkpt lat="40.8261" lon="0.47231">
        <ele>85.6</ele>
        <time>2022-05-24 16:16:58</time>
      </trkpt>
      <trkpt lat="40.8261" lon="0.47224">
        <ele>85.8</ele>
        <time>2022-05-24 16:16:59</time>
      </trkpt>
      <trkpt lat="40.82611" lon="0.47219">
        <ele>86</ele>
        <time>2022-05-24 16:17:00</time>
      </trkpt>
      <trkpt lat="40.82612" lon="0.47217">
        <ele>86</ele>
        <time>2022-05-24 16:17:01</time>
      </trkpt>
      <trkpt lat="40.82613" lon="0.47209">
        <ele>86.2</ele>
        <time>2022-05-24 16:17:02</time>
      </trkpt>
      <trkpt lat="40.82614" lon="0.47204">
        <ele>86.2</ele>
        <time>2022-05-24 16:17:03</time>
      </trkpt>
      <trkpt lat="40.82615" lon="0.47198">
        <ele>86.2</ele>
        <time>2022-05-24 16:17:04</time>
      </trkpt>
      <trkpt lat="40.82616" lon="0.47193">
        <ele>86.2</ele>
        <time>2022-05-24 16:17:05</time>
      </trkpt>
      <trkpt lat="40.82617" lon="0.47187">
        <ele>86.2</ele>
        <time>2022-05-24 16:17:06</time>
      </trkpt>
      <trkpt lat="40.82618" lon="0.47182">
        <ele>86.2</ele>
        <time>2022-05-24 16:17:07</time>
      </trkpt>
      <trkpt lat="40.82619" lon="0.47177">
        <ele>86.4</ele>
        <time>2022-05-24 16:17:08</time>
      </trkpt>
      <trkpt lat="40.8262" lon="0.47172">
        <ele>86.4</ele>
        <time>2022-05-24 16:17:09</time>
      </trkpt>
      <trkpt lat="40.82621" lon="0.47167">
        <ele>86.6</ele>
        <time>2022-05-24 16:17:10</time>
      </trkpt>
      <trkpt lat="40.82623" lon="0.47162">
        <ele>86.6</ele>
        <time>2022-05-24 16:17:11</time>
      </trkpt>
      <trkpt lat="40.82624" lon="0.47157">
        <ele>86.8</ele>
        <time>2022-05-24 16:17:12</time>
      </trkpt>
      <trkpt lat="40.82624" lon="0.47152">
        <ele>86.8</ele>
        <time>2022-05-24 16:17:13</time>
      </trkpt>
      <trkpt lat="40.82625" lon="0.47147">
        <ele>87</ele>
        <time>2022-05-24 16:17:14</time>
      </trkpt>
      <trkpt lat="40.82626" lon="0.47142">
        <ele>87</ele>
        <time>2022-05-24 16:17:15</time>
      </trkpt>
      <trkpt lat="40.82627" lon="0.47137">
        <ele>87</ele>
        <time>2022-05-24 16:17:16</time>
      </trkpt>
      <trkpt lat="40.82628" lon="0.47132">
        <ele>87</ele>
        <time>2022-05-24 16:17:17</time>
      </trkpt>
      <trkpt lat="40.82629" lon="0.47127">
        <ele>87</ele>
        <time>2022-05-24 16:17:18</time>
      </trkpt>
      <trkpt lat="40.8263" lon="0.47123">
        <ele>87.2</ele>
        <time>2022-05-24 16:17:19</time>
      </trkpt>
      <trkpt lat="40.82631" lon="0.47118">
        <ele>87.2</ele>
        <time>2022-05-24 16:17:20</time>
      </trkpt>
      <trkpt lat="40.82632" lon="0.47113">
        <ele>87.4</ele>
        <time>2022-05-24 16:17:21</time>
      </trkpt>
      <trkpt lat="40.82633" lon="0.47109">
        <ele>87.4</ele>
        <time>2022-05-24 16:17:22</time>
      </trkpt>
      <trkpt lat="40.82634" lon="0.47104">
        <ele>87.4</ele>
        <time>2022-05-24 16:17:23</time>
      </trkpt>
      <trkpt lat="40.82635" lon="0.47099">
        <ele>87.6</ele>
        <time>2022-05-24 16:17:24</time>
      </trkpt>
      <trkpt lat="40.82636" lon="0.47094">
        <ele>87.6</ele>
        <time>2022-05-24 16:17:25</time>
      </trkpt>
      <trkpt lat="40.82637" lon="0.47089">
        <ele>87.6</ele>
        <time>2022-05-24 16:17:26</time>
      </trkpt>
      <trkpt lat="40.82638" lon="0.47084">
        <ele>87.8</ele>
        <time>2022-05-24 16:17:27</time>
      </trkpt>
      <trkpt lat="40.82638" lon="0.47079">
        <ele>87.8</ele>
        <time>2022-05-24 16:17:28</time>
      </trkpt>
      <trkpt lat="40.82639" lon="0.47074">
        <ele>87.8</ele>
        <time>2022-05-24 16:17:29</time>
      </trkpt>
      <trkpt lat="40.82641" lon="0.47069">
        <ele>88</ele>
        <time>2022-05-24 16:17:30</time>
      </trkpt>
      <trkpt lat="40.82642" lon="0.47064">
        <ele>88</ele>
        <time>2022-05-24 16:17:31</time>
      </trkpt>
      <trkpt lat="40.82644" lon="0.47059">
        <ele>88</ele>
        <time>2022-05-24 16:17:32</time>
      </trkpt>
      <trkpt lat="40.82645" lon="0.47054">
        <ele>88</ele>
        <time>2022-05-24 16:17:33</time>
      </trkpt>
      <trkpt lat="40.82645" lon="0.47049">
        <ele>88</ele>
        <time>2022-05-24 16:17:34</time>
      </trkpt>
      <trkpt lat="40.82646" lon="0.47044">
        <ele>88</ele>
        <time>2022-05-24 16:17:35</time>
      </trkpt>
      <trkpt lat="40.82647" lon="0.47039">
        <ele>88.2</ele>
        <time>2022-05-24 16:17:36</time>
      </trkpt>
      <trkpt lat="40.82648" lon="0.47034">
        <ele>88.2</ele>
        <time>2022-05-24 16:17:37</time>
      </trkpt>
      <trkpt lat="40.82649" lon="0.4703">
        <ele>88.2</ele>
        <time>2022-05-24 16:17:38</time>
      </trkpt>
      <trkpt lat="40.8265" lon="0.47024">
        <ele>88.4</ele>
        <time>2022-05-24 16:17:39</time>
      </trkpt>
      <trkpt lat="40.82651" lon="0.47019">
        <ele>88.4</ele>
        <time>2022-05-24 16:17:40</time>
      </trkpt>
      <trkpt lat="40.82652" lon="0.47013">
        <ele>88.4</ele>
        <time>2022-05-24 16:17:41</time>
      </trkpt>
      <trkpt lat="40.82652" lon="0.47007">
        <ele>88.4</ele>
        <time>2022-05-24 16:17:42</time>
      </trkpt>
      <trkpt lat="40.82652" lon="0.47001">
        <ele>88.6</ele>
        <time>2022-05-24 16:17:43</time>
      </trkpt>
      <trkpt lat="40.82652" lon="0.46995">
        <ele>88.6</ele>
        <time>2022-05-24 16:17:44</time>
      </trkpt>
      <trkpt lat="40.82653" lon="0.46989">
        <ele>88.6</ele>
        <time>2022-05-24 16:17:45</time>
      </trkpt>
      <trkpt lat="40.82653" lon="0.46982">
        <ele>88.6</ele>
        <time>2022-05-24 16:17:46</time>
      </trkpt>
      <trkpt lat="40.82652" lon="0.46976">
        <ele>88.6</ele>
        <time>2022-05-24 16:17:47</time>
      </trkpt>
      <trkpt lat="40.82653" lon="0.4697">
        <ele>88.6</ele>
        <time>2022-05-24 16:17:48</time>
      </trkpt>
      <trkpt lat="40.82653" lon="0.46964">
        <ele>88.8</ele>
        <time>2022-05-24 16:17:49</time>
      </trkpt>
      <trkpt lat="40.82653" lon="0.46958">
        <ele>88.8</ele>
        <time>2022-05-24 16:17:50</time>
      </trkpt>
      <trkpt lat="40.82653" lon="0.46952">
        <ele>88.8</ele>
        <time>2022-05-24 16:17:51</time>
      </trkpt>
      <trkpt lat="40.82652" lon="0.46946">
        <ele>88.8</ele>
        <time>2022-05-24 16:17:52</time>
      </trkpt>
      <trkpt lat="40.82652" lon="0.4694">
        <ele>89</ele>
        <time>2022-05-24 16:17:53</time>
      </trkpt>
      <trkpt lat="40.82652" lon="0.46935">
        <ele>89</ele>
        <time>2022-05-24 16:17:54</time>
      </trkpt>
      <trkpt lat="40.82652" lon="0.46929">
        <ele>89</ele>
        <time>2022-05-24 16:17:55</time>
      </trkpt>
      <trkpt lat="40.82651" lon="0.46923">
        <ele>89.2</ele>
        <time>2022-05-24 16:17:56</time>
      </trkpt>
      <trkpt lat="40.8265" lon="0.46918">
        <ele>89.2</ele>
        <time>2022-05-24 16:17:57</time>
      </trkpt>
      <trkpt lat="40.8265" lon="0.46913">
        <ele>89.4</ele>
        <time>2022-05-24 16:17:58</time>
      </trkpt>
      <trkpt lat="40.8265" lon="0.46907">
        <ele>89.6</ele>
        <time>2022-05-24 16:17:59</time>
      </trkpt>
      <trkpt lat="40.8265" lon="0.46902">
        <ele>89.6</ele>
        <time>2022-05-24 16:18:00</time>
      </trkpt>
      <trkpt lat="40.82649" lon="0.46896">
        <ele>89.6</ele>
        <time>2022-05-24 16:18:01</time>
      </trkpt>
      <trkpt lat="40.82648" lon="0.46891">
        <ele>89.8</ele>
        <time>2022-05-24 16:18:02</time>
      </trkpt>
      <trkpt lat="40.82648" lon="0.46885">
        <ele>90</ele>
        <time>2022-05-24 16:18:03</time>
      </trkpt>
      <trkpt lat="40.82648" lon="0.46879">
        <ele>90</ele>
        <time>2022-05-24 16:18:04</time>
      </trkpt>
      <trkpt lat="40.82647" lon="0.46874">
        <ele>90</ele>
        <time>2022-05-24 16:18:05</time>
      </trkpt>
      <trkpt lat="40.82647" lon="0.46869">
        <ele>90</ele>
        <time>2022-05-24 16:18:06</time>
      </trkpt>
      <trkpt lat="40.82647" lon="0.46863">
        <ele>90.2</ele>
        <time>2022-05-24 16:18:07</time>
      </trkpt>
      <trkpt lat="40.82647" lon="0.46858">
        <ele>90.2</ele>
        <time>2022-05-24 16:18:08</time>
      </trkpt>
      <trkpt lat="40.82646" lon="0.46852">
        <ele>90.4</ele>
        <time>2022-05-24 16:18:09</time>
      </trkpt>
      <trkpt lat="40.82646" lon="0.46847">
        <ele>90.4</ele>
        <time>2022-05-24 16:18:10</time>
      </trkpt>
      <trkpt lat="40.82646" lon="0.46841">
        <ele>90.4</ele>
        <time>2022-05-24 16:18:11</time>
      </trkpt>
      <trkpt lat="40.82645" lon="0.46836">
        <ele>90.6</ele>
        <time>2022-05-24 16:18:12</time>
      </trkpt>
      <trkpt lat="40.82645" lon="0.4683">
        <ele>90.6</ele>
        <time>2022-05-24 16:18:13</time>
      </trkpt>
      <trkpt lat="40.82645" lon="0.46825">
        <ele>90.6</ele>
        <time>2022-05-24 16:18:14</time>
      </trkpt>
      <trkpt lat="40.82645" lon="0.4682">
        <ele>90.8</ele>
        <time>2022-05-24 16:18:15</time>
      </trkpt>
      <trkpt lat="40.82644" lon="0.46814">
        <ele>90.8</ele>
        <time>2022-05-24 16:18:16</time>
      </trkpt>
      <trkpt lat="40.82644" lon="0.46808">
        <ele>90.8</ele>
        <time>2022-05-24 16:18:17</time>
      </trkpt>
      <trkpt lat="40.82644" lon="0.46803">
        <ele>91</ele>
        <time>2022-05-24 16:18:18</time>
      </trkpt>
      <trkpt lat="40.82643" lon="0.46797">
        <ele>91</ele>
        <time>2022-05-24 16:18:19</time>
      </trkpt>
      <trkpt lat="40.82643" lon="0.46792">
        <ele>91</ele>
        <time>2022-05-24 16:18:20</time>
      </trkpt>
      <trkpt lat="40.82643" lon="0.46786">
        <ele>91.2</ele>
        <time>2022-05-24 16:18:21</time>
      </trkpt>
      <trkpt lat="40.82642" lon="0.4678">
        <ele>91.2</ele>
        <time>2022-05-24 16:18:22</time>
      </trkpt>
      <trkpt lat="40.82642" lon="0.46775">
        <ele>91.2</ele>
        <time>2022-05-24 16:18:23</time>
      </trkpt>
      <trkpt lat="40.82642" lon="0.46769">
        <ele>91.2</ele>
        <time>2022-05-24 16:18:24</time>
      </trkpt>
      <trkpt lat="40.82641" lon="0.46763">
        <ele>91.4</ele>
        <time>2022-05-24 16:18:25</time>
      </trkpt>
      <trkpt lat="40.82641" lon="0.46757">
        <ele>91.4</ele>
        <time>2022-05-24 16:18:26</time>
      </trkpt>
      <trkpt lat="40.82641" lon="0.46752">
        <ele>91.4</ele>
        <time>2022-05-24 16:18:27</time>
      </trkpt>
      <trkpt lat="40.82641" lon="0.46746">
        <ele>91.4</ele>
        <time>2022-05-24 16:18:28</time>
      </trkpt>
      <trkpt lat="40.8264" lon="0.46741">
        <ele>91.4</ele>
        <time>2022-05-24 16:18:29</time>
      </trkpt>
      <trkpt lat="40.8264" lon="0.46735">
        <ele>91.4</ele>
        <time>2022-05-24 16:18:30</time>
      </trkpt>
      <trkpt lat="40.82639" lon="0.46729">
        <ele>91.4</ele>
        <time>2022-05-24 16:18:31</time>
      </trkpt>
      <trkpt lat="40.82639" lon="0.46724">
        <ele>91.4</ele>
        <time>2022-05-24 16:18:32</time>
      </trkpt>
      <trkpt lat="40.82639" lon="0.46718">
        <ele>91.6</ele>
        <time>2022-05-24 16:18:33</time>
      </trkpt>
      <trkpt lat="40.82638" lon="0.46713">
        <ele>91.6</ele>
        <time>2022-05-24 16:18:34</time>
      </trkpt>
      <trkpt lat="40.82638" lon="0.46707">
        <ele>91.6</ele>
        <time>2022-05-24 16:18:35</time>
      </trkpt>
      <trkpt lat="40.82638" lon="0.46702">
        <ele>91.6</ele>
        <time>2022-05-24 16:18:36</time>
      </trkpt>
      <trkpt lat="40.82638" lon="0.46696">
        <ele>91.6</ele>
        <time>2022-05-24 16:18:37</time>
      </trkpt>
      <trkpt lat="40.82638" lon="0.46691">
        <ele>91.8</ele>
        <time>2022-05-24 16:18:38</time>
      </trkpt>
      <trkpt lat="40.82637" lon="0.46685">
        <ele>91.8</ele>
        <time>2022-05-24 16:18:39</time>
      </trkpt>
      <trkpt lat="40.82637" lon="0.4668">
        <ele>91.8</ele>
        <time>2022-05-24 16:18:40</time>
      </trkpt>
      <trkpt lat="40.82636" lon="0.46674">
        <ele>91.8</ele>
        <time>2022-05-24 16:18:41</time>
      </trkpt>
      <trkpt lat="40.82636" lon="0.46668">
        <ele>92</ele>
        <time>2022-05-24 16:18:42</time>
      </trkpt>
      <trkpt lat="40.82635" lon="0.46663">
        <ele>92</ele>
        <time>2022-05-24 16:18:43</time>
      </trkpt>
      <trkpt lat="40.82635" lon="0.46658">
        <ele>92</ele>
        <time>2022-05-24 16:18:44</time>
      </trkpt>
      <trkpt lat="40.82635" lon="0.46653">
        <ele>92.2</ele>
        <time>2022-05-24 16:18:45</time>
      </trkpt>
      <trkpt lat="40.82635" lon="0.46648">
        <ele>92.2</ele>
        <time>2022-05-24 16:18:46</time>
      </trkpt>
      <trkpt lat="40.82634" lon="0.46643">
        <ele>92.2</ele>
        <time>2022-05-24 16:18:47</time>
      </trkpt>
      <trkpt lat="40.82634" lon="0.46637">
        <ele>92.2</ele>
        <time>2022-05-24 16:18:48</time>
      </trkpt>
      <trkpt lat="40.82634" lon="0.46632">
        <ele>92.2</ele>
        <time>2022-05-24 16:18:49</time>
      </trkpt>
      <trkpt lat="40.82633" lon="0.46627">
        <ele>92.2</ele>
        <time>2022-05-24 16:18:50</time>
      </trkpt>
      <trkpt lat="40.82633" lon="0.46621">
        <ele>92.4</ele>
        <time>2022-05-24 16:18:51</time>
      </trkpt>
      <trkpt lat="40.82633" lon="0.46616">
        <ele>92.4</ele>
        <time>2022-05-24 16:18:52</time>
      </trkpt>
      <trkpt lat="40.82632" lon="0.4661">
        <ele>92.4</ele>
        <time>2022-05-24 16:18:53</time>
      </trkpt>
      <trkpt lat="40.82632" lon="0.46604">
        <ele>92.4</ele>
        <time>2022-05-24 16:18:54</time>
      </trkpt>
      <trkpt lat="40.82632" lon="0.46598">
        <ele>92.4</ele>
        <time>2022-05-24 16:18:55</time>
      </trkpt>
      <trkpt lat="40.82631" lon="0.46593">
        <ele>92.4</ele>
        <time>2022-05-24 16:18:56</time>
      </trkpt>
      <trkpt lat="40.82631" lon="0.46587">
        <ele>92.4</ele>
        <time>2022-05-24 16:18:57</time>
      </trkpt>
      <trkpt lat="40.82631" lon="0.46581">
        <ele>92.6</ele>
        <time>2022-05-24 16:18:58</time>
      </trkpt>
      <trkpt lat="40.82631" lon="0.46575">
        <ele>92.6</ele>
        <time>2022-05-24 16:18:59</time>
      </trkpt>
      <trkpt lat="40.8263" lon="0.4657">
        <ele>92.6</ele>
        <time>2022-05-24 16:19:00</time>
      </trkpt>
      <trkpt lat="40.8263" lon="0.46564">
        <ele>92.6</ele>
        <time>2022-05-24 16:19:01</time>
      </trkpt>
      <trkpt lat="40.8263" lon="0.46559">
        <ele>92.6</ele>
        <time>2022-05-24 16:19:02</time>
      </trkpt>
      <trkpt lat="40.8263" lon="0.46554">
        <ele>92.8</ele>
        <time>2022-05-24 16:19:03</time>
      </trkpt>
      <trkpt lat="40.8263" lon="0.46548">
        <ele>92.8</ele>
        <time>2022-05-24 16:19:04</time>
      </trkpt>
      <trkpt lat="40.82629" lon="0.46543">
        <ele>92.8</ele>
        <time>2022-05-24 16:19:05</time>
      </trkpt>
      <trkpt lat="40.82629" lon="0.46538">
        <ele>92.8</ele>
        <time>2022-05-24 16:19:06</time>
      </trkpt>
      <trkpt lat="40.82629" lon="0.46533">
        <ele>93</ele>
        <time>2022-05-24 16:19:07</time>
      </trkpt>
      <trkpt lat="40.82629" lon="0.46528">
        <ele>93</ele>
        <time>2022-05-24 16:19:08</time>
      </trkpt>
      <trkpt lat="40.8263" lon="0.46522">
        <ele>93</ele>
        <time>2022-05-24 16:19:09</time>
      </trkpt>
      <trkpt lat="40.82631" lon="0.46517">
        <ele>93</ele>
        <time>2022-05-24 16:19:10</time>
      </trkpt>
      <trkpt lat="40.82631" lon="0.46512">
        <ele>93</ele>
        <time>2022-05-24 16:19:11</time>
      </trkpt>
      <trkpt lat="40.82632" lon="0.46506">
        <ele>93</ele>
        <time>2022-05-24 16:19:12</time>
      </trkpt>
      <trkpt lat="40.82632" lon="0.46501">
        <ele>93</ele>
        <time>2022-05-24 16:19:13</time>
      </trkpt>
      <trkpt lat="40.82632" lon="0.46495">
        <ele>93</ele>
        <time>2022-05-24 16:19:14</time>
      </trkpt>
      <trkpt lat="40.82632" lon="0.46489">
        <ele>93.2</ele>
        <time>2022-05-24 16:19:15</time>
      </trkpt>
      <trkpt lat="40.82632" lon="0.46483">
        <ele>93.2</ele>
        <time>2022-05-24 16:19:16</time>
      </trkpt>
      <trkpt lat="40.82632" lon="0.46478">
        <ele>93.2</ele>
        <time>2022-05-24 16:19:17</time>
      </trkpt>
      <trkpt lat="40.82632" lon="0.46472">
        <ele>93.2</ele>
        <time>2022-05-24 16:19:18</time>
      </trkpt>
      <trkpt lat="40.82631" lon="0.46466">
        <ele>93.2</ele>
        <time>2022-05-24 16:19:19</time>
      </trkpt>
      <trkpt lat="40.82631" lon="0.46461">
        <ele>93.2</ele>
        <time>2022-05-24 16:19:20</time>
      </trkpt>
      <trkpt lat="40.82631" lon="0.46455">
        <ele>93.4</ele>
        <time>2022-05-24 16:19:21</time>
      </trkpt>
      <trkpt lat="40.82631" lon="0.46449">
        <ele>93.4</ele>
        <time>2022-05-24 16:19:22</time>
      </trkpt>
      <trkpt lat="40.82631" lon="0.46444">
        <ele>93.4</ele>
        <time>2022-05-24 16:19:23</time>
      </trkpt>
      <trkpt lat="40.82631" lon="0.46438">
        <ele>93.4</ele>
        <time>2022-05-24 16:19:24</time>
      </trkpt>
      <trkpt lat="40.82631" lon="0.46432">
        <ele>93.6</ele>
        <time>2022-05-24 16:19:25</time>
      </trkpt>
      <trkpt lat="40.82631" lon="0.46426">
        <ele>93.6</ele>
        <time>2022-05-24 16:19:26</time>
      </trkpt>
      <trkpt lat="40.82631" lon="0.46421">
        <ele>93.6</ele>
        <time>2022-05-24 16:19:27</time>
      </trkpt>
      <trkpt lat="40.82632" lon="0.46415">
        <ele>93.8</ele>
        <time>2022-05-24 16:19:28</time>
      </trkpt>
      <trkpt lat="40.82632" lon="0.46409">
        <ele>93.8</ele>
        <time>2022-05-24 16:19:29</time>
      </trkpt>
      <trkpt lat="40.82632" lon="0.46404">
        <ele>93.8</ele>
        <time>2022-05-24 16:19:30</time>
      </trkpt>
      <trkpt lat="40.82632" lon="0.46398">
        <ele>93.8</ele>
        <time>2022-05-24 16:19:31</time>
      </trkpt>
      <trkpt lat="40.82632" lon="0.46392">
        <ele>93.8</ele>
        <time>2022-05-24 16:19:32</time>
      </trkpt>
      <trkpt lat="40.82632" lon="0.46386">
        <ele>94</ele>
        <time>2022-05-24 16:19:33</time>
      </trkpt>
      <trkpt lat="40.82633" lon="0.4638">
        <ele>94</ele>
        <time>2022-05-24 16:19:34</time>
      </trkpt>
      <trkpt lat="40.82634" lon="0.46375">
        <ele>94</ele>
        <time>2022-05-24 16:19:35</time>
      </trkpt>
      <trkpt lat="40.82634" lon="0.46369">
        <ele>94.2</ele>
        <time>2022-05-24 16:19:36</time>
      </trkpt>
      <trkpt lat="40.82634" lon="0.46363">
        <ele>94.2</ele>
        <time>2022-05-24 16:19:37</time>
      </trkpt>
      <trkpt lat="40.82635" lon="0.46357">
        <ele>94.2</ele>
        <time>2022-05-24 16:19:38</time>
      </trkpt>
      <trkpt lat="40.82635" lon="0.46352">
        <ele>94.4</ele>
        <time>2022-05-24 16:19:39</time>
      </trkpt>
      <trkpt lat="40.82635" lon="0.46346">
        <ele>94.6</ele>
        <time>2022-05-24 16:19:40</time>
      </trkpt>
      <trkpt lat="40.82636" lon="0.4634">
        <ele>94.6</ele>
        <time>2022-05-24 16:19:41</time>
      </trkpt>
      <trkpt lat="40.82636" lon="0.46334">
        <ele>94.8</ele>
        <time>2022-05-24 16:19:42</time>
      </trkpt>
      <trkpt lat="40.82636" lon="0.46328">
        <ele>94.8</ele>
        <time>2022-05-24 16:19:43</time>
      </trkpt>
      <trkpt lat="40.82636" lon="0.46323">
        <ele>94.8</ele>
        <time>2022-05-24 16:19:44</time>
      </trkpt>
      <trkpt lat="40.82636" lon="0.46317">
        <ele>94.8</ele>
        <time>2022-05-24 16:19:45</time>
      </trkpt>
      <trkpt lat="40.82636" lon="0.46311">
        <ele>95</ele>
        <time>2022-05-24 16:19:46</time>
      </trkpt>
      <trkpt lat="40.82636" lon="0.46306">
        <ele>95</ele>
        <time>2022-05-24 16:19:47</time>
      </trkpt>
      <trkpt lat="40.82636" lon="0.463">
        <ele>95.2</ele>
        <time>2022-05-24 16:19:48</time>
      </trkpt>
      <trkpt lat="40.82635" lon="0.46295">
        <ele>95.2</ele>
        <time>2022-05-24 16:19:49</time>
      </trkpt>
      <trkpt lat="40.82635" lon="0.46289">
        <ele>95.4</ele>
        <time>2022-05-24 16:19:50</time>
      </trkpt>
      <trkpt lat="40.82634" lon="0.46283">
        <ele>95.4</ele>
        <time>2022-05-24 16:19:51</time>
      </trkpt>
      <trkpt lat="40.82634" lon="0.46277">
        <ele>95.4</ele>
        <time>2022-05-24 16:19:52</time>
      </trkpt>
      <trkpt lat="40.82633" lon="0.46271">
        <ele>95.4</ele>
        <time>2022-05-24 16:19:53</time>
      </trkpt>
      <trkpt lat="40.82632" lon="0.46265">
        <ele>95.6</ele>
        <time>2022-05-24 16:19:54</time>
      </trkpt>
      <trkpt lat="40.82632" lon="0.4626">
        <ele>95.4</ele>
        <time>2022-05-24 16:19:55</time>
      </trkpt>
      <trkpt lat="40.82631" lon="0.46254">
        <ele>95.4</ele>
        <time>2022-05-24 16:19:56</time>
      </trkpt>
      <trkpt lat="40.82631" lon="0.46248">
        <ele>95.4</ele>
        <time>2022-05-24 16:19:57</time>
      </trkpt>
      <trkpt lat="40.8263" lon="0.46242">
        <ele>95.4</ele>
        <time>2022-05-24 16:19:58</time>
      </trkpt>
      <trkpt lat="40.82629" lon="0.46237">
        <ele>95.6</ele>
        <time>2022-05-24 16:19:59</time>
      </trkpt>
      <trkpt lat="40.82629" lon="0.46231">
        <ele>95.6</ele>
        <time>2022-05-24 16:20:00</time>
      </trkpt>
      <trkpt lat="40.82628" lon="0.46226">
        <ele>95.6</ele>
        <time>2022-05-24 16:20:01</time>
      </trkpt>
      <trkpt lat="40.82627" lon="0.4622">
        <ele>95.6</ele>
        <time>2022-05-24 16:20:02</time>
      </trkpt>
      <trkpt lat="40.82627" lon="0.46214">
        <ele>95.6</ele>
        <time>2022-05-24 16:20:03</time>
      </trkpt>
      <trkpt lat="40.82626" lon="0.46209">
        <ele>95.6</ele>
        <time>2022-05-24 16:20:04</time>
      </trkpt>
      <trkpt lat="40.82625" lon="0.46203">
        <ele>95.6</ele>
        <time>2022-05-24 16:20:05</time>
      </trkpt>
      <trkpt lat="40.82624" lon="0.46198">
        <ele>95.6</ele>
        <time>2022-05-24 16:20:06</time>
      </trkpt>
      <trkpt lat="40.82624" lon="0.46193">
        <ele>95.6</ele>
        <time>2022-05-24 16:20:07</time>
      </trkpt>
      <trkpt lat="40.82623" lon="0.46187">
        <ele>95.8</ele>
        <time>2022-05-24 16:20:08</time>
      </trkpt>
      <trkpt lat="40.82623" lon="0.46182">
        <ele>95.8</ele>
        <time>2022-05-24 16:20:09</time>
      </trkpt>
      <trkpt lat="40.82622" lon="0.46176">
        <ele>95.8</ele>
        <time>2022-05-24 16:20:10</time>
      </trkpt>
      <trkpt lat="40.82621" lon="0.46171">
        <ele>95.8</ele>
        <time>2022-05-24 16:20:11</time>
      </trkpt>
      <trkpt lat="40.82619" lon="0.46166">
        <ele>95.8</ele>
        <time>2022-05-24 16:20:12</time>
      </trkpt>
      <trkpt lat="40.82619" lon="0.4616">
        <ele>96</ele>
        <time>2022-05-24 16:20:13</time>
      </trkpt>
      <trkpt lat="40.82618" lon="0.46155">
        <ele>96</ele>
        <time>2022-05-24 16:20:14</time>
      </trkpt>
      <trkpt lat="40.82617" lon="0.46149">
        <ele>96</ele>
        <time>2022-05-24 16:20:15</time>
      </trkpt>
      <trkpt lat="40.82616" lon="0.46143">
        <ele>96</ele>
        <time>2022-05-24 16:20:16</time>
      </trkpt>
      <trkpt lat="40.82616" lon="0.46138">
        <ele>96</ele>
        <time>2022-05-24 16:20:17</time>
      </trkpt>
      <trkpt lat="40.82615" lon="0.46132">
        <ele>96</ele>
        <time>2022-05-24 16:20:18</time>
      </trkpt>
      <trkpt lat="40.82614" lon="0.46127">
        <ele>96</ele>
        <time>2022-05-24 16:20:19</time>
      </trkpt>
      <trkpt lat="40.82613" lon="0.46121">
        <ele>96.2</ele>
        <time>2022-05-24 16:20:20</time>
      </trkpt>
      <trkpt lat="40.82612" lon="0.46115">
        <ele>96.2</ele>
        <time>2022-05-24 16:20:21</time>
      </trkpt>
      <trkpt lat="40.82611" lon="0.4611">
        <ele>96.2</ele>
        <time>2022-05-24 16:20:22</time>
      </trkpt>
      <trkpt lat="40.8261" lon="0.46105">
        <ele>96.2</ele>
        <time>2022-05-24 16:20:23</time>
      </trkpt>
      <trkpt lat="40.82609" lon="0.46099">
        <ele>96.4</ele>
        <time>2022-05-24 16:20:24</time>
      </trkpt>
      <trkpt lat="40.82608" lon="0.46094">
        <ele>96.4</ele>
        <time>2022-05-24 16:20:25</time>
      </trkpt>
      <trkpt lat="40.82608" lon="0.46089">
        <ele>96.6</ele>
        <time>2022-05-24 16:20:26</time>
      </trkpt>
      <trkpt lat="40.82607" lon="0.46083">
        <ele>96.6</ele>
        <time>2022-05-24 16:20:27</time>
      </trkpt>
      <trkpt lat="40.82607" lon="0.46078">
        <ele>96.6</ele>
        <time>2022-05-24 16:20:28</time>
      </trkpt>
      <trkpt lat="40.82606" lon="0.46072">
        <ele>96.6</ele>
        <time>2022-05-24 16:20:29</time>
      </trkpt>
      <trkpt lat="40.82605" lon="0.46067">
        <ele>96.6</ele>
        <time>2022-05-24 16:20:30</time>
      </trkpt>
      <trkpt lat="40.82605" lon="0.46062">
        <ele>96.8</ele>
        <time>2022-05-24 16:20:31</time>
      </trkpt>
      <trkpt lat="40.82604" lon="0.46057">
        <ele>96.8</ele>
        <time>2022-05-24 16:20:32</time>
      </trkpt>
      <trkpt lat="40.82604" lon="0.46052">
        <ele>96.8</ele>
        <time>2022-05-24 16:20:33</time>
      </trkpt>
      <trkpt lat="40.82603" lon="0.46047">
        <ele>96.8</ele>
        <time>2022-05-24 16:20:34</time>
      </trkpt>
      <trkpt lat="40.82602" lon="0.46041">
        <ele>96.8</ele>
        <time>2022-05-24 16:20:35</time>
      </trkpt>
      <trkpt lat="40.82601" lon="0.46036">
        <ele>96.8</ele>
        <time>2022-05-24 16:20:36</time>
      </trkpt>
      <trkpt lat="40.826" lon="0.4603">
        <ele>96.8</ele>
        <time>2022-05-24 16:20:37</time>
      </trkpt>
      <trkpt lat="40.826" lon="0.46023">
        <ele>96.8</ele>
        <time>2022-05-24 16:20:38</time>
      </trkpt>
      <trkpt lat="40.82599" lon="0.46017">
        <ele>97</ele>
        <time>2022-05-24 16:20:39</time>
      </trkpt>
      <trkpt lat="40.82599" lon="0.46011">
        <ele>97</ele>
        <time>2022-05-24 16:20:40</time>
      </trkpt>
      <trkpt lat="40.82598" lon="0.46006">
        <ele>97</ele>
        <time>2022-05-24 16:20:41</time>
      </trkpt>
      <trkpt lat="40.82598" lon="0.46">
        <ele>97</ele>
        <time>2022-05-24 16:20:42</time>
      </trkpt>
      <trkpt lat="40.82597" lon="0.45994">
        <ele>97</ele>
        <time>2022-05-24 16:20:43</time>
      </trkpt>
      <trkpt lat="40.82597" lon="0.45988">
        <ele>97.2</ele>
        <time>2022-05-24 16:20:44</time>
      </trkpt>
      <trkpt lat="40.82597" lon="0.45982">
        <ele>97.2</ele>
        <time>2022-05-24 16:20:45</time>
      </trkpt>
      <trkpt lat="40.82596" lon="0.45976">
        <ele>97.2</ele>
        <time>2022-05-24 16:20:46</time>
      </trkpt>
      <trkpt lat="40.82595" lon="0.4597">
        <ele>97.2</ele>
        <time>2022-05-24 16:20:47</time>
      </trkpt>
      <trkpt lat="40.82595" lon="0.45965">
        <ele>97.4</ele>
        <time>2022-05-24 16:20:48</time>
      </trkpt>
      <trkpt lat="40.82595" lon="0.45959">
        <ele>97.4</ele>
        <time>2022-05-24 16:20:49</time>
      </trkpt>
      <trkpt lat="40.82594" lon="0.45953">
        <ele>97.6</ele>
        <time>2022-05-24 16:20:50</time>
      </trkpt>
      <trkpt lat="40.82594" lon="0.45947">
        <ele>97.6</ele>
        <time>2022-05-24 16:20:51</time>
      </trkpt>
      <trkpt lat="40.82594" lon="0.45941">
        <ele>97.6</ele>
        <time>2022-05-24 16:20:52</time>
      </trkpt>
      <trkpt lat="40.82593" lon="0.45935">
        <ele>97.6</ele>
        <time>2022-05-24 16:20:53</time>
      </trkpt>
      <trkpt lat="40.82593" lon="0.4593">
        <ele>97.6</ele>
        <time>2022-05-24 16:20:54</time>
      </trkpt>
      <trkpt lat="40.82592" lon="0.45924">
        <ele>97.6</ele>
        <time>2022-05-24 16:20:55</time>
      </trkpt>
      <trkpt lat="40.82592" lon="0.45919">
        <ele>97.8</ele>
        <time>2022-05-24 16:20:56</time>
      </trkpt>
      <trkpt lat="40.82591" lon="0.45913">
        <ele>97.8</ele>
        <time>2022-05-24 16:20:57</time>
      </trkpt>
      <trkpt lat="40.82591" lon="0.45907">
        <ele>97.8</ele>
        <time>2022-05-24 16:20:58</time>
      </trkpt>
      <trkpt lat="40.8259" lon="0.45902">
        <ele>97.8</ele>
        <time>2022-05-24 16:20:59</time>
      </trkpt>
      <trkpt lat="40.8259" lon="0.45896">
        <ele>97.8</ele>
        <time>2022-05-24 16:21:00</time>
      </trkpt>
      <trkpt lat="40.8259" lon="0.45891">
        <ele>97.8</ele>
        <time>2022-05-24 16:21:01</time>
      </trkpt>
      <trkpt lat="40.8259" lon="0.45885">
        <ele>98</ele>
        <time>2022-05-24 16:21:02</time>
      </trkpt>
      <trkpt lat="40.82589" lon="0.45879">
        <ele>98</ele>
        <time>2022-05-24 16:21:03</time>
      </trkpt>
      <trkpt lat="40.82589" lon="0.45873">
        <ele>98</ele>
        <time>2022-05-24 16:21:04</time>
      </trkpt>
      <trkpt lat="40.82589" lon="0.45868">
        <ele>98</ele>
        <time>2022-05-24 16:21:05</time>
      </trkpt>
      <trkpt lat="40.82589" lon="0.45862">
        <ele>98</ele>
        <time>2022-05-24 16:21:06</time>
      </trkpt>
      <trkpt lat="40.82589" lon="0.45857">
        <ele>98</ele>
        <time>2022-05-24 16:21:07</time>
      </trkpt>
      <trkpt lat="40.82589" lon="0.45851">
        <ele>98.2</ele>
        <time>2022-05-24 16:21:08</time>
      </trkpt>
      <trkpt lat="40.82589" lon="0.45846">
        <ele>98.2</ele>
        <time>2022-05-24 16:21:09</time>
      </trkpt>
      <trkpt lat="40.82589" lon="0.4584">
        <ele>98.4</ele>
        <time>2022-05-24 16:21:10</time>
      </trkpt>
      <trkpt lat="40.82588" lon="0.45835">
        <ele>98.4</ele>
        <time>2022-05-24 16:21:11</time>
      </trkpt>
      <trkpt lat="40.82588" lon="0.4583">
        <ele>98.4</ele>
        <time>2022-05-24 16:21:12</time>
      </trkpt>
      <trkpt lat="40.82588" lon="0.45824">
        <ele>98.6</ele>
        <time>2022-05-24 16:21:13</time>
      </trkpt>
      <trkpt lat="40.82588" lon="0.45819">
        <ele>98.6</ele>
        <time>2022-05-24 16:21:14</time>
      </trkpt>
      <trkpt lat="40.82588" lon="0.45814">
        <ele>98.6</ele>
        <time>2022-05-24 16:21:15</time>
      </trkpt>
      <trkpt lat="40.82588" lon="0.45809">
        <ele>98.8</ele>
        <time>2022-05-24 16:21:16</time>
      </trkpt>
      <trkpt lat="40.82587" lon="0.45804">
        <ele>98.8</ele>
        <time>2022-05-24 16:21:17</time>
      </trkpt>
      <trkpt lat="40.82587" lon="0.458">
        <ele>99</ele>
        <time>2022-05-24 16:21:18</time>
      </trkpt>
      <trkpt lat="40.82587" lon="0.45796">
        <ele>99.2</ele>
        <time>2022-05-24 16:21:19</time>
      </trkpt>
      <trkpt lat="40.82587" lon="0.4579">
        <ele>99.4</ele>
        <time>2022-05-24 16:21:20</time>
      </trkpt>
      <trkpt lat="40.82586" lon="0.45786">
        <ele>99.4</ele>
        <time>2022-05-24 16:21:21</time>
      </trkpt>
      <trkpt lat="40.82586" lon="0.45782">
        <ele>99.6</ele>
        <time>2022-05-24 16:21:22</time>
      </trkpt>
      <trkpt lat="40.82586" lon="0.45777">
        <ele>99.6</ele>
        <time>2022-05-24 16:21:23</time>
      </trkpt>
      <trkpt lat="40.82586" lon="0.45773">
        <ele>99.8</ele>
        <time>2022-05-24 16:21:24</time>
      </trkpt>
      <trkpt lat="40.82586" lon="0.45769">
        <ele>99.8</ele>
        <time>2022-05-24 16:21:25</time>
      </trkpt>
      <trkpt lat="40.82586" lon="0.45764">
        <ele>100</ele>
        <time>2022-05-24 16:21:26</time>
      </trkpt>
      <trkpt lat="40.82586" lon="0.45759">
        <ele>100</ele>
        <time>2022-05-24 16:21:27</time>
      </trkpt>
      <trkpt lat="40.82586" lon="0.45755">
        <ele>100.2</ele>
        <time>2022-05-24 16:21:28</time>
      </trkpt>
      <trkpt lat="40.82586" lon="0.45749">
        <ele>100.2</ele>
        <time>2022-05-24 16:21:29</time>
      </trkpt>
      <trkpt lat="40.82586" lon="0.45745">
        <ele>100.2</ele>
        <time>2022-05-24 16:21:30</time>
      </trkpt>
      <trkpt lat="40.82585" lon="0.45741">
        <ele>100.4</ele>
        <time>2022-05-24 16:21:31</time>
      </trkpt>
      <trkpt lat="40.82585" lon="0.45735">
        <ele>100.4</ele>
        <time>2022-05-24 16:21:32</time>
      </trkpt>
      <trkpt lat="40.82585" lon="0.45731">
        <ele>100.6</ele>
        <time>2022-05-24 16:21:33</time>
      </trkpt>
      <trkpt lat="40.82584" lon="0.45727">
        <ele>100.6</ele>
        <time>2022-05-24 16:21:34</time>
      </trkpt>
      <trkpt lat="40.82584" lon="0.45722">
        <ele>100.8</ele>
        <time>2022-05-24 16:21:35</time>
      </trkpt>
      <trkpt lat="40.82584" lon="0.45717">
        <ele>101</ele>
        <time>2022-05-24 16:21:36</time>
      </trkpt>
      <trkpt lat="40.82583" lon="0.45714">
        <ele>101.2</ele>
        <time>2022-05-24 16:21:37</time>
      </trkpt>
      <trkpt lat="40.82583" lon="0.4571">
        <ele>101.4</ele>
        <time>2022-05-24 16:21:38</time>
      </trkpt>
      <trkpt lat="40.82583" lon="0.45706">
        <ele>101.4</ele>
        <time>2022-05-24 16:21:39</time>
      </trkpt>
      <trkpt lat="40.82582" lon="0.45702">
        <ele>101.6</ele>
        <time>2022-05-24 16:21:40</time>
      </trkpt>
      <trkpt lat="40.82582" lon="0.45698">
        <ele>101.6</ele>
        <time>2022-05-24 16:21:41</time>
      </trkpt>
      <trkpt lat="40.82582" lon="0.45693">
        <ele>101.8</ele>
        <time>2022-05-24 16:21:42</time>
      </trkpt>
      <trkpt lat="40.82581" lon="0.45689">
        <ele>101.8</ele>
        <time>2022-05-24 16:21:43</time>
      </trkpt>
      <trkpt lat="40.82581" lon="0.45686">
        <ele>102</ele>
        <time>2022-05-24 16:21:44</time>
      </trkpt>
      <trkpt lat="40.82581" lon="0.45681">
        <ele>102.2</ele>
        <time>2022-05-24 16:21:45</time>
      </trkpt>
      <trkpt lat="40.8258" lon="0.45677">
        <ele>102.2</ele>
        <time>2022-05-24 16:21:46</time>
      </trkpt>
      <trkpt lat="40.8258" lon="0.45673">
        <ele>102.4</ele>
        <time>2022-05-24 16:21:47</time>
      </trkpt>
      <trkpt lat="40.8258" lon="0.4567">
        <ele>102.4</ele>
        <time>2022-05-24 16:21:48</time>
      </trkpt>
      <trkpt lat="40.82579" lon="0.45665">
        <ele>102.6</ele>
        <time>2022-05-24 16:21:49</time>
      </trkpt>
      <trkpt lat="40.82579" lon="0.45661">
        <ele>102.6</ele>
        <time>2022-05-24 16:21:50</time>
      </trkpt>
      <trkpt lat="40.82579" lon="0.45657">
        <ele>102.6</ele>
        <time>2022-05-24 16:21:51</time>
      </trkpt>
      <trkpt lat="40.82578" lon="0.45652">
        <ele>102.8</ele>
        <time>2022-05-24 16:21:52</time>
      </trkpt>
      <trkpt lat="40.82578" lon="0.45647">
        <ele>102.8</ele>
        <time>2022-05-24 16:21:53</time>
      </trkpt>
      <trkpt lat="40.82578" lon="0.45644">
        <ele>102.8</ele>
        <time>2022-05-24 16:21:54</time>
      </trkpt>
      <trkpt lat="40.82577" lon="0.45638">
        <ele>102.8</ele>
        <time>2022-05-24 16:21:55</time>
      </trkpt>
      <trkpt lat="40.82577" lon="0.45634">
        <ele>103</ele>
        <time>2022-05-24 16:21:56</time>
      </trkpt>
      <trkpt lat="40.82576" lon="0.4563">
        <ele>103</ele>
        <time>2022-05-24 16:21:57</time>
      </trkpt>
      <trkpt lat="40.82576" lon="0.45624">
        <ele>103.2</ele>
        <time>2022-05-24 16:21:58</time>
      </trkpt>
      <trkpt lat="40.82576" lon="0.4562">
        <ele>103.4</ele>
        <time>2022-05-24 16:21:59</time>
      </trkpt>
      <trkpt lat="40.82576" lon="0.45617">
        <ele>103.4</ele>
        <time>2022-05-24 16:22:00</time>
      </trkpt>
      <trkpt lat="40.82576" lon="0.45611">
        <ele>103.6</ele>
        <time>2022-05-24 16:22:01</time>
      </trkpt>
      <trkpt lat="40.82576" lon="0.45607">
        <ele>103.8</ele>
        <time>2022-05-24 16:22:02</time>
      </trkpt>
      <trkpt lat="40.82576" lon="0.45604">
        <ele>103.8</ele>
        <time>2022-05-24 16:22:03</time>
      </trkpt>
      <trkpt lat="40.82575" lon="0.45598">
        <ele>104</ele>
        <time>2022-05-24 16:22:04</time>
      </trkpt>
      <trkpt lat="40.82575" lon="0.45594">
        <ele>104</ele>
        <time>2022-05-24 16:22:05</time>
      </trkpt>
      <trkpt lat="40.82575" lon="0.45591">
        <ele>104.2</ele>
        <time>2022-05-24 16:22:06</time>
      </trkpt>
      <trkpt lat="40.82574" lon="0.45585">
        <ele>104.2</ele>
        <time>2022-05-24 16:22:07</time>
      </trkpt>
      <trkpt lat="40.82574" lon="0.45581">
        <ele>104.4</ele>
        <time>2022-05-24 16:22:08</time>
      </trkpt>
      <trkpt lat="40.82574" lon="0.45578">
        <ele>104.4</ele>
        <time>2022-05-24 16:22:09</time>
      </trkpt>
      <trkpt lat="40.82574" lon="0.45572">
        <ele>104.6</ele>
        <time>2022-05-24 16:22:10</time>
      </trkpt>
      <trkpt lat="40.82574" lon="0.45568">
        <ele>104.8</ele>
        <time>2022-05-24 16:22:11</time>
      </trkpt>
      <trkpt lat="40.82573" lon="0.45565">
        <ele>104.8</ele>
        <time>2022-05-24 16:22:12</time>
      </trkpt>
      <trkpt lat="40.82573" lon="0.45559">
        <ele>104.8</ele>
        <time>2022-05-24 16:22:13</time>
      </trkpt>
      <trkpt lat="40.82573" lon="0.45555">
        <ele>105</ele>
        <time>2022-05-24 16:22:14</time>
      </trkpt>
      <trkpt lat="40.82572" lon="0.45552">
        <ele>105.2</ele>
        <time>2022-05-24 16:22:15</time>
      </trkpt>
      <trkpt lat="40.82571" lon="0.45547">
        <ele>105.2</ele>
        <time>2022-05-24 16:22:16</time>
      </trkpt>
      <trkpt lat="40.82571" lon="0.45543">
        <ele>105.4</ele>
        <time>2022-05-24 16:22:17</time>
      </trkpt>
      <trkpt lat="40.8257" lon="0.4554">
        <ele>105.6</ele>
        <time>2022-05-24 16:22:18</time>
      </trkpt>
      <trkpt lat="40.82569" lon="0.45534">
        <ele>105.8</ele>
        <time>2022-05-24 16:22:19</time>
      </trkpt>
      <trkpt lat="40.82568" lon="0.4553">
        <ele>105.8</ele>
        <time>2022-05-24 16:22:20</time>
      </trkpt>
      <trkpt lat="40.82568" lon="0.45527">
        <ele>106</ele>
        <time>2022-05-24 16:22:21</time>
      </trkpt>
      <trkpt lat="40.82567" lon="0.45521">
        <ele>106</ele>
        <time>2022-05-24 16:22:22</time>
      </trkpt>
      <trkpt lat="40.82567" lon="0.45517">
        <ele>106.2</ele>
        <time>2022-05-24 16:22:23</time>
      </trkpt>
      <trkpt lat="40.82566" lon="0.45514">
        <ele>106.2</ele>
        <time>2022-05-24 16:22:24</time>
      </trkpt>
      <trkpt lat="40.82566" lon="0.45508">
        <ele>106.4</ele>
        <time>2022-05-24 16:22:25</time>
      </trkpt>
      <trkpt lat="40.82566" lon="0.45504">
        <ele>106.4</ele>
        <time>2022-05-24 16:22:26</time>
      </trkpt>
      <trkpt lat="40.82566" lon="0.45501">
        <ele>106.6</ele>
        <time>2022-05-24 16:22:27</time>
      </trkpt>
      <trkpt lat="40.82565" lon="0.45497">
        <ele>106.6</ele>
        <time>2022-05-24 16:22:28</time>
      </trkpt>
      <trkpt lat="40.82565" lon="0.45493">
        <ele>106.8</ele>
        <time>2022-05-24 16:22:29</time>
      </trkpt>
      <trkpt lat="40.82564" lon="0.45489">
        <ele>107</ele>
        <time>2022-05-24 16:22:30</time>
      </trkpt>
      <trkpt lat="40.82563" lon="0.45486">
        <ele>107</ele>
        <time>2022-05-24 16:22:31</time>
      </trkpt>
      <trkpt lat="40.82563" lon="0.45481">
        <ele>107.2</ele>
        <time>2022-05-24 16:22:32</time>
      </trkpt>
      <trkpt lat="40.82561" lon="0.45477">
        <ele>107.2</ele>
        <time>2022-05-24 16:22:33</time>
      </trkpt>
      <trkpt lat="40.82561" lon="0.45475">
        <ele>107.2</ele>
        <time>2022-05-24 16:22:34</time>
      </trkpt>
      <trkpt lat="40.8256" lon="0.45469">
        <ele>107.4</ele>
        <time>2022-05-24 16:22:35</time>
      </trkpt>
      <trkpt lat="40.82559" lon="0.45465">
        <ele>107.6</ele>
        <time>2022-05-24 16:22:36</time>
      </trkpt>
      <trkpt lat="40.82559" lon="0.45462">
        <ele>107.8</ele>
        <time>2022-05-24 16:22:37</time>
      </trkpt>
      <trkpt lat="40.82558" lon="0.45457">
        <ele>107.8</ele>
        <time>2022-05-24 16:22:38</time>
      </trkpt>
      <trkpt lat="40.82558" lon="0.45453">
        <ele>108</ele>
        <time>2022-05-24 16:22:39</time>
      </trkpt>
      <trkpt lat="40.82557" lon="0.4545">
        <ele>108</ele>
        <time>2022-05-24 16:22:40</time>
      </trkpt>
      <trkpt lat="40.82556" lon="0.45445">
        <ele>108.2</ele>
        <time>2022-05-24 16:22:41</time>
      </trkpt>
      <trkpt lat="40.82556" lon="0.45441">
        <ele>108.2</ele>
        <time>2022-05-24 16:22:42</time>
      </trkpt>
      <trkpt lat="40.82555" lon="0.45438">
        <ele>108.4</ele>
        <time>2022-05-24 16:22:43</time>
      </trkpt>
      <trkpt lat="40.82555" lon="0.45433">
        <ele>108.4</ele>
        <time>2022-05-24 16:22:44</time>
      </trkpt>
      <trkpt lat="40.82554" lon="0.45429">
        <ele>108.6</ele>
        <time>2022-05-24 16:22:45</time>
      </trkpt>
      <trkpt lat="40.82553" lon="0.45425">
        <ele>108.6</ele>
        <time>2022-05-24 16:22:46</time>
      </trkpt>
      <trkpt lat="40.82553" lon="0.4542">
        <ele>108.8</ele>
        <time>2022-05-24 16:22:47</time>
      </trkpt>
      <trkpt lat="40.82552" lon="0.45416">
        <ele>108.8</ele>
        <time>2022-05-24 16:22:48</time>
      </trkpt>
      <trkpt lat="40.82552" lon="0.45413">
        <ele>108.8</ele>
        <time>2022-05-24 16:22:49</time>
      </trkpt>
      <trkpt lat="40.82552" lon="0.45407">
        <ele>109</ele>
        <time>2022-05-24 16:22:50</time>
      </trkpt>
      <trkpt lat="40.82552" lon="0.45403">
        <ele>109</ele>
        <time>2022-05-24 16:22:51</time>
      </trkpt>
      <trkpt lat="40.82552" lon="0.454">
        <ele>109.2</ele>
        <time>2022-05-24 16:22:52</time>
      </trkpt>
      <trkpt lat="40.82551" lon="0.45395">
        <ele>109.2</ele>
        <time>2022-05-24 16:22:53</time>
      </trkpt>
      <trkpt lat="40.82551" lon="0.45391">
        <ele>109.4</ele>
        <time>2022-05-24 16:22:54</time>
      </trkpt>
      <trkpt lat="40.82551" lon="0.45387">
        <ele>109.4</ele>
        <time>2022-05-24 16:22:55</time>
      </trkpt>
      <trkpt lat="40.82551" lon="0.45382">
        <ele>109.6</ele>
        <time>2022-05-24 16:22:56</time>
      </trkpt>
      <trkpt lat="40.8255" lon="0.45378">
        <ele>109.6</ele>
        <time>2022-05-24 16:22:57</time>
      </trkpt>
      <trkpt lat="40.8255" lon="0.45375">
        <ele>109.6</ele>
        <time>2022-05-24 16:22:58</time>
      </trkpt>
      <trkpt lat="40.8255" lon="0.45369">
        <ele>109.8</ele>
        <time>2022-05-24 16:22:59</time>
      </trkpt>
      <trkpt lat="40.8255" lon="0.45365">
        <ele>109.8</ele>
        <time>2022-05-24 16:23:00</time>
      </trkpt>
      <trkpt lat="40.8255" lon="0.45362">
        <ele>110</ele>
        <time>2022-05-24 16:23:01</time>
      </trkpt>
      <trkpt lat="40.8255" lon="0.45356">
        <ele>110</ele>
        <time>2022-05-24 16:23:02</time>
      </trkpt>
      <trkpt lat="40.8255" lon="0.45353">
        <ele>110.2</ele>
        <time>2022-05-24 16:23:03</time>
      </trkpt>
      <trkpt lat="40.8255" lon="0.4535">
        <ele>110.2</ele>
        <time>2022-05-24 16:23:04</time>
      </trkpt>
      <trkpt lat="40.82549" lon="0.45344">
        <ele>110.4</ele>
        <time>2022-05-24 16:23:05</time>
      </trkpt>
      <trkpt lat="40.82549" lon="0.4534">
        <ele>110.4</ele>
        <time>2022-05-24 16:23:06</time>
      </trkpt>
      <trkpt lat="40.82549" lon="0.45337">
        <ele>110.6</ele>
        <time>2022-05-24 16:23:07</time>
      </trkpt>
      <trkpt lat="40.82548" lon="0.45332">
        <ele>110.6</ele>
        <time>2022-05-24 16:23:08</time>
      </trkpt>
      <trkpt lat="40.82548" lon="0.45328">
        <ele>110.6</ele>
        <time>2022-05-24 16:23:09</time>
      </trkpt>
      <trkpt lat="40.82548" lon="0.45325">
        <ele>110.8</ele>
        <time>2022-05-24 16:23:10</time>
      </trkpt>
      <trkpt lat="40.82548" lon="0.4532">
        <ele>110.8</ele>
        <time>2022-05-24 16:23:11</time>
      </trkpt>
      <trkpt lat="40.82548" lon="0.45316">
        <ele>111</ele>
        <time>2022-05-24 16:23:12</time>
      </trkpt>
      <trkpt lat="40.82548" lon="0.45312">
        <ele>111</ele>
        <time>2022-05-24 16:23:13</time>
      </trkpt>
      <trkpt lat="40.82548" lon="0.45307">
        <ele>111.2</ele>
        <time>2022-05-24 16:23:14</time>
      </trkpt>
      <trkpt lat="40.82548" lon="0.45303">
        <ele>111.2</ele>
        <time>2022-05-24 16:23:15</time>
      </trkpt>
      <trkpt lat="40.82548" lon="0.453">
        <ele>111.4</ele>
        <time>2022-05-24 16:23:16</time>
      </trkpt>
      <trkpt lat="40.82548" lon="0.45295">
        <ele>111.4</ele>
        <time>2022-05-24 16:23:17</time>
      </trkpt>
      <trkpt lat="40.82548" lon="0.45291">
        <ele>111.6</ele>
        <time>2022-05-24 16:23:18</time>
      </trkpt>
      <trkpt lat="40.82548" lon="0.45288">
        <ele>111.6</ele>
        <time>2022-05-24 16:23:19</time>
      </trkpt>
      <trkpt lat="40.82548" lon="0.45283">
        <ele>111.8</ele>
        <time>2022-05-24 16:23:20</time>
      </trkpt>
      <trkpt lat="40.82547" lon="0.45279">
        <ele>111.8</ele>
        <time>2022-05-24 16:23:21</time>
      </trkpt>
      <trkpt lat="40.82547" lon="0.45276">
        <ele>112</ele>
        <time>2022-05-24 16:23:22</time>
      </trkpt>
      <trkpt lat="40.82547" lon="0.45271">
        <ele>112</ele>
        <time>2022-05-24 16:23:23</time>
      </trkpt>
      <trkpt lat="40.82547" lon="0.45268">
        <ele>112.2</ele>
        <time>2022-05-24 16:23:24</time>
      </trkpt>
      <trkpt lat="40.82547" lon="0.45264">
        <ele>112.2</ele>
        <time>2022-05-24 16:23:25</time>
      </trkpt>
      <trkpt lat="40.82547" lon="0.45261">
        <ele>112.4</ele>
        <time>2022-05-24 16:23:26</time>
      </trkpt>
      <trkpt lat="40.82547" lon="0.45256">
        <ele>112.4</ele>
        <time>2022-05-24 16:23:27</time>
      </trkpt>
      <trkpt lat="40.82547" lon="0.45252">
        <ele>112.6</ele>
        <time>2022-05-24 16:23:28</time>
      </trkpt>
      <trkpt lat="40.82547" lon="0.45248">
        <ele>112.6</ele>
        <time>2022-05-24 16:23:29</time>
      </trkpt>
      <trkpt lat="40.82547" lon="0.45246">
        <ele>112.8</ele>
        <time>2022-05-24 16:23:30</time>
      </trkpt>
      <trkpt lat="40.82546" lon="0.45241">
        <ele>113</ele>
        <time>2022-05-24 16:23:31</time>
      </trkpt>
      <trkpt lat="40.82546" lon="0.45237">
        <ele>113</ele>
        <time>2022-05-24 16:23:32</time>
      </trkpt>
      <trkpt lat="40.82546" lon="0.45233">
        <ele>113.2</ele>
        <time>2022-05-24 16:23:33</time>
      </trkpt>
      <trkpt lat="40.82545" lon="0.45231">
        <ele>113.2</ele>
        <time>2022-05-24 16:23:34</time>
      </trkpt>
      <trkpt lat="40.82545" lon="0.45225">
        <ele>113.4</ele>
        <time>2022-05-24 16:23:35</time>
      </trkpt>
      <trkpt lat="40.82545" lon="0.45221">
        <ele>113.4</ele>
        <time>2022-05-24 16:23:36</time>
      </trkpt>
      <trkpt lat="40.82545" lon="0.45218">
        <ele>113.6</ele>
        <time>2022-05-24 16:23:37</time>
      </trkpt>
      <trkpt lat="40.82545" lon="0.45213">
        <ele>113.6</ele>
        <time>2022-05-24 16:23:38</time>
      </trkpt>
      <trkpt lat="40.82545" lon="0.45209">
        <ele>113.8</ele>
        <time>2022-05-24 16:23:39</time>
      </trkpt>
      <trkpt lat="40.82544" lon="0.45206">
        <ele>113.8</ele>
        <time>2022-05-24 16:23:40</time>
      </trkpt>
      <trkpt lat="40.82544" lon="0.45203">
        <ele>114</ele>
        <time>2022-05-24 16:23:41</time>
      </trkpt>
      <trkpt lat="40.82544" lon="0.45198">
        <ele>114.2</ele>
        <time>2022-05-24 16:23:42</time>
      </trkpt>
      <trkpt lat="40.82544" lon="0.45194">
        <ele>114.2</ele>
        <time>2022-05-24 16:23:43</time>
      </trkpt>
      <trkpt lat="40.82544" lon="0.45191">
        <ele>114.4</ele>
        <time>2022-05-24 16:23:44</time>
      </trkpt>
      <trkpt lat="40.82544" lon="0.45187">
        <ele>114.6</ele>
        <time>2022-05-24 16:23:45</time>
      </trkpt>
      <trkpt lat="40.82544" lon="0.45182">
        <ele>114.6</ele>
        <time>2022-05-24 16:23:46</time>
      </trkpt>
      <trkpt lat="40.82544" lon="0.45178">
        <ele>114.8</ele>
        <time>2022-05-24 16:23:47</time>
      </trkpt>
      <trkpt lat="40.82544" lon="0.45175">
        <ele>114.8</ele>
        <time>2022-05-24 16:23:48</time>
      </trkpt>
      <trkpt lat="40.82544" lon="0.4517">
        <ele>115</ele>
        <time>2022-05-24 16:23:49</time>
      </trkpt>
      <trkpt lat="40.82544" lon="0.45166">
        <ele>115.2</ele>
        <time>2022-05-24 16:23:50</time>
      </trkpt>
      <trkpt lat="40.82544" lon="0.45163">
        <ele>115.4</ele>
        <time>2022-05-24 16:23:51</time>
      </trkpt>
      <trkpt lat="40.82544" lon="0.45159">
        <ele>115.4</ele>
        <time>2022-05-24 16:23:52</time>
      </trkpt>
      <trkpt lat="40.82543" lon="0.45154">
        <ele>115.6</ele>
        <time>2022-05-24 16:23:53</time>
      </trkpt>
      <trkpt lat="40.82543" lon="0.4515">
        <ele>115.6</ele>
        <time>2022-05-24 16:23:54</time>
      </trkpt>
      <trkpt lat="40.82543" lon="0.45147">
        <ele>115.8</ele>
        <time>2022-05-24 16:23:55</time>
      </trkpt>
      <trkpt lat="40.82543" lon="0.45143">
        <ele>116</ele>
        <time>2022-05-24 16:23:56</time>
      </trkpt>
      <trkpt lat="40.82542" lon="0.45139">
        <ele>116</ele>
        <time>2022-05-24 16:23:57</time>
      </trkpt>
      <trkpt lat="40.82542" lon="0.45135">
        <ele>116.2</ele>
        <time>2022-05-24 16:23:58</time>
      </trkpt>
      <trkpt lat="40.82542" lon="0.4513">
        <ele>116.4</ele>
        <time>2022-05-24 16:23:59</time>
      </trkpt>
      <trkpt lat="40.82542" lon="0.45126">
        <ele>116.4</ele>
        <time>2022-05-24 16:24:00</time>
      </trkpt>
      <trkpt lat="40.82541" lon="0.45121">
        <ele>116.6</ele>
        <time>2022-05-24 16:24:01</time>
      </trkpt>
      <trkpt lat="40.82541" lon="0.45117">
        <ele>116.6</ele>
        <time>2022-05-24 16:24:02</time>
      </trkpt>
      <trkpt lat="40.82541" lon="0.45112">
        <ele>116.8</ele>
        <time>2022-05-24 16:24:03</time>
      </trkpt>
      <trkpt lat="40.8254" lon="0.45108">
        <ele>117</ele>
        <time>2022-05-24 16:24:04</time>
      </trkpt>
      <trkpt lat="40.82539" lon="0.45104">
        <ele>117</ele>
        <time>2022-05-24 16:24:05</time>
      </trkpt>
      <trkpt lat="40.82539" lon="0.45099">
        <ele>117.2</ele>
        <time>2022-05-24 16:24:06</time>
      </trkpt>
      <trkpt lat="40.82539" lon="0.45095">
        <ele>117.2</ele>
        <time>2022-05-24 16:24:07</time>
      </trkpt>
      <trkpt lat="40.82539" lon="0.45091">
        <ele>117.4</ele>
        <time>2022-05-24 16:24:08</time>
      </trkpt>
      <trkpt lat="40.82538" lon="0.45086">
        <ele>117.6</ele>
        <time>2022-05-24 16:24:09</time>
      </trkpt>
      <trkpt lat="40.82538" lon="0.45082">
        <ele>117.8</ele>
        <time>2022-05-24 16:24:10</time>
      </trkpt>
      <trkpt lat="40.82538" lon="0.45077">
        <ele>117.8</ele>
        <time>2022-05-24 16:24:11</time>
      </trkpt>
      <trkpt lat="40.82537" lon="0.45073">
        <ele>118</ele>
        <time>2022-05-24 16:24:12</time>
      </trkpt>
      <trkpt lat="40.82537" lon="0.45069">
        <ele>118</ele>
        <time>2022-05-24 16:24:13</time>
      </trkpt>
      <trkpt lat="40.82537" lon="0.45065">
        <ele>118.2</ele>
        <time>2022-05-24 16:24:14</time>
      </trkpt>
      <trkpt lat="40.82537" lon="0.45061">
        <ele>118.4</ele>
        <time>2022-05-24 16:24:15</time>
      </trkpt>
      <trkpt lat="40.82536" lon="0.45057">
        <ele>118.4</ele>
        <time>2022-05-24 16:24:16</time>
      </trkpt>
      <trkpt lat="40.82536" lon="0.45053">
        <ele>118.6</ele>
        <time>2022-05-24 16:24:17</time>
      </trkpt>
      <trkpt lat="40.82536" lon="0.45049">
        <ele>118.6</ele>
        <time>2022-05-24 16:24:18</time>
      </trkpt>
      <trkpt lat="40.82535" lon="0.45045">
        <ele>118.8</ele>
        <time>2022-05-24 16:24:19</time>
      </trkpt>
      <trkpt lat="40.82535" lon="0.45041">
        <ele>118.8</ele>
        <time>2022-05-24 16:24:20</time>
      </trkpt>
      <trkpt lat="40.82535" lon="0.45037">
        <ele>119</ele>
        <time>2022-05-24 16:24:21</time>
      </trkpt>
      <trkpt lat="40.82534" lon="0.45033">
        <ele>119</ele>
        <time>2022-05-24 16:24:22</time>
      </trkpt>
      <trkpt lat="40.82534" lon="0.45029">
        <ele>119.2</ele>
        <time>2022-05-24 16:24:23</time>
      </trkpt>
      <trkpt lat="40.82534" lon="0.45026">
        <ele>119.2</ele>
        <time>2022-05-24 16:24:24</time>
      </trkpt>
      <trkpt lat="40.82533" lon="0.45022">
        <ele>119.4</ele>
        <time>2022-05-24 16:24:25</time>
      </trkpt>
      <trkpt lat="40.82533" lon="0.45018">
        <ele>119.4</ele>
        <time>2022-05-24 16:24:26</time>
      </trkpt>
      <trkpt lat="40.82533" lon="0.45014">
        <ele>119.6</ele>
        <time>2022-05-24 16:24:27</time>
      </trkpt>
      <trkpt lat="40.82533" lon="0.4501">
        <ele>119.6</ele>
        <time>2022-05-24 16:24:28</time>
      </trkpt>
      <trkpt lat="40.82532" lon="0.45006">
        <ele>119.8</ele>
        <time>2022-05-24 16:24:29</time>
      </trkpt>
      <trkpt lat="40.82532" lon="0.45002">
        <ele>119.8</ele>
        <time>2022-05-24 16:24:30</time>
      </trkpt>
      <trkpt lat="40.82531" lon="0.44998">
        <ele>119.8</ele>
        <time>2022-05-24 16:24:31</time>
      </trkpt>
      <trkpt lat="40.82531" lon="0.44994">
        <ele>120</ele>
        <time>2022-05-24 16:24:32</time>
      </trkpt>
      <trkpt lat="40.8253" lon="0.4499">
        <ele>120.2</ele>
        <time>2022-05-24 16:24:33</time>
      </trkpt>
      <trkpt lat="40.8253" lon="0.44986">
        <ele>120.2</ele>
        <time>2022-05-24 16:24:34</time>
      </trkpt>
      <trkpt lat="40.8253" lon="0.44982">
        <ele>120.4</ele>
        <time>2022-05-24 16:24:35</time>
      </trkpt>
      <trkpt lat="40.82529" lon="0.44978">
        <ele>120.4</ele>
        <time>2022-05-24 16:24:36</time>
      </trkpt>
      <trkpt lat="40.82529" lon="0.44974">
        <ele>120.6</ele>
        <time>2022-05-24 16:24:37</time>
      </trkpt>
      <trkpt lat="40.82529" lon="0.4497">
        <ele>120.6</ele>
        <time>2022-05-24 16:24:38</time>
      </trkpt>
      <trkpt lat="40.82529" lon="0.44966">
        <ele>120.8</ele>
        <time>2022-05-24 16:24:39</time>
      </trkpt>
      <trkpt lat="40.82529" lon="0.44962">
        <ele>121</ele>
        <time>2022-05-24 16:24:40</time>
      </trkpt>
      <trkpt lat="40.82528" lon="0.44958">
        <ele>121</ele>
        <time>2022-05-24 16:24:41</time>
      </trkpt>
      <trkpt lat="40.82528" lon="0.44954">
        <ele>121.2</ele>
        <time>2022-05-24 16:24:42</time>
      </trkpt>
      <trkpt lat="40.82528" lon="0.4495">
        <ele>121.2</ele>
        <time>2022-05-24 16:24:43</time>
      </trkpt>
      <trkpt lat="40.82528" lon="0.44946">
        <ele>121.4</ele>
        <time>2022-05-24 16:24:44</time>
      </trkpt>
      <trkpt lat="40.82527" lon="0.44942">
        <ele>121.4</ele>
        <time>2022-05-24 16:24:45</time>
      </trkpt>
      <trkpt lat="40.82527" lon="0.44938">
        <ele>121.6</ele>
        <time>2022-05-24 16:24:46</time>
      </trkpt>
      <trkpt lat="40.82526" lon="0.44934">
        <ele>121.6</ele>
        <time>2022-05-24 16:24:47</time>
      </trkpt>
      <trkpt lat="40.82526" lon="0.44931">
        <ele>121.8</ele>
        <time>2022-05-24 16:24:48</time>
      </trkpt>
      <trkpt lat="40.82526" lon="0.44927">
        <ele>121.8</ele>
        <time>2022-05-24 16:24:49</time>
      </trkpt>
      <trkpt lat="40.82526" lon="0.44923">
        <ele>122</ele>
        <time>2022-05-24 16:24:50</time>
      </trkpt>
      <trkpt lat="40.82526" lon="0.44919">
        <ele>122</ele>
        <time>2022-05-24 16:24:51</time>
      </trkpt>
      <trkpt lat="40.82526" lon="0.44915">
        <ele>122.2</ele>
        <time>2022-05-24 16:24:52</time>
      </trkpt>
      <trkpt lat="40.82525" lon="0.44911">
        <ele>122.2</ele>
        <time>2022-05-24 16:24:53</time>
      </trkpt>
      <trkpt lat="40.82525" lon="0.44907">
        <ele>122.4</ele>
        <time>2022-05-24 16:24:54</time>
      </trkpt>
      <trkpt lat="40.82524" lon="0.44903">
        <ele>122.4</ele>
        <time>2022-05-24 16:24:55</time>
      </trkpt>
      <trkpt lat="40.82524" lon="0.44899">
        <ele>122.6</ele>
        <time>2022-05-24 16:24:56</time>
      </trkpt>
      <trkpt lat="40.82524" lon="0.44895">
        <ele>122.8</ele>
        <time>2022-05-24 16:24:57</time>
      </trkpt>
      <trkpt lat="40.82524" lon="0.44891">
        <ele>122.8</ele>
        <time>2022-05-24 16:24:58</time>
      </trkpt>
      <trkpt lat="40.82524" lon="0.44887">
        <ele>123</ele>
        <time>2022-05-24 16:24:59</time>
      </trkpt>
      <trkpt lat="40.82524" lon="0.44882">
        <ele>123</ele>
        <time>2022-05-24 16:25:00</time>
      </trkpt>
      <trkpt lat="40.82524" lon="0.44878">
        <ele>123.2</ele>
        <time>2022-05-24 16:25:01</time>
      </trkpt>
      <trkpt lat="40.82524" lon="0.44874">
        <ele>123.2</ele>
        <time>2022-05-24 16:25:02</time>
      </trkpt>
      <trkpt lat="40.82524" lon="0.4487">
        <ele>123.4</ele>
        <time>2022-05-24 16:25:03</time>
      </trkpt>
      <trkpt lat="40.82524" lon="0.44865">
        <ele>123.6</ele>
        <time>2022-05-24 16:25:04</time>
      </trkpt>
      <trkpt lat="40.82523" lon="0.44861">
        <ele>123.6</ele>
        <time>2022-05-24 16:25:05</time>
      </trkpt>
      <trkpt lat="40.82523" lon="0.44857">
        <ele>123.8</ele>
        <time>2022-05-24 16:25:06</time>
      </trkpt>
      <trkpt lat="40.82523" lon="0.44853">
        <ele>123.8</ele>
        <time>2022-05-24 16:25:07</time>
      </trkpt>
      <trkpt lat="40.82522" lon="0.44849">
        <ele>124</ele>
        <time>2022-05-24 16:25:08</time>
      </trkpt>
      <trkpt lat="40.82522" lon="0.44845">
        <ele>124</ele>
        <time>2022-05-24 16:25:09</time>
      </trkpt>
      <trkpt lat="40.82521" lon="0.4484">
        <ele>124.2</ele>
        <time>2022-05-24 16:25:10</time>
      </trkpt>
      <trkpt lat="40.82521" lon="0.44836">
        <ele>124.4</ele>
        <time>2022-05-24 16:25:11</time>
      </trkpt>
      <trkpt lat="40.8252" lon="0.44832">
        <ele>124.4</ele>
        <time>2022-05-24 16:25:12</time>
      </trkpt>
      <trkpt lat="40.8252" lon="0.44828">
        <ele>124.6</ele>
        <time>2022-05-24 16:25:13</time>
      </trkpt>
      <trkpt lat="40.8252" lon="0.44823">
        <ele>124.6</ele>
        <time>2022-05-24 16:25:14</time>
      </trkpt>
      <trkpt lat="40.82521" lon="0.44819">
        <ele>124.6</ele>
        <time>2022-05-24 16:25:15</time>
      </trkpt>
      <trkpt lat="40.82521" lon="0.44815">
        <ele>124.8</ele>
        <time>2022-05-24 16:25:16</time>
      </trkpt>
      <trkpt lat="40.82521" lon="0.44811">
        <ele>124.8</ele>
        <time>2022-05-24 16:25:17</time>
      </trkpt>
      <trkpt lat="40.8252" lon="0.44806">
        <ele>125</ele>
        <time>2022-05-24 16:25:18</time>
      </trkpt>
      <trkpt lat="40.8252" lon="0.44802">
        <ele>125</ele>
        <time>2022-05-24 16:25:19</time>
      </trkpt>
      <trkpt lat="40.8252" lon="0.44798">
        <ele>125</ele>
        <time>2022-05-24 16:25:20</time>
      </trkpt>
      <trkpt lat="40.82519" lon="0.44794">
        <ele>125.2</ele>
        <time>2022-05-24 16:25:21</time>
      </trkpt>
      <trkpt lat="40.82519" lon="0.44789">
        <ele>125.2</ele>
        <time>2022-05-24 16:25:22</time>
      </trkpt>
      <trkpt lat="40.82519" lon="0.44785">
        <ele>125.4</ele>
        <time>2022-05-24 16:25:23</time>
      </trkpt>
      <trkpt lat="40.82519" lon="0.44781">
        <ele>125.4</ele>
        <time>2022-05-24 16:25:24</time>
      </trkpt>
      <trkpt lat="40.8252" lon="0.44776">
        <ele>125.6</ele>
        <time>2022-05-24 16:25:25</time>
      </trkpt>
      <trkpt lat="40.8252" lon="0.44772">
        <ele>125.6</ele>
        <time>2022-05-24 16:25:26</time>
      </trkpt>
      <trkpt lat="40.82519" lon="0.44768">
        <ele>125.8</ele>
        <time>2022-05-24 16:25:27</time>
      </trkpt>
      <trkpt lat="40.82519" lon="0.44764">
        <ele>125.8</ele>
        <time>2022-05-24 16:25:28</time>
      </trkpt>
      <trkpt lat="40.82519" lon="0.4476">
        <ele>126</ele>
        <time>2022-05-24 16:25:29</time>
      </trkpt>
      <trkpt lat="40.82519" lon="0.44756">
        <ele>126.2</ele>
        <time>2022-05-24 16:25:30</time>
      </trkpt>
      <trkpt lat="40.82519" lon="0.44752">
        <ele>126.2</ele>
        <time>2022-05-24 16:25:31</time>
      </trkpt>
      <trkpt lat="40.82519" lon="0.44748">
        <ele>126.4</ele>
        <time>2022-05-24 16:25:32</time>
      </trkpt>
      <trkpt lat="40.82519" lon="0.44744">
        <ele>126.4</ele>
        <time>2022-05-24 16:25:33</time>
      </trkpt>
      <trkpt lat="40.82519" lon="0.44739">
        <ele>126.6</ele>
        <time>2022-05-24 16:25:34</time>
      </trkpt>
      <trkpt lat="40.82519" lon="0.44735">
        <ele>126.6</ele>
        <time>2022-05-24 16:25:35</time>
      </trkpt>
      <trkpt lat="40.82519" lon="0.44731">
        <ele>126.8</ele>
        <time>2022-05-24 16:25:36</time>
      </trkpt>
      <trkpt lat="40.82519" lon="0.44727">
        <ele>126.8</ele>
        <time>2022-05-24 16:25:37</time>
      </trkpt>
      <trkpt lat="40.82519" lon="0.44724">
        <ele>127</ele>
        <time>2022-05-24 16:25:38</time>
      </trkpt>
      <trkpt lat="40.82519" lon="0.4472">
        <ele>127</ele>
        <time>2022-05-24 16:25:39</time>
      </trkpt>
      <trkpt lat="40.82519" lon="0.44716">
        <ele>127.2</ele>
        <time>2022-05-24 16:25:40</time>
      </trkpt>
      <trkpt lat="40.82519" lon="0.44711">
        <ele>127.4</ele>
        <time>2022-05-24 16:25:41</time>
      </trkpt>
      <trkpt lat="40.82519" lon="0.44707">
        <ele>127.4</ele>
        <time>2022-05-24 16:25:42</time>
      </trkpt>
      <trkpt lat="40.82519" lon="0.44703">
        <ele>127.6</ele>
        <time>2022-05-24 16:25:43</time>
      </trkpt>
      <trkpt lat="40.82518" lon="0.44699">
        <ele>127.6</ele>
        <time>2022-05-24 16:25:44</time>
      </trkpt>
      <trkpt lat="40.82518" lon="0.44696">
        <ele>127.8</ele>
        <time>2022-05-24 16:25:45</time>
      </trkpt>
      <trkpt lat="40.82519" lon="0.44691">
        <ele>127.8</ele>
        <time>2022-05-24 16:25:46</time>
      </trkpt>
      <trkpt lat="40.82519" lon="0.44688">
        <ele>128</ele>
        <time>2022-05-24 16:25:47</time>
      </trkpt>
      <trkpt lat="40.82519" lon="0.44684">
        <ele>128.2</ele>
        <time>2022-05-24 16:25:48</time>
      </trkpt>
      <trkpt lat="40.82519" lon="0.4468">
        <ele>128.2</ele>
        <time>2022-05-24 16:25:49</time>
      </trkpt>
      <trkpt lat="40.8252" lon="0.44676">
        <ele>128.4</ele>
        <time>2022-05-24 16:25:50</time>
      </trkpt>
      <trkpt lat="40.8252" lon="0.44672">
        <ele>128.4</ele>
        <time>2022-05-24 16:25:51</time>
      </trkpt>
      <trkpt lat="40.8252" lon="0.44668">
        <ele>128.4</ele>
        <time>2022-05-24 16:25:52</time>
      </trkpt>
      <trkpt lat="40.8252" lon="0.44663">
        <ele>128.6</ele>
        <time>2022-05-24 16:25:53</time>
      </trkpt>
      <trkpt lat="40.8252" lon="0.44659">
        <ele>128.6</ele>
        <time>2022-05-24 16:25:54</time>
      </trkpt>
      <trkpt lat="40.8252" lon="0.44655">
        <ele>128.8</ele>
        <time>2022-05-24 16:25:55</time>
      </trkpt>
      <trkpt lat="40.82521" lon="0.44651">
        <ele>129</ele>
        <time>2022-05-24 16:25:56</time>
      </trkpt>
      <trkpt lat="40.8252" lon="0.44647">
        <ele>129</ele>
        <time>2022-05-24 16:25:57</time>
      </trkpt>
      <trkpt lat="40.8252" lon="0.44643">
        <ele>129.2</ele>
        <time>2022-05-24 16:25:58</time>
      </trkpt>
      <trkpt lat="40.8252" lon="0.44638">
        <ele>129.2</ele>
        <time>2022-05-24 16:25:59</time>
      </trkpt>
      <trkpt lat="40.8252" lon="0.44634">
        <ele>129.4</ele>
        <time>2022-05-24 16:26:00</time>
      </trkpt>
      <trkpt lat="40.82521" lon="0.4463">
        <ele>129.4</ele>
        <time>2022-05-24 16:26:01</time>
      </trkpt>
      <trkpt lat="40.82521" lon="0.44625">
        <ele>129.6</ele>
        <time>2022-05-24 16:26:02</time>
      </trkpt>
      <trkpt lat="40.82521" lon="0.44621">
        <ele>129.8</ele>
        <time>2022-05-24 16:26:03</time>
      </trkpt>
      <trkpt lat="40.8252" lon="0.44618">
        <ele>130</ele>
        <time>2022-05-24 16:26:04</time>
      </trkpt>
      <trkpt lat="40.8252" lon="0.44613">
        <ele>130</ele>
        <time>2022-05-24 16:26:05</time>
      </trkpt>
      <trkpt lat="40.8252" lon="0.44609">
        <ele>130.2</ele>
        <time>2022-05-24 16:26:06</time>
      </trkpt>
      <trkpt lat="40.82521" lon="0.44605">
        <ele>130.4</ele>
        <time>2022-05-24 16:26:07</time>
      </trkpt>
      <trkpt lat="40.82521" lon="0.44601">
        <ele>130.4</ele>
        <time>2022-05-24 16:26:08</time>
      </trkpt>
      <trkpt lat="40.82521" lon="0.44597">
        <ele>130.6</ele>
        <time>2022-05-24 16:26:09</time>
      </trkpt>
      <trkpt lat="40.82522" lon="0.44593">
        <ele>130.8</ele>
        <time>2022-05-24 16:26:10</time>
      </trkpt>
      <trkpt lat="40.82522" lon="0.44589">
        <ele>130.8</ele>
        <time>2022-05-24 16:26:11</time>
      </trkpt>
      <trkpt lat="40.82522" lon="0.44584">
        <ele>131</ele>
        <time>2022-05-24 16:26:12</time>
      </trkpt>
      <trkpt lat="40.82523" lon="0.4458">
        <ele>131.2</ele>
        <time>2022-05-24 16:26:13</time>
      </trkpt>
      <trkpt lat="40.82523" lon="0.44575">
        <ele>131.2</ele>
        <time>2022-05-24 16:26:14</time>
      </trkpt>
      <trkpt lat="40.82523" lon="0.44571">
        <ele>131.4</ele>
        <time>2022-05-24 16:26:15</time>
      </trkpt>
      <trkpt lat="40.82524" lon="0.44566">
        <ele>131.6</ele>
        <time>2022-05-24 16:26:16</time>
      </trkpt>
      <trkpt lat="40.82524" lon="0.44562">
        <ele>131.6</ele>
        <time>2022-05-24 16:26:17</time>
      </trkpt>
      <trkpt lat="40.82524" lon="0.44558">
        <ele>131.8</ele>
        <time>2022-05-24 16:26:18</time>
      </trkpt>
      <trkpt lat="40.82524" lon="0.44554">
        <ele>131.8</ele>
        <time>2022-05-24 16:26:19</time>
      </trkpt>
      <trkpt lat="40.82524" lon="0.44549">
        <ele>132</ele>
        <time>2022-05-24 16:26:20</time>
      </trkpt>
      <trkpt lat="40.82525" lon="0.44545">
        <ele>132.2</ele>
        <time>2022-05-24 16:26:21</time>
      </trkpt>
      <trkpt lat="40.82525" lon="0.44541">
        <ele>132.2</ele>
        <time>2022-05-24 16:26:22</time>
      </trkpt>
      <trkpt lat="40.82525" lon="0.44537">
        <ele>132.4</ele>
        <time>2022-05-24 16:26:23</time>
      </trkpt>
      <trkpt lat="40.82525" lon="0.44533">
        <ele>132.4</ele>
        <time>2022-05-24 16:26:24</time>
      </trkpt>
      <trkpt lat="40.82525" lon="0.44529">
        <ele>132.6</ele>
        <time>2022-05-24 16:26:25</time>
      </trkpt>
      <trkpt lat="40.82525" lon="0.44525">
        <ele>132.8</ele>
        <time>2022-05-24 16:26:26</time>
      </trkpt>
      <trkpt lat="40.82525" lon="0.44521">
        <ele>133</ele>
        <time>2022-05-24 16:26:27</time>
      </trkpt>
      <trkpt lat="40.82525" lon="0.44517">
        <ele>133.2</ele>
        <time>2022-05-24 16:26:28</time>
      </trkpt>
      <trkpt lat="40.82525" lon="0.44513">
        <ele>133.2</ele>
        <time>2022-05-24 16:26:29</time>
      </trkpt>
      <trkpt lat="40.82526" lon="0.44509">
        <ele>133.4</ele>
        <time>2022-05-24 16:26:30</time>
      </trkpt>
      <trkpt lat="40.82526" lon="0.44505">
        <ele>133.6</ele>
        <time>2022-05-24 16:26:31</time>
      </trkpt>
      <trkpt lat="40.82526" lon="0.44501">
        <ele>133.6</ele>
        <time>2022-05-24 16:26:32</time>
      </trkpt>
      <trkpt lat="40.82526" lon="0.44497">
        <ele>133.8</ele>
        <time>2022-05-24 16:26:33</time>
      </trkpt>
      <trkpt lat="40.82526" lon="0.44493">
        <ele>133.8</ele>
        <time>2022-05-24 16:26:34</time>
      </trkpt>
      <trkpt lat="40.82526" lon="0.44489">
        <ele>134</ele>
        <time>2022-05-24 16:26:35</time>
      </trkpt>
      <trkpt lat="40.82525" lon="0.44485">
        <ele>134.2</ele>
        <time>2022-05-24 16:26:36</time>
      </trkpt>
      <trkpt lat="40.82525" lon="0.44481">
        <ele>134.4</ele>
        <time>2022-05-24 16:26:37</time>
      </trkpt>
      <trkpt lat="40.82525" lon="0.44477">
        <ele>134.4</ele>
        <time>2022-05-24 16:26:38</time>
      </trkpt>
      <trkpt lat="40.82524" lon="0.44473">
        <ele>134.6</ele>
        <time>2022-05-24 16:26:39</time>
      </trkpt>
      <trkpt lat="40.82524" lon="0.4447">
        <ele>134.6</ele>
        <time>2022-05-24 16:26:40</time>
      </trkpt>
      <trkpt lat="40.82524" lon="0.44466">
        <ele>134.8</ele>
        <time>2022-05-24 16:26:41</time>
      </trkpt>
      <trkpt lat="40.82525" lon="0.44461">
        <ele>135</ele>
        <time>2022-05-24 16:26:42</time>
      </trkpt>
      <trkpt lat="40.82525" lon="0.44457">
        <ele>135</ele>
        <time>2022-05-24 16:26:43</time>
      </trkpt>
      <trkpt lat="40.82526" lon="0.44453">
        <ele>135.2</ele>
        <time>2022-05-24 16:26:44</time>
      </trkpt>
      <trkpt lat="40.82526" lon="0.44449">
        <ele>135.2</ele>
        <time>2022-05-24 16:26:45</time>
      </trkpt>
      <trkpt lat="40.82526" lon="0.44445">
        <ele>135.4</ele>
        <time>2022-05-24 16:26:46</time>
      </trkpt>
      <trkpt lat="40.82526" lon="0.44441">
        <ele>135.6</ele>
        <time>2022-05-24 16:26:47</time>
      </trkpt>
      <trkpt lat="40.82526" lon="0.44437">
        <ele>135.6</ele>
        <time>2022-05-24 16:26:48</time>
      </trkpt>
      <trkpt lat="40.82526" lon="0.44433">
        <ele>135.8</ele>
        <time>2022-05-24 16:26:49</time>
      </trkpt>
      <trkpt lat="40.82526" lon="0.44429">
        <ele>135.8</ele>
        <time>2022-05-24 16:26:50</time>
      </trkpt>
      <trkpt lat="40.82525" lon="0.44425">
        <ele>136</ele>
        <time>2022-05-24 16:26:51</time>
      </trkpt>
      <trkpt lat="40.82525" lon="0.44422">
        <ele>136</ele>
        <time>2022-05-24 16:26:52</time>
      </trkpt>
      <trkpt lat="40.82524" lon="0.44418">
        <ele>136.2</ele>
        <time>2022-05-24 16:26:53</time>
      </trkpt>
      <trkpt lat="40.82524" lon="0.44414">
        <ele>136.4</ele>
        <time>2022-05-24 16:26:54</time>
      </trkpt>
      <trkpt lat="40.82524" lon="0.4441">
        <ele>136.4</ele>
        <time>2022-05-24 16:26:55</time>
      </trkpt>
      <trkpt lat="40.82524" lon="0.44406">
        <ele>136.6</ele>
        <time>2022-05-24 16:26:56</time>
      </trkpt>
      <trkpt lat="40.82524" lon="0.44402">
        <ele>136.6</ele>
        <time>2022-05-24 16:26:57</time>
      </trkpt>
      <trkpt lat="40.82524" lon="0.44398">
        <ele>136.8</ele>
        <time>2022-05-24 16:26:58</time>
      </trkpt>
      <trkpt lat="40.82524" lon="0.44394">
        <ele>137</ele>
        <time>2022-05-24 16:26:59</time>
      </trkpt>
      <trkpt lat="40.82524" lon="0.4439">
        <ele>137</ele>
        <time>2022-05-24 16:27:00</time>
      </trkpt>
      <trkpt lat="40.82524" lon="0.44386">
        <ele>137.2</ele>
        <time>2022-05-24 16:27:01</time>
      </trkpt>
      <trkpt lat="40.82524" lon="0.44383">
        <ele>137.2</ele>
        <time>2022-05-24 16:27:02</time>
      </trkpt>
      <trkpt lat="40.82524" lon="0.44379">
        <ele>137.4</ele>
        <time>2022-05-24 16:27:03</time>
      </trkpt>
      <trkpt lat="40.82524" lon="0.44375">
        <ele>137.6</ele>
        <time>2022-05-24 16:27:04</time>
      </trkpt>
      <trkpt lat="40.82524" lon="0.44371">
        <ele>137.6</ele>
        <time>2022-05-24 16:27:05</time>
      </trkpt>
      <trkpt lat="40.82524" lon="0.44367">
        <ele>137.6</ele>
        <time>2022-05-24 16:27:06</time>
      </trkpt>
      <trkpt lat="40.82524" lon="0.44363">
        <ele>137.8</ele>
        <time>2022-05-24 16:27:07</time>
      </trkpt>
      <trkpt lat="40.82524" lon="0.44359">
        <ele>137.8</ele>
        <time>2022-05-24 16:27:08</time>
      </trkpt>
      <trkpt lat="40.82524" lon="0.44355">
        <ele>138</ele>
        <time>2022-05-24 16:27:09</time>
      </trkpt>
      <trkpt lat="40.82524" lon="0.44351">
        <ele>138.2</ele>
        <time>2022-05-24 16:27:10</time>
      </trkpt>
      <trkpt lat="40.82524" lon="0.44347">
        <ele>138.2</ele>
        <time>2022-05-24 16:27:11</time>
      </trkpt>
      <trkpt lat="40.82524" lon="0.44343">
        <ele>138.4</ele>
        <time>2022-05-24 16:27:12</time>
      </trkpt>
      <trkpt lat="40.82524" lon="0.44339">
        <ele>138.6</ele>
        <time>2022-05-24 16:27:13</time>
      </trkpt>
      <trkpt lat="40.82524" lon="0.44335">
        <ele>138.6</ele>
        <time>2022-05-24 16:27:14</time>
      </trkpt>
      <trkpt lat="40.82524" lon="0.44332">
        <ele>138.8</ele>
        <time>2022-05-24 16:27:15</time>
      </trkpt>
      <trkpt lat="40.82525" lon="0.44327">
        <ele>138.8</ele>
        <time>2022-05-24 16:27:16</time>
      </trkpt>
      <trkpt lat="40.82525" lon="0.44323">
        <ele>139</ele>
        <time>2022-05-24 16:27:17</time>
      </trkpt>
      <trkpt lat="40.82525" lon="0.44319">
        <ele>139.2</ele>
        <time>2022-05-24 16:27:18</time>
      </trkpt>
      <trkpt lat="40.82526" lon="0.44315">
        <ele>139.2</ele>
        <time>2022-05-24 16:27:19</time>
      </trkpt>
      <trkpt lat="40.82526" lon="0.44311">
        <ele>139.4</ele>
        <time>2022-05-24 16:27:20</time>
      </trkpt>
      <trkpt lat="40.82526" lon="0.44307">
        <ele>139.4</ele>
        <time>2022-05-24 16:27:21</time>
      </trkpt>
      <trkpt lat="40.82526" lon="0.44303">
        <ele>139.6</ele>
        <time>2022-05-24 16:27:22</time>
      </trkpt>
      <trkpt lat="40.82526" lon="0.44299">
        <ele>139.6</ele>
        <time>2022-05-24 16:27:23</time>
      </trkpt>
      <trkpt lat="40.82527" lon="0.44295">
        <ele>139.8</ele>
        <time>2022-05-24 16:27:24</time>
      </trkpt>
      <trkpt lat="40.82527" lon="0.44291">
        <ele>139.8</ele>
        <time>2022-05-24 16:27:25</time>
      </trkpt>
      <trkpt lat="40.82527" lon="0.44287">
        <ele>140</ele>
        <time>2022-05-24 16:27:26</time>
      </trkpt>
      <trkpt lat="40.82527" lon="0.44283">
        <ele>140</ele>
        <time>2022-05-24 16:27:27</time>
      </trkpt>
      <trkpt lat="40.82528" lon="0.44279">
        <ele>140</ele>
        <time>2022-05-24 16:27:28</time>
      </trkpt>
      <trkpt lat="40.82528" lon="0.44275">
        <ele>140.2</ele>
        <time>2022-05-24 16:27:29</time>
      </trkpt>
      <trkpt lat="40.82528" lon="0.44271">
        <ele>140.2</ele>
        <time>2022-05-24 16:27:30</time>
      </trkpt>
      <trkpt lat="40.82529" lon="0.44267">
        <ele>140.4</ele>
        <time>2022-05-24 16:27:31</time>
      </trkpt>
      <trkpt lat="40.82529" lon="0.44263">
        <ele>140.6</ele>
        <time>2022-05-24 16:27:32</time>
      </trkpt>
      <trkpt lat="40.82529" lon="0.44259">
        <ele>140.6</ele>
        <time>2022-05-24 16:27:33</time>
      </trkpt>
      <trkpt lat="40.82529" lon="0.44255">
        <ele>140.8</ele>
        <time>2022-05-24 16:27:34</time>
      </trkpt>
      <trkpt lat="40.82529" lon="0.44251">
        <ele>140.8</ele>
        <time>2022-05-24 16:27:35</time>
      </trkpt>
      <trkpt lat="40.82529" lon="0.44247">
        <ele>141</ele>
        <time>2022-05-24 16:27:36</time>
      </trkpt>
      <trkpt lat="40.82529" lon="0.44243">
        <ele>141</ele>
        <time>2022-05-24 16:27:37</time>
      </trkpt>
      <trkpt lat="40.82529" lon="0.4424">
        <ele>141.2</ele>
        <time>2022-05-24 16:27:38</time>
      </trkpt>
      <trkpt lat="40.8253" lon="0.44236">
        <ele>141.2</ele>
        <time>2022-05-24 16:27:39</time>
      </trkpt>
      <trkpt lat="40.8253" lon="0.44232">
        <ele>141.4</ele>
        <time>2022-05-24 16:27:40</time>
      </trkpt>
      <trkpt lat="40.8253" lon="0.44228">
        <ele>141.4</ele>
        <time>2022-05-24 16:27:41</time>
      </trkpt>
      <trkpt lat="40.8253" lon="0.44224">
        <ele>141.6</ele>
        <time>2022-05-24 16:27:42</time>
      </trkpt>
      <trkpt lat="40.8253" lon="0.44221">
        <ele>141.6</ele>
        <time>2022-05-24 16:27:43</time>
      </trkpt>
      <trkpt lat="40.8253" lon="0.44217">
        <ele>141.8</ele>
        <time>2022-05-24 16:27:44</time>
      </trkpt>
      <trkpt lat="40.8253" lon="0.44214">
        <ele>141.8</ele>
        <time>2022-05-24 16:27:45</time>
      </trkpt>
      <trkpt lat="40.8253" lon="0.4421">
        <ele>142</ele>
        <time>2022-05-24 16:27:46</time>
      </trkpt>
      <trkpt lat="40.8253" lon="0.44206">
        <ele>142</ele>
        <time>2022-05-24 16:27:47</time>
      </trkpt>
      <trkpt lat="40.82531" lon="0.44203">
        <ele>142.2</ele>
        <time>2022-05-24 16:27:48</time>
      </trkpt>
      <trkpt lat="40.82531" lon="0.44199">
        <ele>142.4</ele>
        <time>2022-05-24 16:27:49</time>
      </trkpt>
      <trkpt lat="40.82531" lon="0.44195">
        <ele>142.4</ele>
        <time>2022-05-24 16:27:50</time>
      </trkpt>
      <trkpt lat="40.82531" lon="0.44191">
        <ele>142.6</ele>
        <time>2022-05-24 16:27:51</time>
      </trkpt>
      <trkpt lat="40.82532" lon="0.44187">
        <ele>142.6</ele>
        <time>2022-05-24 16:27:52</time>
      </trkpt>
      <trkpt lat="40.82532" lon="0.44183">
        <ele>142.8</ele>
        <time>2022-05-24 16:27:53</time>
      </trkpt>
      <trkpt lat="40.82533" lon="0.4418">
        <ele>142.8</ele>
        <time>2022-05-24 16:27:54</time>
      </trkpt>
      <trkpt lat="40.82533" lon="0.44176">
        <ele>143</ele>
        <time>2022-05-24 16:27:55</time>
      </trkpt>
      <trkpt lat="40.82533" lon="0.44172">
        <ele>143.2</ele>
        <time>2022-05-24 16:27:56</time>
      </trkpt>
      <trkpt lat="40.82534" lon="0.44168">
        <ele>143.2</ele>
        <time>2022-05-24 16:27:57</time>
      </trkpt>
      <trkpt lat="40.82534" lon="0.44164">
        <ele>143.4</ele>
        <time>2022-05-24 16:27:58</time>
      </trkpt>
      <trkpt lat="40.82535" lon="0.4416">
        <ele>143.6</ele>
        <time>2022-05-24 16:27:59</time>
      </trkpt>
      <trkpt lat="40.82535" lon="0.44157">
        <ele>143.8</ele>
        <time>2022-05-24 16:28:00</time>
      </trkpt>
      <trkpt lat="40.82536" lon="0.44152">
        <ele>143.8</ele>
        <time>2022-05-24 16:28:01</time>
      </trkpt>
      <trkpt lat="40.82536" lon="0.44148">
        <ele>144</ele>
        <time>2022-05-24 16:28:02</time>
      </trkpt>
      <trkpt lat="40.82536" lon="0.44145">
        <ele>144.2</ele>
        <time>2022-05-24 16:28:03</time>
      </trkpt>
      <trkpt lat="40.82536" lon="0.44141">
        <ele>144.2</ele>
        <time>2022-05-24 16:28:04</time>
      </trkpt>
      <trkpt lat="40.82536" lon="0.44137">
        <ele>144.4</ele>
        <time>2022-05-24 16:28:05</time>
      </trkpt>
      <trkpt lat="40.82536" lon="0.44133">
        <ele>144.6</ele>
        <time>2022-05-24 16:28:06</time>
      </trkpt>
      <trkpt lat="40.82536" lon="0.44129">
        <ele>144.6</ele>
        <time>2022-05-24 16:28:07</time>
      </trkpt>
      <trkpt lat="40.82536" lon="0.44125">
        <ele>144.8</ele>
        <time>2022-05-24 16:28:08</time>
      </trkpt>
      <trkpt lat="40.82536" lon="0.4412">
        <ele>145</ele>
        <time>2022-05-24 16:28:09</time>
      </trkpt>
      <trkpt lat="40.82537" lon="0.44116">
        <ele>145.2</ele>
        <time>2022-05-24 16:28:10</time>
      </trkpt>
      <trkpt lat="40.82537" lon="0.44112">
        <ele>145.4</ele>
        <time>2022-05-24 16:28:11</time>
      </trkpt>
      <trkpt lat="40.82538" lon="0.44108">
        <ele>145.6</ele>
        <time>2022-05-24 16:28:12</time>
      </trkpt>
      <trkpt lat="40.82539" lon="0.44105">
        <ele>145.8</ele>
        <time>2022-05-24 16:28:13</time>
      </trkpt>
      <trkpt lat="40.82539" lon="0.441">
        <ele>146</ele>
        <time>2022-05-24 16:28:14</time>
      </trkpt>
      <trkpt lat="40.82539" lon="0.44096">
        <ele>146.2</ele>
        <time>2022-05-24 16:28:15</time>
      </trkpt>
      <trkpt lat="40.82539" lon="0.44092">
        <ele>146.4</ele>
        <time>2022-05-24 16:28:16</time>
      </trkpt>
      <trkpt lat="40.82539" lon="0.44089">
        <ele>146.4</ele>
        <time>2022-05-24 16:28:17</time>
      </trkpt>
      <trkpt lat="40.82539" lon="0.44085">
        <ele>146.6</ele>
        <time>2022-05-24 16:28:18</time>
      </trkpt>
      <trkpt lat="40.82539" lon="0.44081">
        <ele>146.8</ele>
        <time>2022-05-24 16:28:19</time>
      </trkpt>
      <trkpt lat="40.82538" lon="0.44076">
        <ele>146.8</ele>
        <time>2022-05-24 16:28:20</time>
      </trkpt>
      <trkpt lat="40.82538" lon="0.44071">
        <ele>146.8</ele>
        <time>2022-05-24 16:28:21</time>
      </trkpt>
      <trkpt lat="40.82538" lon="0.44066">
        <ele>147</ele>
        <time>2022-05-24 16:28:22</time>
      </trkpt>
      <trkpt lat="40.82539" lon="0.44061">
        <ele>147</ele>
        <time>2022-05-24 16:28:23</time>
      </trkpt>
      <trkpt lat="40.82539" lon="0.44056">
        <ele>147</ele>
        <time>2022-05-24 16:28:24</time>
      </trkpt>
      <trkpt lat="40.82539" lon="0.44051">
        <ele>147</ele>
        <time>2022-05-24 16:28:25</time>
      </trkpt>
      <trkpt lat="40.82539" lon="0.44047">
        <ele>147</ele>
        <time>2022-05-24 16:28:26</time>
      </trkpt>
      <trkpt lat="40.82539" lon="0.44042">
        <ele>147</ele>
        <time>2022-05-24 16:28:27</time>
      </trkpt>
      <trkpt lat="40.82539" lon="0.44037">
        <ele>147.2</ele>
        <time>2022-05-24 16:28:28</time>
      </trkpt>
      <trkpt lat="40.8254" lon="0.44033">
        <ele>147.2</ele>
        <time>2022-05-24 16:28:29</time>
      </trkpt>
      <trkpt lat="40.8254" lon="0.44028">
        <ele>147.2</ele>
        <time>2022-05-24 16:28:30</time>
      </trkpt>
      <trkpt lat="40.8254" lon="0.44024">
        <ele>147.4</ele>
        <time>2022-05-24 16:28:31</time>
      </trkpt>
      <trkpt lat="40.8254" lon="0.44019">
        <ele>147.4</ele>
        <time>2022-05-24 16:28:32</time>
      </trkpt>
      <trkpt lat="40.8254" lon="0.44015">
        <ele>147.4</ele>
        <time>2022-05-24 16:28:33</time>
      </trkpt>
      <trkpt lat="40.82541" lon="0.44011">
        <ele>147.6</ele>
        <time>2022-05-24 16:28:34</time>
      </trkpt>
      <trkpt lat="40.82541" lon="0.44007">
        <ele>147.6</ele>
        <time>2022-05-24 16:28:35</time>
      </trkpt>
      <trkpt lat="40.82542" lon="0.44002">
        <ele>147.6</ele>
        <time>2022-05-24 16:28:36</time>
      </trkpt>
      <trkpt lat="40.82542" lon="0.43998">
        <ele>147.8</ele>
        <time>2022-05-24 16:28:37</time>
      </trkpt>
      <trkpt lat="40.82542" lon="0.43994">
        <ele>147.8</ele>
        <time>2022-05-24 16:28:38</time>
      </trkpt>
      <trkpt lat="40.82542" lon="0.4399">
        <ele>147.8</ele>
        <time>2022-05-24 16:28:39</time>
      </trkpt>
      <trkpt lat="40.82542" lon="0.43986">
        <ele>148</ele>
        <time>2022-05-24 16:28:40</time>
      </trkpt>
      <trkpt lat="40.82543" lon="0.43982">
        <ele>148</ele>
        <time>2022-05-24 16:28:41</time>
      </trkpt>
      <trkpt lat="40.82543" lon="0.43977">
        <ele>148.2</ele>
        <time>2022-05-24 16:28:42</time>
      </trkpt>
      <trkpt lat="40.82543" lon="0.43973">
        <ele>148.2</ele>
        <time>2022-05-24 16:28:43</time>
      </trkpt>
      <trkpt lat="40.82544" lon="0.43969">
        <ele>148.4</ele>
        <time>2022-05-24 16:28:44</time>
      </trkpt>
      <trkpt lat="40.82544" lon="0.43965">
        <ele>148.4</ele>
        <time>2022-05-24 16:28:45</time>
      </trkpt>
      <trkpt lat="40.82544" lon="0.43961">
        <ele>148.6</ele>
        <time>2022-05-24 16:28:46</time>
      </trkpt>
      <trkpt lat="40.82544" lon="0.43957">
        <ele>148.8</ele>
        <time>2022-05-24 16:28:47</time>
      </trkpt>
      <trkpt lat="40.82544" lon="0.43953">
        <ele>148.8</ele>
        <time>2022-05-24 16:28:48</time>
      </trkpt>
      <trkpt lat="40.82544" lon="0.43949">
        <ele>149</ele>
        <time>2022-05-24 16:28:49</time>
      </trkpt>
      <trkpt lat="40.82544" lon="0.43945">
        <ele>149.2</ele>
        <time>2022-05-24 16:28:50</time>
      </trkpt>
      <trkpt lat="40.82544" lon="0.43942">
        <ele>149.2</ele>
        <time>2022-05-24 16:28:51</time>
      </trkpt>
      <trkpt lat="40.82545" lon="0.43938">
        <ele>149.4</ele>
        <time>2022-05-24 16:28:52</time>
      </trkpt>
      <trkpt lat="40.82545" lon="0.43934">
        <ele>149.6</ele>
        <time>2022-05-24 16:28:53</time>
      </trkpt>
      <trkpt lat="40.82545" lon="0.4393">
        <ele>149.6</ele>
        <time>2022-05-24 16:28:54</time>
      </trkpt>
      <trkpt lat="40.82545" lon="0.43927">
        <ele>149.8</ele>
        <time>2022-05-24 16:28:55</time>
      </trkpt>
      <trkpt lat="40.82545" lon="0.43923">
        <ele>150</ele>
        <time>2022-05-24 16:28:56</time>
      </trkpt>
      <trkpt lat="40.82545" lon="0.43919">
        <ele>150</ele>
        <time>2022-05-24 16:28:57</time>
      </trkpt>
      <trkpt lat="40.82545" lon="0.43915">
        <ele>150.2</ele>
        <time>2022-05-24 16:28:58</time>
      </trkpt>
      <trkpt lat="40.82545" lon="0.43911">
        <ele>150.2</ele>
        <time>2022-05-24 16:28:59</time>
      </trkpt>
      <trkpt lat="40.82545" lon="0.43908">
        <ele>150.4</ele>
        <time>2022-05-24 16:29:00</time>
      </trkpt>
      <trkpt lat="40.82545" lon="0.43904">
        <ele>150.6</ele>
        <time>2022-05-24 16:29:01</time>
      </trkpt>
      <trkpt lat="40.82546" lon="0.439">
        <ele>150.6</ele>
        <time>2022-05-24 16:29:02</time>
      </trkpt>
      <trkpt lat="40.82546" lon="0.43895">
        <ele>150.8</ele>
        <time>2022-05-24 16:29:03</time>
      </trkpt>
      <trkpt lat="40.82547" lon="0.43891">
        <ele>150.8</ele>
        <time>2022-05-24 16:29:04</time>
      </trkpt>
      <trkpt lat="40.82547" lon="0.43887">
        <ele>151</ele>
        <time>2022-05-24 16:29:05</time>
      </trkpt>
      <trkpt lat="40.82548" lon="0.43882">
        <ele>151.2</ele>
        <time>2022-05-24 16:29:06</time>
      </trkpt>
      <trkpt lat="40.82549" lon="0.43878">
        <ele>151.4</ele>
        <time>2022-05-24 16:29:07</time>
      </trkpt>
      <trkpt lat="40.82549" lon="0.43873">
        <ele>151.4</ele>
        <time>2022-05-24 16:29:08</time>
      </trkpt>
      <trkpt lat="40.82549" lon="0.43869">
        <ele>151.6</ele>
        <time>2022-05-24 16:29:09</time>
      </trkpt>
      <trkpt lat="40.82549" lon="0.43864">
        <ele>151.8</ele>
        <time>2022-05-24 16:29:10</time>
      </trkpt>
      <trkpt lat="40.8255" lon="0.4386">
        <ele>152</ele>
        <time>2022-05-24 16:29:11</time>
      </trkpt>
      <trkpt lat="40.8255" lon="0.43855">
        <ele>152</ele>
        <time>2022-05-24 16:29:12</time>
      </trkpt>
      <trkpt lat="40.8255" lon="0.43851">
        <ele>152.2</ele>
        <time>2022-05-24 16:29:13</time>
      </trkpt>
      <trkpt lat="40.8255" lon="0.43846">
        <ele>152.4</ele>
        <time>2022-05-24 16:29:14</time>
      </trkpt>
      <trkpt lat="40.82551" lon="0.43842">
        <ele>152.4</ele>
        <time>2022-05-24 16:29:15</time>
      </trkpt>
      <trkpt lat="40.82552" lon="0.43838">
        <ele>152.6</ele>
        <time>2022-05-24 16:29:16</time>
      </trkpt>
      <trkpt lat="40.82552" lon="0.43833">
        <ele>152.8</ele>
        <time>2022-05-24 16:29:17</time>
      </trkpt>
      <trkpt lat="40.82552" lon="0.43829">
        <ele>152.8</ele>
        <time>2022-05-24 16:29:18</time>
      </trkpt>
      <trkpt lat="40.82552" lon="0.43824">
        <ele>153</ele>
        <time>2022-05-24 16:29:19</time>
      </trkpt>
      <trkpt lat="40.82552" lon="0.4382">
        <ele>153.2</ele>
        <time>2022-05-24 16:29:20</time>
      </trkpt>
      <trkpt lat="40.82552" lon="0.43816">
        <ele>153.4</ele>
        <time>2022-05-24 16:29:21</time>
      </trkpt>
      <trkpt lat="40.82552" lon="0.43811">
        <ele>153.4</ele>
        <time>2022-05-24 16:29:22</time>
      </trkpt>
      <trkpt lat="40.82552" lon="0.43806">
        <ele>153.6</ele>
        <time>2022-05-24 16:29:23</time>
      </trkpt>
      <trkpt lat="40.82553" lon="0.43802">
        <ele>153.8</ele>
        <time>2022-05-24 16:29:24</time>
      </trkpt>
      <trkpt lat="40.82553" lon="0.43797">
        <ele>153.8</ele>
        <time>2022-05-24 16:29:25</time>
      </trkpt>
      <trkpt lat="40.82553" lon="0.43793">
        <ele>154</ele>
        <time>2022-05-24 16:29:26</time>
      </trkpt>
      <trkpt lat="40.82553" lon="0.43788">
        <ele>154.2</ele>
        <time>2022-05-24 16:29:27</time>
      </trkpt>
      <trkpt lat="40.82554" lon="0.43784">
        <ele>154.4</ele>
        <time>2022-05-24 16:29:28</time>
      </trkpt>
      <trkpt lat="40.82554" lon="0.43779">
        <ele>154.4</ele>
        <time>2022-05-24 16:29:29</time>
      </trkpt>
      <trkpt lat="40.82554" lon="0.43775">
        <ele>154.6</ele>
        <time>2022-05-24 16:29:30</time>
      </trkpt>
      <trkpt lat="40.82554" lon="0.43771">
        <ele>154.8</ele>
        <time>2022-05-24 16:29:31</time>
      </trkpt>
      <trkpt lat="40.82554" lon="0.43766">
        <ele>154.8</ele>
        <time>2022-05-24 16:29:32</time>
      </trkpt>
      <trkpt lat="40.82555" lon="0.43762">
        <ele>155</ele>
        <time>2022-05-24 16:29:33</time>
      </trkpt>
      <trkpt lat="40.82555" lon="0.43758">
        <ele>155.2</ele>
        <time>2022-05-24 16:29:34</time>
      </trkpt>
      <trkpt lat="40.82555" lon="0.43753">
        <ele>155.4</ele>
        <time>2022-05-24 16:29:35</time>
      </trkpt>
      <trkpt lat="40.82555" lon="0.43749">
        <ele>155.6</ele>
        <time>2022-05-24 16:29:36</time>
      </trkpt>
      <trkpt lat="40.82555" lon="0.43745">
        <ele>155.6</ele>
        <time>2022-05-24 16:29:37</time>
      </trkpt>
      <trkpt lat="40.82556" lon="0.43741">
        <ele>155.8</ele>
        <time>2022-05-24 16:29:38</time>
      </trkpt>
      <trkpt lat="40.82556" lon="0.43737">
        <ele>156</ele>
        <time>2022-05-24 16:29:39</time>
      </trkpt>
      <trkpt lat="40.82556" lon="0.43734">
        <ele>156</ele>
        <time>2022-05-24 16:29:40</time>
      </trkpt>
      <trkpt lat="40.82556" lon="0.4373">
        <ele>156.2</ele>
        <time>2022-05-24 16:29:41</time>
      </trkpt>
      <trkpt lat="40.82556" lon="0.43726">
        <ele>156.2</ele>
        <time>2022-05-24 16:29:42</time>
      </trkpt>
      <trkpt lat="40.82556" lon="0.43722">
        <ele>156.4</ele>
        <time>2022-05-24 16:29:43</time>
      </trkpt>
      <trkpt lat="40.82557" lon="0.43718">
        <ele>156.6</ele>
        <time>2022-05-24 16:29:44</time>
      </trkpt>
      <trkpt lat="40.82557" lon="0.43714">
        <ele>156.8</ele>
        <time>2022-05-24 16:29:45</time>
      </trkpt>
      <trkpt lat="40.82558" lon="0.43711">
        <ele>157</ele>
        <time>2022-05-24 16:29:46</time>
      </trkpt>
      <trkpt lat="40.82558" lon="0.43707">
        <ele>157</ele>
        <time>2022-05-24 16:29:47</time>
      </trkpt>
      <trkpt lat="40.82558" lon="0.43703">
        <ele>157.2</ele>
        <time>2022-05-24 16:29:48</time>
      </trkpt>
      <trkpt lat="40.82558" lon="0.43699">
        <ele>157.4</ele>
        <time>2022-05-24 16:29:49</time>
      </trkpt>
      <trkpt lat="40.82559" lon="0.43695">
        <ele>157.6</ele>
        <time>2022-05-24 16:29:50</time>
      </trkpt>
      <trkpt lat="40.82559" lon="0.43691">
        <ele>157.6</ele>
        <time>2022-05-24 16:29:51</time>
      </trkpt>
      <trkpt lat="40.82559" lon="0.43688">
        <ele>157.8</ele>
        <time>2022-05-24 16:29:52</time>
      </trkpt>
      <trkpt lat="40.82559" lon="0.43684">
        <ele>158</ele>
        <time>2022-05-24 16:29:53</time>
      </trkpt>
      <trkpt lat="40.82559" lon="0.4368">
        <ele>158</ele>
        <time>2022-05-24 16:29:54</time>
      </trkpt>
      <trkpt lat="40.82559" lon="0.43676">
        <ele>158.2</ele>
        <time>2022-05-24 16:29:55</time>
      </trkpt>
      <trkpt lat="40.82559" lon="0.43672">
        <ele>158.4</ele>
        <time>2022-05-24 16:29:56</time>
      </trkpt>
      <trkpt lat="40.82559" lon="0.43669">
        <ele>158.6</ele>
        <time>2022-05-24 16:29:57</time>
      </trkpt>
      <trkpt lat="40.8256" lon="0.43665">
        <ele>158.6</ele>
        <time>2022-05-24 16:29:58</time>
      </trkpt>
      <trkpt lat="40.8256" lon="0.43661">
        <ele>158.8</ele>
        <time>2022-05-24 16:29:59</time>
      </trkpt>
      <trkpt lat="40.8256" lon="0.43657">
        <ele>159</ele>
        <time>2022-05-24 16:30:00</time>
      </trkpt>
      <trkpt lat="40.8256" lon="0.43653">
        <ele>159.2</ele>
        <time>2022-05-24 16:30:01</time>
      </trkpt>
      <trkpt lat="40.82561" lon="0.4365">
        <ele>159.2</ele>
        <time>2022-05-24 16:30:02</time>
      </trkpt>
      <trkpt lat="40.82561" lon="0.43645">
        <ele>159.4</ele>
        <time>2022-05-24 16:30:03</time>
      </trkpt>
      <trkpt lat="40.82561" lon="0.43641">
        <ele>159.6</ele>
        <time>2022-05-24 16:30:04</time>
      </trkpt>
      <trkpt lat="40.82561" lon="0.43637">
        <ele>159.6</ele>
        <time>2022-05-24 16:30:05</time>
      </trkpt>
      <trkpt lat="40.82561" lon="0.43633">
        <ele>159.8</ele>
        <time>2022-05-24 16:30:06</time>
      </trkpt>
      <trkpt lat="40.82561" lon="0.43629">
        <ele>160</ele>
        <time>2022-05-24 16:30:07</time>
      </trkpt>
      <trkpt lat="40.82561" lon="0.43625">
        <ele>160.2</ele>
        <time>2022-05-24 16:30:08</time>
      </trkpt>
      <trkpt lat="40.82561" lon="0.43621">
        <ele>160.2</ele>
        <time>2022-05-24 16:30:09</time>
      </trkpt>
      <trkpt lat="40.82562" lon="0.43617">
        <ele>160.4</ele>
        <time>2022-05-24 16:30:10</time>
      </trkpt>
      <trkpt lat="40.82562" lon="0.43613">
        <ele>160.6</ele>
        <time>2022-05-24 16:30:11</time>
      </trkpt>
      <trkpt lat="40.82563" lon="0.43609">
        <ele>160.8</ele>
        <time>2022-05-24 16:30:12</time>
      </trkpt>
      <trkpt lat="40.82563" lon="0.43605">
        <ele>160.8</ele>
        <time>2022-05-24 16:30:13</time>
      </trkpt>
      <trkpt lat="40.82563" lon="0.43601">
        <ele>161</ele>
        <time>2022-05-24 16:30:14</time>
      </trkpt>
      <trkpt lat="40.82564" lon="0.43596">
        <ele>161.2</ele>
        <time>2022-05-24 16:30:15</time>
      </trkpt>
      <trkpt lat="40.82564" lon="0.43592">
        <ele>161.4</ele>
        <time>2022-05-24 16:30:16</time>
      </trkpt>
      <trkpt lat="40.82565" lon="0.43588">
        <ele>161.4</ele>
        <time>2022-05-24 16:30:17</time>
      </trkpt>
      <trkpt lat="40.82565" lon="0.43584">
        <ele>161.6</ele>
        <time>2022-05-24 16:30:18</time>
      </trkpt>
      <trkpt lat="40.82566" lon="0.4358">
        <ele>161.8</ele>
        <time>2022-05-24 16:30:19</time>
      </trkpt>
      <trkpt lat="40.82566" lon="0.43575">
        <ele>162</ele>
        <time>2022-05-24 16:30:20</time>
      </trkpt>
      <trkpt lat="40.82566" lon="0.43571">
        <ele>162.2</ele>
        <time>2022-05-24 16:30:21</time>
      </trkpt>
      <trkpt lat="40.82566" lon="0.43567">
        <ele>162.4</ele>
        <time>2022-05-24 16:30:22</time>
      </trkpt>
      <trkpt lat="40.82567" lon="0.43563">
        <ele>162.4</ele>
        <time>2022-05-24 16:30:23</time>
      </trkpt>
      <trkpt lat="40.82567" lon="0.43559">
        <ele>162.6</ele>
        <time>2022-05-24 16:30:24</time>
      </trkpt>
      <trkpt lat="40.82567" lon="0.43555">
        <ele>162.8</ele>
        <time>2022-05-24 16:30:25</time>
      </trkpt>
      <trkpt lat="40.82567" lon="0.43551">
        <ele>163</ele>
        <time>2022-05-24 16:30:26</time>
      </trkpt>
      <trkpt lat="40.82567" lon="0.43547">
        <ele>163</ele>
        <time>2022-05-24 16:30:27</time>
      </trkpt>
      <trkpt lat="40.82567" lon="0.43544">
        <ele>163.2</ele>
        <time>2022-05-24 16:30:28</time>
      </trkpt>
      <trkpt lat="40.82567" lon="0.43539">
        <ele>163.4</ele>
        <time>2022-05-24 16:30:29</time>
      </trkpt>
      <trkpt lat="40.82567" lon="0.43535">
        <ele>163.6</ele>
        <time>2022-05-24 16:30:30</time>
      </trkpt>
      <trkpt lat="40.82568" lon="0.43531">
        <ele>163.6</ele>
        <time>2022-05-24 16:30:31</time>
      </trkpt>
      <trkpt lat="40.82568" lon="0.43527">
        <ele>163.8</ele>
        <time>2022-05-24 16:30:32</time>
      </trkpt>
      <trkpt lat="40.82568" lon="0.43524">
        <ele>164</ele>
        <time>2022-05-24 16:30:33</time>
      </trkpt>
      <trkpt lat="40.82569" lon="0.4352">
        <ele>164</ele>
        <time>2022-05-24 16:30:34</time>
      </trkpt>
      <trkpt lat="40.82569" lon="0.43516">
        <ele>164.2</ele>
        <time>2022-05-24 16:30:35</time>
      </trkpt>
      <trkpt lat="40.82569" lon="0.43512">
        <ele>164.2</ele>
        <time>2022-05-24 16:30:36</time>
      </trkpt>
      <trkpt lat="40.82569" lon="0.43508">
        <ele>164.4</ele>
        <time>2022-05-24 16:30:37</time>
      </trkpt>
      <trkpt lat="40.8257" lon="0.43503">
        <ele>164.6</ele>
        <time>2022-05-24 16:30:38</time>
      </trkpt>
      <trkpt lat="40.8257" lon="0.43499">
        <ele>164.6</ele>
        <time>2022-05-24 16:30:39</time>
      </trkpt>
      <trkpt lat="40.8257" lon="0.43495">
        <ele>164.8</ele>
        <time>2022-05-24 16:30:40</time>
      </trkpt>
      <trkpt lat="40.8257" lon="0.43491">
        <ele>165</ele>
        <time>2022-05-24 16:30:41</time>
      </trkpt>
      <trkpt lat="40.8257" lon="0.43488">
        <ele>165</ele>
        <time>2022-05-24 16:30:42</time>
      </trkpt>
      <trkpt lat="40.8257" lon="0.43483">
        <ele>165.2</ele>
        <time>2022-05-24 16:30:43</time>
      </trkpt>
      <trkpt lat="40.82571" lon="0.4348">
        <ele>165.4</ele>
        <time>2022-05-24 16:30:44</time>
      </trkpt>
      <trkpt lat="40.82571" lon="0.43476">
        <ele>165.4</ele>
        <time>2022-05-24 16:30:45</time>
      </trkpt>
      <trkpt lat="40.82571" lon="0.43472">
        <ele>165.6</ele>
        <time>2022-05-24 16:30:46</time>
      </trkpt>
      <trkpt lat="40.82571" lon="0.43469">
        <ele>165.8</ele>
        <time>2022-05-24 16:30:47</time>
      </trkpt>
      <trkpt lat="40.82571" lon="0.43465">
        <ele>165.8</ele>
        <time>2022-05-24 16:30:48</time>
      </trkpt>
      <trkpt lat="40.82572" lon="0.43461">
        <ele>166</ele>
        <time>2022-05-24 16:30:49</time>
      </trkpt>
      <trkpt lat="40.82572" lon="0.43458">
        <ele>166.2</ele>
        <time>2022-05-24 16:30:50</time>
      </trkpt>
      <trkpt lat="40.82573" lon="0.43454">
        <ele>166.2</ele>
        <time>2022-05-24 16:30:51</time>
      </trkpt>
      <trkpt lat="40.82573" lon="0.4345">
        <ele>166.4</ele>
        <time>2022-05-24 16:30:52</time>
      </trkpt>
      <trkpt lat="40.82573" lon="0.43446">
        <ele>166.6</ele>
        <time>2022-05-24 16:30:53</time>
      </trkpt>
      <trkpt lat="40.82573" lon="0.43443">
        <ele>166.6</ele>
        <time>2022-05-24 16:30:54</time>
      </trkpt>
      <trkpt lat="40.82573" lon="0.43439">
        <ele>166.8</ele>
        <time>2022-05-24 16:30:55</time>
      </trkpt>
      <trkpt lat="40.82573" lon="0.43435">
        <ele>167</ele>
        <time>2022-05-24 16:30:56</time>
      </trkpt>
      <trkpt lat="40.82573" lon="0.43431">
        <ele>167</ele>
        <time>2022-05-24 16:30:57</time>
      </trkpt>
      <trkpt lat="40.82574" lon="0.43427">
        <ele>167.2</ele>
        <time>2022-05-24 16:30:58</time>
      </trkpt>
      <trkpt lat="40.82574" lon="0.43423">
        <ele>167.4</ele>
        <time>2022-05-24 16:30:59</time>
      </trkpt>
      <trkpt lat="40.82574" lon="0.43418">
        <ele>167.6</ele>
        <time>2022-05-24 16:31:00</time>
      </trkpt>
      <trkpt lat="40.82575" lon="0.43414">
        <ele>167.6</ele>
        <time>2022-05-24 16:31:01</time>
      </trkpt>
      <trkpt lat="40.82576" lon="0.4341">
        <ele>167.8</ele>
        <time>2022-05-24 16:31:02</time>
      </trkpt>
      <trkpt lat="40.82576" lon="0.43406">
        <ele>168</ele>
        <time>2022-05-24 16:31:03</time>
      </trkpt>
      <trkpt lat="40.82577" lon="0.43401">
        <ele>168.2</ele>
        <time>2022-05-24 16:31:04</time>
      </trkpt>
      <trkpt lat="40.82578" lon="0.43397">
        <ele>168.4</ele>
        <time>2022-05-24 16:31:05</time>
      </trkpt>
      <trkpt lat="40.82578" lon="0.43392">
        <ele>168.4</ele>
        <time>2022-05-24 16:31:06</time>
      </trkpt>
      <trkpt lat="40.82578" lon="0.43388">
        <ele>168.4</ele>
        <time>2022-05-24 16:31:07</time>
      </trkpt>
      <trkpt lat="40.82579" lon="0.43383">
        <ele>168.6</ele>
        <time>2022-05-24 16:31:08</time>
      </trkpt>
      <trkpt lat="40.82579" lon="0.43379">
        <ele>168.6</ele>
        <time>2022-05-24 16:31:09</time>
      </trkpt>
      <trkpt lat="40.82579" lon="0.43374">
        <ele>168.6</ele>
        <time>2022-05-24 16:31:10</time>
      </trkpt>
      <trkpt lat="40.82579" lon="0.4337">
        <ele>168.6</ele>
        <time>2022-05-24 16:31:11</time>
      </trkpt>
      <trkpt lat="40.82579" lon="0.43366">
        <ele>168.6</ele>
        <time>2022-05-24 16:31:12</time>
      </trkpt>
      <trkpt lat="40.82579" lon="0.43361">
        <ele>168.6</ele>
        <time>2022-05-24 16:31:13</time>
      </trkpt>
      <trkpt lat="40.8258" lon="0.43357">
        <ele>168.6</ele>
        <time>2022-05-24 16:31:14</time>
      </trkpt>
      <trkpt lat="40.8258" lon="0.43353">
        <ele>168.8</ele>
        <time>2022-05-24 16:31:15</time>
      </trkpt>
      <trkpt lat="40.8258" lon="0.43348">
        <ele>168.8</ele>
        <time>2022-05-24 16:31:16</time>
      </trkpt>
      <trkpt lat="40.82581" lon="0.43344">
        <ele>169</ele>
        <time>2022-05-24 16:31:17</time>
      </trkpt>
      <trkpt lat="40.82581" lon="0.4334">
        <ele>169</ele>
        <time>2022-05-24 16:31:18</time>
      </trkpt>
      <trkpt lat="40.82581" lon="0.43336">
        <ele>169.2</ele>
        <time>2022-05-24 16:31:19</time>
      </trkpt>
      <trkpt lat="40.82581" lon="0.43332">
        <ele>169.2</ele>
        <time>2022-05-24 16:31:20</time>
      </trkpt>
      <trkpt lat="40.82581" lon="0.43328">
        <ele>169.4</ele>
        <time>2022-05-24 16:31:21</time>
      </trkpt>
      <trkpt lat="40.82581" lon="0.43324">
        <ele>169.4</ele>
        <time>2022-05-24 16:31:22</time>
      </trkpt>
      <trkpt lat="40.82581" lon="0.4332">
        <ele>169.6</ele>
        <time>2022-05-24 16:31:23</time>
      </trkpt>
      <trkpt lat="40.82581" lon="0.43315">
        <ele>169.8</ele>
        <time>2022-05-24 16:31:24</time>
      </trkpt>
      <trkpt lat="40.82581" lon="0.43311">
        <ele>170</ele>
        <time>2022-05-24 16:31:25</time>
      </trkpt>
      <trkpt lat="40.82581" lon="0.43307">
        <ele>170.4</ele>
        <time>2022-05-24 16:31:26</time>
      </trkpt>
      <trkpt lat="40.82581" lon="0.43302">
        <ele>170.6</ele>
        <time>2022-05-24 16:31:27</time>
      </trkpt>
      <trkpt lat="40.82581" lon="0.43298">
        <ele>170.6</ele>
        <time>2022-05-24 16:31:28</time>
      </trkpt>
      <trkpt lat="40.82581" lon="0.43293">
        <ele>170.8</ele>
        <time>2022-05-24 16:31:29</time>
      </trkpt>
      <trkpt lat="40.82581" lon="0.43289">
        <ele>171</ele>
        <time>2022-05-24 16:31:30</time>
      </trkpt>
      <trkpt lat="40.82582" lon="0.43285">
        <ele>171.2</ele>
        <time>2022-05-24 16:31:31</time>
      </trkpt>
      <trkpt lat="40.82582" lon="0.4328">
        <ele>171.4</ele>
        <time>2022-05-24 16:31:32</time>
      </trkpt>
      <trkpt lat="40.82583" lon="0.43276">
        <ele>171.6</ele>
        <time>2022-05-24 16:31:33</time>
      </trkpt>
      <trkpt lat="40.82583" lon="0.43271">
        <ele>171.8</ele>
        <time>2022-05-24 16:31:34</time>
      </trkpt>
      <trkpt lat="40.82583" lon="0.43267">
        <ele>172</ele>
        <time>2022-05-24 16:31:35</time>
      </trkpt>
      <trkpt lat="40.82583" lon="0.43263">
        <ele>172.2</ele>
        <time>2022-05-24 16:31:36</time>
      </trkpt>
      <trkpt lat="40.82583" lon="0.43259">
        <ele>172.4</ele>
        <time>2022-05-24 16:31:37</time>
      </trkpt>
      <trkpt lat="40.82584" lon="0.43254">
        <ele>172.6</ele>
        <time>2022-05-24 16:31:38</time>
      </trkpt>
      <trkpt lat="40.82584" lon="0.4325">
        <ele>172.8</ele>
        <time>2022-05-24 16:31:39</time>
      </trkpt>
      <trkpt lat="40.82584" lon="0.43246">
        <ele>172.8</ele>
        <time>2022-05-24 16:31:40</time>
      </trkpt>
      <trkpt lat="40.82584" lon="0.43242">
        <ele>173</ele>
        <time>2022-05-24 16:31:41</time>
      </trkpt>
      <trkpt lat="40.82584" lon="0.43237">
        <ele>173.2</ele>
        <time>2022-05-24 16:31:42</time>
      </trkpt>
      <trkpt lat="40.82584" lon="0.43233">
        <ele>173.4</ele>
        <time>2022-05-24 16:31:43</time>
      </trkpt>
      <trkpt lat="40.82584" lon="0.43229">
        <ele>173.6</ele>
        <time>2022-05-24 16:31:44</time>
      </trkpt>
      <trkpt lat="40.82584" lon="0.43224">
        <ele>173.8</ele>
        <time>2022-05-24 16:31:45</time>
      </trkpt>
      <trkpt lat="40.82585" lon="0.4322">
        <ele>173.8</ele>
        <time>2022-05-24 16:31:46</time>
      </trkpt>
      <trkpt lat="40.82585" lon="0.43216">
        <ele>173.8</ele>
        <time>2022-05-24 16:31:47</time>
      </trkpt>
      <trkpt lat="40.82585" lon="0.43212">
        <ele>174</ele>
        <time>2022-05-24 16:31:48</time>
      </trkpt>
      <trkpt lat="40.82586" lon="0.43207">
        <ele>174</ele>
        <time>2022-05-24 16:31:49</time>
      </trkpt>
      <trkpt lat="40.82586" lon="0.43203">
        <ele>174.2</ele>
        <time>2022-05-24 16:31:50</time>
      </trkpt>
      <trkpt lat="40.82587" lon="0.43199">
        <ele>174.2</ele>
        <time>2022-05-24 16:31:51</time>
      </trkpt>
      <trkpt lat="40.82587" lon="0.43194">
        <ele>174.2</ele>
        <time>2022-05-24 16:31:52</time>
      </trkpt>
      <trkpt lat="40.82588" lon="0.4319">
        <ele>174.2</ele>
        <time>2022-05-24 16:31:53</time>
      </trkpt>
      <trkpt lat="40.82588" lon="0.43185">
        <ele>174.2</ele>
        <time>2022-05-24 16:31:54</time>
      </trkpt>
      <trkpt lat="40.82588" lon="0.43181">
        <ele>174.4</ele>
        <time>2022-05-24 16:31:55</time>
      </trkpt>
      <trkpt lat="40.82589" lon="0.43176">
        <ele>174.4</ele>
        <time>2022-05-24 16:31:56</time>
      </trkpt>
      <trkpt lat="40.82589" lon="0.43172">
        <ele>174.6</ele>
        <time>2022-05-24 16:31:57</time>
      </trkpt>
      <trkpt lat="40.8259" lon="0.43168">
        <ele>174.6</ele>
        <time>2022-05-24 16:31:58</time>
      </trkpt>
      <trkpt lat="40.8259" lon="0.43163">
        <ele>174.8</ele>
        <time>2022-05-24 16:31:59</time>
      </trkpt>
      <trkpt lat="40.82592" lon="0.43159">
        <ele>174.8</ele>
        <time>2022-05-24 16:32:00</time>
      </trkpt>
      <trkpt lat="40.82592" lon="0.43155">
        <ele>175</ele>
        <time>2022-05-24 16:32:01</time>
      </trkpt>
      <trkpt lat="40.82593" lon="0.4315">
        <ele>175.2</ele>
        <time>2022-05-24 16:32:02</time>
      </trkpt>
      <trkpt lat="40.82594" lon="0.43146">
        <ele>175.2</ele>
        <time>2022-05-24 16:32:03</time>
      </trkpt>
      <trkpt lat="40.82594" lon="0.43141">
        <ele>175.4</ele>
        <time>2022-05-24 16:32:04</time>
      </trkpt>
      <trkpt lat="40.82595" lon="0.43137">
        <ele>175.4</ele>
        <time>2022-05-24 16:32:05</time>
      </trkpt>
      <trkpt lat="40.82595" lon="0.43132">
        <ele>175.6</ele>
        <time>2022-05-24 16:32:06</time>
      </trkpt>
      <trkpt lat="40.82595" lon="0.43128">
        <ele>175.8</ele>
        <time>2022-05-24 16:32:07</time>
      </trkpt>
      <trkpt lat="40.82595" lon="0.43124">
        <ele>176</ele>
        <time>2022-05-24 16:32:08</time>
      </trkpt>
      <trkpt lat="40.82596" lon="0.43119">
        <ele>176</ele>
        <time>2022-05-24 16:32:09</time>
      </trkpt>
      <trkpt lat="40.82597" lon="0.43115">
        <ele>176</ele>
        <time>2022-05-24 16:32:10</time>
      </trkpt>
      <trkpt lat="40.82597" lon="0.43111">
        <ele>176.2</ele>
        <time>2022-05-24 16:32:11</time>
      </trkpt>
      <trkpt lat="40.82597" lon="0.43106">
        <ele>176.6</ele>
        <time>2022-05-24 16:32:12</time>
      </trkpt>
      <trkpt lat="40.82598" lon="0.43102">
        <ele>177</ele>
        <time>2022-05-24 16:32:13</time>
      </trkpt>
      <trkpt lat="40.82598" lon="0.43098">
        <ele>177.2</ele>
        <time>2022-05-24 16:32:14</time>
      </trkpt>
      <trkpt lat="40.82598" lon="0.43093">
        <ele>177.6</ele>
        <time>2022-05-24 16:32:15</time>
      </trkpt>
      <trkpt lat="40.82599" lon="0.43089">
        <ele>178</ele>
        <time>2022-05-24 16:32:16</time>
      </trkpt>
      <trkpt lat="40.82599" lon="0.43085">
        <ele>178.2</ele>
        <time>2022-05-24 16:32:17</time>
      </trkpt>
      <trkpt lat="40.82599" lon="0.43081">
        <ele>178.6</ele>
        <time>2022-05-24 16:32:18</time>
      </trkpt>
      <trkpt lat="40.826" lon="0.43076">
        <ele>178.8</ele>
        <time>2022-05-24 16:32:19</time>
      </trkpt>
      <trkpt lat="40.82601" lon="0.43072">
        <ele>179.2</ele>
        <time>2022-05-24 16:32:20</time>
      </trkpt>
      <trkpt lat="40.82602" lon="0.43067">
        <ele>179.4</ele>
        <time>2022-05-24 16:32:21</time>
      </trkpt>
      <trkpt lat="40.82602" lon="0.43063">
        <ele>179.6</ele>
        <time>2022-05-24 16:32:22</time>
      </trkpt>
      <trkpt lat="40.82603" lon="0.4306">
        <ele>179.8</ele>
        <time>2022-05-24 16:32:23</time>
      </trkpt>
      <trkpt lat="40.82603" lon="0.43055">
        <ele>180</ele>
        <time>2022-05-24 16:32:24</time>
      </trkpt>
      <trkpt lat="40.82603" lon="0.43052">
        <ele>180.2</ele>
        <time>2022-05-24 16:32:25</time>
      </trkpt>
      <trkpt lat="40.82603" lon="0.43048">
        <ele>180.4</ele>
        <time>2022-05-24 16:32:26</time>
      </trkpt>
      <trkpt lat="40.82603" lon="0.43044">
        <ele>180.4</ele>
        <time>2022-05-24 16:32:27</time>
      </trkpt>
      <trkpt lat="40.82603" lon="0.4304">
        <ele>180.6</ele>
        <time>2022-05-24 16:32:28</time>
      </trkpt>
      <trkpt lat="40.82603" lon="0.43036">
        <ele>180.8</ele>
        <time>2022-05-24 16:32:29</time>
      </trkpt>
      <trkpt lat="40.82603" lon="0.43032">
        <ele>181</ele>
        <time>2022-05-24 16:32:30</time>
      </trkpt>
      <trkpt lat="40.82604" lon="0.43027">
        <ele>181.2</ele>
        <time>2022-05-24 16:32:31</time>
      </trkpt>
      <trkpt lat="40.82604" lon="0.43023">
        <ele>181.2</ele>
        <time>2022-05-24 16:32:32</time>
      </trkpt>
      <trkpt lat="40.82604" lon="0.43019">
        <ele>181.4</ele>
        <time>2022-05-24 16:32:33</time>
      </trkpt>
      <trkpt lat="40.82605" lon="0.43015">
        <ele>181.6</ele>
        <time>2022-05-24 16:32:34</time>
      </trkpt>
      <trkpt lat="40.82604" lon="0.43011">
        <ele>181.6</ele>
        <time>2022-05-24 16:32:35</time>
      </trkpt>
      <trkpt lat="40.82604" lon="0.43007">
        <ele>181.8</ele>
        <time>2022-05-24 16:32:36</time>
      </trkpt>
      <trkpt lat="40.82603" lon="0.43003">
        <ele>181.8</ele>
        <time>2022-05-24 16:32:37</time>
      </trkpt>
      <trkpt lat="40.82603" lon="0.42999">
        <ele>182</ele>
        <time>2022-05-24 16:32:38</time>
      </trkpt>
      <trkpt lat="40.82603" lon="0.42995">
        <ele>182</ele>
        <time>2022-05-24 16:32:39</time>
      </trkpt>
      <trkpt lat="40.82602" lon="0.4299">
        <ele>182.2</ele>
        <time>2022-05-24 16:32:40</time>
      </trkpt>
      <trkpt lat="40.82602" lon="0.42986">
        <ele>182.2</ele>
        <time>2022-05-24 16:32:41</time>
      </trkpt>
      <trkpt lat="40.82602" lon="0.42982">
        <ele>182.2</ele>
        <time>2022-05-24 16:32:42</time>
      </trkpt>
      <trkpt lat="40.82601" lon="0.42977">
        <ele>182.4</ele>
        <time>2022-05-24 16:32:43</time>
      </trkpt>
      <trkpt lat="40.826" lon="0.42973">
        <ele>182.4</ele>
        <time>2022-05-24 16:32:44</time>
      </trkpt>
      <trkpt lat="40.826" lon="0.42969">
        <ele>182.8</ele>
        <time>2022-05-24 16:32:45</time>
      </trkpt>
      <trkpt lat="40.826" lon="0.42965">
        <ele>183.2</ele>
        <time>2022-05-24 16:32:46</time>
      </trkpt>
      <trkpt lat="40.82599" lon="0.4296">
        <ele>183.4</ele>
        <time>2022-05-24 16:32:47</time>
      </trkpt>
      <trkpt lat="40.82599" lon="0.42956">
        <ele>183.6</ele>
        <time>2022-05-24 16:32:48</time>
      </trkpt>
      <trkpt lat="40.82598" lon="0.42952">
        <ele>184</ele>
        <time>2022-05-24 16:32:49</time>
      </trkpt>
      <trkpt lat="40.82598" lon="0.42947">
        <ele>184</ele>
        <time>2022-05-24 16:32:50</time>
      </trkpt>
      <trkpt lat="40.82598" lon="0.42943">
        <ele>184</ele>
        <time>2022-05-24 16:32:51</time>
      </trkpt>
      <trkpt lat="40.82597" lon="0.42939">
        <ele>184</ele>
        <time>2022-05-24 16:32:52</time>
      </trkpt>
      <trkpt lat="40.82597" lon="0.42934">
        <ele>184.2</ele>
        <time>2022-05-24 16:32:53</time>
      </trkpt>
      <trkpt lat="40.82597" lon="0.4293">
        <ele>184.2</ele>
        <time>2022-05-24 16:32:54</time>
      </trkpt>
      <trkpt lat="40.82597" lon="0.42925">
        <ele>184.2</ele>
        <time>2022-05-24 16:32:55</time>
      </trkpt>
      <trkpt lat="40.82597" lon="0.42921">
        <ele>184.2</ele>
        <time>2022-05-24 16:32:56</time>
      </trkpt>
      <trkpt lat="40.82597" lon="0.42917">
        <ele>184.2</ele>
        <time>2022-05-24 16:32:57</time>
      </trkpt>
      <trkpt lat="40.82597" lon="0.42914">
        <ele>184.2</ele>
        <time>2022-05-24 16:32:58</time>
      </trkpt>
      <trkpt lat="40.82597" lon="0.42908">
        <ele>184.4</ele>
        <time>2022-05-24 16:32:59</time>
      </trkpt>
      <trkpt lat="40.82597" lon="0.42904">
        <ele>184.6</ele>
        <time>2022-05-24 16:33:00</time>
      </trkpt>
      <trkpt lat="40.82597" lon="0.42901">
        <ele>184.6</ele>
        <time>2022-05-24 16:33:01</time>
      </trkpt>
      <trkpt lat="40.82597" lon="0.42895">
        <ele>185</ele>
        <time>2022-05-24 16:33:02</time>
      </trkpt>
      <trkpt lat="40.82597" lon="0.42892">
        <ele>185.2</ele>
        <time>2022-05-24 16:33:03</time>
      </trkpt>
      <trkpt lat="40.82597" lon="0.42888">
        <ele>185.2</ele>
        <time>2022-05-24 16:33:04</time>
      </trkpt>
      <trkpt lat="40.82597" lon="0.42883">
        <ele>185.2</ele>
        <time>2022-05-24 16:33:05</time>
      </trkpt>
      <trkpt lat="40.82597" lon="0.42879">
        <ele>185.2</ele>
        <time>2022-05-24 16:33:06</time>
      </trkpt>
      <trkpt lat="40.82597" lon="0.42875">
        <ele>185.2</ele>
        <time>2022-05-24 16:33:07</time>
      </trkpt>
      <trkpt lat="40.82597" lon="0.4287">
        <ele>185.2</ele>
        <time>2022-05-24 16:33:08</time>
      </trkpt>
      <trkpt lat="40.82597" lon="0.42866">
        <ele>185.4</ele>
        <time>2022-05-24 16:33:09</time>
      </trkpt>
      <trkpt lat="40.82597" lon="0.42862">
        <ele>185.4</ele>
        <time>2022-05-24 16:33:10</time>
      </trkpt>
      <trkpt lat="40.82598" lon="0.42858">
        <ele>185.4</ele>
        <time>2022-05-24 16:33:11</time>
      </trkpt>
      <trkpt lat="40.82598" lon="0.42854">
        <ele>185.6</ele>
        <time>2022-05-24 16:33:12</time>
      </trkpt>
      <trkpt lat="40.82598" lon="0.42849">
        <ele>185.6</ele>
        <time>2022-05-24 16:33:13</time>
      </trkpt>
      <trkpt lat="40.82598" lon="0.42845">
        <ele>185.6</ele>
        <time>2022-05-24 16:33:14</time>
      </trkpt>
      <trkpt lat="40.82598" lon="0.42841">
        <ele>185.8</ele>
        <time>2022-05-24 16:33:15</time>
      </trkpt>
      <trkpt lat="40.82598" lon="0.42837">
        <ele>185.8</ele>
        <time>2022-05-24 16:33:16</time>
      </trkpt>
      <trkpt lat="40.82598" lon="0.42833">
        <ele>186</ele>
        <time>2022-05-24 16:33:17</time>
      </trkpt>
      <trkpt lat="40.82598" lon="0.42829">
        <ele>186</ele>
        <time>2022-05-24 16:33:18</time>
      </trkpt>
      <trkpt lat="40.82598" lon="0.42825">
        <ele>186.2</ele>
        <time>2022-05-24 16:33:19</time>
      </trkpt>
      <trkpt lat="40.82598" lon="0.42821">
        <ele>186.4</ele>
        <time>2022-05-24 16:33:20</time>
      </trkpt>
      <trkpt lat="40.82598" lon="0.42817">
        <ele>186.6</ele>
        <time>2022-05-24 16:33:21</time>
      </trkpt>
      <trkpt lat="40.82599" lon="0.42813">
        <ele>186.6</ele>
        <time>2022-05-24 16:33:22</time>
      </trkpt>
      <trkpt lat="40.82599" lon="0.42809">
        <ele>186.8</ele>
        <time>2022-05-24 16:33:23</time>
      </trkpt>
      <trkpt lat="40.826" lon="0.42805">
        <ele>187</ele>
        <time>2022-05-24 16:33:24</time>
      </trkpt>
      <trkpt lat="40.826" lon="0.42801">
        <ele>187.2</ele>
        <time>2022-05-24 16:33:25</time>
      </trkpt>
      <trkpt lat="40.826" lon="0.42798">
        <ele>187.2</ele>
        <time>2022-05-24 16:33:26</time>
      </trkpt>
      <trkpt lat="40.826" lon="0.42793">
        <ele>187.4</ele>
        <time>2022-05-24 16:33:27</time>
      </trkpt>
      <trkpt lat="40.82601" lon="0.42789">
        <ele>187.8</ele>
        <time>2022-05-24 16:33:28</time>
      </trkpt>
      <trkpt lat="40.82601" lon="0.42785">
        <ele>188</ele>
        <time>2022-05-24 16:33:29</time>
      </trkpt>
      <trkpt lat="40.82601" lon="0.42782">
        <ele>188.4</ele>
        <time>2022-05-24 16:33:30</time>
      </trkpt>
      <trkpt lat="40.82601" lon="0.42777">
        <ele>188.6</ele>
        <time>2022-05-24 16:33:31</time>
      </trkpt>
      <trkpt lat="40.82601" lon="0.42773">
        <ele>189</ele>
        <time>2022-05-24 16:33:32</time>
      </trkpt>
      <trkpt lat="40.82601" lon="0.42769">
        <ele>189.2</ele>
        <time>2022-05-24 16:33:33</time>
      </trkpt>
      <trkpt lat="40.82601" lon="0.42765">
        <ele>189.6</ele>
        <time>2022-05-24 16:33:34</time>
      </trkpt>
      <trkpt lat="40.82601" lon="0.42761">
        <ele>189.8</ele>
        <time>2022-05-24 16:33:35</time>
      </trkpt>
      <trkpt lat="40.82602" lon="0.42757">
        <ele>190.2</ele>
        <time>2022-05-24 16:33:36</time>
      </trkpt>
      <trkpt lat="40.82602" lon="0.42753">
        <ele>190.6</ele>
        <time>2022-05-24 16:33:37</time>
      </trkpt>
      <trkpt lat="40.82602" lon="0.42749">
        <ele>190.8</ele>
        <time>2022-05-24 16:33:38</time>
      </trkpt>
      <trkpt lat="40.82602" lon="0.42744">
        <ele>191.2</ele>
        <time>2022-05-24 16:33:39</time>
      </trkpt>
      <trkpt lat="40.82603" lon="0.42741">
        <ele>191.4</ele>
        <time>2022-05-24 16:33:40</time>
      </trkpt>
      <trkpt lat="40.82603" lon="0.42736">
        <ele>191.6</ele>
        <time>2022-05-24 16:33:41</time>
      </trkpt>
      <trkpt lat="40.82603" lon="0.42732">
        <ele>191.8</ele>
        <time>2022-05-24 16:33:42</time>
      </trkpt>
      <trkpt lat="40.82603" lon="0.42728">
        <ele>192</ele>
        <time>2022-05-24 16:33:43</time>
      </trkpt>
      <trkpt lat="40.82603" lon="0.42723">
        <ele>192.2</ele>
        <time>2022-05-24 16:33:44</time>
      </trkpt>
      <trkpt lat="40.82603" lon="0.42719">
        <ele>192.4</ele>
        <time>2022-05-24 16:33:45</time>
      </trkpt>
      <trkpt lat="40.82603" lon="0.42715">
        <ele>192.4</ele>
        <time>2022-05-24 16:33:46</time>
      </trkpt>
      <trkpt lat="40.82603" lon="0.4271">
        <ele>192.6</ele>
        <time>2022-05-24 16:33:47</time>
      </trkpt>
      <trkpt lat="40.82604" lon="0.42706">
        <ele>192.8</ele>
        <time>2022-05-24 16:33:48</time>
      </trkpt>
      <trkpt lat="40.82604" lon="0.42702">
        <ele>192.8</ele>
        <time>2022-05-24 16:33:49</time>
      </trkpt>
      <trkpt lat="40.82604" lon="0.42698">
        <ele>193</ele>
        <time>2022-05-24 16:33:50</time>
      </trkpt>
      <trkpt lat="40.82604" lon="0.42694">
        <ele>193.2</ele>
        <time>2022-05-24 16:33:51</time>
      </trkpt>
      <trkpt lat="40.82604" lon="0.4269">
        <ele>193.2</ele>
        <time>2022-05-24 16:33:52</time>
      </trkpt>
      <trkpt lat="40.82604" lon="0.42686">
        <ele>193.2</ele>
        <time>2022-05-24 16:33:53</time>
      </trkpt>
      <trkpt lat="40.82605" lon="0.42682">
        <ele>193.4</ele>
        <time>2022-05-24 16:33:54</time>
      </trkpt>
      <trkpt lat="40.82605" lon="0.42678">
        <ele>193.4</ele>
        <time>2022-05-24 16:33:55</time>
      </trkpt>
      <trkpt lat="40.82605" lon="0.42674">
        <ele>193.6</ele>
        <time>2022-05-24 16:33:56</time>
      </trkpt>
      <trkpt lat="40.82605" lon="0.42669">
        <ele>193.6</ele>
        <time>2022-05-24 16:33:57</time>
      </trkpt>
      <trkpt lat="40.82604" lon="0.42665">
        <ele>193.8</ele>
        <time>2022-05-24 16:33:58</time>
      </trkpt>
      <trkpt lat="40.82604" lon="0.42661">
        <ele>193.8</ele>
        <time>2022-05-24 16:33:59</time>
      </trkpt>
      <trkpt lat="40.82604" lon="0.42657">
        <ele>194</ele>
        <time>2022-05-24 16:34:00</time>
      </trkpt>
      <trkpt lat="40.82604" lon="0.42653">
        <ele>194.2</ele>
        <time>2022-05-24 16:34:01</time>
      </trkpt>
      <trkpt lat="40.82604" lon="0.42649">
        <ele>194.2</ele>
        <time>2022-05-24 16:34:02</time>
      </trkpt>
      <trkpt lat="40.82605" lon="0.42644">
        <ele>194.4</ele>
        <time>2022-05-24 16:34:03</time>
      </trkpt>
      <trkpt lat="40.82605" lon="0.4264">
        <ele>194.6</ele>
        <time>2022-05-24 16:34:04</time>
      </trkpt>
      <trkpt lat="40.82605" lon="0.42636">
        <ele>194.8</ele>
        <time>2022-05-24 16:34:05</time>
      </trkpt>
      <trkpt lat="40.82605" lon="0.42632">
        <ele>195</ele>
        <time>2022-05-24 16:34:06</time>
      </trkpt>
      <trkpt lat="40.82605" lon="0.42628">
        <ele>195.2</ele>
        <time>2022-05-24 16:34:07</time>
      </trkpt>
      <trkpt lat="40.82605" lon="0.42623">
        <ele>195.4</ele>
        <time>2022-05-24 16:34:08</time>
      </trkpt>
      <trkpt lat="40.82606" lon="0.42619">
        <ele>195.4</ele>
        <time>2022-05-24 16:34:09</time>
      </trkpt>
      <trkpt lat="40.82606" lon="0.42615">
        <ele>195.6</ele>
        <time>2022-05-24 16:34:10</time>
      </trkpt>
      <trkpt lat="40.82606" lon="0.42611">
        <ele>195.8</ele>
        <time>2022-05-24 16:34:11</time>
      </trkpt>
      <trkpt lat="40.82607" lon="0.42606">
        <ele>196</ele>
        <time>2022-05-24 16:34:12</time>
      </trkpt>
      <trkpt lat="40.82607" lon="0.42602">
        <ele>196</ele>
        <time>2022-05-24 16:34:13</time>
      </trkpt>
      <trkpt lat="40.82607" lon="0.42598">
        <ele>196.2</ele>
        <time>2022-05-24 16:34:14</time>
      </trkpt>
      <trkpt lat="40.82607" lon="0.42593">
        <ele>196.4</ele>
        <time>2022-05-24 16:34:15</time>
      </trkpt>
      <trkpt lat="40.82607" lon="0.4259">
        <ele>196.6</ele>
        <time>2022-05-24 16:34:16</time>
      </trkpt>
      <trkpt lat="40.82607" lon="0.42585">
        <ele>196.6</ele>
        <time>2022-05-24 16:34:17</time>
      </trkpt>
      <trkpt lat="40.82607" lon="0.42581">
        <ele>196.8</ele>
        <time>2022-05-24 16:34:18</time>
      </trkpt>
      <trkpt lat="40.82608" lon="0.42577">
        <ele>196.8</ele>
        <time>2022-05-24 16:34:19</time>
      </trkpt>
      <trkpt lat="40.82608" lon="0.42572">
        <ele>197</ele>
        <time>2022-05-24 16:34:20</time>
      </trkpt>
      <trkpt lat="40.82608" lon="0.42569">
        <ele>197.2</ele>
        <time>2022-05-24 16:34:21</time>
      </trkpt>
      <trkpt lat="40.82608" lon="0.42565">
        <ele>197.2</ele>
        <time>2022-05-24 16:34:22</time>
      </trkpt>
      <trkpt lat="40.82608" lon="0.4256">
        <ele>197.2</ele>
        <time>2022-05-24 16:34:23</time>
      </trkpt>
      <trkpt lat="40.82608" lon="0.42556">
        <ele>197.2</ele>
        <time>2022-05-24 16:34:24</time>
      </trkpt>
      <trkpt lat="40.82608" lon="0.42552">
        <ele>197.4</ele>
        <time>2022-05-24 16:34:25</time>
      </trkpt>
      <trkpt lat="40.82608" lon="0.42549">
        <ele>197.4</ele>
        <time>2022-05-24 16:34:26</time>
      </trkpt>
      <trkpt lat="40.82607" lon="0.42545">
        <ele>197.4</ele>
        <time>2022-05-24 16:34:27</time>
      </trkpt>
      <trkpt lat="40.82607" lon="0.42541">
        <ele>197.4</ele>
        <time>2022-05-24 16:34:28</time>
      </trkpt>
      <trkpt lat="40.82607" lon="0.42537">
        <ele>197.6</ele>
        <time>2022-05-24 16:34:29</time>
      </trkpt>
      <trkpt lat="40.82607" lon="0.42533">
        <ele>197.8</ele>
        <time>2022-05-24 16:34:30</time>
      </trkpt>
      <trkpt lat="40.82607" lon="0.42529">
        <ele>197.8</ele>
        <time>2022-05-24 16:34:31</time>
      </trkpt>
      <trkpt lat="40.82607" lon="0.42526">
        <ele>198</ele>
        <time>2022-05-24 16:34:32</time>
      </trkpt>
      <trkpt lat="40.82607" lon="0.42522">
        <ele>198.2</ele>
        <time>2022-05-24 16:34:33</time>
      </trkpt>
      <trkpt lat="40.82607" lon="0.42518">
        <ele>198.4</ele>
        <time>2022-05-24 16:34:34</time>
      </trkpt>
      <trkpt lat="40.82608" lon="0.42514">
        <ele>198.4</ele>
        <time>2022-05-24 16:34:35</time>
      </trkpt>
      <trkpt lat="40.82608" lon="0.4251">
        <ele>198.6</ele>
        <time>2022-05-24 16:34:36</time>
      </trkpt>
      <trkpt lat="40.82608" lon="0.42506">
        <ele>198.8</ele>
        <time>2022-05-24 16:34:37</time>
      </trkpt>
      <trkpt lat="40.82608" lon="0.42502">
        <ele>199</ele>
        <time>2022-05-24 16:34:38</time>
      </trkpt>
      <trkpt lat="40.82608" lon="0.42498">
        <ele>199.2</ele>
        <time>2022-05-24 16:34:39</time>
      </trkpt>
      <trkpt lat="40.82608" lon="0.42494">
        <ele>199.2</ele>
        <time>2022-05-24 16:34:40</time>
      </trkpt>
      <trkpt lat="40.82607" lon="0.42491">
        <ele>199.4</ele>
        <time>2022-05-24 16:34:41</time>
      </trkpt>
      <trkpt lat="40.82607" lon="0.42487">
        <ele>199.4</ele>
        <time>2022-05-24 16:34:42</time>
      </trkpt>
      <trkpt lat="40.82607" lon="0.42483">
        <ele>199.6</ele>
        <time>2022-05-24 16:34:43</time>
      </trkpt>
      <trkpt lat="40.82607" lon="0.42479">
        <ele>199.8</ele>
        <time>2022-05-24 16:34:44</time>
      </trkpt>
      <trkpt lat="40.82607" lon="0.42475">
        <ele>200</ele>
        <time>2022-05-24 16:34:45</time>
      </trkpt>
      <trkpt lat="40.82607" lon="0.42471">
        <ele>200.2</ele>
        <time>2022-05-24 16:34:46</time>
      </trkpt>
      <trkpt lat="40.82607" lon="0.42467">
        <ele>200.4</ele>
        <time>2022-05-24 16:34:47</time>
      </trkpt>
      <trkpt lat="40.82606" lon="0.42463">
        <ele>200.6</ele>
        <time>2022-05-24 16:34:48</time>
      </trkpt>
      <trkpt lat="40.82606" lon="0.42459">
        <ele>200.8</ele>
        <time>2022-05-24 16:34:49</time>
      </trkpt>
      <trkpt lat="40.82606" lon="0.42455">
        <ele>200.8</ele>
        <time>2022-05-24 16:34:50</time>
      </trkpt>
      <trkpt lat="40.82606" lon="0.42451">
        <ele>201.2</ele>
        <time>2022-05-24 16:34:51</time>
      </trkpt>
      <trkpt lat="40.82606" lon="0.42447">
        <ele>201.2</ele>
        <time>2022-05-24 16:34:52</time>
      </trkpt>
      <trkpt lat="40.82606" lon="0.42443">
        <ele>201.4</ele>
        <time>2022-05-24 16:34:53</time>
      </trkpt>
      <trkpt lat="40.82606" lon="0.42439">
        <ele>201.8</ele>
        <time>2022-05-24 16:34:54</time>
      </trkpt>
      <trkpt lat="40.82605" lon="0.42435">
        <ele>202.2</ele>
        <time>2022-05-24 16:34:55</time>
      </trkpt>
      <trkpt lat="40.82605" lon="0.42431">
        <ele>202.8</ele>
        <time>2022-05-24 16:34:56</time>
      </trkpt>
      <trkpt lat="40.82605" lon="0.42427">
        <ele>203.2</ele>
        <time>2022-05-24 16:34:57</time>
      </trkpt>
      <trkpt lat="40.82605" lon="0.42423">
        <ele>203.6</ele>
        <time>2022-05-24 16:34:58</time>
      </trkpt>
      <trkpt lat="40.82605" lon="0.42419">
        <ele>204.2</ele>
        <time>2022-05-24 16:34:59</time>
      </trkpt>
      <trkpt lat="40.82605" lon="0.42415">
        <ele>204.6</ele>
        <time>2022-05-24 16:35:00</time>
      </trkpt>
      <trkpt lat="40.82605" lon="0.42411">
        <ele>205</ele>
        <time>2022-05-24 16:35:01</time>
      </trkpt>
      <trkpt lat="40.82605" lon="0.42407">
        <ele>205.4</ele>
        <time>2022-05-24 16:35:02</time>
      </trkpt>
      <trkpt lat="40.82605" lon="0.42403">
        <ele>205.8</ele>
        <time>2022-05-24 16:35:03</time>
      </trkpt>
      <trkpt lat="40.82605" lon="0.42399">
        <ele>206</ele>
        <time>2022-05-24 16:35:04</time>
      </trkpt>
      <trkpt lat="40.82605" lon="0.42395">
        <ele>206.4</ele>
        <time>2022-05-24 16:35:05</time>
      </trkpt>
      <trkpt lat="40.82605" lon="0.4239">
        <ele>206.6</ele>
        <time>2022-05-24 16:35:06</time>
      </trkpt>
      <trkpt lat="40.82605" lon="0.42386">
        <ele>206.8</ele>
        <time>2022-05-24 16:35:07</time>
      </trkpt>
      <trkpt lat="40.82605" lon="0.42383">
        <ele>207</ele>
        <time>2022-05-24 16:35:08</time>
      </trkpt>
      <trkpt lat="40.82604" lon="0.42378">
        <ele>207.4</ele>
        <time>2022-05-24 16:35:09</time>
      </trkpt>
      <trkpt lat="40.82604" lon="0.42374">
        <ele>207.6</ele>
        <time>2022-05-24 16:35:10</time>
      </trkpt>
      <trkpt lat="40.82603" lon="0.4237">
        <ele>207.6</ele>
        <time>2022-05-24 16:35:11</time>
      </trkpt>
      <trkpt lat="40.82603" lon="0.42366">
        <ele>207.8</ele>
        <time>2022-05-24 16:35:12</time>
      </trkpt>
      <trkpt lat="40.82603" lon="0.42362">
        <ele>208</ele>
        <time>2022-05-24 16:35:13</time>
      </trkpt>
      <trkpt lat="40.82603" lon="0.42359">
        <ele>208</ele>
        <time>2022-05-24 16:35:14</time>
      </trkpt>
      <trkpt lat="40.82603" lon="0.42355">
        <ele>208.2</ele>
        <time>2022-05-24 16:35:15</time>
      </trkpt>
      <trkpt lat="40.82603" lon="0.42351">
        <ele>208.4</ele>
        <time>2022-05-24 16:35:16</time>
      </trkpt>
      <trkpt lat="40.82603" lon="0.42347">
        <ele>208.4</ele>
        <time>2022-05-24 16:35:17</time>
      </trkpt>
      <trkpt lat="40.82603" lon="0.42343">
        <ele>208.6</ele>
        <time>2022-05-24 16:35:18</time>
      </trkpt>
      <trkpt lat="40.82603" lon="0.42339">
        <ele>208.8</ele>
        <time>2022-05-24 16:35:19</time>
      </trkpt>
      <trkpt lat="40.82603" lon="0.42335">
        <ele>208.8</ele>
        <time>2022-05-24 16:35:20</time>
      </trkpt>
      <trkpt lat="40.82603" lon="0.42331">
        <ele>209</ele>
        <time>2022-05-24 16:35:21</time>
      </trkpt>
      <trkpt lat="40.82603" lon="0.42327">
        <ele>209.2</ele>
        <time>2022-05-24 16:35:22</time>
      </trkpt>
      <trkpt lat="40.82603" lon="0.42324">
        <ele>209.4</ele>
        <time>2022-05-24 16:35:23</time>
      </trkpt>
      <trkpt lat="40.82603" lon="0.42319">
        <ele>209.6</ele>
        <time>2022-05-24 16:35:24</time>
      </trkpt>
      <trkpt lat="40.82602" lon="0.42316">
        <ele>209.6</ele>
        <time>2022-05-24 16:35:25</time>
      </trkpt>
      <trkpt lat="40.82602" lon="0.42312">
        <ele>209.8</ele>
        <time>2022-05-24 16:35:26</time>
      </trkpt>
      <trkpt lat="40.82602" lon="0.42308">
        <ele>209.8</ele>
        <time>2022-05-24 16:35:27</time>
      </trkpt>
      <trkpt lat="40.82602" lon="0.42305">
        <ele>210</ele>
        <time>2022-05-24 16:35:28</time>
      </trkpt>
      <trkpt lat="40.82602" lon="0.42301">
        <ele>210.2</ele>
        <time>2022-05-24 16:35:29</time>
      </trkpt>
      <trkpt lat="40.82602" lon="0.42297">
        <ele>210.4</ele>
        <time>2022-05-24 16:35:30</time>
      </trkpt>
      <trkpt lat="40.82602" lon="0.42293">
        <ele>210.4</ele>
        <time>2022-05-24 16:35:31</time>
      </trkpt>
      <trkpt lat="40.82602" lon="0.42289">
        <ele>210.6</ele>
        <time>2022-05-24 16:35:32</time>
      </trkpt>
      <trkpt lat="40.82602" lon="0.42285">
        <ele>210.8</ele>
        <time>2022-05-24 16:35:33</time>
      </trkpt>
      <trkpt lat="40.82601" lon="0.42281">
        <ele>211</ele>
        <time>2022-05-24 16:35:34</time>
      </trkpt>
      <trkpt lat="40.82601" lon="0.42278">
        <ele>211</ele>
        <time>2022-05-24 16:35:35</time>
      </trkpt>
      <trkpt lat="40.82601" lon="0.42274">
        <ele>211.2</ele>
        <time>2022-05-24 16:35:36</time>
      </trkpt>
      <trkpt lat="40.82602" lon="0.4227">
        <ele>211.4</ele>
        <time>2022-05-24 16:35:37</time>
      </trkpt>
      <trkpt lat="40.82602" lon="0.42266">
        <ele>211.4</ele>
        <time>2022-05-24 16:35:38</time>
      </trkpt>
      <trkpt lat="40.82602" lon="0.42262">
        <ele>211.6</ele>
        <time>2022-05-24 16:35:39</time>
      </trkpt>
      <trkpt lat="40.82602" lon="0.42258">
        <ele>211.8</ele>
        <time>2022-05-24 16:35:40</time>
      </trkpt>
      <trkpt lat="40.82602" lon="0.42254">
        <ele>212</ele>
        <time>2022-05-24 16:35:41</time>
      </trkpt>
      <trkpt lat="40.82602" lon="0.4225">
        <ele>212</ele>
        <time>2022-05-24 16:35:42</time>
      </trkpt>
      <trkpt lat="40.82602" lon="0.42246">
        <ele>212.2</ele>
        <time>2022-05-24 16:35:43</time>
      </trkpt>
      <trkpt lat="40.82602" lon="0.42242">
        <ele>212.2</ele>
        <time>2022-05-24 16:35:44</time>
      </trkpt>
      <trkpt lat="40.82602" lon="0.42238">
        <ele>212.4</ele>
        <time>2022-05-24 16:35:45</time>
      </trkpt>
      <trkpt lat="40.82602" lon="0.42235">
        <ele>212.4</ele>
        <time>2022-05-24 16:35:46</time>
      </trkpt>
      <trkpt lat="40.82602" lon="0.42231">
        <ele>212.6</ele>
        <time>2022-05-24 16:35:47</time>
      </trkpt>
      <trkpt lat="40.82602" lon="0.42227">
        <ele>212.8</ele>
        <time>2022-05-24 16:35:48</time>
      </trkpt>
      <trkpt lat="40.82602" lon="0.42223">
        <ele>213</ele>
        <time>2022-05-24 16:35:49</time>
      </trkpt>
      <trkpt lat="40.82602" lon="0.4222">
        <ele>213</ele>
        <time>2022-05-24 16:35:50</time>
      </trkpt>
      <trkpt lat="40.82602" lon="0.42217">
        <ele>213.2</ele>
        <time>2022-05-24 16:35:51</time>
      </trkpt>
      <trkpt lat="40.82601" lon="0.42212">
        <ele>213.4</ele>
        <time>2022-05-24 16:35:52</time>
      </trkpt>
      <trkpt lat="40.82601" lon="0.42209">
        <ele>213.8</ele>
        <time>2022-05-24 16:35:53</time>
      </trkpt>
      <trkpt lat="40.82602" lon="0.42205">
        <ele>214</ele>
        <time>2022-05-24 16:35:54</time>
      </trkpt>
      <trkpt lat="40.82602" lon="0.42201">
        <ele>214.4</ele>
        <time>2022-05-24 16:35:55</time>
      </trkpt>
      <trkpt lat="40.82602" lon="0.42197">
        <ele>214.8</ele>
        <time>2022-05-24 16:35:56</time>
      </trkpt>
      <trkpt lat="40.82602" lon="0.42193">
        <ele>215</ele>
        <time>2022-05-24 16:35:57</time>
      </trkpt>
      <trkpt lat="40.82602" lon="0.42189">
        <ele>215.2</ele>
        <time>2022-05-24 16:35:58</time>
      </trkpt>
      <trkpt lat="40.82602" lon="0.42186">
        <ele>215.6</ele>
        <time>2022-05-24 16:35:59</time>
      </trkpt>
      <trkpt lat="40.82602" lon="0.42182">
        <ele>215.8</ele>
        <time>2022-05-24 16:36:00</time>
      </trkpt>
      <trkpt lat="40.82602" lon="0.42178">
        <ele>216</ele>
        <time>2022-05-24 16:36:01</time>
      </trkpt>
      <trkpt lat="40.82602" lon="0.42174">
        <ele>216.2</ele>
        <time>2022-05-24 16:36:02</time>
      </trkpt>
      <trkpt lat="40.82603" lon="0.42171">
        <ele>216.4</ele>
        <time>2022-05-24 16:36:03</time>
      </trkpt>
      <trkpt lat="40.82603" lon="0.42167">
        <ele>216.6</ele>
        <time>2022-05-24 16:36:04</time>
      </trkpt>
      <trkpt lat="40.82603" lon="0.42163">
        <ele>217</ele>
        <time>2022-05-24 16:36:05</time>
      </trkpt>
      <trkpt lat="40.82603" lon="0.42159">
        <ele>217.2</ele>
        <time>2022-05-24 16:36:06</time>
      </trkpt>
      <trkpt lat="40.82602" lon="0.42155">
        <ele>217.4</ele>
        <time>2022-05-24 16:36:07</time>
      </trkpt>
      <trkpt lat="40.82602" lon="0.42151">
        <ele>217.6</ele>
        <time>2022-05-24 16:36:08</time>
      </trkpt>
      <trkpt lat="40.82602" lon="0.42147">
        <ele>217.8</ele>
        <time>2022-05-24 16:36:09</time>
      </trkpt>
      <trkpt lat="40.82602" lon="0.42143">
        <ele>218.2</ele>
        <time>2022-05-24 16:36:10</time>
      </trkpt>
      <trkpt lat="40.82602" lon="0.42139">
        <ele>218.4</ele>
        <time>2022-05-24 16:36:11</time>
      </trkpt>
      <trkpt lat="40.82603" lon="0.42135">
        <ele>218.6</ele>
        <time>2022-05-24 16:36:12</time>
      </trkpt>
      <trkpt lat="40.82603" lon="0.42131">
        <ele>218.8</ele>
        <time>2022-05-24 16:36:13</time>
      </trkpt>
      <trkpt lat="40.82603" lon="0.42127">
        <ele>219</ele>
        <time>2022-05-24 16:36:14</time>
      </trkpt>
      <trkpt lat="40.82603" lon="0.42123">
        <ele>219.2</ele>
        <time>2022-05-24 16:36:15</time>
      </trkpt>
      <trkpt lat="40.82602" lon="0.4212">
        <ele>219.4</ele>
        <time>2022-05-24 16:36:16</time>
      </trkpt>
      <trkpt lat="40.82602" lon="0.42115">
        <ele>219.6</ele>
        <time>2022-05-24 16:36:17</time>
      </trkpt>
      <trkpt lat="40.82602" lon="0.4211">
        <ele>219.8</ele>
        <time>2022-05-24 16:36:18</time>
      </trkpt>
      <trkpt lat="40.82602" lon="0.42106">
        <ele>220</ele>
        <time>2022-05-24 16:36:19</time>
      </trkpt>
      <trkpt lat="40.82602" lon="0.42102">
        <ele>220.2</ele>
        <time>2022-05-24 16:36:20</time>
      </trkpt>
      <trkpt lat="40.82602" lon="0.42098">
        <ele>220.4</ele>
        <time>2022-05-24 16:36:21</time>
      </trkpt>
      <trkpt lat="40.82603" lon="0.42095">
        <ele>220.6</ele>
        <time>2022-05-24 16:36:22</time>
      </trkpt>
      <trkpt lat="40.82603" lon="0.42091">
        <ele>220.8</ele>
        <time>2022-05-24 16:36:23</time>
      </trkpt>
      <trkpt lat="40.82603" lon="0.42087">
        <ele>221</ele>
        <time>2022-05-24 16:36:24</time>
      </trkpt>
      <trkpt lat="40.82603" lon="0.42083">
        <ele>221.2</ele>
        <time>2022-05-24 16:36:25</time>
      </trkpt>
      <trkpt lat="40.82603" lon="0.4208">
        <ele>221.4</ele>
        <time>2022-05-24 16:36:26</time>
      </trkpt>
      <trkpt lat="40.82603" lon="0.42076">
        <ele>221.6</ele>
        <time>2022-05-24 16:36:27</time>
      </trkpt>
      <trkpt lat="40.82603" lon="0.42073">
        <ele>221.8</ele>
        <time>2022-05-24 16:36:28</time>
      </trkpt>
      <trkpt lat="40.82603" lon="0.42069">
        <ele>222</ele>
        <time>2022-05-24 16:36:29</time>
      </trkpt>
      <trkpt lat="40.82603" lon="0.42067">
        <ele>222</ele>
        <time>2022-05-24 16:36:30</time>
      </trkpt>
      <trkpt lat="40.82603" lon="0.42063">
        <ele>222.2</ele>
        <time>2022-05-24 16:36:31</time>
      </trkpt>
      <trkpt lat="40.82603" lon="0.4206">
        <ele>222.4</ele>
        <time>2022-05-24 16:36:32</time>
      </trkpt>
      <trkpt lat="40.82604" lon="0.42057">
        <ele>222.6</ele>
        <time>2022-05-24 16:36:33</time>
      </trkpt>
      <trkpt lat="40.82604" lon="0.42055">
        <ele>222.6</ele>
        <time>2022-05-24 16:36:34</time>
      </trkpt>
      <trkpt lat="40.82604" lon="0.42051">
        <ele>222.8</ele>
        <time>2022-05-24 16:36:35</time>
      </trkpt>
      <trkpt lat="40.82604" lon="0.42048">
        <ele>223</ele>
        <time>2022-05-24 16:36:36</time>
      </trkpt>
      <trkpt lat="40.82604" lon="0.42045">
        <ele>223</ele>
        <time>2022-05-24 16:36:37</time>
      </trkpt>
      <trkpt lat="40.82604" lon="0.42042">
        <ele>223.2</ele>
        <time>2022-05-24 16:36:38</time>
      </trkpt>
      <trkpt lat="40.82604" lon="0.42039">
        <ele>223.4</ele>
        <time>2022-05-24 16:36:39</time>
      </trkpt>
      <trkpt lat="40.82604" lon="0.42036">
        <ele>223.6</ele>
        <time>2022-05-24 16:36:40</time>
      </trkpt>
      <trkpt lat="40.82603" lon="0.42033">
        <ele>223.6</ele>
        <time>2022-05-24 16:36:41</time>
      </trkpt>
      <trkpt lat="40.82603" lon="0.4203">
        <ele>223.8</ele>
        <time>2022-05-24 16:36:42</time>
      </trkpt>
      <trkpt lat="40.82602" lon="0.42026">
        <ele>223.8</ele>
        <time>2022-05-24 16:36:43</time>
      </trkpt>
      <trkpt lat="40.82602" lon="0.42023">
        <ele>224</ele>
        <time>2022-05-24 16:36:44</time>
      </trkpt>
      <trkpt lat="40.82602" lon="0.4202">
        <ele>224.2</ele>
        <time>2022-05-24 16:36:45</time>
      </trkpt>
      <trkpt lat="40.82601" lon="0.42017">
        <ele>224.4</ele>
        <time>2022-05-24 16:36:46</time>
      </trkpt>
      <trkpt lat="40.82601" lon="0.42013">
        <ele>224.4</ele>
        <time>2022-05-24 16:36:47</time>
      </trkpt>
      <trkpt lat="40.82601" lon="0.4201">
        <ele>224.6</ele>
        <time>2022-05-24 16:36:48</time>
      </trkpt>
      <trkpt lat="40.82601" lon="0.42007">
        <ele>224.6</ele>
        <time>2022-05-24 16:36:49</time>
      </trkpt>
      <trkpt lat="40.82601" lon="0.42004">
        <ele>224.8</ele>
        <time>2022-05-24 16:36:50</time>
      </trkpt>
      <trkpt lat="40.82601" lon="0.42">
        <ele>225</ele>
        <time>2022-05-24 16:36:51</time>
      </trkpt>
      <trkpt lat="40.82601" lon="0.41997">
        <ele>225</ele>
        <time>2022-05-24 16:36:52</time>
      </trkpt>
      <trkpt lat="40.82601" lon="0.41994">
        <ele>225.2</ele>
        <time>2022-05-24 16:36:53</time>
      </trkpt>
      <trkpt lat="40.82601" lon="0.41991">
        <ele>225.2</ele>
        <time>2022-05-24 16:36:54</time>
      </trkpt>
      <trkpt lat="40.826" lon="0.41987">
        <ele>225.4</ele>
        <time>2022-05-24 16:36:55</time>
      </trkpt>
      <trkpt lat="40.826" lon="0.41984">
        <ele>225.4</ele>
        <time>2022-05-24 16:36:56</time>
      </trkpt>
      <trkpt lat="40.826" lon="0.41981">
        <ele>225.6</ele>
        <time>2022-05-24 16:36:57</time>
      </trkpt>
      <trkpt lat="40.826" lon="0.41978">
        <ele>225.8</ele>
        <time>2022-05-24 16:36:58</time>
      </trkpt>
      <trkpt lat="40.826" lon="0.41975">
        <ele>225.8</ele>
        <time>2022-05-24 16:36:59</time>
      </trkpt>
      <trkpt lat="40.826" lon="0.41972">
        <ele>226</ele>
        <time>2022-05-24 16:37:00</time>
      </trkpt>
      <trkpt lat="40.826" lon="0.41969">
        <ele>226.2</ele>
        <time>2022-05-24 16:37:01</time>
      </trkpt>
      <trkpt lat="40.826" lon="0.41966">
        <ele>226.2</ele>
        <time>2022-05-24 16:37:02</time>
      </trkpt>
      <trkpt lat="40.826" lon="0.41963">
        <ele>226.4</ele>
        <time>2022-05-24 16:37:03</time>
      </trkpt>
      <trkpt lat="40.826" lon="0.4196">
        <ele>226.6</ele>
        <time>2022-05-24 16:37:04</time>
      </trkpt>
      <trkpt lat="40.826" lon="0.41957">
        <ele>226.8</ele>
        <time>2022-05-24 16:37:05</time>
      </trkpt>
      <trkpt lat="40.826" lon="0.41954">
        <ele>226.8</ele>
        <time>2022-05-24 16:37:06</time>
      </trkpt>
      <trkpt lat="40.826" lon="0.41951">
        <ele>227</ele>
        <time>2022-05-24 16:37:07</time>
      </trkpt>
      <trkpt lat="40.826" lon="0.41948">
        <ele>227.2</ele>
        <time>2022-05-24 16:37:08</time>
      </trkpt>
      <trkpt lat="40.826" lon="0.41944">
        <ele>227.2</ele>
        <time>2022-05-24 16:37:09</time>
      </trkpt>
      <trkpt lat="40.826" lon="0.41942">
        <ele>227.4</ele>
        <time>2022-05-24 16:37:10</time>
      </trkpt>
      <trkpt lat="40.82599" lon="0.41938">
        <ele>227.4</ele>
        <time>2022-05-24 16:37:11</time>
      </trkpt>
      <trkpt lat="40.82599" lon="0.41935">
        <ele>227.4</ele>
        <time>2022-05-24 16:37:12</time>
      </trkpt>
      <trkpt lat="40.82598" lon="0.41932">
        <ele>227.6</ele>
        <time>2022-05-24 16:37:13</time>
      </trkpt>
      <trkpt lat="40.82598" lon="0.4193">
        <ele>227.6</ele>
        <time>2022-05-24 16:37:14</time>
      </trkpt>
      <trkpt lat="40.82598" lon="0.41926">
        <ele>227.8</ele>
        <time>2022-05-24 16:37:15</time>
      </trkpt>
      <trkpt lat="40.82598" lon="0.41923">
        <ele>227.8</ele>
        <time>2022-05-24 16:37:16</time>
      </trkpt>
      <trkpt lat="40.82598" lon="0.4192">
        <ele>227.8</ele>
        <time>2022-05-24 16:37:17</time>
      </trkpt>
      <trkpt lat="40.82598" lon="0.41916">
        <ele>228</ele>
        <time>2022-05-24 16:37:18</time>
      </trkpt>
      <trkpt lat="40.82598" lon="0.41913">
        <ele>228.2</ele>
        <time>2022-05-24 16:37:19</time>
      </trkpt>
      <trkpt lat="40.82598" lon="0.41909">
        <ele>228.2</ele>
        <time>2022-05-24 16:37:20</time>
      </trkpt>
      <trkpt lat="40.82598" lon="0.41906">
        <ele>228.4</ele>
        <time>2022-05-24 16:37:21</time>
      </trkpt>
      <trkpt lat="40.82598" lon="0.41903">
        <ele>228.6</ele>
        <time>2022-05-24 16:37:22</time>
      </trkpt>
      <trkpt lat="40.82598" lon="0.419">
        <ele>228.8</ele>
        <time>2022-05-24 16:37:23</time>
      </trkpt>
      <trkpt lat="40.82599" lon="0.41897">
        <ele>228.8</ele>
        <time>2022-05-24 16:37:24</time>
      </trkpt>
      <trkpt lat="40.82599" lon="0.41894">
        <ele>228.8</ele>
        <time>2022-05-24 16:37:25</time>
      </trkpt>
      <trkpt lat="40.826" lon="0.41891">
        <ele>229</ele>
        <time>2022-05-24 16:37:26</time>
      </trkpt>
      <trkpt lat="40.826" lon="0.41888">
        <ele>228.8</ele>
        <time>2022-05-24 16:37:27</time>
      </trkpt>
      <trkpt lat="40.826" lon="0.41884">
        <ele>229</ele>
        <time>2022-05-24 16:37:28</time>
      </trkpt>
      <trkpt lat="40.82599" lon="0.41881">
        <ele>229</ele>
        <time>2022-05-24 16:37:29</time>
      </trkpt>
      <trkpt lat="40.82598" lon="0.41878">
        <ele>229</ele>
        <time>2022-05-24 16:37:30</time>
      </trkpt>
      <trkpt lat="40.82598" lon="0.41875">
        <ele>229</ele>
        <time>2022-05-24 16:37:31</time>
      </trkpt>
      <trkpt lat="40.82598" lon="0.41872">
        <ele>229</ele>
        <time>2022-05-24 16:37:32</time>
      </trkpt>
      <trkpt lat="40.82598" lon="0.41869">
        <ele>229.2</ele>
        <time>2022-05-24 16:37:33</time>
      </trkpt>
      <trkpt lat="40.82597" lon="0.41866">
        <ele>229.2</ele>
        <time>2022-05-24 16:37:34</time>
      </trkpt>
      <trkpt lat="40.82597" lon="0.41862">
        <ele>229.4</ele>
        <time>2022-05-24 16:37:35</time>
      </trkpt>
      <trkpt lat="40.82597" lon="0.41859">
        <ele>229.4</ele>
        <time>2022-05-24 16:37:36</time>
      </trkpt>
      <trkpt lat="40.82597" lon="0.41856">
        <ele>229.6</ele>
        <time>2022-05-24 16:37:37</time>
      </trkpt>
      <trkpt lat="40.82597" lon="0.41853">
        <ele>229.6</ele>
        <time>2022-05-24 16:37:38</time>
      </trkpt>
      <trkpt lat="40.82597" lon="0.4185">
        <ele>230</ele>
        <time>2022-05-24 16:37:39</time>
      </trkpt>
      <trkpt lat="40.82597" lon="0.41847">
        <ele>230.2</ele>
        <time>2022-05-24 16:37:40</time>
      </trkpt>
      <trkpt lat="40.82597" lon="0.41844">
        <ele>230.2</ele>
        <time>2022-05-24 16:37:41</time>
      </trkpt>
      <trkpt lat="40.82597" lon="0.4184">
        <ele>230.4</ele>
        <time>2022-05-24 16:37:42</time>
      </trkpt>
      <trkpt lat="40.82597" lon="0.41837">
        <ele>230.6</ele>
        <time>2022-05-24 16:37:43</time>
      </trkpt>
      <trkpt lat="40.82597" lon="0.41834">
        <ele>230.8</ele>
        <time>2022-05-24 16:37:44</time>
      </trkpt>
      <trkpt lat="40.82596" lon="0.41831">
        <ele>230.8</ele>
        <time>2022-05-24 16:37:45</time>
      </trkpt>
      <trkpt lat="40.82596" lon="0.41828">
        <ele>231</ele>
        <time>2022-05-24 16:37:46</time>
      </trkpt>
      <trkpt lat="40.82595" lon="0.41825">
        <ele>231.4</ele>
        <time>2022-05-24 16:37:47</time>
      </trkpt>
      <trkpt lat="40.82595" lon="0.41822">
        <ele>231.6</ele>
        <time>2022-05-24 16:37:48</time>
      </trkpt>
      <trkpt lat="40.82595" lon="0.41819">
        <ele>232</ele>
        <time>2022-05-24 16:37:49</time>
      </trkpt>
      <trkpt lat="40.82596" lon="0.41816">
        <ele>232</ele>
        <time>2022-05-24 16:37:50</time>
      </trkpt>
      <trkpt lat="40.82596" lon="0.41813">
        <ele>232.4</ele>
        <time>2022-05-24 16:37:51</time>
      </trkpt>
      <trkpt lat="40.82595" lon="0.4181">
        <ele>232.6</ele>
        <time>2022-05-24 16:37:52</time>
      </trkpt>
      <trkpt lat="40.82595" lon="0.41806">
        <ele>232.8</ele>
        <time>2022-05-24 16:37:53</time>
      </trkpt>
      <trkpt lat="40.82595" lon="0.41804">
        <ele>233</ele>
        <time>2022-05-24 16:37:54</time>
      </trkpt>
      <trkpt lat="40.82595" lon="0.418">
        <ele>233.2</ele>
        <time>2022-05-24 16:37:55</time>
      </trkpt>
      <trkpt lat="40.82594" lon="0.41797">
        <ele>233.4</ele>
        <time>2022-05-24 16:37:56</time>
      </trkpt>
      <trkpt lat="40.82594" lon="0.41794">
        <ele>233.6</ele>
        <time>2022-05-24 16:37:57</time>
      </trkpt>
      <trkpt lat="40.82594" lon="0.41791">
        <ele>233.8</ele>
        <time>2022-05-24 16:37:58</time>
      </trkpt>
      <trkpt lat="40.82594" lon="0.41788">
        <ele>234.2</ele>
        <time>2022-05-24 16:37:59</time>
      </trkpt>
      <trkpt lat="40.82594" lon="0.41784">
        <ele>234.4</ele>
        <time>2022-05-24 16:38:00</time>
      </trkpt>
      <trkpt lat="40.82594" lon="0.41781">
        <ele>234.4</ele>
        <time>2022-05-24 16:38:01</time>
      </trkpt>
      <trkpt lat="40.82594" lon="0.41778">
        <ele>234.6</ele>
        <time>2022-05-24 16:38:02</time>
      </trkpt>
      <trkpt lat="40.82594" lon="0.41775">
        <ele>235</ele>
        <time>2022-05-24 16:38:03</time>
      </trkpt>
      <trkpt lat="40.82594" lon="0.41772">
        <ele>235</ele>
        <time>2022-05-24 16:38:04</time>
      </trkpt>
      <trkpt lat="40.82594" lon="0.41769">
        <ele>235.2</ele>
        <time>2022-05-24 16:38:05</time>
      </trkpt>
      <trkpt lat="40.82594" lon="0.41766">
        <ele>235.2</ele>
        <time>2022-05-24 16:38:06</time>
      </trkpt>
      <trkpt lat="40.82594" lon="0.41762">
        <ele>235.2</ele>
        <time>2022-05-24 16:38:07</time>
      </trkpt>
      <trkpt lat="40.82594" lon="0.41759">
        <ele>235.2</ele>
        <time>2022-05-24 16:38:08</time>
      </trkpt>
      <trkpt lat="40.82594" lon="0.41756">
        <ele>235.4</ele>
        <time>2022-05-24 16:38:09</time>
      </trkpt>
      <trkpt lat="40.82593" lon="0.41753">
        <ele>235.8</ele>
        <time>2022-05-24 16:38:10</time>
      </trkpt>
      <trkpt lat="40.82593" lon="0.41749">
        <ele>236</ele>
        <time>2022-05-24 16:38:11</time>
      </trkpt>
      <trkpt lat="40.82593" lon="0.41746">
        <ele>236.4</ele>
        <time>2022-05-24 16:38:12</time>
      </trkpt>
      <trkpt lat="40.82593" lon="0.41743">
        <ele>236.6</ele>
        <time>2022-05-24 16:38:13</time>
      </trkpt>
      <trkpt lat="40.82593" lon="0.4174">
        <ele>236.8</ele>
        <time>2022-05-24 16:38:14</time>
      </trkpt>
      <trkpt lat="40.82593" lon="0.41736">
        <ele>237</ele>
        <time>2022-05-24 16:38:15</time>
      </trkpt>
      <trkpt lat="40.82593" lon="0.41733">
        <ele>237.2</ele>
        <time>2022-05-24 16:38:16</time>
      </trkpt>
      <trkpt lat="40.82593" lon="0.41729">
        <ele>237.4</ele>
        <time>2022-05-24 16:38:17</time>
      </trkpt>
      <trkpt lat="40.82593" lon="0.41726">
        <ele>237.6</ele>
        <time>2022-05-24 16:38:18</time>
      </trkpt>
      <trkpt lat="40.82594" lon="0.41722">
        <ele>238</ele>
        <time>2022-05-24 16:38:19</time>
      </trkpt>
      <trkpt lat="40.82594" lon="0.41719">
        <ele>238.4</ele>
        <time>2022-05-24 16:38:20</time>
      </trkpt>
      <trkpt lat="40.82594" lon="0.41716">
        <ele>238.8</ele>
        <time>2022-05-24 16:38:21</time>
      </trkpt>
      <trkpt lat="40.82595" lon="0.41713">
        <ele>239.2</ele>
        <time>2022-05-24 16:38:22</time>
      </trkpt>
      <trkpt lat="40.82595" lon="0.41708">
        <ele>239.8</ele>
        <time>2022-05-24 16:38:23</time>
      </trkpt>
      <trkpt lat="40.82595" lon="0.41705">
        <ele>240.2</ele>
        <time>2022-05-24 16:38:24</time>
      </trkpt>
      <trkpt lat="40.82595" lon="0.41701">
        <ele>240.6</ele>
        <time>2022-05-24 16:38:25</time>
      </trkpt>
      <trkpt lat="40.82595" lon="0.41698">
        <ele>241</ele>
        <time>2022-05-24 16:38:26</time>
      </trkpt>
      <trkpt lat="40.82595" lon="0.41694">
        <ele>241.2</ele>
        <time>2022-05-24 16:38:27</time>
      </trkpt>
      <trkpt lat="40.82595" lon="0.4169">
        <ele>241.6</ele>
        <time>2022-05-24 16:38:28</time>
      </trkpt>
      <trkpt lat="40.82595" lon="0.41686">
        <ele>241.8</ele>
        <time>2022-05-24 16:38:29</time>
      </trkpt>
      <trkpt lat="40.82595" lon="0.41682">
        <ele>242.2</ele>
        <time>2022-05-24 16:38:30</time>
      </trkpt>
      <trkpt lat="40.82595" lon="0.41678">
        <ele>242.6</ele>
        <time>2022-05-24 16:38:31</time>
      </trkpt>
      <trkpt lat="40.82595" lon="0.41674">
        <ele>242.8</ele>
        <time>2022-05-24 16:38:32</time>
      </trkpt>
      <trkpt lat="40.82595" lon="0.41671">
        <ele>243</ele>
        <time>2022-05-24 16:38:33</time>
      </trkpt>
      <trkpt lat="40.82595" lon="0.41667">
        <ele>243.2</ele>
        <time>2022-05-24 16:38:34</time>
      </trkpt>
      <trkpt lat="40.82594" lon="0.41663">
        <ele>243.4</ele>
        <time>2022-05-24 16:38:35</time>
      </trkpt>
      <trkpt lat="40.82594" lon="0.4166">
        <ele>243.6</ele>
        <time>2022-05-24 16:38:36</time>
      </trkpt>
      <trkpt lat="40.82594" lon="0.41656">
        <ele>243.8</ele>
        <time>2022-05-24 16:38:37</time>
      </trkpt>
      <trkpt lat="40.82594" lon="0.41653">
        <ele>243.8</ele>
        <time>2022-05-24 16:38:38</time>
      </trkpt>
      <trkpt lat="40.82594" lon="0.41649">
        <ele>244</ele>
        <time>2022-05-24 16:38:39</time>
      </trkpt>
      <trkpt lat="40.82593" lon="0.41646">
        <ele>244.2</ele>
        <time>2022-05-24 16:38:40</time>
      </trkpt>
      <trkpt lat="40.82593" lon="0.41642">
        <ele>244.2</ele>
        <time>2022-05-24 16:38:41</time>
      </trkpt>
      <trkpt lat="40.82592" lon="0.41639">
        <ele>244.4</ele>
        <time>2022-05-24 16:38:42</time>
      </trkpt>
      <trkpt lat="40.82592" lon="0.41635">
        <ele>244.6</ele>
        <time>2022-05-24 16:38:43</time>
      </trkpt>
      <trkpt lat="40.82591" lon="0.41632">
        <ele>244.6</ele>
        <time>2022-05-24 16:38:44</time>
      </trkpt>
      <trkpt lat="40.8259" lon="0.41629">
        <ele>244.8</ele>
        <time>2022-05-24 16:38:45</time>
      </trkpt>
      <trkpt lat="40.82589" lon="0.41626">
        <ele>245</ele>
        <time>2022-05-24 16:38:46</time>
      </trkpt>
      <trkpt lat="40.82588" lon="0.41622">
        <ele>245.2</ele>
        <time>2022-05-24 16:38:47</time>
      </trkpt>
      <trkpt lat="40.82587" lon="0.41618">
        <ele>245.4</ele>
        <time>2022-05-24 16:38:48</time>
      </trkpt>
      <trkpt lat="40.82586" lon="0.41615">
        <ele>245.6</ele>
        <time>2022-05-24 16:38:49</time>
      </trkpt>
      <trkpt lat="40.82585" lon="0.41611">
        <ele>245.6</ele>
        <time>2022-05-24 16:38:50</time>
      </trkpt>
      <trkpt lat="40.82584" lon="0.41607">
        <ele>245.8</ele>
        <time>2022-05-24 16:38:51</time>
      </trkpt>
      <trkpt lat="40.82583" lon="0.41604">
        <ele>245.8</ele>
        <time>2022-05-24 16:38:52</time>
      </trkpt>
      <trkpt lat="40.82582" lon="0.416">
        <ele>246</ele>
        <time>2022-05-24 16:38:53</time>
      </trkpt>
      <trkpt lat="40.82582" lon="0.41597">
        <ele>246.2</ele>
        <time>2022-05-24 16:38:54</time>
      </trkpt>
      <trkpt lat="40.82581" lon="0.41593">
        <ele>246.4</ele>
        <time>2022-05-24 16:38:55</time>
      </trkpt>
      <trkpt lat="40.8258" lon="0.4159">
        <ele>246.4</ele>
        <time>2022-05-24 16:38:56</time>
      </trkpt>
      <trkpt lat="40.82579" lon="0.41587">
        <ele>246.6</ele>
        <time>2022-05-24 16:38:57</time>
      </trkpt>
      <trkpt lat="40.82578" lon="0.41584">
        <ele>246.8</ele>
        <time>2022-05-24 16:38:58</time>
      </trkpt>
      <trkpt lat="40.82578" lon="0.4158">
        <ele>247</ele>
        <time>2022-05-24 16:38:59</time>
      </trkpt>
      <trkpt lat="40.82576" lon="0.41577">
        <ele>247.2</ele>
        <time>2022-05-24 16:39:00</time>
      </trkpt>
      <trkpt lat="40.82576" lon="0.41573">
        <ele>247.2</ele>
        <time>2022-05-24 16:39:01</time>
      </trkpt>
      <trkpt lat="40.82575" lon="0.4157">
        <ele>247.4</ele>
        <time>2022-05-24 16:39:02</time>
      </trkpt>
      <trkpt lat="40.82574" lon="0.41566">
        <ele>247.6</ele>
        <time>2022-05-24 16:39:03</time>
      </trkpt>
      <trkpt lat="40.82573" lon="0.41563">
        <ele>247.8</ele>
        <time>2022-05-24 16:39:04</time>
      </trkpt>
      <trkpt lat="40.82572" lon="0.4156">
        <ele>247.8</ele>
        <time>2022-05-24 16:39:05</time>
      </trkpt>
      <trkpt lat="40.82571" lon="0.41557">
        <ele>248</ele>
        <time>2022-05-24 16:39:06</time>
      </trkpt>
      <trkpt lat="40.8257" lon="0.41553">
        <ele>248.2</ele>
        <time>2022-05-24 16:39:07</time>
      </trkpt>
      <trkpt lat="40.82569" lon="0.4155">
        <ele>248.4</ele>
        <time>2022-05-24 16:39:08</time>
      </trkpt>
      <trkpt lat="40.82568" lon="0.41547">
        <ele>248.8</ele>
        <time>2022-05-24 16:39:09</time>
      </trkpt>
      <trkpt lat="40.82567" lon="0.41544">
        <ele>249</ele>
        <time>2022-05-24 16:39:10</time>
      </trkpt>
      <trkpt lat="40.82567" lon="0.41541">
        <ele>249.2</ele>
        <time>2022-05-24 16:39:11</time>
      </trkpt>
      <trkpt lat="40.82566" lon="0.41537">
        <ele>249.4</ele>
        <time>2022-05-24 16:39:12</time>
      </trkpt>
      <trkpt lat="40.82566" lon="0.41534">
        <ele>249.6</ele>
        <time>2022-05-24 16:39:13</time>
      </trkpt>
      <trkpt lat="40.82565" lon="0.41531">
        <ele>249.8</ele>
        <time>2022-05-24 16:39:14</time>
      </trkpt>
      <trkpt lat="40.82564" lon="0.41528">
        <ele>250</ele>
        <time>2022-05-24 16:39:15</time>
      </trkpt>
      <trkpt lat="40.82564" lon="0.41525">
        <ele>250.2</ele>
        <time>2022-05-24 16:39:16</time>
      </trkpt>
      <trkpt lat="40.82563" lon="0.41522">
        <ele>250.4</ele>
        <time>2022-05-24 16:39:17</time>
      </trkpt>
      <trkpt lat="40.82563" lon="0.4152">
        <ele>250.6</ele>
        <time>2022-05-24 16:39:18</time>
      </trkpt>
      <trkpt lat="40.82562" lon="0.41516">
        <ele>250.8</ele>
        <time>2022-05-24 16:39:19</time>
      </trkpt>
      <trkpt lat="40.82561" lon="0.41513">
        <ele>251</ele>
        <time>2022-05-24 16:39:20</time>
      </trkpt>
      <trkpt lat="40.8256" lon="0.4151">
        <ele>251.2</ele>
        <time>2022-05-24 16:39:21</time>
      </trkpt>
      <trkpt lat="40.8256" lon="0.41508">
        <ele>251.4</ele>
        <time>2022-05-24 16:39:22</time>
      </trkpt>
      <trkpt lat="40.82559" lon="0.41504">
        <ele>251.6</ele>
        <time>2022-05-24 16:39:23</time>
      </trkpt>
      <trkpt lat="40.82558" lon="0.41501">
        <ele>251.6</ele>
        <time>2022-05-24 16:39:24</time>
      </trkpt>
      <trkpt lat="40.82557" lon="0.41498">
        <ele>251.8</ele>
        <time>2022-05-24 16:39:25</time>
      </trkpt>
      <trkpt lat="40.82557" lon="0.41496">
        <ele>252.2</ele>
        <time>2022-05-24 16:39:26</time>
      </trkpt>
      <trkpt lat="40.82556" lon="0.41492">
        <ele>252.4</ele>
        <time>2022-05-24 16:39:27</time>
      </trkpt>
      <trkpt lat="40.82555" lon="0.41489">
        <ele>252.6</ele>
        <time>2022-05-24 16:39:28</time>
      </trkpt>
      <trkpt lat="40.82554" lon="0.41486">
        <ele>252.8</ele>
        <time>2022-05-24 16:39:29</time>
      </trkpt>
      <trkpt lat="40.82553" lon="0.41484">
        <ele>253</ele>
        <time>2022-05-24 16:39:30</time>
      </trkpt>
      <trkpt lat="40.82553" lon="0.4148">
        <ele>253</ele>
        <time>2022-05-24 16:39:31</time>
      </trkpt>
      <trkpt lat="40.82552" lon="0.41477">
        <ele>253.2</ele>
        <time>2022-05-24 16:39:32</time>
      </trkpt>
      <trkpt lat="40.82552" lon="0.41474">
        <ele>253.6</ele>
        <time>2022-05-24 16:39:33</time>
      </trkpt>
      <trkpt lat="40.82551" lon="0.41471">
        <ele>253.6</ele>
        <time>2022-05-24 16:39:34</time>
      </trkpt>
      <trkpt lat="40.8255" lon="0.41468">
        <ele>253.8</ele>
        <time>2022-05-24 16:39:35</time>
      </trkpt>
      <trkpt lat="40.82549" lon="0.41464">
        <ele>254.2</ele>
        <time>2022-05-24 16:39:36</time>
      </trkpt>
      <trkpt lat="40.82549" lon="0.41461">
        <ele>254.4</ele>
        <time>2022-05-24 16:39:37</time>
      </trkpt>
      <trkpt lat="40.82548" lon="0.41458">
        <ele>254.6</ele>
        <time>2022-05-24 16:39:38</time>
      </trkpt>
      <trkpt lat="40.82547" lon="0.41455">
        <ele>254.8</ele>
        <time>2022-05-24 16:39:39</time>
      </trkpt>
      <trkpt lat="40.82546" lon="0.41452">
        <ele>255</ele>
        <time>2022-05-24 16:39:40</time>
      </trkpt>
      <trkpt lat="40.82545" lon="0.41449">
        <ele>255.2</ele>
        <time>2022-05-24 16:39:41</time>
      </trkpt>
      <trkpt lat="40.82545" lon="0.41446">
        <ele>255.4</ele>
        <time>2022-05-24 16:39:42</time>
      </trkpt>
      <trkpt lat="40.82544" lon="0.41443">
        <ele>255.6</ele>
        <time>2022-05-24 16:39:43</time>
      </trkpt>
      <trkpt lat="40.82543" lon="0.4144">
        <ele>255.8</ele>
        <time>2022-05-24 16:39:44</time>
      </trkpt>
      <trkpt lat="40.82542" lon="0.41437">
        <ele>255.8</ele>
        <time>2022-05-24 16:39:45</time>
      </trkpt>
      <trkpt lat="40.82542" lon="0.41434">
        <ele>256</ele>
        <time>2022-05-24 16:39:46</time>
      </trkpt>
      <trkpt lat="40.82541" lon="0.41431">
        <ele>256.2</ele>
        <time>2022-05-24 16:39:47</time>
      </trkpt>
      <trkpt lat="40.8254" lon="0.41428">
        <ele>256.4</ele>
        <time>2022-05-24 16:39:48</time>
      </trkpt>
      <trkpt lat="40.82539" lon="0.41425">
        <ele>256.6</ele>
        <time>2022-05-24 16:39:49</time>
      </trkpt>
      <trkpt lat="40.82539" lon="0.41422">
        <ele>256.6</ele>
        <time>2022-05-24 16:39:50</time>
      </trkpt>
      <trkpt lat="40.82538" lon="0.41419">
        <ele>256.8</ele>
        <time>2022-05-24 16:39:51</time>
      </trkpt>
      <trkpt lat="40.82537" lon="0.41416">
        <ele>257</ele>
        <time>2022-05-24 16:39:52</time>
      </trkpt>
      <trkpt lat="40.82536" lon="0.41413">
        <ele>257.2</ele>
        <time>2022-05-24 16:39:53</time>
      </trkpt>
      <trkpt lat="40.82536" lon="0.41411">
        <ele>257.4</ele>
        <time>2022-05-24 16:39:54</time>
      </trkpt>
      <trkpt lat="40.82536" lon="0.41407">
        <ele>257.6</ele>
        <time>2022-05-24 16:39:55</time>
      </trkpt>
      <trkpt lat="40.82535" lon="0.41404">
        <ele>257.8</ele>
        <time>2022-05-24 16:39:56</time>
      </trkpt>
      <trkpt lat="40.82534" lon="0.41401">
        <ele>258</ele>
        <time>2022-05-24 16:39:57</time>
      </trkpt>
      <trkpt lat="40.82533" lon="0.41398">
        <ele>258.2</ele>
        <time>2022-05-24 16:39:58</time>
      </trkpt>
      <trkpt lat="40.82532" lon="0.41395">
        <ele>258.4</ele>
        <time>2022-05-24 16:39:59</time>
      </trkpt>
      <trkpt lat="40.82532" lon="0.41393">
        <ele>258.6</ele>
        <time>2022-05-24 16:40:00</time>
      </trkpt>
      <trkpt lat="40.82531" lon="0.4139">
        <ele>258.8</ele>
        <time>2022-05-24 16:40:01</time>
      </trkpt>
      <trkpt lat="40.8253" lon="0.41387">
        <ele>259</ele>
        <time>2022-05-24 16:40:02</time>
      </trkpt>
      <trkpt lat="40.82529" lon="0.41385">
        <ele>259.2</ele>
        <time>2022-05-24 16:40:03</time>
      </trkpt>
      <trkpt lat="40.82529" lon="0.41381">
        <ele>259.4</ele>
        <time>2022-05-24 16:40:04</time>
      </trkpt>
      <trkpt lat="40.82528" lon="0.41379">
        <ele>259.6</ele>
        <time>2022-05-24 16:40:05</time>
      </trkpt>
      <trkpt lat="40.82527" lon="0.41376">
        <ele>259.8</ele>
        <time>2022-05-24 16:40:06</time>
      </trkpt>
      <trkpt lat="40.82526" lon="0.41373">
        <ele>259.8</ele>
        <time>2022-05-24 16:40:07</time>
      </trkpt>
      <trkpt lat="40.82525" lon="0.4137">
        <ele>260</ele>
        <time>2022-05-24 16:40:08</time>
      </trkpt>
      <trkpt lat="40.82524" lon="0.41368">
        <ele>260.2</ele>
        <time>2022-05-24 16:40:09</time>
      </trkpt>
      <trkpt lat="40.82524" lon="0.41365">
        <ele>260.4</ele>
        <time>2022-05-24 16:40:10</time>
      </trkpt>
      <trkpt lat="40.82523" lon="0.41362">
        <ele>260.4</ele>
        <time>2022-05-24 16:40:11</time>
      </trkpt>
      <trkpt lat="40.82523" lon="0.41359">
        <ele>260.6</ele>
        <time>2022-05-24 16:40:12</time>
      </trkpt>
      <trkpt lat="40.82522" lon="0.41356">
        <ele>260.8</ele>
        <time>2022-05-24 16:40:13</time>
      </trkpt>
      <trkpt lat="40.82521" lon="0.41353">
        <ele>261</ele>
        <time>2022-05-24 16:40:14</time>
      </trkpt>
      <trkpt lat="40.8252" lon="0.4135">
        <ele>261.2</ele>
        <time>2022-05-24 16:40:15</time>
      </trkpt>
      <trkpt lat="40.8252" lon="0.41347">
        <ele>261.4</ele>
        <time>2022-05-24 16:40:16</time>
      </trkpt>
      <trkpt lat="40.82519" lon="0.41344">
        <ele>261.6</ele>
        <time>2022-05-24 16:40:17</time>
      </trkpt>
      <trkpt lat="40.82518" lon="0.41341">
        <ele>261.8</ele>
        <time>2022-05-24 16:40:18</time>
      </trkpt>
      <trkpt lat="40.82517" lon="0.41338">
        <ele>262</ele>
        <time>2022-05-24 16:40:19</time>
      </trkpt>
      <trkpt lat="40.82516" lon="0.41335">
        <ele>262.2</ele>
        <time>2022-05-24 16:40:20</time>
      </trkpt>
      <trkpt lat="40.82516" lon="0.41331">
        <ele>262.4</ele>
        <time>2022-05-24 16:40:21</time>
      </trkpt>
      <trkpt lat="40.82515" lon="0.41328">
        <ele>262.6</ele>
        <time>2022-05-24 16:40:22</time>
      </trkpt>
      <trkpt lat="40.82514" lon="0.41325">
        <ele>263</ele>
        <time>2022-05-24 16:40:23</time>
      </trkpt>
      <trkpt lat="40.82513" lon="0.41323">
        <ele>263.2</ele>
        <time>2022-05-24 16:40:24</time>
      </trkpt>
      <trkpt lat="40.82513" lon="0.41321">
        <ele>263.4</ele>
        <time>2022-05-24 16:40:25</time>
      </trkpt>
      <trkpt lat="40.82512" lon="0.41319">
        <ele>263.6</ele>
        <time>2022-05-24 16:40:26</time>
      </trkpt>
      <trkpt lat="40.82512" lon="0.41317">
        <ele>263.8</ele>
        <time>2022-05-24 16:40:27</time>
      </trkpt>
      <trkpt lat="40.82511" lon="0.41316">
        <ele>263.8</ele>
        <time>2022-05-24 16:40:28</time>
      </trkpt>
      <trkpt lat="40.8251" lon="0.41315">
        <ele>263.8</ele>
        <time>2022-05-24 16:40:29</time>
      </trkpt>
      <trkpt lat="40.8251" lon="0.41315">
        <ele>263.8</ele>
        <time>2022-05-24 16:40:30</time>
      </trkpt>
      <trkpt lat="40.82509" lon="0.41315">
        <ele>264</ele>
        <time>2022-05-24 16:40:31</time>
      </trkpt>
      <trkpt lat="40.82508" lon="0.41316">
        <ele>264</ele>
        <time>2022-05-24 16:40:32</time>
      </trkpt>
      <trkpt lat="40.82509" lon="0.41314">
        <ele>261.4</ele>
        <time>2022-05-24 16:41:32</time>
      </trkpt>
      <trkpt lat="40.82508" lon="0.41312">
        <ele>261.6</ele>
        <time>2022-05-24 16:41:33</time>
      </trkpt>
      <trkpt lat="40.82508" lon="0.41309">
        <ele>261.6</ele>
        <time>2022-05-24 16:41:34</time>
      </trkpt>
      <trkpt lat="40.82507" lon="0.41306">
        <ele>261.6</ele>
        <time>2022-05-24 16:41:35</time>
      </trkpt>
      <trkpt lat="40.82506" lon="0.41303">
        <ele>261.8</ele>
        <time>2022-05-24 16:41:36</time>
      </trkpt>
      <trkpt lat="40.82505" lon="0.41301">
        <ele>261.8</ele>
        <time>2022-05-24 16:41:37</time>
      </trkpt>
      <trkpt lat="40.82504" lon="0.41298">
        <ele>262</ele>
        <time>2022-05-24 16:41:38</time>
      </trkpt>
      <trkpt lat="40.82504" lon="0.41295">
        <ele>262.2</ele>
        <time>2022-05-24 16:41:39</time>
      </trkpt>
      <trkpt lat="40.82502" lon="0.41291">
        <ele>262.2</ele>
        <time>2022-05-24 16:41:40</time>
      </trkpt>
      <trkpt lat="40.82502" lon="0.41288">
        <ele>262.4</ele>
        <time>2022-05-24 16:41:41</time>
      </trkpt>
      <trkpt lat="40.82502" lon="0.41285">
        <ele>262.6</ele>
        <time>2022-05-24 16:41:42</time>
      </trkpt>
      <trkpt lat="40.82501" lon="0.41281">
        <ele>262.6</ele>
        <time>2022-05-24 16:41:43</time>
      </trkpt>
      <trkpt lat="40.82501" lon="0.41277">
        <ele>262.8</ele>
        <time>2022-05-24 16:41:44</time>
      </trkpt>
      <trkpt lat="40.825" lon="0.41274">
        <ele>263</ele>
        <time>2022-05-24 16:41:45</time>
      </trkpt>
      <trkpt lat="40.825" lon="0.41271">
        <ele>263.2</ele>
        <time>2022-05-24 16:41:46</time>
      </trkpt>
      <trkpt lat="40.82499" lon="0.41267">
        <ele>263.4</ele>
        <time>2022-05-24 16:41:47</time>
      </trkpt>
      <trkpt lat="40.82499" lon="0.41264">
        <ele>263.6</ele>
        <time>2022-05-24 16:41:48</time>
      </trkpt>
      <trkpt lat="40.82498" lon="0.4126">
        <ele>263.8</ele>
        <time>2022-05-24 16:41:49</time>
      </trkpt>
      <trkpt lat="40.82497" lon="0.41257">
        <ele>264</ele>
        <time>2022-05-24 16:41:50</time>
      </trkpt>
      <trkpt lat="40.82496" lon="0.41254">
        <ele>264.2</ele>
        <time>2022-05-24 16:41:51</time>
      </trkpt>
      <trkpt lat="40.82496" lon="0.4125">
        <ele>264.4</ele>
        <time>2022-05-24 16:41:52</time>
      </trkpt>
      <trkpt lat="40.82495" lon="0.41247">
        <ele>264.6</ele>
        <time>2022-05-24 16:41:53</time>
      </trkpt>
      <trkpt lat="40.82494" lon="0.41244">
        <ele>264.8</ele>
        <time>2022-05-24 16:41:54</time>
      </trkpt>
      <trkpt lat="40.82493" lon="0.41241">
        <ele>265</ele>
        <time>2022-05-24 16:41:55</time>
      </trkpt>
      <trkpt lat="40.82492" lon="0.41238">
        <ele>265.2</ele>
        <time>2022-05-24 16:41:56</time>
      </trkpt>
      <trkpt lat="40.82491" lon="0.41235">
        <ele>265.4</ele>
        <time>2022-05-24 16:41:57</time>
      </trkpt>
      <trkpt lat="40.82491" lon="0.41233">
        <ele>265.6</ele>
        <time>2022-05-24 16:41:58</time>
      </trkpt>
      <trkpt lat="40.8249" lon="0.41229">
        <ele>265.8</ele>
        <time>2022-05-24 16:41:59</time>
      </trkpt>
      <trkpt lat="40.8249" lon="0.41225">
        <ele>266</ele>
        <time>2022-05-24 16:42:00</time>
      </trkpt>
      <trkpt lat="40.82489" lon="0.41222">
        <ele>266.2</ele>
        <time>2022-05-24 16:42:01</time>
      </trkpt>
      <trkpt lat="40.82489" lon="0.41219">
        <ele>266.4</ele>
        <time>2022-05-24 16:42:02</time>
      </trkpt>
      <trkpt lat="40.82488" lon="0.41215">
        <ele>266.6</ele>
        <time>2022-05-24 16:42:03</time>
      </trkpt>
      <trkpt lat="40.82487" lon="0.41212">
        <ele>266.8</ele>
        <time>2022-05-24 16:42:04</time>
      </trkpt>
      <trkpt lat="40.82487" lon="0.41209">
        <ele>267</ele>
        <time>2022-05-24 16:42:05</time>
      </trkpt>
      <trkpt lat="40.82487" lon="0.41206">
        <ele>267.2</ele>
        <time>2022-05-24 16:42:06</time>
      </trkpt>
      <trkpt lat="40.82486" lon="0.41202">
        <ele>267.2</ele>
        <time>2022-05-24 16:42:07</time>
      </trkpt>
      <trkpt lat="40.82486" lon="0.41199">
        <ele>267.4</ele>
        <time>2022-05-24 16:42:08</time>
      </trkpt>
      <trkpt lat="40.82485" lon="0.41195">
        <ele>267.6</ele>
        <time>2022-05-24 16:42:09</time>
      </trkpt>
      <trkpt lat="40.82485" lon="0.41193">
        <ele>267.8</ele>
        <time>2022-05-24 16:42:10</time>
      </trkpt>
      <trkpt lat="40.82484" lon="0.41188">
        <ele>268</ele>
        <time>2022-05-24 16:42:11</time>
      </trkpt>
      <trkpt lat="40.82484" lon="0.41185">
        <ele>268</ele>
        <time>2022-05-24 16:42:12</time>
      </trkpt>
      <trkpt lat="40.82483" lon="0.41182">
        <ele>268.2</ele>
        <time>2022-05-24 16:42:13</time>
      </trkpt>
      <trkpt lat="40.82483" lon="0.41179">
        <ele>268.4</ele>
        <time>2022-05-24 16:42:14</time>
      </trkpt>
      <trkpt lat="40.82482" lon="0.41175">
        <ele>268.6</ele>
        <time>2022-05-24 16:42:15</time>
      </trkpt>
      <trkpt lat="40.82482" lon="0.41171">
        <ele>268.8</ele>
        <time>2022-05-24 16:42:16</time>
      </trkpt>
      <trkpt lat="40.82481" lon="0.41168">
        <ele>269</ele>
        <time>2022-05-24 16:42:17</time>
      </trkpt>
      <trkpt lat="40.82481" lon="0.41165">
        <ele>269</ele>
        <time>2022-05-24 16:42:18</time>
      </trkpt>
      <trkpt lat="40.8248" lon="0.41162">
        <ele>269.2</ele>
        <time>2022-05-24 16:42:19</time>
      </trkpt>
      <trkpt lat="40.8248" lon="0.41158">
        <ele>269.4</ele>
        <time>2022-05-24 16:42:20</time>
      </trkpt>
      <trkpt lat="40.82479" lon="0.41155">
        <ele>269.6</ele>
        <time>2022-05-24 16:42:21</time>
      </trkpt>
      <trkpt lat="40.82479" lon="0.41152">
        <ele>269.8</ele>
        <time>2022-05-24 16:42:22</time>
      </trkpt>
      <trkpt lat="40.82478" lon="0.41148">
        <ele>270</ele>
        <time>2022-05-24 16:42:23</time>
      </trkpt>
      <trkpt lat="40.82477" lon="0.41145">
        <ele>270.2</ele>
        <time>2022-05-24 16:42:24</time>
      </trkpt>
      <trkpt lat="40.82477" lon="0.41142">
        <ele>270.2</ele>
        <time>2022-05-24 16:42:25</time>
      </trkpt>
      <trkpt lat="40.82476" lon="0.41139">
        <ele>270.4</ele>
        <time>2022-05-24 16:42:26</time>
      </trkpt>
      <trkpt lat="40.82476" lon="0.41135">
        <ele>270.6</ele>
        <time>2022-05-24 16:42:27</time>
      </trkpt>
      <trkpt lat="40.82475" lon="0.41131">
        <ele>270.8</ele>
        <time>2022-05-24 16:42:28</time>
      </trkpt>
      <trkpt lat="40.82474" lon="0.41128">
        <ele>271</ele>
        <time>2022-05-24 16:42:29</time>
      </trkpt>
      <trkpt lat="40.82473" lon="0.41125">
        <ele>271.2</ele>
        <time>2022-05-24 16:42:30</time>
      </trkpt>
      <trkpt lat="40.82473" lon="0.41121">
        <ele>271.4</ele>
        <time>2022-05-24 16:42:31</time>
      </trkpt>
      <trkpt lat="40.82472" lon="0.41118">
        <ele>271.4</ele>
        <time>2022-05-24 16:42:32</time>
      </trkpt>
      <trkpt lat="40.82472" lon="0.41115">
        <ele>271.6</ele>
        <time>2022-05-24 16:42:33</time>
      </trkpt>
      <trkpt lat="40.82471" lon="0.41112">
        <ele>271.8</ele>
        <time>2022-05-24 16:42:34</time>
      </trkpt>
      <trkpt lat="40.8247" lon="0.41108">
        <ele>272</ele>
        <time>2022-05-24 16:42:35</time>
      </trkpt>
      <trkpt lat="40.8247" lon="0.41104">
        <ele>272.2</ele>
        <time>2022-05-24 16:42:36</time>
      </trkpt>
      <trkpt lat="40.82469" lon="0.41101">
        <ele>272.4</ele>
        <time>2022-05-24 16:42:37</time>
      </trkpt>
      <trkpt lat="40.82468" lon="0.41098">
        <ele>272.6</ele>
        <time>2022-05-24 16:42:38</time>
      </trkpt>
      <trkpt lat="40.82468" lon="0.41095">
        <ele>272.8</ele>
        <time>2022-05-24 16:42:39</time>
      </trkpt>
      <trkpt lat="40.82467" lon="0.41091">
        <ele>272.8</ele>
        <time>2022-05-24 16:42:40</time>
      </trkpt>
      <trkpt lat="40.82466" lon="0.41088">
        <ele>273</ele>
        <time>2022-05-24 16:42:41</time>
      </trkpt>
      <trkpt lat="40.82465" lon="0.41085">
        <ele>273.2</ele>
        <time>2022-05-24 16:42:42</time>
      </trkpt>
      <trkpt lat="40.82465" lon="0.41081">
        <ele>273.4</ele>
        <time>2022-05-24 16:42:43</time>
      </trkpt>
      <trkpt lat="40.82464" lon="0.41077">
        <ele>273.4</ele>
        <time>2022-05-24 16:42:44</time>
      </trkpt>
      <trkpt lat="40.82464" lon="0.41074">
        <ele>273.6</ele>
        <time>2022-05-24 16:42:45</time>
      </trkpt>
      <trkpt lat="40.82463" lon="0.41071">
        <ele>273.8</ele>
        <time>2022-05-24 16:42:46</time>
      </trkpt>
      <trkpt lat="40.82462" lon="0.41067">
        <ele>274</ele>
        <time>2022-05-24 16:42:47</time>
      </trkpt>
      <trkpt lat="40.82462" lon="0.41063">
        <ele>274</ele>
        <time>2022-05-24 16:42:48</time>
      </trkpt>
      <trkpt lat="40.82461" lon="0.4106">
        <ele>274.2</ele>
        <time>2022-05-24 16:42:49</time>
      </trkpt>
      <trkpt lat="40.8246" lon="0.41057">
        <ele>274.2</ele>
        <time>2022-05-24 16:42:50</time>
      </trkpt>
      <trkpt lat="40.8246" lon="0.41052">
        <ele>274.4</ele>
        <time>2022-05-24 16:42:51</time>
      </trkpt>
      <trkpt lat="40.82459" lon="0.41049">
        <ele>274.6</ele>
        <time>2022-05-24 16:42:52</time>
      </trkpt>
      <trkpt lat="40.82458" lon="0.41045">
        <ele>274.6</ele>
        <time>2022-05-24 16:42:53</time>
      </trkpt>
      <trkpt lat="40.82458" lon="0.41043">
        <ele>274.8</ele>
        <time>2022-05-24 16:42:54</time>
      </trkpt>
      <trkpt lat="40.82457" lon="0.41038">
        <ele>275</ele>
        <time>2022-05-24 16:42:55</time>
      </trkpt>
      <trkpt lat="40.82457" lon="0.41035">
        <ele>275</ele>
        <time>2022-05-24 16:42:56</time>
      </trkpt>
      <trkpt lat="40.82456" lon="0.41031">
        <ele>275.2</ele>
        <time>2022-05-24 16:42:57</time>
      </trkpt>
      <trkpt lat="40.82456" lon="0.41028">
        <ele>275.2</ele>
        <time>2022-05-24 16:42:58</time>
      </trkpt>
      <trkpt lat="40.82455" lon="0.41024">
        <ele>275.4</ele>
        <time>2022-05-24 16:42:59</time>
      </trkpt>
      <trkpt lat="40.82455" lon="0.41021">
        <ele>275.4</ele>
        <time>2022-05-24 16:43:00</time>
      </trkpt>
      <trkpt lat="40.82454" lon="0.41017">
        <ele>275.6</ele>
        <time>2022-05-24 16:43:01</time>
      </trkpt>
      <trkpt lat="40.82454" lon="0.41014">
        <ele>275.6</ele>
        <time>2022-05-24 16:43:02</time>
      </trkpt>
      <trkpt lat="40.82454" lon="0.4101">
        <ele>275.8</ele>
        <time>2022-05-24 16:43:03</time>
      </trkpt>
      <trkpt lat="40.82454" lon="0.41006">
        <ele>275.8</ele>
        <time>2022-05-24 16:43:04</time>
      </trkpt>
      <trkpt lat="40.82453" lon="0.41003">
        <ele>276</ele>
        <time>2022-05-24 16:43:05</time>
      </trkpt>
      <trkpt lat="40.82453" lon="0.41">
        <ele>276</ele>
        <time>2022-05-24 16:43:06</time>
      </trkpt>
      <trkpt lat="40.82453" lon="0.40996">
        <ele>276.2</ele>
        <time>2022-05-24 16:43:07</time>
      </trkpt>
      <trkpt lat="40.82453" lon="0.40992">
        <ele>276.4</ele>
        <time>2022-05-24 16:43:08</time>
      </trkpt>
      <trkpt lat="40.82452" lon="0.40989">
        <ele>276.4</ele>
        <time>2022-05-24 16:43:09</time>
      </trkpt>
      <trkpt lat="40.82452" lon="0.40986">
        <ele>276.4</ele>
        <time>2022-05-24 16:43:10</time>
      </trkpt>
      <trkpt lat="40.82452" lon="0.40982">
        <ele>276.6</ele>
        <time>2022-05-24 16:43:11</time>
      </trkpt>
      <trkpt lat="40.82451" lon="0.40978">
        <ele>276.8</ele>
        <time>2022-05-24 16:43:12</time>
      </trkpt>
      <trkpt lat="40.82451" lon="0.40975">
        <ele>276.8</ele>
        <time>2022-05-24 16:43:13</time>
      </trkpt>
      <trkpt lat="40.82451" lon="0.40972">
        <ele>277</ele>
        <time>2022-05-24 16:43:14</time>
      </trkpt>
      <trkpt lat="40.8245" lon="0.40967">
        <ele>277</ele>
        <time>2022-05-24 16:43:15</time>
      </trkpt>
      <trkpt lat="40.8245" lon="0.40964">
        <ele>277.2</ele>
        <time>2022-05-24 16:43:16</time>
      </trkpt>
      <trkpt lat="40.8245" lon="0.4096">
        <ele>277.2</ele>
        <time>2022-05-24 16:43:17</time>
      </trkpt>
      <trkpt lat="40.8245" lon="0.40957">
        <ele>277.4</ele>
        <time>2022-05-24 16:43:18</time>
      </trkpt>
      <trkpt lat="40.82449" lon="0.40953">
        <ele>277.4</ele>
        <time>2022-05-24 16:43:19</time>
      </trkpt>
      <trkpt lat="40.82449" lon="0.40949">
        <ele>277.4</ele>
        <time>2022-05-24 16:43:20</time>
      </trkpt>
      <trkpt lat="40.82449" lon="0.40945">
        <ele>277.6</ele>
        <time>2022-05-24 16:43:21</time>
      </trkpt>
      <trkpt lat="40.82449" lon="0.40941">
        <ele>277.6</ele>
        <time>2022-05-24 16:43:22</time>
      </trkpt>
      <trkpt lat="40.82448" lon="0.40937">
        <ele>277.6</ele>
        <time>2022-05-24 16:43:23</time>
      </trkpt>
      <trkpt lat="40.82448" lon="0.40933">
        <ele>277.6</ele>
        <time>2022-05-24 16:43:24</time>
      </trkpt>
      <trkpt lat="40.82447" lon="0.40929">
        <ele>277.6</ele>
        <time>2022-05-24 16:43:25</time>
      </trkpt>
      <trkpt lat="40.82447" lon="0.40924">
        <ele>277.6</ele>
        <time>2022-05-24 16:43:26</time>
      </trkpt>
      <trkpt lat="40.82447" lon="0.4092">
        <ele>277.6</ele>
        <time>2022-05-24 16:43:27</time>
      </trkpt>
      <trkpt lat="40.82446" lon="0.40916">
        <ele>277.6</ele>
        <time>2022-05-24 16:43:28</time>
      </trkpt>
      <trkpt lat="40.82446" lon="0.40911">
        <ele>277.6</ele>
        <time>2022-05-24 16:43:29</time>
      </trkpt>
      <trkpt lat="40.82445" lon="0.40906">
        <ele>277.6</ele>
        <time>2022-05-24 16:43:30</time>
      </trkpt>
      <trkpt lat="40.82445" lon="0.40901">
        <ele>277.6</ele>
        <time>2022-05-24 16:43:31</time>
      </trkpt>
      <trkpt lat="40.82445" lon="0.40895">
        <ele>277.4</ele>
        <time>2022-05-24 16:43:32</time>
      </trkpt>
      <trkpt lat="40.82445" lon="0.4089">
        <ele>277.4</ele>
        <time>2022-05-24 16:43:33</time>
      </trkpt>
      <trkpt lat="40.82446" lon="0.40885">
        <ele>277.4</ele>
        <time>2022-05-24 16:43:34</time>
      </trkpt>
      <trkpt lat="40.82447" lon="0.40879">
        <ele>277.2</ele>
        <time>2022-05-24 16:43:35</time>
      </trkpt>
      <trkpt lat="40.82448" lon="0.40874">
        <ele>277.2</ele>
        <time>2022-05-24 16:43:36</time>
      </trkpt>
      <trkpt lat="40.82449" lon="0.40868">
        <ele>277</ele>
        <time>2022-05-24 16:43:37</time>
      </trkpt>
      <trkpt lat="40.82451" lon="0.40862">
        <ele>276.8</ele>
        <time>2022-05-24 16:43:38</time>
      </trkpt>
      <trkpt lat="40.82452" lon="0.40856">
        <ele>276.6</ele>
        <time>2022-05-24 16:43:39</time>
      </trkpt>
      <trkpt lat="40.82454" lon="0.40849">
        <ele>276.4</ele>
        <time>2022-05-24 16:43:40</time>
      </trkpt>
      <trkpt lat="40.82456" lon="0.40843">
        <ele>276.2</ele>
        <time>2022-05-24 16:43:41</time>
      </trkpt>
      <trkpt lat="40.82458" lon="0.40836">
        <ele>276</ele>
        <time>2022-05-24 16:43:42</time>
      </trkpt>
      <trkpt lat="40.8246" lon="0.40829">
        <ele>275.8</ele>
        <time>2022-05-24 16:43:43</time>
      </trkpt>
      <trkpt lat="40.82462" lon="0.40821">
        <ele>275.6</ele>
        <time>2022-05-24 16:43:44</time>
      </trkpt>
      <trkpt lat="40.82464" lon="0.40815">
        <ele>275.6</ele>
        <time>2022-05-24 16:43:45</time>
      </trkpt>
      <trkpt lat="40.82466" lon="0.40808">
        <ele>275.4</ele>
        <time>2022-05-24 16:43:46</time>
      </trkpt>
      <trkpt lat="40.82467" lon="0.40801">
        <ele>275.2</ele>
        <time>2022-05-24 16:43:47</time>
      </trkpt>
      <trkpt lat="40.82469" lon="0.40794">
        <ele>275.2</ele>
        <time>2022-05-24 16:43:48</time>
      </trkpt>
      <trkpt lat="40.8247" lon="0.40787">
        <ele>275</ele>
        <time>2022-05-24 16:43:49</time>
      </trkpt>
      <trkpt lat="40.82473" lon="0.4078">
        <ele>274.8</ele>
        <time>2022-05-24 16:43:50</time>
      </trkpt>
      <trkpt lat="40.82474" lon="0.40774">
        <ele>274.8</ele>
        <time>2022-05-24 16:43:51</time>
      </trkpt>
      <trkpt lat="40.82475" lon="0.40767">
        <ele>274.8</ele>
        <time>2022-05-24 16:43:52</time>
      </trkpt>
      <trkpt lat="40.82474" lon="0.40762">
        <ele>274.6</ele>
        <time>2022-05-24 16:43:53</time>
      </trkpt>
      <trkpt lat="40.82473" lon="0.40755">
        <ele>274.6</ele>
        <time>2022-05-24 16:43:54</time>
      </trkpt>
      <trkpt lat="40.82469" lon="0.40751">
        <ele>274.8</ele>
        <time>2022-05-24 16:43:55</time>
      </trkpt>
      <trkpt lat="40.82465" lon="0.40749">
        <ele>274.8</ele>
        <time>2022-05-24 16:43:56</time>
      </trkpt>
      <trkpt lat="40.82461" lon="0.40749">
        <ele>274.8</ele>
        <time>2022-05-24 16:43:57</time>
      </trkpt>
      <trkpt lat="40.82457" lon="0.4075">
        <ele>274.8</ele>
        <time>2022-05-24 16:43:58</time>
      </trkpt>
      <trkpt lat="40.82453" lon="0.40752">
        <ele>274.8</ele>
        <time>2022-05-24 16:43:59</time>
      </trkpt>
      <trkpt lat="40.82449" lon="0.40754">
        <ele>275</ele>
        <time>2022-05-24 16:44:00</time>
      </trkpt>
      <trkpt lat="40.82445" lon="0.40756">
        <ele>275</ele>
        <time>2022-05-24 16:44:01</time>
      </trkpt>
      <trkpt lat="40.82441" lon="0.40758">
        <ele>275.2</ele>
        <time>2022-05-24 16:44:02</time>
      </trkpt>
      <trkpt lat="40.82437" lon="0.4076">
        <ele>275.2</ele>
        <time>2022-05-24 16:44:03</time>
      </trkpt>
      <trkpt lat="40.82434" lon="0.40762">
        <ele>275.4</ele>
        <time>2022-05-24 16:44:04</time>
      </trkpt>
      <trkpt lat="40.8243" lon="0.40764">
        <ele>275.6</ele>
        <time>2022-05-24 16:44:05</time>
      </trkpt>
      <trkpt lat="40.82426" lon="0.40765">
        <ele>275.8</ele>
        <time>2022-05-24 16:44:06</time>
      </trkpt>
      <trkpt lat="40.82423" lon="0.40766">
        <ele>276</ele>
        <time>2022-05-24 16:44:07</time>
      </trkpt>
      <trkpt lat="40.8242" lon="0.40768">
        <ele>276.2</ele>
        <time>2022-05-24 16:44:08</time>
      </trkpt>
      <trkpt lat="40.82417" lon="0.40769">
        <ele>276.4</ele>
        <time>2022-05-24 16:44:09</time>
      </trkpt>
      <trkpt lat="40.82414" lon="0.4077">
        <ele>276.6</ele>
        <time>2022-05-24 16:44:10</time>
      </trkpt>
      <trkpt lat="40.82412" lon="0.40771">
        <ele>277</ele>
        <time>2022-05-24 16:44:11</time>
      </trkpt>
      <trkpt lat="40.82409" lon="0.40771">
        <ele>277.2</ele>
        <time>2022-05-24 16:44:12</time>
      </trkpt>
      <trkpt lat="40.82407" lon="0.40772">
        <ele>277.4</ele>
        <time>2022-05-24 16:44:13</time>
      </trkpt>
      <trkpt lat="40.82405" lon="0.40773">
        <ele>277.8</ele>
        <time>2022-05-24 16:44:14</time>
      </trkpt>
      <trkpt lat="40.82403" lon="0.40774">
        <ele>278</ele>
        <time>2022-05-24 16:44:15</time>
      </trkpt>
      <trkpt lat="40.82401" lon="0.40774">
        <ele>278.2</ele>
        <time>2022-05-24 16:44:16</time>
      </trkpt>
      <trkpt lat="40.82399" lon="0.40775">
        <ele>278.4</ele>
        <time>2022-05-24 16:44:17</time>
      </trkpt>
      <trkpt lat="40.82396" lon="0.40776">
        <ele>278.6</ele>
        <time>2022-05-24 16:44:18</time>
      </trkpt>
      <trkpt lat="40.82395" lon="0.40777">
        <ele>279</ele>
        <time>2022-05-24 16:44:19</time>
      </trkpt>
      <trkpt lat="40.82393" lon="0.40778">
        <ele>279.2</ele>
        <time>2022-05-24 16:44:20</time>
      </trkpt>
      <trkpt lat="40.82391" lon="0.40779">
        <ele>279.4</ele>
        <time>2022-05-24 16:44:21</time>
      </trkpt>
      <trkpt lat="40.82389" lon="0.4078">
        <ele>279.6</ele>
        <time>2022-05-24 16:44:22</time>
      </trkpt>
      <trkpt lat="40.82387" lon="0.40781">
        <ele>279.8</ele>
        <time>2022-05-24 16:44:23</time>
      </trkpt>
      <trkpt lat="40.82385" lon="0.40781">
        <ele>280</ele>
        <time>2022-05-24 16:44:24</time>
      </trkpt>
      <trkpt lat="40.82383" lon="0.40782">
        <ele>280.2</ele>
        <time>2022-05-24 16:44:25</time>
      </trkpt>
      <trkpt lat="40.82381" lon="0.40783">
        <ele>280.4</ele>
        <time>2022-05-24 16:44:26</time>
      </trkpt>
      <trkpt lat="40.82379" lon="0.40784">
        <ele>280.6</ele>
        <time>2022-05-24 16:44:27</time>
      </trkpt>
      <trkpt lat="40.82377" lon="0.40785">
        <ele>280.8</ele>
        <time>2022-05-24 16:44:28</time>
      </trkpt>
      <trkpt lat="40.82375" lon="0.40786">
        <ele>280.8</ele>
        <time>2022-05-24 16:44:29</time>
      </trkpt>
      <trkpt lat="40.82373" lon="0.40787">
        <ele>281</ele>
        <time>2022-05-24 16:44:30</time>
      </trkpt>
      <trkpt lat="40.82371" lon="0.40788">
        <ele>281.2</ele>
        <time>2022-05-24 16:44:31</time>
      </trkpt>
      <trkpt lat="40.82369" lon="0.40789">
        <ele>281.4</ele>
        <time>2022-05-24 16:44:32</time>
      </trkpt>
      <trkpt lat="40.82367" lon="0.4079">
        <ele>281.6</ele>
        <time>2022-05-24 16:44:33</time>
      </trkpt>
      <trkpt lat="40.82365" lon="0.4079">
        <ele>281.8</ele>
        <time>2022-05-24 16:44:34</time>
      </trkpt>
      <trkpt lat="40.82363" lon="0.40791">
        <ele>282</ele>
        <time>2022-05-24 16:44:35</time>
      </trkpt>
      <trkpt lat="40.82361" lon="0.40792">
        <ele>282.2</ele>
        <time>2022-05-24 16:44:36</time>
      </trkpt>
      <trkpt lat="40.82359" lon="0.40792">
        <ele>282.4</ele>
        <time>2022-05-24 16:44:37</time>
      </trkpt>
      <trkpt lat="40.82356" lon="0.40792">
        <ele>282.6</ele>
        <time>2022-05-24 16:44:38</time>
      </trkpt>
      <trkpt lat="40.82355" lon="0.40792">
        <ele>282.8</ele>
        <time>2022-05-24 16:44:39</time>
      </trkpt>
      <trkpt lat="40.82352" lon="0.40792">
        <ele>283</ele>
        <time>2022-05-24 16:44:40</time>
      </trkpt>
      <trkpt lat="40.8235" lon="0.40791">
        <ele>283.2</ele>
        <time>2022-05-24 16:44:41</time>
      </trkpt>
      <trkpt lat="40.82347" lon="0.40791">
        <ele>283.4</ele>
        <time>2022-05-24 16:44:42</time>
      </trkpt>
      <trkpt lat="40.82346" lon="0.4079">
        <ele>283.4</ele>
        <time>2022-05-24 16:44:43</time>
      </trkpt>
      <trkpt lat="40.82343" lon="0.4079">
        <ele>283.8</ele>
        <time>2022-05-24 16:44:44</time>
      </trkpt>
      <trkpt lat="40.82341" lon="0.40789">
        <ele>284</ele>
        <time>2022-05-24 16:44:45</time>
      </trkpt>
      <trkpt lat="40.82338" lon="0.40789">
        <ele>284</ele>
        <time>2022-05-24 16:44:46</time>
      </trkpt>
      <trkpt lat="40.82337" lon="0.40788">
        <ele>284.2</ele>
        <time>2022-05-24 16:44:47</time>
      </trkpt>
      <trkpt lat="40.82335" lon="0.40788">
        <ele>284.4</ele>
        <time>2022-05-24 16:44:48</time>
      </trkpt>
      <trkpt lat="40.82333" lon="0.40788">
        <ele>284.6</ele>
        <time>2022-05-24 16:44:49</time>
      </trkpt>
      <trkpt lat="40.8233" lon="0.40787">
        <ele>284.8</ele>
        <time>2022-05-24 16:44:50</time>
      </trkpt>
      <trkpt lat="40.82328" lon="0.40786">
        <ele>285</ele>
        <time>2022-05-24 16:44:51</time>
      </trkpt>
      <trkpt lat="40.82327" lon="0.40786">
        <ele>285</ele>
        <time>2022-05-24 16:44:52</time>
      </trkpt>
      <trkpt lat="40.82325" lon="0.40785">
        <ele>285.2</ele>
        <time>2022-05-24 16:44:53</time>
      </trkpt>
      <trkpt lat="40.82322" lon="0.40785">
        <ele>285.4</ele>
        <time>2022-05-24 16:44:54</time>
      </trkpt>
      <trkpt lat="40.8232" lon="0.40784">
        <ele>285.6</ele>
        <time>2022-05-24 16:44:55</time>
      </trkpt>
      <trkpt lat="40.82318" lon="0.40784">
        <ele>285.8</ele>
        <time>2022-05-24 16:44:56</time>
      </trkpt>
      <trkpt lat="40.82317" lon="0.40783">
        <ele>286</ele>
        <time>2022-05-24 16:44:57</time>
      </trkpt>
      <trkpt lat="40.82315" lon="0.40782">
        <ele>286.2</ele>
        <time>2022-05-24 16:44:58</time>
      </trkpt>
      <trkpt lat="40.82313" lon="0.40782">
        <ele>286.4</ele>
        <time>2022-05-24 16:44:59</time>
      </trkpt>
      <trkpt lat="40.82311" lon="0.40781">
        <ele>286.6</ele>
        <time>2022-05-24 16:45:00</time>
      </trkpt>
      <trkpt lat="40.82309" lon="0.4078">
        <ele>286.8</ele>
        <time>2022-05-24 16:45:01</time>
      </trkpt>
      <trkpt lat="40.82308" lon="0.40779">
        <ele>287</ele>
        <time>2022-05-24 16:45:02</time>
      </trkpt>
      <trkpt lat="40.82306" lon="0.40777">
        <ele>287.2</ele>
        <time>2022-05-24 16:45:03</time>
      </trkpt>
      <trkpt lat="40.82304" lon="0.40776">
        <ele>287.4</ele>
        <time>2022-05-24 16:45:04</time>
      </trkpt>
      <trkpt lat="40.82302" lon="0.40774">
        <ele>287.6</ele>
        <time>2022-05-24 16:45:05</time>
      </trkpt>
      <trkpt lat="40.82301" lon="0.40771">
        <ele>287.8</ele>
        <time>2022-05-24 16:45:06</time>
      </trkpt>
      <trkpt lat="40.82301" lon="0.40769">
        <ele>287.8</ele>
        <time>2022-05-24 16:45:07</time>
      </trkpt>
      <trkpt lat="40.823" lon="0.40766">
        <ele>288.2</ele>
        <time>2022-05-24 16:45:08</time>
      </trkpt>
      <trkpt lat="40.823" lon="0.40763">
        <ele>288.4</ele>
        <time>2022-05-24 16:45:09</time>
      </trkpt>
      <trkpt lat="40.82301" lon="0.40761">
        <ele>288.6</ele>
        <time>2022-05-24 16:45:10</time>
      </trkpt>
      <trkpt lat="40.82301" lon="0.40759">
        <ele>288.8</ele>
        <time>2022-05-24 16:45:11</time>
      </trkpt>
      <trkpt lat="40.82302" lon="0.40757">
        <ele>288.8</ele>
        <time>2022-05-24 16:45:12</time>
      </trkpt>
      <trkpt lat="40.82303" lon="0.40754">
        <ele>289.2</ele>
        <time>2022-05-24 16:45:13</time>
      </trkpt>
      <trkpt lat="40.82303" lon="0.40751">
        <ele>289.4</ele>
        <time>2022-05-24 16:45:14</time>
      </trkpt>
      <trkpt lat="40.82304" lon="0.40749">
        <ele>289.6</ele>
        <time>2022-05-24 16:45:15</time>
      </trkpt>
      <trkpt lat="40.82305" lon="0.40747">
        <ele>289.8</ele>
        <time>2022-05-24 16:45:16</time>
      </trkpt>
      <trkpt lat="40.82306" lon="0.40745">
        <ele>290</ele>
        <time>2022-05-24 16:45:17</time>
      </trkpt>
      <trkpt lat="40.82307" lon="0.40742">
        <ele>290.2</ele>
        <time>2022-05-24 16:45:18</time>
      </trkpt>
      <trkpt lat="40.82308" lon="0.4074">
        <ele>290.4</ele>
        <time>2022-05-24 16:45:19</time>
      </trkpt>
      <trkpt lat="40.82309" lon="0.40737">
        <ele>290.8</ele>
        <time>2022-05-24 16:45:20</time>
      </trkpt>
      <trkpt lat="40.8231" lon="0.40735">
        <ele>291</ele>
        <time>2022-05-24 16:45:21</time>
      </trkpt>
      <trkpt lat="40.82311" lon="0.40733">
        <ele>291.2</ele>
        <time>2022-05-24 16:45:22</time>
      </trkpt>
      <trkpt lat="40.82312" lon="0.4073">
        <ele>291.4</ele>
        <time>2022-05-24 16:45:23</time>
      </trkpt>
      <trkpt lat="40.82313" lon="0.40728">
        <ele>291.6</ele>
        <time>2022-05-24 16:45:24</time>
      </trkpt>
      <trkpt lat="40.82314" lon="0.40726">
        <ele>292</ele>
        <time>2022-05-24 16:45:25</time>
      </trkpt>
      <trkpt lat="40.82315" lon="0.40724">
        <ele>292.2</ele>
        <time>2022-05-24 16:45:26</time>
      </trkpt>
      <trkpt lat="40.82315" lon="0.40722">
        <ele>292.4</ele>
        <time>2022-05-24 16:45:27</time>
      </trkpt>
      <trkpt lat="40.82316" lon="0.4072">
        <ele>292.6</ele>
        <time>2022-05-24 16:45:28</time>
      </trkpt>
      <trkpt lat="40.82317" lon="0.40718">
        <ele>292.8</ele>
        <time>2022-05-24 16:45:29</time>
      </trkpt>
      <trkpt lat="40.82318" lon="0.40716">
        <ele>293</ele>
        <time>2022-05-24 16:45:30</time>
      </trkpt>
      <trkpt lat="40.82319" lon="0.40714">
        <ele>293.2</ele>
        <time>2022-05-24 16:45:31</time>
      </trkpt>
      <trkpt lat="40.8232" lon="0.40712">
        <ele>293.4</ele>
        <time>2022-05-24 16:45:32</time>
      </trkpt>
      <trkpt lat="40.82321" lon="0.40709">
        <ele>293.6</ele>
        <time>2022-05-24 16:45:33</time>
      </trkpt>
      <trkpt lat="40.82322" lon="0.40707">
        <ele>294</ele>
        <time>2022-05-24 16:45:34</time>
      </trkpt>
      <trkpt lat="40.82322" lon="0.40705">
        <ele>294.2</ele>
        <time>2022-05-24 16:45:35</time>
      </trkpt>
      <trkpt lat="40.82323" lon="0.40703">
        <ele>294.4</ele>
        <time>2022-05-24 16:45:36</time>
      </trkpt>
      <trkpt lat="40.82324" lon="0.40701">
        <ele>294.6</ele>
        <time>2022-05-24 16:45:37</time>
      </trkpt>
      <trkpt lat="40.82325" lon="0.40699">
        <ele>294.8</ele>
        <time>2022-05-24 16:45:38</time>
      </trkpt>
      <trkpt lat="40.82327" lon="0.40698">
        <ele>295</ele>
        <time>2022-05-24 16:45:39</time>
      </trkpt>
      <trkpt lat="40.82328" lon="0.40696">
        <ele>295.2</ele>
        <time>2022-05-24 16:45:40</time>
      </trkpt>
      <trkpt lat="40.82329" lon="0.40693">
        <ele>295.4</ele>
        <time>2022-05-24 16:45:41</time>
      </trkpt>
      <trkpt lat="40.8233" lon="0.40691">
        <ele>295.8</ele>
        <time>2022-05-24 16:45:42</time>
      </trkpt>
      <trkpt lat="40.82331" lon="0.4069">
        <ele>296</ele>
        <time>2022-05-24 16:45:43</time>
      </trkpt>
      <trkpt lat="40.82333" lon="0.40688">
        <ele>296.2</ele>
        <time>2022-05-24 16:45:44</time>
      </trkpt>
      <trkpt lat="40.82334" lon="0.40687">
        <ele>296.4</ele>
        <time>2022-05-24 16:45:45</time>
      </trkpt>
      <trkpt lat="40.82335" lon="0.40685">
        <ele>296.6</ele>
        <time>2022-05-24 16:45:46</time>
      </trkpt>
      <trkpt lat="40.82336" lon="0.40684">
        <ele>296.8</ele>
        <time>2022-05-24 16:45:47</time>
      </trkpt>
      <trkpt lat="40.82338" lon="0.40683">
        <ele>297.2</ele>
        <time>2022-05-24 16:45:48</time>
      </trkpt>
      <trkpt lat="40.82339" lon="0.40681">
        <ele>297.4</ele>
        <time>2022-05-24 16:45:49</time>
      </trkpt>
      <trkpt lat="40.8234" lon="0.4068">
        <ele>297.6</ele>
        <time>2022-05-24 16:45:50</time>
      </trkpt>
      <trkpt lat="40.82342" lon="0.40679">
        <ele>297.8</ele>
        <time>2022-05-24 16:45:51</time>
      </trkpt>
      <trkpt lat="40.82343" lon="0.40677">
        <ele>298</ele>
        <time>2022-05-24 16:45:52</time>
      </trkpt>
      <trkpt lat="40.82344" lon="0.40676">
        <ele>298.2</ele>
        <time>2022-05-24 16:45:53</time>
      </trkpt>
      <trkpt lat="40.82346" lon="0.40675">
        <ele>298.4</ele>
        <time>2022-05-24 16:45:54</time>
      </trkpt>
      <trkpt lat="40.82347" lon="0.40674">
        <ele>298.6</ele>
        <time>2022-05-24 16:45:55</time>
      </trkpt>
      <trkpt lat="40.82348" lon="0.40673">
        <ele>298.8</ele>
        <time>2022-05-24 16:45:56</time>
      </trkpt>
      <trkpt lat="40.82349" lon="0.40672">
        <ele>299</ele>
        <time>2022-05-24 16:45:57</time>
      </trkpt>
      <trkpt lat="40.82351" lon="0.40671">
        <ele>299.2</ele>
        <time>2022-05-24 16:45:58</time>
      </trkpt>
      <trkpt lat="40.82352" lon="0.40669">
        <ele>299.4</ele>
        <time>2022-05-24 16:45:59</time>
      </trkpt>
      <trkpt lat="40.82354" lon="0.40668">
        <ele>299.6</ele>
        <time>2022-05-24 16:46:00</time>
      </trkpt>
      <trkpt lat="40.82355" lon="0.40666">
        <ele>299.8</ele>
        <time>2022-05-24 16:46:01</time>
      </trkpt>
      <trkpt lat="40.82357" lon="0.40665">
        <ele>300</ele>
        <time>2022-05-24 16:46:02</time>
      </trkpt>
      <trkpt lat="40.82358" lon="0.40663">
        <ele>300.2</ele>
        <time>2022-05-24 16:46:03</time>
      </trkpt>
      <trkpt lat="40.8236" lon="0.40662">
        <ele>300.4</ele>
        <time>2022-05-24 16:46:04</time>
      </trkpt>
      <trkpt lat="40.82361" lon="0.4066">
        <ele>300.6</ele>
        <time>2022-05-24 16:46:05</time>
      </trkpt>
      <trkpt lat="40.82362" lon="0.40658">
        <ele>300.8</ele>
        <time>2022-05-24 16:46:06</time>
      </trkpt>
      <trkpt lat="40.82364" lon="0.40656">
        <ele>301</ele>
        <time>2022-05-24 16:46:07</time>
      </trkpt>
      <trkpt lat="40.82365" lon="0.40654">
        <ele>301.2</ele>
        <time>2022-05-24 16:46:08</time>
      </trkpt>
      <trkpt lat="40.82366" lon="0.40653">
        <ele>301.4</ele>
        <time>2022-05-24 16:46:09</time>
      </trkpt>
      <trkpt lat="40.82368" lon="0.40651">
        <ele>301.8</ele>
        <time>2022-05-24 16:46:10</time>
      </trkpt>
      <trkpt lat="40.82369" lon="0.40649">
        <ele>302</ele>
        <time>2022-05-24 16:46:11</time>
      </trkpt>
      <trkpt lat="40.8237" lon="0.40648">
        <ele>302.2</ele>
        <time>2022-05-24 16:46:12</time>
      </trkpt>
      <trkpt lat="40.82372" lon="0.40646">
        <ele>302.4</ele>
        <time>2022-05-24 16:46:13</time>
      </trkpt>
      <trkpt lat="40.82373" lon="0.40644">
        <ele>302.4</ele>
        <time>2022-05-24 16:46:14</time>
      </trkpt>
      <trkpt lat="40.82374" lon="0.40642">
        <ele>302.6</ele>
        <time>2022-05-24 16:46:15</time>
      </trkpt>
      <trkpt lat="40.82375" lon="0.4064">
        <ele>302.8</ele>
        <time>2022-05-24 16:46:16</time>
      </trkpt>
      <trkpt lat="40.82376" lon="0.40639">
        <ele>303</ele>
        <time>2022-05-24 16:46:17</time>
      </trkpt>
      <trkpt lat="40.82378" lon="0.40637">
        <ele>303.2</ele>
        <time>2022-05-24 16:46:18</time>
      </trkpt>
      <trkpt lat="40.82378" lon="0.40635">
        <ele>303.2</ele>
        <time>2022-05-24 16:46:19</time>
      </trkpt>
      <trkpt lat="40.82379" lon="0.40633">
        <ele>303.2</ele>
        <time>2022-05-24 16:46:20</time>
      </trkpt>
      <trkpt lat="40.8238" lon="0.4063">
        <ele>303.4</ele>
        <time>2022-05-24 16:46:21</time>
      </trkpt>
      <trkpt lat="40.8238" lon="0.40628">
        <ele>303.4</ele>
        <time>2022-05-24 16:46:22</time>
      </trkpt>
      <trkpt lat="40.82381" lon="0.40626">
        <ele>303.6</ele>
        <time>2022-05-24 16:46:23</time>
      </trkpt>
      <trkpt lat="40.82382" lon="0.40624">
        <ele>303.8</ele>
        <time>2022-05-24 16:46:24</time>
      </trkpt>
      <trkpt lat="40.82383" lon="0.40622">
        <ele>304</ele>
        <time>2022-05-24 16:46:25</time>
      </trkpt>
      <trkpt lat="40.82384" lon="0.4062">
        <ele>304.2</ele>
        <time>2022-05-24 16:46:26</time>
      </trkpt>
      <trkpt lat="40.82384" lon="0.40617">
        <ele>304.4</ele>
        <time>2022-05-24 16:46:27</time>
      </trkpt>
      <trkpt lat="40.82386" lon="0.40615">
        <ele>304.6</ele>
        <time>2022-05-24 16:46:28</time>
      </trkpt>
      <trkpt lat="40.82387" lon="0.40613">
        <ele>304.8</ele>
        <time>2022-05-24 16:46:29</time>
      </trkpt>
      <trkpt lat="40.82388" lon="0.40611">
        <ele>305</ele>
        <time>2022-05-24 16:46:30</time>
      </trkpt>
      <trkpt lat="40.82389" lon="0.40608">
        <ele>305</ele>
        <time>2022-05-24 16:46:31</time>
      </trkpt>
      <trkpt lat="40.82389" lon="0.40606">
        <ele>305.2</ele>
        <time>2022-05-24 16:46:32</time>
      </trkpt>
      <trkpt lat="40.8239" lon="0.40603">
        <ele>305.4</ele>
        <time>2022-05-24 16:46:33</time>
      </trkpt>
      <trkpt lat="40.82391" lon="0.40601">
        <ele>305.6</ele>
        <time>2022-05-24 16:46:34</time>
      </trkpt>
      <trkpt lat="40.82392" lon="0.40598">
        <ele>305.8</ele>
        <time>2022-05-24 16:46:35</time>
      </trkpt>
      <trkpt lat="40.82393" lon="0.40596">
        <ele>306</ele>
        <time>2022-05-24 16:46:36</time>
      </trkpt>
      <trkpt lat="40.82394" lon="0.40594">
        <ele>306.2</ele>
        <time>2022-05-24 16:46:37</time>
      </trkpt>
      <trkpt lat="40.82395" lon="0.40592">
        <ele>306.4</ele>
        <time>2022-05-24 16:46:38</time>
      </trkpt>
      <trkpt lat="40.82396" lon="0.4059">
        <ele>306.4</ele>
        <time>2022-05-24 16:46:39</time>
      </trkpt>
      <trkpt lat="40.82397" lon="0.40587">
        <ele>306.6</ele>
        <time>2022-05-24 16:46:40</time>
      </trkpt>
      <trkpt lat="40.82398" lon="0.40585">
        <ele>306.6</ele>
        <time>2022-05-24 16:46:41</time>
      </trkpt>
      <trkpt lat="40.82399" lon="0.40583">
        <ele>306.8</ele>
        <time>2022-05-24 16:46:42</time>
      </trkpt>
      <trkpt lat="40.82399" lon="0.40581">
        <ele>306.8</ele>
        <time>2022-05-24 16:46:43</time>
      </trkpt>
      <trkpt lat="40.824" lon="0.40579">
        <ele>307</ele>
        <time>2022-05-24 16:46:44</time>
      </trkpt>
      <trkpt lat="40.82401" lon="0.40576">
        <ele>307.2</ele>
        <time>2022-05-24 16:46:45</time>
      </trkpt>
      <trkpt lat="40.82401" lon="0.40574">
        <ele>307.4</ele>
        <time>2022-05-24 16:46:46</time>
      </trkpt>
      <trkpt lat="40.82402" lon="0.40572">
        <ele>307.8</ele>
        <time>2022-05-24 16:46:47</time>
      </trkpt>
      <trkpt lat="40.82402" lon="0.40569">
        <ele>308</ele>
        <time>2022-05-24 16:46:48</time>
      </trkpt>
      <trkpt lat="40.82403" lon="0.40567">
        <ele>308.2</ele>
        <time>2022-05-24 16:46:49</time>
      </trkpt>
      <trkpt lat="40.82404" lon="0.40565">
        <ele>308.4</ele>
        <time>2022-05-24 16:46:50</time>
      </trkpt>
      <trkpt lat="40.82404" lon="0.40563">
        <ele>308.6</ele>
        <time>2022-05-24 16:46:51</time>
      </trkpt>
      <trkpt lat="40.82405" lon="0.4056">
        <ele>308.6</ele>
        <time>2022-05-24 16:46:52</time>
      </trkpt>
      <trkpt lat="40.82406" lon="0.40558">
        <ele>308.8</ele>
        <time>2022-05-24 16:46:53</time>
      </trkpt>
      <trkpt lat="40.82407" lon="0.40556">
        <ele>309</ele>
        <time>2022-05-24 16:46:54</time>
      </trkpt>
      <trkpt lat="40.82408" lon="0.40554">
        <ele>309.2</ele>
        <time>2022-05-24 16:46:55</time>
      </trkpt>
      <trkpt lat="40.82409" lon="0.40552">
        <ele>309.2</ele>
        <time>2022-05-24 16:46:56</time>
      </trkpt>
      <trkpt lat="40.82409" lon="0.4055">
        <ele>309.4</ele>
        <time>2022-05-24 16:46:57</time>
      </trkpt>
      <trkpt lat="40.8241" lon="0.40547">
        <ele>309.6</ele>
        <time>2022-05-24 16:46:58</time>
      </trkpt>
      <trkpt lat="40.8241" lon="0.40545">
        <ele>309.8</ele>
        <time>2022-05-24 16:46:59</time>
      </trkpt>
      <trkpt lat="40.82411" lon="0.40542">
        <ele>310</ele>
        <time>2022-05-24 16:47:00</time>
      </trkpt>
      <trkpt lat="40.82411" lon="0.4054">
        <ele>310.2</ele>
        <time>2022-05-24 16:47:01</time>
      </trkpt>
      <trkpt lat="40.82412" lon="0.40538">
        <ele>310.4</ele>
        <time>2022-05-24 16:47:02</time>
      </trkpt>
      <trkpt lat="40.82413" lon="0.40536">
        <ele>310.6</ele>
        <time>2022-05-24 16:47:03</time>
      </trkpt>
      <trkpt lat="40.82414" lon="0.40534">
        <ele>310.8</ele>
        <time>2022-05-24 16:47:04</time>
      </trkpt>
      <trkpt lat="40.82415" lon="0.40532">
        <ele>310.8</ele>
        <time>2022-05-24 16:47:05</time>
      </trkpt>
      <trkpt lat="40.82415" lon="0.4053">
        <ele>311</ele>
        <time>2022-05-24 16:47:06</time>
      </trkpt>
      <trkpt lat="40.82416" lon="0.40528">
        <ele>310.8</ele>
        <time>2022-05-24 16:47:07</time>
      </trkpt>
      <trkpt lat="40.82417" lon="0.40525">
        <ele>310.8</ele>
        <time>2022-05-24 16:47:08</time>
      </trkpt>
      <trkpt lat="40.82417" lon="0.40523">
        <ele>310.8</ele>
        <time>2022-05-24 16:47:09</time>
      </trkpt>
      <trkpt lat="40.82418" lon="0.40521">
        <ele>311</ele>
        <time>2022-05-24 16:47:10</time>
      </trkpt>
      <trkpt lat="40.82418" lon="0.40519">
        <ele>311.2</ele>
        <time>2022-05-24 16:47:11</time>
      </trkpt>
      <trkpt lat="40.82419" lon="0.40516">
        <ele>311.4</ele>
        <time>2022-05-24 16:47:12</time>
      </trkpt>
      <trkpt lat="40.82419" lon="0.40514">
        <ele>311.6</ele>
        <time>2022-05-24 16:47:13</time>
      </trkpt>
      <trkpt lat="40.8242" lon="0.40512">
        <ele>312</ele>
        <time>2022-05-24 16:47:14</time>
      </trkpt>
      <trkpt lat="40.8242" lon="0.4051">
        <ele>312</ele>
        <time>2022-05-24 16:47:15</time>
      </trkpt>
      <trkpt lat="40.82421" lon="0.40508">
        <ele>312.2</ele>
        <time>2022-05-24 16:47:16</time>
      </trkpt>
      <trkpt lat="40.82421" lon="0.40506">
        <ele>312.4</ele>
        <time>2022-05-24 16:47:17</time>
      </trkpt>
      <trkpt lat="40.82421" lon="0.40504">
        <ele>312.6</ele>
        <time>2022-05-24 16:47:18</time>
      </trkpt>
      <trkpt lat="40.82422" lon="0.40501">
        <ele>312.8</ele>
        <time>2022-05-24 16:47:19</time>
      </trkpt>
      <trkpt lat="40.82423" lon="0.40499">
        <ele>313</ele>
        <time>2022-05-24 16:47:20</time>
      </trkpt>
      <trkpt lat="40.82424" lon="0.40497">
        <ele>313.2</ele>
        <time>2022-05-24 16:47:21</time>
      </trkpt>
      <trkpt lat="40.82425" lon="0.40495">
        <ele>313.4</ele>
        <time>2022-05-24 16:47:22</time>
      </trkpt>
      <trkpt lat="40.82425" lon="0.40493">
        <ele>313.6</ele>
        <time>2022-05-24 16:47:23</time>
      </trkpt>
      <trkpt lat="40.82426" lon="0.40491">
        <ele>313.8</ele>
        <time>2022-05-24 16:47:24</time>
      </trkpt>
      <trkpt lat="40.82426" lon="0.40488">
        <ele>314</ele>
        <time>2022-05-24 16:47:25</time>
      </trkpt>
      <trkpt lat="40.82428" lon="0.40486">
        <ele>314.2</ele>
        <time>2022-05-24 16:47:26</time>
      </trkpt>
      <trkpt lat="40.82428" lon="0.40484">
        <ele>314.4</ele>
        <time>2022-05-24 16:47:27</time>
      </trkpt>
      <trkpt lat="40.82429" lon="0.40482">
        <ele>314.6</ele>
        <time>2022-05-24 16:47:28</time>
      </trkpt>
      <trkpt lat="40.8243" lon="0.4048">
        <ele>314.8</ele>
        <time>2022-05-24 16:47:29</time>
      </trkpt>
      <trkpt lat="40.8243" lon="0.40477">
        <ele>315</ele>
        <time>2022-05-24 16:47:30</time>
      </trkpt>
      <trkpt lat="40.82431" lon="0.40475">
        <ele>315.2</ele>
        <time>2022-05-24 16:47:31</time>
      </trkpt>
      <trkpt lat="40.82431" lon="0.40473">
        <ele>315.6</ele>
        <time>2022-05-24 16:47:32</time>
      </trkpt>
      <trkpt lat="40.82431" lon="0.40471">
        <ele>315.8</ele>
        <time>2022-05-24 16:47:33</time>
      </trkpt>
      <trkpt lat="40.82432" lon="0.40469">
        <ele>316</ele>
        <time>2022-05-24 16:47:34</time>
      </trkpt>
      <trkpt lat="40.82433" lon="0.40466">
        <ele>316.2</ele>
        <time>2022-05-24 16:47:35</time>
      </trkpt>
      <trkpt lat="40.82433" lon="0.40464">
        <ele>316.4</ele>
        <time>2022-05-24 16:47:36</time>
      </trkpt>
      <trkpt lat="40.82434" lon="0.40462">
        <ele>316.6</ele>
        <time>2022-05-24 16:47:37</time>
      </trkpt>
      <trkpt lat="40.82435" lon="0.4046">
        <ele>316.8</ele>
        <time>2022-05-24 16:47:38</time>
      </trkpt>
      <trkpt lat="40.82436" lon="0.40458">
        <ele>317</ele>
        <time>2022-05-24 16:47:39</time>
      </trkpt>
      <trkpt lat="40.82436" lon="0.40456">
        <ele>317.2</ele>
        <time>2022-05-24 16:47:40</time>
      </trkpt>
      <trkpt lat="40.82437" lon="0.40454">
        <ele>317.4</ele>
        <time>2022-05-24 16:47:41</time>
      </trkpt>
      <trkpt lat="40.82438" lon="0.40452">
        <ele>317.6</ele>
        <time>2022-05-24 16:47:42</time>
      </trkpt>
      <trkpt lat="40.82438" lon="0.4045">
        <ele>317.8</ele>
        <time>2022-05-24 16:47:43</time>
      </trkpt>
      <trkpt lat="40.82439" lon="0.40448">
        <ele>318</ele>
        <time>2022-05-24 16:47:44</time>
      </trkpt>
      <trkpt lat="40.82439" lon="0.40446">
        <ele>318</ele>
        <time>2022-05-24 16:47:45</time>
      </trkpt>
      <trkpt lat="40.8244" lon="0.40444">
        <ele>318.2</ele>
        <time>2022-05-24 16:47:46</time>
      </trkpt>
      <trkpt lat="40.82441" lon="0.40441">
        <ele>318.4</ele>
        <time>2022-05-24 16:47:47</time>
      </trkpt>
      <trkpt lat="40.82441" lon="0.4044">
        <ele>318.6</ele>
        <time>2022-05-24 16:47:48</time>
      </trkpt>
      <trkpt lat="40.82442" lon="0.40438">
        <ele>318.8</ele>
        <time>2022-05-24 16:47:49</time>
      </trkpt>
      <trkpt lat="40.82443" lon="0.40435">
        <ele>319</ele>
        <time>2022-05-24 16:47:50</time>
      </trkpt>
      <trkpt lat="40.82444" lon="0.40433">
        <ele>319.4</ele>
        <time>2022-05-24 16:47:51</time>
      </trkpt>
      <trkpt lat="40.82444" lon="0.40431">
        <ele>319.6</ele>
        <time>2022-05-24 16:47:52</time>
      </trkpt>
      <trkpt lat="40.82445" lon="0.40429">
        <ele>319.8</ele>
        <time>2022-05-24 16:47:53</time>
      </trkpt>
      <trkpt lat="40.82446" lon="0.40426">
        <ele>320</ele>
        <time>2022-05-24 16:47:54</time>
      </trkpt>
      <trkpt lat="40.82446" lon="0.40424">
        <ele>320.2</ele>
        <time>2022-05-24 16:47:55</time>
      </trkpt>
      <trkpt lat="40.82447" lon="0.40422">
        <ele>320.4</ele>
        <time>2022-05-24 16:47:56</time>
      </trkpt>
      <trkpt lat="40.82447" lon="0.4042">
        <ele>320.8</ele>
        <time>2022-05-24 16:47:57</time>
      </trkpt>
      <trkpt lat="40.82448" lon="0.40418">
        <ele>321</ele>
        <time>2022-05-24 16:47:58</time>
      </trkpt>
      <trkpt lat="40.82449" lon="0.40416">
        <ele>321.2</ele>
        <time>2022-05-24 16:47:59</time>
      </trkpt>
      <trkpt lat="40.82449" lon="0.40414">
        <ele>321.4</ele>
        <time>2022-05-24 16:48:00</time>
      </trkpt>
      <trkpt lat="40.8245" lon="0.40412">
        <ele>321.6</ele>
        <time>2022-05-24 16:48:01</time>
      </trkpt>
      <trkpt lat="40.8245" lon="0.4041">
        <ele>321.8</ele>
        <time>2022-05-24 16:48:02</time>
      </trkpt>
      <trkpt lat="40.82451" lon="0.40407">
        <ele>322.2</ele>
        <time>2022-05-24 16:48:03</time>
      </trkpt>
      <trkpt lat="40.82452" lon="0.40405">
        <ele>322.4</ele>
        <time>2022-05-24 16:48:04</time>
      </trkpt>
      <trkpt lat="40.82452" lon="0.40403">
        <ele>322.6</ele>
        <time>2022-05-24 16:48:05</time>
      </trkpt>
      <trkpt lat="40.82453" lon="0.40401">
        <ele>322.8</ele>
        <time>2022-05-24 16:48:06</time>
      </trkpt>
      <trkpt lat="40.82454" lon="0.40398">
        <ele>323</ele>
        <time>2022-05-24 16:48:07</time>
      </trkpt>
      <trkpt lat="40.82455" lon="0.40396">
        <ele>323.2</ele>
        <time>2022-05-24 16:48:08</time>
      </trkpt>
      <trkpt lat="40.82455" lon="0.40393">
        <ele>323.4</ele>
        <time>2022-05-24 16:48:09</time>
      </trkpt>
      <trkpt lat="40.82456" lon="0.40391">
        <ele>323.6</ele>
        <time>2022-05-24 16:48:10</time>
      </trkpt>
      <trkpt lat="40.82456" lon="0.40389">
        <ele>323.8</ele>
        <time>2022-05-24 16:48:11</time>
      </trkpt>
      <trkpt lat="40.82457" lon="0.40386">
        <ele>324</ele>
        <time>2022-05-24 16:48:12</time>
      </trkpt>
      <trkpt lat="40.82457" lon="0.40383">
        <ele>324.2</ele>
        <time>2022-05-24 16:48:13</time>
      </trkpt>
      <trkpt lat="40.82457" lon="0.40381">
        <ele>324.4</ele>
        <time>2022-05-24 16:48:14</time>
      </trkpt>
      <trkpt lat="40.82457" lon="0.40378">
        <ele>324.6</ele>
        <time>2022-05-24 16:48:15</time>
      </trkpt>
      <trkpt lat="40.82458" lon="0.40376">
        <ele>324.8</ele>
        <time>2022-05-24 16:48:16</time>
      </trkpt>
      <trkpt lat="40.82458" lon="0.40373">
        <ele>324.8</ele>
        <time>2022-05-24 16:48:17</time>
      </trkpt>
      <trkpt lat="40.82458" lon="0.4037">
        <ele>325</ele>
        <time>2022-05-24 16:48:18</time>
      </trkpt>
      <trkpt lat="40.82458" lon="0.40368">
        <ele>325.2</ele>
        <time>2022-05-24 16:48:19</time>
      </trkpt>
      <trkpt lat="40.82458" lon="0.40365">
        <ele>325.2</ele>
        <time>2022-05-24 16:48:20</time>
      </trkpt>
      <trkpt lat="40.82458" lon="0.40363">
        <ele>325.4</ele>
        <time>2022-05-24 16:48:21</time>
      </trkpt>
      <trkpt lat="40.82459" lon="0.4036">
        <ele>325.6</ele>
        <time>2022-05-24 16:48:22</time>
      </trkpt>
      <trkpt lat="40.82459" lon="0.40358">
        <ele>325.6</ele>
        <time>2022-05-24 16:48:23</time>
      </trkpt>
      <trkpt lat="40.8246" lon="0.40356">
        <ele>326</ele>
        <time>2022-05-24 16:48:24</time>
      </trkpt>
      <trkpt lat="40.82461" lon="0.40353">
        <ele>326.2</ele>
        <time>2022-05-24 16:48:25</time>
      </trkpt>
      <trkpt lat="40.82462" lon="0.40351">
        <ele>326.4</ele>
        <time>2022-05-24 16:48:26</time>
      </trkpt>
      <trkpt lat="40.82464" lon="0.4035">
        <ele>326.6</ele>
        <time>2022-05-24 16:48:27</time>
      </trkpt>
      <trkpt lat="40.82465" lon="0.40348">
        <ele>326.6</ele>
        <time>2022-05-24 16:48:28</time>
      </trkpt>
      <trkpt lat="40.82466" lon="0.40346">
        <ele>326.8</ele>
        <time>2022-05-24 16:48:29</time>
      </trkpt>
      <trkpt lat="40.82467" lon="0.40344">
        <ele>326.8</ele>
        <time>2022-05-24 16:48:30</time>
      </trkpt>
      <trkpt lat="40.82469" lon="0.40342">
        <ele>327</ele>
        <time>2022-05-24 16:48:31</time>
      </trkpt>
      <trkpt lat="40.8247" lon="0.40341">
        <ele>327.2</ele>
        <time>2022-05-24 16:48:32</time>
      </trkpt>
      <trkpt lat="40.82471" lon="0.40339">
        <ele>327.2</ele>
        <time>2022-05-24 16:48:33</time>
      </trkpt>
      <trkpt lat="40.82472" lon="0.40337">
        <ele>327.4</ele>
        <time>2022-05-24 16:48:34</time>
      </trkpt>
      <trkpt lat="40.82474" lon="0.40336">
        <ele>327.4</ele>
        <time>2022-05-24 16:48:35</time>
      </trkpt>
      <trkpt lat="40.82475" lon="0.40334">
        <ele>327.6</ele>
        <time>2022-05-24 16:48:36</time>
      </trkpt>
      <trkpt lat="40.82477" lon="0.40333">
        <ele>327.8</ele>
        <time>2022-05-24 16:48:37</time>
      </trkpt>
      <trkpt lat="40.82478" lon="0.40331">
        <ele>328</ele>
        <time>2022-05-24 16:48:38</time>
      </trkpt>
      <trkpt lat="40.82479" lon="0.4033">
        <ele>328.2</ele>
        <time>2022-05-24 16:48:39</time>
      </trkpt>
      <trkpt lat="40.82481" lon="0.40328">
        <ele>328.4</ele>
        <time>2022-05-24 16:48:40</time>
      </trkpt>
      <trkpt lat="40.82482" lon="0.40327">
        <ele>328.8</ele>
        <time>2022-05-24 16:48:41</time>
      </trkpt>
      <trkpt lat="40.82484" lon="0.40325">
        <ele>329</ele>
        <time>2022-05-24 16:48:42</time>
      </trkpt>
      <trkpt lat="40.82485" lon="0.40324">
        <ele>329.2</ele>
        <time>2022-05-24 16:48:43</time>
      </trkpt>
      <trkpt lat="40.82486" lon="0.40322">
        <ele>329.4</ele>
        <time>2022-05-24 16:48:44</time>
      </trkpt>
      <trkpt lat="40.82487" lon="0.40321">
        <ele>329.6</ele>
        <time>2022-05-24 16:48:45</time>
      </trkpt>
      <trkpt lat="40.82489" lon="0.40319">
        <ele>329.8</ele>
        <time>2022-05-24 16:48:46</time>
      </trkpt>
      <trkpt lat="40.82491" lon="0.40317">
        <ele>329.8</ele>
        <time>2022-05-24 16:48:47</time>
      </trkpt>
      <trkpt lat="40.82492" lon="0.40316">
        <ele>330</ele>
        <time>2022-05-24 16:48:48</time>
      </trkpt>
      <trkpt lat="40.82494" lon="0.40314">
        <ele>330.2</ele>
        <time>2022-05-24 16:48:49</time>
      </trkpt>
      <trkpt lat="40.82496" lon="0.40313">
        <ele>330.4</ele>
        <time>2022-05-24 16:48:50</time>
      </trkpt>
      <trkpt lat="40.82497" lon="0.40312">
        <ele>330.6</ele>
        <time>2022-05-24 16:48:51</time>
      </trkpt>
      <trkpt lat="40.82498" lon="0.4031">
        <ele>330.8</ele>
        <time>2022-05-24 16:48:52</time>
      </trkpt>
      <trkpt lat="40.82499" lon="0.40309">
        <ele>331</ele>
        <time>2022-05-24 16:48:53</time>
      </trkpt>
      <trkpt lat="40.825" lon="0.40307">
        <ele>331.2</ele>
        <time>2022-05-24 16:48:54</time>
      </trkpt>
      <trkpt lat="40.82502" lon="0.40306">
        <ele>331.6</ele>
        <time>2022-05-24 16:48:55</time>
      </trkpt>
      <trkpt lat="40.82502" lon="0.40305">
        <ele>331.6</ele>
        <time>2022-05-24 16:48:56</time>
      </trkpt>
      <trkpt lat="40.82504" lon="0.40303">
        <ele>331.8</ele>
        <time>2022-05-24 16:48:57</time>
      </trkpt>
      <trkpt lat="40.82505" lon="0.40302">
        <ele>332.2</ele>
        <time>2022-05-24 16:48:58</time>
      </trkpt>
      <trkpt lat="40.82506" lon="0.40299">
        <ele>332.4</ele>
        <time>2022-05-24 16:48:59</time>
      </trkpt>
      <trkpt lat="40.82507" lon="0.40298">
        <ele>332.6</ele>
        <time>2022-05-24 16:49:00</time>
      </trkpt>
      <trkpt lat="40.82509" lon="0.40296">
        <ele>333</ele>
        <time>2022-05-24 16:49:01</time>
      </trkpt>
      <trkpt lat="40.8251" lon="0.40294">
        <ele>333.2</ele>
        <time>2022-05-24 16:49:02</time>
      </trkpt>
      <trkpt lat="40.82511" lon="0.40292">
        <ele>333.4</ele>
        <time>2022-05-24 16:49:03</time>
      </trkpt>
      <trkpt lat="40.82512" lon="0.4029">
        <ele>333.8</ele>
        <time>2022-05-24 16:49:04</time>
      </trkpt>
      <trkpt lat="40.82514" lon="0.40288">
        <ele>334</ele>
        <time>2022-05-24 16:49:05</time>
      </trkpt>
      <trkpt lat="40.82515" lon="0.40286">
        <ele>334</ele>
        <time>2022-05-24 16:49:06</time>
      </trkpt>
      <trkpt lat="40.82516" lon="0.40284">
        <ele>334.2</ele>
        <time>2022-05-24 16:49:07</time>
      </trkpt>
      <trkpt lat="40.82517" lon="0.40282">
        <ele>334.4</ele>
        <time>2022-05-24 16:49:08</time>
      </trkpt>
      <trkpt lat="40.82518" lon="0.4028">
        <ele>334.8</ele>
        <time>2022-05-24 16:49:09</time>
      </trkpt>
      <trkpt lat="40.82519" lon="0.40278">
        <ele>335</ele>
        <time>2022-05-24 16:49:10</time>
      </trkpt>
      <trkpt lat="40.8252" lon="0.40276">
        <ele>335.2</ele>
        <time>2022-05-24 16:49:11</time>
      </trkpt>
      <trkpt lat="40.82521" lon="0.40274">
        <ele>335.4</ele>
        <time>2022-05-24 16:49:12</time>
      </trkpt>
      <trkpt lat="40.82521" lon="0.40271">
        <ele>335.6</ele>
        <time>2022-05-24 16:49:13</time>
      </trkpt>
      <trkpt lat="40.82522" lon="0.40269">
        <ele>335.8</ele>
        <time>2022-05-24 16:49:14</time>
      </trkpt>
      <trkpt lat="40.82522" lon="0.40267">
        <ele>336</ele>
        <time>2022-05-24 16:49:15</time>
      </trkpt>
      <trkpt lat="40.82523" lon="0.40265">
        <ele>336.2</ele>
        <time>2022-05-24 16:49:16</time>
      </trkpt>
      <trkpt lat="40.82523" lon="0.40263">
        <ele>336.4</ele>
        <time>2022-05-24 16:49:17</time>
      </trkpt>
      <trkpt lat="40.82523" lon="0.40261">
        <ele>336.6</ele>
        <time>2022-05-24 16:49:18</time>
      </trkpt>
      <trkpt lat="40.82523" lon="0.40259">
        <ele>336.8</ele>
        <time>2022-05-24 16:49:19</time>
      </trkpt>
      <trkpt lat="40.82523" lon="0.40257">
        <ele>336.8</ele>
        <time>2022-05-24 16:49:20</time>
      </trkpt>
      <trkpt lat="40.82523" lon="0.40255">
        <ele>337</ele>
        <time>2022-05-24 16:49:21</time>
      </trkpt>
      <trkpt lat="40.82523" lon="0.40253">
        <ele>337.2</ele>
        <time>2022-05-24 16:49:22</time>
      </trkpt>
      <trkpt lat="40.82523" lon="0.40251">
        <ele>337.4</ele>
        <time>2022-05-24 16:49:23</time>
      </trkpt>
      <trkpt lat="40.82522" lon="0.40248">
        <ele>337.6</ele>
        <time>2022-05-24 16:49:24</time>
      </trkpt>
      <trkpt lat="40.82522" lon="0.40246">
        <ele>337.6</ele>
        <time>2022-05-24 16:49:25</time>
      </trkpt>
      <trkpt lat="40.82521" lon="0.40244">
        <ele>337.8</ele>
        <time>2022-05-24 16:49:26</time>
      </trkpt>
      <trkpt lat="40.82521" lon="0.40242">
        <ele>338</ele>
        <time>2022-05-24 16:49:27</time>
      </trkpt>
      <trkpt lat="40.8252" lon="0.4024">
        <ele>338</ele>
        <time>2022-05-24 16:49:28</time>
      </trkpt>
      <trkpt lat="40.82519" lon="0.40238">
        <ele>338.4</ele>
        <time>2022-05-24 16:49:29</time>
      </trkpt>
      <trkpt lat="40.82518" lon="0.40236">
        <ele>338.4</ele>
        <time>2022-05-24 16:49:30</time>
      </trkpt>
      <trkpt lat="40.82517" lon="0.40234">
        <ele>338.6</ele>
        <time>2022-05-24 16:49:31</time>
      </trkpt>
      <trkpt lat="40.82516" lon="0.40232">
        <ele>338.6</ele>
        <time>2022-05-24 16:49:32</time>
      </trkpt>
      <trkpt lat="40.82516" lon="0.40229">
        <ele>338.8</ele>
        <time>2022-05-24 16:49:33</time>
      </trkpt>
      <trkpt lat="40.82515" lon="0.40227">
        <ele>339</ele>
        <time>2022-05-24 16:49:34</time>
      </trkpt>
      <trkpt lat="40.82514" lon="0.40225">
        <ele>339.2</ele>
        <time>2022-05-24 16:49:35</time>
      </trkpt>
      <trkpt lat="40.82513" lon="0.40223">
        <ele>339.2</ele>
        <time>2022-05-24 16:49:36</time>
      </trkpt>
      <trkpt lat="40.82512" lon="0.40221">
        <ele>339.4</ele>
        <time>2022-05-24 16:49:37</time>
      </trkpt>
      <trkpt lat="40.82512" lon="0.40219">
        <ele>339.4</ele>
        <time>2022-05-24 16:49:38</time>
      </trkpt>
      <trkpt lat="40.8251" lon="0.40217">
        <ele>339.6</ele>
        <time>2022-05-24 16:49:39</time>
      </trkpt>
      <trkpt lat="40.82509" lon="0.40215">
        <ele>339.6</ele>
        <time>2022-05-24 16:49:40</time>
      </trkpt>
      <trkpt lat="40.82508" lon="0.40214">
        <ele>339.8</ele>
        <time>2022-05-24 16:49:41</time>
      </trkpt>
      <trkpt lat="40.82507" lon="0.40212">
        <ele>340</ele>
        <time>2022-05-24 16:49:42</time>
      </trkpt>
      <trkpt lat="40.82506" lon="0.4021">
        <ele>340.2</ele>
        <time>2022-05-24 16:49:43</time>
      </trkpt>
      <trkpt lat="40.82505" lon="0.40208">
        <ele>340.4</ele>
        <time>2022-05-24 16:49:44</time>
      </trkpt>
      <trkpt lat="40.82504" lon="0.40206">
        <ele>340.6</ele>
        <time>2022-05-24 16:49:45</time>
      </trkpt>
      <trkpt lat="40.82504" lon="0.40204">
        <ele>340.8</ele>
        <time>2022-05-24 16:49:46</time>
      </trkpt>
      <trkpt lat="40.82502" lon="0.40202">
        <ele>340.8</ele>
        <time>2022-05-24 16:49:47</time>
      </trkpt>
      <trkpt lat="40.82502" lon="0.402">
        <ele>341</ele>
        <time>2022-05-24 16:49:48</time>
      </trkpt>
      <trkpt lat="40.82501" lon="0.40198">
        <ele>341</ele>
        <time>2022-05-24 16:49:49</time>
      </trkpt>
      <trkpt lat="40.825" lon="0.40196">
        <ele>341.2</ele>
        <time>2022-05-24 16:49:50</time>
      </trkpt>
      <trkpt lat="40.82499" lon="0.40194">
        <ele>341.4</ele>
        <time>2022-05-24 16:49:51</time>
      </trkpt>
      <trkpt lat="40.82498" lon="0.40192">
        <ele>341.6</ele>
        <time>2022-05-24 16:49:52</time>
      </trkpt>
      <trkpt lat="40.82497" lon="0.40191">
        <ele>341.6</ele>
        <time>2022-05-24 16:49:53</time>
      </trkpt>
      <trkpt lat="40.82496" lon="0.40189">
        <ele>341.8</ele>
        <time>2022-05-24 16:49:54</time>
      </trkpt>
      <trkpt lat="40.82494" lon="0.40187">
        <ele>341.8</ele>
        <time>2022-05-24 16:49:55</time>
      </trkpt>
      <trkpt lat="40.82494" lon="0.40185">
        <ele>342</ele>
        <time>2022-05-24 16:49:56</time>
      </trkpt>
      <trkpt lat="40.82493" lon="0.40183">
        <ele>342</ele>
        <time>2022-05-24 16:49:57</time>
      </trkpt>
      <trkpt lat="40.82492" lon="0.40181">
        <ele>342.2</ele>
        <time>2022-05-24 16:49:58</time>
      </trkpt>
      <trkpt lat="40.82491" lon="0.40179">
        <ele>342.4</ele>
        <time>2022-05-24 16:49:59</time>
      </trkpt>
      <trkpt lat="40.82491" lon="0.40178">
        <ele>342.4</ele>
        <time>2022-05-24 16:50:00</time>
      </trkpt>
      <trkpt lat="40.8249" lon="0.40176">
        <ele>342.6</ele>
        <time>2022-05-24 16:50:01</time>
      </trkpt>
      <trkpt lat="40.82489" lon="0.40174">
        <ele>342.6</ele>
        <time>2022-05-24 16:50:02</time>
      </trkpt>
      <trkpt lat="40.82489" lon="0.40172">
        <ele>342.8</ele>
        <time>2022-05-24 16:50:03</time>
      </trkpt>
      <trkpt lat="40.82488" lon="0.4017">
        <ele>343</ele>
        <time>2022-05-24 16:50:04</time>
      </trkpt>
      <trkpt lat="40.82487" lon="0.40168">
        <ele>343</ele>
        <time>2022-05-24 16:50:05</time>
      </trkpt>
      <trkpt lat="40.82486" lon="0.40166">
        <ele>343.4</ele>
        <time>2022-05-24 16:50:06</time>
      </trkpt>
      <trkpt lat="40.82486" lon="0.40164">
        <ele>343.6</ele>
        <time>2022-05-24 16:50:07</time>
      </trkpt>
      <trkpt lat="40.82485" lon="0.40162">
        <ele>343.8</ele>
        <time>2022-05-24 16:50:08</time>
      </trkpt>
      <trkpt lat="40.82484" lon="0.4016">
        <ele>344</ele>
        <time>2022-05-24 16:50:09</time>
      </trkpt>
      <trkpt lat="40.82483" lon="0.40158">
        <ele>344.2</ele>
        <time>2022-05-24 16:50:10</time>
      </trkpt>
      <trkpt lat="40.82482" lon="0.40156">
        <ele>344.4</ele>
        <time>2022-05-24 16:50:11</time>
      </trkpt>
      <trkpt lat="40.82481" lon="0.40154">
        <ele>344.6</ele>
        <time>2022-05-24 16:50:12</time>
      </trkpt>
      <trkpt lat="40.82481" lon="0.40152">
        <ele>344.6</ele>
        <time>2022-05-24 16:50:13</time>
      </trkpt>
      <trkpt lat="40.8248" lon="0.4015">
        <ele>344.8</ele>
        <time>2022-05-24 16:50:14</time>
      </trkpt>
      <trkpt lat="40.82479" lon="0.40148">
        <ele>344.8</ele>
        <time>2022-05-24 16:50:15</time>
      </trkpt>
      <trkpt lat="40.82479" lon="0.40146">
        <ele>345</ele>
        <time>2022-05-24 16:50:16</time>
      </trkpt>
      <trkpt lat="40.82478" lon="0.40144">
        <ele>345.2</ele>
        <time>2022-05-24 16:50:17</time>
      </trkpt>
      <trkpt lat="40.82477" lon="0.40142">
        <ele>345.2</ele>
        <time>2022-05-24 16:50:18</time>
      </trkpt>
      <trkpt lat="40.82477" lon="0.4014">
        <ele>345.4</ele>
        <time>2022-05-24 16:50:19</time>
      </trkpt>
      <trkpt lat="40.82477" lon="0.40138">
        <ele>345.8</ele>
        <time>2022-05-24 16:50:20</time>
      </trkpt>
      <trkpt lat="40.82476" lon="0.40136">
        <ele>346</ele>
        <time>2022-05-24 16:50:21</time>
      </trkpt>
      <trkpt lat="40.82475" lon="0.40134">
        <ele>346.2</ele>
        <time>2022-05-24 16:50:22</time>
      </trkpt>
      <trkpt lat="40.82475" lon="0.40132">
        <ele>346.4</ele>
        <time>2022-05-24 16:50:23</time>
      </trkpt>
      <trkpt lat="40.82473" lon="0.4013">
        <ele>346.6</ele>
        <time>2022-05-24 16:50:24</time>
      </trkpt>
      <trkpt lat="40.82473" lon="0.40128">
        <ele>346.8</ele>
        <time>2022-05-24 16:50:25</time>
      </trkpt>
      <trkpt lat="40.82471" lon="0.40126">
        <ele>347</ele>
        <time>2022-05-24 16:50:26</time>
      </trkpt>
      <trkpt lat="40.8247" lon="0.40124">
        <ele>347</ele>
        <time>2022-05-24 16:50:27</time>
      </trkpt>
      <trkpt lat="40.82469" lon="0.40122">
        <ele>347.2</ele>
        <time>2022-05-24 16:50:28</time>
      </trkpt>
      <trkpt lat="40.82468" lon="0.4012">
        <ele>347.4</ele>
        <time>2022-05-24 16:50:29</time>
      </trkpt>
      <trkpt lat="40.82468" lon="0.40118">
        <ele>347.6</ele>
        <time>2022-05-24 16:50:30</time>
      </trkpt>
      <trkpt lat="40.82467" lon="0.40116">
        <ele>347.8</ele>
        <time>2022-05-24 16:50:31</time>
      </trkpt>
      <trkpt lat="40.82466" lon="0.40114">
        <ele>348</ele>
        <time>2022-05-24 16:50:32</time>
      </trkpt>
      <trkpt lat="40.82466" lon="0.40111">
        <ele>348.4</ele>
        <time>2022-05-24 16:50:33</time>
      </trkpt>
      <trkpt lat="40.82465" lon="0.40109">
        <ele>348.6</ele>
        <time>2022-05-24 16:50:34</time>
      </trkpt>
      <trkpt lat="40.82465" lon="0.40107">
        <ele>348.8</ele>
        <time>2022-05-24 16:50:35</time>
      </trkpt>
      <trkpt lat="40.82465" lon="0.40104">
        <ele>349</ele>
        <time>2022-05-24 16:50:36</time>
      </trkpt>
      <trkpt lat="40.82465" lon="0.40102">
        <ele>349.2</ele>
        <time>2022-05-24 16:50:37</time>
      </trkpt>
      <trkpt lat="40.82464" lon="0.401">
        <ele>349.6</ele>
        <time>2022-05-24 16:50:38</time>
      </trkpt>
      <trkpt lat="40.82464" lon="0.40097">
        <ele>349.6</ele>
        <time>2022-05-24 16:50:39</time>
      </trkpt>
      <trkpt lat="40.82464" lon="0.40095">
        <ele>349.8</ele>
        <time>2022-05-24 16:50:40</time>
      </trkpt>
      <trkpt lat="40.82463" lon="0.40092">
        <ele>350</ele>
        <time>2022-05-24 16:50:41</time>
      </trkpt>
      <trkpt lat="40.82462" lon="0.4009">
        <ele>350.4</ele>
        <time>2022-05-24 16:50:42</time>
      </trkpt>
      <trkpt lat="40.82462" lon="0.40088">
        <ele>350.6</ele>
        <time>2022-05-24 16:50:43</time>
      </trkpt>
      <trkpt lat="40.82462" lon="0.40086">
        <ele>350.6</ele>
        <time>2022-05-24 16:50:44</time>
      </trkpt>
      <trkpt lat="40.82461" lon="0.40084">
        <ele>350.8</ele>
        <time>2022-05-24 16:50:45</time>
      </trkpt>
      <trkpt lat="40.8246" lon="0.40082">
        <ele>351.2</ele>
        <time>2022-05-24 16:50:46</time>
      </trkpt>
      <trkpt lat="40.8246" lon="0.4008">
        <ele>351.2</ele>
        <time>2022-05-24 16:50:47</time>
      </trkpt>
      <trkpt lat="40.8246" lon="0.40077">
        <ele>351.6</ele>
        <time>2022-05-24 16:50:48</time>
      </trkpt>
      <trkpt lat="40.82459" lon="0.40075">
        <ele>351.6</ele>
        <time>2022-05-24 16:50:49</time>
      </trkpt>
      <trkpt lat="40.82458" lon="0.40073">
        <ele>351.8</ele>
        <time>2022-05-24 16:50:50</time>
      </trkpt>
      <trkpt lat="40.82458" lon="0.40071">
        <ele>352</ele>
        <time>2022-05-24 16:50:51</time>
      </trkpt>
      <trkpt lat="40.82457" lon="0.40068">
        <ele>352</ele>
        <time>2022-05-24 16:50:52</time>
      </trkpt>
      <trkpt lat="40.82456" lon="0.40066">
        <ele>352.2</ele>
        <time>2022-05-24 16:50:53</time>
      </trkpt>
      <trkpt lat="40.82455" lon="0.40064">
        <ele>352.6</ele>
        <time>2022-05-24 16:50:54</time>
      </trkpt>
      <trkpt lat="40.82454" lon="0.40062">
        <ele>352.8</ele>
        <time>2022-05-24 16:50:55</time>
      </trkpt>
      <trkpt lat="40.82453" lon="0.4006">
        <ele>353</ele>
        <time>2022-05-24 16:50:56</time>
      </trkpt>
      <trkpt lat="40.82452" lon="0.40058">
        <ele>353</ele>
        <time>2022-05-24 16:50:57</time>
      </trkpt>
      <trkpt lat="40.82451" lon="0.40056">
        <ele>353</ele>
        <time>2022-05-24 16:50:58</time>
      </trkpt>
      <trkpt lat="40.82449" lon="0.40055">
        <ele>353.2</ele>
        <time>2022-05-24 16:50:59</time>
      </trkpt>
      <trkpt lat="40.82447" lon="0.40054">
        <ele>353.4</ele>
        <time>2022-05-24 16:51:00</time>
      </trkpt>
      <trkpt lat="40.82445" lon="0.40054">
        <ele>353.6</ele>
        <time>2022-05-24 16:51:01</time>
      </trkpt>
      <trkpt lat="40.82443" lon="0.40054">
        <ele>353.8</ele>
        <time>2022-05-24 16:51:02</time>
      </trkpt>
      <trkpt lat="40.82442" lon="0.40056">
        <ele>354</ele>
        <time>2022-05-24 16:51:03</time>
      </trkpt>
      <trkpt lat="40.82441" lon="0.40058">
        <ele>354.2</ele>
        <time>2022-05-24 16:51:04</time>
      </trkpt>
      <trkpt lat="40.8244" lon="0.4006">
        <ele>354.4</ele>
        <time>2022-05-24 16:51:05</time>
      </trkpt>
      <trkpt lat="40.82439" lon="0.40063">
        <ele>354.6</ele>
        <time>2022-05-24 16:51:06</time>
      </trkpt>
      <trkpt lat="40.82439" lon="0.40065">
        <ele>355</ele>
        <time>2022-05-24 16:51:07</time>
      </trkpt>
      <trkpt lat="40.82439" lon="0.40067">
        <ele>355.2</ele>
        <time>2022-05-24 16:51:08</time>
      </trkpt>
      <trkpt lat="40.82439" lon="0.4007">
        <ele>355.8</ele>
        <time>2022-05-24 16:51:09</time>
      </trkpt>
      <trkpt lat="40.82439" lon="0.40072">
        <ele>355.6</ele>
        <time>2022-05-24 16:51:10</time>
      </trkpt>
      <trkpt lat="40.82439" lon="0.40075">
        <ele>355.6</ele>
        <time>2022-05-24 16:51:11</time>
      </trkpt>
      <trkpt lat="40.82439" lon="0.40078">
        <ele>355.8</ele>
        <time>2022-05-24 16:51:12</time>
      </trkpt>
      <trkpt lat="40.82439" lon="0.4008">
        <ele>356</ele>
        <time>2022-05-24 16:51:13</time>
      </trkpt>
      <trkpt lat="40.82439" lon="0.40083">
        <ele>356.2</ele>
        <time>2022-05-24 16:51:14</time>
      </trkpt>
      <trkpt lat="40.82439" lon="0.40085">
        <ele>356.4</ele>
        <time>2022-05-24 16:51:15</time>
      </trkpt>
      <trkpt lat="40.82439" lon="0.40088">
        <ele>356.6</ele>
        <time>2022-05-24 16:51:16</time>
      </trkpt>
      <trkpt lat="40.82439" lon="0.4009">
        <ele>356.6</ele>
        <time>2022-05-24 16:51:17</time>
      </trkpt>
      <trkpt lat="40.8244" lon="0.40093">
        <ele>356.8</ele>
        <time>2022-05-24 16:51:18</time>
      </trkpt>
      <trkpt lat="40.8244" lon="0.40096">
        <ele>356.8</ele>
        <time>2022-05-24 16:51:19</time>
      </trkpt>
      <trkpt lat="40.82441" lon="0.40098">
        <ele>357</ele>
        <time>2022-05-24 16:51:20</time>
      </trkpt>
      <trkpt lat="40.82441" lon="0.401">
        <ele>357.2</ele>
        <time>2022-05-24 16:51:21</time>
      </trkpt>
      <trkpt lat="40.82441" lon="0.40103">
        <ele>357.2</ele>
        <time>2022-05-24 16:51:22</time>
      </trkpt>
      <trkpt lat="40.82442" lon="0.40105">
        <ele>357.4</ele>
        <time>2022-05-24 16:51:23</time>
      </trkpt>
      <trkpt lat="40.82443" lon="0.40108">
        <ele>357.6</ele>
        <time>2022-05-24 16:51:24</time>
      </trkpt>
      <trkpt lat="40.82443" lon="0.4011">
        <ele>357.6</ele>
        <time>2022-05-24 16:51:25</time>
      </trkpt>
      <trkpt lat="40.82443" lon="0.40112">
        <ele>358</ele>
        <time>2022-05-24 16:51:26</time>
      </trkpt>
      <trkpt lat="40.82444" lon="0.40115">
        <ele>358.4</ele>
        <time>2022-05-24 16:51:27</time>
      </trkpt>
      <trkpt lat="40.82444" lon="0.40116">
        <ele>358.4</ele>
        <time>2022-05-24 16:51:28</time>
      </trkpt>
      <trkpt lat="40.82444" lon="0.4012">
        <ele>358.8</ele>
        <time>2022-05-24 16:51:29</time>
      </trkpt>
      <trkpt lat="40.82444" lon="0.40123">
        <ele>359</ele>
        <time>2022-05-24 16:51:30</time>
      </trkpt>
      <trkpt lat="40.82444" lon="0.40125">
        <ele>359.2</ele>
        <time>2022-05-24 16:51:31</time>
      </trkpt>
      <trkpt lat="40.82445" lon="0.40127">
        <ele>358.8</ele>
        <time>2022-05-24 16:51:32</time>
      </trkpt>
      <trkpt lat="40.82446" lon="0.40129">
        <ele>358.6</ele>
        <time>2022-05-24 16:51:33</time>
      </trkpt>
      <trkpt lat="40.82446" lon="0.40132">
        <ele>358.6</ele>
        <time>2022-05-24 16:51:34</time>
      </trkpt>
      <trkpt lat="40.82447" lon="0.40135">
        <ele>358.8</ele>
        <time>2022-05-24 16:51:35</time>
      </trkpt>
      <trkpt lat="40.82447" lon="0.40138">
        <ele>359</ele>
        <time>2022-05-24 16:51:36</time>
      </trkpt>
      <trkpt lat="40.82447" lon="0.4014">
        <ele>359.2</ele>
        <time>2022-05-24 16:51:37</time>
      </trkpt>
      <trkpt lat="40.82447" lon="0.40143">
        <ele>359.4</ele>
        <time>2022-05-24 16:51:38</time>
      </trkpt>
      <trkpt lat="40.82448" lon="0.40146">
        <ele>359.2</ele>
        <time>2022-05-24 16:51:39</time>
      </trkpt>
      <trkpt lat="40.82448" lon="0.40149">
        <ele>359.2</ele>
        <time>2022-05-24 16:51:40</time>
      </trkpt>
      <trkpt lat="40.82448" lon="0.40151">
        <ele>359.4</ele>
        <time>2022-05-24 16:51:41</time>
      </trkpt>
      <trkpt lat="40.82449" lon="0.40154">
        <ele>359.6</ele>
        <time>2022-05-24 16:51:42</time>
      </trkpt>
      <trkpt lat="40.82449" lon="0.40156">
        <ele>359.6</ele>
        <time>2022-05-24 16:51:43</time>
      </trkpt>
      <trkpt lat="40.82449" lon="0.40159">
        <ele>359.8</ele>
        <time>2022-05-24 16:51:44</time>
      </trkpt>
      <trkpt lat="40.82449" lon="0.40162">
        <ele>360</ele>
        <time>2022-05-24 16:51:45</time>
      </trkpt>
      <trkpt lat="40.82449" lon="0.40164">
        <ele>360.2</ele>
        <time>2022-05-24 16:51:46</time>
      </trkpt>
      <trkpt lat="40.82449" lon="0.40167">
        <ele>360.2</ele>
        <time>2022-05-24 16:51:47</time>
      </trkpt>
      <trkpt lat="40.8245" lon="0.40169">
        <ele>360.4</ele>
        <time>2022-05-24 16:51:48</time>
      </trkpt>
      <trkpt lat="40.82449" lon="0.40172">
        <ele>360.6</ele>
        <time>2022-05-24 16:51:49</time>
      </trkpt>
      <trkpt lat="40.82449" lon="0.40174">
        <ele>360.8</ele>
        <time>2022-05-24 16:51:50</time>
      </trkpt>
      <trkpt lat="40.82449" lon="0.40176">
        <ele>361</ele>
        <time>2022-05-24 16:51:51</time>
      </trkpt>
      <trkpt lat="40.82448" lon="0.40179">
        <ele>361.2</ele>
        <time>2022-05-24 16:51:52</time>
      </trkpt>
      <trkpt lat="40.82446" lon="0.40181">
        <ele>361.4</ele>
        <time>2022-05-24 16:51:53</time>
      </trkpt>
      <trkpt lat="40.82445" lon="0.40183">
        <ele>361.4</ele>
        <time>2022-05-24 16:51:54</time>
      </trkpt>
      <trkpt lat="40.82444" lon="0.40185">
        <ele>361.6</ele>
        <time>2022-05-24 16:51:55</time>
      </trkpt>
      <trkpt lat="40.82442" lon="0.40187">
        <ele>361.8</ele>
        <time>2022-05-24 16:51:56</time>
      </trkpt>
      <trkpt lat="40.82441" lon="0.40188">
        <ele>362</ele>
        <time>2022-05-24 16:51:57</time>
      </trkpt>
      <trkpt lat="40.82439" lon="0.4019">
        <ele>362</ele>
        <time>2022-05-24 16:51:58</time>
      </trkpt>
      <trkpt lat="40.82437" lon="0.40191">
        <ele>362.2</ele>
        <time>2022-05-24 16:51:59</time>
      </trkpt>
      <trkpt lat="40.82435" lon="0.40192">
        <ele>362.4</ele>
        <time>2022-05-24 16:52:00</time>
      </trkpt>
      <trkpt lat="40.82433" lon="0.40193">
        <ele>362.4</ele>
        <time>2022-05-24 16:52:01</time>
      </trkpt>
      <trkpt lat="40.82431" lon="0.40194">
        <ele>362.6</ele>
        <time>2022-05-24 16:52:02</time>
      </trkpt>
      <trkpt lat="40.82429" lon="0.40194">
        <ele>362.8</ele>
        <time>2022-05-24 16:52:03</time>
      </trkpt>
      <trkpt lat="40.82427" lon="0.40194">
        <ele>363</ele>
        <time>2022-05-24 16:52:04</time>
      </trkpt>
      <trkpt lat="40.82425" lon="0.40194">
        <ele>363.2</ele>
        <time>2022-05-24 16:52:05</time>
      </trkpt>
      <trkpt lat="40.82423" lon="0.40195">
        <ele>363.4</ele>
        <time>2022-05-24 16:52:06</time>
      </trkpt>
      <trkpt lat="40.82421" lon="0.40195">
        <ele>363.4</ele>
        <time>2022-05-24 16:52:07</time>
      </trkpt>
      <trkpt lat="40.8242" lon="0.40195">
        <ele>363.6</ele>
        <time>2022-05-24 16:52:08</time>
      </trkpt>
      <trkpt lat="40.82418" lon="0.40195">
        <ele>363.8</ele>
        <time>2022-05-24 16:52:09</time>
      </trkpt>
      <trkpt lat="40.82416" lon="0.40195">
        <ele>363.8</ele>
        <time>2022-05-24 16:52:10</time>
      </trkpt>
      <trkpt lat="40.82413" lon="0.40195">
        <ele>364</ele>
        <time>2022-05-24 16:52:11</time>
      </trkpt>
      <trkpt lat="40.82412" lon="0.40196">
        <ele>364.2</ele>
        <time>2022-05-24 16:52:12</time>
      </trkpt>
      <trkpt lat="40.82409" lon="0.40196">
        <ele>364.2</ele>
        <time>2022-05-24 16:52:13</time>
      </trkpt>
      <trkpt lat="40.82407" lon="0.40196">
        <ele>364.4</ele>
        <time>2022-05-24 16:52:14</time>
      </trkpt>
      <trkpt lat="40.82405" lon="0.40196">
        <ele>364.4</ele>
        <time>2022-05-24 16:52:15</time>
      </trkpt>
      <trkpt lat="40.82403" lon="0.40197">
        <ele>364.6</ele>
        <time>2022-05-24 16:52:16</time>
      </trkpt>
      <trkpt lat="40.82401" lon="0.40197">
        <ele>364.8</ele>
        <time>2022-05-24 16:52:17</time>
      </trkpt>
      <trkpt lat="40.824" lon="0.40198">
        <ele>365</ele>
        <time>2022-05-24 16:52:18</time>
      </trkpt>
      <trkpt lat="40.82398" lon="0.40198">
        <ele>365.2</ele>
        <time>2022-05-24 16:52:19</time>
      </trkpt>
      <trkpt lat="40.82396" lon="0.40198">
        <ele>365.2</ele>
        <time>2022-05-24 16:52:20</time>
      </trkpt>
      <trkpt lat="40.82394" lon="0.40199">
        <ele>365.4</ele>
        <time>2022-05-24 16:52:21</time>
      </trkpt>
      <trkpt lat="40.82393" lon="0.40199">
        <ele>365.4</ele>
        <time>2022-05-24 16:52:22</time>
      </trkpt>
      <trkpt lat="40.82391" lon="0.402">
        <ele>365.6</ele>
        <time>2022-05-24 16:52:23</time>
      </trkpt>
      <trkpt lat="40.8239" lon="0.40202">
        <ele>365.8</ele>
        <time>2022-05-24 16:52:24</time>
      </trkpt>
      <trkpt lat="40.82388" lon="0.40202">
        <ele>366</ele>
        <time>2022-05-24 16:52:25</time>
      </trkpt>
      <trkpt lat="40.82387" lon="0.40203">
        <ele>366.2</ele>
        <time>2022-05-24 16:52:26</time>
      </trkpt>
      <trkpt lat="40.82385" lon="0.40203">
        <ele>366.4</ele>
        <time>2022-05-24 16:52:27</time>
      </trkpt>
      <trkpt lat="40.82383" lon="0.40204">
        <ele>366.4</ele>
        <time>2022-05-24 16:52:28</time>
      </trkpt>
      <trkpt lat="40.82381" lon="0.40205">
        <ele>366.6</ele>
        <time>2022-05-24 16:52:29</time>
      </trkpt>
      <trkpt lat="40.8238" lon="0.40206">
        <ele>366.6</ele>
        <time>2022-05-24 16:52:30</time>
      </trkpt>
      <trkpt lat="40.82378" lon="0.40207">
        <ele>366.8</ele>
        <time>2022-05-24 16:52:31</time>
      </trkpt>
      <trkpt lat="40.82376" lon="0.40209">
        <ele>367</ele>
        <time>2022-05-24 16:52:32</time>
      </trkpt>
      <trkpt lat="40.82375" lon="0.4021">
        <ele>367.2</ele>
        <time>2022-05-24 16:52:33</time>
      </trkpt>
      <trkpt lat="40.82373" lon="0.40212">
        <ele>367.2</ele>
        <time>2022-05-24 16:52:34</time>
      </trkpt>
      <trkpt lat="40.82372" lon="0.40214">
        <ele>367.4</ele>
        <time>2022-05-24 16:52:35</time>
      </trkpt>
      <trkpt lat="40.8237" lon="0.40216">
        <ele>367.6</ele>
        <time>2022-05-24 16:52:36</time>
      </trkpt>
      <trkpt lat="40.82369" lon="0.40218">
        <ele>368</ele>
        <time>2022-05-24 16:52:37</time>
      </trkpt>
      <trkpt lat="40.82367" lon="0.40219">
        <ele>368.2</ele>
        <time>2022-05-24 16:52:38</time>
      </trkpt>
      <trkpt lat="40.82366" lon="0.40221">
        <ele>368.4</ele>
        <time>2022-05-24 16:52:39</time>
      </trkpt>
      <trkpt lat="40.82365" lon="0.40222">
        <ele>368.6</ele>
        <time>2022-05-24 16:52:40</time>
      </trkpt>
      <trkpt lat="40.82364" lon="0.40223">
        <ele>368.8</ele>
        <time>2022-05-24 16:52:41</time>
      </trkpt>
      <trkpt lat="40.82362" lon="0.40224">
        <ele>369</ele>
        <time>2022-05-24 16:52:42</time>
      </trkpt>
      <trkpt lat="40.8236" lon="0.40226">
        <ele>369</ele>
        <time>2022-05-24 16:52:43</time>
      </trkpt>
      <trkpt lat="40.82359" lon="0.40227">
        <ele>369.2</ele>
        <time>2022-05-24 16:52:44</time>
      </trkpt>
      <trkpt lat="40.82357" lon="0.40229">
        <ele>369.4</ele>
        <time>2022-05-24 16:52:45</time>
      </trkpt>
      <trkpt lat="40.82355" lon="0.4023">
        <ele>369.6</ele>
        <time>2022-05-24 16:52:46</time>
      </trkpt>
      <trkpt lat="40.82354" lon="0.40231">
        <ele>369.8</ele>
        <time>2022-05-24 16:52:47</time>
      </trkpt>
      <trkpt lat="40.82352" lon="0.40232">
        <ele>370</ele>
        <time>2022-05-24 16:52:48</time>
      </trkpt>
      <trkpt lat="40.82351" lon="0.40233">
        <ele>370.4</ele>
        <time>2022-05-24 16:52:49</time>
      </trkpt>
      <trkpt lat="40.82349" lon="0.40234">
        <ele>370.6</ele>
        <time>2022-05-24 16:52:50</time>
      </trkpt>
      <trkpt lat="40.82347" lon="0.40235">
        <ele>370.8</ele>
        <time>2022-05-24 16:52:51</time>
      </trkpt>
      <trkpt lat="40.82346" lon="0.40236">
        <ele>371</ele>
        <time>2022-05-24 16:52:52</time>
      </trkpt>
      <trkpt lat="40.82345" lon="0.40237">
        <ele>371.4</ele>
        <time>2022-05-24 16:52:53</time>
      </trkpt>
      <trkpt lat="40.82343" lon="0.40238">
        <ele>371.6</ele>
        <time>2022-05-24 16:52:54</time>
      </trkpt>
      <trkpt lat="40.82342" lon="0.40239">
        <ele>371.8</ele>
        <time>2022-05-24 16:52:55</time>
      </trkpt>
      <trkpt lat="40.8234" lon="0.4024">
        <ele>372</ele>
        <time>2022-05-24 16:52:56</time>
      </trkpt>
      <trkpt lat="40.82338" lon="0.40241">
        <ele>372.2</ele>
        <time>2022-05-24 16:52:57</time>
      </trkpt>
      <trkpt lat="40.82337" lon="0.40242">
        <ele>372.4</ele>
        <time>2022-05-24 16:52:58</time>
      </trkpt>
      <trkpt lat="40.82335" lon="0.40243">
        <ele>372.6</ele>
        <time>2022-05-24 16:52:59</time>
      </trkpt>
      <trkpt lat="40.82334" lon="0.40244">
        <ele>372.8</ele>
        <time>2022-05-24 16:53:00</time>
      </trkpt>
      <trkpt lat="40.82332" lon="0.40244">
        <ele>373.2</ele>
        <time>2022-05-24 16:53:01</time>
      </trkpt>
      <trkpt lat="40.82331" lon="0.40245">
        <ele>373.4</ele>
        <time>2022-05-24 16:53:02</time>
      </trkpt>
      <trkpt lat="40.82329" lon="0.40246">
        <ele>373.4</ele>
        <time>2022-05-24 16:53:03</time>
      </trkpt>
      <trkpt lat="40.82327" lon="0.40248">
        <ele>373.6</ele>
        <time>2022-05-24 16:53:04</time>
      </trkpt>
      <trkpt lat="40.82326" lon="0.40249">
        <ele>373.6</ele>
        <time>2022-05-24 16:53:05</time>
      </trkpt>
      <trkpt lat="40.82324" lon="0.40249">
        <ele>373.8</ele>
        <time>2022-05-24 16:53:06</time>
      </trkpt>
      <trkpt lat="40.82323" lon="0.4025">
        <ele>374</ele>
        <time>2022-05-24 16:53:07</time>
      </trkpt>
      <trkpt lat="40.82321" lon="0.40251">
        <ele>374.2</ele>
        <time>2022-05-24 16:53:08</time>
      </trkpt>
      <trkpt lat="40.8232" lon="0.40253">
        <ele>374.4</ele>
        <time>2022-05-24 16:53:09</time>
      </trkpt>
      <trkpt lat="40.82318" lon="0.40254">
        <ele>374.6</ele>
        <time>2022-05-24 16:53:10</time>
      </trkpt>
      <trkpt lat="40.82317" lon="0.40255">
        <ele>374.8</ele>
        <time>2022-05-24 16:53:11</time>
      </trkpt>
      <trkpt lat="40.82315" lon="0.40256">
        <ele>375</ele>
        <time>2022-05-24 16:53:12</time>
      </trkpt>
      <trkpt lat="40.82314" lon="0.40257">
        <ele>375.2</ele>
        <time>2022-05-24 16:53:13</time>
      </trkpt>
      <trkpt lat="40.82312" lon="0.40258">
        <ele>375.2</ele>
        <time>2022-05-24 16:53:14</time>
      </trkpt>
      <trkpt lat="40.8231" lon="0.40259">
        <ele>375.4</ele>
        <time>2022-05-24 16:53:15</time>
      </trkpt>
      <trkpt lat="40.82309" lon="0.40259">
        <ele>375.6</ele>
        <time>2022-05-24 16:53:16</time>
      </trkpt>
      <trkpt lat="40.82307" lon="0.4026">
        <ele>375.8</ele>
        <time>2022-05-24 16:53:17</time>
      </trkpt>
      <trkpt lat="40.82306" lon="0.40261">
        <ele>376</ele>
        <time>2022-05-24 16:53:18</time>
      </trkpt>
      <trkpt lat="40.82304" lon="0.40262">
        <ele>376.2</ele>
        <time>2022-05-24 16:53:19</time>
      </trkpt>
      <trkpt lat="40.82303" lon="0.40263">
        <ele>376.2</ele>
        <time>2022-05-24 16:53:20</time>
      </trkpt>
      <trkpt lat="40.82301" lon="0.40264">
        <ele>376.4</ele>
        <time>2022-05-24 16:53:21</time>
      </trkpt>
      <trkpt lat="40.823" lon="0.40265">
        <ele>376.6</ele>
        <time>2022-05-24 16:53:22</time>
      </trkpt>
      <trkpt lat="40.82299" lon="0.40266">
        <ele>376.8</ele>
        <time>2022-05-24 16:53:23</time>
      </trkpt>
      <trkpt lat="40.82297" lon="0.40267">
        <ele>377</ele>
        <time>2022-05-24 16:53:24</time>
      </trkpt>
      <trkpt lat="40.82296" lon="0.40268">
        <ele>377</ele>
        <time>2022-05-24 16:53:25</time>
      </trkpt>
      <trkpt lat="40.82294" lon="0.40269">
        <ele>377.2</ele>
        <time>2022-05-24 16:53:26</time>
      </trkpt>
      <trkpt lat="40.82293" lon="0.4027">
        <ele>377.4</ele>
        <time>2022-05-24 16:53:27</time>
      </trkpt>
      <trkpt lat="40.82291" lon="0.4027">
        <ele>377.6</ele>
        <time>2022-05-24 16:53:28</time>
      </trkpt>
      <trkpt lat="40.8229" lon="0.40271">
        <ele>377.6</ele>
        <time>2022-05-24 16:53:29</time>
      </trkpt>
      <trkpt lat="40.82288" lon="0.40271">
        <ele>377.8</ele>
        <time>2022-05-24 16:53:30</time>
      </trkpt>
      <trkpt lat="40.82286" lon="0.40272">
        <ele>378</ele>
        <time>2022-05-24 16:53:31</time>
      </trkpt>
      <trkpt lat="40.82285" lon="0.40273">
        <ele>378.2</ele>
        <time>2022-05-24 16:53:32</time>
      </trkpt>
      <trkpt lat="40.82283" lon="0.40274">
        <ele>378.4</ele>
        <time>2022-05-24 16:53:33</time>
      </trkpt>
      <trkpt lat="40.82281" lon="0.40274">
        <ele>378.6</ele>
        <time>2022-05-24 16:53:34</time>
      </trkpt>
      <trkpt lat="40.8228" lon="0.40275">
        <ele>378.8</ele>
        <time>2022-05-24 16:53:35</time>
      </trkpt>
      <trkpt lat="40.82278" lon="0.40275">
        <ele>379</ele>
        <time>2022-05-24 16:53:36</time>
      </trkpt>
      <trkpt lat="40.82277" lon="0.40276">
        <ele>379.2</ele>
        <time>2022-05-24 16:53:37</time>
      </trkpt>
      <trkpt lat="40.82275" lon="0.40277">
        <ele>379.2</ele>
        <time>2022-05-24 16:53:38</time>
      </trkpt>
      <trkpt lat="40.82274" lon="0.40277">
        <ele>379.4</ele>
        <time>2022-05-24 16:53:39</time>
      </trkpt>
      <trkpt lat="40.82272" lon="0.40277">
        <ele>379.4</ele>
        <time>2022-05-24 16:53:40</time>
      </trkpt>
      <trkpt lat="40.8227" lon="0.40277">
        <ele>379.6</ele>
        <time>2022-05-24 16:53:41</time>
      </trkpt>
      <trkpt lat="40.82269" lon="0.40277">
        <ele>379.8</ele>
        <time>2022-05-24 16:53:42</time>
      </trkpt>
      <trkpt lat="40.82268" lon="0.40278">
        <ele>379.8</ele>
        <time>2022-05-24 16:53:43</time>
      </trkpt>
      <trkpt lat="40.82266" lon="0.40279">
        <ele>380</ele>
        <time>2022-05-24 16:53:44</time>
      </trkpt>
      <trkpt lat="40.82265" lon="0.40279">
        <ele>380.4</ele>
        <time>2022-05-24 16:53:45</time>
      </trkpt>
      <trkpt lat="40.82263" lon="0.4028">
        <ele>380.6</ele>
        <time>2022-05-24 16:53:46</time>
      </trkpt>
      <trkpt lat="40.82261" lon="0.4028">
        <ele>380.8</ele>
        <time>2022-05-24 16:53:47</time>
      </trkpt>
      <trkpt lat="40.8226" lon="0.4028">
        <ele>381</ele>
        <time>2022-05-24 16:53:48</time>
      </trkpt>
      <trkpt lat="40.82259" lon="0.4028">
        <ele>381.2</ele>
        <time>2022-05-24 16:53:49</time>
      </trkpt>
      <trkpt lat="40.82256" lon="0.4028">
        <ele>381.2</ele>
        <time>2022-05-24 16:53:50</time>
      </trkpt>
      <trkpt lat="40.82255" lon="0.40281">
        <ele>381.4</ele>
        <time>2022-05-24 16:53:51</time>
      </trkpt>
      <trkpt lat="40.82253" lon="0.40281">
        <ele>381.6</ele>
        <time>2022-05-24 16:53:52</time>
      </trkpt>
      <trkpt lat="40.82252" lon="0.40281">
        <ele>381.6</ele>
        <time>2022-05-24 16:53:53</time>
      </trkpt>
      <trkpt lat="40.8225" lon="0.40281">
        <ele>381.8</ele>
        <time>2022-05-24 16:53:54</time>
      </trkpt>
      <trkpt lat="40.82248" lon="0.40282">
        <ele>382</ele>
        <time>2022-05-24 16:53:55</time>
      </trkpt>
      <trkpt lat="40.82247" lon="0.40282">
        <ele>382.2</ele>
        <time>2022-05-24 16:53:56</time>
      </trkpt>
      <trkpt lat="40.82245" lon="0.40282">
        <ele>382.4</ele>
        <time>2022-05-24 16:53:57</time>
      </trkpt>
      <trkpt lat="40.82243" lon="0.40282">
        <ele>382.6</ele>
        <time>2022-05-24 16:53:58</time>
      </trkpt>
      <trkpt lat="40.82242" lon="0.40283">
        <ele>382.8</ele>
        <time>2022-05-24 16:53:59</time>
      </trkpt>
      <trkpt lat="40.8224" lon="0.40284">
        <ele>382.8</ele>
        <time>2022-05-24 16:54:00</time>
      </trkpt>
      <trkpt lat="40.82239" lon="0.40284">
        <ele>383</ele>
        <time>2022-05-24 16:54:01</time>
      </trkpt>
      <trkpt lat="40.82237" lon="0.40284">
        <ele>383.2</ele>
        <time>2022-05-24 16:54:02</time>
      </trkpt>
      <trkpt lat="40.82236" lon="0.40285">
        <ele>383.4</ele>
        <time>2022-05-24 16:54:03</time>
      </trkpt>
      <trkpt lat="40.82234" lon="0.40286">
        <ele>383.6</ele>
        <time>2022-05-24 16:54:04</time>
      </trkpt>
      <trkpt lat="40.82232" lon="0.40286">
        <ele>383.8</ele>
        <time>2022-05-24 16:54:05</time>
      </trkpt>
      <trkpt lat="40.8223" lon="0.40287">
        <ele>383.8</ele>
        <time>2022-05-24 16:54:06</time>
      </trkpt>
      <trkpt lat="40.82229" lon="0.40287">
        <ele>384.2</ele>
        <time>2022-05-24 16:54:07</time>
      </trkpt>
      <trkpt lat="40.82227" lon="0.40288">
        <ele>384.4</ele>
        <time>2022-05-24 16:54:08</time>
      </trkpt>
      <trkpt lat="40.82226" lon="0.40289">
        <ele>384.4</ele>
        <time>2022-05-24 16:54:09</time>
      </trkpt>
      <trkpt lat="40.82224" lon="0.4029">
        <ele>384.6</ele>
        <time>2022-05-24 16:54:10</time>
      </trkpt>
      <trkpt lat="40.82223" lon="0.40292">
        <ele>384.8</ele>
        <time>2022-05-24 16:54:11</time>
      </trkpt>
      <trkpt lat="40.82221" lon="0.40294">
        <ele>384.8</ele>
        <time>2022-05-24 16:54:12</time>
      </trkpt>
      <trkpt lat="40.8222" lon="0.40296">
        <ele>385</ele>
        <time>2022-05-24 16:54:13</time>
      </trkpt>
      <trkpt lat="40.82219" lon="0.40298">
        <ele>385</ele>
        <time>2022-05-24 16:54:14</time>
      </trkpt>
      <trkpt lat="40.82217" lon="0.40301">
        <ele>385.2</ele>
        <time>2022-05-24 16:54:15</time>
      </trkpt>
      <trkpt lat="40.82216" lon="0.40304">
        <ele>385.6</ele>
        <time>2022-05-24 16:54:16</time>
      </trkpt>
      <trkpt lat="40.82215" lon="0.40306">
        <ele>385.8</ele>
        <time>2022-05-24 16:54:17</time>
      </trkpt>
      <trkpt lat="40.82214" lon="0.40309">
        <ele>386</ele>
        <time>2022-05-24 16:54:18</time>
      </trkpt>
      <trkpt lat="40.82212" lon="0.40312">
        <ele>386.2</ele>
        <time>2022-05-24 16:54:19</time>
      </trkpt>
      <trkpt lat="40.82211" lon="0.40314">
        <ele>386.4</ele>
        <time>2022-05-24 16:54:20</time>
      </trkpt>
      <trkpt lat="40.82209" lon="0.40316">
        <ele>386.4</ele>
        <time>2022-05-24 16:54:21</time>
      </trkpt>
      <trkpt lat="40.82208" lon="0.40318">
        <ele>386.6</ele>
        <time>2022-05-24 16:54:22</time>
      </trkpt>
      <trkpt lat="40.82207" lon="0.4032">
        <ele>386.8</ele>
        <time>2022-05-24 16:54:23</time>
      </trkpt>
      <trkpt lat="40.82205" lon="0.40322">
        <ele>386.8</ele>
        <time>2022-05-24 16:54:24</time>
      </trkpt>
      <trkpt lat="40.82204" lon="0.40324">
        <ele>386.8</ele>
        <time>2022-05-24 16:54:25</time>
      </trkpt>
      <trkpt lat="40.82203" lon="0.40326">
        <ele>387</ele>
        <time>2022-05-24 16:54:26</time>
      </trkpt>
      <trkpt lat="40.82201" lon="0.40327">
        <ele>387.2</ele>
        <time>2022-05-24 16:54:27</time>
      </trkpt>
      <trkpt lat="40.82199" lon="0.40328">
        <ele>387.4</ele>
        <time>2022-05-24 16:54:28</time>
      </trkpt>
      <trkpt lat="40.82197" lon="0.40329">
        <ele>387.4</ele>
        <time>2022-05-24 16:54:29</time>
      </trkpt>
      <trkpt lat="40.82196" lon="0.40329">
        <ele>387.6</ele>
        <time>2022-05-24 16:54:30</time>
      </trkpt>
      <trkpt lat="40.82195" lon="0.40328">
        <ele>388</ele>
        <time>2022-05-24 16:54:31</time>
      </trkpt>
      <trkpt lat="40.82193" lon="0.40327">
        <ele>388.4</ele>
        <time>2022-05-24 16:54:32</time>
      </trkpt>
      <trkpt lat="40.82193" lon="0.40325">
        <ele>388.6</ele>
        <time>2022-05-24 16:54:33</time>
      </trkpt>
      <trkpt lat="40.82192" lon="0.40323">
        <ele>388.8</ele>
        <time>2022-05-24 16:54:34</time>
      </trkpt>
      <trkpt lat="40.82192" lon="0.4032">
        <ele>389</ele>
        <time>2022-05-24 16:54:35</time>
      </trkpt>
      <trkpt lat="40.82192" lon="0.40318">
        <ele>389.2</ele>
        <time>2022-05-24 16:54:36</time>
      </trkpt>
      <trkpt lat="40.82193" lon="0.40316">
        <ele>389.4</ele>
        <time>2022-05-24 16:54:37</time>
      </trkpt>
      <trkpt lat="40.82193" lon="0.40314">
        <ele>389.4</ele>
        <time>2022-05-24 16:54:38</time>
      </trkpt>
      <trkpt lat="40.82193" lon="0.40312">
        <ele>389.4</ele>
        <time>2022-05-24 16:54:39</time>
      </trkpt>
      <trkpt lat="40.82194" lon="0.4031">
        <ele>389.4</ele>
        <time>2022-05-24 16:54:40</time>
      </trkpt>
      <trkpt lat="40.82195" lon="0.40308">
        <ele>389.6</ele>
        <time>2022-05-24 16:54:41</time>
      </trkpt>
      <trkpt lat="40.82195" lon="0.40305">
        <ele>389.8</ele>
        <time>2022-05-24 16:54:42</time>
      </trkpt>
      <trkpt lat="40.82196" lon="0.40303">
        <ele>390</ele>
        <time>2022-05-24 16:54:43</time>
      </trkpt>
      <trkpt lat="40.82197" lon="0.40301">
        <ele>390.2</ele>
        <time>2022-05-24 16:54:44</time>
      </trkpt>
      <trkpt lat="40.82198" lon="0.403">
        <ele>390.6</ele>
        <time>2022-05-24 16:54:45</time>
      </trkpt>
      <trkpt lat="40.82199" lon="0.40298">
        <ele>390.8</ele>
        <time>2022-05-24 16:54:46</time>
      </trkpt>
      <trkpt lat="40.82199" lon="0.40296">
        <ele>391</ele>
        <time>2022-05-24 16:54:47</time>
      </trkpt>
      <trkpt lat="40.82201" lon="0.40294">
        <ele>391.4</ele>
        <time>2022-05-24 16:54:48</time>
      </trkpt>
      <trkpt lat="40.82201" lon="0.40293">
        <ele>391.6</ele>
        <time>2022-05-24 16:54:49</time>
      </trkpt>
      <trkpt lat="40.82202" lon="0.40291">
        <ele>391.8</ele>
        <time>2022-05-24 16:54:50</time>
      </trkpt>
      <trkpt lat="40.82203" lon="0.40289">
        <ele>392.2</ele>
        <time>2022-05-24 16:54:51</time>
      </trkpt>
      <trkpt lat="40.82204" lon="0.40288">
        <ele>392.4</ele>
        <time>2022-05-24 16:54:52</time>
      </trkpt>
      <trkpt lat="40.82204" lon="0.40286">
        <ele>392.6</ele>
        <time>2022-05-24 16:54:53</time>
      </trkpt>
      <trkpt lat="40.82206" lon="0.40284">
        <ele>392.8</ele>
        <time>2022-05-24 16:54:54</time>
      </trkpt>
      <trkpt lat="40.82207" lon="0.40282">
        <ele>393.2</ele>
        <time>2022-05-24 16:54:55</time>
      </trkpt>
      <trkpt lat="40.82207" lon="0.40281">
        <ele>393.4</ele>
        <time>2022-05-24 16:54:56</time>
      </trkpt>
      <trkpt lat="40.82209" lon="0.40279">
        <ele>393.6</ele>
        <time>2022-05-24 16:54:57</time>
      </trkpt>
      <trkpt lat="40.8221" lon="0.40277">
        <ele>393.8</ele>
        <time>2022-05-24 16:54:58</time>
      </trkpt>
      <trkpt lat="40.82211" lon="0.40276">
        <ele>394</ele>
        <time>2022-05-24 16:54:59</time>
      </trkpt>
      <trkpt lat="40.82211" lon="0.40274">
        <ele>394.2</ele>
        <time>2022-05-24 16:55:00</time>
      </trkpt>
      <trkpt lat="40.82212" lon="0.40273">
        <ele>394.4</ele>
        <time>2022-05-24 16:55:01</time>
      </trkpt>
      <trkpt lat="40.82213" lon="0.40271">
        <ele>394.6</ele>
        <time>2022-05-24 16:55:02</time>
      </trkpt>
      <trkpt lat="40.82213" lon="0.40269">
        <ele>394.8</ele>
        <time>2022-05-24 16:55:03</time>
      </trkpt>
      <trkpt lat="40.82214" lon="0.40267">
        <ele>395</ele>
        <time>2022-05-24 16:55:04</time>
      </trkpt>
      <trkpt lat="40.82214" lon="0.40266">
        <ele>395.2</ele>
        <time>2022-05-24 16:55:05</time>
      </trkpt>
      <trkpt lat="40.82215" lon="0.40265">
        <ele>395.2</ele>
        <time>2022-05-24 16:55:06</time>
      </trkpt>
      <trkpt lat="40.82216" lon="0.40262">
        <ele>395.6</ele>
        <time>2022-05-24 16:55:07</time>
      </trkpt>
      <trkpt lat="40.82217" lon="0.40261">
        <ele>396.2</ele>
        <time>2022-05-24 16:55:08</time>
      </trkpt>
      <trkpt lat="40.82219" lon="0.40259">
        <ele>396.4</ele>
        <time>2022-05-24 16:55:09</time>
      </trkpt>
      <trkpt lat="40.8222" lon="0.40258">
        <ele>396.6</ele>
        <time>2022-05-24 16:55:10</time>
      </trkpt>
      <trkpt lat="40.82221" lon="0.40256">
        <ele>396.8</ele>
        <time>2022-05-24 16:55:11</time>
      </trkpt>
      <trkpt lat="40.82222" lon="0.40255">
        <ele>397.4</ele>
        <time>2022-05-24 16:55:12</time>
      </trkpt>
      <trkpt lat="40.82222" lon="0.40254">
        <ele>397.4</ele>
        <time>2022-05-24 16:55:13</time>
      </trkpt>
      <trkpt lat="40.82224" lon="0.40253">
        <ele>397.4</ele>
        <time>2022-05-24 16:55:14</time>
      </trkpt>
      <trkpt lat="40.82225" lon="0.40251">
        <ele>397.4</ele>
        <time>2022-05-24 16:55:15</time>
      </trkpt>
      <trkpt lat="40.82226" lon="0.4025">
        <ele>397.8</ele>
        <time>2022-05-24 16:55:16</time>
      </trkpt>
      <trkpt lat="40.82227" lon="0.40249">
        <ele>398.2</ele>
        <time>2022-05-24 16:55:17</time>
      </trkpt>
      <trkpt lat="40.82229" lon="0.40247">
        <ele>398.8</ele>
        <time>2022-05-24 16:55:18</time>
      </trkpt>
      <trkpt lat="40.8223" lon="0.40246">
        <ele>398.4</ele>
        <time>2022-05-24 16:55:19</time>
      </trkpt>
      <trkpt lat="40.82231" lon="0.40245">
        <ele>398.2</ele>
        <time>2022-05-24 16:55:20</time>
      </trkpt>
      <trkpt lat="40.82233" lon="0.40243">
        <ele>398.4</ele>
        <time>2022-05-24 16:55:21</time>
      </trkpt>
      <trkpt lat="40.82234" lon="0.40242">
        <ele>398.6</ele>
        <time>2022-05-24 16:55:22</time>
      </trkpt>
      <trkpt lat="40.82235" lon="0.40241">
        <ele>398.8</ele>
        <time>2022-05-24 16:55:23</time>
      </trkpt>
      <trkpt lat="40.82236" lon="0.4024">
        <ele>398.8</ele>
        <time>2022-05-24 16:55:24</time>
      </trkpt>
      <trkpt lat="40.82238" lon="0.40238">
        <ele>399</ele>
        <time>2022-05-24 16:55:25</time>
      </trkpt>
      <trkpt lat="40.82239" lon="0.40237">
        <ele>399.2</ele>
        <time>2022-05-24 16:55:26</time>
      </trkpt>
      <trkpt lat="40.8224" lon="0.40236">
        <ele>399.4</ele>
        <time>2022-05-24 16:55:27</time>
      </trkpt>
      <trkpt lat="40.82242" lon="0.40234">
        <ele>399.6</ele>
        <time>2022-05-24 16:55:28</time>
      </trkpt>
      <trkpt lat="40.82243" lon="0.40233">
        <ele>400</ele>
        <time>2022-05-24 16:55:29</time>
      </trkpt>
      <trkpt lat="40.82245" lon="0.40232">
        <ele>400.2</ele>
        <time>2022-05-24 16:55:30</time>
      </trkpt>
      <trkpt lat="40.82246" lon="0.4023">
        <ele>400.4</ele>
        <time>2022-05-24 16:55:31</time>
      </trkpt>
      <trkpt lat="40.82249" lon="0.40229">
        <ele>400.6</ele>
        <time>2022-05-24 16:55:32</time>
      </trkpt>
      <trkpt lat="40.82253" lon="0.40228">
        <ele>400.8</ele>
        <time>2022-05-24 16:55:33</time>
      </trkpt>
      <trkpt lat="40.82254" lon="0.40227">
        <ele>401</ele>
        <time>2022-05-24 16:55:34</time>
      </trkpt>
      <trkpt lat="40.82256" lon="0.40227">
        <ele>401.4</ele>
        <time>2022-05-24 16:55:35</time>
      </trkpt>
      <trkpt lat="40.82257" lon="0.40226">
        <ele>401.6</ele>
        <time>2022-05-24 16:55:36</time>
      </trkpt>
      <trkpt lat="40.82258" lon="0.40224">
        <ele>401.8</ele>
        <time>2022-05-24 16:55:37</time>
      </trkpt>
      <trkpt lat="40.82259" lon="0.40222">
        <ele>402</ele>
        <time>2022-05-24 16:55:38</time>
      </trkpt>
      <trkpt lat="40.82261" lon="0.40221">
        <ele>402.4</ele>
        <time>2022-05-24 16:55:39</time>
      </trkpt>
      <trkpt lat="40.82262" lon="0.40219">
        <ele>402.8</ele>
        <time>2022-05-24 16:55:40</time>
      </trkpt>
      <trkpt lat="40.82263" lon="0.40218">
        <ele>403</ele>
        <time>2022-05-24 16:55:41</time>
      </trkpt>
      <trkpt lat="40.82264" lon="0.40216">
        <ele>403.4</ele>
        <time>2022-05-24 16:55:42</time>
      </trkpt>
      <trkpt lat="40.82264" lon="0.40214">
        <ele>403.6</ele>
        <time>2022-05-24 16:55:43</time>
      </trkpt>
      <trkpt lat="40.82265" lon="0.40212">
        <ele>403.8</ele>
        <time>2022-05-24 16:55:44</time>
      </trkpt>
      <trkpt lat="40.82267" lon="0.40211">
        <ele>404</ele>
        <time>2022-05-24 16:55:45</time>
      </trkpt>
      <trkpt lat="40.82267" lon="0.40209">
        <ele>404.2</ele>
        <time>2022-05-24 16:55:46</time>
      </trkpt>
      <trkpt lat="40.82268" lon="0.40207">
        <ele>404.4</ele>
        <time>2022-05-24 16:55:47</time>
      </trkpt>
      <trkpt lat="40.82269" lon="0.40205">
        <ele>404.6</ele>
        <time>2022-05-24 16:55:48</time>
      </trkpt>
      <trkpt lat="40.8227" lon="0.40203">
        <ele>404.8</ele>
        <time>2022-05-24 16:55:49</time>
      </trkpt>
      <trkpt lat="40.82271" lon="0.40202">
        <ele>405.2</ele>
        <time>2022-05-24 16:55:50</time>
      </trkpt>
      <trkpt lat="40.82272" lon="0.402">
        <ele>405.4</ele>
        <time>2022-05-24 16:55:51</time>
      </trkpt>
      <trkpt lat="40.82272" lon="0.40198">
        <ele>405.6</ele>
        <time>2022-05-24 16:55:52</time>
      </trkpt>
      <trkpt lat="40.82272" lon="0.40196">
        <ele>405.8</ele>
        <time>2022-05-24 16:55:53</time>
      </trkpt>
      <trkpt lat="40.82273" lon="0.40194">
        <ele>406</ele>
        <time>2022-05-24 16:55:54</time>
      </trkpt>
      <trkpt lat="40.82274" lon="0.40193">
        <ele>406</ele>
        <time>2022-05-24 16:55:55</time>
      </trkpt>
      <trkpt lat="40.82275" lon="0.40191">
        <ele>406.2</ele>
        <time>2022-05-24 16:55:56</time>
      </trkpt>
      <trkpt lat="40.82275" lon="0.40189">
        <ele>406.4</ele>
        <time>2022-05-24 16:55:57</time>
      </trkpt>
      <trkpt lat="40.82275" lon="0.40186">
        <ele>406.6</ele>
        <time>2022-05-24 16:55:58</time>
      </trkpt>
      <trkpt lat="40.82276" lon="0.40184">
        <ele>406.8</ele>
        <time>2022-05-24 16:55:59</time>
      </trkpt>
      <trkpt lat="40.82277" lon="0.40183">
        <ele>407</ele>
        <time>2022-05-24 16:56:00</time>
      </trkpt>
      <trkpt lat="40.82278" lon="0.40181">
        <ele>407.2</ele>
        <time>2022-05-24 16:56:01</time>
      </trkpt>
      <trkpt lat="40.82278" lon="0.40179">
        <ele>407.2</ele>
        <time>2022-05-24 16:56:02</time>
      </trkpt>
      <trkpt lat="40.82279" lon="0.40178">
        <ele>407.2</ele>
        <time>2022-05-24 16:56:03</time>
      </trkpt>
      <trkpt lat="40.8228" lon="0.40176">
        <ele>407.4</ele>
        <time>2022-05-24 16:56:04</time>
      </trkpt>
      <trkpt lat="40.82281" lon="0.40174">
        <ele>407.6</ele>
        <time>2022-05-24 16:56:05</time>
      </trkpt>
      <trkpt lat="40.82282" lon="0.40173">
        <ele>407.6</ele>
        <time>2022-05-24 16:56:06</time>
      </trkpt>
      <trkpt lat="40.82283" lon="0.40171">
        <ele>407.8</ele>
        <time>2022-05-24 16:56:07</time>
      </trkpt>
      <trkpt lat="40.82285" lon="0.40169">
        <ele>407.8</ele>
        <time>2022-05-24 16:56:08</time>
      </trkpt>
      <trkpt lat="40.82286" lon="0.40167">
        <ele>408</ele>
        <time>2022-05-24 16:56:09</time>
      </trkpt>
      <trkpt lat="40.82287" lon="0.40166">
        <ele>408.2</ele>
        <time>2022-05-24 16:56:10</time>
      </trkpt>
      <trkpt lat="40.82289" lon="0.40164">
        <ele>408.4</ele>
        <time>2022-05-24 16:56:11</time>
      </trkpt>
      <trkpt lat="40.8229" lon="0.40163">
        <ele>408.6</ele>
        <time>2022-05-24 16:56:12</time>
      </trkpt>
      <trkpt lat="40.82291" lon="0.40162">
        <ele>408.6</ele>
        <time>2022-05-24 16:56:13</time>
      </trkpt>
      <trkpt lat="40.82293" lon="0.40161">
        <ele>408.8</ele>
        <time>2022-05-24 16:56:14</time>
      </trkpt>
      <trkpt lat="40.82294" lon="0.40159">
        <ele>409</ele>
        <time>2022-05-24 16:56:15</time>
      </trkpt>
      <trkpt lat="40.82296" lon="0.40158">
        <ele>409.2</ele>
        <time>2022-05-24 16:56:16</time>
      </trkpt>
      <trkpt lat="40.82297" lon="0.40157">
        <ele>409.4</ele>
        <time>2022-05-24 16:56:17</time>
      </trkpt>
      <trkpt lat="40.82298" lon="0.40156">
        <ele>409.6</ele>
        <time>2022-05-24 16:56:18</time>
      </trkpt>
      <trkpt lat="40.82299" lon="0.40155">
        <ele>409.8</ele>
        <time>2022-05-24 16:56:19</time>
      </trkpt>
      <trkpt lat="40.82301" lon="0.40153">
        <ele>410</ele>
        <time>2022-05-24 16:56:20</time>
      </trkpt>
      <trkpt lat="40.82303" lon="0.40152">
        <ele>410.2</ele>
        <time>2022-05-24 16:56:21</time>
      </trkpt>
      <trkpt lat="40.82304" lon="0.40151">
        <ele>410.6</ele>
        <time>2022-05-24 16:56:22</time>
      </trkpt>
      <trkpt lat="40.82306" lon="0.4015">
        <ele>410.6</ele>
        <time>2022-05-24 16:56:23</time>
      </trkpt>
      <trkpt lat="40.82307" lon="0.40149">
        <ele>410.8</ele>
        <time>2022-05-24 16:56:24</time>
      </trkpt>
      <trkpt lat="40.82308" lon="0.40148">
        <ele>411</ele>
        <time>2022-05-24 16:56:25</time>
      </trkpt>
      <trkpt lat="40.8231" lon="0.40147">
        <ele>411.4</ele>
        <time>2022-05-24 16:56:26</time>
      </trkpt>
      <trkpt lat="40.82311" lon="0.40146">
        <ele>411.6</ele>
        <time>2022-05-24 16:56:27</time>
      </trkpt>
      <trkpt lat="40.82312" lon="0.40145">
        <ele>411.6</ele>
        <time>2022-05-24 16:56:28</time>
      </trkpt>
      <trkpt lat="40.82314" lon="0.40144">
        <ele>411.8</ele>
        <time>2022-05-24 16:56:29</time>
      </trkpt>
      <trkpt lat="40.82315" lon="0.40143">
        <ele>412</ele>
        <time>2022-05-24 16:56:30</time>
      </trkpt>
      <trkpt lat="40.82317" lon="0.40141">
        <ele>412.2</ele>
        <time>2022-05-24 16:56:31</time>
      </trkpt>
      <trkpt lat="40.82318" lon="0.4014">
        <ele>412.6</ele>
        <time>2022-05-24 16:56:32</time>
      </trkpt>
      <trkpt lat="40.82319" lon="0.40138">
        <ele>412.8</ele>
        <time>2022-05-24 16:56:33</time>
      </trkpt>
      <trkpt lat="40.8232" lon="0.40137">
        <ele>413</ele>
        <time>2022-05-24 16:56:34</time>
      </trkpt>
      <trkpt lat="40.82321" lon="0.40135">
        <ele>413.2</ele>
        <time>2022-05-24 16:56:35</time>
      </trkpt>
      <trkpt lat="40.82322" lon="0.40133">
        <ele>413.4</ele>
        <time>2022-05-24 16:56:36</time>
      </trkpt>
      <trkpt lat="40.82323" lon="0.40131">
        <ele>413.6</ele>
        <time>2022-05-24 16:56:37</time>
      </trkpt>
      <trkpt lat="40.82323" lon="0.40129">
        <ele>413.8</ele>
        <time>2022-05-24 16:56:38</time>
      </trkpt>
      <trkpt lat="40.82324" lon="0.40128">
        <ele>414.2</ele>
        <time>2022-05-24 16:56:39</time>
      </trkpt>
      <trkpt lat="40.82325" lon="0.40126">
        <ele>414.4</ele>
        <time>2022-05-24 16:56:40</time>
      </trkpt>
      <trkpt lat="40.82326" lon="0.40124">
        <ele>414.6</ele>
        <time>2022-05-24 16:56:41</time>
      </trkpt>
      <trkpt lat="40.82327" lon="0.40122">
        <ele>414.8</ele>
        <time>2022-05-24 16:56:42</time>
      </trkpt>
      <trkpt lat="40.82327" lon="0.4012">
        <ele>415</ele>
        <time>2022-05-24 16:56:43</time>
      </trkpt>
      <trkpt lat="40.82327" lon="0.40117">
        <ele>415.2</ele>
        <time>2022-05-24 16:56:44</time>
      </trkpt>
      <trkpt lat="40.82327" lon="0.40115">
        <ele>415.4</ele>
        <time>2022-05-24 16:56:45</time>
      </trkpt>
      <trkpt lat="40.82327" lon="0.40113">
        <ele>415.6</ele>
        <time>2022-05-24 16:56:46</time>
      </trkpt>
      <trkpt lat="40.82327" lon="0.4011">
        <ele>415.8</ele>
        <time>2022-05-24 16:56:47</time>
      </trkpt>
      <trkpt lat="40.82327" lon="0.40108">
        <ele>416</ele>
        <time>2022-05-24 16:56:48</time>
      </trkpt>
      <trkpt lat="40.82327" lon="0.40106">
        <ele>416.2</ele>
        <time>2022-05-24 16:56:49</time>
      </trkpt>
      <trkpt lat="40.82327" lon="0.40104">
        <ele>416.6</ele>
        <time>2022-05-24 16:56:50</time>
      </trkpt>
      <trkpt lat="40.82327" lon="0.40102">
        <ele>416.8</ele>
        <time>2022-05-24 16:56:51</time>
      </trkpt>
      <trkpt lat="40.82327" lon="0.401">
        <ele>417</ele>
        <time>2022-05-24 16:56:52</time>
      </trkpt>
      <trkpt lat="40.82326" lon="0.40098">
        <ele>417.2</ele>
        <time>2022-05-24 16:56:53</time>
      </trkpt>
      <trkpt lat="40.82325" lon="0.40096">
        <ele>417.2</ele>
        <time>2022-05-24 16:56:54</time>
      </trkpt>
      <trkpt lat="40.82325" lon="0.40094">
        <ele>417.4</ele>
        <time>2022-05-24 16:56:55</time>
      </trkpt>
      <trkpt lat="40.82324" lon="0.40092">
        <ele>417.6</ele>
        <time>2022-05-24 16:56:56</time>
      </trkpt>
      <trkpt lat="40.82324" lon="0.4009">
        <ele>417.8</ele>
        <time>2022-05-24 16:56:57</time>
      </trkpt>
      <trkpt lat="40.82323" lon="0.40088">
        <ele>418</ele>
        <time>2022-05-24 16:56:58</time>
      </trkpt>
      <trkpt lat="40.82323" lon="0.40086">
        <ele>418.2</ele>
        <time>2022-05-24 16:56:59</time>
      </trkpt>
      <trkpt lat="40.82322" lon="0.40084">
        <ele>418.4</ele>
        <time>2022-05-24 16:57:00</time>
      </trkpt>
      <trkpt lat="40.82322" lon="0.40082">
        <ele>418.6</ele>
        <time>2022-05-24 16:57:01</time>
      </trkpt>
      <trkpt lat="40.82321" lon="0.4008">
        <ele>418.8</ele>
        <time>2022-05-24 16:57:02</time>
      </trkpt>
      <trkpt lat="40.82321" lon="0.40079">
        <ele>419.2</ele>
        <time>2022-05-24 16:57:03</time>
      </trkpt>
      <trkpt lat="40.8232" lon="0.40077">
        <ele>419.2</ele>
        <time>2022-05-24 16:57:04</time>
      </trkpt>
      <trkpt lat="40.82319" lon="0.40075">
        <ele>419.4</ele>
        <time>2022-05-24 16:57:05</time>
      </trkpt>
      <trkpt lat="40.82318" lon="0.40073">
        <ele>419.6</ele>
        <time>2022-05-24 16:57:06</time>
      </trkpt>
      <trkpt lat="40.82317" lon="0.40071">
        <ele>420</ele>
        <time>2022-05-24 16:57:07</time>
      </trkpt>
      <trkpt lat="40.82317" lon="0.40069">
        <ele>420.2</ele>
        <time>2022-05-24 16:57:08</time>
      </trkpt>
      <trkpt lat="40.82316" lon="0.40067">
        <ele>420.4</ele>
        <time>2022-05-24 16:57:09</time>
      </trkpt>
      <trkpt lat="40.82315" lon="0.40065">
        <ele>420.6</ele>
        <time>2022-05-24 16:57:10</time>
      </trkpt>
      <trkpt lat="40.82314" lon="0.40063">
        <ele>420.8</ele>
        <time>2022-05-24 16:57:11</time>
      </trkpt>
      <trkpt lat="40.82313" lon="0.40061">
        <ele>421</ele>
        <time>2022-05-24 16:57:12</time>
      </trkpt>
      <trkpt lat="40.82312" lon="0.40059">
        <ele>421.2</ele>
        <time>2022-05-24 16:57:13</time>
      </trkpt>
      <trkpt lat="40.82312" lon="0.40057">
        <ele>421.6</ele>
        <time>2022-05-24 16:57:14</time>
      </trkpt>
      <trkpt lat="40.82311" lon="0.40055">
        <ele>421.8</ele>
        <time>2022-05-24 16:57:15</time>
      </trkpt>
      <trkpt lat="40.8231" lon="0.40053">
        <ele>422</ele>
        <time>2022-05-24 16:57:16</time>
      </trkpt>
      <trkpt lat="40.82309" lon="0.40051">
        <ele>422</ele>
        <time>2022-05-24 16:57:17</time>
      </trkpt>
      <trkpt lat="40.82309" lon="0.40049">
        <ele>422.2</ele>
        <time>2022-05-24 16:57:18</time>
      </trkpt>
      <trkpt lat="40.82309" lon="0.40049">
        <ele>422.4</ele>
        <time>2022-05-24 16:57:19</time>
      </trkpt>
      <trkpt lat="40.82309" lon="0.40048">
        <ele>422.4</ele>
        <time>2022-05-24 16:57:20</time>
      </trkpt>
      <trkpt lat="40.82309" lon="0.40046">
        <ele>422.8</ele>
        <time>2022-05-24 16:57:21</time>
      </trkpt>
      <trkpt lat="40.82309" lon="0.40044">
        <ele>422.8</ele>
        <time>2022-05-24 16:57:22</time>
      </trkpt>
      <trkpt lat="40.82309" lon="0.40042">
        <ele>423</ele>
        <time>2022-05-24 16:57:23</time>
      </trkpt>
      <trkpt lat="40.82308" lon="0.4004">
        <ele>423.2</ele>
        <time>2022-05-24 16:57:24</time>
      </trkpt>
      <trkpt lat="40.82308" lon="0.40038">
        <ele>423.4</ele>
        <time>2022-05-24 16:57:25</time>
      </trkpt>
      <trkpt lat="40.82307" lon="0.40036">
        <ele>423.6</ele>
        <time>2022-05-24 16:57:26</time>
      </trkpt>
      <trkpt lat="40.82307" lon="0.40034">
        <ele>423.8</ele>
        <time>2022-05-24 16:57:27</time>
      </trkpt>
      <trkpt lat="40.82306" lon="0.40032">
        <ele>424.2</ele>
        <time>2022-05-24 16:57:28</time>
      </trkpt>
      <trkpt lat="40.82305" lon="0.4003">
        <ele>424.2</ele>
        <time>2022-05-24 16:57:29</time>
      </trkpt>
      <trkpt lat="40.82304" lon="0.40028">
        <ele>424.4</ele>
        <time>2022-05-24 16:57:30</time>
      </trkpt>
      <trkpt lat="40.82304" lon="0.40026">
        <ele>424.6</ele>
        <time>2022-05-24 16:57:31</time>
      </trkpt>
      <trkpt lat="40.82302" lon="0.40024">
        <ele>424.8</ele>
        <time>2022-05-24 16:57:32</time>
      </trkpt>
      <trkpt lat="40.82302" lon="0.40022">
        <ele>425.2</ele>
        <time>2022-05-24 16:57:33</time>
      </trkpt>
      <trkpt lat="40.82301" lon="0.4002">
        <ele>425.4</ele>
        <time>2022-05-24 16:57:34</time>
      </trkpt>
      <trkpt lat="40.823" lon="0.40018">
        <ele>425.8</ele>
        <time>2022-05-24 16:57:35</time>
      </trkpt>
      <trkpt lat="40.823" lon="0.40016">
        <ele>426</ele>
        <time>2022-05-24 16:57:36</time>
      </trkpt>
      <trkpt lat="40.82299" lon="0.40015">
        <ele>426.2</ele>
        <time>2022-05-24 16:57:37</time>
      </trkpt>
      <trkpt lat="40.82299" lon="0.40013">
        <ele>426.4</ele>
        <time>2022-05-24 16:57:38</time>
      </trkpt>
      <trkpt lat="40.82299" lon="0.40011">
        <ele>426.6</ele>
        <time>2022-05-24 16:57:39</time>
      </trkpt>
      <trkpt lat="40.82299" lon="0.40009">
        <ele>426.8</ele>
        <time>2022-05-24 16:57:40</time>
      </trkpt>
      <trkpt lat="40.82299" lon="0.40007">
        <ele>427</ele>
        <time>2022-05-24 16:57:41</time>
      </trkpt>
      <trkpt lat="40.82298" lon="0.40006">
        <ele>427.2</ele>
        <time>2022-05-24 16:57:42</time>
      </trkpt>
      <trkpt lat="40.82298" lon="0.40005">
        <ele>427.4</ele>
        <time>2022-05-24 16:57:43</time>
      </trkpt>
      <trkpt lat="40.82298" lon="0.40003">
        <ele>427.8</ele>
        <time>2022-05-24 16:57:44</time>
      </trkpt>
      <trkpt lat="40.82297" lon="0.40001">
        <ele>428</ele>
        <time>2022-05-24 16:57:45</time>
      </trkpt>
      <trkpt lat="40.82296" lon="0.39999">
        <ele>428.2</ele>
        <time>2022-05-24 16:57:46</time>
      </trkpt>
      <trkpt lat="40.82295" lon="0.39996">
        <ele>428.4</ele>
        <time>2022-05-24 16:57:47</time>
      </trkpt>
      <trkpt lat="40.82296" lon="0.39995">
        <ele>428.6</ele>
        <time>2022-05-24 16:57:48</time>
      </trkpt>
      <trkpt lat="40.82296" lon="0.39993">
        <ele>429</ele>
        <time>2022-05-24 16:57:49</time>
      </trkpt>
      <trkpt lat="40.82296" lon="0.39991">
        <ele>429.2</ele>
        <time>2022-05-24 16:57:50</time>
      </trkpt>
      <trkpt lat="40.82296" lon="0.3999">
        <ele>429.4</ele>
        <time>2022-05-24 16:57:51</time>
      </trkpt>
      <trkpt lat="40.82296" lon="0.39988">
        <ele>429.8</ele>
        <time>2022-05-24 16:57:52</time>
      </trkpt>
      <trkpt lat="40.82296" lon="0.39986">
        <ele>430</ele>
        <time>2022-05-24 16:57:53</time>
      </trkpt>
      <trkpt lat="40.82295" lon="0.39984">
        <ele>430.2</ele>
        <time>2022-05-24 16:57:54</time>
      </trkpt>
      <trkpt lat="40.82295" lon="0.39982">
        <ele>430.4</ele>
        <time>2022-05-24 16:57:55</time>
      </trkpt>
      <trkpt lat="40.82295" lon="0.3998">
        <ele>430.4</ele>
        <time>2022-05-24 16:57:56</time>
      </trkpt>
      <trkpt lat="40.82294" lon="0.39978">
        <ele>430.8</ele>
        <time>2022-05-24 16:57:57</time>
      </trkpt>
      <trkpt lat="40.82294" lon="0.39976">
        <ele>431</ele>
        <time>2022-05-24 16:57:58</time>
      </trkpt>
      <trkpt lat="40.82293" lon="0.39974">
        <ele>431.2</ele>
        <time>2022-05-24 16:57:59</time>
      </trkpt>
      <trkpt lat="40.82293" lon="0.39972">
        <ele>431.4</ele>
        <time>2022-05-24 16:58:00</time>
      </trkpt>
      <trkpt lat="40.82293" lon="0.39971">
        <ele>431.6</ele>
        <time>2022-05-24 16:58:01</time>
      </trkpt>
      <trkpt lat="40.82293" lon="0.39969">
        <ele>431.8</ele>
        <time>2022-05-24 16:58:02</time>
      </trkpt>
      <trkpt lat="40.82292" lon="0.39968">
        <ele>432</ele>
        <time>2022-05-24 16:58:03</time>
      </trkpt>
      <trkpt lat="40.82292" lon="0.39966">
        <ele>432</ele>
        <time>2022-05-24 16:58:04</time>
      </trkpt>
      <trkpt lat="40.82292" lon="0.39964">
        <ele>432.2</ele>
        <time>2022-05-24 16:58:05</time>
      </trkpt>
      <trkpt lat="40.82292" lon="0.39962">
        <ele>432.4</ele>
        <time>2022-05-24 16:58:06</time>
      </trkpt>
      <trkpt lat="40.82292" lon="0.3996">
        <ele>432.6</ele>
        <time>2022-05-24 16:58:07</time>
      </trkpt>
      <trkpt lat="40.82292" lon="0.39958">
        <ele>432.6</ele>
        <time>2022-05-24 16:58:08</time>
      </trkpt>
      <trkpt lat="40.82292" lon="0.39956">
        <ele>432.8</ele>
        <time>2022-05-24 16:58:09</time>
      </trkpt>
      <trkpt lat="40.82292" lon="0.39954">
        <ele>433</ele>
        <time>2022-05-24 16:58:10</time>
      </trkpt>
      <trkpt lat="40.82292" lon="0.39952">
        <ele>433.2</ele>
        <time>2022-05-24 16:58:11</time>
      </trkpt>
      <trkpt lat="40.82292" lon="0.3995">
        <ele>433.4</ele>
        <time>2022-05-24 16:58:12</time>
      </trkpt>
      <trkpt lat="40.82292" lon="0.39948">
        <ele>433.6</ele>
        <time>2022-05-24 16:58:13</time>
      </trkpt>
      <trkpt lat="40.82292" lon="0.39946">
        <ele>433.8</ele>
        <time>2022-05-24 16:58:14</time>
      </trkpt>
      <trkpt lat="40.82292" lon="0.39944">
        <ele>434</ele>
        <time>2022-05-24 16:58:15</time>
      </trkpt>
      <trkpt lat="40.82292" lon="0.39942">
        <ele>434.2</ele>
        <time>2022-05-24 16:58:16</time>
      </trkpt>
      <trkpt lat="40.82292" lon="0.3994">
        <ele>434.4</ele>
        <time>2022-05-24 16:58:17</time>
      </trkpt>
      <trkpt lat="40.82292" lon="0.39938">
        <ele>434.6</ele>
        <time>2022-05-24 16:58:18</time>
      </trkpt>
      <trkpt lat="40.82292" lon="0.39936">
        <ele>434.8</ele>
        <time>2022-05-24 16:58:19</time>
      </trkpt>
      <trkpt lat="40.82293" lon="0.39934">
        <ele>435</ele>
        <time>2022-05-24 16:58:20</time>
      </trkpt>
      <trkpt lat="40.82293" lon="0.39932">
        <ele>435.2</ele>
        <time>2022-05-24 16:58:21</time>
      </trkpt>
      <trkpt lat="40.82293" lon="0.3993">
        <ele>435.4</ele>
        <time>2022-05-24 16:58:22</time>
      </trkpt>
      <trkpt lat="40.82293" lon="0.39928">
        <ele>435.6</ele>
        <time>2022-05-24 16:58:23</time>
      </trkpt>
      <trkpt lat="40.82292" lon="0.39925">
        <ele>436</ele>
        <time>2022-05-24 16:58:24</time>
      </trkpt>
      <trkpt lat="40.82292" lon="0.39923">
        <ele>436.2</ele>
        <time>2022-05-24 16:58:25</time>
      </trkpt>
      <trkpt lat="40.82292" lon="0.39921">
        <ele>436.2</ele>
        <time>2022-05-24 16:58:26</time>
      </trkpt>
      <trkpt lat="40.82292" lon="0.39919">
        <ele>436.6</ele>
        <time>2022-05-24 16:58:27</time>
      </trkpt>
      <trkpt lat="40.82292" lon="0.39917">
        <ele>436.8</ele>
        <time>2022-05-24 16:58:28</time>
      </trkpt>
      <trkpt lat="40.82292" lon="0.39914">
        <ele>437</ele>
        <time>2022-05-24 16:58:29</time>
      </trkpt>
      <trkpt lat="40.82292" lon="0.39912">
        <ele>437.4</ele>
        <time>2022-05-24 16:58:30</time>
      </trkpt>
      <trkpt lat="40.82292" lon="0.3991">
        <ele>437.4</ele>
        <time>2022-05-24 16:58:31</time>
      </trkpt>
      <trkpt lat="40.82292" lon="0.39908">
        <ele>437.6</ele>
        <time>2022-05-24 16:58:32</time>
      </trkpt>
      <trkpt lat="40.82291" lon="0.39906">
        <ele>437.8</ele>
        <time>2022-05-24 16:58:33</time>
      </trkpt>
      <trkpt lat="40.82291" lon="0.39905">
        <ele>438.2</ele>
        <time>2022-05-24 16:58:34</time>
      </trkpt>
      <trkpt lat="40.82291" lon="0.39903">
        <ele>438.4</ele>
        <time>2022-05-24 16:58:35</time>
      </trkpt>
      <trkpt lat="40.82291" lon="0.39901">
        <ele>438.6</ele>
        <time>2022-05-24 16:58:36</time>
      </trkpt>
      <trkpt lat="40.82291" lon="0.39899">
        <ele>439</ele>
        <time>2022-05-24 16:58:37</time>
      </trkpt>
      <trkpt lat="40.82291" lon="0.39897">
        <ele>439.2</ele>
        <time>2022-05-24 16:58:38</time>
      </trkpt>
      <trkpt lat="40.82291" lon="0.39895">
        <ele>439.4</ele>
        <time>2022-05-24 16:58:39</time>
      </trkpt>
      <trkpt lat="40.82291" lon="0.39893">
        <ele>439.6</ele>
        <time>2022-05-24 16:58:40</time>
      </trkpt>
      <trkpt lat="40.82291" lon="0.39891">
        <ele>439.8</ele>
        <time>2022-05-24 16:58:41</time>
      </trkpt>
      <trkpt lat="40.82291" lon="0.39889">
        <ele>440</ele>
        <time>2022-05-24 16:58:42</time>
      </trkpt>
      <trkpt lat="40.82291" lon="0.39887">
        <ele>440.2</ele>
        <time>2022-05-24 16:58:43</time>
      </trkpt>
      <trkpt lat="40.82291" lon="0.39885">
        <ele>440.2</ele>
        <time>2022-05-24 16:58:44</time>
      </trkpt>
      <trkpt lat="40.82291" lon="0.39883">
        <ele>440.4</ele>
        <time>2022-05-24 16:58:45</time>
      </trkpt>
      <trkpt lat="40.82291" lon="0.39881">
        <ele>440.8</ele>
        <time>2022-05-24 16:58:46</time>
      </trkpt>
      <trkpt lat="40.82291" lon="0.39879">
        <ele>441</ele>
        <time>2022-05-24 16:58:47</time>
      </trkpt>
      <trkpt lat="40.82292" lon="0.39877">
        <ele>441.2</ele>
        <time>2022-05-24 16:58:48</time>
      </trkpt>
      <trkpt lat="40.82292" lon="0.39875">
        <ele>441.4</ele>
        <time>2022-05-24 16:58:49</time>
      </trkpt>
      <trkpt lat="40.82292" lon="0.39873">
        <ele>441.6</ele>
        <time>2022-05-24 16:58:50</time>
      </trkpt>
      <trkpt lat="40.82292" lon="0.39871">
        <ele>441.6</ele>
        <time>2022-05-24 16:58:51</time>
      </trkpt>
      <trkpt lat="40.82291" lon="0.39869">
        <ele>441.8</ele>
        <time>2022-05-24 16:58:52</time>
      </trkpt>
      <trkpt lat="40.82292" lon="0.39867">
        <ele>442</ele>
        <time>2022-05-24 16:58:53</time>
      </trkpt>
      <trkpt lat="40.82292" lon="0.39865">
        <ele>442.2</ele>
        <time>2022-05-24 16:58:54</time>
      </trkpt>
      <trkpt lat="40.82292" lon="0.39862">
        <ele>442.4</ele>
        <time>2022-05-24 16:58:55</time>
      </trkpt>
      <trkpt lat="40.82292" lon="0.3986">
        <ele>442.6</ele>
        <time>2022-05-24 16:58:56</time>
      </trkpt>
      <trkpt lat="40.82292" lon="0.39858">
        <ele>442.8</ele>
        <time>2022-05-24 16:58:57</time>
      </trkpt>
      <trkpt lat="40.82293" lon="0.39856">
        <ele>443</ele>
        <time>2022-05-24 16:58:58</time>
      </trkpt>
      <trkpt lat="40.82293" lon="0.39855">
        <ele>443.2</ele>
        <time>2022-05-24 16:58:59</time>
      </trkpt>
      <trkpt lat="40.82293" lon="0.39852">
        <ele>443.4</ele>
        <time>2022-05-24 16:59:00</time>
      </trkpt>
      <trkpt lat="40.82293" lon="0.3985">
        <ele>443.6</ele>
        <time>2022-05-24 16:59:01</time>
      </trkpt>
      <trkpt lat="40.82293" lon="0.39848">
        <ele>443.8</ele>
        <time>2022-05-24 16:59:02</time>
      </trkpt>
      <trkpt lat="40.82293" lon="0.39846">
        <ele>443.8</ele>
        <time>2022-05-24 16:59:03</time>
      </trkpt>
      <trkpt lat="40.82293" lon="0.39844">
        <ele>444</ele>
        <time>2022-05-24 16:59:04</time>
      </trkpt>
      <trkpt lat="40.82294" lon="0.39842">
        <ele>444.2</ele>
        <time>2022-05-24 16:59:05</time>
      </trkpt>
      <trkpt lat="40.82294" lon="0.3984">
        <ele>444.4</ele>
        <time>2022-05-24 16:59:06</time>
      </trkpt>
      <trkpt lat="40.82295" lon="0.39838">
        <ele>444.6</ele>
        <time>2022-05-24 16:59:07</time>
      </trkpt>
      <trkpt lat="40.82295" lon="0.39836">
        <ele>444.8</ele>
        <time>2022-05-24 16:59:08</time>
      </trkpt>
      <trkpt lat="40.82296" lon="0.39834">
        <ele>445</ele>
        <time>2022-05-24 16:59:09</time>
      </trkpt>
      <trkpt lat="40.82296" lon="0.39832">
        <ele>445.2</ele>
        <time>2022-05-24 16:59:10</time>
      </trkpt>
      <trkpt lat="40.82296" lon="0.3983">
        <ele>445.4</ele>
        <time>2022-05-24 16:59:11</time>
      </trkpt>
      <trkpt lat="40.82296" lon="0.39828">
        <ele>445.6</ele>
        <time>2022-05-24 16:59:12</time>
      </trkpt>
      <trkpt lat="40.82296" lon="0.39826">
        <ele>445.8</ele>
        <time>2022-05-24 16:59:13</time>
      </trkpt>
      <trkpt lat="40.82296" lon="0.39824">
        <ele>445.8</ele>
        <time>2022-05-24 16:59:14</time>
      </trkpt>
      <trkpt lat="40.82296" lon="0.39822">
        <ele>446.2</ele>
        <time>2022-05-24 16:59:15</time>
      </trkpt>
      <trkpt lat="40.82297" lon="0.3982">
        <ele>446.2</ele>
        <time>2022-05-24 16:59:16</time>
      </trkpt>
      <trkpt lat="40.82297" lon="0.39818">
        <ele>446.4</ele>
        <time>2022-05-24 16:59:17</time>
      </trkpt>
      <trkpt lat="40.82298" lon="0.39817">
        <ele>446.4</ele>
        <time>2022-05-24 16:59:18</time>
      </trkpt>
      <trkpt lat="40.82298" lon="0.39815">
        <ele>446.6</ele>
        <time>2022-05-24 16:59:19</time>
      </trkpt>
      <trkpt lat="40.82298" lon="0.39812">
        <ele>446.6</ele>
        <time>2022-05-24 16:59:20</time>
      </trkpt>
      <trkpt lat="40.82299" lon="0.3981">
        <ele>446.8</ele>
        <time>2022-05-24 16:59:21</time>
      </trkpt>
      <trkpt lat="40.82299" lon="0.39808">
        <ele>446.8</ele>
        <time>2022-05-24 16:59:22</time>
      </trkpt>
      <trkpt lat="40.82299" lon="0.39806">
        <ele>447</ele>
        <time>2022-05-24 16:59:23</time>
      </trkpt>
      <trkpt lat="40.82299" lon="0.39804">
        <ele>447.4</ele>
        <time>2022-05-24 16:59:24</time>
      </trkpt>
      <trkpt lat="40.823" lon="0.39802">
        <ele>447.4</ele>
        <time>2022-05-24 16:59:25</time>
      </trkpt>
      <trkpt lat="40.823" lon="0.398">
        <ele>447.6</ele>
        <time>2022-05-24 16:59:26</time>
      </trkpt>
      <trkpt lat="40.823" lon="0.39798">
        <ele>447.8</ele>
        <time>2022-05-24 16:59:27</time>
      </trkpt>
      <trkpt lat="40.82301" lon="0.39795">
        <ele>448</ele>
        <time>2022-05-24 16:59:28</time>
      </trkpt>
      <trkpt lat="40.82301" lon="0.39793">
        <ele>448.2</ele>
        <time>2022-05-24 16:59:29</time>
      </trkpt>
      <trkpt lat="40.82301" lon="0.39791">
        <ele>448.6</ele>
        <time>2022-05-24 16:59:30</time>
      </trkpt>
      <trkpt lat="40.82302" lon="0.39789">
        <ele>448.8</ele>
        <time>2022-05-24 16:59:31</time>
      </trkpt>
      <trkpt lat="40.82303" lon="0.39787">
        <ele>449</ele>
        <time>2022-05-24 16:59:32</time>
      </trkpt>
      <trkpt lat="40.82303" lon="0.39785">
        <ele>449.4</ele>
        <time>2022-05-24 16:59:33</time>
      </trkpt>
      <trkpt lat="40.82304" lon="0.39783">
        <ele>449.6</ele>
        <time>2022-05-24 16:59:34</time>
      </trkpt>
      <trkpt lat="40.82304" lon="0.39781">
        <ele>449.8</ele>
        <time>2022-05-24 16:59:35</time>
      </trkpt>
      <trkpt lat="40.82305" lon="0.39779">
        <ele>450</ele>
        <time>2022-05-24 16:59:36</time>
      </trkpt>
      <trkpt lat="40.82306" lon="0.39777">
        <ele>450.2</ele>
        <time>2022-05-24 16:59:37</time>
      </trkpt>
      <trkpt lat="40.82306" lon="0.39775">
        <ele>450.4</ele>
        <time>2022-05-24 16:59:38</time>
      </trkpt>
      <trkpt lat="40.82307" lon="0.39773">
        <ele>450.6</ele>
        <time>2022-05-24 16:59:39</time>
      </trkpt>
      <trkpt lat="40.82308" lon="0.39771">
        <ele>451</ele>
        <time>2022-05-24 16:59:40</time>
      </trkpt>
      <trkpt lat="40.82309" lon="0.39769">
        <ele>451.2</ele>
        <time>2022-05-24 16:59:41</time>
      </trkpt>
      <trkpt lat="40.8231" lon="0.39768">
        <ele>451.4</ele>
        <time>2022-05-24 16:59:42</time>
      </trkpt>
      <trkpt lat="40.8231" lon="0.39766">
        <ele>451.6</ele>
        <time>2022-05-24 16:59:43</time>
      </trkpt>
      <trkpt lat="40.82312" lon="0.39764">
        <ele>451.8</ele>
        <time>2022-05-24 16:59:44</time>
      </trkpt>
      <trkpt lat="40.82312" lon="0.39762">
        <ele>452.2</ele>
        <time>2022-05-24 16:59:45</time>
      </trkpt>
      <trkpt lat="40.82313" lon="0.3976">
        <ele>452.2</ele>
        <time>2022-05-24 16:59:46</time>
      </trkpt>
      <trkpt lat="40.82314" lon="0.39758">
        <ele>452.4</ele>
        <time>2022-05-24 16:59:47</time>
      </trkpt>
      <trkpt lat="40.82315" lon="0.39757">
        <ele>452.6</ele>
        <time>2022-05-24 16:59:48</time>
      </trkpt>
      <trkpt lat="40.82316" lon="0.39755">
        <ele>453</ele>
        <time>2022-05-24 16:59:49</time>
      </trkpt>
      <trkpt lat="40.82317" lon="0.39753">
        <ele>453.4</ele>
        <time>2022-05-24 16:59:50</time>
      </trkpt>
      <trkpt lat="40.82319" lon="0.39752">
        <ele>453.6</ele>
        <time>2022-05-24 16:59:51</time>
      </trkpt>
      <trkpt lat="40.8232" lon="0.39751">
        <ele>453.8</ele>
        <time>2022-05-24 16:59:52</time>
      </trkpt>
      <trkpt lat="40.82322" lon="0.39749">
        <ele>454</ele>
        <time>2022-05-24 16:59:53</time>
      </trkpt>
      <trkpt lat="40.82323" lon="0.39748">
        <ele>454.2</ele>
        <time>2022-05-24 16:59:54</time>
      </trkpt>
      <trkpt lat="40.82324" lon="0.39746">
        <ele>454.4</ele>
        <time>2022-05-24 16:59:55</time>
      </trkpt>
      <trkpt lat="40.82325" lon="0.39745">
        <ele>454.6</ele>
        <time>2022-05-24 16:59:56</time>
      </trkpt>
      <trkpt lat="40.82326" lon="0.39743">
        <ele>454.8</ele>
        <time>2022-05-24 16:59:57</time>
      </trkpt>
      <trkpt lat="40.82327" lon="0.39741">
        <ele>455</ele>
        <time>2022-05-24 16:59:58</time>
      </trkpt>
      <trkpt lat="40.82328" lon="0.39739">
        <ele>455.2</ele>
        <time>2022-05-24 16:59:59</time>
      </trkpt>
      <trkpt lat="40.82328" lon="0.39738">
        <ele>455.4</ele>
        <time>2022-05-24 17:00:00</time>
      </trkpt>
      <trkpt lat="40.8233" lon="0.39736">
        <ele>455.8</ele>
        <time>2022-05-24 17:00:01</time>
      </trkpt>
      <trkpt lat="40.8233" lon="0.39734">
        <ele>456</ele>
        <time>2022-05-24 17:00:02</time>
      </trkpt>
      <trkpt lat="40.82331" lon="0.39732">
        <ele>456.2</ele>
        <time>2022-05-24 17:00:03</time>
      </trkpt>
      <trkpt lat="40.82332" lon="0.39731">
        <ele>456.4</ele>
        <time>2022-05-24 17:00:04</time>
      </trkpt>
      <trkpt lat="40.82333" lon="0.39729">
        <ele>456.6</ele>
        <time>2022-05-24 17:00:05</time>
      </trkpt>
      <trkpt lat="40.82334" lon="0.39727">
        <ele>456.8</ele>
        <time>2022-05-24 17:00:06</time>
      </trkpt>
      <trkpt lat="40.82334" lon="0.39725">
        <ele>457</ele>
        <time>2022-05-24 17:00:07</time>
      </trkpt>
      <trkpt lat="40.82335" lon="0.39723">
        <ele>457.2</ele>
        <time>2022-05-24 17:00:08</time>
      </trkpt>
      <trkpt lat="40.82336" lon="0.39722">
        <ele>457.4</ele>
        <time>2022-05-24 17:00:09</time>
      </trkpt>
      <trkpt lat="40.82336" lon="0.3972">
        <ele>457.6</ele>
        <time>2022-05-24 17:00:10</time>
      </trkpt>
      <trkpt lat="40.82338" lon="0.39719">
        <ele>457.8</ele>
        <time>2022-05-24 17:00:11</time>
      </trkpt>
      <trkpt lat="40.82338" lon="0.39717">
        <ele>458</ele>
        <time>2022-05-24 17:00:12</time>
      </trkpt>
      <trkpt lat="40.82339" lon="0.39715">
        <ele>458</ele>
        <time>2022-05-24 17:00:13</time>
      </trkpt>
      <trkpt lat="40.82339" lon="0.39713">
        <ele>458.2</ele>
        <time>2022-05-24 17:00:14</time>
      </trkpt>
      <trkpt lat="40.8234" lon="0.39711">
        <ele>458.4</ele>
        <time>2022-05-24 17:00:15</time>
      </trkpt>
      <trkpt lat="40.82341" lon="0.39709">
        <ele>458.6</ele>
        <time>2022-05-24 17:00:16</time>
      </trkpt>
      <trkpt lat="40.82342" lon="0.39707">
        <ele>458.6</ele>
        <time>2022-05-24 17:00:17</time>
      </trkpt>
      <trkpt lat="40.82343" lon="0.39706">
        <ele>458.8</ele>
        <time>2022-05-24 17:00:18</time>
      </trkpt>
      <trkpt lat="40.82344" lon="0.39704">
        <ele>459</ele>
        <time>2022-05-24 17:00:19</time>
      </trkpt>
      <trkpt lat="40.82346" lon="0.39703">
        <ele>459.2</ele>
        <time>2022-05-24 17:00:20</time>
      </trkpt>
      <trkpt lat="40.82347" lon="0.39702">
        <ele>459.4</ele>
        <time>2022-05-24 17:00:21</time>
      </trkpt>
      <trkpt lat="40.82348" lon="0.39701">
        <ele>459.6</ele>
        <time>2022-05-24 17:00:22</time>
      </trkpt>
      <trkpt lat="40.8235" lon="0.39699">
        <ele>459.8</ele>
        <time>2022-05-24 17:00:23</time>
      </trkpt>
      <trkpt lat="40.82351" lon="0.39698">
        <ele>460</ele>
        <time>2022-05-24 17:00:24</time>
      </trkpt>
      <trkpt lat="40.82353" lon="0.39697">
        <ele>460.2</ele>
        <time>2022-05-24 17:00:25</time>
      </trkpt>
      <trkpt lat="40.82354" lon="0.39696">
        <ele>460.2</ele>
        <time>2022-05-24 17:00:26</time>
      </trkpt>
      <trkpt lat="40.82356" lon="0.39695">
        <ele>460.4</ele>
        <time>2022-05-24 17:00:27</time>
      </trkpt>
      <trkpt lat="40.82357" lon="0.39694">
        <ele>460.6</ele>
        <time>2022-05-24 17:00:28</time>
      </trkpt>
      <trkpt lat="40.82359" lon="0.39693">
        <ele>460.8</ele>
        <time>2022-05-24 17:00:29</time>
      </trkpt>
      <trkpt lat="40.8236" lon="0.39692">
        <ele>461</ele>
        <time>2022-05-24 17:00:30</time>
      </trkpt>
      <trkpt lat="40.82362" lon="0.39692">
        <ele>461.2</ele>
        <time>2022-05-24 17:00:31</time>
      </trkpt>
      <trkpt lat="40.82364" lon="0.39691">
        <ele>461.4</ele>
        <time>2022-05-24 17:00:32</time>
      </trkpt>
      <trkpt lat="40.82365" lon="0.3969">
        <ele>461.6</ele>
        <time>2022-05-24 17:00:33</time>
      </trkpt>
      <trkpt lat="40.82367" lon="0.3969">
        <ele>461.8</ele>
        <time>2022-05-24 17:00:34</time>
      </trkpt>
      <trkpt lat="40.82368" lon="0.39689">
        <ele>462</ele>
        <time>2022-05-24 17:00:35</time>
      </trkpt>
      <trkpt lat="40.8237" lon="0.39689">
        <ele>462.2</ele>
        <time>2022-05-24 17:00:36</time>
      </trkpt>
      <trkpt lat="40.82372" lon="0.39688">
        <ele>462.4</ele>
        <time>2022-05-24 17:00:37</time>
      </trkpt>
      <trkpt lat="40.82373" lon="0.39687">
        <ele>462.6</ele>
        <time>2022-05-24 17:00:38</time>
      </trkpt>
      <trkpt lat="40.82375" lon="0.39687">
        <ele>462.8</ele>
        <time>2022-05-24 17:00:39</time>
      </trkpt>
      <trkpt lat="40.82377" lon="0.39686">
        <ele>462.8</ele>
        <time>2022-05-24 17:00:40</time>
      </trkpt>
      <trkpt lat="40.82378" lon="0.39686">
        <ele>463</ele>
        <time>2022-05-24 17:00:41</time>
      </trkpt>
      <trkpt lat="40.8238" lon="0.39685">
        <ele>463.2</ele>
        <time>2022-05-24 17:00:42</time>
      </trkpt>
      <trkpt lat="40.82381" lon="0.39684">
        <ele>463.4</ele>
        <time>2022-05-24 17:00:43</time>
      </trkpt>
      <trkpt lat="40.82383" lon="0.39683">
        <ele>463.6</ele>
        <time>2022-05-24 17:00:44</time>
      </trkpt>
      <trkpt lat="40.82384" lon="0.39682">
        <ele>463.6</ele>
        <time>2022-05-24 17:00:45</time>
      </trkpt>
      <trkpt lat="40.82386" lon="0.39682">
        <ele>464</ele>
        <time>2022-05-24 17:00:46</time>
      </trkpt>
      <trkpt lat="40.82388" lon="0.39682">
        <ele>464.2</ele>
        <time>2022-05-24 17:00:47</time>
      </trkpt>
      <trkpt lat="40.82389" lon="0.39682">
        <ele>464.4</ele>
        <time>2022-05-24 17:00:48</time>
      </trkpt>
      <trkpt lat="40.82391" lon="0.39682">
        <ele>464.6</ele>
        <time>2022-05-24 17:00:49</time>
      </trkpt>
      <trkpt lat="40.82393" lon="0.39681">
        <ele>464.6</ele>
        <time>2022-05-24 17:00:50</time>
      </trkpt>
      <trkpt lat="40.82395" lon="0.39681">
        <ele>464.8</ele>
        <time>2022-05-24 17:00:51</time>
      </trkpt>
      <trkpt lat="40.82397" lon="0.39681">
        <ele>465</ele>
        <time>2022-05-24 17:00:52</time>
      </trkpt>
      <trkpt lat="40.82398" lon="0.3968">
        <ele>465.2</ele>
        <time>2022-05-24 17:00:53</time>
      </trkpt>
      <trkpt lat="40.824" lon="0.3968">
        <ele>465.2</ele>
        <time>2022-05-24 17:00:54</time>
      </trkpt>
      <trkpt lat="40.82402" lon="0.3968">
        <ele>465.4</ele>
        <time>2022-05-24 17:00:55</time>
      </trkpt>
      <trkpt lat="40.82404" lon="0.39679">
        <ele>465.6</ele>
        <time>2022-05-24 17:00:56</time>
      </trkpt>
      <trkpt lat="40.82405" lon="0.39679">
        <ele>465.8</ele>
        <time>2022-05-24 17:00:57</time>
      </trkpt>
      <trkpt lat="40.82406" lon="0.39677">
        <ele>465.8</ele>
        <time>2022-05-24 17:00:58</time>
      </trkpt>
      <trkpt lat="40.82408" lon="0.39676">
        <ele>466.2</ele>
        <time>2022-05-24 17:00:59</time>
      </trkpt>
      <trkpt lat="40.8241" lon="0.39675">
        <ele>466.4</ele>
        <time>2022-05-24 17:01:00</time>
      </trkpt>
      <trkpt lat="40.82411" lon="0.39674">
        <ele>466.6</ele>
        <time>2022-05-24 17:01:01</time>
      </trkpt>
      <trkpt lat="40.82412" lon="0.39673">
        <ele>466.8</ele>
        <time>2022-05-24 17:01:02</time>
      </trkpt>
      <trkpt lat="40.82413" lon="0.39672">
        <ele>467</ele>
        <time>2022-05-24 17:01:03</time>
      </trkpt>
      <trkpt lat="40.82415" lon="0.3967">
        <ele>467.2</ele>
        <time>2022-05-24 17:01:04</time>
      </trkpt>
      <trkpt lat="40.82416" lon="0.39669">
        <ele>467.4</ele>
        <time>2022-05-24 17:01:05</time>
      </trkpt>
      <trkpt lat="40.82417" lon="0.39667">
        <ele>467.8</ele>
        <time>2022-05-24 17:01:06</time>
      </trkpt>
      <trkpt lat="40.82418" lon="0.39665">
        <ele>468</ele>
        <time>2022-05-24 17:01:07</time>
      </trkpt>
      <trkpt lat="40.82418" lon="0.39663">
        <ele>468.2</ele>
        <time>2022-05-24 17:01:08</time>
      </trkpt>
      <trkpt lat="40.82419" lon="0.39661">
        <ele>468.4</ele>
        <time>2022-05-24 17:01:09</time>
      </trkpt>
      <trkpt lat="40.8242" lon="0.39659">
        <ele>468.6</ele>
        <time>2022-05-24 17:01:10</time>
      </trkpt>
      <trkpt lat="40.8242" lon="0.39656">
        <ele>468.8</ele>
        <time>2022-05-24 17:01:11</time>
      </trkpt>
      <trkpt lat="40.8242" lon="0.39654">
        <ele>469</ele>
        <time>2022-05-24 17:01:12</time>
      </trkpt>
      <trkpt lat="40.8242" lon="0.39652">
        <ele>469.2</ele>
        <time>2022-05-24 17:01:13</time>
      </trkpt>
      <trkpt lat="40.8242" lon="0.3965">
        <ele>469.4</ele>
        <time>2022-05-24 17:01:14</time>
      </trkpt>
      <trkpt lat="40.82419" lon="0.39647">
        <ele>469.6</ele>
        <time>2022-05-24 17:01:15</time>
      </trkpt>
      <trkpt lat="40.82419" lon="0.39645">
        <ele>469.8</ele>
        <time>2022-05-24 17:01:16</time>
      </trkpt>
      <trkpt lat="40.82419" lon="0.39643">
        <ele>469.8</ele>
        <time>2022-05-24 17:01:17</time>
      </trkpt>
      <trkpt lat="40.82418" lon="0.39641">
        <ele>470</ele>
        <time>2022-05-24 17:01:18</time>
      </trkpt>
      <trkpt lat="40.82418" lon="0.39639">
        <ele>470.2</ele>
        <time>2022-05-24 17:01:19</time>
      </trkpt>
      <trkpt lat="40.82418" lon="0.39636">
        <ele>470.4</ele>
        <time>2022-05-24 17:01:20</time>
      </trkpt>
      <trkpt lat="40.82418" lon="0.39634">
        <ele>470.6</ele>
        <time>2022-05-24 17:01:21</time>
      </trkpt>
      <trkpt lat="40.82418" lon="0.39632">
        <ele>470.6</ele>
        <time>2022-05-24 17:01:22</time>
      </trkpt>
      <trkpt lat="40.82418" lon="0.3963">
        <ele>470.8</ele>
        <time>2022-05-24 17:01:23</time>
      </trkpt>
      <trkpt lat="40.82418" lon="0.39628">
        <ele>471</ele>
        <time>2022-05-24 17:01:24</time>
      </trkpt>
      <trkpt lat="40.82418" lon="0.39626">
        <ele>471</ele>
        <time>2022-05-24 17:01:25</time>
      </trkpt>
      <trkpt lat="40.82417" lon="0.39624">
        <ele>471.2</ele>
        <time>2022-05-24 17:01:26</time>
      </trkpt>
      <trkpt lat="40.82417" lon="0.39622">
        <ele>471.4</ele>
        <time>2022-05-24 17:01:27</time>
      </trkpt>
      <trkpt lat="40.82417" lon="0.39619">
        <ele>471.4</ele>
        <time>2022-05-24 17:01:28</time>
      </trkpt>
      <trkpt lat="40.82417" lon="0.39617">
        <ele>471.6</ele>
        <time>2022-05-24 17:01:29</time>
      </trkpt>
      <trkpt lat="40.82417" lon="0.39615">
        <ele>471.6</ele>
        <time>2022-05-24 17:01:30</time>
      </trkpt>
      <trkpt lat="40.82417" lon="0.39612">
        <ele>471.8</ele>
        <time>2022-05-24 17:01:31</time>
      </trkpt>
      <trkpt lat="40.82416" lon="0.3961">
        <ele>472</ele>
        <time>2022-05-24 17:01:32</time>
      </trkpt>
      <trkpt lat="40.82416" lon="0.39608">
        <ele>472</ele>
        <time>2022-05-24 17:01:33</time>
      </trkpt>
      <trkpt lat="40.82416" lon="0.39605">
        <ele>472.2</ele>
        <time>2022-05-24 17:01:34</time>
      </trkpt>
      <trkpt lat="40.82416" lon="0.39603">
        <ele>472.4</ele>
        <time>2022-05-24 17:01:35</time>
      </trkpt>
      <trkpt lat="40.82416" lon="0.39601">
        <ele>472.6</ele>
        <time>2022-05-24 17:01:36</time>
      </trkpt>
      <trkpt lat="40.82416" lon="0.39599">
        <ele>472.8</ele>
        <time>2022-05-24 17:01:37</time>
      </trkpt>
      <trkpt lat="40.82415" lon="0.39596">
        <ele>473</ele>
        <time>2022-05-24 17:01:38</time>
      </trkpt>
      <trkpt lat="40.82415" lon="0.39594">
        <ele>473</ele>
        <time>2022-05-24 17:01:39</time>
      </trkpt>
      <trkpt lat="40.82414" lon="0.39592">
        <ele>473.4</ele>
        <time>2022-05-24 17:01:40</time>
      </trkpt>
      <trkpt lat="40.82413" lon="0.39589">
        <ele>473.6</ele>
        <time>2022-05-24 17:01:41</time>
      </trkpt>
      <trkpt lat="40.82413" lon="0.39587">
        <ele>473.8</ele>
        <time>2022-05-24 17:01:42</time>
      </trkpt>
      <trkpt lat="40.82412" lon="0.39585">
        <ele>474.2</ele>
        <time>2022-05-24 17:01:43</time>
      </trkpt>
      <trkpt lat="40.82412" lon="0.39582">
        <ele>474.4</ele>
        <time>2022-05-24 17:01:44</time>
      </trkpt>
      <trkpt lat="40.82412" lon="0.3958">
        <ele>474.6</ele>
        <time>2022-05-24 17:01:45</time>
      </trkpt>
      <trkpt lat="40.82411" lon="0.39578">
        <ele>474.8</ele>
        <time>2022-05-24 17:01:46</time>
      </trkpt>
      <trkpt lat="40.82411" lon="0.39576">
        <ele>475</ele>
        <time>2022-05-24 17:01:47</time>
      </trkpt>
      <trkpt lat="40.8241" lon="0.39574">
        <ele>475.2</ele>
        <time>2022-05-24 17:01:48</time>
      </trkpt>
      <trkpt lat="40.8241" lon="0.39571">
        <ele>475.6</ele>
        <time>2022-05-24 17:01:49</time>
      </trkpt>
      <trkpt lat="40.8241" lon="0.39569">
        <ele>475.8</ele>
        <time>2022-05-24 17:01:50</time>
      </trkpt>
      <trkpt lat="40.8241" lon="0.39568">
        <ele>476</ele>
        <time>2022-05-24 17:01:51</time>
      </trkpt>
      <trkpt lat="40.8241" lon="0.39566">
        <ele>476.2</ele>
        <time>2022-05-24 17:01:52</time>
      </trkpt>
      <trkpt lat="40.82409" lon="0.39564">
        <ele>476.2</ele>
        <time>2022-05-24 17:01:53</time>
      </trkpt>
      <trkpt lat="40.82409" lon="0.39562">
        <ele>476.4</ele>
        <time>2022-05-24 17:01:54</time>
      </trkpt>
      <trkpt lat="40.82409" lon="0.3956">
        <ele>476.6</ele>
        <time>2022-05-24 17:01:55</time>
      </trkpt>
      <trkpt lat="40.82408" lon="0.39558">
        <ele>476.8</ele>
        <time>2022-05-24 17:01:56</time>
      </trkpt>
      <trkpt lat="40.82408" lon="0.39556">
        <ele>477</ele>
        <time>2022-05-24 17:01:57</time>
      </trkpt>
      <trkpt lat="40.82407" lon="0.39554">
        <ele>477.2</ele>
        <time>2022-05-24 17:01:58</time>
      </trkpt>
      <trkpt lat="40.82407" lon="0.39552">
        <ele>477.4</ele>
        <time>2022-05-24 17:01:59</time>
      </trkpt>
      <trkpt lat="40.82406" lon="0.39551">
        <ele>477.4</ele>
        <time>2022-05-24 17:02:00</time>
      </trkpt>
      <trkpt lat="40.82406" lon="0.39548">
        <ele>477.6</ele>
        <time>2022-05-24 17:02:01</time>
      </trkpt>
      <trkpt lat="40.82405" lon="0.39546">
        <ele>477.8</ele>
        <time>2022-05-24 17:02:02</time>
      </trkpt>
      <trkpt lat="40.82405" lon="0.39544">
        <ele>478</ele>
        <time>2022-05-24 17:02:03</time>
      </trkpt>
      <trkpt lat="40.82405" lon="0.39542">
        <ele>478.2</ele>
        <time>2022-05-24 17:02:04</time>
      </trkpt>
      <trkpt lat="40.82404" lon="0.3954">
        <ele>478.4</ele>
        <time>2022-05-24 17:02:05</time>
      </trkpt>
      <trkpt lat="40.82404" lon="0.39538">
        <ele>478.6</ele>
        <time>2022-05-24 17:02:06</time>
      </trkpt>
      <trkpt lat="40.82404" lon="0.39536">
        <ele>478.8</ele>
        <time>2022-05-24 17:02:07</time>
      </trkpt>
      <trkpt lat="40.82404" lon="0.39534">
        <ele>479</ele>
        <time>2022-05-24 17:02:08</time>
      </trkpt>
      <trkpt lat="40.82403" lon="0.39532">
        <ele>479</ele>
        <time>2022-05-24 17:02:09</time>
      </trkpt>
      <trkpt lat="40.82403" lon="0.39531">
        <ele>479.4</ele>
        <time>2022-05-24 17:02:10</time>
      </trkpt>
      <trkpt lat="40.82403" lon="0.39529">
        <ele>479.6</ele>
        <time>2022-05-24 17:02:11</time>
      </trkpt>
      <trkpt lat="40.82403" lon="0.39527">
        <ele>479.8</ele>
        <time>2022-05-24 17:02:12</time>
      </trkpt>
      <trkpt lat="40.82403" lon="0.39525">
        <ele>480</ele>
        <time>2022-05-24 17:02:13</time>
      </trkpt>
      <trkpt lat="40.82404" lon="0.39523">
        <ele>480</ele>
        <time>2022-05-24 17:02:14</time>
      </trkpt>
      <trkpt lat="40.82404" lon="0.3952">
        <ele>480.2</ele>
        <time>2022-05-24 17:02:15</time>
      </trkpt>
      <trkpt lat="40.82404" lon="0.39518">
        <ele>480.2</ele>
        <time>2022-05-24 17:02:16</time>
      </trkpt>
      <trkpt lat="40.82404" lon="0.39516">
        <ele>480.4</ele>
        <time>2022-05-24 17:02:17</time>
      </trkpt>
      <trkpt lat="40.82405" lon="0.39514">
        <ele>480.4</ele>
        <time>2022-05-24 17:02:18</time>
      </trkpt>
      <trkpt lat="40.82405" lon="0.39511">
        <ele>480.6</ele>
        <time>2022-05-24 17:02:19</time>
      </trkpt>
      <trkpt lat="40.82406" lon="0.39509">
        <ele>480.8</ele>
        <time>2022-05-24 17:02:20</time>
      </trkpt>
      <trkpt lat="40.82407" lon="0.39506">
        <ele>481</ele>
        <time>2022-05-24 17:02:21</time>
      </trkpt>
      <trkpt lat="40.82407" lon="0.39503">
        <ele>481.2</ele>
        <time>2022-05-24 17:02:22</time>
      </trkpt>
      <trkpt lat="40.82408" lon="0.39501">
        <ele>481.4</ele>
        <time>2022-05-24 17:02:23</time>
      </trkpt>
      <trkpt lat="40.82409" lon="0.39498">
        <ele>481.6</ele>
        <time>2022-05-24 17:02:24</time>
      </trkpt>
      <trkpt lat="40.82409" lon="0.39496">
        <ele>481.8</ele>
        <time>2022-05-24 17:02:25</time>
      </trkpt>
      <trkpt lat="40.8241" lon="0.39494">
        <ele>482</ele>
        <time>2022-05-24 17:02:26</time>
      </trkpt>
      <trkpt lat="40.82411" lon="0.39491">
        <ele>482.2</ele>
        <time>2022-05-24 17:02:27</time>
      </trkpt>
      <trkpt lat="40.82412" lon="0.39489">
        <ele>482.4</ele>
        <time>2022-05-24 17:02:28</time>
      </trkpt>
      <trkpt lat="40.82412" lon="0.39486">
        <ele>482.6</ele>
        <time>2022-05-24 17:02:29</time>
      </trkpt>
      <trkpt lat="40.82412" lon="0.39484">
        <ele>482.8</ele>
        <time>2022-05-24 17:02:30</time>
      </trkpt>
      <trkpt lat="40.82413" lon="0.39482">
        <ele>483</ele>
        <time>2022-05-24 17:02:31</time>
      </trkpt>
      <trkpt lat="40.82414" lon="0.39479">
        <ele>483.2</ele>
        <time>2022-05-24 17:02:32</time>
      </trkpt>
      <trkpt lat="40.82415" lon="0.39477">
        <ele>483.4</ele>
        <time>2022-05-24 17:02:33</time>
      </trkpt>
      <trkpt lat="40.82415" lon="0.39475">
        <ele>483.6</ele>
        <time>2022-05-24 17:02:34</time>
      </trkpt>
      <trkpt lat="40.82416" lon="0.39472">
        <ele>483.8</ele>
        <time>2022-05-24 17:02:35</time>
      </trkpt>
      <trkpt lat="40.82417" lon="0.3947">
        <ele>484</ele>
        <time>2022-05-24 17:02:36</time>
      </trkpt>
      <trkpt lat="40.82418" lon="0.39468">
        <ele>484.2</ele>
        <time>2022-05-24 17:02:37</time>
      </trkpt>
      <trkpt lat="40.82419" lon="0.39466">
        <ele>484.4</ele>
        <time>2022-05-24 17:02:38</time>
      </trkpt>
      <trkpt lat="40.8242" lon="0.39463">
        <ele>484.4</ele>
        <time>2022-05-24 17:02:39</time>
      </trkpt>
      <trkpt lat="40.8242" lon="0.39461">
        <ele>484.8</ele>
        <time>2022-05-24 17:02:40</time>
      </trkpt>
      <trkpt lat="40.82421" lon="0.39459">
        <ele>484.8</ele>
        <time>2022-05-24 17:02:41</time>
      </trkpt>
      <trkpt lat="40.82423" lon="0.39457">
        <ele>485</ele>
        <time>2022-05-24 17:02:42</time>
      </trkpt>
      <trkpt lat="40.82424" lon="0.39455">
        <ele>485.2</ele>
        <time>2022-05-24 17:02:43</time>
      </trkpt>
      <trkpt lat="40.82425" lon="0.39452">
        <ele>485.4</ele>
        <time>2022-05-24 17:02:44</time>
      </trkpt>
      <trkpt lat="40.82426" lon="0.3945">
        <ele>485.6</ele>
        <time>2022-05-24 17:02:45</time>
      </trkpt>
      <trkpt lat="40.82427" lon="0.39448">
        <ele>485.8</ele>
        <time>2022-05-24 17:02:46</time>
      </trkpt>
      <trkpt lat="40.82429" lon="0.39447">
        <ele>486</ele>
        <time>2022-05-24 17:02:47</time>
      </trkpt>
      <trkpt lat="40.8243" lon="0.39445">
        <ele>486</ele>
        <time>2022-05-24 17:02:48</time>
      </trkpt>
      <trkpt lat="40.82432" lon="0.39444">
        <ele>486.2</ele>
        <time>2022-05-24 17:02:49</time>
      </trkpt>
      <trkpt lat="40.82433" lon="0.39442">
        <ele>486.4</ele>
        <time>2022-05-24 17:02:50</time>
      </trkpt>
      <trkpt lat="40.82435" lon="0.3944">
        <ele>486.4</ele>
        <time>2022-05-24 17:02:51</time>
      </trkpt>
      <trkpt lat="40.82436" lon="0.39438">
        <ele>486.6</ele>
        <time>2022-05-24 17:02:52</time>
      </trkpt>
      <trkpt lat="40.82438" lon="0.39436">
        <ele>486.8</ele>
        <time>2022-05-24 17:02:53</time>
      </trkpt>
      <trkpt lat="40.82439" lon="0.39434">
        <ele>486.8</ele>
        <time>2022-05-24 17:02:54</time>
      </trkpt>
      <trkpt lat="40.8244" lon="0.39432">
        <ele>486.8</ele>
        <time>2022-05-24 17:02:55</time>
      </trkpt>
      <trkpt lat="40.82441" lon="0.3943">
        <ele>487</ele>
        <time>2022-05-24 17:02:56</time>
      </trkpt>
      <trkpt lat="40.82442" lon="0.39428">
        <ele>487</ele>
        <time>2022-05-24 17:02:57</time>
      </trkpt>
      <trkpt lat="40.82443" lon="0.39425">
        <ele>487.2</ele>
        <time>2022-05-24 17:02:58</time>
      </trkpt>
      <trkpt lat="40.82444" lon="0.39423">
        <ele>487.4</ele>
        <time>2022-05-24 17:02:59</time>
      </trkpt>
      <trkpt lat="40.82444" lon="0.3942">
        <ele>487.6</ele>
        <time>2022-05-24 17:03:00</time>
      </trkpt>
      <trkpt lat="40.82445" lon="0.39418">
        <ele>487.6</ele>
        <time>2022-05-24 17:03:01</time>
      </trkpt>
      <trkpt lat="40.82445" lon="0.39415">
        <ele>488</ele>
        <time>2022-05-24 17:03:02</time>
      </trkpt>
      <trkpt lat="40.82445" lon="0.39413">
        <ele>488</ele>
        <time>2022-05-24 17:03:03</time>
      </trkpt>
      <trkpt lat="40.82445" lon="0.3941">
        <ele>488.2</ele>
        <time>2022-05-24 17:03:04</time>
      </trkpt>
      <trkpt lat="40.82445" lon="0.39407">
        <ele>488.4</ele>
        <time>2022-05-24 17:03:05</time>
      </trkpt>
      <trkpt lat="40.82445" lon="0.39405">
        <ele>488.6</ele>
        <time>2022-05-24 17:03:06</time>
      </trkpt>
      <trkpt lat="40.82444" lon="0.39402">
        <ele>488.6</ele>
        <time>2022-05-24 17:03:07</time>
      </trkpt>
      <trkpt lat="40.82444" lon="0.394">
        <ele>488.8</ele>
        <time>2022-05-24 17:03:08</time>
      </trkpt>
      <trkpt lat="40.82443" lon="0.39398">
        <ele>489</ele>
        <time>2022-05-24 17:03:09</time>
      </trkpt>
      <trkpt lat="40.82442" lon="0.39396">
        <ele>489</ele>
        <time>2022-05-24 17:03:10</time>
      </trkpt>
      <trkpt lat="40.82441" lon="0.39394">
        <ele>489.2</ele>
        <time>2022-05-24 17:03:11</time>
      </trkpt>
      <trkpt lat="40.8244" lon="0.39392">
        <ele>489.4</ele>
        <time>2022-05-24 17:03:12</time>
      </trkpt>
      <trkpt lat="40.82439" lon="0.3939">
        <ele>489.6</ele>
        <time>2022-05-24 17:03:13</time>
      </trkpt>
      <trkpt lat="40.82438" lon="0.39388">
        <ele>489.6</ele>
        <time>2022-05-24 17:03:14</time>
      </trkpt>
      <trkpt lat="40.82436" lon="0.39386">
        <ele>489.8</ele>
        <time>2022-05-24 17:03:15</time>
      </trkpt>
      <trkpt lat="40.82435" lon="0.39384">
        <ele>490</ele>
        <time>2022-05-24 17:03:16</time>
      </trkpt>
      <trkpt lat="40.82434" lon="0.39382">
        <ele>490.2</ele>
        <time>2022-05-24 17:03:17</time>
      </trkpt>
      <trkpt lat="40.82433" lon="0.39379">
        <ele>490.4</ele>
        <time>2022-05-24 17:03:18</time>
      </trkpt>
      <trkpt lat="40.82432" lon="0.39377">
        <ele>490.6</ele>
        <time>2022-05-24 17:03:19</time>
      </trkpt>
      <trkpt lat="40.8243" lon="0.39375">
        <ele>490.8</ele>
        <time>2022-05-24 17:03:20</time>
      </trkpt>
      <trkpt lat="40.82429" lon="0.39374">
        <ele>491</ele>
        <time>2022-05-24 17:03:21</time>
      </trkpt>
      <trkpt lat="40.82428" lon="0.39372">
        <ele>491</ele>
        <time>2022-05-24 17:03:22</time>
      </trkpt>
      <trkpt lat="40.82426" lon="0.3937">
        <ele>491.2</ele>
        <time>2022-05-24 17:03:23</time>
      </trkpt>
      <trkpt lat="40.82425" lon="0.39369">
        <ele>491.6</ele>
        <time>2022-05-24 17:03:24</time>
      </trkpt>
      <trkpt lat="40.82424" lon="0.39367">
        <ele>491.8</ele>
        <time>2022-05-24 17:03:25</time>
      </trkpt>
      <trkpt lat="40.82423" lon="0.39365">
        <ele>492</ele>
        <time>2022-05-24 17:03:26</time>
      </trkpt>
      <trkpt lat="40.82422" lon="0.39363">
        <ele>492</ele>
        <time>2022-05-24 17:03:27</time>
      </trkpt>
      <trkpt lat="40.8242" lon="0.39362">
        <ele>492.2</ele>
        <time>2022-05-24 17:03:28</time>
      </trkpt>
      <trkpt lat="40.82419" lon="0.39361">
        <ele>492.4</ele>
        <time>2022-05-24 17:03:29</time>
      </trkpt>
      <trkpt lat="40.82418" lon="0.39359">
        <ele>492.6</ele>
        <time>2022-05-24 17:03:30</time>
      </trkpt>
      <trkpt lat="40.82417" lon="0.39356">
        <ele>492.8</ele>
        <time>2022-05-24 17:03:31</time>
      </trkpt>
      <trkpt lat="40.82416" lon="0.39354">
        <ele>493</ele>
        <time>2022-05-24 17:03:32</time>
      </trkpt>
      <trkpt lat="40.82415" lon="0.39352">
        <ele>493.2</ele>
        <time>2022-05-24 17:03:33</time>
      </trkpt>
      <trkpt lat="40.82414" lon="0.3935">
        <ele>493.4</ele>
        <time>2022-05-24 17:03:34</time>
      </trkpt>
      <trkpt lat="40.82413" lon="0.39348">
        <ele>493.6</ele>
        <time>2022-05-24 17:03:35</time>
      </trkpt>
      <trkpt lat="40.82412" lon="0.39346">
        <ele>494</ele>
        <time>2022-05-24 17:03:36</time>
      </trkpt>
      <trkpt lat="40.8241" lon="0.39344">
        <ele>494.2</ele>
        <time>2022-05-24 17:03:37</time>
      </trkpt>
      <trkpt lat="40.82409" lon="0.39342">
        <ele>494.4</ele>
        <time>2022-05-24 17:03:38</time>
      </trkpt>
      <trkpt lat="40.82408" lon="0.3934">
        <ele>494.6</ele>
        <time>2022-05-24 17:03:39</time>
      </trkpt>
      <trkpt lat="40.82406" lon="0.39339">
        <ele>494.8</ele>
        <time>2022-05-24 17:03:40</time>
      </trkpt>
      <trkpt lat="40.82405" lon="0.39337">
        <ele>495</ele>
        <time>2022-05-24 17:03:41</time>
      </trkpt>
      <trkpt lat="40.82404" lon="0.39335">
        <ele>495.2</ele>
        <time>2022-05-24 17:03:42</time>
      </trkpt>
      <trkpt lat="40.82402" lon="0.39334">
        <ele>495.4</ele>
        <time>2022-05-24 17:03:43</time>
      </trkpt>
      <trkpt lat="40.82401" lon="0.39332">
        <ele>495.6</ele>
        <time>2022-05-24 17:03:44</time>
      </trkpt>
      <trkpt lat="40.824" lon="0.39331">
        <ele>496</ele>
        <time>2022-05-24 17:03:45</time>
      </trkpt>
      <trkpt lat="40.82399" lon="0.39329">
        <ele>496.2</ele>
        <time>2022-05-24 17:03:46</time>
      </trkpt>
      <trkpt lat="40.82398" lon="0.39328">
        <ele>496.4</ele>
        <time>2022-05-24 17:03:47</time>
      </trkpt>
      <trkpt lat="40.82396" lon="0.39326">
        <ele>496.6</ele>
        <time>2022-05-24 17:03:48</time>
      </trkpt>
      <trkpt lat="40.82395" lon="0.39325">
        <ele>496.8</ele>
        <time>2022-05-24 17:03:49</time>
      </trkpt>
      <trkpt lat="40.82393" lon="0.39323">
        <ele>497.2</ele>
        <time>2022-05-24 17:03:50</time>
      </trkpt>
      <trkpt lat="40.82392" lon="0.39322">
        <ele>497.4</ele>
        <time>2022-05-24 17:03:51</time>
      </trkpt>
      <trkpt lat="40.8239" lon="0.39321">
        <ele>497.6</ele>
        <time>2022-05-24 17:03:52</time>
      </trkpt>
      <trkpt lat="40.82389" lon="0.39319">
        <ele>497.8</ele>
        <time>2022-05-24 17:03:53</time>
      </trkpt>
      <trkpt lat="40.82388" lon="0.39318">
        <ele>498.2</ele>
        <time>2022-05-24 17:03:54</time>
      </trkpt>
      <trkpt lat="40.82387" lon="0.39316">
        <ele>498.4</ele>
        <time>2022-05-24 17:03:55</time>
      </trkpt>
      <trkpt lat="40.82386" lon="0.39315">
        <ele>498.6</ele>
        <time>2022-05-24 17:03:56</time>
      </trkpt>
      <trkpt lat="40.82385" lon="0.39313">
        <ele>498.8</ele>
        <time>2022-05-24 17:03:57</time>
      </trkpt>
      <trkpt lat="40.82384" lon="0.39311">
        <ele>498.6</ele>
        <time>2022-05-24 17:03:58</time>
      </trkpt>
      <trkpt lat="40.82383" lon="0.3931">
        <ele>498.8</ele>
        <time>2022-05-24 17:03:59</time>
      </trkpt>
      <trkpt lat="40.82381" lon="0.39309">
        <ele>499</ele>
        <time>2022-05-24 17:04:00</time>
      </trkpt>
      <trkpt lat="40.8238" lon="0.39307">
        <ele>499.2</ele>
        <time>2022-05-24 17:04:01</time>
      </trkpt>
      <trkpt lat="40.82379" lon="0.39306">
        <ele>499.6</ele>
        <time>2022-05-24 17:04:02</time>
      </trkpt>
      <trkpt lat="40.82378" lon="0.39304">
        <ele>499.8</ele>
        <time>2022-05-24 17:04:03</time>
      </trkpt>
      <trkpt lat="40.82377" lon="0.39303">
        <ele>500</ele>
        <time>2022-05-24 17:04:04</time>
      </trkpt>
      <trkpt lat="40.82376" lon="0.39301">
        <ele>500</ele>
        <time>2022-05-24 17:04:05</time>
      </trkpt>
      <trkpt lat="40.82375" lon="0.393">
        <ele>500.2</ele>
        <time>2022-05-24 17:04:06</time>
      </trkpt>
      <trkpt lat="40.82375" lon="0.39298">
        <ele>500.2</ele>
        <time>2022-05-24 17:04:07</time>
      </trkpt>
      <trkpt lat="40.82374" lon="0.39297">
        <ele>500.4</ele>
        <time>2022-05-24 17:04:08</time>
      </trkpt>
      <trkpt lat="40.82372" lon="0.39295">
        <ele>500.6</ele>
        <time>2022-05-24 17:04:09</time>
      </trkpt>
      <trkpt lat="40.82371" lon="0.39293">
        <ele>500.8</ele>
        <time>2022-05-24 17:04:10</time>
      </trkpt>
      <trkpt lat="40.8237" lon="0.39291">
        <ele>501</ele>
        <time>2022-05-24 17:04:11</time>
      </trkpt>
      <trkpt lat="40.82369" lon="0.3929">
        <ele>501</ele>
        <time>2022-05-24 17:04:12</time>
      </trkpt>
      <trkpt lat="40.82368" lon="0.39288">
        <ele>501</ele>
        <time>2022-05-24 17:04:13</time>
      </trkpt>
      <trkpt lat="40.82368" lon="0.39286">
        <ele>501</ele>
        <time>2022-05-24 17:04:14</time>
      </trkpt>
      <trkpt lat="40.82367" lon="0.39284">
        <ele>501.2</ele>
        <time>2022-05-24 17:04:15</time>
      </trkpt>
      <trkpt lat="40.82366" lon="0.39283">
        <ele>501.6</ele>
        <time>2022-05-24 17:04:16</time>
      </trkpt>
      <trkpt lat="40.82365" lon="0.39281">
        <ele>501.8</ele>
        <time>2022-05-24 17:04:17</time>
      </trkpt>
      <trkpt lat="40.82365" lon="0.39279">
        <ele>501.6</ele>
        <time>2022-05-24 17:04:18</time>
      </trkpt>
      <trkpt lat="40.82364" lon="0.39278">
        <ele>501.8</ele>
        <time>2022-05-24 17:04:19</time>
      </trkpt>
      <trkpt lat="40.82363" lon="0.39276">
        <ele>502</ele>
        <time>2022-05-24 17:04:20</time>
      </trkpt>
      <trkpt lat="40.82362" lon="0.39274">
        <ele>502.4</ele>
        <time>2022-05-24 17:04:21</time>
      </trkpt>
      <trkpt lat="40.82362" lon="0.39272">
        <ele>502.6</ele>
        <time>2022-05-24 17:04:22</time>
      </trkpt>
      <trkpt lat="40.8236" lon="0.39271">
        <ele>502.6</ele>
        <time>2022-05-24 17:04:23</time>
      </trkpt>
      <trkpt lat="40.82359" lon="0.39269">
        <ele>502.8</ele>
        <time>2022-05-24 17:04:24</time>
      </trkpt>
      <trkpt lat="40.82359" lon="0.39268">
        <ele>502.8</ele>
        <time>2022-05-24 17:04:25</time>
      </trkpt>
      <trkpt lat="40.82358" lon="0.39267">
        <ele>503.2</ele>
        <time>2022-05-24 17:04:26</time>
      </trkpt>
      <trkpt lat="40.82357" lon="0.39266">
        <ele>503.6</ele>
        <time>2022-05-24 17:04:27</time>
      </trkpt>
      <trkpt lat="40.82357" lon="0.39264">
        <ele>503.4</ele>
        <time>2022-05-24 17:04:28</time>
      </trkpt>
      <trkpt lat="40.82356" lon="0.39262">
        <ele>503.4</ele>
        <time>2022-05-24 17:04:29</time>
      </trkpt>
      <trkpt lat="40.82356" lon="0.3926">
        <ele>503.8</ele>
        <time>2022-05-24 17:04:30</time>
      </trkpt>
      <trkpt lat="40.82355" lon="0.39258">
        <ele>504.2</ele>
        <time>2022-05-24 17:04:31</time>
      </trkpt>
      <trkpt lat="40.82355" lon="0.39256">
        <ele>504.4</ele>
        <time>2022-05-24 17:04:32</time>
      </trkpt>
      <trkpt lat="40.82354" lon="0.39254">
        <ele>504.4</ele>
        <time>2022-05-24 17:04:33</time>
      </trkpt>
      <trkpt lat="40.82354" lon="0.39252">
        <ele>504.4</ele>
        <time>2022-05-24 17:04:34</time>
      </trkpt>
      <trkpt lat="40.82354" lon="0.39251">
        <ele>504.6</ele>
        <time>2022-05-24 17:04:35</time>
      </trkpt>
      <trkpt lat="40.82354" lon="0.39249">
        <ele>504.8</ele>
        <time>2022-05-24 17:04:36</time>
      </trkpt>
      <trkpt lat="40.82354" lon="0.39247">
        <ele>505</ele>
        <time>2022-05-24 17:04:37</time>
      </trkpt>
      <trkpt lat="40.82353" lon="0.39245">
        <ele>505.2</ele>
        <time>2022-05-24 17:04:38</time>
      </trkpt>
      <trkpt lat="40.82353" lon="0.39244">
        <ele>505.4</ele>
        <time>2022-05-24 17:04:39</time>
      </trkpt>
      <trkpt lat="40.82352" lon="0.39243">
        <ele>505.6</ele>
        <time>2022-05-24 17:04:40</time>
      </trkpt>
      <trkpt lat="40.82352" lon="0.39241">
        <ele>506</ele>
        <time>2022-05-24 17:04:41</time>
      </trkpt>
      <trkpt lat="40.82351" lon="0.39239">
        <ele>506.2</ele>
        <time>2022-05-24 17:04:42</time>
      </trkpt>
      <trkpt lat="40.82351" lon="0.39238">
        <ele>506.4</ele>
        <time>2022-05-24 17:04:43</time>
      </trkpt>
      <trkpt lat="40.82351" lon="0.39236">
        <ele>506.6</ele>
        <time>2022-05-24 17:04:44</time>
      </trkpt>
      <trkpt lat="40.8235" lon="0.39234">
        <ele>506.8</ele>
        <time>2022-05-24 17:04:45</time>
      </trkpt>
      <trkpt lat="40.82349" lon="0.39232">
        <ele>507.4</ele>
        <time>2022-05-24 17:04:46</time>
      </trkpt>
      <trkpt lat="40.82348" lon="0.3923">
        <ele>507.8</ele>
        <time>2022-05-24 17:04:47</time>
      </trkpt>
      <trkpt lat="40.82347" lon="0.39228">
        <ele>508</ele>
        <time>2022-05-24 17:04:48</time>
      </trkpt>
      <trkpt lat="40.82346" lon="0.39226">
        <ele>508.4</ele>
        <time>2022-05-24 17:04:49</time>
      </trkpt>
      <trkpt lat="40.82346" lon="0.39224">
        <ele>508.8</ele>
        <time>2022-05-24 17:04:50</time>
      </trkpt>
      <trkpt lat="40.82346" lon="0.39223">
        <ele>508.8</ele>
        <time>2022-05-24 17:04:51</time>
      </trkpt>
      <trkpt lat="40.82346" lon="0.3922">
        <ele>509</ele>
        <time>2022-05-24 17:04:52</time>
      </trkpt>
      <trkpt lat="40.82345" lon="0.39218">
        <ele>509.2</ele>
        <time>2022-05-24 17:04:53</time>
      </trkpt>
      <trkpt lat="40.82344" lon="0.39216">
        <ele>509.6</ele>
        <time>2022-05-24 17:04:54</time>
      </trkpt>
      <trkpt lat="40.82344" lon="0.39214">
        <ele>509.8</ele>
        <time>2022-05-24 17:04:55</time>
      </trkpt>
      <trkpt lat="40.82343" lon="0.39212">
        <ele>509.8</ele>
        <time>2022-05-24 17:04:56</time>
      </trkpt>
      <trkpt lat="40.82343" lon="0.39211">
        <ele>509.8</ele>
        <time>2022-05-24 17:04:57</time>
      </trkpt>
      <trkpt lat="40.82342" lon="0.3921">
        <ele>509.6</ele>
        <time>2022-05-24 17:04:58</time>
      </trkpt>
      <trkpt lat="40.82341" lon="0.39207">
        <ele>509.8</ele>
        <time>2022-05-24 17:04:59</time>
      </trkpt>
      <trkpt lat="40.8234" lon="0.39205">
        <ele>510</ele>
        <time>2022-05-24 17:05:00</time>
      </trkpt>
      <trkpt lat="40.8234" lon="0.39203">
        <ele>510.2</ele>
        <time>2022-05-24 17:05:01</time>
      </trkpt>
      <trkpt lat="40.82339" lon="0.39202">
        <ele>510.4</ele>
        <time>2022-05-24 17:05:02</time>
      </trkpt>
      <trkpt lat="40.82339" lon="0.392">
        <ele>510.6</ele>
        <time>2022-05-24 17:05:03</time>
      </trkpt>
      <trkpt lat="40.82338" lon="0.39198">
        <ele>510.8</ele>
        <time>2022-05-24 17:05:04</time>
      </trkpt>
      <trkpt lat="40.82338" lon="0.39196">
        <ele>511</ele>
        <time>2022-05-24 17:05:05</time>
      </trkpt>
      <trkpt lat="40.82337" lon="0.39195">
        <ele>511</ele>
        <time>2022-05-24 17:05:06</time>
      </trkpt>
      <trkpt lat="40.82336" lon="0.39193">
        <ele>511</ele>
        <time>2022-05-24 17:05:07</time>
      </trkpt>
      <trkpt lat="40.82335" lon="0.39192">
        <ele>511.2</ele>
        <time>2022-05-24 17:05:08</time>
      </trkpt>
      <trkpt lat="40.82335" lon="0.3919">
        <ele>511.4</ele>
        <time>2022-05-24 17:05:09</time>
      </trkpt>
      <trkpt lat="40.82333" lon="0.39188">
        <ele>511.8</ele>
        <time>2022-05-24 17:05:10</time>
      </trkpt>
      <trkpt lat="40.82333" lon="0.39186">
        <ele>512</ele>
        <time>2022-05-24 17:05:11</time>
      </trkpt>
      <trkpt lat="40.82331" lon="0.39184">
        <ele>512.2</ele>
        <time>2022-05-24 17:05:12</time>
      </trkpt>
      <trkpt lat="40.82331" lon="0.39182">
        <ele>512.4</ele>
        <time>2022-05-24 17:05:13</time>
      </trkpt>
      <trkpt lat="40.8233" lon="0.3918">
        <ele>512.6</ele>
        <time>2022-05-24 17:05:14</time>
      </trkpt>
      <trkpt lat="40.82329" lon="0.39178">
        <ele>513</ele>
        <time>2022-05-24 17:05:15</time>
      </trkpt>
      <trkpt lat="40.82328" lon="0.39176">
        <ele>513.2</ele>
        <time>2022-05-24 17:05:16</time>
      </trkpt>
      <trkpt lat="40.82327" lon="0.39174">
        <ele>513.4</ele>
        <time>2022-05-24 17:05:17</time>
      </trkpt>
      <trkpt lat="40.82326" lon="0.39173">
        <ele>513.6</ele>
        <time>2022-05-24 17:05:18</time>
      </trkpt>
      <trkpt lat="40.82325" lon="0.3917">
        <ele>514</ele>
        <time>2022-05-24 17:05:19</time>
      </trkpt>
      <trkpt lat="40.82323" lon="0.39168">
        <ele>514.2</ele>
        <time>2022-05-24 17:05:20</time>
      </trkpt>
      <trkpt lat="40.82322" lon="0.39167">
        <ele>514.6</ele>
        <time>2022-05-24 17:05:21</time>
      </trkpt>
      <trkpt lat="40.82321" lon="0.39165">
        <ele>514.8</ele>
        <time>2022-05-24 17:05:22</time>
      </trkpt>
      <trkpt lat="40.8232" lon="0.39163">
        <ele>515</ele>
        <time>2022-05-24 17:05:23</time>
      </trkpt>
      <trkpt lat="40.82319" lon="0.39162">
        <ele>515.2</ele>
        <time>2022-05-24 17:05:24</time>
      </trkpt>
      <trkpt lat="40.82318" lon="0.39161">
        <ele>515.6</ele>
        <time>2022-05-24 17:05:25</time>
      </trkpt>
      <trkpt lat="40.82317" lon="0.39159">
        <ele>515.8</ele>
        <time>2022-05-24 17:05:26</time>
      </trkpt>
      <trkpt lat="40.82316" lon="0.39157">
        <ele>516.2</ele>
        <time>2022-05-24 17:05:27</time>
      </trkpt>
      <trkpt lat="40.82315" lon="0.39155">
        <ele>516.4</ele>
        <time>2022-05-24 17:05:28</time>
      </trkpt>
      <trkpt lat="40.82314" lon="0.39153">
        <ele>516.4</ele>
        <time>2022-05-24 17:05:29</time>
      </trkpt>
      <trkpt lat="40.82313" lon="0.39152">
        <ele>516.6</ele>
        <time>2022-05-24 17:05:30</time>
      </trkpt>
      <trkpt lat="40.82312" lon="0.3915">
        <ele>516.8</ele>
        <time>2022-05-24 17:05:31</time>
      </trkpt>
      <trkpt lat="40.82311" lon="0.39148">
        <ele>517</ele>
        <time>2022-05-24 17:05:32</time>
      </trkpt>
      <trkpt lat="40.8231" lon="0.39146">
        <ele>517.2</ele>
        <time>2022-05-24 17:05:33</time>
      </trkpt>
      <trkpt lat="40.8231" lon="0.39143">
        <ele>517.4</ele>
        <time>2022-05-24 17:05:34</time>
      </trkpt>
      <trkpt lat="40.82309" lon="0.39141">
        <ele>517.6</ele>
        <time>2022-05-24 17:05:35</time>
      </trkpt>
      <trkpt lat="40.82308" lon="0.3914">
        <ele>517.6</ele>
        <time>2022-05-24 17:05:36</time>
      </trkpt>
      <trkpt lat="40.82308" lon="0.39138">
        <ele>517.8</ele>
        <time>2022-05-24 17:05:37</time>
      </trkpt>
      <trkpt lat="40.82307" lon="0.39136">
        <ele>517.8</ele>
        <time>2022-05-24 17:05:38</time>
      </trkpt>
      <trkpt lat="40.82307" lon="0.39134">
        <ele>518</ele>
        <time>2022-05-24 17:05:39</time>
      </trkpt>
      <trkpt lat="40.82306" lon="0.39132">
        <ele>518.4</ele>
        <time>2022-05-24 17:05:40</time>
      </trkpt>
      <trkpt lat="40.82306" lon="0.3913">
        <ele>518.4</ele>
        <time>2022-05-24 17:05:41</time>
      </trkpt>
      <trkpt lat="40.82306" lon="0.39128">
        <ele>518.6</ele>
        <time>2022-05-24 17:05:42</time>
      </trkpt>
      <trkpt lat="40.82306" lon="0.39126">
        <ele>518.6</ele>
        <time>2022-05-24 17:05:43</time>
      </trkpt>
      <trkpt lat="40.82306" lon="0.39124">
        <ele>518.8</ele>
        <time>2022-05-24 17:05:44</time>
      </trkpt>
      <trkpt lat="40.82306" lon="0.39122">
        <ele>519</ele>
        <time>2022-05-24 17:05:45</time>
      </trkpt>
      <trkpt lat="40.82306" lon="0.3912">
        <ele>519.2</ele>
        <time>2022-05-24 17:05:46</time>
      </trkpt>
      <trkpt lat="40.82306" lon="0.39118">
        <ele>519.4</ele>
        <time>2022-05-24 17:05:47</time>
      </trkpt>
      <trkpt lat="40.82307" lon="0.39116">
        <ele>519.6</ele>
        <time>2022-05-24 17:05:48</time>
      </trkpt>
      <trkpt lat="40.82307" lon="0.39114">
        <ele>519.8</ele>
        <time>2022-05-24 17:05:49</time>
      </trkpt>
      <trkpt lat="40.82307" lon="0.39113">
        <ele>520</ele>
        <time>2022-05-24 17:05:50</time>
      </trkpt>
      <trkpt lat="40.82307" lon="0.39111">
        <ele>520.2</ele>
        <time>2022-05-24 17:05:51</time>
      </trkpt>
      <trkpt lat="40.82308" lon="0.39109">
        <ele>520.2</ele>
        <time>2022-05-24 17:05:52</time>
      </trkpt>
      <trkpt lat="40.82308" lon="0.39107">
        <ele>520.4</ele>
        <time>2022-05-24 17:05:53</time>
      </trkpt>
      <trkpt lat="40.82309" lon="0.39105">
        <ele>520.4</ele>
        <time>2022-05-24 17:05:54</time>
      </trkpt>
      <trkpt lat="40.82309" lon="0.39103">
        <ele>520.6</ele>
        <time>2022-05-24 17:05:55</time>
      </trkpt>
      <trkpt lat="40.8231" lon="0.39101">
        <ele>520.8</ele>
        <time>2022-05-24 17:05:56</time>
      </trkpt>
      <trkpt lat="40.82312" lon="0.391">
        <ele>520.8</ele>
        <time>2022-05-24 17:05:57</time>
      </trkpt>
      <trkpt lat="40.82313" lon="0.39099">
        <ele>521.2</ele>
        <time>2022-05-24 17:05:58</time>
      </trkpt>
      <trkpt lat="40.82315" lon="0.39097">
        <ele>521.2</ele>
        <time>2022-05-24 17:05:59</time>
      </trkpt>
      <trkpt lat="40.82317" lon="0.39096">
        <ele>521.2</ele>
        <time>2022-05-24 17:06:00</time>
      </trkpt>
      <trkpt lat="40.82318" lon="0.39095">
        <ele>521.4</ele>
        <time>2022-05-24 17:06:01</time>
      </trkpt>
      <trkpt lat="40.8232" lon="0.39094">
        <ele>521.4</ele>
        <time>2022-05-24 17:06:02</time>
      </trkpt>
      <trkpt lat="40.82322" lon="0.39093">
        <ele>521.4</ele>
        <time>2022-05-24 17:06:03</time>
      </trkpt>
      <trkpt lat="40.82324" lon="0.39091">
        <ele>521.6</ele>
        <time>2022-05-24 17:06:04</time>
      </trkpt>
      <trkpt lat="40.82325" lon="0.3909">
        <ele>521.8</ele>
        <time>2022-05-24 17:06:05</time>
      </trkpt>
      <trkpt lat="40.82327" lon="0.39089">
        <ele>521.8</ele>
        <time>2022-05-24 17:06:06</time>
      </trkpt>
      <trkpt lat="40.82328" lon="0.39087">
        <ele>522</ele>
        <time>2022-05-24 17:06:07</time>
      </trkpt>
      <trkpt lat="40.82329" lon="0.39086">
        <ele>522.2</ele>
        <time>2022-05-24 17:06:08</time>
      </trkpt>
      <trkpt lat="40.82331" lon="0.39085">
        <ele>522.2</ele>
        <time>2022-05-24 17:06:09</time>
      </trkpt>
      <trkpt lat="40.82332" lon="0.39084">
        <ele>522.4</ele>
        <time>2022-05-24 17:06:10</time>
      </trkpt>
      <trkpt lat="40.82334" lon="0.39082">
        <ele>522.6</ele>
        <time>2022-05-24 17:06:11</time>
      </trkpt>
      <trkpt lat="40.82335" lon="0.39081">
        <ele>522.8</ele>
        <time>2022-05-24 17:06:12</time>
      </trkpt>
      <trkpt lat="40.82336" lon="0.3908">
        <ele>523</ele>
        <time>2022-05-24 17:06:13</time>
      </trkpt>
      <trkpt lat="40.82338" lon="0.39079">
        <ele>523.2</ele>
        <time>2022-05-24 17:06:14</time>
      </trkpt>
      <trkpt lat="40.82339" lon="0.39078">
        <ele>523.2</ele>
        <time>2022-05-24 17:06:15</time>
      </trkpt>
      <trkpt lat="40.8234" lon="0.39077">
        <ele>523.4</ele>
        <time>2022-05-24 17:06:16</time>
      </trkpt>
      <trkpt lat="40.82342" lon="0.39076">
        <ele>523.6</ele>
        <time>2022-05-24 17:06:17</time>
      </trkpt>
      <trkpt lat="40.82344" lon="0.39075">
        <ele>523.8</ele>
        <time>2022-05-24 17:06:18</time>
      </trkpt>
      <trkpt lat="40.82345" lon="0.39074">
        <ele>524</ele>
        <time>2022-05-24 17:06:19</time>
      </trkpt>
      <trkpt lat="40.82347" lon="0.39073">
        <ele>524.2</ele>
        <time>2022-05-24 17:06:20</time>
      </trkpt>
      <trkpt lat="40.82348" lon="0.39072">
        <ele>524.4</ele>
        <time>2022-05-24 17:06:21</time>
      </trkpt>
      <trkpt lat="40.82349" lon="0.39071">
        <ele>524.6</ele>
        <time>2022-05-24 17:06:22</time>
      </trkpt>
      <trkpt lat="40.82351" lon="0.39069">
        <ele>524.8</ele>
        <time>2022-05-24 17:06:23</time>
      </trkpt>
      <trkpt lat="40.82353" lon="0.39068">
        <ele>525.2</ele>
        <time>2022-05-24 17:06:24</time>
      </trkpt>
      <trkpt lat="40.82354" lon="0.39067">
        <ele>525.4</ele>
        <time>2022-05-24 17:06:25</time>
      </trkpt>
      <trkpt lat="40.82355" lon="0.39065">
        <ele>525.6</ele>
        <time>2022-05-24 17:06:26</time>
      </trkpt>
      <trkpt lat="40.82357" lon="0.39064">
        <ele>526</ele>
        <time>2022-05-24 17:06:27</time>
      </trkpt>
      <trkpt lat="40.82359" lon="0.39062">
        <ele>526.2</ele>
        <time>2022-05-24 17:06:28</time>
      </trkpt>
      <trkpt lat="40.8236" lon="0.39061">
        <ele>526.4</ele>
        <time>2022-05-24 17:06:29</time>
      </trkpt>
      <trkpt lat="40.82361" lon="0.39059">
        <ele>526.6</ele>
        <time>2022-05-24 17:06:30</time>
      </trkpt>
      <trkpt lat="40.82362" lon="0.39058">
        <ele>526.8</ele>
        <time>2022-05-24 17:06:31</time>
      </trkpt>
      <trkpt lat="40.82364" lon="0.39056">
        <ele>527</ele>
        <time>2022-05-24 17:06:32</time>
      </trkpt>
      <trkpt lat="40.82365" lon="0.39054">
        <ele>527.2</ele>
        <time>2022-05-24 17:06:33</time>
      </trkpt>
      <trkpt lat="40.82366" lon="0.39051">
        <ele>527.4</ele>
        <time>2022-05-24 17:06:34</time>
      </trkpt>
      <trkpt lat="40.82367" lon="0.39049">
        <ele>527.6</ele>
        <time>2022-05-24 17:06:35</time>
      </trkpt>
      <trkpt lat="40.82367" lon="0.39047">
        <ele>528</ele>
        <time>2022-05-24 17:06:36</time>
      </trkpt>
      <trkpt lat="40.82368" lon="0.39044">
        <ele>528.2</ele>
        <time>2022-05-24 17:06:37</time>
      </trkpt>
      <trkpt lat="40.82368" lon="0.39042">
        <ele>528.4</ele>
        <time>2022-05-24 17:06:38</time>
      </trkpt>
      <trkpt lat="40.82368" lon="0.39039">
        <ele>528.6</ele>
        <time>2022-05-24 17:06:39</time>
      </trkpt>
      <trkpt lat="40.82367" lon="0.39037">
        <ele>529</ele>
        <time>2022-05-24 17:06:40</time>
      </trkpt>
      <trkpt lat="40.82367" lon="0.39034">
        <ele>529.2</ele>
        <time>2022-05-24 17:06:41</time>
      </trkpt>
      <trkpt lat="40.82367" lon="0.39032">
        <ele>529.4</ele>
        <time>2022-05-24 17:06:42</time>
      </trkpt>
      <trkpt lat="40.82366" lon="0.3903">
        <ele>529.6</ele>
        <time>2022-05-24 17:06:43</time>
      </trkpt>
      <trkpt lat="40.82365" lon="0.39028">
        <ele>529.8</ele>
        <time>2022-05-24 17:06:44</time>
      </trkpt>
      <trkpt lat="40.82365" lon="0.39026">
        <ele>529.8</ele>
        <time>2022-05-24 17:06:45</time>
      </trkpt>
      <trkpt lat="40.82364" lon="0.39025">
        <ele>530</ele>
        <time>2022-05-24 17:06:46</time>
      </trkpt>
      <trkpt lat="40.82362" lon="0.39023">
        <ele>530.2</ele>
        <time>2022-05-24 17:06:47</time>
      </trkpt>
      <trkpt lat="40.82362" lon="0.39021">
        <ele>530.6</ele>
        <time>2022-05-24 17:06:48</time>
      </trkpt>
      <trkpt lat="40.8236" lon="0.3902">
        <ele>530.8</ele>
        <time>2022-05-24 17:06:49</time>
      </trkpt>
      <trkpt lat="40.82359" lon="0.39018">
        <ele>531</ele>
        <time>2022-05-24 17:06:50</time>
      </trkpt>
      <trkpt lat="40.82358" lon="0.39016">
        <ele>531.2</ele>
        <time>2022-05-24 17:06:51</time>
      </trkpt>
      <trkpt lat="40.82357" lon="0.39015">
        <ele>531.2</ele>
        <time>2022-05-24 17:06:52</time>
      </trkpt>
      <trkpt lat="40.82355" lon="0.39013">
        <ele>531.6</ele>
        <time>2022-05-24 17:06:53</time>
      </trkpt>
      <trkpt lat="40.82354" lon="0.39012">
        <ele>531.8</ele>
        <time>2022-05-24 17:06:54</time>
      </trkpt>
      <trkpt lat="40.82353" lon="0.39011">
        <ele>532</ele>
        <time>2022-05-24 17:06:55</time>
      </trkpt>
      <trkpt lat="40.82352" lon="0.3901">
        <ele>532.2</ele>
        <time>2022-05-24 17:06:56</time>
      </trkpt>
      <trkpt lat="40.8235" lon="0.39009">
        <ele>532.4</ele>
        <time>2022-05-24 17:06:57</time>
      </trkpt>
      <trkpt lat="40.82349" lon="0.39008">
        <ele>532.6</ele>
        <time>2022-05-24 17:06:58</time>
      </trkpt>
      <trkpt lat="40.82347" lon="0.39007">
        <ele>532.8</ele>
        <time>2022-05-24 17:06:59</time>
      </trkpt>
      <trkpt lat="40.82346" lon="0.39006">
        <ele>533</ele>
        <time>2022-05-24 17:07:00</time>
      </trkpt>
      <trkpt lat="40.82345" lon="0.39005">
        <ele>533.2</ele>
        <time>2022-05-24 17:07:01</time>
      </trkpt>
      <trkpt lat="40.82344" lon="0.39005">
        <ele>533.4</ele>
        <time>2022-05-24 17:07:02</time>
      </trkpt>
      <trkpt lat="40.82343" lon="0.39004">
        <ele>533.6</ele>
        <time>2022-05-24 17:07:03</time>
      </trkpt>
      <trkpt lat="40.82341" lon="0.39003">
        <ele>533.8</ele>
        <time>2022-05-24 17:07:04</time>
      </trkpt>
      <trkpt lat="40.8234" lon="0.39002">
        <ele>533.6</ele>
        <time>2022-05-24 17:07:05</time>
      </trkpt>
      <trkpt lat="40.82339" lon="0.39001">
        <ele>533.6</ele>
        <time>2022-05-24 17:07:06</time>
      </trkpt>
      <trkpt lat="40.82338" lon="0.38999">
        <ele>533.8</ele>
        <time>2022-05-24 17:07:07</time>
      </trkpt>
      <trkpt lat="40.82336" lon="0.38998">
        <ele>534</ele>
        <time>2022-05-24 17:07:08</time>
      </trkpt>
      <trkpt lat="40.82335" lon="0.38997">
        <ele>534</ele>
        <time>2022-05-24 17:07:09</time>
      </trkpt>
      <trkpt lat="40.82333" lon="0.38996">
        <ele>534.2</ele>
        <time>2022-05-24 17:07:10</time>
      </trkpt>
      <trkpt lat="40.82331" lon="0.38995">
        <ele>534.2</ele>
        <time>2022-05-24 17:07:11</time>
      </trkpt>
      <trkpt lat="40.8233" lon="0.38993">
        <ele>534.2</ele>
        <time>2022-05-24 17:07:12</time>
      </trkpt>
      <trkpt lat="40.82329" lon="0.38992">
        <ele>534.4</ele>
        <time>2022-05-24 17:07:13</time>
      </trkpt>
      <trkpt lat="40.82328" lon="0.38992">
        <ele>534.8</ele>
        <time>2022-05-24 17:07:14</time>
      </trkpt>
      <trkpt lat="40.82328" lon="0.38991">
        <ele>535</ele>
        <time>2022-05-24 17:07:15</time>
      </trkpt>
      <trkpt lat="40.82327" lon="0.38989">
        <ele>535.2</ele>
        <time>2022-05-24 17:07:16</time>
      </trkpt>
      <trkpt lat="40.82325" lon="0.38987">
        <ele>535.2</ele>
        <time>2022-05-24 17:07:17</time>
      </trkpt>
      <trkpt lat="40.82323" lon="0.38985">
        <ele>535.4</ele>
        <time>2022-05-24 17:07:18</time>
      </trkpt>
      <trkpt lat="40.82322" lon="0.38983">
        <ele>535.6</ele>
        <time>2022-05-24 17:07:19</time>
      </trkpt>
      <trkpt lat="40.82321" lon="0.38981">
        <ele>535.8</ele>
        <time>2022-05-24 17:07:20</time>
      </trkpt>
      <trkpt lat="40.8232" lon="0.38979">
        <ele>536.2</ele>
        <time>2022-05-24 17:07:21</time>
      </trkpt>
      <trkpt lat="40.8232" lon="0.38976">
        <ele>536.4</ele>
        <time>2022-05-24 17:07:22</time>
      </trkpt>
      <trkpt lat="40.8232" lon="0.38974">
        <ele>536.8</ele>
        <time>2022-05-24 17:07:23</time>
      </trkpt>
      <trkpt lat="40.8232" lon="0.38972">
        <ele>537</ele>
        <time>2022-05-24 17:07:24</time>
      </trkpt>
      <trkpt lat="40.82319" lon="0.38971">
        <ele>537.2</ele>
        <time>2022-05-24 17:07:25</time>
      </trkpt>
      <trkpt lat="40.82318" lon="0.38969">
        <ele>537.4</ele>
        <time>2022-05-24 17:07:26</time>
      </trkpt>
      <trkpt lat="40.82318" lon="0.38967">
        <ele>537.8</ele>
        <time>2022-05-24 17:07:27</time>
      </trkpt>
      <trkpt lat="40.82318" lon="0.38966">
        <ele>538</ele>
        <time>2022-05-24 17:07:28</time>
      </trkpt>
      <trkpt lat="40.82317" lon="0.38964">
        <ele>538.4</ele>
        <time>2022-05-24 17:07:29</time>
      </trkpt>
      <trkpt lat="40.82317" lon="0.38963">
        <ele>538.8</ele>
        <time>2022-05-24 17:07:30</time>
      </trkpt>
      <trkpt lat="40.82316" lon="0.38961">
        <ele>539</ele>
        <time>2022-05-24 17:07:31</time>
      </trkpt>
      <trkpt lat="40.82316" lon="0.38959">
        <ele>539.4</ele>
        <time>2022-05-24 17:07:32</time>
      </trkpt>
      <trkpt lat="40.82316" lon="0.38957">
        <ele>539.6</ele>
        <time>2022-05-24 17:07:33</time>
      </trkpt>
      <trkpt lat="40.82316" lon="0.38955">
        <ele>539.8</ele>
        <time>2022-05-24 17:07:34</time>
      </trkpt>
      <trkpt lat="40.82317" lon="0.38954">
        <ele>540</ele>
        <time>2022-05-24 17:07:35</time>
      </trkpt>
      <trkpt lat="40.82317" lon="0.38952">
        <ele>540.2</ele>
        <time>2022-05-24 17:07:36</time>
      </trkpt>
      <trkpt lat="40.82317" lon="0.3895">
        <ele>540.4</ele>
        <time>2022-05-24 17:07:37</time>
      </trkpt>
      <trkpt lat="40.82316" lon="0.38948">
        <ele>540.6</ele>
        <time>2022-05-24 17:07:38</time>
      </trkpt>
      <trkpt lat="40.82316" lon="0.38946">
        <ele>540.8</ele>
        <time>2022-05-24 17:07:39</time>
      </trkpt>
      <trkpt lat="40.82316" lon="0.38944">
        <ele>541</ele>
        <time>2022-05-24 17:07:40</time>
      </trkpt>
      <trkpt lat="40.82317" lon="0.38942">
        <ele>541.2</ele>
        <time>2022-05-24 17:07:41</time>
      </trkpt>
      <trkpt lat="40.82317" lon="0.3894">
        <ele>541.4</ele>
        <time>2022-05-24 17:07:42</time>
      </trkpt>
      <trkpt lat="40.82317" lon="0.38938">
        <ele>541.6</ele>
        <time>2022-05-24 17:07:43</time>
      </trkpt>
      <trkpt lat="40.82317" lon="0.38936">
        <ele>541.6</ele>
        <time>2022-05-24 17:07:44</time>
      </trkpt>
      <trkpt lat="40.82317" lon="0.38934">
        <ele>541.6</ele>
        <time>2022-05-24 17:07:45</time>
      </trkpt>
      <trkpt lat="40.82317" lon="0.38932">
        <ele>541.8</ele>
        <time>2022-05-24 17:07:46</time>
      </trkpt>
      <trkpt lat="40.82317" lon="0.3893">
        <ele>541.8</ele>
        <time>2022-05-24 17:07:47</time>
      </trkpt>
      <trkpt lat="40.82317" lon="0.38928">
        <ele>542</ele>
        <time>2022-05-24 17:07:48</time>
      </trkpt>
      <trkpt lat="40.82317" lon="0.38926">
        <ele>542.2</ele>
        <time>2022-05-24 17:07:49</time>
      </trkpt>
      <trkpt lat="40.82317" lon="0.38924">
        <ele>542.6</ele>
        <time>2022-05-24 17:07:50</time>
      </trkpt>
      <trkpt lat="40.82317" lon="0.38922">
        <ele>542.8</ele>
        <time>2022-05-24 17:07:51</time>
      </trkpt>
      <trkpt lat="40.82317" lon="0.3892">
        <ele>543</ele>
        <time>2022-05-24 17:07:52</time>
      </trkpt>
      <trkpt lat="40.82316" lon="0.38918">
        <ele>543.2</ele>
        <time>2022-05-24 17:07:53</time>
      </trkpt>
      <trkpt lat="40.82315" lon="0.38916">
        <ele>543.4</ele>
        <time>2022-05-24 17:07:54</time>
      </trkpt>
      <trkpt lat="40.82315" lon="0.38914">
        <ele>543.6</ele>
        <time>2022-05-24 17:07:55</time>
      </trkpt>
      <trkpt lat="40.82314" lon="0.38912">
        <ele>543.8</ele>
        <time>2022-05-24 17:07:56</time>
      </trkpt>
      <trkpt lat="40.82313" lon="0.3891">
        <ele>544</ele>
        <time>2022-05-24 17:07:57</time>
      </trkpt>
      <trkpt lat="40.82313" lon="0.38908">
        <ele>544.2</ele>
        <time>2022-05-24 17:07:58</time>
      </trkpt>
      <trkpt lat="40.82312" lon="0.38906">
        <ele>544.2</ele>
        <time>2022-05-24 17:07:59</time>
      </trkpt>
      <trkpt lat="40.82311" lon="0.38905">
        <ele>544.4</ele>
        <time>2022-05-24 17:08:00</time>
      </trkpt>
      <trkpt lat="40.8231" lon="0.38903">
        <ele>544.6</ele>
        <time>2022-05-24 17:08:01</time>
      </trkpt>
      <trkpt lat="40.82309" lon="0.38901">
        <ele>544.8</ele>
        <time>2022-05-24 17:08:02</time>
      </trkpt>
      <trkpt lat="40.82308" lon="0.389">
        <ele>545</ele>
        <time>2022-05-24 17:08:03</time>
      </trkpt>
      <trkpt lat="40.82307" lon="0.38899">
        <ele>545.2</ele>
        <time>2022-05-24 17:08:04</time>
      </trkpt>
      <trkpt lat="40.82306" lon="0.38897">
        <ele>545.4</ele>
        <time>2022-05-24 17:08:05</time>
      </trkpt>
      <trkpt lat="40.82305" lon="0.38896">
        <ele>545.6</ele>
        <time>2022-05-24 17:08:06</time>
      </trkpt>
      <trkpt lat="40.82303" lon="0.38895">
        <ele>545.8</ele>
        <time>2022-05-24 17:08:07</time>
      </trkpt>
      <trkpt lat="40.82302" lon="0.38894">
        <ele>546</ele>
        <time>2022-05-24 17:08:08</time>
      </trkpt>
      <trkpt lat="40.82301" lon="0.38893">
        <ele>546.2</ele>
        <time>2022-05-24 17:08:09</time>
      </trkpt>
      <trkpt lat="40.82299" lon="0.38893">
        <ele>546.4</ele>
        <time>2022-05-24 17:08:10</time>
      </trkpt>
      <trkpt lat="40.82298" lon="0.38892">
        <ele>546.6</ele>
        <time>2022-05-24 17:08:11</time>
      </trkpt>
      <trkpt lat="40.82296" lon="0.38891">
        <ele>546.8</ele>
        <time>2022-05-24 17:08:12</time>
      </trkpt>
      <trkpt lat="40.82295" lon="0.3889">
        <ele>547</ele>
        <time>2022-05-24 17:08:13</time>
      </trkpt>
      <trkpt lat="40.82294" lon="0.38889">
        <ele>547.2</ele>
        <time>2022-05-24 17:08:14</time>
      </trkpt>
      <trkpt lat="40.82293" lon="0.38888">
        <ele>547.4</ele>
        <time>2022-05-24 17:08:15</time>
      </trkpt>
      <trkpt lat="40.82292" lon="0.38888">
        <ele>547.6</ele>
        <time>2022-05-24 17:08:16</time>
      </trkpt>
      <trkpt lat="40.82291" lon="0.38887">
        <ele>547.6</ele>
        <time>2022-05-24 17:08:17</time>
      </trkpt>
      <trkpt lat="40.82289" lon="0.38886">
        <ele>547.8</ele>
        <time>2022-05-24 17:08:18</time>
      </trkpt>
      <trkpt lat="40.82287" lon="0.38884">
        <ele>548</ele>
        <time>2022-05-24 17:08:19</time>
      </trkpt>
      <trkpt lat="40.82286" lon="0.38883">
        <ele>548.2</ele>
        <time>2022-05-24 17:08:20</time>
      </trkpt>
      <trkpt lat="40.82285" lon="0.38881">
        <ele>548.4</ele>
        <time>2022-05-24 17:08:21</time>
      </trkpt>
      <trkpt lat="40.82283" lon="0.3888">
        <ele>548.4</ele>
        <time>2022-05-24 17:08:22</time>
      </trkpt>
      <trkpt lat="40.82281" lon="0.38879">
        <ele>548.6</ele>
        <time>2022-05-24 17:08:23</time>
      </trkpt>
      <trkpt lat="40.8228" lon="0.38877">
        <ele>548.8</ele>
        <time>2022-05-24 17:08:24</time>
      </trkpt>
      <trkpt lat="40.82279" lon="0.38875">
        <ele>549</ele>
        <time>2022-05-24 17:08:25</time>
      </trkpt>
      <trkpt lat="40.82278" lon="0.38873">
        <ele>549</ele>
        <time>2022-05-24 17:08:26</time>
      </trkpt>
      <trkpt lat="40.82277" lon="0.38872">
        <ele>549</ele>
        <time>2022-05-24 17:08:27</time>
      </trkpt>
      <trkpt lat="40.82277" lon="0.3887">
        <ele>549.2</ele>
        <time>2022-05-24 17:08:28</time>
      </trkpt>
      <trkpt lat="40.82276" lon="0.38868">
        <ele>549.2</ele>
        <time>2022-05-24 17:08:29</time>
      </trkpt>
      <trkpt lat="40.82275" lon="0.38865">
        <ele>549.4</ele>
        <time>2022-05-24 17:08:30</time>
      </trkpt>
      <trkpt lat="40.82275" lon="0.38863">
        <ele>549.6</ele>
        <time>2022-05-24 17:08:31</time>
      </trkpt>
      <trkpt lat="40.82274" lon="0.38861">
        <ele>549.8</ele>
        <time>2022-05-24 17:08:32</time>
      </trkpt>
      <trkpt lat="40.82274" lon="0.38858">
        <ele>550</ele>
        <time>2022-05-24 17:08:33</time>
      </trkpt>
      <trkpt lat="40.82274" lon="0.38856">
        <ele>550.2</ele>
        <time>2022-05-24 17:08:34</time>
      </trkpt>
      <trkpt lat="40.82274" lon="0.38853">
        <ele>550.6</ele>
        <time>2022-05-24 17:08:35</time>
      </trkpt>
      <trkpt lat="40.82275" lon="0.38851">
        <ele>550.8</ele>
        <time>2022-05-24 17:08:36</time>
      </trkpt>
      <trkpt lat="40.82275" lon="0.38849">
        <ele>551</ele>
        <time>2022-05-24 17:08:37</time>
      </trkpt>
      <trkpt lat="40.82275" lon="0.38847">
        <ele>551.2</ele>
        <time>2022-05-24 17:08:38</time>
      </trkpt>
      <trkpt lat="40.82276" lon="0.38845">
        <ele>551.4</ele>
        <time>2022-05-24 17:08:39</time>
      </trkpt>
      <trkpt lat="40.82277" lon="0.38843">
        <ele>551.6</ele>
        <time>2022-05-24 17:08:40</time>
      </trkpt>
      <trkpt lat="40.82277" lon="0.38841">
        <ele>551.8</ele>
        <time>2022-05-24 17:08:41</time>
      </trkpt>
      <trkpt lat="40.82278" lon="0.38839">
        <ele>552</ele>
        <time>2022-05-24 17:08:42</time>
      </trkpt>
      <trkpt lat="40.82278" lon="0.38837">
        <ele>552.4</ele>
        <time>2022-05-24 17:08:43</time>
      </trkpt>
      <trkpt lat="40.82278" lon="0.38835">
        <ele>552.6</ele>
        <time>2022-05-24 17:08:44</time>
      </trkpt>
      <trkpt lat="40.82278" lon="0.38832">
        <ele>553</ele>
        <time>2022-05-24 17:08:45</time>
      </trkpt>
      <trkpt lat="40.82278" lon="0.3883">
        <ele>553.2</ele>
        <time>2022-05-24 17:08:46</time>
      </trkpt>
      <trkpt lat="40.82278" lon="0.38827">
        <ele>553.4</ele>
        <time>2022-05-24 17:08:47</time>
      </trkpt>
      <trkpt lat="40.82278" lon="0.38825">
        <ele>553.8</ele>
        <time>2022-05-24 17:08:48</time>
      </trkpt>
      <trkpt lat="40.82277" lon="0.38822">
        <ele>554</ele>
        <time>2022-05-24 17:08:49</time>
      </trkpt>
      <trkpt lat="40.82277" lon="0.3882">
        <ele>554.4</ele>
        <time>2022-05-24 17:08:50</time>
      </trkpt>
      <trkpt lat="40.82277" lon="0.38818">
        <ele>554.6</ele>
        <time>2022-05-24 17:08:51</time>
      </trkpt>
      <trkpt lat="40.82277" lon="0.38816">
        <ele>554.8</ele>
        <time>2022-05-24 17:08:52</time>
      </trkpt>
      <trkpt lat="40.82277" lon="0.38814">
        <ele>555</ele>
        <time>2022-05-24 17:08:53</time>
      </trkpt>
      <trkpt lat="40.82277" lon="0.38812">
        <ele>555.2</ele>
        <time>2022-05-24 17:08:54</time>
      </trkpt>
      <trkpt lat="40.82277" lon="0.3881">
        <ele>555.4</ele>
        <time>2022-05-24 17:08:55</time>
      </trkpt>
      <trkpt lat="40.82277" lon="0.38809">
        <ele>555.6</ele>
        <time>2022-05-24 17:08:56</time>
      </trkpt>
      <trkpt lat="40.82277" lon="0.38807">
        <ele>555.8</ele>
        <time>2022-05-24 17:08:57</time>
      </trkpt>
      <trkpt lat="40.82277" lon="0.38806">
        <ele>556</ele>
        <time>2022-05-24 17:08:58</time>
      </trkpt>
      <trkpt lat="40.82277" lon="0.38804">
        <ele>556.2</ele>
        <time>2022-05-24 17:08:59</time>
      </trkpt>
      <trkpt lat="40.82276" lon="0.38801">
        <ele>556.2</ele>
        <time>2022-05-24 17:09:00</time>
      </trkpt>
      <trkpt lat="40.82276" lon="0.38799">
        <ele>556.4</ele>
        <time>2022-05-24 17:09:01</time>
      </trkpt>
      <trkpt lat="40.82275" lon="0.38797">
        <ele>556.6</ele>
        <time>2022-05-24 17:09:02</time>
      </trkpt>
      <trkpt lat="40.82275" lon="0.38795">
        <ele>556.6</ele>
        <time>2022-05-24 17:09:03</time>
      </trkpt>
      <trkpt lat="40.82275" lon="0.38793">
        <ele>556.8</ele>
        <time>2022-05-24 17:09:04</time>
      </trkpt>
      <trkpt lat="40.82274" lon="0.3879">
        <ele>556.8</ele>
        <time>2022-05-24 17:09:05</time>
      </trkpt>
      <trkpt lat="40.82274" lon="0.38788">
        <ele>557</ele>
        <time>2022-05-24 17:09:06</time>
      </trkpt>
      <trkpt lat="40.82273" lon="0.38786">
        <ele>557</ele>
        <time>2022-05-24 17:09:07</time>
      </trkpt>
      <trkpt lat="40.82273" lon="0.38784">
        <ele>557.2</ele>
        <time>2022-05-24 17:09:08</time>
      </trkpt>
      <trkpt lat="40.82273" lon="0.38782">
        <ele>557.2</ele>
        <time>2022-05-24 17:09:09</time>
      </trkpt>
      <trkpt lat="40.82273" lon="0.38779">
        <ele>557.4</ele>
        <time>2022-05-24 17:09:10</time>
      </trkpt>
      <trkpt lat="40.82272" lon="0.38777">
        <ele>557.4</ele>
        <time>2022-05-24 17:09:11</time>
      </trkpt>
      <trkpt lat="40.82272" lon="0.38774">
        <ele>557.6</ele>
        <time>2022-05-24 17:09:12</time>
      </trkpt>
      <trkpt lat="40.82272" lon="0.38772">
        <ele>557.8</ele>
        <time>2022-05-24 17:09:13</time>
      </trkpt>
      <trkpt lat="40.82271" lon="0.3877">
        <ele>558</ele>
        <time>2022-05-24 17:09:14</time>
      </trkpt>
      <trkpt lat="40.82271" lon="0.38767">
        <ele>558.2</ele>
        <time>2022-05-24 17:09:15</time>
      </trkpt>
      <trkpt lat="40.82271" lon="0.38765">
        <ele>558.4</ele>
        <time>2022-05-24 17:09:16</time>
      </trkpt>
      <trkpt lat="40.82271" lon="0.38763">
        <ele>558.4</ele>
        <time>2022-05-24 17:09:17</time>
      </trkpt>
      <trkpt lat="40.82271" lon="0.38761">
        <ele>558.6</ele>
        <time>2022-05-24 17:09:18</time>
      </trkpt>
      <trkpt lat="40.8227" lon="0.38759">
        <ele>558.8</ele>
        <time>2022-05-24 17:09:19</time>
      </trkpt>
      <trkpt lat="40.8227" lon="0.38756">
        <ele>559</ele>
        <time>2022-05-24 17:09:20</time>
      </trkpt>
      <trkpt lat="40.8227" lon="0.38754">
        <ele>559.2</ele>
        <time>2022-05-24 17:09:21</time>
      </trkpt>
      <trkpt lat="40.8227" lon="0.38752">
        <ele>559.6</ele>
        <time>2022-05-24 17:09:22</time>
      </trkpt>
      <trkpt lat="40.8227" lon="0.3875">
        <ele>559.8</ele>
        <time>2022-05-24 17:09:23</time>
      </trkpt>
      <trkpt lat="40.8227" lon="0.38748">
        <ele>560</ele>
        <time>2022-05-24 17:09:24</time>
      </trkpt>
      <trkpt lat="40.8227" lon="0.38746">
        <ele>560</ele>
        <time>2022-05-24 17:09:25</time>
      </trkpt>
      <trkpt lat="40.8227" lon="0.38743">
        <ele>560.2</ele>
        <time>2022-05-24 17:09:26</time>
      </trkpt>
      <trkpt lat="40.8227" lon="0.38741">
        <ele>560.6</ele>
        <time>2022-05-24 17:09:27</time>
      </trkpt>
      <trkpt lat="40.8227" lon="0.38739">
        <ele>560.8</ele>
        <time>2022-05-24 17:09:28</time>
      </trkpt>
      <trkpt lat="40.82269" lon="0.38737">
        <ele>561</ele>
        <time>2022-05-24 17:09:29</time>
      </trkpt>
      <trkpt lat="40.82269" lon="0.38734">
        <ele>561.2</ele>
        <time>2022-05-24 17:09:30</time>
      </trkpt>
      <trkpt lat="40.8227" lon="0.38732">
        <ele>561.4</ele>
        <time>2022-05-24 17:09:31</time>
      </trkpt>
      <trkpt lat="40.82269" lon="0.3873">
        <ele>561.4</ele>
        <time>2022-05-24 17:09:32</time>
      </trkpt>
      <trkpt lat="40.8227" lon="0.38728">
        <ele>561.6</ele>
        <time>2022-05-24 17:09:33</time>
      </trkpt>
      <trkpt lat="40.8227" lon="0.38726">
        <ele>562</ele>
        <time>2022-05-24 17:09:34</time>
      </trkpt>
      <trkpt lat="40.8227" lon="0.38723">
        <ele>562.2</ele>
        <time>2022-05-24 17:09:35</time>
      </trkpt>
      <trkpt lat="40.8227" lon="0.38721">
        <ele>562.4</ele>
        <time>2022-05-24 17:09:36</time>
      </trkpt>
      <trkpt lat="40.8227" lon="0.38719">
        <ele>562.6</ele>
        <time>2022-05-24 17:09:37</time>
      </trkpt>
      <trkpt lat="40.8227" lon="0.38717">
        <ele>563</ele>
        <time>2022-05-24 17:09:38</time>
      </trkpt>
      <trkpt lat="40.82271" lon="0.38715">
        <ele>563.2</ele>
        <time>2022-05-24 17:09:39</time>
      </trkpt>
      <trkpt lat="40.82271" lon="0.38712">
        <ele>563.6</ele>
        <time>2022-05-24 17:09:40</time>
      </trkpt>
      <trkpt lat="40.82272" lon="0.3871">
        <ele>563.8</ele>
        <time>2022-05-24 17:09:41</time>
      </trkpt>
      <trkpt lat="40.82272" lon="0.38708">
        <ele>564</ele>
        <time>2022-05-24 17:09:42</time>
      </trkpt>
      <trkpt lat="40.82272" lon="0.38705">
        <ele>564.2</ele>
        <time>2022-05-24 17:09:43</time>
      </trkpt>
      <trkpt lat="40.82273" lon="0.38703">
        <ele>564.4</ele>
        <time>2022-05-24 17:09:44</time>
      </trkpt>
      <trkpt lat="40.82273" lon="0.38701">
        <ele>564.6</ele>
        <time>2022-05-24 17:09:45</time>
      </trkpt>
      <trkpt lat="40.82275" lon="0.38699">
        <ele>564.8</ele>
        <time>2022-05-24 17:09:46</time>
      </trkpt>
      <trkpt lat="40.82275" lon="0.38697">
        <ele>565</ele>
        <time>2022-05-24 17:09:47</time>
      </trkpt>
      <trkpt lat="40.82276" lon="0.38696">
        <ele>565.2</ele>
        <time>2022-05-24 17:09:48</time>
      </trkpt>
      <trkpt lat="40.82277" lon="0.38694">
        <ele>565.4</ele>
        <time>2022-05-24 17:09:49</time>
      </trkpt>
      <trkpt lat="40.82278" lon="0.38692">
        <ele>565.6</ele>
        <time>2022-05-24 17:09:50</time>
      </trkpt>
      <trkpt lat="40.8228" lon="0.38691">
        <ele>565.8</ele>
        <time>2022-05-24 17:09:51</time>
      </trkpt>
      <trkpt lat="40.82281" lon="0.3869">
        <ele>565.8</ele>
        <time>2022-05-24 17:09:52</time>
      </trkpt>
      <trkpt lat="40.82283" lon="0.38688">
        <ele>566</ele>
        <time>2022-05-24 17:09:53</time>
      </trkpt>
      <trkpt lat="40.82284" lon="0.38687">
        <ele>566</ele>
        <time>2022-05-24 17:09:54</time>
      </trkpt>
      <trkpt lat="40.82285" lon="0.38686">
        <ele>566</ele>
        <time>2022-05-24 17:09:55</time>
      </trkpt>
      <trkpt lat="40.82287" lon="0.38685">
        <ele>566</ele>
        <time>2022-05-24 17:09:56</time>
      </trkpt>
      <trkpt lat="40.82289" lon="0.38685">
        <ele>566.4</ele>
        <time>2022-05-24 17:09:57</time>
      </trkpt>
      <trkpt lat="40.82291" lon="0.38685">
        <ele>566.6</ele>
        <time>2022-05-24 17:09:58</time>
      </trkpt>
      <trkpt lat="40.82293" lon="0.38685">
        <ele>566.8</ele>
        <time>2022-05-24 17:09:59</time>
      </trkpt>
      <trkpt lat="40.82295" lon="0.38685">
        <ele>567</ele>
        <time>2022-05-24 17:10:00</time>
      </trkpt>
      <trkpt lat="40.82297" lon="0.38686">
        <ele>567.2</ele>
        <time>2022-05-24 17:10:01</time>
      </trkpt>
      <trkpt lat="40.82299" lon="0.38686">
        <ele>567.2</ele>
        <time>2022-05-24 17:10:02</time>
      </trkpt>
      <trkpt lat="40.82301" lon="0.38686">
        <ele>567.4</ele>
        <time>2022-05-24 17:10:03</time>
      </trkpt>
      <trkpt lat="40.82303" lon="0.38687">
        <ele>567.6</ele>
        <time>2022-05-24 17:10:04</time>
      </trkpt>
      <trkpt lat="40.82305" lon="0.38687">
        <ele>567.8</ele>
        <time>2022-05-24 17:10:05</time>
      </trkpt>
      <trkpt lat="40.82307" lon="0.38688">
        <ele>568</ele>
        <time>2022-05-24 17:10:06</time>
      </trkpt>
      <trkpt lat="40.82309" lon="0.38687">
        <ele>568.2</ele>
        <time>2022-05-24 17:10:07</time>
      </trkpt>
      <trkpt lat="40.8231" lon="0.38687">
        <ele>568.4</ele>
        <time>2022-05-24 17:10:08</time>
      </trkpt>
      <trkpt lat="40.82312" lon="0.38687">
        <ele>568.6</ele>
        <time>2022-05-24 17:10:09</time>
      </trkpt>
      <trkpt lat="40.82314" lon="0.38687">
        <ele>568.8</ele>
        <time>2022-05-24 17:10:10</time>
      </trkpt>
      <trkpt lat="40.82315" lon="0.38688">
        <ele>569</ele>
        <time>2022-05-24 17:10:11</time>
      </trkpt>
      <trkpt lat="40.82317" lon="0.38688">
        <ele>569.2</ele>
        <time>2022-05-24 17:10:12</time>
      </trkpt>
      <trkpt lat="40.82318" lon="0.38687">
        <ele>569.4</ele>
        <time>2022-05-24 17:10:13</time>
      </trkpt>
      <trkpt lat="40.8232" lon="0.38687">
        <ele>569.6</ele>
        <time>2022-05-24 17:10:14</time>
      </trkpt>
      <trkpt lat="40.82321" lon="0.38687">
        <ele>569.8</ele>
        <time>2022-05-24 17:10:15</time>
      </trkpt>
      <trkpt lat="40.82323" lon="0.38688">
        <ele>570</ele>
        <time>2022-05-24 17:10:16</time>
      </trkpt>
      <trkpt lat="40.82324" lon="0.38689">
        <ele>570.2</ele>
        <time>2022-05-24 17:10:17</time>
      </trkpt>
      <trkpt lat="40.82325" lon="0.38689">
        <ele>570.2</ele>
        <time>2022-05-24 17:10:18</time>
      </trkpt>
      <trkpt lat="40.82327" lon="0.38689">
        <ele>570.4</ele>
        <time>2022-05-24 17:10:19</time>
      </trkpt>
      <trkpt lat="40.82329" lon="0.38689">
        <ele>570.6</ele>
        <time>2022-05-24 17:10:20</time>
      </trkpt>
      <trkpt lat="40.8233" lon="0.38689">
        <ele>570.8</ele>
        <time>2022-05-24 17:10:21</time>
      </trkpt>
      <trkpt lat="40.82332" lon="0.38689">
        <ele>571</ele>
        <time>2022-05-24 17:10:22</time>
      </trkpt>
      <trkpt lat="40.82333" lon="0.38689">
        <ele>571.2</ele>
        <time>2022-05-24 17:10:23</time>
      </trkpt>
      <trkpt lat="40.82335" lon="0.38689">
        <ele>571.4</ele>
        <time>2022-05-24 17:10:24</time>
      </trkpt>
      <trkpt lat="40.82337" lon="0.38689">
        <ele>571.6</ele>
        <time>2022-05-24 17:10:25</time>
      </trkpt>
      <trkpt lat="40.82338" lon="0.38689">
        <ele>571.8</ele>
        <time>2022-05-24 17:10:26</time>
      </trkpt>
      <trkpt lat="40.8234" lon="0.38688">
        <ele>572</ele>
        <time>2022-05-24 17:10:27</time>
      </trkpt>
      <trkpt lat="40.82342" lon="0.38687">
        <ele>572</ele>
        <time>2022-05-24 17:10:28</time>
      </trkpt>
      <trkpt lat="40.82344" lon="0.38687">
        <ele>572.2</ele>
        <time>2022-05-24 17:10:29</time>
      </trkpt>
      <trkpt lat="40.82345" lon="0.38686">
        <ele>572.4</ele>
        <time>2022-05-24 17:10:30</time>
      </trkpt>
      <trkpt lat="40.82347" lon="0.38685">
        <ele>572.6</ele>
        <time>2022-05-24 17:10:31</time>
      </trkpt>
      <trkpt lat="40.82348" lon="0.38684">
        <ele>572.6</ele>
        <time>2022-05-24 17:10:32</time>
      </trkpt>
      <trkpt lat="40.8235" lon="0.38684">
        <ele>572.8</ele>
        <time>2022-05-24 17:10:33</time>
      </trkpt>
      <trkpt lat="40.82352" lon="0.38683">
        <ele>573</ele>
        <time>2022-05-24 17:10:34</time>
      </trkpt>
      <trkpt lat="40.82353" lon="0.38682">
        <ele>573.2</ele>
        <time>2022-05-24 17:10:35</time>
      </trkpt>
      <trkpt lat="40.82355" lon="0.38681">
        <ele>573.2</ele>
        <time>2022-05-24 17:10:36</time>
      </trkpt>
      <trkpt lat="40.82356" lon="0.38679">
        <ele>573.2</ele>
        <time>2022-05-24 17:10:37</time>
      </trkpt>
      <trkpt lat="40.82358" lon="0.38678">
        <ele>573.4</ele>
        <time>2022-05-24 17:10:38</time>
      </trkpt>
      <trkpt lat="40.82359" lon="0.38676">
        <ele>573.6</ele>
        <time>2022-05-24 17:10:39</time>
      </trkpt>
      <trkpt lat="40.8236" lon="0.38675">
        <ele>573.8</ele>
        <time>2022-05-24 17:10:40</time>
      </trkpt>
      <trkpt lat="40.82362" lon="0.38673">
        <ele>574</ele>
        <time>2022-05-24 17:10:41</time>
      </trkpt>
      <trkpt lat="40.82363" lon="0.38672">
        <ele>574</ele>
        <time>2022-05-24 17:10:42</time>
      </trkpt>
      <trkpt lat="40.82364" lon="0.3867">
        <ele>574</ele>
        <time>2022-05-24 17:10:43</time>
      </trkpt>
      <trkpt lat="40.82365" lon="0.38668">
        <ele>574.2</ele>
        <time>2022-05-24 17:10:44</time>
      </trkpt>
      <trkpt lat="40.82366" lon="0.38667">
        <ele>574.4</ele>
        <time>2022-05-24 17:10:45</time>
      </trkpt>
      <trkpt lat="40.82367" lon="0.38665">
        <ele>574.6</ele>
        <time>2022-05-24 17:10:46</time>
      </trkpt>
      <trkpt lat="40.82368" lon="0.38663">
        <ele>574.6</ele>
        <time>2022-05-24 17:10:47</time>
      </trkpt>
      <trkpt lat="40.82369" lon="0.38661">
        <ele>575</ele>
        <time>2022-05-24 17:10:48</time>
      </trkpt>
      <trkpt lat="40.8237" lon="0.38659">
        <ele>575.2</ele>
        <time>2022-05-24 17:10:49</time>
      </trkpt>
      <trkpt lat="40.8237" lon="0.38657">
        <ele>575.2</ele>
        <time>2022-05-24 17:10:50</time>
      </trkpt>
      <trkpt lat="40.8237" lon="0.38655">
        <ele>575.4</ele>
        <time>2022-05-24 17:10:51</time>
      </trkpt>
      <trkpt lat="40.8237" lon="0.38653">
        <ele>575.6</ele>
        <time>2022-05-24 17:10:52</time>
      </trkpt>
      <trkpt lat="40.82371" lon="0.38651">
        <ele>576</ele>
        <time>2022-05-24 17:10:53</time>
      </trkpt>
      <trkpt lat="40.82371" lon="0.38649">
        <ele>576.2</ele>
        <time>2022-05-24 17:10:54</time>
      </trkpt>
      <trkpt lat="40.82372" lon="0.38647">
        <ele>576.4</ele>
        <time>2022-05-24 17:10:55</time>
      </trkpt>
      <trkpt lat="40.82372" lon="0.38645">
        <ele>576.6</ele>
        <time>2022-05-24 17:10:56</time>
      </trkpt>
      <trkpt lat="40.82372" lon="0.38643">
        <ele>576.8</ele>
        <time>2022-05-24 17:10:57</time>
      </trkpt>
      <trkpt lat="40.82372" lon="0.38641">
        <ele>576.8</ele>
        <time>2022-05-24 17:10:58</time>
      </trkpt>
      <trkpt lat="40.82371" lon="0.38638">
        <ele>577</ele>
        <time>2022-05-24 17:10:59</time>
      </trkpt>
      <trkpt lat="40.82371" lon="0.38636">
        <ele>577.2</ele>
        <time>2022-05-24 17:11:00</time>
      </trkpt>
      <trkpt lat="40.82371" lon="0.38634">
        <ele>577.4</ele>
        <time>2022-05-24 17:11:01</time>
      </trkpt>
      <trkpt lat="40.82371" lon="0.38632">
        <ele>577.4</ele>
        <time>2022-05-24 17:11:02</time>
      </trkpt>
      <trkpt lat="40.8237" lon="0.3863">
        <ele>577.6</ele>
        <time>2022-05-24 17:11:03</time>
      </trkpt>
      <trkpt lat="40.8237" lon="0.38628">
        <ele>577.8</ele>
        <time>2022-05-24 17:11:04</time>
      </trkpt>
      <trkpt lat="40.8237" lon="0.38625">
        <ele>577.8</ele>
        <time>2022-05-24 17:11:05</time>
      </trkpt>
      <trkpt lat="40.8237" lon="0.38623">
        <ele>578</ele>
        <time>2022-05-24 17:11:06</time>
      </trkpt>
      <trkpt lat="40.8237" lon="0.38621">
        <ele>578.2</ele>
        <time>2022-05-24 17:11:07</time>
      </trkpt>
      <trkpt lat="40.82369" lon="0.3862">
        <ele>578.4</ele>
        <time>2022-05-24 17:11:08</time>
      </trkpt>
      <trkpt lat="40.82369" lon="0.38618">
        <ele>578.6</ele>
        <time>2022-05-24 17:11:09</time>
      </trkpt>
      <trkpt lat="40.82368" lon="0.38617">
        <ele>578.8</ele>
        <time>2022-05-24 17:11:10</time>
      </trkpt>
      <trkpt lat="40.82368" lon="0.38615">
        <ele>579</ele>
        <time>2022-05-24 17:11:11</time>
      </trkpt>
      <trkpt lat="40.82367" lon="0.38613">
        <ele>579.2</ele>
        <time>2022-05-24 17:11:12</time>
      </trkpt>
      <trkpt lat="40.82367" lon="0.38611">
        <ele>579.6</ele>
        <time>2022-05-24 17:11:13</time>
      </trkpt>
      <trkpt lat="40.82366" lon="0.38609">
        <ele>579.8</ele>
        <time>2022-05-24 17:11:14</time>
      </trkpt>
      <trkpt lat="40.82365" lon="0.38607">
        <ele>580</ele>
        <time>2022-05-24 17:11:15</time>
      </trkpt>
      <trkpt lat="40.82364" lon="0.38606">
        <ele>580.2</ele>
        <time>2022-05-24 17:11:16</time>
      </trkpt>
      <trkpt lat="40.82363" lon="0.38604">
        <ele>580.2</ele>
        <time>2022-05-24 17:11:17</time>
      </trkpt>
      <trkpt lat="40.82362" lon="0.38602">
        <ele>580.4</ele>
        <time>2022-05-24 17:11:18</time>
      </trkpt>
      <trkpt lat="40.82362" lon="0.38601">
        <ele>580.6</ele>
        <time>2022-05-24 17:11:19</time>
      </trkpt>
      <trkpt lat="40.82361" lon="0.38599">
        <ele>580.8</ele>
        <time>2022-05-24 17:11:20</time>
      </trkpt>
      <trkpt lat="40.8236" lon="0.38597">
        <ele>580.8</ele>
        <time>2022-05-24 17:11:21</time>
      </trkpt>
      <trkpt lat="40.8236" lon="0.38596">
        <ele>581</ele>
        <time>2022-05-24 17:11:22</time>
      </trkpt>
      <trkpt lat="40.82359" lon="0.38595">
        <ele>581.2</ele>
        <time>2022-05-24 17:11:23</time>
      </trkpt>
      <trkpt lat="40.82358" lon="0.38593">
        <ele>581.4</ele>
        <time>2022-05-24 17:11:24</time>
      </trkpt>
      <trkpt lat="40.82357" lon="0.38591">
        <ele>581.6</ele>
        <time>2022-05-24 17:11:25</time>
      </trkpt>
      <trkpt lat="40.82357" lon="0.3859">
        <ele>581.8</ele>
        <time>2022-05-24 17:11:26</time>
      </trkpt>
      <trkpt lat="40.82355" lon="0.38588">
        <ele>582.2</ele>
        <time>2022-05-24 17:11:27</time>
      </trkpt>
      <trkpt lat="40.82355" lon="0.38587">
        <ele>582.4</ele>
        <time>2022-05-24 17:11:28</time>
      </trkpt>
      <trkpt lat="40.82354" lon="0.38585">
        <ele>582.6</ele>
        <time>2022-05-24 17:11:29</time>
      </trkpt>
      <trkpt lat="40.82353" lon="0.38584">
        <ele>582.8</ele>
        <time>2022-05-24 17:11:30</time>
      </trkpt>
      <trkpt lat="40.82352" lon="0.38582">
        <ele>583</ele>
        <time>2022-05-24 17:11:31</time>
      </trkpt>
      <trkpt lat="40.82351" lon="0.3858">
        <ele>583.2</ele>
        <time>2022-05-24 17:11:32</time>
      </trkpt>
      <trkpt lat="40.8235" lon="0.38579">
        <ele>583.4</ele>
        <time>2022-05-24 17:11:33</time>
      </trkpt>
      <trkpt lat="40.82349" lon="0.38577">
        <ele>583.6</ele>
        <time>2022-05-24 17:11:34</time>
      </trkpt>
      <trkpt lat="40.82348" lon="0.38576">
        <ele>583.8</ele>
        <time>2022-05-24 17:11:35</time>
      </trkpt>
      <trkpt lat="40.82347" lon="0.38574">
        <ele>584</ele>
        <time>2022-05-24 17:11:36</time>
      </trkpt>
      <trkpt lat="40.82347" lon="0.38573">
        <ele>584.2</ele>
        <time>2022-05-24 17:11:37</time>
      </trkpt>
      <trkpt lat="40.82346" lon="0.38571">
        <ele>584.4</ele>
        <time>2022-05-24 17:11:38</time>
      </trkpt>
      <trkpt lat="40.82346" lon="0.3857">
        <ele>584.4</ele>
        <time>2022-05-24 17:11:39</time>
      </trkpt>
      <trkpt lat="40.82345" lon="0.38569">
        <ele>584.6</ele>
        <time>2022-05-24 17:11:40</time>
      </trkpt>
      <trkpt lat="40.82345" lon="0.38568">
        <ele>584.8</ele>
        <time>2022-05-24 17:11:41</time>
      </trkpt>
      <trkpt lat="40.82344" lon="0.38566">
        <ele>585</ele>
        <time>2022-05-24 17:11:42</time>
      </trkpt>
      <trkpt lat="40.82343" lon="0.38565">
        <ele>585.2</ele>
        <time>2022-05-24 17:11:43</time>
      </trkpt>
      <trkpt lat="40.82343" lon="0.38564">
        <ele>585.4</ele>
        <time>2022-05-24 17:11:44</time>
      </trkpt>
      <trkpt lat="40.82342" lon="0.38563">
        <ele>585.4</ele>
        <time>2022-05-24 17:11:45</time>
      </trkpt>
      <trkpt lat="40.82341" lon="0.38561">
        <ele>585.6</ele>
        <time>2022-05-24 17:11:46</time>
      </trkpt>
      <trkpt lat="40.82341" lon="0.38559">
        <ele>585.8</ele>
        <time>2022-05-24 17:11:47</time>
      </trkpt>
      <trkpt lat="40.8234" lon="0.38558">
        <ele>586</ele>
        <time>2022-05-24 17:11:48</time>
      </trkpt>
      <trkpt lat="40.8234" lon="0.38557">
        <ele>586.2</ele>
        <time>2022-05-24 17:11:49</time>
      </trkpt>
      <trkpt lat="40.82339" lon="0.38556">
        <ele>586.2</ele>
        <time>2022-05-24 17:11:50</time>
      </trkpt>
      <trkpt lat="40.82339" lon="0.38554">
        <ele>586.4</ele>
        <time>2022-05-24 17:11:51</time>
      </trkpt>
      <trkpt lat="40.82339" lon="0.38553">
        <ele>586.4</ele>
        <time>2022-05-24 17:11:52</time>
      </trkpt>
      <trkpt lat="40.82339" lon="0.38551">
        <ele>586.6</ele>
        <time>2022-05-24 17:11:53</time>
      </trkpt>
      <trkpt lat="40.82339" lon="0.38549">
        <ele>586.6</ele>
        <time>2022-05-24 17:11:54</time>
      </trkpt>
      <trkpt lat="40.82338" lon="0.38547">
        <ele>586.8</ele>
        <time>2022-05-24 17:11:55</time>
      </trkpt>
      <trkpt lat="40.82337" lon="0.38544">
        <ele>586.8</ele>
        <time>2022-05-24 17:11:56</time>
      </trkpt>
      <trkpt lat="40.82336" lon="0.38542">
        <ele>586.8</ele>
        <time>2022-05-24 17:11:57</time>
      </trkpt>
      <trkpt lat="40.82336" lon="0.38539">
        <ele>586.8</ele>
        <time>2022-05-24 17:11:58</time>
      </trkpt>
      <trkpt lat="40.82336" lon="0.38537">
        <ele>587</ele>
        <time>2022-05-24 17:11:59</time>
      </trkpt>
      <trkpt lat="40.82336" lon="0.38535">
        <ele>587</ele>
        <time>2022-05-24 17:12:00</time>
      </trkpt>
      <trkpt lat="40.82336" lon="0.38533">
        <ele>587.4</ele>
        <time>2022-05-24 17:12:01</time>
      </trkpt>
      <trkpt lat="40.82336" lon="0.38531">
        <ele>587.4</ele>
        <time>2022-05-24 17:12:02</time>
      </trkpt>
      <trkpt lat="40.82336" lon="0.38529">
        <ele>587.6</ele>
        <time>2022-05-24 17:12:03</time>
      </trkpt>
      <trkpt lat="40.82337" lon="0.38527">
        <ele>587.6</ele>
        <time>2022-05-24 17:12:04</time>
      </trkpt>
      <trkpt lat="40.82337" lon="0.38524">
        <ele>587.8</ele>
        <time>2022-05-24 17:12:05</time>
      </trkpt>
      <trkpt lat="40.82337" lon="0.38522">
        <ele>588</ele>
        <time>2022-05-24 17:12:06</time>
      </trkpt>
      <trkpt lat="40.82337" lon="0.3852">
        <ele>588.2</ele>
        <time>2022-05-24 17:12:07</time>
      </trkpt>
      <trkpt lat="40.82337" lon="0.38517">
        <ele>588.4</ele>
        <time>2022-05-24 17:12:08</time>
      </trkpt>
      <trkpt lat="40.82337" lon="0.38515">
        <ele>588.6</ele>
        <time>2022-05-24 17:12:09</time>
      </trkpt>
      <trkpt lat="40.82337" lon="0.38513">
        <ele>588.8</ele>
        <time>2022-05-24 17:12:10</time>
      </trkpt>
      <trkpt lat="40.82338" lon="0.38511">
        <ele>589</ele>
        <time>2022-05-24 17:12:11</time>
      </trkpt>
      <trkpt lat="40.82338" lon="0.38508">
        <ele>589.4</ele>
        <time>2022-05-24 17:12:12</time>
      </trkpt>
      <trkpt lat="40.82338" lon="0.38506">
        <ele>589.6</ele>
        <time>2022-05-24 17:12:13</time>
      </trkpt>
      <trkpt lat="40.82338" lon="0.38504">
        <ele>590</ele>
        <time>2022-05-24 17:12:14</time>
      </trkpt>
      <trkpt lat="40.82339" lon="0.38501">
        <ele>590.2</ele>
        <time>2022-05-24 17:12:15</time>
      </trkpt>
      <trkpt lat="40.82339" lon="0.38499">
        <ele>590.6</ele>
        <time>2022-05-24 17:12:16</time>
      </trkpt>
      <trkpt lat="40.8234" lon="0.38496">
        <ele>591</ele>
        <time>2022-05-24 17:12:17</time>
      </trkpt>
      <trkpt lat="40.82341" lon="0.38494">
        <ele>591.2</ele>
        <time>2022-05-24 17:12:18</time>
      </trkpt>
      <trkpt lat="40.82341" lon="0.38492">
        <ele>591.4</ele>
        <time>2022-05-24 17:12:19</time>
      </trkpt>
      <trkpt lat="40.82343" lon="0.3849">
        <ele>591.6</ele>
        <time>2022-05-24 17:12:20</time>
      </trkpt>
      <trkpt lat="40.82344" lon="0.38486">
        <ele>591.6</ele>
        <time>2022-05-24 17:12:21</time>
      </trkpt>
      <trkpt lat="40.82346" lon="0.38483">
        <ele>591.8</ele>
        <time>2022-05-24 17:12:22</time>
      </trkpt>
      <trkpt lat="40.82347" lon="0.38481">
        <ele>592</ele>
        <time>2022-05-24 17:12:23</time>
      </trkpt>
      <trkpt lat="40.82347" lon="0.38479">
        <ele>592.2</ele>
        <time>2022-05-24 17:12:24</time>
      </trkpt>
      <trkpt lat="40.82347" lon="0.38476">
        <ele>592.4</ele>
        <time>2022-05-24 17:12:25</time>
      </trkpt>
      <trkpt lat="40.82349" lon="0.38475">
        <ele>592.4</ele>
        <time>2022-05-24 17:12:26</time>
      </trkpt>
      <trkpt lat="40.8235" lon="0.38473">
        <ele>592.6</ele>
        <time>2022-05-24 17:12:27</time>
      </trkpt>
      <trkpt lat="40.82351" lon="0.38472">
        <ele>592.8</ele>
        <time>2022-05-24 17:12:28</time>
      </trkpt>
      <trkpt lat="40.82352" lon="0.3847">
        <ele>593</ele>
        <time>2022-05-24 17:12:29</time>
      </trkpt>
      <trkpt lat="40.82352" lon="0.38469">
        <ele>593</ele>
        <time>2022-05-24 17:12:30</time>
      </trkpt>
      <trkpt lat="40.82354" lon="0.38468">
        <ele>593</ele>
        <time>2022-05-24 17:12:31</time>
      </trkpt>
      <trkpt lat="40.82354" lon="0.38467">
        <ele>593.2</ele>
        <time>2022-05-24 17:12:32</time>
      </trkpt>
      <trkpt lat="40.82355" lon="0.38466">
        <ele>593.4</ele>
        <time>2022-05-24 17:12:33</time>
      </trkpt>
      <trkpt lat="40.82357" lon="0.38465">
        <ele>593.6</ele>
        <time>2022-05-24 17:12:34</time>
      </trkpt>
      <trkpt lat="40.82358" lon="0.38464">
        <ele>593.8</ele>
        <time>2022-05-24 17:12:35</time>
      </trkpt>
      <trkpt lat="40.82359" lon="0.38463">
        <ele>593.8</ele>
        <time>2022-05-24 17:12:36</time>
      </trkpt>
      <trkpt lat="40.82361" lon="0.38462">
        <ele>594</ele>
        <time>2022-05-24 17:12:37</time>
      </trkpt>
      <trkpt lat="40.82362" lon="0.38461">
        <ele>594</ele>
        <time>2022-05-24 17:12:38</time>
      </trkpt>
      <trkpt lat="40.82364" lon="0.38461">
        <ele>594.2</ele>
        <time>2022-05-24 17:12:39</time>
      </trkpt>
      <trkpt lat="40.82365" lon="0.3846">
        <ele>594.4</ele>
        <time>2022-05-24 17:12:40</time>
      </trkpt>
      <trkpt lat="40.82367" lon="0.3846">
        <ele>594.4</ele>
        <time>2022-05-24 17:12:41</time>
      </trkpt>
      <trkpt lat="40.82369" lon="0.38459">
        <ele>594.6</ele>
        <time>2022-05-24 17:12:42</time>
      </trkpt>
      <trkpt lat="40.82371" lon="0.38459">
        <ele>594.8</ele>
        <time>2022-05-24 17:12:43</time>
      </trkpt>
      <trkpt lat="40.82372" lon="0.38458">
        <ele>594.8</ele>
        <time>2022-05-24 17:12:44</time>
      </trkpt>
      <trkpt lat="40.82374" lon="0.38458">
        <ele>595</ele>
        <time>2022-05-24 17:12:45</time>
      </trkpt>
      <trkpt lat="40.82376" lon="0.38458">
        <ele>595.2</ele>
        <time>2022-05-24 17:12:46</time>
      </trkpt>
      <trkpt lat="40.82377" lon="0.38457">
        <ele>595.4</ele>
        <time>2022-05-24 17:12:47</time>
      </trkpt>
      <trkpt lat="40.82379" lon="0.38457">
        <ele>595.6</ele>
        <time>2022-05-24 17:12:48</time>
      </trkpt>
      <trkpt lat="40.82381" lon="0.38457">
        <ele>595.8</ele>
        <time>2022-05-24 17:12:49</time>
      </trkpt>
      <trkpt lat="40.82382" lon="0.38457">
        <ele>596</ele>
        <time>2022-05-24 17:12:50</time>
      </trkpt>
      <trkpt lat="40.82384" lon="0.38457">
        <ele>596</ele>
        <time>2022-05-24 17:12:51</time>
      </trkpt>
      <trkpt lat="40.82386" lon="0.38456">
        <ele>596</ele>
        <time>2022-05-24 17:12:52</time>
      </trkpt>
      <trkpt lat="40.82388" lon="0.38456">
        <ele>596.2</ele>
        <time>2022-05-24 17:12:53</time>
      </trkpt>
      <trkpt lat="40.82389" lon="0.38456">
        <ele>596.2</ele>
        <time>2022-05-24 17:12:54</time>
      </trkpt>
      <trkpt lat="40.82391" lon="0.38455">
        <ele>596.4</ele>
        <time>2022-05-24 17:12:55</time>
      </trkpt>
      <trkpt lat="40.82393" lon="0.38456">
        <ele>596.4</ele>
        <time>2022-05-24 17:12:56</time>
      </trkpt>
      <trkpt lat="40.82395" lon="0.38456">
        <ele>596.6</ele>
        <time>2022-05-24 17:12:57</time>
      </trkpt>
      <trkpt lat="40.82396" lon="0.38456">
        <ele>596.8</ele>
        <time>2022-05-24 17:12:58</time>
      </trkpt>
      <trkpt lat="40.82398" lon="0.38455">
        <ele>597</ele>
        <time>2022-05-24 17:12:59</time>
      </trkpt>
      <trkpt lat="40.82399" lon="0.38455">
        <ele>597.2</ele>
        <time>2022-05-24 17:13:00</time>
      </trkpt>
      <trkpt lat="40.82401" lon="0.38454">
        <ele>597.2</ele>
        <time>2022-05-24 17:13:01</time>
      </trkpt>
      <trkpt lat="40.82403" lon="0.38454">
        <ele>597.4</ele>
        <time>2022-05-24 17:13:02</time>
      </trkpt>
      <trkpt lat="40.82404" lon="0.38453">
        <ele>597.6</ele>
        <time>2022-05-24 17:13:03</time>
      </trkpt>
      <trkpt lat="40.82406" lon="0.38451">
        <ele>597.8</ele>
        <time>2022-05-24 17:13:04</time>
      </trkpt>
      <trkpt lat="40.82407" lon="0.3845">
        <ele>598.2</ele>
        <time>2022-05-24 17:13:05</time>
      </trkpt>
      <trkpt lat="40.82408" lon="0.38449">
        <ele>598.4</ele>
        <time>2022-05-24 17:13:06</time>
      </trkpt>
      <trkpt lat="40.82409" lon="0.38447">
        <ele>598.8</ele>
        <time>2022-05-24 17:13:07</time>
      </trkpt>
      <trkpt lat="40.8241" lon="0.38444">
        <ele>599.2</ele>
        <time>2022-05-24 17:13:08</time>
      </trkpt>
      <trkpt lat="40.8241" lon="0.38442">
        <ele>599.6</ele>
        <time>2022-05-24 17:13:09</time>
      </trkpt>
      <trkpt lat="40.8241" lon="0.3844">
        <ele>600.2</ele>
        <time>2022-05-24 17:13:10</time>
      </trkpt>
      <trkpt lat="40.8241" lon="0.38437">
        <ele>600.6</ele>
        <time>2022-05-24 17:13:11</time>
      </trkpt>
      <trkpt lat="40.8241" lon="0.38435">
        <ele>600.8</ele>
        <time>2022-05-24 17:13:12</time>
      </trkpt>
      <trkpt lat="40.82409" lon="0.38433">
        <ele>601</ele>
        <time>2022-05-24 17:13:13</time>
      </trkpt>
      <trkpt lat="40.82407" lon="0.38431">
        <ele>601</ele>
        <time>2022-05-24 17:13:14</time>
      </trkpt>
      <trkpt lat="40.82406" lon="0.3843">
        <ele>601.2</ele>
        <time>2022-05-24 17:13:15</time>
      </trkpt>
      <trkpt lat="40.82404" lon="0.38429">
        <ele>601.4</ele>
        <time>2022-05-24 17:13:16</time>
      </trkpt>
      <trkpt lat="40.82403" lon="0.38429">
        <ele>601.4</ele>
        <time>2022-05-24 17:13:17</time>
      </trkpt>
      <trkpt lat="40.82401" lon="0.38428">
        <ele>601.4</ele>
        <time>2022-05-24 17:13:18</time>
      </trkpt>
      <trkpt lat="40.82399" lon="0.38428">
        <ele>601.6</ele>
        <time>2022-05-24 17:13:19</time>
      </trkpt>
      <trkpt lat="40.82397" lon="0.38427">
        <ele>601.6</ele>
        <time>2022-05-24 17:13:20</time>
      </trkpt>
      <trkpt lat="40.82395" lon="0.38427">
        <ele>601.8</ele>
        <time>2022-05-24 17:13:21</time>
      </trkpt>
      <trkpt lat="40.82393" lon="0.38427">
        <ele>602</ele>
        <time>2022-05-24 17:13:22</time>
      </trkpt>
      <trkpt lat="40.82391" lon="0.38427">
        <ele>602.2</ele>
        <time>2022-05-24 17:13:23</time>
      </trkpt>
      <trkpt lat="40.82389" lon="0.38427">
        <ele>602.4</ele>
        <time>2022-05-24 17:13:24</time>
      </trkpt>
      <trkpt lat="40.82388" lon="0.38427">
        <ele>602.6</ele>
        <time>2022-05-24 17:13:25</time>
      </trkpt>
      <trkpt lat="40.82386" lon="0.38427">
        <ele>602.8</ele>
        <time>2022-05-24 17:13:26</time>
      </trkpt>
      <trkpt lat="40.82383" lon="0.38427">
        <ele>602.8</ele>
        <time>2022-05-24 17:13:27</time>
      </trkpt>
      <trkpt lat="40.82381" lon="0.38428">
        <ele>603</ele>
        <time>2022-05-24 17:13:28</time>
      </trkpt>
      <trkpt lat="40.8238" lon="0.38428">
        <ele>603</ele>
        <time>2022-05-24 17:13:29</time>
      </trkpt>
      <trkpt lat="40.82378" lon="0.38428">
        <ele>603.2</ele>
        <time>2022-05-24 17:13:30</time>
      </trkpt>
      <trkpt lat="40.82375" lon="0.38428">
        <ele>603.4</ele>
        <time>2022-05-24 17:13:31</time>
      </trkpt>
      <trkpt lat="40.82373" lon="0.38429">
        <ele>603.6</ele>
        <time>2022-05-24 17:13:32</time>
      </trkpt>
      <trkpt lat="40.82372" lon="0.3843">
        <ele>603.8</ele>
        <time>2022-05-24 17:13:33</time>
      </trkpt>
      <trkpt lat="40.8237" lon="0.3843">
        <ele>604</ele>
        <time>2022-05-24 17:13:34</time>
      </trkpt>
      <trkpt lat="40.82368" lon="0.38431">
        <ele>604</ele>
        <time>2022-05-24 17:13:35</time>
      </trkpt>
      <trkpt lat="40.82366" lon="0.38431">
        <ele>604</ele>
        <time>2022-05-24 17:13:36</time>
      </trkpt>
      <trkpt lat="40.82364" lon="0.38432">
        <ele>604.2</ele>
        <time>2022-05-24 17:13:37</time>
      </trkpt>
      <trkpt lat="40.82362" lon="0.38432">
        <ele>604.2</ele>
        <time>2022-05-24 17:13:38</time>
      </trkpt>
      <trkpt lat="40.8236" lon="0.38432">
        <ele>604.2</ele>
        <time>2022-05-24 17:13:39</time>
      </trkpt>
      <trkpt lat="40.82359" lon="0.38432">
        <ele>604.2</ele>
        <time>2022-05-24 17:13:40</time>
      </trkpt>
      <trkpt lat="40.82357" lon="0.38432">
        <ele>604.4</ele>
        <time>2022-05-24 17:13:41</time>
      </trkpt>
      <trkpt lat="40.82355" lon="0.38433">
        <ele>604.4</ele>
        <time>2022-05-24 17:13:42</time>
      </trkpt>
      <trkpt lat="40.82354" lon="0.38433">
        <ele>604.6</ele>
        <time>2022-05-24 17:13:43</time>
      </trkpt>
      <trkpt lat="40.82352" lon="0.38433">
        <ele>604.6</ele>
        <time>2022-05-24 17:13:44</time>
      </trkpt>
      <trkpt lat="40.8235" lon="0.38434">
        <ele>604.8</ele>
        <time>2022-05-24 17:13:45</time>
      </trkpt>
      <trkpt lat="40.82348" lon="0.38435">
        <ele>605</ele>
        <time>2022-05-24 17:13:46</time>
      </trkpt>
      <trkpt lat="40.82346" lon="0.38435">
        <ele>605</ele>
        <time>2022-05-24 17:13:47</time>
      </trkpt>
      <trkpt lat="40.82345" lon="0.38437">
        <ele>605</ele>
        <time>2022-05-24 17:13:48</time>
      </trkpt>
      <trkpt lat="40.82343" lon="0.38438">
        <ele>605</ele>
        <time>2022-05-24 17:13:49</time>
      </trkpt>
      <trkpt lat="40.82342" lon="0.38439">
        <ele>605</ele>
        <time>2022-05-24 17:13:50</time>
      </trkpt>
      <trkpt lat="40.8234" lon="0.3844">
        <ele>605</ele>
        <time>2022-05-24 17:13:51</time>
      </trkpt>
      <trkpt lat="40.82338" lon="0.38442">
        <ele>605</ele>
        <time>2022-05-24 17:13:52</time>
      </trkpt>
      <trkpt lat="40.82337" lon="0.38443">
        <ele>605</ele>
        <time>2022-05-24 17:13:53</time>
      </trkpt>
      <trkpt lat="40.82336" lon="0.38444">
        <ele>605</ele>
        <time>2022-05-24 17:13:54</time>
      </trkpt>
      <trkpt lat="40.82334" lon="0.38446">
        <ele>605</ele>
        <time>2022-05-24 17:13:55</time>
      </trkpt>
      <trkpt lat="40.82333" lon="0.38447">
        <ele>605</ele>
        <time>2022-05-24 17:13:56</time>
      </trkpt>
      <trkpt lat="40.82331" lon="0.38448">
        <ele>605</ele>
        <time>2022-05-24 17:13:57</time>
      </trkpt>
      <trkpt lat="40.8233" lon="0.3845">
        <ele>604.8</ele>
        <time>2022-05-24 17:13:58</time>
      </trkpt>
      <trkpt lat="40.82328" lon="0.38451">
        <ele>604.8</ele>
        <time>2022-05-24 17:13:59</time>
      </trkpt>
      <trkpt lat="40.82327" lon="0.38453">
        <ele>605</ele>
        <time>2022-05-24 17:14:00</time>
      </trkpt>
      <trkpt lat="40.82327" lon="0.38455">
        <ele>605.2</ele>
        <time>2022-05-24 17:14:01</time>
      </trkpt>
      <trkpt lat="40.82325" lon="0.38457">
        <ele>605.6</ele>
        <time>2022-05-24 17:14:02</time>
      </trkpt>
      <trkpt lat="40.82324" lon="0.38458">
        <ele>605.8</ele>
        <time>2022-05-24 17:14:03</time>
      </trkpt>
      <trkpt lat="40.82323" lon="0.3846">
        <ele>605.8</ele>
        <time>2022-05-24 17:14:04</time>
      </trkpt>
      <trkpt lat="40.82322" lon="0.38462">
        <ele>606</ele>
        <time>2022-05-24 17:14:05</time>
      </trkpt>
      <trkpt lat="40.82321" lon="0.38465">
        <ele>606</ele>
        <time>2022-05-24 17:14:06</time>
      </trkpt>
      <trkpt lat="40.82319" lon="0.38467">
        <ele>606</ele>
        <time>2022-05-24 17:14:07</time>
      </trkpt>
      <trkpt lat="40.82317" lon="0.38469">
        <ele>605.8</ele>
        <time>2022-05-24 17:14:08</time>
      </trkpt>
      <trkpt lat="40.82316" lon="0.38471">
        <ele>605.6</ele>
        <time>2022-05-24 17:14:09</time>
      </trkpt>
      <trkpt lat="40.82315" lon="0.38473">
        <ele>605.6</ele>
        <time>2022-05-24 17:14:10</time>
      </trkpt>
      <trkpt lat="40.82314" lon="0.38475">
        <ele>605.6</ele>
        <time>2022-05-24 17:14:11</time>
      </trkpt>
      <trkpt lat="40.82312" lon="0.38477">
        <ele>605.4</ele>
        <time>2022-05-24 17:14:12</time>
      </trkpt>
      <trkpt lat="40.82311" lon="0.3848">
        <ele>605.4</ele>
        <time>2022-05-24 17:14:13</time>
      </trkpt>
      <trkpt lat="40.8231" lon="0.38482">
        <ele>605.4</ele>
        <time>2022-05-24 17:14:14</time>
      </trkpt>
      <trkpt lat="40.82309" lon="0.38485">
        <ele>605.4</ele>
        <time>2022-05-24 17:14:15</time>
      </trkpt>
      <trkpt lat="40.82307" lon="0.38488">
        <ele>605.4</ele>
        <time>2022-05-24 17:14:16</time>
      </trkpt>
      <trkpt lat="40.82306" lon="0.38491">
        <ele>605.4</ele>
        <time>2022-05-24 17:14:17</time>
      </trkpt>
      <trkpt lat="40.82304" lon="0.38493">
        <ele>605.4</ele>
        <time>2022-05-24 17:14:18</time>
      </trkpt>
      <trkpt lat="40.82302" lon="0.38496">
        <ele>605.4</ele>
        <time>2022-05-24 17:14:19</time>
      </trkpt>
      <trkpt lat="40.82301" lon="0.38498">
        <ele>605.4</ele>
        <time>2022-05-24 17:14:20</time>
      </trkpt>
      <trkpt lat="40.823" lon="0.38501">
        <ele>605.4</ele>
        <time>2022-05-24 17:14:21</time>
      </trkpt>
      <trkpt lat="40.82299" lon="0.38503">
        <ele>605.4</ele>
        <time>2022-05-24 17:14:22</time>
      </trkpt>
      <trkpt lat="40.82298" lon="0.38505">
        <ele>605.4</ele>
        <time>2022-05-24 17:14:23</time>
      </trkpt>
      <trkpt lat="40.82297" lon="0.38508">
        <ele>605.4</ele>
        <time>2022-05-24 17:14:24</time>
      </trkpt>
      <trkpt lat="40.82296" lon="0.38511">
        <ele>605.4</ele>
        <time>2022-05-24 17:14:25</time>
      </trkpt>
      <trkpt lat="40.82295" lon="0.38513">
        <ele>605.4</ele>
        <time>2022-05-24 17:14:26</time>
      </trkpt>
      <trkpt lat="40.82294" lon="0.38516">
        <ele>605.4</ele>
        <time>2022-05-24 17:14:27</time>
      </trkpt>
      <trkpt lat="40.82293" lon="0.38518">
        <ele>605.4</ele>
        <time>2022-05-24 17:14:28</time>
      </trkpt>
      <trkpt lat="40.82292" lon="0.38521">
        <ele>605.4</ele>
        <time>2022-05-24 17:14:29</time>
      </trkpt>
      <trkpt lat="40.82292" lon="0.38525">
        <ele>605.6</ele>
        <time>2022-05-24 17:14:30</time>
      </trkpt>
      <trkpt lat="40.82293" lon="0.38528">
        <ele>605.6</ele>
        <time>2022-05-24 17:14:31</time>
      </trkpt>
      <trkpt lat="40.82293" lon="0.38532">
        <ele>605.6</ele>
        <time>2022-05-24 17:14:32</time>
      </trkpt>
      <trkpt lat="40.82293" lon="0.38535">
        <ele>605.6</ele>
        <time>2022-05-24 17:14:33</time>
      </trkpt>
      <trkpt lat="40.82293" lon="0.38538">
        <ele>605.8</ele>
        <time>2022-05-24 17:14:34</time>
      </trkpt>
      <trkpt lat="40.82293" lon="0.38542">
        <ele>605.8</ele>
        <time>2022-05-24 17:14:35</time>
      </trkpt>
      <trkpt lat="40.82294" lon="0.38545">
        <ele>606</ele>
        <time>2022-05-24 17:14:36</time>
      </trkpt>
      <trkpt lat="40.82295" lon="0.38548">
        <ele>606</ele>
        <time>2022-05-24 17:14:37</time>
      </trkpt>
      <trkpt lat="40.82296" lon="0.38552">
        <ele>606</ele>
        <time>2022-05-24 17:14:38</time>
      </trkpt>
      <trkpt lat="40.82296" lon="0.38555">
        <ele>606.2</ele>
        <time>2022-05-24 17:14:39</time>
      </trkpt>
      <trkpt lat="40.82298" lon="0.38558">
        <ele>606.2</ele>
        <time>2022-05-24 17:14:40</time>
      </trkpt>
      <trkpt lat="40.82299" lon="0.38561">
        <ele>606.4</ele>
        <time>2022-05-24 17:14:41</time>
      </trkpt>
      <trkpt lat="40.823" lon="0.38564">
        <ele>606.6</ele>
        <time>2022-05-24 17:14:42</time>
      </trkpt>
      <trkpt lat="40.82301" lon="0.38567">
        <ele>606.6</ele>
        <time>2022-05-24 17:14:43</time>
      </trkpt>
      <trkpt lat="40.82301" lon="0.3857">
        <ele>606.6</ele>
        <time>2022-05-24 17:14:44</time>
      </trkpt>
      <trkpt lat="40.82301" lon="0.38574">
        <ele>606.6</ele>
        <time>2022-05-24 17:14:45</time>
      </trkpt>
      <trkpt lat="40.823" lon="0.38576">
        <ele>606.6</ele>
        <time>2022-05-24 17:14:46</time>
      </trkpt>
      <trkpt lat="40.82298" lon="0.38579">
        <ele>606.6</ele>
        <time>2022-05-24 17:14:47</time>
      </trkpt>
      <trkpt lat="40.82296" lon="0.38582">
        <ele>606.6</ele>
        <time>2022-05-24 17:14:48</time>
      </trkpt>
      <trkpt lat="40.82294" lon="0.38584">
        <ele>606.6</ele>
        <time>2022-05-24 17:14:49</time>
      </trkpt>
      <trkpt lat="40.82292" lon="0.38585">
        <ele>606.8</ele>
        <time>2022-05-24 17:14:50</time>
      </trkpt>
      <trkpt lat="40.82289" lon="0.38586">
        <ele>606.8</ele>
        <time>2022-05-24 17:14:51</time>
      </trkpt>
      <trkpt lat="40.82287" lon="0.38587">
        <ele>606.8</ele>
        <time>2022-05-24 17:14:52</time>
      </trkpt>
      <trkpt lat="40.82284" lon="0.38587">
        <ele>606.8</ele>
        <time>2022-05-24 17:14:53</time>
      </trkpt>
      <trkpt lat="40.82281" lon="0.38587">
        <ele>607</ele>
        <time>2022-05-24 17:14:54</time>
      </trkpt>
      <trkpt lat="40.82279" lon="0.38587">
        <ele>607</ele>
        <time>2022-05-24 17:14:55</time>
      </trkpt>
      <trkpt lat="40.82276" lon="0.38587">
        <ele>607.2</ele>
        <time>2022-05-24 17:14:56</time>
      </trkpt>
      <trkpt lat="40.82273" lon="0.38587">
        <ele>607.4</ele>
        <time>2022-05-24 17:14:57</time>
      </trkpt>
      <trkpt lat="40.82271" lon="0.38587">
        <ele>607.4</ele>
        <time>2022-05-24 17:14:58</time>
      </trkpt>
      <trkpt lat="40.82268" lon="0.38587">
        <ele>607.6</ele>
        <time>2022-05-24 17:14:59</time>
      </trkpt>
      <trkpt lat="40.82266" lon="0.38587">
        <ele>607.8</ele>
        <time>2022-05-24 17:15:00</time>
      </trkpt>
      <trkpt lat="40.82263" lon="0.38587">
        <ele>607.8</ele>
        <time>2022-05-24 17:15:01</time>
      </trkpt>
      <trkpt lat="40.82261" lon="0.38587">
        <ele>608</ele>
        <time>2022-05-24 17:15:02</time>
      </trkpt>
      <trkpt lat="40.82259" lon="0.38588">
        <ele>608</ele>
        <time>2022-05-24 17:15:03</time>
      </trkpt>
      <trkpt lat="40.82256" lon="0.38588">
        <ele>608.4</ele>
        <time>2022-05-24 17:15:04</time>
      </trkpt>
      <trkpt lat="40.82253" lon="0.38588">
        <ele>608.6</ele>
        <time>2022-05-24 17:15:05</time>
      </trkpt>
      <trkpt lat="40.82251" lon="0.38588">
        <ele>609</ele>
        <time>2022-05-24 17:15:06</time>
      </trkpt>
      <trkpt lat="40.82249" lon="0.38589">
        <ele>609.2</ele>
        <time>2022-05-24 17:15:07</time>
      </trkpt>
      <trkpt lat="40.82247" lon="0.3859">
        <ele>609.4</ele>
        <time>2022-05-24 17:15:08</time>
      </trkpt>
      <trkpt lat="40.82244" lon="0.38591">
        <ele>609.6</ele>
        <time>2022-05-24 17:15:09</time>
      </trkpt>
      <trkpt lat="40.82242" lon="0.38591">
        <ele>609.8</ele>
        <time>2022-05-24 17:15:10</time>
      </trkpt>
      <trkpt lat="40.8224" lon="0.38592">
        <ele>610</ele>
        <time>2022-05-24 17:15:11</time>
      </trkpt>
      <trkpt lat="40.82238" lon="0.38594">
        <ele>610.2</ele>
        <time>2022-05-24 17:15:12</time>
      </trkpt>
      <trkpt lat="40.82236" lon="0.38595">
        <ele>610.4</ele>
        <time>2022-05-24 17:15:13</time>
      </trkpt>
      <trkpt lat="40.82233" lon="0.38597">
        <ele>610.4</ele>
        <time>2022-05-24 17:15:14</time>
      </trkpt>
      <trkpt lat="40.82232" lon="0.38599">
        <ele>610.6</ele>
        <time>2022-05-24 17:15:15</time>
      </trkpt>
      <trkpt lat="40.8223" lon="0.386">
        <ele>611</ele>
        <time>2022-05-24 17:15:16</time>
      </trkpt>
      <trkpt lat="40.82228" lon="0.386">
        <ele>611.4</ele>
        <time>2022-05-24 17:15:17</time>
      </trkpt>
      <trkpt lat="40.82227" lon="0.38601">
        <ele>611.4</ele>
        <time>2022-05-24 17:15:18</time>
      </trkpt>
      <trkpt lat="40.82225" lon="0.38601">
        <ele>611.6</ele>
        <time>2022-05-24 17:15:19</time>
      </trkpt>
      <trkpt lat="40.82223" lon="0.38602">
        <ele>611.6</ele>
        <time>2022-05-24 17:15:20</time>
      </trkpt>
      <trkpt lat="40.82221" lon="0.38603">
        <ele>611.8</ele>
        <time>2022-05-24 17:15:21</time>
      </trkpt>
      <trkpt lat="40.82219" lon="0.38605">
        <ele>611.8</ele>
        <time>2022-05-24 17:15:22</time>
      </trkpt>
      <trkpt lat="40.82217" lon="0.38606">
        <ele>612</ele>
        <time>2022-05-24 17:15:23</time>
      </trkpt>
      <trkpt lat="40.82215" lon="0.38607">
        <ele>612</ele>
        <time>2022-05-24 17:15:24</time>
      </trkpt>
      <trkpt lat="40.82213" lon="0.38608">
        <ele>612.2</ele>
        <time>2022-05-24 17:15:25</time>
      </trkpt>
      <trkpt lat="40.82211" lon="0.38609">
        <ele>612.4</ele>
        <time>2022-05-24 17:15:26</time>
      </trkpt>
      <trkpt lat="40.82209" lon="0.3861">
        <ele>612.8</ele>
        <time>2022-05-24 17:15:27</time>
      </trkpt>
      <trkpt lat="40.82206" lon="0.3861">
        <ele>613</ele>
        <time>2022-05-24 17:15:28</time>
      </trkpt>
      <trkpt lat="40.82205" lon="0.38609">
        <ele>613.2</ele>
        <time>2022-05-24 17:15:29</time>
      </trkpt>
      <trkpt lat="40.82204" lon="0.38607">
        <ele>613.4</ele>
        <time>2022-05-24 17:15:30</time>
      </trkpt>
      <trkpt lat="40.82203" lon="0.38605">
        <ele>613.6</ele>
        <time>2022-05-24 17:15:31</time>
      </trkpt>
      <trkpt lat="40.82203" lon="0.38603">
        <ele>613.8</ele>
        <time>2022-05-24 17:15:32</time>
      </trkpt>
      <trkpt lat="40.82204" lon="0.386">
        <ele>614</ele>
        <time>2022-05-24 17:15:33</time>
      </trkpt>
      <trkpt lat="40.82206" lon="0.38598">
        <ele>614.2</ele>
        <time>2022-05-24 17:15:34</time>
      </trkpt>
      <trkpt lat="40.82207" lon="0.38596">
        <ele>614.4</ele>
        <time>2022-05-24 17:15:35</time>
      </trkpt>
      <trkpt lat="40.82209" lon="0.38594">
        <ele>614.6</ele>
        <time>2022-05-24 17:15:36</time>
      </trkpt>
      <trkpt lat="40.82211" lon="0.38593">
        <ele>614.6</ele>
        <time>2022-05-24 17:15:37</time>
      </trkpt>
      <trkpt lat="40.82213" lon="0.38592">
        <ele>614.8</ele>
        <time>2022-05-24 17:15:38</time>
      </trkpt>
      <trkpt lat="40.82216" lon="0.38591">
        <ele>614.8</ele>
        <time>2022-05-24 17:15:39</time>
      </trkpt>
      <trkpt lat="40.82217" lon="0.3859">
        <ele>614.8</ele>
        <time>2022-05-24 17:15:40</time>
      </trkpt>
      <trkpt lat="40.82219" lon="0.38589">
        <ele>614.8</ele>
        <time>2022-05-24 17:15:41</time>
      </trkpt>
      <trkpt lat="40.82221" lon="0.38588">
        <ele>615.2</ele>
        <time>2022-05-24 17:15:42</time>
      </trkpt>
      <trkpt lat="40.82223" lon="0.38587">
        <ele>615.4</ele>
        <time>2022-05-24 17:15:43</time>
      </trkpt>
      <trkpt lat="40.82225" lon="0.38585">
        <ele>616</ele>
        <time>2022-05-24 17:15:44</time>
      </trkpt>
      <trkpt lat="40.82227" lon="0.38584">
        <ele>616.2</ele>
        <time>2022-05-24 17:15:45</time>
      </trkpt>
      <trkpt lat="40.82228" lon="0.38583">
        <ele>616.4</ele>
        <time>2022-05-24 17:15:46</time>
      </trkpt>
      <trkpt lat="40.8223" lon="0.38582">
        <ele>616.6</ele>
        <time>2022-05-24 17:15:47</time>
      </trkpt>
      <trkpt lat="40.82232" lon="0.38581">
        <ele>616.8</ele>
        <time>2022-05-24 17:15:48</time>
      </trkpt>
      <trkpt lat="40.82234" lon="0.3858">
        <ele>616.8</ele>
        <time>2022-05-24 17:15:49</time>
      </trkpt>
      <trkpt lat="40.82235" lon="0.38579">
        <ele>617</ele>
        <time>2022-05-24 17:15:50</time>
      </trkpt>
      <trkpt lat="40.82237" lon="0.38578">
        <ele>617</ele>
        <time>2022-05-24 17:15:51</time>
      </trkpt>
      <trkpt lat="40.82239" lon="0.38578">
        <ele>617</ele>
        <time>2022-05-24 17:15:52</time>
      </trkpt>
      <trkpt lat="40.82241" lon="0.38577">
        <ele>617.2</ele>
        <time>2022-05-24 17:15:53</time>
      </trkpt>
      <trkpt lat="40.82242" lon="0.38576">
        <ele>617.2</ele>
        <time>2022-05-24 17:15:54</time>
      </trkpt>
      <trkpt lat="40.82244" lon="0.38575">
        <ele>617.2</ele>
        <time>2022-05-24 17:15:55</time>
      </trkpt>
      <trkpt lat="40.82245" lon="0.38574">
        <ele>617.4</ele>
        <time>2022-05-24 17:15:56</time>
      </trkpt>
      <trkpt lat="40.82247" lon="0.38573">
        <ele>617.6</ele>
        <time>2022-05-24 17:15:57</time>
      </trkpt>
      <trkpt lat="40.82248" lon="0.38572">
        <ele>617.8</ele>
        <time>2022-05-24 17:15:58</time>
      </trkpt>
      <trkpt lat="40.8225" lon="0.38571">
        <ele>618</ele>
        <time>2022-05-24 17:15:59</time>
      </trkpt>
      <trkpt lat="40.82251" lon="0.3857">
        <ele>618</ele>
        <time>2022-05-24 17:16:00</time>
      </trkpt>
      <trkpt lat="40.82253" lon="0.38568">
        <ele>618.2</ele>
        <time>2022-05-24 17:16:01</time>
      </trkpt>
      <trkpt lat="40.82254" lon="0.38567">
        <ele>618.4</ele>
        <time>2022-05-24 17:16:02</time>
      </trkpt>
      <trkpt lat="40.82255" lon="0.38566">
        <ele>618.6</ele>
        <time>2022-05-24 17:16:03</time>
      </trkpt>
      <trkpt lat="40.82257" lon="0.38565">
        <ele>618.8</ele>
        <time>2022-05-24 17:16:04</time>
      </trkpt>
      <trkpt lat="40.82258" lon="0.38564">
        <ele>619.4</ele>
        <time>2022-05-24 17:16:05</time>
      </trkpt>
      <trkpt lat="40.82259" lon="0.38562">
        <ele>619.6</ele>
        <time>2022-05-24 17:16:06</time>
      </trkpt>
      <trkpt lat="40.82261" lon="0.38561">
        <ele>619.8</ele>
        <time>2022-05-24 17:16:07</time>
      </trkpt>
      <trkpt lat="40.82262" lon="0.3856">
        <ele>620</ele>
        <time>2022-05-24 17:16:08</time>
      </trkpt>
      <trkpt lat="40.82262" lon="0.38558">
        <ele>620</ele>
        <time>2022-05-24 17:16:09</time>
      </trkpt>
      <trkpt lat="40.82263" lon="0.38556">
        <ele>620.2</ele>
        <time>2022-05-24 17:16:10</time>
      </trkpt>
      <trkpt lat="40.82264" lon="0.38554">
        <ele>620.4</ele>
        <time>2022-05-24 17:16:11</time>
      </trkpt>
      <trkpt lat="40.82264" lon="0.38552">
        <ele>620.4</ele>
        <time>2022-05-24 17:16:12</time>
      </trkpt>
      <trkpt lat="40.82265" lon="0.3855">
        <ele>620.6</ele>
        <time>2022-05-24 17:16:13</time>
      </trkpt>
      <trkpt lat="40.82266" lon="0.38548">
        <ele>620.6</ele>
        <time>2022-05-24 17:16:14</time>
      </trkpt>
      <trkpt lat="40.82266" lon="0.38546">
        <ele>620.6</ele>
        <time>2022-05-24 17:16:15</time>
      </trkpt>
      <trkpt lat="40.82267" lon="0.38543">
        <ele>620.6</ele>
        <time>2022-05-24 17:16:16</time>
      </trkpt>
      <trkpt lat="40.82267" lon="0.38541">
        <ele>620.8</ele>
        <time>2022-05-24 17:16:17</time>
      </trkpt>
      <trkpt lat="40.82267" lon="0.38539">
        <ele>621</ele>
        <time>2022-05-24 17:16:18</time>
      </trkpt>
      <trkpt lat="40.82267" lon="0.38536">
        <ele>621.4</ele>
        <time>2022-05-24 17:16:19</time>
      </trkpt>
      <trkpt lat="40.82267" lon="0.38534">
        <ele>621.8</ele>
        <time>2022-05-24 17:16:20</time>
      </trkpt>
      <trkpt lat="40.82266" lon="0.38532">
        <ele>621.6</ele>
        <time>2022-05-24 17:16:21</time>
      </trkpt>
      <trkpt lat="40.82266" lon="0.38529">
        <ele>621.4</ele>
        <time>2022-05-24 17:16:22</time>
      </trkpt>
      <trkpt lat="40.82266" lon="0.38527">
        <ele>621.2</ele>
        <time>2022-05-24 17:16:23</time>
      </trkpt>
      <trkpt lat="40.82265" lon="0.38525">
        <ele>621.4</ele>
        <time>2022-05-24 17:16:24</time>
      </trkpt>
      <trkpt lat="40.82264" lon="0.38523">
        <ele>621.4</ele>
        <time>2022-05-24 17:16:25</time>
      </trkpt>
      <trkpt lat="40.82264" lon="0.3852">
        <ele>621.6</ele>
        <time>2022-05-24 17:16:26</time>
      </trkpt>
      <trkpt lat="40.82264" lon="0.38518">
        <ele>621.8</ele>
        <time>2022-05-24 17:16:27</time>
      </trkpt>
      <trkpt lat="40.82263" lon="0.38516">
        <ele>622</ele>
        <time>2022-05-24 17:16:28</time>
      </trkpt>
      <trkpt lat="40.82262" lon="0.38515">
        <ele>622.2</ele>
        <time>2022-05-24 17:16:29</time>
      </trkpt>
      <trkpt lat="40.82262" lon="0.38513">
        <ele>622.4</ele>
        <time>2022-05-24 17:16:30</time>
      </trkpt>
      <trkpt lat="40.82262" lon="0.3851">
        <ele>622.6</ele>
        <time>2022-05-24 17:16:31</time>
      </trkpt>
      <trkpt lat="40.82262" lon="0.38508">
        <ele>622.8</ele>
        <time>2022-05-24 17:16:32</time>
      </trkpt>
      <trkpt lat="40.82262" lon="0.38506">
        <ele>622.8</ele>
        <time>2022-05-24 17:16:33</time>
      </trkpt>
      <trkpt lat="40.82262" lon="0.38504">
        <ele>623</ele>
        <time>2022-05-24 17:16:34</time>
      </trkpt>
      <trkpt lat="40.82262" lon="0.38502">
        <ele>623.4</ele>
        <time>2022-05-24 17:16:35</time>
      </trkpt>
      <trkpt lat="40.82262" lon="0.385">
        <ele>623.8</ele>
        <time>2022-05-24 17:16:36</time>
      </trkpt>
      <trkpt lat="40.82263" lon="0.38498">
        <ele>624</ele>
        <time>2022-05-24 17:16:37</time>
      </trkpt>
      <trkpt lat="40.82263" lon="0.38496">
        <ele>624.2</ele>
        <time>2022-05-24 17:16:38</time>
      </trkpt>
      <trkpt lat="40.82263" lon="0.38494">
        <ele>624.2</ele>
        <time>2022-05-24 17:16:39</time>
      </trkpt>
      <trkpt lat="40.82264" lon="0.38492">
        <ele>624.4</ele>
        <time>2022-05-24 17:16:40</time>
      </trkpt>
      <trkpt lat="40.82264" lon="0.3849">
        <ele>624.6</ele>
        <time>2022-05-24 17:16:41</time>
      </trkpt>
      <trkpt lat="40.82264" lon="0.38489">
        <ele>624.8</ele>
        <time>2022-05-24 17:16:42</time>
      </trkpt>
      <trkpt lat="40.82265" lon="0.38487">
        <ele>625</ele>
        <time>2022-05-24 17:16:43</time>
      </trkpt>
      <trkpt lat="40.82265" lon="0.38484">
        <ele>625.2</ele>
        <time>2022-05-24 17:16:44</time>
      </trkpt>
      <trkpt lat="40.82265" lon="0.38482">
        <ele>625.4</ele>
        <time>2022-05-24 17:16:45</time>
      </trkpt>
      <trkpt lat="40.82265" lon="0.3848">
        <ele>625.8</ele>
        <time>2022-05-24 17:16:46</time>
      </trkpt>
      <trkpt lat="40.82266" lon="0.38478">
        <ele>626</ele>
        <time>2022-05-24 17:16:47</time>
      </trkpt>
      <trkpt lat="40.82267" lon="0.38476">
        <ele>626.2</ele>
        <time>2022-05-24 17:16:48</time>
      </trkpt>
      <trkpt lat="40.82268" lon="0.38475">
        <ele>626.2</ele>
        <time>2022-05-24 17:16:49</time>
      </trkpt>
      <trkpt lat="40.82269" lon="0.38473">
        <ele>626.4</ele>
        <time>2022-05-24 17:16:50</time>
      </trkpt>
      <trkpt lat="40.8227" lon="0.38471">
        <ele>626.6</ele>
        <time>2022-05-24 17:16:51</time>
      </trkpt>
      <trkpt lat="40.8227" lon="0.3847">
        <ele>626.6</ele>
        <time>2022-05-24 17:16:52</time>
      </trkpt>
      <trkpt lat="40.82271" lon="0.38468">
        <ele>626.6</ele>
        <time>2022-05-24 17:16:53</time>
      </trkpt>
      <trkpt lat="40.82272" lon="0.38466">
        <ele>626.8</ele>
        <time>2022-05-24 17:16:54</time>
      </trkpt>
      <trkpt lat="40.82272" lon="0.38464">
        <ele>627</ele>
        <time>2022-05-24 17:16:55</time>
      </trkpt>
      <trkpt lat="40.82273" lon="0.38462">
        <ele>627.2</ele>
        <time>2022-05-24 17:16:56</time>
      </trkpt>
      <trkpt lat="40.82273" lon="0.38459">
        <ele>627.4</ele>
        <time>2022-05-24 17:16:57</time>
      </trkpt>
      <trkpt lat="40.82274" lon="0.38457">
        <ele>627.6</ele>
        <time>2022-05-24 17:16:58</time>
      </trkpt>
      <trkpt lat="40.82275" lon="0.38455">
        <ele>627.8</ele>
        <time>2022-05-24 17:16:59</time>
      </trkpt>
      <trkpt lat="40.82276" lon="0.38453">
        <ele>628</ele>
        <time>2022-05-24 17:17:00</time>
      </trkpt>
      <trkpt lat="40.82276" lon="0.38451">
        <ele>628.2</ele>
        <time>2022-05-24 17:17:01</time>
      </trkpt>
      <trkpt lat="40.82277" lon="0.38449">
        <ele>628.4</ele>
        <time>2022-05-24 17:17:02</time>
      </trkpt>
      <trkpt lat="40.82277" lon="0.38447">
        <ele>628.8</ele>
        <time>2022-05-24 17:17:03</time>
      </trkpt>
      <trkpt lat="40.82277" lon="0.38445">
        <ele>629</ele>
        <time>2022-05-24 17:17:04</time>
      </trkpt>
      <trkpt lat="40.82278" lon="0.38443">
        <ele>629.2</ele>
        <time>2022-05-24 17:17:05</time>
      </trkpt>
      <trkpt lat="40.82278" lon="0.38441">
        <ele>629.6</ele>
        <time>2022-05-24 17:17:06</time>
      </trkpt>
      <trkpt lat="40.82278" lon="0.38439">
        <ele>630</ele>
        <time>2022-05-24 17:17:07</time>
      </trkpt>
      <trkpt lat="40.82278" lon="0.38437">
        <ele>630.2</ele>
        <time>2022-05-24 17:17:08</time>
      </trkpt>
      <trkpt lat="40.82279" lon="0.38435">
        <ele>630.4</ele>
        <time>2022-05-24 17:17:09</time>
      </trkpt>
      <trkpt lat="40.8228" lon="0.38433">
        <ele>630.6</ele>
        <time>2022-05-24 17:17:10</time>
      </trkpt>
      <trkpt lat="40.8228" lon="0.38431">
        <ele>630.6</ele>
        <time>2022-05-24 17:17:11</time>
      </trkpt>
      <trkpt lat="40.82281" lon="0.3843">
        <ele>630.8</ele>
        <time>2022-05-24 17:17:12</time>
      </trkpt>
      <trkpt lat="40.82281" lon="0.38428">
        <ele>631</ele>
        <time>2022-05-24 17:17:13</time>
      </trkpt>
      <trkpt lat="40.82282" lon="0.38426">
        <ele>631.2</ele>
        <time>2022-05-24 17:17:14</time>
      </trkpt>
      <trkpt lat="40.82281" lon="0.38424">
        <ele>631.4</ele>
        <time>2022-05-24 17:17:15</time>
      </trkpt>
      <trkpt lat="40.82281" lon="0.38422">
        <ele>631.6</ele>
        <time>2022-05-24 17:17:16</time>
      </trkpt>
      <trkpt lat="40.82281" lon="0.3842">
        <ele>631.8</ele>
        <time>2022-05-24 17:17:17</time>
      </trkpt>
      <trkpt lat="40.82282" lon="0.38417">
        <ele>632</ele>
        <time>2022-05-24 17:17:18</time>
      </trkpt>
      <trkpt lat="40.82283" lon="0.38415">
        <ele>632</ele>
        <time>2022-05-24 17:17:19</time>
      </trkpt>
      <trkpt lat="40.82283" lon="0.38412">
        <ele>632.2</ele>
        <time>2022-05-24 17:17:20</time>
      </trkpt>
      <trkpt lat="40.82283" lon="0.3841">
        <ele>632.4</ele>
        <time>2022-05-24 17:17:21</time>
      </trkpt>
      <trkpt lat="40.82283" lon="0.38408">
        <ele>632.6</ele>
        <time>2022-05-24 17:17:22</time>
      </trkpt>
      <trkpt lat="40.82284" lon="0.38406">
        <ele>632.8</ele>
        <time>2022-05-24 17:17:23</time>
      </trkpt>
      <trkpt lat="40.82284" lon="0.38404">
        <ele>632.8</ele>
        <time>2022-05-24 17:17:24</time>
      </trkpt>
      <trkpt lat="40.82285" lon="0.38402">
        <ele>633</ele>
        <time>2022-05-24 17:17:25</time>
      </trkpt>
      <trkpt lat="40.82286" lon="0.384">
        <ele>633</ele>
        <time>2022-05-24 17:17:26</time>
      </trkpt>
      <trkpt lat="40.82286" lon="0.38398">
        <ele>633</ele>
        <time>2022-05-24 17:17:27</time>
      </trkpt>
      <trkpt lat="40.82287" lon="0.38397">
        <ele>633</ele>
        <time>2022-05-24 17:17:28</time>
      </trkpt>
      <trkpt lat="40.82288" lon="0.38395">
        <ele>633</ele>
        <time>2022-05-24 17:17:29</time>
      </trkpt>
      <trkpt lat="40.82289" lon="0.38393">
        <ele>633.4</ele>
        <time>2022-05-24 17:17:30</time>
      </trkpt>
      <trkpt lat="40.8229" lon="0.38392">
        <ele>633.6</ele>
        <time>2022-05-24 17:17:31</time>
      </trkpt>
      <trkpt lat="40.8229" lon="0.3839">
        <ele>634</ele>
        <time>2022-05-24 17:17:32</time>
      </trkpt>
      <trkpt lat="40.82291" lon="0.38388">
        <ele>634</ele>
        <time>2022-05-24 17:17:33</time>
      </trkpt>
      <trkpt lat="40.82292" lon="0.38387">
        <ele>634.2</ele>
        <time>2022-05-24 17:17:34</time>
      </trkpt>
      <trkpt lat="40.82292" lon="0.38385">
        <ele>634.6</ele>
        <time>2022-05-24 17:17:35</time>
      </trkpt>
      <trkpt lat="40.82293" lon="0.38383">
        <ele>634.8</ele>
        <time>2022-05-24 17:17:36</time>
      </trkpt>
      <trkpt lat="40.82294" lon="0.38382">
        <ele>635.2</ele>
        <time>2022-05-24 17:17:37</time>
      </trkpt>
      <trkpt lat="40.82295" lon="0.3838">
        <ele>635.4</ele>
        <time>2022-05-24 17:17:38</time>
      </trkpt>
      <trkpt lat="40.82295" lon="0.38378">
        <ele>635.8</ele>
        <time>2022-05-24 17:17:39</time>
      </trkpt>
      <trkpt lat="40.82296" lon="0.38376">
        <ele>636</ele>
        <time>2022-05-24 17:17:40</time>
      </trkpt>
      <trkpt lat="40.82296" lon="0.38375">
        <ele>636.2</ele>
        <time>2022-05-24 17:17:41</time>
      </trkpt>
      <trkpt lat="40.82297" lon="0.38373">
        <ele>636.4</ele>
        <time>2022-05-24 17:17:42</time>
      </trkpt>
      <trkpt lat="40.82298" lon="0.38372">
        <ele>636.6</ele>
        <time>2022-05-24 17:17:43</time>
      </trkpt>
      <trkpt lat="40.82299" lon="0.3837">
        <ele>636.8</ele>
        <time>2022-05-24 17:17:44</time>
      </trkpt>
      <trkpt lat="40.82299" lon="0.38368">
        <ele>637</ele>
        <time>2022-05-24 17:17:45</time>
      </trkpt>
      <trkpt lat="40.82299" lon="0.38366">
        <ele>637.2</ele>
        <time>2022-05-24 17:17:46</time>
      </trkpt>
      <trkpt lat="40.823" lon="0.38364">
        <ele>637.2</ele>
        <time>2022-05-24 17:17:47</time>
      </trkpt>
      <trkpt lat="40.82301" lon="0.38362">
        <ele>637.2</ele>
        <time>2022-05-24 17:17:48</time>
      </trkpt>
      <trkpt lat="40.82301" lon="0.38361">
        <ele>637.4</ele>
        <time>2022-05-24 17:17:49</time>
      </trkpt>
      <trkpt lat="40.82302" lon="0.38359">
        <ele>637.4</ele>
        <time>2022-05-24 17:17:50</time>
      </trkpt>
      <trkpt lat="40.82302" lon="0.38357">
        <ele>637.4</ele>
        <time>2022-05-24 17:17:51</time>
      </trkpt>
      <trkpt lat="40.82303" lon="0.38355">
        <ele>637.4</ele>
        <time>2022-05-24 17:17:52</time>
      </trkpt>
      <trkpt lat="40.82303" lon="0.38354">
        <ele>637.4</ele>
        <time>2022-05-24 17:17:53</time>
      </trkpt>
      <trkpt lat="40.82303" lon="0.38352">
        <ele>637.4</ele>
        <time>2022-05-24 17:17:54</time>
      </trkpt>
      <trkpt lat="40.82304" lon="0.3835">
        <ele>637.6</ele>
        <time>2022-05-24 17:17:55</time>
      </trkpt>
      <trkpt lat="40.82304" lon="0.38348">
        <ele>637.8</ele>
        <time>2022-05-24 17:17:56</time>
      </trkpt>
      <trkpt lat="40.82304" lon="0.38346">
        <ele>638.2</ele>
        <time>2022-05-24 17:17:57</time>
      </trkpt>
      <trkpt lat="40.82305" lon="0.38344">
        <ele>638.4</ele>
        <time>2022-05-24 17:17:58</time>
      </trkpt>
      <trkpt lat="40.82305" lon="0.38342">
        <ele>638.8</ele>
        <time>2022-05-24 17:17:59</time>
      </trkpt>
      <trkpt lat="40.82305" lon="0.3834">
        <ele>639</ele>
        <time>2022-05-24 17:18:00</time>
      </trkpt>
      <trkpt lat="40.82305" lon="0.38338">
        <ele>639</ele>
        <time>2022-05-24 17:18:01</time>
      </trkpt>
      <trkpt lat="40.82305" lon="0.38336">
        <ele>639</ele>
        <time>2022-05-24 17:18:02</time>
      </trkpt>
      <trkpt lat="40.82305" lon="0.38334">
        <ele>639</ele>
        <time>2022-05-24 17:18:03</time>
      </trkpt>
      <trkpt lat="40.82305" lon="0.38332">
        <ele>639</ele>
        <time>2022-05-24 17:18:04</time>
      </trkpt>
      <trkpt lat="40.82305" lon="0.38331">
        <ele>639.2</ele>
        <time>2022-05-24 17:18:05</time>
      </trkpt>
      <trkpt lat="40.82305" lon="0.38329">
        <ele>639.2</ele>
        <time>2022-05-24 17:18:06</time>
      </trkpt>
      <trkpt lat="40.82305" lon="0.38327">
        <ele>639.4</ele>
        <time>2022-05-24 17:18:07</time>
      </trkpt>
      <trkpt lat="40.82305" lon="0.38325">
        <ele>639.6</ele>
        <time>2022-05-24 17:18:08</time>
      </trkpt>
      <trkpt lat="40.82305" lon="0.38323">
        <ele>639.8</ele>
        <time>2022-05-24 17:18:09</time>
      </trkpt>
      <trkpt lat="40.82305" lon="0.38321">
        <ele>640</ele>
        <time>2022-05-24 17:18:10</time>
      </trkpt>
      <trkpt lat="40.82305" lon="0.38319">
        <ele>640.4</ele>
        <time>2022-05-24 17:18:11</time>
      </trkpt>
      <trkpt lat="40.82305" lon="0.38317">
        <ele>640.4</ele>
        <time>2022-05-24 17:18:12</time>
      </trkpt>
      <trkpt lat="40.82305" lon="0.38315">
        <ele>640.6</ele>
        <time>2022-05-24 17:18:13</time>
      </trkpt>
      <trkpt lat="40.82305" lon="0.38314">
        <ele>640.6</ele>
        <time>2022-05-24 17:18:14</time>
      </trkpt>
      <trkpt lat="40.82304" lon="0.38312">
        <ele>640.8</ele>
        <time>2022-05-24 17:18:15</time>
      </trkpt>
      <trkpt lat="40.82304" lon="0.3831">
        <ele>641.2</ele>
        <time>2022-05-24 17:18:16</time>
      </trkpt>
      <trkpt lat="40.82304" lon="0.38308">
        <ele>641.4</ele>
        <time>2022-05-24 17:18:17</time>
      </trkpt>
      <trkpt lat="40.82304" lon="0.38306">
        <ele>641.4</ele>
        <time>2022-05-24 17:18:18</time>
      </trkpt>
      <trkpt lat="40.82304" lon="0.38304">
        <ele>641.6</ele>
        <time>2022-05-24 17:18:19</time>
      </trkpt>
      <trkpt lat="40.82304" lon="0.38302">
        <ele>641.6</ele>
        <time>2022-05-24 17:18:20</time>
      </trkpt>
      <trkpt lat="40.82304" lon="0.383">
        <ele>641.8</ele>
        <time>2022-05-24 17:18:21</time>
      </trkpt>
      <trkpt lat="40.82304" lon="0.38298">
        <ele>642</ele>
        <time>2022-05-24 17:18:22</time>
      </trkpt>
      <trkpt lat="40.82304" lon="0.38296">
        <ele>642.2</ele>
        <time>2022-05-24 17:18:23</time>
      </trkpt>
      <trkpt lat="40.82304" lon="0.38294">
        <ele>642.2</ele>
        <time>2022-05-24 17:18:24</time>
      </trkpt>
      <trkpt lat="40.82304" lon="0.38292">
        <ele>642.2</ele>
        <time>2022-05-24 17:18:25</time>
      </trkpt>
      <trkpt lat="40.82304" lon="0.3829">
        <ele>642.2</ele>
        <time>2022-05-24 17:18:26</time>
      </trkpt>
      <trkpt lat="40.82304" lon="0.38288">
        <ele>642.4</ele>
        <time>2022-05-24 17:18:27</time>
      </trkpt>
      <trkpt lat="40.82304" lon="0.38286">
        <ele>642.6</ele>
        <time>2022-05-24 17:18:28</time>
      </trkpt>
      <trkpt lat="40.82304" lon="0.38284">
        <ele>642.6</ele>
        <time>2022-05-24 17:18:29</time>
      </trkpt>
      <trkpt lat="40.82305" lon="0.38282">
        <ele>642.8</ele>
        <time>2022-05-24 17:18:30</time>
      </trkpt>
      <trkpt lat="40.82305" lon="0.3828">
        <ele>643</ele>
        <time>2022-05-24 17:18:31</time>
      </trkpt>
      <trkpt lat="40.82305" lon="0.38278">
        <ele>643.4</ele>
        <time>2022-05-24 17:18:32</time>
      </trkpt>
      <trkpt lat="40.82305" lon="0.38277">
        <ele>643.4</ele>
        <time>2022-05-24 17:18:33</time>
      </trkpt>
      <trkpt lat="40.82305" lon="0.38275">
        <ele>643.6</ele>
        <time>2022-05-24 17:18:34</time>
      </trkpt>
      <trkpt lat="40.82305" lon="0.38273">
        <ele>643.8</ele>
        <time>2022-05-24 17:18:35</time>
      </trkpt>
      <trkpt lat="40.82305" lon="0.38271">
        <ele>644</ele>
        <time>2022-05-24 17:18:36</time>
      </trkpt>
      <trkpt lat="40.82306" lon="0.38269">
        <ele>644.2</ele>
        <time>2022-05-24 17:18:37</time>
      </trkpt>
      <trkpt lat="40.82306" lon="0.38266">
        <ele>644.4</ele>
        <time>2022-05-24 17:18:38</time>
      </trkpt>
      <trkpt lat="40.82306" lon="0.38264">
        <ele>644.6</ele>
        <time>2022-05-24 17:18:39</time>
      </trkpt>
      <trkpt lat="40.82307" lon="0.38262">
        <ele>644.6</ele>
        <time>2022-05-24 17:18:40</time>
      </trkpt>
      <trkpt lat="40.82307" lon="0.3826">
        <ele>644.8</ele>
        <time>2022-05-24 17:18:41</time>
      </trkpt>
      <trkpt lat="40.82307" lon="0.38257">
        <ele>644.8</ele>
        <time>2022-05-24 17:18:42</time>
      </trkpt>
      <trkpt lat="40.82307" lon="0.38255">
        <ele>645</ele>
        <time>2022-05-24 17:18:43</time>
      </trkpt>
      <trkpt lat="40.82307" lon="0.38253">
        <ele>645.2</ele>
        <time>2022-05-24 17:18:44</time>
      </trkpt>
      <trkpt lat="40.82307" lon="0.38251">
        <ele>645.4</ele>
        <time>2022-05-24 17:18:45</time>
      </trkpt>
      <trkpt lat="40.82308" lon="0.38249">
        <ele>645.6</ele>
        <time>2022-05-24 17:18:46</time>
      </trkpt>
      <trkpt lat="40.82308" lon="0.38247">
        <ele>645.8</ele>
        <time>2022-05-24 17:18:47</time>
      </trkpt>
      <trkpt lat="40.82308" lon="0.38245">
        <ele>646</ele>
        <time>2022-05-24 17:18:48</time>
      </trkpt>
      <trkpt lat="40.82309" lon="0.38243">
        <ele>646.2</ele>
        <time>2022-05-24 17:18:49</time>
      </trkpt>
      <trkpt lat="40.82309" lon="0.3824">
        <ele>646.6</ele>
        <time>2022-05-24 17:18:50</time>
      </trkpt>
      <trkpt lat="40.82309" lon="0.38238">
        <ele>646.8</ele>
        <time>2022-05-24 17:18:51</time>
      </trkpt>
      <trkpt lat="40.82309" lon="0.38236">
        <ele>647</ele>
        <time>2022-05-24 17:18:52</time>
      </trkpt>
      <trkpt lat="40.8231" lon="0.38234">
        <ele>647.4</ele>
        <time>2022-05-24 17:18:53</time>
      </trkpt>
      <trkpt lat="40.8231" lon="0.38231">
        <ele>647.6</ele>
        <time>2022-05-24 17:18:54</time>
      </trkpt>
      <trkpt lat="40.8231" lon="0.38229">
        <ele>647.8</ele>
        <time>2022-05-24 17:18:55</time>
      </trkpt>
      <trkpt lat="40.82311" lon="0.38227">
        <ele>648</ele>
        <time>2022-05-24 17:18:56</time>
      </trkpt>
      <trkpt lat="40.82311" lon="0.38225">
        <ele>648.2</ele>
        <time>2022-05-24 17:18:57</time>
      </trkpt>
      <trkpt lat="40.82311" lon="0.38223">
        <ele>648.4</ele>
        <time>2022-05-24 17:18:58</time>
      </trkpt>
      <trkpt lat="40.82311" lon="0.38221">
        <ele>648.6</ele>
        <time>2022-05-24 17:18:59</time>
      </trkpt>
      <trkpt lat="40.82312" lon="0.38219">
        <ele>648.8</ele>
        <time>2022-05-24 17:19:00</time>
      </trkpt>
      <trkpt lat="40.82312" lon="0.38217">
        <ele>648.8</ele>
        <time>2022-05-24 17:19:01</time>
      </trkpt>
      <trkpt lat="40.82312" lon="0.38215">
        <ele>649</ele>
        <time>2022-05-24 17:19:02</time>
      </trkpt>
      <trkpt lat="40.82313" lon="0.38214">
        <ele>649.2</ele>
        <time>2022-05-24 17:19:03</time>
      </trkpt>
      <trkpt lat="40.82313" lon="0.38212">
        <ele>649.6</ele>
        <time>2022-05-24 17:19:04</time>
      </trkpt>
      <trkpt lat="40.82313" lon="0.3821">
        <ele>649.6</ele>
        <time>2022-05-24 17:19:05</time>
      </trkpt>
      <trkpt lat="40.82313" lon="0.38208">
        <ele>649.8</ele>
        <time>2022-05-24 17:19:06</time>
      </trkpt>
      <trkpt lat="40.82313" lon="0.38206">
        <ele>650</ele>
        <time>2022-05-24 17:19:07</time>
      </trkpt>
      <trkpt lat="40.82314" lon="0.38204">
        <ele>650.2</ele>
        <time>2022-05-24 17:19:08</time>
      </trkpt>
      <trkpt lat="40.82314" lon="0.38202">
        <ele>650.4</ele>
        <time>2022-05-24 17:19:09</time>
      </trkpt>
      <trkpt lat="40.82314" lon="0.382">
        <ele>650.6</ele>
        <time>2022-05-24 17:19:10</time>
      </trkpt>
      <trkpt lat="40.82314" lon="0.38198">
        <ele>650.8</ele>
        <time>2022-05-24 17:19:11</time>
      </trkpt>
      <trkpt lat="40.82315" lon="0.38196">
        <ele>651</ele>
        <time>2022-05-24 17:19:12</time>
      </trkpt>
      <trkpt lat="40.82315" lon="0.38195">
        <ele>651.2</ele>
        <time>2022-05-24 17:19:13</time>
      </trkpt>
      <trkpt lat="40.82315" lon="0.38193">
        <ele>651.4</ele>
        <time>2022-05-24 17:19:14</time>
      </trkpt>
      <trkpt lat="40.82316" lon="0.38191">
        <ele>651.6</ele>
        <time>2022-05-24 17:19:15</time>
      </trkpt>
      <trkpt lat="40.82316" lon="0.38189">
        <ele>652</ele>
        <time>2022-05-24 17:19:16</time>
      </trkpt>
      <trkpt lat="40.82316" lon="0.38187">
        <ele>652</ele>
        <time>2022-05-24 17:19:17</time>
      </trkpt>
      <trkpt lat="40.82317" lon="0.38185">
        <ele>652.2</ele>
        <time>2022-05-24 17:19:18</time>
      </trkpt>
      <trkpt lat="40.82317" lon="0.38183">
        <ele>652.2</ele>
        <time>2022-05-24 17:19:19</time>
      </trkpt>
      <trkpt lat="40.82317" lon="0.38181">
        <ele>652.4</ele>
        <time>2022-05-24 17:19:20</time>
      </trkpt>
      <trkpt lat="40.82317" lon="0.38179">
        <ele>652.6</ele>
        <time>2022-05-24 17:19:21</time>
      </trkpt>
      <trkpt lat="40.82317" lon="0.38177">
        <ele>652.8</ele>
        <time>2022-05-24 17:19:22</time>
      </trkpt>
      <trkpt lat="40.82317" lon="0.38175">
        <ele>652.8</ele>
        <time>2022-05-24 17:19:23</time>
      </trkpt>
      <trkpt lat="40.82317" lon="0.38173">
        <ele>653</ele>
        <time>2022-05-24 17:19:24</time>
      </trkpt>
      <trkpt lat="40.82317" lon="0.38171">
        <ele>653.2</ele>
        <time>2022-05-24 17:19:25</time>
      </trkpt>
      <trkpt lat="40.82317" lon="0.38169">
        <ele>653.4</ele>
        <time>2022-05-24 17:19:26</time>
      </trkpt>
      <trkpt lat="40.82317" lon="0.38167">
        <ele>653.6</ele>
        <time>2022-05-24 17:19:27</time>
      </trkpt>
      <trkpt lat="40.82317" lon="0.38165">
        <ele>653.6</ele>
        <time>2022-05-24 17:19:28</time>
      </trkpt>
      <trkpt lat="40.82318" lon="0.38163">
        <ele>653.8</ele>
        <time>2022-05-24 17:19:29</time>
      </trkpt>
      <trkpt lat="40.82318" lon="0.38161">
        <ele>653.8</ele>
        <time>2022-05-24 17:19:30</time>
      </trkpt>
      <trkpt lat="40.82318" lon="0.38159">
        <ele>653.8</ele>
        <time>2022-05-24 17:19:31</time>
      </trkpt>
      <trkpt lat="40.82318" lon="0.38157">
        <ele>653.8</ele>
        <time>2022-05-24 17:19:32</time>
      </trkpt>
      <trkpt lat="40.82319" lon="0.38155">
        <ele>653.8</ele>
        <time>2022-05-24 17:19:33</time>
      </trkpt>
      <trkpt lat="40.82319" lon="0.38153">
        <ele>654</ele>
        <time>2022-05-24 17:19:34</time>
      </trkpt>
      <trkpt lat="40.82319" lon="0.38151">
        <ele>654</ele>
        <time>2022-05-24 17:19:35</time>
      </trkpt>
      <trkpt lat="40.82319" lon="0.38149">
        <ele>654.2</ele>
        <time>2022-05-24 17:19:36</time>
      </trkpt>
      <trkpt lat="40.82319" lon="0.38146">
        <ele>654.4</ele>
        <time>2022-05-24 17:19:37</time>
      </trkpt>
      <trkpt lat="40.82319" lon="0.38144">
        <ele>654.6</ele>
        <time>2022-05-24 17:19:38</time>
      </trkpt>
      <trkpt lat="40.82319" lon="0.38142">
        <ele>655</ele>
        <time>2022-05-24 17:19:39</time>
      </trkpt>
      <trkpt lat="40.82319" lon="0.3814">
        <ele>655.2</ele>
        <time>2022-05-24 17:19:40</time>
      </trkpt>
      <trkpt lat="40.82318" lon="0.38138">
        <ele>655.4</ele>
        <time>2022-05-24 17:19:41</time>
      </trkpt>
      <trkpt lat="40.82318" lon="0.38135">
        <ele>655.6</ele>
        <time>2022-05-24 17:19:42</time>
      </trkpt>
      <trkpt lat="40.82318" lon="0.38133">
        <ele>655.8</ele>
        <time>2022-05-24 17:19:43</time>
      </trkpt>
      <trkpt lat="40.82319" lon="0.38131">
        <ele>656</ele>
        <time>2022-05-24 17:19:44</time>
      </trkpt>
      <trkpt lat="40.82319" lon="0.38129">
        <ele>656.2</ele>
        <time>2022-05-24 17:19:45</time>
      </trkpt>
      <trkpt lat="40.8232" lon="0.38127">
        <ele>656.2</ele>
        <time>2022-05-24 17:19:46</time>
      </trkpt>
      <trkpt lat="40.8232" lon="0.38125">
        <ele>656</ele>
        <time>2022-05-24 17:19:47</time>
      </trkpt>
      <trkpt lat="40.8232" lon="0.38123">
        <ele>655.8</ele>
        <time>2022-05-24 17:19:48</time>
      </trkpt>
      <trkpt lat="40.82321" lon="0.38121">
        <ele>656</ele>
        <time>2022-05-24 17:19:49</time>
      </trkpt>
      <trkpt lat="40.82321" lon="0.38119">
        <ele>656.4</ele>
        <time>2022-05-24 17:19:50</time>
      </trkpt>
      <trkpt lat="40.82321" lon="0.38117">
        <ele>656.8</ele>
        <time>2022-05-24 17:19:51</time>
      </trkpt>
      <trkpt lat="40.82321" lon="0.38115">
        <ele>657</ele>
        <time>2022-05-24 17:19:52</time>
      </trkpt>
      <trkpt lat="40.82321" lon="0.38113">
        <ele>657.4</ele>
        <time>2022-05-24 17:19:53</time>
      </trkpt>
      <trkpt lat="40.82322" lon="0.38112">
        <ele>657.6</ele>
        <time>2022-05-24 17:19:54</time>
      </trkpt>
      <trkpt lat="40.82322" lon="0.3811">
        <ele>657.8</ele>
        <time>2022-05-24 17:19:55</time>
      </trkpt>
      <trkpt lat="40.82322" lon="0.38108">
        <ele>658</ele>
        <time>2022-05-24 17:19:56</time>
      </trkpt>
      <trkpt lat="40.82322" lon="0.38106">
        <ele>658</ele>
        <time>2022-05-24 17:19:57</time>
      </trkpt>
      <trkpt lat="40.82322" lon="0.38104">
        <ele>657.8</ele>
        <time>2022-05-24 17:19:58</time>
      </trkpt>
      <trkpt lat="40.82323" lon="0.38102">
        <ele>657.6</ele>
        <time>2022-05-24 17:19:59</time>
      </trkpt>
      <trkpt lat="40.82323" lon="0.381">
        <ele>658</ele>
        <time>2022-05-24 17:20:00</time>
      </trkpt>
      <trkpt lat="40.82323" lon="0.38098">
        <ele>658.4</ele>
        <time>2022-05-24 17:20:01</time>
      </trkpt>
      <trkpt lat="40.82324" lon="0.38096">
        <ele>658.6</ele>
        <time>2022-05-24 17:20:02</time>
      </trkpt>
      <trkpt lat="40.82324" lon="0.38095">
        <ele>659</ele>
        <time>2022-05-24 17:20:03</time>
      </trkpt>
      <trkpt lat="40.82325" lon="0.38093">
        <ele>659.4</ele>
        <time>2022-05-24 17:20:04</time>
      </trkpt>
      <trkpt lat="40.82325" lon="0.38091">
        <ele>659.6</ele>
        <time>2022-05-24 17:20:05</time>
      </trkpt>
      <trkpt lat="40.82325" lon="0.38089">
        <ele>659.8</ele>
        <time>2022-05-24 17:20:06</time>
      </trkpt>
      <trkpt lat="40.82327" lon="0.38087">
        <ele>660</ele>
        <time>2022-05-24 17:20:07</time>
      </trkpt>
      <trkpt lat="40.82327" lon="0.38085">
        <ele>660.2</ele>
        <time>2022-05-24 17:20:08</time>
      </trkpt>
      <trkpt lat="40.82328" lon="0.38083">
        <ele>660.2</ele>
        <time>2022-05-24 17:20:09</time>
      </trkpt>
      <trkpt lat="40.82329" lon="0.38082">
        <ele>660.4</ele>
        <time>2022-05-24 17:20:10</time>
      </trkpt>
      <trkpt lat="40.8233" lon="0.3808">
        <ele>660.6</ele>
        <time>2022-05-24 17:20:11</time>
      </trkpt>
      <trkpt lat="40.8233" lon="0.38078">
        <ele>660.8</ele>
        <time>2022-05-24 17:20:12</time>
      </trkpt>
      <trkpt lat="40.8233" lon="0.38076">
        <ele>661</ele>
        <time>2022-05-24 17:20:13</time>
      </trkpt>
      <trkpt lat="40.82331" lon="0.38074">
        <ele>661.2</ele>
        <time>2022-05-24 17:20:14</time>
      </trkpt>
      <trkpt lat="40.82331" lon="0.38072">
        <ele>661.4</ele>
        <time>2022-05-24 17:20:15</time>
      </trkpt>
      <trkpt lat="40.82332" lon="0.38069">
        <ele>661.8</ele>
        <time>2022-05-24 17:20:16</time>
      </trkpt>
      <trkpt lat="40.82332" lon="0.38067">
        <ele>662</ele>
        <time>2022-05-24 17:20:17</time>
      </trkpt>
      <trkpt lat="40.82333" lon="0.38065">
        <ele>662.2</ele>
        <time>2022-05-24 17:20:18</time>
      </trkpt>
      <trkpt lat="40.82333" lon="0.38063">
        <ele>662.4</ele>
        <time>2022-05-24 17:20:19</time>
      </trkpt>
      <trkpt lat="40.82333" lon="0.38061">
        <ele>662.4</ele>
        <time>2022-05-24 17:20:20</time>
      </trkpt>
      <trkpt lat="40.82333" lon="0.38059">
        <ele>662.6</ele>
        <time>2022-05-24 17:20:21</time>
      </trkpt>
      <trkpt lat="40.82333" lon="0.38057">
        <ele>662.6</ele>
        <time>2022-05-24 17:20:22</time>
      </trkpt>
      <trkpt lat="40.82335" lon="0.38055">
        <ele>662.8</ele>
        <time>2022-05-24 17:20:23</time>
      </trkpt>
      <trkpt lat="40.82335" lon="0.38053">
        <ele>663</ele>
        <time>2022-05-24 17:20:24</time>
      </trkpt>
      <trkpt lat="40.82335" lon="0.38051">
        <ele>663</ele>
        <time>2022-05-24 17:20:25</time>
      </trkpt>
      <trkpt lat="40.82335" lon="0.38049">
        <ele>663.2</ele>
        <time>2022-05-24 17:20:26</time>
      </trkpt>
      <trkpt lat="40.82335" lon="0.38047">
        <ele>663.4</ele>
        <time>2022-05-24 17:20:27</time>
      </trkpt>
      <trkpt lat="40.82336" lon="0.38045">
        <ele>663.6</ele>
        <time>2022-05-24 17:20:28</time>
      </trkpt>
      <trkpt lat="40.82337" lon="0.38044">
        <ele>663.8</ele>
        <time>2022-05-24 17:20:29</time>
      </trkpt>
      <trkpt lat="40.82338" lon="0.38042">
        <ele>664</ele>
        <time>2022-05-24 17:20:30</time>
      </trkpt>
      <trkpt lat="40.82338" lon="0.3804">
        <ele>664.2</ele>
        <time>2022-05-24 17:20:31</time>
      </trkpt>
      <trkpt lat="40.82339" lon="0.38038">
        <ele>664.4</ele>
        <time>2022-05-24 17:20:32</time>
      </trkpt>
      <trkpt lat="40.82339" lon="0.38036">
        <ele>664.6</ele>
        <time>2022-05-24 17:20:33</time>
      </trkpt>
      <trkpt lat="40.82339" lon="0.38034">
        <ele>664.8</ele>
        <time>2022-05-24 17:20:34</time>
      </trkpt>
      <trkpt lat="40.82339" lon="0.38032">
        <ele>665</ele>
        <time>2022-05-24 17:20:35</time>
      </trkpt>
      <trkpt lat="40.82339" lon="0.38029">
        <ele>665.2</ele>
        <time>2022-05-24 17:20:36</time>
      </trkpt>
      <trkpt lat="40.8234" lon="0.38027">
        <ele>665.4</ele>
        <time>2022-05-24 17:20:37</time>
      </trkpt>
      <trkpt lat="40.8234" lon="0.38025">
        <ele>665.6</ele>
        <time>2022-05-24 17:20:38</time>
      </trkpt>
      <trkpt lat="40.82341" lon="0.38023">
        <ele>665.8</ele>
        <time>2022-05-24 17:20:39</time>
      </trkpt>
      <trkpt lat="40.82342" lon="0.38021">
        <ele>666.2</ele>
        <time>2022-05-24 17:20:40</time>
      </trkpt>
      <trkpt lat="40.82343" lon="0.38019">
        <ele>666.4</ele>
        <time>2022-05-24 17:20:41</time>
      </trkpt>
      <trkpt lat="40.82343" lon="0.38017">
        <ele>666.6</ele>
        <time>2022-05-24 17:20:42</time>
      </trkpt>
      <trkpt lat="40.82344" lon="0.38015">
        <ele>666.6</ele>
        <time>2022-05-24 17:20:43</time>
      </trkpt>
      <trkpt lat="40.82344" lon="0.38013">
        <ele>666.8</ele>
        <time>2022-05-24 17:20:44</time>
      </trkpt>
      <trkpt lat="40.82344" lon="0.38011">
        <ele>666.8</ele>
        <time>2022-05-24 17:20:45</time>
      </trkpt>
      <trkpt lat="40.82345" lon="0.38009">
        <ele>667</ele>
        <time>2022-05-24 17:20:46</time>
      </trkpt>
      <trkpt lat="40.82345" lon="0.38007">
        <ele>667</ele>
        <time>2022-05-24 17:20:47</time>
      </trkpt>
      <trkpt lat="40.82345" lon="0.38005">
        <ele>667.2</ele>
        <time>2022-05-24 17:20:48</time>
      </trkpt>
      <trkpt lat="40.82346" lon="0.38003">
        <ele>667.4</ele>
        <time>2022-05-24 17:20:49</time>
      </trkpt>
      <trkpt lat="40.82346" lon="0.38">
        <ele>667.6</ele>
        <time>2022-05-24 17:20:50</time>
      </trkpt>
      <trkpt lat="40.82346" lon="0.37998">
        <ele>667.8</ele>
        <time>2022-05-24 17:20:51</time>
      </trkpt>
      <trkpt lat="40.82347" lon="0.37996">
        <ele>668</ele>
        <time>2022-05-24 17:20:52</time>
      </trkpt>
      <trkpt lat="40.82347" lon="0.37994">
        <ele>668.2</ele>
        <time>2022-05-24 17:20:53</time>
      </trkpt>
      <trkpt lat="40.82347" lon="0.37992">
        <ele>668.6</ele>
        <time>2022-05-24 17:20:54</time>
      </trkpt>
      <trkpt lat="40.82347" lon="0.37989">
        <ele>669</ele>
        <time>2022-05-24 17:20:55</time>
      </trkpt>
      <trkpt lat="40.82347" lon="0.37987">
        <ele>669.4</ele>
        <time>2022-05-24 17:20:56</time>
      </trkpt>
      <trkpt lat="40.82347" lon="0.37984">
        <ele>669.6</ele>
        <time>2022-05-24 17:20:57</time>
      </trkpt>
      <trkpt lat="40.82347" lon="0.37982">
        <ele>669.6</ele>
        <time>2022-05-24 17:20:58</time>
      </trkpt>
      <trkpt lat="40.82347" lon="0.37979">
        <ele>669.8</ele>
        <time>2022-05-24 17:20:59</time>
      </trkpt>
      <trkpt lat="40.82347" lon="0.37977">
        <ele>670</ele>
        <time>2022-05-24 17:21:00</time>
      </trkpt>
      <trkpt lat="40.82346" lon="0.37975">
        <ele>670.2</ele>
        <time>2022-05-24 17:21:01</time>
      </trkpt>
      <trkpt lat="40.82346" lon="0.37973">
        <ele>670.2</ele>
        <time>2022-05-24 17:21:02</time>
      </trkpt>
      <trkpt lat="40.82346" lon="0.37971">
        <ele>670.2</ele>
        <time>2022-05-24 17:21:03</time>
      </trkpt>
      <trkpt lat="40.82345" lon="0.37969">
        <ele>670.2</ele>
        <time>2022-05-24 17:21:04</time>
      </trkpt>
      <trkpt lat="40.82345" lon="0.37968">
        <ele>670.4</ele>
        <time>2022-05-24 17:21:05</time>
      </trkpt>
      <trkpt lat="40.82344" lon="0.37966">
        <ele>670.6</ele>
        <time>2022-05-24 17:21:06</time>
      </trkpt>
      <trkpt lat="40.82344" lon="0.37964">
        <ele>670.8</ele>
        <time>2022-05-24 17:21:07</time>
      </trkpt>
      <trkpt lat="40.82344" lon="0.37962">
        <ele>671</ele>
        <time>2022-05-24 17:21:08</time>
      </trkpt>
      <trkpt lat="40.82343" lon="0.37959">
        <ele>671</ele>
        <time>2022-05-24 17:21:09</time>
      </trkpt>
      <trkpt lat="40.82342" lon="0.37957">
        <ele>671.2</ele>
        <time>2022-05-24 17:21:10</time>
      </trkpt>
      <trkpt lat="40.82341" lon="0.37955">
        <ele>671.2</ele>
        <time>2022-05-24 17:21:11</time>
      </trkpt>
      <trkpt lat="40.82341" lon="0.37953">
        <ele>671.4</ele>
        <time>2022-05-24 17:21:12</time>
      </trkpt>
      <trkpt lat="40.82341" lon="0.3795">
        <ele>671.4</ele>
        <time>2022-05-24 17:21:13</time>
      </trkpt>
      <trkpt lat="40.8234" lon="0.37948">
        <ele>671.6</ele>
        <time>2022-05-24 17:21:14</time>
      </trkpt>
      <trkpt lat="40.8234" lon="0.37946">
        <ele>671.6</ele>
        <time>2022-05-24 17:21:15</time>
      </trkpt>
      <trkpt lat="40.82339" lon="0.37944">
        <ele>671.8</ele>
        <time>2022-05-24 17:21:16</time>
      </trkpt>
      <trkpt lat="40.82339" lon="0.37942">
        <ele>671.8</ele>
        <time>2022-05-24 17:21:17</time>
      </trkpt>
      <trkpt lat="40.82339" lon="0.37939">
        <ele>672</ele>
        <time>2022-05-24 17:21:18</time>
      </trkpt>
      <trkpt lat="40.82339" lon="0.37937">
        <ele>672</ele>
        <time>2022-05-24 17:21:19</time>
      </trkpt>
      <trkpt lat="40.82338" lon="0.37935">
        <ele>672.2</ele>
        <time>2022-05-24 17:21:20</time>
      </trkpt>
      <trkpt lat="40.82338" lon="0.37932">
        <ele>672.4</ele>
        <time>2022-05-24 17:21:21</time>
      </trkpt>
      <trkpt lat="40.82338" lon="0.3793">
        <ele>672.6</ele>
        <time>2022-05-24 17:21:22</time>
      </trkpt>
      <trkpt lat="40.82337" lon="0.37927">
        <ele>672.8</ele>
        <time>2022-05-24 17:21:23</time>
      </trkpt>
      <trkpt lat="40.82336" lon="0.37925">
        <ele>673.2</ele>
        <time>2022-05-24 17:21:24</time>
      </trkpt>
      <trkpt lat="40.82336" lon="0.37922">
        <ele>673.4</ele>
        <time>2022-05-24 17:21:25</time>
      </trkpt>
      <trkpt lat="40.82335" lon="0.3792">
        <ele>673.6</ele>
        <time>2022-05-24 17:21:26</time>
      </trkpt>
      <trkpt lat="40.82335" lon="0.37917">
        <ele>673.8</ele>
        <time>2022-05-24 17:21:27</time>
      </trkpt>
      <trkpt lat="40.82335" lon="0.37915">
        <ele>674</ele>
        <time>2022-05-24 17:21:28</time>
      </trkpt>
      <trkpt lat="40.82334" lon="0.37913">
        <ele>674</ele>
        <time>2022-05-24 17:21:29</time>
      </trkpt>
      <trkpt lat="40.82333" lon="0.3791">
        <ele>674.2</ele>
        <time>2022-05-24 17:21:30</time>
      </trkpt>
      <trkpt lat="40.82333" lon="0.37908">
        <ele>674.4</ele>
        <time>2022-05-24 17:21:31</time>
      </trkpt>
      <trkpt lat="40.82333" lon="0.37906">
        <ele>674.6</ele>
        <time>2022-05-24 17:21:32</time>
      </trkpt>
      <trkpt lat="40.82333" lon="0.37904">
        <ele>674.8</ele>
        <time>2022-05-24 17:21:33</time>
      </trkpt>
      <trkpt lat="40.82332" lon="0.37902">
        <ele>675</ele>
        <time>2022-05-24 17:21:34</time>
      </trkpt>
      <trkpt lat="40.82332" lon="0.379">
        <ele>675.2</ele>
        <time>2022-05-24 17:21:35</time>
      </trkpt>
      <trkpt lat="40.82331" lon="0.37897">
        <ele>675.4</ele>
        <time>2022-05-24 17:21:36</time>
      </trkpt>
      <trkpt lat="40.82331" lon="0.37895">
        <ele>675.4</ele>
        <time>2022-05-24 17:21:37</time>
      </trkpt>
      <trkpt lat="40.82331" lon="0.37893">
        <ele>675.8</ele>
        <time>2022-05-24 17:21:38</time>
      </trkpt>
      <trkpt lat="40.82331" lon="0.3789">
        <ele>676</ele>
        <time>2022-05-24 17:21:39</time>
      </trkpt>
      <trkpt lat="40.82331" lon="0.37888">
        <ele>676.2</ele>
        <time>2022-05-24 17:21:40</time>
      </trkpt>
      <trkpt lat="40.82331" lon="0.37885">
        <ele>676.2</ele>
        <time>2022-05-24 17:21:41</time>
      </trkpt>
      <trkpt lat="40.82331" lon="0.37883">
        <ele>676.4</ele>
        <time>2022-05-24 17:21:42</time>
      </trkpt>
      <trkpt lat="40.8233" lon="0.3788">
        <ele>676.6</ele>
        <time>2022-05-24 17:21:43</time>
      </trkpt>
      <trkpt lat="40.8233" lon="0.37877">
        <ele>677</ele>
        <time>2022-05-24 17:21:44</time>
      </trkpt>
      <trkpt lat="40.82329" lon="0.37874">
        <ele>677.2</ele>
        <time>2022-05-24 17:21:45</time>
      </trkpt>
      <trkpt lat="40.82329" lon="0.37872">
        <ele>677.4</ele>
        <time>2022-05-24 17:21:46</time>
      </trkpt>
      <trkpt lat="40.82328" lon="0.37869">
        <ele>677.4</ele>
        <time>2022-05-24 17:21:47</time>
      </trkpt>
      <trkpt lat="40.82328" lon="0.37867">
        <ele>677.6</ele>
        <time>2022-05-24 17:21:48</time>
      </trkpt>
      <trkpt lat="40.82327" lon="0.37864">
        <ele>677.8</ele>
        <time>2022-05-24 17:21:49</time>
      </trkpt>
      <trkpt lat="40.82326" lon="0.37862">
        <ele>678</ele>
        <time>2022-05-24 17:21:50</time>
      </trkpt>
      <trkpt lat="40.82325" lon="0.37859">
        <ele>678.2</ele>
        <time>2022-05-24 17:21:51</time>
      </trkpt>
      <trkpt lat="40.82325" lon="0.37857">
        <ele>678.4</ele>
        <time>2022-05-24 17:21:52</time>
      </trkpt>
      <trkpt lat="40.82324" lon="0.37855">
        <ele>678.6</ele>
        <time>2022-05-24 17:21:53</time>
      </trkpt>
      <trkpt lat="40.82324" lon="0.37852">
        <ele>679</ele>
        <time>2022-05-24 17:21:54</time>
      </trkpt>
      <trkpt lat="40.82323" lon="0.3785">
        <ele>679.2</ele>
        <time>2022-05-24 17:21:55</time>
      </trkpt>
      <trkpt lat="40.82323" lon="0.37848">
        <ele>679.4</ele>
        <time>2022-05-24 17:21:56</time>
      </trkpt>
      <trkpt lat="40.82322" lon="0.37845">
        <ele>679.6</ele>
        <time>2022-05-24 17:21:57</time>
      </trkpt>
      <trkpt lat="40.82322" lon="0.37843">
        <ele>679.6</ele>
        <time>2022-05-24 17:21:58</time>
      </trkpt>
      <trkpt lat="40.82322" lon="0.3784">
        <ele>679.8</ele>
        <time>2022-05-24 17:21:59</time>
      </trkpt>
      <trkpt lat="40.82321" lon="0.37838">
        <ele>679.8</ele>
        <time>2022-05-24 17:22:00</time>
      </trkpt>
      <trkpt lat="40.8232" lon="0.37836">
        <ele>679.8</ele>
        <time>2022-05-24 17:22:01</time>
      </trkpt>
      <trkpt lat="40.8232" lon="0.37834">
        <ele>680</ele>
        <time>2022-05-24 17:22:02</time>
      </trkpt>
      <trkpt lat="40.8232" lon="0.37832">
        <ele>680.2</ele>
        <time>2022-05-24 17:22:03</time>
      </trkpt>
      <trkpt lat="40.82319" lon="0.37829">
        <ele>680.4</ele>
        <time>2022-05-24 17:22:04</time>
      </trkpt>
      <trkpt lat="40.82318" lon="0.37827">
        <ele>680.6</ele>
        <time>2022-05-24 17:22:05</time>
      </trkpt>
      <trkpt lat="40.82318" lon="0.37825">
        <ele>680.6</ele>
        <time>2022-05-24 17:22:06</time>
      </trkpt>
      <trkpt lat="40.82317" lon="0.37824">
        <ele>680.6</ele>
        <time>2022-05-24 17:22:07</time>
      </trkpt>
      <trkpt lat="40.82317" lon="0.37822">
        <ele>680.8</ele>
        <time>2022-05-24 17:22:08</time>
      </trkpt>
      <trkpt lat="40.82315" lon="0.3782">
        <ele>681</ele>
        <time>2022-05-24 17:22:09</time>
      </trkpt>
      <trkpt lat="40.82314" lon="0.37817">
        <ele>681.2</ele>
        <time>2022-05-24 17:22:10</time>
      </trkpt>
      <trkpt lat="40.82312" lon="0.37815">
        <ele>681.4</ele>
        <time>2022-05-24 17:22:11</time>
      </trkpt>
      <trkpt lat="40.82312" lon="0.37813">
        <ele>681.6</ele>
        <time>2022-05-24 17:22:12</time>
      </trkpt>
      <trkpt lat="40.82311" lon="0.37811">
        <ele>681.8</ele>
        <time>2022-05-24 17:22:13</time>
      </trkpt>
      <trkpt lat="40.8231" lon="0.37809">
        <ele>682</ele>
        <time>2022-05-24 17:22:14</time>
      </trkpt>
      <trkpt lat="40.8231" lon="0.37807">
        <ele>682.2</ele>
        <time>2022-05-24 17:22:15</time>
      </trkpt>
      <trkpt lat="40.8231" lon="0.37803">
        <ele>682.4</ele>
        <time>2022-05-24 17:22:16</time>
      </trkpt>
      <trkpt lat="40.8231" lon="0.37801">
        <ele>682.8</ele>
        <time>2022-05-24 17:22:17</time>
      </trkpt>
      <trkpt lat="40.82309" lon="0.37798">
        <ele>683.2</ele>
        <time>2022-05-24 17:22:18</time>
      </trkpt>
      <trkpt lat="40.82308" lon="0.37796">
        <ele>683.4</ele>
        <time>2022-05-24 17:22:19</time>
      </trkpt>
      <trkpt lat="40.82307" lon="0.37793">
        <ele>683.6</ele>
        <time>2022-05-24 17:22:20</time>
      </trkpt>
      <trkpt lat="40.82306" lon="0.3779">
        <ele>683.8</ele>
        <time>2022-05-24 17:22:21</time>
      </trkpt>
      <trkpt lat="40.82305" lon="0.37787">
        <ele>684</ele>
        <time>2022-05-24 17:22:22</time>
      </trkpt>
      <trkpt lat="40.82304" lon="0.37785">
        <ele>684.2</ele>
        <time>2022-05-24 17:22:23</time>
      </trkpt>
      <trkpt lat="40.82304" lon="0.37782">
        <ele>684.4</ele>
        <time>2022-05-24 17:22:24</time>
      </trkpt>
      <trkpt lat="40.82304" lon="0.37779">
        <ele>684.6</ele>
        <time>2022-05-24 17:22:25</time>
      </trkpt>
      <trkpt lat="40.82304" lon="0.37776">
        <ele>685</ele>
        <time>2022-05-24 17:22:26</time>
      </trkpt>
      <trkpt lat="40.82305" lon="0.37773">
        <ele>685</ele>
        <time>2022-05-24 17:22:27</time>
      </trkpt>
      <trkpt lat="40.82305" lon="0.3777">
        <ele>685.2</ele>
        <time>2022-05-24 17:22:28</time>
      </trkpt>
      <trkpt lat="40.82306" lon="0.37768">
        <ele>685.4</ele>
        <time>2022-05-24 17:22:29</time>
      </trkpt>
      <trkpt lat="40.82306" lon="0.37765">
        <ele>685.4</ele>
        <time>2022-05-24 17:22:30</time>
      </trkpt>
      <trkpt lat="40.82307" lon="0.37763">
        <ele>685.4</ele>
        <time>2022-05-24 17:22:31</time>
      </trkpt>
      <trkpt lat="40.82307" lon="0.37761">
        <ele>685.6</ele>
        <time>2022-05-24 17:22:32</time>
      </trkpt>
      <trkpt lat="40.82308" lon="0.37759">
        <ele>685.8</ele>
        <time>2022-05-24 17:22:33</time>
      </trkpt>
      <trkpt lat="40.82308" lon="0.37757">
        <ele>685.8</ele>
        <time>2022-05-24 17:22:34</time>
      </trkpt>
      <trkpt lat="40.82308" lon="0.37754">
        <ele>685.8</ele>
        <time>2022-05-24 17:22:35</time>
      </trkpt>
      <trkpt lat="40.82309" lon="0.37752">
        <ele>686.2</ele>
        <time>2022-05-24 17:22:36</time>
      </trkpt>
      <trkpt lat="40.82309" lon="0.3775">
        <ele>686.4</ele>
        <time>2022-05-24 17:22:37</time>
      </trkpt>
      <trkpt lat="40.82309" lon="0.37747">
        <ele>686.8</ele>
        <time>2022-05-24 17:22:38</time>
      </trkpt>
      <trkpt lat="40.8231" lon="0.37745">
        <ele>686.8</ele>
        <time>2022-05-24 17:22:39</time>
      </trkpt>
      <trkpt lat="40.8231" lon="0.37743">
        <ele>687</ele>
        <time>2022-05-24 17:22:40</time>
      </trkpt>
      <trkpt lat="40.82311" lon="0.3774">
        <ele>687.6</ele>
        <time>2022-05-24 17:22:41</time>
      </trkpt>
      <trkpt lat="40.82312" lon="0.37737">
        <ele>688</ele>
        <time>2022-05-24 17:22:42</time>
      </trkpt>
      <trkpt lat="40.82312" lon="0.37735">
        <ele>688.2</ele>
        <time>2022-05-24 17:22:43</time>
      </trkpt>
      <trkpt lat="40.82313" lon="0.37733">
        <ele>688.2</ele>
        <time>2022-05-24 17:22:44</time>
      </trkpt>
      <trkpt lat="40.82314" lon="0.3773">
        <ele>688.4</ele>
        <time>2022-05-24 17:22:45</time>
      </trkpt>
      <trkpt lat="40.82315" lon="0.37728">
        <ele>688.8</ele>
        <time>2022-05-24 17:22:46</time>
      </trkpt>
      <trkpt lat="40.82314" lon="0.37725">
        <ele>689</ele>
        <time>2022-05-24 17:22:47</time>
      </trkpt>
      <trkpt lat="40.82314" lon="0.37723">
        <ele>689.4</ele>
        <time>2022-05-24 17:22:48</time>
      </trkpt>
      <trkpt lat="40.82314" lon="0.37721">
        <ele>689.8</ele>
        <time>2022-05-24 17:22:49</time>
      </trkpt>
      <trkpt lat="40.82314" lon="0.37718">
        <ele>690.2</ele>
        <time>2022-05-24 17:22:50</time>
      </trkpt>
      <trkpt lat="40.82314" lon="0.37716">
        <ele>690.4</ele>
        <time>2022-05-24 17:22:51</time>
      </trkpt>
      <trkpt lat="40.82313" lon="0.37713">
        <ele>690.8</ele>
        <time>2022-05-24 17:22:52</time>
      </trkpt>
      <trkpt lat="40.82313" lon="0.37711">
        <ele>690.8</ele>
        <time>2022-05-24 17:22:53</time>
      </trkpt>
      <trkpt lat="40.82312" lon="0.37709">
        <ele>691.2</ele>
        <time>2022-05-24 17:22:54</time>
      </trkpt>
      <trkpt lat="40.82312" lon="0.37707">
        <ele>691.2</ele>
        <time>2022-05-24 17:22:55</time>
      </trkpt>
      <trkpt lat="40.82312" lon="0.37704">
        <ele>691.4</ele>
        <time>2022-05-24 17:22:56</time>
      </trkpt>
      <trkpt lat="40.82312" lon="0.37702">
        <ele>691.8</ele>
        <time>2022-05-24 17:22:57</time>
      </trkpt>
      <trkpt lat="40.82311" lon="0.377">
        <ele>692</ele>
        <time>2022-05-24 17:22:58</time>
      </trkpt>
      <trkpt lat="40.82311" lon="0.37698">
        <ele>692.2</ele>
        <time>2022-05-24 17:22:59</time>
      </trkpt>
      <trkpt lat="40.82311" lon="0.37696">
        <ele>692.4</ele>
        <time>2022-05-24 17:23:00</time>
      </trkpt>
      <trkpt lat="40.82311" lon="0.37694">
        <ele>692.6</ele>
        <time>2022-05-24 17:23:01</time>
      </trkpt>
      <trkpt lat="40.82311" lon="0.37692">
        <ele>692.8</ele>
        <time>2022-05-24 17:23:02</time>
      </trkpt>
      <trkpt lat="40.82311" lon="0.3769">
        <ele>693</ele>
        <time>2022-05-24 17:23:03</time>
      </trkpt>
      <trkpt lat="40.8231" lon="0.37688">
        <ele>693.2</ele>
        <time>2022-05-24 17:23:04</time>
      </trkpt>
      <trkpt lat="40.8231" lon="0.37686">
        <ele>693.4</ele>
        <time>2022-05-24 17:23:05</time>
      </trkpt>
      <trkpt lat="40.8231" lon="0.37684">
        <ele>693.6</ele>
        <time>2022-05-24 17:23:06</time>
      </trkpt>
      <trkpt lat="40.82309" lon="0.37683">
        <ele>693.8</ele>
        <time>2022-05-24 17:23:07</time>
      </trkpt>
      <trkpt lat="40.82309" lon="0.37681">
        <ele>694.2</ele>
        <time>2022-05-24 17:23:08</time>
      </trkpt>
      <trkpt lat="40.82309" lon="0.37679">
        <ele>694.8</ele>
        <time>2022-05-24 17:23:09</time>
      </trkpt>
      <trkpt lat="40.82308" lon="0.37677">
        <ele>695.2</ele>
        <time>2022-05-24 17:23:10</time>
      </trkpt>
      <trkpt lat="40.82308" lon="0.37675">
        <ele>695.6</ele>
        <time>2022-05-24 17:23:11</time>
      </trkpt>
      <trkpt lat="40.82308" lon="0.37673">
        <ele>695.8</ele>
        <time>2022-05-24 17:23:12</time>
      </trkpt>
      <trkpt lat="40.82307" lon="0.37671">
        <ele>696</ele>
        <time>2022-05-24 17:23:13</time>
      </trkpt>
      <trkpt lat="40.82306" lon="0.37669">
        <ele>696.2</ele>
        <time>2022-05-24 17:23:14</time>
      </trkpt>
      <trkpt lat="40.82306" lon="0.37667">
        <ele>696.2</ele>
        <time>2022-05-24 17:23:15</time>
      </trkpt>
      <trkpt lat="40.82305" lon="0.37665">
        <ele>696.2</ele>
        <time>2022-05-24 17:23:16</time>
      </trkpt>
      <trkpt lat="40.82304" lon="0.37663">
        <ele>696.4</ele>
        <time>2022-05-24 17:23:17</time>
      </trkpt>
      <trkpt lat="40.82304" lon="0.37661">
        <ele>696.4</ele>
        <time>2022-05-24 17:23:18</time>
      </trkpt>
      <trkpt lat="40.82304" lon="0.37659">
        <ele>696.6</ele>
        <time>2022-05-24 17:23:19</time>
      </trkpt>
      <trkpt lat="40.82303" lon="0.37658">
        <ele>696.8</ele>
        <time>2022-05-24 17:23:20</time>
      </trkpt>
      <trkpt lat="40.82302" lon="0.37656">
        <ele>697.2</ele>
        <time>2022-05-24 17:23:21</time>
      </trkpt>
      <trkpt lat="40.82301" lon="0.37654">
        <ele>697.4</ele>
        <time>2022-05-24 17:23:22</time>
      </trkpt>
      <trkpt lat="40.82301" lon="0.37652">
        <ele>697.6</ele>
        <time>2022-05-24 17:23:23</time>
      </trkpt>
      <trkpt lat="40.823" lon="0.3765">
        <ele>697.6</ele>
        <time>2022-05-24 17:23:24</time>
      </trkpt>
      <trkpt lat="40.82299" lon="0.37648">
        <ele>697.8</ele>
        <time>2022-05-24 17:23:25</time>
      </trkpt>
      <trkpt lat="40.82299" lon="0.37646">
        <ele>698</ele>
        <time>2022-05-24 17:23:26</time>
      </trkpt>
      <trkpt lat="40.82298" lon="0.37644">
        <ele>698</ele>
        <time>2022-05-24 17:23:27</time>
      </trkpt>
      <trkpt lat="40.82298" lon="0.37642">
        <ele>698.2</ele>
        <time>2022-05-24 17:23:28</time>
      </trkpt>
      <trkpt lat="40.82297" lon="0.3764">
        <ele>698.2</ele>
        <time>2022-05-24 17:23:29</time>
      </trkpt>
      <trkpt lat="40.82296" lon="0.37638">
        <ele>698.2</ele>
        <time>2022-05-24 17:23:30</time>
      </trkpt>
      <trkpt lat="40.82295" lon="0.37636">
        <ele>698.2</ele>
        <time>2022-05-24 17:23:31</time>
      </trkpt>
      <trkpt lat="40.82294" lon="0.37634">
        <ele>698.2</ele>
        <time>2022-05-24 17:23:32</time>
      </trkpt>
      <trkpt lat="40.82294" lon="0.37632">
        <ele>698.6</ele>
        <time>2022-05-24 17:23:33</time>
      </trkpt>
      <trkpt lat="40.82293" lon="0.3763">
        <ele>698.8</ele>
        <time>2022-05-24 17:23:34</time>
      </trkpt>
      <trkpt lat="40.82293" lon="0.37628">
        <ele>699</ele>
        <time>2022-05-24 17:23:35</time>
      </trkpt>
      <trkpt lat="40.82293" lon="0.37626">
        <ele>699.4</ele>
        <time>2022-05-24 17:23:36</time>
      </trkpt>
      <trkpt lat="40.82293" lon="0.37623">
        <ele>699.8</ele>
        <time>2022-05-24 17:23:37</time>
      </trkpt>
      <trkpt lat="40.82293" lon="0.37621">
        <ele>700.2</ele>
        <time>2022-05-24 17:23:38</time>
      </trkpt>
      <trkpt lat="40.82293" lon="0.37619">
        <ele>700.6</ele>
        <time>2022-05-24 17:23:39</time>
      </trkpt>
      <trkpt lat="40.82292" lon="0.37617">
        <ele>700.8</ele>
        <time>2022-05-24 17:23:40</time>
      </trkpt>
      <trkpt lat="40.82292" lon="0.37615">
        <ele>701</ele>
        <time>2022-05-24 17:23:41</time>
      </trkpt>
      <trkpt lat="40.82293" lon="0.37612">
        <ele>701.2</ele>
        <time>2022-05-24 17:23:42</time>
      </trkpt>
      <trkpt lat="40.82293" lon="0.3761">
        <ele>701.4</ele>
        <time>2022-05-24 17:23:43</time>
      </trkpt>
      <trkpt lat="40.82293" lon="0.37608">
        <ele>701.6</ele>
        <time>2022-05-24 17:23:44</time>
      </trkpt>
      <trkpt lat="40.82293" lon="0.37606">
        <ele>702</ele>
        <time>2022-05-24 17:23:45</time>
      </trkpt>
      <trkpt lat="40.82294" lon="0.37603">
        <ele>702.2</ele>
        <time>2022-05-24 17:23:46</time>
      </trkpt>
      <trkpt lat="40.82294" lon="0.37601">
        <ele>702.4</ele>
        <time>2022-05-24 17:23:47</time>
      </trkpt>
      <trkpt lat="40.82294" lon="0.37599">
        <ele>702.6</ele>
        <time>2022-05-24 17:23:48</time>
      </trkpt>
      <trkpt lat="40.82295" lon="0.37596">
        <ele>702.8</ele>
        <time>2022-05-24 17:23:49</time>
      </trkpt>
      <trkpt lat="40.82295" lon="0.37594">
        <ele>702.8</ele>
        <time>2022-05-24 17:23:50</time>
      </trkpt>
      <trkpt lat="40.82296" lon="0.37592">
        <ele>703</ele>
        <time>2022-05-24 17:23:51</time>
      </trkpt>
      <trkpt lat="40.82296" lon="0.3759">
        <ele>703.2</ele>
        <time>2022-05-24 17:23:52</time>
      </trkpt>
      <trkpt lat="40.82296" lon="0.37587">
        <ele>703.4</ele>
        <time>2022-05-24 17:23:53</time>
      </trkpt>
      <trkpt lat="40.82297" lon="0.37585">
        <ele>703.6</ele>
        <time>2022-05-24 17:23:54</time>
      </trkpt>
      <trkpt lat="40.82298" lon="0.37583">
        <ele>703.8</ele>
        <time>2022-05-24 17:23:55</time>
      </trkpt>
      <trkpt lat="40.82299" lon="0.37581">
        <ele>704.2</ele>
        <time>2022-05-24 17:23:56</time>
      </trkpt>
      <trkpt lat="40.82299" lon="0.37579">
        <ele>704.4</ele>
        <time>2022-05-24 17:23:57</time>
      </trkpt>
      <trkpt lat="40.82301" lon="0.37577">
        <ele>704.6</ele>
        <time>2022-05-24 17:23:58</time>
      </trkpt>
      <trkpt lat="40.82302" lon="0.37575">
        <ele>704.8</ele>
        <time>2022-05-24 17:23:59</time>
      </trkpt>
      <trkpt lat="40.82303" lon="0.37572">
        <ele>705</ele>
        <time>2022-05-24 17:24:00</time>
      </trkpt>
      <trkpt lat="40.82304" lon="0.3757">
        <ele>705.2</ele>
        <time>2022-05-24 17:24:01</time>
      </trkpt>
      <trkpt lat="40.82305" lon="0.37568">
        <ele>705.4</ele>
        <time>2022-05-24 17:24:02</time>
      </trkpt>
      <trkpt lat="40.82306" lon="0.37566">
        <ele>705.6</ele>
        <time>2022-05-24 17:24:03</time>
      </trkpt>
      <trkpt lat="40.82307" lon="0.37564">
        <ele>705.8</ele>
        <time>2022-05-24 17:24:04</time>
      </trkpt>
      <trkpt lat="40.82307" lon="0.37562">
        <ele>705.8</ele>
        <time>2022-05-24 17:24:05</time>
      </trkpt>
      <trkpt lat="40.82308" lon="0.37559">
        <ele>706.2</ele>
        <time>2022-05-24 17:24:06</time>
      </trkpt>
      <trkpt lat="40.82309" lon="0.37557">
        <ele>706.4</ele>
        <time>2022-05-24 17:24:07</time>
      </trkpt>
      <trkpt lat="40.8231" lon="0.37555">
        <ele>706.8</ele>
        <time>2022-05-24 17:24:08</time>
      </trkpt>
      <trkpt lat="40.82311" lon="0.37552">
        <ele>707</ele>
        <time>2022-05-24 17:24:09</time>
      </trkpt>
      <trkpt lat="40.82312" lon="0.3755">
        <ele>707.4</ele>
        <time>2022-05-24 17:24:10</time>
      </trkpt>
      <trkpt lat="40.82313" lon="0.37548">
        <ele>707.6</ele>
        <time>2022-05-24 17:24:11</time>
      </trkpt>
      <trkpt lat="40.82314" lon="0.37545">
        <ele>707.8</ele>
        <time>2022-05-24 17:24:12</time>
      </trkpt>
      <trkpt lat="40.82315" lon="0.37543">
        <ele>708</ele>
        <time>2022-05-24 17:24:13</time>
      </trkpt>
      <trkpt lat="40.82316" lon="0.3754">
        <ele>708.4</ele>
        <time>2022-05-24 17:24:14</time>
      </trkpt>
      <trkpt lat="40.82317" lon="0.37538">
        <ele>708.6</ele>
        <time>2022-05-24 17:24:15</time>
      </trkpt>
      <trkpt lat="40.82317" lon="0.37535">
        <ele>708.8</ele>
        <time>2022-05-24 17:24:16</time>
      </trkpt>
      <trkpt lat="40.82318" lon="0.37533">
        <ele>709</ele>
        <time>2022-05-24 17:24:17</time>
      </trkpt>
      <trkpt lat="40.82319" lon="0.37531">
        <ele>709</ele>
        <time>2022-05-24 17:24:18</time>
      </trkpt>
      <trkpt lat="40.8232" lon="0.37529">
        <ele>709.4</ele>
        <time>2022-05-24 17:24:19</time>
      </trkpt>
      <trkpt lat="40.8232" lon="0.37527">
        <ele>709.4</ele>
        <time>2022-05-24 17:24:20</time>
      </trkpt>
      <trkpt lat="40.8232" lon="0.37524">
        <ele>709.6</ele>
        <time>2022-05-24 17:24:21</time>
      </trkpt>
      <trkpt lat="40.8232" lon="0.37521">
        <ele>709.6</ele>
        <time>2022-05-24 17:24:22</time>
      </trkpt>
      <trkpt lat="40.8232" lon="0.37519">
        <ele>709.8</ele>
        <time>2022-05-24 17:24:23</time>
      </trkpt>
      <trkpt lat="40.82321" lon="0.37517">
        <ele>710</ele>
        <time>2022-05-24 17:24:24</time>
      </trkpt>
      <trkpt lat="40.82321" lon="0.37514">
        <ele>710.2</ele>
        <time>2022-05-24 17:24:25</time>
      </trkpt>
      <trkpt lat="40.82322" lon="0.37512">
        <ele>710.2</ele>
        <time>2022-05-24 17:24:26</time>
      </trkpt>
      <trkpt lat="40.82322" lon="0.37509">
        <ele>710.4</ele>
        <time>2022-05-24 17:24:27</time>
      </trkpt>
      <trkpt lat="40.82323" lon="0.37507">
        <ele>710.6</ele>
        <time>2022-05-24 17:24:28</time>
      </trkpt>
      <trkpt lat="40.82324" lon="0.37505">
        <ele>710.8</ele>
        <time>2022-05-24 17:24:29</time>
      </trkpt>
      <trkpt lat="40.82324" lon="0.37503">
        <ele>711</ele>
        <time>2022-05-24 17:24:30</time>
      </trkpt>
      <trkpt lat="40.82325" lon="0.37501">
        <ele>711.2</ele>
        <time>2022-05-24 17:24:31</time>
      </trkpt>
      <trkpt lat="40.82326" lon="0.37499">
        <ele>711.4</ele>
        <time>2022-05-24 17:24:32</time>
      </trkpt>
      <trkpt lat="40.82327" lon="0.37497">
        <ele>711.6</ele>
        <time>2022-05-24 17:24:33</time>
      </trkpt>
      <trkpt lat="40.82327" lon="0.37494">
        <ele>711.6</ele>
        <time>2022-05-24 17:24:34</time>
      </trkpt>
      <trkpt lat="40.82328" lon="0.37492">
        <ele>711.8</ele>
        <time>2022-05-24 17:24:35</time>
      </trkpt>
      <trkpt lat="40.82328" lon="0.37491">
        <ele>711.8</ele>
        <time>2022-05-24 17:24:36</time>
      </trkpt>
      <trkpt lat="40.82328" lon="0.37489">
        <ele>712</ele>
        <time>2022-05-24 17:24:37</time>
      </trkpt>
      <trkpt lat="40.82329" lon="0.37484">
        <ele>712.2</ele>
        <time>2022-05-24 17:24:38</time>
      </trkpt>
      <trkpt lat="40.8233" lon="0.37482">
        <ele>712.4</ele>
        <time>2022-05-24 17:24:39</time>
      </trkpt>
      <trkpt lat="40.82331" lon="0.37479">
        <ele>712.6</ele>
        <time>2022-05-24 17:24:40</time>
      </trkpt>
      <trkpt lat="40.82331" lon="0.37477">
        <ele>712.8</ele>
        <time>2022-05-24 17:24:41</time>
      </trkpt>
      <trkpt lat="40.82332" lon="0.37475">
        <ele>713</ele>
        <time>2022-05-24 17:24:42</time>
      </trkpt>
      <trkpt lat="40.82333" lon="0.37473">
        <ele>713</ele>
        <time>2022-05-24 17:24:43</time>
      </trkpt>
      <trkpt lat="40.82333" lon="0.37471">
        <ele>713.2</ele>
        <time>2022-05-24 17:24:44</time>
      </trkpt>
      <trkpt lat="40.82334" lon="0.37469">
        <ele>713.4</ele>
        <time>2022-05-24 17:24:45</time>
      </trkpt>
      <trkpt lat="40.82335" lon="0.37468">
        <ele>713.6</ele>
        <time>2022-05-24 17:24:46</time>
      </trkpt>
      <trkpt lat="40.82336" lon="0.37466">
        <ele>713.8</ele>
        <time>2022-05-24 17:24:47</time>
      </trkpt>
      <trkpt lat="40.82336" lon="0.37463">
        <ele>714</ele>
        <time>2022-05-24 17:24:48</time>
      </trkpt>
      <trkpt lat="40.82337" lon="0.37461">
        <ele>714.2</ele>
        <time>2022-05-24 17:24:49</time>
      </trkpt>
      <trkpt lat="40.82338" lon="0.3746">
        <ele>714.4</ele>
        <time>2022-05-24 17:24:50</time>
      </trkpt>
      <trkpt lat="40.82338" lon="0.37458">
        <ele>714.6</ele>
        <time>2022-05-24 17:24:51</time>
      </trkpt>
      <trkpt lat="40.82339" lon="0.37456">
        <ele>714.8</ele>
        <time>2022-05-24 17:24:52</time>
      </trkpt>
      <trkpt lat="40.8234" lon="0.37455">
        <ele>715</ele>
        <time>2022-05-24 17:24:53</time>
      </trkpt>
      <trkpt lat="40.82341" lon="0.37453">
        <ele>715.2</ele>
        <time>2022-05-24 17:24:54</time>
      </trkpt>
      <trkpt lat="40.82342" lon="0.37451">
        <ele>715.4</ele>
        <time>2022-05-24 17:24:55</time>
      </trkpt>
      <trkpt lat="40.82343" lon="0.37449">
        <ele>715.6</ele>
        <time>2022-05-24 17:24:56</time>
      </trkpt>
      <trkpt lat="40.82343" lon="0.37447">
        <ele>715.8</ele>
        <time>2022-05-24 17:24:57</time>
      </trkpt>
      <trkpt lat="40.82343" lon="0.37445">
        <ele>716</ele>
        <time>2022-05-24 17:24:58</time>
      </trkpt>
      <trkpt lat="40.82344" lon="0.37443">
        <ele>716.4</ele>
        <time>2022-05-24 17:24:59</time>
      </trkpt>
      <trkpt lat="40.82344" lon="0.37441">
        <ele>716.6</ele>
        <time>2022-05-24 17:25:00</time>
      </trkpt>
      <trkpt lat="40.82344" lon="0.37438">
        <ele>716.8</ele>
        <time>2022-05-24 17:25:01</time>
      </trkpt>
      <trkpt lat="40.82344" lon="0.37436">
        <ele>717</ele>
        <time>2022-05-24 17:25:02</time>
      </trkpt>
      <trkpt lat="40.82345" lon="0.37434">
        <ele>717.2</ele>
        <time>2022-05-24 17:25:03</time>
      </trkpt>
      <trkpt lat="40.82345" lon="0.37432">
        <ele>717.6</ele>
        <time>2022-05-24 17:25:04</time>
      </trkpt>
      <trkpt lat="40.82346" lon="0.37429">
        <ele>717.8</ele>
        <time>2022-05-24 17:25:05</time>
      </trkpt>
      <trkpt lat="40.82346" lon="0.37427">
        <ele>718</ele>
        <time>2022-05-24 17:25:06</time>
      </trkpt>
      <trkpt lat="40.82347" lon="0.37425">
        <ele>718.2</ele>
        <time>2022-05-24 17:25:07</time>
      </trkpt>
      <trkpt lat="40.82347" lon="0.37423">
        <ele>718.6</ele>
        <time>2022-05-24 17:25:08</time>
      </trkpt>
      <trkpt lat="40.82347" lon="0.3742">
        <ele>718.8</ele>
        <time>2022-05-24 17:25:09</time>
      </trkpt>
      <trkpt lat="40.82347" lon="0.37418">
        <ele>719</ele>
        <time>2022-05-24 17:25:10</time>
      </trkpt>
      <trkpt lat="40.82348" lon="0.37415">
        <ele>719.2</ele>
        <time>2022-05-24 17:25:11</time>
      </trkpt>
      <trkpt lat="40.82349" lon="0.37413">
        <ele>719.4</ele>
        <time>2022-05-24 17:25:12</time>
      </trkpt>
      <trkpt lat="40.82349" lon="0.37411">
        <ele>719.6</ele>
        <time>2022-05-24 17:25:13</time>
      </trkpt>
      <trkpt lat="40.8235" lon="0.37408">
        <ele>719.8</ele>
        <time>2022-05-24 17:25:14</time>
      </trkpt>
      <trkpt lat="40.8235" lon="0.37406">
        <ele>719.8</ele>
        <time>2022-05-24 17:25:15</time>
      </trkpt>
      <trkpt lat="40.8235" lon="0.37404">
        <ele>720</ele>
        <time>2022-05-24 17:25:16</time>
      </trkpt>
      <trkpt lat="40.8235" lon="0.37402">
        <ele>720.2</ele>
        <time>2022-05-24 17:25:17</time>
      </trkpt>
      <trkpt lat="40.8235" lon="0.374">
        <ele>720.4</ele>
        <time>2022-05-24 17:25:18</time>
      </trkpt>
      <trkpt lat="40.8235" lon="0.37397">
        <ele>720.6</ele>
        <time>2022-05-24 17:25:19</time>
      </trkpt>
      <trkpt lat="40.8235" lon="0.37395">
        <ele>720.8</ele>
        <time>2022-05-24 17:25:20</time>
      </trkpt>
      <trkpt lat="40.8235" lon="0.37393">
        <ele>721</ele>
        <time>2022-05-24 17:25:21</time>
      </trkpt>
      <trkpt lat="40.82351" lon="0.37391">
        <ele>721.2</ele>
        <time>2022-05-24 17:25:22</time>
      </trkpt>
      <trkpt lat="40.82351" lon="0.37389">
        <ele>721.4</ele>
        <time>2022-05-24 17:25:23</time>
      </trkpt>
      <trkpt lat="40.8235" lon="0.37387">
        <ele>721.4</ele>
        <time>2022-05-24 17:25:24</time>
      </trkpt>
      <trkpt lat="40.8235" lon="0.37385">
        <ele>721.6</ele>
        <time>2022-05-24 17:25:25</time>
      </trkpt>
      <trkpt lat="40.8235" lon="0.37382">
        <ele>721.8</ele>
        <time>2022-05-24 17:25:26</time>
      </trkpt>
      <trkpt lat="40.8235" lon="0.3738">
        <ele>721.8</ele>
        <time>2022-05-24 17:25:27</time>
      </trkpt>
      <trkpt lat="40.8235" lon="0.37378">
        <ele>722</ele>
        <time>2022-05-24 17:25:28</time>
      </trkpt>
      <trkpt lat="40.8235" lon="0.37376">
        <ele>722.2</ele>
        <time>2022-05-24 17:25:29</time>
      </trkpt>
      <trkpt lat="40.82349" lon="0.37373">
        <ele>722.2</ele>
        <time>2022-05-24 17:25:30</time>
      </trkpt>
      <trkpt lat="40.82349" lon="0.37371">
        <ele>722.2</ele>
        <time>2022-05-24 17:25:31</time>
      </trkpt>
      <trkpt lat="40.82349" lon="0.37369">
        <ele>722.4</ele>
        <time>2022-05-24 17:25:32</time>
      </trkpt>
      <trkpt lat="40.82349" lon="0.37367">
        <ele>722.4</ele>
        <time>2022-05-24 17:25:33</time>
      </trkpt>
      <trkpt lat="40.82348" lon="0.37365">
        <ele>722.4</ele>
        <time>2022-05-24 17:25:34</time>
      </trkpt>
      <trkpt lat="40.82348" lon="0.37362">
        <ele>722.8</ele>
        <time>2022-05-24 17:25:35</time>
      </trkpt>
      <trkpt lat="40.82347" lon="0.3736">
        <ele>723</ele>
        <time>2022-05-24 17:25:36</time>
      </trkpt>
      <trkpt lat="40.82347" lon="0.37358">
        <ele>723.2</ele>
        <time>2022-05-24 17:25:37</time>
      </trkpt>
      <trkpt lat="40.82347" lon="0.37356">
        <ele>723.4</ele>
        <time>2022-05-24 17:25:38</time>
      </trkpt>
      <trkpt lat="40.82347" lon="0.37353">
        <ele>723.6</ele>
        <time>2022-05-24 17:25:39</time>
      </trkpt>
      <trkpt lat="40.82347" lon="0.37351">
        <ele>723.6</ele>
        <time>2022-05-24 17:25:40</time>
      </trkpt>
      <trkpt lat="40.82347" lon="0.37349">
        <ele>723.8</ele>
        <time>2022-05-24 17:25:41</time>
      </trkpt>
      <trkpt lat="40.82347" lon="0.37346">
        <ele>724</ele>
        <time>2022-05-24 17:25:42</time>
      </trkpt>
      <trkpt lat="40.82347" lon="0.37344">
        <ele>724.2</ele>
        <time>2022-05-24 17:25:43</time>
      </trkpt>
      <trkpt lat="40.82347" lon="0.37342">
        <ele>724.4</ele>
        <time>2022-05-24 17:25:44</time>
      </trkpt>
      <trkpt lat="40.82348" lon="0.3734">
        <ele>724.6</ele>
        <time>2022-05-24 17:25:45</time>
      </trkpt>
      <trkpt lat="40.82349" lon="0.37338">
        <ele>724.8</ele>
        <time>2022-05-24 17:25:46</time>
      </trkpt>
      <trkpt lat="40.8235" lon="0.37337">
        <ele>725</ele>
        <time>2022-05-24 17:25:47</time>
      </trkpt>
      <trkpt lat="40.82351" lon="0.37335">
        <ele>725.2</ele>
        <time>2022-05-24 17:25:48</time>
      </trkpt>
      <trkpt lat="40.82352" lon="0.37333">
        <ele>725.4</ele>
        <time>2022-05-24 17:25:49</time>
      </trkpt>
      <trkpt lat="40.82352" lon="0.37331">
        <ele>725.6</ele>
        <time>2022-05-24 17:25:50</time>
      </trkpt>
      <trkpt lat="40.82353" lon="0.37329">
        <ele>725.8</ele>
        <time>2022-05-24 17:25:51</time>
      </trkpt>
      <trkpt lat="40.82354" lon="0.37327">
        <ele>726</ele>
        <time>2022-05-24 17:25:52</time>
      </trkpt>
      <trkpt lat="40.82355" lon="0.37325">
        <ele>726.2</ele>
        <time>2022-05-24 17:25:53</time>
      </trkpt>
      <trkpt lat="40.82356" lon="0.37323">
        <ele>726.4</ele>
        <time>2022-05-24 17:25:54</time>
      </trkpt>
      <trkpt lat="40.82357" lon="0.37321">
        <ele>726.6</ele>
        <time>2022-05-24 17:25:55</time>
      </trkpt>
      <trkpt lat="40.82358" lon="0.3732">
        <ele>726.8</ele>
        <time>2022-05-24 17:25:56</time>
      </trkpt>
      <trkpt lat="40.82359" lon="0.37318">
        <ele>727</ele>
        <time>2022-05-24 17:25:57</time>
      </trkpt>
      <trkpt lat="40.8236" lon="0.37316">
        <ele>727.2</ele>
        <time>2022-05-24 17:25:58</time>
      </trkpt>
      <trkpt lat="40.8236" lon="0.37314">
        <ele>727.4</ele>
        <time>2022-05-24 17:25:59</time>
      </trkpt>
      <trkpt lat="40.82361" lon="0.37313">
        <ele>727.6</ele>
        <time>2022-05-24 17:26:00</time>
      </trkpt>
      <trkpt lat="40.82362" lon="0.37311">
        <ele>727.8</ele>
        <time>2022-05-24 17:26:01</time>
      </trkpt>
      <trkpt lat="40.82362" lon="0.37309">
        <ele>728</ele>
        <time>2022-05-24 17:26:02</time>
      </trkpt>
      <trkpt lat="40.82363" lon="0.37307">
        <ele>728.2</ele>
        <time>2022-05-24 17:26:03</time>
      </trkpt>
      <trkpt lat="40.82364" lon="0.37306">
        <ele>728.2</ele>
        <time>2022-05-24 17:26:04</time>
      </trkpt>
      <trkpt lat="40.82365" lon="0.37304">
        <ele>728.4</ele>
        <time>2022-05-24 17:26:05</time>
      </trkpt>
      <trkpt lat="40.82366" lon="0.37302">
        <ele>728.6</ele>
        <time>2022-05-24 17:26:06</time>
      </trkpt>
      <trkpt lat="40.82367" lon="0.37301">
        <ele>728.6</ele>
        <time>2022-05-24 17:26:07</time>
      </trkpt>
      <trkpt lat="40.82367" lon="0.373">
        <ele>728.8</ele>
        <time>2022-05-24 17:26:08</time>
      </trkpt>
      <trkpt lat="40.82368" lon="0.37298">
        <ele>728.8</ele>
        <time>2022-05-24 17:26:09</time>
      </trkpt>
      <trkpt lat="40.82369" lon="0.37297">
        <ele>729</ele>
        <time>2022-05-24 17:26:10</time>
      </trkpt>
      <trkpt lat="40.8237" lon="0.37295">
        <ele>729</ele>
        <time>2022-05-24 17:26:11</time>
      </trkpt>
      <trkpt lat="40.8237" lon="0.37293">
        <ele>729.4</ele>
        <time>2022-05-24 17:26:12</time>
      </trkpt>
      <trkpt lat="40.82371" lon="0.37291">
        <ele>729.6</ele>
        <time>2022-05-24 17:26:13</time>
      </trkpt>
      <trkpt lat="40.82372" lon="0.37289">
        <ele>729.8</ele>
        <time>2022-05-24 17:26:14</time>
      </trkpt>
      <trkpt lat="40.82372" lon="0.37287">
        <ele>730</ele>
        <time>2022-05-24 17:26:15</time>
      </trkpt>
      <trkpt lat="40.82373" lon="0.37285">
        <ele>730.2</ele>
        <time>2022-05-24 17:26:16</time>
      </trkpt>
      <trkpt lat="40.82373" lon="0.37283">
        <ele>730.4</ele>
        <time>2022-05-24 17:26:17</time>
      </trkpt>
      <trkpt lat="40.82374" lon="0.37281">
        <ele>730.6</ele>
        <time>2022-05-24 17:26:18</time>
      </trkpt>
      <trkpt lat="40.82375" lon="0.37279">
        <ele>730.6</ele>
        <time>2022-05-24 17:26:19</time>
      </trkpt>
      <trkpt lat="40.82376" lon="0.37278">
        <ele>730.6</ele>
        <time>2022-05-24 17:26:20</time>
      </trkpt>
      <trkpt lat="40.82376" lon="0.37276">
        <ele>730.8</ele>
        <time>2022-05-24 17:26:21</time>
      </trkpt>
      <trkpt lat="40.82377" lon="0.37274">
        <ele>731</ele>
        <time>2022-05-24 17:26:22</time>
      </trkpt>
      <trkpt lat="40.82378" lon="0.37272">
        <ele>731.2</ele>
        <time>2022-05-24 17:26:23</time>
      </trkpt>
      <trkpt lat="40.82379" lon="0.3727">
        <ele>731.6</ele>
        <time>2022-05-24 17:26:24</time>
      </trkpt>
      <trkpt lat="40.8238" lon="0.37268">
        <ele>731.8</ele>
        <time>2022-05-24 17:26:25</time>
      </trkpt>
      <trkpt lat="40.8238" lon="0.37266">
        <ele>732</ele>
        <time>2022-05-24 17:26:26</time>
      </trkpt>
      <trkpt lat="40.82381" lon="0.37265">
        <ele>732.2</ele>
        <time>2022-05-24 17:26:27</time>
      </trkpt>
      <trkpt lat="40.82382" lon="0.37262">
        <ele>732.4</ele>
        <time>2022-05-24 17:26:28</time>
      </trkpt>
      <trkpt lat="40.82382" lon="0.3726">
        <ele>732.6</ele>
        <time>2022-05-24 17:26:29</time>
      </trkpt>
      <trkpt lat="40.82383" lon="0.37258">
        <ele>732.8</ele>
        <time>2022-05-24 17:26:30</time>
      </trkpt>
      <trkpt lat="40.82383" lon="0.37257">
        <ele>733</ele>
        <time>2022-05-24 17:26:31</time>
      </trkpt>
      <trkpt lat="40.82384" lon="0.37255">
        <ele>733.2</ele>
        <time>2022-05-24 17:26:32</time>
      </trkpt>
      <trkpt lat="40.82385" lon="0.37253">
        <ele>733.6</ele>
        <time>2022-05-24 17:26:33</time>
      </trkpt>
      <trkpt lat="40.82386" lon="0.37252">
        <ele>733.8</ele>
        <time>2022-05-24 17:26:34</time>
      </trkpt>
      <trkpt lat="40.82386" lon="0.37251">
        <ele>734</ele>
        <time>2022-05-24 17:26:35</time>
      </trkpt>
      <trkpt lat="40.82386" lon="0.3725">
        <ele>734</ele>
        <time>2022-05-24 17:26:36</time>
      </trkpt>
      <trkpt lat="40.82386" lon="0.3725">
        <ele>734.2</ele>
        <time>2022-05-24 17:26:37</time>
      </trkpt>
      <trkpt lat="40.82386" lon="0.3725">
        <ele>734.2</ele>
        <time>2022-05-24 17:26:38</time>
      </trkpt>
      <trkpt lat="40.82386" lon="0.3725">
        <ele>734.2</ele>
        <time>2022-05-24 17:26:39</time>
      </trkpt>
      <trkpt lat="40.82384" lon="0.37245">
        <ele>734.2</ele>
        <time>2022-05-24 17:26:51</time>
      </trkpt>
      <trkpt lat="40.82385" lon="0.37243">
        <ele>734.2</ele>
        <time>2022-05-24 17:26:52</time>
      </trkpt>
      <trkpt lat="40.82386" lon="0.37242">
        <ele>734.4</ele>
        <time>2022-05-24 17:26:53</time>
      </trkpt>
      <trkpt lat="40.82386" lon="0.37241">
        <ele>734.6</ele>
        <time>2022-05-24 17:26:54</time>
      </trkpt>
      <trkpt lat="40.82388" lon="0.3724">
        <ele>734.8</ele>
        <time>2022-05-24 17:26:55</time>
      </trkpt>
      <trkpt lat="40.82389" lon="0.37238">
        <ele>735</ele>
        <time>2022-05-24 17:26:56</time>
      </trkpt>
      <trkpt lat="40.82389" lon="0.37236">
        <ele>735</ele>
        <time>2022-05-24 17:26:57</time>
      </trkpt>
      <trkpt lat="40.8239" lon="0.37235">
        <ele>735.2</ele>
        <time>2022-05-24 17:26:58</time>
      </trkpt>
      <trkpt lat="40.8239" lon="0.37233">
        <ele>735.2</ele>
        <time>2022-05-24 17:26:59</time>
      </trkpt>
      <trkpt lat="40.82391" lon="0.37231">
        <ele>735.4</ele>
        <time>2022-05-24 17:27:00</time>
      </trkpt>
      <trkpt lat="40.82392" lon="0.37229">
        <ele>735.6</ele>
        <time>2022-05-24 17:27:01</time>
      </trkpt>
      <trkpt lat="40.82393" lon="0.37227">
        <ele>735.8</ele>
        <time>2022-05-24 17:27:02</time>
      </trkpt>
      <trkpt lat="40.82394" lon="0.37226">
        <ele>736</ele>
        <time>2022-05-24 17:27:03</time>
      </trkpt>
      <trkpt lat="40.82395" lon="0.37225">
        <ele>736.2</ele>
        <time>2022-05-24 17:27:04</time>
      </trkpt>
      <trkpt lat="40.82396" lon="0.37223">
        <ele>736.4</ele>
        <time>2022-05-24 17:27:05</time>
      </trkpt>
      <trkpt lat="40.82396" lon="0.37221">
        <ele>736.6</ele>
        <time>2022-05-24 17:27:06</time>
      </trkpt>
      <trkpt lat="40.82397" lon="0.37219">
        <ele>736.8</ele>
        <time>2022-05-24 17:27:07</time>
      </trkpt>
      <trkpt lat="40.82398" lon="0.37217">
        <ele>737.2</ele>
        <time>2022-05-24 17:27:08</time>
      </trkpt>
      <trkpt lat="40.82399" lon="0.37216">
        <ele>737.4</ele>
        <time>2022-05-24 17:27:09</time>
      </trkpt>
      <trkpt lat="40.824" lon="0.37214">
        <ele>737.4</ele>
        <time>2022-05-24 17:27:10</time>
      </trkpt>
      <trkpt lat="40.82401" lon="0.37212">
        <ele>737.6</ele>
        <time>2022-05-24 17:27:11</time>
      </trkpt>
      <trkpt lat="40.82402" lon="0.3721">
        <ele>737.8</ele>
        <time>2022-05-24 17:27:12</time>
      </trkpt>
      <trkpt lat="40.82403" lon="0.37208">
        <ele>738.2</ele>
        <time>2022-05-24 17:27:13</time>
      </trkpt>
      <trkpt lat="40.82404" lon="0.37206">
        <ele>738.4</ele>
        <time>2022-05-24 17:27:14</time>
      </trkpt>
      <trkpt lat="40.82405" lon="0.37204">
        <ele>738.6</ele>
        <time>2022-05-24 17:27:15</time>
      </trkpt>
      <trkpt lat="40.82406" lon="0.37203">
        <ele>738.6</ele>
        <time>2022-05-24 17:27:16</time>
      </trkpt>
      <trkpt lat="40.82407" lon="0.37201">
        <ele>738.6</ele>
        <time>2022-05-24 17:27:17</time>
      </trkpt>
      <trkpt lat="40.82408" lon="0.37199">
        <ele>738.6</ele>
        <time>2022-05-24 17:27:18</time>
      </trkpt>
      <trkpt lat="40.82409" lon="0.37198">
        <ele>738.6</ele>
        <time>2022-05-24 17:27:19</time>
      </trkpt>
      <trkpt lat="40.82411" lon="0.37197">
        <ele>739</ele>
        <time>2022-05-24 17:27:20</time>
      </trkpt>
      <trkpt lat="40.82412" lon="0.37195">
        <ele>739</ele>
        <time>2022-05-24 17:27:21</time>
      </trkpt>
      <trkpt lat="40.82413" lon="0.37194">
        <ele>739.2</ele>
        <time>2022-05-24 17:27:22</time>
      </trkpt>
      <trkpt lat="40.82415" lon="0.37192">
        <ele>739.4</ele>
        <time>2022-05-24 17:27:23</time>
      </trkpt>
      <trkpt lat="40.82417" lon="0.37191">
        <ele>739.6</ele>
        <time>2022-05-24 17:27:24</time>
      </trkpt>
      <trkpt lat="40.82418" lon="0.3719">
        <ele>739.8</ele>
        <time>2022-05-24 17:27:25</time>
      </trkpt>
      <trkpt lat="40.8242" lon="0.37189">
        <ele>740</ele>
        <time>2022-05-24 17:27:26</time>
      </trkpt>
      <trkpt lat="40.82423" lon="0.37188">
        <ele>740.2</ele>
        <time>2022-05-24 17:27:27</time>
      </trkpt>
      <trkpt lat="40.82425" lon="0.37188">
        <ele>740.6</ele>
        <time>2022-05-24 17:27:28</time>
      </trkpt>
      <trkpt lat="40.82427" lon="0.37188">
        <ele>740.8</ele>
        <time>2022-05-24 17:27:29</time>
      </trkpt>
      <trkpt lat="40.82429" lon="0.37188">
        <ele>741</ele>
        <time>2022-05-24 17:27:30</time>
      </trkpt>
      <trkpt lat="40.82431" lon="0.37189">
        <ele>741.2</ele>
        <time>2022-05-24 17:27:31</time>
      </trkpt>
      <trkpt lat="40.82434" lon="0.37189">
        <ele>741.4</ele>
        <time>2022-05-24 17:27:32</time>
      </trkpt>
      <trkpt lat="40.82436" lon="0.37191">
        <ele>741.6</ele>
        <time>2022-05-24 17:27:33</time>
      </trkpt>
      <trkpt lat="40.82438" lon="0.37192">
        <ele>741.8</ele>
        <time>2022-05-24 17:27:34</time>
      </trkpt>
      <trkpt lat="40.82439" lon="0.37193">
        <ele>742</ele>
        <time>2022-05-24 17:27:35</time>
      </trkpt>
      <trkpt lat="40.82441" lon="0.37195">
        <ele>742.4</ele>
        <time>2022-05-24 17:27:36</time>
      </trkpt>
      <trkpt lat="40.82442" lon="0.37197">
        <ele>742.6</ele>
        <time>2022-05-24 17:27:37</time>
      </trkpt>
      <trkpt lat="40.82443" lon="0.37199">
        <ele>742.8</ele>
        <time>2022-05-24 17:27:38</time>
      </trkpt>
      <trkpt lat="40.82444" lon="0.372">
        <ele>743.4</ele>
        <time>2022-05-24 17:27:39</time>
      </trkpt>
      <trkpt lat="40.82446" lon="0.37202">
        <ele>743.8</ele>
        <time>2022-05-24 17:27:40</time>
      </trkpt>
      <trkpt lat="40.82447" lon="0.37204">
        <ele>744</ele>
        <time>2022-05-24 17:27:41</time>
      </trkpt>
      <trkpt lat="40.82449" lon="0.37206">
        <ele>744.4</ele>
        <time>2022-05-24 17:27:42</time>
      </trkpt>
      <trkpt lat="40.8245" lon="0.37208">
        <ele>744.6</ele>
        <time>2022-05-24 17:27:43</time>
      </trkpt>
      <trkpt lat="40.82452" lon="0.3721">
        <ele>744.8</ele>
        <time>2022-05-24 17:27:44</time>
      </trkpt>
      <trkpt lat="40.82454" lon="0.37212">
        <ele>745</ele>
        <time>2022-05-24 17:27:45</time>
      </trkpt>
      <trkpt lat="40.82455" lon="0.37213">
        <ele>745.2</ele>
        <time>2022-05-24 17:27:46</time>
      </trkpt>
      <trkpt lat="40.82457" lon="0.37214">
        <ele>745.4</ele>
        <time>2022-05-24 17:27:47</time>
      </trkpt>
      <trkpt lat="40.82459" lon="0.37216">
        <ele>745.6</ele>
        <time>2022-05-24 17:27:48</time>
      </trkpt>
      <trkpt lat="40.82461" lon="0.37217">
        <ele>745.6</ele>
        <time>2022-05-24 17:27:49</time>
      </trkpt>
      <trkpt lat="40.82462" lon="0.37218">
        <ele>745.6</ele>
        <time>2022-05-24 17:27:50</time>
      </trkpt>
      <trkpt lat="40.82464" lon="0.37221">
        <ele>745.6</ele>
        <time>2022-05-24 17:27:51</time>
      </trkpt>
      <trkpt lat="40.82465" lon="0.37223">
        <ele>745.8</ele>
        <time>2022-05-24 17:27:52</time>
      </trkpt>
      <trkpt lat="40.82466" lon="0.37225">
        <ele>746.2</ele>
        <time>2022-05-24 17:27:53</time>
      </trkpt>
      <trkpt lat="40.82468" lon="0.37226">
        <ele>746.4</ele>
        <time>2022-05-24 17:27:54</time>
      </trkpt>
      <trkpt lat="40.8247" lon="0.37227">
        <ele>746.6</ele>
        <time>2022-05-24 17:27:55</time>
      </trkpt>
      <trkpt lat="40.82471" lon="0.37229">
        <ele>746.6</ele>
        <time>2022-05-24 17:27:56</time>
      </trkpt>
      <trkpt lat="40.82473" lon="0.37231">
        <ele>746.8</ele>
        <time>2022-05-24 17:27:57</time>
      </trkpt>
      <trkpt lat="40.82475" lon="0.37232">
        <ele>746.8</ele>
        <time>2022-05-24 17:27:58</time>
      </trkpt>
      <trkpt lat="40.82477" lon="0.37233">
        <ele>747</ele>
        <time>2022-05-24 17:27:59</time>
      </trkpt>
      <trkpt lat="40.82479" lon="0.37234">
        <ele>747</ele>
        <time>2022-05-24 17:28:00</time>
      </trkpt>
      <trkpt lat="40.82481" lon="0.37235">
        <ele>747</ele>
        <time>2022-05-24 17:28:01</time>
      </trkpt>
      <trkpt lat="40.82482" lon="0.37236">
        <ele>747.2</ele>
        <time>2022-05-24 17:28:02</time>
      </trkpt>
      <trkpt lat="40.82484" lon="0.37237">
        <ele>747.4</ele>
        <time>2022-05-24 17:28:03</time>
      </trkpt>
      <trkpt lat="40.82486" lon="0.37237">
        <ele>747.6</ele>
        <time>2022-05-24 17:28:04</time>
      </trkpt>
      <trkpt lat="40.82487" lon="0.37238">
        <ele>748</ele>
        <time>2022-05-24 17:28:05</time>
      </trkpt>
      <trkpt lat="40.82489" lon="0.37239">
        <ele>748.2</ele>
        <time>2022-05-24 17:28:06</time>
      </trkpt>
      <trkpt lat="40.82491" lon="0.3724">
        <ele>748.4</ele>
        <time>2022-05-24 17:28:07</time>
      </trkpt>
      <trkpt lat="40.82493" lon="0.37241">
        <ele>748.6</ele>
        <time>2022-05-24 17:28:08</time>
      </trkpt>
      <trkpt lat="40.82494" lon="0.37241">
        <ele>748.8</ele>
        <time>2022-05-24 17:28:09</time>
      </trkpt>
      <trkpt lat="40.82496" lon="0.37242">
        <ele>749.2</ele>
        <time>2022-05-24 17:28:10</time>
      </trkpt>
      <trkpt lat="40.82498" lon="0.37243">
        <ele>749.4</ele>
        <time>2022-05-24 17:28:11</time>
      </trkpt>
      <trkpt lat="40.82499" lon="0.37243">
        <ele>749.8</ele>
        <time>2022-05-24 17:28:12</time>
      </trkpt>
      <trkpt lat="40.82501" lon="0.37243">
        <ele>750</ele>
        <time>2022-05-24 17:28:13</time>
      </trkpt>
      <trkpt lat="40.82503" lon="0.37244">
        <ele>750.4</ele>
        <time>2022-05-24 17:28:14</time>
      </trkpt>
      <trkpt lat="40.82505" lon="0.37244">
        <ele>750.8</ele>
        <time>2022-05-24 17:28:15</time>
      </trkpt>
      <trkpt lat="40.82507" lon="0.37245">
        <ele>751</ele>
        <time>2022-05-24 17:28:16</time>
      </trkpt>
      <trkpt lat="40.82508" lon="0.37245">
        <ele>751.2</ele>
        <time>2022-05-24 17:28:17</time>
      </trkpt>
      <trkpt lat="40.8251" lon="0.37246">
        <ele>751.2</ele>
        <time>2022-05-24 17:28:18</time>
      </trkpt>
      <trkpt lat="40.82512" lon="0.37247">
        <ele>751.4</ele>
        <time>2022-05-24 17:28:19</time>
      </trkpt>
      <trkpt lat="40.82514" lon="0.37247">
        <ele>751.6</ele>
        <time>2022-05-24 17:28:20</time>
      </trkpt>
      <trkpt lat="40.82516" lon="0.37248">
        <ele>751.6</ele>
        <time>2022-05-24 17:28:21</time>
      </trkpt>
      <trkpt lat="40.82517" lon="0.37248">
        <ele>751.6</ele>
        <time>2022-05-24 17:28:22</time>
      </trkpt>
      <trkpt lat="40.82519" lon="0.37248">
        <ele>751.4</ele>
        <time>2022-05-24 17:28:23</time>
      </trkpt>
      <trkpt lat="40.82521" lon="0.37249">
        <ele>751.2</ele>
        <time>2022-05-24 17:28:24</time>
      </trkpt>
      <trkpt lat="40.82522" lon="0.37249">
        <ele>751.2</ele>
        <time>2022-05-24 17:28:25</time>
      </trkpt>
      <trkpt lat="40.82524" lon="0.37249">
        <ele>751.4</ele>
        <time>2022-05-24 17:28:26</time>
      </trkpt>
      <trkpt lat="40.82526" lon="0.3725">
        <ele>751.6</ele>
        <time>2022-05-24 17:28:27</time>
      </trkpt>
      <trkpt lat="40.82528" lon="0.3725">
        <ele>751.8</ele>
        <time>2022-05-24 17:28:28</time>
      </trkpt>
      <trkpt lat="40.82529" lon="0.37251">
        <ele>752</ele>
        <time>2022-05-24 17:28:29</time>
      </trkpt>
      <trkpt lat="40.82531" lon="0.37252">
        <ele>752.4</ele>
        <time>2022-05-24 17:28:30</time>
      </trkpt>
      <trkpt lat="40.82532" lon="0.37253">
        <ele>752.6</ele>
        <time>2022-05-24 17:28:31</time>
      </trkpt>
      <trkpt lat="40.82534" lon="0.37254">
        <ele>753</ele>
        <time>2022-05-24 17:28:32</time>
      </trkpt>
      <trkpt lat="40.82536" lon="0.37254">
        <ele>753</ele>
        <time>2022-05-24 17:28:33</time>
      </trkpt>
      <trkpt lat="40.82538" lon="0.37254">
        <ele>753</ele>
        <time>2022-05-24 17:28:34</time>
      </trkpt>
      <trkpt lat="40.82539" lon="0.37255">
        <ele>753.2</ele>
        <time>2022-05-24 17:28:35</time>
      </trkpt>
      <trkpt lat="40.82541" lon="0.37255">
        <ele>753.2</ele>
        <time>2022-05-24 17:28:36</time>
      </trkpt>
      <trkpt lat="40.82543" lon="0.37256">
        <ele>753.4</ele>
        <time>2022-05-24 17:28:37</time>
      </trkpt>
      <trkpt lat="40.82545" lon="0.37256">
        <ele>753.6</ele>
        <time>2022-05-24 17:28:38</time>
      </trkpt>
      <trkpt lat="40.82546" lon="0.37257">
        <ele>753.8</ele>
        <time>2022-05-24 17:28:39</time>
      </trkpt>
      <trkpt lat="40.82548" lon="0.37258">
        <ele>754</ele>
        <time>2022-05-24 17:28:40</time>
      </trkpt>
      <trkpt lat="40.82549" lon="0.37259">
        <ele>754</ele>
        <time>2022-05-24 17:28:41</time>
      </trkpt>
      <trkpt lat="40.82551" lon="0.3726">
        <ele>754</ele>
        <time>2022-05-24 17:28:42</time>
      </trkpt>
      <trkpt lat="40.82553" lon="0.3726">
        <ele>754.2</ele>
        <time>2022-05-24 17:28:43</time>
      </trkpt>
      <trkpt lat="40.82554" lon="0.37261">
        <ele>754.2</ele>
        <time>2022-05-24 17:28:44</time>
      </trkpt>
      <trkpt lat="40.82556" lon="0.37262">
        <ele>754.4</ele>
        <time>2022-05-24 17:28:45</time>
      </trkpt>
      <trkpt lat="40.82557" lon="0.37262">
        <ele>754.4</ele>
        <time>2022-05-24 17:28:46</time>
      </trkpt>
      <trkpt lat="40.82559" lon="0.37262">
        <ele>754.4</ele>
        <time>2022-05-24 17:28:47</time>
      </trkpt>
      <trkpt lat="40.8256" lon="0.37263">
        <ele>754.6</ele>
        <time>2022-05-24 17:28:48</time>
      </trkpt>
      <trkpt lat="40.82562" lon="0.37263">
        <ele>754.6</ele>
        <time>2022-05-24 17:28:49</time>
      </trkpt>
      <trkpt lat="40.82563" lon="0.37264">
        <ele>754.8</ele>
        <time>2022-05-24 17:28:50</time>
      </trkpt>
      <trkpt lat="40.82565" lon="0.37265">
        <ele>755</ele>
        <time>2022-05-24 17:28:51</time>
      </trkpt>
      <trkpt lat="40.82567" lon="0.37266">
        <ele>755.2</ele>
        <time>2022-05-24 17:28:52</time>
      </trkpt>
      <trkpt lat="40.82568" lon="0.37267">
        <ele>755.6</ele>
        <time>2022-05-24 17:28:53</time>
      </trkpt>
      <trkpt lat="40.8257" lon="0.37267">
        <ele>755.8</ele>
        <time>2022-05-24 17:28:54</time>
      </trkpt>
      <trkpt lat="40.82572" lon="0.37268">
        <ele>756</ele>
        <time>2022-05-24 17:28:55</time>
      </trkpt>
      <trkpt lat="40.82573" lon="0.37269">
        <ele>756.2</ele>
        <time>2022-05-24 17:28:56</time>
      </trkpt>
      <trkpt lat="40.82575" lon="0.3727">
        <ele>756.2</ele>
        <time>2022-05-24 17:28:57</time>
      </trkpt>
      <trkpt lat="40.82576" lon="0.37271">
        <ele>756.4</ele>
        <time>2022-05-24 17:28:58</time>
      </trkpt>
      <trkpt lat="40.82579" lon="0.37273">
        <ele>756.4</ele>
        <time>2022-05-24 17:28:59</time>
      </trkpt>
      <trkpt lat="40.8258" lon="0.37274">
        <ele>756.6</ele>
        <time>2022-05-24 17:29:00</time>
      </trkpt>
      <trkpt lat="40.82581" lon="0.37275">
        <ele>756.6</ele>
        <time>2022-05-24 17:29:01</time>
      </trkpt>
      <trkpt lat="40.82583" lon="0.37277">
        <ele>756.8</ele>
        <time>2022-05-24 17:29:02</time>
      </trkpt>
      <trkpt lat="40.82584" lon="0.37278">
        <ele>757</ele>
        <time>2022-05-24 17:29:03</time>
      </trkpt>
      <trkpt lat="40.82586" lon="0.37279">
        <ele>757.2</ele>
        <time>2022-05-24 17:29:04</time>
      </trkpt>
      <trkpt lat="40.82587" lon="0.37281">
        <ele>757.2</ele>
        <time>2022-05-24 17:29:05</time>
      </trkpt>
      <trkpt lat="40.82589" lon="0.37283">
        <ele>757.4</ele>
        <time>2022-05-24 17:29:06</time>
      </trkpt>
      <trkpt lat="40.8259" lon="0.37284">
        <ele>757.4</ele>
        <time>2022-05-24 17:29:07</time>
      </trkpt>
      <trkpt lat="40.82591" lon="0.37286">
        <ele>757.6</ele>
        <time>2022-05-24 17:29:08</time>
      </trkpt>
      <trkpt lat="40.82592" lon="0.37287">
        <ele>757.8</ele>
        <time>2022-05-24 17:29:09</time>
      </trkpt>
      <trkpt lat="40.82593" lon="0.37289">
        <ele>757.8</ele>
        <time>2022-05-24 17:29:10</time>
      </trkpt>
      <trkpt lat="40.82594" lon="0.3729">
        <ele>758.2</ele>
        <time>2022-05-24 17:29:11</time>
      </trkpt>
      <trkpt lat="40.82595" lon="0.37292">
        <ele>758.4</ele>
        <time>2022-05-24 17:29:12</time>
      </trkpt>
      <trkpt lat="40.82596" lon="0.37294">
        <ele>758.4</ele>
        <time>2022-05-24 17:29:13</time>
      </trkpt>
      <trkpt lat="40.82596" lon="0.37297">
        <ele>758.6</ele>
        <time>2022-05-24 17:29:14</time>
      </trkpt>
      <trkpt lat="40.82597" lon="0.37299">
        <ele>758.6</ele>
        <time>2022-05-24 17:29:15</time>
      </trkpt>
      <trkpt lat="40.82597" lon="0.37301">
        <ele>758.8</ele>
        <time>2022-05-24 17:29:16</time>
      </trkpt>
      <trkpt lat="40.82597" lon="0.37303">
        <ele>758.8</ele>
        <time>2022-05-24 17:29:17</time>
      </trkpt>
      <trkpt lat="40.82597" lon="0.37305">
        <ele>758.8</ele>
        <time>2022-05-24 17:29:18</time>
      </trkpt>
      <trkpt lat="40.82596" lon="0.37308">
        <ele>758.8</ele>
        <time>2022-05-24 17:29:19</time>
      </trkpt>
      <trkpt lat="40.82596" lon="0.3731">
        <ele>759</ele>
        <time>2022-05-24 17:29:20</time>
      </trkpt>
      <trkpt lat="40.82595" lon="0.37313">
        <ele>759</ele>
        <time>2022-05-24 17:29:21</time>
      </trkpt>
      <trkpt lat="40.82595" lon="0.37315">
        <ele>759.2</ele>
        <time>2022-05-24 17:29:22</time>
      </trkpt>
      <trkpt lat="40.82595" lon="0.37318">
        <ele>759.4</ele>
        <time>2022-05-24 17:29:23</time>
      </trkpt>
      <trkpt lat="40.82595" lon="0.3732">
        <ele>759.6</ele>
        <time>2022-05-24 17:29:24</time>
      </trkpt>
      <trkpt lat="40.82594" lon="0.37323">
        <ele>759.8</ele>
        <time>2022-05-24 17:29:25</time>
      </trkpt>
      <trkpt lat="40.82594" lon="0.37326">
        <ele>760.2</ele>
        <time>2022-05-24 17:29:26</time>
      </trkpt>
      <trkpt lat="40.82594" lon="0.37329">
        <ele>760.6</ele>
        <time>2022-05-24 17:29:27</time>
      </trkpt>
      <trkpt lat="40.82593" lon="0.37332">
        <ele>760.8</ele>
        <time>2022-05-24 17:29:28</time>
      </trkpt>
      <trkpt lat="40.82592" lon="0.37335">
        <ele>761</ele>
        <time>2022-05-24 17:29:29</time>
      </trkpt>
      <trkpt lat="40.82592" lon="0.37338">
        <ele>761.2</ele>
        <time>2022-05-24 17:29:30</time>
      </trkpt>
      <trkpt lat="40.82591" lon="0.37342">
        <ele>761.4</ele>
        <time>2022-05-24 17:29:31</time>
      </trkpt>
      <trkpt lat="40.8259" lon="0.37346">
        <ele>761.4</ele>
        <time>2022-05-24 17:29:32</time>
      </trkpt>
      <trkpt lat="40.8259" lon="0.3735">
        <ele>761.8</ele>
        <time>2022-05-24 17:29:33</time>
      </trkpt>
      <trkpt lat="40.82589" lon="0.37354">
        <ele>762</ele>
        <time>2022-05-24 17:29:34</time>
      </trkpt>
      <trkpt lat="40.82589" lon="0.37358">
        <ele>762.2</ele>
        <time>2022-05-24 17:29:35</time>
      </trkpt>
      <trkpt lat="40.82589" lon="0.37363">
        <ele>762.6</ele>
        <time>2022-05-24 17:29:36</time>
      </trkpt>
      <trkpt lat="40.82588" lon="0.37367">
        <ele>762.8</ele>
        <time>2022-05-24 17:29:37</time>
      </trkpt>
      <trkpt lat="40.82588" lon="0.37372">
        <ele>763.2</ele>
        <time>2022-05-24 17:29:38</time>
      </trkpt>
      <trkpt lat="40.82588" lon="0.37377">
        <ele>763.4</ele>
        <time>2022-05-24 17:29:39</time>
      </trkpt>
      <trkpt lat="40.82589" lon="0.37382">
        <ele>763.8</ele>
        <time>2022-05-24 17:29:40</time>
      </trkpt>
      <trkpt lat="40.82591" lon="0.37387">
        <ele>764</ele>
        <time>2022-05-24 17:29:41</time>
      </trkpt>
      <trkpt lat="40.82592" lon="0.37392">
        <ele>763.8</ele>
        <time>2022-05-24 17:29:42</time>
      </trkpt>
      <trkpt lat="40.82594" lon="0.37398">
        <ele>763.8</ele>
        <time>2022-05-24 17:29:43</time>
      </trkpt>
      <trkpt lat="40.82597" lon="0.37403">
        <ele>763.8</ele>
        <time>2022-05-24 17:29:44</time>
      </trkpt>
      <trkpt lat="40.82599" lon="0.37408">
        <ele>763.8</ele>
        <time>2022-05-24 17:29:45</time>
      </trkpt>
      <trkpt lat="40.82603" lon="0.37412">
        <ele>764</ele>
        <time>2022-05-24 17:29:46</time>
      </trkpt>
      <trkpt lat="40.82606" lon="0.37415">
        <ele>764.2</ele>
        <time>2022-05-24 17:29:47</time>
      </trkpt>
      <trkpt lat="40.8261" lon="0.37417">
        <ele>764.2</ele>
        <time>2022-05-24 17:29:48</time>
      </trkpt>
      <trkpt lat="40.82613" lon="0.37419">
        <ele>764.2</ele>
        <time>2022-05-24 17:29:49</time>
      </trkpt>
      <trkpt lat="40.82617" lon="0.3742">
        <ele>764.4</ele>
        <time>2022-05-24 17:29:50</time>
      </trkpt>
      <trkpt lat="40.8262" lon="0.37422">
        <ele>764.4</ele>
        <time>2022-05-24 17:29:51</time>
      </trkpt>
      <trkpt lat="40.82624" lon="0.37423">
        <ele>764.6</ele>
        <time>2022-05-24 17:29:52</time>
      </trkpt>
      <trkpt lat="40.82626" lon="0.37423">
        <ele>764.8</ele>
        <time>2022-05-24 17:29:53</time>
      </trkpt>
      <trkpt lat="40.82629" lon="0.37424">
        <ele>765</ele>
        <time>2022-05-24 17:29:54</time>
      </trkpt>
      <trkpt lat="40.8263" lon="0.37424">
        <ele>765.4</ele>
        <time>2022-05-24 17:29:55</time>
      </trkpt>
      <trkpt lat="40.82633" lon="0.37425">
        <ele>765.6</ele>
        <time>2022-05-24 17:29:56</time>
      </trkpt>
      <trkpt lat="40.82635" lon="0.37426">
        <ele>765.8</ele>
        <time>2022-05-24 17:29:57</time>
      </trkpt>
      <trkpt lat="40.82637" lon="0.37426">
        <ele>766</ele>
        <time>2022-05-24 17:29:58</time>
      </trkpt>
      <trkpt lat="40.82639" lon="0.37427">
        <ele>766.2</ele>
        <time>2022-05-24 17:29:59</time>
      </trkpt>
      <trkpt lat="40.82641" lon="0.37427">
        <ele>766.4</ele>
        <time>2022-05-24 17:30:00</time>
      </trkpt>
      <trkpt lat="40.82643" lon="0.37428">
        <ele>766.6</ele>
        <time>2022-05-24 17:30:01</time>
      </trkpt>
      <trkpt lat="40.82645" lon="0.37429">
        <ele>766.8</ele>
        <time>2022-05-24 17:30:02</time>
      </trkpt>
      <trkpt lat="40.82647" lon="0.3743">
        <ele>767</ele>
        <time>2022-05-24 17:30:03</time>
      </trkpt>
      <trkpt lat="40.82649" lon="0.37431">
        <ele>767</ele>
        <time>2022-05-24 17:30:04</time>
      </trkpt>
      <trkpt lat="40.82651" lon="0.37431">
        <ele>767.2</ele>
        <time>2022-05-24 17:30:05</time>
      </trkpt>
      <trkpt lat="40.82653" lon="0.37431">
        <ele>767.4</ele>
        <time>2022-05-24 17:30:06</time>
      </trkpt>
      <trkpt lat="40.82655" lon="0.37431">
        <ele>767.8</ele>
        <time>2022-05-24 17:30:07</time>
      </trkpt>
      <trkpt lat="40.82657" lon="0.37431">
        <ele>768</ele>
        <time>2022-05-24 17:30:08</time>
      </trkpt>
      <trkpt lat="40.8266" lon="0.37432">
        <ele>768.2</ele>
        <time>2022-05-24 17:30:09</time>
      </trkpt>
      <trkpt lat="40.82661" lon="0.37432">
        <ele>768.4</ele>
        <time>2022-05-24 17:30:10</time>
      </trkpt>
      <trkpt lat="40.82664" lon="0.37433">
        <ele>768.8</ele>
        <time>2022-05-24 17:30:11</time>
      </trkpt>
      <trkpt lat="40.82665" lon="0.37433">
        <ele>769</ele>
        <time>2022-05-24 17:30:12</time>
      </trkpt>
      <trkpt lat="40.82668" lon="0.37433">
        <ele>769.2</ele>
        <time>2022-05-24 17:30:13</time>
      </trkpt>
      <trkpt lat="40.82669" lon="0.37433">
        <ele>769.4</ele>
        <time>2022-05-24 17:30:14</time>
      </trkpt>
      <trkpt lat="40.82671" lon="0.37433">
        <ele>769.4</ele>
        <time>2022-05-24 17:30:15</time>
      </trkpt>
      <trkpt lat="40.82673" lon="0.37433">
        <ele>769.6</ele>
        <time>2022-05-24 17:30:16</time>
      </trkpt>
      <trkpt lat="40.82676" lon="0.37432">
        <ele>769.8</ele>
        <time>2022-05-24 17:30:17</time>
      </trkpt>
      <trkpt lat="40.82677" lon="0.37432">
        <ele>770</ele>
        <time>2022-05-24 17:30:18</time>
      </trkpt>
      <trkpt lat="40.82679" lon="0.37432">
        <ele>770</ele>
        <time>2022-05-24 17:30:19</time>
      </trkpt>
      <trkpt lat="40.82681" lon="0.37433">
        <ele>770.4</ele>
        <time>2022-05-24 17:30:20</time>
      </trkpt>
      <trkpt lat="40.82683" lon="0.37433">
        <ele>770.6</ele>
        <time>2022-05-24 17:30:21</time>
      </trkpt>
      <trkpt lat="40.82685" lon="0.37433">
        <ele>771</ele>
        <time>2022-05-24 17:30:22</time>
      </trkpt>
      <trkpt lat="40.82687" lon="0.37433">
        <ele>771.2</ele>
        <time>2022-05-24 17:30:23</time>
      </trkpt>
      <trkpt lat="40.82689" lon="0.37433">
        <ele>771.6</ele>
        <time>2022-05-24 17:30:24</time>
      </trkpt>
      <trkpt lat="40.82691" lon="0.37433">
        <ele>772</ele>
        <time>2022-05-24 17:30:25</time>
      </trkpt>
      <trkpt lat="40.82693" lon="0.37433">
        <ele>772.4</ele>
        <time>2022-05-24 17:30:26</time>
      </trkpt>
      <trkpt lat="40.82695" lon="0.37433">
        <ele>772.4</ele>
        <time>2022-05-24 17:30:27</time>
      </trkpt>
      <trkpt lat="40.82697" lon="0.37433">
        <ele>772.4</ele>
        <time>2022-05-24 17:30:28</time>
      </trkpt>
      <trkpt lat="40.82699" lon="0.37433">
        <ele>772.6</ele>
        <time>2022-05-24 17:30:29</time>
      </trkpt>
      <trkpt lat="40.82701" lon="0.37433">
        <ele>773</ele>
        <time>2022-05-24 17:30:30</time>
      </trkpt>
      <trkpt lat="40.82703" lon="0.37432">
        <ele>772.8</ele>
        <time>2022-05-24 17:30:31</time>
      </trkpt>
      <trkpt lat="40.82705" lon="0.37432">
        <ele>772.4</ele>
        <time>2022-05-24 17:30:32</time>
      </trkpt>
      <trkpt lat="40.82707" lon="0.37432">
        <ele>772.6</ele>
        <time>2022-05-24 17:30:33</time>
      </trkpt>
      <trkpt lat="40.82709" lon="0.37432">
        <ele>772.8</ele>
        <time>2022-05-24 17:30:34</time>
      </trkpt>
      <trkpt lat="40.82711" lon="0.37432">
        <ele>773</ele>
        <time>2022-05-24 17:30:35</time>
      </trkpt>
      <trkpt lat="40.82713" lon="0.37432">
        <ele>772.8</ele>
        <time>2022-05-24 17:30:36</time>
      </trkpt>
      <trkpt lat="40.82715" lon="0.37432">
        <ele>772.6</ele>
        <time>2022-05-24 17:30:37</time>
      </trkpt>
      <trkpt lat="40.82717" lon="0.37432">
        <ele>772.6</ele>
        <time>2022-05-24 17:30:38</time>
      </trkpt>
      <trkpt lat="40.82719" lon="0.37432">
        <ele>772.6</ele>
        <time>2022-05-24 17:30:39</time>
      </trkpt>
      <trkpt lat="40.82721" lon="0.37433">
        <ele>772.4</ele>
        <time>2022-05-24 17:30:40</time>
      </trkpt>
      <trkpt lat="40.82723" lon="0.37434">
        <ele>772.4</ele>
        <time>2022-05-24 17:30:41</time>
      </trkpt>
      <trkpt lat="40.82725" lon="0.37435">
        <ele>772.4</ele>
        <time>2022-05-24 17:30:42</time>
      </trkpt>
      <trkpt lat="40.82727" lon="0.37437">
        <ele>772.4</ele>
        <time>2022-05-24 17:30:43</time>
      </trkpt>
      <trkpt lat="40.82729" lon="0.37438">
        <ele>772.6</ele>
        <time>2022-05-24 17:30:44</time>
      </trkpt>
      <trkpt lat="40.82731" lon="0.37439">
        <ele>772.6</ele>
        <time>2022-05-24 17:30:45</time>
      </trkpt>
      <trkpt lat="40.82732" lon="0.37441">
        <ele>772.6</ele>
        <time>2022-05-24 17:30:46</time>
      </trkpt>
      <trkpt lat="40.82734" lon="0.37443">
        <ele>772.6</ele>
        <time>2022-05-24 17:30:47</time>
      </trkpt>
      <trkpt lat="40.82735" lon="0.37444">
        <ele>772.8</ele>
        <time>2022-05-24 17:30:48</time>
      </trkpt>
      <trkpt lat="40.82737" lon="0.37446">
        <ele>772.8</ele>
        <time>2022-05-24 17:30:49</time>
      </trkpt>
      <trkpt lat="40.82738" lon="0.37448">
        <ele>772.8</ele>
        <time>2022-05-24 17:30:50</time>
      </trkpt>
      <trkpt lat="40.82739" lon="0.3745">
        <ele>773</ele>
        <time>2022-05-24 17:30:51</time>
      </trkpt>
      <trkpt lat="40.8274" lon="0.37452">
        <ele>773</ele>
        <time>2022-05-24 17:30:52</time>
      </trkpt>
      <trkpt lat="40.82741" lon="0.37454">
        <ele>773.2</ele>
        <time>2022-05-24 17:30:53</time>
      </trkpt>
      <trkpt lat="40.82743" lon="0.37456">
        <ele>773.2</ele>
        <time>2022-05-24 17:30:54</time>
      </trkpt>
      <trkpt lat="40.82744" lon="0.37458">
        <ele>773.4</ele>
        <time>2022-05-24 17:30:55</time>
      </trkpt>
      <trkpt lat="40.82745" lon="0.3746">
        <ele>773.6</ele>
        <time>2022-05-24 17:30:56</time>
      </trkpt>
      <trkpt lat="40.82747" lon="0.37462">
        <ele>773.8</ele>
        <time>2022-05-24 17:30:57</time>
      </trkpt>
      <trkpt lat="40.82748" lon="0.37464">
        <ele>774</ele>
        <time>2022-05-24 17:30:58</time>
      </trkpt>
      <trkpt lat="40.82749" lon="0.37466">
        <ele>774.2</ele>
        <time>2022-05-24 17:30:59</time>
      </trkpt>
      <trkpt lat="40.82751" lon="0.37467">
        <ele>774.4</ele>
        <time>2022-05-24 17:31:00</time>
      </trkpt>
      <trkpt lat="40.82753" lon="0.37469">
        <ele>774.6</ele>
        <time>2022-05-24 17:31:01</time>
      </trkpt>
      <trkpt lat="40.82755" lon="0.3747">
        <ele>775</ele>
        <time>2022-05-24 17:31:02</time>
      </trkpt>
      <trkpt lat="40.82757" lon="0.37472">
        <ele>775.4</ele>
        <time>2022-05-24 17:31:03</time>
      </trkpt>
      <trkpt lat="40.82759" lon="0.37473">
        <ele>775.8</ele>
        <time>2022-05-24 17:31:04</time>
      </trkpt>
      <trkpt lat="40.82761" lon="0.37474">
        <ele>776</ele>
        <time>2022-05-24 17:31:05</time>
      </trkpt>
      <trkpt lat="40.82763" lon="0.37475">
        <ele>776.2</ele>
        <time>2022-05-24 17:31:06</time>
      </trkpt>
      <trkpt lat="40.82764" lon="0.37475">
        <ele>776.2</ele>
        <time>2022-05-24 17:31:07</time>
      </trkpt>
      <trkpt lat="40.82766" lon="0.37475">
        <ele>776.2</ele>
        <time>2022-05-24 17:31:08</time>
      </trkpt>
      <trkpt lat="40.82768" lon="0.37475">
        <ele>776.4</ele>
        <time>2022-05-24 17:31:09</time>
      </trkpt>
      <trkpt lat="40.82769" lon="0.37474">
        <ele>776.6</ele>
        <time>2022-05-24 17:31:10</time>
      </trkpt>
      <trkpt lat="40.82771" lon="0.37474">
        <ele>776.8</ele>
        <time>2022-05-24 17:31:11</time>
      </trkpt>
      <trkpt lat="40.82773" lon="0.37473">
        <ele>776.8</ele>
        <time>2022-05-24 17:31:12</time>
      </trkpt>
      <trkpt lat="40.82775" lon="0.37472">
        <ele>777</ele>
        <time>2022-05-24 17:31:13</time>
      </trkpt>
      <trkpt lat="40.82777" lon="0.37471">
        <ele>777.2</ele>
        <time>2022-05-24 17:31:14</time>
      </trkpt>
      <trkpt lat="40.82778" lon="0.37469">
        <ele>777.2</ele>
        <time>2022-05-24 17:31:15</time>
      </trkpt>
      <trkpt lat="40.8278" lon="0.37468">
        <ele>777.4</ele>
        <time>2022-05-24 17:31:16</time>
      </trkpt>
      <trkpt lat="40.82781" lon="0.37467">
        <ele>777.8</ele>
        <time>2022-05-24 17:31:17</time>
      </trkpt>
      <trkpt lat="40.82783" lon="0.37466">
        <ele>778</ele>
        <time>2022-05-24 17:31:18</time>
      </trkpt>
      <trkpt lat="40.82784" lon="0.37464">
        <ele>778.2</ele>
        <time>2022-05-24 17:31:19</time>
      </trkpt>
      <trkpt lat="40.82786" lon="0.37463">
        <ele>778.6</ele>
        <time>2022-05-24 17:31:20</time>
      </trkpt>
      <trkpt lat="40.82788" lon="0.37462">
        <ele>778.8</ele>
        <time>2022-05-24 17:31:21</time>
      </trkpt>
      <trkpt lat="40.82789" lon="0.37461">
        <ele>779</ele>
        <time>2022-05-24 17:31:22</time>
      </trkpt>
      <trkpt lat="40.82791" lon="0.3746">
        <ele>779.2</ele>
        <time>2022-05-24 17:31:23</time>
      </trkpt>
      <trkpt lat="40.82792" lon="0.37459">
        <ele>779.4</ele>
        <time>2022-05-24 17:31:24</time>
      </trkpt>
      <trkpt lat="40.82794" lon="0.37457">
        <ele>779.6</ele>
        <time>2022-05-24 17:31:25</time>
      </trkpt>
      <trkpt lat="40.82795" lon="0.37456">
        <ele>779.8</ele>
        <time>2022-05-24 17:31:26</time>
      </trkpt>
      <trkpt lat="40.82797" lon="0.37455">
        <ele>780</ele>
        <time>2022-05-24 17:31:27</time>
      </trkpt>
      <trkpt lat="40.82798" lon="0.37454">
        <ele>780.2</ele>
        <time>2022-05-24 17:31:28</time>
      </trkpt>
      <trkpt lat="40.828" lon="0.37453">
        <ele>780.4</ele>
        <time>2022-05-24 17:31:29</time>
      </trkpt>
      <trkpt lat="40.82801" lon="0.37452">
        <ele>780.6</ele>
        <time>2022-05-24 17:31:30</time>
      </trkpt>
      <trkpt lat="40.82803" lon="0.3745">
        <ele>781</ele>
        <time>2022-05-24 17:31:31</time>
      </trkpt>
      <trkpt lat="40.82804" lon="0.3745">
        <ele>781.2</ele>
        <time>2022-05-24 17:31:32</time>
      </trkpt>
      <trkpt lat="40.82806" lon="0.37449">
        <ele>781.4</ele>
        <time>2022-05-24 17:31:33</time>
      </trkpt>
      <trkpt lat="40.82808" lon="0.37447">
        <ele>781.6</ele>
        <time>2022-05-24 17:31:34</time>
      </trkpt>
      <trkpt lat="40.82809" lon="0.37446">
        <ele>781.8</ele>
        <time>2022-05-24 17:31:35</time>
      </trkpt>
      <trkpt lat="40.8281" lon="0.37445">
        <ele>781.8</ele>
        <time>2022-05-24 17:31:36</time>
      </trkpt>
      <trkpt lat="40.82811" lon="0.37444">
        <ele>782</ele>
        <time>2022-05-24 17:31:37</time>
      </trkpt>
      <trkpt lat="40.82813" lon="0.37442">
        <ele>782.2</ele>
        <time>2022-05-24 17:31:38</time>
      </trkpt>
      <trkpt lat="40.82814" lon="0.37441">
        <ele>782.4</ele>
        <time>2022-05-24 17:31:39</time>
      </trkpt>
      <trkpt lat="40.82815" lon="0.37439">
        <ele>782.8</ele>
        <time>2022-05-24 17:31:40</time>
      </trkpt>
      <trkpt lat="40.82817" lon="0.37438">
        <ele>783.2</ele>
        <time>2022-05-24 17:31:41</time>
      </trkpt>
      <trkpt lat="40.82818" lon="0.37437">
        <ele>783.4</ele>
        <time>2022-05-24 17:31:42</time>
      </trkpt>
      <trkpt lat="40.82819" lon="0.37435">
        <ele>783.8</ele>
        <time>2022-05-24 17:31:43</time>
      </trkpt>
      <trkpt lat="40.8282" lon="0.37433">
        <ele>784.2</ele>
        <time>2022-05-24 17:31:44</time>
      </trkpt>
      <trkpt lat="40.82821" lon="0.37432">
        <ele>784.4</ele>
        <time>2022-05-24 17:31:45</time>
      </trkpt>
      <trkpt lat="40.82822" lon="0.3743">
        <ele>784.6</ele>
        <time>2022-05-24 17:31:46</time>
      </trkpt>
      <trkpt lat="40.82823" lon="0.37428">
        <ele>784.8</ele>
        <time>2022-05-24 17:31:47</time>
      </trkpt>
      <trkpt lat="40.82825" lon="0.37426">
        <ele>785</ele>
        <time>2022-05-24 17:31:48</time>
      </trkpt>
      <trkpt lat="40.82826" lon="0.37424">
        <ele>785.2</ele>
        <time>2022-05-24 17:31:49</time>
      </trkpt>
      <trkpt lat="40.82827" lon="0.37422">
        <ele>785.2</ele>
        <time>2022-05-24 17:31:50</time>
      </trkpt>
      <trkpt lat="40.82827" lon="0.37421">
        <ele>785.4</ele>
        <time>2022-05-24 17:31:51</time>
      </trkpt>
      <trkpt lat="40.82829" lon="0.37419">
        <ele>785.6</ele>
        <time>2022-05-24 17:31:52</time>
      </trkpt>
      <trkpt lat="40.82829" lon="0.37417">
        <ele>785.8</ele>
        <time>2022-05-24 17:31:53</time>
      </trkpt>
      <trkpt lat="40.8283" lon="0.37415">
        <ele>786</ele>
        <time>2022-05-24 17:31:54</time>
      </trkpt>
      <trkpt lat="40.82832" lon="0.37413">
        <ele>786.4</ele>
        <time>2022-05-24 17:31:55</time>
      </trkpt>
      <trkpt lat="40.82833" lon="0.37412">
        <ele>786.6</ele>
        <time>2022-05-24 17:31:56</time>
      </trkpt>
      <trkpt lat="40.82833" lon="0.3741">
        <ele>786.8</ele>
        <time>2022-05-24 17:31:57</time>
      </trkpt>
      <trkpt lat="40.82834" lon="0.37408">
        <ele>786.8</ele>
        <time>2022-05-24 17:31:58</time>
      </trkpt>
      <trkpt lat="40.82835" lon="0.37407">
        <ele>786.8</ele>
        <time>2022-05-24 17:31:59</time>
      </trkpt>
      <trkpt lat="40.82836" lon="0.37405">
        <ele>787</ele>
        <time>2022-05-24 17:32:00</time>
      </trkpt>
      <trkpt lat="40.82837" lon="0.37403">
        <ele>787.2</ele>
        <time>2022-05-24 17:32:01</time>
      </trkpt>
      <trkpt lat="40.82838" lon="0.37401">
        <ele>787.6</ele>
        <time>2022-05-24 17:32:02</time>
      </trkpt>
      <trkpt lat="40.82838" lon="0.37399">
        <ele>788</ele>
        <time>2022-05-24 17:32:03</time>
      </trkpt>
      <trkpt lat="40.82839" lon="0.37397">
        <ele>788.2</ele>
        <time>2022-05-24 17:32:04</time>
      </trkpt>
      <trkpt lat="40.8284" lon="0.37395">
        <ele>788.4</ele>
        <time>2022-05-24 17:32:05</time>
      </trkpt>
      <trkpt lat="40.82841" lon="0.37394">
        <ele>788.4</ele>
        <time>2022-05-24 17:32:06</time>
      </trkpt>
      <trkpt lat="40.82841" lon="0.37392">
        <ele>788.6</ele>
        <time>2022-05-24 17:32:07</time>
      </trkpt>
      <trkpt lat="40.82842" lon="0.3739">
        <ele>788.8</ele>
        <time>2022-05-24 17:32:08</time>
      </trkpt>
      <trkpt lat="40.82843" lon="0.37388">
        <ele>789</ele>
        <time>2022-05-24 17:32:09</time>
      </trkpt>
      <trkpt lat="40.82843" lon="0.37386">
        <ele>789.2</ele>
        <time>2022-05-24 17:32:10</time>
      </trkpt>
      <trkpt lat="40.82843" lon="0.37384">
        <ele>789.2</ele>
        <time>2022-05-24 17:32:11</time>
      </trkpt>
      <trkpt lat="40.82844" lon="0.37382">
        <ele>789.6</ele>
        <time>2022-05-24 17:32:12</time>
      </trkpt>
      <trkpt lat="40.82844" lon="0.3738">
        <ele>789.8</ele>
        <time>2022-05-24 17:32:13</time>
      </trkpt>
      <trkpt lat="40.82845" lon="0.37378">
        <ele>790</ele>
        <time>2022-05-24 17:32:14</time>
      </trkpt>
      <trkpt lat="40.82845" lon="0.37376">
        <ele>790</ele>
        <time>2022-05-24 17:32:15</time>
      </trkpt>
      <trkpt lat="40.82845" lon="0.37374">
        <ele>790.2</ele>
        <time>2022-05-24 17:32:16</time>
      </trkpt>
      <trkpt lat="40.82846" lon="0.37372">
        <ele>790.4</ele>
        <time>2022-05-24 17:32:17</time>
      </trkpt>
      <trkpt lat="40.82846" lon="0.3737">
        <ele>790.4</ele>
        <time>2022-05-24 17:32:18</time>
      </trkpt>
      <trkpt lat="40.82847" lon="0.37368">
        <ele>790.6</ele>
        <time>2022-05-24 17:32:19</time>
      </trkpt>
      <trkpt lat="40.82847" lon="0.37366">
        <ele>790.8</ele>
        <time>2022-05-24 17:32:20</time>
      </trkpt>
      <trkpt lat="40.82848" lon="0.37364">
        <ele>791</ele>
        <time>2022-05-24 17:32:21</time>
      </trkpt>
      <trkpt lat="40.82848" lon="0.37362">
        <ele>791.2</ele>
        <time>2022-05-24 17:32:22</time>
      </trkpt>
      <trkpt lat="40.82848" lon="0.37359">
        <ele>791.4</ele>
        <time>2022-05-24 17:32:23</time>
      </trkpt>
      <trkpt lat="40.82849" lon="0.37357">
        <ele>791.4</ele>
        <time>2022-05-24 17:32:24</time>
      </trkpt>
      <trkpt lat="40.8285" lon="0.37355">
        <ele>791.4</ele>
        <time>2022-05-24 17:32:25</time>
      </trkpt>
      <trkpt lat="40.82851" lon="0.37353">
        <ele>791.6</ele>
        <time>2022-05-24 17:32:26</time>
      </trkpt>
      <trkpt lat="40.82851" lon="0.37351">
        <ele>792</ele>
        <time>2022-05-24 17:32:27</time>
      </trkpt>
      <trkpt lat="40.82851" lon="0.37348">
        <ele>792.2</ele>
        <time>2022-05-24 17:32:28</time>
      </trkpt>
      <trkpt lat="40.82852" lon="0.37346">
        <ele>792.2</ele>
        <time>2022-05-24 17:32:29</time>
      </trkpt>
      <trkpt lat="40.82852" lon="0.37344">
        <ele>792.4</ele>
        <time>2022-05-24 17:32:30</time>
      </trkpt>
      <trkpt lat="40.82853" lon="0.37342">
        <ele>792.4</ele>
        <time>2022-05-24 17:32:31</time>
      </trkpt>
      <trkpt lat="40.82853" lon="0.3734">
        <ele>792.6</ele>
        <time>2022-05-24 17:32:32</time>
      </trkpt>
      <trkpt lat="40.82854" lon="0.37338">
        <ele>792.8</ele>
        <time>2022-05-24 17:32:33</time>
      </trkpt>
      <trkpt lat="40.82854" lon="0.37336">
        <ele>793</ele>
        <time>2022-05-24 17:32:34</time>
      </trkpt>
      <trkpt lat="40.82855" lon="0.37334">
        <ele>793.2</ele>
        <time>2022-05-24 17:32:35</time>
      </trkpt>
      <trkpt lat="40.82856" lon="0.37331">
        <ele>793.2</ele>
        <time>2022-05-24 17:32:36</time>
      </trkpt>
      <trkpt lat="40.82856" lon="0.37329">
        <ele>793.4</ele>
        <time>2022-05-24 17:32:37</time>
      </trkpt>
      <trkpt lat="40.82857" lon="0.37328">
        <ele>793.6</ele>
        <time>2022-05-24 17:32:38</time>
      </trkpt>
      <trkpt lat="40.82857" lon="0.37326">
        <ele>793.8</ele>
        <time>2022-05-24 17:32:39</time>
      </trkpt>
      <trkpt lat="40.82858" lon="0.37324">
        <ele>794</ele>
        <time>2022-05-24 17:32:40</time>
      </trkpt>
      <trkpt lat="40.82858" lon="0.37322">
        <ele>794.2</ele>
        <time>2022-05-24 17:32:41</time>
      </trkpt>
      <trkpt lat="40.82858" lon="0.3732">
        <ele>794.2</ele>
        <time>2022-05-24 17:32:42</time>
      </trkpt>
      <trkpt lat="40.82858" lon="0.37318">
        <ele>794.4</ele>
        <time>2022-05-24 17:32:43</time>
      </trkpt>
      <trkpt lat="40.82859" lon="0.37316">
        <ele>794.6</ele>
        <time>2022-05-24 17:32:44</time>
      </trkpt>
      <trkpt lat="40.8286" lon="0.37314">
        <ele>794.8</ele>
        <time>2022-05-24 17:32:45</time>
      </trkpt>
      <trkpt lat="40.82861" lon="0.37313">
        <ele>794.8</ele>
        <time>2022-05-24 17:32:46</time>
      </trkpt>
      <trkpt lat="40.82861" lon="0.37311">
        <ele>795</ele>
        <time>2022-05-24 17:32:47</time>
      </trkpt>
      <trkpt lat="40.82862" lon="0.37309">
        <ele>795</ele>
        <time>2022-05-24 17:32:48</time>
      </trkpt>
      <trkpt lat="40.82862" lon="0.37307">
        <ele>795.2</ele>
        <time>2022-05-24 17:32:49</time>
      </trkpt>
      <trkpt lat="40.82862" lon="0.37305">
        <ele>795.2</ele>
        <time>2022-05-24 17:32:50</time>
      </trkpt>
      <trkpt lat="40.82863" lon="0.37303">
        <ele>795.2</ele>
        <time>2022-05-24 17:32:51</time>
      </trkpt>
      <trkpt lat="40.82864" lon="0.37301">
        <ele>795.4</ele>
        <time>2022-05-24 17:32:52</time>
      </trkpt>
      <trkpt lat="40.82864" lon="0.37299">
        <ele>795.6</ele>
        <time>2022-05-24 17:32:53</time>
      </trkpt>
      <trkpt lat="40.82865" lon="0.37297">
        <ele>796</ele>
        <time>2022-05-24 17:32:54</time>
      </trkpt>
      <trkpt lat="40.82865" lon="0.37295">
        <ele>796.4</ele>
        <time>2022-05-24 17:32:55</time>
      </trkpt>
      <trkpt lat="40.82866" lon="0.37293">
        <ele>796.6</ele>
        <time>2022-05-24 17:32:56</time>
      </trkpt>
      <trkpt lat="40.82866" lon="0.37291">
        <ele>796.6</ele>
        <time>2022-05-24 17:32:57</time>
      </trkpt>
      <trkpt lat="40.82866" lon="0.37289">
        <ele>796.6</ele>
        <time>2022-05-24 17:32:58</time>
      </trkpt>
      <trkpt lat="40.82867" lon="0.37287">
        <ele>796.8</ele>
        <time>2022-05-24 17:32:59</time>
      </trkpt>
      <trkpt lat="40.82867" lon="0.37285">
        <ele>797</ele>
        <time>2022-05-24 17:33:00</time>
      </trkpt>
      <trkpt lat="40.82868" lon="0.37283">
        <ele>797.2</ele>
        <time>2022-05-24 17:33:01</time>
      </trkpt>
      <trkpt lat="40.82868" lon="0.37281">
        <ele>797.2</ele>
        <time>2022-05-24 17:33:02</time>
      </trkpt>
      <trkpt lat="40.82869" lon="0.37279">
        <ele>797.4</ele>
        <time>2022-05-24 17:33:03</time>
      </trkpt>
      <trkpt lat="40.82869" lon="0.37277">
        <ele>797.6</ele>
        <time>2022-05-24 17:33:04</time>
      </trkpt>
      <trkpt lat="40.8287" lon="0.37275">
        <ele>797.6</ele>
        <time>2022-05-24 17:33:05</time>
      </trkpt>
      <trkpt lat="40.8287" lon="0.37273">
        <ele>797.8</ele>
        <time>2022-05-24 17:33:06</time>
      </trkpt>
      <trkpt lat="40.82871" lon="0.37271">
        <ele>797.8</ele>
        <time>2022-05-24 17:33:07</time>
      </trkpt>
      <trkpt lat="40.82872" lon="0.37269">
        <ele>798</ele>
        <time>2022-05-24 17:33:08</time>
      </trkpt>
      <trkpt lat="40.82872" lon="0.37267">
        <ele>798.2</ele>
        <time>2022-05-24 17:33:09</time>
      </trkpt>
      <trkpt lat="40.82873" lon="0.37266">
        <ele>798.4</ele>
        <time>2022-05-24 17:33:10</time>
      </trkpt>
      <trkpt lat="40.82874" lon="0.37264">
        <ele>798.4</ele>
        <time>2022-05-24 17:33:11</time>
      </trkpt>
      <trkpt lat="40.82875" lon="0.37262">
        <ele>798.4</ele>
        <time>2022-05-24 17:33:12</time>
      </trkpt>
      <trkpt lat="40.82876" lon="0.37261">
        <ele>798.4</ele>
        <time>2022-05-24 17:33:13</time>
      </trkpt>
      <trkpt lat="40.82877" lon="0.37259">
        <ele>798.6</ele>
        <time>2022-05-24 17:33:14</time>
      </trkpt>
      <trkpt lat="40.82878" lon="0.37257">
        <ele>798.6</ele>
        <time>2022-05-24 17:33:15</time>
      </trkpt>
      <trkpt lat="40.82879" lon="0.37256">
        <ele>798.8</ele>
        <time>2022-05-24 17:33:16</time>
      </trkpt>
      <trkpt lat="40.8288" lon="0.37254">
        <ele>799.2</ele>
        <time>2022-05-24 17:33:17</time>
      </trkpt>
      <trkpt lat="40.82882" lon="0.37252">
        <ele>799.4</ele>
        <time>2022-05-24 17:33:18</time>
      </trkpt>
      <trkpt lat="40.82883" lon="0.37251">
        <ele>799.6</ele>
        <time>2022-05-24 17:33:19</time>
      </trkpt>
      <trkpt lat="40.82885" lon="0.3725">
        <ele>799.8</ele>
        <time>2022-05-24 17:33:20</time>
      </trkpt>
      <trkpt lat="40.82886" lon="0.37249">
        <ele>799.8</ele>
        <time>2022-05-24 17:33:21</time>
      </trkpt>
      <trkpt lat="40.82888" lon="0.37248">
        <ele>800</ele>
        <time>2022-05-24 17:33:22</time>
      </trkpt>
      <trkpt lat="40.82889" lon="0.37247">
        <ele>800</ele>
        <time>2022-05-24 17:33:23</time>
      </trkpt>
      <trkpt lat="40.82891" lon="0.37246">
        <ele>800.2</ele>
        <time>2022-05-24 17:33:24</time>
      </trkpt>
      <trkpt lat="40.82892" lon="0.37245">
        <ele>800.4</ele>
        <time>2022-05-24 17:33:25</time>
      </trkpt>
      <trkpt lat="40.82894" lon="0.37244">
        <ele>800.8</ele>
        <time>2022-05-24 17:33:26</time>
      </trkpt>
      <trkpt lat="40.82895" lon="0.37243">
        <ele>801.2</ele>
        <time>2022-05-24 17:33:27</time>
      </trkpt>
      <trkpt lat="40.82897" lon="0.37242">
        <ele>801.4</ele>
        <time>2022-05-24 17:33:28</time>
      </trkpt>
      <trkpt lat="40.82898" lon="0.37242">
        <ele>801.6</ele>
        <time>2022-05-24 17:33:29</time>
      </trkpt>
      <trkpt lat="40.829" lon="0.37242">
        <ele>801.8</ele>
        <time>2022-05-24 17:33:30</time>
      </trkpt>
      <trkpt lat="40.82902" lon="0.37242">
        <ele>802</ele>
        <time>2022-05-24 17:33:31</time>
      </trkpt>
      <trkpt lat="40.82904" lon="0.37241">
        <ele>802</ele>
        <time>2022-05-24 17:33:32</time>
      </trkpt>
      <trkpt lat="40.82906" lon="0.37241">
        <ele>802.2</ele>
        <time>2022-05-24 17:33:33</time>
      </trkpt>
      <trkpt lat="40.82908" lon="0.37242">
        <ele>802.4</ele>
        <time>2022-05-24 17:33:34</time>
      </trkpt>
      <trkpt lat="40.82911" lon="0.37242">
        <ele>802.4</ele>
        <time>2022-05-24 17:33:35</time>
      </trkpt>
      <trkpt lat="40.82912" lon="0.37242">
        <ele>802.4</ele>
        <time>2022-05-24 17:33:36</time>
      </trkpt>
      <trkpt lat="40.82914" lon="0.37242">
        <ele>802.6</ele>
        <time>2022-05-24 17:33:37</time>
      </trkpt>
      <trkpt lat="40.82916" lon="0.37243">
        <ele>803</ele>
        <time>2022-05-24 17:33:38</time>
      </trkpt>
      <trkpt lat="40.82918" lon="0.37243">
        <ele>803</ele>
        <time>2022-05-24 17:33:39</time>
      </trkpt>
      <trkpt lat="40.8292" lon="0.37243">
        <ele>803.2</ele>
        <time>2022-05-24 17:33:40</time>
      </trkpt>
      <trkpt lat="40.82922" lon="0.37244">
        <ele>803.4</ele>
        <time>2022-05-24 17:33:41</time>
      </trkpt>
      <trkpt lat="40.82924" lon="0.37244">
        <ele>803.4</ele>
        <time>2022-05-24 17:33:42</time>
      </trkpt>
      <trkpt lat="40.82925" lon="0.37244">
        <ele>803.4</ele>
        <time>2022-05-24 17:33:43</time>
      </trkpt>
      <trkpt lat="40.82927" lon="0.37245">
        <ele>803.8</ele>
        <time>2022-05-24 17:33:44</time>
      </trkpt>
      <trkpt lat="40.82929" lon="0.37246">
        <ele>804</ele>
        <time>2022-05-24 17:33:45</time>
      </trkpt>
      <trkpt lat="40.8293" lon="0.37247">
        <ele>804.4</ele>
        <time>2022-05-24 17:33:46</time>
      </trkpt>
      <trkpt lat="40.82932" lon="0.37248">
        <ele>804.8</ele>
        <time>2022-05-24 17:33:47</time>
      </trkpt>
      <trkpt lat="40.82934" lon="0.3725">
        <ele>805.2</ele>
        <time>2022-05-24 17:33:48</time>
      </trkpt>
      <trkpt lat="40.82935" lon="0.37251">
        <ele>805.4</ele>
        <time>2022-05-24 17:33:49</time>
      </trkpt>
      <trkpt lat="40.82937" lon="0.37252">
        <ele>805.8</ele>
        <time>2022-05-24 17:33:50</time>
      </trkpt>
      <trkpt lat="40.82938" lon="0.37253">
        <ele>806</ele>
        <time>2022-05-24 17:33:51</time>
      </trkpt>
      <trkpt lat="40.8294" lon="0.37254">
        <ele>806.4</ele>
        <time>2022-05-24 17:33:52</time>
      </trkpt>
      <trkpt lat="40.82941" lon="0.37255">
        <ele>806.6</ele>
        <time>2022-05-24 17:33:53</time>
      </trkpt>
      <trkpt lat="40.82942" lon="0.37257">
        <ele>806.8</ele>
        <time>2022-05-24 17:33:54</time>
      </trkpt>
      <trkpt lat="40.82943" lon="0.37259">
        <ele>807</ele>
        <time>2022-05-24 17:33:55</time>
      </trkpt>
      <trkpt lat="40.82944" lon="0.3726">
        <ele>807.4</ele>
        <time>2022-05-24 17:33:56</time>
      </trkpt>
      <trkpt lat="40.82946" lon="0.37262">
        <ele>807.6</ele>
        <time>2022-05-24 17:33:57</time>
      </trkpt>
      <trkpt lat="40.82947" lon="0.37264">
        <ele>807.6</ele>
        <time>2022-05-24 17:33:58</time>
      </trkpt>
      <trkpt lat="40.82948" lon="0.37267">
        <ele>807.8</ele>
        <time>2022-05-24 17:33:59</time>
      </trkpt>
      <trkpt lat="40.82948" lon="0.37269">
        <ele>808</ele>
        <time>2022-05-24 17:34:00</time>
      </trkpt>
      <trkpt lat="40.82949" lon="0.37271">
        <ele>808.2</ele>
        <time>2022-05-24 17:34:01</time>
      </trkpt>
      <trkpt lat="40.82951" lon="0.37274">
        <ele>808.4</ele>
        <time>2022-05-24 17:34:02</time>
      </trkpt>
      <trkpt lat="40.82952" lon="0.37276">
        <ele>808.6</ele>
        <time>2022-05-24 17:34:03</time>
      </trkpt>
      <trkpt lat="40.82952" lon="0.37279">
        <ele>808.8</ele>
        <time>2022-05-24 17:34:04</time>
      </trkpt>
      <trkpt lat="40.82953" lon="0.37281">
        <ele>809</ele>
        <time>2022-05-24 17:34:05</time>
      </trkpt>
      <trkpt lat="40.82954" lon="0.37284">
        <ele>809</ele>
        <time>2022-05-24 17:34:06</time>
      </trkpt>
      <trkpt lat="40.82955" lon="0.37286">
        <ele>809.2</ele>
        <time>2022-05-24 17:34:07</time>
      </trkpt>
      <trkpt lat="40.82956" lon="0.37289">
        <ele>809.2</ele>
        <time>2022-05-24 17:34:08</time>
      </trkpt>
      <trkpt lat="40.82957" lon="0.37291">
        <ele>809.4</ele>
        <time>2022-05-24 17:34:09</time>
      </trkpt>
      <trkpt lat="40.82958" lon="0.37294">
        <ele>809.4</ele>
        <time>2022-05-24 17:34:10</time>
      </trkpt>
      <trkpt lat="40.82959" lon="0.37296">
        <ele>809.6</ele>
        <time>2022-05-24 17:34:11</time>
      </trkpt>
      <trkpt lat="40.8296" lon="0.37298">
        <ele>809.4</ele>
        <time>2022-05-24 17:34:12</time>
      </trkpt>
      <trkpt lat="40.82961" lon="0.37301">
        <ele>809.2</ele>
        <time>2022-05-24 17:34:13</time>
      </trkpt>
      <trkpt lat="40.82962" lon="0.37303">
        <ele>809.4</ele>
        <time>2022-05-24 17:34:14</time>
      </trkpt>
      <trkpt lat="40.82964" lon="0.37306">
        <ele>809.4</ele>
        <time>2022-05-24 17:34:15</time>
      </trkpt>
      <trkpt lat="40.82965" lon="0.37308">
        <ele>809.6</ele>
        <time>2022-05-24 17:34:16</time>
      </trkpt>
      <trkpt lat="40.82966" lon="0.37311">
        <ele>809.6</ele>
        <time>2022-05-24 17:34:17</time>
      </trkpt>
      <trkpt lat="40.82967" lon="0.37314">
        <ele>809.8</ele>
        <time>2022-05-24 17:34:18</time>
      </trkpt>
      <trkpt lat="40.82969" lon="0.37317">
        <ele>809.8</ele>
        <time>2022-05-24 17:34:19</time>
      </trkpt>
      <trkpt lat="40.8297" lon="0.37319">
        <ele>809.8</ele>
        <time>2022-05-24 17:34:20</time>
      </trkpt>
      <trkpt lat="40.82972" lon="0.37322">
        <ele>810</ele>
        <time>2022-05-24 17:34:21</time>
      </trkpt>
      <trkpt lat="40.82974" lon="0.37325">
        <ele>810</ele>
        <time>2022-05-24 17:34:22</time>
      </trkpt>
      <trkpt lat="40.82975" lon="0.37327">
        <ele>810</ele>
        <time>2022-05-24 17:34:23</time>
      </trkpt>
      <trkpt lat="40.82976" lon="0.37328">
        <ele>810</ele>
        <time>2022-05-24 17:34:24</time>
      </trkpt>
      <trkpt lat="40.82978" lon="0.3733">
        <ele>810</ele>
        <time>2022-05-24 17:34:25</time>
      </trkpt>
      <trkpt lat="40.8298" lon="0.37333">
        <ele>809.8</ele>
        <time>2022-05-24 17:34:26</time>
      </trkpt>
      <trkpt lat="40.82983" lon="0.37335">
        <ele>809.4</ele>
        <time>2022-05-24 17:34:27</time>
      </trkpt>
      <trkpt lat="40.82985" lon="0.37337">
        <ele>809.2</ele>
        <time>2022-05-24 17:34:28</time>
      </trkpt>
      <trkpt lat="40.82986" lon="0.37339">
        <ele>809.2</ele>
        <time>2022-05-24 17:34:29</time>
      </trkpt>
      <trkpt lat="40.82988" lon="0.37342">
        <ele>809.6</ele>
        <time>2022-05-24 17:34:30</time>
      </trkpt>
      <trkpt lat="40.8299" lon="0.37343">
        <ele>809.6</ele>
        <time>2022-05-24 17:34:31</time>
      </trkpt>
      <trkpt lat="40.82993" lon="0.37345">
        <ele>809.6</ele>
        <time>2022-05-24 17:34:32</time>
      </trkpt>
      <trkpt lat="40.82994" lon="0.37348">
        <ele>809.8</ele>
        <time>2022-05-24 17:34:33</time>
      </trkpt>
      <trkpt lat="40.82996" lon="0.3735">
        <ele>810</ele>
        <time>2022-05-24 17:34:34</time>
      </trkpt>
      <trkpt lat="40.82998" lon="0.37351">
        <ele>810.2</ele>
        <time>2022-05-24 17:34:35</time>
      </trkpt>
      <trkpt lat="40.83001" lon="0.37352">
        <ele>810.4</ele>
        <time>2022-05-24 17:34:36</time>
      </trkpt>
      <trkpt lat="40.83003" lon="0.37352">
        <ele>810.8</ele>
        <time>2022-05-24 17:34:37</time>
      </trkpt>
      <trkpt lat="40.83006" lon="0.37352">
        <ele>811.2</ele>
        <time>2022-05-24 17:34:38</time>
      </trkpt>
      <trkpt lat="40.83008" lon="0.3735">
        <ele>811.6</ele>
        <time>2022-05-24 17:34:39</time>
      </trkpt>
      <trkpt lat="40.8301" lon="0.37349">
        <ele>811.8</ele>
        <time>2022-05-24 17:34:40</time>
      </trkpt>
      <trkpt lat="40.83011" lon="0.37346">
        <ele>811.8</ele>
        <time>2022-05-24 17:34:41</time>
      </trkpt>
      <trkpt lat="40.83012" lon="0.37343">
        <ele>811.8</ele>
        <time>2022-05-24 17:34:42</time>
      </trkpt>
      <trkpt lat="40.83012" lon="0.37341">
        <ele>811.6</ele>
        <time>2022-05-24 17:34:43</time>
      </trkpt>
      <trkpt lat="40.83011" lon="0.37338">
        <ele>812</ele>
        <time>2022-05-24 17:34:44</time>
      </trkpt>
      <trkpt lat="40.8301" lon="0.37335">
        <ele>812.4</ele>
        <time>2022-05-24 17:34:45</time>
      </trkpt>
      <trkpt lat="40.83009" lon="0.37332">
        <ele>812.8</ele>
        <time>2022-05-24 17:34:46</time>
      </trkpt>
      <trkpt lat="40.83009" lon="0.3733">
        <ele>813.2</ele>
        <time>2022-05-24 17:34:47</time>
      </trkpt>
      <trkpt lat="40.83007" lon="0.37327">
        <ele>813.6</ele>
        <time>2022-05-24 17:34:48</time>
      </trkpt>
      <trkpt lat="40.83007" lon="0.37325">
        <ele>813.8</ele>
        <time>2022-05-24 17:34:49</time>
      </trkpt>
      <trkpt lat="40.83006" lon="0.37323">
        <ele>814</ele>
        <time>2022-05-24 17:34:50</time>
      </trkpt>
      <trkpt lat="40.83004" lon="0.3732">
        <ele>814.4</ele>
        <time>2022-05-24 17:34:51</time>
      </trkpt>
      <trkpt lat="40.83002" lon="0.37318">
        <ele>814.6</ele>
        <time>2022-05-24 17:34:52</time>
      </trkpt>
      <trkpt lat="40.83001" lon="0.37316">
        <ele>814.8</ele>
        <time>2022-05-24 17:34:53</time>
      </trkpt>
      <trkpt lat="40.83" lon="0.37315">
        <ele>815</ele>
        <time>2022-05-24 17:34:54</time>
      </trkpt>
      <trkpt lat="40.82999" lon="0.37312">
        <ele>815.2</ele>
        <time>2022-05-24 17:34:55</time>
      </trkpt>
      <trkpt lat="40.82998" lon="0.3731">
        <ele>815.4</ele>
        <time>2022-05-24 17:34:56</time>
      </trkpt>
      <trkpt lat="40.82996" lon="0.37308">
        <ele>815.6</ele>
        <time>2022-05-24 17:34:57</time>
      </trkpt>
      <trkpt lat="40.82995" lon="0.37306">
        <ele>816.2</ele>
        <time>2022-05-24 17:34:58</time>
      </trkpt>
      <trkpt lat="40.82993" lon="0.37304">
        <ele>816.6</ele>
        <time>2022-05-24 17:34:59</time>
      </trkpt>
      <trkpt lat="40.82992" lon="0.37301">
        <ele>817</ele>
        <time>2022-05-24 17:35:00</time>
      </trkpt>
      <trkpt lat="40.82991" lon="0.37299">
        <ele>817.4</ele>
        <time>2022-05-24 17:35:01</time>
      </trkpt>
      <trkpt lat="40.8299" lon="0.37297">
        <ele>817.8</ele>
        <time>2022-05-24 17:35:02</time>
      </trkpt>
      <trkpt lat="40.82988" lon="0.37294">
        <ele>818</ele>
        <time>2022-05-24 17:35:03</time>
      </trkpt>
      <trkpt lat="40.82987" lon="0.37292">
        <ele>818.2</ele>
        <time>2022-05-24 17:35:04</time>
      </trkpt>
      <trkpt lat="40.82986" lon="0.37289">
        <ele>818.2</ele>
        <time>2022-05-24 17:35:05</time>
      </trkpt>
      <trkpt lat="40.82986" lon="0.37287">
        <ele>818.6</ele>
        <time>2022-05-24 17:35:06</time>
      </trkpt>
      <trkpt lat="40.82985" lon="0.37284">
        <ele>819</ele>
        <time>2022-05-24 17:35:07</time>
      </trkpt>
      <trkpt lat="40.82984" lon="0.37281">
        <ele>819.6</ele>
        <time>2022-05-24 17:35:08</time>
      </trkpt>
      <trkpt lat="40.82983" lon="0.37278">
        <ele>819.8</ele>
        <time>2022-05-24 17:35:09</time>
      </trkpt>
      <trkpt lat="40.82983" lon="0.37275">
        <ele>819.8</ele>
        <time>2022-05-24 17:35:10</time>
      </trkpt>
      <trkpt lat="40.82983" lon="0.37272">
        <ele>819.6</ele>
        <time>2022-05-24 17:35:11</time>
      </trkpt>
      <trkpt lat="40.82983" lon="0.3727">
        <ele>819.4</ele>
        <time>2022-05-24 17:35:12</time>
      </trkpt>
      <trkpt lat="40.82983" lon="0.37268">
        <ele>819.4</ele>
        <time>2022-05-24 17:35:13</time>
      </trkpt>
      <trkpt lat="40.82983" lon="0.37265">
        <ele>819.4</ele>
        <time>2022-05-24 17:35:14</time>
      </trkpt>
      <trkpt lat="40.82982" lon="0.37263">
        <ele>819.4</ele>
        <time>2022-05-24 17:35:15</time>
      </trkpt>
      <trkpt lat="40.82982" lon="0.37261">
        <ele>819.4</ele>
        <time>2022-05-24 17:35:16</time>
      </trkpt>
      <trkpt lat="40.82981" lon="0.37258">
        <ele>819.8</ele>
        <time>2022-05-24 17:35:17</time>
      </trkpt>
      <trkpt lat="40.82981" lon="0.37256">
        <ele>819.8</ele>
        <time>2022-05-24 17:35:18</time>
      </trkpt>
      <trkpt lat="40.8298" lon="0.37254">
        <ele>819.6</ele>
        <time>2022-05-24 17:35:19</time>
      </trkpt>
      <trkpt lat="40.8298" lon="0.37251">
        <ele>820</ele>
        <time>2022-05-24 17:35:20</time>
      </trkpt>
      <trkpt lat="40.82979" lon="0.37249">
        <ele>820.2</ele>
        <time>2022-05-24 17:35:21</time>
      </trkpt>
      <trkpt lat="40.82979" lon="0.37247">
        <ele>820.4</ele>
        <time>2022-05-24 17:35:22</time>
      </trkpt>
      <trkpt lat="40.82979" lon="0.37244">
        <ele>820.8</ele>
        <time>2022-05-24 17:35:23</time>
      </trkpt>
      <trkpt lat="40.82978" lon="0.37242">
        <ele>821.2</ele>
        <time>2022-05-24 17:35:24</time>
      </trkpt>
      <trkpt lat="40.82978" lon="0.37239">
        <ele>821.4</ele>
        <time>2022-05-24 17:35:25</time>
      </trkpt>
      <trkpt lat="40.82977" lon="0.37237">
        <ele>821.6</ele>
        <time>2022-05-24 17:35:26</time>
      </trkpt>
      <trkpt lat="40.82977" lon="0.37234">
        <ele>821.8</ele>
        <time>2022-05-24 17:35:27</time>
      </trkpt>
      <trkpt lat="40.82976" lon="0.37232">
        <ele>822</ele>
        <time>2022-05-24 17:35:28</time>
      </trkpt>
      <trkpt lat="40.82976" lon="0.3723">
        <ele>822.4</ele>
        <time>2022-05-24 17:35:29</time>
      </trkpt>
      <trkpt lat="40.82975" lon="0.37227">
        <ele>822.4</ele>
        <time>2022-05-24 17:35:30</time>
      </trkpt>
      <trkpt lat="40.82975" lon="0.37225">
        <ele>822.8</ele>
        <time>2022-05-24 17:35:31</time>
      </trkpt>
      <trkpt lat="40.82973" lon="0.37223">
        <ele>823.2</ele>
        <time>2022-05-24 17:35:32</time>
      </trkpt>
      <trkpt lat="40.82973" lon="0.3722">
        <ele>823.4</ele>
        <time>2022-05-24 17:35:33</time>
      </trkpt>
      <trkpt lat="40.82972" lon="0.37218">
        <ele>823.6</ele>
        <time>2022-05-24 17:35:34</time>
      </trkpt>
      <trkpt lat="40.82971" lon="0.37216">
        <ele>823.8</ele>
        <time>2022-05-24 17:35:35</time>
      </trkpt>
      <trkpt lat="40.8297" lon="0.37214">
        <ele>824</ele>
        <time>2022-05-24 17:35:36</time>
      </trkpt>
      <trkpt lat="40.82969" lon="0.37212">
        <ele>824.4</ele>
        <time>2022-05-24 17:35:37</time>
      </trkpt>
      <trkpt lat="40.82968" lon="0.3721">
        <ele>824.8</ele>
        <time>2022-05-24 17:35:38</time>
      </trkpt>
      <trkpt lat="40.82967" lon="0.37208">
        <ele>825.2</ele>
        <time>2022-05-24 17:35:39</time>
      </trkpt>
      <trkpt lat="40.82966" lon="0.37206">
        <ele>825.4</ele>
        <time>2022-05-24 17:35:40</time>
      </trkpt>
      <trkpt lat="40.82965" lon="0.37204">
        <ele>825.6</ele>
        <time>2022-05-24 17:35:41</time>
      </trkpt>
      <trkpt lat="40.82964" lon="0.37202">
        <ele>825.8</ele>
        <time>2022-05-24 17:35:42</time>
      </trkpt>
      <trkpt lat="40.82962" lon="0.372">
        <ele>826</ele>
        <time>2022-05-24 17:35:43</time>
      </trkpt>
      <trkpt lat="40.82961" lon="0.37198">
        <ele>826.2</ele>
        <time>2022-05-24 17:35:44</time>
      </trkpt>
      <trkpt lat="40.82959" lon="0.37197">
        <ele>826.4</ele>
        <time>2022-05-24 17:35:45</time>
      </trkpt>
      <trkpt lat="40.82958" lon="0.37196">
        <ele>826.4</ele>
        <time>2022-05-24 17:35:46</time>
      </trkpt>
      <trkpt lat="40.82957" lon="0.37194">
        <ele>826.4</ele>
        <time>2022-05-24 17:35:47</time>
      </trkpt>
      <trkpt lat="40.82956" lon="0.37193">
        <ele>826.4</ele>
        <time>2022-05-24 17:35:48</time>
      </trkpt>
      <trkpt lat="40.82954" lon="0.37191">
        <ele>826.4</ele>
        <time>2022-05-24 17:35:49</time>
      </trkpt>
      <trkpt lat="40.82953" lon="0.3719">
        <ele>826.2</ele>
        <time>2022-05-24 17:35:50</time>
      </trkpt>
      <trkpt lat="40.82951" lon="0.37189">
        <ele>826.4</ele>
        <time>2022-05-24 17:35:51</time>
      </trkpt>
      <trkpt lat="40.8295" lon="0.37188">
        <ele>826.2</ele>
        <time>2022-05-24 17:35:52</time>
      </trkpt>
      <trkpt lat="40.82948" lon="0.37187">
        <ele>826.4</ele>
        <time>2022-05-24 17:35:53</time>
      </trkpt>
      <trkpt lat="40.82947" lon="0.37186">
        <ele>826.6</ele>
        <time>2022-05-24 17:35:54</time>
      </trkpt>
      <trkpt lat="40.82945" lon="0.37185">
        <ele>827</ele>
        <time>2022-05-24 17:35:55</time>
      </trkpt>
      <trkpt lat="40.82944" lon="0.37184">
        <ele>827</ele>
        <time>2022-05-24 17:35:56</time>
      </trkpt>
      <trkpt lat="40.82943" lon="0.37183">
        <ele>827.2</ele>
        <time>2022-05-24 17:35:57</time>
      </trkpt>
      <trkpt lat="40.8294" lon="0.37182">
        <ele>827.2</ele>
        <time>2022-05-24 17:35:58</time>
      </trkpt>
      <trkpt lat="40.82939" lon="0.37182">
        <ele>827</ele>
        <time>2022-05-24 17:35:59</time>
      </trkpt>
      <trkpt lat="40.82937" lon="0.37181">
        <ele>827</ele>
        <time>2022-05-24 17:36:00</time>
      </trkpt>
      <trkpt lat="40.82935" lon="0.3718">
        <ele>826.8</ele>
        <time>2022-05-24 17:36:01</time>
      </trkpt>
      <trkpt lat="40.82934" lon="0.3718">
        <ele>826.6</ele>
        <time>2022-05-24 17:36:02</time>
      </trkpt>
      <trkpt lat="40.82933" lon="0.37179">
        <ele>826.8</ele>
        <time>2022-05-24 17:36:03</time>
      </trkpt>
      <trkpt lat="40.82931" lon="0.37178">
        <ele>827</ele>
        <time>2022-05-24 17:36:04</time>
      </trkpt>
      <trkpt lat="40.82929" lon="0.37177">
        <ele>827.4</ele>
        <time>2022-05-24 17:36:05</time>
      </trkpt>
      <trkpt lat="40.82928" lon="0.37176">
        <ele>827.8</ele>
        <time>2022-05-24 17:36:06</time>
      </trkpt>
      <trkpt lat="40.82926" lon="0.37175">
        <ele>828.2</ele>
        <time>2022-05-24 17:36:07</time>
      </trkpt>
      <trkpt lat="40.82925" lon="0.37174">
        <ele>828.6</ele>
        <time>2022-05-24 17:36:08</time>
      </trkpt>
      <trkpt lat="40.82924" lon="0.37173">
        <ele>828.8</ele>
        <time>2022-05-24 17:36:09</time>
      </trkpt>
      <trkpt lat="40.82921" lon="0.37172">
        <ele>829.2</ele>
        <time>2022-05-24 17:36:10</time>
      </trkpt>
      <trkpt lat="40.82919" lon="0.37172">
        <ele>829.4</ele>
        <time>2022-05-24 17:36:11</time>
      </trkpt>
      <trkpt lat="40.82918" lon="0.37171">
        <ele>829.6</ele>
        <time>2022-05-24 17:36:12</time>
      </trkpt>
      <trkpt lat="40.82916" lon="0.3717">
        <ele>830</ele>
        <time>2022-05-24 17:36:13</time>
      </trkpt>
      <trkpt lat="40.82915" lon="0.37169">
        <ele>830.4</ele>
        <time>2022-05-24 17:36:14</time>
      </trkpt>
      <trkpt lat="40.82914" lon="0.37169">
        <ele>830.6</ele>
        <time>2022-05-24 17:36:15</time>
      </trkpt>
      <trkpt lat="40.82911" lon="0.37167">
        <ele>831</ele>
        <time>2022-05-24 17:36:16</time>
      </trkpt>
      <trkpt lat="40.8291" lon="0.37166">
        <ele>831.4</ele>
        <time>2022-05-24 17:36:17</time>
      </trkpt>
      <trkpt lat="40.82908" lon="0.37166">
        <ele>831.8</ele>
        <time>2022-05-24 17:36:18</time>
      </trkpt>
      <trkpt lat="40.82906" lon="0.37165">
        <ele>831.6</ele>
        <time>2022-05-24 17:36:19</time>
      </trkpt>
      <trkpt lat="40.82905" lon="0.37164">
        <ele>831.6</ele>
        <time>2022-05-24 17:36:20</time>
      </trkpt>
      <trkpt lat="40.82904" lon="0.37163">
        <ele>831.8</ele>
        <time>2022-05-24 17:36:21</time>
      </trkpt>
      <trkpt lat="40.82902" lon="0.37161">
        <ele>832.2</ele>
        <time>2022-05-24 17:36:22</time>
      </trkpt>
      <trkpt lat="40.829" lon="0.3716">
        <ele>832.6</ele>
        <time>2022-05-24 17:36:23</time>
      </trkpt>
      <trkpt lat="40.82898" lon="0.3716">
        <ele>832.8</ele>
        <time>2022-05-24 17:36:24</time>
      </trkpt>
      <trkpt lat="40.82896" lon="0.37159">
        <ele>833.2</ele>
        <time>2022-05-24 17:36:25</time>
      </trkpt>
      <trkpt lat="40.82895" lon="0.37159">
        <ele>833.4</ele>
        <time>2022-05-24 17:36:26</time>
      </trkpt>
      <trkpt lat="40.82893" lon="0.37158">
        <ele>833.6</ele>
        <time>2022-05-24 17:36:27</time>
      </trkpt>
      <trkpt lat="40.82891" lon="0.37156">
        <ele>833.6</ele>
        <time>2022-05-24 17:36:28</time>
      </trkpt>
      <trkpt lat="40.82889" lon="0.37155">
        <ele>833.6</ele>
        <time>2022-05-24 17:36:29</time>
      </trkpt>
      <trkpt lat="40.82888" lon="0.37154">
        <ele>833.8</ele>
        <time>2022-05-24 17:36:30</time>
      </trkpt>
      <trkpt lat="40.82886" lon="0.37153">
        <ele>833.8</ele>
        <time>2022-05-24 17:36:31</time>
      </trkpt>
      <trkpt lat="40.82884" lon="0.37152">
        <ele>834</ele>
        <time>2022-05-24 17:36:32</time>
      </trkpt>
      <trkpt lat="40.82882" lon="0.37152">
        <ele>834</ele>
        <time>2022-05-24 17:36:33</time>
      </trkpt>
      <trkpt lat="40.8288" lon="0.37152">
        <ele>834.2</ele>
        <time>2022-05-24 17:36:34</time>
      </trkpt>
      <trkpt lat="40.82879" lon="0.37151">
        <ele>834.4</ele>
        <time>2022-05-24 17:36:35</time>
      </trkpt>
      <trkpt lat="40.82878" lon="0.37151">
        <ele>834.6</ele>
        <time>2022-05-24 17:36:36</time>
      </trkpt>
      <trkpt lat="40.82875" lon="0.3715">
        <ele>835</ele>
        <time>2022-05-24 17:36:37</time>
      </trkpt>
      <trkpt lat="40.82873" lon="0.3715">
        <ele>835.4</ele>
        <time>2022-05-24 17:36:38</time>
      </trkpt>
      <trkpt lat="40.82872" lon="0.3715">
        <ele>835.6</ele>
        <time>2022-05-24 17:36:39</time>
      </trkpt>
      <trkpt lat="40.8287" lon="0.3715">
        <ele>835.8</ele>
        <time>2022-05-24 17:36:40</time>
      </trkpt>
      <trkpt lat="40.82868" lon="0.37149">
        <ele>835.8</ele>
        <time>2022-05-24 17:36:41</time>
      </trkpt>
      <trkpt lat="40.82867" lon="0.37149">
        <ele>836.2</ele>
        <time>2022-05-24 17:36:42</time>
      </trkpt>
      <trkpt lat="40.82864" lon="0.37149">
        <ele>836.4</ele>
        <time>2022-05-24 17:36:43</time>
      </trkpt>
      <trkpt lat="40.82862" lon="0.37149">
        <ele>836.6</ele>
        <time>2022-05-24 17:36:44</time>
      </trkpt>
      <trkpt lat="40.82861" lon="0.37149">
        <ele>836.8</ele>
        <time>2022-05-24 17:36:45</time>
      </trkpt>
      <trkpt lat="40.82859" lon="0.37148">
        <ele>837</ele>
        <time>2022-05-24 17:36:46</time>
      </trkpt>
      <trkpt lat="40.82858" lon="0.37148">
        <ele>837.2</ele>
        <time>2022-05-24 17:36:47</time>
      </trkpt>
      <trkpt lat="40.82855" lon="0.37147">
        <ele>837.2</ele>
        <time>2022-05-24 17:36:48</time>
      </trkpt>
      <trkpt lat="40.82853" lon="0.37147">
        <ele>837.2</ele>
        <time>2022-05-24 17:36:49</time>
      </trkpt>
      <trkpt lat="40.82852" lon="0.37147">
        <ele>837.4</ele>
        <time>2022-05-24 17:36:50</time>
      </trkpt>
      <trkpt lat="40.8285" lon="0.37147">
        <ele>837.4</ele>
        <time>2022-05-24 17:36:51</time>
      </trkpt>
      <trkpt lat="40.82849" lon="0.37147">
        <ele>837.6</ele>
        <time>2022-05-24 17:36:52</time>
      </trkpt>
      <trkpt lat="40.82846" lon="0.37148">
        <ele>837.8</ele>
        <time>2022-05-24 17:36:53</time>
      </trkpt>
      <trkpt lat="40.82845" lon="0.37148">
        <ele>838</ele>
        <time>2022-05-24 17:36:54</time>
      </trkpt>
      <trkpt lat="40.82843" lon="0.37149">
        <ele>838.2</ele>
        <time>2022-05-24 17:36:55</time>
      </trkpt>
      <trkpt lat="40.82841" lon="0.37149">
        <ele>838.4</ele>
        <time>2022-05-24 17:36:56</time>
      </trkpt>
      <trkpt lat="40.8284" lon="0.37149">
        <ele>838.6</ele>
        <time>2022-05-24 17:36:57</time>
      </trkpt>
      <trkpt lat="40.82837" lon="0.37149">
        <ele>838.8</ele>
        <time>2022-05-24 17:36:58</time>
      </trkpt>
      <trkpt lat="40.82835" lon="0.3715">
        <ele>839</ele>
        <time>2022-05-24 17:36:59</time>
      </trkpt>
      <trkpt lat="40.82833" lon="0.3715">
        <ele>839.2</ele>
        <time>2022-05-24 17:37:00</time>
      </trkpt>
      <trkpt lat="40.82832" lon="0.37151">
        <ele>839.4</ele>
        <time>2022-05-24 17:37:01</time>
      </trkpt>
      <trkpt lat="40.82831" lon="0.37152">
        <ele>839.6</ele>
        <time>2022-05-24 17:37:02</time>
      </trkpt>
      <trkpt lat="40.82829" lon="0.37152">
        <ele>839.8</ele>
        <time>2022-05-24 17:37:03</time>
      </trkpt>
      <trkpt lat="40.82827" lon="0.37153">
        <ele>840</ele>
        <time>2022-05-24 17:37:04</time>
      </trkpt>
      <trkpt lat="40.82826" lon="0.37155">
        <ele>840.2</ele>
        <time>2022-05-24 17:37:05</time>
      </trkpt>
      <trkpt lat="40.82824" lon="0.37156">
        <ele>840.4</ele>
        <time>2022-05-24 17:37:06</time>
      </trkpt>
      <trkpt lat="40.82822" lon="0.37157">
        <ele>840.6</ele>
        <time>2022-05-24 17:37:07</time>
      </trkpt>
      <trkpt lat="40.82821" lon="0.37159">
        <ele>840.8</ele>
        <time>2022-05-24 17:37:08</time>
      </trkpt>
      <trkpt lat="40.8282" lon="0.3716">
        <ele>840.8</ele>
        <time>2022-05-24 17:37:09</time>
      </trkpt>
      <trkpt lat="40.82818" lon="0.37161">
        <ele>841</ele>
        <time>2022-05-24 17:37:10</time>
      </trkpt>
      <trkpt lat="40.82817" lon="0.37163">
        <ele>841</ele>
        <time>2022-05-24 17:37:11</time>
      </trkpt>
      <trkpt lat="40.82815" lon="0.37164">
        <ele>841.2</ele>
        <time>2022-05-24 17:37:12</time>
      </trkpt>
      <trkpt lat="40.82814" lon="0.37165">
        <ele>841.2</ele>
        <time>2022-05-24 17:37:13</time>
      </trkpt>
      <trkpt lat="40.82813" lon="0.37166">
        <ele>841.4</ele>
        <time>2022-05-24 17:37:14</time>
      </trkpt>
      <trkpt lat="40.82811" lon="0.37167">
        <ele>841.6</ele>
        <time>2022-05-24 17:37:15</time>
      </trkpt>
      <trkpt lat="40.8281" lon="0.3717">
        <ele>841.6</ele>
        <time>2022-05-24 17:37:16</time>
      </trkpt>
      <trkpt lat="40.82809" lon="0.37171">
        <ele>841.8</ele>
        <time>2022-05-24 17:37:17</time>
      </trkpt>
      <trkpt lat="40.82808" lon="0.37173">
        <ele>842</ele>
        <time>2022-05-24 17:37:18</time>
      </trkpt>
      <trkpt lat="40.82806" lon="0.37174">
        <ele>842.2</ele>
        <time>2022-05-24 17:37:19</time>
      </trkpt>
      <trkpt lat="40.82805" lon="0.37176">
        <ele>842.2</ele>
        <time>2022-05-24 17:37:20</time>
      </trkpt>
      <trkpt lat="40.82804" lon="0.37177">
        <ele>842.4</ele>
        <time>2022-05-24 17:37:21</time>
      </trkpt>
      <trkpt lat="40.82802" lon="0.3718">
        <ele>842.6</ele>
        <time>2022-05-24 17:37:22</time>
      </trkpt>
      <trkpt lat="40.82801" lon="0.37181">
        <ele>842.6</ele>
        <time>2022-05-24 17:37:23</time>
      </trkpt>
      <trkpt lat="40.828" lon="0.37183">
        <ele>842.8</ele>
        <time>2022-05-24 17:37:24</time>
      </trkpt>
      <trkpt lat="40.82799" lon="0.37185">
        <ele>842.8</ele>
        <time>2022-05-24 17:37:25</time>
      </trkpt>
      <trkpt lat="40.82798" lon="0.37187">
        <ele>843</ele>
        <time>2022-05-24 17:37:26</time>
      </trkpt>
      <trkpt lat="40.82798" lon="0.37189">
        <ele>843.2</ele>
        <time>2022-05-24 17:37:27</time>
      </trkpt>
      <trkpt lat="40.82797" lon="0.37191">
        <ele>843.2</ele>
        <time>2022-05-24 17:37:28</time>
      </trkpt>
      <trkpt lat="40.82796" lon="0.37193">
        <ele>843.2</ele>
        <time>2022-05-24 17:37:29</time>
      </trkpt>
      <trkpt lat="40.82795" lon="0.37195">
        <ele>843.4</ele>
        <time>2022-05-24 17:37:30</time>
      </trkpt>
      <trkpt lat="40.82795" lon="0.37197">
        <ele>843.4</ele>
        <time>2022-05-24 17:37:31</time>
      </trkpt>
      <trkpt lat="40.82794" lon="0.37199">
        <ele>843.4</ele>
        <time>2022-05-24 17:37:32</time>
      </trkpt>
      <trkpt lat="40.82793" lon="0.37202">
        <ele>843.4</ele>
        <time>2022-05-24 17:37:33</time>
      </trkpt>
      <trkpt lat="40.82793" lon="0.37204">
        <ele>843.6</ele>
        <time>2022-05-24 17:37:34</time>
      </trkpt>
      <trkpt lat="40.82793" lon="0.37206">
        <ele>843.6</ele>
        <time>2022-05-24 17:37:35</time>
      </trkpt>
      <trkpt lat="40.82792" lon="0.37208">
        <ele>843.8</ele>
        <time>2022-05-24 17:37:36</time>
      </trkpt>
      <trkpt lat="40.82792" lon="0.37211">
        <ele>843.8</ele>
        <time>2022-05-24 17:37:37</time>
      </trkpt>
      <trkpt lat="40.82791" lon="0.37212">
        <ele>844</ele>
        <time>2022-05-24 17:37:38</time>
      </trkpt>
      <trkpt lat="40.8279" lon="0.37215">
        <ele>844.4</ele>
        <time>2022-05-24 17:37:39</time>
      </trkpt>
      <trkpt lat="40.8279" lon="0.37218">
        <ele>844.6</ele>
        <time>2022-05-24 17:37:40</time>
      </trkpt>
      <trkpt lat="40.82789" lon="0.3722">
        <ele>844.8</ele>
        <time>2022-05-24 17:37:41</time>
      </trkpt>
      <trkpt lat="40.82788" lon="0.37223">
        <ele>845</ele>
        <time>2022-05-24 17:37:42</time>
      </trkpt>
      <trkpt lat="40.82787" lon="0.37225">
        <ele>845.2</ele>
        <time>2022-05-24 17:37:43</time>
      </trkpt>
      <trkpt lat="40.82786" lon="0.37228">
        <ele>845.4</ele>
        <time>2022-05-24 17:37:44</time>
      </trkpt>
      <trkpt lat="40.82785" lon="0.37231">
        <ele>845.6</ele>
        <time>2022-05-24 17:37:45</time>
      </trkpt>
      <trkpt lat="40.82784" lon="0.37233">
        <ele>845.8</ele>
        <time>2022-05-24 17:37:46</time>
      </trkpt>
      <trkpt lat="40.82783" lon="0.37235">
        <ele>846</ele>
        <time>2022-05-24 17:37:47</time>
      </trkpt>
      <trkpt lat="40.82782" lon="0.37237">
        <ele>846.4</ele>
        <time>2022-05-24 17:37:48</time>
      </trkpt>
      <trkpt lat="40.82782" lon="0.3724">
        <ele>846.6</ele>
        <time>2022-05-24 17:37:49</time>
      </trkpt>
      <trkpt lat="40.82781" lon="0.37242">
        <ele>847</ele>
        <time>2022-05-24 17:37:50</time>
      </trkpt>
      <trkpt lat="40.8278" lon="0.37244">
        <ele>847</ele>
        <time>2022-05-24 17:37:51</time>
      </trkpt>
      <trkpt lat="40.82779" lon="0.37246">
        <ele>847.2</ele>
        <time>2022-05-24 17:37:52</time>
      </trkpt>
      <trkpt lat="40.82778" lon="0.37247">
        <ele>847.2</ele>
        <time>2022-05-24 17:37:53</time>
      </trkpt>
      <trkpt lat="40.82776" lon="0.3725">
        <ele>847.2</ele>
        <time>2022-05-24 17:37:54</time>
      </trkpt>
      <trkpt lat="40.82775" lon="0.37252">
        <ele>847.4</ele>
        <time>2022-05-24 17:37:55</time>
      </trkpt>
      <trkpt lat="40.82774" lon="0.37253">
        <ele>847.4</ele>
        <time>2022-05-24 17:37:56</time>
      </trkpt>
      <trkpt lat="40.82773" lon="0.37255">
        <ele>847.6</ele>
        <time>2022-05-24 17:37:57</time>
      </trkpt>
      <trkpt lat="40.82772" lon="0.37257">
        <ele>847.8</ele>
        <time>2022-05-24 17:37:58</time>
      </trkpt>
      <trkpt lat="40.8277" lon="0.37259">
        <ele>848</ele>
        <time>2022-05-24 17:37:59</time>
      </trkpt>
      <trkpt lat="40.82769" lon="0.37261">
        <ele>848.2</ele>
        <time>2022-05-24 17:38:00</time>
      </trkpt>
      <trkpt lat="40.82767" lon="0.37262">
        <ele>848.4</ele>
        <time>2022-05-24 17:38:01</time>
      </trkpt>
      <trkpt lat="40.82766" lon="0.37263">
        <ele>848.4</ele>
        <time>2022-05-24 17:38:02</time>
      </trkpt>
      <trkpt lat="40.82764" lon="0.37264">
        <ele>848.6</ele>
        <time>2022-05-24 17:38:03</time>
      </trkpt>
      <trkpt lat="40.82762" lon="0.37264">
        <ele>848.8</ele>
        <time>2022-05-24 17:38:04</time>
      </trkpt>
      <trkpt lat="40.8276" lon="0.37264">
        <ele>849</ele>
        <time>2022-05-24 17:38:05</time>
      </trkpt>
      <trkpt lat="40.82758" lon="0.37264">
        <ele>849.2</ele>
        <time>2022-05-24 17:38:06</time>
      </trkpt>
      <trkpt lat="40.82757" lon="0.37263">
        <ele>849.4</ele>
        <time>2022-05-24 17:38:07</time>
      </trkpt>
      <trkpt lat="40.82755" lon="0.37262">
        <ele>849.4</ele>
        <time>2022-05-24 17:38:08</time>
      </trkpt>
      <trkpt lat="40.82754" lon="0.3726">
        <ele>849.4</ele>
        <time>2022-05-24 17:38:09</time>
      </trkpt>
      <trkpt lat="40.82753" lon="0.37259">
        <ele>849.6</ele>
        <time>2022-05-24 17:38:10</time>
      </trkpt>
      <trkpt lat="40.82751" lon="0.37257">
        <ele>850</ele>
        <time>2022-05-24 17:38:11</time>
      </trkpt>
      <trkpt lat="40.82751" lon="0.37255">
        <ele>850</ele>
        <time>2022-05-24 17:38:12</time>
      </trkpt>
      <trkpt lat="40.8275" lon="0.37253">
        <ele>850.2</ele>
        <time>2022-05-24 17:38:13</time>
      </trkpt>
      <trkpt lat="40.8275" lon="0.37251">
        <ele>850.6</ele>
        <time>2022-05-24 17:38:14</time>
      </trkpt>
      <trkpt lat="40.8275" lon="0.37248">
        <ele>850.8</ele>
        <time>2022-05-24 17:38:15</time>
      </trkpt>
      <trkpt lat="40.8275" lon="0.37245">
        <ele>851</ele>
        <time>2022-05-24 17:38:16</time>
      </trkpt>
      <trkpt lat="40.8275" lon="0.37243">
        <ele>851</ele>
        <time>2022-05-24 17:38:17</time>
      </trkpt>
      <trkpt lat="40.8275" lon="0.3724">
        <ele>851.2</ele>
        <time>2022-05-24 17:38:18</time>
      </trkpt>
      <trkpt lat="40.8275" lon="0.37239">
        <ele>851.4</ele>
        <time>2022-05-24 17:38:19</time>
      </trkpt>
      <trkpt lat="40.8275" lon="0.37236">
        <ele>851.6</ele>
        <time>2022-05-24 17:38:20</time>
      </trkpt>
      <trkpt lat="40.8275" lon="0.37233">
        <ele>851.8</ele>
        <time>2022-05-24 17:38:21</time>
      </trkpt>
      <trkpt lat="40.8275" lon="0.37231">
        <ele>852</ele>
        <time>2022-05-24 17:38:22</time>
      </trkpt>
      <trkpt lat="40.8275" lon="0.37229">
        <ele>852.2</ele>
        <time>2022-05-24 17:38:23</time>
      </trkpt>
      <trkpt lat="40.8275" lon="0.37227">
        <ele>852.4</ele>
        <time>2022-05-24 17:38:24</time>
      </trkpt>
      <trkpt lat="40.8275" lon="0.37226">
        <ele>852.6</ele>
        <time>2022-05-24 17:38:25</time>
      </trkpt>
      <trkpt lat="40.8275" lon="0.37223">
        <ele>852.8</ele>
        <time>2022-05-24 17:38:26</time>
      </trkpt>
      <trkpt lat="40.82749" lon="0.37222">
        <ele>852.8</ele>
        <time>2022-05-24 17:38:27</time>
      </trkpt>
      <trkpt lat="40.82748" lon="0.3722">
        <ele>853.2</ele>
        <time>2022-05-24 17:38:28</time>
      </trkpt>
      <trkpt lat="40.82748" lon="0.37218">
        <ele>853.6</ele>
        <time>2022-05-24 17:38:29</time>
      </trkpt>
      <trkpt lat="40.82748" lon="0.37216">
        <ele>853.8</ele>
        <time>2022-05-24 17:38:30</time>
      </trkpt>
      <trkpt lat="40.82748" lon="0.37214">
        <ele>854.2</ele>
        <time>2022-05-24 17:38:31</time>
      </trkpt>
      <trkpt lat="40.82748" lon="0.37212">
        <ele>854.4</ele>
        <time>2022-05-24 17:38:32</time>
      </trkpt>
      <trkpt lat="40.82747" lon="0.3721">
        <ele>854.6</ele>
        <time>2022-05-24 17:38:33</time>
      </trkpt>
      <trkpt lat="40.82746" lon="0.37208">
        <ele>855</ele>
        <time>2022-05-24 17:38:34</time>
      </trkpt>
      <trkpt lat="40.82745" lon="0.37206">
        <ele>855.2</ele>
        <time>2022-05-24 17:38:35</time>
      </trkpt>
      <trkpt lat="40.82744" lon="0.37204">
        <ele>855.6</ele>
        <time>2022-05-24 17:38:36</time>
      </trkpt>
      <trkpt lat="40.82743" lon="0.37203">
        <ele>855.8</ele>
        <time>2022-05-24 17:38:37</time>
      </trkpt>
      <trkpt lat="40.82743" lon="0.37201">
        <ele>856</ele>
        <time>2022-05-24 17:38:38</time>
      </trkpt>
      <trkpt lat="40.82742" lon="0.37199">
        <ele>856.4</ele>
        <time>2022-05-24 17:38:39</time>
      </trkpt>
      <trkpt lat="40.82741" lon="0.37197">
        <ele>856.6</ele>
        <time>2022-05-24 17:38:40</time>
      </trkpt>
      <trkpt lat="40.8274" lon="0.37196">
        <ele>856.8</ele>
        <time>2022-05-24 17:38:41</time>
      </trkpt>
      <trkpt lat="40.8274" lon="0.37194">
        <ele>857</ele>
        <time>2022-05-24 17:38:42</time>
      </trkpt>
      <trkpt lat="40.82738" lon="0.37193">
        <ele>857.2</ele>
        <time>2022-05-24 17:38:43</time>
      </trkpt>
      <trkpt lat="40.82737" lon="0.37191">
        <ele>857.4</ele>
        <time>2022-05-24 17:38:44</time>
      </trkpt>
      <trkpt lat="40.82737" lon="0.3719">
        <ele>857.4</ele>
        <time>2022-05-24 17:38:45</time>
      </trkpt>
      <trkpt lat="40.82735" lon="0.37189">
        <ele>857.8</ele>
        <time>2022-05-24 17:38:46</time>
      </trkpt>
      <trkpt lat="40.82734" lon="0.37188">
        <ele>858</ele>
        <time>2022-05-24 17:38:47</time>
      </trkpt>
      <trkpt lat="40.82732" lon="0.37187">
        <ele>858</ele>
        <time>2022-05-24 17:38:48</time>
      </trkpt>
      <trkpt lat="40.82731" lon="0.37186">
        <ele>858.2</ele>
        <time>2022-05-24 17:38:49</time>
      </trkpt>
      <trkpt lat="40.8273" lon="0.37185">
        <ele>858.4</ele>
        <time>2022-05-24 17:38:50</time>
      </trkpt>
      <trkpt lat="40.82729" lon="0.37184">
        <ele>858.6</ele>
        <time>2022-05-24 17:38:51</time>
      </trkpt>
      <trkpt lat="40.82727" lon="0.37183">
        <ele>858.6</ele>
        <time>2022-05-24 17:38:52</time>
      </trkpt>
      <trkpt lat="40.82726" lon="0.37182">
        <ele>858.8</ele>
        <time>2022-05-24 17:38:53</time>
      </trkpt>
      <trkpt lat="40.82725" lon="0.37181">
        <ele>859</ele>
        <time>2022-05-24 17:38:54</time>
      </trkpt>
      <trkpt lat="40.82724" lon="0.37179">
        <ele>859.4</ele>
        <time>2022-05-24 17:38:55</time>
      </trkpt>
      <trkpt lat="40.82723" lon="0.37178">
        <ele>859.6</ele>
        <time>2022-05-24 17:38:56</time>
      </trkpt>
      <trkpt lat="40.82721" lon="0.37176">
        <ele>859.6</ele>
        <time>2022-05-24 17:38:57</time>
      </trkpt>
      <trkpt lat="40.82721" lon="0.37175">
        <ele>859.8</ele>
        <time>2022-05-24 17:38:58</time>
      </trkpt>
      <trkpt lat="40.82719" lon="0.37173">
        <ele>860</ele>
        <time>2022-05-24 17:38:59</time>
      </trkpt>
      <trkpt lat="40.82719" lon="0.37171">
        <ele>860.2</ele>
        <time>2022-05-24 17:39:00</time>
      </trkpt>
      <trkpt lat="40.82718" lon="0.3717">
        <ele>860.4</ele>
        <time>2022-05-24 17:39:01</time>
      </trkpt>
      <trkpt lat="40.82716" lon="0.37168">
        <ele>860.6</ele>
        <time>2022-05-24 17:39:02</time>
      </trkpt>
      <trkpt lat="40.82715" lon="0.37167">
        <ele>860.8</ele>
        <time>2022-05-24 17:39:03</time>
      </trkpt>
      <trkpt lat="40.82714" lon="0.37166">
        <ele>861</ele>
        <time>2022-05-24 17:39:04</time>
      </trkpt>
      <trkpt lat="40.82712" lon="0.37164">
        <ele>861</ele>
        <time>2022-05-24 17:39:05</time>
      </trkpt>
      <trkpt lat="40.82711" lon="0.37163">
        <ele>861.2</ele>
        <time>2022-05-24 17:39:06</time>
      </trkpt>
      <trkpt lat="40.8271" lon="0.37161">
        <ele>861.4</ele>
        <time>2022-05-24 17:39:07</time>
      </trkpt>
      <trkpt lat="40.82709" lon="0.3716">
        <ele>861.4</ele>
        <time>2022-05-24 17:39:08</time>
      </trkpt>
      <trkpt lat="40.82708" lon="0.37158">
        <ele>861.6</ele>
        <time>2022-05-24 17:39:09</time>
      </trkpt>
      <trkpt lat="40.82707" lon="0.37157">
        <ele>861.8</ele>
        <time>2022-05-24 17:39:10</time>
      </trkpt>
      <trkpt lat="40.82706" lon="0.37155">
        <ele>862</ele>
        <time>2022-05-24 17:39:11</time>
      </trkpt>
      <trkpt lat="40.82705" lon="0.37153">
        <ele>862.2</ele>
        <time>2022-05-24 17:39:12</time>
      </trkpt>
      <trkpt lat="40.82703" lon="0.37152">
        <ele>862.4</ele>
        <time>2022-05-24 17:39:13</time>
      </trkpt>
      <trkpt lat="40.82702" lon="0.3715">
        <ele>862.8</ele>
        <time>2022-05-24 17:39:14</time>
      </trkpt>
      <trkpt lat="40.82701" lon="0.37149">
        <ele>863.2</ele>
        <time>2022-05-24 17:39:15</time>
      </trkpt>
      <trkpt lat="40.827" lon="0.37148">
        <ele>863.4</ele>
        <time>2022-05-24 17:39:16</time>
      </trkpt>
      <trkpt lat="40.82698" lon="0.37147">
        <ele>863.6</ele>
        <time>2022-05-24 17:39:17</time>
      </trkpt>
      <trkpt lat="40.82697" lon="0.37145">
        <ele>864</ele>
        <time>2022-05-24 17:39:18</time>
      </trkpt>
      <trkpt lat="40.82696" lon="0.37143">
        <ele>864.2</ele>
        <time>2022-05-24 17:39:19</time>
      </trkpt>
      <trkpt lat="40.82695" lon="0.37141">
        <ele>864.4</ele>
        <time>2022-05-24 17:39:20</time>
      </trkpt>
      <trkpt lat="40.82695" lon="0.37139">
        <ele>864.6</ele>
        <time>2022-05-24 17:39:21</time>
      </trkpt>
      <trkpt lat="40.82694" lon="0.37138">
        <ele>864.6</ele>
        <time>2022-05-24 17:39:22</time>
      </trkpt>
      <trkpt lat="40.82692" lon="0.37136">
        <ele>865</ele>
        <time>2022-05-24 17:39:23</time>
      </trkpt>
      <trkpt lat="40.82691" lon="0.37134">
        <ele>865</ele>
        <time>2022-05-24 17:39:24</time>
      </trkpt>
      <trkpt lat="40.8269" lon="0.37133">
        <ele>865.2</ele>
        <time>2022-05-24 17:39:25</time>
      </trkpt>
      <trkpt lat="40.82689" lon="0.37131">
        <ele>865.2</ele>
        <time>2022-05-24 17:39:26</time>
      </trkpt>
      <trkpt lat="40.82688" lon="0.37129">
        <ele>865.2</ele>
        <time>2022-05-24 17:39:27</time>
      </trkpt>
      <trkpt lat="40.82687" lon="0.37128">
        <ele>865.4</ele>
        <time>2022-05-24 17:39:28</time>
      </trkpt>
      <trkpt lat="40.82686" lon="0.37125">
        <ele>865.4</ele>
        <time>2022-05-24 17:39:29</time>
      </trkpt>
      <trkpt lat="40.82685" lon="0.37124">
        <ele>865.6</ele>
        <time>2022-05-24 17:39:30</time>
      </trkpt>
      <trkpt lat="40.82684" lon="0.37122">
        <ele>865.8</ele>
        <time>2022-05-24 17:39:31</time>
      </trkpt>
      <trkpt lat="40.82684" lon="0.37121">
        <ele>866</ele>
        <time>2022-05-24 17:39:32</time>
      </trkpt>
      <trkpt lat="40.82683" lon="0.37119">
        <ele>866.4</ele>
        <time>2022-05-24 17:39:33</time>
      </trkpt>
      <trkpt lat="40.82682" lon="0.37117">
        <ele>866.6</ele>
        <time>2022-05-24 17:39:34</time>
      </trkpt>
      <trkpt lat="40.82681" lon="0.37115">
        <ele>866.8</ele>
        <time>2022-05-24 17:39:35</time>
      </trkpt>
      <trkpt lat="40.82679" lon="0.37114">
        <ele>867</ele>
        <time>2022-05-24 17:39:36</time>
      </trkpt>
      <trkpt lat="40.82678" lon="0.37112">
        <ele>867.2</ele>
        <time>2022-05-24 17:39:37</time>
      </trkpt>
      <trkpt lat="40.82677" lon="0.3711">
        <ele>867.4</ele>
        <time>2022-05-24 17:39:38</time>
      </trkpt>
      <trkpt lat="40.82676" lon="0.37109">
        <ele>867.6</ele>
        <time>2022-05-24 17:39:39</time>
      </trkpt>
      <trkpt lat="40.82676" lon="0.37107">
        <ele>867.8</ele>
        <time>2022-05-24 17:39:40</time>
      </trkpt>
      <trkpt lat="40.82674" lon="0.37105">
        <ele>868</ele>
        <time>2022-05-24 17:39:41</time>
      </trkpt>
      <trkpt lat="40.82673" lon="0.37104">
        <ele>868.2</ele>
        <time>2022-05-24 17:39:42</time>
      </trkpt>
      <trkpt lat="40.82671" lon="0.37102">
        <ele>868.2</ele>
        <time>2022-05-24 17:39:43</time>
      </trkpt>
      <trkpt lat="40.8267" lon="0.371">
        <ele>868.2</ele>
        <time>2022-05-24 17:39:44</time>
      </trkpt>
      <trkpt lat="40.82669" lon="0.37099">
        <ele>868.4</ele>
        <time>2022-05-24 17:39:45</time>
      </trkpt>
      <trkpt lat="40.82668" lon="0.37098">
        <ele>868.6</ele>
        <time>2022-05-24 17:39:46</time>
      </trkpt>
      <trkpt lat="40.82666" lon="0.37096">
        <ele>868.8</ele>
        <time>2022-05-24 17:39:47</time>
      </trkpt>
      <trkpt lat="40.82665" lon="0.37094">
        <ele>868.8</ele>
        <time>2022-05-24 17:39:48</time>
      </trkpt>
      <trkpt lat="40.82663" lon="0.37093">
        <ele>869</ele>
        <time>2022-05-24 17:39:49</time>
      </trkpt>
      <trkpt lat="40.82662" lon="0.37091">
        <ele>869.2</ele>
        <time>2022-05-24 17:39:50</time>
      </trkpt>
      <trkpt lat="40.8266" lon="0.3709">
        <ele>869.2</ele>
        <time>2022-05-24 17:39:51</time>
      </trkpt>
      <trkpt lat="40.82659" lon="0.3709">
        <ele>869.4</ele>
        <time>2022-05-24 17:39:52</time>
      </trkpt>
      <trkpt lat="40.82656" lon="0.37088">
        <ele>869.4</ele>
        <time>2022-05-24 17:39:53</time>
      </trkpt>
      <trkpt lat="40.82655" lon="0.37087">
        <ele>869.6</ele>
        <time>2022-05-24 17:39:54</time>
      </trkpt>
      <trkpt lat="40.82653" lon="0.37086">
        <ele>869.6</ele>
        <time>2022-05-24 17:39:55</time>
      </trkpt>
      <trkpt lat="40.82652" lon="0.37085">
        <ele>869.8</ele>
        <time>2022-05-24 17:39:56</time>
      </trkpt>
      <trkpt lat="40.8265" lon="0.37085">
        <ele>870</ele>
        <time>2022-05-24 17:39:57</time>
      </trkpt>
      <trkpt lat="40.82649" lon="0.37083">
        <ele>870</ele>
        <time>2022-05-24 17:39:58</time>
      </trkpt>
      <trkpt lat="40.82647" lon="0.37082">
        <ele>870.2</ele>
        <time>2022-05-24 17:39:59</time>
      </trkpt>
      <trkpt lat="40.82646" lon="0.3708">
        <ele>870.4</ele>
        <time>2022-05-24 17:40:00</time>
      </trkpt>
      <trkpt lat="40.82644" lon="0.37079">
        <ele>870.4</ele>
        <time>2022-05-24 17:40:01</time>
      </trkpt>
      <trkpt lat="40.82642" lon="0.37078">
        <ele>870.6</ele>
        <time>2022-05-24 17:40:02</time>
      </trkpt>
      <trkpt lat="40.82641" lon="0.37078">
        <ele>870.6</ele>
        <time>2022-05-24 17:40:03</time>
      </trkpt>
      <trkpt lat="40.82638" lon="0.37077">
        <ele>870.8</ele>
        <time>2022-05-24 17:40:04</time>
      </trkpt>
      <trkpt lat="40.82637" lon="0.37076">
        <ele>871</ele>
        <time>2022-05-24 17:40:05</time>
      </trkpt>
      <trkpt lat="40.82635" lon="0.37075">
        <ele>871</ele>
        <time>2022-05-24 17:40:06</time>
      </trkpt>
      <trkpt lat="40.82634" lon="0.37075">
        <ele>871.2</ele>
        <time>2022-05-24 17:40:07</time>
      </trkpt>
      <trkpt lat="40.82632" lon="0.37074">
        <ele>871.4</ele>
        <time>2022-05-24 17:40:08</time>
      </trkpt>
      <trkpt lat="40.8263" lon="0.37073">
        <ele>871.6</ele>
        <time>2022-05-24 17:40:09</time>
      </trkpt>
      <trkpt lat="40.82629" lon="0.37072">
        <ele>871.8</ele>
        <time>2022-05-24 17:40:10</time>
      </trkpt>
      <trkpt lat="40.82628" lon="0.3707">
        <ele>872</ele>
        <time>2022-05-24 17:40:11</time>
      </trkpt>
      <trkpt lat="40.82626" lon="0.37069">
        <ele>872</ele>
        <time>2022-05-24 17:40:12</time>
      </trkpt>
      <trkpt lat="40.82625" lon="0.37068">
        <ele>872.2</ele>
        <time>2022-05-24 17:40:13</time>
      </trkpt>
      <trkpt lat="40.82624" lon="0.37068">
        <ele>872.2</ele>
        <time>2022-05-24 17:40:14</time>
      </trkpt>
      <trkpt lat="40.82622" lon="0.37066">
        <ele>872.2</ele>
        <time>2022-05-24 17:40:15</time>
      </trkpt>
      <trkpt lat="40.8262" lon="0.37065">
        <ele>872.4</ele>
        <time>2022-05-24 17:40:16</time>
      </trkpt>
      <trkpt lat="40.82619" lon="0.37064">
        <ele>872.4</ele>
        <time>2022-05-24 17:40:17</time>
      </trkpt>
      <trkpt lat="40.82618" lon="0.37062">
        <ele>872.6</ele>
        <time>2022-05-24 17:40:18</time>
      </trkpt>
      <trkpt lat="40.82616" lon="0.37061">
        <ele>872.8</ele>
        <time>2022-05-24 17:40:19</time>
      </trkpt>
      <trkpt lat="40.82615" lon="0.3706">
        <ele>873</ele>
        <time>2022-05-24 17:40:20</time>
      </trkpt>
      <trkpt lat="40.82614" lon="0.37058">
        <ele>873.2</ele>
        <time>2022-05-24 17:40:21</time>
      </trkpt>
      <trkpt lat="40.82613" lon="0.37056">
        <ele>873.4</ele>
        <time>2022-05-24 17:40:22</time>
      </trkpt>
      <trkpt lat="40.82612" lon="0.37054">
        <ele>873.6</ele>
        <time>2022-05-24 17:40:23</time>
      </trkpt>
      <trkpt lat="40.82611" lon="0.37053">
        <ele>873.8</ele>
        <time>2022-05-24 17:40:24</time>
      </trkpt>
      <trkpt lat="40.8261" lon="0.37051">
        <ele>874</ele>
        <time>2022-05-24 17:40:25</time>
      </trkpt>
      <trkpt lat="40.82609" lon="0.37049">
        <ele>874</ele>
        <time>2022-05-24 17:40:26</time>
      </trkpt>
      <trkpt lat="40.82608" lon="0.37047">
        <ele>874.2</ele>
        <time>2022-05-24 17:40:27</time>
      </trkpt>
      <trkpt lat="40.82608" lon="0.37045">
        <ele>874.4</ele>
        <time>2022-05-24 17:40:28</time>
      </trkpt>
      <trkpt lat="40.82607" lon="0.37043">
        <ele>874.8</ele>
        <time>2022-05-24 17:40:29</time>
      </trkpt>
      <trkpt lat="40.82607" lon="0.37041">
        <ele>875</ele>
        <time>2022-05-24 17:40:30</time>
      </trkpt>
      <trkpt lat="40.82605" lon="0.37039">
        <ele>875.2</ele>
        <time>2022-05-24 17:40:31</time>
      </trkpt>
      <trkpt lat="40.82605" lon="0.37038">
        <ele>875.4</ele>
        <time>2022-05-24 17:40:32</time>
      </trkpt>
      <trkpt lat="40.82605" lon="0.37035">
        <ele>875.4</ele>
        <time>2022-05-24 17:40:33</time>
      </trkpt>
      <trkpt lat="40.82604" lon="0.37033">
        <ele>875.6</ele>
        <time>2022-05-24 17:40:34</time>
      </trkpt>
      <trkpt lat="40.82603" lon="0.37031">
        <ele>875.8</ele>
        <time>2022-05-24 17:40:35</time>
      </trkpt>
      <trkpt lat="40.82603" lon="0.37029">
        <ele>876</ele>
        <time>2022-05-24 17:40:36</time>
      </trkpt>
      <trkpt lat="40.82603" lon="0.37027">
        <ele>876.2</ele>
        <time>2022-05-24 17:40:37</time>
      </trkpt>
      <trkpt lat="40.82602" lon="0.37026">
        <ele>876.2</ele>
        <time>2022-05-24 17:40:38</time>
      </trkpt>
      <trkpt lat="40.82602" lon="0.37024">
        <ele>876.2</ele>
        <time>2022-05-24 17:40:39</time>
      </trkpt>
      <trkpt lat="40.82602" lon="0.37022">
        <ele>876.4</ele>
        <time>2022-05-24 17:40:40</time>
      </trkpt>
      <trkpt lat="40.82601" lon="0.3702">
        <ele>876.4</ele>
        <time>2022-05-24 17:40:41</time>
      </trkpt>
      <trkpt lat="40.82601" lon="0.37018">
        <ele>876.8</ele>
        <time>2022-05-24 17:40:42</time>
      </trkpt>
      <trkpt lat="40.82601" lon="0.37017">
        <ele>877</ele>
        <time>2022-05-24 17:40:43</time>
      </trkpt>
      <trkpt lat="40.826" lon="0.37015">
        <ele>877.2</ele>
        <time>2022-05-24 17:40:44</time>
      </trkpt>
      <trkpt lat="40.826" lon="0.37013">
        <ele>877.2</ele>
        <time>2022-05-24 17:40:45</time>
      </trkpt>
      <trkpt lat="40.826" lon="0.37011">
        <ele>877.4</ele>
        <time>2022-05-24 17:40:46</time>
      </trkpt>
      <trkpt lat="40.826" lon="0.37009">
        <ele>877.4</ele>
        <time>2022-05-24 17:40:47</time>
      </trkpt>
      <trkpt lat="40.82599" lon="0.37007">
        <ele>877.6</ele>
        <time>2022-05-24 17:40:48</time>
      </trkpt>
      <trkpt lat="40.82598" lon="0.37004">
        <ele>877.8</ele>
        <time>2022-05-24 17:40:49</time>
      </trkpt>
      <trkpt lat="40.82598" lon="0.37002">
        <ele>878</ele>
        <time>2022-05-24 17:40:50</time>
      </trkpt>
      <trkpt lat="40.82598" lon="0.37001">
        <ele>878</ele>
        <time>2022-05-24 17:40:51</time>
      </trkpt>
      <trkpt lat="40.82597" lon="0.36998">
        <ele>878.2</ele>
        <time>2022-05-24 17:40:52</time>
      </trkpt>
      <trkpt lat="40.82597" lon="0.36995">
        <ele>878.4</ele>
        <time>2022-05-24 17:40:53</time>
      </trkpt>
      <trkpt lat="40.82597" lon="0.36993">
        <ele>878.6</ele>
        <time>2022-05-24 17:40:54</time>
      </trkpt>
      <trkpt lat="40.82597" lon="0.3699">
        <ele>878.8</ele>
        <time>2022-05-24 17:40:55</time>
      </trkpt>
      <trkpt lat="40.82597" lon="0.36988">
        <ele>878.8</ele>
        <time>2022-05-24 17:40:56</time>
      </trkpt>
      <trkpt lat="40.82597" lon="0.36986">
        <ele>878.8</ele>
        <time>2022-05-24 17:40:57</time>
      </trkpt>
      <trkpt lat="40.82596" lon="0.36984">
        <ele>879</ele>
        <time>2022-05-24 17:40:58</time>
      </trkpt>
      <trkpt lat="40.82596" lon="0.36982">
        <ele>879.2</ele>
        <time>2022-05-24 17:40:59</time>
      </trkpt>
      <trkpt lat="40.82596" lon="0.3698">
        <ele>879.4</ele>
        <time>2022-05-24 17:41:00</time>
      </trkpt>
      <trkpt lat="40.82596" lon="0.36978">
        <ele>879.4</ele>
        <time>2022-05-24 17:41:01</time>
      </trkpt>
      <trkpt lat="40.82595" lon="0.36976">
        <ele>879.6</ele>
        <time>2022-05-24 17:41:02</time>
      </trkpt>
      <trkpt lat="40.82595" lon="0.36974">
        <ele>879.8</ele>
        <time>2022-05-24 17:41:03</time>
      </trkpt>
      <trkpt lat="40.82595" lon="0.36972">
        <ele>880</ele>
        <time>2022-05-24 17:41:04</time>
      </trkpt>
      <trkpt lat="40.82595" lon="0.36969">
        <ele>880</ele>
        <time>2022-05-24 17:41:05</time>
      </trkpt>
      <trkpt lat="40.82594" lon="0.36967">
        <ele>880.2</ele>
        <time>2022-05-24 17:41:06</time>
      </trkpt>
      <trkpt lat="40.82594" lon="0.36965">
        <ele>880.2</ele>
        <time>2022-05-24 17:41:07</time>
      </trkpt>
      <trkpt lat="40.82593" lon="0.36963">
        <ele>880.2</ele>
        <time>2022-05-24 17:41:08</time>
      </trkpt>
      <trkpt lat="40.82593" lon="0.3696">
        <ele>880.2</ele>
        <time>2022-05-24 17:41:09</time>
      </trkpt>
      <trkpt lat="40.82592" lon="0.36958">
        <ele>880.4</ele>
        <time>2022-05-24 17:41:10</time>
      </trkpt>
      <trkpt lat="40.82591" lon="0.36956">
        <ele>880.6</ele>
        <time>2022-05-24 17:41:11</time>
      </trkpt>
      <trkpt lat="40.8259" lon="0.36954">
        <ele>880.8</ele>
        <time>2022-05-24 17:41:12</time>
      </trkpt>
      <trkpt lat="40.8259" lon="0.36952">
        <ele>881</ele>
        <time>2022-05-24 17:41:13</time>
      </trkpt>
      <trkpt lat="40.82589" lon="0.3695">
        <ele>881.2</ele>
        <time>2022-05-24 17:41:14</time>
      </trkpt>
      <trkpt lat="40.82588" lon="0.36948">
        <ele>881.2</ele>
        <time>2022-05-24 17:41:15</time>
      </trkpt>
      <trkpt lat="40.82588" lon="0.36946">
        <ele>881.2</ele>
        <time>2022-05-24 17:41:16</time>
      </trkpt>
      <trkpt lat="40.82587" lon="0.36944">
        <ele>881.2</ele>
        <time>2022-05-24 17:41:17</time>
      </trkpt>
      <trkpt lat="40.82586" lon="0.36942">
        <ele>881.4</ele>
        <time>2022-05-24 17:41:18</time>
      </trkpt>
      <trkpt lat="40.82585" lon="0.3694">
        <ele>881.6</ele>
        <time>2022-05-24 17:41:19</time>
      </trkpt>
      <trkpt lat="40.82584" lon="0.36938">
        <ele>881.6</ele>
        <time>2022-05-24 17:41:20</time>
      </trkpt>
      <trkpt lat="40.82584" lon="0.36936">
        <ele>881.8</ele>
        <time>2022-05-24 17:41:21</time>
      </trkpt>
      <trkpt lat="40.82583" lon="0.36934">
        <ele>882.2</ele>
        <time>2022-05-24 17:41:22</time>
      </trkpt>
      <trkpt lat="40.82582" lon="0.36932">
        <ele>882.2</ele>
        <time>2022-05-24 17:41:23</time>
      </trkpt>
      <trkpt lat="40.82581" lon="0.3693">
        <ele>882.4</ele>
        <time>2022-05-24 17:41:24</time>
      </trkpt>
      <trkpt lat="40.8258" lon="0.36928">
        <ele>882.6</ele>
        <time>2022-05-24 17:41:25</time>
      </trkpt>
      <trkpt lat="40.82579" lon="0.36927">
        <ele>883</ele>
        <time>2022-05-24 17:41:26</time>
      </trkpt>
      <trkpt lat="40.82578" lon="0.36925">
        <ele>883.4</ele>
        <time>2022-05-24 17:41:27</time>
      </trkpt>
      <trkpt lat="40.82577" lon="0.36923">
        <ele>884</ele>
        <time>2022-05-24 17:41:28</time>
      </trkpt>
      <trkpt lat="40.82576" lon="0.36921">
        <ele>884.4</ele>
        <time>2022-05-24 17:41:29</time>
      </trkpt>
      <trkpt lat="40.82575" lon="0.3692">
        <ele>884.6</ele>
        <time>2022-05-24 17:41:30</time>
      </trkpt>
      <trkpt lat="40.82574" lon="0.36918">
        <ele>885</ele>
        <time>2022-05-24 17:41:31</time>
      </trkpt>
      <trkpt lat="40.82573" lon="0.36916">
        <ele>885.2</ele>
        <time>2022-05-24 17:41:32</time>
      </trkpt>
      <trkpt lat="40.82572" lon="0.36915">
        <ele>885.2</ele>
        <time>2022-05-24 17:41:33</time>
      </trkpt>
      <trkpt lat="40.82571" lon="0.36914">
        <ele>885.4</ele>
        <time>2022-05-24 17:41:34</time>
      </trkpt>
      <trkpt lat="40.8257" lon="0.36912">
        <ele>885.6</ele>
        <time>2022-05-24 17:41:35</time>
      </trkpt>
      <trkpt lat="40.82568" lon="0.3691">
        <ele>885.8</ele>
        <time>2022-05-24 17:41:36</time>
      </trkpt>
      <trkpt lat="40.82567" lon="0.36909">
        <ele>886</ele>
        <time>2022-05-24 17:41:37</time>
      </trkpt>
      <trkpt lat="40.82566" lon="0.36907">
        <ele>886.2</ele>
        <time>2022-05-24 17:41:38</time>
      </trkpt>
      <trkpt lat="40.82565" lon="0.36906">
        <ele>886.6</ele>
        <time>2022-05-24 17:41:39</time>
      </trkpt>
      <trkpt lat="40.82563" lon="0.36904">
        <ele>886.8</ele>
        <time>2022-05-24 17:41:40</time>
      </trkpt>
      <trkpt lat="40.82561" lon="0.36903">
        <ele>887</ele>
        <time>2022-05-24 17:41:41</time>
      </trkpt>
      <trkpt lat="40.8256" lon="0.36901">
        <ele>887.2</ele>
        <time>2022-05-24 17:41:42</time>
      </trkpt>
      <trkpt lat="40.82559" lon="0.369">
        <ele>887.4</ele>
        <time>2022-05-24 17:41:43</time>
      </trkpt>
      <trkpt lat="40.82557" lon="0.36899">
        <ele>887.6</ele>
        <time>2022-05-24 17:41:44</time>
      </trkpt>
      <trkpt lat="40.82556" lon="0.36897">
        <ele>887.6</ele>
        <time>2022-05-24 17:41:45</time>
      </trkpt>
      <trkpt lat="40.82555" lon="0.36896">
        <ele>887.8</ele>
        <time>2022-05-24 17:41:46</time>
      </trkpt>
      <trkpt lat="40.82554" lon="0.36894">
        <ele>888</ele>
        <time>2022-05-24 17:41:47</time>
      </trkpt>
      <trkpt lat="40.82553" lon="0.36892">
        <ele>888.2</ele>
        <time>2022-05-24 17:41:48</time>
      </trkpt>
      <trkpt lat="40.82552" lon="0.3689">
        <ele>888.4</ele>
        <time>2022-05-24 17:41:49</time>
      </trkpt>
      <trkpt lat="40.8255" lon="0.36889">
        <ele>888.6</ele>
        <time>2022-05-24 17:41:50</time>
      </trkpt>
      <trkpt lat="40.82549" lon="0.36887">
        <ele>888.6</ele>
        <time>2022-05-24 17:41:51</time>
      </trkpt>
      <trkpt lat="40.82548" lon="0.36886">
        <ele>889</ele>
        <time>2022-05-24 17:41:52</time>
      </trkpt>
      <trkpt lat="40.82547" lon="0.36885">
        <ele>889.2</ele>
        <time>2022-05-24 17:41:53</time>
      </trkpt>
      <trkpt lat="40.82545" lon="0.36883">
        <ele>889.4</ele>
        <time>2022-05-24 17:41:54</time>
      </trkpt>
      <trkpt lat="40.82544" lon="0.36882">
        <ele>889.4</ele>
        <time>2022-05-24 17:41:55</time>
      </trkpt>
      <trkpt lat="40.82543" lon="0.36879">
        <ele>889.8</ele>
        <time>2022-05-24 17:41:56</time>
      </trkpt>
      <trkpt lat="40.82542" lon="0.36877">
        <ele>890</ele>
        <time>2022-05-24 17:41:57</time>
      </trkpt>
      <trkpt lat="40.82541" lon="0.36875">
        <ele>890.2</ele>
        <time>2022-05-24 17:41:58</time>
      </trkpt>
      <trkpt lat="40.8254" lon="0.36873">
        <ele>890.4</ele>
        <time>2022-05-24 17:41:59</time>
      </trkpt>
      <trkpt lat="40.82539" lon="0.36871">
        <ele>890.6</ele>
        <time>2022-05-24 17:42:00</time>
      </trkpt>
      <trkpt lat="40.82538" lon="0.3687">
        <ele>890.8</ele>
        <time>2022-05-24 17:42:01</time>
      </trkpt>
      <trkpt lat="40.82537" lon="0.36867">
        <ele>891.2</ele>
        <time>2022-05-24 17:42:02</time>
      </trkpt>
      <trkpt lat="40.82536" lon="0.36865">
        <ele>891.2</ele>
        <time>2022-05-24 17:42:03</time>
      </trkpt>
      <trkpt lat="40.82535" lon="0.36863">
        <ele>891.4</ele>
        <time>2022-05-24 17:42:04</time>
      </trkpt>
      <trkpt lat="40.82534" lon="0.36862">
        <ele>891.4</ele>
        <time>2022-05-24 17:42:05</time>
      </trkpt>
      <trkpt lat="40.82534" lon="0.3686">
        <ele>891.6</ele>
        <time>2022-05-24 17:42:06</time>
      </trkpt>
      <trkpt lat="40.82533" lon="0.36858">
        <ele>891.8</ele>
        <time>2022-05-24 17:42:07</time>
      </trkpt>
      <trkpt lat="40.82532" lon="0.36856">
        <ele>892.2</ele>
        <time>2022-05-24 17:42:08</time>
      </trkpt>
      <trkpt lat="40.82531" lon="0.36854">
        <ele>892.4</ele>
        <time>2022-05-24 17:42:09</time>
      </trkpt>
      <trkpt lat="40.8253" lon="0.36852">
        <ele>892.6</ele>
        <time>2022-05-24 17:42:10</time>
      </trkpt>
      <trkpt lat="40.82529" lon="0.3685">
        <ele>892.8</ele>
        <time>2022-05-24 17:42:11</time>
      </trkpt>
      <trkpt lat="40.82528" lon="0.36848">
        <ele>893</ele>
        <time>2022-05-24 17:42:12</time>
      </trkpt>
      <trkpt lat="40.82527" lon="0.36846">
        <ele>893</ele>
        <time>2022-05-24 17:42:13</time>
      </trkpt>
      <trkpt lat="40.82526" lon="0.36844">
        <ele>893</ele>
        <time>2022-05-24 17:42:14</time>
      </trkpt>
      <trkpt lat="40.82525" lon="0.36842">
        <ele>893.2</ele>
        <time>2022-05-24 17:42:15</time>
      </trkpt>
      <trkpt lat="40.82524" lon="0.3684">
        <ele>893.2</ele>
        <time>2022-05-24 17:42:16</time>
      </trkpt>
      <trkpt lat="40.82524" lon="0.36838">
        <ele>893.4</ele>
        <time>2022-05-24 17:42:17</time>
      </trkpt>
      <trkpt lat="40.82523" lon="0.36836">
        <ele>893.6</ele>
        <time>2022-05-24 17:42:18</time>
      </trkpt>
      <trkpt lat="40.82523" lon="0.36833">
        <ele>893.8</ele>
        <time>2022-05-24 17:42:19</time>
      </trkpt>
      <trkpt lat="40.82522" lon="0.36831">
        <ele>894</ele>
        <time>2022-05-24 17:42:20</time>
      </trkpt>
      <trkpt lat="40.82521" lon="0.36828">
        <ele>894.2</ele>
        <time>2022-05-24 17:42:21</time>
      </trkpt>
      <trkpt lat="40.82521" lon="0.36827">
        <ele>894.4</ele>
        <time>2022-05-24 17:42:22</time>
      </trkpt>
      <trkpt lat="40.8252" lon="0.36825">
        <ele>894.4</ele>
        <time>2022-05-24 17:42:23</time>
      </trkpt>
      <trkpt lat="40.82519" lon="0.36822">
        <ele>894.6</ele>
        <time>2022-05-24 17:42:24</time>
      </trkpt>
      <trkpt lat="40.82518" lon="0.3682">
        <ele>894.8</ele>
        <time>2022-05-24 17:42:25</time>
      </trkpt>
      <trkpt lat="40.82517" lon="0.36818">
        <ele>895</ele>
        <time>2022-05-24 17:42:26</time>
      </trkpt>
      <trkpt lat="40.82516" lon="0.36816">
        <ele>895.2</ele>
        <time>2022-05-24 17:42:27</time>
      </trkpt>
      <trkpt lat="40.82516" lon="0.36814">
        <ele>895.4</ele>
        <time>2022-05-24 17:42:28</time>
      </trkpt>
      <trkpt lat="40.82515" lon="0.36812">
        <ele>895.6</ele>
        <time>2022-05-24 17:42:29</time>
      </trkpt>
      <trkpt lat="40.82514" lon="0.3681">
        <ele>895.8</ele>
        <time>2022-05-24 17:42:30</time>
      </trkpt>
      <trkpt lat="40.82513" lon="0.36808">
        <ele>895.8</ele>
        <time>2022-05-24 17:42:31</time>
      </trkpt>
      <trkpt lat="40.82512" lon="0.36807">
        <ele>896</ele>
        <time>2022-05-24 17:42:32</time>
      </trkpt>
      <trkpt lat="40.8251" lon="0.36804">
        <ele>896</ele>
        <time>2022-05-24 17:42:33</time>
      </trkpt>
      <trkpt lat="40.82508" lon="0.36803">
        <ele>896.2</ele>
        <time>2022-05-24 17:42:34</time>
      </trkpt>
      <trkpt lat="40.82507" lon="0.36801">
        <ele>896.4</ele>
        <time>2022-05-24 17:42:35</time>
      </trkpt>
      <trkpt lat="40.82505" lon="0.368">
        <ele>896.6</ele>
        <time>2022-05-24 17:42:36</time>
      </trkpt>
      <trkpt lat="40.82503" lon="0.36798">
        <ele>896.6</ele>
        <time>2022-05-24 17:42:37</time>
      </trkpt>
      <trkpt lat="40.82501" lon="0.36797">
        <ele>896.8</ele>
        <time>2022-05-24 17:42:38</time>
      </trkpt>
      <trkpt lat="40.825" lon="0.36796">
        <ele>897</ele>
        <time>2022-05-24 17:42:39</time>
      </trkpt>
      <trkpt lat="40.82498" lon="0.36794">
        <ele>897</ele>
        <time>2022-05-24 17:42:40</time>
      </trkpt>
      <trkpt lat="40.82497" lon="0.36793">
        <ele>897.2</ele>
        <time>2022-05-24 17:42:41</time>
      </trkpt>
      <trkpt lat="40.82496" lon="0.36792">
        <ele>897.2</ele>
        <time>2022-05-24 17:42:42</time>
      </trkpt>
      <trkpt lat="40.82495" lon="0.36789">
        <ele>897.4</ele>
        <time>2022-05-24 17:42:43</time>
      </trkpt>
      <trkpt lat="40.82494" lon="0.36788">
        <ele>897.6</ele>
        <time>2022-05-24 17:42:44</time>
      </trkpt>
      <trkpt lat="40.82493" lon="0.36786">
        <ele>897.6</ele>
        <time>2022-05-24 17:42:45</time>
      </trkpt>
      <trkpt lat="40.82492" lon="0.36784">
        <ele>897.8</ele>
        <time>2022-05-24 17:42:46</time>
      </trkpt>
      <trkpt lat="40.82491" lon="0.36783">
        <ele>897.8</ele>
        <time>2022-05-24 17:42:47</time>
      </trkpt>
      <trkpt lat="40.82489" lon="0.36781">
        <ele>898</ele>
        <time>2022-05-24 17:42:48</time>
      </trkpt>
      <trkpt lat="40.82488" lon="0.3678">
        <ele>898</ele>
        <time>2022-05-24 17:42:49</time>
      </trkpt>
      <trkpt lat="40.82486" lon="0.36779">
        <ele>898.2</ele>
        <time>2022-05-24 17:42:50</time>
      </trkpt>
      <trkpt lat="40.82485" lon="0.36778">
        <ele>898.4</ele>
        <time>2022-05-24 17:42:51</time>
      </trkpt>
      <trkpt lat="40.82484" lon="0.36776">
        <ele>898.6</ele>
        <time>2022-05-24 17:42:52</time>
      </trkpt>
      <trkpt lat="40.82483" lon="0.36775">
        <ele>898.8</ele>
        <time>2022-05-24 17:42:53</time>
      </trkpt>
      <trkpt lat="40.82482" lon="0.36774">
        <ele>899</ele>
        <time>2022-05-24 17:42:54</time>
      </trkpt>
      <trkpt lat="40.82481" lon="0.36772">
        <ele>899.2</ele>
        <time>2022-05-24 17:42:55</time>
      </trkpt>
      <trkpt lat="40.82479" lon="0.36771">
        <ele>899.4</ele>
        <time>2022-05-24 17:42:56</time>
      </trkpt>
      <trkpt lat="40.82479" lon="0.36769">
        <ele>899.6</ele>
        <time>2022-05-24 17:42:57</time>
      </trkpt>
      <trkpt lat="40.82477" lon="0.36768">
        <ele>899.8</ele>
        <time>2022-05-24 17:42:58</time>
      </trkpt>
      <trkpt lat="40.82476" lon="0.36767">
        <ele>899.8</ele>
        <time>2022-05-24 17:42:59</time>
      </trkpt>
      <trkpt lat="40.82475" lon="0.36766">
        <ele>900</ele>
        <time>2022-05-24 17:43:00</time>
      </trkpt>
      <trkpt lat="40.82473" lon="0.36765">
        <ele>900.2</ele>
        <time>2022-05-24 17:43:01</time>
      </trkpt>
      <trkpt lat="40.82472" lon="0.36763">
        <ele>900.4</ele>
        <time>2022-05-24 17:43:02</time>
      </trkpt>
      <trkpt lat="40.82471" lon="0.36762">
        <ele>900.6</ele>
        <time>2022-05-24 17:43:03</time>
      </trkpt>
      <trkpt lat="40.82469" lon="0.36761">
        <ele>900.8</ele>
        <time>2022-05-24 17:43:04</time>
      </trkpt>
      <trkpt lat="40.82468" lon="0.36759">
        <ele>901</ele>
        <time>2022-05-24 17:43:05</time>
      </trkpt>
      <trkpt lat="40.82467" lon="0.36759">
        <ele>901.4</ele>
        <time>2022-05-24 17:43:06</time>
      </trkpt>
      <trkpt lat="40.82465" lon="0.36758">
        <ele>901.6</ele>
        <time>2022-05-24 17:43:07</time>
      </trkpt>
      <trkpt lat="40.82464" lon="0.36756">
        <ele>902</ele>
        <time>2022-05-24 17:43:08</time>
      </trkpt>
      <trkpt lat="40.82463" lon="0.36755">
        <ele>902</ele>
        <time>2022-05-24 17:43:09</time>
      </trkpt>
      <trkpt lat="40.82462" lon="0.36753">
        <ele>902</ele>
        <time>2022-05-24 17:43:10</time>
      </trkpt>
      <trkpt lat="40.82461" lon="0.36751">
        <ele>902.2</ele>
        <time>2022-05-24 17:43:11</time>
      </trkpt>
      <trkpt lat="40.8246" lon="0.3675">
        <ele>902.2</ele>
        <time>2022-05-24 17:43:12</time>
      </trkpt>
      <trkpt lat="40.82459" lon="0.36749">
        <ele>902.4</ele>
        <time>2022-05-24 17:43:13</time>
      </trkpt>
      <trkpt lat="40.82457" lon="0.36748">
        <ele>902.6</ele>
        <time>2022-05-24 17:43:14</time>
      </trkpt>
      <trkpt lat="40.82456" lon="0.36747">
        <ele>902.8</ele>
        <time>2022-05-24 17:43:15</time>
      </trkpt>
      <trkpt lat="40.82455" lon="0.36746">
        <ele>903</ele>
        <time>2022-05-24 17:43:16</time>
      </trkpt>
      <trkpt lat="40.82454" lon="0.36745">
        <ele>903</ele>
        <time>2022-05-24 17:43:17</time>
      </trkpt>
      <trkpt lat="40.82453" lon="0.36743">
        <ele>903</ele>
        <time>2022-05-24 17:43:18</time>
      </trkpt>
      <trkpt lat="40.82453" lon="0.36742">
        <ele>903.2</ele>
        <time>2022-05-24 17:43:19</time>
      </trkpt>
      <trkpt lat="40.82452" lon="0.3674">
        <ele>903.4</ele>
        <time>2022-05-24 17:43:20</time>
      </trkpt>
      <trkpt lat="40.82451" lon="0.36738">
        <ele>903.6</ele>
        <time>2022-05-24 17:43:21</time>
      </trkpt>
      <trkpt lat="40.82451" lon="0.36736">
        <ele>903.8</ele>
        <time>2022-05-24 17:43:22</time>
      </trkpt>
      <trkpt lat="40.82451" lon="0.36734">
        <ele>904.2</ele>
        <time>2022-05-24 17:43:23</time>
      </trkpt>
      <trkpt lat="40.82452" lon="0.36732">
        <ele>904.4</ele>
        <time>2022-05-24 17:43:24</time>
      </trkpt>
      <trkpt lat="40.82452" lon="0.3673">
        <ele>904.4</ele>
        <time>2022-05-24 17:43:25</time>
      </trkpt>
      <trkpt lat="40.82452" lon="0.36729">
        <ele>904.6</ele>
        <time>2022-05-24 17:43:26</time>
      </trkpt>
      <trkpt lat="40.82454" lon="0.36728">
        <ele>904.8</ele>
        <time>2022-05-24 17:43:27</time>
      </trkpt>
      <trkpt lat="40.82455" lon="0.36727">
        <ele>905.2</ele>
        <time>2022-05-24 17:43:28</time>
      </trkpt>
      <trkpt lat="40.82457" lon="0.36727">
        <ele>905.6</ele>
        <time>2022-05-24 17:43:29</time>
      </trkpt>
      <trkpt lat="40.82459" lon="0.36727">
        <ele>906</ele>
        <time>2022-05-24 17:43:30</time>
      </trkpt>
      <trkpt lat="40.82461" lon="0.36728">
        <ele>906.2</ele>
        <time>2022-05-24 17:43:31</time>
      </trkpt>
      <trkpt lat="40.82462" lon="0.36728">
        <ele>906.4</ele>
        <time>2022-05-24 17:43:32</time>
      </trkpt>
      <trkpt lat="40.82464" lon="0.36729">
        <ele>906.6</ele>
        <time>2022-05-24 17:43:33</time>
      </trkpt>
      <trkpt lat="40.82466" lon="0.3673">
        <ele>907</ele>
        <time>2022-05-24 17:43:34</time>
      </trkpt>
      <trkpt lat="40.82468" lon="0.36731">
        <ele>907.2</ele>
        <time>2022-05-24 17:43:35</time>
      </trkpt>
      <trkpt lat="40.8247" lon="0.36732">
        <ele>907.4</ele>
        <time>2022-05-24 17:43:36</time>
      </trkpt>
      <trkpt lat="40.82471" lon="0.36733">
        <ele>907.8</ele>
        <time>2022-05-24 17:43:37</time>
      </trkpt>
      <trkpt lat="40.82472" lon="0.36734">
        <ele>908</ele>
        <time>2022-05-24 17:43:38</time>
      </trkpt>
      <trkpt lat="40.82474" lon="0.36735">
        <ele>908.4</ele>
        <time>2022-05-24 17:43:39</time>
      </trkpt>
      <trkpt lat="40.82476" lon="0.36736">
        <ele>908.8</ele>
        <time>2022-05-24 17:43:40</time>
      </trkpt>
      <trkpt lat="40.82477" lon="0.36736">
        <ele>909</ele>
        <time>2022-05-24 17:43:41</time>
      </trkpt>
      <trkpt lat="40.82479" lon="0.36737">
        <ele>909.2</ele>
        <time>2022-05-24 17:43:42</time>
      </trkpt>
      <trkpt lat="40.8248" lon="0.36738">
        <ele>909.2</ele>
        <time>2022-05-24 17:43:43</time>
      </trkpt>
      <trkpt lat="40.82481" lon="0.36739">
        <ele>909.2</ele>
        <time>2022-05-24 17:43:44</time>
      </trkpt>
      <trkpt lat="40.82483" lon="0.3674">
        <ele>909.2</ele>
        <time>2022-05-24 17:43:45</time>
      </trkpt>
      <trkpt lat="40.82485" lon="0.36741">
        <ele>909.4</ele>
        <time>2022-05-24 17:43:46</time>
      </trkpt>
      <trkpt lat="40.82486" lon="0.36741">
        <ele>909.6</ele>
        <time>2022-05-24 17:43:47</time>
      </trkpt>
      <trkpt lat="40.82488" lon="0.36742">
        <ele>909.8</ele>
        <time>2022-05-24 17:43:48</time>
      </trkpt>
      <trkpt lat="40.8249" lon="0.36743">
        <ele>910</ele>
        <time>2022-05-24 17:43:49</time>
      </trkpt>
      <trkpt lat="40.82491" lon="0.36744">
        <ele>910.2</ele>
        <time>2022-05-24 17:43:50</time>
      </trkpt>
      <trkpt lat="40.82493" lon="0.36745">
        <ele>910.4</ele>
        <time>2022-05-24 17:43:51</time>
      </trkpt>
      <trkpt lat="40.82495" lon="0.36746">
        <ele>910.6</ele>
        <time>2022-05-24 17:43:52</time>
      </trkpt>
      <trkpt lat="40.82496" lon="0.36747">
        <ele>910.8</ele>
        <time>2022-05-24 17:43:53</time>
      </trkpt>
      <trkpt lat="40.82498" lon="0.36748">
        <ele>911</ele>
        <time>2022-05-24 17:43:54</time>
      </trkpt>
      <trkpt lat="40.825" lon="0.36748">
        <ele>911.2</ele>
        <time>2022-05-24 17:43:55</time>
      </trkpt>
      <trkpt lat="40.82502" lon="0.36749">
        <ele>911.4</ele>
        <time>2022-05-24 17:43:56</time>
      </trkpt>
      <trkpt lat="40.82504" lon="0.36749">
        <ele>911.4</ele>
        <time>2022-05-24 17:43:57</time>
      </trkpt>
      <trkpt lat="40.82505" lon="0.3675">
        <ele>911.6</ele>
        <time>2022-05-24 17:43:58</time>
      </trkpt>
      <trkpt lat="40.82507" lon="0.36751">
        <ele>911.8</ele>
        <time>2022-05-24 17:43:59</time>
      </trkpt>
      <trkpt lat="40.82509" lon="0.36752">
        <ele>912</ele>
        <time>2022-05-24 17:44:00</time>
      </trkpt>
      <trkpt lat="40.8251" lon="0.36753">
        <ele>912</ele>
        <time>2022-05-24 17:44:01</time>
      </trkpt>
      <trkpt lat="40.82512" lon="0.36754">
        <ele>912.2</ele>
        <time>2022-05-24 17:44:02</time>
      </trkpt>
      <trkpt lat="40.82514" lon="0.36754">
        <ele>912.4</ele>
        <time>2022-05-24 17:44:03</time>
      </trkpt>
      <trkpt lat="40.82516" lon="0.36755">
        <ele>912.4</ele>
        <time>2022-05-24 17:44:04</time>
      </trkpt>
      <trkpt lat="40.82517" lon="0.36756">
        <ele>912.6</ele>
        <time>2022-05-24 17:44:05</time>
      </trkpt>
      <trkpt lat="40.82518" lon="0.36757">
        <ele>912.8</ele>
        <time>2022-05-24 17:44:06</time>
      </trkpt>
      <trkpt lat="40.82521" lon="0.36758">
        <ele>913</ele>
        <time>2022-05-24 17:44:07</time>
      </trkpt>
      <trkpt lat="40.82523" lon="0.36759">
        <ele>913.2</ele>
        <time>2022-05-24 17:44:08</time>
      </trkpt>
      <trkpt lat="40.82524" lon="0.36759">
        <ele>913.4</ele>
        <time>2022-05-24 17:44:09</time>
      </trkpt>
      <trkpt lat="40.82526" lon="0.3676">
        <ele>913.6</ele>
        <time>2022-05-24 17:44:10</time>
      </trkpt>
      <trkpt lat="40.82528" lon="0.36761">
        <ele>913.6</ele>
        <time>2022-05-24 17:44:11</time>
      </trkpt>
      <trkpt lat="40.8253" lon="0.36762">
        <ele>913.8</ele>
        <time>2022-05-24 17:44:12</time>
      </trkpt>
      <trkpt lat="40.82531" lon="0.36763">
        <ele>913.8</ele>
        <time>2022-05-24 17:44:13</time>
      </trkpt>
      <trkpt lat="40.82533" lon="0.36764">
        <ele>914</ele>
        <time>2022-05-24 17:44:14</time>
      </trkpt>
      <trkpt lat="40.82534" lon="0.36765">
        <ele>914.2</ele>
        <time>2022-05-24 17:44:15</time>
      </trkpt>
      <trkpt lat="40.82536" lon="0.36766">
        <ele>914.2</ele>
        <time>2022-05-24 17:44:16</time>
      </trkpt>
      <trkpt lat="40.82537" lon="0.36768">
        <ele>914.4</ele>
        <time>2022-05-24 17:44:17</time>
      </trkpt>
      <trkpt lat="40.82539" lon="0.3677">
        <ele>914.6</ele>
        <time>2022-05-24 17:44:18</time>
      </trkpt>
      <trkpt lat="40.8254" lon="0.36771">
        <ele>914.6</ele>
        <time>2022-05-24 17:44:19</time>
      </trkpt>
      <trkpt lat="40.82541" lon="0.36773">
        <ele>914.8</ele>
        <time>2022-05-24 17:44:20</time>
      </trkpt>
      <trkpt lat="40.82543" lon="0.36774">
        <ele>915</ele>
        <time>2022-05-24 17:44:21</time>
      </trkpt>
      <trkpt lat="40.82544" lon="0.36775">
        <ele>915</ele>
        <time>2022-05-24 17:44:22</time>
      </trkpt>
      <trkpt lat="40.82545" lon="0.36777">
        <ele>915.2</ele>
        <time>2022-05-24 17:44:23</time>
      </trkpt>
      <trkpt lat="40.82546" lon="0.36778">
        <ele>915.4</ele>
        <time>2022-05-24 17:44:24</time>
      </trkpt>
      <trkpt lat="40.82547" lon="0.3678">
        <ele>915.6</ele>
        <time>2022-05-24 17:44:25</time>
      </trkpt>
      <trkpt lat="40.82549" lon="0.36782">
        <ele>915.8</ele>
        <time>2022-05-24 17:44:26</time>
      </trkpt>
      <trkpt lat="40.8255" lon="0.36784">
        <ele>916</ele>
        <time>2022-05-24 17:44:27</time>
      </trkpt>
      <trkpt lat="40.82551" lon="0.36785">
        <ele>916.2</ele>
        <time>2022-05-24 17:44:28</time>
      </trkpt>
      <trkpt lat="40.82552" lon="0.36786">
        <ele>916.6</ele>
        <time>2022-05-24 17:44:29</time>
      </trkpt>
      <trkpt lat="40.82553" lon="0.36788">
        <ele>916.8</ele>
        <time>2022-05-24 17:44:30</time>
      </trkpt>
      <trkpt lat="40.82555" lon="0.36789">
        <ele>917</ele>
        <time>2022-05-24 17:44:31</time>
      </trkpt>
      <trkpt lat="40.82556" lon="0.36791">
        <ele>917.2</ele>
        <time>2022-05-24 17:44:32</time>
      </trkpt>
      <trkpt lat="40.82557" lon="0.36792">
        <ele>917.4</ele>
        <time>2022-05-24 17:44:33</time>
      </trkpt>
      <trkpt lat="40.82558" lon="0.36793">
        <ele>917.6</ele>
        <time>2022-05-24 17:44:34</time>
      </trkpt>
      <trkpt lat="40.8256" lon="0.36795">
        <ele>917.6</ele>
        <time>2022-05-24 17:44:35</time>
      </trkpt>
      <trkpt lat="40.82561" lon="0.36796">
        <ele>917.8</ele>
        <time>2022-05-24 17:44:36</time>
      </trkpt>
      <trkpt lat="40.82563" lon="0.36797">
        <ele>917.8</ele>
        <time>2022-05-24 17:44:37</time>
      </trkpt>
      <trkpt lat="40.82565" lon="0.36798">
        <ele>918</ele>
        <time>2022-05-24 17:44:38</time>
      </trkpt>
      <trkpt lat="40.82566" lon="0.368">
        <ele>918.2</ele>
        <time>2022-05-24 17:44:39</time>
      </trkpt>
      <trkpt lat="40.82567" lon="0.36801">
        <ele>918.4</ele>
        <time>2022-05-24 17:44:40</time>
      </trkpt>
      <trkpt lat="40.82569" lon="0.36802">
        <ele>918.4</ele>
        <time>2022-05-24 17:44:41</time>
      </trkpt>
      <trkpt lat="40.8257" lon="0.36803">
        <ele>918.6</ele>
        <time>2022-05-24 17:44:42</time>
      </trkpt>
      <trkpt lat="40.82572" lon="0.36804">
        <ele>918.6</ele>
        <time>2022-05-24 17:44:43</time>
      </trkpt>
      <trkpt lat="40.82573" lon="0.36806">
        <ele>919</ele>
        <time>2022-05-24 17:44:44</time>
      </trkpt>
      <trkpt lat="40.82575" lon="0.36807">
        <ele>919.4</ele>
        <time>2022-05-24 17:44:45</time>
      </trkpt>
      <trkpt lat="40.82576" lon="0.36808">
        <ele>919.8</ele>
        <time>2022-05-24 17:44:46</time>
      </trkpt>
      <trkpt lat="40.82578" lon="0.36809">
        <ele>920</ele>
        <time>2022-05-24 17:44:47</time>
      </trkpt>
      <trkpt lat="40.8258" lon="0.3681">
        <ele>920</ele>
        <time>2022-05-24 17:44:48</time>
      </trkpt>
      <trkpt lat="40.82581" lon="0.36811">
        <ele>920.2</ele>
        <time>2022-05-24 17:44:49</time>
      </trkpt>
      <trkpt lat="40.82583" lon="0.36812">
        <ele>920.2</ele>
        <time>2022-05-24 17:44:50</time>
      </trkpt>
      <trkpt lat="40.82585" lon="0.36813">
        <ele>920.2</ele>
        <time>2022-05-24 17:44:51</time>
      </trkpt>
      <trkpt lat="40.82586" lon="0.36814">
        <ele>920.4</ele>
        <time>2022-05-24 17:44:52</time>
      </trkpt>
      <trkpt lat="40.82588" lon="0.36814">
        <ele>920.6</ele>
        <time>2022-05-24 17:44:53</time>
      </trkpt>
      <trkpt lat="40.8259" lon="0.36815">
        <ele>921</ele>
        <time>2022-05-24 17:44:54</time>
      </trkpt>
      <trkpt lat="40.82591" lon="0.36816">
        <ele>921</ele>
        <time>2022-05-24 17:44:55</time>
      </trkpt>
      <trkpt lat="40.82593" lon="0.36817">
        <ele>921.2</ele>
        <time>2022-05-24 17:44:56</time>
      </trkpt>
      <trkpt lat="40.82595" lon="0.36818">
        <ele>921.2</ele>
        <time>2022-05-24 17:44:57</time>
      </trkpt>
      <trkpt lat="40.82597" lon="0.36819">
        <ele>921.4</ele>
        <time>2022-05-24 17:44:58</time>
      </trkpt>
      <trkpt lat="40.82598" lon="0.3682">
        <ele>921.4</ele>
        <time>2022-05-24 17:44:59</time>
      </trkpt>
      <trkpt lat="40.82599" lon="0.36822">
        <ele>921.4</ele>
        <time>2022-05-24 17:45:00</time>
      </trkpt>
      <trkpt lat="40.82601" lon="0.36823">
        <ele>921.6</ele>
        <time>2022-05-24 17:45:01</time>
      </trkpt>
      <trkpt lat="40.82602" lon="0.36825">
        <ele>921.6</ele>
        <time>2022-05-24 17:45:02</time>
      </trkpt>
      <trkpt lat="40.82603" lon="0.36826">
        <ele>921.8</ele>
        <time>2022-05-24 17:45:03</time>
      </trkpt>
      <trkpt lat="40.82605" lon="0.36828">
        <ele>921.8</ele>
        <time>2022-05-24 17:45:04</time>
      </trkpt>
      <trkpt lat="40.82606" lon="0.3683">
        <ele>921.8</ele>
        <time>2022-05-24 17:45:05</time>
      </trkpt>
      <trkpt lat="40.82607" lon="0.36832">
        <ele>921.8</ele>
        <time>2022-05-24 17:45:06</time>
      </trkpt>
      <trkpt lat="40.82608" lon="0.36834">
        <ele>922</ele>
        <time>2022-05-24 17:45:07</time>
      </trkpt>
      <trkpt lat="40.8261" lon="0.36835">
        <ele>922</ele>
        <time>2022-05-24 17:45:08</time>
      </trkpt>
      <trkpt lat="40.82611" lon="0.36838">
        <ele>922.2</ele>
        <time>2022-05-24 17:45:09</time>
      </trkpt>
      <trkpt lat="40.82612" lon="0.36839">
        <ele>922.4</ele>
        <time>2022-05-24 17:45:10</time>
      </trkpt>
      <trkpt lat="40.82613" lon="0.36841">
        <ele>922.6</ele>
        <time>2022-05-24 17:45:11</time>
      </trkpt>
      <trkpt lat="40.82614" lon="0.36843">
        <ele>922.8</ele>
        <time>2022-05-24 17:45:12</time>
      </trkpt>
      <trkpt lat="40.82616" lon="0.36845">
        <ele>923.2</ele>
        <time>2022-05-24 17:45:13</time>
      </trkpt>
      <trkpt lat="40.82617" lon="0.36846">
        <ele>923.6</ele>
        <time>2022-05-24 17:45:14</time>
      </trkpt>
      <trkpt lat="40.82619" lon="0.36847">
        <ele>924</ele>
        <time>2022-05-24 17:45:15</time>
      </trkpt>
      <trkpt lat="40.82621" lon="0.36847">
        <ele>924.4</ele>
        <time>2022-05-24 17:45:16</time>
      </trkpt>
      <trkpt lat="40.82623" lon="0.36847">
        <ele>924.8</ele>
        <time>2022-05-24 17:45:17</time>
      </trkpt>
      <trkpt lat="40.82625" lon="0.36847">
        <ele>925.2</ele>
        <time>2022-05-24 17:45:18</time>
      </trkpt>
      <trkpt lat="40.82626" lon="0.36845">
        <ele>925.4</ele>
        <time>2022-05-24 17:45:19</time>
      </trkpt>
      <trkpt lat="40.82627" lon="0.36844">
        <ele>925.6</ele>
        <time>2022-05-24 17:45:20</time>
      </trkpt>
      <trkpt lat="40.82628" lon="0.36841">
        <ele>925.8</ele>
        <time>2022-05-24 17:45:21</time>
      </trkpt>
      <trkpt lat="40.82629" lon="0.36839">
        <ele>926</ele>
        <time>2022-05-24 17:45:22</time>
      </trkpt>
      <trkpt lat="40.82629" lon="0.36837">
        <ele>926</ele>
        <time>2022-05-24 17:45:23</time>
      </trkpt>
      <trkpt lat="40.82628" lon="0.36834">
        <ele>926.2</ele>
        <time>2022-05-24 17:45:24</time>
      </trkpt>
      <trkpt lat="40.82628" lon="0.36832">
        <ele>926.4</ele>
        <time>2022-05-24 17:45:25</time>
      </trkpt>
      <trkpt lat="40.82627" lon="0.3683">
        <ele>926.8</ele>
        <time>2022-05-24 17:45:26</time>
      </trkpt>
      <trkpt lat="40.82627" lon="0.36828">
        <ele>927</ele>
        <time>2022-05-24 17:45:27</time>
      </trkpt>
      <trkpt lat="40.82626" lon="0.36826">
        <ele>927.2</ele>
        <time>2022-05-24 17:45:28</time>
      </trkpt>
      <trkpt lat="40.82625" lon="0.36824">
        <ele>927.4</ele>
        <time>2022-05-24 17:45:29</time>
      </trkpt>
      <trkpt lat="40.82624" lon="0.36822">
        <ele>927.6</ele>
        <time>2022-05-24 17:45:30</time>
      </trkpt>
      <trkpt lat="40.82624" lon="0.3682">
        <ele>927.8</ele>
        <time>2022-05-24 17:45:31</time>
      </trkpt>
      <trkpt lat="40.82623" lon="0.36818">
        <ele>928</ele>
        <time>2022-05-24 17:45:32</time>
      </trkpt>
      <trkpt lat="40.82623" lon="0.36816">
        <ele>928.2</ele>
        <time>2022-05-24 17:45:33</time>
      </trkpt>
      <trkpt lat="40.82622" lon="0.36814">
        <ele>928.4</ele>
        <time>2022-05-24 17:45:34</time>
      </trkpt>
      <trkpt lat="40.82622" lon="0.36812">
        <ele>928.4</ele>
        <time>2022-05-24 17:45:35</time>
      </trkpt>
      <trkpt lat="40.82621" lon="0.3681">
        <ele>928.4</ele>
        <time>2022-05-24 17:45:36</time>
      </trkpt>
      <trkpt lat="40.8262" lon="0.36809">
        <ele>928.6</ele>
        <time>2022-05-24 17:45:37</time>
      </trkpt>
      <trkpt lat="40.82619" lon="0.36807">
        <ele>929</ele>
        <time>2022-05-24 17:45:38</time>
      </trkpt>
      <trkpt lat="40.82618" lon="0.36805">
        <ele>929.2</ele>
        <time>2022-05-24 17:45:39</time>
      </trkpt>
      <trkpt lat="40.82618" lon="0.36803">
        <ele>929.6</ele>
        <time>2022-05-24 17:45:40</time>
      </trkpt>
      <trkpt lat="40.82617" lon="0.36801">
        <ele>929.8</ele>
        <time>2022-05-24 17:45:41</time>
      </trkpt>
      <trkpt lat="40.82616" lon="0.36799">
        <ele>930</ele>
        <time>2022-05-24 17:45:42</time>
      </trkpt>
      <trkpt lat="40.82615" lon="0.36798">
        <ele>930</ele>
        <time>2022-05-24 17:45:43</time>
      </trkpt>
      <trkpt lat="40.82614" lon="0.36797">
        <ele>930.2</ele>
        <time>2022-05-24 17:45:44</time>
      </trkpt>
      <trkpt lat="40.82613" lon="0.36795">
        <ele>930.2</ele>
        <time>2022-05-24 17:45:45</time>
      </trkpt>
      <trkpt lat="40.82613" lon="0.36793">
        <ele>930.4</ele>
        <time>2022-05-24 17:45:46</time>
      </trkpt>
      <trkpt lat="40.82612" lon="0.36791">
        <ele>930.6</ele>
        <time>2022-05-24 17:45:47</time>
      </trkpt>
      <trkpt lat="40.82611" lon="0.3679">
        <ele>930.6</ele>
        <time>2022-05-24 17:45:48</time>
      </trkpt>
      <trkpt lat="40.8261" lon="0.36788">
        <ele>930.8</ele>
        <time>2022-05-24 17:45:49</time>
      </trkpt>
      <trkpt lat="40.82609" lon="0.36787">
        <ele>931</ele>
        <time>2022-05-24 17:45:50</time>
      </trkpt>
      <trkpt lat="40.82608" lon="0.36786">
        <ele>931</ele>
        <time>2022-05-24 17:45:51</time>
      </trkpt>
      <trkpt lat="40.82607" lon="0.36784">
        <ele>931.2</ele>
        <time>2022-05-24 17:45:52</time>
      </trkpt>
      <trkpt lat="40.82606" lon="0.36783">
        <ele>931.4</ele>
        <time>2022-05-24 17:45:53</time>
      </trkpt>
      <trkpt lat="40.82605" lon="0.36782">
        <ele>931.6</ele>
        <time>2022-05-24 17:45:54</time>
      </trkpt>
      <trkpt lat="40.82605" lon="0.3678">
        <ele>931.6</ele>
        <time>2022-05-24 17:45:55</time>
      </trkpt>
      <trkpt lat="40.82604" lon="0.36778">
        <ele>931.8</ele>
        <time>2022-05-24 17:45:56</time>
      </trkpt>
      <trkpt lat="40.82603" lon="0.36777">
        <ele>932</ele>
        <time>2022-05-24 17:45:57</time>
      </trkpt>
      <trkpt lat="40.82602" lon="0.36775">
        <ele>932.2</ele>
        <time>2022-05-24 17:45:58</time>
      </trkpt>
      <trkpt lat="40.826" lon="0.36774">
        <ele>932.2</ele>
        <time>2022-05-24 17:45:59</time>
      </trkpt>
      <trkpt lat="40.826" lon="0.36772">
        <ele>932.4</ele>
        <time>2022-05-24 17:46:00</time>
      </trkpt>
      <trkpt lat="40.82599" lon="0.3677">
        <ele>932.6</ele>
        <time>2022-05-24 17:46:01</time>
      </trkpt>
      <trkpt lat="40.82598" lon="0.36769">
        <ele>933</ele>
        <time>2022-05-24 17:46:02</time>
      </trkpt>
      <trkpt lat="40.82597" lon="0.36767">
        <ele>933.2</ele>
        <time>2022-05-24 17:46:03</time>
      </trkpt>
      <trkpt lat="40.82596" lon="0.36766">
        <ele>933.2</ele>
        <time>2022-05-24 17:46:04</time>
      </trkpt>
      <trkpt lat="40.82595" lon="0.36764">
        <ele>933.6</ele>
        <time>2022-05-24 17:46:05</time>
      </trkpt>
      <trkpt lat="40.82594" lon="0.36763">
        <ele>933.8</ele>
        <time>2022-05-24 17:46:06</time>
      </trkpt>
      <trkpt lat="40.82593" lon="0.36762">
        <ele>934</ele>
        <time>2022-05-24 17:46:07</time>
      </trkpt>
      <trkpt lat="40.82592" lon="0.36761">
        <ele>934.2</ele>
        <time>2022-05-24 17:46:08</time>
      </trkpt>
      <trkpt lat="40.8259" lon="0.3676">
        <ele>934.6</ele>
        <time>2022-05-24 17:46:09</time>
      </trkpt>
      <trkpt lat="40.8259" lon="0.36758">
        <ele>934.8</ele>
        <time>2022-05-24 17:46:10</time>
      </trkpt>
      <trkpt lat="40.82589" lon="0.36756">
        <ele>935</ele>
        <time>2022-05-24 17:46:11</time>
      </trkpt>
      <trkpt lat="40.82589" lon="0.36755">
        <ele>935.2</ele>
        <time>2022-05-24 17:46:12</time>
      </trkpt>
      <trkpt lat="40.82587" lon="0.36753">
        <ele>935.2</ele>
        <time>2022-05-24 17:46:13</time>
      </trkpt>
      <trkpt lat="40.82586" lon="0.36752">
        <ele>935.2</ele>
        <time>2022-05-24 17:46:14</time>
      </trkpt>
      <trkpt lat="40.82585" lon="0.36751">
        <ele>935.6</ele>
        <time>2022-05-24 17:46:15</time>
      </trkpt>
      <trkpt lat="40.82584" lon="0.36749">
        <ele>935.8</ele>
        <time>2022-05-24 17:46:16</time>
      </trkpt>
      <trkpt lat="40.82583" lon="0.36748">
        <ele>936</ele>
        <time>2022-05-24 17:46:17</time>
      </trkpt>
      <trkpt lat="40.82582" lon="0.36747">
        <ele>935.8</ele>
        <time>2022-05-24 17:46:18</time>
      </trkpt>
      <trkpt lat="40.82581" lon="0.36745">
        <ele>935.8</ele>
        <time>2022-05-24 17:46:19</time>
      </trkpt>
      <trkpt lat="40.8258" lon="0.36744">
        <ele>936</ele>
        <time>2022-05-24 17:46:20</time>
      </trkpt>
      <trkpt lat="40.82579" lon="0.36742">
        <ele>936</ele>
        <time>2022-05-24 17:46:21</time>
      </trkpt>
      <trkpt lat="40.82579" lon="0.3674">
        <ele>936.2</ele>
        <time>2022-05-24 17:46:22</time>
      </trkpt>
      <trkpt lat="40.82578" lon="0.36738">
        <ele>936.4</ele>
        <time>2022-05-24 17:46:23</time>
      </trkpt>
      <trkpt lat="40.82577" lon="0.36737">
        <ele>936.4</ele>
        <time>2022-05-24 17:46:24</time>
      </trkpt>
      <trkpt lat="40.82576" lon="0.36735">
        <ele>936.4</ele>
        <time>2022-05-24 17:46:25</time>
      </trkpt>
      <trkpt lat="40.82575" lon="0.36733">
        <ele>936.6</ele>
        <time>2022-05-24 17:46:26</time>
      </trkpt>
      <trkpt lat="40.82574" lon="0.36731">
        <ele>937.2</ele>
        <time>2022-05-24 17:46:27</time>
      </trkpt>
      <trkpt lat="40.82573" lon="0.3673">
        <ele>937.4</ele>
        <time>2022-05-24 17:46:28</time>
      </trkpt>
      <trkpt lat="40.82572" lon="0.36728">
        <ele>937.6</ele>
        <time>2022-05-24 17:46:29</time>
      </trkpt>
      <trkpt lat="40.82571" lon="0.36727">
        <ele>937.8</ele>
        <time>2022-05-24 17:46:30</time>
      </trkpt>
      <trkpt lat="40.8257" lon="0.36725">
        <ele>937.8</ele>
        <time>2022-05-24 17:46:31</time>
      </trkpt>
      <trkpt lat="40.8257" lon="0.36723">
        <ele>938</ele>
        <time>2022-05-24 17:46:32</time>
      </trkpt>
      <trkpt lat="40.82569" lon="0.36721">
        <ele>938.2</ele>
        <time>2022-05-24 17:46:33</time>
      </trkpt>
      <trkpt lat="40.82568" lon="0.3672">
        <ele>938.4</ele>
        <time>2022-05-24 17:46:34</time>
      </trkpt>
      <trkpt lat="40.82566" lon="0.36719">
        <ele>938.4</ele>
        <time>2022-05-24 17:46:35</time>
      </trkpt>
      <trkpt lat="40.82565" lon="0.36717">
        <ele>938.6</ele>
        <time>2022-05-24 17:46:36</time>
      </trkpt>
      <trkpt lat="40.82564" lon="0.36716">
        <ele>938.8</ele>
        <time>2022-05-24 17:46:37</time>
      </trkpt>
      <trkpt lat="40.82563" lon="0.36714">
        <ele>939.2</ele>
        <time>2022-05-24 17:46:38</time>
      </trkpt>
      <trkpt lat="40.82562" lon="0.36713">
        <ele>939.6</ele>
        <time>2022-05-24 17:46:39</time>
      </trkpt>
      <trkpt lat="40.82561" lon="0.36711">
        <ele>939.8</ele>
        <time>2022-05-24 17:46:40</time>
      </trkpt>
      <trkpt lat="40.8256" lon="0.36709">
        <ele>940.4</ele>
        <time>2022-05-24 17:46:41</time>
      </trkpt>
      <trkpt lat="40.82559" lon="0.36708">
        <ele>940.4</ele>
        <time>2022-05-24 17:46:42</time>
      </trkpt>
      <trkpt lat="40.82558" lon="0.36706">
        <ele>940</ele>
        <time>2022-05-24 17:46:43</time>
      </trkpt>
      <trkpt lat="40.82557" lon="0.36706">
        <ele>939.8</ele>
        <time>2022-05-24 17:46:44</time>
      </trkpt>
      <trkpt lat="40.82555" lon="0.36705">
        <ele>939.8</ele>
        <time>2022-05-24 17:46:45</time>
      </trkpt>
      <trkpt lat="40.82554" lon="0.36703">
        <ele>940</ele>
        <time>2022-05-24 17:46:46</time>
      </trkpt>
      <trkpt lat="40.82553" lon="0.36702">
        <ele>940.4</ele>
        <time>2022-05-24 17:46:47</time>
      </trkpt>
      <trkpt lat="40.82552" lon="0.36701">
        <ele>940.6</ele>
        <time>2022-05-24 17:46:48</time>
      </trkpt>
      <trkpt lat="40.82551" lon="0.367">
        <ele>940.6</ele>
        <time>2022-05-24 17:46:49</time>
      </trkpt>
      <trkpt lat="40.8255" lon="0.36697">
        <ele>940.8</ele>
        <time>2022-05-24 17:46:50</time>
      </trkpt>
      <trkpt lat="40.82549" lon="0.36696">
        <ele>941</ele>
        <time>2022-05-24 17:46:51</time>
      </trkpt>
      <trkpt lat="40.82548" lon="0.36694">
        <ele>941.2</ele>
        <time>2022-05-24 17:46:52</time>
      </trkpt>
      <trkpt lat="40.82547" lon="0.36693">
        <ele>941.6</ele>
        <time>2022-05-24 17:46:53</time>
      </trkpt>
      <trkpt lat="40.82545" lon="0.36691">
        <ele>941.8</ele>
        <time>2022-05-24 17:46:54</time>
      </trkpt>
      <trkpt lat="40.82544" lon="0.3669">
        <ele>941.8</ele>
        <time>2022-05-24 17:46:55</time>
      </trkpt>
      <trkpt lat="40.82544" lon="0.36688">
        <ele>942</ele>
        <time>2022-05-24 17:46:56</time>
      </trkpt>
      <trkpt lat="40.82543" lon="0.36687">
        <ele>942.2</ele>
        <time>2022-05-24 17:46:57</time>
      </trkpt>
      <trkpt lat="40.82542" lon="0.36685">
        <ele>942</ele>
        <time>2022-05-24 17:46:58</time>
      </trkpt>
      <trkpt lat="40.82541" lon="0.36684">
        <ele>942</ele>
        <time>2022-05-24 17:46:59</time>
      </trkpt>
      <trkpt lat="40.82539" lon="0.36682">
        <ele>942</ele>
        <time>2022-05-24 17:47:00</time>
      </trkpt>
      <trkpt lat="40.82538" lon="0.36681">
        <ele>942.2</ele>
        <time>2022-05-24 17:47:01</time>
      </trkpt>
      <trkpt lat="40.82537" lon="0.36679">
        <ele>942.6</ele>
        <time>2022-05-24 17:47:02</time>
      </trkpt>
      <trkpt lat="40.82536" lon="0.36677">
        <ele>943</ele>
        <time>2022-05-24 17:47:03</time>
      </trkpt>
      <trkpt lat="40.82534" lon="0.36676">
        <ele>943.2</ele>
        <time>2022-05-24 17:47:04</time>
      </trkpt>
      <trkpt lat="40.82533" lon="0.36674">
        <ele>943.4</ele>
        <time>2022-05-24 17:47:05</time>
      </trkpt>
      <trkpt lat="40.82532" lon="0.36673">
        <ele>943.4</ele>
        <time>2022-05-24 17:47:06</time>
      </trkpt>
      <trkpt lat="40.82531" lon="0.36672">
        <ele>943.6</ele>
        <time>2022-05-24 17:47:07</time>
      </trkpt>
      <trkpt lat="40.8253" lon="0.3667">
        <ele>944</ele>
        <time>2022-05-24 17:47:08</time>
      </trkpt>
      <trkpt lat="40.82528" lon="0.36669">
        <ele>944</ele>
        <time>2022-05-24 17:47:09</time>
      </trkpt>
      <trkpt lat="40.82527" lon="0.36667">
        <ele>944.4</ele>
        <time>2022-05-24 17:47:10</time>
      </trkpt>
      <trkpt lat="40.82526" lon="0.36666">
        <ele>944.6</ele>
        <time>2022-05-24 17:47:11</time>
      </trkpt>
      <trkpt lat="40.82524" lon="0.36665">
        <ele>944.8</ele>
        <time>2022-05-24 17:47:12</time>
      </trkpt>
      <trkpt lat="40.82523" lon="0.36664">
        <ele>945</ele>
        <time>2022-05-24 17:47:13</time>
      </trkpt>
      <trkpt lat="40.82521" lon="0.36663">
        <ele>945.4</ele>
        <time>2022-05-24 17:47:14</time>
      </trkpt>
      <trkpt lat="40.8252" lon="0.36662">
        <ele>945.8</ele>
        <time>2022-05-24 17:47:15</time>
      </trkpt>
      <trkpt lat="40.82519" lon="0.3666">
        <ele>946.2</ele>
        <time>2022-05-24 17:47:16</time>
      </trkpt>
      <trkpt lat="40.82517" lon="0.36659">
        <ele>946.4</ele>
        <time>2022-05-24 17:47:17</time>
      </trkpt>
      <trkpt lat="40.82516" lon="0.36658">
        <ele>946.6</ele>
        <time>2022-05-24 17:47:18</time>
      </trkpt>
      <trkpt lat="40.82515" lon="0.36656">
        <ele>946.8</ele>
        <time>2022-05-24 17:47:19</time>
      </trkpt>
      <trkpt lat="40.82513" lon="0.36654">
        <ele>947</ele>
        <time>2022-05-24 17:47:20</time>
      </trkpt>
      <trkpt lat="40.82512" lon="0.36653">
        <ele>947.2</ele>
        <time>2022-05-24 17:47:21</time>
      </trkpt>
      <trkpt lat="40.8251" lon="0.36652">
        <ele>947.4</ele>
        <time>2022-05-24 17:47:22</time>
      </trkpt>
      <trkpt lat="40.82509" lon="0.36651">
        <ele>947.8</ele>
        <time>2022-05-24 17:47:23</time>
      </trkpt>
      <trkpt lat="40.82508" lon="0.3665">
        <ele>947.8</ele>
        <time>2022-05-24 17:47:24</time>
      </trkpt>
      <trkpt lat="40.82506" lon="0.36649">
        <ele>948</ele>
        <time>2022-05-24 17:47:25</time>
      </trkpt>
      <trkpt lat="40.82505" lon="0.36647">
        <ele>948.2</ele>
        <time>2022-05-24 17:47:26</time>
      </trkpt>
      <trkpt lat="40.82504" lon="0.36646">
        <ele>948.6</ele>
        <time>2022-05-24 17:47:27</time>
      </trkpt>
      <trkpt lat="40.82502" lon="0.36645">
        <ele>948.8</ele>
        <time>2022-05-24 17:47:28</time>
      </trkpt>
      <trkpt lat="40.825" lon="0.36644">
        <ele>949</ele>
        <time>2022-05-24 17:47:29</time>
      </trkpt>
      <trkpt lat="40.82499" lon="0.36643">
        <ele>949.4</ele>
        <time>2022-05-24 17:47:30</time>
      </trkpt>
      <trkpt lat="40.82497" lon="0.36642">
        <ele>949.6</ele>
        <time>2022-05-24 17:47:31</time>
      </trkpt>
      <trkpt lat="40.82496" lon="0.3664">
        <ele>949.8</ele>
        <time>2022-05-24 17:47:32</time>
      </trkpt>
      <trkpt lat="40.82494" lon="0.36639">
        <ele>950</ele>
        <time>2022-05-24 17:47:33</time>
      </trkpt>
      <trkpt lat="40.82493" lon="0.36638">
        <ele>950</ele>
        <time>2022-05-24 17:47:34</time>
      </trkpt>
      <trkpt lat="40.82491" lon="0.36637">
        <ele>950.2</ele>
        <time>2022-05-24 17:47:35</time>
      </trkpt>
      <trkpt lat="40.8249" lon="0.36636">
        <ele>950.2</ele>
        <time>2022-05-24 17:47:36</time>
      </trkpt>
      <trkpt lat="40.82489" lon="0.36636">
        <ele>950.4</ele>
        <time>2022-05-24 17:47:37</time>
      </trkpt>
      <trkpt lat="40.82487" lon="0.36635">
        <ele>950.6</ele>
        <time>2022-05-24 17:47:38</time>
      </trkpt>
      <trkpt lat="40.82485" lon="0.36633">
        <ele>950.8</ele>
        <time>2022-05-24 17:47:39</time>
      </trkpt>
      <trkpt lat="40.82483" lon="0.36632">
        <ele>951</ele>
        <time>2022-05-24 17:47:40</time>
      </trkpt>
      <trkpt lat="40.82482" lon="0.36631">
        <ele>951.2</ele>
        <time>2022-05-24 17:47:41</time>
      </trkpt>
      <trkpt lat="40.82481" lon="0.36631">
        <ele>951.4</ele>
        <time>2022-05-24 17:47:42</time>
      </trkpt>
      <trkpt lat="40.82479" lon="0.3663">
        <ele>951.8</ele>
        <time>2022-05-24 17:47:43</time>
      </trkpt>
      <trkpt lat="40.82477" lon="0.36629">
        <ele>952.2</ele>
        <time>2022-05-24 17:47:44</time>
      </trkpt>
      <trkpt lat="40.82475" lon="0.36629">
        <ele>952.4</ele>
        <time>2022-05-24 17:47:45</time>
      </trkpt>
      <trkpt lat="40.82474" lon="0.36628">
        <ele>952.4</ele>
        <time>2022-05-24 17:47:46</time>
      </trkpt>
      <trkpt lat="40.82473" lon="0.36627">
        <ele>952.4</ele>
        <time>2022-05-24 17:47:47</time>
      </trkpt>
      <trkpt lat="40.82471" lon="0.36625">
        <ele>952.8</ele>
        <time>2022-05-24 17:47:48</time>
      </trkpt>
      <trkpt lat="40.8247" lon="0.36625">
        <ele>953</ele>
        <time>2022-05-24 17:47:49</time>
      </trkpt>
      <trkpt lat="40.82468" lon="0.36623">
        <ele>953.2</ele>
        <time>2022-05-24 17:47:50</time>
      </trkpt>
      <trkpt lat="40.82467" lon="0.36622">
        <ele>953.4</ele>
        <time>2022-05-24 17:47:51</time>
      </trkpt>
      <trkpt lat="40.82466" lon="0.36622">
        <ele>953.6</ele>
        <time>2022-05-24 17:47:52</time>
      </trkpt>
      <trkpt lat="40.82464" lon="0.36622">
        <ele>953.8</ele>
        <time>2022-05-24 17:47:53</time>
      </trkpt>
      <trkpt lat="40.82462" lon="0.36621">
        <ele>954</ele>
        <time>2022-05-24 17:47:54</time>
      </trkpt>
      <trkpt lat="40.82461" lon="0.36621">
        <ele>954.2</ele>
        <time>2022-05-24 17:47:55</time>
      </trkpt>
      <trkpt lat="40.8246" lon="0.36619">
        <ele>954.4</ele>
        <time>2022-05-24 17:47:56</time>
      </trkpt>
      <trkpt lat="40.82459" lon="0.36617">
        <ele>954.6</ele>
        <time>2022-05-24 17:47:57</time>
      </trkpt>
      <trkpt lat="40.82459" lon="0.36616">
        <ele>954.8</ele>
        <time>2022-05-24 17:47:58</time>
      </trkpt>
      <trkpt lat="40.82459" lon="0.36614">
        <ele>955</ele>
        <time>2022-05-24 17:47:59</time>
      </trkpt>
      <trkpt lat="40.8246" lon="0.36612">
        <ele>955.4</ele>
        <time>2022-05-24 17:48:00</time>
      </trkpt>
      <trkpt lat="40.8246" lon="0.3661">
        <ele>955.6</ele>
        <time>2022-05-24 17:48:01</time>
      </trkpt>
      <trkpt lat="40.82461" lon="0.36609">
        <ele>955.8</ele>
        <time>2022-05-24 17:48:02</time>
      </trkpt>
      <trkpt lat="40.82462" lon="0.36608">
        <ele>956</ele>
        <time>2022-05-24 17:48:03</time>
      </trkpt>
      <trkpt lat="40.82464" lon="0.36607">
        <ele>956</ele>
        <time>2022-05-24 17:48:04</time>
      </trkpt>
      <trkpt lat="40.82466" lon="0.36608">
        <ele>956.2</ele>
        <time>2022-05-24 17:48:05</time>
      </trkpt>
      <trkpt lat="40.82467" lon="0.36608">
        <ele>956.6</ele>
        <time>2022-05-24 17:48:06</time>
      </trkpt>
      <trkpt lat="40.82469" lon="0.36608">
        <ele>956.8</ele>
        <time>2022-05-24 17:48:07</time>
      </trkpt>
      <trkpt lat="40.8247" lon="0.36609">
        <ele>957</ele>
        <time>2022-05-24 17:48:08</time>
      </trkpt>
      <trkpt lat="40.82471" lon="0.3661">
        <ele>957.2</ele>
        <time>2022-05-24 17:48:09</time>
      </trkpt>
      <trkpt lat="40.82473" lon="0.36611">
        <ele>957.4</ele>
        <time>2022-05-24 17:48:10</time>
      </trkpt>
      <trkpt lat="40.82474" lon="0.36611">
        <ele>957.4</ele>
        <time>2022-05-24 17:48:11</time>
      </trkpt>
      <trkpt lat="40.82476" lon="0.36612">
        <ele>957.8</ele>
        <time>2022-05-24 17:48:12</time>
      </trkpt>
      <trkpt lat="40.82478" lon="0.36612">
        <ele>957.8</ele>
        <time>2022-05-24 17:48:13</time>
      </trkpt>
      <trkpt lat="40.82479" lon="0.36613">
        <ele>958</ele>
        <time>2022-05-24 17:48:14</time>
      </trkpt>
      <trkpt lat="40.82481" lon="0.36614">
        <ele>958.2</ele>
        <time>2022-05-24 17:48:15</time>
      </trkpt>
      <trkpt lat="40.82483" lon="0.36614">
        <ele>958.4</ele>
        <time>2022-05-24 17:48:16</time>
      </trkpt>
      <trkpt lat="40.82484" lon="0.36615">
        <ele>958.6</ele>
        <time>2022-05-24 17:48:17</time>
      </trkpt>
      <trkpt lat="40.82486" lon="0.36616">
        <ele>958.8</ele>
        <time>2022-05-24 17:48:18</time>
      </trkpt>
      <trkpt lat="40.82487" lon="0.36618">
        <ele>959</ele>
        <time>2022-05-24 17:48:19</time>
      </trkpt>
      <trkpt lat="40.82489" lon="0.36618">
        <ele>959.2</ele>
        <time>2022-05-24 17:48:20</time>
      </trkpt>
      <trkpt lat="40.8249" lon="0.36619">
        <ele>959.4</ele>
        <time>2022-05-24 17:48:21</time>
      </trkpt>
      <trkpt lat="40.82492" lon="0.3662">
        <ele>959.6</ele>
        <time>2022-05-24 17:48:22</time>
      </trkpt>
      <trkpt lat="40.82494" lon="0.3662">
        <ele>959.6</ele>
        <time>2022-05-24 17:48:23</time>
      </trkpt>
      <trkpt lat="40.82495" lon="0.3662">
        <ele>959.6</ele>
        <time>2022-05-24 17:48:24</time>
      </trkpt>
      <trkpt lat="40.82497" lon="0.36621">
        <ele>959.8</ele>
        <time>2022-05-24 17:48:25</time>
      </trkpt>
      <trkpt lat="40.82499" lon="0.36622">
        <ele>959.8</ele>
        <time>2022-05-24 17:48:26</time>
      </trkpt>
      <trkpt lat="40.825" lon="0.36622">
        <ele>960</ele>
        <time>2022-05-24 17:48:27</time>
      </trkpt>
      <trkpt lat="40.82502" lon="0.36623">
        <ele>960.2</ele>
        <time>2022-05-24 17:48:28</time>
      </trkpt>
      <trkpt lat="40.82504" lon="0.36623">
        <ele>960.4</ele>
        <time>2022-05-24 17:48:29</time>
      </trkpt>
      <trkpt lat="40.82505" lon="0.36623">
        <ele>960.6</ele>
        <time>2022-05-24 17:48:30</time>
      </trkpt>
      <trkpt lat="40.82507" lon="0.36624">
        <ele>960.8</ele>
        <time>2022-05-24 17:48:31</time>
      </trkpt>
      <trkpt lat="40.82508" lon="0.36624">
        <ele>961</ele>
        <time>2022-05-24 17:48:32</time>
      </trkpt>
      <trkpt lat="40.8251" lon="0.36624">
        <ele>961.2</ele>
        <time>2022-05-24 17:48:33</time>
      </trkpt>
      <trkpt lat="40.82512" lon="0.36625">
        <ele>961.6</ele>
        <time>2022-05-24 17:48:34</time>
      </trkpt>
      <trkpt lat="40.82514" lon="0.36625">
        <ele>961.8</ele>
        <time>2022-05-24 17:48:35</time>
      </trkpt>
      <trkpt lat="40.82516" lon="0.36625">
        <ele>962.2</ele>
        <time>2022-05-24 17:48:36</time>
      </trkpt>
      <trkpt lat="40.82517" lon="0.36626">
        <ele>962.4</ele>
        <time>2022-05-24 17:48:37</time>
      </trkpt>
      <trkpt lat="40.82519" lon="0.36626">
        <ele>962.6</ele>
        <time>2022-05-24 17:48:38</time>
      </trkpt>
      <trkpt lat="40.8252" lon="0.36627">
        <ele>962.6</ele>
        <time>2022-05-24 17:48:39</time>
      </trkpt>
      <trkpt lat="40.82523" lon="0.36628">
        <ele>962.8</ele>
        <time>2022-05-24 17:48:40</time>
      </trkpt>
      <trkpt lat="40.82524" lon="0.36628">
        <ele>962.8</ele>
        <time>2022-05-24 17:48:41</time>
      </trkpt>
      <trkpt lat="40.82526" lon="0.36629">
        <ele>962.8</ele>
        <time>2022-05-24 17:48:42</time>
      </trkpt>
      <trkpt lat="40.82528" lon="0.36629">
        <ele>962.6</ele>
        <time>2022-05-24 17:48:43</time>
      </trkpt>
      <trkpt lat="40.82529" lon="0.3663">
        <ele>962.6</ele>
        <time>2022-05-24 17:48:44</time>
      </trkpt>
      <trkpt lat="40.82531" lon="0.36631">
        <ele>962.6</ele>
        <time>2022-05-24 17:48:45</time>
      </trkpt>
      <trkpt lat="40.82532" lon="0.36632">
        <ele>962.6</ele>
        <time>2022-05-24 17:48:46</time>
      </trkpt>
      <trkpt lat="40.82534" lon="0.36633">
        <ele>962.6</ele>
        <time>2022-05-24 17:48:47</time>
      </trkpt>
      <trkpt lat="40.82536" lon="0.36633">
        <ele>962.6</ele>
        <time>2022-05-24 17:48:48</time>
      </trkpt>
      <trkpt lat="40.82538" lon="0.36634">
        <ele>962.8</ele>
        <time>2022-05-24 17:48:49</time>
      </trkpt>
      <trkpt lat="40.82539" lon="0.36634">
        <ele>963</ele>
        <time>2022-05-24 17:48:50</time>
      </trkpt>
      <trkpt lat="40.82542" lon="0.36635">
        <ele>963.2</ele>
        <time>2022-05-24 17:48:51</time>
      </trkpt>
      <trkpt lat="40.82544" lon="0.36635">
        <ele>963.4</ele>
        <time>2022-05-24 17:48:52</time>
      </trkpt>
      <trkpt lat="40.82546" lon="0.36637">
        <ele>963.6</ele>
        <time>2022-05-24 17:48:53</time>
      </trkpt>
      <trkpt lat="40.82547" lon="0.36638">
        <ele>964</ele>
        <time>2022-05-24 17:48:54</time>
      </trkpt>
      <trkpt lat="40.82549" lon="0.36639">
        <ele>964.2</ele>
        <time>2022-05-24 17:48:55</time>
      </trkpt>
      <trkpt lat="40.82552" lon="0.3664">
        <ele>964.6</ele>
        <time>2022-05-24 17:48:56</time>
      </trkpt>
      <trkpt lat="40.82554" lon="0.36641">
        <ele>964.8</ele>
        <time>2022-05-24 17:48:57</time>
      </trkpt>
      <trkpt lat="40.82556" lon="0.36642">
        <ele>965</ele>
        <time>2022-05-24 17:48:58</time>
      </trkpt>
      <trkpt lat="40.82558" lon="0.36644">
        <ele>965.2</ele>
        <time>2022-05-24 17:48:59</time>
      </trkpt>
      <trkpt lat="40.82559" lon="0.36645">
        <ele>965.2</ele>
        <time>2022-05-24 17:49:00</time>
      </trkpt>
      <trkpt lat="40.82562" lon="0.36646">
        <ele>965.4</ele>
        <time>2022-05-24 17:49:01</time>
      </trkpt>
      <trkpt lat="40.82564" lon="0.36648">
        <ele>965.6</ele>
        <time>2022-05-24 17:49:02</time>
      </trkpt>
      <trkpt lat="40.82566" lon="0.36649">
        <ele>965.6</ele>
        <time>2022-05-24 17:49:03</time>
      </trkpt>
      <trkpt lat="40.82567" lon="0.3665">
        <ele>966</ele>
        <time>2022-05-24 17:49:04</time>
      </trkpt>
      <trkpt lat="40.8257" lon="0.36652">
        <ele>966.4</ele>
        <time>2022-05-24 17:49:05</time>
      </trkpt>
      <trkpt lat="40.82572" lon="0.36654">
        <ele>967</ele>
        <time>2022-05-24 17:49:06</time>
      </trkpt>
      <trkpt lat="40.82574" lon="0.36655">
        <ele>967.4</ele>
        <time>2022-05-24 17:49:07</time>
      </trkpt>
      <trkpt lat="40.82575" lon="0.36657">
        <ele>967.6</ele>
        <time>2022-05-24 17:49:08</time>
      </trkpt>
      <trkpt lat="40.82577" lon="0.36658">
        <ele>967.6</ele>
        <time>2022-05-24 17:49:09</time>
      </trkpt>
      <trkpt lat="40.8258" lon="0.3666">
        <ele>967.4</ele>
        <time>2022-05-24 17:49:10</time>
      </trkpt>
      <trkpt lat="40.82582" lon="0.36661">
        <ele>967.4</ele>
        <time>2022-05-24 17:49:11</time>
      </trkpt>
      <trkpt lat="40.82584" lon="0.36663">
        <ele>967.4</ele>
        <time>2022-05-24 17:49:12</time>
      </trkpt>
      <trkpt lat="40.82585" lon="0.36664">
        <ele>967.4</ele>
        <time>2022-05-24 17:49:13</time>
      </trkpt>
      <trkpt lat="40.82588" lon="0.36666">
        <ele>967.6</ele>
        <time>2022-05-24 17:49:14</time>
      </trkpt>
      <trkpt lat="40.8259" lon="0.36668">
        <ele>967.6</ele>
        <time>2022-05-24 17:49:15</time>
      </trkpt>
      <trkpt lat="40.82593" lon="0.36669">
        <ele>967.8</ele>
        <time>2022-05-24 17:49:16</time>
      </trkpt>
      <trkpt lat="40.82594" lon="0.3667">
        <ele>968</ele>
        <time>2022-05-24 17:49:17</time>
      </trkpt>
      <trkpt lat="40.82597" lon="0.36672">
        <ele>968</ele>
        <time>2022-05-24 17:49:18</time>
      </trkpt>
      <trkpt lat="40.82599" lon="0.36674">
        <ele>968.2</ele>
        <time>2022-05-24 17:49:19</time>
      </trkpt>
      <trkpt lat="40.82601" lon="0.36676">
        <ele>968.4</ele>
        <time>2022-05-24 17:49:20</time>
      </trkpt>
      <trkpt lat="40.82602" lon="0.36677">
        <ele>968.6</ele>
        <time>2022-05-24 17:49:21</time>
      </trkpt>
      <trkpt lat="40.82605" lon="0.36679">
        <ele>968.8</ele>
        <time>2022-05-24 17:49:22</time>
      </trkpt>
      <trkpt lat="40.82607" lon="0.36681">
        <ele>969</ele>
        <time>2022-05-24 17:49:23</time>
      </trkpt>
      <trkpt lat="40.82609" lon="0.36683">
        <ele>969.2</ele>
        <time>2022-05-24 17:49:24</time>
      </trkpt>
      <trkpt lat="40.8261" lon="0.36684">
        <ele>969.4</ele>
        <time>2022-05-24 17:49:25</time>
      </trkpt>
      <trkpt lat="40.82613" lon="0.36686">
        <ele>969.6</ele>
        <time>2022-05-24 17:49:26</time>
      </trkpt>
      <trkpt lat="40.82615" lon="0.36688">
        <ele>969.8</ele>
        <time>2022-05-24 17:49:27</time>
      </trkpt>
      <trkpt lat="40.82616" lon="0.3669">
        <ele>970</ele>
        <time>2022-05-24 17:49:28</time>
      </trkpt>
      <trkpt lat="40.82618" lon="0.36691">
        <ele>970.2</ele>
        <time>2022-05-24 17:49:29</time>
      </trkpt>
      <trkpt lat="40.8262" lon="0.36694">
        <ele>970.2</ele>
        <time>2022-05-24 17:49:30</time>
      </trkpt>
      <trkpt lat="40.82622" lon="0.36695">
        <ele>970.4</ele>
        <time>2022-05-24 17:49:31</time>
      </trkpt>
      <trkpt lat="40.82624" lon="0.36697">
        <ele>970.6</ele>
        <time>2022-05-24 17:49:32</time>
      </trkpt>
      <trkpt lat="40.82625" lon="0.36698">
        <ele>970.8</ele>
        <time>2022-05-24 17:49:33</time>
      </trkpt>
      <trkpt lat="40.82628" lon="0.36699">
        <ele>971.2</ele>
        <time>2022-05-24 17:49:34</time>
      </trkpt>
      <trkpt lat="40.82631" lon="0.36701">
        <ele>971.4</ele>
        <time>2022-05-24 17:49:35</time>
      </trkpt>
      <trkpt lat="40.82632" lon="0.36703">
        <ele>971.6</ele>
        <time>2022-05-24 17:49:36</time>
      </trkpt>
      <trkpt lat="40.82634" lon="0.36705">
        <ele>971.8</ele>
        <time>2022-05-24 17:49:37</time>
      </trkpt>
      <trkpt lat="40.82636" lon="0.36708">
        <ele>972</ele>
        <time>2022-05-24 17:49:38</time>
      </trkpt>
      <trkpt lat="40.82638" lon="0.3671">
        <ele>972.2</ele>
        <time>2022-05-24 17:49:39</time>
      </trkpt>
      <trkpt lat="40.8264" lon="0.36712">
        <ele>972.2</ele>
        <time>2022-05-24 17:49:40</time>
      </trkpt>
      <trkpt lat="40.82642" lon="0.36713">
        <ele>972.4</ele>
        <time>2022-05-24 17:49:41</time>
      </trkpt>
      <trkpt lat="40.82644" lon="0.36716">
        <ele>972.4</ele>
        <time>2022-05-24 17:49:42</time>
      </trkpt>
      <trkpt lat="40.82647" lon="0.36718">
        <ele>972.6</ele>
        <time>2022-05-24 17:49:43</time>
      </trkpt>
      <trkpt lat="40.82648" lon="0.3672">
        <ele>972.6</ele>
        <time>2022-05-24 17:49:44</time>
      </trkpt>
      <trkpt lat="40.8265" lon="0.36721">
        <ele>972.8</ele>
        <time>2022-05-24 17:49:45</time>
      </trkpt>
      <trkpt lat="40.82652" lon="0.36723">
        <ele>972.8</ele>
        <time>2022-05-24 17:49:46</time>
      </trkpt>
      <trkpt lat="40.82655" lon="0.36724">
        <ele>973</ele>
        <time>2022-05-24 17:49:47</time>
      </trkpt>
      <trkpt lat="40.82657" lon="0.36724">
        <ele>973</ele>
        <time>2022-05-24 17:49:48</time>
      </trkpt>
      <trkpt lat="40.82658" lon="0.36724">
        <ele>973.2</ele>
        <time>2022-05-24 17:49:49</time>
      </trkpt>
      <trkpt lat="40.82661" lon="0.36723">
        <ele>973.4</ele>
        <time>2022-05-24 17:49:50</time>
      </trkpt>
      <trkpt lat="40.82662" lon="0.36721">
        <ele>973.8</ele>
        <time>2022-05-24 17:49:51</time>
      </trkpt>
      <trkpt lat="40.82663" lon="0.36719">
        <ele>974</ele>
        <time>2022-05-24 17:49:52</time>
      </trkpt>
      <trkpt lat="40.82663" lon="0.36717">
        <ele>974.4</ele>
        <time>2022-05-24 17:49:53</time>
      </trkpt>
      <trkpt lat="40.82663" lon="0.36714">
        <ele>974.6</ele>
        <time>2022-05-24 17:49:54</time>
      </trkpt>
      <trkpt lat="40.82662" lon="0.36713">
        <ele>975</ele>
        <time>2022-05-24 17:49:55</time>
      </trkpt>
      <trkpt lat="40.8266" lon="0.3671">
        <ele>975.4</ele>
        <time>2022-05-24 17:49:56</time>
      </trkpt>
      <trkpt lat="40.82658" lon="0.36708">
        <ele>975.6</ele>
        <time>2022-05-24 17:49:57</time>
      </trkpt>
      <trkpt lat="40.82657" lon="0.36706">
        <ele>975.8</ele>
        <time>2022-05-24 17:49:58</time>
      </trkpt>
      <trkpt lat="40.82656" lon="0.36704">
        <ele>976</ele>
        <time>2022-05-24 17:49:59</time>
      </trkpt>
      <trkpt lat="40.82655" lon="0.36703">
        <ele>976.2</ele>
        <time>2022-05-24 17:50:00</time>
      </trkpt>
      <trkpt lat="40.82653" lon="0.367">
        <ele>976.2</ele>
        <time>2022-05-24 17:50:01</time>
      </trkpt>
      <trkpt lat="40.82651" lon="0.36699">
        <ele>976.2</ele>
        <time>2022-05-24 17:50:02</time>
      </trkpt>
      <trkpt lat="40.8265" lon="0.36697">
        <ele>976.4</ele>
        <time>2022-05-24 17:50:03</time>
      </trkpt>
      <trkpt lat="40.82648" lon="0.36695">
        <ele>976.4</ele>
        <time>2022-05-24 17:50:04</time>
      </trkpt>
      <trkpt lat="40.82647" lon="0.36694">
        <ele>976.2</ele>
        <time>2022-05-24 17:50:05</time>
      </trkpt>
      <trkpt lat="40.82645" lon="0.36691">
        <ele>976.4</ele>
        <time>2022-05-24 17:50:06</time>
      </trkpt>
      <trkpt lat="40.82644" lon="0.36689">
        <ele>976.4</ele>
        <time>2022-05-24 17:50:07</time>
      </trkpt>
      <trkpt lat="40.82642" lon="0.36687">
        <ele>976.4</ele>
        <time>2022-05-24 17:50:08</time>
      </trkpt>
      <trkpt lat="40.82641" lon="0.36685">
        <ele>976.4</ele>
        <time>2022-05-24 17:50:09</time>
      </trkpt>
      <trkpt lat="40.8264" lon="0.36684">
        <ele>976.6</ele>
        <time>2022-05-24 17:50:10</time>
      </trkpt>
      <trkpt lat="40.82638" lon="0.36682">
        <ele>976.8</ele>
        <time>2022-05-24 17:50:11</time>
      </trkpt>
      <trkpt lat="40.82636" lon="0.3668">
        <ele>976.8</ele>
        <time>2022-05-24 17:50:12</time>
      </trkpt>
      <trkpt lat="40.82634" lon="0.36679">
        <ele>977.2</ele>
        <time>2022-05-24 17:50:13</time>
      </trkpt>
      <trkpt lat="40.82632" lon="0.36678">
        <ele>977.4</ele>
        <time>2022-05-24 17:50:14</time>
      </trkpt>
      <trkpt lat="40.82631" lon="0.36677">
        <ele>977.8</ele>
        <time>2022-05-24 17:50:15</time>
      </trkpt>
      <trkpt lat="40.82629" lon="0.36674">
        <ele>977.8</ele>
        <time>2022-05-24 17:50:16</time>
      </trkpt>
      <trkpt lat="40.82627" lon="0.36673">
        <ele>977.8</ele>
        <time>2022-05-24 17:50:17</time>
      </trkpt>
      <trkpt lat="40.82626" lon="0.36671">
        <ele>978</ele>
        <time>2022-05-24 17:50:18</time>
      </trkpt>
      <trkpt lat="40.82624" lon="0.36669">
        <ele>978.2</ele>
        <time>2022-05-24 17:50:19</time>
      </trkpt>
      <trkpt lat="40.82623" lon="0.36668">
        <ele>978.4</ele>
        <time>2022-05-24 17:50:20</time>
      </trkpt>
      <trkpt lat="40.8262" lon="0.36666">
        <ele>978.6</ele>
        <time>2022-05-24 17:50:21</time>
      </trkpt>
      <trkpt lat="40.82619" lon="0.36664">
        <ele>978.8</ele>
        <time>2022-05-24 17:50:22</time>
      </trkpt>
      <trkpt lat="40.82618" lon="0.36662">
        <ele>978.8</ele>
        <time>2022-05-24 17:50:23</time>
      </trkpt>
      <trkpt lat="40.82616" lon="0.3666">
        <ele>978.8</ele>
        <time>2022-05-24 17:50:24</time>
      </trkpt>
      <trkpt lat="40.82615" lon="0.36658">
        <ele>978.8</ele>
        <time>2022-05-24 17:50:25</time>
      </trkpt>
      <trkpt lat="40.82613" lon="0.36656">
        <ele>978.8</ele>
        <time>2022-05-24 17:50:26</time>
      </trkpt>
      <trkpt lat="40.82611" lon="0.36655">
        <ele>978.8</ele>
        <time>2022-05-24 17:50:27</time>
      </trkpt>
      <trkpt lat="40.8261" lon="0.36653">
        <ele>979.2</ele>
        <time>2022-05-24 17:50:28</time>
      </trkpt>
      <trkpt lat="40.82608" lon="0.36652">
        <ele>979.6</ele>
        <time>2022-05-24 17:50:29</time>
      </trkpt>
      <trkpt lat="40.82607" lon="0.3665">
        <ele>980</ele>
        <time>2022-05-24 17:50:30</time>
      </trkpt>
      <trkpt lat="40.82604" lon="0.36648">
        <ele>980.4</ele>
        <time>2022-05-24 17:50:31</time>
      </trkpt>
      <trkpt lat="40.82603" lon="0.36646">
        <ele>980.6</ele>
        <time>2022-05-24 17:50:32</time>
      </trkpt>
      <trkpt lat="40.82601" lon="0.36645">
        <ele>980.8</ele>
        <time>2022-05-24 17:50:33</time>
      </trkpt>
      <trkpt lat="40.826" lon="0.36644">
        <ele>981</ele>
        <time>2022-05-24 17:50:34</time>
      </trkpt>
      <trkpt lat="40.82598" lon="0.36642">
        <ele>981.4</ele>
        <time>2022-05-24 17:50:35</time>
      </trkpt>
      <trkpt lat="40.82596" lon="0.3664">
        <ele>981.6</ele>
        <time>2022-05-24 17:50:36</time>
      </trkpt>
      <trkpt lat="40.82595" lon="0.36638">
        <ele>982</ele>
        <time>2022-05-24 17:50:37</time>
      </trkpt>
      <trkpt lat="40.82593" lon="0.36636">
        <ele>982.2</ele>
        <time>2022-05-24 17:50:38</time>
      </trkpt>
      <trkpt lat="40.82592" lon="0.36634">
        <ele>982.2</ele>
        <time>2022-05-24 17:50:39</time>
      </trkpt>
      <trkpt lat="40.82591" lon="0.36633">
        <ele>982.2</ele>
        <time>2022-05-24 17:50:40</time>
      </trkpt>
      <trkpt lat="40.82589" lon="0.36631">
        <ele>982.4</ele>
        <time>2022-05-24 17:50:41</time>
      </trkpt>
      <trkpt lat="40.82588" lon="0.3663">
        <ele>982.4</ele>
        <time>2022-05-24 17:50:42</time>
      </trkpt>
      <trkpt lat="40.82586" lon="0.36628">
        <ele>982.4</ele>
        <time>2022-05-24 17:50:43</time>
      </trkpt>
      <trkpt lat="40.82585" lon="0.36627">
        <ele>982.4</ele>
        <time>2022-05-24 17:50:44</time>
      </trkpt>
      <trkpt lat="40.82584" lon="0.36626">
        <ele>982.4</ele>
        <time>2022-05-24 17:50:45</time>
      </trkpt>
      <trkpt lat="40.82583" lon="0.36625">
        <ele>982.4</ele>
        <time>2022-05-24 17:50:46</time>
      </trkpt>
      <trkpt lat="40.82581" lon="0.36623">
        <ele>982.2</ele>
        <time>2022-05-24 17:50:47</time>
      </trkpt>
      <trkpt lat="40.8258" lon="0.36621">
        <ele>982.4</ele>
        <time>2022-05-24 17:50:48</time>
      </trkpt>
      <trkpt lat="40.82579" lon="0.3662">
        <ele>982.6</ele>
        <time>2022-05-24 17:50:49</time>
      </trkpt>
      <trkpt lat="40.82577" lon="0.36619">
        <ele>982.8</ele>
        <time>2022-05-24 17:50:50</time>
      </trkpt>
      <trkpt lat="40.82576" lon="0.36617">
        <ele>983.2</ele>
        <time>2022-05-24 17:50:51</time>
      </trkpt>
      <trkpt lat="40.82574" lon="0.36617">
        <ele>983.6</ele>
        <time>2022-05-24 17:50:52</time>
      </trkpt>
      <trkpt lat="40.82573" lon="0.36615">
        <ele>983.8</ele>
        <time>2022-05-24 17:50:53</time>
      </trkpt>
      <trkpt lat="40.82572" lon="0.36613">
        <ele>984</ele>
        <time>2022-05-24 17:50:54</time>
      </trkpt>
      <trkpt lat="40.82571" lon="0.36611">
        <ele>984.4</ele>
        <time>2022-05-24 17:50:55</time>
      </trkpt>
      <trkpt lat="40.8257" lon="0.36609">
        <ele>984.8</ele>
        <time>2022-05-24 17:50:56</time>
      </trkpt>
      <trkpt lat="40.82569" lon="0.36607">
        <ele>985</ele>
        <time>2022-05-24 17:50:57</time>
      </trkpt>
      <trkpt lat="40.82569" lon="0.36605">
        <ele>985.4</ele>
        <time>2022-05-24 17:50:58</time>
      </trkpt>
      <trkpt lat="40.8257" lon="0.36603">
        <ele>986</ele>
        <time>2022-05-24 17:50:59</time>
      </trkpt>
      <trkpt lat="40.82571" lon="0.36602">
        <ele>986.4</ele>
        <time>2022-05-24 17:51:00</time>
      </trkpt>
      <trkpt lat="40.82573" lon="0.36601">
        <ele>986.8</ele>
        <time>2022-05-24 17:51:01</time>
      </trkpt>
      <trkpt lat="40.82574" lon="0.36602">
        <ele>987.2</ele>
        <time>2022-05-24 17:51:02</time>
      </trkpt>
      <trkpt lat="40.82576" lon="0.36603">
        <ele>987.2</ele>
        <time>2022-05-24 17:51:03</time>
      </trkpt>
      <trkpt lat="40.82578" lon="0.36605">
        <ele>987.4</ele>
        <time>2022-05-24 17:51:04</time>
      </trkpt>
      <trkpt lat="40.82579" lon="0.36606">
        <ele>987.6</ele>
        <time>2022-05-24 17:51:05</time>
      </trkpt>
      <trkpt lat="40.82582" lon="0.36608">
        <ele>987.6</ele>
        <time>2022-05-24 17:51:06</time>
      </trkpt>
      <trkpt lat="40.82584" lon="0.3661">
        <ele>987.6</ele>
        <time>2022-05-24 17:51:07</time>
      </trkpt>
      <trkpt lat="40.82585" lon="0.36612">
        <ele>987.8</ele>
        <time>2022-05-24 17:51:08</time>
      </trkpt>
      <trkpt lat="40.82587" lon="0.36614">
        <ele>987.8</ele>
        <time>2022-05-24 17:51:09</time>
      </trkpt>
      <trkpt lat="40.82589" lon="0.36616">
        <ele>987.8</ele>
        <time>2022-05-24 17:51:10</time>
      </trkpt>
      <trkpt lat="40.82591" lon="0.36618">
        <ele>987.8</ele>
        <time>2022-05-24 17:51:11</time>
      </trkpt>
      <trkpt lat="40.82593" lon="0.36619">
        <ele>987.8</ele>
        <time>2022-05-24 17:51:12</time>
      </trkpt>
      <trkpt lat="40.82594" lon="0.3662">
        <ele>987.8</ele>
        <time>2022-05-24 17:51:13</time>
      </trkpt>
      <trkpt lat="40.82597" lon="0.36622">
        <ele>987.8</ele>
        <time>2022-05-24 17:51:14</time>
      </trkpt>
      <trkpt lat="40.82598" lon="0.36624">
        <ele>987.8</ele>
        <time>2022-05-24 17:51:15</time>
      </trkpt>
      <trkpt lat="40.826" lon="0.36626">
        <ele>987.8</ele>
        <time>2022-05-24 17:51:16</time>
      </trkpt>
      <trkpt lat="40.82602" lon="0.36628">
        <ele>987.8</ele>
        <time>2022-05-24 17:51:17</time>
      </trkpt>
      <trkpt lat="40.82604" lon="0.36629">
        <ele>988</ele>
        <time>2022-05-24 17:51:18</time>
      </trkpt>
      <trkpt lat="40.82606" lon="0.36631">
        <ele>988</ele>
        <time>2022-05-24 17:51:19</time>
      </trkpt>
      <trkpt lat="40.82608" lon="0.36633">
        <ele>988.2</ele>
        <time>2022-05-24 17:51:20</time>
      </trkpt>
      <trkpt lat="40.8261" lon="0.36634">
        <ele>988.2</ele>
        <time>2022-05-24 17:51:21</time>
      </trkpt>
      <trkpt lat="40.82613" lon="0.36636">
        <ele>988.4</ele>
        <time>2022-05-24 17:51:22</time>
      </trkpt>
      <trkpt lat="40.82614" lon="0.36637">
        <ele>988.6</ele>
        <time>2022-05-24 17:51:23</time>
      </trkpt>
      <trkpt lat="40.82617" lon="0.36639">
        <ele>988.8</ele>
        <time>2022-05-24 17:51:24</time>
      </trkpt>
      <trkpt lat="40.82619" lon="0.36641">
        <ele>989</ele>
        <time>2022-05-24 17:51:25</time>
      </trkpt>
      <trkpt lat="40.82621" lon="0.36642">
        <ele>989.2</ele>
        <time>2022-05-24 17:51:26</time>
      </trkpt>
      <trkpt lat="40.82622" lon="0.36643">
        <ele>989.2</ele>
        <time>2022-05-24 17:51:27</time>
      </trkpt>
      <trkpt lat="40.82624" lon="0.36645">
        <ele>989.4</ele>
        <time>2022-05-24 17:51:28</time>
      </trkpt>
      <trkpt lat="40.82626" lon="0.36646">
        <ele>989.6</ele>
        <time>2022-05-24 17:51:29</time>
      </trkpt>
      <trkpt lat="40.82628" lon="0.36647">
        <ele>989.8</ele>
        <time>2022-05-24 17:51:30</time>
      </trkpt>
      <trkpt lat="40.8263" lon="0.36649">
        <ele>989.8</ele>
        <time>2022-05-24 17:51:31</time>
      </trkpt>
      <trkpt lat="40.82631" lon="0.3665">
        <ele>990</ele>
        <time>2022-05-24 17:51:32</time>
      </trkpt>
      <trkpt lat="40.82634" lon="0.36651">
        <ele>990.2</ele>
        <time>2022-05-24 17:51:33</time>
      </trkpt>
      <trkpt lat="40.82636" lon="0.36653">
        <ele>990.4</ele>
        <time>2022-05-24 17:51:34</time>
      </trkpt>
      <trkpt lat="40.82638" lon="0.36654">
        <ele>990.6</ele>
        <time>2022-05-24 17:51:35</time>
      </trkpt>
      <trkpt lat="40.82639" lon="0.36656">
        <ele>990.8</ele>
        <time>2022-05-24 17:51:36</time>
      </trkpt>
      <trkpt lat="40.8264" lon="0.36657">
        <ele>991</ele>
        <time>2022-05-24 17:51:37</time>
      </trkpt>
      <trkpt lat="40.82643" lon="0.36659">
        <ele>991.2</ele>
        <time>2022-05-24 17:51:38</time>
      </trkpt>
      <trkpt lat="40.82645" lon="0.36661">
        <ele>991.2</ele>
        <time>2022-05-24 17:51:39</time>
      </trkpt>
      <trkpt lat="40.82647" lon="0.36662">
        <ele>991.4</ele>
        <time>2022-05-24 17:51:40</time>
      </trkpt>
      <trkpt lat="40.82648" lon="0.36664">
        <ele>991.6</ele>
        <time>2022-05-24 17:51:41</time>
      </trkpt>
      <trkpt lat="40.82649" lon="0.36665">
        <ele>991.8</ele>
        <time>2022-05-24 17:51:42</time>
      </trkpt>
      <trkpt lat="40.82652" lon="0.36667">
        <ele>991.8</ele>
        <time>2022-05-24 17:51:43</time>
      </trkpt>
      <trkpt lat="40.82654" lon="0.36668">
        <ele>992</ele>
        <time>2022-05-24 17:51:44</time>
      </trkpt>
      <trkpt lat="40.82656" lon="0.36669">
        <ele>992</ele>
        <time>2022-05-24 17:51:45</time>
      </trkpt>
      <trkpt lat="40.82658" lon="0.3667">
        <ele>992.2</ele>
        <time>2022-05-24 17:51:46</time>
      </trkpt>
      <trkpt lat="40.82659" lon="0.36669">
        <ele>992.4</ele>
        <time>2022-05-24 17:51:47</time>
      </trkpt>
      <trkpt lat="40.82662" lon="0.36668">
        <ele>992.6</ele>
        <time>2022-05-24 17:51:48</time>
      </trkpt>
      <trkpt lat="40.82663" lon="0.36667">
        <ele>992.8</ele>
        <time>2022-05-24 17:51:49</time>
      </trkpt>
      <trkpt lat="40.82664" lon="0.36665">
        <ele>992.8</ele>
        <time>2022-05-24 17:51:50</time>
      </trkpt>
      <trkpt lat="40.82664" lon="0.36663">
        <ele>993</ele>
        <time>2022-05-24 17:51:51</time>
      </trkpt>
      <trkpt lat="40.82664" lon="0.36661">
        <ele>993.2</ele>
        <time>2022-05-24 17:51:52</time>
      </trkpt>
      <trkpt lat="40.82663" lon="0.36659">
        <ele>993.2</ele>
        <time>2022-05-24 17:51:53</time>
      </trkpt>
      <trkpt lat="40.82661" lon="0.36656">
        <ele>993.2</ele>
        <time>2022-05-24 17:51:54</time>
      </trkpt>
      <trkpt lat="40.8266" lon="0.36655">
        <ele>993.4</ele>
        <time>2022-05-24 17:51:55</time>
      </trkpt>
      <trkpt lat="40.82658" lon="0.36653">
        <ele>993.4</ele>
        <time>2022-05-24 17:51:56</time>
      </trkpt>
      <trkpt lat="40.82656" lon="0.36651">
        <ele>993.6</ele>
        <time>2022-05-24 17:51:57</time>
      </trkpt>
      <trkpt lat="40.82655" lon="0.3665">
        <ele>993.6</ele>
        <time>2022-05-24 17:51:58</time>
      </trkpt>
      <trkpt lat="40.82653" lon="0.36647">
        <ele>993.8</ele>
        <time>2022-05-24 17:51:59</time>
      </trkpt>
      <trkpt lat="40.82652" lon="0.36645">
        <ele>994.2</ele>
        <time>2022-05-24 17:52:00</time>
      </trkpt>
      <trkpt lat="40.82651" lon="0.36643">
        <ele>994.4</ele>
        <time>2022-05-24 17:52:01</time>
      </trkpt>
      <trkpt lat="40.8265" lon="0.36641">
        <ele>994.6</ele>
        <time>2022-05-24 17:52:02</time>
      </trkpt>
      <trkpt lat="40.82648" lon="0.3664">
        <ele>994.8</ele>
        <time>2022-05-24 17:52:03</time>
      </trkpt>
      <trkpt lat="40.82646" lon="0.36637">
        <ele>995.2</ele>
        <time>2022-05-24 17:52:04</time>
      </trkpt>
      <trkpt lat="40.82644" lon="0.36635">
        <ele>995.4</ele>
        <time>2022-05-24 17:52:05</time>
      </trkpt>
      <trkpt lat="40.82643" lon="0.36633">
        <ele>995.6</ele>
        <time>2022-05-24 17:52:06</time>
      </trkpt>
      <trkpt lat="40.82642" lon="0.36632">
        <ele>996</ele>
        <time>2022-05-24 17:52:07</time>
      </trkpt>
      <trkpt lat="40.8264" lon="0.3663">
        <ele>996.2</ele>
        <time>2022-05-24 17:52:08</time>
      </trkpt>
      <trkpt lat="40.82638" lon="0.36628">
        <ele>996.4</ele>
        <time>2022-05-24 17:52:09</time>
      </trkpt>
      <trkpt lat="40.82636" lon="0.36626">
        <ele>996.8</ele>
        <time>2022-05-24 17:52:10</time>
      </trkpt>
      <trkpt lat="40.82634" lon="0.36624">
        <ele>997</ele>
        <time>2022-05-24 17:52:11</time>
      </trkpt>
      <trkpt lat="40.82633" lon="0.36623">
        <ele>997.4</ele>
        <time>2022-05-24 17:52:12</time>
      </trkpt>
      <trkpt lat="40.82631" lon="0.36621">
        <ele>998</ele>
        <time>2022-05-24 17:52:13</time>
      </trkpt>
      <trkpt lat="40.82629" lon="0.36619">
        <ele>998.4</ele>
        <time>2022-05-24 17:52:14</time>
      </trkpt>
      <trkpt lat="40.82628" lon="0.36617">
        <ele>998.8</ele>
        <time>2022-05-24 17:52:15</time>
      </trkpt>
      <trkpt lat="40.82627" lon="0.36616">
        <ele>999</ele>
        <time>2022-05-24 17:52:16</time>
      </trkpt>
      <trkpt lat="40.82626" lon="0.36615">
        <ele>999.2</ele>
        <time>2022-05-24 17:52:17</time>
      </trkpt>
      <trkpt lat="40.82623" lon="0.36613">
        <ele>999.4</ele>
        <time>2022-05-24 17:52:18</time>
      </trkpt>
      <trkpt lat="40.82622" lon="0.36611">
        <ele>999.6</ele>
        <time>2022-05-24 17:52:19</time>
      </trkpt>
      <trkpt lat="40.8262" lon="0.36609">
        <ele>1000</ele>
        <time>2022-05-24 17:52:20</time>
      </trkpt>
      <trkpt lat="40.82619" lon="0.36607">
        <ele>1000.2</ele>
        <time>2022-05-24 17:52:21</time>
      </trkpt>
      <trkpt lat="40.82618" lon="0.36606">
        <ele>1000.4</ele>
        <time>2022-05-24 17:52:22</time>
      </trkpt>
      <trkpt lat="40.82616" lon="0.36604">
        <ele>1000.8</ele>
        <time>2022-05-24 17:52:23</time>
      </trkpt>
      <trkpt lat="40.82614" lon="0.36602">
        <ele>1001</ele>
        <time>2022-05-24 17:52:24</time>
      </trkpt>
      <trkpt lat="40.82613" lon="0.366">
        <ele>1001.4</ele>
        <time>2022-05-24 17:52:25</time>
      </trkpt>
      <trkpt lat="40.82611" lon="0.36598">
        <ele>1001.6</ele>
        <time>2022-05-24 17:52:26</time>
      </trkpt>
      <trkpt lat="40.8261" lon="0.36596">
        <ele>1002</ele>
        <time>2022-05-24 17:52:27</time>
      </trkpt>
      <trkpt lat="40.82608" lon="0.36593">
        <ele>1002.2</ele>
        <time>2022-05-24 17:52:28</time>
      </trkpt>
      <trkpt lat="40.82607" lon="0.36591">
        <ele>1002.4</ele>
        <time>2022-05-24 17:52:29</time>
      </trkpt>
      <trkpt lat="40.82605" lon="0.36589">
        <ele>1002.6</ele>
        <time>2022-05-24 17:52:30</time>
      </trkpt>
      <trkpt lat="40.82604" lon="0.36587">
        <ele>1002.8</ele>
        <time>2022-05-24 17:52:31</time>
      </trkpt>
      <trkpt lat="40.82603" lon="0.36586">
        <ele>1003.2</ele>
        <time>2022-05-24 17:52:32</time>
      </trkpt>
      <trkpt lat="40.82602" lon="0.36584">
        <ele>1003.2</ele>
        <time>2022-05-24 17:52:33</time>
      </trkpt>
      <trkpt lat="40.826" lon="0.36583">
        <ele>1003.4</ele>
        <time>2022-05-24 17:52:34</time>
      </trkpt>
      <trkpt lat="40.82599" lon="0.36581">
        <ele>1003.6</ele>
        <time>2022-05-24 17:52:35</time>
      </trkpt>
      <trkpt lat="40.82598" lon="0.3658">
        <ele>1004</ele>
        <time>2022-05-24 17:52:36</time>
      </trkpt>
      <trkpt lat="40.82597" lon="0.36579">
        <ele>1004.2</ele>
        <time>2022-05-24 17:52:37</time>
      </trkpt>
      <trkpt lat="40.82595" lon="0.36578">
        <ele>1004.4</ele>
        <time>2022-05-24 17:52:38</time>
      </trkpt>
      <trkpt lat="40.82594" lon="0.36576">
        <ele>1004.6</ele>
        <time>2022-05-24 17:52:39</time>
      </trkpt>
      <trkpt lat="40.82592" lon="0.36575">
        <ele>1004.8</ele>
        <time>2022-05-24 17:52:40</time>
      </trkpt>
      <trkpt lat="40.82591" lon="0.36574">
        <ele>1005</ele>
        <time>2022-05-24 17:52:41</time>
      </trkpt>
      <trkpt lat="40.8259" lon="0.36573">
        <ele>1005.2</ele>
        <time>2022-05-24 17:52:42</time>
      </trkpt>
      <trkpt lat="40.82589" lon="0.36571">
        <ele>1005.6</ele>
        <time>2022-05-24 17:52:43</time>
      </trkpt>
      <trkpt lat="40.82588" lon="0.3657">
        <ele>1005.8</ele>
        <time>2022-05-24 17:52:44</time>
      </trkpt>
      <trkpt lat="40.82586" lon="0.36569">
        <ele>1006</ele>
        <time>2022-05-24 17:52:45</time>
      </trkpt>
      <trkpt lat="40.82585" lon="0.36567">
        <ele>1006.2</ele>
        <time>2022-05-24 17:52:46</time>
      </trkpt>
      <trkpt lat="40.82584" lon="0.36566">
        <ele>1006.4</ele>
        <time>2022-05-24 17:52:47</time>
      </trkpt>
      <trkpt lat="40.82583" lon="0.36566">
        <ele>1006.6</ele>
        <time>2022-05-24 17:52:48</time>
      </trkpt>
      <trkpt lat="40.82581" lon="0.36564">
        <ele>1006.8</ele>
        <time>2022-05-24 17:52:49</time>
      </trkpt>
      <trkpt lat="40.8258" lon="0.36563">
        <ele>1006.8</ele>
        <time>2022-05-24 17:52:50</time>
      </trkpt>
      <trkpt lat="40.82579" lon="0.36562">
        <ele>1007</ele>
        <time>2022-05-24 17:52:51</time>
      </trkpt>
      <trkpt lat="40.82577" lon="0.36561">
        <ele>1007.2</ele>
        <time>2022-05-24 17:52:52</time>
      </trkpt>
      <trkpt lat="40.82576" lon="0.3656">
        <ele>1007.4</ele>
        <time>2022-05-24 17:52:53</time>
      </trkpt>
      <trkpt lat="40.82574" lon="0.36559">
        <ele>1007.6</ele>
        <time>2022-05-24 17:52:54</time>
      </trkpt>
      <trkpt lat="40.82573" lon="0.36558">
        <ele>1007.8</ele>
        <time>2022-05-24 17:52:55</time>
      </trkpt>
      <trkpt lat="40.82572" lon="0.36557">
        <ele>1007.8</ele>
        <time>2022-05-24 17:52:56</time>
      </trkpt>
      <trkpt lat="40.82571" lon="0.36556">
        <ele>1008</ele>
        <time>2022-05-24 17:52:57</time>
      </trkpt>
      <trkpt lat="40.82569" lon="0.36555">
        <ele>1008.2</ele>
        <time>2022-05-24 17:52:58</time>
      </trkpt>
      <trkpt lat="40.82567" lon="0.36554">
        <ele>1008.4</ele>
        <time>2022-05-24 17:52:59</time>
      </trkpt>
      <trkpt lat="40.82566" lon="0.36553">
        <ele>1008.6</ele>
        <time>2022-05-24 17:53:00</time>
      </trkpt>
      <trkpt lat="40.82564" lon="0.36552">
        <ele>1008.8</ele>
        <time>2022-05-24 17:53:01</time>
      </trkpt>
      <trkpt lat="40.82563" lon="0.36551">
        <ele>1009</ele>
        <time>2022-05-24 17:53:02</time>
      </trkpt>
      <trkpt lat="40.82561" lon="0.3655">
        <ele>1009.2</ele>
        <time>2022-05-24 17:53:03</time>
      </trkpt>
      <trkpt lat="40.8256" lon="0.36549">
        <ele>1009.4</ele>
        <time>2022-05-24 17:53:04</time>
      </trkpt>
      <trkpt lat="40.82558" lon="0.36548">
        <ele>1009.6</ele>
        <time>2022-05-24 17:53:05</time>
      </trkpt>
      <trkpt lat="40.82557" lon="0.36547">
        <ele>1009.6</ele>
        <time>2022-05-24 17:53:06</time>
      </trkpt>
      <trkpt lat="40.82555" lon="0.36546">
        <ele>1009.8</ele>
        <time>2022-05-24 17:53:07</time>
      </trkpt>
      <trkpt lat="40.82553" lon="0.36545">
        <ele>1009.8</ele>
        <time>2022-05-24 17:53:08</time>
      </trkpt>
      <trkpt lat="40.82552" lon="0.36544">
        <ele>1010</ele>
        <time>2022-05-24 17:53:09</time>
      </trkpt>
      <trkpt lat="40.8255" lon="0.36543">
        <ele>1010</ele>
        <time>2022-05-24 17:53:10</time>
      </trkpt>
      <trkpt lat="40.82549" lon="0.36542">
        <ele>1010.2</ele>
        <time>2022-05-24 17:53:11</time>
      </trkpt>
      <trkpt lat="40.82547" lon="0.36541">
        <ele>1010.4</ele>
        <time>2022-05-24 17:53:12</time>
      </trkpt>
      <trkpt lat="40.82545" lon="0.3654">
        <ele>1010.6</ele>
        <time>2022-05-24 17:53:13</time>
      </trkpt>
      <trkpt lat="40.82544" lon="0.36539">
        <ele>1010.8</ele>
        <time>2022-05-24 17:53:14</time>
      </trkpt>
      <trkpt lat="40.82542" lon="0.36538">
        <ele>1011</ele>
        <time>2022-05-24 17:53:15</time>
      </trkpt>
      <trkpt lat="40.8254" lon="0.36538">
        <ele>1011.2</ele>
        <time>2022-05-24 17:53:16</time>
      </trkpt>
      <trkpt lat="40.82538" lon="0.36537">
        <ele>1011.4</ele>
        <time>2022-05-24 17:53:17</time>
      </trkpt>
      <trkpt lat="40.82536" lon="0.36536">
        <ele>1011.6</ele>
        <time>2022-05-24 17:53:18</time>
      </trkpt>
      <trkpt lat="40.82534" lon="0.36535">
        <ele>1011.8</ele>
        <time>2022-05-24 17:53:19</time>
      </trkpt>
      <trkpt lat="40.82532" lon="0.36535">
        <ele>1011.8</ele>
        <time>2022-05-24 17:53:20</time>
      </trkpt>
      <trkpt lat="40.82531" lon="0.36534">
        <ele>1012</ele>
        <time>2022-05-24 17:53:21</time>
      </trkpt>
      <trkpt lat="40.82529" lon="0.36534">
        <ele>1012</ele>
        <time>2022-05-24 17:53:22</time>
      </trkpt>
      <trkpt lat="40.82527" lon="0.36534">
        <ele>1012.2</ele>
        <time>2022-05-24 17:53:23</time>
      </trkpt>
      <trkpt lat="40.82525" lon="0.36534">
        <ele>1012.4</ele>
        <time>2022-05-24 17:53:24</time>
      </trkpt>
      <trkpt lat="40.82523" lon="0.36533">
        <ele>1012.2</ele>
        <time>2022-05-24 17:53:25</time>
      </trkpt>
      <trkpt lat="40.82521" lon="0.36533">
        <ele>1012.4</ele>
        <time>2022-05-24 17:53:26</time>
      </trkpt>
      <trkpt lat="40.82519" lon="0.36533">
        <ele>1012.4</ele>
        <time>2022-05-24 17:53:27</time>
      </trkpt>
      <trkpt lat="40.82517" lon="0.36533">
        <ele>1012.4</ele>
        <time>2022-05-24 17:53:28</time>
      </trkpt>
      <trkpt lat="40.82515" lon="0.36532">
        <ele>1012.2</ele>
        <time>2022-05-24 17:53:29</time>
      </trkpt>
      <trkpt lat="40.82513" lon="0.36532">
        <ele>1012.4</ele>
        <time>2022-05-24 17:53:30</time>
      </trkpt>
      <trkpt lat="40.82511" lon="0.36531">
        <ele>1012.4</ele>
        <time>2022-05-24 17:53:31</time>
      </trkpt>
      <trkpt lat="40.82509" lon="0.3653">
        <ele>1012.6</ele>
        <time>2022-05-24 17:53:32</time>
      </trkpt>
      <trkpt lat="40.82508" lon="0.36529">
        <ele>1012.4</ele>
        <time>2022-05-24 17:53:33</time>
      </trkpt>
      <trkpt lat="40.82506" lon="0.36528">
        <ele>1012.4</ele>
        <time>2022-05-24 17:53:34</time>
      </trkpt>
      <trkpt lat="40.82504" lon="0.36528">
        <ele>1012.6</ele>
        <time>2022-05-24 17:53:35</time>
      </trkpt>
      <trkpt lat="40.82502" lon="0.36527">
        <ele>1013</ele>
        <time>2022-05-24 17:53:36</time>
      </trkpt>
      <trkpt lat="40.825" lon="0.36525">
        <ele>1013.2</ele>
        <time>2022-05-24 17:53:37</time>
      </trkpt>
      <trkpt lat="40.82499" lon="0.36524">
        <ele>1013.4</ele>
        <time>2022-05-24 17:53:38</time>
      </trkpt>
      <trkpt lat="40.82497" lon="0.36523">
        <ele>1013.6</ele>
        <time>2022-05-24 17:53:39</time>
      </trkpt>
      <trkpt lat="40.82495" lon="0.36522">
        <ele>1013.6</ele>
        <time>2022-05-24 17:53:40</time>
      </trkpt>
      <trkpt lat="40.82493" lon="0.36521">
        <ele>1013.8</ele>
        <time>2022-05-24 17:53:41</time>
      </trkpt>
      <trkpt lat="40.82491" lon="0.3652">
        <ele>1014</ele>
        <time>2022-05-24 17:53:42</time>
      </trkpt>
      <trkpt lat="40.8249" lon="0.36519">
        <ele>1014.2</ele>
        <time>2022-05-24 17:53:43</time>
      </trkpt>
      <trkpt lat="40.82488" lon="0.36518">
        <ele>1014.4</ele>
        <time>2022-05-24 17:53:44</time>
      </trkpt>
      <trkpt lat="40.82487" lon="0.36517">
        <ele>1014.4</ele>
        <time>2022-05-24 17:53:45</time>
      </trkpt>
      <trkpt lat="40.82485" lon="0.36515">
        <ele>1014.6</ele>
        <time>2022-05-24 17:53:46</time>
      </trkpt>
      <trkpt lat="40.82483" lon="0.36515">
        <ele>1014.8</ele>
        <time>2022-05-24 17:53:47</time>
      </trkpt>
      <trkpt lat="40.82482" lon="0.36514">
        <ele>1014.8</ele>
        <time>2022-05-24 17:53:48</time>
      </trkpt>
      <trkpt lat="40.8248" lon="0.36513">
        <ele>1015</ele>
        <time>2022-05-24 17:53:49</time>
      </trkpt>
      <trkpt lat="40.82478" lon="0.36512">
        <ele>1015.2</ele>
        <time>2022-05-24 17:53:50</time>
      </trkpt>
      <trkpt lat="40.82476" lon="0.36511">
        <ele>1015.4</ele>
        <time>2022-05-24 17:53:51</time>
      </trkpt>
      <trkpt lat="40.82475" lon="0.3651">
        <ele>1015.6</ele>
        <time>2022-05-24 17:53:52</time>
      </trkpt>
      <trkpt lat="40.82473" lon="0.36509">
        <ele>1015.6</ele>
        <time>2022-05-24 17:53:53</time>
      </trkpt>
      <trkpt lat="40.82471" lon="0.36508">
        <ele>1016</ele>
        <time>2022-05-24 17:53:54</time>
      </trkpt>
      <trkpt lat="40.8247" lon="0.36507">
        <ele>1016.2</ele>
        <time>2022-05-24 17:53:55</time>
      </trkpt>
      <trkpt lat="40.82468" lon="0.36505">
        <ele>1016.6</ele>
        <time>2022-05-24 17:53:56</time>
      </trkpt>
      <trkpt lat="40.82467" lon="0.36504">
        <ele>1016.8</ele>
        <time>2022-05-24 17:53:57</time>
      </trkpt>
      <trkpt lat="40.82465" lon="0.36503">
        <ele>1017</ele>
        <time>2022-05-24 17:53:58</time>
      </trkpt>
      <trkpt lat="40.82463" lon="0.36502">
        <ele>1017</ele>
        <time>2022-05-24 17:53:59</time>
      </trkpt>
      <trkpt lat="40.82462" lon="0.36501">
        <ele>1016.8</ele>
        <time>2022-05-24 17:54:00</time>
      </trkpt>
      <trkpt lat="40.8246" lon="0.36499">
        <ele>1017</ele>
        <time>2022-05-24 17:54:01</time>
      </trkpt>
      <trkpt lat="40.82459" lon="0.36498">
        <ele>1017.4</ele>
        <time>2022-05-24 17:54:02</time>
      </trkpt>
      <trkpt lat="40.82458" lon="0.36497">
        <ele>1017.8</ele>
        <time>2022-05-24 17:54:03</time>
      </trkpt>
      <trkpt lat="40.82456" lon="0.36496">
        <ele>1018</ele>
        <time>2022-05-24 17:54:04</time>
      </trkpt>
      <trkpt lat="40.82455" lon="0.36495">
        <ele>1018</ele>
        <time>2022-05-24 17:54:05</time>
      </trkpt>
      <trkpt lat="40.82453" lon="0.36494">
        <ele>1018.2</ele>
        <time>2022-05-24 17:54:06</time>
      </trkpt>
      <trkpt lat="40.82452" lon="0.36493">
        <ele>1018.6</ele>
        <time>2022-05-24 17:54:07</time>
      </trkpt>
      <trkpt lat="40.8245" lon="0.36492">
        <ele>1018.8</ele>
        <time>2022-05-24 17:54:08</time>
      </trkpt>
      <trkpt lat="40.82449" lon="0.36492">
        <ele>1019</ele>
        <time>2022-05-24 17:54:09</time>
      </trkpt>
      <trkpt lat="40.82447" lon="0.36491">
        <ele>1019.4</ele>
        <time>2022-05-24 17:54:10</time>
      </trkpt>
      <trkpt lat="40.82445" lon="0.3649">
        <ele>1019.8</ele>
        <time>2022-05-24 17:54:11</time>
      </trkpt>
      <trkpt lat="40.82443" lon="0.3649">
        <ele>1020</ele>
        <time>2022-05-24 17:54:12</time>
      </trkpt>
      <trkpt lat="40.82441" lon="0.36491">
        <ele>1020</ele>
        <time>2022-05-24 17:54:13</time>
      </trkpt>
      <trkpt lat="40.82439" lon="0.36491">
        <ele>1020</ele>
        <time>2022-05-24 17:54:14</time>
      </trkpt>
      <trkpt lat="40.82437" lon="0.36491">
        <ele>1020</ele>
        <time>2022-05-24 17:54:15</time>
      </trkpt>
      <trkpt lat="40.82435" lon="0.36492">
        <ele>1020</ele>
        <time>2022-05-24 17:54:16</time>
      </trkpt>
      <trkpt lat="40.82433" lon="0.36493">
        <ele>1020</ele>
        <time>2022-05-24 17:54:17</time>
      </trkpt>
      <trkpt lat="40.82431" lon="0.36493">
        <ele>1019.8</ele>
        <time>2022-05-24 17:54:18</time>
      </trkpt>
      <trkpt lat="40.8243" lon="0.36494">
        <ele>1019.8</ele>
        <time>2022-05-24 17:54:19</time>
      </trkpt>
      <trkpt lat="40.82428" lon="0.36494">
        <ele>1019.6</ele>
        <time>2022-05-24 17:54:20</time>
      </trkpt>
      <trkpt lat="40.82427" lon="0.36495">
        <ele>1019.8</ele>
        <time>2022-05-24 17:54:21</time>
      </trkpt>
      <trkpt lat="40.82425" lon="0.36495">
        <ele>1019.8</ele>
        <time>2022-05-24 17:54:22</time>
      </trkpt>
      <trkpt lat="40.82423" lon="0.36495">
        <ele>1020</ele>
        <time>2022-05-24 17:54:23</time>
      </trkpt>
      <trkpt lat="40.82421" lon="0.36496">
        <ele>1020</ele>
        <time>2022-05-24 17:54:24</time>
      </trkpt>
      <trkpt lat="40.82419" lon="0.36496">
        <ele>1020.4</ele>
        <time>2022-05-24 17:54:25</time>
      </trkpt>
      <trkpt lat="40.82418" lon="0.36496">
        <ele>1020.4</ele>
        <time>2022-05-24 17:54:26</time>
      </trkpt>
      <trkpt lat="40.82416" lon="0.36496">
        <ele>1020.6</ele>
        <time>2022-05-24 17:54:27</time>
      </trkpt>
      <trkpt lat="40.82414" lon="0.36497">
        <ele>1020.6</ele>
        <time>2022-05-24 17:54:28</time>
      </trkpt>
      <trkpt lat="40.82412" lon="0.36497">
        <ele>1020.8</ele>
        <time>2022-05-24 17:54:29</time>
      </trkpt>
      <trkpt lat="40.8241" lon="0.36496">
        <ele>1020.8</ele>
        <time>2022-05-24 17:54:30</time>
      </trkpt>
      <trkpt lat="40.82409" lon="0.36496">
        <ele>1021</ele>
        <time>2022-05-24 17:54:31</time>
      </trkpt>
      <trkpt lat="40.82407" lon="0.36496">
        <ele>1021</ele>
        <time>2022-05-24 17:54:32</time>
      </trkpt>
      <trkpt lat="40.82405" lon="0.36496">
        <ele>1021</ele>
        <time>2022-05-24 17:54:33</time>
      </trkpt>
      <trkpt lat="40.82403" lon="0.36496">
        <ele>1021.2</ele>
        <time>2022-05-24 17:54:34</time>
      </trkpt>
      <trkpt lat="40.82401" lon="0.36496">
        <ele>1021.2</ele>
        <time>2022-05-24 17:54:35</time>
      </trkpt>
      <trkpt lat="40.824" lon="0.36496">
        <ele>1021.4</ele>
        <time>2022-05-24 17:54:36</time>
      </trkpt>
      <trkpt lat="40.82398" lon="0.36495">
        <ele>1021.6</ele>
        <time>2022-05-24 17:54:37</time>
      </trkpt>
      <trkpt lat="40.82396" lon="0.36494">
        <ele>1022</ele>
        <time>2022-05-24 17:54:38</time>
      </trkpt>
      <trkpt lat="40.82395" lon="0.36494">
        <ele>1022.2</ele>
        <time>2022-05-24 17:54:39</time>
      </trkpt>
      <trkpt lat="40.82393" lon="0.36493">
        <ele>1022.2</ele>
        <time>2022-05-24 17:54:40</time>
      </trkpt>
      <trkpt lat="40.82392" lon="0.36493">
        <ele>1022.4</ele>
        <time>2022-05-24 17:54:41</time>
      </trkpt>
      <trkpt lat="40.8239" lon="0.36493">
        <ele>1022.6</ele>
        <time>2022-05-24 17:54:42</time>
      </trkpt>
      <trkpt lat="40.82388" lon="0.36492">
        <ele>1022.6</ele>
        <time>2022-05-24 17:54:43</time>
      </trkpt>
      <trkpt lat="40.82387" lon="0.36492">
        <ele>1022.8</ele>
        <time>2022-05-24 17:54:44</time>
      </trkpt>
      <trkpt lat="40.82385" lon="0.36492">
        <ele>1023</ele>
        <time>2022-05-24 17:54:45</time>
      </trkpt>
      <trkpt lat="40.82383" lon="0.36491">
        <ele>1023.2</ele>
        <time>2022-05-24 17:54:46</time>
      </trkpt>
      <trkpt lat="40.82382" lon="0.36491">
        <ele>1023.4</ele>
        <time>2022-05-24 17:54:47</time>
      </trkpt>
      <trkpt lat="40.8238" lon="0.3649">
        <ele>1023.6</ele>
        <time>2022-05-24 17:54:48</time>
      </trkpt>
      <trkpt lat="40.82379" lon="0.36489">
        <ele>1023.6</ele>
        <time>2022-05-24 17:54:49</time>
      </trkpt>
      <trkpt lat="40.82378" lon="0.36489">
        <ele>1023.8</ele>
        <time>2022-05-24 17:54:50</time>
      </trkpt>
      <trkpt lat="40.82376" lon="0.36488">
        <ele>1024</ele>
        <time>2022-05-24 17:54:51</time>
      </trkpt>
      <trkpt lat="40.82375" lon="0.36487">
        <ele>1024.2</ele>
        <time>2022-05-24 17:54:52</time>
      </trkpt>
      <trkpt lat="40.82373" lon="0.36486">
        <ele>1024.4</ele>
        <time>2022-05-24 17:54:53</time>
      </trkpt>
      <trkpt lat="40.82372" lon="0.36486">
        <ele>1024.4</ele>
        <time>2022-05-24 17:54:54</time>
      </trkpt>
      <trkpt lat="40.8237" lon="0.36485">
        <ele>1024.4</ele>
        <time>2022-05-24 17:54:55</time>
      </trkpt>
      <trkpt lat="40.82369" lon="0.36485">
        <ele>1024.6</ele>
        <time>2022-05-24 17:54:56</time>
      </trkpt>
      <trkpt lat="40.82368" lon="0.36484">
        <ele>1024.8</ele>
        <time>2022-05-24 17:54:57</time>
      </trkpt>
      <trkpt lat="40.82366" lon="0.36483">
        <ele>1025</ele>
        <time>2022-05-24 17:54:58</time>
      </trkpt>
      <trkpt lat="40.82365" lon="0.36482">
        <ele>1025</ele>
        <time>2022-05-24 17:54:59</time>
      </trkpt>
      <trkpt lat="40.82363" lon="0.36482">
        <ele>1025.2</ele>
        <time>2022-05-24 17:55:00</time>
      </trkpt>
      <trkpt lat="40.82362" lon="0.36481">
        <ele>1025.4</ele>
        <time>2022-05-24 17:55:01</time>
      </trkpt>
      <trkpt lat="40.82361" lon="0.3648">
        <ele>1025.6</ele>
        <time>2022-05-24 17:55:02</time>
      </trkpt>
      <trkpt lat="40.82359" lon="0.36479">
        <ele>1026</ele>
        <time>2022-05-24 17:55:03</time>
      </trkpt>
      <trkpt lat="40.82358" lon="0.36478">
        <ele>1026</ele>
        <time>2022-05-24 17:55:04</time>
      </trkpt>
      <trkpt lat="40.82357" lon="0.36477">
        <ele>1026.2</ele>
        <time>2022-05-24 17:55:05</time>
      </trkpt>
      <trkpt lat="40.82355" lon="0.36476">
        <ele>1026.2</ele>
        <time>2022-05-24 17:55:06</time>
      </trkpt>
      <trkpt lat="40.82354" lon="0.36474">
        <ele>1026.2</ele>
        <time>2022-05-24 17:55:07</time>
      </trkpt>
      <trkpt lat="40.82353" lon="0.36473">
        <ele>1026.4</ele>
        <time>2022-05-24 17:55:08</time>
      </trkpt>
      <trkpt lat="40.82352" lon="0.36472">
        <ele>1026.4</ele>
        <time>2022-05-24 17:55:09</time>
      </trkpt>
      <trkpt lat="40.8235" lon="0.36471">
        <ele>1026.6</ele>
        <time>2022-05-24 17:55:10</time>
      </trkpt>
      <trkpt lat="40.82349" lon="0.3647">
        <ele>1026.6</ele>
        <time>2022-05-24 17:55:11</time>
      </trkpt>
      <trkpt lat="40.82347" lon="0.36469">
        <ele>1026.8</ele>
        <time>2022-05-24 17:55:12</time>
      </trkpt>
      <trkpt lat="40.82346" lon="0.36468">
        <ele>1026.8</ele>
        <time>2022-05-24 17:55:13</time>
      </trkpt>
      <trkpt lat="40.82344" lon="0.36466">
        <ele>1027.2</ele>
        <time>2022-05-24 17:55:14</time>
      </trkpt>
      <trkpt lat="40.82344" lon="0.36465">
        <ele>1027.4</ele>
        <time>2022-05-24 17:55:15</time>
      </trkpt>
      <trkpt lat="40.82343" lon="0.36463">
        <ele>1027.6</ele>
        <time>2022-05-24 17:55:16</time>
      </trkpt>
      <trkpt lat="40.82341" lon="0.36462">
        <ele>1027.8</ele>
        <time>2022-05-24 17:55:17</time>
      </trkpt>
      <trkpt lat="40.82341" lon="0.3646">
        <ele>1028</ele>
        <time>2022-05-24 17:55:18</time>
      </trkpt>
      <trkpt lat="40.82339" lon="0.36459">
        <ele>1028</ele>
        <time>2022-05-24 17:55:19</time>
      </trkpt>
      <trkpt lat="40.82338" lon="0.36458">
        <ele>1028.2</ele>
        <time>2022-05-24 17:55:20</time>
      </trkpt>
      <trkpt lat="40.82337" lon="0.36456">
        <ele>1028.4</ele>
        <time>2022-05-24 17:55:21</time>
      </trkpt>
      <trkpt lat="40.82336" lon="0.36455">
        <ele>1028.8</ele>
        <time>2022-05-24 17:55:22</time>
      </trkpt>
      <trkpt lat="40.82335" lon="0.36453">
        <ele>1029</ele>
        <time>2022-05-24 17:55:23</time>
      </trkpt>
      <trkpt lat="40.82334" lon="0.36452">
        <ele>1029.4</ele>
        <time>2022-05-24 17:55:24</time>
      </trkpt>
      <trkpt lat="40.82333" lon="0.36451">
        <ele>1029.6</ele>
        <time>2022-05-24 17:55:25</time>
      </trkpt>
      <trkpt lat="40.82331" lon="0.36449">
        <ele>1029.8</ele>
        <time>2022-05-24 17:55:26</time>
      </trkpt>
      <trkpt lat="40.8233" lon="0.36448">
        <ele>1030</ele>
        <time>2022-05-24 17:55:27</time>
      </trkpt>
      <trkpt lat="40.82329" lon="0.36447">
        <ele>1030.2</ele>
        <time>2022-05-24 17:55:28</time>
      </trkpt>
      <trkpt lat="40.82328" lon="0.36446">
        <ele>1030.4</ele>
        <time>2022-05-24 17:55:29</time>
      </trkpt>
      <trkpt lat="40.82327" lon="0.36444">
        <ele>1030.6</ele>
        <time>2022-05-24 17:55:30</time>
      </trkpt>
      <trkpt lat="40.82326" lon="0.36443">
        <ele>1030.8</ele>
        <time>2022-05-24 17:55:31</time>
      </trkpt>
      <trkpt lat="40.82325" lon="0.36442">
        <ele>1031</ele>
        <time>2022-05-24 17:55:32</time>
      </trkpt>
      <trkpt lat="40.82323" lon="0.3644">
        <ele>1031.2</ele>
        <time>2022-05-24 17:55:33</time>
      </trkpt>
      <trkpt lat="40.82322" lon="0.36439">
        <ele>1031.4</ele>
        <time>2022-05-24 17:55:34</time>
      </trkpt>
      <trkpt lat="40.82321" lon="0.36437">
        <ele>1031.4</ele>
        <time>2022-05-24 17:55:35</time>
      </trkpt>
      <trkpt lat="40.8232" lon="0.36436">
        <ele>1031.6</ele>
        <time>2022-05-24 17:55:36</time>
      </trkpt>
      <trkpt lat="40.82318" lon="0.36434">
        <ele>1031.6</ele>
        <time>2022-05-24 17:55:37</time>
      </trkpt>
      <trkpt lat="40.82317" lon="0.36433">
        <ele>1031.8</ele>
        <time>2022-05-24 17:55:38</time>
      </trkpt>
      <trkpt lat="40.82316" lon="0.36432">
        <ele>1032</ele>
        <time>2022-05-24 17:55:39</time>
      </trkpt>
      <trkpt lat="40.82315" lon="0.3643">
        <ele>1032.2</ele>
        <time>2022-05-24 17:55:40</time>
      </trkpt>
      <trkpt lat="40.82314" lon="0.36429">
        <ele>1032.4</ele>
        <time>2022-05-24 17:55:41</time>
      </trkpt>
      <trkpt lat="40.82312" lon="0.36427">
        <ele>1032.6</ele>
        <time>2022-05-24 17:55:42</time>
      </trkpt>
      <trkpt lat="40.8231" lon="0.36424">
        <ele>1032.6</ele>
        <time>2022-05-24 17:55:43</time>
      </trkpt>
      <trkpt lat="40.82309" lon="0.36421">
        <ele>1032.8</ele>
        <time>2022-05-24 17:55:44</time>
      </trkpt>
      <trkpt lat="40.82307" lon="0.36419">
        <ele>1033</ele>
        <time>2022-05-24 17:55:45</time>
      </trkpt>
      <trkpt lat="40.82305" lon="0.36419">
        <ele>1033.2</ele>
        <time>2022-05-24 17:55:46</time>
      </trkpt>
      <trkpt lat="40.82304" lon="0.36418">
        <ele>1033.2</ele>
        <time>2022-05-24 17:55:47</time>
      </trkpt>
      <trkpt lat="40.82302" lon="0.36416">
        <ele>1033.4</ele>
        <time>2022-05-24 17:55:48</time>
      </trkpt>
      <trkpt lat="40.82301" lon="0.36415">
        <ele>1033.4</ele>
        <time>2022-05-24 17:55:49</time>
      </trkpt>
      <trkpt lat="40.82299" lon="0.36415">
        <ele>1033.6</ele>
        <time>2022-05-24 17:55:50</time>
      </trkpt>
      <trkpt lat="40.82299" lon="0.36414">
        <ele>1033.6</ele>
        <time>2022-05-24 17:55:51</time>
      </trkpt>
      <trkpt lat="40.82298" lon="0.36412">
        <ele>1033.6</ele>
        <time>2022-05-24 17:55:52</time>
      </trkpt>
      <trkpt lat="40.82297" lon="0.36411">
        <ele>1033.8</ele>
        <time>2022-05-24 17:55:53</time>
      </trkpt>
      <trkpt lat="40.82296" lon="0.3641">
        <ele>1034</ele>
        <time>2022-05-24 17:55:54</time>
      </trkpt>
      <trkpt lat="40.82295" lon="0.36409">
        <ele>1034.2</ele>
        <time>2022-05-24 17:55:55</time>
      </trkpt>
      <trkpt lat="40.82294" lon="0.36407">
        <ele>1034.4</ele>
        <time>2022-05-24 17:55:56</time>
      </trkpt>
      <trkpt lat="40.82293" lon="0.36406">
        <ele>1034.6</ele>
        <time>2022-05-24 17:55:57</time>
      </trkpt>
      <trkpt lat="40.82292" lon="0.36405">
        <ele>1034.6</ele>
        <time>2022-05-24 17:55:58</time>
      </trkpt>
      <trkpt lat="40.82291" lon="0.36403">
        <ele>1034.8</ele>
        <time>2022-05-24 17:55:59</time>
      </trkpt>
      <trkpt lat="40.82291" lon="0.36402">
        <ele>1035</ele>
        <time>2022-05-24 17:56:00</time>
      </trkpt>
      <trkpt lat="40.8229" lon="0.364">
        <ele>1035.2</ele>
        <time>2022-05-24 17:56:01</time>
      </trkpt>
      <trkpt lat="40.82288" lon="0.36399">
        <ele>1035.4</ele>
        <time>2022-05-24 17:56:02</time>
      </trkpt>
      <trkpt lat="40.82287" lon="0.36397">
        <ele>1035.6</ele>
        <time>2022-05-24 17:56:03</time>
      </trkpt>
      <trkpt lat="40.82286" lon="0.36396">
        <ele>1035.8</ele>
        <time>2022-05-24 17:56:04</time>
      </trkpt>
      <trkpt lat="40.82285" lon="0.36395">
        <ele>1036</ele>
        <time>2022-05-24 17:56:05</time>
      </trkpt>
      <trkpt lat="40.82284" lon="0.36393">
        <ele>1036</ele>
        <time>2022-05-24 17:56:06</time>
      </trkpt>
      <trkpt lat="40.82284" lon="0.36392">
        <ele>1036.2</ele>
        <time>2022-05-24 17:56:07</time>
      </trkpt>
      <trkpt lat="40.82283" lon="0.36391">
        <ele>1036.4</ele>
        <time>2022-05-24 17:56:08</time>
      </trkpt>
      <trkpt lat="40.82282" lon="0.36389">
        <ele>1036.4</ele>
        <time>2022-05-24 17:56:09</time>
      </trkpt>
      <trkpt lat="40.82281" lon="0.36388">
        <ele>1036.6</ele>
        <time>2022-05-24 17:56:10</time>
      </trkpt>
      <trkpt lat="40.8228" lon="0.36387">
        <ele>1036.6</ele>
        <time>2022-05-24 17:56:11</time>
      </trkpt>
      <trkpt lat="40.82279" lon="0.36385">
        <ele>1036.8</ele>
        <time>2022-05-24 17:56:12</time>
      </trkpt>
      <trkpt lat="40.82278" lon="0.36384">
        <ele>1037</ele>
        <time>2022-05-24 17:56:13</time>
      </trkpt>
      <trkpt lat="40.82278" lon="0.36383">
        <ele>1037</ele>
        <time>2022-05-24 17:56:14</time>
      </trkpt>
      <trkpt lat="40.82277" lon="0.36382">
        <ele>1037.2</ele>
        <time>2022-05-24 17:56:15</time>
      </trkpt>
      <trkpt lat="40.82276" lon="0.3638">
        <ele>1037.4</ele>
        <time>2022-05-24 17:56:16</time>
      </trkpt>
      <trkpt lat="40.82275" lon="0.36379">
        <ele>1037.6</ele>
        <time>2022-05-24 17:56:17</time>
      </trkpt>
      <trkpt lat="40.82273" lon="0.36378">
        <ele>1037.8</ele>
        <time>2022-05-24 17:56:18</time>
      </trkpt>
      <trkpt lat="40.82272" lon="0.36377">
        <ele>1038</ele>
        <time>2022-05-24 17:56:19</time>
      </trkpt>
      <trkpt lat="40.82272" lon="0.36375">
        <ele>1038.2</ele>
        <time>2022-05-24 17:56:20</time>
      </trkpt>
      <trkpt lat="40.82271" lon="0.36374">
        <ele>1038.4</ele>
        <time>2022-05-24 17:56:21</time>
      </trkpt>
      <trkpt lat="40.8227" lon="0.36372">
        <ele>1038.6</ele>
        <time>2022-05-24 17:56:22</time>
      </trkpt>
      <trkpt lat="40.82269" lon="0.3637">
        <ele>1038.8</ele>
        <time>2022-05-24 17:56:23</time>
      </trkpt>
      <trkpt lat="40.82269" lon="0.36369">
        <ele>1039</ele>
        <time>2022-05-24 17:56:24</time>
      </trkpt>
      <trkpt lat="40.82267" lon="0.36367">
        <ele>1039.2</ele>
        <time>2022-05-24 17:56:25</time>
      </trkpt>
      <trkpt lat="40.82267" lon="0.36366">
        <ele>1039.4</ele>
        <time>2022-05-24 17:56:26</time>
      </trkpt>
      <trkpt lat="40.82266" lon="0.36364">
        <ele>1039.4</ele>
        <time>2022-05-24 17:56:27</time>
      </trkpt>
      <trkpt lat="40.82265" lon="0.36362">
        <ele>1039.6</ele>
        <time>2022-05-24 17:56:28</time>
      </trkpt>
      <trkpt lat="40.82264" lon="0.36361">
        <ele>1039.8</ele>
        <time>2022-05-24 17:56:29</time>
      </trkpt>
      <trkpt lat="40.82263" lon="0.3636">
        <ele>1040</ele>
        <time>2022-05-24 17:56:30</time>
      </trkpt>
      <trkpt lat="40.82262" lon="0.36358">
        <ele>1040.2</ele>
        <time>2022-05-24 17:56:31</time>
      </trkpt>
      <trkpt lat="40.82261" lon="0.36357">
        <ele>1040.2</ele>
        <time>2022-05-24 17:56:32</time>
      </trkpt>
      <trkpt lat="40.82259" lon="0.36355">
        <ele>1040.4</ele>
        <time>2022-05-24 17:56:33</time>
      </trkpt>
      <trkpt lat="40.82258" lon="0.36354">
        <ele>1040.6</ele>
        <time>2022-05-24 17:56:34</time>
      </trkpt>
      <trkpt lat="40.82257" lon="0.36352">
        <ele>1040.8</ele>
        <time>2022-05-24 17:56:35</time>
      </trkpt>
      <trkpt lat="40.82256" lon="0.3635">
        <ele>1041</ele>
        <time>2022-05-24 17:56:36</time>
      </trkpt>
      <trkpt lat="40.82256" lon="0.36349">
        <ele>1041.2</ele>
        <time>2022-05-24 17:56:37</time>
      </trkpt>
      <trkpt lat="40.82255" lon="0.36347">
        <ele>1041.4</ele>
        <time>2022-05-24 17:56:38</time>
      </trkpt>
      <trkpt lat="40.82254" lon="0.36345">
        <ele>1041.6</ele>
        <time>2022-05-24 17:56:39</time>
      </trkpt>
      <trkpt lat="40.82253" lon="0.36344">
        <ele>1041.6</ele>
        <time>2022-05-24 17:56:40</time>
      </trkpt>
      <trkpt lat="40.82252" lon="0.36343">
        <ele>1042</ele>
        <time>2022-05-24 17:56:41</time>
      </trkpt>
      <trkpt lat="40.82251" lon="0.36341">
        <ele>1042.2</ele>
        <time>2022-05-24 17:56:42</time>
      </trkpt>
      <trkpt lat="40.82251" lon="0.36339">
        <ele>1042.4</ele>
        <time>2022-05-24 17:56:43</time>
      </trkpt>
      <trkpt lat="40.8225" lon="0.36338">
        <ele>1042.8</ele>
        <time>2022-05-24 17:56:44</time>
      </trkpt>
      <trkpt lat="40.82249" lon="0.36336">
        <ele>1043</ele>
        <time>2022-05-24 17:56:45</time>
      </trkpt>
      <trkpt lat="40.82248" lon="0.36335">
        <ele>1043</ele>
        <time>2022-05-24 17:56:46</time>
      </trkpt>
      <trkpt lat="40.82247" lon="0.36333">
        <ele>1043</ele>
        <time>2022-05-24 17:56:47</time>
      </trkpt>
      <trkpt lat="40.82246" lon="0.36331">
        <ele>1043.2</ele>
        <time>2022-05-24 17:56:48</time>
      </trkpt>
      <trkpt lat="40.82244" lon="0.36329">
        <ele>1043.2</ele>
        <time>2022-05-24 17:56:49</time>
      </trkpt>
      <trkpt lat="40.82243" lon="0.36327">
        <ele>1043.4</ele>
        <time>2022-05-24 17:56:50</time>
      </trkpt>
      <trkpt lat="40.82242" lon="0.36326">
        <ele>1043.6</ele>
        <time>2022-05-24 17:56:51</time>
      </trkpt>
      <trkpt lat="40.82241" lon="0.36324">
        <ele>1043.8</ele>
        <time>2022-05-24 17:56:52</time>
      </trkpt>
      <trkpt lat="40.8224" lon="0.36323">
        <ele>1044.2</ele>
        <time>2022-05-24 17:56:53</time>
      </trkpt>
      <trkpt lat="40.82239" lon="0.36321">
        <ele>1044.4</ele>
        <time>2022-05-24 17:56:54</time>
      </trkpt>
      <trkpt lat="40.82238" lon="0.36319">
        <ele>1044.6</ele>
        <time>2022-05-24 17:56:55</time>
      </trkpt>
      <trkpt lat="40.82237" lon="0.36318">
        <ele>1044.8</ele>
        <time>2022-05-24 17:56:56</time>
      </trkpt>
      <trkpt lat="40.82236" lon="0.36316">
        <ele>1045</ele>
        <time>2022-05-24 17:56:57</time>
      </trkpt>
      <trkpt lat="40.82235" lon="0.36314">
        <ele>1045.2</ele>
        <time>2022-05-24 17:56:58</time>
      </trkpt>
      <trkpt lat="40.82235" lon="0.36312">
        <ele>1045.4</ele>
        <time>2022-05-24 17:56:59</time>
      </trkpt>
      <trkpt lat="40.82234" lon="0.3631">
        <ele>1045.6</ele>
        <time>2022-05-24 17:57:00</time>
      </trkpt>
      <trkpt lat="40.82233" lon="0.36309">
        <ele>1045.8</ele>
        <time>2022-05-24 17:57:01</time>
      </trkpt>
      <trkpt lat="40.82232" lon="0.36307">
        <ele>1046</ele>
        <time>2022-05-24 17:57:02</time>
      </trkpt>
      <trkpt lat="40.82231" lon="0.36306">
        <ele>1046.2</ele>
        <time>2022-05-24 17:57:03</time>
      </trkpt>
      <trkpt lat="40.8223" lon="0.36304">
        <ele>1046.6</ele>
        <time>2022-05-24 17:57:04</time>
      </trkpt>
      <trkpt lat="40.82229" lon="0.36302">
        <ele>1046.8</ele>
        <time>2022-05-24 17:57:05</time>
      </trkpt>
      <trkpt lat="40.82227" lon="0.363">
        <ele>1047</ele>
        <time>2022-05-24 17:57:06</time>
      </trkpt>
      <trkpt lat="40.82226" lon="0.36298">
        <ele>1047.4</ele>
        <time>2022-05-24 17:57:07</time>
      </trkpt>
      <trkpt lat="40.82225" lon="0.36296">
        <ele>1047.8</ele>
        <time>2022-05-24 17:57:08</time>
      </trkpt>
      <trkpt lat="40.82224" lon="0.36294">
        <ele>1048</ele>
        <time>2022-05-24 17:57:09</time>
      </trkpt>
      <trkpt lat="40.82222" lon="0.36293">
        <ele>1048.2</ele>
        <time>2022-05-24 17:57:10</time>
      </trkpt>
      <trkpt lat="40.82221" lon="0.36291">
        <ele>1048.2</ele>
        <time>2022-05-24 17:57:11</time>
      </trkpt>
      <trkpt lat="40.8222" lon="0.36289">
        <ele>1048.4</ele>
        <time>2022-05-24 17:57:12</time>
      </trkpt>
      <trkpt lat="40.82219" lon="0.36287">
        <ele>1048.6</ele>
        <time>2022-05-24 17:57:13</time>
      </trkpt>
      <trkpt lat="40.82218" lon="0.36285">
        <ele>1048.6</ele>
        <time>2022-05-24 17:57:14</time>
      </trkpt>
      <trkpt lat="40.82217" lon="0.36283">
        <ele>1048.8</ele>
        <time>2022-05-24 17:57:15</time>
      </trkpt>
      <trkpt lat="40.82216" lon="0.36281">
        <ele>1049</ele>
        <time>2022-05-24 17:57:16</time>
      </trkpt>
      <trkpt lat="40.82216" lon="0.3628">
        <ele>1049.2</ele>
        <time>2022-05-24 17:57:17</time>
      </trkpt>
      <trkpt lat="40.82214" lon="0.36278">
        <ele>1049.4</ele>
        <time>2022-05-24 17:57:18</time>
      </trkpt>
      <trkpt lat="40.82214" lon="0.36276">
        <ele>1049.6</ele>
        <time>2022-05-24 17:57:19</time>
      </trkpt>
      <trkpt lat="40.82213" lon="0.36274">
        <ele>1049.8</ele>
        <time>2022-05-24 17:57:20</time>
      </trkpt>
      <trkpt lat="40.82212" lon="0.36272">
        <ele>1050</ele>
        <time>2022-05-24 17:57:21</time>
      </trkpt>
      <trkpt lat="40.82211" lon="0.36271">
        <ele>1050.2</ele>
        <time>2022-05-24 17:57:22</time>
      </trkpt>
      <trkpt lat="40.8221" lon="0.36269">
        <ele>1050.4</ele>
        <time>2022-05-24 17:57:23</time>
      </trkpt>
      <trkpt lat="40.82209" lon="0.36267">
        <ele>1050.6</ele>
        <time>2022-05-24 17:57:24</time>
      </trkpt>
      <trkpt lat="40.82209" lon="0.36266">
        <ele>1051</ele>
        <time>2022-05-24 17:57:25</time>
      </trkpt>
      <trkpt lat="40.82208" lon="0.36264">
        <ele>1051.2</ele>
        <time>2022-05-24 17:57:26</time>
      </trkpt>
      <trkpt lat="40.82207" lon="0.36262">
        <ele>1051.4</ele>
        <time>2022-05-24 17:57:27</time>
      </trkpt>
      <trkpt lat="40.82207" lon="0.36261">
        <ele>1051.6</ele>
        <time>2022-05-24 17:57:28</time>
      </trkpt>
      <trkpt lat="40.82206" lon="0.36259">
        <ele>1051.8</ele>
        <time>2022-05-24 17:57:29</time>
      </trkpt>
      <trkpt lat="40.82205" lon="0.36258">
        <ele>1052</ele>
        <time>2022-05-24 17:57:30</time>
      </trkpt>
      <trkpt lat="40.82204" lon="0.36256">
        <ele>1052.2</ele>
        <time>2022-05-24 17:57:31</time>
      </trkpt>
      <trkpt lat="40.82203" lon="0.36254">
        <ele>1052.4</ele>
        <time>2022-05-24 17:57:32</time>
      </trkpt>
      <trkpt lat="40.82202" lon="0.36253">
        <ele>1052.4</ele>
        <time>2022-05-24 17:57:33</time>
      </trkpt>
      <trkpt lat="40.82201" lon="0.36251">
        <ele>1052.6</ele>
        <time>2022-05-24 17:57:34</time>
      </trkpt>
      <trkpt lat="40.822" lon="0.36249">
        <ele>1052.6</ele>
        <time>2022-05-24 17:57:35</time>
      </trkpt>
      <trkpt lat="40.82199" lon="0.36248">
        <ele>1052.8</ele>
        <time>2022-05-24 17:57:36</time>
      </trkpt>
      <trkpt lat="40.82198" lon="0.36246">
        <ele>1053</ele>
        <time>2022-05-24 17:57:37</time>
      </trkpt>
      <trkpt lat="40.82198" lon="0.36245">
        <ele>1053.2</ele>
        <time>2022-05-24 17:57:38</time>
      </trkpt>
      <trkpt lat="40.82197" lon="0.36244">
        <ele>1053.4</ele>
        <time>2022-05-24 17:57:39</time>
      </trkpt>
      <trkpt lat="40.82196" lon="0.36242">
        <ele>1053.4</ele>
        <time>2022-05-24 17:57:40</time>
      </trkpt>
      <trkpt lat="40.82195" lon="0.36241">
        <ele>1053.6</ele>
        <time>2022-05-24 17:57:41</time>
      </trkpt>
      <trkpt lat="40.82193" lon="0.36239">
        <ele>1053.6</ele>
        <time>2022-05-24 17:57:42</time>
      </trkpt>
      <trkpt lat="40.82192" lon="0.36238">
        <ele>1053.8</ele>
        <time>2022-05-24 17:57:43</time>
      </trkpt>
      <trkpt lat="40.82191" lon="0.36236">
        <ele>1054</ele>
        <time>2022-05-24 17:57:44</time>
      </trkpt>
      <trkpt lat="40.8219" lon="0.36235">
        <ele>1054</ele>
        <time>2022-05-24 17:57:45</time>
      </trkpt>
      <trkpt lat="40.82189" lon="0.36233">
        <ele>1054.2</ele>
        <time>2022-05-24 17:57:46</time>
      </trkpt>
      <trkpt lat="40.82188" lon="0.36231">
        <ele>1054.4</ele>
        <time>2022-05-24 17:57:47</time>
      </trkpt>
      <trkpt lat="40.82187" lon="0.3623">
        <ele>1054.4</ele>
        <time>2022-05-24 17:57:48</time>
      </trkpt>
      <trkpt lat="40.82187" lon="0.36228">
        <ele>1054.6</ele>
        <time>2022-05-24 17:57:49</time>
      </trkpt>
      <trkpt lat="40.82186" lon="0.36226">
        <ele>1054.8</ele>
        <time>2022-05-24 17:57:50</time>
      </trkpt>
      <trkpt lat="40.82185" lon="0.36224">
        <ele>1054.8</ele>
        <time>2022-05-24 17:57:51</time>
      </trkpt>
      <trkpt lat="40.82184" lon="0.36222">
        <ele>1055</ele>
        <time>2022-05-24 17:57:52</time>
      </trkpt>
      <trkpt lat="40.82183" lon="0.3622">
        <ele>1055</ele>
        <time>2022-05-24 17:57:53</time>
      </trkpt>
      <trkpt lat="40.82182" lon="0.36218">
        <ele>1055.2</ele>
        <time>2022-05-24 17:57:54</time>
      </trkpt>
      <trkpt lat="40.8218" lon="0.36216">
        <ele>1055.2</ele>
        <time>2022-05-24 17:57:55</time>
      </trkpt>
      <trkpt lat="40.82178" lon="0.36214">
        <ele>1055.4</ele>
        <time>2022-05-24 17:57:56</time>
      </trkpt>
      <trkpt lat="40.82177" lon="0.36211">
        <ele>1055.4</ele>
        <time>2022-05-24 17:57:57</time>
      </trkpt>
      <trkpt lat="40.82175" lon="0.36209">
        <ele>1055.6</ele>
        <time>2022-05-24 17:57:58</time>
      </trkpt>
      <trkpt lat="40.82174" lon="0.36207">
        <ele>1055.6</ele>
        <time>2022-05-24 17:57:59</time>
      </trkpt>
      <trkpt lat="40.82172" lon="0.36204">
        <ele>1055.8</ele>
        <time>2022-05-24 17:58:00</time>
      </trkpt>
      <trkpt lat="40.8217" lon="0.36202">
        <ele>1056</ele>
        <time>2022-05-24 17:58:01</time>
      </trkpt>
      <trkpt lat="40.82169" lon="0.36199">
        <ele>1056</ele>
        <time>2022-05-24 17:58:02</time>
      </trkpt>
      <trkpt lat="40.82167" lon="0.36196">
        <ele>1056</ele>
        <time>2022-05-24 17:58:03</time>
      </trkpt>
      <trkpt lat="40.82165" lon="0.36194">
        <ele>1056.2</ele>
        <time>2022-05-24 17:58:04</time>
      </trkpt>
      <trkpt lat="40.82163" lon="0.36192">
        <ele>1056.4</ele>
        <time>2022-05-24 17:58:05</time>
      </trkpt>
      <trkpt lat="40.82161" lon="0.36189">
        <ele>1056.4</ele>
        <time>2022-05-24 17:58:06</time>
      </trkpt>
      <trkpt lat="40.82159" lon="0.36187">
        <ele>1056.6</ele>
        <time>2022-05-24 17:58:07</time>
      </trkpt>
      <trkpt lat="40.82157" lon="0.36185">
        <ele>1056.6</ele>
        <time>2022-05-24 17:58:08</time>
      </trkpt>
      <trkpt lat="40.82154" lon="0.36183">
        <ele>1056.8</ele>
        <time>2022-05-24 17:58:09</time>
      </trkpt>
      <trkpt lat="40.82152" lon="0.36181">
        <ele>1056.8</ele>
        <time>2022-05-24 17:58:10</time>
      </trkpt>
      <trkpt lat="40.8215" lon="0.36179">
        <ele>1057</ele>
        <time>2022-05-24 17:58:11</time>
      </trkpt>
      <trkpt lat="40.82148" lon="0.36177">
        <ele>1057.2</ele>
        <time>2022-05-24 17:58:12</time>
      </trkpt>
      <trkpt lat="40.82145" lon="0.36176">
        <ele>1057.2</ele>
        <time>2022-05-24 17:58:13</time>
      </trkpt>
      <trkpt lat="40.82143" lon="0.36174">
        <ele>1057.2</ele>
        <time>2022-05-24 17:58:14</time>
      </trkpt>
      <trkpt lat="40.8214" lon="0.36171">
        <ele>1057.2</ele>
        <time>2022-05-24 17:58:15</time>
      </trkpt>
      <trkpt lat="40.82138" lon="0.36169">
        <ele>1057.4</ele>
        <time>2022-05-24 17:58:16</time>
      </trkpt>
      <trkpt lat="40.82136" lon="0.36166">
        <ele>1057.6</ele>
        <time>2022-05-24 17:58:17</time>
      </trkpt>
      <trkpt lat="40.82134" lon="0.36164">
        <ele>1057.6</ele>
        <time>2022-05-24 17:58:18</time>
      </trkpt>
      <trkpt lat="40.82132" lon="0.36162">
        <ele>1057.8</ele>
        <time>2022-05-24 17:58:19</time>
      </trkpt>
      <trkpt lat="40.82129" lon="0.36159">
        <ele>1058</ele>
        <time>2022-05-24 17:58:20</time>
      </trkpt>
      <trkpt lat="40.82127" lon="0.36156">
        <ele>1058</ele>
        <time>2022-05-24 17:58:21</time>
      </trkpt>
      <trkpt lat="40.82125" lon="0.36153">
        <ele>1058.2</ele>
        <time>2022-05-24 17:58:22</time>
      </trkpt>
      <trkpt lat="40.82123" lon="0.36149">
        <ele>1058.4</ele>
        <time>2022-05-24 17:58:23</time>
      </trkpt>
      <trkpt lat="40.82122" lon="0.36145">
        <ele>1058.4</ele>
        <time>2022-05-24 17:58:24</time>
      </trkpt>
      <trkpt lat="40.82121" lon="0.36141">
        <ele>1058.6</ele>
        <time>2022-05-24 17:58:25</time>
      </trkpt>
      <trkpt lat="40.82119" lon="0.36137">
        <ele>1058.6</ele>
        <time>2022-05-24 17:58:26</time>
      </trkpt>
      <trkpt lat="40.82118" lon="0.36132">
        <ele>1058.8</ele>
        <time>2022-05-24 17:58:27</time>
      </trkpt>
      <trkpt lat="40.82117" lon="0.36128">
        <ele>1059</ele>
        <time>2022-05-24 17:58:28</time>
      </trkpt>
      <trkpt lat="40.82116" lon="0.36124">
        <ele>1059</ele>
        <time>2022-05-24 17:58:29</time>
      </trkpt>
      <trkpt lat="40.82115" lon="0.36119">
        <ele>1059.2</ele>
        <time>2022-05-24 17:58:30</time>
      </trkpt>
      <trkpt lat="40.82114" lon="0.36115">
        <ele>1059.2</ele>
        <time>2022-05-24 17:58:31</time>
      </trkpt>
      <trkpt lat="40.82113" lon="0.3611">
        <ele>1059.4</ele>
        <time>2022-05-24 17:58:32</time>
      </trkpt>
      <trkpt lat="40.82112" lon="0.36106">
        <ele>1059.4</ele>
        <time>2022-05-24 17:58:33</time>
      </trkpt>
      <trkpt lat="40.82111" lon="0.36102">
        <ele>1059.6</ele>
        <time>2022-05-24 17:58:34</time>
      </trkpt>
      <trkpt lat="40.8211" lon="0.36098">
        <ele>1059.8</ele>
        <time>2022-05-24 17:58:35</time>
      </trkpt>
      <trkpt lat="40.82109" lon="0.36094">
        <ele>1060</ele>
        <time>2022-05-24 17:58:36</time>
      </trkpt>
      <trkpt lat="40.82109" lon="0.3609">
        <ele>1060.2</ele>
        <time>2022-05-24 17:58:37</time>
      </trkpt>
      <trkpt lat="40.82108" lon="0.36086">
        <ele>1060.4</ele>
        <time>2022-05-24 17:58:38</time>
      </trkpt>
      <trkpt lat="40.82106" lon="0.36082">
        <ele>1060.6</ele>
        <time>2022-05-24 17:58:39</time>
      </trkpt>
      <trkpt lat="40.82106" lon="0.36078">
        <ele>1060.6</ele>
        <time>2022-05-24 17:58:40</time>
      </trkpt>
      <trkpt lat="40.82104" lon="0.36074">
        <ele>1060.8</ele>
        <time>2022-05-24 17:58:41</time>
      </trkpt>
      <trkpt lat="40.82104" lon="0.3607">
        <ele>1061</ele>
        <time>2022-05-24 17:58:42</time>
      </trkpt>
      <trkpt lat="40.82103" lon="0.36065">
        <ele>1061</ele>
        <time>2022-05-24 17:58:43</time>
      </trkpt>
      <trkpt lat="40.82101" lon="0.36061">
        <ele>1061.2</ele>
        <time>2022-05-24 17:58:44</time>
      </trkpt>
      <trkpt lat="40.821" lon="0.36058">
        <ele>1061.2</ele>
        <time>2022-05-24 17:58:45</time>
      </trkpt>
      <trkpt lat="40.821" lon="0.36054">
        <ele>1061.4</ele>
        <time>2022-05-24 17:58:46</time>
      </trkpt>
      <trkpt lat="40.82099" lon="0.3605">
        <ele>1061.6</ele>
        <time>2022-05-24 17:58:47</time>
      </trkpt>
      <trkpt lat="40.82098" lon="0.36047">
        <ele>1061.8</ele>
        <time>2022-05-24 17:58:48</time>
      </trkpt>
      <trkpt lat="40.82096" lon="0.36043">
        <ele>1062</ele>
        <time>2022-05-24 17:58:49</time>
      </trkpt>
      <trkpt lat="40.82095" lon="0.36039">
        <ele>1062.2</ele>
        <time>2022-05-24 17:58:50</time>
      </trkpt>
      <trkpt lat="40.82094" lon="0.36035">
        <ele>1062.4</ele>
        <time>2022-05-24 17:58:51</time>
      </trkpt>
      <trkpt lat="40.82093" lon="0.36031">
        <ele>1062.6</ele>
        <time>2022-05-24 17:58:52</time>
      </trkpt>
      <trkpt lat="40.82092" lon="0.36027">
        <ele>1062.6</ele>
        <time>2022-05-24 17:58:53</time>
      </trkpt>
      <trkpt lat="40.82091" lon="0.36023">
        <ele>1062.8</ele>
        <time>2022-05-24 17:58:54</time>
      </trkpt>
      <trkpt lat="40.8209" lon="0.36019">
        <ele>1063</ele>
        <time>2022-05-24 17:58:55</time>
      </trkpt>
      <trkpt lat="40.82088" lon="0.36015">
        <ele>1063.2</ele>
        <time>2022-05-24 17:58:56</time>
      </trkpt>
      <trkpt lat="40.82087" lon="0.36011">
        <ele>1063.4</ele>
        <time>2022-05-24 17:58:57</time>
      </trkpt>
      <trkpt lat="40.82085" lon="0.36007">
        <ele>1063.6</ele>
        <time>2022-05-24 17:58:58</time>
      </trkpt>
      <trkpt lat="40.82083" lon="0.36003">
        <ele>1063.6</ele>
        <time>2022-05-24 17:58:59</time>
      </trkpt>
      <trkpt lat="40.82082" lon="0.35999">
        <ele>1063.8</ele>
        <time>2022-05-24 17:59:00</time>
      </trkpt>
      <trkpt lat="40.8208" lon="0.35995">
        <ele>1063.8</ele>
        <time>2022-05-24 17:59:01</time>
      </trkpt>
      <trkpt lat="40.82079" lon="0.35991">
        <ele>1063.8</ele>
        <time>2022-05-24 17:59:02</time>
      </trkpt>
      <trkpt lat="40.82077" lon="0.35987">
        <ele>1063.8</ele>
        <time>2022-05-24 17:59:03</time>
      </trkpt>
      <trkpt lat="40.82075" lon="0.35982">
        <ele>1063.8</ele>
        <time>2022-05-24 17:59:04</time>
      </trkpt>
      <trkpt lat="40.82074" lon="0.35978">
        <ele>1064</ele>
        <time>2022-05-24 17:59:05</time>
      </trkpt>
      <trkpt lat="40.82072" lon="0.35974">
        <ele>1064</ele>
        <time>2022-05-24 17:59:06</time>
      </trkpt>
      <trkpt lat="40.82071" lon="0.3597">
        <ele>1064</ele>
        <time>2022-05-24 17:59:07</time>
      </trkpt>
      <trkpt lat="40.82069" lon="0.35966">
        <ele>1064</ele>
        <time>2022-05-24 17:59:08</time>
      </trkpt>
      <trkpt lat="40.82067" lon="0.35962">
        <ele>1064.2</ele>
        <time>2022-05-24 17:59:09</time>
      </trkpt>
      <trkpt lat="40.82066" lon="0.35957">
        <ele>1064.2</ele>
        <time>2022-05-24 17:59:10</time>
      </trkpt>
      <trkpt lat="40.82064" lon="0.35953">
        <ele>1064.2</ele>
        <time>2022-05-24 17:59:11</time>
      </trkpt>
      <trkpt lat="40.82063" lon="0.35949">
        <ele>1064.2</ele>
        <time>2022-05-24 17:59:12</time>
      </trkpt>
      <trkpt lat="40.82063" lon="0.35946">
        <ele>1064.4</ele>
        <time>2022-05-24 17:59:13</time>
      </trkpt>
      <trkpt lat="40.82061" lon="0.35942">
        <ele>1064.4</ele>
        <time>2022-05-24 17:59:14</time>
      </trkpt>
      <trkpt lat="40.82061" lon="0.35937">
        <ele>1064.4</ele>
        <time>2022-05-24 17:59:15</time>
      </trkpt>
      <trkpt lat="40.82059" lon="0.35933">
        <ele>1064.6</ele>
        <time>2022-05-24 17:59:16</time>
      </trkpt>
      <trkpt lat="40.82058" lon="0.35929">
        <ele>1064.6</ele>
        <time>2022-05-24 17:59:17</time>
      </trkpt>
      <trkpt lat="40.82056" lon="0.35926">
        <ele>1064.6</ele>
        <time>2022-05-24 17:59:18</time>
      </trkpt>
      <trkpt lat="40.82055" lon="0.35922">
        <ele>1064.6</ele>
        <time>2022-05-24 17:59:19</time>
      </trkpt>
      <trkpt lat="40.82053" lon="0.35918">
        <ele>1064.6</ele>
        <time>2022-05-24 17:59:20</time>
      </trkpt>
      <trkpt lat="40.8205" lon="0.35914">
        <ele>1064.8</ele>
        <time>2022-05-24 17:59:21</time>
      </trkpt>
      <trkpt lat="40.82048" lon="0.3591">
        <ele>1064.8</ele>
        <time>2022-05-24 17:59:22</time>
      </trkpt>
      <trkpt lat="40.82045" lon="0.35905">
        <ele>1064.8</ele>
        <time>2022-05-24 17:59:23</time>
      </trkpt>
      <trkpt lat="40.82042" lon="0.35901">
        <ele>1064.8</ele>
        <time>2022-05-24 17:59:24</time>
      </trkpt>
      <trkpt lat="40.8204" lon="0.35897">
        <ele>1064.8</ele>
        <time>2022-05-24 17:59:25</time>
      </trkpt>
      <trkpt lat="40.82037" lon="0.35892">
        <ele>1064.8</ele>
        <time>2022-05-24 17:59:26</time>
      </trkpt>
      <trkpt lat="40.82035" lon="0.35889">
        <ele>1064.8</ele>
        <time>2022-05-24 17:59:27</time>
      </trkpt>
      <trkpt lat="40.82033" lon="0.35885">
        <ele>1064.6</ele>
        <time>2022-05-24 17:59:28</time>
      </trkpt>
      <trkpt lat="40.8203" lon="0.35882">
        <ele>1064.6</ele>
        <time>2022-05-24 17:59:29</time>
      </trkpt>
      <trkpt lat="40.82028" lon="0.35878">
        <ele>1064.6</ele>
        <time>2022-05-24 17:59:30</time>
      </trkpt>
      <trkpt lat="40.82025" lon="0.35875">
        <ele>1064.6</ele>
        <time>2022-05-24 17:59:31</time>
      </trkpt>
      <trkpt lat="40.82023" lon="0.35871">
        <ele>1064.6</ele>
        <time>2022-05-24 17:59:32</time>
      </trkpt>
      <trkpt lat="40.82021" lon="0.35868">
        <ele>1064.8</ele>
        <time>2022-05-24 17:59:33</time>
      </trkpt>
      <trkpt lat="40.82019" lon="0.35864">
        <ele>1064.8</ele>
        <time>2022-05-24 17:59:34</time>
      </trkpt>
      <trkpt lat="40.82016" lon="0.3586">
        <ele>1064.8</ele>
        <time>2022-05-24 17:59:35</time>
      </trkpt>
      <trkpt lat="40.82014" lon="0.35857">
        <ele>1064.6</ele>
        <time>2022-05-24 17:59:36</time>
      </trkpt>
      <trkpt lat="40.82012" lon="0.35853">
        <ele>1064.6</ele>
        <time>2022-05-24 17:59:37</time>
      </trkpt>
      <trkpt lat="40.8201" lon="0.3585">
        <ele>1064.4</ele>
        <time>2022-05-24 17:59:38</time>
      </trkpt>
      <trkpt lat="40.82007" lon="0.35846">
        <ele>1064.4</ele>
        <time>2022-05-24 17:59:39</time>
      </trkpt>
      <trkpt lat="40.82005" lon="0.35842">
        <ele>1064.4</ele>
        <time>2022-05-24 17:59:40</time>
      </trkpt>
      <trkpt lat="40.82001" lon="0.35838">
        <ele>1064.4</ele>
        <time>2022-05-24 17:59:41</time>
      </trkpt>
      <trkpt lat="40.81998" lon="0.35833">
        <ele>1064.4</ele>
        <time>2022-05-24 17:59:42</time>
      </trkpt>
      <trkpt lat="40.81995" lon="0.35828">
        <ele>1064.4</ele>
        <time>2022-05-24 17:59:43</time>
      </trkpt>
      <trkpt lat="40.81992" lon="0.35823">
        <ele>1064.2</ele>
        <time>2022-05-24 17:59:44</time>
      </trkpt>
      <trkpt lat="40.81989" lon="0.35819">
        <ele>1064.2</ele>
        <time>2022-05-24 17:59:45</time>
      </trkpt>
      <trkpt lat="40.81986" lon="0.35814">
        <ele>1064.2</ele>
        <time>2022-05-24 17:59:46</time>
      </trkpt>
      <trkpt lat="40.81983" lon="0.35809">
        <ele>1064.2</ele>
        <time>2022-05-24 17:59:47</time>
      </trkpt>
      <trkpt lat="40.81979" lon="0.35804">
        <ele>1064.2</ele>
        <time>2022-05-24 17:59:48</time>
      </trkpt>
      <trkpt lat="40.81976" lon="0.35799">
        <ele>1064.2</ele>
        <time>2022-05-24 17:59:49</time>
      </trkpt>
      <trkpt lat="40.81973" lon="0.35795">
        <ele>1064.2</ele>
        <time>2022-05-24 17:59:50</time>
      </trkpt>
      <trkpt lat="40.81969" lon="0.3579">
        <ele>1064.2</ele>
        <time>2022-05-24 17:59:51</time>
      </trkpt>
      <trkpt lat="40.81966" lon="0.35785">
        <ele>1064.2</ele>
        <time>2022-05-24 17:59:52</time>
      </trkpt>
      <trkpt lat="40.81963" lon="0.3578">
        <ele>1064.2</ele>
        <time>2022-05-24 17:59:53</time>
      </trkpt>
      <trkpt lat="40.8196" lon="0.35775">
        <ele>1064.4</ele>
        <time>2022-05-24 17:59:54</time>
      </trkpt>
      <trkpt lat="40.81958" lon="0.35771">
        <ele>1064.4</ele>
        <time>2022-05-24 17:59:55</time>
      </trkpt>
      <trkpt lat="40.81955" lon="0.35766">
        <ele>1064.4</ele>
        <time>2022-05-24 17:59:56</time>
      </trkpt>
      <trkpt lat="40.81953" lon="0.35762">
        <ele>1064.6</ele>
        <time>2022-05-24 17:59:57</time>
      </trkpt>
      <trkpt lat="40.81951" lon="0.35758">
        <ele>1064.6</ele>
        <time>2022-05-24 17:59:58</time>
      </trkpt>
      <trkpt lat="40.81949" lon="0.35754">
        <ele>1064.6</ele>
        <time>2022-05-24 17:59:59</time>
      </trkpt>
      <trkpt lat="40.81947" lon="0.35749">
        <ele>1064.6</ele>
        <time>2022-05-24 18:00:00</time>
      </trkpt>
      <trkpt lat="40.81945" lon="0.35745">
        <ele>1064.8</ele>
        <time>2022-05-24 18:00:01</time>
      </trkpt>
      <trkpt lat="40.81943" lon="0.3574">
        <ele>1064.8</ele>
        <time>2022-05-24 18:00:02</time>
      </trkpt>
      <trkpt lat="40.8194" lon="0.35735">
        <ele>1064.8</ele>
        <time>2022-05-24 18:00:03</time>
      </trkpt>
      <trkpt lat="40.81938" lon="0.3573">
        <ele>1065</ele>
        <time>2022-05-24 18:00:04</time>
      </trkpt>
      <trkpt lat="40.81936" lon="0.35726">
        <ele>1065.2</ele>
        <time>2022-05-24 18:00:05</time>
      </trkpt>
      <trkpt lat="40.81934" lon="0.35721">
        <ele>1065.4</ele>
        <time>2022-05-24 18:00:06</time>
      </trkpt>
      <trkpt lat="40.81932" lon="0.35717">
        <ele>1065.6</ele>
        <time>2022-05-24 18:00:07</time>
      </trkpt>
      <trkpt lat="40.81929" lon="0.35713">
        <ele>1065.8</ele>
        <time>2022-05-24 18:00:08</time>
      </trkpt>
      <trkpt lat="40.81927" lon="0.35709">
        <ele>1066</ele>
        <time>2022-05-24 18:00:09</time>
      </trkpt>
      <trkpt lat="40.81925" lon="0.35704">
        <ele>1066.2</ele>
        <time>2022-05-24 18:00:10</time>
      </trkpt>
      <trkpt lat="40.81923" lon="0.357">
        <ele>1066.4</ele>
        <time>2022-05-24 18:00:11</time>
      </trkpt>
      <trkpt lat="40.81921" lon="0.35696">
        <ele>1066.6</ele>
        <time>2022-05-24 18:00:12</time>
      </trkpt>
      <trkpt lat="40.81918" lon="0.35693">
        <ele>1066.6</ele>
        <time>2022-05-24 18:00:13</time>
      </trkpt>
      <trkpt lat="40.81916" lon="0.35689">
        <ele>1066.8</ele>
        <time>2022-05-24 18:00:14</time>
      </trkpt>
      <trkpt lat="40.81914" lon="0.35686">
        <ele>1067</ele>
        <time>2022-05-24 18:00:15</time>
      </trkpt>
      <trkpt lat="40.81912" lon="0.35681">
        <ele>1067.2</ele>
        <time>2022-05-24 18:00:16</time>
      </trkpt>
      <trkpt lat="40.8191" lon="0.35677">
        <ele>1067.4</ele>
        <time>2022-05-24 18:00:17</time>
      </trkpt>
      <trkpt lat="40.81908" lon="0.35673">
        <ele>1067.6</ele>
        <time>2022-05-24 18:00:18</time>
      </trkpt>
      <trkpt lat="40.81907" lon="0.35669">
        <ele>1067.8</ele>
        <time>2022-05-24 18:00:19</time>
      </trkpt>
      <trkpt lat="40.81905" lon="0.35666">
        <ele>1068</ele>
        <time>2022-05-24 18:00:20</time>
      </trkpt>
      <trkpt lat="40.81903" lon="0.35663">
        <ele>1068</ele>
        <time>2022-05-24 18:00:21</time>
      </trkpt>
      <trkpt lat="40.81901" lon="0.35658">
        <ele>1068.2</ele>
        <time>2022-05-24 18:00:22</time>
      </trkpt>
      <trkpt lat="40.81899" lon="0.35653">
        <ele>1068.4</ele>
        <time>2022-05-24 18:00:23</time>
      </trkpt>
      <trkpt lat="40.81897" lon="0.35649">
        <ele>1068.4</ele>
        <time>2022-05-24 18:00:24</time>
      </trkpt>
      <trkpt lat="40.81895" lon="0.35645">
        <ele>1068.6</ele>
        <time>2022-05-24 18:00:25</time>
      </trkpt>
      <trkpt lat="40.81892" lon="0.35641">
        <ele>1068.6</ele>
        <time>2022-05-24 18:00:26</time>
      </trkpt>
      <trkpt lat="40.8189" lon="0.35638">
        <ele>1068.6</ele>
        <time>2022-05-24 18:00:27</time>
      </trkpt>
      <trkpt lat="40.81888" lon="0.35634">
        <ele>1068.8</ele>
        <time>2022-05-24 18:00:28</time>
      </trkpt>
      <trkpt lat="40.81886" lon="0.3563">
        <ele>1068.8</ele>
        <time>2022-05-24 18:00:29</time>
      </trkpt>
      <trkpt lat="40.81883" lon="0.35626">
        <ele>1068.8</ele>
        <time>2022-05-24 18:00:30</time>
      </trkpt>
      <trkpt lat="40.81881" lon="0.35621">
        <ele>1068.8</ele>
        <time>2022-05-24 18:00:31</time>
      </trkpt>
      <trkpt lat="40.81878" lon="0.35617">
        <ele>1068.8</ele>
        <time>2022-05-24 18:00:32</time>
      </trkpt>
      <trkpt lat="40.81876" lon="0.35614">
        <ele>1069</ele>
        <time>2022-05-24 18:00:33</time>
      </trkpt>
      <trkpt lat="40.81873" lon="0.3561">
        <ele>1069</ele>
        <time>2022-05-24 18:00:34</time>
      </trkpt>
      <trkpt lat="40.8187" lon="0.35606">
        <ele>1069</ele>
        <time>2022-05-24 18:00:35</time>
      </trkpt>
      <trkpt lat="40.81868" lon="0.35603">
        <ele>1069.2</ele>
        <time>2022-05-24 18:00:36</time>
      </trkpt>
      <trkpt lat="40.81865" lon="0.356">
        <ele>1069.2</ele>
        <time>2022-05-24 18:00:37</time>
      </trkpt>
      <trkpt lat="40.81862" lon="0.35596">
        <ele>1069.2</ele>
        <time>2022-05-24 18:00:38</time>
      </trkpt>
      <trkpt lat="40.81859" lon="0.35593">
        <ele>1069.4</ele>
        <time>2022-05-24 18:00:39</time>
      </trkpt>
      <trkpt lat="40.81856" lon="0.3559">
        <ele>1069.4</ele>
        <time>2022-05-24 18:00:40</time>
      </trkpt>
      <trkpt lat="40.81853" lon="0.35588">
        <ele>1069.6</ele>
        <time>2022-05-24 18:00:41</time>
      </trkpt>
      <trkpt lat="40.8185" lon="0.35586">
        <ele>1069.6</ele>
        <time>2022-05-24 18:00:42</time>
      </trkpt>
      <trkpt lat="40.81849" lon="0.35585">
        <ele>1069.8</ele>
        <time>2022-05-24 18:00:43</time>
      </trkpt>
      <trkpt lat="40.81845" lon="0.35583">
        <ele>1070</ele>
        <time>2022-05-24 18:00:44</time>
      </trkpt>
      <trkpt lat="40.81843" lon="0.35582">
        <ele>1070</ele>
        <time>2022-05-24 18:00:45</time>
      </trkpt>
      <trkpt lat="40.81841" lon="0.35582">
        <ele>1070.2</ele>
        <time>2022-05-24 18:00:46</time>
      </trkpt>
      <trkpt lat="40.81838" lon="0.35581">
        <ele>1070.2</ele>
        <time>2022-05-24 18:00:47</time>
      </trkpt>
      <trkpt lat="40.81836" lon="0.3558">
        <ele>1070.4</ele>
        <time>2022-05-24 18:00:48</time>
      </trkpt>
      <trkpt lat="40.81834" lon="0.35578">
        <ele>1070.6</ele>
        <time>2022-05-24 18:00:49</time>
      </trkpt>
      <trkpt lat="40.81831" lon="0.35577">
        <ele>1070.8</ele>
        <time>2022-05-24 18:00:50</time>
      </trkpt>
      <trkpt lat="40.81829" lon="0.35575">
        <ele>1071</ele>
        <time>2022-05-24 18:00:51</time>
      </trkpt>
      <trkpt lat="40.81826" lon="0.35573">
        <ele>1071.2</ele>
        <time>2022-05-24 18:00:52</time>
      </trkpt>
      <trkpt lat="40.81823" lon="0.35571">
        <ele>1071.4</ele>
        <time>2022-05-24 18:00:53</time>
      </trkpt>
      <trkpt lat="40.81821" lon="0.35569">
        <ele>1071.8</ele>
        <time>2022-05-24 18:00:54</time>
      </trkpt>
      <trkpt lat="40.81818" lon="0.35566">
        <ele>1072</ele>
        <time>2022-05-24 18:00:55</time>
      </trkpt>
      <trkpt lat="40.81816" lon="0.35563">
        <ele>1072.4</ele>
        <time>2022-05-24 18:00:56</time>
      </trkpt>
      <trkpt lat="40.81813" lon="0.3556">
        <ele>1072.6</ele>
        <time>2022-05-24 18:00:57</time>
      </trkpt>
      <trkpt lat="40.81812" lon="0.35557">
        <ele>1072.8</ele>
        <time>2022-05-24 18:00:58</time>
      </trkpt>
      <trkpt lat="40.8181" lon="0.35554">
        <ele>1073.2</ele>
        <time>2022-05-24 18:00:59</time>
      </trkpt>
      <trkpt lat="40.81808" lon="0.35551">
        <ele>1073.4</ele>
        <time>2022-05-24 18:01:00</time>
      </trkpt>
      <trkpt lat="40.81807" lon="0.35549">
        <ele>1073.4</ele>
        <time>2022-05-24 18:01:01</time>
      </trkpt>
      <trkpt lat="40.81805" lon="0.35546">
        <ele>1073.8</ele>
        <time>2022-05-24 18:01:02</time>
      </trkpt>
      <trkpt lat="40.81804" lon="0.35543">
        <ele>1074.2</ele>
        <time>2022-05-24 18:01:03</time>
      </trkpt>
      <trkpt lat="40.81802" lon="0.3554">
        <ele>1074.4</ele>
        <time>2022-05-24 18:01:04</time>
      </trkpt>
      <trkpt lat="40.81801" lon="0.35538">
        <ele>1074.6</ele>
        <time>2022-05-24 18:01:05</time>
      </trkpt>
      <trkpt lat="40.81799" lon="0.35534">
        <ele>1074.8</ele>
        <time>2022-05-24 18:01:06</time>
      </trkpt>
      <trkpt lat="40.81798" lon="0.35531">
        <ele>1075.2</ele>
        <time>2022-05-24 18:01:07</time>
      </trkpt>
      <trkpt lat="40.81797" lon="0.35529">
        <ele>1075.2</ele>
        <time>2022-05-24 18:01:08</time>
      </trkpt>
      <trkpt lat="40.81796" lon="0.35527">
        <ele>1075.4</ele>
        <time>2022-05-24 18:01:09</time>
      </trkpt>
      <trkpt lat="40.81794" lon="0.35524">
        <ele>1075.6</ele>
        <time>2022-05-24 18:01:10</time>
      </trkpt>
      <trkpt lat="40.81792" lon="0.35521">
        <ele>1075.8</ele>
        <time>2022-05-24 18:01:11</time>
      </trkpt>
      <trkpt lat="40.81791" lon="0.35518">
        <ele>1076</ele>
        <time>2022-05-24 18:01:12</time>
      </trkpt>
      <trkpt lat="40.8179" lon="0.35516">
        <ele>1076.2</ele>
        <time>2022-05-24 18:01:13</time>
      </trkpt>
      <trkpt lat="40.81788" lon="0.35513">
        <ele>1076.4</ele>
        <time>2022-05-24 18:01:14</time>
      </trkpt>
      <trkpt lat="40.81787" lon="0.35511">
        <ele>1076.4</ele>
        <time>2022-05-24 18:01:15</time>
      </trkpt>
      <trkpt lat="40.81786" lon="0.35509">
        <ele>1076.6</ele>
        <time>2022-05-24 18:01:16</time>
      </trkpt>
      <trkpt lat="40.81784" lon="0.35507">
        <ele>1076.8</ele>
        <time>2022-05-24 18:01:17</time>
      </trkpt>
      <trkpt lat="40.81783" lon="0.35505">
        <ele>1077</ele>
        <time>2022-05-24 18:01:18</time>
      </trkpt>
      <trkpt lat="40.81782" lon="0.35502">
        <ele>1077.2</ele>
        <time>2022-05-24 18:01:19</time>
      </trkpt>
      <trkpt lat="40.81781" lon="0.355">
        <ele>1077.2</ele>
        <time>2022-05-24 18:01:20</time>
      </trkpt>
      <trkpt lat="40.81779" lon="0.35499">
        <ele>1077.4</ele>
        <time>2022-05-24 18:01:21</time>
      </trkpt>
      <trkpt lat="40.81778" lon="0.35497">
        <ele>1077.6</ele>
        <time>2022-05-24 18:01:22</time>
      </trkpt>
      <trkpt lat="40.81776" lon="0.35495">
        <ele>1077.8</ele>
        <time>2022-05-24 18:01:23</time>
      </trkpt>
      <trkpt lat="40.81774" lon="0.35494">
        <ele>1077.8</ele>
        <time>2022-05-24 18:01:24</time>
      </trkpt>
      <trkpt lat="40.81772" lon="0.35492">
        <ele>1078</ele>
        <time>2022-05-24 18:01:25</time>
      </trkpt>
      <trkpt lat="40.8177" lon="0.3549">
        <ele>1078</ele>
        <time>2022-05-24 18:01:26</time>
      </trkpt>
      <trkpt lat="40.81768" lon="0.35489">
        <ele>1078.2</ele>
        <time>2022-05-24 18:01:27</time>
      </trkpt>
      <trkpt lat="40.81766" lon="0.35488">
        <ele>1078.2</ele>
        <time>2022-05-24 18:01:28</time>
      </trkpt>
      <trkpt lat="40.81764" lon="0.35486">
        <ele>1078.4</ele>
        <time>2022-05-24 18:01:29</time>
      </trkpt>
      <trkpt lat="40.81762" lon="0.35485">
        <ele>1078.4</ele>
        <time>2022-05-24 18:01:30</time>
      </trkpt>
      <trkpt lat="40.8176" lon="0.35484">
        <ele>1078.4</ele>
        <time>2022-05-24 18:01:31</time>
      </trkpt>
      <trkpt lat="40.81758" lon="0.35483">
        <ele>1078.4</ele>
        <time>2022-05-24 18:01:32</time>
      </trkpt>
      <trkpt lat="40.81756" lon="0.35482">
        <ele>1078.4</ele>
        <time>2022-05-24 18:01:33</time>
      </trkpt>
      <trkpt lat="40.81754" lon="0.35481">
        <ele>1078.6</ele>
        <time>2022-05-24 18:01:34</time>
      </trkpt>
      <trkpt lat="40.81752" lon="0.3548">
        <ele>1078.6</ele>
        <time>2022-05-24 18:01:35</time>
      </trkpt>
      <trkpt lat="40.81749" lon="0.35478">
        <ele>1078.6</ele>
        <time>2022-05-24 18:01:36</time>
      </trkpt>
      <trkpt lat="40.81747" lon="0.35476">
        <ele>1078.6</ele>
        <time>2022-05-24 18:01:37</time>
      </trkpt>
      <trkpt lat="40.81745" lon="0.35474">
        <ele>1078.8</ele>
        <time>2022-05-24 18:01:38</time>
      </trkpt>
      <trkpt lat="40.81742" lon="0.35471">
        <ele>1078.8</ele>
        <time>2022-05-24 18:01:39</time>
      </trkpt>
      <trkpt lat="40.81741" lon="0.35469">
        <ele>1078.8</ele>
        <time>2022-05-24 18:01:40</time>
      </trkpt>
      <trkpt lat="40.81738" lon="0.35466">
        <ele>1079</ele>
        <time>2022-05-24 18:01:41</time>
      </trkpt>
      <trkpt lat="40.81736" lon="0.35464">
        <ele>1079</ele>
        <time>2022-05-24 18:01:42</time>
      </trkpt>
      <trkpt lat="40.81734" lon="0.35461">
        <ele>1079.2</ele>
        <time>2022-05-24 18:01:43</time>
      </trkpt>
      <trkpt lat="40.81733" lon="0.35459">
        <ele>1079.4</ele>
        <time>2022-05-24 18:01:44</time>
      </trkpt>
      <trkpt lat="40.8173" lon="0.35456">
        <ele>1079.4</ele>
        <time>2022-05-24 18:01:45</time>
      </trkpt>
      <trkpt lat="40.81728" lon="0.35454">
        <ele>1079.6</ele>
        <time>2022-05-24 18:01:46</time>
      </trkpt>
      <trkpt lat="40.81726" lon="0.35452">
        <ele>1079.8</ele>
        <time>2022-05-24 18:01:47</time>
      </trkpt>
      <trkpt lat="40.81724" lon="0.3545">
        <ele>1080</ele>
        <time>2022-05-24 18:01:48</time>
      </trkpt>
      <trkpt lat="40.81722" lon="0.35448">
        <ele>1080.2</ele>
        <time>2022-05-24 18:01:49</time>
      </trkpt>
      <trkpt lat="40.81721" lon="0.35445">
        <ele>1080.4</ele>
        <time>2022-05-24 18:01:50</time>
      </trkpt>
      <trkpt lat="40.81719" lon="0.35443">
        <ele>1080.6</ele>
        <time>2022-05-24 18:01:51</time>
      </trkpt>
      <trkpt lat="40.81717" lon="0.35441">
        <ele>1080.8</ele>
        <time>2022-05-24 18:01:52</time>
      </trkpt>
      <trkpt lat="40.81715" lon="0.35439">
        <ele>1081</ele>
        <time>2022-05-24 18:01:53</time>
      </trkpt>
      <trkpt lat="40.81713" lon="0.35436">
        <ele>1081.4</ele>
        <time>2022-05-24 18:01:54</time>
      </trkpt>
      <trkpt lat="40.81711" lon="0.35434">
        <ele>1081.6</ele>
        <time>2022-05-24 18:01:55</time>
      </trkpt>
      <trkpt lat="40.81709" lon="0.35432">
        <ele>1081.8</ele>
        <time>2022-05-24 18:01:56</time>
      </trkpt>
      <trkpt lat="40.81707" lon="0.3543">
        <ele>1081.8</ele>
        <time>2022-05-24 18:01:57</time>
      </trkpt>
      <trkpt lat="40.81704" lon="0.35429">
        <ele>1082</ele>
        <time>2022-05-24 18:01:58</time>
      </trkpt>
      <trkpt lat="40.81702" lon="0.35428">
        <ele>1082.2</ele>
        <time>2022-05-24 18:01:59</time>
      </trkpt>
      <trkpt lat="40.81701" lon="0.35428">
        <ele>1082.4</ele>
        <time>2022-05-24 18:02:00</time>
      </trkpt>
      <trkpt lat="40.81698" lon="0.35427">
        <ele>1082.6</ele>
        <time>2022-05-24 18:02:01</time>
      </trkpt>
      <trkpt lat="40.81696" lon="0.35426">
        <ele>1082.8</ele>
        <time>2022-05-24 18:02:02</time>
      </trkpt>
      <trkpt lat="40.81693" lon="0.35425">
        <ele>1083</ele>
        <time>2022-05-24 18:02:03</time>
      </trkpt>
      <trkpt lat="40.81691" lon="0.35425">
        <ele>1083.2</ele>
        <time>2022-05-24 18:02:04</time>
      </trkpt>
      <trkpt lat="40.81689" lon="0.35424">
        <ele>1083.2</ele>
        <time>2022-05-24 18:02:05</time>
      </trkpt>
      <trkpt lat="40.81686" lon="0.35423">
        <ele>1083.4</ele>
        <time>2022-05-24 18:02:06</time>
      </trkpt>
      <trkpt lat="40.81684" lon="0.35423">
        <ele>1083.4</ele>
        <time>2022-05-24 18:02:07</time>
      </trkpt>
      <trkpt lat="40.81681" lon="0.35422">
        <ele>1083.6</ele>
        <time>2022-05-24 18:02:08</time>
      </trkpt>
      <trkpt lat="40.8168" lon="0.35422">
        <ele>1083.8</ele>
        <time>2022-05-24 18:02:09</time>
      </trkpt>
      <trkpt lat="40.81678" lon="0.35422">
        <ele>1084</ele>
        <time>2022-05-24 18:02:10</time>
      </trkpt>
      <trkpt lat="40.81675" lon="0.35421">
        <ele>1084</ele>
        <time>2022-05-24 18:02:11</time>
      </trkpt>
      <trkpt lat="40.81672" lon="0.35419">
        <ele>1084.2</ele>
        <time>2022-05-24 18:02:12</time>
      </trkpt>
      <trkpt lat="40.8167" lon="0.35419">
        <ele>1084.4</ele>
        <time>2022-05-24 18:02:13</time>
      </trkpt>
      <trkpt lat="40.81668" lon="0.35417">
        <ele>1084.6</ele>
        <time>2022-05-24 18:02:14</time>
      </trkpt>
      <trkpt lat="40.81665" lon="0.35415">
        <ele>1084.8</ele>
        <time>2022-05-24 18:02:15</time>
      </trkpt>
      <trkpt lat="40.81663" lon="0.35413">
        <ele>1085</ele>
        <time>2022-05-24 18:02:16</time>
      </trkpt>
      <trkpt lat="40.8166" lon="0.35411">
        <ele>1085.2</ele>
        <time>2022-05-24 18:02:17</time>
      </trkpt>
      <trkpt lat="40.81659" lon="0.35409">
        <ele>1085.4</ele>
        <time>2022-05-24 18:02:18</time>
      </trkpt>
      <trkpt lat="40.81656" lon="0.35406">
        <ele>1085.4</ele>
        <time>2022-05-24 18:02:19</time>
      </trkpt>
      <trkpt lat="40.81654" lon="0.35405">
        <ele>1085.6</ele>
        <time>2022-05-24 18:02:20</time>
      </trkpt>
      <trkpt lat="40.81652" lon="0.35403">
        <ele>1085.6</ele>
        <time>2022-05-24 18:02:21</time>
      </trkpt>
      <trkpt lat="40.8165" lon="0.35401">
        <ele>1085.8</ele>
        <time>2022-05-24 18:02:22</time>
      </trkpt>
      <trkpt lat="40.81648" lon="0.35399">
        <ele>1085.8</ele>
        <time>2022-05-24 18:02:23</time>
      </trkpt>
      <trkpt lat="40.81646" lon="0.35397">
        <ele>1085.8</ele>
        <time>2022-05-24 18:02:24</time>
      </trkpt>
      <trkpt lat="40.81644" lon="0.35396">
        <ele>1085.8</ele>
        <time>2022-05-24 18:02:25</time>
      </trkpt>
      <trkpt lat="40.81642" lon="0.35393">
        <ele>1085.8</ele>
        <time>2022-05-24 18:02:26</time>
      </trkpt>
      <trkpt lat="40.81639" lon="0.3539">
        <ele>1085.8</ele>
        <time>2022-05-24 18:02:27</time>
      </trkpt>
      <trkpt lat="40.81636" lon="0.35387">
        <ele>1085.8</ele>
        <time>2022-05-24 18:02:28</time>
      </trkpt>
      <trkpt lat="40.81633" lon="0.35384">
        <ele>1085.6</ele>
        <time>2022-05-24 18:02:29</time>
      </trkpt>
      <trkpt lat="40.8163" lon="0.35381">
        <ele>1085.4</ele>
        <time>2022-05-24 18:02:30</time>
      </trkpt>
      <trkpt lat="40.81627" lon="0.35378">
        <ele>1085.4</ele>
        <time>2022-05-24 18:02:31</time>
      </trkpt>
      <trkpt lat="40.81624" lon="0.35375">
        <ele>1085.4</ele>
        <time>2022-05-24 18:02:32</time>
      </trkpt>
      <trkpt lat="40.8162" lon="0.35372">
        <ele>1085.2</ele>
        <time>2022-05-24 18:02:33</time>
      </trkpt>
      <trkpt lat="40.81616" lon="0.35368">
        <ele>1085</ele>
        <time>2022-05-24 18:02:34</time>
      </trkpt>
      <trkpt lat="40.81612" lon="0.35366">
        <ele>1084.8</ele>
        <time>2022-05-24 18:02:35</time>
      </trkpt>
      <trkpt lat="40.81607" lon="0.35362">
        <ele>1084.6</ele>
        <time>2022-05-24 18:02:36</time>
      </trkpt>
      <trkpt lat="40.81602" lon="0.35359">
        <ele>1084.2</ele>
        <time>2022-05-24 18:02:37</time>
      </trkpt>
      <trkpt lat="40.81597" lon="0.35356">
        <ele>1083.8</ele>
        <time>2022-05-24 18:02:38</time>
      </trkpt>
      <trkpt lat="40.81592" lon="0.35354">
        <ele>1083.6</ele>
        <time>2022-05-24 18:02:39</time>
      </trkpt>
      <trkpt lat="40.81585" lon="0.35351">
        <ele>1082.6</ele>
        <time>2022-05-24 18:02:40</time>
      </trkpt>
      <trkpt lat="40.8158" lon="0.35349">
        <ele>1082</ele>
        <time>2022-05-24 18:02:41</time>
      </trkpt>
      <trkpt lat="40.81572" lon="0.35345">
        <ele>1082</ele>
        <time>2022-05-24 18:02:42</time>
      </trkpt>
      <trkpt lat="40.81565" lon="0.35342">
        <ele>1081.8</ele>
        <time>2022-05-24 18:02:43</time>
      </trkpt>
      <trkpt lat="40.81558" lon="0.35336">
        <ele>1081.2</ele>
        <time>2022-05-24 18:02:44</time>
      </trkpt>
      <trkpt lat="40.81553" lon="0.3533">
        <ele>1080.8</ele>
        <time>2022-05-24 18:02:45</time>
      </trkpt>
      <trkpt lat="40.81548" lon="0.35322">
        <ele>1080.4</ele>
        <time>2022-05-24 18:02:46</time>
      </trkpt>
      <trkpt lat="40.81544" lon="0.35315">
        <ele>1080.4</ele>
        <time>2022-05-24 18:02:47</time>
      </trkpt>
      <trkpt lat="40.81539" lon="0.35306">
        <ele>1080.2</ele>
        <time>2022-05-24 18:02:48</time>
      </trkpt>
      <trkpt lat="40.81535" lon="0.35299">
        <ele>1080.4</ele>
        <time>2022-05-24 18:02:49</time>
      </trkpt>
      <trkpt lat="40.81532" lon="0.35291">
        <ele>1080.4</ele>
        <time>2022-05-24 18:02:50</time>
      </trkpt>
      <trkpt lat="40.81528" lon="0.35285">
        <ele>1080.2</ele>
        <time>2022-05-24 18:02:51</time>
      </trkpt>
      <trkpt lat="40.81524" lon="0.35277">
        <ele>1079.8</ele>
        <time>2022-05-24 18:02:52</time>
      </trkpt>
      <trkpt lat="40.81521" lon="0.35272">
        <ele>1079.4</ele>
        <time>2022-05-24 18:02:53</time>
      </trkpt>
      <trkpt lat="40.81518" lon="0.35265">
        <ele>1079.4</ele>
        <time>2022-05-24 18:02:54</time>
      </trkpt>
      <trkpt lat="40.81514" lon="0.3526">
        <ele>1079.6</ele>
        <time>2022-05-24 18:02:55</time>
      </trkpt>
      <trkpt lat="40.81511" lon="0.35255">
        <ele>1079.8</ele>
        <time>2022-05-24 18:02:56</time>
      </trkpt>
      <trkpt lat="40.81509" lon="0.35251">
        <ele>1080</ele>
        <time>2022-05-24 18:02:57</time>
      </trkpt>
      <trkpt lat="40.81506" lon="0.35247">
        <ele>1080.4</ele>
        <time>2022-05-24 18:02:58</time>
      </trkpt>
      <trkpt lat="40.81503" lon="0.35244">
        <ele>1080.6</ele>
        <time>2022-05-24 18:02:59</time>
      </trkpt>
      <trkpt lat="40.81501" lon="0.35242">
        <ele>1080.8</ele>
        <time>2022-05-24 18:03:00</time>
      </trkpt>
      <trkpt lat="40.81499" lon="0.35239">
        <ele>1080.8</ele>
        <time>2022-05-24 18:03:01</time>
      </trkpt>
      <trkpt lat="40.81498" lon="0.35234">
        <ele>1080.8</ele>
        <time>2022-05-24 18:03:02</time>
      </trkpt>
      <trkpt lat="40.81497" lon="0.35231">
        <ele>1080.8</ele>
        <time>2022-05-24 18:03:03</time>
      </trkpt>
      <trkpt lat="40.81495" lon="0.35226">
        <ele>1081</ele>
        <time>2022-05-24 18:03:04</time>
      </trkpt>
      <trkpt lat="40.81493" lon="0.3522">
        <ele>1080.8</ele>
        <time>2022-05-24 18:03:05</time>
      </trkpt>
      <trkpt lat="40.81493" lon="0.35216">
        <ele>1080.8</ele>
        <time>2022-05-24 18:03:06</time>
      </trkpt>
      <trkpt lat="40.81491" lon="0.35212">
        <ele>1081</ele>
        <time>2022-05-24 18:03:07</time>
      </trkpt>
      <trkpt lat="40.81491" lon="0.35208">
        <ele>1081</ele>
        <time>2022-05-24 18:03:08</time>
      </trkpt>
      <trkpt lat="40.81491" lon="0.35205">
        <ele>1081.2</ele>
        <time>2022-05-24 18:03:09</time>
      </trkpt>
      <trkpt lat="40.8149" lon="0.35202">
        <ele>1081.4</ele>
        <time>2022-05-24 18:03:10</time>
      </trkpt>
      <trkpt lat="40.8149" lon="0.35199">
        <ele>1081.6</ele>
        <time>2022-05-24 18:03:11</time>
      </trkpt>
      <trkpt lat="40.8149" lon="0.35196">
        <ele>1081.6</ele>
        <time>2022-05-24 18:03:12</time>
      </trkpt>
      <trkpt lat="40.8149" lon="0.35193">
        <ele>1081.8</ele>
        <time>2022-05-24 18:03:13</time>
      </trkpt>
      <trkpt lat="40.81489" lon="0.35189">
        <ele>1082</ele>
        <time>2022-05-24 18:03:14</time>
      </trkpt>
      <trkpt lat="40.81488" lon="0.35185">
        <ele>1082.2</ele>
        <time>2022-05-24 18:03:15</time>
      </trkpt>
      <trkpt lat="40.81487" lon="0.35179">
        <ele>1082.2</ele>
        <time>2022-05-24 18:03:16</time>
      </trkpt>
      <trkpt lat="40.81485" lon="0.35174">
        <ele>1082.4</ele>
        <time>2022-05-24 18:03:17</time>
      </trkpt>
      <trkpt lat="40.81484" lon="0.35169">
        <ele>1082.6</ele>
        <time>2022-05-24 18:03:18</time>
      </trkpt>
      <trkpt lat="40.81482" lon="0.35165">
        <ele>1082.8</ele>
        <time>2022-05-24 18:03:19</time>
      </trkpt>
      <trkpt lat="40.81481" lon="0.35161">
        <ele>1083</ele>
        <time>2022-05-24 18:03:20</time>
      </trkpt>
      <trkpt lat="40.8148" lon="0.35155">
        <ele>1083</ele>
        <time>2022-05-24 18:03:21</time>
      </trkpt>
      <trkpt lat="40.81478" lon="0.35151">
        <ele>1083.2</ele>
        <time>2022-05-24 18:03:22</time>
      </trkpt>
      <trkpt lat="40.81477" lon="0.35148">
        <ele>1083.4</ele>
        <time>2022-05-24 18:03:23</time>
      </trkpt>
      <trkpt lat="40.81475" lon="0.35144">
        <ele>1083.6</ele>
        <time>2022-05-24 18:03:24</time>
      </trkpt>
      <trkpt lat="40.81474" lon="0.35141">
        <ele>1083.8</ele>
        <time>2022-05-24 18:03:25</time>
      </trkpt>
      <trkpt lat="40.81472" lon="0.35138">
        <ele>1084</ele>
        <time>2022-05-24 18:03:26</time>
      </trkpt>
      <trkpt lat="40.81471" lon="0.35135">
        <ele>1084</ele>
        <time>2022-05-24 18:03:27</time>
      </trkpt>
      <trkpt lat="40.81469" lon="0.35132">
        <ele>1084.2</ele>
        <time>2022-05-24 18:03:28</time>
      </trkpt>
      <trkpt lat="40.81468" lon="0.3513">
        <ele>1084.4</ele>
        <time>2022-05-24 18:03:29</time>
      </trkpt>
      <trkpt lat="40.81467" lon="0.35127">
        <ele>1084.6</ele>
        <time>2022-05-24 18:03:30</time>
      </trkpt>
      <trkpt lat="40.81466" lon="0.35125">
        <ele>1084.6</ele>
        <time>2022-05-24 18:03:31</time>
      </trkpt>
      <trkpt lat="40.81462" lon="0.35119">
        <ele>1085.2</ele>
        <time>2022-05-24 18:03:32</time>
      </trkpt>
      <trkpt lat="40.81461" lon="0.35116">
        <ele>1085.2</ele>
        <time>2022-05-24 18:03:33</time>
      </trkpt>
      <trkpt lat="40.81459" lon="0.35113">
        <ele>1085.6</ele>
        <time>2022-05-24 18:03:34</time>
      </trkpt>
      <trkpt lat="40.81457" lon="0.35109">
        <ele>1085.8</ele>
        <time>2022-05-24 18:03:35</time>
      </trkpt>
      <trkpt lat="40.81456" lon="0.35106">
        <ele>1086</ele>
        <time>2022-05-24 18:03:36</time>
      </trkpt>
      <trkpt lat="40.81454" lon="0.35103">
        <ele>1086.2</ele>
        <time>2022-05-24 18:03:37</time>
      </trkpt>
      <trkpt lat="40.81452" lon="0.351">
        <ele>1086.2</ele>
        <time>2022-05-24 18:03:38</time>
      </trkpt>
      <trkpt lat="40.81451" lon="0.35097">
        <ele>1086.4</ele>
        <time>2022-05-24 18:03:39</time>
      </trkpt>
      <trkpt lat="40.81449" lon="0.35094">
        <ele>1086.6</ele>
        <time>2022-05-24 18:03:40</time>
      </trkpt>
      <trkpt lat="40.81447" lon="0.35091">
        <ele>1086.6</ele>
        <time>2022-05-24 18:03:41</time>
      </trkpt>
      <trkpt lat="40.81445" lon="0.35088">
        <ele>1086.8</ele>
        <time>2022-05-24 18:03:42</time>
      </trkpt>
      <trkpt lat="40.81443" lon="0.35084">
        <ele>1087</ele>
        <time>2022-05-24 18:03:43</time>
      </trkpt>
      <trkpt lat="40.81442" lon="0.35082">
        <ele>1087.2</ele>
        <time>2022-05-24 18:03:44</time>
      </trkpt>
      <trkpt lat="40.8144" lon="0.3508">
        <ele>1087.4</ele>
        <time>2022-05-24 18:03:45</time>
      </trkpt>
      <trkpt lat="40.81438" lon="0.35078">
        <ele>1087.6</ele>
        <time>2022-05-24 18:03:46</time>
      </trkpt>
      <trkpt lat="40.81436" lon="0.35075">
        <ele>1087.8</ele>
        <time>2022-05-24 18:03:47</time>
      </trkpt>
      <trkpt lat="40.81435" lon="0.35074">
        <ele>1088</ele>
        <time>2022-05-24 18:03:48</time>
      </trkpt>
      <trkpt lat="40.81433" lon="0.35072">
        <ele>1088</ele>
        <time>2022-05-24 18:03:49</time>
      </trkpt>
      <trkpt lat="40.8143" lon="0.35071">
        <ele>1088.2</ele>
        <time>2022-05-24 18:03:50</time>
      </trkpt>
      <trkpt lat="40.81429" lon="0.3507">
        <ele>1088.6</ele>
        <time>2022-05-24 18:03:51</time>
      </trkpt>
      <trkpt lat="40.81427" lon="0.35068">
        <ele>1088.6</ele>
        <time>2022-05-24 18:03:52</time>
      </trkpt>
      <trkpt lat="40.81425" lon="0.35067">
        <ele>1088.8</ele>
        <time>2022-05-24 18:03:53</time>
      </trkpt>
      <trkpt lat="40.81423" lon="0.35065">
        <ele>1089</ele>
        <time>2022-05-24 18:03:54</time>
      </trkpt>
      <trkpt lat="40.81422" lon="0.35064">
        <ele>1089.2</ele>
        <time>2022-05-24 18:03:55</time>
      </trkpt>
      <trkpt lat="40.8142" lon="0.35063">
        <ele>1089.4</ele>
        <time>2022-05-24 18:03:56</time>
      </trkpt>
      <trkpt lat="40.81418" lon="0.3506">
        <ele>1089.4</ele>
        <time>2022-05-24 18:03:57</time>
      </trkpt>
      <trkpt lat="40.81417" lon="0.35059">
        <ele>1089.6</ele>
        <time>2022-05-24 18:03:58</time>
      </trkpt>
      <trkpt lat="40.81414" lon="0.35055">
        <ele>1089.8</ele>
        <time>2022-05-24 18:03:59</time>
      </trkpt>
      <trkpt lat="40.81413" lon="0.35054">
        <ele>1090</ele>
        <time>2022-05-24 18:04:00</time>
      </trkpt>
      <trkpt lat="40.81411" lon="0.35052">
        <ele>1090</ele>
        <time>2022-05-24 18:04:01</time>
      </trkpt>
      <trkpt lat="40.81409" lon="0.35049">
        <ele>1090.2</ele>
        <time>2022-05-24 18:04:02</time>
      </trkpt>
      <trkpt lat="40.81407" lon="0.35049">
        <ele>1090.4</ele>
        <time>2022-05-24 18:04:03</time>
      </trkpt>
      <trkpt lat="40.81406" lon="0.35048">
        <ele>1090.6</ele>
        <time>2022-05-24 18:04:04</time>
      </trkpt>
      <trkpt lat="40.81404" lon="0.35047">
        <ele>1090.6</ele>
        <time>2022-05-24 18:04:05</time>
      </trkpt>
      <trkpt lat="40.81403" lon="0.35046">
        <ele>1090.6</ele>
        <time>2022-05-24 18:04:06</time>
      </trkpt>
      <trkpt lat="40.81403" lon="0.35045">
        <ele>1090.8</ele>
        <time>2022-05-24 18:04:07</time>
      </trkpt>
      <trkpt lat="40.81401" lon="0.35045">
        <ele>1090.8</ele>
        <time>2022-05-24 18:04:08</time>
      </trkpt>
      <trkpt lat="40.814" lon="0.35044">
        <ele>1091</ele>
        <time>2022-05-24 18:04:09</time>
      </trkpt>
      <trkpt lat="40.81399" lon="0.35044">
        <ele>1091</ele>
        <time>2022-05-24 18:04:10</time>
      </trkpt>
      <trkpt lat="40.81397" lon="0.35042">
        <ele>1091.2</ele>
        <time>2022-05-24 18:04:11</time>
      </trkpt>
      <trkpt lat="40.81396" lon="0.35041">
        <ele>1091.2</ele>
        <time>2022-05-24 18:04:12</time>
      </trkpt>
      <trkpt lat="40.81395" lon="0.3504">
        <ele>1091.4</ele>
        <time>2022-05-24 18:04:13</time>
      </trkpt>
      <trkpt lat="40.81394" lon="0.35039">
        <ele>1091.4</ele>
        <time>2022-05-24 18:04:14</time>
      </trkpt>
      <trkpt lat="40.81392" lon="0.35038">
        <ele>1091.6</ele>
        <time>2022-05-24 18:04:15</time>
      </trkpt>
      <trkpt lat="40.81391" lon="0.35036">
        <ele>1091.8</ele>
        <time>2022-05-24 18:04:16</time>
      </trkpt>
      <trkpt lat="40.81389" lon="0.35035">
        <ele>1091.8</ele>
        <time>2022-05-24 18:04:17</time>
      </trkpt>
      <trkpt lat="40.81388" lon="0.35034">
        <ele>1092</ele>
        <time>2022-05-24 18:04:18</time>
      </trkpt>
      <trkpt lat="40.81385" lon="0.35033">
        <ele>1092.2</ele>
        <time>2022-05-24 18:04:19</time>
      </trkpt>
      <trkpt lat="40.81383" lon="0.35031">
        <ele>1092.2</ele>
        <time>2022-05-24 18:04:20</time>
      </trkpt>
      <trkpt lat="40.8138" lon="0.35027">
        <ele>1092.4</ele>
        <time>2022-05-24 18:04:21</time>
      </trkpt>
      <trkpt lat="40.81377" lon="0.35025">
        <ele>1092.6</ele>
        <time>2022-05-24 18:04:22</time>
      </trkpt>
      <trkpt lat="40.81375" lon="0.35021">
        <ele>1092.6</ele>
        <time>2022-05-24 18:04:23</time>
      </trkpt>
      <trkpt lat="40.81373" lon="0.35018">
        <ele>1092.8</ele>
        <time>2022-05-24 18:04:24</time>
      </trkpt>
      <trkpt lat="40.81371" lon="0.35016">
        <ele>1093</ele>
        <time>2022-05-24 18:04:25</time>
      </trkpt>
      <trkpt lat="40.81369" lon="0.35013">
        <ele>1093.2</ele>
        <time>2022-05-24 18:04:26</time>
      </trkpt>
      <trkpt lat="40.81367" lon="0.35011">
        <ele>1093.2</ele>
        <time>2022-05-24 18:04:27</time>
      </trkpt>
      <trkpt lat="40.81366" lon="0.35009">
        <ele>1093.4</ele>
        <time>2022-05-24 18:04:28</time>
      </trkpt>
      <trkpt lat="40.81364" lon="0.35008">
        <ele>1093.6</ele>
        <time>2022-05-24 18:04:29</time>
      </trkpt>
      <trkpt lat="40.81363" lon="0.35006">
        <ele>1093.8</ele>
        <time>2022-05-24 18:04:30</time>
      </trkpt>
      <trkpt lat="40.81361" lon="0.35004">
        <ele>1093.8</ele>
        <time>2022-05-24 18:04:31</time>
      </trkpt>
      <trkpt lat="40.81359" lon="0.35003">
        <ele>1094</ele>
        <time>2022-05-24 18:04:32</time>
      </trkpt>
      <trkpt lat="40.81358" lon="0.35001">
        <ele>1094.2</ele>
        <time>2022-05-24 18:04:33</time>
      </trkpt>
      <trkpt lat="40.81356" lon="0.35001">
        <ele>1094.4</ele>
        <time>2022-05-24 18:04:34</time>
      </trkpt>
      <trkpt lat="40.81354" lon="0.35">
        <ele>1094.4</ele>
        <time>2022-05-24 18:04:35</time>
      </trkpt>
      <trkpt lat="40.81352" lon="0.35">
        <ele>1094.6</ele>
        <time>2022-05-24 18:04:36</time>
      </trkpt>
      <trkpt lat="40.81351" lon="0.34999">
        <ele>1094.8</ele>
        <time>2022-05-24 18:04:37</time>
      </trkpt>
      <trkpt lat="40.8135" lon="0.34998">
        <ele>1094.8</ele>
        <time>2022-05-24 18:04:38</time>
      </trkpt>
      <trkpt lat="40.81348" lon="0.34997">
        <ele>1095</ele>
        <time>2022-05-24 18:04:39</time>
      </trkpt>
      <trkpt lat="40.81347" lon="0.34995">
        <ele>1095.2</ele>
        <time>2022-05-24 18:04:40</time>
      </trkpt>
      <trkpt lat="40.81345" lon="0.34993">
        <ele>1095.4</ele>
        <time>2022-05-24 18:04:41</time>
      </trkpt>
      <trkpt lat="40.81344" lon="0.3499">
        <ele>1095.6</ele>
        <time>2022-05-24 18:04:42</time>
      </trkpt>
      <trkpt lat="40.81342" lon="0.34987">
        <ele>1095.8</ele>
        <time>2022-05-24 18:04:43</time>
      </trkpt>
      <trkpt lat="40.8134" lon="0.34986">
        <ele>1096</ele>
        <time>2022-05-24 18:04:44</time>
      </trkpt>
      <trkpt lat="40.81339" lon="0.34984">
        <ele>1096.2</ele>
        <time>2022-05-24 18:04:45</time>
      </trkpt>
      <trkpt lat="40.81338" lon="0.34982">
        <ele>1096.2</ele>
        <time>2022-05-24 18:04:46</time>
      </trkpt>
      <trkpt lat="40.81337" lon="0.3498">
        <ele>1096.4</ele>
        <time>2022-05-24 18:04:47</time>
      </trkpt>
      <trkpt lat="40.81336" lon="0.34978">
        <ele>1096.6</ele>
        <time>2022-05-24 18:04:48</time>
      </trkpt>
      <trkpt lat="40.81335" lon="0.34976">
        <ele>1096.6</ele>
        <time>2022-05-24 18:04:49</time>
      </trkpt>
      <trkpt lat="40.81333" lon="0.34973">
        <ele>1096.8</ele>
        <time>2022-05-24 18:04:50</time>
      </trkpt>
      <trkpt lat="40.81332" lon="0.3497">
        <ele>1097</ele>
        <time>2022-05-24 18:04:51</time>
      </trkpt>
      <trkpt lat="40.81331" lon="0.34968">
        <ele>1097.2</ele>
        <time>2022-05-24 18:04:52</time>
      </trkpt>
      <trkpt lat="40.8133" lon="0.34966">
        <ele>1097.4</ele>
        <time>2022-05-24 18:04:53</time>
      </trkpt>
      <trkpt lat="40.81329" lon="0.34965">
        <ele>1097.6</ele>
        <time>2022-05-24 18:04:54</time>
      </trkpt>
      <trkpt lat="40.81328" lon="0.34963">
        <ele>1097.8</ele>
        <time>2022-05-24 18:04:55</time>
      </trkpt>
      <trkpt lat="40.81326" lon="0.34962">
        <ele>1098</ele>
        <time>2022-05-24 18:04:56</time>
      </trkpt>
      <trkpt lat="40.81325" lon="0.34959">
        <ele>1098</ele>
        <time>2022-05-24 18:04:57</time>
      </trkpt>
      <trkpt lat="40.81324" lon="0.34957">
        <ele>1098.2</ele>
        <time>2022-05-24 18:04:58</time>
      </trkpt>
      <trkpt lat="40.81322" lon="0.34955">
        <ele>1098.4</ele>
        <time>2022-05-24 18:04:59</time>
      </trkpt>
      <trkpt lat="40.81321" lon="0.34953">
        <ele>1098.4</ele>
        <time>2022-05-24 18:05:00</time>
      </trkpt>
      <trkpt lat="40.8132" lon="0.3495">
        <ele>1098.6</ele>
        <time>2022-05-24 18:05:01</time>
      </trkpt>
      <trkpt lat="40.81319" lon="0.34948">
        <ele>1098.8</ele>
        <time>2022-05-24 18:05:02</time>
      </trkpt>
      <trkpt lat="40.81318" lon="0.34946">
        <ele>1099</ele>
        <time>2022-05-24 18:05:03</time>
      </trkpt>
      <trkpt lat="40.81318" lon="0.34944">
        <ele>1099</ele>
        <time>2022-05-24 18:05:04</time>
      </trkpt>
      <trkpt lat="40.81317" lon="0.34942">
        <ele>1099.4</ele>
        <time>2022-05-24 18:05:05</time>
      </trkpt>
      <trkpt lat="40.81316" lon="0.3494">
        <ele>1099.6</ele>
        <time>2022-05-24 18:05:06</time>
      </trkpt>
      <trkpt lat="40.81315" lon="0.34937">
        <ele>1099.8</ele>
        <time>2022-05-24 18:05:07</time>
      </trkpt>
      <trkpt lat="40.81314" lon="0.34935">
        <ele>1100</ele>
        <time>2022-05-24 18:05:08</time>
      </trkpt>
      <trkpt lat="40.81314" lon="0.34933">
        <ele>1100.2</ele>
        <time>2022-05-24 18:05:09</time>
      </trkpt>
      <trkpt lat="40.81314" lon="0.34931">
        <ele>1100.4</ele>
        <time>2022-05-24 18:05:10</time>
      </trkpt>
      <trkpt lat="40.81313" lon="0.34929">
        <ele>1100.6</ele>
        <time>2022-05-24 18:05:11</time>
      </trkpt>
      <trkpt lat="40.81313" lon="0.34926">
        <ele>1100.8</ele>
        <time>2022-05-24 18:05:12</time>
      </trkpt>
      <trkpt lat="40.81313" lon="0.34923">
        <ele>1101</ele>
        <time>2022-05-24 18:05:13</time>
      </trkpt>
      <trkpt lat="40.81312" lon="0.34921">
        <ele>1101.2</ele>
        <time>2022-05-24 18:05:14</time>
      </trkpt>
      <trkpt lat="40.81311" lon="0.34919">
        <ele>1101.4</ele>
        <time>2022-05-24 18:05:15</time>
      </trkpt>
      <trkpt lat="40.81311" lon="0.34916">
        <ele>1101.6</ele>
        <time>2022-05-24 18:05:16</time>
      </trkpt>
      <trkpt lat="40.81311" lon="0.34913">
        <ele>1101.8</ele>
        <time>2022-05-24 18:05:17</time>
      </trkpt>
      <trkpt lat="40.81311" lon="0.3491">
        <ele>1102</ele>
        <time>2022-05-24 18:05:18</time>
      </trkpt>
      <trkpt lat="40.8131" lon="0.34908">
        <ele>1102.2</ele>
        <time>2022-05-24 18:05:19</time>
      </trkpt>
      <trkpt lat="40.81311" lon="0.34905">
        <ele>1102.4</ele>
        <time>2022-05-24 18:05:20</time>
      </trkpt>
      <trkpt lat="40.81311" lon="0.34904">
        <ele>1102.6</ele>
        <time>2022-05-24 18:05:21</time>
      </trkpt>
      <trkpt lat="40.81312" lon="0.34902">
        <ele>1102.8</ele>
        <time>2022-05-24 18:05:22</time>
      </trkpt>
      <trkpt lat="40.81312" lon="0.349">
        <ele>1103</ele>
        <time>2022-05-24 18:05:23</time>
      </trkpt>
      <trkpt lat="40.81312" lon="0.34898">
        <ele>1103.2</ele>
        <time>2022-05-24 18:05:24</time>
      </trkpt>
      <trkpt lat="40.81312" lon="0.34896">
        <ele>1103.4</ele>
        <time>2022-05-24 18:05:25</time>
      </trkpt>
      <trkpt lat="40.81312" lon="0.34895">
        <ele>1103.6</ele>
        <time>2022-05-24 18:05:26</time>
      </trkpt>
      <trkpt lat="40.81312" lon="0.34893">
        <ele>1103.6</ele>
        <time>2022-05-24 18:05:27</time>
      </trkpt>
      <trkpt lat="40.81312" lon="0.34892">
        <ele>1104</ele>
        <time>2022-05-24 18:05:28</time>
      </trkpt>
      <trkpt lat="40.81311" lon="0.3489">
        <ele>1104.2</ele>
        <time>2022-05-24 18:05:29</time>
      </trkpt>
      <trkpt lat="40.81311" lon="0.34888">
        <ele>1104.4</ele>
        <time>2022-05-24 18:05:30</time>
      </trkpt>
      <trkpt lat="40.81311" lon="0.34885">
        <ele>1104.6</ele>
        <time>2022-05-24 18:05:31</time>
      </trkpt>
      <trkpt lat="40.81311" lon="0.34882">
        <ele>1104.8</ele>
        <time>2022-05-24 18:05:32</time>
      </trkpt>
      <trkpt lat="40.81311" lon="0.3488">
        <ele>1105</ele>
        <time>2022-05-24 18:05:33</time>
      </trkpt>
      <trkpt lat="40.8131" lon="0.34878">
        <ele>1105.2</ele>
        <time>2022-05-24 18:05:34</time>
      </trkpt>
      <trkpt lat="40.8131" lon="0.34876">
        <ele>1105.4</ele>
        <time>2022-05-24 18:05:35</time>
      </trkpt>
      <trkpt lat="40.8131" lon="0.34875">
        <ele>1105.6</ele>
        <time>2022-05-24 18:05:36</time>
      </trkpt>
      <trkpt lat="40.81311" lon="0.34874">
        <ele>1105.8</ele>
        <time>2022-05-24 18:05:37</time>
      </trkpt>
      <trkpt lat="40.81311" lon="0.34872">
        <ele>1106</ele>
        <time>2022-05-24 18:05:38</time>
      </trkpt>
      <trkpt lat="40.81311" lon="0.3487">
        <ele>1106.2</ele>
        <time>2022-05-24 18:05:39</time>
      </trkpt>
      <trkpt lat="40.81311" lon="0.34868">
        <ele>1106.4</ele>
        <time>2022-05-24 18:05:40</time>
      </trkpt>
      <trkpt lat="40.81311" lon="0.34866">
        <ele>1106.6</ele>
        <time>2022-05-24 18:05:41</time>
      </trkpt>
      <trkpt lat="40.81311" lon="0.34863">
        <ele>1106.8</ele>
        <time>2022-05-24 18:05:42</time>
      </trkpt>
      <trkpt lat="40.81311" lon="0.3486">
        <ele>1107</ele>
        <time>2022-05-24 18:05:43</time>
      </trkpt>
      <trkpt lat="40.8131" lon="0.34858">
        <ele>1107.2</ele>
        <time>2022-05-24 18:05:44</time>
      </trkpt>
      <trkpt lat="40.8131" lon="0.34856">
        <ele>1107.4</ele>
        <time>2022-05-24 18:05:45</time>
      </trkpt>
      <trkpt lat="40.8131" lon="0.34854">
        <ele>1107.6</ele>
        <time>2022-05-24 18:05:46</time>
      </trkpt>
      <trkpt lat="40.8131" lon="0.34851">
        <ele>1107.8</ele>
        <time>2022-05-24 18:05:47</time>
      </trkpt>
      <trkpt lat="40.8131" lon="0.3485">
        <ele>1108</ele>
        <time>2022-05-24 18:05:48</time>
      </trkpt>
      <trkpt lat="40.81309" lon="0.34848">
        <ele>1108.2</ele>
        <time>2022-05-24 18:05:49</time>
      </trkpt>
      <trkpt lat="40.81309" lon="0.34846">
        <ele>1108.4</ele>
        <time>2022-05-24 18:05:50</time>
      </trkpt>
      <trkpt lat="40.81309" lon="0.34843">
        <ele>1108.6</ele>
        <time>2022-05-24 18:05:51</time>
      </trkpt>
      <trkpt lat="40.81309" lon="0.34842">
        <ele>1109</ele>
        <time>2022-05-24 18:05:52</time>
      </trkpt>
      <trkpt lat="40.81308" lon="0.3484">
        <ele>1109.2</ele>
        <time>2022-05-24 18:05:53</time>
      </trkpt>
      <trkpt lat="40.81307" lon="0.34838">
        <ele>1109.4</ele>
        <time>2022-05-24 18:05:54</time>
      </trkpt>
      <trkpt lat="40.81306" lon="0.34837">
        <ele>1109.6</ele>
        <time>2022-05-24 18:05:55</time>
      </trkpt>
      <trkpt lat="40.81305" lon="0.34835">
        <ele>1109.8</ele>
        <time>2022-05-24 18:05:56</time>
      </trkpt>
      <trkpt lat="40.81304" lon="0.34834">
        <ele>1110</ele>
        <time>2022-05-24 18:05:57</time>
      </trkpt>
      <trkpt lat="40.81302" lon="0.34833">
        <ele>1110.2</ele>
        <time>2022-05-24 18:05:58</time>
      </trkpt>
      <trkpt lat="40.81301" lon="0.34833">
        <ele>1110.4</ele>
        <time>2022-05-24 18:05:59</time>
      </trkpt>
      <trkpt lat="40.81299" lon="0.34833">
        <ele>1110.6</ele>
        <time>2022-05-24 18:06:00</time>
      </trkpt>
      <trkpt lat="40.81297" lon="0.34833">
        <ele>1110.8</ele>
        <time>2022-05-24 18:06:01</time>
      </trkpt>
      <trkpt lat="40.81296" lon="0.34833">
        <ele>1111</ele>
        <time>2022-05-24 18:06:02</time>
      </trkpt>
      <trkpt lat="40.81294" lon="0.34834">
        <ele>1111.2</ele>
        <time>2022-05-24 18:06:03</time>
      </trkpt>
      <trkpt lat="40.81293" lon="0.34834">
        <ele>1111.4</ele>
        <time>2022-05-24 18:06:04</time>
      </trkpt>
      <trkpt lat="40.81292" lon="0.34835">
        <ele>1111.6</ele>
        <time>2022-05-24 18:06:05</time>
      </trkpt>
      <trkpt lat="40.8129" lon="0.34835">
        <ele>1111.8</ele>
        <time>2022-05-24 18:06:06</time>
      </trkpt>
      <trkpt lat="40.81289" lon="0.34836">
        <ele>1112</ele>
        <time>2022-05-24 18:06:07</time>
      </trkpt>
      <trkpt lat="40.81288" lon="0.34837">
        <ele>1112.2</ele>
        <time>2022-05-24 18:06:08</time>
      </trkpt>
      <trkpt lat="40.81287" lon="0.34838">
        <ele>1112.4</ele>
        <time>2022-05-24 18:06:09</time>
      </trkpt>
      <trkpt lat="40.81286" lon="0.34839">
        <ele>1112.6</ele>
        <time>2022-05-24 18:06:10</time>
      </trkpt>
      <trkpt lat="40.81285" lon="0.34841">
        <ele>1112.8</ele>
        <time>2022-05-24 18:06:11</time>
      </trkpt>
      <trkpt lat="40.81285" lon="0.34843">
        <ele>1113</ele>
        <time>2022-05-24 18:06:12</time>
      </trkpt>
      <trkpt lat="40.81285" lon="0.34844">
        <ele>1113.2</ele>
        <time>2022-05-24 18:06:13</time>
      </trkpt>
      <trkpt lat="40.81284" lon="0.34846">
        <ele>1113.4</ele>
        <time>2022-05-24 18:06:14</time>
      </trkpt>
      <trkpt lat="40.81284" lon="0.34848">
        <ele>1113.6</ele>
        <time>2022-05-24 18:06:15</time>
      </trkpt>
      <trkpt lat="40.81283" lon="0.3485">
        <ele>1113.8</ele>
        <time>2022-05-24 18:06:16</time>
      </trkpt>
      <trkpt lat="40.81283" lon="0.34852">
        <ele>1114</ele>
        <time>2022-05-24 18:06:17</time>
      </trkpt>
      <trkpt lat="40.81282" lon="0.34854">
        <ele>1114.2</ele>
        <time>2022-05-24 18:06:18</time>
      </trkpt>
      <trkpt lat="40.81282" lon="0.34855">
        <ele>1114.4</ele>
        <time>2022-05-24 18:06:19</time>
      </trkpt>
      <trkpt lat="40.81281" lon="0.34856">
        <ele>1114.6</ele>
        <time>2022-05-24 18:06:20</time>
      </trkpt>
      <trkpt lat="40.81281" lon="0.34858">
        <ele>1114.8</ele>
        <time>2022-05-24 18:06:21</time>
      </trkpt>
      <trkpt lat="40.8128" lon="0.3486">
        <ele>1115.2</ele>
        <time>2022-05-24 18:06:22</time>
      </trkpt>
      <trkpt lat="40.8128" lon="0.34862">
        <ele>1115.4</ele>
        <time>2022-05-24 18:06:23</time>
      </trkpt>
      <trkpt lat="40.8128" lon="0.34864">
        <ele>1115.6</ele>
        <time>2022-05-24 18:06:24</time>
      </trkpt>
      <trkpt lat="40.8128" lon="0.34865">
        <ele>1115.8</ele>
        <time>2022-05-24 18:06:25</time>
      </trkpt>
      <trkpt lat="40.8128" lon="0.34867">
        <ele>1116</ele>
        <time>2022-05-24 18:06:26</time>
      </trkpt>
      <trkpt lat="40.81279" lon="0.34869">
        <ele>1116.2</ele>
        <time>2022-05-24 18:06:27</time>
      </trkpt>
      <trkpt lat="40.81279" lon="0.34871">
        <ele>1116.4</ele>
        <time>2022-05-24 18:06:28</time>
      </trkpt>
      <trkpt lat="40.81279" lon="0.34874">
        <ele>1116.6</ele>
        <time>2022-05-24 18:06:29</time>
      </trkpt>
      <trkpt lat="40.81281" lon="0.34882">
        <ele>1116.8</ele>
        <time>2022-05-24 18:06:30</time>
      </trkpt>
      <trkpt lat="40.81281" lon="0.34883">
        <ele>1117</ele>
        <time>2022-05-24 18:06:31</time>
      </trkpt>
      <trkpt lat="40.81279" lon="0.34883">
        <ele>1117.2</ele>
        <time>2022-05-24 18:06:32</time>
      </trkpt>
      <trkpt lat="40.81278" lon="0.34884">
        <ele>1117.4</ele>
        <time>2022-05-24 18:06:33</time>
      </trkpt>
      <trkpt lat="40.81278" lon="0.34886">
        <ele>1117.6</ele>
        <time>2022-05-24 18:06:34</time>
      </trkpt>
      <trkpt lat="40.81278" lon="0.34887">
        <ele>1117.8</ele>
        <time>2022-05-24 18:06:35</time>
      </trkpt>
      <trkpt lat="40.81277" lon="0.34889">
        <ele>1118</ele>
        <time>2022-05-24 18:06:36</time>
      </trkpt>
      <trkpt lat="40.81277" lon="0.34891">
        <ele>1118.2</ele>
        <time>2022-05-24 18:06:37</time>
      </trkpt>
      <trkpt lat="40.81276" lon="0.34892">
        <ele>1118.4</ele>
        <time>2022-05-24 18:06:38</time>
      </trkpt>
      <trkpt lat="40.81276" lon="0.34894">
        <ele>1118.6</ele>
        <time>2022-05-24 18:06:39</time>
      </trkpt>
      <trkpt lat="40.81276" lon="0.34896">
        <ele>1118.8</ele>
        <time>2022-05-24 18:06:40</time>
      </trkpt>
      <trkpt lat="40.81276" lon="0.34897">
        <ele>1119</ele>
        <time>2022-05-24 18:06:41</time>
      </trkpt>
      <trkpt lat="40.81276" lon="0.34899">
        <ele>1119.2</ele>
        <time>2022-05-24 18:06:42</time>
      </trkpt>
      <trkpt lat="40.81276" lon="0.34901">
        <ele>1119.4</ele>
        <time>2022-05-24 18:06:43</time>
      </trkpt>
      <trkpt lat="40.81276" lon="0.34902">
        <ele>1119.6</ele>
        <time>2022-05-24 18:06:44</time>
      </trkpt>
      <trkpt lat="40.81276" lon="0.34904">
        <ele>1119.8</ele>
        <time>2022-05-24 18:06:45</time>
      </trkpt>
      <trkpt lat="40.81276" lon="0.34906">
        <ele>1120</ele>
        <time>2022-05-24 18:06:46</time>
      </trkpt>
      <trkpt lat="40.81275" lon="0.34908">
        <ele>1120</ele>
        <time>2022-05-24 18:06:47</time>
      </trkpt>
      <trkpt lat="40.81275" lon="0.3491">
        <ele>1120.2</ele>
        <time>2022-05-24 18:06:48</time>
      </trkpt>
      <trkpt lat="40.81275" lon="0.34911">
        <ele>1120.4</ele>
        <time>2022-05-24 18:06:49</time>
      </trkpt>
      <trkpt lat="40.81275" lon="0.34913">
        <ele>1120.6</ele>
        <time>2022-05-24 18:06:50</time>
      </trkpt>
      <trkpt lat="40.81275" lon="0.34915">
        <ele>1120.8</ele>
        <time>2022-05-24 18:06:51</time>
      </trkpt>
      <trkpt lat="40.81275" lon="0.34916">
        <ele>1121</ele>
        <time>2022-05-24 18:06:52</time>
      </trkpt>
      <trkpt lat="40.81275" lon="0.34918">
        <ele>1121.2</ele>
        <time>2022-05-24 18:06:53</time>
      </trkpt>
      <trkpt lat="40.81274" lon="0.34919">
        <ele>1121.4</ele>
        <time>2022-05-24 18:06:54</time>
      </trkpt>
      <trkpt lat="40.81274" lon="0.3492">
        <ele>1121.6</ele>
        <time>2022-05-24 18:06:55</time>
      </trkpt>
      <trkpt lat="40.81274" lon="0.34922">
        <ele>1121.8</ele>
        <time>2022-05-24 18:06:56</time>
      </trkpt>
      <trkpt lat="40.81273" lon="0.34924">
        <ele>1122</ele>
        <time>2022-05-24 18:06:57</time>
      </trkpt>
      <trkpt lat="40.81273" lon="0.34925">
        <ele>1122.2</ele>
        <time>2022-05-24 18:06:58</time>
      </trkpt>
      <trkpt lat="40.81272" lon="0.34927">
        <ele>1122.4</ele>
        <time>2022-05-24 18:06:59</time>
      </trkpt>
      <trkpt lat="40.81271" lon="0.34929">
        <ele>1122.6</ele>
        <time>2022-05-24 18:07:00</time>
      </trkpt>
      <trkpt lat="40.81271" lon="0.3493">
        <ele>1122.8</ele>
        <time>2022-05-24 18:07:01</time>
      </trkpt>
      <trkpt lat="40.81271" lon="0.34932">
        <ele>1123</ele>
        <time>2022-05-24 18:07:02</time>
      </trkpt>
      <trkpt lat="40.8127" lon="0.34933">
        <ele>1123.2</ele>
        <time>2022-05-24 18:07:03</time>
      </trkpt>
      <trkpt lat="40.81269" lon="0.34935">
        <ele>1123.2</ele>
        <time>2022-05-24 18:07:04</time>
      </trkpt>
      <trkpt lat="40.81269" lon="0.34937">
        <ele>1123.4</ele>
        <time>2022-05-24 18:07:05</time>
      </trkpt>
      <trkpt lat="40.81269" lon="0.34939">
        <ele>1123.6</ele>
        <time>2022-05-24 18:07:06</time>
      </trkpt>
      <trkpt lat="40.81268" lon="0.3494">
        <ele>1123.8</ele>
        <time>2022-05-24 18:07:07</time>
      </trkpt>
      <trkpt lat="40.81268" lon="0.34943">
        <ele>1124</ele>
        <time>2022-05-24 18:07:08</time>
      </trkpt>
      <trkpt lat="40.81268" lon="0.34945">
        <ele>1124.2</ele>
        <time>2022-05-24 18:07:09</time>
      </trkpt>
      <trkpt lat="40.81268" lon="0.34946">
        <ele>1124.4</ele>
        <time>2022-05-24 18:07:10</time>
      </trkpt>
      <trkpt lat="40.81268" lon="0.34948">
        <ele>1124.6</ele>
        <time>2022-05-24 18:07:11</time>
      </trkpt>
      <trkpt lat="40.81266" lon="0.3495">
        <ele>1124.8</ele>
        <time>2022-05-24 18:07:12</time>
      </trkpt>
      <trkpt lat="40.81265" lon="0.34951">
        <ele>1125</ele>
        <time>2022-05-24 18:07:13</time>
      </trkpt>
      <trkpt lat="40.81264" lon="0.34953">
        <ele>1125</ele>
        <time>2022-05-24 18:07:14</time>
      </trkpt>
      <trkpt lat="40.81265" lon="0.34955">
        <ele>1125.2</ele>
        <time>2022-05-24 18:07:15</time>
      </trkpt>
      <trkpt lat="40.81266" lon="0.34957">
        <ele>1125.4</ele>
        <time>2022-05-24 18:07:16</time>
      </trkpt>
      <trkpt lat="40.81266" lon="0.34959">
        <ele>1125.6</ele>
        <time>2022-05-24 18:07:17</time>
      </trkpt>
      <trkpt lat="40.81265" lon="0.3496">
        <ele>1125.8</ele>
        <time>2022-05-24 18:07:18</time>
      </trkpt>
      <trkpt lat="40.81264" lon="0.34961">
        <ele>1126</ele>
        <time>2022-05-24 18:07:19</time>
      </trkpt>
      <trkpt lat="40.81263" lon="0.34963">
        <ele>1126.2</ele>
        <time>2022-05-24 18:07:20</time>
      </trkpt>
      <trkpt lat="40.81262" lon="0.34965">
        <ele>1126.2</ele>
        <time>2022-05-24 18:07:21</time>
      </trkpt>
      <trkpt lat="40.81261" lon="0.34967">
        <ele>1126.4</ele>
        <time>2022-05-24 18:07:22</time>
      </trkpt>
      <trkpt lat="40.81261" lon="0.34969">
        <ele>1126.6</ele>
        <time>2022-05-24 18:07:23</time>
      </trkpt>
      <trkpt lat="40.8126" lon="0.34971">
        <ele>1126.8</ele>
        <time>2022-05-24 18:07:24</time>
      </trkpt>
      <trkpt lat="40.8126" lon="0.34973">
        <ele>1126.8</ele>
        <time>2022-05-24 18:07:25</time>
      </trkpt>
      <trkpt lat="40.81259" lon="0.34975">
        <ele>1127</ele>
        <time>2022-05-24 18:07:26</time>
      </trkpt>
      <trkpt lat="40.81258" lon="0.34977">
        <ele>1127.2</ele>
        <time>2022-05-24 18:07:27</time>
      </trkpt>
      <trkpt lat="40.81258" lon="0.34979">
        <ele>1127.2</ele>
        <time>2022-05-24 18:07:28</time>
      </trkpt>
      <trkpt lat="40.81256" lon="0.34981">
        <ele>1127.4</ele>
        <time>2022-05-24 18:07:29</time>
      </trkpt>
      <trkpt lat="40.81256" lon="0.34983">
        <ele>1127.6</ele>
        <time>2022-05-24 18:07:30</time>
      </trkpt>
      <trkpt lat="40.81255" lon="0.34985">
        <ele>1127.6</ele>
        <time>2022-05-24 18:07:31</time>
      </trkpt>
      <trkpt lat="40.81254" lon="0.34987">
        <ele>1127.6</ele>
        <time>2022-05-24 18:07:32</time>
      </trkpt>
      <trkpt lat="40.81253" lon="0.34989">
        <ele>1127.4</ele>
        <time>2022-05-24 18:07:33</time>
      </trkpt>
      <trkpt lat="40.81252" lon="0.34991">
        <ele>1127.2</ele>
        <time>2022-05-24 18:07:34</time>
      </trkpt>
      <trkpt lat="40.81251" lon="0.34993">
        <ele>1127</ele>
        <time>2022-05-24 18:07:35</time>
      </trkpt>
      <trkpt lat="40.8125" lon="0.34995">
        <ele>1127</ele>
        <time>2022-05-24 18:07:36</time>
      </trkpt>
      <trkpt lat="40.81249" lon="0.34997">
        <ele>1126.8</ele>
        <time>2022-05-24 18:07:37</time>
      </trkpt>
      <trkpt lat="40.81249" lon="0.35">
        <ele>1126.8</ele>
        <time>2022-05-24 18:07:38</time>
      </trkpt>
      <trkpt lat="40.81249" lon="0.35002">
        <ele>1126.8</ele>
        <time>2022-05-24 18:07:39</time>
      </trkpt>
      <trkpt lat="40.81248" lon="0.35005">
        <ele>1126.8</ele>
        <time>2022-05-24 18:07:40</time>
      </trkpt>
      <trkpt lat="40.81248" lon="0.35007">
        <ele>1126.8</ele>
        <time>2022-05-24 18:07:41</time>
      </trkpt>
      <trkpt lat="40.81248" lon="0.35009">
        <ele>1127</ele>
        <time>2022-05-24 18:07:42</time>
      </trkpt>
      <trkpt lat="40.81247" lon="0.35011">
        <ele>1127</ele>
        <time>2022-05-24 18:07:43</time>
      </trkpt>
      <trkpt lat="40.81246" lon="0.35013">
        <ele>1127.2</ele>
        <time>2022-05-24 18:07:44</time>
      </trkpt>
      <trkpt lat="40.81246" lon="0.35015">
        <ele>1127.4</ele>
        <time>2022-05-24 18:07:45</time>
      </trkpt>
      <trkpt lat="40.81245" lon="0.35017">
        <ele>1127.6</ele>
        <time>2022-05-24 18:07:46</time>
      </trkpt>
      <trkpt lat="40.81245" lon="0.35019">
        <ele>1127.6</ele>
        <time>2022-05-24 18:07:47</time>
      </trkpt>
      <trkpt lat="40.81244" lon="0.35022">
        <ele>1127.8</ele>
        <time>2022-05-24 18:07:48</time>
      </trkpt>
      <trkpt lat="40.81244" lon="0.35024">
        <ele>1128</ele>
        <time>2022-05-24 18:07:49</time>
      </trkpt>
      <trkpt lat="40.81243" lon="0.35026">
        <ele>1128</ele>
        <time>2022-05-24 18:07:50</time>
      </trkpt>
      <trkpt lat="40.81242" lon="0.35028">
        <ele>1128.2</ele>
        <time>2022-05-24 18:07:51</time>
      </trkpt>
      <trkpt lat="40.81242" lon="0.35029">
        <ele>1128.2</ele>
        <time>2022-05-24 18:07:52</time>
      </trkpt>
      <trkpt lat="40.81241" lon="0.35031">
        <ele>1128.2</ele>
        <time>2022-05-24 18:07:53</time>
      </trkpt>
      <trkpt lat="40.8124" lon="0.35033">
        <ele>1128.4</ele>
        <time>2022-05-24 18:07:54</time>
      </trkpt>
      <trkpt lat="40.8124" lon="0.35035">
        <ele>1128.6</ele>
        <time>2022-05-24 18:07:55</time>
      </trkpt>
      <trkpt lat="40.81239" lon="0.35037">
        <ele>1128.8</ele>
        <time>2022-05-24 18:07:56</time>
      </trkpt>
      <trkpt lat="40.81239" lon="0.35039">
        <ele>1129</ele>
        <time>2022-05-24 18:07:57</time>
      </trkpt>
      <trkpt lat="40.81238" lon="0.35041">
        <ele>1129</ele>
        <time>2022-05-24 18:07:58</time>
      </trkpt>
      <trkpt lat="40.81237" lon="0.35043">
        <ele>1129.2</ele>
        <time>2022-05-24 18:07:59</time>
      </trkpt>
      <trkpt lat="40.81236" lon="0.35045">
        <ele>1129.4</ele>
        <time>2022-05-24 18:08:00</time>
      </trkpt>
      <trkpt lat="40.81236" lon="0.35047">
        <ele>1129.6</ele>
        <time>2022-05-24 18:08:01</time>
      </trkpt>
      <trkpt lat="40.81236" lon="0.35049">
        <ele>1129.8</ele>
        <time>2022-05-24 18:08:02</time>
      </trkpt>
      <trkpt lat="40.81235" lon="0.3505">
        <ele>1130</ele>
        <time>2022-05-24 18:08:03</time>
      </trkpt>
      <trkpt lat="40.81236" lon="0.35053">
        <ele>1130.4</ele>
        <time>2022-05-24 18:08:04</time>
      </trkpt>
      <trkpt lat="40.81236" lon="0.35055">
        <ele>1130.6</ele>
        <time>2022-05-24 18:08:05</time>
      </trkpt>
      <trkpt lat="40.81235" lon="0.35056">
        <ele>1130.8</ele>
        <time>2022-05-24 18:08:06</time>
      </trkpt>
      <trkpt lat="40.81234" lon="0.35058">
        <ele>1131.2</ele>
        <time>2022-05-24 18:08:07</time>
      </trkpt>
      <trkpt lat="40.81233" lon="0.3506">
        <ele>1131.4</ele>
        <time>2022-05-24 18:08:08</time>
      </trkpt>
      <trkpt lat="40.81232" lon="0.35062">
        <ele>1131.6</ele>
        <time>2022-05-24 18:08:09</time>
      </trkpt>
      <trkpt lat="40.81232" lon="0.35064">
        <ele>1131.6</ele>
        <time>2022-05-24 18:08:10</time>
      </trkpt>
      <trkpt lat="40.81231" lon="0.35066">
        <ele>1132</ele>
        <time>2022-05-24 18:08:11</time>
      </trkpt>
      <trkpt lat="40.81231" lon="0.35067">
        <ele>1132</ele>
        <time>2022-05-24 18:08:12</time>
      </trkpt>
      <trkpt lat="40.81229" lon="0.35069">
        <ele>1132.4</ele>
        <time>2022-05-24 18:08:13</time>
      </trkpt>
      <trkpt lat="40.81229" lon="0.3507">
        <ele>1132.6</ele>
        <time>2022-05-24 18:08:14</time>
      </trkpt>
      <trkpt lat="40.81228" lon="0.35072">
        <ele>1132.8</ele>
        <time>2022-05-24 18:08:15</time>
      </trkpt>
      <trkpt lat="40.81228" lon="0.35074">
        <ele>1132.8</ele>
        <time>2022-05-24 18:08:16</time>
      </trkpt>
      <trkpt lat="40.81227" lon="0.35076">
        <ele>1133</ele>
        <time>2022-05-24 18:08:17</time>
      </trkpt>
      <trkpt lat="40.81227" lon="0.35077">
        <ele>1133.2</ele>
        <time>2022-05-24 18:08:18</time>
      </trkpt>
      <trkpt lat="40.81226" lon="0.35078">
        <ele>1133.4</ele>
        <time>2022-05-24 18:08:19</time>
      </trkpt>
      <trkpt lat="40.81226" lon="0.3508">
        <ele>1133.8</ele>
        <time>2022-05-24 18:08:20</time>
      </trkpt>
      <trkpt lat="40.81225" lon="0.35082">
        <ele>1134.2</ele>
        <time>2022-05-24 18:08:21</time>
      </trkpt>
      <trkpt lat="40.81224" lon="0.35083">
        <ele>1134.6</ele>
        <time>2022-05-24 18:08:22</time>
      </trkpt>
      <trkpt lat="40.81222" lon="0.35083">
        <ele>1135</ele>
        <time>2022-05-24 18:08:23</time>
      </trkpt>
      <trkpt lat="40.81221" lon="0.35083">
        <ele>1135.2</ele>
        <time>2022-05-24 18:08:24</time>
      </trkpt>
      <trkpt lat="40.81219" lon="0.35083">
        <ele>1135.4</ele>
        <time>2022-05-24 18:08:25</time>
      </trkpt>
      <trkpt lat="40.81218" lon="0.35082">
        <ele>1135.6</ele>
        <time>2022-05-24 18:08:26</time>
      </trkpt>
      <trkpt lat="40.81217" lon="0.35081">
        <ele>1135.6</ele>
        <time>2022-05-24 18:08:27</time>
      </trkpt>
      <trkpt lat="40.81216" lon="0.35079">
        <ele>1136</ele>
        <time>2022-05-24 18:08:28</time>
      </trkpt>
      <trkpt lat="40.81216" lon="0.35077">
        <ele>1136.2</ele>
        <time>2022-05-24 18:08:29</time>
      </trkpt>
      <trkpt lat="40.81215" lon="0.35075">
        <ele>1136.4</ele>
        <time>2022-05-24 18:08:30</time>
      </trkpt>
      <trkpt lat="40.81215" lon="0.35072">
        <ele>1136.6</ele>
        <time>2022-05-24 18:08:31</time>
      </trkpt>
      <trkpt lat="40.81215" lon="0.3507">
        <ele>1136.8</ele>
        <time>2022-05-24 18:08:32</time>
      </trkpt>
      <trkpt lat="40.81215" lon="0.35068">
        <ele>1137</ele>
        <time>2022-05-24 18:08:33</time>
      </trkpt>
      <trkpt lat="40.81215" lon="0.35066">
        <ele>1137</ele>
        <time>2022-05-24 18:08:34</time>
      </trkpt>
      <trkpt lat="40.81215" lon="0.35064">
        <ele>1137.2</ele>
        <time>2022-05-24 18:08:35</time>
      </trkpt>
      <trkpt lat="40.81215" lon="0.35062">
        <ele>1137.4</ele>
        <time>2022-05-24 18:08:36</time>
      </trkpt>
      <trkpt lat="40.81215" lon="0.3506">
        <ele>1137.4</ele>
        <time>2022-05-24 18:08:37</time>
      </trkpt>
      <trkpt lat="40.81215" lon="0.35058">
        <ele>1137.6</ele>
        <time>2022-05-24 18:08:38</time>
      </trkpt>
      <trkpt lat="40.81216" lon="0.35057">
        <ele>1137.8</ele>
        <time>2022-05-24 18:08:39</time>
      </trkpt>
      <trkpt lat="40.81216" lon="0.35055">
        <ele>1138</ele>
        <time>2022-05-24 18:08:40</time>
      </trkpt>
      <trkpt lat="40.81217" lon="0.35054">
        <ele>1138.2</ele>
        <time>2022-05-24 18:08:41</time>
      </trkpt>
      <trkpt lat="40.81217" lon="0.35053">
        <ele>1138.2</ele>
        <time>2022-05-24 18:08:42</time>
      </trkpt>
      <trkpt lat="40.81217" lon="0.3505">
        <ele>1138.4</ele>
        <time>2022-05-24 18:08:43</time>
      </trkpt>
      <trkpt lat="40.81216" lon="0.35048">
        <ele>1138.6</ele>
        <time>2022-05-24 18:08:44</time>
      </trkpt>
      <trkpt lat="40.81216" lon="0.35046">
        <ele>1138.6</ele>
        <time>2022-05-24 18:08:45</time>
      </trkpt>
      <trkpt lat="40.81216" lon="0.35044">
        <ele>1139</ele>
        <time>2022-05-24 18:08:46</time>
      </trkpt>
      <trkpt lat="40.81216" lon="0.35042">
        <ele>1139.2</ele>
        <time>2022-05-24 18:08:47</time>
      </trkpt>
      <trkpt lat="40.81216" lon="0.35039">
        <ele>1139.2</ele>
        <time>2022-05-24 18:08:48</time>
      </trkpt>
      <trkpt lat="40.81216" lon="0.35037">
        <ele>1139.2</ele>
        <time>2022-05-24 18:08:49</time>
      </trkpt>
      <trkpt lat="40.81216" lon="0.35035">
        <ele>1139.4</ele>
        <time>2022-05-24 18:08:50</time>
      </trkpt>
      <trkpt lat="40.81216" lon="0.35033">
        <ele>1139.4</ele>
        <time>2022-05-24 18:08:51</time>
      </trkpt>
      <trkpt lat="40.81216" lon="0.35032">
        <ele>1139.6</ele>
        <time>2022-05-24 18:08:52</time>
      </trkpt>
      <trkpt lat="40.81216" lon="0.3503">
        <ele>1140</ele>
        <time>2022-05-24 18:08:53</time>
      </trkpt>
      <trkpt lat="40.81216" lon="0.35028">
        <ele>1140.2</ele>
        <time>2022-05-24 18:08:54</time>
      </trkpt>
      <trkpt lat="40.81216" lon="0.35026">
        <ele>1140.2</ele>
        <time>2022-05-24 18:08:55</time>
      </trkpt>
      <trkpt lat="40.81216" lon="0.35025">
        <ele>1140.4</ele>
        <time>2022-05-24 18:08:56</time>
      </trkpt>
      <trkpt lat="40.81217" lon="0.35023">
        <ele>1140.4</ele>
        <time>2022-05-24 18:08:57</time>
      </trkpt>
      <trkpt lat="40.81217" lon="0.35021">
        <ele>1140.6</ele>
        <time>2022-05-24 18:08:58</time>
      </trkpt>
      <trkpt lat="40.81218" lon="0.35019">
        <ele>1140.8</ele>
        <time>2022-05-24 18:08:59</time>
      </trkpt>
      <trkpt lat="40.81218" lon="0.35018">
        <ele>1141</ele>
        <time>2022-05-24 18:09:00</time>
      </trkpt>
      <trkpt lat="40.81219" lon="0.35016">
        <ele>1141</ele>
        <time>2022-05-24 18:09:01</time>
      </trkpt>
      <trkpt lat="40.81219" lon="0.35015">
        <ele>1141.2</ele>
        <time>2022-05-24 18:09:02</time>
      </trkpt>
      <trkpt lat="40.81219" lon="0.35013">
        <ele>1141.4</ele>
        <time>2022-05-24 18:09:03</time>
      </trkpt>
      <trkpt lat="40.8122" lon="0.35011">
        <ele>1141.8</ele>
        <time>2022-05-24 18:09:04</time>
      </trkpt>
      <trkpt lat="40.8122" lon="0.35009">
        <ele>1142</ele>
        <time>2022-05-24 18:09:05</time>
      </trkpt>
      <trkpt lat="40.81221" lon="0.35008">
        <ele>1142.2</ele>
        <time>2022-05-24 18:09:06</time>
      </trkpt>
      <trkpt lat="40.81221" lon="0.35006">
        <ele>1142.4</ele>
        <time>2022-05-24 18:09:07</time>
      </trkpt>
      <trkpt lat="40.81221" lon="0.35005">
        <ele>1142.6</ele>
        <time>2022-05-24 18:09:08</time>
      </trkpt>
      <trkpt lat="40.81221" lon="0.35003">
        <ele>1143</ele>
        <time>2022-05-24 18:09:09</time>
      </trkpt>
      <trkpt lat="40.81221" lon="0.35002">
        <ele>1143</ele>
        <time>2022-05-24 18:09:10</time>
      </trkpt>
      <trkpt lat="40.81221" lon="0.35">
        <ele>1143.2</ele>
        <time>2022-05-24 18:09:11</time>
      </trkpt>
      <trkpt lat="40.81222" lon="0.34998">
        <ele>1143.4</ele>
        <time>2022-05-24 18:09:12</time>
      </trkpt>
      <trkpt lat="40.81223" lon="0.34997">
        <ele>1143.4</ele>
        <time>2022-05-24 18:09:13</time>
      </trkpt>
      <trkpt lat="40.81224" lon="0.34996">
        <ele>1143.6</ele>
        <time>2022-05-24 18:09:14</time>
      </trkpt>
      <trkpt lat="40.81224" lon="0.34994">
        <ele>1143.8</ele>
        <time>2022-05-24 18:09:15</time>
      </trkpt>
      <trkpt lat="40.81225" lon="0.34991">
        <ele>1144</ele>
        <time>2022-05-24 18:09:16</time>
      </trkpt>
      <trkpt lat="40.81224" lon="0.34988">
        <ele>1144</ele>
        <time>2022-05-24 18:09:17</time>
      </trkpt>
      <trkpt lat="40.81224" lon="0.34985">
        <ele>1144.2</ele>
        <time>2022-05-24 18:09:18</time>
      </trkpt>
      <trkpt lat="40.81224" lon="0.34982">
        <ele>1144.4</ele>
        <time>2022-05-24 18:09:19</time>
      </trkpt>
      <trkpt lat="40.81225" lon="0.3498">
        <ele>1144.6</ele>
        <time>2022-05-24 18:09:20</time>
      </trkpt>
      <trkpt lat="40.81226" lon="0.34978">
        <ele>1144.8</ele>
        <time>2022-05-24 18:09:21</time>
      </trkpt>
      <trkpt lat="40.81226" lon="0.34976">
        <ele>1145</ele>
        <time>2022-05-24 18:09:22</time>
      </trkpt>
      <trkpt lat="40.81226" lon="0.34973">
        <ele>1145</ele>
        <time>2022-05-24 18:09:23</time>
      </trkpt>
      <trkpt lat="40.81227" lon="0.34971">
        <ele>1145</ele>
        <time>2022-05-24 18:09:24</time>
      </trkpt>
      <trkpt lat="40.81228" lon="0.3497">
        <ele>1145.2</ele>
        <time>2022-05-24 18:09:25</time>
      </trkpt>
      <trkpt lat="40.81229" lon="0.34969">
        <ele>1145.2</ele>
        <time>2022-05-24 18:09:26</time>
      </trkpt>
      <trkpt lat="40.81229" lon="0.34968">
        <ele>1145.4</ele>
        <time>2022-05-24 18:09:27</time>
      </trkpt>
      <trkpt lat="40.8123" lon="0.34966">
        <ele>1145.6</ele>
        <time>2022-05-24 18:09:28</time>
      </trkpt>
      <trkpt lat="40.8123" lon="0.34964">
        <ele>1145.8</ele>
        <time>2022-05-24 18:09:29</time>
      </trkpt>
      <trkpt lat="40.81231" lon="0.34962">
        <ele>1145.8</ele>
        <time>2022-05-24 18:09:30</time>
      </trkpt>
      <trkpt lat="40.81231" lon="0.3496">
        <ele>1146</ele>
        <time>2022-05-24 18:09:31</time>
      </trkpt>
      <trkpt lat="40.81231" lon="0.34958">
        <ele>1146.2</ele>
        <time>2022-05-24 18:09:32</time>
      </trkpt>
      <trkpt lat="40.81231" lon="0.34956">
        <ele>1146.2</ele>
        <time>2022-05-24 18:09:33</time>
      </trkpt>
      <trkpt lat="40.81232" lon="0.34954">
        <ele>1146.4</ele>
        <time>2022-05-24 18:09:34</time>
      </trkpt>
      <trkpt lat="40.81232" lon="0.34951">
        <ele>1146.4</ele>
        <time>2022-05-24 18:09:35</time>
      </trkpt>
      <trkpt lat="40.81232" lon="0.34949">
        <ele>1146.4</ele>
        <time>2022-05-24 18:09:36</time>
      </trkpt>
      <trkpt lat="40.81232" lon="0.34947">
        <ele>1146.4</ele>
        <time>2022-05-24 18:09:37</time>
      </trkpt>
      <trkpt lat="40.81232" lon="0.34945">
        <ele>1146.6</ele>
        <time>2022-05-24 18:09:38</time>
      </trkpt>
      <trkpt lat="40.81231" lon="0.34942">
        <ele>1146.8</ele>
        <time>2022-05-24 18:09:39</time>
      </trkpt>
      <trkpt lat="40.81231" lon="0.3494">
        <ele>1147</ele>
        <time>2022-05-24 18:09:40</time>
      </trkpt>
      <trkpt lat="40.81232" lon="0.34938">
        <ele>1147</ele>
        <time>2022-05-24 18:09:41</time>
      </trkpt>
      <trkpt lat="40.81232" lon="0.34936">
        <ele>1147.2</ele>
        <time>2022-05-24 18:09:42</time>
      </trkpt>
      <trkpt lat="40.81232" lon="0.34935">
        <ele>1147.2</ele>
        <time>2022-05-24 18:09:43</time>
      </trkpt>
      <trkpt lat="40.81232" lon="0.34933">
        <ele>1147.2</ele>
        <time>2022-05-24 18:09:44</time>
      </trkpt>
      <trkpt lat="40.81232" lon="0.34932">
        <ele>1147.4</ele>
        <time>2022-05-24 18:09:45</time>
      </trkpt>
      <trkpt lat="40.81231" lon="0.3493">
        <ele>1147.6</ele>
        <time>2022-05-24 18:09:46</time>
      </trkpt>
      <trkpt lat="40.81231" lon="0.34927">
        <ele>1147.8</ele>
        <time>2022-05-24 18:09:47</time>
      </trkpt>
      <trkpt lat="40.8123" lon="0.34925">
        <ele>1147.8</ele>
        <time>2022-05-24 18:09:48</time>
      </trkpt>
      <trkpt lat="40.81229" lon="0.34923">
        <ele>1148</ele>
        <time>2022-05-24 18:09:49</time>
      </trkpt>
      <trkpt lat="40.81229" lon="0.34921">
        <ele>1148.2</ele>
        <time>2022-05-24 18:09:50</time>
      </trkpt>
      <trkpt lat="40.81227" lon="0.34918">
        <ele>1148.2</ele>
        <time>2022-05-24 18:09:51</time>
      </trkpt>
      <trkpt lat="40.81226" lon="0.34916">
        <ele>1148.4</ele>
        <time>2022-05-24 18:09:52</time>
      </trkpt>
      <trkpt lat="40.81226" lon="0.34913">
        <ele>1148.6</ele>
        <time>2022-05-24 18:09:53</time>
      </trkpt>
      <trkpt lat="40.81225" lon="0.34911">
        <ele>1148.8</ele>
        <time>2022-05-24 18:09:54</time>
      </trkpt>
      <trkpt lat="40.81224" lon="0.34908">
        <ele>1149</ele>
        <time>2022-05-24 18:09:55</time>
      </trkpt>
      <trkpt lat="40.81223" lon="0.34905">
        <ele>1149.2</ele>
        <time>2022-05-24 18:09:56</time>
      </trkpt>
      <trkpt lat="40.81222" lon="0.34903">
        <ele>1149.4</ele>
        <time>2022-05-24 18:09:57</time>
      </trkpt>
      <trkpt lat="40.81221" lon="0.34901">
        <ele>1149.4</ele>
        <time>2022-05-24 18:09:58</time>
      </trkpt>
      <trkpt lat="40.81221" lon="0.34899">
        <ele>1149.6</ele>
        <time>2022-05-24 18:09:59</time>
      </trkpt>
      <trkpt lat="40.8122" lon="0.34897">
        <ele>1149.8</ele>
        <time>2022-05-24 18:10:00</time>
      </trkpt>
      <trkpt lat="40.8122" lon="0.34895">
        <ele>1149.8</ele>
        <time>2022-05-24 18:10:01</time>
      </trkpt>
      <trkpt lat="40.81219" lon="0.34893">
        <ele>1149.8</ele>
        <time>2022-05-24 18:10:02</time>
      </trkpt>
      <trkpt lat="40.81219" lon="0.34891">
        <ele>1149.8</ele>
        <time>2022-05-24 18:10:03</time>
      </trkpt>
      <trkpt lat="40.81218" lon="0.34889">
        <ele>1150.2</ele>
        <time>2022-05-24 18:10:04</time>
      </trkpt>
      <trkpt lat="40.81218" lon="0.34887">
        <ele>1150.6</ele>
        <time>2022-05-24 18:10:05</time>
      </trkpt>
      <trkpt lat="40.81217" lon="0.34884">
        <ele>1150.8</ele>
        <time>2022-05-24 18:10:06</time>
      </trkpt>
      <trkpt lat="40.81217" lon="0.34882">
        <ele>1151.2</ele>
        <time>2022-05-24 18:10:07</time>
      </trkpt>
      <trkpt lat="40.81217" lon="0.34881">
        <ele>1151.4</ele>
        <time>2022-05-24 18:10:08</time>
      </trkpt>
      <trkpt lat="40.81217" lon="0.34878">
        <ele>1151.6</ele>
        <time>2022-05-24 18:10:09</time>
      </trkpt>
      <trkpt lat="40.81216" lon="0.34875">
        <ele>1151.8</ele>
        <time>2022-05-24 18:10:10</time>
      </trkpt>
      <trkpt lat="40.81216" lon="0.34872">
        <ele>1152</ele>
        <time>2022-05-24 18:10:11</time>
      </trkpt>
      <trkpt lat="40.81215" lon="0.34869">
        <ele>1152.2</ele>
        <time>2022-05-24 18:10:12</time>
      </trkpt>
      <trkpt lat="40.81215" lon="0.34866">
        <ele>1152.4</ele>
        <time>2022-05-24 18:10:13</time>
      </trkpt>
      <trkpt lat="40.81215" lon="0.34864">
        <ele>1152.6</ele>
        <time>2022-05-24 18:10:14</time>
      </trkpt>
      <trkpt lat="40.81214" lon="0.34861">
        <ele>1153</ele>
        <time>2022-05-24 18:10:15</time>
      </trkpt>
      <trkpt lat="40.81214" lon="0.34858">
        <ele>1153.2</ele>
        <time>2022-05-24 18:10:16</time>
      </trkpt>
      <trkpt lat="40.81213" lon="0.34856">
        <ele>1153.4</ele>
        <time>2022-05-24 18:10:17</time>
      </trkpt>
      <trkpt lat="40.81213" lon="0.34854">
        <ele>1153.6</ele>
        <time>2022-05-24 18:10:18</time>
      </trkpt>
      <trkpt lat="40.81212" lon="0.34852">
        <ele>1154</ele>
        <time>2022-05-24 18:10:19</time>
      </trkpt>
      <trkpt lat="40.81211" lon="0.3485">
        <ele>1154.4</ele>
        <time>2022-05-24 18:10:20</time>
      </trkpt>
      <trkpt lat="40.8121" lon="0.34848">
        <ele>1154.6</ele>
        <time>2022-05-24 18:10:21</time>
      </trkpt>
      <trkpt lat="40.8121" lon="0.34846">
        <ele>1155</ele>
        <time>2022-05-24 18:10:22</time>
      </trkpt>
      <trkpt lat="40.8121" lon="0.34843">
        <ele>1155.2</ele>
        <time>2022-05-24 18:10:23</time>
      </trkpt>
      <trkpt lat="40.81209" lon="0.34841">
        <ele>1155.6</ele>
        <time>2022-05-24 18:10:24</time>
      </trkpt>
      <trkpt lat="40.81208" lon="0.34838">
        <ele>1156</ele>
        <time>2022-05-24 18:10:25</time>
      </trkpt>
      <trkpt lat="40.81208" lon="0.34836">
        <ele>1156.2</ele>
        <time>2022-05-24 18:10:26</time>
      </trkpt>
      <trkpt lat="40.81207" lon="0.34833">
        <ele>1156.2</ele>
        <time>2022-05-24 18:10:27</time>
      </trkpt>
      <trkpt lat="40.81206" lon="0.3483">
        <ele>1156.4</ele>
        <time>2022-05-24 18:10:28</time>
      </trkpt>
      <trkpt lat="40.81205" lon="0.34828">
        <ele>1156.6</ele>
        <time>2022-05-24 18:10:29</time>
      </trkpt>
      <trkpt lat="40.81205" lon="0.34826">
        <ele>1156.8</ele>
        <time>2022-05-24 18:10:30</time>
      </trkpt>
      <trkpt lat="40.81204" lon="0.34823">
        <ele>1157</ele>
        <time>2022-05-24 18:10:31</time>
      </trkpt>
      <trkpt lat="40.81203" lon="0.34821">
        <ele>1157.4</ele>
        <time>2022-05-24 18:10:32</time>
      </trkpt>
      <trkpt lat="40.81203" lon="0.34819">
        <ele>1157.6</ele>
        <time>2022-05-24 18:10:33</time>
      </trkpt>
      <trkpt lat="40.81202" lon="0.34816">
        <ele>1157.6</ele>
        <time>2022-05-24 18:10:34</time>
      </trkpt>
      <trkpt lat="40.81201" lon="0.34815">
        <ele>1157.6</ele>
        <time>2022-05-24 18:10:35</time>
      </trkpt>
      <trkpt lat="40.812" lon="0.34812">
        <ele>1157.8</ele>
        <time>2022-05-24 18:10:36</time>
      </trkpt>
      <trkpt lat="40.812" lon="0.3481">
        <ele>1158</ele>
        <time>2022-05-24 18:10:37</time>
      </trkpt>
      <trkpt lat="40.81199" lon="0.34808">
        <ele>1158.2</ele>
        <time>2022-05-24 18:10:38</time>
      </trkpt>
      <trkpt lat="40.81198" lon="0.34806">
        <ele>1158.4</ele>
        <time>2022-05-24 18:10:39</time>
      </trkpt>
      <trkpt lat="40.81197" lon="0.34805">
        <ele>1158.6</ele>
        <time>2022-05-24 18:10:40</time>
      </trkpt>
      <trkpt lat="40.81196" lon="0.34803">
        <ele>1158.6</ele>
        <time>2022-05-24 18:10:41</time>
      </trkpt>
      <trkpt lat="40.81195" lon="0.34801">
        <ele>1158.8</ele>
        <time>2022-05-24 18:10:42</time>
      </trkpt>
      <trkpt lat="40.81194" lon="0.34798">
        <ele>1158.8</ele>
        <time>2022-05-24 18:10:43</time>
      </trkpt>
      <trkpt lat="40.81193" lon="0.34796">
        <ele>1158.8</ele>
        <time>2022-05-24 18:10:44</time>
      </trkpt>
      <trkpt lat="40.81191" lon="0.34793">
        <ele>1159</ele>
        <time>2022-05-24 18:10:45</time>
      </trkpt>
      <trkpt lat="40.8119" lon="0.34791">
        <ele>1159.2</ele>
        <time>2022-05-24 18:10:46</time>
      </trkpt>
      <trkpt lat="40.81188" lon="0.34789">
        <ele>1159.4</ele>
        <time>2022-05-24 18:10:47</time>
      </trkpt>
      <trkpt lat="40.81187" lon="0.34787">
        <ele>1159.4</ele>
        <time>2022-05-24 18:10:48</time>
      </trkpt>
      <trkpt lat="40.81186" lon="0.34785">
        <ele>1159.6</ele>
        <time>2022-05-24 18:10:49</time>
      </trkpt>
      <trkpt lat="40.81185" lon="0.34783">
        <ele>1159.6</ele>
        <time>2022-05-24 18:10:50</time>
      </trkpt>
      <trkpt lat="40.81184" lon="0.34781">
        <ele>1159.6</ele>
        <time>2022-05-24 18:10:51</time>
      </trkpt>
      <trkpt lat="40.81183" lon="0.34779">
        <ele>1159.8</ele>
        <time>2022-05-24 18:10:52</time>
      </trkpt>
      <trkpt lat="40.81182" lon="0.34777">
        <ele>1159.8</ele>
        <time>2022-05-24 18:10:53</time>
      </trkpt>
      <trkpt lat="40.81181" lon="0.34775">
        <ele>1159.8</ele>
        <time>2022-05-24 18:10:54</time>
      </trkpt>
      <trkpt lat="40.8118" lon="0.34773">
        <ele>1160</ele>
        <time>2022-05-24 18:10:55</time>
      </trkpt>
      <trkpt lat="40.81179" lon="0.3477">
        <ele>1160.2</ele>
        <time>2022-05-24 18:10:56</time>
      </trkpt>
      <trkpt lat="40.81178" lon="0.34768">
        <ele>1160.2</ele>
        <time>2022-05-24 18:10:57</time>
      </trkpt>
      <trkpt lat="40.81177" lon="0.34766">
        <ele>1160.2</ele>
        <time>2022-05-24 18:10:58</time>
      </trkpt>
      <trkpt lat="40.81176" lon="0.34763">
        <ele>1160.4</ele>
        <time>2022-05-24 18:10:59</time>
      </trkpt>
      <trkpt lat="40.81175" lon="0.34761">
        <ele>1160.6</ele>
        <time>2022-05-24 18:11:00</time>
      </trkpt>
      <trkpt lat="40.81174" lon="0.34759">
        <ele>1160.8</ele>
        <time>2022-05-24 18:11:01</time>
      </trkpt>
      <trkpt lat="40.81173" lon="0.34757">
        <ele>1161.2</ele>
        <time>2022-05-24 18:11:02</time>
      </trkpt>
      <trkpt lat="40.81172" lon="0.34754">
        <ele>1161.4</ele>
        <time>2022-05-24 18:11:03</time>
      </trkpt>
      <trkpt lat="40.81171" lon="0.34753">
        <ele>1161.6</ele>
        <time>2022-05-24 18:11:04</time>
      </trkpt>
      <trkpt lat="40.8117" lon="0.34751">
        <ele>1161.8</ele>
        <time>2022-05-24 18:11:05</time>
      </trkpt>
      <trkpt lat="40.81168" lon="0.3475">
        <ele>1162</ele>
        <time>2022-05-24 18:11:06</time>
      </trkpt>
      <trkpt lat="40.81167" lon="0.34748">
        <ele>1162.2</ele>
        <time>2022-05-24 18:11:07</time>
      </trkpt>
      <trkpt lat="40.81165" lon="0.34747">
        <ele>1162.4</ele>
        <time>2022-05-24 18:11:08</time>
      </trkpt>
      <trkpt lat="40.81164" lon="0.34746">
        <ele>1162.4</ele>
        <time>2022-05-24 18:11:09</time>
      </trkpt>
      <trkpt lat="40.81162" lon="0.34745">
        <ele>1162.6</ele>
        <time>2022-05-24 18:11:10</time>
      </trkpt>
      <trkpt lat="40.81161" lon="0.34744">
        <ele>1162.8</ele>
        <time>2022-05-24 18:11:11</time>
      </trkpt>
      <trkpt lat="40.8116" lon="0.34744">
        <ele>1163.2</ele>
        <time>2022-05-24 18:11:12</time>
      </trkpt>
      <trkpt lat="40.81157" lon="0.34742">
        <ele>1163.4</ele>
        <time>2022-05-24 18:11:13</time>
      </trkpt>
      <trkpt lat="40.81156" lon="0.34741">
        <ele>1163.4</ele>
        <time>2022-05-24 18:11:14</time>
      </trkpt>
      <trkpt lat="40.81155" lon="0.3474">
        <ele>1163.8</ele>
        <time>2022-05-24 18:11:15</time>
      </trkpt>
      <trkpt lat="40.81153" lon="0.3474">
        <ele>1164.4</ele>
        <time>2022-05-24 18:11:16</time>
      </trkpt>
      <trkpt lat="40.81152" lon="0.34739">
        <ele>1164.4</ele>
        <time>2022-05-24 18:11:17</time>
      </trkpt>
      <trkpt lat="40.8115" lon="0.34739">
        <ele>1164.8</ele>
        <time>2022-05-24 18:11:18</time>
      </trkpt>
      <trkpt lat="40.81149" lon="0.34738">
        <ele>1165</ele>
        <time>2022-05-24 18:11:19</time>
      </trkpt>
      <trkpt lat="40.81148" lon="0.34738">
        <ele>1165.2</ele>
        <time>2022-05-24 18:11:20</time>
      </trkpt>
      <trkpt lat="40.81146" lon="0.34738">
        <ele>1165.8</ele>
        <time>2022-05-24 18:11:21</time>
      </trkpt>
      <trkpt lat="40.81145" lon="0.34737">
        <ele>1165.8</ele>
        <time>2022-05-24 18:11:22</time>
      </trkpt>
      <trkpt lat="40.81144" lon="0.34737">
        <ele>1166</ele>
        <time>2022-05-24 18:11:23</time>
      </trkpt>
      <trkpt lat="40.81142" lon="0.34737">
        <ele>1166.2</ele>
        <time>2022-05-24 18:11:24</time>
      </trkpt>
      <trkpt lat="40.81141" lon="0.34737">
        <ele>1166</ele>
        <time>2022-05-24 18:11:25</time>
      </trkpt>
      <trkpt lat="40.81139" lon="0.34736">
        <ele>1166</ele>
        <time>2022-05-24 18:11:26</time>
      </trkpt>
      <trkpt lat="40.81138" lon="0.34735">
        <ele>1166</ele>
        <time>2022-05-24 18:11:27</time>
      </trkpt>
      <trkpt lat="40.81136" lon="0.34735">
        <ele>1165.8</ele>
        <time>2022-05-24 18:11:28</time>
      </trkpt>
      <trkpt lat="40.81135" lon="0.34734">
        <ele>1166</ele>
        <time>2022-05-24 18:11:29</time>
      </trkpt>
      <trkpt lat="40.81133" lon="0.34734">
        <ele>1166</ele>
        <time>2022-05-24 18:11:30</time>
      </trkpt>
      <trkpt lat="40.81131" lon="0.34732">
        <ele>1166.2</ele>
        <time>2022-05-24 18:11:31</time>
      </trkpt>
      <trkpt lat="40.81129" lon="0.34731">
        <ele>1166.4</ele>
        <time>2022-05-24 18:11:32</time>
      </trkpt>
      <trkpt lat="40.81128" lon="0.3473">
        <ele>1166.6</ele>
        <time>2022-05-24 18:11:33</time>
      </trkpt>
      <trkpt lat="40.81126" lon="0.34729">
        <ele>1166.6</ele>
        <time>2022-05-24 18:11:34</time>
      </trkpt>
      <trkpt lat="40.81124" lon="0.34729">
        <ele>1166.8</ele>
        <time>2022-05-24 18:11:35</time>
      </trkpt>
      <trkpt lat="40.81123" lon="0.34729">
        <ele>1167</ele>
        <time>2022-05-24 18:11:36</time>
      </trkpt>
      <trkpt lat="40.81121" lon="0.34728">
        <ele>1167.2</ele>
        <time>2022-05-24 18:11:37</time>
      </trkpt>
      <trkpt lat="40.81119" lon="0.34728">
        <ele>1167.4</ele>
        <time>2022-05-24 18:11:38</time>
      </trkpt>
      <trkpt lat="40.81117" lon="0.34727">
        <ele>1167.8</ele>
        <time>2022-05-24 18:11:39</time>
      </trkpt>
      <trkpt lat="40.81115" lon="0.34726">
        <ele>1168.2</ele>
        <time>2022-05-24 18:11:40</time>
      </trkpt>
      <trkpt lat="40.81113" lon="0.34725">
        <ele>1168.4</ele>
        <time>2022-05-24 18:11:41</time>
      </trkpt>
      <trkpt lat="40.81112" lon="0.34724">
        <ele>1168.8</ele>
        <time>2022-05-24 18:11:42</time>
      </trkpt>
      <trkpt lat="40.8111" lon="0.34723">
        <ele>1169.2</ele>
        <time>2022-05-24 18:11:43</time>
      </trkpt>
      <trkpt lat="40.81109" lon="0.34722">
        <ele>1169.4</ele>
        <time>2022-05-24 18:11:44</time>
      </trkpt>
      <trkpt lat="40.81107" lon="0.34721">
        <ele>1169.6</ele>
        <time>2022-05-24 18:11:45</time>
      </trkpt>
      <trkpt lat="40.81106" lon="0.34721">
        <ele>1169.8</ele>
        <time>2022-05-24 18:11:46</time>
      </trkpt>
      <trkpt lat="40.81104" lon="0.3472">
        <ele>1169.8</ele>
        <time>2022-05-24 18:11:47</time>
      </trkpt>
      <trkpt lat="40.81102" lon="0.3472">
        <ele>1170</ele>
        <time>2022-05-24 18:11:48</time>
      </trkpt>
      <trkpt lat="40.81101" lon="0.34719">
        <ele>1170.4</ele>
        <time>2022-05-24 18:11:49</time>
      </trkpt>
      <trkpt lat="40.811" lon="0.34718">
        <ele>1170.6</ele>
        <time>2022-05-24 18:11:50</time>
      </trkpt>
      <trkpt lat="40.81098" lon="0.34717">
        <ele>1170.8</ele>
        <time>2022-05-24 18:11:51</time>
      </trkpt>
      <trkpt lat="40.81097" lon="0.34716">
        <ele>1171</ele>
        <time>2022-05-24 18:11:52</time>
      </trkpt>
      <trkpt lat="40.81096" lon="0.34716">
        <ele>1171.4</ele>
        <time>2022-05-24 18:11:53</time>
      </trkpt>
      <trkpt lat="40.81094" lon="0.34715">
        <ele>1171.8</ele>
        <time>2022-05-24 18:11:54</time>
      </trkpt>
      <trkpt lat="40.81092" lon="0.34715">
        <ele>1172</ele>
        <time>2022-05-24 18:11:55</time>
      </trkpt>
      <trkpt lat="40.81091" lon="0.34715">
        <ele>1172.4</ele>
        <time>2022-05-24 18:11:56</time>
      </trkpt>
      <trkpt lat="40.8109" lon="0.34714">
        <ele>1172.6</ele>
        <time>2022-05-24 18:11:57</time>
      </trkpt>
      <trkpt lat="40.81088" lon="0.34714">
        <ele>1172.8</ele>
        <time>2022-05-24 18:11:58</time>
      </trkpt>
      <trkpt lat="40.81087" lon="0.34713">
        <ele>1173.2</ele>
        <time>2022-05-24 18:11:59</time>
      </trkpt>
      <trkpt lat="40.81086" lon="0.34713">
        <ele>1173.4</ele>
        <time>2022-05-24 18:12:00</time>
      </trkpt>
      <trkpt lat="40.81085" lon="0.34713">
        <ele>1173.6</ele>
        <time>2022-05-24 18:12:01</time>
      </trkpt>
      <trkpt lat="40.81084" lon="0.34712">
        <ele>1174</ele>
        <time>2022-05-24 18:12:02</time>
      </trkpt>
      <trkpt lat="40.81083" lon="0.34712">
        <ele>1174.2</ele>
        <time>2022-05-24 18:12:03</time>
      </trkpt>
      <trkpt lat="40.81081" lon="0.34712">
        <ele>1174.4</ele>
        <time>2022-05-24 18:12:04</time>
      </trkpt>
      <trkpt lat="40.8108" lon="0.34712">
        <ele>1174.8</ele>
        <time>2022-05-24 18:12:05</time>
      </trkpt>
      <trkpt lat="40.81078" lon="0.34712">
        <ele>1175.2</ele>
        <time>2022-05-24 18:12:06</time>
      </trkpt>
      <trkpt lat="40.81076" lon="0.34711">
        <ele>1175.4</ele>
        <time>2022-05-24 18:12:07</time>
      </trkpt>
      <trkpt lat="40.81075" lon="0.3471">
        <ele>1175.8</ele>
        <time>2022-05-24 18:12:08</time>
      </trkpt>
      <trkpt lat="40.81073" lon="0.34709">
        <ele>1176</ele>
        <time>2022-05-24 18:12:09</time>
      </trkpt>
      <trkpt lat="40.81072" lon="0.34709">
        <ele>1176.4</ele>
        <time>2022-05-24 18:12:10</time>
      </trkpt>
      <trkpt lat="40.81071" lon="0.34709">
        <ele>1176.6</ele>
        <time>2022-05-24 18:12:11</time>
      </trkpt>
      <trkpt lat="40.81069" lon="0.34709">
        <ele>1177</ele>
        <time>2022-05-24 18:12:12</time>
      </trkpt>
      <trkpt lat="40.81067" lon="0.3471">
        <ele>1177.2</ele>
        <time>2022-05-24 18:12:13</time>
      </trkpt>
      <trkpt lat="40.81065" lon="0.34709">
        <ele>1177.4</ele>
        <time>2022-05-24 18:12:14</time>
      </trkpt>
      <trkpt lat="40.81063" lon="0.34709">
        <ele>1177.6</ele>
        <time>2022-05-24 18:12:15</time>
      </trkpt>
      <trkpt lat="40.81061" lon="0.34708">
        <ele>1177.8</ele>
        <time>2022-05-24 18:12:16</time>
      </trkpt>
      <trkpt lat="40.81058" lon="0.34708">
        <ele>1178.2</ele>
        <time>2022-05-24 18:12:17</time>
      </trkpt>
      <trkpt lat="40.81057" lon="0.34708">
        <ele>1178.4</ele>
        <time>2022-05-24 18:12:18</time>
      </trkpt>
      <trkpt lat="40.81054" lon="0.34708">
        <ele>1178.6</ele>
        <time>2022-05-24 18:12:19</time>
      </trkpt>
      <trkpt lat="40.81052" lon="0.34708">
        <ele>1178.8</ele>
        <time>2022-05-24 18:12:20</time>
      </trkpt>
      <trkpt lat="40.81051" lon="0.34708">
        <ele>1179</ele>
        <time>2022-05-24 18:12:21</time>
      </trkpt>
      <trkpt lat="40.81049" lon="0.34708">
        <ele>1179.2</ele>
        <time>2022-05-24 18:12:22</time>
      </trkpt>
      <trkpt lat="40.81047" lon="0.34708">
        <ele>1179.4</ele>
        <time>2022-05-24 18:12:23</time>
      </trkpt>
      <trkpt lat="40.81046" lon="0.34708">
        <ele>1179.6</ele>
        <time>2022-05-24 18:12:24</time>
      </trkpt>
      <trkpt lat="40.81044" lon="0.34709">
        <ele>1180</ele>
        <time>2022-05-24 18:12:25</time>
      </trkpt>
      <trkpt lat="40.81042" lon="0.34709">
        <ele>1180.2</ele>
        <time>2022-05-24 18:12:26</time>
      </trkpt>
      <trkpt lat="40.81041" lon="0.3471">
        <ele>1180.4</ele>
        <time>2022-05-24 18:12:27</time>
      </trkpt>
      <trkpt lat="40.81041" lon="0.34712">
        <ele>1180.4</ele>
        <time>2022-05-24 18:12:28</time>
      </trkpt>
      <trkpt lat="40.8104" lon="0.34714">
        <ele>1180.6</ele>
        <time>2022-05-24 18:12:29</time>
      </trkpt>
      <trkpt lat="40.8104" lon="0.34717">
        <ele>1180.8</ele>
        <time>2022-05-24 18:12:30</time>
      </trkpt>
      <trkpt lat="40.81041" lon="0.34719">
        <ele>1181</ele>
        <time>2022-05-24 18:12:31</time>
      </trkpt>
      <trkpt lat="40.81041" lon="0.34721">
        <ele>1181.4</ele>
        <time>2022-05-24 18:12:32</time>
      </trkpt>
      <trkpt lat="40.81043" lon="0.34723">
        <ele>1181.6</ele>
        <time>2022-05-24 18:12:33</time>
      </trkpt>
      <trkpt lat="40.81044" lon="0.34725">
        <ele>1181.8</ele>
        <time>2022-05-24 18:12:34</time>
      </trkpt>
      <trkpt lat="40.81045" lon="0.34726">
        <ele>1182.2</ele>
        <time>2022-05-24 18:12:35</time>
      </trkpt>
      <trkpt lat="40.81046" lon="0.34727">
        <ele>1182.4</ele>
        <time>2022-05-24 18:12:36</time>
      </trkpt>
      <trkpt lat="40.81048" lon="0.34729">
        <ele>1182.6</ele>
        <time>2022-05-24 18:12:37</time>
      </trkpt>
      <trkpt lat="40.81049" lon="0.3473">
        <ele>1183</ele>
        <time>2022-05-24 18:12:38</time>
      </trkpt>
      <trkpt lat="40.8105" lon="0.34732">
        <ele>1183.2</ele>
        <time>2022-05-24 18:12:39</time>
      </trkpt>
      <trkpt lat="40.81052" lon="0.34733">
        <ele>1183.4</ele>
        <time>2022-05-24 18:12:40</time>
      </trkpt>
      <trkpt lat="40.81054" lon="0.34733">
        <ele>1183.6</ele>
        <time>2022-05-24 18:12:41</time>
      </trkpt>
      <trkpt lat="40.81055" lon="0.34734">
        <ele>1183.8</ele>
        <time>2022-05-24 18:12:42</time>
      </trkpt>
      <trkpt lat="40.81057" lon="0.34735">
        <ele>1184</ele>
        <time>2022-05-24 18:12:43</time>
      </trkpt>
      <trkpt lat="40.81058" lon="0.34735">
        <ele>1184.4</ele>
        <time>2022-05-24 18:12:44</time>
      </trkpt>
      <trkpt lat="40.8106" lon="0.34735">
        <ele>1184.6</ele>
        <time>2022-05-24 18:12:45</time>
      </trkpt>
      <trkpt lat="40.81061" lon="0.34736">
        <ele>1184.8</ele>
        <time>2022-05-24 18:12:46</time>
      </trkpt>
      <trkpt lat="40.81063" lon="0.34736">
        <ele>1185.2</ele>
        <time>2022-05-24 18:12:47</time>
      </trkpt>
      <trkpt lat="40.81064" lon="0.34736">
        <ele>1185.4</ele>
        <time>2022-05-24 18:12:48</time>
      </trkpt>
      <trkpt lat="40.81066" lon="0.34736">
        <ele>1185.6</ele>
        <time>2022-05-24 18:12:49</time>
      </trkpt>
      <trkpt lat="40.81068" lon="0.34737">
        <ele>1185.8</ele>
        <time>2022-05-24 18:12:50</time>
      </trkpt>
      <trkpt lat="40.81069" lon="0.34737">
        <ele>1185.8</ele>
        <time>2022-05-24 18:12:51</time>
      </trkpt>
      <trkpt lat="40.8107" lon="0.34738">
        <ele>1186</ele>
        <time>2022-05-24 18:12:52</time>
      </trkpt>
      <trkpt lat="40.81072" lon="0.34738">
        <ele>1186.2</ele>
        <time>2022-05-24 18:12:53</time>
      </trkpt>
      <trkpt lat="40.81073" lon="0.34739">
        <ele>1186.2</ele>
        <time>2022-05-24 18:12:54</time>
      </trkpt>
      <trkpt lat="40.81075" lon="0.34739">
        <ele>1186.4</ele>
        <time>2022-05-24 18:12:55</time>
      </trkpt>
      <trkpt lat="40.81076" lon="0.3474">
        <ele>1186.6</ele>
        <time>2022-05-24 18:12:56</time>
      </trkpt>
      <trkpt lat="40.81078" lon="0.34741">
        <ele>1186.8</ele>
        <time>2022-05-24 18:12:57</time>
      </trkpt>
      <trkpt lat="40.81079" lon="0.34742">
        <ele>1187</ele>
        <time>2022-05-24 18:12:58</time>
      </trkpt>
      <trkpt lat="40.81081" lon="0.34743">
        <ele>1186.8</ele>
        <time>2022-05-24 18:12:59</time>
      </trkpt>
      <trkpt lat="40.81083" lon="0.34745">
        <ele>1186.8</ele>
        <time>2022-05-24 18:13:00</time>
      </trkpt>
      <trkpt lat="40.81085" lon="0.34746">
        <ele>1186.8</ele>
        <time>2022-05-24 18:13:01</time>
      </trkpt>
      <trkpt lat="40.81087" lon="0.34747">
        <ele>1187</ele>
        <time>2022-05-24 18:13:02</time>
      </trkpt>
      <trkpt lat="40.81089" lon="0.34748">
        <ele>1187.2</ele>
        <time>2022-05-24 18:13:03</time>
      </trkpt>
      <trkpt lat="40.81091" lon="0.34749">
        <ele>1187.4</ele>
        <time>2022-05-24 18:13:04</time>
      </trkpt>
      <trkpt lat="40.81092" lon="0.3475">
        <ele>1187.4</ele>
        <time>2022-05-24 18:13:05</time>
      </trkpt>
      <trkpt lat="40.81094" lon="0.34751">
        <ele>1187.6</ele>
        <time>2022-05-24 18:13:06</time>
      </trkpt>
      <trkpt lat="40.81096" lon="0.34753">
        <ele>1187.8</ele>
        <time>2022-05-24 18:13:07</time>
      </trkpt>
      <trkpt lat="40.81097" lon="0.34754">
        <ele>1188</ele>
        <time>2022-05-24 18:13:08</time>
      </trkpt>
      <trkpt lat="40.81099" lon="0.34755">
        <ele>1188.2</ele>
        <time>2022-05-24 18:13:09</time>
      </trkpt>
      <trkpt lat="40.81101" lon="0.34756">
        <ele>1188.4</ele>
        <time>2022-05-24 18:13:10</time>
      </trkpt>
      <trkpt lat="40.81102" lon="0.34757">
        <ele>1188.6</ele>
        <time>2022-05-24 18:13:11</time>
      </trkpt>
      <trkpt lat="40.81104" lon="0.34758">
        <ele>1188.6</ele>
        <time>2022-05-24 18:13:12</time>
      </trkpt>
      <trkpt lat="40.81106" lon="0.34759">
        <ele>1188.8</ele>
        <time>2022-05-24 18:13:13</time>
      </trkpt>
      <trkpt lat="40.81108" lon="0.3476">
        <ele>1189</ele>
        <time>2022-05-24 18:13:14</time>
      </trkpt>
      <trkpt lat="40.81109" lon="0.34761">
        <ele>1189.2</ele>
        <time>2022-05-24 18:13:15</time>
      </trkpt>
      <trkpt lat="40.81111" lon="0.34762">
        <ele>1189.4</ele>
        <time>2022-05-24 18:13:16</time>
      </trkpt>
      <trkpt lat="40.81113" lon="0.34764">
        <ele>1189.6</ele>
        <time>2022-05-24 18:13:17</time>
      </trkpt>
      <trkpt lat="40.81114" lon="0.34765">
        <ele>1189.8</ele>
        <time>2022-05-24 18:13:18</time>
      </trkpt>
      <trkpt lat="40.81115" lon="0.34766">
        <ele>1190</ele>
        <time>2022-05-24 18:13:19</time>
      </trkpt>
      <trkpt lat="40.81117" lon="0.34767">
        <ele>1190.2</ele>
        <time>2022-05-24 18:13:20</time>
      </trkpt>
      <trkpt lat="40.81119" lon="0.34768">
        <ele>1190.4</ele>
        <time>2022-05-24 18:13:21</time>
      </trkpt>
      <trkpt lat="40.8112" lon="0.3477">
        <ele>1190.6</ele>
        <time>2022-05-24 18:13:22</time>
      </trkpt>
      <trkpt lat="40.81122" lon="0.34771">
        <ele>1190.8</ele>
        <time>2022-05-24 18:13:23</time>
      </trkpt>
      <trkpt lat="40.81124" lon="0.34771">
        <ele>1190.8</ele>
        <time>2022-05-24 18:13:24</time>
      </trkpt>
      <trkpt lat="40.81125" lon="0.34772">
        <ele>1191</ele>
        <time>2022-05-24 18:13:25</time>
      </trkpt>
      <trkpt lat="40.81126" lon="0.34773">
        <ele>1191.2</ele>
        <time>2022-05-24 18:13:26</time>
      </trkpt>
      <trkpt lat="40.81128" lon="0.34774">
        <ele>1191.4</ele>
        <time>2022-05-24 18:13:27</time>
      </trkpt>
      <trkpt lat="40.81129" lon="0.34774">
        <ele>1191.8</ele>
        <time>2022-05-24 18:13:28</time>
      </trkpt>
      <trkpt lat="40.8113" lon="0.34776">
        <ele>1192</ele>
        <time>2022-05-24 18:13:29</time>
      </trkpt>
      <trkpt lat="40.81132" lon="0.34777">
        <ele>1192.2</ele>
        <time>2022-05-24 18:13:30</time>
      </trkpt>
      <trkpt lat="40.81133" lon="0.34778">
        <ele>1192.4</ele>
        <time>2022-05-24 18:13:31</time>
      </trkpt>
      <trkpt lat="40.81134" lon="0.3478">
        <ele>1193.2</ele>
        <time>2022-05-24 18:13:32</time>
      </trkpt>
      <trkpt lat="40.81136" lon="0.34781">
        <ele>1193.6</ele>
        <time>2022-05-24 18:13:33</time>
      </trkpt>
      <trkpt lat="40.81137" lon="0.34783">
        <ele>1194</ele>
        <time>2022-05-24 18:13:34</time>
      </trkpt>
      <trkpt lat="40.81139" lon="0.34784">
        <ele>1194.4</ele>
        <time>2022-05-24 18:13:35</time>
      </trkpt>
      <trkpt lat="40.81139" lon="0.34785">
        <ele>1194.6</ele>
        <time>2022-05-24 18:13:36</time>
      </trkpt>
      <trkpt lat="40.81141" lon="0.34788">
        <ele>1194.8</ele>
        <time>2022-05-24 18:13:37</time>
      </trkpt>
      <trkpt lat="40.81142" lon="0.3479">
        <ele>1195</ele>
        <time>2022-05-24 18:13:38</time>
      </trkpt>
      <trkpt lat="40.81142" lon="0.34791">
        <ele>1195.2</ele>
        <time>2022-05-24 18:13:39</time>
      </trkpt>
      <trkpt lat="40.81144" lon="0.34794">
        <ele>1195.6</ele>
        <time>2022-05-24 18:13:40</time>
      </trkpt>
      <trkpt lat="40.81144" lon="0.34796">
        <ele>1195.8</ele>
        <time>2022-05-24 18:13:41</time>
      </trkpt>
      <trkpt lat="40.81145" lon="0.34798">
        <ele>1195.8</ele>
        <time>2022-05-24 18:13:42</time>
      </trkpt>
      <trkpt lat="40.81147" lon="0.348">
        <ele>1195.6</ele>
        <time>2022-05-24 18:13:43</time>
      </trkpt>
      <trkpt lat="40.81148" lon="0.34802">
        <ele>1195.4</ele>
        <time>2022-05-24 18:13:44</time>
      </trkpt>
      <trkpt lat="40.81149" lon="0.34803">
        <ele>1195.4</ele>
        <time>2022-05-24 18:13:45</time>
      </trkpt>
      <trkpt lat="40.8115" lon="0.34806">
        <ele>1195.2</ele>
        <time>2022-05-24 18:13:46</time>
      </trkpt>
      <trkpt lat="40.8115" lon="0.34808">
        <ele>1195.2</ele>
        <time>2022-05-24 18:13:47</time>
      </trkpt>
      <trkpt lat="40.81151" lon="0.34811">
        <ele>1195.2</ele>
        <time>2022-05-24 18:13:48</time>
      </trkpt>
      <trkpt lat="40.81152" lon="0.34813">
        <ele>1195.2</ele>
        <time>2022-05-24 18:13:49</time>
      </trkpt>
      <trkpt lat="40.81152" lon="0.34815">
        <ele>1195.4</ele>
        <time>2022-05-24 18:13:50</time>
      </trkpt>
      <trkpt lat="40.81153" lon="0.34818">
        <ele>1195.4</ele>
        <time>2022-05-24 18:13:51</time>
      </trkpt>
      <trkpt lat="40.81153" lon="0.3482">
        <ele>1195.6</ele>
        <time>2022-05-24 18:13:52</time>
      </trkpt>
      <trkpt lat="40.81153" lon="0.34822">
        <ele>1195.6</ele>
        <time>2022-05-24 18:13:53</time>
      </trkpt>
      <trkpt lat="40.81154" lon="0.34824">
        <ele>1195.8</ele>
        <time>2022-05-24 18:13:54</time>
      </trkpt>
      <trkpt lat="40.81154" lon="0.34827">
        <ele>1195.8</ele>
        <time>2022-05-24 18:13:55</time>
      </trkpt>
      <trkpt lat="40.81154" lon="0.34829">
        <ele>1196</ele>
        <time>2022-05-24 18:13:56</time>
      </trkpt>
      <trkpt lat="40.81154" lon="0.34832">
        <ele>1196</ele>
        <time>2022-05-24 18:13:57</time>
      </trkpt>
      <trkpt lat="40.81155" lon="0.34834">
        <ele>1196.2</ele>
        <time>2022-05-24 18:13:58</time>
      </trkpt>
      <trkpt lat="40.81155" lon="0.34836">
        <ele>1196.4</ele>
        <time>2022-05-24 18:13:59</time>
      </trkpt>
      <trkpt lat="40.81156" lon="0.34838">
        <ele>1196.4</ele>
        <time>2022-05-24 18:14:00</time>
      </trkpt>
      <trkpt lat="40.81157" lon="0.3484">
        <ele>1196.4</ele>
        <time>2022-05-24 18:14:01</time>
      </trkpt>
      <trkpt lat="40.81157" lon="0.34842">
        <ele>1196.6</ele>
        <time>2022-05-24 18:14:02</time>
      </trkpt>
      <trkpt lat="40.81158" lon="0.34845">
        <ele>1196.8</ele>
        <time>2022-05-24 18:14:03</time>
      </trkpt>
      <trkpt lat="40.81158" lon="0.34847">
        <ele>1197</ele>
        <time>2022-05-24 18:14:04</time>
      </trkpt>
      <trkpt lat="40.81158" lon="0.3485">
        <ele>1197.2</ele>
        <time>2022-05-24 18:14:05</time>
      </trkpt>
      <trkpt lat="40.81158" lon="0.34852">
        <ele>1197.4</ele>
        <time>2022-05-24 18:14:06</time>
      </trkpt>
      <trkpt lat="40.81158" lon="0.34854">
        <ele>1197.6</ele>
        <time>2022-05-24 18:14:07</time>
      </trkpt>
      <trkpt lat="40.81158" lon="0.34855">
        <ele>1197.8</ele>
        <time>2022-05-24 18:14:08</time>
      </trkpt>
      <trkpt lat="40.81158" lon="0.34858">
        <ele>1198</ele>
        <time>2022-05-24 18:14:09</time>
      </trkpt>
      <trkpt lat="40.81159" lon="0.3486">
        <ele>1198.2</ele>
        <time>2022-05-24 18:14:10</time>
      </trkpt>
      <trkpt lat="40.81159" lon="0.34862">
        <ele>1198.6</ele>
        <time>2022-05-24 18:14:11</time>
      </trkpt>
      <trkpt lat="40.81159" lon="0.34864">
        <ele>1198.8</ele>
        <time>2022-05-24 18:14:12</time>
      </trkpt>
      <trkpt lat="40.8116" lon="0.34866">
        <ele>1198.8</ele>
        <time>2022-05-24 18:14:13</time>
      </trkpt>
      <trkpt lat="40.8116" lon="0.34868">
        <ele>1199</ele>
        <time>2022-05-24 18:14:14</time>
      </trkpt>
      <trkpt lat="40.8116" lon="0.3487">
        <ele>1199.2</ele>
        <time>2022-05-24 18:14:15</time>
      </trkpt>
      <trkpt lat="40.8116" lon="0.34872">
        <ele>1199.4</ele>
        <time>2022-05-24 18:14:16</time>
      </trkpt>
      <trkpt lat="40.81161" lon="0.34874">
        <ele>1199.6</ele>
        <time>2022-05-24 18:14:17</time>
      </trkpt>
      <trkpt lat="40.81161" lon="0.34876">
        <ele>1199.6</ele>
        <time>2022-05-24 18:14:18</time>
      </trkpt>
      <trkpt lat="40.81162" lon="0.34878">
        <ele>1199.8</ele>
        <time>2022-05-24 18:14:19</time>
      </trkpt>
      <trkpt lat="40.81163" lon="0.3488">
        <ele>1200</ele>
        <time>2022-05-24 18:14:20</time>
      </trkpt>
      <trkpt lat="40.81163" lon="0.34882">
        <ele>1200.4</ele>
        <time>2022-05-24 18:14:21</time>
      </trkpt>
      <trkpt lat="40.81164" lon="0.34885">
        <ele>1200.6</ele>
        <time>2022-05-24 18:14:22</time>
      </trkpt>
      <trkpt lat="40.81164" lon="0.34887">
        <ele>1200.8</ele>
        <time>2022-05-24 18:14:23</time>
      </trkpt>
      <trkpt lat="40.81165" lon="0.34889">
        <ele>1201</ele>
        <time>2022-05-24 18:14:24</time>
      </trkpt>
      <trkpt lat="40.81165" lon="0.3489">
        <ele>1201.4</ele>
        <time>2022-05-24 18:14:25</time>
      </trkpt>
      <trkpt lat="40.81165" lon="0.34892">
        <ele>1201.6</ele>
        <time>2022-05-24 18:14:26</time>
      </trkpt>
      <trkpt lat="40.81165" lon="0.34894">
        <ele>1201.8</ele>
        <time>2022-05-24 18:14:27</time>
      </trkpt>
      <trkpt lat="40.81166" lon="0.34897">
        <ele>1202.2</ele>
        <time>2022-05-24 18:14:28</time>
      </trkpt>
      <trkpt lat="40.81165" lon="0.34899">
        <ele>1202.6</ele>
        <time>2022-05-24 18:14:29</time>
      </trkpt>
      <trkpt lat="40.81165" lon="0.34901">
        <ele>1202.8</ele>
        <time>2022-05-24 18:14:30</time>
      </trkpt>
      <trkpt lat="40.81165" lon="0.34903">
        <ele>1203</ele>
        <time>2022-05-24 18:14:31</time>
      </trkpt>
      <trkpt lat="40.81164" lon="0.34904">
        <ele>1203.2</ele>
        <time>2022-05-24 18:14:32</time>
      </trkpt>
      <trkpt lat="40.81162" lon="0.34906">
        <ele>1203.8</ele>
        <time>2022-05-24 18:14:33</time>
      </trkpt>
      <trkpt lat="40.8116" lon="0.34906">
        <ele>1204</ele>
        <time>2022-05-24 18:14:34</time>
      </trkpt>
      <trkpt lat="40.81159" lon="0.34905">
        <ele>1204.4</ele>
        <time>2022-05-24 18:14:35</time>
      </trkpt>
      <trkpt lat="40.81158" lon="0.34904">
        <ele>1204.8</ele>
        <time>2022-05-24 18:14:36</time>
      </trkpt>
      <trkpt lat="40.81157" lon="0.34902">
        <ele>1205</ele>
        <time>2022-05-24 18:14:37</time>
      </trkpt>
      <trkpt lat="40.81156" lon="0.34901">
        <ele>1205.4</ele>
        <time>2022-05-24 18:14:38</time>
      </trkpt>
      <trkpt lat="40.81156" lon="0.34898">
        <ele>1205.6</ele>
        <time>2022-05-24 18:14:39</time>
      </trkpt>
      <trkpt lat="40.81156" lon="0.34897">
        <ele>1205.8</ele>
        <time>2022-05-24 18:14:40</time>
      </trkpt>
      <trkpt lat="40.81155" lon="0.34894">
        <ele>1205.8</ele>
        <time>2022-05-24 18:14:41</time>
      </trkpt>
      <trkpt lat="40.81155" lon="0.34892">
        <ele>1206</ele>
        <time>2022-05-24 18:14:42</time>
      </trkpt>
      <trkpt lat="40.81155" lon="0.3489">
        <ele>1206.2</ele>
        <time>2022-05-24 18:14:43</time>
      </trkpt>
      <trkpt lat="40.81154" lon="0.34888">
        <ele>1206.4</ele>
        <time>2022-05-24 18:14:44</time>
      </trkpt>
      <trkpt lat="40.81153" lon="0.34887">
        <ele>1206.6</ele>
        <time>2022-05-24 18:14:45</time>
      </trkpt>
      <trkpt lat="40.81153" lon="0.34886">
        <ele>1206.8</ele>
        <time>2022-05-24 18:14:46</time>
      </trkpt>
      <trkpt lat="40.81152" lon="0.34884">
        <ele>1207</ele>
        <time>2022-05-24 18:14:47</time>
      </trkpt>
      <trkpt lat="40.81152" lon="0.34882">
        <ele>1207.4</ele>
        <time>2022-05-24 18:14:48</time>
      </trkpt>
      <trkpt lat="40.81151" lon="0.3488">
        <ele>1207.6</ele>
        <time>2022-05-24 18:14:49</time>
      </trkpt>
      <trkpt lat="40.8115" lon="0.34878">
        <ele>1207.8</ele>
        <time>2022-05-24 18:14:50</time>
      </trkpt>
      <trkpt lat="40.8115" lon="0.34876">
        <ele>1208</ele>
        <time>2022-05-24 18:14:51</time>
      </trkpt>
      <trkpt lat="40.8115" lon="0.34874">
        <ele>1208.4</ele>
        <time>2022-05-24 18:14:52</time>
      </trkpt>
      <trkpt lat="40.81149" lon="0.34873">
        <ele>1208.6</ele>
        <time>2022-05-24 18:14:53</time>
      </trkpt>
      <trkpt lat="40.81149" lon="0.34872">
        <ele>1208.8</ele>
        <time>2022-05-24 18:14:54</time>
      </trkpt>
      <trkpt lat="40.81148" lon="0.3487">
        <ele>1209</ele>
        <time>2022-05-24 18:14:55</time>
      </trkpt>
      <trkpt lat="40.81147" lon="0.34868">
        <ele>1209.4</ele>
        <time>2022-05-24 18:14:56</time>
      </trkpt>
      <trkpt lat="40.81147" lon="0.34867">
        <ele>1209.6</ele>
        <time>2022-05-24 18:14:57</time>
      </trkpt>
      <trkpt lat="40.81146" lon="0.34865">
        <ele>1209.8</ele>
        <time>2022-05-24 18:14:58</time>
      </trkpt>
      <trkpt lat="40.81146" lon="0.34863">
        <ele>1210</ele>
        <time>2022-05-24 18:14:59</time>
      </trkpt>
      <trkpt lat="40.81145" lon="0.34862">
        <ele>1210.2</ele>
        <time>2022-05-24 18:15:00</time>
      </trkpt>
      <trkpt lat="40.81145" lon="0.3486">
        <ele>1210.4</ele>
        <time>2022-05-24 18:15:01</time>
      </trkpt>
      <trkpt lat="40.81144" lon="0.34859">
        <ele>1210.4</ele>
        <time>2022-05-24 18:15:02</time>
      </trkpt>
      <trkpt lat="40.81144" lon="0.34857">
        <ele>1210.6</ele>
        <time>2022-05-24 18:15:03</time>
      </trkpt>
      <trkpt lat="40.81143" lon="0.34856">
        <ele>1210.6</ele>
        <time>2022-05-24 18:15:04</time>
      </trkpt>
      <trkpt lat="40.81143" lon="0.34854">
        <ele>1210.8</ele>
        <time>2022-05-24 18:15:05</time>
      </trkpt>
      <trkpt lat="40.81142" lon="0.34852">
        <ele>1210.8</ele>
        <time>2022-05-24 18:15:06</time>
      </trkpt>
      <trkpt lat="40.81142" lon="0.3485">
        <ele>1211</ele>
        <time>2022-05-24 18:15:07</time>
      </trkpt>
      <trkpt lat="40.81141" lon="0.34849">
        <ele>1211.2</ele>
        <time>2022-05-24 18:15:08</time>
      </trkpt>
      <trkpt lat="40.81141" lon="0.34846">
        <ele>1211.4</ele>
        <time>2022-05-24 18:15:09</time>
      </trkpt>
      <trkpt lat="40.8114" lon="0.34844">
        <ele>1211.6</ele>
        <time>2022-05-24 18:15:10</time>
      </trkpt>
      <trkpt lat="40.81139" lon="0.34842">
        <ele>1211.6</ele>
        <time>2022-05-24 18:15:11</time>
      </trkpt>
      <trkpt lat="40.81138" lon="0.34839">
        <ele>1211.8</ele>
        <time>2022-05-24 18:15:12</time>
      </trkpt>
      <trkpt lat="40.81137" lon="0.34837">
        <ele>1211.8</ele>
        <time>2022-05-24 18:15:13</time>
      </trkpt>
      <trkpt lat="40.81137" lon="0.34835">
        <ele>1212</ele>
        <time>2022-05-24 18:15:14</time>
      </trkpt>
      <trkpt lat="40.81137" lon="0.34832">
        <ele>1212.2</ele>
        <time>2022-05-24 18:15:15</time>
      </trkpt>
      <trkpt lat="40.81136" lon="0.3483">
        <ele>1212.2</ele>
        <time>2022-05-24 18:15:16</time>
      </trkpt>
      <trkpt lat="40.81135" lon="0.34828">
        <ele>1212.4</ele>
        <time>2022-05-24 18:15:17</time>
      </trkpt>
      <trkpt lat="40.81134" lon="0.34826">
        <ele>1212.6</ele>
        <time>2022-05-24 18:15:18</time>
      </trkpt>
      <trkpt lat="40.81134" lon="0.34824">
        <ele>1212.6</ele>
        <time>2022-05-24 18:15:19</time>
      </trkpt>
      <trkpt lat="40.81133" lon="0.34822">
        <ele>1212.8</ele>
        <time>2022-05-24 18:15:20</time>
      </trkpt>
      <trkpt lat="40.81132" lon="0.3482">
        <ele>1213</ele>
        <time>2022-05-24 18:15:21</time>
      </trkpt>
      <trkpt lat="40.81131" lon="0.34818">
        <ele>1213</ele>
        <time>2022-05-24 18:15:22</time>
      </trkpt>
      <trkpt lat="40.81129" lon="0.34817">
        <ele>1213.2</ele>
        <time>2022-05-24 18:15:23</time>
      </trkpt>
      <trkpt lat="40.81128" lon="0.34816">
        <ele>1213.2</ele>
        <time>2022-05-24 18:15:24</time>
      </trkpt>
      <trkpt lat="40.81127" lon="0.34814">
        <ele>1213.2</ele>
        <time>2022-05-24 18:15:25</time>
      </trkpt>
      <trkpt lat="40.81126" lon="0.34813">
        <ele>1213.4</ele>
        <time>2022-05-24 18:15:26</time>
      </trkpt>
      <trkpt lat="40.81124" lon="0.34811">
        <ele>1213.6</ele>
        <time>2022-05-24 18:15:27</time>
      </trkpt>
      <trkpt lat="40.81123" lon="0.34809">
        <ele>1213.8</ele>
        <time>2022-05-24 18:15:28</time>
      </trkpt>
      <trkpt lat="40.81122" lon="0.34808">
        <ele>1214</ele>
        <time>2022-05-24 18:15:29</time>
      </trkpt>
      <trkpt lat="40.81121" lon="0.34807">
        <ele>1214.2</ele>
        <time>2022-05-24 18:15:30</time>
      </trkpt>
      <trkpt lat="40.8112" lon="0.34806">
        <ele>1214.4</ele>
        <time>2022-05-24 18:15:31</time>
      </trkpt>
      <trkpt lat="40.81118" lon="0.34804">
        <ele>1214.8</ele>
        <time>2022-05-24 18:15:32</time>
      </trkpt>
      <trkpt lat="40.81117" lon="0.34803">
        <ele>1215</ele>
        <time>2022-05-24 18:15:33</time>
      </trkpt>
      <trkpt lat="40.81116" lon="0.34802">
        <ele>1215.2</ele>
        <time>2022-05-24 18:15:34</time>
      </trkpt>
      <trkpt lat="40.81115" lon="0.34801">
        <ele>1215.4</ele>
        <time>2022-05-24 18:15:35</time>
      </trkpt>
      <trkpt lat="40.81113" lon="0.348">
        <ele>1215.4</ele>
        <time>2022-05-24 18:15:36</time>
      </trkpt>
      <trkpt lat="40.81112" lon="0.34799">
        <ele>1215.6</ele>
        <time>2022-05-24 18:15:37</time>
      </trkpt>
      <trkpt lat="40.8111" lon="0.34798">
        <ele>1215.8</ele>
        <time>2022-05-24 18:15:38</time>
      </trkpt>
      <trkpt lat="40.81108" lon="0.34798">
        <ele>1215.8</ele>
        <time>2022-05-24 18:15:39</time>
      </trkpt>
      <trkpt lat="40.81106" lon="0.34797">
        <ele>1216</ele>
        <time>2022-05-24 18:15:40</time>
      </trkpt>
      <trkpt lat="40.81105" lon="0.34796">
        <ele>1216</ele>
        <time>2022-05-24 18:15:41</time>
      </trkpt>
      <trkpt lat="40.81104" lon="0.34795">
        <ele>1216.2</ele>
        <time>2022-05-24 18:15:42</time>
      </trkpt>
      <trkpt lat="40.81103" lon="0.34795">
        <ele>1216.4</ele>
        <time>2022-05-24 18:15:43</time>
      </trkpt>
      <trkpt lat="40.81101" lon="0.34795">
        <ele>1216.6</ele>
        <time>2022-05-24 18:15:44</time>
      </trkpt>
      <trkpt lat="40.81099" lon="0.34795">
        <ele>1216.8</ele>
        <time>2022-05-24 18:15:45</time>
      </trkpt>
      <trkpt lat="40.81097" lon="0.34795">
        <ele>1216.8</ele>
        <time>2022-05-24 18:15:46</time>
      </trkpt>
      <trkpt lat="40.81096" lon="0.34794">
        <ele>1217</ele>
        <time>2022-05-24 18:15:47</time>
      </trkpt>
      <trkpt lat="40.81094" lon="0.34794">
        <ele>1217</ele>
        <time>2022-05-24 18:15:48</time>
      </trkpt>
      <trkpt lat="40.81093" lon="0.34793">
        <ele>1217</ele>
        <time>2022-05-24 18:15:49</time>
      </trkpt>
      <trkpt lat="40.81092" lon="0.34793">
        <ele>1217.2</ele>
        <time>2022-05-24 18:15:50</time>
      </trkpt>
      <trkpt lat="40.81089" lon="0.34793">
        <ele>1217.4</ele>
        <time>2022-05-24 18:15:51</time>
      </trkpt>
      <trkpt lat="40.81088" lon="0.34793">
        <ele>1217.4</ele>
        <time>2022-05-24 18:15:52</time>
      </trkpt>
      <trkpt lat="40.81086" lon="0.34793">
        <ele>1217.6</ele>
        <time>2022-05-24 18:15:53</time>
      </trkpt>
      <trkpt lat="40.81085" lon="0.34792">
        <ele>1217.8</ele>
        <time>2022-05-24 18:15:54</time>
      </trkpt>
      <trkpt lat="40.81084" lon="0.34792">
        <ele>1218</ele>
        <time>2022-05-24 18:15:55</time>
      </trkpt>
      <trkpt lat="40.81083" lon="0.34791">
        <ele>1218.2</ele>
        <time>2022-05-24 18:15:56</time>
      </trkpt>
      <trkpt lat="40.81081" lon="0.34791">
        <ele>1218.4</ele>
        <time>2022-05-24 18:15:57</time>
      </trkpt>
      <trkpt lat="40.81079" lon="0.34792">
        <ele>1218.4</ele>
        <time>2022-05-24 18:15:58</time>
      </trkpt>
      <trkpt lat="40.81078" lon="0.34792">
        <ele>1218.6</ele>
        <time>2022-05-24 18:15:59</time>
      </trkpt>
      <trkpt lat="40.81077" lon="0.34793">
        <ele>1218.8</ele>
        <time>2022-05-24 18:16:00</time>
      </trkpt>
      <trkpt lat="40.81075" lon="0.34792">
        <ele>1218.8</ele>
        <time>2022-05-24 18:16:01</time>
      </trkpt>
      <trkpt lat="40.81074" lon="0.34792">
        <ele>1219</ele>
        <time>2022-05-24 18:16:02</time>
      </trkpt>
      <trkpt lat="40.81072" lon="0.34792">
        <ele>1219.2</ele>
        <time>2022-05-24 18:16:03</time>
      </trkpt>
      <trkpt lat="40.81071" lon="0.34793">
        <ele>1219.4</ele>
        <time>2022-05-24 18:16:04</time>
      </trkpt>
      <trkpt lat="40.8107" lon="0.34793">
        <ele>1219.6</ele>
        <time>2022-05-24 18:16:05</time>
      </trkpt>
      <trkpt lat="40.81068" lon="0.34794">
        <ele>1219.8</ele>
        <time>2022-05-24 18:16:06</time>
      </trkpt>
      <trkpt lat="40.81067" lon="0.34794">
        <ele>1220.2</ele>
        <time>2022-05-24 18:16:07</time>
      </trkpt>
      <trkpt lat="40.81065" lon="0.34794">
        <ele>1220.4</ele>
        <time>2022-05-24 18:16:08</time>
      </trkpt>
      <trkpt lat="40.81065" lon="0.34795">
        <ele>1220.6</ele>
        <time>2022-05-24 18:16:09</time>
      </trkpt>
      <trkpt lat="40.81063" lon="0.34795">
        <ele>1220.8</ele>
        <time>2022-05-24 18:16:10</time>
      </trkpt>
      <trkpt lat="40.8106" lon="0.34795">
        <ele>1221.2</ele>
        <time>2022-05-24 18:16:11</time>
      </trkpt>
      <trkpt lat="40.81059" lon="0.34795">
        <ele>1221.6</ele>
        <time>2022-05-24 18:16:12</time>
      </trkpt>
      <trkpt lat="40.81058" lon="0.34795">
        <ele>1222</ele>
        <time>2022-05-24 18:16:13</time>
      </trkpt>
      <trkpt lat="40.81056" lon="0.34795">
        <ele>1222.2</ele>
        <time>2022-05-24 18:16:14</time>
      </trkpt>
      <trkpt lat="40.81055" lon="0.34796">
        <ele>1222.6</ele>
        <time>2022-05-24 18:16:15</time>
      </trkpt>
      <trkpt lat="40.81054" lon="0.34796">
        <ele>1222.6</ele>
        <time>2022-05-24 18:16:16</time>
      </trkpt>
      <trkpt lat="40.81052" lon="0.34796">
        <ele>1222.8</ele>
        <time>2022-05-24 18:16:17</time>
      </trkpt>
      <trkpt lat="40.8105" lon="0.34797">
        <ele>1223.4</ele>
        <time>2022-05-24 18:16:18</time>
      </trkpt>
      <trkpt lat="40.81049" lon="0.34797">
        <ele>1223.4</ele>
        <time>2022-05-24 18:16:19</time>
      </trkpt>
      <trkpt lat="40.81048" lon="0.34798">
        <ele>1223.2</ele>
        <time>2022-05-24 18:16:20</time>
      </trkpt>
      <trkpt lat="40.81047" lon="0.34798">
        <ele>1223.2</ele>
        <time>2022-05-24 18:16:21</time>
      </trkpt>
      <trkpt lat="40.81045" lon="0.34799">
        <ele>1223.2</ele>
        <time>2022-05-24 18:16:22</time>
      </trkpt>
      <trkpt lat="40.81044" lon="0.348">
        <ele>1223.4</ele>
        <time>2022-05-24 18:16:23</time>
      </trkpt>
      <trkpt lat="40.81042" lon="0.348">
        <ele>1223.6</ele>
        <time>2022-05-24 18:16:24</time>
      </trkpt>
      <trkpt lat="40.81041" lon="0.348">
        <ele>1223.8</ele>
        <time>2022-05-24 18:16:25</time>
      </trkpt>
      <trkpt lat="40.8104" lon="0.34801">
        <ele>1223.6</ele>
        <time>2022-05-24 18:16:26</time>
      </trkpt>
      <trkpt lat="40.81039" lon="0.34802">
        <ele>1223.6</ele>
        <time>2022-05-24 18:16:27</time>
      </trkpt>
      <trkpt lat="40.81038" lon="0.34804">
        <ele>1223.6</ele>
        <time>2022-05-24 18:16:28</time>
      </trkpt>
      <trkpt lat="40.81036" lon="0.34804">
        <ele>1223.8</ele>
        <time>2022-05-24 18:16:29</time>
      </trkpt>
      <trkpt lat="40.81033" lon="0.34804">
        <ele>1223.8</ele>
        <time>2022-05-24 18:16:30</time>
      </trkpt>
      <trkpt lat="40.81031" lon="0.34804">
        <ele>1224</ele>
        <time>2022-05-24 18:16:31</time>
      </trkpt>
      <trkpt lat="40.81029" lon="0.34804">
        <ele>1224.2</ele>
        <time>2022-05-24 18:16:32</time>
      </trkpt>
      <trkpt lat="40.81028" lon="0.34804">
        <ele>1224.2</ele>
        <time>2022-05-24 18:16:33</time>
      </trkpt>
      <trkpt lat="40.81026" lon="0.34804">
        <ele>1224.4</ele>
        <time>2022-05-24 18:16:34</time>
      </trkpt>
      <trkpt lat="40.81024" lon="0.34804">
        <ele>1224.4</ele>
        <time>2022-05-24 18:16:35</time>
      </trkpt>
      <trkpt lat="40.81022" lon="0.34805">
        <ele>1224.6</ele>
        <time>2022-05-24 18:16:36</time>
      </trkpt>
      <trkpt lat="40.8102" lon="0.34805">
        <ele>1224.8</ele>
        <time>2022-05-24 18:16:37</time>
      </trkpt>
      <trkpt lat="40.81019" lon="0.34805">
        <ele>1225</ele>
        <time>2022-05-24 18:16:38</time>
      </trkpt>
      <trkpt lat="40.81018" lon="0.34805">
        <ele>1225.2</ele>
        <time>2022-05-24 18:16:39</time>
      </trkpt>
      <trkpt lat="40.81016" lon="0.34804">
        <ele>1225.4</ele>
        <time>2022-05-24 18:16:40</time>
      </trkpt>
      <trkpt lat="40.81013" lon="0.34803">
        <ele>1225.6</ele>
        <time>2022-05-24 18:16:41</time>
      </trkpt>
      <trkpt lat="40.81012" lon="0.34803">
        <ele>1225.8</ele>
        <time>2022-05-24 18:16:42</time>
      </trkpt>
      <trkpt lat="40.8101" lon="0.34803">
        <ele>1226</ele>
        <time>2022-05-24 18:16:43</time>
      </trkpt>
      <trkpt lat="40.81008" lon="0.34803">
        <ele>1226.2</ele>
        <time>2022-05-24 18:16:44</time>
      </trkpt>
      <trkpt lat="40.81006" lon="0.34803">
        <ele>1226.6</ele>
        <time>2022-05-24 18:16:45</time>
      </trkpt>
      <trkpt lat="40.81005" lon="0.34803">
        <ele>1226.8</ele>
        <time>2022-05-24 18:16:46</time>
      </trkpt>
      <trkpt lat="40.81003" lon="0.34803">
        <ele>1227</ele>
        <time>2022-05-24 18:16:47</time>
      </trkpt>
      <trkpt lat="40.81001" lon="0.34804">
        <ele>1227.4</ele>
        <time>2022-05-24 18:16:48</time>
      </trkpt>
      <trkpt lat="40.80999" lon="0.34804">
        <ele>1227.6</ele>
        <time>2022-05-24 18:16:49</time>
      </trkpt>
      <trkpt lat="40.80998" lon="0.34804">
        <ele>1227.8</ele>
        <time>2022-05-24 18:16:50</time>
      </trkpt>
      <trkpt lat="40.80996" lon="0.34804">
        <ele>1228.2</ele>
        <time>2022-05-24 18:16:51</time>
      </trkpt>
      <trkpt lat="40.80995" lon="0.34804">
        <ele>1228.4</ele>
        <time>2022-05-24 18:16:52</time>
      </trkpt>
      <trkpt lat="40.80993" lon="0.34804">
        <ele>1228.8</ele>
        <time>2022-05-24 18:16:53</time>
      </trkpt>
      <trkpt lat="40.80991" lon="0.34804">
        <ele>1229</ele>
        <time>2022-05-24 18:16:54</time>
      </trkpt>
      <trkpt lat="40.80989" lon="0.34804">
        <ele>1229.2</ele>
        <time>2022-05-24 18:16:55</time>
      </trkpt>
      <trkpt lat="40.80987" lon="0.34803">
        <ele>1229.2</ele>
        <time>2022-05-24 18:16:56</time>
      </trkpt>
      <trkpt lat="40.80985" lon="0.34803">
        <ele>1229.4</ele>
        <time>2022-05-24 18:16:57</time>
      </trkpt>
      <trkpt lat="40.80983" lon="0.34803">
        <ele>1229.6</ele>
        <time>2022-05-24 18:16:58</time>
      </trkpt>
      <trkpt lat="40.80981" lon="0.34804">
        <ele>1229.6</ele>
        <time>2022-05-24 18:16:59</time>
      </trkpt>
      <trkpt lat="40.8098" lon="0.34804">
        <ele>1230</ele>
        <time>2022-05-24 18:17:00</time>
      </trkpt>
      <trkpt lat="40.80979" lon="0.34805">
        <ele>1230.2</ele>
        <time>2022-05-24 18:17:01</time>
      </trkpt>
      <trkpt lat="40.80977" lon="0.34805">
        <ele>1230.4</ele>
        <time>2022-05-24 18:17:02</time>
      </trkpt>
      <trkpt lat="40.80974" lon="0.34805">
        <ele>1230.6</ele>
        <time>2022-05-24 18:17:03</time>
      </trkpt>
      <trkpt lat="40.80973" lon="0.34804">
        <ele>1231</ele>
        <time>2022-05-24 18:17:04</time>
      </trkpt>
      <trkpt lat="40.80971" lon="0.34804">
        <ele>1231.2</ele>
        <time>2022-05-24 18:17:05</time>
      </trkpt>
      <trkpt lat="40.8097" lon="0.34804">
        <ele>1231.6</ele>
        <time>2022-05-24 18:17:06</time>
      </trkpt>
      <trkpt lat="40.80968" lon="0.34804">
        <ele>1231.8</ele>
        <time>2022-05-24 18:17:07</time>
      </trkpt>
      <trkpt lat="40.80967" lon="0.34804">
        <ele>1232</ele>
        <time>2022-05-24 18:17:08</time>
      </trkpt>
      <trkpt lat="40.80965" lon="0.34804">
        <ele>1232.4</ele>
        <time>2022-05-24 18:17:09</time>
      </trkpt>
      <trkpt lat="40.80964" lon="0.34804">
        <ele>1232.6</ele>
        <time>2022-05-24 18:17:10</time>
      </trkpt>
      <trkpt lat="40.80962" lon="0.34804">
        <ele>1232.8</ele>
        <time>2022-05-24 18:17:11</time>
      </trkpt>
      <trkpt lat="40.80961" lon="0.34805">
        <ele>1233.2</ele>
        <time>2022-05-24 18:17:12</time>
      </trkpt>
      <trkpt lat="40.8096" lon="0.34805">
        <ele>1233.4</ele>
        <time>2022-05-24 18:17:13</time>
      </trkpt>
      <trkpt lat="40.80959" lon="0.34805">
        <ele>1233.6</ele>
        <time>2022-05-24 18:17:14</time>
      </trkpt>
      <trkpt lat="40.80957" lon="0.34806">
        <ele>1233.8</ele>
        <time>2022-05-24 18:17:15</time>
      </trkpt>
      <trkpt lat="40.80956" lon="0.34806">
        <ele>1234</ele>
        <time>2022-05-24 18:17:16</time>
      </trkpt>
      <trkpt lat="40.80954" lon="0.34807">
        <ele>1234.2</ele>
        <time>2022-05-24 18:17:17</time>
      </trkpt>
      <trkpt lat="40.80953" lon="0.34807">
        <ele>1234.4</ele>
        <time>2022-05-24 18:17:18</time>
      </trkpt>
      <trkpt lat="40.80952" lon="0.34807">
        <ele>1234.6</ele>
        <time>2022-05-24 18:17:19</time>
      </trkpt>
      <trkpt lat="40.8095" lon="0.34807">
        <ele>1234.8</ele>
        <time>2022-05-24 18:17:20</time>
      </trkpt>
      <trkpt lat="40.80949" lon="0.34808">
        <ele>1234.8</ele>
        <time>2022-05-24 18:17:21</time>
      </trkpt>
      <trkpt lat="40.80948" lon="0.34808">
        <ele>1235</ele>
        <time>2022-05-24 18:17:22</time>
      </trkpt>
      <trkpt lat="40.80947" lon="0.34809">
        <ele>1235.2</ele>
        <time>2022-05-24 18:17:23</time>
      </trkpt>
      <trkpt lat="40.80946" lon="0.34809">
        <ele>1235.2</ele>
        <time>2022-05-24 18:17:24</time>
      </trkpt>
      <trkpt lat="40.80944" lon="0.3481">
        <ele>1235.4</ele>
        <time>2022-05-24 18:17:25</time>
      </trkpt>
      <trkpt lat="40.80942" lon="0.3481">
        <ele>1235.4</ele>
        <time>2022-05-24 18:17:26</time>
      </trkpt>
      <trkpt lat="40.80941" lon="0.34811">
        <ele>1235.4</ele>
        <time>2022-05-24 18:17:27</time>
      </trkpt>
      <trkpt lat="40.80939" lon="0.34811">
        <ele>1235.6</ele>
        <time>2022-05-24 18:17:28</time>
      </trkpt>
      <trkpt lat="40.80938" lon="0.34811">
        <ele>1235.6</ele>
        <time>2022-05-24 18:17:29</time>
      </trkpt>
      <trkpt lat="40.80937" lon="0.34811">
        <ele>1235.8</ele>
        <time>2022-05-24 18:17:30</time>
      </trkpt>
      <trkpt lat="40.80935" lon="0.34812">
        <ele>1236</ele>
        <time>2022-05-24 18:17:31</time>
      </trkpt>
      <trkpt lat="40.80934" lon="0.34812">
        <ele>1236</ele>
        <time>2022-05-24 18:17:32</time>
      </trkpt>
      <trkpt lat="40.80933" lon="0.34812">
        <ele>1236.2</ele>
        <time>2022-05-24 18:17:33</time>
      </trkpt>
      <trkpt lat="40.80931" lon="0.34812">
        <ele>1236.4</ele>
        <time>2022-05-24 18:17:34</time>
      </trkpt>
      <trkpt lat="40.8093" lon="0.34812">
        <ele>1236.4</ele>
        <time>2022-05-24 18:17:35</time>
      </trkpt>
      <trkpt lat="40.80928" lon="0.34812">
        <ele>1236.6</ele>
        <time>2022-05-24 18:17:36</time>
      </trkpt>
      <trkpt lat="40.80926" lon="0.34812">
        <ele>1236.8</ele>
        <time>2022-05-24 18:17:37</time>
      </trkpt>
      <trkpt lat="40.80924" lon="0.34812">
        <ele>1237</ele>
        <time>2022-05-24 18:17:38</time>
      </trkpt>
      <trkpt lat="40.80923" lon="0.34812">
        <ele>1237.2</ele>
        <time>2022-05-24 18:17:39</time>
      </trkpt>
      <trkpt lat="40.80921" lon="0.34812">
        <ele>1237.2</ele>
        <time>2022-05-24 18:17:40</time>
      </trkpt>
      <trkpt lat="40.80919" lon="0.34812">
        <ele>1237.4</ele>
        <time>2022-05-24 18:17:41</time>
      </trkpt>
      <trkpt lat="40.80918" lon="0.34812">
        <ele>1237.6</ele>
        <time>2022-05-24 18:17:42</time>
      </trkpt>
      <trkpt lat="40.80916" lon="0.34812">
        <ele>1237.8</ele>
        <time>2022-05-24 18:17:43</time>
      </trkpt>
      <trkpt lat="40.80915" lon="0.34813">
        <ele>1238</ele>
        <time>2022-05-24 18:17:44</time>
      </trkpt>
      <trkpt lat="40.80913" lon="0.34813">
        <ele>1238</ele>
        <time>2022-05-24 18:17:45</time>
      </trkpt>
      <trkpt lat="40.80911" lon="0.34813">
        <ele>1238.2</ele>
        <time>2022-05-24 18:17:46</time>
      </trkpt>
      <trkpt lat="40.80909" lon="0.34812">
        <ele>1238.4</ele>
        <time>2022-05-24 18:17:47</time>
      </trkpt>
      <trkpt lat="40.80907" lon="0.34812">
        <ele>1238.6</ele>
        <time>2022-05-24 18:17:48</time>
      </trkpt>
      <trkpt lat="40.80906" lon="0.34811">
        <ele>1238.8</ele>
        <time>2022-05-24 18:17:49</time>
      </trkpt>
      <trkpt lat="40.80904" lon="0.34811">
        <ele>1239</ele>
        <time>2022-05-24 18:17:50</time>
      </trkpt>
      <trkpt lat="40.80902" lon="0.3481">
        <ele>1239.2</ele>
        <time>2022-05-24 18:17:51</time>
      </trkpt>
      <trkpt lat="40.80901" lon="0.3481">
        <ele>1239.2</ele>
        <time>2022-05-24 18:17:52</time>
      </trkpt>
      <trkpt lat="40.80899" lon="0.3481">
        <ele>1239.4</ele>
        <time>2022-05-24 18:17:53</time>
      </trkpt>
      <trkpt lat="40.80898" lon="0.34809">
        <ele>1239.4</ele>
        <time>2022-05-24 18:17:54</time>
      </trkpt>
      <trkpt lat="40.80897" lon="0.34809">
        <ele>1239.6</ele>
        <time>2022-05-24 18:17:55</time>
      </trkpt>
      <trkpt lat="40.80895" lon="0.34808">
        <ele>1239.8</ele>
        <time>2022-05-24 18:17:56</time>
      </trkpt>
      <trkpt lat="40.80894" lon="0.34807">
        <ele>1240.2</ele>
        <time>2022-05-24 18:17:57</time>
      </trkpt>
      <trkpt lat="40.80893" lon="0.34806">
        <ele>1240.4</ele>
        <time>2022-05-24 18:17:58</time>
      </trkpt>
      <trkpt lat="40.80892" lon="0.34804">
        <ele>1240.4</ele>
        <time>2022-05-24 18:17:59</time>
      </trkpt>
      <trkpt lat="40.80891" lon="0.34803">
        <ele>1240.6</ele>
        <time>2022-05-24 18:18:00</time>
      </trkpt>
      <trkpt lat="40.8089" lon="0.34801">
        <ele>1240.6</ele>
        <time>2022-05-24 18:18:01</time>
      </trkpt>
      <trkpt lat="40.80889" lon="0.348">
        <ele>1240.8</ele>
        <time>2022-05-24 18:18:02</time>
      </trkpt>
      <trkpt lat="40.80888" lon="0.34798">
        <ele>1241</ele>
        <time>2022-05-24 18:18:03</time>
      </trkpt>
      <trkpt lat="40.80887" lon="0.34796">
        <ele>1241.2</ele>
        <time>2022-05-24 18:18:04</time>
      </trkpt>
      <trkpt lat="40.80886" lon="0.34794">
        <ele>1241.6</ele>
        <time>2022-05-24 18:18:05</time>
      </trkpt>
      <trkpt lat="40.80886" lon="0.34792">
        <ele>1241.8</ele>
        <time>2022-05-24 18:18:06</time>
      </trkpt>
      <trkpt lat="40.80885" lon="0.3479">
        <ele>1242.2</ele>
        <time>2022-05-24 18:18:07</time>
      </trkpt>
      <trkpt lat="40.80884" lon="0.34788">
        <ele>1242.4</ele>
        <time>2022-05-24 18:18:08</time>
      </trkpt>
      <trkpt lat="40.80883" lon="0.34786">
        <ele>1242.6</ele>
        <time>2022-05-24 18:18:09</time>
      </trkpt>
      <trkpt lat="40.80882" lon="0.34785">
        <ele>1242.8</ele>
        <time>2022-05-24 18:18:10</time>
      </trkpt>
      <trkpt lat="40.80881" lon="0.34784">
        <ele>1243</ele>
        <time>2022-05-24 18:18:11</time>
      </trkpt>
      <trkpt lat="40.8088" lon="0.34782">
        <ele>1243.4</ele>
        <time>2022-05-24 18:18:12</time>
      </trkpt>
      <trkpt lat="40.80878" lon="0.34781">
        <ele>1243.6</ele>
        <time>2022-05-24 18:18:13</time>
      </trkpt>
      <trkpt lat="40.80877" lon="0.3478">
        <ele>1243.8</ele>
        <time>2022-05-24 18:18:14</time>
      </trkpt>
      <trkpt lat="40.80875" lon="0.34781">
        <ele>1243.8</ele>
        <time>2022-05-24 18:18:15</time>
      </trkpt>
      <trkpt lat="40.80873" lon="0.34781">
        <ele>1244</ele>
        <time>2022-05-24 18:18:16</time>
      </trkpt>
      <trkpt lat="40.80872" lon="0.34783">
        <ele>1244</ele>
        <time>2022-05-24 18:18:17</time>
      </trkpt>
      <trkpt lat="40.80871" lon="0.34784">
        <ele>1244.4</ele>
        <time>2022-05-24 18:18:18</time>
      </trkpt>
      <trkpt lat="40.8087" lon="0.34786">
        <ele>1244.6</ele>
        <time>2022-05-24 18:18:19</time>
      </trkpt>
      <trkpt lat="40.80869" lon="0.34788">
        <ele>1244.8</ele>
        <time>2022-05-24 18:18:20</time>
      </trkpt>
      <trkpt lat="40.80868" lon="0.34791">
        <ele>1245</ele>
        <time>2022-05-24 18:18:21</time>
      </trkpt>
      <trkpt lat="40.80868" lon="0.34793">
        <ele>1245.2</ele>
        <time>2022-05-24 18:18:22</time>
      </trkpt>
      <trkpt lat="40.80868" lon="0.34795">
        <ele>1245.4</ele>
        <time>2022-05-24 18:18:23</time>
      </trkpt>
      <trkpt lat="40.80868" lon="0.34797">
        <ele>1245.6</ele>
        <time>2022-05-24 18:18:24</time>
      </trkpt>
      <trkpt lat="40.80868" lon="0.348">
        <ele>1246</ele>
        <time>2022-05-24 18:18:25</time>
      </trkpt>
      <trkpt lat="40.80868" lon="0.34802">
        <ele>1246</ele>
        <time>2022-05-24 18:18:26</time>
      </trkpt>
      <trkpt lat="40.80869" lon="0.34804">
        <ele>1246.2</ele>
        <time>2022-05-24 18:18:27</time>
      </trkpt>
      <trkpt lat="40.80869" lon="0.34805">
        <ele>1246.4</ele>
        <time>2022-05-24 18:18:28</time>
      </trkpt>
      <trkpt lat="40.80869" lon="0.34807">
        <ele>1246.8</ele>
        <time>2022-05-24 18:18:29</time>
      </trkpt>
      <trkpt lat="40.80869" lon="0.34809">
        <ele>1247</ele>
        <time>2022-05-24 18:18:30</time>
      </trkpt>
      <trkpt lat="40.8087" lon="0.34811">
        <ele>1247.2</ele>
        <time>2022-05-24 18:18:31</time>
      </trkpt>
      <trkpt lat="40.8087" lon="0.34813">
        <ele>1247.4</ele>
        <time>2022-05-24 18:18:32</time>
      </trkpt>
      <trkpt lat="40.80871" lon="0.34814">
        <ele>1247.4</ele>
        <time>2022-05-24 18:18:33</time>
      </trkpt>
      <trkpt lat="40.80872" lon="0.34816">
        <ele>1247.6</ele>
        <time>2022-05-24 18:18:34</time>
      </trkpt>
      <trkpt lat="40.80873" lon="0.34818">
        <ele>1247.8</ele>
        <time>2022-05-24 18:18:35</time>
      </trkpt>
      <trkpt lat="40.80875" lon="0.34819">
        <ele>1248.2</ele>
        <time>2022-05-24 18:18:36</time>
      </trkpt>
      <trkpt lat="40.80876" lon="0.34821">
        <ele>1248.4</ele>
        <time>2022-05-24 18:18:37</time>
      </trkpt>
      <trkpt lat="40.80877" lon="0.34823">
        <ele>1248.6</ele>
        <time>2022-05-24 18:18:38</time>
      </trkpt>
      <trkpt lat="40.80878" lon="0.34824">
        <ele>1248.8</ele>
        <time>2022-05-24 18:18:39</time>
      </trkpt>
      <trkpt lat="40.80879" lon="0.34825">
        <ele>1249.2</ele>
        <time>2022-05-24 18:18:40</time>
      </trkpt>
      <trkpt lat="40.8088" lon="0.34826">
        <ele>1249.4</ele>
        <time>2022-05-24 18:18:41</time>
      </trkpt>
      <trkpt lat="40.80881" lon="0.34828">
        <ele>1249.6</ele>
        <time>2022-05-24 18:18:42</time>
      </trkpt>
      <trkpt lat="40.80882" lon="0.34829">
        <ele>1249.8</ele>
        <time>2022-05-24 18:18:43</time>
      </trkpt>
      <trkpt lat="40.80883" lon="0.3483">
        <ele>1250</ele>
        <time>2022-05-24 18:18:44</time>
      </trkpt>
      <trkpt lat="40.80885" lon="0.34832">
        <ele>1250.2</ele>
        <time>2022-05-24 18:18:45</time>
      </trkpt>
      <trkpt lat="40.80886" lon="0.34833">
        <ele>1250.4</ele>
        <time>2022-05-24 18:18:46</time>
      </trkpt>
      <trkpt lat="40.80887" lon="0.34835">
        <ele>1250.6</ele>
        <time>2022-05-24 18:18:47</time>
      </trkpt>
      <trkpt lat="40.80888" lon="0.34837">
        <ele>1250.8</ele>
        <time>2022-05-24 18:18:48</time>
      </trkpt>
      <trkpt lat="40.80889" lon="0.34838">
        <ele>1251</ele>
        <time>2022-05-24 18:18:49</time>
      </trkpt>
      <trkpt lat="40.8089" lon="0.3484">
        <ele>1251.2</ele>
        <time>2022-05-24 18:18:50</time>
      </trkpt>
      <trkpt lat="40.80892" lon="0.34841">
        <ele>1251.4</ele>
        <time>2022-05-24 18:18:51</time>
      </trkpt>
      <trkpt lat="40.80893" lon="0.34842">
        <ele>1251.4</ele>
        <time>2022-05-24 18:18:52</time>
      </trkpt>
      <trkpt lat="40.80895" lon="0.34844">
        <ele>1251.6</ele>
        <time>2022-05-24 18:18:53</time>
      </trkpt>
      <trkpt lat="40.80896" lon="0.34845">
        <ele>1251.8</ele>
        <time>2022-05-24 18:18:54</time>
      </trkpt>
      <trkpt lat="40.80898" lon="0.34846">
        <ele>1252</ele>
        <time>2022-05-24 18:18:55</time>
      </trkpt>
      <trkpt lat="40.80899" lon="0.34847">
        <ele>1252.2</ele>
        <time>2022-05-24 18:18:56</time>
      </trkpt>
      <trkpt lat="40.80901" lon="0.34848">
        <ele>1252.4</ele>
        <time>2022-05-24 18:18:57</time>
      </trkpt>
      <trkpt lat="40.80902" lon="0.34849">
        <ele>1252.6</ele>
        <time>2022-05-24 18:18:58</time>
      </trkpt>
      <trkpt lat="40.80904" lon="0.3485">
        <ele>1253</ele>
        <time>2022-05-24 18:18:59</time>
      </trkpt>
      <trkpt lat="40.80906" lon="0.3485">
        <ele>1253.2</ele>
        <time>2022-05-24 18:19:00</time>
      </trkpt>
      <trkpt lat="40.80907" lon="0.34851">
        <ele>1253.2</ele>
        <time>2022-05-24 18:19:01</time>
      </trkpt>
      <trkpt lat="40.80909" lon="0.34851">
        <ele>1253.4</ele>
        <time>2022-05-24 18:19:02</time>
      </trkpt>
      <trkpt lat="40.80911" lon="0.34852">
        <ele>1253.8</ele>
        <time>2022-05-24 18:19:03</time>
      </trkpt>
      <trkpt lat="40.80912" lon="0.34852">
        <ele>1254</ele>
        <time>2022-05-24 18:19:04</time>
      </trkpt>
      <trkpt lat="40.80914" lon="0.34853">
        <ele>1254.2</ele>
        <time>2022-05-24 18:19:05</time>
      </trkpt>
      <trkpt lat="40.80915" lon="0.34854">
        <ele>1254.4</ele>
        <time>2022-05-24 18:19:06</time>
      </trkpt>
      <trkpt lat="40.80917" lon="0.34854">
        <ele>1254.6</ele>
        <time>2022-05-24 18:19:07</time>
      </trkpt>
      <trkpt lat="40.80919" lon="0.34855">
        <ele>1255</ele>
        <time>2022-05-24 18:19:08</time>
      </trkpt>
      <trkpt lat="40.8092" lon="0.34856">
        <ele>1255.2</ele>
        <time>2022-05-24 18:19:09</time>
      </trkpt>
      <trkpt lat="40.80922" lon="0.34857">
        <ele>1255.4</ele>
        <time>2022-05-24 18:19:10</time>
      </trkpt>
      <trkpt lat="40.80924" lon="0.34857">
        <ele>1255.6</ele>
        <time>2022-05-24 18:19:11</time>
      </trkpt>
      <trkpt lat="40.80925" lon="0.34857">
        <ele>1255.8</ele>
        <time>2022-05-24 18:19:12</time>
      </trkpt>
      <trkpt lat="40.80927" lon="0.34858">
        <ele>1256</ele>
        <time>2022-05-24 18:19:13</time>
      </trkpt>
      <trkpt lat="40.80928" lon="0.34859">
        <ele>1256.4</ele>
        <time>2022-05-24 18:19:14</time>
      </trkpt>
      <trkpt lat="40.8093" lon="0.3486">
        <ele>1257</ele>
        <time>2022-05-24 18:19:15</time>
      </trkpt>
      <trkpt lat="40.80931" lon="0.3486">
        <ele>1257.4</ele>
        <time>2022-05-24 18:19:16</time>
      </trkpt>
      <trkpt lat="40.80933" lon="0.3486">
        <ele>1257.4</ele>
        <time>2022-05-24 18:19:17</time>
      </trkpt>
      <trkpt lat="40.80935" lon="0.3486">
        <ele>1257.2</ele>
        <time>2022-05-24 18:19:18</time>
      </trkpt>
      <trkpt lat="40.80937" lon="0.3486">
        <ele>1257.4</ele>
        <time>2022-05-24 18:19:19</time>
      </trkpt>
      <trkpt lat="40.80938" lon="0.3486">
        <ele>1257.6</ele>
        <time>2022-05-24 18:19:20</time>
      </trkpt>
      <trkpt lat="40.8094" lon="0.3486">
        <ele>1257.6</ele>
        <time>2022-05-24 18:19:21</time>
      </trkpt>
      <trkpt lat="40.80941" lon="0.34861">
        <ele>1257.8</ele>
        <time>2022-05-24 18:19:22</time>
      </trkpt>
      <trkpt lat="40.80943" lon="0.34861">
        <ele>1258</ele>
        <time>2022-05-24 18:19:23</time>
      </trkpt>
      <trkpt lat="40.80945" lon="0.34861">
        <ele>1258.2</ele>
        <time>2022-05-24 18:19:24</time>
      </trkpt>
      <trkpt lat="40.80946" lon="0.34862">
        <ele>1258.4</ele>
        <time>2022-05-24 18:19:25</time>
      </trkpt>
      <trkpt lat="40.80947" lon="0.34862">
        <ele>1258.6</ele>
        <time>2022-05-24 18:19:26</time>
      </trkpt>
      <trkpt lat="40.80949" lon="0.34862">
        <ele>1258.8</ele>
        <time>2022-05-24 18:19:27</time>
      </trkpt>
      <trkpt lat="40.80951" lon="0.34862">
        <ele>1259</ele>
        <time>2022-05-24 18:19:28</time>
      </trkpt>
      <trkpt lat="40.80952" lon="0.34862">
        <ele>1259.2</ele>
        <time>2022-05-24 18:19:29</time>
      </trkpt>
      <trkpt lat="40.80953" lon="0.34862">
        <ele>1259.4</ele>
        <time>2022-05-24 18:19:30</time>
      </trkpt>
      <trkpt lat="40.80955" lon="0.34862">
        <ele>1259.6</ele>
        <time>2022-05-24 18:19:31</time>
      </trkpt>
      <trkpt lat="40.80957" lon="0.34862">
        <ele>1260</ele>
        <time>2022-05-24 18:19:32</time>
      </trkpt>
      <trkpt lat="40.80959" lon="0.34862">
        <ele>1260.2</ele>
        <time>2022-05-24 18:19:33</time>
      </trkpt>
      <trkpt lat="40.8096" lon="0.34862">
        <ele>1260.4</ele>
        <time>2022-05-24 18:19:34</time>
      </trkpt>
      <trkpt lat="40.80962" lon="0.34861">
        <ele>1260.6</ele>
        <time>2022-05-24 18:19:35</time>
      </trkpt>
      <trkpt lat="40.80964" lon="0.34861">
        <ele>1261</ele>
        <time>2022-05-24 18:19:36</time>
      </trkpt>
      <trkpt lat="40.80966" lon="0.34861">
        <ele>1261.4</ele>
        <time>2022-05-24 18:19:37</time>
      </trkpt>
      <trkpt lat="40.80967" lon="0.34861">
        <ele>1261.6</ele>
        <time>2022-05-24 18:19:38</time>
      </trkpt>
      <trkpt lat="40.80969" lon="0.3486">
        <ele>1262</ele>
        <time>2022-05-24 18:19:39</time>
      </trkpt>
      <trkpt lat="40.80971" lon="0.3486">
        <ele>1262.4</ele>
        <time>2022-05-24 18:19:40</time>
      </trkpt>
      <trkpt lat="40.80973" lon="0.3486">
        <ele>1262.8</ele>
        <time>2022-05-24 18:19:41</time>
      </trkpt>
      <trkpt lat="40.80975" lon="0.3486">
        <ele>1263</ele>
        <time>2022-05-24 18:19:42</time>
      </trkpt>
      <trkpt lat="40.80977" lon="0.3486">
        <ele>1263.2</ele>
        <time>2022-05-24 18:19:43</time>
      </trkpt>
      <trkpt lat="40.80978" lon="0.3486">
        <ele>1263.4</ele>
        <time>2022-05-24 18:19:44</time>
      </trkpt>
      <trkpt lat="40.8098" lon="0.3486">
        <ele>1263.8</ele>
        <time>2022-05-24 18:19:45</time>
      </trkpt>
      <trkpt lat="40.80982" lon="0.3486">
        <ele>1264</ele>
        <time>2022-05-24 18:19:46</time>
      </trkpt>
      <trkpt lat="40.80984" lon="0.3486">
        <ele>1264.2</ele>
        <time>2022-05-24 18:19:47</time>
      </trkpt>
      <trkpt lat="40.80986" lon="0.3486">
        <ele>1264.8</ele>
        <time>2022-05-24 18:19:48</time>
      </trkpt>
      <trkpt lat="40.80988" lon="0.3486">
        <ele>1265.2</ele>
        <time>2022-05-24 18:19:49</time>
      </trkpt>
      <trkpt lat="40.80989" lon="0.3486">
        <ele>1265.4</ele>
        <time>2022-05-24 18:19:50</time>
      </trkpt>
      <trkpt lat="40.80991" lon="0.3486">
        <ele>1265.8</ele>
        <time>2022-05-24 18:19:51</time>
      </trkpt>
      <trkpt lat="40.80993" lon="0.34861">
        <ele>1266</ele>
        <time>2022-05-24 18:19:52</time>
      </trkpt>
      <trkpt lat="40.80994" lon="0.34861">
        <ele>1266.4</ele>
        <time>2022-05-24 18:19:53</time>
      </trkpt>
      <trkpt lat="40.80997" lon="0.3486">
        <ele>1266.6</ele>
        <time>2022-05-24 18:19:54</time>
      </trkpt>
      <trkpt lat="40.80999" lon="0.3486">
        <ele>1266.6</ele>
        <time>2022-05-24 18:19:55</time>
      </trkpt>
      <trkpt lat="40.81001" lon="0.34859">
        <ele>1266.8</ele>
        <time>2022-05-24 18:19:56</time>
      </trkpt>
      <trkpt lat="40.81002" lon="0.34858">
        <ele>1267</ele>
        <time>2022-05-24 18:19:57</time>
      </trkpt>
      <trkpt lat="40.81004" lon="0.34857">
        <ele>1267.2</ele>
        <time>2022-05-24 18:19:58</time>
      </trkpt>
      <trkpt lat="40.81006" lon="0.34856">
        <ele>1267.6</ele>
        <time>2022-05-24 18:19:59</time>
      </trkpt>
      <trkpt lat="40.81008" lon="0.34855">
        <ele>1268</ele>
        <time>2022-05-24 18:20:00</time>
      </trkpt>
      <trkpt lat="40.8101" lon="0.34855">
        <ele>1268.2</ele>
        <time>2022-05-24 18:20:01</time>
      </trkpt>
      <trkpt lat="40.81011" lon="0.34854">
        <ele>1268.4</ele>
        <time>2022-05-24 18:20:02</time>
      </trkpt>
      <trkpt lat="40.81013" lon="0.34854">
        <ele>1268.8</ele>
        <time>2022-05-24 18:20:03</time>
      </trkpt>
      <trkpt lat="40.81014" lon="0.34853">
        <ele>1269</ele>
        <time>2022-05-24 18:20:04</time>
      </trkpt>
      <trkpt lat="40.81015" lon="0.34853">
        <ele>1269.4</ele>
        <time>2022-05-24 18:20:05</time>
      </trkpt>
      <trkpt lat="40.81017" lon="0.34853">
        <ele>1269.6</ele>
        <time>2022-05-24 18:20:06</time>
      </trkpt>
      <trkpt lat="40.81018" lon="0.34854">
        <ele>1269.8</ele>
        <time>2022-05-24 18:20:07</time>
      </trkpt>
      <trkpt lat="40.81019" lon="0.34856">
        <ele>1270.2</ele>
        <time>2022-05-24 18:20:08</time>
      </trkpt>
      <trkpt lat="40.8102" lon="0.34857">
        <ele>1270.6</ele>
        <time>2022-05-24 18:20:09</time>
      </trkpt>
      <trkpt lat="40.8102" lon="0.34859">
        <ele>1270.8</ele>
        <time>2022-05-24 18:20:10</time>
      </trkpt>
      <trkpt lat="40.81019" lon="0.34861">
        <ele>1270.8</ele>
        <time>2022-05-24 18:20:11</time>
      </trkpt>
      <trkpt lat="40.81017" lon="0.34863">
        <ele>1271</ele>
        <time>2022-05-24 18:20:12</time>
      </trkpt>
      <trkpt lat="40.81016" lon="0.34864">
        <ele>1271.2</ele>
        <time>2022-05-24 18:20:13</time>
      </trkpt>
      <trkpt lat="40.81015" lon="0.34865">
        <ele>1271.2</ele>
        <time>2022-05-24 18:20:14</time>
      </trkpt>
      <trkpt lat="40.81013" lon="0.34866">
        <ele>1271.4</ele>
        <time>2022-05-24 18:20:15</time>
      </trkpt>
      <trkpt lat="40.81011" lon="0.34867">
        <ele>1271.4</ele>
        <time>2022-05-24 18:20:16</time>
      </trkpt>
      <trkpt lat="40.81009" lon="0.34868">
        <ele>1271.6</ele>
        <time>2022-05-24 18:20:17</time>
      </trkpt>
      <trkpt lat="40.81008" lon="0.34869">
        <ele>1272</ele>
        <time>2022-05-24 18:20:18</time>
      </trkpt>
      <trkpt lat="40.81006" lon="0.3487">
        <ele>1272.4</ele>
        <time>2022-05-24 18:20:19</time>
      </trkpt>
      <trkpt lat="40.81004" lon="0.3487">
        <ele>1273</ele>
        <time>2022-05-24 18:20:20</time>
      </trkpt>
      <trkpt lat="40.81003" lon="0.34871">
        <ele>1273.2</ele>
        <time>2022-05-24 18:20:21</time>
      </trkpt>
      <trkpt lat="40.81001" lon="0.34872">
        <ele>1273.4</ele>
        <time>2022-05-24 18:20:22</time>
      </trkpt>
      <trkpt lat="40.80999" lon="0.34873">
        <ele>1273.6</ele>
        <time>2022-05-24 18:20:23</time>
      </trkpt>
      <trkpt lat="40.80998" lon="0.34873">
        <ele>1273.8</ele>
        <time>2022-05-24 18:20:24</time>
      </trkpt>
      <trkpt lat="40.80996" lon="0.34874">
        <ele>1273.8</ele>
        <time>2022-05-24 18:20:25</time>
      </trkpt>
      <trkpt lat="40.80995" lon="0.34875">
        <ele>1273.8</ele>
        <time>2022-05-24 18:20:26</time>
      </trkpt>
      <trkpt lat="40.80993" lon="0.34876">
        <ele>1273.6</ele>
        <time>2022-05-24 18:20:27</time>
      </trkpt>
      <trkpt lat="40.80991" lon="0.34877">
        <ele>1273.6</ele>
        <time>2022-05-24 18:20:28</time>
      </trkpt>
      <trkpt lat="40.8099" lon="0.34877">
        <ele>1273.6</ele>
        <time>2022-05-24 18:20:29</time>
      </trkpt>
      <trkpt lat="40.80988" lon="0.34878">
        <ele>1273.8</ele>
        <time>2022-05-24 18:20:30</time>
      </trkpt>
      <trkpt lat="40.80986" lon="0.34879">
        <ele>1274</ele>
        <time>2022-05-24 18:20:31</time>
      </trkpt>
      <trkpt lat="40.80984" lon="0.34879">
        <ele>1274</ele>
        <time>2022-05-24 18:20:32</time>
      </trkpt>
      <trkpt lat="40.80983" lon="0.3488">
        <ele>1274</ele>
        <time>2022-05-24 18:20:33</time>
      </trkpt>
      <trkpt lat="40.80981" lon="0.34881">
        <ele>1274</ele>
        <time>2022-05-24 18:20:34</time>
      </trkpt>
      <trkpt lat="40.80979" lon="0.34882">
        <ele>1274</ele>
        <time>2022-05-24 18:20:35</time>
      </trkpt>
      <trkpt lat="40.80977" lon="0.34883">
        <ele>1274.2</ele>
        <time>2022-05-24 18:20:36</time>
      </trkpt>
      <trkpt lat="40.80975" lon="0.34883">
        <ele>1274.2</ele>
        <time>2022-05-24 18:20:37</time>
      </trkpt>
      <trkpt lat="40.80973" lon="0.34884">
        <ele>1274.4</ele>
        <time>2022-05-24 18:20:38</time>
      </trkpt>
      <trkpt lat="40.80972" lon="0.34884">
        <ele>1274.6</ele>
        <time>2022-05-24 18:20:39</time>
      </trkpt>
      <trkpt lat="40.8097" lon="0.34885">
        <ele>1274.6</ele>
        <time>2022-05-24 18:20:40</time>
      </trkpt>
      <trkpt lat="40.80968" lon="0.34885">
        <ele>1274.8</ele>
        <time>2022-05-24 18:20:41</time>
      </trkpt>
      <trkpt lat="40.80967" lon="0.34885">
        <ele>1275</ele>
        <time>2022-05-24 18:20:42</time>
      </trkpt>
      <trkpt lat="40.80965" lon="0.34886">
        <ele>1275.2</ele>
        <time>2022-05-24 18:20:43</time>
      </trkpt>
      <trkpt lat="40.80965" lon="0.34886">
        <ele>1275.4</ele>
        <time>2022-05-24 18:20:44</time>
      </trkpt>
      <trkpt lat="40.80962" lon="0.34886">
        <ele>1275.8</ele>
        <time>2022-05-24 18:20:45</time>
      </trkpt>
      <trkpt lat="40.8096" lon="0.34887">
        <ele>1276.6</ele>
        <time>2022-05-24 18:20:46</time>
      </trkpt>
      <trkpt lat="40.80959" lon="0.34887">
        <ele>1277.2</ele>
        <time>2022-05-24 18:20:47</time>
      </trkpt>
      <trkpt lat="40.80958" lon="0.34888">
        <ele>1277.4</ele>
        <time>2022-05-24 18:20:48</time>
      </trkpt>
      <trkpt lat="40.80956" lon="0.34888">
        <ele>1277.4</ele>
        <time>2022-05-24 18:20:49</time>
      </trkpt>
      <trkpt lat="40.80955" lon="0.34888">
        <ele>1277.4</ele>
        <time>2022-05-24 18:20:50</time>
      </trkpt>
      <trkpt lat="40.80953" lon="0.34889">
        <ele>1277.6</ele>
        <time>2022-05-24 18:20:51</time>
      </trkpt>
      <trkpt lat="40.80952" lon="0.3489">
        <ele>1277.8</ele>
        <time>2022-05-24 18:20:52</time>
      </trkpt>
      <trkpt lat="40.8095" lon="0.34891">
        <ele>1278.2</ele>
        <time>2022-05-24 18:20:53</time>
      </trkpt>
      <trkpt lat="40.80949" lon="0.34891">
        <ele>1278.6</ele>
        <time>2022-05-24 18:20:54</time>
      </trkpt>
      <trkpt lat="40.80947" lon="0.34892">
        <ele>1278.8</ele>
        <time>2022-05-24 18:20:55</time>
      </trkpt>
      <trkpt lat="40.80946" lon="0.34892">
        <ele>1279</ele>
        <time>2022-05-24 18:20:56</time>
      </trkpt>
      <trkpt lat="40.80944" lon="0.34892">
        <ele>1279</ele>
        <time>2022-05-24 18:20:57</time>
      </trkpt>
      <trkpt lat="40.80942" lon="0.34892">
        <ele>1279</ele>
        <time>2022-05-24 18:20:58</time>
      </trkpt>
      <trkpt lat="40.8094" lon="0.34893">
        <ele>1279</ele>
        <time>2022-05-24 18:20:59</time>
      </trkpt>
      <trkpt lat="40.80938" lon="0.34893">
        <ele>1279</ele>
        <time>2022-05-24 18:21:00</time>
      </trkpt>
      <trkpt lat="40.80937" lon="0.34893">
        <ele>1278.8</ele>
        <time>2022-05-24 18:21:01</time>
      </trkpt>
      <trkpt lat="40.80935" lon="0.34894">
        <ele>1278.8</ele>
        <time>2022-05-24 18:21:02</time>
      </trkpt>
      <trkpt lat="40.80933" lon="0.34894">
        <ele>1278.6</ele>
        <time>2022-05-24 18:21:03</time>
      </trkpt>
      <trkpt lat="40.8093" lon="0.34894">
        <ele>1278.6</ele>
        <time>2022-05-24 18:21:04</time>
      </trkpt>
      <trkpt lat="40.80928" lon="0.34895">
        <ele>1278.4</ele>
        <time>2022-05-24 18:21:05</time>
      </trkpt>
      <trkpt lat="40.80925" lon="0.34895">
        <ele>1278.4</ele>
        <time>2022-05-24 18:21:06</time>
      </trkpt>
      <trkpt lat="40.80923" lon="0.34895">
        <ele>1278.4</ele>
        <time>2022-05-24 18:21:07</time>
      </trkpt>
      <trkpt lat="40.8092" lon="0.34896">
        <ele>1278.2</ele>
        <time>2022-05-24 18:21:08</time>
      </trkpt>
      <trkpt lat="40.80917" lon="0.34896">
        <ele>1278.4</ele>
        <time>2022-05-24 18:21:09</time>
      </trkpt>
      <trkpt lat="40.80914" lon="0.34897">
        <ele>1278.4</ele>
        <time>2022-05-24 18:21:10</time>
      </trkpt>
      <trkpt lat="40.80913" lon="0.34897">
        <ele>1278.4</ele>
        <time>2022-05-24 18:21:11</time>
      </trkpt>
      <trkpt lat="40.80909" lon="0.34898">
        <ele>1278.4</ele>
        <time>2022-05-24 18:21:12</time>
      </trkpt>
      <trkpt lat="40.80906" lon="0.34898">
        <ele>1278.6</ele>
        <time>2022-05-24 18:21:13</time>
      </trkpt>
      <trkpt lat="40.80904" lon="0.34898">
        <ele>1278.6</ele>
        <time>2022-05-24 18:21:14</time>
      </trkpt>
      <trkpt lat="40.80902" lon="0.34898">
        <ele>1278.6</ele>
        <time>2022-05-24 18:21:15</time>
      </trkpt>
      <trkpt lat="40.80898" lon="0.34897">
        <ele>1278.6</ele>
        <time>2022-05-24 18:21:16</time>
      </trkpt>
      <trkpt lat="40.80895" lon="0.34896">
        <ele>1278.6</ele>
        <time>2022-05-24 18:21:17</time>
      </trkpt>
      <trkpt lat="40.80892" lon="0.34896">
        <ele>1278.8</ele>
        <time>2022-05-24 18:21:18</time>
      </trkpt>
      <trkpt lat="40.8089" lon="0.34896">
        <ele>1278.8</ele>
        <time>2022-05-24 18:21:19</time>
      </trkpt>
      <trkpt lat="40.80886" lon="0.34895">
        <ele>1279</ele>
        <time>2022-05-24 18:21:20</time>
      </trkpt>
      <trkpt lat="40.80884" lon="0.34895">
        <ele>1279</ele>
        <time>2022-05-24 18:21:21</time>
      </trkpt>
      <trkpt lat="40.80881" lon="0.34895">
        <ele>1279.2</ele>
        <time>2022-05-24 18:21:22</time>
      </trkpt>
      <trkpt lat="40.80879" lon="0.34895">
        <ele>1279.4</ele>
        <time>2022-05-24 18:21:23</time>
      </trkpt>
      <trkpt lat="40.80875" lon="0.34894">
        <ele>1279.4</ele>
        <time>2022-05-24 18:21:24</time>
      </trkpt>
      <trkpt lat="40.80873" lon="0.34893">
        <ele>1279.6</ele>
        <time>2022-05-24 18:21:25</time>
      </trkpt>
      <trkpt lat="40.8087" lon="0.34892">
        <ele>1279.6</ele>
        <time>2022-05-24 18:21:26</time>
      </trkpt>
      <trkpt lat="40.80869" lon="0.34891">
        <ele>1279.8</ele>
        <time>2022-05-24 18:21:27</time>
      </trkpt>
      <trkpt lat="40.80865" lon="0.34888">
        <ele>1279.8</ele>
        <time>2022-05-24 18:21:28</time>
      </trkpt>
      <trkpt lat="40.80862" lon="0.34887">
        <ele>1280</ele>
        <time>2022-05-24 18:21:29</time>
      </trkpt>
      <trkpt lat="40.8086" lon="0.34886">
        <ele>1280.2</ele>
        <time>2022-05-24 18:21:30</time>
      </trkpt>
      <trkpt lat="40.80858" lon="0.34885">
        <ele>1280.4</ele>
        <time>2022-05-24 18:21:31</time>
      </trkpt>
      <trkpt lat="40.80855" lon="0.34883">
        <ele>1280.6</ele>
        <time>2022-05-24 18:21:32</time>
      </trkpt>
      <trkpt lat="40.80852" lon="0.34882">
        <ele>1280.8</ele>
        <time>2022-05-24 18:21:33</time>
      </trkpt>
      <trkpt lat="40.80849" lon="0.34881">
        <ele>1281</ele>
        <time>2022-05-24 18:21:34</time>
      </trkpt>
      <trkpt lat="40.80848" lon="0.3488">
        <ele>1281.2</ele>
        <time>2022-05-24 18:21:35</time>
      </trkpt>
      <trkpt lat="40.80845" lon="0.3488">
        <ele>1281.4</ele>
        <time>2022-05-24 18:21:36</time>
      </trkpt>
      <trkpt lat="40.80842" lon="0.3488">
        <ele>1281.6</ele>
        <time>2022-05-24 18:21:37</time>
      </trkpt>
      <trkpt lat="40.8084" lon="0.3488">
        <ele>1282</ele>
        <time>2022-05-24 18:21:38</time>
      </trkpt>
      <trkpt lat="40.80838" lon="0.34879">
        <ele>1282.2</ele>
        <time>2022-05-24 18:21:39</time>
      </trkpt>
      <trkpt lat="40.80834" lon="0.34877">
        <ele>1282.4</ele>
        <time>2022-05-24 18:21:40</time>
      </trkpt>
      <trkpt lat="40.80832" lon="0.34876">
        <ele>1282.8</ele>
        <time>2022-05-24 18:21:41</time>
      </trkpt>
      <trkpt lat="40.80831" lon="0.34875">
        <ele>1283</ele>
        <time>2022-05-24 18:21:42</time>
      </trkpt>
      <trkpt lat="40.80828" lon="0.34874">
        <ele>1283.2</ele>
        <time>2022-05-24 18:21:43</time>
      </trkpt>
      <trkpt lat="40.80826" lon="0.34873">
        <ele>1283.6</ele>
        <time>2022-05-24 18:21:44</time>
      </trkpt>
      <trkpt lat="40.80823" lon="0.34872">
        <ele>1284</ele>
        <time>2022-05-24 18:21:45</time>
      </trkpt>
      <trkpt lat="40.80821" lon="0.3487">
        <ele>1284.2</ele>
        <time>2022-05-24 18:21:46</time>
      </trkpt>
      <trkpt lat="40.80819" lon="0.34869">
        <ele>1284.6</ele>
        <time>2022-05-24 18:21:47</time>
      </trkpt>
      <trkpt lat="40.80816" lon="0.34867">
        <ele>1285</ele>
        <time>2022-05-24 18:21:48</time>
      </trkpt>
      <trkpt lat="40.80814" lon="0.34865">
        <ele>1285.2</ele>
        <time>2022-05-24 18:21:49</time>
      </trkpt>
      <trkpt lat="40.80811" lon="0.34864">
        <ele>1285.6</ele>
        <time>2022-05-24 18:21:50</time>
      </trkpt>
      <trkpt lat="40.8081" lon="0.34862">
        <ele>1285.8</ele>
        <time>2022-05-24 18:21:51</time>
      </trkpt>
      <trkpt lat="40.80807" lon="0.3486">
        <ele>1286.2</ele>
        <time>2022-05-24 18:21:52</time>
      </trkpt>
      <trkpt lat="40.80805" lon="0.34858">
        <ele>1286.4</ele>
        <time>2022-05-24 18:21:53</time>
      </trkpt>
      <trkpt lat="40.80804" lon="0.34857">
        <ele>1286.6</ele>
        <time>2022-05-24 18:21:54</time>
      </trkpt>
      <trkpt lat="40.80803" lon="0.34856">
        <ele>1286.8</ele>
        <time>2022-05-24 18:21:55</time>
      </trkpt>
      <trkpt lat="40.80799" lon="0.34855">
        <ele>1287</ele>
        <time>2022-05-24 18:21:56</time>
      </trkpt>
      <trkpt lat="40.80798" lon="0.34854">
        <ele>1287.4</ele>
        <time>2022-05-24 18:21:57</time>
      </trkpt>
      <trkpt lat="40.80797" lon="0.34853">
        <ele>1287.6</ele>
        <time>2022-05-24 18:21:58</time>
      </trkpt>
      <trkpt lat="40.80795" lon="0.34852">
        <ele>1287.8</ele>
        <time>2022-05-24 18:21:59</time>
      </trkpt>
      <trkpt lat="40.80794" lon="0.34851">
        <ele>1288</ele>
        <time>2022-05-24 18:22:00</time>
      </trkpt>
      <trkpt lat="40.80791" lon="0.3485">
        <ele>1288.2</ele>
        <time>2022-05-24 18:22:01</time>
      </trkpt>
      <trkpt lat="40.8079" lon="0.34848">
        <ele>1288.4</ele>
        <time>2022-05-24 18:22:02</time>
      </trkpt>
      <trkpt lat="40.80789" lon="0.34847">
        <ele>1288.6</ele>
        <time>2022-05-24 18:22:03</time>
      </trkpt>
      <trkpt lat="40.80788" lon="0.34846">
        <ele>1288.8</ele>
        <time>2022-05-24 18:22:04</time>
      </trkpt>
      <trkpt lat="40.80787" lon="0.34845">
        <ele>1288.8</ele>
        <time>2022-05-24 18:22:05</time>
      </trkpt>
      <trkpt lat="40.80785" lon="0.34844">
        <ele>1289</ele>
        <time>2022-05-24 18:22:06</time>
      </trkpt>
      <trkpt lat="40.80784" lon="0.34842">
        <ele>1289.2</ele>
        <time>2022-05-24 18:22:07</time>
      </trkpt>
      <trkpt lat="40.80782" lon="0.34841">
        <ele>1289.6</ele>
        <time>2022-05-24 18:22:08</time>
      </trkpt>
      <trkpt lat="40.80782" lon="0.34838">
        <ele>1289.8</ele>
        <time>2022-05-24 18:22:09</time>
      </trkpt>
      <trkpt lat="40.80781" lon="0.34836">
        <ele>1290</ele>
        <time>2022-05-24 18:22:10</time>
      </trkpt>
      <trkpt lat="40.8078" lon="0.34835">
        <ele>1290</ele>
        <time>2022-05-24 18:22:11</time>
      </trkpt>
      <trkpt lat="40.80779" lon="0.34833">
        <ele>1290.2</ele>
        <time>2022-05-24 18:22:12</time>
      </trkpt>
      <trkpt lat="40.80777" lon="0.34832">
        <ele>1290.4</ele>
        <time>2022-05-24 18:22:13</time>
      </trkpt>
      <trkpt lat="40.80775" lon="0.34831">
        <ele>1290.6</ele>
        <time>2022-05-24 18:22:14</time>
      </trkpt>
      <trkpt lat="40.80774" lon="0.34829">
        <ele>1290.8</ele>
        <time>2022-05-24 18:22:15</time>
      </trkpt>
      <trkpt lat="40.80772" lon="0.34828">
        <ele>1291</ele>
        <time>2022-05-24 18:22:16</time>
      </trkpt>
      <trkpt lat="40.80771" lon="0.34827">
        <ele>1291.4</ele>
        <time>2022-05-24 18:22:17</time>
      </trkpt>
      <trkpt lat="40.80769" lon="0.34825">
        <ele>1291.6</ele>
        <time>2022-05-24 18:22:18</time>
      </trkpt>
      <trkpt lat="40.80767" lon="0.34824">
        <ele>1292</ele>
        <time>2022-05-24 18:22:19</time>
      </trkpt>
      <trkpt lat="40.80766" lon="0.34822">
        <ele>1292.2</ele>
        <time>2022-05-24 18:22:20</time>
      </trkpt>
      <trkpt lat="40.80765" lon="0.3482">
        <ele>1292.6</ele>
        <time>2022-05-24 18:22:21</time>
      </trkpt>
      <trkpt lat="40.80764" lon="0.34818">
        <ele>1293</ele>
        <time>2022-05-24 18:22:22</time>
      </trkpt>
      <trkpt lat="40.80763" lon="0.34816">
        <ele>1293.4</ele>
        <time>2022-05-24 18:22:23</time>
      </trkpt>
      <trkpt lat="40.80761" lon="0.34814">
        <ele>1293.6</ele>
        <time>2022-05-24 18:22:24</time>
      </trkpt>
      <trkpt lat="40.8076" lon="0.34813">
        <ele>1293.8</ele>
        <time>2022-05-24 18:22:25</time>
      </trkpt>
      <trkpt lat="40.80759" lon="0.34812">
        <ele>1294.2</ele>
        <time>2022-05-24 18:22:26</time>
      </trkpt>
      <trkpt lat="40.80758" lon="0.3481">
        <ele>1294.4</ele>
        <time>2022-05-24 18:22:27</time>
      </trkpt>
      <trkpt lat="40.80757" lon="0.34808">
        <ele>1294.8</ele>
        <time>2022-05-24 18:22:28</time>
      </trkpt>
      <trkpt lat="40.80756" lon="0.34807">
        <ele>1295.2</ele>
        <time>2022-05-24 18:22:29</time>
      </trkpt>
      <trkpt lat="40.80755" lon="0.34805">
        <ele>1295.2</ele>
        <time>2022-05-24 18:22:30</time>
      </trkpt>
      <trkpt lat="40.80754" lon="0.34803">
        <ele>1295.2</ele>
        <time>2022-05-24 18:22:31</time>
      </trkpt>
      <trkpt lat="40.80753" lon="0.34801">
        <ele>1295.4</ele>
        <time>2022-05-24 18:22:32</time>
      </trkpt>
      <trkpt lat="40.80752" lon="0.34799">
        <ele>1295.8</ele>
        <time>2022-05-24 18:22:33</time>
      </trkpt>
      <trkpt lat="40.80751" lon="0.34797">
        <ele>1296</ele>
        <time>2022-05-24 18:22:34</time>
      </trkpt>
      <trkpt lat="40.80751" lon="0.34795">
        <ele>1296.2</ele>
        <time>2022-05-24 18:22:35</time>
      </trkpt>
      <trkpt lat="40.8075" lon="0.34793">
        <ele>1296.4</ele>
        <time>2022-05-24 18:22:36</time>
      </trkpt>
      <trkpt lat="40.80749" lon="0.3479">
        <ele>1296.6</ele>
        <time>2022-05-24 18:22:37</time>
      </trkpt>
      <trkpt lat="40.80748" lon="0.34788">
        <ele>1296.8</ele>
        <time>2022-05-24 18:22:38</time>
      </trkpt>
      <trkpt lat="40.80748" lon="0.34786">
        <ele>1297</ele>
        <time>2022-05-24 18:22:39</time>
      </trkpt>
      <trkpt lat="40.80747" lon="0.34783">
        <ele>1297.2</ele>
        <time>2022-05-24 18:22:40</time>
      </trkpt>
      <trkpt lat="40.80747" lon="0.3478">
        <ele>1297.4</ele>
        <time>2022-05-24 18:22:41</time>
      </trkpt>
      <trkpt lat="40.80747" lon="0.34777">
        <ele>1297.8</ele>
        <time>2022-05-24 18:22:42</time>
      </trkpt>
      <trkpt lat="40.80746" lon="0.34774">
        <ele>1297.8</ele>
        <time>2022-05-24 18:22:43</time>
      </trkpt>
      <trkpt lat="40.80746" lon="0.34771">
        <ele>1298</ele>
        <time>2022-05-24 18:22:44</time>
      </trkpt>
      <trkpt lat="40.80746" lon="0.34769">
        <ele>1298.2</ele>
        <time>2022-05-24 18:22:45</time>
      </trkpt>
      <trkpt lat="40.80745" lon="0.34765">
        <ele>1298.4</ele>
        <time>2022-05-24 18:22:46</time>
      </trkpt>
      <trkpt lat="40.80744" lon="0.34762">
        <ele>1298.6</ele>
        <time>2022-05-24 18:22:47</time>
      </trkpt>
      <trkpt lat="40.80743" lon="0.34759">
        <ele>1298.8</ele>
        <time>2022-05-24 18:22:48</time>
      </trkpt>
      <trkpt lat="40.80743" lon="0.34757">
        <ele>1299.2</ele>
        <time>2022-05-24 18:22:49</time>
      </trkpt>
      <trkpt lat="40.80742" lon="0.34753">
        <ele>1299.6</ele>
        <time>2022-05-24 18:22:50</time>
      </trkpt>
      <trkpt lat="40.80741" lon="0.34751">
        <ele>1300</ele>
        <time>2022-05-24 18:22:51</time>
      </trkpt>
      <trkpt lat="40.8074" lon="0.34748">
        <ele>1300</ele>
        <time>2022-05-24 18:22:52</time>
      </trkpt>
      <trkpt lat="40.80738" lon="0.34746">
        <ele>1300.2</ele>
        <time>2022-05-24 18:22:53</time>
      </trkpt>
      <trkpt lat="40.80737" lon="0.34743">
        <ele>1300.4</ele>
        <time>2022-05-24 18:22:54</time>
      </trkpt>
      <trkpt lat="40.80735" lon="0.3474">
        <ele>1300.4</ele>
        <time>2022-05-24 18:22:55</time>
      </trkpt>
      <trkpt lat="40.80734" lon="0.34738">
        <ele>1300.6</ele>
        <time>2022-05-24 18:22:56</time>
      </trkpt>
      <trkpt lat="40.80733" lon="0.34736">
        <ele>1300.6</ele>
        <time>2022-05-24 18:22:57</time>
      </trkpt>
      <trkpt lat="40.80731" lon="0.34733">
        <ele>1300.6</ele>
        <time>2022-05-24 18:22:58</time>
      </trkpt>
      <trkpt lat="40.80729" lon="0.34731">
        <ele>1300.8</ele>
        <time>2022-05-24 18:22:59</time>
      </trkpt>
      <trkpt lat="40.80728" lon="0.34729">
        <ele>1301</ele>
        <time>2022-05-24 18:23:00</time>
      </trkpt>
      <trkpt lat="40.80727" lon="0.34727">
        <ele>1301</ele>
        <time>2022-05-24 18:23:01</time>
      </trkpt>
      <trkpt lat="40.80724" lon="0.34725">
        <ele>1301</ele>
        <time>2022-05-24 18:23:02</time>
      </trkpt>
      <trkpt lat="40.80722" lon="0.34723">
        <ele>1301.2</ele>
        <time>2022-05-24 18:23:03</time>
      </trkpt>
      <trkpt lat="40.80721" lon="0.34722">
        <ele>1301.4</ele>
        <time>2022-05-24 18:23:04</time>
      </trkpt>
      <trkpt lat="40.80719" lon="0.3472">
        <ele>1301.6</ele>
        <time>2022-05-24 18:23:05</time>
      </trkpt>
      <trkpt lat="40.80717" lon="0.34718">
        <ele>1302</ele>
        <time>2022-05-24 18:23:06</time>
      </trkpt>
      <trkpt lat="40.80715" lon="0.34716">
        <ele>1302.2</ele>
        <time>2022-05-24 18:23:07</time>
      </trkpt>
      <trkpt lat="40.80714" lon="0.34714">
        <ele>1302.6</ele>
        <time>2022-05-24 18:23:08</time>
      </trkpt>
      <trkpt lat="40.80713" lon="0.34713">
        <ele>1302.8</ele>
        <time>2022-05-24 18:23:09</time>
      </trkpt>
      <trkpt lat="40.80711" lon="0.34711">
        <ele>1303</ele>
        <time>2022-05-24 18:23:10</time>
      </trkpt>
      <trkpt lat="40.80709" lon="0.34709">
        <ele>1303.2</ele>
        <time>2022-05-24 18:23:11</time>
      </trkpt>
      <trkpt lat="40.80707" lon="0.34708">
        <ele>1303.4</ele>
        <time>2022-05-24 18:23:12</time>
      </trkpt>
      <trkpt lat="40.80706" lon="0.34706">
        <ele>1303.6</ele>
        <time>2022-05-24 18:23:13</time>
      </trkpt>
      <trkpt lat="40.80704" lon="0.34705">
        <ele>1303.8</ele>
        <time>2022-05-24 18:23:14</time>
      </trkpt>
      <trkpt lat="40.80703" lon="0.34703">
        <ele>1303.8</ele>
        <time>2022-05-24 18:23:15</time>
      </trkpt>
      <trkpt lat="40.80701" lon="0.34701">
        <ele>1303.8</ele>
        <time>2022-05-24 18:23:16</time>
      </trkpt>
      <trkpt lat="40.80699" lon="0.347">
        <ele>1304</ele>
        <time>2022-05-24 18:23:17</time>
      </trkpt>
      <trkpt lat="40.80698" lon="0.34699">
        <ele>1304.2</ele>
        <time>2022-05-24 18:23:18</time>
      </trkpt>
      <trkpt lat="40.80696" lon="0.34698">
        <ele>1304.4</ele>
        <time>2022-05-24 18:23:19</time>
      </trkpt>
      <trkpt lat="40.80695" lon="0.34697">
        <ele>1304.6</ele>
        <time>2022-05-24 18:23:20</time>
      </trkpt>
      <trkpt lat="40.80692" lon="0.34696">
        <ele>1304.8</ele>
        <time>2022-05-24 18:23:21</time>
      </trkpt>
      <trkpt lat="40.80691" lon="0.34695">
        <ele>1305</ele>
        <time>2022-05-24 18:23:22</time>
      </trkpt>
      <trkpt lat="40.80689" lon="0.34693">
        <ele>1305.2</ele>
        <time>2022-05-24 18:23:23</time>
      </trkpt>
      <trkpt lat="40.80688" lon="0.34692">
        <ele>1305.4</ele>
        <time>2022-05-24 18:23:24</time>
      </trkpt>
      <trkpt lat="40.80687" lon="0.34692">
        <ele>1305.6</ele>
        <time>2022-05-24 18:23:25</time>
      </trkpt>
      <trkpt lat="40.80684" lon="0.34691">
        <ele>1305.8</ele>
        <time>2022-05-24 18:23:26</time>
      </trkpt>
      <trkpt lat="40.80682" lon="0.3469">
        <ele>1306.2</ele>
        <time>2022-05-24 18:23:27</time>
      </trkpt>
      <trkpt lat="40.80681" lon="0.34689">
        <ele>1306.4</ele>
        <time>2022-05-24 18:23:28</time>
      </trkpt>
      <trkpt lat="40.80679" lon="0.34688">
        <ele>1306.6</ele>
        <time>2022-05-24 18:23:29</time>
      </trkpt>
      <trkpt lat="40.80677" lon="0.34687">
        <ele>1307</ele>
        <time>2022-05-24 18:23:30</time>
      </trkpt>
      <trkpt lat="40.80675" lon="0.34686">
        <ele>1307.2</ele>
        <time>2022-05-24 18:23:31</time>
      </trkpt>
      <trkpt lat="40.80674" lon="0.34686">
        <ele>1307.6</ele>
        <time>2022-05-24 18:23:32</time>
      </trkpt>
      <trkpt lat="40.80672" lon="0.34685">
        <ele>1307.8</ele>
        <time>2022-05-24 18:23:33</time>
      </trkpt>
      <trkpt lat="40.8067" lon="0.34684">
        <ele>1308.2</ele>
        <time>2022-05-24 18:23:34</time>
      </trkpt>
      <trkpt lat="40.80669" lon="0.34684">
        <ele>1308.4</ele>
        <time>2022-05-24 18:23:35</time>
      </trkpt>
      <trkpt lat="40.80666" lon="0.34683">
        <ele>1308.6</ele>
        <time>2022-05-24 18:23:36</time>
      </trkpt>
      <trkpt lat="40.80663" lon="0.34682">
        <ele>1308.8</ele>
        <time>2022-05-24 18:23:37</time>
      </trkpt>
      <trkpt lat="40.80661" lon="0.34681">
        <ele>1309</ele>
        <time>2022-05-24 18:23:38</time>
      </trkpt>
      <trkpt lat="40.8066" lon="0.34681">
        <ele>1309.2</ele>
        <time>2022-05-24 18:23:39</time>
      </trkpt>
      <trkpt lat="40.80657" lon="0.3468">
        <ele>1309.2</ele>
        <time>2022-05-24 18:23:40</time>
      </trkpt>
      <trkpt lat="40.80656" lon="0.34679">
        <ele>1309.6</ele>
        <time>2022-05-24 18:23:41</time>
      </trkpt>
      <trkpt lat="40.80654" lon="0.34678">
        <ele>1309.8</ele>
        <time>2022-05-24 18:23:42</time>
      </trkpt>
      <trkpt lat="40.80652" lon="0.34677">
        <ele>1310</ele>
        <time>2022-05-24 18:23:43</time>
      </trkpt>
      <trkpt lat="40.80651" lon="0.34676">
        <ele>1310.4</ele>
        <time>2022-05-24 18:23:44</time>
      </trkpt>
      <trkpt lat="40.80648" lon="0.34676">
        <ele>1310.6</ele>
        <time>2022-05-24 18:23:45</time>
      </trkpt>
      <trkpt lat="40.80647" lon="0.34675">
        <ele>1310.8</ele>
        <time>2022-05-24 18:23:46</time>
      </trkpt>
      <trkpt lat="40.80645" lon="0.34674">
        <ele>1310.8</ele>
        <time>2022-05-24 18:23:47</time>
      </trkpt>
      <trkpt lat="40.80643" lon="0.34673">
        <ele>1311</ele>
        <time>2022-05-24 18:23:48</time>
      </trkpt>
      <trkpt lat="40.80642" lon="0.34672">
        <ele>1311.2</ele>
        <time>2022-05-24 18:23:49</time>
      </trkpt>
      <trkpt lat="40.80639" lon="0.34671">
        <ele>1311.6</ele>
        <time>2022-05-24 18:23:50</time>
      </trkpt>
      <trkpt lat="40.80637" lon="0.34671">
        <ele>1311.8</ele>
        <time>2022-05-24 18:23:51</time>
      </trkpt>
      <trkpt lat="40.80636" lon="0.34671">
        <ele>1312</ele>
        <time>2022-05-24 18:23:52</time>
      </trkpt>
      <trkpt lat="40.80634" lon="0.3467">
        <ele>1312.2</ele>
        <time>2022-05-24 18:23:53</time>
      </trkpt>
      <trkpt lat="40.80633" lon="0.3467">
        <ele>1312.4</ele>
        <time>2022-05-24 18:23:54</time>
      </trkpt>
      <trkpt lat="40.8063" lon="0.34669">
        <ele>1312.6</ele>
        <time>2022-05-24 18:23:55</time>
      </trkpt>
      <trkpt lat="40.80629" lon="0.34668">
        <ele>1312.6</ele>
        <time>2022-05-24 18:23:56</time>
      </trkpt>
      <trkpt lat="40.80627" lon="0.34667">
        <ele>1312.8</ele>
        <time>2022-05-24 18:23:57</time>
      </trkpt>
      <trkpt lat="40.80625" lon="0.34667">
        <ele>1313</ele>
        <time>2022-05-24 18:23:58</time>
      </trkpt>
      <trkpt lat="40.80624" lon="0.34668">
        <ele>1313</ele>
        <time>2022-05-24 18:23:59</time>
      </trkpt>
      <trkpt lat="40.80622" lon="0.34668">
        <ele>1313.2</ele>
        <time>2022-05-24 18:24:00</time>
      </trkpt>
      <trkpt lat="40.8062" lon="0.34667">
        <ele>1313.4</ele>
        <time>2022-05-24 18:24:01</time>
      </trkpt>
      <trkpt lat="40.80618" lon="0.34666">
        <ele>1313.6</ele>
        <time>2022-05-24 18:24:02</time>
      </trkpt>
      <trkpt lat="40.80617" lon="0.34666">
        <ele>1313.8</ele>
        <time>2022-05-24 18:24:03</time>
      </trkpt>
      <trkpt lat="40.80615" lon="0.34664">
        <ele>1314.2</ele>
        <time>2022-05-24 18:24:04</time>
      </trkpt>
      <trkpt lat="40.80614" lon="0.34663">
        <ele>1314.4</ele>
        <time>2022-05-24 18:24:05</time>
      </trkpt>
      <trkpt lat="40.80612" lon="0.34661">
        <ele>1314.8</ele>
        <time>2022-05-24 18:24:06</time>
      </trkpt>
      <trkpt lat="40.80611" lon="0.34659">
        <ele>1315</ele>
        <time>2022-05-24 18:24:07</time>
      </trkpt>
      <trkpt lat="40.80611" lon="0.34657">
        <ele>1315.4</ele>
        <time>2022-05-24 18:24:08</time>
      </trkpt>
      <trkpt lat="40.80611" lon="0.34655">
        <ele>1315.6</ele>
        <time>2022-05-24 18:24:09</time>
      </trkpt>
      <trkpt lat="40.80612" lon="0.34652">
        <ele>1316</ele>
        <time>2022-05-24 18:24:10</time>
      </trkpt>
      <trkpt lat="40.80613" lon="0.34651">
        <ele>1316.2</ele>
        <time>2022-05-24 18:24:11</time>
      </trkpt>
      <trkpt lat="40.80614" lon="0.34649">
        <ele>1316.6</ele>
        <time>2022-05-24 18:24:12</time>
      </trkpt>
      <trkpt lat="40.80616" lon="0.34648">
        <ele>1317</ele>
        <time>2022-05-24 18:24:13</time>
      </trkpt>
      <trkpt lat="40.80617" lon="0.34647">
        <ele>1317.2</ele>
        <time>2022-05-24 18:24:14</time>
      </trkpt>
      <trkpt lat="40.80619" lon="0.34646">
        <ele>1317.2</ele>
        <time>2022-05-24 18:24:15</time>
      </trkpt>
      <trkpt lat="40.8062" lon="0.34645">
        <ele>1317.4</ele>
        <time>2022-05-24 18:24:16</time>
      </trkpt>
      <trkpt lat="40.80621" lon="0.34644">
        <ele>1317.8</ele>
        <time>2022-05-24 18:24:17</time>
      </trkpt>
      <trkpt lat="40.80624" lon="0.34642">
        <ele>1318</ele>
        <time>2022-05-24 18:24:18</time>
      </trkpt>
      <trkpt lat="40.80626" lon="0.34642">
        <ele>1318.4</ele>
        <time>2022-05-24 18:24:19</time>
      </trkpt>
      <trkpt lat="40.80628" lon="0.34641">
        <ele>1318.6</ele>
        <time>2022-05-24 18:24:20</time>
      </trkpt>
      <trkpt lat="40.8063" lon="0.34642">
        <ele>1318.8</ele>
        <time>2022-05-24 18:24:21</time>
      </trkpt>
      <trkpt lat="40.80632" lon="0.34642">
        <ele>1319.2</ele>
        <time>2022-05-24 18:24:22</time>
      </trkpt>
      <trkpt lat="40.80634" lon="0.34642">
        <ele>1319.4</ele>
        <time>2022-05-24 18:24:23</time>
      </trkpt>
      <trkpt lat="40.80636" lon="0.34642">
        <ele>1319.2</ele>
        <time>2022-05-24 18:24:24</time>
      </trkpt>
      <trkpt lat="40.80637" lon="0.34641">
        <ele>1319.6</ele>
        <time>2022-05-24 18:24:25</time>
      </trkpt>
      <trkpt lat="40.80639" lon="0.34641">
        <ele>1319.6</ele>
        <time>2022-05-24 18:24:26</time>
      </trkpt>
      <trkpt lat="40.80641" lon="0.34641">
        <ele>1319.8</ele>
        <time>2022-05-24 18:24:27</time>
      </trkpt>
      <trkpt lat="40.80643" lon="0.34641">
        <ele>1320.2</ele>
        <time>2022-05-24 18:24:28</time>
      </trkpt>
      <trkpt lat="40.80645" lon="0.34642">
        <ele>1320.4</ele>
        <time>2022-05-24 18:24:29</time>
      </trkpt>
      <trkpt lat="40.80647" lon="0.34642">
        <ele>1320.8</ele>
        <time>2022-05-24 18:24:30</time>
      </trkpt>
      <trkpt lat="40.80649" lon="0.34641">
        <ele>1321</ele>
        <time>2022-05-24 18:24:31</time>
      </trkpt>
      <trkpt lat="40.80651" lon="0.34642">
        <ele>1321.2</ele>
        <time>2022-05-24 18:24:32</time>
      </trkpt>
      <trkpt lat="40.80653" lon="0.34642">
        <ele>1321.4</ele>
        <time>2022-05-24 18:24:33</time>
      </trkpt>
      <trkpt lat="40.80655" lon="0.34642">
        <ele>1321.6</ele>
        <time>2022-05-24 18:24:34</time>
      </trkpt>
      <trkpt lat="40.80657" lon="0.34641">
        <ele>1321.8</ele>
        <time>2022-05-24 18:24:35</time>
      </trkpt>
      <trkpt lat="40.80659" lon="0.34642">
        <ele>1322</ele>
        <time>2022-05-24 18:24:36</time>
      </trkpt>
      <trkpt lat="40.80661" lon="0.34642">
        <ele>1322.4</ele>
        <time>2022-05-24 18:24:37</time>
      </trkpt>
      <trkpt lat="40.80663" lon="0.34642">
        <ele>1322.8</ele>
        <time>2022-05-24 18:24:38</time>
      </trkpt>
      <trkpt lat="40.80665" lon="0.34642">
        <ele>1323</ele>
        <time>2022-05-24 18:24:39</time>
      </trkpt>
      <trkpt lat="40.80667" lon="0.34642">
        <ele>1323.2</ele>
        <time>2022-05-24 18:24:40</time>
      </trkpt>
      <trkpt lat="40.80669" lon="0.34642">
        <ele>1323.2</ele>
        <time>2022-05-24 18:24:41</time>
      </trkpt>
      <trkpt lat="40.80671" lon="0.34642">
        <ele>1323.2</ele>
        <time>2022-05-24 18:24:42</time>
      </trkpt>
      <trkpt lat="40.80673" lon="0.34643">
        <ele>1323.4</ele>
        <time>2022-05-24 18:24:43</time>
      </trkpt>
      <trkpt lat="40.80676" lon="0.34643">
        <ele>1323.6</ele>
        <time>2022-05-24 18:24:44</time>
      </trkpt>
      <trkpt lat="40.80678" lon="0.34643">
        <ele>1323.8</ele>
        <time>2022-05-24 18:24:45</time>
      </trkpt>
      <trkpt lat="40.8068" lon="0.34643">
        <ele>1323.8</ele>
        <time>2022-05-24 18:24:46</time>
      </trkpt>
      <trkpt lat="40.80682" lon="0.34643">
        <ele>1324</ele>
        <time>2022-05-24 18:24:47</time>
      </trkpt>
      <trkpt lat="40.80685" lon="0.34643">
        <ele>1324.2</ele>
        <time>2022-05-24 18:24:48</time>
      </trkpt>
      <trkpt lat="40.80687" lon="0.34642">
        <ele>1324.4</ele>
        <time>2022-05-24 18:24:49</time>
      </trkpt>
      <trkpt lat="40.80689" lon="0.34642">
        <ele>1324.6</ele>
        <time>2022-05-24 18:24:50</time>
      </trkpt>
      <trkpt lat="40.80691" lon="0.34641">
        <ele>1324.8</ele>
        <time>2022-05-24 18:24:51</time>
      </trkpt>
      <trkpt lat="40.80693" lon="0.3464">
        <ele>1324.8</ele>
        <time>2022-05-24 18:24:52</time>
      </trkpt>
      <trkpt lat="40.80695" lon="0.34639">
        <ele>1324.8</ele>
        <time>2022-05-24 18:24:53</time>
      </trkpt>
      <trkpt lat="40.80696" lon="0.34637">
        <ele>1324.8</ele>
        <time>2022-05-24 18:24:54</time>
      </trkpt>
      <trkpt lat="40.80698" lon="0.34635">
        <ele>1324.8</ele>
        <time>2022-05-24 18:24:55</time>
      </trkpt>
      <trkpt lat="40.807" lon="0.34633">
        <ele>1325</ele>
        <time>2022-05-24 18:24:56</time>
      </trkpt>
      <trkpt lat="40.80701" lon="0.3463">
        <ele>1325.2</ele>
        <time>2022-05-24 18:24:57</time>
      </trkpt>
      <trkpt lat="40.80702" lon="0.34627">
        <ele>1325.4</ele>
        <time>2022-05-24 18:24:58</time>
      </trkpt>
      <trkpt lat="40.80703" lon="0.34625">
        <ele>1325.8</ele>
        <time>2022-05-24 18:24:59</time>
      </trkpt>
      <trkpt lat="40.80704" lon="0.34622">
        <ele>1326</ele>
        <time>2022-05-24 18:25:00</time>
      </trkpt>
      <trkpt lat="40.80705" lon="0.34619">
        <ele>1326.2</ele>
        <time>2022-05-24 18:25:01</time>
      </trkpt>
      <trkpt lat="40.80706" lon="0.34616">
        <ele>1326.2</ele>
        <time>2022-05-24 18:25:02</time>
      </trkpt>
      <trkpt lat="40.80707" lon="0.34614">
        <ele>1326.4</ele>
        <time>2022-05-24 18:25:03</time>
      </trkpt>
      <trkpt lat="40.80708" lon="0.34611">
        <ele>1326.4</ele>
        <time>2022-05-24 18:25:04</time>
      </trkpt>
      <trkpt lat="40.80709" lon="0.34609">
        <ele>1326.6</ele>
        <time>2022-05-24 18:25:05</time>
      </trkpt>
      <trkpt lat="40.8071" lon="0.34606">
        <ele>1326.6</ele>
        <time>2022-05-24 18:25:06</time>
      </trkpt>
      <trkpt lat="40.80712" lon="0.34604">
        <ele>1326.8</ele>
        <time>2022-05-24 18:25:07</time>
      </trkpt>
      <trkpt lat="40.80713" lon="0.34601">
        <ele>1327</ele>
        <time>2022-05-24 18:25:08</time>
      </trkpt>
      <trkpt lat="40.80714" lon="0.34599">
        <ele>1327</ele>
        <time>2022-05-24 18:25:09</time>
      </trkpt>
      <trkpt lat="40.80716" lon="0.34597">
        <ele>1327.2</ele>
        <time>2022-05-24 18:25:10</time>
      </trkpt>
      <trkpt lat="40.80717" lon="0.34595">
        <ele>1327.4</ele>
        <time>2022-05-24 18:25:11</time>
      </trkpt>
      <trkpt lat="40.80719" lon="0.34593">
        <ele>1327.8</ele>
        <time>2022-05-24 18:25:12</time>
      </trkpt>
      <trkpt lat="40.80721" lon="0.34591">
        <ele>1328</ele>
        <time>2022-05-24 18:25:13</time>
      </trkpt>
      <trkpt lat="40.80722" lon="0.34589">
        <ele>1328.4</ele>
        <time>2022-05-24 18:25:14</time>
      </trkpt>
      <trkpt lat="40.80724" lon="0.34587">
        <ele>1328.6</ele>
        <time>2022-05-24 18:25:15</time>
      </trkpt>
      <trkpt lat="40.80725" lon="0.34585">
        <ele>1328.8</ele>
        <time>2022-05-24 18:25:16</time>
      </trkpt>
      <trkpt lat="40.80727" lon="0.34583">
        <ele>1329</ele>
        <time>2022-05-24 18:25:17</time>
      </trkpt>
      <trkpt lat="40.80729" lon="0.34581">
        <ele>1329.2</ele>
        <time>2022-05-24 18:25:18</time>
      </trkpt>
      <trkpt lat="40.8073" lon="0.3458">
        <ele>1329.4</ele>
        <time>2022-05-24 18:25:19</time>
      </trkpt>
      <trkpt lat="40.80732" lon="0.34579">
        <ele>1329.8</ele>
        <time>2022-05-24 18:25:20</time>
      </trkpt>
      <trkpt lat="40.80734" lon="0.34578">
        <ele>1330</ele>
        <time>2022-05-24 18:25:21</time>
      </trkpt>
      <trkpt lat="40.80736" lon="0.34577">
        <ele>1330.4</ele>
        <time>2022-05-24 18:25:22</time>
      </trkpt>
      <trkpt lat="40.80738" lon="0.34576">
        <ele>1330.6</ele>
        <time>2022-05-24 18:25:23</time>
      </trkpt>
      <trkpt lat="40.8074" lon="0.34575">
        <ele>1330.8</ele>
        <time>2022-05-24 18:25:24</time>
      </trkpt>
      <trkpt lat="40.80742" lon="0.34573">
        <ele>1331</ele>
        <time>2022-05-24 18:25:25</time>
      </trkpt>
      <trkpt lat="40.80743" lon="0.34572">
        <ele>1331.2</ele>
        <time>2022-05-24 18:25:26</time>
      </trkpt>
      <trkpt lat="40.80745" lon="0.3457">
        <ele>1331.4</ele>
        <time>2022-05-24 18:25:27</time>
      </trkpt>
      <trkpt lat="40.80746" lon="0.34569">
        <ele>1331.6</ele>
        <time>2022-05-24 18:25:28</time>
      </trkpt>
      <trkpt lat="40.80748" lon="0.34568">
        <ele>1332</ele>
        <time>2022-05-24 18:25:29</time>
      </trkpt>
      <trkpt lat="40.8075" lon="0.34566">
        <ele>1332</ele>
        <time>2022-05-24 18:25:30</time>
      </trkpt>
      <trkpt lat="40.80752" lon="0.34565">
        <ele>1332.2</ele>
        <time>2022-05-24 18:25:31</time>
      </trkpt>
      <trkpt lat="40.80753" lon="0.34563">
        <ele>1332.4</ele>
        <time>2022-05-24 18:25:32</time>
      </trkpt>
      <trkpt lat="40.80754" lon="0.3456">
        <ele>1332.8</ele>
        <time>2022-05-24 18:25:33</time>
      </trkpt>
      <trkpt lat="40.80756" lon="0.34558">
        <ele>1333</ele>
        <time>2022-05-24 18:25:34</time>
      </trkpt>
      <trkpt lat="40.80757" lon="0.34555">
        <ele>1333.4</ele>
        <time>2022-05-24 18:25:35</time>
      </trkpt>
      <trkpt lat="40.80758" lon="0.34553">
        <ele>1333.6</ele>
        <time>2022-05-24 18:25:36</time>
      </trkpt>
      <trkpt lat="40.80758" lon="0.3455">
        <ele>1333.8</ele>
        <time>2022-05-24 18:25:37</time>
      </trkpt>
      <trkpt lat="40.80757" lon="0.34548">
        <ele>1334</ele>
        <time>2022-05-24 18:25:38</time>
      </trkpt>
      <trkpt lat="40.80756" lon="0.34545">
        <ele>1334.2</ele>
        <time>2022-05-24 18:25:39</time>
      </trkpt>
      <trkpt lat="40.80755" lon="0.34543">
        <ele>1334.4</ele>
        <time>2022-05-24 18:25:40</time>
      </trkpt>
      <trkpt lat="40.80754" lon="0.34541">
        <ele>1334.6</ele>
        <time>2022-05-24 18:25:41</time>
      </trkpt>
      <trkpt lat="40.80752" lon="0.34539">
        <ele>1334.8</ele>
        <time>2022-05-24 18:25:42</time>
      </trkpt>
      <trkpt lat="40.8075" lon="0.34538">
        <ele>1335.2</ele>
        <time>2022-05-24 18:25:43</time>
      </trkpt>
      <trkpt lat="40.80748" lon="0.34537">
        <ele>1335.4</ele>
        <time>2022-05-24 18:25:44</time>
      </trkpt>
      <trkpt lat="40.80746" lon="0.34536">
        <ele>1335.6</ele>
        <time>2022-05-24 18:25:45</time>
      </trkpt>
      <trkpt lat="40.80744" lon="0.34536">
        <ele>1335.8</ele>
        <time>2022-05-24 18:25:46</time>
      </trkpt>
      <trkpt lat="40.80742" lon="0.34535">
        <ele>1336</ele>
        <time>2022-05-24 18:25:47</time>
      </trkpt>
      <trkpt lat="40.8074" lon="0.34534">
        <ele>1336.4</ele>
        <time>2022-05-24 18:25:48</time>
      </trkpt>
      <trkpt lat="40.80737" lon="0.34534">
        <ele>1336.6</ele>
        <time>2022-05-24 18:25:49</time>
      </trkpt>
      <trkpt lat="40.80735" lon="0.34533">
        <ele>1336.8</ele>
        <time>2022-05-24 18:25:50</time>
      </trkpt>
      <trkpt lat="40.80733" lon="0.34532">
        <ele>1337</ele>
        <time>2022-05-24 18:25:51</time>
      </trkpt>
      <trkpt lat="40.80731" lon="0.34531">
        <ele>1337.2</ele>
        <time>2022-05-24 18:25:52</time>
      </trkpt>
      <trkpt lat="40.80729" lon="0.3453">
        <ele>1337.6</ele>
        <time>2022-05-24 18:25:53</time>
      </trkpt>
      <trkpt lat="40.80727" lon="0.3453">
        <ele>1337.8</ele>
        <time>2022-05-24 18:25:54</time>
      </trkpt>
      <trkpt lat="40.80725" lon="0.34529">
        <ele>1338.2</ele>
        <time>2022-05-24 18:25:55</time>
      </trkpt>
      <trkpt lat="40.80723" lon="0.34528">
        <ele>1338.4</ele>
        <time>2022-05-24 18:25:56</time>
      </trkpt>
      <trkpt lat="40.80721" lon="0.34528">
        <ele>1338.6</ele>
        <time>2022-05-24 18:25:57</time>
      </trkpt>
      <trkpt lat="40.80718" lon="0.34528">
        <ele>1338.6</ele>
        <time>2022-05-24 18:25:58</time>
      </trkpt>
      <trkpt lat="40.80716" lon="0.34527">
        <ele>1338.8</ele>
        <time>2022-05-24 18:25:59</time>
      </trkpt>
      <trkpt lat="40.80713" lon="0.34528">
        <ele>1339</ele>
        <time>2022-05-24 18:26:00</time>
      </trkpt>
      <trkpt lat="40.80711" lon="0.34528">
        <ele>1339.2</ele>
        <time>2022-05-24 18:26:01</time>
      </trkpt>
      <trkpt lat="40.80708" lon="0.34529">
        <ele>1339.4</ele>
        <time>2022-05-24 18:26:02</time>
      </trkpt>
      <trkpt lat="40.80705" lon="0.3453">
        <ele>1339.6</ele>
        <time>2022-05-24 18:26:03</time>
      </trkpt>
      <trkpt lat="40.80703" lon="0.34532">
        <ele>1339.8</ele>
        <time>2022-05-24 18:26:04</time>
      </trkpt>
      <trkpt lat="40.80701" lon="0.34534">
        <ele>1340</ele>
        <time>2022-05-24 18:26:05</time>
      </trkpt>
      <trkpt lat="40.80698" lon="0.34537">
        <ele>1340</ele>
        <time>2022-05-24 18:26:06</time>
      </trkpt>
      <trkpt lat="40.80697" lon="0.3454">
        <ele>1340.2</ele>
        <time>2022-05-24 18:26:07</time>
      </trkpt>
      <trkpt lat="40.80695" lon="0.34543">
        <ele>1340.4</ele>
        <time>2022-05-24 18:26:08</time>
      </trkpt>
      <trkpt lat="40.80693" lon="0.34546">
        <ele>1340.6</ele>
        <time>2022-05-24 18:26:09</time>
      </trkpt>
      <trkpt lat="40.80692" lon="0.34549">
        <ele>1340.8</ele>
        <time>2022-05-24 18:26:10</time>
      </trkpt>
      <trkpt lat="40.80689" lon="0.34552">
        <ele>1341</ele>
        <time>2022-05-24 18:26:11</time>
      </trkpt>
      <trkpt lat="40.80687" lon="0.34555">
        <ele>1341.2</ele>
        <time>2022-05-24 18:26:12</time>
      </trkpt>
      <trkpt lat="40.80684" lon="0.34557">
        <ele>1341.4</ele>
        <time>2022-05-24 18:26:13</time>
      </trkpt>
      <trkpt lat="40.80682" lon="0.34559">
        <ele>1341.6</ele>
        <time>2022-05-24 18:26:14</time>
      </trkpt>
      <trkpt lat="40.80679" lon="0.34561">
        <ele>1341.6</ele>
        <time>2022-05-24 18:26:15</time>
      </trkpt>
      <trkpt lat="40.80677" lon="0.34563">
        <ele>1341.8</ele>
        <time>2022-05-24 18:26:16</time>
      </trkpt>
      <trkpt lat="40.80674" lon="0.34565">
        <ele>1342</ele>
        <time>2022-05-24 18:26:17</time>
      </trkpt>
      <trkpt lat="40.80671" lon="0.34566">
        <ele>1342.2</ele>
        <time>2022-05-24 18:26:18</time>
      </trkpt>
      <trkpt lat="40.80669" lon="0.34568">
        <ele>1342.4</ele>
        <time>2022-05-24 18:26:19</time>
      </trkpt>
      <trkpt lat="40.80666" lon="0.34569">
        <ele>1342.4</ele>
        <time>2022-05-24 18:26:20</time>
      </trkpt>
      <trkpt lat="40.80663" lon="0.3457">
        <ele>1342.6</ele>
        <time>2022-05-24 18:26:21</time>
      </trkpt>
      <trkpt lat="40.8066" lon="0.34571">
        <ele>1342.8</ele>
        <time>2022-05-24 18:26:22</time>
      </trkpt>
      <trkpt lat="40.80658" lon="0.34572">
        <ele>1343</ele>
        <time>2022-05-24 18:26:23</time>
      </trkpt>
      <trkpt lat="40.80655" lon="0.34573">
        <ele>1343.2</ele>
        <time>2022-05-24 18:26:24</time>
      </trkpt>
      <trkpt lat="40.80653" lon="0.34574">
        <ele>1343.4</ele>
        <time>2022-05-24 18:26:25</time>
      </trkpt>
      <trkpt lat="40.8065" lon="0.34575">
        <ele>1343.6</ele>
        <time>2022-05-24 18:26:26</time>
      </trkpt>
      <trkpt lat="40.80648" lon="0.34576">
        <ele>1343.8</ele>
        <time>2022-05-24 18:26:27</time>
      </trkpt>
      <trkpt lat="40.80645" lon="0.34577">
        <ele>1344</ele>
        <time>2022-05-24 18:26:28</time>
      </trkpt>
      <trkpt lat="40.80643" lon="0.34577">
        <ele>1344.2</ele>
        <time>2022-05-24 18:26:29</time>
      </trkpt>
      <trkpt lat="40.8064" lon="0.34577">
        <ele>1344.6</ele>
        <time>2022-05-24 18:26:30</time>
      </trkpt>
      <trkpt lat="40.80637" lon="0.34576">
        <ele>1344.8</ele>
        <time>2022-05-24 18:26:31</time>
      </trkpt>
      <trkpt lat="40.80635" lon="0.34575">
        <ele>1345</ele>
        <time>2022-05-24 18:26:32</time>
      </trkpt>
      <trkpt lat="40.80633" lon="0.34574">
        <ele>1345.4</ele>
        <time>2022-05-24 18:26:33</time>
      </trkpt>
      <trkpt lat="40.8063" lon="0.34573">
        <ele>1345.6</ele>
        <time>2022-05-24 18:26:34</time>
      </trkpt>
      <trkpt lat="40.80628" lon="0.34571">
        <ele>1345.8</ele>
        <time>2022-05-24 18:26:35</time>
      </trkpt>
      <trkpt lat="40.80626" lon="0.34571">
        <ele>1346.2</ele>
        <time>2022-05-24 18:26:36</time>
      </trkpt>
      <trkpt lat="40.80624" lon="0.3457">
        <ele>1346.4</ele>
        <time>2022-05-24 18:26:37</time>
      </trkpt>
      <trkpt lat="40.80622" lon="0.34569">
        <ele>1346.6</ele>
        <time>2022-05-24 18:26:38</time>
      </trkpt>
      <trkpt lat="40.8062" lon="0.34568">
        <ele>1346.8</ele>
        <time>2022-05-24 18:26:39</time>
      </trkpt>
      <trkpt lat="40.80618" lon="0.34567">
        <ele>1347</ele>
        <time>2022-05-24 18:26:40</time>
      </trkpt>
      <trkpt lat="40.80616" lon="0.34566">
        <ele>1347.2</ele>
        <time>2022-05-24 18:26:41</time>
      </trkpt>
      <trkpt lat="40.80614" lon="0.34565">
        <ele>1347.6</ele>
        <time>2022-05-24 18:26:42</time>
      </trkpt>
      <trkpt lat="40.80612" lon="0.34564">
        <ele>1347.6</ele>
        <time>2022-05-24 18:26:43</time>
      </trkpt>
      <trkpt lat="40.80611" lon="0.34564">
        <ele>1348</ele>
        <time>2022-05-24 18:26:44</time>
      </trkpt>
      <trkpt lat="40.80609" lon="0.34563">
        <ele>1348.2</ele>
        <time>2022-05-24 18:26:45</time>
      </trkpt>
      <trkpt lat="40.80607" lon="0.34562">
        <ele>1348.4</ele>
        <time>2022-05-24 18:26:46</time>
      </trkpt>
      <trkpt lat="40.80606" lon="0.34562">
        <ele>1348.6</ele>
        <time>2022-05-24 18:26:47</time>
      </trkpt>
      <trkpt lat="40.80604" lon="0.34561">
        <ele>1348.8</ele>
        <time>2022-05-24 18:26:48</time>
      </trkpt>
      <trkpt lat="40.80602" lon="0.34561">
        <ele>1349</ele>
        <time>2022-05-24 18:26:49</time>
      </trkpt>
      <trkpt lat="40.806" lon="0.3456">
        <ele>1349.2</ele>
        <time>2022-05-24 18:26:50</time>
      </trkpt>
      <trkpt lat="40.80598" lon="0.3456">
        <ele>1349.4</ele>
        <time>2022-05-24 18:26:51</time>
      </trkpt>
      <trkpt lat="40.80597" lon="0.3456">
        <ele>1349.6</ele>
        <time>2022-05-24 18:26:52</time>
      </trkpt>
      <trkpt lat="40.80595" lon="0.3456">
        <ele>1349.8</ele>
        <time>2022-05-24 18:26:53</time>
      </trkpt>
      <trkpt lat="40.80592" lon="0.3456">
        <ele>1350</ele>
        <time>2022-05-24 18:26:54</time>
      </trkpt>
      <trkpt lat="40.8059" lon="0.3456">
        <ele>1350.2</ele>
        <time>2022-05-24 18:26:55</time>
      </trkpt>
      <trkpt lat="40.80589" lon="0.3456">
        <ele>1350.6</ele>
        <time>2022-05-24 18:26:56</time>
      </trkpt>
      <trkpt lat="40.80587" lon="0.3456">
        <ele>1350.8</ele>
        <time>2022-05-24 18:26:57</time>
      </trkpt>
      <trkpt lat="40.80585" lon="0.34561">
        <ele>1351</ele>
        <time>2022-05-24 18:26:58</time>
      </trkpt>
      <trkpt lat="40.80583" lon="0.34562">
        <ele>1351.2</ele>
        <time>2022-05-24 18:26:59</time>
      </trkpt>
      <trkpt lat="40.80581" lon="0.34562">
        <ele>1351.4</ele>
        <time>2022-05-24 18:27:00</time>
      </trkpt>
      <trkpt lat="40.80579" lon="0.34563">
        <ele>1351.6</ele>
        <time>2022-05-24 18:27:01</time>
      </trkpt>
      <trkpt lat="40.80578" lon="0.34563">
        <ele>1351.8</ele>
        <time>2022-05-24 18:27:02</time>
      </trkpt>
      <trkpt lat="40.80576" lon="0.34564">
        <ele>1352</ele>
        <time>2022-05-24 18:27:03</time>
      </trkpt>
      <trkpt lat="40.80574" lon="0.34565">
        <ele>1352.2</ele>
        <time>2022-05-24 18:27:04</time>
      </trkpt>
      <trkpt lat="40.80573" lon="0.34566">
        <ele>1352.4</ele>
        <time>2022-05-24 18:27:05</time>
      </trkpt>
      <trkpt lat="40.80571" lon="0.34567">
        <ele>1352.4</ele>
        <time>2022-05-24 18:27:06</time>
      </trkpt>
      <trkpt lat="40.8057" lon="0.34569">
        <ele>1352.6</ele>
        <time>2022-05-24 18:27:07</time>
      </trkpt>
      <trkpt lat="40.80568" lon="0.3457">
        <ele>1353</ele>
        <time>2022-05-24 18:27:08</time>
      </trkpt>
      <trkpt lat="40.80567" lon="0.34571">
        <ele>1353.2</ele>
        <time>2022-05-24 18:27:09</time>
      </trkpt>
      <trkpt lat="40.80566" lon="0.34572">
        <ele>1353.4</ele>
        <time>2022-05-24 18:27:10</time>
      </trkpt>
      <trkpt lat="40.80564" lon="0.34572">
        <ele>1353.6</ele>
        <time>2022-05-24 18:27:11</time>
      </trkpt>
      <trkpt lat="40.80563" lon="0.34574">
        <ele>1354</ele>
        <time>2022-05-24 18:27:12</time>
      </trkpt>
      <trkpt lat="40.80561" lon="0.34575">
        <ele>1354.2</ele>
        <time>2022-05-24 18:27:13</time>
      </trkpt>
      <trkpt lat="40.8056" lon="0.34576">
        <ele>1354.4</ele>
        <time>2022-05-24 18:27:14</time>
      </trkpt>
      <trkpt lat="40.80558" lon="0.34577">
        <ele>1354.6</ele>
        <time>2022-05-24 18:27:15</time>
      </trkpt>
      <trkpt lat="40.80557" lon="0.34578">
        <ele>1354.8</ele>
        <time>2022-05-24 18:27:16</time>
      </trkpt>
      <trkpt lat="40.80555" lon="0.34578">
        <ele>1355.2</ele>
        <time>2022-05-24 18:27:17</time>
      </trkpt>
      <trkpt lat="40.80553" lon="0.34577">
        <ele>1355.4</ele>
        <time>2022-05-24 18:27:18</time>
      </trkpt>
      <trkpt lat="40.80552" lon="0.34576">
        <ele>1355.6</ele>
        <time>2022-05-24 18:27:19</time>
      </trkpt>
      <trkpt lat="40.80551" lon="0.34575">
        <ele>1355.8</ele>
        <time>2022-05-24 18:27:20</time>
      </trkpt>
      <trkpt lat="40.8055" lon="0.34573">
        <ele>1356.2</ele>
        <time>2022-05-24 18:27:21</time>
      </trkpt>
      <trkpt lat="40.8055" lon="0.3457">
        <ele>1356.6</ele>
        <time>2022-05-24 18:27:22</time>
      </trkpt>
      <trkpt lat="40.8055" lon="0.34568">
        <ele>1357</ele>
        <time>2022-05-24 18:27:23</time>
      </trkpt>
      <trkpt lat="40.8055" lon="0.34566">
        <ele>1357</ele>
        <time>2022-05-24 18:27:24</time>
      </trkpt>
      <trkpt lat="40.80551" lon="0.34564">
        <ele>1357.2</ele>
        <time>2022-05-24 18:27:25</time>
      </trkpt>
      <trkpt lat="40.80552" lon="0.34563">
        <ele>1357.4</ele>
        <time>2022-05-24 18:27:26</time>
      </trkpt>
      <trkpt lat="40.80553" lon="0.34561">
        <ele>1357.6</ele>
        <time>2022-05-24 18:27:27</time>
      </trkpt>
      <trkpt lat="40.80555" lon="0.3456">
        <ele>1358.2</ele>
        <time>2022-05-24 18:27:28</time>
      </trkpt>
      <trkpt lat="40.80556" lon="0.34559">
        <ele>1358.4</ele>
        <time>2022-05-24 18:27:29</time>
      </trkpt>
      <trkpt lat="40.80557" lon="0.34558">
        <ele>1358.6</ele>
        <time>2022-05-24 18:27:30</time>
      </trkpt>
      <trkpt lat="40.80558" lon="0.34557">
        <ele>1358.6</ele>
        <time>2022-05-24 18:27:31</time>
      </trkpt>
      <trkpt lat="40.8056" lon="0.34556">
        <ele>1358.8</ele>
        <time>2022-05-24 18:27:32</time>
      </trkpt>
      <trkpt lat="40.80561" lon="0.34555">
        <ele>1359.2</ele>
        <time>2022-05-24 18:27:33</time>
      </trkpt>
      <trkpt lat="40.80561" lon="0.34554">
        <ele>1359.6</ele>
        <time>2022-05-24 18:27:34</time>
      </trkpt>
      <trkpt lat="40.80562" lon="0.34554">
        <ele>1360.4</ele>
        <time>2022-05-24 18:27:35</time>
      </trkpt>
      <trkpt lat="40.80564" lon="0.34553">
        <ele>1360.8</ele>
        <time>2022-05-24 18:27:36</time>
      </trkpt>
      <trkpt lat="40.80565" lon="0.34552">
        <ele>1361.4</ele>
        <time>2022-05-24 18:27:37</time>
      </trkpt>
      <trkpt lat="40.80567" lon="0.34551">
        <ele>1361.6</ele>
        <time>2022-05-24 18:27:38</time>
      </trkpt>
      <trkpt lat="40.80568" lon="0.3455">
        <ele>1361.8</ele>
        <time>2022-05-24 18:27:39</time>
      </trkpt>
      <trkpt lat="40.80569" lon="0.34548">
        <ele>1362</ele>
        <time>2022-05-24 18:27:40</time>
      </trkpt>
      <trkpt lat="40.80571" lon="0.34546">
        <ele>1362</ele>
        <time>2022-05-24 18:27:41</time>
      </trkpt>
      <trkpt lat="40.80573" lon="0.34545">
        <ele>1362</ele>
        <time>2022-05-24 18:27:42</time>
      </trkpt>
      <trkpt lat="40.80574" lon="0.34544">
        <ele>1362.4</ele>
        <time>2022-05-24 18:27:43</time>
      </trkpt>
      <trkpt lat="40.80576" lon="0.34543">
        <ele>1362.4</ele>
        <time>2022-05-24 18:27:44</time>
      </trkpt>
      <trkpt lat="40.80577" lon="0.34542">
        <ele>1362.6</ele>
        <time>2022-05-24 18:27:45</time>
      </trkpt>
      <trkpt lat="40.80579" lon="0.34541">
        <ele>1363</ele>
        <time>2022-05-24 18:27:46</time>
      </trkpt>
      <trkpt lat="40.80581" lon="0.3454">
        <ele>1363.2</ele>
        <time>2022-05-24 18:27:47</time>
      </trkpt>
      <trkpt lat="40.80583" lon="0.34539">
        <ele>1363.6</ele>
        <time>2022-05-24 18:27:48</time>
      </trkpt>
      <trkpt lat="40.80585" lon="0.34538">
        <ele>1363.8</ele>
        <time>2022-05-24 18:27:49</time>
      </trkpt>
      <trkpt lat="40.80586" lon="0.34537">
        <ele>1364.2</ele>
        <time>2022-05-24 18:27:50</time>
      </trkpt>
      <trkpt lat="40.80588" lon="0.34537">
        <ele>1364.6</ele>
        <time>2022-05-24 18:27:51</time>
      </trkpt>
      <trkpt lat="40.8059" lon="0.34536">
        <ele>1364.6</ele>
        <time>2022-05-24 18:27:52</time>
      </trkpt>
      <trkpt lat="40.80592" lon="0.34535">
        <ele>1364.8</ele>
        <time>2022-05-24 18:27:53</time>
      </trkpt>
      <trkpt lat="40.80593" lon="0.34535">
        <ele>1365</ele>
        <time>2022-05-24 18:27:54</time>
      </trkpt>
      <trkpt lat="40.80595" lon="0.34535">
        <ele>1365.4</ele>
        <time>2022-05-24 18:27:55</time>
      </trkpt>
      <trkpt lat="40.80597" lon="0.34535">
        <ele>1365.4</ele>
        <time>2022-05-24 18:27:56</time>
      </trkpt>
      <trkpt lat="40.80598" lon="0.34534">
        <ele>1365.4</ele>
        <time>2022-05-24 18:27:57</time>
      </trkpt>
      <trkpt lat="40.806" lon="0.34535">
        <ele>1365.6</ele>
        <time>2022-05-24 18:27:58</time>
      </trkpt>
      <trkpt lat="40.80602" lon="0.34535">
        <ele>1365.8</ele>
        <time>2022-05-24 18:27:59</time>
      </trkpt>
      <trkpt lat="40.80604" lon="0.34535">
        <ele>1366</ele>
        <time>2022-05-24 18:28:00</time>
      </trkpt>
      <trkpt lat="40.80606" lon="0.34535">
        <ele>1366.2</ele>
        <time>2022-05-24 18:28:01</time>
      </trkpt>
      <trkpt lat="40.80608" lon="0.34536">
        <ele>1366.4</ele>
        <time>2022-05-24 18:28:02</time>
      </trkpt>
      <trkpt lat="40.8061" lon="0.34537">
        <ele>1366.6</ele>
        <time>2022-05-24 18:28:03</time>
      </trkpt>
      <trkpt lat="40.80612" lon="0.34537">
        <ele>1366.8</ele>
        <time>2022-05-24 18:28:04</time>
      </trkpt>
      <trkpt lat="40.80614" lon="0.34537">
        <ele>1367</ele>
        <time>2022-05-24 18:28:05</time>
      </trkpt>
      <trkpt lat="40.80616" lon="0.34536">
        <ele>1367</ele>
        <time>2022-05-24 18:28:06</time>
      </trkpt>
      <trkpt lat="40.80618" lon="0.34534">
        <ele>1367.2</ele>
        <time>2022-05-24 18:28:07</time>
      </trkpt>
      <trkpt lat="40.80619" lon="0.34533">
        <ele>1367.4</ele>
        <time>2022-05-24 18:28:08</time>
      </trkpt>
      <trkpt lat="40.80621" lon="0.34531">
        <ele>1367.6</ele>
        <time>2022-05-24 18:28:09</time>
      </trkpt>
      <trkpt lat="40.80622" lon="0.3453">
        <ele>1367.8</ele>
        <time>2022-05-24 18:28:10</time>
      </trkpt>
      <trkpt lat="40.80624" lon="0.34529">
        <ele>1368</ele>
        <time>2022-05-24 18:28:11</time>
      </trkpt>
      <trkpt lat="40.80625" lon="0.34528">
        <ele>1368.2</ele>
        <time>2022-05-24 18:28:12</time>
      </trkpt>
      <trkpt lat="40.80627" lon="0.34526">
        <ele>1368.4</ele>
        <time>2022-05-24 18:28:13</time>
      </trkpt>
      <trkpt lat="40.80628" lon="0.34525">
        <ele>1368.6</ele>
        <time>2022-05-24 18:28:14</time>
      </trkpt>
      <trkpt lat="40.80629" lon="0.34523">
        <ele>1368.8</ele>
        <time>2022-05-24 18:28:15</time>
      </trkpt>
      <trkpt lat="40.8063" lon="0.34521">
        <ele>1369</ele>
        <time>2022-05-24 18:28:16</time>
      </trkpt>
      <trkpt lat="40.80631" lon="0.34519">
        <ele>1369.2</ele>
        <time>2022-05-24 18:28:17</time>
      </trkpt>
      <trkpt lat="40.80632" lon="0.34516">
        <ele>1369.4</ele>
        <time>2022-05-24 18:28:18</time>
      </trkpt>
      <trkpt lat="40.80632" lon="0.34514">
        <ele>1369.4</ele>
        <time>2022-05-24 18:28:19</time>
      </trkpt>
      <trkpt lat="40.80633" lon="0.34512">
        <ele>1369.6</ele>
        <time>2022-05-24 18:28:20</time>
      </trkpt>
      <trkpt lat="40.80634" lon="0.3451">
        <ele>1369.8</ele>
        <time>2022-05-24 18:28:21</time>
      </trkpt>
      <trkpt lat="40.80634" lon="0.34508">
        <ele>1369.8</ele>
        <time>2022-05-24 18:28:22</time>
      </trkpt>
      <trkpt lat="40.80635" lon="0.34505">
        <ele>1370</ele>
        <time>2022-05-24 18:28:23</time>
      </trkpt>
      <trkpt lat="40.80636" lon="0.34503">
        <ele>1370.2</ele>
        <time>2022-05-24 18:28:24</time>
      </trkpt>
      <trkpt lat="40.80637" lon="0.34501">
        <ele>1370.4</ele>
        <time>2022-05-24 18:28:25</time>
      </trkpt>
      <trkpt lat="40.80637" lon="0.34499">
        <ele>1370.6</ele>
        <time>2022-05-24 18:28:26</time>
      </trkpt>
      <trkpt lat="40.80638" lon="0.34497">
        <ele>1370.6</ele>
        <time>2022-05-24 18:28:27</time>
      </trkpt>
      <trkpt lat="40.80639" lon="0.34494">
        <ele>1370.8</ele>
        <time>2022-05-24 18:28:28</time>
      </trkpt>
      <trkpt lat="40.80639" lon="0.34492">
        <ele>1371</ele>
        <time>2022-05-24 18:28:29</time>
      </trkpt>
      <trkpt lat="40.8064" lon="0.3449">
        <ele>1371.2</ele>
        <time>2022-05-24 18:28:30</time>
      </trkpt>
      <trkpt lat="40.80641" lon="0.34488">
        <ele>1371.4</ele>
        <time>2022-05-24 18:28:31</time>
      </trkpt>
      <trkpt lat="40.80642" lon="0.34487">
        <ele>1371.6</ele>
        <time>2022-05-24 18:28:32</time>
      </trkpt>
      <trkpt lat="40.80642" lon="0.34485">
        <ele>1371.8</ele>
        <time>2022-05-24 18:28:33</time>
      </trkpt>
      <trkpt lat="40.80643" lon="0.34483">
        <ele>1371.8</ele>
        <time>2022-05-24 18:28:34</time>
      </trkpt>
      <trkpt lat="40.80644" lon="0.34481">
        <ele>1371.8</ele>
        <time>2022-05-24 18:28:35</time>
      </trkpt>
      <trkpt lat="40.80644" lon="0.34479">
        <ele>1372</ele>
        <time>2022-05-24 18:28:36</time>
      </trkpt>
      <trkpt lat="40.80645" lon="0.34477">
        <ele>1372.2</ele>
        <time>2022-05-24 18:28:37</time>
      </trkpt>
      <trkpt lat="40.80646" lon="0.34475">
        <ele>1372.2</ele>
        <time>2022-05-24 18:28:38</time>
      </trkpt>
      <trkpt lat="40.80647" lon="0.34473">
        <ele>1372.4</ele>
        <time>2022-05-24 18:28:39</time>
      </trkpt>
      <trkpt lat="40.80647" lon="0.34471">
        <ele>1372.6</ele>
        <time>2022-05-24 18:28:40</time>
      </trkpt>
      <trkpt lat="40.80648" lon="0.34469">
        <ele>1372.8</ele>
        <time>2022-05-24 18:28:41</time>
      </trkpt>
      <trkpt lat="40.80648" lon="0.34467">
        <ele>1373</ele>
        <time>2022-05-24 18:28:42</time>
      </trkpt>
      <trkpt lat="40.80649" lon="0.34465">
        <ele>1373.2</ele>
        <time>2022-05-24 18:28:43</time>
      </trkpt>
      <trkpt lat="40.8065" lon="0.34462">
        <ele>1373.4</ele>
        <time>2022-05-24 18:28:44</time>
      </trkpt>
      <trkpt lat="40.80651" lon="0.3446">
        <ele>1373.6</ele>
        <time>2022-05-24 18:28:45</time>
      </trkpt>
      <trkpt lat="40.80652" lon="0.34458">
        <ele>1373.8</ele>
        <time>2022-05-24 18:28:46</time>
      </trkpt>
      <trkpt lat="40.80653" lon="0.34455">
        <ele>1374</ele>
        <time>2022-05-24 18:28:47</time>
      </trkpt>
      <trkpt lat="40.80654" lon="0.34453">
        <ele>1374.2</ele>
        <time>2022-05-24 18:28:48</time>
      </trkpt>
      <trkpt lat="40.80654" lon="0.3445">
        <ele>1374.4</ele>
        <time>2022-05-24 18:28:49</time>
      </trkpt>
      <trkpt lat="40.80655" lon="0.34448">
        <ele>1374.6</ele>
        <time>2022-05-24 18:28:50</time>
      </trkpt>
      <trkpt lat="40.80656" lon="0.34446">
        <ele>1374.8</ele>
        <time>2022-05-24 18:28:51</time>
      </trkpt>
      <trkpt lat="40.80656" lon="0.34444">
        <ele>1374.8</ele>
        <time>2022-05-24 18:28:52</time>
      </trkpt>
      <trkpt lat="40.80657" lon="0.34442">
        <ele>1375.2</ele>
        <time>2022-05-24 18:28:53</time>
      </trkpt>
      <trkpt lat="40.80657" lon="0.3444">
        <ele>1375.6</ele>
        <time>2022-05-24 18:28:54</time>
      </trkpt>
      <trkpt lat="40.80658" lon="0.34439">
        <ele>1375.8</ele>
        <time>2022-05-24 18:28:55</time>
      </trkpt>
      <trkpt lat="40.80658" lon="0.34437">
        <ele>1376.2</ele>
        <time>2022-05-24 18:28:56</time>
      </trkpt>
      <trkpt lat="40.80658" lon="0.34435">
        <ele>1376.6</ele>
        <time>2022-05-24 18:28:57</time>
      </trkpt>
      <trkpt lat="40.80659" lon="0.34433">
        <ele>1376.8</ele>
        <time>2022-05-24 18:28:58</time>
      </trkpt>
      <trkpt lat="40.80659" lon="0.34431">
        <ele>1377</ele>
        <time>2022-05-24 18:28:59</time>
      </trkpt>
      <trkpt lat="40.80659" lon="0.34429">
        <ele>1377</ele>
        <time>2022-05-24 18:29:00</time>
      </trkpt>
      <trkpt lat="40.8066" lon="0.34427">
        <ele>1377</ele>
        <time>2022-05-24 18:29:01</time>
      </trkpt>
      <trkpt lat="40.8066" lon="0.34424">
        <ele>1377</ele>
        <time>2022-05-24 18:29:02</time>
      </trkpt>
      <trkpt lat="40.8066" lon="0.34422">
        <ele>1377.2</ele>
        <time>2022-05-24 18:29:03</time>
      </trkpt>
      <trkpt lat="40.8066" lon="0.34419">
        <ele>1377.2</ele>
        <time>2022-05-24 18:29:04</time>
      </trkpt>
      <trkpt lat="40.80661" lon="0.34417">
        <ele>1377.4</ele>
        <time>2022-05-24 18:29:05</time>
      </trkpt>
      <trkpt lat="40.80661" lon="0.34414">
        <ele>1377.4</ele>
        <time>2022-05-24 18:29:06</time>
      </trkpt>
      <trkpt lat="40.80662" lon="0.34412">
        <ele>1377.6</ele>
        <time>2022-05-24 18:29:07</time>
      </trkpt>
      <trkpt lat="40.80662" lon="0.3441">
        <ele>1377.8</ele>
        <time>2022-05-24 18:29:08</time>
      </trkpt>
      <trkpt lat="40.80663" lon="0.34407">
        <ele>1377.8</ele>
        <time>2022-05-24 18:29:09</time>
      </trkpt>
      <trkpt lat="40.80664" lon="0.34405">
        <ele>1378</ele>
        <time>2022-05-24 18:29:10</time>
      </trkpt>
      <trkpt lat="40.80665" lon="0.34403">
        <ele>1378</ele>
        <time>2022-05-24 18:29:11</time>
      </trkpt>
      <trkpt lat="40.80666" lon="0.344">
        <ele>1378</ele>
        <time>2022-05-24 18:29:12</time>
      </trkpt>
      <trkpt lat="40.80667" lon="0.34399">
        <ele>1378.2</ele>
        <time>2022-05-24 18:29:13</time>
      </trkpt>
      <trkpt lat="40.80667" lon="0.34396">
        <ele>1378.4</ele>
        <time>2022-05-24 18:29:14</time>
      </trkpt>
      <trkpt lat="40.80668" lon="0.34394">
        <ele>1378.6</ele>
        <time>2022-05-24 18:29:15</time>
      </trkpt>
      <trkpt lat="40.80669" lon="0.34392">
        <ele>1378.8</ele>
        <time>2022-05-24 18:29:16</time>
      </trkpt>
      <trkpt lat="40.8067" lon="0.3439">
        <ele>1379</ele>
        <time>2022-05-24 18:29:17</time>
      </trkpt>
      <trkpt lat="40.80671" lon="0.34388">
        <ele>1379.2</ele>
        <time>2022-05-24 18:29:18</time>
      </trkpt>
      <trkpt lat="40.80671" lon="0.34387">
        <ele>1379.4</ele>
        <time>2022-05-24 18:29:19</time>
      </trkpt>
      <trkpt lat="40.80672" lon="0.34384">
        <ele>1379.6</ele>
        <time>2022-05-24 18:29:20</time>
      </trkpt>
      <trkpt lat="40.80672" lon="0.34382">
        <ele>1380</ele>
        <time>2022-05-24 18:29:21</time>
      </trkpt>
      <trkpt lat="40.80673" lon="0.3438">
        <ele>1380.2</ele>
        <time>2022-05-24 18:29:22</time>
      </trkpt>
      <trkpt lat="40.80674" lon="0.34378">
        <ele>1380.4</ele>
        <time>2022-05-24 18:29:23</time>
      </trkpt>
      <trkpt lat="40.80675" lon="0.34376">
        <ele>1380.4</ele>
        <time>2022-05-24 18:29:24</time>
      </trkpt>
      <trkpt lat="40.80676" lon="0.34374">
        <ele>1380.6</ele>
        <time>2022-05-24 18:29:25</time>
      </trkpt>
      <trkpt lat="40.80677" lon="0.34371">
        <ele>1381</ele>
        <time>2022-05-24 18:29:26</time>
      </trkpt>
      <trkpt lat="40.80677" lon="0.34369">
        <ele>1381.4</ele>
        <time>2022-05-24 18:29:27</time>
      </trkpt>
      <trkpt lat="40.80677" lon="0.34366">
        <ele>1381.6</ele>
        <time>2022-05-24 18:29:28</time>
      </trkpt>
      <trkpt lat="40.80677" lon="0.34364">
        <ele>1382</ele>
        <time>2022-05-24 18:29:29</time>
      </trkpt>
      <trkpt lat="40.80678" lon="0.34362">
        <ele>1382.2</ele>
        <time>2022-05-24 18:29:30</time>
      </trkpt>
      <trkpt lat="40.80677" lon="0.34359">
        <ele>1382.6</ele>
        <time>2022-05-24 18:29:31</time>
      </trkpt>
      <trkpt lat="40.80677" lon="0.34356">
        <ele>1382.8</ele>
        <time>2022-05-24 18:29:32</time>
      </trkpt>
      <trkpt lat="40.80677" lon="0.34354">
        <ele>1383</ele>
        <time>2022-05-24 18:29:33</time>
      </trkpt>
      <trkpt lat="40.80676" lon="0.34351">
        <ele>1383</ele>
        <time>2022-05-24 18:29:34</time>
      </trkpt>
      <trkpt lat="40.80675" lon="0.3435">
        <ele>1383.2</ele>
        <time>2022-05-24 18:29:35</time>
      </trkpt>
      <trkpt lat="40.80674" lon="0.34347">
        <ele>1383.4</ele>
        <time>2022-05-24 18:29:36</time>
      </trkpt>
      <trkpt lat="40.80672" lon="0.34346">
        <ele>1383.6</ele>
        <time>2022-05-24 18:29:37</time>
      </trkpt>
      <trkpt lat="40.80671" lon="0.34344">
        <ele>1383.8</ele>
        <time>2022-05-24 18:29:38</time>
      </trkpt>
      <trkpt lat="40.80669" lon="0.34343">
        <ele>1384</ele>
        <time>2022-05-24 18:29:39</time>
      </trkpt>
      <trkpt lat="40.80667" lon="0.34342">
        <ele>1384.2</ele>
        <time>2022-05-24 18:29:40</time>
      </trkpt>
      <trkpt lat="40.80666" lon="0.3434">
        <ele>1384.6</ele>
        <time>2022-05-24 18:29:41</time>
      </trkpt>
      <trkpt lat="40.80664" lon="0.34339">
        <ele>1384.8</ele>
        <time>2022-05-24 18:29:42</time>
      </trkpt>
      <trkpt lat="40.80662" lon="0.34339">
        <ele>1385</ele>
        <time>2022-05-24 18:29:43</time>
      </trkpt>
      <trkpt lat="40.80661" lon="0.34339">
        <ele>1385.2</ele>
        <time>2022-05-24 18:29:44</time>
      </trkpt>
      <trkpt lat="40.80659" lon="0.34339">
        <ele>1385.2</ele>
        <time>2022-05-24 18:29:45</time>
      </trkpt>
      <trkpt lat="40.80656" lon="0.34339">
        <ele>1385.4</ele>
        <time>2022-05-24 18:29:46</time>
      </trkpt>
      <trkpt lat="40.80655" lon="0.3434">
        <ele>1385.4</ele>
        <time>2022-05-24 18:29:47</time>
      </trkpt>
      <trkpt lat="40.80654" lon="0.34341">
        <ele>1385.4</ele>
        <time>2022-05-24 18:29:48</time>
      </trkpt>
      <trkpt lat="40.80653" lon="0.34343">
        <ele>1385.6</ele>
        <time>2022-05-24 18:29:49</time>
      </trkpt>
      <trkpt lat="40.80652" lon="0.34344">
        <ele>1385.6</ele>
        <time>2022-05-24 18:29:50</time>
      </trkpt>
      <trkpt lat="40.80651" lon="0.34345">
        <ele>1385.8</ele>
        <time>2022-05-24 18:29:51</time>
      </trkpt>
      <trkpt lat="40.8065" lon="0.34348">
        <ele>1385.8</ele>
        <time>2022-05-24 18:29:52</time>
      </trkpt>
      <trkpt lat="40.80648" lon="0.3435">
        <ele>1385.8</ele>
        <time>2022-05-24 18:29:53</time>
      </trkpt>
      <trkpt lat="40.80648" lon="0.34352">
        <ele>1385.8</ele>
        <time>2022-05-24 18:29:54</time>
      </trkpt>
      <trkpt lat="40.80647" lon="0.34354">
        <ele>1385.6</ele>
        <time>2022-05-24 18:29:55</time>
      </trkpt>
      <trkpt lat="40.80647" lon="0.34356">
        <ele>1385.6</ele>
        <time>2022-05-24 18:29:56</time>
      </trkpt>
      <trkpt lat="40.80645" lon="0.34358">
        <ele>1385.6</ele>
        <time>2022-05-24 18:29:57</time>
      </trkpt>
      <trkpt lat="40.80645" lon="0.3436">
        <ele>1386</ele>
        <time>2022-05-24 18:29:58</time>
      </trkpt>
      <trkpt lat="40.80643" lon="0.34362">
        <ele>1386</ele>
        <time>2022-05-24 18:29:59</time>
      </trkpt>
      <trkpt lat="40.80643" lon="0.34364">
        <ele>1386</ele>
        <time>2022-05-24 18:30:00</time>
      </trkpt>
      <trkpt lat="40.80642" lon="0.34366">
        <ele>1386.4</ele>
        <time>2022-05-24 18:30:01</time>
      </trkpt>
      <trkpt lat="40.80641" lon="0.34368">
        <ele>1386.6</ele>
        <time>2022-05-24 18:30:02</time>
      </trkpt>
      <trkpt lat="40.8064" lon="0.34369">
        <ele>1387</ele>
        <time>2022-05-24 18:30:03</time>
      </trkpt>
      <trkpt lat="40.8064" lon="0.34372">
        <ele>1387.4</ele>
        <time>2022-05-24 18:30:04</time>
      </trkpt>
      <trkpt lat="40.80639" lon="0.34374">
        <ele>1387.4</ele>
        <time>2022-05-24 18:30:05</time>
      </trkpt>
      <trkpt lat="40.80638" lon="0.34376">
        <ele>1387.6</ele>
        <time>2022-05-24 18:30:06</time>
      </trkpt>
      <trkpt lat="40.80637" lon="0.34379">
        <ele>1387.6</ele>
        <time>2022-05-24 18:30:07</time>
      </trkpt>
      <trkpt lat="40.80635" lon="0.3438">
        <ele>1387.6</ele>
        <time>2022-05-24 18:30:08</time>
      </trkpt>
      <trkpt lat="40.80634" lon="0.34383">
        <ele>1387.8</ele>
        <time>2022-05-24 18:30:09</time>
      </trkpt>
      <trkpt lat="40.80633" lon="0.34385">
        <ele>1388</ele>
        <time>2022-05-24 18:30:10</time>
      </trkpt>
      <trkpt lat="40.80632" lon="0.34387">
        <ele>1388.2</ele>
        <time>2022-05-24 18:30:11</time>
      </trkpt>
      <trkpt lat="40.8063" lon="0.34388">
        <ele>1388.4</ele>
        <time>2022-05-24 18:30:12</time>
      </trkpt>
      <trkpt lat="40.80629" lon="0.3439">
        <ele>1389</ele>
        <time>2022-05-24 18:30:13</time>
      </trkpt>
      <trkpt lat="40.80629" lon="0.34392">
        <ele>1389.2</ele>
        <time>2022-05-24 18:30:14</time>
      </trkpt>
      <trkpt lat="40.80628" lon="0.34395">
        <ele>1389.4</ele>
        <time>2022-05-24 18:30:15</time>
      </trkpt>
      <trkpt lat="40.80627" lon="0.34397">
        <ele>1389.6</ele>
        <time>2022-05-24 18:30:16</time>
      </trkpt>
      <trkpt lat="40.80626" lon="0.34399">
        <ele>1389.6</ele>
        <time>2022-05-24 18:30:17</time>
      </trkpt>
      <trkpt lat="40.80625" lon="0.34401">
        <ele>1389.6</ele>
        <time>2022-05-24 18:30:18</time>
      </trkpt>
      <trkpt lat="40.80624" lon="0.34403">
        <ele>1389.6</ele>
        <time>2022-05-24 18:30:19</time>
      </trkpt>
      <trkpt lat="40.80622" lon="0.34404">
        <ele>1389.8</ele>
        <time>2022-05-24 18:30:20</time>
      </trkpt>
      <trkpt lat="40.80621" lon="0.34406">
        <ele>1389.8</ele>
        <time>2022-05-24 18:30:21</time>
      </trkpt>
      <trkpt lat="40.8062" lon="0.34407">
        <ele>1390</ele>
        <time>2022-05-24 18:30:22</time>
      </trkpt>
      <trkpt lat="40.80619" lon="0.34409">
        <ele>1390.4</ele>
        <time>2022-05-24 18:30:23</time>
      </trkpt>
      <trkpt lat="40.80617" lon="0.3441">
        <ele>1390.4</ele>
        <time>2022-05-24 18:30:24</time>
      </trkpt>
      <trkpt lat="40.80616" lon="0.34412">
        <ele>1390.6</ele>
        <time>2022-05-24 18:30:25</time>
      </trkpt>
      <trkpt lat="40.80615" lon="0.34414">
        <ele>1390.8</ele>
        <time>2022-05-24 18:30:26</time>
      </trkpt>
      <trkpt lat="40.80614" lon="0.34416">
        <ele>1391</ele>
        <time>2022-05-24 18:30:27</time>
      </trkpt>
      <trkpt lat="40.80613" lon="0.34417">
        <ele>1391.2</ele>
        <time>2022-05-24 18:30:28</time>
      </trkpt>
      <trkpt lat="40.80612" lon="0.34418">
        <ele>1391.4</ele>
        <time>2022-05-24 18:30:29</time>
      </trkpt>
      <trkpt lat="40.80611" lon="0.3442">
        <ele>1391.6</ele>
        <time>2022-05-24 18:30:30</time>
      </trkpt>
      <trkpt lat="40.8061" lon="0.34422">
        <ele>1392</ele>
        <time>2022-05-24 18:30:31</time>
      </trkpt>
      <trkpt lat="40.80608" lon="0.34424">
        <ele>1392.2</ele>
        <time>2022-05-24 18:30:32</time>
      </trkpt>
      <trkpt lat="40.80607" lon="0.34425">
        <ele>1392.4</ele>
        <time>2022-05-24 18:30:33</time>
      </trkpt>
      <trkpt lat="40.80605" lon="0.34427">
        <ele>1392.6</ele>
        <time>2022-05-24 18:30:34</time>
      </trkpt>
      <trkpt lat="40.80604" lon="0.34428">
        <ele>1392.8</ele>
        <time>2022-05-24 18:30:35</time>
      </trkpt>
      <trkpt lat="40.80603" lon="0.34429">
        <ele>1393</ele>
        <time>2022-05-24 18:30:36</time>
      </trkpt>
      <trkpt lat="40.80601" lon="0.3443">
        <ele>1393.4</ele>
        <time>2022-05-24 18:30:37</time>
      </trkpt>
      <trkpt lat="40.806" lon="0.34431">
        <ele>1393.6</ele>
        <time>2022-05-24 18:30:38</time>
      </trkpt>
      <trkpt lat="40.80598" lon="0.34433">
        <ele>1393.8</ele>
        <time>2022-05-24 18:30:39</time>
      </trkpt>
      <trkpt lat="40.80596" lon="0.34434">
        <ele>1394</ele>
        <time>2022-05-24 18:30:40</time>
      </trkpt>
      <trkpt lat="40.80595" lon="0.34434">
        <ele>1394.2</ele>
        <time>2022-05-24 18:30:41</time>
      </trkpt>
      <trkpt lat="40.80593" lon="0.34434">
        <ele>1394.4</ele>
        <time>2022-05-24 18:30:42</time>
      </trkpt>
      <trkpt lat="40.80591" lon="0.34435">
        <ele>1394.8</ele>
        <time>2022-05-24 18:30:43</time>
      </trkpt>
      <trkpt lat="40.8059" lon="0.34436">
        <ele>1395</ele>
        <time>2022-05-24 18:30:44</time>
      </trkpt>
      <trkpt lat="40.80588" lon="0.34436">
        <ele>1395.4</ele>
        <time>2022-05-24 18:30:45</time>
      </trkpt>
      <trkpt lat="40.80586" lon="0.34437">
        <ele>1395.8</ele>
        <time>2022-05-24 18:30:46</time>
      </trkpt>
      <trkpt lat="40.80584" lon="0.34437">
        <ele>1396.2</ele>
        <time>2022-05-24 18:30:47</time>
      </trkpt>
      <trkpt lat="40.80582" lon="0.34438">
        <ele>1396.6</ele>
        <time>2022-05-24 18:30:48</time>
      </trkpt>
      <trkpt lat="40.80581" lon="0.34439">
        <ele>1396.6</ele>
        <time>2022-05-24 18:30:49</time>
      </trkpt>
      <trkpt lat="40.80579" lon="0.34439">
        <ele>1397</ele>
        <time>2022-05-24 18:30:50</time>
      </trkpt>
      <trkpt lat="40.80577" lon="0.3444">
        <ele>1397.8</ele>
        <time>2022-05-24 18:30:51</time>
      </trkpt>
      <trkpt lat="40.80576" lon="0.3444">
        <ele>1398.2</ele>
        <time>2022-05-24 18:30:52</time>
      </trkpt>
      <trkpt lat="40.80574" lon="0.34441">
        <ele>1398.8</ele>
        <time>2022-05-24 18:30:53</time>
      </trkpt>
      <trkpt lat="40.80572" lon="0.34441">
        <ele>1399.2</ele>
        <time>2022-05-24 18:30:54</time>
      </trkpt>
      <trkpt lat="40.80571" lon="0.34442">
        <ele>1399.6</ele>
        <time>2022-05-24 18:30:55</time>
      </trkpt>
      <trkpt lat="40.80569" lon="0.34443">
        <ele>1399.8</ele>
        <time>2022-05-24 18:30:56</time>
      </trkpt>
      <trkpt lat="40.80567" lon="0.34443">
        <ele>1400.2</ele>
        <time>2022-05-24 18:30:57</time>
      </trkpt>
      <trkpt lat="40.80565" lon="0.34443">
        <ele>1400.4</ele>
        <time>2022-05-24 18:30:58</time>
      </trkpt>
      <trkpt lat="40.80563" lon="0.34443">
        <ele>1400.6</ele>
        <time>2022-05-24 18:30:59</time>
      </trkpt>
      <trkpt lat="40.80561" lon="0.34444">
        <ele>1400.8</ele>
        <time>2022-05-24 18:31:00</time>
      </trkpt>
      <trkpt lat="40.80559" lon="0.34445">
        <ele>1401</ele>
        <time>2022-05-24 18:31:01</time>
      </trkpt>
      <trkpt lat="40.80557" lon="0.34445">
        <ele>1401.4</ele>
        <time>2022-05-24 18:31:02</time>
      </trkpt>
      <trkpt lat="40.80555" lon="0.34446">
        <ele>1401.4</ele>
        <time>2022-05-24 18:31:03</time>
      </trkpt>
      <trkpt lat="40.80553" lon="0.34447">
        <ele>1401.4</ele>
        <time>2022-05-24 18:31:04</time>
      </trkpt>
      <trkpt lat="40.80552" lon="0.34447">
        <ele>1401.2</ele>
        <time>2022-05-24 18:31:05</time>
      </trkpt>
      <trkpt lat="40.8055" lon="0.34448">
        <ele>1401</ele>
        <time>2022-05-24 18:31:06</time>
      </trkpt>
      <trkpt lat="40.80548" lon="0.34448">
        <ele>1401</ele>
        <time>2022-05-24 18:31:07</time>
      </trkpt>
      <trkpt lat="40.80546" lon="0.34449">
        <ele>1401</ele>
        <time>2022-05-24 18:31:08</time>
      </trkpt>
      <trkpt lat="40.80544" lon="0.34449">
        <ele>1400.8</ele>
        <time>2022-05-24 18:31:09</time>
      </trkpt>
      <trkpt lat="40.80542" lon="0.3445">
        <ele>1400.8</ele>
        <time>2022-05-24 18:31:10</time>
      </trkpt>
      <trkpt lat="40.8054" lon="0.34451">
        <ele>1401</ele>
        <time>2022-05-24 18:31:11</time>
      </trkpt>
      <trkpt lat="40.80538" lon="0.34451">
        <ele>1401.2</ele>
        <time>2022-05-24 18:31:12</time>
      </trkpt>
      <trkpt lat="40.80536" lon="0.34452">
        <ele>1401.4</ele>
        <time>2022-05-24 18:31:13</time>
      </trkpt>
      <trkpt lat="40.80534" lon="0.34453">
        <ele>1402</ele>
        <time>2022-05-24 18:31:14</time>
      </trkpt>
      <trkpt lat="40.80532" lon="0.34453">
        <ele>1402.6</ele>
        <time>2022-05-24 18:31:15</time>
      </trkpt>
      <trkpt lat="40.80531" lon="0.34454">
        <ele>1403</ele>
        <time>2022-05-24 18:31:16</time>
      </trkpt>
      <trkpt lat="40.80529" lon="0.34454">
        <ele>1403.2</ele>
        <time>2022-05-24 18:31:17</time>
      </trkpt>
      <trkpt lat="40.80527" lon="0.34455">
        <ele>1403.2</ele>
        <time>2022-05-24 18:31:18</time>
      </trkpt>
      <trkpt lat="40.80524" lon="0.34457">
        <ele>1403.4</ele>
        <time>2022-05-24 18:31:19</time>
      </trkpt>
      <trkpt lat="40.80523" lon="0.34458">
        <ele>1403.6</ele>
        <time>2022-05-24 18:31:20</time>
      </trkpt>
      <trkpt lat="40.80521" lon="0.3446">
        <ele>1403.6</ele>
        <time>2022-05-24 18:31:21</time>
      </trkpt>
      <trkpt lat="40.80519" lon="0.34461">
        <ele>1403.8</ele>
        <time>2022-05-24 18:31:22</time>
      </trkpt>
      <trkpt lat="40.80517" lon="0.34462">
        <ele>1403.8</ele>
        <time>2022-05-24 18:31:23</time>
      </trkpt>
      <trkpt lat="40.80515" lon="0.34464">
        <ele>1404</ele>
        <time>2022-05-24 18:31:24</time>
      </trkpt>
      <trkpt lat="40.80514" lon="0.34465">
        <ele>1404.2</ele>
        <time>2022-05-24 18:31:25</time>
      </trkpt>
      <trkpt lat="40.80512" lon="0.34467">
        <ele>1404.4</ele>
        <time>2022-05-24 18:31:26</time>
      </trkpt>
      <trkpt lat="40.80511" lon="0.34468">
        <ele>1404.4</ele>
        <time>2022-05-24 18:31:27</time>
      </trkpt>
      <trkpt lat="40.80509" lon="0.3447">
        <ele>1404.4</ele>
        <time>2022-05-24 18:31:28</time>
      </trkpt>
      <trkpt lat="40.80507" lon="0.34471">
        <ele>1404.4</ele>
        <time>2022-05-24 18:31:29</time>
      </trkpt>
      <trkpt lat="40.80506" lon="0.34473">
        <ele>1404.4</ele>
        <time>2022-05-24 18:31:30</time>
      </trkpt>
      <trkpt lat="40.80504" lon="0.34474">
        <ele>1404.4</ele>
        <time>2022-05-24 18:31:31</time>
      </trkpt>
      <trkpt lat="40.80502" lon="0.34476">
        <ele>1404.6</ele>
        <time>2022-05-24 18:31:32</time>
      </trkpt>
      <trkpt lat="40.805" lon="0.34477">
        <ele>1404.6</ele>
        <time>2022-05-24 18:31:33</time>
      </trkpt>
      <trkpt lat="40.80498" lon="0.34478">
        <ele>1404.4</ele>
        <time>2022-05-24 18:31:34</time>
      </trkpt>
      <trkpt lat="40.80495" lon="0.3448">
        <ele>1404.4</ele>
        <time>2022-05-24 18:31:35</time>
      </trkpt>
      <trkpt lat="40.80494" lon="0.34481">
        <ele>1404.4</ele>
        <time>2022-05-24 18:31:36</time>
      </trkpt>
      <trkpt lat="40.80492" lon="0.34482">
        <ele>1404.6</ele>
        <time>2022-05-24 18:31:37</time>
      </trkpt>
      <trkpt lat="40.80489" lon="0.34484">
        <ele>1404.6</ele>
        <time>2022-05-24 18:31:38</time>
      </trkpt>
      <trkpt lat="40.80487" lon="0.34485">
        <ele>1404.8</ele>
        <time>2022-05-24 18:31:39</time>
      </trkpt>
      <trkpt lat="40.80485" lon="0.34486">
        <ele>1405.2</ele>
        <time>2022-05-24 18:31:40</time>
      </trkpt>
      <trkpt lat="40.80483" lon="0.34487">
        <ele>1405.8</ele>
        <time>2022-05-24 18:31:41</time>
      </trkpt>
      <trkpt lat="40.80481" lon="0.34487">
        <ele>1406</ele>
        <time>2022-05-24 18:31:42</time>
      </trkpt>
      <trkpt lat="40.80478" lon="0.34487">
        <ele>1406.2</ele>
        <time>2022-05-24 18:31:43</time>
      </trkpt>
      <trkpt lat="40.80476" lon="0.34487">
        <ele>1406.2</ele>
        <time>2022-05-24 18:31:44</time>
      </trkpt>
      <trkpt lat="40.80473" lon="0.34487">
        <ele>1406.4</ele>
        <time>2022-05-24 18:31:45</time>
      </trkpt>
      <trkpt lat="40.80471" lon="0.34487">
        <ele>1406.4</ele>
        <time>2022-05-24 18:31:46</time>
      </trkpt>
      <trkpt lat="40.80468" lon="0.34487">
        <ele>1406.4</ele>
        <time>2022-05-24 18:31:47</time>
      </trkpt>
      <trkpt lat="40.80466" lon="0.34487">
        <ele>1406.2</ele>
        <time>2022-05-24 18:31:48</time>
      </trkpt>
      <trkpt lat="40.80463" lon="0.34487">
        <ele>1406.2</ele>
        <time>2022-05-24 18:31:49</time>
      </trkpt>
      <trkpt lat="40.80461" lon="0.34487">
        <ele>1406.2</ele>
        <time>2022-05-24 18:31:50</time>
      </trkpt>
      <trkpt lat="40.80458" lon="0.34486">
        <ele>1406.2</ele>
        <time>2022-05-24 18:31:51</time>
      </trkpt>
      <trkpt lat="40.80456" lon="0.34485">
        <ele>1406</ele>
        <time>2022-05-24 18:31:52</time>
      </trkpt>
      <trkpt lat="40.80454" lon="0.34485">
        <ele>1405.8</ele>
        <time>2022-05-24 18:31:53</time>
      </trkpt>
      <trkpt lat="40.80452" lon="0.34485">
        <ele>1405.8</ele>
        <time>2022-05-24 18:31:54</time>
      </trkpt>
      <trkpt lat="40.80449" lon="0.34485">
        <ele>1405.6</ele>
        <time>2022-05-24 18:31:55</time>
      </trkpt>
      <trkpt lat="40.80447" lon="0.34485">
        <ele>1405.4</ele>
        <time>2022-05-24 18:31:56</time>
      </trkpt>
      <trkpt lat="40.80445" lon="0.34485">
        <ele>1405.4</ele>
        <time>2022-05-24 18:31:57</time>
      </trkpt>
      <trkpt lat="40.80442" lon="0.34484">
        <ele>1405.4</ele>
        <time>2022-05-24 18:31:58</time>
      </trkpt>
      <trkpt lat="40.8044" lon="0.34484">
        <ele>1405.6</ele>
        <time>2022-05-24 18:31:59</time>
      </trkpt>
      <trkpt lat="40.80439" lon="0.34484">
        <ele>1405.8</ele>
        <time>2022-05-24 18:32:00</time>
      </trkpt>
      <trkpt lat="40.80437" lon="0.34483">
        <ele>1406</ele>
        <time>2022-05-24 18:32:01</time>
      </trkpt>
      <trkpt lat="40.80434" lon="0.34483">
        <ele>1406.4</ele>
        <time>2022-05-24 18:32:02</time>
      </trkpt>
      <trkpt lat="40.80433" lon="0.34483">
        <ele>1406.6</ele>
        <time>2022-05-24 18:32:03</time>
      </trkpt>
      <trkpt lat="40.8043" lon="0.34483">
        <ele>1407</ele>
        <time>2022-05-24 18:32:04</time>
      </trkpt>
      <trkpt lat="40.80428" lon="0.34482">
        <ele>1407.2</ele>
        <time>2022-05-24 18:32:05</time>
      </trkpt>
      <trkpt lat="40.80425" lon="0.34482">
        <ele>1407.4</ele>
        <time>2022-05-24 18:32:06</time>
      </trkpt>
      <trkpt lat="40.80423" lon="0.34482">
        <ele>1407.6</ele>
        <time>2022-05-24 18:32:07</time>
      </trkpt>
      <trkpt lat="40.8042" lon="0.34481">
        <ele>1408</ele>
        <time>2022-05-24 18:32:08</time>
      </trkpt>
      <trkpt lat="40.80418" lon="0.34481">
        <ele>1408.2</ele>
        <time>2022-05-24 18:32:09</time>
      </trkpt>
      <trkpt lat="40.80416" lon="0.3448">
        <ele>1408.2</ele>
        <time>2022-05-24 18:32:10</time>
      </trkpt>
      <trkpt lat="40.80413" lon="0.3448">
        <ele>1408.2</ele>
        <time>2022-05-24 18:32:11</time>
      </trkpt>
      <trkpt lat="40.80411" lon="0.3448">
        <ele>1408.4</ele>
        <time>2022-05-24 18:32:12</time>
      </trkpt>
      <trkpt lat="40.80409" lon="0.34479">
        <ele>1408.6</ele>
        <time>2022-05-24 18:32:13</time>
      </trkpt>
      <trkpt lat="40.80407" lon="0.34479">
        <ele>1409</ele>
        <time>2022-05-24 18:32:14</time>
      </trkpt>
      <trkpt lat="40.80404" lon="0.34479">
        <ele>1409.8</ele>
        <time>2022-05-24 18:32:15</time>
      </trkpt>
      <trkpt lat="40.80402" lon="0.34478">
        <ele>1410.2</ele>
        <time>2022-05-24 18:32:16</time>
      </trkpt>
      <trkpt lat="40.804" lon="0.34478">
        <ele>1410.2</ele>
        <time>2022-05-24 18:32:17</time>
      </trkpt>
      <trkpt lat="40.80397" lon="0.34478">
        <ele>1410.2</ele>
        <time>2022-05-24 18:32:18</time>
      </trkpt>
      <trkpt lat="40.80395" lon="0.34477">
        <ele>1410.2</ele>
        <time>2022-05-24 18:32:19</time>
      </trkpt>
      <trkpt lat="40.80393" lon="0.34477">
        <ele>1410.4</ele>
        <time>2022-05-24 18:32:20</time>
      </trkpt>
      <trkpt lat="40.80391" lon="0.34477">
        <ele>1410.4</ele>
        <time>2022-05-24 18:32:21</time>
      </trkpt>
      <trkpt lat="40.80389" lon="0.34476">
        <ele>1410.6</ele>
        <time>2022-05-24 18:32:22</time>
      </trkpt>
      <trkpt lat="40.80386" lon="0.34476">
        <ele>1410.8</ele>
        <time>2022-05-24 18:32:23</time>
      </trkpt>
      <trkpt lat="40.80384" lon="0.34475">
        <ele>1411</ele>
        <time>2022-05-24 18:32:24</time>
      </trkpt>
      <trkpt lat="40.80382" lon="0.34475">
        <ele>1411.2</ele>
        <time>2022-05-24 18:32:25</time>
      </trkpt>
      <trkpt lat="40.80379" lon="0.34475">
        <ele>1411.4</ele>
        <time>2022-05-24 18:32:26</time>
      </trkpt>
      <trkpt lat="40.80378" lon="0.34474">
        <ele>1411.4</ele>
        <time>2022-05-24 18:32:27</time>
      </trkpt>
      <trkpt lat="40.80375" lon="0.34474">
        <ele>1411.8</ele>
        <time>2022-05-24 18:32:28</time>
      </trkpt>
      <trkpt lat="40.80373" lon="0.34474">
        <ele>1412</ele>
        <time>2022-05-24 18:32:29</time>
      </trkpt>
      <trkpt lat="40.80371" lon="0.34474">
        <ele>1412.2</ele>
        <time>2022-05-24 18:32:30</time>
      </trkpt>
      <trkpt lat="40.80368" lon="0.34473">
        <ele>1412.4</ele>
        <time>2022-05-24 18:32:31</time>
      </trkpt>
      <trkpt lat="40.80366" lon="0.34472">
        <ele>1412.6</ele>
        <time>2022-05-24 18:32:32</time>
      </trkpt>
      <trkpt lat="40.80364" lon="0.34472">
        <ele>1412.8</ele>
        <time>2022-05-24 18:32:33</time>
      </trkpt>
      <trkpt lat="40.80362" lon="0.34471">
        <ele>1413</ele>
        <time>2022-05-24 18:32:34</time>
      </trkpt>
      <trkpt lat="40.8036" lon="0.34471">
        <ele>1413.2</ele>
        <time>2022-05-24 18:32:35</time>
      </trkpt>
      <trkpt lat="40.80357" lon="0.34471">
        <ele>1413.4</ele>
        <time>2022-05-24 18:32:36</time>
      </trkpt>
      <trkpt lat="40.80355" lon="0.3447">
        <ele>1413.6</ele>
        <time>2022-05-24 18:32:37</time>
      </trkpt>
      <trkpt lat="40.80353" lon="0.3447">
        <ele>1413.8</ele>
        <time>2022-05-24 18:32:38</time>
      </trkpt>
      <trkpt lat="40.8035" lon="0.34469">
        <ele>1413.8</ele>
        <time>2022-05-24 18:32:39</time>
      </trkpt>
      <trkpt lat="40.80349" lon="0.34468">
        <ele>1414</ele>
        <time>2022-05-24 18:32:40</time>
      </trkpt>
      <trkpt lat="40.80348" lon="0.34465">
        <ele>1414.2</ele>
        <time>2022-05-24 18:32:41</time>
      </trkpt>
      <trkpt lat="40.80347" lon="0.34463">
        <ele>1414.2</ele>
        <time>2022-05-24 18:32:42</time>
      </trkpt>
      <trkpt lat="40.80348" lon="0.34461">
        <ele>1414.4</ele>
        <time>2022-05-24 18:32:43</time>
      </trkpt>
      <trkpt lat="40.80349" lon="0.34459">
        <ele>1414.8</ele>
        <time>2022-05-24 18:32:44</time>
      </trkpt>
      <trkpt lat="40.80351" lon="0.34458">
        <ele>1415</ele>
        <time>2022-05-24 18:32:45</time>
      </trkpt>
      <trkpt lat="40.80354" lon="0.34457">
        <ele>1415.4</ele>
        <time>2022-05-24 18:32:46</time>
      </trkpt>
      <trkpt lat="40.80355" lon="0.34456">
        <ele>1415.6</ele>
        <time>2022-05-24 18:32:47</time>
      </trkpt>
      <trkpt lat="40.80358" lon="0.34456">
        <ele>1416</ele>
        <time>2022-05-24 18:32:48</time>
      </trkpt>
      <trkpt lat="40.8036" lon="0.34456">
        <ele>1416.4</ele>
        <time>2022-05-24 18:32:49</time>
      </trkpt>
      <trkpt lat="40.80362" lon="0.34456">
        <ele>1416.6</ele>
        <time>2022-05-24 18:32:50</time>
      </trkpt>
      <trkpt lat="40.80365" lon="0.34455">
        <ele>1417</ele>
        <time>2022-05-24 18:32:51</time>
      </trkpt>
      <trkpt lat="40.80367" lon="0.34455">
        <ele>1417.2</ele>
        <time>2022-05-24 18:32:52</time>
      </trkpt>
      <trkpt lat="40.80369" lon="0.34455">
        <ele>1417.6</ele>
        <time>2022-05-24 18:32:53</time>
      </trkpt>
      <trkpt lat="40.80371" lon="0.34455">
        <ele>1417.8</ele>
        <time>2022-05-24 18:32:54</time>
      </trkpt>
      <trkpt lat="40.80373" lon="0.34454">
        <ele>1418.2</ele>
        <time>2022-05-24 18:32:55</time>
      </trkpt>
      <trkpt lat="40.80376" lon="0.34453">
        <ele>1418.4</ele>
        <time>2022-05-24 18:32:56</time>
      </trkpt>
      <trkpt lat="40.80377" lon="0.34453">
        <ele>1418.8</ele>
        <time>2022-05-24 18:32:57</time>
      </trkpt>
      <trkpt lat="40.80379" lon="0.34452">
        <ele>1419.2</ele>
        <time>2022-05-24 18:32:58</time>
      </trkpt>
      <trkpt lat="40.80381" lon="0.34452">
        <ele>1419.4</ele>
        <time>2022-05-24 18:32:59</time>
      </trkpt>
      <trkpt lat="40.80383" lon="0.34451">
        <ele>1419.8</ele>
        <time>2022-05-24 18:33:00</time>
      </trkpt>
      <trkpt lat="40.80386" lon="0.3445">
        <ele>1420</ele>
        <time>2022-05-24 18:33:01</time>
      </trkpt>
      <trkpt lat="40.80388" lon="0.34449">
        <ele>1420.2</ele>
        <time>2022-05-24 18:33:02</time>
      </trkpt>
      <trkpt lat="40.8039" lon="0.34448">
        <ele>1420.6</ele>
        <time>2022-05-24 18:33:03</time>
      </trkpt>
      <trkpt lat="40.80392" lon="0.34447">
        <ele>1420.8</ele>
        <time>2022-05-24 18:33:04</time>
      </trkpt>
      <trkpt lat="40.80394" lon="0.34446">
        <ele>1421</ele>
        <time>2022-05-24 18:33:05</time>
      </trkpt>
      <trkpt lat="40.80396" lon="0.34444">
        <ele>1421.2</ele>
        <time>2022-05-24 18:33:06</time>
      </trkpt>
      <trkpt lat="40.80398" lon="0.34443">
        <ele>1421.4</ele>
        <time>2022-05-24 18:33:07</time>
      </trkpt>
      <trkpt lat="40.80399" lon="0.34442">
        <ele>1421.6</ele>
        <time>2022-05-24 18:33:08</time>
      </trkpt>
      <trkpt lat="40.80401" lon="0.34442">
        <ele>1421.8</ele>
        <time>2022-05-24 18:33:09</time>
      </trkpt>
      <trkpt lat="40.80402" lon="0.34442">
        <ele>1422</ele>
        <time>2022-05-24 18:33:10</time>
      </trkpt>
      <trkpt lat="40.80404" lon="0.34441">
        <ele>1422</ele>
        <time>2022-05-24 18:33:11</time>
      </trkpt>
      <trkpt lat="40.80406" lon="0.3444">
        <ele>1422.4</ele>
        <time>2022-05-24 18:33:12</time>
      </trkpt>
      <trkpt lat="40.80408" lon="0.34439">
        <ele>1422.6</ele>
        <time>2022-05-24 18:33:13</time>
      </trkpt>
      <trkpt lat="40.80409" lon="0.34438">
        <ele>1422.8</ele>
        <time>2022-05-24 18:33:14</time>
      </trkpt>
      <trkpt lat="40.80411" lon="0.34437">
        <ele>1423</ele>
        <time>2022-05-24 18:33:15</time>
      </trkpt>
      <trkpt lat="40.80413" lon="0.34436">
        <ele>1423.2</ele>
        <time>2022-05-24 18:33:16</time>
      </trkpt>
      <trkpt lat="40.80414" lon="0.34436">
        <ele>1423.4</ele>
        <time>2022-05-24 18:33:17</time>
      </trkpt>
      <trkpt lat="40.80416" lon="0.34435">
        <ele>1423.6</ele>
        <time>2022-05-24 18:33:18</time>
      </trkpt>
      <trkpt lat="40.80418" lon="0.34434">
        <ele>1423.8</ele>
        <time>2022-05-24 18:33:19</time>
      </trkpt>
      <trkpt lat="40.8042" lon="0.34432">
        <ele>1424</ele>
        <time>2022-05-24 18:33:20</time>
      </trkpt>
      <trkpt lat="40.80421" lon="0.34431">
        <ele>1424.2</ele>
        <time>2022-05-24 18:33:21</time>
      </trkpt>
      <trkpt lat="40.80423" lon="0.3443">
        <ele>1424.6</ele>
        <time>2022-05-24 18:33:22</time>
      </trkpt>
      <trkpt lat="40.80425" lon="0.34429">
        <ele>1425.2</ele>
        <time>2022-05-24 18:33:23</time>
      </trkpt>
      <trkpt lat="40.80427" lon="0.34429">
        <ele>1425.6</ele>
        <time>2022-05-24 18:33:24</time>
      </trkpt>
      <trkpt lat="40.80429" lon="0.34428">
        <ele>1425.8</ele>
        <time>2022-05-24 18:33:25</time>
      </trkpt>
      <trkpt lat="40.80431" lon="0.34428">
        <ele>1426</ele>
        <time>2022-05-24 18:33:26</time>
      </trkpt>
      <trkpt lat="40.80433" lon="0.34427">
        <ele>1426.4</ele>
        <time>2022-05-24 18:33:27</time>
      </trkpt>
      <trkpt lat="40.80435" lon="0.34426">
        <ele>1426.6</ele>
        <time>2022-05-24 18:33:28</time>
      </trkpt>
      <trkpt lat="40.80437" lon="0.34426">
        <ele>1427</ele>
        <time>2022-05-24 18:33:29</time>
      </trkpt>
      <trkpt lat="40.80439" lon="0.34425">
        <ele>1427.2</ele>
        <time>2022-05-24 18:33:30</time>
      </trkpt>
      <trkpt lat="40.80441" lon="0.34424">
        <ele>1427.4</ele>
        <time>2022-05-24 18:33:31</time>
      </trkpt>
      <trkpt lat="40.80442" lon="0.34423">
        <ele>1427.6</ele>
        <time>2022-05-24 18:33:32</time>
      </trkpt>
      <trkpt lat="40.80444" lon="0.34422">
        <ele>1427.8</ele>
        <time>2022-05-24 18:33:33</time>
      </trkpt>
      <trkpt lat="40.80445" lon="0.34422">
        <ele>1428</ele>
        <time>2022-05-24 18:33:34</time>
      </trkpt>
      <trkpt lat="40.80447" lon="0.34421">
        <ele>1428.2</ele>
        <time>2022-05-24 18:33:35</time>
      </trkpt>
      <trkpt lat="40.80448" lon="0.3442">
        <ele>1428.4</ele>
        <time>2022-05-24 18:33:36</time>
      </trkpt>
      <trkpt lat="40.80449" lon="0.34418">
        <ele>1428.6</ele>
        <time>2022-05-24 18:33:37</time>
      </trkpt>
      <trkpt lat="40.80449" lon="0.34416">
        <ele>1428.6</ele>
        <time>2022-05-24 18:33:38</time>
      </trkpt>
      <trkpt lat="40.80448" lon="0.34413">
        <ele>1428.8</ele>
        <time>2022-05-24 18:33:39</time>
      </trkpt>
      <trkpt lat="40.80447" lon="0.34411">
        <ele>1429</ele>
        <time>2022-05-24 18:33:40</time>
      </trkpt>
      <trkpt lat="40.80445" lon="0.34408">
        <ele>1429.2</ele>
        <time>2022-05-24 18:33:41</time>
      </trkpt>
      <trkpt lat="40.80444" lon="0.34406">
        <ele>1429.4</ele>
        <time>2022-05-24 18:33:42</time>
      </trkpt>
      <trkpt lat="40.80443" lon="0.34404">
        <ele>1429.6</ele>
        <time>2022-05-24 18:33:43</time>
      </trkpt>
      <trkpt lat="40.80441" lon="0.34402">
        <ele>1429.8</ele>
        <time>2022-05-24 18:33:44</time>
      </trkpt>
      <trkpt lat="40.8044" lon="0.344">
        <ele>1430.2</ele>
        <time>2022-05-24 18:33:45</time>
      </trkpt>
      <trkpt lat="40.80438" lon="0.34398">
        <ele>1430.2</ele>
        <time>2022-05-24 18:33:46</time>
      </trkpt>
      <trkpt lat="40.80437" lon="0.34397">
        <ele>1430.4</ele>
        <time>2022-05-24 18:33:47</time>
      </trkpt>
      <trkpt lat="40.80435" lon="0.34395">
        <ele>1430.6</ele>
        <time>2022-05-24 18:33:48</time>
      </trkpt>
      <trkpt lat="40.80433" lon="0.34394">
        <ele>1430.8</ele>
        <time>2022-05-24 18:33:49</time>
      </trkpt>
      <trkpt lat="40.80432" lon="0.34393">
        <ele>1430.8</ele>
        <time>2022-05-24 18:33:50</time>
      </trkpt>
      <trkpt lat="40.8043" lon="0.34392">
        <ele>1430.8</ele>
        <time>2022-05-24 18:33:51</time>
      </trkpt>
      <trkpt lat="40.80428" lon="0.34391">
        <ele>1431</ele>
        <time>2022-05-24 18:33:52</time>
      </trkpt>
      <trkpt lat="40.80426" lon="0.3439">
        <ele>1431.2</ele>
        <time>2022-05-24 18:33:53</time>
      </trkpt>
      <trkpt lat="40.80424" lon="0.34389">
        <ele>1431.4</ele>
        <time>2022-05-24 18:33:54</time>
      </trkpt>
      <trkpt lat="40.80423" lon="0.34388">
        <ele>1431.6</ele>
        <time>2022-05-24 18:33:55</time>
      </trkpt>
      <trkpt lat="40.8042" lon="0.34388">
        <ele>1431.8</ele>
        <time>2022-05-24 18:33:56</time>
      </trkpt>
      <trkpt lat="40.80418" lon="0.34388">
        <ele>1432</ele>
        <time>2022-05-24 18:33:57</time>
      </trkpt>
      <trkpt lat="40.80416" lon="0.34388">
        <ele>1432.2</ele>
        <time>2022-05-24 18:33:58</time>
      </trkpt>
      <trkpt lat="40.80415" lon="0.34388">
        <ele>1432.4</ele>
        <time>2022-05-24 18:33:59</time>
      </trkpt>
      <trkpt lat="40.80412" lon="0.34388">
        <ele>1432.8</ele>
        <time>2022-05-24 18:34:00</time>
      </trkpt>
      <trkpt lat="40.8041" lon="0.34388">
        <ele>1433</ele>
        <time>2022-05-24 18:34:01</time>
      </trkpt>
      <trkpt lat="40.80408" lon="0.34388">
        <ele>1433.2</ele>
        <time>2022-05-24 18:34:02</time>
      </trkpt>
      <trkpt lat="40.80407" lon="0.34388">
        <ele>1433.4</ele>
        <time>2022-05-24 18:34:03</time>
      </trkpt>
      <trkpt lat="40.80405" lon="0.34389">
        <ele>1433.4</ele>
        <time>2022-05-24 18:34:04</time>
      </trkpt>
      <trkpt lat="40.80403" lon="0.34389">
        <ele>1433.6</ele>
        <time>2022-05-24 18:34:05</time>
      </trkpt>
      <trkpt lat="40.80401" lon="0.34389">
        <ele>1433.8</ele>
        <time>2022-05-24 18:34:06</time>
      </trkpt>
      <trkpt lat="40.80399" lon="0.34389">
        <ele>1434</ele>
        <time>2022-05-24 18:34:07</time>
      </trkpt>
      <trkpt lat="40.80397" lon="0.3439">
        <ele>1434.2</ele>
        <time>2022-05-24 18:34:08</time>
      </trkpt>
      <trkpt lat="40.80396" lon="0.3439">
        <ele>1434.2</ele>
        <time>2022-05-24 18:34:09</time>
      </trkpt>
      <trkpt lat="40.80394" lon="0.34391">
        <ele>1434.4</ele>
        <time>2022-05-24 18:34:10</time>
      </trkpt>
      <trkpt lat="40.80391" lon="0.34391">
        <ele>1434.8</ele>
        <time>2022-05-24 18:34:11</time>
      </trkpt>
      <trkpt lat="40.80389" lon="0.34392">
        <ele>1435</ele>
        <time>2022-05-24 18:34:12</time>
      </trkpt>
      <trkpt lat="40.80387" lon="0.34393">
        <ele>1435.2</ele>
        <time>2022-05-24 18:34:13</time>
      </trkpt>
      <trkpt lat="40.80385" lon="0.34393">
        <ele>1435.4</ele>
        <time>2022-05-24 18:34:14</time>
      </trkpt>
      <trkpt lat="40.80383" lon="0.34393">
        <ele>1435.6</ele>
        <time>2022-05-24 18:34:15</time>
      </trkpt>
      <trkpt lat="40.80381" lon="0.34393">
        <ele>1435.8</ele>
        <time>2022-05-24 18:34:16</time>
      </trkpt>
      <trkpt lat="40.80379" lon="0.34393">
        <ele>1435.8</ele>
        <time>2022-05-24 18:34:17</time>
      </trkpt>
      <trkpt lat="40.80377" lon="0.34393">
        <ele>1436.2</ele>
        <time>2022-05-24 18:34:18</time>
      </trkpt>
      <trkpt lat="40.80375" lon="0.34393">
        <ele>1436.4</ele>
        <time>2022-05-24 18:34:19</time>
      </trkpt>
      <trkpt lat="40.80373" lon="0.34394">
        <ele>1436.6</ele>
        <time>2022-05-24 18:34:20</time>
      </trkpt>
      <trkpt lat="40.80371" lon="0.34394">
        <ele>1436.8</ele>
        <time>2022-05-24 18:34:21</time>
      </trkpt>
      <trkpt lat="40.80369" lon="0.34395">
        <ele>1437</ele>
        <time>2022-05-24 18:34:22</time>
      </trkpt>
      <trkpt lat="40.80367" lon="0.34395">
        <ele>1437.2</ele>
        <time>2022-05-24 18:34:23</time>
      </trkpt>
      <trkpt lat="40.80365" lon="0.34396">
        <ele>1437.4</ele>
        <time>2022-05-24 18:34:24</time>
      </trkpt>
      <trkpt lat="40.80363" lon="0.34396">
        <ele>1437.2</ele>
        <time>2022-05-24 18:34:25</time>
      </trkpt>
      <trkpt lat="40.80361" lon="0.34396">
        <ele>1437.2</ele>
        <time>2022-05-24 18:34:26</time>
      </trkpt>
      <trkpt lat="40.80359" lon="0.34396">
        <ele>1437.4</ele>
        <time>2022-05-24 18:34:27</time>
      </trkpt>
      <trkpt lat="40.80357" lon="0.34396">
        <ele>1437.4</ele>
        <time>2022-05-24 18:34:28</time>
      </trkpt>
      <trkpt lat="40.80355" lon="0.34396">
        <ele>1437.4</ele>
        <time>2022-05-24 18:34:29</time>
      </trkpt>
      <trkpt lat="40.80353" lon="0.34396">
        <ele>1437.6</ele>
        <time>2022-05-24 18:34:30</time>
      </trkpt>
      <trkpt lat="40.80351" lon="0.34396">
        <ele>1437.8</ele>
        <time>2022-05-24 18:34:31</time>
      </trkpt>
      <trkpt lat="40.80349" lon="0.34395">
        <ele>1438</ele>
        <time>2022-05-24 18:34:32</time>
      </trkpt>
      <trkpt lat="40.80347" lon="0.34395">
        <ele>1438.2</ele>
        <time>2022-05-24 18:34:33</time>
      </trkpt>
      <trkpt lat="40.80345" lon="0.34395">
        <ele>1438.2</ele>
        <time>2022-05-24 18:34:34</time>
      </trkpt>
      <trkpt lat="40.80343" lon="0.34395">
        <ele>1438.4</ele>
        <time>2022-05-24 18:34:35</time>
      </trkpt>
      <trkpt lat="40.80341" lon="0.34395">
        <ele>1438.4</ele>
        <time>2022-05-24 18:34:36</time>
      </trkpt>
      <trkpt lat="40.80339" lon="0.34395">
        <ele>1438.6</ele>
        <time>2022-05-24 18:34:37</time>
      </trkpt>
      <trkpt lat="40.80338" lon="0.34394">
        <ele>1438.6</ele>
        <time>2022-05-24 18:34:38</time>
      </trkpt>
      <trkpt lat="40.80336" lon="0.34393">
        <ele>1438.8</ele>
        <time>2022-05-24 18:34:39</time>
      </trkpt>
      <trkpt lat="40.80334" lon="0.34392">
        <ele>1439</ele>
        <time>2022-05-24 18:34:40</time>
      </trkpt>
      <trkpt lat="40.80332" lon="0.34392">
        <ele>1439.2</ele>
        <time>2022-05-24 18:34:41</time>
      </trkpt>
      <trkpt lat="40.80331" lon="0.34393">
        <ele>1439.2</ele>
        <time>2022-05-24 18:34:42</time>
      </trkpt>
      <trkpt lat="40.8033" lon="0.34394">
        <ele>1439.2</ele>
        <time>2022-05-24 18:34:43</time>
      </trkpt>
      <trkpt lat="40.80328" lon="0.34395">
        <ele>1439.2</ele>
        <time>2022-05-24 18:34:44</time>
      </trkpt>
      <trkpt lat="40.80327" lon="0.34396">
        <ele>1439.2</ele>
        <time>2022-05-24 18:34:45</time>
      </trkpt>
      <trkpt lat="40.80334" lon="0.34394">
        <ele>1440</ele>
        <time>2022-05-24 18:37:45</time>
      </trkpt>
      <trkpt lat="40.80336" lon="0.34395">
        <ele>1440</ele>
        <time>2022-05-24 18:37:46</time>
      </trkpt>
      <trkpt lat="40.80338" lon="0.34395">
        <ele>1440.2</ele>
        <time>2022-05-24 18:37:47</time>
      </trkpt>
      <trkpt lat="40.8034" lon="0.34396">
        <ele>1440.6</ele>
        <time>2022-05-24 18:37:48</time>
      </trkpt>
      <trkpt lat="40.80343" lon="0.34396">
        <ele>1440.6</ele>
        <time>2022-05-24 18:37:49</time>
      </trkpt>
      <trkpt lat="40.80347" lon="0.34396">
        <ele>1440.6</ele>
        <time>2022-05-24 18:37:50</time>
      </trkpt>
      <trkpt lat="40.8035" lon="0.34396">
        <ele>1440.4</ele>
        <time>2022-05-24 18:37:51</time>
      </trkpt>
      <trkpt lat="40.80354" lon="0.34396">
        <ele>1440.2</ele>
        <time>2022-05-24 18:37:52</time>
      </trkpt>
      <trkpt lat="40.80359" lon="0.34396">
        <ele>1439.6</ele>
        <time>2022-05-24 18:37:53</time>
      </trkpt>
      <trkpt lat="40.80363" lon="0.34396">
        <ele>1439.4</ele>
        <time>2022-05-24 18:37:54</time>
      </trkpt>
      <trkpt lat="40.80368" lon="0.34396">
        <ele>1439</ele>
        <time>2022-05-24 18:37:55</time>
      </trkpt>
      <trkpt lat="40.80373" lon="0.34396">
        <ele>1438.8</ele>
        <time>2022-05-24 18:37:56</time>
      </trkpt>
      <trkpt lat="40.80377" lon="0.34395">
        <ele>1438.4</ele>
        <time>2022-05-24 18:37:57</time>
      </trkpt>
      <trkpt lat="40.80381" lon="0.34394">
        <ele>1438</ele>
        <time>2022-05-24 18:37:58</time>
      </trkpt>
      <trkpt lat="40.80385" lon="0.34393">
        <ele>1437.6</ele>
        <time>2022-05-24 18:37:59</time>
      </trkpt>
      <trkpt lat="40.80389" lon="0.34392">
        <ele>1437</ele>
        <time>2022-05-24 18:38:00</time>
      </trkpt>
      <trkpt lat="40.80394" lon="0.3439">
        <ele>1436.4</ele>
        <time>2022-05-24 18:38:01</time>
      </trkpt>
      <trkpt lat="40.80399" lon="0.34389">
        <ele>1436</ele>
        <time>2022-05-24 18:38:02</time>
      </trkpt>
      <trkpt lat="40.80404" lon="0.34387">
        <ele>1435.6</ele>
        <time>2022-05-24 18:38:03</time>
      </trkpt>
      <trkpt lat="40.80409" lon="0.34386">
        <ele>1435.2</ele>
        <time>2022-05-24 18:38:04</time>
      </trkpt>
      <trkpt lat="40.80415" lon="0.34385">
        <ele>1434.6</ele>
        <time>2022-05-24 18:38:05</time>
      </trkpt>
      <trkpt lat="40.8042" lon="0.34385">
        <ele>1434.2</ele>
        <time>2022-05-24 18:38:06</time>
      </trkpt>
      <trkpt lat="40.80426" lon="0.34387">
        <ele>1433.6</ele>
        <time>2022-05-24 18:38:07</time>
      </trkpt>
      <trkpt lat="40.8043" lon="0.3439">
        <ele>1433.2</ele>
        <time>2022-05-24 18:38:08</time>
      </trkpt>
      <trkpt lat="40.80434" lon="0.34394">
        <ele>1432.6</ele>
        <time>2022-05-24 18:38:09</time>
      </trkpt>
      <trkpt lat="40.80438" lon="0.34397">
        <ele>1432.2</ele>
        <time>2022-05-24 18:38:10</time>
      </trkpt>
      <trkpt lat="40.80442" lon="0.344">
        <ele>1431.6</ele>
        <time>2022-05-24 18:38:11</time>
      </trkpt>
      <trkpt lat="40.80445" lon="0.34403">
        <ele>1431.2</ele>
        <time>2022-05-24 18:38:12</time>
      </trkpt>
      <trkpt lat="40.80447" lon="0.34407">
        <ele>1430.8</ele>
        <time>2022-05-24 18:38:13</time>
      </trkpt>
      <trkpt lat="40.80449" lon="0.34411">
        <ele>1430.2</ele>
        <time>2022-05-24 18:38:14</time>
      </trkpt>
      <trkpt lat="40.80451" lon="0.34414">
        <ele>1429.8</ele>
        <time>2022-05-24 18:38:15</time>
      </trkpt>
      <trkpt lat="40.80452" lon="0.34417">
        <ele>1429.4</ele>
        <time>2022-05-24 18:38:16</time>
      </trkpt>
      <trkpt lat="40.80453" lon="0.34418">
        <ele>1429.2</ele>
        <time>2022-05-24 18:38:17</time>
      </trkpt>
      <trkpt lat="40.80453" lon="0.34418">
        <ele>1429</ele>
        <time>2022-05-24 18:38:18</time>
      </trkpt>
      <trkpt lat="40.80453" lon="0.34418">
        <ele>1429</ele>
        <time>2022-05-24 18:38:19</time>
      </trkpt>
      <trkpt lat="40.80453" lon="0.34418">
        <ele>1429</ele>
        <time>2022-05-24 18:38:20</time>
      </trkpt>
      <trkpt lat="40.80453" lon="0.34418">
        <ele>1429.2</ele>
        <time>2022-05-24 18:38:21</time>
      </trkpt>
      <trkpt lat="40.80453" lon="0.34418">
        <ele>1429.2</ele>
        <time>2022-05-24 18:38:22</time>
      </trkpt>
      <trkpt lat="40.80426" lon="0.3443">
        <ele>1429</ele>
        <time>2022-05-24 18:40:47</time>
      </trkpt>
      <trkpt lat="40.80422" lon="0.34432">
        <ele>1428.8</ele>
        <time>2022-05-24 18:40:48</time>
      </trkpt>
      <trkpt lat="40.80418" lon="0.34433">
        <ele>1428.6</ele>
        <time>2022-05-24 18:40:49</time>
      </trkpt>
      <trkpt lat="40.80414" lon="0.34435">
        <ele>1428.4</ele>
        <time>2022-05-24 18:40:50</time>
      </trkpt>
      <trkpt lat="40.8041" lon="0.34436">
        <ele>1428</ele>
        <time>2022-05-24 18:40:51</time>
      </trkpt>
      <trkpt lat="40.80406" lon="0.34438">
        <ele>1427.8</ele>
        <time>2022-05-24 18:40:52</time>
      </trkpt>
      <trkpt lat="40.80402" lon="0.3444">
        <ele>1427.4</ele>
        <time>2022-05-24 18:40:53</time>
      </trkpt>
      <trkpt lat="40.80397" lon="0.34442">
        <ele>1427</ele>
        <time>2022-05-24 18:40:54</time>
      </trkpt>
      <trkpt lat="40.80392" lon="0.34444">
        <ele>1426.6</ele>
        <time>2022-05-24 18:40:55</time>
      </trkpt>
      <trkpt lat="40.80388" lon="0.34445">
        <ele>1426.2</ele>
        <time>2022-05-24 18:40:56</time>
      </trkpt>
      <trkpt lat="40.80383" lon="0.34448">
        <ele>1425.8</ele>
        <time>2022-05-24 18:40:57</time>
      </trkpt>
      <trkpt lat="40.80378" lon="0.34449">
        <ele>1425.2</ele>
        <time>2022-05-24 18:40:58</time>
      </trkpt>
      <trkpt lat="40.80374" lon="0.3445">
        <ele>1424.6</ele>
        <time>2022-05-24 18:40:59</time>
      </trkpt>
      <trkpt lat="40.80368" lon="0.3445">
        <ele>1424</ele>
        <time>2022-05-24 18:41:00</time>
      </trkpt>
      <trkpt lat="40.80363" lon="0.34451">
        <ele>1423.4</ele>
        <time>2022-05-24 18:41:01</time>
      </trkpt>
      <trkpt lat="40.80359" lon="0.34451">
        <ele>1422.8</ele>
        <time>2022-05-24 18:41:02</time>
      </trkpt>
      <trkpt lat="40.80354" lon="0.34452">
        <ele>1422.4</ele>
        <time>2022-05-24 18:41:03</time>
      </trkpt>
      <trkpt lat="40.80351" lon="0.34454">
        <ele>1422</ele>
        <time>2022-05-24 18:41:04</time>
      </trkpt>
      <trkpt lat="40.80349" lon="0.34457">
        <ele>1421.8</ele>
        <time>2022-05-24 18:41:05</time>
      </trkpt>
      <trkpt lat="40.8035" lon="0.3446">
        <ele>1421.4</ele>
        <time>2022-05-24 18:41:06</time>
      </trkpt>
      <trkpt lat="40.80352" lon="0.34464">
        <ele>1421.2</ele>
        <time>2022-05-24 18:41:07</time>
      </trkpt>
      <trkpt lat="40.80356" lon="0.34467">
        <ele>1420.8</ele>
        <time>2022-05-24 18:41:08</time>
      </trkpt>
      <trkpt lat="40.80362" lon="0.34468">
        <ele>1420.4</ele>
        <time>2022-05-24 18:41:09</time>
      </trkpt>
      <trkpt lat="40.80367" lon="0.34469">
        <ele>1419.8</ele>
        <time>2022-05-24 18:41:10</time>
      </trkpt>
      <trkpt lat="40.80373" lon="0.3447">
        <ele>1419.4</ele>
        <time>2022-05-24 18:41:11</time>
      </trkpt>
      <trkpt lat="40.80379" lon="0.34471">
        <ele>1418.8</ele>
        <time>2022-05-24 18:41:12</time>
      </trkpt>
      <trkpt lat="40.80384" lon="0.34472">
        <ele>1418.2</ele>
        <time>2022-05-24 18:41:13</time>
      </trkpt>
      <trkpt lat="40.80391" lon="0.34474">
        <ele>1417.8</ele>
        <time>2022-05-24 18:41:14</time>
      </trkpt>
      <trkpt lat="40.80396" lon="0.34476">
        <ele>1417</ele>
        <time>2022-05-24 18:41:15</time>
      </trkpt>
      <trkpt lat="40.80402" lon="0.34478">
        <ele>1416.2</ele>
        <time>2022-05-24 18:41:16</time>
      </trkpt>
      <trkpt lat="40.80408" lon="0.34479">
        <ele>1415.4</ele>
        <time>2022-05-24 18:41:17</time>
      </trkpt>
      <trkpt lat="40.80413" lon="0.34481">
        <ele>1414.6</ele>
        <time>2022-05-24 18:41:18</time>
      </trkpt>
      <trkpt lat="40.8042" lon="0.34482">
        <ele>1413.8</ele>
        <time>2022-05-24 18:41:19</time>
      </trkpt>
      <trkpt lat="40.80426" lon="0.34483">
        <ele>1413.2</ele>
        <time>2022-05-24 18:41:20</time>
      </trkpt>
      <trkpt lat="40.80432" lon="0.34484">
        <ele>1412.6</ele>
        <time>2022-05-24 18:41:21</time>
      </trkpt>
      <trkpt lat="40.80439" lon="0.34485">
        <ele>1412</ele>
        <time>2022-05-24 18:41:22</time>
      </trkpt>
      <trkpt lat="40.80446" lon="0.34486">
        <ele>1411.4</ele>
        <time>2022-05-24 18:41:23</time>
      </trkpt>
      <trkpt lat="40.80453" lon="0.34488">
        <ele>1410.8</ele>
        <time>2022-05-24 18:41:24</time>
      </trkpt>
      <trkpt lat="40.80461" lon="0.34488">
        <ele>1410.4</ele>
        <time>2022-05-24 18:41:25</time>
      </trkpt>
      <trkpt lat="40.80468" lon="0.34489">
        <ele>1409.8</ele>
        <time>2022-05-24 18:41:26</time>
      </trkpt>
      <trkpt lat="40.80476" lon="0.34488">
        <ele>1409.6</ele>
        <time>2022-05-24 18:41:27</time>
      </trkpt>
      <trkpt lat="40.80483" lon="0.34488">
        <ele>1409.2</ele>
        <time>2022-05-24 18:41:28</time>
      </trkpt>
      <trkpt lat="40.8049" lon="0.34485">
        <ele>1409</ele>
        <time>2022-05-24 18:41:29</time>
      </trkpt>
      <trkpt lat="40.80497" lon="0.34481">
        <ele>1408.8</ele>
        <time>2022-05-24 18:41:30</time>
      </trkpt>
      <trkpt lat="40.80503" lon="0.34476">
        <ele>1408.4</ele>
        <time>2022-05-24 18:41:31</time>
      </trkpt>
      <trkpt lat="40.8051" lon="0.3447">
        <ele>1408</ele>
        <time>2022-05-24 18:41:32</time>
      </trkpt>
      <trkpt lat="40.80516" lon="0.34464">
        <ele>1407.4</ele>
        <time>2022-05-24 18:41:33</time>
      </trkpt>
      <trkpt lat="40.80524" lon="0.34458">
        <ele>1407</ele>
        <time>2022-05-24 18:41:34</time>
      </trkpt>
      <trkpt lat="40.80531" lon="0.34454">
        <ele>1406.6</ele>
        <time>2022-05-24 18:41:35</time>
      </trkpt>
      <trkpt lat="40.80539" lon="0.34451">
        <ele>1406</ele>
        <time>2022-05-24 18:41:36</time>
      </trkpt>
      <trkpt lat="40.80547" lon="0.34449">
        <ele>1405.4</ele>
        <time>2022-05-24 18:41:37</time>
      </trkpt>
      <trkpt lat="40.80556" lon="0.34446">
        <ele>1404.8</ele>
        <time>2022-05-24 18:41:38</time>
      </trkpt>
      <trkpt lat="40.80565" lon="0.34444">
        <ele>1404</ele>
        <time>2022-05-24 18:41:39</time>
      </trkpt>
      <trkpt lat="40.80573" lon="0.34442">
        <ele>1403.4</ele>
        <time>2022-05-24 18:41:40</time>
      </trkpt>
      <trkpt lat="40.80581" lon="0.34439">
        <ele>1402.6</ele>
        <time>2022-05-24 18:41:41</time>
      </trkpt>
      <trkpt lat="40.80589" lon="0.34437">
        <ele>1401.8</ele>
        <time>2022-05-24 18:41:42</time>
      </trkpt>
      <trkpt lat="40.80595" lon="0.34434">
        <ele>1401</ele>
        <time>2022-05-24 18:41:43</time>
      </trkpt>
      <trkpt lat="40.80602" lon="0.3443">
        <ele>1400.2</ele>
        <time>2022-05-24 18:41:44</time>
      </trkpt>
      <trkpt lat="40.80608" lon="0.34425">
        <ele>1399.6</ele>
        <time>2022-05-24 18:41:45</time>
      </trkpt>
      <trkpt lat="40.80613" lon="0.34419">
        <ele>1398.8</ele>
        <time>2022-05-24 18:41:46</time>
      </trkpt>
      <trkpt lat="40.80618" lon="0.34413">
        <ele>1398</ele>
        <time>2022-05-24 18:41:47</time>
      </trkpt>
      <trkpt lat="40.80623" lon="0.34405">
        <ele>1397</ele>
        <time>2022-05-24 18:41:48</time>
      </trkpt>
      <trkpt lat="40.80629" lon="0.34397">
        <ele>1396.2</ele>
        <time>2022-05-24 18:41:49</time>
      </trkpt>
      <trkpt lat="40.80634" lon="0.34388">
        <ele>1395.4</ele>
        <time>2022-05-24 18:41:50</time>
      </trkpt>
      <trkpt lat="40.80638" lon="0.3438">
        <ele>1394.6</ele>
        <time>2022-05-24 18:41:51</time>
      </trkpt>
      <trkpt lat="40.80643" lon="0.34372">
        <ele>1394</ele>
        <time>2022-05-24 18:41:52</time>
      </trkpt>
      <trkpt lat="40.80647" lon="0.34364">
        <ele>1393.4</ele>
        <time>2022-05-24 18:41:53</time>
      </trkpt>
      <trkpt lat="40.8065" lon="0.34357">
        <ele>1392.8</ele>
        <time>2022-05-24 18:41:54</time>
      </trkpt>
      <trkpt lat="40.80652" lon="0.34348">
        <ele>1392</ele>
        <time>2022-05-24 18:41:55</time>
      </trkpt>
      <trkpt lat="40.80655" lon="0.34342">
        <ele>1391.4</ele>
        <time>2022-05-24 18:41:56</time>
      </trkpt>
      <trkpt lat="40.80658" lon="0.34338">
        <ele>1390.8</ele>
        <time>2022-05-24 18:41:57</time>
      </trkpt>
      <trkpt lat="40.80662" lon="0.34336">
        <ele>1390</ele>
        <time>2022-05-24 18:41:58</time>
      </trkpt>
      <trkpt lat="40.80667" lon="0.34338">
        <ele>1389.4</ele>
        <time>2022-05-24 18:41:59</time>
      </trkpt>
      <trkpt lat="40.80672" lon="0.3434">
        <ele>1388.6</ele>
        <time>2022-05-24 18:42:00</time>
      </trkpt>
      <trkpt lat="40.80676" lon="0.34344">
        <ele>1388.2</ele>
        <time>2022-05-24 18:42:01</time>
      </trkpt>
      <trkpt lat="40.80678" lon="0.34349">
        <ele>1387.6</ele>
        <time>2022-05-24 18:42:02</time>
      </trkpt>
      <trkpt lat="40.80679" lon="0.34356">
        <ele>1387</ele>
        <time>2022-05-24 18:42:03</time>
      </trkpt>
      <trkpt lat="40.80679" lon="0.34363">
        <ele>1386.2</ele>
        <time>2022-05-24 18:42:04</time>
      </trkpt>
      <trkpt lat="40.80677" lon="0.34371">
        <ele>1385.4</ele>
        <time>2022-05-24 18:42:05</time>
      </trkpt>
      <trkpt lat="40.80674" lon="0.34379">
        <ele>1384.4</ele>
        <time>2022-05-24 18:42:06</time>
      </trkpt>
      <trkpt lat="40.80671" lon="0.34389">
        <ele>1383.6</ele>
        <time>2022-05-24 18:42:07</time>
      </trkpt>
      <trkpt lat="40.80668" lon="0.34397">
        <ele>1382.6</ele>
        <time>2022-05-24 18:42:08</time>
      </trkpt>
      <trkpt lat="40.80666" lon="0.34405">
        <ele>1382</ele>
        <time>2022-05-24 18:42:09</time>
      </trkpt>
      <trkpt lat="40.80664" lon="0.34413">
        <ele>1381.2</ele>
        <time>2022-05-24 18:42:10</time>
      </trkpt>
      <trkpt lat="40.80662" lon="0.34421">
        <ele>1380.4</ele>
        <time>2022-05-24 18:42:11</time>
      </trkpt>
      <trkpt lat="40.80659" lon="0.34429">
        <ele>1379.8</ele>
        <time>2022-05-24 18:42:12</time>
      </trkpt>
      <trkpt lat="40.80658" lon="0.34436">
        <ele>1379.2</ele>
        <time>2022-05-24 18:42:13</time>
      </trkpt>
      <trkpt lat="40.80655" lon="0.34444">
        <ele>1378.4</ele>
        <time>2022-05-24 18:42:14</time>
      </trkpt>
      <trkpt lat="40.80653" lon="0.34451">
        <ele>1377.8</ele>
        <time>2022-05-24 18:42:15</time>
      </trkpt>
      <trkpt lat="40.8065" lon="0.34458">
        <ele>1377.2</ele>
        <time>2022-05-24 18:42:16</time>
      </trkpt>
      <trkpt lat="40.80648" lon="0.34466">
        <ele>1376.4</ele>
        <time>2022-05-24 18:42:17</time>
      </trkpt>
      <trkpt lat="40.80645" lon="0.34474">
        <ele>1375.6</ele>
        <time>2022-05-24 18:42:18</time>
      </trkpt>
      <trkpt lat="40.80642" lon="0.34482">
        <ele>1374.8</ele>
        <time>2022-05-24 18:42:19</time>
      </trkpt>
      <trkpt lat="40.8064" lon="0.34491">
        <ele>1374</ele>
        <time>2022-05-24 18:42:20</time>
      </trkpt>
      <trkpt lat="40.80637" lon="0.345">
        <ele>1373.2</ele>
        <time>2022-05-24 18:42:21</time>
      </trkpt>
      <trkpt lat="40.80634" lon="0.34509">
        <ele>1372.2</ele>
        <time>2022-05-24 18:42:22</time>
      </trkpt>
      <trkpt lat="40.80631" lon="0.34517">
        <ele>1371.6</ele>
        <time>2022-05-24 18:42:23</time>
      </trkpt>
      <trkpt lat="40.80627" lon="0.34523">
        <ele>1370.8</ele>
        <time>2022-05-24 18:42:24</time>
      </trkpt>
      <trkpt lat="40.80623" lon="0.34528">
        <ele>1370.2</ele>
        <time>2022-05-24 18:42:25</time>
      </trkpt>
      <trkpt lat="40.80618" lon="0.34532">
        <ele>1369.4</ele>
        <time>2022-05-24 18:42:26</time>
      </trkpt>
      <trkpt lat="40.80612" lon="0.34533">
        <ele>1368.6</ele>
        <time>2022-05-24 18:42:27</time>
      </trkpt>
      <trkpt lat="40.80606" lon="0.34533">
        <ele>1367.8</ele>
        <time>2022-05-24 18:42:28</time>
      </trkpt>
      <trkpt lat="40.806" lon="0.34533">
        <ele>1367</ele>
        <time>2022-05-24 18:42:29</time>
      </trkpt>
      <trkpt lat="40.80592" lon="0.34535">
        <ele>1366.4</ele>
        <time>2022-05-24 18:42:30</time>
      </trkpt>
      <trkpt lat="40.80585" lon="0.34538">
        <ele>1365.6</ele>
        <time>2022-05-24 18:42:31</time>
      </trkpt>
      <trkpt lat="40.80578" lon="0.34543">
        <ele>1364.8</ele>
        <time>2022-05-24 18:42:32</time>
      </trkpt>
      <trkpt lat="40.80571" lon="0.34548">
        <ele>1364.2</ele>
        <time>2022-05-24 18:42:33</time>
      </trkpt>
      <trkpt lat="40.80565" lon="0.34553">
        <ele>1363.4</ele>
        <time>2022-05-24 18:42:34</time>
      </trkpt>
      <trkpt lat="40.80559" lon="0.34558">
        <ele>1362.8</ele>
        <time>2022-05-24 18:42:35</time>
      </trkpt>
      <trkpt lat="40.80554" lon="0.34563">
        <ele>1362</ele>
        <time>2022-05-24 18:42:36</time>
      </trkpt>
      <trkpt lat="40.8055" lon="0.34569">
        <ele>1361.4</ele>
        <time>2022-05-24 18:42:37</time>
      </trkpt>
      <trkpt lat="40.80548" lon="0.34574">
        <ele>1360.8</ele>
        <time>2022-05-24 18:42:38</time>
      </trkpt>
      <trkpt lat="40.8055" lon="0.34578">
        <ele>1360.2</ele>
        <time>2022-05-24 18:42:39</time>
      </trkpt>
      <trkpt lat="40.80552" lon="0.3458">
        <ele>1359.4</ele>
        <time>2022-05-24 18:42:40</time>
      </trkpt>
      <trkpt lat="40.80556" lon="0.34579">
        <ele>1358.6</ele>
        <time>2022-05-24 18:42:41</time>
      </trkpt>
      <trkpt lat="40.8056" lon="0.34575">
        <ele>1357.8</ele>
        <time>2022-05-24 18:42:42</time>
      </trkpt>
      <trkpt lat="40.80565" lon="0.34571">
        <ele>1357</ele>
        <time>2022-05-24 18:42:43</time>
      </trkpt>
      <trkpt lat="40.80571" lon="0.34567">
        <ele>1356</ele>
        <time>2022-05-24 18:42:44</time>
      </trkpt>
      <trkpt lat="40.80578" lon="0.34564">
        <ele>1355.2</ele>
        <time>2022-05-24 18:42:45</time>
      </trkpt>
      <trkpt lat="40.80586" lon="0.34563">
        <ele>1354.6</ele>
        <time>2022-05-24 18:42:46</time>
      </trkpt>
      <trkpt lat="40.80594" lon="0.34564">
        <ele>1353.8</ele>
        <time>2022-05-24 18:42:47</time>
      </trkpt>
      <trkpt lat="40.80602" lon="0.34566">
        <ele>1353.2</ele>
        <time>2022-05-24 18:42:48</time>
      </trkpt>
      <trkpt lat="40.80609" lon="0.34569">
        <ele>1352.4</ele>
        <time>2022-05-24 18:42:49</time>
      </trkpt>
      <trkpt lat="40.80617" lon="0.34572">
        <ele>1351.6</ele>
        <time>2022-05-24 18:42:50</time>
      </trkpt>
      <trkpt lat="40.80624" lon="0.34576">
        <ele>1350.6</ele>
        <time>2022-05-24 18:42:51</time>
      </trkpt>
      <trkpt lat="40.80631" lon="0.34578">
        <ele>1349.6</ele>
        <time>2022-05-24 18:42:52</time>
      </trkpt>
      <trkpt lat="40.80638" lon="0.3458">
        <ele>1348.6</ele>
        <time>2022-05-24 18:42:53</time>
      </trkpt>
      <trkpt lat="40.80646" lon="0.34578">
        <ele>1347.6</ele>
        <time>2022-05-24 18:42:54</time>
      </trkpt>
      <trkpt lat="40.80654" lon="0.34575">
        <ele>1346.8</ele>
        <time>2022-05-24 18:42:55</time>
      </trkpt>
      <trkpt lat="40.80662" lon="0.34572">
        <ele>1346</ele>
        <time>2022-05-24 18:42:56</time>
      </trkpt>
      <trkpt lat="40.8067" lon="0.34567">
        <ele>1345.2</ele>
        <time>2022-05-24 18:42:57</time>
      </trkpt>
      <trkpt lat="40.80677" lon="0.34563">
        <ele>1344.6</ele>
        <time>2022-05-24 18:42:58</time>
      </trkpt>
      <trkpt lat="40.80684" lon="0.34557">
        <ele>1343.8</ele>
        <time>2022-05-24 18:42:59</time>
      </trkpt>
      <trkpt lat="40.8069" lon="0.3455">
        <ele>1343.4</ele>
        <time>2022-05-24 18:43:00</time>
      </trkpt>
      <trkpt lat="40.80695" lon="0.34542">
        <ele>1343</ele>
        <time>2022-05-24 18:43:01</time>
      </trkpt>
      <trkpt lat="40.807" lon="0.34536">
        <ele>1342.6</ele>
        <time>2022-05-24 18:43:02</time>
      </trkpt>
      <trkpt lat="40.80706" lon="0.34531">
        <ele>1342.4</ele>
        <time>2022-05-24 18:43:03</time>
      </trkpt>
      <trkpt lat="40.80711" lon="0.34528">
        <ele>1342.2</ele>
        <time>2022-05-24 18:43:04</time>
      </trkpt>
      <trkpt lat="40.80718" lon="0.34528">
        <ele>1341.8</ele>
        <time>2022-05-24 18:43:05</time>
      </trkpt>
      <trkpt lat="40.80725" lon="0.34529">
        <ele>1341.4</ele>
        <time>2022-05-24 18:43:06</time>
      </trkpt>
      <trkpt lat="40.80732" lon="0.34531">
        <ele>1341.2</ele>
        <time>2022-05-24 18:43:07</time>
      </trkpt>
      <trkpt lat="40.80738" lon="0.34534">
        <ele>1340.6</ele>
        <time>2022-05-24 18:43:08</time>
      </trkpt>
      <trkpt lat="40.80745" lon="0.34536">
        <ele>1340.2</ele>
        <time>2022-05-24 18:43:09</time>
      </trkpt>
      <trkpt lat="40.8075" lon="0.34539">
        <ele>1339.8</ele>
        <time>2022-05-24 18:43:10</time>
      </trkpt>
      <trkpt lat="40.80754" lon="0.34542">
        <ele>1339.4</ele>
        <time>2022-05-24 18:43:11</time>
      </trkpt>
      <trkpt lat="40.80756" lon="0.34548">
        <ele>1338.8</ele>
        <time>2022-05-24 18:43:12</time>
      </trkpt>
      <trkpt lat="40.80755" lon="0.34554">
        <ele>1338.2</ele>
        <time>2022-05-24 18:43:13</time>
      </trkpt>
      <trkpt lat="40.80753" lon="0.3456">
        <ele>1337.6</ele>
        <time>2022-05-24 18:43:14</time>
      </trkpt>
      <trkpt lat="40.80749" lon="0.34565">
        <ele>1337</ele>
        <time>2022-05-24 18:43:15</time>
      </trkpt>
      <trkpt lat="40.80743" lon="0.34569">
        <ele>1336.2</ele>
        <time>2022-05-24 18:43:16</time>
      </trkpt>
      <trkpt lat="40.80738" lon="0.34573">
        <ele>1335.4</ele>
        <time>2022-05-24 18:43:17</time>
      </trkpt>
      <trkpt lat="40.80732" lon="0.34578">
        <ele>1334.6</ele>
        <time>2022-05-24 18:43:18</time>
      </trkpt>
      <trkpt lat="40.80725" lon="0.34584">
        <ele>1333.8</ele>
        <time>2022-05-24 18:43:19</time>
      </trkpt>
      <trkpt lat="40.80719" lon="0.3459">
        <ele>1333</ele>
        <time>2022-05-24 18:43:20</time>
      </trkpt>
      <trkpt lat="40.80714" lon="0.34597">
        <ele>1332.2</ele>
        <time>2022-05-24 18:43:21</time>
      </trkpt>
      <trkpt lat="40.8071" lon="0.34605">
        <ele>1331.6</ele>
        <time>2022-05-24 18:43:22</time>
      </trkpt>
      <trkpt lat="40.80706" lon="0.34613">
        <ele>1331</ele>
        <time>2022-05-24 18:43:23</time>
      </trkpt>
      <trkpt lat="40.80703" lon="0.34621">
        <ele>1330.4</ele>
        <time>2022-05-24 18:43:24</time>
      </trkpt>
      <trkpt lat="40.80699" lon="0.34628">
        <ele>1329.8</ele>
        <time>2022-05-24 18:43:25</time>
      </trkpt>
      <trkpt lat="40.80694" lon="0.34634">
        <ele>1329.2</ele>
        <time>2022-05-24 18:43:26</time>
      </trkpt>
      <trkpt lat="40.80688" lon="0.34637">
        <ele>1328.6</ele>
        <time>2022-05-24 18:43:27</time>
      </trkpt>
      <trkpt lat="40.80682" lon="0.34637">
        <ele>1328</ele>
        <time>2022-05-24 18:43:28</time>
      </trkpt>
      <trkpt lat="40.80675" lon="0.34637">
        <ele>1327.4</ele>
        <time>2022-05-24 18:43:29</time>
      </trkpt>
      <trkpt lat="40.80667" lon="0.34636">
        <ele>1326.8</ele>
        <time>2022-05-24 18:43:30</time>
      </trkpt>
      <trkpt lat="40.8066" lon="0.34636">
        <ele>1326.2</ele>
        <time>2022-05-24 18:43:31</time>
      </trkpt>
      <trkpt lat="40.80651" lon="0.34635">
        <ele>1325.4</ele>
        <time>2022-05-24 18:43:32</time>
      </trkpt>
      <trkpt lat="40.80644" lon="0.34635">
        <ele>1324.8</ele>
        <time>2022-05-24 18:43:33</time>
      </trkpt>
      <trkpt lat="40.80635" lon="0.34636">
        <ele>1324</ele>
        <time>2022-05-24 18:43:34</time>
      </trkpt>
      <trkpt lat="40.80628" lon="0.34636">
        <ele>1323</ele>
        <time>2022-05-24 18:43:35</time>
      </trkpt>
      <trkpt lat="40.80622" lon="0.34637">
        <ele>1322.4</ele>
        <time>2022-05-24 18:43:36</time>
      </trkpt>
      <trkpt lat="40.80616" lon="0.34639">
        <ele>1321.6</ele>
        <time>2022-05-24 18:43:37</time>
      </trkpt>
      <trkpt lat="40.80612" lon="0.34642">
        <ele>1320.8</ele>
        <time>2022-05-24 18:43:38</time>
      </trkpt>
      <trkpt lat="40.8061" lon="0.34646">
        <ele>1320</ele>
        <time>2022-05-24 18:43:39</time>
      </trkpt>
      <trkpt lat="40.8061" lon="0.34652">
        <ele>1319.2</ele>
        <time>2022-05-24 18:43:40</time>
      </trkpt>
      <trkpt lat="40.80611" lon="0.34657">
        <ele>1318.4</ele>
        <time>2022-05-24 18:43:41</time>
      </trkpt>
      <trkpt lat="40.80615" lon="0.34661">
        <ele>1317.6</ele>
        <time>2022-05-24 18:43:42</time>
      </trkpt>
      <trkpt lat="40.80621" lon="0.34664">
        <ele>1316.6</ele>
        <time>2022-05-24 18:43:43</time>
      </trkpt>
      <trkpt lat="40.80627" lon="0.34666">
        <ele>1315.6</ele>
        <time>2022-05-24 18:43:44</time>
      </trkpt>
      <trkpt lat="40.80634" lon="0.34668">
        <ele>1314.6</ele>
        <time>2022-05-24 18:43:45</time>
      </trkpt>
      <trkpt lat="40.80641" lon="0.34671">
        <ele>1313.8</ele>
        <time>2022-05-24 18:43:46</time>
      </trkpt>
      <trkpt lat="40.80648" lon="0.34674">
        <ele>1313</ele>
        <time>2022-05-24 18:43:47</time>
      </trkpt>
      <trkpt lat="40.80656" lon="0.34679">
        <ele>1312</ele>
        <time>2022-05-24 18:43:48</time>
      </trkpt>
      <trkpt lat="40.80665" lon="0.34684">
        <ele>1311.2</ele>
        <time>2022-05-24 18:43:49</time>
      </trkpt>
      <trkpt lat="40.80673" lon="0.34688">
        <ele>1310.4</ele>
        <time>2022-05-24 18:43:50</time>
      </trkpt>
      <trkpt lat="40.80681" lon="0.34692">
        <ele>1309.4</ele>
        <time>2022-05-24 18:43:51</time>
      </trkpt>
      <trkpt lat="40.80688" lon="0.34696">
        <ele>1308.4</ele>
        <time>2022-05-24 18:43:52</time>
      </trkpt>
      <trkpt lat="40.80696" lon="0.34702">
        <ele>1307.4</ele>
        <time>2022-05-24 18:43:53</time>
      </trkpt>
      <trkpt lat="40.80704" lon="0.34708">
        <ele>1306.4</ele>
        <time>2022-05-24 18:43:54</time>
      </trkpt>
      <trkpt lat="40.80711" lon="0.34716">
        <ele>1305.2</ele>
        <time>2022-05-24 18:43:55</time>
      </trkpt>
      <trkpt lat="40.80719" lon="0.34723">
        <ele>1304.2</ele>
        <time>2022-05-24 18:43:56</time>
      </trkpt>
      <trkpt lat="40.80728" lon="0.3473">
        <ele>1303.6</ele>
        <time>2022-05-24 18:43:57</time>
      </trkpt>
      <trkpt lat="40.80735" lon="0.34739">
        <ele>1303</ele>
        <time>2022-05-24 18:43:58</time>
      </trkpt>
      <trkpt lat="40.8074" lon="0.34748">
        <ele>1302.4</ele>
        <time>2022-05-24 18:43:59</time>
      </trkpt>
      <trkpt lat="40.80744" lon="0.34757">
        <ele>1302</ele>
        <time>2022-05-24 18:44:00</time>
      </trkpt>
      <trkpt lat="40.80747" lon="0.34766">
        <ele>1301.6</ele>
        <time>2022-05-24 18:44:01</time>
      </trkpt>
      <trkpt lat="40.80748" lon="0.34775">
        <ele>1301.4</ele>
        <time>2022-05-24 18:44:02</time>
      </trkpt>
      <trkpt lat="40.8075" lon="0.34784">
        <ele>1301</ele>
        <time>2022-05-24 18:44:03</time>
      </trkpt>
      <trkpt lat="40.80753" lon="0.34793">
        <ele>1300.6</ele>
        <time>2022-05-24 18:44:04</time>
      </trkpt>
      <trkpt lat="40.80755" lon="0.34801">
        <ele>1300</ele>
        <time>2022-05-24 18:44:05</time>
      </trkpt>
      <trkpt lat="40.80759" lon="0.34809">
        <ele>1299.2</ele>
        <time>2022-05-24 18:44:06</time>
      </trkpt>
      <trkpt lat="40.80763" lon="0.34817">
        <ele>1298.6</ele>
        <time>2022-05-24 18:44:07</time>
      </trkpt>
      <trkpt lat="40.80768" lon="0.34823">
        <ele>1297.6</ele>
        <time>2022-05-24 18:44:08</time>
      </trkpt>
      <trkpt lat="40.80774" lon="0.3483">
        <ele>1296.8</ele>
        <time>2022-05-24 18:44:09</time>
      </trkpt>
      <trkpt lat="40.80779" lon="0.34837">
        <ele>1295.8</ele>
        <time>2022-05-24 18:44:10</time>
      </trkpt>
      <trkpt lat="40.80786" lon="0.34844">
        <ele>1294.6</ele>
        <time>2022-05-24 18:44:11</time>
      </trkpt>
      <trkpt lat="40.80793" lon="0.34851">
        <ele>1293.4</ele>
        <time>2022-05-24 18:44:12</time>
      </trkpt>
      <trkpt lat="40.80801" lon="0.34857">
        <ele>1292.4</ele>
        <time>2022-05-24 18:44:13</time>
      </trkpt>
      <trkpt lat="40.80809" lon="0.34864">
        <ele>1291.2</ele>
        <time>2022-05-24 18:44:14</time>
      </trkpt>
      <trkpt lat="40.80817" lon="0.34867">
        <ele>1290.2</ele>
        <time>2022-05-24 18:44:15</time>
      </trkpt>
      <trkpt lat="40.80826" lon="0.34872">
        <ele>1289</ele>
        <time>2022-05-24 18:44:16</time>
      </trkpt>
      <trkpt lat="40.80836" lon="0.34877">
        <ele>1288</ele>
        <time>2022-05-24 18:44:17</time>
      </trkpt>
      <trkpt lat="40.80846" lon="0.34881">
        <ele>1286.8</ele>
        <time>2022-05-24 18:44:18</time>
      </trkpt>
      <trkpt lat="40.80857" lon="0.34886">
        <ele>1285.6</ele>
        <time>2022-05-24 18:44:19</time>
      </trkpt>
      <trkpt lat="40.80867" lon="0.34891">
        <ele>1284.6</ele>
        <time>2022-05-24 18:44:20</time>
      </trkpt>
      <trkpt lat="40.80877" lon="0.34894">
        <ele>1283.6</ele>
        <time>2022-05-24 18:44:21</time>
      </trkpt>
      <trkpt lat="40.80885" lon="0.34895">
        <ele>1282.8</ele>
        <time>2022-05-24 18:44:22</time>
      </trkpt>
      <trkpt lat="40.80894" lon="0.34897">
        <ele>1282.2</ele>
        <time>2022-05-24 18:44:23</time>
      </trkpt>
      <trkpt lat="40.80903" lon="0.34898">
        <ele>1281.8</ele>
        <time>2022-05-24 18:44:24</time>
      </trkpt>
      <trkpt lat="40.80912" lon="0.34898">
        <ele>1281.2</ele>
        <time>2022-05-24 18:44:25</time>
      </trkpt>
      <trkpt lat="40.80921" lon="0.34896">
        <ele>1280.8</ele>
        <time>2022-05-24 18:44:26</time>
      </trkpt>
      <trkpt lat="40.8093" lon="0.34895">
        <ele>1280.4</ele>
        <time>2022-05-24 18:44:27</time>
      </trkpt>
      <trkpt lat="40.80938" lon="0.34894">
        <ele>1279.8</ele>
        <time>2022-05-24 18:44:28</time>
      </trkpt>
      <trkpt lat="40.80946" lon="0.34892">
        <ele>1279.4</ele>
        <time>2022-05-24 18:44:29</time>
      </trkpt>
      <trkpt lat="40.80955" lon="0.34891">
        <ele>1278.8</ele>
        <time>2022-05-24 18:44:30</time>
      </trkpt>
      <trkpt lat="40.80964" lon="0.34888">
        <ele>1278.2</ele>
        <time>2022-05-24 18:44:31</time>
      </trkpt>
      <trkpt lat="40.80972" lon="0.34885">
        <ele>1277.4</ele>
        <time>2022-05-24 18:44:32</time>
      </trkpt>
      <trkpt lat="40.8098" lon="0.34881">
        <ele>1276.6</ele>
        <time>2022-05-24 18:44:33</time>
      </trkpt>
      <trkpt lat="40.80988" lon="0.34878">
        <ele>1276</ele>
        <time>2022-05-24 18:44:34</time>
      </trkpt>
      <trkpt lat="40.80996" lon="0.34875">
        <ele>1275.4</ele>
        <time>2022-05-24 18:44:35</time>
      </trkpt>
      <trkpt lat="40.81002" lon="0.34872">
        <ele>1274.8</ele>
        <time>2022-05-24 18:44:36</time>
      </trkpt>
      <trkpt lat="40.81009" lon="0.34869">
        <ele>1274.2</ele>
        <time>2022-05-24 18:44:37</time>
      </trkpt>
      <trkpt lat="40.81014" lon="0.34866">
        <ele>1273.8</ele>
        <time>2022-05-24 18:44:38</time>
      </trkpt>
      <trkpt lat="40.81018" lon="0.34863">
        <ele>1273.4</ele>
        <time>2022-05-24 18:44:39</time>
      </trkpt>
      <trkpt lat="40.81022" lon="0.34859">
        <ele>1273</ele>
        <time>2022-05-24 18:44:40</time>
      </trkpt>
      <trkpt lat="40.81022" lon="0.34854">
        <ele>1272.6</ele>
        <time>2022-05-24 18:44:41</time>
      </trkpt>
      <trkpt lat="40.81021" lon="0.3485">
        <ele>1272.4</ele>
        <time>2022-05-24 18:44:42</time>
      </trkpt>
      <trkpt lat="40.81017" lon="0.34848">
        <ele>1272</ele>
        <time>2022-05-24 18:44:43</time>
      </trkpt>
      <trkpt lat="40.81013" lon="0.34848">
        <ele>1271.4</ele>
        <time>2022-05-24 18:44:44</time>
      </trkpt>
      <trkpt lat="40.81007" lon="0.34851">
        <ele>1270.8</ele>
        <time>2022-05-24 18:44:45</time>
      </trkpt>
      <trkpt lat="40.81002" lon="0.34853">
        <ele>1270</ele>
        <time>2022-05-24 18:44:46</time>
      </trkpt>
      <trkpt lat="40.80994" lon="0.34856">
        <ele>1269.2</ele>
        <time>2022-05-24 18:44:47</time>
      </trkpt>
      <trkpt lat="40.80989" lon="0.34857">
        <ele>1268.2</ele>
        <time>2022-05-24 18:44:48</time>
      </trkpt>
      <trkpt lat="40.80979" lon="0.34859">
        <ele>1267.2</ele>
        <time>2022-05-24 18:44:49</time>
      </trkpt>
      <trkpt lat="40.8097" lon="0.34859">
        <ele>1266</ele>
        <time>2022-05-24 18:44:50</time>
      </trkpt>
      <trkpt lat="40.80961" lon="0.34859">
        <ele>1264.8</ele>
        <time>2022-05-24 18:44:51</time>
      </trkpt>
      <trkpt lat="40.80951" lon="0.34859">
        <ele>1263.8</ele>
        <time>2022-05-24 18:44:52</time>
      </trkpt>
      <trkpt lat="40.8094" lon="0.34858">
        <ele>1262.6</ele>
        <time>2022-05-24 18:44:53</time>
      </trkpt>
      <trkpt lat="40.8093" lon="0.34856">
        <ele>1261.4</ele>
        <time>2022-05-24 18:44:54</time>
      </trkpt>
      <trkpt lat="40.8092" lon="0.34854">
        <ele>1260.4</ele>
        <time>2022-05-24 18:44:55</time>
      </trkpt>
      <trkpt lat="40.80912" lon="0.34851">
        <ele>1259.6</ele>
        <time>2022-05-24 18:44:56</time>
      </trkpt>
      <trkpt lat="40.80904" lon="0.34848">
        <ele>1258.6</ele>
        <time>2022-05-24 18:44:57</time>
      </trkpt>
      <trkpt lat="40.80897" lon="0.34845">
        <ele>1258</ele>
        <time>2022-05-24 18:44:58</time>
      </trkpt>
      <trkpt lat="40.8089" lon="0.3484">
        <ele>1257.2</ele>
        <time>2022-05-24 18:44:59</time>
      </trkpt>
      <trkpt lat="40.80885" lon="0.34835">
        <ele>1256.6</ele>
        <time>2022-05-24 18:45:00</time>
      </trkpt>
      <trkpt lat="40.8088" lon="0.3483">
        <ele>1255.8</ele>
        <time>2022-05-24 18:45:01</time>
      </trkpt>
      <trkpt lat="40.80876" lon="0.34824">
        <ele>1255</ele>
        <time>2022-05-24 18:45:02</time>
      </trkpt>
      <trkpt lat="40.80873" lon="0.34819">
        <ele>1254.2</ele>
        <time>2022-05-24 18:45:03</time>
      </trkpt>
      <trkpt lat="40.80869" lon="0.34813">
        <ele>1253.4</ele>
        <time>2022-05-24 18:45:04</time>
      </trkpt>
      <trkpt lat="40.80867" lon="0.34806">
        <ele>1252.6</ele>
        <time>2022-05-24 18:45:05</time>
      </trkpt>
      <trkpt lat="40.80866" lon="0.34799">
        <ele>1252</ele>
        <time>2022-05-24 18:45:06</time>
      </trkpt>
      <trkpt lat="40.80867" lon="0.34793">
        <ele>1251.2</ele>
        <time>2022-05-24 18:45:07</time>
      </trkpt>
      <trkpt lat="40.80868" lon="0.34788">
        <ele>1250.6</ele>
        <time>2022-05-24 18:45:08</time>
      </trkpt>
      <trkpt lat="40.80872" lon="0.34785">
        <ele>1249.8</ele>
        <time>2022-05-24 18:45:09</time>
      </trkpt>
      <trkpt lat="40.80876" lon="0.34785">
        <ele>1249.2</ele>
        <time>2022-05-24 18:45:10</time>
      </trkpt>
      <trkpt lat="40.8088" lon="0.34788">
        <ele>1248.4</ele>
        <time>2022-05-24 18:45:11</time>
      </trkpt>
      <trkpt lat="40.80882" lon="0.34793">
        <ele>1247.6</ele>
        <time>2022-05-24 18:45:12</time>
      </trkpt>
      <trkpt lat="40.80885" lon="0.34799">
        <ele>1246.8</ele>
        <time>2022-05-24 18:45:13</time>
      </trkpt>
      <trkpt lat="40.80887" lon="0.34804">
        <ele>1246</ele>
        <time>2022-05-24 18:45:14</time>
      </trkpt>
      <trkpt lat="40.80893" lon="0.34809">
        <ele>1245.2</ele>
        <time>2022-05-24 18:45:15</time>
      </trkpt>
      <trkpt lat="40.80898" lon="0.34813">
        <ele>1244.2</ele>
        <time>2022-05-24 18:45:16</time>
      </trkpt>
      <trkpt lat="40.80906" lon="0.34814">
        <ele>1243.2</ele>
        <time>2022-05-24 18:45:17</time>
      </trkpt>
      <trkpt lat="40.80914" lon="0.34815">
        <ele>1242.4</ele>
        <time>2022-05-24 18:45:18</time>
      </trkpt>
      <trkpt lat="40.80922" lon="0.34815">
        <ele>1241.4</ele>
        <time>2022-05-24 18:45:19</time>
      </trkpt>
      <trkpt lat="40.8093" lon="0.34814">
        <ele>1240.4</ele>
        <time>2022-05-24 18:45:20</time>
      </trkpt>
      <trkpt lat="40.80939" lon="0.34812">
        <ele>1239.4</ele>
        <time>2022-05-24 18:45:21</time>
      </trkpt>
      <trkpt lat="40.80948" lon="0.3481">
        <ele>1238.4</ele>
        <time>2022-05-24 18:45:22</time>
      </trkpt>
      <trkpt lat="40.80957" lon="0.34808">
        <ele>1237.2</ele>
        <time>2022-05-24 18:45:23</time>
      </trkpt>
      <trkpt lat="40.80965" lon="0.34805">
        <ele>1236</ele>
        <time>2022-05-24 18:45:24</time>
      </trkpt>
      <trkpt lat="40.80974" lon="0.34803">
        <ele>1234.8</ele>
        <time>2022-05-24 18:45:25</time>
      </trkpt>
      <trkpt lat="40.80983" lon="0.34801">
        <ele>1233.2</ele>
        <time>2022-05-24 18:45:26</time>
      </trkpt>
      <trkpt lat="40.80992" lon="0.34799">
        <ele>1231.6</ele>
        <time>2022-05-24 18:45:27</time>
      </trkpt>
      <trkpt lat="40.81001" lon="0.34798">
        <ele>1230</ele>
        <time>2022-05-24 18:45:28</time>
      </trkpt>
      <trkpt lat="40.81011" lon="0.34796">
        <ele>1228.2</ele>
        <time>2022-05-24 18:45:29</time>
      </trkpt>
      <trkpt lat="40.81023" lon="0.34796">
        <ele>1226.6</ele>
        <time>2022-05-24 18:45:30</time>
      </trkpt>
      <trkpt lat="40.81034" lon="0.34796">
        <ele>1225</ele>
        <time>2022-05-24 18:45:31</time>
      </trkpt>
      <trkpt lat="40.81044" lon="0.34794">
        <ele>1223.4</ele>
        <time>2022-05-24 18:45:32</time>
      </trkpt>
      <trkpt lat="40.81054" lon="0.34793">
        <ele>1222</ele>
        <time>2022-05-24 18:45:33</time>
      </trkpt>
      <trkpt lat="40.81063" lon="0.34792">
        <ele>1221</ele>
        <time>2022-05-24 18:45:34</time>
      </trkpt>
      <trkpt lat="40.81075" lon="0.34792">
        <ele>1219.4</ele>
        <time>2022-05-24 18:45:35</time>
      </trkpt>
      <trkpt lat="40.81086" lon="0.34792">
        <ele>1218.2</ele>
        <time>2022-05-24 18:45:36</time>
      </trkpt>
      <trkpt lat="40.81096" lon="0.34794">
        <ele>1217.2</ele>
        <time>2022-05-24 18:45:37</time>
      </trkpt>
      <trkpt lat="40.81106" lon="0.34796">
        <ele>1216.2</ele>
        <time>2022-05-24 18:45:38</time>
      </trkpt>
      <trkpt lat="40.81113" lon="0.348">
        <ele>1215.2</ele>
        <time>2022-05-24 18:45:39</time>
      </trkpt>
      <trkpt lat="40.81121" lon="0.34805">
        <ele>1214.4</ele>
        <time>2022-05-24 18:45:40</time>
      </trkpt>
      <trkpt lat="40.81127" lon="0.34813">
        <ele>1213.6</ele>
        <time>2022-05-24 18:45:41</time>
      </trkpt>
      <trkpt lat="40.81133" lon="0.34821">
        <ele>1212.8</ele>
        <time>2022-05-24 18:45:42</time>
      </trkpt>
      <trkpt lat="40.81137" lon="0.34831">
        <ele>1212</ele>
        <time>2022-05-24 18:45:43</time>
      </trkpt>
      <trkpt lat="40.8114" lon="0.34841">
        <ele>1211.2</ele>
        <time>2022-05-24 18:45:44</time>
      </trkpt>
      <trkpt lat="40.81143" lon="0.34852">
        <ele>1210.2</ele>
        <time>2022-05-24 18:45:45</time>
      </trkpt>
      <trkpt lat="40.81145" lon="0.34862">
        <ele>1209.4</ele>
        <time>2022-05-24 18:45:46</time>
      </trkpt>
      <trkpt lat="40.81147" lon="0.34872">
        <ele>1208.6</ele>
        <time>2022-05-24 18:45:47</time>
      </trkpt>
      <trkpt lat="40.81149" lon="0.3488">
        <ele>1207.8</ele>
        <time>2022-05-24 18:45:48</time>
      </trkpt>
      <trkpt lat="40.8115" lon="0.34888">
        <ele>1207</ele>
        <time>2022-05-24 18:45:49</time>
      </trkpt>
      <trkpt lat="40.81151" lon="0.34893">
        <ele>1206.2</ele>
        <time>2022-05-24 18:45:50</time>
      </trkpt>
      <trkpt lat="40.81153" lon="0.349">
        <ele>1205.6</ele>
        <time>2022-05-24 18:45:51</time>
      </trkpt>
      <trkpt lat="40.81154" lon="0.34904">
        <ele>1205</ele>
        <time>2022-05-24 18:45:52</time>
      </trkpt>
      <trkpt lat="40.81157" lon="0.34906">
        <ele>1204.2</ele>
        <time>2022-05-24 18:45:53</time>
      </trkpt>
      <trkpt lat="40.8116" lon="0.34905">
        <ele>1203.4</ele>
        <time>2022-05-24 18:45:54</time>
      </trkpt>
      <trkpt lat="40.81162" lon="0.34901">
        <ele>1202.6</ele>
        <time>2022-05-24 18:45:55</time>
      </trkpt>
      <trkpt lat="40.81162" lon="0.34895">
        <ele>1201.8</ele>
        <time>2022-05-24 18:45:56</time>
      </trkpt>
      <trkpt lat="40.81162" lon="0.34888">
        <ele>1201</ele>
        <time>2022-05-24 18:45:57</time>
      </trkpt>
      <trkpt lat="40.8116" lon="0.34879">
        <ele>1199.8</ele>
        <time>2022-05-24 18:45:58</time>
      </trkpt>
      <trkpt lat="40.81159" lon="0.34871">
        <ele>1198.6</ele>
        <time>2022-05-24 18:45:59</time>
      </trkpt>
      <trkpt lat="40.81157" lon="0.34861">
        <ele>1197.4</ele>
        <time>2022-05-24 18:46:00</time>
      </trkpt>
      <trkpt lat="40.81156" lon="0.34851">
        <ele>1196.2</ele>
        <time>2022-05-24 18:46:01</time>
      </trkpt>
      <trkpt lat="40.81154" lon="0.3484">
        <ele>1195</ele>
        <time>2022-05-24 18:46:02</time>
      </trkpt>
      <trkpt lat="40.81152" lon="0.34829">
        <ele>1194</ele>
        <time>2022-05-24 18:46:03</time>
      </trkpt>
      <trkpt lat="40.8115" lon="0.34817">
        <ele>1193</ele>
        <time>2022-05-24 18:46:04</time>
      </trkpt>
      <trkpt lat="40.81148" lon="0.34806">
        <ele>1192.2</ele>
        <time>2022-05-24 18:46:05</time>
      </trkpt>
      <trkpt lat="40.81145" lon="0.34796">
        <ele>1191.2</ele>
        <time>2022-05-24 18:46:06</time>
      </trkpt>
      <trkpt lat="40.81141" lon="0.34788">
        <ele>1190.4</ele>
        <time>2022-05-24 18:46:07</time>
      </trkpt>
      <trkpt lat="40.81136" lon="0.3478">
        <ele>1189.6</ele>
        <time>2022-05-24 18:46:08</time>
      </trkpt>
      <trkpt lat="40.81129" lon="0.34773">
        <ele>1188.8</ele>
        <time>2022-05-24 18:46:09</time>
      </trkpt>
      <trkpt lat="40.81123" lon="0.34767">
        <ele>1188</ele>
        <time>2022-05-24 18:46:10</time>
      </trkpt>
      <trkpt lat="40.81116" lon="0.34761">
        <ele>1187.2</ele>
        <time>2022-05-24 18:46:11</time>
      </trkpt>
      <trkpt lat="40.81108" lon="0.34756">
        <ele>1186.4</ele>
        <time>2022-05-24 18:46:12</time>
      </trkpt>
      <trkpt lat="40.81099" lon="0.3475">
        <ele>1185.4</ele>
        <time>2022-05-24 18:46:13</time>
      </trkpt>
      <trkpt lat="40.81091" lon="0.34745">
        <ele>1184.6</ele>
        <time>2022-05-24 18:46:14</time>
      </trkpt>
      <trkpt lat="40.81083" lon="0.3474">
        <ele>1184</ele>
        <time>2022-05-24 18:46:15</time>
      </trkpt>
      <trkpt lat="40.81074" lon="0.34736">
        <ele>1183.4</ele>
        <time>2022-05-24 18:46:16</time>
      </trkpt>
      <trkpt lat="40.81066" lon="0.34733">
        <ele>1183</ele>
        <time>2022-05-24 18:46:17</time>
      </trkpt>
      <trkpt lat="40.81058" lon="0.3473">
        <ele>1182.4</ele>
        <time>2022-05-24 18:46:18</time>
      </trkpt>
      <trkpt lat="40.81051" lon="0.34728">
        <ele>1182</ele>
        <time>2022-05-24 18:46:19</time>
      </trkpt>
      <trkpt lat="40.81045" lon="0.34726">
        <ele>1181.4</ele>
        <time>2022-05-24 18:46:20</time>
      </trkpt>
      <trkpt lat="40.8104" lon="0.34722">
        <ele>1180.8</ele>
        <time>2022-05-24 18:46:21</time>
      </trkpt>
      <trkpt lat="40.81037" lon="0.34718">
        <ele>1180.2</ele>
        <time>2022-05-24 18:46:22</time>
      </trkpt>
      <trkpt lat="40.81036" lon="0.34712">
        <ele>1179.4</ele>
        <time>2022-05-24 18:46:23</time>
      </trkpt>
      <trkpt lat="40.81042" lon="0.34708">
        <ele>1178.4</ele>
        <time>2022-05-24 18:46:24</time>
      </trkpt>
      <trkpt lat="40.81047" lon="0.34705">
        <ele>1177.4</ele>
        <time>2022-05-24 18:46:25</time>
      </trkpt>
      <trkpt lat="40.81052" lon="0.34704">
        <ele>1176.2</ele>
        <time>2022-05-24 18:46:26</time>
      </trkpt>
      <trkpt lat="40.81058" lon="0.34704">
        <ele>1175</ele>
        <time>2022-05-24 18:46:27</time>
      </trkpt>
      <trkpt lat="40.81064" lon="0.34705">
        <ele>1173.8</ele>
        <time>2022-05-24 18:46:28</time>
      </trkpt>
      <trkpt lat="40.8107" lon="0.34706">
        <ele>1172.6</ele>
        <time>2022-05-24 18:46:29</time>
      </trkpt>
      <trkpt lat="40.81076" lon="0.34708">
        <ele>1171.4</ele>
        <time>2022-05-24 18:46:30</time>
      </trkpt>
      <trkpt lat="40.81084" lon="0.34711">
        <ele>1170</ele>
        <time>2022-05-24 18:46:31</time>
      </trkpt>
      <trkpt lat="40.81095" lon="0.34715">
        <ele>1168.8</ele>
        <time>2022-05-24 18:46:32</time>
      </trkpt>
      <trkpt lat="40.81105" lon="0.34719">
        <ele>1167.6</ele>
        <time>2022-05-24 18:46:33</time>
      </trkpt>
      <trkpt lat="40.81117" lon="0.34724">
        <ele>1166.4</ele>
        <time>2022-05-24 18:46:34</time>
      </trkpt>
      <trkpt lat="40.81128" lon="0.3473">
        <ele>1165.4</ele>
        <time>2022-05-24 18:46:35</time>
      </trkpt>
      <trkpt lat="40.81137" lon="0.34734">
        <ele>1164.4</ele>
        <time>2022-05-24 18:46:36</time>
      </trkpt>
      <trkpt lat="40.81145" lon="0.34737">
        <ele>1163.6</ele>
        <time>2022-05-24 18:46:37</time>
      </trkpt>
      <trkpt lat="40.81152" lon="0.3474">
        <ele>1162.8</ele>
        <time>2022-05-24 18:46:38</time>
      </trkpt>
      <trkpt lat="40.81158" lon="0.34744">
        <ele>1162</ele>
        <time>2022-05-24 18:46:39</time>
      </trkpt>
      <trkpt lat="40.81165" lon="0.34749">
        <ele>1161.2</ele>
        <time>2022-05-24 18:46:40</time>
      </trkpt>
      <trkpt lat="40.8117" lon="0.34755">
        <ele>1160.6</ele>
        <time>2022-05-24 18:46:41</time>
      </trkpt>
      <trkpt lat="40.81175" lon="0.34763">
        <ele>1159.8</ele>
        <time>2022-05-24 18:46:42</time>
      </trkpt>
      <trkpt lat="40.81179" lon="0.34772">
        <ele>1159.2</ele>
        <time>2022-05-24 18:46:43</time>
      </trkpt>
      <trkpt lat="40.81184" lon="0.3478">
        <ele>1158.4</ele>
        <time>2022-05-24 18:46:44</time>
      </trkpt>
      <trkpt lat="40.81188" lon="0.34788">
        <ele>1158</ele>
        <time>2022-05-24 18:46:45</time>
      </trkpt>
      <trkpt lat="40.81192" lon="0.34795">
        <ele>1157.4</ele>
        <time>2022-05-24 18:46:46</time>
      </trkpt>
      <trkpt lat="40.81195" lon="0.34803">
        <ele>1156.8</ele>
        <time>2022-05-24 18:46:47</time>
      </trkpt>
      <trkpt lat="40.81198" lon="0.34811">
        <ele>1156.2</ele>
        <time>2022-05-24 18:46:48</time>
      </trkpt>
      <trkpt lat="40.81201" lon="0.34819">
        <ele>1155.6</ele>
        <time>2022-05-24 18:46:49</time>
      </trkpt>
      <trkpt lat="40.81203" lon="0.34826">
        <ele>1155</ele>
        <time>2022-05-24 18:46:50</time>
      </trkpt>
      <trkpt lat="40.81205" lon="0.34833">
        <ele>1154.4</ele>
        <time>2022-05-24 18:46:51</time>
      </trkpt>
      <trkpt lat="40.81208" lon="0.3484">
        <ele>1153.6</ele>
        <time>2022-05-24 18:46:52</time>
      </trkpt>
      <trkpt lat="40.81211" lon="0.34848">
        <ele>1152.8</ele>
        <time>2022-05-24 18:46:53</time>
      </trkpt>
      <trkpt lat="40.81213" lon="0.34859">
        <ele>1152</ele>
        <time>2022-05-24 18:46:54</time>
      </trkpt>
      <trkpt lat="40.81215" lon="0.34868">
        <ele>1151.2</ele>
        <time>2022-05-24 18:46:55</time>
      </trkpt>
      <trkpt lat="40.81218" lon="0.34878">
        <ele>1150.2</ele>
        <time>2022-05-24 18:46:56</time>
      </trkpt>
      <trkpt lat="40.81219" lon="0.34886">
        <ele>1149.4</ele>
        <time>2022-05-24 18:46:57</time>
      </trkpt>
      <trkpt lat="40.81223" lon="0.34898">
        <ele>1148.6</ele>
        <time>2022-05-24 18:46:58</time>
      </trkpt>
      <trkpt lat="40.81224" lon="0.34907">
        <ele>1147.8</ele>
        <time>2022-05-24 18:46:59</time>
      </trkpt>
      <trkpt lat="40.81225" lon="0.34917">
        <ele>1147.2</ele>
        <time>2022-05-24 18:47:00</time>
      </trkpt>
      <trkpt lat="40.81225" lon="0.34926">
        <ele>1146.4</ele>
        <time>2022-05-24 18:47:01</time>
      </trkpt>
      <trkpt lat="40.81226" lon="0.34935">
        <ele>1145.8</ele>
        <time>2022-05-24 18:47:02</time>
      </trkpt>
      <trkpt lat="40.81225" lon="0.34943">
        <ele>1145.2</ele>
        <time>2022-05-24 18:47:03</time>
      </trkpt>
      <trkpt lat="40.81223" lon="0.34951">
        <ele>1144.6</ele>
        <time>2022-05-24 18:47:04</time>
      </trkpt>
      <trkpt lat="40.81222" lon="0.34958">
        <ele>1144</ele>
        <time>2022-05-24 18:47:05</time>
      </trkpt>
      <trkpt lat="40.8122" lon="0.34966">
        <ele>1143.4</ele>
        <time>2022-05-24 18:47:06</time>
      </trkpt>
      <trkpt lat="40.81219" lon="0.34974">
        <ele>1142.6</ele>
        <time>2022-05-24 18:47:07</time>
      </trkpt>
      <trkpt lat="40.81217" lon="0.34982">
        <ele>1141.8</ele>
        <time>2022-05-24 18:47:08</time>
      </trkpt>
      <trkpt lat="40.81216" lon="0.34991">
        <ele>1141.2</ele>
        <time>2022-05-24 18:47:09</time>
      </trkpt>
      <trkpt lat="40.81215" lon="0.34999">
        <ele>1140.4</ele>
        <time>2022-05-24 18:47:10</time>
      </trkpt>
      <trkpt lat="40.81214" lon="0.35007">
        <ele>1139.6</ele>
        <time>2022-05-24 18:47:11</time>
      </trkpt>
      <trkpt lat="40.81216" lon="0.35016">
        <ele>1138.8</ele>
        <time>2022-05-24 18:47:12</time>
      </trkpt>
      <trkpt lat="40.81216" lon="0.35025">
        <ele>1138</ele>
        <time>2022-05-24 18:47:13</time>
      </trkpt>
      <trkpt lat="40.81215" lon="0.35035">
        <ele>1137.2</ele>
        <time>2022-05-24 18:47:14</time>
      </trkpt>
      <trkpt lat="40.81214" lon="0.35044">
        <ele>1136.6</ele>
        <time>2022-05-24 18:47:15</time>
      </trkpt>
      <trkpt lat="40.81213" lon="0.35052">
        <ele>1135.8</ele>
        <time>2022-05-24 18:47:16</time>
      </trkpt>
      <trkpt lat="40.81213" lon="0.35059">
        <ele>1135.2</ele>
        <time>2022-05-24 18:47:17</time>
      </trkpt>
      <trkpt lat="40.81213" lon="0.35066">
        <ele>1134.6</ele>
        <time>2022-05-24 18:47:18</time>
      </trkpt>
      <trkpt lat="40.81215" lon="0.3507">
        <ele>1134</ele>
        <time>2022-05-24 18:47:19</time>
      </trkpt>
      <trkpt lat="40.81217" lon="0.35074">
        <ele>1133.4</ele>
        <time>2022-05-24 18:47:20</time>
      </trkpt>
      <trkpt lat="40.81219" lon="0.35073">
        <ele>1132.6</ele>
        <time>2022-05-24 18:47:21</time>
      </trkpt>
      <trkpt lat="40.81222" lon="0.35069">
        <ele>1131.8</ele>
        <time>2022-05-24 18:47:22</time>
      </trkpt>
      <trkpt lat="40.81224" lon="0.35066">
        <ele>1130.8</ele>
        <time>2022-05-24 18:47:23</time>
      </trkpt>
      <trkpt lat="40.81228" lon="0.35059">
        <ele>1129.8</ele>
        <time>2022-05-24 18:47:24</time>
      </trkpt>
      <trkpt lat="40.81231" lon="0.3505">
        <ele>1128.6</ele>
        <time>2022-05-24 18:47:25</time>
      </trkpt>
      <trkpt lat="40.81234" lon="0.35042">
        <ele>1127.6</ele>
        <time>2022-05-24 18:47:26</time>
      </trkpt>
      <trkpt lat="40.81237" lon="0.35033">
        <ele>1126.8</ele>
        <time>2022-05-24 18:47:27</time>
      </trkpt>
      <trkpt lat="40.8124" lon="0.35024">
        <ele>1126</ele>
        <time>2022-05-24 18:47:28</time>
      </trkpt>
      <trkpt lat="40.81242" lon="0.35016">
        <ele>1125.2</ele>
        <time>2022-05-24 18:47:29</time>
      </trkpt>
      <trkpt lat="40.81245" lon="0.35008">
        <ele>1124.4</ele>
        <time>2022-05-24 18:47:30</time>
      </trkpt>
      <trkpt lat="40.81247" lon="0.34999">
        <ele>1123.6</ele>
        <time>2022-05-24 18:47:31</time>
      </trkpt>
      <trkpt lat="40.81249" lon="0.3499">
        <ele>1122.8</ele>
        <time>2022-05-24 18:47:32</time>
      </trkpt>
      <trkpt lat="40.81251" lon="0.34982">
        <ele>1122</ele>
        <time>2022-05-24 18:47:33</time>
      </trkpt>
      <trkpt lat="40.81253" lon="0.34973">
        <ele>1121.4</ele>
        <time>2022-05-24 18:47:34</time>
      </trkpt>
      <trkpt lat="40.81255" lon="0.34965">
        <ele>1120.6</ele>
        <time>2022-05-24 18:47:35</time>
      </trkpt>
      <trkpt lat="40.81256" lon="0.34957">
        <ele>1119.8</ele>
        <time>2022-05-24 18:47:36</time>
      </trkpt>
      <trkpt lat="40.81257" lon="0.34948">
        <ele>1119</ele>
        <time>2022-05-24 18:47:37</time>
      </trkpt>
      <trkpt lat="40.81258" lon="0.34939">
        <ele>1118</ele>
        <time>2022-05-24 18:47:38</time>
      </trkpt>
      <trkpt lat="40.81259" lon="0.3493">
        <ele>1117</ele>
        <time>2022-05-24 18:47:39</time>
      </trkpt>
      <trkpt lat="40.8126" lon="0.3492">
        <ele>1116.2</ele>
        <time>2022-05-24 18:47:40</time>
      </trkpt>
      <trkpt lat="40.81261" lon="0.3491">
        <ele>1115.2</ele>
        <time>2022-05-24 18:47:41</time>
      </trkpt>
      <trkpt lat="40.81263" lon="0.349">
        <ele>1114.4</ele>
        <time>2022-05-24 18:47:42</time>
      </trkpt>
      <trkpt lat="40.81265" lon="0.3489">
        <ele>1113.6</ele>
        <time>2022-05-24 18:47:43</time>
      </trkpt>
      <trkpt lat="40.81269" lon="0.34879">
        <ele>1112.8</ele>
        <time>2022-05-24 18:47:44</time>
      </trkpt>
      <trkpt lat="40.81271" lon="0.3487">
        <ele>1111.8</ele>
        <time>2022-05-24 18:47:45</time>
      </trkpt>
      <trkpt lat="40.81273" lon="0.34861">
        <ele>1111</ele>
        <time>2022-05-24 18:47:46</time>
      </trkpt>
      <trkpt lat="40.81276" lon="0.34853">
        <ele>1110</ele>
        <time>2022-05-24 18:47:47</time>
      </trkpt>
      <trkpt lat="40.81279" lon="0.34847">
        <ele>1109.2</ele>
        <time>2022-05-24 18:47:48</time>
      </trkpt>
      <trkpt lat="40.81283" lon="0.34842">
        <ele>1108.6</ele>
        <time>2022-05-24 18:47:49</time>
      </trkpt>
      <trkpt lat="40.81287" lon="0.34838">
        <ele>1107.8</ele>
        <time>2022-05-24 18:47:50</time>
      </trkpt>
      <trkpt lat="40.81291" lon="0.34837">
        <ele>1107</ele>
        <time>2022-05-24 18:47:51</time>
      </trkpt>
      <trkpt lat="40.81295" lon="0.34838">
        <ele>1106.2</ele>
        <time>2022-05-24 18:47:52</time>
      </trkpt>
      <trkpt lat="40.81299" lon="0.3484">
        <ele>1105.4</ele>
        <time>2022-05-24 18:47:53</time>
      </trkpt>
      <trkpt lat="40.81301" lon="0.34845">
        <ele>1104.4</ele>
        <time>2022-05-24 18:47:54</time>
      </trkpt>
      <trkpt lat="40.81303" lon="0.34851">
        <ele>1103.6</ele>
        <time>2022-05-24 18:47:55</time>
      </trkpt>
      <trkpt lat="40.81303" lon="0.34858">
        <ele>1102.6</ele>
        <time>2022-05-24 18:47:56</time>
      </trkpt>
      <trkpt lat="40.81303" lon="0.34866">
        <ele>1101.6</ele>
        <time>2022-05-24 18:47:57</time>
      </trkpt>
      <trkpt lat="40.81303" lon="0.34875">
        <ele>1100.4</ele>
        <time>2022-05-24 18:47:58</time>
      </trkpt>
      <trkpt lat="40.81303" lon="0.34884">
        <ele>1099.2</ele>
        <time>2022-05-24 18:47:59</time>
      </trkpt>
      <trkpt lat="40.81304" lon="0.34893">
        <ele>1098</ele>
        <time>2022-05-24 18:48:00</time>
      </trkpt>
      <trkpt lat="40.81304" lon="0.34903">
        <ele>1097</ele>
        <time>2022-05-24 18:48:01</time>
      </trkpt>
      <trkpt lat="40.81305" lon="0.34912">
        <ele>1096</ele>
        <time>2022-05-24 18:48:02</time>
      </trkpt>
      <trkpt lat="40.81307" lon="0.3492">
        <ele>1095</ele>
        <time>2022-05-24 18:48:03</time>
      </trkpt>
      <trkpt lat="40.81309" lon="0.34929">
        <ele>1093.8</ele>
        <time>2022-05-24 18:48:04</time>
      </trkpt>
      <trkpt lat="40.81312" lon="0.34938">
        <ele>1092.8</ele>
        <time>2022-05-24 18:48:05</time>
      </trkpt>
      <trkpt lat="40.81315" lon="0.34946">
        <ele>1092</ele>
        <time>2022-05-24 18:48:06</time>
      </trkpt>
      <trkpt lat="40.81319" lon="0.34953">
        <ele>1091</ele>
        <time>2022-05-24 18:48:07</time>
      </trkpt>
      <trkpt lat="40.81322" lon="0.3496">
        <ele>1090.4</ele>
        <time>2022-05-24 18:48:08</time>
      </trkpt>
      <trkpt lat="40.81327" lon="0.34966">
        <ele>1089.6</ele>
        <time>2022-05-24 18:48:09</time>
      </trkpt>
      <trkpt lat="40.81331" lon="0.34972">
        <ele>1088.8</ele>
        <time>2022-05-24 18:48:10</time>
      </trkpt>
      <trkpt lat="40.81336" lon="0.34977">
        <ele>1088</ele>
        <time>2022-05-24 18:48:11</time>
      </trkpt>
      <trkpt lat="40.8134" lon="0.34983">
        <ele>1087.4</ele>
        <time>2022-05-24 18:48:12</time>
      </trkpt>
      <trkpt lat="40.81344" lon="0.34988">
        <ele>1086.6</ele>
        <time>2022-05-24 18:48:13</time>
      </trkpt>
      <trkpt lat="40.81352" lon="0.34993">
        <ele>1086</ele>
        <time>2022-05-24 18:48:14</time>
      </trkpt>
      <trkpt lat="40.81359" lon="0.34998">
        <ele>1085.4</ele>
        <time>2022-05-24 18:48:15</time>
      </trkpt>
      <trkpt lat="40.81365" lon="0.35003">
        <ele>1084.8</ele>
        <time>2022-05-24 18:48:16</time>
      </trkpt>
      <trkpt lat="40.8137" lon="0.35006">
        <ele>1084.2</ele>
        <time>2022-05-24 18:48:17</time>
      </trkpt>
      <trkpt lat="40.81374" lon="0.3501">
        <ele>1083.8</ele>
        <time>2022-05-24 18:48:18</time>
      </trkpt>
      <trkpt lat="40.81377" lon="0.35013">
        <ele>1083.4</ele>
        <time>2022-05-24 18:48:19</time>
      </trkpt>
      <trkpt lat="40.8138" lon="0.35016">
        <ele>1083</ele>
        <time>2022-05-24 18:48:20</time>
      </trkpt>
      <trkpt lat="40.81384" lon="0.35019">
        <ele>1082.6</ele>
        <time>2022-05-24 18:48:21</time>
      </trkpt>
      <trkpt lat="40.81387" lon="0.35022">
        <ele>1082.2</ele>
        <time>2022-05-24 18:48:22</time>
      </trkpt>
      <trkpt lat="40.8139" lon="0.35025">
        <ele>1081.8</ele>
        <time>2022-05-24 18:48:23</time>
      </trkpt>
      <trkpt lat="40.81393" lon="0.35028">
        <ele>1081.6</ele>
        <time>2022-05-24 18:48:24</time>
      </trkpt>
      <trkpt lat="40.81397" lon="0.3503">
        <ele>1081.2</ele>
        <time>2022-05-24 18:48:25</time>
      </trkpt>
      <trkpt lat="40.814" lon="0.35033">
        <ele>1080.8</ele>
        <time>2022-05-24 18:48:26</time>
      </trkpt>
      <trkpt lat="40.81405" lon="0.35036">
        <ele>1080.4</ele>
        <time>2022-05-24 18:48:27</time>
      </trkpt>
      <trkpt lat="40.81409" lon="0.35041">
        <ele>1080</ele>
        <time>2022-05-24 18:48:28</time>
      </trkpt>
      <trkpt lat="40.81414" lon="0.35046">
        <ele>1079.6</ele>
        <time>2022-05-24 18:48:29</time>
      </trkpt>
      <trkpt lat="40.81418" lon="0.35051">
        <ele>1079.2</ele>
        <time>2022-05-24 18:48:30</time>
      </trkpt>
      <trkpt lat="40.81422" lon="0.35057">
        <ele>1078.8</ele>
        <time>2022-05-24 18:48:31</time>
      </trkpt>
      <trkpt lat="40.81425" lon="0.35063">
        <ele>1078.2</ele>
        <time>2022-05-24 18:48:32</time>
      </trkpt>
      <trkpt lat="40.81429" lon="0.35069">
        <ele>1077.8</ele>
        <time>2022-05-24 18:48:33</time>
      </trkpt>
      <trkpt lat="40.81432" lon="0.35075">
        <ele>1077.2</ele>
        <time>2022-05-24 18:48:34</time>
      </trkpt>
      <trkpt lat="40.81437" lon="0.35082">
        <ele>1076.6</ele>
        <time>2022-05-24 18:48:35</time>
      </trkpt>
      <trkpt lat="40.81442" lon="0.3509">
        <ele>1076.2</ele>
        <time>2022-05-24 18:48:36</time>
      </trkpt>
      <trkpt lat="40.81446" lon="0.35098">
        <ele>1075.6</ele>
        <time>2022-05-24 18:48:37</time>
      </trkpt>
      <trkpt lat="40.81451" lon="0.35107">
        <ele>1075.2</ele>
        <time>2022-05-24 18:48:38</time>
      </trkpt>
      <trkpt lat="40.81456" lon="0.35113">
        <ele>1074.6</ele>
        <time>2022-05-24 18:48:39</time>
      </trkpt>
      <trkpt lat="40.81461" lon="0.35127">
        <ele>1074</ele>
        <time>2022-05-24 18:48:40</time>
      </trkpt>
      <trkpt lat="40.81464" lon="0.35137">
        <ele>1073.6</ele>
        <time>2022-05-24 18:48:41</time>
      </trkpt>
      <trkpt lat="40.81467" lon="0.35147">
        <ele>1073.2</ele>
        <time>2022-05-24 18:48:42</time>
      </trkpt>
      <trkpt lat="40.81471" lon="0.35157">
        <ele>1072.6</ele>
        <time>2022-05-24 18:48:43</time>
      </trkpt>
      <trkpt lat="40.81473" lon="0.35167">
        <ele>1072.2</ele>
        <time>2022-05-24 18:48:44</time>
      </trkpt>
      <trkpt lat="40.81475" lon="0.35178">
        <ele>1072</ele>
        <time>2022-05-24 18:48:45</time>
      </trkpt>
      <trkpt lat="40.81477" lon="0.35187">
        <ele>1071.6</ele>
        <time>2022-05-24 18:48:46</time>
      </trkpt>
      <trkpt lat="40.81479" lon="0.35197">
        <ele>1071.4</ele>
        <time>2022-05-24 18:48:47</time>
      </trkpt>
      <trkpt lat="40.81483" lon="0.35207">
        <ele>1071.2</ele>
        <time>2022-05-24 18:48:48</time>
      </trkpt>
      <trkpt lat="40.81486" lon="0.35216">
        <ele>1070.8</ele>
        <time>2022-05-24 18:48:49</time>
      </trkpt>
      <trkpt lat="40.8149" lon="0.35223">
        <ele>1070.6</ele>
        <time>2022-05-24 18:48:50</time>
      </trkpt>
      <trkpt lat="40.81495" lon="0.35232">
        <ele>1070.4</ele>
        <time>2022-05-24 18:48:51</time>
      </trkpt>
      <trkpt lat="40.81498" lon="0.3524">
        <ele>1070.4</ele>
        <time>2022-05-24 18:48:52</time>
      </trkpt>
      <trkpt lat="40.81502" lon="0.35247">
        <ele>1070.2</ele>
        <time>2022-05-24 18:48:53</time>
      </trkpt>
      <trkpt lat="40.81505" lon="0.35253">
        <ele>1070.2</ele>
        <time>2022-05-24 18:48:54</time>
      </trkpt>
      <trkpt lat="40.81509" lon="0.35259">
        <ele>1070</ele>
        <time>2022-05-24 18:48:55</time>
      </trkpt>
      <trkpt lat="40.81514" lon="0.35266">
        <ele>1069.8</ele>
        <time>2022-05-24 18:48:56</time>
      </trkpt>
      <trkpt lat="40.81519" lon="0.35272">
        <ele>1069.8</ele>
        <time>2022-05-24 18:48:57</time>
      </trkpt>
      <trkpt lat="40.81522" lon="0.3528">
        <ele>1069.8</ele>
        <time>2022-05-24 18:48:58</time>
      </trkpt>
      <trkpt lat="40.81525" lon="0.35289">
        <ele>1069.8</ele>
        <time>2022-05-24 18:48:59</time>
      </trkpt>
      <trkpt lat="40.81528" lon="0.35295">
        <ele>1069.6</ele>
        <time>2022-05-24 18:49:00</time>
      </trkpt>
      <trkpt lat="40.81532" lon="0.35302">
        <ele>1069.6</ele>
        <time>2022-05-24 18:49:01</time>
      </trkpt>
      <trkpt lat="40.81536" lon="0.35309">
        <ele>1069.6</ele>
        <time>2022-05-24 18:49:02</time>
      </trkpt>
      <trkpt lat="40.81538" lon="0.35314">
        <ele>1069.6</ele>
        <time>2022-05-24 18:49:03</time>
      </trkpt>
      <trkpt lat="40.81541" lon="0.35319">
        <ele>1069.6</ele>
        <time>2022-05-24 18:49:04</time>
      </trkpt>
      <trkpt lat="40.81544" lon="0.35323">
        <ele>1069.8</ele>
        <time>2022-05-24 18:49:05</time>
      </trkpt>
      <trkpt lat="40.81548" lon="0.35327">
        <ele>1070</ele>
        <time>2022-05-24 18:49:06</time>
      </trkpt>
      <trkpt lat="40.8155" lon="0.35329">
        <ele>1070.2</ele>
        <time>2022-05-24 18:49:07</time>
      </trkpt>
      <trkpt lat="40.81554" lon="0.35333">
        <ele>1070.4</ele>
        <time>2022-05-24 18:49:08</time>
      </trkpt>
      <trkpt lat="40.81557" lon="0.35335">
        <ele>1070.6</ele>
        <time>2022-05-24 18:49:09</time>
      </trkpt>
      <trkpt lat="40.8156" lon="0.35337">
        <ele>1070.8</ele>
        <time>2022-05-24 18:49:10</time>
      </trkpt>
      <trkpt lat="40.81563" lon="0.3534">
        <ele>1071</ele>
        <time>2022-05-24 18:49:11</time>
      </trkpt>
      <trkpt lat="40.81566" lon="0.35341">
        <ele>1071.4</ele>
        <time>2022-05-24 18:49:12</time>
      </trkpt>
      <trkpt lat="40.81569" lon="0.35342">
        <ele>1071.6</ele>
        <time>2022-05-24 18:49:13</time>
      </trkpt>
      <trkpt lat="40.81572" lon="0.35343">
        <ele>1071.8</ele>
        <time>2022-05-24 18:49:14</time>
      </trkpt>
      <trkpt lat="40.81574" lon="0.35345">
        <ele>1072.2</ele>
        <time>2022-05-24 18:49:15</time>
      </trkpt>
      <trkpt lat="40.81577" lon="0.35346">
        <ele>1072.4</ele>
        <time>2022-05-24 18:49:16</time>
      </trkpt>
      <trkpt lat="40.81579" lon="0.35348">
        <ele>1072.8</ele>
        <time>2022-05-24 18:49:17</time>
      </trkpt>
      <trkpt lat="40.81582" lon="0.35349">
        <ele>1073</ele>
        <time>2022-05-24 18:49:18</time>
      </trkpt>
      <trkpt lat="40.81585" lon="0.3535">
        <ele>1073.4</ele>
        <time>2022-05-24 18:49:19</time>
      </trkpt>
      <trkpt lat="40.81587" lon="0.35351">
        <ele>1073.6</ele>
        <time>2022-05-24 18:49:20</time>
      </trkpt>
      <trkpt lat="40.8159" lon="0.35352">
        <ele>1073.8</ele>
        <time>2022-05-24 18:49:21</time>
      </trkpt>
      <trkpt lat="40.81593" lon="0.35354">
        <ele>1074</ele>
        <time>2022-05-24 18:49:22</time>
      </trkpt>
      <trkpt lat="40.81595" lon="0.35355">
        <ele>1074.4</ele>
        <time>2022-05-24 18:49:23</time>
      </trkpt>
      <trkpt lat="40.81598" lon="0.35356">
        <ele>1074.4</ele>
        <time>2022-05-24 18:49:24</time>
      </trkpt>
      <trkpt lat="40.816" lon="0.35358">
        <ele>1074.6</ele>
        <time>2022-05-24 18:49:25</time>
      </trkpt>
      <trkpt lat="40.81602" lon="0.35359">
        <ele>1074.8</ele>
        <time>2022-05-24 18:49:26</time>
      </trkpt>
      <trkpt lat="40.81604" lon="0.35361">
        <ele>1075</ele>
        <time>2022-05-24 18:49:27</time>
      </trkpt>
      <trkpt lat="40.81606" lon="0.35363">
        <ele>1075</ele>
        <time>2022-05-24 18:49:28</time>
      </trkpt>
      <trkpt lat="40.81609" lon="0.35365">
        <ele>1075.2</ele>
        <time>2022-05-24 18:49:29</time>
      </trkpt>
      <trkpt lat="40.8161" lon="0.35366">
        <ele>1075.4</ele>
        <time>2022-05-24 18:49:30</time>
      </trkpt>
      <trkpt lat="40.81612" lon="0.35369">
        <ele>1075.6</ele>
        <time>2022-05-24 18:49:31</time>
      </trkpt>
      <trkpt lat="40.81614" lon="0.35371">
        <ele>1075.6</ele>
        <time>2022-05-24 18:49:32</time>
      </trkpt>
      <trkpt lat="40.81615" lon="0.35372">
        <ele>1075.8</ele>
        <time>2022-05-24 18:49:33</time>
      </trkpt>
      <trkpt lat="40.81616" lon="0.35373">
        <ele>1076</ele>
        <time>2022-05-24 18:49:34</time>
      </trkpt>
      <trkpt lat="40.81617" lon="0.35373">
        <ele>1076</ele>
        <time>2022-05-24 18:49:35</time>
      </trkpt>
      <trkpt lat="40.81617" lon="0.35373">
        <ele>1076</ele>
        <time>2022-05-24 18:49:36</time>
      </trkpt>
      <trkpt lat="40.81617" lon="0.35373">
        <ele>1076.2</ele>
        <time>2022-05-24 18:49:37</time>
      </trkpt>
      <trkpt lat="40.81617" lon="0.35373">
        <ele>1076.2</ele>
        <time>2022-05-24 18:49:38</time>
      </trkpt>
      <trkpt lat="40.81621" lon="0.35377">
        <ele>1076.4</ele>
        <time>2022-05-24 18:49:50</time>
      </trkpt>
      <trkpt lat="40.81622" lon="0.35378">
        <ele>1076.4</ele>
        <time>2022-05-24 18:49:51</time>
      </trkpt>
      <trkpt lat="40.81623" lon="0.3538">
        <ele>1076.4</ele>
        <time>2022-05-24 18:49:52</time>
      </trkpt>
      <trkpt lat="40.81625" lon="0.35381">
        <ele>1076.4</ele>
        <time>2022-05-24 18:49:53</time>
      </trkpt>
      <trkpt lat="40.81626" lon="0.35383">
        <ele>1076.4</ele>
        <time>2022-05-24 18:49:54</time>
      </trkpt>
      <trkpt lat="40.81628" lon="0.35385">
        <ele>1076.4</ele>
        <time>2022-05-24 18:49:55</time>
      </trkpt>
      <trkpt lat="40.8163" lon="0.35387">
        <ele>1076.4</ele>
        <time>2022-05-24 18:49:56</time>
      </trkpt>
      <trkpt lat="40.81632" lon="0.35389">
        <ele>1076.4</ele>
        <time>2022-05-24 18:49:57</time>
      </trkpt>
      <trkpt lat="40.81634" lon="0.35392">
        <ele>1076.4</ele>
        <time>2022-05-24 18:49:58</time>
      </trkpt>
      <trkpt lat="40.81636" lon="0.35394">
        <ele>1076.4</ele>
        <time>2022-05-24 18:49:59</time>
      </trkpt>
      <trkpt lat="40.81638" lon="0.35396">
        <ele>1076.4</ele>
        <time>2022-05-24 18:50:00</time>
      </trkpt>
      <trkpt lat="40.8164" lon="0.35398">
        <ele>1076.4</ele>
        <time>2022-05-24 18:50:01</time>
      </trkpt>
      <trkpt lat="40.81643" lon="0.354">
        <ele>1076.4</ele>
        <time>2022-05-24 18:50:02</time>
      </trkpt>
      <trkpt lat="40.81645" lon="0.35402">
        <ele>1076.4</ele>
        <time>2022-05-24 18:50:03</time>
      </trkpt>
      <trkpt lat="40.81647" lon="0.35405">
        <ele>1076.4</ele>
        <time>2022-05-24 18:50:04</time>
      </trkpt>
      <trkpt lat="40.81649" lon="0.35407">
        <ele>1076.2</ele>
        <time>2022-05-24 18:50:05</time>
      </trkpt>
      <trkpt lat="40.81652" lon="0.35409">
        <ele>1076.2</ele>
        <time>2022-05-24 18:50:06</time>
      </trkpt>
      <trkpt lat="40.81656" lon="0.35411">
        <ele>1076</ele>
        <time>2022-05-24 18:50:07</time>
      </trkpt>
      <trkpt lat="40.81659" lon="0.35413">
        <ele>1075.8</ele>
        <time>2022-05-24 18:50:08</time>
      </trkpt>
      <trkpt lat="40.81663" lon="0.35414">
        <ele>1075.6</ele>
        <time>2022-05-24 18:50:09</time>
      </trkpt>
      <trkpt lat="40.81667" lon="0.35415">
        <ele>1075.4</ele>
        <time>2022-05-24 18:50:10</time>
      </trkpt>
      <trkpt lat="40.81672" lon="0.35416">
        <ele>1075.2</ele>
        <time>2022-05-24 18:50:11</time>
      </trkpt>
      <trkpt lat="40.81676" lon="0.35416">
        <ele>1075</ele>
        <time>2022-05-24 18:50:12</time>
      </trkpt>
      <trkpt lat="40.81681" lon="0.35416">
        <ele>1074.8</ele>
        <time>2022-05-24 18:50:13</time>
      </trkpt>
      <trkpt lat="40.81687" lon="0.35418">
        <ele>1074.6</ele>
        <time>2022-05-24 18:50:14</time>
      </trkpt>
      <trkpt lat="40.81692" lon="0.3542">
        <ele>1074.2</ele>
        <time>2022-05-24 18:50:15</time>
      </trkpt>
      <trkpt lat="40.81697" lon="0.35424">
        <ele>1073.8</ele>
        <time>2022-05-24 18:50:16</time>
      </trkpt>
      <trkpt lat="40.81702" lon="0.35428">
        <ele>1073.4</ele>
        <time>2022-05-24 18:50:17</time>
      </trkpt>
      <trkpt lat="40.81707" lon="0.35433">
        <ele>1072.8</ele>
        <time>2022-05-24 18:50:18</time>
      </trkpt>
      <trkpt lat="40.81713" lon="0.35439">
        <ele>1072.2</ele>
        <time>2022-05-24 18:50:19</time>
      </trkpt>
      <trkpt lat="40.81718" lon="0.35445">
        <ele>1071.6</ele>
        <time>2022-05-24 18:50:20</time>
      </trkpt>
      <trkpt lat="40.81724" lon="0.35452">
        <ele>1071</ele>
        <time>2022-05-24 18:50:21</time>
      </trkpt>
      <trkpt lat="40.81729" lon="0.35458">
        <ele>1070.4</ele>
        <time>2022-05-24 18:50:22</time>
      </trkpt>
      <trkpt lat="40.81734" lon="0.35464">
        <ele>1070</ele>
        <time>2022-05-24 18:50:23</time>
      </trkpt>
      <trkpt lat="40.81739" lon="0.35469">
        <ele>1069.8</ele>
        <time>2022-05-24 18:50:24</time>
      </trkpt>
      <trkpt lat="40.81745" lon="0.35474">
        <ele>1069.6</ele>
        <time>2022-05-24 18:50:25</time>
      </trkpt>
      <trkpt lat="40.8175" lon="0.35479">
        <ele>1069.4</ele>
        <time>2022-05-24 18:50:26</time>
      </trkpt>
      <trkpt lat="40.81755" lon="0.35484">
        <ele>1069.2</ele>
        <time>2022-05-24 18:50:27</time>
      </trkpt>
      <trkpt lat="40.8176" lon="0.35489">
        <ele>1069</ele>
        <time>2022-05-24 18:50:28</time>
      </trkpt>
      <trkpt lat="40.81766" lon="0.35495">
        <ele>1068.6</ele>
        <time>2022-05-24 18:50:29</time>
      </trkpt>
      <trkpt lat="40.81772" lon="0.35502">
        <ele>1068.2</ele>
        <time>2022-05-24 18:50:30</time>
      </trkpt>
      <trkpt lat="40.81777" lon="0.3551">
        <ele>1067.6</ele>
        <time>2022-05-24 18:50:31</time>
      </trkpt>
      <trkpt lat="40.81782" lon="0.35519">
        <ele>1067</ele>
        <time>2022-05-24 18:50:32</time>
      </trkpt>
      <trkpt lat="40.81787" lon="0.35528">
        <ele>1066.4</ele>
        <time>2022-05-24 18:50:33</time>
      </trkpt>
      <trkpt lat="40.81793" lon="0.35537">
        <ele>1065.6</ele>
        <time>2022-05-24 18:50:34</time>
      </trkpt>
      <trkpt lat="40.81798" lon="0.35545">
        <ele>1065</ele>
        <time>2022-05-24 18:50:35</time>
      </trkpt>
      <trkpt lat="40.81804" lon="0.35553">
        <ele>1064.4</ele>
        <time>2022-05-24 18:50:36</time>
      </trkpt>
      <trkpt lat="40.81812" lon="0.3556">
        <ele>1063.8</ele>
        <time>2022-05-24 18:50:37</time>
      </trkpt>
      <trkpt lat="40.81819" lon="0.35566">
        <ele>1063.2</ele>
        <time>2022-05-24 18:50:38</time>
      </trkpt>
      <trkpt lat="40.81827" lon="0.3557">
        <ele>1062.8</ele>
        <time>2022-05-24 18:50:39</time>
      </trkpt>
      <trkpt lat="40.81835" lon="0.35575">
        <ele>1062.2</ele>
        <time>2022-05-24 18:50:40</time>
      </trkpt>
      <trkpt lat="40.81843" lon="0.3558">
        <ele>1061.6</ele>
        <time>2022-05-24 18:50:41</time>
      </trkpt>
      <trkpt lat="40.81851" lon="0.35586">
        <ele>1061.2</ele>
        <time>2022-05-24 18:50:42</time>
      </trkpt>
      <trkpt lat="40.81858" lon="0.35594">
        <ele>1060.8</ele>
        <time>2022-05-24 18:50:43</time>
      </trkpt>
      <trkpt lat="40.81865" lon="0.35602">
        <ele>1060.2</ele>
        <time>2022-05-24 18:50:44</time>
      </trkpt>
      <trkpt lat="40.81871" lon="0.35612">
        <ele>1059.8</ele>
        <time>2022-05-24 18:50:45</time>
      </trkpt>
      <trkpt lat="40.81877" lon="0.3562">
        <ele>1059.6</ele>
        <time>2022-05-24 18:50:46</time>
      </trkpt>
      <trkpt lat="40.81881" lon="0.35629">
        <ele>1059.4</ele>
        <time>2022-05-24 18:50:47</time>
      </trkpt>
      <trkpt lat="40.81886" lon="0.35638">
        <ele>1059.2</ele>
        <time>2022-05-24 18:50:48</time>
      </trkpt>
      <trkpt lat="40.81889" lon="0.35647">
        <ele>1059</ele>
        <time>2022-05-24 18:50:49</time>
      </trkpt>
      <trkpt lat="40.81893" lon="0.35655">
        <ele>1059</ele>
        <time>2022-05-24 18:50:50</time>
      </trkpt>
      <trkpt lat="40.81898" lon="0.35664">
        <ele>1058.8</ele>
        <time>2022-05-24 18:50:51</time>
      </trkpt>
      <trkpt lat="40.81903" lon="0.35672">
        <ele>1058.6</ele>
        <time>2022-05-24 18:50:52</time>
      </trkpt>
      <trkpt lat="40.81908" lon="0.3568">
        <ele>1058.4</ele>
        <time>2022-05-24 18:50:53</time>
      </trkpt>
      <trkpt lat="40.81912" lon="0.35688">
        <ele>1058.2</ele>
        <time>2022-05-24 18:50:54</time>
      </trkpt>
      <trkpt lat="40.81918" lon="0.35697">
        <ele>1057.8</ele>
        <time>2022-05-24 18:50:55</time>
      </trkpt>
      <trkpt lat="40.81922" lon="0.35705">
        <ele>1057.4</ele>
        <time>2022-05-24 18:50:56</time>
      </trkpt>
      <trkpt lat="40.81926" lon="0.35714">
        <ele>1057</ele>
        <time>2022-05-24 18:50:57</time>
      </trkpt>
      <trkpt lat="40.81932" lon="0.35723">
        <ele>1056.8</ele>
        <time>2022-05-24 18:50:58</time>
      </trkpt>
      <trkpt lat="40.81936" lon="0.35733">
        <ele>1056.4</ele>
        <time>2022-05-24 18:50:59</time>
      </trkpt>
      <trkpt lat="40.8194" lon="0.35742">
        <ele>1056</ele>
        <time>2022-05-24 18:51:00</time>
      </trkpt>
      <trkpt lat="40.81943" lon="0.35752">
        <ele>1055.8</ele>
        <time>2022-05-24 18:51:01</time>
      </trkpt>
      <trkpt lat="40.81947" lon="0.3576">
        <ele>1055.6</ele>
        <time>2022-05-24 18:51:02</time>
      </trkpt>
      <trkpt lat="40.81951" lon="0.35769">
        <ele>1055.4</ele>
        <time>2022-05-24 18:51:03</time>
      </trkpt>
      <trkpt lat="40.81955" lon="0.35777">
        <ele>1055.4</ele>
        <time>2022-05-24 18:51:04</time>
      </trkpt>
      <trkpt lat="40.81961" lon="0.35785">
        <ele>1055.6</ele>
        <time>2022-05-24 18:51:05</time>
      </trkpt>
      <trkpt lat="40.81965" lon="0.35793">
        <ele>1055.8</ele>
        <time>2022-05-24 18:51:06</time>
      </trkpt>
      <trkpt lat="40.81969" lon="0.35801">
        <ele>1055.8</ele>
        <time>2022-05-24 18:51:07</time>
      </trkpt>
      <trkpt lat="40.81974" lon="0.35808">
        <ele>1056</ele>
        <time>2022-05-24 18:51:08</time>
      </trkpt>
      <trkpt lat="40.81977" lon="0.35814">
        <ele>1056</ele>
        <time>2022-05-24 18:51:09</time>
      </trkpt>
      <trkpt lat="40.81981" lon="0.35821">
        <ele>1056.2</ele>
        <time>2022-05-24 18:51:10</time>
      </trkpt>
      <trkpt lat="40.81985" lon="0.35827">
        <ele>1056.4</ele>
        <time>2022-05-24 18:51:11</time>
      </trkpt>
      <trkpt lat="40.81988" lon="0.35832">
        <ele>1056.4</ele>
        <time>2022-05-24 18:51:12</time>
      </trkpt>
      <trkpt lat="40.81992" lon="0.35838">
        <ele>1056.4</ele>
        <time>2022-05-24 18:51:13</time>
      </trkpt>
      <trkpt lat="40.81996" lon="0.35843">
        <ele>1056.6</ele>
        <time>2022-05-24 18:51:14</time>
      </trkpt>
      <trkpt lat="40.81999" lon="0.35848">
        <ele>1056.6</ele>
        <time>2022-05-24 18:51:15</time>
      </trkpt>
      <trkpt lat="40.82002" lon="0.35852">
        <ele>1056.6</ele>
        <time>2022-05-24 18:51:16</time>
      </trkpt>
      <trkpt lat="40.82005" lon="0.35858">
        <ele>1056.8</ele>
        <time>2022-05-24 18:51:17</time>
      </trkpt>
      <trkpt lat="40.82008" lon="0.35864">
        <ele>1056.8</ele>
        <time>2022-05-24 18:51:18</time>
      </trkpt>
      <trkpt lat="40.82011" lon="0.35869">
        <ele>1056.8</ele>
        <time>2022-05-24 18:51:19</time>
      </trkpt>
      <trkpt lat="40.82014" lon="0.35875">
        <ele>1056.6</ele>
        <time>2022-05-24 18:51:20</time>
      </trkpt>
      <trkpt lat="40.82017" lon="0.3588">
        <ele>1056.6</ele>
        <time>2022-05-24 18:51:21</time>
      </trkpt>
      <trkpt lat="40.82021" lon="0.35884">
        <ele>1056.6</ele>
        <time>2022-05-24 18:51:22</time>
      </trkpt>
      <trkpt lat="40.82024" lon="0.35889">
        <ele>1056.6</ele>
        <time>2022-05-24 18:51:23</time>
      </trkpt>
      <trkpt lat="40.82027" lon="0.35895">
        <ele>1056.8</ele>
        <time>2022-05-24 18:51:24</time>
      </trkpt>
      <trkpt lat="40.82029" lon="0.359">
        <ele>1056.8</ele>
        <time>2022-05-24 18:51:25</time>
      </trkpt>
      <trkpt lat="40.82032" lon="0.35906">
        <ele>1056.8</ele>
        <time>2022-05-24 18:51:26</time>
      </trkpt>
      <trkpt lat="40.82035" lon="0.35911">
        <ele>1057</ele>
        <time>2022-05-24 18:51:27</time>
      </trkpt>
      <trkpt lat="40.82038" lon="0.35916">
        <ele>1057</ele>
        <time>2022-05-24 18:51:28</time>
      </trkpt>
      <trkpt lat="40.82039" lon="0.35922">
        <ele>1057</ele>
        <time>2022-05-24 18:51:29</time>
      </trkpt>
      <trkpt lat="40.8204" lon="0.35927">
        <ele>1057.2</ele>
        <time>2022-05-24 18:51:30</time>
      </trkpt>
      <trkpt lat="40.82041" lon="0.35933">
        <ele>1057.2</ele>
        <time>2022-05-24 18:51:31</time>
      </trkpt>
      <trkpt lat="40.82043" lon="0.35938">
        <ele>1057.2</ele>
        <time>2022-05-24 18:51:32</time>
      </trkpt>
      <trkpt lat="40.82045" lon="0.35943">
        <ele>1057.4</ele>
        <time>2022-05-24 18:51:33</time>
      </trkpt>
      <trkpt lat="40.82047" lon="0.35948">
        <ele>1057.4</ele>
        <time>2022-05-24 18:51:34</time>
      </trkpt>
      <trkpt lat="40.82049" lon="0.35954">
        <ele>1057.4</ele>
        <time>2022-05-24 18:51:35</time>
      </trkpt>
      <trkpt lat="40.82051" lon="0.35959">
        <ele>1057.4</ele>
        <time>2022-05-24 18:51:36</time>
      </trkpt>
      <trkpt lat="40.82053" lon="0.35966">
        <ele>1057.2</ele>
        <time>2022-05-24 18:51:37</time>
      </trkpt>
      <trkpt lat="40.82056" lon="0.35972">
        <ele>1057.2</ele>
        <time>2022-05-24 18:51:38</time>
      </trkpt>
      <trkpt lat="40.82058" lon="0.35978">
        <ele>1057</ele>
        <time>2022-05-24 18:51:39</time>
      </trkpt>
      <trkpt lat="40.8206" lon="0.35985">
        <ele>1057</ele>
        <time>2022-05-24 18:51:40</time>
      </trkpt>
      <trkpt lat="40.82063" lon="0.35991">
        <ele>1056.8</ele>
        <time>2022-05-24 18:51:41</time>
      </trkpt>
      <trkpt lat="40.82065" lon="0.35997">
        <ele>1056.6</ele>
        <time>2022-05-24 18:51:42</time>
      </trkpt>
      <trkpt lat="40.82068" lon="0.36004">
        <ele>1056.4</ele>
        <time>2022-05-24 18:51:43</time>
      </trkpt>
      <trkpt lat="40.8207" lon="0.36011">
        <ele>1056.2</ele>
        <time>2022-05-24 18:51:44</time>
      </trkpt>
      <trkpt lat="40.82073" lon="0.36017">
        <ele>1056</ele>
        <time>2022-05-24 18:51:45</time>
      </trkpt>
      <trkpt lat="40.82075" lon="0.36023">
        <ele>1056</ele>
        <time>2022-05-24 18:51:46</time>
      </trkpt>
      <trkpt lat="40.82077" lon="0.36029">
        <ele>1055.6</ele>
        <time>2022-05-24 18:51:47</time>
      </trkpt>
      <trkpt lat="40.82079" lon="0.36038">
        <ele>1055.4</ele>
        <time>2022-05-24 18:51:48</time>
      </trkpt>
      <trkpt lat="40.82081" lon="0.36047">
        <ele>1055</ele>
        <time>2022-05-24 18:51:49</time>
      </trkpt>
      <trkpt lat="40.82083" lon="0.36056">
        <ele>1054.4</ele>
        <time>2022-05-24 18:51:50</time>
      </trkpt>
      <trkpt lat="40.82085" lon="0.36065">
        <ele>1054</ele>
        <time>2022-05-24 18:51:51</time>
      </trkpt>
      <trkpt lat="40.82087" lon="0.36073">
        <ele>1053.6</ele>
        <time>2022-05-24 18:51:52</time>
      </trkpt>
      <trkpt lat="40.82089" lon="0.36083">
        <ele>1053.4</ele>
        <time>2022-05-24 18:51:53</time>
      </trkpt>
      <trkpt lat="40.82091" lon="0.36093">
        <ele>1053</ele>
        <time>2022-05-24 18:51:54</time>
      </trkpt>
      <trkpt lat="40.82093" lon="0.36102">
        <ele>1052.8</ele>
        <time>2022-05-24 18:51:55</time>
      </trkpt>
      <trkpt lat="40.82097" lon="0.36112">
        <ele>1052.4</ele>
        <time>2022-05-24 18:51:56</time>
      </trkpt>
      <trkpt lat="40.821" lon="0.36122">
        <ele>1052</ele>
        <time>2022-05-24 18:51:57</time>
      </trkpt>
      <trkpt lat="40.82104" lon="0.36131">
        <ele>1051.6</ele>
        <time>2022-05-24 18:51:58</time>
      </trkpt>
      <trkpt lat="40.82108" lon="0.36141">
        <ele>1051.2</ele>
        <time>2022-05-24 18:51:59</time>
      </trkpt>
      <trkpt lat="40.82113" lon="0.36149">
        <ele>1051</ele>
        <time>2022-05-24 18:52:00</time>
      </trkpt>
      <trkpt lat="40.82118" lon="0.36156">
        <ele>1050.8</ele>
        <time>2022-05-24 18:52:01</time>
      </trkpt>
      <trkpt lat="40.82124" lon="0.36163">
        <ele>1050.8</ele>
        <time>2022-05-24 18:52:02</time>
      </trkpt>
      <trkpt lat="40.8213" lon="0.36169">
        <ele>1050.6</ele>
        <time>2022-05-24 18:52:03</time>
      </trkpt>
      <trkpt lat="40.82137" lon="0.36176">
        <ele>1050.6</ele>
        <time>2022-05-24 18:52:04</time>
      </trkpt>
      <trkpt lat="40.82144" lon="0.36183">
        <ele>1050.6</ele>
        <time>2022-05-24 18:52:05</time>
      </trkpt>
      <trkpt lat="40.82151" lon="0.36189">
        <ele>1050.4</ele>
        <time>2022-05-24 18:52:06</time>
      </trkpt>
      <trkpt lat="40.82158" lon="0.36197">
        <ele>1050.4</ele>
        <time>2022-05-24 18:52:07</time>
      </trkpt>
      <trkpt lat="40.82165" lon="0.36204">
        <ele>1050.2</ele>
        <time>2022-05-24 18:52:08</time>
      </trkpt>
      <trkpt lat="40.82171" lon="0.36213">
        <ele>1050</ele>
        <time>2022-05-24 18:52:09</time>
      </trkpt>
      <trkpt lat="40.82178" lon="0.36222">
        <ele>1049.8</ele>
        <time>2022-05-24 18:52:10</time>
      </trkpt>
      <trkpt lat="40.82185" lon="0.36232">
        <ele>1049.4</ele>
        <time>2022-05-24 18:52:11</time>
      </trkpt>
      <trkpt lat="40.82191" lon="0.36243">
        <ele>1049</ele>
        <time>2022-05-24 18:52:12</time>
      </trkpt>
      <trkpt lat="40.82196" lon="0.36254">
        <ele>1048.4</ele>
        <time>2022-05-24 18:52:13</time>
      </trkpt>
      <trkpt lat="40.82203" lon="0.36265">
        <ele>1047.6</ele>
        <time>2022-05-24 18:52:14</time>
      </trkpt>
      <trkpt lat="40.8221" lon="0.36275">
        <ele>1046.8</ele>
        <time>2022-05-24 18:52:15</time>
      </trkpt>
      <trkpt lat="40.82218" lon="0.36287">
        <ele>1045.8</ele>
        <time>2022-05-24 18:52:16</time>
      </trkpt>
      <trkpt lat="40.82225" lon="0.36298">
        <ele>1044.6</ele>
        <time>2022-05-24 18:52:17</time>
      </trkpt>
      <trkpt lat="40.82233" lon="0.36308">
        <ele>1043.6</ele>
        <time>2022-05-24 18:52:18</time>
      </trkpt>
      <trkpt lat="40.8224" lon="0.36321">
        <ele>1042.2</ele>
        <time>2022-05-24 18:52:19</time>
      </trkpt>
      <trkpt lat="40.82248" lon="0.36333">
        <ele>1040.8</ele>
        <time>2022-05-24 18:52:20</time>
      </trkpt>
      <trkpt lat="40.82256" lon="0.36344">
        <ele>1039.4</ele>
        <time>2022-05-24 18:52:21</time>
      </trkpt>
      <trkpt lat="40.82262" lon="0.36356">
        <ele>1038.2</ele>
        <time>2022-05-24 18:52:22</time>
      </trkpt>
      <trkpt lat="40.82269" lon="0.36367">
        <ele>1037.2</ele>
        <time>2022-05-24 18:52:23</time>
      </trkpt>
      <trkpt lat="40.82276" lon="0.36378">
        <ele>1035.8</ele>
        <time>2022-05-24 18:52:24</time>
      </trkpt>
      <trkpt lat="40.82282" lon="0.3639">
        <ele>1034.4</ele>
        <time>2022-05-24 18:52:25</time>
      </trkpt>
      <trkpt lat="40.8229" lon="0.36401">
        <ele>1033</ele>
        <time>2022-05-24 18:52:26</time>
      </trkpt>
      <trkpt lat="40.82298" lon="0.36412">
        <ele>1031.8</ele>
        <time>2022-05-24 18:52:27</time>
      </trkpt>
      <trkpt lat="40.82305" lon="0.36422">
        <ele>1030.6</ele>
        <time>2022-05-24 18:52:28</time>
      </trkpt>
      <trkpt lat="40.82313" lon="0.3643">
        <ele>1029.6</ele>
        <time>2022-05-24 18:52:29</time>
      </trkpt>
      <trkpt lat="40.82321" lon="0.36438">
        <ele>1028.6</ele>
        <time>2022-05-24 18:52:30</time>
      </trkpt>
      <trkpt lat="40.82329" lon="0.36447">
        <ele>1027.8</ele>
        <time>2022-05-24 18:52:31</time>
      </trkpt>
      <trkpt lat="40.82336" lon="0.36455">
        <ele>1027.2</ele>
        <time>2022-05-24 18:52:32</time>
      </trkpt>
      <trkpt lat="40.82343" lon="0.36464">
        <ele>1026.4</ele>
        <time>2022-05-24 18:52:33</time>
      </trkpt>
      <trkpt lat="40.8235" lon="0.36472">
        <ele>1025.4</ele>
        <time>2022-05-24 18:52:34</time>
      </trkpt>
      <trkpt lat="40.82359" lon="0.3648">
        <ele>1024.4</ele>
        <time>2022-05-24 18:52:35</time>
      </trkpt>
      <trkpt lat="40.82368" lon="0.36486">
        <ele>1023.4</ele>
        <time>2022-05-24 18:52:36</time>
      </trkpt>
      <trkpt lat="40.82378" lon="0.3649">
        <ele>1022.4</ele>
        <time>2022-05-24 18:52:37</time>
      </trkpt>
      <trkpt lat="40.82386" lon="0.36494">
        <ele>1021.2</ele>
        <time>2022-05-24 18:52:38</time>
      </trkpt>
      <trkpt lat="40.82395" lon="0.36495">
        <ele>1020.2</ele>
        <time>2022-05-24 18:52:39</time>
      </trkpt>
      <trkpt lat="40.82404" lon="0.36497">
        <ele>1019.4</ele>
        <time>2022-05-24 18:52:40</time>
      </trkpt>
      <trkpt lat="40.82414" lon="0.36496">
        <ele>1018.4</ele>
        <time>2022-05-24 18:52:41</time>
      </trkpt>
      <trkpt lat="40.82423" lon="0.36494">
        <ele>1017.6</ele>
        <time>2022-05-24 18:52:42</time>
      </trkpt>
      <trkpt lat="40.82432" lon="0.36492">
        <ele>1016.8</ele>
        <time>2022-05-24 18:52:43</time>
      </trkpt>
      <trkpt lat="40.82441" lon="0.36491">
        <ele>1015.8</ele>
        <time>2022-05-24 18:52:44</time>
      </trkpt>
      <trkpt lat="40.8245" lon="0.36492">
        <ele>1014.4</ele>
        <time>2022-05-24 18:52:45</time>
      </trkpt>
      <trkpt lat="40.82458" lon="0.36496">
        <ele>1013</ele>
        <time>2022-05-24 18:52:46</time>
      </trkpt>
      <trkpt lat="40.82468" lon="0.36502">
        <ele>1011.6</ele>
        <time>2022-05-24 18:52:47</time>
      </trkpt>
      <trkpt lat="40.82478" lon="0.36509">
        <ele>1010.2</ele>
        <time>2022-05-24 18:52:48</time>
      </trkpt>
      <trkpt lat="40.82488" lon="0.36516">
        <ele>1009</ele>
        <time>2022-05-24 18:52:49</time>
      </trkpt>
      <trkpt lat="40.82497" lon="0.36523">
        <ele>1007.8</ele>
        <time>2022-05-24 18:52:50</time>
      </trkpt>
      <trkpt lat="40.82508" lon="0.36529">
        <ele>1006.8</ele>
        <time>2022-05-24 18:52:51</time>
      </trkpt>
      <trkpt lat="40.82518" lon="0.36533">
        <ele>1005.8</ele>
        <time>2022-05-24 18:52:52</time>
      </trkpt>
      <trkpt lat="40.82528" lon="0.36536">
        <ele>1004.8</ele>
        <time>2022-05-24 18:52:53</time>
      </trkpt>
      <trkpt lat="40.82539" lon="0.36538">
        <ele>1004</ele>
        <time>2022-05-24 18:52:54</time>
      </trkpt>
      <trkpt lat="40.82549" lon="0.36542">
        <ele>1003.2</ele>
        <time>2022-05-24 18:52:55</time>
      </trkpt>
      <trkpt lat="40.82558" lon="0.36548">
        <ele>1002.6</ele>
        <time>2022-05-24 18:52:56</time>
      </trkpt>
      <trkpt lat="40.82567" lon="0.36554">
        <ele>1002</ele>
        <time>2022-05-24 18:52:57</time>
      </trkpt>
      <trkpt lat="40.82576" lon="0.36561">
        <ele>1001.2</ele>
        <time>2022-05-24 18:52:58</time>
      </trkpt>
      <trkpt lat="40.82585" lon="0.36569">
        <ele>1000.4</ele>
        <time>2022-05-24 18:52:59</time>
      </trkpt>
      <trkpt lat="40.82594" lon="0.36578">
        <ele>999.2</ele>
        <time>2022-05-24 18:53:00</time>
      </trkpt>
      <trkpt lat="40.82602" lon="0.36588">
        <ele>997.8</ele>
        <time>2022-05-24 18:53:01</time>
      </trkpt>
      <trkpt lat="40.8261" lon="0.36598">
        <ele>996.4</ele>
        <time>2022-05-24 18:53:02</time>
      </trkpt>
      <trkpt lat="40.82618" lon="0.36608">
        <ele>995</ele>
        <time>2022-05-24 18:53:03</time>
      </trkpt>
      <trkpt lat="40.82626" lon="0.36618">
        <ele>993.8</ele>
        <time>2022-05-24 18:53:04</time>
      </trkpt>
      <trkpt lat="40.82635" lon="0.36627">
        <ele>992.4</ele>
        <time>2022-05-24 18:53:05</time>
      </trkpt>
      <trkpt lat="40.82643" lon="0.36635">
        <ele>991.2</ele>
        <time>2022-05-24 18:53:06</time>
      </trkpt>
      <trkpt lat="40.82651" lon="0.36643">
        <ele>990.2</ele>
        <time>2022-05-24 18:53:07</time>
      </trkpt>
      <trkpt lat="40.82656" lon="0.3665">
        <ele>989.4</ele>
        <time>2022-05-24 18:53:08</time>
      </trkpt>
      <trkpt lat="40.82661" lon="0.36655">
        <ele>989</ele>
        <time>2022-05-24 18:53:09</time>
      </trkpt>
      <trkpt lat="40.82663" lon="0.36659">
        <ele>988.6</ele>
        <time>2022-05-24 18:53:10</time>
      </trkpt>
      <trkpt lat="40.82664" lon="0.36663">
        <ele>988.2</ele>
        <time>2022-05-24 18:53:11</time>
      </trkpt>
      <trkpt lat="40.82663" lon="0.36666">
        <ele>987.6</ele>
        <time>2022-05-24 18:53:12</time>
      </trkpt>
      <trkpt lat="40.82659" lon="0.36667">
        <ele>987</ele>
        <time>2022-05-24 18:53:13</time>
      </trkpt>
      <trkpt lat="40.82654" lon="0.36665">
        <ele>986.6</ele>
        <time>2022-05-24 18:53:14</time>
      </trkpt>
      <trkpt lat="40.82649" lon="0.36662">
        <ele>986.2</ele>
        <time>2022-05-24 18:53:15</time>
      </trkpt>
      <trkpt lat="40.82645" lon="0.36657">
        <ele>985.8</ele>
        <time>2022-05-24 18:53:16</time>
      </trkpt>
      <trkpt lat="40.8264" lon="0.36653">
        <ele>985.6</ele>
        <time>2022-05-24 18:53:17</time>
      </trkpt>
      <trkpt lat="40.82634" lon="0.36649">
        <ele>985.2</ele>
        <time>2022-05-24 18:53:18</time>
      </trkpt>
      <trkpt lat="40.82629" lon="0.36644">
        <ele>985</ele>
        <time>2022-05-24 18:53:19</time>
      </trkpt>
      <trkpt lat="40.82623" lon="0.36639">
        <ele>984.6</ele>
        <time>2022-05-24 18:53:20</time>
      </trkpt>
      <trkpt lat="40.82617" lon="0.36634">
        <ele>984.6</ele>
        <time>2022-05-24 18:53:21</time>
      </trkpt>
      <trkpt lat="40.82611" lon="0.3663">
        <ele>984.4</ele>
        <time>2022-05-24 18:53:22</time>
      </trkpt>
      <trkpt lat="40.82604" lon="0.36624">
        <ele>984.2</ele>
        <time>2022-05-24 18:53:23</time>
      </trkpt>
      <trkpt lat="40.82598" lon="0.36619">
        <ele>984</ele>
        <time>2022-05-24 18:53:24</time>
      </trkpt>
      <trkpt lat="40.82592" lon="0.36612">
        <ele>983.6</ele>
        <time>2022-05-24 18:53:25</time>
      </trkpt>
      <trkpt lat="40.82586" lon="0.36606">
        <ele>983.2</ele>
        <time>2022-05-24 18:53:26</time>
      </trkpt>
      <trkpt lat="40.82581" lon="0.36601">
        <ele>983</ele>
        <time>2022-05-24 18:53:27</time>
      </trkpt>
      <trkpt lat="40.82575" lon="0.36598">
        <ele>982.8</ele>
        <time>2022-05-24 18:53:28</time>
      </trkpt>
      <trkpt lat="40.82571" lon="0.36597">
        <ele>982.6</ele>
        <time>2022-05-24 18:53:29</time>
      </trkpt>
      <trkpt lat="40.82568" lon="0.366">
        <ele>982</ele>
        <time>2022-05-24 18:53:30</time>
      </trkpt>
      <trkpt lat="40.82568" lon="0.36607">
        <ele>981.6</ele>
        <time>2022-05-24 18:53:31</time>
      </trkpt>
      <trkpt lat="40.8257" lon="0.36614">
        <ele>981.2</ele>
        <time>2022-05-24 18:53:32</time>
      </trkpt>
      <trkpt lat="40.82574" lon="0.36619">
        <ele>980.6</ele>
        <time>2022-05-24 18:53:33</time>
      </trkpt>
      <trkpt lat="40.82579" lon="0.36625">
        <ele>979.8</ele>
        <time>2022-05-24 18:53:34</time>
      </trkpt>
      <trkpt lat="40.82585" lon="0.3663">
        <ele>979</ele>
        <time>2022-05-24 18:53:35</time>
      </trkpt>
      <trkpt lat="40.8259" lon="0.36636">
        <ele>978.2</ele>
        <time>2022-05-24 18:53:36</time>
      </trkpt>
      <trkpt lat="40.82596" lon="0.36643">
        <ele>977.4</ele>
        <time>2022-05-24 18:53:37</time>
      </trkpt>
      <trkpt lat="40.82602" lon="0.36649">
        <ele>976.6</ele>
        <time>2022-05-24 18:53:38</time>
      </trkpt>
      <trkpt lat="40.82608" lon="0.36656">
        <ele>975.6</ele>
        <time>2022-05-24 18:53:39</time>
      </trkpt>
      <trkpt lat="40.82615" lon="0.36663">
        <ele>974.8</ele>
        <time>2022-05-24 18:53:40</time>
      </trkpt>
      <trkpt lat="40.82623" lon="0.36671">
        <ele>974</ele>
        <time>2022-05-24 18:53:41</time>
      </trkpt>
      <trkpt lat="40.82629" lon="0.36678">
        <ele>973.2</ele>
        <time>2022-05-24 18:53:42</time>
      </trkpt>
      <trkpt lat="40.82636" lon="0.36685">
        <ele>972.4</ele>
        <time>2022-05-24 18:53:43</time>
      </trkpt>
      <trkpt lat="40.82642" lon="0.36692">
        <ele>971.6</ele>
        <time>2022-05-24 18:53:44</time>
      </trkpt>
      <trkpt lat="40.82648" lon="0.36698">
        <ele>971</ele>
        <time>2022-05-24 18:53:45</time>
      </trkpt>
      <trkpt lat="40.82654" lon="0.36704">
        <ele>970.6</ele>
        <time>2022-05-24 18:53:46</time>
      </trkpt>
      <trkpt lat="40.82658" lon="0.36708">
        <ele>970.2</ele>
        <time>2022-05-24 18:53:47</time>
      </trkpt>
      <trkpt lat="40.82661" lon="0.36712">
        <ele>969.8</ele>
        <time>2022-05-24 18:53:48</time>
      </trkpt>
      <trkpt lat="40.82663" lon="0.36716">
        <ele>969.2</ele>
        <time>2022-05-24 18:53:49</time>
      </trkpt>
      <trkpt lat="40.82663" lon="0.36721">
        <ele>969</ele>
        <time>2022-05-24 18:53:50</time>
      </trkpt>
      <trkpt lat="40.82661" lon="0.36724">
        <ele>968.4</ele>
        <time>2022-05-24 18:53:51</time>
      </trkpt>
      <trkpt lat="40.82658" lon="0.36724">
        <ele>968.2</ele>
        <time>2022-05-24 18:53:52</time>
      </trkpt>
      <trkpt lat="40.82653" lon="0.36722">
        <ele>968</ele>
        <time>2022-05-24 18:53:53</time>
      </trkpt>
      <trkpt lat="40.82648" lon="0.36718">
        <ele>967.6</ele>
        <time>2022-05-24 18:53:54</time>
      </trkpt>
      <trkpt lat="40.82643" lon="0.36712">
        <ele>967.4</ele>
        <time>2022-05-24 18:53:55</time>
      </trkpt>
      <trkpt lat="40.82637" lon="0.36706">
        <ele>967</ele>
        <time>2022-05-24 18:53:56</time>
      </trkpt>
      <trkpt lat="40.82632" lon="0.36699">
        <ele>966.8</ele>
        <time>2022-05-24 18:53:57</time>
      </trkpt>
      <trkpt lat="40.82626" lon="0.36693">
        <ele>966.6</ele>
        <time>2022-05-24 18:53:58</time>
      </trkpt>
      <trkpt lat="40.82619" lon="0.36688">
        <ele>966.2</ele>
        <time>2022-05-24 18:53:59</time>
      </trkpt>
      <trkpt lat="40.82612" lon="0.36683">
        <ele>965.6</ele>
        <time>2022-05-24 18:54:00</time>
      </trkpt>
      <trkpt lat="40.82605" lon="0.36677">
        <ele>965.2</ele>
        <time>2022-05-24 18:54:01</time>
      </trkpt>
      <trkpt lat="40.82598" lon="0.3667">
        <ele>964.8</ele>
        <time>2022-05-24 18:54:02</time>
      </trkpt>
      <trkpt lat="40.8259" lon="0.36664">
        <ele>964.4</ele>
        <time>2022-05-24 18:54:03</time>
      </trkpt>
      <trkpt lat="40.82582" lon="0.36656">
        <ele>963.8</ele>
        <time>2022-05-24 18:54:04</time>
      </trkpt>
      <trkpt lat="40.82573" lon="0.36649">
        <ele>963.2</ele>
        <time>2022-05-24 18:54:05</time>
      </trkpt>
      <trkpt lat="40.82564" lon="0.36642">
        <ele>962.6</ele>
        <time>2022-05-24 18:54:06</time>
      </trkpt>
      <trkpt lat="40.82555" lon="0.36636">
        <ele>962</ele>
        <time>2022-05-24 18:54:07</time>
      </trkpt>
      <trkpt lat="40.82545" lon="0.36631">
        <ele>961.2</ele>
        <time>2022-05-24 18:54:08</time>
      </trkpt>
      <trkpt lat="40.82534" lon="0.36627">
        <ele>960.4</ele>
        <time>2022-05-24 18:54:09</time>
      </trkpt>
      <trkpt lat="40.82524" lon="0.36623">
        <ele>959.6</ele>
        <time>2022-05-24 18:54:10</time>
      </trkpt>
      <trkpt lat="40.82513" lon="0.3662">
        <ele>958.4</ele>
        <time>2022-05-24 18:54:11</time>
      </trkpt>
      <trkpt lat="40.82502" lon="0.36618">
        <ele>957.4</ele>
        <time>2022-05-24 18:54:12</time>
      </trkpt>
      <trkpt lat="40.82492" lon="0.36614">
        <ele>956.4</ele>
        <time>2022-05-24 18:54:13</time>
      </trkpt>
      <trkpt lat="40.82484" lon="0.36611">
        <ele>955.6</ele>
        <time>2022-05-24 18:54:14</time>
      </trkpt>
      <trkpt lat="40.82476" lon="0.36608">
        <ele>955</ele>
        <time>2022-05-24 18:54:15</time>
      </trkpt>
      <trkpt lat="40.82469" lon="0.36605">
        <ele>954.6</ele>
        <time>2022-05-24 18:54:16</time>
      </trkpt>
      <trkpt lat="40.82463" lon="0.36603">
        <ele>954.2</ele>
        <time>2022-05-24 18:54:17</time>
      </trkpt>
      <trkpt lat="40.82459" lon="0.36604">
        <ele>953.6</ele>
        <time>2022-05-24 18:54:18</time>
      </trkpt>
      <trkpt lat="40.82456" lon="0.36607">
        <ele>953</ele>
        <time>2022-05-24 18:54:19</time>
      </trkpt>
      <trkpt lat="40.82456" lon="0.36613">
        <ele>952.4</ele>
        <time>2022-05-24 18:54:20</time>
      </trkpt>
      <trkpt lat="40.82458" lon="0.36619">
        <ele>951.6</ele>
        <time>2022-05-24 18:54:21</time>
      </trkpt>
      <trkpt lat="40.82462" lon="0.36624">
        <ele>951</ele>
        <time>2022-05-24 18:54:22</time>
      </trkpt>
      <trkpt lat="40.82468" lon="0.36628">
        <ele>950</ele>
        <time>2022-05-24 18:54:23</time>
      </trkpt>
      <trkpt lat="40.82475" lon="0.36632">
        <ele>949</ele>
        <time>2022-05-24 18:54:24</time>
      </trkpt>
      <trkpt lat="40.82481" lon="0.36635">
        <ele>948</ele>
        <time>2022-05-24 18:54:25</time>
      </trkpt>
      <trkpt lat="40.82489" lon="0.36641">
        <ele>947</ele>
        <time>2022-05-24 18:54:26</time>
      </trkpt>
      <trkpt lat="40.82497" lon="0.36646">
        <ele>946.2</ele>
        <time>2022-05-24 18:54:27</time>
      </trkpt>
      <trkpt lat="40.82505" lon="0.36652">
        <ele>945.4</ele>
        <time>2022-05-24 18:54:28</time>
      </trkpt>
      <trkpt lat="40.82515" lon="0.36659">
        <ele>944.4</ele>
        <time>2022-05-24 18:54:29</time>
      </trkpt>
      <trkpt lat="40.82524" lon="0.36668">
        <ele>943</ele>
        <time>2022-05-24 18:54:30</time>
      </trkpt>
      <trkpt lat="40.82533" lon="0.36678">
        <ele>941.6</ele>
        <time>2022-05-24 18:54:31</time>
      </trkpt>
      <trkpt lat="40.82541" lon="0.36689">
        <ele>940.2</ele>
        <time>2022-05-24 18:54:32</time>
      </trkpt>
      <trkpt lat="40.8255" lon="0.36701">
        <ele>938.8</ele>
        <time>2022-05-24 18:54:33</time>
      </trkpt>
      <trkpt lat="40.82558" lon="0.36713">
        <ele>937.2</ele>
        <time>2022-05-24 18:54:34</time>
      </trkpt>
      <trkpt lat="40.82566" lon="0.36724">
        <ele>936</ele>
        <time>2022-05-24 18:54:35</time>
      </trkpt>
      <trkpt lat="40.82574" lon="0.36736">
        <ele>934.6</ele>
        <time>2022-05-24 18:54:36</time>
      </trkpt>
      <trkpt lat="40.82582" lon="0.36748">
        <ele>933.4</ele>
        <time>2022-05-24 18:54:37</time>
      </trkpt>
      <trkpt lat="40.82588" lon="0.36761">
        <ele>932.2</ele>
        <time>2022-05-24 18:54:38</time>
      </trkpt>
      <trkpt lat="40.82595" lon="0.36773">
        <ele>931</ele>
        <time>2022-05-24 18:54:39</time>
      </trkpt>
      <trkpt lat="40.82602" lon="0.36784">
        <ele>929.6</ele>
        <time>2022-05-24 18:54:40</time>
      </trkpt>
      <trkpt lat="40.82609" lon="0.36795">
        <ele>928.6</ele>
        <time>2022-05-24 18:54:41</time>
      </trkpt>
      <trkpt lat="40.82615" lon="0.36806">
        <ele>927.6</ele>
        <time>2022-05-24 18:54:42</time>
      </trkpt>
      <trkpt lat="40.8262" lon="0.36816">
        <ele>926.8</ele>
        <time>2022-05-24 18:54:43</time>
      </trkpt>
      <trkpt lat="40.82624" lon="0.36824">
        <ele>926</ele>
        <time>2022-05-24 18:54:44</time>
      </trkpt>
      <trkpt lat="40.82627" lon="0.36831">
        <ele>925.2</ele>
        <time>2022-05-24 18:54:45</time>
      </trkpt>
      <trkpt lat="40.82628" lon="0.36837">
        <ele>924.8</ele>
        <time>2022-05-24 18:54:46</time>
      </trkpt>
      <trkpt lat="40.82627" lon="0.36843">
        <ele>924.2</ele>
        <time>2022-05-24 18:54:47</time>
      </trkpt>
      <trkpt lat="40.82626" lon="0.36846">
        <ele>923.4</ele>
        <time>2022-05-24 18:54:48</time>
      </trkpt>
      <trkpt lat="40.82623" lon="0.36846">
        <ele>922.6</ele>
        <time>2022-05-24 18:54:49</time>
      </trkpt>
      <trkpt lat="40.82619" lon="0.36844">
        <ele>921.8</ele>
        <time>2022-05-24 18:54:50</time>
      </trkpt>
      <trkpt lat="40.82615" lon="0.36838">
        <ele>921</ele>
        <time>2022-05-24 18:54:51</time>
      </trkpt>
      <trkpt lat="40.8261" lon="0.36831">
        <ele>920.2</ele>
        <time>2022-05-24 18:54:52</time>
      </trkpt>
      <trkpt lat="40.82604" lon="0.36824">
        <ele>919.6</ele>
        <time>2022-05-24 18:54:53</time>
      </trkpt>
      <trkpt lat="40.82597" lon="0.36817">
        <ele>919</ele>
        <time>2022-05-24 18:54:54</time>
      </trkpt>
      <trkpt lat="40.82589" lon="0.36811">
        <ele>918.4</ele>
        <time>2022-05-24 18:54:55</time>
      </trkpt>
      <trkpt lat="40.8258" lon="0.36806">
        <ele>917.8</ele>
        <time>2022-05-24 18:54:56</time>
      </trkpt>
      <trkpt lat="40.82571" lon="0.368">
        <ele>917</ele>
        <time>2022-05-24 18:54:57</time>
      </trkpt>
      <trkpt lat="40.82563" lon="0.36794">
        <ele>916.2</ele>
        <time>2022-05-24 18:54:58</time>
      </trkpt>
      <trkpt lat="40.82554" lon="0.36785">
        <ele>915.4</ele>
        <time>2022-05-24 18:54:59</time>
      </trkpt>
      <trkpt lat="40.82546" lon="0.36775">
        <ele>914.4</ele>
        <time>2022-05-24 18:55:00</time>
      </trkpt>
      <trkpt lat="40.82538" lon="0.36764">
        <ele>913.4</ele>
        <time>2022-05-24 18:55:01</time>
      </trkpt>
      <trkpt lat="40.8253" lon="0.36755">
        <ele>912.4</ele>
        <time>2022-05-24 18:55:02</time>
      </trkpt>
      <trkpt lat="40.8252" lon="0.36748">
        <ele>911.2</ele>
        <time>2022-05-24 18:55:03</time>
      </trkpt>
      <trkpt lat="40.8251" lon="0.36742">
        <ele>910.2</ele>
        <time>2022-05-24 18:55:04</time>
      </trkpt>
      <trkpt lat="40.82498" lon="0.36738">
        <ele>909.2</ele>
        <time>2022-05-24 18:55:05</time>
      </trkpt>
      <trkpt lat="40.82487" lon="0.36735">
        <ele>908</ele>
        <time>2022-05-24 18:55:06</time>
      </trkpt>
      <trkpt lat="40.82478" lon="0.3673">
        <ele>906.6</ele>
        <time>2022-05-24 18:55:07</time>
      </trkpt>
      <trkpt lat="40.8247" lon="0.36726">
        <ele>905.4</ele>
        <time>2022-05-24 18:55:08</time>
      </trkpt>
      <trkpt lat="40.82463" lon="0.36722">
        <ele>904.4</ele>
        <time>2022-05-24 18:55:09</time>
      </trkpt>
      <trkpt lat="40.82457" lon="0.36719">
        <ele>903.6</ele>
        <time>2022-05-24 18:55:10</time>
      </trkpt>
      <trkpt lat="40.82451" lon="0.36718">
        <ele>903</ele>
        <time>2022-05-24 18:55:11</time>
      </trkpt>
      <trkpt lat="40.82447" lon="0.36721">
        <ele>902.6</ele>
        <time>2022-05-24 18:55:12</time>
      </trkpt>
      <trkpt lat="40.82446" lon="0.36727">
        <ele>902</ele>
        <time>2022-05-24 18:55:13</time>
      </trkpt>
      <trkpt lat="40.82446" lon="0.36735">
        <ele>901.4</ele>
        <time>2022-05-24 18:55:14</time>
      </trkpt>
      <trkpt lat="40.82449" lon="0.36742">
        <ele>901</ele>
        <time>2022-05-24 18:55:15</time>
      </trkpt>
      <trkpt lat="40.82454" lon="0.3675">
        <ele>900.6</ele>
        <time>2022-05-24 18:55:16</time>
      </trkpt>
      <trkpt lat="40.8246" lon="0.36758">
        <ele>900</ele>
        <time>2022-05-24 18:55:17</time>
      </trkpt>
      <trkpt lat="40.82468" lon="0.36766">
        <ele>899.2</ele>
        <time>2022-05-24 18:55:18</time>
      </trkpt>
      <trkpt lat="40.82476" lon="0.36774">
        <ele>898.2</ele>
        <time>2022-05-24 18:55:19</time>
      </trkpt>
      <trkpt lat="40.82486" lon="0.36785">
        <ele>897.2</ele>
        <time>2022-05-24 18:55:20</time>
      </trkpt>
      <trkpt lat="40.82496" lon="0.36795">
        <ele>895.6</ele>
        <time>2022-05-24 18:55:21</time>
      </trkpt>
      <trkpt lat="40.82505" lon="0.36806">
        <ele>894.2</ele>
        <time>2022-05-24 18:55:22</time>
      </trkpt>
      <trkpt lat="40.82513" lon="0.36819">
        <ele>892.8</ele>
        <time>2022-05-24 18:55:23</time>
      </trkpt>
      <trkpt lat="40.82519" lon="0.36834">
        <ele>891.6</ele>
        <time>2022-05-24 18:55:24</time>
      </trkpt>
      <trkpt lat="40.82524" lon="0.36849">
        <ele>890.4</ele>
        <time>2022-05-24 18:55:25</time>
      </trkpt>
      <trkpt lat="40.82529" lon="0.36863">
        <ele>889.2</ele>
        <time>2022-05-24 18:55:26</time>
      </trkpt>
      <trkpt lat="40.82535" lon="0.36877">
        <ele>888</ele>
        <time>2022-05-24 18:55:27</time>
      </trkpt>
      <trkpt lat="40.82542" lon="0.3689">
        <ele>886.6</ele>
        <time>2022-05-24 18:55:28</time>
      </trkpt>
      <trkpt lat="40.82552" lon="0.369">
        <ele>885.4</ele>
        <time>2022-05-24 18:55:29</time>
      </trkpt>
      <trkpt lat="40.8256" lon="0.36909">
        <ele>884.2</ele>
        <time>2022-05-24 18:55:30</time>
      </trkpt>
      <trkpt lat="40.82569" lon="0.3692">
        <ele>883</ele>
        <time>2022-05-24 18:55:31</time>
      </trkpt>
      <trkpt lat="40.82577" lon="0.3693">
        <ele>881.6</ele>
        <time>2022-05-24 18:55:32</time>
      </trkpt>
      <trkpt lat="40.82584" lon="0.36943">
        <ele>880.4</ele>
        <time>2022-05-24 18:55:33</time>
      </trkpt>
      <trkpt lat="40.82588" lon="0.36957">
        <ele>879.4</ele>
        <time>2022-05-24 18:55:34</time>
      </trkpt>
      <trkpt lat="40.82591" lon="0.36971">
        <ele>878.2</ele>
        <time>2022-05-24 18:55:35</time>
      </trkpt>
      <trkpt lat="40.82594" lon="0.36986">
        <ele>877.4</ele>
        <time>2022-05-24 18:55:36</time>
      </trkpt>
      <trkpt lat="40.82595" lon="0.37">
        <ele>876.4</ele>
        <time>2022-05-24 18:55:37</time>
      </trkpt>
      <trkpt lat="40.82597" lon="0.37014">
        <ele>875.6</ele>
        <time>2022-05-24 18:55:38</time>
      </trkpt>
      <trkpt lat="40.82598" lon="0.37029">
        <ele>875</ele>
        <time>2022-05-24 18:55:39</time>
      </trkpt>
      <trkpt lat="40.82601" lon="0.37041">
        <ele>874.2</ele>
        <time>2022-05-24 18:55:40</time>
      </trkpt>
      <trkpt lat="40.82603" lon="0.37052">
        <ele>873.4</ele>
        <time>2022-05-24 18:55:41</time>
      </trkpt>
      <trkpt lat="40.82607" lon="0.37061">
        <ele>872.6</ele>
        <time>2022-05-24 18:55:42</time>
      </trkpt>
      <trkpt lat="40.82613" lon="0.3707">
        <ele>871.8</ele>
        <time>2022-05-24 18:55:43</time>
      </trkpt>
      <trkpt lat="40.82621" lon="0.37077">
        <ele>871</ele>
        <time>2022-05-24 18:55:44</time>
      </trkpt>
      <trkpt lat="40.8263" lon="0.37083">
        <ele>870</ele>
        <time>2022-05-24 18:55:45</time>
      </trkpt>
      <trkpt lat="40.8264" lon="0.37087">
        <ele>869</ele>
        <time>2022-05-24 18:55:46</time>
      </trkpt>
      <trkpt lat="40.8265" lon="0.37093">
        <ele>868</ele>
        <time>2022-05-24 18:55:47</time>
      </trkpt>
      <trkpt lat="40.8266" lon="0.37099">
        <ele>866.8</ele>
        <time>2022-05-24 18:55:48</time>
      </trkpt>
      <trkpt lat="40.82668" lon="0.37106">
        <ele>865.8</ele>
        <time>2022-05-24 18:55:49</time>
      </trkpt>
      <trkpt lat="40.82676" lon="0.37116">
        <ele>864.6</ele>
        <time>2022-05-24 18:55:50</time>
      </trkpt>
      <trkpt lat="40.82683" lon="0.37127">
        <ele>863.4</ele>
        <time>2022-05-24 18:55:51</time>
      </trkpt>
      <trkpt lat="40.82689" lon="0.37138">
        <ele>862.2</ele>
        <time>2022-05-24 18:55:52</time>
      </trkpt>
      <trkpt lat="40.82697" lon="0.37151">
        <ele>861</ele>
        <time>2022-05-24 18:55:53</time>
      </trkpt>
      <trkpt lat="40.82705" lon="0.37162">
        <ele>860</ele>
        <time>2022-05-24 18:55:54</time>
      </trkpt>
      <trkpt lat="40.82713" lon="0.37173">
        <ele>859</ele>
        <time>2022-05-24 18:55:55</time>
      </trkpt>
      <trkpt lat="40.82721" lon="0.37183">
        <ele>858</ele>
        <time>2022-05-24 18:55:56</time>
      </trkpt>
      <trkpt lat="40.82728" lon="0.37192">
        <ele>857.2</ele>
        <time>2022-05-24 18:55:57</time>
      </trkpt>
      <trkpt lat="40.82735" lon="0.37199">
        <ele>856</ele>
        <time>2022-05-24 18:55:58</time>
      </trkpt>
      <trkpt lat="40.8274" lon="0.37208">
        <ele>855</ele>
        <time>2022-05-24 18:55:59</time>
      </trkpt>
      <trkpt lat="40.82742" lon="0.37218">
        <ele>854</ele>
        <time>2022-05-24 18:56:00</time>
      </trkpt>
      <trkpt lat="40.82743" lon="0.37228">
        <ele>853</ele>
        <time>2022-05-24 18:56:01</time>
      </trkpt>
      <trkpt lat="40.82745" lon="0.37238">
        <ele>852</ele>
        <time>2022-05-24 18:56:02</time>
      </trkpt>
      <trkpt lat="40.82746" lon="0.37247">
        <ele>851</ele>
        <time>2022-05-24 18:56:03</time>
      </trkpt>
      <trkpt lat="40.82749" lon="0.37255">
        <ele>850</ele>
        <time>2022-05-24 18:56:04</time>
      </trkpt>
      <trkpt lat="40.82752" lon="0.37262">
        <ele>849.2</ele>
        <time>2022-05-24 18:56:05</time>
      </trkpt>
      <trkpt lat="40.82757" lon="0.37266">
        <ele>848.4</ele>
        <time>2022-05-24 18:56:06</time>
      </trkpt>
      <trkpt lat="40.82764" lon="0.37267">
        <ele>847.4</ele>
        <time>2022-05-24 18:56:07</time>
      </trkpt>
      <trkpt lat="40.8277" lon="0.37263">
        <ele>846</ele>
        <time>2022-05-24 18:56:08</time>
      </trkpt>
      <trkpt lat="40.82776" lon="0.37257">
        <ele>845</ele>
        <time>2022-05-24 18:56:09</time>
      </trkpt>
      <trkpt lat="40.8278" lon="0.3725">
        <ele>843.8</ele>
        <time>2022-05-24 18:56:10</time>
      </trkpt>
      <trkpt lat="40.82784" lon="0.37242">
        <ele>843</ele>
        <time>2022-05-24 18:56:11</time>
      </trkpt>
      <trkpt lat="40.82788" lon="0.37233">
        <ele>842.2</ele>
        <time>2022-05-24 18:56:12</time>
      </trkpt>
      <trkpt lat="40.82791" lon="0.37223">
        <ele>841.6</ele>
        <time>2022-05-24 18:56:13</time>
      </trkpt>
      <trkpt lat="40.82794" lon="0.37213">
        <ele>841</ele>
        <time>2022-05-24 18:56:14</time>
      </trkpt>
      <trkpt lat="40.82796" lon="0.37203">
        <ele>840.2</ele>
        <time>2022-05-24 18:56:15</time>
      </trkpt>
      <trkpt lat="40.828" lon="0.37192">
        <ele>839.2</ele>
        <time>2022-05-24 18:56:16</time>
      </trkpt>
      <trkpt lat="40.82804" lon="0.37181">
        <ele>838.4</ele>
        <time>2022-05-24 18:56:17</time>
      </trkpt>
      <trkpt lat="40.82809" lon="0.37171">
        <ele>837.6</ele>
        <time>2022-05-24 18:56:18</time>
      </trkpt>
      <trkpt lat="40.82816" lon="0.37162">
        <ele>837</ele>
        <time>2022-05-24 18:56:19</time>
      </trkpt>
      <trkpt lat="40.82823" lon="0.37155">
        <ele>836.6</ele>
        <time>2022-05-24 18:56:20</time>
      </trkpt>
      <trkpt lat="40.82833" lon="0.37151">
        <ele>836</ele>
        <time>2022-05-24 18:56:21</time>
      </trkpt>
      <trkpt lat="40.82843" lon="0.3715">
        <ele>835.2</ele>
        <time>2022-05-24 18:56:22</time>
      </trkpt>
      <trkpt lat="40.82854" lon="0.37149">
        <ele>834.4</ele>
        <time>2022-05-24 18:56:23</time>
      </trkpt>
      <trkpt lat="40.82866" lon="0.37151">
        <ele>833.2</ele>
        <time>2022-05-24 18:56:24</time>
      </trkpt>
      <trkpt lat="40.82877" lon="0.37153">
        <ele>831.8</ele>
        <time>2022-05-24 18:56:25</time>
      </trkpt>
      <trkpt lat="40.82888" lon="0.37157">
        <ele>830.6</ele>
        <time>2022-05-24 18:56:26</time>
      </trkpt>
      <trkpt lat="40.82899" lon="0.37162">
        <ele>830</ele>
        <time>2022-05-24 18:56:27</time>
      </trkpt>
      <trkpt lat="40.82909" lon="0.37167">
        <ele>829.4</ele>
        <time>2022-05-24 18:56:28</time>
      </trkpt>
      <trkpt lat="40.8292" lon="0.37174">
        <ele>828.6</ele>
        <time>2022-05-24 18:56:29</time>
      </trkpt>
      <trkpt lat="40.82932" lon="0.3718">
        <ele>827.4</ele>
        <time>2022-05-24 18:56:30</time>
      </trkpt>
      <trkpt lat="40.82941" lon="0.37186">
        <ele>827</ele>
        <time>2022-05-24 18:56:31</time>
      </trkpt>
      <trkpt lat="40.8295" lon="0.37191">
        <ele>825.6</ele>
        <time>2022-05-24 18:56:32</time>
      </trkpt>
      <trkpt lat="40.82957" lon="0.37197">
        <ele>824.8</ele>
        <time>2022-05-24 18:56:33</time>
      </trkpt>
      <trkpt lat="40.82964" lon="0.37203">
        <ele>823.6</ele>
        <time>2022-05-24 18:56:34</time>
      </trkpt>
      <trkpt lat="40.8297" lon="0.37212">
        <ele>822.4</ele>
        <time>2022-05-24 18:56:35</time>
      </trkpt>
      <trkpt lat="40.82974" lon="0.37221">
        <ele>821.4</ele>
        <time>2022-05-24 18:56:36</time>
      </trkpt>
      <trkpt lat="40.82977" lon="0.37231">
        <ele>820.4</ele>
        <time>2022-05-24 18:56:37</time>
      </trkpt>
      <trkpt lat="40.8298" lon="0.3724">
        <ele>819.6</ele>
        <time>2022-05-24 18:56:38</time>
      </trkpt>
      <trkpt lat="40.82981" lon="0.37249">
        <ele>819</ele>
        <time>2022-05-24 18:56:39</time>
      </trkpt>
      <trkpt lat="40.82983" lon="0.3726">
        <ele>818.6</ele>
        <time>2022-05-24 18:56:40</time>
      </trkpt>
      <trkpt lat="40.82984" lon="0.37269">
        <ele>818</ele>
        <time>2022-05-24 18:56:41</time>
      </trkpt>
      <trkpt lat="40.82986" lon="0.37279">
        <ele>817.4</ele>
        <time>2022-05-24 18:56:42</time>
      </trkpt>
      <trkpt lat="40.82988" lon="0.37289">
        <ele>816.6</ele>
        <time>2022-05-24 18:56:43</time>
      </trkpt>
      <trkpt lat="40.82991" lon="0.37298">
        <ele>816</ele>
        <time>2022-05-24 18:56:44</time>
      </trkpt>
      <trkpt lat="40.82995" lon="0.37307">
        <ele>815.4</ele>
        <time>2022-05-24 18:56:45</time>
      </trkpt>
      <trkpt lat="40.83001" lon="0.37316">
        <ele>814.8</ele>
        <time>2022-05-24 18:56:46</time>
      </trkpt>
      <trkpt lat="40.83006" lon="0.37325">
        <ele>814.2</ele>
        <time>2022-05-24 18:56:47</time>
      </trkpt>
      <trkpt lat="40.83009" lon="0.37332">
        <ele>813.6</ele>
        <time>2022-05-24 18:56:48</time>
      </trkpt>
      <trkpt lat="40.8301" lon="0.37338">
        <ele>813</ele>
        <time>2022-05-24 18:56:49</time>
      </trkpt>
      <trkpt lat="40.83011" lon="0.37344">
        <ele>812.6</ele>
        <time>2022-05-24 18:56:50</time>
      </trkpt>
      <trkpt lat="40.83009" lon="0.37348">
        <ele>812</ele>
        <time>2022-05-24 18:56:51</time>
      </trkpt>
      <trkpt lat="40.83005" lon="0.3735">
        <ele>811.4</ele>
        <time>2022-05-24 18:56:52</time>
      </trkpt>
      <trkpt lat="40.82998" lon="0.37348">
        <ele>810.4</ele>
        <time>2022-05-24 18:56:53</time>
      </trkpt>
      <trkpt lat="40.82993" lon="0.37344">
        <ele>809.6</ele>
        <time>2022-05-24 18:56:54</time>
      </trkpt>
      <trkpt lat="40.82988" lon="0.37339">
        <ele>809</ele>
        <time>2022-05-24 18:56:55</time>
      </trkpt>
      <trkpt lat="40.82983" lon="0.37332">
        <ele>808.6</ele>
        <time>2022-05-24 18:56:56</time>
      </trkpt>
      <trkpt lat="40.82979" lon="0.37325">
        <ele>808.2</ele>
        <time>2022-05-24 18:56:57</time>
      </trkpt>
      <trkpt lat="40.82975" lon="0.37319">
        <ele>808.2</ele>
        <time>2022-05-24 18:56:58</time>
      </trkpt>
      <trkpt lat="40.82972" lon="0.37312">
        <ele>808.2</ele>
        <time>2022-05-24 18:56:59</time>
      </trkpt>
      <trkpt lat="40.82968" lon="0.37305">
        <ele>808.2</ele>
        <time>2022-05-24 18:57:00</time>
      </trkpt>
      <trkpt lat="40.82964" lon="0.37298">
        <ele>808</ele>
        <time>2022-05-24 18:57:01</time>
      </trkpt>
      <trkpt lat="40.82961" lon="0.3729">
        <ele>807.4</ele>
        <time>2022-05-24 18:57:02</time>
      </trkpt>
      <trkpt lat="40.82957" lon="0.37282">
        <ele>807.2</ele>
        <time>2022-05-24 18:57:03</time>
      </trkpt>
      <trkpt lat="40.82954" lon="0.37274">
        <ele>806.6</ele>
        <time>2022-05-24 18:57:04</time>
      </trkpt>
      <trkpt lat="40.8295" lon="0.37266">
        <ele>806</ele>
        <time>2022-05-24 18:57:05</time>
      </trkpt>
      <trkpt lat="40.82946" lon="0.37259">
        <ele>805.6</ele>
        <time>2022-05-24 18:57:06</time>
      </trkpt>
      <trkpt lat="40.8294" lon="0.37251">
        <ele>804.4</ele>
        <time>2022-05-24 18:57:07</time>
      </trkpt>
      <trkpt lat="40.82933" lon="0.37245">
        <ele>803.2</ele>
        <time>2022-05-24 18:57:08</time>
      </trkpt>
      <trkpt lat="40.82925" lon="0.37241">
        <ele>802</ele>
        <time>2022-05-24 18:57:09</time>
      </trkpt>
      <trkpt lat="40.82918" lon="0.37238">
        <ele>801.2</ele>
        <time>2022-05-24 18:57:10</time>
      </trkpt>
      <trkpt lat="40.82909" lon="0.37237">
        <ele>800.6</ele>
        <time>2022-05-24 18:57:11</time>
      </trkpt>
      <trkpt lat="40.82901" lon="0.37238">
        <ele>799.6</ele>
        <time>2022-05-24 18:57:12</time>
      </trkpt>
      <trkpt lat="40.82892" lon="0.37242">
        <ele>798.6</ele>
        <time>2022-05-24 18:57:13</time>
      </trkpt>
      <trkpt lat="40.82885" lon="0.37247">
        <ele>797.8</ele>
        <time>2022-05-24 18:57:14</time>
      </trkpt>
      <trkpt lat="40.82878" lon="0.37255">
        <ele>797</ele>
        <time>2022-05-24 18:57:15</time>
      </trkpt>
      <trkpt lat="40.82872" lon="0.37265">
        <ele>796</ele>
        <time>2022-05-24 18:57:16</time>
      </trkpt>
      <trkpt lat="40.82867" lon="0.37276">
        <ele>795.2</ele>
        <time>2022-05-24 18:57:17</time>
      </trkpt>
      <trkpt lat="40.82864" lon="0.3729">
        <ele>794</ele>
        <time>2022-05-24 18:57:18</time>
      </trkpt>
      <trkpt lat="40.8286" lon="0.37305">
        <ele>793</ele>
        <time>2022-05-24 18:57:19</time>
      </trkpt>
      <trkpt lat="40.82856" lon="0.37319">
        <ele>791.8</ele>
        <time>2022-05-24 18:57:20</time>
      </trkpt>
      <trkpt lat="40.82852" lon="0.37335">
        <ele>790.4</ele>
        <time>2022-05-24 18:57:21</time>
      </trkpt>
      <trkpt lat="40.82848" lon="0.3735">
        <ele>789.4</ele>
        <time>2022-05-24 18:57:22</time>
      </trkpt>
      <trkpt lat="40.82844" lon="0.37365">
        <ele>788.4</ele>
        <time>2022-05-24 18:57:23</time>
      </trkpt>
      <trkpt lat="40.82841" lon="0.3738">
        <ele>787.2</ele>
        <time>2022-05-24 18:57:24</time>
      </trkpt>
      <trkpt lat="40.82837" lon="0.37395">
        <ele>786.2</ele>
        <time>2022-05-24 18:57:25</time>
      </trkpt>
      <trkpt lat="40.82832" lon="0.37409">
        <ele>785</ele>
        <time>2022-05-24 18:57:26</time>
      </trkpt>
      <trkpt lat="40.82825" lon="0.37421">
        <ele>783.6</ele>
        <time>2022-05-24 18:57:27</time>
      </trkpt>
      <trkpt lat="40.82818" lon="0.37431">
        <ele>782.2</ele>
        <time>2022-05-24 18:57:28</time>
      </trkpt>
      <trkpt lat="40.8281" lon="0.37441">
        <ele>780.6</ele>
        <time>2022-05-24 18:57:29</time>
      </trkpt>
      <trkpt lat="40.82801" lon="0.37448">
        <ele>778.8</ele>
        <time>2022-05-24 18:57:30</time>
      </trkpt>
      <trkpt lat="40.82792" lon="0.37455">
        <ele>777.2</ele>
        <time>2022-05-24 18:57:31</time>
      </trkpt>
      <trkpt lat="40.82784" lon="0.37461">
        <ele>775.8</ele>
        <time>2022-05-24 18:57:32</time>
      </trkpt>
      <trkpt lat="40.82778" lon="0.37465">
        <ele>774.8</ele>
        <time>2022-05-24 18:57:33</time>
      </trkpt>
      <trkpt lat="40.8277" lon="0.37468">
        <ele>773.6</ele>
        <time>2022-05-24 18:57:34</time>
      </trkpt>
      <trkpt lat="40.82763" lon="0.37468">
        <ele>772.4</ele>
        <time>2022-05-24 18:57:35</time>
      </trkpt>
      <trkpt lat="40.82757" lon="0.37466">
        <ele>771.4</ele>
        <time>2022-05-24 18:57:36</time>
      </trkpt>
      <trkpt lat="40.8275" lon="0.37461">
        <ele>770.6</ele>
        <time>2022-05-24 18:57:37</time>
      </trkpt>
      <trkpt lat="40.82744" lon="0.37455">
        <ele>769.6</ele>
        <time>2022-05-24 18:57:38</time>
      </trkpt>
      <trkpt lat="40.82739" lon="0.37446">
        <ele>768.6</ele>
        <time>2022-05-24 18:57:39</time>
      </trkpt>
      <trkpt lat="40.82734" lon="0.37439">
        <ele>767.6</ele>
        <time>2022-05-24 18:57:40</time>
      </trkpt>
      <trkpt lat="40.82726" lon="0.37431">
        <ele>766.8</ele>
        <time>2022-05-24 18:57:41</time>
      </trkpt>
      <trkpt lat="40.82718" lon="0.37428">
        <ele>766.2</ele>
        <time>2022-05-24 18:57:42</time>
      </trkpt>
      <trkpt lat="40.8271" lon="0.37427">
        <ele>765.4</ele>
        <time>2022-05-24 18:57:43</time>
      </trkpt>
      <trkpt lat="40.82701" lon="0.37427">
        <ele>764.8</ele>
        <time>2022-05-24 18:57:44</time>
      </trkpt>
      <trkpt lat="40.82692" lon="0.37427">
        <ele>764.2</ele>
        <time>2022-05-24 18:57:45</time>
      </trkpt>
      <trkpt lat="40.82682" lon="0.37428">
        <ele>763.2</ele>
        <time>2022-05-24 18:57:46</time>
      </trkpt>
      <trkpt lat="40.82672" lon="0.37428">
        <ele>762.2</ele>
        <time>2022-05-24 18:57:47</time>
      </trkpt>
      <trkpt lat="40.82661" lon="0.37427">
        <ele>761.2</ele>
        <time>2022-05-24 18:57:48</time>
      </trkpt>
      <trkpt lat="40.8265" lon="0.37425">
        <ele>760.2</ele>
        <time>2022-05-24 18:57:49</time>
      </trkpt>
      <trkpt lat="40.82639" lon="0.37422">
        <ele>759.2</ele>
        <time>2022-05-24 18:57:50</time>
      </trkpt>
      <trkpt lat="40.82628" lon="0.37418">
        <ele>758</ele>
        <time>2022-05-24 18:57:51</time>
      </trkpt>
      <trkpt lat="40.82619" lon="0.37414">
        <ele>756.8</ele>
        <time>2022-05-24 18:57:52</time>
      </trkpt>
      <trkpt lat="40.8261" lon="0.3741">
        <ele>755.8</ele>
        <time>2022-05-24 18:57:53</time>
      </trkpt>
      <trkpt lat="40.82603" lon="0.37405">
        <ele>754.8</ele>
        <time>2022-05-24 18:57:54</time>
      </trkpt>
      <trkpt lat="40.82598" lon="0.37397">
        <ele>753.8</ele>
        <time>2022-05-24 18:57:55</time>
      </trkpt>
      <trkpt lat="40.82595" lon="0.37389">
        <ele>753.2</ele>
        <time>2022-05-24 18:57:56</time>
      </trkpt>
      <trkpt lat="40.82593" lon="0.3738">
        <ele>752.8</ele>
        <time>2022-05-24 18:57:57</time>
      </trkpt>
      <trkpt lat="40.82592" lon="0.37371">
        <ele>752.6</ele>
        <time>2022-05-24 18:57:58</time>
      </trkpt>
      <trkpt lat="40.82592" lon="0.37363">
        <ele>752.4</ele>
        <time>2022-05-24 18:57:59</time>
      </trkpt>
      <trkpt lat="40.82593" lon="0.37354">
        <ele>752.2</ele>
        <time>2022-05-24 18:58:00</time>
      </trkpt>
      <trkpt lat="40.82595" lon="0.37347">
        <ele>752.2</ele>
        <time>2022-05-24 18:58:01</time>
      </trkpt>
      <trkpt lat="40.82596" lon="0.37341">
        <ele>752.2</ele>
        <time>2022-05-24 18:58:02</time>
      </trkpt>
      <trkpt lat="40.82598" lon="0.37334">
        <ele>752.2</ele>
        <time>2022-05-24 18:58:03</time>
      </trkpt>
      <trkpt lat="40.82599" lon="0.37328">
        <ele>752.2</ele>
        <time>2022-05-24 18:58:04</time>
      </trkpt>
      <trkpt lat="40.826" lon="0.37322">
        <ele>752.4</ele>
        <time>2022-05-24 18:58:05</time>
      </trkpt>
      <trkpt lat="40.82602" lon="0.37316">
        <ele>752.4</ele>
        <time>2022-05-24 18:58:06</time>
      </trkpt>
      <trkpt lat="40.82603" lon="0.37309">
        <ele>752.2</ele>
        <time>2022-05-24 18:58:07</time>
      </trkpt>
      <trkpt lat="40.82603" lon="0.37301">
        <ele>751.8</ele>
        <time>2022-05-24 18:58:08</time>
      </trkpt>
      <trkpt lat="40.82602" lon="0.37293">
        <ele>751.2</ele>
        <time>2022-05-24 18:58:09</time>
      </trkpt>
      <trkpt lat="40.82599" lon="0.37285">
        <ele>750.4</ele>
        <time>2022-05-24 18:58:10</time>
      </trkpt>
      <trkpt lat="40.82594" lon="0.37277">
        <ele>749.8</ele>
        <time>2022-05-24 18:58:11</time>
      </trkpt>
      <trkpt lat="40.82589" lon="0.37271">
        <ele>749.4</ele>
        <time>2022-05-24 18:58:12</time>
      </trkpt>
      <trkpt lat="40.82581" lon="0.37266">
        <ele>748.8</ele>
        <time>2022-05-24 18:58:13</time>
      </trkpt>
      <trkpt lat="40.82573" lon="0.37261">
        <ele>748.4</ele>
        <time>2022-05-24 18:58:14</time>
      </trkpt>
      <trkpt lat="40.82563" lon="0.37257">
        <ele>747.8</ele>
        <time>2022-05-24 18:58:15</time>
      </trkpt>
      <trkpt lat="40.82555" lon="0.37253">
        <ele>747</ele>
        <time>2022-05-24 18:58:16</time>
      </trkpt>
      <trkpt lat="40.82546" lon="0.37249">
        <ele>746.2</ele>
        <time>2022-05-24 18:58:17</time>
      </trkpt>
      <trkpt lat="40.82537" lon="0.37246">
        <ele>745.4</ele>
        <time>2022-05-24 18:58:18</time>
      </trkpt>
      <trkpt lat="40.82529" lon="0.37244">
        <ele>744.8</ele>
        <time>2022-05-24 18:58:19</time>
      </trkpt>
      <trkpt lat="40.82522" lon="0.37242">
        <ele>744.4</ele>
        <time>2022-05-24 18:58:20</time>
      </trkpt>
      <trkpt lat="40.82514" lon="0.3724">
        <ele>743.8</ele>
        <time>2022-05-24 18:58:21</time>
      </trkpt>
      <trkpt lat="40.82508" lon="0.37239">
        <ele>743.2</ele>
        <time>2022-05-24 18:58:22</time>
      </trkpt>
      <trkpt lat="40.82502" lon="0.37237">
        <ele>742.6</ele>
        <time>2022-05-24 18:58:23</time>
      </trkpt>
      <trkpt lat="40.82498" lon="0.37236">
        <ele>742.2</ele>
        <time>2022-05-24 18:58:24</time>
      </trkpt>
      <trkpt lat="40.82495" lon="0.37236">
        <ele>741.6</ele>
        <time>2022-05-24 18:58:25</time>
      </trkpt>
      <trkpt lat="40.82493" lon="0.37236">
        <ele>741.2</ele>
        <time>2022-05-24 18:58:26</time>
      </trkpt>
      <trkpt lat="40.82489" lon="0.37235">
        <ele>740.8</ele>
        <time>2022-05-24 18:58:27</time>
      </trkpt>
      <trkpt lat="40.82486" lon="0.37234">
        <ele>740.4</ele>
        <time>2022-05-24 18:58:28</time>
      </trkpt>
      <trkpt lat="40.82483" lon="0.37231">
        <ele>739.8</ele>
        <time>2022-05-24 18:58:29</time>
      </trkpt>
      <trkpt lat="40.82479" lon="0.37228">
        <ele>739.2</ele>
        <time>2022-05-24 18:58:30</time>
      </trkpt>
      <trkpt lat="40.82474" lon="0.37224">
        <ele>738.6</ele>
        <time>2022-05-24 18:58:31</time>
      </trkpt>
      <trkpt lat="40.8247" lon="0.37219">
        <ele>738.2</ele>
        <time>2022-05-24 18:58:32</time>
      </trkpt>
      <trkpt lat="40.82465" lon="0.37214">
        <ele>737.6</ele>
        <time>2022-05-24 18:58:33</time>
      </trkpt>
      <trkpt lat="40.82459" lon="0.37209">
        <ele>736.8</ele>
        <time>2022-05-24 18:58:34</time>
      </trkpt>
      <trkpt lat="40.82454" lon="0.37203">
        <ele>736.2</ele>
        <time>2022-05-24 18:58:35</time>
      </trkpt>
      <trkpt lat="40.82449" lon="0.37196">
        <ele>735.6</ele>
        <time>2022-05-24 18:58:36</time>
      </trkpt>
      <trkpt lat="40.82443" lon="0.37189">
        <ele>734.8</ele>
        <time>2022-05-24 18:58:37</time>
      </trkpt>
      <trkpt lat="40.82436" lon="0.37184">
        <ele>733.8</ele>
        <time>2022-05-24 18:58:38</time>
      </trkpt>
      <trkpt lat="40.8243" lon="0.37181">
        <ele>733.2</ele>
        <time>2022-05-24 18:58:39</time>
      </trkpt>
      <trkpt lat="40.82423" lon="0.37182">
        <ele>732.6</ele>
        <time>2022-05-24 18:58:40</time>
      </trkpt>
      <trkpt lat="40.82415" lon="0.37186">
        <ele>732</ele>
        <time>2022-05-24 18:58:41</time>
      </trkpt>
      <trkpt lat="40.82409" lon="0.37192">
        <ele>731.4</ele>
        <time>2022-05-24 18:58:42</time>
      </trkpt>
      <trkpt lat="40.82403" lon="0.37199">
        <ele>730.8</ele>
        <time>2022-05-24 18:58:43</time>
      </trkpt>
      <trkpt lat="40.82397" lon="0.37207">
        <ele>730</ele>
        <time>2022-05-24 18:58:44</time>
      </trkpt>
      <trkpt lat="40.82392" lon="0.37217">
        <ele>729</ele>
        <time>2022-05-24 18:58:45</time>
      </trkpt>
      <trkpt lat="40.82386" lon="0.37228">
        <ele>727.8</ele>
        <time>2022-05-24 18:58:46</time>
      </trkpt>
      <trkpt lat="40.82381" lon="0.3724">
        <ele>726.6</ele>
        <time>2022-05-24 18:58:47</time>
      </trkpt>
      <trkpt lat="40.82377" lon="0.37251">
        <ele>725.4</ele>
        <time>2022-05-24 18:58:48</time>
      </trkpt>
      <trkpt lat="40.82372" lon="0.37267">
        <ele>724.2</ele>
        <time>2022-05-24 18:58:49</time>
      </trkpt>
      <trkpt lat="40.82366" lon="0.3728">
        <ele>723</ele>
        <time>2022-05-24 18:58:50</time>
      </trkpt>
      <trkpt lat="40.82362" lon="0.37294">
        <ele>721.8</ele>
        <time>2022-05-24 18:58:51</time>
      </trkpt>
      <trkpt lat="40.82357" lon="0.37308">
        <ele>720.8</ele>
        <time>2022-05-24 18:58:52</time>
      </trkpt>
      <trkpt lat="40.82353" lon="0.37321">
        <ele>719.6</ele>
        <time>2022-05-24 18:58:53</time>
      </trkpt>
      <trkpt lat="40.82349" lon="0.37335">
        <ele>718.4</ele>
        <time>2022-05-24 18:58:54</time>
      </trkpt>
      <trkpt lat="40.82346" lon="0.3735">
        <ele>717</ele>
        <time>2022-05-24 18:58:55</time>
      </trkpt>
      <trkpt lat="40.82345" lon="0.37363">
        <ele>715.8</ele>
        <time>2022-05-24 18:58:56</time>
      </trkpt>
      <trkpt lat="40.82344" lon="0.37378">
        <ele>714.8</ele>
        <time>2022-05-24 18:58:57</time>
      </trkpt>
      <trkpt lat="40.82344" lon="0.37394">
        <ele>713.8</ele>
        <time>2022-05-24 18:58:58</time>
      </trkpt>
      <trkpt lat="40.82343" lon="0.37408">
        <ele>712.8</ele>
        <time>2022-05-24 18:58:59</time>
      </trkpt>
      <trkpt lat="40.8234" lon="0.37423">
        <ele>711.6</ele>
        <time>2022-05-24 18:59:00</time>
      </trkpt>
      <trkpt lat="40.82337" lon="0.37439">
        <ele>710.4</ele>
        <time>2022-05-24 18:59:01</time>
      </trkpt>
      <trkpt lat="40.82333" lon="0.37455">
        <ele>709</ele>
        <time>2022-05-24 18:59:02</time>
      </trkpt>
      <trkpt lat="40.82328" lon="0.3747">
        <ele>707.4</ele>
        <time>2022-05-24 18:59:03</time>
      </trkpt>
      <trkpt lat="40.82324" lon="0.37486">
        <ele>706</ele>
        <time>2022-05-24 18:59:04</time>
      </trkpt>
      <trkpt lat="40.8232" lon="0.37502">
        <ele>704.6</ele>
        <time>2022-05-24 18:59:05</time>
      </trkpt>
      <trkpt lat="40.82317" lon="0.37519">
        <ele>703.2</ele>
        <time>2022-05-24 18:59:06</time>
      </trkpt>
      <trkpt lat="40.82314" lon="0.37534">
        <ele>702</ele>
        <time>2022-05-24 18:59:07</time>
      </trkpt>
      <trkpt lat="40.8231" lon="0.3755">
        <ele>701</ele>
        <time>2022-05-24 18:59:08</time>
      </trkpt>
      <trkpt lat="40.82306" lon="0.37562">
        <ele>699.8</ele>
        <time>2022-05-24 18:59:09</time>
      </trkpt>
      <trkpt lat="40.82301" lon="0.37574">
        <ele>698.8</ele>
        <time>2022-05-24 18:59:10</time>
      </trkpt>
      <trkpt lat="40.82296" lon="0.37585">
        <ele>697.6</ele>
        <time>2022-05-24 18:59:11</time>
      </trkpt>
      <trkpt lat="40.82292" lon="0.37596">
        <ele>696.6</ele>
        <time>2022-05-24 18:59:12</time>
      </trkpt>
      <trkpt lat="40.82289" lon="0.37607">
        <ele>695.4</ele>
        <time>2022-05-24 18:59:13</time>
      </trkpt>
      <trkpt lat="40.82288" lon="0.37617">
        <ele>694.4</ele>
        <time>2022-05-24 18:59:14</time>
      </trkpt>
      <trkpt lat="40.82289" lon="0.37632">
        <ele>693.4</ele>
        <time>2022-05-24 18:59:15</time>
      </trkpt>
      <trkpt lat="40.82291" lon="0.37644">
        <ele>692.4</ele>
        <time>2022-05-24 18:59:16</time>
      </trkpt>
      <trkpt lat="40.82294" lon="0.37656">
        <ele>691.4</ele>
        <time>2022-05-24 18:59:17</time>
      </trkpt>
      <trkpt lat="40.82298" lon="0.37668">
        <ele>690.4</ele>
        <time>2022-05-24 18:59:18</time>
      </trkpt>
      <trkpt lat="40.82301" lon="0.3768">
        <ele>689.4</ele>
        <time>2022-05-24 18:59:19</time>
      </trkpt>
      <trkpt lat="40.82303" lon="0.37692">
        <ele>688.2</ele>
        <time>2022-05-24 18:59:20</time>
      </trkpt>
      <trkpt lat="40.82305" lon="0.37705">
        <ele>687.2</ele>
        <time>2022-05-24 18:59:21</time>
      </trkpt>
      <trkpt lat="40.82306" lon="0.37718">
        <ele>685.8</ele>
        <time>2022-05-24 18:59:22</time>
      </trkpt>
      <trkpt lat="40.82306" lon="0.37731">
        <ele>684.4</ele>
        <time>2022-05-24 18:59:23</time>
      </trkpt>
      <trkpt lat="40.82304" lon="0.37745">
        <ele>683.2</ele>
        <time>2022-05-24 18:59:24</time>
      </trkpt>
      <trkpt lat="40.82301" lon="0.37757">
        <ele>681.8</ele>
        <time>2022-05-24 18:59:25</time>
      </trkpt>
      <trkpt lat="40.823" lon="0.3777">
        <ele>680.4</ele>
        <time>2022-05-24 18:59:26</time>
      </trkpt>
      <trkpt lat="40.82301" lon="0.37784">
        <ele>679</ele>
        <time>2022-05-24 18:59:27</time>
      </trkpt>
      <trkpt lat="40.82302" lon="0.37797">
        <ele>677.8</ele>
        <time>2022-05-24 18:59:28</time>
      </trkpt>
      <trkpt lat="40.82305" lon="0.37811">
        <ele>676.6</ele>
        <time>2022-05-24 18:59:29</time>
      </trkpt>
      <trkpt lat="40.82309" lon="0.37825">
        <ele>675.6</ele>
        <time>2022-05-24 18:59:30</time>
      </trkpt>
      <trkpt lat="40.82313" lon="0.37838">
        <ele>674.8</ele>
        <time>2022-05-24 18:59:31</time>
      </trkpt>
      <trkpt lat="40.82316" lon="0.37852">
        <ele>673.8</ele>
        <time>2022-05-24 18:59:32</time>
      </trkpt>
      <trkpt lat="40.82318" lon="0.37868">
        <ele>672.8</ele>
        <time>2022-05-24 18:59:33</time>
      </trkpt>
      <trkpt lat="40.8232" lon="0.37884">
        <ele>671.6</ele>
        <time>2022-05-24 18:59:34</time>
      </trkpt>
      <trkpt lat="40.82322" lon="0.379">
        <ele>670.4</ele>
        <time>2022-05-24 18:59:35</time>
      </trkpt>
      <trkpt lat="40.82325" lon="0.37917">
        <ele>669.2</ele>
        <time>2022-05-24 18:59:36</time>
      </trkpt>
      <trkpt lat="40.82327" lon="0.37933">
        <ele>668</ele>
        <time>2022-05-24 18:59:37</time>
      </trkpt>
      <trkpt lat="40.8233" lon="0.37948">
        <ele>667</ele>
        <time>2022-05-24 18:59:38</time>
      </trkpt>
      <trkpt lat="40.82333" lon="0.37962">
        <ele>666</ele>
        <time>2022-05-24 18:59:39</time>
      </trkpt>
      <trkpt lat="40.82334" lon="0.37973">
        <ele>665.2</ele>
        <time>2022-05-24 18:59:40</time>
      </trkpt>
      <trkpt lat="40.82336" lon="0.37988">
        <ele>664.2</ele>
        <time>2022-05-24 18:59:41</time>
      </trkpt>
      <trkpt lat="40.82336" lon="0.38001">
        <ele>663.2</ele>
        <time>2022-05-24 18:59:42</time>
      </trkpt>
      <trkpt lat="40.82335" lon="0.38014">
        <ele>662.2</ele>
        <time>2022-05-24 18:59:43</time>
      </trkpt>
      <trkpt lat="40.82331" lon="0.38028">
        <ele>660.8</ele>
        <time>2022-05-24 18:59:44</time>
      </trkpt>
      <trkpt lat="40.82328" lon="0.38043">
        <ele>659.4</ele>
        <time>2022-05-24 18:59:45</time>
      </trkpt>
      <trkpt lat="40.82325" lon="0.38059">
        <ele>657.8</ele>
        <time>2022-05-24 18:59:46</time>
      </trkpt>
      <trkpt lat="40.82322" lon="0.38075">
        <ele>656.4</ele>
        <time>2022-05-24 18:59:47</time>
      </trkpt>
      <trkpt lat="40.82318" lon="0.38091">
        <ele>654.8</ele>
        <time>2022-05-24 18:59:48</time>
      </trkpt>
      <trkpt lat="40.82315" lon="0.38109">
        <ele>653.4</ele>
        <time>2022-05-24 18:59:49</time>
      </trkpt>
      <trkpt lat="40.82312" lon="0.38126">
        <ele>651.8</ele>
        <time>2022-05-24 18:59:50</time>
      </trkpt>
      <trkpt lat="40.82311" lon="0.38143">
        <ele>650.4</ele>
        <time>2022-05-24 18:59:51</time>
      </trkpt>
      <trkpt lat="40.8231" lon="0.3816">
        <ele>649.2</ele>
        <time>2022-05-24 18:59:52</time>
      </trkpt>
      <trkpt lat="40.8231" lon="0.38174">
        <ele>647.8</ele>
        <time>2022-05-24 18:59:53</time>
      </trkpt>
      <trkpt lat="40.82308" lon="0.38196">
        <ele>646.4</ele>
        <time>2022-05-24 18:59:54</time>
      </trkpt>
      <trkpt lat="40.82306" lon="0.38214">
        <ele>645</ele>
        <time>2022-05-24 18:59:55</time>
      </trkpt>
      <trkpt lat="40.82303" lon="0.38231">
        <ele>643.2</ele>
        <time>2022-05-24 18:59:56</time>
      </trkpt>
      <trkpt lat="40.82301" lon="0.38251">
        <ele>641.6</ele>
        <time>2022-05-24 18:59:57</time>
      </trkpt>
      <trkpt lat="40.82299" lon="0.38269">
        <ele>640</ele>
        <time>2022-05-24 18:59:58</time>
      </trkpt>
      <trkpt lat="40.82298" lon="0.38287">
        <ele>638.4</ele>
        <time>2022-05-24 18:59:59</time>
      </trkpt>
      <trkpt lat="40.82299" lon="0.38303">
        <ele>637</ele>
        <time>2022-05-24 19:00:00</time>
      </trkpt>
      <trkpt lat="40.82299" lon="0.38321">
        <ele>635.6</ele>
        <time>2022-05-24 19:00:01</time>
      </trkpt>
      <trkpt lat="40.82298" lon="0.38337">
        <ele>634.4</ele>
        <time>2022-05-24 19:00:02</time>
      </trkpt>
      <trkpt lat="40.82296" lon="0.38352">
        <ele>633.2</ele>
        <time>2022-05-24 19:00:03</time>
      </trkpt>
      <trkpt lat="40.82293" lon="0.3837">
        <ele>632</ele>
        <time>2022-05-24 19:00:04</time>
      </trkpt>
      <trkpt lat="40.82289" lon="0.38387">
        <ele>630.6</ele>
        <time>2022-05-24 19:00:05</time>
      </trkpt>
      <trkpt lat="40.82285" lon="0.38404">
        <ele>629</ele>
        <time>2022-05-24 19:00:06</time>
      </trkpt>
      <trkpt lat="40.82281" lon="0.38421">
        <ele>627.4</ele>
        <time>2022-05-24 19:00:07</time>
      </trkpt>
      <trkpt lat="40.82278" lon="0.38437">
        <ele>625.8</ele>
        <time>2022-05-24 19:00:08</time>
      </trkpt>
      <trkpt lat="40.82274" lon="0.38452">
        <ele>624.4</ele>
        <time>2022-05-24 19:00:09</time>
      </trkpt>
      <trkpt lat="40.82269" lon="0.38468">
        <ele>622.8</ele>
        <time>2022-05-24 19:00:10</time>
      </trkpt>
      <trkpt lat="40.82264" lon="0.38481">
        <ele>621.4</ele>
        <time>2022-05-24 19:00:11</time>
      </trkpt>
      <trkpt lat="40.82261" lon="0.38494">
        <ele>620</ele>
        <time>2022-05-24 19:00:12</time>
      </trkpt>
      <trkpt lat="40.82259" lon="0.38507">
        <ele>618.8</ele>
        <time>2022-05-24 19:00:13</time>
      </trkpt>
      <trkpt lat="40.82258" lon="0.3852">
        <ele>617.6</ele>
        <time>2022-05-24 19:00:14</time>
      </trkpt>
      <trkpt lat="40.82258" lon="0.38531">
        <ele>616.8</ele>
        <time>2022-05-24 19:00:15</time>
      </trkpt>
      <trkpt lat="40.82257" lon="0.38543">
        <ele>616</ele>
        <time>2022-05-24 19:00:16</time>
      </trkpt>
      <trkpt lat="40.82256" lon="0.38554">
        <ele>615.4</ele>
        <time>2022-05-24 19:00:17</time>
      </trkpt>
      <trkpt lat="40.82253" lon="0.38564">
        <ele>614.4</ele>
        <time>2022-05-24 19:00:18</time>
      </trkpt>
      <trkpt lat="40.82248" lon="0.38573">
        <ele>613.4</ele>
        <time>2022-05-24 19:00:19</time>
      </trkpt>
      <trkpt lat="40.8224" lon="0.3858">
        <ele>612.6</ele>
        <time>2022-05-24 19:00:20</time>
      </trkpt>
      <trkpt lat="40.82232" lon="0.38586">
        <ele>611.6</ele>
        <time>2022-05-24 19:00:21</time>
      </trkpt>
      <trkpt lat="40.82222" lon="0.3859">
        <ele>610.8</ele>
        <time>2022-05-24 19:00:22</time>
      </trkpt>
      <trkpt lat="40.82214" lon="0.38594">
        <ele>610.2</ele>
        <time>2022-05-24 19:00:23</time>
      </trkpt>
      <trkpt lat="40.82207" lon="0.38598">
        <ele>609.6</ele>
        <time>2022-05-24 19:00:24</time>
      </trkpt>
      <trkpt lat="40.82201" lon="0.38603">
        <ele>609.2</ele>
        <time>2022-05-24 19:00:25</time>
      </trkpt>
      <trkpt lat="40.82198" lon="0.38609">
        <ele>608.6</ele>
        <time>2022-05-24 19:00:26</time>
      </trkpt>
      <trkpt lat="40.82197" lon="0.38615">
        <ele>608.2</ele>
        <time>2022-05-24 19:00:27</time>
      </trkpt>
      <trkpt lat="40.82199" lon="0.3862">
        <ele>607.6</ele>
        <time>2022-05-24 19:00:28</time>
      </trkpt>
      <trkpt lat="40.82202" lon="0.38622">
        <ele>607.2</ele>
        <time>2022-05-24 19:00:29</time>
      </trkpt>
      <trkpt lat="40.82207" lon="0.38623">
        <ele>606.6</ele>
        <time>2022-05-24 19:00:30</time>
      </trkpt>
      <trkpt lat="40.82213" lon="0.38619">
        <ele>605.8</ele>
        <time>2022-05-24 19:00:31</time>
      </trkpt>
      <trkpt lat="40.8222" lon="0.38613">
        <ele>605.2</ele>
        <time>2022-05-24 19:00:32</time>
      </trkpt>
      <trkpt lat="40.82228" lon="0.38607">
        <ele>604.4</ele>
        <time>2022-05-24 19:00:33</time>
      </trkpt>
      <trkpt lat="40.82236" lon="0.38602">
        <ele>603.4</ele>
        <time>2022-05-24 19:00:34</time>
      </trkpt>
      <trkpt lat="40.82244" lon="0.38599">
        <ele>602.6</ele>
        <time>2022-05-24 19:00:35</time>
      </trkpt>
      <trkpt lat="40.82253" lon="0.38596">
        <ele>601.8</ele>
        <time>2022-05-24 19:00:36</time>
      </trkpt>
      <trkpt lat="40.82263" lon="0.38595">
        <ele>600.6</ele>
        <time>2022-05-24 19:00:37</time>
      </trkpt>
      <trkpt lat="40.82272" lon="0.38594">
        <ele>599.6</ele>
        <time>2022-05-24 19:00:38</time>
      </trkpt>
      <trkpt lat="40.8228" lon="0.38594">
        <ele>599</ele>
        <time>2022-05-24 19:00:39</time>
      </trkpt>
      <trkpt lat="40.82288" lon="0.38592">
        <ele>598.8</ele>
        <time>2022-05-24 19:00:40</time>
      </trkpt>
      <trkpt lat="40.82295" lon="0.38589">
        <ele>598.6</ele>
        <time>2022-05-24 19:00:41</time>
      </trkpt>
      <trkpt lat="40.82297" lon="0.3858">
        <ele>598.8</ele>
        <time>2022-05-24 19:00:42</time>
      </trkpt>
      <trkpt lat="40.82296" lon="0.38571">
        <ele>598.8</ele>
        <time>2022-05-24 19:00:43</time>
      </trkpt>
      <trkpt lat="40.82295" lon="0.38563">
        <ele>598.6</ele>
        <time>2022-05-24 19:00:44</time>
      </trkpt>
      <trkpt lat="40.82293" lon="0.38555">
        <ele>598.4</ele>
        <time>2022-05-24 19:00:45</time>
      </trkpt>
      <trkpt lat="40.82292" lon="0.38547">
        <ele>598.4</ele>
        <time>2022-05-24 19:00:46</time>
      </trkpt>
      <trkpt lat="40.82291" lon="0.38539">
        <ele>598.2</ele>
        <time>2022-05-24 19:00:47</time>
      </trkpt>
      <trkpt lat="40.82291" lon="0.38531">
        <ele>597.8</ele>
        <time>2022-05-24 19:00:48</time>
      </trkpt>
      <trkpt lat="40.82292" lon="0.38522">
        <ele>597.6</ele>
        <time>2022-05-24 19:00:49</time>
      </trkpt>
      <trkpt lat="40.82294" lon="0.38514">
        <ele>597.4</ele>
        <time>2022-05-24 19:00:50</time>
      </trkpt>
      <trkpt lat="40.82298" lon="0.38506">
        <ele>597.4</ele>
        <time>2022-05-24 19:00:51</time>
      </trkpt>
      <trkpt lat="40.82301" lon="0.38498">
        <ele>597.6</ele>
        <time>2022-05-24 19:00:52</time>
      </trkpt>
      <trkpt lat="40.82305" lon="0.3849">
        <ele>597.6</ele>
        <time>2022-05-24 19:00:53</time>
      </trkpt>
      <trkpt lat="40.82309" lon="0.38483">
        <ele>597.6</ele>
        <time>2022-05-24 19:00:54</time>
      </trkpt>
      <trkpt lat="40.82312" lon="0.38476">
        <ele>597.6</ele>
        <time>2022-05-24 19:00:55</time>
      </trkpt>
      <trkpt lat="40.82316" lon="0.38468">
        <ele>597.8</ele>
        <time>2022-05-24 19:00:56</time>
      </trkpt>
      <trkpt lat="40.8232" lon="0.38461">
        <ele>597.8</ele>
        <time>2022-05-24 19:00:57</time>
      </trkpt>
      <trkpt lat="40.82325" lon="0.38454">
        <ele>597.8</ele>
        <time>2022-05-24 19:00:58</time>
      </trkpt>
      <trkpt lat="40.82329" lon="0.38448">
        <ele>597.8</ele>
        <time>2022-05-24 19:00:59</time>
      </trkpt>
      <trkpt lat="40.82335" lon="0.38442">
        <ele>597.6</ele>
        <time>2022-05-24 19:01:00</time>
      </trkpt>
      <trkpt lat="40.82341" lon="0.38438">
        <ele>597.4</ele>
        <time>2022-05-24 19:01:01</time>
      </trkpt>
      <trkpt lat="40.82349" lon="0.38434">
        <ele>597.2</ele>
        <time>2022-05-24 19:01:02</time>
      </trkpt>
      <trkpt lat="40.82357" lon="0.38432">
        <ele>597</ele>
        <time>2022-05-24 19:01:03</time>
      </trkpt>
      <trkpt lat="40.82365" lon="0.3843">
        <ele>596.8</ele>
        <time>2022-05-24 19:01:04</time>
      </trkpt>
      <trkpt lat="40.82373" lon="0.38429">
        <ele>596.4</ele>
        <time>2022-05-24 19:01:05</time>
      </trkpt>
      <trkpt lat="40.82381" lon="0.38427">
        <ele>596</ele>
        <time>2022-05-24 19:01:06</time>
      </trkpt>
      <trkpt lat="40.82389" lon="0.38426">
        <ele>595.6</ele>
        <time>2022-05-24 19:01:07</time>
      </trkpt>
      <trkpt lat="40.82395" lon="0.38427">
        <ele>595.4</ele>
        <time>2022-05-24 19:01:08</time>
      </trkpt>
      <trkpt lat="40.824" lon="0.38429">
        <ele>595</ele>
        <time>2022-05-24 19:01:09</time>
      </trkpt>
      <trkpt lat="40.82404" lon="0.38434">
        <ele>594.6</ele>
        <time>2022-05-24 19:01:10</time>
      </trkpt>
      <trkpt lat="40.82403" lon="0.3844">
        <ele>594</ele>
        <time>2022-05-24 19:01:11</time>
      </trkpt>
      <trkpt lat="40.82399" lon="0.38445">
        <ele>593.6</ele>
        <time>2022-05-24 19:01:12</time>
      </trkpt>
      <trkpt lat="40.82393" lon="0.38449">
        <ele>593</ele>
        <time>2022-05-24 19:01:13</time>
      </trkpt>
      <trkpt lat="40.82386" lon="0.38451">
        <ele>592.2</ele>
        <time>2022-05-24 19:01:14</time>
      </trkpt>
      <trkpt lat="40.8238" lon="0.38452">
        <ele>591.6</ele>
        <time>2022-05-24 19:01:15</time>
      </trkpt>
      <trkpt lat="40.82372" lon="0.38452">
        <ele>590.8</ele>
        <time>2022-05-24 19:01:16</time>
      </trkpt>
      <trkpt lat="40.82367" lon="0.38453">
        <ele>590</ele>
        <time>2022-05-24 19:01:17</time>
      </trkpt>
      <trkpt lat="40.82357" lon="0.38456">
        <ele>589.2</ele>
        <time>2022-05-24 19:01:18</time>
      </trkpt>
      <trkpt lat="40.82349" lon="0.38461">
        <ele>588.4</ele>
        <time>2022-05-24 19:01:19</time>
      </trkpt>
      <trkpt lat="40.82343" lon="0.38467">
        <ele>587.4</ele>
        <time>2022-05-24 19:01:20</time>
      </trkpt>
      <trkpt lat="40.82338" lon="0.38476">
        <ele>586.4</ele>
        <time>2022-05-24 19:01:21</time>
      </trkpt>
      <trkpt lat="40.82333" lon="0.38485">
        <ele>585.6</ele>
        <time>2022-05-24 19:01:22</time>
      </trkpt>
      <trkpt lat="40.82329" lon="0.38495">
        <ele>584.6</ele>
        <time>2022-05-24 19:01:23</time>
      </trkpt>
      <trkpt lat="40.82326" lon="0.38506">
        <ele>583.6</ele>
        <time>2022-05-24 19:01:24</time>
      </trkpt>
      <trkpt lat="40.82324" lon="0.38518">
        <ele>582.8</ele>
        <time>2022-05-24 19:01:25</time>
      </trkpt>
      <trkpt lat="40.82323" lon="0.38529">
        <ele>581.8</ele>
        <time>2022-05-24 19:01:26</time>
      </trkpt>
      <trkpt lat="40.82323" lon="0.3854">
        <ele>580.8</ele>
        <time>2022-05-24 19:01:27</time>
      </trkpt>
      <trkpt lat="40.82327" lon="0.38551">
        <ele>579.8</ele>
        <time>2022-05-24 19:01:28</time>
      </trkpt>
      <trkpt lat="40.82332" lon="0.38563">
        <ele>578.8</ele>
        <time>2022-05-24 19:01:29</time>
      </trkpt>
      <trkpt lat="40.82338" lon="0.38574">
        <ele>577.8</ele>
        <time>2022-05-24 19:01:30</time>
      </trkpt>
      <trkpt lat="40.82345" lon="0.38586">
        <ele>576.8</ele>
        <time>2022-05-24 19:01:31</time>
      </trkpt>
      <trkpt lat="40.82352" lon="0.38599">
        <ele>576</ele>
        <time>2022-05-24 19:01:32</time>
      </trkpt>
      <trkpt lat="40.82357" lon="0.38611">
        <ele>575</ele>
        <time>2022-05-24 19:01:33</time>
      </trkpt>
      <trkpt lat="40.82361" lon="0.38623">
        <ele>574.2</ele>
        <time>2022-05-24 19:01:34</time>
      </trkpt>
      <trkpt lat="40.82364" lon="0.38637">
        <ele>573</ele>
        <time>2022-05-24 19:01:35</time>
      </trkpt>
      <trkpt lat="40.82366" lon="0.38652">
        <ele>572</ele>
        <time>2022-05-24 19:01:36</time>
      </trkpt>
      <trkpt lat="40.82364" lon="0.38664">
        <ele>571.2</ele>
        <time>2022-05-24 19:01:37</time>
      </trkpt>
      <trkpt lat="40.8236" lon="0.38675">
        <ele>570.2</ele>
        <time>2022-05-24 19:01:38</time>
      </trkpt>
      <trkpt lat="40.82353" lon="0.38683">
        <ele>569</ele>
        <time>2022-05-24 19:01:39</time>
      </trkpt>
      <trkpt lat="40.82345" lon="0.3869">
        <ele>567.8</ele>
        <time>2022-05-24 19:01:40</time>
      </trkpt>
      <trkpt lat="40.82336" lon="0.38696">
        <ele>566.6</ele>
        <time>2022-05-24 19:01:41</time>
      </trkpt>
      <trkpt lat="40.82327" lon="0.387">
        <ele>565.2</ele>
        <time>2022-05-24 19:01:42</time>
      </trkpt>
      <trkpt lat="40.82312" lon="0.38696">
        <ele>563.8</ele>
        <time>2022-05-24 19:01:43</time>
      </trkpt>
      <trkpt lat="40.823" lon="0.38689">
        <ele>562.6</ele>
        <time>2022-05-24 19:01:44</time>
      </trkpt>
      <trkpt lat="40.82289" lon="0.38685">
        <ele>561.8</ele>
        <time>2022-05-24 19:01:45</time>
      </trkpt>
      <trkpt lat="40.8228" lon="0.38685">
        <ele>561</ele>
        <time>2022-05-24 19:01:46</time>
      </trkpt>
      <trkpt lat="40.82273" lon="0.38688">
        <ele>560.2</ele>
        <time>2022-05-24 19:01:47</time>
      </trkpt>
      <trkpt lat="40.82265" lon="0.38693">
        <ele>559.6</ele>
        <time>2022-05-24 19:01:48</time>
      </trkpt>
      <trkpt lat="40.82262" lon="0.38701">
        <ele>558.8</ele>
        <time>2022-05-24 19:01:49</time>
      </trkpt>
      <trkpt lat="40.82261" lon="0.38712">
        <ele>558</ele>
        <time>2022-05-24 19:01:50</time>
      </trkpt>
      <trkpt lat="40.8226" lon="0.38724">
        <ele>557.2</ele>
        <time>2022-05-24 19:01:51</time>
      </trkpt>
      <trkpt lat="40.8226" lon="0.38736">
        <ele>556.4</ele>
        <time>2022-05-24 19:01:52</time>
      </trkpt>
      <trkpt lat="40.82259" lon="0.38749">
        <ele>555.4</ele>
        <time>2022-05-24 19:01:53</time>
      </trkpt>
      <trkpt lat="40.82259" lon="0.38762">
        <ele>554.4</ele>
        <time>2022-05-24 19:01:54</time>
      </trkpt>
      <trkpt lat="40.82261" lon="0.38775">
        <ele>553.4</ele>
        <time>2022-05-24 19:01:55</time>
      </trkpt>
      <trkpt lat="40.82264" lon="0.38787">
        <ele>552.4</ele>
        <time>2022-05-24 19:01:56</time>
      </trkpt>
      <trkpt lat="40.82267" lon="0.38799">
        <ele>551.4</ele>
        <time>2022-05-24 19:01:57</time>
      </trkpt>
      <trkpt lat="40.8227" lon="0.38812">
        <ele>550.6</ele>
        <time>2022-05-24 19:01:58</time>
      </trkpt>
      <trkpt lat="40.82272" lon="0.38825">
        <ele>549.8</ele>
        <time>2022-05-24 19:01:59</time>
      </trkpt>
      <trkpt lat="40.82272" lon="0.38837">
        <ele>549</ele>
        <time>2022-05-24 19:02:00</time>
      </trkpt>
      <trkpt lat="40.82271" lon="0.38849">
        <ele>548.2</ele>
        <time>2022-05-24 19:02:01</time>
      </trkpt>
      <trkpt lat="40.82271" lon="0.3886">
        <ele>547</ele>
        <time>2022-05-24 19:02:02</time>
      </trkpt>
      <trkpt lat="40.82273" lon="0.38871">
        <ele>546</ele>
        <time>2022-05-24 19:02:03</time>
      </trkpt>
      <trkpt lat="40.82277" lon="0.38881">
        <ele>545.2</ele>
        <time>2022-05-24 19:02:04</time>
      </trkpt>
      <trkpt lat="40.82282" lon="0.38889">
        <ele>544.6</ele>
        <time>2022-05-24 19:02:05</time>
      </trkpt>
      <trkpt lat="40.8229" lon="0.38895">
        <ele>544.2</ele>
        <time>2022-05-24 19:02:06</time>
      </trkpt>
      <trkpt lat="40.82299" lon="0.38901">
        <ele>543.4</ele>
        <time>2022-05-24 19:02:07</time>
      </trkpt>
      <trkpt lat="40.82305" lon="0.38907">
        <ele>542.6</ele>
        <time>2022-05-24 19:02:08</time>
      </trkpt>
      <trkpt lat="40.8231" lon="0.38917">
        <ele>541.6</ele>
        <time>2022-05-24 19:02:09</time>
      </trkpt>
      <trkpt lat="40.82311" lon="0.38928">
        <ele>540.4</ele>
        <time>2022-05-24 19:02:10</time>
      </trkpt>
      <trkpt lat="40.82312" lon="0.3894">
        <ele>539.2</ele>
        <time>2022-05-24 19:02:11</time>
      </trkpt>
      <trkpt lat="40.82314" lon="0.38954">
        <ele>538</ele>
        <time>2022-05-24 19:02:12</time>
      </trkpt>
      <trkpt lat="40.82316" lon="0.38968">
        <ele>536.8</ele>
        <time>2022-05-24 19:02:13</time>
      </trkpt>
      <trkpt lat="40.82319" lon="0.3898">
        <ele>535.4</ele>
        <time>2022-05-24 19:02:14</time>
      </trkpt>
      <trkpt lat="40.82325" lon="0.38991">
        <ele>534.2</ele>
        <time>2022-05-24 19:02:15</time>
      </trkpt>
      <trkpt lat="40.82333" lon="0.39001">
        <ele>533</ele>
        <time>2022-05-24 19:02:16</time>
      </trkpt>
      <trkpt lat="40.82342" lon="0.39008">
        <ele>531.6</ele>
        <time>2022-05-24 19:02:17</time>
      </trkpt>
      <trkpt lat="40.82351" lon="0.39014">
        <ele>530.4</ele>
        <time>2022-05-24 19:02:18</time>
      </trkpt>
      <trkpt lat="40.82358" lon="0.39022">
        <ele>529.4</ele>
        <time>2022-05-24 19:02:19</time>
      </trkpt>
      <trkpt lat="40.82363" lon="0.3903">
        <ele>528.2</ele>
        <time>2022-05-24 19:02:20</time>
      </trkpt>
      <trkpt lat="40.82365" lon="0.39039">
        <ele>527.2</ele>
        <time>2022-05-24 19:02:21</time>
      </trkpt>
      <trkpt lat="40.82366" lon="0.39048">
        <ele>526.4</ele>
        <time>2022-05-24 19:02:22</time>
      </trkpt>
      <trkpt lat="40.82363" lon="0.39056">
        <ele>525.6</ele>
        <time>2022-05-24 19:02:23</time>
      </trkpt>
      <trkpt lat="40.82355" lon="0.39063">
        <ele>524.6</ele>
        <time>2022-05-24 19:02:24</time>
      </trkpt>
      <trkpt lat="40.82346" lon="0.3907">
        <ele>523.4</ele>
        <time>2022-05-24 19:02:25</time>
      </trkpt>
      <trkpt lat="40.82338" lon="0.39077">
        <ele>522.2</ele>
        <time>2022-05-24 19:02:26</time>
      </trkpt>
      <trkpt lat="40.82329" lon="0.39084">
        <ele>520.8</ele>
        <time>2022-05-24 19:02:27</time>
      </trkpt>
      <trkpt lat="40.82319" lon="0.39092">
        <ele>519.4</ele>
        <time>2022-05-24 19:02:28</time>
      </trkpt>
      <trkpt lat="40.82311" lon="0.391">
        <ele>518.4</ele>
        <time>2022-05-24 19:02:29</time>
      </trkpt>
      <trkpt lat="40.82304" lon="0.39109">
        <ele>517.4</ele>
        <time>2022-05-24 19:02:30</time>
      </trkpt>
      <trkpt lat="40.82299" lon="0.3912">
        <ele>516.6</ele>
        <time>2022-05-24 19:02:31</time>
      </trkpt>
      <trkpt lat="40.82299" lon="0.39132">
        <ele>515.8</ele>
        <time>2022-05-24 19:02:32</time>
      </trkpt>
      <trkpt lat="40.82303" lon="0.39143">
        <ele>514.8</ele>
        <time>2022-05-24 19:02:33</time>
      </trkpt>
      <trkpt lat="40.82308" lon="0.39154">
        <ele>513.8</ele>
        <time>2022-05-24 19:02:34</time>
      </trkpt>
      <trkpt lat="40.82313" lon="0.39164">
        <ele>512.8</ele>
        <time>2022-05-24 19:02:35</time>
      </trkpt>
      <trkpt lat="40.8232" lon="0.39176">
        <ele>511.6</ele>
        <time>2022-05-24 19:02:36</time>
      </trkpt>
      <trkpt lat="40.82327" lon="0.39188">
        <ele>510.4</ele>
        <time>2022-05-24 19:02:37</time>
      </trkpt>
      <trkpt lat="40.82332" lon="0.39201">
        <ele>509.2</ele>
        <time>2022-05-24 19:02:38</time>
      </trkpt>
      <trkpt lat="40.82337" lon="0.39214">
        <ele>508</ele>
        <time>2022-05-24 19:02:39</time>
      </trkpt>
      <trkpt lat="40.82341" lon="0.39228">
        <ele>506.6</ele>
        <time>2022-05-24 19:02:40</time>
      </trkpt>
      <trkpt lat="40.82344" lon="0.39244">
        <ele>505.2</ele>
        <time>2022-05-24 19:02:41</time>
      </trkpt>
      <trkpt lat="40.82349" lon="0.39258">
        <ele>504</ele>
        <time>2022-05-24 19:02:42</time>
      </trkpt>
      <trkpt lat="40.82354" lon="0.39273">
        <ele>502.8</ele>
        <time>2022-05-24 19:02:43</time>
      </trkpt>
      <trkpt lat="40.8236" lon="0.39287">
        <ele>501.4</ele>
        <time>2022-05-24 19:02:44</time>
      </trkpt>
      <trkpt lat="40.82367" lon="0.393">
        <ele>500</ele>
        <time>2022-05-24 19:02:45</time>
      </trkpt>
      <trkpt lat="40.82374" lon="0.39312">
        <ele>498.8</ele>
        <time>2022-05-24 19:02:46</time>
      </trkpt>
      <trkpt lat="40.82383" lon="0.39322">
        <ele>497.6</ele>
        <time>2022-05-24 19:02:47</time>
      </trkpt>
      <trkpt lat="40.82392" lon="0.39332">
        <ele>496.4</ele>
        <time>2022-05-24 19:02:48</time>
      </trkpt>
      <trkpt lat="40.82401" lon="0.39342">
        <ele>495.4</ele>
        <time>2022-05-24 19:02:49</time>
      </trkpt>
      <trkpt lat="40.8241" lon="0.39354">
        <ele>494.4</ele>
        <time>2022-05-24 19:02:50</time>
      </trkpt>
      <trkpt lat="40.82418" lon="0.39366">
        <ele>493.4</ele>
        <time>2022-05-24 19:02:51</time>
      </trkpt>
      <trkpt lat="40.82427" lon="0.39379">
        <ele>492.6</ele>
        <time>2022-05-24 19:02:52</time>
      </trkpt>
      <trkpt lat="40.82435" lon="0.39392">
        <ele>492</ele>
        <time>2022-05-24 19:02:53</time>
      </trkpt>
      <trkpt lat="40.82441" lon="0.39404">
        <ele>491.6</ele>
        <time>2022-05-24 19:02:54</time>
      </trkpt>
      <trkpt lat="40.82444" lon="0.39415">
        <ele>491.2</ele>
        <time>2022-05-24 19:02:55</time>
      </trkpt>
      <trkpt lat="40.82444" lon="0.39426">
        <ele>490.8</ele>
        <time>2022-05-24 19:02:56</time>
      </trkpt>
      <trkpt lat="40.82441" lon="0.39437">
        <ele>490.2</ele>
        <time>2022-05-24 19:02:57</time>
      </trkpt>
      <trkpt lat="40.82435" lon="0.39447">
        <ele>489.6</ele>
        <time>2022-05-24 19:02:58</time>
      </trkpt>
      <trkpt lat="40.82428" lon="0.39457">
        <ele>488.6</ele>
        <time>2022-05-24 19:02:59</time>
      </trkpt>
      <trkpt lat="40.82421" lon="0.39466">
        <ele>487.6</ele>
        <time>2022-05-24 19:03:00</time>
      </trkpt>
      <trkpt lat="40.82413" lon="0.39479">
        <ele>486.4</ele>
        <time>2022-05-24 19:03:01</time>
      </trkpt>
      <trkpt lat="40.82408" lon="0.39492">
        <ele>485</ele>
        <time>2022-05-24 19:03:02</time>
      </trkpt>
      <trkpt lat="40.82403" lon="0.39506">
        <ele>483.6</ele>
        <time>2022-05-24 19:03:03</time>
      </trkpt>
      <trkpt lat="40.82401" lon="0.39521">
        <ele>482.4</ele>
        <time>2022-05-24 19:03:04</time>
      </trkpt>
      <trkpt lat="40.82399" lon="0.39536">
        <ele>481.2</ele>
        <time>2022-05-24 19:03:05</time>
      </trkpt>
      <trkpt lat="40.82402" lon="0.39554">
        <ele>480.2</ele>
        <time>2022-05-24 19:03:06</time>
      </trkpt>
      <trkpt lat="40.82405" lon="0.3957">
        <ele>478.8</ele>
        <time>2022-05-24 19:03:07</time>
      </trkpt>
      <trkpt lat="40.82409" lon="0.39586">
        <ele>477.6</ele>
        <time>2022-05-24 19:03:08</time>
      </trkpt>
      <trkpt lat="40.82412" lon="0.39603">
        <ele>476.6</ele>
        <time>2022-05-24 19:03:09</time>
      </trkpt>
      <trkpt lat="40.82413" lon="0.3962">
        <ele>475.6</ele>
        <time>2022-05-24 19:03:10</time>
      </trkpt>
      <trkpt lat="40.82414" lon="0.39635">
        <ele>474.8</ele>
        <time>2022-05-24 19:03:11</time>
      </trkpt>
      <trkpt lat="40.82415" lon="0.39649">
        <ele>474.2</ele>
        <time>2022-05-24 19:03:12</time>
      </trkpt>
      <trkpt lat="40.82415" lon="0.39659">
        <ele>473.4</ele>
        <time>2022-05-24 19:03:13</time>
      </trkpt>
      <trkpt lat="40.82413" lon="0.39669">
        <ele>473</ele>
        <time>2022-05-24 19:03:14</time>
      </trkpt>
      <trkpt lat="40.82409" lon="0.39676">
        <ele>472.2</ele>
        <time>2022-05-24 19:03:15</time>
      </trkpt>
      <trkpt lat="40.82402" lon="0.3968">
        <ele>471.6</ele>
        <time>2022-05-24 19:03:16</time>
      </trkpt>
      <trkpt lat="40.82394" lon="0.39683">
        <ele>470.8</ele>
        <time>2022-05-24 19:03:17</time>
      </trkpt>
      <trkpt lat="40.82384" lon="0.39685">
        <ele>469.4</ele>
        <time>2022-05-24 19:03:18</time>
      </trkpt>
      <trkpt lat="40.82374" lon="0.39687">
        <ele>468</ele>
        <time>2022-05-24 19:03:19</time>
      </trkpt>
      <trkpt lat="40.82364" lon="0.39689">
        <ele>466.8</ele>
        <time>2022-05-24 19:03:20</time>
      </trkpt>
      <trkpt lat="40.82355" lon="0.39693">
        <ele>465.8</ele>
        <time>2022-05-24 19:03:21</time>
      </trkpt>
      <trkpt lat="40.82346" lon="0.39699">
        <ele>464.4</ele>
        <time>2022-05-24 19:03:22</time>
      </trkpt>
      <trkpt lat="40.82338" lon="0.39709">
        <ele>463.2</ele>
        <time>2022-05-24 19:03:23</time>
      </trkpt>
      <trkpt lat="40.82329" lon="0.39722">
        <ele>461.8</ele>
        <time>2022-05-24 19:03:24</time>
      </trkpt>
      <trkpt lat="40.82323" lon="0.39736">
        <ele>460.4</ele>
        <time>2022-05-24 19:03:25</time>
      </trkpt>
      <trkpt lat="40.82316" lon="0.39751">
        <ele>459.2</ele>
        <time>2022-05-24 19:03:26</time>
      </trkpt>
      <trkpt lat="40.8231" lon="0.39763">
        <ele>458</ele>
        <time>2022-05-24 19:03:27</time>
      </trkpt>
      <trkpt lat="40.82302" lon="0.39782">
        <ele>456.2</ele>
        <time>2022-05-24 19:03:28</time>
      </trkpt>
      <trkpt lat="40.82297" lon="0.39797">
        <ele>454.2</ele>
        <time>2022-05-24 19:03:29</time>
      </trkpt>
      <trkpt lat="40.82293" lon="0.39815">
        <ele>452.4</ele>
        <time>2022-05-24 19:03:30</time>
      </trkpt>
      <trkpt lat="40.8229" lon="0.39832">
        <ele>450.4</ele>
        <time>2022-05-24 19:03:31</time>
      </trkpt>
      <trkpt lat="40.82287" lon="0.3985">
        <ele>448.6</ele>
        <time>2022-05-24 19:03:32</time>
      </trkpt>
      <trkpt lat="40.82284" lon="0.3987">
        <ele>446.6</ele>
        <time>2022-05-24 19:03:33</time>
      </trkpt>
      <trkpt lat="40.82283" lon="0.3989">
        <ele>445</ele>
        <time>2022-05-24 19:03:34</time>
      </trkpt>
      <trkpt lat="40.82283" lon="0.39908">
        <ele>443.2</ele>
        <time>2022-05-24 19:03:35</time>
      </trkpt>
      <trkpt lat="40.82283" lon="0.39928">
        <ele>441.6</ele>
        <time>2022-05-24 19:03:36</time>
      </trkpt>
      <trkpt lat="40.82284" lon="0.39948">
        <ele>440</ele>
        <time>2022-05-24 19:03:37</time>
      </trkpt>
      <trkpt lat="40.82285" lon="0.39967">
        <ele>438.4</ele>
        <time>2022-05-24 19:03:38</time>
      </trkpt>
      <trkpt lat="40.82287" lon="0.39985">
        <ele>436.8</ele>
        <time>2022-05-24 19:03:39</time>
      </trkpt>
      <trkpt lat="40.8229" lon="0.40002">
        <ele>435.2</ele>
        <time>2022-05-24 19:03:40</time>
      </trkpt>
      <trkpt lat="40.82293" lon="0.4002">
        <ele>433.6</ele>
        <time>2022-05-24 19:03:41</time>
      </trkpt>
      <trkpt lat="40.82298" lon="0.40037">
        <ele>432</ele>
        <time>2022-05-24 19:03:42</time>
      </trkpt>
      <trkpt lat="40.82305" lon="0.40054">
        <ele>430.4</ele>
        <time>2022-05-24 19:03:43</time>
      </trkpt>
      <trkpt lat="40.82311" lon="0.4007">
        <ele>429</ele>
        <time>2022-05-24 19:03:44</time>
      </trkpt>
      <trkpt lat="40.82317" lon="0.40084">
        <ele>427.8</ele>
        <time>2022-05-24 19:03:45</time>
      </trkpt>
      <trkpt lat="40.82322" lon="0.40098">
        <ele>426.8</ele>
        <time>2022-05-24 19:03:46</time>
      </trkpt>
      <trkpt lat="40.82325" lon="0.40109">
        <ele>425.8</ele>
        <time>2022-05-24 19:03:47</time>
      </trkpt>
      <trkpt lat="40.82324" lon="0.40119">
        <ele>424.8</ele>
        <time>2022-05-24 19:03:48</time>
      </trkpt>
      <trkpt lat="40.82321" lon="0.40129">
        <ele>423.8</ele>
        <time>2022-05-24 19:03:49</time>
      </trkpt>
      <trkpt lat="40.82316" lon="0.40138">
        <ele>422.6</ele>
        <time>2022-05-24 19:03:50</time>
      </trkpt>
      <trkpt lat="40.82308" lon="0.40147">
        <ele>421.4</ele>
        <time>2022-05-24 19:03:51</time>
      </trkpt>
      <trkpt lat="40.82299" lon="0.40154">
        <ele>419.8</ele>
        <time>2022-05-24 19:03:52</time>
      </trkpt>
      <trkpt lat="40.82292" lon="0.4016">
        <ele>418.4</ele>
        <time>2022-05-24 19:03:53</time>
      </trkpt>
      <trkpt lat="40.82281" lon="0.40172">
        <ele>417</ele>
        <time>2022-05-24 19:03:54</time>
      </trkpt>
      <trkpt lat="40.82273" lon="0.40184">
        <ele>415.6</ele>
        <time>2022-05-24 19:03:55</time>
      </trkpt>
      <trkpt lat="40.82267" lon="0.40198">
        <ele>414.2</ele>
        <time>2022-05-24 19:03:56</time>
      </trkpt>
      <trkpt lat="40.8226" lon="0.40211">
        <ele>412.8</ele>
        <time>2022-05-24 19:03:57</time>
      </trkpt>
      <trkpt lat="40.8225" lon="0.40225">
        <ele>411.2</ele>
        <time>2022-05-24 19:03:58</time>
      </trkpt>
      <trkpt lat="40.8224" lon="0.40236">
        <ele>409.8</ele>
        <time>2022-05-24 19:03:59</time>
      </trkpt>
      <trkpt lat="40.8223" lon="0.40246">
        <ele>408.4</ele>
        <time>2022-05-24 19:04:00</time>
      </trkpt>
      <trkpt lat="40.82221" lon="0.40256">
        <ele>406.8</ele>
        <time>2022-05-24 19:04:01</time>
      </trkpt>
      <trkpt lat="40.82213" lon="0.40266">
        <ele>405.4</ele>
        <time>2022-05-24 19:04:02</time>
      </trkpt>
      <trkpt lat="40.82205" lon="0.40276">
        <ele>404</ele>
        <time>2022-05-24 19:04:03</time>
      </trkpt>
      <trkpt lat="40.82198" lon="0.40287">
        <ele>402.8</ele>
        <time>2022-05-24 19:04:04</time>
      </trkpt>
      <trkpt lat="40.82192" lon="0.40296">
        <ele>401.6</ele>
        <time>2022-05-24 19:04:05</time>
      </trkpt>
      <trkpt lat="40.82186" lon="0.40305">
        <ele>400.6</ele>
        <time>2022-05-24 19:04:06</time>
      </trkpt>
      <trkpt lat="40.82183" lon="0.40313">
        <ele>399.6</ele>
        <time>2022-05-24 19:04:07</time>
      </trkpt>
      <trkpt lat="40.82182" lon="0.40321">
        <ele>398.8</ele>
        <time>2022-05-24 19:04:08</time>
      </trkpt>
      <trkpt lat="40.82184" lon="0.40327">
        <ele>398.2</ele>
        <time>2022-05-24 19:04:09</time>
      </trkpt>
      <trkpt lat="40.82188" lon="0.40331">
        <ele>397.4</ele>
        <time>2022-05-24 19:04:10</time>
      </trkpt>
      <trkpt lat="40.82193" lon="0.40332">
        <ele>396.6</ele>
        <time>2022-05-24 19:04:11</time>
      </trkpt>
      <trkpt lat="40.82199" lon="0.40329">
        <ele>396</ele>
        <time>2022-05-24 19:04:12</time>
      </trkpt>
      <trkpt lat="40.82205" lon="0.40324">
        <ele>395.2</ele>
        <time>2022-05-24 19:04:13</time>
      </trkpt>
      <trkpt lat="40.8221" lon="0.40318">
        <ele>394.6</ele>
        <time>2022-05-24 19:04:14</time>
      </trkpt>
      <trkpt lat="40.82216" lon="0.40311">
        <ele>393.8</ele>
        <time>2022-05-24 19:04:15</time>
      </trkpt>
      <trkpt lat="40.82223" lon="0.40304">
        <ele>393</ele>
        <time>2022-05-24 19:04:16</time>
      </trkpt>
      <trkpt lat="40.8223" lon="0.40298">
        <ele>392.2</ele>
        <time>2022-05-24 19:04:17</time>
      </trkpt>
      <trkpt lat="40.82235" lon="0.40293">
        <ele>391.2</ele>
        <time>2022-05-24 19:04:18</time>
      </trkpt>
      <trkpt lat="40.82246" lon="0.40289">
        <ele>390.2</ele>
        <time>2022-05-24 19:04:19</time>
      </trkpt>
      <trkpt lat="40.82256" lon="0.40286">
        <ele>389.2</ele>
        <time>2022-05-24 19:04:20</time>
      </trkpt>
      <trkpt lat="40.82266" lon="0.40284">
        <ele>388.2</ele>
        <time>2022-05-24 19:04:21</time>
      </trkpt>
      <trkpt lat="40.82277" lon="0.40281">
        <ele>386.8</ele>
        <time>2022-05-24 19:04:22</time>
      </trkpt>
      <trkpt lat="40.82286" lon="0.40276">
        <ele>385.6</ele>
        <time>2022-05-24 19:04:23</time>
      </trkpt>
      <trkpt lat="40.82298" lon="0.4027">
        <ele>384.2</ele>
        <time>2022-05-24 19:04:24</time>
      </trkpt>
      <trkpt lat="40.82308" lon="0.40263">
        <ele>383</ele>
        <time>2022-05-24 19:04:25</time>
      </trkpt>
      <trkpt lat="40.82319" lon="0.40255">
        <ele>381.8</ele>
        <time>2022-05-24 19:04:26</time>
      </trkpt>
      <trkpt lat="40.8233" lon="0.40248">
        <ele>380.4</ele>
        <time>2022-05-24 19:04:27</time>
      </trkpt>
      <trkpt lat="40.82341" lon="0.4024">
        <ele>379.2</ele>
        <time>2022-05-24 19:04:28</time>
      </trkpt>
      <trkpt lat="40.82351" lon="0.40233">
        <ele>378</ele>
        <time>2022-05-24 19:04:29</time>
      </trkpt>
      <trkpt lat="40.82362" lon="0.40225">
        <ele>377</ele>
        <time>2022-05-24 19:04:30</time>
      </trkpt>
      <trkpt lat="40.82373" lon="0.40216">
        <ele>375.8</ele>
        <time>2022-05-24 19:04:31</time>
      </trkpt>
      <trkpt lat="40.82384" lon="0.40208">
        <ele>374.6</ele>
        <time>2022-05-24 19:04:32</time>
      </trkpt>
      <trkpt lat="40.82396" lon="0.40202">
        <ele>373.2</ele>
        <time>2022-05-24 19:04:33</time>
      </trkpt>
      <trkpt lat="40.82408" lon="0.40199">
        <ele>372</ele>
        <time>2022-05-24 19:04:34</time>
      </trkpt>
      <trkpt lat="40.82418" lon="0.40198">
        <ele>371.2</ele>
        <time>2022-05-24 19:04:35</time>
      </trkpt>
      <trkpt lat="40.82427" lon="0.40196">
        <ele>370.4</ele>
        <time>2022-05-24 19:04:36</time>
      </trkpt>
      <trkpt lat="40.82434" lon="0.40194">
        <ele>369.8</ele>
        <time>2022-05-24 19:04:37</time>
      </trkpt>
      <trkpt lat="40.82441" lon="0.4019">
        <ele>369</ele>
        <time>2022-05-24 19:04:38</time>
      </trkpt>
      <trkpt lat="40.82446" lon="0.40184">
        <ele>368.4</ele>
        <time>2022-05-24 19:04:39</time>
      </trkpt>
      <trkpt lat="40.8245" lon="0.40176">
        <ele>368</ele>
        <time>2022-05-24 19:04:40</time>
      </trkpt>
      <trkpt lat="40.82451" lon="0.40166">
        <ele>367.4</ele>
        <time>2022-05-24 19:04:41</time>
      </trkpt>
      <trkpt lat="40.82452" lon="0.40156">
        <ele>366.8</ele>
        <time>2022-05-24 19:04:42</time>
      </trkpt>
      <trkpt lat="40.82452" lon="0.40148">
        <ele>366.4</ele>
        <time>2022-05-24 19:04:43</time>
      </trkpt>
      <trkpt lat="40.8245" lon="0.40135">
        <ele>365.8</ele>
        <time>2022-05-24 19:04:44</time>
      </trkpt>
      <trkpt lat="40.82449" lon="0.40124">
        <ele>365.2</ele>
        <time>2022-05-24 19:04:45</time>
      </trkpt>
      <trkpt lat="40.82447" lon="0.40113">
        <ele>364.6</ele>
        <time>2022-05-24 19:04:46</time>
      </trkpt>
      <trkpt lat="40.82445" lon="0.40101">
        <ele>364.2</ele>
        <time>2022-05-24 19:04:47</time>
      </trkpt>
      <trkpt lat="40.82443" lon="0.4009">
        <ele>363.6</ele>
        <time>2022-05-24 19:04:48</time>
      </trkpt>
      <trkpt lat="40.82441" lon="0.40079">
        <ele>362.8</ele>
        <time>2022-05-24 19:04:49</time>
      </trkpt>
      <trkpt lat="40.82439" lon="0.40069">
        <ele>362.4</ele>
        <time>2022-05-24 19:04:50</time>
      </trkpt>
      <trkpt lat="40.8244" lon="0.40061">
        <ele>362</ele>
        <time>2022-05-24 19:04:51</time>
      </trkpt>
      <trkpt lat="40.82443" lon="0.40055">
        <ele>361.8</ele>
        <time>2022-05-24 19:04:52</time>
      </trkpt>
      <trkpt lat="40.82447" lon="0.40054">
        <ele>361.4</ele>
        <time>2022-05-24 19:04:53</time>
      </trkpt>
      <trkpt lat="40.82451" lon="0.40059">
        <ele>361</ele>
        <time>2022-05-24 19:04:54</time>
      </trkpt>
      <trkpt lat="40.82454" lon="0.40066">
        <ele>360.6</ele>
        <time>2022-05-24 19:04:55</time>
      </trkpt>
      <trkpt lat="40.82457" lon="0.40075">
        <ele>360</ele>
        <time>2022-05-24 19:04:56</time>
      </trkpt>
      <trkpt lat="40.82459" lon="0.40085">
        <ele>359.2</ele>
        <time>2022-05-24 19:04:57</time>
      </trkpt>
      <trkpt lat="40.82462" lon="0.40095">
        <ele>358.4</ele>
        <time>2022-05-24 19:04:58</time>
      </trkpt>
      <trkpt lat="40.82465" lon="0.40106">
        <ele>357.6</ele>
        <time>2022-05-24 19:04:59</time>
      </trkpt>
      <trkpt lat="40.82468" lon="0.40117">
        <ele>356.6</ele>
        <time>2022-05-24 19:05:00</time>
      </trkpt>
      <trkpt lat="40.82473" lon="0.4013">
        <ele>355.6</ele>
        <time>2022-05-24 19:05:01</time>
      </trkpt>
      <trkpt lat="40.82477" lon="0.40144">
        <ele>354.4</ele>
        <time>2022-05-24 19:05:02</time>
      </trkpt>
      <trkpt lat="40.82482" lon="0.40159">
        <ele>353.2</ele>
        <time>2022-05-24 19:05:03</time>
      </trkpt>
      <trkpt lat="40.82487" lon="0.40173">
        <ele>352</ele>
        <time>2022-05-24 19:05:04</time>
      </trkpt>
      <trkpt lat="40.82492" lon="0.40187">
        <ele>350.8</ele>
        <time>2022-05-24 19:05:05</time>
      </trkpt>
      <trkpt lat="40.82499" lon="0.40201">
        <ele>349.6</ele>
        <time>2022-05-24 19:05:06</time>
      </trkpt>
      <trkpt lat="40.82505" lon="0.40214">
        <ele>348.6</ele>
        <time>2022-05-24 19:05:07</time>
      </trkpt>
      <trkpt lat="40.8251" lon="0.40225">
        <ele>347.6</ele>
        <time>2022-05-24 19:05:08</time>
      </trkpt>
      <trkpt lat="40.82515" lon="0.40234">
        <ele>347</ele>
        <time>2022-05-24 19:05:09</time>
      </trkpt>
      <trkpt lat="40.82519" lon="0.40247">
        <ele>346.2</ele>
        <time>2022-05-24 19:05:10</time>
      </trkpt>
      <trkpt lat="40.8252" lon="0.40261">
        <ele>345.4</ele>
        <time>2022-05-24 19:05:11</time>
      </trkpt>
      <trkpt lat="40.82518" lon="0.40274">
        <ele>344.4</ele>
        <time>2022-05-24 19:05:12</time>
      </trkpt>
      <trkpt lat="40.82513" lon="0.40286">
        <ele>343.2</ele>
        <time>2022-05-24 19:05:13</time>
      </trkpt>
      <trkpt lat="40.82506" lon="0.40299">
        <ele>342</ele>
        <time>2022-05-24 19:05:14</time>
      </trkpt>
      <trkpt lat="40.82497" lon="0.4031">
        <ele>340.6</ele>
        <time>2022-05-24 19:05:15</time>
      </trkpt>
      <trkpt lat="40.82486" lon="0.40321">
        <ele>339.2</ele>
        <time>2022-05-24 19:05:16</time>
      </trkpt>
      <trkpt lat="40.82476" lon="0.40331">
        <ele>338</ele>
        <time>2022-05-24 19:05:17</time>
      </trkpt>
      <trkpt lat="40.82467" lon="0.40341">
        <ele>336.6</ele>
        <time>2022-05-24 19:05:18</time>
      </trkpt>
      <trkpt lat="40.8246" lon="0.40353">
        <ele>335.4</ele>
        <time>2022-05-24 19:05:19</time>
      </trkpt>
      <trkpt lat="40.82455" lon="0.40367">
        <ele>334</ele>
        <time>2022-05-24 19:05:20</time>
      </trkpt>
      <trkpt lat="40.82452" lon="0.40383">
        <ele>332.8</ele>
        <time>2022-05-24 19:05:21</time>
      </trkpt>
      <trkpt lat="40.82449" lon="0.40399">
        <ele>331.4</ele>
        <time>2022-05-24 19:05:22</time>
      </trkpt>
      <trkpt lat="40.82446" lon="0.40416">
        <ele>330.2</ele>
        <time>2022-05-24 19:05:23</time>
      </trkpt>
      <trkpt lat="40.82441" lon="0.40434">
        <ele>328.8</ele>
        <time>2022-05-24 19:05:24</time>
      </trkpt>
      <trkpt lat="40.82434" lon="0.4045">
        <ele>327.4</ele>
        <time>2022-05-24 19:05:25</time>
      </trkpt>
      <trkpt lat="40.82429" lon="0.40467">
        <ele>326</ele>
        <time>2022-05-24 19:05:26</time>
      </trkpt>
      <trkpt lat="40.82424" lon="0.40485">
        <ele>324.6</ele>
        <time>2022-05-24 19:05:27</time>
      </trkpt>
      <trkpt lat="40.8242" lon="0.40501">
        <ele>323</ele>
        <time>2022-05-24 19:05:28</time>
      </trkpt>
      <trkpt lat="40.82414" lon="0.4052">
        <ele>321.4</ele>
        <time>2022-05-24 19:05:29</time>
      </trkpt>
      <trkpt lat="40.82409" lon="0.40538">
        <ele>320</ele>
        <time>2022-05-24 19:05:30</time>
      </trkpt>
      <trkpt lat="40.82403" lon="0.40557">
        <ele>318.6</ele>
        <time>2022-05-24 19:05:31</time>
      </trkpt>
      <trkpt lat="40.82398" lon="0.40574">
        <ele>317.4</ele>
        <time>2022-05-24 19:05:32</time>
      </trkpt>
      <trkpt lat="40.82392" lon="0.40589">
        <ele>316.2</ele>
        <time>2022-05-24 19:05:33</time>
      </trkpt>
      <trkpt lat="40.82387" lon="0.40604">
        <ele>315.2</ele>
        <time>2022-05-24 19:05:34</time>
      </trkpt>
      <trkpt lat="40.82381" lon="0.40617">
        <ele>314.2</ele>
        <time>2022-05-24 19:05:35</time>
      </trkpt>
      <trkpt lat="40.82375" lon="0.40631">
        <ele>313.2</ele>
        <time>2022-05-24 19:05:36</time>
      </trkpt>
      <trkpt lat="40.82368" lon="0.40644">
        <ele>312.2</ele>
        <time>2022-05-24 19:05:37</time>
      </trkpt>
      <trkpt lat="40.8236" lon="0.40654">
        <ele>311.2</ele>
        <time>2022-05-24 19:05:38</time>
      </trkpt>
      <trkpt lat="40.82352" lon="0.40663">
        <ele>310</ele>
        <time>2022-05-24 19:05:39</time>
      </trkpt>
      <trkpt lat="40.82344" lon="0.40672">
        <ele>309</ele>
        <time>2022-05-24 19:05:40</time>
      </trkpt>
      <trkpt lat="40.82336" lon="0.4068">
        <ele>308</ele>
        <time>2022-05-24 19:05:41</time>
      </trkpt>
      <trkpt lat="40.82328" lon="0.40689">
        <ele>306.8</ele>
        <time>2022-05-24 19:05:42</time>
      </trkpt>
      <trkpt lat="40.82321" lon="0.40699">
        <ele>305.6</ele>
        <time>2022-05-24 19:05:43</time>
      </trkpt>
      <trkpt lat="40.82315" lon="0.40711">
        <ele>304.4</ele>
        <time>2022-05-24 19:05:44</time>
      </trkpt>
      <trkpt lat="40.8231" lon="0.40722">
        <ele>303.2</ele>
        <time>2022-05-24 19:05:45</time>
      </trkpt>
      <trkpt lat="40.82306" lon="0.40734">
        <ele>302.2</ele>
        <time>2022-05-24 19:05:46</time>
      </trkpt>
      <trkpt lat="40.82301" lon="0.40745">
        <ele>301.2</ele>
        <time>2022-05-24 19:05:47</time>
      </trkpt>
      <trkpt lat="40.82297" lon="0.40756">
        <ele>300.4</ele>
        <time>2022-05-24 19:05:48</time>
      </trkpt>
      <trkpt lat="40.82296" lon="0.40766">
        <ele>299.6</ele>
        <time>2022-05-24 19:05:49</time>
      </trkpt>
      <trkpt lat="40.82297" lon="0.40773">
        <ele>299</ele>
        <time>2022-05-24 19:05:50</time>
      </trkpt>
      <trkpt lat="40.82302" lon="0.40779">
        <ele>298.2</ele>
        <time>2022-05-24 19:05:51</time>
      </trkpt>
      <trkpt lat="40.82309" lon="0.40784">
        <ele>297.4</ele>
        <time>2022-05-24 19:05:52</time>
      </trkpt>
      <trkpt lat="40.82315" lon="0.40786">
        <ele>296.4</ele>
        <time>2022-05-24 19:05:53</time>
      </trkpt>
      <trkpt lat="40.82325" lon="0.40789">
        <ele>295.4</ele>
        <time>2022-05-24 19:05:54</time>
      </trkpt>
      <trkpt lat="40.82333" lon="0.40791">
        <ele>294.6</ele>
        <time>2022-05-24 19:05:55</time>
      </trkpt>
      <trkpt lat="40.82341" lon="0.40794">
        <ele>293.6</ele>
        <time>2022-05-24 19:05:56</time>
      </trkpt>
      <trkpt lat="40.8235" lon="0.40796">
        <ele>292.8</ele>
        <time>2022-05-24 19:05:57</time>
      </trkpt>
      <trkpt lat="40.8236" lon="0.40796">
        <ele>292</ele>
        <time>2022-05-24 19:05:58</time>
      </trkpt>
      <trkpt lat="40.8237" lon="0.40795">
        <ele>291.2</ele>
        <time>2022-05-24 19:05:59</time>
      </trkpt>
      <trkpt lat="40.82379" lon="0.40792">
        <ele>290.4</ele>
        <time>2022-05-24 19:06:00</time>
      </trkpt>
      <trkpt lat="40.82388" lon="0.40788">
        <ele>289.4</ele>
        <time>2022-05-24 19:06:01</time>
      </trkpt>
      <trkpt lat="40.82397" lon="0.40783">
        <ele>288.2</ele>
        <time>2022-05-24 19:06:02</time>
      </trkpt>
      <trkpt lat="40.82407" lon="0.40779">
        <ele>287.2</ele>
        <time>2022-05-24 19:06:03</time>
      </trkpt>
      <trkpt lat="40.82417" lon="0.40775">
        <ele>286</ele>
        <time>2022-05-24 19:06:04</time>
      </trkpt>
      <trkpt lat="40.82426" lon="0.40771">
        <ele>285</ele>
        <time>2022-05-24 19:06:05</time>
      </trkpt>
      <trkpt lat="40.82435" lon="0.40767">
        <ele>284</ele>
        <time>2022-05-24 19:06:06</time>
      </trkpt>
      <trkpt lat="40.82445" lon="0.40761">
        <ele>283.2</ele>
        <time>2022-05-24 19:06:07</time>
      </trkpt>
      <trkpt lat="40.82454" lon="0.40756">
        <ele>282.6</ele>
        <time>2022-05-24 19:06:08</time>
      </trkpt>
      <trkpt lat="40.82462" lon="0.40753">
        <ele>282.4</ele>
        <time>2022-05-24 19:06:09</time>
      </trkpt>
      <trkpt lat="40.82468" lon="0.40752">
        <ele>282.6</ele>
        <time>2022-05-24 19:06:10</time>
      </trkpt>
      <trkpt lat="40.82473" lon="0.40755">
        <ele>283</ele>
        <time>2022-05-24 19:06:11</time>
      </trkpt>
      <trkpt lat="40.82475" lon="0.40761">
        <ele>283.2</ele>
        <time>2022-05-24 19:06:12</time>
      </trkpt>
      <trkpt lat="40.82475" lon="0.40768">
        <ele>283.4</ele>
        <time>2022-05-24 19:06:13</time>
      </trkpt>
      <trkpt lat="40.82473" lon="0.40774">
        <ele>283.6</ele>
        <time>2022-05-24 19:06:14</time>
      </trkpt>
      <trkpt lat="40.82471" lon="0.40782">
        <ele>283.6</ele>
        <time>2022-05-24 19:06:15</time>
      </trkpt>
      <trkpt lat="40.82468" lon="0.40789">
        <ele>283.8</ele>
        <time>2022-05-24 19:06:16</time>
      </trkpt>
      <trkpt lat="40.82466" lon="0.40796">
        <ele>283.8</ele>
        <time>2022-05-24 19:06:17</time>
      </trkpt>
      <trkpt lat="40.82465" lon="0.40803">
        <ele>283.8</ele>
        <time>2022-05-24 19:06:18</time>
      </trkpt>
      <trkpt lat="40.82463" lon="0.40811">
        <ele>283.8</ele>
        <time>2022-05-24 19:06:19</time>
      </trkpt>
      <trkpt lat="40.82461" lon="0.40818">
        <ele>283.8</ele>
        <time>2022-05-24 19:06:20</time>
      </trkpt>
      <trkpt lat="40.82458" lon="0.40826">
        <ele>283.8</ele>
        <time>2022-05-24 19:06:21</time>
      </trkpt>
      <trkpt lat="40.82456" lon="0.40832">
        <ele>283.8</ele>
        <time>2022-05-24 19:06:22</time>
      </trkpt>
      <trkpt lat="40.82454" lon="0.4084">
        <ele>284</ele>
        <time>2022-05-24 19:06:23</time>
      </trkpt>
      <trkpt lat="40.82451" lon="0.40847">
        <ele>284</ele>
        <time>2022-05-24 19:06:24</time>
      </trkpt>
      <trkpt lat="40.82449" lon="0.40854">
        <ele>284.4</ele>
        <time>2022-05-24 19:06:25</time>
      </trkpt>
      <trkpt lat="40.82448" lon="0.4086">
        <ele>284.6</ele>
        <time>2022-05-24 19:06:26</time>
      </trkpt>
      <trkpt lat="40.82446" lon="0.40866">
        <ele>284.8</ele>
        <time>2022-05-24 19:06:27</time>
      </trkpt>
      <trkpt lat="40.82445" lon="0.40873">
        <ele>285.2</ele>
        <time>2022-05-24 19:06:28</time>
      </trkpt>
      <trkpt lat="40.82444" lon="0.40879">
        <ele>285.4</ele>
        <time>2022-05-24 19:06:29</time>
      </trkpt>
      <trkpt lat="40.82443" lon="0.40884">
        <ele>285.6</ele>
        <time>2022-05-24 19:06:30</time>
      </trkpt>
      <trkpt lat="40.82442" lon="0.4089">
        <ele>286</ele>
        <time>2022-05-24 19:06:31</time>
      </trkpt>
      <trkpt lat="40.82441" lon="0.40896">
        <ele>286.2</ele>
        <time>2022-05-24 19:06:32</time>
      </trkpt>
      <trkpt lat="40.82441" lon="0.40902">
        <ele>286.4</ele>
        <time>2022-05-24 19:06:33</time>
      </trkpt>
      <trkpt lat="40.8244" lon="0.40908">
        <ele>286.6</ele>
        <time>2022-05-24 19:06:34</time>
      </trkpt>
      <trkpt lat="40.82441" lon="0.40913">
        <ele>286.8</ele>
        <time>2022-05-24 19:06:35</time>
      </trkpt>
      <trkpt lat="40.82441" lon="0.4092">
        <ele>286.8</ele>
        <time>2022-05-24 19:06:36</time>
      </trkpt>
      <trkpt lat="40.82441" lon="0.40927">
        <ele>286.8</ele>
        <time>2022-05-24 19:06:37</time>
      </trkpt>
      <trkpt lat="40.82442" lon="0.40934">
        <ele>286.8</ele>
        <time>2022-05-24 19:06:38</time>
      </trkpt>
      <trkpt lat="40.82442" lon="0.40941">
        <ele>286.8</ele>
        <time>2022-05-24 19:06:39</time>
      </trkpt>
      <trkpt lat="40.82443" lon="0.40947">
        <ele>286.6</ele>
        <time>2022-05-24 19:06:40</time>
      </trkpt>
      <trkpt lat="40.82444" lon="0.40955">
        <ele>286.8</ele>
        <time>2022-05-24 19:06:41</time>
      </trkpt>
      <trkpt lat="40.82444" lon="0.40962">
        <ele>286.8</ele>
        <time>2022-05-24 19:06:42</time>
      </trkpt>
      <trkpt lat="40.82445" lon="0.40969">
        <ele>286.8</ele>
        <time>2022-05-24 19:06:43</time>
      </trkpt>
      <trkpt lat="40.82446" lon="0.40976">
        <ele>286.6</ele>
        <time>2022-05-24 19:06:44</time>
      </trkpt>
      <trkpt lat="40.82447" lon="0.40983">
        <ele>286.6</ele>
        <time>2022-05-24 19:06:45</time>
      </trkpt>
      <trkpt lat="40.82448" lon="0.40991">
        <ele>286.4</ele>
        <time>2022-05-24 19:06:46</time>
      </trkpt>
      <trkpt lat="40.82448" lon="0.40998">
        <ele>286.2</ele>
        <time>2022-05-24 19:06:47</time>
      </trkpt>
      <trkpt lat="40.82449" lon="0.41006">
        <ele>285.8</ele>
        <time>2022-05-24 19:06:48</time>
      </trkpt>
      <trkpt lat="40.82449" lon="0.41015">
        <ele>285.6</ele>
        <time>2022-05-24 19:06:49</time>
      </trkpt>
      <trkpt lat="40.8245" lon="0.41023">
        <ele>285.4</ele>
        <time>2022-05-24 19:06:50</time>
      </trkpt>
      <trkpt lat="40.82451" lon="0.41032">
        <ele>285.2</ele>
        <time>2022-05-24 19:06:51</time>
      </trkpt>
      <trkpt lat="40.82452" lon="0.4104">
        <ele>285</ele>
        <time>2022-05-24 19:06:52</time>
      </trkpt>
      <trkpt lat="40.82454" lon="0.41048">
        <ele>284.6</ele>
        <time>2022-05-24 19:06:53</time>
      </trkpt>
      <trkpt lat="40.82456" lon="0.41057">
        <ele>284.4</ele>
        <time>2022-05-24 19:06:54</time>
      </trkpt>
      <trkpt lat="40.82457" lon="0.41067">
        <ele>284.2</ele>
        <time>2022-05-24 19:06:55</time>
      </trkpt>
      <trkpt lat="40.82458" lon="0.41076">
        <ele>284</ele>
        <time>2022-05-24 19:06:56</time>
      </trkpt>
      <trkpt lat="40.8246" lon="0.41085">
        <ele>283.6</ele>
        <time>2022-05-24 19:06:57</time>
      </trkpt>
      <trkpt lat="40.82462" lon="0.41095">
        <ele>283</ele>
        <time>2022-05-24 19:06:58</time>
      </trkpt>
      <trkpt lat="40.82464" lon="0.41105">
        <ele>282.6</ele>
        <time>2022-05-24 19:06:59</time>
      </trkpt>
      <trkpt lat="40.82467" lon="0.41115">
        <ele>282.2</ele>
        <time>2022-05-24 19:07:00</time>
      </trkpt>
      <trkpt lat="40.82469" lon="0.41125">
        <ele>281.6</ele>
        <time>2022-05-24 19:07:01</time>
      </trkpt>
      <trkpt lat="40.82471" lon="0.41136">
        <ele>281.2</ele>
        <time>2022-05-24 19:07:02</time>
      </trkpt>
      <trkpt lat="40.82473" lon="0.41147">
        <ele>280.6</ele>
        <time>2022-05-24 19:07:03</time>
      </trkpt>
      <trkpt lat="40.82475" lon="0.41159">
        <ele>280.2</ele>
        <time>2022-05-24 19:07:04</time>
      </trkpt>
      <trkpt lat="40.82478" lon="0.41171">
        <ele>279.8</ele>
        <time>2022-05-24 19:07:05</time>
      </trkpt>
      <trkpt lat="40.82479" lon="0.41183">
        <ele>279.4</ele>
        <time>2022-05-24 19:07:06</time>
      </trkpt>
      <trkpt lat="40.82481" lon="0.41196">
        <ele>278.8</ele>
        <time>2022-05-24 19:07:07</time>
      </trkpt>
      <trkpt lat="40.82484" lon="0.41208">
        <ele>278.2</ele>
        <time>2022-05-24 19:07:08</time>
      </trkpt>
      <trkpt lat="40.82486" lon="0.41221">
        <ele>277.6</ele>
        <time>2022-05-24 19:07:09</time>
      </trkpt>
      <trkpt lat="40.82488" lon="0.41233">
        <ele>276.8</ele>
        <time>2022-05-24 19:07:10</time>
      </trkpt>
      <trkpt lat="40.82492" lon="0.41247">
        <ele>276.2</ele>
        <time>2022-05-24 19:07:11</time>
      </trkpt>
      <trkpt lat="40.82495" lon="0.41261">
        <ele>275.4</ele>
        <time>2022-05-24 19:07:12</time>
      </trkpt>
      <trkpt lat="40.82498" lon="0.41275">
        <ele>274.8</ele>
        <time>2022-05-24 19:07:13</time>
      </trkpt>
      <trkpt lat="40.82501" lon="0.41288">
        <ele>274</ele>
        <time>2022-05-24 19:07:14</time>
      </trkpt>
      <trkpt lat="40.82505" lon="0.41301">
        <ele>273.2</ele>
        <time>2022-05-24 19:07:15</time>
      </trkpt>
      <trkpt lat="40.82508" lon="0.41314">
        <ele>272.6</ele>
        <time>2022-05-24 19:07:16</time>
      </trkpt>
      <trkpt lat="40.82512" lon="0.41328">
        <ele>271.6</ele>
        <time>2022-05-24 19:07:17</time>
      </trkpt>
      <trkpt lat="40.82515" lon="0.41341">
        <ele>270.8</ele>
        <time>2022-05-24 19:07:18</time>
      </trkpt>
      <trkpt lat="40.82518" lon="0.41355">
        <ele>270</ele>
        <time>2022-05-24 19:07:19</time>
      </trkpt>
      <trkpt lat="40.82521" lon="0.4137">
        <ele>269</ele>
        <time>2022-05-24 19:07:20</time>
      </trkpt>
      <trkpt lat="40.82525" lon="0.41384">
        <ele>268.2</ele>
        <time>2022-05-24 19:07:21</time>
      </trkpt>
      <trkpt lat="40.82529" lon="0.41399">
        <ele>267.2</ele>
        <time>2022-05-24 19:07:22</time>
      </trkpt>
      <trkpt lat="40.82533" lon="0.41413">
        <ele>266.4</ele>
        <time>2022-05-24 19:07:23</time>
      </trkpt>
      <trkpt lat="40.82536" lon="0.41427">
        <ele>265.4</ele>
        <time>2022-05-24 19:07:24</time>
      </trkpt>
      <trkpt lat="40.8254" lon="0.41442">
        <ele>264.6</ele>
        <time>2022-05-24 19:07:25</time>
      </trkpt>
      <trkpt lat="40.82543" lon="0.41455">
        <ele>263.6</ele>
        <time>2022-05-24 19:07:26</time>
      </trkpt>
      <trkpt lat="40.82547" lon="0.41469">
        <ele>262.8</ele>
        <time>2022-05-24 19:07:27</time>
      </trkpt>
      <trkpt lat="40.8255" lon="0.41484">
        <ele>262</ele>
        <time>2022-05-24 19:07:28</time>
      </trkpt>
      <trkpt lat="40.82553" lon="0.41497">
        <ele>261.4</ele>
        <time>2022-05-24 19:07:29</time>
      </trkpt>
      <trkpt lat="40.82556" lon="0.41509">
        <ele>260.8</ele>
        <time>2022-05-24 19:07:30</time>
      </trkpt>
      <trkpt lat="40.82559" lon="0.41522">
        <ele>260</ele>
        <time>2022-05-24 19:07:31</time>
      </trkpt>
      <trkpt lat="40.82562" lon="0.41534">
        <ele>259.4</ele>
        <time>2022-05-24 19:07:32</time>
      </trkpt>
      <trkpt lat="40.82565" lon="0.41545">
        <ele>258.6</ele>
        <time>2022-05-24 19:07:33</time>
      </trkpt>
      <trkpt lat="40.82568" lon="0.41557">
        <ele>258</ele>
        <time>2022-05-24 19:07:34</time>
      </trkpt>
      <trkpt lat="40.82572" lon="0.41569">
        <ele>257.4</ele>
        <time>2022-05-24 19:07:35</time>
      </trkpt>
      <trkpt lat="40.82574" lon="0.41582">
        <ele>257</ele>
        <time>2022-05-24 19:07:36</time>
      </trkpt>
      <trkpt lat="40.82578" lon="0.41593">
        <ele>256.4</ele>
        <time>2022-05-24 19:07:37</time>
      </trkpt>
      <trkpt lat="40.82581" lon="0.41604">
        <ele>256</ele>
        <time>2022-05-24 19:07:38</time>
      </trkpt>
      <trkpt lat="40.82583" lon="0.41614">
        <ele>255.6</ele>
        <time>2022-05-24 19:07:39</time>
      </trkpt>
      <trkpt lat="40.82586" lon="0.41626">
        <ele>255.2</ele>
        <time>2022-05-24 19:07:40</time>
      </trkpt>
      <trkpt lat="40.82588" lon="0.41636">
        <ele>254.8</ele>
        <time>2022-05-24 19:07:41</time>
      </trkpt>
      <trkpt lat="40.82589" lon="0.41646">
        <ele>254.4</ele>
        <time>2022-05-24 19:07:42</time>
      </trkpt>
      <trkpt lat="40.8259" lon="0.41657">
        <ele>254</ele>
        <time>2022-05-24 19:07:43</time>
      </trkpt>
      <trkpt lat="40.82591" lon="0.41668">
        <ele>253.6</ele>
        <time>2022-05-24 19:07:44</time>
      </trkpt>
      <trkpt lat="40.82591" lon="0.41679">
        <ele>253.2</ele>
        <time>2022-05-24 19:07:45</time>
      </trkpt>
      <trkpt lat="40.82591" lon="0.41691">
        <ele>252.8</ele>
        <time>2022-05-24 19:07:46</time>
      </trkpt>
      <trkpt lat="40.8259" lon="0.41702">
        <ele>252.4</ele>
        <time>2022-05-24 19:07:47</time>
      </trkpt>
      <trkpt lat="40.8259" lon="0.41714">
        <ele>251.8</ele>
        <time>2022-05-24 19:07:48</time>
      </trkpt>
      <trkpt lat="40.82589" lon="0.41726">
        <ele>251.2</ele>
        <time>2022-05-24 19:07:49</time>
      </trkpt>
      <trkpt lat="40.82589" lon="0.41739">
        <ele>250.8</ele>
        <time>2022-05-24 19:07:50</time>
      </trkpt>
      <trkpt lat="40.82589" lon="0.41752">
        <ele>250.2</ele>
        <time>2022-05-24 19:07:51</time>
      </trkpt>
      <trkpt lat="40.82589" lon="0.41765">
        <ele>249.6</ele>
        <time>2022-05-24 19:07:52</time>
      </trkpt>
      <trkpt lat="40.82589" lon="0.41778">
        <ele>249</ele>
        <time>2022-05-24 19:07:53</time>
      </trkpt>
      <trkpt lat="40.82589" lon="0.41789">
        <ele>248.4</ele>
        <time>2022-05-24 19:07:54</time>
      </trkpt>
      <trkpt lat="40.8259" lon="0.41802">
        <ele>247.8</ele>
        <time>2022-05-24 19:07:55</time>
      </trkpt>
      <trkpt lat="40.8259" lon="0.41816">
        <ele>247.2</ele>
        <time>2022-05-24 19:07:56</time>
      </trkpt>
      <trkpt lat="40.82591" lon="0.41829">
        <ele>246.4</ele>
        <time>2022-05-24 19:07:57</time>
      </trkpt>
      <trkpt lat="40.82592" lon="0.41843">
        <ele>245.6</ele>
        <time>2022-05-24 19:07:58</time>
      </trkpt>
      <trkpt lat="40.82592" lon="0.41856">
        <ele>245</ele>
        <time>2022-05-24 19:07:59</time>
      </trkpt>
      <trkpt lat="40.82592" lon="0.41871">
        <ele>244.2</ele>
        <time>2022-05-24 19:08:00</time>
      </trkpt>
      <trkpt lat="40.82593" lon="0.41886">
        <ele>243.4</ele>
        <time>2022-05-24 19:08:01</time>
      </trkpt>
      <trkpt lat="40.82594" lon="0.419">
        <ele>242.8</ele>
        <time>2022-05-24 19:08:02</time>
      </trkpt>
      <trkpt lat="40.82595" lon="0.41915">
        <ele>242</ele>
        <time>2022-05-24 19:08:03</time>
      </trkpt>
      <trkpt lat="40.82595" lon="0.41929">
        <ele>241.2</ele>
        <time>2022-05-24 19:08:04</time>
      </trkpt>
      <trkpt lat="40.82596" lon="0.41943">
        <ele>240.6</ele>
        <time>2022-05-24 19:08:05</time>
      </trkpt>
      <trkpt lat="40.82596" lon="0.41956">
        <ele>239.8</ele>
        <time>2022-05-24 19:08:06</time>
      </trkpt>
      <trkpt lat="40.82597" lon="0.41974">
        <ele>239</ele>
        <time>2022-05-24 19:08:07</time>
      </trkpt>
      <trkpt lat="40.82597" lon="0.41989">
        <ele>238.2</ele>
        <time>2022-05-24 19:08:08</time>
      </trkpt>
      <trkpt lat="40.82598" lon="0.42003">
        <ele>237.4</ele>
        <time>2022-05-24 19:08:09</time>
      </trkpt>
      <trkpt lat="40.82598" lon="0.42018">
        <ele>236.6</ele>
        <time>2022-05-24 19:08:10</time>
      </trkpt>
      <trkpt lat="40.82599" lon="0.42032">
        <ele>236</ele>
        <time>2022-05-24 19:08:11</time>
      </trkpt>
      <trkpt lat="40.82599" lon="0.42048">
        <ele>235.2</ele>
        <time>2022-05-24 19:08:12</time>
      </trkpt>
      <trkpt lat="40.826" lon="0.42062">
        <ele>234.4</ele>
        <time>2022-05-24 19:08:13</time>
      </trkpt>
      <trkpt lat="40.82599" lon="0.42077">
        <ele>233.8</ele>
        <time>2022-05-24 19:08:14</time>
      </trkpt>
      <trkpt lat="40.82599" lon="0.42091">
        <ele>233.2</ele>
        <time>2022-05-24 19:08:15</time>
      </trkpt>
      <trkpt lat="40.826" lon="0.42107">
        <ele>232.8</ele>
        <time>2022-05-24 19:08:16</time>
      </trkpt>
      <trkpt lat="40.82599" lon="0.42122">
        <ele>232.2</ele>
        <time>2022-05-24 19:08:17</time>
      </trkpt>
      <trkpt lat="40.82599" lon="0.42137">
        <ele>231.4</ele>
        <time>2022-05-24 19:08:18</time>
      </trkpt>
      <trkpt lat="40.82599" lon="0.42152">
        <ele>230.6</ele>
        <time>2022-05-24 19:08:19</time>
      </trkpt>
      <trkpt lat="40.82599" lon="0.42167">
        <ele>229.6</ele>
        <time>2022-05-24 19:08:20</time>
      </trkpt>
      <trkpt lat="40.82599" lon="0.42181">
        <ele>228.8</ele>
        <time>2022-05-24 19:08:21</time>
      </trkpt>
      <trkpt lat="40.82599" lon="0.42197">
        <ele>228</ele>
        <time>2022-05-24 19:08:22</time>
      </trkpt>
      <trkpt lat="40.82599" lon="0.42212">
        <ele>227.2</ele>
        <time>2022-05-24 19:08:23</time>
      </trkpt>
      <trkpt lat="40.82599" lon="0.42227">
        <ele>226.4</ele>
        <time>2022-05-24 19:08:24</time>
      </trkpt>
      <trkpt lat="40.82599" lon="0.42242">
        <ele>225.8</ele>
        <time>2022-05-24 19:08:25</time>
      </trkpt>
      <trkpt lat="40.82599" lon="0.42257">
        <ele>225.2</ele>
        <time>2022-05-24 19:08:26</time>
      </trkpt>
      <trkpt lat="40.82599" lon="0.42272">
        <ele>224.4</ele>
        <time>2022-05-24 19:08:27</time>
      </trkpt>
      <trkpt lat="40.82599" lon="0.42287">
        <ele>223.8</ele>
        <time>2022-05-24 19:08:28</time>
      </trkpt>
      <trkpt lat="40.826" lon="0.42301">
        <ele>223.2</ele>
        <time>2022-05-24 19:08:29</time>
      </trkpt>
      <trkpt lat="40.826" lon="0.42316">
        <ele>222.6</ele>
        <time>2022-05-24 19:08:30</time>
      </trkpt>
      <trkpt lat="40.826" lon="0.4233">
        <ele>222.2</ele>
        <time>2022-05-24 19:08:31</time>
      </trkpt>
      <trkpt lat="40.826" lon="0.42345">
        <ele>221.4</ele>
        <time>2022-05-24 19:08:32</time>
      </trkpt>
      <trkpt lat="40.82601" lon="0.42359">
        <ele>220.8</ele>
        <time>2022-05-24 19:08:33</time>
      </trkpt>
      <trkpt lat="40.82601" lon="0.42374">
        <ele>220.2</ele>
        <time>2022-05-24 19:08:34</time>
      </trkpt>
      <trkpt lat="40.82602" lon="0.42388">
        <ele>219.6</ele>
        <time>2022-05-24 19:08:35</time>
      </trkpt>
      <trkpt lat="40.82602" lon="0.42403">
        <ele>218.8</ele>
        <time>2022-05-24 19:08:36</time>
      </trkpt>
      <trkpt lat="40.82602" lon="0.42417">
        <ele>218.2</ele>
        <time>2022-05-24 19:08:37</time>
      </trkpt>
      <trkpt lat="40.82603" lon="0.42432">
        <ele>217.4</ele>
        <time>2022-05-24 19:08:38</time>
      </trkpt>
      <trkpt lat="40.82603" lon="0.42446">
        <ele>216.8</ele>
        <time>2022-05-24 19:08:39</time>
      </trkpt>
      <trkpt lat="40.82603" lon="0.42461">
        <ele>216.2</ele>
        <time>2022-05-24 19:08:40</time>
      </trkpt>
      <trkpt lat="40.82604" lon="0.42475">
        <ele>215.6</ele>
        <time>2022-05-24 19:08:41</time>
      </trkpt>
      <trkpt lat="40.82604" lon="0.42489">
        <ele>215</ele>
        <time>2022-05-24 19:08:42</time>
      </trkpt>
      <trkpt lat="40.82605" lon="0.42503">
        <ele>214.6</ele>
        <time>2022-05-24 19:08:43</time>
      </trkpt>
      <trkpt lat="40.82605" lon="0.42517">
        <ele>214</ele>
        <time>2022-05-24 19:08:44</time>
      </trkpt>
      <trkpt lat="40.82606" lon="0.42531">
        <ele>213.6</ele>
        <time>2022-05-24 19:08:45</time>
      </trkpt>
      <trkpt lat="40.82605" lon="0.42546">
        <ele>213</ele>
        <time>2022-05-24 19:08:46</time>
      </trkpt>
      <trkpt lat="40.82605" lon="0.4256">
        <ele>212.2</ele>
        <time>2022-05-24 19:08:47</time>
      </trkpt>
      <trkpt lat="40.82605" lon="0.42574">
        <ele>211.6</ele>
        <time>2022-05-24 19:08:48</time>
      </trkpt>
      <trkpt lat="40.82604" lon="0.42588">
        <ele>211</ele>
        <time>2022-05-24 19:08:49</time>
      </trkpt>
      <trkpt lat="40.82604" lon="0.42601">
        <ele>210.4</ele>
        <time>2022-05-24 19:08:50</time>
      </trkpt>
      <trkpt lat="40.82604" lon="0.42615">
        <ele>209.8</ele>
        <time>2022-05-24 19:08:51</time>
      </trkpt>
      <trkpt lat="40.82603" lon="0.42629">
        <ele>209.2</ele>
        <time>2022-05-24 19:08:52</time>
      </trkpt>
      <trkpt lat="40.82603" lon="0.42642">
        <ele>208.6</ele>
        <time>2022-05-24 19:08:53</time>
      </trkpt>
      <trkpt lat="40.82603" lon="0.42656">
        <ele>208.2</ele>
        <time>2022-05-24 19:08:54</time>
      </trkpt>
      <trkpt lat="40.82603" lon="0.42668">
        <ele>207.8</ele>
        <time>2022-05-24 19:08:55</time>
      </trkpt>
      <trkpt lat="40.82602" lon="0.42682">
        <ele>207.2</ele>
        <time>2022-05-24 19:08:56</time>
      </trkpt>
      <trkpt lat="40.82602" lon="0.42695">
        <ele>206.8</ele>
        <time>2022-05-24 19:08:57</time>
      </trkpt>
      <trkpt lat="40.82602" lon="0.42708">
        <ele>206.4</ele>
        <time>2022-05-24 19:08:58</time>
      </trkpt>
      <trkpt lat="40.82601" lon="0.42721">
        <ele>205.8</ele>
        <time>2022-05-24 19:08:59</time>
      </trkpt>
      <trkpt lat="40.82601" lon="0.42734">
        <ele>205.2</ele>
        <time>2022-05-24 19:09:00</time>
      </trkpt>
      <trkpt lat="40.826" lon="0.42747">
        <ele>204.8</ele>
        <time>2022-05-24 19:09:01</time>
      </trkpt>
      <trkpt lat="40.826" lon="0.4276">
        <ele>204.2</ele>
        <time>2022-05-24 19:09:02</time>
      </trkpt>
      <trkpt lat="40.82599" lon="0.42771">
        <ele>203.8</ele>
        <time>2022-05-24 19:09:03</time>
      </trkpt>
      <trkpt lat="40.82598" lon="0.42784">
        <ele>203.4</ele>
        <time>2022-05-24 19:09:04</time>
      </trkpt>
      <trkpt lat="40.82598" lon="0.42797">
        <ele>202.8</ele>
        <time>2022-05-24 19:09:05</time>
      </trkpt>
      <trkpt lat="40.82598" lon="0.42809">
        <ele>202.2</ele>
        <time>2022-05-24 19:09:06</time>
      </trkpt>
      <trkpt lat="40.82597" lon="0.42823">
        <ele>201.8</ele>
        <time>2022-05-24 19:09:07</time>
      </trkpt>
      <trkpt lat="40.82597" lon="0.42835">
        <ele>201.4</ele>
        <time>2022-05-24 19:09:08</time>
      </trkpt>
      <trkpt lat="40.82595" lon="0.42848">
        <ele>200.8</ele>
        <time>2022-05-24 19:09:09</time>
      </trkpt>
      <trkpt lat="40.82595" lon="0.4286">
        <ele>200.2</ele>
        <time>2022-05-24 19:09:10</time>
      </trkpt>
      <trkpt lat="40.82594" lon="0.42873">
        <ele>199.6</ele>
        <time>2022-05-24 19:09:11</time>
      </trkpt>
      <trkpt lat="40.82594" lon="0.42886">
        <ele>199</ele>
        <time>2022-05-24 19:09:12</time>
      </trkpt>
      <trkpt lat="40.82594" lon="0.42898">
        <ele>198.6</ele>
        <time>2022-05-24 19:09:13</time>
      </trkpt>
      <trkpt lat="40.82594" lon="0.42911">
        <ele>198.2</ele>
        <time>2022-05-24 19:09:14</time>
      </trkpt>
      <trkpt lat="40.82594" lon="0.42923">
        <ele>197.8</ele>
        <time>2022-05-24 19:09:15</time>
      </trkpt>
      <trkpt lat="40.82594" lon="0.42934">
        <ele>197.4</ele>
        <time>2022-05-24 19:09:16</time>
      </trkpt>
      <trkpt lat="40.82595" lon="0.42947">
        <ele>197</ele>
        <time>2022-05-24 19:09:17</time>
      </trkpt>
      <trkpt lat="40.82595" lon="0.42959">
        <ele>196.4</ele>
        <time>2022-05-24 19:09:18</time>
      </trkpt>
      <trkpt lat="40.82597" lon="0.42971">
        <ele>196</ele>
        <time>2022-05-24 19:09:19</time>
      </trkpt>
      <trkpt lat="40.82597" lon="0.42983">
        <ele>195.4</ele>
        <time>2022-05-24 19:09:20</time>
      </trkpt>
      <trkpt lat="40.82598" lon="0.42994">
        <ele>195</ele>
        <time>2022-05-24 19:09:21</time>
      </trkpt>
      <trkpt lat="40.82599" lon="0.43007">
        <ele>194.6</ele>
        <time>2022-05-24 19:09:22</time>
      </trkpt>
      <trkpt lat="40.826" lon="0.43018">
        <ele>194.2</ele>
        <time>2022-05-24 19:09:23</time>
      </trkpt>
      <trkpt lat="40.826" lon="0.4303">
        <ele>194</ele>
        <time>2022-05-24 19:09:24</time>
      </trkpt>
      <trkpt lat="40.826" lon="0.43041">
        <ele>193.6</ele>
        <time>2022-05-24 19:09:25</time>
      </trkpt>
      <trkpt lat="40.82599" lon="0.43053">
        <ele>193.4</ele>
        <time>2022-05-24 19:09:26</time>
      </trkpt>
      <trkpt lat="40.82598" lon="0.43065">
        <ele>192.8</ele>
        <time>2022-05-24 19:09:27</time>
      </trkpt>
      <trkpt lat="40.82597" lon="0.43076">
        <ele>192.4</ele>
        <time>2022-05-24 19:09:28</time>
      </trkpt>
      <trkpt lat="40.82597" lon="0.43088">
        <ele>192</ele>
        <time>2022-05-24 19:09:29</time>
      </trkpt>
      <trkpt lat="40.82595" lon="0.431">
        <ele>191.6</ele>
        <time>2022-05-24 19:09:30</time>
      </trkpt>
      <trkpt lat="40.82594" lon="0.43112">
        <ele>191.4</ele>
        <time>2022-05-24 19:09:31</time>
      </trkpt>
      <trkpt lat="40.82593" lon="0.43123">
        <ele>191</ele>
        <time>2022-05-24 19:09:32</time>
      </trkpt>
      <trkpt lat="40.82591" lon="0.43134">
        <ele>190.6</ele>
        <time>2022-05-24 19:09:33</time>
      </trkpt>
      <trkpt lat="40.8259" lon="0.43146">
        <ele>190.2</ele>
        <time>2022-05-24 19:09:34</time>
      </trkpt>
      <trkpt lat="40.82588" lon="0.43157">
        <ele>189.8</ele>
        <time>2022-05-24 19:09:35</time>
      </trkpt>
      <trkpt lat="40.82587" lon="0.43168">
        <ele>189.4</ele>
        <time>2022-05-24 19:09:36</time>
      </trkpt>
      <trkpt lat="40.82586" lon="0.4318">
        <ele>189</ele>
        <time>2022-05-24 19:09:37</time>
      </trkpt>
      <trkpt lat="40.82584" lon="0.43191">
        <ele>188.6</ele>
        <time>2022-05-24 19:09:38</time>
      </trkpt>
      <trkpt lat="40.82583" lon="0.43202">
        <ele>188</ele>
        <time>2022-05-24 19:09:39</time>
      </trkpt>
      <trkpt lat="40.82582" lon="0.43213">
        <ele>187.8</ele>
        <time>2022-05-24 19:09:40</time>
      </trkpt>
      <trkpt lat="40.82582" lon="0.43225">
        <ele>187.4</ele>
        <time>2022-05-24 19:09:41</time>
      </trkpt>
      <trkpt lat="40.82581" lon="0.43236">
        <ele>187.2</ele>
        <time>2022-05-24 19:09:42</time>
      </trkpt>
      <trkpt lat="40.8258" lon="0.43248">
        <ele>186.8</ele>
        <time>2022-05-24 19:09:43</time>
      </trkpt>
      <trkpt lat="40.8258" lon="0.43259">
        <ele>186.4</ele>
        <time>2022-05-24 19:09:44</time>
      </trkpt>
      <trkpt lat="40.82579" lon="0.43271">
        <ele>185.8</ele>
        <time>2022-05-24 19:09:45</time>
      </trkpt>
      <trkpt lat="40.82579" lon="0.43282">
        <ele>185.4</ele>
        <time>2022-05-24 19:09:46</time>
      </trkpt>
      <trkpt lat="40.82579" lon="0.43294">
        <ele>185</ele>
        <time>2022-05-24 19:09:47</time>
      </trkpt>
      <trkpt lat="40.82578" lon="0.43306">
        <ele>184.6</ele>
        <time>2022-05-24 19:09:48</time>
      </trkpt>
      <trkpt lat="40.82578" lon="0.43318">
        <ele>184.2</ele>
        <time>2022-05-24 19:09:49</time>
      </trkpt>
      <trkpt lat="40.82578" lon="0.43329">
        <ele>183.8</ele>
        <time>2022-05-24 19:09:50</time>
      </trkpt>
      <trkpt lat="40.82578" lon="0.43341">
        <ele>183.4</ele>
        <time>2022-05-24 19:09:51</time>
      </trkpt>
      <trkpt lat="40.82577" lon="0.43353">
        <ele>183</ele>
        <time>2022-05-24 19:09:52</time>
      </trkpt>
      <trkpt lat="40.82576" lon="0.43365">
        <ele>182.4</ele>
        <time>2022-05-24 19:09:53</time>
      </trkpt>
      <trkpt lat="40.82576" lon="0.43377">
        <ele>181.8</ele>
        <time>2022-05-24 19:09:54</time>
      </trkpt>
      <trkpt lat="40.82575" lon="0.4339">
        <ele>181.4</ele>
        <time>2022-05-24 19:09:55</time>
      </trkpt>
      <trkpt lat="40.82574" lon="0.43402">
        <ele>180.8</ele>
        <time>2022-05-24 19:09:56</time>
      </trkpt>
      <trkpt lat="40.82574" lon="0.43414">
        <ele>180.4</ele>
        <time>2022-05-24 19:09:57</time>
      </trkpt>
      <trkpt lat="40.82573" lon="0.43427">
        <ele>180</ele>
        <time>2022-05-24 19:09:58</time>
      </trkpt>
      <trkpt lat="40.82572" lon="0.43439">
        <ele>179.6</ele>
        <time>2022-05-24 19:09:59</time>
      </trkpt>
      <trkpt lat="40.82571" lon="0.43451">
        <ele>179</ele>
        <time>2022-05-24 19:10:00</time>
      </trkpt>
      <trkpt lat="40.8257" lon="0.43463">
        <ele>178.6</ele>
        <time>2022-05-24 19:10:01</time>
      </trkpt>
      <trkpt lat="40.8257" lon="0.43476">
        <ele>178.2</ele>
        <time>2022-05-24 19:10:02</time>
      </trkpt>
      <trkpt lat="40.8257" lon="0.43488">
        <ele>177.8</ele>
        <time>2022-05-24 19:10:03</time>
      </trkpt>
      <trkpt lat="40.82569" lon="0.43501">
        <ele>177.2</ele>
        <time>2022-05-24 19:10:04</time>
      </trkpt>
      <trkpt lat="40.82568" lon="0.43513">
        <ele>176.8</ele>
        <time>2022-05-24 19:10:05</time>
      </trkpt>
      <trkpt lat="40.82567" lon="0.43526">
        <ele>176.4</ele>
        <time>2022-05-24 19:10:06</time>
      </trkpt>
      <trkpt lat="40.82566" lon="0.43538">
        <ele>175.8</ele>
        <time>2022-05-24 19:10:07</time>
      </trkpt>
      <trkpt lat="40.82565" lon="0.43551">
        <ele>175.4</ele>
        <time>2022-05-24 19:10:08</time>
      </trkpt>
      <trkpt lat="40.82564" lon="0.43563">
        <ele>174.8</ele>
        <time>2022-05-24 19:10:09</time>
      </trkpt>
      <trkpt lat="40.82563" lon="0.43576">
        <ele>174.4</ele>
        <time>2022-05-24 19:10:10</time>
      </trkpt>
      <trkpt lat="40.82562" lon="0.43588">
        <ele>174</ele>
        <time>2022-05-24 19:10:11</time>
      </trkpt>
      <trkpt lat="40.82561" lon="0.43601">
        <ele>173.4</ele>
        <time>2022-05-24 19:10:12</time>
      </trkpt>
      <trkpt lat="40.8256" lon="0.43614">
        <ele>172.8</ele>
        <time>2022-05-24 19:10:13</time>
      </trkpt>
      <trkpt lat="40.82558" lon="0.43626">
        <ele>172.4</ele>
        <time>2022-05-24 19:10:14</time>
      </trkpt>
      <trkpt lat="40.82558" lon="0.43639">
        <ele>172</ele>
        <time>2022-05-24 19:10:15</time>
      </trkpt>
      <trkpt lat="40.82557" lon="0.43651">
        <ele>171.2</ele>
        <time>2022-05-24 19:10:16</time>
      </trkpt>
      <trkpt lat="40.82556" lon="0.43664">
        <ele>170.6</ele>
        <time>2022-05-24 19:10:17</time>
      </trkpt>
      <trkpt lat="40.82555" lon="0.43677">
        <ele>170</ele>
        <time>2022-05-24 19:10:18</time>
      </trkpt>
      <trkpt lat="40.82554" lon="0.4369">
        <ele>169.6</ele>
        <time>2022-05-24 19:10:19</time>
      </trkpt>
      <trkpt lat="40.82553" lon="0.43703">
        <ele>169</ele>
        <time>2022-05-24 19:10:20</time>
      </trkpt>
      <trkpt lat="40.82553" lon="0.43716">
        <ele>168.6</ele>
        <time>2022-05-24 19:10:21</time>
      </trkpt>
      <trkpt lat="40.82552" lon="0.43729">
        <ele>168.2</ele>
        <time>2022-05-24 19:10:22</time>
      </trkpt>
      <trkpt lat="40.82551" lon="0.43742">
        <ele>167.6</ele>
        <time>2022-05-24 19:10:23</time>
      </trkpt>
      <trkpt lat="40.8255" lon="0.43755">
        <ele>167</ele>
        <time>2022-05-24 19:10:24</time>
      </trkpt>
      <trkpt lat="40.8255" lon="0.43768">
        <ele>166.4</ele>
        <time>2022-05-24 19:10:25</time>
      </trkpt>
      <trkpt lat="40.82549" lon="0.43781">
        <ele>165.8</ele>
        <time>2022-05-24 19:10:26</time>
      </trkpt>
      <trkpt lat="40.82548" lon="0.43794">
        <ele>165.4</ele>
        <time>2022-05-24 19:10:27</time>
      </trkpt>
      <trkpt lat="40.82547" lon="0.43807">
        <ele>165</ele>
        <time>2022-05-24 19:10:28</time>
      </trkpt>
      <trkpt lat="40.82546" lon="0.4382">
        <ele>164.4</ele>
        <time>2022-05-24 19:10:29</time>
      </trkpt>
      <trkpt lat="40.82545" lon="0.43833">
        <ele>164</ele>
        <time>2022-05-24 19:10:30</time>
      </trkpt>
      <trkpt lat="40.82545" lon="0.43846">
        <ele>163.6</ele>
        <time>2022-05-24 19:10:31</time>
      </trkpt>
      <trkpt lat="40.82544" lon="0.43858">
        <ele>163</ele>
        <time>2022-05-24 19:10:32</time>
      </trkpt>
      <trkpt lat="40.82544" lon="0.43871">
        <ele>162.6</ele>
        <time>2022-05-24 19:10:33</time>
      </trkpt>
      <trkpt lat="40.82543" lon="0.43884">
        <ele>162.2</ele>
        <time>2022-05-24 19:10:34</time>
      </trkpt>
      <trkpt lat="40.82543" lon="0.43897">
        <ele>161.6</ele>
        <time>2022-05-24 19:10:35</time>
      </trkpt>
      <trkpt lat="40.82542" lon="0.4391">
        <ele>161</ele>
        <time>2022-05-24 19:10:36</time>
      </trkpt>
      <trkpt lat="40.82542" lon="0.43922">
        <ele>160.6</ele>
        <time>2022-05-24 19:10:37</time>
      </trkpt>
      <trkpt lat="40.82541" lon="0.43935">
        <ele>160</ele>
        <time>2022-05-24 19:10:38</time>
      </trkpt>
      <trkpt lat="40.82541" lon="0.43946">
        <ele>159.6</ele>
        <time>2022-05-24 19:10:39</time>
      </trkpt>
      <trkpt lat="40.8254" lon="0.43961">
        <ele>159.2</ele>
        <time>2022-05-24 19:10:40</time>
      </trkpt>
      <trkpt lat="40.8254" lon="0.4397">
        <ele>158.8</ele>
        <time>2022-05-24 19:10:41</time>
      </trkpt>
      <trkpt lat="40.82539" lon="0.43987">
        <ele>158.2</ele>
        <time>2022-05-24 19:10:42</time>
      </trkpt>
      <trkpt lat="40.82539" lon="0.44">
        <ele>157.8</ele>
        <time>2022-05-24 19:10:43</time>
      </trkpt>
      <trkpt lat="40.82539" lon="0.44012">
        <ele>157.4</ele>
        <time>2022-05-24 19:10:44</time>
      </trkpt>
      <trkpt lat="40.82538" lon="0.44024">
        <ele>157</ele>
        <time>2022-05-24 19:10:45</time>
      </trkpt>
      <trkpt lat="40.82538" lon="0.44037">
        <ele>156.8</ele>
        <time>2022-05-24 19:10:46</time>
      </trkpt>
      <trkpt lat="40.82537" lon="0.44048">
        <ele>156.6</ele>
        <time>2022-05-24 19:10:47</time>
      </trkpt>
      <trkpt lat="40.82536" lon="0.44058">
        <ele>156.4</ele>
        <time>2022-05-24 19:10:48</time>
      </trkpt>
      <trkpt lat="40.82536" lon="0.44068">
        <ele>156.4</ele>
        <time>2022-05-24 19:10:49</time>
      </trkpt>
      <trkpt lat="40.82536" lon="0.44076">
        <ele>156.4</ele>
        <time>2022-05-24 19:10:50</time>
      </trkpt>
      <trkpt lat="40.82536" lon="0.44084">
        <ele>156.4</ele>
        <time>2022-05-24 19:10:51</time>
      </trkpt>
      <trkpt lat="40.82536" lon="0.44092">
        <ele>156.4</ele>
        <time>2022-05-24 19:10:52</time>
      </trkpt>
      <trkpt lat="40.82536" lon="0.44101">
        <ele>156.2</ele>
        <time>2022-05-24 19:10:53</time>
      </trkpt>
      <trkpt lat="40.82535" lon="0.44109">
        <ele>156</ele>
        <time>2022-05-24 19:10:54</time>
      </trkpt>
      <trkpt lat="40.82534" lon="0.44118">
        <ele>155.8</ele>
        <time>2022-05-24 19:10:55</time>
      </trkpt>
      <trkpt lat="40.82534" lon="0.44128">
        <ele>155.4</ele>
        <time>2022-05-24 19:10:56</time>
      </trkpt>
      <trkpt lat="40.82533" lon="0.44138">
        <ele>155</ele>
        <time>2022-05-24 19:10:57</time>
      </trkpt>
      <trkpt lat="40.82532" lon="0.44149">
        <ele>154.6</ele>
        <time>2022-05-24 19:10:58</time>
      </trkpt>
      <trkpt lat="40.82532" lon="0.44159">
        <ele>154.2</ele>
        <time>2022-05-24 19:10:59</time>
      </trkpt>
      <trkpt lat="40.82531" lon="0.4417">
        <ele>154</ele>
        <time>2022-05-24 19:11:00</time>
      </trkpt>
      <trkpt lat="40.82531" lon="0.44181">
        <ele>153.4</ele>
        <time>2022-05-24 19:11:01</time>
      </trkpt>
      <trkpt lat="40.8253" lon="0.44193">
        <ele>153</ele>
        <time>2022-05-24 19:11:02</time>
      </trkpt>
      <trkpt lat="40.82529" lon="0.44205">
        <ele>152.4</ele>
        <time>2022-05-24 19:11:03</time>
      </trkpt>
      <trkpt lat="40.82528" lon="0.44217">
        <ele>151.8</ele>
        <time>2022-05-24 19:11:04</time>
      </trkpt>
      <trkpt lat="40.82526" lon="0.44229">
        <ele>151.2</ele>
        <time>2022-05-24 19:11:05</time>
      </trkpt>
      <trkpt lat="40.82525" lon="0.44238">
        <ele>150.8</ele>
        <time>2022-05-24 19:11:06</time>
      </trkpt>
      <trkpt lat="40.82524" lon="0.44254">
        <ele>150.4</ele>
        <time>2022-05-24 19:11:07</time>
      </trkpt>
      <trkpt lat="40.82524" lon="0.44267">
        <ele>149.8</ele>
        <time>2022-05-24 19:11:08</time>
      </trkpt>
      <trkpt lat="40.82524" lon="0.44278">
        <ele>149.4</ele>
        <time>2022-05-24 19:11:09</time>
      </trkpt>
      <trkpt lat="40.82523" lon="0.44292">
        <ele>148.8</ele>
        <time>2022-05-24 19:11:10</time>
      </trkpt>
      <trkpt lat="40.82523" lon="0.44303">
        <ele>148.4</ele>
        <time>2022-05-24 19:11:11</time>
      </trkpt>
      <trkpt lat="40.82523" lon="0.44317">
        <ele>148</ele>
        <time>2022-05-24 19:11:12</time>
      </trkpt>
      <trkpt lat="40.82523" lon="0.4433">
        <ele>147.4</ele>
        <time>2022-05-24 19:11:13</time>
      </trkpt>
      <trkpt lat="40.82522" lon="0.44342">
        <ele>147.2</ele>
        <time>2022-05-24 19:11:14</time>
      </trkpt>
      <trkpt lat="40.82522" lon="0.44355">
        <ele>146.8</ele>
        <time>2022-05-24 19:11:15</time>
      </trkpt>
      <trkpt lat="40.82522" lon="0.44367">
        <ele>146.4</ele>
        <time>2022-05-24 19:11:16</time>
      </trkpt>
      <trkpt lat="40.82522" lon="0.4438">
        <ele>145.8</ele>
        <time>2022-05-24 19:11:17</time>
      </trkpt>
      <trkpt lat="40.82521" lon="0.44394">
        <ele>145.4</ele>
        <time>2022-05-24 19:11:18</time>
      </trkpt>
      <trkpt lat="40.82521" lon="0.44407">
        <ele>144.8</ele>
        <time>2022-05-24 19:11:19</time>
      </trkpt>
      <trkpt lat="40.82522" lon="0.44419">
        <ele>144.4</ele>
        <time>2022-05-24 19:11:20</time>
      </trkpt>
      <trkpt lat="40.82522" lon="0.44432">
        <ele>144</ele>
        <time>2022-05-24 19:11:21</time>
      </trkpt>
      <trkpt lat="40.82521" lon="0.44446">
        <ele>143.6</ele>
        <time>2022-05-24 19:11:22</time>
      </trkpt>
      <trkpt lat="40.82521" lon="0.4446">
        <ele>143.2</ele>
        <time>2022-05-24 19:11:23</time>
      </trkpt>
      <trkpt lat="40.82521" lon="0.44472">
        <ele>143.2</ele>
        <time>2022-05-24 19:11:24</time>
      </trkpt>
      <trkpt lat="40.82521" lon="0.44484">
        <ele>142.8</ele>
        <time>2022-05-24 19:11:25</time>
      </trkpt>
      <trkpt lat="40.82521" lon="0.445">
        <ele>142.4</ele>
        <time>2022-05-24 19:11:26</time>
      </trkpt>
      <trkpt lat="40.82521" lon="0.44513">
        <ele>141.6</ele>
        <time>2022-05-24 19:11:27</time>
      </trkpt>
      <trkpt lat="40.82521" lon="0.44526">
        <ele>141</ele>
        <time>2022-05-24 19:11:28</time>
      </trkpt>
      <trkpt lat="40.8252" lon="0.4454">
        <ele>140.4</ele>
        <time>2022-05-24 19:11:29</time>
      </trkpt>
      <trkpt lat="40.82519" lon="0.44554">
        <ele>139.8</ele>
        <time>2022-05-24 19:11:30</time>
      </trkpt>
      <trkpt lat="40.82519" lon="0.44567">
        <ele>139.2</ele>
        <time>2022-05-24 19:11:31</time>
      </trkpt>
      <trkpt lat="40.82518" lon="0.44582">
        <ele>139</ele>
        <time>2022-05-24 19:11:32</time>
      </trkpt>
      <trkpt lat="40.82517" lon="0.44594">
        <ele>138.6</ele>
        <time>2022-05-24 19:11:33</time>
      </trkpt>
      <trkpt lat="40.82516" lon="0.44609">
        <ele>138</ele>
        <time>2022-05-24 19:11:34</time>
      </trkpt>
      <trkpt lat="40.82515" lon="0.44622">
        <ele>137.6</ele>
        <time>2022-05-24 19:11:35</time>
      </trkpt>
      <trkpt lat="40.82515" lon="0.44635">
        <ele>137</ele>
        <time>2022-05-24 19:11:36</time>
      </trkpt>
      <trkpt lat="40.82513" lon="0.44649">
        <ele>136.4</ele>
        <time>2022-05-24 19:11:37</time>
      </trkpt>
      <trkpt lat="40.82513" lon="0.44663">
        <ele>135.8</ele>
        <time>2022-05-24 19:11:38</time>
      </trkpt>
      <trkpt lat="40.82513" lon="0.44677">
        <ele>135.4</ele>
        <time>2022-05-24 19:11:39</time>
      </trkpt>
      <trkpt lat="40.82512" lon="0.4469">
        <ele>134.8</ele>
        <time>2022-05-24 19:11:40</time>
      </trkpt>
      <trkpt lat="40.82512" lon="0.44703">
        <ele>134.6</ele>
        <time>2022-05-24 19:11:41</time>
      </trkpt>
      <trkpt lat="40.82512" lon="0.44719">
        <ele>134.2</ele>
        <time>2022-05-24 19:11:42</time>
      </trkpt>
      <trkpt lat="40.82513" lon="0.44733">
        <ele>133.8</ele>
        <time>2022-05-24 19:11:43</time>
      </trkpt>
      <trkpt lat="40.82513" lon="0.44745">
        <ele>133.4</ele>
        <time>2022-05-24 19:11:44</time>
      </trkpt>
      <trkpt lat="40.82513" lon="0.44759">
        <ele>132.8</ele>
        <time>2022-05-24 19:11:45</time>
      </trkpt>
      <trkpt lat="40.82514" lon="0.44771">
        <ele>132.4</ele>
        <time>2022-05-24 19:11:46</time>
      </trkpt>
      <trkpt lat="40.82515" lon="0.44784">
        <ele>132</ele>
        <time>2022-05-24 19:11:47</time>
      </trkpt>
      <trkpt lat="40.82515" lon="0.44797">
        <ele>131.6</ele>
        <time>2022-05-24 19:11:48</time>
      </trkpt>
      <trkpt lat="40.82515" lon="0.44811">
        <ele>131.2</ele>
        <time>2022-05-24 19:11:49</time>
      </trkpt>
      <trkpt lat="40.82515" lon="0.44824">
        <ele>131</ele>
        <time>2022-05-24 19:11:50</time>
      </trkpt>
      <trkpt lat="40.82515" lon="0.44838">
        <ele>130.6</ele>
        <time>2022-05-24 19:11:51</time>
      </trkpt>
      <trkpt lat="40.82516" lon="0.4485">
        <ele>130.2</ele>
        <time>2022-05-24 19:11:52</time>
      </trkpt>
      <trkpt lat="40.82516" lon="0.44863">
        <ele>129.8</ele>
        <time>2022-05-24 19:11:53</time>
      </trkpt>
      <trkpt lat="40.82518" lon="0.44876">
        <ele>129.4</ele>
        <time>2022-05-24 19:11:54</time>
      </trkpt>
      <trkpt lat="40.82519" lon="0.44889">
        <ele>129.2</ele>
        <time>2022-05-24 19:11:55</time>
      </trkpt>
      <trkpt lat="40.8252" lon="0.44902">
        <ele>129.2</ele>
        <time>2022-05-24 19:11:56</time>
      </trkpt>
      <trkpt lat="40.82521" lon="0.44914">
        <ele>129</ele>
        <time>2022-05-24 19:11:57</time>
      </trkpt>
      <trkpt lat="40.82522" lon="0.44925">
        <ele>128.8</ele>
        <time>2022-05-24 19:11:58</time>
      </trkpt>
      <trkpt lat="40.82523" lon="0.44939">
        <ele>128.2</ele>
        <time>2022-05-24 19:11:59</time>
      </trkpt>
      <trkpt lat="40.82523" lon="0.44951">
        <ele>127.6</ele>
        <time>2022-05-24 19:12:00</time>
      </trkpt>
      <trkpt lat="40.82524" lon="0.44963">
        <ele>127.2</ele>
        <time>2022-05-24 19:12:01</time>
      </trkpt>
      <trkpt lat="40.82525" lon="0.44976">
        <ele>126.8</ele>
        <time>2022-05-24 19:12:02</time>
      </trkpt>
      <trkpt lat="40.82526" lon="0.44989">
        <ele>126.2</ele>
        <time>2022-05-24 19:12:03</time>
      </trkpt>
      <trkpt lat="40.82527" lon="0.45003">
        <ele>125.8</ele>
        <time>2022-05-24 19:12:04</time>
      </trkpt>
      <trkpt lat="40.82528" lon="0.45016">
        <ele>125.4</ele>
        <time>2022-05-24 19:12:05</time>
      </trkpt>
      <trkpt lat="40.82529" lon="0.45029">
        <ele>125</ele>
        <time>2022-05-24 19:12:06</time>
      </trkpt>
      <trkpt lat="40.8253" lon="0.45042">
        <ele>124.6</ele>
        <time>2022-05-24 19:12:07</time>
      </trkpt>
      <trkpt lat="40.82531" lon="0.45055">
        <ele>124.2</ele>
        <time>2022-05-24 19:12:08</time>
      </trkpt>
      <trkpt lat="40.82532" lon="0.45067">
        <ele>123.8</ele>
        <time>2022-05-24 19:12:09</time>
      </trkpt>
      <trkpt lat="40.82533" lon="0.4508">
        <ele>123.4</ele>
        <time>2022-05-24 19:12:10</time>
      </trkpt>
      <trkpt lat="40.82534" lon="0.45093">
        <ele>123</ele>
        <time>2022-05-24 19:12:11</time>
      </trkpt>
      <trkpt lat="40.82535" lon="0.45105">
        <ele>122.8</ele>
        <time>2022-05-24 19:12:12</time>
      </trkpt>
      <trkpt lat="40.82536" lon="0.45117">
        <ele>122.2</ele>
        <time>2022-05-24 19:12:13</time>
      </trkpt>
      <trkpt lat="40.82537" lon="0.4513">
        <ele>122</ele>
        <time>2022-05-24 19:12:14</time>
      </trkpt>
      <trkpt lat="40.82537" lon="0.45143">
        <ele>121.6</ele>
        <time>2022-05-24 19:12:15</time>
      </trkpt>
      <trkpt lat="40.82538" lon="0.45155">
        <ele>121</ele>
        <time>2022-05-24 19:12:16</time>
      </trkpt>
      <trkpt lat="40.82539" lon="0.45168">
        <ele>120.8</ele>
        <time>2022-05-24 19:12:17</time>
      </trkpt>
      <trkpt lat="40.82539" lon="0.4518">
        <ele>120.4</ele>
        <time>2022-05-24 19:12:18</time>
      </trkpt>
      <trkpt lat="40.82539" lon="0.45193">
        <ele>120</ele>
        <time>2022-05-24 19:12:19</time>
      </trkpt>
      <trkpt lat="40.8254" lon="0.45206">
        <ele>119.6</ele>
        <time>2022-05-24 19:12:20</time>
      </trkpt>
      <trkpt lat="40.82541" lon="0.45219">
        <ele>119.2</ele>
        <time>2022-05-24 19:12:21</time>
      </trkpt>
      <trkpt lat="40.82541" lon="0.45232">
        <ele>118.8</ele>
        <time>2022-05-24 19:12:22</time>
      </trkpt>
      <trkpt lat="40.82542" lon="0.45244">
        <ele>118.4</ele>
        <time>2022-05-24 19:12:23</time>
      </trkpt>
      <trkpt lat="40.82543" lon="0.45257">
        <ele>118</ele>
        <time>2022-05-24 19:12:24</time>
      </trkpt>
      <trkpt lat="40.82542" lon="0.45269">
        <ele>117.4</ele>
        <time>2022-05-24 19:12:25</time>
      </trkpt>
      <trkpt lat="40.82542" lon="0.45282">
        <ele>117</ele>
        <time>2022-05-24 19:12:26</time>
      </trkpt>
      <trkpt lat="40.82543" lon="0.45295">
        <ele>116.6</ele>
        <time>2022-05-24 19:12:27</time>
      </trkpt>
      <trkpt lat="40.82543" lon="0.45308">
        <ele>116.2</ele>
        <time>2022-05-24 19:12:28</time>
      </trkpt>
      <trkpt lat="40.82544" lon="0.45319">
        <ele>116</ele>
        <time>2022-05-24 19:12:29</time>
      </trkpt>
      <trkpt lat="40.82544" lon="0.45332">
        <ele>115.6</ele>
        <time>2022-05-24 19:12:30</time>
      </trkpt>
      <trkpt lat="40.82545" lon="0.45345">
        <ele>115.4</ele>
        <time>2022-05-24 19:12:31</time>
      </trkpt>
      <trkpt lat="40.82545" lon="0.45357">
        <ele>115</ele>
        <time>2022-05-24 19:12:32</time>
      </trkpt>
      <trkpt lat="40.82546" lon="0.4537">
        <ele>114.8</ele>
        <time>2022-05-24 19:12:33</time>
      </trkpt>
      <trkpt lat="40.82546" lon="0.45382">
        <ele>114.4</ele>
        <time>2022-05-24 19:12:34</time>
      </trkpt>
      <trkpt lat="40.82547" lon="0.45394">
        <ele>114.2</ele>
        <time>2022-05-24 19:12:35</time>
      </trkpt>
      <trkpt lat="40.82547" lon="0.45406">
        <ele>114</ele>
        <time>2022-05-24 19:12:36</time>
      </trkpt>
      <trkpt lat="40.82548" lon="0.45418">
        <ele>113.8</ele>
        <time>2022-05-24 19:12:37</time>
      </trkpt>
      <trkpt lat="40.82549" lon="0.4543">
        <ele>113.4</ele>
        <time>2022-05-24 19:12:38</time>
      </trkpt>
      <trkpt lat="40.82551" lon="0.45441">
        <ele>113.2</ele>
        <time>2022-05-24 19:12:39</time>
      </trkpt>
      <trkpt lat="40.82552" lon="0.45453">
        <ele>112.8</ele>
        <time>2022-05-24 19:12:40</time>
      </trkpt>
      <trkpt lat="40.82554" lon="0.45464">
        <ele>112.6</ele>
        <time>2022-05-24 19:12:41</time>
      </trkpt>
      <trkpt lat="40.82556" lon="0.45476">
        <ele>112.2</ele>
        <time>2022-05-24 19:12:42</time>
      </trkpt>
      <trkpt lat="40.82558" lon="0.45488">
        <ele>112</ele>
        <time>2022-05-24 19:12:43</time>
      </trkpt>
      <trkpt lat="40.8256" lon="0.45499">
        <ele>111.6</ele>
        <time>2022-05-24 19:12:44</time>
      </trkpt>
      <trkpt lat="40.82562" lon="0.4551">
        <ele>111.4</ele>
        <time>2022-05-24 19:12:45</time>
      </trkpt>
      <trkpt lat="40.82564" lon="0.45522">
        <ele>111</ele>
        <time>2022-05-24 19:12:46</time>
      </trkpt>
      <trkpt lat="40.82566" lon="0.45533">
        <ele>110.8</ele>
        <time>2022-05-24 19:12:47</time>
      </trkpt>
      <trkpt lat="40.82567" lon="0.45545">
        <ele>110.4</ele>
        <time>2022-05-24 19:12:48</time>
      </trkpt>
      <trkpt lat="40.82568" lon="0.45556">
        <ele>110</ele>
        <time>2022-05-24 19:12:49</time>
      </trkpt>
      <trkpt lat="40.8257" lon="0.45568">
        <ele>109.6</ele>
        <time>2022-05-24 19:12:50</time>
      </trkpt>
      <trkpt lat="40.82571" lon="0.45579">
        <ele>109.2</ele>
        <time>2022-05-24 19:12:51</time>
      </trkpt>
      <trkpt lat="40.82572" lon="0.45591">
        <ele>108.8</ele>
        <time>2022-05-24 19:12:52</time>
      </trkpt>
      <trkpt lat="40.82573" lon="0.45602">
        <ele>108.6</ele>
        <time>2022-05-24 19:12:53</time>
      </trkpt>
      <trkpt lat="40.82573" lon="0.45613">
        <ele>108.2</ele>
        <time>2022-05-24 19:12:54</time>
      </trkpt>
      <trkpt lat="40.82574" lon="0.45625">
        <ele>108</ele>
        <time>2022-05-24 19:12:55</time>
      </trkpt>
      <trkpt lat="40.82575" lon="0.45636">
        <ele>107.6</ele>
        <time>2022-05-24 19:12:56</time>
      </trkpt>
      <trkpt lat="40.82575" lon="0.45647">
        <ele>107.4</ele>
        <time>2022-05-24 19:12:57</time>
      </trkpt>
      <trkpt lat="40.82576" lon="0.45659">
        <ele>107.2</ele>
        <time>2022-05-24 19:12:58</time>
      </trkpt>
      <trkpt lat="40.82576" lon="0.4567">
        <ele>106.8</ele>
        <time>2022-05-24 19:12:59</time>
      </trkpt>
      <trkpt lat="40.82577" lon="0.45681">
        <ele>106.6</ele>
        <time>2022-05-24 19:13:00</time>
      </trkpt>
      <trkpt lat="40.82578" lon="0.45692">
        <ele>106.4</ele>
        <time>2022-05-24 19:13:01</time>
      </trkpt>
      <trkpt lat="40.82578" lon="0.45704">
        <ele>106</ele>
        <time>2022-05-24 19:13:02</time>
      </trkpt>
      <trkpt lat="40.82579" lon="0.45715">
        <ele>105.8</ele>
        <time>2022-05-24 19:13:03</time>
      </trkpt>
      <trkpt lat="40.82579" lon="0.45726">
        <ele>105.4</ele>
        <time>2022-05-24 19:13:04</time>
      </trkpt>
      <trkpt lat="40.82579" lon="0.45737">
        <ele>105</ele>
        <time>2022-05-24 19:13:05</time>
      </trkpt>
      <trkpt lat="40.8258" lon="0.45748">
        <ele>104.8</ele>
        <time>2022-05-24 19:13:06</time>
      </trkpt>
      <trkpt lat="40.82581" lon="0.45759">
        <ele>104.4</ele>
        <time>2022-05-24 19:13:07</time>
      </trkpt>
      <trkpt lat="40.82581" lon="0.4577">
        <ele>104</ele>
        <time>2022-05-24 19:13:08</time>
      </trkpt>
      <trkpt lat="40.82581" lon="0.45781">
        <ele>103.8</ele>
        <time>2022-05-24 19:13:09</time>
      </trkpt>
      <trkpt lat="40.82582" lon="0.45792">
        <ele>103.6</ele>
        <time>2022-05-24 19:13:10</time>
      </trkpt>
      <trkpt lat="40.82583" lon="0.45802">
        <ele>103.4</ele>
        <time>2022-05-24 19:13:11</time>
      </trkpt>
      <trkpt lat="40.82583" lon="0.45814">
        <ele>103.2</ele>
        <time>2022-05-24 19:13:12</time>
      </trkpt>
      <trkpt lat="40.82584" lon="0.45824">
        <ele>102.8</ele>
        <time>2022-05-24 19:13:13</time>
      </trkpt>
      <trkpt lat="40.82584" lon="0.45835">
        <ele>102.6</ele>
        <time>2022-05-24 19:13:14</time>
      </trkpt>
      <trkpt lat="40.82585" lon="0.45846">
        <ele>102.4</ele>
        <time>2022-05-24 19:13:15</time>
      </trkpt>
      <trkpt lat="40.82586" lon="0.45856">
        <ele>102.2</ele>
        <time>2022-05-24 19:13:16</time>
      </trkpt>
      <trkpt lat="40.82586" lon="0.45867">
        <ele>102.2</ele>
        <time>2022-05-24 19:13:17</time>
      </trkpt>
      <trkpt lat="40.82587" lon="0.45877">
        <ele>102</ele>
        <time>2022-05-24 19:13:18</time>
      </trkpt>
      <trkpt lat="40.82588" lon="0.45887">
        <ele>101.8</ele>
        <time>2022-05-24 19:13:19</time>
      </trkpt>
      <trkpt lat="40.82588" lon="0.45897">
        <ele>101.6</ele>
        <time>2022-05-24 19:13:20</time>
      </trkpt>
      <trkpt lat="40.82589" lon="0.45907">
        <ele>101.4</ele>
        <time>2022-05-24 19:13:21</time>
      </trkpt>
      <trkpt lat="40.82589" lon="0.45917">
        <ele>101.2</ele>
        <time>2022-05-24 19:13:22</time>
      </trkpt>
      <trkpt lat="40.82589" lon="0.45927">
        <ele>101</ele>
        <time>2022-05-24 19:13:23</time>
      </trkpt>
      <trkpt lat="40.8259" lon="0.45937">
        <ele>101</ele>
        <time>2022-05-24 19:13:24</time>
      </trkpt>
      <trkpt lat="40.8259" lon="0.45947">
        <ele>100.8</ele>
        <time>2022-05-24 19:13:25</time>
      </trkpt>
      <trkpt lat="40.82591" lon="0.45957">
        <ele>100.6</ele>
        <time>2022-05-24 19:13:26</time>
      </trkpt>
      <trkpt lat="40.82591" lon="0.45967">
        <ele>100.4</ele>
        <time>2022-05-24 19:13:27</time>
      </trkpt>
      <trkpt lat="40.82592" lon="0.45977">
        <ele>100.4</ele>
        <time>2022-05-24 19:13:28</time>
      </trkpt>
      <trkpt lat="40.82592" lon="0.45987">
        <ele>100.2</ele>
        <time>2022-05-24 19:13:29</time>
      </trkpt>
      <trkpt lat="40.82593" lon="0.45997">
        <ele>100.2</ele>
        <time>2022-05-24 19:13:30</time>
      </trkpt>
      <trkpt lat="40.82593" lon="0.46007">
        <ele>100.2</ele>
        <time>2022-05-24 19:13:31</time>
      </trkpt>
      <trkpt lat="40.82594" lon="0.46017">
        <ele>100.2</ele>
        <time>2022-05-24 19:13:32</time>
      </trkpt>
      <trkpt lat="40.82595" lon="0.46026">
        <ele>100</ele>
        <time>2022-05-24 19:13:33</time>
      </trkpt>
      <trkpt lat="40.82597" lon="0.46036">
        <ele>100</ele>
        <time>2022-05-24 19:13:34</time>
      </trkpt>
      <trkpt lat="40.82598" lon="0.46045">
        <ele>100</ele>
        <time>2022-05-24 19:13:35</time>
      </trkpt>
      <trkpt lat="40.82599" lon="0.46054">
        <ele>100</ele>
        <time>2022-05-24 19:13:36</time>
      </trkpt>
      <trkpt lat="40.826" lon="0.46063">
        <ele>100</ele>
        <time>2022-05-24 19:13:37</time>
      </trkpt>
      <trkpt lat="40.82601" lon="0.46072">
        <ele>99.8</ele>
        <time>2022-05-24 19:13:38</time>
      </trkpt>
      <trkpt lat="40.82602" lon="0.46081">
        <ele>99.6</ele>
        <time>2022-05-24 19:13:39</time>
      </trkpt>
      <trkpt lat="40.82603" lon="0.46091">
        <ele>99.6</ele>
        <time>2022-05-24 19:13:40</time>
      </trkpt>
      <trkpt lat="40.82604" lon="0.461">
        <ele>99.6</ele>
        <time>2022-05-24 19:13:41</time>
      </trkpt>
      <trkpt lat="40.82605" lon="0.4611">
        <ele>99.4</ele>
        <time>2022-05-24 19:13:42</time>
      </trkpt>
      <trkpt lat="40.82607" lon="0.46119">
        <ele>99.2</ele>
        <time>2022-05-24 19:13:43</time>
      </trkpt>
      <trkpt lat="40.82608" lon="0.46129">
        <ele>99.2</ele>
        <time>2022-05-24 19:13:44</time>
      </trkpt>
      <trkpt lat="40.8261" lon="0.46138">
        <ele>99</ele>
        <time>2022-05-24 19:13:45</time>
      </trkpt>
      <trkpt lat="40.82611" lon="0.46148">
        <ele>99</ele>
        <time>2022-05-24 19:13:46</time>
      </trkpt>
      <trkpt lat="40.82613" lon="0.46158">
        <ele>98.8</ele>
        <time>2022-05-24 19:13:47</time>
      </trkpt>
      <trkpt lat="40.82615" lon="0.46167">
        <ele>98.8</ele>
        <time>2022-05-24 19:13:48</time>
      </trkpt>
      <trkpt lat="40.82616" lon="0.46176">
        <ele>98.8</ele>
        <time>2022-05-24 19:13:49</time>
      </trkpt>
      <trkpt lat="40.82618" lon="0.46185">
        <ele>98.8</ele>
        <time>2022-05-24 19:13:50</time>
      </trkpt>
      <trkpt lat="40.82619" lon="0.46193">
        <ele>98.8</ele>
        <time>2022-05-24 19:13:51</time>
      </trkpt>
      <trkpt lat="40.8262" lon="0.46202">
        <ele>98.6</ele>
        <time>2022-05-24 19:13:52</time>
      </trkpt>
      <trkpt lat="40.82621" lon="0.4621">
        <ele>98.6</ele>
        <time>2022-05-24 19:13:53</time>
      </trkpt>
      <trkpt lat="40.82622" lon="0.46219">
        <ele>98.4</ele>
        <time>2022-05-24 19:13:54</time>
      </trkpt>
      <trkpt lat="40.82623" lon="0.46227">
        <ele>98.4</ele>
        <time>2022-05-24 19:13:55</time>
      </trkpt>
      <trkpt lat="40.82624" lon="0.46236">
        <ele>98.2</ele>
        <time>2022-05-24 19:13:56</time>
      </trkpt>
      <trkpt lat="40.82625" lon="0.46244">
        <ele>98.2</ele>
        <time>2022-05-24 19:13:57</time>
      </trkpt>
      <trkpt lat="40.82626" lon="0.46253">
        <ele>98.2</ele>
        <time>2022-05-24 19:13:58</time>
      </trkpt>
      <trkpt lat="40.82626" lon="0.46262">
        <ele>98</ele>
        <time>2022-05-24 19:13:59</time>
      </trkpt>
      <trkpt lat="40.82627" lon="0.46271">
        <ele>98</ele>
        <time>2022-05-24 19:14:00</time>
      </trkpt>
      <trkpt lat="40.82628" lon="0.4628">
        <ele>98</ele>
        <time>2022-05-24 19:14:01</time>
      </trkpt>
      <trkpt lat="40.82629" lon="0.46289">
        <ele>97.8</ele>
        <time>2022-05-24 19:14:02</time>
      </trkpt>
      <trkpt lat="40.8263" lon="0.46299">
        <ele>97.8</ele>
        <time>2022-05-24 19:14:03</time>
      </trkpt>
      <trkpt lat="40.8263" lon="0.46308">
        <ele>97.6</ele>
        <time>2022-05-24 19:14:04</time>
      </trkpt>
      <trkpt lat="40.82631" lon="0.46317">
        <ele>97.6</ele>
        <time>2022-05-24 19:14:05</time>
      </trkpt>
      <trkpt lat="40.82631" lon="0.46326">
        <ele>97.4</ele>
        <time>2022-05-24 19:14:06</time>
      </trkpt>
      <trkpt lat="40.82631" lon="0.46336">
        <ele>97.4</ele>
        <time>2022-05-24 19:14:07</time>
      </trkpt>
      <trkpt lat="40.82631" lon="0.46345">
        <ele>97.4</ele>
        <time>2022-05-24 19:14:08</time>
      </trkpt>
      <trkpt lat="40.82631" lon="0.46354">
        <ele>97.2</ele>
        <time>2022-05-24 19:14:09</time>
      </trkpt>
      <trkpt lat="40.8263" lon="0.46363">
        <ele>97.2</ele>
        <time>2022-05-24 19:14:10</time>
      </trkpt>
      <trkpt lat="40.8263" lon="0.46372">
        <ele>97</ele>
        <time>2022-05-24 19:14:11</time>
      </trkpt>
      <trkpt lat="40.82629" lon="0.46381">
        <ele>97</ele>
        <time>2022-05-24 19:14:12</time>
      </trkpt>
      <trkpt lat="40.82629" lon="0.4639">
        <ele>97</ele>
        <time>2022-05-24 19:14:13</time>
      </trkpt>
      <trkpt lat="40.82628" lon="0.46399">
        <ele>96.8</ele>
        <time>2022-05-24 19:14:14</time>
      </trkpt>
      <trkpt lat="40.82628" lon="0.46408">
        <ele>96.8</ele>
        <time>2022-05-24 19:14:15</time>
      </trkpt>
      <trkpt lat="40.82628" lon="0.46417">
        <ele>96.6</ele>
        <time>2022-05-24 19:14:16</time>
      </trkpt>
      <trkpt lat="40.82628" lon="0.46426">
        <ele>96.6</ele>
        <time>2022-05-24 19:14:17</time>
      </trkpt>
      <trkpt lat="40.82627" lon="0.46434">
        <ele>96.4</ele>
        <time>2022-05-24 19:14:18</time>
      </trkpt>
      <trkpt lat="40.82627" lon="0.46443">
        <ele>96.4</ele>
        <time>2022-05-24 19:14:19</time>
      </trkpt>
      <trkpt lat="40.82626" lon="0.46452">
        <ele>96.2</ele>
        <time>2022-05-24 19:14:20</time>
      </trkpt>
      <trkpt lat="40.82626" lon="0.46461">
        <ele>96</ele>
        <time>2022-05-24 19:14:21</time>
      </trkpt>
      <trkpt lat="40.82626" lon="0.4647">
        <ele>95.8</ele>
        <time>2022-05-24 19:14:22</time>
      </trkpt>
      <trkpt lat="40.82626" lon="0.46478">
        <ele>95.8</ele>
        <time>2022-05-24 19:14:23</time>
      </trkpt>
      <trkpt lat="40.82626" lon="0.46487">
        <ele>95.6</ele>
        <time>2022-05-24 19:14:24</time>
      </trkpt>
      <trkpt lat="40.82626" lon="0.46497">
        <ele>95.6</ele>
        <time>2022-05-24 19:14:25</time>
      </trkpt>
      <trkpt lat="40.82625" lon="0.46506">
        <ele>95.4</ele>
        <time>2022-05-24 19:14:26</time>
      </trkpt>
      <trkpt lat="40.82625" lon="0.46514">
        <ele>95.4</ele>
        <time>2022-05-24 19:14:27</time>
      </trkpt>
      <trkpt lat="40.82625" lon="0.46524">
        <ele>95.2</ele>
        <time>2022-05-24 19:14:28</time>
      </trkpt>
      <trkpt lat="40.82625" lon="0.46533">
        <ele>95.2</ele>
        <time>2022-05-24 19:14:29</time>
      </trkpt>
      <trkpt lat="40.82624" lon="0.46543">
        <ele>95</ele>
        <time>2022-05-24 19:14:30</time>
      </trkpt>
      <trkpt lat="40.82625" lon="0.46552">
        <ele>94.8</ele>
        <time>2022-05-24 19:14:31</time>
      </trkpt>
      <trkpt lat="40.82625" lon="0.46562">
        <ele>94.8</ele>
        <time>2022-05-24 19:14:32</time>
      </trkpt>
      <trkpt lat="40.82625" lon="0.46571">
        <ele>94.8</ele>
        <time>2022-05-24 19:14:33</time>
      </trkpt>
      <trkpt lat="40.82626" lon="0.4658">
        <ele>94.6</ele>
        <time>2022-05-24 19:14:34</time>
      </trkpt>
      <trkpt lat="40.82626" lon="0.4659">
        <ele>94.6</ele>
        <time>2022-05-24 19:14:35</time>
      </trkpt>
      <trkpt lat="40.82626" lon="0.46599">
        <ele>94.6</ele>
        <time>2022-05-24 19:14:36</time>
      </trkpt>
      <trkpt lat="40.82627" lon="0.46607">
        <ele>94.6</ele>
        <time>2022-05-24 19:14:37</time>
      </trkpt>
      <trkpt lat="40.82627" lon="0.46616">
        <ele>94.6</ele>
        <time>2022-05-24 19:14:38</time>
      </trkpt>
      <trkpt lat="40.82628" lon="0.46625">
        <ele>94.4</ele>
        <time>2022-05-24 19:14:39</time>
      </trkpt>
      <trkpt lat="40.82629" lon="0.46633">
        <ele>94.4</ele>
        <time>2022-05-24 19:14:40</time>
      </trkpt>
      <trkpt lat="40.8263" lon="0.46641">
        <ele>94.4</ele>
        <time>2022-05-24 19:14:41</time>
      </trkpt>
      <trkpt lat="40.8263" lon="0.4665">
        <ele>94.2</ele>
        <time>2022-05-24 19:14:42</time>
      </trkpt>
      <trkpt lat="40.82631" lon="0.46659">
        <ele>94</ele>
        <time>2022-05-24 19:14:43</time>
      </trkpt>
      <trkpt lat="40.82631" lon="0.46667">
        <ele>93.8</ele>
        <time>2022-05-24 19:14:44</time>
      </trkpt>
      <trkpt lat="40.82632" lon="0.46676">
        <ele>93.8</ele>
        <time>2022-05-24 19:14:45</time>
      </trkpt>
      <trkpt lat="40.82632" lon="0.46685">
        <ele>93.6</ele>
        <time>2022-05-24 19:14:46</time>
      </trkpt>
      <trkpt lat="40.82633" lon="0.46694">
        <ele>93.6</ele>
        <time>2022-05-24 19:14:47</time>
      </trkpt>
      <trkpt lat="40.82634" lon="0.46704">
        <ele>93.4</ele>
        <time>2022-05-24 19:14:48</time>
      </trkpt>
      <trkpt lat="40.82634" lon="0.46713">
        <ele>93.4</ele>
        <time>2022-05-24 19:14:49</time>
      </trkpt>
      <trkpt lat="40.82635" lon="0.46723">
        <ele>93.2</ele>
        <time>2022-05-24 19:14:50</time>
      </trkpt>
      <trkpt lat="40.82635" lon="0.46732">
        <ele>93.2</ele>
        <time>2022-05-24 19:14:51</time>
      </trkpt>
      <trkpt lat="40.82635" lon="0.46741">
        <ele>93.2</ele>
        <time>2022-05-24 19:14:52</time>
      </trkpt>
      <trkpt lat="40.82636" lon="0.4675">
        <ele>93</ele>
        <time>2022-05-24 19:14:53</time>
      </trkpt>
      <trkpt lat="40.82637" lon="0.46759">
        <ele>93</ele>
        <time>2022-05-24 19:14:54</time>
      </trkpt>
      <trkpt lat="40.82637" lon="0.46768">
        <ele>92.8</ele>
        <time>2022-05-24 19:14:55</time>
      </trkpt>
      <trkpt lat="40.82638" lon="0.46776">
        <ele>92.8</ele>
        <time>2022-05-24 19:14:56</time>
      </trkpt>
      <trkpt lat="40.82639" lon="0.46784">
        <ele>92.6</ele>
        <time>2022-05-24 19:14:57</time>
      </trkpt>
      <trkpt lat="40.82639" lon="0.46793">
        <ele>92.6</ele>
        <time>2022-05-24 19:14:58</time>
      </trkpt>
      <trkpt lat="40.82639" lon="0.46802">
        <ele>92.6</ele>
        <time>2022-05-24 19:14:59</time>
      </trkpt>
      <trkpt lat="40.8264" lon="0.46811">
        <ele>92.4</ele>
        <time>2022-05-24 19:15:00</time>
      </trkpt>
      <trkpt lat="40.8264" lon="0.4682">
        <ele>92.4</ele>
        <time>2022-05-24 19:15:01</time>
      </trkpt>
      <trkpt lat="40.8264" lon="0.46829">
        <ele>92.2</ele>
        <time>2022-05-24 19:15:02</time>
      </trkpt>
      <trkpt lat="40.8264" lon="0.46839">
        <ele>92.2</ele>
        <time>2022-05-24 19:15:03</time>
      </trkpt>
      <trkpt lat="40.82641" lon="0.46848">
        <ele>92.2</ele>
        <time>2022-05-24 19:15:04</time>
      </trkpt>
      <trkpt lat="40.82641" lon="0.46857">
        <ele>92</ele>
        <time>2022-05-24 19:15:05</time>
      </trkpt>
      <trkpt lat="40.82642" lon="0.46866">
        <ele>91.8</ele>
        <time>2022-05-24 19:15:06</time>
      </trkpt>
      <trkpt lat="40.82642" lon="0.46875">
        <ele>91.8</ele>
        <time>2022-05-24 19:15:07</time>
      </trkpt>
      <trkpt lat="40.82643" lon="0.46882">
        <ele>91.8</ele>
        <time>2022-05-24 19:15:08</time>
      </trkpt>
      <trkpt lat="40.82644" lon="0.46892">
        <ele>91.6</ele>
        <time>2022-05-24 19:15:09</time>
      </trkpt>
      <trkpt lat="40.82644" lon="0.46902">
        <ele>91.4</ele>
        <time>2022-05-24 19:15:10</time>
      </trkpt>
      <trkpt lat="40.82645" lon="0.46911">
        <ele>91.2</ele>
        <time>2022-05-24 19:15:11</time>
      </trkpt>
      <trkpt lat="40.82645" lon="0.4692">
        <ele>91</ele>
        <time>2022-05-24 19:15:12</time>
      </trkpt>
      <trkpt lat="40.82646" lon="0.46928">
        <ele>90.8</ele>
        <time>2022-05-24 19:15:13</time>
      </trkpt>
      <trkpt lat="40.82647" lon="0.46936">
        <ele>90.8</ele>
        <time>2022-05-24 19:15:14</time>
      </trkpt>
      <trkpt lat="40.82647" lon="0.46945">
        <ele>90.6</ele>
        <time>2022-05-24 19:15:15</time>
      </trkpt>
      <trkpt lat="40.82648" lon="0.46954">
        <ele>90.4</ele>
        <time>2022-05-24 19:15:16</time>
      </trkpt>
      <trkpt lat="40.82648" lon="0.46963">
        <ele>90.2</ele>
        <time>2022-05-24 19:15:17</time>
      </trkpt>
      <trkpt lat="40.82649" lon="0.46972">
        <ele>90</ele>
        <time>2022-05-24 19:15:18</time>
      </trkpt>
      <trkpt lat="40.82649" lon="0.46981">
        <ele>90</ele>
        <time>2022-05-24 19:15:19</time>
      </trkpt>
      <trkpt lat="40.82649" lon="0.4699">
        <ele>90</ele>
        <time>2022-05-24 19:15:20</time>
      </trkpt>
      <trkpt lat="40.82649" lon="0.46999">
        <ele>89.8</ele>
        <time>2022-05-24 19:15:21</time>
      </trkpt>
      <trkpt lat="40.82648" lon="0.47008">
        <ele>89.8</ele>
        <time>2022-05-24 19:15:22</time>
      </trkpt>
      <trkpt lat="40.82647" lon="0.47016">
        <ele>89.8</ele>
        <time>2022-05-24 19:15:23</time>
      </trkpt>
      <trkpt lat="40.82646" lon="0.47025">
        <ele>89.6</ele>
        <time>2022-05-24 19:15:24</time>
      </trkpt>
      <trkpt lat="40.82644" lon="0.47033">
        <ele>89.6</ele>
        <time>2022-05-24 19:15:25</time>
      </trkpt>
      <trkpt lat="40.82642" lon="0.47043">
        <ele>89.4</ele>
        <time>2022-05-24 19:15:26</time>
      </trkpt>
      <trkpt lat="40.8264" lon="0.47052">
        <ele>89.2</ele>
        <time>2022-05-24 19:15:27</time>
      </trkpt>
      <trkpt lat="40.82638" lon="0.47061">
        <ele>89</ele>
        <time>2022-05-24 19:15:28</time>
      </trkpt>
      <trkpt lat="40.82636" lon="0.47071">
        <ele>89</ele>
        <time>2022-05-24 19:15:29</time>
      </trkpt>
      <trkpt lat="40.82634" lon="0.4708">
        <ele>88.8</ele>
        <time>2022-05-24 19:15:30</time>
      </trkpt>
      <trkpt lat="40.82632" lon="0.4709">
        <ele>88.8</ele>
        <time>2022-05-24 19:15:31</time>
      </trkpt>
      <trkpt lat="40.8263" lon="0.47099">
        <ele>88.6</ele>
        <time>2022-05-24 19:15:32</time>
      </trkpt>
      <trkpt lat="40.82628" lon="0.47109">
        <ele>88.4</ele>
        <time>2022-05-24 19:15:33</time>
      </trkpt>
      <trkpt lat="40.82626" lon="0.47118">
        <ele>88.4</ele>
        <time>2022-05-24 19:15:34</time>
      </trkpt>
      <trkpt lat="40.82624" lon="0.47127">
        <ele>88.2</ele>
        <time>2022-05-24 19:15:35</time>
      </trkpt>
      <trkpt lat="40.82622" lon="0.47137">
        <ele>88.2</ele>
        <time>2022-05-24 19:15:36</time>
      </trkpt>
      <trkpt lat="40.8262" lon="0.47147">
        <ele>87.8</ele>
        <time>2022-05-24 19:15:37</time>
      </trkpt>
      <trkpt lat="40.82618" lon="0.47156">
        <ele>87.6</ele>
        <time>2022-05-24 19:15:38</time>
      </trkpt>
      <trkpt lat="40.82616" lon="0.47165">
        <ele>87.6</ele>
        <time>2022-05-24 19:15:39</time>
      </trkpt>
      <trkpt lat="40.82615" lon="0.47175">
        <ele>87.6</ele>
        <time>2022-05-24 19:15:40</time>
      </trkpt>
      <trkpt lat="40.82613" lon="0.47184">
        <ele>87.6</ele>
        <time>2022-05-24 19:15:41</time>
      </trkpt>
      <trkpt lat="40.82611" lon="0.47192">
        <ele>87.6</ele>
        <time>2022-05-24 19:15:42</time>
      </trkpt>
      <trkpt lat="40.82609" lon="0.47202">
        <ele>87.6</ele>
        <time>2022-05-24 19:15:43</time>
      </trkpt>
      <trkpt lat="40.82607" lon="0.47211">
        <ele>87.4</ele>
        <time>2022-05-24 19:15:44</time>
      </trkpt>
      <trkpt lat="40.82605" lon="0.4722">
        <ele>87.2</ele>
        <time>2022-05-24 19:15:45</time>
      </trkpt>
      <trkpt lat="40.82604" lon="0.47229">
        <ele>87</ele>
        <time>2022-05-24 19:15:46</time>
      </trkpt>
      <trkpt lat="40.82602" lon="0.47239">
        <ele>87</ele>
        <time>2022-05-24 19:15:47</time>
      </trkpt>
      <trkpt lat="40.82601" lon="0.47248">
        <ele>86.8</ele>
        <time>2022-05-24 19:15:48</time>
      </trkpt>
      <trkpt lat="40.826" lon="0.47258">
        <ele>86.6</ele>
        <time>2022-05-24 19:15:49</time>
      </trkpt>
      <trkpt lat="40.82598" lon="0.47268">
        <ele>86.4</ele>
        <time>2022-05-24 19:15:50</time>
      </trkpt>
      <trkpt lat="40.82597" lon="0.47278">
        <ele>86.4</ele>
        <time>2022-05-24 19:15:51</time>
      </trkpt>
      <trkpt lat="40.82596" lon="0.47287">
        <ele>86.4</ele>
        <time>2022-05-24 19:15:52</time>
      </trkpt>
      <trkpt lat="40.82595" lon="0.47297">
        <ele>86.2</ele>
        <time>2022-05-24 19:15:53</time>
      </trkpt>
      <trkpt lat="40.82594" lon="0.47306">
        <ele>86.2</ele>
        <time>2022-05-24 19:15:54</time>
      </trkpt>
      <trkpt lat="40.82593" lon="0.47316">
        <ele>86.2</ele>
        <time>2022-05-24 19:15:55</time>
      </trkpt>
      <trkpt lat="40.82592" lon="0.47325">
        <ele>86</ele>
        <time>2022-05-24 19:15:56</time>
      </trkpt>
      <trkpt lat="40.8259" lon="0.47334">
        <ele>86</ele>
        <time>2022-05-24 19:15:57</time>
      </trkpt>
      <trkpt lat="40.82589" lon="0.47344">
        <ele>86</ele>
        <time>2022-05-24 19:15:58</time>
      </trkpt>
      <trkpt lat="40.82588" lon="0.47353">
        <ele>85.8</ele>
        <time>2022-05-24 19:15:59</time>
      </trkpt>
      <trkpt lat="40.82587" lon="0.47363">
        <ele>85.6</ele>
        <time>2022-05-24 19:16:00</time>
      </trkpt>
      <trkpt lat="40.82586" lon="0.47372">
        <ele>85.4</ele>
        <time>2022-05-24 19:16:01</time>
      </trkpt>
      <trkpt lat="40.82585" lon="0.47381">
        <ele>85.2</ele>
        <time>2022-05-24 19:16:02</time>
      </trkpt>
      <trkpt lat="40.82584" lon="0.4739">
        <ele>85</ele>
        <time>2022-05-24 19:16:03</time>
      </trkpt>
      <trkpt lat="40.82583" lon="0.474">
        <ele>84.8</ele>
        <time>2022-05-24 19:16:04</time>
      </trkpt>
      <trkpt lat="40.82581" lon="0.47409">
        <ele>84.6</ele>
        <time>2022-05-24 19:16:05</time>
      </trkpt>
      <trkpt lat="40.8258" lon="0.47419">
        <ele>84.4</ele>
        <time>2022-05-24 19:16:06</time>
      </trkpt>
      <trkpt lat="40.82579" lon="0.47428">
        <ele>84.2</ele>
        <time>2022-05-24 19:16:07</time>
      </trkpt>
      <trkpt lat="40.82578" lon="0.47438">
        <ele>84</ele>
        <time>2022-05-24 19:16:08</time>
      </trkpt>
      <trkpt lat="40.82577" lon="0.47447">
        <ele>83.8</ele>
        <time>2022-05-24 19:16:09</time>
      </trkpt>
      <trkpt lat="40.82575" lon="0.47457">
        <ele>83.6</ele>
        <time>2022-05-24 19:16:10</time>
      </trkpt>
      <trkpt lat="40.82574" lon="0.47466">
        <ele>83.4</ele>
        <time>2022-05-24 19:16:11</time>
      </trkpt>
      <trkpt lat="40.82573" lon="0.47475">
        <ele>83.4</ele>
        <time>2022-05-24 19:16:12</time>
      </trkpt>
      <trkpt lat="40.82572" lon="0.47483">
        <ele>83.4</ele>
        <time>2022-05-24 19:16:13</time>
      </trkpt>
      <trkpt lat="40.82571" lon="0.47492">
        <ele>83.4</ele>
        <time>2022-05-24 19:16:14</time>
      </trkpt>
      <trkpt lat="40.82571" lon="0.47501">
        <ele>83.2</ele>
        <time>2022-05-24 19:16:15</time>
      </trkpt>
      <trkpt lat="40.8257" lon="0.47509">
        <ele>83</ele>
        <time>2022-05-24 19:16:16</time>
      </trkpt>
      <trkpt lat="40.82569" lon="0.47518">
        <ele>83</ele>
        <time>2022-05-24 19:16:17</time>
      </trkpt>
      <trkpt lat="40.82567" lon="0.47527">
        <ele>82.8</ele>
        <time>2022-05-24 19:16:18</time>
      </trkpt>
      <trkpt lat="40.82566" lon="0.47535">
        <ele>82.6</ele>
        <time>2022-05-24 19:16:19</time>
      </trkpt>
      <trkpt lat="40.82565" lon="0.47543">
        <ele>82.6</ele>
        <time>2022-05-24 19:16:20</time>
      </trkpt>
      <trkpt lat="40.82564" lon="0.47553">
        <ele>82.4</ele>
        <time>2022-05-24 19:16:21</time>
      </trkpt>
      <trkpt lat="40.82563" lon="0.47563">
        <ele>82.2</ele>
        <time>2022-05-24 19:16:22</time>
      </trkpt>
      <trkpt lat="40.82561" lon="0.47572">
        <ele>82</ele>
        <time>2022-05-24 19:16:23</time>
      </trkpt>
      <trkpt lat="40.8256" lon="0.47581">
        <ele>82</ele>
        <time>2022-05-24 19:16:24</time>
      </trkpt>
      <trkpt lat="40.82558" lon="0.4759">
        <ele>81.8</ele>
        <time>2022-05-24 19:16:25</time>
      </trkpt>
      <trkpt lat="40.82557" lon="0.47599">
        <ele>81.8</ele>
        <time>2022-05-24 19:16:26</time>
      </trkpt>
      <trkpt lat="40.82555" lon="0.47607">
        <ele>81.8</ele>
        <time>2022-05-24 19:16:27</time>
      </trkpt>
      <trkpt lat="40.82553" lon="0.47616">
        <ele>81.6</ele>
        <time>2022-05-24 19:16:28</time>
      </trkpt>
      <trkpt lat="40.82552" lon="0.47624">
        <ele>81.6</ele>
        <time>2022-05-24 19:16:29</time>
      </trkpt>
      <trkpt lat="40.82551" lon="0.47633">
        <ele>81.4</ele>
        <time>2022-05-24 19:16:30</time>
      </trkpt>
      <trkpt lat="40.82549" lon="0.47641">
        <ele>81.4</ele>
        <time>2022-05-24 19:16:31</time>
      </trkpt>
      <trkpt lat="40.82548" lon="0.4765">
        <ele>81.2</ele>
        <time>2022-05-24 19:16:32</time>
      </trkpt>
      <trkpt lat="40.82546" lon="0.47659">
        <ele>81</ele>
        <time>2022-05-24 19:16:33</time>
      </trkpt>
      <trkpt lat="40.82544" lon="0.47667">
        <ele>81</ele>
        <time>2022-05-24 19:16:34</time>
      </trkpt>
      <trkpt lat="40.82543" lon="0.47675">
        <ele>81</ele>
        <time>2022-05-24 19:16:35</time>
      </trkpt>
      <trkpt lat="40.82542" lon="0.47683">
        <ele>81</ele>
        <time>2022-05-24 19:16:36</time>
      </trkpt>
      <trkpt lat="40.82541" lon="0.47691">
        <ele>81</ele>
        <time>2022-05-24 19:16:37</time>
      </trkpt>
      <trkpt lat="40.82541" lon="0.477">
        <ele>80.8</ele>
        <time>2022-05-24 19:16:38</time>
      </trkpt>
      <trkpt lat="40.82541" lon="0.47708">
        <ele>80.8</ele>
        <time>2022-05-24 19:16:39</time>
      </trkpt>
      <trkpt lat="40.8254" lon="0.47717">
        <ele>80.8</ele>
        <time>2022-05-24 19:16:40</time>
      </trkpt>
      <trkpt lat="40.8254" lon="0.47726">
        <ele>81</ele>
        <time>2022-05-24 19:16:41</time>
      </trkpt>
      <trkpt lat="40.8254" lon="0.47735">
        <ele>81</ele>
        <time>2022-05-24 19:16:42</time>
      </trkpt>
      <trkpt lat="40.82539" lon="0.47744">
        <ele>80.8</ele>
        <time>2022-05-24 19:16:43</time>
      </trkpt>
      <trkpt lat="40.82539" lon="0.47752">
        <ele>81</ele>
        <time>2022-05-24 19:16:44</time>
      </trkpt>
      <trkpt lat="40.82539" lon="0.4776">
        <ele>81</ele>
        <time>2022-05-24 19:16:45</time>
      </trkpt>
      <trkpt lat="40.82539" lon="0.47768">
        <ele>81.2</ele>
        <time>2022-05-24 19:16:46</time>
      </trkpt>
      <trkpt lat="40.82539" lon="0.47777">
        <ele>81.2</ele>
        <time>2022-05-24 19:16:47</time>
      </trkpt>
      <trkpt lat="40.82539" lon="0.47784">
        <ele>81.2</ele>
        <time>2022-05-24 19:16:48</time>
      </trkpt>
      <trkpt lat="40.82539" lon="0.47792">
        <ele>81.4</ele>
        <time>2022-05-24 19:16:49</time>
      </trkpt>
      <trkpt lat="40.82538" lon="0.47799">
        <ele>81.4</ele>
        <time>2022-05-24 19:16:50</time>
      </trkpt>
      <trkpt lat="40.82538" lon="0.47806">
        <ele>81.4</ele>
        <time>2022-05-24 19:16:51</time>
      </trkpt>
      <trkpt lat="40.82538" lon="0.47814">
        <ele>81.2</ele>
        <time>2022-05-24 19:16:52</time>
      </trkpt>
      <trkpt lat="40.82538" lon="0.47821">
        <ele>81.2</ele>
        <time>2022-05-24 19:16:53</time>
      </trkpt>
      <trkpt lat="40.82538" lon="0.47828">
        <ele>81.2</ele>
        <time>2022-05-24 19:16:54</time>
      </trkpt>
      <trkpt lat="40.82537" lon="0.47836">
        <ele>81</ele>
        <time>2022-05-24 19:16:55</time>
      </trkpt>
      <trkpt lat="40.82537" lon="0.47843">
        <ele>80.8</ele>
        <time>2022-05-24 19:16:56</time>
      </trkpt>
      <trkpt lat="40.82537" lon="0.47851">
        <ele>80.8</ele>
        <time>2022-05-24 19:16:57</time>
      </trkpt>
      <trkpt lat="40.82537" lon="0.47858">
        <ele>80.6</ele>
        <time>2022-05-24 19:16:58</time>
      </trkpt>
      <trkpt lat="40.82537" lon="0.47866">
        <ele>80.6</ele>
        <time>2022-05-24 19:16:59</time>
      </trkpt>
      <trkpt lat="40.82537" lon="0.47874">
        <ele>80.4</ele>
        <time>2022-05-24 19:17:00</time>
      </trkpt>
      <trkpt lat="40.82537" lon="0.47882">
        <ele>80.2</ele>
        <time>2022-05-24 19:17:01</time>
      </trkpt>
      <trkpt lat="40.82537" lon="0.47889">
        <ele>80.2</ele>
        <time>2022-05-24 19:17:02</time>
      </trkpt>
      <trkpt lat="40.82536" lon="0.47897">
        <ele>80</ele>
        <time>2022-05-24 19:17:03</time>
      </trkpt>
      <trkpt lat="40.82536" lon="0.47905">
        <ele>79.8</ele>
        <time>2022-05-24 19:17:04</time>
      </trkpt>
      <trkpt lat="40.82536" lon="0.47913">
        <ele>79.8</ele>
        <time>2022-05-24 19:17:05</time>
      </trkpt>
      <trkpt lat="40.82536" lon="0.4792">
        <ele>79.6</ele>
        <time>2022-05-24 19:17:06</time>
      </trkpt>
      <trkpt lat="40.82535" lon="0.47928">
        <ele>79.4</ele>
        <time>2022-05-24 19:17:07</time>
      </trkpt>
      <trkpt lat="40.82535" lon="0.47936">
        <ele>79.2</ele>
        <time>2022-05-24 19:17:08</time>
      </trkpt>
      <trkpt lat="40.82534" lon="0.47944">
        <ele>79.2</ele>
        <time>2022-05-24 19:17:09</time>
      </trkpt>
      <trkpt lat="40.82534" lon="0.47951">
        <ele>79</ele>
        <time>2022-05-24 19:17:10</time>
      </trkpt>
      <trkpt lat="40.82532" lon="0.47959">
        <ele>79</ele>
        <time>2022-05-24 19:17:11</time>
      </trkpt>
      <trkpt lat="40.82531" lon="0.47966">
        <ele>79</ele>
        <time>2022-05-24 19:17:12</time>
      </trkpt>
      <trkpt lat="40.82531" lon="0.47973">
        <ele>79</ele>
        <time>2022-05-24 19:17:13</time>
      </trkpt>
      <trkpt lat="40.82529" lon="0.4798">
        <ele>78.8</ele>
        <time>2022-05-24 19:17:14</time>
      </trkpt>
      <trkpt lat="40.82528" lon="0.47986">
        <ele>78.8</ele>
        <time>2022-05-24 19:17:15</time>
      </trkpt>
      <trkpt lat="40.82527" lon="0.47993">
        <ele>78.8</ele>
        <time>2022-05-24 19:17:16</time>
      </trkpt>
      <trkpt lat="40.82525" lon="0.47999">
        <ele>78.8</ele>
        <time>2022-05-24 19:17:17</time>
      </trkpt>
      <trkpt lat="40.82524" lon="0.48006">
        <ele>78.6</ele>
        <time>2022-05-24 19:17:18</time>
      </trkpt>
      <trkpt lat="40.82523" lon="0.48013">
        <ele>78.4</ele>
        <time>2022-05-24 19:17:19</time>
      </trkpt>
      <trkpt lat="40.82521" lon="0.4802">
        <ele>78.4</ele>
        <time>2022-05-24 19:17:20</time>
      </trkpt>
      <trkpt lat="40.8252" lon="0.48028">
        <ele>78.2</ele>
        <time>2022-05-24 19:17:21</time>
      </trkpt>
      <trkpt lat="40.82518" lon="0.48036">
        <ele>78.2</ele>
        <time>2022-05-24 19:17:22</time>
      </trkpt>
      <trkpt lat="40.82516" lon="0.48043">
        <ele>78</ele>
        <time>2022-05-24 19:17:23</time>
      </trkpt>
      <trkpt lat="40.82515" lon="0.48051">
        <ele>77.8</ele>
        <time>2022-05-24 19:17:24</time>
      </trkpt>
      <trkpt lat="40.82513" lon="0.48059">
        <ele>77.6</ele>
        <time>2022-05-24 19:17:25</time>
      </trkpt>
      <trkpt lat="40.82512" lon="0.48067">
        <ele>77.6</ele>
        <time>2022-05-24 19:17:26</time>
      </trkpt>
      <trkpt lat="40.82511" lon="0.48075">
        <ele>77.4</ele>
        <time>2022-05-24 19:17:27</time>
      </trkpt>
      <trkpt lat="40.8251" lon="0.48082">
        <ele>77.2</ele>
        <time>2022-05-24 19:17:28</time>
      </trkpt>
      <trkpt lat="40.82508" lon="0.4809">
        <ele>77</ele>
        <time>2022-05-24 19:17:29</time>
      </trkpt>
      <trkpt lat="40.82507" lon="0.48098">
        <ele>77</ele>
        <time>2022-05-24 19:17:30</time>
      </trkpt>
      <trkpt lat="40.82507" lon="0.48106">
        <ele>76.8</ele>
        <time>2022-05-24 19:17:31</time>
      </trkpt>
      <trkpt lat="40.82506" lon="0.48114">
        <ele>76.8</ele>
        <time>2022-05-24 19:17:32</time>
      </trkpt>
      <trkpt lat="40.82506" lon="0.48122">
        <ele>76.6</ele>
        <time>2022-05-24 19:17:33</time>
      </trkpt>
      <trkpt lat="40.82506" lon="0.48129">
        <ele>76.4</ele>
        <time>2022-05-24 19:17:34</time>
      </trkpt>
      <trkpt lat="40.82506" lon="0.48137">
        <ele>76.4</ele>
        <time>2022-05-24 19:17:35</time>
      </trkpt>
      <trkpt lat="40.82506" lon="0.48145">
        <ele>76.4</ele>
        <time>2022-05-24 19:17:36</time>
      </trkpt>
      <trkpt lat="40.82506" lon="0.48153">
        <ele>76.2</ele>
        <time>2022-05-24 19:17:37</time>
      </trkpt>
      <trkpt lat="40.82505" lon="0.48161">
        <ele>76</ele>
        <time>2022-05-24 19:17:38</time>
      </trkpt>
      <trkpt lat="40.82505" lon="0.48168">
        <ele>76</ele>
        <time>2022-05-24 19:17:39</time>
      </trkpt>
      <trkpt lat="40.82505" lon="0.48176">
        <ele>75.8</ele>
        <time>2022-05-24 19:17:40</time>
      </trkpt>
      <trkpt lat="40.82505" lon="0.48183">
        <ele>75.8</ele>
        <time>2022-05-24 19:17:41</time>
      </trkpt>
      <trkpt lat="40.82505" lon="0.48191">
        <ele>75.6</ele>
        <time>2022-05-24 19:17:42</time>
      </trkpt>
      <trkpt lat="40.82505" lon="0.48199">
        <ele>75.6</ele>
        <time>2022-05-24 19:17:43</time>
      </trkpt>
      <trkpt lat="40.82506" lon="0.48206">
        <ele>75.6</ele>
        <time>2022-05-24 19:17:44</time>
      </trkpt>
      <trkpt lat="40.82505" lon="0.48214">
        <ele>75.4</ele>
        <time>2022-05-24 19:17:45</time>
      </trkpt>
      <trkpt lat="40.82505" lon="0.48221">
        <ele>75.4</ele>
        <time>2022-05-24 19:17:46</time>
      </trkpt>
      <trkpt lat="40.82506" lon="0.48228">
        <ele>75.4</ele>
        <time>2022-05-24 19:17:47</time>
      </trkpt>
      <trkpt lat="40.82505" lon="0.48235">
        <ele>75.2</ele>
        <time>2022-05-24 19:17:48</time>
      </trkpt>
      <trkpt lat="40.82506" lon="0.48242">
        <ele>75.2</ele>
        <time>2022-05-24 19:17:49</time>
      </trkpt>
      <trkpt lat="40.82506" lon="0.48249">
        <ele>75</ele>
        <time>2022-05-24 19:17:50</time>
      </trkpt>
      <trkpt lat="40.82506" lon="0.48257">
        <ele>75</ele>
        <time>2022-05-24 19:17:51</time>
      </trkpt>
      <trkpt lat="40.82506" lon="0.48264">
        <ele>75</ele>
        <time>2022-05-24 19:17:52</time>
      </trkpt>
      <trkpt lat="40.82507" lon="0.48272">
        <ele>75</ele>
        <time>2022-05-24 19:17:53</time>
      </trkpt>
      <trkpt lat="40.82507" lon="0.4828">
        <ele>75</ele>
        <time>2022-05-24 19:17:54</time>
      </trkpt>
      <trkpt lat="40.82507" lon="0.48287">
        <ele>75</ele>
        <time>2022-05-24 19:17:55</time>
      </trkpt>
      <trkpt lat="40.82507" lon="0.48295">
        <ele>75</ele>
        <time>2022-05-24 19:17:56</time>
      </trkpt>
      <trkpt lat="40.82507" lon="0.48303">
        <ele>75</ele>
        <time>2022-05-24 19:17:57</time>
      </trkpt>
      <trkpt lat="40.82507" lon="0.4831">
        <ele>74.8</ele>
        <time>2022-05-24 19:17:58</time>
      </trkpt>
      <trkpt lat="40.82507" lon="0.48317">
        <ele>74.8</ele>
        <time>2022-05-24 19:17:59</time>
      </trkpt>
      <trkpt lat="40.82508" lon="0.48325">
        <ele>74.8</ele>
        <time>2022-05-24 19:18:00</time>
      </trkpt>
      <trkpt lat="40.82508" lon="0.48332">
        <ele>74.6</ele>
        <time>2022-05-24 19:18:01</time>
      </trkpt>
      <trkpt lat="40.82507" lon="0.48339">
        <ele>74.4</ele>
        <time>2022-05-24 19:18:02</time>
      </trkpt>
      <trkpt lat="40.82507" lon="0.48347">
        <ele>74.4</ele>
        <time>2022-05-24 19:18:03</time>
      </trkpt>
      <trkpt lat="40.82507" lon="0.48354">
        <ele>74.4</ele>
        <time>2022-05-24 19:18:04</time>
      </trkpt>
      <trkpt lat="40.82507" lon="0.48361">
        <ele>74.4</ele>
        <time>2022-05-24 19:18:05</time>
      </trkpt>
      <trkpt lat="40.82507" lon="0.48369">
        <ele>74.4</ele>
        <time>2022-05-24 19:18:06</time>
      </trkpt>
      <trkpt lat="40.82507" lon="0.48376">
        <ele>74.2</ele>
        <time>2022-05-24 19:18:07</time>
      </trkpt>
      <trkpt lat="40.82507" lon="0.48383">
        <ele>74.2</ele>
        <time>2022-05-24 19:18:08</time>
      </trkpt>
      <trkpt lat="40.82506" lon="0.48391">
        <ele>74.2</ele>
        <time>2022-05-24 19:18:09</time>
      </trkpt>
      <trkpt lat="40.82506" lon="0.48398">
        <ele>74.2</ele>
        <time>2022-05-24 19:18:10</time>
      </trkpt>
      <trkpt lat="40.82505" lon="0.48405">
        <ele>74</ele>
        <time>2022-05-24 19:18:11</time>
      </trkpt>
      <trkpt lat="40.82505" lon="0.48412">
        <ele>74</ele>
        <time>2022-05-24 19:18:12</time>
      </trkpt>
      <trkpt lat="40.82505" lon="0.48419">
        <ele>73.8</ele>
        <time>2022-05-24 19:18:13</time>
      </trkpt>
      <trkpt lat="40.82505" lon="0.48426">
        <ele>73.8</ele>
        <time>2022-05-24 19:18:14</time>
      </trkpt>
      <trkpt lat="40.82504" lon="0.48433">
        <ele>73.8</ele>
        <time>2022-05-24 19:18:15</time>
      </trkpt>
      <trkpt lat="40.82504" lon="0.4844">
        <ele>73.6</ele>
        <time>2022-05-24 19:18:16</time>
      </trkpt>
      <trkpt lat="40.82503" lon="0.48447">
        <ele>73.6</ele>
        <time>2022-05-24 19:18:17</time>
      </trkpt>
      <trkpt lat="40.82503" lon="0.48455">
        <ele>73.6</ele>
        <time>2022-05-24 19:18:18</time>
      </trkpt>
      <trkpt lat="40.82502" lon="0.48462">
        <ele>73.4</ele>
        <time>2022-05-24 19:18:19</time>
      </trkpt>
      <trkpt lat="40.82502" lon="0.4847">
        <ele>73.4</ele>
        <time>2022-05-24 19:18:20</time>
      </trkpt>
      <trkpt lat="40.82502" lon="0.48477">
        <ele>73.4</ele>
        <time>2022-05-24 19:18:21</time>
      </trkpt>
      <trkpt lat="40.82502" lon="0.48485">
        <ele>73.2</ele>
        <time>2022-05-24 19:18:22</time>
      </trkpt>
      <trkpt lat="40.82502" lon="0.48494">
        <ele>73.2</ele>
        <time>2022-05-24 19:18:23</time>
      </trkpt>
      <trkpt lat="40.82502" lon="0.48503">
        <ele>73</ele>
        <time>2022-05-24 19:18:24</time>
      </trkpt>
      <trkpt lat="40.82501" lon="0.48511">
        <ele>72.8</ele>
        <time>2022-05-24 19:18:25</time>
      </trkpt>
      <trkpt lat="40.82501" lon="0.48519">
        <ele>72.6</ele>
        <time>2022-05-24 19:18:26</time>
      </trkpt>
      <trkpt lat="40.82501" lon="0.48528">
        <ele>72.6</ele>
        <time>2022-05-24 19:18:27</time>
      </trkpt>
      <trkpt lat="40.825" lon="0.48536">
        <ele>72.6</ele>
        <time>2022-05-24 19:18:28</time>
      </trkpt>
      <trkpt lat="40.825" lon="0.48544">
        <ele>72.6</ele>
        <time>2022-05-24 19:18:29</time>
      </trkpt>
      <trkpt lat="40.82499" lon="0.48552">
        <ele>72.4</ele>
        <time>2022-05-24 19:18:30</time>
      </trkpt>
      <trkpt lat="40.82499" lon="0.48561">
        <ele>72.4</ele>
        <time>2022-05-24 19:18:31</time>
      </trkpt>
      <trkpt lat="40.82499" lon="0.48568">
        <ele>72.2</ele>
        <time>2022-05-24 19:18:32</time>
      </trkpt>
      <trkpt lat="40.82498" lon="0.48577">
        <ele>72</ele>
        <time>2022-05-24 19:18:33</time>
      </trkpt>
      <trkpt lat="40.82497" lon="0.48585">
        <ele>71.8</ele>
        <time>2022-05-24 19:18:34</time>
      </trkpt>
      <trkpt lat="40.82496" lon="0.48594">
        <ele>71.6</ele>
        <time>2022-05-24 19:18:35</time>
      </trkpt>
      <trkpt lat="40.82495" lon="0.48603">
        <ele>71.4</ele>
        <time>2022-05-24 19:18:36</time>
      </trkpt>
      <trkpt lat="40.82494" lon="0.48612">
        <ele>71.2</ele>
        <time>2022-05-24 19:18:37</time>
      </trkpt>
      <trkpt lat="40.82492" lon="0.48621">
        <ele>71</ele>
        <time>2022-05-24 19:18:38</time>
      </trkpt>
      <trkpt lat="40.82491" lon="0.4863">
        <ele>70.8</ele>
        <time>2022-05-24 19:18:39</time>
      </trkpt>
      <trkpt lat="40.8249" lon="0.48639">
        <ele>70.6</ele>
        <time>2022-05-24 19:18:40</time>
      </trkpt>
      <trkpt lat="40.82489" lon="0.48648">
        <ele>70.2</ele>
        <time>2022-05-24 19:18:41</time>
      </trkpt>
      <trkpt lat="40.82488" lon="0.48658">
        <ele>70</ele>
        <time>2022-05-24 19:18:42</time>
      </trkpt>
      <trkpt lat="40.82487" lon="0.48668">
        <ele>69.6</ele>
        <time>2022-05-24 19:18:43</time>
      </trkpt>
      <trkpt lat="40.82486" lon="0.48678">
        <ele>69.2</ele>
        <time>2022-05-24 19:18:44</time>
      </trkpt>
      <trkpt lat="40.82485" lon="0.48687">
        <ele>68.8</ele>
        <time>2022-05-24 19:18:45</time>
      </trkpt>
      <trkpt lat="40.82484" lon="0.48698">
        <ele>68.4</ele>
        <time>2022-05-24 19:18:46</time>
      </trkpt>
      <trkpt lat="40.82483" lon="0.48708">
        <ele>68</ele>
        <time>2022-05-24 19:18:47</time>
      </trkpt>
      <trkpt lat="40.82482" lon="0.48719">
        <ele>67.6</ele>
        <time>2022-05-24 19:18:48</time>
      </trkpt>
      <trkpt lat="40.82481" lon="0.48729">
        <ele>67.4</ele>
        <time>2022-05-24 19:18:49</time>
      </trkpt>
      <trkpt lat="40.82479" lon="0.48739">
        <ele>67.2</ele>
        <time>2022-05-24 19:18:50</time>
      </trkpt>
      <trkpt lat="40.82478" lon="0.4875">
        <ele>67</ele>
        <time>2022-05-24 19:18:51</time>
      </trkpt>
      <trkpt lat="40.82477" lon="0.48761">
        <ele>66.6</ele>
        <time>2022-05-24 19:18:52</time>
      </trkpt>
      <trkpt lat="40.82476" lon="0.48772">
        <ele>66.4</ele>
        <time>2022-05-24 19:18:53</time>
      </trkpt>
      <trkpt lat="40.82475" lon="0.48783">
        <ele>66</ele>
        <time>2022-05-24 19:18:54</time>
      </trkpt>
      <trkpt lat="40.82473" lon="0.48794">
        <ele>65.6</ele>
        <time>2022-05-24 19:18:55</time>
      </trkpt>
      <trkpt lat="40.82472" lon="0.48805">
        <ele>65.2</ele>
        <time>2022-05-24 19:18:56</time>
      </trkpt>
      <trkpt lat="40.82471" lon="0.48816">
        <ele>64.8</ele>
        <time>2022-05-24 19:18:57</time>
      </trkpt>
      <trkpt lat="40.8247" lon="0.48827">
        <ele>64.4</ele>
        <time>2022-05-24 19:18:58</time>
      </trkpt>
      <trkpt lat="40.82468" lon="0.48838">
        <ele>64.2</ele>
        <time>2022-05-24 19:18:59</time>
      </trkpt>
      <trkpt lat="40.82467" lon="0.48849">
        <ele>64</ele>
        <time>2022-05-24 19:19:00</time>
      </trkpt>
      <trkpt lat="40.82466" lon="0.4886">
        <ele>63.8</ele>
        <time>2022-05-24 19:19:01</time>
      </trkpt>
      <trkpt lat="40.82465" lon="0.48872">
        <ele>63.4</ele>
        <time>2022-05-24 19:19:02</time>
      </trkpt>
      <trkpt lat="40.82463" lon="0.48883">
        <ele>63</ele>
        <time>2022-05-24 19:19:03</time>
      </trkpt>
      <trkpt lat="40.82462" lon="0.48895">
        <ele>62.6</ele>
        <time>2022-05-24 19:19:04</time>
      </trkpt>
      <trkpt lat="40.82461" lon="0.48906">
        <ele>62.2</ele>
        <time>2022-05-24 19:19:05</time>
      </trkpt>
      <trkpt lat="40.8246" lon="0.48917">
        <ele>62</ele>
        <time>2022-05-24 19:19:06</time>
      </trkpt>
      <trkpt lat="40.82458" lon="0.48929">
        <ele>61.6</ele>
        <time>2022-05-24 19:19:07</time>
      </trkpt>
      <trkpt lat="40.82457" lon="0.4894">
        <ele>61.4</ele>
        <time>2022-05-24 19:19:08</time>
      </trkpt>
      <trkpt lat="40.82456" lon="0.48952">
        <ele>61</ele>
        <time>2022-05-24 19:19:09</time>
      </trkpt>
      <trkpt lat="40.82454" lon="0.48963">
        <ele>60.8</ele>
        <time>2022-05-24 19:19:10</time>
      </trkpt>
      <trkpt lat="40.82453" lon="0.48974">
        <ele>60.6</ele>
        <time>2022-05-24 19:19:11</time>
      </trkpt>
      <trkpt lat="40.82451" lon="0.48984">
        <ele>60.4</ele>
        <time>2022-05-24 19:19:12</time>
      </trkpt>
      <trkpt lat="40.82449" lon="0.48995">
        <ele>60.2</ele>
        <time>2022-05-24 19:19:13</time>
      </trkpt>
      <trkpt lat="40.82447" lon="0.49005">
        <ele>60</ele>
        <time>2022-05-24 19:19:14</time>
      </trkpt>
      <trkpt lat="40.82445" lon="0.49016">
        <ele>60</ele>
        <time>2022-05-24 19:19:15</time>
      </trkpt>
      <trkpt lat="40.82443" lon="0.49026">
        <ele>59.8</ele>
        <time>2022-05-24 19:19:16</time>
      </trkpt>
      <trkpt lat="40.82441" lon="0.49036">
        <ele>59.8</ele>
        <time>2022-05-24 19:19:17</time>
      </trkpt>
      <trkpt lat="40.82438" lon="0.49045">
        <ele>59.6</ele>
        <time>2022-05-24 19:19:18</time>
      </trkpt>
      <trkpt lat="40.82436" lon="0.49055">
        <ele>59.6</ele>
        <time>2022-05-24 19:19:19</time>
      </trkpt>
      <trkpt lat="40.82434" lon="0.49065">
        <ele>59.4</ele>
        <time>2022-05-24 19:19:20</time>
      </trkpt>
      <trkpt lat="40.82432" lon="0.49074">
        <ele>59.4</ele>
        <time>2022-05-24 19:19:21</time>
      </trkpt>
      <trkpt lat="40.8243" lon="0.49084">
        <ele>59.2</ele>
        <time>2022-05-24 19:19:22</time>
      </trkpt>
      <trkpt lat="40.82428" lon="0.49093">
        <ele>59.2</ele>
        <time>2022-05-24 19:19:23</time>
      </trkpt>
      <trkpt lat="40.82426" lon="0.49103">
        <ele>59</ele>
        <time>2022-05-24 19:19:24</time>
      </trkpt>
      <trkpt lat="40.82424" lon="0.49112">
        <ele>59</ele>
        <time>2022-05-24 19:19:25</time>
      </trkpt>
      <trkpt lat="40.82423" lon="0.49121">
        <ele>59</ele>
        <time>2022-05-24 19:19:26</time>
      </trkpt>
      <trkpt lat="40.82421" lon="0.4913">
        <ele>58.8</ele>
        <time>2022-05-24 19:19:27</time>
      </trkpt>
      <trkpt lat="40.8242" lon="0.49138">
        <ele>58.8</ele>
        <time>2022-05-24 19:19:28</time>
      </trkpt>
      <trkpt lat="40.8242" lon="0.49148">
        <ele>58.8</ele>
        <time>2022-05-24 19:19:29</time>
      </trkpt>
      <trkpt lat="40.8242" lon="0.49156">
        <ele>58.6</ele>
        <time>2022-05-24 19:19:30</time>
      </trkpt>
      <trkpt lat="40.8242" lon="0.49165">
        <ele>58.4</ele>
        <time>2022-05-24 19:19:31</time>
      </trkpt>
      <trkpt lat="40.8242" lon="0.49174">
        <ele>58.4</ele>
        <time>2022-05-24 19:19:32</time>
      </trkpt>
      <trkpt lat="40.8242" lon="0.49183">
        <ele>58.2</ele>
        <time>2022-05-24 19:19:33</time>
      </trkpt>
      <trkpt lat="40.8242" lon="0.49192">
        <ele>58.2</ele>
        <time>2022-05-24 19:19:34</time>
      </trkpt>
      <trkpt lat="40.8242" lon="0.492">
        <ele>58</ele>
        <time>2022-05-24 19:19:35</time>
      </trkpt>
      <trkpt lat="40.8242" lon="0.49209">
        <ele>58</ele>
        <time>2022-05-24 19:19:36</time>
      </trkpt>
      <trkpt lat="40.8242" lon="0.49217">
        <ele>57.8</ele>
        <time>2022-05-24 19:19:37</time>
      </trkpt>
      <trkpt lat="40.82419" lon="0.49225">
        <ele>57.8</ele>
        <time>2022-05-24 19:19:38</time>
      </trkpt>
      <trkpt lat="40.8242" lon="0.49235">
        <ele>57.6</ele>
        <time>2022-05-24 19:19:39</time>
      </trkpt>
      <trkpt lat="40.8242" lon="0.49244">
        <ele>57.4</ele>
        <time>2022-05-24 19:19:40</time>
      </trkpt>
      <trkpt lat="40.8242" lon="0.49253">
        <ele>57.2</ele>
        <time>2022-05-24 19:19:41</time>
      </trkpt>
      <trkpt lat="40.82421" lon="0.49263">
        <ele>57</ele>
        <time>2022-05-24 19:19:42</time>
      </trkpt>
      <trkpt lat="40.82421" lon="0.49272">
        <ele>56.8</ele>
        <time>2022-05-24 19:19:43</time>
      </trkpt>
      <trkpt lat="40.82421" lon="0.49282">
        <ele>56.8</ele>
        <time>2022-05-24 19:19:44</time>
      </trkpt>
      <trkpt lat="40.82421" lon="0.49291">
        <ele>56.8</ele>
        <time>2022-05-24 19:19:45</time>
      </trkpt>
      <trkpt lat="40.82421" lon="0.49301">
        <ele>56.8</ele>
        <time>2022-05-24 19:19:46</time>
      </trkpt>
      <trkpt lat="40.82421" lon="0.4931">
        <ele>56.6</ele>
        <time>2022-05-24 19:19:47</time>
      </trkpt>
      <trkpt lat="40.82422" lon="0.49319">
        <ele>56.6</ele>
        <time>2022-05-24 19:19:48</time>
      </trkpt>
      <trkpt lat="40.82423" lon="0.49328">
        <ele>56.4</ele>
        <time>2022-05-24 19:19:49</time>
      </trkpt>
      <trkpt lat="40.82423" lon="0.49337">
        <ele>56.2</ele>
        <time>2022-05-24 19:19:50</time>
      </trkpt>
      <trkpt lat="40.82423" lon="0.49346">
        <ele>56</ele>
        <time>2022-05-24 19:19:51</time>
      </trkpt>
      <trkpt lat="40.82423" lon="0.49355">
        <ele>55.8</ele>
        <time>2022-05-24 19:19:52</time>
      </trkpt>
      <trkpt lat="40.82424" lon="0.49363">
        <ele>55.6</ele>
        <time>2022-05-24 19:19:53</time>
      </trkpt>
      <trkpt lat="40.82425" lon="0.49372">
        <ele>55.4</ele>
        <time>2022-05-24 19:19:54</time>
      </trkpt>
      <trkpt lat="40.82425" lon="0.4938">
        <ele>55.4</ele>
        <time>2022-05-24 19:19:55</time>
      </trkpt>
      <trkpt lat="40.82425" lon="0.49389">
        <ele>55.4</ele>
        <time>2022-05-24 19:19:56</time>
      </trkpt>
      <trkpt lat="40.82426" lon="0.49397">
        <ele>55.4</ele>
        <time>2022-05-24 19:19:57</time>
      </trkpt>
      <trkpt lat="40.82426" lon="0.49405">
        <ele>55.4</ele>
        <time>2022-05-24 19:19:58</time>
      </trkpt>
      <trkpt lat="40.82425" lon="0.49413">
        <ele>55.4</ele>
        <time>2022-05-24 19:19:59</time>
      </trkpt>
      <trkpt lat="40.82425" lon="0.49421">
        <ele>55.2</ele>
        <time>2022-05-24 19:20:00</time>
      </trkpt>
      <trkpt lat="40.82425" lon="0.49429">
        <ele>55.2</ele>
        <time>2022-05-24 19:20:01</time>
      </trkpt>
      <trkpt lat="40.82426" lon="0.49437">
        <ele>55.2</ele>
        <time>2022-05-24 19:20:02</time>
      </trkpt>
      <trkpt lat="40.82426" lon="0.49445">
        <ele>55.2</ele>
        <time>2022-05-24 19:20:03</time>
      </trkpt>
      <trkpt lat="40.82426" lon="0.49453">
        <ele>55</ele>
        <time>2022-05-24 19:20:04</time>
      </trkpt>
      <trkpt lat="40.82426" lon="0.49461">
        <ele>54.8</ele>
        <time>2022-05-24 19:20:05</time>
      </trkpt>
      <trkpt lat="40.82426" lon="0.49468">
        <ele>54.8</ele>
        <time>2022-05-24 19:20:06</time>
      </trkpt>
      <trkpt lat="40.82427" lon="0.49475">
        <ele>55</ele>
        <time>2022-05-24 19:20:07</time>
      </trkpt>
      <trkpt lat="40.82427" lon="0.49483">
        <ele>55</ele>
        <time>2022-05-24 19:20:08</time>
      </trkpt>
      <trkpt lat="40.82427" lon="0.4949">
        <ele>55</ele>
        <time>2022-05-24 19:20:09</time>
      </trkpt>
      <trkpt lat="40.82427" lon="0.49497">
        <ele>55.2</ele>
        <time>2022-05-24 19:20:10</time>
      </trkpt>
      <trkpt lat="40.82427" lon="0.49504">
        <ele>55</ele>
        <time>2022-05-24 19:20:11</time>
      </trkpt>
      <trkpt lat="40.82427" lon="0.49511">
        <ele>55</ele>
        <time>2022-05-24 19:20:12</time>
      </trkpt>
      <trkpt lat="40.82427" lon="0.49518">
        <ele>55</ele>
        <time>2022-05-24 19:20:13</time>
      </trkpt>
      <trkpt lat="40.82426" lon="0.49525">
        <ele>54.8</ele>
        <time>2022-05-24 19:20:14</time>
      </trkpt>
      <trkpt lat="40.82426" lon="0.49533">
        <ele>54.6</ele>
        <time>2022-05-24 19:20:15</time>
      </trkpt>
      <trkpt lat="40.82426" lon="0.4954">
        <ele>54.4</ele>
        <time>2022-05-24 19:20:16</time>
      </trkpt>
      <trkpt lat="40.82426" lon="0.49548">
        <ele>54.2</ele>
        <time>2022-05-24 19:20:17</time>
      </trkpt>
      <trkpt lat="40.82426" lon="0.49556">
        <ele>54</ele>
        <time>2022-05-24 19:20:18</time>
      </trkpt>
      <trkpt lat="40.82427" lon="0.49564">
        <ele>53.8</ele>
        <time>2022-05-24 19:20:19</time>
      </trkpt>
      <trkpt lat="40.82427" lon="0.49572">
        <ele>53.8</ele>
        <time>2022-05-24 19:20:20</time>
      </trkpt>
      <trkpt lat="40.82427" lon="0.4958">
        <ele>53.6</ele>
        <time>2022-05-24 19:20:21</time>
      </trkpt>
      <trkpt lat="40.82428" lon="0.49589">
        <ele>53.4</ele>
        <time>2022-05-24 19:20:22</time>
      </trkpt>
      <trkpt lat="40.82428" lon="0.49597">
        <ele>53.2</ele>
        <time>2022-05-24 19:20:23</time>
      </trkpt>
      <trkpt lat="40.82429" lon="0.49605">
        <ele>53.2</ele>
        <time>2022-05-24 19:20:24</time>
      </trkpt>
      <trkpt lat="40.8243" lon="0.49613">
        <ele>53</ele>
        <time>2022-05-24 19:20:25</time>
      </trkpt>
      <trkpt lat="40.82431" lon="0.49621">
        <ele>52.8</ele>
        <time>2022-05-24 19:20:26</time>
      </trkpt>
      <trkpt lat="40.82433" lon="0.49629">
        <ele>52.4</ele>
        <time>2022-05-24 19:20:27</time>
      </trkpt>
      <trkpt lat="40.82434" lon="0.49638">
        <ele>52.2</ele>
        <time>2022-05-24 19:20:28</time>
      </trkpt>
      <trkpt lat="40.82436" lon="0.49646">
        <ele>52</ele>
        <time>2022-05-24 19:20:29</time>
      </trkpt>
      <trkpt lat="40.82439" lon="0.49654">
        <ele>51.8</ele>
        <time>2022-05-24 19:20:30</time>
      </trkpt>
      <trkpt lat="40.82441" lon="0.49662">
        <ele>51.6</ele>
        <time>2022-05-24 19:20:31</time>
      </trkpt>
      <trkpt lat="40.82443" lon="0.4967">
        <ele>51.4</ele>
        <time>2022-05-24 19:20:32</time>
      </trkpt>
      <trkpt lat="40.82446" lon="0.49678">
        <ele>51.2</ele>
        <time>2022-05-24 19:20:33</time>
      </trkpt>
      <trkpt lat="40.8245" lon="0.49686">
        <ele>51</ele>
        <time>2022-05-24 19:20:34</time>
      </trkpt>
      <trkpt lat="40.82454" lon="0.49694">
        <ele>50.6</ele>
        <time>2022-05-24 19:20:35</time>
      </trkpt>
      <trkpt lat="40.82458" lon="0.49702">
        <ele>50.2</ele>
        <time>2022-05-24 19:20:36</time>
      </trkpt>
      <trkpt lat="40.82462" lon="0.4971">
        <ele>49.8</ele>
        <time>2022-05-24 19:20:37</time>
      </trkpt>
      <trkpt lat="40.82467" lon="0.49718">
        <ele>49.4</ele>
        <time>2022-05-24 19:20:38</time>
      </trkpt>
      <trkpt lat="40.82471" lon="0.49727">
        <ele>48.8</ele>
        <time>2022-05-24 19:20:39</time>
      </trkpt>
      <trkpt lat="40.82476" lon="0.49735">
        <ele>48.4</ele>
        <time>2022-05-24 19:20:40</time>
      </trkpt>
      <trkpt lat="40.82481" lon="0.49743">
        <ele>48</ele>
        <time>2022-05-24 19:20:41</time>
      </trkpt>
      <trkpt lat="40.82487" lon="0.49751">
        <ele>47.4</ele>
        <time>2022-05-24 19:20:42</time>
      </trkpt>
      <trkpt lat="40.82492" lon="0.49759">
        <ele>47</ele>
        <time>2022-05-24 19:20:43</time>
      </trkpt>
      <trkpt lat="40.82499" lon="0.49768">
        <ele>46.6</ele>
        <time>2022-05-24 19:20:44</time>
      </trkpt>
      <trkpt lat="40.82505" lon="0.49777">
        <ele>45.8</ele>
        <time>2022-05-24 19:20:45</time>
      </trkpt>
      <trkpt lat="40.82512" lon="0.49785">
        <ele>45.2</ele>
        <time>2022-05-24 19:20:46</time>
      </trkpt>
      <trkpt lat="40.82518" lon="0.49794">
        <ele>44.6</ele>
        <time>2022-05-24 19:20:47</time>
      </trkpt>
      <trkpt lat="40.82524" lon="0.49803">
        <ele>44</ele>
        <time>2022-05-24 19:20:48</time>
      </trkpt>
      <trkpt lat="40.82531" lon="0.49812">
        <ele>43.4</ele>
        <time>2022-05-24 19:20:49</time>
      </trkpt>
      <trkpt lat="40.82537" lon="0.49823">
        <ele>42.6</ele>
        <time>2022-05-24 19:20:50</time>
      </trkpt>
      <trkpt lat="40.82542" lon="0.49833">
        <ele>41.8</ele>
        <time>2022-05-24 19:20:51</time>
      </trkpt>
      <trkpt lat="40.82547" lon="0.49845">
        <ele>41.2</ele>
        <time>2022-05-24 19:20:52</time>
      </trkpt>
      <trkpt lat="40.8255" lon="0.49858">
        <ele>40.4</ele>
        <time>2022-05-24 19:20:53</time>
      </trkpt>
      <trkpt lat="40.82554" lon="0.49871">
        <ele>39.8</ele>
        <time>2022-05-24 19:20:54</time>
      </trkpt>
      <trkpt lat="40.82557" lon="0.49883">
        <ele>39.2</ele>
        <time>2022-05-24 19:20:55</time>
      </trkpt>
      <trkpt lat="40.82558" lon="0.49896">
        <ele>38.6</ele>
        <time>2022-05-24 19:20:56</time>
      </trkpt>
      <trkpt lat="40.82558" lon="0.49909">
        <ele>38</ele>
        <time>2022-05-24 19:20:57</time>
      </trkpt>
      <trkpt lat="40.82556" lon="0.49923">
        <ele>37.4</ele>
        <time>2022-05-24 19:20:58</time>
      </trkpt>
      <trkpt lat="40.82554" lon="0.49937">
        <ele>36.8</ele>
        <time>2022-05-24 19:20:59</time>
      </trkpt>
      <trkpt lat="40.82552" lon="0.49951">
        <ele>36.4</ele>
        <time>2022-05-24 19:21:00</time>
      </trkpt>
      <trkpt lat="40.82548" lon="0.49964">
        <ele>35.8</ele>
        <time>2022-05-24 19:21:01</time>
      </trkpt>
      <trkpt lat="40.82544" lon="0.49976">
        <ele>35.4</ele>
        <time>2022-05-24 19:21:02</time>
      </trkpt>
      <trkpt lat="40.82538" lon="0.49989">
        <ele>35</ele>
        <time>2022-05-24 19:21:03</time>
      </trkpt>
      <trkpt lat="40.82532" lon="0.50002">
        <ele>34.4</ele>
        <time>2022-05-24 19:21:04</time>
      </trkpt>
      <trkpt lat="40.82524" lon="0.50012">
        <ele>34</ele>
        <time>2022-05-24 19:21:05</time>
      </trkpt>
      <trkpt lat="40.82517" lon="0.50022">
        <ele>33.6</ele>
        <time>2022-05-24 19:21:06</time>
      </trkpt>
      <trkpt lat="40.82509" lon="0.5003">
        <ele>33</ele>
        <time>2022-05-24 19:21:07</time>
      </trkpt>
      <trkpt lat="40.825" lon="0.50038">
        <ele>32.4</ele>
        <time>2022-05-24 19:21:08</time>
      </trkpt>
      <trkpt lat="40.82491" lon="0.50046">
        <ele>32</ele>
        <time>2022-05-24 19:21:09</time>
      </trkpt>
      <trkpt lat="40.82483" lon="0.50054">
        <ele>31.6</ele>
        <time>2022-05-24 19:21:10</time>
      </trkpt>
      <trkpt lat="40.82473" lon="0.50062">
        <ele>31.2</ele>
        <time>2022-05-24 19:21:11</time>
      </trkpt>
      <trkpt lat="40.82465" lon="0.50068">
        <ele>30.8</ele>
        <time>2022-05-24 19:21:12</time>
      </trkpt>
      <trkpt lat="40.82455" lon="0.50076">
        <ele>30.2</ele>
        <time>2022-05-24 19:21:13</time>
      </trkpt>
      <trkpt lat="40.82446" lon="0.50083">
        <ele>29.8</ele>
        <time>2022-05-24 19:21:14</time>
      </trkpt>
      <trkpt lat="40.82438" lon="0.50088">
        <ele>29.6</ele>
        <time>2022-05-24 19:21:15</time>
      </trkpt>
      <trkpt lat="40.82429" lon="0.50094">
        <ele>29.4</ele>
        <time>2022-05-24 19:21:16</time>
      </trkpt>
      <trkpt lat="40.8242" lon="0.501">
        <ele>29.2</ele>
        <time>2022-05-24 19:21:17</time>
      </trkpt>
      <trkpt lat="40.82412" lon="0.50106">
        <ele>29</ele>
        <time>2022-05-24 19:21:18</time>
      </trkpt>
      <trkpt lat="40.82405" lon="0.50112">
        <ele>29</ele>
        <time>2022-05-24 19:21:19</time>
      </trkpt>
      <trkpt lat="40.82398" lon="0.50117">
        <ele>28.8</ele>
        <time>2022-05-24 19:21:20</time>
      </trkpt>
      <trkpt lat="40.82391" lon="0.50123">
        <ele>28.8</ele>
        <time>2022-05-24 19:21:21</time>
      </trkpt>
      <trkpt lat="40.82384" lon="0.50128">
        <ele>28.8</ele>
        <time>2022-05-24 19:21:22</time>
      </trkpt>
      <trkpt lat="40.82377" lon="0.50133">
        <ele>28.6</ele>
        <time>2022-05-24 19:21:23</time>
      </trkpt>
      <trkpt lat="40.8237" lon="0.50138">
        <ele>28.6</ele>
        <time>2022-05-24 19:21:24</time>
      </trkpt>
      <trkpt lat="40.82363" lon="0.50142">
        <ele>28.6</ele>
        <time>2022-05-24 19:21:25</time>
      </trkpt>
      <trkpt lat="40.82356" lon="0.50146">
        <ele>28.6</ele>
        <time>2022-05-24 19:21:26</time>
      </trkpt>
      <trkpt lat="40.8235" lon="0.50149">
        <ele>28.8</ele>
        <time>2022-05-24 19:21:27</time>
      </trkpt>
      <trkpt lat="40.82343" lon="0.50151">
        <ele>28.8</ele>
        <time>2022-05-24 19:21:28</time>
      </trkpt>
      <trkpt lat="40.82336" lon="0.50153">
        <ele>28.8</ele>
        <time>2022-05-24 19:21:29</time>
      </trkpt>
      <trkpt lat="40.8233" lon="0.50155">
        <ele>28.8</ele>
        <time>2022-05-24 19:21:30</time>
      </trkpt>
      <trkpt lat="40.82323" lon="0.50157">
        <ele>28.6</ele>
        <time>2022-05-24 19:21:31</time>
      </trkpt>
      <trkpt lat="40.82317" lon="0.50157">
        <ele>28.6</ele>
        <time>2022-05-24 19:21:32</time>
      </trkpt>
      <trkpt lat="40.82311" lon="0.50158">
        <ele>28.4</ele>
        <time>2022-05-24 19:21:33</time>
      </trkpt>
      <trkpt lat="40.82305" lon="0.50156">
        <ele>28.2</ele>
        <time>2022-05-24 19:21:34</time>
      </trkpt>
      <trkpt lat="40.82299" lon="0.50152">
        <ele>28</ele>
        <time>2022-05-24 19:21:35</time>
      </trkpt>
      <trkpt lat="40.82295" lon="0.50147">
        <ele>27.8</ele>
        <time>2022-05-24 19:21:36</time>
      </trkpt>
      <trkpt lat="40.8229" lon="0.50142">
        <ele>27.6</ele>
        <time>2022-05-24 19:21:37</time>
      </trkpt>
      <trkpt lat="40.82285" lon="0.50139">
        <ele>27.4</ele>
        <time>2022-05-24 19:21:38</time>
      </trkpt>
      <trkpt lat="40.82278" lon="0.50139">
        <ele>27.4</ele>
        <time>2022-05-24 19:21:39</time>
      </trkpt>
      <trkpt lat="40.82273" lon="0.50141">
        <ele>27.4</ele>
        <time>2022-05-24 19:21:40</time>
      </trkpt>
      <trkpt lat="40.82268" lon="0.50144">
        <ele>27.4</ele>
        <time>2022-05-24 19:21:41</time>
      </trkpt>
      <trkpt lat="40.82264" lon="0.50147">
        <ele>27.2</ele>
        <time>2022-05-24 19:21:42</time>
      </trkpt>
      <trkpt lat="40.82259" lon="0.5015">
        <ele>26.8</ele>
        <time>2022-05-24 19:21:43</time>
      </trkpt>
      <trkpt lat="40.82255" lon="0.50153">
        <ele>26.6</ele>
        <time>2022-05-24 19:21:44</time>
      </trkpt>
      <trkpt lat="40.82249" lon="0.50153">
        <ele>26.6</ele>
        <time>2022-05-24 19:21:45</time>
      </trkpt>
      <trkpt lat="40.82242" lon="0.50154">
        <ele>26.4</ele>
        <time>2022-05-24 19:21:46</time>
      </trkpt>
      <trkpt lat="40.82235" lon="0.50155">
        <ele>26.4</ele>
        <time>2022-05-24 19:21:47</time>
      </trkpt>
      <trkpt lat="40.82228" lon="0.50155">
        <ele>26.4</ele>
        <time>2022-05-24 19:21:48</time>
      </trkpt>
      <trkpt lat="40.82222" lon="0.50157">
        <ele>26.4</ele>
        <time>2022-05-24 19:21:49</time>
      </trkpt>
      <trkpt lat="40.82215" lon="0.5016">
        <ele>26.4</ele>
        <time>2022-05-24 19:21:50</time>
      </trkpt>
      <trkpt lat="40.82209" lon="0.50162">
        <ele>26.4</ele>
        <time>2022-05-24 19:21:51</time>
      </trkpt>
      <trkpt lat="40.82202" lon="0.50164">
        <ele>26.4</ele>
        <time>2022-05-24 19:21:52</time>
      </trkpt>
      <trkpt lat="40.82195" lon="0.50168">
        <ele>26.2</ele>
        <time>2022-05-24 19:21:53</time>
      </trkpt>
      <trkpt lat="40.82189" lon="0.50169">
        <ele>26.2</ele>
        <time>2022-05-24 19:21:54</time>
      </trkpt>
      <trkpt lat="40.82183" lon="0.50171">
        <ele>26</ele>
        <time>2022-05-24 19:21:55</time>
      </trkpt>
      <trkpt lat="40.82176" lon="0.50172">
        <ele>26</ele>
        <time>2022-05-24 19:21:56</time>
      </trkpt>
      <trkpt lat="40.8217" lon="0.50173">
        <ele>25.8</ele>
        <time>2022-05-24 19:21:57</time>
      </trkpt>
      <trkpt lat="40.82163" lon="0.50175">
        <ele>25.6</ele>
        <time>2022-05-24 19:21:58</time>
      </trkpt>
      <trkpt lat="40.82157" lon="0.50177">
        <ele>25.6</ele>
        <time>2022-05-24 19:21:59</time>
      </trkpt>
      <trkpt lat="40.82151" lon="0.50178">
        <ele>25.4</ele>
        <time>2022-05-24 19:22:00</time>
      </trkpt>
      <trkpt lat="40.82145" lon="0.50179">
        <ele>25.4</ele>
        <time>2022-05-24 19:22:01</time>
      </trkpt>
      <trkpt lat="40.8214" lon="0.5018">
        <ele>25.2</ele>
        <time>2022-05-24 19:22:02</time>
      </trkpt>
      <trkpt lat="40.82133" lon="0.50182">
        <ele>25.2</ele>
        <time>2022-05-24 19:22:03</time>
      </trkpt>
      <trkpt lat="40.82128" lon="0.50185">
        <ele>25</ele>
        <time>2022-05-24 19:22:04</time>
      </trkpt>
      <trkpt lat="40.82122" lon="0.5019">
        <ele>25</ele>
        <time>2022-05-24 19:22:05</time>
      </trkpt>
      <trkpt lat="40.82116" lon="0.50193">
        <ele>25</ele>
        <time>2022-05-24 19:22:06</time>
      </trkpt>
      <trkpt lat="40.82111" lon="0.50197">
        <ele>24.8</ele>
        <time>2022-05-24 19:22:07</time>
      </trkpt>
      <trkpt lat="40.82106" lon="0.50202">
        <ele>24.6</ele>
        <time>2022-05-24 19:22:08</time>
      </trkpt>
      <trkpt lat="40.82101" lon="0.50207">
        <ele>24.4</ele>
        <time>2022-05-24 19:22:09</time>
      </trkpt>
      <trkpt lat="40.82097" lon="0.50213">
        <ele>24.4</ele>
        <time>2022-05-24 19:22:10</time>
      </trkpt>
      <trkpt lat="40.82092" lon="0.50218">
        <ele>24.4</ele>
        <time>2022-05-24 19:22:11</time>
      </trkpt>
      <trkpt lat="40.82088" lon="0.50223">
        <ele>24.2</ele>
        <time>2022-05-24 19:22:12</time>
      </trkpt>
      <trkpt lat="40.82084" lon="0.50229">
        <ele>24.2</ele>
        <time>2022-05-24 19:22:13</time>
      </trkpt>
      <trkpt lat="40.82079" lon="0.50235">
        <ele>24</ele>
        <time>2022-05-24 19:22:14</time>
      </trkpt>
      <trkpt lat="40.82075" lon="0.50241">
        <ele>24</ele>
        <time>2022-05-24 19:22:15</time>
      </trkpt>
      <trkpt lat="40.82071" lon="0.50248">
        <ele>23.8</ele>
        <time>2022-05-24 19:22:16</time>
      </trkpt>
      <trkpt lat="40.82067" lon="0.50254">
        <ele>23.6</ele>
        <time>2022-05-24 19:22:17</time>
      </trkpt>
      <trkpt lat="40.82062" lon="0.50259">
        <ele>23.4</ele>
        <time>2022-05-24 19:22:18</time>
      </trkpt>
      <trkpt lat="40.82058" lon="0.50265">
        <ele>23</ele>
        <time>2022-05-24 19:22:19</time>
      </trkpt>
      <trkpt lat="40.82053" lon="0.50271">
        <ele>22.8</ele>
        <time>2022-05-24 19:22:20</time>
      </trkpt>
      <trkpt lat="40.82049" lon="0.50277">
        <ele>22.6</ele>
        <time>2022-05-24 19:22:21</time>
      </trkpt>
      <trkpt lat="40.82045" lon="0.50284">
        <ele>22.4</ele>
        <time>2022-05-24 19:22:22</time>
      </trkpt>
      <trkpt lat="40.8204" lon="0.5029">
        <ele>22.2</ele>
        <time>2022-05-24 19:22:23</time>
      </trkpt>
      <trkpt lat="40.82036" lon="0.50296">
        <ele>22.2</ele>
        <time>2022-05-24 19:22:24</time>
      </trkpt>
      <trkpt lat="40.82031" lon="0.50302">
        <ele>22.2</ele>
        <time>2022-05-24 19:22:25</time>
      </trkpt>
      <trkpt lat="40.82027" lon="0.50308">
        <ele>22</ele>
        <time>2022-05-24 19:22:26</time>
      </trkpt>
      <trkpt lat="40.82022" lon="0.50315">
        <ele>21.6</ele>
        <time>2022-05-24 19:22:27</time>
      </trkpt>
      <trkpt lat="40.82018" lon="0.50321">
        <ele>21.4</ele>
        <time>2022-05-24 19:22:28</time>
      </trkpt>
      <trkpt lat="40.82014" lon="0.50328">
        <ele>21</ele>
        <time>2022-05-24 19:22:29</time>
      </trkpt>
      <trkpt lat="40.82009" lon="0.50335">
        <ele>20.8</ele>
        <time>2022-05-24 19:22:30</time>
      </trkpt>
      <trkpt lat="40.82005" lon="0.50342">
        <ele>20.6</ele>
        <time>2022-05-24 19:22:31</time>
      </trkpt>
      <trkpt lat="40.82001" lon="0.50348">
        <ele>20.4</ele>
        <time>2022-05-24 19:22:32</time>
      </trkpt>
      <trkpt lat="40.81995" lon="0.50357">
        <ele>20.2</ele>
        <time>2022-05-24 19:22:33</time>
      </trkpt>
      <trkpt lat="40.8199" lon="0.50363">
        <ele>19.8</ele>
        <time>2022-05-24 19:22:34</time>
      </trkpt>
      <trkpt lat="40.81985" lon="0.50371">
        <ele>19.6</ele>
        <time>2022-05-24 19:22:35</time>
      </trkpt>
      <trkpt lat="40.81981" lon="0.50378">
        <ele>19.6</ele>
        <time>2022-05-24 19:22:36</time>
      </trkpt>
      <trkpt lat="40.81976" lon="0.50385">
        <ele>19.4</ele>
        <time>2022-05-24 19:22:37</time>
      </trkpt>
      <trkpt lat="40.81972" lon="0.50393">
        <ele>19.2</ele>
        <time>2022-05-24 19:22:38</time>
      </trkpt>
      <trkpt lat="40.81968" lon="0.50401">
        <ele>19</ele>
        <time>2022-05-24 19:22:39</time>
      </trkpt>
      <trkpt lat="40.81963" lon="0.50408">
        <ele>18.8</ele>
        <time>2022-05-24 19:22:40</time>
      </trkpt>
      <trkpt lat="40.8196" lon="0.50415">
        <ele>18.4</ele>
        <time>2022-05-24 19:22:41</time>
      </trkpt>
      <trkpt lat="40.81956" lon="0.50422">
        <ele>18.2</ele>
        <time>2022-05-24 19:22:42</time>
      </trkpt>
      <trkpt lat="40.81952" lon="0.5043">
        <ele>18</ele>
        <time>2022-05-24 19:22:43</time>
      </trkpt>
      <trkpt lat="40.81948" lon="0.50437">
        <ele>17.6</ele>
        <time>2022-05-24 19:22:44</time>
      </trkpt>
      <trkpt lat="40.81944" lon="0.50445">
        <ele>17.4</ele>
        <time>2022-05-24 19:22:45</time>
      </trkpt>
      <trkpt lat="40.81941" lon="0.50453">
        <ele>17.4</ele>
        <time>2022-05-24 19:22:46</time>
      </trkpt>
      <trkpt lat="40.81938" lon="0.50461">
        <ele>17.4</ele>
        <time>2022-05-24 19:22:47</time>
      </trkpt>
      <trkpt lat="40.81935" lon="0.50469">
        <ele>17.4</ele>
        <time>2022-05-24 19:22:48</time>
      </trkpt>
      <trkpt lat="40.81932" lon="0.50476">
        <ele>17.4</ele>
        <time>2022-05-24 19:22:49</time>
      </trkpt>
      <trkpt lat="40.81929" lon="0.50483">
        <ele>17.4</ele>
        <time>2022-05-24 19:22:50</time>
      </trkpt>
      <trkpt lat="40.81926" lon="0.5049">
        <ele>17.2</ele>
        <time>2022-05-24 19:22:51</time>
      </trkpt>
      <trkpt lat="40.81923" lon="0.50496">
        <ele>17.2</ele>
        <time>2022-05-24 19:22:52</time>
      </trkpt>
      <trkpt lat="40.81921" lon="0.50503">
        <ele>17.2</ele>
        <time>2022-05-24 19:22:53</time>
      </trkpt>
      <trkpt lat="40.81918" lon="0.5051">
        <ele>17</ele>
        <time>2022-05-24 19:22:54</time>
      </trkpt>
      <trkpt lat="40.81916" lon="0.50517">
        <ele>17</ele>
        <time>2022-05-24 19:22:55</time>
      </trkpt>
      <trkpt lat="40.81913" lon="0.50524">
        <ele>16.8</ele>
        <time>2022-05-24 19:22:56</time>
      </trkpt>
      <trkpt lat="40.81911" lon="0.50531">
        <ele>16.8</ele>
        <time>2022-05-24 19:22:57</time>
      </trkpt>
      <trkpt lat="40.81908" lon="0.50538">
        <ele>16.8</ele>
        <time>2022-05-24 19:22:58</time>
      </trkpt>
      <trkpt lat="40.81906" lon="0.50544">
        <ele>16.8</ele>
        <time>2022-05-24 19:22:59</time>
      </trkpt>
      <trkpt lat="40.81903" lon="0.5055">
        <ele>16.8</ele>
        <time>2022-05-24 19:23:00</time>
      </trkpt>
      <trkpt lat="40.81901" lon="0.50557">
        <ele>16.8</ele>
        <time>2022-05-24 19:23:01</time>
      </trkpt>
      <trkpt lat="40.81899" lon="0.50563">
        <ele>16.8</ele>
        <time>2022-05-24 19:23:02</time>
      </trkpt>
      <trkpt lat="40.81897" lon="0.50568">
        <ele>16.6</ele>
        <time>2022-05-24 19:23:03</time>
      </trkpt>
      <trkpt lat="40.81895" lon="0.50574">
        <ele>16.6</ele>
        <time>2022-05-24 19:23:04</time>
      </trkpt>
      <trkpt lat="40.81892" lon="0.50579">
        <ele>16.6</ele>
        <time>2022-05-24 19:23:05</time>
      </trkpt>
      <trkpt lat="40.8189" lon="0.50586">
        <ele>16.6</ele>
        <time>2022-05-24 19:23:06</time>
      </trkpt>
      <trkpt lat="40.81887" lon="0.5059">
        <ele>16.6</ele>
        <time>2022-05-24 19:23:07</time>
      </trkpt>
      <trkpt lat="40.81886" lon="0.50596">
        <ele>16.6</ele>
        <time>2022-05-24 19:23:08</time>
      </trkpt>
      <trkpt lat="40.81883" lon="0.50601">
        <ele>16.6</ele>
        <time>2022-05-24 19:23:09</time>
      </trkpt>
      <trkpt lat="40.81881" lon="0.50606">
        <ele>16.6</ele>
        <time>2022-05-24 19:23:10</time>
      </trkpt>
      <trkpt lat="40.81879" lon="0.50611">
        <ele>16.6</ele>
        <time>2022-05-24 19:23:11</time>
      </trkpt>
      <trkpt lat="40.81878" lon="0.50617">
        <ele>16.6</ele>
        <time>2022-05-24 19:23:12</time>
      </trkpt>
      <trkpt lat="40.81876" lon="0.50622">
        <ele>16.6</ele>
        <time>2022-05-24 19:23:13</time>
      </trkpt>
      <trkpt lat="40.81875" lon="0.50626">
        <ele>16.6</ele>
        <time>2022-05-24 19:23:14</time>
      </trkpt>
      <trkpt lat="40.81874" lon="0.5063">
        <ele>16.6</ele>
        <time>2022-05-24 19:23:15</time>
      </trkpt>
      <trkpt lat="40.81873" lon="0.50633">
        <ele>16.8</ele>
        <time>2022-05-24 19:23:16</time>
      </trkpt>
      <trkpt lat="40.81873" lon="0.50636">
        <ele>16.8</ele>
        <time>2022-05-24 19:23:17</time>
      </trkpt>
      <trkpt lat="40.81873" lon="0.50638">
        <ele>16.8</ele>
        <time>2022-05-24 19:23:18</time>
      </trkpt>
      <trkpt lat="40.81872" lon="0.5064">
        <ele>16.8</ele>
        <time>2022-05-24 19:23:19</time>
      </trkpt>
      <trkpt lat="40.81871" lon="0.50643">
        <ele>17</ele>
        <time>2022-05-24 19:23:20</time>
      </trkpt>
      <trkpt lat="40.81871" lon="0.50646">
        <ele>17</ele>
        <time>2022-05-24 19:23:21</time>
      </trkpt>
      <trkpt lat="40.8187" lon="0.50649">
        <ele>16.8</ele>
        <time>2022-05-24 19:23:22</time>
      </trkpt>
      <trkpt lat="40.81868" lon="0.50652">
        <ele>16.8</ele>
        <time>2022-05-24 19:23:23</time>
      </trkpt>
      <trkpt lat="40.81867" lon="0.50655">
        <ele>16.8</ele>
        <time>2022-05-24 19:23:24</time>
      </trkpt>
      <trkpt lat="40.81866" lon="0.5066">
        <ele>16.8</ele>
        <time>2022-05-24 19:23:25</time>
      </trkpt>
      <trkpt lat="40.81865" lon="0.50665">
        <ele>16.8</ele>
        <time>2022-05-24 19:23:26</time>
      </trkpt>
      <trkpt lat="40.81863" lon="0.50671">
        <ele>16.8</ele>
        <time>2022-05-24 19:23:27</time>
      </trkpt>
      <trkpt lat="40.81861" lon="0.50675">
        <ele>16.6</ele>
        <time>2022-05-24 19:23:28</time>
      </trkpt>
      <trkpt lat="40.81859" lon="0.50682">
        <ele>16.6</ele>
        <time>2022-05-24 19:23:29</time>
      </trkpt>
      <trkpt lat="40.81857" lon="0.50688">
        <ele>16.6</ele>
        <time>2022-05-24 19:23:30</time>
      </trkpt>
      <trkpt lat="40.81855" lon="0.50694">
        <ele>16.8</ele>
        <time>2022-05-24 19:23:31</time>
      </trkpt>
      <trkpt lat="40.81852" lon="0.50699">
        <ele>16.8</ele>
        <time>2022-05-24 19:23:32</time>
      </trkpt>
      <trkpt lat="40.8185" lon="0.50706">
        <ele>16.6</ele>
        <time>2022-05-24 19:23:33</time>
      </trkpt>
      <trkpt lat="40.81847" lon="0.50712">
        <ele>16.6</ele>
        <time>2022-05-24 19:23:34</time>
      </trkpt>
      <trkpt lat="40.81844" lon="0.50719">
        <ele>16.6</ele>
        <time>2022-05-24 19:23:35</time>
      </trkpt>
      <trkpt lat="40.81841" lon="0.50725">
        <ele>16.6</ele>
        <time>2022-05-24 19:23:36</time>
      </trkpt>
      <trkpt lat="40.81838" lon="0.5073">
        <ele>16.6</ele>
        <time>2022-05-24 19:23:37</time>
      </trkpt>
      <trkpt lat="40.81836" lon="0.50736">
        <ele>16.6</ele>
        <time>2022-05-24 19:23:38</time>
      </trkpt>
      <trkpt lat="40.81833" lon="0.50741">
        <ele>16.6</ele>
        <time>2022-05-24 19:23:39</time>
      </trkpt>
      <trkpt lat="40.81831" lon="0.50747">
        <ele>16.6</ele>
        <time>2022-05-24 19:23:40</time>
      </trkpt>
      <trkpt lat="40.81828" lon="0.50752">
        <ele>16.6</ele>
        <time>2022-05-24 19:23:41</time>
      </trkpt>
      <trkpt lat="40.81826" lon="0.50758">
        <ele>16.6</ele>
        <time>2022-05-24 19:23:42</time>
      </trkpt>
      <trkpt lat="40.81823" lon="0.50763">
        <ele>16.4</ele>
        <time>2022-05-24 19:23:43</time>
      </trkpt>
      <trkpt lat="40.81821" lon="0.50769">
        <ele>16.4</ele>
        <time>2022-05-24 19:23:44</time>
      </trkpt>
      <trkpt lat="40.81819" lon="0.50775">
        <ele>16.4</ele>
        <time>2022-05-24 19:23:45</time>
      </trkpt>
      <trkpt lat="40.81817" lon="0.5078">
        <ele>16.6</ele>
        <time>2022-05-24 19:23:46</time>
      </trkpt>
      <trkpt lat="40.81816" lon="0.50784">
        <ele>16.8</ele>
        <time>2022-05-24 19:23:47</time>
      </trkpt>
      <trkpt lat="40.81815" lon="0.50787">
        <ele>16.8</ele>
        <time>2022-05-24 19:23:48</time>
      </trkpt>
      <trkpt lat="40.81814" lon="0.5079">
        <ele>17</ele>
        <time>2022-05-24 19:23:49</time>
      </trkpt>
      <trkpt lat="40.81813" lon="0.50793">
        <ele>17</ele>
        <time>2022-05-24 19:23:50</time>
      </trkpt>
      <trkpt lat="40.81812" lon="0.50796">
        <ele>17</ele>
        <time>2022-05-24 19:23:51</time>
      </trkpt>
      <trkpt lat="40.8181" lon="0.50799">
        <ele>17</ele>
        <time>2022-05-24 19:23:52</time>
      </trkpt>
      <trkpt lat="40.81809" lon="0.50803">
        <ele>16.8</ele>
        <time>2022-05-24 19:23:53</time>
      </trkpt>
      <trkpt lat="40.81807" lon="0.50807">
        <ele>16.8</ele>
        <time>2022-05-24 19:23:54</time>
      </trkpt>
      <trkpt lat="40.81805" lon="0.50811">
        <ele>16.8</ele>
        <time>2022-05-24 19:23:55</time>
      </trkpt>
      <trkpt lat="40.81804" lon="0.50815">
        <ele>16.8</ele>
        <time>2022-05-24 19:23:56</time>
      </trkpt>
      <trkpt lat="40.81802" lon="0.5082">
        <ele>16.8</ele>
        <time>2022-05-24 19:23:57</time>
      </trkpt>
      <trkpt lat="40.818" lon="0.50824">
        <ele>16.8</ele>
        <time>2022-05-24 19:23:58</time>
      </trkpt>
      <trkpt lat="40.81798" lon="0.50829">
        <ele>16.8</ele>
        <time>2022-05-24 19:23:59</time>
      </trkpt>
      <trkpt lat="40.81796" lon="0.50834">
        <ele>16.8</ele>
        <time>2022-05-24 19:24:00</time>
      </trkpt>
      <trkpt lat="40.81794" lon="0.50839">
        <ele>16.8</ele>
        <time>2022-05-24 19:24:01</time>
      </trkpt>
      <trkpt lat="40.81792" lon="0.50844">
        <ele>16.8</ele>
        <time>2022-05-24 19:24:02</time>
      </trkpt>
      <trkpt lat="40.8179" lon="0.50849">
        <ele>16.6</ele>
        <time>2022-05-24 19:24:03</time>
      </trkpt>
      <trkpt lat="40.81787" lon="0.50854">
        <ele>16.6</ele>
        <time>2022-05-24 19:24:04</time>
      </trkpt>
      <trkpt lat="40.81784" lon="0.50859">
        <ele>16.6</ele>
        <time>2022-05-24 19:24:05</time>
      </trkpt>
      <trkpt lat="40.81782" lon="0.50864">
        <ele>16.6</ele>
        <time>2022-05-24 19:24:06</time>
      </trkpt>
      <trkpt lat="40.81779" lon="0.50869">
        <ele>16.6</ele>
        <time>2022-05-24 19:24:07</time>
      </trkpt>
      <trkpt lat="40.81776" lon="0.50873">
        <ele>16.6</ele>
        <time>2022-05-24 19:24:08</time>
      </trkpt>
      <trkpt lat="40.81773" lon="0.50876">
        <ele>16.8</ele>
        <time>2022-05-24 19:24:09</time>
      </trkpt>
      <trkpt lat="40.8177" lon="0.5088">
        <ele>16.8</ele>
        <time>2022-05-24 19:24:10</time>
      </trkpt>
      <trkpt lat="40.81767" lon="0.50884">
        <ele>16.8</ele>
        <time>2022-05-24 19:24:11</time>
      </trkpt>
      <trkpt lat="40.81765" lon="0.50889">
        <ele>16.8</ele>
        <time>2022-05-24 19:24:12</time>
      </trkpt>
      <trkpt lat="40.81762" lon="0.50894">
        <ele>16.8</ele>
        <time>2022-05-24 19:24:13</time>
      </trkpt>
      <trkpt lat="40.81761" lon="0.509">
        <ele>16.8</ele>
        <time>2022-05-24 19:24:14</time>
      </trkpt>
      <trkpt lat="40.8176" lon="0.50905">
        <ele>16.8</ele>
        <time>2022-05-24 19:24:15</time>
      </trkpt>
      <trkpt lat="40.81759" lon="0.50913">
        <ele>16.8</ele>
        <time>2022-05-24 19:24:16</time>
      </trkpt>
      <trkpt lat="40.81758" lon="0.50919">
        <ele>16.6</ele>
        <time>2022-05-24 19:24:17</time>
      </trkpt>
      <trkpt lat="40.81758" lon="0.50926">
        <ele>16.6</ele>
        <time>2022-05-24 19:24:18</time>
      </trkpt>
      <trkpt lat="40.81756" lon="0.50933">
        <ele>16.6</ele>
        <time>2022-05-24 19:24:19</time>
      </trkpt>
      <trkpt lat="40.81754" lon="0.5094">
        <ele>16.6</ele>
        <time>2022-05-24 19:24:20</time>
      </trkpt>
      <trkpt lat="40.81752" lon="0.50946">
        <ele>16.6</ele>
        <time>2022-05-24 19:24:21</time>
      </trkpt>
      <trkpt lat="40.8175" lon="0.50952">
        <ele>16.4</ele>
        <time>2022-05-24 19:24:22</time>
      </trkpt>
      <trkpt lat="40.81747" lon="0.50958">
        <ele>16.4</ele>
        <time>2022-05-24 19:24:23</time>
      </trkpt>
      <trkpt lat="40.81745" lon="0.50963">
        <ele>16.4</ele>
        <time>2022-05-24 19:24:24</time>
      </trkpt>
      <trkpt lat="40.81742" lon="0.5097">
        <ele>16.4</ele>
        <time>2022-05-24 19:24:25</time>
      </trkpt>
      <trkpt lat="40.8174" lon="0.50976">
        <ele>16.4</ele>
        <time>2022-05-24 19:24:26</time>
      </trkpt>
      <trkpt lat="40.81738" lon="0.50982">
        <ele>16.6</ele>
        <time>2022-05-24 19:24:27</time>
      </trkpt>
      <trkpt lat="40.81736" lon="0.50988">
        <ele>16.6</ele>
        <time>2022-05-24 19:24:28</time>
      </trkpt>
      <trkpt lat="40.81733" lon="0.50993">
        <ele>16.6</ele>
        <time>2022-05-24 19:24:29</time>
      </trkpt>
      <trkpt lat="40.81731" lon="0.50999">
        <ele>16.6</ele>
        <time>2022-05-24 19:24:30</time>
      </trkpt>
      <trkpt lat="40.81729" lon="0.51005">
        <ele>16.6</ele>
        <time>2022-05-24 19:24:31</time>
      </trkpt>
      <trkpt lat="40.81727" lon="0.51011">
        <ele>16.6</ele>
        <time>2022-05-24 19:24:32</time>
      </trkpt>
      <trkpt lat="40.81725" lon="0.51017">
        <ele>16.6</ele>
        <time>2022-05-24 19:24:33</time>
      </trkpt>
      <trkpt lat="40.81723" lon="0.51023">
        <ele>16.6</ele>
        <time>2022-05-24 19:24:34</time>
      </trkpt>
      <trkpt lat="40.81721" lon="0.51029">
        <ele>16.6</ele>
        <time>2022-05-24 19:24:35</time>
      </trkpt>
      <trkpt lat="40.81718" lon="0.51035">
        <ele>16.6</ele>
        <time>2022-05-24 19:24:36</time>
      </trkpt>
      <trkpt lat="40.81716" lon="0.51041">
        <ele>16.8</ele>
        <time>2022-05-24 19:24:37</time>
      </trkpt>
      <trkpt lat="40.81714" lon="0.51047">
        <ele>16.8</ele>
        <time>2022-05-24 19:24:38</time>
      </trkpt>
      <trkpt lat="40.81712" lon="0.51052">
        <ele>16.8</ele>
        <time>2022-05-24 19:24:39</time>
      </trkpt>
      <trkpt lat="40.8171" lon="0.51059">
        <ele>16.8</ele>
        <time>2022-05-24 19:24:40</time>
      </trkpt>
      <trkpt lat="40.81708" lon="0.51065">
        <ele>16.8</ele>
        <time>2022-05-24 19:24:41</time>
      </trkpt>
      <trkpt lat="40.81705" lon="0.5107">
        <ele>16.8</ele>
        <time>2022-05-24 19:24:42</time>
      </trkpt>
      <trkpt lat="40.81704" lon="0.51076">
        <ele>17</ele>
        <time>2022-05-24 19:24:43</time>
      </trkpt>
      <trkpt lat="40.81701" lon="0.51082">
        <ele>17</ele>
        <time>2022-05-24 19:24:44</time>
      </trkpt>
      <trkpt lat="40.81699" lon="0.51087">
        <ele>17</ele>
        <time>2022-05-24 19:24:45</time>
      </trkpt>
      <trkpt lat="40.81697" lon="0.51093">
        <ele>17</ele>
        <time>2022-05-24 19:24:46</time>
      </trkpt>
      <trkpt lat="40.81695" lon="0.51099">
        <ele>17</ele>
        <time>2022-05-24 19:24:47</time>
      </trkpt>
      <trkpt lat="40.81693" lon="0.51105">
        <ele>17</ele>
        <time>2022-05-24 19:24:48</time>
      </trkpt>
      <trkpt lat="40.81691" lon="0.5111">
        <ele>17</ele>
        <time>2022-05-24 19:24:49</time>
      </trkpt>
      <trkpt lat="40.81689" lon="0.51116">
        <ele>17</ele>
        <time>2022-05-24 19:24:50</time>
      </trkpt>
      <trkpt lat="40.81687" lon="0.51122">
        <ele>17</ele>
        <time>2022-05-24 19:24:51</time>
      </trkpt>
      <trkpt lat="40.81684" lon="0.51127">
        <ele>17</ele>
        <time>2022-05-24 19:24:52</time>
      </trkpt>
      <trkpt lat="40.81682" lon="0.51133">
        <ele>16.8</ele>
        <time>2022-05-24 19:24:53</time>
      </trkpt>
      <trkpt lat="40.8168" lon="0.51139">
        <ele>16.8</ele>
        <time>2022-05-24 19:24:54</time>
      </trkpt>
      <trkpt lat="40.81678" lon="0.51144">
        <ele>17</ele>
        <time>2022-05-24 19:24:55</time>
      </trkpt>
      <trkpt lat="40.81676" lon="0.5115">
        <ele>17</ele>
        <time>2022-05-24 19:24:56</time>
      </trkpt>
      <trkpt lat="40.81674" lon="0.51155">
        <ele>17.2</ele>
        <time>2022-05-24 19:24:57</time>
      </trkpt>
      <trkpt lat="40.81672" lon="0.51161">
        <ele>17.2</ele>
        <time>2022-05-24 19:24:58</time>
      </trkpt>
      <trkpt lat="40.8167" lon="0.51166">
        <ele>17.2</ele>
        <time>2022-05-24 19:24:59</time>
      </trkpt>
      <trkpt lat="40.81668" lon="0.51171">
        <ele>17.2</ele>
        <time>2022-05-24 19:25:00</time>
      </trkpt>
      <trkpt lat="40.81667" lon="0.51176">
        <ele>17.2</ele>
        <time>2022-05-24 19:25:01</time>
      </trkpt>
      <trkpt lat="40.81665" lon="0.51181">
        <ele>17</ele>
        <time>2022-05-24 19:25:02</time>
      </trkpt>
      <trkpt lat="40.81663" lon="0.51185">
        <ele>17</ele>
        <time>2022-05-24 19:25:03</time>
      </trkpt>
      <trkpt lat="40.81661" lon="0.5119">
        <ele>17.2</ele>
        <time>2022-05-24 19:25:04</time>
      </trkpt>
      <trkpt lat="40.81659" lon="0.51194">
        <ele>17.2</ele>
        <time>2022-05-24 19:25:05</time>
      </trkpt>
      <trkpt lat="40.81658" lon="0.51199">
        <ele>17.4</ele>
        <time>2022-05-24 19:25:06</time>
      </trkpt>
      <trkpt lat="40.81657" lon="0.51203">
        <ele>17.4</ele>
        <time>2022-05-24 19:25:07</time>
      </trkpt>
      <trkpt lat="40.81657" lon="0.51207">
        <ele>17.6</ele>
        <time>2022-05-24 19:25:08</time>
      </trkpt>
      <trkpt lat="40.81655" lon="0.51212">
        <ele>17.6</ele>
        <time>2022-05-24 19:25:09</time>
      </trkpt>
      <trkpt lat="40.81654" lon="0.51216">
        <ele>17.6</ele>
        <time>2022-05-24 19:25:10</time>
      </trkpt>
      <trkpt lat="40.81653" lon="0.5122">
        <ele>17.4</ele>
        <time>2022-05-24 19:25:11</time>
      </trkpt>
      <trkpt lat="40.81652" lon="0.51224">
        <ele>17.4</ele>
        <time>2022-05-24 19:25:12</time>
      </trkpt>
      <trkpt lat="40.81651" lon="0.51229">
        <ele>17.2</ele>
        <time>2022-05-24 19:25:13</time>
      </trkpt>
      <trkpt lat="40.81649" lon="0.51232">
        <ele>17.2</ele>
        <time>2022-05-24 19:25:14</time>
      </trkpt>
      <trkpt lat="40.81648" lon="0.51236">
        <ele>17.4</ele>
        <time>2022-05-24 19:25:15</time>
      </trkpt>
      <trkpt lat="40.81647" lon="0.51239">
        <ele>17.4</ele>
        <time>2022-05-24 19:25:16</time>
      </trkpt>
      <trkpt lat="40.81647" lon="0.51241">
        <ele>17.4</ele>
        <time>2022-05-24 19:25:17</time>
      </trkpt>
      <trkpt lat="40.81647" lon="0.51243">
        <ele>18</ele>
        <time>2022-05-24 19:25:54</time>
      </trkpt>
      <trkpt lat="40.81647" lon="0.51246">
        <ele>18</ele>
        <time>2022-05-24 19:25:55</time>
      </trkpt>
      <trkpt lat="40.81647" lon="0.51248">
        <ele>18</ele>
        <time>2022-05-24 19:25:56</time>
      </trkpt>
      <trkpt lat="40.81647" lon="0.5125">
        <ele>18</ele>
        <time>2022-05-24 19:25:57</time>
      </trkpt>
      <trkpt lat="40.81647" lon="0.51252">
        <ele>17.8</ele>
        <time>2022-05-24 19:25:58</time>
      </trkpt>
      <trkpt lat="40.81646" lon="0.51256">
        <ele>17.8</ele>
        <time>2022-05-24 19:25:59</time>
      </trkpt>
      <trkpt lat="40.81644" lon="0.51259">
        <ele>17.6</ele>
        <time>2022-05-24 19:26:00</time>
      </trkpt>
      <trkpt lat="40.81643" lon="0.51263">
        <ele>17.6</ele>
        <time>2022-05-24 19:26:01</time>
      </trkpt>
      <trkpt lat="40.81642" lon="0.51266">
        <ele>17.6</ele>
        <time>2022-05-24 19:26:02</time>
      </trkpt>
      <trkpt lat="40.81642" lon="0.51269">
        <ele>17.6</ele>
        <time>2022-05-24 19:26:03</time>
      </trkpt>
      <trkpt lat="40.81641" lon="0.51271">
        <ele>17.6</ele>
        <time>2022-05-24 19:26:04</time>
      </trkpt>
      <trkpt lat="40.8164" lon="0.51273">
        <ele>17.6</ele>
        <time>2022-05-24 19:26:05</time>
      </trkpt>
      <trkpt lat="40.81638" lon="0.51274">
        <ele>17.6</ele>
        <time>2022-05-24 19:26:06</time>
      </trkpt>
      <trkpt lat="40.81636" lon="0.51276">
        <ele>17.6</ele>
        <time>2022-05-24 19:26:07</time>
      </trkpt>
      <trkpt lat="40.81633" lon="0.51277">
        <ele>17.6</ele>
        <time>2022-05-24 19:26:08</time>
      </trkpt>
      <trkpt lat="40.8163" lon="0.51279">
        <ele>17.4</ele>
        <time>2022-05-24 19:26:09</time>
      </trkpt>
      <trkpt lat="40.81626" lon="0.51281">
        <ele>17.4</ele>
        <time>2022-05-24 19:26:10</time>
      </trkpt>
      <trkpt lat="40.81622" lon="0.51283">
        <ele>17.4</ele>
        <time>2022-05-24 19:26:11</time>
      </trkpt>
      <trkpt lat="40.81619" lon="0.51284">
        <ele>17.2</ele>
        <time>2022-05-24 19:26:12</time>
      </trkpt>
      <trkpt lat="40.81616" lon="0.51286">
        <ele>17.2</ele>
        <time>2022-05-24 19:26:13</time>
      </trkpt>
      <trkpt lat="40.81612" lon="0.51287">
        <ele>17.2</ele>
        <time>2022-05-24 19:26:14</time>
      </trkpt>
      <trkpt lat="40.81608" lon="0.51286">
        <ele>17</ele>
        <time>2022-05-24 19:26:15</time>
      </trkpt>
      <trkpt lat="40.81604" lon="0.51285">
        <ele>17</ele>
        <time>2022-05-24 19:26:16</time>
      </trkpt>
      <trkpt lat="40.81599" lon="0.51284">
        <ele>17</ele>
        <time>2022-05-24 19:26:17</time>
      </trkpt>
      <trkpt lat="40.81595" lon="0.51283">
        <ele>17</ele>
        <time>2022-05-24 19:26:18</time>
      </trkpt>
      <trkpt lat="40.8159" lon="0.51283">
        <ele>17</ele>
        <time>2022-05-24 19:26:19</time>
      </trkpt>
      <trkpt lat="40.81586" lon="0.51281">
        <ele>17</ele>
        <time>2022-05-24 19:26:20</time>
      </trkpt>
      <trkpt lat="40.81581" lon="0.5128">
        <ele>16.8</ele>
        <time>2022-05-24 19:26:21</time>
      </trkpt>
      <trkpt lat="40.81576" lon="0.51278">
        <ele>16.8</ele>
        <time>2022-05-24 19:26:22</time>
      </trkpt>
      <trkpt lat="40.8157" lon="0.51276">
        <ele>16.8</ele>
        <time>2022-05-24 19:26:23</time>
      </trkpt>
      <trkpt lat="40.81565" lon="0.51273">
        <ele>16.6</ele>
        <time>2022-05-24 19:26:24</time>
      </trkpt>
      <trkpt lat="40.8156" lon="0.51271">
        <ele>16.6</ele>
        <time>2022-05-24 19:26:25</time>
      </trkpt>
      <trkpt lat="40.81553" lon="0.51268">
        <ele>16.6</ele>
        <time>2022-05-24 19:26:26</time>
      </trkpt>
      <trkpt lat="40.81548" lon="0.51266">
        <ele>16.6</ele>
        <time>2022-05-24 19:26:27</time>
      </trkpt>
      <trkpt lat="40.81543" lon="0.51264">
        <ele>16.6</ele>
        <time>2022-05-24 19:26:28</time>
      </trkpt>
      <trkpt lat="40.81538" lon="0.51262">
        <ele>16.6</ele>
        <time>2022-05-24 19:26:29</time>
      </trkpt>
      <trkpt lat="40.81533" lon="0.51259">
        <ele>16.6</ele>
        <time>2022-05-24 19:26:30</time>
      </trkpt>
      <trkpt lat="40.81528" lon="0.51256">
        <ele>16.6</ele>
        <time>2022-05-24 19:26:31</time>
      </trkpt>
      <trkpt lat="40.81523" lon="0.51253">
        <ele>16.6</ele>
        <time>2022-05-24 19:26:32</time>
      </trkpt>
      <trkpt lat="40.81518" lon="0.51251">
        <ele>16.4</ele>
        <time>2022-05-24 19:26:33</time>
      </trkpt>
      <trkpt lat="40.81512" lon="0.51249">
        <ele>16.4</ele>
        <time>2022-05-24 19:26:34</time>
      </trkpt>
      <trkpt lat="40.81507" lon="0.51247">
        <ele>16.4</ele>
        <time>2022-05-24 19:26:35</time>
      </trkpt>
      <trkpt lat="40.81501" lon="0.51245">
        <ele>16.2</ele>
        <time>2022-05-24 19:26:36</time>
      </trkpt>
      <trkpt lat="40.81495" lon="0.51243">
        <ele>16.2</ele>
        <time>2022-05-24 19:26:37</time>
      </trkpt>
      <trkpt lat="40.8149" lon="0.5124">
        <ele>16.2</ele>
        <time>2022-05-24 19:26:38</time>
      </trkpt>
      <trkpt lat="40.81484" lon="0.51238">
        <ele>16.2</ele>
        <time>2022-05-24 19:26:39</time>
      </trkpt>
      <trkpt lat="40.81478" lon="0.51235">
        <ele>16.2</ele>
        <time>2022-05-24 19:26:40</time>
      </trkpt>
      <trkpt lat="40.81473" lon="0.51233">
        <ele>16.2</ele>
        <time>2022-05-24 19:26:41</time>
      </trkpt>
      <trkpt lat="40.81467" lon="0.5123">
        <ele>16.2</ele>
        <time>2022-05-24 19:26:42</time>
      </trkpt>
      <trkpt lat="40.81461" lon="0.51227">
        <ele>16.2</ele>
        <time>2022-05-24 19:26:43</time>
      </trkpt>
      <trkpt lat="40.81456" lon="0.51225">
        <ele>16.2</ele>
        <time>2022-05-24 19:26:44</time>
      </trkpt>
      <trkpt lat="40.8145" lon="0.51222">
        <ele>16.2</ele>
        <time>2022-05-24 19:26:45</time>
      </trkpt>
      <trkpt lat="40.81443" lon="0.51219">
        <ele>16</ele>
        <time>2022-05-24 19:26:46</time>
      </trkpt>
      <trkpt lat="40.81437" lon="0.51217">
        <ele>16</ele>
        <time>2022-05-24 19:26:47</time>
      </trkpt>
      <trkpt lat="40.81431" lon="0.51214">
        <ele>16</ele>
        <time>2022-05-24 19:26:48</time>
      </trkpt>
      <trkpt lat="40.81425" lon="0.51212">
        <ele>16</ele>
        <time>2022-05-24 19:26:49</time>
      </trkpt>
      <trkpt lat="40.81419" lon="0.51209">
        <ele>16</ele>
        <time>2022-05-24 19:26:50</time>
      </trkpt>
      <trkpt lat="40.81414" lon="0.51206">
        <ele>15.8</ele>
        <time>2022-05-24 19:26:51</time>
      </trkpt>
      <trkpt lat="40.81408" lon="0.51203">
        <ele>15.8</ele>
        <time>2022-05-24 19:26:52</time>
      </trkpt>
      <trkpt lat="40.81402" lon="0.512">
        <ele>15.8</ele>
        <time>2022-05-24 19:26:53</time>
      </trkpt>
      <trkpt lat="40.81396" lon="0.51197">
        <ele>15.8</ele>
        <time>2022-05-24 19:26:54</time>
      </trkpt>
      <trkpt lat="40.8139" lon="0.51194">
        <ele>15.6</ele>
        <time>2022-05-24 19:26:55</time>
      </trkpt>
      <trkpt lat="40.81384" lon="0.51191">
        <ele>15.6</ele>
        <time>2022-05-24 19:26:56</time>
      </trkpt>
      <trkpt lat="40.81379" lon="0.51188">
        <ele>15.6</ele>
        <time>2022-05-24 19:26:57</time>
      </trkpt>
      <trkpt lat="40.81373" lon="0.51184">
        <ele>15.6</ele>
        <time>2022-05-24 19:26:58</time>
      </trkpt>
      <trkpt lat="40.81367" lon="0.51181">
        <ele>15.6</ele>
        <time>2022-05-24 19:26:59</time>
      </trkpt>
      <trkpt lat="40.81361" lon="0.51177">
        <ele>15.6</ele>
        <time>2022-05-24 19:27:00</time>
      </trkpt>
      <trkpt lat="40.81355" lon="0.51174">
        <ele>15.6</ele>
        <time>2022-05-24 19:27:01</time>
      </trkpt>
      <trkpt lat="40.81349" lon="0.51172">
        <ele>15.6</ele>
        <time>2022-05-24 19:27:02</time>
      </trkpt>
      <trkpt lat="40.81343" lon="0.51169">
        <ele>15.8</ele>
        <time>2022-05-24 19:27:03</time>
      </trkpt>
      <trkpt lat="40.81337" lon="0.51166">
        <ele>15.8</ele>
        <time>2022-05-24 19:27:04</time>
      </trkpt>
      <trkpt lat="40.81331" lon="0.51163">
        <ele>15.6</ele>
        <time>2022-05-24 19:27:05</time>
      </trkpt>
      <trkpt lat="40.81325" lon="0.5116">
        <ele>15.6</ele>
        <time>2022-05-24 19:27:06</time>
      </trkpt>
      <trkpt lat="40.81319" lon="0.51157">
        <ele>15.6</ele>
        <time>2022-05-24 19:27:07</time>
      </trkpt>
      <trkpt lat="40.81313" lon="0.51154">
        <ele>15.4</ele>
        <time>2022-05-24 19:27:08</time>
      </trkpt>
      <trkpt lat="40.81308" lon="0.51151">
        <ele>15.4</ele>
        <time>2022-05-24 19:27:09</time>
      </trkpt>
      <trkpt lat="40.81301" lon="0.51149">
        <ele>15.2</ele>
        <time>2022-05-24 19:27:10</time>
      </trkpt>
      <trkpt lat="40.81295" lon="0.51145">
        <ele>15</ele>
        <time>2022-05-24 19:27:11</time>
      </trkpt>
      <trkpt lat="40.81289" lon="0.51142">
        <ele>14.8</ele>
        <time>2022-05-24 19:27:12</time>
      </trkpt>
      <trkpt lat="40.81282" lon="0.51138">
        <ele>14.6</ele>
        <time>2022-05-24 19:27:13</time>
      </trkpt>
      <trkpt lat="40.81276" lon="0.51135">
        <ele>14.4</ele>
        <time>2022-05-24 19:27:14</time>
      </trkpt>
      <trkpt lat="40.81268" lon="0.51131">
        <ele>14</ele>
        <time>2022-05-24 19:27:15</time>
      </trkpt>
      <trkpt lat="40.81261" lon="0.51127">
        <ele>13.6</ele>
        <time>2022-05-24 19:27:16</time>
      </trkpt>
      <trkpt lat="40.81253" lon="0.51123">
        <ele>13.4</ele>
        <time>2022-05-24 19:27:17</time>
      </trkpt>
      <trkpt lat="40.81247" lon="0.5112">
        <ele>13</ele>
        <time>2022-05-24 19:27:18</time>
      </trkpt>
      <trkpt lat="40.81238" lon="0.51116">
        <ele>12.4</ele>
        <time>2022-05-24 19:27:19</time>
      </trkpt>
      <trkpt lat="40.81231" lon="0.51111">
        <ele>12.2</ele>
        <time>2022-05-24 19:27:20</time>
      </trkpt>
      <trkpt lat="40.81223" lon="0.51107">
        <ele>11.8</ele>
        <time>2022-05-24 19:27:21</time>
      </trkpt>
      <trkpt lat="40.81215" lon="0.51103">
        <ele>11.4</ele>
        <time>2022-05-24 19:27:22</time>
      </trkpt>
      <trkpt lat="40.81207" lon="0.51098">
        <ele>11.2</ele>
        <time>2022-05-24 19:27:23</time>
      </trkpt>
      <trkpt lat="40.812" lon="0.51094">
        <ele>11</ele>
        <time>2022-05-24 19:27:24</time>
      </trkpt>
      <trkpt lat="40.81192" lon="0.5109">
        <ele>11</ele>
        <time>2022-05-24 19:27:25</time>
      </trkpt>
      <trkpt lat="40.81186" lon="0.51086">
        <ele>11</ele>
        <time>2022-05-24 19:27:26</time>
      </trkpt>
      <trkpt lat="40.81178" lon="0.51082">
        <ele>11</ele>
        <time>2022-05-24 19:27:27</time>
      </trkpt>
      <trkpt lat="40.81172" lon="0.51078">
        <ele>11</ele>
        <time>2022-05-24 19:27:28</time>
      </trkpt>
      <trkpt lat="40.81165" lon="0.51074">
        <ele>11</ele>
        <time>2022-05-24 19:27:29</time>
      </trkpt>
      <trkpt lat="40.81158" lon="0.51071">
        <ele>11</ele>
        <time>2022-05-24 19:27:30</time>
      </trkpt>
      <trkpt lat="40.81153" lon="0.51067">
        <ele>11</ele>
        <time>2022-05-24 19:27:31</time>
      </trkpt>
      <trkpt lat="40.81147" lon="0.51064">
        <ele>11</ele>
        <time>2022-05-24 19:27:32</time>
      </trkpt>
      <trkpt lat="40.81142" lon="0.51061">
        <ele>11.2</ele>
        <time>2022-05-24 19:27:33</time>
      </trkpt>
      <trkpt lat="40.81138" lon="0.51058">
        <ele>11.4</ele>
        <time>2022-05-24 19:27:34</time>
      </trkpt>
      <trkpt lat="40.81134" lon="0.51056">
        <ele>11.6</ele>
        <time>2022-05-24 19:27:35</time>
      </trkpt>
      <trkpt lat="40.8113" lon="0.51054">
        <ele>11.8</ele>
        <time>2022-05-24 19:27:36</time>
      </trkpt>
      <trkpt lat="40.81127" lon="0.51052">
        <ele>12.2</ele>
        <time>2022-05-24 19:27:37</time>
      </trkpt>
      <trkpt lat="40.81123" lon="0.5105">
        <ele>12.4</ele>
        <time>2022-05-24 19:27:38</time>
      </trkpt>
      <trkpt lat="40.8112" lon="0.51049">
        <ele>12.6</ele>
        <time>2022-05-24 19:27:39</time>
      </trkpt>
      <trkpt lat="40.81116" lon="0.51047">
        <ele>12.8</ele>
        <time>2022-05-24 19:27:40</time>
      </trkpt>
      <trkpt lat="40.81113" lon="0.51044">
        <ele>13</ele>
        <time>2022-05-24 19:27:41</time>
      </trkpt>
      <trkpt lat="40.8111" lon="0.51041">
        <ele>13.2</ele>
        <time>2022-05-24 19:27:42</time>
      </trkpt>
      <trkpt lat="40.81107" lon="0.51037">
        <ele>13.2</ele>
        <time>2022-05-24 19:27:43</time>
      </trkpt>
      <trkpt lat="40.81105" lon="0.51033">
        <ele>13.4</ele>
        <time>2022-05-24 19:27:44</time>
      </trkpt>
      <trkpt lat="40.81103" lon="0.51028">
        <ele>13.6</ele>
        <time>2022-05-24 19:27:45</time>
      </trkpt>
      <trkpt lat="40.81101" lon="0.51023">
        <ele>13.6</ele>
        <time>2022-05-24 19:27:46</time>
      </trkpt>
      <trkpt lat="40.81099" lon="0.51018">
        <ele>13.8</ele>
        <time>2022-05-24 19:27:47</time>
      </trkpt>
      <trkpt lat="40.81096" lon="0.51014">
        <ele>14</ele>
        <time>2022-05-24 19:27:48</time>
      </trkpt>
      <trkpt lat="40.81094" lon="0.51011">
        <ele>14.2</ele>
        <time>2022-05-24 19:27:49</time>
      </trkpt>
      <trkpt lat="40.81089" lon="0.51008">
        <ele>14.2</ele>
        <time>2022-05-24 19:27:50</time>
      </trkpt>
      <trkpt lat="40.81085" lon="0.51005">
        <ele>14.4</ele>
        <time>2022-05-24 19:27:51</time>
      </trkpt>
      <trkpt lat="40.8108" lon="0.51004">
        <ele>14.4</ele>
        <time>2022-05-24 19:27:52</time>
      </trkpt>
      <trkpt lat="40.81076" lon="0.51003">
        <ele>14.4</ele>
        <time>2022-05-24 19:27:53</time>
      </trkpt>
      <trkpt lat="40.81071" lon="0.51003">
        <ele>14.4</ele>
        <time>2022-05-24 19:27:54</time>
      </trkpt>
      <trkpt lat="40.81065" lon="0.51003">
        <ele>14.6</ele>
        <time>2022-05-24 19:27:55</time>
      </trkpt>
      <trkpt lat="40.8106" lon="0.51002">
        <ele>14.6</ele>
        <time>2022-05-24 19:27:56</time>
      </trkpt>
      <trkpt lat="40.81054" lon="0.50999">
        <ele>14.6</ele>
        <time>2022-05-24 19:27:57</time>
      </trkpt>
      <trkpt lat="40.8105" lon="0.50996">
        <ele>14.6</ele>
        <time>2022-05-24 19:27:58</time>
      </trkpt>
      <trkpt lat="40.81045" lon="0.50993">
        <ele>14.6</ele>
        <time>2022-05-24 19:27:59</time>
      </trkpt>
      <trkpt lat="40.8104" lon="0.50989">
        <ele>14.6</ele>
        <time>2022-05-24 19:28:00</time>
      </trkpt>
      <trkpt lat="40.81035" lon="0.50985">
        <ele>14.6</ele>
        <time>2022-05-24 19:28:01</time>
      </trkpt>
      <trkpt lat="40.81031" lon="0.50981">
        <ele>14.6</ele>
        <time>2022-05-24 19:28:02</time>
      </trkpt>
      <trkpt lat="40.81026" lon="0.50978">
        <ele>14.6</ele>
        <time>2022-05-24 19:28:03</time>
      </trkpt>
      <trkpt lat="40.81022" lon="0.50974">
        <ele>14.6</ele>
        <time>2022-05-24 19:28:04</time>
      </trkpt>
      <trkpt lat="40.81017" lon="0.5097">
        <ele>14.6</ele>
        <time>2022-05-24 19:28:05</time>
      </trkpt>
      <trkpt lat="40.81012" lon="0.50966">
        <ele>14.6</ele>
        <time>2022-05-24 19:28:06</time>
      </trkpt>
      <trkpt lat="40.81008" lon="0.50962">
        <ele>14.6</ele>
        <time>2022-05-24 19:28:07</time>
      </trkpt>
      <trkpt lat="40.81003" lon="0.50958">
        <ele>14.4</ele>
        <time>2022-05-24 19:28:08</time>
      </trkpt>
      <trkpt lat="40.80998" lon="0.50954">
        <ele>14.4</ele>
        <time>2022-05-24 19:28:09</time>
      </trkpt>
      <trkpt lat="40.80993" lon="0.5095">
        <ele>14.4</ele>
        <time>2022-05-24 19:28:10</time>
      </trkpt>
      <trkpt lat="40.80988" lon="0.50946">
        <ele>14.4</ele>
        <time>2022-05-24 19:28:11</time>
      </trkpt>
      <trkpt lat="40.80983" lon="0.50942">
        <ele>14.4</ele>
        <time>2022-05-24 19:28:12</time>
      </trkpt>
      <trkpt lat="40.80978" lon="0.50938">
        <ele>14.2</ele>
        <time>2022-05-24 19:28:13</time>
      </trkpt>
      <trkpt lat="40.80973" lon="0.50934">
        <ele>14.2</ele>
        <time>2022-05-24 19:28:14</time>
      </trkpt>
      <trkpt lat="40.80968" lon="0.5093">
        <ele>14.2</ele>
        <time>2022-05-24 19:28:15</time>
      </trkpt>
      <trkpt lat="40.80963" lon="0.50926">
        <ele>14.2</ele>
        <time>2022-05-24 19:28:16</time>
      </trkpt>
      <trkpt lat="40.80958" lon="0.50922">
        <ele>14.2</ele>
        <time>2022-05-24 19:28:17</time>
      </trkpt>
      <trkpt lat="40.80953" lon="0.50918">
        <ele>14.2</ele>
        <time>2022-05-24 19:28:18</time>
      </trkpt>
      <trkpt lat="40.80949" lon="0.50915">
        <ele>14.2</ele>
        <time>2022-05-24 19:28:19</time>
      </trkpt>
      <trkpt lat="40.80943" lon="0.50911">
        <ele>14</ele>
        <time>2022-05-24 19:28:20</time>
      </trkpt>
      <trkpt lat="40.80938" lon="0.50907">
        <ele>14</ele>
        <time>2022-05-24 19:28:21</time>
      </trkpt>
      <trkpt lat="40.80933" lon="0.50903">
        <ele>14</ele>
        <time>2022-05-24 19:28:22</time>
      </trkpt>
      <trkpt lat="40.80928" lon="0.50899">
        <ele>14</ele>
        <time>2022-05-24 19:28:23</time>
      </trkpt>
      <trkpt lat="40.80922" lon="0.50896">
        <ele>14</ele>
        <time>2022-05-24 19:28:24</time>
      </trkpt>
      <trkpt lat="40.80917" lon="0.50892">
        <ele>14</ele>
        <time>2022-05-24 19:28:25</time>
      </trkpt>
      <trkpt lat="40.80912" lon="0.50888">
        <ele>14</ele>
        <time>2022-05-24 19:28:26</time>
      </trkpt>
      <trkpt lat="40.80906" lon="0.50883">
        <ele>13.8</ele>
        <time>2022-05-24 19:28:27</time>
      </trkpt>
      <trkpt lat="40.80901" lon="0.50879">
        <ele>13.8</ele>
        <time>2022-05-24 19:28:28</time>
      </trkpt>
      <trkpt lat="40.80896" lon="0.50875">
        <ele>13.6</ele>
        <time>2022-05-24 19:28:29</time>
      </trkpt>
      <trkpt lat="40.8089" lon="0.50871">
        <ele>13.6</ele>
        <time>2022-05-24 19:28:30</time>
      </trkpt>
      <trkpt lat="40.80884" lon="0.50867">
        <ele>13.4</ele>
        <time>2022-05-24 19:28:31</time>
      </trkpt>
      <trkpt lat="40.80878" lon="0.50863">
        <ele>13.4</ele>
        <time>2022-05-24 19:28:32</time>
      </trkpt>
      <trkpt lat="40.80873" lon="0.50858">
        <ele>13.4</ele>
        <time>2022-05-24 19:28:33</time>
      </trkpt>
      <trkpt lat="40.80867" lon="0.50854">
        <ele>13.4</ele>
        <time>2022-05-24 19:28:34</time>
      </trkpt>
      <trkpt lat="40.80861" lon="0.50849">
        <ele>13.2</ele>
        <time>2022-05-24 19:28:35</time>
      </trkpt>
      <trkpt lat="40.80855" lon="0.50845">
        <ele>13.2</ele>
        <time>2022-05-24 19:28:36</time>
      </trkpt>
      <trkpt lat="40.8085" lon="0.5084">
        <ele>13.2</ele>
        <time>2022-05-24 19:28:37</time>
      </trkpt>
      <trkpt lat="40.80844" lon="0.50836">
        <ele>13</ele>
        <time>2022-05-24 19:28:38</time>
      </trkpt>
      <trkpt lat="40.80838" lon="0.50831">
        <ele>13</ele>
        <time>2022-05-24 19:28:39</time>
      </trkpt>
      <trkpt lat="40.80832" lon="0.50826">
        <ele>13</ele>
        <time>2022-05-24 19:28:40</time>
      </trkpt>
      <trkpt lat="40.80827" lon="0.50822">
        <ele>13</ele>
        <time>2022-05-24 19:28:41</time>
      </trkpt>
      <trkpt lat="40.80821" lon="0.50817">
        <ele>12.8</ele>
        <time>2022-05-24 19:28:42</time>
      </trkpt>
      <trkpt lat="40.80815" lon="0.50812">
        <ele>12.8</ele>
        <time>2022-05-24 19:28:43</time>
      </trkpt>
      <trkpt lat="40.80809" lon="0.50807">
        <ele>12.8</ele>
        <time>2022-05-24 19:28:44</time>
      </trkpt>
      <trkpt lat="40.80804" lon="0.50803">
        <ele>12.8</ele>
        <time>2022-05-24 19:28:45</time>
      </trkpt>
      <trkpt lat="40.80798" lon="0.50799">
        <ele>12.8</ele>
        <time>2022-05-24 19:28:46</time>
      </trkpt>
      <trkpt lat="40.80792" lon="0.50794">
        <ele>12.6</ele>
        <time>2022-05-24 19:28:47</time>
      </trkpt>
      <trkpt lat="40.80787" lon="0.50789">
        <ele>12.6</ele>
        <time>2022-05-24 19:28:48</time>
      </trkpt>
      <trkpt lat="40.80781" lon="0.50784">
        <ele>12.6</ele>
        <time>2022-05-24 19:28:49</time>
      </trkpt>
      <trkpt lat="40.80775" lon="0.50779">
        <ele>12.4</ele>
        <time>2022-05-24 19:28:50</time>
      </trkpt>
      <trkpt lat="40.8077" lon="0.50774">
        <ele>12.4</ele>
        <time>2022-05-24 19:28:51</time>
      </trkpt>
      <trkpt lat="40.80764" lon="0.50769">
        <ele>12.4</ele>
        <time>2022-05-24 19:28:52</time>
      </trkpt>
      <trkpt lat="40.80758" lon="0.50764">
        <ele>12.4</ele>
        <time>2022-05-24 19:28:53</time>
      </trkpt>
      <trkpt lat="40.80753" lon="0.50759">
        <ele>12.4</ele>
        <time>2022-05-24 19:28:54</time>
      </trkpt>
      <trkpt lat="40.80748" lon="0.50754">
        <ele>12.4</ele>
        <time>2022-05-24 19:28:55</time>
      </trkpt>
      <trkpt lat="40.80742" lon="0.50749">
        <ele>12.4</ele>
        <time>2022-05-24 19:28:56</time>
      </trkpt>
      <trkpt lat="40.80737" lon="0.50745">
        <ele>12.4</ele>
        <time>2022-05-24 19:28:57</time>
      </trkpt>
      <trkpt lat="40.80731" lon="0.50738">
        <ele>12.4</ele>
        <time>2022-05-24 19:28:58</time>
      </trkpt>
      <trkpt lat="40.80725" lon="0.50733">
        <ele>12.4</ele>
        <time>2022-05-24 19:28:59</time>
      </trkpt>
      <trkpt lat="40.80721" lon="0.50729">
        <ele>12.4</ele>
        <time>2022-05-24 19:29:00</time>
      </trkpt>
      <trkpt lat="40.80715" lon="0.50722">
        <ele>12.2</ele>
        <time>2022-05-24 19:29:01</time>
      </trkpt>
      <trkpt lat="40.80709" lon="0.50717">
        <ele>12.2</ele>
        <time>2022-05-24 19:29:02</time>
      </trkpt>
      <trkpt lat="40.80704" lon="0.50712">
        <ele>12.2</ele>
        <time>2022-05-24 19:29:03</time>
      </trkpt>
      <trkpt lat="40.80699" lon="0.50706">
        <ele>12.2</ele>
        <time>2022-05-24 19:29:04</time>
      </trkpt>
      <trkpt lat="40.80695" lon="0.50701">
        <ele>12.2</ele>
        <time>2022-05-24 19:29:05</time>
      </trkpt>
      <trkpt lat="40.80689" lon="0.50695">
        <ele>12.2</ele>
        <time>2022-05-24 19:29:06</time>
      </trkpt>
      <trkpt lat="40.80684" lon="0.5069">
        <ele>12.2</ele>
        <time>2022-05-24 19:29:07</time>
      </trkpt>
      <trkpt lat="40.8068" lon="0.50685">
        <ele>12.2</ele>
        <time>2022-05-24 19:29:08</time>
      </trkpt>
      <trkpt lat="40.80675" lon="0.5068">
        <ele>12.2</ele>
        <time>2022-05-24 19:29:09</time>
      </trkpt>
      <trkpt lat="40.8067" lon="0.50675">
        <ele>12.2</ele>
        <time>2022-05-24 19:29:10</time>
      </trkpt>
      <trkpt lat="40.80666" lon="0.5067">
        <ele>12.2</ele>
        <time>2022-05-24 19:29:11</time>
      </trkpt>
      <trkpt lat="40.80661" lon="0.50665">
        <ele>12.2</ele>
        <time>2022-05-24 19:29:12</time>
      </trkpt>
      <trkpt lat="40.80656" lon="0.50661">
        <ele>12.2</ele>
        <time>2022-05-24 19:29:13</time>
      </trkpt>
      <trkpt lat="40.80651" lon="0.50656">
        <ele>12</ele>
        <time>2022-05-24 19:29:14</time>
      </trkpt>
      <trkpt lat="40.80646" lon="0.50651">
        <ele>12</ele>
        <time>2022-05-24 19:29:15</time>
      </trkpt>
      <trkpt lat="40.80641" lon="0.50646">
        <ele>12</ele>
        <time>2022-05-24 19:29:16</time>
      </trkpt>
      <trkpt lat="40.80636" lon="0.5064">
        <ele>12</ele>
        <time>2022-05-24 19:29:17</time>
      </trkpt>
      <trkpt lat="40.80631" lon="0.50635">
        <ele>12</ele>
        <time>2022-05-24 19:29:18</time>
      </trkpt>
      <trkpt lat="40.80626" lon="0.5063">
        <ele>12</ele>
        <time>2022-05-24 19:29:19</time>
      </trkpt>
      <trkpt lat="40.80621" lon="0.50624">
        <ele>12</ele>
        <time>2022-05-24 19:29:20</time>
      </trkpt>
      <trkpt lat="40.80617" lon="0.50619">
        <ele>11.8</ele>
        <time>2022-05-24 19:29:21</time>
      </trkpt>
      <trkpt lat="40.80613" lon="0.50613">
        <ele>11.8</ele>
        <time>2022-05-24 19:29:22</time>
      </trkpt>
      <trkpt lat="40.8061" lon="0.50606">
        <ele>11.6</ele>
        <time>2022-05-24 19:29:23</time>
      </trkpt>
      <trkpt lat="40.80608" lon="0.50599">
        <ele>11.6</ele>
        <time>2022-05-24 19:29:24</time>
      </trkpt>
      <trkpt lat="40.80606" lon="0.50591">
        <ele>11.4</ele>
        <time>2022-05-24 19:29:25</time>
      </trkpt>
      <trkpt lat="40.80604" lon="0.50583">
        <ele>11.4</ele>
        <time>2022-05-24 19:29:26</time>
      </trkpt>
      <trkpt lat="40.80601" lon="0.50575">
        <ele>11.4</ele>
        <time>2022-05-24 19:29:27</time>
      </trkpt>
      <trkpt lat="40.80598" lon="0.50568">
        <ele>11.4</ele>
        <time>2022-05-24 19:29:28</time>
      </trkpt>
      <trkpt lat="40.80593" lon="0.50561">
        <ele>11.4</ele>
        <time>2022-05-24 19:29:29</time>
      </trkpt>
      <trkpt lat="40.80589" lon="0.50555">
        <ele>11.2</ele>
        <time>2022-05-24 19:29:30</time>
      </trkpt>
      <trkpt lat="40.80583" lon="0.50551">
        <ele>11.2</ele>
        <time>2022-05-24 19:29:31</time>
      </trkpt>
      <trkpt lat="40.80577" lon="0.50548">
        <ele>11.4</ele>
        <time>2022-05-24 19:29:32</time>
      </trkpt>
      <trkpt lat="40.80571" lon="0.50547">
        <ele>11.4</ele>
        <time>2022-05-24 19:29:33</time>
      </trkpt>
      <trkpt lat="40.80565" lon="0.50546">
        <ele>11.4</ele>
        <time>2022-05-24 19:29:34</time>
      </trkpt>
      <trkpt lat="40.80559" lon="0.50546">
        <ele>11.4</ele>
        <time>2022-05-24 19:29:35</time>
      </trkpt>
      <trkpt lat="40.80553" lon="0.50547">
        <ele>11.4</ele>
        <time>2022-05-24 19:29:36</time>
      </trkpt>
      <trkpt lat="40.80547" lon="0.50546">
        <ele>11.4</ele>
        <time>2022-05-24 19:29:37</time>
      </trkpt>
      <trkpt lat="40.80542" lon="0.50544">
        <ele>11.4</ele>
        <time>2022-05-24 19:29:38</time>
      </trkpt>
      <trkpt lat="40.80536" lon="0.50542">
        <ele>11.4</ele>
        <time>2022-05-24 19:29:39</time>
      </trkpt>
      <trkpt lat="40.80531" lon="0.50539">
        <ele>11.2</ele>
        <time>2022-05-24 19:29:40</time>
      </trkpt>
      <trkpt lat="40.80526" lon="0.50535">
        <ele>11.2</ele>
        <time>2022-05-24 19:29:41</time>
      </trkpt>
      <trkpt lat="40.8052" lon="0.50531">
        <ele>11</ele>
        <time>2022-05-24 19:29:42</time>
      </trkpt>
      <trkpt lat="40.80515" lon="0.50527">
        <ele>11</ele>
        <time>2022-05-24 19:29:43</time>
      </trkpt>
      <trkpt lat="40.8051" lon="0.50523">
        <ele>11</ele>
        <time>2022-05-24 19:29:44</time>
      </trkpt>
      <trkpt lat="40.80506" lon="0.50518">
        <ele>11</ele>
        <time>2022-05-24 19:29:45</time>
      </trkpt>
      <trkpt lat="40.805" lon="0.50513">
        <ele>11</ele>
        <time>2022-05-24 19:29:46</time>
      </trkpt>
      <trkpt lat="40.80495" lon="0.50509">
        <ele>11</ele>
        <time>2022-05-24 19:29:47</time>
      </trkpt>
      <trkpt lat="40.80491" lon="0.50504">
        <ele>11</ele>
        <time>2022-05-24 19:29:48</time>
      </trkpt>
      <trkpt lat="40.80487" lon="0.505">
        <ele>11.2</ele>
        <time>2022-05-24 19:29:49</time>
      </trkpt>
      <trkpt lat="40.80481" lon="0.50494">
        <ele>11.2</ele>
        <time>2022-05-24 19:29:50</time>
      </trkpt>
      <trkpt lat="40.80477" lon="0.50489">
        <ele>11</ele>
        <time>2022-05-24 19:29:51</time>
      </trkpt>
      <trkpt lat="40.80472" lon="0.50484">
        <ele>11</ele>
        <time>2022-05-24 19:29:52</time>
      </trkpt>
      <trkpt lat="40.80468" lon="0.5048">
        <ele>11</ele>
        <time>2022-05-24 19:29:53</time>
      </trkpt>
      <trkpt lat="40.80463" lon="0.50475">
        <ele>11</ele>
        <time>2022-05-24 19:29:54</time>
      </trkpt>
      <trkpt lat="40.80458" lon="0.5047">
        <ele>11</ele>
        <time>2022-05-24 19:29:55</time>
      </trkpt>
      <trkpt lat="40.80454" lon="0.50466">
        <ele>11</ele>
        <time>2022-05-24 19:29:56</time>
      </trkpt>
      <trkpt lat="40.80449" lon="0.50462">
        <ele>11</ele>
        <time>2022-05-24 19:29:57</time>
      </trkpt>
      <trkpt lat="40.80445" lon="0.50457">
        <ele>11</ele>
        <time>2022-05-24 19:29:58</time>
      </trkpt>
      <trkpt lat="40.8044" lon="0.50452">
        <ele>10.8</ele>
        <time>2022-05-24 19:29:59</time>
      </trkpt>
      <trkpt lat="40.80436" lon="0.50448">
        <ele>11</ele>
        <time>2022-05-24 19:30:00</time>
      </trkpt>
      <trkpt lat="40.80431" lon="0.50444">
        <ele>11</ele>
        <time>2022-05-24 19:30:01</time>
      </trkpt>
      <trkpt lat="40.80426" lon="0.50439">
        <ele>10.8</ele>
        <time>2022-05-24 19:30:02</time>
      </trkpt>
      <trkpt lat="40.80422" lon="0.50435">
        <ele>10.8</ele>
        <time>2022-05-24 19:30:03</time>
      </trkpt>
      <trkpt lat="40.80418" lon="0.5043">
        <ele>10.8</ele>
        <time>2022-05-24 19:30:04</time>
      </trkpt>
      <trkpt lat="40.80413" lon="0.50426">
        <ele>10.8</ele>
        <time>2022-05-24 19:30:05</time>
      </trkpt>
      <trkpt lat="40.80409" lon="0.50421">
        <ele>10.8</ele>
        <time>2022-05-24 19:30:06</time>
      </trkpt>
      <trkpt lat="40.80404" lon="0.50416">
        <ele>10.8</ele>
        <time>2022-05-24 19:30:07</time>
      </trkpt>
      <trkpt lat="40.804" lon="0.50412">
        <ele>10.8</ele>
        <time>2022-05-24 19:30:08</time>
      </trkpt>
      <trkpt lat="40.80395" lon="0.50407">
        <ele>10.8</ele>
        <time>2022-05-24 19:30:09</time>
      </trkpt>
      <trkpt lat="40.80391" lon="0.50403">
        <ele>10.6</ele>
        <time>2022-05-24 19:30:10</time>
      </trkpt>
      <trkpt lat="40.80386" lon="0.50398">
        <ele>10.8</ele>
        <time>2022-05-24 19:30:11</time>
      </trkpt>
      <trkpt lat="40.80381" lon="0.50394">
        <ele>10.8</ele>
        <time>2022-05-24 19:30:12</time>
      </trkpt>
      <trkpt lat="40.80376" lon="0.50389">
        <ele>10.8</ele>
        <time>2022-05-24 19:30:13</time>
      </trkpt>
      <trkpt lat="40.80372" lon="0.50385">
        <ele>10.8</ele>
        <time>2022-05-24 19:30:14</time>
      </trkpt>
      <trkpt lat="40.80367" lon="0.50381">
        <ele>10.8</ele>
        <time>2022-05-24 19:30:15</time>
      </trkpt>
      <trkpt lat="40.80363" lon="0.50377">
        <ele>10.8</ele>
        <time>2022-05-24 19:30:16</time>
      </trkpt>
      <trkpt lat="40.80359" lon="0.50373">
        <ele>10.8</ele>
        <time>2022-05-24 19:30:17</time>
      </trkpt>
      <trkpt lat="40.80354" lon="0.50368">
        <ele>10.8</ele>
        <time>2022-05-24 19:30:18</time>
      </trkpt>
      <trkpt lat="40.80349" lon="0.50363">
        <ele>10.6</ele>
        <time>2022-05-24 19:30:19</time>
      </trkpt>
      <trkpt lat="40.80344" lon="0.50359">
        <ele>10.6</ele>
        <time>2022-05-24 19:30:20</time>
      </trkpt>
      <trkpt lat="40.8034" lon="0.50355">
        <ele>10.6</ele>
        <time>2022-05-24 19:30:21</time>
      </trkpt>
      <trkpt lat="40.80335" lon="0.50351">
        <ele>10.8</ele>
        <time>2022-05-24 19:30:22</time>
      </trkpt>
      <trkpt lat="40.80331" lon="0.50347">
        <ele>10.8</ele>
        <time>2022-05-24 19:30:23</time>
      </trkpt>
      <trkpt lat="40.80326" lon="0.50343">
        <ele>10.8</ele>
        <time>2022-05-24 19:30:24</time>
      </trkpt>
      <trkpt lat="40.80322" lon="0.50338">
        <ele>10.8</ele>
        <time>2022-05-24 19:30:25</time>
      </trkpt>
      <trkpt lat="40.80317" lon="0.50333">
        <ele>10.8</ele>
        <time>2022-05-24 19:30:26</time>
      </trkpt>
      <trkpt lat="40.80312" lon="0.50329">
        <ele>10.6</ele>
        <time>2022-05-24 19:30:27</time>
      </trkpt>
      <trkpt lat="40.80307" lon="0.50324">
        <ele>10.6</ele>
        <time>2022-05-24 19:30:28</time>
      </trkpt>
      <trkpt lat="40.80302" lon="0.5032">
        <ele>10.6</ele>
        <time>2022-05-24 19:30:29</time>
      </trkpt>
      <trkpt lat="40.80297" lon="0.50316">
        <ele>10.6</ele>
        <time>2022-05-24 19:30:30</time>
      </trkpt>
      <trkpt lat="40.80293" lon="0.50311">
        <ele>10.6</ele>
        <time>2022-05-24 19:30:31</time>
      </trkpt>
      <trkpt lat="40.80289" lon="0.50308">
        <ele>10.6</ele>
        <time>2022-05-24 19:30:32</time>
      </trkpt>
      <trkpt lat="40.80283" lon="0.50303">
        <ele>10.6</ele>
        <time>2022-05-24 19:30:33</time>
      </trkpt>
      <trkpt lat="40.80278" lon="0.50298">
        <ele>10.6</ele>
        <time>2022-05-24 19:30:34</time>
      </trkpt>
      <trkpt lat="40.80274" lon="0.50294">
        <ele>10.8</ele>
        <time>2022-05-24 19:30:35</time>
      </trkpt>
      <trkpt lat="40.8027" lon="0.5029">
        <ele>10.8</ele>
        <time>2022-05-24 19:30:36</time>
      </trkpt>
      <trkpt lat="40.80265" lon="0.50286">
        <ele>10.8</ele>
        <time>2022-05-24 19:30:37</time>
      </trkpt>
      <trkpt lat="40.8026" lon="0.50282">
        <ele>11</ele>
        <time>2022-05-24 19:30:38</time>
      </trkpt>
      <trkpt lat="40.80256" lon="0.50278">
        <ele>11</ele>
        <time>2022-05-24 19:30:39</time>
      </trkpt>
      <trkpt lat="40.80251" lon="0.50274">
        <ele>10.8</ele>
        <time>2022-05-24 19:30:40</time>
      </trkpt>
      <trkpt lat="40.80247" lon="0.5027">
        <ele>10.8</ele>
        <time>2022-05-24 19:30:41</time>
      </trkpt>
      <trkpt lat="40.80241" lon="0.50266">
        <ele>10.8</ele>
        <time>2022-05-24 19:30:42</time>
      </trkpt>
      <trkpt lat="40.80236" lon="0.50262">
        <ele>11</ele>
        <time>2022-05-24 19:30:43</time>
      </trkpt>
      <trkpt lat="40.80232" lon="0.50258">
        <ele>11.2</ele>
        <time>2022-05-24 19:30:44</time>
      </trkpt>
      <trkpt lat="40.80227" lon="0.50254">
        <ele>11.2</ele>
        <time>2022-05-24 19:30:45</time>
      </trkpt>
      <trkpt lat="40.80222" lon="0.5025">
        <ele>11.2</ele>
        <time>2022-05-24 19:30:46</time>
      </trkpt>
      <trkpt lat="40.80217" lon="0.50246">
        <ele>11.2</ele>
        <time>2022-05-24 19:30:47</time>
      </trkpt>
      <trkpt lat="40.80212" lon="0.50242">
        <ele>11.2</ele>
        <time>2022-05-24 19:30:48</time>
      </trkpt>
      <trkpt lat="40.80207" lon="0.50239">
        <ele>11.2</ele>
        <time>2022-05-24 19:30:49</time>
      </trkpt>
      <trkpt lat="40.80202" lon="0.50235">
        <ele>11.2</ele>
        <time>2022-05-24 19:30:50</time>
      </trkpt>
      <trkpt lat="40.80197" lon="0.50231">
        <ele>11</ele>
        <time>2022-05-24 19:30:51</time>
      </trkpt>
      <trkpt lat="40.80192" lon="0.50228">
        <ele>11</ele>
        <time>2022-05-24 19:30:52</time>
      </trkpt>
      <trkpt lat="40.80187" lon="0.50224">
        <ele>11</ele>
        <time>2022-05-24 19:30:53</time>
      </trkpt>
      <trkpt lat="40.80182" lon="0.5022">
        <ele>11</ele>
        <time>2022-05-24 19:30:54</time>
      </trkpt>
      <trkpt lat="40.80177" lon="0.50217">
        <ele>11</ele>
        <time>2022-05-24 19:30:55</time>
      </trkpt>
      <trkpt lat="40.80172" lon="0.50214">
        <ele>11.2</ele>
        <time>2022-05-24 19:30:56</time>
      </trkpt>
      <trkpt lat="40.80167" lon="0.5021">
        <ele>11.2</ele>
        <time>2022-05-24 19:30:57</time>
      </trkpt>
      <trkpt lat="40.80163" lon="0.50207">
        <ele>11.2</ele>
        <time>2022-05-24 19:30:58</time>
      </trkpt>
      <trkpt lat="40.80159" lon="0.50203">
        <ele>11</ele>
        <time>2022-05-24 19:30:59</time>
      </trkpt>
      <trkpt lat="40.80154" lon="0.502">
        <ele>11</ele>
        <time>2022-05-24 19:31:00</time>
      </trkpt>
      <trkpt lat="40.80148" lon="0.50196">
        <ele>10.8</ele>
        <time>2022-05-24 19:31:01</time>
      </trkpt>
      <trkpt lat="40.80143" lon="0.50193">
        <ele>10.8</ele>
        <time>2022-05-24 19:31:02</time>
      </trkpt>
      <trkpt lat="40.80138" lon="0.50189">
        <ele>10.8</ele>
        <time>2022-05-24 19:31:03</time>
      </trkpt>
      <trkpt lat="40.80133" lon="0.50185">
        <ele>10.8</ele>
        <time>2022-05-24 19:31:04</time>
      </trkpt>
      <trkpt lat="40.80128" lon="0.50182">
        <ele>10.8</ele>
        <time>2022-05-24 19:31:05</time>
      </trkpt>
      <trkpt lat="40.80123" lon="0.50178">
        <ele>10.8</ele>
        <time>2022-05-24 19:31:06</time>
      </trkpt>
      <trkpt lat="40.80118" lon="0.50175">
        <ele>10.8</ele>
        <time>2022-05-24 19:31:07</time>
      </trkpt>
      <trkpt lat="40.80113" lon="0.50171">
        <ele>10.8</ele>
        <time>2022-05-24 19:31:08</time>
      </trkpt>
      <trkpt lat="40.80109" lon="0.50168">
        <ele>11</ele>
        <time>2022-05-24 19:31:09</time>
      </trkpt>
      <trkpt lat="40.80104" lon="0.50165">
        <ele>11</ele>
        <time>2022-05-24 19:31:10</time>
      </trkpt>
      <trkpt lat="40.80098" lon="0.50161">
        <ele>10.8</ele>
        <time>2022-05-24 19:31:11</time>
      </trkpt>
      <trkpt lat="40.80093" lon="0.50157">
        <ele>10.8</ele>
        <time>2022-05-24 19:31:12</time>
      </trkpt>
      <trkpt lat="40.80088" lon="0.50154">
        <ele>10.8</ele>
        <time>2022-05-24 19:31:13</time>
      </trkpt>
      <trkpt lat="40.80083" lon="0.5015">
        <ele>10.8</ele>
        <time>2022-05-24 19:31:14</time>
      </trkpt>
      <trkpt lat="40.80079" lon="0.50147">
        <ele>10.8</ele>
        <time>2022-05-24 19:31:15</time>
      </trkpt>
      <trkpt lat="40.80074" lon="0.50144">
        <ele>10.8</ele>
        <time>2022-05-24 19:31:16</time>
      </trkpt>
      <trkpt lat="40.80068" lon="0.5014">
        <ele>10.8</ele>
        <time>2022-05-24 19:31:17</time>
      </trkpt>
      <trkpt lat="40.80063" lon="0.50137">
        <ele>10.8</ele>
        <time>2022-05-24 19:31:18</time>
      </trkpt>
      <trkpt lat="40.80058" lon="0.50133">
        <ele>10.8</ele>
        <time>2022-05-24 19:31:19</time>
      </trkpt>
      <trkpt lat="40.80052" lon="0.5013">
        <ele>10.8</ele>
        <time>2022-05-24 19:31:20</time>
      </trkpt>
      <trkpt lat="40.80046" lon="0.50126">
        <ele>10.8</ele>
        <time>2022-05-24 19:31:21</time>
      </trkpt>
      <trkpt lat="40.8004" lon="0.50122">
        <ele>10.8</ele>
        <time>2022-05-24 19:31:22</time>
      </trkpt>
      <trkpt lat="40.80034" lon="0.50119">
        <ele>10.8</ele>
        <time>2022-05-24 19:31:23</time>
      </trkpt>
      <trkpt lat="40.80028" lon="0.50114">
        <ele>10.8</ele>
        <time>2022-05-24 19:31:24</time>
      </trkpt>
      <trkpt lat="40.80022" lon="0.5011">
        <ele>10.8</ele>
        <time>2022-05-24 19:31:25</time>
      </trkpt>
      <trkpt lat="40.80015" lon="0.50106">
        <ele>10.8</ele>
        <time>2022-05-24 19:31:26</time>
      </trkpt>
      <trkpt lat="40.80009" lon="0.50101">
        <ele>10.8</ele>
        <time>2022-05-24 19:31:27</time>
      </trkpt>
      <trkpt lat="40.80003" lon="0.50097">
        <ele>10.6</ele>
        <time>2022-05-24 19:31:28</time>
      </trkpt>
      <trkpt lat="40.79996" lon="0.50093">
        <ele>10.8</ele>
        <time>2022-05-24 19:31:29</time>
      </trkpt>
      <trkpt lat="40.79989" lon="0.50087">
        <ele>10.8</ele>
        <time>2022-05-24 19:31:30</time>
      </trkpt>
      <trkpt lat="40.79982" lon="0.50082">
        <ele>11</ele>
        <time>2022-05-24 19:31:31</time>
      </trkpt>
      <trkpt lat="40.79976" lon="0.50078">
        <ele>10.8</ele>
        <time>2022-05-24 19:31:32</time>
      </trkpt>
      <trkpt lat="40.79969" lon="0.50073">
        <ele>10.8</ele>
        <time>2022-05-24 19:31:33</time>
      </trkpt>
      <trkpt lat="40.79963" lon="0.50068">
        <ele>10.8</ele>
        <time>2022-05-24 19:31:34</time>
      </trkpt>
      <trkpt lat="40.79956" lon="0.50064">
        <ele>10.8</ele>
        <time>2022-05-24 19:31:35</time>
      </trkpt>
      <trkpt lat="40.7995" lon="0.5006">
        <ele>11</ele>
        <time>2022-05-24 19:31:36</time>
      </trkpt>
      <trkpt lat="40.79943" lon="0.50055">
        <ele>11</ele>
        <time>2022-05-24 19:31:37</time>
      </trkpt>
      <trkpt lat="40.79937" lon="0.50051">
        <ele>11.2</ele>
        <time>2022-05-24 19:31:38</time>
      </trkpt>
      <trkpt lat="40.79932" lon="0.50047">
        <ele>11.2</ele>
        <time>2022-05-24 19:31:39</time>
      </trkpt>
      <trkpt lat="40.79926" lon="0.50043">
        <ele>11.2</ele>
        <time>2022-05-24 19:31:40</time>
      </trkpt>
      <trkpt lat="40.79919" lon="0.50038">
        <ele>11.4</ele>
        <time>2022-05-24 19:31:41</time>
      </trkpt>
      <trkpt lat="40.79913" lon="0.50034">
        <ele>11.4</ele>
        <time>2022-05-24 19:31:42</time>
      </trkpt>
      <trkpt lat="40.79907" lon="0.50029">
        <ele>11.2</ele>
        <time>2022-05-24 19:31:43</time>
      </trkpt>
      <trkpt lat="40.79902" lon="0.50025">
        <ele>11.2</ele>
        <time>2022-05-24 19:31:44</time>
      </trkpt>
      <trkpt lat="40.79895" lon="0.5002">
        <ele>11.2</ele>
        <time>2022-05-24 19:31:45</time>
      </trkpt>
      <trkpt lat="40.79889" lon="0.50016">
        <ele>11.2</ele>
        <time>2022-05-24 19:31:46</time>
      </trkpt>
      <trkpt lat="40.79882" lon="0.50012">
        <ele>11.2</ele>
        <time>2022-05-24 19:31:47</time>
      </trkpt>
      <trkpt lat="40.79877" lon="0.50007">
        <ele>11.2</ele>
        <time>2022-05-24 19:31:48</time>
      </trkpt>
      <trkpt lat="40.7987" lon="0.50003">
        <ele>11.4</ele>
        <time>2022-05-24 19:31:49</time>
      </trkpt>
      <trkpt lat="40.79864" lon="0.49999">
        <ele>11.4</ele>
        <time>2022-05-24 19:31:50</time>
      </trkpt>
      <trkpt lat="40.79858" lon="0.49994">
        <ele>11.4</ele>
        <time>2022-05-24 19:31:51</time>
      </trkpt>
      <trkpt lat="40.79853" lon="0.4999">
        <ele>11.4</ele>
        <time>2022-05-24 19:31:52</time>
      </trkpt>
      <trkpt lat="40.79847" lon="0.49986">
        <ele>11.4</ele>
        <time>2022-05-24 19:31:53</time>
      </trkpt>
      <trkpt lat="40.79841" lon="0.49982">
        <ele>11.4</ele>
        <time>2022-05-24 19:31:54</time>
      </trkpt>
      <trkpt lat="40.79835" lon="0.49978">
        <ele>11.4</ele>
        <time>2022-05-24 19:31:55</time>
      </trkpt>
      <trkpt lat="40.79829" lon="0.49974">
        <ele>11.2</ele>
        <time>2022-05-24 19:31:56</time>
      </trkpt>
      <trkpt lat="40.79824" lon="0.4997">
        <ele>11.2</ele>
        <time>2022-05-24 19:31:57</time>
      </trkpt>
      <trkpt lat="40.79818" lon="0.49966">
        <ele>11.4</ele>
        <time>2022-05-24 19:31:58</time>
      </trkpt>
      <trkpt lat="40.79812" lon="0.49962">
        <ele>11.4</ele>
        <time>2022-05-24 19:31:59</time>
      </trkpt>
      <trkpt lat="40.79806" lon="0.49957">
        <ele>11.4</ele>
        <time>2022-05-24 19:32:00</time>
      </trkpt>
      <trkpt lat="40.798" lon="0.49953">
        <ele>11.4</ele>
        <time>2022-05-24 19:32:01</time>
      </trkpt>
      <trkpt lat="40.79794" lon="0.49949">
        <ele>11.4</ele>
        <time>2022-05-24 19:32:02</time>
      </trkpt>
      <trkpt lat="40.79789" lon="0.49945">
        <ele>11.4</ele>
        <time>2022-05-24 19:32:03</time>
      </trkpt>
      <trkpt lat="40.79783" lon="0.49941">
        <ele>11.4</ele>
        <time>2022-05-24 19:32:04</time>
      </trkpt>
      <trkpt lat="40.79778" lon="0.49938">
        <ele>11.4</ele>
        <time>2022-05-24 19:32:05</time>
      </trkpt>
      <trkpt lat="40.79772" lon="0.49934">
        <ele>11.4</ele>
        <time>2022-05-24 19:32:06</time>
      </trkpt>
      <trkpt lat="40.79766" lon="0.4993">
        <ele>11.4</ele>
        <time>2022-05-24 19:32:07</time>
      </trkpt>
      <trkpt lat="40.79761" lon="0.49926">
        <ele>11.4</ele>
        <time>2022-05-24 19:32:08</time>
      </trkpt>
      <trkpt lat="40.79755" lon="0.49922">
        <ele>11.6</ele>
        <time>2022-05-24 19:32:09</time>
      </trkpt>
      <trkpt lat="40.79749" lon="0.49918">
        <ele>11.6</ele>
        <time>2022-05-24 19:32:10</time>
      </trkpt>
      <trkpt lat="40.79744" lon="0.49914">
        <ele>11.6</ele>
        <time>2022-05-24 19:32:11</time>
      </trkpt>
      <trkpt lat="40.79739" lon="0.4991">
        <ele>11.6</ele>
        <time>2022-05-24 19:32:12</time>
      </trkpt>
      <trkpt lat="40.79733" lon="0.49906">
        <ele>11.6</ele>
        <time>2022-05-24 19:32:13</time>
      </trkpt>
      <trkpt lat="40.79727" lon="0.49903">
        <ele>11.6</ele>
        <time>2022-05-24 19:32:14</time>
      </trkpt>
      <trkpt lat="40.79721" lon="0.49899">
        <ele>11.6</ele>
        <time>2022-05-24 19:32:15</time>
      </trkpt>
      <trkpt lat="40.79716" lon="0.49895">
        <ele>11.6</ele>
        <time>2022-05-24 19:32:16</time>
      </trkpt>
      <trkpt lat="40.79711" lon="0.49891">
        <ele>11.6</ele>
        <time>2022-05-24 19:32:17</time>
      </trkpt>
      <trkpt lat="40.79705" lon="0.49887">
        <ele>11.6</ele>
        <time>2022-05-24 19:32:18</time>
      </trkpt>
      <trkpt lat="40.79699" lon="0.49883">
        <ele>11.6</ele>
        <time>2022-05-24 19:32:19</time>
      </trkpt>
      <trkpt lat="40.79693" lon="0.49879">
        <ele>11.6</ele>
        <time>2022-05-24 19:32:20</time>
      </trkpt>
      <trkpt lat="40.79687" lon="0.49875">
        <ele>11.6</ele>
        <time>2022-05-24 19:32:21</time>
      </trkpt>
      <trkpt lat="40.79681" lon="0.49871">
        <ele>11.8</ele>
        <time>2022-05-24 19:32:22</time>
      </trkpt>
      <trkpt lat="40.79676" lon="0.49866">
        <ele>11.6</ele>
        <time>2022-05-24 19:32:23</time>
      </trkpt>
      <trkpt lat="40.7967" lon="0.49862">
        <ele>11.8</ele>
        <time>2022-05-24 19:32:24</time>
      </trkpt>
      <trkpt lat="40.79664" lon="0.49857">
        <ele>11.8</ele>
        <time>2022-05-24 19:32:25</time>
      </trkpt>
      <trkpt lat="40.79658" lon="0.49853">
        <ele>11.8</ele>
        <time>2022-05-24 19:32:26</time>
      </trkpt>
      <trkpt lat="40.79652" lon="0.49849">
        <ele>11.8</ele>
        <time>2022-05-24 19:32:27</time>
      </trkpt>
      <trkpt lat="40.79646" lon="0.49845">
        <ele>11.8</ele>
        <time>2022-05-24 19:32:28</time>
      </trkpt>
      <trkpt lat="40.7964" lon="0.49841">
        <ele>11.8</ele>
        <time>2022-05-24 19:32:29</time>
      </trkpt>
      <trkpt lat="40.79634" lon="0.49838">
        <ele>11.6</ele>
        <time>2022-05-24 19:32:30</time>
      </trkpt>
      <trkpt lat="40.79628" lon="0.49834">
        <ele>11.8</ele>
        <time>2022-05-24 19:32:31</time>
      </trkpt>
      <trkpt lat="40.79622" lon="0.4983">
        <ele>11.8</ele>
        <time>2022-05-24 19:32:32</time>
      </trkpt>
      <trkpt lat="40.79616" lon="0.49827">
        <ele>11.8</ele>
        <time>2022-05-24 19:32:33</time>
      </trkpt>
      <trkpt lat="40.7961" lon="0.49823">
        <ele>11.8</ele>
        <time>2022-05-24 19:32:34</time>
      </trkpt>
      <trkpt lat="40.79604" lon="0.4982">
        <ele>11.8</ele>
        <time>2022-05-24 19:32:35</time>
      </trkpt>
      <trkpt lat="40.79597" lon="0.49816">
        <ele>11.8</ele>
        <time>2022-05-24 19:32:36</time>
      </trkpt>
      <trkpt lat="40.79592" lon="0.49813">
        <ele>11.8</ele>
        <time>2022-05-24 19:32:37</time>
      </trkpt>
      <trkpt lat="40.79586" lon="0.49809">
        <ele>11.8</ele>
        <time>2022-05-24 19:32:38</time>
      </trkpt>
      <trkpt lat="40.7958" lon="0.49806">
        <ele>11.6</ele>
        <time>2022-05-24 19:32:39</time>
      </trkpt>
      <trkpt lat="40.79573" lon="0.49803">
        <ele>11.6</ele>
        <time>2022-05-24 19:32:40</time>
      </trkpt>
      <trkpt lat="40.79568" lon="0.498">
        <ele>11.6</ele>
        <time>2022-05-24 19:32:41</time>
      </trkpt>
      <trkpt lat="40.79562" lon="0.49796">
        <ele>11.6</ele>
        <time>2022-05-24 19:32:42</time>
      </trkpt>
      <trkpt lat="40.79556" lon="0.49793">
        <ele>11.6</ele>
        <time>2022-05-24 19:32:43</time>
      </trkpt>
      <trkpt lat="40.7955" lon="0.4979">
        <ele>11.6</ele>
        <time>2022-05-24 19:32:44</time>
      </trkpt>
      <trkpt lat="40.79543" lon="0.49786">
        <ele>11.6</ele>
        <time>2022-05-24 19:32:45</time>
      </trkpt>
      <trkpt lat="40.79538" lon="0.49783">
        <ele>11.6</ele>
        <time>2022-05-24 19:32:46</time>
      </trkpt>
      <trkpt lat="40.79531" lon="0.4978">
        <ele>11.6</ele>
        <time>2022-05-24 19:32:47</time>
      </trkpt>
      <trkpt lat="40.79526" lon="0.49777">
        <ele>11.6</ele>
        <time>2022-05-24 19:32:48</time>
      </trkpt>
      <trkpt lat="40.7952" lon="0.49774">
        <ele>11.6</ele>
        <time>2022-05-24 19:32:49</time>
      </trkpt>
      <trkpt lat="40.79514" lon="0.49771">
        <ele>11.4</ele>
        <time>2022-05-24 19:32:50</time>
      </trkpt>
      <trkpt lat="40.79509" lon="0.49768">
        <ele>11.4</ele>
        <time>2022-05-24 19:32:51</time>
      </trkpt>
      <trkpt lat="40.79503" lon="0.49765">
        <ele>11.4</ele>
        <time>2022-05-24 19:32:52</time>
      </trkpt>
      <trkpt lat="40.79498" lon="0.49762">
        <ele>11.4</ele>
        <time>2022-05-24 19:32:53</time>
      </trkpt>
      <trkpt lat="40.79492" lon="0.49759">
        <ele>11.4</ele>
        <time>2022-05-24 19:32:54</time>
      </trkpt>
      <trkpt lat="40.79486" lon="0.49757">
        <ele>11.4</ele>
        <time>2022-05-24 19:32:55</time>
      </trkpt>
      <trkpt lat="40.79481" lon="0.49754">
        <ele>11.4</ele>
        <time>2022-05-24 19:32:56</time>
      </trkpt>
      <trkpt lat="40.79477" lon="0.49752">
        <ele>11.4</ele>
        <time>2022-05-24 19:32:57</time>
      </trkpt>
      <trkpt lat="40.79469" lon="0.49749">
        <ele>11.4</ele>
        <time>2022-05-24 19:32:58</time>
      </trkpt>
      <trkpt lat="40.79463" lon="0.49746">
        <ele>11.4</ele>
        <time>2022-05-24 19:32:59</time>
      </trkpt>
      <trkpt lat="40.79457" lon="0.49744">
        <ele>11.4</ele>
        <time>2022-05-24 19:33:00</time>
      </trkpt>
      <trkpt lat="40.79451" lon="0.49741">
        <ele>11.4</ele>
        <time>2022-05-24 19:33:01</time>
      </trkpt>
      <trkpt lat="40.79446" lon="0.49738">
        <ele>11.6</ele>
        <time>2022-05-24 19:33:02</time>
      </trkpt>
      <trkpt lat="40.7944" lon="0.49736">
        <ele>11.6</ele>
        <time>2022-05-24 19:33:03</time>
      </trkpt>
      <trkpt lat="40.79434" lon="0.49734">
        <ele>11.8</ele>
        <time>2022-05-24 19:33:04</time>
      </trkpt>
      <trkpt lat="40.79428" lon="0.49731">
        <ele>12</ele>
        <time>2022-05-24 19:33:05</time>
      </trkpt>
      <trkpt lat="40.79422" lon="0.49729">
        <ele>12.2</ele>
        <time>2022-05-24 19:33:06</time>
      </trkpt>
      <trkpt lat="40.79417" lon="0.49727">
        <ele>12.4</ele>
        <time>2022-05-24 19:33:07</time>
      </trkpt>
      <trkpt lat="40.79411" lon="0.49725">
        <ele>12.6</ele>
        <time>2022-05-24 19:33:08</time>
      </trkpt>
      <trkpt lat="40.79405" lon="0.49722">
        <ele>12.8</ele>
        <time>2022-05-24 19:33:09</time>
      </trkpt>
      <trkpt lat="40.79399" lon="0.4972">
        <ele>13</ele>
        <time>2022-05-24 19:33:10</time>
      </trkpt>
      <trkpt lat="40.79394" lon="0.49718">
        <ele>13.4</ele>
        <time>2022-05-24 19:33:11</time>
      </trkpt>
      <trkpt lat="40.79389" lon="0.49716">
        <ele>13.6</ele>
        <time>2022-05-24 19:33:12</time>
      </trkpt>
      <trkpt lat="40.79383" lon="0.49714">
        <ele>13.8</ele>
        <time>2022-05-24 19:33:13</time>
      </trkpt>
      <trkpt lat="40.79379" lon="0.49712">
        <ele>14</ele>
        <time>2022-05-24 19:33:14</time>
      </trkpt>
      <trkpt lat="40.79374" lon="0.4971">
        <ele>14.2</ele>
        <time>2022-05-24 19:33:15</time>
      </trkpt>
      <trkpt lat="40.79369" lon="0.49708">
        <ele>14.6</ele>
        <time>2022-05-24 19:33:16</time>
      </trkpt>
      <trkpt lat="40.79364" lon="0.49706">
        <ele>14.8</ele>
        <time>2022-05-24 19:33:17</time>
      </trkpt>
      <trkpt lat="40.7936" lon="0.49704">
        <ele>15</ele>
        <time>2022-05-24 19:33:18</time>
      </trkpt>
      <trkpt lat="40.79356" lon="0.49702">
        <ele>15.2</ele>
        <time>2022-05-24 19:33:19</time>
      </trkpt>
      <trkpt lat="40.79351" lon="0.497">
        <ele>15.6</ele>
        <time>2022-05-24 19:33:20</time>
      </trkpt>
      <trkpt lat="40.79347" lon="0.49699">
        <ele>15.6</ele>
        <time>2022-05-24 19:33:21</time>
      </trkpt>
      <trkpt lat="40.79343" lon="0.49697">
        <ele>15.8</ele>
        <time>2022-05-24 19:33:22</time>
      </trkpt>
      <trkpt lat="40.79338" lon="0.49695">
        <ele>16</ele>
        <time>2022-05-24 19:33:23</time>
      </trkpt>
      <trkpt lat="40.79334" lon="0.49693">
        <ele>16.2</ele>
        <time>2022-05-24 19:33:24</time>
      </trkpt>
      <trkpt lat="40.7933" lon="0.49692">
        <ele>16.4</ele>
        <time>2022-05-24 19:33:25</time>
      </trkpt>
      <trkpt lat="40.79325" lon="0.4969">
        <ele>16.6</ele>
        <time>2022-05-24 19:33:26</time>
      </trkpt>
      <trkpt lat="40.79321" lon="0.49688">
        <ele>16.8</ele>
        <time>2022-05-24 19:33:27</time>
      </trkpt>
      <trkpt lat="40.79317" lon="0.49687">
        <ele>16.8</ele>
        <time>2022-05-24 19:33:28</time>
      </trkpt>
      <trkpt lat="40.79313" lon="0.49685">
        <ele>17</ele>
        <time>2022-05-24 19:33:29</time>
      </trkpt>
      <trkpt lat="40.79308" lon="0.49683">
        <ele>17.2</ele>
        <time>2022-05-24 19:33:30</time>
      </trkpt>
      <trkpt lat="40.79304" lon="0.49682">
        <ele>17.6</ele>
        <time>2022-05-24 19:33:31</time>
      </trkpt>
      <trkpt lat="40.793" lon="0.4968">
        <ele>17.8</ele>
        <time>2022-05-24 19:33:32</time>
      </trkpt>
      <trkpt lat="40.79296" lon="0.49678">
        <ele>18</ele>
        <time>2022-05-24 19:33:33</time>
      </trkpt>
      <trkpt lat="40.79291" lon="0.49677">
        <ele>18.2</ele>
        <time>2022-05-24 19:33:34</time>
      </trkpt>
      <trkpt lat="40.79287" lon="0.49676">
        <ele>18.4</ele>
        <time>2022-05-24 19:33:35</time>
      </trkpt>
      <trkpt lat="40.79284" lon="0.49674">
        <ele>18.6</ele>
        <time>2022-05-24 19:33:36</time>
      </trkpt>
      <trkpt lat="40.7928" lon="0.49672">
        <ele>18.6</ele>
        <time>2022-05-24 19:33:37</time>
      </trkpt>
      <trkpt lat="40.79276" lon="0.4967">
        <ele>18.8</ele>
        <time>2022-05-24 19:33:38</time>
      </trkpt>
      <trkpt lat="40.79271" lon="0.49669">
        <ele>19</ele>
        <time>2022-05-24 19:33:39</time>
      </trkpt>
      <trkpt lat="40.79267" lon="0.49667">
        <ele>19.2</ele>
        <time>2022-05-24 19:33:40</time>
      </trkpt>
      <trkpt lat="40.79263" lon="0.49665">
        <ele>19.4</ele>
        <time>2022-05-24 19:33:41</time>
      </trkpt>
      <trkpt lat="40.79259" lon="0.49664">
        <ele>19.6</ele>
        <time>2022-05-24 19:33:42</time>
      </trkpt>
      <trkpt lat="40.79255" lon="0.49662">
        <ele>19.8</ele>
        <time>2022-05-24 19:33:43</time>
      </trkpt>
      <trkpt lat="40.79251" lon="0.4966">
        <ele>20</ele>
        <time>2022-05-24 19:33:44</time>
      </trkpt>
      <trkpt lat="40.79247" lon="0.49659">
        <ele>20.2</ele>
        <time>2022-05-24 19:33:45</time>
      </trkpt>
      <trkpt lat="40.79243" lon="0.49657">
        <ele>20.4</ele>
        <time>2022-05-24 19:33:46</time>
      </trkpt>
      <trkpt lat="40.7924" lon="0.49656">
        <ele>20.6</ele>
        <time>2022-05-24 19:33:47</time>
      </trkpt>
      <trkpt lat="40.79235" lon="0.49654">
        <ele>20.6</ele>
        <time>2022-05-24 19:33:48</time>
      </trkpt>
      <trkpt lat="40.79231" lon="0.49653">
        <ele>20.8</ele>
        <time>2022-05-24 19:33:49</time>
      </trkpt>
      <trkpt lat="40.79227" lon="0.49652">
        <ele>20.8</ele>
        <time>2022-05-24 19:33:50</time>
      </trkpt>
      <trkpt lat="40.79224" lon="0.4965">
        <ele>21</ele>
        <time>2022-05-24 19:33:51</time>
      </trkpt>
      <trkpt lat="40.7922" lon="0.49649">
        <ele>21.2</ele>
        <time>2022-05-24 19:33:52</time>
      </trkpt>
      <trkpt lat="40.79216" lon="0.49648">
        <ele>21.2</ele>
        <time>2022-05-24 19:33:53</time>
      </trkpt>
      <trkpt lat="40.79212" lon="0.49646">
        <ele>21.4</ele>
        <time>2022-05-24 19:33:54</time>
      </trkpt>
      <trkpt lat="40.79208" lon="0.49645">
        <ele>21.4</ele>
        <time>2022-05-24 19:33:55</time>
      </trkpt>
      <trkpt lat="40.79205" lon="0.49643">
        <ele>21.4</ele>
        <time>2022-05-24 19:33:56</time>
      </trkpt>
      <trkpt lat="40.792" lon="0.49642">
        <ele>21.4</ele>
        <time>2022-05-24 19:33:57</time>
      </trkpt>
      <trkpt lat="40.79196" lon="0.4964">
        <ele>21.4</ele>
        <time>2022-05-24 19:33:58</time>
      </trkpt>
      <trkpt lat="40.79192" lon="0.49639">
        <ele>21.6</ele>
        <time>2022-05-24 19:33:59</time>
      </trkpt>
      <trkpt lat="40.79188" lon="0.49638">
        <ele>21.6</ele>
        <time>2022-05-24 19:34:00</time>
      </trkpt>
      <trkpt lat="40.79184" lon="0.49636">
        <ele>21.6</ele>
        <time>2022-05-24 19:34:01</time>
      </trkpt>
      <trkpt lat="40.7918" lon="0.49634">
        <ele>21.8</ele>
        <time>2022-05-24 19:34:02</time>
      </trkpt>
      <trkpt lat="40.79176" lon="0.49632">
        <ele>21.8</ele>
        <time>2022-05-24 19:34:03</time>
      </trkpt>
      <trkpt lat="40.79171" lon="0.4963">
        <ele>21.8</ele>
        <time>2022-05-24 19:34:04</time>
      </trkpt>
      <trkpt lat="40.79168" lon="0.49629">
        <ele>21.8</ele>
        <time>2022-05-24 19:34:05</time>
      </trkpt>
      <trkpt lat="40.79163" lon="0.49627">
        <ele>21.8</ele>
        <time>2022-05-24 19:34:06</time>
      </trkpt>
      <trkpt lat="40.79159" lon="0.49625">
        <ele>21.8</ele>
        <time>2022-05-24 19:34:07</time>
      </trkpt>
      <trkpt lat="40.79155" lon="0.49623">
        <ele>21.8</ele>
        <time>2022-05-24 19:34:08</time>
      </trkpt>
      <trkpt lat="40.7915" lon="0.49621">
        <ele>21.8</ele>
        <time>2022-05-24 19:34:09</time>
      </trkpt>
      <trkpt lat="40.79146" lon="0.49619">
        <ele>22</ele>
        <time>2022-05-24 19:34:10</time>
      </trkpt>
      <trkpt lat="40.79142" lon="0.49618">
        <ele>22</ele>
        <time>2022-05-24 19:34:11</time>
      </trkpt>
      <trkpt lat="40.79137" lon="0.49616">
        <ele>22</ele>
        <time>2022-05-24 19:34:12</time>
      </trkpt>
      <trkpt lat="40.79133" lon="0.49615">
        <ele>22</ele>
        <time>2022-05-24 19:34:13</time>
      </trkpt>
      <trkpt lat="40.79128" lon="0.49613">
        <ele>22</ele>
        <time>2022-05-24 19:34:14</time>
      </trkpt>
      <trkpt lat="40.79124" lon="0.49612">
        <ele>22.2</ele>
        <time>2022-05-24 19:34:15</time>
      </trkpt>
      <trkpt lat="40.79119" lon="0.49611">
        <ele>22.2</ele>
        <time>2022-05-24 19:34:16</time>
      </trkpt>
      <trkpt lat="40.79115" lon="0.4961">
        <ele>22.2</ele>
        <time>2022-05-24 19:34:17</time>
      </trkpt>
      <trkpt lat="40.79111" lon="0.49609">
        <ele>22.4</ele>
        <time>2022-05-24 19:34:18</time>
      </trkpt>
      <trkpt lat="40.79107" lon="0.49608">
        <ele>22.4</ele>
        <time>2022-05-24 19:34:19</time>
      </trkpt>
      <trkpt lat="40.79102" lon="0.49607">
        <ele>22.4</ele>
        <time>2022-05-24 19:34:20</time>
      </trkpt>
      <trkpt lat="40.79098" lon="0.49606">
        <ele>22.4</ele>
        <time>2022-05-24 19:34:21</time>
      </trkpt>
      <trkpt lat="40.79093" lon="0.49605">
        <ele>22.4</ele>
        <time>2022-05-24 19:34:22</time>
      </trkpt>
      <trkpt lat="40.79089" lon="0.49605">
        <ele>22.4</ele>
        <time>2022-05-24 19:34:23</time>
      </trkpt>
      <trkpt lat="40.79084" lon="0.49604">
        <ele>22.4</ele>
        <time>2022-05-24 19:34:24</time>
      </trkpt>
      <trkpt lat="40.79079" lon="0.49603">
        <ele>22.4</ele>
        <time>2022-05-24 19:34:25</time>
      </trkpt>
      <trkpt lat="40.79074" lon="0.49603">
        <ele>22.4</ele>
        <time>2022-05-24 19:34:26</time>
      </trkpt>
      <trkpt lat="40.7907" lon="0.49602">
        <ele>22.2</ele>
        <time>2022-05-24 19:34:27</time>
      </trkpt>
      <trkpt lat="40.79065" lon="0.49602">
        <ele>22.2</ele>
        <time>2022-05-24 19:34:28</time>
      </trkpt>
      <trkpt lat="40.7906" lon="0.49601">
        <ele>22.2</ele>
        <time>2022-05-24 19:34:29</time>
      </trkpt>
      <trkpt lat="40.79055" lon="0.49601">
        <ele>22</ele>
        <time>2022-05-24 19:34:30</time>
      </trkpt>
      <trkpt lat="40.79049" lon="0.49601">
        <ele>22</ele>
        <time>2022-05-24 19:34:31</time>
      </trkpt>
      <trkpt lat="40.79044" lon="0.49601">
        <ele>21.8</ele>
        <time>2022-05-24 19:34:32</time>
      </trkpt>
      <trkpt lat="40.79038" lon="0.49601">
        <ele>21.4</ele>
        <time>2022-05-24 19:34:33</time>
      </trkpt>
      <trkpt lat="40.79032" lon="0.49601">
        <ele>21.2</ele>
        <time>2022-05-24 19:34:34</time>
      </trkpt>
      <trkpt lat="40.79026" lon="0.49601">
        <ele>21</ele>
        <time>2022-05-24 19:34:35</time>
      </trkpt>
      <trkpt lat="40.7902" lon="0.49602">
        <ele>20.8</ele>
        <time>2022-05-24 19:34:36</time>
      </trkpt>
      <trkpt lat="40.79013" lon="0.49602">
        <ele>20.6</ele>
        <time>2022-05-24 19:34:37</time>
      </trkpt>
      <trkpt lat="40.79005" lon="0.49603">
        <ele>20.2</ele>
        <time>2022-05-24 19:34:38</time>
      </trkpt>
      <trkpt lat="40.78999" lon="0.49604">
        <ele>20</ele>
        <time>2022-05-24 19:34:39</time>
      </trkpt>
      <trkpt lat="40.78992" lon="0.49605">
        <ele>19.8</ele>
        <time>2022-05-24 19:34:40</time>
      </trkpt>
      <trkpt lat="40.78986" lon="0.49607">
        <ele>19.4</ele>
        <time>2022-05-24 19:34:41</time>
      </trkpt>
      <trkpt lat="40.78978" lon="0.49608">
        <ele>19.2</ele>
        <time>2022-05-24 19:34:42</time>
      </trkpt>
      <trkpt lat="40.78971" lon="0.49609">
        <ele>18.8</ele>
        <time>2022-05-24 19:34:43</time>
      </trkpt>
      <trkpt lat="40.78964" lon="0.49611">
        <ele>18.6</ele>
        <time>2022-05-24 19:34:44</time>
      </trkpt>
      <trkpt lat="40.78957" lon="0.49613">
        <ele>18.2</ele>
        <time>2022-05-24 19:34:45</time>
      </trkpt>
      <trkpt lat="40.7895" lon="0.49615">
        <ele>18</ele>
        <time>2022-05-24 19:34:46</time>
      </trkpt>
      <trkpt lat="40.78944" lon="0.49617">
        <ele>17.8</ele>
        <time>2022-05-24 19:34:47</time>
      </trkpt>
      <trkpt lat="40.78937" lon="0.49619">
        <ele>17.6</ele>
        <time>2022-05-24 19:34:48</time>
      </trkpt>
      <trkpt lat="40.78931" lon="0.49622">
        <ele>17.6</ele>
        <time>2022-05-24 19:34:49</time>
      </trkpt>
      <trkpt lat="40.78925" lon="0.49624">
        <ele>17.4</ele>
        <time>2022-05-24 19:34:50</time>
      </trkpt>
      <trkpt lat="40.78919" lon="0.49626">
        <ele>17.2</ele>
        <time>2022-05-24 19:34:51</time>
      </trkpt>
      <trkpt lat="40.78913" lon="0.49629">
        <ele>17.2</ele>
        <time>2022-05-24 19:34:52</time>
      </trkpt>
      <trkpt lat="40.78907" lon="0.49632">
        <ele>17.2</ele>
        <time>2022-05-24 19:34:53</time>
      </trkpt>
      <trkpt lat="40.78901" lon="0.49635">
        <ele>17</ele>
        <time>2022-05-24 19:34:54</time>
      </trkpt>
      <trkpt lat="40.78895" lon="0.49638">
        <ele>17</ele>
        <time>2022-05-24 19:34:55</time>
      </trkpt>
      <trkpt lat="40.78889" lon="0.49641">
        <ele>16.8</ele>
        <time>2022-05-24 19:34:56</time>
      </trkpt>
      <trkpt lat="40.78884" lon="0.49644">
        <ele>16.8</ele>
        <time>2022-05-24 19:34:57</time>
      </trkpt>
      <trkpt lat="40.78878" lon="0.49647">
        <ele>16.8</ele>
        <time>2022-05-24 19:34:58</time>
      </trkpt>
      <trkpt lat="40.78873" lon="0.4965">
        <ele>16.8</ele>
        <time>2022-05-24 19:34:59</time>
      </trkpt>
      <trkpt lat="40.78868" lon="0.49654">
        <ele>16.8</ele>
        <time>2022-05-24 19:35:00</time>
      </trkpt>
      <trkpt lat="40.78863" lon="0.49657">
        <ele>16.8</ele>
        <time>2022-05-24 19:35:01</time>
      </trkpt>
      <trkpt lat="40.78857" lon="0.4966">
        <ele>16.6</ele>
        <time>2022-05-24 19:35:02</time>
      </trkpt>
      <trkpt lat="40.78852" lon="0.49664">
        <ele>16.6</ele>
        <time>2022-05-24 19:35:03</time>
      </trkpt>
      <trkpt lat="40.78847" lon="0.49667">
        <ele>16.8</ele>
        <time>2022-05-24 19:35:04</time>
      </trkpt>
      <trkpt lat="40.78842" lon="0.49671">
        <ele>16.6</ele>
        <time>2022-05-24 19:35:05</time>
      </trkpt>
      <trkpt lat="40.78838" lon="0.49675">
        <ele>16.6</ele>
        <time>2022-05-24 19:35:06</time>
      </trkpt>
      <trkpt lat="40.78832" lon="0.49679">
        <ele>16.6</ele>
        <time>2022-05-24 19:35:07</time>
      </trkpt>
      <trkpt lat="40.78828" lon="0.49682">
        <ele>16.6</ele>
        <time>2022-05-24 19:35:08</time>
      </trkpt>
      <trkpt lat="40.78823" lon="0.49687">
        <ele>16.6</ele>
        <time>2022-05-24 19:35:09</time>
      </trkpt>
      <trkpt lat="40.78818" lon="0.49691">
        <ele>16.6</ele>
        <time>2022-05-24 19:35:10</time>
      </trkpt>
      <trkpt lat="40.78813" lon="0.49695">
        <ele>16.4</ele>
        <time>2022-05-24 19:35:11</time>
      </trkpt>
      <trkpt lat="40.78809" lon="0.49699">
        <ele>16.4</ele>
        <time>2022-05-24 19:35:12</time>
      </trkpt>
      <trkpt lat="40.78804" lon="0.49703">
        <ele>16.4</ele>
        <time>2022-05-24 19:35:13</time>
      </trkpt>
      <trkpt lat="40.78799" lon="0.49708">
        <ele>16.4</ele>
        <time>2022-05-24 19:35:14</time>
      </trkpt>
      <trkpt lat="40.78794" lon="0.49712">
        <ele>16.4</ele>
        <time>2022-05-24 19:35:15</time>
      </trkpt>
      <trkpt lat="40.7879" lon="0.49717">
        <ele>16.2</ele>
        <time>2022-05-24 19:35:16</time>
      </trkpt>
      <trkpt lat="40.78786" lon="0.49721">
        <ele>16.2</ele>
        <time>2022-05-24 19:35:17</time>
      </trkpt>
      <trkpt lat="40.78781" lon="0.49726">
        <ele>16.2</ele>
        <time>2022-05-24 19:35:18</time>
      </trkpt>
      <trkpt lat="40.78777" lon="0.49731">
        <ele>16.2</ele>
        <time>2022-05-24 19:35:19</time>
      </trkpt>
      <trkpt lat="40.78773" lon="0.49736">
        <ele>16.2</ele>
        <time>2022-05-24 19:35:20</time>
      </trkpt>
      <trkpt lat="40.78769" lon="0.49741">
        <ele>16.2</ele>
        <time>2022-05-24 19:35:21</time>
      </trkpt>
      <trkpt lat="40.78765" lon="0.49745">
        <ele>16.2</ele>
        <time>2022-05-24 19:35:22</time>
      </trkpt>
      <trkpt lat="40.78761" lon="0.4975">
        <ele>16</ele>
        <time>2022-05-24 19:35:23</time>
      </trkpt>
      <trkpt lat="40.78757" lon="0.49755">
        <ele>16</ele>
        <time>2022-05-24 19:35:24</time>
      </trkpt>
      <trkpt lat="40.78753" lon="0.4976">
        <ele>16.2</ele>
        <time>2022-05-24 19:35:25</time>
      </trkpt>
      <trkpt lat="40.78749" lon="0.49765">
        <ele>16.2</ele>
        <time>2022-05-24 19:35:26</time>
      </trkpt>
      <trkpt lat="40.78746" lon="0.49769">
        <ele>16.2</ele>
        <time>2022-05-24 19:35:27</time>
      </trkpt>
      <trkpt lat="40.78742" lon="0.49774">
        <ele>16.2</ele>
        <time>2022-05-24 19:35:28</time>
      </trkpt>
      <trkpt lat="40.78739" lon="0.49779">
        <ele>16.2</ele>
        <time>2022-05-24 19:35:29</time>
      </trkpt>
      <trkpt lat="40.78735" lon="0.49784">
        <ele>16.2</ele>
        <time>2022-05-24 19:35:30</time>
      </trkpt>
      <trkpt lat="40.78732" lon="0.49789">
        <ele>16.2</ele>
        <time>2022-05-24 19:35:31</time>
      </trkpt>
      <trkpt lat="40.78728" lon="0.49795">
        <ele>16.2</ele>
        <time>2022-05-24 19:35:32</time>
      </trkpt>
      <trkpt lat="40.78725" lon="0.498">
        <ele>16.2</ele>
        <time>2022-05-24 19:35:33</time>
      </trkpt>
      <trkpt lat="40.78721" lon="0.49806">
        <ele>16.2</ele>
        <time>2022-05-24 19:35:34</time>
      </trkpt>
      <trkpt lat="40.78718" lon="0.49811">
        <ele>16.2</ele>
        <time>2022-05-24 19:35:35</time>
      </trkpt>
      <trkpt lat="40.78714" lon="0.49817">
        <ele>16.2</ele>
        <time>2022-05-24 19:35:36</time>
      </trkpt>
      <trkpt lat="40.78711" lon="0.49823">
        <ele>16.2</ele>
        <time>2022-05-24 19:35:37</time>
      </trkpt>
      <trkpt lat="40.78708" lon="0.49829">
        <ele>16.2</ele>
        <time>2022-05-24 19:35:38</time>
      </trkpt>
      <trkpt lat="40.78704" lon="0.49835">
        <ele>16.2</ele>
        <time>2022-05-24 19:35:39</time>
      </trkpt>
      <trkpt lat="40.78701" lon="0.49841">
        <ele>16</ele>
        <time>2022-05-24 19:35:40</time>
      </trkpt>
      <trkpt lat="40.78697" lon="0.49847">
        <ele>16</ele>
        <time>2022-05-24 19:35:41</time>
      </trkpt>
      <trkpt lat="40.78693" lon="0.49853">
        <ele>16</ele>
        <time>2022-05-24 19:35:42</time>
      </trkpt>
      <trkpt lat="40.7869" lon="0.49859">
        <ele>15.8</ele>
        <time>2022-05-24 19:35:43</time>
      </trkpt>
      <trkpt lat="40.78687" lon="0.49865">
        <ele>15.8</ele>
        <time>2022-05-24 19:35:44</time>
      </trkpt>
      <trkpt lat="40.78683" lon="0.49871">
        <ele>15.8</ele>
        <time>2022-05-24 19:35:45</time>
      </trkpt>
      <trkpt lat="40.78679" lon="0.49877">
        <ele>15.8</ele>
        <time>2022-05-24 19:35:46</time>
      </trkpt>
      <trkpt lat="40.78676" lon="0.49883">
        <ele>15.8</ele>
        <time>2022-05-24 19:35:47</time>
      </trkpt>
      <trkpt lat="40.78672" lon="0.4989">
        <ele>15.8</ele>
        <time>2022-05-24 19:35:48</time>
      </trkpt>
      <trkpt lat="40.78669" lon="0.49896">
        <ele>15.8</ele>
        <time>2022-05-24 19:35:49</time>
      </trkpt>
      <trkpt lat="40.78666" lon="0.49902">
        <ele>15.6</ele>
        <time>2022-05-24 19:35:50</time>
      </trkpt>
      <trkpt lat="40.78662" lon="0.49908">
        <ele>15.6</ele>
        <time>2022-05-24 19:35:51</time>
      </trkpt>
      <trkpt lat="40.78659" lon="0.49914">
        <ele>15.6</ele>
        <time>2022-05-24 19:35:52</time>
      </trkpt>
      <trkpt lat="40.78656" lon="0.4992">
        <ele>15.6</ele>
        <time>2022-05-24 19:35:53</time>
      </trkpt>
      <trkpt lat="40.78653" lon="0.49926">
        <ele>15.4</ele>
        <time>2022-05-24 19:35:54</time>
      </trkpt>
      <trkpt lat="40.78649" lon="0.49931">
        <ele>15.4</ele>
        <time>2022-05-24 19:35:55</time>
      </trkpt>
      <trkpt lat="40.78646" lon="0.49937">
        <ele>15.2</ele>
        <time>2022-05-24 19:35:56</time>
      </trkpt>
      <trkpt lat="40.78643" lon="0.49943">
        <ele>15.2</ele>
        <time>2022-05-24 19:35:57</time>
      </trkpt>
      <trkpt lat="40.78639" lon="0.49949">
        <ele>15.2</ele>
        <time>2022-05-24 19:35:58</time>
      </trkpt>
      <trkpt lat="40.78636" lon="0.49954">
        <ele>15.2</ele>
        <time>2022-05-24 19:35:59</time>
      </trkpt>
      <trkpt lat="40.78632" lon="0.4996">
        <ele>15.2</ele>
        <time>2022-05-24 19:36:00</time>
      </trkpt>
      <trkpt lat="40.78629" lon="0.49966">
        <ele>15</ele>
        <time>2022-05-24 19:36:01</time>
      </trkpt>
      <trkpt lat="40.78625" lon="0.49972">
        <ele>15</ele>
        <time>2022-05-24 19:36:02</time>
      </trkpt>
      <trkpt lat="40.78621" lon="0.49978">
        <ele>15</ele>
        <time>2022-05-24 19:36:03</time>
      </trkpt>
      <trkpt lat="40.78617" lon="0.49984">
        <ele>15</ele>
        <time>2022-05-24 19:36:04</time>
      </trkpt>
      <trkpt lat="40.78614" lon="0.49989">
        <ele>15</ele>
        <time>2022-05-24 19:36:05</time>
      </trkpt>
      <trkpt lat="40.78611" lon="0.49995">
        <ele>15</ele>
        <time>2022-05-24 19:36:06</time>
      </trkpt>
      <trkpt lat="40.78608" lon="0.50001">
        <ele>14.8</ele>
        <time>2022-05-24 19:36:07</time>
      </trkpt>
      <trkpt lat="40.78605" lon="0.50007">
        <ele>14.8</ele>
        <time>2022-05-24 19:36:08</time>
      </trkpt>
      <trkpt lat="40.78601" lon="0.50013">
        <ele>14.8</ele>
        <time>2022-05-24 19:36:09</time>
      </trkpt>
      <trkpt lat="40.78599" lon="0.50018">
        <ele>15</ele>
        <time>2022-05-24 19:36:10</time>
      </trkpt>
      <trkpt lat="40.78596" lon="0.50023">
        <ele>15</ele>
        <time>2022-05-24 19:36:11</time>
      </trkpt>
      <trkpt lat="40.78593" lon="0.50028">
        <ele>14.8</ele>
        <time>2022-05-24 19:36:12</time>
      </trkpt>
      <trkpt lat="40.7859" lon="0.50033">
        <ele>14.8</ele>
        <time>2022-05-24 19:36:13</time>
      </trkpt>
      <trkpt lat="40.78586" lon="0.50039">
        <ele>14.8</ele>
        <time>2022-05-24 19:36:14</time>
      </trkpt>
      <trkpt lat="40.78583" lon="0.50044">
        <ele>14.8</ele>
        <time>2022-05-24 19:36:15</time>
      </trkpt>
      <trkpt lat="40.7858" lon="0.5005">
        <ele>14.8</ele>
        <time>2022-05-24 19:36:16</time>
      </trkpt>
      <trkpt lat="40.78577" lon="0.50056">
        <ele>14.8</ele>
        <time>2022-05-24 19:36:17</time>
      </trkpt>
      <trkpt lat="40.78574" lon="0.50061">
        <ele>14.8</ele>
        <time>2022-05-24 19:36:18</time>
      </trkpt>
      <trkpt lat="40.78571" lon="0.50067">
        <ele>14.8</ele>
        <time>2022-05-24 19:36:19</time>
      </trkpt>
      <trkpt lat="40.78568" lon="0.50073">
        <ele>14.8</ele>
        <time>2022-05-24 19:36:20</time>
      </trkpt>
      <trkpt lat="40.78564" lon="0.50078">
        <ele>14.8</ele>
        <time>2022-05-24 19:36:21</time>
      </trkpt>
      <trkpt lat="40.78561" lon="0.50083">
        <ele>14.8</ele>
        <time>2022-05-24 19:36:22</time>
      </trkpt>
      <trkpt lat="40.78558" lon="0.50089">
        <ele>15</ele>
        <time>2022-05-24 19:36:23</time>
      </trkpt>
      <trkpt lat="40.78554" lon="0.50094">
        <ele>15</ele>
        <time>2022-05-24 19:36:24</time>
      </trkpt>
      <trkpt lat="40.7855" lon="0.501">
        <ele>14.8</ele>
        <time>2022-05-24 19:36:25</time>
      </trkpt>
      <trkpt lat="40.78545" lon="0.50106">
        <ele>14.8</ele>
        <time>2022-05-24 19:36:26</time>
      </trkpt>
      <trkpt lat="40.78541" lon="0.50112">
        <ele>14.8</ele>
        <time>2022-05-24 19:36:27</time>
      </trkpt>
      <trkpt lat="40.78535" lon="0.50118">
        <ele>14.8</ele>
        <time>2022-05-24 19:36:28</time>
      </trkpt>
      <trkpt lat="40.78531" lon="0.50123">
        <ele>14.8</ele>
        <time>2022-05-24 19:36:29</time>
      </trkpt>
      <trkpt lat="40.78527" lon="0.50128">
        <ele>14.8</ele>
        <time>2022-05-24 19:36:30</time>
      </trkpt>
      <trkpt lat="40.78522" lon="0.50134">
        <ele>14.8</ele>
        <time>2022-05-24 19:36:31</time>
      </trkpt>
      <trkpt lat="40.78518" lon="0.50138">
        <ele>14.8</ele>
        <time>2022-05-24 19:36:32</time>
      </trkpt>
      <trkpt lat="40.78513" lon="0.50143">
        <ele>14.8</ele>
        <time>2022-05-24 19:36:33</time>
      </trkpt>
      <trkpt lat="40.78509" lon="0.50147">
        <ele>14.8</ele>
        <time>2022-05-24 19:36:34</time>
      </trkpt>
      <trkpt lat="40.78504" lon="0.50151">
        <ele>14.8</ele>
        <time>2022-05-24 19:36:35</time>
      </trkpt>
      <trkpt lat="40.785" lon="0.50155">
        <ele>14.8</ele>
        <time>2022-05-24 19:36:36</time>
      </trkpt>
      <trkpt lat="40.78496" lon="0.50159">
        <ele>14.8</ele>
        <time>2022-05-24 19:36:37</time>
      </trkpt>
      <trkpt lat="40.78492" lon="0.50163">
        <ele>14.6</ele>
        <time>2022-05-24 19:36:38</time>
      </trkpt>
      <trkpt lat="40.78487" lon="0.50167">
        <ele>14.6</ele>
        <time>2022-05-24 19:36:39</time>
      </trkpt>
      <trkpt lat="40.78482" lon="0.50171">
        <ele>14.6</ele>
        <time>2022-05-24 19:36:40</time>
      </trkpt>
      <trkpt lat="40.78477" lon="0.50175">
        <ele>14.4</ele>
        <time>2022-05-24 19:36:41</time>
      </trkpt>
      <trkpt lat="40.78472" lon="0.50179">
        <ele>14.4</ele>
        <time>2022-05-24 19:36:42</time>
      </trkpt>
      <trkpt lat="40.78466" lon="0.50183">
        <ele>14.4</ele>
        <time>2022-05-24 19:36:43</time>
      </trkpt>
      <trkpt lat="40.78461" lon="0.50187">
        <ele>14.4</ele>
        <time>2022-05-24 19:36:44</time>
      </trkpt>
      <trkpt lat="40.78456" lon="0.5019">
        <ele>14.2</ele>
        <time>2022-05-24 19:36:45</time>
      </trkpt>
      <trkpt lat="40.78452" lon="0.50195">
        <ele>14.2</ele>
        <time>2022-05-24 19:36:46</time>
      </trkpt>
      <trkpt lat="40.78447" lon="0.50199">
        <ele>14.2</ele>
        <time>2022-05-24 19:36:47</time>
      </trkpt>
      <trkpt lat="40.78442" lon="0.50203">
        <ele>14</ele>
        <time>2022-05-24 19:36:48</time>
      </trkpt>
      <trkpt lat="40.78438" lon="0.50207">
        <ele>14</ele>
        <time>2022-05-24 19:36:49</time>
      </trkpt>
      <trkpt lat="40.78433" lon="0.50211">
        <ele>14</ele>
        <time>2022-05-24 19:36:50</time>
      </trkpt>
      <trkpt lat="40.78429" lon="0.50214">
        <ele>14</ele>
        <time>2022-05-24 19:36:51</time>
      </trkpt>
      <trkpt lat="40.78423" lon="0.50218">
        <ele>14</ele>
        <time>2022-05-24 19:36:52</time>
      </trkpt>
      <trkpt lat="40.78418" lon="0.50222">
        <ele>13.8</ele>
        <time>2022-05-24 19:36:53</time>
      </trkpt>
      <trkpt lat="40.78413" lon="0.50226">
        <ele>13.8</ele>
        <time>2022-05-24 19:36:54</time>
      </trkpt>
      <trkpt lat="40.78408" lon="0.5023">
        <ele>13.6</ele>
        <time>2022-05-24 19:36:55</time>
      </trkpt>
      <trkpt lat="40.78403" lon="0.50234">
        <ele>13.6</ele>
        <time>2022-05-24 19:36:56</time>
      </trkpt>
      <trkpt lat="40.78399" lon="0.50238">
        <ele>13.4</ele>
        <time>2022-05-24 19:36:57</time>
      </trkpt>
      <trkpt lat="40.78393" lon="0.50242">
        <ele>13.4</ele>
        <time>2022-05-24 19:36:58</time>
      </trkpt>
      <trkpt lat="40.78389" lon="0.50246">
        <ele>13.4</ele>
        <time>2022-05-24 19:36:59</time>
      </trkpt>
      <trkpt lat="40.78384" lon="0.5025">
        <ele>13.4</ele>
        <time>2022-05-24 19:37:00</time>
      </trkpt>
      <trkpt lat="40.78379" lon="0.50254">
        <ele>13.4</ele>
        <time>2022-05-24 19:37:01</time>
      </trkpt>
      <trkpt lat="40.78376" lon="0.50257">
        <ele>13.4</ele>
        <time>2022-05-24 19:37:02</time>
      </trkpt>
      <trkpt lat="40.78371" lon="0.50261">
        <ele>13.2</ele>
        <time>2022-05-24 19:37:03</time>
      </trkpt>
      <trkpt lat="40.78366" lon="0.50264">
        <ele>13.2</ele>
        <time>2022-05-24 19:37:04</time>
      </trkpt>
      <trkpt lat="40.78361" lon="0.50268">
        <ele>13.2</ele>
        <time>2022-05-24 19:37:05</time>
      </trkpt>
      <trkpt lat="40.78356" lon="0.50272">
        <ele>13</ele>
        <time>2022-05-24 19:37:06</time>
      </trkpt>
      <trkpt lat="40.78351" lon="0.50275">
        <ele>13</ele>
        <time>2022-05-24 19:37:07</time>
      </trkpt>
      <trkpt lat="40.78346" lon="0.50279">
        <ele>13</ele>
        <time>2022-05-24 19:37:08</time>
      </trkpt>
      <trkpt lat="40.78341" lon="0.50284">
        <ele>13</ele>
        <time>2022-05-24 19:37:09</time>
      </trkpt>
      <trkpt lat="40.78336" lon="0.50287">
        <ele>13</ele>
        <time>2022-05-24 19:37:10</time>
      </trkpt>
      <trkpt lat="40.78332" lon="0.50291">
        <ele>12.8</ele>
        <time>2022-05-24 19:37:11</time>
      </trkpt>
      <trkpt lat="40.78327" lon="0.50294">
        <ele>12.8</ele>
        <time>2022-05-24 19:37:12</time>
      </trkpt>
      <trkpt lat="40.78322" lon="0.50297">
        <ele>12.6</ele>
        <time>2022-05-24 19:37:13</time>
      </trkpt>
      <trkpt lat="40.78317" lon="0.50301">
        <ele>12.6</ele>
        <time>2022-05-24 19:37:14</time>
      </trkpt>
      <trkpt lat="40.78312" lon="0.50304">
        <ele>12.6</ele>
        <time>2022-05-24 19:37:15</time>
      </trkpt>
      <trkpt lat="40.78306" lon="0.50307">
        <ele>12.6</ele>
        <time>2022-05-24 19:37:16</time>
      </trkpt>
      <trkpt lat="40.78301" lon="0.5031">
        <ele>12.6</ele>
        <time>2022-05-24 19:37:17</time>
      </trkpt>
      <trkpt lat="40.78296" lon="0.50313">
        <ele>12.4</ele>
        <time>2022-05-24 19:37:18</time>
      </trkpt>
      <trkpt lat="40.7829" lon="0.50316">
        <ele>12.4</ele>
        <time>2022-05-24 19:37:19</time>
      </trkpt>
      <trkpt lat="40.78284" lon="0.50318">
        <ele>12.4</ele>
        <time>2022-05-24 19:37:20</time>
      </trkpt>
      <trkpt lat="40.78279" lon="0.50321">
        <ele>12.4</ele>
        <time>2022-05-24 19:37:21</time>
      </trkpt>
      <trkpt lat="40.78273" lon="0.50324">
        <ele>12.4</ele>
        <time>2022-05-24 19:37:22</time>
      </trkpt>
      <trkpt lat="40.78267" lon="0.50327">
        <ele>12.2</ele>
        <time>2022-05-24 19:37:23</time>
      </trkpt>
      <trkpt lat="40.78262" lon="0.5033">
        <ele>12.4</ele>
        <time>2022-05-24 19:37:24</time>
      </trkpt>
      <trkpt lat="40.78256" lon="0.50333">
        <ele>12.4</ele>
        <time>2022-05-24 19:37:25</time>
      </trkpt>
      <trkpt lat="40.7825" lon="0.50336">
        <ele>12.4</ele>
        <time>2022-05-24 19:37:26</time>
      </trkpt>
      <trkpt lat="40.78244" lon="0.50339">
        <ele>12.4</ele>
        <time>2022-05-24 19:37:27</time>
      </trkpt>
      <trkpt lat="40.78238" lon="0.50341">
        <ele>12.4</ele>
        <time>2022-05-24 19:37:28</time>
      </trkpt>
      <trkpt lat="40.78233" lon="0.50344">
        <ele>12.6</ele>
        <time>2022-05-24 19:37:29</time>
      </trkpt>
      <trkpt lat="40.78227" lon="0.50347">
        <ele>12.4</ele>
        <time>2022-05-24 19:37:30</time>
      </trkpt>
      <trkpt lat="40.78222" lon="0.50349">
        <ele>12.6</ele>
        <time>2022-05-24 19:37:31</time>
      </trkpt>
      <trkpt lat="40.78218" lon="0.50352">
        <ele>12.6</ele>
        <time>2022-05-24 19:37:32</time>
      </trkpt>
      <trkpt lat="40.78213" lon="0.50354">
        <ele>12.6</ele>
        <time>2022-05-24 19:37:33</time>
      </trkpt>
      <trkpt lat="40.78208" lon="0.50357">
        <ele>12.6</ele>
        <time>2022-05-24 19:37:34</time>
      </trkpt>
      <trkpt lat="40.78204" lon="0.50359">
        <ele>12.8</ele>
        <time>2022-05-24 19:37:35</time>
      </trkpt>
      <trkpt lat="40.782" lon="0.50362">
        <ele>12.8</ele>
        <time>2022-05-24 19:37:36</time>
      </trkpt>
      <trkpt lat="40.78196" lon="0.50364">
        <ele>12.8</ele>
        <time>2022-05-24 19:37:37</time>
      </trkpt>
      <trkpt lat="40.78191" lon="0.50367">
        <ele>12.8</ele>
        <time>2022-05-24 19:37:38</time>
      </trkpt>
      <trkpt lat="40.78186" lon="0.5037">
        <ele>12.8</ele>
        <time>2022-05-24 19:37:39</time>
      </trkpt>
      <trkpt lat="40.78182" lon="0.50373">
        <ele>12.6</ele>
        <time>2022-05-24 19:37:40</time>
      </trkpt>
      <trkpt lat="40.78177" lon="0.50376">
        <ele>12.6</ele>
        <time>2022-05-24 19:37:41</time>
      </trkpt>
      <trkpt lat="40.78173" lon="0.50379">
        <ele>12.6</ele>
        <time>2022-05-24 19:37:42</time>
      </trkpt>
      <trkpt lat="40.78168" lon="0.50382">
        <ele>12.4</ele>
        <time>2022-05-24 19:37:43</time>
      </trkpt>
      <trkpt lat="40.78163" lon="0.50386">
        <ele>12.4</ele>
        <time>2022-05-24 19:37:44</time>
      </trkpt>
      <trkpt lat="40.7816" lon="0.50388">
        <ele>12.2</ele>
        <time>2022-05-24 19:37:45</time>
      </trkpt>
      <trkpt lat="40.78153" lon="0.50393">
        <ele>12.2</ele>
        <time>2022-05-24 19:37:46</time>
      </trkpt>
      <trkpt lat="40.78148" lon="0.50397">
        <ele>12.2</ele>
        <time>2022-05-24 19:37:47</time>
      </trkpt>
      <trkpt lat="40.78143" lon="0.50401">
        <ele>12</ele>
        <time>2022-05-24 19:37:48</time>
      </trkpt>
      <trkpt lat="40.78138" lon="0.50404">
        <ele>12.2</ele>
        <time>2022-05-24 19:37:49</time>
      </trkpt>
      <trkpt lat="40.78132" lon="0.50408">
        <ele>12.2</ele>
        <time>2022-05-24 19:37:50</time>
      </trkpt>
      <trkpt lat="40.78128" lon="0.50412">
        <ele>12</ele>
        <time>2022-05-24 19:37:51</time>
      </trkpt>
      <trkpt lat="40.78123" lon="0.50415">
        <ele>12</ele>
        <time>2022-05-24 19:37:52</time>
      </trkpt>
      <trkpt lat="40.78118" lon="0.50419">
        <ele>12</ele>
        <time>2022-05-24 19:37:53</time>
      </trkpt>
      <trkpt lat="40.78114" lon="0.50422">
        <ele>12</ele>
        <time>2022-05-24 19:37:54</time>
      </trkpt>
      <trkpt lat="40.78109" lon="0.50425">
        <ele>12</ele>
        <time>2022-05-24 19:37:55</time>
      </trkpt>
      <trkpt lat="40.78105" lon="0.50429">
        <ele>12</ele>
        <time>2022-05-24 19:37:56</time>
      </trkpt>
      <trkpt lat="40.78101" lon="0.50432">
        <ele>12</ele>
        <time>2022-05-24 19:37:57</time>
      </trkpt>
      <trkpt lat="40.78097" lon="0.50436">
        <ele>12</ele>
        <time>2022-05-24 19:37:58</time>
      </trkpt>
      <trkpt lat="40.78093" lon="0.50439">
        <ele>12</ele>
        <time>2022-05-24 19:37:59</time>
      </trkpt>
      <trkpt lat="40.78089" lon="0.50442">
        <ele>12.2</ele>
        <time>2022-05-24 19:38:00</time>
      </trkpt>
      <trkpt lat="40.78085" lon="0.50443">
        <ele>12.2</ele>
        <time>2022-05-24 19:38:01</time>
      </trkpt>
      <trkpt lat="40.78083" lon="0.50444">
        <ele>12.4</ele>
        <time>2022-05-24 19:38:02</time>
      </trkpt>
      <trkpt lat="40.78082" lon="0.50445">
        <ele>12.6</ele>
        <time>2022-05-24 19:38:03</time>
      </trkpt>
      <trkpt lat="40.78069" lon="0.5046">
        <ele>13</ele>
        <time>2022-05-24 19:41:10</time>
      </trkpt>
      <trkpt lat="40.78067" lon="0.50462">
        <ele>13</ele>
        <time>2022-05-24 19:41:11</time>
      </trkpt>
      <trkpt lat="40.78063" lon="0.50465">
        <ele>13</ele>
        <time>2022-05-24 19:41:12</time>
      </trkpt>
      <trkpt lat="40.7806" lon="0.50468">
        <ele>12.8</ele>
        <time>2022-05-24 19:41:13</time>
      </trkpt>
      <trkpt lat="40.78057" lon="0.50471">
        <ele>12.8</ele>
        <time>2022-05-24 19:41:14</time>
      </trkpt>
      <trkpt lat="40.78053" lon="0.50474">
        <ele>12.8</ele>
        <time>2022-05-24 19:41:15</time>
      </trkpt>
      <trkpt lat="40.7805" lon="0.50477">
        <ele>12.8</ele>
        <time>2022-05-24 19:41:16</time>
      </trkpt>
      <trkpt lat="40.78046" lon="0.50481">
        <ele>12.8</ele>
        <time>2022-05-24 19:41:17</time>
      </trkpt>
      <trkpt lat="40.78042" lon="0.50484">
        <ele>12.6</ele>
        <time>2022-05-24 19:41:18</time>
      </trkpt>
      <trkpt lat="40.78038" lon="0.50488">
        <ele>12.6</ele>
        <time>2022-05-24 19:41:19</time>
      </trkpt>
      <trkpt lat="40.78034" lon="0.50491">
        <ele>12.6</ele>
        <time>2022-05-24 19:41:20</time>
      </trkpt>
      <trkpt lat="40.7803" lon="0.50495">
        <ele>12.6</ele>
        <time>2022-05-24 19:41:21</time>
      </trkpt>
      <trkpt lat="40.78026" lon="0.50499">
        <ele>12.6</ele>
        <time>2022-05-24 19:41:22</time>
      </trkpt>
      <trkpt lat="40.78021" lon="0.50503">
        <ele>12.6</ele>
        <time>2022-05-24 19:41:23</time>
      </trkpt>
      <trkpt lat="40.78017" lon="0.50507">
        <ele>12.6</ele>
        <time>2022-05-24 19:41:24</time>
      </trkpt>
      <trkpt lat="40.78013" lon="0.50511">
        <ele>12.6</ele>
        <time>2022-05-24 19:41:25</time>
      </trkpt>
      <trkpt lat="40.78009" lon="0.50516">
        <ele>12.4</ele>
        <time>2022-05-24 19:41:26</time>
      </trkpt>
      <trkpt lat="40.78004" lon="0.5052">
        <ele>12.4</ele>
        <time>2022-05-24 19:41:27</time>
      </trkpt>
      <trkpt lat="40.78001" lon="0.50525">
        <ele>12.4</ele>
        <time>2022-05-24 19:41:28</time>
      </trkpt>
      <trkpt lat="40.77996" lon="0.50528">
        <ele>12.4</ele>
        <time>2022-05-24 19:41:29</time>
      </trkpt>
      <trkpt lat="40.77992" lon="0.50532">
        <ele>12.4</ele>
        <time>2022-05-24 19:41:30</time>
      </trkpt>
      <trkpt lat="40.77988" lon="0.50537">
        <ele>12.4</ele>
        <time>2022-05-24 19:41:31</time>
      </trkpt>
      <trkpt lat="40.77983" lon="0.50541">
        <ele>12.4</ele>
        <time>2022-05-24 19:41:32</time>
      </trkpt>
      <trkpt lat="40.77979" lon="0.50545">
        <ele>12.4</ele>
        <time>2022-05-24 19:41:33</time>
      </trkpt>
      <trkpt lat="40.77975" lon="0.5055">
        <ele>12.4</ele>
        <time>2022-05-24 19:41:34</time>
      </trkpt>
      <trkpt lat="40.77971" lon="0.50554">
        <ele>12.4</ele>
        <time>2022-05-24 19:41:35</time>
      </trkpt>
      <trkpt lat="40.77966" lon="0.50558">
        <ele>12.4</ele>
        <time>2022-05-24 19:41:36</time>
      </trkpt>
      <trkpt lat="40.77961" lon="0.50562">
        <ele>12.4</ele>
        <time>2022-05-24 19:41:37</time>
      </trkpt>
      <trkpt lat="40.77957" lon="0.50567">
        <ele>12.4</ele>
        <time>2022-05-24 19:41:38</time>
      </trkpt>
      <trkpt lat="40.77953" lon="0.50572">
        <ele>12.4</ele>
        <time>2022-05-24 19:41:39</time>
      </trkpt>
      <trkpt lat="40.77949" lon="0.50576">
        <ele>12.4</ele>
        <time>2022-05-24 19:41:40</time>
      </trkpt>
      <trkpt lat="40.77945" lon="0.50581">
        <ele>12.4</ele>
        <time>2022-05-24 19:41:41</time>
      </trkpt>
      <trkpt lat="40.7794" lon="0.50587">
        <ele>12.4</ele>
        <time>2022-05-24 19:41:42</time>
      </trkpt>
      <trkpt lat="40.77936" lon="0.50592">
        <ele>12.4</ele>
        <time>2022-05-24 19:41:43</time>
      </trkpt>
      <trkpt lat="40.77931" lon="0.50597">
        <ele>12.2</ele>
        <time>2022-05-24 19:41:44</time>
      </trkpt>
      <trkpt lat="40.77927" lon="0.50602">
        <ele>12.4</ele>
        <time>2022-05-24 19:41:45</time>
      </trkpt>
      <trkpt lat="40.77922" lon="0.50607">
        <ele>12.4</ele>
        <time>2022-05-24 19:41:46</time>
      </trkpt>
      <trkpt lat="40.77917" lon="0.50613">
        <ele>12.4</ele>
        <time>2022-05-24 19:41:47</time>
      </trkpt>
      <trkpt lat="40.77913" lon="0.50618">
        <ele>12.4</ele>
        <time>2022-05-24 19:41:48</time>
      </trkpt>
      <trkpt lat="40.77908" lon="0.50623">
        <ele>12.4</ele>
        <time>2022-05-24 19:41:49</time>
      </trkpt>
      <trkpt lat="40.77903" lon="0.50628">
        <ele>12.4</ele>
        <time>2022-05-24 19:41:50</time>
      </trkpt>
      <trkpt lat="40.77899" lon="0.50633">
        <ele>12.2</ele>
        <time>2022-05-24 19:41:51</time>
      </trkpt>
      <trkpt lat="40.77893" lon="0.50639">
        <ele>12.4</ele>
        <time>2022-05-24 19:41:52</time>
      </trkpt>
      <trkpt lat="40.77889" lon="0.50644">
        <ele>12.4</ele>
        <time>2022-05-24 19:41:53</time>
      </trkpt>
      <trkpt lat="40.77884" lon="0.50649">
        <ele>12.4</ele>
        <time>2022-05-24 19:41:54</time>
      </trkpt>
      <trkpt lat="40.77879" lon="0.50654">
        <ele>12.4</ele>
        <time>2022-05-24 19:41:55</time>
      </trkpt>
      <trkpt lat="40.77875" lon="0.50659">
        <ele>12.6</ele>
        <time>2022-05-24 19:41:56</time>
      </trkpt>
      <trkpt lat="40.77871" lon="0.50663">
        <ele>12.6</ele>
        <time>2022-05-24 19:41:57</time>
      </trkpt>
      <trkpt lat="40.77867" lon="0.50668">
        <ele>12.8</ele>
        <time>2022-05-24 19:41:58</time>
      </trkpt>
      <trkpt lat="40.77862" lon="0.50673">
        <ele>12.8</ele>
        <time>2022-05-24 19:41:59</time>
      </trkpt>
      <trkpt lat="40.77858" lon="0.50677">
        <ele>12.8</ele>
        <time>2022-05-24 19:42:00</time>
      </trkpt>
      <trkpt lat="40.77855" lon="0.50682">
        <ele>12.8</ele>
        <time>2022-05-24 19:42:01</time>
      </trkpt>
      <trkpt lat="40.77851" lon="0.50687">
        <ele>12.8</ele>
        <time>2022-05-24 19:42:02</time>
      </trkpt>
      <trkpt lat="40.77847" lon="0.50691">
        <ele>12.8</ele>
        <time>2022-05-24 19:42:03</time>
      </trkpt>
      <trkpt lat="40.77843" lon="0.50696">
        <ele>12.8</ele>
        <time>2022-05-24 19:42:04</time>
      </trkpt>
      <trkpt lat="40.77839" lon="0.507">
        <ele>12.8</ele>
        <time>2022-05-24 19:42:05</time>
      </trkpt>
      <trkpt lat="40.77834" lon="0.50705">
        <ele>13</ele>
        <time>2022-05-24 19:42:06</time>
      </trkpt>
      <trkpt lat="40.7783" lon="0.5071">
        <ele>13</ele>
        <time>2022-05-24 19:42:07</time>
      </trkpt>
      <trkpt lat="40.77826" lon="0.50714">
        <ele>13</ele>
        <time>2022-05-24 19:42:08</time>
      </trkpt>
      <trkpt lat="40.77822" lon="0.50719">
        <ele>13</ele>
        <time>2022-05-24 19:42:09</time>
      </trkpt>
      <trkpt lat="40.77818" lon="0.50724">
        <ele>13</ele>
        <time>2022-05-24 19:42:10</time>
      </trkpt>
      <trkpt lat="40.77814" lon="0.50728">
        <ele>13</ele>
        <time>2022-05-24 19:42:11</time>
      </trkpt>
      <trkpt lat="40.7781" lon="0.50733">
        <ele>13</ele>
        <time>2022-05-24 19:42:12</time>
      </trkpt>
      <trkpt lat="40.77806" lon="0.50738">
        <ele>13</ele>
        <time>2022-05-24 19:42:13</time>
      </trkpt>
      <trkpt lat="40.77801" lon="0.50742">
        <ele>13</ele>
        <time>2022-05-24 19:42:14</time>
      </trkpt>
      <trkpt lat="40.77797" lon="0.50747">
        <ele>13</ele>
        <time>2022-05-24 19:42:15</time>
      </trkpt>
      <trkpt lat="40.77793" lon="0.50752">
        <ele>13</ele>
        <time>2022-05-24 19:42:16</time>
      </trkpt>
      <trkpt lat="40.7779" lon="0.50756">
        <ele>13</ele>
        <time>2022-05-24 19:42:17</time>
      </trkpt>
      <trkpt lat="40.77785" lon="0.50761">
        <ele>13.2</ele>
        <time>2022-05-24 19:42:18</time>
      </trkpt>
      <trkpt lat="40.77781" lon="0.50766">
        <ele>13.2</ele>
        <time>2022-05-24 19:42:19</time>
      </trkpt>
      <trkpt lat="40.77776" lon="0.50771">
        <ele>13.2</ele>
        <time>2022-05-24 19:42:20</time>
      </trkpt>
      <trkpt lat="40.77772" lon="0.50775">
        <ele>13.2</ele>
        <time>2022-05-24 19:42:21</time>
      </trkpt>
      <trkpt lat="40.77768" lon="0.5078">
        <ele>13.2</ele>
        <time>2022-05-24 19:42:22</time>
      </trkpt>
      <trkpt lat="40.77765" lon="0.50785">
        <ele>13.2</ele>
        <time>2022-05-24 19:42:23</time>
      </trkpt>
      <trkpt lat="40.7776" lon="0.50789">
        <ele>13.2</ele>
        <time>2022-05-24 19:42:24</time>
      </trkpt>
      <trkpt lat="40.77756" lon="0.50794">
        <ele>13.2</ele>
        <time>2022-05-24 19:42:25</time>
      </trkpt>
      <trkpt lat="40.77752" lon="0.50799">
        <ele>13.2</ele>
        <time>2022-05-24 19:42:26</time>
      </trkpt>
      <trkpt lat="40.77747" lon="0.50804">
        <ele>13.2</ele>
        <time>2022-05-24 19:42:27</time>
      </trkpt>
      <trkpt lat="40.77743" lon="0.50809">
        <ele>13.2</ele>
        <time>2022-05-24 19:42:28</time>
      </trkpt>
      <trkpt lat="40.77739" lon="0.50813">
        <ele>13.2</ele>
        <time>2022-05-24 19:42:29</time>
      </trkpt>
      <trkpt lat="40.77735" lon="0.50819">
        <ele>13.4</ele>
        <time>2022-05-24 19:42:30</time>
      </trkpt>
      <trkpt lat="40.77731" lon="0.50823">
        <ele>13.4</ele>
        <time>2022-05-24 19:42:31</time>
      </trkpt>
      <trkpt lat="40.77727" lon="0.50828">
        <ele>13.4</ele>
        <time>2022-05-24 19:42:32</time>
      </trkpt>
      <trkpt lat="40.77723" lon="0.50833">
        <ele>13.4</ele>
        <time>2022-05-24 19:42:33</time>
      </trkpt>
      <trkpt lat="40.77718" lon="0.50838">
        <ele>13.4</ele>
        <time>2022-05-24 19:42:34</time>
      </trkpt>
      <trkpt lat="40.77714" lon="0.50843">
        <ele>13.4</ele>
        <time>2022-05-24 19:42:35</time>
      </trkpt>
      <trkpt lat="40.7771" lon="0.50847">
        <ele>13.4</ele>
        <time>2022-05-24 19:42:36</time>
      </trkpt>
      <trkpt lat="40.77706" lon="0.50852">
        <ele>13.4</ele>
        <time>2022-05-24 19:42:37</time>
      </trkpt>
      <trkpt lat="40.77702" lon="0.50857">
        <ele>13.4</ele>
        <time>2022-05-24 19:42:38</time>
      </trkpt>
      <trkpt lat="40.77697" lon="0.50862">
        <ele>13.4</ele>
        <time>2022-05-24 19:42:39</time>
      </trkpt>
      <trkpt lat="40.77692" lon="0.50866">
        <ele>13.4</ele>
        <time>2022-05-24 19:42:40</time>
      </trkpt>
      <trkpt lat="40.77689" lon="0.50871">
        <ele>13.6</ele>
        <time>2022-05-24 19:42:41</time>
      </trkpt>
      <trkpt lat="40.77685" lon="0.50876">
        <ele>13.6</ele>
        <time>2022-05-24 19:42:42</time>
      </trkpt>
      <trkpt lat="40.77681" lon="0.50881">
        <ele>13.6</ele>
        <time>2022-05-24 19:42:43</time>
      </trkpt>
      <trkpt lat="40.77676" lon="0.50886">
        <ele>13.6</ele>
        <time>2022-05-24 19:42:44</time>
      </trkpt>
      <trkpt lat="40.77672" lon="0.5089">
        <ele>13.8</ele>
        <time>2022-05-24 19:42:45</time>
      </trkpt>
      <trkpt lat="40.77668" lon="0.50895">
        <ele>13.8</ele>
        <time>2022-05-24 19:42:46</time>
      </trkpt>
      <trkpt lat="40.77664" lon="0.50899">
        <ele>13.8</ele>
        <time>2022-05-24 19:42:47</time>
      </trkpt>
      <trkpt lat="40.7766" lon="0.50904">
        <ele>13.8</ele>
        <time>2022-05-24 19:42:48</time>
      </trkpt>
      <trkpt lat="40.77657" lon="0.50908">
        <ele>13.8</ele>
        <time>2022-05-24 19:42:49</time>
      </trkpt>
      <trkpt lat="40.77653" lon="0.50912">
        <ele>14</ele>
        <time>2022-05-24 19:42:50</time>
      </trkpt>
      <trkpt lat="40.77649" lon="0.50916">
        <ele>14</ele>
        <time>2022-05-24 19:42:51</time>
      </trkpt>
      <trkpt lat="40.77645" lon="0.50921">
        <ele>14.2</ele>
        <time>2022-05-24 19:42:52</time>
      </trkpt>
      <trkpt lat="40.77641" lon="0.50925">
        <ele>14.4</ele>
        <time>2022-05-24 19:42:53</time>
      </trkpt>
      <trkpt lat="40.77637" lon="0.5093">
        <ele>14.4</ele>
        <time>2022-05-24 19:42:54</time>
      </trkpt>
      <trkpt lat="40.77634" lon="0.50934">
        <ele>14.6</ele>
        <time>2022-05-24 19:42:55</time>
      </trkpt>
      <trkpt lat="40.7763" lon="0.50939">
        <ele>14.8</ele>
        <time>2022-05-24 19:42:56</time>
      </trkpt>
      <trkpt lat="40.77627" lon="0.50943">
        <ele>15</ele>
        <time>2022-05-24 19:42:57</time>
      </trkpt>
      <trkpt lat="40.77623" lon="0.50948">
        <ele>15.2</ele>
        <time>2022-05-24 19:42:58</time>
      </trkpt>
      <trkpt lat="40.7762" lon="0.50952">
        <ele>15.4</ele>
        <time>2022-05-24 19:42:59</time>
      </trkpt>
      <trkpt lat="40.77617" lon="0.50957">
        <ele>15.6</ele>
        <time>2022-05-24 19:43:00</time>
      </trkpt>
      <trkpt lat="40.77614" lon="0.50961">
        <ele>15.8</ele>
        <time>2022-05-24 19:43:01</time>
      </trkpt>
      <trkpt lat="40.77611" lon="0.50966">
        <ele>16</ele>
        <time>2022-05-24 19:43:02</time>
      </trkpt>
      <trkpt lat="40.77608" lon="0.5097">
        <ele>16.2</ele>
        <time>2022-05-24 19:43:03</time>
      </trkpt>
      <trkpt lat="40.77606" lon="0.50975">
        <ele>16.4</ele>
        <time>2022-05-24 19:43:04</time>
      </trkpt>
      <trkpt lat="40.77603" lon="0.50979">
        <ele>16.6</ele>
        <time>2022-05-24 19:43:05</time>
      </trkpt>
      <trkpt lat="40.776" lon="0.50983">
        <ele>16.8</ele>
        <time>2022-05-24 19:43:06</time>
      </trkpt>
      <trkpt lat="40.77598" lon="0.50987">
        <ele>17</ele>
        <time>2022-05-24 19:43:07</time>
      </trkpt>
      <trkpt lat="40.77596" lon="0.50992">
        <ele>17.2</ele>
        <time>2022-05-24 19:43:08</time>
      </trkpt>
      <trkpt lat="40.77593" lon="0.50996">
        <ele>17.4</ele>
        <time>2022-05-24 19:43:09</time>
      </trkpt>
      <trkpt lat="40.77591" lon="0.51001">
        <ele>17.6</ele>
        <time>2022-05-24 19:43:10</time>
      </trkpt>
      <trkpt lat="40.77589" lon="0.51005">
        <ele>17.6</ele>
        <time>2022-05-24 19:43:11</time>
      </trkpt>
      <trkpt lat="40.77587" lon="0.5101">
        <ele>17.8</ele>
        <time>2022-05-24 19:43:12</time>
      </trkpt>
      <trkpt lat="40.77585" lon="0.51014">
        <ele>17.8</ele>
        <time>2022-05-24 19:43:13</time>
      </trkpt>
      <trkpt lat="40.77583" lon="0.5102">
        <ele>18</ele>
        <time>2022-05-24 19:43:14</time>
      </trkpt>
      <trkpt lat="40.77582" lon="0.51025">
        <ele>18.2</ele>
        <time>2022-05-24 19:43:15</time>
      </trkpt>
      <trkpt lat="40.77581" lon="0.5103">
        <ele>18.2</ele>
        <time>2022-05-24 19:43:16</time>
      </trkpt>
      <trkpt lat="40.77579" lon="0.51035">
        <ele>18.4</ele>
        <time>2022-05-24 19:43:17</time>
      </trkpt>
      <trkpt lat="40.77578" lon="0.5104">
        <ele>18.4</ele>
        <time>2022-05-24 19:43:18</time>
      </trkpt>
      <trkpt lat="40.77577" lon="0.51046">
        <ele>18.6</ele>
        <time>2022-05-24 19:43:19</time>
      </trkpt>
      <trkpt lat="40.77576" lon="0.51052">
        <ele>18.6</ele>
        <time>2022-05-24 19:43:20</time>
      </trkpt>
      <trkpt lat="40.77575" lon="0.51058">
        <ele>18.8</ele>
        <time>2022-05-24 19:43:21</time>
      </trkpt>
      <trkpt lat="40.77575" lon="0.51064">
        <ele>18.8</ele>
        <time>2022-05-24 19:43:22</time>
      </trkpt>
      <trkpt lat="40.77574" lon="0.5107">
        <ele>18.8</ele>
        <time>2022-05-24 19:43:23</time>
      </trkpt>
      <trkpt lat="40.77573" lon="0.51076">
        <ele>19</ele>
        <time>2022-05-24 19:43:24</time>
      </trkpt>
      <trkpt lat="40.77573" lon="0.51081">
        <ele>19</ele>
        <time>2022-05-24 19:43:25</time>
      </trkpt>
      <trkpt lat="40.77571" lon="0.51087">
        <ele>19.2</ele>
        <time>2022-05-24 19:43:26</time>
      </trkpt>
      <trkpt lat="40.7757" lon="0.51092">
        <ele>19.2</ele>
        <time>2022-05-24 19:43:27</time>
      </trkpt>
      <trkpt lat="40.77568" lon="0.51098">
        <ele>19.4</ele>
        <time>2022-05-24 19:43:28</time>
      </trkpt>
      <trkpt lat="40.77566" lon="0.51103">
        <ele>19.6</ele>
        <time>2022-05-24 19:43:29</time>
      </trkpt>
      <trkpt lat="40.77564" lon="0.51109">
        <ele>19.8</ele>
        <time>2022-05-24 19:43:30</time>
      </trkpt>
      <trkpt lat="40.77563" lon="0.51114">
        <ele>19.8</ele>
        <time>2022-05-24 19:43:31</time>
      </trkpt>
      <trkpt lat="40.77563" lon="0.51121">
        <ele>20</ele>
        <time>2022-05-24 19:43:32</time>
      </trkpt>
      <trkpt lat="40.77564" lon="0.51126">
        <ele>20</ele>
        <time>2022-05-24 19:43:33</time>
      </trkpt>
      <trkpt lat="40.77565" lon="0.51132">
        <ele>20.2</ele>
        <time>2022-05-24 19:43:34</time>
      </trkpt>
      <trkpt lat="40.77566" lon="0.51137">
        <ele>20.4</ele>
        <time>2022-05-24 19:43:35</time>
      </trkpt>
      <trkpt lat="40.77567" lon="0.51142">
        <ele>20.6</ele>
        <time>2022-05-24 19:43:36</time>
      </trkpt>
      <trkpt lat="40.77568" lon="0.51148">
        <ele>20.8</ele>
        <time>2022-05-24 19:43:37</time>
      </trkpt>
      <trkpt lat="40.7757" lon="0.51153">
        <ele>20.8</ele>
        <time>2022-05-24 19:43:38</time>
      </trkpt>
      <trkpt lat="40.77571" lon="0.51158">
        <ele>21</ele>
        <time>2022-05-24 19:43:39</time>
      </trkpt>
      <trkpt lat="40.77572" lon="0.51164">
        <ele>21.2</ele>
        <time>2022-05-24 19:43:40</time>
      </trkpt>
      <trkpt lat="40.77573" lon="0.51169">
        <ele>21.2</ele>
        <time>2022-05-24 19:43:41</time>
      </trkpt>
      <trkpt lat="40.77573" lon="0.51175">
        <ele>21.4</ele>
        <time>2022-05-24 19:43:42</time>
      </trkpt>
      <trkpt lat="40.77574" lon="0.51181">
        <ele>21.4</ele>
        <time>2022-05-24 19:43:43</time>
      </trkpt>
      <trkpt lat="40.77575" lon="0.51186">
        <ele>21.6</ele>
        <time>2022-05-24 19:43:44</time>
      </trkpt>
      <trkpt lat="40.77575" lon="0.51191">
        <ele>21.8</ele>
        <time>2022-05-24 19:43:45</time>
      </trkpt>
      <trkpt lat="40.77576" lon="0.51196">
        <ele>21.8</ele>
        <time>2022-05-24 19:43:46</time>
      </trkpt>
      <trkpt lat="40.77577" lon="0.51202">
        <ele>22</ele>
        <time>2022-05-24 19:43:47</time>
      </trkpt>
      <trkpt lat="40.77578" lon="0.51207">
        <ele>22</ele>
        <time>2022-05-24 19:43:48</time>
      </trkpt>
      <trkpt lat="40.7758" lon="0.51212">
        <ele>22.2</ele>
        <time>2022-05-24 19:43:49</time>
      </trkpt>
      <trkpt lat="40.77582" lon="0.51218">
        <ele>22.2</ele>
        <time>2022-05-24 19:43:50</time>
      </trkpt>
      <trkpt lat="40.77584" lon="0.51223">
        <ele>22.2</ele>
        <time>2022-05-24 19:43:51</time>
      </trkpt>
      <trkpt lat="40.77585" lon="0.51229">
        <ele>22.2</ele>
        <time>2022-05-24 19:43:52</time>
      </trkpt>
      <trkpt lat="40.77587" lon="0.51235">
        <ele>22.2</ele>
        <time>2022-05-24 19:43:53</time>
      </trkpt>
      <trkpt lat="40.77589" lon="0.51241">
        <ele>22.2</ele>
        <time>2022-05-24 19:43:54</time>
      </trkpt>
      <trkpt lat="40.77591" lon="0.51247">
        <ele>22.2</ele>
        <time>2022-05-24 19:43:55</time>
      </trkpt>
      <trkpt lat="40.77593" lon="0.51253">
        <ele>22.2</ele>
        <time>2022-05-24 19:43:56</time>
      </trkpt>
      <trkpt lat="40.77595" lon="0.51259">
        <ele>22.2</ele>
        <time>2022-05-24 19:43:57</time>
      </trkpt>
      <trkpt lat="40.77597" lon="0.51265">
        <ele>22</ele>
        <time>2022-05-24 19:43:58</time>
      </trkpt>
      <trkpt lat="40.77599" lon="0.51271">
        <ele>22</ele>
        <time>2022-05-24 19:43:59</time>
      </trkpt>
      <trkpt lat="40.77602" lon="0.51278">
        <ele>21.8</ele>
        <time>2022-05-24 19:44:00</time>
      </trkpt>
      <trkpt lat="40.77604" lon="0.51284">
        <ele>21.6</ele>
        <time>2022-05-24 19:44:01</time>
      </trkpt>
      <trkpt lat="40.77607" lon="0.51291">
        <ele>21.4</ele>
        <time>2022-05-24 19:44:02</time>
      </trkpt>
      <trkpt lat="40.7761" lon="0.51299">
        <ele>21</ele>
        <time>2022-05-24 19:44:03</time>
      </trkpt>
      <trkpt lat="40.77613" lon="0.51307">
        <ele>20.6</ele>
        <time>2022-05-24 19:44:04</time>
      </trkpt>
      <trkpt lat="40.77616" lon="0.51315">
        <ele>20.2</ele>
        <time>2022-05-24 19:44:05</time>
      </trkpt>
      <trkpt lat="40.77619" lon="0.51325">
        <ele>19.8</ele>
        <time>2022-05-24 19:44:06</time>
      </trkpt>
      <trkpt lat="40.77621" lon="0.51334">
        <ele>19.2</ele>
        <time>2022-05-24 19:44:07</time>
      </trkpt>
      <trkpt lat="40.77624" lon="0.51345">
        <ele>18.8</ele>
        <time>2022-05-24 19:44:08</time>
      </trkpt>
      <trkpt lat="40.77627" lon="0.51355">
        <ele>18.2</ele>
        <time>2022-05-24 19:44:09</time>
      </trkpt>
      <trkpt lat="40.77629" lon="0.51366">
        <ele>17.6</ele>
        <time>2022-05-24 19:44:10</time>
      </trkpt>
      <trkpt lat="40.77631" lon="0.51377">
        <ele>17</ele>
        <time>2022-05-24 19:44:11</time>
      </trkpt>
      <trkpt lat="40.77632" lon="0.51389">
        <ele>16.4</ele>
        <time>2022-05-24 19:44:12</time>
      </trkpt>
      <trkpt lat="40.77634" lon="0.514">
        <ele>15.8</ele>
        <time>2022-05-24 19:44:13</time>
      </trkpt>
      <trkpt lat="40.77635" lon="0.51413">
        <ele>15.4</ele>
        <time>2022-05-24 19:44:14</time>
      </trkpt>
      <trkpt lat="40.77636" lon="0.51425">
        <ele>15</ele>
        <time>2022-05-24 19:44:15</time>
      </trkpt>
      <trkpt lat="40.77636" lon="0.51437">
        <ele>14.4</ele>
        <time>2022-05-24 19:44:16</time>
      </trkpt>
      <trkpt lat="40.77636" lon="0.51449">
        <ele>14</ele>
        <time>2022-05-24 19:44:17</time>
      </trkpt>
      <trkpt lat="40.77635" lon="0.51461">
        <ele>13.6</ele>
        <time>2022-05-24 19:44:18</time>
      </trkpt>
      <trkpt lat="40.77633" lon="0.51472">
        <ele>13.2</ele>
        <time>2022-05-24 19:44:19</time>
      </trkpt>
      <trkpt lat="40.77632" lon="0.51484">
        <ele>13</ele>
        <time>2022-05-24 19:44:20</time>
      </trkpt>
      <trkpt lat="40.7763" lon="0.51495">
        <ele>12.8</ele>
        <time>2022-05-24 19:44:21</time>
      </trkpt>
      <trkpt lat="40.77628" lon="0.51506">
        <ele>12.6</ele>
        <time>2022-05-24 19:44:22</time>
      </trkpt>
      <trkpt lat="40.77626" lon="0.51517">
        <ele>12.6</ele>
        <time>2022-05-24 19:44:23</time>
      </trkpt>
      <trkpt lat="40.77624" lon="0.51527">
        <ele>12.6</ele>
        <time>2022-05-24 19:44:24</time>
      </trkpt>
      <trkpt lat="40.77622" lon="0.51537">
        <ele>12.6</ele>
        <time>2022-05-24 19:44:25</time>
      </trkpt>
      <trkpt lat="40.7762" lon="0.51547">
        <ele>12.6</ele>
        <time>2022-05-24 19:44:26</time>
      </trkpt>
      <trkpt lat="40.77617" lon="0.51556">
        <ele>12.6</ele>
        <time>2022-05-24 19:44:27</time>
      </trkpt>
      <trkpt lat="40.77615" lon="0.51565">
        <ele>12.8</ele>
        <time>2022-05-24 19:44:28</time>
      </trkpt>
      <trkpt lat="40.77613" lon="0.51575">
        <ele>12.8</ele>
        <time>2022-05-24 19:44:29</time>
      </trkpt>
      <trkpt lat="40.77611" lon="0.51584">
        <ele>12.8</ele>
        <time>2022-05-24 19:44:30</time>
      </trkpt>
      <trkpt lat="40.77609" lon="0.51592">
        <ele>12.8</ele>
        <time>2022-05-24 19:44:31</time>
      </trkpt>
      <trkpt lat="40.77607" lon="0.51601">
        <ele>12.8</ele>
        <time>2022-05-24 19:44:32</time>
      </trkpt>
      <trkpt lat="40.77605" lon="0.5161">
        <ele>12.8</ele>
        <time>2022-05-24 19:44:33</time>
      </trkpt>
      <trkpt lat="40.77603" lon="0.51619">
        <ele>12.8</ele>
        <time>2022-05-24 19:44:34</time>
      </trkpt>
      <trkpt lat="40.77601" lon="0.51628">
        <ele>12.8</ele>
        <time>2022-05-24 19:44:35</time>
      </trkpt>
      <trkpt lat="40.77599" lon="0.51637">
        <ele>12.8</ele>
        <time>2022-05-24 19:44:36</time>
      </trkpt>
      <trkpt lat="40.77597" lon="0.51646">
        <ele>12.8</ele>
        <time>2022-05-24 19:44:37</time>
      </trkpt>
      <trkpt lat="40.77595" lon="0.51654">
        <ele>12.8</ele>
        <time>2022-05-24 19:44:38</time>
      </trkpt>
      <trkpt lat="40.77593" lon="0.51663">
        <ele>12.8</ele>
        <time>2022-05-24 19:44:39</time>
      </trkpt>
      <trkpt lat="40.77591" lon="0.51672">
        <ele>12.8</ele>
        <time>2022-05-24 19:44:40</time>
      </trkpt>
      <trkpt lat="40.77589" lon="0.5168">
        <ele>12.8</ele>
        <time>2022-05-24 19:44:41</time>
      </trkpt>
      <trkpt lat="40.77587" lon="0.51688">
        <ele>12.8</ele>
        <time>2022-05-24 19:44:42</time>
      </trkpt>
      <trkpt lat="40.77586" lon="0.51697">
        <ele>12.8</ele>
        <time>2022-05-24 19:44:43</time>
      </trkpt>
      <trkpt lat="40.77584" lon="0.51705">
        <ele>12.8</ele>
        <time>2022-05-24 19:44:44</time>
      </trkpt>
      <trkpt lat="40.77582" lon="0.51713">
        <ele>13</ele>
        <time>2022-05-24 19:44:45</time>
      </trkpt>
      <trkpt lat="40.7758" lon="0.51721">
        <ele>13</ele>
        <time>2022-05-24 19:44:46</time>
      </trkpt>
      <trkpt lat="40.77578" lon="0.51729">
        <ele>13</ele>
        <time>2022-05-24 19:44:47</time>
      </trkpt>
      <trkpt lat="40.77576" lon="0.51737">
        <ele>13</ele>
        <time>2022-05-24 19:44:48</time>
      </trkpt>
      <trkpt lat="40.77575" lon="0.51745">
        <ele>13</ele>
        <time>2022-05-24 19:44:49</time>
      </trkpt>
      <trkpt lat="40.77573" lon="0.51753">
        <ele>13.2</ele>
        <time>2022-05-24 19:44:50</time>
      </trkpt>
      <trkpt lat="40.77571" lon="0.51761">
        <ele>13.2</ele>
        <time>2022-05-24 19:44:51</time>
      </trkpt>
      <trkpt lat="40.7757" lon="0.51769">
        <ele>13.2</ele>
        <time>2022-05-24 19:44:52</time>
      </trkpt>
      <trkpt lat="40.77569" lon="0.51777">
        <ele>13.2</ele>
        <time>2022-05-24 19:44:53</time>
      </trkpt>
      <trkpt lat="40.77567" lon="0.51785">
        <ele>13.2</ele>
        <time>2022-05-24 19:44:54</time>
      </trkpt>
      <trkpt lat="40.77566" lon="0.51793">
        <ele>13.2</ele>
        <time>2022-05-24 19:44:55</time>
      </trkpt>
      <trkpt lat="40.77565" lon="0.51801">
        <ele>13.2</ele>
        <time>2022-05-24 19:44:56</time>
      </trkpt>
      <trkpt lat="40.77564" lon="0.51809">
        <ele>13.4</ele>
        <time>2022-05-24 19:44:57</time>
      </trkpt>
      <trkpt lat="40.77563" lon="0.51817">
        <ele>13.4</ele>
        <time>2022-05-24 19:44:58</time>
      </trkpt>
      <trkpt lat="40.77563" lon="0.51825">
        <ele>13.4</ele>
        <time>2022-05-24 19:44:59</time>
      </trkpt>
      <trkpt lat="40.77562" lon="0.51833">
        <ele>13.4</ele>
        <time>2022-05-24 19:45:00</time>
      </trkpt>
      <trkpt lat="40.77562" lon="0.51841">
        <ele>13.4</ele>
        <time>2022-05-24 19:45:01</time>
      </trkpt>
      <trkpt lat="40.77562" lon="0.51849">
        <ele>13.4</ele>
        <time>2022-05-24 19:45:02</time>
      </trkpt>
      <trkpt lat="40.77561" lon="0.51857">
        <ele>13.2</ele>
        <time>2022-05-24 19:45:03</time>
      </trkpt>
      <trkpt lat="40.77561" lon="0.51865">
        <ele>13.2</ele>
        <time>2022-05-24 19:45:04</time>
      </trkpt>
      <trkpt lat="40.77561" lon="0.51874">
        <ele>13.2</ele>
        <time>2022-05-24 19:45:05</time>
      </trkpt>
      <trkpt lat="40.77561" lon="0.51882">
        <ele>13.2</ele>
        <time>2022-05-24 19:45:06</time>
      </trkpt>
      <trkpt lat="40.77562" lon="0.5189">
        <ele>13.2</ele>
        <time>2022-05-24 19:45:07</time>
      </trkpt>
      <trkpt lat="40.77562" lon="0.51897">
        <ele>13.2</ele>
        <time>2022-05-24 19:45:08</time>
      </trkpt>
      <trkpt lat="40.77562" lon="0.51905">
        <ele>13.2</ele>
        <time>2022-05-24 19:45:09</time>
      </trkpt>
      <trkpt lat="40.77563" lon="0.51913">
        <ele>13.2</ele>
        <time>2022-05-24 19:45:10</time>
      </trkpt>
      <trkpt lat="40.77563" lon="0.51921">
        <ele>13.2</ele>
        <time>2022-05-24 19:45:11</time>
      </trkpt>
      <trkpt lat="40.77564" lon="0.51928">
        <ele>13.2</ele>
        <time>2022-05-24 19:45:12</time>
      </trkpt>
      <trkpt lat="40.77565" lon="0.51936">
        <ele>13.2</ele>
        <time>2022-05-24 19:45:13</time>
      </trkpt>
      <trkpt lat="40.77565" lon="0.51944">
        <ele>13.2</ele>
        <time>2022-05-24 19:45:14</time>
      </trkpt>
      <trkpt lat="40.77565" lon="0.51952">
        <ele>13.2</ele>
        <time>2022-05-24 19:45:15</time>
      </trkpt>
      <trkpt lat="40.77566" lon="0.5196">
        <ele>13</ele>
        <time>2022-05-24 19:45:16</time>
      </trkpt>
      <trkpt lat="40.77566" lon="0.51968">
        <ele>13</ele>
        <time>2022-05-24 19:45:17</time>
      </trkpt>
      <trkpt lat="40.77567" lon="0.51976">
        <ele>13</ele>
        <time>2022-05-24 19:45:18</time>
      </trkpt>
      <trkpt lat="40.77567" lon="0.51984">
        <ele>13</ele>
        <time>2022-05-24 19:45:19</time>
      </trkpt>
      <trkpt lat="40.77567" lon="0.51992">
        <ele>13</ele>
        <time>2022-05-24 19:45:20</time>
      </trkpt>
      <trkpt lat="40.77567" lon="0.52">
        <ele>13</ele>
        <time>2022-05-24 19:45:21</time>
      </trkpt>
      <trkpt lat="40.77567" lon="0.52008">
        <ele>12.8</ele>
        <time>2022-05-24 19:45:22</time>
      </trkpt>
      <trkpt lat="40.77567" lon="0.52016">
        <ele>13</ele>
        <time>2022-05-24 19:45:23</time>
      </trkpt>
      <trkpt lat="40.77567" lon="0.52024">
        <ele>13</ele>
        <time>2022-05-24 19:45:24</time>
      </trkpt>
      <trkpt lat="40.77566" lon="0.52032">
        <ele>13</ele>
        <time>2022-05-24 19:45:25</time>
      </trkpt>
      <trkpt lat="40.77566" lon="0.5204">
        <ele>12.8</ele>
        <time>2022-05-24 19:45:26</time>
      </trkpt>
      <trkpt lat="40.77565" lon="0.52049">
        <ele>12.8</ele>
        <time>2022-05-24 19:45:27</time>
      </trkpt>
      <trkpt lat="40.77565" lon="0.52056">
        <ele>12.8</ele>
        <time>2022-05-24 19:45:28</time>
      </trkpt>
      <trkpt lat="40.77564" lon="0.52064">
        <ele>12.8</ele>
        <time>2022-05-24 19:45:29</time>
      </trkpt>
      <trkpt lat="40.77563" lon="0.52072">
        <ele>12.8</ele>
        <time>2022-05-24 19:45:30</time>
      </trkpt>
      <trkpt lat="40.77562" lon="0.5208">
        <ele>12.8</ele>
        <time>2022-05-24 19:45:31</time>
      </trkpt>
      <trkpt lat="40.77561" lon="0.52088">
        <ele>12.8</ele>
        <time>2022-05-24 19:45:32</time>
      </trkpt>
      <trkpt lat="40.7756" lon="0.52096">
        <ele>12.8</ele>
        <time>2022-05-24 19:45:33</time>
      </trkpt>
      <trkpt lat="40.77559" lon="0.52104">
        <ele>12.8</ele>
        <time>2022-05-24 19:45:34</time>
      </trkpt>
      <trkpt lat="40.77558" lon="0.52112">
        <ele>12.8</ele>
        <time>2022-05-24 19:45:35</time>
      </trkpt>
      <trkpt lat="40.77557" lon="0.5212">
        <ele>12.8</ele>
        <time>2022-05-24 19:45:36</time>
      </trkpt>
      <trkpt lat="40.77556" lon="0.52128">
        <ele>12.8</ele>
        <time>2022-05-24 19:45:37</time>
      </trkpt>
      <trkpt lat="40.77555" lon="0.52135">
        <ele>12.8</ele>
        <time>2022-05-24 19:45:38</time>
      </trkpt>
      <trkpt lat="40.77554" lon="0.52143">
        <ele>12.8</ele>
        <time>2022-05-24 19:45:39</time>
      </trkpt>
      <trkpt lat="40.77553" lon="0.5215">
        <ele>12.8</ele>
        <time>2022-05-24 19:45:40</time>
      </trkpt>
      <trkpt lat="40.77552" lon="0.52158">
        <ele>12.8</ele>
        <time>2022-05-24 19:45:41</time>
      </trkpt>
      <trkpt lat="40.77551" lon="0.52166">
        <ele>13</ele>
        <time>2022-05-24 19:45:42</time>
      </trkpt>
      <trkpt lat="40.7755" lon="0.52173">
        <ele>12.8</ele>
        <time>2022-05-24 19:45:43</time>
      </trkpt>
      <trkpt lat="40.77549" lon="0.5218">
        <ele>12.8</ele>
        <time>2022-05-24 19:45:44</time>
      </trkpt>
      <trkpt lat="40.77547" lon="0.52187">
        <ele>12.8</ele>
        <time>2022-05-24 19:45:45</time>
      </trkpt>
      <trkpt lat="40.77546" lon="0.52194">
        <ele>12.8</ele>
        <time>2022-05-24 19:45:46</time>
      </trkpt>
      <trkpt lat="40.77545" lon="0.52202">
        <ele>12.8</ele>
        <time>2022-05-24 19:45:47</time>
      </trkpt>
      <trkpt lat="40.77544" lon="0.52209">
        <ele>12.6</ele>
        <time>2022-05-24 19:45:48</time>
      </trkpt>
      <trkpt lat="40.77543" lon="0.52217">
        <ele>12.6</ele>
        <time>2022-05-24 19:45:49</time>
      </trkpt>
      <trkpt lat="40.77542" lon="0.52224">
        <ele>12.6</ele>
        <time>2022-05-24 19:45:50</time>
      </trkpt>
      <trkpt lat="40.77541" lon="0.52232">
        <ele>12.6</ele>
        <time>2022-05-24 19:45:51</time>
      </trkpt>
      <trkpt lat="40.7754" lon="0.5224">
        <ele>12.6</ele>
        <time>2022-05-24 19:45:52</time>
      </trkpt>
      <trkpt lat="40.77539" lon="0.52248">
        <ele>12.6</ele>
        <time>2022-05-24 19:45:53</time>
      </trkpt>
      <trkpt lat="40.77538" lon="0.52257">
        <ele>12.4</ele>
        <time>2022-05-24 19:45:54</time>
      </trkpt>
      <trkpt lat="40.77537" lon="0.52265">
        <ele>12.4</ele>
        <time>2022-05-24 19:45:55</time>
      </trkpt>
      <trkpt lat="40.77536" lon="0.52273">
        <ele>12.4</ele>
        <time>2022-05-24 19:45:56</time>
      </trkpt>
      <trkpt lat="40.77534" lon="0.52281">
        <ele>12.4</ele>
        <time>2022-05-24 19:45:57</time>
      </trkpt>
      <trkpt lat="40.77533" lon="0.52289">
        <ele>12.4</ele>
        <time>2022-05-24 19:45:58</time>
      </trkpt>
      <trkpt lat="40.77532" lon="0.52297">
        <ele>12.4</ele>
        <time>2022-05-24 19:45:59</time>
      </trkpt>
      <trkpt lat="40.77531" lon="0.52305">
        <ele>12.4</ele>
        <time>2022-05-24 19:46:00</time>
      </trkpt>
      <trkpt lat="40.7753" lon="0.52314">
        <ele>12.4</ele>
        <time>2022-05-24 19:46:01</time>
      </trkpt>
      <trkpt lat="40.77528" lon="0.52322">
        <ele>12.2</ele>
        <time>2022-05-24 19:46:02</time>
      </trkpt>
      <trkpt lat="40.77528" lon="0.5233">
        <ele>12.2</ele>
        <time>2022-05-24 19:46:03</time>
      </trkpt>
      <trkpt lat="40.77526" lon="0.52339">
        <ele>12.2</ele>
        <time>2022-05-24 19:46:04</time>
      </trkpt>
      <trkpt lat="40.77525" lon="0.52347">
        <ele>12.2</ele>
        <time>2022-05-24 19:46:05</time>
      </trkpt>
      <trkpt lat="40.77524" lon="0.52355">
        <ele>12.2</ele>
        <time>2022-05-24 19:46:06</time>
      </trkpt>
      <trkpt lat="40.77523" lon="0.52364">
        <ele>12.2</ele>
        <time>2022-05-24 19:46:07</time>
      </trkpt>
      <trkpt lat="40.77521" lon="0.52371">
        <ele>12.4</ele>
        <time>2022-05-24 19:46:08</time>
      </trkpt>
      <trkpt lat="40.7752" lon="0.52379">
        <ele>12.4</ele>
        <time>2022-05-24 19:46:09</time>
      </trkpt>
      <trkpt lat="40.77519" lon="0.52386">
        <ele>12.4</ele>
        <time>2022-05-24 19:46:10</time>
      </trkpt>
      <trkpt lat="40.77517" lon="0.52394">
        <ele>12.4</ele>
        <time>2022-05-24 19:46:11</time>
      </trkpt>
      <trkpt lat="40.77516" lon="0.52401">
        <ele>12.4</ele>
        <time>2022-05-24 19:46:12</time>
      </trkpt>
      <trkpt lat="40.77515" lon="0.52409">
        <ele>12.4</ele>
        <time>2022-05-24 19:46:13</time>
      </trkpt>
      <trkpt lat="40.77513" lon="0.52417">
        <ele>12.4</ele>
        <time>2022-05-24 19:46:14</time>
      </trkpt>
      <trkpt lat="40.77511" lon="0.52424">
        <ele>12.4</ele>
        <time>2022-05-24 19:46:15</time>
      </trkpt>
      <trkpt lat="40.77509" lon="0.52432">
        <ele>12.4</ele>
        <time>2022-05-24 19:46:16</time>
      </trkpt>
      <trkpt lat="40.77507" lon="0.5244">
        <ele>12.4</ele>
        <time>2022-05-24 19:46:17</time>
      </trkpt>
      <trkpt lat="40.77505" lon="0.52448">
        <ele>12.2</ele>
        <time>2022-05-24 19:46:18</time>
      </trkpt>
      <trkpt lat="40.77504" lon="0.52456">
        <ele>12.2</ele>
        <time>2022-05-24 19:46:19</time>
      </trkpt>
      <trkpt lat="40.77502" lon="0.52464">
        <ele>12.4</ele>
        <time>2022-05-24 19:46:20</time>
      </trkpt>
      <trkpt lat="40.775" lon="0.52472">
        <ele>12.4</ele>
        <time>2022-05-24 19:46:21</time>
      </trkpt>
      <trkpt lat="40.77498" lon="0.52479">
        <ele>12.4</ele>
        <time>2022-05-24 19:46:22</time>
      </trkpt>
      <trkpt lat="40.77496" lon="0.52487">
        <ele>12.4</ele>
        <time>2022-05-24 19:46:23</time>
      </trkpt>
      <trkpt lat="40.77494" lon="0.52495">
        <ele>12.4</ele>
        <time>2022-05-24 19:46:24</time>
      </trkpt>
      <trkpt lat="40.77492" lon="0.52502">
        <ele>12.4</ele>
        <time>2022-05-24 19:46:25</time>
      </trkpt>
      <trkpt lat="40.77489" lon="0.52509">
        <ele>12.4</ele>
        <time>2022-05-24 19:46:26</time>
      </trkpt>
      <trkpt lat="40.77487" lon="0.52516">
        <ele>12.4</ele>
        <time>2022-05-24 19:46:27</time>
      </trkpt>
      <trkpt lat="40.77485" lon="0.52523">
        <ele>12.4</ele>
        <time>2022-05-24 19:46:28</time>
      </trkpt>
      <trkpt lat="40.77482" lon="0.5253">
        <ele>12.4</ele>
        <time>2022-05-24 19:46:29</time>
      </trkpt>
      <trkpt lat="40.7748" lon="0.52537">
        <ele>12.4</ele>
        <time>2022-05-24 19:46:30</time>
      </trkpt>
      <trkpt lat="40.77477" lon="0.52544">
        <ele>12.4</ele>
        <time>2022-05-24 19:46:31</time>
      </trkpt>
      <trkpt lat="40.77473" lon="0.52551">
        <ele>12.4</ele>
        <time>2022-05-24 19:46:32</time>
      </trkpt>
      <trkpt lat="40.7747" lon="0.52558">
        <ele>12.4</ele>
        <time>2022-05-24 19:46:33</time>
      </trkpt>
      <trkpt lat="40.77467" lon="0.52564">
        <ele>12.4</ele>
        <time>2022-05-24 19:46:34</time>
      </trkpt>
      <trkpt lat="40.77464" lon="0.52571">
        <ele>12.4</ele>
        <time>2022-05-24 19:46:35</time>
      </trkpt>
      <trkpt lat="40.77461" lon="0.52577">
        <ele>12.4</ele>
        <time>2022-05-24 19:46:36</time>
      </trkpt>
      <trkpt lat="40.77457" lon="0.52584">
        <ele>12.4</ele>
        <time>2022-05-24 19:46:37</time>
      </trkpt>
      <trkpt lat="40.77454" lon="0.5259">
        <ele>12.4</ele>
        <time>2022-05-24 19:46:38</time>
      </trkpt>
      <trkpt lat="40.77451" lon="0.52597">
        <ele>12.4</ele>
        <time>2022-05-24 19:46:39</time>
      </trkpt>
      <trkpt lat="40.77447" lon="0.52603">
        <ele>12.4</ele>
        <time>2022-05-24 19:46:40</time>
      </trkpt>
      <trkpt lat="40.77444" lon="0.52609">
        <ele>12.4</ele>
        <time>2022-05-24 19:46:41</time>
      </trkpt>
      <trkpt lat="40.7744" lon="0.52615">
        <ele>12.4</ele>
        <time>2022-05-24 19:46:42</time>
      </trkpt>
      <trkpt lat="40.77436" lon="0.52621">
        <ele>12.4</ele>
        <time>2022-05-24 19:46:43</time>
      </trkpt>
      <trkpt lat="40.77433" lon="0.52627">
        <ele>12.4</ele>
        <time>2022-05-24 19:46:44</time>
      </trkpt>
      <trkpt lat="40.77429" lon="0.52633">
        <ele>12.4</ele>
        <time>2022-05-24 19:46:45</time>
      </trkpt>
      <trkpt lat="40.77425" lon="0.52639">
        <ele>12.4</ele>
        <time>2022-05-24 19:46:46</time>
      </trkpt>
      <trkpt lat="40.77421" lon="0.52645">
        <ele>12.4</ele>
        <time>2022-05-24 19:46:47</time>
      </trkpt>
      <trkpt lat="40.77417" lon="0.5265">
        <ele>12.4</ele>
        <time>2022-05-24 19:46:48</time>
      </trkpt>
      <trkpt lat="40.77413" lon="0.52656">
        <ele>12.4</ele>
        <time>2022-05-24 19:46:49</time>
      </trkpt>
      <trkpt lat="40.77409" lon="0.52661">
        <ele>12.4</ele>
        <time>2022-05-24 19:46:50</time>
      </trkpt>
      <trkpt lat="40.77405" lon="0.52667">
        <ele>12.4</ele>
        <time>2022-05-24 19:46:51</time>
      </trkpt>
      <trkpt lat="40.77401" lon="0.52672">
        <ele>12.4</ele>
        <time>2022-05-24 19:46:52</time>
      </trkpt>
      <trkpt lat="40.77397" lon="0.52677">
        <ele>12.4</ele>
        <time>2022-05-24 19:46:53</time>
      </trkpt>
      <trkpt lat="40.77393" lon="0.52682">
        <ele>12.4</ele>
        <time>2022-05-24 19:46:54</time>
      </trkpt>
      <trkpt lat="40.77389" lon="0.52687">
        <ele>12.4</ele>
        <time>2022-05-24 19:46:55</time>
      </trkpt>
      <trkpt lat="40.77385" lon="0.52692">
        <ele>12.4</ele>
        <time>2022-05-24 19:46:56</time>
      </trkpt>
      <trkpt lat="40.7738" lon="0.52697">
        <ele>12.4</ele>
        <time>2022-05-24 19:46:57</time>
      </trkpt>
      <trkpt lat="40.77375" lon="0.52702">
        <ele>12.4</ele>
        <time>2022-05-24 19:46:58</time>
      </trkpt>
      <trkpt lat="40.77371" lon="0.52707">
        <ele>12.4</ele>
        <time>2022-05-24 19:46:59</time>
      </trkpt>
      <trkpt lat="40.77367" lon="0.52712">
        <ele>12.4</ele>
        <time>2022-05-24 19:47:00</time>
      </trkpt>
      <trkpt lat="40.77362" lon="0.52716">
        <ele>12.4</ele>
        <time>2022-05-24 19:47:01</time>
      </trkpt>
      <trkpt lat="40.77357" lon="0.52721">
        <ele>12.6</ele>
        <time>2022-05-24 19:47:02</time>
      </trkpt>
      <trkpt lat="40.77353" lon="0.52725">
        <ele>12.6</ele>
        <time>2022-05-24 19:47:03</time>
      </trkpt>
      <trkpt lat="40.77348" lon="0.5273">
        <ele>12.6</ele>
        <time>2022-05-24 19:47:04</time>
      </trkpt>
      <trkpt lat="40.77343" lon="0.52734">
        <ele>12.6</ele>
        <time>2022-05-24 19:47:05</time>
      </trkpt>
      <trkpt lat="40.77338" lon="0.52739">
        <ele>12.8</ele>
        <time>2022-05-24 19:47:06</time>
      </trkpt>
      <trkpt lat="40.77334" lon="0.52743">
        <ele>12.8</ele>
        <time>2022-05-24 19:47:07</time>
      </trkpt>
      <trkpt lat="40.77329" lon="0.52747">
        <ele>12.8</ele>
        <time>2022-05-24 19:47:08</time>
      </trkpt>
      <trkpt lat="40.77324" lon="0.52751">
        <ele>12.8</ele>
        <time>2022-05-24 19:47:09</time>
      </trkpt>
      <trkpt lat="40.7732" lon="0.52756">
        <ele>12.8</ele>
        <time>2022-05-24 19:47:10</time>
      </trkpt>
      <trkpt lat="40.77315" lon="0.5276">
        <ele>13</ele>
        <time>2022-05-24 19:47:11</time>
      </trkpt>
      <trkpt lat="40.77311" lon="0.52765">
        <ele>13</ele>
        <time>2022-05-24 19:47:12</time>
      </trkpt>
      <trkpt lat="40.77306" lon="0.52769">
        <ele>13</ele>
        <time>2022-05-24 19:47:13</time>
      </trkpt>
      <trkpt lat="40.77301" lon="0.52773">
        <ele>13</ele>
        <time>2022-05-24 19:47:14</time>
      </trkpt>
      <trkpt lat="40.77296" lon="0.52778">
        <ele>13</ele>
        <time>2022-05-24 19:47:15</time>
      </trkpt>
      <trkpt lat="40.77292" lon="0.52782">
        <ele>13</ele>
        <time>2022-05-24 19:47:16</time>
      </trkpt>
      <trkpt lat="40.77287" lon="0.52786">
        <ele>13.2</ele>
        <time>2022-05-24 19:47:17</time>
      </trkpt>
      <trkpt lat="40.77283" lon="0.52791">
        <ele>13.2</ele>
        <time>2022-05-24 19:47:18</time>
      </trkpt>
      <trkpt lat="40.77278" lon="0.52795">
        <ele>13.2</ele>
        <time>2022-05-24 19:47:19</time>
      </trkpt>
      <trkpt lat="40.77273" lon="0.528">
        <ele>13.4</ele>
        <time>2022-05-24 19:47:20</time>
      </trkpt>
      <trkpt lat="40.77269" lon="0.52804">
        <ele>13.4</ele>
        <time>2022-05-24 19:47:21</time>
      </trkpt>
      <trkpt lat="40.77264" lon="0.52809">
        <ele>13.6</ele>
        <time>2022-05-24 19:47:22</time>
      </trkpt>
      <trkpt lat="40.77259" lon="0.52813">
        <ele>13.6</ele>
        <time>2022-05-24 19:47:23</time>
      </trkpt>
      <trkpt lat="40.77254" lon="0.52818">
        <ele>13.6</ele>
        <time>2022-05-24 19:47:24</time>
      </trkpt>
      <trkpt lat="40.7725" lon="0.52822">
        <ele>13.6</ele>
        <time>2022-05-24 19:47:25</time>
      </trkpt>
      <trkpt lat="40.77245" lon="0.52826">
        <ele>13.6</ele>
        <time>2022-05-24 19:47:26</time>
      </trkpt>
      <trkpt lat="40.7724" lon="0.52831">
        <ele>13.6</ele>
        <time>2022-05-24 19:47:27</time>
      </trkpt>
      <trkpt lat="40.77235" lon="0.52835">
        <ele>13.4</ele>
        <time>2022-05-24 19:47:28</time>
      </trkpt>
      <trkpt lat="40.7723" lon="0.5284">
        <ele>13.4</ele>
        <time>2022-05-24 19:47:29</time>
      </trkpt>
      <trkpt lat="40.77224" lon="0.52844">
        <ele>13.4</ele>
        <time>2022-05-24 19:47:30</time>
      </trkpt>
      <trkpt lat="40.7722" lon="0.52849">
        <ele>13.4</ele>
        <time>2022-05-24 19:47:31</time>
      </trkpt>
      <trkpt lat="40.77214" lon="0.52854">
        <ele>13.4</ele>
        <time>2022-05-24 19:47:32</time>
      </trkpt>
      <trkpt lat="40.77209" lon="0.52858">
        <ele>13.4</ele>
        <time>2022-05-24 19:47:33</time>
      </trkpt>
      <trkpt lat="40.77204" lon="0.52863">
        <ele>13.4</ele>
        <time>2022-05-24 19:47:34</time>
      </trkpt>
      <trkpt lat="40.77199" lon="0.52868">
        <ele>13.2</ele>
        <time>2022-05-24 19:47:35</time>
      </trkpt>
      <trkpt lat="40.77193" lon="0.52873">
        <ele>13.2</ele>
        <time>2022-05-24 19:47:36</time>
      </trkpt>
      <trkpt lat="40.77188" lon="0.52877">
        <ele>13</ele>
        <time>2022-05-24 19:47:37</time>
      </trkpt>
      <trkpt lat="40.77183" lon="0.52882">
        <ele>13</ele>
        <time>2022-05-24 19:47:38</time>
      </trkpt>
      <trkpt lat="40.77177" lon="0.52887">
        <ele>13</ele>
        <time>2022-05-24 19:47:39</time>
      </trkpt>
      <trkpt lat="40.77172" lon="0.52892">
        <ele>13</ele>
        <time>2022-05-24 19:47:40</time>
      </trkpt>
      <trkpt lat="40.77167" lon="0.52897">
        <ele>12.8</ele>
        <time>2022-05-24 19:47:41</time>
      </trkpt>
      <trkpt lat="40.77161" lon="0.52901">
        <ele>12.8</ele>
        <time>2022-05-24 19:47:42</time>
      </trkpt>
      <trkpt lat="40.77156" lon="0.52905">
        <ele>12.6</ele>
        <time>2022-05-24 19:47:43</time>
      </trkpt>
      <trkpt lat="40.7715" lon="0.5291">
        <ele>12.6</ele>
        <time>2022-05-24 19:47:44</time>
      </trkpt>
      <trkpt lat="40.77145" lon="0.52914">
        <ele>12.6</ele>
        <time>2022-05-24 19:47:45</time>
      </trkpt>
      <trkpt lat="40.7714" lon="0.52918">
        <ele>12.6</ele>
        <time>2022-05-24 19:47:46</time>
      </trkpt>
      <trkpt lat="40.77134" lon="0.52922">
        <ele>12.4</ele>
        <time>2022-05-24 19:47:47</time>
      </trkpt>
      <trkpt lat="40.77129" lon="0.52926">
        <ele>12.4</ele>
        <time>2022-05-24 19:47:48</time>
      </trkpt>
      <trkpt lat="40.77124" lon="0.52929">
        <ele>12.4</ele>
        <time>2022-05-24 19:47:49</time>
      </trkpt>
      <trkpt lat="40.77119" lon="0.52932">
        <ele>12.4</ele>
        <time>2022-05-24 19:47:50</time>
      </trkpt>
      <trkpt lat="40.77114" lon="0.52935">
        <ele>12.4</ele>
        <time>2022-05-24 19:47:51</time>
      </trkpt>
      <trkpt lat="40.77109" lon="0.52938">
        <ele>12.4</ele>
        <time>2022-05-24 19:47:52</time>
      </trkpt>
      <trkpt lat="40.77104" lon="0.52941">
        <ele>12.2</ele>
        <time>2022-05-24 19:47:53</time>
      </trkpt>
      <trkpt lat="40.77098" lon="0.52944">
        <ele>12.2</ele>
        <time>2022-05-24 19:47:54</time>
      </trkpt>
      <trkpt lat="40.77093" lon="0.52947">
        <ele>12.2</ele>
        <time>2022-05-24 19:47:55</time>
      </trkpt>
      <trkpt lat="40.77088" lon="0.52949">
        <ele>12.2</ele>
        <time>2022-05-24 19:47:56</time>
      </trkpt>
      <trkpt lat="40.77083" lon="0.52952">
        <ele>12.2</ele>
        <time>2022-05-24 19:47:57</time>
      </trkpt>
      <trkpt lat="40.77078" lon="0.52954">
        <ele>12.2</ele>
        <time>2022-05-24 19:47:58</time>
      </trkpt>
      <trkpt lat="40.77073" lon="0.52957">
        <ele>12.2</ele>
        <time>2022-05-24 19:47:59</time>
      </trkpt>
      <trkpt lat="40.77068" lon="0.5296">
        <ele>12.2</ele>
        <time>2022-05-24 19:48:00</time>
      </trkpt>
      <trkpt lat="40.77063" lon="0.52962">
        <ele>12</ele>
        <time>2022-05-24 19:48:01</time>
      </trkpt>
      <trkpt lat="40.77058" lon="0.52965">
        <ele>12</ele>
        <time>2022-05-24 19:48:02</time>
      </trkpt>
      <trkpt lat="40.77053" lon="0.52967">
        <ele>12</ele>
        <time>2022-05-24 19:48:03</time>
      </trkpt>
      <trkpt lat="40.77048" lon="0.52969">
        <ele>12</ele>
        <time>2022-05-24 19:48:04</time>
      </trkpt>
      <trkpt lat="40.77043" lon="0.52972">
        <ele>12</ele>
        <time>2022-05-24 19:48:05</time>
      </trkpt>
      <trkpt lat="40.77039" lon="0.52974">
        <ele>12</ele>
        <time>2022-05-24 19:48:06</time>
      </trkpt>
      <trkpt lat="40.77034" lon="0.52976">
        <ele>12</ele>
        <time>2022-05-24 19:48:07</time>
      </trkpt>
      <trkpt lat="40.77029" lon="0.52979">
        <ele>12</ele>
        <time>2022-05-24 19:48:08</time>
      </trkpt>
      <trkpt lat="40.77024" lon="0.52981">
        <ele>12</ele>
        <time>2022-05-24 19:48:09</time>
      </trkpt>
      <trkpt lat="40.77019" lon="0.52984">
        <ele>11.8</ele>
        <time>2022-05-24 19:48:10</time>
      </trkpt>
      <trkpt lat="40.77013" lon="0.52986">
        <ele>11.8</ele>
        <time>2022-05-24 19:48:11</time>
      </trkpt>
      <trkpt lat="40.77008" lon="0.52989">
        <ele>11.8</ele>
        <time>2022-05-24 19:48:12</time>
      </trkpt>
      <trkpt lat="40.77003" lon="0.52991">
        <ele>11.8</ele>
        <time>2022-05-24 19:48:13</time>
      </trkpt>
      <trkpt lat="40.76998" lon="0.52993">
        <ele>11.8</ele>
        <time>2022-05-24 19:48:14</time>
      </trkpt>
      <trkpt lat="40.76992" lon="0.52996">
        <ele>11.8</ele>
        <time>2022-05-24 19:48:15</time>
      </trkpt>
      <trkpt lat="40.76987" lon="0.52999">
        <ele>11.8</ele>
        <time>2022-05-24 19:48:16</time>
      </trkpt>
      <trkpt lat="40.76981" lon="0.53001">
        <ele>11.8</ele>
        <time>2022-05-24 19:48:17</time>
      </trkpt>
      <trkpt lat="40.76976" lon="0.53004">
        <ele>11.6</ele>
        <time>2022-05-24 19:48:18</time>
      </trkpt>
      <trkpt lat="40.7697" lon="0.53007">
        <ele>11.6</ele>
        <time>2022-05-24 19:48:19</time>
      </trkpt>
      <trkpt lat="40.76964" lon="0.5301">
        <ele>11.6</ele>
        <time>2022-05-24 19:48:20</time>
      </trkpt>
      <trkpt lat="40.76958" lon="0.53013">
        <ele>11.6</ele>
        <time>2022-05-24 19:48:21</time>
      </trkpt>
      <trkpt lat="40.76952" lon="0.53015">
        <ele>11.6</ele>
        <time>2022-05-24 19:48:22</time>
      </trkpt>
      <trkpt lat="40.76946" lon="0.53018">
        <ele>11.6</ele>
        <time>2022-05-24 19:48:23</time>
      </trkpt>
      <trkpt lat="40.76941" lon="0.53021">
        <ele>11.6</ele>
        <time>2022-05-24 19:48:24</time>
      </trkpt>
      <trkpt lat="40.76935" lon="0.53023">
        <ele>11.6</ele>
        <time>2022-05-24 19:48:25</time>
      </trkpt>
      <trkpt lat="40.7693" lon="0.53026">
        <ele>11.6</ele>
        <time>2022-05-24 19:48:26</time>
      </trkpt>
      <trkpt lat="40.76924" lon="0.53029">
        <ele>11.6</ele>
        <time>2022-05-24 19:48:27</time>
      </trkpt>
      <trkpt lat="40.76918" lon="0.53031">
        <ele>11.6</ele>
        <time>2022-05-24 19:48:28</time>
      </trkpt>
      <trkpt lat="40.76913" lon="0.53034">
        <ele>11.6</ele>
        <time>2022-05-24 19:48:29</time>
      </trkpt>
      <trkpt lat="40.76907" lon="0.53036">
        <ele>11.6</ele>
        <time>2022-05-24 19:48:30</time>
      </trkpt>
      <trkpt lat="40.76902" lon="0.53039">
        <ele>11.8</ele>
        <time>2022-05-24 19:48:31</time>
      </trkpt>
      <trkpt lat="40.76896" lon="0.53042">
        <ele>11.8</ele>
        <time>2022-05-24 19:48:32</time>
      </trkpt>
      <trkpt lat="40.7689" lon="0.53045">
        <ele>11.8</ele>
        <time>2022-05-24 19:48:33</time>
      </trkpt>
      <trkpt lat="40.76885" lon="0.53047">
        <ele>12</ele>
        <time>2022-05-24 19:48:34</time>
      </trkpt>
      <trkpt lat="40.76879" lon="0.5305">
        <ele>12</ele>
        <time>2022-05-24 19:48:35</time>
      </trkpt>
      <trkpt lat="40.76873" lon="0.53052">
        <ele>12</ele>
        <time>2022-05-24 19:48:36</time>
      </trkpt>
      <trkpt lat="40.76868" lon="0.53055">
        <ele>12</ele>
        <time>2022-05-24 19:48:37</time>
      </trkpt>
      <trkpt lat="40.76862" lon="0.53058">
        <ele>12</ele>
        <time>2022-05-24 19:48:38</time>
      </trkpt>
      <trkpt lat="40.76857" lon="0.5306">
        <ele>12</ele>
        <time>2022-05-24 19:48:39</time>
      </trkpt>
      <trkpt lat="40.76851" lon="0.53063">
        <ele>11.8</ele>
        <time>2022-05-24 19:48:40</time>
      </trkpt>
      <trkpt lat="40.76846" lon="0.53066">
        <ele>11.8</ele>
        <time>2022-05-24 19:48:41</time>
      </trkpt>
      <trkpt lat="40.7684" lon="0.53068">
        <ele>11.8</ele>
        <time>2022-05-24 19:48:42</time>
      </trkpt>
      <trkpt lat="40.76834" lon="0.53071">
        <ele>11.8</ele>
        <time>2022-05-24 19:48:43</time>
      </trkpt>
      <trkpt lat="40.76829" lon="0.53073">
        <ele>11.8</ele>
        <time>2022-05-24 19:48:44</time>
      </trkpt>
      <trkpt lat="40.76823" lon="0.53076">
        <ele>11.8</ele>
        <time>2022-05-24 19:48:45</time>
      </trkpt>
      <trkpt lat="40.76818" lon="0.53079">
        <ele>11.8</ele>
        <time>2022-05-24 19:48:46</time>
      </trkpt>
      <trkpt lat="40.76812" lon="0.53081">
        <ele>12</ele>
        <time>2022-05-24 19:48:47</time>
      </trkpt>
      <trkpt lat="40.76807" lon="0.53084">
        <ele>11.8</ele>
        <time>2022-05-24 19:48:48</time>
      </trkpt>
      <trkpt lat="40.76802" lon="0.53087">
        <ele>11.8</ele>
        <time>2022-05-24 19:48:49</time>
      </trkpt>
      <trkpt lat="40.76796" lon="0.53089">
        <ele>11.8</ele>
        <time>2022-05-24 19:48:50</time>
      </trkpt>
      <trkpt lat="40.76791" lon="0.53092">
        <ele>11.8</ele>
        <time>2022-05-24 19:48:51</time>
      </trkpt>
      <trkpt lat="40.76785" lon="0.53094">
        <ele>11.8</ele>
        <time>2022-05-24 19:48:52</time>
      </trkpt>
      <trkpt lat="40.7678" lon="0.53097">
        <ele>11.8</ele>
        <time>2022-05-24 19:48:53</time>
      </trkpt>
      <trkpt lat="40.76775" lon="0.53099">
        <ele>11.8</ele>
        <time>2022-05-24 19:48:54</time>
      </trkpt>
      <trkpt lat="40.76769" lon="0.53102">
        <ele>11.8</ele>
        <time>2022-05-24 19:48:55</time>
      </trkpt>
      <trkpt lat="40.76764" lon="0.53104">
        <ele>11.8</ele>
        <time>2022-05-24 19:48:56</time>
      </trkpt>
      <trkpt lat="40.76759" lon="0.53107">
        <ele>11.8</ele>
        <time>2022-05-24 19:48:57</time>
      </trkpt>
      <trkpt lat="40.76753" lon="0.5311">
        <ele>12</ele>
        <time>2022-05-24 19:48:58</time>
      </trkpt>
      <trkpt lat="40.76748" lon="0.53112">
        <ele>12</ele>
        <time>2022-05-24 19:48:59</time>
      </trkpt>
      <trkpt lat="40.76743" lon="0.53115">
        <ele>12</ele>
        <time>2022-05-24 19:49:00</time>
      </trkpt>
      <trkpt lat="40.76737" lon="0.53117">
        <ele>12</ele>
        <time>2022-05-24 19:49:01</time>
      </trkpt>
      <trkpt lat="40.76731" lon="0.5312">
        <ele>12</ele>
        <time>2022-05-24 19:49:02</time>
      </trkpt>
      <trkpt lat="40.76726" lon="0.53122">
        <ele>12</ele>
        <time>2022-05-24 19:49:03</time>
      </trkpt>
      <trkpt lat="40.76721" lon="0.53125">
        <ele>12</ele>
        <time>2022-05-24 19:49:04</time>
      </trkpt>
      <trkpt lat="40.76715" lon="0.53128">
        <ele>12</ele>
        <time>2022-05-24 19:49:05</time>
      </trkpt>
      <trkpt lat="40.7671" lon="0.5313">
        <ele>12</ele>
        <time>2022-05-24 19:49:06</time>
      </trkpt>
      <trkpt lat="40.76705" lon="0.53133">
        <ele>12</ele>
        <time>2022-05-24 19:49:07</time>
      </trkpt>
      <trkpt lat="40.767" lon="0.53135">
        <ele>12</ele>
        <time>2022-05-24 19:49:08</time>
      </trkpt>
      <trkpt lat="40.76695" lon="0.53138">
        <ele>12</ele>
        <time>2022-05-24 19:49:09</time>
      </trkpt>
      <trkpt lat="40.7669" lon="0.5314">
        <ele>12</ele>
        <time>2022-05-24 19:49:10</time>
      </trkpt>
      <trkpt lat="40.76684" lon="0.53142">
        <ele>12</ele>
        <time>2022-05-24 19:49:11</time>
      </trkpt>
      <trkpt lat="40.76679" lon="0.53145">
        <ele>12</ele>
        <time>2022-05-24 19:49:12</time>
      </trkpt>
      <trkpt lat="40.76674" lon="0.53148">
        <ele>12</ele>
        <time>2022-05-24 19:49:13</time>
      </trkpt>
      <trkpt lat="40.76669" lon="0.5315">
        <ele>12</ele>
        <time>2022-05-24 19:49:14</time>
      </trkpt>
      <trkpt lat="40.76663" lon="0.53153">
        <ele>12</ele>
        <time>2022-05-24 19:49:15</time>
      </trkpt>
      <trkpt lat="40.76658" lon="0.53155">
        <ele>12</ele>
        <time>2022-05-24 19:49:16</time>
      </trkpt>
      <trkpt lat="40.76653" lon="0.53158">
        <ele>12</ele>
        <time>2022-05-24 19:49:17</time>
      </trkpt>
      <trkpt lat="40.76648" lon="0.5316">
        <ele>12</ele>
        <time>2022-05-24 19:49:18</time>
      </trkpt>
      <trkpt lat="40.76642" lon="0.53162">
        <ele>12</ele>
        <time>2022-05-24 19:49:19</time>
      </trkpt>
      <trkpt lat="40.76637" lon="0.53165">
        <ele>12</ele>
        <time>2022-05-24 19:49:20</time>
      </trkpt>
      <trkpt lat="40.76632" lon="0.53167">
        <ele>11.8</ele>
        <time>2022-05-24 19:49:21</time>
      </trkpt>
      <trkpt lat="40.76627" lon="0.5317">
        <ele>12</ele>
        <time>2022-05-24 19:49:22</time>
      </trkpt>
      <trkpt lat="40.76621" lon="0.53172">
        <ele>12</ele>
        <time>2022-05-24 19:49:23</time>
      </trkpt>
      <trkpt lat="40.76616" lon="0.53175">
        <ele>12</ele>
        <time>2022-05-24 19:49:24</time>
      </trkpt>
      <trkpt lat="40.76611" lon="0.53177">
        <ele>12</ele>
        <time>2022-05-24 19:49:25</time>
      </trkpt>
      <trkpt lat="40.76606" lon="0.5318">
        <ele>12</ele>
        <time>2022-05-24 19:49:26</time>
      </trkpt>
      <trkpt lat="40.76601" lon="0.53182">
        <ele>12</ele>
        <time>2022-05-24 19:49:27</time>
      </trkpt>
      <trkpt lat="40.76596" lon="0.53185">
        <ele>12</ele>
        <time>2022-05-24 19:49:28</time>
      </trkpt>
      <trkpt lat="40.76591" lon="0.53187">
        <ele>12</ele>
        <time>2022-05-24 19:49:29</time>
      </trkpt>
      <trkpt lat="40.76585" lon="0.5319">
        <ele>12</ele>
        <time>2022-05-24 19:49:30</time>
      </trkpt>
      <trkpt lat="40.7658" lon="0.53192">
        <ele>12.2</ele>
        <time>2022-05-24 19:49:31</time>
      </trkpt>
      <trkpt lat="40.76576" lon="0.53194">
        <ele>12</ele>
        <time>2022-05-24 19:49:32</time>
      </trkpt>
      <trkpt lat="40.76571" lon="0.53197">
        <ele>12.2</ele>
        <time>2022-05-24 19:49:33</time>
      </trkpt>
      <trkpt lat="40.76565" lon="0.53199">
        <ele>12.2</ele>
        <time>2022-05-24 19:49:34</time>
      </trkpt>
      <trkpt lat="40.7656" lon="0.53202">
        <ele>12</ele>
        <time>2022-05-24 19:49:35</time>
      </trkpt>
      <trkpt lat="40.76555" lon="0.53204">
        <ele>12</ele>
        <time>2022-05-24 19:49:36</time>
      </trkpt>
      <trkpt lat="40.7655" lon="0.53206">
        <ele>12</ele>
        <time>2022-05-24 19:49:37</time>
      </trkpt>
      <trkpt lat="40.76545" lon="0.53208">
        <ele>12</ele>
        <time>2022-05-24 19:49:38</time>
      </trkpt>
      <trkpt lat="40.76539" lon="0.53211">
        <ele>12</ele>
        <time>2022-05-24 19:49:39</time>
      </trkpt>
      <trkpt lat="40.76534" lon="0.53213">
        <ele>12</ele>
        <time>2022-05-24 19:49:40</time>
      </trkpt>
      <trkpt lat="40.7653" lon="0.53216">
        <ele>12</ele>
        <time>2022-05-24 19:49:41</time>
      </trkpt>
      <trkpt lat="40.76524" lon="0.53218">
        <ele>12</ele>
        <time>2022-05-24 19:49:42</time>
      </trkpt>
      <trkpt lat="40.76519" lon="0.53221">
        <ele>12</ele>
        <time>2022-05-24 19:49:43</time>
      </trkpt>
      <trkpt lat="40.76514" lon="0.53223">
        <ele>12</ele>
        <time>2022-05-24 19:49:44</time>
      </trkpt>
      <trkpt lat="40.76509" lon="0.53226">
        <ele>12</ele>
        <time>2022-05-24 19:49:45</time>
      </trkpt>
      <trkpt lat="40.76504" lon="0.53228">
        <ele>12</ele>
        <time>2022-05-24 19:49:46</time>
      </trkpt>
      <trkpt lat="40.765" lon="0.5323">
        <ele>12</ele>
        <time>2022-05-24 19:49:47</time>
      </trkpt>
      <trkpt lat="40.76494" lon="0.53233">
        <ele>12</ele>
        <time>2022-05-24 19:49:48</time>
      </trkpt>
      <trkpt lat="40.76489" lon="0.53235">
        <ele>12</ele>
        <time>2022-05-24 19:49:49</time>
      </trkpt>
      <trkpt lat="40.76484" lon="0.53238">
        <ele>12</ele>
        <time>2022-05-24 19:49:50</time>
      </trkpt>
      <trkpt lat="40.76479" lon="0.5324">
        <ele>12</ele>
        <time>2022-05-24 19:49:51</time>
      </trkpt>
      <trkpt lat="40.76474" lon="0.53243">
        <ele>12</ele>
        <time>2022-05-24 19:49:52</time>
      </trkpt>
      <trkpt lat="40.76469" lon="0.53245">
        <ele>12</ele>
        <time>2022-05-24 19:49:53</time>
      </trkpt>
      <trkpt lat="40.76464" lon="0.53248">
        <ele>12</ele>
        <time>2022-05-24 19:49:54</time>
      </trkpt>
      <trkpt lat="40.76458" lon="0.5325">
        <ele>12</ele>
        <time>2022-05-24 19:49:55</time>
      </trkpt>
      <trkpt lat="40.76453" lon="0.53252">
        <ele>12</ele>
        <time>2022-05-24 19:49:56</time>
      </trkpt>
      <trkpt lat="40.76448" lon="0.53254">
        <ele>12</ele>
        <time>2022-05-24 19:49:57</time>
      </trkpt>
      <trkpt lat="40.76443" lon="0.53257">
        <ele>12</ele>
        <time>2022-05-24 19:49:58</time>
      </trkpt>
      <trkpt lat="40.76438" lon="0.53259">
        <ele>12</ele>
        <time>2022-05-24 19:49:59</time>
      </trkpt>
      <trkpt lat="40.76433" lon="0.53261">
        <ele>12</ele>
        <time>2022-05-24 19:50:00</time>
      </trkpt>
      <trkpt lat="40.76428" lon="0.53264">
        <ele>12</ele>
        <time>2022-05-24 19:50:01</time>
      </trkpt>
      <trkpt lat="40.76423" lon="0.53266">
        <ele>12.2</ele>
        <time>2022-05-24 19:50:02</time>
      </trkpt>
      <trkpt lat="40.76419" lon="0.53268">
        <ele>12.2</ele>
        <time>2022-05-24 19:50:03</time>
      </trkpt>
      <trkpt lat="40.76414" lon="0.53271">
        <ele>12.2</ele>
        <time>2022-05-24 19:50:04</time>
      </trkpt>
      <trkpt lat="40.76409" lon="0.53274">
        <ele>12.2</ele>
        <time>2022-05-24 19:50:05</time>
      </trkpt>
      <trkpt lat="40.76404" lon="0.53276">
        <ele>12.2</ele>
        <time>2022-05-24 19:50:06</time>
      </trkpt>
      <trkpt lat="40.764" lon="0.53278">
        <ele>12.2</ele>
        <time>2022-05-24 19:50:07</time>
      </trkpt>
      <trkpt lat="40.76394" lon="0.5328">
        <ele>12.2</ele>
        <time>2022-05-24 19:50:08</time>
      </trkpt>
      <trkpt lat="40.76389" lon="0.53283">
        <ele>12</ele>
        <time>2022-05-24 19:50:09</time>
      </trkpt>
      <trkpt lat="40.76384" lon="0.53285">
        <ele>12.2</ele>
        <time>2022-05-24 19:50:10</time>
      </trkpt>
      <trkpt lat="40.76378" lon="0.53288">
        <ele>12.2</ele>
        <time>2022-05-24 19:50:11</time>
      </trkpt>
      <trkpt lat="40.76374" lon="0.5329">
        <ele>12.2</ele>
        <time>2022-05-24 19:50:12</time>
      </trkpt>
      <trkpt lat="40.76369" lon="0.53292">
        <ele>12.2</ele>
        <time>2022-05-24 19:50:13</time>
      </trkpt>
      <trkpt lat="40.76364" lon="0.53295">
        <ele>12.2</ele>
        <time>2022-05-24 19:50:14</time>
      </trkpt>
      <trkpt lat="40.76358" lon="0.53297">
        <ele>12.2</ele>
        <time>2022-05-24 19:50:15</time>
      </trkpt>
      <trkpt lat="40.76353" lon="0.53299">
        <ele>12.2</ele>
        <time>2022-05-24 19:50:16</time>
      </trkpt>
      <trkpt lat="40.76348" lon="0.53302">
        <ele>12.2</ele>
        <time>2022-05-24 19:50:17</time>
      </trkpt>
      <trkpt lat="40.76343" lon="0.53304">
        <ele>12.2</ele>
        <time>2022-05-24 19:50:18</time>
      </trkpt>
      <trkpt lat="40.76338" lon="0.53307">
        <ele>12.2</ele>
        <time>2022-05-24 19:50:19</time>
      </trkpt>
      <trkpt lat="40.76333" lon="0.53309">
        <ele>12.2</ele>
        <time>2022-05-24 19:50:20</time>
      </trkpt>
      <trkpt lat="40.76328" lon="0.53312">
        <ele>12.4</ele>
        <time>2022-05-24 19:50:21</time>
      </trkpt>
      <trkpt lat="40.76323" lon="0.53314">
        <ele>12.4</ele>
        <time>2022-05-24 19:50:22</time>
      </trkpt>
      <trkpt lat="40.76318" lon="0.53317">
        <ele>12.4</ele>
        <time>2022-05-24 19:50:23</time>
      </trkpt>
      <trkpt lat="40.76313" lon="0.53319">
        <ele>12.4</ele>
        <time>2022-05-24 19:50:24</time>
      </trkpt>
      <trkpt lat="40.76308" lon="0.53322">
        <ele>12.6</ele>
        <time>2022-05-24 19:50:25</time>
      </trkpt>
      <trkpt lat="40.76303" lon="0.53324">
        <ele>12.6</ele>
        <time>2022-05-24 19:50:26</time>
      </trkpt>
      <trkpt lat="40.76299" lon="0.53326">
        <ele>12.6</ele>
        <time>2022-05-24 19:50:27</time>
      </trkpt>
      <trkpt lat="40.76294" lon="0.53329">
        <ele>12.6</ele>
        <time>2022-05-24 19:50:28</time>
      </trkpt>
      <trkpt lat="40.76289" lon="0.53331">
        <ele>12.6</ele>
        <time>2022-05-24 19:50:29</time>
      </trkpt>
      <trkpt lat="40.76284" lon="0.53334">
        <ele>12.6</ele>
        <time>2022-05-24 19:50:30</time>
      </trkpt>
      <trkpt lat="40.7628" lon="0.53336">
        <ele>12.6</ele>
        <time>2022-05-24 19:50:31</time>
      </trkpt>
      <trkpt lat="40.76275" lon="0.53339">
        <ele>12.6</ele>
        <time>2022-05-24 19:50:32</time>
      </trkpt>
      <trkpt lat="40.76271" lon="0.53341">
        <ele>12.8</ele>
        <time>2022-05-24 19:50:33</time>
      </trkpt>
      <trkpt lat="40.76266" lon="0.53344">
        <ele>12.8</ele>
        <time>2022-05-24 19:50:34</time>
      </trkpt>
      <trkpt lat="40.76261" lon="0.53347">
        <ele>12.6</ele>
        <time>2022-05-24 19:50:35</time>
      </trkpt>
      <trkpt lat="40.76256" lon="0.53349">
        <ele>12.6</ele>
        <time>2022-05-24 19:50:36</time>
      </trkpt>
      <trkpt lat="40.76252" lon="0.53352">
        <ele>12.6</ele>
        <time>2022-05-24 19:50:37</time>
      </trkpt>
      <trkpt lat="40.76247" lon="0.53355">
        <ele>12.6</ele>
        <time>2022-05-24 19:50:38</time>
      </trkpt>
      <trkpt lat="40.76242" lon="0.53358">
        <ele>12.6</ele>
        <time>2022-05-24 19:50:39</time>
      </trkpt>
      <trkpt lat="40.76237" lon="0.5336">
        <ele>12.6</ele>
        <time>2022-05-24 19:50:40</time>
      </trkpt>
      <trkpt lat="40.76233" lon="0.53363">
        <ele>12.6</ele>
        <time>2022-05-24 19:50:41</time>
      </trkpt>
      <trkpt lat="40.76229" lon="0.53366">
        <ele>12.6</ele>
        <time>2022-05-24 19:50:42</time>
      </trkpt>
      <trkpt lat="40.76224" lon="0.53369">
        <ele>12.6</ele>
        <time>2022-05-24 19:50:43</time>
      </trkpt>
      <trkpt lat="40.76219" lon="0.53372">
        <ele>12.6</ele>
        <time>2022-05-24 19:50:44</time>
      </trkpt>
      <trkpt lat="40.76214" lon="0.53375">
        <ele>12.4</ele>
        <time>2022-05-24 19:50:45</time>
      </trkpt>
      <trkpt lat="40.76209" lon="0.53377">
        <ele>12.4</ele>
        <time>2022-05-24 19:50:46</time>
      </trkpt>
      <trkpt lat="40.76204" lon="0.5338">
        <ele>12.4</ele>
        <time>2022-05-24 19:50:47</time>
      </trkpt>
      <trkpt lat="40.76199" lon="0.53383">
        <ele>12.4</ele>
        <time>2022-05-24 19:50:48</time>
      </trkpt>
      <trkpt lat="40.76195" lon="0.53386">
        <ele>12.4</ele>
        <time>2022-05-24 19:50:49</time>
      </trkpt>
      <trkpt lat="40.7619" lon="0.53389">
        <ele>12.4</ele>
        <time>2022-05-24 19:50:50</time>
      </trkpt>
      <trkpt lat="40.76185" lon="0.53392">
        <ele>12.4</ele>
        <time>2022-05-24 19:50:51</time>
      </trkpt>
      <trkpt lat="40.7618" lon="0.53395">
        <ele>12.4</ele>
        <time>2022-05-24 19:50:52</time>
      </trkpt>
      <trkpt lat="40.76175" lon="0.53397">
        <ele>12.4</ele>
        <time>2022-05-24 19:50:53</time>
      </trkpt>
      <trkpt lat="40.7617" lon="0.534">
        <ele>12.4</ele>
        <time>2022-05-24 19:50:54</time>
      </trkpt>
      <trkpt lat="40.76166" lon="0.53403">
        <ele>12.4</ele>
        <time>2022-05-24 19:50:55</time>
      </trkpt>
      <trkpt lat="40.76161" lon="0.53406">
        <ele>12.4</ele>
        <time>2022-05-24 19:50:56</time>
      </trkpt>
      <trkpt lat="40.76157" lon="0.53409">
        <ele>12.4</ele>
        <time>2022-05-24 19:50:57</time>
      </trkpt>
      <trkpt lat="40.76152" lon="0.53412">
        <ele>12.4</ele>
        <time>2022-05-24 19:50:58</time>
      </trkpt>
      <trkpt lat="40.76148" lon="0.53414">
        <ele>12.4</ele>
        <time>2022-05-24 19:50:59</time>
      </trkpt>
      <trkpt lat="40.76144" lon="0.53417">
        <ele>12.4</ele>
        <time>2022-05-24 19:51:00</time>
      </trkpt>
      <trkpt lat="40.76139" lon="0.53419">
        <ele>12.4</ele>
        <time>2022-05-24 19:51:01</time>
      </trkpt>
      <trkpt lat="40.76134" lon="0.53422">
        <ele>12.4</ele>
        <time>2022-05-24 19:51:02</time>
      </trkpt>
      <trkpt lat="40.7613" lon="0.53425">
        <ele>12.4</ele>
        <time>2022-05-24 19:51:03</time>
      </trkpt>
      <trkpt lat="40.76125" lon="0.53428">
        <ele>12.4</ele>
        <time>2022-05-24 19:51:04</time>
      </trkpt>
      <trkpt lat="40.76121" lon="0.5343">
        <ele>12.4</ele>
        <time>2022-05-24 19:51:05</time>
      </trkpt>
      <trkpt lat="40.76116" lon="0.53433">
        <ele>12.4</ele>
        <time>2022-05-24 19:51:06</time>
      </trkpt>
      <trkpt lat="40.76111" lon="0.53436">
        <ele>12.4</ele>
        <time>2022-05-24 19:51:07</time>
      </trkpt>
      <trkpt lat="40.76106" lon="0.53439">
        <ele>12.4</ele>
        <time>2022-05-24 19:51:08</time>
      </trkpt>
      <trkpt lat="40.76102" lon="0.53442">
        <ele>12.4</ele>
        <time>2022-05-24 19:51:09</time>
      </trkpt>
      <trkpt lat="40.76097" lon="0.53445">
        <ele>12.4</ele>
        <time>2022-05-24 19:51:10</time>
      </trkpt>
      <trkpt lat="40.76092" lon="0.53448">
        <ele>12.2</ele>
        <time>2022-05-24 19:51:11</time>
      </trkpt>
      <trkpt lat="40.76088" lon="0.53451">
        <ele>12.2</ele>
        <time>2022-05-24 19:51:12</time>
      </trkpt>
      <trkpt lat="40.76083" lon="0.53453">
        <ele>12.2</ele>
        <time>2022-05-24 19:51:13</time>
      </trkpt>
      <trkpt lat="40.76078" lon="0.53456">
        <ele>12.2</ele>
        <time>2022-05-24 19:51:14</time>
      </trkpt>
      <trkpt lat="40.76073" lon="0.53459">
        <ele>12.2</ele>
        <time>2022-05-24 19:51:15</time>
      </trkpt>
      <trkpt lat="40.76069" lon="0.53461">
        <ele>12.2</ele>
        <time>2022-05-24 19:51:16</time>
      </trkpt>
      <trkpt lat="40.76065" lon="0.53463">
        <ele>12.2</ele>
        <time>2022-05-24 19:51:17</time>
      </trkpt>
      <trkpt lat="40.7606" lon="0.53464">
        <ele>12.4</ele>
        <time>2022-05-24 19:51:18</time>
      </trkpt>
      <trkpt lat="40.76056" lon="0.53467">
        <ele>12.4</ele>
        <time>2022-05-24 19:51:19</time>
      </trkpt>
      <trkpt lat="40.76052" lon="0.5347">
        <ele>12.4</ele>
        <time>2022-05-24 19:51:20</time>
      </trkpt>
      <trkpt lat="40.76046" lon="0.53473">
        <ele>12.4</ele>
        <time>2022-05-24 19:51:21</time>
      </trkpt>
      <trkpt lat="40.76041" lon="0.53476">
        <ele>12.4</ele>
        <time>2022-05-24 19:51:22</time>
      </trkpt>
      <trkpt lat="40.76037" lon="0.53479">
        <ele>12.4</ele>
        <time>2022-05-24 19:51:23</time>
      </trkpt>
      <trkpt lat="40.76032" lon="0.53482">
        <ele>12.6</ele>
        <time>2022-05-24 19:51:24</time>
      </trkpt>
      <trkpt lat="40.76027" lon="0.53485">
        <ele>12.6</ele>
        <time>2022-05-24 19:51:25</time>
      </trkpt>
      <trkpt lat="40.76023" lon="0.53488">
        <ele>12.6</ele>
        <time>2022-05-24 19:51:26</time>
      </trkpt>
      <trkpt lat="40.76018" lon="0.53491">
        <ele>12.6</ele>
        <time>2022-05-24 19:51:27</time>
      </trkpt>
      <trkpt lat="40.76013" lon="0.53494">
        <ele>12.6</ele>
        <time>2022-05-24 19:51:28</time>
      </trkpt>
      <trkpt lat="40.76008" lon="0.53497">
        <ele>12.6</ele>
        <time>2022-05-24 19:51:29</time>
      </trkpt>
      <trkpt lat="40.76004" lon="0.53501">
        <ele>12.6</ele>
        <time>2022-05-24 19:51:30</time>
      </trkpt>
      <trkpt lat="40.75999" lon="0.53504">
        <ele>12.6</ele>
        <time>2022-05-24 19:51:31</time>
      </trkpt>
      <trkpt lat="40.75994" lon="0.53507">
        <ele>12.6</ele>
        <time>2022-05-24 19:51:32</time>
      </trkpt>
      <trkpt lat="40.7599" lon="0.5351">
        <ele>12.8</ele>
        <time>2022-05-24 19:51:33</time>
      </trkpt>
      <trkpt lat="40.75985" lon="0.53513">
        <ele>12.8</ele>
        <time>2022-05-24 19:51:34</time>
      </trkpt>
      <trkpt lat="40.7598" lon="0.53516">
        <ele>12.8</ele>
        <time>2022-05-24 19:51:35</time>
      </trkpt>
      <trkpt lat="40.75975" lon="0.53519">
        <ele>12.6</ele>
        <time>2022-05-24 19:51:36</time>
      </trkpt>
      <trkpt lat="40.75971" lon="0.53523">
        <ele>12.6</ele>
        <time>2022-05-24 19:51:37</time>
      </trkpt>
      <trkpt lat="40.75966" lon="0.53526">
        <ele>12.6</ele>
        <time>2022-05-24 19:51:38</time>
      </trkpt>
      <trkpt lat="40.75962" lon="0.5353">
        <ele>12.6</ele>
        <time>2022-05-24 19:51:39</time>
      </trkpt>
      <trkpt lat="40.75957" lon="0.53533">
        <ele>12.6</ele>
        <time>2022-05-24 19:51:40</time>
      </trkpt>
      <trkpt lat="40.75953" lon="0.53537">
        <ele>12.6</ele>
        <time>2022-05-24 19:51:41</time>
      </trkpt>
      <trkpt lat="40.75948" lon="0.5354">
        <ele>12.6</ele>
        <time>2022-05-24 19:51:42</time>
      </trkpt>
      <trkpt lat="40.75944" lon="0.53544">
        <ele>12.6</ele>
        <time>2022-05-24 19:51:43</time>
      </trkpt>
      <trkpt lat="40.75939" lon="0.53548">
        <ele>12.6</ele>
        <time>2022-05-24 19:51:44</time>
      </trkpt>
      <trkpt lat="40.75935" lon="0.53551">
        <ele>12.6</ele>
        <time>2022-05-24 19:51:45</time>
      </trkpt>
      <trkpt lat="40.7593" lon="0.53555">
        <ele>12.6</ele>
        <time>2022-05-24 19:51:46</time>
      </trkpt>
      <trkpt lat="40.75926" lon="0.53559">
        <ele>12.6</ele>
        <time>2022-05-24 19:51:47</time>
      </trkpt>
      <trkpt lat="40.75922" lon="0.53563">
        <ele>12.6</ele>
        <time>2022-05-24 19:51:48</time>
      </trkpt>
      <trkpt lat="40.75917" lon="0.53567">
        <ele>12.6</ele>
        <time>2022-05-24 19:51:49</time>
      </trkpt>
      <trkpt lat="40.75913" lon="0.53571">
        <ele>12.6</ele>
        <time>2022-05-24 19:51:50</time>
      </trkpt>
      <trkpt lat="40.75909" lon="0.53575">
        <ele>12.4</ele>
        <time>2022-05-24 19:51:51</time>
      </trkpt>
      <trkpt lat="40.75904" lon="0.53579">
        <ele>12.4</ele>
        <time>2022-05-24 19:51:52</time>
      </trkpt>
      <trkpt lat="40.759" lon="0.53584">
        <ele>12.4</ele>
        <time>2022-05-24 19:51:53</time>
      </trkpt>
      <trkpt lat="40.75895" lon="0.53588">
        <ele>12.6</ele>
        <time>2022-05-24 19:51:54</time>
      </trkpt>
      <trkpt lat="40.75891" lon="0.53592">
        <ele>12.6</ele>
        <time>2022-05-24 19:51:55</time>
      </trkpt>
      <trkpt lat="40.75887" lon="0.53596">
        <ele>12.6</ele>
        <time>2022-05-24 19:51:56</time>
      </trkpt>
      <trkpt lat="40.75882" lon="0.536">
        <ele>12.4</ele>
        <time>2022-05-24 19:51:57</time>
      </trkpt>
      <trkpt lat="40.75878" lon="0.53604">
        <ele>12.4</ele>
        <time>2022-05-24 19:51:58</time>
      </trkpt>
      <trkpt lat="40.75873" lon="0.53608">
        <ele>12.4</ele>
        <time>2022-05-24 19:51:59</time>
      </trkpt>
      <trkpt lat="40.75869" lon="0.53613">
        <ele>12.4</ele>
        <time>2022-05-24 19:52:00</time>
      </trkpt>
      <trkpt lat="40.75865" lon="0.53616">
        <ele>12.4</ele>
        <time>2022-05-24 19:52:01</time>
      </trkpt>
      <trkpt lat="40.7586" lon="0.53621">
        <ele>12.4</ele>
        <time>2022-05-24 19:52:02</time>
      </trkpt>
      <trkpt lat="40.75857" lon="0.53625">
        <ele>12.4</ele>
        <time>2022-05-24 19:52:03</time>
      </trkpt>
      <trkpt lat="40.75853" lon="0.53629">
        <ele>12.4</ele>
        <time>2022-05-24 19:52:04</time>
      </trkpt>
      <trkpt lat="40.75849" lon="0.53633">
        <ele>12.4</ele>
        <time>2022-05-24 19:52:05</time>
      </trkpt>
      <trkpt lat="40.75845" lon="0.53636">
        <ele>12.2</ele>
        <time>2022-05-24 19:52:06</time>
      </trkpt>
      <trkpt lat="40.7584" lon="0.53641">
        <ele>12.2</ele>
        <time>2022-05-24 19:52:07</time>
      </trkpt>
      <trkpt lat="40.75836" lon="0.53645">
        <ele>12.2</ele>
        <time>2022-05-24 19:52:08</time>
      </trkpt>
      <trkpt lat="40.75832" lon="0.53649">
        <ele>12.2</ele>
        <time>2022-05-24 19:52:09</time>
      </trkpt>
      <trkpt lat="40.75828" lon="0.53652">
        <ele>12.4</ele>
        <time>2022-05-24 19:52:10</time>
      </trkpt>
      <trkpt lat="40.75824" lon="0.53656">
        <ele>12.2</ele>
        <time>2022-05-24 19:52:11</time>
      </trkpt>
      <trkpt lat="40.7582" lon="0.5366">
        <ele>12.2</ele>
        <time>2022-05-24 19:52:12</time>
      </trkpt>
      <trkpt lat="40.75816" lon="0.53664">
        <ele>12.2</ele>
        <time>2022-05-24 19:52:13</time>
      </trkpt>
      <trkpt lat="40.75812" lon="0.53667">
        <ele>12.2</ele>
        <time>2022-05-24 19:52:14</time>
      </trkpt>
      <trkpt lat="40.75808" lon="0.53671">
        <ele>12.2</ele>
        <time>2022-05-24 19:52:15</time>
      </trkpt>
      <trkpt lat="40.75804" lon="0.53675">
        <ele>12.2</ele>
        <time>2022-05-24 19:52:16</time>
      </trkpt>
      <trkpt lat="40.758" lon="0.53679">
        <ele>12.2</ele>
        <time>2022-05-24 19:52:17</time>
      </trkpt>
      <trkpt lat="40.75796" lon="0.53683">
        <ele>12.2</ele>
        <time>2022-05-24 19:52:18</time>
      </trkpt>
      <trkpt lat="40.75792" lon="0.53687">
        <ele>12.2</ele>
        <time>2022-05-24 19:52:19</time>
      </trkpt>
      <trkpt lat="40.75788" lon="0.53691">
        <ele>12.2</ele>
        <time>2022-05-24 19:52:20</time>
      </trkpt>
      <trkpt lat="40.75784" lon="0.53695">
        <ele>12.2</ele>
        <time>2022-05-24 19:52:21</time>
      </trkpt>
      <trkpt lat="40.7578" lon="0.53699">
        <ele>12.2</ele>
        <time>2022-05-24 19:52:22</time>
      </trkpt>
      <trkpt lat="40.75776" lon="0.53703">
        <ele>12.2</ele>
        <time>2022-05-24 19:52:23</time>
      </trkpt>
      <trkpt lat="40.75772" lon="0.53707">
        <ele>12.2</ele>
        <time>2022-05-24 19:52:24</time>
      </trkpt>
      <trkpt lat="40.75768" lon="0.5371">
        <ele>12.2</ele>
        <time>2022-05-24 19:52:25</time>
      </trkpt>
      <trkpt lat="40.75764" lon="0.53714">
        <ele>12.2</ele>
        <time>2022-05-24 19:52:26</time>
      </trkpt>
      <trkpt lat="40.7576" lon="0.53718">
        <ele>12.2</ele>
        <time>2022-05-24 19:52:27</time>
      </trkpt>
      <trkpt lat="40.75756" lon="0.53722">
        <ele>12.2</ele>
        <time>2022-05-24 19:52:28</time>
      </trkpt>
      <trkpt lat="40.75752" lon="0.53726">
        <ele>12.2</ele>
        <time>2022-05-24 19:52:29</time>
      </trkpt>
      <trkpt lat="40.75748" lon="0.5373">
        <ele>12.2</ele>
        <time>2022-05-24 19:52:30</time>
      </trkpt>
      <trkpt lat="40.75743" lon="0.53734">
        <ele>12.2</ele>
        <time>2022-05-24 19:52:31</time>
      </trkpt>
      <trkpt lat="40.7574" lon="0.53738">
        <ele>12.2</ele>
        <time>2022-05-24 19:52:32</time>
      </trkpt>
      <trkpt lat="40.75735" lon="0.53742">
        <ele>12.2</ele>
        <time>2022-05-24 19:52:33</time>
      </trkpt>
      <trkpt lat="40.75731" lon="0.53746">
        <ele>12.2</ele>
        <time>2022-05-24 19:52:34</time>
      </trkpt>
      <trkpt lat="40.75727" lon="0.5375">
        <ele>12.2</ele>
        <time>2022-05-24 19:52:35</time>
      </trkpt>
      <trkpt lat="40.75723" lon="0.53754">
        <ele>12.2</ele>
        <time>2022-05-24 19:52:36</time>
      </trkpt>
      <trkpt lat="40.75719" lon="0.53758">
        <ele>12.2</ele>
        <time>2022-05-24 19:52:37</time>
      </trkpt>
      <trkpt lat="40.75715" lon="0.53762">
        <ele>12.2</ele>
        <time>2022-05-24 19:52:38</time>
      </trkpt>
      <trkpt lat="40.75711" lon="0.53766">
        <ele>12.2</ele>
        <time>2022-05-24 19:52:39</time>
      </trkpt>
      <trkpt lat="40.75707" lon="0.53771">
        <ele>12.2</ele>
        <time>2022-05-24 19:52:40</time>
      </trkpt>
      <trkpt lat="40.75703" lon="0.53775">
        <ele>12.4</ele>
        <time>2022-05-24 19:52:41</time>
      </trkpt>
      <trkpt lat="40.75699" lon="0.53779">
        <ele>12.4</ele>
        <time>2022-05-24 19:52:42</time>
      </trkpt>
      <trkpt lat="40.75695" lon="0.53783">
        <ele>12.2</ele>
        <time>2022-05-24 19:52:43</time>
      </trkpt>
      <trkpt lat="40.7569" lon="0.53787">
        <ele>12.2</ele>
        <time>2022-05-24 19:52:44</time>
      </trkpt>
      <trkpt lat="40.75686" lon="0.53791">
        <ele>12.2</ele>
        <time>2022-05-24 19:52:45</time>
      </trkpt>
      <trkpt lat="40.75682" lon="0.53795">
        <ele>12.2</ele>
        <time>2022-05-24 19:52:46</time>
      </trkpt>
      <trkpt lat="40.75678" lon="0.53799">
        <ele>12.2</ele>
        <time>2022-05-24 19:52:47</time>
      </trkpt>
      <trkpt lat="40.75674" lon="0.53803">
        <ele>12.2</ele>
        <time>2022-05-24 19:52:48</time>
      </trkpt>
      <trkpt lat="40.75669" lon="0.53807">
        <ele>12.2</ele>
        <time>2022-05-24 19:52:49</time>
      </trkpt>
      <trkpt lat="40.75665" lon="0.53811">
        <ele>12.2</ele>
        <time>2022-05-24 19:52:50</time>
      </trkpt>
      <trkpt lat="40.75661" lon="0.53815">
        <ele>12.2</ele>
        <time>2022-05-24 19:52:51</time>
      </trkpt>
      <trkpt lat="40.75657" lon="0.53819">
        <ele>12.2</ele>
        <time>2022-05-24 19:52:52</time>
      </trkpt>
      <trkpt lat="40.75653" lon="0.53823">
        <ele>12.2</ele>
        <time>2022-05-24 19:52:53</time>
      </trkpt>
      <trkpt lat="40.75649" lon="0.53828">
        <ele>12.2</ele>
        <time>2022-05-24 19:52:54</time>
      </trkpt>
      <trkpt lat="40.75644" lon="0.53832">
        <ele>12.2</ele>
        <time>2022-05-24 19:52:55</time>
      </trkpt>
      <trkpt lat="40.7564" lon="0.53835">
        <ele>12.2</ele>
        <time>2022-05-24 19:52:56</time>
      </trkpt>
      <trkpt lat="40.75636" lon="0.5384">
        <ele>12.2</ele>
        <time>2022-05-24 19:52:57</time>
      </trkpt>
      <trkpt lat="40.75632" lon="0.53844">
        <ele>12.2</ele>
        <time>2022-05-24 19:52:58</time>
      </trkpt>
      <trkpt lat="40.75628" lon="0.53848">
        <ele>12.2</ele>
        <time>2022-05-24 19:52:59</time>
      </trkpt>
      <trkpt lat="40.75623" lon="0.53852">
        <ele>12.2</ele>
        <time>2022-05-24 19:53:00</time>
      </trkpt>
      <trkpt lat="40.75619" lon="0.53856">
        <ele>12.2</ele>
        <time>2022-05-24 19:53:01</time>
      </trkpt>
      <trkpt lat="40.75615" lon="0.53861">
        <ele>12.2</ele>
        <time>2022-05-24 19:53:02</time>
      </trkpt>
      <trkpt lat="40.75611" lon="0.53865">
        <ele>12.2</ele>
        <time>2022-05-24 19:53:03</time>
      </trkpt>
      <trkpt lat="40.75607" lon="0.53869">
        <ele>12.2</ele>
        <time>2022-05-24 19:53:04</time>
      </trkpt>
      <trkpt lat="40.75603" lon="0.53874">
        <ele>12.4</ele>
        <time>2022-05-24 19:53:05</time>
      </trkpt>
      <trkpt lat="40.75599" lon="0.53878">
        <ele>12.4</ele>
        <time>2022-05-24 19:53:06</time>
      </trkpt>
      <trkpt lat="40.75595" lon="0.53883">
        <ele>12.4</ele>
        <time>2022-05-24 19:53:07</time>
      </trkpt>
      <trkpt lat="40.75591" lon="0.53888">
        <ele>12.4</ele>
        <time>2022-05-24 19:53:08</time>
      </trkpt>
      <trkpt lat="40.75587" lon="0.53892">
        <ele>12.4</ele>
        <time>2022-05-24 19:53:09</time>
      </trkpt>
      <trkpt lat="40.75583" lon="0.53897">
        <ele>12.2</ele>
        <time>2022-05-24 19:53:10</time>
      </trkpt>
      <trkpt lat="40.75579" lon="0.53902">
        <ele>12.2</ele>
        <time>2022-05-24 19:53:11</time>
      </trkpt>
      <trkpt lat="40.75574" lon="0.53907">
        <ele>12.2</ele>
        <time>2022-05-24 19:53:12</time>
      </trkpt>
      <trkpt lat="40.75571" lon="0.53912">
        <ele>12.4</ele>
        <time>2022-05-24 19:53:13</time>
      </trkpt>
      <trkpt lat="40.75567" lon="0.53916">
        <ele>12.4</ele>
        <time>2022-05-24 19:53:14</time>
      </trkpt>
      <trkpt lat="40.75563" lon="0.53921">
        <ele>12.4</ele>
        <time>2022-05-24 19:53:15</time>
      </trkpt>
      <trkpt lat="40.7556" lon="0.53926">
        <ele>12.4</ele>
        <time>2022-05-24 19:53:16</time>
      </trkpt>
      <trkpt lat="40.75556" lon="0.53931">
        <ele>12.4</ele>
        <time>2022-05-24 19:53:17</time>
      </trkpt>
      <trkpt lat="40.75552" lon="0.53935">
        <ele>12.4</ele>
        <time>2022-05-24 19:53:18</time>
      </trkpt>
      <trkpt lat="40.75549" lon="0.5394">
        <ele>12.4</ele>
        <time>2022-05-24 19:53:19</time>
      </trkpt>
      <trkpt lat="40.75545" lon="0.53945">
        <ele>12.4</ele>
        <time>2022-05-24 19:53:20</time>
      </trkpt>
      <trkpt lat="40.75542" lon="0.53949">
        <ele>12.4</ele>
        <time>2022-05-24 19:53:21</time>
      </trkpt>
      <trkpt lat="40.75539" lon="0.53954">
        <ele>12.4</ele>
        <time>2022-05-24 19:53:22</time>
      </trkpt>
      <trkpt lat="40.75535" lon="0.53959">
        <ele>12.4</ele>
        <time>2022-05-24 19:53:23</time>
      </trkpt>
      <trkpt lat="40.75531" lon="0.53964">
        <ele>12.4</ele>
        <time>2022-05-24 19:53:24</time>
      </trkpt>
      <trkpt lat="40.75528" lon="0.53969">
        <ele>12.4</ele>
        <time>2022-05-24 19:53:25</time>
      </trkpt>
      <trkpt lat="40.75525" lon="0.53975">
        <ele>12.4</ele>
        <time>2022-05-24 19:53:26</time>
      </trkpt>
      <trkpt lat="40.75521" lon="0.5398">
        <ele>12.4</ele>
        <time>2022-05-24 19:53:27</time>
      </trkpt>
      <trkpt lat="40.75517" lon="0.53985">
        <ele>12.4</ele>
        <time>2022-05-24 19:53:28</time>
      </trkpt>
      <trkpt lat="40.75514" lon="0.5399">
        <ele>12.4</ele>
        <time>2022-05-24 19:53:29</time>
      </trkpt>
      <trkpt lat="40.7551" lon="0.53996">
        <ele>12.4</ele>
        <time>2022-05-24 19:53:30</time>
      </trkpt>
      <trkpt lat="40.75507" lon="0.54001">
        <ele>12.4</ele>
        <time>2022-05-24 19:53:31</time>
      </trkpt>
      <trkpt lat="40.75503" lon="0.54007">
        <ele>12.4</ele>
        <time>2022-05-24 19:53:32</time>
      </trkpt>
      <trkpt lat="40.755" lon="0.54012">
        <ele>12.4</ele>
        <time>2022-05-24 19:53:33</time>
      </trkpt>
      <trkpt lat="40.75496" lon="0.54018">
        <ele>12.4</ele>
        <time>2022-05-24 19:53:34</time>
      </trkpt>
      <trkpt lat="40.75493" lon="0.54023">
        <ele>12.4</ele>
        <time>2022-05-24 19:53:35</time>
      </trkpt>
      <trkpt lat="40.75489" lon="0.54028">
        <ele>12.4</ele>
        <time>2022-05-24 19:53:36</time>
      </trkpt>
      <trkpt lat="40.75486" lon="0.54034">
        <ele>12.4</ele>
        <time>2022-05-24 19:53:37</time>
      </trkpt>
      <trkpt lat="40.75482" lon="0.54039">
        <ele>12.4</ele>
        <time>2022-05-24 19:53:38</time>
      </trkpt>
      <trkpt lat="40.75478" lon="0.54045">
        <ele>12.4</ele>
        <time>2022-05-24 19:53:39</time>
      </trkpt>
      <trkpt lat="40.75475" lon="0.5405">
        <ele>12.4</ele>
        <time>2022-05-24 19:53:40</time>
      </trkpt>
      <trkpt lat="40.75471" lon="0.54055">
        <ele>12.2</ele>
        <time>2022-05-24 19:53:41</time>
      </trkpt>
      <trkpt lat="40.75467" lon="0.54061">
        <ele>12.2</ele>
        <time>2022-05-24 19:53:42</time>
      </trkpt>
      <trkpt lat="40.75464" lon="0.54066">
        <ele>12.2</ele>
        <time>2022-05-24 19:53:43</time>
      </trkpt>
      <trkpt lat="40.7546" lon="0.54072">
        <ele>12.2</ele>
        <time>2022-05-24 19:53:44</time>
      </trkpt>
      <trkpt lat="40.75457" lon="0.54077">
        <ele>12.2</ele>
        <time>2022-05-24 19:53:45</time>
      </trkpt>
      <trkpt lat="40.75454" lon="0.54082">
        <ele>12.2</ele>
        <time>2022-05-24 19:53:46</time>
      </trkpt>
      <trkpt lat="40.75449" lon="0.54089">
        <ele>12</ele>
        <time>2022-05-24 19:53:47</time>
      </trkpt>
      <trkpt lat="40.75446" lon="0.54094">
        <ele>12</ele>
        <time>2022-05-24 19:53:48</time>
      </trkpt>
      <trkpt lat="40.75442" lon="0.541">
        <ele>12.2</ele>
        <time>2022-05-24 19:53:49</time>
      </trkpt>
      <trkpt lat="40.75439" lon="0.54105">
        <ele>12.2</ele>
        <time>2022-05-24 19:53:50</time>
      </trkpt>
      <trkpt lat="40.75435" lon="0.54111">
        <ele>12.2</ele>
        <time>2022-05-24 19:53:51</time>
      </trkpt>
      <trkpt lat="40.75431" lon="0.54117">
        <ele>12.2</ele>
        <time>2022-05-24 19:53:52</time>
      </trkpt>
      <trkpt lat="40.75428" lon="0.54122">
        <ele>12.2</ele>
        <time>2022-05-24 19:53:53</time>
      </trkpt>
      <trkpt lat="40.75424" lon="0.54128">
        <ele>12.2</ele>
        <time>2022-05-24 19:53:54</time>
      </trkpt>
      <trkpt lat="40.7542" lon="0.54133">
        <ele>12.2</ele>
        <time>2022-05-24 19:53:55</time>
      </trkpt>
      <trkpt lat="40.75417" lon="0.54138">
        <ele>12.2</ele>
        <time>2022-05-24 19:53:56</time>
      </trkpt>
      <trkpt lat="40.75413" lon="0.54144">
        <ele>12.2</ele>
        <time>2022-05-24 19:53:57</time>
      </trkpt>
      <trkpt lat="40.7541" lon="0.54149">
        <ele>12.2</ele>
        <time>2022-05-24 19:53:58</time>
      </trkpt>
      <trkpt lat="40.75406" lon="0.54154">
        <ele>12.2</ele>
        <time>2022-05-24 19:53:59</time>
      </trkpt>
      <trkpt lat="40.75403" lon="0.5416">
        <ele>12.2</ele>
        <time>2022-05-24 19:54:00</time>
      </trkpt>
      <trkpt lat="40.754" lon="0.54165">
        <ele>12.2</ele>
        <time>2022-05-24 19:54:01</time>
      </trkpt>
      <trkpt lat="40.75396" lon="0.54171">
        <ele>12.2</ele>
        <time>2022-05-24 19:54:02</time>
      </trkpt>
      <trkpt lat="40.75393" lon="0.54176">
        <ele>12.4</ele>
        <time>2022-05-24 19:54:03</time>
      </trkpt>
      <trkpt lat="40.75389" lon="0.54181">
        <ele>12.4</ele>
        <time>2022-05-24 19:54:04</time>
      </trkpt>
      <trkpt lat="40.75386" lon="0.54187">
        <ele>12.4</ele>
        <time>2022-05-24 19:54:05</time>
      </trkpt>
      <trkpt lat="40.75383" lon="0.54192">
        <ele>12.4</ele>
        <time>2022-05-24 19:54:06</time>
      </trkpt>
      <trkpt lat="40.75379" lon="0.54197">
        <ele>12.4</ele>
        <time>2022-05-24 19:54:07</time>
      </trkpt>
      <trkpt lat="40.75376" lon="0.54203">
        <ele>12.4</ele>
        <time>2022-05-24 19:54:08</time>
      </trkpt>
      <trkpt lat="40.75373" lon="0.54208">
        <ele>12.4</ele>
        <time>2022-05-24 19:54:09</time>
      </trkpt>
      <trkpt lat="40.75369" lon="0.54214">
        <ele>12.4</ele>
        <time>2022-05-24 19:54:10</time>
      </trkpt>
      <trkpt lat="40.75366" lon="0.54219">
        <ele>12.4</ele>
        <time>2022-05-24 19:54:11</time>
      </trkpt>
      <trkpt lat="40.75362" lon="0.54224">
        <ele>12.4</ele>
        <time>2022-05-24 19:54:12</time>
      </trkpt>
      <trkpt lat="40.75359" lon="0.54229">
        <ele>12.4</ele>
        <time>2022-05-24 19:54:13</time>
      </trkpt>
      <trkpt lat="40.75355" lon="0.54235">
        <ele>12.4</ele>
        <time>2022-05-24 19:54:14</time>
      </trkpt>
      <trkpt lat="40.75352" lon="0.54241">
        <ele>12.4</ele>
        <time>2022-05-24 19:54:15</time>
      </trkpt>
      <trkpt lat="40.75348" lon="0.54246">
        <ele>12.4</ele>
        <time>2022-05-24 19:54:16</time>
      </trkpt>
      <trkpt lat="40.75345" lon="0.54251">
        <ele>12.4</ele>
        <time>2022-05-24 19:54:17</time>
      </trkpt>
      <trkpt lat="40.75342" lon="0.54257">
        <ele>12.4</ele>
        <time>2022-05-24 19:54:18</time>
      </trkpt>
      <trkpt lat="40.75339" lon="0.54262">
        <ele>12.4</ele>
        <time>2022-05-24 19:54:19</time>
      </trkpt>
      <trkpt lat="40.75335" lon="0.54267">
        <ele>12.4</ele>
        <time>2022-05-24 19:54:20</time>
      </trkpt>
      <trkpt lat="40.75332" lon="0.54272">
        <ele>12.4</ele>
        <time>2022-05-24 19:54:21</time>
      </trkpt>
      <trkpt lat="40.75328" lon="0.54278">
        <ele>12.4</ele>
        <time>2022-05-24 19:54:22</time>
      </trkpt>
      <trkpt lat="40.75325" lon="0.54283">
        <ele>12.2</ele>
        <time>2022-05-24 19:54:23</time>
      </trkpt>
      <trkpt lat="40.75321" lon="0.54289">
        <ele>12.2</ele>
        <time>2022-05-24 19:54:24</time>
      </trkpt>
      <trkpt lat="40.75318" lon="0.54295">
        <ele>12.2</ele>
        <time>2022-05-24 19:54:25</time>
      </trkpt>
      <trkpt lat="40.75314" lon="0.543">
        <ele>12.4</ele>
        <time>2022-05-24 19:54:26</time>
      </trkpt>
      <trkpt lat="40.75311" lon="0.54306">
        <ele>12.4</ele>
        <time>2022-05-24 19:54:27</time>
      </trkpt>
      <trkpt lat="40.75307" lon="0.54311">
        <ele>12.4</ele>
        <time>2022-05-24 19:54:28</time>
      </trkpt>
      <trkpt lat="40.75304" lon="0.54316">
        <ele>12.4</ele>
        <time>2022-05-24 19:54:29</time>
      </trkpt>
      <trkpt lat="40.75301" lon="0.54321">
        <ele>12.4</ele>
        <time>2022-05-24 19:54:30</time>
      </trkpt>
      <trkpt lat="40.75298" lon="0.54327">
        <ele>12.4</ele>
        <time>2022-05-24 19:54:31</time>
      </trkpt>
      <trkpt lat="40.75294" lon="0.54332">
        <ele>12.2</ele>
        <time>2022-05-24 19:54:32</time>
      </trkpt>
      <trkpt lat="40.7529" lon="0.54338">
        <ele>12.2</ele>
        <time>2022-05-24 19:54:33</time>
      </trkpt>
      <trkpt lat="40.75286" lon="0.54343">
        <ele>12.4</ele>
        <time>2022-05-24 19:54:34</time>
      </trkpt>
      <trkpt lat="40.75283" lon="0.54348">
        <ele>12.4</ele>
        <time>2022-05-24 19:54:35</time>
      </trkpt>
      <trkpt lat="40.7528" lon="0.54354">
        <ele>12.4</ele>
        <time>2022-05-24 19:54:36</time>
      </trkpt>
      <trkpt lat="40.75277" lon="0.54359">
        <ele>12.4</ele>
        <time>2022-05-24 19:54:37</time>
      </trkpt>
      <trkpt lat="40.75274" lon="0.54364">
        <ele>12.6</ele>
        <time>2022-05-24 19:54:38</time>
      </trkpt>
      <trkpt lat="40.7527" lon="0.54369">
        <ele>12.6</ele>
        <time>2022-05-24 19:54:39</time>
      </trkpt>
      <trkpt lat="40.75267" lon="0.54374">
        <ele>12.6</ele>
        <time>2022-05-24 19:54:40</time>
      </trkpt>
      <trkpt lat="40.75264" lon="0.54379">
        <ele>12.6</ele>
        <time>2022-05-24 19:54:41</time>
      </trkpt>
      <trkpt lat="40.7526" lon="0.54384">
        <ele>12.6</ele>
        <time>2022-05-24 19:54:42</time>
      </trkpt>
      <trkpt lat="40.75257" lon="0.54389">
        <ele>12.6</ele>
        <time>2022-05-24 19:54:43</time>
      </trkpt>
      <trkpt lat="40.75253" lon="0.54394">
        <ele>12.6</ele>
        <time>2022-05-24 19:54:44</time>
      </trkpt>
      <trkpt lat="40.7525" lon="0.544">
        <ele>12.6</ele>
        <time>2022-05-24 19:54:45</time>
      </trkpt>
      <trkpt lat="40.75246" lon="0.54405">
        <ele>12.6</ele>
        <time>2022-05-24 19:54:46</time>
      </trkpt>
      <trkpt lat="40.75243" lon="0.5441">
        <ele>12.6</ele>
        <time>2022-05-24 19:54:47</time>
      </trkpt>
      <trkpt lat="40.7524" lon="0.54416">
        <ele>12.6</ele>
        <time>2022-05-24 19:54:48</time>
      </trkpt>
      <trkpt lat="40.75237" lon="0.54421">
        <ele>12.6</ele>
        <time>2022-05-24 19:54:49</time>
      </trkpt>
      <trkpt lat="40.75233" lon="0.54426">
        <ele>12.6</ele>
        <time>2022-05-24 19:54:50</time>
      </trkpt>
      <trkpt lat="40.7523" lon="0.54432">
        <ele>12.6</ele>
        <time>2022-05-24 19:54:51</time>
      </trkpt>
      <trkpt lat="40.75227" lon="0.54437">
        <ele>12.6</ele>
        <time>2022-05-24 19:54:52</time>
      </trkpt>
      <trkpt lat="40.75224" lon="0.54442">
        <ele>12.6</ele>
        <time>2022-05-24 19:54:53</time>
      </trkpt>
      <trkpt lat="40.7522" lon="0.54447">
        <ele>12.6</ele>
        <time>2022-05-24 19:54:54</time>
      </trkpt>
      <trkpt lat="40.75217" lon="0.54452">
        <ele>12.6</ele>
        <time>2022-05-24 19:54:55</time>
      </trkpt>
      <trkpt lat="40.75214" lon="0.54458">
        <ele>12.6</ele>
        <time>2022-05-24 19:54:56</time>
      </trkpt>
      <trkpt lat="40.75211" lon="0.54463">
        <ele>12.6</ele>
        <time>2022-05-24 19:54:57</time>
      </trkpt>
      <trkpt lat="40.75207" lon="0.54468">
        <ele>12.6</ele>
        <time>2022-05-24 19:54:58</time>
      </trkpt>
      <trkpt lat="40.75204" lon="0.54474">
        <ele>12.8</ele>
        <time>2022-05-24 19:54:59</time>
      </trkpt>
      <trkpt lat="40.75201" lon="0.54479">
        <ele>12.8</ele>
        <time>2022-05-24 19:55:00</time>
      </trkpt>
      <trkpt lat="40.75198" lon="0.54484">
        <ele>12.8</ele>
        <time>2022-05-24 19:55:01</time>
      </trkpt>
      <trkpt lat="40.75195" lon="0.5449">
        <ele>12.8</ele>
        <time>2022-05-24 19:55:02</time>
      </trkpt>
      <trkpt lat="40.75192" lon="0.54495">
        <ele>12.8</ele>
        <time>2022-05-24 19:55:03</time>
      </trkpt>
      <trkpt lat="40.75188" lon="0.54501">
        <ele>12.8</ele>
        <time>2022-05-24 19:55:04</time>
      </trkpt>
      <trkpt lat="40.75186" lon="0.54506">
        <ele>12.8</ele>
        <time>2022-05-24 19:55:05</time>
      </trkpt>
      <trkpt lat="40.75183" lon="0.54512">
        <ele>12.8</ele>
        <time>2022-05-24 19:55:06</time>
      </trkpt>
      <trkpt lat="40.7518" lon="0.54518">
        <ele>12.8</ele>
        <time>2022-05-24 19:55:07</time>
      </trkpt>
      <trkpt lat="40.75177" lon="0.54523">
        <ele>12.8</ele>
        <time>2022-05-24 19:55:08</time>
      </trkpt>
      <trkpt lat="40.75174" lon="0.5453">
        <ele>12.8</ele>
        <time>2022-05-24 19:55:09</time>
      </trkpt>
      <trkpt lat="40.75172" lon="0.54535">
        <ele>12.8</ele>
        <time>2022-05-24 19:55:10</time>
      </trkpt>
      <trkpt lat="40.75169" lon="0.54542">
        <ele>12.8</ele>
        <time>2022-05-24 19:55:11</time>
      </trkpt>
      <trkpt lat="40.75166" lon="0.54548">
        <ele>12.8</ele>
        <time>2022-05-24 19:55:12</time>
      </trkpt>
      <trkpt lat="40.75163" lon="0.54554">
        <ele>13</ele>
        <time>2022-05-24 19:55:13</time>
      </trkpt>
      <trkpt lat="40.75161" lon="0.5456">
        <ele>13</ele>
        <time>2022-05-24 19:55:14</time>
      </trkpt>
      <trkpt lat="40.75158" lon="0.54566">
        <ele>13</ele>
        <time>2022-05-24 19:55:15</time>
      </trkpt>
      <trkpt lat="40.75156" lon="0.54573">
        <ele>13</ele>
        <time>2022-05-24 19:55:16</time>
      </trkpt>
      <trkpt lat="40.75153" lon="0.54579">
        <ele>13</ele>
        <time>2022-05-24 19:55:17</time>
      </trkpt>
      <trkpt lat="40.75151" lon="0.54585">
        <ele>13</ele>
        <time>2022-05-24 19:55:18</time>
      </trkpt>
      <trkpt lat="40.75148" lon="0.54591">
        <ele>13</ele>
        <time>2022-05-24 19:55:19</time>
      </trkpt>
      <trkpt lat="40.75145" lon="0.54598">
        <ele>13</ele>
        <time>2022-05-24 19:55:20</time>
      </trkpt>
      <trkpt lat="40.75143" lon="0.54604">
        <ele>13</ele>
        <time>2022-05-24 19:55:21</time>
      </trkpt>
      <trkpt lat="40.75141" lon="0.5461">
        <ele>13</ele>
        <time>2022-05-24 19:55:22</time>
      </trkpt>
      <trkpt lat="40.75138" lon="0.54617">
        <ele>13</ele>
        <time>2022-05-24 19:55:23</time>
      </trkpt>
      <trkpt lat="40.75136" lon="0.54624">
        <ele>12.8</ele>
        <time>2022-05-24 19:55:24</time>
      </trkpt>
      <trkpt lat="40.75133" lon="0.54631">
        <ele>12.8</ele>
        <time>2022-05-24 19:55:25</time>
      </trkpt>
      <trkpt lat="40.75131" lon="0.54637">
        <ele>12.8</ele>
        <time>2022-05-24 19:55:26</time>
      </trkpt>
      <trkpt lat="40.75129" lon="0.54643">
        <ele>12.8</ele>
        <time>2022-05-24 19:55:27</time>
      </trkpt>
      <trkpt lat="40.75126" lon="0.5465">
        <ele>12.8</ele>
        <time>2022-05-24 19:55:28</time>
      </trkpt>
      <trkpt lat="40.75124" lon="0.54656">
        <ele>12.8</ele>
        <time>2022-05-24 19:55:29</time>
      </trkpt>
      <trkpt lat="40.75121" lon="0.54663">
        <ele>12.8</ele>
        <time>2022-05-24 19:55:30</time>
      </trkpt>
      <trkpt lat="40.75119" lon="0.54669">
        <ele>12.8</ele>
        <time>2022-05-24 19:55:31</time>
      </trkpt>
      <trkpt lat="40.75117" lon="0.54676">
        <ele>12.8</ele>
        <time>2022-05-24 19:55:32</time>
      </trkpt>
      <trkpt lat="40.75115" lon="0.54681">
        <ele>12.8</ele>
        <time>2022-05-24 19:55:33</time>
      </trkpt>
      <trkpt lat="40.75112" lon="0.54689">
        <ele>12.8</ele>
        <time>2022-05-24 19:55:34</time>
      </trkpt>
      <trkpt lat="40.7511" lon="0.54695">
        <ele>12.8</ele>
        <time>2022-05-24 19:55:35</time>
      </trkpt>
      <trkpt lat="40.75108" lon="0.54701">
        <ele>12.8</ele>
        <time>2022-05-24 19:55:36</time>
      </trkpt>
      <trkpt lat="40.75105" lon="0.54708">
        <ele>12.8</ele>
        <time>2022-05-24 19:55:37</time>
      </trkpt>
      <trkpt lat="40.75103" lon="0.54714">
        <ele>12.8</ele>
        <time>2022-05-24 19:55:38</time>
      </trkpt>
      <trkpt lat="40.75101" lon="0.5472">
        <ele>12.8</ele>
        <time>2022-05-24 19:55:39</time>
      </trkpt>
      <trkpt lat="40.75099" lon="0.54727">
        <ele>12.8</ele>
        <time>2022-05-24 19:55:40</time>
      </trkpt>
      <trkpt lat="40.75096" lon="0.54733">
        <ele>12.8</ele>
        <time>2022-05-24 19:55:41</time>
      </trkpt>
      <trkpt lat="40.75094" lon="0.54739">
        <ele>12.8</ele>
        <time>2022-05-24 19:55:42</time>
      </trkpt>
      <trkpt lat="40.75092" lon="0.54746">
        <ele>12.8</ele>
        <time>2022-05-24 19:55:43</time>
      </trkpt>
      <trkpt lat="40.75089" lon="0.54752">
        <ele>12.8</ele>
        <time>2022-05-24 19:55:44</time>
      </trkpt>
      <trkpt lat="40.75087" lon="0.54758">
        <ele>12.8</ele>
        <time>2022-05-24 19:55:45</time>
      </trkpt>
      <trkpt lat="40.75085" lon="0.54765">
        <ele>12.8</ele>
        <time>2022-05-24 19:55:46</time>
      </trkpt>
      <trkpt lat="40.75083" lon="0.54771">
        <ele>13</ele>
        <time>2022-05-24 19:55:47</time>
      </trkpt>
      <trkpt lat="40.75081" lon="0.54778">
        <ele>12.8</ele>
        <time>2022-05-24 19:55:48</time>
      </trkpt>
      <trkpt lat="40.75079" lon="0.54784">
        <ele>12.8</ele>
        <time>2022-05-24 19:55:49</time>
      </trkpt>
      <trkpt lat="40.75077" lon="0.5479">
        <ele>13</ele>
        <time>2022-05-24 19:55:50</time>
      </trkpt>
      <trkpt lat="40.75074" lon="0.54796">
        <ele>13</ele>
        <time>2022-05-24 19:55:51</time>
      </trkpt>
      <trkpt lat="40.75072" lon="0.54803">
        <ele>13</ele>
        <time>2022-05-24 19:55:52</time>
      </trkpt>
      <trkpt lat="40.7507" lon="0.54809">
        <ele>13</ele>
        <time>2022-05-24 19:55:53</time>
      </trkpt>
      <trkpt lat="40.75068" lon="0.54815">
        <ele>13</ele>
        <time>2022-05-24 19:55:54</time>
      </trkpt>
      <trkpt lat="40.75066" lon="0.54821">
        <ele>13</ele>
        <time>2022-05-24 19:55:55</time>
      </trkpt>
      <trkpt lat="40.75063" lon="0.54828">
        <ele>13.2</ele>
        <time>2022-05-24 19:55:56</time>
      </trkpt>
      <trkpt lat="40.75061" lon="0.54834">
        <ele>13.2</ele>
        <time>2022-05-24 19:55:57</time>
      </trkpt>
      <trkpt lat="40.75059" lon="0.5484">
        <ele>13.2</ele>
        <time>2022-05-24 19:55:58</time>
      </trkpt>
      <trkpt lat="40.75058" lon="0.54845">
        <ele>13.2</ele>
        <time>2022-05-24 19:55:59</time>
      </trkpt>
      <trkpt lat="40.75055" lon="0.54853">
        <ele>13.2</ele>
        <time>2022-05-24 19:56:00</time>
      </trkpt>
      <trkpt lat="40.75052" lon="0.5486">
        <ele>13.2</ele>
        <time>2022-05-24 19:56:01</time>
      </trkpt>
      <trkpt lat="40.7505" lon="0.54867">
        <ele>13.2</ele>
        <time>2022-05-24 19:56:02</time>
      </trkpt>
      <trkpt lat="40.75046" lon="0.54875">
        <ele>13.2</ele>
        <time>2022-05-24 19:56:03</time>
      </trkpt>
      <trkpt lat="40.75042" lon="0.54882">
        <ele>13.2</ele>
        <time>2022-05-24 19:56:04</time>
      </trkpt>
      <trkpt lat="40.75039" lon="0.5489">
        <ele>13.2</ele>
        <time>2022-05-24 19:56:05</time>
      </trkpt>
      <trkpt lat="40.75036" lon="0.54898">
        <ele>13</ele>
        <time>2022-05-24 19:56:06</time>
      </trkpt>
      <trkpt lat="40.75034" lon="0.54904">
        <ele>13</ele>
        <time>2022-05-24 19:56:07</time>
      </trkpt>
      <trkpt lat="40.75032" lon="0.54909">
        <ele>13.2</ele>
        <time>2022-05-24 19:56:08</time>
      </trkpt>
      <trkpt lat="40.75031" lon="0.54914">
        <ele>13.2</ele>
        <time>2022-05-24 19:56:09</time>
      </trkpt>
      <trkpt lat="40.75029" lon="0.54921">
        <ele>13.2</ele>
        <time>2022-05-24 19:56:10</time>
      </trkpt>
      <trkpt lat="40.75027" lon="0.54927">
        <ele>13.2</ele>
        <time>2022-05-24 19:56:11</time>
      </trkpt>
      <trkpt lat="40.75025" lon="0.54934">
        <ele>13.2</ele>
        <time>2022-05-24 19:56:12</time>
      </trkpt>
      <trkpt lat="40.75023" lon="0.5494">
        <ele>13.2</ele>
        <time>2022-05-24 19:56:13</time>
      </trkpt>
      <trkpt lat="40.75021" lon="0.54946">
        <ele>13.2</ele>
        <time>2022-05-24 19:56:14</time>
      </trkpt>
      <trkpt lat="40.75018" lon="0.54953">
        <ele>13.2</ele>
        <time>2022-05-24 19:56:15</time>
      </trkpt>
      <trkpt lat="40.75016" lon="0.5496">
        <ele>13.2</ele>
        <time>2022-05-24 19:56:16</time>
      </trkpt>
      <trkpt lat="40.75014" lon="0.54965">
        <ele>13.2</ele>
        <time>2022-05-24 19:56:17</time>
      </trkpt>
      <trkpt lat="40.75011" lon="0.54971">
        <ele>13.2</ele>
        <time>2022-05-24 19:56:18</time>
      </trkpt>
      <trkpt lat="40.7501" lon="0.54977">
        <ele>13.2</ele>
        <time>2022-05-24 19:56:19</time>
      </trkpt>
      <trkpt lat="40.75007" lon="0.54983">
        <ele>13.2</ele>
        <time>2022-05-24 19:56:20</time>
      </trkpt>
      <trkpt lat="40.75005" lon="0.54989">
        <ele>13.2</ele>
        <time>2022-05-24 19:56:21</time>
      </trkpt>
      <trkpt lat="40.75003" lon="0.54996">
        <ele>13.2</ele>
        <time>2022-05-24 19:56:22</time>
      </trkpt>
      <trkpt lat="40.75001" lon="0.55002">
        <ele>13.2</ele>
        <time>2022-05-24 19:56:23</time>
      </trkpt>
      <trkpt lat="40.74998" lon="0.55009">
        <ele>13.2</ele>
        <time>2022-05-24 19:56:24</time>
      </trkpt>
      <trkpt lat="40.74997" lon="0.55015">
        <ele>13.2</ele>
        <time>2022-05-24 19:56:25</time>
      </trkpt>
      <trkpt lat="40.74995" lon="0.55021">
        <ele>13.2</ele>
        <time>2022-05-24 19:56:26</time>
      </trkpt>
      <trkpt lat="40.74993" lon="0.55026">
        <ele>13.4</ele>
        <time>2022-05-24 19:56:27</time>
      </trkpt>
      <trkpt lat="40.7499" lon="0.55034">
        <ele>13.4</ele>
        <time>2022-05-24 19:56:28</time>
      </trkpt>
      <trkpt lat="40.74989" lon="0.5504">
        <ele>13.4</ele>
        <time>2022-05-24 19:56:29</time>
      </trkpt>
      <trkpt lat="40.74986" lon="0.55047">
        <ele>13.4</ele>
        <time>2022-05-24 19:56:30</time>
      </trkpt>
      <trkpt lat="40.74984" lon="0.55053">
        <ele>13.4</ele>
        <time>2022-05-24 19:56:31</time>
      </trkpt>
      <trkpt lat="40.74982" lon="0.5506">
        <ele>13.4</ele>
        <time>2022-05-24 19:56:32</time>
      </trkpt>
      <trkpt lat="40.7498" lon="0.55065">
        <ele>13.6</ele>
        <time>2022-05-24 19:56:33</time>
      </trkpt>
      <trkpt lat="40.74977" lon="0.55072">
        <ele>13.4</ele>
        <time>2022-05-24 19:56:34</time>
      </trkpt>
      <trkpt lat="40.74975" lon="0.55078">
        <ele>13.6</ele>
        <time>2022-05-24 19:56:35</time>
      </trkpt>
      <trkpt lat="40.74973" lon="0.55085">
        <ele>13.6</ele>
        <time>2022-05-24 19:56:36</time>
      </trkpt>
      <trkpt lat="40.74971" lon="0.55091">
        <ele>13.6</ele>
        <time>2022-05-24 19:56:37</time>
      </trkpt>
      <trkpt lat="40.74968" lon="0.55098">
        <ele>13.6</ele>
        <time>2022-05-24 19:56:38</time>
      </trkpt>
      <trkpt lat="40.74966" lon="0.55104">
        <ele>13.6</ele>
        <time>2022-05-24 19:56:39</time>
      </trkpt>
      <trkpt lat="40.74964" lon="0.5511">
        <ele>13.6</ele>
        <time>2022-05-24 19:56:40</time>
      </trkpt>
      <trkpt lat="40.74962" lon="0.55116">
        <ele>13.6</ele>
        <time>2022-05-24 19:56:41</time>
      </trkpt>
      <trkpt lat="40.7496" lon="0.55122">
        <ele>13.6</ele>
        <time>2022-05-24 19:56:42</time>
      </trkpt>
      <trkpt lat="40.74958" lon="0.55128">
        <ele>13.6</ele>
        <time>2022-05-24 19:56:43</time>
      </trkpt>
      <trkpt lat="40.74955" lon="0.55135">
        <ele>13.4</ele>
        <time>2022-05-24 19:56:44</time>
      </trkpt>
      <trkpt lat="40.74953" lon="0.55141">
        <ele>13.4</ele>
        <time>2022-05-24 19:56:45</time>
      </trkpt>
      <trkpt lat="40.74951" lon="0.55148">
        <ele>13.4</ele>
        <time>2022-05-24 19:56:46</time>
      </trkpt>
      <trkpt lat="40.74949" lon="0.55154">
        <ele>13.4</ele>
        <time>2022-05-24 19:56:47</time>
      </trkpt>
      <trkpt lat="40.74947" lon="0.5516">
        <ele>13.4</ele>
        <time>2022-05-24 19:56:48</time>
      </trkpt>
      <trkpt lat="40.74945" lon="0.55167">
        <ele>13.4</ele>
        <time>2022-05-24 19:56:49</time>
      </trkpt>
      <trkpt lat="40.74942" lon="0.55173">
        <ele>13.4</ele>
        <time>2022-05-24 19:56:50</time>
      </trkpt>
      <trkpt lat="40.7494" lon="0.55179">
        <ele>13.4</ele>
        <time>2022-05-24 19:56:51</time>
      </trkpt>
      <trkpt lat="40.74937" lon="0.55186">
        <ele>13.4</ele>
        <time>2022-05-24 19:56:52</time>
      </trkpt>
      <trkpt lat="40.74935" lon="0.55193">
        <ele>13.4</ele>
        <time>2022-05-24 19:56:53</time>
      </trkpt>
      <trkpt lat="40.74933" lon="0.55199">
        <ele>13.4</ele>
        <time>2022-05-24 19:56:54</time>
      </trkpt>
      <trkpt lat="40.74931" lon="0.55205">
        <ele>13.4</ele>
        <time>2022-05-24 19:56:55</time>
      </trkpt>
      <trkpt lat="40.74928" lon="0.55211">
        <ele>13.4</ele>
        <time>2022-05-24 19:56:56</time>
      </trkpt>
      <trkpt lat="40.74926" lon="0.55217">
        <ele>13.4</ele>
        <time>2022-05-24 19:56:57</time>
      </trkpt>
      <trkpt lat="40.74924" lon="0.55224">
        <ele>13.4</ele>
        <time>2022-05-24 19:56:58</time>
      </trkpt>
      <trkpt lat="40.74922" lon="0.5523">
        <ele>13.4</ele>
        <time>2022-05-24 19:56:59</time>
      </trkpt>
      <trkpt lat="40.7492" lon="0.55237">
        <ele>13.4</ele>
        <time>2022-05-24 19:57:00</time>
      </trkpt>
      <trkpt lat="40.74917" lon="0.55243">
        <ele>13.4</ele>
        <time>2022-05-24 19:57:01</time>
      </trkpt>
      <trkpt lat="40.74915" lon="0.5525">
        <ele>13.4</ele>
        <time>2022-05-24 19:57:02</time>
      </trkpt>
      <trkpt lat="40.74912" lon="0.55256">
        <ele>13.4</ele>
        <time>2022-05-24 19:57:03</time>
      </trkpt>
      <trkpt lat="40.7491" lon="0.55263">
        <ele>13.4</ele>
        <time>2022-05-24 19:57:04</time>
      </trkpt>
      <trkpt lat="40.74908" lon="0.55269">
        <ele>13.4</ele>
        <time>2022-05-24 19:57:05</time>
      </trkpt>
      <trkpt lat="40.74906" lon="0.55274">
        <ele>13.4</ele>
        <time>2022-05-24 19:57:06</time>
      </trkpt>
      <trkpt lat="40.74903" lon="0.55281">
        <ele>13.4</ele>
        <time>2022-05-24 19:57:07</time>
      </trkpt>
      <trkpt lat="40.74902" lon="0.55288">
        <ele>13.4</ele>
        <time>2022-05-24 19:57:08</time>
      </trkpt>
      <trkpt lat="40.74899" lon="0.55294">
        <ele>13.4</ele>
        <time>2022-05-24 19:57:09</time>
      </trkpt>
      <trkpt lat="40.74897" lon="0.553">
        <ele>13.4</ele>
        <time>2022-05-24 19:57:10</time>
      </trkpt>
      <trkpt lat="40.74895" lon="0.55306">
        <ele>13.4</ele>
        <time>2022-05-24 19:57:11</time>
      </trkpt>
      <trkpt lat="40.74893" lon="0.55312">
        <ele>13.4</ele>
        <time>2022-05-24 19:57:12</time>
      </trkpt>
      <trkpt lat="40.74891" lon="0.55318">
        <ele>13.4</ele>
        <time>2022-05-24 19:57:13</time>
      </trkpt>
      <trkpt lat="40.74889" lon="0.55325">
        <ele>13.4</ele>
        <time>2022-05-24 19:57:14</time>
      </trkpt>
      <trkpt lat="40.74886" lon="0.55331">
        <ele>13.4</ele>
        <time>2022-05-24 19:57:15</time>
      </trkpt>
      <trkpt lat="40.74884" lon="0.55337">
        <ele>13.4</ele>
        <time>2022-05-24 19:57:16</time>
      </trkpt>
      <trkpt lat="40.74882" lon="0.55344">
        <ele>13.4</ele>
        <time>2022-05-24 19:57:17</time>
      </trkpt>
      <trkpt lat="40.74879" lon="0.5535">
        <ele>13.4</ele>
        <time>2022-05-24 19:57:18</time>
      </trkpt>
      <trkpt lat="40.74878" lon="0.55356">
        <ele>13.4</ele>
        <time>2022-05-24 19:57:19</time>
      </trkpt>
      <trkpt lat="40.74875" lon="0.55362">
        <ele>13.6</ele>
        <time>2022-05-24 19:57:20</time>
      </trkpt>
      <trkpt lat="40.74873" lon="0.55369">
        <ele>13.6</ele>
        <time>2022-05-24 19:57:21</time>
      </trkpt>
      <trkpt lat="40.74871" lon="0.55375">
        <ele>13.6</ele>
        <time>2022-05-24 19:57:22</time>
      </trkpt>
      <trkpt lat="40.74868" lon="0.55381">
        <ele>13.6</ele>
        <time>2022-05-24 19:57:23</time>
      </trkpt>
      <trkpt lat="40.74866" lon="0.55388">
        <ele>13.4</ele>
        <time>2022-05-24 19:57:24</time>
      </trkpt>
      <trkpt lat="40.74864" lon="0.55394">
        <ele>13.4</ele>
        <time>2022-05-24 19:57:25</time>
      </trkpt>
      <trkpt lat="40.74862" lon="0.554">
        <ele>13.4</ele>
        <time>2022-05-24 19:57:26</time>
      </trkpt>
      <trkpt lat="40.7486" lon="0.55407">
        <ele>13.4</ele>
        <time>2022-05-24 19:57:27</time>
      </trkpt>
      <trkpt lat="40.74857" lon="0.55413">
        <ele>13.4</ele>
        <time>2022-05-24 19:57:28</time>
      </trkpt>
      <trkpt lat="40.74855" lon="0.5542">
        <ele>13.4</ele>
        <time>2022-05-24 19:57:29</time>
      </trkpt>
      <trkpt lat="40.74853" lon="0.55426">
        <ele>13.6</ele>
        <time>2022-05-24 19:57:30</time>
      </trkpt>
      <trkpt lat="40.74851" lon="0.55432">
        <ele>13.4</ele>
        <time>2022-05-24 19:57:31</time>
      </trkpt>
      <trkpt lat="40.74849" lon="0.55436">
        <ele>13.4</ele>
        <time>2022-05-24 19:57:32</time>
      </trkpt>
      <trkpt lat="40.74846" lon="0.55445">
        <ele>13.4</ele>
        <time>2022-05-24 19:57:33</time>
      </trkpt>
      <trkpt lat="40.74844" lon="0.55452">
        <ele>13.4</ele>
        <time>2022-05-24 19:57:34</time>
      </trkpt>
      <trkpt lat="40.74841" lon="0.55458">
        <ele>13.4</ele>
        <time>2022-05-24 19:57:35</time>
      </trkpt>
      <trkpt lat="40.74839" lon="0.55464">
        <ele>13.4</ele>
        <time>2022-05-24 19:57:36</time>
      </trkpt>
      <trkpt lat="40.74837" lon="0.55471">
        <ele>13.4</ele>
        <time>2022-05-24 19:57:37</time>
      </trkpt>
      <trkpt lat="40.74834" lon="0.55477">
        <ele>13.4</ele>
        <time>2022-05-24 19:57:38</time>
      </trkpt>
      <trkpt lat="40.74833" lon="0.55483">
        <ele>13.4</ele>
        <time>2022-05-24 19:57:39</time>
      </trkpt>
      <trkpt lat="40.7483" lon="0.5549">
        <ele>13.4</ele>
        <time>2022-05-24 19:57:40</time>
      </trkpt>
      <trkpt lat="40.74827" lon="0.55497">
        <ele>13.4</ele>
        <time>2022-05-24 19:57:41</time>
      </trkpt>
      <trkpt lat="40.74825" lon="0.55503">
        <ele>13.4</ele>
        <time>2022-05-24 19:57:42</time>
      </trkpt>
      <trkpt lat="40.74823" lon="0.55509">
        <ele>13.4</ele>
        <time>2022-05-24 19:57:43</time>
      </trkpt>
      <trkpt lat="40.7482" lon="0.55515">
        <ele>13.4</ele>
        <time>2022-05-24 19:57:44</time>
      </trkpt>
      <trkpt lat="40.74818" lon="0.55522">
        <ele>13.4</ele>
        <time>2022-05-24 19:57:45</time>
      </trkpt>
      <trkpt lat="40.74817" lon="0.55528">
        <ele>13.4</ele>
        <time>2022-05-24 19:57:46</time>
      </trkpt>
      <trkpt lat="40.74813" lon="0.55535">
        <ele>13.4</ele>
        <time>2022-05-24 19:57:47</time>
      </trkpt>
      <trkpt lat="40.74812" lon="0.55541">
        <ele>13.4</ele>
        <time>2022-05-24 19:57:48</time>
      </trkpt>
      <trkpt lat="40.7481" lon="0.55547">
        <ele>13.4</ele>
        <time>2022-05-24 19:57:49</time>
      </trkpt>
      <trkpt lat="40.74807" lon="0.55555">
        <ele>13.4</ele>
        <time>2022-05-24 19:57:50</time>
      </trkpt>
      <trkpt lat="40.74805" lon="0.55561">
        <ele>13.4</ele>
        <time>2022-05-24 19:57:51</time>
      </trkpt>
      <trkpt lat="40.74802" lon="0.55567">
        <ele>13.4</ele>
        <time>2022-05-24 19:57:52</time>
      </trkpt>
      <trkpt lat="40.748" lon="0.55574">
        <ele>13.4</ele>
        <time>2022-05-24 19:57:53</time>
      </trkpt>
      <trkpt lat="40.74798" lon="0.5558">
        <ele>13.4</ele>
        <time>2022-05-24 19:57:54</time>
      </trkpt>
      <trkpt lat="40.74796" lon="0.55587">
        <ele>13.4</ele>
        <time>2022-05-24 19:57:55</time>
      </trkpt>
      <trkpt lat="40.74793" lon="0.55593">
        <ele>13.4</ele>
        <time>2022-05-24 19:57:56</time>
      </trkpt>
      <trkpt lat="40.74791" lon="0.556">
        <ele>13.2</ele>
        <time>2022-05-24 19:57:57</time>
      </trkpt>
      <trkpt lat="40.74789" lon="0.55606">
        <ele>13.4</ele>
        <time>2022-05-24 19:57:58</time>
      </trkpt>
      <trkpt lat="40.74786" lon="0.55613">
        <ele>13.2</ele>
        <time>2022-05-24 19:57:59</time>
      </trkpt>
      <trkpt lat="40.74784" lon="0.55619">
        <ele>13.2</ele>
        <time>2022-05-24 19:58:00</time>
      </trkpt>
      <trkpt lat="40.74782" lon="0.55626">
        <ele>13.2</ele>
        <time>2022-05-24 19:58:01</time>
      </trkpt>
      <trkpt lat="40.74779" lon="0.55632">
        <ele>13.2</ele>
        <time>2022-05-24 19:58:02</time>
      </trkpt>
      <trkpt lat="40.74777" lon="0.55639">
        <ele>13.2</ele>
        <time>2022-05-24 19:58:03</time>
      </trkpt>
      <trkpt lat="40.74775" lon="0.55645">
        <ele>13.4</ele>
        <time>2022-05-24 19:58:04</time>
      </trkpt>
      <trkpt lat="40.74773" lon="0.55652">
        <ele>13.4</ele>
        <time>2022-05-24 19:58:05</time>
      </trkpt>
      <trkpt lat="40.7477" lon="0.55658">
        <ele>13.4</ele>
        <time>2022-05-24 19:58:06</time>
      </trkpt>
      <trkpt lat="40.74768" lon="0.55664">
        <ele>13.4</ele>
        <time>2022-05-24 19:58:07</time>
      </trkpt>
      <trkpt lat="40.74766" lon="0.55671">
        <ele>13.4</ele>
        <time>2022-05-24 19:58:08</time>
      </trkpt>
      <trkpt lat="40.74763" lon="0.55677">
        <ele>13.4</ele>
        <time>2022-05-24 19:58:09</time>
      </trkpt>
      <trkpt lat="40.74761" lon="0.55683">
        <ele>13.6</ele>
        <time>2022-05-24 19:58:10</time>
      </trkpt>
      <trkpt lat="40.74759" lon="0.5569">
        <ele>13.6</ele>
        <time>2022-05-24 19:58:11</time>
      </trkpt>
      <trkpt lat="40.74757" lon="0.55696">
        <ele>13.6</ele>
        <time>2022-05-24 19:58:12</time>
      </trkpt>
      <trkpt lat="40.74755" lon="0.55703">
        <ele>13.6</ele>
        <time>2022-05-24 19:58:13</time>
      </trkpt>
      <trkpt lat="40.74753" lon="0.55708">
        <ele>13.6</ele>
        <time>2022-05-24 19:58:14</time>
      </trkpt>
      <trkpt lat="40.74751" lon="0.55715">
        <ele>13.6</ele>
        <time>2022-05-24 19:58:15</time>
      </trkpt>
      <trkpt lat="40.74748" lon="0.55721">
        <ele>13.4</ele>
        <time>2022-05-24 19:58:16</time>
      </trkpt>
      <trkpt lat="40.74746" lon="0.55727">
        <ele>13.6</ele>
        <time>2022-05-24 19:58:17</time>
      </trkpt>
      <trkpt lat="40.74744" lon="0.55733">
        <ele>13.4</ele>
        <time>2022-05-24 19:58:18</time>
      </trkpt>
      <trkpt lat="40.74742" lon="0.5574">
        <ele>13.4</ele>
        <time>2022-05-24 19:58:19</time>
      </trkpt>
      <trkpt lat="40.74739" lon="0.55746">
        <ele>13.4</ele>
        <time>2022-05-24 19:58:20</time>
      </trkpt>
      <trkpt lat="40.74737" lon="0.55752">
        <ele>13.4</ele>
        <time>2022-05-24 19:58:21</time>
      </trkpt>
      <trkpt lat="40.74735" lon="0.55758">
        <ele>13.4</ele>
        <time>2022-05-24 19:58:22</time>
      </trkpt>
      <trkpt lat="40.74733" lon="0.55765">
        <ele>13.4</ele>
        <time>2022-05-24 19:58:23</time>
      </trkpt>
      <trkpt lat="40.7473" lon="0.55772">
        <ele>13.4</ele>
        <time>2022-05-24 19:58:24</time>
      </trkpt>
      <trkpt lat="40.74728" lon="0.55778">
        <ele>13.4</ele>
        <time>2022-05-24 19:58:25</time>
      </trkpt>
      <trkpt lat="40.74726" lon="0.55784">
        <ele>13.4</ele>
        <time>2022-05-24 19:58:26</time>
      </trkpt>
      <trkpt lat="40.74723" lon="0.55791">
        <ele>13.4</ele>
        <time>2022-05-24 19:58:27</time>
      </trkpt>
      <trkpt lat="40.74721" lon="0.55797">
        <ele>13.4</ele>
        <time>2022-05-24 19:58:28</time>
      </trkpt>
      <trkpt lat="40.74719" lon="0.55804">
        <ele>13.4</ele>
        <time>2022-05-24 19:58:29</time>
      </trkpt>
      <trkpt lat="40.74717" lon="0.5581">
        <ele>13.4</ele>
        <time>2022-05-24 19:58:30</time>
      </trkpt>
      <trkpt lat="40.74714" lon="0.55817">
        <ele>13.4</ele>
        <time>2022-05-24 19:58:31</time>
      </trkpt>
      <trkpt lat="40.74712" lon="0.55823">
        <ele>13.4</ele>
        <time>2022-05-24 19:58:32</time>
      </trkpt>
      <trkpt lat="40.7471" lon="0.55829">
        <ele>13.4</ele>
        <time>2022-05-24 19:58:33</time>
      </trkpt>
      <trkpt lat="40.74707" lon="0.55835">
        <ele>13.4</ele>
        <time>2022-05-24 19:58:34</time>
      </trkpt>
      <trkpt lat="40.74705" lon="0.55841">
        <ele>13.4</ele>
        <time>2022-05-24 19:58:35</time>
      </trkpt>
      <trkpt lat="40.74703" lon="0.55847">
        <ele>13.4</ele>
        <time>2022-05-24 19:58:36</time>
      </trkpt>
      <trkpt lat="40.747" lon="0.55854">
        <ele>13.4</ele>
        <time>2022-05-24 19:58:37</time>
      </trkpt>
      <trkpt lat="40.74697" lon="0.5586">
        <ele>13.4</ele>
        <time>2022-05-24 19:58:38</time>
      </trkpt>
      <trkpt lat="40.74695" lon="0.55866">
        <ele>13.4</ele>
        <time>2022-05-24 19:58:39</time>
      </trkpt>
      <trkpt lat="40.74693" lon="0.55872">
        <ele>13.4</ele>
        <time>2022-05-24 19:58:40</time>
      </trkpt>
      <trkpt lat="40.7469" lon="0.55878">
        <ele>13.4</ele>
        <time>2022-05-24 19:58:41</time>
      </trkpt>
      <trkpt lat="40.74687" lon="0.55884">
        <ele>13.4</ele>
        <time>2022-05-24 19:58:42</time>
      </trkpt>
      <trkpt lat="40.74684" lon="0.5589">
        <ele>13.4</ele>
        <time>2022-05-24 19:58:43</time>
      </trkpt>
      <trkpt lat="40.74681" lon="0.55896">
        <ele>13.4</ele>
        <time>2022-05-24 19:58:44</time>
      </trkpt>
      <trkpt lat="40.74678" lon="0.55901">
        <ele>13.4</ele>
        <time>2022-05-24 19:58:45</time>
      </trkpt>
      <trkpt lat="40.74675" lon="0.55907">
        <ele>13.4</ele>
        <time>2022-05-24 19:58:46</time>
      </trkpt>
      <trkpt lat="40.74672" lon="0.55912">
        <ele>13.4</ele>
        <time>2022-05-24 19:58:47</time>
      </trkpt>
      <trkpt lat="40.74669" lon="0.55918">
        <ele>13.4</ele>
        <time>2022-05-24 19:58:48</time>
      </trkpt>
      <trkpt lat="40.74666" lon="0.55923">
        <ele>13.4</ele>
        <time>2022-05-24 19:58:49</time>
      </trkpt>
      <trkpt lat="40.74663" lon="0.55928">
        <ele>13.4</ele>
        <time>2022-05-24 19:58:50</time>
      </trkpt>
      <trkpt lat="40.7466" lon="0.55933">
        <ele>13.4</ele>
        <time>2022-05-24 19:58:51</time>
      </trkpt>
      <trkpt lat="40.74656" lon="0.55938">
        <ele>13.4</ele>
        <time>2022-05-24 19:58:52</time>
      </trkpt>
      <trkpt lat="40.74652" lon="0.55943">
        <ele>13.4</ele>
        <time>2022-05-24 19:58:53</time>
      </trkpt>
      <trkpt lat="40.74649" lon="0.55948">
        <ele>13.4</ele>
        <time>2022-05-24 19:58:54</time>
      </trkpt>
      <trkpt lat="40.74646" lon="0.55953">
        <ele>13.2</ele>
        <time>2022-05-24 19:58:55</time>
      </trkpt>
      <trkpt lat="40.74641" lon="0.55957">
        <ele>13.2</ele>
        <time>2022-05-24 19:58:56</time>
      </trkpt>
      <trkpt lat="40.74638" lon="0.55962">
        <ele>13.2</ele>
        <time>2022-05-24 19:58:57</time>
      </trkpt>
      <trkpt lat="40.74634" lon="0.55967">
        <ele>13.2</ele>
        <time>2022-05-24 19:58:58</time>
      </trkpt>
      <trkpt lat="40.7463" lon="0.55971">
        <ele>13.2</ele>
        <time>2022-05-24 19:58:59</time>
      </trkpt>
      <trkpt lat="40.74626" lon="0.55976">
        <ele>13.2</ele>
        <time>2022-05-24 19:59:00</time>
      </trkpt>
      <trkpt lat="40.74622" lon="0.5598">
        <ele>13.2</ele>
        <time>2022-05-24 19:59:01</time>
      </trkpt>
      <trkpt lat="40.74617" lon="0.55985">
        <ele>13.2</ele>
        <time>2022-05-24 19:59:02</time>
      </trkpt>
      <trkpt lat="40.74613" lon="0.55989">
        <ele>13.2</ele>
        <time>2022-05-24 19:59:03</time>
      </trkpt>
      <trkpt lat="40.74609" lon="0.55993">
        <ele>13.2</ele>
        <time>2022-05-24 19:59:04</time>
      </trkpt>
      <trkpt lat="40.74605" lon="0.55997">
        <ele>13.2</ele>
        <time>2022-05-24 19:59:05</time>
      </trkpt>
      <trkpt lat="40.746" lon="0.56001">
        <ele>13.2</ele>
        <time>2022-05-24 19:59:06</time>
      </trkpt>
      <trkpt lat="40.74597" lon="0.56005">
        <ele>13.2</ele>
        <time>2022-05-24 19:59:07</time>
      </trkpt>
      <trkpt lat="40.74593" lon="0.56008">
        <ele>13</ele>
        <time>2022-05-24 19:59:08</time>
      </trkpt>
      <trkpt lat="40.74589" lon="0.56012">
        <ele>13</ele>
        <time>2022-05-24 19:59:09</time>
      </trkpt>
      <trkpt lat="40.74584" lon="0.56016">
        <ele>12.8</ele>
        <time>2022-05-24 19:59:10</time>
      </trkpt>
      <trkpt lat="40.7458" lon="0.5602">
        <ele>13</ele>
        <time>2022-05-24 19:59:11</time>
      </trkpt>
      <trkpt lat="40.74575" lon="0.56023">
        <ele>13</ele>
        <time>2022-05-24 19:59:12</time>
      </trkpt>
      <trkpt lat="40.74571" lon="0.56027">
        <ele>13</ele>
        <time>2022-05-24 19:59:13</time>
      </trkpt>
      <trkpt lat="40.74567" lon="0.56031">
        <ele>13</ele>
        <time>2022-05-24 19:59:14</time>
      </trkpt>
      <trkpt lat="40.74562" lon="0.56035">
        <ele>13</ele>
        <time>2022-05-24 19:59:15</time>
      </trkpt>
      <trkpt lat="40.74557" lon="0.56039">
        <ele>13.2</ele>
        <time>2022-05-24 19:59:16</time>
      </trkpt>
      <trkpt lat="40.74553" lon="0.56043">
        <ele>13.2</ele>
        <time>2022-05-24 19:59:17</time>
      </trkpt>
      <trkpt lat="40.74549" lon="0.56047">
        <ele>13</ele>
        <time>2022-05-24 19:59:18</time>
      </trkpt>
      <trkpt lat="40.74545" lon="0.56051">
        <ele>13</ele>
        <time>2022-05-24 19:59:19</time>
      </trkpt>
      <trkpt lat="40.7454" lon="0.56055">
        <ele>13</ele>
        <time>2022-05-24 19:59:20</time>
      </trkpt>
      <trkpt lat="40.74536" lon="0.56059">
        <ele>13</ele>
        <time>2022-05-24 19:59:21</time>
      </trkpt>
      <trkpt lat="40.74531" lon="0.56063">
        <ele>13</ele>
        <time>2022-05-24 19:59:22</time>
      </trkpt>
      <trkpt lat="40.74527" lon="0.56067">
        <ele>13</ele>
        <time>2022-05-24 19:59:23</time>
      </trkpt>
      <trkpt lat="40.74522" lon="0.56071">
        <ele>13</ele>
        <time>2022-05-24 19:59:24</time>
      </trkpt>
      <trkpt lat="40.74518" lon="0.56075">
        <ele>12.8</ele>
        <time>2022-05-24 19:59:25</time>
      </trkpt>
      <trkpt lat="40.74514" lon="0.56079">
        <ele>12.8</ele>
        <time>2022-05-24 19:59:26</time>
      </trkpt>
      <trkpt lat="40.74509" lon="0.56082">
        <ele>12.8</ele>
        <time>2022-05-24 19:59:27</time>
      </trkpt>
      <trkpt lat="40.74504" lon="0.56086">
        <ele>13</ele>
        <time>2022-05-24 19:59:28</time>
      </trkpt>
      <trkpt lat="40.745" lon="0.5609">
        <ele>13</ele>
        <time>2022-05-24 19:59:29</time>
      </trkpt>
      <trkpt lat="40.74496" lon="0.56094">
        <ele>13</ele>
        <time>2022-05-24 19:59:30</time>
      </trkpt>
      <trkpt lat="40.74493" lon="0.56097">
        <ele>13</ele>
        <time>2022-05-24 19:59:31</time>
      </trkpt>
      <trkpt lat="40.74489" lon="0.56101">
        <ele>13</ele>
        <time>2022-05-24 19:59:32</time>
      </trkpt>
      <trkpt lat="40.74485" lon="0.56104">
        <ele>13</ele>
        <time>2022-05-24 19:59:33</time>
      </trkpt>
      <trkpt lat="40.74481" lon="0.56108">
        <ele>13.2</ele>
        <time>2022-05-24 19:59:34</time>
      </trkpt>
      <trkpt lat="40.74477" lon="0.56111">
        <ele>13.2</ele>
        <time>2022-05-24 19:59:35</time>
      </trkpt>
      <trkpt lat="40.74473" lon="0.56115">
        <ele>13.2</ele>
        <time>2022-05-24 19:59:36</time>
      </trkpt>
      <trkpt lat="40.74469" lon="0.56118">
        <ele>13.2</ele>
        <time>2022-05-24 19:59:37</time>
      </trkpt>
      <trkpt lat="40.74465" lon="0.56122">
        <ele>13.2</ele>
        <time>2022-05-24 19:59:38</time>
      </trkpt>
      <trkpt lat="40.74461" lon="0.56126">
        <ele>13</ele>
        <time>2022-05-24 19:59:39</time>
      </trkpt>
      <trkpt lat="40.74457" lon="0.5613">
        <ele>13</ele>
        <time>2022-05-24 19:59:40</time>
      </trkpt>
      <trkpt lat="40.74453" lon="0.56133">
        <ele>13</ele>
        <time>2022-05-24 19:59:41</time>
      </trkpt>
      <trkpt lat="40.74448" lon="0.56137">
        <ele>13.2</ele>
        <time>2022-05-24 19:59:42</time>
      </trkpt>
      <trkpt lat="40.74443" lon="0.56141">
        <ele>13.2</ele>
        <time>2022-05-24 19:59:43</time>
      </trkpt>
      <trkpt lat="40.74439" lon="0.56144">
        <ele>13.2</ele>
        <time>2022-05-24 19:59:44</time>
      </trkpt>
      <trkpt lat="40.74435" lon="0.56148">
        <ele>13.2</ele>
        <time>2022-05-24 19:59:45</time>
      </trkpt>
      <trkpt lat="40.74431" lon="0.56152">
        <ele>13.2</ele>
        <time>2022-05-24 19:59:46</time>
      </trkpt>
      <trkpt lat="40.74427" lon="0.56155">
        <ele>13.2</ele>
        <time>2022-05-24 19:59:47</time>
      </trkpt>
      <trkpt lat="40.74423" lon="0.56159">
        <ele>13.4</ele>
        <time>2022-05-24 19:59:48</time>
      </trkpt>
      <trkpt lat="40.74419" lon="0.56163">
        <ele>13.4</ele>
        <time>2022-05-24 19:59:49</time>
      </trkpt>
      <trkpt lat="40.74415" lon="0.56166">
        <ele>13.4</ele>
        <time>2022-05-24 19:59:50</time>
      </trkpt>
      <trkpt lat="40.74411" lon="0.56169">
        <ele>13.4</ele>
        <time>2022-05-24 19:59:51</time>
      </trkpt>
      <trkpt lat="40.74407" lon="0.56173">
        <ele>13.4</ele>
        <time>2022-05-24 19:59:52</time>
      </trkpt>
      <trkpt lat="40.74403" lon="0.56176">
        <ele>13.4</ele>
        <time>2022-05-24 19:59:53</time>
      </trkpt>
      <trkpt lat="40.74399" lon="0.5618">
        <ele>13.4</ele>
        <time>2022-05-24 19:59:54</time>
      </trkpt>
      <trkpt lat="40.74395" lon="0.56183">
        <ele>13.4</ele>
        <time>2022-05-24 19:59:55</time>
      </trkpt>
      <trkpt lat="40.74391" lon="0.56187">
        <ele>13.4</ele>
        <time>2022-05-24 19:59:56</time>
      </trkpt>
      <trkpt lat="40.74387" lon="0.5619">
        <ele>13.6</ele>
        <time>2022-05-24 19:59:57</time>
      </trkpt>
      <trkpt lat="40.74383" lon="0.56194">
        <ele>13.6</ele>
        <time>2022-05-24 19:59:58</time>
      </trkpt>
      <trkpt lat="40.74379" lon="0.56197">
        <ele>13.6</ele>
        <time>2022-05-24 19:59:59</time>
      </trkpt>
      <trkpt lat="40.74375" lon="0.56201">
        <ele>13.6</ele>
        <time>2022-05-24 20:00:00</time>
      </trkpt>
      <trkpt lat="40.74371" lon="0.56204">
        <ele>13.6</ele>
        <time>2022-05-24 20:00:01</time>
      </trkpt>
      <trkpt lat="40.74367" lon="0.56207">
        <ele>13.6</ele>
        <time>2022-05-24 20:00:02</time>
      </trkpt>
      <trkpt lat="40.74363" lon="0.56211">
        <ele>13.6</ele>
        <time>2022-05-24 20:00:03</time>
      </trkpt>
      <trkpt lat="40.74358" lon="0.56214">
        <ele>13.6</ele>
        <time>2022-05-24 20:00:04</time>
      </trkpt>
      <trkpt lat="40.74354" lon="0.56217">
        <ele>13.6</ele>
        <time>2022-05-24 20:00:05</time>
      </trkpt>
      <trkpt lat="40.7435" lon="0.5622">
        <ele>13.6</ele>
        <time>2022-05-24 20:00:06</time>
      </trkpt>
      <trkpt lat="40.74346" lon="0.56223">
        <ele>13.8</ele>
        <time>2022-05-24 20:00:07</time>
      </trkpt>
      <trkpt lat="40.74342" lon="0.56226">
        <ele>13.8</ele>
        <time>2022-05-24 20:00:08</time>
      </trkpt>
      <trkpt lat="40.74337" lon="0.56229">
        <ele>13.8</ele>
        <time>2022-05-24 20:00:09</time>
      </trkpt>
      <trkpt lat="40.74333" lon="0.56232">
        <ele>14</ele>
        <time>2022-05-24 20:00:10</time>
      </trkpt>
      <trkpt lat="40.74329" lon="0.56234">
        <ele>14</ele>
        <time>2022-05-24 20:00:11</time>
      </trkpt>
      <trkpt lat="40.74325" lon="0.56237">
        <ele>14</ele>
        <time>2022-05-24 20:00:12</time>
      </trkpt>
      <trkpt lat="40.74321" lon="0.5624">
        <ele>14.2</ele>
        <time>2022-05-24 20:00:13</time>
      </trkpt>
      <trkpt lat="40.74317" lon="0.56243">
        <ele>14.2</ele>
        <time>2022-05-24 20:00:14</time>
      </trkpt>
      <trkpt lat="40.74313" lon="0.56245">
        <ele>14.2</ele>
        <time>2022-05-24 20:00:15</time>
      </trkpt>
      <trkpt lat="40.74309" lon="0.56249">
        <ele>14.2</ele>
        <time>2022-05-24 20:00:16</time>
      </trkpt>
      <trkpt lat="40.74305" lon="0.56252">
        <ele>14.4</ele>
        <time>2022-05-24 20:00:17</time>
      </trkpt>
      <trkpt lat="40.74301" lon="0.56255">
        <ele>14.4</ele>
        <time>2022-05-24 20:00:18</time>
      </trkpt>
      <trkpt lat="40.74298" lon="0.56259">
        <ele>14.4</ele>
        <time>2022-05-24 20:00:19</time>
      </trkpt>
      <trkpt lat="40.74294" lon="0.56262">
        <ele>14.4</ele>
        <time>2022-05-24 20:00:20</time>
      </trkpt>
      <trkpt lat="40.7429" lon="0.56265">
        <ele>14.4</ele>
        <time>2022-05-24 20:00:21</time>
      </trkpt>
      <trkpt lat="40.74286" lon="0.56268">
        <ele>14.4</ele>
        <time>2022-05-24 20:00:22</time>
      </trkpt>
      <trkpt lat="40.74282" lon="0.56272">
        <ele>14.6</ele>
        <time>2022-05-24 20:00:23</time>
      </trkpt>
      <trkpt lat="40.74279" lon="0.56275">
        <ele>14.6</ele>
        <time>2022-05-24 20:00:24</time>
      </trkpt>
      <trkpt lat="40.74274" lon="0.56279">
        <ele>14.6</ele>
        <time>2022-05-24 20:00:25</time>
      </trkpt>
      <trkpt lat="40.74271" lon="0.56282">
        <ele>14.8</ele>
        <time>2022-05-24 20:00:26</time>
      </trkpt>
      <trkpt lat="40.74266" lon="0.56285">
        <ele>15</ele>
        <time>2022-05-24 20:00:27</time>
      </trkpt>
      <trkpt lat="40.74263" lon="0.56289">
        <ele>15</ele>
        <time>2022-05-24 20:00:28</time>
      </trkpt>
      <trkpt lat="40.74258" lon="0.56292">
        <ele>15</ele>
        <time>2022-05-24 20:00:29</time>
      </trkpt>
      <trkpt lat="40.74254" lon="0.56296">
        <ele>15</ele>
        <time>2022-05-24 20:00:30</time>
      </trkpt>
      <trkpt lat="40.7425" lon="0.563">
        <ele>15</ele>
        <time>2022-05-24 20:00:31</time>
      </trkpt>
      <trkpt lat="40.74246" lon="0.56303">
        <ele>14.8</ele>
        <time>2022-05-24 20:00:32</time>
      </trkpt>
      <trkpt lat="40.74242" lon="0.56307">
        <ele>14.8</ele>
        <time>2022-05-24 20:00:33</time>
      </trkpt>
      <trkpt lat="40.74238" lon="0.56311">
        <ele>14.8</ele>
        <time>2022-05-24 20:00:34</time>
      </trkpt>
      <trkpt lat="40.74234" lon="0.56315">
        <ele>14.8</ele>
        <time>2022-05-24 20:00:35</time>
      </trkpt>
      <trkpt lat="40.74229" lon="0.56319">
        <ele>14.8</ele>
        <time>2022-05-24 20:00:36</time>
      </trkpt>
      <trkpt lat="40.74225" lon="0.56323">
        <ele>14.8</ele>
        <time>2022-05-24 20:00:37</time>
      </trkpt>
      <trkpt lat="40.74221" lon="0.56327">
        <ele>14.8</ele>
        <time>2022-05-24 20:00:38</time>
      </trkpt>
      <trkpt lat="40.74216" lon="0.5633">
        <ele>14.8</ele>
        <time>2022-05-24 20:00:39</time>
      </trkpt>
      <trkpt lat="40.74212" lon="0.56334">
        <ele>14.8</ele>
        <time>2022-05-24 20:00:40</time>
      </trkpt>
      <trkpt lat="40.74207" lon="0.56338">
        <ele>14.6</ele>
        <time>2022-05-24 20:00:41</time>
      </trkpt>
      <trkpt lat="40.74203" lon="0.56342">
        <ele>14.6</ele>
        <time>2022-05-24 20:00:42</time>
      </trkpt>
      <trkpt lat="40.74199" lon="0.56346">
        <ele>14.6</ele>
        <time>2022-05-24 20:00:43</time>
      </trkpt>
      <trkpt lat="40.74194" lon="0.5635">
        <ele>14.4</ele>
        <time>2022-05-24 20:00:44</time>
      </trkpt>
      <trkpt lat="40.7419" lon="0.56354">
        <ele>14.4</ele>
        <time>2022-05-24 20:00:45</time>
      </trkpt>
      <trkpt lat="40.74185" lon="0.56358">
        <ele>14.4</ele>
        <time>2022-05-24 20:00:46</time>
      </trkpt>
      <trkpt lat="40.74181" lon="0.56362">
        <ele>14.4</ele>
        <time>2022-05-24 20:00:47</time>
      </trkpt>
      <trkpt lat="40.74177" lon="0.56366">
        <ele>14.4</ele>
        <time>2022-05-24 20:00:48</time>
      </trkpt>
      <trkpt lat="40.74172" lon="0.5637">
        <ele>14.4</ele>
        <time>2022-05-24 20:00:49</time>
      </trkpt>
      <trkpt lat="40.74167" lon="0.56374">
        <ele>14.4</ele>
        <time>2022-05-24 20:00:50</time>
      </trkpt>
      <trkpt lat="40.74163" lon="0.56378">
        <ele>14.4</ele>
        <time>2022-05-24 20:00:51</time>
      </trkpt>
      <trkpt lat="40.74158" lon="0.56382">
        <ele>14.2</ele>
        <time>2022-05-24 20:00:52</time>
      </trkpt>
      <trkpt lat="40.74154" lon="0.56387">
        <ele>14.2</ele>
        <time>2022-05-24 20:00:53</time>
      </trkpt>
      <trkpt lat="40.74149" lon="0.56391">
        <ele>14.2</ele>
        <time>2022-05-24 20:00:54</time>
      </trkpt>
      <trkpt lat="40.74145" lon="0.56395">
        <ele>14.2</ele>
        <time>2022-05-24 20:00:55</time>
      </trkpt>
      <trkpt lat="40.74141" lon="0.564">
        <ele>14.2</ele>
        <time>2022-05-24 20:00:56</time>
      </trkpt>
      <trkpt lat="40.74137" lon="0.56404">
        <ele>14</ele>
        <time>2022-05-24 20:00:57</time>
      </trkpt>
      <trkpt lat="40.74132" lon="0.56409">
        <ele>14</ele>
        <time>2022-05-24 20:00:58</time>
      </trkpt>
      <trkpt lat="40.74128" lon="0.56413">
        <ele>14</ele>
        <time>2022-05-24 20:00:59</time>
      </trkpt>
      <trkpt lat="40.74123" lon="0.56418">
        <ele>14</ele>
        <time>2022-05-24 20:01:00</time>
      </trkpt>
      <trkpt lat="40.74119" lon="0.56422">
        <ele>14</ele>
        <time>2022-05-24 20:01:01</time>
      </trkpt>
      <trkpt lat="40.74115" lon="0.56426">
        <ele>13.8</ele>
        <time>2022-05-24 20:01:02</time>
      </trkpt>
      <trkpt lat="40.74111" lon="0.56431">
        <ele>13.8</ele>
        <time>2022-05-24 20:01:03</time>
      </trkpt>
      <trkpt lat="40.74106" lon="0.56435">
        <ele>13.8</ele>
        <time>2022-05-24 20:01:04</time>
      </trkpt>
      <trkpt lat="40.74102" lon="0.56439">
        <ele>13.8</ele>
        <time>2022-05-24 20:01:05</time>
      </trkpt>
      <trkpt lat="40.74097" lon="0.56443">
        <ele>13.8</ele>
        <time>2022-05-24 20:01:06</time>
      </trkpt>
      <trkpt lat="40.74094" lon="0.56446">
        <ele>13.8</ele>
        <time>2022-05-24 20:01:07</time>
      </trkpt>
      <trkpt lat="40.74089" lon="0.5645">
        <ele>13.8</ele>
        <time>2022-05-24 20:01:08</time>
      </trkpt>
      <trkpt lat="40.74084" lon="0.56454">
        <ele>13.8</ele>
        <time>2022-05-24 20:01:09</time>
      </trkpt>
      <trkpt lat="40.7408" lon="0.56457">
        <ele>13.8</ele>
        <time>2022-05-24 20:01:10</time>
      </trkpt>
      <trkpt lat="40.74075" lon="0.56461">
        <ele>13.6</ele>
        <time>2022-05-24 20:01:11</time>
      </trkpt>
      <trkpt lat="40.74071" lon="0.56464">
        <ele>13.6</ele>
        <time>2022-05-24 20:01:12</time>
      </trkpt>
      <trkpt lat="40.74067" lon="0.56467">
        <ele>13.6</ele>
        <time>2022-05-24 20:01:13</time>
      </trkpt>
      <trkpt lat="40.74062" lon="0.5647">
        <ele>13.6</ele>
        <time>2022-05-24 20:01:14</time>
      </trkpt>
      <trkpt lat="40.74057" lon="0.56473">
        <ele>13.6</ele>
        <time>2022-05-24 20:01:15</time>
      </trkpt>
      <trkpt lat="40.74053" lon="0.56477">
        <ele>13.6</ele>
        <time>2022-05-24 20:01:16</time>
      </trkpt>
      <trkpt lat="40.74049" lon="0.5648">
        <ele>13.6</ele>
        <time>2022-05-24 20:01:17</time>
      </trkpt>
      <trkpt lat="40.74044" lon="0.56483">
        <ele>13.6</ele>
        <time>2022-05-24 20:01:18</time>
      </trkpt>
      <trkpt lat="40.7404" lon="0.56486">
        <ele>13.8</ele>
        <time>2022-05-24 20:01:19</time>
      </trkpt>
      <trkpt lat="40.74035" lon="0.56489">
        <ele>13.8</ele>
        <time>2022-05-24 20:01:20</time>
      </trkpt>
      <trkpt lat="40.74031" lon="0.56493">
        <ele>13.8</ele>
        <time>2022-05-24 20:01:21</time>
      </trkpt>
      <trkpt lat="40.74026" lon="0.56496">
        <ele>13.8</ele>
        <time>2022-05-24 20:01:22</time>
      </trkpt>
      <trkpt lat="40.74021" lon="0.56499">
        <ele>13.8</ele>
        <time>2022-05-24 20:01:23</time>
      </trkpt>
      <trkpt lat="40.74017" lon="0.56502">
        <ele>13.8</ele>
        <time>2022-05-24 20:01:24</time>
      </trkpt>
      <trkpt lat="40.74012" lon="0.56505">
        <ele>13.8</ele>
        <time>2022-05-24 20:01:25</time>
      </trkpt>
      <trkpt lat="40.74007" lon="0.56508">
        <ele>13.8</ele>
        <time>2022-05-24 20:01:26</time>
      </trkpt>
      <trkpt lat="40.74002" lon="0.56511">
        <ele>13.8</ele>
        <time>2022-05-24 20:01:27</time>
      </trkpt>
      <trkpt lat="40.73997" lon="0.56514">
        <ele>13.8</ele>
        <time>2022-05-24 20:01:28</time>
      </trkpt>
      <trkpt lat="40.73993" lon="0.56517">
        <ele>13.8</ele>
        <time>2022-05-24 20:01:29</time>
      </trkpt>
      <trkpt lat="40.73988" lon="0.5652">
        <ele>13.8</ele>
        <time>2022-05-24 20:01:30</time>
      </trkpt>
      <trkpt lat="40.73983" lon="0.56523">
        <ele>13.8</ele>
        <time>2022-05-24 20:01:31</time>
      </trkpt>
      <trkpt lat="40.73979" lon="0.56525">
        <ele>13.8</ele>
        <time>2022-05-24 20:01:32</time>
      </trkpt>
      <trkpt lat="40.73975" lon="0.56528">
        <ele>13.8</ele>
        <time>2022-05-24 20:01:33</time>
      </trkpt>
      <trkpt lat="40.7397" lon="0.56531">
        <ele>13.8</ele>
        <time>2022-05-24 20:01:34</time>
      </trkpt>
      <trkpt lat="40.73965" lon="0.56534">
        <ele>13.8</ele>
        <time>2022-05-24 20:01:35</time>
      </trkpt>
      <trkpt lat="40.73961" lon="0.56537">
        <ele>13.8</ele>
        <time>2022-05-24 20:01:36</time>
      </trkpt>
      <trkpt lat="40.73956" lon="0.56539">
        <ele>13.8</ele>
        <time>2022-05-24 20:01:37</time>
      </trkpt>
      <trkpt lat="40.73952" lon="0.56542">
        <ele>13.8</ele>
        <time>2022-05-24 20:01:38</time>
      </trkpt>
      <trkpt lat="40.73947" lon="0.56545">
        <ele>13.8</ele>
        <time>2022-05-24 20:01:39</time>
      </trkpt>
      <trkpt lat="40.73942" lon="0.56548">
        <ele>13.8</ele>
        <time>2022-05-24 20:01:40</time>
      </trkpt>
      <trkpt lat="40.73938" lon="0.5655">
        <ele>13.8</ele>
        <time>2022-05-24 20:01:41</time>
      </trkpt>
      <trkpt lat="40.73933" lon="0.56553">
        <ele>13.8</ele>
        <time>2022-05-24 20:01:42</time>
      </trkpt>
      <trkpt lat="40.73928" lon="0.56556">
        <ele>13.8</ele>
        <time>2022-05-24 20:01:43</time>
      </trkpt>
      <trkpt lat="40.73924" lon="0.56558">
        <ele>14</ele>
        <time>2022-05-24 20:01:44</time>
      </trkpt>
      <trkpt lat="40.73919" lon="0.56561">
        <ele>14</ele>
        <time>2022-05-24 20:01:45</time>
      </trkpt>
      <trkpt lat="40.73915" lon="0.56564">
        <ele>14</ele>
        <time>2022-05-24 20:01:46</time>
      </trkpt>
      <trkpt lat="40.7391" lon="0.56566">
        <ele>14</ele>
        <time>2022-05-24 20:01:47</time>
      </trkpt>
      <trkpt lat="40.73906" lon="0.56569">
        <ele>14</ele>
        <time>2022-05-24 20:01:48</time>
      </trkpt>
      <trkpt lat="40.73901" lon="0.56572">
        <ele>14</ele>
        <time>2022-05-24 20:01:49</time>
      </trkpt>
      <trkpt lat="40.73896" lon="0.56574">
        <ele>14.2</ele>
        <time>2022-05-24 20:01:50</time>
      </trkpt>
      <trkpt lat="40.73892" lon="0.56577">
        <ele>14.2</ele>
        <time>2022-05-24 20:01:51</time>
      </trkpt>
      <trkpt lat="40.73887" lon="0.56579">
        <ele>14.2</ele>
        <time>2022-05-24 20:01:52</time>
      </trkpt>
      <trkpt lat="40.73883" lon="0.56582">
        <ele>14.2</ele>
        <time>2022-05-24 20:01:53</time>
      </trkpt>
      <trkpt lat="40.73878" lon="0.56585">
        <ele>14.2</ele>
        <time>2022-05-24 20:01:54</time>
      </trkpt>
      <trkpt lat="40.73874" lon="0.56587">
        <ele>14.2</ele>
        <time>2022-05-24 20:01:55</time>
      </trkpt>
      <trkpt lat="40.73869" lon="0.5659">
        <ele>14</ele>
        <time>2022-05-24 20:01:56</time>
      </trkpt>
      <trkpt lat="40.73864" lon="0.56593">
        <ele>14</ele>
        <time>2022-05-24 20:01:57</time>
      </trkpt>
      <trkpt lat="40.7386" lon="0.56595">
        <ele>14.2</ele>
        <time>2022-05-24 20:01:58</time>
      </trkpt>
      <trkpt lat="40.73855" lon="0.56599">
        <ele>14.2</ele>
        <time>2022-05-24 20:01:59</time>
      </trkpt>
      <trkpt lat="40.73851" lon="0.56601">
        <ele>14.2</ele>
        <time>2022-05-24 20:02:00</time>
      </trkpt>
      <trkpt lat="40.73845" lon="0.56604">
        <ele>14.2</ele>
        <time>2022-05-24 20:02:01</time>
      </trkpt>
      <trkpt lat="40.73841" lon="0.56607">
        <ele>14</ele>
        <time>2022-05-24 20:02:02</time>
      </trkpt>
      <trkpt lat="40.73836" lon="0.56609">
        <ele>14</ele>
        <time>2022-05-24 20:02:03</time>
      </trkpt>
      <trkpt lat="40.73831" lon="0.56612">
        <ele>14.2</ele>
        <time>2022-05-24 20:02:04</time>
      </trkpt>
      <trkpt lat="40.73827" lon="0.56615">
        <ele>14.2</ele>
        <time>2022-05-24 20:02:05</time>
      </trkpt>
      <trkpt lat="40.73822" lon="0.56618">
        <ele>14.2</ele>
        <time>2022-05-24 20:02:06</time>
      </trkpt>
      <trkpt lat="40.73817" lon="0.56621">
        <ele>14.2</ele>
        <time>2022-05-24 20:02:07</time>
      </trkpt>
      <trkpt lat="40.73813" lon="0.56623">
        <ele>14.2</ele>
        <time>2022-05-24 20:02:08</time>
      </trkpt>
      <trkpt lat="40.73809" lon="0.56626">
        <ele>14.2</ele>
        <time>2022-05-24 20:02:09</time>
      </trkpt>
      <trkpt lat="40.73804" lon="0.56629">
        <ele>14.2</ele>
        <time>2022-05-24 20:02:10</time>
      </trkpt>
      <trkpt lat="40.73799" lon="0.56632">
        <ele>14.2</ele>
        <time>2022-05-24 20:02:11</time>
      </trkpt>
      <trkpt lat="40.73794" lon="0.56635">
        <ele>14.2</ele>
        <time>2022-05-24 20:02:12</time>
      </trkpt>
      <trkpt lat="40.7379" lon="0.56637">
        <ele>14.4</ele>
        <time>2022-05-24 20:02:13</time>
      </trkpt>
      <trkpt lat="40.73785" lon="0.5664">
        <ele>14.4</ele>
        <time>2022-05-24 20:02:14</time>
      </trkpt>
      <trkpt lat="40.7378" lon="0.56643">
        <ele>14.2</ele>
        <time>2022-05-24 20:02:15</time>
      </trkpt>
      <trkpt lat="40.73776" lon="0.56645">
        <ele>14.2</ele>
        <time>2022-05-24 20:02:16</time>
      </trkpt>
      <trkpt lat="40.73771" lon="0.56648">
        <ele>14.4</ele>
        <time>2022-05-24 20:02:17</time>
      </trkpt>
      <trkpt lat="40.73766" lon="0.56651">
        <ele>14.4</ele>
        <time>2022-05-24 20:02:18</time>
      </trkpt>
      <trkpt lat="40.73762" lon="0.56654">
        <ele>14.2</ele>
        <time>2022-05-24 20:02:19</time>
      </trkpt>
      <trkpt lat="40.73758" lon="0.56656">
        <ele>14.2</ele>
        <time>2022-05-24 20:02:20</time>
      </trkpt>
      <trkpt lat="40.73753" lon="0.56659">
        <ele>14.2</ele>
        <time>2022-05-24 20:02:21</time>
      </trkpt>
      <trkpt lat="40.73748" lon="0.56662">
        <ele>14.2</ele>
        <time>2022-05-24 20:02:22</time>
      </trkpt>
      <trkpt lat="40.73743" lon="0.56665">
        <ele>14.2</ele>
        <time>2022-05-24 20:02:23</time>
      </trkpt>
      <trkpt lat="40.73739" lon="0.56667">
        <ele>14.2</ele>
        <time>2022-05-24 20:02:24</time>
      </trkpt>
      <trkpt lat="40.73734" lon="0.5667">
        <ele>14.2</ele>
        <time>2022-05-24 20:02:25</time>
      </trkpt>
      <trkpt lat="40.73729" lon="0.56673">
        <ele>14.4</ele>
        <time>2022-05-24 20:02:26</time>
      </trkpt>
      <trkpt lat="40.73725" lon="0.56676">
        <ele>14.4</ele>
        <time>2022-05-24 20:02:27</time>
      </trkpt>
      <trkpt lat="40.73719" lon="0.56679">
        <ele>14.4</ele>
        <time>2022-05-24 20:02:28</time>
      </trkpt>
      <trkpt lat="40.73714" lon="0.56681">
        <ele>14.4</ele>
        <time>2022-05-24 20:02:29</time>
      </trkpt>
      <trkpt lat="40.7371" lon="0.56684">
        <ele>14.4</ele>
        <time>2022-05-24 20:02:30</time>
      </trkpt>
      <trkpt lat="40.73705" lon="0.56687">
        <ele>14.4</ele>
        <time>2022-05-24 20:02:31</time>
      </trkpt>
      <trkpt lat="40.737" lon="0.5669">
        <ele>14.4</ele>
        <time>2022-05-24 20:02:32</time>
      </trkpt>
      <trkpt lat="40.73696" lon="0.56692">
        <ele>14.4</ele>
        <time>2022-05-24 20:02:33</time>
      </trkpt>
      <trkpt lat="40.73691" lon="0.56695">
        <ele>14.4</ele>
        <time>2022-05-24 20:02:34</time>
      </trkpt>
      <trkpt lat="40.73687" lon="0.56698">
        <ele>14.4</ele>
        <time>2022-05-24 20:02:35</time>
      </trkpt>
      <trkpt lat="40.73682" lon="0.56701">
        <ele>14.4</ele>
        <time>2022-05-24 20:02:36</time>
      </trkpt>
      <trkpt lat="40.73677" lon="0.56703">
        <ele>14.4</ele>
        <time>2022-05-24 20:02:37</time>
      </trkpt>
      <trkpt lat="40.73673" lon="0.56706">
        <ele>14.4</ele>
        <time>2022-05-24 20:02:38</time>
      </trkpt>
      <trkpt lat="40.73668" lon="0.56709">
        <ele>14.4</ele>
        <time>2022-05-24 20:02:39</time>
      </trkpt>
      <trkpt lat="40.73664" lon="0.56712">
        <ele>14.2</ele>
        <time>2022-05-24 20:02:40</time>
      </trkpt>
      <trkpt lat="40.73659" lon="0.56715">
        <ele>14.2</ele>
        <time>2022-05-24 20:02:41</time>
      </trkpt>
      <trkpt lat="40.73655" lon="0.56717">
        <ele>14.2</ele>
        <time>2022-05-24 20:02:42</time>
      </trkpt>
      <trkpt lat="40.7365" lon="0.5672">
        <ele>14.2</ele>
        <time>2022-05-24 20:02:43</time>
      </trkpt>
      <trkpt lat="40.73645" lon="0.56723">
        <ele>14.2</ele>
        <time>2022-05-24 20:02:44</time>
      </trkpt>
      <trkpt lat="40.7364" lon="0.56725">
        <ele>14.2</ele>
        <time>2022-05-24 20:02:45</time>
      </trkpt>
      <trkpt lat="40.73636" lon="0.56728">
        <ele>14.2</ele>
        <time>2022-05-24 20:02:46</time>
      </trkpt>
      <trkpt lat="40.73631" lon="0.56731">
        <ele>14.2</ele>
        <time>2022-05-24 20:02:47</time>
      </trkpt>
      <trkpt lat="40.73627" lon="0.56734">
        <ele>14.4</ele>
        <time>2022-05-24 20:02:48</time>
      </trkpt>
      <trkpt lat="40.73622" lon="0.56737">
        <ele>14.2</ele>
        <time>2022-05-24 20:02:49</time>
      </trkpt>
      <trkpt lat="40.73618" lon="0.56739">
        <ele>14.2</ele>
        <time>2022-05-24 20:02:50</time>
      </trkpt>
      <trkpt lat="40.73613" lon="0.56742">
        <ele>14.4</ele>
        <time>2022-05-24 20:02:51</time>
      </trkpt>
      <trkpt lat="40.73608" lon="0.56745">
        <ele>14.4</ele>
        <time>2022-05-24 20:02:52</time>
      </trkpt>
      <trkpt lat="40.73603" lon="0.56748">
        <ele>14.4</ele>
        <time>2022-05-24 20:02:53</time>
      </trkpt>
      <trkpt lat="40.736" lon="0.5675">
        <ele>14.4</ele>
        <time>2022-05-24 20:02:54</time>
      </trkpt>
      <trkpt lat="40.73595" lon="0.56753">
        <ele>14.4</ele>
        <time>2022-05-24 20:02:55</time>
      </trkpt>
      <trkpt lat="40.7359" lon="0.56755">
        <ele>14.4</ele>
        <time>2022-05-24 20:02:56</time>
      </trkpt>
      <trkpt lat="40.73586" lon="0.56758">
        <ele>14.4</ele>
        <time>2022-05-24 20:02:57</time>
      </trkpt>
      <trkpt lat="40.73581" lon="0.56761">
        <ele>14.2</ele>
        <time>2022-05-24 20:02:58</time>
      </trkpt>
      <trkpt lat="40.73576" lon="0.56764">
        <ele>14.2</ele>
        <time>2022-05-24 20:02:59</time>
      </trkpt>
      <trkpt lat="40.73571" lon="0.56767">
        <ele>14.2</ele>
        <time>2022-05-24 20:03:00</time>
      </trkpt>
      <trkpt lat="40.73566" lon="0.5677">
        <ele>14.2</ele>
        <time>2022-05-24 20:03:01</time>
      </trkpt>
      <trkpt lat="40.73561" lon="0.56772">
        <ele>14.4</ele>
        <time>2022-05-24 20:03:02</time>
      </trkpt>
      <trkpt lat="40.73556" lon="0.56775">
        <ele>14.4</ele>
        <time>2022-05-24 20:03:03</time>
      </trkpt>
      <trkpt lat="40.73551" lon="0.56779">
        <ele>14.4</ele>
        <time>2022-05-24 20:03:04</time>
      </trkpt>
      <trkpt lat="40.73546" lon="0.56781">
        <ele>14.4</ele>
        <time>2022-05-24 20:03:05</time>
      </trkpt>
      <trkpt lat="40.73541" lon="0.56784">
        <ele>14.6</ele>
        <time>2022-05-24 20:03:06</time>
      </trkpt>
      <trkpt lat="40.73536" lon="0.56787">
        <ele>14.6</ele>
        <time>2022-05-24 20:03:07</time>
      </trkpt>
      <trkpt lat="40.73532" lon="0.5679">
        <ele>14.6</ele>
        <time>2022-05-24 20:03:08</time>
      </trkpt>
      <trkpt lat="40.73527" lon="0.56793">
        <ele>14.6</ele>
        <time>2022-05-24 20:03:09</time>
      </trkpt>
      <trkpt lat="40.73522" lon="0.56795">
        <ele>14.6</ele>
        <time>2022-05-24 20:03:10</time>
      </trkpt>
      <trkpt lat="40.73517" lon="0.56798">
        <ele>14.6</ele>
        <time>2022-05-24 20:03:11</time>
      </trkpt>
      <trkpt lat="40.73513" lon="0.56801">
        <ele>14.6</ele>
        <time>2022-05-24 20:03:12</time>
      </trkpt>
      <trkpt lat="40.73508" lon="0.56804">
        <ele>14.6</ele>
        <time>2022-05-24 20:03:13</time>
      </trkpt>
      <trkpt lat="40.73503" lon="0.56807">
        <ele>14.6</ele>
        <time>2022-05-24 20:03:14</time>
      </trkpt>
      <trkpt lat="40.73498" lon="0.56809">
        <ele>14.6</ele>
        <time>2022-05-24 20:03:15</time>
      </trkpt>
      <trkpt lat="40.73494" lon="0.56812">
        <ele>14.6</ele>
        <time>2022-05-24 20:03:16</time>
      </trkpt>
      <trkpt lat="40.73489" lon="0.56815">
        <ele>14.6</ele>
        <time>2022-05-24 20:03:17</time>
      </trkpt>
      <trkpt lat="40.73484" lon="0.56818">
        <ele>14.6</ele>
        <time>2022-05-24 20:03:18</time>
      </trkpt>
      <trkpt lat="40.73479" lon="0.56821">
        <ele>14.8</ele>
        <time>2022-05-24 20:03:19</time>
      </trkpt>
      <trkpt lat="40.73474" lon="0.56824">
        <ele>14.8</ele>
        <time>2022-05-24 20:03:20</time>
      </trkpt>
      <trkpt lat="40.7347" lon="0.56827">
        <ele>14.8</ele>
        <time>2022-05-24 20:03:21</time>
      </trkpt>
      <trkpt lat="40.73465" lon="0.5683">
        <ele>14.8</ele>
        <time>2022-05-24 20:03:22</time>
      </trkpt>
      <trkpt lat="40.7346" lon="0.56832">
        <ele>14.8</ele>
        <time>2022-05-24 20:03:23</time>
      </trkpt>
      <trkpt lat="40.73455" lon="0.56835">
        <ele>14.8</ele>
        <time>2022-05-24 20:03:24</time>
      </trkpt>
      <trkpt lat="40.7345" lon="0.56838">
        <ele>14.8</ele>
        <time>2022-05-24 20:03:25</time>
      </trkpt>
      <trkpt lat="40.73445" lon="0.56841">
        <ele>14.8</ele>
        <time>2022-05-24 20:03:26</time>
      </trkpt>
      <trkpt lat="40.73441" lon="0.56844">
        <ele>14.6</ele>
        <time>2022-05-24 20:03:27</time>
      </trkpt>
      <trkpt lat="40.73436" lon="0.56847">
        <ele>14.6</ele>
        <time>2022-05-24 20:03:28</time>
      </trkpt>
      <trkpt lat="40.73431" lon="0.5685">
        <ele>14.6</ele>
        <time>2022-05-24 20:03:29</time>
      </trkpt>
      <trkpt lat="40.73426" lon="0.56853">
        <ele>14.6</ele>
        <time>2022-05-24 20:03:30</time>
      </trkpt>
      <trkpt lat="40.73421" lon="0.56856">
        <ele>14.6</ele>
        <time>2022-05-24 20:03:31</time>
      </trkpt>
      <trkpt lat="40.73416" lon="0.56859">
        <ele>14.6</ele>
        <time>2022-05-24 20:03:32</time>
      </trkpt>
      <trkpt lat="40.73411" lon="0.56861">
        <ele>14.6</ele>
        <time>2022-05-24 20:03:33</time>
      </trkpt>
      <trkpt lat="40.73406" lon="0.56864">
        <ele>14.6</ele>
        <time>2022-05-24 20:03:34</time>
      </trkpt>
      <trkpt lat="40.73401" lon="0.56867">
        <ele>14.8</ele>
        <time>2022-05-24 20:03:35</time>
      </trkpt>
      <trkpt lat="40.73396" lon="0.56869">
        <ele>14.8</ele>
        <time>2022-05-24 20:03:36</time>
      </trkpt>
      <trkpt lat="40.73391" lon="0.56872">
        <ele>14.8</ele>
        <time>2022-05-24 20:03:37</time>
      </trkpt>
      <trkpt lat="40.73386" lon="0.56875">
        <ele>14.8</ele>
        <time>2022-05-24 20:03:38</time>
      </trkpt>
      <trkpt lat="40.73381" lon="0.56877">
        <ele>14.8</ele>
        <time>2022-05-24 20:03:39</time>
      </trkpt>
      <trkpt lat="40.73376" lon="0.5688">
        <ele>14.8</ele>
        <time>2022-05-24 20:03:40</time>
      </trkpt>
      <trkpt lat="40.73371" lon="0.56882">
        <ele>14.8</ele>
        <time>2022-05-24 20:03:41</time>
      </trkpt>
      <trkpt lat="40.73366" lon="0.56884">
        <ele>14.6</ele>
        <time>2022-05-24 20:03:42</time>
      </trkpt>
      <trkpt lat="40.73361" lon="0.56886">
        <ele>14.6</ele>
        <time>2022-05-24 20:03:43</time>
      </trkpt>
      <trkpt lat="40.73356" lon="0.56889">
        <ele>14.8</ele>
        <time>2022-05-24 20:03:44</time>
      </trkpt>
      <trkpt lat="40.73351" lon="0.56891">
        <ele>14.8</ele>
        <time>2022-05-24 20:03:45</time>
      </trkpt>
      <trkpt lat="40.73346" lon="0.56893">
        <ele>14.8</ele>
        <time>2022-05-24 20:03:46</time>
      </trkpt>
      <trkpt lat="40.73341" lon="0.56895">
        <ele>14.8</ele>
        <time>2022-05-24 20:03:47</time>
      </trkpt>
      <trkpt lat="40.73336" lon="0.56897">
        <ele>14.8</ele>
        <time>2022-05-24 20:03:48</time>
      </trkpt>
      <trkpt lat="40.73331" lon="0.56899">
        <ele>14.8</ele>
        <time>2022-05-24 20:03:49</time>
      </trkpt>
      <trkpt lat="40.73326" lon="0.56901">
        <ele>15</ele>
        <time>2022-05-24 20:03:50</time>
      </trkpt>
      <trkpt lat="40.73321" lon="0.56903">
        <ele>15</ele>
        <time>2022-05-24 20:03:51</time>
      </trkpt>
      <trkpt lat="40.73315" lon="0.56905">
        <ele>14.8</ele>
        <time>2022-05-24 20:03:52</time>
      </trkpt>
      <trkpt lat="40.7331" lon="0.56907">
        <ele>14.8</ele>
        <time>2022-05-24 20:03:53</time>
      </trkpt>
      <trkpt lat="40.73306" lon="0.56909">
        <ele>14.8</ele>
        <time>2022-05-24 20:03:54</time>
      </trkpt>
      <trkpt lat="40.733" lon="0.56911">
        <ele>14.8</ele>
        <time>2022-05-24 20:03:55</time>
      </trkpt>
      <trkpt lat="40.73295" lon="0.56913">
        <ele>14.8</ele>
        <time>2022-05-24 20:03:56</time>
      </trkpt>
      <trkpt lat="40.7329" lon="0.56915">
        <ele>15</ele>
        <time>2022-05-24 20:03:57</time>
      </trkpt>
      <trkpt lat="40.73285" lon="0.56917">
        <ele>14.8</ele>
        <time>2022-05-24 20:03:58</time>
      </trkpt>
      <trkpt lat="40.7328" lon="0.56919">
        <ele>14.8</ele>
        <time>2022-05-24 20:03:59</time>
      </trkpt>
      <trkpt lat="40.73275" lon="0.56921">
        <ele>14.8</ele>
        <time>2022-05-24 20:04:00</time>
      </trkpt>
      <trkpt lat="40.7327" lon="0.56923">
        <ele>15</ele>
        <time>2022-05-24 20:04:01</time>
      </trkpt>
      <trkpt lat="40.73265" lon="0.56925">
        <ele>15</ele>
        <time>2022-05-24 20:04:02</time>
      </trkpt>
      <trkpt lat="40.7326" lon="0.56927">
        <ele>15</ele>
        <time>2022-05-24 20:04:03</time>
      </trkpt>
      <trkpt lat="40.73254" lon="0.56928">
        <ele>15</ele>
        <time>2022-05-24 20:04:04</time>
      </trkpt>
      <trkpt lat="40.73249" lon="0.5693">
        <ele>15</ele>
        <time>2022-05-24 20:04:05</time>
      </trkpt>
      <trkpt lat="40.73244" lon="0.56933">
        <ele>15.2</ele>
        <time>2022-05-24 20:04:06</time>
      </trkpt>
      <trkpt lat="40.73239" lon="0.56935">
        <ele>15.2</ele>
        <time>2022-05-24 20:04:07</time>
      </trkpt>
      <trkpt lat="40.73233" lon="0.56937">
        <ele>15</ele>
        <time>2022-05-24 20:04:08</time>
      </trkpt>
      <trkpt lat="40.73228" lon="0.56939">
        <ele>15</ele>
        <time>2022-05-24 20:04:09</time>
      </trkpt>
      <trkpt lat="40.73223" lon="0.56941">
        <ele>15.2</ele>
        <time>2022-05-24 20:04:10</time>
      </trkpt>
      <trkpt lat="40.73219" lon="0.56942">
        <ele>15.2</ele>
        <time>2022-05-24 20:04:11</time>
      </trkpt>
      <trkpt lat="40.73214" lon="0.56944">
        <ele>15.2</ele>
        <time>2022-05-24 20:04:12</time>
      </trkpt>
      <trkpt lat="40.73209" lon="0.56946">
        <ele>15.2</ele>
        <time>2022-05-24 20:04:13</time>
      </trkpt>
      <trkpt lat="40.73204" lon="0.56948">
        <ele>15.2</ele>
        <time>2022-05-24 20:04:14</time>
      </trkpt>
      <trkpt lat="40.73199" lon="0.5695">
        <ele>15.2</ele>
        <time>2022-05-24 20:04:15</time>
      </trkpt>
      <trkpt lat="40.73193" lon="0.56952">
        <ele>15</ele>
        <time>2022-05-24 20:04:16</time>
      </trkpt>
      <trkpt lat="40.73188" lon="0.56954">
        <ele>15</ele>
        <time>2022-05-24 20:04:17</time>
      </trkpt>
      <trkpt lat="40.73183" lon="0.56956">
        <ele>15</ele>
        <time>2022-05-24 20:04:18</time>
      </trkpt>
      <trkpt lat="40.73178" lon="0.56958">
        <ele>15</ele>
        <time>2022-05-24 20:04:19</time>
      </trkpt>
      <trkpt lat="40.73173" lon="0.5696">
        <ele>15</ele>
        <time>2022-05-24 20:04:20</time>
      </trkpt>
      <trkpt lat="40.73168" lon="0.56962">
        <ele>15.2</ele>
        <time>2022-05-24 20:04:21</time>
      </trkpt>
      <trkpt lat="40.73163" lon="0.56964">
        <ele>15.2</ele>
        <time>2022-05-24 20:04:22</time>
      </trkpt>
      <trkpt lat="40.73158" lon="0.56966">
        <ele>15.2</ele>
        <time>2022-05-24 20:04:23</time>
      </trkpt>
      <trkpt lat="40.73153" lon="0.56968">
        <ele>15.2</ele>
        <time>2022-05-24 20:04:24</time>
      </trkpt>
      <trkpt lat="40.73148" lon="0.5697">
        <ele>15.2</ele>
        <time>2022-05-24 20:04:25</time>
      </trkpt>
      <trkpt lat="40.73143" lon="0.56972">
        <ele>15</ele>
        <time>2022-05-24 20:04:26</time>
      </trkpt>
      <trkpt lat="40.73138" lon="0.56974">
        <ele>15</ele>
        <time>2022-05-24 20:04:27</time>
      </trkpt>
      <trkpt lat="40.73133" lon="0.56976">
        <ele>15</ele>
        <time>2022-05-24 20:04:28</time>
      </trkpt>
      <trkpt lat="40.73128" lon="0.56978">
        <ele>15</ele>
        <time>2022-05-24 20:04:29</time>
      </trkpt>
      <trkpt lat="40.73122" lon="0.5698">
        <ele>15</ele>
        <time>2022-05-24 20:04:30</time>
      </trkpt>
      <trkpt lat="40.73117" lon="0.56982">
        <ele>15</ele>
        <time>2022-05-24 20:04:31</time>
      </trkpt>
      <trkpt lat="40.73112" lon="0.56984">
        <ele>15</ele>
        <time>2022-05-24 20:04:32</time>
      </trkpt>
      <trkpt lat="40.73107" lon="0.56986">
        <ele>15</ele>
        <time>2022-05-24 20:04:33</time>
      </trkpt>
      <trkpt lat="40.73102" lon="0.56988">
        <ele>15.2</ele>
        <time>2022-05-24 20:04:34</time>
      </trkpt>
      <trkpt lat="40.73097" lon="0.56989">
        <ele>15.2</ele>
        <time>2022-05-24 20:04:35</time>
      </trkpt>
      <trkpt lat="40.73093" lon="0.56991">
        <ele>15.2</ele>
        <time>2022-05-24 20:04:36</time>
      </trkpt>
      <trkpt lat="40.73089" lon="0.56993">
        <ele>15.2</ele>
        <time>2022-05-24 20:04:37</time>
      </trkpt>
      <trkpt lat="40.73085" lon="0.56995">
        <ele>15.4</ele>
        <time>2022-05-24 20:04:38</time>
      </trkpt>
      <trkpt lat="40.7308" lon="0.56996">
        <ele>15.2</ele>
        <time>2022-05-24 20:04:39</time>
      </trkpt>
      <trkpt lat="40.73076" lon="0.56998">
        <ele>15.2</ele>
        <time>2022-05-24 20:04:40</time>
      </trkpt>
      <trkpt lat="40.73071" lon="0.57">
        <ele>15.2</ele>
        <time>2022-05-24 20:04:41</time>
      </trkpt>
      <trkpt lat="40.73066" lon="0.57002">
        <ele>15.2</ele>
        <time>2022-05-24 20:04:42</time>
      </trkpt>
      <trkpt lat="40.73061" lon="0.57004">
        <ele>15.2</ele>
        <time>2022-05-24 20:04:43</time>
      </trkpt>
      <trkpt lat="40.73057" lon="0.57006">
        <ele>15.2</ele>
        <time>2022-05-24 20:04:44</time>
      </trkpt>
      <trkpt lat="40.73051" lon="0.57008">
        <ele>15.2</ele>
        <time>2022-05-24 20:04:45</time>
      </trkpt>
      <trkpt lat="40.73046" lon="0.5701">
        <ele>15.2</ele>
        <time>2022-05-24 20:04:46</time>
      </trkpt>
      <trkpt lat="40.73042" lon="0.57012">
        <ele>15</ele>
        <time>2022-05-24 20:04:47</time>
      </trkpt>
      <trkpt lat="40.73036" lon="0.57014">
        <ele>15.2</ele>
        <time>2022-05-24 20:04:48</time>
      </trkpt>
      <trkpt lat="40.73032" lon="0.57016">
        <ele>15.2</ele>
        <time>2022-05-24 20:04:49</time>
      </trkpt>
      <trkpt lat="40.73027" lon="0.57018">
        <ele>15.2</ele>
        <time>2022-05-24 20:04:50</time>
      </trkpt>
      <trkpt lat="40.73022" lon="0.57019">
        <ele>15.2</ele>
        <time>2022-05-24 20:04:51</time>
      </trkpt>
      <trkpt lat="40.73017" lon="0.57021">
        <ele>15.2</ele>
        <time>2022-05-24 20:04:52</time>
      </trkpt>
      <trkpt lat="40.73012" lon="0.57023">
        <ele>15.2</ele>
        <time>2022-05-24 20:04:53</time>
      </trkpt>
      <trkpt lat="40.73007" lon="0.57025">
        <ele>15.2</ele>
        <time>2022-05-24 20:04:54</time>
      </trkpt>
      <trkpt lat="40.73002" lon="0.57027">
        <ele>15.2</ele>
        <time>2022-05-24 20:04:55</time>
      </trkpt>
      <trkpt lat="40.72997" lon="0.57029">
        <ele>15.2</ele>
        <time>2022-05-24 20:04:56</time>
      </trkpt>
      <trkpt lat="40.72992" lon="0.57031">
        <ele>15.2</ele>
        <time>2022-05-24 20:04:57</time>
      </trkpt>
      <trkpt lat="40.72986" lon="0.57032">
        <ele>15.2</ele>
        <time>2022-05-24 20:04:58</time>
      </trkpt>
      <trkpt lat="40.72982" lon="0.57034">
        <ele>15.2</ele>
        <time>2022-05-24 20:04:59</time>
      </trkpt>
      <trkpt lat="40.72977" lon="0.57036">
        <ele>15.2</ele>
        <time>2022-05-24 20:05:00</time>
      </trkpt>
      <trkpt lat="40.72972" lon="0.57038">
        <ele>15.2</ele>
        <time>2022-05-24 20:05:01</time>
      </trkpt>
      <trkpt lat="40.72966" lon="0.5704">
        <ele>15.4</ele>
        <time>2022-05-24 20:05:02</time>
      </trkpt>
      <trkpt lat="40.72961" lon="0.57042">
        <ele>15.4</ele>
        <time>2022-05-24 20:05:03</time>
      </trkpt>
      <trkpt lat="40.72957" lon="0.57044">
        <ele>15.4</ele>
        <time>2022-05-24 20:05:04</time>
      </trkpt>
      <trkpt lat="40.72951" lon="0.57046">
        <ele>15.4</ele>
        <time>2022-05-24 20:05:05</time>
      </trkpt>
      <trkpt lat="40.72947" lon="0.57048">
        <ele>15.4</ele>
        <time>2022-05-24 20:05:06</time>
      </trkpt>
      <trkpt lat="40.72941" lon="0.5705">
        <ele>15.4</ele>
        <time>2022-05-24 20:05:07</time>
      </trkpt>
      <trkpt lat="40.72936" lon="0.57052">
        <ele>15.4</ele>
        <time>2022-05-24 20:05:08</time>
      </trkpt>
      <trkpt lat="40.72931" lon="0.57054">
        <ele>15.4</ele>
        <time>2022-05-24 20:05:09</time>
      </trkpt>
      <trkpt lat="40.72926" lon="0.57056">
        <ele>15.4</ele>
        <time>2022-05-24 20:05:10</time>
      </trkpt>
      <trkpt lat="40.72921" lon="0.57058">
        <ele>15.4</ele>
        <time>2022-05-24 20:05:11</time>
      </trkpt>
      <trkpt lat="40.72916" lon="0.5706">
        <ele>15.4</ele>
        <time>2022-05-24 20:05:12</time>
      </trkpt>
      <trkpt lat="40.72911" lon="0.57061">
        <ele>15.4</ele>
        <time>2022-05-24 20:05:13</time>
      </trkpt>
      <trkpt lat="40.72906" lon="0.57063">
        <ele>15.4</ele>
        <time>2022-05-24 20:05:14</time>
      </trkpt>
      <trkpt lat="40.72902" lon="0.57065">
        <ele>15.4</ele>
        <time>2022-05-24 20:05:15</time>
      </trkpt>
      <trkpt lat="40.72897" lon="0.57067">
        <ele>15.4</ele>
        <time>2022-05-24 20:05:16</time>
      </trkpt>
      <trkpt lat="40.72892" lon="0.57069">
        <ele>15.4</ele>
        <time>2022-05-24 20:05:17</time>
      </trkpt>
      <trkpt lat="40.72887" lon="0.57071">
        <ele>15.4</ele>
        <time>2022-05-24 20:05:18</time>
      </trkpt>
      <trkpt lat="40.72883" lon="0.57073">
        <ele>15.4</ele>
        <time>2022-05-24 20:05:19</time>
      </trkpt>
      <trkpt lat="40.72878" lon="0.57075">
        <ele>15.4</ele>
        <time>2022-05-24 20:05:20</time>
      </trkpt>
      <trkpt lat="40.72873" lon="0.57077">
        <ele>15.4</ele>
        <time>2022-05-24 20:05:21</time>
      </trkpt>
      <trkpt lat="40.72868" lon="0.57079">
        <ele>15.4</ele>
        <time>2022-05-24 20:05:22</time>
      </trkpt>
      <trkpt lat="40.72863" lon="0.5708">
        <ele>15.4</ele>
        <time>2022-05-24 20:05:23</time>
      </trkpt>
      <trkpt lat="40.72858" lon="0.57082">
        <ele>15.4</ele>
        <time>2022-05-24 20:05:24</time>
      </trkpt>
      <trkpt lat="40.72852" lon="0.57083">
        <ele>15.4</ele>
        <time>2022-05-24 20:05:25</time>
      </trkpt>
      <trkpt lat="40.72847" lon="0.57085">
        <ele>15.4</ele>
        <time>2022-05-24 20:05:26</time>
      </trkpt>
      <trkpt lat="40.72841" lon="0.57087">
        <ele>15.4</ele>
        <time>2022-05-24 20:05:27</time>
      </trkpt>
      <trkpt lat="40.72836" lon="0.57089">
        <ele>15.4</ele>
        <time>2022-05-24 20:05:28</time>
      </trkpt>
      <trkpt lat="40.72831" lon="0.5709">
        <ele>15.4</ele>
        <time>2022-05-24 20:05:29</time>
      </trkpt>
      <trkpt lat="40.72826" lon="0.57092">
        <ele>15.4</ele>
        <time>2022-05-24 20:05:30</time>
      </trkpt>
      <trkpt lat="40.7282" lon="0.57093">
        <ele>15.4</ele>
        <time>2022-05-24 20:05:31</time>
      </trkpt>
      <trkpt lat="40.72815" lon="0.57094">
        <ele>15.4</ele>
        <time>2022-05-24 20:05:32</time>
      </trkpt>
      <trkpt lat="40.7281" lon="0.57096">
        <ele>15.4</ele>
        <time>2022-05-24 20:05:33</time>
      </trkpt>
      <trkpt lat="40.72807" lon="0.57098">
        <ele>15.4</ele>
        <time>2022-05-24 20:05:34</time>
      </trkpt>
      <trkpt lat="40.72803" lon="0.571">
        <ele>15.4</ele>
        <time>2022-05-24 20:05:35</time>
      </trkpt>
      <trkpt lat="40.72801" lon="0.57103">
        <ele>15.6</ele>
        <time>2022-05-24 20:05:36</time>
      </trkpt>
      <trkpt lat="40.72798" lon="0.57105">
        <ele>15.6</ele>
        <time>2022-05-24 20:05:37</time>
      </trkpt>
      <trkpt lat="40.72796" lon="0.57107">
        <ele>15.6</ele>
        <time>2022-05-24 20:05:38</time>
      </trkpt>
      <trkpt lat="40.72792" lon="0.57108">
        <ele>15.6</ele>
        <time>2022-05-24 20:05:39</time>
      </trkpt>
      <trkpt lat="40.7279" lon="0.57109">
        <ele>15.6</ele>
        <time>2022-05-24 20:05:40</time>
      </trkpt>
      <trkpt lat="40.72787" lon="0.5711">
        <ele>15.6</ele>
        <time>2022-05-24 20:05:41</time>
      </trkpt>
      <trkpt lat="40.72785" lon="0.57111">
        <ele>15.8</ele>
        <time>2022-05-24 20:05:42</time>
      </trkpt>
      <trkpt lat="40.72781" lon="0.57113">
        <ele>15.8</ele>
        <time>2022-05-24 20:05:43</time>
      </trkpt>
      <trkpt lat="40.72777" lon="0.57114">
        <ele>15.8</ele>
        <time>2022-05-24 20:05:44</time>
      </trkpt>
      <trkpt lat="40.72773" lon="0.57115">
        <ele>15.6</ele>
        <time>2022-05-24 20:05:45</time>
      </trkpt>
      <trkpt lat="40.72769" lon="0.57116">
        <ele>15.6</ele>
        <time>2022-05-24 20:05:46</time>
      </trkpt>
      <trkpt lat="40.72765" lon="0.57117">
        <ele>15.6</ele>
        <time>2022-05-24 20:05:47</time>
      </trkpt>
      <trkpt lat="40.72759" lon="0.57119">
        <ele>15.6</ele>
        <time>2022-05-24 20:05:48</time>
      </trkpt>
      <trkpt lat="40.72755" lon="0.5712">
        <ele>15.4</ele>
        <time>2022-05-24 20:05:49</time>
      </trkpt>
      <trkpt lat="40.7275" lon="0.57121">
        <ele>15.4</ele>
        <time>2022-05-24 20:05:50</time>
      </trkpt>
      <trkpt lat="40.72745" lon="0.57122">
        <ele>15.4</ele>
        <time>2022-05-24 20:05:51</time>
      </trkpt>
      <trkpt lat="40.72741" lon="0.57123">
        <ele>15.4</ele>
        <time>2022-05-24 20:05:52</time>
      </trkpt>
      <trkpt lat="40.72736" lon="0.57124">
        <ele>15.4</ele>
        <time>2022-05-24 20:05:53</time>
      </trkpt>
      <trkpt lat="40.72733" lon="0.57125">
        <ele>15.4</ele>
        <time>2022-05-24 20:05:54</time>
      </trkpt>
      <trkpt lat="40.72728" lon="0.57126">
        <ele>15.4</ele>
        <time>2022-05-24 20:05:55</time>
      </trkpt>
      <trkpt lat="40.72723" lon="0.57127">
        <ele>15.4</ele>
        <time>2022-05-24 20:05:56</time>
      </trkpt>
      <trkpt lat="40.72719" lon="0.57127">
        <ele>15.2</ele>
        <time>2022-05-24 20:05:57</time>
      </trkpt>
      <trkpt lat="40.72714" lon="0.57128">
        <ele>15.2</ele>
        <time>2022-05-24 20:05:58</time>
      </trkpt>
      <trkpt lat="40.7271" lon="0.57129">
        <ele>15.2</ele>
        <time>2022-05-24 20:05:59</time>
      </trkpt>
      <trkpt lat="40.72705" lon="0.57129">
        <ele>15.2</ele>
        <time>2022-05-24 20:06:00</time>
      </trkpt>
      <trkpt lat="40.727" lon="0.57129">
        <ele>15.2</ele>
        <time>2022-05-24 20:06:01</time>
      </trkpt>
      <trkpt lat="40.72695" lon="0.5713">
        <ele>15.4</ele>
        <time>2022-05-24 20:06:02</time>
      </trkpt>
      <trkpt lat="40.72691" lon="0.5713">
        <ele>15.2</ele>
        <time>2022-05-24 20:06:03</time>
      </trkpt>
      <trkpt lat="40.72687" lon="0.5713">
        <ele>15.2</ele>
        <time>2022-05-24 20:06:04</time>
      </trkpt>
      <trkpt lat="40.72683" lon="0.57129">
        <ele>15.2</ele>
        <time>2022-05-24 20:06:05</time>
      </trkpt>
      <trkpt lat="40.72678" lon="0.57129">
        <ele>15.2</ele>
        <time>2022-05-24 20:06:06</time>
      </trkpt>
      <trkpt lat="40.72673" lon="0.57128">
        <ele>15.2</ele>
        <time>2022-05-24 20:06:07</time>
      </trkpt>
      <trkpt lat="40.72668" lon="0.57128">
        <ele>15.2</ele>
        <time>2022-05-24 20:06:08</time>
      </trkpt>
      <trkpt lat="40.72663" lon="0.57127">
        <ele>15.2</ele>
        <time>2022-05-24 20:06:09</time>
      </trkpt>
      <trkpt lat="40.72659" lon="0.57126">
        <ele>15.2</ele>
        <time>2022-05-24 20:06:10</time>
      </trkpt>
      <trkpt lat="40.72654" lon="0.57125">
        <ele>15.2</ele>
        <time>2022-05-24 20:06:11</time>
      </trkpt>
      <trkpt lat="40.72649" lon="0.57125">
        <ele>15.2</ele>
        <time>2022-05-24 20:06:12</time>
      </trkpt>
      <trkpt lat="40.72644" lon="0.57126">
        <ele>15.2</ele>
        <time>2022-05-24 20:06:13</time>
      </trkpt>
      <trkpt lat="40.72639" lon="0.57127">
        <ele>15.4</ele>
        <time>2022-05-24 20:06:14</time>
      </trkpt>
      <trkpt lat="40.72636" lon="0.57129">
        <ele>15.4</ele>
        <time>2022-05-24 20:06:15</time>
      </trkpt>
      <trkpt lat="40.72631" lon="0.57134">
        <ele>15.4</ele>
        <time>2022-05-24 20:06:16</time>
      </trkpt>
      <trkpt lat="40.72627" lon="0.57138">
        <ele>15.4</ele>
        <time>2022-05-24 20:06:17</time>
      </trkpt>
      <trkpt lat="40.72623" lon="0.57142">
        <ele>15.2</ele>
        <time>2022-05-24 20:06:18</time>
      </trkpt>
      <trkpt lat="40.7262" lon="0.57147">
        <ele>15.2</ele>
        <time>2022-05-24 20:06:19</time>
      </trkpt>
      <trkpt lat="40.72617" lon="0.57153">
        <ele>15</ele>
        <time>2022-05-24 20:06:20</time>
      </trkpt>
      <trkpt lat="40.72613" lon="0.57158">
        <ele>15</ele>
        <time>2022-05-24 20:06:21</time>
      </trkpt>
      <trkpt lat="40.72609" lon="0.57164">
        <ele>14.8</ele>
        <time>2022-05-24 20:06:22</time>
      </trkpt>
      <trkpt lat="40.72604" lon="0.57169">
        <ele>14.8</ele>
        <time>2022-05-24 20:06:23</time>
      </trkpt>
      <trkpt lat="40.726" lon="0.57174">
        <ele>14.6</ele>
        <time>2022-05-24 20:06:24</time>
      </trkpt>
      <trkpt lat="40.72595" lon="0.57179">
        <ele>14.6</ele>
        <time>2022-05-24 20:06:25</time>
      </trkpt>
      <trkpt lat="40.7259" lon="0.57183">
        <ele>14.6</ele>
        <time>2022-05-24 20:06:26</time>
      </trkpt>
      <trkpt lat="40.72585" lon="0.57186">
        <ele>14.6</ele>
        <time>2022-05-24 20:06:27</time>
      </trkpt>
      <trkpt lat="40.72579" lon="0.57189">
        <ele>14.4</ele>
        <time>2022-05-24 20:06:28</time>
      </trkpt>
      <trkpt lat="40.72573" lon="0.57192">
        <ele>14.4</ele>
        <time>2022-05-24 20:06:29</time>
      </trkpt>
      <trkpt lat="40.72568" lon="0.57194">
        <ele>14.4</ele>
        <time>2022-05-24 20:06:30</time>
      </trkpt>
      <trkpt lat="40.72562" lon="0.57197">
        <ele>14.4</ele>
        <time>2022-05-24 20:06:31</time>
      </trkpt>
      <trkpt lat="40.72557" lon="0.57199">
        <ele>14.4</ele>
        <time>2022-05-24 20:06:32</time>
      </trkpt>
      <trkpt lat="40.72552" lon="0.57201">
        <ele>14.4</ele>
        <time>2022-05-24 20:06:33</time>
      </trkpt>
      <trkpt lat="40.72546" lon="0.57203">
        <ele>14.4</ele>
        <time>2022-05-24 20:06:34</time>
      </trkpt>
      <trkpt lat="40.72541" lon="0.57205">
        <ele>14.4</ele>
        <time>2022-05-24 20:06:35</time>
      </trkpt>
      <trkpt lat="40.72536" lon="0.57208">
        <ele>14.2</ele>
        <time>2022-05-24 20:06:36</time>
      </trkpt>
      <trkpt lat="40.72531" lon="0.5721">
        <ele>14.2</ele>
        <time>2022-05-24 20:06:37</time>
      </trkpt>
      <trkpt lat="40.72526" lon="0.57212">
        <ele>14.2</ele>
        <time>2022-05-24 20:06:38</time>
      </trkpt>
      <trkpt lat="40.7252" lon="0.57214">
        <ele>14.2</ele>
        <time>2022-05-24 20:06:39</time>
      </trkpt>
      <trkpt lat="40.72515" lon="0.57216">
        <ele>14.2</ele>
        <time>2022-05-24 20:06:40</time>
      </trkpt>
      <trkpt lat="40.72511" lon="0.57219">
        <ele>14.2</ele>
        <time>2022-05-24 20:06:41</time>
      </trkpt>
      <trkpt lat="40.72506" lon="0.57221">
        <ele>14.2</ele>
        <time>2022-05-24 20:06:42</time>
      </trkpt>
      <trkpt lat="40.725" lon="0.57223">
        <ele>14.2</ele>
        <time>2022-05-24 20:06:43</time>
      </trkpt>
      <trkpt lat="40.72495" lon="0.57226">
        <ele>14.2</ele>
        <time>2022-05-24 20:06:44</time>
      </trkpt>
      <trkpt lat="40.7249" lon="0.57229">
        <ele>14.2</ele>
        <time>2022-05-24 20:06:45</time>
      </trkpt>
      <trkpt lat="40.72485" lon="0.57231">
        <ele>14.2</ele>
        <time>2022-05-24 20:06:46</time>
      </trkpt>
      <trkpt lat="40.7248" lon="0.57234">
        <ele>14.2</ele>
        <time>2022-05-24 20:06:47</time>
      </trkpt>
      <trkpt lat="40.72475" lon="0.57236">
        <ele>14.2</ele>
        <time>2022-05-24 20:06:48</time>
      </trkpt>
      <trkpt lat="40.7247" lon="0.57238">
        <ele>14.2</ele>
        <time>2022-05-24 20:06:49</time>
      </trkpt>
      <trkpt lat="40.72465" lon="0.57241">
        <ele>14.2</ele>
        <time>2022-05-24 20:06:50</time>
      </trkpt>
      <trkpt lat="40.7246" lon="0.57243">
        <ele>14.2</ele>
        <time>2022-05-24 20:06:51</time>
      </trkpt>
      <trkpt lat="40.72454" lon="0.57245">
        <ele>14.2</ele>
        <time>2022-05-24 20:06:52</time>
      </trkpt>
      <trkpt lat="40.72449" lon="0.57247">
        <ele>14</ele>
        <time>2022-05-24 20:06:53</time>
      </trkpt>
      <trkpt lat="40.72444" lon="0.57249">
        <ele>14</ele>
        <time>2022-05-24 20:06:54</time>
      </trkpt>
      <trkpt lat="40.72439" lon="0.57251">
        <ele>14</ele>
        <time>2022-05-24 20:06:55</time>
      </trkpt>
      <trkpt lat="40.72434" lon="0.57254">
        <ele>14</ele>
        <time>2022-05-24 20:06:56</time>
      </trkpt>
      <trkpt lat="40.72429" lon="0.57256">
        <ele>14</ele>
        <time>2022-05-24 20:06:57</time>
      </trkpt>
      <trkpt lat="40.72424" lon="0.57258">
        <ele>14</ele>
        <time>2022-05-24 20:06:58</time>
      </trkpt>
      <trkpt lat="40.72419" lon="0.5726">
        <ele>14</ele>
        <time>2022-05-24 20:06:59</time>
      </trkpt>
      <trkpt lat="40.72414" lon="0.57263">
        <ele>14</ele>
        <time>2022-05-24 20:07:00</time>
      </trkpt>
      <trkpt lat="40.72409" lon="0.57265">
        <ele>14</ele>
        <time>2022-05-24 20:07:01</time>
      </trkpt>
      <trkpt lat="40.72404" lon="0.57267">
        <ele>14</ele>
        <time>2022-05-24 20:07:02</time>
      </trkpt>
      <trkpt lat="40.72399" lon="0.57269">
        <ele>14</ele>
        <time>2022-05-24 20:07:03</time>
      </trkpt>
      <trkpt lat="40.72394" lon="0.57271">
        <ele>14</ele>
        <time>2022-05-24 20:07:04</time>
      </trkpt>
      <trkpt lat="40.72389" lon="0.57273">
        <ele>14</ele>
        <time>2022-05-24 20:07:05</time>
      </trkpt>
      <trkpt lat="40.72384" lon="0.57276">
        <ele>14</ele>
        <time>2022-05-24 20:07:06</time>
      </trkpt>
      <trkpt lat="40.72379" lon="0.57278">
        <ele>13.8</ele>
        <time>2022-05-24 20:07:07</time>
      </trkpt>
      <trkpt lat="40.72374" lon="0.5728">
        <ele>13.8</ele>
        <time>2022-05-24 20:07:08</time>
      </trkpt>
      <trkpt lat="40.72369" lon="0.57282">
        <ele>13.8</ele>
        <time>2022-05-24 20:07:09</time>
      </trkpt>
      <trkpt lat="40.72364" lon="0.57285">
        <ele>13.8</ele>
        <time>2022-05-24 20:07:10</time>
      </trkpt>
      <trkpt lat="40.72359" lon="0.57287">
        <ele>13.8</ele>
        <time>2022-05-24 20:07:11</time>
      </trkpt>
      <trkpt lat="40.72355" lon="0.57289">
        <ele>13.8</ele>
        <time>2022-05-24 20:07:12</time>
      </trkpt>
      <trkpt lat="40.7235" lon="0.57291">
        <ele>14</ele>
        <time>2022-05-24 20:07:13</time>
      </trkpt>
      <trkpt lat="40.72345" lon="0.57294">
        <ele>13.8</ele>
        <time>2022-05-24 20:07:14</time>
      </trkpt>
      <trkpt lat="40.7234" lon="0.57296">
        <ele>14</ele>
        <time>2022-05-24 20:07:15</time>
      </trkpt>
      <trkpt lat="40.72335" lon="0.57298">
        <ele>14</ele>
        <time>2022-05-24 20:07:16</time>
      </trkpt>
      <trkpt lat="40.7233" lon="0.573">
        <ele>14</ele>
        <time>2022-05-24 20:07:17</time>
      </trkpt>
      <trkpt lat="40.72325" lon="0.57302">
        <ele>13.8</ele>
        <time>2022-05-24 20:07:18</time>
      </trkpt>
      <trkpt lat="40.7232" lon="0.57304">
        <ele>13.8</ele>
        <time>2022-05-24 20:07:19</time>
      </trkpt>
      <trkpt lat="40.72315" lon="0.57306">
        <ele>13.8</ele>
        <time>2022-05-24 20:07:20</time>
      </trkpt>
      <trkpt lat="40.7231" lon="0.57309">
        <ele>13.8</ele>
        <time>2022-05-24 20:07:21</time>
      </trkpt>
      <trkpt lat="40.72305" lon="0.57311">
        <ele>13.8</ele>
        <time>2022-05-24 20:07:22</time>
      </trkpt>
      <trkpt lat="40.72301" lon="0.57313">
        <ele>13.8</ele>
        <time>2022-05-24 20:07:23</time>
      </trkpt>
      <trkpt lat="40.72296" lon="0.57315">
        <ele>13.8</ele>
        <time>2022-05-24 20:07:24</time>
      </trkpt>
      <trkpt lat="40.72291" lon="0.57318">
        <ele>13.8</ele>
        <time>2022-05-24 20:07:25</time>
      </trkpt>
      <trkpt lat="40.72286" lon="0.5732">
        <ele>13.8</ele>
        <time>2022-05-24 20:07:26</time>
      </trkpt>
      <trkpt lat="40.72281" lon="0.57322">
        <ele>13.8</ele>
        <time>2022-05-24 20:07:27</time>
      </trkpt>
      <trkpt lat="40.72276" lon="0.57324">
        <ele>13.8</ele>
        <time>2022-05-24 20:07:28</time>
      </trkpt>
      <trkpt lat="40.72271" lon="0.57326">
        <ele>13.8</ele>
        <time>2022-05-24 20:07:29</time>
      </trkpt>
      <trkpt lat="40.72266" lon="0.57329">
        <ele>13.8</ele>
        <time>2022-05-24 20:07:30</time>
      </trkpt>
      <trkpt lat="40.72261" lon="0.57331">
        <ele>13.6</ele>
        <time>2022-05-24 20:07:31</time>
      </trkpt>
      <trkpt lat="40.72256" lon="0.57333">
        <ele>13.6</ele>
        <time>2022-05-24 20:07:32</time>
      </trkpt>
      <trkpt lat="40.72251" lon="0.57335">
        <ele>13.6</ele>
        <time>2022-05-24 20:07:33</time>
      </trkpt>
      <trkpt lat="40.72246" lon="0.57338">
        <ele>13.6</ele>
        <time>2022-05-24 20:07:34</time>
      </trkpt>
      <trkpt lat="40.7224" lon="0.5734">
        <ele>13.6</ele>
        <time>2022-05-24 20:07:35</time>
      </trkpt>
      <trkpt lat="40.72235" lon="0.57342">
        <ele>13.6</ele>
        <time>2022-05-24 20:07:36</time>
      </trkpt>
      <trkpt lat="40.72231" lon="0.57344">
        <ele>13.6</ele>
        <time>2022-05-24 20:07:37</time>
      </trkpt>
      <trkpt lat="40.72226" lon="0.57346">
        <ele>13.6</ele>
        <time>2022-05-24 20:07:38</time>
      </trkpt>
      <trkpt lat="40.7222" lon="0.57348">
        <ele>13.4</ele>
        <time>2022-05-24 20:07:39</time>
      </trkpt>
      <trkpt lat="40.72215" lon="0.57351">
        <ele>13.4</ele>
        <time>2022-05-24 20:07:40</time>
      </trkpt>
      <trkpt lat="40.7221" lon="0.57353">
        <ele>13.6</ele>
        <time>2022-05-24 20:07:41</time>
      </trkpt>
      <trkpt lat="40.72205" lon="0.57355">
        <ele>13.6</ele>
        <time>2022-05-24 20:07:42</time>
      </trkpt>
      <trkpt lat="40.722" lon="0.57357">
        <ele>13.6</ele>
        <time>2022-05-24 20:07:43</time>
      </trkpt>
      <trkpt lat="40.72195" lon="0.57359">
        <ele>13.6</ele>
        <time>2022-05-24 20:07:44</time>
      </trkpt>
      <trkpt lat="40.7219" lon="0.57361">
        <ele>13.6</ele>
        <time>2022-05-24 20:07:45</time>
      </trkpt>
      <trkpt lat="40.72185" lon="0.57364">
        <ele>13.4</ele>
        <time>2022-05-24 20:07:46</time>
      </trkpt>
      <trkpt lat="40.7218" lon="0.57366">
        <ele>13.4</ele>
        <time>2022-05-24 20:07:47</time>
      </trkpt>
      <trkpt lat="40.72175" lon="0.57368">
        <ele>13.4</ele>
        <time>2022-05-24 20:07:48</time>
      </trkpt>
      <trkpt lat="40.7217" lon="0.5737">
        <ele>13.4</ele>
        <time>2022-05-24 20:07:49</time>
      </trkpt>
      <trkpt lat="40.72165" lon="0.57372">
        <ele>13.4</ele>
        <time>2022-05-24 20:07:50</time>
      </trkpt>
      <trkpt lat="40.7216" lon="0.57374">
        <ele>13.4</ele>
        <time>2022-05-24 20:07:51</time>
      </trkpt>
      <trkpt lat="40.72155" lon="0.57377">
        <ele>13.4</ele>
        <time>2022-05-24 20:07:52</time>
      </trkpt>
      <trkpt lat="40.7215" lon="0.57379">
        <ele>13.4</ele>
        <time>2022-05-24 20:07:53</time>
      </trkpt>
      <trkpt lat="40.72145" lon="0.57381">
        <ele>13.4</ele>
        <time>2022-05-24 20:07:54</time>
      </trkpt>
      <trkpt lat="40.7214" lon="0.57383">
        <ele>13.2</ele>
        <time>2022-05-24 20:07:55</time>
      </trkpt>
      <trkpt lat="40.72135" lon="0.57386">
        <ele>13.2</ele>
        <time>2022-05-24 20:07:56</time>
      </trkpt>
      <trkpt lat="40.7213" lon="0.57388">
        <ele>13.2</ele>
        <time>2022-05-24 20:07:57</time>
      </trkpt>
      <trkpt lat="40.72125" lon="0.5739">
        <ele>13.2</ele>
        <time>2022-05-24 20:07:58</time>
      </trkpt>
      <trkpt lat="40.7212" lon="0.57392">
        <ele>13.2</ele>
        <time>2022-05-24 20:07:59</time>
      </trkpt>
      <trkpt lat="40.72115" lon="0.57395">
        <ele>13.2</ele>
        <time>2022-05-24 20:08:00</time>
      </trkpt>
      <trkpt lat="40.7211" lon="0.57397">
        <ele>13.2</ele>
        <time>2022-05-24 20:08:01</time>
      </trkpt>
      <trkpt lat="40.72104" lon="0.574">
        <ele>13.2</ele>
        <time>2022-05-24 20:08:02</time>
      </trkpt>
      <trkpt lat="40.72099" lon="0.57402">
        <ele>13.2</ele>
        <time>2022-05-24 20:08:03</time>
      </trkpt>
      <trkpt lat="40.72094" lon="0.57404">
        <ele>13</ele>
        <time>2022-05-24 20:08:04</time>
      </trkpt>
      <trkpt lat="40.72089" lon="0.57406">
        <ele>13</ele>
        <time>2022-05-24 20:08:05</time>
      </trkpt>
      <trkpt lat="40.72084" lon="0.57408">
        <ele>13</ele>
        <time>2022-05-24 20:08:06</time>
      </trkpt>
      <trkpt lat="40.72079" lon="0.5741">
        <ele>13</ele>
        <time>2022-05-24 20:08:07</time>
      </trkpt>
      <trkpt lat="40.72074" lon="0.57412">
        <ele>13</ele>
        <time>2022-05-24 20:08:08</time>
      </trkpt>
      <trkpt lat="40.72068" lon="0.57414">
        <ele>13</ele>
        <time>2022-05-24 20:08:09</time>
      </trkpt>
      <trkpt lat="40.72063" lon="0.57416">
        <ele>13</ele>
        <time>2022-05-24 20:08:10</time>
      </trkpt>
      <trkpt lat="40.72058" lon="0.57418">
        <ele>13</ele>
        <time>2022-05-24 20:08:11</time>
      </trkpt>
      <trkpt lat="40.72053" lon="0.5742">
        <ele>13</ele>
        <time>2022-05-24 20:08:12</time>
      </trkpt>
      <trkpt lat="40.72048" lon="0.57422">
        <ele>13</ele>
        <time>2022-05-24 20:08:13</time>
      </trkpt>
      <trkpt lat="40.72043" lon="0.57424">
        <ele>12.8</ele>
        <time>2022-05-24 20:08:14</time>
      </trkpt>
      <trkpt lat="40.72038" lon="0.57426">
        <ele>13</ele>
        <time>2022-05-24 20:08:15</time>
      </trkpt>
      <trkpt lat="40.72033" lon="0.57428">
        <ele>13</ele>
        <time>2022-05-24 20:08:16</time>
      </trkpt>
      <trkpt lat="40.72028" lon="0.5743">
        <ele>13</ele>
        <time>2022-05-24 20:08:17</time>
      </trkpt>
      <trkpt lat="40.72023" lon="0.57431">
        <ele>13</ele>
        <time>2022-05-24 20:08:18</time>
      </trkpt>
      <trkpt lat="40.72018" lon="0.57433">
        <ele>13</ele>
        <time>2022-05-24 20:08:19</time>
      </trkpt>
      <trkpt lat="40.72013" lon="0.57435">
        <ele>13</ele>
        <time>2022-05-24 20:08:20</time>
      </trkpt>
      <trkpt lat="40.72008" lon="0.57437">
        <ele>13</ele>
        <time>2022-05-24 20:08:21</time>
      </trkpt>
      <trkpt lat="40.72002" lon="0.57438">
        <ele>13</ele>
        <time>2022-05-24 20:08:22</time>
      </trkpt>
      <trkpt lat="40.71997" lon="0.5744">
        <ele>13</ele>
        <time>2022-05-24 20:08:23</time>
      </trkpt>
      <trkpt lat="40.71992" lon="0.57441">
        <ele>13</ele>
        <time>2022-05-24 20:08:24</time>
      </trkpt>
      <trkpt lat="40.71987" lon="0.57443">
        <ele>12.8</ele>
        <time>2022-05-24 20:08:25</time>
      </trkpt>
      <trkpt lat="40.71982" lon="0.57445">
        <ele>12.8</ele>
        <time>2022-05-24 20:08:26</time>
      </trkpt>
      <trkpt lat="40.71977" lon="0.57446">
        <ele>12.8</ele>
        <time>2022-05-24 20:08:27</time>
      </trkpt>
      <trkpt lat="40.71972" lon="0.57447">
        <ele>12.8</ele>
        <time>2022-05-24 20:08:28</time>
      </trkpt>
      <trkpt lat="40.71967" lon="0.57449">
        <ele>12.8</ele>
        <time>2022-05-24 20:08:29</time>
      </trkpt>
      <trkpt lat="40.71961" lon="0.5745">
        <ele>12.8</ele>
        <time>2022-05-24 20:08:30</time>
      </trkpt>
      <trkpt lat="40.71956" lon="0.57452">
        <ele>12.8</ele>
        <time>2022-05-24 20:08:31</time>
      </trkpt>
      <trkpt lat="40.71951" lon="0.57453">
        <ele>12.8</ele>
        <time>2022-05-24 20:08:32</time>
      </trkpt>
      <trkpt lat="40.71946" lon="0.57455">
        <ele>12.8</ele>
        <time>2022-05-24 20:08:33</time>
      </trkpt>
      <trkpt lat="40.7194" lon="0.57456">
        <ele>12.8</ele>
        <time>2022-05-24 20:08:34</time>
      </trkpt>
      <trkpt lat="40.71935" lon="0.57458">
        <ele>12.8</ele>
        <time>2022-05-24 20:08:35</time>
      </trkpt>
      <trkpt lat="40.7193" lon="0.57459">
        <ele>12.8</ele>
        <time>2022-05-24 20:08:36</time>
      </trkpt>
      <trkpt lat="40.71925" lon="0.5746">
        <ele>12.8</ele>
        <time>2022-05-24 20:08:37</time>
      </trkpt>
      <trkpt lat="40.71919" lon="0.57462">
        <ele>12.8</ele>
        <time>2022-05-24 20:08:38</time>
      </trkpt>
      <trkpt lat="40.71914" lon="0.57463">
        <ele>12.6</ele>
        <time>2022-05-24 20:08:39</time>
      </trkpt>
      <trkpt lat="40.71909" lon="0.57464">
        <ele>12.6</ele>
        <time>2022-05-24 20:08:40</time>
      </trkpt>
      <trkpt lat="40.71904" lon="0.57466">
        <ele>12.6</ele>
        <time>2022-05-24 20:08:41</time>
      </trkpt>
      <trkpt lat="40.71899" lon="0.57467">
        <ele>12.6</ele>
        <time>2022-05-24 20:08:42</time>
      </trkpt>
      <trkpt lat="40.71893" lon="0.57469">
        <ele>12.6</ele>
        <time>2022-05-24 20:08:43</time>
      </trkpt>
      <trkpt lat="40.71888" lon="0.5747">
        <ele>12.6</ele>
        <time>2022-05-24 20:08:44</time>
      </trkpt>
      <trkpt lat="40.71883" lon="0.57471">
        <ele>12.6</ele>
        <time>2022-05-24 20:08:45</time>
      </trkpt>
      <trkpt lat="40.71878" lon="0.57473">
        <ele>12.6</ele>
        <time>2022-05-24 20:08:46</time>
      </trkpt>
      <trkpt lat="40.71873" lon="0.57474">
        <ele>12.6</ele>
        <time>2022-05-24 20:08:47</time>
      </trkpt>
      <trkpt lat="40.71867" lon="0.57475">
        <ele>12.6</ele>
        <time>2022-05-24 20:08:48</time>
      </trkpt>
      <trkpt lat="40.71862" lon="0.57477">
        <ele>12.6</ele>
        <time>2022-05-24 20:08:49</time>
      </trkpt>
      <trkpt lat="40.71857" lon="0.57478">
        <ele>12.6</ele>
        <time>2022-05-24 20:08:50</time>
      </trkpt>
      <trkpt lat="40.71852" lon="0.5748">
        <ele>12.6</ele>
        <time>2022-05-24 20:08:51</time>
      </trkpt>
      <trkpt lat="40.71847" lon="0.57481">
        <ele>12.6</ele>
        <time>2022-05-24 20:08:52</time>
      </trkpt>
      <trkpt lat="40.71842" lon="0.57482">
        <ele>12.6</ele>
        <time>2022-05-24 20:08:53</time>
      </trkpt>
      <trkpt lat="40.71836" lon="0.57484">
        <ele>12.6</ele>
        <time>2022-05-24 20:08:54</time>
      </trkpt>
      <trkpt lat="40.71832" lon="0.57485">
        <ele>12.6</ele>
        <time>2022-05-24 20:08:55</time>
      </trkpt>
      <trkpt lat="40.71826" lon="0.57486">
        <ele>12.6</ele>
        <time>2022-05-24 20:08:56</time>
      </trkpt>
      <trkpt lat="40.71821" lon="0.57488">
        <ele>12.6</ele>
        <time>2022-05-24 20:08:57</time>
      </trkpt>
      <trkpt lat="40.71816" lon="0.57489">
        <ele>12.6</ele>
        <time>2022-05-24 20:08:58</time>
      </trkpt>
      <trkpt lat="40.71811" lon="0.5749">
        <ele>12.6</ele>
        <time>2022-05-24 20:08:59</time>
      </trkpt>
      <trkpt lat="40.71806" lon="0.57492">
        <ele>12.6</ele>
        <time>2022-05-24 20:09:00</time>
      </trkpt>
      <trkpt lat="40.71801" lon="0.57493">
        <ele>12.6</ele>
        <time>2022-05-24 20:09:01</time>
      </trkpt>
      <trkpt lat="40.71795" lon="0.57494">
        <ele>12.6</ele>
        <time>2022-05-24 20:09:02</time>
      </trkpt>
      <trkpt lat="40.7179" lon="0.57496">
        <ele>12.6</ele>
        <time>2022-05-24 20:09:03</time>
      </trkpt>
      <trkpt lat="40.71785" lon="0.57497">
        <ele>12.6</ele>
        <time>2022-05-24 20:09:04</time>
      </trkpt>
      <trkpt lat="40.7178" lon="0.57498">
        <ele>12.6</ele>
        <time>2022-05-24 20:09:05</time>
      </trkpt>
      <trkpt lat="40.71775" lon="0.57499">
        <ele>12.6</ele>
        <time>2022-05-24 20:09:06</time>
      </trkpt>
      <trkpt lat="40.71769" lon="0.575">
        <ele>12.6</ele>
        <time>2022-05-24 20:09:07</time>
      </trkpt>
      <trkpt lat="40.71764" lon="0.57501">
        <ele>12.6</ele>
        <time>2022-05-24 20:09:08</time>
      </trkpt>
      <trkpt lat="40.71759" lon="0.57502">
        <ele>12.6</ele>
        <time>2022-05-24 20:09:09</time>
      </trkpt>
      <trkpt lat="40.71753" lon="0.57503">
        <ele>12.6</ele>
        <time>2022-05-24 20:09:10</time>
      </trkpt>
      <trkpt lat="40.71748" lon="0.57504">
        <ele>12.6</ele>
        <time>2022-05-24 20:09:11</time>
      </trkpt>
      <trkpt lat="40.71743" lon="0.57505">
        <ele>12.6</ele>
        <time>2022-05-24 20:09:12</time>
      </trkpt>
      <trkpt lat="40.71737" lon="0.57506">
        <ele>12.6</ele>
        <time>2022-05-24 20:09:13</time>
      </trkpt>
      <trkpt lat="40.71732" lon="0.57506">
        <ele>12.4</ele>
        <time>2022-05-24 20:09:14</time>
      </trkpt>
      <trkpt lat="40.71727" lon="0.57506">
        <ele>12.4</ele>
        <time>2022-05-24 20:09:15</time>
      </trkpt>
      <trkpt lat="40.71722" lon="0.57506">
        <ele>12.4</ele>
        <time>2022-05-24 20:09:16</time>
      </trkpt>
      <trkpt lat="40.71717" lon="0.57506">
        <ele>12.4</ele>
        <time>2022-05-24 20:09:17</time>
      </trkpt>
      <trkpt lat="40.71712" lon="0.57506">
        <ele>12.4</ele>
        <time>2022-05-24 20:09:18</time>
      </trkpt>
      <trkpt lat="40.71706" lon="0.57505">
        <ele>12.4</ele>
        <time>2022-05-24 20:09:19</time>
      </trkpt>
      <trkpt lat="40.71701" lon="0.57504">
        <ele>12.4</ele>
        <time>2022-05-24 20:09:20</time>
      </trkpt>
      <trkpt lat="40.71696" lon="0.57504">
        <ele>12.4</ele>
        <time>2022-05-24 20:09:21</time>
      </trkpt>
      <trkpt lat="40.71692" lon="0.57503">
        <ele>12.4</ele>
        <time>2022-05-24 20:09:22</time>
      </trkpt>
      <trkpt lat="40.71687" lon="0.57502">
        <ele>12.4</ele>
        <time>2022-05-24 20:09:23</time>
      </trkpt>
      <trkpt lat="40.71682" lon="0.57501">
        <ele>12.2</ele>
        <time>2022-05-24 20:09:24</time>
      </trkpt>
      <trkpt lat="40.71677" lon="0.575">
        <ele>12.4</ele>
        <time>2022-05-24 20:09:25</time>
      </trkpt>
      <trkpt lat="40.71672" lon="0.57499">
        <ele>12.4</ele>
        <time>2022-05-24 20:09:26</time>
      </trkpt>
      <trkpt lat="40.71668" lon="0.57498">
        <ele>12.4</ele>
        <time>2022-05-24 20:09:27</time>
      </trkpt>
      <trkpt lat="40.71663" lon="0.57496">
        <ele>12.4</ele>
        <time>2022-05-24 20:09:28</time>
      </trkpt>
      <trkpt lat="40.71659" lon="0.57494">
        <ele>12.4</ele>
        <time>2022-05-24 20:09:29</time>
      </trkpt>
      <trkpt lat="40.71654" lon="0.57493">
        <ele>12.4</ele>
        <time>2022-05-24 20:09:30</time>
      </trkpt>
      <trkpt lat="40.7165" lon="0.57491">
        <ele>12.6</ele>
        <time>2022-05-24 20:09:31</time>
      </trkpt>
      <trkpt lat="40.71646" lon="0.5749">
        <ele>12.8</ele>
        <time>2022-05-24 20:09:32</time>
      </trkpt>
      <trkpt lat="40.71642" lon="0.57488">
        <ele>13</ele>
        <time>2022-05-24 20:09:33</time>
      </trkpt>
      <trkpt lat="40.71638" lon="0.57486">
        <ele>13.2</ele>
        <time>2022-05-24 20:09:34</time>
      </trkpt>
      <trkpt lat="40.71634" lon="0.57484">
        <ele>13.4</ele>
        <time>2022-05-24 20:09:35</time>
      </trkpt>
      <trkpt lat="40.71632" lon="0.57482">
        <ele>13.6</ele>
        <time>2022-05-24 20:09:36</time>
      </trkpt>
      <trkpt lat="40.71627" lon="0.5748">
        <ele>14</ele>
        <time>2022-05-24 20:09:37</time>
      </trkpt>
      <trkpt lat="40.71624" lon="0.57478">
        <ele>14.2</ele>
        <time>2022-05-24 20:09:38</time>
      </trkpt>
      <trkpt lat="40.71621" lon="0.57476">
        <ele>14.4</ele>
        <time>2022-05-24 20:09:39</time>
      </trkpt>
      <trkpt lat="40.71617" lon="0.57475">
        <ele>14.8</ele>
        <time>2022-05-24 20:09:40</time>
      </trkpt>
      <trkpt lat="40.71614" lon="0.57473">
        <ele>15</ele>
        <time>2022-05-24 20:09:41</time>
      </trkpt>
      <trkpt lat="40.71611" lon="0.57471">
        <ele>15.2</ele>
        <time>2022-05-24 20:09:42</time>
      </trkpt>
      <trkpt lat="40.71608" lon="0.5747">
        <ele>15.4</ele>
        <time>2022-05-24 20:09:43</time>
      </trkpt>
      <trkpt lat="40.71605" lon="0.57468">
        <ele>15.6</ele>
        <time>2022-05-24 20:09:44</time>
      </trkpt>
      <trkpt lat="40.71601" lon="0.57467">
        <ele>15.8</ele>
        <time>2022-05-24 20:09:45</time>
      </trkpt>
      <trkpt lat="40.71598" lon="0.57465">
        <ele>16</ele>
        <time>2022-05-24 20:09:46</time>
      </trkpt>
      <trkpt lat="40.71595" lon="0.57464">
        <ele>16.2</ele>
        <time>2022-05-24 20:09:47</time>
      </trkpt>
      <trkpt lat="40.71592" lon="0.57462">
        <ele>16.4</ele>
        <time>2022-05-24 20:09:48</time>
      </trkpt>
      <trkpt lat="40.71589" lon="0.57461">
        <ele>16.6</ele>
        <time>2022-05-24 20:09:49</time>
      </trkpt>
      <trkpt lat="40.71586" lon="0.5746">
        <ele>16.8</ele>
        <time>2022-05-24 20:09:50</time>
      </trkpt>
      <trkpt lat="40.71583" lon="0.57459">
        <ele>17</ele>
        <time>2022-05-24 20:09:51</time>
      </trkpt>
      <trkpt lat="40.7158" lon="0.57458">
        <ele>17.2</ele>
        <time>2022-05-24 20:09:52</time>
      </trkpt>
      <trkpt lat="40.71577" lon="0.57458">
        <ele>17.4</ele>
        <time>2022-05-24 20:09:53</time>
      </trkpt>
      <trkpt lat="40.71574" lon="0.57458">
        <ele>17.6</ele>
        <time>2022-05-24 20:09:54</time>
      </trkpt>
      <trkpt lat="40.71571" lon="0.57459">
        <ele>17.8</ele>
        <time>2022-05-24 20:09:55</time>
      </trkpt>
      <trkpt lat="40.71568" lon="0.57461">
        <ele>18</ele>
        <time>2022-05-24 20:09:56</time>
      </trkpt>
      <trkpt lat="40.71565" lon="0.57462">
        <ele>18.2</ele>
        <time>2022-05-24 20:09:57</time>
      </trkpt>
      <trkpt lat="40.71563" lon="0.57464">
        <ele>18.4</ele>
        <time>2022-05-24 20:09:58</time>
      </trkpt>
      <trkpt lat="40.7156" lon="0.57466">
        <ele>18.6</ele>
        <time>2022-05-24 20:09:59</time>
      </trkpt>
      <trkpt lat="40.71558" lon="0.57468">
        <ele>18.8</ele>
        <time>2022-05-24 20:10:00</time>
      </trkpt>
      <trkpt lat="40.71556" lon="0.57471">
        <ele>19.2</ele>
        <time>2022-05-24 20:10:01</time>
      </trkpt>
      <trkpt lat="40.71555" lon="0.57474">
        <ele>19.4</ele>
        <time>2022-05-24 20:10:02</time>
      </trkpt>
      <trkpt lat="40.71553" lon="0.57478">
        <ele>19.4</ele>
        <time>2022-05-24 20:10:03</time>
      </trkpt>
      <trkpt lat="40.71552" lon="0.57481">
        <ele>19.6</ele>
        <time>2022-05-24 20:10:04</time>
      </trkpt>
      <trkpt lat="40.71551" lon="0.57485">
        <ele>19.8</ele>
        <time>2022-05-24 20:10:05</time>
      </trkpt>
      <trkpt lat="40.7155" lon="0.57489">
        <ele>20</ele>
        <time>2022-05-24 20:10:06</time>
      </trkpt>
      <trkpt lat="40.71548" lon="0.57493">
        <ele>20.2</ele>
        <time>2022-05-24 20:10:07</time>
      </trkpt>
      <trkpt lat="40.71547" lon="0.57497">
        <ele>20.4</ele>
        <time>2022-05-24 20:10:08</time>
      </trkpt>
      <trkpt lat="40.71546" lon="0.57502">
        <ele>20.6</ele>
        <time>2022-05-24 20:10:09</time>
      </trkpt>
      <trkpt lat="40.71545" lon="0.57506">
        <ele>20.8</ele>
        <time>2022-05-24 20:10:10</time>
      </trkpt>
      <trkpt lat="40.71544" lon="0.5751">
        <ele>20.8</ele>
        <time>2022-05-24 20:10:11</time>
      </trkpt>
      <trkpt lat="40.71542" lon="0.57513">
        <ele>21</ele>
        <time>2022-05-24 20:10:12</time>
      </trkpt>
      <trkpt lat="40.71541" lon="0.57517">
        <ele>21.2</ele>
        <time>2022-05-24 20:10:13</time>
      </trkpt>
      <trkpt lat="40.7154" lon="0.5752">
        <ele>21.4</ele>
        <time>2022-05-24 20:10:14</time>
      </trkpt>
      <trkpt lat="40.71539" lon="0.57524">
        <ele>21.6</ele>
        <time>2022-05-24 20:10:15</time>
      </trkpt>
      <trkpt lat="40.71538" lon="0.57528">
        <ele>21.8</ele>
        <time>2022-05-24 20:10:16</time>
      </trkpt>
      <trkpt lat="40.71537" lon="0.57531">
        <ele>22</ele>
        <time>2022-05-24 20:10:17</time>
      </trkpt>
      <trkpt lat="40.71536" lon="0.57535">
        <ele>22.2</ele>
        <time>2022-05-24 20:10:18</time>
      </trkpt>
      <trkpt lat="40.71535" lon="0.57539">
        <ele>22.4</ele>
        <time>2022-05-24 20:10:19</time>
      </trkpt>
      <trkpt lat="40.71534" lon="0.57542">
        <ele>22.6</ele>
        <time>2022-05-24 20:10:20</time>
      </trkpt>
      <trkpt lat="40.71533" lon="0.57546">
        <ele>22.8</ele>
        <time>2022-05-24 20:10:21</time>
      </trkpt>
      <trkpt lat="40.71532" lon="0.57549">
        <ele>23</ele>
        <time>2022-05-24 20:10:22</time>
      </trkpt>
      <trkpt lat="40.71531" lon="0.57553">
        <ele>23</ele>
        <time>2022-05-24 20:10:23</time>
      </trkpt>
      <trkpt lat="40.7153" lon="0.57557">
        <ele>23.2</ele>
        <time>2022-05-24 20:10:24</time>
      </trkpt>
      <trkpt lat="40.71529" lon="0.57561">
        <ele>23.2</ele>
        <time>2022-05-24 20:10:25</time>
      </trkpt>
      <trkpt lat="40.71527" lon="0.57565">
        <ele>23.2</ele>
        <time>2022-05-24 20:10:26</time>
      </trkpt>
      <trkpt lat="40.71526" lon="0.57569">
        <ele>23.4</ele>
        <time>2022-05-24 20:10:27</time>
      </trkpt>
      <trkpt lat="40.71524" lon="0.57573">
        <ele>23.4</ele>
        <time>2022-05-24 20:10:28</time>
      </trkpt>
      <trkpt lat="40.71523" lon="0.57577">
        <ele>23.4</ele>
        <time>2022-05-24 20:10:29</time>
      </trkpt>
      <trkpt lat="40.71521" lon="0.57581">
        <ele>23.4</ele>
        <time>2022-05-24 20:10:30</time>
      </trkpt>
      <trkpt lat="40.7152" lon="0.57586">
        <ele>23.4</ele>
        <time>2022-05-24 20:10:31</time>
      </trkpt>
      <trkpt lat="40.71518" lon="0.5759">
        <ele>23.6</ele>
        <time>2022-05-24 20:10:32</time>
      </trkpt>
      <trkpt lat="40.71517" lon="0.57594">
        <ele>23.6</ele>
        <time>2022-05-24 20:10:33</time>
      </trkpt>
      <trkpt lat="40.71516" lon="0.57598">
        <ele>23.6</ele>
        <time>2022-05-24 20:10:34</time>
      </trkpt>
      <trkpt lat="40.71514" lon="0.57602">
        <ele>23.6</ele>
        <time>2022-05-24 20:10:35</time>
      </trkpt>
      <trkpt lat="40.71511" lon="0.57606">
        <ele>23.6</ele>
        <time>2022-05-24 20:10:36</time>
      </trkpt>
      <trkpt lat="40.71509" lon="0.5761">
        <ele>23.6</ele>
        <time>2022-05-24 20:10:37</time>
      </trkpt>
      <trkpt lat="40.71506" lon="0.57611">
        <ele>23.6</ele>
        <time>2022-05-24 20:10:38</time>
      </trkpt>
      <trkpt lat="40.71503" lon="0.5761">
        <ele>23.6</ele>
        <time>2022-05-24 20:10:39</time>
      </trkpt>
      <trkpt lat="40.715" lon="0.57608">
        <ele>23.6</ele>
        <time>2022-05-24 20:10:40</time>
      </trkpt>
      <trkpt lat="40.71496" lon="0.57606">
        <ele>23.6</ele>
        <time>2022-05-24 20:10:41</time>
      </trkpt>
      <trkpt lat="40.71493" lon="0.57604">
        <ele>23.6</ele>
        <time>2022-05-24 20:10:42</time>
      </trkpt>
      <trkpt lat="40.71489" lon="0.57602">
        <ele>23.6</ele>
        <time>2022-05-24 20:10:43</time>
      </trkpt>
      <trkpt lat="40.71485" lon="0.57599">
        <ele>23.6</ele>
        <time>2022-05-24 20:10:44</time>
      </trkpt>
      <trkpt lat="40.71481" lon="0.57596">
        <ele>23.4</ele>
        <time>2022-05-24 20:10:45</time>
      </trkpt>
      <trkpt lat="40.71477" lon="0.57593">
        <ele>23.4</ele>
        <time>2022-05-24 20:10:46</time>
      </trkpt>
      <trkpt lat="40.71473" lon="0.5759">
        <ele>23.4</ele>
        <time>2022-05-24 20:10:47</time>
      </trkpt>
      <trkpt lat="40.71469" lon="0.57586">
        <ele>23.4</ele>
        <time>2022-05-24 20:10:48</time>
      </trkpt>
      <trkpt lat="40.71465" lon="0.57583">
        <ele>23.4</ele>
        <time>2022-05-24 20:10:49</time>
      </trkpt>
      <trkpt lat="40.71461" lon="0.5758">
        <ele>23.2</ele>
        <time>2022-05-24 20:10:50</time>
      </trkpt>
      <trkpt lat="40.71457" lon="0.57577">
        <ele>23.2</ele>
        <time>2022-05-24 20:10:51</time>
      </trkpt>
      <trkpt lat="40.71452" lon="0.57573">
        <ele>23.2</ele>
        <time>2022-05-24 20:10:52</time>
      </trkpt>
      <trkpt lat="40.71448" lon="0.5757">
        <ele>23.2</ele>
        <time>2022-05-24 20:10:53</time>
      </trkpt>
      <trkpt lat="40.71444" lon="0.57567">
        <ele>23.2</ele>
        <time>2022-05-24 20:10:54</time>
      </trkpt>
      <trkpt lat="40.71439" lon="0.57564">
        <ele>23</ele>
        <time>2022-05-24 20:10:55</time>
      </trkpt>
      <trkpt lat="40.71435" lon="0.57561">
        <ele>23</ele>
        <time>2022-05-24 20:10:56</time>
      </trkpt>
      <trkpt lat="40.71431" lon="0.57559">
        <ele>23</ele>
        <time>2022-05-24 20:10:57</time>
      </trkpt>
      <trkpt lat="40.71427" lon="0.57556">
        <ele>23</ele>
        <time>2022-05-24 20:10:58</time>
      </trkpt>
      <trkpt lat="40.71423" lon="0.57553">
        <ele>23</ele>
        <time>2022-05-24 20:10:59</time>
      </trkpt>
      <trkpt lat="40.71419" lon="0.5755">
        <ele>22.8</ele>
        <time>2022-05-24 20:11:00</time>
      </trkpt>
      <trkpt lat="40.71415" lon="0.57547">
        <ele>22.8</ele>
        <time>2022-05-24 20:11:01</time>
      </trkpt>
      <trkpt lat="40.71412" lon="0.57545">
        <ele>22.8</ele>
        <time>2022-05-24 20:11:02</time>
      </trkpt>
      <trkpt lat="40.71408" lon="0.57542">
        <ele>22.8</ele>
        <time>2022-05-24 20:11:03</time>
      </trkpt>
      <trkpt lat="40.71404" lon="0.57539">
        <ele>22.8</ele>
        <time>2022-05-24 20:11:04</time>
      </trkpt>
      <trkpt lat="40.714" lon="0.57536">
        <ele>22.8</ele>
        <time>2022-05-24 20:11:05</time>
      </trkpt>
      <trkpt lat="40.71397" lon="0.57533">
        <ele>22.8</ele>
        <time>2022-05-24 20:11:06</time>
      </trkpt>
      <trkpt lat="40.71392" lon="0.5753">
        <ele>22.8</ele>
        <time>2022-05-24 20:11:07</time>
      </trkpt>
      <trkpt lat="40.71389" lon="0.57527">
        <ele>22.8</ele>
        <time>2022-05-24 20:11:08</time>
      </trkpt>
      <trkpt lat="40.71385" lon="0.57525">
        <ele>22.8</ele>
        <time>2022-05-24 20:11:09</time>
      </trkpt>
      <trkpt lat="40.71381" lon="0.57521">
        <ele>22.8</ele>
        <time>2022-05-24 20:11:10</time>
      </trkpt>
      <trkpt lat="40.71377" lon="0.57518">
        <ele>22.8</ele>
        <time>2022-05-24 20:11:11</time>
      </trkpt>
      <trkpt lat="40.71373" lon="0.57515">
        <ele>22.8</ele>
        <time>2022-05-24 20:11:12</time>
      </trkpt>
      <trkpt lat="40.71369" lon="0.57511">
        <ele>22.8</ele>
        <time>2022-05-24 20:11:13</time>
      </trkpt>
      <trkpt lat="40.71365" lon="0.57508">
        <ele>22.8</ele>
        <time>2022-05-24 20:11:14</time>
      </trkpt>
      <trkpt lat="40.71362" lon="0.57505">
        <ele>22.8</ele>
        <time>2022-05-24 20:11:15</time>
      </trkpt>
      <trkpt lat="40.71358" lon="0.57502">
        <ele>23</ele>
        <time>2022-05-24 20:11:16</time>
      </trkpt>
      <trkpt lat="40.71354" lon="0.57499">
        <ele>23</ele>
        <time>2022-05-24 20:11:17</time>
      </trkpt>
      <trkpt lat="40.7135" lon="0.57496">
        <ele>23.2</ele>
        <time>2022-05-24 20:11:18</time>
      </trkpt>
      <trkpt lat="40.71347" lon="0.57493">
        <ele>23.2</ele>
        <time>2022-05-24 20:11:19</time>
      </trkpt>
      <trkpt lat="40.71343" lon="0.5749">
        <ele>23.4</ele>
        <time>2022-05-24 20:11:20</time>
      </trkpt>
      <trkpt lat="40.7134" lon="0.57487">
        <ele>23.4</ele>
        <time>2022-05-24 20:11:21</time>
      </trkpt>
      <trkpt lat="40.71337" lon="0.57484">
        <ele>23.4</ele>
        <time>2022-05-24 20:11:22</time>
      </trkpt>
      <trkpt lat="40.71333" lon="0.5748">
        <ele>23.6</ele>
        <time>2022-05-24 20:11:23</time>
      </trkpt>
      <trkpt lat="40.71328" lon="0.57477">
        <ele>23.6</ele>
        <time>2022-05-24 20:11:24</time>
      </trkpt>
      <trkpt lat="40.71324" lon="0.57473">
        <ele>23.6</ele>
        <time>2022-05-24 20:11:25</time>
      </trkpt>
      <trkpt lat="40.71321" lon="0.5747">
        <ele>23.8</ele>
        <time>2022-05-24 20:11:26</time>
      </trkpt>
      <trkpt lat="40.71317" lon="0.57466">
        <ele>23.8</ele>
        <time>2022-05-24 20:11:27</time>
      </trkpt>
      <trkpt lat="40.71313" lon="0.57462">
        <ele>23.8</ele>
        <time>2022-05-24 20:11:28</time>
      </trkpt>
      <trkpt lat="40.7131" lon="0.57459">
        <ele>23.8</ele>
        <time>2022-05-24 20:11:29</time>
      </trkpt>
      <trkpt lat="40.71306" lon="0.57456">
        <ele>24</ele>
        <time>2022-05-24 20:11:30</time>
      </trkpt>
      <trkpt lat="40.71302" lon="0.57453">
        <ele>24</ele>
        <time>2022-05-24 20:11:31</time>
      </trkpt>
      <trkpt lat="40.71298" lon="0.5745">
        <ele>24.2</ele>
        <time>2022-05-24 20:11:32</time>
      </trkpt>
      <trkpt lat="40.71295" lon="0.57447">
        <ele>24.2</ele>
        <time>2022-05-24 20:11:33</time>
      </trkpt>
      <trkpt lat="40.71292" lon="0.57444">
        <ele>24.2</ele>
        <time>2022-05-24 20:11:34</time>
      </trkpt>
      <trkpt lat="40.71289" lon="0.57441">
        <ele>24.4</ele>
        <time>2022-05-24 20:11:35</time>
      </trkpt>
      <trkpt lat="40.71286" lon="0.57438">
        <ele>24.4</ele>
        <time>2022-05-24 20:11:36</time>
      </trkpt>
      <trkpt lat="40.71283" lon="0.57434">
        <ele>24.2</ele>
        <time>2022-05-24 20:11:37</time>
      </trkpt>
      <trkpt lat="40.7128" lon="0.57431">
        <ele>24.2</ele>
        <time>2022-05-24 20:11:38</time>
      </trkpt>
      <trkpt lat="40.71277" lon="0.57427">
        <ele>24.4</ele>
        <time>2022-05-24 20:11:39</time>
      </trkpt>
      <trkpt lat="40.71274" lon="0.57424">
        <ele>24.4</ele>
        <time>2022-05-24 20:11:40</time>
      </trkpt>
      <trkpt lat="40.7127" lon="0.5742">
        <ele>24.4</ele>
        <time>2022-05-24 20:11:41</time>
      </trkpt>
      <trkpt lat="40.71267" lon="0.57417">
        <ele>24.4</ele>
        <time>2022-05-24 20:11:42</time>
      </trkpt>
      <trkpt lat="40.71263" lon="0.57413">
        <ele>24.4</ele>
        <time>2022-05-24 20:11:43</time>
      </trkpt>
      <trkpt lat="40.71259" lon="0.5741">
        <ele>24.4</ele>
        <time>2022-05-24 20:11:44</time>
      </trkpt>
      <trkpt lat="40.71256" lon="0.57407">
        <ele>24.6</ele>
        <time>2022-05-24 20:11:45</time>
      </trkpt>
      <trkpt lat="40.71253" lon="0.57404">
        <ele>24.6</ele>
        <time>2022-05-24 20:11:46</time>
      </trkpt>
      <trkpt lat="40.7125" lon="0.57402">
        <ele>24.6</ele>
        <time>2022-05-24 20:11:47</time>
      </trkpt>
      <trkpt lat="40.71247" lon="0.57402">
        <ele>24.6</ele>
        <time>2022-05-24 20:11:48</time>
      </trkpt>
      <trkpt lat="40.71244" lon="0.57404">
        <ele>24.6</ele>
        <time>2022-05-24 20:11:49</time>
      </trkpt>
      <trkpt lat="40.71241" lon="0.57407">
        <ele>24.6</ele>
        <time>2022-05-24 20:11:50</time>
      </trkpt>
      <trkpt lat="40.71239" lon="0.57411">
        <ele>24.6</ele>
        <time>2022-05-24 20:11:51</time>
      </trkpt>
      <trkpt lat="40.71237" lon="0.57416">
        <ele>24.4</ele>
        <time>2022-05-24 20:11:52</time>
      </trkpt>
      <trkpt lat="40.71235" lon="0.57421">
        <ele>24.4</ele>
        <time>2022-05-24 20:11:53</time>
      </trkpt>
      <trkpt lat="40.71232" lon="0.57425">
        <ele>24.4</ele>
        <time>2022-05-24 20:11:54</time>
      </trkpt>
      <trkpt lat="40.7123" lon="0.5743">
        <ele>24.2</ele>
        <time>2022-05-24 20:11:55</time>
      </trkpt>
      <trkpt lat="40.71227" lon="0.57434">
        <ele>24.2</ele>
        <time>2022-05-24 20:11:56</time>
      </trkpt>
      <trkpt lat="40.71224" lon="0.57438">
        <ele>24.2</ele>
        <time>2022-05-24 20:11:57</time>
      </trkpt>
      <trkpt lat="40.71222" lon="0.57442">
        <ele>24.2</ele>
        <time>2022-05-24 20:11:58</time>
      </trkpt>
      <trkpt lat="40.7122" lon="0.57446">
        <ele>24</ele>
        <time>2022-05-24 20:11:59</time>
      </trkpt>
      <trkpt lat="40.71217" lon="0.5745">
        <ele>24</ele>
        <time>2022-05-24 20:12:00</time>
      </trkpt>
      <trkpt lat="40.71215" lon="0.57454">
        <ele>23.8</ele>
        <time>2022-05-24 20:12:01</time>
      </trkpt>
      <trkpt lat="40.71213" lon="0.57458">
        <ele>23.8</ele>
        <time>2022-05-24 20:12:02</time>
      </trkpt>
      <trkpt lat="40.71211" lon="0.57463">
        <ele>23.6</ele>
        <time>2022-05-24 20:12:03</time>
      </trkpt>
      <trkpt lat="40.71208" lon="0.57467">
        <ele>23.6</ele>
        <time>2022-05-24 20:12:04</time>
      </trkpt>
      <trkpt lat="40.71206" lon="0.57472">
        <ele>23.6</ele>
        <time>2022-05-24 20:12:05</time>
      </trkpt>
      <trkpt lat="40.71203" lon="0.57478">
        <ele>23.4</ele>
        <time>2022-05-24 20:12:06</time>
      </trkpt>
      <trkpt lat="40.712" lon="0.57482">
        <ele>23.4</ele>
        <time>2022-05-24 20:12:07</time>
      </trkpt>
      <trkpt lat="40.71198" lon="0.57488">
        <ele>23.2</ele>
        <time>2022-05-24 20:12:08</time>
      </trkpt>
      <trkpt lat="40.71195" lon="0.57494">
        <ele>23.2</ele>
        <time>2022-05-24 20:12:09</time>
      </trkpt>
      <trkpt lat="40.71193" lon="0.57499">
        <ele>23</ele>
        <time>2022-05-24 20:12:10</time>
      </trkpt>
      <trkpt lat="40.7119" lon="0.57503">
        <ele>23</ele>
        <time>2022-05-24 20:12:11</time>
      </trkpt>
      <trkpt lat="40.71188" lon="0.57509">
        <ele>22.8</ele>
        <time>2022-05-24 20:12:12</time>
      </trkpt>
      <trkpt lat="40.71185" lon="0.57514">
        <ele>22.8</ele>
        <time>2022-05-24 20:12:13</time>
      </trkpt>
      <trkpt lat="40.71182" lon="0.57519">
        <ele>22.6</ele>
        <time>2022-05-24 20:12:14</time>
      </trkpt>
      <trkpt lat="40.7118" lon="0.57524">
        <ele>22.6</ele>
        <time>2022-05-24 20:12:15</time>
      </trkpt>
      <trkpt lat="40.71177" lon="0.5753">
        <ele>22.4</ele>
        <time>2022-05-24 20:12:16</time>
      </trkpt>
      <trkpt lat="40.71174" lon="0.57535">
        <ele>22.2</ele>
        <time>2022-05-24 20:12:17</time>
      </trkpt>
      <trkpt lat="40.71171" lon="0.57541">
        <ele>22.2</ele>
        <time>2022-05-24 20:12:18</time>
      </trkpt>
      <trkpt lat="40.71169" lon="0.57546">
        <ele>22</ele>
        <time>2022-05-24 20:12:19</time>
      </trkpt>
      <trkpt lat="40.71167" lon="0.5755">
        <ele>22</ele>
        <time>2022-05-24 20:12:20</time>
      </trkpt>
      <trkpt lat="40.71165" lon="0.57555">
        <ele>21.8</ele>
        <time>2022-05-24 20:12:21</time>
      </trkpt>
      <trkpt lat="40.71163" lon="0.57558">
        <ele>21.8</ele>
        <time>2022-05-24 20:12:22</time>
      </trkpt>
      <trkpt lat="40.71162" lon="0.5756">
        <ele>21.8</ele>
        <time>2022-05-24 20:12:23</time>
      </trkpt>
      <trkpt lat="40.71161" lon="0.57562">
        <ele>21.8</ele>
        <time>2022-05-24 20:12:24</time>
      </trkpt>
      <trkpt lat="40.71159" lon="0.57565">
        <ele>21.6</ele>
        <time>2022-05-24 20:12:25</time>
      </trkpt>
      <trkpt lat="40.71157" lon="0.57568">
        <ele>21.6</ele>
        <time>2022-05-24 20:12:26</time>
      </trkpt>
      <trkpt lat="40.71155" lon="0.57571">
        <ele>21.4</ele>
        <time>2022-05-24 20:12:27</time>
      </trkpt>
      <trkpt lat="40.71153" lon="0.57575">
        <ele>21.4</ele>
        <time>2022-05-24 20:12:28</time>
      </trkpt>
      <trkpt lat="40.71151" lon="0.57579">
        <ele>21.2</ele>
        <time>2022-05-24 20:12:29</time>
      </trkpt>
      <trkpt lat="40.71148" lon="0.57583">
        <ele>21.2</ele>
        <time>2022-05-24 20:12:30</time>
      </trkpt>
      <trkpt lat="40.71146" lon="0.57588">
        <ele>21</ele>
        <time>2022-05-24 20:12:31</time>
      </trkpt>
      <trkpt lat="40.71144" lon="0.57593">
        <ele>21</ele>
        <time>2022-05-24 20:12:32</time>
      </trkpt>
      <trkpt lat="40.71141" lon="0.57598">
        <ele>20.8</ele>
        <time>2022-05-24 20:12:33</time>
      </trkpt>
      <trkpt lat="40.71138" lon="0.57602">
        <ele>20.6</ele>
        <time>2022-05-24 20:12:34</time>
      </trkpt>
      <trkpt lat="40.71136" lon="0.57608">
        <ele>20.6</ele>
        <time>2022-05-24 20:12:35</time>
      </trkpt>
      <trkpt lat="40.71134" lon="0.57613">
        <ele>20.4</ele>
        <time>2022-05-24 20:12:36</time>
      </trkpt>
      <trkpt lat="40.71132" lon="0.57618">
        <ele>20.4</ele>
        <time>2022-05-24 20:12:37</time>
      </trkpt>
      <trkpt lat="40.71129" lon="0.57623">
        <ele>20.2</ele>
        <time>2022-05-24 20:12:38</time>
      </trkpt>
      <trkpt lat="40.71127" lon="0.57628">
        <ele>20.2</ele>
        <time>2022-05-24 20:12:39</time>
      </trkpt>
      <trkpt lat="40.71125" lon="0.57632">
        <ele>20</ele>
        <time>2022-05-24 20:12:40</time>
      </trkpt>
      <trkpt lat="40.71124" lon="0.57634">
        <ele>20</ele>
        <time>2022-05-24 20:12:41</time>
      </trkpt>
      <trkpt lat="40.71124" lon="0.57635">
        <ele>20</ele>
        <time>2022-05-24 20:12:42</time>
      </trkpt>
      <trkpt lat="40.71122" lon="0.57636">
        <ele>20</ele>
        <time>2022-05-24 20:12:43</time>
      </trkpt>
      <trkpt lat="40.71122" lon="0.57637">
        <ele>20</ele>
        <time>2022-05-24 20:12:44</time>
      </trkpt>
      <trkpt lat="40.71121" lon="0.57638">
        <ele>20</ele>
        <time>2022-05-24 20:12:45</time>
      </trkpt>
      <trkpt lat="40.71121" lon="0.57638">
        <ele>20</ele>
        <time>2022-05-24 20:12:46</time>
      </trkpt>
      <trkpt lat="40.71121" lon="0.57638">
        <ele>20</ele>
        <time>2022-05-24 20:12:47</time>
      </trkpt>
      <trkpt lat="40.71121" lon="0.57638">
        <ele>19.8</ele>
        <time>2022-05-24 20:12:48</time>
      </trkpt>
      <trkpt lat="40.71121" lon="0.57639">
        <ele>19.8</ele>
        <time>2022-05-24 20:12:49</time>
      </trkpt>
      <trkpt lat="40.7112" lon="0.5764">
        <ele>19.8</ele>
        <time>2022-05-24 20:12:50</time>
      </trkpt>
      <trkpt lat="40.7112" lon="0.57641">
        <ele>19.8</ele>
        <time>2022-05-24 20:12:51</time>
      </trkpt>
      <trkpt lat="40.71119" lon="0.57642">
        <ele>19.8</ele>
        <time>2022-05-24 20:12:52</time>
      </trkpt>
      <trkpt lat="40.71118" lon="0.57644">
        <ele>19.8</ele>
        <time>2022-05-24 20:12:53</time>
      </trkpt>
      <trkpt lat="40.71116" lon="0.57647">
        <ele>19.8</ele>
        <time>2022-05-24 20:12:54</time>
      </trkpt>
      <trkpt lat="40.71115" lon="0.5765">
        <ele>19.6</ele>
        <time>2022-05-24 20:12:55</time>
      </trkpt>
      <trkpt lat="40.71114" lon="0.57653">
        <ele>19.6</ele>
        <time>2022-05-24 20:12:56</time>
      </trkpt>
      <trkpt lat="40.71112" lon="0.57657">
        <ele>19.6</ele>
        <time>2022-05-24 20:12:57</time>
      </trkpt>
      <trkpt lat="40.7111" lon="0.5766">
        <ele>19.4</ele>
        <time>2022-05-24 20:12:58</time>
      </trkpt>
      <trkpt lat="40.71108" lon="0.57663">
        <ele>19.4</ele>
        <time>2022-05-24 20:12:59</time>
      </trkpt>
      <trkpt lat="40.71107" lon="0.57665">
        <ele>19.2</ele>
        <time>2022-05-24 20:13:00</time>
      </trkpt>
      <trkpt lat="40.71105" lon="0.57668">
        <ele>19.2</ele>
        <time>2022-05-24 20:13:01</time>
      </trkpt>
      <trkpt lat="40.71105" lon="0.5767">
        <ele>19.2</ele>
        <time>2022-05-24 20:13:02</time>
      </trkpt>
      <trkpt lat="40.71104" lon="0.57673">
        <ele>19.2</ele>
        <time>2022-05-24 20:13:03</time>
      </trkpt>
      <trkpt lat="40.71105" lon="0.57676">
        <ele>19.2</ele>
        <time>2022-05-24 20:13:04</time>
      </trkpt>
      <trkpt lat="40.71105" lon="0.57679">
        <ele>19.2</ele>
        <time>2022-05-24 20:13:05</time>
      </trkpt>
      <trkpt lat="40.71105" lon="0.57682">
        <ele>19</ele>
        <time>2022-05-24 20:13:06</time>
      </trkpt>
      <trkpt lat="40.71104" lon="0.57684">
        <ele>19</ele>
        <time>2022-05-24 20:13:07</time>
      </trkpt>
      <trkpt lat="40.71103" lon="0.57686">
        <ele>18.8</ele>
        <time>2022-05-24 20:13:08</time>
      </trkpt>
      <trkpt lat="40.71101" lon="0.57689">
        <ele>18.8</ele>
        <time>2022-05-24 20:13:09</time>
      </trkpt>
      <trkpt lat="40.711" lon="0.57693">
        <ele>18.6</ele>
        <time>2022-05-24 20:13:10</time>
      </trkpt>
      <trkpt lat="40.71099" lon="0.57697">
        <ele>18.6</ele>
        <time>2022-05-24 20:13:11</time>
      </trkpt>
      <trkpt lat="40.71098" lon="0.577">
        <ele>18.4</ele>
        <time>2022-05-24 20:13:12</time>
      </trkpt>
      <trkpt lat="40.71097" lon="0.57704">
        <ele>18.4</ele>
        <time>2022-05-24 20:13:13</time>
      </trkpt>
      <trkpt lat="40.71096" lon="0.57706">
        <ele>18.2</ele>
        <time>2022-05-24 20:13:14</time>
      </trkpt>
      <trkpt lat="40.71095" lon="0.57708">
        <ele>18.2</ele>
        <time>2022-05-24 20:13:15</time>
      </trkpt>
      <trkpt lat="40.71095" lon="0.57711">
        <ele>18</ele>
        <time>2022-05-24 20:13:16</time>
      </trkpt>
      <trkpt lat="40.71095" lon="0.57713">
        <ele>18</ele>
        <time>2022-05-24 20:13:17</time>
      </trkpt>
      <trkpt lat="40.71094" lon="0.57716">
        <ele>17.8</ele>
        <time>2022-05-24 20:13:18</time>
      </trkpt>
      <trkpt lat="40.71093" lon="0.57719">
        <ele>17.8</ele>
        <time>2022-05-24 20:13:19</time>
      </trkpt>
      <trkpt lat="40.71093" lon="0.57722">
        <ele>17.6</ele>
        <time>2022-05-24 20:13:20</time>
      </trkpt>
      <trkpt lat="40.71092" lon="0.57726">
        <ele>17.6</ele>
        <time>2022-05-24 20:13:21</time>
      </trkpt>
      <trkpt lat="40.71091" lon="0.5773">
        <ele>17.4</ele>
        <time>2022-05-24 20:13:22</time>
      </trkpt>
      <trkpt lat="40.7109" lon="0.57733">
        <ele>17.4</ele>
        <time>2022-05-24 20:13:23</time>
      </trkpt>
      <trkpt lat="40.71089" lon="0.57737">
        <ele>17.2</ele>
        <time>2022-05-24 20:13:24</time>
      </trkpt>
      <trkpt lat="40.71088" lon="0.57741">
        <ele>17.2</ele>
        <time>2022-05-24 20:13:25</time>
      </trkpt>
      <trkpt lat="40.71088" lon="0.57744">
        <ele>17.2</ele>
        <time>2022-05-24 20:13:26</time>
      </trkpt>
      <trkpt lat="40.71087" lon="0.57746">
        <ele>17</ele>
        <time>2022-05-24 20:13:27</time>
      </trkpt>
      <trkpt lat="40.71086" lon="0.57748">
        <ele>17</ele>
        <time>2022-05-24 20:13:28</time>
      </trkpt>
      <trkpt lat="40.71086" lon="0.57749">
        <ele>17</ele>
        <time>2022-05-24 20:13:29</time>
      </trkpt>
      <trkpt lat="40.71085" lon="0.57752">
        <ele>17</ele>
        <time>2022-05-24 20:13:30</time>
      </trkpt>
      <trkpt lat="40.71084" lon="0.57755">
        <ele>16.8</ele>
        <time>2022-05-24 20:13:31</time>
      </trkpt>
      <trkpt lat="40.71082" lon="0.57758">
        <ele>16.8</ele>
        <time>2022-05-24 20:13:32</time>
      </trkpt>
      <trkpt lat="40.71081" lon="0.57762">
        <ele>16.6</ele>
        <time>2022-05-24 20:13:33</time>
      </trkpt>
      <trkpt lat="40.7108" lon="0.57765">
        <ele>16.6</ele>
        <time>2022-05-24 20:13:34</time>
      </trkpt>
      <trkpt lat="40.71078" lon="0.57769">
        <ele>16.4</ele>
        <time>2022-05-24 20:13:35</time>
      </trkpt>
      <trkpt lat="40.71076" lon="0.57773">
        <ele>16.4</ele>
        <time>2022-05-24 20:13:36</time>
      </trkpt>
      <trkpt lat="40.71075" lon="0.57777">
        <ele>16.4</ele>
        <time>2022-05-24 20:13:37</time>
      </trkpt>
      <trkpt lat="40.71074" lon="0.57781">
        <ele>16.2</ele>
        <time>2022-05-24 20:13:38</time>
      </trkpt>
      <trkpt lat="40.71072" lon="0.57786">
        <ele>16.2</ele>
        <time>2022-05-24 20:13:39</time>
      </trkpt>
      <trkpt lat="40.7107" lon="0.5779">
        <ele>16</ele>
        <time>2022-05-24 20:13:40</time>
      </trkpt>
      <trkpt lat="40.71069" lon="0.57794">
        <ele>16</ele>
        <time>2022-05-24 20:13:41</time>
      </trkpt>
      <trkpt lat="40.71067" lon="0.57798">
        <ele>16</ele>
        <time>2022-05-24 20:13:42</time>
      </trkpt>
      <trkpt lat="40.71066" lon="0.57803">
        <ele>15.8</ele>
        <time>2022-05-24 20:13:43</time>
      </trkpt>
      <trkpt lat="40.71064" lon="0.57807">
        <ele>15.8</ele>
        <time>2022-05-24 20:13:44</time>
      </trkpt>
      <trkpt lat="40.71062" lon="0.57812">
        <ele>15.6</ele>
        <time>2022-05-24 20:13:45</time>
      </trkpt>
      <trkpt lat="40.71061" lon="0.57816">
        <ele>15.6</ele>
        <time>2022-05-24 20:13:46</time>
      </trkpt>
      <trkpt lat="40.71059" lon="0.57821">
        <ele>15.4</ele>
        <time>2022-05-24 20:13:47</time>
      </trkpt>
      <trkpt lat="40.71057" lon="0.57825">
        <ele>15.4</ele>
        <time>2022-05-24 20:13:48</time>
      </trkpt>
      <trkpt lat="40.71054" lon="0.57831">
        <ele>15.2</ele>
        <time>2022-05-24 20:13:49</time>
      </trkpt>
      <trkpt lat="40.71053" lon="0.57836">
        <ele>15.2</ele>
        <time>2022-05-24 20:13:50</time>
      </trkpt>
      <trkpt lat="40.71051" lon="0.57841">
        <ele>15.2</ele>
        <time>2022-05-24 20:13:51</time>
      </trkpt>
      <trkpt lat="40.71049" lon="0.57846">
        <ele>15</ele>
        <time>2022-05-24 20:13:52</time>
      </trkpt>
      <trkpt lat="40.71047" lon="0.57852">
        <ele>15</ele>
        <time>2022-05-24 20:13:53</time>
      </trkpt>
      <trkpt lat="40.71044" lon="0.57858">
        <ele>14.8</ele>
        <time>2022-05-24 20:13:54</time>
      </trkpt>
      <trkpt lat="40.71042" lon="0.57864">
        <ele>14.8</ele>
        <time>2022-05-24 20:13:55</time>
      </trkpt>
      <trkpt lat="40.7104" lon="0.5787">
        <ele>14.6</ele>
        <time>2022-05-24 20:13:56</time>
      </trkpt>
      <trkpt lat="40.71039" lon="0.57875">
        <ele>14.6</ele>
        <time>2022-05-24 20:13:57</time>
      </trkpt>
      <trkpt lat="40.71036" lon="0.57882">
        <ele>14.4</ele>
        <time>2022-05-24 20:13:58</time>
      </trkpt>
      <trkpt lat="40.71034" lon="0.57887">
        <ele>14.4</ele>
        <time>2022-05-24 20:13:59</time>
      </trkpt>
      <trkpt lat="40.71032" lon="0.57892">
        <ele>14.4</ele>
        <time>2022-05-24 20:14:00</time>
      </trkpt>
      <trkpt lat="40.7103" lon="0.57897">
        <ele>14.4</ele>
        <time>2022-05-24 20:14:01</time>
      </trkpt>
      <trkpt lat="40.71028" lon="0.57902">
        <ele>14.4</ele>
        <time>2022-05-24 20:14:02</time>
      </trkpt>
      <trkpt lat="40.71025" lon="0.57908">
        <ele>14.2</ele>
        <time>2022-05-24 20:14:03</time>
      </trkpt>
      <trkpt lat="40.71023" lon="0.57914">
        <ele>14.2</ele>
        <time>2022-05-24 20:14:04</time>
      </trkpt>
      <trkpt lat="40.71021" lon="0.5792">
        <ele>14</ele>
        <time>2022-05-24 20:14:05</time>
      </trkpt>
      <trkpt lat="40.71019" lon="0.57925">
        <ele>14</ele>
        <time>2022-05-24 20:14:06</time>
      </trkpt>
      <trkpt lat="40.71017" lon="0.57931">
        <ele>14</ele>
        <time>2022-05-24 20:14:07</time>
      </trkpt>
      <trkpt lat="40.71015" lon="0.57937">
        <ele>13.8</ele>
        <time>2022-05-24 20:14:08</time>
      </trkpt>
      <trkpt lat="40.71013" lon="0.57943">
        <ele>13.8</ele>
        <time>2022-05-24 20:14:09</time>
      </trkpt>
      <trkpt lat="40.71011" lon="0.57949">
        <ele>13.8</ele>
        <time>2022-05-24 20:14:10</time>
      </trkpt>
      <trkpt lat="40.71009" lon="0.57955">
        <ele>13.6</ele>
        <time>2022-05-24 20:14:11</time>
      </trkpt>
      <trkpt lat="40.71007" lon="0.57961">
        <ele>13.6</ele>
        <time>2022-05-24 20:14:12</time>
      </trkpt>
      <trkpt lat="40.71005" lon="0.57965">
        <ele>13.6</ele>
        <time>2022-05-24 20:14:13</time>
      </trkpt>
      <trkpt lat="40.71003" lon="0.57968">
        <ele>13.6</ele>
        <time>2022-05-24 20:14:14</time>
      </trkpt>
      <trkpt lat="40.71002" lon="0.57972">
        <ele>13.6</ele>
        <time>2022-05-24 20:14:15</time>
      </trkpt>
      <trkpt lat="40.71003" lon="0.57975">
        <ele>13.4</ele>
        <time>2022-05-24 20:14:16</time>
      </trkpt>
      <trkpt lat="40.71004" lon="0.57977">
        <ele>13.4</ele>
        <time>2022-05-24 20:14:17</time>
      </trkpt>
      <trkpt lat="40.71006" lon="0.57978">
        <ele>13.4</ele>
        <time>2022-05-24 20:14:18</time>
      </trkpt>
      <trkpt lat="40.71009" lon="0.57979">
        <ele>13.6</ele>
        <time>2022-05-24 20:14:19</time>
      </trkpt>
      <trkpt lat="40.71012" lon="0.5798">
        <ele>13.6</ele>
        <time>2022-05-24 20:14:20</time>
      </trkpt>
      <trkpt lat="40.71015" lon="0.57982">
        <ele>13.4</ele>
        <time>2022-05-24 20:14:21</time>
      </trkpt>
      <trkpt lat="40.71018" lon="0.57983">
        <ele>13.4</ele>
        <time>2022-05-24 20:14:22</time>
      </trkpt>
      <trkpt lat="40.71022" lon="0.57984">
        <ele>13.4</ele>
        <time>2022-05-24 20:14:23</time>
      </trkpt>
      <trkpt lat="40.71025" lon="0.57985">
        <ele>13.4</ele>
        <time>2022-05-24 20:14:24</time>
      </trkpt>
      <trkpt lat="40.71029" lon="0.57986">
        <ele>13.4</ele>
        <time>2022-05-24 20:14:25</time>
      </trkpt>
      <trkpt lat="40.71033" lon="0.57986">
        <ele>13.4</ele>
        <time>2022-05-24 20:14:26</time>
      </trkpt>
      <trkpt lat="40.71037" lon="0.57986">
        <ele>13.4</ele>
        <time>2022-05-24 20:14:27</time>
      </trkpt>
      <trkpt lat="40.7104" lon="0.57986">
        <ele>13.4</ele>
        <time>2022-05-24 20:14:28</time>
      </trkpt>
      <trkpt lat="40.71045" lon="0.57987">
        <ele>13.4</ele>
        <time>2022-05-24 20:14:29</time>
      </trkpt>
      <trkpt lat="40.71049" lon="0.57987">
        <ele>13.4</ele>
        <time>2022-05-24 20:14:30</time>
      </trkpt>
      <trkpt lat="40.71053" lon="0.57988">
        <ele>13.4</ele>
        <time>2022-05-24 20:14:31</time>
      </trkpt>
      <trkpt lat="40.71057" lon="0.57988">
        <ele>13.6</ele>
        <time>2022-05-24 20:14:32</time>
      </trkpt>
      <trkpt lat="40.71061" lon="0.57988">
        <ele>13.6</ele>
        <time>2022-05-24 20:14:33</time>
      </trkpt>
      <trkpt lat="40.71064" lon="0.57988">
        <ele>13.6</ele>
        <time>2022-05-24 20:14:34</time>
      </trkpt>
      <trkpt lat="40.71069" lon="0.57988">
        <ele>13.6</ele>
        <time>2022-05-24 20:14:35</time>
      </trkpt>
      <trkpt lat="40.71072" lon="0.57988">
        <ele>13.6</ele>
        <time>2022-05-24 20:14:36</time>
      </trkpt>
      <trkpt lat="40.71077" lon="0.57988">
        <ele>13.6</ele>
        <time>2022-05-24 20:14:37</time>
      </trkpt>
      <trkpt lat="40.71081" lon="0.57988">
        <ele>13.6</ele>
        <time>2022-05-24 20:14:38</time>
      </trkpt>
      <trkpt lat="40.71086" lon="0.57988">
        <ele>13.6</ele>
        <time>2022-05-24 20:14:39</time>
      </trkpt>
      <trkpt lat="40.7109" lon="0.57988">
        <ele>13.6</ele>
        <time>2022-05-24 20:14:40</time>
      </trkpt>
      <trkpt lat="40.71095" lon="0.57989">
        <ele>13.8</ele>
        <time>2022-05-24 20:14:41</time>
      </trkpt>
      <trkpt lat="40.711" lon="0.57989">
        <ele>13.8</ele>
        <time>2022-05-24 20:14:42</time>
      </trkpt>
      <trkpt lat="40.71104" lon="0.5799">
        <ele>13.8</ele>
        <time>2022-05-24 20:14:43</time>
      </trkpt>
      <trkpt lat="40.7111" lon="0.57989">
        <ele>13.8</ele>
        <time>2022-05-24 20:14:44</time>
      </trkpt>
      <trkpt lat="40.71114" lon="0.57989">
        <ele>13.8</ele>
        <time>2022-05-24 20:14:45</time>
      </trkpt>
      <trkpt lat="40.71119" lon="0.5799">
        <ele>13.8</ele>
        <time>2022-05-24 20:14:46</time>
      </trkpt>
      <trkpt lat="40.71123" lon="0.5799">
        <ele>13.8</ele>
        <time>2022-05-24 20:14:47</time>
      </trkpt>
      <trkpt lat="40.71128" lon="0.57991">
        <ele>14</ele>
        <time>2022-05-24 20:14:48</time>
      </trkpt>
      <trkpt lat="40.71132" lon="0.57992">
        <ele>14</ele>
        <time>2022-05-24 20:14:49</time>
      </trkpt>
      <trkpt lat="40.71137" lon="0.57994">
        <ele>14</ele>
        <time>2022-05-24 20:14:50</time>
      </trkpt>
      <trkpt lat="40.71142" lon="0.57997">
        <ele>14</ele>
        <time>2022-05-24 20:14:51</time>
      </trkpt>
      <trkpt lat="40.71145" lon="0.58">
        <ele>14.2</ele>
        <time>2022-05-24 20:14:52</time>
      </trkpt>
      <trkpt lat="40.71147" lon="0.58005">
        <ele>14.2</ele>
        <time>2022-05-24 20:14:53</time>
      </trkpt>
      <trkpt lat="40.71148" lon="0.5801">
        <ele>14.2</ele>
        <time>2022-05-24 20:14:54</time>
      </trkpt>
      <trkpt lat="40.71148" lon="0.58014">
        <ele>14.2</ele>
        <time>2022-05-24 20:14:55</time>
      </trkpt>
      <trkpt lat="40.71147" lon="0.5802">
        <ele>14</ele>
        <time>2022-05-24 20:14:56</time>
      </trkpt>
      <trkpt lat="40.71145" lon="0.58025">
        <ele>14</ele>
        <time>2022-05-24 20:14:57</time>
      </trkpt>
      <trkpt lat="40.71144" lon="0.58031">
        <ele>13.8</ele>
        <time>2022-05-24 20:14:58</time>
      </trkpt>
      <trkpt lat="40.71143" lon="0.58036">
        <ele>13.8</ele>
        <time>2022-05-24 20:14:59</time>
      </trkpt>
      <trkpt lat="40.71141" lon="0.58042">
        <ele>13.6</ele>
        <time>2022-05-24 20:15:00</time>
      </trkpt>
      <trkpt lat="40.7114" lon="0.58047">
        <ele>13.6</ele>
        <time>2022-05-24 20:15:01</time>
      </trkpt>
      <trkpt lat="40.71138" lon="0.58053">
        <ele>13.6</ele>
        <time>2022-05-24 20:15:02</time>
      </trkpt>
      <trkpt lat="40.71136" lon="0.58058">
        <ele>13.6</ele>
        <time>2022-05-24 20:15:03</time>
      </trkpt>
      <trkpt lat="40.71135" lon="0.58064">
        <ele>13.4</ele>
        <time>2022-05-24 20:15:04</time>
      </trkpt>
      <trkpt lat="40.71133" lon="0.58069">
        <ele>13.4</ele>
        <time>2022-05-24 20:15:05</time>
      </trkpt>
      <trkpt lat="40.71131" lon="0.58075">
        <ele>13.2</ele>
        <time>2022-05-24 20:15:06</time>
      </trkpt>
      <trkpt lat="40.71128" lon="0.5808">
        <ele>13.2</ele>
        <time>2022-05-24 20:15:07</time>
      </trkpt>
      <trkpt lat="40.71127" lon="0.58085">
        <ele>13.2</ele>
        <time>2022-05-24 20:15:08</time>
      </trkpt>
      <trkpt lat="40.71124" lon="0.58091">
        <ele>13</ele>
        <time>2022-05-24 20:15:09</time>
      </trkpt>
      <trkpt lat="40.71122" lon="0.58096">
        <ele>12.8</ele>
        <time>2022-05-24 20:15:10</time>
      </trkpt>
      <trkpt lat="40.7112" lon="0.58102">
        <ele>12.8</ele>
        <time>2022-05-24 20:15:11</time>
      </trkpt>
      <trkpt lat="40.71118" lon="0.58108">
        <ele>12.6</ele>
        <time>2022-05-24 20:15:12</time>
      </trkpt>
      <trkpt lat="40.71116" lon="0.58114">
        <ele>12.6</ele>
        <time>2022-05-24 20:15:13</time>
      </trkpt>
      <trkpt lat="40.71115" lon="0.5812">
        <ele>12.6</ele>
        <time>2022-05-24 20:15:14</time>
      </trkpt>
      <trkpt lat="40.71112" lon="0.58126">
        <ele>12.6</ele>
        <time>2022-05-24 20:15:15</time>
      </trkpt>
      <trkpt lat="40.7111" lon="0.58131">
        <ele>12.6</ele>
        <time>2022-05-24 20:15:16</time>
      </trkpt>
      <trkpt lat="40.71108" lon="0.58136">
        <ele>12.4</ele>
        <time>2022-05-24 20:15:17</time>
      </trkpt>
      <trkpt lat="40.71106" lon="0.58142">
        <ele>12.4</ele>
        <time>2022-05-24 20:15:18</time>
      </trkpt>
      <trkpt lat="40.71104" lon="0.58147">
        <ele>12.4</ele>
        <time>2022-05-24 20:15:19</time>
      </trkpt>
      <trkpt lat="40.71103" lon="0.58152">
        <ele>12.4</ele>
        <time>2022-05-24 20:15:20</time>
      </trkpt>
      <trkpt lat="40.71101" lon="0.58156">
        <ele>12.2</ele>
        <time>2022-05-24 20:15:21</time>
      </trkpt>
      <trkpt lat="40.71099" lon="0.5816">
        <ele>12.2</ele>
        <time>2022-05-24 20:15:22</time>
      </trkpt>
      <trkpt lat="40.71097" lon="0.58163">
        <ele>12</ele>
        <time>2022-05-24 20:15:23</time>
      </trkpt>
      <trkpt lat="40.71096" lon="0.58168">
        <ele>12</ele>
        <time>2022-05-24 20:15:24</time>
      </trkpt>
      <trkpt lat="40.71095" lon="0.58173">
        <ele>11.8</ele>
        <time>2022-05-24 20:15:25</time>
      </trkpt>
      <trkpt lat="40.71093" lon="0.58178">
        <ele>11.8</ele>
        <time>2022-05-24 20:15:26</time>
      </trkpt>
      <trkpt lat="40.71091" lon="0.58183">
        <ele>11.6</ele>
        <time>2022-05-24 20:15:27</time>
      </trkpt>
      <trkpt lat="40.7109" lon="0.58187">
        <ele>11.6</ele>
        <time>2022-05-24 20:15:28</time>
      </trkpt>
      <trkpt lat="40.71088" lon="0.58192">
        <ele>11.4</ele>
        <time>2022-05-24 20:15:29</time>
      </trkpt>
      <trkpt lat="40.71086" lon="0.58198">
        <ele>11.4</ele>
        <time>2022-05-24 20:15:30</time>
      </trkpt>
      <trkpt lat="40.71085" lon="0.58202">
        <ele>11.4</ele>
        <time>2022-05-24 20:15:31</time>
      </trkpt>
      <trkpt lat="40.71082" lon="0.58208">
        <ele>11.4</ele>
        <time>2022-05-24 20:15:32</time>
      </trkpt>
      <trkpt lat="40.7108" lon="0.58213">
        <ele>11.4</ele>
        <time>2022-05-24 20:15:33</time>
      </trkpt>
      <trkpt lat="40.71078" lon="0.58219">
        <ele>11.2</ele>
        <time>2022-05-24 20:15:34</time>
      </trkpt>
      <trkpt lat="40.71076" lon="0.58224">
        <ele>11.2</ele>
        <time>2022-05-24 20:15:35</time>
      </trkpt>
      <trkpt lat="40.71074" lon="0.58229">
        <ele>11.2</ele>
        <time>2022-05-24 20:15:36</time>
      </trkpt>
      <trkpt lat="40.71072" lon="0.58235">
        <ele>11.2</ele>
        <time>2022-05-24 20:15:37</time>
      </trkpt>
      <trkpt lat="40.7107" lon="0.5824">
        <ele>11.2</ele>
        <time>2022-05-24 20:15:38</time>
      </trkpt>
      <trkpt lat="40.71068" lon="0.58245">
        <ele>11.2</ele>
        <time>2022-05-24 20:15:39</time>
      </trkpt>
      <trkpt lat="40.71067" lon="0.5825">
        <ele>11.2</ele>
        <time>2022-05-24 20:15:40</time>
      </trkpt>
      <trkpt lat="40.71065" lon="0.58255">
        <ele>11.2</ele>
        <time>2022-05-24 20:15:41</time>
      </trkpt>
      <trkpt lat="40.71063" lon="0.5826">
        <ele>11.2</ele>
        <time>2022-05-24 20:15:42</time>
      </trkpt>
      <trkpt lat="40.71061" lon="0.58266">
        <ele>11.2</ele>
        <time>2022-05-24 20:15:43</time>
      </trkpt>
      <trkpt lat="40.71059" lon="0.58271">
        <ele>11.2</ele>
        <time>2022-05-24 20:15:44</time>
      </trkpt>
      <trkpt lat="40.71057" lon="0.58276">
        <ele>11.2</ele>
        <time>2022-05-24 20:15:45</time>
      </trkpt>
      <trkpt lat="40.71054" lon="0.58282">
        <ele>11</ele>
        <time>2022-05-24 20:15:46</time>
      </trkpt>
      <trkpt lat="40.71053" lon="0.58286">
        <ele>11</ele>
        <time>2022-05-24 20:15:47</time>
      </trkpt>
      <trkpt lat="40.71051" lon="0.58292">
        <ele>11</ele>
        <time>2022-05-24 20:15:48</time>
      </trkpt>
      <trkpt lat="40.71049" lon="0.58297">
        <ele>11</ele>
        <time>2022-05-24 20:15:49</time>
      </trkpt>
      <trkpt lat="40.71047" lon="0.58302">
        <ele>11</ele>
        <time>2022-05-24 20:15:50</time>
      </trkpt>
      <trkpt lat="40.71045" lon="0.58307">
        <ele>11</ele>
        <time>2022-05-24 20:15:51</time>
      </trkpt>
      <trkpt lat="40.71043" lon="0.58313">
        <ele>11</ele>
        <time>2022-05-24 20:15:52</time>
      </trkpt>
      <trkpt lat="40.71041" lon="0.58318">
        <ele>11</ele>
        <time>2022-05-24 20:15:53</time>
      </trkpt>
      <trkpt lat="40.71039" lon="0.58323">
        <ele>11</ele>
        <time>2022-05-24 20:15:54</time>
      </trkpt>
      <trkpt lat="40.71037" lon="0.58328">
        <ele>11</ele>
        <time>2022-05-24 20:15:55</time>
      </trkpt>
      <trkpt lat="40.71036" lon="0.58332">
        <ele>11</ele>
        <time>2022-05-24 20:15:56</time>
      </trkpt>
      <trkpt lat="40.71035" lon="0.58336">
        <ele>11</ele>
        <time>2022-05-24 20:15:57</time>
      </trkpt>
      <trkpt lat="40.71033" lon="0.5834">
        <ele>11</ele>
        <time>2022-05-24 20:15:58</time>
      </trkpt>
      <trkpt lat="40.71032" lon="0.58343">
        <ele>11</ele>
        <time>2022-05-24 20:15:59</time>
      </trkpt>
      <trkpt lat="40.7103" lon="0.58348">
        <ele>11</ele>
        <time>2022-05-24 20:16:00</time>
      </trkpt>
      <trkpt lat="40.71029" lon="0.58353">
        <ele>10.8</ele>
        <time>2022-05-24 20:16:01</time>
      </trkpt>
      <trkpt lat="40.71027" lon="0.58358">
        <ele>10.8</ele>
        <time>2022-05-24 20:16:02</time>
      </trkpt>
      <trkpt lat="40.71024" lon="0.58363">
        <ele>10.8</ele>
        <time>2022-05-24 20:16:03</time>
      </trkpt>
      <trkpt lat="40.71023" lon="0.58368">
        <ele>10.8</ele>
        <time>2022-05-24 20:16:04</time>
      </trkpt>
      <trkpt lat="40.71021" lon="0.58373">
        <ele>10.8</ele>
        <time>2022-05-24 20:16:05</time>
      </trkpt>
      <trkpt lat="40.71019" lon="0.58378">
        <ele>10.6</ele>
        <time>2022-05-24 20:16:06</time>
      </trkpt>
      <trkpt lat="40.71017" lon="0.58382">
        <ele>10.6</ele>
        <time>2022-05-24 20:16:07</time>
      </trkpt>
      <trkpt lat="40.71015" lon="0.58385">
        <ele>10.6</ele>
        <time>2022-05-24 20:16:08</time>
      </trkpt>
      <trkpt lat="40.71013" lon="0.5839">
        <ele>10.6</ele>
        <time>2022-05-24 20:16:09</time>
      </trkpt>
      <trkpt lat="40.7101" lon="0.58393">
        <ele>10.6</ele>
        <time>2022-05-24 20:16:10</time>
      </trkpt>
      <trkpt lat="40.71008" lon="0.58397">
        <ele>10.8</ele>
        <time>2022-05-24 20:16:11</time>
      </trkpt>
      <trkpt lat="40.71004" lon="0.58401">
        <ele>10.8</ele>
        <time>2022-05-24 20:16:12</time>
      </trkpt>
      <trkpt lat="40.71002" lon="0.58404">
        <ele>10.8</ele>
        <time>2022-05-24 20:16:13</time>
      </trkpt>
      <trkpt lat="40.71" lon="0.58408">
        <ele>10.6</ele>
        <time>2022-05-24 20:16:14</time>
      </trkpt>
      <trkpt lat="40.70999" lon="0.58412">
        <ele>10.6</ele>
        <time>2022-05-24 20:16:15</time>
      </trkpt>
      <trkpt lat="40.70998" lon="0.58417">
        <ele>10.6</ele>
        <time>2022-05-24 20:16:16</time>
      </trkpt>
      <trkpt lat="40.70997" lon="0.58423">
        <ele>10.6</ele>
        <time>2022-05-24 20:16:17</time>
      </trkpt>
      <trkpt lat="40.70996" lon="0.58428">
        <ele>10.6</ele>
        <time>2022-05-24 20:16:18</time>
      </trkpt>
      <trkpt lat="40.70994" lon="0.58435">
        <ele>10.6</ele>
        <time>2022-05-24 20:16:19</time>
      </trkpt>
      <trkpt lat="40.70994" lon="0.5844">
        <ele>10.6</ele>
        <time>2022-05-24 20:16:20</time>
      </trkpt>
      <trkpt lat="40.70993" lon="0.58445">
        <ele>10.6</ele>
        <time>2022-05-24 20:16:21</time>
      </trkpt>
      <trkpt lat="40.70992" lon="0.58449">
        <ele>10.6</ele>
        <time>2022-05-24 20:16:22</time>
      </trkpt>
      <trkpt lat="40.70991" lon="0.58454">
        <ele>10.6</ele>
        <time>2022-05-24 20:16:23</time>
      </trkpt>
      <trkpt lat="40.7099" lon="0.58459">
        <ele>10.6</ele>
        <time>2022-05-24 20:16:24</time>
      </trkpt>
      <trkpt lat="40.7099" lon="0.58464">
        <ele>10.6</ele>
        <time>2022-05-24 20:16:25</time>
      </trkpt>
      <trkpt lat="40.70989" lon="0.58468">
        <ele>10.6</ele>
        <time>2022-05-24 20:16:26</time>
      </trkpt>
      <trkpt lat="40.70988" lon="0.58473">
        <ele>10.6</ele>
        <time>2022-05-24 20:16:27</time>
      </trkpt>
      <trkpt lat="40.70987" lon="0.58477">
        <ele>10.6</ele>
        <time>2022-05-24 20:16:28</time>
      </trkpt>
      <trkpt lat="40.70986" lon="0.58482">
        <ele>10.6</ele>
        <time>2022-05-24 20:16:29</time>
      </trkpt>
      <trkpt lat="40.70985" lon="0.58486">
        <ele>10.6</ele>
        <time>2022-05-24 20:16:30</time>
      </trkpt>
      <trkpt lat="40.70984" lon="0.5849">
        <ele>10.8</ele>
        <time>2022-05-24 20:16:31</time>
      </trkpt>
      <trkpt lat="40.70982" lon="0.58494">
        <ele>10.8</ele>
        <time>2022-05-24 20:16:32</time>
      </trkpt>
      <trkpt lat="40.70981" lon="0.58498">
        <ele>10.8</ele>
        <time>2022-05-24 20:16:33</time>
      </trkpt>
      <trkpt lat="40.7098" lon="0.58503">
        <ele>10.8</ele>
        <time>2022-05-24 20:16:34</time>
      </trkpt>
      <trkpt lat="40.70978" lon="0.58507">
        <ele>10.8</ele>
        <time>2022-05-24 20:16:35</time>
      </trkpt>
      <trkpt lat="40.70976" lon="0.58513">
        <ele>10.6</ele>
        <time>2022-05-24 20:16:36</time>
      </trkpt>
      <trkpt lat="40.70974" lon="0.58518">
        <ele>10.6</ele>
        <time>2022-05-24 20:16:37</time>
      </trkpt>
      <trkpt lat="40.70972" lon="0.58524">
        <ele>10.6</ele>
        <time>2022-05-24 20:16:38</time>
      </trkpt>
      <trkpt lat="40.7097" lon="0.5853">
        <ele>10.6</ele>
        <time>2022-05-24 20:16:39</time>
      </trkpt>
      <trkpt lat="40.70969" lon="0.58535">
        <ele>10.6</ele>
        <time>2022-05-24 20:16:40</time>
      </trkpt>
      <trkpt lat="40.70967" lon="0.5854">
        <ele>10.6</ele>
        <time>2022-05-24 20:16:41</time>
      </trkpt>
      <trkpt lat="40.70965" lon="0.58546">
        <ele>10.4</ele>
        <time>2022-05-24 20:16:42</time>
      </trkpt>
      <trkpt lat="40.70963" lon="0.58551">
        <ele>10.6</ele>
        <time>2022-05-24 20:16:43</time>
      </trkpt>
      <trkpt lat="40.70961" lon="0.58557">
        <ele>10.4</ele>
        <time>2022-05-24 20:16:44</time>
      </trkpt>
      <trkpt lat="40.70959" lon="0.58561">
        <ele>10.4</ele>
        <time>2022-05-24 20:16:45</time>
      </trkpt>
      <trkpt lat="40.70956" lon="0.58567">
        <ele>10.4</ele>
        <time>2022-05-24 20:16:46</time>
      </trkpt>
      <trkpt lat="40.70955" lon="0.58571">
        <ele>10.6</ele>
        <time>2022-05-24 20:16:47</time>
      </trkpt>
      <trkpt lat="40.70953" lon="0.58576">
        <ele>10.6</ele>
        <time>2022-05-24 20:16:48</time>
      </trkpt>
      <trkpt lat="40.70951" lon="0.58581">
        <ele>10.6</ele>
        <time>2022-05-24 20:16:49</time>
      </trkpt>
      <trkpt lat="40.70949" lon="0.58585">
        <ele>10.6</ele>
        <time>2022-05-24 20:16:50</time>
      </trkpt>
      <trkpt lat="40.70948" lon="0.5859">
        <ele>10.6</ele>
        <time>2022-05-24 20:16:51</time>
      </trkpt>
      <trkpt lat="40.70946" lon="0.58594">
        <ele>10.6</ele>
        <time>2022-05-24 20:16:52</time>
      </trkpt>
      <trkpt lat="40.70944" lon="0.58599">
        <ele>10.6</ele>
        <time>2022-05-24 20:16:53</time>
      </trkpt>
      <trkpt lat="40.70943" lon="0.58604">
        <ele>10.6</ele>
        <time>2022-05-24 20:16:54</time>
      </trkpt>
      <trkpt lat="40.70942" lon="0.58608">
        <ele>10.6</ele>
        <time>2022-05-24 20:16:55</time>
      </trkpt>
      <trkpt lat="40.70941" lon="0.58613">
        <ele>10.8</ele>
        <time>2022-05-24 20:16:56</time>
      </trkpt>
      <trkpt lat="40.7094" lon="0.58616">
        <ele>10.8</ele>
        <time>2022-05-24 20:16:57</time>
      </trkpt>
      <trkpt lat="40.70938" lon="0.5862">
        <ele>10.8</ele>
        <time>2022-05-24 20:16:58</time>
      </trkpt>
      <trkpt lat="40.70937" lon="0.58623">
        <ele>10.8</ele>
        <time>2022-05-24 20:16:59</time>
      </trkpt>
      <trkpt lat="40.70935" lon="0.58627">
        <ele>10.8</ele>
        <time>2022-05-24 20:17:00</time>
      </trkpt>
      <trkpt lat="40.70934" lon="0.58632">
        <ele>10.8</ele>
        <time>2022-05-24 20:17:01</time>
      </trkpt>
      <trkpt lat="40.70932" lon="0.58636">
        <ele>10.8</ele>
        <time>2022-05-24 20:17:02</time>
      </trkpt>
      <trkpt lat="40.7093" lon="0.5864">
        <ele>10.6</ele>
        <time>2022-05-24 20:17:03</time>
      </trkpt>
      <trkpt lat="40.70928" lon="0.58644">
        <ele>10.6</ele>
        <time>2022-05-24 20:17:04</time>
      </trkpt>
      <trkpt lat="40.70926" lon="0.58647">
        <ele>10.6</ele>
        <time>2022-05-24 20:17:05</time>
      </trkpt>
      <trkpt lat="40.70924" lon="0.58651">
        <ele>10.6</ele>
        <time>2022-05-24 20:17:06</time>
      </trkpt>
      <trkpt lat="40.70923" lon="0.58655">
        <ele>10.6</ele>
        <time>2022-05-24 20:17:07</time>
      </trkpt>
      <trkpt lat="40.70922" lon="0.5866">
        <ele>10.6</ele>
        <time>2022-05-24 20:17:08</time>
      </trkpt>
      <trkpt lat="40.70921" lon="0.58664">
        <ele>10.6</ele>
        <time>2022-05-24 20:17:09</time>
      </trkpt>
      <trkpt lat="40.70919" lon="0.58667">
        <ele>10.8</ele>
        <time>2022-05-24 20:17:10</time>
      </trkpt>
      <trkpt lat="40.70918" lon="0.58671">
        <ele>10.8</ele>
        <time>2022-05-24 20:17:11</time>
      </trkpt>
      <trkpt lat="40.70916" lon="0.58676">
        <ele>10.8</ele>
        <time>2022-05-24 20:17:12</time>
      </trkpt>
      <trkpt lat="40.70914" lon="0.58681">
        <ele>10.8</ele>
        <time>2022-05-24 20:17:13</time>
      </trkpt>
      <trkpt lat="40.70913" lon="0.58685">
        <ele>10.8</ele>
        <time>2022-05-24 20:17:14</time>
      </trkpt>
      <trkpt lat="40.70912" lon="0.58689">
        <ele>10.8</ele>
        <time>2022-05-24 20:17:15</time>
      </trkpt>
      <trkpt lat="40.70909" lon="0.58694">
        <ele>10.8</ele>
        <time>2022-05-24 20:17:16</time>
      </trkpt>
      <trkpt lat="40.70908" lon="0.58699">
        <ele>10.8</ele>
        <time>2022-05-24 20:17:17</time>
      </trkpt>
      <trkpt lat="40.70906" lon="0.58704">
        <ele>10.8</ele>
        <time>2022-05-24 20:17:18</time>
      </trkpt>
      <trkpt lat="40.70905" lon="0.58708">
        <ele>10.8</ele>
        <time>2022-05-24 20:17:19</time>
      </trkpt>
      <trkpt lat="40.70903" lon="0.58713">
        <ele>10.8</ele>
        <time>2022-05-24 20:17:20</time>
      </trkpt>
      <trkpt lat="40.70902" lon="0.58717">
        <ele>10.8</ele>
        <time>2022-05-24 20:17:21</time>
      </trkpt>
      <trkpt lat="40.709" lon="0.58722">
        <ele>10.8</ele>
        <time>2022-05-24 20:17:22</time>
      </trkpt>
      <trkpt lat="40.70898" lon="0.58726">
        <ele>10.8</ele>
        <time>2022-05-24 20:17:23</time>
      </trkpt>
      <trkpt lat="40.70896" lon="0.5873">
        <ele>10.8</ele>
        <time>2022-05-24 20:17:24</time>
      </trkpt>
      <trkpt lat="40.70893" lon="0.58734">
        <ele>10.8</ele>
        <time>2022-05-24 20:17:25</time>
      </trkpt>
      <trkpt lat="40.70891" lon="0.58739">
        <ele>10.6</ele>
        <time>2022-05-24 20:17:26</time>
      </trkpt>
      <trkpt lat="40.70889" lon="0.58744">
        <ele>10.6</ele>
        <time>2022-05-24 20:17:27</time>
      </trkpt>
      <trkpt lat="40.70886" lon="0.58749">
        <ele>10.6</ele>
        <time>2022-05-24 20:17:28</time>
      </trkpt>
      <trkpt lat="40.70884" lon="0.58754">
        <ele>10.6</ele>
        <time>2022-05-24 20:17:29</time>
      </trkpt>
      <trkpt lat="40.70881" lon="0.58759">
        <ele>10.6</ele>
        <time>2022-05-24 20:17:30</time>
      </trkpt>
      <trkpt lat="40.70879" lon="0.58764">
        <ele>10.4</ele>
        <time>2022-05-24 20:17:31</time>
      </trkpt>
      <trkpt lat="40.70877" lon="0.58769">
        <ele>10.4</ele>
        <time>2022-05-24 20:17:32</time>
      </trkpt>
      <trkpt lat="40.70874" lon="0.58773">
        <ele>10.4</ele>
        <time>2022-05-24 20:17:33</time>
      </trkpt>
      <trkpt lat="40.70872" lon="0.58777">
        <ele>10.4</ele>
        <time>2022-05-24 20:17:34</time>
      </trkpt>
      <trkpt lat="40.70869" lon="0.58782">
        <ele>10.2</ele>
        <time>2022-05-24 20:17:35</time>
      </trkpt>
      <trkpt lat="40.70866" lon="0.58786">
        <ele>10.2</ele>
        <time>2022-05-24 20:17:36</time>
      </trkpt>
      <trkpt lat="40.70864" lon="0.58791">
        <ele>10</ele>
        <time>2022-05-24 20:17:37</time>
      </trkpt>
      <trkpt lat="40.70861" lon="0.58796">
        <ele>10</ele>
        <time>2022-05-24 20:17:38</time>
      </trkpt>
      <trkpt lat="40.70858" lon="0.588">
        <ele>10</ele>
        <time>2022-05-24 20:17:39</time>
      </trkpt>
      <trkpt lat="40.70855" lon="0.58805">
        <ele>10</ele>
        <time>2022-05-24 20:17:40</time>
      </trkpt>
      <trkpt lat="40.70852" lon="0.5881">
        <ele>10</ele>
        <time>2022-05-24 20:17:41</time>
      </trkpt>
      <trkpt lat="40.70849" lon="0.58814">
        <ele>9.8</ele>
        <time>2022-05-24 20:17:42</time>
      </trkpt>
      <trkpt lat="40.70846" lon="0.58819">
        <ele>9.8</ele>
        <time>2022-05-24 20:17:43</time>
      </trkpt>
      <trkpt lat="40.70842" lon="0.58823">
        <ele>9.8</ele>
        <time>2022-05-24 20:17:44</time>
      </trkpt>
      <trkpt lat="40.70839" lon="0.58828">
        <ele>9.8</ele>
        <time>2022-05-24 20:17:45</time>
      </trkpt>
      <trkpt lat="40.70837" lon="0.58833">
        <ele>9.8</ele>
        <time>2022-05-24 20:17:46</time>
      </trkpt>
      <trkpt lat="40.70834" lon="0.58838">
        <ele>9.8</ele>
        <time>2022-05-24 20:17:47</time>
      </trkpt>
      <trkpt lat="40.70831" lon="0.58842">
        <ele>9.8</ele>
        <time>2022-05-24 20:17:48</time>
      </trkpt>
      <trkpt lat="40.70827" lon="0.58846">
        <ele>9.8</ele>
        <time>2022-05-24 20:17:49</time>
      </trkpt>
      <trkpt lat="40.70825" lon="0.5885">
        <ele>10</ele>
        <time>2022-05-24 20:17:50</time>
      </trkpt>
      <trkpt lat="40.70823" lon="0.58854">
        <ele>10</ele>
        <time>2022-05-24 20:17:51</time>
      </trkpt>
      <trkpt lat="40.7082" lon="0.58857">
        <ele>10</ele>
        <time>2022-05-24 20:17:52</time>
      </trkpt>
      <trkpt lat="40.70817" lon="0.58861">
        <ele>10</ele>
        <time>2022-05-24 20:17:53</time>
      </trkpt>
      <trkpt lat="40.70814" lon="0.58864">
        <ele>10</ele>
        <time>2022-05-24 20:17:54</time>
      </trkpt>
      <trkpt lat="40.70811" lon="0.58868">
        <ele>10</ele>
        <time>2022-05-24 20:17:55</time>
      </trkpt>
      <trkpt lat="40.70808" lon="0.58872">
        <ele>10.2</ele>
        <time>2022-05-24 20:17:56</time>
      </trkpt>
      <trkpt lat="40.70805" lon="0.58874">
        <ele>10.2</ele>
        <time>2022-05-24 20:17:57</time>
      </trkpt>
      <trkpt lat="40.70802" lon="0.58876">
        <ele>10.6</ele>
        <time>2022-05-24 20:17:58</time>
      </trkpt>
      <trkpt lat="40.708" lon="0.58877">
        <ele>10.8</ele>
        <time>2022-05-24 20:17:59</time>
      </trkpt>
      <trkpt lat="40.70798" lon="0.58879">
        <ele>11</ele>
        <time>2022-05-24 20:18:00</time>
      </trkpt>
      <trkpt lat="40.70795" lon="0.58882">
        <ele>11.2</ele>
        <time>2022-05-24 20:18:01</time>
      </trkpt>
      <trkpt lat="40.70792" lon="0.58884">
        <ele>11.2</ele>
        <time>2022-05-24 20:18:02</time>
      </trkpt>
      <trkpt lat="40.7079" lon="0.58888">
        <ele>11.4</ele>
        <time>2022-05-24 20:18:03</time>
      </trkpt>
      <trkpt lat="40.70788" lon="0.58891">
        <ele>11.4</ele>
        <time>2022-05-24 20:18:04</time>
      </trkpt>
      <trkpt lat="40.70785" lon="0.58896">
        <ele>11.4</ele>
        <time>2022-05-24 20:18:05</time>
      </trkpt>
      <trkpt lat="40.70782" lon="0.589">
        <ele>11.4</ele>
        <time>2022-05-24 20:18:06</time>
      </trkpt>
      <trkpt lat="40.7078" lon="0.58905">
        <ele>11.2</ele>
        <time>2022-05-24 20:18:07</time>
      </trkpt>
      <trkpt lat="40.70778" lon="0.58909">
        <ele>11.2</ele>
        <time>2022-05-24 20:18:08</time>
      </trkpt>
      <trkpt lat="40.70773" lon="0.58914">
        <ele>11</ele>
        <time>2022-05-24 20:18:09</time>
      </trkpt>
      <trkpt lat="40.7077" lon="0.58919">
        <ele>10.8</ele>
        <time>2022-05-24 20:18:10</time>
      </trkpt>
      <trkpt lat="40.70766" lon="0.58923">
        <ele>10.6</ele>
        <time>2022-05-24 20:18:11</time>
      </trkpt>
      <trkpt lat="40.70761" lon="0.58928">
        <ele>10.4</ele>
        <time>2022-05-24 20:18:12</time>
      </trkpt>
      <trkpt lat="40.70757" lon="0.58933">
        <ele>10.2</ele>
        <time>2022-05-24 20:18:13</time>
      </trkpt>
      <trkpt lat="40.70753" lon="0.58938">
        <ele>10</ele>
        <time>2022-05-24 20:18:14</time>
      </trkpt>
      <trkpt lat="40.7075" lon="0.58943">
        <ele>10</ele>
        <time>2022-05-24 20:18:15</time>
      </trkpt>
      <trkpt lat="40.70746" lon="0.58948">
        <ele>10</ele>
        <time>2022-05-24 20:18:16</time>
      </trkpt>
      <trkpt lat="40.70743" lon="0.58952">
        <ele>9.8</ele>
        <time>2022-05-24 20:18:17</time>
      </trkpt>
      <trkpt lat="40.7074" lon="0.58958">
        <ele>9.8</ele>
        <time>2022-05-24 20:18:18</time>
      </trkpt>
      <trkpt lat="40.70737" lon="0.58963">
        <ele>9.8</ele>
        <time>2022-05-24 20:18:19</time>
      </trkpt>
      <trkpt lat="40.70734" lon="0.58968">
        <ele>9.8</ele>
        <time>2022-05-24 20:18:20</time>
      </trkpt>
      <trkpt lat="40.7073" lon="0.58973">
        <ele>9.8</ele>
        <time>2022-05-24 20:18:21</time>
      </trkpt>
      <trkpt lat="40.70727" lon="0.58978">
        <ele>10</ele>
        <time>2022-05-24 20:18:22</time>
      </trkpt>
      <trkpt lat="40.70724" lon="0.58982">
        <ele>10</ele>
        <time>2022-05-24 20:18:23</time>
      </trkpt>
      <trkpt lat="40.70721" lon="0.58987">
        <ele>10</ele>
        <time>2022-05-24 20:18:24</time>
      </trkpt>
      <trkpt lat="40.70718" lon="0.58992">
        <ele>10.2</ele>
        <time>2022-05-24 20:18:25</time>
      </trkpt>
      <trkpt lat="40.70715" lon="0.58997">
        <ele>10.2</ele>
        <time>2022-05-24 20:18:26</time>
      </trkpt>
      <trkpt lat="40.70713" lon="0.59002">
        <ele>10.4</ele>
        <time>2022-05-24 20:18:27</time>
      </trkpt>
      <trkpt lat="40.7071" lon="0.59007">
        <ele>10.6</ele>
        <time>2022-05-24 20:18:28</time>
      </trkpt>
      <trkpt lat="40.70708" lon="0.59011">
        <ele>10.8</ele>
        <time>2022-05-24 20:18:29</time>
      </trkpt>
      <trkpt lat="40.70705" lon="0.59016">
        <ele>10.8</ele>
        <time>2022-05-24 20:18:30</time>
      </trkpt>
      <trkpt lat="40.70703" lon="0.5902">
        <ele>11</ele>
        <time>2022-05-24 20:18:31</time>
      </trkpt>
      <trkpt lat="40.707" lon="0.59025">
        <ele>11.2</ele>
        <time>2022-05-24 20:18:32</time>
      </trkpt>
      <trkpt lat="40.70698" lon="0.5903">
        <ele>11.2</ele>
        <time>2022-05-24 20:18:33</time>
      </trkpt>
      <trkpt lat="40.70695" lon="0.59035">
        <ele>11.4</ele>
        <time>2022-05-24 20:18:34</time>
      </trkpt>
      <trkpt lat="40.70693" lon="0.5904">
        <ele>11.4</ele>
        <time>2022-05-24 20:18:35</time>
      </trkpt>
      <trkpt lat="40.70691" lon="0.59047">
        <ele>11.2</ele>
        <time>2022-05-24 20:18:36</time>
      </trkpt>
      <trkpt lat="40.70688" lon="0.59053">
        <ele>11</ele>
        <time>2022-05-24 20:18:37</time>
      </trkpt>
      <trkpt lat="40.70685" lon="0.5906">
        <ele>10.8</ele>
        <time>2022-05-24 20:18:38</time>
      </trkpt>
      <trkpt lat="40.70682" lon="0.59067">
        <ele>10.6</ele>
        <time>2022-05-24 20:18:39</time>
      </trkpt>
      <trkpt lat="40.70678" lon="0.59073">
        <ele>10.4</ele>
        <time>2022-05-24 20:18:40</time>
      </trkpt>
      <trkpt lat="40.70675" lon="0.5908">
        <ele>10.4</ele>
        <time>2022-05-24 20:18:41</time>
      </trkpt>
      <trkpt lat="40.70672" lon="0.59086">
        <ele>10.2</ele>
        <time>2022-05-24 20:18:42</time>
      </trkpt>
      <trkpt lat="40.70668" lon="0.59092">
        <ele>10.2</ele>
        <time>2022-05-24 20:18:43</time>
      </trkpt>
      <trkpt lat="40.70665" lon="0.59097">
        <ele>10</ele>
        <time>2022-05-24 20:18:44</time>
      </trkpt>
      <trkpt lat="40.70662" lon="0.59102">
        <ele>10</ele>
        <time>2022-05-24 20:18:45</time>
      </trkpt>
      <trkpt lat="40.70658" lon="0.59107">
        <ele>10</ele>
        <time>2022-05-24 20:18:46</time>
      </trkpt>
      <trkpt lat="40.70654" lon="0.59111">
        <ele>10.2</ele>
        <time>2022-05-24 20:18:47</time>
      </trkpt>
      <trkpt lat="40.70651" lon="0.59115">
        <ele>10.2</ele>
        <time>2022-05-24 20:18:48</time>
      </trkpt>
      <trkpt lat="40.70649" lon="0.59119">
        <ele>10.4</ele>
        <time>2022-05-24 20:18:49</time>
      </trkpt>
      <trkpt lat="40.70646" lon="0.59123">
        <ele>10.4</ele>
        <time>2022-05-24 20:18:50</time>
      </trkpt>
      <trkpt lat="40.70644" lon="0.59126">
        <ele>10.4</ele>
        <time>2022-05-24 20:18:51</time>
      </trkpt>
      <trkpt lat="40.70641" lon="0.59131">
        <ele>10.4</ele>
        <time>2022-05-24 20:18:52</time>
      </trkpt>
      <trkpt lat="40.70638" lon="0.59135">
        <ele>10.4</ele>
        <time>2022-05-24 20:18:53</time>
      </trkpt>
      <trkpt lat="40.70634" lon="0.5914">
        <ele>10.4</ele>
        <time>2022-05-24 20:18:54</time>
      </trkpt>
      <trkpt lat="40.70631" lon="0.59144">
        <ele>10.2</ele>
        <time>2022-05-24 20:18:55</time>
      </trkpt>
      <trkpt lat="40.70627" lon="0.59149">
        <ele>10.2</ele>
        <time>2022-05-24 20:18:56</time>
      </trkpt>
      <trkpt lat="40.70623" lon="0.59154">
        <ele>10.2</ele>
        <time>2022-05-24 20:18:57</time>
      </trkpt>
      <trkpt lat="40.7062" lon="0.59159">
        <ele>10</ele>
        <time>2022-05-24 20:18:58</time>
      </trkpt>
      <trkpt lat="40.70617" lon="0.59164">
        <ele>10</ele>
        <time>2022-05-24 20:18:59</time>
      </trkpt>
      <trkpt lat="40.70613" lon="0.59169">
        <ele>10</ele>
        <time>2022-05-24 20:19:00</time>
      </trkpt>
      <trkpt lat="40.7061" lon="0.59174">
        <ele>10</ele>
        <time>2022-05-24 20:19:01</time>
      </trkpt>
      <trkpt lat="40.70606" lon="0.59179">
        <ele>10</ele>
        <time>2022-05-24 20:19:02</time>
      </trkpt>
      <trkpt lat="40.70603" lon="0.59184">
        <ele>10</ele>
        <time>2022-05-24 20:19:03</time>
      </trkpt>
      <trkpt lat="40.70599" lon="0.59189">
        <ele>10</ele>
        <time>2022-05-24 20:19:04</time>
      </trkpt>
      <trkpt lat="40.70596" lon="0.59194">
        <ele>10</ele>
        <time>2022-05-24 20:19:05</time>
      </trkpt>
      <trkpt lat="40.70593" lon="0.59199">
        <ele>10</ele>
        <time>2022-05-24 20:19:06</time>
      </trkpt>
      <trkpt lat="40.70589" lon="0.59204">
        <ele>10</ele>
        <time>2022-05-24 20:19:07</time>
      </trkpt>
      <trkpt lat="40.70586" lon="0.59209">
        <ele>10</ele>
        <time>2022-05-24 20:19:08</time>
      </trkpt>
      <trkpt lat="40.70583" lon="0.59214">
        <ele>10</ele>
        <time>2022-05-24 20:19:09</time>
      </trkpt>
      <trkpt lat="40.7058" lon="0.59219">
        <ele>10</ele>
        <time>2022-05-24 20:19:10</time>
      </trkpt>
      <trkpt lat="40.70576" lon="0.59224">
        <ele>10</ele>
        <time>2022-05-24 20:19:11</time>
      </trkpt>
      <trkpt lat="40.70573" lon="0.59229">
        <ele>10</ele>
        <time>2022-05-24 20:19:12</time>
      </trkpt>
      <trkpt lat="40.70569" lon="0.59234">
        <ele>10</ele>
        <time>2022-05-24 20:19:13</time>
      </trkpt>
      <trkpt lat="40.70566" lon="0.59239">
        <ele>10</ele>
        <time>2022-05-24 20:19:14</time>
      </trkpt>
      <trkpt lat="40.70562" lon="0.59244">
        <ele>10</ele>
        <time>2022-05-24 20:19:15</time>
      </trkpt>
      <trkpt lat="40.70559" lon="0.59249">
        <ele>10</ele>
        <time>2022-05-24 20:19:16</time>
      </trkpt>
      <trkpt lat="40.70556" lon="0.59254">
        <ele>10</ele>
        <time>2022-05-24 20:19:17</time>
      </trkpt>
      <trkpt lat="40.70552" lon="0.59259">
        <ele>10</ele>
        <time>2022-05-24 20:19:18</time>
      </trkpt>
      <trkpt lat="40.70549" lon="0.59264">
        <ele>10</ele>
        <time>2022-05-24 20:19:19</time>
      </trkpt>
      <trkpt lat="40.70546" lon="0.59269">
        <ele>10</ele>
        <time>2022-05-24 20:19:20</time>
      </trkpt>
      <trkpt lat="40.70543" lon="0.59274">
        <ele>10</ele>
        <time>2022-05-24 20:19:21</time>
      </trkpt>
      <trkpt lat="40.70539" lon="0.59279">
        <ele>10</ele>
        <time>2022-05-24 20:19:22</time>
      </trkpt>
      <trkpt lat="40.70536" lon="0.59284">
        <ele>10</ele>
        <time>2022-05-24 20:19:23</time>
      </trkpt>
      <trkpt lat="40.70533" lon="0.59289">
        <ele>10</ele>
        <time>2022-05-24 20:19:24</time>
      </trkpt>
      <trkpt lat="40.7053" lon="0.59294">
        <ele>10</ele>
        <time>2022-05-24 20:19:25</time>
      </trkpt>
      <trkpt lat="40.70526" lon="0.59299">
        <ele>10</ele>
        <time>2022-05-24 20:19:26</time>
      </trkpt>
      <trkpt lat="40.70523" lon="0.59305">
        <ele>10</ele>
        <time>2022-05-24 20:19:27</time>
      </trkpt>
      <trkpt lat="40.7052" lon="0.5931">
        <ele>10</ele>
        <time>2022-05-24 20:19:28</time>
      </trkpt>
      <trkpt lat="40.70517" lon="0.59315">
        <ele>10</ele>
        <time>2022-05-24 20:19:29</time>
      </trkpt>
      <trkpt lat="40.70513" lon="0.5932">
        <ele>10.2</ele>
        <time>2022-05-24 20:19:30</time>
      </trkpt>
      <trkpt lat="40.7051" lon="0.59325">
        <ele>10.2</ele>
        <time>2022-05-24 20:19:31</time>
      </trkpt>
      <trkpt lat="40.70506" lon="0.5933">
        <ele>10.2</ele>
        <time>2022-05-24 20:19:32</time>
      </trkpt>
      <trkpt lat="40.70503" lon="0.59335">
        <ele>10.2</ele>
        <time>2022-05-24 20:19:33</time>
      </trkpt>
      <trkpt lat="40.705" lon="0.59341">
        <ele>10.2</ele>
        <time>2022-05-24 20:19:34</time>
      </trkpt>
      <trkpt lat="40.70496" lon="0.59346">
        <ele>10</ele>
        <time>2022-05-24 20:19:35</time>
      </trkpt>
      <trkpt lat="40.70493" lon="0.59351">
        <ele>10</ele>
        <time>2022-05-24 20:19:36</time>
      </trkpt>
      <trkpt lat="40.7049" lon="0.59356">
        <ele>10</ele>
        <time>2022-05-24 20:19:37</time>
      </trkpt>
      <trkpt lat="40.70486" lon="0.59361">
        <ele>10</ele>
        <time>2022-05-24 20:19:38</time>
      </trkpt>
      <trkpt lat="40.70483" lon="0.59366">
        <ele>10</ele>
        <time>2022-05-24 20:19:39</time>
      </trkpt>
      <trkpt lat="40.7048" lon="0.59371">
        <ele>10</ele>
        <time>2022-05-24 20:19:40</time>
      </trkpt>
      <trkpt lat="40.70477" lon="0.59377">
        <ele>10</ele>
        <time>2022-05-24 20:19:41</time>
      </trkpt>
      <trkpt lat="40.70473" lon="0.59382">
        <ele>10</ele>
        <time>2022-05-24 20:19:42</time>
      </trkpt>
      <trkpt lat="40.7047" lon="0.59387">
        <ele>10</ele>
        <time>2022-05-24 20:19:43</time>
      </trkpt>
      <trkpt lat="40.70467" lon="0.59392">
        <ele>10</ele>
        <time>2022-05-24 20:19:44</time>
      </trkpt>
      <trkpt lat="40.70464" lon="0.59398">
        <ele>10</ele>
        <time>2022-05-24 20:19:45</time>
      </trkpt>
      <trkpt lat="40.70461" lon="0.59403">
        <ele>10</ele>
        <time>2022-05-24 20:19:46</time>
      </trkpt>
      <trkpt lat="40.70457" lon="0.59408">
        <ele>10</ele>
        <time>2022-05-24 20:19:47</time>
      </trkpt>
      <trkpt lat="40.70454" lon="0.59414">
        <ele>10.2</ele>
        <time>2022-05-24 20:19:48</time>
      </trkpt>
      <trkpt lat="40.70451" lon="0.59419">
        <ele>10.2</ele>
        <time>2022-05-24 20:19:49</time>
      </trkpt>
      <trkpt lat="40.70447" lon="0.59424">
        <ele>10.2</ele>
        <time>2022-05-24 20:19:50</time>
      </trkpt>
      <trkpt lat="40.70444" lon="0.59429">
        <ele>10.2</ele>
        <time>2022-05-24 20:19:51</time>
      </trkpt>
      <trkpt lat="40.70441" lon="0.59434">
        <ele>10.2</ele>
        <time>2022-05-24 20:19:52</time>
      </trkpt>
      <trkpt lat="40.70437" lon="0.59439">
        <ele>10.2</ele>
        <time>2022-05-24 20:19:53</time>
      </trkpt>
      <trkpt lat="40.70434" lon="0.59444">
        <ele>10.2</ele>
        <time>2022-05-24 20:19:54</time>
      </trkpt>
      <trkpt lat="40.70431" lon="0.59449">
        <ele>10.2</ele>
        <time>2022-05-24 20:19:55</time>
      </trkpt>
      <trkpt lat="40.70427" lon="0.59454">
        <ele>10.2</ele>
        <time>2022-05-24 20:19:56</time>
      </trkpt>
      <trkpt lat="40.70424" lon="0.59459">
        <ele>10.2</ele>
        <time>2022-05-24 20:19:57</time>
      </trkpt>
      <trkpt lat="40.70421" lon="0.59464">
        <ele>10.2</ele>
        <time>2022-05-24 20:19:58</time>
      </trkpt>
      <trkpt lat="40.70418" lon="0.59469">
        <ele>10.2</ele>
        <time>2022-05-24 20:19:59</time>
      </trkpt>
      <trkpt lat="40.70414" lon="0.59474">
        <ele>10.2</ele>
        <time>2022-05-24 20:20:00</time>
      </trkpt>
      <trkpt lat="40.70411" lon="0.59479">
        <ele>10.4</ele>
        <time>2022-05-24 20:20:01</time>
      </trkpt>
      <trkpt lat="40.70407" lon="0.59484">
        <ele>10.4</ele>
        <time>2022-05-24 20:20:02</time>
      </trkpt>
      <trkpt lat="40.70404" lon="0.59489">
        <ele>10.4</ele>
        <time>2022-05-24 20:20:03</time>
      </trkpt>
      <trkpt lat="40.70401" lon="0.59494">
        <ele>10.4</ele>
        <time>2022-05-24 20:20:04</time>
      </trkpt>
      <trkpt lat="40.70398" lon="0.59499">
        <ele>10.4</ele>
        <time>2022-05-24 20:20:05</time>
      </trkpt>
      <trkpt lat="40.70395" lon="0.59503">
        <ele>10.4</ele>
        <time>2022-05-24 20:20:06</time>
      </trkpt>
      <trkpt lat="40.70391" lon="0.59508">
        <ele>10.4</ele>
        <time>2022-05-24 20:20:07</time>
      </trkpt>
      <trkpt lat="40.70388" lon="0.59513">
        <ele>10.4</ele>
        <time>2022-05-24 20:20:08</time>
      </trkpt>
      <trkpt lat="40.70385" lon="0.59518">
        <ele>10.4</ele>
        <time>2022-05-24 20:20:09</time>
      </trkpt>
      <trkpt lat="40.70383" lon="0.59523">
        <ele>10.6</ele>
        <time>2022-05-24 20:20:10</time>
      </trkpt>
      <trkpt lat="40.70379" lon="0.59528">
        <ele>10.6</ele>
        <time>2022-05-24 20:20:11</time>
      </trkpt>
      <trkpt lat="40.70376" lon="0.59534">
        <ele>10.4</ele>
        <time>2022-05-24 20:20:12</time>
      </trkpt>
      <trkpt lat="40.70373" lon="0.59539">
        <ele>10.4</ele>
        <time>2022-05-24 20:20:13</time>
      </trkpt>
      <trkpt lat="40.70369" lon="0.59544">
        <ele>10.6</ele>
        <time>2022-05-24 20:20:14</time>
      </trkpt>
      <trkpt lat="40.70366" lon="0.59549">
        <ele>10.6</ele>
        <time>2022-05-24 20:20:15</time>
      </trkpt>
      <trkpt lat="40.70363" lon="0.59553">
        <ele>10.6</ele>
        <time>2022-05-24 20:20:16</time>
      </trkpt>
      <trkpt lat="40.70359" lon="0.59558">
        <ele>10.6</ele>
        <time>2022-05-24 20:20:17</time>
      </trkpt>
      <trkpt lat="40.70356" lon="0.59563">
        <ele>10.6</ele>
        <time>2022-05-24 20:20:18</time>
      </trkpt>
      <trkpt lat="40.70353" lon="0.59568">
        <ele>10.8</ele>
        <time>2022-05-24 20:20:19</time>
      </trkpt>
      <trkpt lat="40.7035" lon="0.59573">
        <ele>10.8</ele>
        <time>2022-05-24 20:20:20</time>
      </trkpt>
      <trkpt lat="40.70347" lon="0.59578">
        <ele>10.8</ele>
        <time>2022-05-24 20:20:21</time>
      </trkpt>
      <trkpt lat="40.70344" lon="0.59583">
        <ele>10.8</ele>
        <time>2022-05-24 20:20:22</time>
      </trkpt>
      <trkpt lat="40.7034" lon="0.59588">
        <ele>10.8</ele>
        <time>2022-05-24 20:20:23</time>
      </trkpt>
      <trkpt lat="40.70337" lon="0.59593">
        <ele>10.8</ele>
        <time>2022-05-24 20:20:24</time>
      </trkpt>
      <trkpt lat="40.70333" lon="0.59598">
        <ele>10.6</ele>
        <time>2022-05-24 20:20:25</time>
      </trkpt>
      <trkpt lat="40.7033" lon="0.59603">
        <ele>10.6</ele>
        <time>2022-05-24 20:20:26</time>
      </trkpt>
      <trkpt lat="40.70327" lon="0.59608">
        <ele>10.6</ele>
        <time>2022-05-24 20:20:27</time>
      </trkpt>
      <trkpt lat="40.70324" lon="0.59613">
        <ele>10.6</ele>
        <time>2022-05-24 20:20:28</time>
      </trkpt>
      <trkpt lat="40.7032" lon="0.59618">
        <ele>10.6</ele>
        <time>2022-05-24 20:20:29</time>
      </trkpt>
      <trkpt lat="40.70317" lon="0.59622">
        <ele>10.6</ele>
        <time>2022-05-24 20:20:30</time>
      </trkpt>
      <trkpt lat="40.70314" lon="0.59627">
        <ele>10.6</ele>
        <time>2022-05-24 20:20:31</time>
      </trkpt>
      <trkpt lat="40.7031" lon="0.59633">
        <ele>10.6</ele>
        <time>2022-05-24 20:20:32</time>
      </trkpt>
      <trkpt lat="40.70307" lon="0.59638">
        <ele>10.6</ele>
        <time>2022-05-24 20:20:33</time>
      </trkpt>
      <trkpt lat="40.70304" lon="0.59643">
        <ele>10.6</ele>
        <time>2022-05-24 20:20:34</time>
      </trkpt>
      <trkpt lat="40.70301" lon="0.59648">
        <ele>10.6</ele>
        <time>2022-05-24 20:20:35</time>
      </trkpt>
      <trkpt lat="40.70297" lon="0.59653">
        <ele>10.8</ele>
        <time>2022-05-24 20:20:36</time>
      </trkpt>
      <trkpt lat="40.70294" lon="0.59659">
        <ele>10.8</ele>
        <time>2022-05-24 20:20:37</time>
      </trkpt>
      <trkpt lat="40.70291" lon="0.59663">
        <ele>10.8</ele>
        <time>2022-05-24 20:20:38</time>
      </trkpt>
      <trkpt lat="40.70288" lon="0.59668">
        <ele>10.8</ele>
        <time>2022-05-24 20:20:39</time>
      </trkpt>
      <trkpt lat="40.70285" lon="0.59672">
        <ele>10.8</ele>
        <time>2022-05-24 20:20:40</time>
      </trkpt>
      <trkpt lat="40.70282" lon="0.59677">
        <ele>10.8</ele>
        <time>2022-05-24 20:20:41</time>
      </trkpt>
      <trkpt lat="40.70279" lon="0.59682">
        <ele>10.8</ele>
        <time>2022-05-24 20:20:42</time>
      </trkpt>
      <trkpt lat="40.70275" lon="0.59688">
        <ele>10.8</ele>
        <time>2022-05-24 20:20:43</time>
      </trkpt>
      <trkpt lat="40.70272" lon="0.59693">
        <ele>10.8</ele>
        <time>2022-05-24 20:20:44</time>
      </trkpt>
      <trkpt lat="40.70269" lon="0.59698">
        <ele>10.8</ele>
        <time>2022-05-24 20:20:45</time>
      </trkpt>
      <trkpt lat="40.70265" lon="0.59703">
        <ele>10.8</ele>
        <time>2022-05-24 20:20:46</time>
      </trkpt>
      <trkpt lat="40.70262" lon="0.59708">
        <ele>10.8</ele>
        <time>2022-05-24 20:20:47</time>
      </trkpt>
      <trkpt lat="40.70258" lon="0.59713">
        <ele>10.8</ele>
        <time>2022-05-24 20:20:48</time>
      </trkpt>
      <trkpt lat="40.70255" lon="0.59718">
        <ele>11</ele>
        <time>2022-05-24 20:20:49</time>
      </trkpt>
      <trkpt lat="40.70252" lon="0.59723">
        <ele>11</ele>
        <time>2022-05-24 20:20:50</time>
      </trkpt>
      <trkpt lat="40.70249" lon="0.59728">
        <ele>11</ele>
        <time>2022-05-24 20:20:51</time>
      </trkpt>
      <trkpt lat="40.70246" lon="0.59732">
        <ele>11.2</ele>
        <time>2022-05-24 20:20:52</time>
      </trkpt>
      <trkpt lat="40.70243" lon="0.59737">
        <ele>11.2</ele>
        <time>2022-05-24 20:20:53</time>
      </trkpt>
      <trkpt lat="40.7024" lon="0.59742">
        <ele>11</ele>
        <time>2022-05-24 20:20:54</time>
      </trkpt>
      <trkpt lat="40.70237" lon="0.59747">
        <ele>11</ele>
        <time>2022-05-24 20:20:55</time>
      </trkpt>
      <trkpt lat="40.70234" lon="0.59753">
        <ele>11</ele>
        <time>2022-05-24 20:20:56</time>
      </trkpt>
      <trkpt lat="40.70231" lon="0.59758">
        <ele>11</ele>
        <time>2022-05-24 20:20:57</time>
      </trkpt>
      <trkpt lat="40.70228" lon="0.59763">
        <ele>11</ele>
        <time>2022-05-24 20:20:58</time>
      </trkpt>
      <trkpt lat="40.70224" lon="0.59769">
        <ele>11</ele>
        <time>2022-05-24 20:20:59</time>
      </trkpt>
      <trkpt lat="40.70221" lon="0.59774">
        <ele>11.2</ele>
        <time>2022-05-24 20:21:00</time>
      </trkpt>
      <trkpt lat="40.70218" lon="0.59779">
        <ele>11.2</ele>
        <time>2022-05-24 20:21:01</time>
      </trkpt>
      <trkpt lat="40.70214" lon="0.59786">
        <ele>11.2</ele>
        <time>2022-05-24 20:21:02</time>
      </trkpt>
      <trkpt lat="40.70211" lon="0.59791">
        <ele>11.2</ele>
        <time>2022-05-24 20:21:03</time>
      </trkpt>
      <trkpt lat="40.70208" lon="0.59796">
        <ele>11.4</ele>
        <time>2022-05-24 20:21:04</time>
      </trkpt>
      <trkpt lat="40.70205" lon="0.598">
        <ele>11.4</ele>
        <time>2022-05-24 20:21:05</time>
      </trkpt>
      <trkpt lat="40.70202" lon="0.59805">
        <ele>11.4</ele>
        <time>2022-05-24 20:21:06</time>
      </trkpt>
      <trkpt lat="40.70199" lon="0.5981">
        <ele>11.4</ele>
        <time>2022-05-24 20:21:07</time>
      </trkpt>
      <trkpt lat="40.70197" lon="0.59815">
        <ele>11.4</ele>
        <time>2022-05-24 20:21:08</time>
      </trkpt>
      <trkpt lat="40.70193" lon="0.59821">
        <ele>11.4</ele>
        <time>2022-05-24 20:21:09</time>
      </trkpt>
      <trkpt lat="40.7019" lon="0.59827">
        <ele>11.4</ele>
        <time>2022-05-24 20:21:10</time>
      </trkpt>
      <trkpt lat="40.70188" lon="0.59832">
        <ele>11.4</ele>
        <time>2022-05-24 20:21:11</time>
      </trkpt>
      <trkpt lat="40.70185" lon="0.59838">
        <ele>11.4</ele>
        <time>2022-05-24 20:21:12</time>
      </trkpt>
      <trkpt lat="40.70183" lon="0.59843">
        <ele>11.6</ele>
        <time>2022-05-24 20:21:13</time>
      </trkpt>
      <trkpt lat="40.7018" lon="0.59849">
        <ele>11.6</ele>
        <time>2022-05-24 20:21:14</time>
      </trkpt>
      <trkpt lat="40.70177" lon="0.59854">
        <ele>11.6</ele>
        <time>2022-05-24 20:21:15</time>
      </trkpt>
      <trkpt lat="40.70175" lon="0.59859">
        <ele>11.6</ele>
        <time>2022-05-24 20:21:16</time>
      </trkpt>
      <trkpt lat="40.70173" lon="0.59865">
        <ele>11.6</ele>
        <time>2022-05-24 20:21:17</time>
      </trkpt>
      <trkpt lat="40.7017" lon="0.5987">
        <ele>11.8</ele>
        <time>2022-05-24 20:21:18</time>
      </trkpt>
      <trkpt lat="40.70168" lon="0.59875">
        <ele>11.8</ele>
        <time>2022-05-24 20:21:19</time>
      </trkpt>
      <trkpt lat="40.70165" lon="0.5988">
        <ele>11.8</ele>
        <time>2022-05-24 20:21:20</time>
      </trkpt>
      <trkpt lat="40.70163" lon="0.59885">
        <ele>11.6</ele>
        <time>2022-05-24 20:21:21</time>
      </trkpt>
      <trkpt lat="40.7016" lon="0.59891">
        <ele>11.6</ele>
        <time>2022-05-24 20:21:22</time>
      </trkpt>
      <trkpt lat="40.70158" lon="0.59896">
        <ele>11.8</ele>
        <time>2022-05-24 20:21:23</time>
      </trkpt>
      <trkpt lat="40.70155" lon="0.59902">
        <ele>11.8</ele>
        <time>2022-05-24 20:21:24</time>
      </trkpt>
      <trkpt lat="40.70153" lon="0.59907">
        <ele>11.8</ele>
        <time>2022-05-24 20:21:25</time>
      </trkpt>
      <trkpt lat="40.70151" lon="0.59912">
        <ele>11.8</ele>
        <time>2022-05-24 20:21:26</time>
      </trkpt>
      <trkpt lat="40.70149" lon="0.59918">
        <ele>11.8</ele>
        <time>2022-05-24 20:21:27</time>
      </trkpt>
      <trkpt lat="40.70148" lon="0.59923">
        <ele>11.8</ele>
        <time>2022-05-24 20:21:28</time>
      </trkpt>
      <trkpt lat="40.70145" lon="0.5993">
        <ele>11.8</ele>
        <time>2022-05-24 20:21:29</time>
      </trkpt>
      <trkpt lat="40.70144" lon="0.59935">
        <ele>11.8</ele>
        <time>2022-05-24 20:21:30</time>
      </trkpt>
      <trkpt lat="40.70142" lon="0.5994">
        <ele>11.8</ele>
        <time>2022-05-24 20:21:31</time>
      </trkpt>
      <trkpt lat="40.7014" lon="0.59946">
        <ele>11.8</ele>
        <time>2022-05-24 20:21:32</time>
      </trkpt>
      <trkpt lat="40.70139" lon="0.59952">
        <ele>11.8</ele>
        <time>2022-05-24 20:21:33</time>
      </trkpt>
      <trkpt lat="40.70137" lon="0.59957">
        <ele>11.8</ele>
        <time>2022-05-24 20:21:34</time>
      </trkpt>
      <trkpt lat="40.70136" lon="0.59963">
        <ele>11.8</ele>
        <time>2022-05-24 20:21:35</time>
      </trkpt>
      <trkpt lat="40.70135" lon="0.59969">
        <ele>12</ele>
        <time>2022-05-24 20:21:36</time>
      </trkpt>
      <trkpt lat="40.70133" lon="0.59975">
        <ele>12</ele>
        <time>2022-05-24 20:21:37</time>
      </trkpt>
      <trkpt lat="40.70132" lon="0.59981">
        <ele>12</ele>
        <time>2022-05-24 20:21:38</time>
      </trkpt>
      <trkpt lat="40.7013" lon="0.59987">
        <ele>12</ele>
        <time>2022-05-24 20:21:39</time>
      </trkpt>
      <trkpt lat="40.70129" lon="0.59993">
        <ele>12</ele>
        <time>2022-05-24 20:21:40</time>
      </trkpt>
      <trkpt lat="40.70128" lon="0.59999">
        <ele>12</ele>
        <time>2022-05-24 20:21:41</time>
      </trkpt>
      <trkpt lat="40.70127" lon="0.60005">
        <ele>12</ele>
        <time>2022-05-24 20:21:42</time>
      </trkpt>
      <trkpt lat="40.70125" lon="0.60011">
        <ele>12</ele>
        <time>2022-05-24 20:21:43</time>
      </trkpt>
      <trkpt lat="40.70124" lon="0.60017">
        <ele>12</ele>
        <time>2022-05-24 20:21:44</time>
      </trkpt>
      <trkpt lat="40.70123" lon="0.60024">
        <ele>12</ele>
        <time>2022-05-24 20:21:45</time>
      </trkpt>
      <trkpt lat="40.70121" lon="0.60031">
        <ele>12</ele>
        <time>2022-05-24 20:21:46</time>
      </trkpt>
      <trkpt lat="40.7012" lon="0.60037">
        <ele>12</ele>
        <time>2022-05-24 20:21:47</time>
      </trkpt>
      <trkpt lat="40.70119" lon="0.60044">
        <ele>12</ele>
        <time>2022-05-24 20:21:48</time>
      </trkpt>
      <trkpt lat="40.70117" lon="0.60051">
        <ele>12</ele>
        <time>2022-05-24 20:21:49</time>
      </trkpt>
      <trkpt lat="40.70116" lon="0.60058">
        <ele>12</ele>
        <time>2022-05-24 20:21:50</time>
      </trkpt>
      <trkpt lat="40.70115" lon="0.60064">
        <ele>12</ele>
        <time>2022-05-24 20:21:51</time>
      </trkpt>
      <trkpt lat="40.70114" lon="0.6007">
        <ele>12</ele>
        <time>2022-05-24 20:21:52</time>
      </trkpt>
      <trkpt lat="40.70113" lon="0.60077">
        <ele>12</ele>
        <time>2022-05-24 20:21:53</time>
      </trkpt>
      <trkpt lat="40.70112" lon="0.60083">
        <ele>12</ele>
        <time>2022-05-24 20:21:54</time>
      </trkpt>
      <trkpt lat="40.70111" lon="0.60089">
        <ele>12</ele>
        <time>2022-05-24 20:21:55</time>
      </trkpt>
      <trkpt lat="40.7011" lon="0.60095">
        <ele>12</ele>
        <time>2022-05-24 20:21:56</time>
      </trkpt>
      <trkpt lat="40.70109" lon="0.60102">
        <ele>12</ele>
        <time>2022-05-24 20:21:57</time>
      </trkpt>
      <trkpt lat="40.70108" lon="0.60108">
        <ele>12</ele>
        <time>2022-05-24 20:21:58</time>
      </trkpt>
      <trkpt lat="40.70107" lon="0.60115">
        <ele>12</ele>
        <time>2022-05-24 20:21:59</time>
      </trkpt>
      <trkpt lat="40.70106" lon="0.60121">
        <ele>12</ele>
        <time>2022-05-24 20:22:00</time>
      </trkpt>
      <trkpt lat="40.70105" lon="0.60128">
        <ele>12</ele>
        <time>2022-05-24 20:22:01</time>
      </trkpt>
      <trkpt lat="40.70104" lon="0.60134">
        <ele>12</ele>
        <time>2022-05-24 20:22:02</time>
      </trkpt>
      <trkpt lat="40.70103" lon="0.60141">
        <ele>12.2</ele>
        <time>2022-05-24 20:22:03</time>
      </trkpt>
      <trkpt lat="40.70102" lon="0.60147">
        <ele>12.2</ele>
        <time>2022-05-24 20:22:04</time>
      </trkpt>
      <trkpt lat="40.701" lon="0.60152">
        <ele>12.2</ele>
        <time>2022-05-24 20:22:05</time>
      </trkpt>
      <trkpt lat="40.70099" lon="0.60159">
        <ele>12.2</ele>
        <time>2022-05-24 20:22:06</time>
      </trkpt>
      <trkpt lat="40.70098" lon="0.60166">
        <ele>12.2</ele>
        <time>2022-05-24 20:22:07</time>
      </trkpt>
      <trkpt lat="40.70098" lon="0.60172">
        <ele>12.2</ele>
        <time>2022-05-24 20:22:08</time>
      </trkpt>
      <trkpt lat="40.70097" lon="0.60179">
        <ele>12.2</ele>
        <time>2022-05-24 20:22:09</time>
      </trkpt>
      <trkpt lat="40.70096" lon="0.60186">
        <ele>12.2</ele>
        <time>2022-05-24 20:22:10</time>
      </trkpt>
      <trkpt lat="40.70095" lon="0.60192">
        <ele>12.2</ele>
        <time>2022-05-24 20:22:11</time>
      </trkpt>
      <trkpt lat="40.70094" lon="0.60199">
        <ele>12.2</ele>
        <time>2022-05-24 20:22:12</time>
      </trkpt>
      <trkpt lat="40.70093" lon="0.60205">
        <ele>12.2</ele>
        <time>2022-05-24 20:22:13</time>
      </trkpt>
      <trkpt lat="40.70092" lon="0.60212">
        <ele>12.4</ele>
        <time>2022-05-24 20:22:14</time>
      </trkpt>
      <trkpt lat="40.7009" lon="0.60218">
        <ele>12.4</ele>
        <time>2022-05-24 20:22:15</time>
      </trkpt>
      <trkpt lat="40.7009" lon="0.60224">
        <ele>12.4</ele>
        <time>2022-05-24 20:22:16</time>
      </trkpt>
      <trkpt lat="40.70089" lon="0.60229">
        <ele>12.6</ele>
        <time>2022-05-24 20:22:17</time>
      </trkpt>
      <trkpt lat="40.70088" lon="0.60235">
        <ele>12.6</ele>
        <time>2022-05-24 20:22:18</time>
      </trkpt>
      <trkpt lat="40.70087" lon="0.6024">
        <ele>12.6</ele>
        <time>2022-05-24 20:22:19</time>
      </trkpt>
      <trkpt lat="40.70086" lon="0.60247">
        <ele>12.6</ele>
        <time>2022-05-24 20:22:20</time>
      </trkpt>
      <trkpt lat="40.70085" lon="0.60254">
        <ele>12.6</ele>
        <time>2022-05-24 20:22:21</time>
      </trkpt>
      <trkpt lat="40.70084" lon="0.6026">
        <ele>12.4</ele>
        <time>2022-05-24 20:22:22</time>
      </trkpt>
      <trkpt lat="40.70083" lon="0.60266">
        <ele>12.4</ele>
        <time>2022-05-24 20:22:23</time>
      </trkpt>
      <trkpt lat="40.70082" lon="0.60273">
        <ele>12.4</ele>
        <time>2022-05-24 20:22:24</time>
      </trkpt>
      <trkpt lat="40.70081" lon="0.6028">
        <ele>12.4</ele>
        <time>2022-05-24 20:22:25</time>
      </trkpt>
      <trkpt lat="40.70079" lon="0.60287">
        <ele>12.4</ele>
        <time>2022-05-24 20:22:26</time>
      </trkpt>
      <trkpt lat="40.70079" lon="0.60293">
        <ele>12.6</ele>
        <time>2022-05-24 20:22:27</time>
      </trkpt>
      <trkpt lat="40.70078" lon="0.603">
        <ele>12.6</ele>
        <time>2022-05-24 20:22:28</time>
      </trkpt>
      <trkpt lat="40.70077" lon="0.60305">
        <ele>12.6</ele>
        <time>2022-05-24 20:22:29</time>
      </trkpt>
      <trkpt lat="40.70076" lon="0.60312">
        <ele>12.6</ele>
        <time>2022-05-24 20:22:30</time>
      </trkpt>
      <trkpt lat="40.70075" lon="0.60318">
        <ele>12.6</ele>
        <time>2022-05-24 20:22:31</time>
      </trkpt>
      <trkpt lat="40.70074" lon="0.60324">
        <ele>12.6</ele>
        <time>2022-05-24 20:22:32</time>
      </trkpt>
      <trkpt lat="40.70073" lon="0.6033">
        <ele>12.6</ele>
        <time>2022-05-24 20:22:33</time>
      </trkpt>
      <trkpt lat="40.70071" lon="0.60337">
        <ele>12.6</ele>
        <time>2022-05-24 20:22:34</time>
      </trkpt>
      <trkpt lat="40.7007" lon="0.60344">
        <ele>12.6</ele>
        <time>2022-05-24 20:22:35</time>
      </trkpt>
      <trkpt lat="40.70069" lon="0.6035">
        <ele>12.6</ele>
        <time>2022-05-24 20:22:36</time>
      </trkpt>
      <trkpt lat="40.70067" lon="0.60357">
        <ele>12.6</ele>
        <time>2022-05-24 20:22:37</time>
      </trkpt>
      <trkpt lat="40.70066" lon="0.60364">
        <ele>12.6</ele>
        <time>2022-05-24 20:22:38</time>
      </trkpt>
      <trkpt lat="40.70065" lon="0.60371">
        <ele>12.6</ele>
        <time>2022-05-24 20:22:39</time>
      </trkpt>
      <trkpt lat="40.70064" lon="0.60378">
        <ele>12.8</ele>
        <time>2022-05-24 20:22:40</time>
      </trkpt>
      <trkpt lat="40.70062" lon="0.60386">
        <ele>12.8</ele>
        <time>2022-05-24 20:22:41</time>
      </trkpt>
      <trkpt lat="40.70061" lon="0.60393">
        <ele>13</ele>
        <time>2022-05-24 20:22:42</time>
      </trkpt>
      <trkpt lat="40.7006" lon="0.60399">
        <ele>13</ele>
        <time>2022-05-24 20:22:43</time>
      </trkpt>
      <trkpt lat="40.7006" lon="0.60406">
        <ele>13</ele>
        <time>2022-05-24 20:22:44</time>
      </trkpt>
      <trkpt lat="40.70059" lon="0.60412">
        <ele>13.2</ele>
        <time>2022-05-24 20:22:45</time>
      </trkpt>
      <trkpt lat="40.70058" lon="0.60418">
        <ele>13.2</ele>
        <time>2022-05-24 20:22:46</time>
      </trkpt>
      <trkpt lat="40.70057" lon="0.60424">
        <ele>13.2</ele>
        <time>2022-05-24 20:22:47</time>
      </trkpt>
      <trkpt lat="40.70056" lon="0.60431">
        <ele>13.2</ele>
        <time>2022-05-24 20:22:48</time>
      </trkpt>
      <trkpt lat="40.70054" lon="0.60437">
        <ele>13.2</ele>
        <time>2022-05-24 20:22:49</time>
      </trkpt>
      <trkpt lat="40.70053" lon="0.60444">
        <ele>13.2</ele>
        <time>2022-05-24 20:22:50</time>
      </trkpt>
      <trkpt lat="40.70052" lon="0.60451">
        <ele>13.2</ele>
        <time>2022-05-24 20:22:51</time>
      </trkpt>
      <trkpt lat="40.70051" lon="0.60458">
        <ele>13.2</ele>
        <time>2022-05-24 20:22:52</time>
      </trkpt>
      <trkpt lat="40.7005" lon="0.60465">
        <ele>13.2</ele>
        <time>2022-05-24 20:22:53</time>
      </trkpt>
      <trkpt lat="40.70049" lon="0.60472">
        <ele>13.2</ele>
        <time>2022-05-24 20:22:54</time>
      </trkpt>
      <trkpt lat="40.70047" lon="0.60479">
        <ele>13.2</ele>
        <time>2022-05-24 20:22:55</time>
      </trkpt>
      <trkpt lat="40.70046" lon="0.60485">
        <ele>13.2</ele>
        <time>2022-05-24 20:22:56</time>
      </trkpt>
      <trkpt lat="40.70045" lon="0.60491">
        <ele>13.2</ele>
        <time>2022-05-24 20:22:57</time>
      </trkpt>
      <trkpt lat="40.70044" lon="0.60498">
        <ele>13.2</ele>
        <time>2022-05-24 20:22:58</time>
      </trkpt>
      <trkpt lat="40.70043" lon="0.60505">
        <ele>13.2</ele>
        <time>2022-05-24 20:22:59</time>
      </trkpt>
      <trkpt lat="40.70042" lon="0.60512">
        <ele>13.2</ele>
        <time>2022-05-24 20:23:00</time>
      </trkpt>
      <trkpt lat="40.70041" lon="0.60519">
        <ele>13.2</ele>
        <time>2022-05-24 20:23:01</time>
      </trkpt>
      <trkpt lat="40.7004" lon="0.60526">
        <ele>13.2</ele>
        <time>2022-05-24 20:23:02</time>
      </trkpt>
      <trkpt lat="40.70039" lon="0.60533">
        <ele>13.2</ele>
        <time>2022-05-24 20:23:03</time>
      </trkpt>
      <trkpt lat="40.70037" lon="0.6054">
        <ele>13.2</ele>
        <time>2022-05-24 20:23:04</time>
      </trkpt>
      <trkpt lat="40.70036" lon="0.60547">
        <ele>13.2</ele>
        <time>2022-05-24 20:23:05</time>
      </trkpt>
      <trkpt lat="40.70035" lon="0.60554">
        <ele>13.4</ele>
        <time>2022-05-24 20:23:06</time>
      </trkpt>
      <trkpt lat="40.70034" lon="0.60561">
        <ele>13.4</ele>
        <time>2022-05-24 20:23:07</time>
      </trkpt>
      <trkpt lat="40.70032" lon="0.60567">
        <ele>13.4</ele>
        <time>2022-05-24 20:23:08</time>
      </trkpt>
      <trkpt lat="40.70031" lon="0.60574">
        <ele>13.4</ele>
        <time>2022-05-24 20:23:09</time>
      </trkpt>
      <trkpt lat="40.7003" lon="0.60581">
        <ele>13.4</ele>
        <time>2022-05-24 20:23:10</time>
      </trkpt>
      <trkpt lat="40.70029" lon="0.60588">
        <ele>13.6</ele>
        <time>2022-05-24 20:23:11</time>
      </trkpt>
      <trkpt lat="40.70028" lon="0.60595">
        <ele>13.4</ele>
        <time>2022-05-24 20:23:12</time>
      </trkpt>
      <trkpt lat="40.70026" lon="0.60602">
        <ele>13.4</ele>
        <time>2022-05-24 20:23:13</time>
      </trkpt>
      <trkpt lat="40.70025" lon="0.60608">
        <ele>13.6</ele>
        <time>2022-05-24 20:23:14</time>
      </trkpt>
      <trkpt lat="40.70024" lon="0.60615">
        <ele>13.6</ele>
        <time>2022-05-24 20:23:15</time>
      </trkpt>
      <trkpt lat="40.70023" lon="0.60622">
        <ele>13.6</ele>
        <time>2022-05-24 20:23:16</time>
      </trkpt>
      <trkpt lat="40.70021" lon="0.60629">
        <ele>13.6</ele>
        <time>2022-05-24 20:23:17</time>
      </trkpt>
      <trkpt lat="40.7002" lon="0.60635">
        <ele>13.6</ele>
        <time>2022-05-24 20:23:18</time>
      </trkpt>
      <trkpt lat="40.7002" lon="0.60639">
        <ele>13.6</ele>
        <time>2022-05-24 20:23:19</time>
      </trkpt>
      <trkpt lat="40.70018" lon="0.60649">
        <ele>13.6</ele>
        <time>2022-05-24 20:23:20</time>
      </trkpt>
      <trkpt lat="40.70017" lon="0.60656">
        <ele>13.6</ele>
        <time>2022-05-24 20:23:21</time>
      </trkpt>
      <trkpt lat="40.70016" lon="0.60663">
        <ele>13.6</ele>
        <time>2022-05-24 20:23:22</time>
      </trkpt>
      <trkpt lat="40.70015" lon="0.60668">
        <ele>13.6</ele>
        <time>2022-05-24 20:23:23</time>
      </trkpt>
      <trkpt lat="40.70012" lon="0.60671">
        <ele>13.8</ele>
        <time>2022-05-24 20:23:24</time>
      </trkpt>
      <trkpt lat="40.70009" lon="0.60673">
        <ele>13.8</ele>
        <time>2022-05-24 20:23:25</time>
      </trkpt>
      <trkpt lat="40.70005" lon="0.60672">
        <ele>13.8</ele>
        <time>2022-05-24 20:23:26</time>
      </trkpt>
      <trkpt lat="40.70001" lon="0.60671">
        <ele>13.8</ele>
        <time>2022-05-24 20:23:27</time>
      </trkpt>
      <trkpt lat="40.69997" lon="0.60669">
        <ele>13.8</ele>
        <time>2022-05-24 20:23:28</time>
      </trkpt>
      <trkpt lat="40.69992" lon="0.60667">
        <ele>13.6</ele>
        <time>2022-05-24 20:23:29</time>
      </trkpt>
      <trkpt lat="40.69987" lon="0.60665">
        <ele>13.6</ele>
        <time>2022-05-24 20:23:30</time>
      </trkpt>
      <trkpt lat="40.69982" lon="0.60663">
        <ele>13.6</ele>
        <time>2022-05-24 20:23:31</time>
      </trkpt>
      <trkpt lat="40.69977" lon="0.60661">
        <ele>13.4</ele>
        <time>2022-05-24 20:23:32</time>
      </trkpt>
      <trkpt lat="40.69971" lon="0.60659">
        <ele>13.4</ele>
        <time>2022-05-24 20:23:33</time>
      </trkpt>
      <trkpt lat="40.69967" lon="0.60657">
        <ele>13.4</ele>
        <time>2022-05-24 20:23:34</time>
      </trkpt>
      <trkpt lat="40.69961" lon="0.60654">
        <ele>13.4</ele>
        <time>2022-05-24 20:23:35</time>
      </trkpt>
      <trkpt lat="40.69957" lon="0.60652">
        <ele>13.4</ele>
        <time>2022-05-24 20:23:36</time>
      </trkpt>
      <trkpt lat="40.69952" lon="0.6065">
        <ele>13.4</ele>
        <time>2022-05-24 20:23:37</time>
      </trkpt>
      <trkpt lat="40.69946" lon="0.60648">
        <ele>13.4</ele>
        <time>2022-05-24 20:23:38</time>
      </trkpt>
      <trkpt lat="40.69942" lon="0.60646">
        <ele>13.6</ele>
        <time>2022-05-24 20:23:39</time>
      </trkpt>
      <trkpt lat="40.69937" lon="0.60645">
        <ele>13.4</ele>
        <time>2022-05-24 20:23:40</time>
      </trkpt>
      <trkpt lat="40.69933" lon="0.60643">
        <ele>13.4</ele>
        <time>2022-05-24 20:23:41</time>
      </trkpt>
      <trkpt lat="40.69928" lon="0.60641">
        <ele>13.4</ele>
        <time>2022-05-24 20:23:42</time>
      </trkpt>
      <trkpt lat="40.69922" lon="0.60639">
        <ele>13.4</ele>
        <time>2022-05-24 20:23:43</time>
      </trkpt>
      <trkpt lat="40.69918" lon="0.60636">
        <ele>13.4</ele>
        <time>2022-05-24 20:23:44</time>
      </trkpt>
      <trkpt lat="40.69913" lon="0.60634">
        <ele>13.4</ele>
        <time>2022-05-24 20:23:45</time>
      </trkpt>
      <trkpt lat="40.69908" lon="0.60633">
        <ele>13.4</ele>
        <time>2022-05-24 20:23:46</time>
      </trkpt>
      <trkpt lat="40.69904" lon="0.60631">
        <ele>13.6</ele>
        <time>2022-05-24 20:23:47</time>
      </trkpt>
      <trkpt lat="40.69899" lon="0.60629">
        <ele>13.6</ele>
        <time>2022-05-24 20:23:48</time>
      </trkpt>
      <trkpt lat="40.69894" lon="0.60627">
        <ele>13.6</ele>
        <time>2022-05-24 20:23:49</time>
      </trkpt>
      <trkpt lat="40.69889" lon="0.60625">
        <ele>13.6</ele>
        <time>2022-05-24 20:23:50</time>
      </trkpt>
      <trkpt lat="40.69884" lon="0.60623">
        <ele>13.6</ele>
        <time>2022-05-24 20:23:51</time>
      </trkpt>
      <trkpt lat="40.69879" lon="0.6062">
        <ele>13.6</ele>
        <time>2022-05-24 20:23:52</time>
      </trkpt>
      <trkpt lat="40.69875" lon="0.60618">
        <ele>13.6</ele>
        <time>2022-05-24 20:23:53</time>
      </trkpt>
      <trkpt lat="40.69869" lon="0.60616">
        <ele>13.6</ele>
        <time>2022-05-24 20:23:54</time>
      </trkpt>
      <trkpt lat="40.69865" lon="0.60615">
        <ele>13.6</ele>
        <time>2022-05-24 20:23:55</time>
      </trkpt>
      <trkpt lat="40.6986" lon="0.60614">
        <ele>13.8</ele>
        <time>2022-05-24 20:23:56</time>
      </trkpt>
      <trkpt lat="40.69856" lon="0.60612">
        <ele>13.8</ele>
        <time>2022-05-24 20:23:57</time>
      </trkpt>
      <trkpt lat="40.69851" lon="0.6061">
        <ele>13.8</ele>
        <time>2022-05-24 20:23:58</time>
      </trkpt>
      <trkpt lat="40.69846" lon="0.60608">
        <ele>13.8</ele>
        <time>2022-05-24 20:23:59</time>
      </trkpt>
      <trkpt lat="40.69842" lon="0.60606">
        <ele>13.8</ele>
        <time>2022-05-24 20:24:00</time>
      </trkpt>
      <trkpt lat="40.69836" lon="0.60603">
        <ele>13.8</ele>
        <time>2022-05-24 20:24:01</time>
      </trkpt>
      <trkpt lat="40.69832" lon="0.60601">
        <ele>13.8</ele>
        <time>2022-05-24 20:24:02</time>
      </trkpt>
      <trkpt lat="40.69827" lon="0.606">
        <ele>13.8</ele>
        <time>2022-05-24 20:24:03</time>
      </trkpt>
      <trkpt lat="40.69823" lon="0.60597">
        <ele>13.8</ele>
        <time>2022-05-24 20:24:04</time>
      </trkpt>
      <trkpt lat="40.69818" lon="0.60595">
        <ele>13.8</ele>
        <time>2022-05-24 20:24:05</time>
      </trkpt>
      <trkpt lat="40.69814" lon="0.60593">
        <ele>13.8</ele>
        <time>2022-05-24 20:24:06</time>
      </trkpt>
      <trkpt lat="40.69809" lon="0.60592">
        <ele>14</ele>
        <time>2022-05-24 20:24:07</time>
      </trkpt>
      <trkpt lat="40.69804" lon="0.6059">
        <ele>14</ele>
        <time>2022-05-24 20:24:08</time>
      </trkpt>
      <trkpt lat="40.698" lon="0.60589">
        <ele>14</ele>
        <time>2022-05-24 20:24:09</time>
      </trkpt>
      <trkpt lat="40.69795" lon="0.60587">
        <ele>14</ele>
        <time>2022-05-24 20:24:10</time>
      </trkpt>
      <trkpt lat="40.69791" lon="0.60584">
        <ele>14</ele>
        <time>2022-05-24 20:24:11</time>
      </trkpt>
      <trkpt lat="40.69786" lon="0.60583">
        <ele>14</ele>
        <time>2022-05-24 20:24:12</time>
      </trkpt>
      <trkpt lat="40.69781" lon="0.60581">
        <ele>14</ele>
        <time>2022-05-24 20:24:13</time>
      </trkpt>
      <trkpt lat="40.69777" lon="0.60578">
        <ele>14</ele>
        <time>2022-05-24 20:24:14</time>
      </trkpt>
      <trkpt lat="40.69772" lon="0.60576">
        <ele>14</ele>
        <time>2022-05-24 20:24:15</time>
      </trkpt>
      <trkpt lat="40.69768" lon="0.60574">
        <ele>14.2</ele>
        <time>2022-05-24 20:24:16</time>
      </trkpt>
      <trkpt lat="40.69764" lon="0.60573">
        <ele>14.2</ele>
        <time>2022-05-24 20:24:17</time>
      </trkpt>
      <trkpt lat="40.6976" lon="0.60571">
        <ele>14.2</ele>
        <time>2022-05-24 20:24:18</time>
      </trkpt>
      <trkpt lat="40.69756" lon="0.60569">
        <ele>14.2</ele>
        <time>2022-05-24 20:24:19</time>
      </trkpt>
      <trkpt lat="40.69753" lon="0.60568">
        <ele>14.2</ele>
        <time>2022-05-24 20:24:20</time>
      </trkpt>
      <trkpt lat="40.69749" lon="0.60566">
        <ele>14.4</ele>
        <time>2022-05-24 20:24:21</time>
      </trkpt>
      <trkpt lat="40.69746" lon="0.60564">
        <ele>14.2</ele>
        <time>2022-05-24 20:24:22</time>
      </trkpt>
      <trkpt lat="40.69742" lon="0.60562">
        <ele>14.2</ele>
        <time>2022-05-24 20:24:23</time>
      </trkpt>
      <trkpt lat="40.69738" lon="0.6056">
        <ele>14.2</ele>
        <time>2022-05-24 20:24:24</time>
      </trkpt>
      <trkpt lat="40.69735" lon="0.60558">
        <ele>14.2</ele>
        <time>2022-05-24 20:24:25</time>
      </trkpt>
      <trkpt lat="40.69732" lon="0.60557">
        <ele>14.2</ele>
        <time>2022-05-24 20:24:26</time>
      </trkpt>
      <trkpt lat="40.69728" lon="0.60555">
        <ele>14.2</ele>
        <time>2022-05-24 20:24:27</time>
      </trkpt>
      <trkpt lat="40.69725" lon="0.60554">
        <ele>14.2</ele>
        <time>2022-05-24 20:24:28</time>
      </trkpt>
      <trkpt lat="40.69723" lon="0.60553">
        <ele>14.2</ele>
        <time>2022-05-24 20:24:29</time>
      </trkpt>
      <trkpt lat="40.69718" lon="0.60551">
        <ele>14.2</ele>
        <time>2022-05-24 20:24:30</time>
      </trkpt>
      <trkpt lat="40.69715" lon="0.6055">
        <ele>14.2</ele>
        <time>2022-05-24 20:24:31</time>
      </trkpt>
      <trkpt lat="40.69711" lon="0.6055">
        <ele>14.4</ele>
        <time>2022-05-24 20:24:32</time>
      </trkpt>
      <trkpt lat="40.69709" lon="0.6055">
        <ele>14.4</ele>
        <time>2022-05-24 20:24:33</time>
      </trkpt>
      <trkpt lat="40.69705" lon="0.60549">
        <ele>14.4</ele>
        <time>2022-05-24 20:24:34</time>
      </trkpt>
      <trkpt lat="40.69701" lon="0.60549">
        <ele>14.4</ele>
        <time>2022-05-24 20:24:35</time>
      </trkpt>
      <trkpt lat="40.69697" lon="0.60549">
        <ele>14.4</ele>
        <time>2022-05-24 20:24:36</time>
      </trkpt>
      <trkpt lat="40.69693" lon="0.6055">
        <ele>14.4</ele>
        <time>2022-05-24 20:24:37</time>
      </trkpt>
      <trkpt lat="40.69689" lon="0.6055">
        <ele>14.4</ele>
        <time>2022-05-24 20:24:38</time>
      </trkpt>
      <trkpt lat="40.69685" lon="0.6055">
        <ele>14.4</ele>
        <time>2022-05-24 20:24:39</time>
      </trkpt>
      <trkpt lat="40.6968" lon="0.6055">
        <ele>14.4</ele>
        <time>2022-05-24 20:24:40</time>
      </trkpt>
      <trkpt lat="40.69675" lon="0.60551">
        <ele>14.4</ele>
        <time>2022-05-24 20:24:41</time>
      </trkpt>
      <trkpt lat="40.69671" lon="0.60551">
        <ele>14.4</ele>
        <time>2022-05-24 20:24:42</time>
      </trkpt>
      <trkpt lat="40.69667" lon="0.60551">
        <ele>14.4</ele>
        <time>2022-05-24 20:24:43</time>
      </trkpt>
      <trkpt lat="40.69662" lon="0.60552">
        <ele>14.4</ele>
        <time>2022-05-24 20:24:44</time>
      </trkpt>
      <trkpt lat="40.69658" lon="0.60552">
        <ele>14.4</ele>
        <time>2022-05-24 20:24:45</time>
      </trkpt>
      <trkpt lat="40.69654" lon="0.60552">
        <ele>14.4</ele>
        <time>2022-05-24 20:24:46</time>
      </trkpt>
      <trkpt lat="40.69651" lon="0.60553">
        <ele>14.4</ele>
        <time>2022-05-24 20:24:47</time>
      </trkpt>
      <trkpt lat="40.69647" lon="0.60553">
        <ele>14.4</ele>
        <time>2022-05-24 20:24:48</time>
      </trkpt>
      <trkpt lat="40.69642" lon="0.60553">
        <ele>14.4</ele>
        <time>2022-05-24 20:24:49</time>
      </trkpt>
      <trkpt lat="40.69638" lon="0.60554">
        <ele>14.4</ele>
        <time>2022-05-24 20:24:50</time>
      </trkpt>
      <trkpt lat="40.69633" lon="0.60554">
        <ele>14.2</ele>
        <time>2022-05-24 20:24:51</time>
      </trkpt>
      <trkpt lat="40.69629" lon="0.60554">
        <ele>14.4</ele>
        <time>2022-05-24 20:24:52</time>
      </trkpt>
      <trkpt lat="40.69625" lon="0.60555">
        <ele>14.4</ele>
        <time>2022-05-24 20:24:53</time>
      </trkpt>
      <trkpt lat="40.69621" lon="0.60555">
        <ele>14.4</ele>
        <time>2022-05-24 20:24:54</time>
      </trkpt>
      <trkpt lat="40.69617" lon="0.60556">
        <ele>14.2</ele>
        <time>2022-05-24 20:24:55</time>
      </trkpt>
      <trkpt lat="40.69613" lon="0.60557">
        <ele>14.2</ele>
        <time>2022-05-24 20:24:56</time>
      </trkpt>
      <trkpt lat="40.69609" lon="0.60558">
        <ele>14.2</ele>
        <time>2022-05-24 20:24:57</time>
      </trkpt>
      <trkpt lat="40.69604" lon="0.60559">
        <ele>14.2</ele>
        <time>2022-05-24 20:24:58</time>
      </trkpt>
      <trkpt lat="40.69599" lon="0.6056">
        <ele>14.2</ele>
        <time>2022-05-24 20:24:59</time>
      </trkpt>
      <trkpt lat="40.69594" lon="0.60561">
        <ele>14.4</ele>
        <time>2022-05-24 20:25:00</time>
      </trkpt>
      <trkpt lat="40.6959" lon="0.60561">
        <ele>14.4</ele>
        <time>2022-05-24 20:25:01</time>
      </trkpt>
      <trkpt lat="40.69586" lon="0.60561">
        <ele>14.4</ele>
        <time>2022-05-24 20:25:02</time>
      </trkpt>
      <trkpt lat="40.69582" lon="0.60562">
        <ele>14.4</ele>
        <time>2022-05-24 20:25:03</time>
      </trkpt>
      <trkpt lat="40.69577" lon="0.60562">
        <ele>14.4</ele>
        <time>2022-05-24 20:25:04</time>
      </trkpt>
      <trkpt lat="40.69572" lon="0.60562">
        <ele>14.4</ele>
        <time>2022-05-24 20:25:05</time>
      </trkpt>
      <trkpt lat="40.69567" lon="0.60562">
        <ele>14.4</ele>
        <time>2022-05-24 20:25:06</time>
      </trkpt>
      <trkpt lat="40.69563" lon="0.60562">
        <ele>14.4</ele>
        <time>2022-05-24 20:25:07</time>
      </trkpt>
      <trkpt lat="40.69558" lon="0.60562">
        <ele>14.4</ele>
        <time>2022-05-24 20:25:08</time>
      </trkpt>
      <trkpt lat="40.69553" lon="0.60562">
        <ele>14.4</ele>
        <time>2022-05-24 20:25:09</time>
      </trkpt>
      <trkpt lat="40.69549" lon="0.60562">
        <ele>14.6</ele>
        <time>2022-05-24 20:25:10</time>
      </trkpt>
      <trkpt lat="40.69545" lon="0.60563">
        <ele>14.6</ele>
        <time>2022-05-24 20:25:11</time>
      </trkpt>
      <trkpt lat="40.6954" lon="0.60563">
        <ele>14.6</ele>
        <time>2022-05-24 20:25:12</time>
      </trkpt>
      <trkpt lat="40.69536" lon="0.60563">
        <ele>14.6</ele>
        <time>2022-05-24 20:25:13</time>
      </trkpt>
      <trkpt lat="40.69532" lon="0.60563">
        <ele>14.6</ele>
        <time>2022-05-24 20:25:14</time>
      </trkpt>
      <trkpt lat="40.69527" lon="0.60564">
        <ele>14.6</ele>
        <time>2022-05-24 20:25:15</time>
      </trkpt>
      <trkpt lat="40.69523" lon="0.60564">
        <ele>14.4</ele>
        <time>2022-05-24 20:25:16</time>
      </trkpt>
      <trkpt lat="40.69518" lon="0.60565">
        <ele>14.4</ele>
        <time>2022-05-24 20:25:17</time>
      </trkpt>
      <trkpt lat="40.69514" lon="0.60565">
        <ele>14.4</ele>
        <time>2022-05-24 20:25:18</time>
      </trkpt>
      <trkpt lat="40.69509" lon="0.60566">
        <ele>14.4</ele>
        <time>2022-05-24 20:25:19</time>
      </trkpt>
      <trkpt lat="40.69504" lon="0.60566">
        <ele>14.4</ele>
        <time>2022-05-24 20:25:20</time>
      </trkpt>
      <trkpt lat="40.69499" lon="0.60566">
        <ele>14.4</ele>
        <time>2022-05-24 20:25:21</time>
      </trkpt>
      <trkpt lat="40.69495" lon="0.60567">
        <ele>14.4</ele>
        <time>2022-05-24 20:25:22</time>
      </trkpt>
      <trkpt lat="40.69489" lon="0.60567">
        <ele>14.4</ele>
        <time>2022-05-24 20:25:23</time>
      </trkpt>
      <trkpt lat="40.69484" lon="0.60567">
        <ele>14.6</ele>
        <time>2022-05-24 20:25:24</time>
      </trkpt>
      <trkpt lat="40.6948" lon="0.60567">
        <ele>14.6</ele>
        <time>2022-05-24 20:25:25</time>
      </trkpt>
      <trkpt lat="40.69476" lon="0.60569">
        <ele>14.6</ele>
        <time>2022-05-24 20:25:26</time>
      </trkpt>
      <trkpt lat="40.69472" lon="0.60571">
        <ele>14.6</ele>
        <time>2022-05-24 20:25:27</time>
      </trkpt>
      <trkpt lat="40.69468" lon="0.60573">
        <ele>14.6</ele>
        <time>2022-05-24 20:25:28</time>
      </trkpt>
      <trkpt lat="40.69464" lon="0.60576">
        <ele>14.4</ele>
        <time>2022-05-24 20:25:29</time>
      </trkpt>
      <trkpt lat="40.69461" lon="0.6058">
        <ele>14.4</ele>
        <time>2022-05-24 20:25:30</time>
      </trkpt>
      <trkpt lat="40.69458" lon="0.60585">
        <ele>14.4</ele>
        <time>2022-05-24 20:25:31</time>
      </trkpt>
      <trkpt lat="40.69455" lon="0.6059">
        <ele>14.2</ele>
        <time>2022-05-24 20:25:32</time>
      </trkpt>
      <trkpt lat="40.69452" lon="0.60595">
        <ele>14.2</ele>
        <time>2022-05-24 20:25:33</time>
      </trkpt>
      <trkpt lat="40.69448" lon="0.606">
        <ele>14.2</ele>
        <time>2022-05-24 20:25:34</time>
      </trkpt>
      <trkpt lat="40.69446" lon="0.60604">
        <ele>14.2</ele>
        <time>2022-05-24 20:25:35</time>
      </trkpt>
      <trkpt lat="40.69442" lon="0.60609">
        <ele>14.2</ele>
        <time>2022-05-24 20:25:36</time>
      </trkpt>
      <trkpt lat="40.69439" lon="0.60614">
        <ele>14.4</ele>
        <time>2022-05-24 20:25:37</time>
      </trkpt>
      <trkpt lat="40.69437" lon="0.60618">
        <ele>14.4</ele>
        <time>2022-05-24 20:25:38</time>
      </trkpt>
      <trkpt lat="40.69434" lon="0.60623">
        <ele>14.2</ele>
        <time>2022-05-24 20:25:39</time>
      </trkpt>
      <trkpt lat="40.69431" lon="0.60627">
        <ele>14.2</ele>
        <time>2022-05-24 20:25:40</time>
      </trkpt>
      <trkpt lat="40.69429" lon="0.60632">
        <ele>14.2</ele>
        <time>2022-05-24 20:25:41</time>
      </trkpt>
      <trkpt lat="40.69426" lon="0.60636">
        <ele>14.2</ele>
        <time>2022-05-24 20:25:42</time>
      </trkpt>
      <trkpt lat="40.69423" lon="0.60641">
        <ele>14.2</ele>
        <time>2022-05-24 20:25:43</time>
      </trkpt>
      <trkpt lat="40.6942" lon="0.60646">
        <ele>14.2</ele>
        <time>2022-05-24 20:25:44</time>
      </trkpt>
      <trkpt lat="40.69417" lon="0.60651">
        <ele>14.2</ele>
        <time>2022-05-24 20:25:45</time>
      </trkpt>
      <trkpt lat="40.69414" lon="0.60656">
        <ele>14.2</ele>
        <time>2022-05-24 20:25:46</time>
      </trkpt>
      <trkpt lat="40.69411" lon="0.6066">
        <ele>14.2</ele>
        <time>2022-05-24 20:25:47</time>
      </trkpt>
      <trkpt lat="40.69407" lon="0.60666">
        <ele>14.2</ele>
        <time>2022-05-24 20:25:48</time>
      </trkpt>
      <trkpt lat="40.69404" lon="0.60671">
        <ele>14.2</ele>
        <time>2022-05-24 20:25:49</time>
      </trkpt>
      <trkpt lat="40.69402" lon="0.60676">
        <ele>14.2</ele>
        <time>2022-05-24 20:25:50</time>
      </trkpt>
      <trkpt lat="40.69399" lon="0.60681">
        <ele>14.2</ele>
        <time>2022-05-24 20:25:51</time>
      </trkpt>
      <trkpt lat="40.69395" lon="0.60686">
        <ele>14.2</ele>
        <time>2022-05-24 20:25:52</time>
      </trkpt>
      <trkpt lat="40.69392" lon="0.60691">
        <ele>14.2</ele>
        <time>2022-05-24 20:25:53</time>
      </trkpt>
      <trkpt lat="40.69389" lon="0.60696">
        <ele>14.2</ele>
        <time>2022-05-24 20:25:54</time>
      </trkpt>
      <trkpt lat="40.69386" lon="0.60701">
        <ele>14.2</ele>
        <time>2022-05-24 20:25:55</time>
      </trkpt>
      <trkpt lat="40.69383" lon="0.60707">
        <ele>14.2</ele>
        <time>2022-05-24 20:25:56</time>
      </trkpt>
      <trkpt lat="40.6938" lon="0.60712">
        <ele>14.2</ele>
        <time>2022-05-24 20:25:57</time>
      </trkpt>
      <trkpt lat="40.69377" lon="0.60717">
        <ele>14.2</ele>
        <time>2022-05-24 20:25:58</time>
      </trkpt>
      <trkpt lat="40.69374" lon="0.60722">
        <ele>14.2</ele>
        <time>2022-05-24 20:25:59</time>
      </trkpt>
      <trkpt lat="40.6937" lon="0.60727">
        <ele>14.2</ele>
        <time>2022-05-24 20:26:00</time>
      </trkpt>
      <trkpt lat="40.69367" lon="0.60732">
        <ele>14.2</ele>
        <time>2022-05-24 20:26:01</time>
      </trkpt>
      <trkpt lat="40.69364" lon="0.60736">
        <ele>14.2</ele>
        <time>2022-05-24 20:26:02</time>
      </trkpt>
      <trkpt lat="40.69361" lon="0.60741">
        <ele>14.2</ele>
        <time>2022-05-24 20:26:03</time>
      </trkpt>
      <trkpt lat="40.69358" lon="0.60746">
        <ele>14.2</ele>
        <time>2022-05-24 20:26:04</time>
      </trkpt>
      <trkpt lat="40.69355" lon="0.60751">
        <ele>14.2</ele>
        <time>2022-05-24 20:26:05</time>
      </trkpt>
      <trkpt lat="40.69352" lon="0.60756">
        <ele>14.2</ele>
        <time>2022-05-24 20:26:06</time>
      </trkpt>
      <trkpt lat="40.69349" lon="0.60761">
        <ele>14.2</ele>
        <time>2022-05-24 20:26:07</time>
      </trkpt>
      <trkpt lat="40.69345" lon="0.60766">
        <ele>14.2</ele>
        <time>2022-05-24 20:26:08</time>
      </trkpt>
      <trkpt lat="40.69342" lon="0.6077">
        <ele>14.2</ele>
        <time>2022-05-24 20:26:09</time>
      </trkpt>
      <trkpt lat="40.69339" lon="0.60775">
        <ele>14.2</ele>
        <time>2022-05-24 20:26:10</time>
      </trkpt>
      <trkpt lat="40.69336" lon="0.6078">
        <ele>14.2</ele>
        <time>2022-05-24 20:26:11</time>
      </trkpt>
      <trkpt lat="40.69333" lon="0.60785">
        <ele>14.2</ele>
        <time>2022-05-24 20:26:12</time>
      </trkpt>
      <trkpt lat="40.6933" lon="0.60789">
        <ele>14</ele>
        <time>2022-05-24 20:26:13</time>
      </trkpt>
      <trkpt lat="40.69328" lon="0.60793">
        <ele>14</ele>
        <time>2022-05-24 20:26:14</time>
      </trkpt>
      <trkpt lat="40.69324" lon="0.60798">
        <ele>14.2</ele>
        <time>2022-05-24 20:26:15</time>
      </trkpt>
      <trkpt lat="40.69321" lon="0.60803">
        <ele>14.2</ele>
        <time>2022-05-24 20:26:16</time>
      </trkpt>
      <trkpt lat="40.69318" lon="0.60807">
        <ele>14.2</ele>
        <time>2022-05-24 20:26:17</time>
      </trkpt>
      <trkpt lat="40.69315" lon="0.60812">
        <ele>14.2</ele>
        <time>2022-05-24 20:26:18</time>
      </trkpt>
      <trkpt lat="40.69311" lon="0.60817">
        <ele>14.2</ele>
        <time>2022-05-24 20:26:19</time>
      </trkpt>
      <trkpt lat="40.69308" lon="0.60821">
        <ele>14.2</ele>
        <time>2022-05-24 20:26:20</time>
      </trkpt>
      <trkpt lat="40.69305" lon="0.60826">
        <ele>14.2</ele>
        <time>2022-05-24 20:26:21</time>
      </trkpt>
      <trkpt lat="40.69302" lon="0.60831">
        <ele>14.2</ele>
        <time>2022-05-24 20:26:22</time>
      </trkpt>
      <trkpt lat="40.69298" lon="0.60835">
        <ele>14.2</ele>
        <time>2022-05-24 20:26:23</time>
      </trkpt>
      <trkpt lat="40.69295" lon="0.6084">
        <ele>14.2</ele>
        <time>2022-05-24 20:26:24</time>
      </trkpt>
      <trkpt lat="40.69291" lon="0.60844">
        <ele>14.2</ele>
        <time>2022-05-24 20:26:25</time>
      </trkpt>
      <trkpt lat="40.69287" lon="0.60848">
        <ele>14.2</ele>
        <time>2022-05-24 20:26:26</time>
      </trkpt>
      <trkpt lat="40.69284" lon="0.60852">
        <ele>14.2</ele>
        <time>2022-05-24 20:26:27</time>
      </trkpt>
      <trkpt lat="40.69279" lon="0.60856">
        <ele>14.2</ele>
        <time>2022-05-24 20:26:28</time>
      </trkpt>
      <trkpt lat="40.69276" lon="0.6086">
        <ele>14.2</ele>
        <time>2022-05-24 20:26:29</time>
      </trkpt>
      <trkpt lat="40.69271" lon="0.60864">
        <ele>14.2</ele>
        <time>2022-05-24 20:26:30</time>
      </trkpt>
      <trkpt lat="40.69268" lon="0.60868">
        <ele>14.2</ele>
        <time>2022-05-24 20:26:31</time>
      </trkpt>
      <trkpt lat="40.69264" lon="0.60872">
        <ele>14.2</ele>
        <time>2022-05-24 20:26:32</time>
      </trkpt>
      <trkpt lat="40.6926" lon="0.60875">
        <ele>14.4</ele>
        <time>2022-05-24 20:26:33</time>
      </trkpt>
      <trkpt lat="40.69256" lon="0.60878">
        <ele>14.4</ele>
        <time>2022-05-24 20:26:34</time>
      </trkpt>
      <trkpt lat="40.69252" lon="0.60882">
        <ele>14.4</ele>
        <time>2022-05-24 20:26:35</time>
      </trkpt>
      <trkpt lat="40.69248" lon="0.60886">
        <ele>14.4</ele>
        <time>2022-05-24 20:26:36</time>
      </trkpt>
      <trkpt lat="40.69244" lon="0.6089">
        <ele>14.4</ele>
        <time>2022-05-24 20:26:37</time>
      </trkpt>
      <trkpt lat="40.6924" lon="0.60893">
        <ele>14.4</ele>
        <time>2022-05-24 20:26:38</time>
      </trkpt>
      <trkpt lat="40.69236" lon="0.60897">
        <ele>14.2</ele>
        <time>2022-05-24 20:26:39</time>
      </trkpt>
      <trkpt lat="40.69232" lon="0.609">
        <ele>14.2</ele>
        <time>2022-05-24 20:26:40</time>
      </trkpt>
      <trkpt lat="40.69227" lon="0.60903">
        <ele>14.2</ele>
        <time>2022-05-24 20:26:41</time>
      </trkpt>
      <trkpt lat="40.69223" lon="0.60907">
        <ele>14.2</ele>
        <time>2022-05-24 20:26:42</time>
      </trkpt>
      <trkpt lat="40.69219" lon="0.6091">
        <ele>14.2</ele>
        <time>2022-05-24 20:26:43</time>
      </trkpt>
      <trkpt lat="40.69215" lon="0.60913">
        <ele>14.2</ele>
        <time>2022-05-24 20:26:44</time>
      </trkpt>
      <trkpt lat="40.69211" lon="0.60917">
        <ele>14.2</ele>
        <time>2022-05-24 20:26:45</time>
      </trkpt>
      <trkpt lat="40.69207" lon="0.60921">
        <ele>14.2</ele>
        <time>2022-05-24 20:26:46</time>
      </trkpt>
      <trkpt lat="40.69202" lon="0.60924">
        <ele>14.2</ele>
        <time>2022-05-24 20:26:47</time>
      </trkpt>
      <trkpt lat="40.69197" lon="0.60928">
        <ele>14.2</ele>
        <time>2022-05-24 20:26:48</time>
      </trkpt>
      <trkpt lat="40.69194" lon="0.60931">
        <ele>14.2</ele>
        <time>2022-05-24 20:26:49</time>
      </trkpt>
      <trkpt lat="40.69189" lon="0.60934">
        <ele>14.2</ele>
        <time>2022-05-24 20:26:50</time>
      </trkpt>
      <trkpt lat="40.69185" lon="0.60938">
        <ele>14.2</ele>
        <time>2022-05-24 20:26:51</time>
      </trkpt>
      <trkpt lat="40.69181" lon="0.60941">
        <ele>14.2</ele>
        <time>2022-05-24 20:26:52</time>
      </trkpt>
      <trkpt lat="40.69176" lon="0.60945">
        <ele>14.2</ele>
        <time>2022-05-24 20:26:53</time>
      </trkpt>
      <trkpt lat="40.69172" lon="0.60948">
        <ele>14.2</ele>
        <time>2022-05-24 20:26:54</time>
      </trkpt>
      <trkpt lat="40.69168" lon="0.60951">
        <ele>14.2</ele>
        <time>2022-05-24 20:26:55</time>
      </trkpt>
      <trkpt lat="40.69164" lon="0.60955">
        <ele>14.2</ele>
        <time>2022-05-24 20:26:56</time>
      </trkpt>
      <trkpt lat="40.69159" lon="0.60957">
        <ele>14.2</ele>
        <time>2022-05-24 20:26:57</time>
      </trkpt>
      <trkpt lat="40.69154" lon="0.6096">
        <ele>14.2</ele>
        <time>2022-05-24 20:26:58</time>
      </trkpt>
      <trkpt lat="40.6915" lon="0.60963">
        <ele>14.2</ele>
        <time>2022-05-24 20:26:59</time>
      </trkpt>
      <trkpt lat="40.69145" lon="0.60966">
        <ele>14.2</ele>
        <time>2022-05-24 20:27:00</time>
      </trkpt>
      <trkpt lat="40.6914" lon="0.60968">
        <ele>14.2</ele>
        <time>2022-05-24 20:27:01</time>
      </trkpt>
      <trkpt lat="40.69135" lon="0.6097">
        <ele>14</ele>
        <time>2022-05-24 20:27:02</time>
      </trkpt>
      <trkpt lat="40.69131" lon="0.60972">
        <ele>14</ele>
        <time>2022-05-24 20:27:03</time>
      </trkpt>
      <trkpt lat="40.69127" lon="0.60973">
        <ele>14</ele>
        <time>2022-05-24 20:27:04</time>
      </trkpt>
      <trkpt lat="40.69121" lon="0.60975">
        <ele>14.2</ele>
        <time>2022-05-24 20:27:05</time>
      </trkpt>
      <trkpt lat="40.69117" lon="0.60976">
        <ele>14.2</ele>
        <time>2022-05-24 20:27:06</time>
      </trkpt>
      <trkpt lat="40.69111" lon="0.60977">
        <ele>14</ele>
        <time>2022-05-24 20:27:07</time>
      </trkpt>
      <trkpt lat="40.69107" lon="0.60979">
        <ele>14</ele>
        <time>2022-05-24 20:27:08</time>
      </trkpt>
      <trkpt lat="40.69102" lon="0.6098">
        <ele>14</ele>
        <time>2022-05-24 20:27:09</time>
      </trkpt>
      <trkpt lat="40.69098" lon="0.60982">
        <ele>14.2</ele>
        <time>2022-05-24 20:27:10</time>
      </trkpt>
      <trkpt lat="40.69093" lon="0.60983">
        <ele>14.2</ele>
        <time>2022-05-24 20:27:11</time>
      </trkpt>
      <trkpt lat="40.69088" lon="0.60985">
        <ele>14.2</ele>
        <time>2022-05-24 20:27:12</time>
      </trkpt>
      <trkpt lat="40.69084" lon="0.60986">
        <ele>14.2</ele>
        <time>2022-05-24 20:27:13</time>
      </trkpt>
      <trkpt lat="40.6908" lon="0.60988">
        <ele>14.2</ele>
        <time>2022-05-24 20:27:14</time>
      </trkpt>
      <trkpt lat="40.69075" lon="0.60989">
        <ele>14.2</ele>
        <time>2022-05-24 20:27:15</time>
      </trkpt>
      <trkpt lat="40.69071" lon="0.60991">
        <ele>14.2</ele>
        <time>2022-05-24 20:27:16</time>
      </trkpt>
      <trkpt lat="40.69067" lon="0.60992">
        <ele>14.2</ele>
        <time>2022-05-24 20:27:17</time>
      </trkpt>
      <trkpt lat="40.69063" lon="0.60993">
        <ele>14</ele>
        <time>2022-05-24 20:27:18</time>
      </trkpt>
      <trkpt lat="40.69059" lon="0.60995">
        <ele>14</ele>
        <time>2022-05-24 20:27:19</time>
      </trkpt>
      <trkpt lat="40.69054" lon="0.60996">
        <ele>14</ele>
        <time>2022-05-24 20:27:20</time>
      </trkpt>
      <trkpt lat="40.69049" lon="0.60998">
        <ele>14</ele>
        <time>2022-05-24 20:27:21</time>
      </trkpt>
      <trkpt lat="40.69045" lon="0.61">
        <ele>13.8</ele>
        <time>2022-05-24 20:27:22</time>
      </trkpt>
      <trkpt lat="40.6904" lon="0.61002">
        <ele>13.8</ele>
        <time>2022-05-24 20:27:23</time>
      </trkpt>
      <trkpt lat="40.69035" lon="0.61004">
        <ele>13.8</ele>
        <time>2022-05-24 20:27:24</time>
      </trkpt>
      <trkpt lat="40.69031" lon="0.61005">
        <ele>13.8</ele>
        <time>2022-05-24 20:27:25</time>
      </trkpt>
      <trkpt lat="40.69026" lon="0.61007">
        <ele>13.8</ele>
        <time>2022-05-24 20:27:26</time>
      </trkpt>
      <trkpt lat="40.6902" lon="0.61009">
        <ele>13.8</ele>
        <time>2022-05-24 20:27:27</time>
      </trkpt>
      <trkpt lat="40.69014" lon="0.61011">
        <ele>13.6</ele>
        <time>2022-05-24 20:27:28</time>
      </trkpt>
      <trkpt lat="40.69009" lon="0.61013">
        <ele>13.6</ele>
        <time>2022-05-24 20:27:29</time>
      </trkpt>
      <trkpt lat="40.69004" lon="0.61015">
        <ele>13.6</ele>
        <time>2022-05-24 20:27:30</time>
      </trkpt>
      <trkpt lat="40.68998" lon="0.61017">
        <ele>13.6</ele>
        <time>2022-05-24 20:27:31</time>
      </trkpt>
      <trkpt lat="40.68992" lon="0.61019">
        <ele>13.6</ele>
        <time>2022-05-24 20:27:32</time>
      </trkpt>
      <trkpt lat="40.68986" lon="0.61021">
        <ele>13.6</ele>
        <time>2022-05-24 20:27:33</time>
      </trkpt>
      <trkpt lat="40.68981" lon="0.61022">
        <ele>13.6</ele>
        <time>2022-05-24 20:27:34</time>
      </trkpt>
      <trkpt lat="40.68976" lon="0.61024">
        <ele>13.6</ele>
        <time>2022-05-24 20:27:35</time>
      </trkpt>
      <trkpt lat="40.6897" lon="0.61025">
        <ele>13.6</ele>
        <time>2022-05-24 20:27:36</time>
      </trkpt>
      <trkpt lat="40.68965" lon="0.61027">
        <ele>13.6</ele>
        <time>2022-05-24 20:27:37</time>
      </trkpt>
      <trkpt lat="40.6896" lon="0.61029">
        <ele>13.6</ele>
        <time>2022-05-24 20:27:38</time>
      </trkpt>
      <trkpt lat="40.68955" lon="0.61031">
        <ele>13.6</ele>
        <time>2022-05-24 20:27:39</time>
      </trkpt>
      <trkpt lat="40.6895" lon="0.61033">
        <ele>13.6</ele>
        <time>2022-05-24 20:27:40</time>
      </trkpt>
      <trkpt lat="40.68945" lon="0.61035">
        <ele>13.6</ele>
        <time>2022-05-24 20:27:41</time>
      </trkpt>
      <trkpt lat="40.6894" lon="0.61036">
        <ele>13.6</ele>
        <time>2022-05-24 20:27:42</time>
      </trkpt>
      <trkpt lat="40.68936" lon="0.61038">
        <ele>13.6</ele>
        <time>2022-05-24 20:27:43</time>
      </trkpt>
      <trkpt lat="40.68931" lon="0.6104">
        <ele>13.6</ele>
        <time>2022-05-24 20:27:44</time>
      </trkpt>
      <trkpt lat="40.68925" lon="0.61041">
        <ele>13.6</ele>
        <time>2022-05-24 20:27:45</time>
      </trkpt>
      <trkpt lat="40.68921" lon="0.61043">
        <ele>13.6</ele>
        <time>2022-05-24 20:27:46</time>
      </trkpt>
      <trkpt lat="40.68916" lon="0.61045">
        <ele>13.6</ele>
        <time>2022-05-24 20:27:47</time>
      </trkpt>
      <trkpt lat="40.68911" lon="0.61047">
        <ele>13.6</ele>
        <time>2022-05-24 20:27:48</time>
      </trkpt>
      <trkpt lat="40.68906" lon="0.61049">
        <ele>13.6</ele>
        <time>2022-05-24 20:27:49</time>
      </trkpt>
      <trkpt lat="40.68901" lon="0.6105">
        <ele>13.6</ele>
        <time>2022-05-24 20:27:50</time>
      </trkpt>
      <trkpt lat="40.68896" lon="0.61052">
        <ele>13.6</ele>
        <time>2022-05-24 20:27:51</time>
      </trkpt>
      <trkpt lat="40.68891" lon="0.61054">
        <ele>13.6</ele>
        <time>2022-05-24 20:27:52</time>
      </trkpt>
      <trkpt lat="40.68886" lon="0.61055">
        <ele>13.6</ele>
        <time>2022-05-24 20:27:53</time>
      </trkpt>
      <trkpt lat="40.68881" lon="0.61057">
        <ele>13.6</ele>
        <time>2022-05-24 20:27:54</time>
      </trkpt>
      <trkpt lat="40.68877" lon="0.61059">
        <ele>13.6</ele>
        <time>2022-05-24 20:27:55</time>
      </trkpt>
      <trkpt lat="40.68872" lon="0.6106">
        <ele>13.6</ele>
        <time>2022-05-24 20:27:56</time>
      </trkpt>
      <trkpt lat="40.68866" lon="0.61061">
        <ele>13.6</ele>
        <time>2022-05-24 20:27:57</time>
      </trkpt>
      <trkpt lat="40.68861" lon="0.61063">
        <ele>13.6</ele>
        <time>2022-05-24 20:27:58</time>
      </trkpt>
      <trkpt lat="40.68856" lon="0.61065">
        <ele>13.6</ele>
        <time>2022-05-24 20:27:59</time>
      </trkpt>
      <trkpt lat="40.68852" lon="0.61068">
        <ele>13.6</ele>
        <time>2022-05-24 20:28:00</time>
      </trkpt>
      <trkpt lat="40.68848" lon="0.6107">
        <ele>13.6</ele>
        <time>2022-05-24 20:28:01</time>
      </trkpt>
      <trkpt lat="40.68842" lon="0.61071">
        <ele>13.6</ele>
        <time>2022-05-24 20:28:02</time>
      </trkpt>
      <trkpt lat="40.68838" lon="0.61073">
        <ele>13.6</ele>
        <time>2022-05-24 20:28:03</time>
      </trkpt>
      <trkpt lat="40.68833" lon="0.61074">
        <ele>13.6</ele>
        <time>2022-05-24 20:28:04</time>
      </trkpt>
      <trkpt lat="40.68828" lon="0.61075">
        <ele>13.6</ele>
        <time>2022-05-24 20:28:05</time>
      </trkpt>
      <trkpt lat="40.68823" lon="0.61077">
        <ele>13.6</ele>
        <time>2022-05-24 20:28:06</time>
      </trkpt>
      <trkpt lat="40.68818" lon="0.61079">
        <ele>13.6</ele>
        <time>2022-05-24 20:28:07</time>
      </trkpt>
      <trkpt lat="40.68814" lon="0.6108">
        <ele>13.6</ele>
        <time>2022-05-24 20:28:08</time>
      </trkpt>
      <trkpt lat="40.68809" lon="0.61082">
        <ele>13.6</ele>
        <time>2022-05-24 20:28:09</time>
      </trkpt>
      <trkpt lat="40.68804" lon="0.61083">
        <ele>13.6</ele>
        <time>2022-05-24 20:28:10</time>
      </trkpt>
      <trkpt lat="40.68798" lon="0.61085">
        <ele>13.6</ele>
        <time>2022-05-24 20:28:11</time>
      </trkpt>
      <trkpt lat="40.68794" lon="0.61087">
        <ele>13.6</ele>
        <time>2022-05-24 20:28:12</time>
      </trkpt>
      <trkpt lat="40.68789" lon="0.61088">
        <ele>13.6</ele>
        <time>2022-05-24 20:28:13</time>
      </trkpt>
      <trkpt lat="40.68785" lon="0.6109">
        <ele>13.6</ele>
        <time>2022-05-24 20:28:14</time>
      </trkpt>
      <trkpt lat="40.6878" lon="0.61092">
        <ele>13.6</ele>
        <time>2022-05-24 20:28:15</time>
      </trkpt>
      <trkpt lat="40.68776" lon="0.61093">
        <ele>13.6</ele>
        <time>2022-05-24 20:28:16</time>
      </trkpt>
      <trkpt lat="40.68771" lon="0.61095">
        <ele>13.6</ele>
        <time>2022-05-24 20:28:17</time>
      </trkpt>
      <trkpt lat="40.68766" lon="0.61097">
        <ele>13.6</ele>
        <time>2022-05-24 20:28:18</time>
      </trkpt>
      <trkpt lat="40.68761" lon="0.61099">
        <ele>13.6</ele>
        <time>2022-05-24 20:28:19</time>
      </trkpt>
      <trkpt lat="40.68756" lon="0.61101">
        <ele>13.6</ele>
        <time>2022-05-24 20:28:20</time>
      </trkpt>
      <trkpt lat="40.68752" lon="0.61102">
        <ele>13.6</ele>
        <time>2022-05-24 20:28:21</time>
      </trkpt>
      <trkpt lat="40.68747" lon="0.61103">
        <ele>13.4</ele>
        <time>2022-05-24 20:28:22</time>
      </trkpt>
      <trkpt lat="40.68741" lon="0.61105">
        <ele>13.4</ele>
        <time>2022-05-24 20:28:23</time>
      </trkpt>
      <trkpt lat="40.68736" lon="0.61107">
        <ele>13.4</ele>
        <time>2022-05-24 20:28:24</time>
      </trkpt>
      <trkpt lat="40.68731" lon="0.61109">
        <ele>13.4</ele>
        <time>2022-05-24 20:28:25</time>
      </trkpt>
      <trkpt lat="40.68727" lon="0.61111">
        <ele>13.4</ele>
        <time>2022-05-24 20:28:26</time>
      </trkpt>
      <trkpt lat="40.68721" lon="0.61112">
        <ele>13.4</ele>
        <time>2022-05-24 20:28:27</time>
      </trkpt>
      <trkpt lat="40.68717" lon="0.61114">
        <ele>13.4</ele>
        <time>2022-05-24 20:28:28</time>
      </trkpt>
      <trkpt lat="40.68712" lon="0.61115">
        <ele>13.4</ele>
        <time>2022-05-24 20:28:29</time>
      </trkpt>
      <trkpt lat="40.68707" lon="0.61117">
        <ele>13.4</ele>
        <time>2022-05-24 20:28:30</time>
      </trkpt>
      <trkpt lat="40.68703" lon="0.61118">
        <ele>13.4</ele>
        <time>2022-05-24 20:28:31</time>
      </trkpt>
      <trkpt lat="40.68698" lon="0.6112">
        <ele>13.4</ele>
        <time>2022-05-24 20:28:32</time>
      </trkpt>
      <trkpt lat="40.68694" lon="0.61122">
        <ele>13.4</ele>
        <time>2022-05-24 20:28:33</time>
      </trkpt>
      <trkpt lat="40.68689" lon="0.61124">
        <ele>13.2</ele>
        <time>2022-05-24 20:28:34</time>
      </trkpt>
      <trkpt lat="40.68684" lon="0.61125">
        <ele>13.2</ele>
        <time>2022-05-24 20:28:35</time>
      </trkpt>
      <trkpt lat="40.68679" lon="0.61127">
        <ele>13.2</ele>
        <time>2022-05-24 20:28:36</time>
      </trkpt>
      <trkpt lat="40.68674" lon="0.61129">
        <ele>13.2</ele>
        <time>2022-05-24 20:28:37</time>
      </trkpt>
      <trkpt lat="40.6867" lon="0.6113">
        <ele>13.2</ele>
        <time>2022-05-24 20:28:38</time>
      </trkpt>
      <trkpt lat="40.68665" lon="0.61132">
        <ele>13.2</ele>
        <time>2022-05-24 20:28:39</time>
      </trkpt>
      <trkpt lat="40.6866" lon="0.61133">
        <ele>13.2</ele>
        <time>2022-05-24 20:28:40</time>
      </trkpt>
      <trkpt lat="40.68655" lon="0.61135">
        <ele>13.2</ele>
        <time>2022-05-24 20:28:41</time>
      </trkpt>
      <trkpt lat="40.6865" lon="0.61137">
        <ele>13.2</ele>
        <time>2022-05-24 20:28:42</time>
      </trkpt>
      <trkpt lat="40.68645" lon="0.61138">
        <ele>13.2</ele>
        <time>2022-05-24 20:28:43</time>
      </trkpt>
      <trkpt lat="40.68641" lon="0.6114">
        <ele>13.2</ele>
        <time>2022-05-24 20:28:44</time>
      </trkpt>
      <trkpt lat="40.68636" lon="0.61141">
        <ele>13</ele>
        <time>2022-05-24 20:28:45</time>
      </trkpt>
      <trkpt lat="40.68631" lon="0.61143">
        <ele>13</ele>
        <time>2022-05-24 20:28:46</time>
      </trkpt>
      <trkpt lat="40.68626" lon="0.61145">
        <ele>13</ele>
        <time>2022-05-24 20:28:47</time>
      </trkpt>
      <trkpt lat="40.68621" lon="0.61146">
        <ele>13</ele>
        <time>2022-05-24 20:28:48</time>
      </trkpt>
      <trkpt lat="40.68616" lon="0.61148">
        <ele>13</ele>
        <time>2022-05-24 20:28:49</time>
      </trkpt>
      <trkpt lat="40.68612" lon="0.6115">
        <ele>13</ele>
        <time>2022-05-24 20:28:50</time>
      </trkpt>
      <trkpt lat="40.68606" lon="0.61152">
        <ele>13</ele>
        <time>2022-05-24 20:28:51</time>
      </trkpt>
      <trkpt lat="40.68601" lon="0.61153">
        <ele>13</ele>
        <time>2022-05-24 20:28:52</time>
      </trkpt>
      <trkpt lat="40.68596" lon="0.61155">
        <ele>13</ele>
        <time>2022-05-24 20:28:53</time>
      </trkpt>
      <trkpt lat="40.68591" lon="0.61157">
        <ele>13</ele>
        <time>2022-05-24 20:28:54</time>
      </trkpt>
      <trkpt lat="40.68586" lon="0.61158">
        <ele>12.8</ele>
        <time>2022-05-24 20:28:55</time>
      </trkpt>
      <trkpt lat="40.68581" lon="0.6116">
        <ele>13</ele>
        <time>2022-05-24 20:28:56</time>
      </trkpt>
      <trkpt lat="40.68577" lon="0.61161">
        <ele>13</ele>
        <time>2022-05-24 20:28:57</time>
      </trkpt>
      <trkpt lat="40.68571" lon="0.61163">
        <ele>13</ele>
        <time>2022-05-24 20:28:58</time>
      </trkpt>
      <trkpt lat="40.68566" lon="0.61164">
        <ele>12.8</ele>
        <time>2022-05-24 20:28:59</time>
      </trkpt>
      <trkpt lat="40.6856" lon="0.61165">
        <ele>12.8</ele>
        <time>2022-05-24 20:29:00</time>
      </trkpt>
      <trkpt lat="40.68556" lon="0.61166">
        <ele>12.8</ele>
        <time>2022-05-24 20:29:01</time>
      </trkpt>
      <trkpt lat="40.6855" lon="0.61168">
        <ele>12.8</ele>
        <time>2022-05-24 20:29:02</time>
      </trkpt>
      <trkpt lat="40.68546" lon="0.6117">
        <ele>12.6</ele>
        <time>2022-05-24 20:29:03</time>
      </trkpt>
      <trkpt lat="40.68541" lon="0.61172">
        <ele>12.6</ele>
        <time>2022-05-24 20:29:04</time>
      </trkpt>
      <trkpt lat="40.68536" lon="0.61174">
        <ele>12.6</ele>
        <time>2022-05-24 20:29:05</time>
      </trkpt>
      <trkpt lat="40.68531" lon="0.61175">
        <ele>12.6</ele>
        <time>2022-05-24 20:29:06</time>
      </trkpt>
      <trkpt lat="40.68527" lon="0.61177">
        <ele>12.6</ele>
        <time>2022-05-24 20:29:07</time>
      </trkpt>
      <trkpt lat="40.68522" lon="0.61179">
        <ele>12.6</ele>
        <time>2022-05-24 20:29:08</time>
      </trkpt>
      <trkpt lat="40.68517" lon="0.6118">
        <ele>12.6</ele>
        <time>2022-05-24 20:29:09</time>
      </trkpt>
      <trkpt lat="40.68513" lon="0.61182">
        <ele>12.6</ele>
        <time>2022-05-24 20:29:10</time>
      </trkpt>
      <trkpt lat="40.68507" lon="0.61183">
        <ele>12.6</ele>
        <time>2022-05-24 20:29:11</time>
      </trkpt>
      <trkpt lat="40.68503" lon="0.61185">
        <ele>12.6</ele>
        <time>2022-05-24 20:29:12</time>
      </trkpt>
      <trkpt lat="40.68498" lon="0.61186">
        <ele>12.6</ele>
        <time>2022-05-24 20:29:13</time>
      </trkpt>
      <trkpt lat="40.68494" lon="0.61188">
        <ele>12.6</ele>
        <time>2022-05-24 20:29:14</time>
      </trkpt>
      <trkpt lat="40.68489" lon="0.6119">
        <ele>12.4</ele>
        <time>2022-05-24 20:29:15</time>
      </trkpt>
      <trkpt lat="40.68484" lon="0.61192">
        <ele>12.4</ele>
        <time>2022-05-24 20:29:16</time>
      </trkpt>
      <trkpt lat="40.6848" lon="0.61193">
        <ele>12.4</ele>
        <time>2022-05-24 20:29:17</time>
      </trkpt>
      <trkpt lat="40.68476" lon="0.61194">
        <ele>12.6</ele>
        <time>2022-05-24 20:29:18</time>
      </trkpt>
      <trkpt lat="40.68472" lon="0.61196">
        <ele>12.4</ele>
        <time>2022-05-24 20:29:19</time>
      </trkpt>
      <trkpt lat="40.68467" lon="0.61198">
        <ele>12.4</ele>
        <time>2022-05-24 20:29:20</time>
      </trkpt>
      <trkpt lat="40.68463" lon="0.61199">
        <ele>12.4</ele>
        <time>2022-05-24 20:29:21</time>
      </trkpt>
      <trkpt lat="40.68458" lon="0.61201">
        <ele>12.4</ele>
        <time>2022-05-24 20:29:22</time>
      </trkpt>
      <trkpt lat="40.68453" lon="0.61203">
        <ele>12.4</ele>
        <time>2022-05-24 20:29:23</time>
      </trkpt>
      <trkpt lat="40.68449" lon="0.61204">
        <ele>12.4</ele>
        <time>2022-05-24 20:29:24</time>
      </trkpt>
      <trkpt lat="40.68444" lon="0.61206">
        <ele>12.4</ele>
        <time>2022-05-24 20:29:25</time>
      </trkpt>
      <trkpt lat="40.68439" lon="0.61207">
        <ele>12.4</ele>
        <time>2022-05-24 20:29:26</time>
      </trkpt>
      <trkpt lat="40.68434" lon="0.61209">
        <ele>12.4</ele>
        <time>2022-05-24 20:29:27</time>
      </trkpt>
      <trkpt lat="40.68429" lon="0.61211">
        <ele>12.4</ele>
        <time>2022-05-24 20:29:28</time>
      </trkpt>
      <trkpt lat="40.68424" lon="0.61212">
        <ele>12.2</ele>
        <time>2022-05-24 20:29:29</time>
      </trkpt>
      <trkpt lat="40.6842" lon="0.61214">
        <ele>12.2</ele>
        <time>2022-05-24 20:29:30</time>
      </trkpt>
      <trkpt lat="40.68415" lon="0.61216">
        <ele>12.2</ele>
        <time>2022-05-24 20:29:31</time>
      </trkpt>
      <trkpt lat="40.6841" lon="0.61217">
        <ele>12.2</ele>
        <time>2022-05-24 20:29:32</time>
      </trkpt>
      <trkpt lat="40.68405" lon="0.61219">
        <ele>12.2</ele>
        <time>2022-05-24 20:29:33</time>
      </trkpt>
      <trkpt lat="40.68401" lon="0.61221">
        <ele>12.2</ele>
        <time>2022-05-24 20:29:34</time>
      </trkpt>
      <trkpt lat="40.68396" lon="0.61222">
        <ele>12.2</ele>
        <time>2022-05-24 20:29:35</time>
      </trkpt>
      <trkpt lat="40.68392" lon="0.61224">
        <ele>12.2</ele>
        <time>2022-05-24 20:29:36</time>
      </trkpt>
      <trkpt lat="40.68386" lon="0.61226">
        <ele>12.2</ele>
        <time>2022-05-24 20:29:37</time>
      </trkpt>
      <trkpt lat="40.68382" lon="0.61228">
        <ele>12.2</ele>
        <time>2022-05-24 20:29:38</time>
      </trkpt>
      <trkpt lat="40.68377" lon="0.61229">
        <ele>12.2</ele>
        <time>2022-05-24 20:29:39</time>
      </trkpt>
      <trkpt lat="40.68373" lon="0.61231">
        <ele>12.2</ele>
        <time>2022-05-24 20:29:40</time>
      </trkpt>
      <trkpt lat="40.68368" lon="0.61232">
        <ele>12.2</ele>
        <time>2022-05-24 20:29:41</time>
      </trkpt>
      <trkpt lat="40.68364" lon="0.61234">
        <ele>12.2</ele>
        <time>2022-05-24 20:29:42</time>
      </trkpt>
      <trkpt lat="40.68359" lon="0.61235">
        <ele>12.2</ele>
        <time>2022-05-24 20:29:43</time>
      </trkpt>
      <trkpt lat="40.68355" lon="0.61237">
        <ele>12.2</ele>
        <time>2022-05-24 20:29:44</time>
      </trkpt>
      <trkpt lat="40.6835" lon="0.61239">
        <ele>12</ele>
        <time>2022-05-24 20:29:45</time>
      </trkpt>
      <trkpt lat="40.68346" lon="0.6124">
        <ele>12</ele>
        <time>2022-05-24 20:29:46</time>
      </trkpt>
      <trkpt lat="40.68341" lon="0.61242">
        <ele>12</ele>
        <time>2022-05-24 20:29:47</time>
      </trkpt>
      <trkpt lat="40.68337" lon="0.61243">
        <ele>12</ele>
        <time>2022-05-24 20:29:48</time>
      </trkpt>
      <trkpt lat="40.68332" lon="0.61245">
        <ele>11.8</ele>
        <time>2022-05-24 20:29:49</time>
      </trkpt>
      <trkpt lat="40.68328" lon="0.61246">
        <ele>11.8</ele>
        <time>2022-05-24 20:29:50</time>
      </trkpt>
      <trkpt lat="40.68323" lon="0.61248">
        <ele>11.8</ele>
        <time>2022-05-24 20:29:51</time>
      </trkpt>
      <trkpt lat="40.68319" lon="0.61249">
        <ele>11.8</ele>
        <time>2022-05-24 20:29:52</time>
      </trkpt>
      <trkpt lat="40.68314" lon="0.61251">
        <ele>11.8</ele>
        <time>2022-05-24 20:29:53</time>
      </trkpt>
      <trkpt lat="40.68309" lon="0.61253">
        <ele>11.8</ele>
        <time>2022-05-24 20:29:54</time>
      </trkpt>
      <trkpt lat="40.68304" lon="0.61254">
        <ele>11.8</ele>
        <time>2022-05-24 20:29:55</time>
      </trkpt>
      <trkpt lat="40.683" lon="0.61256">
        <ele>11.8</ele>
        <time>2022-05-24 20:29:56</time>
      </trkpt>
      <trkpt lat="40.68296" lon="0.61257">
        <ele>11.8</ele>
        <time>2022-05-24 20:29:57</time>
      </trkpt>
      <trkpt lat="40.68291" lon="0.61259">
        <ele>11.8</ele>
        <time>2022-05-24 20:29:58</time>
      </trkpt>
      <trkpt lat="40.68288" lon="0.6126">
        <ele>11.8</ele>
        <time>2022-05-24 20:29:59</time>
      </trkpt>
      <trkpt lat="40.68283" lon="0.61261">
        <ele>11.8</ele>
        <time>2022-05-24 20:30:00</time>
      </trkpt>
      <trkpt lat="40.68279" lon="0.61263">
        <ele>11.8</ele>
        <time>2022-05-24 20:30:01</time>
      </trkpt>
      <trkpt lat="40.68274" lon="0.61265">
        <ele>11.8</ele>
        <time>2022-05-24 20:30:02</time>
      </trkpt>
      <trkpt lat="40.6827" lon="0.61266">
        <ele>11.8</ele>
        <time>2022-05-24 20:30:03</time>
      </trkpt>
      <trkpt lat="40.68266" lon="0.61267">
        <ele>11.8</ele>
        <time>2022-05-24 20:30:04</time>
      </trkpt>
      <trkpt lat="40.68261" lon="0.61268">
        <ele>11.6</ele>
        <time>2022-05-24 20:30:05</time>
      </trkpt>
      <trkpt lat="40.68257" lon="0.6127">
        <ele>11.6</ele>
        <time>2022-05-24 20:30:06</time>
      </trkpt>
      <trkpt lat="40.68253" lon="0.61271">
        <ele>11.6</ele>
        <time>2022-05-24 20:30:07</time>
      </trkpt>
      <trkpt lat="40.68249" lon="0.61273">
        <ele>11.6</ele>
        <time>2022-05-24 20:30:08</time>
      </trkpt>
      <trkpt lat="40.68244" lon="0.61275">
        <ele>11.6</ele>
        <time>2022-05-24 20:30:09</time>
      </trkpt>
      <trkpt lat="40.6824" lon="0.61276">
        <ele>11.6</ele>
        <time>2022-05-24 20:30:10</time>
      </trkpt>
      <trkpt lat="40.68235" lon="0.61278">
        <ele>11.6</ele>
        <time>2022-05-24 20:30:11</time>
      </trkpt>
      <trkpt lat="40.6823" lon="0.6128">
        <ele>11.6</ele>
        <time>2022-05-24 20:30:12</time>
      </trkpt>
      <trkpt lat="40.68225" lon="0.61282">
        <ele>11.4</ele>
        <time>2022-05-24 20:30:13</time>
      </trkpt>
      <trkpt lat="40.68221" lon="0.61283">
        <ele>11.4</ele>
        <time>2022-05-24 20:30:14</time>
      </trkpt>
      <trkpt lat="40.68216" lon="0.61285">
        <ele>11.4</ele>
        <time>2022-05-24 20:30:15</time>
      </trkpt>
      <trkpt lat="40.68211" lon="0.61286">
        <ele>11.4</ele>
        <time>2022-05-24 20:30:16</time>
      </trkpt>
      <trkpt lat="40.68207" lon="0.61287">
        <ele>11.4</ele>
        <time>2022-05-24 20:30:17</time>
      </trkpt>
      <trkpt lat="40.68203" lon="0.61289">
        <ele>11.4</ele>
        <time>2022-05-24 20:30:18</time>
      </trkpt>
      <trkpt lat="40.68198" lon="0.6129">
        <ele>11.4</ele>
        <time>2022-05-24 20:30:19</time>
      </trkpt>
      <trkpt lat="40.68194" lon="0.61292">
        <ele>11.4</ele>
        <time>2022-05-24 20:30:20</time>
      </trkpt>
      <trkpt lat="40.68189" lon="0.61294">
        <ele>11.4</ele>
        <time>2022-05-24 20:30:21</time>
      </trkpt>
      <trkpt lat="40.68184" lon="0.61295">
        <ele>11.4</ele>
        <time>2022-05-24 20:30:22</time>
      </trkpt>
      <trkpt lat="40.6818" lon="0.61297">
        <ele>11.4</ele>
        <time>2022-05-24 20:30:23</time>
      </trkpt>
      <trkpt lat="40.68175" lon="0.61299">
        <ele>11.2</ele>
        <time>2022-05-24 20:30:24</time>
      </trkpt>
      <trkpt lat="40.6817" lon="0.613">
        <ele>11.2</ele>
        <time>2022-05-24 20:30:25</time>
      </trkpt>
      <trkpt lat="40.68166" lon="0.61302">
        <ele>11.2</ele>
        <time>2022-05-24 20:30:26</time>
      </trkpt>
      <trkpt lat="40.68161" lon="0.61303">
        <ele>11.2</ele>
        <time>2022-05-24 20:30:27</time>
      </trkpt>
      <trkpt lat="40.68157" lon="0.61304">
        <ele>11.4</ele>
        <time>2022-05-24 20:30:28</time>
      </trkpt>
      <trkpt lat="40.68153" lon="0.61306">
        <ele>11.4</ele>
        <time>2022-05-24 20:30:29</time>
      </trkpt>
      <trkpt lat="40.68149" lon="0.61307">
        <ele>11.4</ele>
        <time>2022-05-24 20:30:30</time>
      </trkpt>
      <trkpt lat="40.68145" lon="0.61308">
        <ele>11.4</ele>
        <time>2022-05-24 20:30:31</time>
      </trkpt>
      <trkpt lat="40.68141" lon="0.6131">
        <ele>11.4</ele>
        <time>2022-05-24 20:30:32</time>
      </trkpt>
      <trkpt lat="40.68137" lon="0.61312">
        <ele>11.4</ele>
        <time>2022-05-24 20:30:33</time>
      </trkpt>
      <trkpt lat="40.68132" lon="0.61313">
        <ele>11.4</ele>
        <time>2022-05-24 20:30:34</time>
      </trkpt>
      <trkpt lat="40.68128" lon="0.61314">
        <ele>11.4</ele>
        <time>2022-05-24 20:30:35</time>
      </trkpt>
      <trkpt lat="40.68124" lon="0.61315">
        <ele>11.4</ele>
        <time>2022-05-24 20:30:36</time>
      </trkpt>
      <trkpt lat="40.68119" lon="0.61317">
        <ele>11.4</ele>
        <time>2022-05-24 20:30:37</time>
      </trkpt>
      <trkpt lat="40.68116" lon="0.61318">
        <ele>11.4</ele>
        <time>2022-05-24 20:30:38</time>
      </trkpt>
      <trkpt lat="40.68111" lon="0.6132">
        <ele>11.4</ele>
        <time>2022-05-24 20:30:39</time>
      </trkpt>
      <trkpt lat="40.68107" lon="0.61321">
        <ele>11.4</ele>
        <time>2022-05-24 20:30:40</time>
      </trkpt>
      <trkpt lat="40.68103" lon="0.61323">
        <ele>11.4</ele>
        <time>2022-05-24 20:30:41</time>
      </trkpt>
      <trkpt lat="40.68098" lon="0.61324">
        <ele>11.4</ele>
        <time>2022-05-24 20:30:42</time>
      </trkpt>
      <trkpt lat="40.68094" lon="0.61326">
        <ele>11.4</ele>
        <time>2022-05-24 20:30:43</time>
      </trkpt>
      <trkpt lat="40.6809" lon="0.61328">
        <ele>11.4</ele>
        <time>2022-05-24 20:30:44</time>
      </trkpt>
      <trkpt lat="40.68086" lon="0.6133">
        <ele>11.4</ele>
        <time>2022-05-24 20:30:45</time>
      </trkpt>
      <trkpt lat="40.68081" lon="0.61331">
        <ele>11.4</ele>
        <time>2022-05-24 20:30:46</time>
      </trkpt>
      <trkpt lat="40.68077" lon="0.61333">
        <ele>11.4</ele>
        <time>2022-05-24 20:30:47</time>
      </trkpt>
      <trkpt lat="40.68073" lon="0.61334">
        <ele>11.4</ele>
        <time>2022-05-24 20:30:48</time>
      </trkpt>
      <trkpt lat="40.68069" lon="0.61336">
        <ele>11.4</ele>
        <time>2022-05-24 20:30:49</time>
      </trkpt>
      <trkpt lat="40.68064" lon="0.61337">
        <ele>11.4</ele>
        <time>2022-05-24 20:30:50</time>
      </trkpt>
      <trkpt lat="40.6806" lon="0.61338">
        <ele>11.4</ele>
        <time>2022-05-24 20:30:51</time>
      </trkpt>
      <trkpt lat="40.68056" lon="0.6134">
        <ele>11.2</ele>
        <time>2022-05-24 20:30:52</time>
      </trkpt>
      <trkpt lat="40.68052" lon="0.61342">
        <ele>11.2</ele>
        <time>2022-05-24 20:30:53</time>
      </trkpt>
      <trkpt lat="40.68048" lon="0.61344">
        <ele>11.2</ele>
        <time>2022-05-24 20:30:54</time>
      </trkpt>
      <trkpt lat="40.68043" lon="0.61345">
        <ele>11.2</ele>
        <time>2022-05-24 20:30:55</time>
      </trkpt>
      <trkpt lat="40.68039" lon="0.61346">
        <ele>11.2</ele>
        <time>2022-05-24 20:30:56</time>
      </trkpt>
      <trkpt lat="40.68034" lon="0.61346">
        <ele>11.4</ele>
        <time>2022-05-24 20:30:57</time>
      </trkpt>
      <trkpt lat="40.68031" lon="0.61348">
        <ele>11.4</ele>
        <time>2022-05-24 20:30:58</time>
      </trkpt>
      <trkpt lat="40.68026" lon="0.61349">
        <ele>11.2</ele>
        <time>2022-05-24 20:30:59</time>
      </trkpt>
      <trkpt lat="40.68022" lon="0.61351">
        <ele>11.2</ele>
        <time>2022-05-24 20:31:00</time>
      </trkpt>
      <trkpt lat="40.68017" lon="0.61353">
        <ele>11.2</ele>
        <time>2022-05-24 20:31:01</time>
      </trkpt>
      <trkpt lat="40.68012" lon="0.61354">
        <ele>11.2</ele>
        <time>2022-05-24 20:31:02</time>
      </trkpt>
      <trkpt lat="40.68007" lon="0.61356">
        <ele>11.2</ele>
        <time>2022-05-24 20:31:03</time>
      </trkpt>
      <trkpt lat="40.68002" lon="0.61358">
        <ele>11.2</ele>
        <time>2022-05-24 20:31:04</time>
      </trkpt>
      <trkpt lat="40.67996" lon="0.61361">
        <ele>11</ele>
        <time>2022-05-24 20:31:05</time>
      </trkpt>
      <trkpt lat="40.6799" lon="0.61364">
        <ele>11</ele>
        <time>2022-05-24 20:31:06</time>
      </trkpt>
      <trkpt lat="40.67984" lon="0.61366">
        <ele>11</ele>
        <time>2022-05-24 20:31:07</time>
      </trkpt>
      <trkpt lat="40.67979" lon="0.61368">
        <ele>10.8</ele>
        <time>2022-05-24 20:31:08</time>
      </trkpt>
      <trkpt lat="40.67973" lon="0.6137">
        <ele>10.8</ele>
        <time>2022-05-24 20:31:09</time>
      </trkpt>
      <trkpt lat="40.67967" lon="0.61372">
        <ele>10.8</ele>
        <time>2022-05-24 20:31:10</time>
      </trkpt>
      <trkpt lat="40.67961" lon="0.61375">
        <ele>10.8</ele>
        <time>2022-05-24 20:31:11</time>
      </trkpt>
      <trkpt lat="40.67955" lon="0.61376">
        <ele>11</ele>
        <time>2022-05-24 20:31:12</time>
      </trkpt>
      <trkpt lat="40.67949" lon="0.61378">
        <ele>11</ele>
        <time>2022-05-24 20:31:13</time>
      </trkpt>
      <trkpt lat="40.67944" lon="0.6138">
        <ele>11</ele>
        <time>2022-05-24 20:31:14</time>
      </trkpt>
      <trkpt lat="40.67938" lon="0.61382">
        <ele>11</ele>
        <time>2022-05-24 20:31:15</time>
      </trkpt>
      <trkpt lat="40.67933" lon="0.61384">
        <ele>11</ele>
        <time>2022-05-24 20:31:16</time>
      </trkpt>
      <trkpt lat="40.67927" lon="0.61386">
        <ele>11</ele>
        <time>2022-05-24 20:31:17</time>
      </trkpt>
      <trkpt lat="40.67921" lon="0.61388">
        <ele>11</ele>
        <time>2022-05-24 20:31:18</time>
      </trkpt>
      <trkpt lat="40.67916" lon="0.6139">
        <ele>11</ele>
        <time>2022-05-24 20:31:19</time>
      </trkpt>
      <trkpt lat="40.6791" lon="0.61392">
        <ele>11</ele>
        <time>2022-05-24 20:31:20</time>
      </trkpt>
      <trkpt lat="40.67904" lon="0.61394">
        <ele>11</ele>
        <time>2022-05-24 20:31:21</time>
      </trkpt>
      <trkpt lat="40.67898" lon="0.61396">
        <ele>11</ele>
        <time>2022-05-24 20:31:22</time>
      </trkpt>
      <trkpt lat="40.67892" lon="0.61398">
        <ele>11</ele>
        <time>2022-05-24 20:31:23</time>
      </trkpt>
      <trkpt lat="40.67886" lon="0.614">
        <ele>11</ele>
        <time>2022-05-24 20:31:24</time>
      </trkpt>
      <trkpt lat="40.67881" lon="0.61402">
        <ele>11</ele>
        <time>2022-05-24 20:31:25</time>
      </trkpt>
      <trkpt lat="40.67875" lon="0.61404">
        <ele>11</ele>
        <time>2022-05-24 20:31:26</time>
      </trkpt>
      <trkpt lat="40.67869" lon="0.61406">
        <ele>11</ele>
        <time>2022-05-24 20:31:27</time>
      </trkpt>
      <trkpt lat="40.67863" lon="0.61408">
        <ele>11</ele>
        <time>2022-05-24 20:31:28</time>
      </trkpt>
      <trkpt lat="40.67858" lon="0.6141">
        <ele>11</ele>
        <time>2022-05-24 20:31:29</time>
      </trkpt>
      <trkpt lat="40.67852" lon="0.61412">
        <ele>11</ele>
        <time>2022-05-24 20:31:30</time>
      </trkpt>
      <trkpt lat="40.67847" lon="0.61413">
        <ele>11</ele>
        <time>2022-05-24 20:31:31</time>
      </trkpt>
      <trkpt lat="40.67842" lon="0.61414">
        <ele>11</ele>
        <time>2022-05-24 20:31:32</time>
      </trkpt>
      <trkpt lat="40.67837" lon="0.61416">
        <ele>11</ele>
        <time>2022-05-24 20:31:33</time>
      </trkpt>
      <trkpt lat="40.67832" lon="0.61418">
        <ele>11</ele>
        <time>2022-05-24 20:31:34</time>
      </trkpt>
      <trkpt lat="40.67827" lon="0.6142">
        <ele>11</ele>
        <time>2022-05-24 20:31:35</time>
      </trkpt>
      <trkpt lat="40.67822" lon="0.61421">
        <ele>11</ele>
        <time>2022-05-24 20:31:36</time>
      </trkpt>
      <trkpt lat="40.67817" lon="0.61423">
        <ele>11</ele>
        <time>2022-05-24 20:31:37</time>
      </trkpt>
      <trkpt lat="40.67812" lon="0.61425">
        <ele>11</ele>
        <time>2022-05-24 20:31:38</time>
      </trkpt>
      <trkpt lat="40.67806" lon="0.61427">
        <ele>11</ele>
        <time>2022-05-24 20:31:39</time>
      </trkpt>
      <trkpt lat="40.67801" lon="0.6143">
        <ele>11</ele>
        <time>2022-05-24 20:31:40</time>
      </trkpt>
      <trkpt lat="40.67796" lon="0.61432">
        <ele>11</ele>
        <time>2022-05-24 20:31:41</time>
      </trkpt>
      <trkpt lat="40.67791" lon="0.61434">
        <ele>11</ele>
        <time>2022-05-24 20:31:42</time>
      </trkpt>
      <trkpt lat="40.67785" lon="0.61436">
        <ele>11</ele>
        <time>2022-05-24 20:31:43</time>
      </trkpt>
      <trkpt lat="40.6778" lon="0.61437">
        <ele>11</ele>
        <time>2022-05-24 20:31:44</time>
      </trkpt>
      <trkpt lat="40.67775" lon="0.61439">
        <ele>11</ele>
        <time>2022-05-24 20:31:45</time>
      </trkpt>
      <trkpt lat="40.67769" lon="0.61441">
        <ele>11</ele>
        <time>2022-05-24 20:31:46</time>
      </trkpt>
      <trkpt lat="40.67764" lon="0.61443">
        <ele>11</ele>
        <time>2022-05-24 20:31:47</time>
      </trkpt>
      <trkpt lat="40.67758" lon="0.61444">
        <ele>11</ele>
        <time>2022-05-24 20:31:48</time>
      </trkpt>
      <trkpt lat="40.67752" lon="0.61446">
        <ele>11</ele>
        <time>2022-05-24 20:31:49</time>
      </trkpt>
      <trkpt lat="40.67747" lon="0.61448">
        <ele>11</ele>
        <time>2022-05-24 20:31:50</time>
      </trkpt>
      <trkpt lat="40.67741" lon="0.6145">
        <ele>11</ele>
        <time>2022-05-24 20:31:51</time>
      </trkpt>
      <trkpt lat="40.67736" lon="0.61452">
        <ele>11</ele>
        <time>2022-05-24 20:31:52</time>
      </trkpt>
      <trkpt lat="40.6773" lon="0.61454">
        <ele>11</ele>
        <time>2022-05-24 20:31:53</time>
      </trkpt>
      <trkpt lat="40.67724" lon="0.61455">
        <ele>11</ele>
        <time>2022-05-24 20:31:54</time>
      </trkpt>
      <trkpt lat="40.67718" lon="0.61457">
        <ele>11</ele>
        <time>2022-05-24 20:31:55</time>
      </trkpt>
      <trkpt lat="40.67712" lon="0.6146">
        <ele>10.8</ele>
        <time>2022-05-24 20:31:56</time>
      </trkpt>
      <trkpt lat="40.67706" lon="0.61462">
        <ele>10.8</ele>
        <time>2022-05-24 20:31:57</time>
      </trkpt>
      <trkpt lat="40.67699" lon="0.61464">
        <ele>10.8</ele>
        <time>2022-05-24 20:31:58</time>
      </trkpt>
      <trkpt lat="40.67693" lon="0.61466">
        <ele>10.8</ele>
        <time>2022-05-24 20:31:59</time>
      </trkpt>
      <trkpt lat="40.67686" lon="0.61468">
        <ele>10.8</ele>
        <time>2022-05-24 20:32:00</time>
      </trkpt>
      <trkpt lat="40.6768" lon="0.61471">
        <ele>10.8</ele>
        <time>2022-05-24 20:32:01</time>
      </trkpt>
      <trkpt lat="40.67674" lon="0.61473">
        <ele>10.8</ele>
        <time>2022-05-24 20:32:02</time>
      </trkpt>
      <trkpt lat="40.67667" lon="0.61475">
        <ele>10.8</ele>
        <time>2022-05-24 20:32:03</time>
      </trkpt>
      <trkpt lat="40.67661" lon="0.61478">
        <ele>10.8</ele>
        <time>2022-05-24 20:32:04</time>
      </trkpt>
      <trkpt lat="40.67654" lon="0.6148">
        <ele>10.8</ele>
        <time>2022-05-24 20:32:05</time>
      </trkpt>
      <trkpt lat="40.67648" lon="0.61482">
        <ele>10.8</ele>
        <time>2022-05-24 20:32:06</time>
      </trkpt>
      <trkpt lat="40.67641" lon="0.61484">
        <ele>10.8</ele>
        <time>2022-05-24 20:32:07</time>
      </trkpt>
      <trkpt lat="40.67635" lon="0.61487">
        <ele>10.8</ele>
        <time>2022-05-24 20:32:08</time>
      </trkpt>
      <trkpt lat="40.67628" lon="0.61489">
        <ele>10.8</ele>
        <time>2022-05-24 20:32:09</time>
      </trkpt>
      <trkpt lat="40.67621" lon="0.61491">
        <ele>10.8</ele>
        <time>2022-05-24 20:32:10</time>
      </trkpt>
      <trkpt lat="40.67614" lon="0.61493">
        <ele>10.8</ele>
        <time>2022-05-24 20:32:11</time>
      </trkpt>
      <trkpt lat="40.67608" lon="0.61496">
        <ele>10.8</ele>
        <time>2022-05-24 20:32:12</time>
      </trkpt>
      <trkpt lat="40.67601" lon="0.61498">
        <ele>10.8</ele>
        <time>2022-05-24 20:32:13</time>
      </trkpt>
      <trkpt lat="40.67594" lon="0.615">
        <ele>10.6</ele>
        <time>2022-05-24 20:32:14</time>
      </trkpt>
      <trkpt lat="40.67587" lon="0.61503">
        <ele>10.6</ele>
        <time>2022-05-24 20:32:15</time>
      </trkpt>
      <trkpt lat="40.6758" lon="0.61505">
        <ele>10.6</ele>
        <time>2022-05-24 20:32:16</time>
      </trkpt>
      <trkpt lat="40.67574" lon="0.61507">
        <ele>10.6</ele>
        <time>2022-05-24 20:32:17</time>
      </trkpt>
      <trkpt lat="40.67567" lon="0.6151">
        <ele>10.6</ele>
        <time>2022-05-24 20:32:18</time>
      </trkpt>
      <trkpt lat="40.6756" lon="0.61512">
        <ele>10.6</ele>
        <time>2022-05-24 20:32:19</time>
      </trkpt>
      <trkpt lat="40.67553" lon="0.61514">
        <ele>10.8</ele>
        <time>2022-05-24 20:32:20</time>
      </trkpt>
      <trkpt lat="40.67547" lon="0.61517">
        <ele>10.8</ele>
        <time>2022-05-24 20:32:21</time>
      </trkpt>
      <trkpt lat="40.6754" lon="0.61519">
        <ele>10.8</ele>
        <time>2022-05-24 20:32:22</time>
      </trkpt>
      <trkpt lat="40.67533" lon="0.61522">
        <ele>10.8</ele>
        <time>2022-05-24 20:32:23</time>
      </trkpt>
      <trkpt lat="40.67527" lon="0.61524">
        <ele>10.8</ele>
        <time>2022-05-24 20:32:24</time>
      </trkpt>
      <trkpt lat="40.6752" lon="0.61526">
        <ele>10.8</ele>
        <time>2022-05-24 20:32:25</time>
      </trkpt>
      <trkpt lat="40.67513" lon="0.61528">
        <ele>10.8</ele>
        <time>2022-05-24 20:32:26</time>
      </trkpt>
      <trkpt lat="40.67507" lon="0.6153">
        <ele>10.8</ele>
        <time>2022-05-24 20:32:27</time>
      </trkpt>
      <trkpt lat="40.675" lon="0.61533">
        <ele>10.8</ele>
        <time>2022-05-24 20:32:28</time>
      </trkpt>
      <trkpt lat="40.67494" lon="0.61535">
        <ele>11</ele>
        <time>2022-05-24 20:32:29</time>
      </trkpt>
      <trkpt lat="40.67487" lon="0.61537">
        <ele>11</ele>
        <time>2022-05-24 20:32:30</time>
      </trkpt>
      <trkpt lat="40.6748" lon="0.61539">
        <ele>11.2</ele>
        <time>2022-05-24 20:32:31</time>
      </trkpt>
      <trkpt lat="40.67474" lon="0.61541">
        <ele>11.2</ele>
        <time>2022-05-24 20:32:32</time>
      </trkpt>
      <trkpt lat="40.67468" lon="0.61543">
        <ele>11.2</ele>
        <time>2022-05-24 20:32:33</time>
      </trkpt>
      <trkpt lat="40.67461" lon="0.61546">
        <ele>11.2</ele>
        <time>2022-05-24 20:32:34</time>
      </trkpt>
      <trkpt lat="40.67455" lon="0.61549">
        <ele>11.2</ele>
        <time>2022-05-24 20:32:35</time>
      </trkpt>
      <trkpt lat="40.67448" lon="0.61551">
        <ele>11.2</ele>
        <time>2022-05-24 20:32:36</time>
      </trkpt>
      <trkpt lat="40.67441" lon="0.61553">
        <ele>11.2</ele>
        <time>2022-05-24 20:32:37</time>
      </trkpt>
      <trkpt lat="40.67434" lon="0.61556">
        <ele>11.2</ele>
        <time>2022-05-24 20:32:38</time>
      </trkpt>
      <trkpt lat="40.67427" lon="0.61558">
        <ele>11</ele>
        <time>2022-05-24 20:32:39</time>
      </trkpt>
      <trkpt lat="40.6742" lon="0.61561">
        <ele>11</ele>
        <time>2022-05-24 20:32:40</time>
      </trkpt>
      <trkpt lat="40.67414" lon="0.61563">
        <ele>11</ele>
        <time>2022-05-24 20:32:41</time>
      </trkpt>
      <trkpt lat="40.67408" lon="0.61566">
        <ele>11</ele>
        <time>2022-05-24 20:32:42</time>
      </trkpt>
      <trkpt lat="40.674" lon="0.61568">
        <ele>11</ele>
        <time>2022-05-24 20:32:43</time>
      </trkpt>
      <trkpt lat="40.67393" lon="0.61571">
        <ele>11</ele>
        <time>2022-05-24 20:32:44</time>
      </trkpt>
      <trkpt lat="40.67386" lon="0.61574">
        <ele>11</ele>
        <time>2022-05-24 20:32:45</time>
      </trkpt>
      <trkpt lat="40.67379" lon="0.61576">
        <ele>11</ele>
        <time>2022-05-24 20:32:46</time>
      </trkpt>
      <trkpt lat="40.67373" lon="0.61578">
        <ele>11</ele>
        <time>2022-05-24 20:32:47</time>
      </trkpt>
      <trkpt lat="40.67366" lon="0.6158">
        <ele>11</ele>
        <time>2022-05-24 20:32:48</time>
      </trkpt>
      <trkpt lat="40.67358" lon="0.61583">
        <ele>11</ele>
        <time>2022-05-24 20:32:49</time>
      </trkpt>
      <trkpt lat="40.67352" lon="0.61585">
        <ele>11</ele>
        <time>2022-05-24 20:32:50</time>
      </trkpt>
      <trkpt lat="40.67345" lon="0.61588">
        <ele>11</ele>
        <time>2022-05-24 20:32:51</time>
      </trkpt>
      <trkpt lat="40.67339" lon="0.6159">
        <ele>11.2</ele>
        <time>2022-05-24 20:32:52</time>
      </trkpt>
      <trkpt lat="40.67332" lon="0.61593">
        <ele>11.2</ele>
        <time>2022-05-24 20:32:53</time>
      </trkpt>
      <trkpt lat="40.67325" lon="0.61595">
        <ele>11.2</ele>
        <time>2022-05-24 20:32:54</time>
      </trkpt>
      <trkpt lat="40.67319" lon="0.61597">
        <ele>11.2</ele>
        <time>2022-05-24 20:32:55</time>
      </trkpt>
      <trkpt lat="40.67312" lon="0.61599">
        <ele>11.2</ele>
        <time>2022-05-24 20:32:56</time>
      </trkpt>
      <trkpt lat="40.67306" lon="0.61601">
        <ele>11.2</ele>
        <time>2022-05-24 20:32:57</time>
      </trkpt>
      <trkpt lat="40.673" lon="0.61603">
        <ele>11.2</ele>
        <time>2022-05-24 20:32:58</time>
      </trkpt>
      <trkpt lat="40.67294" lon="0.61606">
        <ele>11.4</ele>
        <time>2022-05-24 20:32:59</time>
      </trkpt>
      <trkpt lat="40.67288" lon="0.61608">
        <ele>11.4</ele>
        <time>2022-05-24 20:33:00</time>
      </trkpt>
      <trkpt lat="40.67282" lon="0.6161">
        <ele>11.4</ele>
        <time>2022-05-24 20:33:01</time>
      </trkpt>
      <trkpt lat="40.67277" lon="0.61611">
        <ele>11.4</ele>
        <time>2022-05-24 20:33:02</time>
      </trkpt>
      <trkpt lat="40.67271" lon="0.61613">
        <ele>11.6</ele>
        <time>2022-05-24 20:33:03</time>
      </trkpt>
      <trkpt lat="40.67266" lon="0.61615">
        <ele>11.6</ele>
        <time>2022-05-24 20:33:04</time>
      </trkpt>
      <trkpt lat="40.6726" lon="0.61617">
        <ele>11.6</ele>
        <time>2022-05-24 20:33:05</time>
      </trkpt>
      <trkpt lat="40.67255" lon="0.61619">
        <ele>11.6</ele>
        <time>2022-05-24 20:33:06</time>
      </trkpt>
      <trkpt lat="40.6725" lon="0.61621">
        <ele>11.6</ele>
        <time>2022-05-24 20:33:07</time>
      </trkpt>
      <trkpt lat="40.67245" lon="0.61622">
        <ele>11.6</ele>
        <time>2022-05-24 20:33:08</time>
      </trkpt>
      <trkpt lat="40.67239" lon="0.61624">
        <ele>11.6</ele>
        <time>2022-05-24 20:33:09</time>
      </trkpt>
      <trkpt lat="40.67234" lon="0.61626">
        <ele>11.6</ele>
        <time>2022-05-24 20:33:10</time>
      </trkpt>
      <trkpt lat="40.67229" lon="0.61627">
        <ele>11.6</ele>
        <time>2022-05-24 20:33:11</time>
      </trkpt>
      <trkpt lat="40.67224" lon="0.61629">
        <ele>11.6</ele>
        <time>2022-05-24 20:33:12</time>
      </trkpt>
      <trkpt lat="40.67219" lon="0.61631">
        <ele>11.6</ele>
        <time>2022-05-24 20:33:13</time>
      </trkpt>
      <trkpt lat="40.67214" lon="0.61633">
        <ele>11.6</ele>
        <time>2022-05-24 20:33:14</time>
      </trkpt>
      <trkpt lat="40.67209" lon="0.61635">
        <ele>11.6</ele>
        <time>2022-05-24 20:33:15</time>
      </trkpt>
      <trkpt lat="40.67204" lon="0.61637">
        <ele>11.6</ele>
        <time>2022-05-24 20:33:16</time>
      </trkpt>
      <trkpt lat="40.67199" lon="0.61639">
        <ele>11.6</ele>
        <time>2022-05-24 20:33:17</time>
      </trkpt>
      <trkpt lat="40.67194" lon="0.6164">
        <ele>11.6</ele>
        <time>2022-05-24 20:33:18</time>
      </trkpt>
      <trkpt lat="40.67189" lon="0.61642">
        <ele>11.6</ele>
        <time>2022-05-24 20:33:19</time>
      </trkpt>
      <trkpt lat="40.67184" lon="0.61644">
        <ele>11.6</ele>
        <time>2022-05-24 20:33:20</time>
      </trkpt>
      <trkpt lat="40.67179" lon="0.61646">
        <ele>11.6</ele>
        <time>2022-05-24 20:33:21</time>
      </trkpt>
      <trkpt lat="40.67175" lon="0.61647">
        <ele>11.6</ele>
        <time>2022-05-24 20:33:22</time>
      </trkpt>
      <trkpt lat="40.6717" lon="0.61649">
        <ele>11.6</ele>
        <time>2022-05-24 20:33:23</time>
      </trkpt>
      <trkpt lat="40.67165" lon="0.6165">
        <ele>11.6</ele>
        <time>2022-05-24 20:33:24</time>
      </trkpt>
      <trkpt lat="40.6716" lon="0.61652">
        <ele>11.6</ele>
        <time>2022-05-24 20:33:25</time>
      </trkpt>
      <trkpt lat="40.67155" lon="0.61654">
        <ele>11.6</ele>
        <time>2022-05-24 20:33:26</time>
      </trkpt>
      <trkpt lat="40.6715" lon="0.61655">
        <ele>11.6</ele>
        <time>2022-05-24 20:33:27</time>
      </trkpt>
      <trkpt lat="40.67146" lon="0.61657">
        <ele>11.6</ele>
        <time>2022-05-24 20:33:28</time>
      </trkpt>
      <trkpt lat="40.67142" lon="0.61659">
        <ele>11.6</ele>
        <time>2022-05-24 20:33:29</time>
      </trkpt>
      <trkpt lat="40.67138" lon="0.6166">
        <ele>11.8</ele>
        <time>2022-05-24 20:33:30</time>
      </trkpt>
      <trkpt lat="40.67133" lon="0.61662">
        <ele>11.8</ele>
        <time>2022-05-24 20:33:31</time>
      </trkpt>
      <trkpt lat="40.67129" lon="0.61664">
        <ele>11.8</ele>
        <time>2022-05-24 20:33:32</time>
      </trkpt>
      <trkpt lat="40.67125" lon="0.61665">
        <ele>11.8</ele>
        <time>2022-05-24 20:33:33</time>
      </trkpt>
      <trkpt lat="40.6712" lon="0.61666">
        <ele>11.8</ele>
        <time>2022-05-24 20:33:34</time>
      </trkpt>
      <trkpt lat="40.67116" lon="0.61668">
        <ele>11.8</ele>
        <time>2022-05-24 20:33:35</time>
      </trkpt>
      <trkpt lat="40.67112" lon="0.61669">
        <ele>11.8</ele>
        <time>2022-05-24 20:33:36</time>
      </trkpt>
      <trkpt lat="40.67107" lon="0.61671">
        <ele>11.8</ele>
        <time>2022-05-24 20:33:37</time>
      </trkpt>
      <trkpt lat="40.67102" lon="0.61672">
        <ele>11.8</ele>
        <time>2022-05-24 20:33:38</time>
      </trkpt>
      <trkpt lat="40.67099" lon="0.61674">
        <ele>12</ele>
        <time>2022-05-24 20:33:39</time>
      </trkpt>
      <trkpt lat="40.67094" lon="0.61675">
        <ele>12</ele>
        <time>2022-05-24 20:33:40</time>
      </trkpt>
      <trkpt lat="40.67089" lon="0.61676">
        <ele>11.8</ele>
        <time>2022-05-24 20:33:41</time>
      </trkpt>
      <trkpt lat="40.67085" lon="0.61677">
        <ele>12</ele>
        <time>2022-05-24 20:33:42</time>
      </trkpt>
      <trkpt lat="40.6708" lon="0.61679">
        <ele>12</ele>
        <time>2022-05-24 20:33:43</time>
      </trkpt>
      <trkpt lat="40.67075" lon="0.61681">
        <ele>12</ele>
        <time>2022-05-24 20:33:44</time>
      </trkpt>
      <trkpt lat="40.67071" lon="0.61683">
        <ele>12</ele>
        <time>2022-05-24 20:33:45</time>
      </trkpt>
      <trkpt lat="40.67067" lon="0.61685">
        <ele>12</ele>
        <time>2022-05-24 20:33:46</time>
      </trkpt>
      <trkpt lat="40.67062" lon="0.61686">
        <ele>12</ele>
        <time>2022-05-24 20:33:47</time>
      </trkpt>
      <trkpt lat="40.67058" lon="0.61688">
        <ele>12</ele>
        <time>2022-05-24 20:33:48</time>
      </trkpt>
      <trkpt lat="40.67054" lon="0.6169">
        <ele>12</ele>
        <time>2022-05-24 20:33:49</time>
      </trkpt>
      <trkpt lat="40.67049" lon="0.61691">
        <ele>12.2</ele>
        <time>2022-05-24 20:33:50</time>
      </trkpt>
      <trkpt lat="40.67044" lon="0.61692">
        <ele>12.2</ele>
        <time>2022-05-24 20:33:51</time>
      </trkpt>
      <trkpt lat="40.67041" lon="0.61694">
        <ele>12</ele>
        <time>2022-05-24 20:33:52</time>
      </trkpt>
      <trkpt lat="40.67037" lon="0.61695">
        <ele>12</ele>
        <time>2022-05-24 20:33:53</time>
      </trkpt>
      <trkpt lat="40.67032" lon="0.61697">
        <ele>12</ele>
        <time>2022-05-24 20:33:54</time>
      </trkpt>
      <trkpt lat="40.67028" lon="0.61698">
        <ele>12</ele>
        <time>2022-05-24 20:33:55</time>
      </trkpt>
      <trkpt lat="40.67025" lon="0.61699">
        <ele>12</ele>
        <time>2022-05-24 20:33:56</time>
      </trkpt>
      <trkpt lat="40.67022" lon="0.617">
        <ele>12</ele>
        <time>2022-05-24 20:33:57</time>
      </trkpt>
      <trkpt lat="40.67017" lon="0.61702">
        <ele>12.2</ele>
        <time>2022-05-24 20:33:58</time>
      </trkpt>
      <trkpt lat="40.67014" lon="0.61703">
        <ele>12.2</ele>
        <time>2022-05-24 20:33:59</time>
      </trkpt>
      <trkpt lat="40.67009" lon="0.61705">
        <ele>12.2</ele>
        <time>2022-05-24 20:34:00</time>
      </trkpt>
      <trkpt lat="40.67006" lon="0.61706">
        <ele>12.2</ele>
        <time>2022-05-24 20:34:01</time>
      </trkpt>
      <trkpt lat="40.67002" lon="0.61708">
        <ele>12.2</ele>
        <time>2022-05-24 20:34:02</time>
      </trkpt>
      <trkpt lat="40.66998" lon="0.6171">
        <ele>12.2</ele>
        <time>2022-05-24 20:34:03</time>
      </trkpt>
      <trkpt lat="40.66993" lon="0.61711">
        <ele>12.2</ele>
        <time>2022-05-24 20:34:04</time>
      </trkpt>
      <trkpt lat="40.66989" lon="0.61712">
        <ele>12.2</ele>
        <time>2022-05-24 20:34:05</time>
      </trkpt>
      <trkpt lat="40.66984" lon="0.61714">
        <ele>12.2</ele>
        <time>2022-05-24 20:34:06</time>
      </trkpt>
      <trkpt lat="40.66979" lon="0.61715">
        <ele>12.2</ele>
        <time>2022-05-24 20:34:07</time>
      </trkpt>
      <trkpt lat="40.66975" lon="0.61716">
        <ele>12.2</ele>
        <time>2022-05-24 20:34:08</time>
      </trkpt>
      <trkpt lat="40.6697" lon="0.61718">
        <ele>12.2</ele>
        <time>2022-05-24 20:34:09</time>
      </trkpt>
      <trkpt lat="40.66966" lon="0.61719">
        <ele>12.2</ele>
        <time>2022-05-24 20:34:10</time>
      </trkpt>
      <trkpt lat="40.66961" lon="0.61721">
        <ele>12.2</ele>
        <time>2022-05-24 20:34:11</time>
      </trkpt>
      <trkpt lat="40.66957" lon="0.61722">
        <ele>12.2</ele>
        <time>2022-05-24 20:34:12</time>
      </trkpt>
      <trkpt lat="40.66953" lon="0.61724">
        <ele>12.2</ele>
        <time>2022-05-24 20:34:13</time>
      </trkpt>
      <trkpt lat="40.66949" lon="0.61725">
        <ele>12.2</ele>
        <time>2022-05-24 20:34:14</time>
      </trkpt>
      <trkpt lat="40.66945" lon="0.61726">
        <ele>12.2</ele>
        <time>2022-05-24 20:34:15</time>
      </trkpt>
      <trkpt lat="40.66941" lon="0.61728">
        <ele>12.2</ele>
        <time>2022-05-24 20:34:16</time>
      </trkpt>
      <trkpt lat="40.66936" lon="0.61729">
        <ele>12.2</ele>
        <time>2022-05-24 20:34:17</time>
      </trkpt>
      <trkpt lat="40.66932" lon="0.61731">
        <ele>12.2</ele>
        <time>2022-05-24 20:34:18</time>
      </trkpt>
      <trkpt lat="40.66928" lon="0.61733">
        <ele>12.2</ele>
        <time>2022-05-24 20:34:19</time>
      </trkpt>
      <trkpt lat="40.66924" lon="0.61734">
        <ele>12.2</ele>
        <time>2022-05-24 20:34:20</time>
      </trkpt>
      <trkpt lat="40.66919" lon="0.61736">
        <ele>12.4</ele>
        <time>2022-05-24 20:34:21</time>
      </trkpt>
      <trkpt lat="40.66914" lon="0.61737">
        <ele>12.4</ele>
        <time>2022-05-24 20:34:22</time>
      </trkpt>
      <trkpt lat="40.66909" lon="0.61739">
        <ele>12.4</ele>
        <time>2022-05-24 20:34:23</time>
      </trkpt>
      <trkpt lat="40.66904" lon="0.6174">
        <ele>12.4</ele>
        <time>2022-05-24 20:34:24</time>
      </trkpt>
      <trkpt lat="40.669" lon="0.61742">
        <ele>12.4</ele>
        <time>2022-05-24 20:34:25</time>
      </trkpt>
      <trkpt lat="40.66895" lon="0.61743">
        <ele>12.2</ele>
        <time>2022-05-24 20:34:26</time>
      </trkpt>
      <trkpt lat="40.6689" lon="0.61745">
        <ele>12.2</ele>
        <time>2022-05-24 20:34:27</time>
      </trkpt>
      <trkpt lat="40.66886" lon="0.61747">
        <ele>12.2</ele>
        <time>2022-05-24 20:34:28</time>
      </trkpt>
      <trkpt lat="40.66881" lon="0.61749">
        <ele>12.2</ele>
        <time>2022-05-24 20:34:29</time>
      </trkpt>
      <trkpt lat="40.66877" lon="0.61751">
        <ele>12.4</ele>
        <time>2022-05-24 20:34:30</time>
      </trkpt>
      <trkpt lat="40.66872" lon="0.61752">
        <ele>12.4</ele>
        <time>2022-05-24 20:34:31</time>
      </trkpt>
      <trkpt lat="40.66867" lon="0.61753">
        <ele>12.4</ele>
        <time>2022-05-24 20:34:32</time>
      </trkpt>
      <trkpt lat="40.66862" lon="0.61755">
        <ele>12.4</ele>
        <time>2022-05-24 20:34:33</time>
      </trkpt>
      <trkpt lat="40.66858" lon="0.61757">
        <ele>12.4</ele>
        <time>2022-05-24 20:34:34</time>
      </trkpt>
      <trkpt lat="40.66853" lon="0.61759">
        <ele>12.4</ele>
        <time>2022-05-24 20:34:35</time>
      </trkpt>
      <trkpt lat="40.66847" lon="0.61761">
        <ele>12.4</ele>
        <time>2022-05-24 20:34:36</time>
      </trkpt>
      <trkpt lat="40.66843" lon="0.61763">
        <ele>12.4</ele>
        <time>2022-05-24 20:34:37</time>
      </trkpt>
      <trkpt lat="40.66837" lon="0.61765">
        <ele>12.4</ele>
        <time>2022-05-24 20:34:38</time>
      </trkpt>
      <trkpt lat="40.66832" lon="0.61767">
        <ele>12.4</ele>
        <time>2022-05-24 20:34:39</time>
      </trkpt>
      <trkpt lat="40.66827" lon="0.61768">
        <ele>12.2</ele>
        <time>2022-05-24 20:34:40</time>
      </trkpt>
      <trkpt lat="40.66821" lon="0.6177">
        <ele>12.4</ele>
        <time>2022-05-24 20:34:41</time>
      </trkpt>
      <trkpt lat="40.66816" lon="0.61772">
        <ele>12.2</ele>
        <time>2022-05-24 20:34:42</time>
      </trkpt>
      <trkpt lat="40.6681" lon="0.61774">
        <ele>12.2</ele>
        <time>2022-05-24 20:34:43</time>
      </trkpt>
      <trkpt lat="40.66804" lon="0.61776">
        <ele>12.4</ele>
        <time>2022-05-24 20:34:44</time>
      </trkpt>
      <trkpt lat="40.66798" lon="0.61778">
        <ele>12.4</ele>
        <time>2022-05-24 20:34:45</time>
      </trkpt>
      <trkpt lat="40.66793" lon="0.6178">
        <ele>12.4</ele>
        <time>2022-05-24 20:34:46</time>
      </trkpt>
      <trkpt lat="40.66788" lon="0.61782">
        <ele>12.4</ele>
        <time>2022-05-24 20:34:47</time>
      </trkpt>
      <trkpt lat="40.66782" lon="0.61784">
        <ele>12.4</ele>
        <time>2022-05-24 20:34:48</time>
      </trkpt>
      <trkpt lat="40.66777" lon="0.61785">
        <ele>12.4</ele>
        <time>2022-05-24 20:34:49</time>
      </trkpt>
      <trkpt lat="40.66772" lon="0.61787">
        <ele>12.4</ele>
        <time>2022-05-24 20:34:50</time>
      </trkpt>
      <trkpt lat="40.66766" lon="0.61789">
        <ele>12.4</ele>
        <time>2022-05-24 20:34:51</time>
      </trkpt>
      <trkpt lat="40.6676" lon="0.61791">
        <ele>12.4</ele>
        <time>2022-05-24 20:34:52</time>
      </trkpt>
      <trkpt lat="40.66755" lon="0.61793">
        <ele>12.2</ele>
        <time>2022-05-24 20:34:53</time>
      </trkpt>
      <trkpt lat="40.66749" lon="0.61795">
        <ele>12.2</ele>
        <time>2022-05-24 20:34:54</time>
      </trkpt>
      <trkpt lat="40.66744" lon="0.61797">
        <ele>12.4</ele>
        <time>2022-05-24 20:34:55</time>
      </trkpt>
      <trkpt lat="40.66739" lon="0.61799">
        <ele>12.4</ele>
        <time>2022-05-24 20:34:56</time>
      </trkpt>
      <trkpt lat="40.66734" lon="0.61801">
        <ele>12.4</ele>
        <time>2022-05-24 20:34:57</time>
      </trkpt>
      <trkpt lat="40.66729" lon="0.61802">
        <ele>12.4</ele>
        <time>2022-05-24 20:34:58</time>
      </trkpt>
      <trkpt lat="40.66723" lon="0.61804">
        <ele>12.2</ele>
        <time>2022-05-24 20:34:59</time>
      </trkpt>
      <trkpt lat="40.66719" lon="0.61806">
        <ele>12.2</ele>
        <time>2022-05-24 20:35:00</time>
      </trkpt>
      <trkpt lat="40.66714" lon="0.61808">
        <ele>12.2</ele>
        <time>2022-05-24 20:35:01</time>
      </trkpt>
      <trkpt lat="40.66709" lon="0.61809">
        <ele>12.2</ele>
        <time>2022-05-24 20:35:02</time>
      </trkpt>
      <trkpt lat="40.66704" lon="0.61811">
        <ele>12.2</ele>
        <time>2022-05-24 20:35:03</time>
      </trkpt>
      <trkpt lat="40.66699" lon="0.61813">
        <ele>12.2</ele>
        <time>2022-05-24 20:35:04</time>
      </trkpt>
      <trkpt lat="40.66694" lon="0.61814">
        <ele>12.2</ele>
        <time>2022-05-24 20:35:05</time>
      </trkpt>
      <trkpt lat="40.66689" lon="0.61816">
        <ele>12.4</ele>
        <time>2022-05-24 20:35:06</time>
      </trkpt>
      <trkpt lat="40.66685" lon="0.61818">
        <ele>12.4</ele>
        <time>2022-05-24 20:35:07</time>
      </trkpt>
      <trkpt lat="40.66679" lon="0.6182">
        <ele>12.4</ele>
        <time>2022-05-24 20:35:08</time>
      </trkpt>
      <trkpt lat="40.66675" lon="0.61821">
        <ele>12.4</ele>
        <time>2022-05-24 20:35:09</time>
      </trkpt>
      <trkpt lat="40.6667" lon="0.61823">
        <ele>12.4</ele>
        <time>2022-05-24 20:35:10</time>
      </trkpt>
      <trkpt lat="40.66666" lon="0.61824">
        <ele>12.4</ele>
        <time>2022-05-24 20:35:11</time>
      </trkpt>
      <trkpt lat="40.66661" lon="0.61826">
        <ele>12.4</ele>
        <time>2022-05-24 20:35:12</time>
      </trkpt>
      <trkpt lat="40.66657" lon="0.61827">
        <ele>12.4</ele>
        <time>2022-05-24 20:35:13</time>
      </trkpt>
      <trkpt lat="40.66653" lon="0.61829">
        <ele>12.4</ele>
        <time>2022-05-24 20:35:14</time>
      </trkpt>
      <trkpt lat="40.66648" lon="0.6183">
        <ele>12.4</ele>
        <time>2022-05-24 20:35:15</time>
      </trkpt>
      <trkpt lat="40.66645" lon="0.61832">
        <ele>12.4</ele>
        <time>2022-05-24 20:35:16</time>
      </trkpt>
      <trkpt lat="40.6664" lon="0.61834">
        <ele>12.4</ele>
        <time>2022-05-24 20:35:17</time>
      </trkpt>
      <trkpt lat="40.66635" lon="0.61835">
        <ele>12.4</ele>
        <time>2022-05-24 20:35:18</time>
      </trkpt>
      <trkpt lat="40.66631" lon="0.61836">
        <ele>12.4</ele>
        <time>2022-05-24 20:35:19</time>
      </trkpt>
      <trkpt lat="40.66626" lon="0.61838">
        <ele>12.6</ele>
        <time>2022-05-24 20:35:20</time>
      </trkpt>
      <trkpt lat="40.66623" lon="0.61839">
        <ele>12.6</ele>
        <time>2022-05-24 20:35:21</time>
      </trkpt>
      <trkpt lat="40.66619" lon="0.61841">
        <ele>12.6</ele>
        <time>2022-05-24 20:35:22</time>
      </trkpt>
      <trkpt lat="40.66615" lon="0.61842">
        <ele>12.6</ele>
        <time>2022-05-24 20:35:23</time>
      </trkpt>
      <trkpt lat="40.66611" lon="0.61843">
        <ele>12.6</ele>
        <time>2022-05-24 20:35:24</time>
      </trkpt>
      <trkpt lat="40.66607" lon="0.61844">
        <ele>12.6</ele>
        <time>2022-05-24 20:35:25</time>
      </trkpt>
      <trkpt lat="40.66602" lon="0.61846">
        <ele>12.6</ele>
        <time>2022-05-24 20:35:26</time>
      </trkpt>
      <trkpt lat="40.66598" lon="0.61847">
        <ele>12.6</ele>
        <time>2022-05-24 20:35:27</time>
      </trkpt>
      <trkpt lat="40.66594" lon="0.61849">
        <ele>12.6</ele>
        <time>2022-05-24 20:35:28</time>
      </trkpt>
      <trkpt lat="40.66589" lon="0.6185">
        <ele>12.6</ele>
        <time>2022-05-24 20:35:29</time>
      </trkpt>
      <trkpt lat="40.66585" lon="0.61852">
        <ele>12.6</ele>
        <time>2022-05-24 20:35:30</time>
      </trkpt>
      <trkpt lat="40.6658" lon="0.61854">
        <ele>12.6</ele>
        <time>2022-05-24 20:35:31</time>
      </trkpt>
      <trkpt lat="40.66576" lon="0.61855">
        <ele>12.8</ele>
        <time>2022-05-24 20:35:32</time>
      </trkpt>
      <trkpt lat="40.66572" lon="0.61856">
        <ele>12.8</ele>
        <time>2022-05-24 20:35:33</time>
      </trkpt>
      <trkpt lat="40.66568" lon="0.61857">
        <ele>12.8</ele>
        <time>2022-05-24 20:35:34</time>
      </trkpt>
      <trkpt lat="40.66564" lon="0.61859">
        <ele>13</ele>
        <time>2022-05-24 20:35:35</time>
      </trkpt>
      <trkpt lat="40.6656" lon="0.6186">
        <ele>13</ele>
        <time>2022-05-24 20:35:36</time>
      </trkpt>
      <trkpt lat="40.66557" lon="0.6186">
        <ele>13.2</ele>
        <time>2022-05-24 20:35:37</time>
      </trkpt>
      <trkpt lat="40.66553" lon="0.6186">
        <ele>13.4</ele>
        <time>2022-05-24 20:35:38</time>
      </trkpt>
      <trkpt lat="40.66549" lon="0.6186">
        <ele>13.4</ele>
        <time>2022-05-24 20:35:39</time>
      </trkpt>
      <trkpt lat="40.66546" lon="0.61859">
        <ele>13.6</ele>
        <time>2022-05-24 20:35:40</time>
      </trkpt>
      <trkpt lat="40.66542" lon="0.61858">
        <ele>13.6</ele>
        <time>2022-05-24 20:35:41</time>
      </trkpt>
      <trkpt lat="40.66539" lon="0.61858">
        <ele>13.8</ele>
        <time>2022-05-24 20:35:42</time>
      </trkpt>
      <trkpt lat="40.66534" lon="0.61858">
        <ele>13.8</ele>
        <time>2022-05-24 20:35:43</time>
      </trkpt>
      <trkpt lat="40.6653" lon="0.6186">
        <ele>13.6</ele>
        <time>2022-05-24 20:35:44</time>
      </trkpt>
      <trkpt lat="40.66526" lon="0.61862">
        <ele>13.6</ele>
        <time>2022-05-24 20:35:45</time>
      </trkpt>
      <trkpt lat="40.66523" lon="0.61865">
        <ele>13.4</ele>
        <time>2022-05-24 20:35:46</time>
      </trkpt>
      <trkpt lat="40.66519" lon="0.61869">
        <ele>13.4</ele>
        <time>2022-05-24 20:35:47</time>
      </trkpt>
      <trkpt lat="40.66516" lon="0.61873">
        <ele>13.4</ele>
        <time>2022-05-24 20:35:48</time>
      </trkpt>
      <trkpt lat="40.66513" lon="0.61878">
        <ele>13.6</ele>
        <time>2022-05-24 20:35:49</time>
      </trkpt>
      <trkpt lat="40.66512" lon="0.61882">
        <ele>13.8</ele>
        <time>2022-05-24 20:35:50</time>
      </trkpt>
      <trkpt lat="40.6651" lon="0.61886">
        <ele>13.8</ele>
        <time>2022-05-24 20:35:51</time>
      </trkpt>
      <trkpt lat="40.66507" lon="0.61891">
        <ele>13.8</ele>
        <time>2022-05-24 20:35:52</time>
      </trkpt>
      <trkpt lat="40.66505" lon="0.61895">
        <ele>13.8</ele>
        <time>2022-05-24 20:35:53</time>
      </trkpt>
      <trkpt lat="40.66504" lon="0.61899">
        <ele>13.8</ele>
        <time>2022-05-24 20:35:54</time>
      </trkpt>
      <trkpt lat="40.665" lon="0.61903">
        <ele>13.6</ele>
        <time>2022-05-24 20:35:55</time>
      </trkpt>
      <trkpt lat="40.66496" lon="0.61904">
        <ele>13.4</ele>
        <time>2022-05-24 20:35:56</time>
      </trkpt>
      <trkpt lat="40.66491" lon="0.61905">
        <ele>13.2</ele>
        <time>2022-05-24 20:35:57</time>
      </trkpt>
      <trkpt lat="40.66486" lon="0.61905">
        <ele>12.8</ele>
        <time>2022-05-24 20:35:58</time>
      </trkpt>
      <trkpt lat="40.6648" lon="0.61906">
        <ele>12.6</ele>
        <time>2022-05-24 20:35:59</time>
      </trkpt>
      <trkpt lat="40.66475" lon="0.61906">
        <ele>12.4</ele>
        <time>2022-05-24 20:36:00</time>
      </trkpt>
      <trkpt lat="40.66471" lon="0.61908">
        <ele>12.4</ele>
        <time>2022-05-24 20:36:01</time>
      </trkpt>
      <trkpt lat="40.66467" lon="0.61909">
        <ele>12.2</ele>
        <time>2022-05-24 20:36:02</time>
      </trkpt>
      <trkpt lat="40.66462" lon="0.6191">
        <ele>12.2</ele>
        <time>2022-05-24 20:36:03</time>
      </trkpt>
      <trkpt lat="40.66459" lon="0.61912">
        <ele>12.2</ele>
        <time>2022-05-24 20:36:04</time>
      </trkpt>
      <trkpt lat="40.66455" lon="0.61913">
        <ele>12.2</ele>
        <time>2022-05-24 20:36:05</time>
      </trkpt>
      <trkpt lat="40.66451" lon="0.61914">
        <ele>12.2</ele>
        <time>2022-05-24 20:36:06</time>
      </trkpt>
      <trkpt lat="40.66447" lon="0.61915">
        <ele>12.4</ele>
        <time>2022-05-24 20:36:07</time>
      </trkpt>
      <trkpt lat="40.66442" lon="0.61916">
        <ele>12.4</ele>
        <time>2022-05-24 20:36:08</time>
      </trkpt>
      <trkpt lat="40.66439" lon="0.61918">
        <ele>12.4</ele>
        <time>2022-05-24 20:36:09</time>
      </trkpt>
      <trkpt lat="40.66435" lon="0.61919">
        <ele>12.6</ele>
        <time>2022-05-24 20:36:10</time>
      </trkpt>
      <trkpt lat="40.66432" lon="0.61921">
        <ele>12.6</ele>
        <time>2022-05-24 20:36:11</time>
      </trkpt>
      <trkpt lat="40.66427" lon="0.61922">
        <ele>12.6</ele>
        <time>2022-05-24 20:36:12</time>
      </trkpt>
      <trkpt lat="40.66423" lon="0.61924">
        <ele>12.6</ele>
        <time>2022-05-24 20:36:13</time>
      </trkpt>
      <trkpt lat="40.66418" lon="0.61925">
        <ele>12.6</ele>
        <time>2022-05-24 20:36:14</time>
      </trkpt>
      <trkpt lat="40.66415" lon="0.61926">
        <ele>12.6</ele>
        <time>2022-05-24 20:36:15</time>
      </trkpt>
      <trkpt lat="40.66411" lon="0.61927">
        <ele>12.6</ele>
        <time>2022-05-24 20:36:16</time>
      </trkpt>
      <trkpt lat="40.66408" lon="0.61928">
        <ele>12.6</ele>
        <time>2022-05-24 20:36:17</time>
      </trkpt>
      <trkpt lat="40.66404" lon="0.6193">
        <ele>12.6</ele>
        <time>2022-05-24 20:36:18</time>
      </trkpt>
      <trkpt lat="40.664" lon="0.61931">
        <ele>12.6</ele>
        <time>2022-05-24 20:36:19</time>
      </trkpt>
      <trkpt lat="40.66396" lon="0.61932">
        <ele>12.6</ele>
        <time>2022-05-24 20:36:20</time>
      </trkpt>
      <trkpt lat="40.66392" lon="0.61934">
        <ele>12.6</ele>
        <time>2022-05-24 20:36:21</time>
      </trkpt>
      <trkpt lat="40.66388" lon="0.61935">
        <ele>12.6</ele>
        <time>2022-05-24 20:36:22</time>
      </trkpt>
      <trkpt lat="40.66384" lon="0.61936">
        <ele>12.6</ele>
        <time>2022-05-24 20:36:23</time>
      </trkpt>
      <trkpt lat="40.66381" lon="0.61938">
        <ele>12.6</ele>
        <time>2022-05-24 20:36:24</time>
      </trkpt>
      <trkpt lat="40.66377" lon="0.61939">
        <ele>12.6</ele>
        <time>2022-05-24 20:36:25</time>
      </trkpt>
      <trkpt lat="40.66373" lon="0.6194">
        <ele>12.6</ele>
        <time>2022-05-24 20:36:26</time>
      </trkpt>
      <trkpt lat="40.6637" lon="0.61942">
        <ele>12.6</ele>
        <time>2022-05-24 20:36:27</time>
      </trkpt>
      <trkpt lat="40.66366" lon="0.61943">
        <ele>12.6</ele>
        <time>2022-05-24 20:36:28</time>
      </trkpt>
      <trkpt lat="40.66362" lon="0.61944">
        <ele>12.6</ele>
        <time>2022-05-24 20:36:29</time>
      </trkpt>
      <trkpt lat="40.66359" lon="0.61945">
        <ele>12.6</ele>
        <time>2022-05-24 20:36:30</time>
      </trkpt>
      <trkpt lat="40.66355" lon="0.61947">
        <ele>12.6</ele>
        <time>2022-05-24 20:36:31</time>
      </trkpt>
      <trkpt lat="40.66352" lon="0.61948">
        <ele>12.6</ele>
        <time>2022-05-24 20:36:32</time>
      </trkpt>
      <trkpt lat="40.66348" lon="0.61949">
        <ele>12.6</ele>
        <time>2022-05-24 20:36:33</time>
      </trkpt>
      <trkpt lat="40.66344" lon="0.61951">
        <ele>12.6</ele>
        <time>2022-05-24 20:36:34</time>
      </trkpt>
      <trkpt lat="40.66341" lon="0.61952">
        <ele>12.6</ele>
        <time>2022-05-24 20:36:35</time>
      </trkpt>
      <trkpt lat="40.66338" lon="0.61954">
        <ele>12.6</ele>
        <time>2022-05-24 20:36:36</time>
      </trkpt>
      <trkpt lat="40.66335" lon="0.61955">
        <ele>12.6</ele>
        <time>2022-05-24 20:36:37</time>
      </trkpt>
      <trkpt lat="40.6633" lon="0.61956">
        <ele>12.6</ele>
        <time>2022-05-24 20:36:38</time>
      </trkpt>
      <trkpt lat="40.66327" lon="0.61957">
        <ele>12.6</ele>
        <time>2022-05-24 20:36:39</time>
      </trkpt>
      <trkpt lat="40.66323" lon="0.61959">
        <ele>12.6</ele>
        <time>2022-05-24 20:36:40</time>
      </trkpt>
      <trkpt lat="40.6632" lon="0.6196">
        <ele>12.6</ele>
        <time>2022-05-24 20:36:41</time>
      </trkpt>
      <trkpt lat="40.66316" lon="0.61962">
        <ele>12.6</ele>
        <time>2022-05-24 20:36:42</time>
      </trkpt>
      <trkpt lat="40.66312" lon="0.61963">
        <ele>12.6</ele>
        <time>2022-05-24 20:36:43</time>
      </trkpt>
      <trkpt lat="40.66309" lon="0.61964">
        <ele>12.6</ele>
        <time>2022-05-24 20:36:44</time>
      </trkpt>
      <trkpt lat="40.66306" lon="0.61966">
        <ele>12.6</ele>
        <time>2022-05-24 20:36:45</time>
      </trkpt>
      <trkpt lat="40.66304" lon="0.61967">
        <ele>12.6</ele>
        <time>2022-05-24 20:36:46</time>
      </trkpt>
      <trkpt lat="40.66301" lon="0.61968">
        <ele>12.6</ele>
        <time>2022-05-24 20:36:47</time>
      </trkpt>
      <trkpt lat="40.66298" lon="0.61969">
        <ele>12.6</ele>
        <time>2022-05-24 20:36:48</time>
      </trkpt>
      <trkpt lat="40.66294" lon="0.6197">
        <ele>12.6</ele>
        <time>2022-05-24 20:36:49</time>
      </trkpt>
      <trkpt lat="40.66291" lon="0.61971">
        <ele>12.6</ele>
        <time>2022-05-24 20:36:50</time>
      </trkpt>
      <trkpt lat="40.66288" lon="0.61972">
        <ele>12.6</ele>
        <time>2022-05-24 20:36:51</time>
      </trkpt>
      <trkpt lat="40.66285" lon="0.61973">
        <ele>12.8</ele>
        <time>2022-05-24 20:36:52</time>
      </trkpt>
      <trkpt lat="40.66281" lon="0.61974">
        <ele>12.8</ele>
        <time>2022-05-24 20:36:53</time>
      </trkpt>
      <trkpt lat="40.66277" lon="0.61975">
        <ele>12.6</ele>
        <time>2022-05-24 20:36:54</time>
      </trkpt>
      <trkpt lat="40.66274" lon="0.61976">
        <ele>12.6</ele>
        <time>2022-05-24 20:36:55</time>
      </trkpt>
      <trkpt lat="40.6627" lon="0.61978">
        <ele>12.6</ele>
        <time>2022-05-24 20:36:56</time>
      </trkpt>
      <trkpt lat="40.66267" lon="0.61979">
        <ele>12.6</ele>
        <time>2022-05-24 20:36:57</time>
      </trkpt>
      <trkpt lat="40.66264" lon="0.6198">
        <ele>12.6</ele>
        <time>2022-05-24 20:36:58</time>
      </trkpt>
      <trkpt lat="40.66261" lon="0.61982">
        <ele>12.6</ele>
        <time>2022-05-24 20:36:59</time>
      </trkpt>
      <trkpt lat="40.66257" lon="0.61983">
        <ele>12.6</ele>
        <time>2022-05-24 20:37:00</time>
      </trkpt>
      <trkpt lat="40.66254" lon="0.61984">
        <ele>12.6</ele>
        <time>2022-05-24 20:37:01</time>
      </trkpt>
      <trkpt lat="40.66251" lon="0.61986">
        <ele>12.6</ele>
        <time>2022-05-24 20:37:02</time>
      </trkpt>
      <trkpt lat="40.66248" lon="0.61987">
        <ele>12.6</ele>
        <time>2022-05-24 20:37:03</time>
      </trkpt>
      <trkpt lat="40.66244" lon="0.61988">
        <ele>12.8</ele>
        <time>2022-05-24 20:37:04</time>
      </trkpt>
      <trkpt lat="40.66241" lon="0.61989">
        <ele>12.8</ele>
        <time>2022-05-24 20:37:05</time>
      </trkpt>
      <trkpt lat="40.66238" lon="0.61991">
        <ele>12.8</ele>
        <time>2022-05-24 20:37:06</time>
      </trkpt>
      <trkpt lat="40.66234" lon="0.61992">
        <ele>12.8</ele>
        <time>2022-05-24 20:37:07</time>
      </trkpt>
      <trkpt lat="40.66231" lon="0.61993">
        <ele>13</ele>
        <time>2022-05-24 20:37:08</time>
      </trkpt>
      <trkpt lat="40.66228" lon="0.61993">
        <ele>13</ele>
        <time>2022-05-24 20:37:09</time>
      </trkpt>
      <trkpt lat="40.66226" lon="0.61994">
        <ele>13.2</ele>
        <time>2022-05-24 20:37:10</time>
      </trkpt>
      <trkpt lat="40.66223" lon="0.61996">
        <ele>13.2</ele>
        <time>2022-05-24 20:37:11</time>
      </trkpt>
      <trkpt lat="40.6622" lon="0.61997">
        <ele>13</ele>
        <time>2022-05-24 20:37:12</time>
      </trkpt>
      <trkpt lat="40.66217" lon="0.61998">
        <ele>13</ele>
        <time>2022-05-24 20:37:13</time>
      </trkpt>
      <trkpt lat="40.66213" lon="0.61999">
        <ele>13</ele>
        <time>2022-05-24 20:37:14</time>
      </trkpt>
      <trkpt lat="40.6621" lon="0.62">
        <ele>12.8</ele>
        <time>2022-05-24 20:37:15</time>
      </trkpt>
      <trkpt lat="40.66206" lon="0.62001">
        <ele>12.8</ele>
        <time>2022-05-24 20:37:16</time>
      </trkpt>
      <trkpt lat="40.66202" lon="0.62003">
        <ele>12.6</ele>
        <time>2022-05-24 20:37:17</time>
      </trkpt>
      <trkpt lat="40.66198" lon="0.62004">
        <ele>12.6</ele>
        <time>2022-05-24 20:37:18</time>
      </trkpt>
      <trkpt lat="40.66195" lon="0.62005">
        <ele>12.6</ele>
        <time>2022-05-24 20:37:19</time>
      </trkpt>
      <trkpt lat="40.66191" lon="0.62007">
        <ele>12.6</ele>
        <time>2022-05-24 20:37:20</time>
      </trkpt>
      <trkpt lat="40.66187" lon="0.62008">
        <ele>12.6</ele>
        <time>2022-05-24 20:37:21</time>
      </trkpt>
      <trkpt lat="40.66183" lon="0.62009">
        <ele>12.6</ele>
        <time>2022-05-24 20:37:22</time>
      </trkpt>
      <trkpt lat="40.6618" lon="0.62011">
        <ele>12.6</ele>
        <time>2022-05-24 20:37:23</time>
      </trkpt>
      <trkpt lat="40.66177" lon="0.62013">
        <ele>12.6</ele>
        <time>2022-05-24 20:37:24</time>
      </trkpt>
      <trkpt lat="40.66173" lon="0.62015">
        <ele>12.6</ele>
        <time>2022-05-24 20:37:25</time>
      </trkpt>
      <trkpt lat="40.6617" lon="0.62016">
        <ele>12.6</ele>
        <time>2022-05-24 20:37:26</time>
      </trkpt>
      <trkpt lat="40.66167" lon="0.62018">
        <ele>12.6</ele>
        <time>2022-05-24 20:37:27</time>
      </trkpt>
      <trkpt lat="40.66162" lon="0.62019">
        <ele>12.6</ele>
        <time>2022-05-24 20:37:28</time>
      </trkpt>
      <trkpt lat="40.66159" lon="0.6202">
        <ele>12.6</ele>
        <time>2022-05-24 20:37:29</time>
      </trkpt>
      <trkpt lat="40.66154" lon="0.62021">
        <ele>12.6</ele>
        <time>2022-05-24 20:37:30</time>
      </trkpt>
      <trkpt lat="40.66151" lon="0.62023">
        <ele>12.6</ele>
        <time>2022-05-24 20:37:31</time>
      </trkpt>
      <trkpt lat="40.66147" lon="0.62024">
        <ele>12.6</ele>
        <time>2022-05-24 20:37:32</time>
      </trkpt>
      <trkpt lat="40.66143" lon="0.62025">
        <ele>12.6</ele>
        <time>2022-05-24 20:37:33</time>
      </trkpt>
      <trkpt lat="40.6614" lon="0.62027">
        <ele>12.6</ele>
        <time>2022-05-24 20:37:34</time>
      </trkpt>
      <trkpt lat="40.66136" lon="0.62028">
        <ele>12.6</ele>
        <time>2022-05-24 20:37:35</time>
      </trkpt>
      <trkpt lat="40.66132" lon="0.6203">
        <ele>12.6</ele>
        <time>2022-05-24 20:37:36</time>
      </trkpt>
      <trkpt lat="40.66129" lon="0.62031">
        <ele>12.6</ele>
        <time>2022-05-24 20:37:37</time>
      </trkpt>
      <trkpt lat="40.66125" lon="0.62032">
        <ele>12.6</ele>
        <time>2022-05-24 20:37:38</time>
      </trkpt>
      <trkpt lat="40.66121" lon="0.62033">
        <ele>12.6</ele>
        <time>2022-05-24 20:37:39</time>
      </trkpt>
      <trkpt lat="40.66117" lon="0.62034">
        <ele>12.6</ele>
        <time>2022-05-24 20:37:40</time>
      </trkpt>
      <trkpt lat="40.66114" lon="0.62036">
        <ele>12.6</ele>
        <time>2022-05-24 20:37:41</time>
      </trkpt>
      <trkpt lat="40.6611" lon="0.62037">
        <ele>12.6</ele>
        <time>2022-05-24 20:37:42</time>
      </trkpt>
      <trkpt lat="40.66107" lon="0.62038">
        <ele>12.6</ele>
        <time>2022-05-24 20:37:43</time>
      </trkpt>
      <trkpt lat="40.66103" lon="0.6204">
        <ele>12.6</ele>
        <time>2022-05-24 20:37:44</time>
      </trkpt>
      <trkpt lat="40.661" lon="0.62041">
        <ele>12.6</ele>
        <time>2022-05-24 20:37:45</time>
      </trkpt>
      <trkpt lat="40.66096" lon="0.62043">
        <ele>12.8</ele>
        <time>2022-05-24 20:37:46</time>
      </trkpt>
      <trkpt lat="40.66092" lon="0.62044">
        <ele>12.8</ele>
        <time>2022-05-24 20:37:47</time>
      </trkpt>
      <trkpt lat="40.66089" lon="0.62045">
        <ele>12.8</ele>
        <time>2022-05-24 20:37:48</time>
      </trkpt>
      <trkpt lat="40.66085" lon="0.62046">
        <ele>12.8</ele>
        <time>2022-05-24 20:37:49</time>
      </trkpt>
      <trkpt lat="40.66082" lon="0.62047">
        <ele>12.8</ele>
        <time>2022-05-24 20:37:50</time>
      </trkpt>
      <trkpt lat="40.66079" lon="0.62048">
        <ele>12.8</ele>
        <time>2022-05-24 20:37:51</time>
      </trkpt>
      <trkpt lat="40.66075" lon="0.62049">
        <ele>12.8</ele>
        <time>2022-05-24 20:37:52</time>
      </trkpt>
      <trkpt lat="40.66072" lon="0.6205">
        <ele>12.8</ele>
        <time>2022-05-24 20:37:53</time>
      </trkpt>
      <trkpt lat="40.66068" lon="0.62052">
        <ele>12.8</ele>
        <time>2022-05-24 20:37:54</time>
      </trkpt>
      <trkpt lat="40.66066" lon="0.62053">
        <ele>12.8</ele>
        <time>2022-05-24 20:37:55</time>
      </trkpt>
      <trkpt lat="40.66062" lon="0.62054">
        <ele>12.8</ele>
        <time>2022-05-24 20:37:56</time>
      </trkpt>
      <trkpt lat="40.66058" lon="0.62055">
        <ele>13</ele>
        <time>2022-05-24 20:37:57</time>
      </trkpt>
      <trkpt lat="40.66055" lon="0.62057">
        <ele>13</ele>
        <time>2022-05-24 20:37:58</time>
      </trkpt>
      <trkpt lat="40.66052" lon="0.62058">
        <ele>13</ele>
        <time>2022-05-24 20:37:59</time>
      </trkpt>
      <trkpt lat="40.66049" lon="0.62059">
        <ele>13</ele>
        <time>2022-05-24 20:38:00</time>
      </trkpt>
      <trkpt lat="40.66045" lon="0.6206">
        <ele>13.2</ele>
        <time>2022-05-24 20:38:01</time>
      </trkpt>
      <trkpt lat="40.66042" lon="0.62061">
        <ele>13.2</ele>
        <time>2022-05-24 20:38:02</time>
      </trkpt>
      <trkpt lat="40.66039" lon="0.62062">
        <ele>13.2</ele>
        <time>2022-05-24 20:38:03</time>
      </trkpt>
      <trkpt lat="40.66035" lon="0.62063">
        <ele>13.2</ele>
        <time>2022-05-24 20:38:04</time>
      </trkpt>
      <trkpt lat="40.66032" lon="0.62064">
        <ele>13.2</ele>
        <time>2022-05-24 20:38:05</time>
      </trkpt>
      <trkpt lat="40.66029" lon="0.62065">
        <ele>13.2</ele>
        <time>2022-05-24 20:38:06</time>
      </trkpt>
      <trkpt lat="40.66025" lon="0.62067">
        <ele>13.2</ele>
        <time>2022-05-24 20:38:07</time>
      </trkpt>
      <trkpt lat="40.66021" lon="0.62068">
        <ele>13.2</ele>
        <time>2022-05-24 20:38:08</time>
      </trkpt>
      <trkpt lat="40.66017" lon="0.62069">
        <ele>13.2</ele>
        <time>2022-05-24 20:38:09</time>
      </trkpt>
      <trkpt lat="40.66013" lon="0.62071">
        <ele>13.2</ele>
        <time>2022-05-24 20:38:10</time>
      </trkpt>
      <trkpt lat="40.6601" lon="0.62072">
        <ele>13.2</ele>
        <time>2022-05-24 20:38:11</time>
      </trkpt>
      <trkpt lat="40.66006" lon="0.62073">
        <ele>13.2</ele>
        <time>2022-05-24 20:38:12</time>
      </trkpt>
      <trkpt lat="40.66002" lon="0.62075">
        <ele>13.2</ele>
        <time>2022-05-24 20:38:13</time>
      </trkpt>
      <trkpt lat="40.65998" lon="0.62076">
        <ele>13</ele>
        <time>2022-05-24 20:38:14</time>
      </trkpt>
      <trkpt lat="40.65994" lon="0.62077">
        <ele>13</ele>
        <time>2022-05-24 20:38:15</time>
      </trkpt>
      <trkpt lat="40.6599" lon="0.62079">
        <ele>13</ele>
        <time>2022-05-24 20:38:16</time>
      </trkpt>
      <trkpt lat="40.65987" lon="0.6208">
        <ele>13</ele>
        <time>2022-05-24 20:38:17</time>
      </trkpt>
      <trkpt lat="40.65982" lon="0.62081">
        <ele>13</ele>
        <time>2022-05-24 20:38:18</time>
      </trkpt>
      <trkpt lat="40.65979" lon="0.62083">
        <ele>13</ele>
        <time>2022-05-24 20:38:19</time>
      </trkpt>
      <trkpt lat="40.65975" lon="0.62084">
        <ele>12.8</ele>
        <time>2022-05-24 20:38:20</time>
      </trkpt>
      <trkpt lat="40.65971" lon="0.62085">
        <ele>12.8</ele>
        <time>2022-05-24 20:38:21</time>
      </trkpt>
      <trkpt lat="40.65968" lon="0.62087">
        <ele>12.8</ele>
        <time>2022-05-24 20:38:22</time>
      </trkpt>
      <trkpt lat="40.65964" lon="0.62088">
        <ele>12.8</ele>
        <time>2022-05-24 20:38:23</time>
      </trkpt>
      <trkpt lat="40.6596" lon="0.62089">
        <ele>12.8</ele>
        <time>2022-05-24 20:38:24</time>
      </trkpt>
      <trkpt lat="40.65957" lon="0.6209">
        <ele>12.8</ele>
        <time>2022-05-24 20:38:25</time>
      </trkpt>
      <trkpt lat="40.65953" lon="0.62092">
        <ele>12.8</ele>
        <time>2022-05-24 20:38:26</time>
      </trkpt>
      <trkpt lat="40.6595" lon="0.62093">
        <ele>12.8</ele>
        <time>2022-05-24 20:38:27</time>
      </trkpt>
      <trkpt lat="40.65945" lon="0.62094">
        <ele>12.8</ele>
        <time>2022-05-24 20:38:28</time>
      </trkpt>
      <trkpt lat="40.65942" lon="0.62095">
        <ele>12.8</ele>
        <time>2022-05-24 20:38:29</time>
      </trkpt>
      <trkpt lat="40.65938" lon="0.62097">
        <ele>12.8</ele>
        <time>2022-05-24 20:38:30</time>
      </trkpt>
      <trkpt lat="40.65935" lon="0.62098">
        <ele>12.8</ele>
        <time>2022-05-24 20:38:31</time>
      </trkpt>
      <trkpt lat="40.65931" lon="0.621">
        <ele>12.8</ele>
        <time>2022-05-24 20:38:32</time>
      </trkpt>
      <trkpt lat="40.65928" lon="0.62101">
        <ele>12.8</ele>
        <time>2022-05-24 20:38:33</time>
      </trkpt>
      <trkpt lat="40.65924" lon="0.62102">
        <ele>12.8</ele>
        <time>2022-05-24 20:38:34</time>
      </trkpt>
      <trkpt lat="40.6592" lon="0.62103">
        <ele>12.8</ele>
        <time>2022-05-24 20:38:35</time>
      </trkpt>
      <trkpt lat="40.65916" lon="0.62104">
        <ele>13</ele>
        <time>2022-05-24 20:38:36</time>
      </trkpt>
      <trkpt lat="40.65913" lon="0.62104">
        <ele>13</ele>
        <time>2022-05-24 20:38:37</time>
      </trkpt>
      <trkpt lat="40.65909" lon="0.62105">
        <ele>13</ele>
        <time>2022-05-24 20:38:38</time>
      </trkpt>
      <trkpt lat="40.65906" lon="0.62106">
        <ele>13</ele>
        <time>2022-05-24 20:38:39</time>
      </trkpt>
      <trkpt lat="40.65902" lon="0.62107">
        <ele>13</ele>
        <time>2022-05-24 20:38:40</time>
      </trkpt>
      <trkpt lat="40.65899" lon="0.62108">
        <ele>13</ele>
        <time>2022-05-24 20:38:41</time>
      </trkpt>
      <trkpt lat="40.65895" lon="0.6211">
        <ele>13</ele>
        <time>2022-05-24 20:38:42</time>
      </trkpt>
      <trkpt lat="40.65891" lon="0.62111">
        <ele>13</ele>
        <time>2022-05-24 20:38:43</time>
      </trkpt>
      <trkpt lat="40.65887" lon="0.62112">
        <ele>13</ele>
        <time>2022-05-24 20:38:44</time>
      </trkpt>
      <trkpt lat="40.65885" lon="0.62113">
        <ele>13</ele>
        <time>2022-05-24 20:38:45</time>
      </trkpt>
      <trkpt lat="40.6588" lon="0.62115">
        <ele>13</ele>
        <time>2022-05-24 20:38:46</time>
      </trkpt>
      <trkpt lat="40.65877" lon="0.62116">
        <ele>13</ele>
        <time>2022-05-24 20:38:47</time>
      </trkpt>
      <trkpt lat="40.65873" lon="0.62118">
        <ele>13</ele>
        <time>2022-05-24 20:38:48</time>
      </trkpt>
      <trkpt lat="40.65869" lon="0.62119">
        <ele>13</ele>
        <time>2022-05-24 20:38:49</time>
      </trkpt>
      <trkpt lat="40.65865" lon="0.6212">
        <ele>13</ele>
        <time>2022-05-24 20:38:50</time>
      </trkpt>
      <trkpt lat="40.65861" lon="0.62122">
        <ele>12.8</ele>
        <time>2022-05-24 20:38:51</time>
      </trkpt>
      <trkpt lat="40.65857" lon="0.62123">
        <ele>12.8</ele>
        <time>2022-05-24 20:38:52</time>
      </trkpt>
      <trkpt lat="40.65853" lon="0.62125">
        <ele>12.8</ele>
        <time>2022-05-24 20:38:53</time>
      </trkpt>
      <trkpt lat="40.65849" lon="0.62127">
        <ele>12.8</ele>
        <time>2022-05-24 20:38:54</time>
      </trkpt>
      <trkpt lat="40.65845" lon="0.62128">
        <ele>12.8</ele>
        <time>2022-05-24 20:38:55</time>
      </trkpt>
      <trkpt lat="40.65842" lon="0.6213">
        <ele>12.8</ele>
        <time>2022-05-24 20:38:56</time>
      </trkpt>
      <trkpt lat="40.65838" lon="0.62131">
        <ele>12.8</ele>
        <time>2022-05-24 20:38:57</time>
      </trkpt>
      <trkpt lat="40.65834" lon="0.62133">
        <ele>12.8</ele>
        <time>2022-05-24 20:38:58</time>
      </trkpt>
      <trkpt lat="40.6583" lon="0.62134">
        <ele>12.6</ele>
        <time>2022-05-24 20:38:59</time>
      </trkpt>
      <trkpt lat="40.65826" lon="0.62136">
        <ele>12.6</ele>
        <time>2022-05-24 20:39:00</time>
      </trkpt>
      <trkpt lat="40.65822" lon="0.62137">
        <ele>12.6</ele>
        <time>2022-05-24 20:39:01</time>
      </trkpt>
      <trkpt lat="40.65818" lon="0.62138">
        <ele>12.6</ele>
        <time>2022-05-24 20:39:02</time>
      </trkpt>
      <trkpt lat="40.65815" lon="0.62139">
        <ele>12.6</ele>
        <time>2022-05-24 20:39:03</time>
      </trkpt>
      <trkpt lat="40.65812" lon="0.62141">
        <ele>12.8</ele>
        <time>2022-05-24 20:39:04</time>
      </trkpt>
      <trkpt lat="40.65808" lon="0.62142">
        <ele>12.8</ele>
        <time>2022-05-24 20:39:05</time>
      </trkpt>
      <trkpt lat="40.65805" lon="0.62143">
        <ele>12.8</ele>
        <time>2022-05-24 20:39:06</time>
      </trkpt>
      <trkpt lat="40.65802" lon="0.62144">
        <ele>12.8</ele>
        <time>2022-05-24 20:39:07</time>
      </trkpt>
      <trkpt lat="40.65799" lon="0.62145">
        <ele>12.8</ele>
        <time>2022-05-24 20:39:08</time>
      </trkpt>
      <trkpt lat="40.65797" lon="0.62145">
        <ele>12.8</ele>
        <time>2022-05-24 20:39:09</time>
      </trkpt>
      <trkpt lat="40.65793" lon="0.62147">
        <ele>12.8</ele>
        <time>2022-05-24 20:39:10</time>
      </trkpt>
      <trkpt lat="40.6579" lon="0.62148">
        <ele>12.8</ele>
        <time>2022-05-24 20:39:11</time>
      </trkpt>
      <trkpt lat="40.65787" lon="0.6215">
        <ele>12.6</ele>
        <time>2022-05-24 20:39:12</time>
      </trkpt>
      <trkpt lat="40.65784" lon="0.62151">
        <ele>12.6</ele>
        <time>2022-05-24 20:39:13</time>
      </trkpt>
      <trkpt lat="40.6578" lon="0.62152">
        <ele>12.6</ele>
        <time>2022-05-24 20:39:14</time>
      </trkpt>
      <trkpt lat="40.65777" lon="0.62153">
        <ele>12.6</ele>
        <time>2022-05-24 20:39:15</time>
      </trkpt>
      <trkpt lat="40.65773" lon="0.62155">
        <ele>12.6</ele>
        <time>2022-05-24 20:39:16</time>
      </trkpt>
      <trkpt lat="40.6577" lon="0.62156">
        <ele>12.6</ele>
        <time>2022-05-24 20:39:17</time>
      </trkpt>
      <trkpt lat="40.65766" lon="0.62157">
        <ele>12.6</ele>
        <time>2022-05-24 20:39:18</time>
      </trkpt>
      <trkpt lat="40.65762" lon="0.62158">
        <ele>12.6</ele>
        <time>2022-05-24 20:39:19</time>
      </trkpt>
      <trkpt lat="40.65759" lon="0.6216">
        <ele>12.6</ele>
        <time>2022-05-24 20:39:20</time>
      </trkpt>
      <trkpt lat="40.65755" lon="0.62161">
        <ele>12.6</ele>
        <time>2022-05-24 20:39:21</time>
      </trkpt>
      <trkpt lat="40.65752" lon="0.62162">
        <ele>12.8</ele>
        <time>2022-05-24 20:39:22</time>
      </trkpt>
      <trkpt lat="40.65748" lon="0.62164">
        <ele>12.8</ele>
        <time>2022-05-24 20:39:23</time>
      </trkpt>
      <trkpt lat="40.65744" lon="0.62165">
        <ele>12.8</ele>
        <time>2022-05-24 20:39:24</time>
      </trkpt>
      <trkpt lat="40.65741" lon="0.62166">
        <ele>12.8</ele>
        <time>2022-05-24 20:39:25</time>
      </trkpt>
      <trkpt lat="40.65737" lon="0.62168">
        <ele>12.8</ele>
        <time>2022-05-24 20:39:26</time>
      </trkpt>
      <trkpt lat="40.65733" lon="0.62169">
        <ele>12.8</ele>
        <time>2022-05-24 20:39:27</time>
      </trkpt>
      <trkpt lat="40.65729" lon="0.6217">
        <ele>12.8</ele>
        <time>2022-05-24 20:39:28</time>
      </trkpt>
      <trkpt lat="40.65725" lon="0.62172">
        <ele>12.8</ele>
        <time>2022-05-24 20:39:29</time>
      </trkpt>
      <trkpt lat="40.65722" lon="0.62173">
        <ele>12.8</ele>
        <time>2022-05-24 20:39:30</time>
      </trkpt>
      <trkpt lat="40.65718" lon="0.62174">
        <ele>12.8</ele>
        <time>2022-05-24 20:39:31</time>
      </trkpt>
      <trkpt lat="40.65715" lon="0.62176">
        <ele>12.8</ele>
        <time>2022-05-24 20:39:32</time>
      </trkpt>
      <trkpt lat="40.65711" lon="0.62177">
        <ele>12.8</ele>
        <time>2022-05-24 20:39:33</time>
      </trkpt>
      <trkpt lat="40.65708" lon="0.62178">
        <ele>12.8</ele>
        <time>2022-05-24 20:39:34</time>
      </trkpt>
      <trkpt lat="40.65705" lon="0.62179">
        <ele>12.8</ele>
        <time>2022-05-24 20:39:35</time>
      </trkpt>
      <trkpt lat="40.65701" lon="0.62181">
        <ele>12.8</ele>
        <time>2022-05-24 20:39:36</time>
      </trkpt>
      <trkpt lat="40.65697" lon="0.62182">
        <ele>12.8</ele>
        <time>2022-05-24 20:39:37</time>
      </trkpt>
      <trkpt lat="40.65693" lon="0.62183">
        <ele>12.8</ele>
        <time>2022-05-24 20:39:38</time>
      </trkpt>
      <trkpt lat="40.65689" lon="0.62184">
        <ele>12.8</ele>
        <time>2022-05-24 20:39:39</time>
      </trkpt>
      <trkpt lat="40.65684" lon="0.62186">
        <ele>12.8</ele>
        <time>2022-05-24 20:39:40</time>
      </trkpt>
      <trkpt lat="40.6568" lon="0.62187">
        <ele>12.8</ele>
        <time>2022-05-24 20:39:41</time>
      </trkpt>
      <trkpt lat="40.65676" lon="0.62188">
        <ele>12.8</ele>
        <time>2022-05-24 20:39:42</time>
      </trkpt>
      <trkpt lat="40.65672" lon="0.62188">
        <ele>12.8</ele>
        <time>2022-05-24 20:39:43</time>
      </trkpt>
      <trkpt lat="40.65669" lon="0.62189">
        <ele>12.8</ele>
        <time>2022-05-24 20:39:44</time>
      </trkpt>
      <trkpt lat="40.65665" lon="0.6219">
        <ele>12.8</ele>
        <time>2022-05-24 20:39:45</time>
      </trkpt>
      <trkpt lat="40.65662" lon="0.62191">
        <ele>12.8</ele>
        <time>2022-05-24 20:39:46</time>
      </trkpt>
      <trkpt lat="40.65659" lon="0.62192">
        <ele>12.8</ele>
        <time>2022-05-24 20:39:47</time>
      </trkpt>
      <trkpt lat="40.65655" lon="0.62194">
        <ele>12.8</ele>
        <time>2022-05-24 20:39:48</time>
      </trkpt>
      <trkpt lat="40.65652" lon="0.62195">
        <ele>12.8</ele>
        <time>2022-05-24 20:39:49</time>
      </trkpt>
      <trkpt lat="40.65649" lon="0.62197">
        <ele>13</ele>
        <time>2022-05-24 20:39:50</time>
      </trkpt>
      <trkpt lat="40.65646" lon="0.62199">
        <ele>13</ele>
        <time>2022-05-24 20:39:51</time>
      </trkpt>
      <trkpt lat="40.65643" lon="0.62201">
        <ele>13.2</ele>
        <time>2022-05-24 20:39:52</time>
      </trkpt>
      <trkpt lat="40.65641" lon="0.62204">
        <ele>13.2</ele>
        <time>2022-05-24 20:39:53</time>
      </trkpt>
      <trkpt lat="40.65638" lon="0.62207">
        <ele>13.2</ele>
        <time>2022-05-24 20:39:54</time>
      </trkpt>
      <trkpt lat="40.65635" lon="0.62211">
        <ele>13.2</ele>
        <time>2022-05-24 20:39:55</time>
      </trkpt>
      <trkpt lat="40.65633" lon="0.62216">
        <ele>13.2</ele>
        <time>2022-05-24 20:39:56</time>
      </trkpt>
      <trkpt lat="40.6563" lon="0.62221">
        <ele>13.2</ele>
        <time>2022-05-24 20:39:57</time>
      </trkpt>
      <trkpt lat="40.65628" lon="0.62225">
        <ele>13.2</ele>
        <time>2022-05-24 20:39:58</time>
      </trkpt>
      <trkpt lat="40.65625" lon="0.6223">
        <ele>13.2</ele>
        <time>2022-05-24 20:39:59</time>
      </trkpt>
      <trkpt lat="40.65623" lon="0.62235">
        <ele>13</ele>
        <time>2022-05-24 20:40:00</time>
      </trkpt>
      <trkpt lat="40.6562" lon="0.6224">
        <ele>13</ele>
        <time>2022-05-24 20:40:01</time>
      </trkpt>
      <trkpt lat="40.65618" lon="0.62245">
        <ele>13.2</ele>
        <time>2022-05-24 20:40:02</time>
      </trkpt>
      <trkpt lat="40.65615" lon="0.6225">
        <ele>13.2</ele>
        <time>2022-05-24 20:40:03</time>
      </trkpt>
      <trkpt lat="40.65614" lon="0.62253">
        <ele>13.2</ele>
        <time>2022-05-24 20:40:04</time>
      </trkpt>
      <trkpt lat="40.6561" lon="0.62259">
        <ele>13.2</ele>
        <time>2022-05-24 20:40:05</time>
      </trkpt>
      <trkpt lat="40.65607" lon="0.62264">
        <ele>13.2</ele>
        <time>2022-05-24 20:40:06</time>
      </trkpt>
      <trkpt lat="40.65605" lon="0.62269">
        <ele>13</ele>
        <time>2022-05-24 20:40:07</time>
      </trkpt>
      <trkpt lat="40.65602" lon="0.62273">
        <ele>13</ele>
        <time>2022-05-24 20:40:08</time>
      </trkpt>
      <trkpt lat="40.656" lon="0.62278">
        <ele>13</ele>
        <time>2022-05-24 20:40:09</time>
      </trkpt>
      <trkpt lat="40.65598" lon="0.62283">
        <ele>13</ele>
        <time>2022-05-24 20:40:10</time>
      </trkpt>
      <trkpt lat="40.65595" lon="0.62288">
        <ele>13</ele>
        <time>2022-05-24 20:40:11</time>
      </trkpt>
      <trkpt lat="40.65593" lon="0.62292">
        <ele>13</ele>
        <time>2022-05-24 20:40:12</time>
      </trkpt>
      <trkpt lat="40.6559" lon="0.62297">
        <ele>13</ele>
        <time>2022-05-24 20:40:13</time>
      </trkpt>
      <trkpt lat="40.65588" lon="0.62302">
        <ele>13</ele>
        <time>2022-05-24 20:40:14</time>
      </trkpt>
      <trkpt lat="40.65585" lon="0.62307">
        <ele>13</ele>
        <time>2022-05-24 20:40:15</time>
      </trkpt>
      <trkpt lat="40.65583" lon="0.62312">
        <ele>13</ele>
        <time>2022-05-24 20:40:16</time>
      </trkpt>
      <trkpt lat="40.6558" lon="0.62317">
        <ele>13</ele>
        <time>2022-05-24 20:40:17</time>
      </trkpt>
      <trkpt lat="40.65578" lon="0.62321">
        <ele>13</ele>
        <time>2022-05-24 20:40:18</time>
      </trkpt>
      <trkpt lat="40.65575" lon="0.62326">
        <ele>13</ele>
        <time>2022-05-24 20:40:19</time>
      </trkpt>
      <trkpt lat="40.65573" lon="0.62331">
        <ele>13</ele>
        <time>2022-05-24 20:40:20</time>
      </trkpt>
      <trkpt lat="40.6557" lon="0.62335">
        <ele>13</ele>
        <time>2022-05-24 20:40:21</time>
      </trkpt>
      <trkpt lat="40.65568" lon="0.6234">
        <ele>13</ele>
        <time>2022-05-24 20:40:22</time>
      </trkpt>
      <trkpt lat="40.65565" lon="0.62345">
        <ele>13</ele>
        <time>2022-05-24 20:40:23</time>
      </trkpt>
      <trkpt lat="40.65562" lon="0.6235">
        <ele>13</ele>
        <time>2022-05-24 20:40:24</time>
      </trkpt>
      <trkpt lat="40.6556" lon="0.62354">
        <ele>13</ele>
        <time>2022-05-24 20:40:25</time>
      </trkpt>
      <trkpt lat="40.65557" lon="0.62359">
        <ele>13</ele>
        <time>2022-05-24 20:40:26</time>
      </trkpt>
      <trkpt lat="40.65555" lon="0.62363">
        <ele>13</ele>
        <time>2022-05-24 20:40:27</time>
      </trkpt>
      <trkpt lat="40.65554" lon="0.62367">
        <ele>13</ele>
        <time>2022-05-24 20:40:28</time>
      </trkpt>
      <trkpt lat="40.65551" lon="0.62372">
        <ele>13</ele>
        <time>2022-05-24 20:40:29</time>
      </trkpt>
      <trkpt lat="40.65548" lon="0.62377">
        <ele>13</ele>
        <time>2022-05-24 20:40:30</time>
      </trkpt>
      <trkpt lat="40.65546" lon="0.62381">
        <ele>13</ele>
        <time>2022-05-24 20:40:31</time>
      </trkpt>
      <trkpt lat="40.65543" lon="0.62386">
        <ele>13</ele>
        <time>2022-05-24 20:40:32</time>
      </trkpt>
      <trkpt lat="40.65541" lon="0.62391">
        <ele>13</ele>
        <time>2022-05-24 20:40:33</time>
      </trkpt>
      <trkpt lat="40.65538" lon="0.62395">
        <ele>13</ele>
        <time>2022-05-24 20:40:34</time>
      </trkpt>
      <trkpt lat="40.65536" lon="0.624">
        <ele>13</ele>
        <time>2022-05-24 20:40:35</time>
      </trkpt>
      <trkpt lat="40.65533" lon="0.62404">
        <ele>13</ele>
        <time>2022-05-24 20:40:36</time>
      </trkpt>
      <trkpt lat="40.65531" lon="0.62409">
        <ele>13</ele>
        <time>2022-05-24 20:40:37</time>
      </trkpt>
      <trkpt lat="40.65529" lon="0.62414">
        <ele>13</ele>
        <time>2022-05-24 20:40:38</time>
      </trkpt>
      <trkpt lat="40.65527" lon="0.62419">
        <ele>13</ele>
        <time>2022-05-24 20:40:39</time>
      </trkpt>
      <trkpt lat="40.65524" lon="0.62423">
        <ele>13</ele>
        <time>2022-05-24 20:40:40</time>
      </trkpt>
      <trkpt lat="40.65522" lon="0.62428">
        <ele>13</ele>
        <time>2022-05-24 20:40:41</time>
      </trkpt>
      <trkpt lat="40.6552" lon="0.62432">
        <ele>13</ele>
        <time>2022-05-24 20:40:42</time>
      </trkpt>
      <trkpt lat="40.65518" lon="0.62437">
        <ele>13</ele>
        <time>2022-05-24 20:40:43</time>
      </trkpt>
      <trkpt lat="40.65516" lon="0.62442">
        <ele>13</ele>
        <time>2022-05-24 20:40:44</time>
      </trkpt>
      <trkpt lat="40.65514" lon="0.62446">
        <ele>13</ele>
        <time>2022-05-24 20:40:45</time>
      </trkpt>
      <trkpt lat="40.65512" lon="0.62449">
        <ele>13</ele>
        <time>2022-05-24 20:40:46</time>
      </trkpt>
      <trkpt lat="40.65509" lon="0.62453">
        <ele>13</ele>
        <time>2022-05-24 20:40:47</time>
      </trkpt>
      <trkpt lat="40.65507" lon="0.62457">
        <ele>13</ele>
        <time>2022-05-24 20:40:48</time>
      </trkpt>
      <trkpt lat="40.65505" lon="0.62461">
        <ele>12.8</ele>
        <time>2022-05-24 20:40:49</time>
      </trkpt>
      <trkpt lat="40.65503" lon="0.62465">
        <ele>12.8</ele>
        <time>2022-05-24 20:40:50</time>
      </trkpt>
      <trkpt lat="40.655" lon="0.6247">
        <ele>12.8</ele>
        <time>2022-05-24 20:40:51</time>
      </trkpt>
      <trkpt lat="40.65498" lon="0.62475">
        <ele>12.8</ele>
        <time>2022-05-24 20:40:52</time>
      </trkpt>
      <trkpt lat="40.65495" lon="0.6248">
        <ele>12.8</ele>
        <time>2022-05-24 20:40:53</time>
      </trkpt>
      <trkpt lat="40.65493" lon="0.62485">
        <ele>12.8</ele>
        <time>2022-05-24 20:40:54</time>
      </trkpt>
      <trkpt lat="40.65491" lon="0.62489">
        <ele>12.8</ele>
        <time>2022-05-24 20:40:55</time>
      </trkpt>
      <trkpt lat="40.65489" lon="0.62492">
        <ele>12.8</ele>
        <time>2022-05-24 20:40:56</time>
      </trkpt>
      <trkpt lat="40.65486" lon="0.62498">
        <ele>12.8</ele>
        <time>2022-05-24 20:40:57</time>
      </trkpt>
      <trkpt lat="40.65484" lon="0.62501">
        <ele>12.8</ele>
        <time>2022-05-24 20:40:58</time>
      </trkpt>
      <trkpt lat="40.65481" lon="0.62506">
        <ele>12.8</ele>
        <time>2022-05-24 20:40:59</time>
      </trkpt>
      <trkpt lat="40.65479" lon="0.62511">
        <ele>12.8</ele>
        <time>2022-05-24 20:41:00</time>
      </trkpt>
      <trkpt lat="40.65477" lon="0.62516">
        <ele>12.8</ele>
        <time>2022-05-24 20:41:01</time>
      </trkpt>
      <trkpt lat="40.65474" lon="0.62521">
        <ele>12.8</ele>
        <time>2022-05-24 20:41:02</time>
      </trkpt>
      <trkpt lat="40.65472" lon="0.62525">
        <ele>12.8</ele>
        <time>2022-05-24 20:41:03</time>
      </trkpt>
      <trkpt lat="40.6547" lon="0.6253">
        <ele>12.8</ele>
        <time>2022-05-24 20:41:04</time>
      </trkpt>
      <trkpt lat="40.65468" lon="0.62534">
        <ele>12.8</ele>
        <time>2022-05-24 20:41:05</time>
      </trkpt>
      <trkpt lat="40.65466" lon="0.62538">
        <ele>12.8</ele>
        <time>2022-05-24 20:41:06</time>
      </trkpt>
      <trkpt lat="40.65464" lon="0.62542">
        <ele>12.8</ele>
        <time>2022-05-24 20:41:07</time>
      </trkpt>
      <trkpt lat="40.65462" lon="0.62546">
        <ele>12.8</ele>
        <time>2022-05-24 20:41:08</time>
      </trkpt>
      <trkpt lat="40.65459" lon="0.62551">
        <ele>12.8</ele>
        <time>2022-05-24 20:41:09</time>
      </trkpt>
      <trkpt lat="40.65457" lon="0.62555">
        <ele>12.8</ele>
        <time>2022-05-24 20:41:10</time>
      </trkpt>
      <trkpt lat="40.65454" lon="0.62559">
        <ele>13</ele>
        <time>2022-05-24 20:41:11</time>
      </trkpt>
      <trkpt lat="40.65452" lon="0.62564">
        <ele>13</ele>
        <time>2022-05-24 20:41:12</time>
      </trkpt>
      <trkpt lat="40.6545" lon="0.62568">
        <ele>13</ele>
        <time>2022-05-24 20:41:13</time>
      </trkpt>
      <trkpt lat="40.65448" lon="0.62573">
        <ele>13.2</ele>
        <time>2022-05-24 20:41:14</time>
      </trkpt>
      <trkpt lat="40.65446" lon="0.62577">
        <ele>13.2</ele>
        <time>2022-05-24 20:41:15</time>
      </trkpt>
      <trkpt lat="40.65443" lon="0.62581">
        <ele>13.2</ele>
        <time>2022-05-24 20:41:16</time>
      </trkpt>
      <trkpt lat="40.65441" lon="0.62585">
        <ele>13.2</ele>
        <time>2022-05-24 20:41:17</time>
      </trkpt>
      <trkpt lat="40.65439" lon="0.62589">
        <ele>13.2</ele>
        <time>2022-05-24 20:41:18</time>
      </trkpt>
      <trkpt lat="40.65437" lon="0.62594">
        <ele>13.4</ele>
        <time>2022-05-24 20:41:19</time>
      </trkpt>
      <trkpt lat="40.65434" lon="0.62598">
        <ele>13.4</ele>
        <time>2022-05-24 20:41:20</time>
      </trkpt>
      <trkpt lat="40.65432" lon="0.62602">
        <ele>13.4</ele>
        <time>2022-05-24 20:41:21</time>
      </trkpt>
      <trkpt lat="40.6543" lon="0.62607">
        <ele>13.4</ele>
        <time>2022-05-24 20:41:22</time>
      </trkpt>
      <trkpt lat="40.65428" lon="0.6261">
        <ele>13.4</ele>
        <time>2022-05-24 20:41:23</time>
      </trkpt>
      <trkpt lat="40.65425" lon="0.62616">
        <ele>13.4</ele>
        <time>2022-05-24 20:41:24</time>
      </trkpt>
      <trkpt lat="40.65423" lon="0.62619">
        <ele>13.4</ele>
        <time>2022-05-24 20:41:25</time>
      </trkpt>
      <trkpt lat="40.6542" lon="0.62625">
        <ele>13.2</ele>
        <time>2022-05-24 20:41:26</time>
      </trkpt>
      <trkpt lat="40.65418" lon="0.62629">
        <ele>13.2</ele>
        <time>2022-05-24 20:41:27</time>
      </trkpt>
      <trkpt lat="40.65416" lon="0.62634">
        <ele>13.2</ele>
        <time>2022-05-24 20:41:28</time>
      </trkpt>
      <trkpt lat="40.65414" lon="0.62638">
        <ele>13.2</ele>
        <time>2022-05-24 20:41:29</time>
      </trkpt>
      <trkpt lat="40.65411" lon="0.62643">
        <ele>13.2</ele>
        <time>2022-05-24 20:41:30</time>
      </trkpt>
      <trkpt lat="40.65409" lon="0.62647">
        <ele>13.2</ele>
        <time>2022-05-24 20:41:31</time>
      </trkpt>
      <trkpt lat="40.65407" lon="0.62652">
        <ele>13.2</ele>
        <time>2022-05-24 20:41:32</time>
      </trkpt>
      <trkpt lat="40.65405" lon="0.62656">
        <ele>13.2</ele>
        <time>2022-05-24 20:41:33</time>
      </trkpt>
      <trkpt lat="40.65402" lon="0.62661">
        <ele>13.2</ele>
        <time>2022-05-24 20:41:34</time>
      </trkpt>
      <trkpt lat="40.654" lon="0.62665">
        <ele>13.2</ele>
        <time>2022-05-24 20:41:35</time>
      </trkpt>
      <trkpt lat="40.65398" lon="0.6267">
        <ele>13.2</ele>
        <time>2022-05-24 20:41:36</time>
      </trkpt>
      <trkpt lat="40.65396" lon="0.62674">
        <ele>13.4</ele>
        <time>2022-05-24 20:41:37</time>
      </trkpt>
      <trkpt lat="40.65393" lon="0.62679">
        <ele>13.4</ele>
        <time>2022-05-24 20:41:38</time>
      </trkpt>
      <trkpt lat="40.65392" lon="0.62684">
        <ele>13.4</ele>
        <time>2022-05-24 20:41:39</time>
      </trkpt>
      <trkpt lat="40.6539" lon="0.62688">
        <ele>13.6</ele>
        <time>2022-05-24 20:41:40</time>
      </trkpt>
      <trkpt lat="40.65388" lon="0.62691">
        <ele>13.6</ele>
        <time>2022-05-24 20:41:41</time>
      </trkpt>
      <trkpt lat="40.65386" lon="0.62694">
        <ele>13.6</ele>
        <time>2022-05-24 20:41:42</time>
      </trkpt>
      <trkpt lat="40.65385" lon="0.62697">
        <ele>13.8</ele>
        <time>2022-05-24 20:41:43</time>
      </trkpt>
      <trkpt lat="40.65383" lon="0.627">
        <ele>13.8</ele>
        <time>2022-05-24 20:41:44</time>
      </trkpt>
      <trkpt lat="40.65382" lon="0.62703">
        <ele>14</ele>
        <time>2022-05-24 20:41:45</time>
      </trkpt>
      <trkpt lat="40.6538" lon="0.62707">
        <ele>14</ele>
        <time>2022-05-24 20:41:46</time>
      </trkpt>
      <trkpt lat="40.65379" lon="0.62711">
        <ele>13.8</ele>
        <time>2022-05-24 20:41:47</time>
      </trkpt>
      <trkpt lat="40.65376" lon="0.62715">
        <ele>13.8</ele>
        <time>2022-05-24 20:41:48</time>
      </trkpt>
      <trkpt lat="40.65374" lon="0.62719">
        <ele>13.8</ele>
        <time>2022-05-24 20:41:49</time>
      </trkpt>
      <trkpt lat="40.65371" lon="0.62722">
        <ele>13.8</ele>
        <time>2022-05-24 20:41:50</time>
      </trkpt>
      <trkpt lat="40.65369" lon="0.62726">
        <ele>13.6</ele>
        <time>2022-05-24 20:41:51</time>
      </trkpt>
      <trkpt lat="40.65366" lon="0.62731">
        <ele>13.4</ele>
        <time>2022-05-24 20:41:52</time>
      </trkpt>
      <trkpt lat="40.65364" lon="0.62736">
        <ele>13.4</ele>
        <time>2022-05-24 20:41:53</time>
      </trkpt>
      <trkpt lat="40.65361" lon="0.62741">
        <ele>13.4</ele>
        <time>2022-05-24 20:41:54</time>
      </trkpt>
      <trkpt lat="40.65359" lon="0.62745">
        <ele>13.4</ele>
        <time>2022-05-24 20:41:55</time>
      </trkpt>
      <trkpt lat="40.65356" lon="0.6275">
        <ele>13.4</ele>
        <time>2022-05-24 20:41:56</time>
      </trkpt>
      <trkpt lat="40.65354" lon="0.62754">
        <ele>13.4</ele>
        <time>2022-05-24 20:41:57</time>
      </trkpt>
      <trkpt lat="40.65351" lon="0.62759">
        <ele>13.4</ele>
        <time>2022-05-24 20:41:58</time>
      </trkpt>
      <trkpt lat="40.65349" lon="0.62764">
        <ele>13.2</ele>
        <time>2022-05-24 20:41:59</time>
      </trkpt>
      <trkpt lat="40.65347" lon="0.62769">
        <ele>13.2</ele>
        <time>2022-05-24 20:42:00</time>
      </trkpt>
      <trkpt lat="40.65344" lon="0.62774">
        <ele>13.2</ele>
        <time>2022-05-24 20:42:01</time>
      </trkpt>
      <trkpt lat="40.65342" lon="0.62779">
        <ele>13.2</ele>
        <time>2022-05-24 20:42:02</time>
      </trkpt>
      <trkpt lat="40.65339" lon="0.62784">
        <ele>13.2</ele>
        <time>2022-05-24 20:42:03</time>
      </trkpt>
      <trkpt lat="40.65337" lon="0.62789">
        <ele>13.4</ele>
        <time>2022-05-24 20:42:04</time>
      </trkpt>
      <trkpt lat="40.65334" lon="0.62794">
        <ele>13.4</ele>
        <time>2022-05-24 20:42:05</time>
      </trkpt>
      <trkpt lat="40.65332" lon="0.62799">
        <ele>13.4</ele>
        <time>2022-05-24 20:42:06</time>
      </trkpt>
      <trkpt lat="40.6533" lon="0.62803">
        <ele>13.4</ele>
        <time>2022-05-24 20:42:07</time>
      </trkpt>
      <trkpt lat="40.65327" lon="0.62809">
        <ele>13.4</ele>
        <time>2022-05-24 20:42:08</time>
      </trkpt>
      <trkpt lat="40.65325" lon="0.62814">
        <ele>13.4</ele>
        <time>2022-05-24 20:42:09</time>
      </trkpt>
      <trkpt lat="40.65322" lon="0.62819">
        <ele>13.4</ele>
        <time>2022-05-24 20:42:10</time>
      </trkpt>
      <trkpt lat="40.65319" lon="0.62824">
        <ele>13.4</ele>
        <time>2022-05-24 20:42:11</time>
      </trkpt>
      <trkpt lat="40.65317" lon="0.62829">
        <ele>13.4</ele>
        <time>2022-05-24 20:42:12</time>
      </trkpt>
      <trkpt lat="40.65314" lon="0.62834">
        <ele>13.4</ele>
        <time>2022-05-24 20:42:13</time>
      </trkpt>
      <trkpt lat="40.65311" lon="0.62839">
        <ele>13.4</ele>
        <time>2022-05-24 20:42:14</time>
      </trkpt>
      <trkpt lat="40.65309" lon="0.62844">
        <ele>13.4</ele>
        <time>2022-05-24 20:42:15</time>
      </trkpt>
      <trkpt lat="40.65306" lon="0.6285">
        <ele>13.4</ele>
        <time>2022-05-24 20:42:16</time>
      </trkpt>
      <trkpt lat="40.65303" lon="0.62855">
        <ele>13.2</ele>
        <time>2022-05-24 20:42:17</time>
      </trkpt>
      <trkpt lat="40.653" lon="0.62861">
        <ele>13.2</ele>
        <time>2022-05-24 20:42:18</time>
      </trkpt>
      <trkpt lat="40.65298" lon="0.62866">
        <ele>13.2</ele>
        <time>2022-05-24 20:42:19</time>
      </trkpt>
      <trkpt lat="40.65295" lon="0.62871">
        <ele>13.2</ele>
        <time>2022-05-24 20:42:20</time>
      </trkpt>
      <trkpt lat="40.65292" lon="0.62877">
        <ele>13.4</ele>
        <time>2022-05-24 20:42:21</time>
      </trkpt>
      <trkpt lat="40.6529" lon="0.62882">
        <ele>13.4</ele>
        <time>2022-05-24 20:42:22</time>
      </trkpt>
      <trkpt lat="40.65287" lon="0.62887">
        <ele>13.4</ele>
        <time>2022-05-24 20:42:23</time>
      </trkpt>
      <trkpt lat="40.65285" lon="0.62892">
        <ele>13.2</ele>
        <time>2022-05-24 20:42:24</time>
      </trkpt>
      <trkpt lat="40.65282" lon="0.62897">
        <ele>13.2</ele>
        <time>2022-05-24 20:42:25</time>
      </trkpt>
      <trkpt lat="40.6528" lon="0.62902">
        <ele>13.2</ele>
        <time>2022-05-24 20:42:26</time>
      </trkpt>
      <trkpt lat="40.65277" lon="0.62907">
        <ele>13.2</ele>
        <time>2022-05-24 20:42:27</time>
      </trkpt>
      <trkpt lat="40.65275" lon="0.62912">
        <ele>13.2</ele>
        <time>2022-05-24 20:42:28</time>
      </trkpt>
      <trkpt lat="40.65273" lon="0.62916">
        <ele>13.2</ele>
        <time>2022-05-24 20:42:29</time>
      </trkpt>
      <trkpt lat="40.65271" lon="0.62921">
        <ele>13.2</ele>
        <time>2022-05-24 20:42:30</time>
      </trkpt>
      <trkpt lat="40.65268" lon="0.62926">
        <ele>13.2</ele>
        <time>2022-05-24 20:42:31</time>
      </trkpt>
      <trkpt lat="40.65266" lon="0.62931">
        <ele>13.2</ele>
        <time>2022-05-24 20:42:32</time>
      </trkpt>
      <trkpt lat="40.65263" lon="0.62936">
        <ele>13.2</ele>
        <time>2022-05-24 20:42:33</time>
      </trkpt>
      <trkpt lat="40.65261" lon="0.6294">
        <ele>13.2</ele>
        <time>2022-05-24 20:42:34</time>
      </trkpt>
      <trkpt lat="40.65259" lon="0.62945">
        <ele>13.2</ele>
        <time>2022-05-24 20:42:35</time>
      </trkpt>
      <trkpt lat="40.65256" lon="0.6295">
        <ele>13.2</ele>
        <time>2022-05-24 20:42:36</time>
      </trkpt>
      <trkpt lat="40.65254" lon="0.62955">
        <ele>13.2</ele>
        <time>2022-05-24 20:42:37</time>
      </trkpt>
      <trkpt lat="40.65251" lon="0.6296">
        <ele>13.2</ele>
        <time>2022-05-24 20:42:38</time>
      </trkpt>
      <trkpt lat="40.65249" lon="0.62964">
        <ele>13.2</ele>
        <time>2022-05-24 20:42:39</time>
      </trkpt>
      <trkpt lat="40.65247" lon="0.62968">
        <ele>13</ele>
        <time>2022-05-24 20:42:40</time>
      </trkpt>
      <trkpt lat="40.65244" lon="0.62975">
        <ele>13</ele>
        <time>2022-05-24 20:42:41</time>
      </trkpt>
      <trkpt lat="40.65242" lon="0.62979">
        <ele>13</ele>
        <time>2022-05-24 20:42:42</time>
      </trkpt>
      <trkpt lat="40.6524" lon="0.62983">
        <ele>13</ele>
        <time>2022-05-24 20:42:43</time>
      </trkpt>
      <trkpt lat="40.65236" lon="0.62989">
        <ele>13</ele>
        <time>2022-05-24 20:42:44</time>
      </trkpt>
      <trkpt lat="40.65234" lon="0.62993">
        <ele>13</ele>
        <time>2022-05-24 20:42:45</time>
      </trkpt>
      <trkpt lat="40.65232" lon="0.62998">
        <ele>13</ele>
        <time>2022-05-24 20:42:46</time>
      </trkpt>
      <trkpt lat="40.6523" lon="0.63003">
        <ele>13</ele>
        <time>2022-05-24 20:42:47</time>
      </trkpt>
      <trkpt lat="40.65227" lon="0.63008">
        <ele>13</ele>
        <time>2022-05-24 20:42:48</time>
      </trkpt>
      <trkpt lat="40.65225" lon="0.63012">
        <ele>13</ele>
        <time>2022-05-24 20:42:49</time>
      </trkpt>
      <trkpt lat="40.65222" lon="0.63017">
        <ele>13.2</ele>
        <time>2022-05-24 20:42:50</time>
      </trkpt>
      <trkpt lat="40.6522" lon="0.63022">
        <ele>13.2</ele>
        <time>2022-05-24 20:42:51</time>
      </trkpt>
      <trkpt lat="40.65218" lon="0.63027">
        <ele>13.2</ele>
        <time>2022-05-24 20:42:52</time>
      </trkpt>
      <trkpt lat="40.65215" lon="0.63032">
        <ele>13.2</ele>
        <time>2022-05-24 20:42:53</time>
      </trkpt>
      <trkpt lat="40.65212" lon="0.63037">
        <ele>13.2</ele>
        <time>2022-05-24 20:42:54</time>
      </trkpt>
      <trkpt lat="40.6521" lon="0.63042">
        <ele>13.2</ele>
        <time>2022-05-24 20:42:55</time>
      </trkpt>
      <trkpt lat="40.65207" lon="0.63047">
        <ele>13.2</ele>
        <time>2022-05-24 20:42:56</time>
      </trkpt>
      <trkpt lat="40.65205" lon="0.63052">
        <ele>13.2</ele>
        <time>2022-05-24 20:42:57</time>
      </trkpt>
      <trkpt lat="40.65202" lon="0.63057">
        <ele>13.2</ele>
        <time>2022-05-24 20:42:58</time>
      </trkpt>
      <trkpt lat="40.65199" lon="0.63062">
        <ele>13.2</ele>
        <time>2022-05-24 20:42:59</time>
      </trkpt>
      <trkpt lat="40.65197" lon="0.63067">
        <ele>13</ele>
        <time>2022-05-24 20:43:00</time>
      </trkpt>
      <trkpt lat="40.65194" lon="0.63072">
        <ele>13</ele>
        <time>2022-05-24 20:43:01</time>
      </trkpt>
      <trkpt lat="40.65191" lon="0.63076">
        <ele>13</ele>
        <time>2022-05-24 20:43:02</time>
      </trkpt>
      <trkpt lat="40.65188" lon="0.63082">
        <ele>13</ele>
        <time>2022-05-24 20:43:03</time>
      </trkpt>
      <trkpt lat="40.65186" lon="0.63087">
        <ele>13</ele>
        <time>2022-05-24 20:43:04</time>
      </trkpt>
      <trkpt lat="40.65184" lon="0.63093">
        <ele>13</ele>
        <time>2022-05-24 20:43:05</time>
      </trkpt>
      <trkpt lat="40.65181" lon="0.63098">
        <ele>13</ele>
        <time>2022-05-24 20:43:06</time>
      </trkpt>
      <trkpt lat="40.65179" lon="0.63102">
        <ele>13</ele>
        <time>2022-05-24 20:43:07</time>
      </trkpt>
      <trkpt lat="40.65176" lon="0.63108">
        <ele>13</ele>
        <time>2022-05-24 20:43:08</time>
      </trkpt>
      <trkpt lat="40.65174" lon="0.63113">
        <ele>13</ele>
        <time>2022-05-24 20:43:09</time>
      </trkpt>
      <trkpt lat="40.65171" lon="0.63118">
        <ele>13</ele>
        <time>2022-05-24 20:43:10</time>
      </trkpt>
      <trkpt lat="40.65169" lon="0.63123">
        <ele>13</ele>
        <time>2022-05-24 20:43:11</time>
      </trkpt>
      <trkpt lat="40.65167" lon="0.63128">
        <ele>13</ele>
        <time>2022-05-24 20:43:12</time>
      </trkpt>
      <trkpt lat="40.65164" lon="0.63132">
        <ele>13</ele>
        <time>2022-05-24 20:43:13</time>
      </trkpt>
      <trkpt lat="40.65162" lon="0.63137">
        <ele>13</ele>
        <time>2022-05-24 20:43:14</time>
      </trkpt>
      <trkpt lat="40.6516" lon="0.63142">
        <ele>13</ele>
        <time>2022-05-24 20:43:15</time>
      </trkpt>
      <trkpt lat="40.65157" lon="0.63146">
        <ele>13</ele>
        <time>2022-05-24 20:43:16</time>
      </trkpt>
      <trkpt lat="40.65155" lon="0.63152">
        <ele>13</ele>
        <time>2022-05-24 20:43:17</time>
      </trkpt>
      <trkpt lat="40.65152" lon="0.63157">
        <ele>13</ele>
        <time>2022-05-24 20:43:18</time>
      </trkpt>
      <trkpt lat="40.6515" lon="0.63162">
        <ele>13</ele>
        <time>2022-05-24 20:43:19</time>
      </trkpt>
      <trkpt lat="40.65147" lon="0.63166">
        <ele>13</ele>
        <time>2022-05-24 20:43:20</time>
      </trkpt>
      <trkpt lat="40.65145" lon="0.63171">
        <ele>13</ele>
        <time>2022-05-24 20:43:21</time>
      </trkpt>
      <trkpt lat="40.65142" lon="0.63176">
        <ele>13</ele>
        <time>2022-05-24 20:43:22</time>
      </trkpt>
      <trkpt lat="40.6514" lon="0.63181">
        <ele>13.2</ele>
        <time>2022-05-24 20:43:23</time>
      </trkpt>
      <trkpt lat="40.65137" lon="0.63186">
        <ele>13.2</ele>
        <time>2022-05-24 20:43:24</time>
      </trkpt>
      <trkpt lat="40.65135" lon="0.63191">
        <ele>13.2</ele>
        <time>2022-05-24 20:43:25</time>
      </trkpt>
      <trkpt lat="40.65133" lon="0.63196">
        <ele>13.2</ele>
        <time>2022-05-24 20:43:26</time>
      </trkpt>
      <trkpt lat="40.6513" lon="0.63201">
        <ele>13</ele>
        <time>2022-05-24 20:43:27</time>
      </trkpt>
      <trkpt lat="40.65128" lon="0.63207">
        <ele>13</ele>
        <time>2022-05-24 20:43:28</time>
      </trkpt>
      <trkpt lat="40.65125" lon="0.63211">
        <ele>13</ele>
        <time>2022-05-24 20:43:29</time>
      </trkpt>
      <trkpt lat="40.65124" lon="0.63215">
        <ele>13</ele>
        <time>2022-05-24 20:43:30</time>
      </trkpt>
      <trkpt lat="40.65121" lon="0.63221">
        <ele>13</ele>
        <time>2022-05-24 20:43:31</time>
      </trkpt>
      <trkpt lat="40.6512" lon="0.63225">
        <ele>13</ele>
        <time>2022-05-24 20:43:32</time>
      </trkpt>
      <trkpt lat="40.6512" lon="0.6323">
        <ele>13</ele>
        <time>2022-05-24 20:43:33</time>
      </trkpt>
      <trkpt lat="40.6512" lon="0.63235">
        <ele>12.8</ele>
        <time>2022-05-24 20:43:34</time>
      </trkpt>
      <trkpt lat="40.65121" lon="0.63239">
        <ele>12.8</ele>
        <time>2022-05-24 20:43:35</time>
      </trkpt>
      <trkpt lat="40.65123" lon="0.63243">
        <ele>12.6</ele>
        <time>2022-05-24 20:43:36</time>
      </trkpt>
      <trkpt lat="40.65125" lon="0.63248">
        <ele>12.6</ele>
        <time>2022-05-24 20:43:37</time>
      </trkpt>
      <trkpt lat="40.65126" lon="0.63252">
        <ele>12.4</ele>
        <time>2022-05-24 20:43:38</time>
      </trkpt>
      <trkpt lat="40.65129" lon="0.63257">
        <ele>12.4</ele>
        <time>2022-05-24 20:43:39</time>
      </trkpt>
      <trkpt lat="40.65131" lon="0.63261">
        <ele>12.4</ele>
        <time>2022-05-24 20:43:40</time>
      </trkpt>
      <trkpt lat="40.65133" lon="0.63267">
        <ele>12.4</ele>
        <time>2022-05-24 20:43:41</time>
      </trkpt>
      <trkpt lat="40.65134" lon="0.63271">
        <ele>12.2</ele>
        <time>2022-05-24 20:43:42</time>
      </trkpt>
      <trkpt lat="40.65136" lon="0.63277">
        <ele>12.4</ele>
        <time>2022-05-24 20:43:43</time>
      </trkpt>
      <trkpt lat="40.65137" lon="0.63282">
        <ele>12.4</ele>
        <time>2022-05-24 20:43:44</time>
      </trkpt>
      <trkpt lat="40.6514" lon="0.63287">
        <ele>12.4</ele>
        <time>2022-05-24 20:43:45</time>
      </trkpt>
      <trkpt lat="40.65141" lon="0.63293">
        <ele>12.6</ele>
        <time>2022-05-24 20:43:46</time>
      </trkpt>
      <trkpt lat="40.65143" lon="0.63298">
        <ele>12.6</ele>
        <time>2022-05-24 20:43:47</time>
      </trkpt>
      <trkpt lat="40.65145" lon="0.63303">
        <ele>12.6</ele>
        <time>2022-05-24 20:43:48</time>
      </trkpt>
      <trkpt lat="40.65147" lon="0.63307">
        <ele>12.6</ele>
        <time>2022-05-24 20:43:49</time>
      </trkpt>
      <trkpt lat="40.65148" lon="0.63312">
        <ele>12.6</ele>
        <time>2022-05-24 20:43:50</time>
      </trkpt>
      <trkpt lat="40.65149" lon="0.63316">
        <ele>12.6</ele>
        <time>2022-05-24 20:43:51</time>
      </trkpt>
      <trkpt lat="40.65151" lon="0.63321">
        <ele>12.8</ele>
        <time>2022-05-24 20:43:52</time>
      </trkpt>
      <trkpt lat="40.65152" lon="0.63325">
        <ele>12.6</ele>
        <time>2022-05-24 20:43:53</time>
      </trkpt>
      <trkpt lat="40.65154" lon="0.6333">
        <ele>12.6</ele>
        <time>2022-05-24 20:43:54</time>
      </trkpt>
      <trkpt lat="40.65155" lon="0.63334">
        <ele>12.6</ele>
        <time>2022-05-24 20:43:55</time>
      </trkpt>
      <trkpt lat="40.65157" lon="0.63339">
        <ele>12.6</ele>
        <time>2022-05-24 20:43:56</time>
      </trkpt>
      <trkpt lat="40.65158" lon="0.63344">
        <ele>12.6</ele>
        <time>2022-05-24 20:43:57</time>
      </trkpt>
      <trkpt lat="40.6516" lon="0.63349">
        <ele>12.6</ele>
        <time>2022-05-24 20:43:58</time>
      </trkpt>
      <trkpt lat="40.65162" lon="0.63354">
        <ele>12.6</ele>
        <time>2022-05-24 20:43:59</time>
      </trkpt>
      <trkpt lat="40.65163" lon="0.63359">
        <ele>12.6</ele>
        <time>2022-05-24 20:44:00</time>
      </trkpt>
      <trkpt lat="40.65165" lon="0.63364">
        <ele>12.6</ele>
        <time>2022-05-24 20:44:01</time>
      </trkpt>
      <trkpt lat="40.65166" lon="0.63369">
        <ele>12.6</ele>
        <time>2022-05-24 20:44:02</time>
      </trkpt>
      <trkpt lat="40.65168" lon="0.63374">
        <ele>12.6</ele>
        <time>2022-05-24 20:44:03</time>
      </trkpt>
      <trkpt lat="40.6517" lon="0.63379">
        <ele>12.6</ele>
        <time>2022-05-24 20:44:04</time>
      </trkpt>
      <trkpt lat="40.65171" lon="0.63384">
        <ele>12.6</ele>
        <time>2022-05-24 20:44:05</time>
      </trkpt>
      <trkpt lat="40.65173" lon="0.63389">
        <ele>12.6</ele>
        <time>2022-05-24 20:44:06</time>
      </trkpt>
      <trkpt lat="40.65175" lon="0.63394">
        <ele>12.4</ele>
        <time>2022-05-24 20:44:07</time>
      </trkpt>
      <trkpt lat="40.65177" lon="0.63399">
        <ele>12.4</ele>
        <time>2022-05-24 20:44:08</time>
      </trkpt>
      <trkpt lat="40.65179" lon="0.63404">
        <ele>12.4</ele>
        <time>2022-05-24 20:44:09</time>
      </trkpt>
      <trkpt lat="40.6518" lon="0.63409">
        <ele>12.4</ele>
        <time>2022-05-24 20:44:10</time>
      </trkpt>
      <trkpt lat="40.65182" lon="0.63414">
        <ele>12.4</ele>
        <time>2022-05-24 20:44:11</time>
      </trkpt>
      <trkpt lat="40.65183" lon="0.63419">
        <ele>12.4</ele>
        <time>2022-05-24 20:44:12</time>
      </trkpt>
      <trkpt lat="40.65185" lon="0.63423">
        <ele>12.4</ele>
        <time>2022-05-24 20:44:13</time>
      </trkpt>
      <trkpt lat="40.65187" lon="0.63428">
        <ele>12.4</ele>
        <time>2022-05-24 20:44:14</time>
      </trkpt>
      <trkpt lat="40.65188" lon="0.63433">
        <ele>12.4</ele>
        <time>2022-05-24 20:44:15</time>
      </trkpt>
      <trkpt lat="40.6519" lon="0.63438">
        <ele>12.2</ele>
        <time>2022-05-24 20:44:16</time>
      </trkpt>
      <trkpt lat="40.65192" lon="0.63443">
        <ele>12.2</ele>
        <time>2022-05-24 20:44:17</time>
      </trkpt>
      <trkpt lat="40.65193" lon="0.63448">
        <ele>12.2</ele>
        <time>2022-05-24 20:44:18</time>
      </trkpt>
      <trkpt lat="40.65195" lon="0.63453">
        <ele>12.2</ele>
        <time>2022-05-24 20:44:19</time>
      </trkpt>
      <trkpt lat="40.65196" lon="0.63458">
        <ele>12.2</ele>
        <time>2022-05-24 20:44:20</time>
      </trkpt>
      <trkpt lat="40.65198" lon="0.63463">
        <ele>12.2</ele>
        <time>2022-05-24 20:44:21</time>
      </trkpt>
      <trkpt lat="40.652" lon="0.63468">
        <ele>12.2</ele>
        <time>2022-05-24 20:44:22</time>
      </trkpt>
      <trkpt lat="40.65201" lon="0.63473">
        <ele>12.2</ele>
        <time>2022-05-24 20:44:23</time>
      </trkpt>
      <trkpt lat="40.65203" lon="0.63478">
        <ele>12.2</ele>
        <time>2022-05-24 20:44:24</time>
      </trkpt>
      <trkpt lat="40.65205" lon="0.63483">
        <ele>12.2</ele>
        <time>2022-05-24 20:44:25</time>
      </trkpt>
      <trkpt lat="40.65206" lon="0.63488">
        <ele>12.4</ele>
        <time>2022-05-24 20:44:26</time>
      </trkpt>
      <trkpt lat="40.65208" lon="0.63493">
        <ele>12.4</ele>
        <time>2022-05-24 20:44:27</time>
      </trkpt>
      <trkpt lat="40.6521" lon="0.63498">
        <ele>12.2</ele>
        <time>2022-05-24 20:44:28</time>
      </trkpt>
      <trkpt lat="40.65211" lon="0.63502">
        <ele>12.2</ele>
        <time>2022-05-24 20:44:29</time>
      </trkpt>
      <trkpt lat="40.65213" lon="0.63507">
        <ele>12.2</ele>
        <time>2022-05-24 20:44:30</time>
      </trkpt>
      <trkpt lat="40.65215" lon="0.63512">
        <ele>12.2</ele>
        <time>2022-05-24 20:44:31</time>
      </trkpt>
      <trkpt lat="40.65216" lon="0.63517">
        <ele>12.4</ele>
        <time>2022-05-24 20:44:32</time>
      </trkpt>
      <trkpt lat="40.65218" lon="0.63522">
        <ele>12.4</ele>
        <time>2022-05-24 20:44:33</time>
      </trkpt>
      <trkpt lat="40.65219" lon="0.63527">
        <ele>12.2</ele>
        <time>2022-05-24 20:44:34</time>
      </trkpt>
      <trkpt lat="40.65221" lon="0.63532">
        <ele>12.2</ele>
        <time>2022-05-24 20:44:35</time>
      </trkpt>
      <trkpt lat="40.65223" lon="0.63538">
        <ele>12.2</ele>
        <time>2022-05-24 20:44:36</time>
      </trkpt>
      <trkpt lat="40.65224" lon="0.63543">
        <ele>12.2</ele>
        <time>2022-05-24 20:44:37</time>
      </trkpt>
      <trkpt lat="40.65226" lon="0.63548">
        <ele>12.2</ele>
        <time>2022-05-24 20:44:38</time>
      </trkpt>
      <trkpt lat="40.65228" lon="0.63553">
        <ele>12.2</ele>
        <time>2022-05-24 20:44:39</time>
      </trkpt>
      <trkpt lat="40.6523" lon="0.63557">
        <ele>12.2</ele>
        <time>2022-05-24 20:44:40</time>
      </trkpt>
      <trkpt lat="40.65231" lon="0.63562">
        <ele>12.2</ele>
        <time>2022-05-24 20:44:41</time>
      </trkpt>
      <trkpt lat="40.65233" lon="0.63567">
        <ele>12</ele>
        <time>2022-05-24 20:44:42</time>
      </trkpt>
      <trkpt lat="40.65234" lon="0.63572">
        <ele>12</ele>
        <time>2022-05-24 20:44:43</time>
      </trkpt>
      <trkpt lat="40.65236" lon="0.63577">
        <ele>12</ele>
        <time>2022-05-24 20:44:44</time>
      </trkpt>
      <trkpt lat="40.65238" lon="0.63582">
        <ele>12</ele>
        <time>2022-05-24 20:44:45</time>
      </trkpt>
      <trkpt lat="40.65239" lon="0.63587">
        <ele>12</ele>
        <time>2022-05-24 20:44:46</time>
      </trkpt>
      <trkpt lat="40.65241" lon="0.63592">
        <ele>11.8</ele>
        <time>2022-05-24 20:44:47</time>
      </trkpt>
      <trkpt lat="40.65243" lon="0.63597">
        <ele>11.8</ele>
        <time>2022-05-24 20:44:48</time>
      </trkpt>
      <trkpt lat="40.65244" lon="0.63602">
        <ele>11.8</ele>
        <time>2022-05-24 20:44:49</time>
      </trkpt>
      <trkpt lat="40.65246" lon="0.63607">
        <ele>11.8</ele>
        <time>2022-05-24 20:44:50</time>
      </trkpt>
      <trkpt lat="40.65248" lon="0.63612">
        <ele>12</ele>
        <time>2022-05-24 20:44:51</time>
      </trkpt>
      <trkpt lat="40.65249" lon="0.63617">
        <ele>12</ele>
        <time>2022-05-24 20:44:52</time>
      </trkpt>
      <trkpt lat="40.6525" lon="0.63622">
        <ele>12</ele>
        <time>2022-05-24 20:44:53</time>
      </trkpt>
      <trkpt lat="40.65252" lon="0.63627">
        <ele>12.2</ele>
        <time>2022-05-24 20:44:54</time>
      </trkpt>
      <trkpt lat="40.65253" lon="0.63631">
        <ele>12.2</ele>
        <time>2022-05-24 20:44:55</time>
      </trkpt>
      <trkpt lat="40.65255" lon="0.63634">
        <ele>12.4</ele>
        <time>2022-05-24 20:44:56</time>
      </trkpt>
      <trkpt lat="40.65256" lon="0.63638">
        <ele>12.6</ele>
        <time>2022-05-24 20:44:57</time>
      </trkpt>
      <trkpt lat="40.65258" lon="0.63641">
        <ele>12.8</ele>
        <time>2022-05-24 20:44:58</time>
      </trkpt>
      <trkpt lat="40.6526" lon="0.63643">
        <ele>13</ele>
        <time>2022-05-24 20:44:59</time>
      </trkpt>
      <trkpt lat="40.65261" lon="0.63645">
        <ele>13.2</ele>
        <time>2022-05-24 20:45:00</time>
      </trkpt>
      <trkpt lat="40.65262" lon="0.63648">
        <ele>13.2</ele>
        <time>2022-05-24 20:45:01</time>
      </trkpt>
      <trkpt lat="40.65263" lon="0.63652">
        <ele>13.4</ele>
        <time>2022-05-24 20:45:02</time>
      </trkpt>
      <trkpt lat="40.65263" lon="0.63655">
        <ele>13.4</ele>
        <time>2022-05-24 20:45:03</time>
      </trkpt>
      <trkpt lat="40.65263" lon="0.63659">
        <ele>13.4</ele>
        <time>2022-05-24 20:45:04</time>
      </trkpt>
      <trkpt lat="40.65265" lon="0.63663">
        <ele>13.2</ele>
        <time>2022-05-24 20:45:05</time>
      </trkpt>
      <trkpt lat="40.65266" lon="0.63667">
        <ele>13</ele>
        <time>2022-05-24 20:45:06</time>
      </trkpt>
      <trkpt lat="40.65268" lon="0.63672">
        <ele>13</ele>
        <time>2022-05-24 20:45:07</time>
      </trkpt>
      <trkpt lat="40.6527" lon="0.63677">
        <ele>12.8</ele>
        <time>2022-05-24 20:45:08</time>
      </trkpt>
      <trkpt lat="40.65271" lon="0.63682">
        <ele>12.4</ele>
        <time>2022-05-24 20:45:09</time>
      </trkpt>
      <trkpt lat="40.65273" lon="0.63688">
        <ele>12.2</ele>
        <time>2022-05-24 20:45:10</time>
      </trkpt>
      <trkpt lat="40.65275" lon="0.63694">
        <ele>12.2</ele>
        <time>2022-05-24 20:45:11</time>
      </trkpt>
      <trkpt lat="40.65277" lon="0.63699">
        <ele>12</ele>
        <time>2022-05-24 20:45:12</time>
      </trkpt>
      <trkpt lat="40.65279" lon="0.63705">
        <ele>11.8</ele>
        <time>2022-05-24 20:45:13</time>
      </trkpt>
      <trkpt lat="40.65281" lon="0.6371">
        <ele>11.8</ele>
        <time>2022-05-24 20:45:14</time>
      </trkpt>
      <trkpt lat="40.65282" lon="0.63715">
        <ele>12</ele>
        <time>2022-05-24 20:45:15</time>
      </trkpt>
      <trkpt lat="40.65283" lon="0.63718">
        <ele>12</ele>
        <time>2022-05-24 20:45:16</time>
      </trkpt>
      <trkpt lat="40.65286" lon="0.63726">
        <ele>12.4</ele>
        <time>2022-05-24 20:45:49</time>
      </trkpt>
      <trkpt lat="40.65287" lon="0.63728">
        <ele>12.2</ele>
        <time>2022-05-24 20:45:50</time>
      </trkpt>
      <trkpt lat="40.65288" lon="0.6373">
        <ele>12.2</ele>
        <time>2022-05-24 20:45:51</time>
      </trkpt>
      <trkpt lat="40.65289" lon="0.63733">
        <ele>12.2</ele>
        <time>2022-05-24 20:45:52</time>
      </trkpt>
      <trkpt lat="40.6529" lon="0.63736">
        <ele>12.2</ele>
        <time>2022-05-24 20:45:53</time>
      </trkpt>
      <trkpt lat="40.65291" lon="0.6374">
        <ele>12.2</ele>
        <time>2022-05-24 20:45:54</time>
      </trkpt>
      <trkpt lat="40.65292" lon="0.63743">
        <ele>12.2</ele>
        <time>2022-05-24 20:45:55</time>
      </trkpt>
      <trkpt lat="40.65293" lon="0.63747">
        <ele>12.2</ele>
        <time>2022-05-24 20:45:56</time>
      </trkpt>
      <trkpt lat="40.65295" lon="0.6375">
        <ele>12</ele>
        <time>2022-05-24 20:45:57</time>
      </trkpt>
      <trkpt lat="40.65296" lon="0.63754">
        <ele>12</ele>
        <time>2022-05-24 20:45:58</time>
      </trkpt>
      <trkpt lat="40.65298" lon="0.63759">
        <ele>12</ele>
        <time>2022-05-24 20:45:59</time>
      </trkpt>
      <trkpt lat="40.65299" lon="0.63763">
        <ele>11.8</ele>
        <time>2022-05-24 20:46:00</time>
      </trkpt>
      <trkpt lat="40.653" lon="0.63767">
        <ele>11.8</ele>
        <time>2022-05-24 20:46:01</time>
      </trkpt>
      <trkpt lat="40.65302" lon="0.63772">
        <ele>11.6</ele>
        <time>2022-05-24 20:46:02</time>
      </trkpt>
      <trkpt lat="40.65303" lon="0.63776">
        <ele>11.6</ele>
        <time>2022-05-24 20:46:03</time>
      </trkpt>
      <trkpt lat="40.65305" lon="0.63781">
        <ele>11.6</ele>
        <time>2022-05-24 20:46:04</time>
      </trkpt>
      <trkpt lat="40.65306" lon="0.63786">
        <ele>11.4</ele>
        <time>2022-05-24 20:46:05</time>
      </trkpt>
      <trkpt lat="40.65308" lon="0.63791">
        <ele>11.4</ele>
        <time>2022-05-24 20:46:06</time>
      </trkpt>
      <trkpt lat="40.6531" lon="0.63797">
        <ele>11.4</ele>
        <time>2022-05-24 20:46:07</time>
      </trkpt>
      <trkpt lat="40.65312" lon="0.63802">
        <ele>11.4</ele>
        <time>2022-05-24 20:46:08</time>
      </trkpt>
      <trkpt lat="40.65313" lon="0.63808">
        <ele>11.6</ele>
        <time>2022-05-24 20:46:09</time>
      </trkpt>
      <trkpt lat="40.65315" lon="0.63813">
        <ele>11.6</ele>
        <time>2022-05-24 20:46:10</time>
      </trkpt>
      <trkpt lat="40.65317" lon="0.63818">
        <ele>11.6</ele>
        <time>2022-05-24 20:46:11</time>
      </trkpt>
      <trkpt lat="40.65319" lon="0.63823">
        <ele>11.8</ele>
        <time>2022-05-24 20:46:12</time>
      </trkpt>
      <trkpt lat="40.65321" lon="0.63828">
        <ele>11.8</ele>
        <time>2022-05-24 20:46:13</time>
      </trkpt>
      <trkpt lat="40.65323" lon="0.63833">
        <ele>12</ele>
        <time>2022-05-24 20:46:14</time>
      </trkpt>
      <trkpt lat="40.65324" lon="0.63838">
        <ele>12</ele>
        <time>2022-05-24 20:46:15</time>
      </trkpt>
      <trkpt lat="40.65326" lon="0.63844">
        <ele>12.2</ele>
        <time>2022-05-24 20:46:16</time>
      </trkpt>
      <trkpt lat="40.65327" lon="0.6385">
        <ele>12</ele>
        <time>2022-05-24 20:46:17</time>
      </trkpt>
      <trkpt lat="40.65329" lon="0.63856">
        <ele>12</ele>
        <time>2022-05-24 20:46:18</time>
      </trkpt>
      <trkpt lat="40.65332" lon="0.63862">
        <ele>12</ele>
        <time>2022-05-24 20:46:19</time>
      </trkpt>
      <trkpt lat="40.65334" lon="0.63869">
        <ele>12</ele>
        <time>2022-05-24 20:46:20</time>
      </trkpt>
      <trkpt lat="40.65336" lon="0.63875">
        <ele>11.8</ele>
        <time>2022-05-24 20:46:21</time>
      </trkpt>
      <trkpt lat="40.65338" lon="0.63881">
        <ele>11.8</ele>
        <time>2022-05-24 20:46:22</time>
      </trkpt>
      <trkpt lat="40.6534" lon="0.63886">
        <ele>11.8</ele>
        <time>2022-05-24 20:46:23</time>
      </trkpt>
      <trkpt lat="40.65342" lon="0.63892">
        <ele>11.8</ele>
        <time>2022-05-24 20:46:24</time>
      </trkpt>
      <trkpt lat="40.65344" lon="0.63898">
        <ele>11.6</ele>
        <time>2022-05-24 20:46:25</time>
      </trkpt>
      <trkpt lat="40.65346" lon="0.63904">
        <ele>11.6</ele>
        <time>2022-05-24 20:46:26</time>
      </trkpt>
      <trkpt lat="40.65348" lon="0.6391">
        <ele>11.6</ele>
        <time>2022-05-24 20:46:27</time>
      </trkpt>
      <trkpt lat="40.6535" lon="0.63916">
        <ele>11.6</ele>
        <time>2022-05-24 20:46:28</time>
      </trkpt>
      <trkpt lat="40.65352" lon="0.63922">
        <ele>11.6</ele>
        <time>2022-05-24 20:46:29</time>
      </trkpt>
      <trkpt lat="40.65353" lon="0.63927">
        <ele>11.8</ele>
        <time>2022-05-24 20:46:30</time>
      </trkpt>
      <trkpt lat="40.65355" lon="0.63931">
        <ele>12</ele>
        <time>2022-05-24 20:46:31</time>
      </trkpt>
      <trkpt lat="40.65356" lon="0.63933">
        <ele>12.2</ele>
        <time>2022-05-24 20:46:32</time>
      </trkpt>
      <trkpt lat="40.65356" lon="0.63935">
        <ele>12.4</ele>
        <time>2022-05-24 20:46:33</time>
      </trkpt>
      <trkpt lat="40.65357" lon="0.63938">
        <ele>13.2</ele>
        <time>2022-05-24 20:46:46</time>
      </trkpt>
      <trkpt lat="40.65358" lon="0.63942">
        <ele>13.2</ele>
        <time>2022-05-24 20:46:47</time>
      </trkpt>
      <trkpt lat="40.65359" lon="0.63945">
        <ele>13.2</ele>
        <time>2022-05-24 20:46:48</time>
      </trkpt>
      <trkpt lat="40.6536" lon="0.63948">
        <ele>13.2</ele>
        <time>2022-05-24 20:46:49</time>
      </trkpt>
      <trkpt lat="40.65361" lon="0.63952">
        <ele>13</ele>
        <time>2022-05-24 20:46:50</time>
      </trkpt>
      <trkpt lat="40.65363" lon="0.63956">
        <ele>12.8</ele>
        <time>2022-05-24 20:46:51</time>
      </trkpt>
      <trkpt lat="40.65365" lon="0.63961">
        <ele>12.6</ele>
        <time>2022-05-24 20:46:52</time>
      </trkpt>
      <trkpt lat="40.65366" lon="0.63966">
        <ele>12.4</ele>
        <time>2022-05-24 20:46:53</time>
      </trkpt>
      <trkpt lat="40.65368" lon="0.63971">
        <ele>12.2</ele>
        <time>2022-05-24 20:46:54</time>
      </trkpt>
      <trkpt lat="40.6537" lon="0.63976">
        <ele>12.2</ele>
        <time>2022-05-24 20:46:55</time>
      </trkpt>
      <trkpt lat="40.65372" lon="0.63981">
        <ele>12</ele>
        <time>2022-05-24 20:46:56</time>
      </trkpt>
      <trkpt lat="40.65373" lon="0.63986">
        <ele>11.8</ele>
        <time>2022-05-24 20:46:57</time>
      </trkpt>
      <trkpt lat="40.65375" lon="0.63991">
        <ele>11.8</ele>
        <time>2022-05-24 20:46:58</time>
      </trkpt>
      <trkpt lat="40.65376" lon="0.63996">
        <ele>11.6</ele>
        <time>2022-05-24 20:46:59</time>
      </trkpt>
      <trkpt lat="40.65378" lon="0.64001">
        <ele>11.6</ele>
        <time>2022-05-24 20:47:00</time>
      </trkpt>
      <trkpt lat="40.65379" lon="0.64006">
        <ele>11.4</ele>
        <time>2022-05-24 20:47:01</time>
      </trkpt>
      <trkpt lat="40.65381" lon="0.6401">
        <ele>11.4</ele>
        <time>2022-05-24 20:47:02</time>
      </trkpt>
      <trkpt lat="40.65382" lon="0.64015">
        <ele>11.4</ele>
        <time>2022-05-24 20:47:03</time>
      </trkpt>
      <trkpt lat="40.65384" lon="0.6402">
        <ele>11.2</ele>
        <time>2022-05-24 20:47:04</time>
      </trkpt>
      <trkpt lat="40.65386" lon="0.64024">
        <ele>11.2</ele>
        <time>2022-05-24 20:47:05</time>
      </trkpt>
      <trkpt lat="40.65387" lon="0.64029">
        <ele>11.2</ele>
        <time>2022-05-24 20:47:06</time>
      </trkpt>
      <trkpt lat="40.65389" lon="0.64034">
        <ele>11.2</ele>
        <time>2022-05-24 20:47:07</time>
      </trkpt>
      <trkpt lat="40.65391" lon="0.64039">
        <ele>11.2</ele>
        <time>2022-05-24 20:47:08</time>
      </trkpt>
      <trkpt lat="40.65393" lon="0.64044">
        <ele>11.2</ele>
        <time>2022-05-24 20:47:09</time>
      </trkpt>
      <trkpt lat="40.65395" lon="0.64049">
        <ele>11.2</ele>
        <time>2022-05-24 20:47:10</time>
      </trkpt>
      <trkpt lat="40.65397" lon="0.64054">
        <ele>11.2</ele>
        <time>2022-05-24 20:47:11</time>
      </trkpt>
      <trkpt lat="40.65398" lon="0.6406">
        <ele>11</ele>
        <time>2022-05-24 20:47:12</time>
      </trkpt>
      <trkpt lat="40.654" lon="0.64065">
        <ele>11</ele>
        <time>2022-05-24 20:47:13</time>
      </trkpt>
      <trkpt lat="40.65401" lon="0.64071">
        <ele>11</ele>
        <time>2022-05-24 20:47:14</time>
      </trkpt>
      <trkpt lat="40.65403" lon="0.64076">
        <ele>11</ele>
        <time>2022-05-24 20:47:15</time>
      </trkpt>
      <trkpt lat="40.65405" lon="0.64082">
        <ele>11</ele>
        <time>2022-05-24 20:47:16</time>
      </trkpt>
      <trkpt lat="40.65407" lon="0.64087">
        <ele>11</ele>
        <time>2022-05-24 20:47:17</time>
      </trkpt>
      <trkpt lat="40.65409" lon="0.64093">
        <ele>11</ele>
        <time>2022-05-24 20:47:18</time>
      </trkpt>
      <trkpt lat="40.65411" lon="0.64098">
        <ele>10.8</ele>
        <time>2022-05-24 20:47:19</time>
      </trkpt>
      <trkpt lat="40.65413" lon="0.64104">
        <ele>10.8</ele>
        <time>2022-05-24 20:47:20</time>
      </trkpt>
      <trkpt lat="40.65415" lon="0.64109">
        <ele>10.8</ele>
        <time>2022-05-24 20:47:21</time>
      </trkpt>
      <trkpt lat="40.65417" lon="0.64114">
        <ele>10.8</ele>
        <time>2022-05-24 20:47:22</time>
      </trkpt>
      <trkpt lat="40.65418" lon="0.6412">
        <ele>10.8</ele>
        <time>2022-05-24 20:47:23</time>
      </trkpt>
      <trkpt lat="40.6542" lon="0.64126">
        <ele>10.8</ele>
        <time>2022-05-24 20:47:24</time>
      </trkpt>
      <trkpt lat="40.65422" lon="0.64131">
        <ele>10.8</ele>
        <time>2022-05-24 20:47:25</time>
      </trkpt>
      <trkpt lat="40.65424" lon="0.64137">
        <ele>10.8</ele>
        <time>2022-05-24 20:47:26</time>
      </trkpt>
      <trkpt lat="40.65425" lon="0.64142">
        <ele>10.8</ele>
        <time>2022-05-24 20:47:27</time>
      </trkpt>
      <trkpt lat="40.65427" lon="0.64148">
        <ele>10.8</ele>
        <time>2022-05-24 20:47:28</time>
      </trkpt>
      <trkpt lat="40.65429" lon="0.64153">
        <ele>10.8</ele>
        <time>2022-05-24 20:47:29</time>
      </trkpt>
      <trkpt lat="40.65431" lon="0.64158">
        <ele>10.8</ele>
        <time>2022-05-24 20:47:30</time>
      </trkpt>
      <trkpt lat="40.65433" lon="0.64164">
        <ele>10.8</ele>
        <time>2022-05-24 20:47:31</time>
      </trkpt>
      <trkpt lat="40.65434" lon="0.64169">
        <ele>10.6</ele>
        <time>2022-05-24 20:47:32</time>
      </trkpt>
      <trkpt lat="40.65436" lon="0.64174">
        <ele>10.6</ele>
        <time>2022-05-24 20:47:33</time>
      </trkpt>
      <trkpt lat="40.65438" lon="0.6418">
        <ele>10.6</ele>
        <time>2022-05-24 20:47:34</time>
      </trkpt>
      <trkpt lat="40.6544" lon="0.64185">
        <ele>10.6</ele>
        <time>2022-05-24 20:47:35</time>
      </trkpt>
      <trkpt lat="40.65442" lon="0.6419">
        <ele>10.6</ele>
        <time>2022-05-24 20:47:36</time>
      </trkpt>
      <trkpt lat="40.65443" lon="0.64196">
        <ele>10.6</ele>
        <time>2022-05-24 20:47:37</time>
      </trkpt>
      <trkpt lat="40.65445" lon="0.64201">
        <ele>10.6</ele>
        <time>2022-05-24 20:47:38</time>
      </trkpt>
      <trkpt lat="40.65447" lon="0.64207">
        <ele>10.6</ele>
        <time>2022-05-24 20:47:39</time>
      </trkpt>
      <trkpt lat="40.65449" lon="0.64212">
        <ele>10.6</ele>
        <time>2022-05-24 20:47:40</time>
      </trkpt>
      <trkpt lat="40.65451" lon="0.64218">
        <ele>10.6</ele>
        <time>2022-05-24 20:47:41</time>
      </trkpt>
      <trkpt lat="40.65453" lon="0.64224">
        <ele>10.6</ele>
        <time>2022-05-24 20:47:42</time>
      </trkpt>
      <trkpt lat="40.65454" lon="0.64229">
        <ele>10.6</ele>
        <time>2022-05-24 20:47:43</time>
      </trkpt>
      <trkpt lat="40.65456" lon="0.64235">
        <ele>10.6</ele>
        <time>2022-05-24 20:47:44</time>
      </trkpt>
      <trkpt lat="40.65458" lon="0.64241">
        <ele>10.6</ele>
        <time>2022-05-24 20:47:45</time>
      </trkpt>
      <trkpt lat="40.6546" lon="0.64246">
        <ele>10.6</ele>
        <time>2022-05-24 20:47:46</time>
      </trkpt>
      <trkpt lat="40.65462" lon="0.64252">
        <ele>10.6</ele>
        <time>2022-05-24 20:47:47</time>
      </trkpt>
      <trkpt lat="40.65464" lon="0.64258">
        <ele>10.6</ele>
        <time>2022-05-24 20:47:48</time>
      </trkpt>
      <trkpt lat="40.65466" lon="0.64264">
        <ele>10.4</ele>
        <time>2022-05-24 20:47:49</time>
      </trkpt>
      <trkpt lat="40.65468" lon="0.64269">
        <ele>10.4</ele>
        <time>2022-05-24 20:47:50</time>
      </trkpt>
      <trkpt lat="40.6547" lon="0.64275">
        <ele>10.6</ele>
        <time>2022-05-24 20:47:51</time>
      </trkpt>
      <trkpt lat="40.65472" lon="0.64281">
        <ele>10.6</ele>
        <time>2022-05-24 20:47:52</time>
      </trkpt>
      <trkpt lat="40.65474" lon="0.64286">
        <ele>10.6</ele>
        <time>2022-05-24 20:47:53</time>
      </trkpt>
      <trkpt lat="40.65476" lon="0.64292">
        <ele>10.6</ele>
        <time>2022-05-24 20:47:54</time>
      </trkpt>
      <trkpt lat="40.65478" lon="0.64297">
        <ele>10.8</ele>
        <time>2022-05-24 20:47:55</time>
      </trkpt>
      <trkpt lat="40.65479" lon="0.64302">
        <ele>10.8</ele>
        <time>2022-05-24 20:47:56</time>
      </trkpt>
      <trkpt lat="40.6548" lon="0.64306">
        <ele>11</ele>
        <time>2022-05-24 20:47:57</time>
      </trkpt>
      <trkpt lat="40.65481" lon="0.64309">
        <ele>11.2</ele>
        <time>2022-05-24 20:47:58</time>
      </trkpt>
      <trkpt lat="40.65482" lon="0.64311">
        <ele>11.4</ele>
        <time>2022-05-24 20:47:59</time>
      </trkpt>
      <trkpt lat="40.65483" lon="0.64314">
        <ele>11.4</ele>
        <time>2022-05-24 20:48:00</time>
      </trkpt>
      <trkpt lat="40.65485" lon="0.64318">
        <ele>11.4</ele>
        <time>2022-05-24 20:48:01</time>
      </trkpt>
      <trkpt lat="40.65485" lon="0.64321">
        <ele>11.4</ele>
        <time>2022-05-24 20:48:02</time>
      </trkpt>
      <trkpt lat="40.65487" lon="0.64325">
        <ele>11.4</ele>
        <time>2022-05-24 20:48:03</time>
      </trkpt>
      <trkpt lat="40.65488" lon="0.64328">
        <ele>11.4</ele>
        <time>2022-05-24 20:48:04</time>
      </trkpt>
      <trkpt lat="40.65489" lon="0.64332">
        <ele>11.4</ele>
        <time>2022-05-24 20:48:05</time>
      </trkpt>
      <trkpt lat="40.6549" lon="0.64335">
        <ele>11.4</ele>
        <time>2022-05-24 20:48:06</time>
      </trkpt>
      <trkpt lat="40.6549" lon="0.64338">
        <ele>11.4</ele>
        <time>2022-05-24 20:48:07</time>
      </trkpt>
      <trkpt lat="40.65491" lon="0.64341">
        <ele>11.4</ele>
        <time>2022-05-24 20:48:08</time>
      </trkpt>
      <trkpt lat="40.65493" lon="0.64345">
        <ele>11.4</ele>
        <time>2022-05-24 20:48:09</time>
      </trkpt>
      <trkpt lat="40.65494" lon="0.64348">
        <ele>11.2</ele>
        <time>2022-05-24 20:48:10</time>
      </trkpt>
      <trkpt lat="40.65495" lon="0.64353">
        <ele>11.2</ele>
        <time>2022-05-24 20:48:11</time>
      </trkpt>
      <trkpt lat="40.65497" lon="0.64357">
        <ele>11</ele>
        <time>2022-05-24 20:48:12</time>
      </trkpt>
      <trkpt lat="40.65499" lon="0.64362">
        <ele>11</ele>
        <time>2022-05-24 20:48:13</time>
      </trkpt>
      <trkpt lat="40.655" lon="0.64367">
        <ele>10.8</ele>
        <time>2022-05-24 20:48:14</time>
      </trkpt>
      <trkpt lat="40.65503" lon="0.64372">
        <ele>10.8</ele>
        <time>2022-05-24 20:48:15</time>
      </trkpt>
      <trkpt lat="40.65504" lon="0.64377">
        <ele>10.6</ele>
        <time>2022-05-24 20:48:16</time>
      </trkpt>
      <trkpt lat="40.65505" lon="0.64382">
        <ele>10.6</ele>
        <time>2022-05-24 20:48:17</time>
      </trkpt>
      <trkpt lat="40.65506" lon="0.64386">
        <ele>10.4</ele>
        <time>2022-05-24 20:48:18</time>
      </trkpt>
      <trkpt lat="40.65509" lon="0.64393">
        <ele>10.4</ele>
        <time>2022-05-24 20:48:19</time>
      </trkpt>
      <trkpt lat="40.6551" lon="0.64399">
        <ele>10.2</ele>
        <time>2022-05-24 20:48:20</time>
      </trkpt>
      <trkpt lat="40.65512" lon="0.64404">
        <ele>10.2</ele>
        <time>2022-05-24 20:48:21</time>
      </trkpt>
      <trkpt lat="40.65514" lon="0.6441">
        <ele>10.2</ele>
        <time>2022-05-24 20:48:22</time>
      </trkpt>
      <trkpt lat="40.65516" lon="0.64415">
        <ele>10.2</ele>
        <time>2022-05-24 20:48:23</time>
      </trkpt>
      <trkpt lat="40.65517" lon="0.64421">
        <ele>10.2</ele>
        <time>2022-05-24 20:48:24</time>
      </trkpt>
      <trkpt lat="40.65519" lon="0.64427">
        <ele>10.2</ele>
        <time>2022-05-24 20:48:25</time>
      </trkpt>
      <trkpt lat="40.65521" lon="0.64432">
        <ele>10</ele>
        <time>2022-05-24 20:48:26</time>
      </trkpt>
      <trkpt lat="40.65523" lon="0.64438">
        <ele>10</ele>
        <time>2022-05-24 20:48:27</time>
      </trkpt>
      <trkpt lat="40.65525" lon="0.64443">
        <ele>10.2</ele>
        <time>2022-05-24 20:48:28</time>
      </trkpt>
      <trkpt lat="40.65527" lon="0.64448">
        <ele>10.2</ele>
        <time>2022-05-24 20:48:29</time>
      </trkpt>
      <trkpt lat="40.65528" lon="0.64453">
        <ele>10.4</ele>
        <time>2022-05-24 20:48:30</time>
      </trkpt>
      <trkpt lat="40.6553" lon="0.64458">
        <ele>10.4</ele>
        <time>2022-05-24 20:48:31</time>
      </trkpt>
      <trkpt lat="40.65532" lon="0.64463">
        <ele>10.6</ele>
        <time>2022-05-24 20:48:32</time>
      </trkpt>
      <trkpt lat="40.65533" lon="0.64467">
        <ele>10.6</ele>
        <time>2022-05-24 20:48:33</time>
      </trkpt>
      <trkpt lat="40.65535" lon="0.64472">
        <ele>10.6</ele>
        <time>2022-05-24 20:48:34</time>
      </trkpt>
      <trkpt lat="40.65536" lon="0.64477">
        <ele>10.6</ele>
        <time>2022-05-24 20:48:35</time>
      </trkpt>
      <trkpt lat="40.65538" lon="0.64481">
        <ele>10.6</ele>
        <time>2022-05-24 20:48:36</time>
      </trkpt>
      <trkpt lat="40.6554" lon="0.64486">
        <ele>10.6</ele>
        <time>2022-05-24 20:48:37</time>
      </trkpt>
      <trkpt lat="40.65541" lon="0.64491">
        <ele>10.6</ele>
        <time>2022-05-24 20:48:38</time>
      </trkpt>
      <trkpt lat="40.65543" lon="0.64496">
        <ele>10.6</ele>
        <time>2022-05-24 20:48:39</time>
      </trkpt>
      <trkpt lat="40.65544" lon="0.64501">
        <ele>10.6</ele>
        <time>2022-05-24 20:48:40</time>
      </trkpt>
      <trkpt lat="40.65546" lon="0.64505">
        <ele>10.8</ele>
        <time>2022-05-24 20:48:41</time>
      </trkpt>
      <trkpt lat="40.65547" lon="0.6451">
        <ele>10.8</ele>
        <time>2022-05-24 20:48:42</time>
      </trkpt>
      <trkpt lat="40.65549" lon="0.64514">
        <ele>10.8</ele>
        <time>2022-05-24 20:48:43</time>
      </trkpt>
      <trkpt lat="40.6555" lon="0.64518">
        <ele>10.6</ele>
        <time>2022-05-24 20:48:44</time>
      </trkpt>
      <trkpt lat="40.65552" lon="0.64523">
        <ele>10.6</ele>
        <time>2022-05-24 20:48:45</time>
      </trkpt>
      <trkpt lat="40.65553" lon="0.64527">
        <ele>10.6</ele>
        <time>2022-05-24 20:48:46</time>
      </trkpt>
      <trkpt lat="40.65555" lon="0.64531">
        <ele>10.8</ele>
        <time>2022-05-24 20:48:47</time>
      </trkpt>
      <trkpt lat="40.65556" lon="0.64536">
        <ele>10.8</ele>
        <time>2022-05-24 20:48:48</time>
      </trkpt>
      <trkpt lat="40.65557" lon="0.6454">
        <ele>10.8</ele>
        <time>2022-05-24 20:48:49</time>
      </trkpt>
      <trkpt lat="40.65559" lon="0.64545">
        <ele>10.6</ele>
        <time>2022-05-24 20:48:50</time>
      </trkpt>
      <trkpt lat="40.65561" lon="0.6455">
        <ele>10.6</ele>
        <time>2022-05-24 20:48:51</time>
      </trkpt>
      <trkpt lat="40.65562" lon="0.64554">
        <ele>10.6</ele>
        <time>2022-05-24 20:48:52</time>
      </trkpt>
      <trkpt lat="40.65564" lon="0.64558">
        <ele>10.6</ele>
        <time>2022-05-24 20:48:53</time>
      </trkpt>
      <trkpt lat="40.65565" lon="0.64563">
        <ele>10.6</ele>
        <time>2022-05-24 20:48:54</time>
      </trkpt>
      <trkpt lat="40.65567" lon="0.64567">
        <ele>10.6</ele>
        <time>2022-05-24 20:48:55</time>
      </trkpt>
      <trkpt lat="40.65569" lon="0.64572">
        <ele>10.6</ele>
        <time>2022-05-24 20:48:56</time>
      </trkpt>
      <trkpt lat="40.6557" lon="0.64576">
        <ele>10.8</ele>
        <time>2022-05-24 20:48:57</time>
      </trkpt>
      <trkpt lat="40.65571" lon="0.6458">
        <ele>11</ele>
        <time>2022-05-24 20:48:58</time>
      </trkpt>
      <trkpt lat="40.65573" lon="0.64584">
        <ele>11.4</ele>
        <time>2022-05-24 20:48:59</time>
      </trkpt>
      <trkpt lat="40.65574" lon="0.64589">
        <ele>11.6</ele>
        <time>2022-05-24 20:49:00</time>
      </trkpt>
      <trkpt lat="40.65576" lon="0.64593">
        <ele>11.8</ele>
        <time>2022-05-24 20:49:01</time>
      </trkpt>
      <trkpt lat="40.65578" lon="0.64598">
        <ele>11.8</ele>
        <time>2022-05-24 20:49:02</time>
      </trkpt>
      <trkpt lat="40.65579" lon="0.64602">
        <ele>12</ele>
        <time>2022-05-24 20:49:03</time>
      </trkpt>
      <trkpt lat="40.6558" lon="0.64607">
        <ele>11.8</ele>
        <time>2022-05-24 20:49:04</time>
      </trkpt>
      <trkpt lat="40.65582" lon="0.64611">
        <ele>11.6</ele>
        <time>2022-05-24 20:49:05</time>
      </trkpt>
      <trkpt lat="40.65583" lon="0.64616">
        <ele>11.6</ele>
        <time>2022-05-24 20:49:06</time>
      </trkpt>
      <trkpt lat="40.65585" lon="0.64621">
        <ele>11.4</ele>
        <time>2022-05-24 20:49:07</time>
      </trkpt>
      <trkpt lat="40.65586" lon="0.64626">
        <ele>11.2</ele>
        <time>2022-05-24 20:49:08</time>
      </trkpt>
      <trkpt lat="40.65588" lon="0.6463">
        <ele>11.2</ele>
        <time>2022-05-24 20:49:09</time>
      </trkpt>
      <trkpt lat="40.6559" lon="0.64635">
        <ele>11.2</ele>
        <time>2022-05-24 20:49:10</time>
      </trkpt>
      <trkpt lat="40.65591" lon="0.6464">
        <ele>11.2</ele>
        <time>2022-05-24 20:49:11</time>
      </trkpt>
      <trkpt lat="40.65593" lon="0.64644">
        <ele>11.2</ele>
        <time>2022-05-24 20:49:12</time>
      </trkpt>
      <trkpt lat="40.65594" lon="0.64648">
        <ele>11.2</ele>
        <time>2022-05-24 20:49:13</time>
      </trkpt>
      <trkpt lat="40.65596" lon="0.64653">
        <ele>11.2</ele>
        <time>2022-05-24 20:49:14</time>
      </trkpt>
      <trkpt lat="40.65597" lon="0.64657">
        <ele>11.2</ele>
        <time>2022-05-24 20:49:15</time>
      </trkpt>
      <trkpt lat="40.65599" lon="0.64661">
        <ele>11.2</ele>
        <time>2022-05-24 20:49:16</time>
      </trkpt>
      <trkpt lat="40.65601" lon="0.64667">
        <ele>11</ele>
        <time>2022-05-24 20:49:17</time>
      </trkpt>
      <trkpt lat="40.65603" lon="0.64672">
        <ele>11</ele>
        <time>2022-05-24 20:49:18</time>
      </trkpt>
      <trkpt lat="40.65604" lon="0.64677">
        <ele>10.8</ele>
        <time>2022-05-24 20:49:19</time>
      </trkpt>
      <trkpt lat="40.65606" lon="0.64683">
        <ele>10.8</ele>
        <time>2022-05-24 20:49:20</time>
      </trkpt>
      <trkpt lat="40.65608" lon="0.64688">
        <ele>10.8</ele>
        <time>2022-05-24 20:49:21</time>
      </trkpt>
      <trkpt lat="40.6561" lon="0.64693">
        <ele>10.6</ele>
        <time>2022-05-24 20:49:22</time>
      </trkpt>
      <trkpt lat="40.65612" lon="0.64699">
        <ele>10.6</ele>
        <time>2022-05-24 20:49:23</time>
      </trkpt>
      <trkpt lat="40.65614" lon="0.64704">
        <ele>10.6</ele>
        <time>2022-05-24 20:49:24</time>
      </trkpt>
      <trkpt lat="40.65615" lon="0.64709">
        <ele>10.6</ele>
        <time>2022-05-24 20:49:25</time>
      </trkpt>
      <trkpt lat="40.65617" lon="0.64715">
        <ele>10.6</ele>
        <time>2022-05-24 20:49:26</time>
      </trkpt>
      <trkpt lat="40.65619" lon="0.6472">
        <ele>10.6</ele>
        <time>2022-05-24 20:49:27</time>
      </trkpt>
      <trkpt lat="40.65621" lon="0.64726">
        <ele>10.6</ele>
        <time>2022-05-24 20:49:28</time>
      </trkpt>
      <trkpt lat="40.65623" lon="0.64732">
        <ele>10.6</ele>
        <time>2022-05-24 20:49:29</time>
      </trkpt>
      <trkpt lat="40.65625" lon="0.64738">
        <ele>10.4</ele>
        <time>2022-05-24 20:49:30</time>
      </trkpt>
      <trkpt lat="40.65627" lon="0.64743">
        <ele>10.4</ele>
        <time>2022-05-24 20:49:31</time>
      </trkpt>
      <trkpt lat="40.65629" lon="0.64749">
        <ele>10.4</ele>
        <time>2022-05-24 20:49:32</time>
      </trkpt>
      <trkpt lat="40.65631" lon="0.64754">
        <ele>10.4</ele>
        <time>2022-05-24 20:49:33</time>
      </trkpt>
      <trkpt lat="40.65632" lon="0.6476">
        <ele>10.4</ele>
        <time>2022-05-24 20:49:34</time>
      </trkpt>
      <trkpt lat="40.65635" lon="0.64766">
        <ele>10.4</ele>
        <time>2022-05-24 20:49:35</time>
      </trkpt>
      <trkpt lat="40.65636" lon="0.6477">
        <ele>10.4</ele>
        <time>2022-05-24 20:49:36</time>
      </trkpt>
      <trkpt lat="40.65639" lon="0.64777">
        <ele>10.4</ele>
        <time>2022-05-24 20:49:37</time>
      </trkpt>
      <trkpt lat="40.65641" lon="0.64782">
        <ele>10.4</ele>
        <time>2022-05-24 20:49:38</time>
      </trkpt>
      <trkpt lat="40.65643" lon="0.64788">
        <ele>10.2</ele>
        <time>2022-05-24 20:49:39</time>
      </trkpt>
      <trkpt lat="40.65644" lon="0.64793">
        <ele>10.2</ele>
        <time>2022-05-24 20:49:40</time>
      </trkpt>
      <trkpt lat="40.65646" lon="0.64799">
        <ele>10.2</ele>
        <time>2022-05-24 20:49:41</time>
      </trkpt>
      <trkpt lat="40.65648" lon="0.64805">
        <ele>10.2</ele>
        <time>2022-05-24 20:49:42</time>
      </trkpt>
      <trkpt lat="40.6565" lon="0.64811">
        <ele>10.2</ele>
        <time>2022-05-24 20:49:43</time>
      </trkpt>
      <trkpt lat="40.65651" lon="0.64816">
        <ele>10.2</ele>
        <time>2022-05-24 20:49:44</time>
      </trkpt>
      <trkpt lat="40.65653" lon="0.64822">
        <ele>10.2</ele>
        <time>2022-05-24 20:49:45</time>
      </trkpt>
      <trkpt lat="40.65656" lon="0.64828">
        <ele>10.2</ele>
        <time>2022-05-24 20:49:46</time>
      </trkpt>
      <trkpt lat="40.65657" lon="0.64833">
        <ele>10.2</ele>
        <time>2022-05-24 20:49:47</time>
      </trkpt>
      <trkpt lat="40.65659" lon="0.64839">
        <ele>10.2</ele>
        <time>2022-05-24 20:49:48</time>
      </trkpt>
      <trkpt lat="40.6566" lon="0.64844">
        <ele>10.2</ele>
        <time>2022-05-24 20:49:49</time>
      </trkpt>
      <trkpt lat="40.65663" lon="0.6485">
        <ele>10.2</ele>
        <time>2022-05-24 20:49:50</time>
      </trkpt>
      <trkpt lat="40.65665" lon="0.64856">
        <ele>10.2</ele>
        <time>2022-05-24 20:49:51</time>
      </trkpt>
      <trkpt lat="40.65666" lon="0.64861">
        <ele>10.2</ele>
        <time>2022-05-24 20:49:52</time>
      </trkpt>
      <trkpt lat="40.65668" lon="0.64867">
        <ele>10.2</ele>
        <time>2022-05-24 20:49:53</time>
      </trkpt>
      <trkpt lat="40.6567" lon="0.64873">
        <ele>10.2</ele>
        <time>2022-05-24 20:49:54</time>
      </trkpt>
      <trkpt lat="40.65672" lon="0.64879">
        <ele>10.2</ele>
        <time>2022-05-24 20:49:55</time>
      </trkpt>
      <trkpt lat="40.65674" lon="0.64884">
        <ele>10.2</ele>
        <time>2022-05-24 20:49:56</time>
      </trkpt>
      <trkpt lat="40.65676" lon="0.6489">
        <ele>10.2</ele>
        <time>2022-05-24 20:49:57</time>
      </trkpt>
      <trkpt lat="40.65678" lon="0.64896">
        <ele>10.2</ele>
        <time>2022-05-24 20:49:58</time>
      </trkpt>
      <trkpt lat="40.65679" lon="0.64901">
        <ele>10.2</ele>
        <time>2022-05-24 20:49:59</time>
      </trkpt>
      <trkpt lat="40.65682" lon="0.64909">
        <ele>10.2</ele>
        <time>2022-05-24 20:50:00</time>
      </trkpt>
      <trkpt lat="40.65684" lon="0.64915">
        <ele>10.2</ele>
        <time>2022-05-24 20:50:01</time>
      </trkpt>
      <trkpt lat="40.65686" lon="0.64922">
        <ele>10.2</ele>
        <time>2022-05-24 20:50:02</time>
      </trkpt>
      <trkpt lat="40.65689" lon="0.64928">
        <ele>10.2</ele>
        <time>2022-05-24 20:50:03</time>
      </trkpt>
      <trkpt lat="40.65691" lon="0.64935">
        <ele>10.2</ele>
        <time>2022-05-24 20:50:04</time>
      </trkpt>
      <trkpt lat="40.65693" lon="0.64942">
        <ele>10.2</ele>
        <time>2022-05-24 20:50:05</time>
      </trkpt>
      <trkpt lat="40.65696" lon="0.64949">
        <ele>10.2</ele>
        <time>2022-05-24 20:50:06</time>
      </trkpt>
      <trkpt lat="40.65698" lon="0.64956">
        <ele>10.2</ele>
        <time>2022-05-24 20:50:07</time>
      </trkpt>
      <trkpt lat="40.657" lon="0.64962">
        <ele>10.4</ele>
        <time>2022-05-24 20:50:08</time>
      </trkpt>
      <trkpt lat="40.65702" lon="0.64968">
        <ele>10.4</ele>
        <time>2022-05-24 20:50:09</time>
      </trkpt>
      <trkpt lat="40.65704" lon="0.64974">
        <ele>10.8</ele>
        <time>2022-05-24 20:50:10</time>
      </trkpt>
      <trkpt lat="40.65706" lon="0.64979">
        <ele>11</ele>
        <time>2022-05-24 20:50:11</time>
      </trkpt>
      <trkpt lat="40.65708" lon="0.64984">
        <ele>11.4</ele>
        <time>2022-05-24 20:50:12</time>
      </trkpt>
      <trkpt lat="40.6571" lon="0.64989">
        <ele>11.4</ele>
        <time>2022-05-24 20:50:13</time>
      </trkpt>
      <trkpt lat="40.65712" lon="0.64995">
        <ele>11.4</ele>
        <time>2022-05-24 20:50:14</time>
      </trkpt>
      <trkpt lat="40.65714" lon="0.65002">
        <ele>11.2</ele>
        <time>2022-05-24 20:50:15</time>
      </trkpt>
      <trkpt lat="40.65716" lon="0.65009">
        <ele>11.2</ele>
        <time>2022-05-24 20:50:16</time>
      </trkpt>
      <trkpt lat="40.65718" lon="0.65015">
        <ele>11</ele>
        <time>2022-05-24 20:50:17</time>
      </trkpt>
      <trkpt lat="40.6572" lon="0.65022">
        <ele>10.8</ele>
        <time>2022-05-24 20:50:18</time>
      </trkpt>
      <trkpt lat="40.65722" lon="0.65029">
        <ele>10.6</ele>
        <time>2022-05-24 20:50:19</time>
      </trkpt>
      <trkpt lat="40.65724" lon="0.65035">
        <ele>10.6</ele>
        <time>2022-05-24 20:50:20</time>
      </trkpt>
      <trkpt lat="40.65726" lon="0.65041">
        <ele>10.4</ele>
        <time>2022-05-24 20:50:21</time>
      </trkpt>
      <trkpt lat="40.65728" lon="0.65048">
        <ele>10.4</ele>
        <time>2022-05-24 20:50:22</time>
      </trkpt>
      <trkpt lat="40.6573" lon="0.65054">
        <ele>10.4</ele>
        <time>2022-05-24 20:50:23</time>
      </trkpt>
      <trkpt lat="40.65732" lon="0.65059">
        <ele>10.4</ele>
        <time>2022-05-24 20:50:24</time>
      </trkpt>
      <trkpt lat="40.65734" lon="0.65065">
        <ele>10.4</ele>
        <time>2022-05-24 20:50:25</time>
      </trkpt>
      <trkpt lat="40.65735" lon="0.65071">
        <ele>10.4</ele>
        <time>2022-05-24 20:50:26</time>
      </trkpt>
      <trkpt lat="40.65738" lon="0.65077">
        <ele>10.2</ele>
        <time>2022-05-24 20:50:27</time>
      </trkpt>
      <trkpt lat="40.65739" lon="0.65082">
        <ele>10.2</ele>
        <time>2022-05-24 20:50:28</time>
      </trkpt>
      <trkpt lat="40.65742" lon="0.65087">
        <ele>10.2</ele>
        <time>2022-05-24 20:50:29</time>
      </trkpt>
      <trkpt lat="40.65744" lon="0.65093">
        <ele>10.2</ele>
        <time>2022-05-24 20:50:30</time>
      </trkpt>
      <trkpt lat="40.65746" lon="0.65099">
        <ele>10.2</ele>
        <time>2022-05-24 20:50:31</time>
      </trkpt>
      <trkpt lat="40.65747" lon="0.65104">
        <ele>10.2</ele>
        <time>2022-05-24 20:50:32</time>
      </trkpt>
      <trkpt lat="40.65749" lon="0.6511">
        <ele>10.2</ele>
        <time>2022-05-24 20:50:33</time>
      </trkpt>
      <trkpt lat="40.65751" lon="0.65116">
        <ele>10.2</ele>
        <time>2022-05-24 20:50:34</time>
      </trkpt>
      <trkpt lat="40.65753" lon="0.65122">
        <ele>10.2</ele>
        <time>2022-05-24 20:50:35</time>
      </trkpt>
      <trkpt lat="40.65755" lon="0.65127">
        <ele>10.2</ele>
        <time>2022-05-24 20:50:36</time>
      </trkpt>
      <trkpt lat="40.65757" lon="0.65133">
        <ele>10.2</ele>
        <time>2022-05-24 20:50:37</time>
      </trkpt>
      <trkpt lat="40.65759" lon="0.65138">
        <ele>10.2</ele>
        <time>2022-05-24 20:50:38</time>
      </trkpt>
      <trkpt lat="40.6576" lon="0.65144">
        <ele>10.2</ele>
        <time>2022-05-24 20:50:39</time>
      </trkpt>
      <trkpt lat="40.65762" lon="0.6515">
        <ele>10.2</ele>
        <time>2022-05-24 20:50:40</time>
      </trkpt>
      <trkpt lat="40.65764" lon="0.65155">
        <ele>10.2</ele>
        <time>2022-05-24 20:50:41</time>
      </trkpt>
      <trkpt lat="40.65766" lon="0.65161">
        <ele>10</ele>
        <time>2022-05-24 20:50:42</time>
      </trkpt>
      <trkpt lat="40.65768" lon="0.65166">
        <ele>10</ele>
        <time>2022-05-24 20:50:43</time>
      </trkpt>
      <trkpt lat="40.65769" lon="0.65172">
        <ele>10</ele>
        <time>2022-05-24 20:50:44</time>
      </trkpt>
      <trkpt lat="40.65771" lon="0.65177">
        <ele>10</ele>
        <time>2022-05-24 20:50:45</time>
      </trkpt>
      <trkpt lat="40.65773" lon="0.65183">
        <ele>10</ele>
        <time>2022-05-24 20:50:46</time>
      </trkpt>
      <trkpt lat="40.65775" lon="0.65189">
        <ele>10</ele>
        <time>2022-05-24 20:50:47</time>
      </trkpt>
      <trkpt lat="40.65777" lon="0.65194">
        <ele>10</ele>
        <time>2022-05-24 20:50:48</time>
      </trkpt>
      <trkpt lat="40.65779" lon="0.652">
        <ele>10</ele>
        <time>2022-05-24 20:50:49</time>
      </trkpt>
      <trkpt lat="40.6578" lon="0.65204">
        <ele>9.8</ele>
        <time>2022-05-24 20:50:50</time>
      </trkpt>
      <trkpt lat="40.65783" lon="0.65212">
        <ele>9.8</ele>
        <time>2022-05-24 20:50:51</time>
      </trkpt>
      <trkpt lat="40.65784" lon="0.65217">
        <ele>9.8</ele>
        <time>2022-05-24 20:50:52</time>
      </trkpt>
      <trkpt lat="40.65787" lon="0.65224">
        <ele>9.8</ele>
        <time>2022-05-24 20:50:53</time>
      </trkpt>
      <trkpt lat="40.65789" lon="0.6523">
        <ele>9.8</ele>
        <time>2022-05-24 20:50:54</time>
      </trkpt>
      <trkpt lat="40.65791" lon="0.65236">
        <ele>9.8</ele>
        <time>2022-05-24 20:50:55</time>
      </trkpt>
      <trkpt lat="40.65793" lon="0.65242">
        <ele>9.8</ele>
        <time>2022-05-24 20:50:56</time>
      </trkpt>
      <trkpt lat="40.65795" lon="0.65248">
        <ele>9.8</ele>
        <time>2022-05-24 20:50:57</time>
      </trkpt>
      <trkpt lat="40.65797" lon="0.65254">
        <ele>9.8</ele>
        <time>2022-05-24 20:50:58</time>
      </trkpt>
      <trkpt lat="40.65799" lon="0.6526">
        <ele>9.8</ele>
        <time>2022-05-24 20:50:59</time>
      </trkpt>
      <trkpt lat="40.65802" lon="0.65267">
        <ele>9.8</ele>
        <time>2022-05-24 20:51:00</time>
      </trkpt>
      <trkpt lat="40.65804" lon="0.65273">
        <ele>9.8</ele>
        <time>2022-05-24 20:51:01</time>
      </trkpt>
      <trkpt lat="40.65806" lon="0.6528">
        <ele>9.8</ele>
        <time>2022-05-24 20:51:02</time>
      </trkpt>
      <trkpt lat="40.65808" lon="0.65286">
        <ele>9.6</ele>
        <time>2022-05-24 20:51:03</time>
      </trkpt>
      <trkpt lat="40.6581" lon="0.65293">
        <ele>9.6</ele>
        <time>2022-05-24 20:51:04</time>
      </trkpt>
      <trkpt lat="40.65812" lon="0.65299">
        <ele>9.6</ele>
        <time>2022-05-24 20:51:05</time>
      </trkpt>
      <trkpt lat="40.65814" lon="0.65306">
        <ele>9.8</ele>
        <time>2022-05-24 20:51:06</time>
      </trkpt>
      <trkpt lat="40.65816" lon="0.65313">
        <ele>9.8</ele>
        <time>2022-05-24 20:51:07</time>
      </trkpt>
      <trkpt lat="40.65818" lon="0.65319">
        <ele>9.8</ele>
        <time>2022-05-24 20:51:08</time>
      </trkpt>
      <trkpt lat="40.65821" lon="0.65325">
        <ele>9.8</ele>
        <time>2022-05-24 20:51:09</time>
      </trkpt>
      <trkpt lat="40.65823" lon="0.65332">
        <ele>9.8</ele>
        <time>2022-05-24 20:51:10</time>
      </trkpt>
      <trkpt lat="40.65826" lon="0.65339">
        <ele>9.6</ele>
        <time>2022-05-24 20:51:11</time>
      </trkpt>
      <trkpt lat="40.65828" lon="0.65345">
        <ele>9.6</ele>
        <time>2022-05-24 20:51:12</time>
      </trkpt>
      <trkpt lat="40.6583" lon="0.65352">
        <ele>9.8</ele>
        <time>2022-05-24 20:51:13</time>
      </trkpt>
      <trkpt lat="40.65833" lon="0.65358">
        <ele>9.8</ele>
        <time>2022-05-24 20:51:14</time>
      </trkpt>
      <trkpt lat="40.65835" lon="0.65364">
        <ele>9.8</ele>
        <time>2022-05-24 20:51:15</time>
      </trkpt>
      <trkpt lat="40.65837" lon="0.65371">
        <ele>10</ele>
        <time>2022-05-24 20:51:16</time>
      </trkpt>
      <trkpt lat="40.65839" lon="0.65377">
        <ele>10</ele>
        <time>2022-05-24 20:51:17</time>
      </trkpt>
      <trkpt lat="40.65841" lon="0.65383">
        <ele>9.8</ele>
        <time>2022-05-24 20:51:18</time>
      </trkpt>
      <trkpt lat="40.65843" lon="0.6539">
        <ele>10</ele>
        <time>2022-05-24 20:51:19</time>
      </trkpt>
      <trkpt lat="40.65845" lon="0.65396">
        <ele>10</ele>
        <time>2022-05-24 20:51:20</time>
      </trkpt>
      <trkpt lat="40.65847" lon="0.65402">
        <ele>10</ele>
        <time>2022-05-24 20:51:21</time>
      </trkpt>
      <trkpt lat="40.65849" lon="0.65408">
        <ele>10</ele>
        <time>2022-05-24 20:51:22</time>
      </trkpt>
      <trkpt lat="40.65851" lon="0.65414">
        <ele>10</ele>
        <time>2022-05-24 20:51:23</time>
      </trkpt>
      <trkpt lat="40.65853" lon="0.6542">
        <ele>10.2</ele>
        <time>2022-05-24 20:51:24</time>
      </trkpt>
      <trkpt lat="40.65855" lon="0.65427">
        <ele>10.2</ele>
        <time>2022-05-24 20:51:25</time>
      </trkpt>
      <trkpt lat="40.65857" lon="0.65433">
        <ele>10.2</ele>
        <time>2022-05-24 20:51:26</time>
      </trkpt>
      <trkpt lat="40.65859" lon="0.65439">
        <ele>10</ele>
        <time>2022-05-24 20:51:27</time>
      </trkpt>
      <trkpt lat="40.65862" lon="0.65446">
        <ele>10</ele>
        <time>2022-05-24 20:51:28</time>
      </trkpt>
      <trkpt lat="40.65864" lon="0.65452">
        <ele>10</ele>
        <time>2022-05-24 20:51:29</time>
      </trkpt>
      <trkpt lat="40.65866" lon="0.65459">
        <ele>10</ele>
        <time>2022-05-24 20:51:30</time>
      </trkpt>
      <trkpt lat="40.65868" lon="0.65465">
        <ele>10</ele>
        <time>2022-05-24 20:51:31</time>
      </trkpt>
      <trkpt lat="40.6587" lon="0.65471">
        <ele>10</ele>
        <time>2022-05-24 20:51:32</time>
      </trkpt>
      <trkpt lat="40.65873" lon="0.65477">
        <ele>10</ele>
        <time>2022-05-24 20:51:33</time>
      </trkpt>
      <trkpt lat="40.65875" lon="0.65484">
        <ele>10.2</ele>
        <time>2022-05-24 20:51:34</time>
      </trkpt>
      <trkpt lat="40.65876" lon="0.65489">
        <ele>10.2</ele>
        <time>2022-05-24 20:51:35</time>
      </trkpt>
      <trkpt lat="40.65879" lon="0.65496">
        <ele>10.2</ele>
        <time>2022-05-24 20:51:36</time>
      </trkpt>
      <trkpt lat="40.65881" lon="0.65501">
        <ele>10.2</ele>
        <time>2022-05-24 20:51:37</time>
      </trkpt>
      <trkpt lat="40.65883" lon="0.65508">
        <ele>10.2</ele>
        <time>2022-05-24 20:51:38</time>
      </trkpt>
      <trkpt lat="40.65885" lon="0.65514">
        <ele>10.2</ele>
        <time>2022-05-24 20:51:39</time>
      </trkpt>
      <trkpt lat="40.65887" lon="0.6552">
        <ele>10.2</ele>
        <time>2022-05-24 20:51:40</time>
      </trkpt>
      <trkpt lat="40.65889" lon="0.65526">
        <ele>10.2</ele>
        <time>2022-05-24 20:51:41</time>
      </trkpt>
      <trkpt lat="40.65891" lon="0.65533">
        <ele>10</ele>
        <time>2022-05-24 20:51:42</time>
      </trkpt>
      <trkpt lat="40.65893" lon="0.65539">
        <ele>10</ele>
        <time>2022-05-24 20:51:43</time>
      </trkpt>
      <trkpt lat="40.65895" lon="0.65545">
        <ele>10</ele>
        <time>2022-05-24 20:51:44</time>
      </trkpt>
      <trkpt lat="40.65897" lon="0.6555">
        <ele>10.2</ele>
        <time>2022-05-24 20:51:45</time>
      </trkpt>
      <trkpt lat="40.65899" lon="0.65556">
        <ele>10.2</ele>
        <time>2022-05-24 20:51:46</time>
      </trkpt>
      <trkpt lat="40.65901" lon="0.65562">
        <ele>10.2</ele>
        <time>2022-05-24 20:51:47</time>
      </trkpt>
      <trkpt lat="40.65903" lon="0.65568">
        <ele>10.2</ele>
        <time>2022-05-24 20:51:48</time>
      </trkpt>
      <trkpt lat="40.65905" lon="0.65574">
        <ele>10.2</ele>
        <time>2022-05-24 20:51:49</time>
      </trkpt>
      <trkpt lat="40.65907" lon="0.6558">
        <ele>10.4</ele>
        <time>2022-05-24 20:51:50</time>
      </trkpt>
      <trkpt lat="40.65908" lon="0.65586">
        <ele>10.2</ele>
        <time>2022-05-24 20:51:51</time>
      </trkpt>
      <trkpt lat="40.65911" lon="0.65592">
        <ele>10.2</ele>
        <time>2022-05-24 20:51:52</time>
      </trkpt>
      <trkpt lat="40.65913" lon="0.65598">
        <ele>10.2</ele>
        <time>2022-05-24 20:51:53</time>
      </trkpt>
      <trkpt lat="40.65915" lon="0.65604">
        <ele>10.4</ele>
        <time>2022-05-24 20:51:54</time>
      </trkpt>
      <trkpt lat="40.65916" lon="0.6561">
        <ele>10.4</ele>
        <time>2022-05-24 20:51:55</time>
      </trkpt>
      <trkpt lat="40.65918" lon="0.65616">
        <ele>10.4</ele>
        <time>2022-05-24 20:51:56</time>
      </trkpt>
      <trkpt lat="40.6592" lon="0.65621">
        <ele>10.4</ele>
        <time>2022-05-24 20:51:57</time>
      </trkpt>
      <trkpt lat="40.65923" lon="0.65627">
        <ele>10.4</ele>
        <time>2022-05-24 20:51:58</time>
      </trkpt>
      <trkpt lat="40.65924" lon="0.65634">
        <ele>10.4</ele>
        <time>2022-05-24 20:51:59</time>
      </trkpt>
      <trkpt lat="40.65926" lon="0.65639">
        <ele>10.4</ele>
        <time>2022-05-24 20:52:00</time>
      </trkpt>
      <trkpt lat="40.65928" lon="0.65645">
        <ele>10.4</ele>
        <time>2022-05-24 20:52:01</time>
      </trkpt>
      <trkpt lat="40.6593" lon="0.65651">
        <ele>10.4</ele>
        <time>2022-05-24 20:52:02</time>
      </trkpt>
      <trkpt lat="40.65932" lon="0.65657">
        <ele>10.4</ele>
        <time>2022-05-24 20:52:03</time>
      </trkpt>
      <trkpt lat="40.65934" lon="0.65663">
        <ele>10.4</ele>
        <time>2022-05-24 20:52:04</time>
      </trkpt>
      <trkpt lat="40.65935" lon="0.65669">
        <ele>10.4</ele>
        <time>2022-05-24 20:52:05</time>
      </trkpt>
      <trkpt lat="40.65938" lon="0.65675">
        <ele>10.4</ele>
        <time>2022-05-24 20:52:06</time>
      </trkpt>
      <trkpt lat="40.6594" lon="0.65681">
        <ele>10.6</ele>
        <time>2022-05-24 20:52:07</time>
      </trkpt>
      <trkpt lat="40.65942" lon="0.65686">
        <ele>10.6</ele>
        <time>2022-05-24 20:52:08</time>
      </trkpt>
      <trkpt lat="40.65944" lon="0.65692">
        <ele>10.6</ele>
        <time>2022-05-24 20:52:09</time>
      </trkpt>
      <trkpt lat="40.65946" lon="0.65698">
        <ele>10.6</ele>
        <time>2022-05-24 20:52:10</time>
      </trkpt>
      <trkpt lat="40.65948" lon="0.65704">
        <ele>10.4</ele>
        <time>2022-05-24 20:52:11</time>
      </trkpt>
      <trkpt lat="40.6595" lon="0.6571">
        <ele>10.4</ele>
        <time>2022-05-24 20:52:12</time>
      </trkpt>
      <trkpt lat="40.65952" lon="0.65716">
        <ele>10.4</ele>
        <time>2022-05-24 20:52:13</time>
      </trkpt>
      <trkpt lat="40.65954" lon="0.65722">
        <ele>10.4</ele>
        <time>2022-05-24 20:52:14</time>
      </trkpt>
      <trkpt lat="40.65956" lon="0.65728">
        <ele>10.6</ele>
        <time>2022-05-24 20:52:15</time>
      </trkpt>
      <trkpt lat="40.65958" lon="0.65734">
        <ele>10.6</ele>
        <time>2022-05-24 20:52:16</time>
      </trkpt>
      <trkpt lat="40.6596" lon="0.65739">
        <ele>10.6</ele>
        <time>2022-05-24 20:52:17</time>
      </trkpt>
      <trkpt lat="40.65963" lon="0.65745">
        <ele>10.6</ele>
        <time>2022-05-24 20:52:18</time>
      </trkpt>
      <trkpt lat="40.65965" lon="0.65752">
        <ele>10.6</ele>
        <time>2022-05-24 20:52:19</time>
      </trkpt>
      <trkpt lat="40.65967" lon="0.65758">
        <ele>10.6</ele>
        <time>2022-05-24 20:52:20</time>
      </trkpt>
      <trkpt lat="40.65969" lon="0.65764">
        <ele>10.4</ele>
        <time>2022-05-24 20:52:21</time>
      </trkpt>
      <trkpt lat="40.65971" lon="0.6577">
        <ele>10.6</ele>
        <time>2022-05-24 20:52:22</time>
      </trkpt>
      <trkpt lat="40.65973" lon="0.65776">
        <ele>10.6</ele>
        <time>2022-05-24 20:52:23</time>
      </trkpt>
      <trkpt lat="40.65976" lon="0.65782">
        <ele>10.6</ele>
        <time>2022-05-24 20:52:24</time>
      </trkpt>
      <trkpt lat="40.65977" lon="0.65788">
        <ele>10.6</ele>
        <time>2022-05-24 20:52:25</time>
      </trkpt>
      <trkpt lat="40.65979" lon="0.65794">
        <ele>10.8</ele>
        <time>2022-05-24 20:52:26</time>
      </trkpt>
      <trkpt lat="40.65981" lon="0.658">
        <ele>10.8</ele>
        <time>2022-05-24 20:52:27</time>
      </trkpt>
      <trkpt lat="40.65983" lon="0.65807">
        <ele>10.8</ele>
        <time>2022-05-24 20:52:28</time>
      </trkpt>
      <trkpt lat="40.65984" lon="0.65813">
        <ele>10.8</ele>
        <time>2022-05-24 20:52:29</time>
      </trkpt>
      <trkpt lat="40.65986" lon="0.65819">
        <ele>10.8</ele>
        <time>2022-05-24 20:52:30</time>
      </trkpt>
      <trkpt lat="40.65987" lon="0.65824">
        <ele>11</ele>
        <time>2022-05-24 20:52:31</time>
      </trkpt>
      <trkpt lat="40.65988" lon="0.65829">
        <ele>11.2</ele>
        <time>2022-05-24 20:52:32</time>
      </trkpt>
      <trkpt lat="40.65989" lon="0.65833">
        <ele>11.4</ele>
        <time>2022-05-24 20:52:33</time>
      </trkpt>
      <trkpt lat="40.65989" lon="0.65836">
        <ele>11.8</ele>
        <time>2022-05-24 20:52:34</time>
      </trkpt>
      <trkpt lat="40.65989" lon="0.6584">
        <ele>11.8</ele>
        <time>2022-05-24 20:52:35</time>
      </trkpt>
      <trkpt lat="40.6599" lon="0.65842">
        <ele>11.8</ele>
        <time>2022-05-24 20:52:36</time>
      </trkpt>
      <trkpt lat="40.6599" lon="0.65845">
        <ele>12</ele>
        <time>2022-05-24 20:52:37</time>
      </trkpt>
      <trkpt lat="40.6599" lon="0.6585">
        <ele>12</ele>
        <time>2022-05-24 20:52:38</time>
      </trkpt>
      <trkpt lat="40.65991" lon="0.65856">
        <ele>11.8</ele>
        <time>2022-05-24 20:52:39</time>
      </trkpt>
      <trkpt lat="40.65991" lon="0.65862">
        <ele>11.8</ele>
        <time>2022-05-24 20:52:40</time>
      </trkpt>
      <trkpt lat="40.65991" lon="0.65868">
        <ele>11.6</ele>
        <time>2022-05-24 20:52:41</time>
      </trkpt>
      <trkpt lat="40.65991" lon="0.65875">
        <ele>11.4</ele>
        <time>2022-05-24 20:52:42</time>
      </trkpt>
      <trkpt lat="40.65991" lon="0.65882">
        <ele>11.4</ele>
        <time>2022-05-24 20:52:43</time>
      </trkpt>
      <trkpt lat="40.65991" lon="0.6589">
        <ele>11.2</ele>
        <time>2022-05-24 20:52:44</time>
      </trkpt>
      <trkpt lat="40.65991" lon="0.65897">
        <ele>11</ele>
        <time>2022-05-24 20:52:45</time>
      </trkpt>
      <trkpt lat="40.65991" lon="0.65904">
        <ele>11</ele>
        <time>2022-05-24 20:52:46</time>
      </trkpt>
      <trkpt lat="40.65991" lon="0.65912">
        <ele>11</ele>
        <time>2022-05-24 20:52:47</time>
      </trkpt>
      <trkpt lat="40.65991" lon="0.65919">
        <ele>11</ele>
        <time>2022-05-24 20:52:48</time>
      </trkpt>
      <trkpt lat="40.65991" lon="0.65925">
        <ele>10.8</ele>
        <time>2022-05-24 20:52:49</time>
      </trkpt>
      <trkpt lat="40.6599" lon="0.65932">
        <ele>10.8</ele>
        <time>2022-05-24 20:52:50</time>
      </trkpt>
      <trkpt lat="40.6599" lon="0.65939">
        <ele>10.8</ele>
        <time>2022-05-24 20:52:51</time>
      </trkpt>
      <trkpt lat="40.6599" lon="0.65945">
        <ele>10.8</ele>
        <time>2022-05-24 20:52:52</time>
      </trkpt>
      <trkpt lat="40.65991" lon="0.65952">
        <ele>10.8</ele>
        <time>2022-05-24 20:52:53</time>
      </trkpt>
      <trkpt lat="40.65991" lon="0.65959">
        <ele>10.8</ele>
        <time>2022-05-24 20:52:54</time>
      </trkpt>
      <trkpt lat="40.65991" lon="0.65966">
        <ele>10.8</ele>
        <time>2022-05-24 20:52:55</time>
      </trkpt>
      <trkpt lat="40.65991" lon="0.65972">
        <ele>10.8</ele>
        <time>2022-05-24 20:52:56</time>
      </trkpt>
      <trkpt lat="40.65991" lon="0.65979">
        <ele>10.8</ele>
        <time>2022-05-24 20:52:57</time>
      </trkpt>
      <trkpt lat="40.65991" lon="0.65986">
        <ele>10.8</ele>
        <time>2022-05-24 20:52:58</time>
      </trkpt>
      <trkpt lat="40.65991" lon="0.65993">
        <ele>10.8</ele>
        <time>2022-05-24 20:52:59</time>
      </trkpt>
      <trkpt lat="40.65991" lon="0.65998">
        <ele>10.8</ele>
        <time>2022-05-24 20:53:00</time>
      </trkpt>
      <trkpt lat="40.65991" lon="0.66007">
        <ele>10.8</ele>
        <time>2022-05-24 20:53:01</time>
      </trkpt>
      <trkpt lat="40.65992" lon="0.66014">
        <ele>10.6</ele>
        <time>2022-05-24 20:53:02</time>
      </trkpt>
      <trkpt lat="40.65992" lon="0.66021">
        <ele>10.6</ele>
        <time>2022-05-24 20:53:03</time>
      </trkpt>
      <trkpt lat="40.65992" lon="0.66028">
        <ele>10.6</ele>
        <time>2022-05-24 20:53:04</time>
      </trkpt>
      <trkpt lat="40.65992" lon="0.66035">
        <ele>10.8</ele>
        <time>2022-05-24 20:53:05</time>
      </trkpt>
      <trkpt lat="40.65992" lon="0.66042">
        <ele>10.8</ele>
        <time>2022-05-24 20:53:06</time>
      </trkpt>
      <trkpt lat="40.65992" lon="0.66049">
        <ele>10.8</ele>
        <time>2022-05-24 20:53:07</time>
      </trkpt>
      <trkpt lat="40.65992" lon="0.66056">
        <ele>10.8</ele>
        <time>2022-05-24 20:53:08</time>
      </trkpt>
      <trkpt lat="40.65992" lon="0.66063">
        <ele>10.8</ele>
        <time>2022-05-24 20:53:09</time>
      </trkpt>
      <trkpt lat="40.65992" lon="0.6607">
        <ele>10.8</ele>
        <time>2022-05-24 20:53:10</time>
      </trkpt>
      <trkpt lat="40.65992" lon="0.66077">
        <ele>10.8</ele>
        <time>2022-05-24 20:53:11</time>
      </trkpt>
      <trkpt lat="40.65992" lon="0.66084">
        <ele>10.8</ele>
        <time>2022-05-24 20:53:12</time>
      </trkpt>
      <trkpt lat="40.65992" lon="0.66091">
        <ele>10.8</ele>
        <time>2022-05-24 20:53:13</time>
      </trkpt>
      <trkpt lat="40.65992" lon="0.66098">
        <ele>10.8</ele>
        <time>2022-05-24 20:53:14</time>
      </trkpt>
      <trkpt lat="40.65992" lon="0.66105">
        <ele>10.8</ele>
        <time>2022-05-24 20:53:15</time>
      </trkpt>
      <trkpt lat="40.65992" lon="0.66112">
        <ele>10.8</ele>
        <time>2022-05-24 20:53:16</time>
      </trkpt>
      <trkpt lat="40.65992" lon="0.66119">
        <ele>10.8</ele>
        <time>2022-05-24 20:53:17</time>
      </trkpt>
      <trkpt lat="40.65993" lon="0.66126">
        <ele>10.8</ele>
        <time>2022-05-24 20:53:18</time>
      </trkpt>
      <trkpt lat="40.65993" lon="0.66133">
        <ele>11</ele>
        <time>2022-05-24 20:53:19</time>
      </trkpt>
      <trkpt lat="40.65992" lon="0.6614">
        <ele>11</ele>
        <time>2022-05-24 20:53:20</time>
      </trkpt>
      <trkpt lat="40.65993" lon="0.66147">
        <ele>11</ele>
        <time>2022-05-24 20:53:21</time>
      </trkpt>
      <trkpt lat="40.65993" lon="0.66154">
        <ele>11</ele>
        <time>2022-05-24 20:53:22</time>
      </trkpt>
      <trkpt lat="40.65993" lon="0.66162">
        <ele>11</ele>
        <time>2022-05-24 20:53:23</time>
      </trkpt>
      <trkpt lat="40.65993" lon="0.66169">
        <ele>11</ele>
        <time>2022-05-24 20:53:24</time>
      </trkpt>
      <trkpt lat="40.65993" lon="0.66176">
        <ele>11</ele>
        <time>2022-05-24 20:53:25</time>
      </trkpt>
      <trkpt lat="40.65993" lon="0.66183">
        <ele>11</ele>
        <time>2022-05-24 20:53:26</time>
      </trkpt>
      <trkpt lat="40.65994" lon="0.66189">
        <ele>11</ele>
        <time>2022-05-24 20:53:27</time>
      </trkpt>
      <trkpt lat="40.65994" lon="0.66197">
        <ele>11</ele>
        <time>2022-05-24 20:53:28</time>
      </trkpt>
      <trkpt lat="40.65994" lon="0.66205">
        <ele>11</ele>
        <time>2022-05-24 20:53:29</time>
      </trkpt>
      <trkpt lat="40.65994" lon="0.66212">
        <ele>11</ele>
        <time>2022-05-24 20:53:30</time>
      </trkpt>
      <trkpt lat="40.65994" lon="0.66219">
        <ele>11</ele>
        <time>2022-05-24 20:53:31</time>
      </trkpt>
      <trkpt lat="40.65993" lon="0.66226">
        <ele>11</ele>
        <time>2022-05-24 20:53:32</time>
      </trkpt>
      <trkpt lat="40.65993" lon="0.66234">
        <ele>11</ele>
        <time>2022-05-24 20:53:33</time>
      </trkpt>
      <trkpt lat="40.65994" lon="0.66241">
        <ele>11</ele>
        <time>2022-05-24 20:53:34</time>
      </trkpt>
      <trkpt lat="40.65994" lon="0.66248">
        <ele>11</ele>
        <time>2022-05-24 20:53:35</time>
      </trkpt>
      <trkpt lat="40.65994" lon="0.66255">
        <ele>11</ele>
        <time>2022-05-24 20:53:36</time>
      </trkpt>
      <trkpt lat="40.65994" lon="0.66263">
        <ele>11</ele>
        <time>2022-05-24 20:53:37</time>
      </trkpt>
      <trkpt lat="40.65994" lon="0.6627">
        <ele>11</ele>
        <time>2022-05-24 20:53:38</time>
      </trkpt>
      <trkpt lat="40.65994" lon="0.66276">
        <ele>11</ele>
        <time>2022-05-24 20:53:39</time>
      </trkpt>
      <trkpt lat="40.65994" lon="0.66284">
        <ele>11</ele>
        <time>2022-05-24 20:53:40</time>
      </trkpt>
      <trkpt lat="40.65994" lon="0.6629">
        <ele>11</ele>
        <time>2022-05-24 20:53:41</time>
      </trkpt>
      <trkpt lat="40.65994" lon="0.66298">
        <ele>11</ele>
        <time>2022-05-24 20:53:42</time>
      </trkpt>
      <trkpt lat="40.65994" lon="0.66305">
        <ele>11</ele>
        <time>2022-05-24 20:53:43</time>
      </trkpt>
      <trkpt lat="40.65994" lon="0.66312">
        <ele>11</ele>
        <time>2022-05-24 20:53:44</time>
      </trkpt>
      <trkpt lat="40.65994" lon="0.66319">
        <ele>11</ele>
        <time>2022-05-24 20:53:45</time>
      </trkpt>
      <trkpt lat="40.65994" lon="0.66326">
        <ele>11</ele>
        <time>2022-05-24 20:53:46</time>
      </trkpt>
      <trkpt lat="40.65995" lon="0.66333">
        <ele>11</ele>
        <time>2022-05-24 20:53:47</time>
      </trkpt>
      <trkpt lat="40.65995" lon="0.6634">
        <ele>11</ele>
        <time>2022-05-24 20:53:48</time>
      </trkpt>
      <trkpt lat="40.65996" lon="0.66347">
        <ele>10.8</ele>
        <time>2022-05-24 20:53:49</time>
      </trkpt>
      <trkpt lat="40.65996" lon="0.66354">
        <ele>11</ele>
        <time>2022-05-24 20:53:50</time>
      </trkpt>
      <trkpt lat="40.65996" lon="0.66362">
        <ele>11</ele>
        <time>2022-05-24 20:53:51</time>
      </trkpt>
      <trkpt lat="40.65996" lon="0.66368">
        <ele>11</ele>
        <time>2022-05-24 20:53:52</time>
      </trkpt>
      <trkpt lat="40.65996" lon="0.66376">
        <ele>11</ele>
        <time>2022-05-24 20:53:53</time>
      </trkpt>
      <trkpt lat="40.65997" lon="0.66382">
        <ele>11</ele>
        <time>2022-05-24 20:53:54</time>
      </trkpt>
      <trkpt lat="40.65997" lon="0.66389">
        <ele>10.8</ele>
        <time>2022-05-24 20:53:55</time>
      </trkpt>
      <trkpt lat="40.65997" lon="0.66396">
        <ele>10.8</ele>
        <time>2022-05-24 20:53:56</time>
      </trkpt>
      <trkpt lat="40.65997" lon="0.66404">
        <ele>10.8</ele>
        <time>2022-05-24 20:53:57</time>
      </trkpt>
      <trkpt lat="40.65997" lon="0.66411">
        <ele>10.8</ele>
        <time>2022-05-24 20:53:58</time>
      </trkpt>
      <trkpt lat="40.65997" lon="0.66418">
        <ele>10.8</ele>
        <time>2022-05-24 20:53:59</time>
      </trkpt>
      <trkpt lat="40.65997" lon="0.66425">
        <ele>10.6</ele>
        <time>2022-05-24 20:54:00</time>
      </trkpt>
      <trkpt lat="40.65997" lon="0.66432">
        <ele>10.6</ele>
        <time>2022-05-24 20:54:01</time>
      </trkpt>
      <trkpt lat="40.65997" lon="0.66439">
        <ele>10.6</ele>
        <time>2022-05-24 20:54:02</time>
      </trkpt>
      <trkpt lat="40.65997" lon="0.66446">
        <ele>10.6</ele>
        <time>2022-05-24 20:54:03</time>
      </trkpt>
      <trkpt lat="40.65997" lon="0.66453">
        <ele>10.6</ele>
        <time>2022-05-24 20:54:04</time>
      </trkpt>
      <trkpt lat="40.65998" lon="0.6646">
        <ele>10.8</ele>
        <time>2022-05-24 20:54:05</time>
      </trkpt>
      <trkpt lat="40.65998" lon="0.66467">
        <ele>10.8</ele>
        <time>2022-05-24 20:54:06</time>
      </trkpt>
      <trkpt lat="40.65998" lon="0.66474">
        <ele>10.8</ele>
        <time>2022-05-24 20:54:07</time>
      </trkpt>
      <trkpt lat="40.65998" lon="0.66481">
        <ele>10.8</ele>
        <time>2022-05-24 20:54:08</time>
      </trkpt>
      <trkpt lat="40.65998" lon="0.66487">
        <ele>11</ele>
        <time>2022-05-24 20:54:09</time>
      </trkpt>
      <trkpt lat="40.65998" lon="0.66494">
        <ele>11</ele>
        <time>2022-05-24 20:54:10</time>
      </trkpt>
      <trkpt lat="40.65998" lon="0.665">
        <ele>11.2</ele>
        <time>2022-05-24 20:54:11</time>
      </trkpt>
      <trkpt lat="40.65998" lon="0.66506">
        <ele>11.2</ele>
        <time>2022-05-24 20:54:12</time>
      </trkpt>
      <trkpt lat="40.65998" lon="0.66513">
        <ele>11.2</ele>
        <time>2022-05-24 20:54:13</time>
      </trkpt>
      <trkpt lat="40.65998" lon="0.6652">
        <ele>11.2</ele>
        <time>2022-05-24 20:54:14</time>
      </trkpt>
      <trkpt lat="40.65998" lon="0.66526">
        <ele>11</ele>
        <time>2022-05-24 20:54:15</time>
      </trkpt>
      <trkpt lat="40.65998" lon="0.66534">
        <ele>10.8</ele>
        <time>2022-05-24 20:54:16</time>
      </trkpt>
      <trkpt lat="40.65998" lon="0.66541">
        <ele>10.8</ele>
        <time>2022-05-24 20:54:17</time>
      </trkpt>
      <trkpt lat="40.65998" lon="0.66548">
        <ele>10.8</ele>
        <time>2022-05-24 20:54:18</time>
      </trkpt>
      <trkpt lat="40.65999" lon="0.66556">
        <ele>10.8</ele>
        <time>2022-05-24 20:54:19</time>
      </trkpt>
      <trkpt lat="40.65999" lon="0.66563">
        <ele>10.8</ele>
        <time>2022-05-24 20:54:20</time>
      </trkpt>
      <trkpt lat="40.65999" lon="0.6657">
        <ele>10.6</ele>
        <time>2022-05-24 20:54:21</time>
      </trkpt>
      <trkpt lat="40.65999" lon="0.66578">
        <ele>10.6</ele>
        <time>2022-05-24 20:54:22</time>
      </trkpt>
      <trkpt lat="40.65999" lon="0.66586">
        <ele>10.6</ele>
        <time>2022-05-24 20:54:23</time>
      </trkpt>
      <trkpt lat="40.66" lon="0.66593">
        <ele>10.4</ele>
        <time>2022-05-24 20:54:24</time>
      </trkpt>
      <trkpt lat="40.66" lon="0.666">
        <ele>10.4</ele>
        <time>2022-05-24 20:54:25</time>
      </trkpt>
      <trkpt lat="40.66" lon="0.66607">
        <ele>10.4</ele>
        <time>2022-05-24 20:54:26</time>
      </trkpt>
      <trkpt lat="40.66" lon="0.66614">
        <ele>10.4</ele>
        <time>2022-05-24 20:54:27</time>
      </trkpt>
      <trkpt lat="40.66" lon="0.66621">
        <ele>10.4</ele>
        <time>2022-05-24 20:54:28</time>
      </trkpt>
      <trkpt lat="40.66" lon="0.66628">
        <ele>10.2</ele>
        <time>2022-05-24 20:54:29</time>
      </trkpt>
      <trkpt lat="40.66" lon="0.66635">
        <ele>10.2</ele>
        <time>2022-05-24 20:54:30</time>
      </trkpt>
      <trkpt lat="40.66" lon="0.66642">
        <ele>10.4</ele>
        <time>2022-05-24 20:54:31</time>
      </trkpt>
      <trkpt lat="40.66001" lon="0.66649">
        <ele>10.4</ele>
        <time>2022-05-24 20:54:32</time>
      </trkpt>
      <trkpt lat="40.66001" lon="0.66656">
        <ele>10.4</ele>
        <time>2022-05-24 20:54:33</time>
      </trkpt>
      <trkpt lat="40.66001" lon="0.66663">
        <ele>10.4</ele>
        <time>2022-05-24 20:54:34</time>
      </trkpt>
      <trkpt lat="40.66001" lon="0.6667">
        <ele>10.4</ele>
        <time>2022-05-24 20:54:35</time>
      </trkpt>
      <trkpt lat="40.66001" lon="0.66677">
        <ele>10.4</ele>
        <time>2022-05-24 20:54:36</time>
      </trkpt>
      <trkpt lat="40.66001" lon="0.66684">
        <ele>10.4</ele>
        <time>2022-05-24 20:54:37</time>
      </trkpt>
      <trkpt lat="40.66001" lon="0.66691">
        <ele>10.4</ele>
        <time>2022-05-24 20:54:38</time>
      </trkpt>
      <trkpt lat="40.66002" lon="0.66698">
        <ele>10.4</ele>
        <time>2022-05-24 20:54:39</time>
      </trkpt>
      <trkpt lat="40.66002" lon="0.66705">
        <ele>10.2</ele>
        <time>2022-05-24 20:54:40</time>
      </trkpt>
      <trkpt lat="40.66002" lon="0.66711">
        <ele>10.2</ele>
        <time>2022-05-24 20:54:41</time>
      </trkpt>
      <trkpt lat="40.66002" lon="0.66716">
        <ele>10</ele>
        <time>2022-05-24 20:54:42</time>
      </trkpt>
      <trkpt lat="40.66002" lon="0.66725">
        <ele>10</ele>
        <time>2022-05-24 20:54:43</time>
      </trkpt>
      <trkpt lat="40.66002" lon="0.66732">
        <ele>10</ele>
        <time>2022-05-24 20:54:44</time>
      </trkpt>
      <trkpt lat="40.66002" lon="0.66739">
        <ele>10</ele>
        <time>2022-05-24 20:54:45</time>
      </trkpt>
      <trkpt lat="40.66002" lon="0.66747">
        <ele>10</ele>
        <time>2022-05-24 20:54:46</time>
      </trkpt>
      <trkpt lat="40.66002" lon="0.66755">
        <ele>10</ele>
        <time>2022-05-24 20:54:47</time>
      </trkpt>
      <trkpt lat="40.66003" lon="0.66763">
        <ele>10.2</ele>
        <time>2022-05-24 20:54:48</time>
      </trkpt>
      <trkpt lat="40.66003" lon="0.6677">
        <ele>10.2</ele>
        <time>2022-05-24 20:54:49</time>
      </trkpt>
      <trkpt lat="40.66003" lon="0.66779">
        <ele>10.2</ele>
        <time>2022-05-24 20:54:50</time>
      </trkpt>
      <trkpt lat="40.66003" lon="0.66788">
        <ele>10.2</ele>
        <time>2022-05-24 20:54:51</time>
      </trkpt>
      <trkpt lat="40.66003" lon="0.66797">
        <ele>10.4</ele>
        <time>2022-05-24 20:54:52</time>
      </trkpt>
      <trkpt lat="40.66003" lon="0.66804">
        <ele>10.4</ele>
        <time>2022-05-24 20:54:53</time>
      </trkpt>
      <trkpt lat="40.66003" lon="0.66812">
        <ele>10.4</ele>
        <time>2022-05-24 20:54:54</time>
      </trkpt>
      <trkpt lat="40.66004" lon="0.6682">
        <ele>10.4</ele>
        <time>2022-05-24 20:54:55</time>
      </trkpt>
      <trkpt lat="40.66004" lon="0.66827">
        <ele>10.4</ele>
        <time>2022-05-24 20:54:56</time>
      </trkpt>
      <trkpt lat="40.66004" lon="0.66835">
        <ele>10.4</ele>
        <time>2022-05-24 20:54:57</time>
      </trkpt>
      <trkpt lat="40.66004" lon="0.66843">
        <ele>10.4</ele>
        <time>2022-05-24 20:54:58</time>
      </trkpt>
      <trkpt lat="40.66004" lon="0.6685">
        <ele>10.4</ele>
        <time>2022-05-24 20:54:59</time>
      </trkpt>
      <trkpt lat="40.66005" lon="0.66858">
        <ele>10.2</ele>
        <time>2022-05-24 20:55:00</time>
      </trkpt>
      <trkpt lat="40.66005" lon="0.66865">
        <ele>10.2</ele>
        <time>2022-05-24 20:55:01</time>
      </trkpt>
      <trkpt lat="40.66005" lon="0.66873">
        <ele>10.2</ele>
        <time>2022-05-24 20:55:02</time>
      </trkpt>
      <trkpt lat="40.66005" lon="0.6688">
        <ele>10.2</ele>
        <time>2022-05-24 20:55:03</time>
      </trkpt>
      <trkpt lat="40.66005" lon="0.66888">
        <ele>10</ele>
        <time>2022-05-24 20:55:04</time>
      </trkpt>
      <trkpt lat="40.66005" lon="0.66896">
        <ele>10</ele>
        <time>2022-05-24 20:55:05</time>
      </trkpt>
      <trkpt lat="40.66005" lon="0.66904">
        <ele>10</ele>
        <time>2022-05-24 20:55:06</time>
      </trkpt>
      <trkpt lat="40.66005" lon="0.66912">
        <ele>10</ele>
        <time>2022-05-24 20:55:07</time>
      </trkpt>
      <trkpt lat="40.66005" lon="0.6692">
        <ele>10</ele>
        <time>2022-05-24 20:55:08</time>
      </trkpt>
      <trkpt lat="40.66005" lon="0.66926">
        <ele>10</ele>
        <time>2022-05-24 20:55:09</time>
      </trkpt>
      <trkpt lat="40.66006" lon="0.66937">
        <ele>10.2</ele>
        <time>2022-05-24 20:55:10</time>
      </trkpt>
      <trkpt lat="40.66006" lon="0.66945">
        <ele>10.2</ele>
        <time>2022-05-24 20:55:11</time>
      </trkpt>
      <trkpt lat="40.66006" lon="0.66952">
        <ele>10.2</ele>
        <time>2022-05-24 20:55:12</time>
      </trkpt>
      <trkpt lat="40.66006" lon="0.66959">
        <ele>10.2</ele>
        <time>2022-05-24 20:55:13</time>
      </trkpt>
      <trkpt lat="40.66006" lon="0.66966">
        <ele>10.2</ele>
        <time>2022-05-24 20:55:14</time>
      </trkpt>
      <trkpt lat="40.66006" lon="0.66974">
        <ele>10.2</ele>
        <time>2022-05-24 20:55:15</time>
      </trkpt>
      <trkpt lat="40.66006" lon="0.66981">
        <ele>10.2</ele>
        <time>2022-05-24 20:55:16</time>
      </trkpt>
      <trkpt lat="40.66006" lon="0.66989">
        <ele>10.2</ele>
        <time>2022-05-24 20:55:17</time>
      </trkpt>
      <trkpt lat="40.66006" lon="0.66997">
        <ele>10</ele>
        <time>2022-05-24 20:55:18</time>
      </trkpt>
      <trkpt lat="40.66006" lon="0.67004">
        <ele>10</ele>
        <time>2022-05-24 20:55:19</time>
      </trkpt>
      <trkpt lat="40.66007" lon="0.67013">
        <ele>10</ele>
        <time>2022-05-24 20:55:20</time>
      </trkpt>
      <trkpt lat="40.66007" lon="0.67022">
        <ele>10</ele>
        <time>2022-05-24 20:55:21</time>
      </trkpt>
      <trkpt lat="40.66007" lon="0.6703">
        <ele>10</ele>
        <time>2022-05-24 20:55:22</time>
      </trkpt>
      <trkpt lat="40.66007" lon="0.67038">
        <ele>10.2</ele>
        <time>2022-05-24 20:55:23</time>
      </trkpt>
      <trkpt lat="40.66007" lon="0.67047">
        <ele>10.2</ele>
        <time>2022-05-24 20:55:24</time>
      </trkpt>
      <trkpt lat="40.66007" lon="0.67055">
        <ele>10.2</ele>
        <time>2022-05-24 20:55:25</time>
      </trkpt>
      <trkpt lat="40.66006" lon="0.67063">
        <ele>10.2</ele>
        <time>2022-05-24 20:55:26</time>
      </trkpt>
      <trkpt lat="40.66006" lon="0.67071">
        <ele>10.4</ele>
        <time>2022-05-24 20:55:27</time>
      </trkpt>
      <trkpt lat="40.66006" lon="0.67079">
        <ele>10.4</ele>
        <time>2022-05-24 20:55:28</time>
      </trkpt>
      <trkpt lat="40.66005" lon="0.67087">
        <ele>10.4</ele>
        <time>2022-05-24 20:55:29</time>
      </trkpt>
      <trkpt lat="40.66003" lon="0.67096">
        <ele>10.4</ele>
        <time>2022-05-24 20:55:30</time>
      </trkpt>
      <trkpt lat="40.66002" lon="0.67103">
        <ele>10.2</ele>
        <time>2022-05-24 20:55:31</time>
      </trkpt>
      <trkpt lat="40.66" lon="0.67111">
        <ele>10.2</ele>
        <time>2022-05-24 20:55:32</time>
      </trkpt>
      <trkpt lat="40.65998" lon="0.67119">
        <ele>10.2</ele>
        <time>2022-05-24 20:55:33</time>
      </trkpt>
      <trkpt lat="40.65995" lon="0.67126">
        <ele>10.2</ele>
        <time>2022-05-24 20:55:34</time>
      </trkpt>
      <trkpt lat="40.65994" lon="0.67133">
        <ele>10.2</ele>
        <time>2022-05-24 20:55:35</time>
      </trkpt>
      <trkpt lat="40.6599" lon="0.67141">
        <ele>10.2</ele>
        <time>2022-05-24 20:55:36</time>
      </trkpt>
      <trkpt lat="40.65988" lon="0.67148">
        <ele>10.2</ele>
        <time>2022-05-24 20:55:37</time>
      </trkpt>
      <trkpt lat="40.65985" lon="0.67154">
        <ele>10.2</ele>
        <time>2022-05-24 20:55:38</time>
      </trkpt>
      <trkpt lat="40.65982" lon="0.67161">
        <ele>10.4</ele>
        <time>2022-05-24 20:55:39</time>
      </trkpt>
      <trkpt lat="40.65979" lon="0.67167">
        <ele>10.4</ele>
        <time>2022-05-24 20:55:40</time>
      </trkpt>
      <trkpt lat="40.65976" lon="0.67174">
        <ele>10.4</ele>
        <time>2022-05-24 20:55:41</time>
      </trkpt>
      <trkpt lat="40.65973" lon="0.6718">
        <ele>10.4</ele>
        <time>2022-05-24 20:55:42</time>
      </trkpt>
      <trkpt lat="40.65969" lon="0.67187">
        <ele>10.4</ele>
        <time>2022-05-24 20:55:43</time>
      </trkpt>
      <trkpt lat="40.65966" lon="0.67194">
        <ele>10.2</ele>
        <time>2022-05-24 20:55:44</time>
      </trkpt>
      <trkpt lat="40.65963" lon="0.672">
        <ele>10.2</ele>
        <time>2022-05-24 20:55:45</time>
      </trkpt>
      <trkpt lat="40.65959" lon="0.67207">
        <ele>10.2</ele>
        <time>2022-05-24 20:55:46</time>
      </trkpt>
      <trkpt lat="40.65956" lon="0.67214">
        <ele>10.2</ele>
        <time>2022-05-24 20:55:47</time>
      </trkpt>
      <trkpt lat="40.65952" lon="0.6722">
        <ele>10.2</ele>
        <time>2022-05-24 20:55:48</time>
      </trkpt>
      <trkpt lat="40.65949" lon="0.67227">
        <ele>10.2</ele>
        <time>2022-05-24 20:55:49</time>
      </trkpt>
      <trkpt lat="40.65945" lon="0.67234">
        <ele>10.2</ele>
        <time>2022-05-24 20:55:50</time>
      </trkpt>
      <trkpt lat="40.65942" lon="0.6724">
        <ele>10.2</ele>
        <time>2022-05-24 20:55:51</time>
      </trkpt>
      <trkpt lat="40.65939" lon="0.67247">
        <ele>10.2</ele>
        <time>2022-05-24 20:55:52</time>
      </trkpt>
      <trkpt lat="40.65936" lon="0.67253">
        <ele>10.2</ele>
        <time>2022-05-24 20:55:53</time>
      </trkpt>
      <trkpt lat="40.65932" lon="0.6726">
        <ele>10.2</ele>
        <time>2022-05-24 20:55:54</time>
      </trkpt>
      <trkpt lat="40.65929" lon="0.67266">
        <ele>10.2</ele>
        <time>2022-05-24 20:55:55</time>
      </trkpt>
      <trkpt lat="40.65926" lon="0.67273">
        <ele>10.2</ele>
        <time>2022-05-24 20:55:56</time>
      </trkpt>
      <trkpt lat="40.65923" lon="0.6728">
        <ele>10.2</ele>
        <time>2022-05-24 20:55:57</time>
      </trkpt>
      <trkpt lat="40.65919" lon="0.67287">
        <ele>10.2</ele>
        <time>2022-05-24 20:55:58</time>
      </trkpt>
      <trkpt lat="40.65916" lon="0.67294">
        <ele>10.2</ele>
        <time>2022-05-24 20:55:59</time>
      </trkpt>
      <trkpt lat="40.65913" lon="0.673">
        <ele>10.2</ele>
        <time>2022-05-24 20:56:00</time>
      </trkpt>
      <trkpt lat="40.6591" lon="0.67307">
        <ele>10.2</ele>
        <time>2022-05-24 20:56:01</time>
      </trkpt>
      <trkpt lat="40.65906" lon="0.67313">
        <ele>10</ele>
        <time>2022-05-24 20:56:02</time>
      </trkpt>
      <trkpt lat="40.65903" lon="0.6732">
        <ele>10</ele>
        <time>2022-05-24 20:56:03</time>
      </trkpt>
      <trkpt lat="40.65899" lon="0.67327">
        <ele>10</ele>
        <time>2022-05-24 20:56:04</time>
      </trkpt>
      <trkpt lat="40.65896" lon="0.67333">
        <ele>10.2</ele>
        <time>2022-05-24 20:56:05</time>
      </trkpt>
      <trkpt lat="40.65893" lon="0.6734">
        <ele>10.2</ele>
        <time>2022-05-24 20:56:06</time>
      </trkpt>
      <trkpt lat="40.65889" lon="0.67347">
        <ele>10.4</ele>
        <time>2022-05-24 20:56:07</time>
      </trkpt>
      <trkpt lat="40.65885" lon="0.67355">
        <ele>10.6</ele>
        <time>2022-05-24 20:56:08</time>
      </trkpt>
      <trkpt lat="40.65881" lon="0.67362">
        <ele>10.8</ele>
        <time>2022-05-24 20:56:09</time>
      </trkpt>
      <trkpt lat="40.65878" lon="0.67368">
        <ele>11</ele>
        <time>2022-05-24 20:56:10</time>
      </trkpt>
      <trkpt lat="40.65876" lon="0.67372">
        <ele>11</ele>
        <time>2022-05-24 20:56:11</time>
      </trkpt>
      <trkpt lat="40.65873" lon="0.67376">
        <ele>11.2</ele>
        <time>2022-05-24 20:56:12</time>
      </trkpt>
      <trkpt lat="40.65871" lon="0.67381">
        <ele>11.2</ele>
        <time>2022-05-24 20:56:13</time>
      </trkpt>
      <trkpt lat="40.65868" lon="0.67387">
        <ele>11.2</ele>
        <time>2022-05-24 20:56:14</time>
      </trkpt>
      <trkpt lat="40.65866" lon="0.67391">
        <ele>11</ele>
        <time>2022-05-24 20:56:15</time>
      </trkpt>
      <trkpt lat="40.65863" lon="0.67397">
        <ele>11</ele>
        <time>2022-05-24 20:56:16</time>
      </trkpt>
      <trkpt lat="40.6586" lon="0.67403">
        <ele>11</ele>
        <time>2022-05-24 20:56:17</time>
      </trkpt>
      <trkpt lat="40.65856" lon="0.67409">
        <ele>11</ele>
        <time>2022-05-24 20:56:18</time>
      </trkpt>
      <trkpt lat="40.65853" lon="0.67414">
        <ele>10.8</ele>
        <time>2022-05-24 20:56:19</time>
      </trkpt>
      <trkpt lat="40.6585" lon="0.67421">
        <ele>10.8</ele>
        <time>2022-05-24 20:56:20</time>
      </trkpt>
      <trkpt lat="40.65848" lon="0.67427">
        <ele>10.6</ele>
        <time>2022-05-24 20:56:21</time>
      </trkpt>
      <trkpt lat="40.65846" lon="0.67432">
        <ele>10.6</ele>
        <time>2022-05-24 20:56:22</time>
      </trkpt>
      <trkpt lat="40.65844" lon="0.67436">
        <ele>10.6</ele>
        <time>2022-05-24 20:56:23</time>
      </trkpt>
      <trkpt lat="40.65842" lon="0.6744">
        <ele>10.6</ele>
        <time>2022-05-24 20:56:24</time>
      </trkpt>
      <trkpt lat="40.65839" lon="0.67443">
        <ele>10.6</ele>
        <time>2022-05-24 20:56:25</time>
      </trkpt>
      <trkpt lat="40.65836" lon="0.67446">
        <ele>10.6</ele>
        <time>2022-05-24 20:56:26</time>
      </trkpt>
      <trkpt lat="40.65834" lon="0.67448">
        <ele>10.4</ele>
        <time>2022-05-24 20:56:27</time>
      </trkpt>
      <trkpt lat="40.65831" lon="0.6745">
        <ele>10.4</ele>
        <time>2022-05-24 20:56:28</time>
      </trkpt>
      <trkpt lat="40.65829" lon="0.67452">
        <ele>10.4</ele>
        <time>2022-05-24 20:56:29</time>
      </trkpt>
      <trkpt lat="40.65826" lon="0.67454">
        <ele>10.4</ele>
        <time>2022-05-24 20:56:30</time>
      </trkpt>
      <trkpt lat="40.65824" lon="0.67456">
        <ele>10.4</ele>
        <time>2022-05-24 20:56:31</time>
      </trkpt>
      <trkpt lat="40.65821" lon="0.67458">
        <ele>10.4</ele>
        <time>2022-05-24 20:56:32</time>
      </trkpt>
      <trkpt lat="40.65818" lon="0.67461">
        <ele>10.4</ele>
        <time>2022-05-24 20:56:33</time>
      </trkpt>
      <trkpt lat="40.65816" lon="0.67464">
        <ele>10.4</ele>
        <time>2022-05-24 20:56:34</time>
      </trkpt>
      <trkpt lat="40.65814" lon="0.67467">
        <ele>10.4</ele>
        <time>2022-05-24 20:56:35</time>
      </trkpt>
      <trkpt lat="40.65812" lon="0.6747">
        <ele>10.4</ele>
        <time>2022-05-24 20:56:36</time>
      </trkpt>
      <trkpt lat="40.65808" lon="0.67472">
        <ele>10.4</ele>
        <time>2022-05-24 20:56:37</time>
      </trkpt>
      <trkpt lat="40.65805" lon="0.67475">
        <ele>10.4</ele>
        <time>2022-05-24 20:56:38</time>
      </trkpt>
      <trkpt lat="40.65802" lon="0.67477">
        <ele>10.4</ele>
        <time>2022-05-24 20:56:39</time>
      </trkpt>
      <trkpt lat="40.65798" lon="0.6748">
        <ele>10.4</ele>
        <time>2022-05-24 20:56:40</time>
      </trkpt>
      <trkpt lat="40.65794" lon="0.67483">
        <ele>10.4</ele>
        <time>2022-05-24 20:56:41</time>
      </trkpt>
      <trkpt lat="40.6579" lon="0.67487">
        <ele>10.4</ele>
        <time>2022-05-24 20:56:42</time>
      </trkpt>
      <trkpt lat="40.65786" lon="0.6749">
        <ele>10.4</ele>
        <time>2022-05-24 20:56:43</time>
      </trkpt>
      <trkpt lat="40.65782" lon="0.67493">
        <ele>10.4</ele>
        <time>2022-05-24 20:56:44</time>
      </trkpt>
      <trkpt lat="40.65778" lon="0.67497">
        <ele>10.4</ele>
        <time>2022-05-24 20:56:45</time>
      </trkpt>
      <trkpt lat="40.65773" lon="0.675">
        <ele>10.4</ele>
        <time>2022-05-24 20:56:46</time>
      </trkpt>
      <trkpt lat="40.65769" lon="0.67504">
        <ele>10.4</ele>
        <time>2022-05-24 20:56:47</time>
      </trkpt>
      <trkpt lat="40.65765" lon="0.67508">
        <ele>10.4</ele>
        <time>2022-05-24 20:56:48</time>
      </trkpt>
      <trkpt lat="40.6576" lon="0.67512">
        <ele>10.4</ele>
        <time>2022-05-24 20:56:49</time>
      </trkpt>
      <trkpt lat="40.65756" lon="0.67516">
        <ele>10.4</ele>
        <time>2022-05-24 20:56:50</time>
      </trkpt>
      <trkpt lat="40.65752" lon="0.6752">
        <ele>10.4</ele>
        <time>2022-05-24 20:56:51</time>
      </trkpt>
      <trkpt lat="40.65747" lon="0.67524">
        <ele>10.4</ele>
        <time>2022-05-24 20:56:52</time>
      </trkpt>
      <trkpt lat="40.65742" lon="0.67528">
        <ele>10.4</ele>
        <time>2022-05-24 20:56:53</time>
      </trkpt>
      <trkpt lat="40.65738" lon="0.67532">
        <ele>10.4</ele>
        <time>2022-05-24 20:56:54</time>
      </trkpt>
      <trkpt lat="40.65733" lon="0.67536">
        <ele>10.4</ele>
        <time>2022-05-24 20:56:55</time>
      </trkpt>
      <trkpt lat="40.65728" lon="0.6754">
        <ele>10.4</ele>
        <time>2022-05-24 20:56:56</time>
      </trkpt>
      <trkpt lat="40.65723" lon="0.67545">
        <ele>10.4</ele>
        <time>2022-05-24 20:56:57</time>
      </trkpt>
      <trkpt lat="40.65719" lon="0.67549">
        <ele>10.4</ele>
        <time>2022-05-24 20:56:58</time>
      </trkpt>
      <trkpt lat="40.65714" lon="0.67554">
        <ele>10.4</ele>
        <time>2022-05-24 20:56:59</time>
      </trkpt>
      <trkpt lat="40.65709" lon="0.67559">
        <ele>10.4</ele>
        <time>2022-05-24 20:57:00</time>
      </trkpt>
      <trkpt lat="40.65704" lon="0.67563">
        <ele>10.4</ele>
        <time>2022-05-24 20:57:01</time>
      </trkpt>
      <trkpt lat="40.657" lon="0.67568">
        <ele>10.4</ele>
        <time>2022-05-24 20:57:02</time>
      </trkpt>
      <trkpt lat="40.65695" lon="0.67573">
        <ele>10.4</ele>
        <time>2022-05-24 20:57:03</time>
      </trkpt>
      <trkpt lat="40.6569" lon="0.67578">
        <ele>10.2</ele>
        <time>2022-05-24 20:57:04</time>
      </trkpt>
      <trkpt lat="40.65685" lon="0.67583">
        <ele>10.2</ele>
        <time>2022-05-24 20:57:05</time>
      </trkpt>
      <trkpt lat="40.6568" lon="0.67589">
        <ele>10.2</ele>
        <time>2022-05-24 20:57:06</time>
      </trkpt>
      <trkpt lat="40.65676" lon="0.67595">
        <ele>10.2</ele>
        <time>2022-05-24 20:57:07</time>
      </trkpt>
      <trkpt lat="40.65672" lon="0.676">
        <ele>10.2</ele>
        <time>2022-05-24 20:57:08</time>
      </trkpt>
      <trkpt lat="40.65668" lon="0.67607">
        <ele>10.2</ele>
        <time>2022-05-24 20:57:09</time>
      </trkpt>
      <trkpt lat="40.65664" lon="0.67614">
        <ele>10.2</ele>
        <time>2022-05-24 20:57:10</time>
      </trkpt>
      <trkpt lat="40.6566" lon="0.6762">
        <ele>10</ele>
        <time>2022-05-24 20:57:11</time>
      </trkpt>
      <trkpt lat="40.65656" lon="0.67627">
        <ele>10</ele>
        <time>2022-05-24 20:57:12</time>
      </trkpt>
      <trkpt lat="40.65653" lon="0.67634">
        <ele>10</ele>
        <time>2022-05-24 20:57:13</time>
      </trkpt>
      <trkpt lat="40.6565" lon="0.67641">
        <ele>10</ele>
        <time>2022-05-24 20:57:14</time>
      </trkpt>
      <trkpt lat="40.65647" lon="0.67648">
        <ele>10</ele>
        <time>2022-05-24 20:57:15</time>
      </trkpt>
      <trkpt lat="40.65644" lon="0.67656">
        <ele>10</ele>
        <time>2022-05-24 20:57:16</time>
      </trkpt>
      <trkpt lat="40.65642" lon="0.67663">
        <ele>10</ele>
        <time>2022-05-24 20:57:17</time>
      </trkpt>
      <trkpt lat="40.6564" lon="0.67671">
        <ele>9.8</ele>
        <time>2022-05-24 20:57:18</time>
      </trkpt>
      <trkpt lat="40.65638" lon="0.67679">
        <ele>9.8</ele>
        <time>2022-05-24 20:57:19</time>
      </trkpt>
      <trkpt lat="40.65637" lon="0.67687">
        <ele>9.8</ele>
        <time>2022-05-24 20:57:20</time>
      </trkpt>
      <trkpt lat="40.65635" lon="0.67695">
        <ele>9.8</ele>
        <time>2022-05-24 20:57:21</time>
      </trkpt>
      <trkpt lat="40.65633" lon="0.67703">
        <ele>9.8</ele>
        <time>2022-05-24 20:57:22</time>
      </trkpt>
      <trkpt lat="40.65631" lon="0.67711">
        <ele>9.8</ele>
        <time>2022-05-24 20:57:23</time>
      </trkpt>
      <trkpt lat="40.6563" lon="0.67719">
        <ele>9.8</ele>
        <time>2022-05-24 20:57:24</time>
      </trkpt>
      <trkpt lat="40.65628" lon="0.67726">
        <ele>9.8</ele>
        <time>2022-05-24 20:57:25</time>
      </trkpt>
      <trkpt lat="40.65627" lon="0.67734">
        <ele>9.8</ele>
        <time>2022-05-24 20:57:26</time>
      </trkpt>
      <trkpt lat="40.65626" lon="0.67742">
        <ele>9.8</ele>
        <time>2022-05-24 20:57:27</time>
      </trkpt>
      <trkpt lat="40.65625" lon="0.6775">
        <ele>9.8</ele>
        <time>2022-05-24 20:57:28</time>
      </trkpt>
      <trkpt lat="40.65624" lon="0.67758">
        <ele>9.8</ele>
        <time>2022-05-24 20:57:29</time>
      </trkpt>
      <trkpt lat="40.65623" lon="0.67767">
        <ele>9.8</ele>
        <time>2022-05-24 20:57:30</time>
      </trkpt>
      <trkpt lat="40.65623" lon="0.67775">
        <ele>9.8</ele>
        <time>2022-05-24 20:57:31</time>
      </trkpt>
      <trkpt lat="40.65622" lon="0.67783">
        <ele>9.6</ele>
        <time>2022-05-24 20:57:32</time>
      </trkpt>
      <trkpt lat="40.65622" lon="0.67792">
        <ele>9.6</ele>
        <time>2022-05-24 20:57:33</time>
      </trkpt>
      <trkpt lat="40.65622" lon="0.678">
        <ele>9.6</ele>
        <time>2022-05-24 20:57:34</time>
      </trkpt>
      <trkpt lat="40.65623" lon="0.67808">
        <ele>9.6</ele>
        <time>2022-05-24 20:57:35</time>
      </trkpt>
      <trkpt lat="40.65623" lon="0.67816">
        <ele>9.6</ele>
        <time>2022-05-24 20:57:36</time>
      </trkpt>
      <trkpt lat="40.65624" lon="0.67824">
        <ele>9.6</ele>
        <time>2022-05-24 20:57:37</time>
      </trkpt>
      <trkpt lat="40.65624" lon="0.67832">
        <ele>9.6</ele>
        <time>2022-05-24 20:57:38</time>
      </trkpt>
      <trkpt lat="40.65625" lon="0.67841">
        <ele>9.6</ele>
        <time>2022-05-24 20:57:39</time>
      </trkpt>
      <trkpt lat="40.65627" lon="0.67849">
        <ele>9.6</ele>
        <time>2022-05-24 20:57:40</time>
      </trkpt>
      <trkpt lat="40.65628" lon="0.67857">
        <ele>9.6</ele>
        <time>2022-05-24 20:57:41</time>
      </trkpt>
      <trkpt lat="40.6563" lon="0.67865">
        <ele>9.6</ele>
        <time>2022-05-24 20:57:42</time>
      </trkpt>
      <trkpt lat="40.65631" lon="0.67873">
        <ele>9.6</ele>
        <time>2022-05-24 20:57:43</time>
      </trkpt>
      <trkpt lat="40.65633" lon="0.6788">
        <ele>9.6</ele>
        <time>2022-05-24 20:57:44</time>
      </trkpt>
      <trkpt lat="40.65635" lon="0.67888">
        <ele>9.6</ele>
        <time>2022-05-24 20:57:45</time>
      </trkpt>
      <trkpt lat="40.65637" lon="0.67896">
        <ele>9.6</ele>
        <time>2022-05-24 20:57:46</time>
      </trkpt>
      <trkpt lat="40.65639" lon="0.67903">
        <ele>9.6</ele>
        <time>2022-05-24 20:57:47</time>
      </trkpt>
      <trkpt lat="40.65642" lon="0.67911">
        <ele>9.6</ele>
        <time>2022-05-24 20:57:48</time>
      </trkpt>
      <trkpt lat="40.65645" lon="0.67918">
        <ele>9.6</ele>
        <time>2022-05-24 20:57:49</time>
      </trkpt>
      <trkpt lat="40.65648" lon="0.67925">
        <ele>9.6</ele>
        <time>2022-05-24 20:57:50</time>
      </trkpt>
      <trkpt lat="40.65652" lon="0.67932">
        <ele>9.8</ele>
        <time>2022-05-24 20:57:51</time>
      </trkpt>
      <trkpt lat="40.65657" lon="0.67938">
        <ele>9.6</ele>
        <time>2022-05-24 20:57:52</time>
      </trkpt>
      <trkpt lat="40.65661" lon="0.67943">
        <ele>9.6</ele>
        <time>2022-05-24 20:57:53</time>
      </trkpt>
      <trkpt lat="40.65666" lon="0.67948">
        <ele>9.6</ele>
        <time>2022-05-24 20:57:54</time>
      </trkpt>
      <trkpt lat="40.65671" lon="0.67954">
        <ele>9.6</ele>
        <time>2022-05-24 20:57:55</time>
      </trkpt>
      <trkpt lat="40.65675" lon="0.67959">
        <ele>9.4</ele>
        <time>2022-05-24 20:57:56</time>
      </trkpt>
      <trkpt lat="40.6568" lon="0.67964">
        <ele>9.4</ele>
        <time>2022-05-24 20:57:57</time>
      </trkpt>
      <trkpt lat="40.65685" lon="0.67969">
        <ele>9.4</ele>
        <time>2022-05-24 20:57:58</time>
      </trkpt>
      <trkpt lat="40.65689" lon="0.67974">
        <ele>9.4</ele>
        <time>2022-05-24 20:57:59</time>
      </trkpt>
      <trkpt lat="40.65694" lon="0.67979">
        <ele>9.4</ele>
        <time>2022-05-24 20:58:00</time>
      </trkpt>
      <trkpt lat="40.65698" lon="0.67984">
        <ele>9.4</ele>
        <time>2022-05-24 20:58:01</time>
      </trkpt>
      <trkpt lat="40.65702" lon="0.67989">
        <ele>9.4</ele>
        <time>2022-05-24 20:58:02</time>
      </trkpt>
      <trkpt lat="40.65707" lon="0.67994">
        <ele>9.4</ele>
        <time>2022-05-24 20:58:03</time>
      </trkpt>
      <trkpt lat="40.65711" lon="0.67999">
        <ele>9.4</ele>
        <time>2022-05-24 20:58:04</time>
      </trkpt>
      <trkpt lat="40.65716" lon="0.68003">
        <ele>9.4</ele>
        <time>2022-05-24 20:58:05</time>
      </trkpt>
      <trkpt lat="40.6572" lon="0.68008">
        <ele>9.4</ele>
        <time>2022-05-24 20:58:06</time>
      </trkpt>
      <trkpt lat="40.65724" lon="0.68013">
        <ele>9.4</ele>
        <time>2022-05-24 20:58:07</time>
      </trkpt>
      <trkpt lat="40.65728" lon="0.68018">
        <ele>9.4</ele>
        <time>2022-05-24 20:58:08</time>
      </trkpt>
      <trkpt lat="40.65733" lon="0.68023">
        <ele>9.4</ele>
        <time>2022-05-24 20:58:09</time>
      </trkpt>
      <trkpt lat="40.65737" lon="0.68028">
        <ele>9.4</ele>
        <time>2022-05-24 20:58:10</time>
      </trkpt>
      <trkpt lat="40.65741" lon="0.68033">
        <ele>9.4</ele>
        <time>2022-05-24 20:58:11</time>
      </trkpt>
      <trkpt lat="40.65746" lon="0.68037">
        <ele>9.4</ele>
        <time>2022-05-24 20:58:12</time>
      </trkpt>
      <trkpt lat="40.65749" lon="0.68042">
        <ele>9.4</ele>
        <time>2022-05-24 20:58:13</time>
      </trkpt>
      <trkpt lat="40.65754" lon="0.68047">
        <ele>9.4</ele>
        <time>2022-05-24 20:58:14</time>
      </trkpt>
      <trkpt lat="40.65758" lon="0.68052">
        <ele>9.4</ele>
        <time>2022-05-24 20:58:15</time>
      </trkpt>
      <trkpt lat="40.65762" lon="0.68056">
        <ele>9.4</ele>
        <time>2022-05-24 20:58:16</time>
      </trkpt>
      <trkpt lat="40.65767" lon="0.68061">
        <ele>9.4</ele>
        <time>2022-05-24 20:58:17</time>
      </trkpt>
      <trkpt lat="40.65771" lon="0.68066">
        <ele>9.4</ele>
        <time>2022-05-24 20:58:18</time>
      </trkpt>
      <trkpt lat="40.65775" lon="0.6807">
        <ele>9.4</ele>
        <time>2022-05-24 20:58:19</time>
      </trkpt>
      <trkpt lat="40.65779" lon="0.68075">
        <ele>9.4</ele>
        <time>2022-05-24 20:58:20</time>
      </trkpt>
      <trkpt lat="40.65783" lon="0.6808">
        <ele>9.4</ele>
        <time>2022-05-24 20:58:21</time>
      </trkpt>
      <trkpt lat="40.65787" lon="0.68085">
        <ele>9.4</ele>
        <time>2022-05-24 20:58:22</time>
      </trkpt>
      <trkpt lat="40.65791" lon="0.6809">
        <ele>9.4</ele>
        <time>2022-05-24 20:58:23</time>
      </trkpt>
      <trkpt lat="40.65795" lon="0.68094">
        <ele>9.4</ele>
        <time>2022-05-24 20:58:24</time>
      </trkpt>
      <trkpt lat="40.658" lon="0.68099">
        <ele>9.4</ele>
        <time>2022-05-24 20:58:25</time>
      </trkpt>
      <trkpt lat="40.65804" lon="0.68103">
        <ele>9.4</ele>
        <time>2022-05-24 20:58:26</time>
      </trkpt>
      <trkpt lat="40.65808" lon="0.68108">
        <ele>9.4</ele>
        <time>2022-05-24 20:58:27</time>
      </trkpt>
      <trkpt lat="40.65813" lon="0.68112">
        <ele>9.4</ele>
        <time>2022-05-24 20:58:28</time>
      </trkpt>
      <trkpt lat="40.65816" lon="0.68115">
        <ele>9.4</ele>
        <time>2022-05-24 20:58:29</time>
      </trkpt>
      <trkpt lat="40.65822" lon="0.68119">
        <ele>9.4</ele>
        <time>2022-05-24 20:58:30</time>
      </trkpt>
      <trkpt lat="40.65827" lon="0.68122">
        <ele>9.4</ele>
        <time>2022-05-24 20:58:31</time>
      </trkpt>
      <trkpt lat="40.65832" lon="0.68124">
        <ele>9.4</ele>
        <time>2022-05-24 20:58:32</time>
      </trkpt>
      <trkpt lat="40.65837" lon="0.68127">
        <ele>9.4</ele>
        <time>2022-05-24 20:58:33</time>
      </trkpt>
      <trkpt lat="40.65843" lon="0.68128">
        <ele>9.4</ele>
        <time>2022-05-24 20:58:34</time>
      </trkpt>
      <trkpt lat="40.65848" lon="0.68129">
        <ele>9.4</ele>
        <time>2022-05-24 20:58:35</time>
      </trkpt>
      <trkpt lat="40.65853" lon="0.68129">
        <ele>9.4</ele>
        <time>2022-05-24 20:58:36</time>
      </trkpt>
      <trkpt lat="40.65858" lon="0.68129">
        <ele>9.4</ele>
        <time>2022-05-24 20:58:37</time>
      </trkpt>
      <trkpt lat="40.65864" lon="0.68129">
        <ele>9.4</ele>
        <time>2022-05-24 20:58:38</time>
      </trkpt>
      <trkpt lat="40.65869" lon="0.68129">
        <ele>9.4</ele>
        <time>2022-05-24 20:58:39</time>
      </trkpt>
      <trkpt lat="40.65874" lon="0.68128">
        <ele>9.4</ele>
        <time>2022-05-24 20:58:40</time>
      </trkpt>
      <trkpt lat="40.65879" lon="0.68128">
        <ele>9.4</ele>
        <time>2022-05-24 20:58:41</time>
      </trkpt>
      <trkpt lat="40.65884" lon="0.68128">
        <ele>9.4</ele>
        <time>2022-05-24 20:58:42</time>
      </trkpt>
      <trkpt lat="40.65889" lon="0.68128">
        <ele>9.4</ele>
        <time>2022-05-24 20:58:43</time>
      </trkpt>
      <trkpt lat="40.65895" lon="0.68128">
        <ele>9.2</ele>
        <time>2022-05-24 20:58:44</time>
      </trkpt>
      <trkpt lat="40.659" lon="0.68127">
        <ele>9.2</ele>
        <time>2022-05-24 20:58:45</time>
      </trkpt>
      <trkpt lat="40.65905" lon="0.68127">
        <ele>9.2</ele>
        <time>2022-05-24 20:58:46</time>
      </trkpt>
      <trkpt lat="40.65911" lon="0.68127">
        <ele>9.2</ele>
        <time>2022-05-24 20:58:47</time>
      </trkpt>
      <trkpt lat="40.65916" lon="0.68127">
        <ele>9.2</ele>
        <time>2022-05-24 20:58:48</time>
      </trkpt>
      <trkpt lat="40.65922" lon="0.68127">
        <ele>9.2</ele>
        <time>2022-05-24 20:58:49</time>
      </trkpt>
      <trkpt lat="40.65927" lon="0.68127">
        <ele>9.2</ele>
        <time>2022-05-24 20:58:50</time>
      </trkpt>
      <trkpt lat="40.65932" lon="0.68126">
        <ele>9.2</ele>
        <time>2022-05-24 20:58:51</time>
      </trkpt>
      <trkpt lat="40.65936" lon="0.68126">
        <ele>9.2</ele>
        <time>2022-05-24 20:58:52</time>
      </trkpt>
      <trkpt lat="40.65942" lon="0.68126">
        <ele>9.2</ele>
        <time>2022-05-24 20:58:53</time>
      </trkpt>
      <trkpt lat="40.65947" lon="0.68126">
        <ele>9</ele>
        <time>2022-05-24 20:58:54</time>
      </trkpt>
      <trkpt lat="40.65952" lon="0.68126">
        <ele>9</ele>
        <time>2022-05-24 20:58:55</time>
      </trkpt>
      <trkpt lat="40.65957" lon="0.68126">
        <ele>9</ele>
        <time>2022-05-24 20:58:56</time>
      </trkpt>
      <trkpt lat="40.65963" lon="0.68126">
        <ele>9</ele>
        <time>2022-05-24 20:58:57</time>
      </trkpt>
      <trkpt lat="40.65968" lon="0.68126">
        <ele>9</ele>
        <time>2022-05-24 20:58:58</time>
      </trkpt>
      <trkpt lat="40.65973" lon="0.68126">
        <ele>9</ele>
        <time>2022-05-24 20:58:59</time>
      </trkpt>
      <trkpt lat="40.65978" lon="0.68126">
        <ele>9</ele>
        <time>2022-05-24 20:59:00</time>
      </trkpt>
      <trkpt lat="40.65984" lon="0.68127">
        <ele>9</ele>
        <time>2022-05-24 20:59:01</time>
      </trkpt>
      <trkpt lat="40.65988" lon="0.68129">
        <ele>9</ele>
        <time>2022-05-24 20:59:02</time>
      </trkpt>
      <trkpt lat="40.65993" lon="0.68132">
        <ele>9.2</ele>
        <time>2022-05-24 20:59:03</time>
      </trkpt>
      <trkpt lat="40.65997" lon="0.68136">
        <ele>9.4</ele>
        <time>2022-05-24 20:59:04</time>
      </trkpt>
      <trkpt lat="40.66" lon="0.6814">
        <ele>9.6</ele>
        <time>2022-05-24 20:59:05</time>
      </trkpt>
      <trkpt lat="40.66003" lon="0.68145">
        <ele>9.8</ele>
        <time>2022-05-24 20:59:06</time>
      </trkpt>
      <trkpt lat="40.66005" lon="0.6815">
        <ele>10</ele>
        <time>2022-05-24 20:59:07</time>
      </trkpt>
      <trkpt lat="40.66007" lon="0.68156">
        <ele>10.2</ele>
        <time>2022-05-24 20:59:08</time>
      </trkpt>
      <trkpt lat="40.6601" lon="0.68161">
        <ele>10.2</ele>
        <time>2022-05-24 20:59:09</time>
      </trkpt>
      <trkpt lat="40.66012" lon="0.68167">
        <ele>10</ele>
        <time>2022-05-24 20:59:10</time>
      </trkpt>
      <trkpt lat="40.66015" lon="0.68173">
        <ele>9.8</ele>
        <time>2022-05-24 20:59:11</time>
      </trkpt>
      <trkpt lat="40.66016" lon="0.6818">
        <ele>9.6</ele>
        <time>2022-05-24 20:59:12</time>
      </trkpt>
      <trkpt lat="40.66018" lon="0.68188">
        <ele>9.4</ele>
        <time>2022-05-24 20:59:13</time>
      </trkpt>
      <trkpt lat="40.66018" lon="0.68196">
        <ele>9.4</ele>
        <time>2022-05-24 20:59:14</time>
      </trkpt>
      <trkpt lat="40.66018" lon="0.68204">
        <ele>9.4</ele>
        <time>2022-05-24 20:59:15</time>
      </trkpt>
      <trkpt lat="40.66017" lon="0.68211">
        <ele>9.2</ele>
        <time>2022-05-24 20:59:16</time>
      </trkpt>
      <trkpt lat="40.66017" lon="0.68219">
        <ele>9.2</ele>
        <time>2022-05-24 20:59:17</time>
      </trkpt>
      <trkpt lat="40.66016" lon="0.68226">
        <ele>9.2</ele>
        <time>2022-05-24 20:59:18</time>
      </trkpt>
      <trkpt lat="40.66016" lon="0.68233">
        <ele>9.2</ele>
        <time>2022-05-24 20:59:19</time>
      </trkpt>
      <trkpt lat="40.66015" lon="0.6824">
        <ele>9.2</ele>
        <time>2022-05-24 20:59:20</time>
      </trkpt>
      <trkpt lat="40.66014" lon="0.68247">
        <ele>9.2</ele>
        <time>2022-05-24 20:59:21</time>
      </trkpt>
      <trkpt lat="40.66014" lon="0.68255">
        <ele>9</ele>
        <time>2022-05-24 20:59:22</time>
      </trkpt>
      <trkpt lat="40.66013" lon="0.68262">
        <ele>9</ele>
        <time>2022-05-24 20:59:23</time>
      </trkpt>
      <trkpt lat="40.66013" lon="0.68269">
        <ele>9</ele>
        <time>2022-05-24 20:59:24</time>
      </trkpt>
      <trkpt lat="40.66012" lon="0.68276">
        <ele>9</ele>
        <time>2022-05-24 20:59:25</time>
      </trkpt>
      <trkpt lat="40.66011" lon="0.68283">
        <ele>9</ele>
        <time>2022-05-24 20:59:26</time>
      </trkpt>
      <trkpt lat="40.66011" lon="0.68291">
        <ele>9</ele>
        <time>2022-05-24 20:59:27</time>
      </trkpt>
      <trkpt lat="40.6601" lon="0.68298">
        <ele>9</ele>
        <time>2022-05-24 20:59:28</time>
      </trkpt>
      <trkpt lat="40.6601" lon="0.68305">
        <ele>9</ele>
        <time>2022-05-24 20:59:29</time>
      </trkpt>
      <trkpt lat="40.66009" lon="0.68313">
        <ele>8.8</ele>
        <time>2022-05-24 20:59:30</time>
      </trkpt>
      <trkpt lat="40.66008" lon="0.6832">
        <ele>9</ele>
        <time>2022-05-24 20:59:31</time>
      </trkpt>
      <trkpt lat="40.66008" lon="0.68327">
        <ele>9</ele>
        <time>2022-05-24 20:59:32</time>
      </trkpt>
      <trkpt lat="40.66007" lon="0.68334">
        <ele>9</ele>
        <time>2022-05-24 20:59:33</time>
      </trkpt>
      <trkpt lat="40.66006" lon="0.68341">
        <ele>9</ele>
        <time>2022-05-24 20:59:34</time>
      </trkpt>
      <trkpt lat="40.66006" lon="0.68348">
        <ele>9</ele>
        <time>2022-05-24 20:59:35</time>
      </trkpt>
      <trkpt lat="40.66006" lon="0.68355">
        <ele>9</ele>
        <time>2022-05-24 20:59:36</time>
      </trkpt>
      <trkpt lat="40.66005" lon="0.68363">
        <ele>9</ele>
        <time>2022-05-24 20:59:37</time>
      </trkpt>
      <trkpt lat="40.66005" lon="0.6837">
        <ele>9</ele>
        <time>2022-05-24 20:59:38</time>
      </trkpt>
      <trkpt lat="40.66004" lon="0.68376">
        <ele>9</ele>
        <time>2022-05-24 20:59:39</time>
      </trkpt>
      <trkpt lat="40.66003" lon="0.68384">
        <ele>9.2</ele>
        <time>2022-05-24 20:59:40</time>
      </trkpt>
      <trkpt lat="40.66003" lon="0.6839">
        <ele>9</ele>
        <time>2022-05-24 20:59:41</time>
      </trkpt>
      <trkpt lat="40.66002" lon="0.68398">
        <ele>9</ele>
        <time>2022-05-24 20:59:42</time>
      </trkpt>
      <trkpt lat="40.66002" lon="0.68406">
        <ele>9</ele>
        <time>2022-05-24 20:59:43</time>
      </trkpt>
      <trkpt lat="40.66001" lon="0.68413">
        <ele>9</ele>
        <time>2022-05-24 20:59:44</time>
      </trkpt>
      <trkpt lat="40.66" lon="0.6842">
        <ele>9.2</ele>
        <time>2022-05-24 20:59:45</time>
      </trkpt>
      <trkpt lat="40.66" lon="0.68428">
        <ele>9.2</ele>
        <time>2022-05-24 20:59:46</time>
      </trkpt>
      <trkpt lat="40.65999" lon="0.68435">
        <ele>9.2</ele>
        <time>2022-05-24 20:59:47</time>
      </trkpt>
      <trkpt lat="40.65998" lon="0.68442">
        <ele>9.2</ele>
        <time>2022-05-24 20:59:48</time>
      </trkpt>
      <trkpt lat="40.65998" lon="0.68449">
        <ele>9.2</ele>
        <time>2022-05-24 20:59:49</time>
      </trkpt>
      <trkpt lat="40.65997" lon="0.68455">
        <ele>9.2</ele>
        <time>2022-05-24 20:59:50</time>
      </trkpt>
      <trkpt lat="40.65997" lon="0.68462">
        <ele>9.2</ele>
        <time>2022-05-24 20:59:51</time>
      </trkpt>
      <trkpt lat="40.65997" lon="0.68468">
        <ele>9.2</ele>
        <time>2022-05-24 20:59:52</time>
      </trkpt>
      <trkpt lat="40.65996" lon="0.68475">
        <ele>9.2</ele>
        <time>2022-05-24 20:59:53</time>
      </trkpt>
      <trkpt lat="40.65995" lon="0.68481">
        <ele>9</ele>
        <time>2022-05-24 20:59:54</time>
      </trkpt>
      <trkpt lat="40.65995" lon="0.68487">
        <ele>9</ele>
        <time>2022-05-24 20:59:55</time>
      </trkpt>
      <trkpt lat="40.65995" lon="0.68494">
        <ele>9.2</ele>
        <time>2022-05-24 20:59:56</time>
      </trkpt>
      <trkpt lat="40.65994" lon="0.68501">
        <ele>9.2</ele>
        <time>2022-05-24 20:59:57</time>
      </trkpt>
      <trkpt lat="40.65994" lon="0.68507">
        <ele>9.2</ele>
        <time>2022-05-24 20:59:58</time>
      </trkpt>
      <trkpt lat="40.65993" lon="0.68513">
        <ele>9.2</ele>
        <time>2022-05-24 20:59:59</time>
      </trkpt>
      <trkpt lat="40.65992" lon="0.68518">
        <ele>9.2</ele>
        <time>2022-05-24 21:00:00</time>
      </trkpt>
      <trkpt lat="40.65992" lon="0.68524">
        <ele>9.2</ele>
        <time>2022-05-24 21:00:01</time>
      </trkpt>
      <trkpt lat="40.65991" lon="0.6853">
        <ele>9.2</ele>
        <time>2022-05-24 21:00:02</time>
      </trkpt>
      <trkpt lat="40.6599" lon="0.68535">
        <ele>9.2</ele>
        <time>2022-05-24 21:00:03</time>
      </trkpt>
      <trkpt lat="40.6599" lon="0.68542">
        <ele>9.2</ele>
        <time>2022-05-24 21:00:04</time>
      </trkpt>
      <trkpt lat="40.6599" lon="0.68547">
        <ele>9.2</ele>
        <time>2022-05-24 21:00:05</time>
      </trkpt>
      <trkpt lat="40.65989" lon="0.68553">
        <ele>9.2</ele>
        <time>2022-05-24 21:00:06</time>
      </trkpt>
      <trkpt lat="40.65989" lon="0.6856">
        <ele>9.2</ele>
        <time>2022-05-24 21:00:07</time>
      </trkpt>
      <trkpt lat="40.65988" lon="0.68566">
        <ele>9.2</ele>
        <time>2022-05-24 21:00:08</time>
      </trkpt>
      <trkpt lat="40.65988" lon="0.68572">
        <ele>9.2</ele>
        <time>2022-05-24 21:00:09</time>
      </trkpt>
      <trkpt lat="40.65987" lon="0.68579">
        <ele>9.2</ele>
        <time>2022-05-24 21:00:10</time>
      </trkpt>
      <trkpt lat="40.65986" lon="0.68585">
        <ele>9.2</ele>
        <time>2022-05-24 21:00:11</time>
      </trkpt>
      <trkpt lat="40.65986" lon="0.68591">
        <ele>9.2</ele>
        <time>2022-05-24 21:00:12</time>
      </trkpt>
      <trkpt lat="40.65985" lon="0.68597">
        <ele>9.2</ele>
        <time>2022-05-24 21:00:13</time>
      </trkpt>
      <trkpt lat="40.65985" lon="0.68602">
        <ele>9.2</ele>
        <time>2022-05-24 21:00:14</time>
      </trkpt>
      <trkpt lat="40.65985" lon="0.68608">
        <ele>9.2</ele>
        <time>2022-05-24 21:00:15</time>
      </trkpt>
      <trkpt lat="40.65984" lon="0.68614">
        <ele>9.2</ele>
        <time>2022-05-24 21:00:16</time>
      </trkpt>
      <trkpt lat="40.65984" lon="0.68619">
        <ele>9.2</ele>
        <time>2022-05-24 21:00:17</time>
      </trkpt>
      <trkpt lat="40.65984" lon="0.68625">
        <ele>9.2</ele>
        <time>2022-05-24 21:00:18</time>
      </trkpt>
      <trkpt lat="40.65983" lon="0.68631">
        <ele>9.2</ele>
        <time>2022-05-24 21:00:19</time>
      </trkpt>
      <trkpt lat="40.65983" lon="0.68637">
        <ele>9.2</ele>
        <time>2022-05-24 21:00:20</time>
      </trkpt>
      <trkpt lat="40.65983" lon="0.68642">
        <ele>9.2</ele>
        <time>2022-05-24 21:00:21</time>
      </trkpt>
      <trkpt lat="40.65982" lon="0.68648">
        <ele>9.2</ele>
        <time>2022-05-24 21:00:22</time>
      </trkpt>
      <trkpt lat="40.65982" lon="0.68653">
        <ele>9.2</ele>
        <time>2022-05-24 21:00:23</time>
      </trkpt>
      <trkpt lat="40.65982" lon="0.68659">
        <ele>9.2</ele>
        <time>2022-05-24 21:00:24</time>
      </trkpt>
      <trkpt lat="40.65981" lon="0.68665">
        <ele>9.2</ele>
        <time>2022-05-24 21:00:25</time>
      </trkpt>
      <trkpt lat="40.6598" lon="0.68671">
        <ele>9.2</ele>
        <time>2022-05-24 21:00:26</time>
      </trkpt>
      <trkpt lat="40.6598" lon="0.68677">
        <ele>9.2</ele>
        <time>2022-05-24 21:00:27</time>
      </trkpt>
      <trkpt lat="40.65979" lon="0.68683">
        <ele>9.2</ele>
        <time>2022-05-24 21:00:28</time>
      </trkpt>
      <trkpt lat="40.65979" lon="0.68689">
        <ele>9.2</ele>
        <time>2022-05-24 21:00:29</time>
      </trkpt>
      <trkpt lat="40.65978" lon="0.68695">
        <ele>9.2</ele>
        <time>2022-05-24 21:00:30</time>
      </trkpt>
      <trkpt lat="40.65978" lon="0.68702">
        <ele>9.2</ele>
        <time>2022-05-24 21:00:31</time>
      </trkpt>
      <trkpt lat="40.65977" lon="0.68708">
        <ele>9.2</ele>
        <time>2022-05-24 21:00:32</time>
      </trkpt>
      <trkpt lat="40.65977" lon="0.68714">
        <ele>9.2</ele>
        <time>2022-05-24 21:00:33</time>
      </trkpt>
      <trkpt lat="40.65976" lon="0.6872">
        <ele>9.2</ele>
        <time>2022-05-24 21:00:34</time>
      </trkpt>
      <trkpt lat="40.65976" lon="0.68727">
        <ele>9</ele>
        <time>2022-05-24 21:00:35</time>
      </trkpt>
      <trkpt lat="40.65975" lon="0.68733">
        <ele>9.2</ele>
        <time>2022-05-24 21:00:36</time>
      </trkpt>
      <trkpt lat="40.65974" lon="0.6874">
        <ele>9.2</ele>
        <time>2022-05-24 21:00:37</time>
      </trkpt>
      <trkpt lat="40.65974" lon="0.68746">
        <ele>9.2</ele>
        <time>2022-05-24 21:00:38</time>
      </trkpt>
      <trkpt lat="40.65974" lon="0.68753">
        <ele>9.2</ele>
        <time>2022-05-24 21:00:39</time>
      </trkpt>
      <trkpt lat="40.65973" lon="0.68759">
        <ele>9.2</ele>
        <time>2022-05-24 21:00:40</time>
      </trkpt>
      <trkpt lat="40.65973" lon="0.68766">
        <ele>9</ele>
        <time>2022-05-24 21:00:41</time>
      </trkpt>
      <trkpt lat="40.65972" lon="0.68772">
        <ele>9</ele>
        <time>2022-05-24 21:00:42</time>
      </trkpt>
      <trkpt lat="40.65972" lon="0.68779">
        <ele>9</ele>
        <time>2022-05-24 21:00:43</time>
      </trkpt>
      <trkpt lat="40.65971" lon="0.68786">
        <ele>9</ele>
        <time>2022-05-24 21:00:44</time>
      </trkpt>
      <trkpt lat="40.6597" lon="0.68792">
        <ele>9</ele>
        <time>2022-05-24 21:00:45</time>
      </trkpt>
      <trkpt lat="40.6597" lon="0.68799">
        <ele>9</ele>
        <time>2022-05-24 21:00:46</time>
      </trkpt>
      <trkpt lat="40.65969" lon="0.68806">
        <ele>9</ele>
        <time>2022-05-24 21:00:47</time>
      </trkpt>
      <trkpt lat="40.65969" lon="0.68813">
        <ele>9</ele>
        <time>2022-05-24 21:00:48</time>
      </trkpt>
      <trkpt lat="40.65969" lon="0.6882">
        <ele>9</ele>
        <time>2022-05-24 21:00:49</time>
      </trkpt>
      <trkpt lat="40.65969" lon="0.68826">
        <ele>9</ele>
        <time>2022-05-24 21:00:50</time>
      </trkpt>
      <trkpt lat="40.65968" lon="0.68832">
        <ele>9</ele>
        <time>2022-05-24 21:00:51</time>
      </trkpt>
      <trkpt lat="40.65968" lon="0.68837">
        <ele>9</ele>
        <time>2022-05-24 21:00:52</time>
      </trkpt>
      <trkpt lat="40.65968" lon="0.68843">
        <ele>9</ele>
        <time>2022-05-24 21:00:53</time>
      </trkpt>
      <trkpt lat="40.65967" lon="0.68849">
        <ele>9</ele>
        <time>2022-05-24 21:00:54</time>
      </trkpt>
      <trkpt lat="40.65967" lon="0.68855">
        <ele>9</ele>
        <time>2022-05-24 21:00:55</time>
      </trkpt>
      <trkpt lat="40.65967" lon="0.6886">
        <ele>9</ele>
        <time>2022-05-24 21:00:56</time>
      </trkpt>
      <trkpt lat="40.65966" lon="0.68867">
        <ele>9</ele>
        <time>2022-05-24 21:00:57</time>
      </trkpt>
      <trkpt lat="40.65966" lon="0.68873">
        <ele>9</ele>
        <time>2022-05-24 21:00:58</time>
      </trkpt>
      <trkpt lat="40.65965" lon="0.68879">
        <ele>9</ele>
        <time>2022-05-24 21:00:59</time>
      </trkpt>
      <trkpt lat="40.65965" lon="0.68885">
        <ele>9</ele>
        <time>2022-05-24 21:01:00</time>
      </trkpt>
      <trkpt lat="40.65964" lon="0.6889">
        <ele>9</ele>
        <time>2022-05-24 21:01:01</time>
      </trkpt>
      <trkpt lat="40.65963" lon="0.68897">
        <ele>9</ele>
        <time>2022-05-24 21:01:02</time>
      </trkpt>
      <trkpt lat="40.65963" lon="0.68904">
        <ele>9</ele>
        <time>2022-05-24 21:01:03</time>
      </trkpt>
      <trkpt lat="40.65963" lon="0.68911">
        <ele>9</ele>
        <time>2022-05-24 21:01:04</time>
      </trkpt>
      <trkpt lat="40.65962" lon="0.68917">
        <ele>9.2</ele>
        <time>2022-05-24 21:01:05</time>
      </trkpt>
      <trkpt lat="40.65962" lon="0.68924">
        <ele>9.2</ele>
        <time>2022-05-24 21:01:06</time>
      </trkpt>
      <trkpt lat="40.65961" lon="0.6893">
        <ele>9.2</ele>
        <time>2022-05-24 21:01:07</time>
      </trkpt>
      <trkpt lat="40.6596" lon="0.68937">
        <ele>9.2</ele>
        <time>2022-05-24 21:01:08</time>
      </trkpt>
      <trkpt lat="40.6596" lon="0.68944">
        <ele>9.2</ele>
        <time>2022-05-24 21:01:09</time>
      </trkpt>
      <trkpt lat="40.6596" lon="0.68951">
        <ele>9.2</ele>
        <time>2022-05-24 21:01:10</time>
      </trkpt>
      <trkpt lat="40.65959" lon="0.68957">
        <ele>9.2</ele>
        <time>2022-05-24 21:01:11</time>
      </trkpt>
      <trkpt lat="40.65959" lon="0.68964">
        <ele>9.2</ele>
        <time>2022-05-24 21:01:12</time>
      </trkpt>
      <trkpt lat="40.65958" lon="0.6897">
        <ele>9.2</ele>
        <time>2022-05-24 21:01:13</time>
      </trkpt>
      <trkpt lat="40.65958" lon="0.68977">
        <ele>9.2</ele>
        <time>2022-05-24 21:01:14</time>
      </trkpt>
      <trkpt lat="40.65957" lon="0.68983">
        <ele>9.2</ele>
        <time>2022-05-24 21:01:15</time>
      </trkpt>
      <trkpt lat="40.65957" lon="0.6899">
        <ele>9.2</ele>
        <time>2022-05-24 21:01:16</time>
      </trkpt>
      <trkpt lat="40.65956" lon="0.68997">
        <ele>9.2</ele>
        <time>2022-05-24 21:01:17</time>
      </trkpt>
      <trkpt lat="40.65956" lon="0.69004">
        <ele>9.2</ele>
        <time>2022-05-24 21:01:18</time>
      </trkpt>
      <trkpt lat="40.65955" lon="0.6901">
        <ele>9.2</ele>
        <time>2022-05-24 21:01:19</time>
      </trkpt>
      <trkpt lat="40.65955" lon="0.69017">
        <ele>9.2</ele>
        <time>2022-05-24 21:01:20</time>
      </trkpt>
      <trkpt lat="40.65954" lon="0.69023">
        <ele>9.2</ele>
        <time>2022-05-24 21:01:21</time>
      </trkpt>
      <trkpt lat="40.65953" lon="0.6903">
        <ele>9.2</ele>
        <time>2022-05-24 21:01:22</time>
      </trkpt>
      <trkpt lat="40.65953" lon="0.69037">
        <ele>9.4</ele>
        <time>2022-05-24 21:01:23</time>
      </trkpt>
      <trkpt lat="40.65952" lon="0.69043">
        <ele>9.4</ele>
        <time>2022-05-24 21:01:24</time>
      </trkpt>
      <trkpt lat="40.65952" lon="0.69049">
        <ele>9.4</ele>
        <time>2022-05-24 21:01:25</time>
      </trkpt>
      <trkpt lat="40.65951" lon="0.69055">
        <ele>9.4</ele>
        <time>2022-05-24 21:01:26</time>
      </trkpt>
      <trkpt lat="40.6595" lon="0.69062">
        <ele>9.4</ele>
        <time>2022-05-24 21:01:27</time>
      </trkpt>
      <trkpt lat="40.6595" lon="0.69068">
        <ele>9.4</ele>
        <time>2022-05-24 21:01:28</time>
      </trkpt>
      <trkpt lat="40.65949" lon="0.69075">
        <ele>9.4</ele>
        <time>2022-05-24 21:01:29</time>
      </trkpt>
      <trkpt lat="40.65948" lon="0.69081">
        <ele>9.4</ele>
        <time>2022-05-24 21:01:30</time>
      </trkpt>
      <trkpt lat="40.65948" lon="0.69088">
        <ele>9.6</ele>
        <time>2022-05-24 21:01:31</time>
      </trkpt>
      <trkpt lat="40.65947" lon="0.69095">
        <ele>9.6</ele>
        <time>2022-05-24 21:01:32</time>
      </trkpt>
      <trkpt lat="40.65947" lon="0.69102">
        <ele>9.6</ele>
        <time>2022-05-24 21:01:33</time>
      </trkpt>
      <trkpt lat="40.65946" lon="0.69108">
        <ele>9.6</ele>
        <time>2022-05-24 21:01:34</time>
      </trkpt>
      <trkpt lat="40.65946" lon="0.69115">
        <ele>9.6</ele>
        <time>2022-05-24 21:01:35</time>
      </trkpt>
      <trkpt lat="40.65945" lon="0.69122">
        <ele>9.6</ele>
        <time>2022-05-24 21:01:36</time>
      </trkpt>
      <trkpt lat="40.65945" lon="0.69129">
        <ele>9.6</ele>
        <time>2022-05-24 21:01:37</time>
      </trkpt>
      <trkpt lat="40.65944" lon="0.69136">
        <ele>9.4</ele>
        <time>2022-05-24 21:01:38</time>
      </trkpt>
      <trkpt lat="40.65944" lon="0.69142">
        <ele>9.4</ele>
        <time>2022-05-24 21:01:39</time>
      </trkpt>
      <trkpt lat="40.65943" lon="0.69149">
        <ele>9.4</ele>
        <time>2022-05-24 21:01:40</time>
      </trkpt>
      <trkpt lat="40.65943" lon="0.69156">
        <ele>9.6</ele>
        <time>2022-05-24 21:01:41</time>
      </trkpt>
      <trkpt lat="40.65942" lon="0.69163">
        <ele>9.4</ele>
        <time>2022-05-24 21:01:42</time>
      </trkpt>
      <trkpt lat="40.65941" lon="0.69169">
        <ele>9.4</ele>
        <time>2022-05-24 21:01:43</time>
      </trkpt>
      <trkpt lat="40.6594" lon="0.69176">
        <ele>9.4</ele>
        <time>2022-05-24 21:01:44</time>
      </trkpt>
      <trkpt lat="40.6594" lon="0.69183">
        <ele>9.4</ele>
        <time>2022-05-24 21:01:45</time>
      </trkpt>
      <trkpt lat="40.65939" lon="0.6919">
        <ele>9.4</ele>
        <time>2022-05-24 21:01:46</time>
      </trkpt>
      <trkpt lat="40.65939" lon="0.69197">
        <ele>9.4</ele>
        <time>2022-05-24 21:01:47</time>
      </trkpt>
      <trkpt lat="40.65939" lon="0.69204">
        <ele>9.4</ele>
        <time>2022-05-24 21:01:48</time>
      </trkpt>
      <trkpt lat="40.65938" lon="0.6921">
        <ele>9.4</ele>
        <time>2022-05-24 21:01:49</time>
      </trkpt>
      <trkpt lat="40.65937" lon="0.69217">
        <ele>9.4</ele>
        <time>2022-05-24 21:01:50</time>
      </trkpt>
      <trkpt lat="40.65937" lon="0.69224">
        <ele>9.4</ele>
        <time>2022-05-24 21:01:51</time>
      </trkpt>
      <trkpt lat="40.65936" lon="0.69231">
        <ele>9.4</ele>
        <time>2022-05-24 21:01:52</time>
      </trkpt>
      <trkpt lat="40.65936" lon="0.69238">
        <ele>9.4</ele>
        <time>2022-05-24 21:01:53</time>
      </trkpt>
      <trkpt lat="40.65935" lon="0.69245">
        <ele>9.4</ele>
        <time>2022-05-24 21:01:54</time>
      </trkpt>
      <trkpt lat="40.65934" lon="0.69252">
        <ele>9.4</ele>
        <time>2022-05-24 21:01:55</time>
      </trkpt>
      <trkpt lat="40.65934" lon="0.69259">
        <ele>9.4</ele>
        <time>2022-05-24 21:01:56</time>
      </trkpt>
      <trkpt lat="40.65933" lon="0.69265">
        <ele>9.4</ele>
        <time>2022-05-24 21:01:57</time>
      </trkpt>
      <trkpt lat="40.65933" lon="0.69271">
        <ele>9.4</ele>
        <time>2022-05-24 21:01:58</time>
      </trkpt>
      <trkpt lat="40.65932" lon="0.69278">
        <ele>9.4</ele>
        <time>2022-05-24 21:01:59</time>
      </trkpt>
      <trkpt lat="40.65932" lon="0.69284">
        <ele>9.4</ele>
        <time>2022-05-24 21:02:00</time>
      </trkpt>
      <trkpt lat="40.65931" lon="0.6929">
        <ele>9.2</ele>
        <time>2022-05-24 21:02:01</time>
      </trkpt>
      <trkpt lat="40.65931" lon="0.69297">
        <ele>9.2</ele>
        <time>2022-05-24 21:02:02</time>
      </trkpt>
      <trkpt lat="40.65931" lon="0.69303">
        <ele>9.2</ele>
        <time>2022-05-24 21:02:03</time>
      </trkpt>
      <trkpt lat="40.6593" lon="0.69309">
        <ele>9.2</ele>
        <time>2022-05-24 21:02:04</time>
      </trkpt>
      <trkpt lat="40.6593" lon="0.69316">
        <ele>9.2</ele>
        <time>2022-05-24 21:02:05</time>
      </trkpt>
      <trkpt lat="40.6593" lon="0.69322">
        <ele>9.2</ele>
        <time>2022-05-24 21:02:06</time>
      </trkpt>
      <trkpt lat="40.65929" lon="0.69329">
        <ele>9.2</ele>
        <time>2022-05-24 21:02:07</time>
      </trkpt>
      <trkpt lat="40.65929" lon="0.69335">
        <ele>9.2</ele>
        <time>2022-05-24 21:02:08</time>
      </trkpt>
      <trkpt lat="40.65929" lon="0.69341">
        <ele>9.2</ele>
        <time>2022-05-24 21:02:09</time>
      </trkpt>
      <trkpt lat="40.65928" lon="0.69347">
        <ele>9.2</ele>
        <time>2022-05-24 21:02:10</time>
      </trkpt>
      <trkpt lat="40.65928" lon="0.69353">
        <ele>9.2</ele>
        <time>2022-05-24 21:02:11</time>
      </trkpt>
      <trkpt lat="40.65927" lon="0.69359">
        <ele>9.2</ele>
        <time>2022-05-24 21:02:12</time>
      </trkpt>
      <trkpt lat="40.65926" lon="0.69366">
        <ele>9.4</ele>
        <time>2022-05-24 21:02:13</time>
      </trkpt>
      <trkpt lat="40.65926" lon="0.69372">
        <ele>9.4</ele>
        <time>2022-05-24 21:02:14</time>
      </trkpt>
      <trkpt lat="40.65926" lon="0.69378">
        <ele>9.4</ele>
        <time>2022-05-24 21:02:15</time>
      </trkpt>
      <trkpt lat="40.65925" lon="0.69385">
        <ele>9.4</ele>
        <time>2022-05-24 21:02:16</time>
      </trkpt>
      <trkpt lat="40.65925" lon="0.69391">
        <ele>9.4</ele>
        <time>2022-05-24 21:02:17</time>
      </trkpt>
      <trkpt lat="40.65925" lon="0.69398">
        <ele>9.4</ele>
        <time>2022-05-24 21:02:18</time>
      </trkpt>
      <trkpt lat="40.65924" lon="0.69404">
        <ele>9.4</ele>
        <time>2022-05-24 21:02:19</time>
      </trkpt>
      <trkpt lat="40.65924" lon="0.69411">
        <ele>9.4</ele>
        <time>2022-05-24 21:02:20</time>
      </trkpt>
      <trkpt lat="40.65923" lon="0.69417">
        <ele>9.4</ele>
        <time>2022-05-24 21:02:21</time>
      </trkpt>
      <trkpt lat="40.65923" lon="0.69424">
        <ele>9.4</ele>
        <time>2022-05-24 21:02:22</time>
      </trkpt>
      <trkpt lat="40.65923" lon="0.69431">
        <ele>9.4</ele>
        <time>2022-05-24 21:02:23</time>
      </trkpt>
      <trkpt lat="40.65922" lon="0.69437">
        <ele>9.4</ele>
        <time>2022-05-24 21:02:24</time>
      </trkpt>
      <trkpt lat="40.65921" lon="0.69444">
        <ele>9.2</ele>
        <time>2022-05-24 21:02:25</time>
      </trkpt>
      <trkpt lat="40.65921" lon="0.6945">
        <ele>9.2</ele>
        <time>2022-05-24 21:02:26</time>
      </trkpt>
      <trkpt lat="40.6592" lon="0.69456">
        <ele>9.4</ele>
        <time>2022-05-24 21:02:27</time>
      </trkpt>
      <trkpt lat="40.65919" lon="0.69463">
        <ele>9.4</ele>
        <time>2022-05-24 21:02:28</time>
      </trkpt>
      <trkpt lat="40.65919" lon="0.69468">
        <ele>9.4</ele>
        <time>2022-05-24 21:02:29</time>
      </trkpt>
      <trkpt lat="40.65919" lon="0.69474">
        <ele>9.4</ele>
        <time>2022-05-24 21:02:30</time>
      </trkpt>
      <trkpt lat="40.65919" lon="0.6948">
        <ele>9.4</ele>
        <time>2022-05-24 21:02:31</time>
      </trkpt>
      <trkpt lat="40.65918" lon="0.69485">
        <ele>9.6</ele>
        <time>2022-05-24 21:02:32</time>
      </trkpt>
      <trkpt lat="40.65918" lon="0.69491">
        <ele>9.6</ele>
        <time>2022-05-24 21:02:33</time>
      </trkpt>
      <trkpt lat="40.65918" lon="0.69497">
        <ele>9.8</ele>
        <time>2022-05-24 21:02:34</time>
      </trkpt>
      <trkpt lat="40.65918" lon="0.69502">
        <ele>10</ele>
        <time>2022-05-24 21:02:35</time>
      </trkpt>
      <trkpt lat="40.65918" lon="0.69507">
        <ele>10</ele>
        <time>2022-05-24 21:02:36</time>
      </trkpt>
      <trkpt lat="40.65917" lon="0.69512">
        <ele>10.2</ele>
        <time>2022-05-24 21:02:37</time>
      </trkpt>
      <trkpt lat="40.65917" lon="0.69516">
        <ele>10.2</ele>
        <time>2022-05-24 21:02:38</time>
      </trkpt>
      <trkpt lat="40.65916" lon="0.69521">
        <ele>10.2</ele>
        <time>2022-05-24 21:02:39</time>
      </trkpt>
      <trkpt lat="40.65916" lon="0.69526">
        <ele>10</ele>
        <time>2022-05-24 21:02:40</time>
      </trkpt>
      <trkpt lat="40.65915" lon="0.69531">
        <ele>10</ele>
        <time>2022-05-24 21:02:41</time>
      </trkpt>
      <trkpt lat="40.65914" lon="0.69538">
        <ele>9.8</ele>
        <time>2022-05-24 21:02:42</time>
      </trkpt>
      <trkpt lat="40.65913" lon="0.69544">
        <ele>9.8</ele>
        <time>2022-05-24 21:02:43</time>
      </trkpt>
      <trkpt lat="40.65913" lon="0.69552">
        <ele>9.6</ele>
        <time>2022-05-24 21:02:44</time>
      </trkpt>
      <trkpt lat="40.65912" lon="0.69558">
        <ele>9.4</ele>
        <time>2022-05-24 21:02:45</time>
      </trkpt>
      <trkpt lat="40.65911" lon="0.69565">
        <ele>9.4</ele>
        <time>2022-05-24 21:02:46</time>
      </trkpt>
      <trkpt lat="40.65911" lon="0.69572">
        <ele>9.2</ele>
        <time>2022-05-24 21:02:47</time>
      </trkpt>
      <trkpt lat="40.6591" lon="0.69579">
        <ele>9.2</ele>
        <time>2022-05-24 21:02:48</time>
      </trkpt>
      <trkpt lat="40.6591" lon="0.69586">
        <ele>9</ele>
        <time>2022-05-24 21:02:49</time>
      </trkpt>
      <trkpt lat="40.6591" lon="0.69593">
        <ele>9</ele>
        <time>2022-05-24 21:02:50</time>
      </trkpt>
      <trkpt lat="40.65909" lon="0.696">
        <ele>9</ele>
        <time>2022-05-24 21:02:51</time>
      </trkpt>
      <trkpt lat="40.65909" lon="0.69607">
        <ele>9</ele>
        <time>2022-05-24 21:02:52</time>
      </trkpt>
      <trkpt lat="40.65908" lon="0.69614">
        <ele>9</ele>
        <time>2022-05-24 21:02:53</time>
      </trkpt>
      <trkpt lat="40.65907" lon="0.69621">
        <ele>9</ele>
        <time>2022-05-24 21:02:54</time>
      </trkpt>
      <trkpt lat="40.65906" lon="0.69629">
        <ele>9</ele>
        <time>2022-05-24 21:02:55</time>
      </trkpt>
      <trkpt lat="40.65905" lon="0.69636">
        <ele>9</ele>
        <time>2022-05-24 21:02:56</time>
      </trkpt>
      <trkpt lat="40.65905" lon="0.69643">
        <ele>9</ele>
        <time>2022-05-24 21:02:57</time>
      </trkpt>
      <trkpt lat="40.65904" lon="0.69651">
        <ele>9</ele>
        <time>2022-05-24 21:02:58</time>
      </trkpt>
      <trkpt lat="40.65903" lon="0.69658">
        <ele>9</ele>
        <time>2022-05-24 21:02:59</time>
      </trkpt>
      <trkpt lat="40.65903" lon="0.69666">
        <ele>9</ele>
        <time>2022-05-24 21:03:00</time>
      </trkpt>
      <trkpt lat="40.65902" lon="0.69673">
        <ele>9</ele>
        <time>2022-05-24 21:03:01</time>
      </trkpt>
      <trkpt lat="40.65902" lon="0.6968">
        <ele>9</ele>
        <time>2022-05-24 21:03:02</time>
      </trkpt>
      <trkpt lat="40.65902" lon="0.69687">
        <ele>8.8</ele>
        <time>2022-05-24 21:03:03</time>
      </trkpt>
      <trkpt lat="40.65902" lon="0.69695">
        <ele>8.8</ele>
        <time>2022-05-24 21:03:04</time>
      </trkpt>
      <trkpt lat="40.65901" lon="0.69701">
        <ele>8.8</ele>
        <time>2022-05-24 21:03:05</time>
      </trkpt>
      <trkpt lat="40.659" lon="0.69709">
        <ele>8.8</ele>
        <time>2022-05-24 21:03:06</time>
      </trkpt>
      <trkpt lat="40.65899" lon="0.69717">
        <ele>8.8</ele>
        <time>2022-05-24 21:03:07</time>
      </trkpt>
      <trkpt lat="40.65899" lon="0.69724">
        <ele>8.6</ele>
        <time>2022-05-24 21:03:08</time>
      </trkpt>
      <trkpt lat="40.65899" lon="0.69731">
        <ele>8.6</ele>
        <time>2022-05-24 21:03:09</time>
      </trkpt>
      <trkpt lat="40.65899" lon="0.69738">
        <ele>8.6</ele>
        <time>2022-05-24 21:03:10</time>
      </trkpt>
      <trkpt lat="40.65898" lon="0.69744">
        <ele>8.6</ele>
        <time>2022-05-24 21:03:11</time>
      </trkpt>
      <trkpt lat="40.65897" lon="0.69751">
        <ele>8.8</ele>
        <time>2022-05-24 21:03:12</time>
      </trkpt>
      <trkpt lat="40.65896" lon="0.69758">
        <ele>8.6</ele>
        <time>2022-05-24 21:03:13</time>
      </trkpt>
      <trkpt lat="40.65895" lon="0.69766">
        <ele>8.8</ele>
        <time>2022-05-24 21:03:14</time>
      </trkpt>
      <trkpt lat="40.65895" lon="0.69772">
        <ele>8.8</ele>
        <time>2022-05-24 21:03:15</time>
      </trkpt>
      <trkpt lat="40.65894" lon="0.69779">
        <ele>8.8</ele>
        <time>2022-05-24 21:03:16</time>
      </trkpt>
      <trkpt lat="40.65893" lon="0.69785">
        <ele>8.8</ele>
        <time>2022-05-24 21:03:17</time>
      </trkpt>
      <trkpt lat="40.65892" lon="0.69792">
        <ele>8.8</ele>
        <time>2022-05-24 21:03:18</time>
      </trkpt>
      <trkpt lat="40.65892" lon="0.69799">
        <ele>8.6</ele>
        <time>2022-05-24 21:03:19</time>
      </trkpt>
      <trkpt lat="40.65892" lon="0.69806">
        <ele>8.6</ele>
        <time>2022-05-24 21:03:20</time>
      </trkpt>
      <trkpt lat="40.65891" lon="0.69813">
        <ele>8.6</ele>
        <time>2022-05-24 21:03:21</time>
      </trkpt>
      <trkpt lat="40.65891" lon="0.6982">
        <ele>8.6</ele>
        <time>2022-05-24 21:03:22</time>
      </trkpt>
      <trkpt lat="40.65891" lon="0.69827">
        <ele>8.6</ele>
        <time>2022-05-24 21:03:23</time>
      </trkpt>
      <trkpt lat="40.6589" lon="0.69835">
        <ele>8.6</ele>
        <time>2022-05-24 21:03:24</time>
      </trkpt>
      <trkpt lat="40.65889" lon="0.69842">
        <ele>8.8</ele>
        <time>2022-05-24 21:03:25</time>
      </trkpt>
      <trkpt lat="40.65889" lon="0.6985">
        <ele>8.8</ele>
        <time>2022-05-24 21:03:26</time>
      </trkpt>
      <trkpt lat="40.65889" lon="0.69858">
        <ele>8.6</ele>
        <time>2022-05-24 21:03:27</time>
      </trkpt>
      <trkpt lat="40.65889" lon="0.69865">
        <ele>8.6</ele>
        <time>2022-05-24 21:03:28</time>
      </trkpt>
      <trkpt lat="40.65888" lon="0.69873">
        <ele>8.6</ele>
        <time>2022-05-24 21:03:29</time>
      </trkpt>
      <trkpt lat="40.65888" lon="0.69881">
        <ele>8.6</ele>
        <time>2022-05-24 21:03:30</time>
      </trkpt>
      <trkpt lat="40.65887" lon="0.69889">
        <ele>8.6</ele>
        <time>2022-05-24 21:03:31</time>
      </trkpt>
      <trkpt lat="40.65886" lon="0.69897">
        <ele>8.6</ele>
        <time>2022-05-24 21:03:32</time>
      </trkpt>
      <trkpt lat="40.65885" lon="0.69904">
        <ele>8.6</ele>
        <time>2022-05-24 21:03:33</time>
      </trkpt>
      <trkpt lat="40.65884" lon="0.69912">
        <ele>8.6</ele>
        <time>2022-05-24 21:03:34</time>
      </trkpt>
      <trkpt lat="40.65884" lon="0.6992">
        <ele>8.6</ele>
        <time>2022-05-24 21:03:35</time>
      </trkpt>
      <trkpt lat="40.65883" lon="0.69928">
        <ele>8.6</ele>
        <time>2022-05-24 21:03:36</time>
      </trkpt>
      <trkpt lat="40.65882" lon="0.69936">
        <ele>8.6</ele>
        <time>2022-05-24 21:03:37</time>
      </trkpt>
      <trkpt lat="40.65881" lon="0.69943">
        <ele>8.6</ele>
        <time>2022-05-24 21:03:38</time>
      </trkpt>
      <trkpt lat="40.65881" lon="0.69951">
        <ele>8.6</ele>
        <time>2022-05-24 21:03:39</time>
      </trkpt>
      <trkpt lat="40.6588" lon="0.69959">
        <ele>8.6</ele>
        <time>2022-05-24 21:03:40</time>
      </trkpt>
      <trkpt lat="40.65879" lon="0.69967">
        <ele>8.6</ele>
        <time>2022-05-24 21:03:41</time>
      </trkpt>
      <trkpt lat="40.65879" lon="0.69974">
        <ele>8.6</ele>
        <time>2022-05-24 21:03:42</time>
      </trkpt>
      <trkpt lat="40.65878" lon="0.69982">
        <ele>8.6</ele>
        <time>2022-05-24 21:03:43</time>
      </trkpt>
      <trkpt lat="40.65877" lon="0.6999">
        <ele>8.6</ele>
        <time>2022-05-24 21:03:44</time>
      </trkpt>
      <trkpt lat="40.65876" lon="0.69998">
        <ele>8.6</ele>
        <time>2022-05-24 21:03:45</time>
      </trkpt>
      <trkpt lat="40.65876" lon="0.70005">
        <ele>8.6</ele>
        <time>2022-05-24 21:03:46</time>
      </trkpt>
      <trkpt lat="40.65875" lon="0.70013">
        <ele>8.6</ele>
        <time>2022-05-24 21:03:47</time>
      </trkpt>
      <trkpt lat="40.65874" lon="0.7002">
        <ele>8.6</ele>
        <time>2022-05-24 21:03:48</time>
      </trkpt>
      <trkpt lat="40.65874" lon="0.70028">
        <ele>8.6</ele>
        <time>2022-05-24 21:03:49</time>
      </trkpt>
      <trkpt lat="40.65873" lon="0.70036">
        <ele>8.6</ele>
        <time>2022-05-24 21:03:50</time>
      </trkpt>
      <trkpt lat="40.65873" lon="0.70043">
        <ele>8.6</ele>
        <time>2022-05-24 21:03:51</time>
      </trkpt>
      <trkpt lat="40.65872" lon="0.70051">
        <ele>8.6</ele>
        <time>2022-05-24 21:03:52</time>
      </trkpt>
      <trkpt lat="40.65871" lon="0.70059">
        <ele>8.6</ele>
        <time>2022-05-24 21:03:53</time>
      </trkpt>
      <trkpt lat="40.65871" lon="0.70066">
        <ele>8.6</ele>
        <time>2022-05-24 21:03:54</time>
      </trkpt>
      <trkpt lat="40.6587" lon="0.70074">
        <ele>8.6</ele>
        <time>2022-05-24 21:03:55</time>
      </trkpt>
      <trkpt lat="40.65869" lon="0.70083">
        <ele>8.6</ele>
        <time>2022-05-24 21:03:56</time>
      </trkpt>
      <trkpt lat="40.65868" lon="0.70091">
        <ele>8.6</ele>
        <time>2022-05-24 21:03:57</time>
      </trkpt>
      <trkpt lat="40.65868" lon="0.70098">
        <ele>8.6</ele>
        <time>2022-05-24 21:03:58</time>
      </trkpt>
      <trkpt lat="40.65867" lon="0.70106">
        <ele>8.6</ele>
        <time>2022-05-24 21:03:59</time>
      </trkpt>
      <trkpt lat="40.65867" lon="0.70114">
        <ele>8.6</ele>
        <time>2022-05-24 21:04:00</time>
      </trkpt>
      <trkpt lat="40.65866" lon="0.70121">
        <ele>8.6</ele>
        <time>2022-05-24 21:04:01</time>
      </trkpt>
      <trkpt lat="40.65865" lon="0.70129">
        <ele>8.6</ele>
        <time>2022-05-24 21:04:02</time>
      </trkpt>
      <trkpt lat="40.65865" lon="0.70137">
        <ele>8.6</ele>
        <time>2022-05-24 21:04:03</time>
      </trkpt>
      <trkpt lat="40.65865" lon="0.70145">
        <ele>8.6</ele>
        <time>2022-05-24 21:04:04</time>
      </trkpt>
      <trkpt lat="40.65864" lon="0.70153">
        <ele>8.6</ele>
        <time>2022-05-24 21:04:05</time>
      </trkpt>
      <trkpt lat="40.65864" lon="0.7016">
        <ele>8.6</ele>
        <time>2022-05-24 21:04:06</time>
      </trkpt>
      <trkpt lat="40.65863" lon="0.70168">
        <ele>8.6</ele>
        <time>2022-05-24 21:04:07</time>
      </trkpt>
      <trkpt lat="40.65863" lon="0.70175">
        <ele>8.6</ele>
        <time>2022-05-24 21:04:08</time>
      </trkpt>
      <trkpt lat="40.65863" lon="0.70182">
        <ele>8.4</ele>
        <time>2022-05-24 21:04:09</time>
      </trkpt>
      <trkpt lat="40.65862" lon="0.70189">
        <ele>8.4</ele>
        <time>2022-05-24 21:04:10</time>
      </trkpt>
      <trkpt lat="40.65861" lon="0.70197">
        <ele>8.4</ele>
        <time>2022-05-24 21:04:11</time>
      </trkpt>
      <trkpt lat="40.6586" lon="0.70204">
        <ele>8.4</ele>
        <time>2022-05-24 21:04:12</time>
      </trkpt>
      <trkpt lat="40.65859" lon="0.70211">
        <ele>8.4</ele>
        <time>2022-05-24 21:04:13</time>
      </trkpt>
      <trkpt lat="40.65858" lon="0.70219">
        <ele>8.4</ele>
        <time>2022-05-24 21:04:14</time>
      </trkpt>
      <trkpt lat="40.65858" lon="0.70227">
        <ele>8.4</ele>
        <time>2022-05-24 21:04:15</time>
      </trkpt>
      <trkpt lat="40.65857" lon="0.70234">
        <ele>8.4</ele>
        <time>2022-05-24 21:04:16</time>
      </trkpt>
      <trkpt lat="40.65857" lon="0.70242">
        <ele>8.4</ele>
        <time>2022-05-24 21:04:17</time>
      </trkpt>
      <trkpt lat="40.65857" lon="0.70249">
        <ele>8.4</ele>
        <time>2022-05-24 21:04:18</time>
      </trkpt>
      <trkpt lat="40.65856" lon="0.70256">
        <ele>8.4</ele>
        <time>2022-05-24 21:04:19</time>
      </trkpt>
      <trkpt lat="40.65856" lon="0.70262">
        <ele>8.4</ele>
        <time>2022-05-24 21:04:20</time>
      </trkpt>
      <trkpt lat="40.65855" lon="0.70269">
        <ele>8.4</ele>
        <time>2022-05-24 21:04:21</time>
      </trkpt>
      <trkpt lat="40.65854" lon="0.70274">
        <ele>8.4</ele>
        <time>2022-05-24 21:04:22</time>
      </trkpt>
      <trkpt lat="40.65853" lon="0.70279">
        <ele>8.4</ele>
        <time>2022-05-24 21:04:23</time>
      </trkpt>
      <trkpt lat="40.65853" lon="0.70286">
        <ele>8.6</ele>
        <time>2022-05-24 21:04:24</time>
      </trkpt>
      <trkpt lat="40.65853" lon="0.70292">
        <ele>8.6</ele>
        <time>2022-05-24 21:04:25</time>
      </trkpt>
      <trkpt lat="40.65853" lon="0.70298">
        <ele>8.6</ele>
        <time>2022-05-24 21:04:26</time>
      </trkpt>
      <trkpt lat="40.65853" lon="0.70304">
        <ele>8.6</ele>
        <time>2022-05-24 21:04:27</time>
      </trkpt>
      <trkpt lat="40.65853" lon="0.7031">
        <ele>8.6</ele>
        <time>2022-05-24 21:04:28</time>
      </trkpt>
      <trkpt lat="40.65852" lon="0.70316">
        <ele>8.6</ele>
        <time>2022-05-24 21:04:29</time>
      </trkpt>
      <trkpt lat="40.65852" lon="0.70323">
        <ele>8.6</ele>
        <time>2022-05-24 21:04:30</time>
      </trkpt>
      <trkpt lat="40.65851" lon="0.70329">
        <ele>8.6</ele>
        <time>2022-05-24 21:04:31</time>
      </trkpt>
      <trkpt lat="40.6585" lon="0.70336">
        <ele>8.6</ele>
        <time>2022-05-24 21:04:32</time>
      </trkpt>
      <trkpt lat="40.6585" lon="0.70343">
        <ele>8.6</ele>
        <time>2022-05-24 21:04:33</time>
      </trkpt>
      <trkpt lat="40.65849" lon="0.70349">
        <ele>8.6</ele>
        <time>2022-05-24 21:04:34</time>
      </trkpt>
      <trkpt lat="40.65849" lon="0.70356">
        <ele>8.6</ele>
        <time>2022-05-24 21:04:35</time>
      </trkpt>
      <trkpt lat="40.65848" lon="0.70363">
        <ele>8.6</ele>
        <time>2022-05-24 21:04:36</time>
      </trkpt>
      <trkpt lat="40.65847" lon="0.7037">
        <ele>8.6</ele>
        <time>2022-05-24 21:04:37</time>
      </trkpt>
      <trkpt lat="40.65846" lon="0.70377">
        <ele>8.4</ele>
        <time>2022-05-24 21:04:38</time>
      </trkpt>
      <trkpt lat="40.65845" lon="0.70385">
        <ele>8.4</ele>
        <time>2022-05-24 21:04:39</time>
      </trkpt>
      <trkpt lat="40.65845" lon="0.70392">
        <ele>8.4</ele>
        <time>2022-05-24 21:04:40</time>
      </trkpt>
      <trkpt lat="40.65844" lon="0.70399">
        <ele>8.4</ele>
        <time>2022-05-24 21:04:41</time>
      </trkpt>
      <trkpt lat="40.65842" lon="0.70406">
        <ele>8.4</ele>
        <time>2022-05-24 21:04:42</time>
      </trkpt>
      <trkpt lat="40.65841" lon="0.70413">
        <ele>8.4</ele>
        <time>2022-05-24 21:04:43</time>
      </trkpt>
      <trkpt lat="40.65838" lon="0.70419">
        <ele>8.4</ele>
        <time>2022-05-24 21:04:44</time>
      </trkpt>
      <trkpt lat="40.65835" lon="0.70425">
        <ele>8.6</ele>
        <time>2022-05-24 21:04:45</time>
      </trkpt>
      <trkpt lat="40.65832" lon="0.7043">
        <ele>8.6</ele>
        <time>2022-05-24 21:04:46</time>
      </trkpt>
      <trkpt lat="40.65828" lon="0.70436">
        <ele>8.6</ele>
        <time>2022-05-24 21:04:47</time>
      </trkpt>
      <trkpt lat="40.65825" lon="0.70441">
        <ele>8.6</ele>
        <time>2022-05-24 21:04:48</time>
      </trkpt>
      <trkpt lat="40.6582" lon="0.70446">
        <ele>8.8</ele>
        <time>2022-05-24 21:04:49</time>
      </trkpt>
      <trkpt lat="40.65816" lon="0.70451">
        <ele>8.8</ele>
        <time>2022-05-24 21:04:50</time>
      </trkpt>
      <trkpt lat="40.65812" lon="0.70455">
        <ele>8.8</ele>
        <time>2022-05-24 21:04:51</time>
      </trkpt>
      <trkpt lat="40.65807" lon="0.70459">
        <ele>8.8</ele>
        <time>2022-05-24 21:04:52</time>
      </trkpt>
      <trkpt lat="40.65802" lon="0.70463">
        <ele>8.8</ele>
        <time>2022-05-24 21:04:53</time>
      </trkpt>
      <trkpt lat="40.65798" lon="0.70467">
        <ele>9</ele>
        <time>2022-05-24 21:04:54</time>
      </trkpt>
      <trkpt lat="40.65793" lon="0.7047">
        <ele>9</ele>
        <time>2022-05-24 21:04:55</time>
      </trkpt>
      <trkpt lat="40.65788" lon="0.70472">
        <ele>9</ele>
        <time>2022-05-24 21:04:56</time>
      </trkpt>
      <trkpt lat="40.65783" lon="0.70475">
        <ele>9</ele>
        <time>2022-05-24 21:04:57</time>
      </trkpt>
      <trkpt lat="40.65778" lon="0.70477">
        <ele>9</ele>
        <time>2022-05-24 21:04:58</time>
      </trkpt>
      <trkpt lat="40.65772" lon="0.70479">
        <ele>9</ele>
        <time>2022-05-24 21:04:59</time>
      </trkpt>
      <trkpt lat="40.65767" lon="0.70482">
        <ele>9</ele>
        <time>2022-05-24 21:05:00</time>
      </trkpt>
      <trkpt lat="40.65762" lon="0.70484">
        <ele>9</ele>
        <time>2022-05-24 21:05:01</time>
      </trkpt>
      <trkpt lat="40.65757" lon="0.70486">
        <ele>9</ele>
        <time>2022-05-24 21:05:02</time>
      </trkpt>
      <trkpt lat="40.65751" lon="0.70488">
        <ele>9</ele>
        <time>2022-05-24 21:05:03</time>
      </trkpt>
      <trkpt lat="40.65746" lon="0.70491">
        <ele>9</ele>
        <time>2022-05-24 21:05:04</time>
      </trkpt>
      <trkpt lat="40.65741" lon="0.70493">
        <ele>9</ele>
        <time>2022-05-24 21:05:05</time>
      </trkpt>
      <trkpt lat="40.65735" lon="0.70495">
        <ele>9</ele>
        <time>2022-05-24 21:05:06</time>
      </trkpt>
      <trkpt lat="40.6573" lon="0.70497">
        <ele>9</ele>
        <time>2022-05-24 21:05:07</time>
      </trkpt>
      <trkpt lat="40.65725" lon="0.70499">
        <ele>9</ele>
        <time>2022-05-24 21:05:08</time>
      </trkpt>
      <trkpt lat="40.65719" lon="0.70501">
        <ele>9</ele>
        <time>2022-05-24 21:05:09</time>
      </trkpt>
      <trkpt lat="40.65714" lon="0.70504">
        <ele>9</ele>
        <time>2022-05-24 21:05:10</time>
      </trkpt>
      <trkpt lat="40.65709" lon="0.70506">
        <ele>9</ele>
        <time>2022-05-24 21:05:11</time>
      </trkpt>
      <trkpt lat="40.65703" lon="0.70508">
        <ele>9</ele>
        <time>2022-05-24 21:05:12</time>
      </trkpt>
      <trkpt lat="40.65698" lon="0.70511">
        <ele>9</ele>
        <time>2022-05-24 21:05:13</time>
      </trkpt>
      <trkpt lat="40.65694" lon="0.70512">
        <ele>9</ele>
        <time>2022-05-24 21:05:14</time>
      </trkpt>
      <trkpt lat="40.65688" lon="0.70515">
        <ele>9</ele>
        <time>2022-05-24 21:05:15</time>
      </trkpt>
      <trkpt lat="40.65682" lon="0.70517">
        <ele>9</ele>
        <time>2022-05-24 21:05:16</time>
      </trkpt>
      <trkpt lat="40.65677" lon="0.7052">
        <ele>9</ele>
        <time>2022-05-24 21:05:17</time>
      </trkpt>
      <trkpt lat="40.65672" lon="0.70522">
        <ele>9</ele>
        <time>2022-05-24 21:05:18</time>
      </trkpt>
      <trkpt lat="40.65667" lon="0.70525">
        <ele>9</ele>
        <time>2022-05-24 21:05:19</time>
      </trkpt>
      <trkpt lat="40.65661" lon="0.70527">
        <ele>9</ele>
        <time>2022-05-24 21:05:20</time>
      </trkpt>
      <trkpt lat="40.65656" lon="0.7053">
        <ele>9</ele>
        <time>2022-05-24 21:05:21</time>
      </trkpt>
      <trkpt lat="40.65651" lon="0.70532">
        <ele>9</ele>
        <time>2022-05-24 21:05:22</time>
      </trkpt>
      <trkpt lat="40.65647" lon="0.70534">
        <ele>9</ele>
        <time>2022-05-24 21:05:23</time>
      </trkpt>
      <trkpt lat="40.65641" lon="0.70536">
        <ele>9</ele>
        <time>2022-05-24 21:05:24</time>
      </trkpt>
      <trkpt lat="40.65636" lon="0.70538">
        <ele>9</ele>
        <time>2022-05-24 21:05:25</time>
      </trkpt>
      <trkpt lat="40.65631" lon="0.7054">
        <ele>9</ele>
        <time>2022-05-24 21:05:26</time>
      </trkpt>
      <trkpt lat="40.65626" lon="0.70542">
        <ele>9</ele>
        <time>2022-05-24 21:05:27</time>
      </trkpt>
      <trkpt lat="40.65621" lon="0.70544">
        <ele>9</ele>
        <time>2022-05-24 21:05:28</time>
      </trkpt>
      <trkpt lat="40.65616" lon="0.70546">
        <ele>9</ele>
        <time>2022-05-24 21:05:29</time>
      </trkpt>
      <trkpt lat="40.65611" lon="0.70548">
        <ele>9</ele>
        <time>2022-05-24 21:05:30</time>
      </trkpt>
      <trkpt lat="40.65606" lon="0.7055">
        <ele>9</ele>
        <time>2022-05-24 21:05:31</time>
      </trkpt>
      <trkpt lat="40.65601" lon="0.70552">
        <ele>9</ele>
        <time>2022-05-24 21:05:32</time>
      </trkpt>
      <trkpt lat="40.65597" lon="0.70554">
        <ele>9</ele>
        <time>2022-05-24 21:05:33</time>
      </trkpt>
      <trkpt lat="40.65592" lon="0.70556">
        <ele>9</ele>
        <time>2022-05-24 21:05:34</time>
      </trkpt>
      <trkpt lat="40.65588" lon="0.70559">
        <ele>9</ele>
        <time>2022-05-24 21:05:35</time>
      </trkpt>
      <trkpt lat="40.65583" lon="0.70561">
        <ele>9</ele>
        <time>2022-05-24 21:05:36</time>
      </trkpt>
      <trkpt lat="40.65578" lon="0.70563">
        <ele>9</ele>
        <time>2022-05-24 21:05:37</time>
      </trkpt>
      <trkpt lat="40.65573" lon="0.70565">
        <ele>9</ele>
        <time>2022-05-24 21:05:38</time>
      </trkpt>
      <trkpt lat="40.65569" lon="0.70568">
        <ele>9</ele>
        <time>2022-05-24 21:05:39</time>
      </trkpt>
      <trkpt lat="40.65564" lon="0.7057">
        <ele>9</ele>
        <time>2022-05-24 21:05:40</time>
      </trkpt>
      <trkpt lat="40.65559" lon="0.70573">
        <ele>9</ele>
        <time>2022-05-24 21:05:41</time>
      </trkpt>
      <trkpt lat="40.65554" lon="0.70575">
        <ele>9</ele>
        <time>2022-05-24 21:05:42</time>
      </trkpt>
      <trkpt lat="40.65549" lon="0.70577">
        <ele>9</ele>
        <time>2022-05-24 21:05:43</time>
      </trkpt>
      <trkpt lat="40.65545" lon="0.7058">
        <ele>9</ele>
        <time>2022-05-24 21:05:44</time>
      </trkpt>
      <trkpt lat="40.6554" lon="0.70582">
        <ele>9</ele>
        <time>2022-05-24 21:05:45</time>
      </trkpt>
      <trkpt lat="40.65535" lon="0.70585">
        <ele>9</ele>
        <time>2022-05-24 21:05:46</time>
      </trkpt>
      <trkpt lat="40.6553" lon="0.70587">
        <ele>9</ele>
        <time>2022-05-24 21:05:47</time>
      </trkpt>
      <trkpt lat="40.65525" lon="0.7059">
        <ele>9</ele>
        <time>2022-05-24 21:05:48</time>
      </trkpt>
      <trkpt lat="40.6552" lon="0.70592">
        <ele>9</ele>
        <time>2022-05-24 21:05:49</time>
      </trkpt>
      <trkpt lat="40.65515" lon="0.70595">
        <ele>9</ele>
        <time>2022-05-24 21:05:50</time>
      </trkpt>
      <trkpt lat="40.6551" lon="0.70597">
        <ele>9</ele>
        <time>2022-05-24 21:05:51</time>
      </trkpt>
      <trkpt lat="40.65505" lon="0.706">
        <ele>9</ele>
        <time>2022-05-24 21:05:52</time>
      </trkpt>
      <trkpt lat="40.655" lon="0.70603">
        <ele>9</ele>
        <time>2022-05-24 21:05:53</time>
      </trkpt>
      <trkpt lat="40.65495" lon="0.70605">
        <ele>9</ele>
        <time>2022-05-24 21:05:54</time>
      </trkpt>
      <trkpt lat="40.6549" lon="0.70607">
        <ele>9</ele>
        <time>2022-05-24 21:05:55</time>
      </trkpt>
      <trkpt lat="40.65485" lon="0.7061">
        <ele>9</ele>
        <time>2022-05-24 21:05:56</time>
      </trkpt>
      <trkpt lat="40.6548" lon="0.70612">
        <ele>9</ele>
        <time>2022-05-24 21:05:57</time>
      </trkpt>
      <trkpt lat="40.65475" lon="0.70615">
        <ele>9</ele>
        <time>2022-05-24 21:05:58</time>
      </trkpt>
      <trkpt lat="40.6547" lon="0.70617">
        <ele>9</ele>
        <time>2022-05-24 21:05:59</time>
      </trkpt>
      <trkpt lat="40.65465" lon="0.70619">
        <ele>9</ele>
        <time>2022-05-24 21:06:00</time>
      </trkpt>
      <trkpt lat="40.6546" lon="0.70621">
        <ele>9</ele>
        <time>2022-05-24 21:06:01</time>
      </trkpt>
      <trkpt lat="40.65455" lon="0.70624">
        <ele>9</ele>
        <time>2022-05-24 21:06:02</time>
      </trkpt>
      <trkpt lat="40.6545" lon="0.70626">
        <ele>9</ele>
        <time>2022-05-24 21:06:03</time>
      </trkpt>
      <trkpt lat="40.65446" lon="0.70628">
        <ele>9</ele>
        <time>2022-05-24 21:06:04</time>
      </trkpt>
      <trkpt lat="40.65441" lon="0.70629">
        <ele>9</ele>
        <time>2022-05-24 21:06:05</time>
      </trkpt>
      <trkpt lat="40.65437" lon="0.7063">
        <ele>9</ele>
        <time>2022-05-24 21:06:06</time>
      </trkpt>
      <trkpt lat="40.65433" lon="0.70631">
        <ele>9.2</ele>
        <time>2022-05-24 21:06:07</time>
      </trkpt>
      <trkpt lat="40.65429" lon="0.70633">
        <ele>9.2</ele>
        <time>2022-05-24 21:06:08</time>
      </trkpt>
      <trkpt lat="40.65425" lon="0.70634">
        <ele>9.2</ele>
        <time>2022-05-24 21:06:09</time>
      </trkpt>
      <trkpt lat="40.65422" lon="0.70636">
        <ele>9.2</ele>
        <time>2022-05-24 21:06:10</time>
      </trkpt>
      <trkpt lat="40.65418" lon="0.70637">
        <ele>9.2</ele>
        <time>2022-05-24 21:06:11</time>
      </trkpt>
      <trkpt lat="40.65415" lon="0.70639">
        <ele>9.2</ele>
        <time>2022-05-24 21:06:12</time>
      </trkpt>
      <trkpt lat="40.65412" lon="0.7064">
        <ele>9.2</ele>
        <time>2022-05-24 21:06:13</time>
      </trkpt>
      <trkpt lat="40.65409" lon="0.7064">
        <ele>9.2</ele>
        <time>2022-05-24 21:06:14</time>
      </trkpt>
      <trkpt lat="40.65406" lon="0.70641">
        <ele>9.2</ele>
        <time>2022-05-24 21:06:15</time>
      </trkpt>
      <trkpt lat="40.65404" lon="0.70641">
        <ele>9.2</ele>
        <time>2022-05-24 21:06:16</time>
      </trkpt>
      <trkpt lat="40.65402" lon="0.70642">
        <ele>9.2</ele>
        <time>2022-05-24 21:06:17</time>
      </trkpt>
      <trkpt lat="40.65399" lon="0.70643">
        <ele>9.2</ele>
        <time>2022-05-24 21:06:18</time>
      </trkpt>
      <trkpt lat="40.65397" lon="0.70644">
        <ele>9.2</ele>
        <time>2022-05-24 21:06:19</time>
      </trkpt>
      <trkpt lat="40.65394" lon="0.70645">
        <ele>9.2</ele>
        <time>2022-05-24 21:06:20</time>
      </trkpt>
      <trkpt lat="40.65391" lon="0.70646">
        <ele>9.2</ele>
        <time>2022-05-24 21:06:21</time>
      </trkpt>
      <trkpt lat="40.65387" lon="0.70647">
        <ele>9.2</ele>
        <time>2022-05-24 21:06:22</time>
      </trkpt>
      <trkpt lat="40.65384" lon="0.70649">
        <ele>9.2</ele>
        <time>2022-05-24 21:06:23</time>
      </trkpt>
      <trkpt lat="40.6538" lon="0.7065">
        <ele>9.2</ele>
        <time>2022-05-24 21:06:24</time>
      </trkpt>
      <trkpt lat="40.65377" lon="0.7065">
        <ele>9.2</ele>
        <time>2022-05-24 21:06:25</time>
      </trkpt>
      <trkpt lat="40.65373" lon="0.70651">
        <ele>9.2</ele>
        <time>2022-05-24 21:06:26</time>
      </trkpt>
      <trkpt lat="40.65369" lon="0.70652">
        <ele>9.2</ele>
        <time>2022-05-24 21:06:27</time>
      </trkpt>
      <trkpt lat="40.65366" lon="0.70653">
        <ele>9.2</ele>
        <time>2022-05-24 21:06:28</time>
      </trkpt>
      <trkpt lat="40.65364" lon="0.70653">
        <ele>9.2</ele>
        <time>2022-05-24 21:06:29</time>
      </trkpt>
      <trkpt lat="40.65362" lon="0.70655">
        <ele>9.2</ele>
        <time>2022-05-24 21:06:30</time>
      </trkpt>
      <trkpt lat="40.65362" lon="0.70656">
        <ele>9.2</ele>
        <time>2022-05-24 21:06:31</time>
      </trkpt>
      <trkpt lat="40.65363" lon="0.70657">
        <ele>9.2</ele>
        <time>2022-05-24 21:06:32</time>
      </trkpt>
      <trkpt lat="40.65363" lon="0.70657">
        <ele>9.2</ele>
        <time>2022-05-24 21:06:33</time>
      </trkpt>
      <trkpt lat="40.65364" lon="0.70657">
        <ele>9.2</ele>
        <time>2022-05-24 21:06:34</time>
      </trkpt>
      <trkpt lat="40.65365" lon="0.70656">
        <ele>9.2</ele>
        <time>2022-05-24 21:06:35</time>
      </trkpt>
      <trkpt lat="40.65367" lon="0.70655">
        <ele>9.2</ele>
        <time>2022-05-24 21:06:36</time>
      </trkpt>
      <trkpt lat="40.65369" lon="0.70655">
        <ele>9.2</ele>
        <time>2022-05-24 21:06:37</time>
      </trkpt>
      <trkpt lat="40.65371" lon="0.70654">
        <ele>9.2</ele>
        <time>2022-05-24 21:06:38</time>
      </trkpt>
      <trkpt lat="40.65374" lon="0.70653">
        <ele>9.2</ele>
        <time>2022-05-24 21:06:39</time>
      </trkpt>
      <trkpt lat="40.65377" lon="0.70652">
        <ele>9.2</ele>
        <time>2022-05-24 21:06:40</time>
      </trkpt>
      <trkpt lat="40.6538" lon="0.70651">
        <ele>9.2</ele>
        <time>2022-05-24 21:06:41</time>
      </trkpt>
      <trkpt lat="40.65383" lon="0.70651">
        <ele>9.2</ele>
        <time>2022-05-24 21:06:42</time>
      </trkpt>
      <trkpt lat="40.65386" lon="0.7065">
        <ele>9.2</ele>
        <time>2022-05-24 21:06:43</time>
      </trkpt>
      <trkpt lat="40.65389" lon="0.70649">
        <ele>9.2</ele>
        <time>2022-05-24 21:06:44</time>
      </trkpt>
      <trkpt lat="40.65393" lon="0.70648">
        <ele>9</ele>
        <time>2022-05-24 21:06:45</time>
      </trkpt>
      <trkpt lat="40.65397" lon="0.70647">
        <ele>9</ele>
        <time>2022-05-24 21:06:46</time>
      </trkpt>
      <trkpt lat="40.65401" lon="0.70645">
        <ele>9</ele>
        <time>2022-05-24 21:06:47</time>
      </trkpt>
      <trkpt lat="40.65405" lon="0.70644">
        <ele>9</ele>
        <time>2022-05-24 21:06:48</time>
      </trkpt>
      <trkpt lat="40.65408" lon="0.70643">
        <ele>9</ele>
        <time>2022-05-24 21:06:49</time>
      </trkpt>
      <trkpt lat="40.65413" lon="0.70642">
        <ele>9</ele>
        <time>2022-05-24 21:06:50</time>
      </trkpt>
      <trkpt lat="40.65417" lon="0.70641">
        <ele>9</ele>
        <time>2022-05-24 21:06:51</time>
      </trkpt>
      <trkpt lat="40.65421" lon="0.70639">
        <ele>9</ele>
        <time>2022-05-24 21:06:52</time>
      </trkpt>
      <trkpt lat="40.65425" lon="0.70638">
        <ele>9</ele>
        <time>2022-05-24 21:06:53</time>
      </trkpt>
      <trkpt lat="40.6543" lon="0.70636">
        <ele>9</ele>
        <time>2022-05-24 21:06:54</time>
      </trkpt>
      <trkpt lat="40.65435" lon="0.70635">
        <ele>8.8</ele>
        <time>2022-05-24 21:06:55</time>
      </trkpt>
      <trkpt lat="40.65439" lon="0.70633">
        <ele>8.8</ele>
        <time>2022-05-24 21:06:56</time>
      </trkpt>
      <trkpt lat="40.65443" lon="0.70632">
        <ele>8.8</ele>
        <time>2022-05-24 21:06:57</time>
      </trkpt>
      <trkpt lat="40.65446" lon="0.7063">
        <ele>8.8</ele>
        <time>2022-05-24 21:06:58</time>
      </trkpt>
      <trkpt lat="40.65453" lon="0.70628">
        <ele>8.8</ele>
        <time>2022-05-24 21:06:59</time>
      </trkpt>
      <trkpt lat="40.65458" lon="0.70626">
        <ele>8.8</ele>
        <time>2022-05-24 21:07:00</time>
      </trkpt>
      <trkpt lat="40.65462" lon="0.70625">
        <ele>8.8</ele>
        <time>2022-05-24 21:07:01</time>
      </trkpt>
      <trkpt lat="40.65466" lon="0.70623">
        <ele>8.8</ele>
        <time>2022-05-24 21:07:02</time>
      </trkpt>
      <trkpt lat="40.65471" lon="0.70621">
        <ele>9</ele>
        <time>2022-05-24 21:07:03</time>
      </trkpt>
      <trkpt lat="40.65475" lon="0.70619">
        <ele>9</ele>
        <time>2022-05-24 21:07:04</time>
      </trkpt>
      <trkpt lat="40.65479" lon="0.70617">
        <ele>8.8</ele>
        <time>2022-05-24 21:07:05</time>
      </trkpt>
      <trkpt lat="40.65483" lon="0.70615">
        <ele>9</ele>
        <time>2022-05-24 21:07:06</time>
      </trkpt>
      <trkpt lat="40.65488" lon="0.70613">
        <ele>9</ele>
        <time>2022-05-24 21:07:07</time>
      </trkpt>
      <trkpt lat="40.65492" lon="0.70611">
        <ele>9</ele>
        <time>2022-05-24 21:07:08</time>
      </trkpt>
      <trkpt lat="40.65496" lon="0.70609">
        <ele>9</ele>
        <time>2022-05-24 21:07:09</time>
      </trkpt>
      <trkpt lat="40.65501" lon="0.70606">
        <ele>9</ele>
        <time>2022-05-24 21:07:10</time>
      </trkpt>
      <trkpt lat="40.65505" lon="0.70604">
        <ele>9</ele>
        <time>2022-05-24 21:07:11</time>
      </trkpt>
      <trkpt lat="40.65509" lon="0.70602">
        <ele>9</ele>
        <time>2022-05-24 21:07:12</time>
      </trkpt>
      <trkpt lat="40.65513" lon="0.706">
        <ele>9</ele>
        <time>2022-05-24 21:07:13</time>
      </trkpt>
      <trkpt lat="40.65517" lon="0.70598">
        <ele>9</ele>
        <time>2022-05-24 21:07:14</time>
      </trkpt>
      <trkpt lat="40.65522" lon="0.70596">
        <ele>9</ele>
        <time>2022-05-24 21:07:15</time>
      </trkpt>
      <trkpt lat="40.65527" lon="0.70594">
        <ele>9</ele>
        <time>2022-05-24 21:07:16</time>
      </trkpt>
      <trkpt lat="40.6553" lon="0.70591">
        <ele>9</ele>
        <time>2022-05-24 21:07:17</time>
      </trkpt>
      <trkpt lat="40.65535" lon="0.70589">
        <ele>9</ele>
        <time>2022-05-24 21:07:18</time>
      </trkpt>
      <trkpt lat="40.65539" lon="0.70587">
        <ele>9</ele>
        <time>2022-05-24 21:07:19</time>
      </trkpt>
      <trkpt lat="40.65543" lon="0.70585">
        <ele>9</ele>
        <time>2022-05-24 21:07:20</time>
      </trkpt>
      <trkpt lat="40.65547" lon="0.70583">
        <ele>9</ele>
        <time>2022-05-24 21:07:21</time>
      </trkpt>
      <trkpt lat="40.65551" lon="0.7058">
        <ele>9</ele>
        <time>2022-05-24 21:07:22</time>
      </trkpt>
      <trkpt lat="40.65556" lon="0.70578">
        <ele>9</ele>
        <time>2022-05-24 21:07:23</time>
      </trkpt>
      <trkpt lat="40.6556" lon="0.70576">
        <ele>9</ele>
        <time>2022-05-24 21:07:24</time>
      </trkpt>
      <trkpt lat="40.65564" lon="0.70574">
        <ele>9</ele>
        <time>2022-05-24 21:07:25</time>
      </trkpt>
      <trkpt lat="40.65569" lon="0.70572">
        <ele>9</ele>
        <time>2022-05-24 21:07:26</time>
      </trkpt>
      <trkpt lat="40.65574" lon="0.7057">
        <ele>9</ele>
        <time>2022-05-24 21:07:27</time>
      </trkpt>
      <trkpt lat="40.65577" lon="0.70568">
        <ele>9</ele>
        <time>2022-05-24 21:07:28</time>
      </trkpt>
      <trkpt lat="40.65582" lon="0.70566">
        <ele>9</ele>
        <time>2022-05-24 21:07:29</time>
      </trkpt>
      <trkpt lat="40.65586" lon="0.70564">
        <ele>9</ele>
        <time>2022-05-24 21:07:30</time>
      </trkpt>
      <trkpt lat="40.6559" lon="0.70562">
        <ele>9</ele>
        <time>2022-05-24 21:07:31</time>
      </trkpt>
      <trkpt lat="40.65594" lon="0.7056">
        <ele>9</ele>
        <time>2022-05-24 21:07:32</time>
      </trkpt>
      <trkpt lat="40.65599" lon="0.70558">
        <ele>9</ele>
        <time>2022-05-24 21:07:33</time>
      </trkpt>
      <trkpt lat="40.65602" lon="0.70556">
        <ele>9</ele>
        <time>2022-05-24 21:07:34</time>
      </trkpt>
      <trkpt lat="40.65607" lon="0.70554">
        <ele>9</ele>
        <time>2022-05-24 21:07:35</time>
      </trkpt>
      <trkpt lat="40.65611" lon="0.70552">
        <ele>9</ele>
        <time>2022-05-24 21:07:36</time>
      </trkpt>
      <trkpt lat="40.65615" lon="0.7055">
        <ele>9</ele>
        <time>2022-05-24 21:07:37</time>
      </trkpt>
      <trkpt lat="40.65619" lon="0.70549">
        <ele>9</ele>
        <time>2022-05-24 21:07:38</time>
      </trkpt>
      <trkpt lat="40.65623" lon="0.70547">
        <ele>9</ele>
        <time>2022-05-24 21:07:39</time>
      </trkpt>
      <trkpt lat="40.65628" lon="0.70545">
        <ele>9</ele>
        <time>2022-05-24 21:07:40</time>
      </trkpt>
      <trkpt lat="40.65632" lon="0.70543">
        <ele>9</ele>
        <time>2022-05-24 21:07:41</time>
      </trkpt>
      <trkpt lat="40.65636" lon="0.70542">
        <ele>9</ele>
        <time>2022-05-24 21:07:42</time>
      </trkpt>
      <trkpt lat="40.6564" lon="0.7054">
        <ele>9</ele>
        <time>2022-05-24 21:07:43</time>
      </trkpt>
      <trkpt lat="40.65644" lon="0.70538">
        <ele>9</ele>
        <time>2022-05-24 21:07:44</time>
      </trkpt>
      <trkpt lat="40.65648" lon="0.70536">
        <ele>9</ele>
        <time>2022-05-24 21:07:45</time>
      </trkpt>
      <trkpt lat="40.65652" lon="0.70534">
        <ele>9</ele>
        <time>2022-05-24 21:07:46</time>
      </trkpt>
      <trkpt lat="40.65657" lon="0.70533">
        <ele>9</ele>
        <time>2022-05-24 21:07:47</time>
      </trkpt>
      <trkpt lat="40.65661" lon="0.70531">
        <ele>9</ele>
        <time>2022-05-24 21:07:48</time>
      </trkpt>
      <trkpt lat="40.65665" lon="0.70529">
        <ele>9</ele>
        <time>2022-05-24 21:07:49</time>
      </trkpt>
      <trkpt lat="40.65669" lon="0.70527">
        <ele>9</ele>
        <time>2022-05-24 21:07:50</time>
      </trkpt>
      <trkpt lat="40.65673" lon="0.70525">
        <ele>9</ele>
        <time>2022-05-24 21:07:51</time>
      </trkpt>
      <trkpt lat="40.65677" lon="0.70523">
        <ele>9</ele>
        <time>2022-05-24 21:07:52</time>
      </trkpt>
      <trkpt lat="40.65681" lon="0.70521">
        <ele>9.2</ele>
        <time>2022-05-24 21:07:53</time>
      </trkpt>
      <trkpt lat="40.65686" lon="0.70519">
        <ele>9.2</ele>
        <time>2022-05-24 21:07:54</time>
      </trkpt>
      <trkpt lat="40.6569" lon="0.70518">
        <ele>9</ele>
        <time>2022-05-24 21:07:55</time>
      </trkpt>
      <trkpt lat="40.65694" lon="0.70516">
        <ele>9.2</ele>
        <time>2022-05-24 21:07:56</time>
      </trkpt>
      <trkpt lat="40.65699" lon="0.70514">
        <ele>9.2</ele>
        <time>2022-05-24 21:07:57</time>
      </trkpt>
      <trkpt lat="40.65703" lon="0.70512">
        <ele>9.2</ele>
        <time>2022-05-24 21:07:58</time>
      </trkpt>
      <trkpt lat="40.65707" lon="0.7051">
        <ele>9.2</ele>
        <time>2022-05-24 21:07:59</time>
      </trkpt>
      <trkpt lat="40.65712" lon="0.70508">
        <ele>9.2</ele>
        <time>2022-05-24 21:08:00</time>
      </trkpt>
      <trkpt lat="40.65716" lon="0.70507">
        <ele>9.2</ele>
        <time>2022-05-24 21:08:01</time>
      </trkpt>
      <trkpt lat="40.6572" lon="0.70505">
        <ele>9.2</ele>
        <time>2022-05-24 21:08:02</time>
      </trkpt>
      <trkpt lat="40.65724" lon="0.70503">
        <ele>9.2</ele>
        <time>2022-05-24 21:08:03</time>
      </trkpt>
      <trkpt lat="40.65729" lon="0.70501">
        <ele>9</ele>
        <time>2022-05-24 21:08:04</time>
      </trkpt>
      <trkpt lat="40.65733" lon="0.705">
        <ele>9</ele>
        <time>2022-05-24 21:08:05</time>
      </trkpt>
      <trkpt lat="40.65738" lon="0.70498">
        <ele>9.2</ele>
        <time>2022-05-24 21:08:06</time>
      </trkpt>
      <trkpt lat="40.65742" lon="0.70496">
        <ele>9</ele>
        <time>2022-05-24 21:08:07</time>
      </trkpt>
      <trkpt lat="40.65746" lon="0.70494">
        <ele>9</ele>
        <time>2022-05-24 21:08:08</time>
      </trkpt>
      <trkpt lat="40.6575" lon="0.70492">
        <ele>9.2</ele>
        <time>2022-05-24 21:08:09</time>
      </trkpt>
      <trkpt lat="40.65754" lon="0.7049">
        <ele>9.2</ele>
        <time>2022-05-24 21:08:10</time>
      </trkpt>
      <trkpt lat="40.65758" lon="0.70488">
        <ele>9.2</ele>
        <time>2022-05-24 21:08:11</time>
      </trkpt>
      <trkpt lat="40.65762" lon="0.70486">
        <ele>9.2</ele>
        <time>2022-05-24 21:08:12</time>
      </trkpt>
      <trkpt lat="40.65767" lon="0.70485">
        <ele>9.2</ele>
        <time>2022-05-24 21:08:13</time>
      </trkpt>
      <trkpt lat="40.65771" lon="0.70483">
        <ele>9.2</ele>
        <time>2022-05-24 21:08:14</time>
      </trkpt>
      <trkpt lat="40.65775" lon="0.70481">
        <ele>9.2</ele>
        <time>2022-05-24 21:08:15</time>
      </trkpt>
      <trkpt lat="40.65779" lon="0.70479">
        <ele>9.2</ele>
        <time>2022-05-24 21:08:16</time>
      </trkpt>
      <trkpt lat="40.65783" lon="0.70477">
        <ele>9.2</ele>
        <time>2022-05-24 21:08:17</time>
      </trkpt>
      <trkpt lat="40.65787" lon="0.70475">
        <ele>9.2</ele>
        <time>2022-05-24 21:08:18</time>
      </trkpt>
      <trkpt lat="40.65791" lon="0.70473">
        <ele>9.2</ele>
        <time>2022-05-24 21:08:19</time>
      </trkpt>
      <trkpt lat="40.65795" lon="0.70471">
        <ele>9.2</ele>
        <time>2022-05-24 21:08:20</time>
      </trkpt>
      <trkpt lat="40.65799" lon="0.70469">
        <ele>9.2</ele>
        <time>2022-05-24 21:08:21</time>
      </trkpt>
      <trkpt lat="40.65803" lon="0.70466">
        <ele>9.2</ele>
        <time>2022-05-24 21:08:22</time>
      </trkpt>
      <trkpt lat="40.65807" lon="0.70463">
        <ele>9.2</ele>
        <time>2022-05-24 21:08:23</time>
      </trkpt>
      <trkpt lat="40.65811" lon="0.7046">
        <ele>9.2</ele>
        <time>2022-05-24 21:08:24</time>
      </trkpt>
      <trkpt lat="40.65814" lon="0.70457">
        <ele>9.2</ele>
        <time>2022-05-24 21:08:25</time>
      </trkpt>
      <trkpt lat="40.65818" lon="0.70453">
        <ele>9</ele>
        <time>2022-05-24 21:08:26</time>
      </trkpt>
      <trkpt lat="40.65822" lon="0.7045">
        <ele>9</ele>
        <time>2022-05-24 21:08:27</time>
      </trkpt>
      <trkpt lat="40.65825" lon="0.70447">
        <ele>9.2</ele>
        <time>2022-05-24 21:08:28</time>
      </trkpt>
      <trkpt lat="40.65829" lon="0.70444">
        <ele>9.2</ele>
        <time>2022-05-24 21:08:29</time>
      </trkpt>
      <trkpt lat="40.65833" lon="0.70442">
        <ele>9.2</ele>
        <time>2022-05-24 21:08:30</time>
      </trkpt>
      <trkpt lat="40.65836" lon="0.70442">
        <ele>9.2</ele>
        <time>2022-05-24 21:08:31</time>
      </trkpt>
      <trkpt lat="40.65839" lon="0.70443">
        <ele>9.2</ele>
        <time>2022-05-24 21:08:32</time>
      </trkpt>
      <trkpt lat="40.65841" lon="0.70446">
        <ele>9.2</ele>
        <time>2022-05-24 21:08:33</time>
      </trkpt>
      <trkpt lat="40.65842" lon="0.70449">
        <ele>9.2</ele>
        <time>2022-05-24 21:08:34</time>
      </trkpt>
      <trkpt lat="40.65843" lon="0.70453">
        <ele>9.4</ele>
        <time>2022-05-24 21:08:35</time>
      </trkpt>
      <trkpt lat="40.65843" lon="0.70456">
        <ele>9.6</ele>
        <time>2022-05-24 21:08:36</time>
      </trkpt>
      <trkpt lat="40.65844" lon="0.7046">
        <ele>9.6</ele>
        <time>2022-05-24 21:08:37</time>
      </trkpt>
      <trkpt lat="40.65844" lon="0.70464">
        <ele>9.8</ele>
        <time>2022-05-24 21:08:38</time>
      </trkpt>
      <trkpt lat="40.65845" lon="0.70467">
        <ele>9.8</ele>
        <time>2022-05-24 21:08:39</time>
      </trkpt>
      <trkpt lat="40.65844" lon="0.70471">
        <ele>9.8</ele>
        <time>2022-05-24 21:08:40</time>
      </trkpt>
      <trkpt lat="40.65841" lon="0.70476">
        <ele>9.6</ele>
        <time>2022-05-24 21:08:41</time>
      </trkpt>
      <trkpt lat="40.65837" lon="0.70479">
        <ele>9.6</ele>
        <time>2022-05-24 21:08:42</time>
      </trkpt>
      <trkpt lat="40.65833" lon="0.70481">
        <ele>9.6</ele>
        <time>2022-05-24 21:08:43</time>
      </trkpt>
      <trkpt lat="40.65828" lon="0.70483">
        <ele>9.4</ele>
        <time>2022-05-24 21:08:44</time>
      </trkpt>
      <trkpt lat="40.65822" lon="0.70486">
        <ele>9.4</ele>
        <time>2022-05-24 21:08:45</time>
      </trkpt>
      <trkpt lat="40.65817" lon="0.70488">
        <ele>9.2</ele>
        <time>2022-05-24 21:08:46</time>
      </trkpt>
      <trkpt lat="40.65811" lon="0.70491">
        <ele>9.2</ele>
        <time>2022-05-24 21:08:47</time>
      </trkpt>
      <trkpt lat="40.65805" lon="0.70493">
        <ele>9.2</ele>
        <time>2022-05-24 21:08:48</time>
      </trkpt>
      <trkpt lat="40.658" lon="0.70496">
        <ele>9.2</ele>
        <time>2022-05-24 21:08:49</time>
      </trkpt>
      <trkpt lat="40.65794" lon="0.70499">
        <ele>9</ele>
        <time>2022-05-24 21:08:50</time>
      </trkpt>
      <trkpt lat="40.65788" lon="0.70501">
        <ele>9</ele>
        <time>2022-05-24 21:08:51</time>
      </trkpt>
      <trkpt lat="40.65783" lon="0.70504">
        <ele>8.8</ele>
        <time>2022-05-24 21:08:52</time>
      </trkpt>
      <trkpt lat="40.65778" lon="0.70507">
        <ele>8.8</ele>
        <time>2022-05-24 21:08:53</time>
      </trkpt>
      <trkpt lat="40.65772" lon="0.70509">
        <ele>8.8</ele>
        <time>2022-05-24 21:08:54</time>
      </trkpt>
      <trkpt lat="40.65767" lon="0.70512">
        <ele>8.8</ele>
        <time>2022-05-24 21:08:55</time>
      </trkpt>
      <trkpt lat="40.65762" lon="0.70514">
        <ele>9</ele>
        <time>2022-05-24 21:08:56</time>
      </trkpt>
      <trkpt lat="40.65757" lon="0.70516">
        <ele>9</ele>
        <time>2022-05-24 21:08:57</time>
      </trkpt>
      <trkpt lat="40.65752" lon="0.70518">
        <ele>9</ele>
        <time>2022-05-24 21:08:58</time>
      </trkpt>
      <trkpt lat="40.65747" lon="0.7052">
        <ele>8.8</ele>
        <time>2022-05-24 21:08:59</time>
      </trkpt>
      <trkpt lat="40.65742" lon="0.70522">
        <ele>9</ele>
        <time>2022-05-24 21:09:00</time>
      </trkpt>
      <trkpt lat="40.65737" lon="0.70524">
        <ele>9</ele>
        <time>2022-05-24 21:09:01</time>
      </trkpt>
      <trkpt lat="40.65733" lon="0.70525">
        <ele>9</ele>
        <time>2022-05-24 21:09:02</time>
      </trkpt>
      <trkpt lat="40.65728" lon="0.70527">
        <ele>9</ele>
        <time>2022-05-24 21:09:03</time>
      </trkpt>
      <trkpt lat="40.65723" lon="0.70529">
        <ele>9</ele>
        <time>2022-05-24 21:09:04</time>
      </trkpt>
      <trkpt lat="40.65718" lon="0.70531">
        <ele>9</ele>
        <time>2022-05-24 21:09:05</time>
      </trkpt>
      <trkpt lat="40.65714" lon="0.70534">
        <ele>9</ele>
        <time>2022-05-24 21:09:06</time>
      </trkpt>
      <trkpt lat="40.6571" lon="0.70536">
        <ele>9</ele>
        <time>2022-05-24 21:09:07</time>
      </trkpt>
      <trkpt lat="40.65705" lon="0.70538">
        <ele>9</ele>
        <time>2022-05-24 21:09:08</time>
      </trkpt>
      <trkpt lat="40.657" lon="0.7054">
        <ele>9</ele>
        <time>2022-05-24 21:09:09</time>
      </trkpt>
      <trkpt lat="40.65695" lon="0.70542">
        <ele>9</ele>
        <time>2022-05-24 21:09:10</time>
      </trkpt>
      <trkpt lat="40.6569" lon="0.70544">
        <ele>9.2</ele>
        <time>2022-05-24 21:09:11</time>
      </trkpt>
      <trkpt lat="40.65685" lon="0.70546">
        <ele>9.2</ele>
        <time>2022-05-24 21:09:12</time>
      </trkpt>
      <trkpt lat="40.65679" lon="0.70549">
        <ele>9.2</ele>
        <time>2022-05-24 21:09:13</time>
      </trkpt>
      <trkpt lat="40.65674" lon="0.70551">
        <ele>9.2</ele>
        <time>2022-05-24 21:09:14</time>
      </trkpt>
      <trkpt lat="40.65668" lon="0.70554">
        <ele>9.2</ele>
        <time>2022-05-24 21:09:15</time>
      </trkpt>
      <trkpt lat="40.65663" lon="0.70556">
        <ele>9.2</ele>
        <time>2022-05-24 21:09:16</time>
      </trkpt>
      <trkpt lat="40.65657" lon="0.70559">
        <ele>9.2</ele>
        <time>2022-05-24 21:09:17</time>
      </trkpt>
      <trkpt lat="40.65652" lon="0.70561">
        <ele>9.2</ele>
        <time>2022-05-24 21:09:18</time>
      </trkpt>
      <trkpt lat="40.65646" lon="0.70564">
        <ele>9.2</ele>
        <time>2022-05-24 21:09:19</time>
      </trkpt>
      <trkpt lat="40.65641" lon="0.70566">
        <ele>9.2</ele>
        <time>2022-05-24 21:09:20</time>
      </trkpt>
      <trkpt lat="40.65635" lon="0.70568">
        <ele>9.4</ele>
        <time>2022-05-24 21:09:21</time>
      </trkpt>
      <trkpt lat="40.6563" lon="0.70571">
        <ele>9.4</ele>
        <time>2022-05-24 21:09:22</time>
      </trkpt>
      <trkpt lat="40.65624" lon="0.70574">
        <ele>9.4</ele>
        <time>2022-05-24 21:09:23</time>
      </trkpt>
      <trkpt lat="40.65618" lon="0.70576">
        <ele>9.4</ele>
        <time>2022-05-24 21:09:24</time>
      </trkpt>
      <trkpt lat="40.65612" lon="0.70579">
        <ele>9.4</ele>
        <time>2022-05-24 21:09:25</time>
      </trkpt>
      <trkpt lat="40.65606" lon="0.70582">
        <ele>9.4</ele>
        <time>2022-05-24 21:09:26</time>
      </trkpt>
      <trkpt lat="40.65601" lon="0.70584">
        <ele>9.4</ele>
        <time>2022-05-24 21:09:27</time>
      </trkpt>
      <trkpt lat="40.65595" lon="0.70587">
        <ele>9.4</ele>
        <time>2022-05-24 21:09:28</time>
      </trkpt>
      <trkpt lat="40.65589" lon="0.7059">
        <ele>9.4</ele>
        <time>2022-05-24 21:09:29</time>
      </trkpt>
      <trkpt lat="40.65583" lon="0.70593">
        <ele>9.4</ele>
        <time>2022-05-24 21:09:30</time>
      </trkpt>
      <trkpt lat="40.65578" lon="0.70596">
        <ele>9.4</ele>
        <time>2022-05-24 21:09:31</time>
      </trkpt>
      <trkpt lat="40.65572" lon="0.70599">
        <ele>9.4</ele>
        <time>2022-05-24 21:09:32</time>
      </trkpt>
      <trkpt lat="40.65566" lon="0.70602">
        <ele>9.6</ele>
        <time>2022-05-24 21:09:33</time>
      </trkpt>
      <trkpt lat="40.6556" lon="0.70605">
        <ele>9.6</ele>
        <time>2022-05-24 21:09:34</time>
      </trkpt>
      <trkpt lat="40.65554" lon="0.70608">
        <ele>9.6</ele>
        <time>2022-05-24 21:09:35</time>
      </trkpt>
      <trkpt lat="40.65548" lon="0.70611">
        <ele>9.6</ele>
        <time>2022-05-24 21:09:36</time>
      </trkpt>
      <trkpt lat="40.65543" lon="0.70614">
        <ele>9.6</ele>
        <time>2022-05-24 21:09:37</time>
      </trkpt>
      <trkpt lat="40.65537" lon="0.70617">
        <ele>9.6</ele>
        <time>2022-05-24 21:09:38</time>
      </trkpt>
      <trkpt lat="40.65531" lon="0.7062">
        <ele>9.6</ele>
        <time>2022-05-24 21:09:39</time>
      </trkpt>
      <trkpt lat="40.65525" lon="0.70623">
        <ele>9.8</ele>
        <time>2022-05-24 21:09:40</time>
      </trkpt>
      <trkpt lat="40.6552" lon="0.70626">
        <ele>9.8</ele>
        <time>2022-05-24 21:09:41</time>
      </trkpt>
      <trkpt lat="40.65514" lon="0.70629">
        <ele>9.8</ele>
        <time>2022-05-24 21:09:42</time>
      </trkpt>
      <trkpt lat="40.65509" lon="0.70632">
        <ele>9.8</ele>
        <time>2022-05-24 21:09:43</time>
      </trkpt>
      <trkpt lat="40.65503" lon="0.70635">
        <ele>9.8</ele>
        <time>2022-05-24 21:09:44</time>
      </trkpt>
      <trkpt lat="40.65498" lon="0.70637">
        <ele>9.8</ele>
        <time>2022-05-24 21:09:45</time>
      </trkpt>
      <trkpt lat="40.65492" lon="0.7064">
        <ele>9.8</ele>
        <time>2022-05-24 21:09:46</time>
      </trkpt>
      <trkpt lat="40.65487" lon="0.70642">
        <ele>9.8</ele>
        <time>2022-05-24 21:09:47</time>
      </trkpt>
      <trkpt lat="40.65481" lon="0.70645">
        <ele>9.8</ele>
        <time>2022-05-24 21:09:48</time>
      </trkpt>
      <trkpt lat="40.65475" lon="0.70648">
        <ele>9.8</ele>
        <time>2022-05-24 21:09:49</time>
      </trkpt>
      <trkpt lat="40.6547" lon="0.7065">
        <ele>9.8</ele>
        <time>2022-05-24 21:09:50</time>
      </trkpt>
      <trkpt lat="40.65464" lon="0.70653">
        <ele>9.8</ele>
        <time>2022-05-24 21:09:51</time>
      </trkpt>
      <trkpt lat="40.65459" lon="0.70655">
        <ele>9.8</ele>
        <time>2022-05-24 21:09:52</time>
      </trkpt>
      <trkpt lat="40.65453" lon="0.70658">
        <ele>9.8</ele>
        <time>2022-05-24 21:09:53</time>
      </trkpt>
      <trkpt lat="40.65447" lon="0.7066">
        <ele>9.8</ele>
        <time>2022-05-24 21:09:54</time>
      </trkpt>
      <trkpt lat="40.65442" lon="0.70662">
        <ele>9.8</ele>
        <time>2022-05-24 21:09:55</time>
      </trkpt>
      <trkpt lat="40.65435" lon="0.70664">
        <ele>9.8</ele>
        <time>2022-05-24 21:09:56</time>
      </trkpt>
      <trkpt lat="40.6543" lon="0.70666">
        <ele>10</ele>
        <time>2022-05-24 21:09:57</time>
      </trkpt>
      <trkpt lat="40.65424" lon="0.70668">
        <ele>10</ele>
        <time>2022-05-24 21:09:58</time>
      </trkpt>
      <trkpt lat="40.65417" lon="0.70669">
        <ele>10</ele>
        <time>2022-05-24 21:09:59</time>
      </trkpt>
      <trkpt lat="40.65412" lon="0.70671">
        <ele>10</ele>
        <time>2022-05-24 21:10:00</time>
      </trkpt>
      <trkpt lat="40.65405" lon="0.70673">
        <ele>10</ele>
        <time>2022-05-24 21:10:01</time>
      </trkpt>
      <trkpt lat="40.65399" lon="0.70675">
        <ele>10</ele>
        <time>2022-05-24 21:10:02</time>
      </trkpt>
      <trkpt lat="40.65393" lon="0.70677">
        <ele>10</ele>
        <time>2022-05-24 21:10:03</time>
      </trkpt>
      <trkpt lat="40.65387" lon="0.70679">
        <ele>10</ele>
        <time>2022-05-24 21:10:04</time>
      </trkpt>
      <trkpt lat="40.6538" lon="0.70681">
        <ele>10</ele>
        <time>2022-05-24 21:10:05</time>
      </trkpt>
      <trkpt lat="40.65374" lon="0.70683">
        <ele>10</ele>
        <time>2022-05-24 21:10:06</time>
      </trkpt>
      <trkpt lat="40.65368" lon="0.70685">
        <ele>10</ele>
        <time>2022-05-24 21:10:07</time>
      </trkpt>
      <trkpt lat="40.65361" lon="0.70687">
        <ele>10</ele>
        <time>2022-05-24 21:10:08</time>
      </trkpt>
      <trkpt lat="40.65355" lon="0.7069">
        <ele>10</ele>
        <time>2022-05-24 21:10:09</time>
      </trkpt>
      <trkpt lat="40.65349" lon="0.70692">
        <ele>10</ele>
        <time>2022-05-24 21:10:10</time>
      </trkpt>
      <trkpt lat="40.65342" lon="0.70694">
        <ele>10</ele>
        <time>2022-05-24 21:10:11</time>
      </trkpt>
      <trkpt lat="40.65336" lon="0.70696">
        <ele>10</ele>
        <time>2022-05-24 21:10:12</time>
      </trkpt>
      <trkpt lat="40.6533" lon="0.70698">
        <ele>10</ele>
        <time>2022-05-24 21:10:13</time>
      </trkpt>
      <trkpt lat="40.65324" lon="0.70701">
        <ele>10</ele>
        <time>2022-05-24 21:10:14</time>
      </trkpt>
      <trkpt lat="40.65318" lon="0.70703">
        <ele>10</ele>
        <time>2022-05-24 21:10:15</time>
      </trkpt>
      <trkpt lat="40.65313" lon="0.70705">
        <ele>10</ele>
        <time>2022-05-24 21:10:16</time>
      </trkpt>
      <trkpt lat="40.65307" lon="0.70707">
        <ele>10</ele>
        <time>2022-05-24 21:10:17</time>
      </trkpt>
      <trkpt lat="40.65302" lon="0.70709">
        <ele>10.2</ele>
        <time>2022-05-24 21:10:18</time>
      </trkpt>
      <trkpt lat="40.65297" lon="0.7071">
        <ele>10.2</ele>
        <time>2022-05-24 21:10:19</time>
      </trkpt>
      <trkpt lat="40.65292" lon="0.70711">
        <ele>10.2</ele>
        <time>2022-05-24 21:10:20</time>
      </trkpt>
      <trkpt lat="40.65287" lon="0.70712">
        <ele>10.4</ele>
        <time>2022-05-24 21:10:21</time>
      </trkpt>
      <trkpt lat="40.65283" lon="0.70712">
        <ele>10.6</ele>
        <time>2022-05-24 21:10:22</time>
      </trkpt>
      <trkpt lat="40.65279" lon="0.70713">
        <ele>10.8</ele>
        <time>2022-05-24 21:10:23</time>
      </trkpt>
      <trkpt lat="40.65276" lon="0.70715">
        <ele>10.8</ele>
        <time>2022-05-24 21:10:24</time>
      </trkpt>
      <trkpt lat="40.65273" lon="0.70719">
        <ele>10.8</ele>
        <time>2022-05-24 21:10:25</time>
      </trkpt>
      <trkpt lat="40.65271" lon="0.70723">
        <ele>10.6</ele>
        <time>2022-05-24 21:10:26</time>
      </trkpt>
      <trkpt lat="40.65269" lon="0.70729">
        <ele>10.6</ele>
        <time>2022-05-24 21:10:27</time>
      </trkpt>
      <trkpt lat="40.65268" lon="0.70735">
        <ele>10.4</ele>
        <time>2022-05-24 21:10:28</time>
      </trkpt>
      <trkpt lat="40.65266" lon="0.70741">
        <ele>10.2</ele>
        <time>2022-05-24 21:10:29</time>
      </trkpt>
      <trkpt lat="40.65265" lon="0.70747">
        <ele>10.2</ele>
        <time>2022-05-24 21:10:30</time>
      </trkpt>
      <trkpt lat="40.65263" lon="0.70754">
        <ele>10.2</ele>
        <time>2022-05-24 21:10:31</time>
      </trkpt>
      <trkpt lat="40.65262" lon="0.7076">
        <ele>10.2</ele>
        <time>2022-05-24 21:10:32</time>
      </trkpt>
      <trkpt lat="40.6526" lon="0.70767">
        <ele>10.2</ele>
        <time>2022-05-24 21:10:33</time>
      </trkpt>
      <trkpt lat="40.65259" lon="0.70773">
        <ele>10.2</ele>
        <time>2022-05-24 21:10:34</time>
      </trkpt>
      <trkpt lat="40.65258" lon="0.7078">
        <ele>10.2</ele>
        <time>2022-05-24 21:10:35</time>
      </trkpt>
      <trkpt lat="40.65257" lon="0.70786">
        <ele>10.2</ele>
        <time>2022-05-24 21:10:36</time>
      </trkpt>
      <trkpt lat="40.65256" lon="0.70793">
        <ele>10.2</ele>
        <time>2022-05-24 21:10:37</time>
      </trkpt>
      <trkpt lat="40.65255" lon="0.70799">
        <ele>10.2</ele>
        <time>2022-05-24 21:10:38</time>
      </trkpt>
      <trkpt lat="40.65254" lon="0.70806">
        <ele>10.2</ele>
        <time>2022-05-24 21:10:39</time>
      </trkpt>
      <trkpt lat="40.65254" lon="0.70812">
        <ele>10.2</ele>
        <time>2022-05-24 21:10:40</time>
      </trkpt>
      <trkpt lat="40.65253" lon="0.70819">
        <ele>10.2</ele>
        <time>2022-05-24 21:10:41</time>
      </trkpt>
      <trkpt lat="40.65253" lon="0.70824">
        <ele>10</ele>
        <time>2022-05-24 21:10:42</time>
      </trkpt>
      <trkpt lat="40.65253" lon="0.7083">
        <ele>10</ele>
        <time>2022-05-24 21:10:43</time>
      </trkpt>
      <trkpt lat="40.65253" lon="0.70836">
        <ele>10</ele>
        <time>2022-05-24 21:10:44</time>
      </trkpt>
      <trkpt lat="40.65252" lon="0.70841">
        <ele>10</ele>
        <time>2022-05-24 21:10:45</time>
      </trkpt>
      <trkpt lat="40.65252" lon="0.70846">
        <ele>10</ele>
        <time>2022-05-24 21:10:46</time>
      </trkpt>
      <trkpt lat="40.65251" lon="0.70851">
        <ele>10</ele>
        <time>2022-05-24 21:10:47</time>
      </trkpt>
      <trkpt lat="40.65251" lon="0.70857">
        <ele>10</ele>
        <time>2022-05-24 21:10:48</time>
      </trkpt>
      <trkpt lat="40.65252" lon="0.70863">
        <ele>10</ele>
        <time>2022-05-24 21:10:49</time>
      </trkpt>
      <trkpt lat="40.65252" lon="0.70868">
        <ele>10</ele>
        <time>2022-05-24 21:10:50</time>
      </trkpt>
      <trkpt lat="40.65252" lon="0.70874">
        <ele>10</ele>
        <time>2022-05-24 21:10:51</time>
      </trkpt>
      <trkpt lat="40.65252" lon="0.7088">
        <ele>10</ele>
        <time>2022-05-24 21:10:52</time>
      </trkpt>
      <trkpt lat="40.65251" lon="0.70886">
        <ele>10</ele>
        <time>2022-05-24 21:10:53</time>
      </trkpt>
      <trkpt lat="40.65251" lon="0.70892">
        <ele>10</ele>
        <time>2022-05-24 21:10:54</time>
      </trkpt>
      <trkpt lat="40.6525" lon="0.70898">
        <ele>10</ele>
        <time>2022-05-24 21:10:55</time>
      </trkpt>
      <trkpt lat="40.6525" lon="0.70904">
        <ele>10</ele>
        <time>2022-05-24 21:10:56</time>
      </trkpt>
      <trkpt lat="40.65251" lon="0.70909">
        <ele>10</ele>
        <time>2022-05-24 21:10:57</time>
      </trkpt>
      <trkpt lat="40.65251" lon="0.70915">
        <ele>10</ele>
        <time>2022-05-24 21:10:58</time>
      </trkpt>
      <trkpt lat="40.65251" lon="0.70922">
        <ele>10</ele>
        <time>2022-05-24 21:10:59</time>
      </trkpt>
      <trkpt lat="40.65251" lon="0.70928">
        <ele>10</ele>
        <time>2022-05-24 21:11:00</time>
      </trkpt>
      <trkpt lat="40.65251" lon="0.70934">
        <ele>10</ele>
        <time>2022-05-24 21:11:01</time>
      </trkpt>
      <trkpt lat="40.65251" lon="0.7094">
        <ele>10</ele>
        <time>2022-05-24 21:11:02</time>
      </trkpt>
      <trkpt lat="40.65251" lon="0.70945">
        <ele>10</ele>
        <time>2022-05-24 21:11:03</time>
      </trkpt>
      <trkpt lat="40.65252" lon="0.70952">
        <ele>10</ele>
        <time>2022-05-24 21:11:04</time>
      </trkpt>
      <trkpt lat="40.65252" lon="0.70958">
        <ele>9.8</ele>
        <time>2022-05-24 21:11:05</time>
      </trkpt>
      <trkpt lat="40.65252" lon="0.70964">
        <ele>9.8</ele>
        <time>2022-05-24 21:11:06</time>
      </trkpt>
      <trkpt lat="40.65252" lon="0.7097">
        <ele>10</ele>
        <time>2022-05-24 21:11:07</time>
      </trkpt>
      <trkpt lat="40.65252" lon="0.70977">
        <ele>9.8</ele>
        <time>2022-05-24 21:11:08</time>
      </trkpt>
      <trkpt lat="40.65252" lon="0.70983">
        <ele>9.8</ele>
        <time>2022-05-24 21:11:09</time>
      </trkpt>
      <trkpt lat="40.65252" lon="0.7099">
        <ele>9.8</ele>
        <time>2022-05-24 21:11:10</time>
      </trkpt>
      <trkpt lat="40.65252" lon="0.70997">
        <ele>9.8</ele>
        <time>2022-05-24 21:11:11</time>
      </trkpt>
      <trkpt lat="40.65252" lon="0.71003">
        <ele>9.8</ele>
        <time>2022-05-24 21:11:12</time>
      </trkpt>
      <trkpt lat="40.65252" lon="0.7101">
        <ele>9.8</ele>
        <time>2022-05-24 21:11:13</time>
      </trkpt>
      <trkpt lat="40.65252" lon="0.71017">
        <ele>9.8</ele>
        <time>2022-05-24 21:11:14</time>
      </trkpt>
      <trkpt lat="40.65252" lon="0.71024">
        <ele>9.6</ele>
        <time>2022-05-24 21:11:15</time>
      </trkpt>
      <trkpt lat="40.65252" lon="0.71031">
        <ele>9.6</ele>
        <time>2022-05-24 21:11:16</time>
      </trkpt>
      <trkpt lat="40.65252" lon="0.71038">
        <ele>9.6</ele>
        <time>2022-05-24 21:11:17</time>
      </trkpt>
      <trkpt lat="40.65252" lon="0.71045">
        <ele>9.6</ele>
        <time>2022-05-24 21:11:18</time>
      </trkpt>
      <trkpt lat="40.65252" lon="0.71052">
        <ele>9.8</ele>
        <time>2022-05-24 21:11:19</time>
      </trkpt>
      <trkpt lat="40.65251" lon="0.71058">
        <ele>9.8</ele>
        <time>2022-05-24 21:11:20</time>
      </trkpt>
      <trkpt lat="40.65251" lon="0.71064">
        <ele>9.8</ele>
        <time>2022-05-24 21:11:21</time>
      </trkpt>
      <trkpt lat="40.65251" lon="0.71071">
        <ele>10</ele>
        <time>2022-05-24 21:11:22</time>
      </trkpt>
      <trkpt lat="40.65251" lon="0.71078">
        <ele>10</ele>
        <time>2022-05-24 21:11:23</time>
      </trkpt>
      <trkpt lat="40.65251" lon="0.71084">
        <ele>9.8</ele>
        <time>2022-05-24 21:11:24</time>
      </trkpt>
      <trkpt lat="40.65251" lon="0.71091">
        <ele>9.8</ele>
        <time>2022-05-24 21:11:25</time>
      </trkpt>
      <trkpt lat="40.65251" lon="0.71097">
        <ele>10</ele>
        <time>2022-05-24 21:11:26</time>
      </trkpt>
      <trkpt lat="40.65251" lon="0.71104">
        <ele>9.8</ele>
        <time>2022-05-24 21:11:27</time>
      </trkpt>
      <trkpt lat="40.65251" lon="0.71111">
        <ele>9.8</ele>
        <time>2022-05-24 21:11:28</time>
      </trkpt>
      <trkpt lat="40.6525" lon="0.71118">
        <ele>10</ele>
        <time>2022-05-24 21:11:29</time>
      </trkpt>
      <trkpt lat="40.6525" lon="0.71124">
        <ele>10</ele>
        <time>2022-05-24 21:11:30</time>
      </trkpt>
      <trkpt lat="40.6525" lon="0.71131">
        <ele>10</ele>
        <time>2022-05-24 21:11:31</time>
      </trkpt>
      <trkpt lat="40.65251" lon="0.71138">
        <ele>10</ele>
        <time>2022-05-24 21:11:32</time>
      </trkpt>
      <trkpt lat="40.65251" lon="0.71144">
        <ele>10</ele>
        <time>2022-05-24 21:11:33</time>
      </trkpt>
      <trkpt lat="40.65251" lon="0.71151">
        <ele>10</ele>
        <time>2022-05-24 21:11:34</time>
      </trkpt>
      <trkpt lat="40.65251" lon="0.71158">
        <ele>10</ele>
        <time>2022-05-24 21:11:35</time>
      </trkpt>
      <trkpt lat="40.65251" lon="0.71164">
        <ele>10</ele>
        <time>2022-05-24 21:11:36</time>
      </trkpt>
      <trkpt lat="40.65251" lon="0.71171">
        <ele>10</ele>
        <time>2022-05-24 21:11:37</time>
      </trkpt>
      <trkpt lat="40.65251" lon="0.71177">
        <ele>9.8</ele>
        <time>2022-05-24 21:11:38</time>
      </trkpt>
      <trkpt lat="40.65251" lon="0.71184">
        <ele>9.8</ele>
        <time>2022-05-24 21:11:39</time>
      </trkpt>
      <trkpt lat="40.65251" lon="0.71191">
        <ele>9.8</ele>
        <time>2022-05-24 21:11:40</time>
      </trkpt>
      <trkpt lat="40.65251" lon="0.71197">
        <ele>9.8</ele>
        <time>2022-05-24 21:11:41</time>
      </trkpt>
      <trkpt lat="40.65251" lon="0.71204">
        <ele>9.8</ele>
        <time>2022-05-24 21:11:42</time>
      </trkpt>
      <trkpt lat="40.65251" lon="0.71211">
        <ele>9.8</ele>
        <time>2022-05-24 21:11:43</time>
      </trkpt>
      <trkpt lat="40.65251" lon="0.71217">
        <ele>9.8</ele>
        <time>2022-05-24 21:11:44</time>
      </trkpt>
      <trkpt lat="40.65252" lon="0.71224">
        <ele>10</ele>
        <time>2022-05-24 21:11:45</time>
      </trkpt>
      <trkpt lat="40.65252" lon="0.7123">
        <ele>9.8</ele>
        <time>2022-05-24 21:11:46</time>
      </trkpt>
      <trkpt lat="40.65252" lon="0.71236">
        <ele>9.8</ele>
        <time>2022-05-24 21:11:47</time>
      </trkpt>
      <trkpt lat="40.65252" lon="0.71242">
        <ele>10</ele>
        <time>2022-05-24 21:11:48</time>
      </trkpt>
      <trkpt lat="40.65252" lon="0.71248">
        <ele>10</ele>
        <time>2022-05-24 21:11:49</time>
      </trkpt>
      <trkpt lat="40.65252" lon="0.71254">
        <ele>10.2</ele>
        <time>2022-05-24 21:11:50</time>
      </trkpt>
      <trkpt lat="40.65252" lon="0.7126">
        <ele>10.2</ele>
        <time>2022-05-24 21:11:51</time>
      </trkpt>
      <trkpt lat="40.65251" lon="0.71266">
        <ele>10.2</ele>
        <time>2022-05-24 21:11:52</time>
      </trkpt>
      <trkpt lat="40.65252" lon="0.71273">
        <ele>10.2</ele>
        <time>2022-05-24 21:11:53</time>
      </trkpt>
      <trkpt lat="40.65252" lon="0.71279">
        <ele>10.2</ele>
        <time>2022-05-24 21:11:54</time>
      </trkpt>
      <trkpt lat="40.65252" lon="0.71285">
        <ele>10.2</ele>
        <time>2022-05-24 21:11:55</time>
      </trkpt>
      <trkpt lat="40.65252" lon="0.71291">
        <ele>10.2</ele>
        <time>2022-05-24 21:11:56</time>
      </trkpt>
      <trkpt lat="40.65252" lon="0.71298">
        <ele>10.2</ele>
        <time>2022-05-24 21:11:57</time>
      </trkpt>
      <trkpt lat="40.65251" lon="0.71304">
        <ele>10.2</ele>
        <time>2022-05-24 21:11:58</time>
      </trkpt>
      <trkpt lat="40.65251" lon="0.7131">
        <ele>10.2</ele>
        <time>2022-05-24 21:11:59</time>
      </trkpt>
      <trkpt lat="40.65251" lon="0.71315">
        <ele>10.2</ele>
        <time>2022-05-24 21:12:00</time>
      </trkpt>
      <trkpt lat="40.65251" lon="0.71321">
        <ele>10</ele>
        <time>2022-05-24 21:12:01</time>
      </trkpt>
      <trkpt lat="40.65251" lon="0.71326">
        <ele>10</ele>
        <time>2022-05-24 21:12:02</time>
      </trkpt>
      <trkpt lat="40.65251" lon="0.71332">
        <ele>10</ele>
        <time>2022-05-24 21:12:03</time>
      </trkpt>
      <trkpt lat="40.65251" lon="0.71338">
        <ele>10</ele>
        <time>2022-05-24 21:12:04</time>
      </trkpt>
      <trkpt lat="40.65252" lon="0.71344">
        <ele>10</ele>
        <time>2022-05-24 21:12:05</time>
      </trkpt>
      <trkpt lat="40.65252" lon="0.7135">
        <ele>10</ele>
        <time>2022-05-24 21:12:06</time>
      </trkpt>
      <trkpt lat="40.65252" lon="0.71357">
        <ele>10</ele>
        <time>2022-05-24 21:12:07</time>
      </trkpt>
      <trkpt lat="40.65252" lon="0.71363">
        <ele>10</ele>
        <time>2022-05-24 21:12:08</time>
      </trkpt>
      <trkpt lat="40.65252" lon="0.71369">
        <ele>10</ele>
        <time>2022-05-24 21:12:09</time>
      </trkpt>
      <trkpt lat="40.65252" lon="0.71375">
        <ele>10</ele>
        <time>2022-05-24 21:12:10</time>
      </trkpt>
      <trkpt lat="40.65252" lon="0.7138">
        <ele>10</ele>
        <time>2022-05-24 21:12:11</time>
      </trkpt>
      <trkpt lat="40.65252" lon="0.71385">
        <ele>10</ele>
        <time>2022-05-24 21:12:12</time>
      </trkpt>
      <trkpt lat="40.65252" lon="0.71391">
        <ele>10</ele>
        <time>2022-05-24 21:12:13</time>
      </trkpt>
      <trkpt lat="40.65251" lon="0.71396">
        <ele>10</ele>
        <time>2022-05-24 21:12:14</time>
      </trkpt>
      <trkpt lat="40.65251" lon="0.71401">
        <ele>10</ele>
        <time>2022-05-24 21:12:15</time>
      </trkpt>
      <trkpt lat="40.6525" lon="0.71407">
        <ele>10</ele>
        <time>2022-05-24 21:12:16</time>
      </trkpt>
      <trkpt lat="40.6525" lon="0.71414">
        <ele>10</ele>
        <time>2022-05-24 21:12:17</time>
      </trkpt>
      <trkpt lat="40.6525" lon="0.7142">
        <ele>10</ele>
        <time>2022-05-24 21:12:18</time>
      </trkpt>
      <trkpt lat="40.6525" lon="0.71426">
        <ele>10</ele>
        <time>2022-05-24 21:12:19</time>
      </trkpt>
      <trkpt lat="40.6525" lon="0.71433">
        <ele>10</ele>
        <time>2022-05-24 21:12:20</time>
      </trkpt>
      <trkpt lat="40.6525" lon="0.7144">
        <ele>10</ele>
        <time>2022-05-24 21:12:21</time>
      </trkpt>
      <trkpt lat="40.6525" lon="0.71447">
        <ele>10</ele>
        <time>2022-05-24 21:12:22</time>
      </trkpt>
      <trkpt lat="40.6525" lon="0.71454">
        <ele>10</ele>
        <time>2022-05-24 21:12:23</time>
      </trkpt>
      <trkpt lat="40.6525" lon="0.7146">
        <ele>9.8</ele>
        <time>2022-05-24 21:12:24</time>
      </trkpt>
      <trkpt lat="40.6525" lon="0.71467">
        <ele>9.8</ele>
        <time>2022-05-24 21:12:25</time>
      </trkpt>
      <trkpt lat="40.6525" lon="0.71473">
        <ele>9.8</ele>
        <time>2022-05-24 21:12:26</time>
      </trkpt>
      <trkpt lat="40.6525" lon="0.71479">
        <ele>9.8</ele>
        <time>2022-05-24 21:12:27</time>
      </trkpt>
      <trkpt lat="40.6525" lon="0.71486">
        <ele>9.8</ele>
        <time>2022-05-24 21:12:28</time>
      </trkpt>
      <trkpt lat="40.6525" lon="0.71492">
        <ele>9.8</ele>
        <time>2022-05-24 21:12:29</time>
      </trkpt>
      <trkpt lat="40.6525" lon="0.71498">
        <ele>10</ele>
        <time>2022-05-24 21:12:30</time>
      </trkpt>
      <trkpt lat="40.65249" lon="0.71505">
        <ele>9.8</ele>
        <time>2022-05-24 21:12:31</time>
      </trkpt>
      <trkpt lat="40.65249" lon="0.71511">
        <ele>9.8</ele>
        <time>2022-05-24 21:12:32</time>
      </trkpt>
      <trkpt lat="40.65249" lon="0.71517">
        <ele>9.8</ele>
        <time>2022-05-24 21:12:33</time>
      </trkpt>
      <trkpt lat="40.6525" lon="0.71523">
        <ele>9.8</ele>
        <time>2022-05-24 21:12:34</time>
      </trkpt>
      <trkpt lat="40.65249" lon="0.7153">
        <ele>9.8</ele>
        <time>2022-05-24 21:12:35</time>
      </trkpt>
      <trkpt lat="40.65249" lon="0.71536">
        <ele>9.8</ele>
        <time>2022-05-24 21:12:36</time>
      </trkpt>
      <trkpt lat="40.65249" lon="0.71542">
        <ele>9.8</ele>
        <time>2022-05-24 21:12:37</time>
      </trkpt>
      <trkpt lat="40.65249" lon="0.71548">
        <ele>9.8</ele>
        <time>2022-05-24 21:12:38</time>
      </trkpt>
      <trkpt lat="40.65249" lon="0.71554">
        <ele>9.8</ele>
        <time>2022-05-24 21:12:39</time>
      </trkpt>
      <trkpt lat="40.65249" lon="0.7156">
        <ele>9.8</ele>
        <time>2022-05-24 21:12:40</time>
      </trkpt>
      <trkpt lat="40.65249" lon="0.71566">
        <ele>9.8</ele>
        <time>2022-05-24 21:12:41</time>
      </trkpt>
      <trkpt lat="40.65249" lon="0.71572">
        <ele>9.8</ele>
        <time>2022-05-24 21:12:42</time>
      </trkpt>
      <trkpt lat="40.65249" lon="0.71578">
        <ele>9.8</ele>
        <time>2022-05-24 21:12:43</time>
      </trkpt>
      <trkpt lat="40.65249" lon="0.71584">
        <ele>9.8</ele>
        <time>2022-05-24 21:12:44</time>
      </trkpt>
      <trkpt lat="40.65249" lon="0.7159">
        <ele>9.8</ele>
        <time>2022-05-24 21:12:45</time>
      </trkpt>
      <trkpt lat="40.65248" lon="0.71596">
        <ele>9.8</ele>
        <time>2022-05-24 21:12:46</time>
      </trkpt>
      <trkpt lat="40.65247" lon="0.71602">
        <ele>9.8</ele>
        <time>2022-05-24 21:12:47</time>
      </trkpt>
      <trkpt lat="40.65245" lon="0.71608">
        <ele>9.8</ele>
        <time>2022-05-24 21:12:48</time>
      </trkpt>
      <trkpt lat="40.65244" lon="0.71613">
        <ele>9.8</ele>
        <time>2022-05-24 21:12:49</time>
      </trkpt>
      <trkpt lat="40.65241" lon="0.71619">
        <ele>9.8</ele>
        <time>2022-05-24 21:12:50</time>
      </trkpt>
      <trkpt lat="40.65239" lon="0.71624">
        <ele>9.8</ele>
        <time>2022-05-24 21:12:51</time>
      </trkpt>
      <trkpt lat="40.65237" lon="0.7163">
        <ele>9.8</ele>
        <time>2022-05-24 21:12:52</time>
      </trkpt>
      <trkpt lat="40.65235" lon="0.71635">
        <ele>9.8</ele>
        <time>2022-05-24 21:12:53</time>
      </trkpt>
      <trkpt lat="40.65234" lon="0.71641">
        <ele>9.8</ele>
        <time>2022-05-24 21:12:54</time>
      </trkpt>
      <trkpt lat="40.65233" lon="0.71646">
        <ele>9.8</ele>
        <time>2022-05-24 21:12:55</time>
      </trkpt>
      <trkpt lat="40.65232" lon="0.71651">
        <ele>9.8</ele>
        <time>2022-05-24 21:12:56</time>
      </trkpt>
      <trkpt lat="40.65231" lon="0.71656">
        <ele>9.8</ele>
        <time>2022-05-24 21:12:57</time>
      </trkpt>
      <trkpt lat="40.65231" lon="0.71661">
        <ele>9.8</ele>
        <time>2022-05-24 21:12:58</time>
      </trkpt>
      <trkpt lat="40.6523" lon="0.71666">
        <ele>9.8</ele>
        <time>2022-05-24 21:12:59</time>
      </trkpt>
      <trkpt lat="40.65231" lon="0.71671">
        <ele>9.8</ele>
        <time>2022-05-24 21:13:00</time>
      </trkpt>
      <trkpt lat="40.65232" lon="0.71676">
        <ele>9.8</ele>
        <time>2022-05-24 21:13:01</time>
      </trkpt>
      <trkpt lat="40.65233" lon="0.71679">
        <ele>9.6</ele>
        <time>2022-05-24 21:13:02</time>
      </trkpt>
      <trkpt lat="40.65236" lon="0.71682">
        <ele>9.6</ele>
        <time>2022-05-24 21:13:03</time>
      </trkpt>
      <trkpt lat="40.65238" lon="0.71684">
        <ele>9.8</ele>
        <time>2022-05-24 21:13:04</time>
      </trkpt>
      <trkpt lat="40.65241" lon="0.71686">
        <ele>9.8</ele>
        <time>2022-05-24 21:13:05</time>
      </trkpt>
      <trkpt lat="40.65244" lon="0.71688">
        <ele>9.8</ele>
        <time>2022-05-24 21:13:06</time>
      </trkpt>
      <trkpt lat="40.65247" lon="0.71691">
        <ele>9.8</ele>
        <time>2022-05-24 21:13:07</time>
      </trkpt>
      <trkpt lat="40.65249" lon="0.71696">
        <ele>9.8</ele>
        <time>2022-05-24 21:13:08</time>
      </trkpt>
      <trkpt lat="40.6525" lon="0.71702">
        <ele>9.6</ele>
        <time>2022-05-24 21:13:09</time>
      </trkpt>
      <trkpt lat="40.65252" lon="0.71708">
        <ele>9.6</ele>
        <time>2022-05-24 21:13:10</time>
      </trkpt>
      <trkpt lat="40.65253" lon="0.71715">
        <ele>9.6</ele>
        <time>2022-05-24 21:13:11</time>
      </trkpt>
      <trkpt lat="40.65253" lon="0.71721">
        <ele>9.6</ele>
        <time>2022-05-24 21:13:12</time>
      </trkpt>
      <trkpt lat="40.65254" lon="0.71728">
        <ele>9.4</ele>
        <time>2022-05-24 21:13:13</time>
      </trkpt>
      <trkpt lat="40.65255" lon="0.71735">
        <ele>9.4</ele>
        <time>2022-05-24 21:13:14</time>
      </trkpt>
      <trkpt lat="40.65256" lon="0.71741">
        <ele>9.4</ele>
        <time>2022-05-24 21:13:15</time>
      </trkpt>
      <trkpt lat="40.65257" lon="0.71748">
        <ele>9.4</ele>
        <time>2022-05-24 21:13:16</time>
      </trkpt>
      <trkpt lat="40.65258" lon="0.71755">
        <ele>9.4</ele>
        <time>2022-05-24 21:13:17</time>
      </trkpt>
      <trkpt lat="40.65259" lon="0.71762">
        <ele>9.2</ele>
        <time>2022-05-24 21:13:18</time>
      </trkpt>
      <trkpt lat="40.6526" lon="0.71769">
        <ele>9.2</ele>
        <time>2022-05-24 21:13:19</time>
      </trkpt>
      <trkpt lat="40.65261" lon="0.71776">
        <ele>9.2</ele>
        <time>2022-05-24 21:13:20</time>
      </trkpt>
      <trkpt lat="40.65261" lon="0.71783">
        <ele>9.2</ele>
        <time>2022-05-24 21:13:21</time>
      </trkpt>
      <trkpt lat="40.65262" lon="0.7179">
        <ele>9.2</ele>
        <time>2022-05-24 21:13:22</time>
      </trkpt>
      <trkpt lat="40.65263" lon="0.71797">
        <ele>9.2</ele>
        <time>2022-05-24 21:13:23</time>
      </trkpt>
      <trkpt lat="40.65264" lon="0.71804">
        <ele>9.2</ele>
        <time>2022-05-24 21:13:24</time>
      </trkpt>
      <trkpt lat="40.65265" lon="0.71811">
        <ele>9.2</ele>
        <time>2022-05-24 21:13:25</time>
      </trkpt>
      <trkpt lat="40.65266" lon="0.71819">
        <ele>9.2</ele>
        <time>2022-05-24 21:13:26</time>
      </trkpt>
      <trkpt lat="40.65266" lon="0.71826">
        <ele>9.2</ele>
        <time>2022-05-24 21:13:27</time>
      </trkpt>
      <trkpt lat="40.65267" lon="0.71833">
        <ele>9.2</ele>
        <time>2022-05-24 21:13:28</time>
      </trkpt>
      <trkpt lat="40.65268" lon="0.7184">
        <ele>9.2</ele>
        <time>2022-05-24 21:13:29</time>
      </trkpt>
      <trkpt lat="40.65269" lon="0.71847">
        <ele>9.2</ele>
        <time>2022-05-24 21:13:30</time>
      </trkpt>
      <trkpt lat="40.6527" lon="0.71854">
        <ele>9.2</ele>
        <time>2022-05-24 21:13:31</time>
      </trkpt>
      <trkpt lat="40.65271" lon="0.71862">
        <ele>9</ele>
        <time>2022-05-24 21:13:32</time>
      </trkpt>
      <trkpt lat="40.65271" lon="0.71869">
        <ele>9</ele>
        <time>2022-05-24 21:13:33</time>
      </trkpt>
      <trkpt lat="40.65272" lon="0.71876">
        <ele>9</ele>
        <time>2022-05-24 21:13:34</time>
      </trkpt>
      <trkpt lat="40.65273" lon="0.71883">
        <ele>9</ele>
        <time>2022-05-24 21:13:35</time>
      </trkpt>
      <trkpt lat="40.65274" lon="0.71891">
        <ele>9</ele>
        <time>2022-05-24 21:13:36</time>
      </trkpt>
      <trkpt lat="40.65274" lon="0.71898">
        <ele>9</ele>
        <time>2022-05-24 21:13:37</time>
      </trkpt>
      <trkpt lat="40.65275" lon="0.71905">
        <ele>9</ele>
        <time>2022-05-24 21:13:38</time>
      </trkpt>
      <trkpt lat="40.65276" lon="0.71912">
        <ele>9</ele>
        <time>2022-05-24 21:13:39</time>
      </trkpt>
      <trkpt lat="40.65277" lon="0.71919">
        <ele>9</ele>
        <time>2022-05-24 21:13:40</time>
      </trkpt>
      <trkpt lat="40.65277" lon="0.71926">
        <ele>9</ele>
        <time>2022-05-24 21:13:41</time>
      </trkpt>
      <trkpt lat="40.65279" lon="0.71933">
        <ele>9</ele>
        <time>2022-05-24 21:13:42</time>
      </trkpt>
      <trkpt lat="40.65279" lon="0.71941">
        <ele>9</ele>
        <time>2022-05-24 21:13:43</time>
      </trkpt>
      <trkpt lat="40.6528" lon="0.71948">
        <ele>9</ele>
        <time>2022-05-24 21:13:44</time>
      </trkpt>
      <trkpt lat="40.6528" lon="0.71955">
        <ele>9</ele>
        <time>2022-05-24 21:13:45</time>
      </trkpt>
      <trkpt lat="40.65281" lon="0.71962">
        <ele>9</ele>
        <time>2022-05-24 21:13:46</time>
      </trkpt>
      <trkpt lat="40.65282" lon="0.71969">
        <ele>9</ele>
        <time>2022-05-24 21:13:47</time>
      </trkpt>
      <trkpt lat="40.65283" lon="0.71976">
        <ele>9</ele>
        <time>2022-05-24 21:13:48</time>
      </trkpt>
      <trkpt lat="40.65284" lon="0.71983">
        <ele>9</ele>
        <time>2022-05-24 21:13:49</time>
      </trkpt>
      <trkpt lat="40.65284" lon="0.7199">
        <ele>9</ele>
        <time>2022-05-24 21:13:50</time>
      </trkpt>
      <trkpt lat="40.65285" lon="0.71996">
        <ele>8.8</ele>
        <time>2022-05-24 21:13:51</time>
      </trkpt>
      <trkpt lat="40.65287" lon="0.72005">
        <ele>8.8</ele>
        <time>2022-05-24 21:13:52</time>
      </trkpt>
      <trkpt lat="40.65287" lon="0.72012">
        <ele>8.8</ele>
        <time>2022-05-24 21:13:53</time>
      </trkpt>
      <trkpt lat="40.65288" lon="0.7202">
        <ele>9</ele>
        <time>2022-05-24 21:13:54</time>
      </trkpt>
      <trkpt lat="40.65289" lon="0.72027">
        <ele>9</ele>
        <time>2022-05-24 21:13:55</time>
      </trkpt>
      <trkpt lat="40.6529" lon="0.72034">
        <ele>8.8</ele>
        <time>2022-05-24 21:13:56</time>
      </trkpt>
      <trkpt lat="40.6529" lon="0.72041">
        <ele>8.8</ele>
        <time>2022-05-24 21:13:57</time>
      </trkpt>
      <trkpt lat="40.65291" lon="0.72049">
        <ele>9</ele>
        <time>2022-05-24 21:13:58</time>
      </trkpt>
      <trkpt lat="40.65292" lon="0.72056">
        <ele>9</ele>
        <time>2022-05-24 21:13:59</time>
      </trkpt>
      <trkpt lat="40.65292" lon="0.72064">
        <ele>9</ele>
        <time>2022-05-24 21:14:00</time>
      </trkpt>
      <trkpt lat="40.65293" lon="0.72071">
        <ele>8.8</ele>
        <time>2022-05-24 21:14:01</time>
      </trkpt>
      <trkpt lat="40.65294" lon="0.72078">
        <ele>8.8</ele>
        <time>2022-05-24 21:14:02</time>
      </trkpt>
      <trkpt lat="40.65295" lon="0.72086">
        <ele>9</ele>
        <time>2022-05-24 21:14:03</time>
      </trkpt>
      <trkpt lat="40.65297" lon="0.72092">
        <ele>9</ele>
        <time>2022-05-24 21:14:04</time>
      </trkpt>
      <trkpt lat="40.65298" lon="0.72099">
        <ele>9</ele>
        <time>2022-05-24 21:14:05</time>
      </trkpt>
      <trkpt lat="40.653" lon="0.72104">
        <ele>9.2</ele>
        <time>2022-05-24 21:14:06</time>
      </trkpt>
      <trkpt lat="40.65301" lon="0.72109">
        <ele>9.4</ele>
        <time>2022-05-24 21:14:07</time>
      </trkpt>
      <trkpt lat="40.653" lon="0.72113">
        <ele>9.6</ele>
        <time>2022-05-24 21:14:08</time>
      </trkpt>
      <trkpt lat="40.65298" lon="0.72116">
        <ele>9.6</ele>
        <time>2022-05-24 21:14:09</time>
      </trkpt>
      <trkpt lat="40.65297" lon="0.72119">
        <ele>9.8</ele>
        <time>2022-05-24 21:14:10</time>
      </trkpt>
      <trkpt lat="40.65295" lon="0.72124">
        <ele>9.8</ele>
        <time>2022-05-24 21:14:11</time>
      </trkpt>
      <trkpt lat="40.65295" lon="0.72128">
        <ele>9.6</ele>
        <time>2022-05-24 21:14:12</time>
      </trkpt>
      <trkpt lat="40.65295" lon="0.72133">
        <ele>9.6</ele>
        <time>2022-05-24 21:14:13</time>
      </trkpt>
      <trkpt lat="40.65295" lon="0.72138">
        <ele>9.6</ele>
        <time>2022-05-24 21:14:14</time>
      </trkpt>
      <trkpt lat="40.65295" lon="0.72144">
        <ele>9.6</ele>
        <time>2022-05-24 21:14:15</time>
      </trkpt>
      <trkpt lat="40.65295" lon="0.72151">
        <ele>9.4</ele>
        <time>2022-05-24 21:14:16</time>
      </trkpt>
      <trkpt lat="40.65295" lon="0.72157">
        <ele>9.4</ele>
        <time>2022-05-24 21:14:17</time>
      </trkpt>
      <trkpt lat="40.65296" lon="0.72164">
        <ele>9.4</ele>
        <time>2022-05-24 21:14:18</time>
      </trkpt>
      <trkpt lat="40.65296" lon="0.7217">
        <ele>9.2</ele>
        <time>2022-05-24 21:14:19</time>
      </trkpt>
      <trkpt lat="40.65296" lon="0.72176">
        <ele>9.2</ele>
        <time>2022-05-24 21:14:20</time>
      </trkpt>
      <trkpt lat="40.65296" lon="0.72183">
        <ele>9.2</ele>
        <time>2022-05-24 21:14:21</time>
      </trkpt>
      <trkpt lat="40.65297" lon="0.72189">
        <ele>9.2</ele>
        <time>2022-05-24 21:14:22</time>
      </trkpt>
      <trkpt lat="40.65297" lon="0.72195">
        <ele>9.2</ele>
        <time>2022-05-24 21:14:23</time>
      </trkpt>
      <trkpt lat="40.65297" lon="0.72201">
        <ele>9.2</ele>
        <time>2022-05-24 21:14:24</time>
      </trkpt>
      <trkpt lat="40.65297" lon="0.72207">
        <ele>9.2</ele>
        <time>2022-05-24 21:14:25</time>
      </trkpt>
      <trkpt lat="40.65298" lon="0.72213">
        <ele>9.2</ele>
        <time>2022-05-24 21:14:26</time>
      </trkpt>
      <trkpt lat="40.65298" lon="0.72218">
        <ele>9.2</ele>
        <time>2022-05-24 21:14:27</time>
      </trkpt>
      <trkpt lat="40.65298" lon="0.72224">
        <ele>9.2</ele>
        <time>2022-05-24 21:14:28</time>
      </trkpt>
      <trkpt lat="40.65299" lon="0.72229">
        <ele>9.2</ele>
        <time>2022-05-24 21:14:29</time>
      </trkpt>
      <trkpt lat="40.65299" lon="0.72234">
        <ele>9</ele>
        <time>2022-05-24 21:14:30</time>
      </trkpt>
      <trkpt lat="40.65299" lon="0.7224">
        <ele>9</ele>
        <time>2022-05-24 21:14:31</time>
      </trkpt>
      <trkpt lat="40.653" lon="0.72246">
        <ele>9</ele>
        <time>2022-05-24 21:14:32</time>
      </trkpt>
      <trkpt lat="40.653" lon="0.72252">
        <ele>8.8</ele>
        <time>2022-05-24 21:14:33</time>
      </trkpt>
      <trkpt lat="40.653" lon="0.72258">
        <ele>8.8</ele>
        <time>2022-05-24 21:14:34</time>
      </trkpt>
      <trkpt lat="40.65301" lon="0.72265">
        <ele>8.8</ele>
        <time>2022-05-24 21:14:35</time>
      </trkpt>
      <trkpt lat="40.65301" lon="0.72272">
        <ele>8.6</ele>
        <time>2022-05-24 21:14:36</time>
      </trkpt>
      <trkpt lat="40.65301" lon="0.72279">
        <ele>8.6</ele>
        <time>2022-05-24 21:14:37</time>
      </trkpt>
      <trkpt lat="40.653" lon="0.72285">
        <ele>8.6</ele>
        <time>2022-05-24 21:14:38</time>
      </trkpt>
      <trkpt lat="40.65299" lon="0.72292">
        <ele>8.6</ele>
        <time>2022-05-24 21:14:39</time>
      </trkpt>
      <trkpt lat="40.65297" lon="0.72299">
        <ele>8.6</ele>
        <time>2022-05-24 21:14:40</time>
      </trkpt>
      <trkpt lat="40.65295" lon="0.72305">
        <ele>8.8</ele>
        <time>2022-05-24 21:14:41</time>
      </trkpt>
      <trkpt lat="40.65292" lon="0.72311">
        <ele>8.8</ele>
        <time>2022-05-24 21:14:42</time>
      </trkpt>
      <trkpt lat="40.65289" lon="0.72316">
        <ele>8.8</ele>
        <time>2022-05-24 21:14:43</time>
      </trkpt>
      <trkpt lat="40.65286" lon="0.72322">
        <ele>8.8</ele>
        <time>2022-05-24 21:14:44</time>
      </trkpt>
      <trkpt lat="40.65283" lon="0.72328">
        <ele>8.8</ele>
        <time>2022-05-24 21:14:45</time>
      </trkpt>
      <trkpt lat="40.6528" lon="0.72334">
        <ele>8.8</ele>
        <time>2022-05-24 21:14:46</time>
      </trkpt>
      <trkpt lat="40.65277" lon="0.7234">
        <ele>8.8</ele>
        <time>2022-05-24 21:14:47</time>
      </trkpt>
      <trkpt lat="40.65275" lon="0.72346">
        <ele>8.8</ele>
        <time>2022-05-24 21:14:48</time>
      </trkpt>
      <trkpt lat="40.65273" lon="0.72353">
        <ele>8.8</ele>
        <time>2022-05-24 21:14:49</time>
      </trkpt>
      <trkpt lat="40.65271" lon="0.7236">
        <ele>8.8</ele>
        <time>2022-05-24 21:14:50</time>
      </trkpt>
      <trkpt lat="40.65269" lon="0.72367">
        <ele>8.8</ele>
        <time>2022-05-24 21:14:51</time>
      </trkpt>
      <trkpt lat="40.65267" lon="0.72374">
        <ele>8.8</ele>
        <time>2022-05-24 21:14:52</time>
      </trkpt>
      <trkpt lat="40.65265" lon="0.72382">
        <ele>8.8</ele>
        <time>2022-05-24 21:14:53</time>
      </trkpt>
      <trkpt lat="40.65263" lon="0.72389">
        <ele>8.8</ele>
        <time>2022-05-24 21:14:54</time>
      </trkpt>
      <trkpt lat="40.65262" lon="0.72396">
        <ele>8.8</ele>
        <time>2022-05-24 21:14:55</time>
      </trkpt>
      <trkpt lat="40.6526" lon="0.72404">
        <ele>8.8</ele>
        <time>2022-05-24 21:14:56</time>
      </trkpt>
      <trkpt lat="40.65259" lon="0.72412">
        <ele>8.8</ele>
        <time>2022-05-24 21:14:57</time>
      </trkpt>
      <trkpt lat="40.65258" lon="0.72419">
        <ele>8.8</ele>
        <time>2022-05-24 21:14:58</time>
      </trkpt>
      <trkpt lat="40.65256" lon="0.72427">
        <ele>8.8</ele>
        <time>2022-05-24 21:14:59</time>
      </trkpt>
      <trkpt lat="40.65256" lon="0.72435">
        <ele>8.8</ele>
        <time>2022-05-24 21:15:00</time>
      </trkpt>
      <trkpt lat="40.65255" lon="0.72443">
        <ele>8.8</ele>
        <time>2022-05-24 21:15:01</time>
      </trkpt>
      <trkpt lat="40.65254" lon="0.72451">
        <ele>8.8</ele>
        <time>2022-05-24 21:15:02</time>
      </trkpt>
      <trkpt lat="40.65253" lon="0.72459">
        <ele>8.6</ele>
        <time>2022-05-24 21:15:03</time>
      </trkpt>
      <trkpt lat="40.65253" lon="0.72467">
        <ele>8.6</ele>
        <time>2022-05-24 21:15:04</time>
      </trkpt>
      <trkpt lat="40.65252" lon="0.72475">
        <ele>8.6</ele>
        <time>2022-05-24 21:15:05</time>
      </trkpt>
      <trkpt lat="40.65252" lon="0.72483">
        <ele>8.6</ele>
        <time>2022-05-24 21:15:06</time>
      </trkpt>
      <trkpt lat="40.65251" lon="0.72491">
        <ele>8.6</ele>
        <time>2022-05-24 21:15:07</time>
      </trkpt>
      <trkpt lat="40.6525" lon="0.725">
        <ele>8.8</ele>
        <time>2022-05-24 21:15:08</time>
      </trkpt>
      <trkpt lat="40.65249" lon="0.72507">
        <ele>8.8</ele>
        <time>2022-05-24 21:15:09</time>
      </trkpt>
      <trkpt lat="40.65248" lon="0.72515">
        <ele>8.8</ele>
        <time>2022-05-24 21:15:10</time>
      </trkpt>
      <trkpt lat="40.65247" lon="0.72523">
        <ele>8.8</ele>
        <time>2022-05-24 21:15:11</time>
      </trkpt>
      <trkpt lat="40.65247" lon="0.72531">
        <ele>8.6</ele>
        <time>2022-05-24 21:15:12</time>
      </trkpt>
      <trkpt lat="40.65246" lon="0.72539">
        <ele>8.6</ele>
        <time>2022-05-24 21:15:13</time>
      </trkpt>
      <trkpt lat="40.65245" lon="0.72546">
        <ele>8.6</ele>
        <time>2022-05-24 21:15:14</time>
      </trkpt>
      <trkpt lat="40.65244" lon="0.72553">
        <ele>8.6</ele>
        <time>2022-05-24 21:15:15</time>
      </trkpt>
      <trkpt lat="40.65243" lon="0.72561">
        <ele>8.4</ele>
        <time>2022-05-24 21:15:16</time>
      </trkpt>
      <trkpt lat="40.65243" lon="0.72567">
        <ele>8.4</ele>
        <time>2022-05-24 21:15:17</time>
      </trkpt>
      <trkpt lat="40.65242" lon="0.72574">
        <ele>8.4</ele>
        <time>2022-05-24 21:15:18</time>
      </trkpt>
      <trkpt lat="40.65242" lon="0.72581">
        <ele>8.4</ele>
        <time>2022-05-24 21:15:19</time>
      </trkpt>
      <trkpt lat="40.65241" lon="0.72587">
        <ele>8.2</ele>
        <time>2022-05-24 21:15:20</time>
      </trkpt>
      <trkpt lat="40.6524" lon="0.72593">
        <ele>8.2</ele>
        <time>2022-05-24 21:15:21</time>
      </trkpt>
      <trkpt lat="40.6524" lon="0.726">
        <ele>8.2</ele>
        <time>2022-05-24 21:15:22</time>
      </trkpt>
      <trkpt lat="40.65239" lon="0.72606">
        <ele>8.2</ele>
        <time>2022-05-24 21:15:23</time>
      </trkpt>
      <trkpt lat="40.65239" lon="0.72613">
        <ele>8.2</ele>
        <time>2022-05-24 21:15:24</time>
      </trkpt>
      <trkpt lat="40.65238" lon="0.7262">
        <ele>8.2</ele>
        <time>2022-05-24 21:15:25</time>
      </trkpt>
      <trkpt lat="40.65238" lon="0.72627">
        <ele>8.2</ele>
        <time>2022-05-24 21:15:26</time>
      </trkpt>
      <trkpt lat="40.65237" lon="0.72633">
        <ele>8.2</ele>
        <time>2022-05-24 21:15:27</time>
      </trkpt>
      <trkpt lat="40.65237" lon="0.7264">
        <ele>8.2</ele>
        <time>2022-05-24 21:15:28</time>
      </trkpt>
      <trkpt lat="40.65236" lon="0.72647">
        <ele>8.2</ele>
        <time>2022-05-24 21:15:29</time>
      </trkpt>
      <trkpt lat="40.65236" lon="0.72655">
        <ele>8.2</ele>
        <time>2022-05-24 21:15:30</time>
      </trkpt>
      <trkpt lat="40.65235" lon="0.72662">
        <ele>8.2</ele>
        <time>2022-05-24 21:15:31</time>
      </trkpt>
      <trkpt lat="40.65234" lon="0.7267">
        <ele>8.2</ele>
        <time>2022-05-24 21:15:32</time>
      </trkpt>
      <trkpt lat="40.65234" lon="0.72676">
        <ele>8.2</ele>
        <time>2022-05-24 21:15:33</time>
      </trkpt>
      <trkpt lat="40.65233" lon="0.72683">
        <ele>8.4</ele>
        <time>2022-05-24 21:15:34</time>
      </trkpt>
      <trkpt lat="40.65232" lon="0.72689">
        <ele>8.4</ele>
        <time>2022-05-24 21:15:35</time>
      </trkpt>
      <trkpt lat="40.65231" lon="0.72695">
        <ele>8.4</ele>
        <time>2022-05-24 21:15:36</time>
      </trkpt>
      <trkpt lat="40.6523" lon="0.72702">
        <ele>8.4</ele>
        <time>2022-05-24 21:15:37</time>
      </trkpt>
      <trkpt lat="40.6523" lon="0.72708">
        <ele>8.4</ele>
        <time>2022-05-24 21:15:38</time>
      </trkpt>
      <trkpt lat="40.65229" lon="0.72715">
        <ele>8.4</ele>
        <time>2022-05-24 21:15:39</time>
      </trkpt>
      <trkpt lat="40.65228" lon="0.72722">
        <ele>8.4</ele>
        <time>2022-05-24 21:15:40</time>
      </trkpt>
      <trkpt lat="40.65228" lon="0.72729">
        <ele>8.2</ele>
        <time>2022-05-24 21:15:41</time>
      </trkpt>
      <trkpt lat="40.65227" lon="0.72736">
        <ele>8.2</ele>
        <time>2022-05-24 21:15:42</time>
      </trkpt>
      <trkpt lat="40.65226" lon="0.72743">
        <ele>8.4</ele>
        <time>2022-05-24 21:15:43</time>
      </trkpt>
      <trkpt lat="40.65226" lon="0.7275">
        <ele>8.4</ele>
        <time>2022-05-24 21:15:44</time>
      </trkpt>
      <trkpt lat="40.65225" lon="0.72757">
        <ele>8.4</ele>
        <time>2022-05-24 21:15:45</time>
      </trkpt>
      <trkpt lat="40.65224" lon="0.72764">
        <ele>8.6</ele>
        <time>2022-05-24 21:15:46</time>
      </trkpt>
      <trkpt lat="40.65224" lon="0.72771">
        <ele>8.6</ele>
        <time>2022-05-24 21:15:47</time>
      </trkpt>
      <trkpt lat="40.65223" lon="0.72778">
        <ele>8.6</ele>
        <time>2022-05-24 21:15:48</time>
      </trkpt>
      <trkpt lat="40.65223" lon="0.72785">
        <ele>8.4</ele>
        <time>2022-05-24 21:15:49</time>
      </trkpt>
      <trkpt lat="40.65223" lon="0.72792">
        <ele>8.4</ele>
        <time>2022-05-24 21:15:50</time>
      </trkpt>
      <trkpt lat="40.65224" lon="0.72798">
        <ele>8.4</ele>
        <time>2022-05-24 21:15:51</time>
      </trkpt>
      <trkpt lat="40.65225" lon="0.72805">
        <ele>8.4</ele>
        <time>2022-05-24 21:15:52</time>
      </trkpt>
      <trkpt lat="40.65226" lon="0.72811">
        <ele>8.4</ele>
        <time>2022-05-24 21:15:53</time>
      </trkpt>
      <trkpt lat="40.65228" lon="0.72818">
        <ele>8.2</ele>
        <time>2022-05-24 21:15:54</time>
      </trkpt>
      <trkpt lat="40.6523" lon="0.72824">
        <ele>8.2</ele>
        <time>2022-05-24 21:15:55</time>
      </trkpt>
      <trkpt lat="40.65232" lon="0.72831">
        <ele>8.2</ele>
        <time>2022-05-24 21:15:56</time>
      </trkpt>
      <trkpt lat="40.65234" lon="0.72837">
        <ele>8.2</ele>
        <time>2022-05-24 21:15:57</time>
      </trkpt>
      <trkpt lat="40.65236" lon="0.72842">
        <ele>8.2</ele>
        <time>2022-05-24 21:15:58</time>
      </trkpt>
      <trkpt lat="40.65238" lon="0.72848">
        <ele>8.2</ele>
        <time>2022-05-24 21:15:59</time>
      </trkpt>
      <trkpt lat="40.6524" lon="0.72854">
        <ele>8.2</ele>
        <time>2022-05-24 21:16:00</time>
      </trkpt>
      <trkpt lat="40.65243" lon="0.7286">
        <ele>8</ele>
        <time>2022-05-24 21:16:01</time>
      </trkpt>
      <trkpt lat="40.65246" lon="0.72865">
        <ele>8</ele>
        <time>2022-05-24 21:16:02</time>
      </trkpt>
      <trkpt lat="40.6525" lon="0.72871">
        <ele>8</ele>
        <time>2022-05-24 21:16:03</time>
      </trkpt>
      <trkpt lat="40.65253" lon="0.72877">
        <ele>8</ele>
        <time>2022-05-24 21:16:04</time>
      </trkpt>
      <trkpt lat="40.65256" lon="0.72882">
        <ele>8</ele>
        <time>2022-05-24 21:16:05</time>
      </trkpt>
      <trkpt lat="40.6526" lon="0.72888">
        <ele>8</ele>
        <time>2022-05-24 21:16:06</time>
      </trkpt>
      <trkpt lat="40.65265" lon="0.72893">
        <ele>8</ele>
        <time>2022-05-24 21:16:07</time>
      </trkpt>
      <trkpt lat="40.65269" lon="0.72898">
        <ele>8</ele>
        <time>2022-05-24 21:16:08</time>
      </trkpt>
      <trkpt lat="40.65273" lon="0.72902">
        <ele>8</ele>
        <time>2022-05-24 21:16:09</time>
      </trkpt>
      <trkpt lat="40.65277" lon="0.72906">
        <ele>8.2</ele>
        <time>2022-05-24 21:16:10</time>
      </trkpt>
      <trkpt lat="40.65282" lon="0.7291">
        <ele>8.2</ele>
        <time>2022-05-24 21:16:11</time>
      </trkpt>
      <trkpt lat="40.65286" lon="0.72914">
        <ele>8.2</ele>
        <time>2022-05-24 21:16:12</time>
      </trkpt>
      <trkpt lat="40.65291" lon="0.72917">
        <ele>8.2</ele>
        <time>2022-05-24 21:16:13</time>
      </trkpt>
      <trkpt lat="40.65296" lon="0.7292">
        <ele>8.2</ele>
        <time>2022-05-24 21:16:14</time>
      </trkpt>
      <trkpt lat="40.65301" lon="0.72924">
        <ele>8</ele>
        <time>2022-05-24 21:16:15</time>
      </trkpt>
      <trkpt lat="40.65305" lon="0.72927">
        <ele>8</ele>
        <time>2022-05-24 21:16:16</time>
      </trkpt>
      <trkpt lat="40.6531" lon="0.7293">
        <ele>8</ele>
        <time>2022-05-24 21:16:17</time>
      </trkpt>
      <trkpt lat="40.65315" lon="0.72933">
        <ele>8</ele>
        <time>2022-05-24 21:16:18</time>
      </trkpt>
      <trkpt lat="40.65319" lon="0.72936">
        <ele>8</ele>
        <time>2022-05-24 21:16:19</time>
      </trkpt>
      <trkpt lat="40.65324" lon="0.7294">
        <ele>8</ele>
        <time>2022-05-24 21:16:20</time>
      </trkpt>
      <trkpt lat="40.65328" lon="0.72943">
        <ele>8</ele>
        <time>2022-05-24 21:16:21</time>
      </trkpt>
      <trkpt lat="40.65332" lon="0.72948">
        <ele>8</ele>
        <time>2022-05-24 21:16:22</time>
      </trkpt>
      <trkpt lat="40.65336" lon="0.72952">
        <ele>8</ele>
        <time>2022-05-24 21:16:23</time>
      </trkpt>
      <trkpt lat="40.6534" lon="0.72957">
        <ele>7.8</ele>
        <time>2022-05-24 21:16:24</time>
      </trkpt>
      <trkpt lat="40.65343" lon="0.72962">
        <ele>7.8</ele>
        <time>2022-05-24 21:16:25</time>
      </trkpt>
      <trkpt lat="40.65347" lon="0.72967">
        <ele>7.8</ele>
        <time>2022-05-24 21:16:26</time>
      </trkpt>
      <trkpt lat="40.65351" lon="0.72973">
        <ele>7.8</ele>
        <time>2022-05-24 21:16:27</time>
      </trkpt>
      <trkpt lat="40.65354" lon="0.72978">
        <ele>7.8</ele>
        <time>2022-05-24 21:16:28</time>
      </trkpt>
      <trkpt lat="40.65358" lon="0.72984">
        <ele>7.8</ele>
        <time>2022-05-24 21:16:29</time>
      </trkpt>
      <trkpt lat="40.65361" lon="0.7299">
        <ele>7.8</ele>
        <time>2022-05-24 21:16:30</time>
      </trkpt>
      <trkpt lat="40.65363" lon="0.72996">
        <ele>7.8</ele>
        <time>2022-05-24 21:16:31</time>
      </trkpt>
      <trkpt lat="40.65365" lon="0.73003">
        <ele>7.8</ele>
        <time>2022-05-24 21:16:32</time>
      </trkpt>
      <trkpt lat="40.65366" lon="0.7301">
        <ele>7.8</ele>
        <time>2022-05-24 21:16:33</time>
      </trkpt>
      <trkpt lat="40.65368" lon="0.73017">
        <ele>7.8</ele>
        <time>2022-05-24 21:16:34</time>
      </trkpt>
      <trkpt lat="40.65369" lon="0.73024">
        <ele>7.8</ele>
        <time>2022-05-24 21:16:35</time>
      </trkpt>
      <trkpt lat="40.6537" lon="0.73031">
        <ele>7.8</ele>
        <time>2022-05-24 21:16:36</time>
      </trkpt>
      <trkpt lat="40.65371" lon="0.73038">
        <ele>7.8</ele>
        <time>2022-05-24 21:16:37</time>
      </trkpt>
      <trkpt lat="40.65372" lon="0.73045">
        <ele>7.8</ele>
        <time>2022-05-24 21:16:38</time>
      </trkpt>
      <trkpt lat="40.65373" lon="0.73052">
        <ele>8</ele>
        <time>2022-05-24 21:16:39</time>
      </trkpt>
      <trkpt lat="40.65374" lon="0.73059">
        <ele>8</ele>
        <time>2022-05-24 21:16:40</time>
      </trkpt>
      <trkpt lat="40.65376" lon="0.73066">
        <ele>8</ele>
        <time>2022-05-24 21:16:41</time>
      </trkpt>
      <trkpt lat="40.65376" lon="0.73074">
        <ele>8</ele>
        <time>2022-05-24 21:16:42</time>
      </trkpt>
      <trkpt lat="40.65377" lon="0.73081">
        <ele>8</ele>
        <time>2022-05-24 21:16:43</time>
      </trkpt>
      <trkpt lat="40.65377" lon="0.73088">
        <ele>8</ele>
        <time>2022-05-24 21:16:44</time>
      </trkpt>
      <trkpt lat="40.65378" lon="0.73095">
        <ele>8.2</ele>
        <time>2022-05-24 21:16:45</time>
      </trkpt>
      <trkpt lat="40.65378" lon="0.73102">
        <ele>8.2</ele>
        <time>2022-05-24 21:16:46</time>
      </trkpt>
      <trkpt lat="40.65379" lon="0.73109">
        <ele>8</ele>
        <time>2022-05-24 21:16:47</time>
      </trkpt>
      <trkpt lat="40.65379" lon="0.73115">
        <ele>8.2</ele>
        <time>2022-05-24 21:16:48</time>
      </trkpt>
      <trkpt lat="40.65378" lon="0.73121">
        <ele>8.2</ele>
        <time>2022-05-24 21:16:49</time>
      </trkpt>
      <trkpt lat="40.65377" lon="0.73127">
        <ele>8.6</ele>
        <time>2022-05-24 21:16:50</time>
      </trkpt>
      <trkpt lat="40.65376" lon="0.7313">
        <ele>9</ele>
        <time>2022-05-24 21:16:51</time>
      </trkpt>
      <trkpt lat="40.65376" lon="0.73134">
        <ele>9.2</ele>
        <time>2022-05-24 21:16:52</time>
      </trkpt>
      <trkpt lat="40.65374" lon="0.73137">
        <ele>9.4</ele>
        <time>2022-05-24 21:16:53</time>
      </trkpt>
      <trkpt lat="40.65372" lon="0.73142">
        <ele>9.4</ele>
        <time>2022-05-24 21:16:54</time>
      </trkpt>
      <trkpt lat="40.65369" lon="0.73148">
        <ele>9.2</ele>
        <time>2022-05-24 21:16:55</time>
      </trkpt>
      <trkpt lat="40.65366" lon="0.73155">
        <ele>9</ele>
        <time>2022-05-24 21:16:56</time>
      </trkpt>
      <trkpt lat="40.65363" lon="0.73162">
        <ele>8.8</ele>
        <time>2022-05-24 21:16:57</time>
      </trkpt>
      <trkpt lat="40.6536" lon="0.7317">
        <ele>8.8</ele>
        <time>2022-05-24 21:16:58</time>
      </trkpt>
      <trkpt lat="40.65357" lon="0.73177">
        <ele>8.8</ele>
        <time>2022-05-24 21:16:59</time>
      </trkpt>
      <trkpt lat="40.65355" lon="0.73185">
        <ele>8.6</ele>
        <time>2022-05-24 21:17:00</time>
      </trkpt>
      <trkpt lat="40.65353" lon="0.73192">
        <ele>8.6</ele>
        <time>2022-05-24 21:17:01</time>
      </trkpt>
      <trkpt lat="40.65351" lon="0.73199">
        <ele>8.4</ele>
        <time>2022-05-24 21:17:02</time>
      </trkpt>
      <trkpt lat="40.65349" lon="0.73206">
        <ele>8.4</ele>
        <time>2022-05-24 21:17:03</time>
      </trkpt>
      <trkpt lat="40.65347" lon="0.73213">
        <ele>8.2</ele>
        <time>2022-05-24 21:17:04</time>
      </trkpt>
      <trkpt lat="40.65345" lon="0.7322">
        <ele>8.2</ele>
        <time>2022-05-24 21:17:05</time>
      </trkpt>
      <trkpt lat="40.65343" lon="0.73227">
        <ele>8.2</ele>
        <time>2022-05-24 21:17:06</time>
      </trkpt>
      <trkpt lat="40.65342" lon="0.73234">
        <ele>8.2</ele>
        <time>2022-05-24 21:17:07</time>
      </trkpt>
      <trkpt lat="40.6534" lon="0.73241">
        <ele>8.2</ele>
        <time>2022-05-24 21:17:08</time>
      </trkpt>
      <trkpt lat="40.65338" lon="0.73249">
        <ele>8.2</ele>
        <time>2022-05-24 21:17:09</time>
      </trkpt>
      <trkpt lat="40.65337" lon="0.73256">
        <ele>8</ele>
        <time>2022-05-24 21:17:10</time>
      </trkpt>
      <trkpt lat="40.65336" lon="0.73263">
        <ele>8</ele>
        <time>2022-05-24 21:17:11</time>
      </trkpt>
      <trkpt lat="40.65336" lon="0.73271">
        <ele>7.8</ele>
        <time>2022-05-24 21:17:12</time>
      </trkpt>
      <trkpt lat="40.65336" lon="0.73278">
        <ele>7.8</ele>
        <time>2022-05-24 21:17:13</time>
      </trkpt>
      <trkpt lat="40.65336" lon="0.73285">
        <ele>7.8</ele>
        <time>2022-05-24 21:17:14</time>
      </trkpt>
      <trkpt lat="40.65337" lon="0.73292">
        <ele>7.6</ele>
        <time>2022-05-24 21:17:15</time>
      </trkpt>
      <trkpt lat="40.65337" lon="0.733">
        <ele>7.6</ele>
        <time>2022-05-24 21:17:16</time>
      </trkpt>
      <trkpt lat="40.65337" lon="0.73308">
        <ele>7.4</ele>
        <time>2022-05-24 21:17:17</time>
      </trkpt>
      <trkpt lat="40.65338" lon="0.73316">
        <ele>7.4</ele>
        <time>2022-05-24 21:17:18</time>
      </trkpt>
      <trkpt lat="40.65338" lon="0.73324">
        <ele>7.4</ele>
        <time>2022-05-24 21:17:19</time>
      </trkpt>
      <trkpt lat="40.65339" lon="0.73333">
        <ele>7.4</ele>
        <time>2022-05-24 21:17:20</time>
      </trkpt>
      <trkpt lat="40.65339" lon="0.73341">
        <ele>7.4</ele>
        <time>2022-05-24 21:17:21</time>
      </trkpt>
      <trkpt lat="40.6534" lon="0.73349">
        <ele>7.6</ele>
        <time>2022-05-24 21:17:22</time>
      </trkpt>
      <trkpt lat="40.6534" lon="0.73357">
        <ele>7.6</ele>
        <time>2022-05-24 21:17:23</time>
      </trkpt>
      <trkpt lat="40.65341" lon="0.73365">
        <ele>7.6</ele>
        <time>2022-05-24 21:17:24</time>
      </trkpt>
      <trkpt lat="40.65341" lon="0.73373">
        <ele>7.6</ele>
        <time>2022-05-24 21:17:25</time>
      </trkpt>
      <trkpt lat="40.65342" lon="0.73381">
        <ele>7.6</ele>
        <time>2022-05-24 21:17:26</time>
      </trkpt>
      <trkpt lat="40.65342" lon="0.73389">
        <ele>7.6</ele>
        <time>2022-05-24 21:17:27</time>
      </trkpt>
      <trkpt lat="40.65343" lon="0.73397">
        <ele>7.6</ele>
        <time>2022-05-24 21:17:28</time>
      </trkpt>
      <trkpt lat="40.65343" lon="0.73405">
        <ele>7.6</ele>
        <time>2022-05-24 21:17:29</time>
      </trkpt>
      <trkpt lat="40.65344" lon="0.73412">
        <ele>7.6</ele>
        <time>2022-05-24 21:17:30</time>
      </trkpt>
      <trkpt lat="40.65344" lon="0.73421">
        <ele>7.6</ele>
        <time>2022-05-24 21:17:31</time>
      </trkpt>
      <trkpt lat="40.65344" lon="0.73428">
        <ele>7.4</ele>
        <time>2022-05-24 21:17:32</time>
      </trkpt>
      <trkpt lat="40.65345" lon="0.73437">
        <ele>7.4</ele>
        <time>2022-05-24 21:17:33</time>
      </trkpt>
      <trkpt lat="40.65345" lon="0.73445">
        <ele>7.4</ele>
        <time>2022-05-24 21:17:34</time>
      </trkpt>
      <trkpt lat="40.65345" lon="0.73453">
        <ele>7.4</ele>
        <time>2022-05-24 21:17:35</time>
      </trkpt>
      <trkpt lat="40.65345" lon="0.73461">
        <ele>7.4</ele>
        <time>2022-05-24 21:17:36</time>
      </trkpt>
      <trkpt lat="40.65346" lon="0.73468">
        <ele>7.4</ele>
        <time>2022-05-24 21:17:37</time>
      </trkpt>
      <trkpt lat="40.65346" lon="0.73476">
        <ele>7.6</ele>
        <time>2022-05-24 21:17:38</time>
      </trkpt>
      <trkpt lat="40.65347" lon="0.73484">
        <ele>7.6</ele>
        <time>2022-05-24 21:17:39</time>
      </trkpt>
      <trkpt lat="40.65347" lon="0.73491">
        <ele>7.6</ele>
        <time>2022-05-24 21:17:40</time>
      </trkpt>
      <trkpt lat="40.65347" lon="0.73499">
        <ele>7.6</ele>
        <time>2022-05-24 21:17:41</time>
      </trkpt>
      <trkpt lat="40.65348" lon="0.73507">
        <ele>7.6</ele>
        <time>2022-05-24 21:17:42</time>
      </trkpt>
      <trkpt lat="40.65348" lon="0.73515">
        <ele>7.6</ele>
        <time>2022-05-24 21:17:43</time>
      </trkpt>
      <trkpt lat="40.65348" lon="0.73523">
        <ele>7.6</ele>
        <time>2022-05-24 21:17:44</time>
      </trkpt>
      <trkpt lat="40.65349" lon="0.73531">
        <ele>7.4</ele>
        <time>2022-05-24 21:17:45</time>
      </trkpt>
      <trkpt lat="40.65349" lon="0.73538">
        <ele>7.4</ele>
        <time>2022-05-24 21:17:46</time>
      </trkpt>
      <trkpt lat="40.6535" lon="0.73546">
        <ele>7.4</ele>
        <time>2022-05-24 21:17:47</time>
      </trkpt>
      <trkpt lat="40.6535" lon="0.73553">
        <ele>7.6</ele>
        <time>2022-05-24 21:17:48</time>
      </trkpt>
      <trkpt lat="40.65351" lon="0.73561">
        <ele>7.6</ele>
        <time>2022-05-24 21:17:49</time>
      </trkpt>
      <trkpt lat="40.65351" lon="0.73568">
        <ele>7.6</ele>
        <time>2022-05-24 21:17:50</time>
      </trkpt>
      <trkpt lat="40.65351" lon="0.73576">
        <ele>7.6</ele>
        <time>2022-05-24 21:17:51</time>
      </trkpt>
      <trkpt lat="40.65352" lon="0.73583">
        <ele>7.6</ele>
        <time>2022-05-24 21:17:52</time>
      </trkpt>
      <trkpt lat="40.65353" lon="0.73591">
        <ele>7.6</ele>
        <time>2022-05-24 21:17:53</time>
      </trkpt>
      <trkpt lat="40.65353" lon="0.73599">
        <ele>7.6</ele>
        <time>2022-05-24 21:17:54</time>
      </trkpt>
      <trkpt lat="40.65354" lon="0.73607">
        <ele>7.4</ele>
        <time>2022-05-24 21:17:55</time>
      </trkpt>
      <trkpt lat="40.65354" lon="0.73615">
        <ele>7.4</ele>
        <time>2022-05-24 21:17:56</time>
      </trkpt>
      <trkpt lat="40.65355" lon="0.73623">
        <ele>7.2</ele>
        <time>2022-05-24 21:17:57</time>
      </trkpt>
      <trkpt lat="40.65355" lon="0.73631">
        <ele>7.2</ele>
        <time>2022-05-24 21:17:58</time>
      </trkpt>
      <trkpt lat="40.65355" lon="0.73638">
        <ele>7.2</ele>
        <time>2022-05-24 21:17:59</time>
      </trkpt>
      <trkpt lat="40.65355" lon="0.73646">
        <ele>7.2</ele>
        <time>2022-05-24 21:18:00</time>
      </trkpt>
      <trkpt lat="40.65355" lon="0.73654">
        <ele>7.4</ele>
        <time>2022-05-24 21:18:01</time>
      </trkpt>
      <trkpt lat="40.65354" lon="0.73661">
        <ele>7.4</ele>
        <time>2022-05-24 21:18:02</time>
      </trkpt>
      <trkpt lat="40.65353" lon="0.73669">
        <ele>7.4</ele>
        <time>2022-05-24 21:18:03</time>
      </trkpt>
      <trkpt lat="40.65351" lon="0.73676">
        <ele>7.4</ele>
        <time>2022-05-24 21:18:04</time>
      </trkpt>
      <trkpt lat="40.6535" lon="0.73683">
        <ele>7.4</ele>
        <time>2022-05-24 21:18:05</time>
      </trkpt>
      <trkpt lat="40.65348" lon="0.73691">
        <ele>7.4</ele>
        <time>2022-05-24 21:18:06</time>
      </trkpt>
      <trkpt lat="40.65347" lon="0.73699">
        <ele>7.4</ele>
        <time>2022-05-24 21:18:07</time>
      </trkpt>
      <trkpt lat="40.65346" lon="0.73706">
        <ele>7.4</ele>
        <time>2022-05-24 21:18:08</time>
      </trkpt>
      <trkpt lat="40.65345" lon="0.73713">
        <ele>7.2</ele>
        <time>2022-05-24 21:18:09</time>
      </trkpt>
      <trkpt lat="40.65343" lon="0.7372">
        <ele>7.2</ele>
        <time>2022-05-24 21:18:10</time>
      </trkpt>
      <trkpt lat="40.65342" lon="0.73727">
        <ele>7.2</ele>
        <time>2022-05-24 21:18:11</time>
      </trkpt>
      <trkpt lat="40.65341" lon="0.73735">
        <ele>7.2</ele>
        <time>2022-05-24 21:18:12</time>
      </trkpt>
      <trkpt lat="40.6534" lon="0.73743">
        <ele>7</ele>
        <time>2022-05-24 21:18:13</time>
      </trkpt>
      <trkpt lat="40.65338" lon="0.73751">
        <ele>7</ele>
        <time>2022-05-24 21:18:14</time>
      </trkpt>
      <trkpt lat="40.65337" lon="0.73759">
        <ele>7</ele>
        <time>2022-05-24 21:18:15</time>
      </trkpt>
      <trkpt lat="40.65335" lon="0.73766">
        <ele>7</ele>
        <time>2022-05-24 21:18:16</time>
      </trkpt>
      <trkpt lat="40.65334" lon="0.73772">
        <ele>7</ele>
        <time>2022-05-24 21:18:17</time>
      </trkpt>
      <trkpt lat="40.65333" lon="0.73779">
        <ele>7.2</ele>
        <time>2022-05-24 21:18:18</time>
      </trkpt>
      <trkpt lat="40.65332" lon="0.73786">
        <ele>7.2</ele>
        <time>2022-05-24 21:18:19</time>
      </trkpt>
      <trkpt lat="40.65331" lon="0.73792">
        <ele>7.2</ele>
        <time>2022-05-24 21:18:20</time>
      </trkpt>
      <trkpt lat="40.6533" lon="0.73798">
        <ele>7.2</ele>
        <time>2022-05-24 21:18:21</time>
      </trkpt>
      <trkpt lat="40.65329" lon="0.73804">
        <ele>7.2</ele>
        <time>2022-05-24 21:18:22</time>
      </trkpt>
      <trkpt lat="40.65328" lon="0.7381">
        <ele>7.2</ele>
        <time>2022-05-24 21:18:23</time>
      </trkpt>
      <trkpt lat="40.65327" lon="0.73817">
        <ele>7</ele>
        <time>2022-05-24 21:18:24</time>
      </trkpt>
      <trkpt lat="40.65326" lon="0.73824">
        <ele>7.2</ele>
        <time>2022-05-24 21:18:25</time>
      </trkpt>
      <trkpt lat="40.65324" lon="0.73831">
        <ele>7.2</ele>
        <time>2022-05-24 21:18:26</time>
      </trkpt>
      <trkpt lat="40.65323" lon="0.73838">
        <ele>7.2</ele>
        <time>2022-05-24 21:18:27</time>
      </trkpt>
      <trkpt lat="40.65322" lon="0.73844">
        <ele>7.2</ele>
        <time>2022-05-24 21:18:28</time>
      </trkpt>
      <trkpt lat="40.65321" lon="0.73851">
        <ele>7.2</ele>
        <time>2022-05-24 21:18:29</time>
      </trkpt>
      <trkpt lat="40.6532" lon="0.73858">
        <ele>7.2</ele>
        <time>2022-05-24 21:18:30</time>
      </trkpt>
      <trkpt lat="40.65319" lon="0.73865">
        <ele>7.2</ele>
        <time>2022-05-24 21:18:31</time>
      </trkpt>
      <trkpt lat="40.65318" lon="0.73872">
        <ele>7.2</ele>
        <time>2022-05-24 21:18:32</time>
      </trkpt>
      <trkpt lat="40.65316" lon="0.73879">
        <ele>7.2</ele>
        <time>2022-05-24 21:18:33</time>
      </trkpt>
      <trkpt lat="40.65315" lon="0.73886">
        <ele>7.2</ele>
        <time>2022-05-24 21:18:34</time>
      </trkpt>
      <trkpt lat="40.65313" lon="0.73893">
        <ele>7.2</ele>
        <time>2022-05-24 21:18:35</time>
      </trkpt>
      <trkpt lat="40.65312" lon="0.739">
        <ele>7.2</ele>
        <time>2022-05-24 21:18:36</time>
      </trkpt>
      <trkpt lat="40.65311" lon="0.73907">
        <ele>7.2</ele>
        <time>2022-05-24 21:18:37</time>
      </trkpt>
      <trkpt lat="40.6531" lon="0.73915">
        <ele>7.2</ele>
        <time>2022-05-24 21:18:38</time>
      </trkpt>
      <trkpt lat="40.65309" lon="0.73922">
        <ele>7.2</ele>
        <time>2022-05-24 21:18:39</time>
      </trkpt>
      <trkpt lat="40.65308" lon="0.73929">
        <ele>7.2</ele>
        <time>2022-05-24 21:18:40</time>
      </trkpt>
      <trkpt lat="40.65306" lon="0.73936">
        <ele>7.2</ele>
        <time>2022-05-24 21:18:41</time>
      </trkpt>
      <trkpt lat="40.65305" lon="0.73943">
        <ele>7.4</ele>
        <time>2022-05-24 21:18:42</time>
      </trkpt>
      <trkpt lat="40.65304" lon="0.7395">
        <ele>7.4</ele>
        <time>2022-05-24 21:18:43</time>
      </trkpt>
      <trkpt lat="40.65303" lon="0.73956">
        <ele>7.4</ele>
        <time>2022-05-24 21:18:44</time>
      </trkpt>
      <trkpt lat="40.65303" lon="0.73963">
        <ele>7.4</ele>
        <time>2022-05-24 21:18:45</time>
      </trkpt>
      <trkpt lat="40.65303" lon="0.7397">
        <ele>7.4</ele>
        <time>2022-05-24 21:18:46</time>
      </trkpt>
      <trkpt lat="40.65303" lon="0.73977">
        <ele>7.4</ele>
        <time>2022-05-24 21:18:47</time>
      </trkpt>
      <trkpt lat="40.65303" lon="0.73984">
        <ele>7.4</ele>
        <time>2022-05-24 21:18:48</time>
      </trkpt>
      <trkpt lat="40.65305" lon="0.73991">
        <ele>7.4</ele>
        <time>2022-05-24 21:18:49</time>
      </trkpt>
      <trkpt lat="40.65306" lon="0.73998">
        <ele>7.4</ele>
        <time>2022-05-24 21:18:50</time>
      </trkpt>
      <trkpt lat="40.65308" lon="0.74005">
        <ele>7.2</ele>
        <time>2022-05-24 21:18:51</time>
      </trkpt>
      <trkpt lat="40.6531" lon="0.74012">
        <ele>7.2</ele>
        <time>2022-05-24 21:18:52</time>
      </trkpt>
      <trkpt lat="40.65313" lon="0.74018">
        <ele>7</ele>
        <time>2022-05-24 21:18:53</time>
      </trkpt>
      <trkpt lat="40.65315" lon="0.74024">
        <ele>7</ele>
        <time>2022-05-24 21:18:54</time>
      </trkpt>
      <trkpt lat="40.65318" lon="0.7403">
        <ele>7</ele>
        <time>2022-05-24 21:18:55</time>
      </trkpt>
      <trkpt lat="40.65321" lon="0.74036">
        <ele>7</ele>
        <time>2022-05-24 21:18:56</time>
      </trkpt>
      <trkpt lat="40.65324" lon="0.7404">
        <ele>7.2</ele>
        <time>2022-05-24 21:18:57</time>
      </trkpt>
      <trkpt lat="40.65329" lon="0.74044">
        <ele>7.2</ele>
        <time>2022-05-24 21:18:58</time>
      </trkpt>
      <trkpt lat="40.65333" lon="0.74047">
        <ele>7.2</ele>
        <time>2022-05-24 21:18:59</time>
      </trkpt>
      <trkpt lat="40.65337" lon="0.7405">
        <ele>7.2</ele>
        <time>2022-05-24 21:19:00</time>
      </trkpt>
      <trkpt lat="40.65341" lon="0.74053">
        <ele>7.4</ele>
        <time>2022-05-24 21:19:01</time>
      </trkpt>
      <trkpt lat="40.65344" lon="0.74057">
        <ele>7.4</ele>
        <time>2022-05-24 21:19:02</time>
      </trkpt>
      <trkpt lat="40.65345" lon="0.74061">
        <ele>7.6</ele>
        <time>2022-05-24 21:19:03</time>
      </trkpt>
      <trkpt lat="40.65348" lon="0.74066">
        <ele>7.4</ele>
        <time>2022-05-24 21:19:04</time>
      </trkpt>
      <trkpt lat="40.65351" lon="0.7407">
        <ele>7.4</ele>
        <time>2022-05-24 21:19:05</time>
      </trkpt>
      <trkpt lat="40.65355" lon="0.74075">
        <ele>7.2</ele>
        <time>2022-05-24 21:19:06</time>
      </trkpt>
      <trkpt lat="40.65359" lon="0.7408">
        <ele>7.2</ele>
        <time>2022-05-24 21:19:07</time>
      </trkpt>
      <trkpt lat="40.65362" lon="0.74085">
        <ele>7.2</ele>
        <time>2022-05-24 21:19:08</time>
      </trkpt>
      <trkpt lat="40.65365" lon="0.7409">
        <ele>7.2</ele>
        <time>2022-05-24 21:19:09</time>
      </trkpt>
      <trkpt lat="40.65368" lon="0.74096">
        <ele>7.2</ele>
        <time>2022-05-24 21:19:10</time>
      </trkpt>
      <trkpt lat="40.65371" lon="0.74101">
        <ele>7.2</ele>
        <time>2022-05-24 21:19:11</time>
      </trkpt>
      <trkpt lat="40.65373" lon="0.74107">
        <ele>7.2</ele>
        <time>2022-05-24 21:19:12</time>
      </trkpt>
      <trkpt lat="40.65375" lon="0.74114">
        <ele>7.2</ele>
        <time>2022-05-24 21:19:13</time>
      </trkpt>
      <trkpt lat="40.65377" lon="0.7412">
        <ele>7.2</ele>
        <time>2022-05-24 21:19:14</time>
      </trkpt>
      <trkpt lat="40.65378" lon="0.74126">
        <ele>7.2</ele>
        <time>2022-05-24 21:19:15</time>
      </trkpt>
      <trkpt lat="40.65379" lon="0.74133">
        <ele>7.2</ele>
        <time>2022-05-24 21:19:16</time>
      </trkpt>
      <trkpt lat="40.6538" lon="0.74139">
        <ele>7.2</ele>
        <time>2022-05-24 21:19:17</time>
      </trkpt>
      <trkpt lat="40.65382" lon="0.74146">
        <ele>7.2</ele>
        <time>2022-05-24 21:19:18</time>
      </trkpt>
      <trkpt lat="40.65383" lon="0.74152">
        <ele>7.2</ele>
        <time>2022-05-24 21:19:19</time>
      </trkpt>
      <trkpt lat="40.65384" lon="0.74159">
        <ele>7.2</ele>
        <time>2022-05-24 21:19:20</time>
      </trkpt>
      <trkpt lat="40.65385" lon="0.74165">
        <ele>7.2</ele>
        <time>2022-05-24 21:19:21</time>
      </trkpt>
      <trkpt lat="40.65386" lon="0.74172">
        <ele>7.2</ele>
        <time>2022-05-24 21:19:22</time>
      </trkpt>
      <trkpt lat="40.65386" lon="0.74178">
        <ele>7.2</ele>
        <time>2022-05-24 21:19:23</time>
      </trkpt>
      <trkpt lat="40.65386" lon="0.74185">
        <ele>7.2</ele>
        <time>2022-05-24 21:19:24</time>
      </trkpt>
      <trkpt lat="40.65386" lon="0.74191">
        <ele>7.2</ele>
        <time>2022-05-24 21:19:25</time>
      </trkpt>
      <trkpt lat="40.65385" lon="0.74198">
        <ele>7.4</ele>
        <time>2022-05-24 21:19:26</time>
      </trkpt>
      <trkpt lat="40.65385" lon="0.74204">
        <ele>7.4</ele>
        <time>2022-05-24 21:19:27</time>
      </trkpt>
      <trkpt lat="40.65384" lon="0.74211">
        <ele>7.4</ele>
        <time>2022-05-24 21:19:28</time>
      </trkpt>
      <trkpt lat="40.65384" lon="0.74218">
        <ele>7.4</ele>
        <time>2022-05-24 21:19:29</time>
      </trkpt>
      <trkpt lat="40.65382" lon="0.74225">
        <ele>7.4</ele>
        <time>2022-05-24 21:19:30</time>
      </trkpt>
      <trkpt lat="40.65382" lon="0.74232">
        <ele>7.4</ele>
        <time>2022-05-24 21:19:31</time>
      </trkpt>
      <trkpt lat="40.6538" lon="0.74239">
        <ele>7.2</ele>
        <time>2022-05-24 21:19:32</time>
      </trkpt>
      <trkpt lat="40.65379" lon="0.74246">
        <ele>7.2</ele>
        <time>2022-05-24 21:19:33</time>
      </trkpt>
      <trkpt lat="40.65379" lon="0.74254">
        <ele>7.2</ele>
        <time>2022-05-24 21:19:34</time>
      </trkpt>
      <trkpt lat="40.65378" lon="0.74262">
        <ele>7.2</ele>
        <time>2022-05-24 21:19:35</time>
      </trkpt>
      <trkpt lat="40.65377" lon="0.7427">
        <ele>7</ele>
        <time>2022-05-24 21:19:36</time>
      </trkpt>
      <trkpt lat="40.65376" lon="0.74278">
        <ele>7</ele>
        <time>2022-05-24 21:19:37</time>
      </trkpt>
      <trkpt lat="40.65375" lon="0.74286">
        <ele>7</ele>
        <time>2022-05-24 21:19:38</time>
      </trkpt>
      <trkpt lat="40.65374" lon="0.74294">
        <ele>7</ele>
        <time>2022-05-24 21:19:39</time>
      </trkpt>
      <trkpt lat="40.65373" lon="0.74303">
        <ele>7</ele>
        <time>2022-05-24 21:19:40</time>
      </trkpt>
      <trkpt lat="40.65372" lon="0.74311">
        <ele>7.2</ele>
        <time>2022-05-24 21:19:41</time>
      </trkpt>
      <trkpt lat="40.65371" lon="0.74318">
        <ele>7.4</ele>
        <time>2022-05-24 21:19:42</time>
      </trkpt>
      <trkpt lat="40.65371" lon="0.74324">
        <ele>7.8</ele>
        <time>2022-05-24 21:19:43</time>
      </trkpt>
      <trkpt lat="40.6537" lon="0.7433">
        <ele>7.8</ele>
        <time>2022-05-24 21:19:44</time>
      </trkpt>
      <trkpt lat="40.65369" lon="0.74337">
        <ele>7.8</ele>
        <time>2022-05-24 21:19:45</time>
      </trkpt>
      <trkpt lat="40.65369" lon="0.74344">
        <ele>7.6</ele>
        <time>2022-05-24 21:19:46</time>
      </trkpt>
      <trkpt lat="40.65368" lon="0.74352">
        <ele>7.6</ele>
        <time>2022-05-24 21:19:47</time>
      </trkpt>
      <trkpt lat="40.65367" lon="0.7436">
        <ele>7.4</ele>
        <time>2022-05-24 21:19:48</time>
      </trkpt>
      <trkpt lat="40.65366" lon="0.74367">
        <ele>7.4</ele>
        <time>2022-05-24 21:19:49</time>
      </trkpt>
      <trkpt lat="40.65366" lon="0.74374">
        <ele>7.4</ele>
        <time>2022-05-24 21:19:50</time>
      </trkpt>
      <trkpt lat="40.65364" lon="0.74381">
        <ele>7.4</ele>
        <time>2022-05-24 21:19:51</time>
      </trkpt>
      <trkpt lat="40.65363" lon="0.74388">
        <ele>7.6</ele>
        <time>2022-05-24 21:19:52</time>
      </trkpt>
      <trkpt lat="40.65362" lon="0.74394">
        <ele>7.4</ele>
        <time>2022-05-24 21:19:53</time>
      </trkpt>
      <trkpt lat="40.65361" lon="0.74401">
        <ele>7.4</ele>
        <time>2022-05-24 21:19:54</time>
      </trkpt>
      <trkpt lat="40.65359" lon="0.74408">
        <ele>7.4</ele>
        <time>2022-05-24 21:19:55</time>
      </trkpt>
      <trkpt lat="40.65358" lon="0.74415">
        <ele>7.4</ele>
        <time>2022-05-24 21:19:56</time>
      </trkpt>
      <trkpt lat="40.65356" lon="0.74422">
        <ele>7.4</ele>
        <time>2022-05-24 21:19:57</time>
      </trkpt>
      <trkpt lat="40.65355" lon="0.74429">
        <ele>7.4</ele>
        <time>2022-05-24 21:19:58</time>
      </trkpt>
      <trkpt lat="40.65353" lon="0.74436">
        <ele>7.4</ele>
        <time>2022-05-24 21:19:59</time>
      </trkpt>
      <trkpt lat="40.65351" lon="0.74443">
        <ele>7.2</ele>
        <time>2022-05-24 21:20:00</time>
      </trkpt>
      <trkpt lat="40.6535" lon="0.74451">
        <ele>7.2</ele>
        <time>2022-05-24 21:20:01</time>
      </trkpt>
      <trkpt lat="40.65349" lon="0.74458">
        <ele>7.2</ele>
        <time>2022-05-24 21:20:02</time>
      </trkpt>
      <trkpt lat="40.65348" lon="0.74464">
        <ele>7.4</ele>
        <time>2022-05-24 21:20:03</time>
      </trkpt>
      <trkpt lat="40.65346" lon="0.74471">
        <ele>7.4</ele>
        <time>2022-05-24 21:20:04</time>
      </trkpt>
      <trkpt lat="40.65344" lon="0.74479">
        <ele>7.4</ele>
        <time>2022-05-24 21:20:05</time>
      </trkpt>
      <trkpt lat="40.65343" lon="0.74485">
        <ele>7.4</ele>
        <time>2022-05-24 21:20:06</time>
      </trkpt>
      <trkpt lat="40.65341" lon="0.74492">
        <ele>7.4</ele>
        <time>2022-05-24 21:20:07</time>
      </trkpt>
      <trkpt lat="40.6534" lon="0.74499">
        <ele>7.4</ele>
        <time>2022-05-24 21:20:08</time>
      </trkpt>
      <trkpt lat="40.65338" lon="0.74506">
        <ele>7.4</ele>
        <time>2022-05-24 21:20:09</time>
      </trkpt>
      <trkpt lat="40.65337" lon="0.74512">
        <ele>7.4</ele>
        <time>2022-05-24 21:20:10</time>
      </trkpt>
      <trkpt lat="40.65335" lon="0.74519">
        <ele>7.6</ele>
        <time>2022-05-24 21:20:11</time>
      </trkpt>
      <trkpt lat="40.65334" lon="0.74525">
        <ele>7.6</ele>
        <time>2022-05-24 21:20:12</time>
      </trkpt>
      <trkpt lat="40.65333" lon="0.74531">
        <ele>7.6</ele>
        <time>2022-05-24 21:20:13</time>
      </trkpt>
      <trkpt lat="40.65332" lon="0.74537">
        <ele>7.6</ele>
        <time>2022-05-24 21:20:14</time>
      </trkpt>
      <trkpt lat="40.6533" lon="0.74543">
        <ele>7.6</ele>
        <time>2022-05-24 21:20:15</time>
      </trkpt>
      <trkpt lat="40.65329" lon="0.74548">
        <ele>7.6</ele>
        <time>2022-05-24 21:20:16</time>
      </trkpt>
      <trkpt lat="40.65328" lon="0.74553">
        <ele>7.8</ele>
        <time>2022-05-24 21:20:17</time>
      </trkpt>
      <trkpt lat="40.65327" lon="0.74558">
        <ele>7.8</ele>
        <time>2022-05-24 21:20:18</time>
      </trkpt>
      <trkpt lat="40.65326" lon="0.74563">
        <ele>7.8</ele>
        <time>2022-05-24 21:20:19</time>
      </trkpt>
      <trkpt lat="40.65325" lon="0.74568">
        <ele>7.8</ele>
        <time>2022-05-24 21:20:20</time>
      </trkpt>
      <trkpt lat="40.65324" lon="0.74573">
        <ele>8</ele>
        <time>2022-05-24 21:20:21</time>
      </trkpt>
      <trkpt lat="40.65323" lon="0.74577">
        <ele>8.4</ele>
        <time>2022-05-24 21:20:22</time>
      </trkpt>
      <trkpt lat="40.65322" lon="0.7458">
        <ele>8.6</ele>
        <time>2022-05-24 21:20:23</time>
      </trkpt>
      <trkpt lat="40.65321" lon="0.74582">
        <ele>8.8</ele>
        <time>2022-05-24 21:20:24</time>
      </trkpt>
      <trkpt lat="40.65321" lon="0.74585">
        <ele>8.8</ele>
        <time>2022-05-24 21:20:25</time>
      </trkpt>
      <trkpt lat="40.65321" lon="0.74589">
        <ele>8.8</ele>
        <time>2022-05-24 21:20:26</time>
      </trkpt>
      <trkpt lat="40.65321" lon="0.74593">
        <ele>8.6</ele>
        <time>2022-05-24 21:20:27</time>
      </trkpt>
      <trkpt lat="40.6532" lon="0.746">
        <ele>8.2</ele>
        <time>2022-05-24 21:20:28</time>
      </trkpt>
      <trkpt lat="40.6532" lon="0.74607">
        <ele>8</ele>
        <time>2022-05-24 21:20:29</time>
      </trkpt>
      <trkpt lat="40.65319" lon="0.74614">
        <ele>7.8</ele>
        <time>2022-05-24 21:20:30</time>
      </trkpt>
      <trkpt lat="40.65319" lon="0.74621">
        <ele>7.6</ele>
        <time>2022-05-24 21:20:31</time>
      </trkpt>
      <trkpt lat="40.65318" lon="0.74628">
        <ele>7.4</ele>
        <time>2022-05-24 21:20:32</time>
      </trkpt>
      <trkpt lat="40.65318" lon="0.74636">
        <ele>7.4</ele>
        <time>2022-05-24 21:20:33</time>
      </trkpt>
      <trkpt lat="40.65317" lon="0.74643">
        <ele>7.4</ele>
        <time>2022-05-24 21:20:34</time>
      </trkpt>
      <trkpt lat="40.65317" lon="0.7465">
        <ele>7.4</ele>
        <time>2022-05-24 21:20:35</time>
      </trkpt>
      <trkpt lat="40.65317" lon="0.74657">
        <ele>7.4</ele>
        <time>2022-05-24 21:20:36</time>
      </trkpt>
      <trkpt lat="40.65317" lon="0.74663">
        <ele>7.2</ele>
        <time>2022-05-24 21:20:37</time>
      </trkpt>
      <trkpt lat="40.65318" lon="0.74671">
        <ele>7.2</ele>
        <time>2022-05-24 21:20:38</time>
      </trkpt>
      <trkpt lat="40.65319" lon="0.74678">
        <ele>7.2</ele>
        <time>2022-05-24 21:20:39</time>
      </trkpt>
      <trkpt lat="40.6532" lon="0.74685">
        <ele>7.2</ele>
        <time>2022-05-24 21:20:40</time>
      </trkpt>
      <trkpt lat="40.65322" lon="0.74692">
        <ele>7.2</ele>
        <time>2022-05-24 21:20:41</time>
      </trkpt>
      <trkpt lat="40.65323" lon="0.74699">
        <ele>7.2</ele>
        <time>2022-05-24 21:20:42</time>
      </trkpt>
      <trkpt lat="40.65324" lon="0.74706">
        <ele>7</ele>
        <time>2022-05-24 21:20:43</time>
      </trkpt>
      <trkpt lat="40.65324" lon="0.74712">
        <ele>7</ele>
        <time>2022-05-24 21:20:44</time>
      </trkpt>
      <trkpt lat="40.65324" lon="0.74719">
        <ele>7.2</ele>
        <time>2022-05-24 21:20:45</time>
      </trkpt>
      <trkpt lat="40.65324" lon="0.74726">
        <ele>7.2</ele>
        <time>2022-05-24 21:20:46</time>
      </trkpt>
      <trkpt lat="40.65323" lon="0.74732">
        <ele>7.4</ele>
        <time>2022-05-24 21:20:47</time>
      </trkpt>
      <trkpt lat="40.65321" lon="0.74739">
        <ele>7.4</ele>
        <time>2022-05-24 21:20:48</time>
      </trkpt>
      <trkpt lat="40.6532" lon="0.74746">
        <ele>7.4</ele>
        <time>2022-05-24 21:20:49</time>
      </trkpt>
      <trkpt lat="40.65318" lon="0.74752">
        <ele>7.6</ele>
        <time>2022-05-24 21:20:50</time>
      </trkpt>
      <trkpt lat="40.65316" lon="0.74759">
        <ele>7.6</ele>
        <time>2022-05-24 21:20:51</time>
      </trkpt>
      <trkpt lat="40.65314" lon="0.74766">
        <ele>7.6</ele>
        <time>2022-05-24 21:20:52</time>
      </trkpt>
      <trkpt lat="40.65313" lon="0.74773">
        <ele>7.6</ele>
        <time>2022-05-24 21:20:53</time>
      </trkpt>
      <trkpt lat="40.65311" lon="0.7478">
        <ele>7.6</ele>
        <time>2022-05-24 21:20:54</time>
      </trkpt>
      <trkpt lat="40.6531" lon="0.74787">
        <ele>7.6</ele>
        <time>2022-05-24 21:20:55</time>
      </trkpt>
      <trkpt lat="40.65308" lon="0.74793">
        <ele>7.6</ele>
        <time>2022-05-24 21:20:56</time>
      </trkpt>
      <trkpt lat="40.65306" lon="0.748">
        <ele>7.6</ele>
        <time>2022-05-24 21:20:57</time>
      </trkpt>
      <trkpt lat="40.65305" lon="0.74807">
        <ele>7.6</ele>
        <time>2022-05-24 21:20:58</time>
      </trkpt>
      <trkpt lat="40.65303" lon="0.74813">
        <ele>7.4</ele>
        <time>2022-05-24 21:20:59</time>
      </trkpt>
      <trkpt lat="40.65301" lon="0.7482">
        <ele>7.4</ele>
        <time>2022-05-24 21:21:00</time>
      </trkpt>
      <trkpt lat="40.65299" lon="0.74827">
        <ele>7.4</ele>
        <time>2022-05-24 21:21:01</time>
      </trkpt>
      <trkpt lat="40.65297" lon="0.74834">
        <ele>7.4</ele>
        <time>2022-05-24 21:21:02</time>
      </trkpt>
      <trkpt lat="40.65295" lon="0.74841">
        <ele>7.4</ele>
        <time>2022-05-24 21:21:03</time>
      </trkpt>
      <trkpt lat="40.65293" lon="0.74847">
        <ele>7.4</ele>
        <time>2022-05-24 21:21:04</time>
      </trkpt>
      <trkpt lat="40.65291" lon="0.74854">
        <ele>7.2</ele>
        <time>2022-05-24 21:21:05</time>
      </trkpt>
      <trkpt lat="40.65289" lon="0.74861">
        <ele>7.2</ele>
        <time>2022-05-24 21:21:06</time>
      </trkpt>
      <trkpt lat="40.65288" lon="0.74868">
        <ele>7</ele>
        <time>2022-05-24 21:21:07</time>
      </trkpt>
      <trkpt lat="40.65286" lon="0.74875">
        <ele>7</ele>
        <time>2022-05-24 21:21:08</time>
      </trkpt>
      <trkpt lat="40.65284" lon="0.74882">
        <ele>7.2</ele>
        <time>2022-05-24 21:21:09</time>
      </trkpt>
      <trkpt lat="40.65283" lon="0.74888">
        <ele>7.2</ele>
        <time>2022-05-24 21:21:10</time>
      </trkpt>
      <trkpt lat="40.65281" lon="0.74895">
        <ele>7.2</ele>
        <time>2022-05-24 21:21:11</time>
      </trkpt>
      <trkpt lat="40.65279" lon="0.74902">
        <ele>7.2</ele>
        <time>2022-05-24 21:21:12</time>
      </trkpt>
      <trkpt lat="40.65277" lon="0.74909">
        <ele>7.2</ele>
        <time>2022-05-24 21:21:13</time>
      </trkpt>
      <trkpt lat="40.65276" lon="0.74916">
        <ele>7.2</ele>
        <time>2022-05-24 21:21:14</time>
      </trkpt>
      <trkpt lat="40.65274" lon="0.74923">
        <ele>7.4</ele>
        <time>2022-05-24 21:21:15</time>
      </trkpt>
      <trkpt lat="40.65272" lon="0.7493">
        <ele>7.4</ele>
        <time>2022-05-24 21:21:16</time>
      </trkpt>
      <trkpt lat="40.6527" lon="0.74937">
        <ele>7.2</ele>
        <time>2022-05-24 21:21:17</time>
      </trkpt>
      <trkpt lat="40.65268" lon="0.74944">
        <ele>7.4</ele>
        <time>2022-05-24 21:21:18</time>
      </trkpt>
      <trkpt lat="40.65266" lon="0.74951">
        <ele>7.4</ele>
        <time>2022-05-24 21:21:19</time>
      </trkpt>
      <trkpt lat="40.65265" lon="0.74958">
        <ele>7.4</ele>
        <time>2022-05-24 21:21:20</time>
      </trkpt>
      <trkpt lat="40.65263" lon="0.74965">
        <ele>7.6</ele>
        <time>2022-05-24 21:21:21</time>
      </trkpt>
      <trkpt lat="40.65261" lon="0.74972">
        <ele>7.6</ele>
        <time>2022-05-24 21:21:22</time>
      </trkpt>
      <trkpt lat="40.65259" lon="0.74978">
        <ele>7.4</ele>
        <time>2022-05-24 21:21:23</time>
      </trkpt>
      <trkpt lat="40.65258" lon="0.74985">
        <ele>7.4</ele>
        <time>2022-05-24 21:21:24</time>
      </trkpt>
      <trkpt lat="40.65256" lon="0.74992">
        <ele>7.4</ele>
        <time>2022-05-24 21:21:25</time>
      </trkpt>
      <trkpt lat="40.65254" lon="0.74998">
        <ele>7.4</ele>
        <time>2022-05-24 21:21:26</time>
      </trkpt>
      <trkpt lat="40.65253" lon="0.75004">
        <ele>7.4</ele>
        <time>2022-05-24 21:21:27</time>
      </trkpt>
      <trkpt lat="40.65252" lon="0.75009">
        <ele>7.4</ele>
        <time>2022-05-24 21:21:28</time>
      </trkpt>
      <trkpt lat="40.6525" lon="0.75017">
        <ele>7.2</ele>
        <time>2022-05-24 21:21:29</time>
      </trkpt>
      <trkpt lat="40.65248" lon="0.75023">
        <ele>7.2</ele>
        <time>2022-05-24 21:21:30</time>
      </trkpt>
      <trkpt lat="40.65246" lon="0.7503">
        <ele>7.2</ele>
        <time>2022-05-24 21:21:31</time>
      </trkpt>
      <trkpt lat="40.65244" lon="0.75036">
        <ele>7.2</ele>
        <time>2022-05-24 21:21:32</time>
      </trkpt>
      <trkpt lat="40.65242" lon="0.75043">
        <ele>7.2</ele>
        <time>2022-05-24 21:21:33</time>
      </trkpt>
      <trkpt lat="40.65241" lon="0.7505">
        <ele>7.2</ele>
        <time>2022-05-24 21:21:34</time>
      </trkpt>
      <trkpt lat="40.65239" lon="0.75057">
        <ele>7.2</ele>
        <time>2022-05-24 21:21:35</time>
      </trkpt>
      <trkpt lat="40.65237" lon="0.75064">
        <ele>7.2</ele>
        <time>2022-05-24 21:21:36</time>
      </trkpt>
      <trkpt lat="40.65235" lon="0.75072">
        <ele>7.2</ele>
        <time>2022-05-24 21:21:37</time>
      </trkpt>
      <trkpt lat="40.65234" lon="0.75079">
        <ele>7.2</ele>
        <time>2022-05-24 21:21:38</time>
      </trkpt>
      <trkpt lat="40.65231" lon="0.75086">
        <ele>7.2</ele>
        <time>2022-05-24 21:21:39</time>
      </trkpt>
      <trkpt lat="40.65229" lon="0.75094">
        <ele>7.2</ele>
        <time>2022-05-24 21:21:40</time>
      </trkpt>
      <trkpt lat="40.65228" lon="0.75101">
        <ele>7.4</ele>
        <time>2022-05-24 21:21:41</time>
      </trkpt>
      <trkpt lat="40.65226" lon="0.75107">
        <ele>7.4</ele>
        <time>2022-05-24 21:21:42</time>
      </trkpt>
      <trkpt lat="40.65224" lon="0.75114">
        <ele>7.4</ele>
        <time>2022-05-24 21:21:43</time>
      </trkpt>
      <trkpt lat="40.65223" lon="0.75121">
        <ele>7.4</ele>
        <time>2022-05-24 21:21:44</time>
      </trkpt>
      <trkpt lat="40.65221" lon="0.75127">
        <ele>7.4</ele>
        <time>2022-05-24 21:21:45</time>
      </trkpt>
      <trkpt lat="40.65219" lon="0.75134">
        <ele>7.2</ele>
        <time>2022-05-24 21:21:46</time>
      </trkpt>
      <trkpt lat="40.65218" lon="0.7514">
        <ele>7.2</ele>
        <time>2022-05-24 21:21:47</time>
      </trkpt>
      <trkpt lat="40.65215" lon="0.75148">
        <ele>7</ele>
        <time>2022-05-24 21:21:48</time>
      </trkpt>
      <trkpt lat="40.65213" lon="0.75156">
        <ele>7</ele>
        <time>2022-05-24 21:21:49</time>
      </trkpt>
      <trkpt lat="40.65211" lon="0.75163">
        <ele>7</ele>
        <time>2022-05-24 21:21:50</time>
      </trkpt>
      <trkpt lat="40.6521" lon="0.7517">
        <ele>7</ele>
        <time>2022-05-24 21:21:51</time>
      </trkpt>
      <trkpt lat="40.65208" lon="0.75177">
        <ele>7</ele>
        <time>2022-05-24 21:21:52</time>
      </trkpt>
      <trkpt lat="40.65206" lon="0.75183">
        <ele>7.2</ele>
        <time>2022-05-24 21:21:53</time>
      </trkpt>
      <trkpt lat="40.65205" lon="0.7519">
        <ele>7.2</ele>
        <time>2022-05-24 21:21:54</time>
      </trkpt>
      <trkpt lat="40.65203" lon="0.75196">
        <ele>7.2</ele>
        <time>2022-05-24 21:21:55</time>
      </trkpt>
      <trkpt lat="40.65201" lon="0.75203">
        <ele>7.2</ele>
        <time>2022-05-24 21:21:56</time>
      </trkpt>
      <trkpt lat="40.652" lon="0.75209">
        <ele>7.2</ele>
        <time>2022-05-24 21:21:57</time>
      </trkpt>
      <trkpt lat="40.65198" lon="0.75216">
        <ele>7.2</ele>
        <time>2022-05-24 21:21:58</time>
      </trkpt>
      <trkpt lat="40.65197" lon="0.75222">
        <ele>7.4</ele>
        <time>2022-05-24 21:21:59</time>
      </trkpt>
      <trkpt lat="40.65195" lon="0.75228">
        <ele>7.4</ele>
        <time>2022-05-24 21:22:00</time>
      </trkpt>
      <trkpt lat="40.65193" lon="0.75235">
        <ele>7.4</ele>
        <time>2022-05-24 21:22:01</time>
      </trkpt>
      <trkpt lat="40.65191" lon="0.75242">
        <ele>7.2</ele>
        <time>2022-05-24 21:22:02</time>
      </trkpt>
      <trkpt lat="40.65189" lon="0.75248">
        <ele>7.2</ele>
        <time>2022-05-24 21:22:03</time>
      </trkpt>
      <trkpt lat="40.65188" lon="0.75255">
        <ele>7.2</ele>
        <time>2022-05-24 21:22:04</time>
      </trkpt>
      <trkpt lat="40.65186" lon="0.75262">
        <ele>7.4</ele>
        <time>2022-05-24 21:22:05</time>
      </trkpt>
      <trkpt lat="40.65184" lon="0.75269">
        <ele>7.4</ele>
        <time>2022-05-24 21:22:06</time>
      </trkpt>
      <trkpt lat="40.65183" lon="0.75275">
        <ele>7.4</ele>
        <time>2022-05-24 21:22:07</time>
      </trkpt>
      <trkpt lat="40.65181" lon="0.75282">
        <ele>7.4</ele>
        <time>2022-05-24 21:22:08</time>
      </trkpt>
      <trkpt lat="40.65179" lon="0.75289">
        <ele>7.4</ele>
        <time>2022-05-24 21:22:09</time>
      </trkpt>
      <trkpt lat="40.65178" lon="0.75295">
        <ele>7.6</ele>
        <time>2022-05-24 21:22:10</time>
      </trkpt>
      <trkpt lat="40.65176" lon="0.75302">
        <ele>7.6</ele>
        <time>2022-05-24 21:22:11</time>
      </trkpt>
      <trkpt lat="40.65174" lon="0.75308">
        <ele>7.6</ele>
        <time>2022-05-24 21:22:12</time>
      </trkpt>
      <trkpt lat="40.65173" lon="0.75315">
        <ele>7.6</ele>
        <time>2022-05-24 21:22:13</time>
      </trkpt>
      <trkpt lat="40.65171" lon="0.75322">
        <ele>7.6</ele>
        <time>2022-05-24 21:22:14</time>
      </trkpt>
      <trkpt lat="40.65169" lon="0.75329">
        <ele>7.4</ele>
        <time>2022-05-24 21:22:15</time>
      </trkpt>
      <trkpt lat="40.65167" lon="0.75336">
        <ele>7.4</ele>
        <time>2022-05-24 21:22:16</time>
      </trkpt>
      <trkpt lat="40.65165" lon="0.75342">
        <ele>7.4</ele>
        <time>2022-05-24 21:22:17</time>
      </trkpt>
      <trkpt lat="40.65164" lon="0.75349">
        <ele>7.4</ele>
        <time>2022-05-24 21:22:18</time>
      </trkpt>
      <trkpt lat="40.65162" lon="0.75356">
        <ele>7.2</ele>
        <time>2022-05-24 21:22:19</time>
      </trkpt>
      <trkpt lat="40.65161" lon="0.75362">
        <ele>7.2</ele>
        <time>2022-05-24 21:22:20</time>
      </trkpt>
      <trkpt lat="40.65159" lon="0.75368">
        <ele>7.2</ele>
        <time>2022-05-24 21:22:21</time>
      </trkpt>
      <trkpt lat="40.65158" lon="0.75375">
        <ele>7.2</ele>
        <time>2022-05-24 21:22:22</time>
      </trkpt>
      <trkpt lat="40.65156" lon="0.7538">
        <ele>7.2</ele>
        <time>2022-05-24 21:22:23</time>
      </trkpt>
      <trkpt lat="40.65154" lon="0.75388">
        <ele>7.2</ele>
        <time>2022-05-24 21:22:24</time>
      </trkpt>
      <trkpt lat="40.65153" lon="0.75394">
        <ele>7.2</ele>
        <time>2022-05-24 21:22:25</time>
      </trkpt>
      <trkpt lat="40.65151" lon="0.75401">
        <ele>7.2</ele>
        <time>2022-05-24 21:22:26</time>
      </trkpt>
      <trkpt lat="40.65149" lon="0.75407">
        <ele>7.4</ele>
        <time>2022-05-24 21:22:27</time>
      </trkpt>
      <trkpt lat="40.65148" lon="0.75412">
        <ele>7.6</ele>
        <time>2022-05-24 21:22:28</time>
      </trkpt>
      <trkpt lat="40.65147" lon="0.75418">
        <ele>7.8</ele>
        <time>2022-05-24 21:22:29</time>
      </trkpt>
      <trkpt lat="40.65147" lon="0.75422">
        <ele>8</ele>
        <time>2022-05-24 21:22:30</time>
      </trkpt>
      <trkpt lat="40.65145" lon="0.75426">
        <ele>8</ele>
        <time>2022-05-24 21:22:31</time>
      </trkpt>
      <trkpt lat="40.65144" lon="0.75431">
        <ele>7.8</ele>
        <time>2022-05-24 21:22:32</time>
      </trkpt>
      <trkpt lat="40.65143" lon="0.75437">
        <ele>7.8</ele>
        <time>2022-05-24 21:22:33</time>
      </trkpt>
      <trkpt lat="40.65141" lon="0.75444">
        <ele>7.6</ele>
        <time>2022-05-24 21:22:34</time>
      </trkpt>
      <trkpt lat="40.6514" lon="0.75451">
        <ele>7.4</ele>
        <time>2022-05-24 21:22:35</time>
      </trkpt>
      <trkpt lat="40.65139" lon="0.75458">
        <ele>7.4</ele>
        <time>2022-05-24 21:22:36</time>
      </trkpt>
      <trkpt lat="40.65137" lon="0.75465">
        <ele>7.4</ele>
        <time>2022-05-24 21:22:37</time>
      </trkpt>
      <trkpt lat="40.65135" lon="0.75472">
        <ele>7.2</ele>
        <time>2022-05-24 21:22:38</time>
      </trkpt>
      <trkpt lat="40.65133" lon="0.75479">
        <ele>7.2</ele>
        <time>2022-05-24 21:22:39</time>
      </trkpt>
      <trkpt lat="40.65131" lon="0.75486">
        <ele>7.2</ele>
        <time>2022-05-24 21:22:40</time>
      </trkpt>
      <trkpt lat="40.65129" lon="0.75493">
        <ele>7.2</ele>
        <time>2022-05-24 21:22:41</time>
      </trkpt>
      <trkpt lat="40.65127" lon="0.755">
        <ele>7.2</ele>
        <time>2022-05-24 21:22:42</time>
      </trkpt>
      <trkpt lat="40.65125" lon="0.75507">
        <ele>7.2</ele>
        <time>2022-05-24 21:22:43</time>
      </trkpt>
      <trkpt lat="40.65124" lon="0.75514">
        <ele>7.2</ele>
        <time>2022-05-24 21:22:44</time>
      </trkpt>
      <trkpt lat="40.65122" lon="0.75521">
        <ele>7.2</ele>
        <time>2022-05-24 21:22:45</time>
      </trkpt>
      <trkpt lat="40.6512" lon="0.75528">
        <ele>7.2</ele>
        <time>2022-05-24 21:22:46</time>
      </trkpt>
      <trkpt lat="40.65119" lon="0.75535">
        <ele>7.2</ele>
        <time>2022-05-24 21:22:47</time>
      </trkpt>
      <trkpt lat="40.65117" lon="0.75542">
        <ele>7.2</ele>
        <time>2022-05-24 21:22:48</time>
      </trkpt>
      <trkpt lat="40.65115" lon="0.75549">
        <ele>7.2</ele>
        <time>2022-05-24 21:22:49</time>
      </trkpt>
      <trkpt lat="40.65113" lon="0.75556">
        <ele>7.2</ele>
        <time>2022-05-24 21:22:50</time>
      </trkpt>
      <trkpt lat="40.65112" lon="0.75563">
        <ele>7.2</ele>
        <time>2022-05-24 21:22:51</time>
      </trkpt>
      <trkpt lat="40.6511" lon="0.7557">
        <ele>7.2</ele>
        <time>2022-05-24 21:22:52</time>
      </trkpt>
      <trkpt lat="40.65108" lon="0.75577">
        <ele>7.2</ele>
        <time>2022-05-24 21:22:53</time>
      </trkpt>
      <trkpt lat="40.65106" lon="0.75584">
        <ele>7.2</ele>
        <time>2022-05-24 21:22:54</time>
      </trkpt>
      <trkpt lat="40.65104" lon="0.75591">
        <ele>7.2</ele>
        <time>2022-05-24 21:22:55</time>
      </trkpt>
      <trkpt lat="40.65103" lon="0.75598">
        <ele>7.2</ele>
        <time>2022-05-24 21:22:56</time>
      </trkpt>
      <trkpt lat="40.65102" lon="0.75605">
        <ele>7.2</ele>
        <time>2022-05-24 21:22:57</time>
      </trkpt>
      <trkpt lat="40.65099" lon="0.75611">
        <ele>7</ele>
        <time>2022-05-24 21:22:58</time>
      </trkpt>
      <trkpt lat="40.65097" lon="0.75618">
        <ele>7</ele>
        <time>2022-05-24 21:22:59</time>
      </trkpt>
      <trkpt lat="40.65095" lon="0.75625">
        <ele>7</ele>
        <time>2022-05-24 21:23:00</time>
      </trkpt>
      <trkpt lat="40.65094" lon="0.75632">
        <ele>7</ele>
        <time>2022-05-24 21:23:01</time>
      </trkpt>
      <trkpt lat="40.65092" lon="0.75639">
        <ele>7</ele>
        <time>2022-05-24 21:23:02</time>
      </trkpt>
      <trkpt lat="40.6509" lon="0.75646">
        <ele>7</ele>
        <time>2022-05-24 21:23:03</time>
      </trkpt>
      <trkpt lat="40.65088" lon="0.75653">
        <ele>7</ele>
        <time>2022-05-24 21:23:04</time>
      </trkpt>
      <trkpt lat="40.65086" lon="0.7566">
        <ele>7</ele>
        <time>2022-05-24 21:23:05</time>
      </trkpt>
      <trkpt lat="40.65085" lon="0.75666">
        <ele>7</ele>
        <time>2022-05-24 21:23:06</time>
      </trkpt>
      <trkpt lat="40.65083" lon="0.75673">
        <ele>7</ele>
        <time>2022-05-24 21:23:07</time>
      </trkpt>
      <trkpt lat="40.65081" lon="0.7568">
        <ele>7</ele>
        <time>2022-05-24 21:23:08</time>
      </trkpt>
      <trkpt lat="40.65079" lon="0.75687">
        <ele>7</ele>
        <time>2022-05-24 21:23:09</time>
      </trkpt>
      <trkpt lat="40.65077" lon="0.75694">
        <ele>7</ele>
        <time>2022-05-24 21:23:10</time>
      </trkpt>
      <trkpt lat="40.65075" lon="0.75701">
        <ele>7</ele>
        <time>2022-05-24 21:23:11</time>
      </trkpt>
      <trkpt lat="40.65074" lon="0.75708">
        <ele>7</ele>
        <time>2022-05-24 21:23:12</time>
      </trkpt>
      <trkpt lat="40.65072" lon="0.75714">
        <ele>7</ele>
        <time>2022-05-24 21:23:13</time>
      </trkpt>
      <trkpt lat="40.6507" lon="0.75721">
        <ele>7.2</ele>
        <time>2022-05-24 21:23:14</time>
      </trkpt>
      <trkpt lat="40.65069" lon="0.75728">
        <ele>7.2</ele>
        <time>2022-05-24 21:23:15</time>
      </trkpt>
      <trkpt lat="40.65067" lon="0.75734">
        <ele>7.4</ele>
        <time>2022-05-24 21:23:16</time>
      </trkpt>
      <trkpt lat="40.65065" lon="0.7574">
        <ele>7.4</ele>
        <time>2022-05-24 21:23:17</time>
      </trkpt>
      <trkpt lat="40.65064" lon="0.75746">
        <ele>7.6</ele>
        <time>2022-05-24 21:23:18</time>
      </trkpt>
      <trkpt lat="40.65062" lon="0.75753">
        <ele>7.8</ele>
        <time>2022-05-24 21:23:19</time>
      </trkpt>
      <trkpt lat="40.65061" lon="0.75759">
        <ele>7.8</ele>
        <time>2022-05-24 21:23:20</time>
      </trkpt>
      <trkpt lat="40.65059" lon="0.75766">
        <ele>7.8</ele>
        <time>2022-05-24 21:23:21</time>
      </trkpt>
      <trkpt lat="40.65058" lon="0.75772">
        <ele>7.8</ele>
        <time>2022-05-24 21:23:22</time>
      </trkpt>
      <trkpt lat="40.65056" lon="0.75778">
        <ele>7.8</ele>
        <time>2022-05-24 21:23:23</time>
      </trkpt>
      <trkpt lat="40.65054" lon="0.75785">
        <ele>7.8</ele>
        <time>2022-05-24 21:23:24</time>
      </trkpt>
      <trkpt lat="40.65053" lon="0.75791">
        <ele>7.8</ele>
        <time>2022-05-24 21:23:25</time>
      </trkpt>
      <trkpt lat="40.65052" lon="0.75796">
        <ele>7.8</ele>
        <time>2022-05-24 21:23:26</time>
      </trkpt>
      <trkpt lat="40.6505" lon="0.75802">
        <ele>7.8</ele>
        <time>2022-05-24 21:23:27</time>
      </trkpt>
      <trkpt lat="40.65049" lon="0.75808">
        <ele>7.8</ele>
        <time>2022-05-24 21:23:28</time>
      </trkpt>
      <trkpt lat="40.65047" lon="0.75814">
        <ele>7.8</ele>
        <time>2022-05-24 21:23:29</time>
      </trkpt>
      <trkpt lat="40.65046" lon="0.75819">
        <ele>7.8</ele>
        <time>2022-05-24 21:23:30</time>
      </trkpt>
      <trkpt lat="40.65045" lon="0.75826">
        <ele>7.6</ele>
        <time>2022-05-24 21:23:31</time>
      </trkpt>
      <trkpt lat="40.65043" lon="0.75831">
        <ele>7.6</ele>
        <time>2022-05-24 21:23:32</time>
      </trkpt>
      <trkpt lat="40.65042" lon="0.75837">
        <ele>7.6</ele>
        <time>2022-05-24 21:23:33</time>
      </trkpt>
      <trkpt lat="40.65041" lon="0.75843">
        <ele>7.6</ele>
        <time>2022-05-24 21:23:34</time>
      </trkpt>
      <trkpt lat="40.65039" lon="0.75849">
        <ele>7.6</ele>
        <time>2022-05-24 21:23:35</time>
      </trkpt>
      <trkpt lat="40.65038" lon="0.75855">
        <ele>7.6</ele>
        <time>2022-05-24 21:23:36</time>
      </trkpt>
      <trkpt lat="40.65037" lon="0.7586">
        <ele>7.6</ele>
        <time>2022-05-24 21:23:37</time>
      </trkpt>
      <trkpt lat="40.65036" lon="0.75866">
        <ele>7.8</ele>
        <time>2022-05-24 21:23:38</time>
      </trkpt>
      <trkpt lat="40.65034" lon="0.75871">
        <ele>7.6</ele>
        <time>2022-05-24 21:23:39</time>
      </trkpt>
      <trkpt lat="40.65033" lon="0.75877">
        <ele>7.6</ele>
        <time>2022-05-24 21:23:40</time>
      </trkpt>
      <trkpt lat="40.65032" lon="0.75882">
        <ele>7.4</ele>
        <time>2022-05-24 21:23:41</time>
      </trkpt>
      <trkpt lat="40.6503" lon="0.75889">
        <ele>7.4</ele>
        <time>2022-05-24 21:23:42</time>
      </trkpt>
      <trkpt lat="40.65029" lon="0.75894">
        <ele>7.4</ele>
        <time>2022-05-24 21:23:43</time>
      </trkpt>
      <trkpt lat="40.65028" lon="0.759">
        <ele>7.2</ele>
        <time>2022-05-24 21:23:44</time>
      </trkpt>
      <trkpt lat="40.65026" lon="0.75906">
        <ele>7.2</ele>
        <time>2022-05-24 21:23:45</time>
      </trkpt>
      <trkpt lat="40.65025" lon="0.75912">
        <ele>7.2</ele>
        <time>2022-05-24 21:23:46</time>
      </trkpt>
      <trkpt lat="40.65025" lon="0.75917">
        <ele>7.2</ele>
        <time>2022-05-24 21:23:47</time>
      </trkpt>
      <trkpt lat="40.65023" lon="0.75923">
        <ele>7.2</ele>
        <time>2022-05-24 21:23:48</time>
      </trkpt>
      <trkpt lat="40.65022" lon="0.75928">
        <ele>7.2</ele>
        <time>2022-05-24 21:23:49</time>
      </trkpt>
      <trkpt lat="40.65021" lon="0.75934">
        <ele>7.2</ele>
        <time>2022-05-24 21:23:50</time>
      </trkpt>
      <trkpt lat="40.65019" lon="0.7594">
        <ele>7.2</ele>
        <time>2022-05-24 21:23:51</time>
      </trkpt>
      <trkpt lat="40.65018" lon="0.75945">
        <ele>7.2</ele>
        <time>2022-05-24 21:23:52</time>
      </trkpt>
      <trkpt lat="40.65017" lon="0.75951">
        <ele>7.2</ele>
        <time>2022-05-24 21:23:53</time>
      </trkpt>
      <trkpt lat="40.65015" lon="0.75957">
        <ele>7.2</ele>
        <time>2022-05-24 21:23:54</time>
      </trkpt>
      <trkpt lat="40.65014" lon="0.75962">
        <ele>7.2</ele>
        <time>2022-05-24 21:23:55</time>
      </trkpt>
      <trkpt lat="40.65013" lon="0.75968">
        <ele>7.2</ele>
        <time>2022-05-24 21:23:56</time>
      </trkpt>
      <trkpt lat="40.65012" lon="0.75973">
        <ele>7.2</ele>
        <time>2022-05-24 21:23:57</time>
      </trkpt>
      <trkpt lat="40.6501" lon="0.75979">
        <ele>7.4</ele>
        <time>2022-05-24 21:23:58</time>
      </trkpt>
      <trkpt lat="40.65009" lon="0.75984">
        <ele>7.4</ele>
        <time>2022-05-24 21:23:59</time>
      </trkpt>
      <trkpt lat="40.65008" lon="0.75989">
        <ele>7.6</ele>
        <time>2022-05-24 21:24:00</time>
      </trkpt>
      <trkpt lat="40.65007" lon="0.75995">
        <ele>7.6</ele>
        <time>2022-05-24 21:24:01</time>
      </trkpt>
      <trkpt lat="40.65005" lon="0.76001">
        <ele>7.4</ele>
        <time>2022-05-24 21:24:02</time>
      </trkpt>
      <trkpt lat="40.65004" lon="0.76007">
        <ele>7.4</ele>
        <time>2022-05-24 21:24:03</time>
      </trkpt>
      <trkpt lat="40.65003" lon="0.76012">
        <ele>7.4</ele>
        <time>2022-05-24 21:24:04</time>
      </trkpt>
      <trkpt lat="40.65002" lon="0.76017">
        <ele>7.2</ele>
        <time>2022-05-24 21:24:05</time>
      </trkpt>
      <trkpt lat="40.65001" lon="0.76023">
        <ele>7.2</ele>
        <time>2022-05-24 21:24:06</time>
      </trkpt>
      <trkpt lat="40.65" lon="0.76028">
        <ele>7.2</ele>
        <time>2022-05-24 21:24:07</time>
      </trkpt>
      <trkpt lat="40.64999" lon="0.76033">
        <ele>7.4</ele>
        <time>2022-05-24 21:24:08</time>
      </trkpt>
      <trkpt lat="40.64998" lon="0.76038">
        <ele>7.4</ele>
        <time>2022-05-24 21:24:09</time>
      </trkpt>
      <trkpt lat="40.64997" lon="0.76042">
        <ele>7.6</ele>
        <time>2022-05-24 21:24:10</time>
      </trkpt>
      <trkpt lat="40.64996" lon="0.76046">
        <ele>7.8</ele>
        <time>2022-05-24 21:24:11</time>
      </trkpt>
      <trkpt lat="40.64996" lon="0.7605">
        <ele>8</ele>
        <time>2022-05-24 21:24:12</time>
      </trkpt>
      <trkpt lat="40.64995" lon="0.76054">
        <ele>8</ele>
        <time>2022-05-24 21:24:13</time>
      </trkpt>
      <trkpt lat="40.64993" lon="0.76059">
        <ele>7.8</ele>
        <time>2022-05-24 21:24:14</time>
      </trkpt>
      <trkpt lat="40.6499" lon="0.76063">
        <ele>7.6</ele>
        <time>2022-05-24 21:24:15</time>
      </trkpt>
      <trkpt lat="40.64987" lon="0.76068">
        <ele>7.6</ele>
        <time>2022-05-24 21:24:16</time>
      </trkpt>
      <trkpt lat="40.64984" lon="0.76072">
        <ele>7.4</ele>
        <time>2022-05-24 21:24:17</time>
      </trkpt>
      <trkpt lat="40.64982" lon="0.76077">
        <ele>7.4</ele>
        <time>2022-05-24 21:24:18</time>
      </trkpt>
      <trkpt lat="40.6498" lon="0.76081">
        <ele>7.4</ele>
        <time>2022-05-24 21:24:19</time>
      </trkpt>
      <trkpt lat="40.64977" lon="0.76087">
        <ele>7.4</ele>
        <time>2022-05-24 21:24:20</time>
      </trkpt>
      <trkpt lat="40.64975" lon="0.76092">
        <ele>7.4</ele>
        <time>2022-05-24 21:24:21</time>
      </trkpt>
      <trkpt lat="40.64973" lon="0.76097">
        <ele>7.4</ele>
        <time>2022-05-24 21:24:22</time>
      </trkpt>
      <trkpt lat="40.64972" lon="0.76102">
        <ele>7.4</ele>
        <time>2022-05-24 21:24:23</time>
      </trkpt>
      <trkpt lat="40.6497" lon="0.76108">
        <ele>7.4</ele>
        <time>2022-05-24 21:24:24</time>
      </trkpt>
      <trkpt lat="40.64968" lon="0.76113">
        <ele>7.6</ele>
        <time>2022-05-24 21:24:25</time>
      </trkpt>
      <trkpt lat="40.64966" lon="0.76118">
        <ele>7.6</ele>
        <time>2022-05-24 21:24:26</time>
      </trkpt>
      <trkpt lat="40.64963" lon="0.76124">
        <ele>7.4</ele>
        <time>2022-05-24 21:24:27</time>
      </trkpt>
      <trkpt lat="40.64962" lon="0.7613">
        <ele>7.4</ele>
        <time>2022-05-24 21:24:28</time>
      </trkpt>
      <trkpt lat="40.6496" lon="0.76136">
        <ele>7.6</ele>
        <time>2022-05-24 21:24:29</time>
      </trkpt>
      <trkpt lat="40.64958" lon="0.76142">
        <ele>7.6</ele>
        <time>2022-05-24 21:24:30</time>
      </trkpt>
      <trkpt lat="40.64956" lon="0.76148">
        <ele>7.6</ele>
        <time>2022-05-24 21:24:31</time>
      </trkpt>
      <trkpt lat="40.64954" lon="0.76154">
        <ele>7.4</ele>
        <time>2022-05-24 21:24:32</time>
      </trkpt>
      <trkpt lat="40.64952" lon="0.7616">
        <ele>7.4</ele>
        <time>2022-05-24 21:24:33</time>
      </trkpt>
      <trkpt lat="40.6495" lon="0.76165">
        <ele>7.4</ele>
        <time>2022-05-24 21:24:34</time>
      </trkpt>
      <trkpt lat="40.64948" lon="0.76171">
        <ele>7.4</ele>
        <time>2022-05-24 21:24:35</time>
      </trkpt>
      <trkpt lat="40.64946" lon="0.76177">
        <ele>7.4</ele>
        <time>2022-05-24 21:24:36</time>
      </trkpt>
      <trkpt lat="40.64944" lon="0.76183">
        <ele>7.4</ele>
        <time>2022-05-24 21:24:37</time>
      </trkpt>
      <trkpt lat="40.64942" lon="0.76189">
        <ele>7.4</ele>
        <time>2022-05-24 21:24:38</time>
      </trkpt>
      <trkpt lat="40.64939" lon="0.76195">
        <ele>7.4</ele>
        <time>2022-05-24 21:24:39</time>
      </trkpt>
      <trkpt lat="40.64937" lon="0.762">
        <ele>7.4</ele>
        <time>2022-05-24 21:24:40</time>
      </trkpt>
      <trkpt lat="40.64935" lon="0.76206">
        <ele>7.4</ele>
        <time>2022-05-24 21:24:41</time>
      </trkpt>
      <trkpt lat="40.64932" lon="0.76212">
        <ele>7.2</ele>
        <time>2022-05-24 21:24:42</time>
      </trkpt>
      <trkpt lat="40.6493" lon="0.76218">
        <ele>7.2</ele>
        <time>2022-05-24 21:24:43</time>
      </trkpt>
      <trkpt lat="40.64928" lon="0.76225">
        <ele>7.2</ele>
        <time>2022-05-24 21:24:44</time>
      </trkpt>
      <trkpt lat="40.64925" lon="0.76231">
        <ele>7.2</ele>
        <time>2022-05-24 21:24:45</time>
      </trkpt>
      <trkpt lat="40.64923" lon="0.76237">
        <ele>7.2</ele>
        <time>2022-05-24 21:24:46</time>
      </trkpt>
      <trkpt lat="40.64921" lon="0.76244">
        <ele>7.2</ele>
        <time>2022-05-24 21:24:47</time>
      </trkpt>
      <trkpt lat="40.64918" lon="0.7625">
        <ele>7.2</ele>
        <time>2022-05-24 21:24:48</time>
      </trkpt>
      <trkpt lat="40.64916" lon="0.76256">
        <ele>7.2</ele>
        <time>2022-05-24 21:24:49</time>
      </trkpt>
      <trkpt lat="40.64913" lon="0.76262">
        <ele>7.2</ele>
        <time>2022-05-24 21:24:50</time>
      </trkpt>
      <trkpt lat="40.64911" lon="0.76269">
        <ele>7.2</ele>
        <time>2022-05-24 21:24:51</time>
      </trkpt>
      <trkpt lat="40.64908" lon="0.76275">
        <ele>7.2</ele>
        <time>2022-05-24 21:24:52</time>
      </trkpt>
      <trkpt lat="40.64905" lon="0.76281">
        <ele>7.2</ele>
        <time>2022-05-24 21:24:53</time>
      </trkpt>
      <trkpt lat="40.64902" lon="0.76287">
        <ele>7.2</ele>
        <time>2022-05-24 21:24:54</time>
      </trkpt>
      <trkpt lat="40.649" lon="0.76293">
        <ele>7.2</ele>
        <time>2022-05-24 21:24:55</time>
      </trkpt>
      <trkpt lat="40.64897" lon="0.76299">
        <ele>7.2</ele>
        <time>2022-05-24 21:24:56</time>
      </trkpt>
      <trkpt lat="40.64894" lon="0.76305">
        <ele>7.2</ele>
        <time>2022-05-24 21:24:57</time>
      </trkpt>
      <trkpt lat="40.64892" lon="0.76312">
        <ele>7.2</ele>
        <time>2022-05-24 21:24:58</time>
      </trkpt>
      <trkpt lat="40.6489" lon="0.76318">
        <ele>7.2</ele>
        <time>2022-05-24 21:24:59</time>
      </trkpt>
      <trkpt lat="40.64887" lon="0.76324">
        <ele>7.2</ele>
        <time>2022-05-24 21:25:00</time>
      </trkpt>
      <trkpt lat="40.64885" lon="0.76329">
        <ele>7.2</ele>
        <time>2022-05-24 21:25:01</time>
      </trkpt>
      <trkpt lat="40.64882" lon="0.76336">
        <ele>7.2</ele>
        <time>2022-05-24 21:25:02</time>
      </trkpt>
      <trkpt lat="40.64879" lon="0.76342">
        <ele>7.2</ele>
        <time>2022-05-24 21:25:03</time>
      </trkpt>
      <trkpt lat="40.64877" lon="0.76348">
        <ele>7.2</ele>
        <time>2022-05-24 21:25:04</time>
      </trkpt>
      <trkpt lat="40.64874" lon="0.76354">
        <ele>7.2</ele>
        <time>2022-05-24 21:25:05</time>
      </trkpt>
      <trkpt lat="40.64871" lon="0.76361">
        <ele>7.2</ele>
        <time>2022-05-24 21:25:06</time>
      </trkpt>
      <trkpt lat="40.64869" lon="0.76367">
        <ele>7.2</ele>
        <time>2022-05-24 21:25:07</time>
      </trkpt>
      <trkpt lat="40.64866" lon="0.76373">
        <ele>7.2</ele>
        <time>2022-05-24 21:25:08</time>
      </trkpt>
      <trkpt lat="40.64864" lon="0.76379">
        <ele>7.2</ele>
        <time>2022-05-24 21:25:09</time>
      </trkpt>
      <trkpt lat="40.64861" lon="0.76385">
        <ele>7.4</ele>
        <time>2022-05-24 21:25:10</time>
      </trkpt>
      <trkpt lat="40.64859" lon="0.76391">
        <ele>7.4</ele>
        <time>2022-05-24 21:25:11</time>
      </trkpt>
      <trkpt lat="40.64855" lon="0.76396">
        <ele>7.4</ele>
        <time>2022-05-24 21:25:12</time>
      </trkpt>
      <trkpt lat="40.64851" lon="0.76401">
        <ele>7.4</ele>
        <time>2022-05-24 21:25:13</time>
      </trkpt>
      <trkpt lat="40.64848" lon="0.76406">
        <ele>7.2</ele>
        <time>2022-05-24 21:25:14</time>
      </trkpt>
      <trkpt lat="40.64844" lon="0.7641">
        <ele>7.4</ele>
        <time>2022-05-24 21:25:15</time>
      </trkpt>
      <trkpt lat="40.6484" lon="0.76415">
        <ele>7.4</ele>
        <time>2022-05-24 21:25:16</time>
      </trkpt>
      <trkpt lat="40.64838" lon="0.76418">
        <ele>7.4</ele>
        <time>2022-05-24 21:25:17</time>
      </trkpt>
      <trkpt lat="40.64836" lon="0.76419">
        <ele>7.4</ele>
        <time>2022-05-24 21:25:18</time>
      </trkpt>
      <trkpt lat="40.64835" lon="0.76419">
        <ele>7.6</ele>
        <time>2022-05-24 21:25:19</time>
      </trkpt>
      <trkpt lat="40.64833" lon="0.76419">
        <ele>7.6</ele>
        <time>2022-05-24 21:25:20</time>
      </trkpt>
      <trkpt lat="40.64832" lon="0.7642">
        <ele>7.6</ele>
        <time>2022-05-24 21:25:21</time>
      </trkpt>
      <trkpt lat="40.64831" lon="0.76421">
        <ele>7.6</ele>
        <time>2022-05-24 21:25:22</time>
      </trkpt>
      <trkpt lat="40.64829" lon="0.7642">
        <ele>7.6</ele>
        <time>2022-05-24 21:25:23</time>
      </trkpt>
      <trkpt lat="40.64828" lon="0.76419">
        <ele>7.6</ele>
        <time>2022-05-24 21:25:24</time>
      </trkpt>
      <trkpt lat="40.64827" lon="0.76418">
        <ele>7.6</ele>
        <time>2022-05-24 21:25:25</time>
      </trkpt>
      <trkpt lat="40.64828" lon="0.76417">
        <ele>7.6</ele>
        <time>2022-05-24 21:25:26</time>
      </trkpt>
      <trkpt lat="40.64828" lon="0.76416">
        <ele>7.6</ele>
        <time>2022-05-24 21:25:27</time>
      </trkpt>
      <trkpt lat="40.64834" lon="0.76415">
        <ele>7.6</ele>
        <time>2022-05-24 21:25:33</time>
      </trkpt>
      <trkpt lat="40.64835" lon="0.76416">
        <ele>7.6</ele>
        <time>2022-05-24 21:25:34</time>
      </trkpt>
      <trkpt lat="40.64836" lon="0.76419">
        <ele>7.6</ele>
        <time>2022-05-24 21:25:35</time>
      </trkpt>
      <trkpt lat="40.64836" lon="0.76422">
        <ele>7.4</ele>
        <time>2022-05-24 21:25:36</time>
      </trkpt>
      <trkpt lat="40.64837" lon="0.76425">
        <ele>7.4</ele>
        <time>2022-05-24 21:25:37</time>
      </trkpt>
      <trkpt lat="40.64838" lon="0.76429">
        <ele>7.4</ele>
        <time>2022-05-24 21:25:38</time>
      </trkpt>
      <trkpt lat="40.64838" lon="0.76433">
        <ele>7.4</ele>
        <time>2022-05-24 21:25:39</time>
      </trkpt>
      <trkpt lat="40.64838" lon="0.76438">
        <ele>7.4</ele>
        <time>2022-05-24 21:25:40</time>
      </trkpt>
      <trkpt lat="40.64837" lon="0.76442">
        <ele>7.2</ele>
        <time>2022-05-24 21:25:41</time>
      </trkpt>
      <trkpt lat="40.64837" lon="0.76447">
        <ele>7.2</ele>
        <time>2022-05-24 21:25:42</time>
      </trkpt>
      <trkpt lat="40.64838" lon="0.76451">
        <ele>7.2</ele>
        <time>2022-05-24 21:25:43</time>
      </trkpt>
      <trkpt lat="40.64837" lon="0.76455">
        <ele>7.2</ele>
        <time>2022-05-24 21:25:44</time>
      </trkpt>
      <trkpt lat="40.64837" lon="0.7646">
        <ele>7.2</ele>
        <time>2022-05-24 21:25:45</time>
      </trkpt>
      <trkpt lat="40.64836" lon="0.76465">
        <ele>7.2</ele>
        <time>2022-05-24 21:25:46</time>
      </trkpt>
      <trkpt lat="40.64836" lon="0.7647">
        <ele>7.2</ele>
        <time>2022-05-24 21:25:47</time>
      </trkpt>
      <trkpt lat="40.64835" lon="0.76474">
        <ele>7.2</ele>
        <time>2022-05-24 21:25:48</time>
      </trkpt>
      <trkpt lat="40.64834" lon="0.76478">
        <ele>7.2</ele>
        <time>2022-05-24 21:25:49</time>
      </trkpt>
      <trkpt lat="40.64833" lon="0.76483">
        <ele>7.4</ele>
        <time>2022-05-24 21:25:50</time>
      </trkpt>
      <trkpt lat="40.64833" lon="0.76486">
        <ele>7.4</ele>
        <time>2022-05-24 21:25:51</time>
      </trkpt>
      <trkpt lat="40.64833" lon="0.76491">
        <ele>7.2</ele>
        <time>2022-05-24 21:25:52</time>
      </trkpt>
      <trkpt lat="40.64833" lon="0.76495">
        <ele>7.2</ele>
        <time>2022-05-24 21:25:53</time>
      </trkpt>
      <trkpt lat="40.64833" lon="0.765">
        <ele>7.2</ele>
        <time>2022-05-24 21:25:54</time>
      </trkpt>
      <trkpt lat="40.64832" lon="0.76503">
        <ele>7.2</ele>
        <time>2022-05-24 21:25:55</time>
      </trkpt>
      <trkpt lat="40.64831" lon="0.76508">
        <ele>7.2</ele>
        <time>2022-05-24 21:25:56</time>
      </trkpt>
      <trkpt lat="40.6483" lon="0.76513">
        <ele>7.2</ele>
        <time>2022-05-24 21:25:57</time>
      </trkpt>
      <trkpt lat="40.6483" lon="0.76517">
        <ele>7.2</ele>
        <time>2022-05-24 21:25:58</time>
      </trkpt>
      <trkpt lat="40.6483" lon="0.76521">
        <ele>7.2</ele>
        <time>2022-05-24 21:25:59</time>
      </trkpt>
      <trkpt lat="40.6483" lon="0.76525">
        <ele>7.2</ele>
        <time>2022-05-24 21:26:00</time>
      </trkpt>
      <trkpt lat="40.6483" lon="0.7653">
        <ele>7.2</ele>
        <time>2022-05-24 21:26:01</time>
      </trkpt>
      <trkpt lat="40.64831" lon="0.76535">
        <ele>7</ele>
        <time>2022-05-24 21:26:02</time>
      </trkpt>
      <trkpt lat="40.64831" lon="0.76539">
        <ele>7.2</ele>
        <time>2022-05-24 21:26:03</time>
      </trkpt>
      <trkpt lat="40.6483" lon="0.76543">
        <ele>7.2</ele>
        <time>2022-05-24 21:26:04</time>
      </trkpt>
      <trkpt lat="40.6483" lon="0.76547">
        <ele>7.2</ele>
        <time>2022-05-24 21:26:05</time>
      </trkpt>
      <trkpt lat="40.6483" lon="0.76551">
        <ele>7.2</ele>
        <time>2022-05-24 21:26:06</time>
      </trkpt>
      <trkpt lat="40.6483" lon="0.76555">
        <ele>7.2</ele>
        <time>2022-05-24 21:26:07</time>
      </trkpt>
      <trkpt lat="40.6483" lon="0.76559">
        <ele>7.2</ele>
        <time>2022-05-24 21:26:08</time>
      </trkpt>
      <trkpt lat="40.6483" lon="0.76563">
        <ele>7.2</ele>
        <time>2022-05-24 21:26:09</time>
      </trkpt>
      <trkpt lat="40.6483" lon="0.76566">
        <ele>7.2</ele>
        <time>2022-05-24 21:26:10</time>
      </trkpt>
      <trkpt lat="40.6483" lon="0.76569">
        <ele>7.2</ele>
        <time>2022-05-24 21:26:11</time>
      </trkpt>
      <trkpt lat="40.6483" lon="0.76572">
        <ele>7.2</ele>
        <time>2022-05-24 21:26:12</time>
      </trkpt>
      <trkpt lat="40.64829" lon="0.76575">
        <ele>7.2</ele>
        <time>2022-05-24 21:26:13</time>
      </trkpt>
      <trkpt lat="40.64829" lon="0.76579">
        <ele>7.2</ele>
        <time>2022-05-24 21:26:14</time>
      </trkpt>
      <trkpt lat="40.6483" lon="0.76582">
        <ele>7.2</ele>
        <time>2022-05-24 21:26:15</time>
      </trkpt>
      <trkpt lat="40.6483" lon="0.76586">
        <ele>7.2</ele>
        <time>2022-05-24 21:26:16</time>
      </trkpt>
      <trkpt lat="40.6483" lon="0.7659">
        <ele>7.2</ele>
        <time>2022-05-24 21:26:17</time>
      </trkpt>
      <trkpt lat="40.6483" lon="0.76594">
        <ele>7.2</ele>
        <time>2022-05-24 21:26:18</time>
      </trkpt>
      <trkpt lat="40.6483" lon="0.76597">
        <ele>7.2</ele>
        <time>2022-05-24 21:26:19</time>
      </trkpt>
      <trkpt lat="40.64829" lon="0.76602">
        <ele>7.2</ele>
        <time>2022-05-24 21:26:20</time>
      </trkpt>
      <trkpt lat="40.64828" lon="0.76606">
        <ele>7.2</ele>
        <time>2022-05-24 21:26:21</time>
      </trkpt>
      <trkpt lat="40.64828" lon="0.7661">
        <ele>7.2</ele>
        <time>2022-05-24 21:26:22</time>
      </trkpt>
      <trkpt lat="40.64828" lon="0.76614">
        <ele>7.2</ele>
        <time>2022-05-24 21:26:23</time>
      </trkpt>
      <trkpt lat="40.64828" lon="0.76619">
        <ele>7.2</ele>
        <time>2022-05-24 21:26:24</time>
      </trkpt>
      <trkpt lat="40.64828" lon="0.76623">
        <ele>7.2</ele>
        <time>2022-05-24 21:26:25</time>
      </trkpt>
      <trkpt lat="40.64828" lon="0.76627">
        <ele>7.2</ele>
        <time>2022-05-24 21:26:26</time>
      </trkpt>
      <trkpt lat="40.64827" lon="0.76631">
        <ele>7.2</ele>
        <time>2022-05-24 21:26:27</time>
      </trkpt>
      <trkpt lat="40.64827" lon="0.76636">
        <ele>7.2</ele>
        <time>2022-05-24 21:26:28</time>
      </trkpt>
      <trkpt lat="40.64827" lon="0.7664">
        <ele>7.2</ele>
        <time>2022-05-24 21:26:29</time>
      </trkpt>
      <trkpt lat="40.64826" lon="0.76644">
        <ele>7.2</ele>
        <time>2022-05-24 21:26:30</time>
      </trkpt>
      <trkpt lat="40.64826" lon="0.76648">
        <ele>7.2</ele>
        <time>2022-05-24 21:26:31</time>
      </trkpt>
      <trkpt lat="40.64826" lon="0.76652">
        <ele>7.2</ele>
        <time>2022-05-24 21:26:32</time>
      </trkpt>
      <trkpt lat="40.64827" lon="0.76657">
        <ele>7.2</ele>
        <time>2022-05-24 21:26:33</time>
      </trkpt>
      <trkpt lat="40.64827" lon="0.76661">
        <ele>7.2</ele>
        <time>2022-05-24 21:26:34</time>
      </trkpt>
      <trkpt lat="40.64827" lon="0.76665">
        <ele>7.2</ele>
        <time>2022-05-24 21:26:35</time>
      </trkpt>
      <trkpt lat="40.64828" lon="0.76668">
        <ele>7.2</ele>
        <time>2022-05-24 21:26:36</time>
      </trkpt>
      <trkpt lat="40.64828" lon="0.76671">
        <ele>7.2</ele>
        <time>2022-05-24 21:26:37</time>
      </trkpt>
      <trkpt lat="40.64828" lon="0.76675">
        <ele>7.2</ele>
        <time>2022-05-24 21:26:38</time>
      </trkpt>
      <trkpt lat="40.64828" lon="0.76678">
        <ele>7.2</ele>
        <time>2022-05-24 21:26:39</time>
      </trkpt>
      <trkpt lat="40.64829" lon="0.76681">
        <ele>7.2</ele>
        <time>2022-05-24 21:26:40</time>
      </trkpt>
      <trkpt lat="40.64828" lon="0.76684">
        <ele>7.2</ele>
        <time>2022-05-24 21:26:41</time>
      </trkpt>
      <trkpt lat="40.64828" lon="0.76687">
        <ele>7.2</ele>
        <time>2022-05-24 21:26:42</time>
      </trkpt>
      <trkpt lat="40.64828" lon="0.7669">
        <ele>7.4</ele>
        <time>2022-05-24 21:26:43</time>
      </trkpt>
      <trkpt lat="40.64828" lon="0.76693">
        <ele>7.4</ele>
        <time>2022-05-24 21:26:44</time>
      </trkpt>
      <trkpt lat="40.64828" lon="0.76695">
        <ele>7.4</ele>
        <time>2022-05-24 21:26:45</time>
      </trkpt>
      <trkpt lat="40.64828" lon="0.76698">
        <ele>7.4</ele>
        <time>2022-05-24 21:26:46</time>
      </trkpt>
      <trkpt lat="40.64828" lon="0.767">
        <ele>7.2</ele>
        <time>2022-05-24 21:26:47</time>
      </trkpt>
      <trkpt lat="40.64828" lon="0.76702">
        <ele>7.2</ele>
        <time>2022-05-24 21:26:48</time>
      </trkpt>
      <trkpt lat="40.64828" lon="0.76704">
        <ele>7.2</ele>
        <time>2022-05-24 21:26:49</time>
      </trkpt>
      <trkpt lat="40.64828" lon="0.76705">
        <ele>7.2</ele>
        <time>2022-05-24 21:26:50</time>
      </trkpt>
      <trkpt lat="40.64828" lon="0.76697">
        <ele>7.2</ele>
        <time>2022-05-24 21:27:29</time>
      </trkpt>
      <trkpt lat="40.64829" lon="0.76695">
        <ele>7.2</ele>
        <time>2022-05-24 21:27:30</time>
      </trkpt>
      <trkpt lat="40.6483" lon="0.76692">
        <ele>7.2</ele>
        <time>2022-05-24 21:27:31</time>
      </trkpt>
      <trkpt lat="40.6483" lon="0.7669">
        <ele>7.4</ele>
        <time>2022-05-24 21:27:32</time>
      </trkpt>
      <trkpt lat="40.6483" lon="0.76687">
        <ele>7.4</ele>
        <time>2022-05-24 21:27:33</time>
      </trkpt>
      <trkpt lat="40.6483" lon="0.76683">
        <ele>7.4</ele>
        <time>2022-05-24 21:27:34</time>
      </trkpt>
      <trkpt lat="40.64829" lon="0.7668">
        <ele>7.4</ele>
        <time>2022-05-24 21:27:35</time>
      </trkpt>
      <trkpt lat="40.64829" lon="0.76676">
        <ele>7.6</ele>
        <time>2022-05-24 21:27:36</time>
      </trkpt>
      <trkpt lat="40.64829" lon="0.76673">
        <ele>7.6</ele>
        <time>2022-05-24 21:27:37</time>
      </trkpt>
      <trkpt lat="40.64828" lon="0.7667">
        <ele>7.6</ele>
        <time>2022-05-24 21:27:38</time>
      </trkpt>
      <trkpt lat="40.64829" lon="0.76667">
        <ele>7.8</ele>
        <time>2022-05-24 21:27:39</time>
      </trkpt>
      <trkpt lat="40.64829" lon="0.76664">
        <ele>7.8</ele>
        <time>2022-05-24 21:27:40</time>
      </trkpt>
      <trkpt lat="40.64829" lon="0.76662">
        <ele>7.8</ele>
        <time>2022-05-24 21:27:41</time>
      </trkpt>
      <trkpt lat="40.6483" lon="0.7666">
        <ele>7.8</ele>
        <time>2022-05-24 21:27:42</time>
      </trkpt>
      <trkpt lat="40.6483" lon="0.76657">
        <ele>7.8</ele>
        <time>2022-05-24 21:27:43</time>
      </trkpt>
      <trkpt lat="40.64829" lon="0.76654">
        <ele>7.8</ele>
        <time>2022-05-24 21:27:44</time>
      </trkpt>
      <trkpt lat="40.64828" lon="0.76652">
        <ele>7.8</ele>
        <time>2022-05-24 21:27:45</time>
      </trkpt>
      <trkpt lat="40.64828" lon="0.76649">
        <ele>7.8</ele>
        <time>2022-05-24 21:27:46</time>
      </trkpt>
      <trkpt lat="40.64827" lon="0.76646">
        <ele>7.8</ele>
        <time>2022-05-24 21:27:47</time>
      </trkpt>
      <trkpt lat="40.64827" lon="0.76643">
        <ele>7.8</ele>
        <time>2022-05-24 21:27:48</time>
      </trkpt>
      <trkpt lat="40.64827" lon="0.76639">
        <ele>7.8</ele>
        <time>2022-05-24 21:27:49</time>
      </trkpt>
      <trkpt lat="40.64828" lon="0.76636">
        <ele>7.8</ele>
        <time>2022-05-24 21:27:50</time>
      </trkpt>
      <trkpt lat="40.64828" lon="0.76633">
        <ele>7.8</ele>
        <time>2022-05-24 21:27:51</time>
      </trkpt>
      <trkpt lat="40.64829" lon="0.7663">
        <ele>7.8</ele>
        <time>2022-05-24 21:27:52</time>
      </trkpt>
      <trkpt lat="40.64829" lon="0.76627">
        <ele>7.8</ele>
        <time>2022-05-24 21:27:53</time>
      </trkpt>
      <trkpt lat="40.64829" lon="0.76625">
        <ele>7.8</ele>
        <time>2022-05-24 21:27:54</time>
      </trkpt>
      <trkpt lat="40.6483" lon="0.76622">
        <ele>7.8</ele>
        <time>2022-05-24 21:27:55</time>
      </trkpt>
      <trkpt lat="40.6483" lon="0.76619">
        <ele>7.8</ele>
        <time>2022-05-24 21:27:56</time>
      </trkpt>
      <trkpt lat="40.6483" lon="0.76616">
        <ele>7.8</ele>
        <time>2022-05-24 21:27:57</time>
      </trkpt>
      <trkpt lat="40.6483" lon="0.76612">
        <ele>7.8</ele>
        <time>2022-05-24 21:27:58</time>
      </trkpt>
      <trkpt lat="40.6483" lon="0.76609">
        <ele>7.8</ele>
        <time>2022-05-24 21:27:59</time>
      </trkpt>
      <trkpt lat="40.6483" lon="0.76605">
        <ele>7.8</ele>
        <time>2022-05-24 21:28:00</time>
      </trkpt>
      <trkpt lat="40.64831" lon="0.76601">
        <ele>7.8</ele>
        <time>2022-05-24 21:28:01</time>
      </trkpt>
      <trkpt lat="40.64831" lon="0.76598">
        <ele>7.8</ele>
        <time>2022-05-24 21:28:02</time>
      </trkpt>
      <trkpt lat="40.64832" lon="0.76594">
        <ele>7.6</ele>
        <time>2022-05-24 21:28:03</time>
      </trkpt>
      <trkpt lat="40.64832" lon="0.7659">
        <ele>7.6</ele>
        <time>2022-05-24 21:28:04</time>
      </trkpt>
      <trkpt lat="40.64832" lon="0.76587">
        <ele>7.6</ele>
        <time>2022-05-24 21:28:05</time>
      </trkpt>
      <trkpt lat="40.64832" lon="0.76584">
        <ele>7.6</ele>
        <time>2022-05-24 21:28:06</time>
      </trkpt>
      <trkpt lat="40.64831" lon="0.7658">
        <ele>7.8</ele>
        <time>2022-05-24 21:28:07</time>
      </trkpt>
      <trkpt lat="40.64832" lon="0.76577">
        <ele>7.6</ele>
        <time>2022-05-24 21:28:08</time>
      </trkpt>
      <trkpt lat="40.64832" lon="0.76574">
        <ele>7.6</ele>
        <time>2022-05-24 21:28:09</time>
      </trkpt>
      <trkpt lat="40.64833" lon="0.7657">
        <ele>7.6</ele>
        <time>2022-05-24 21:28:10</time>
      </trkpt>
      <trkpt lat="40.64833" lon="0.76567">
        <ele>7.8</ele>
        <time>2022-05-24 21:28:11</time>
      </trkpt>
      <trkpt lat="40.64833" lon="0.76564">
        <ele>7.8</ele>
        <time>2022-05-24 21:28:12</time>
      </trkpt>
      <trkpt lat="40.64834" lon="0.7656">
        <ele>7.8</ele>
        <time>2022-05-24 21:28:13</time>
      </trkpt>
      <trkpt lat="40.64834" lon="0.76557">
        <ele>7.8</ele>
        <time>2022-05-24 21:28:14</time>
      </trkpt>
      <trkpt lat="40.64835" lon="0.76553">
        <ele>7.8</ele>
        <time>2022-05-24 21:28:15</time>
      </trkpt>
      <trkpt lat="40.64835" lon="0.7655">
        <ele>7.8</ele>
        <time>2022-05-24 21:28:16</time>
      </trkpt>
      <trkpt lat="40.64835" lon="0.76545">
        <ele>7.8</ele>
        <time>2022-05-24 21:28:17</time>
      </trkpt>
      <trkpt lat="40.64835" lon="0.7654">
        <ele>7.8</ele>
        <time>2022-05-24 21:28:18</time>
      </trkpt>
      <trkpt lat="40.64835" lon="0.76535">
        <ele>7.8</ele>
        <time>2022-05-24 21:28:19</time>
      </trkpt>
      <trkpt lat="40.64836" lon="0.76531">
        <ele>7.8</ele>
        <time>2022-05-24 21:28:20</time>
      </trkpt>
      <trkpt lat="40.64835" lon="0.76525">
        <ele>7.6</ele>
        <time>2022-05-24 21:28:21</time>
      </trkpt>
      <trkpt lat="40.64835" lon="0.7652">
        <ele>7.6</ele>
        <time>2022-05-24 21:28:22</time>
      </trkpt>
      <trkpt lat="40.64836" lon="0.76515">
        <ele>7.6</ele>
        <time>2022-05-24 21:28:23</time>
      </trkpt>
      <trkpt lat="40.64836" lon="0.76511">
        <ele>7.6</ele>
        <time>2022-05-24 21:28:24</time>
      </trkpt>
      <trkpt lat="40.64836" lon="0.76506">
        <ele>7.6</ele>
        <time>2022-05-24 21:28:25</time>
      </trkpt>
      <trkpt lat="40.64836" lon="0.76502">
        <ele>7.6</ele>
        <time>2022-05-24 21:28:26</time>
      </trkpt>
      <trkpt lat="40.64836" lon="0.76498">
        <ele>7.6</ele>
        <time>2022-05-24 21:28:27</time>
      </trkpt>
      <trkpt lat="40.64835" lon="0.76494">
        <ele>7.6</ele>
        <time>2022-05-24 21:28:28</time>
      </trkpt>
      <trkpt lat="40.64834" lon="0.7649">
        <ele>7.8</ele>
        <time>2022-05-24 21:28:29</time>
      </trkpt>
      <trkpt lat="40.64833" lon="0.76487">
        <ele>7.8</ele>
        <time>2022-05-24 21:28:30</time>
      </trkpt>
      <trkpt lat="40.64833" lon="0.76483">
        <ele>7.8</ele>
        <time>2022-05-24 21:28:31</time>
      </trkpt>
      <trkpt lat="40.64834" lon="0.76479">
        <ele>7.8</ele>
        <time>2022-05-24 21:28:32</time>
      </trkpt>
      <trkpt lat="40.64835" lon="0.76474">
        <ele>7.6</ele>
        <time>2022-05-24 21:28:33</time>
      </trkpt>
      <trkpt lat="40.64836" lon="0.7647">
        <ele>7.6</ele>
        <time>2022-05-24 21:28:34</time>
      </trkpt>
      <trkpt lat="40.64836" lon="0.76465">
        <ele>7.8</ele>
        <time>2022-05-24 21:28:35</time>
      </trkpt>
      <trkpt lat="40.64837" lon="0.76462">
        <ele>7.8</ele>
        <time>2022-05-24 21:28:36</time>
      </trkpt>
      <trkpt lat="40.64838" lon="0.76458">
        <ele>7.8</ele>
        <time>2022-05-24 21:28:37</time>
      </trkpt>
      <trkpt lat="40.64838" lon="0.76454">
        <ele>7.8</ele>
        <time>2022-05-24 21:28:38</time>
      </trkpt>
      <trkpt lat="40.64839" lon="0.7645">
        <ele>7.8</ele>
        <time>2022-05-24 21:28:39</time>
      </trkpt>
      <trkpt lat="40.64839" lon="0.76447">
        <ele>7.8</ele>
        <time>2022-05-24 21:28:40</time>
      </trkpt>
      <trkpt lat="40.64839" lon="0.76444">
        <ele>7.8</ele>
        <time>2022-05-24 21:28:41</time>
      </trkpt>
      <trkpt lat="40.64838" lon="0.76443">
        <ele>7.8</ele>
        <time>2022-05-24 21:28:42</time>
      </trkpt>
      <trkpt lat="40.64837" lon="0.76442">
        <ele>7.8</ele>
        <time>2022-05-24 21:28:43</time>
      </trkpt>
      <trkpt lat="40.64836" lon="0.7644">
        <ele>7.8</ele>
        <time>2022-05-24 21:28:44</time>
      </trkpt>
      <trkpt lat="40.64837" lon="0.76439">
        <ele>7.8</ele>
        <time>2022-05-24 21:28:45</time>
      </trkpt>
      <trkpt lat="40.64838" lon="0.76439">
        <ele>7.8</ele>
        <time>2022-05-24 21:28:46</time>
      </trkpt>
      <trkpt lat="40.64839" lon="0.7644">
        <ele>7.8</ele>
        <time>2022-05-24 21:28:47</time>
      </trkpt>
      <trkpt lat="40.64839" lon="0.76441">
        <ele>7.8</ele>
        <time>2022-05-24 21:28:48</time>
      </trkpt>
      <trkpt lat="40.64839" lon="0.76442">
        <ele>7.8</ele>
        <time>2022-05-24 21:28:49</time>
      </trkpt>
      <trkpt lat="40.64839" lon="0.76444">
        <ele>7.8</ele>
        <time>2022-05-24 21:28:50</time>
      </trkpt>
      <trkpt lat="40.64839" lon="0.76446">
        <ele>7.8</ele>
        <time>2022-05-24 21:28:51</time>
      </trkpt>
      <trkpt lat="40.64839" lon="0.76447">
        <ele>7.8</ele>
        <time>2022-05-24 21:28:52</time>
      </trkpt>
      <trkpt lat="40.64839" lon="0.76449">
        <ele>7.8</ele>
        <time>2022-05-24 21:28:53</time>
      </trkpt>
      <trkpt lat="40.64839" lon="0.76443">
        <ele>7.6</ele>
        <time>2022-05-24 21:29:07</time>
      </trkpt>
      <trkpt lat="40.64839" lon="0.76441">
        <ele>7.6</ele>
        <time>2022-05-24 21:29:08</time>
      </trkpt>
      <trkpt lat="40.64838" lon="0.76438">
        <ele>7.6</ele>
        <time>2022-05-24 21:29:09</time>
      </trkpt>
      <trkpt lat="40.64838" lon="0.76435">
        <ele>7.6</ele>
        <time>2022-05-24 21:29:10</time>
      </trkpt>
      <trkpt lat="40.64838" lon="0.76431">
        <ele>7.6</ele>
        <time>2022-05-24 21:29:11</time>
      </trkpt>
      <trkpt lat="40.64838" lon="0.76427">
        <ele>7.6</ele>
        <time>2022-05-24 21:29:12</time>
      </trkpt>
      <trkpt lat="40.64838" lon="0.76424">
        <ele>7.6</ele>
        <time>2022-05-24 21:29:13</time>
      </trkpt>
      <trkpt lat="40.6484" lon="0.76421">
        <ele>7.6</ele>
        <time>2022-05-24 21:29:14</time>
      </trkpt>
      <trkpt lat="40.64841" lon="0.76418">
        <ele>7.6</ele>
        <time>2022-05-24 21:29:15</time>
      </trkpt>
      <trkpt lat="40.64843" lon="0.76416">
        <ele>7.4</ele>
        <time>2022-05-24 21:29:16</time>
      </trkpt>
      <trkpt lat="40.64846" lon="0.76414">
        <ele>7.4</ele>
        <time>2022-05-24 21:29:17</time>
      </trkpt>
      <trkpt lat="40.64847" lon="0.76411">
        <ele>7.2</ele>
        <time>2022-05-24 21:29:18</time>
      </trkpt>
      <trkpt lat="40.6485" lon="0.76408">
        <ele>7.2</ele>
        <time>2022-05-24 21:29:19</time>
      </trkpt>
      <trkpt lat="40.64853" lon="0.76405">
        <ele>7.2</ele>
        <time>2022-05-24 21:29:20</time>
      </trkpt>
      <trkpt lat="40.64856" lon="0.764">
        <ele>7.2</ele>
        <time>2022-05-24 21:29:21</time>
      </trkpt>
      <trkpt lat="40.64858" lon="0.76396">
        <ele>7.2</ele>
        <time>2022-05-24 21:29:22</time>
      </trkpt>
      <trkpt lat="40.64861" lon="0.76391">
        <ele>7.2</ele>
        <time>2022-05-24 21:29:23</time>
      </trkpt>
      <trkpt lat="40.64862" lon="0.76387">
        <ele>7.4</ele>
        <time>2022-05-24 21:29:24</time>
      </trkpt>
      <trkpt lat="40.64864" lon="0.76383">
        <ele>7.4</ele>
        <time>2022-05-24 21:29:25</time>
      </trkpt>
      <trkpt lat="40.64866" lon="0.76379">
        <ele>7.4</ele>
        <time>2022-05-24 21:29:26</time>
      </trkpt>
      <trkpt lat="40.64868" lon="0.76374">
        <ele>7.4</ele>
        <time>2022-05-24 21:29:27</time>
      </trkpt>
      <trkpt lat="40.64869" lon="0.7637">
        <ele>7.4</ele>
        <time>2022-05-24 21:29:28</time>
      </trkpt>
      <trkpt lat="40.64872" lon="0.76365">
        <ele>7.4</ele>
        <time>2022-05-24 21:29:29</time>
      </trkpt>
      <trkpt lat="40.64874" lon="0.7636">
        <ele>7.4</ele>
        <time>2022-05-24 21:29:30</time>
      </trkpt>
      <trkpt lat="40.64876" lon="0.76356">
        <ele>7.4</ele>
        <time>2022-05-24 21:29:31</time>
      </trkpt>
      <trkpt lat="40.64878" lon="0.76351">
        <ele>7.4</ele>
        <time>2022-05-24 21:29:32</time>
      </trkpt>
      <trkpt lat="40.6488" lon="0.76346">
        <ele>7.4</ele>
        <time>2022-05-24 21:29:33</time>
      </trkpt>
      <trkpt lat="40.64882" lon="0.76342">
        <ele>7.4</ele>
        <time>2022-05-24 21:29:34</time>
      </trkpt>
      <trkpt lat="40.64885" lon="0.76338">
        <ele>7.4</ele>
        <time>2022-05-24 21:29:35</time>
      </trkpt>
      <trkpt lat="40.64886" lon="0.76334">
        <ele>7.4</ele>
        <time>2022-05-24 21:29:36</time>
      </trkpt>
      <trkpt lat="40.64888" lon="0.7633">
        <ele>7.4</ele>
        <time>2022-05-24 21:29:37</time>
      </trkpt>
      <trkpt lat="40.6489" lon="0.76325">
        <ele>7.4</ele>
        <time>2022-05-24 21:29:38</time>
      </trkpt>
      <trkpt lat="40.64891" lon="0.76321">
        <ele>7.4</ele>
        <time>2022-05-24 21:29:39</time>
      </trkpt>
      <trkpt lat="40.64893" lon="0.76317">
        <ele>7.4</ele>
        <time>2022-05-24 21:29:40</time>
      </trkpt>
      <trkpt lat="40.64894" lon="0.76312">
        <ele>7.4</ele>
        <time>2022-05-24 21:29:41</time>
      </trkpt>
      <trkpt lat="40.64897" lon="0.76308">
        <ele>7.4</ele>
        <time>2022-05-24 21:29:42</time>
      </trkpt>
      <trkpt lat="40.64899" lon="0.76303">
        <ele>7.4</ele>
        <time>2022-05-24 21:29:43</time>
      </trkpt>
      <trkpt lat="40.64901" lon="0.76299">
        <ele>7.4</ele>
        <time>2022-05-24 21:29:44</time>
      </trkpt>
      <trkpt lat="40.64902" lon="0.76294">
        <ele>7.4</ele>
        <time>2022-05-24 21:29:45</time>
      </trkpt>
      <trkpt lat="40.64904" lon="0.7629">
        <ele>7.4</ele>
        <time>2022-05-24 21:29:46</time>
      </trkpt>
      <trkpt lat="40.64906" lon="0.76285">
        <ele>7.4</ele>
        <time>2022-05-24 21:29:47</time>
      </trkpt>
      <trkpt lat="40.64908" lon="0.76281">
        <ele>7.4</ele>
        <time>2022-05-24 21:29:48</time>
      </trkpt>
      <trkpt lat="40.6491" lon="0.76276">
        <ele>7.4</ele>
        <time>2022-05-24 21:29:49</time>
      </trkpt>
      <trkpt lat="40.64912" lon="0.76271">
        <ele>7.4</ele>
        <time>2022-05-24 21:29:50</time>
      </trkpt>
      <trkpt lat="40.64914" lon="0.76265">
        <ele>7.4</ele>
        <time>2022-05-24 21:29:51</time>
      </trkpt>
      <trkpt lat="40.64916" lon="0.7626">
        <ele>7.4</ele>
        <time>2022-05-24 21:29:52</time>
      </trkpt>
      <trkpt lat="40.64918" lon="0.76255">
        <ele>7.2</ele>
        <time>2022-05-24 21:29:53</time>
      </trkpt>
      <trkpt lat="40.64919" lon="0.7625">
        <ele>7.4</ele>
        <time>2022-05-24 21:29:54</time>
      </trkpt>
      <trkpt lat="40.64921" lon="0.76245">
        <ele>7.4</ele>
        <time>2022-05-24 21:29:55</time>
      </trkpt>
      <trkpt lat="40.64922" lon="0.76241">
        <ele>7.4</ele>
        <time>2022-05-24 21:29:56</time>
      </trkpt>
      <trkpt lat="40.64925" lon="0.76236">
        <ele>7.4</ele>
        <time>2022-05-24 21:29:57</time>
      </trkpt>
      <trkpt lat="40.64927" lon="0.76232">
        <ele>7.4</ele>
        <time>2022-05-24 21:29:58</time>
      </trkpt>
      <trkpt lat="40.64928" lon="0.76228">
        <ele>7.4</ele>
        <time>2022-05-24 21:29:59</time>
      </trkpt>
      <trkpt lat="40.64929" lon="0.76224">
        <ele>7.4</ele>
        <time>2022-05-24 21:30:00</time>
      </trkpt>
      <trkpt lat="40.64931" lon="0.76219">
        <ele>7.4</ele>
        <time>2022-05-24 21:30:01</time>
      </trkpt>
      <trkpt lat="40.64933" lon="0.76215">
        <ele>7.4</ele>
        <time>2022-05-24 21:30:02</time>
      </trkpt>
      <trkpt lat="40.64934" lon="0.76211">
        <ele>7.4</ele>
        <time>2022-05-24 21:30:03</time>
      </trkpt>
      <trkpt lat="40.64936" lon="0.76207">
        <ele>7.6</ele>
        <time>2022-05-24 21:30:04</time>
      </trkpt>
      <trkpt lat="40.64938" lon="0.76202">
        <ele>7.6</ele>
        <time>2022-05-24 21:30:05</time>
      </trkpt>
      <trkpt lat="40.64939" lon="0.76198">
        <ele>7.4</ele>
        <time>2022-05-24 21:30:06</time>
      </trkpt>
      <trkpt lat="40.64941" lon="0.76194">
        <ele>7.4</ele>
        <time>2022-05-24 21:30:07</time>
      </trkpt>
      <trkpt lat="40.64943" lon="0.7619">
        <ele>7.4</ele>
        <time>2022-05-24 21:30:08</time>
      </trkpt>
      <trkpt lat="40.64945" lon="0.76185">
        <ele>7.4</ele>
        <time>2022-05-24 21:30:09</time>
      </trkpt>
      <trkpt lat="40.64946" lon="0.7618">
        <ele>7.4</ele>
        <time>2022-05-24 21:30:10</time>
      </trkpt>
      <trkpt lat="40.64947" lon="0.76175">
        <ele>7.4</ele>
        <time>2022-05-24 21:30:11</time>
      </trkpt>
      <trkpt lat="40.64949" lon="0.76172">
        <ele>7.4</ele>
        <time>2022-05-24 21:30:12</time>
      </trkpt>
      <trkpt lat="40.64951" lon="0.76166">
        <ele>7.4</ele>
        <time>2022-05-24 21:30:13</time>
      </trkpt>
      <trkpt lat="40.64952" lon="0.76162">
        <ele>7.4</ele>
        <time>2022-05-24 21:30:14</time>
      </trkpt>
      <trkpt lat="40.64954" lon="0.76157">
        <ele>7.4</ele>
        <time>2022-05-24 21:30:15</time>
      </trkpt>
      <trkpt lat="40.64955" lon="0.76152">
        <ele>7.4</ele>
        <time>2022-05-24 21:30:16</time>
      </trkpt>
      <trkpt lat="40.64957" lon="0.76148">
        <ele>7.6</ele>
        <time>2022-05-24 21:30:17</time>
      </trkpt>
      <trkpt lat="40.64959" lon="0.76144">
        <ele>7.6</ele>
        <time>2022-05-24 21:30:18</time>
      </trkpt>
      <trkpt lat="40.6496" lon="0.76139">
        <ele>7.6</ele>
        <time>2022-05-24 21:30:19</time>
      </trkpt>
      <trkpt lat="40.64962" lon="0.76135">
        <ele>7.6</ele>
        <time>2022-05-24 21:30:20</time>
      </trkpt>
      <trkpt lat="40.64964" lon="0.7613">
        <ele>7.6</ele>
        <time>2022-05-24 21:30:21</time>
      </trkpt>
      <trkpt lat="40.64965" lon="0.76126">
        <ele>7.6</ele>
        <time>2022-05-24 21:30:22</time>
      </trkpt>
      <trkpt lat="40.64967" lon="0.76121">
        <ele>7.6</ele>
        <time>2022-05-24 21:30:23</time>
      </trkpt>
      <trkpt lat="40.64968" lon="0.76117">
        <ele>7.6</ele>
        <time>2022-05-24 21:30:24</time>
      </trkpt>
      <trkpt lat="40.6497" lon="0.76112">
        <ele>7.6</ele>
        <time>2022-05-24 21:30:25</time>
      </trkpt>
      <trkpt lat="40.64971" lon="0.76108">
        <ele>7.6</ele>
        <time>2022-05-24 21:30:26</time>
      </trkpt>
      <trkpt lat="40.64973" lon="0.76103">
        <ele>7.6</ele>
        <time>2022-05-24 21:30:27</time>
      </trkpt>
      <trkpt lat="40.64974" lon="0.76098">
        <ele>7.6</ele>
        <time>2022-05-24 21:30:28</time>
      </trkpt>
      <trkpt lat="40.64976" lon="0.76094">
        <ele>7.4</ele>
        <time>2022-05-24 21:30:29</time>
      </trkpt>
      <trkpt lat="40.64978" lon="0.7609">
        <ele>7.4</ele>
        <time>2022-05-24 21:30:30</time>
      </trkpt>
      <trkpt lat="40.6498" lon="0.76086">
        <ele>7.4</ele>
        <time>2022-05-24 21:30:31</time>
      </trkpt>
      <trkpt lat="40.64982" lon="0.76083">
        <ele>7.4</ele>
        <time>2022-05-24 21:30:32</time>
      </trkpt>
      <trkpt lat="40.64986" lon="0.7608">
        <ele>7.2</ele>
        <time>2022-05-24 21:30:33</time>
      </trkpt>
      <trkpt lat="40.64989" lon="0.76079">
        <ele>7</ele>
        <time>2022-05-24 21:30:34</time>
      </trkpt>
      <trkpt lat="40.64993" lon="0.76081">
        <ele>7</ele>
        <time>2022-05-24 21:30:35</time>
      </trkpt>
      <trkpt lat="40.64996" lon="0.76085">
        <ele>7</ele>
        <time>2022-05-24 21:30:36</time>
      </trkpt>
      <trkpt lat="40.64998" lon="0.76089">
        <ele>7</ele>
        <time>2022-05-24 21:30:37</time>
      </trkpt>
      <trkpt lat="40.65001" lon="0.76092">
        <ele>7</ele>
        <time>2022-05-24 21:30:38</time>
      </trkpt>
      <trkpt lat="40.65004" lon="0.76097">
        <ele>6.8</ele>
        <time>2022-05-24 21:30:39</time>
      </trkpt>
      <trkpt lat="40.65007" lon="0.76101">
        <ele>6.8</ele>
        <time>2022-05-24 21:30:40</time>
      </trkpt>
      <trkpt lat="40.6501" lon="0.76105">
        <ele>6.8</ele>
        <time>2022-05-24 21:30:41</time>
      </trkpt>
      <trkpt lat="40.65012" lon="0.76109">
        <ele>6.8</ele>
        <time>2022-05-24 21:30:42</time>
      </trkpt>
      <trkpt lat="40.65015" lon="0.76113">
        <ele>6.8</ele>
        <time>2022-05-24 21:30:43</time>
      </trkpt>
      <trkpt lat="40.65018" lon="0.76118">
        <ele>6.8</ele>
        <time>2022-05-24 21:30:44</time>
      </trkpt>
      <trkpt lat="40.6502" lon="0.76122">
        <ele>6.8</ele>
        <time>2022-05-24 21:30:45</time>
      </trkpt>
      <trkpt lat="40.65023" lon="0.76126">
        <ele>6.8</ele>
        <time>2022-05-24 21:30:46</time>
      </trkpt>
      <trkpt lat="40.65026" lon="0.76131">
        <ele>6.6</ele>
        <time>2022-05-24 21:30:47</time>
      </trkpt>
      <trkpt lat="40.65029" lon="0.76136">
        <ele>6.6</ele>
        <time>2022-05-24 21:30:48</time>
      </trkpt>
      <trkpt lat="40.65031" lon="0.7614">
        <ele>6.6</ele>
        <time>2022-05-24 21:30:49</time>
      </trkpt>
      <trkpt lat="40.65034" lon="0.76145">
        <ele>6.6</ele>
        <time>2022-05-24 21:30:50</time>
      </trkpt>
      <trkpt lat="40.65037" lon="0.76149">
        <ele>6.6</ele>
        <time>2022-05-24 21:30:51</time>
      </trkpt>
      <trkpt lat="40.6504" lon="0.76154">
        <ele>6.6</ele>
        <time>2022-05-24 21:30:52</time>
      </trkpt>
      <trkpt lat="40.65042" lon="0.76159">
        <ele>6.6</ele>
        <time>2022-05-24 21:30:53</time>
      </trkpt>
      <trkpt lat="40.65045" lon="0.76163">
        <ele>6.6</ele>
        <time>2022-05-24 21:30:54</time>
      </trkpt>
      <trkpt lat="40.65047" lon="0.76168">
        <ele>6.6</ele>
        <time>2022-05-24 21:30:55</time>
      </trkpt>
      <trkpt lat="40.6505" lon="0.76173">
        <ele>6.6</ele>
        <time>2022-05-24 21:30:56</time>
      </trkpt>
      <trkpt lat="40.65053" lon="0.76178">
        <ele>6.6</ele>
        <time>2022-05-24 21:30:57</time>
      </trkpt>
      <trkpt lat="40.65055" lon="0.76183">
        <ele>6.8</ele>
        <time>2022-05-24 21:30:58</time>
      </trkpt>
      <trkpt lat="40.65057" lon="0.76188">
        <ele>6.8</ele>
        <time>2022-05-24 21:30:59</time>
      </trkpt>
      <trkpt lat="40.6506" lon="0.76194">
        <ele>6.8</ele>
        <time>2022-05-24 21:31:00</time>
      </trkpt>
      <trkpt lat="40.65062" lon="0.76199">
        <ele>6.8</ele>
        <time>2022-05-24 21:31:01</time>
      </trkpt>
      <trkpt lat="40.65065" lon="0.76205">
        <ele>6.8</ele>
        <time>2022-05-24 21:31:02</time>
      </trkpt>
      <trkpt lat="40.65067" lon="0.7621">
        <ele>6.8</ele>
        <time>2022-05-24 21:31:03</time>
      </trkpt>
      <trkpt lat="40.6507" lon="0.76216">
        <ele>6.8</ele>
        <time>2022-05-24 21:31:04</time>
      </trkpt>
      <trkpt lat="40.65072" lon="0.76221">
        <ele>6.8</ele>
        <time>2022-05-24 21:31:05</time>
      </trkpt>
      <trkpt lat="40.65075" lon="0.76226">
        <ele>6.8</ele>
        <time>2022-05-24 21:31:06</time>
      </trkpt>
      <trkpt lat="40.65078" lon="0.76232">
        <ele>6.8</ele>
        <time>2022-05-24 21:31:07</time>
      </trkpt>
      <trkpt lat="40.65081" lon="0.76237">
        <ele>6.8</ele>
        <time>2022-05-24 21:31:08</time>
      </trkpt>
      <trkpt lat="40.65083" lon="0.76242">
        <ele>6.8</ele>
        <time>2022-05-24 21:31:09</time>
      </trkpt>
      <trkpt lat="40.65086" lon="0.76248">
        <ele>6.8</ele>
        <time>2022-05-24 21:31:10</time>
      </trkpt>
      <trkpt lat="40.65088" lon="0.76253">
        <ele>6.6</ele>
        <time>2022-05-24 21:31:11</time>
      </trkpt>
      <trkpt lat="40.65091" lon="0.76258">
        <ele>6.6</ele>
        <time>2022-05-24 21:31:12</time>
      </trkpt>
      <trkpt lat="40.65093" lon="0.76264">
        <ele>6.6</ele>
        <time>2022-05-24 21:31:13</time>
      </trkpt>
      <trkpt lat="40.65096" lon="0.76269">
        <ele>6.6</ele>
        <time>2022-05-24 21:31:14</time>
      </trkpt>
      <trkpt lat="40.65097" lon="0.76274">
        <ele>6.6</ele>
        <time>2022-05-24 21:31:15</time>
      </trkpt>
      <trkpt lat="40.651" lon="0.7628">
        <ele>6.6</ele>
        <time>2022-05-24 21:31:16</time>
      </trkpt>
      <trkpt lat="40.65103" lon="0.76285">
        <ele>6.6</ele>
        <time>2022-05-24 21:31:17</time>
      </trkpt>
      <trkpt lat="40.65105" lon="0.7629">
        <ele>6.6</ele>
        <time>2022-05-24 21:31:18</time>
      </trkpt>
      <trkpt lat="40.65108" lon="0.76296">
        <ele>6.6</ele>
        <time>2022-05-24 21:31:19</time>
      </trkpt>
      <trkpt lat="40.6511" lon="0.76301">
        <ele>6.6</ele>
        <time>2022-05-24 21:31:20</time>
      </trkpt>
      <trkpt lat="40.65112" lon="0.76306">
        <ele>6.6</ele>
        <time>2022-05-24 21:31:21</time>
      </trkpt>
      <trkpt lat="40.65114" lon="0.76311">
        <ele>6.6</ele>
        <time>2022-05-24 21:31:22</time>
      </trkpt>
      <trkpt lat="40.65117" lon="0.76316">
        <ele>6.6</ele>
        <time>2022-05-24 21:31:23</time>
      </trkpt>
      <trkpt lat="40.6512" lon="0.76321">
        <ele>6.6</ele>
        <time>2022-05-24 21:31:24</time>
      </trkpt>
      <trkpt lat="40.65122" lon="0.76327">
        <ele>6.6</ele>
        <time>2022-05-24 21:31:25</time>
      </trkpt>
      <trkpt lat="40.65124" lon="0.76332">
        <ele>6.8</ele>
        <time>2022-05-24 21:31:26</time>
      </trkpt>
      <trkpt lat="40.65126" lon="0.76337">
        <ele>6.8</ele>
        <time>2022-05-24 21:31:27</time>
      </trkpt>
      <trkpt lat="40.65128" lon="0.76343">
        <ele>6.8</ele>
        <time>2022-05-24 21:31:28</time>
      </trkpt>
      <trkpt lat="40.6513" lon="0.76348">
        <ele>6.6</ele>
        <time>2022-05-24 21:31:29</time>
      </trkpt>
      <trkpt lat="40.65132" lon="0.76353">
        <ele>6.6</ele>
        <time>2022-05-24 21:31:30</time>
      </trkpt>
      <trkpt lat="40.65135" lon="0.76359">
        <ele>6.6</ele>
        <time>2022-05-24 21:31:31</time>
      </trkpt>
      <trkpt lat="40.65137" lon="0.76365">
        <ele>6.6</ele>
        <time>2022-05-24 21:31:32</time>
      </trkpt>
      <trkpt lat="40.6514" lon="0.7637">
        <ele>6.6</ele>
        <time>2022-05-24 21:31:33</time>
      </trkpt>
      <trkpt lat="40.65142" lon="0.76376">
        <ele>6.6</ele>
        <time>2022-05-24 21:31:34</time>
      </trkpt>
      <trkpt lat="40.65144" lon="0.76381">
        <ele>6.4</ele>
        <time>2022-05-24 21:31:35</time>
      </trkpt>
      <trkpt lat="40.65147" lon="0.76386">
        <ele>6.4</ele>
        <time>2022-05-24 21:31:36</time>
      </trkpt>
      <trkpt lat="40.65149" lon="0.76391">
        <ele>6.4</ele>
        <time>2022-05-24 21:31:37</time>
      </trkpt>
      <trkpt lat="40.65152" lon="0.76396">
        <ele>6.6</ele>
        <time>2022-05-24 21:31:38</time>
      </trkpt>
      <trkpt lat="40.65154" lon="0.76402">
        <ele>6.4</ele>
        <time>2022-05-24 21:31:39</time>
      </trkpt>
      <trkpt lat="40.65157" lon="0.76407">
        <ele>6.4</ele>
        <time>2022-05-24 21:31:40</time>
      </trkpt>
      <trkpt lat="40.65159" lon="0.76412">
        <ele>6.4</ele>
        <time>2022-05-24 21:31:41</time>
      </trkpt>
      <trkpt lat="40.65162" lon="0.76417">
        <ele>6.4</ele>
        <time>2022-05-24 21:31:42</time>
      </trkpt>
      <trkpt lat="40.65163" lon="0.76422">
        <ele>6.4</ele>
        <time>2022-05-24 21:31:43</time>
      </trkpt>
      <trkpt lat="40.65166" lon="0.76427">
        <ele>6.6</ele>
        <time>2022-05-24 21:31:44</time>
      </trkpt>
      <trkpt lat="40.65168" lon="0.76433">
        <ele>6.6</ele>
        <time>2022-05-24 21:31:45</time>
      </trkpt>
      <trkpt lat="40.6517" lon="0.76438">
        <ele>6.6</ele>
        <time>2022-05-24 21:31:46</time>
      </trkpt>
      <trkpt lat="40.65172" lon="0.76443">
        <ele>6.6</ele>
        <time>2022-05-24 21:31:47</time>
      </trkpt>
      <trkpt lat="40.65175" lon="0.76448">
        <ele>6.6</ele>
        <time>2022-05-24 21:31:48</time>
      </trkpt>
      <trkpt lat="40.65178" lon="0.76453">
        <ele>6.6</ele>
        <time>2022-05-24 21:31:49</time>
      </trkpt>
      <trkpt lat="40.6518" lon="0.76458">
        <ele>6.6</ele>
        <time>2022-05-24 21:31:50</time>
      </trkpt>
      <trkpt lat="40.65182" lon="0.76463">
        <ele>6.6</ele>
        <time>2022-05-24 21:31:51</time>
      </trkpt>
      <trkpt lat="40.65185" lon="0.76469">
        <ele>6.6</ele>
        <time>2022-05-24 21:31:52</time>
      </trkpt>
      <trkpt lat="40.65187" lon="0.76474">
        <ele>6.8</ele>
        <time>2022-05-24 21:31:53</time>
      </trkpt>
      <trkpt lat="40.65189" lon="0.7648">
        <ele>6.8</ele>
        <time>2022-05-24 21:31:54</time>
      </trkpt>
      <trkpt lat="40.65192" lon="0.76485">
        <ele>6.8</ele>
        <time>2022-05-24 21:31:55</time>
      </trkpt>
      <trkpt lat="40.65194" lon="0.7649">
        <ele>6.8</ele>
        <time>2022-05-24 21:31:56</time>
      </trkpt>
      <trkpt lat="40.65196" lon="0.76496">
        <ele>6.8</ele>
        <time>2022-05-24 21:31:57</time>
      </trkpt>
      <trkpt lat="40.65199" lon="0.76501">
        <ele>6.8</ele>
        <time>2022-05-24 21:31:58</time>
      </trkpt>
      <trkpt lat="40.65201" lon="0.76506">
        <ele>7</ele>
        <time>2022-05-24 21:31:59</time>
      </trkpt>
      <trkpt lat="40.65203" lon="0.76511">
        <ele>6.8</ele>
        <time>2022-05-24 21:32:00</time>
      </trkpt>
      <trkpt lat="40.65205" lon="0.76516">
        <ele>6.8</ele>
        <time>2022-05-24 21:32:01</time>
      </trkpt>
      <trkpt lat="40.65208" lon="0.76521">
        <ele>6.8</ele>
        <time>2022-05-24 21:32:02</time>
      </trkpt>
      <trkpt lat="40.6521" lon="0.76526">
        <ele>6.8</ele>
        <time>2022-05-24 21:32:03</time>
      </trkpt>
      <trkpt lat="40.65212" lon="0.76531">
        <ele>6.8</ele>
        <time>2022-05-24 21:32:04</time>
      </trkpt>
      <trkpt lat="40.65215" lon="0.76537">
        <ele>6.6</ele>
        <time>2022-05-24 21:32:05</time>
      </trkpt>
      <trkpt lat="40.65217" lon="0.76542">
        <ele>6.6</ele>
        <time>2022-05-24 21:32:06</time>
      </trkpt>
      <trkpt lat="40.6522" lon="0.76548">
        <ele>6.6</ele>
        <time>2022-05-24 21:32:07</time>
      </trkpt>
      <trkpt lat="40.65222" lon="0.76553">
        <ele>6.6</ele>
        <time>2022-05-24 21:32:08</time>
      </trkpt>
      <trkpt lat="40.65225" lon="0.76559">
        <ele>6.6</ele>
        <time>2022-05-24 21:32:09</time>
      </trkpt>
      <trkpt lat="40.65227" lon="0.76565">
        <ele>6.6</ele>
        <time>2022-05-24 21:32:10</time>
      </trkpt>
      <trkpt lat="40.6523" lon="0.76571">
        <ele>6.6</ele>
        <time>2022-05-24 21:32:11</time>
      </trkpt>
      <trkpt lat="40.65232" lon="0.76576">
        <ele>6.6</ele>
        <time>2022-05-24 21:32:12</time>
      </trkpt>
      <trkpt lat="40.65234" lon="0.76582">
        <ele>6.6</ele>
        <time>2022-05-24 21:32:13</time>
      </trkpt>
      <trkpt lat="40.65237" lon="0.76587">
        <ele>6.6</ele>
        <time>2022-05-24 21:32:14</time>
      </trkpt>
      <trkpt lat="40.65239" lon="0.76592">
        <ele>6.6</ele>
        <time>2022-05-24 21:32:15</time>
      </trkpt>
      <trkpt lat="40.65241" lon="0.76598">
        <ele>6.4</ele>
        <time>2022-05-24 21:32:16</time>
      </trkpt>
      <trkpt lat="40.65244" lon="0.76603">
        <ele>6.4</ele>
        <time>2022-05-24 21:32:17</time>
      </trkpt>
      <trkpt lat="40.65247" lon="0.76609">
        <ele>6.4</ele>
        <time>2022-05-24 21:32:18</time>
      </trkpt>
      <trkpt lat="40.65249" lon="0.76614">
        <ele>6.4</ele>
        <time>2022-05-24 21:32:19</time>
      </trkpt>
      <trkpt lat="40.65251" lon="0.76619">
        <ele>6.4</ele>
        <time>2022-05-24 21:32:20</time>
      </trkpt>
      <trkpt lat="40.65253" lon="0.76625">
        <ele>6.6</ele>
        <time>2022-05-24 21:32:21</time>
      </trkpt>
      <trkpt lat="40.65255" lon="0.7663">
        <ele>6.6</ele>
        <time>2022-05-24 21:32:22</time>
      </trkpt>
      <trkpt lat="40.65258" lon="0.76636">
        <ele>6.6</ele>
        <time>2022-05-24 21:32:23</time>
      </trkpt>
      <trkpt lat="40.6526" lon="0.76642">
        <ele>6.6</ele>
        <time>2022-05-24 21:32:24</time>
      </trkpt>
      <trkpt lat="40.65263" lon="0.76648">
        <ele>6.6</ele>
        <time>2022-05-24 21:32:25</time>
      </trkpt>
      <trkpt lat="40.65265" lon="0.76654">
        <ele>6.6</ele>
        <time>2022-05-24 21:32:26</time>
      </trkpt>
      <trkpt lat="40.65268" lon="0.76659">
        <ele>6.6</ele>
        <time>2022-05-24 21:32:27</time>
      </trkpt>
      <trkpt lat="40.6527" lon="0.76664">
        <ele>6.8</ele>
        <time>2022-05-24 21:32:28</time>
      </trkpt>
      <trkpt lat="40.65273" lon="0.76669">
        <ele>6.8</ele>
        <time>2022-05-24 21:32:29</time>
      </trkpt>
      <trkpt lat="40.65275" lon="0.76674">
        <ele>6.8</ele>
        <time>2022-05-24 21:32:30</time>
      </trkpt>
      <trkpt lat="40.65277" lon="0.76679">
        <ele>7</ele>
        <time>2022-05-24 21:32:31</time>
      </trkpt>
      <trkpt lat="40.6528" lon="0.76684">
        <ele>7</ele>
        <time>2022-05-24 21:32:32</time>
      </trkpt>
      <trkpt lat="40.65282" lon="0.76689">
        <ele>7</ele>
        <time>2022-05-24 21:32:33</time>
      </trkpt>
      <trkpt lat="40.65284" lon="0.76694">
        <ele>7</ele>
        <time>2022-05-24 21:32:34</time>
      </trkpt>
      <trkpt lat="40.65287" lon="0.76698">
        <ele>7.2</ele>
        <time>2022-05-24 21:32:35</time>
      </trkpt>
      <trkpt lat="40.65289" lon="0.76703">
        <ele>7.2</ele>
        <time>2022-05-24 21:32:36</time>
      </trkpt>
      <trkpt lat="40.6529" lon="0.76708">
        <ele>7</ele>
        <time>2022-05-24 21:32:37</time>
      </trkpt>
      <trkpt lat="40.65293" lon="0.76714">
        <ele>7</ele>
        <time>2022-05-24 21:32:38</time>
      </trkpt>
      <trkpt lat="40.65295" lon="0.76719">
        <ele>7.2</ele>
        <time>2022-05-24 21:32:39</time>
      </trkpt>
      <trkpt lat="40.65297" lon="0.76724">
        <ele>7.2</ele>
        <time>2022-05-24 21:32:40</time>
      </trkpt>
      <trkpt lat="40.653" lon="0.76729">
        <ele>7.2</ele>
        <time>2022-05-24 21:32:41</time>
      </trkpt>
      <trkpt lat="40.65302" lon="0.76733">
        <ele>7.2</ele>
        <time>2022-05-24 21:32:42</time>
      </trkpt>
      <trkpt lat="40.65304" lon="0.76738">
        <ele>7.4</ele>
        <time>2022-05-24 21:32:43</time>
      </trkpt>
      <trkpt lat="40.65306" lon="0.76743">
        <ele>7.4</ele>
        <time>2022-05-24 21:32:44</time>
      </trkpt>
      <trkpt lat="40.65308" lon="0.76746">
        <ele>7.4</ele>
        <time>2022-05-24 21:32:45</time>
      </trkpt>
      <trkpt lat="40.65311" lon="0.76753">
        <ele>7.4</ele>
        <time>2022-05-24 21:32:46</time>
      </trkpt>
      <trkpt lat="40.65314" lon="0.76758">
        <ele>7.4</ele>
        <time>2022-05-24 21:32:47</time>
      </trkpt>
      <trkpt lat="40.65316" lon="0.76763">
        <ele>7.4</ele>
        <time>2022-05-24 21:32:48</time>
      </trkpt>
      <trkpt lat="40.65318" lon="0.76768">
        <ele>7.4</ele>
        <time>2022-05-24 21:32:49</time>
      </trkpt>
      <trkpt lat="40.65321" lon="0.76772">
        <ele>7.4</ele>
        <time>2022-05-24 21:32:50</time>
      </trkpt>
      <trkpt lat="40.65323" lon="0.76778">
        <ele>7.4</ele>
        <time>2022-05-24 21:32:51</time>
      </trkpt>
      <trkpt lat="40.65326" lon="0.76783">
        <ele>7.4</ele>
        <time>2022-05-24 21:32:52</time>
      </trkpt>
      <trkpt lat="40.65327" lon="0.76788">
        <ele>7.4</ele>
        <time>2022-05-24 21:32:53</time>
      </trkpt>
      <trkpt lat="40.6533" lon="0.76792">
        <ele>7.4</ele>
        <time>2022-05-24 21:32:54</time>
      </trkpt>
      <trkpt lat="40.65332" lon="0.76797">
        <ele>7.4</ele>
        <time>2022-05-24 21:32:55</time>
      </trkpt>
      <trkpt lat="40.65335" lon="0.76802">
        <ele>7.4</ele>
        <time>2022-05-24 21:32:56</time>
      </trkpt>
      <trkpt lat="40.65337" lon="0.76807">
        <ele>7.4</ele>
        <time>2022-05-24 21:32:57</time>
      </trkpt>
      <trkpt lat="40.65339" lon="0.76812">
        <ele>7.4</ele>
        <time>2022-05-24 21:32:58</time>
      </trkpt>
      <trkpt lat="40.65342" lon="0.76817">
        <ele>7.6</ele>
        <time>2022-05-24 21:32:59</time>
      </trkpt>
      <trkpt lat="40.65344" lon="0.76822">
        <ele>7.4</ele>
        <time>2022-05-24 21:33:00</time>
      </trkpt>
      <trkpt lat="40.65347" lon="0.76827">
        <ele>7.4</ele>
        <time>2022-05-24 21:33:01</time>
      </trkpt>
      <trkpt lat="40.65349" lon="0.76832">
        <ele>7.4</ele>
        <time>2022-05-24 21:33:02</time>
      </trkpt>
      <trkpt lat="40.65351" lon="0.76837">
        <ele>7.4</ele>
        <time>2022-05-24 21:33:03</time>
      </trkpt>
      <trkpt lat="40.65353" lon="0.76842">
        <ele>7.4</ele>
        <time>2022-05-24 21:33:04</time>
      </trkpt>
      <trkpt lat="40.65356" lon="0.76847">
        <ele>7.4</ele>
        <time>2022-05-24 21:33:05</time>
      </trkpt>
      <trkpt lat="40.65359" lon="0.76852">
        <ele>7.4</ele>
        <time>2022-05-24 21:33:06</time>
      </trkpt>
      <trkpt lat="40.65361" lon="0.76857">
        <ele>7.4</ele>
        <time>2022-05-24 21:33:07</time>
      </trkpt>
      <trkpt lat="40.65363" lon="0.76862">
        <ele>7.4</ele>
        <time>2022-05-24 21:33:08</time>
      </trkpt>
      <trkpt lat="40.65365" lon="0.76866">
        <ele>7.4</ele>
        <time>2022-05-24 21:33:09</time>
      </trkpt>
      <trkpt lat="40.65368" lon="0.76871">
        <ele>7.4</ele>
        <time>2022-05-24 21:33:10</time>
      </trkpt>
      <trkpt lat="40.6537" lon="0.76876">
        <ele>7.4</ele>
        <time>2022-05-24 21:33:11</time>
      </trkpt>
      <trkpt lat="40.65372" lon="0.76881">
        <ele>7.4</ele>
        <time>2022-05-24 21:33:12</time>
      </trkpt>
      <trkpt lat="40.65375" lon="0.76886">
        <ele>7.4</ele>
        <time>2022-05-24 21:33:13</time>
      </trkpt>
      <trkpt lat="40.65377" lon="0.76891">
        <ele>7.4</ele>
        <time>2022-05-24 21:33:14</time>
      </trkpt>
      <trkpt lat="40.6538" lon="0.76896">
        <ele>7.4</ele>
        <time>2022-05-24 21:33:15</time>
      </trkpt>
      <trkpt lat="40.65382" lon="0.76901">
        <ele>7.4</ele>
        <time>2022-05-24 21:33:16</time>
      </trkpt>
      <trkpt lat="40.65384" lon="0.76906">
        <ele>7.4</ele>
        <time>2022-05-24 21:33:17</time>
      </trkpt>
      <trkpt lat="40.65387" lon="0.76911">
        <ele>7.4</ele>
        <time>2022-05-24 21:33:18</time>
      </trkpt>
      <trkpt lat="40.65389" lon="0.76917">
        <ele>7.4</ele>
        <time>2022-05-24 21:33:19</time>
      </trkpt>
      <trkpt lat="40.65392" lon="0.76922">
        <ele>7.4</ele>
        <time>2022-05-24 21:33:20</time>
      </trkpt>
      <trkpt lat="40.65394" lon="0.76927">
        <ele>7.4</ele>
        <time>2022-05-24 21:33:21</time>
      </trkpt>
      <trkpt lat="40.65397" lon="0.76932">
        <ele>7.4</ele>
        <time>2022-05-24 21:33:22</time>
      </trkpt>
      <trkpt lat="40.654" lon="0.76937">
        <ele>7.4</ele>
        <time>2022-05-24 21:33:23</time>
      </trkpt>
      <trkpt lat="40.65402" lon="0.76942">
        <ele>7.4</ele>
        <time>2022-05-24 21:33:24</time>
      </trkpt>
      <trkpt lat="40.65405" lon="0.76947">
        <ele>7.4</ele>
        <time>2022-05-24 21:33:25</time>
      </trkpt>
      <trkpt lat="40.65408" lon="0.76952">
        <ele>7.4</ele>
        <time>2022-05-24 21:33:26</time>
      </trkpt>
      <trkpt lat="40.65411" lon="0.76957">
        <ele>7.4</ele>
        <time>2022-05-24 21:33:27</time>
      </trkpt>
      <trkpt lat="40.65414" lon="0.76961">
        <ele>7.4</ele>
        <time>2022-05-24 21:33:28</time>
      </trkpt>
      <trkpt lat="40.65417" lon="0.76966">
        <ele>7.4</ele>
        <time>2022-05-24 21:33:29</time>
      </trkpt>
      <trkpt lat="40.6542" lon="0.7697">
        <ele>7.4</ele>
        <time>2022-05-24 21:33:30</time>
      </trkpt>
      <trkpt lat="40.65424" lon="0.76974">
        <ele>7.4</ele>
        <time>2022-05-24 21:33:31</time>
      </trkpt>
      <trkpt lat="40.65427" lon="0.76978">
        <ele>7.4</ele>
        <time>2022-05-24 21:33:32</time>
      </trkpt>
      <trkpt lat="40.6543" lon="0.76982">
        <ele>7.4</ele>
        <time>2022-05-24 21:33:33</time>
      </trkpt>
      <trkpt lat="40.65434" lon="0.76986">
        <ele>7.4</ele>
        <time>2022-05-24 21:33:34</time>
      </trkpt>
      <trkpt lat="40.65437" lon="0.7699">
        <ele>7.4</ele>
        <time>2022-05-24 21:33:35</time>
      </trkpt>
      <trkpt lat="40.65441" lon="0.76994">
        <ele>7.4</ele>
        <time>2022-05-24 21:33:36</time>
      </trkpt>
      <trkpt lat="40.65444" lon="0.76997">
        <ele>7.4</ele>
        <time>2022-05-24 21:33:37</time>
      </trkpt>
      <trkpt lat="40.65448" lon="0.77001">
        <ele>7.4</ele>
        <time>2022-05-24 21:33:38</time>
      </trkpt>
      <trkpt lat="40.65451" lon="0.77005">
        <ele>7.4</ele>
        <time>2022-05-24 21:33:39</time>
      </trkpt>
      <trkpt lat="40.65454" lon="0.77009">
        <ele>7.4</ele>
        <time>2022-05-24 21:33:40</time>
      </trkpt>
      <trkpt lat="40.65458" lon="0.77013">
        <ele>7.4</ele>
        <time>2022-05-24 21:33:41</time>
      </trkpt>
      <trkpt lat="40.65462" lon="0.77017">
        <ele>7.4</ele>
        <time>2022-05-24 21:33:42</time>
      </trkpt>
      <trkpt lat="40.65466" lon="0.77021">
        <ele>7.4</ele>
        <time>2022-05-24 21:33:43</time>
      </trkpt>
      <trkpt lat="40.65469" lon="0.77025">
        <ele>7.4</ele>
        <time>2022-05-24 21:33:44</time>
      </trkpt>
      <trkpt lat="40.65472" lon="0.77029">
        <ele>7.4</ele>
        <time>2022-05-24 21:33:45</time>
      </trkpt>
      <trkpt lat="40.65476" lon="0.77033">
        <ele>7.4</ele>
        <time>2022-05-24 21:33:46</time>
      </trkpt>
      <trkpt lat="40.6548" lon="0.77037">
        <ele>7.4</ele>
        <time>2022-05-24 21:33:47</time>
      </trkpt>
      <trkpt lat="40.65483" lon="0.77041">
        <ele>7.4</ele>
        <time>2022-05-24 21:33:48</time>
      </trkpt>
      <trkpt lat="40.65487" lon="0.77045">
        <ele>7.6</ele>
        <time>2022-05-24 21:33:49</time>
      </trkpt>
      <trkpt lat="40.6549" lon="0.77049">
        <ele>7.6</ele>
        <time>2022-05-24 21:33:50</time>
      </trkpt>
      <trkpt lat="40.65494" lon="0.77053">
        <ele>7.4</ele>
        <time>2022-05-24 21:33:51</time>
      </trkpt>
      <trkpt lat="40.65498" lon="0.77057">
        <ele>7.4</ele>
        <time>2022-05-24 21:33:52</time>
      </trkpt>
      <trkpt lat="40.65501" lon="0.77061">
        <ele>7.4</ele>
        <time>2022-05-24 21:33:53</time>
      </trkpt>
      <trkpt lat="40.65505" lon="0.77064">
        <ele>7.4</ele>
        <time>2022-05-24 21:33:54</time>
      </trkpt>
      <trkpt lat="40.65509" lon="0.77068">
        <ele>7.6</ele>
        <time>2022-05-24 21:33:55</time>
      </trkpt>
      <trkpt lat="40.65513" lon="0.77073">
        <ele>7.6</ele>
        <time>2022-05-24 21:33:56</time>
      </trkpt>
      <trkpt lat="40.65516" lon="0.77077">
        <ele>7.4</ele>
        <time>2022-05-24 21:33:57</time>
      </trkpt>
      <trkpt lat="40.6552" lon="0.77081">
        <ele>7.4</ele>
        <time>2022-05-24 21:33:58</time>
      </trkpt>
      <trkpt lat="40.65524" lon="0.77085">
        <ele>7.4</ele>
        <time>2022-05-24 21:33:59</time>
      </trkpt>
      <trkpt lat="40.65527" lon="0.7709">
        <ele>7.4</ele>
        <time>2022-05-24 21:34:00</time>
      </trkpt>
      <trkpt lat="40.65531" lon="0.77094">
        <ele>7.4</ele>
        <time>2022-05-24 21:34:01</time>
      </trkpt>
      <trkpt lat="40.65535" lon="0.77098">
        <ele>7.4</ele>
        <time>2022-05-24 21:34:02</time>
      </trkpt>
      <trkpt lat="40.65538" lon="0.77102">
        <ele>7.6</ele>
        <time>2022-05-24 21:34:03</time>
      </trkpt>
      <trkpt lat="40.65541" lon="0.77106">
        <ele>7.6</ele>
        <time>2022-05-24 21:34:04</time>
      </trkpt>
      <trkpt lat="40.65545" lon="0.7711">
        <ele>7.4</ele>
        <time>2022-05-24 21:34:05</time>
      </trkpt>
      <trkpt lat="40.65548" lon="0.77114">
        <ele>7.4</ele>
        <time>2022-05-24 21:34:06</time>
      </trkpt>
      <trkpt lat="40.65552" lon="0.77118">
        <ele>7.2</ele>
        <time>2022-05-24 21:34:07</time>
      </trkpt>
      <trkpt lat="40.65556" lon="0.77122">
        <ele>7.2</ele>
        <time>2022-05-24 21:34:08</time>
      </trkpt>
      <trkpt lat="40.6556" lon="0.77127">
        <ele>7.2</ele>
        <time>2022-05-24 21:34:09</time>
      </trkpt>
      <trkpt lat="40.65564" lon="0.77131">
        <ele>7.2</ele>
        <time>2022-05-24 21:34:10</time>
      </trkpt>
      <trkpt lat="40.65568" lon="0.77136">
        <ele>7.2</ele>
        <time>2022-05-24 21:34:11</time>
      </trkpt>
      <trkpt lat="40.65572" lon="0.7714">
        <ele>7.2</ele>
        <time>2022-05-24 21:34:12</time>
      </trkpt>
      <trkpt lat="40.65575" lon="0.77145">
        <ele>7.2</ele>
        <time>2022-05-24 21:34:13</time>
      </trkpt>
      <trkpt lat="40.65579" lon="0.77149">
        <ele>7.2</ele>
        <time>2022-05-24 21:34:14</time>
      </trkpt>
      <trkpt lat="40.65583" lon="0.77153">
        <ele>7.2</ele>
        <time>2022-05-24 21:34:15</time>
      </trkpt>
      <trkpt lat="40.65586" lon="0.77156">
        <ele>7.2</ele>
        <time>2022-05-24 21:34:16</time>
      </trkpt>
      <trkpt lat="40.6559" lon="0.7716">
        <ele>7.2</ele>
        <time>2022-05-24 21:34:17</time>
      </trkpt>
      <trkpt lat="40.65594" lon="0.77165">
        <ele>7.2</ele>
        <time>2022-05-24 21:34:18</time>
      </trkpt>
      <trkpt lat="40.65598" lon="0.77169">
        <ele>7</ele>
        <time>2022-05-24 21:34:19</time>
      </trkpt>
      <trkpt lat="40.65602" lon="0.77173">
        <ele>7</ele>
        <time>2022-05-24 21:34:20</time>
      </trkpt>
      <trkpt lat="40.65606" lon="0.77178">
        <ele>7</ele>
        <time>2022-05-24 21:34:21</time>
      </trkpt>
      <trkpt lat="40.6561" lon="0.77182">
        <ele>7</ele>
        <time>2022-05-24 21:34:22</time>
      </trkpt>
      <trkpt lat="40.65614" lon="0.77187">
        <ele>7</ele>
        <time>2022-05-24 21:34:23</time>
      </trkpt>
      <trkpt lat="40.65617" lon="0.77191">
        <ele>7.2</ele>
        <time>2022-05-24 21:34:24</time>
      </trkpt>
      <trkpt lat="40.65622" lon="0.77195">
        <ele>7.2</ele>
        <time>2022-05-24 21:34:25</time>
      </trkpt>
      <trkpt lat="40.65625" lon="0.77199">
        <ele>7.2</ele>
        <time>2022-05-24 21:34:26</time>
      </trkpt>
      <trkpt lat="40.65629" lon="0.77203">
        <ele>7.2</ele>
        <time>2022-05-24 21:34:27</time>
      </trkpt>
      <trkpt lat="40.65632" lon="0.77208">
        <ele>7.2</ele>
        <time>2022-05-24 21:34:28</time>
      </trkpt>
      <trkpt lat="40.65636" lon="0.77212">
        <ele>7</ele>
        <time>2022-05-24 21:34:29</time>
      </trkpt>
      <trkpt lat="40.6564" lon="0.77217">
        <ele>7</ele>
        <time>2022-05-24 21:34:30</time>
      </trkpt>
      <trkpt lat="40.65644" lon="0.77221">
        <ele>7</ele>
        <time>2022-05-24 21:34:31</time>
      </trkpt>
      <trkpt lat="40.65648" lon="0.77225">
        <ele>7</ele>
        <time>2022-05-24 21:34:32</time>
      </trkpt>
      <trkpt lat="40.65651" lon="0.77229">
        <ele>7.2</ele>
        <time>2022-05-24 21:34:33</time>
      </trkpt>
      <trkpt lat="40.65655" lon="0.77233">
        <ele>7.2</ele>
        <time>2022-05-24 21:34:34</time>
      </trkpt>
      <trkpt lat="40.65659" lon="0.77238">
        <ele>7.2</ele>
        <time>2022-05-24 21:34:35</time>
      </trkpt>
      <trkpt lat="40.65662" lon="0.77242">
        <ele>7.2</ele>
        <time>2022-05-24 21:34:36</time>
      </trkpt>
      <trkpt lat="40.65666" lon="0.77246">
        <ele>7.2</ele>
        <time>2022-05-24 21:34:37</time>
      </trkpt>
      <trkpt lat="40.6567" lon="0.7725">
        <ele>7.2</ele>
        <time>2022-05-24 21:34:38</time>
      </trkpt>
      <trkpt lat="40.65673" lon="0.77254">
        <ele>7.4</ele>
        <time>2022-05-24 21:34:39</time>
      </trkpt>
      <trkpt lat="40.65677" lon="0.77258">
        <ele>7.4</ele>
        <time>2022-05-24 21:34:40</time>
      </trkpt>
      <trkpt lat="40.65681" lon="0.77262">
        <ele>7.4</ele>
        <time>2022-05-24 21:34:41</time>
      </trkpt>
      <trkpt lat="40.65684" lon="0.77266">
        <ele>7.4</ele>
        <time>2022-05-24 21:34:42</time>
      </trkpt>
      <trkpt lat="40.65688" lon="0.77269">
        <ele>7.4</ele>
        <time>2022-05-24 21:34:43</time>
      </trkpt>
      <trkpt lat="40.65691" lon="0.77273">
        <ele>7.4</ele>
        <time>2022-05-24 21:34:44</time>
      </trkpt>
      <trkpt lat="40.65694" lon="0.77277">
        <ele>7.4</ele>
        <time>2022-05-24 21:34:45</time>
      </trkpt>
      <trkpt lat="40.65697" lon="0.77281">
        <ele>7.4</ele>
        <time>2022-05-24 21:34:46</time>
      </trkpt>
      <trkpt lat="40.65701" lon="0.77285">
        <ele>7.4</ele>
        <time>2022-05-24 21:34:47</time>
      </trkpt>
      <trkpt lat="40.65704" lon="0.77289">
        <ele>7.4</ele>
        <time>2022-05-24 21:34:48</time>
      </trkpt>
      <trkpt lat="40.65708" lon="0.77293">
        <ele>7.4</ele>
        <time>2022-05-24 21:34:49</time>
      </trkpt>
      <trkpt lat="40.65711" lon="0.77297">
        <ele>7.4</ele>
        <time>2022-05-24 21:34:50</time>
      </trkpt>
      <trkpt lat="40.65715" lon="0.77301">
        <ele>7.4</ele>
        <time>2022-05-24 21:34:51</time>
      </trkpt>
      <trkpt lat="40.65718" lon="0.77305">
        <ele>7.4</ele>
        <time>2022-05-24 21:34:52</time>
      </trkpt>
      <trkpt lat="40.65722" lon="0.77309">
        <ele>7.4</ele>
        <time>2022-05-24 21:34:53</time>
      </trkpt>
      <trkpt lat="40.65726" lon="0.77313">
        <ele>7.4</ele>
        <time>2022-05-24 21:34:54</time>
      </trkpt>
      <trkpt lat="40.65729" lon="0.77317">
        <ele>7.4</ele>
        <time>2022-05-24 21:34:55</time>
      </trkpt>
      <trkpt lat="40.65733" lon="0.77321">
        <ele>7.4</ele>
        <time>2022-05-24 21:34:56</time>
      </trkpt>
      <trkpt lat="40.65736" lon="0.77325">
        <ele>7.4</ele>
        <time>2022-05-24 21:34:57</time>
      </trkpt>
      <trkpt lat="40.65739" lon="0.77329">
        <ele>7.4</ele>
        <time>2022-05-24 21:34:58</time>
      </trkpt>
      <trkpt lat="40.65743" lon="0.77333">
        <ele>7.4</ele>
        <time>2022-05-24 21:34:59</time>
      </trkpt>
      <trkpt lat="40.65747" lon="0.77337">
        <ele>7.6</ele>
        <time>2022-05-24 21:35:00</time>
      </trkpt>
      <trkpt lat="40.6575" lon="0.77341">
        <ele>7.6</ele>
        <time>2022-05-24 21:35:01</time>
      </trkpt>
      <trkpt lat="40.65754" lon="0.77345">
        <ele>7.6</ele>
        <time>2022-05-24 21:35:02</time>
      </trkpt>
      <trkpt lat="40.65757" lon="0.77349">
        <ele>7.4</ele>
        <time>2022-05-24 21:35:03</time>
      </trkpt>
      <trkpt lat="40.65761" lon="0.77354">
        <ele>7.4</ele>
        <time>2022-05-24 21:35:04</time>
      </trkpt>
      <trkpt lat="40.65764" lon="0.77358">
        <ele>7.4</ele>
        <time>2022-05-24 21:35:05</time>
      </trkpt>
      <trkpt lat="40.65768" lon="0.77362">
        <ele>7.4</ele>
        <time>2022-05-24 21:35:06</time>
      </trkpt>
      <trkpt lat="40.65771" lon="0.77366">
        <ele>7.6</ele>
        <time>2022-05-24 21:35:07</time>
      </trkpt>
      <trkpt lat="40.65775" lon="0.7737">
        <ele>7.6</ele>
        <time>2022-05-24 21:35:08</time>
      </trkpt>
      <trkpt lat="40.65779" lon="0.77374">
        <ele>7.4</ele>
        <time>2022-05-24 21:35:09</time>
      </trkpt>
      <trkpt lat="40.65783" lon="0.77378">
        <ele>7.6</ele>
        <time>2022-05-24 21:35:10</time>
      </trkpt>
      <trkpt lat="40.65786" lon="0.77382">
        <ele>7.6</ele>
        <time>2022-05-24 21:35:11</time>
      </trkpt>
      <trkpt lat="40.65789" lon="0.77386">
        <ele>7.6</ele>
        <time>2022-05-24 21:35:12</time>
      </trkpt>
      <trkpt lat="40.65793" lon="0.7739">
        <ele>7.6</ele>
        <time>2022-05-24 21:35:13</time>
      </trkpt>
      <trkpt lat="40.65796" lon="0.77394">
        <ele>7.8</ele>
        <time>2022-05-24 21:35:14</time>
      </trkpt>
      <trkpt lat="40.658" lon="0.77398">
        <ele>7.8</ele>
        <time>2022-05-24 21:35:15</time>
      </trkpt>
      <trkpt lat="40.65804" lon="0.77402">
        <ele>7.8</ele>
        <time>2022-05-24 21:35:16</time>
      </trkpt>
      <trkpt lat="40.65807" lon="0.77406">
        <ele>7.8</ele>
        <time>2022-05-24 21:35:17</time>
      </trkpt>
      <trkpt lat="40.65811" lon="0.7741">
        <ele>7.8</ele>
        <time>2022-05-24 21:35:18</time>
      </trkpt>
      <trkpt lat="40.65814" lon="0.77414">
        <ele>7.8</ele>
        <time>2022-05-24 21:35:19</time>
      </trkpt>
      <trkpt lat="40.65818" lon="0.77417">
        <ele>8</ele>
        <time>2022-05-24 21:35:20</time>
      </trkpt>
      <trkpt lat="40.65821" lon="0.77421">
        <ele>8</ele>
        <time>2022-05-24 21:35:21</time>
      </trkpt>
      <trkpt lat="40.65825" lon="0.77425">
        <ele>8</ele>
        <time>2022-05-24 21:35:22</time>
      </trkpt>
      <trkpt lat="40.65828" lon="0.77429">
        <ele>8</ele>
        <time>2022-05-24 21:35:23</time>
      </trkpt>
      <trkpt lat="40.6583" lon="0.77432">
        <ele>8</ele>
        <time>2022-05-24 21:35:24</time>
      </trkpt>
      <trkpt lat="40.65833" lon="0.77436">
        <ele>8</ele>
        <time>2022-05-24 21:35:25</time>
      </trkpt>
      <trkpt lat="40.65837" lon="0.7744">
        <ele>8</ele>
        <time>2022-05-24 21:35:26</time>
      </trkpt>
      <trkpt lat="40.6584" lon="0.77444">
        <ele>8</ele>
        <time>2022-05-24 21:35:27</time>
      </trkpt>
      <trkpt lat="40.65844" lon="0.77448">
        <ele>8</ele>
        <time>2022-05-24 21:35:28</time>
      </trkpt>
      <trkpt lat="40.65848" lon="0.77452">
        <ele>8</ele>
        <time>2022-05-24 21:35:29</time>
      </trkpt>
      <trkpt lat="40.65852" lon="0.77456">
        <ele>8</ele>
        <time>2022-05-24 21:35:30</time>
      </trkpt>
      <trkpt lat="40.65855" lon="0.77459">
        <ele>8</ele>
        <time>2022-05-24 21:35:31</time>
      </trkpt>
      <trkpt lat="40.65859" lon="0.77462">
        <ele>8.2</ele>
        <time>2022-05-24 21:35:32</time>
      </trkpt>
      <trkpt lat="40.65862" lon="0.77464">
        <ele>8.2</ele>
        <time>2022-05-24 21:35:33</time>
      </trkpt>
      <trkpt lat="40.65866" lon="0.77466">
        <ele>8.2</ele>
        <time>2022-05-24 21:35:34</time>
      </trkpt>
      <trkpt lat="40.6587" lon="0.77467">
        <ele>8.2</ele>
        <time>2022-05-24 21:35:35</time>
      </trkpt>
      <trkpt lat="40.65873" lon="0.77467">
        <ele>8.4</ele>
        <time>2022-05-24 21:35:36</time>
      </trkpt>
      <trkpt lat="40.65877" lon="0.77465">
        <ele>8.4</ele>
        <time>2022-05-24 21:35:37</time>
      </trkpt>
      <trkpt lat="40.6588" lon="0.77462">
        <ele>8.6</ele>
        <time>2022-05-24 21:35:38</time>
      </trkpt>
      <trkpt lat="40.65883" lon="0.77458">
        <ele>8.6</ele>
        <time>2022-05-24 21:35:39</time>
      </trkpt>
      <trkpt lat="40.65886" lon="0.77453">
        <ele>8.6</ele>
        <time>2022-05-24 21:35:40</time>
      </trkpt>
      <trkpt lat="40.65888" lon="0.77449">
        <ele>8.6</ele>
        <time>2022-05-24 21:35:41</time>
      </trkpt>
      <trkpt lat="40.65891" lon="0.77443">
        <ele>8.6</ele>
        <time>2022-05-24 21:35:42</time>
      </trkpt>
      <trkpt lat="40.65892" lon="0.77438">
        <ele>8.6</ele>
        <time>2022-05-24 21:35:43</time>
      </trkpt>
      <trkpt lat="40.65894" lon="0.77432">
        <ele>8.8</ele>
        <time>2022-05-24 21:35:44</time>
      </trkpt>
      <trkpt lat="40.65896" lon="0.77427">
        <ele>8.8</ele>
        <time>2022-05-24 21:35:45</time>
      </trkpt>
      <trkpt lat="40.65898" lon="0.77421">
        <ele>8.8</ele>
        <time>2022-05-24 21:35:46</time>
      </trkpt>
      <trkpt lat="40.659" lon="0.77416">
        <ele>8.8</ele>
        <time>2022-05-24 21:35:47</time>
      </trkpt>
      <trkpt lat="40.659" lon="0.77411">
        <ele>8.8</ele>
        <time>2022-05-24 21:35:48</time>
      </trkpt>
      <trkpt lat="40.659" lon="0.77407">
        <ele>8.8</ele>
        <time>2022-05-24 21:35:49</time>
      </trkpt>
      <trkpt lat="40.65901" lon="0.77402">
        <ele>8.8</ele>
        <time>2022-05-24 21:35:50</time>
      </trkpt>
      <trkpt lat="40.65902" lon="0.77397">
        <ele>8.8</ele>
        <time>2022-05-24 21:35:51</time>
      </trkpt>
      <trkpt lat="40.65904" lon="0.77392">
        <ele>8.8</ele>
        <time>2022-05-24 21:35:52</time>
      </trkpt>
      <trkpt lat="40.65906" lon="0.77387">
        <ele>8.8</ele>
        <time>2022-05-24 21:35:53</time>
      </trkpt>
      <trkpt lat="40.65908" lon="0.77382">
        <ele>8.8</ele>
        <time>2022-05-24 21:35:54</time>
      </trkpt>
      <trkpt lat="40.65911" lon="0.77375">
        <ele>8.8</ele>
        <time>2022-05-24 21:35:55</time>
      </trkpt>
      <trkpt lat="40.65914" lon="0.77369">
        <ele>8.8</ele>
        <time>2022-05-24 21:35:56</time>
      </trkpt>
      <trkpt lat="40.65916" lon="0.77363">
        <ele>8.8</ele>
        <time>2022-05-24 21:35:57</time>
      </trkpt>
      <trkpt lat="40.65919" lon="0.77357">
        <ele>8.8</ele>
        <time>2022-05-24 21:35:58</time>
      </trkpt>
      <trkpt lat="40.65921" lon="0.77351">
        <ele>8.6</ele>
        <time>2022-05-24 21:35:59</time>
      </trkpt>
      <trkpt lat="40.65923" lon="0.77344">
        <ele>8.6</ele>
        <time>2022-05-24 21:36:00</time>
      </trkpt>
      <trkpt lat="40.65926" lon="0.77338">
        <ele>8.6</ele>
        <time>2022-05-24 21:36:01</time>
      </trkpt>
      <trkpt lat="40.65928" lon="0.77332">
        <ele>8.6</ele>
        <time>2022-05-24 21:36:02</time>
      </trkpt>
      <trkpt lat="40.6593" lon="0.77326">
        <ele>8.6</ele>
        <time>2022-05-24 21:36:03</time>
      </trkpt>
      <trkpt lat="40.65932" lon="0.77319">
        <ele>8.6</ele>
        <time>2022-05-24 21:36:04</time>
      </trkpt>
      <trkpt lat="40.65935" lon="0.77313">
        <ele>8.6</ele>
        <time>2022-05-24 21:36:05</time>
      </trkpt>
      <trkpt lat="40.65937" lon="0.77307">
        <ele>8.6</ele>
        <time>2022-05-24 21:36:06</time>
      </trkpt>
      <trkpt lat="40.65939" lon="0.773">
        <ele>8.4</ele>
        <time>2022-05-24 21:36:07</time>
      </trkpt>
      <trkpt lat="40.65942" lon="0.77293">
        <ele>8.6</ele>
        <time>2022-05-24 21:36:08</time>
      </trkpt>
      <trkpt lat="40.65944" lon="0.77287">
        <ele>8.4</ele>
        <time>2022-05-24 21:36:09</time>
      </trkpt>
      <trkpt lat="40.65946" lon="0.7728">
        <ele>8.4</ele>
        <time>2022-05-24 21:36:10</time>
      </trkpt>
      <trkpt lat="40.65948" lon="0.77274">
        <ele>8.4</ele>
        <time>2022-05-24 21:36:11</time>
      </trkpt>
      <trkpt lat="40.6595" lon="0.77267">
        <ele>8.4</ele>
        <time>2022-05-24 21:36:12</time>
      </trkpt>
      <trkpt lat="40.65953" lon="0.77261">
        <ele>8.4</ele>
        <time>2022-05-24 21:36:13</time>
      </trkpt>
      <trkpt lat="40.65955" lon="0.77254">
        <ele>8.6</ele>
        <time>2022-05-24 21:36:14</time>
      </trkpt>
      <trkpt lat="40.65957" lon="0.77248">
        <ele>8.6</ele>
        <time>2022-05-24 21:36:15</time>
      </trkpt>
      <trkpt lat="40.65959" lon="0.77242">
        <ele>8.8</ele>
        <time>2022-05-24 21:36:16</time>
      </trkpt>
      <trkpt lat="40.65961" lon="0.77236">
        <ele>8.8</ele>
        <time>2022-05-24 21:36:17</time>
      </trkpt>
      <trkpt lat="40.65963" lon="0.7723">
        <ele>8.8</ele>
        <time>2022-05-24 21:36:18</time>
      </trkpt>
      <trkpt lat="40.65965" lon="0.77224">
        <ele>8.8</ele>
        <time>2022-05-24 21:36:19</time>
      </trkpt>
      <trkpt lat="40.65967" lon="0.77218">
        <ele>8.8</ele>
        <time>2022-05-24 21:36:20</time>
      </trkpt>
      <trkpt lat="40.65969" lon="0.77212">
        <ele>8.8</ele>
        <time>2022-05-24 21:36:21</time>
      </trkpt>
      <trkpt lat="40.65971" lon="0.77206">
        <ele>8.8</ele>
        <time>2022-05-24 21:36:22</time>
      </trkpt>
      <trkpt lat="40.65973" lon="0.772">
        <ele>8.8</ele>
        <time>2022-05-24 21:36:23</time>
      </trkpt>
      <trkpt lat="40.65975" lon="0.77194">
        <ele>8.6</ele>
        <time>2022-05-24 21:36:24</time>
      </trkpt>
      <trkpt lat="40.65977" lon="0.77188">
        <ele>8.6</ele>
        <time>2022-05-24 21:36:25</time>
      </trkpt>
      <trkpt lat="40.6598" lon="0.77182">
        <ele>8.6</ele>
        <time>2022-05-24 21:36:26</time>
      </trkpt>
      <trkpt lat="40.65982" lon="0.77176">
        <ele>8.6</ele>
        <time>2022-05-24 21:36:27</time>
      </trkpt>
      <trkpt lat="40.65984" lon="0.7717">
        <ele>8.6</ele>
        <time>2022-05-24 21:36:28</time>
      </trkpt>
      <trkpt lat="40.65987" lon="0.77163">
        <ele>8.8</ele>
        <time>2022-05-24 21:36:29</time>
      </trkpt>
      <trkpt lat="40.65989" lon="0.77157">
        <ele>8.6</ele>
        <time>2022-05-24 21:36:30</time>
      </trkpt>
      <trkpt lat="40.65991" lon="0.77151">
        <ele>8.6</ele>
        <time>2022-05-24 21:36:31</time>
      </trkpt>
      <trkpt lat="40.65993" lon="0.77145">
        <ele>8.6</ele>
        <time>2022-05-24 21:36:32</time>
      </trkpt>
      <trkpt lat="40.65995" lon="0.77138">
        <ele>8.6</ele>
        <time>2022-05-24 21:36:33</time>
      </trkpt>
      <trkpt lat="40.65997" lon="0.77132">
        <ele>8.6</ele>
        <time>2022-05-24 21:36:34</time>
      </trkpt>
      <trkpt lat="40.65999" lon="0.77126">
        <ele>8.6</ele>
        <time>2022-05-24 21:36:35</time>
      </trkpt>
      <trkpt lat="40.66002" lon="0.7712">
        <ele>8.6</ele>
        <time>2022-05-24 21:36:36</time>
      </trkpt>
      <trkpt lat="40.66003" lon="0.77114">
        <ele>8.6</ele>
        <time>2022-05-24 21:36:37</time>
      </trkpt>
      <trkpt lat="40.66006" lon="0.77108">
        <ele>8.6</ele>
        <time>2022-05-24 21:36:38</time>
      </trkpt>
      <trkpt lat="40.66008" lon="0.77102">
        <ele>8.6</ele>
        <time>2022-05-24 21:36:39</time>
      </trkpt>
      <trkpt lat="40.6601" lon="0.77095">
        <ele>8.6</ele>
        <time>2022-05-24 21:36:40</time>
      </trkpt>
      <trkpt lat="40.66012" lon="0.77089">
        <ele>8.6</ele>
        <time>2022-05-24 21:36:41</time>
      </trkpt>
      <trkpt lat="40.66014" lon="0.77083">
        <ele>8.6</ele>
        <time>2022-05-24 21:36:42</time>
      </trkpt>
      <trkpt lat="40.66016" lon="0.77077">
        <ele>8.6</ele>
        <time>2022-05-24 21:36:43</time>
      </trkpt>
      <trkpt lat="40.66018" lon="0.77071">
        <ele>8.6</ele>
        <time>2022-05-24 21:36:44</time>
      </trkpt>
      <trkpt lat="40.6602" lon="0.77065">
        <ele>8.8</ele>
        <time>2022-05-24 21:36:45</time>
      </trkpt>
      <trkpt lat="40.66022" lon="0.77059">
        <ele>8.8</ele>
        <time>2022-05-24 21:36:46</time>
      </trkpt>
      <trkpt lat="40.66024" lon="0.77053">
        <ele>8.8</ele>
        <time>2022-05-24 21:36:47</time>
      </trkpt>
      <trkpt lat="40.66027" lon="0.77047">
        <ele>8.6</ele>
        <time>2022-05-24 21:36:48</time>
      </trkpt>
      <trkpt lat="40.66029" lon="0.7704">
        <ele>8.6</ele>
        <time>2022-05-24 21:36:49</time>
      </trkpt>
      <trkpt lat="40.66031" lon="0.77034">
        <ele>8.6</ele>
        <time>2022-05-24 21:36:50</time>
      </trkpt>
      <trkpt lat="40.66033" lon="0.77027">
        <ele>8.6</ele>
        <time>2022-05-24 21:36:51</time>
      </trkpt>
      <trkpt lat="40.66035" lon="0.77021">
        <ele>8.6</ele>
        <time>2022-05-24 21:36:52</time>
      </trkpt>
      <trkpt lat="40.66038" lon="0.77015">
        <ele>8.6</ele>
        <time>2022-05-24 21:36:53</time>
      </trkpt>
      <trkpt lat="40.6604" lon="0.77009">
        <ele>8.6</ele>
        <time>2022-05-24 21:36:54</time>
      </trkpt>
      <trkpt lat="40.66042" lon="0.77002">
        <ele>8.6</ele>
        <time>2022-05-24 21:36:55</time>
      </trkpt>
      <trkpt lat="40.66043" lon="0.76997">
        <ele>8.6</ele>
        <time>2022-05-24 21:36:56</time>
      </trkpt>
      <trkpt lat="40.66045" lon="0.76991">
        <ele>8.6</ele>
        <time>2022-05-24 21:36:57</time>
      </trkpt>
      <trkpt lat="40.66047" lon="0.76986">
        <ele>8.6</ele>
        <time>2022-05-24 21:36:58</time>
      </trkpt>
      <trkpt lat="40.66049" lon="0.7698">
        <ele>8.6</ele>
        <time>2022-05-24 21:36:59</time>
      </trkpt>
      <trkpt lat="40.66051" lon="0.76975">
        <ele>8.6</ele>
        <time>2022-05-24 21:37:00</time>
      </trkpt>
      <trkpt lat="40.66053" lon="0.7697">
        <ele>8.4</ele>
        <time>2022-05-24 21:37:01</time>
      </trkpt>
      <trkpt lat="40.66055" lon="0.76964">
        <ele>8.6</ele>
        <time>2022-05-24 21:37:02</time>
      </trkpt>
      <trkpt lat="40.66056" lon="0.76959">
        <ele>8.4</ele>
        <time>2022-05-24 21:37:03</time>
      </trkpt>
      <trkpt lat="40.66059" lon="0.76953">
        <ele>8.4</ele>
        <time>2022-05-24 21:37:04</time>
      </trkpt>
      <trkpt lat="40.66061" lon="0.76947">
        <ele>8.6</ele>
        <time>2022-05-24 21:37:05</time>
      </trkpt>
      <trkpt lat="40.66063" lon="0.76941">
        <ele>8.6</ele>
        <time>2022-05-24 21:37:06</time>
      </trkpt>
      <trkpt lat="40.66065" lon="0.76935">
        <ele>8.6</ele>
        <time>2022-05-24 21:37:07</time>
      </trkpt>
      <trkpt lat="40.66068" lon="0.76928">
        <ele>8.4</ele>
        <time>2022-05-24 21:37:08</time>
      </trkpt>
      <trkpt lat="40.6607" lon="0.76922">
        <ele>8.6</ele>
        <time>2022-05-24 21:37:09</time>
      </trkpt>
      <trkpt lat="40.66072" lon="0.76915">
        <ele>8.6</ele>
        <time>2022-05-24 21:37:10</time>
      </trkpt>
      <trkpt lat="40.66074" lon="0.76909">
        <ele>8.6</ele>
        <time>2022-05-24 21:37:11</time>
      </trkpt>
      <trkpt lat="40.66076" lon="0.76903">
        <ele>8.6</ele>
        <time>2022-05-24 21:37:12</time>
      </trkpt>
      <trkpt lat="40.66078" lon="0.76896">
        <ele>8.6</ele>
        <time>2022-05-24 21:37:13</time>
      </trkpt>
      <trkpt lat="40.6608" lon="0.7689">
        <ele>8.6</ele>
        <time>2022-05-24 21:37:14</time>
      </trkpt>
      <trkpt lat="40.66082" lon="0.76884">
        <ele>8.6</ele>
        <time>2022-05-24 21:37:15</time>
      </trkpt>
      <trkpt lat="40.66084" lon="0.76879">
        <ele>8.8</ele>
        <time>2022-05-24 21:37:16</time>
      </trkpt>
      <trkpt lat="40.66086" lon="0.76873">
        <ele>8.8</ele>
        <time>2022-05-24 21:37:17</time>
      </trkpt>
      <trkpt lat="40.66088" lon="0.76867">
        <ele>8.8</ele>
        <time>2022-05-24 21:37:18</time>
      </trkpt>
      <trkpt lat="40.6609" lon="0.76861">
        <ele>8.8</ele>
        <time>2022-05-24 21:37:19</time>
      </trkpt>
      <trkpt lat="40.66092" lon="0.76855">
        <ele>8.8</ele>
        <time>2022-05-24 21:37:20</time>
      </trkpt>
      <trkpt lat="40.66094" lon="0.76849">
        <ele>8.8</ele>
        <time>2022-05-24 21:37:21</time>
      </trkpt>
      <trkpt lat="40.66096" lon="0.76843">
        <ele>8.8</ele>
        <time>2022-05-24 21:37:22</time>
      </trkpt>
      <trkpt lat="40.66098" lon="0.76837">
        <ele>8.8</ele>
        <time>2022-05-24 21:37:23</time>
      </trkpt>
      <trkpt lat="40.66101" lon="0.76831">
        <ele>8.8</ele>
        <time>2022-05-24 21:37:24</time>
      </trkpt>
      <trkpt lat="40.66103" lon="0.76825">
        <ele>8.8</ele>
        <time>2022-05-24 21:37:25</time>
      </trkpt>
      <trkpt lat="40.66105" lon="0.76819">
        <ele>8.8</ele>
        <time>2022-05-24 21:37:26</time>
      </trkpt>
      <trkpt lat="40.66107" lon="0.76812">
        <ele>8.6</ele>
        <time>2022-05-24 21:37:27</time>
      </trkpt>
      <trkpt lat="40.66109" lon="0.76806">
        <ele>8.6</ele>
        <time>2022-05-24 21:37:28</time>
      </trkpt>
      <trkpt lat="40.66111" lon="0.768">
        <ele>8.6</ele>
        <time>2022-05-24 21:37:29</time>
      </trkpt>
      <trkpt lat="40.66113" lon="0.76793">
        <ele>8.6</ele>
        <time>2022-05-24 21:37:30</time>
      </trkpt>
      <trkpt lat="40.66116" lon="0.76787">
        <ele>8.6</ele>
        <time>2022-05-24 21:37:31</time>
      </trkpt>
      <trkpt lat="40.66118" lon="0.7678">
        <ele>8.6</ele>
        <time>2022-05-24 21:37:32</time>
      </trkpt>
      <trkpt lat="40.6612" lon="0.76774">
        <ele>8.6</ele>
        <time>2022-05-24 21:37:33</time>
      </trkpt>
      <trkpt lat="40.66122" lon="0.76767">
        <ele>8.6</ele>
        <time>2022-05-24 21:37:34</time>
      </trkpt>
      <trkpt lat="40.66124" lon="0.76761">
        <ele>8.6</ele>
        <time>2022-05-24 21:37:35</time>
      </trkpt>
      <trkpt lat="40.66127" lon="0.76754">
        <ele>8.6</ele>
        <time>2022-05-24 21:37:36</time>
      </trkpt>
      <trkpt lat="40.66129" lon="0.76748">
        <ele>8.6</ele>
        <time>2022-05-24 21:37:37</time>
      </trkpt>
      <trkpt lat="40.66131" lon="0.76742">
        <ele>8.4</ele>
        <time>2022-05-24 21:37:38</time>
      </trkpt>
      <trkpt lat="40.66133" lon="0.76735">
        <ele>8.4</ele>
        <time>2022-05-24 21:37:39</time>
      </trkpt>
      <trkpt lat="40.66135" lon="0.76729">
        <ele>8.4</ele>
        <time>2022-05-24 21:37:40</time>
      </trkpt>
      <trkpt lat="40.66138" lon="0.76722">
        <ele>8.4</ele>
        <time>2022-05-24 21:37:41</time>
      </trkpt>
      <trkpt lat="40.6614" lon="0.76715">
        <ele>8.4</ele>
        <time>2022-05-24 21:37:42</time>
      </trkpt>
      <trkpt lat="40.66142" lon="0.76709">
        <ele>8.4</ele>
        <time>2022-05-24 21:37:43</time>
      </trkpt>
      <trkpt lat="40.66145" lon="0.76702">
        <ele>8.4</ele>
        <time>2022-05-24 21:37:44</time>
      </trkpt>
      <trkpt lat="40.66147" lon="0.76695">
        <ele>8.4</ele>
        <time>2022-05-24 21:37:45</time>
      </trkpt>
      <trkpt lat="40.66149" lon="0.76688">
        <ele>8.4</ele>
        <time>2022-05-24 21:37:46</time>
      </trkpt>
      <trkpt lat="40.66151" lon="0.76682">
        <ele>8.4</ele>
        <time>2022-05-24 21:37:47</time>
      </trkpt>
      <trkpt lat="40.66154" lon="0.76675">
        <ele>8.4</ele>
        <time>2022-05-24 21:37:48</time>
      </trkpt>
      <trkpt lat="40.66156" lon="0.76668">
        <ele>8.4</ele>
        <time>2022-05-24 21:37:49</time>
      </trkpt>
      <trkpt lat="40.66158" lon="0.76662">
        <ele>8.4</ele>
        <time>2022-05-24 21:37:50</time>
      </trkpt>
      <trkpt lat="40.66161" lon="0.76655">
        <ele>8.4</ele>
        <time>2022-05-24 21:37:51</time>
      </trkpt>
      <trkpt lat="40.66163" lon="0.76648">
        <ele>8.4</ele>
        <time>2022-05-24 21:37:52</time>
      </trkpt>
      <trkpt lat="40.66165" lon="0.76642">
        <ele>8.4</ele>
        <time>2022-05-24 21:37:53</time>
      </trkpt>
      <trkpt lat="40.66167" lon="0.76635">
        <ele>8.6</ele>
        <time>2022-05-24 21:37:54</time>
      </trkpt>
      <trkpt lat="40.6617" lon="0.76629">
        <ele>8.6</ele>
        <time>2022-05-24 21:37:55</time>
      </trkpt>
      <trkpt lat="40.66172" lon="0.76622">
        <ele>8.6</ele>
        <time>2022-05-24 21:37:56</time>
      </trkpt>
      <trkpt lat="40.66174" lon="0.76615">
        <ele>8.6</ele>
        <time>2022-05-24 21:37:57</time>
      </trkpt>
      <trkpt lat="40.66176" lon="0.76608">
        <ele>8.6</ele>
        <time>2022-05-24 21:37:58</time>
      </trkpt>
      <trkpt lat="40.66179" lon="0.76602">
        <ele>8.6</ele>
        <time>2022-05-24 21:37:59</time>
      </trkpt>
      <trkpt lat="40.66181" lon="0.76595">
        <ele>8.6</ele>
        <time>2022-05-24 21:38:00</time>
      </trkpt>
      <trkpt lat="40.66183" lon="0.76588">
        <ele>8.6</ele>
        <time>2022-05-24 21:38:01</time>
      </trkpt>
      <trkpt lat="40.66185" lon="0.76582">
        <ele>8.6</ele>
        <time>2022-05-24 21:38:02</time>
      </trkpt>
      <trkpt lat="40.66188" lon="0.76575">
        <ele>8.6</ele>
        <time>2022-05-24 21:38:03</time>
      </trkpt>
      <trkpt lat="40.6619" lon="0.76569">
        <ele>8.6</ele>
        <time>2022-05-24 21:38:04</time>
      </trkpt>
      <trkpt lat="40.66192" lon="0.76562">
        <ele>8.6</ele>
        <time>2022-05-24 21:38:05</time>
      </trkpt>
      <trkpt lat="40.66195" lon="0.76554">
        <ele>8.8</ele>
        <time>2022-05-24 21:38:06</time>
      </trkpt>
      <trkpt lat="40.66197" lon="0.76548">
        <ele>8.8</ele>
        <time>2022-05-24 21:38:07</time>
      </trkpt>
      <trkpt lat="40.66199" lon="0.76541">
        <ele>9</ele>
        <time>2022-05-24 21:38:08</time>
      </trkpt>
      <trkpt lat="40.66202" lon="0.76534">
        <ele>9</ele>
        <time>2022-05-24 21:38:09</time>
      </trkpt>
      <trkpt lat="40.66204" lon="0.76528">
        <ele>9</ele>
        <time>2022-05-24 21:38:10</time>
      </trkpt>
      <trkpt lat="40.66206" lon="0.76521">
        <ele>9</ele>
        <time>2022-05-24 21:38:11</time>
      </trkpt>
      <trkpt lat="40.66208" lon="0.76515">
        <ele>9</ele>
        <time>2022-05-24 21:38:12</time>
      </trkpt>
      <trkpt lat="40.66211" lon="0.76508">
        <ele>9</ele>
        <time>2022-05-24 21:38:13</time>
      </trkpt>
      <trkpt lat="40.66213" lon="0.76502">
        <ele>9</ele>
        <time>2022-05-24 21:38:14</time>
      </trkpt>
      <trkpt lat="40.66215" lon="0.76496">
        <ele>8.8</ele>
        <time>2022-05-24 21:38:15</time>
      </trkpt>
      <trkpt lat="40.66217" lon="0.7649">
        <ele>9</ele>
        <time>2022-05-24 21:38:16</time>
      </trkpt>
      <trkpt lat="40.6622" lon="0.76483">
        <ele>8.8</ele>
        <time>2022-05-24 21:38:17</time>
      </trkpt>
      <trkpt lat="40.66222" lon="0.76477">
        <ele>9</ele>
        <time>2022-05-24 21:38:18</time>
      </trkpt>
      <trkpt lat="40.66224" lon="0.76471">
        <ele>9</ele>
        <time>2022-05-24 21:38:19</time>
      </trkpt>
      <trkpt lat="40.66226" lon="0.76465">
        <ele>9</ele>
        <time>2022-05-24 21:38:20</time>
      </trkpt>
      <trkpt lat="40.66228" lon="0.76459">
        <ele>9</ele>
        <time>2022-05-24 21:38:21</time>
      </trkpt>
      <trkpt lat="40.66229" lon="0.76453">
        <ele>8.8</ele>
        <time>2022-05-24 21:38:22</time>
      </trkpt>
      <trkpt lat="40.66231" lon="0.76447">
        <ele>8.8</ele>
        <time>2022-05-24 21:38:23</time>
      </trkpt>
      <trkpt lat="40.66233" lon="0.7644">
        <ele>8.8</ele>
        <time>2022-05-24 21:38:24</time>
      </trkpt>
      <trkpt lat="40.66236" lon="0.76434">
        <ele>8.6</ele>
        <time>2022-05-24 21:38:25</time>
      </trkpt>
      <trkpt lat="40.66238" lon="0.76428">
        <ele>8.6</ele>
        <time>2022-05-24 21:38:26</time>
      </trkpt>
      <trkpt lat="40.6624" lon="0.76422">
        <ele>8.6</ele>
        <time>2022-05-24 21:38:27</time>
      </trkpt>
      <trkpt lat="40.66242" lon="0.76416">
        <ele>8.6</ele>
        <time>2022-05-24 21:38:28</time>
      </trkpt>
      <trkpt lat="40.66244" lon="0.76409">
        <ele>8.6</ele>
        <time>2022-05-24 21:38:29</time>
      </trkpt>
      <trkpt lat="40.66246" lon="0.76403">
        <ele>8.6</ele>
        <time>2022-05-24 21:38:30</time>
      </trkpt>
      <trkpt lat="40.66249" lon="0.76397">
        <ele>8.6</ele>
        <time>2022-05-24 21:38:31</time>
      </trkpt>
      <trkpt lat="40.66251" lon="0.7639">
        <ele>8.6</ele>
        <time>2022-05-24 21:38:32</time>
      </trkpt>
      <trkpt lat="40.66253" lon="0.76384">
        <ele>8.8</ele>
        <time>2022-05-24 21:38:33</time>
      </trkpt>
      <trkpt lat="40.66255" lon="0.76378">
        <ele>8.8</ele>
        <time>2022-05-24 21:38:34</time>
      </trkpt>
      <trkpt lat="40.66257" lon="0.76371">
        <ele>8.8</ele>
        <time>2022-05-24 21:38:35</time>
      </trkpt>
      <trkpt lat="40.66259" lon="0.76365">
        <ele>8.8</ele>
        <time>2022-05-24 21:38:36</time>
      </trkpt>
      <trkpt lat="40.66262" lon="0.76358">
        <ele>9</ele>
        <time>2022-05-24 21:38:37</time>
      </trkpt>
      <trkpt lat="40.66264" lon="0.76352">
        <ele>9</ele>
        <time>2022-05-24 21:38:38</time>
      </trkpt>
      <trkpt lat="40.66266" lon="0.76345">
        <ele>9</ele>
        <time>2022-05-24 21:38:39</time>
      </trkpt>
      <trkpt lat="40.66268" lon="0.76339">
        <ele>9.2</ele>
        <time>2022-05-24 21:38:40</time>
      </trkpt>
      <trkpt lat="40.6627" lon="0.76332">
        <ele>9.2</ele>
        <time>2022-05-24 21:38:41</time>
      </trkpt>
      <trkpt lat="40.66273" lon="0.76326">
        <ele>9.2</ele>
        <time>2022-05-24 21:38:42</time>
      </trkpt>
      <trkpt lat="40.66275" lon="0.76319">
        <ele>9.2</ele>
        <time>2022-05-24 21:38:43</time>
      </trkpt>
      <trkpt lat="40.66277" lon="0.76313">
        <ele>9.2</ele>
        <time>2022-05-24 21:38:44</time>
      </trkpt>
      <trkpt lat="40.66279" lon="0.76307">
        <ele>9.4</ele>
        <time>2022-05-24 21:38:45</time>
      </trkpt>
      <trkpt lat="40.66282" lon="0.763">
        <ele>9.4</ele>
        <time>2022-05-24 21:38:46</time>
      </trkpt>
      <trkpt lat="40.66283" lon="0.76294">
        <ele>9.4</ele>
        <time>2022-05-24 21:38:47</time>
      </trkpt>
      <trkpt lat="40.66285" lon="0.76289">
        <ele>9.4</ele>
        <time>2022-05-24 21:38:48</time>
      </trkpt>
      <trkpt lat="40.66288" lon="0.76282">
        <ele>9.4</ele>
        <time>2022-05-24 21:38:49</time>
      </trkpt>
      <trkpt lat="40.6629" lon="0.76277">
        <ele>9.4</ele>
        <time>2022-05-24 21:38:50</time>
      </trkpt>
      <trkpt lat="40.66292" lon="0.76271">
        <ele>9.4</ele>
        <time>2022-05-24 21:38:51</time>
      </trkpt>
      <trkpt lat="40.66293" lon="0.76264">
        <ele>9.4</ele>
        <time>2022-05-24 21:38:52</time>
      </trkpt>
      <trkpt lat="40.66295" lon="0.76258">
        <ele>9.4</ele>
        <time>2022-05-24 21:38:53</time>
      </trkpt>
      <trkpt lat="40.66298" lon="0.76252">
        <ele>9.4</ele>
        <time>2022-05-24 21:38:54</time>
      </trkpt>
      <trkpt lat="40.66299" lon="0.76245">
        <ele>9.4</ele>
        <time>2022-05-24 21:38:55</time>
      </trkpt>
      <trkpt lat="40.66302" lon="0.76239">
        <ele>9.4</ele>
        <time>2022-05-24 21:38:56</time>
      </trkpt>
      <trkpt lat="40.66304" lon="0.76232">
        <ele>9.2</ele>
        <time>2022-05-24 21:38:57</time>
      </trkpt>
      <trkpt lat="40.66306" lon="0.76225">
        <ele>9.2</ele>
        <time>2022-05-24 21:38:58</time>
      </trkpt>
      <trkpt lat="40.66309" lon="0.76218">
        <ele>9.2</ele>
        <time>2022-05-24 21:38:59</time>
      </trkpt>
      <trkpt lat="40.66311" lon="0.76212">
        <ele>9.2</ele>
        <time>2022-05-24 21:39:00</time>
      </trkpt>
      <trkpt lat="40.66313" lon="0.76206">
        <ele>9.2</ele>
        <time>2022-05-24 21:39:01</time>
      </trkpt>
      <trkpt lat="40.66315" lon="0.762">
        <ele>9.2</ele>
        <time>2022-05-24 21:39:02</time>
      </trkpt>
      <trkpt lat="40.66317" lon="0.76194">
        <ele>9.2</ele>
        <time>2022-05-24 21:39:03</time>
      </trkpt>
      <trkpt lat="40.66319" lon="0.76188">
        <ele>9.2</ele>
        <time>2022-05-24 21:39:04</time>
      </trkpt>
      <trkpt lat="40.66322" lon="0.76183">
        <ele>9.2</ele>
        <time>2022-05-24 21:39:05</time>
      </trkpt>
      <trkpt lat="40.66323" lon="0.76177">
        <ele>9.4</ele>
        <time>2022-05-24 21:39:06</time>
      </trkpt>
      <trkpt lat="40.66326" lon="0.76171">
        <ele>9.4</ele>
        <time>2022-05-24 21:39:07</time>
      </trkpt>
      <trkpt lat="40.66328" lon="0.76164">
        <ele>9.2</ele>
        <time>2022-05-24 21:39:08</time>
      </trkpt>
      <trkpt lat="40.6633" lon="0.76158">
        <ele>9.2</ele>
        <time>2022-05-24 21:39:09</time>
      </trkpt>
      <trkpt lat="40.66332" lon="0.76151">
        <ele>9.2</ele>
        <time>2022-05-24 21:39:10</time>
      </trkpt>
      <trkpt lat="40.66335" lon="0.76145">
        <ele>9.2</ele>
        <time>2022-05-24 21:39:11</time>
      </trkpt>
      <trkpt lat="40.66337" lon="0.76138">
        <ele>9</ele>
        <time>2022-05-24 21:39:12</time>
      </trkpt>
      <trkpt lat="40.66339" lon="0.76131">
        <ele>9</ele>
        <time>2022-05-24 21:39:13</time>
      </trkpt>
      <trkpt lat="40.66342" lon="0.76125">
        <ele>9</ele>
        <time>2022-05-24 21:39:14</time>
      </trkpt>
      <trkpt lat="40.66344" lon="0.76118">
        <ele>9</ele>
        <time>2022-05-24 21:39:15</time>
      </trkpt>
      <trkpt lat="40.66346" lon="0.76112">
        <ele>8.8</ele>
        <time>2022-05-24 21:39:16</time>
      </trkpt>
      <trkpt lat="40.66348" lon="0.76106">
        <ele>8.8</ele>
        <time>2022-05-24 21:39:17</time>
      </trkpt>
      <trkpt lat="40.66351" lon="0.761">
        <ele>9</ele>
        <time>2022-05-24 21:39:18</time>
      </trkpt>
      <trkpt lat="40.66352" lon="0.76093">
        <ele>8.8</ele>
        <time>2022-05-24 21:39:19</time>
      </trkpt>
      <trkpt lat="40.66355" lon="0.76087">
        <ele>8.8</ele>
        <time>2022-05-24 21:39:20</time>
      </trkpt>
      <trkpt lat="40.66357" lon="0.7608">
        <ele>8.8</ele>
        <time>2022-05-24 21:39:21</time>
      </trkpt>
      <trkpt lat="40.66359" lon="0.76074">
        <ele>8.8</ele>
        <time>2022-05-24 21:39:22</time>
      </trkpt>
      <trkpt lat="40.66361" lon="0.76068">
        <ele>8.8</ele>
        <time>2022-05-24 21:39:23</time>
      </trkpt>
      <trkpt lat="40.66364" lon="0.76062">
        <ele>8.8</ele>
        <time>2022-05-24 21:39:24</time>
      </trkpt>
      <trkpt lat="40.66365" lon="0.76056">
        <ele>8.8</ele>
        <time>2022-05-24 21:39:25</time>
      </trkpt>
      <trkpt lat="40.66368" lon="0.76049">
        <ele>8.8</ele>
        <time>2022-05-24 21:39:26</time>
      </trkpt>
      <trkpt lat="40.6637" lon="0.76043">
        <ele>8.6</ele>
        <time>2022-05-24 21:39:27</time>
      </trkpt>
      <trkpt lat="40.66372" lon="0.76037">
        <ele>8.6</ele>
        <time>2022-05-24 21:39:28</time>
      </trkpt>
      <trkpt lat="40.66374" lon="0.76031">
        <ele>8.6</ele>
        <time>2022-05-24 21:39:29</time>
      </trkpt>
      <trkpt lat="40.66376" lon="0.76025">
        <ele>8.4</ele>
        <time>2022-05-24 21:39:30</time>
      </trkpt>
      <trkpt lat="40.66378" lon="0.76019">
        <ele>8.4</ele>
        <time>2022-05-24 21:39:31</time>
      </trkpt>
      <trkpt lat="40.6638" lon="0.76013">
        <ele>8.4</ele>
        <time>2022-05-24 21:39:32</time>
      </trkpt>
      <trkpt lat="40.66383" lon="0.76006">
        <ele>8.4</ele>
        <time>2022-05-24 21:39:33</time>
      </trkpt>
      <trkpt lat="40.66385" lon="0.76">
        <ele>8.4</ele>
        <time>2022-05-24 21:39:34</time>
      </trkpt>
      <trkpt lat="40.66386" lon="0.75994">
        <ele>8.4</ele>
        <time>2022-05-24 21:39:35</time>
      </trkpt>
      <trkpt lat="40.66389" lon="0.75988">
        <ele>8.2</ele>
        <time>2022-05-24 21:39:36</time>
      </trkpt>
      <trkpt lat="40.66391" lon="0.75981">
        <ele>8.2</ele>
        <time>2022-05-24 21:39:37</time>
      </trkpt>
      <trkpt lat="40.66393" lon="0.75975">
        <ele>8.2</ele>
        <time>2022-05-24 21:39:38</time>
      </trkpt>
      <trkpt lat="40.66396" lon="0.75969">
        <ele>8.2</ele>
        <time>2022-05-24 21:39:39</time>
      </trkpt>
      <trkpt lat="40.66398" lon="0.75962">
        <ele>8.4</ele>
        <time>2022-05-24 21:39:40</time>
      </trkpt>
      <trkpt lat="40.664" lon="0.75956">
        <ele>8.4</ele>
        <time>2022-05-24 21:39:41</time>
      </trkpt>
      <trkpt lat="40.66402" lon="0.7595">
        <ele>8.4</ele>
        <time>2022-05-24 21:39:42</time>
      </trkpt>
      <trkpt lat="40.66404" lon="0.75944">
        <ele>8.4</ele>
        <time>2022-05-24 21:39:43</time>
      </trkpt>
      <trkpt lat="40.66407" lon="0.75937">
        <ele>8.2</ele>
        <time>2022-05-24 21:39:44</time>
      </trkpt>
      <trkpt lat="40.66409" lon="0.7593">
        <ele>8.2</ele>
        <time>2022-05-24 21:39:45</time>
      </trkpt>
      <trkpt lat="40.66411" lon="0.75924">
        <ele>8.2</ele>
        <time>2022-05-24 21:39:46</time>
      </trkpt>
      <trkpt lat="40.66413" lon="0.75917">
        <ele>8.2</ele>
        <time>2022-05-24 21:39:47</time>
      </trkpt>
      <trkpt lat="40.66415" lon="0.7591">
        <ele>8.2</ele>
        <time>2022-05-24 21:39:48</time>
      </trkpt>
      <trkpt lat="40.66418" lon="0.75904">
        <ele>8.2</ele>
        <time>2022-05-24 21:39:49</time>
      </trkpt>
      <trkpt lat="40.6642" lon="0.75897">
        <ele>8.2</ele>
        <time>2022-05-24 21:39:50</time>
      </trkpt>
      <trkpt lat="40.66422" lon="0.75891">
        <ele>8.2</ele>
        <time>2022-05-24 21:39:51</time>
      </trkpt>
      <trkpt lat="40.66425" lon="0.75884">
        <ele>8.2</ele>
        <time>2022-05-24 21:39:52</time>
      </trkpt>
      <trkpt lat="40.66427" lon="0.75878">
        <ele>8.2</ele>
        <time>2022-05-24 21:39:53</time>
      </trkpt>
      <trkpt lat="40.66429" lon="0.75871">
        <ele>8.2</ele>
        <time>2022-05-24 21:39:54</time>
      </trkpt>
      <trkpt lat="40.66431" lon="0.75864">
        <ele>8</ele>
        <time>2022-05-24 21:39:55</time>
      </trkpt>
      <trkpt lat="40.66433" lon="0.75858">
        <ele>8</ele>
        <time>2022-05-24 21:39:56</time>
      </trkpt>
      <trkpt lat="40.66436" lon="0.75852">
        <ele>8</ele>
        <time>2022-05-24 21:39:57</time>
      </trkpt>
      <trkpt lat="40.66438" lon="0.75846">
        <ele>8</ele>
        <time>2022-05-24 21:39:58</time>
      </trkpt>
      <trkpt lat="40.6644" lon="0.7584">
        <ele>8</ele>
        <time>2022-05-24 21:39:59</time>
      </trkpt>
      <trkpt lat="40.66442" lon="0.75833">
        <ele>8</ele>
        <time>2022-05-24 21:40:00</time>
      </trkpt>
      <trkpt lat="40.66444" lon="0.75827">
        <ele>8</ele>
        <time>2022-05-24 21:40:01</time>
      </trkpt>
      <trkpt lat="40.66446" lon="0.75821">
        <ele>7.8</ele>
        <time>2022-05-24 21:40:02</time>
      </trkpt>
      <trkpt lat="40.66449" lon="0.75815">
        <ele>7.8</ele>
        <time>2022-05-24 21:40:03</time>
      </trkpt>
      <trkpt lat="40.66451" lon="0.75808">
        <ele>7.8</ele>
        <time>2022-05-24 21:40:04</time>
      </trkpt>
      <trkpt lat="40.66453" lon="0.75802">
        <ele>7.8</ele>
        <time>2022-05-24 21:40:05</time>
      </trkpt>
      <trkpt lat="40.66455" lon="0.75795">
        <ele>7.6</ele>
        <time>2022-05-24 21:40:06</time>
      </trkpt>
      <trkpt lat="40.66458" lon="0.75789">
        <ele>7.6</ele>
        <time>2022-05-24 21:40:07</time>
      </trkpt>
      <trkpt lat="40.6646" lon="0.75783">
        <ele>7.6</ele>
        <time>2022-05-24 21:40:08</time>
      </trkpt>
      <trkpt lat="40.66462" lon="0.75776">
        <ele>7.6</ele>
        <time>2022-05-24 21:40:09</time>
      </trkpt>
      <trkpt lat="40.66464" lon="0.7577">
        <ele>7.8</ele>
        <time>2022-05-24 21:40:10</time>
      </trkpt>
      <trkpt lat="40.66466" lon="0.75764">
        <ele>7.8</ele>
        <time>2022-05-24 21:40:11</time>
      </trkpt>
      <trkpt lat="40.66468" lon="0.75758">
        <ele>7.8</ele>
        <time>2022-05-24 21:40:12</time>
      </trkpt>
      <trkpt lat="40.66471" lon="0.75751">
        <ele>7.8</ele>
        <time>2022-05-24 21:40:13</time>
      </trkpt>
      <trkpt lat="40.66473" lon="0.75745">
        <ele>7.8</ele>
        <time>2022-05-24 21:40:14</time>
      </trkpt>
      <trkpt lat="40.66475" lon="0.75739">
        <ele>7.8</ele>
        <time>2022-05-24 21:40:15</time>
      </trkpt>
      <trkpt lat="40.66477" lon="0.75733">
        <ele>7.6</ele>
        <time>2022-05-24 21:40:16</time>
      </trkpt>
      <trkpt lat="40.66479" lon="0.75727">
        <ele>7.6</ele>
        <time>2022-05-24 21:40:17</time>
      </trkpt>
      <trkpt lat="40.66481" lon="0.75721">
        <ele>7.6</ele>
        <time>2022-05-24 21:40:18</time>
      </trkpt>
      <trkpt lat="40.66483" lon="0.75714">
        <ele>7.6</ele>
        <time>2022-05-24 21:40:19</time>
      </trkpt>
      <trkpt lat="40.66485" lon="0.75708">
        <ele>7.6</ele>
        <time>2022-05-24 21:40:20</time>
      </trkpt>
      <trkpt lat="40.66487" lon="0.75702">
        <ele>7.6</ele>
        <time>2022-05-24 21:40:21</time>
      </trkpt>
      <trkpt lat="40.66489" lon="0.75697">
        <ele>7.6</ele>
        <time>2022-05-24 21:40:22</time>
      </trkpt>
      <trkpt lat="40.66491" lon="0.75691">
        <ele>7.4</ele>
        <time>2022-05-24 21:40:23</time>
      </trkpt>
      <trkpt lat="40.66494" lon="0.75684">
        <ele>7.4</ele>
        <time>2022-05-24 21:40:24</time>
      </trkpt>
      <trkpt lat="40.66496" lon="0.75678">
        <ele>7.4</ele>
        <time>2022-05-24 21:40:25</time>
      </trkpt>
      <trkpt lat="40.66498" lon="0.75671">
        <ele>7.4</ele>
        <time>2022-05-24 21:40:26</time>
      </trkpt>
      <trkpt lat="40.665" lon="0.75665">
        <ele>7.4</ele>
        <time>2022-05-24 21:40:27</time>
      </trkpt>
      <trkpt lat="40.66502" lon="0.75659">
        <ele>7.4</ele>
        <time>2022-05-24 21:40:28</time>
      </trkpt>
      <trkpt lat="40.66505" lon="0.75652">
        <ele>7.4</ele>
        <time>2022-05-24 21:40:29</time>
      </trkpt>
      <trkpt lat="40.66507" lon="0.75646">
        <ele>7.4</ele>
        <time>2022-05-24 21:40:30</time>
      </trkpt>
      <trkpt lat="40.66509" lon="0.75639">
        <ele>7.4</ele>
        <time>2022-05-24 21:40:31</time>
      </trkpt>
      <trkpt lat="40.66511" lon="0.75633">
        <ele>7.4</ele>
        <time>2022-05-24 21:40:32</time>
      </trkpt>
      <trkpt lat="40.66513" lon="0.75627">
        <ele>7.4</ele>
        <time>2022-05-24 21:40:33</time>
      </trkpt>
      <trkpt lat="40.66515" lon="0.7562">
        <ele>7.4</ele>
        <time>2022-05-24 21:40:34</time>
      </trkpt>
      <trkpt lat="40.66517" lon="0.75614">
        <ele>7.4</ele>
        <time>2022-05-24 21:40:35</time>
      </trkpt>
      <trkpt lat="40.6652" lon="0.75607">
        <ele>7.4</ele>
        <time>2022-05-24 21:40:36</time>
      </trkpt>
      <trkpt lat="40.66522" lon="0.75601">
        <ele>7.4</ele>
        <time>2022-05-24 21:40:37</time>
      </trkpt>
      <trkpt lat="40.66524" lon="0.75594">
        <ele>7.4</ele>
        <time>2022-05-24 21:40:38</time>
      </trkpt>
      <trkpt lat="40.66526" lon="0.75588">
        <ele>7.4</ele>
        <time>2022-05-24 21:40:39</time>
      </trkpt>
      <trkpt lat="40.66529" lon="0.75581">
        <ele>7.4</ele>
        <time>2022-05-24 21:40:40</time>
      </trkpt>
      <trkpt lat="40.66531" lon="0.75575">
        <ele>7.4</ele>
        <time>2022-05-24 21:40:41</time>
      </trkpt>
      <trkpt lat="40.66533" lon="0.75569">
        <ele>7.4</ele>
        <time>2022-05-24 21:40:42</time>
      </trkpt>
      <trkpt lat="40.66536" lon="0.75562">
        <ele>7.4</ele>
        <time>2022-05-24 21:40:43</time>
      </trkpt>
      <trkpt lat="40.66538" lon="0.75555">
        <ele>7.2</ele>
        <time>2022-05-24 21:40:44</time>
      </trkpt>
      <trkpt lat="40.6654" lon="0.75549">
        <ele>7.2</ele>
        <time>2022-05-24 21:40:45</time>
      </trkpt>
      <trkpt lat="40.66543" lon="0.75543">
        <ele>7.2</ele>
        <time>2022-05-24 21:40:46</time>
      </trkpt>
      <trkpt lat="40.66545" lon="0.75537">
        <ele>7.2</ele>
        <time>2022-05-24 21:40:47</time>
      </trkpt>
      <trkpt lat="40.66547" lon="0.7553">
        <ele>7.2</ele>
        <time>2022-05-24 21:40:48</time>
      </trkpt>
      <trkpt lat="40.66549" lon="0.75523">
        <ele>7.4</ele>
        <time>2022-05-24 21:40:49</time>
      </trkpt>
      <trkpt lat="40.66552" lon="0.75517">
        <ele>7.4</ele>
        <time>2022-05-24 21:40:50</time>
      </trkpt>
      <trkpt lat="40.66554" lon="0.75511">
        <ele>7.4</ele>
        <time>2022-05-24 21:40:51</time>
      </trkpt>
      <trkpt lat="40.66556" lon="0.75506">
        <ele>7.4</ele>
        <time>2022-05-24 21:40:52</time>
      </trkpt>
      <trkpt lat="40.66559" lon="0.75498">
        <ele>7.4</ele>
        <time>2022-05-24 21:40:53</time>
      </trkpt>
      <trkpt lat="40.66561" lon="0.75492">
        <ele>7.4</ele>
        <time>2022-05-24 21:40:54</time>
      </trkpt>
      <trkpt lat="40.66563" lon="0.75485">
        <ele>7.4</ele>
        <time>2022-05-24 21:40:55</time>
      </trkpt>
      <trkpt lat="40.66565" lon="0.75479">
        <ele>7.4</ele>
        <time>2022-05-24 21:40:56</time>
      </trkpt>
      <trkpt lat="40.66567" lon="0.75473">
        <ele>7.2</ele>
        <time>2022-05-24 21:40:57</time>
      </trkpt>
      <trkpt lat="40.6657" lon="0.75467">
        <ele>7.2</ele>
        <time>2022-05-24 21:40:58</time>
      </trkpt>
      <trkpt lat="40.66572" lon="0.7546">
        <ele>7.2</ele>
        <time>2022-05-24 21:40:59</time>
      </trkpt>
      <trkpt lat="40.66574" lon="0.75454">
        <ele>7.2</ele>
        <time>2022-05-24 21:41:00</time>
      </trkpt>
      <trkpt lat="40.66576" lon="0.75448">
        <ele>7.2</ele>
        <time>2022-05-24 21:41:01</time>
      </trkpt>
      <trkpt lat="40.66578" lon="0.75442">
        <ele>7.2</ele>
        <time>2022-05-24 21:41:02</time>
      </trkpt>
      <trkpt lat="40.6658" lon="0.75436">
        <ele>7.2</ele>
        <time>2022-05-24 21:41:03</time>
      </trkpt>
      <trkpt lat="40.66582" lon="0.75429">
        <ele>7.2</ele>
        <time>2022-05-24 21:41:04</time>
      </trkpt>
      <trkpt lat="40.66584" lon="0.75423">
        <ele>7.2</ele>
        <time>2022-05-24 21:41:05</time>
      </trkpt>
      <trkpt lat="40.66587" lon="0.75417">
        <ele>7.2</ele>
        <time>2022-05-24 21:41:06</time>
      </trkpt>
      <trkpt lat="40.66589" lon="0.7541">
        <ele>7.2</ele>
        <time>2022-05-24 21:41:07</time>
      </trkpt>
      <trkpt lat="40.66591" lon="0.75404">
        <ele>7.2</ele>
        <time>2022-05-24 21:41:08</time>
      </trkpt>
      <trkpt lat="40.66593" lon="0.75397">
        <ele>7.2</ele>
        <time>2022-05-24 21:41:09</time>
      </trkpt>
      <trkpt lat="40.66595" lon="0.7539">
        <ele>7.2</ele>
        <time>2022-05-24 21:41:10</time>
      </trkpt>
      <trkpt lat="40.66597" lon="0.75384">
        <ele>7.2</ele>
        <time>2022-05-24 21:41:11</time>
      </trkpt>
      <trkpt lat="40.66599" lon="0.75377">
        <ele>7.2</ele>
        <time>2022-05-24 21:41:12</time>
      </trkpt>
      <trkpt lat="40.66601" lon="0.75371">
        <ele>7.2</ele>
        <time>2022-05-24 21:41:13</time>
      </trkpt>
      <trkpt lat="40.66603" lon="0.75365">
        <ele>7.4</ele>
        <time>2022-05-24 21:41:14</time>
      </trkpt>
      <trkpt lat="40.66605" lon="0.75358">
        <ele>7.4</ele>
        <time>2022-05-24 21:41:15</time>
      </trkpt>
      <trkpt lat="40.66608" lon="0.75352">
        <ele>7.4</ele>
        <time>2022-05-24 21:41:16</time>
      </trkpt>
      <trkpt lat="40.6661" lon="0.75346">
        <ele>7.4</ele>
        <time>2022-05-24 21:41:17</time>
      </trkpt>
      <trkpt lat="40.66612" lon="0.7534">
        <ele>7.4</ele>
        <time>2022-05-24 21:41:18</time>
      </trkpt>
      <trkpt lat="40.66614" lon="0.75334">
        <ele>7.4</ele>
        <time>2022-05-24 21:41:19</time>
      </trkpt>
      <trkpt lat="40.66616" lon="0.75328">
        <ele>7.4</ele>
        <time>2022-05-24 21:41:20</time>
      </trkpt>
      <trkpt lat="40.66618" lon="0.75323">
        <ele>7.4</ele>
        <time>2022-05-24 21:41:21</time>
      </trkpt>
      <trkpt lat="40.66619" lon="0.75317">
        <ele>7.2</ele>
        <time>2022-05-24 21:41:22</time>
      </trkpt>
      <trkpt lat="40.66621" lon="0.75311">
        <ele>7.2</ele>
        <time>2022-05-24 21:41:23</time>
      </trkpt>
      <trkpt lat="40.66624" lon="0.75305">
        <ele>7.2</ele>
        <time>2022-05-24 21:41:24</time>
      </trkpt>
      <trkpt lat="40.66626" lon="0.75299">
        <ele>7.2</ele>
        <time>2022-05-24 21:41:25</time>
      </trkpt>
      <trkpt lat="40.66628" lon="0.75293">
        <ele>7.2</ele>
        <time>2022-05-24 21:41:26</time>
      </trkpt>
      <trkpt lat="40.66629" lon="0.75287">
        <ele>7.2</ele>
        <time>2022-05-24 21:41:27</time>
      </trkpt>
      <trkpt lat="40.66632" lon="0.7528">
        <ele>7.2</ele>
        <time>2022-05-24 21:41:28</time>
      </trkpt>
      <trkpt lat="40.66634" lon="0.75274">
        <ele>7.2</ele>
        <time>2022-05-24 21:41:29</time>
      </trkpt>
      <trkpt lat="40.66636" lon="0.75268">
        <ele>7.2</ele>
        <time>2022-05-24 21:41:30</time>
      </trkpt>
      <trkpt lat="40.66638" lon="0.75262">
        <ele>7.2</ele>
        <time>2022-05-24 21:41:31</time>
      </trkpt>
      <trkpt lat="40.6664" lon="0.75256">
        <ele>7.2</ele>
        <time>2022-05-24 21:41:32</time>
      </trkpt>
      <trkpt lat="40.66642" lon="0.7525">
        <ele>7.2</ele>
        <time>2022-05-24 21:41:33</time>
      </trkpt>
      <trkpt lat="40.66644" lon="0.75244">
        <ele>7.2</ele>
        <time>2022-05-24 21:41:34</time>
      </trkpt>
      <trkpt lat="40.66646" lon="0.75237">
        <ele>7.2</ele>
        <time>2022-05-24 21:41:35</time>
      </trkpt>
      <trkpt lat="40.66648" lon="0.75231">
        <ele>7.2</ele>
        <time>2022-05-24 21:41:36</time>
      </trkpt>
      <trkpt lat="40.66651" lon="0.75224">
        <ele>7.2</ele>
        <time>2022-05-24 21:41:37</time>
      </trkpt>
      <trkpt lat="40.66653" lon="0.75218">
        <ele>7.2</ele>
        <time>2022-05-24 21:41:38</time>
      </trkpt>
      <trkpt lat="40.66655" lon="0.75212">
        <ele>7.2</ele>
        <time>2022-05-24 21:41:39</time>
      </trkpt>
      <trkpt lat="40.66657" lon="0.75206">
        <ele>7.4</ele>
        <time>2022-05-24 21:41:40</time>
      </trkpt>
      <trkpt lat="40.66659" lon="0.752">
        <ele>7.4</ele>
        <time>2022-05-24 21:41:41</time>
      </trkpt>
      <trkpt lat="40.66661" lon="0.75194">
        <ele>7.4</ele>
        <time>2022-05-24 21:41:42</time>
      </trkpt>
      <trkpt lat="40.66663" lon="0.75188">
        <ele>7.4</ele>
        <time>2022-05-24 21:41:43</time>
      </trkpt>
      <trkpt lat="40.66665" lon="0.75182">
        <ele>7.4</ele>
        <time>2022-05-24 21:41:44</time>
      </trkpt>
      <trkpt lat="40.66667" lon="0.75176">
        <ele>7.4</ele>
        <time>2022-05-24 21:41:45</time>
      </trkpt>
      <trkpt lat="40.66669" lon="0.75171">
        <ele>7.4</ele>
        <time>2022-05-24 21:41:46</time>
      </trkpt>
      <trkpt lat="40.66672" lon="0.75165">
        <ele>7.4</ele>
        <time>2022-05-24 21:41:47</time>
      </trkpt>
      <trkpt lat="40.66674" lon="0.75159">
        <ele>7.4</ele>
        <time>2022-05-24 21:41:48</time>
      </trkpt>
      <trkpt lat="40.66676" lon="0.75153">
        <ele>7.4</ele>
        <time>2022-05-24 21:41:49</time>
      </trkpt>
      <trkpt lat="40.66677" lon="0.75147">
        <ele>7.4</ele>
        <time>2022-05-24 21:41:50</time>
      </trkpt>
      <trkpt lat="40.66679" lon="0.75141">
        <ele>7.4</ele>
        <time>2022-05-24 21:41:51</time>
      </trkpt>
      <trkpt lat="40.66682" lon="0.75136">
        <ele>7.6</ele>
        <time>2022-05-24 21:41:52</time>
      </trkpt>
      <trkpt lat="40.66684" lon="0.7513">
        <ele>7.6</ele>
        <time>2022-05-24 21:41:53</time>
      </trkpt>
      <trkpt lat="40.66686" lon="0.75124">
        <ele>7.6</ele>
        <time>2022-05-24 21:41:54</time>
      </trkpt>
      <trkpt lat="40.66688" lon="0.75118">
        <ele>7.6</ele>
        <time>2022-05-24 21:41:55</time>
      </trkpt>
      <trkpt lat="40.6669" lon="0.75112">
        <ele>7.6</ele>
        <time>2022-05-24 21:41:56</time>
      </trkpt>
      <trkpt lat="40.66692" lon="0.75106">
        <ele>7.6</ele>
        <time>2022-05-24 21:41:57</time>
      </trkpt>
      <trkpt lat="40.66694" lon="0.751">
        <ele>7.6</ele>
        <time>2022-05-24 21:41:58</time>
      </trkpt>
      <trkpt lat="40.66696" lon="0.75094">
        <ele>7.6</ele>
        <time>2022-05-24 21:41:59</time>
      </trkpt>
      <trkpt lat="40.66698" lon="0.75088">
        <ele>7.6</ele>
        <time>2022-05-24 21:42:00</time>
      </trkpt>
      <trkpt lat="40.667" lon="0.75082">
        <ele>7.6</ele>
        <time>2022-05-24 21:42:01</time>
      </trkpt>
      <trkpt lat="40.66702" lon="0.75076">
        <ele>7.6</ele>
        <time>2022-05-24 21:42:02</time>
      </trkpt>
      <trkpt lat="40.66704" lon="0.75071">
        <ele>7.6</ele>
        <time>2022-05-24 21:42:03</time>
      </trkpt>
      <trkpt lat="40.66706" lon="0.75065">
        <ele>7.6</ele>
        <time>2022-05-24 21:42:04</time>
      </trkpt>
      <trkpt lat="40.66708" lon="0.75059">
        <ele>7.6</ele>
        <time>2022-05-24 21:42:05</time>
      </trkpt>
      <trkpt lat="40.66711" lon="0.75053">
        <ele>7.6</ele>
        <time>2022-05-24 21:42:06</time>
      </trkpt>
      <trkpt lat="40.66713" lon="0.75047">
        <ele>7.6</ele>
        <time>2022-05-24 21:42:07</time>
      </trkpt>
      <trkpt lat="40.66714" lon="0.75041">
        <ele>7.8</ele>
        <time>2022-05-24 21:42:08</time>
      </trkpt>
      <trkpt lat="40.66716" lon="0.75035">
        <ele>7.8</ele>
        <time>2022-05-24 21:42:09</time>
      </trkpt>
      <trkpt lat="40.66719" lon="0.75028">
        <ele>7.8</ele>
        <time>2022-05-24 21:42:10</time>
      </trkpt>
      <trkpt lat="40.66721" lon="0.75022">
        <ele>7.8</ele>
        <time>2022-05-24 21:42:11</time>
      </trkpt>
      <trkpt lat="40.66723" lon="0.75016">
        <ele>7.8</ele>
        <time>2022-05-24 21:42:12</time>
      </trkpt>
      <trkpt lat="40.66725" lon="0.7501">
        <ele>7.8</ele>
        <time>2022-05-24 21:42:13</time>
      </trkpt>
      <trkpt lat="40.66727" lon="0.75004">
        <ele>7.8</ele>
        <time>2022-05-24 21:42:14</time>
      </trkpt>
      <trkpt lat="40.66729" lon="0.74998">
        <ele>7.8</ele>
        <time>2022-05-24 21:42:15</time>
      </trkpt>
      <trkpt lat="40.66731" lon="0.74991">
        <ele>8</ele>
        <time>2022-05-24 21:42:16</time>
      </trkpt>
      <trkpt lat="40.66733" lon="0.74985">
        <ele>8</ele>
        <time>2022-05-24 21:42:17</time>
      </trkpt>
      <trkpt lat="40.66735" lon="0.74979">
        <ele>8</ele>
        <time>2022-05-24 21:42:18</time>
      </trkpt>
      <trkpt lat="40.66737" lon="0.74973">
        <ele>8</ele>
        <time>2022-05-24 21:42:19</time>
      </trkpt>
      <trkpt lat="40.6674" lon="0.74967">
        <ele>8</ele>
        <time>2022-05-24 21:42:20</time>
      </trkpt>
      <trkpt lat="40.66742" lon="0.74961">
        <ele>8</ele>
        <time>2022-05-24 21:42:21</time>
      </trkpt>
      <trkpt lat="40.66744" lon="0.74955">
        <ele>8</ele>
        <time>2022-05-24 21:42:22</time>
      </trkpt>
      <trkpt lat="40.66746" lon="0.74949">
        <ele>8</ele>
        <time>2022-05-24 21:42:23</time>
      </trkpt>
      <trkpt lat="40.66748" lon="0.74942">
        <ele>8</ele>
        <time>2022-05-24 21:42:24</time>
      </trkpt>
      <trkpt lat="40.6675" lon="0.74936">
        <ele>8</ele>
        <time>2022-05-24 21:42:25</time>
      </trkpt>
      <trkpt lat="40.66752" lon="0.7493">
        <ele>8</ele>
        <time>2022-05-24 21:42:26</time>
      </trkpt>
      <trkpt lat="40.66755" lon="0.74924">
        <ele>8</ele>
        <time>2022-05-24 21:42:27</time>
      </trkpt>
      <trkpt lat="40.66757" lon="0.74917">
        <ele>7.8</ele>
        <time>2022-05-24 21:42:28</time>
      </trkpt>
      <trkpt lat="40.66759" lon="0.74911">
        <ele>7.8</ele>
        <time>2022-05-24 21:42:29</time>
      </trkpt>
      <trkpt lat="40.66761" lon="0.74905">
        <ele>7.8</ele>
        <time>2022-05-24 21:42:30</time>
      </trkpt>
      <trkpt lat="40.66763" lon="0.74899">
        <ele>7.6</ele>
        <time>2022-05-24 21:42:31</time>
      </trkpt>
      <trkpt lat="40.66766" lon="0.74892">
        <ele>7.6</ele>
        <time>2022-05-24 21:42:32</time>
      </trkpt>
      <trkpt lat="40.66768" lon="0.74886">
        <ele>7.4</ele>
        <time>2022-05-24 21:42:33</time>
      </trkpt>
      <trkpt lat="40.6677" lon="0.74879">
        <ele>7.4</ele>
        <time>2022-05-24 21:42:34</time>
      </trkpt>
      <trkpt lat="40.66772" lon="0.74873">
        <ele>7.4</ele>
        <time>2022-05-24 21:42:35</time>
      </trkpt>
      <trkpt lat="40.66774" lon="0.74867">
        <ele>7.2</ele>
        <time>2022-05-24 21:42:36</time>
      </trkpt>
      <trkpt lat="40.66777" lon="0.74861">
        <ele>7.2</ele>
        <time>2022-05-24 21:42:37</time>
      </trkpt>
      <trkpt lat="40.66779" lon="0.74854">
        <ele>7.2</ele>
        <time>2022-05-24 21:42:38</time>
      </trkpt>
      <trkpt lat="40.66781" lon="0.74848">
        <ele>7.4</ele>
        <time>2022-05-24 21:42:39</time>
      </trkpt>
      <trkpt lat="40.66783" lon="0.74842">
        <ele>7.2</ele>
        <time>2022-05-24 21:42:40</time>
      </trkpt>
      <trkpt lat="40.66785" lon="0.74835">
        <ele>7.2</ele>
        <time>2022-05-24 21:42:41</time>
      </trkpt>
      <trkpt lat="40.66787" lon="0.74828">
        <ele>7.2</ele>
        <time>2022-05-24 21:42:42</time>
      </trkpt>
      <trkpt lat="40.6679" lon="0.74823">
        <ele>7.4</ele>
        <time>2022-05-24 21:42:43</time>
      </trkpt>
      <trkpt lat="40.66792" lon="0.74816">
        <ele>7.4</ele>
        <time>2022-05-24 21:42:44</time>
      </trkpt>
      <trkpt lat="40.66794" lon="0.74809">
        <ele>7.4</ele>
        <time>2022-05-24 21:42:45</time>
      </trkpt>
      <trkpt lat="40.66796" lon="0.74803">
        <ele>7.4</ele>
        <time>2022-05-24 21:42:46</time>
      </trkpt>
      <trkpt lat="40.66798" lon="0.74796">
        <ele>7.6</ele>
        <time>2022-05-24 21:42:47</time>
      </trkpt>
      <trkpt lat="40.66801" lon="0.7479">
        <ele>7.6</ele>
        <time>2022-05-24 21:42:48</time>
      </trkpt>
      <trkpt lat="40.66803" lon="0.74783">
        <ele>7.4</ele>
        <time>2022-05-24 21:42:49</time>
      </trkpt>
      <trkpt lat="40.66805" lon="0.74777">
        <ele>7.4</ele>
        <time>2022-05-24 21:42:50</time>
      </trkpt>
      <trkpt lat="40.66807" lon="0.7477">
        <ele>7.4</ele>
        <time>2022-05-24 21:42:51</time>
      </trkpt>
      <trkpt lat="40.66809" lon="0.74764">
        <ele>7.2</ele>
        <time>2022-05-24 21:42:52</time>
      </trkpt>
      <trkpt lat="40.66812" lon="0.74757">
        <ele>7.2</ele>
        <time>2022-05-24 21:42:53</time>
      </trkpt>
      <trkpt lat="40.66814" lon="0.74751">
        <ele>7.2</ele>
        <time>2022-05-24 21:42:54</time>
      </trkpt>
      <trkpt lat="40.66817" lon="0.74744">
        <ele>7.2</ele>
        <time>2022-05-24 21:42:55</time>
      </trkpt>
      <trkpt lat="40.66818" lon="0.74738">
        <ele>7.2</ele>
        <time>2022-05-24 21:42:56</time>
      </trkpt>
      <trkpt lat="40.66821" lon="0.74732">
        <ele>7.2</ele>
        <time>2022-05-24 21:42:57</time>
      </trkpt>
      <trkpt lat="40.66822" lon="0.74726">
        <ele>7.2</ele>
        <time>2022-05-24 21:42:58</time>
      </trkpt>
      <trkpt lat="40.66824" lon="0.7472">
        <ele>7.2</ele>
        <time>2022-05-24 21:42:59</time>
      </trkpt>
      <trkpt lat="40.66826" lon="0.74714">
        <ele>7.4</ele>
        <time>2022-05-24 21:43:00</time>
      </trkpt>
      <trkpt lat="40.66829" lon="0.74709">
        <ele>7.2</ele>
        <time>2022-05-24 21:43:01</time>
      </trkpt>
      <trkpt lat="40.66831" lon="0.74703">
        <ele>7.4</ele>
        <time>2022-05-24 21:43:02</time>
      </trkpt>
      <trkpt lat="40.66833" lon="0.74697">
        <ele>7.4</ele>
        <time>2022-05-24 21:43:03</time>
      </trkpt>
      <trkpt lat="40.66835" lon="0.74691">
        <ele>7.4</ele>
        <time>2022-05-24 21:43:04</time>
      </trkpt>
      <trkpt lat="40.66837" lon="0.74685">
        <ele>7.4</ele>
        <time>2022-05-24 21:43:05</time>
      </trkpt>
      <trkpt lat="40.66839" lon="0.74679">
        <ele>7.4</ele>
        <time>2022-05-24 21:43:06</time>
      </trkpt>
      <trkpt lat="40.66842" lon="0.74672">
        <ele>7.4</ele>
        <time>2022-05-24 21:43:07</time>
      </trkpt>
      <trkpt lat="40.66843" lon="0.74666">
        <ele>7.4</ele>
        <time>2022-05-24 21:43:08</time>
      </trkpt>
      <trkpt lat="40.66846" lon="0.7466">
        <ele>7.4</ele>
        <time>2022-05-24 21:43:09</time>
      </trkpt>
      <trkpt lat="40.66848" lon="0.74654">
        <ele>7.4</ele>
        <time>2022-05-24 21:43:10</time>
      </trkpt>
      <trkpt lat="40.6685" lon="0.74648">
        <ele>7.4</ele>
        <time>2022-05-24 21:43:11</time>
      </trkpt>
      <trkpt lat="40.66852" lon="0.74642">
        <ele>7.4</ele>
        <time>2022-05-24 21:43:12</time>
      </trkpt>
      <trkpt lat="40.66854" lon="0.74636">
        <ele>7.4</ele>
        <time>2022-05-24 21:43:13</time>
      </trkpt>
      <trkpt lat="40.66856" lon="0.7463">
        <ele>7.4</ele>
        <time>2022-05-24 21:43:14</time>
      </trkpt>
      <trkpt lat="40.66858" lon="0.74624">
        <ele>7.4</ele>
        <time>2022-05-24 21:43:15</time>
      </trkpt>
      <trkpt lat="40.6686" lon="0.74618">
        <ele>7.4</ele>
        <time>2022-05-24 21:43:16</time>
      </trkpt>
      <trkpt lat="40.66862" lon="0.74612">
        <ele>7.6</ele>
        <time>2022-05-24 21:43:17</time>
      </trkpt>
      <trkpt lat="40.66864" lon="0.74606">
        <ele>7.6</ele>
        <time>2022-05-24 21:43:18</time>
      </trkpt>
      <trkpt lat="40.66866" lon="0.746">
        <ele>7.6</ele>
        <time>2022-05-24 21:43:19</time>
      </trkpt>
      <trkpt lat="40.66868" lon="0.74594">
        <ele>7.6</ele>
        <time>2022-05-24 21:43:20</time>
      </trkpt>
      <trkpt lat="40.66871" lon="0.74588">
        <ele>7.6</ele>
        <time>2022-05-24 21:43:21</time>
      </trkpt>
      <trkpt lat="40.66873" lon="0.74582">
        <ele>7.6</ele>
        <time>2022-05-24 21:43:22</time>
      </trkpt>
      <trkpt lat="40.66875" lon="0.74577">
        <ele>7.6</ele>
        <time>2022-05-24 21:43:23</time>
      </trkpt>
      <trkpt lat="40.66877" lon="0.7457">
        <ele>7.8</ele>
        <time>2022-05-24 21:43:24</time>
      </trkpt>
      <trkpt lat="40.66879" lon="0.74564">
        <ele>7.8</ele>
        <time>2022-05-24 21:43:25</time>
      </trkpt>
      <trkpt lat="40.66881" lon="0.74558">
        <ele>7.6</ele>
        <time>2022-05-24 21:43:26</time>
      </trkpt>
      <trkpt lat="40.66883" lon="0.74552">
        <ele>7.6</ele>
        <time>2022-05-24 21:43:27</time>
      </trkpt>
      <trkpt lat="40.66885" lon="0.74545">
        <ele>7.6</ele>
        <time>2022-05-24 21:43:28</time>
      </trkpt>
      <trkpt lat="40.66887" lon="0.74539">
        <ele>7.6</ele>
        <time>2022-05-24 21:43:29</time>
      </trkpt>
      <trkpt lat="40.66889" lon="0.74533">
        <ele>7.6</ele>
        <time>2022-05-24 21:43:30</time>
      </trkpt>
      <trkpt lat="40.66891" lon="0.74527">
        <ele>7.8</ele>
        <time>2022-05-24 21:43:31</time>
      </trkpt>
      <trkpt lat="40.66893" lon="0.7452">
        <ele>7.8</ele>
        <time>2022-05-24 21:43:32</time>
      </trkpt>
      <trkpt lat="40.66895" lon="0.74514">
        <ele>7.8</ele>
        <time>2022-05-24 21:43:33</time>
      </trkpt>
      <trkpt lat="40.66898" lon="0.74508">
        <ele>7.8</ele>
        <time>2022-05-24 21:43:34</time>
      </trkpt>
      <trkpt lat="40.669" lon="0.74502">
        <ele>7.8</ele>
        <time>2022-05-24 21:43:35</time>
      </trkpt>
      <trkpt lat="40.66902" lon="0.74496">
        <ele>7.6</ele>
        <time>2022-05-24 21:43:36</time>
      </trkpt>
      <trkpt lat="40.66904" lon="0.74491">
        <ele>7.8</ele>
        <time>2022-05-24 21:43:37</time>
      </trkpt>
      <trkpt lat="40.66906" lon="0.74486">
        <ele>7.8</ele>
        <time>2022-05-24 21:43:38</time>
      </trkpt>
      <trkpt lat="40.66907" lon="0.7448">
        <ele>7.8</ele>
        <time>2022-05-24 21:43:39</time>
      </trkpt>
      <trkpt lat="40.66909" lon="0.74475">
        <ele>7.8</ele>
        <time>2022-05-24 21:43:40</time>
      </trkpt>
      <trkpt lat="40.66912" lon="0.74469">
        <ele>7.6</ele>
        <time>2022-05-24 21:43:41</time>
      </trkpt>
      <trkpt lat="40.66914" lon="0.74463">
        <ele>7.6</ele>
        <time>2022-05-24 21:43:42</time>
      </trkpt>
      <trkpt lat="40.66916" lon="0.74457">
        <ele>7.6</ele>
        <time>2022-05-24 21:43:43</time>
      </trkpt>
      <trkpt lat="40.66917" lon="0.74451">
        <ele>7.6</ele>
        <time>2022-05-24 21:43:44</time>
      </trkpt>
      <trkpt lat="40.66919" lon="0.74445">
        <ele>7.6</ele>
        <time>2022-05-24 21:43:45</time>
      </trkpt>
      <trkpt lat="40.66922" lon="0.74439">
        <ele>7.6</ele>
        <time>2022-05-24 21:43:46</time>
      </trkpt>
      <trkpt lat="40.66924" lon="0.74433">
        <ele>7.6</ele>
        <time>2022-05-24 21:43:47</time>
      </trkpt>
      <trkpt lat="40.66926" lon="0.74428">
        <ele>7.6</ele>
        <time>2022-05-24 21:43:48</time>
      </trkpt>
      <trkpt lat="40.66928" lon="0.74422">
        <ele>7.6</ele>
        <time>2022-05-24 21:43:49</time>
      </trkpt>
      <trkpt lat="40.6693" lon="0.74416">
        <ele>7.6</ele>
        <time>2022-05-24 21:43:50</time>
      </trkpt>
      <trkpt lat="40.66932" lon="0.74411">
        <ele>7.6</ele>
        <time>2022-05-24 21:43:51</time>
      </trkpt>
      <trkpt lat="40.66934" lon="0.74404">
        <ele>7.6</ele>
        <time>2022-05-24 21:43:52</time>
      </trkpt>
      <trkpt lat="40.66936" lon="0.74399">
        <ele>7.6</ele>
        <time>2022-05-24 21:43:53</time>
      </trkpt>
      <trkpt lat="40.66938" lon="0.74393">
        <ele>7.6</ele>
        <time>2022-05-24 21:43:54</time>
      </trkpt>
      <trkpt lat="40.6694" lon="0.74387">
        <ele>7.6</ele>
        <time>2022-05-24 21:43:55</time>
      </trkpt>
      <trkpt lat="40.66942" lon="0.74382">
        <ele>7.6</ele>
        <time>2022-05-24 21:43:56</time>
      </trkpt>
      <trkpt lat="40.66943" lon="0.74376">
        <ele>7.6</ele>
        <time>2022-05-24 21:43:57</time>
      </trkpt>
      <trkpt lat="40.66945" lon="0.7437">
        <ele>7.6</ele>
        <time>2022-05-24 21:43:58</time>
      </trkpt>
      <trkpt lat="40.66947" lon="0.74365">
        <ele>7.4</ele>
        <time>2022-05-24 21:43:59</time>
      </trkpt>
      <trkpt lat="40.66949" lon="0.74359">
        <ele>7.4</ele>
        <time>2022-05-24 21:44:00</time>
      </trkpt>
      <trkpt lat="40.66951" lon="0.74353">
        <ele>7.4</ele>
        <time>2022-05-24 21:44:01</time>
      </trkpt>
      <trkpt lat="40.66953" lon="0.74348">
        <ele>7.4</ele>
        <time>2022-05-24 21:44:02</time>
      </trkpt>
      <trkpt lat="40.66956" lon="0.74342">
        <ele>7.4</ele>
        <time>2022-05-24 21:44:03</time>
      </trkpt>
      <trkpt lat="40.66957" lon="0.74336">
        <ele>7.4</ele>
        <time>2022-05-24 21:44:04</time>
      </trkpt>
      <trkpt lat="40.66959" lon="0.7433">
        <ele>7.4</ele>
        <time>2022-05-24 21:44:05</time>
      </trkpt>
      <trkpt lat="40.66961" lon="0.74325">
        <ele>7.4</ele>
        <time>2022-05-24 21:44:06</time>
      </trkpt>
      <trkpt lat="40.66963" lon="0.74319">
        <ele>7.4</ele>
        <time>2022-05-24 21:44:07</time>
      </trkpt>
      <trkpt lat="40.66965" lon="0.74313">
        <ele>7.4</ele>
        <time>2022-05-24 21:44:08</time>
      </trkpt>
      <trkpt lat="40.66968" lon="0.74306">
        <ele>7.4</ele>
        <time>2022-05-24 21:44:09</time>
      </trkpt>
      <trkpt lat="40.6697" lon="0.743">
        <ele>7.4</ele>
        <time>2022-05-24 21:44:10</time>
      </trkpt>
      <trkpt lat="40.66972" lon="0.74294">
        <ele>7.4</ele>
        <time>2022-05-24 21:44:11</time>
      </trkpt>
      <trkpt lat="40.66974" lon="0.74288">
        <ele>7.4</ele>
        <time>2022-05-24 21:44:12</time>
      </trkpt>
      <trkpt lat="40.66976" lon="0.74282">
        <ele>7.4</ele>
        <time>2022-05-24 21:44:13</time>
      </trkpt>
      <trkpt lat="40.66978" lon="0.74276">
        <ele>7.4</ele>
        <time>2022-05-24 21:44:14</time>
      </trkpt>
      <trkpt lat="40.6698" lon="0.7427">
        <ele>7.4</ele>
        <time>2022-05-24 21:44:15</time>
      </trkpt>
      <trkpt lat="40.66982" lon="0.74264">
        <ele>7.4</ele>
        <time>2022-05-24 21:44:16</time>
      </trkpt>
      <trkpt lat="40.66984" lon="0.74258">
        <ele>7.4</ele>
        <time>2022-05-24 21:44:17</time>
      </trkpt>
      <trkpt lat="40.66986" lon="0.74252">
        <ele>7.4</ele>
        <time>2022-05-24 21:44:18</time>
      </trkpt>
      <trkpt lat="40.66988" lon="0.74246">
        <ele>7.4</ele>
        <time>2022-05-24 21:44:19</time>
      </trkpt>
      <trkpt lat="40.66991" lon="0.7424">
        <ele>7.4</ele>
        <time>2022-05-24 21:44:20</time>
      </trkpt>
      <trkpt lat="40.66993" lon="0.74234">
        <ele>7.4</ele>
        <time>2022-05-24 21:44:21</time>
      </trkpt>
      <trkpt lat="40.66994" lon="0.74228">
        <ele>7.4</ele>
        <time>2022-05-24 21:44:22</time>
      </trkpt>
      <trkpt lat="40.66996" lon="0.74222">
        <ele>7.4</ele>
        <time>2022-05-24 21:44:23</time>
      </trkpt>
      <trkpt lat="40.66999" lon="0.74217">
        <ele>7.4</ele>
        <time>2022-05-24 21:44:24</time>
      </trkpt>
      <trkpt lat="40.67" lon="0.74211">
        <ele>7.4</ele>
        <time>2022-05-24 21:44:25</time>
      </trkpt>
      <trkpt lat="40.67002" lon="0.74205">
        <ele>7.4</ele>
        <time>2022-05-24 21:44:26</time>
      </trkpt>
      <trkpt lat="40.67004" lon="0.74199">
        <ele>7.4</ele>
        <time>2022-05-24 21:44:27</time>
      </trkpt>
      <trkpt lat="40.67006" lon="0.74193">
        <ele>7.4</ele>
        <time>2022-05-24 21:44:28</time>
      </trkpt>
      <trkpt lat="40.67008" lon="0.74187">
        <ele>7.6</ele>
        <time>2022-05-24 21:44:29</time>
      </trkpt>
      <trkpt lat="40.6701" lon="0.74182">
        <ele>7.6</ele>
        <time>2022-05-24 21:44:30</time>
      </trkpt>
      <trkpt lat="40.67012" lon="0.74176">
        <ele>7.6</ele>
        <time>2022-05-24 21:44:31</time>
      </trkpt>
      <trkpt lat="40.67014" lon="0.7417">
        <ele>7.6</ele>
        <time>2022-05-24 21:44:32</time>
      </trkpt>
      <trkpt lat="40.67016" lon="0.74164">
        <ele>7.6</ele>
        <time>2022-05-24 21:44:33</time>
      </trkpt>
      <trkpt lat="40.67019" lon="0.74158">
        <ele>7.6</ele>
        <time>2022-05-24 21:44:34</time>
      </trkpt>
      <trkpt lat="40.6702" lon="0.74152">
        <ele>7.6</ele>
        <time>2022-05-24 21:44:35</time>
      </trkpt>
      <trkpt lat="40.67023" lon="0.74146">
        <ele>7.6</ele>
        <time>2022-05-24 21:44:36</time>
      </trkpt>
      <trkpt lat="40.67025" lon="0.7414">
        <ele>7.6</ele>
        <time>2022-05-24 21:44:37</time>
      </trkpt>
      <trkpt lat="40.67027" lon="0.74134">
        <ele>7.6</ele>
        <time>2022-05-24 21:44:38</time>
      </trkpt>
      <trkpt lat="40.67029" lon="0.74128">
        <ele>7.6</ele>
        <time>2022-05-24 21:44:39</time>
      </trkpt>
      <trkpt lat="40.67031" lon="0.74122">
        <ele>7.6</ele>
        <time>2022-05-24 21:44:40</time>
      </trkpt>
      <trkpt lat="40.67033" lon="0.74115">
        <ele>7.6</ele>
        <time>2022-05-24 21:44:41</time>
      </trkpt>
      <trkpt lat="40.67036" lon="0.74109">
        <ele>7.6</ele>
        <time>2022-05-24 21:44:42</time>
      </trkpt>
      <trkpt lat="40.67038" lon="0.74103">
        <ele>7.6</ele>
        <time>2022-05-24 21:44:43</time>
      </trkpt>
      <trkpt lat="40.6704" lon="0.74097">
        <ele>7.6</ele>
        <time>2022-05-24 21:44:44</time>
      </trkpt>
      <trkpt lat="40.67042" lon="0.74091">
        <ele>7.6</ele>
        <time>2022-05-24 21:44:45</time>
      </trkpt>
      <trkpt lat="40.67044" lon="0.74085">
        <ele>7.6</ele>
        <time>2022-05-24 21:44:46</time>
      </trkpt>
      <trkpt lat="40.67046" lon="0.74078">
        <ele>7.6</ele>
        <time>2022-05-24 21:44:47</time>
      </trkpt>
      <trkpt lat="40.67048" lon="0.74072">
        <ele>7.6</ele>
        <time>2022-05-24 21:44:48</time>
      </trkpt>
      <trkpt lat="40.6705" lon="0.74066">
        <ele>7.6</ele>
        <time>2022-05-24 21:44:49</time>
      </trkpt>
      <trkpt lat="40.67052" lon="0.7406">
        <ele>7.6</ele>
        <time>2022-05-24 21:44:50</time>
      </trkpt>
      <trkpt lat="40.67054" lon="0.74054">
        <ele>7.6</ele>
        <time>2022-05-24 21:44:51</time>
      </trkpt>
      <trkpt lat="40.67056" lon="0.74048">
        <ele>7.6</ele>
        <time>2022-05-24 21:44:52</time>
      </trkpt>
      <trkpt lat="40.67059" lon="0.74042">
        <ele>7.6</ele>
        <time>2022-05-24 21:44:53</time>
      </trkpt>
      <trkpt lat="40.6706" lon="0.74037">
        <ele>7.6</ele>
        <time>2022-05-24 21:44:54</time>
      </trkpt>
      <trkpt lat="40.67062" lon="0.74032">
        <ele>7.6</ele>
        <time>2022-05-24 21:44:55</time>
      </trkpt>
      <trkpt lat="40.67064" lon="0.74027">
        <ele>7.6</ele>
        <time>2022-05-24 21:44:56</time>
      </trkpt>
      <trkpt lat="40.67066" lon="0.74021">
        <ele>7.6</ele>
        <time>2022-05-24 21:44:57</time>
      </trkpt>
      <trkpt lat="40.67067" lon="0.74016">
        <ele>7.6</ele>
        <time>2022-05-24 21:44:58</time>
      </trkpt>
      <trkpt lat="40.67069" lon="0.7401">
        <ele>7.8</ele>
        <time>2022-05-24 21:44:59</time>
      </trkpt>
      <trkpt lat="40.67071" lon="0.74004">
        <ele>7.8</ele>
        <time>2022-05-24 21:45:00</time>
      </trkpt>
      <trkpt lat="40.67073" lon="0.73998">
        <ele>7.8</ele>
        <time>2022-05-24 21:45:01</time>
      </trkpt>
      <trkpt lat="40.67075" lon="0.73992">
        <ele>7.6</ele>
        <time>2022-05-24 21:45:02</time>
      </trkpt>
      <trkpt lat="40.67077" lon="0.73986">
        <ele>7.8</ele>
        <time>2022-05-24 21:45:03</time>
      </trkpt>
      <trkpt lat="40.6708" lon="0.7398">
        <ele>7.8</ele>
        <time>2022-05-24 21:45:04</time>
      </trkpt>
      <trkpt lat="40.67081" lon="0.73974">
        <ele>8</ele>
        <time>2022-05-24 21:45:05</time>
      </trkpt>
      <trkpt lat="40.67083" lon="0.73968">
        <ele>8</ele>
        <time>2022-05-24 21:45:06</time>
      </trkpt>
      <trkpt lat="40.67086" lon="0.73962">
        <ele>8</ele>
        <time>2022-05-24 21:45:07</time>
      </trkpt>
      <trkpt lat="40.67088" lon="0.73955">
        <ele>8</ele>
        <time>2022-05-24 21:45:08</time>
      </trkpt>
      <trkpt lat="40.67089" lon="0.73949">
        <ele>8</ele>
        <time>2022-05-24 21:45:09</time>
      </trkpt>
      <trkpt lat="40.67091" lon="0.73943">
        <ele>8</ele>
        <time>2022-05-24 21:45:10</time>
      </trkpt>
      <trkpt lat="40.67094" lon="0.73937">
        <ele>7.6</ele>
        <time>2022-05-24 21:45:11</time>
      </trkpt>
      <trkpt lat="40.67096" lon="0.73931">
        <ele>7.4</ele>
        <time>2022-05-24 21:45:12</time>
      </trkpt>
      <trkpt lat="40.67098" lon="0.73925">
        <ele>7.4</ele>
        <time>2022-05-24 21:45:13</time>
      </trkpt>
      <trkpt lat="40.671" lon="0.73919">
        <ele>7.4</ele>
        <time>2022-05-24 21:45:14</time>
      </trkpt>
      <trkpt lat="40.67102" lon="0.73913">
        <ele>7.4</ele>
        <time>2022-05-24 21:45:15</time>
      </trkpt>
      <trkpt lat="40.67104" lon="0.73908">
        <ele>7.4</ele>
        <time>2022-05-24 21:45:16</time>
      </trkpt>
      <trkpt lat="40.67107" lon="0.73901">
        <ele>7.4</ele>
        <time>2022-05-24 21:45:17</time>
      </trkpt>
      <trkpt lat="40.67109" lon="0.73895">
        <ele>7.4</ele>
        <time>2022-05-24 21:45:18</time>
      </trkpt>
      <trkpt lat="40.67111" lon="0.73888">
        <ele>7.4</ele>
        <time>2022-05-24 21:45:19</time>
      </trkpt>
      <trkpt lat="40.67113" lon="0.73882">
        <ele>7.4</ele>
        <time>2022-05-24 21:45:20</time>
      </trkpt>
      <trkpt lat="40.67115" lon="0.73876">
        <ele>7.4</ele>
        <time>2022-05-24 21:45:21</time>
      </trkpt>
      <trkpt lat="40.67117" lon="0.73869">
        <ele>7.6</ele>
        <time>2022-05-24 21:45:22</time>
      </trkpt>
      <trkpt lat="40.67119" lon="0.73863">
        <ele>7.6</ele>
        <time>2022-05-24 21:45:23</time>
      </trkpt>
      <trkpt lat="40.67122" lon="0.73857">
        <ele>7.4</ele>
        <time>2022-05-24 21:45:24</time>
      </trkpt>
      <trkpt lat="40.67124" lon="0.73851">
        <ele>7.4</ele>
        <time>2022-05-24 21:45:25</time>
      </trkpt>
      <trkpt lat="40.67126" lon="0.73845">
        <ele>7.4</ele>
        <time>2022-05-24 21:45:26</time>
      </trkpt>
      <trkpt lat="40.67128" lon="0.73838">
        <ele>7.2</ele>
        <time>2022-05-24 21:45:27</time>
      </trkpt>
      <trkpt lat="40.67131" lon="0.73832">
        <ele>7.2</ele>
        <time>2022-05-24 21:45:28</time>
      </trkpt>
      <trkpt lat="40.67133" lon="0.73826">
        <ele>7.2</ele>
        <time>2022-05-24 21:45:29</time>
      </trkpt>
      <trkpt lat="40.67135" lon="0.7382">
        <ele>7.2</ele>
        <time>2022-05-24 21:45:30</time>
      </trkpt>
      <trkpt lat="40.67137" lon="0.73814">
        <ele>7.2</ele>
        <time>2022-05-24 21:45:31</time>
      </trkpt>
      <trkpt lat="40.67139" lon="0.73807">
        <ele>7.2</ele>
        <time>2022-05-24 21:45:32</time>
      </trkpt>
      <trkpt lat="40.67141" lon="0.73801">
        <ele>7.2</ele>
        <time>2022-05-24 21:45:33</time>
      </trkpt>
      <trkpt lat="40.67144" lon="0.73795">
        <ele>7.2</ele>
        <time>2022-05-24 21:45:34</time>
      </trkpt>
      <trkpt lat="40.67145" lon="0.73789">
        <ele>7.2</ele>
        <time>2022-05-24 21:45:35</time>
      </trkpt>
      <trkpt lat="40.67148" lon="0.73783">
        <ele>7.2</ele>
        <time>2022-05-24 21:45:36</time>
      </trkpt>
      <trkpt lat="40.6715" lon="0.73776">
        <ele>7.2</ele>
        <time>2022-05-24 21:45:37</time>
      </trkpt>
      <trkpt lat="40.67152" lon="0.7377">
        <ele>7.2</ele>
        <time>2022-05-24 21:45:38</time>
      </trkpt>
      <trkpt lat="40.67154" lon="0.73765">
        <ele>7.2</ele>
        <time>2022-05-24 21:45:39</time>
      </trkpt>
      <trkpt lat="40.67156" lon="0.73757">
        <ele>7.2</ele>
        <time>2022-05-24 21:45:40</time>
      </trkpt>
      <trkpt lat="40.67159" lon="0.7375">
        <ele>7.2</ele>
        <time>2022-05-24 21:45:41</time>
      </trkpt>
      <trkpt lat="40.67161" lon="0.73744">
        <ele>7.2</ele>
        <time>2022-05-24 21:45:42</time>
      </trkpt>
      <trkpt lat="40.67163" lon="0.73737">
        <ele>7.2</ele>
        <time>2022-05-24 21:45:43</time>
      </trkpt>
      <trkpt lat="40.67165" lon="0.7373">
        <ele>7.2</ele>
        <time>2022-05-24 21:45:44</time>
      </trkpt>
      <trkpt lat="40.67168" lon="0.73722">
        <ele>7.2</ele>
        <time>2022-05-24 21:45:45</time>
      </trkpt>
      <trkpt lat="40.6717" lon="0.73714">
        <ele>7.2</ele>
        <time>2022-05-24 21:45:46</time>
      </trkpt>
      <trkpt lat="40.67173" lon="0.73707">
        <ele>7</ele>
        <time>2022-05-24 21:45:47</time>
      </trkpt>
      <trkpt lat="40.67176" lon="0.737">
        <ele>7</ele>
        <time>2022-05-24 21:45:48</time>
      </trkpt>
      <trkpt lat="40.67178" lon="0.73692">
        <ele>7</ele>
        <time>2022-05-24 21:45:49</time>
      </trkpt>
      <trkpt lat="40.67181" lon="0.73685">
        <ele>7</ele>
        <time>2022-05-24 21:45:50</time>
      </trkpt>
      <trkpt lat="40.67183" lon="0.73678">
        <ele>7.2</ele>
        <time>2022-05-24 21:45:51</time>
      </trkpt>
      <trkpt lat="40.67185" lon="0.7367">
        <ele>7.2</ele>
        <time>2022-05-24 21:45:52</time>
      </trkpt>
      <trkpt lat="40.67187" lon="0.73663">
        <ele>7.2</ele>
        <time>2022-05-24 21:45:53</time>
      </trkpt>
      <trkpt lat="40.67189" lon="0.73656">
        <ele>7</ele>
        <time>2022-05-24 21:45:54</time>
      </trkpt>
      <trkpt lat="40.67192" lon="0.73648">
        <ele>7</ele>
        <time>2022-05-24 21:45:55</time>
      </trkpt>
      <trkpt lat="40.67195" lon="0.73641">
        <ele>7</ele>
        <time>2022-05-24 21:45:56</time>
      </trkpt>
      <trkpt lat="40.67197" lon="0.73633">
        <ele>7</ele>
        <time>2022-05-24 21:45:57</time>
      </trkpt>
      <trkpt lat="40.672" lon="0.73626">
        <ele>7</ele>
        <time>2022-05-24 21:45:58</time>
      </trkpt>
      <trkpt lat="40.67202" lon="0.7362">
        <ele>7</ele>
        <time>2022-05-24 21:45:59</time>
      </trkpt>
      <trkpt lat="40.67205" lon="0.73612">
        <ele>6.8</ele>
        <time>2022-05-24 21:46:00</time>
      </trkpt>
      <trkpt lat="40.67207" lon="0.73605">
        <ele>6.8</ele>
        <time>2022-05-24 21:46:01</time>
      </trkpt>
      <trkpt lat="40.67209" lon="0.73598">
        <ele>6.8</ele>
        <time>2022-05-24 21:46:02</time>
      </trkpt>
      <trkpt lat="40.67212" lon="0.73592">
        <ele>6.8</ele>
        <time>2022-05-24 21:46:03</time>
      </trkpt>
      <trkpt lat="40.67213" lon="0.73586">
        <ele>6.8</ele>
        <time>2022-05-24 21:46:04</time>
      </trkpt>
      <trkpt lat="40.67215" lon="0.7358">
        <ele>6.8</ele>
        <time>2022-05-24 21:46:05</time>
      </trkpt>
      <trkpt lat="40.67217" lon="0.73575">
        <ele>6.8</ele>
        <time>2022-05-24 21:46:06</time>
      </trkpt>
      <trkpt lat="40.67219" lon="0.73569">
        <ele>6.6</ele>
        <time>2022-05-24 21:46:07</time>
      </trkpt>
      <trkpt lat="40.67221" lon="0.73563">
        <ele>6.6</ele>
        <time>2022-05-24 21:46:08</time>
      </trkpt>
      <trkpt lat="40.67224" lon="0.73557">
        <ele>6.6</ele>
        <time>2022-05-24 21:46:09</time>
      </trkpt>
      <trkpt lat="40.67226" lon="0.73551">
        <ele>6.6</ele>
        <time>2022-05-24 21:46:10</time>
      </trkpt>
      <trkpt lat="40.67228" lon="0.73545">
        <ele>6.6</ele>
        <time>2022-05-24 21:46:11</time>
      </trkpt>
      <trkpt lat="40.67231" lon="0.7354">
        <ele>6.6</ele>
        <time>2022-05-24 21:46:12</time>
      </trkpt>
      <trkpt lat="40.67233" lon="0.73534">
        <ele>6.6</ele>
        <time>2022-05-24 21:46:13</time>
      </trkpt>
      <trkpt lat="40.67234" lon="0.73528">
        <ele>6.6</ele>
        <time>2022-05-24 21:46:14</time>
      </trkpt>
      <trkpt lat="40.67236" lon="0.73522">
        <ele>6.6</ele>
        <time>2022-05-24 21:46:15</time>
      </trkpt>
      <trkpt lat="40.67239" lon="0.73516">
        <ele>6.8</ele>
        <time>2022-05-24 21:46:16</time>
      </trkpt>
      <trkpt lat="40.67241" lon="0.7351">
        <ele>7</ele>
        <time>2022-05-24 21:46:17</time>
      </trkpt>
      <trkpt lat="40.67242" lon="0.73504">
        <ele>7</ele>
        <time>2022-05-24 21:46:18</time>
      </trkpt>
      <trkpt lat="40.67244" lon="0.73498">
        <ele>7.2</ele>
        <time>2022-05-24 21:46:19</time>
      </trkpt>
      <trkpt lat="40.67246" lon="0.73492">
        <ele>7.2</ele>
        <time>2022-05-24 21:46:20</time>
      </trkpt>
      <trkpt lat="40.67248" lon="0.73486">
        <ele>7.2</ele>
        <time>2022-05-24 21:46:21</time>
      </trkpt>
      <trkpt lat="40.6725" lon="0.7348">
        <ele>7.2</ele>
        <time>2022-05-24 21:46:22</time>
      </trkpt>
      <trkpt lat="40.67252" lon="0.73475">
        <ele>7.2</ele>
        <time>2022-05-24 21:46:23</time>
      </trkpt>
      <trkpt lat="40.67254" lon="0.73469">
        <ele>7.2</ele>
        <time>2022-05-24 21:46:24</time>
      </trkpt>
      <trkpt lat="40.67257" lon="0.73464">
        <ele>7.2</ele>
        <time>2022-05-24 21:46:25</time>
      </trkpt>
      <trkpt lat="40.67258" lon="0.73458">
        <ele>7.2</ele>
        <time>2022-05-24 21:46:26</time>
      </trkpt>
      <trkpt lat="40.6726" lon="0.73452">
        <ele>7.2</ele>
        <time>2022-05-24 21:46:27</time>
      </trkpt>
      <trkpt lat="40.67262" lon="0.73447">
        <ele>7</ele>
        <time>2022-05-24 21:46:28</time>
      </trkpt>
      <trkpt lat="40.67264" lon="0.73441">
        <ele>7</ele>
        <time>2022-05-24 21:46:29</time>
      </trkpt>
      <trkpt lat="40.67266" lon="0.73436">
        <ele>7</ele>
        <time>2022-05-24 21:46:30</time>
      </trkpt>
      <trkpt lat="40.67268" lon="0.7343">
        <ele>7</ele>
        <time>2022-05-24 21:46:31</time>
      </trkpt>
      <trkpt lat="40.6727" lon="0.73424">
        <ele>7</ele>
        <time>2022-05-24 21:46:32</time>
      </trkpt>
      <trkpt lat="40.67272" lon="0.73419">
        <ele>7</ele>
        <time>2022-05-24 21:46:33</time>
      </trkpt>
      <trkpt lat="40.67274" lon="0.73413">
        <ele>7</ele>
        <time>2022-05-24 21:46:34</time>
      </trkpt>
      <trkpt lat="40.67276" lon="0.73409">
        <ele>7</ele>
        <time>2022-05-24 21:46:35</time>
      </trkpt>
      <trkpt lat="40.67278" lon="0.73403">
        <ele>7</ele>
        <time>2022-05-24 21:46:36</time>
      </trkpt>
      <trkpt lat="40.67279" lon="0.73398">
        <ele>7</ele>
        <time>2022-05-24 21:46:37</time>
      </trkpt>
      <trkpt lat="40.67281" lon="0.73393">
        <ele>6.8</ele>
        <time>2022-05-24 21:46:38</time>
      </trkpt>
      <trkpt lat="40.67282" lon="0.73387">
        <ele>6.8</ele>
        <time>2022-05-24 21:46:39</time>
      </trkpt>
      <trkpt lat="40.67284" lon="0.73382">
        <ele>6.8</ele>
        <time>2022-05-24 21:46:40</time>
      </trkpt>
      <trkpt lat="40.67286" lon="0.73376">
        <ele>6.6</ele>
        <time>2022-05-24 21:46:41</time>
      </trkpt>
      <trkpt lat="40.67289" lon="0.7337">
        <ele>6.8</ele>
        <time>2022-05-24 21:46:42</time>
      </trkpt>
      <trkpt lat="40.6729" lon="0.73364">
        <ele>6.8</ele>
        <time>2022-05-24 21:46:43</time>
      </trkpt>
      <trkpt lat="40.67292" lon="0.73358">
        <ele>6.8</ele>
        <time>2022-05-24 21:46:44</time>
      </trkpt>
      <trkpt lat="40.67295" lon="0.73352">
        <ele>6.8</ele>
        <time>2022-05-24 21:46:45</time>
      </trkpt>
      <trkpt lat="40.67297" lon="0.73346">
        <ele>7</ele>
        <time>2022-05-24 21:46:46</time>
      </trkpt>
      <trkpt lat="40.67299" lon="0.7334">
        <ele>7</ele>
        <time>2022-05-24 21:46:47</time>
      </trkpt>
      <trkpt lat="40.67301" lon="0.73334">
        <ele>7</ele>
        <time>2022-05-24 21:46:48</time>
      </trkpt>
      <trkpt lat="40.67302" lon="0.73328">
        <ele>7.2</ele>
        <time>2022-05-24 21:46:49</time>
      </trkpt>
      <trkpt lat="40.67304" lon="0.73323">
        <ele>7.2</ele>
        <time>2022-05-24 21:46:50</time>
      </trkpt>
      <trkpt lat="40.67307" lon="0.73316">
        <ele>7.2</ele>
        <time>2022-05-24 21:46:51</time>
      </trkpt>
      <trkpt lat="40.67309" lon="0.73311">
        <ele>7.2</ele>
        <time>2022-05-24 21:46:52</time>
      </trkpt>
      <trkpt lat="40.6731" lon="0.73305">
        <ele>7.2</ele>
        <time>2022-05-24 21:46:53</time>
      </trkpt>
      <trkpt lat="40.67312" lon="0.733">
        <ele>7.2</ele>
        <time>2022-05-24 21:46:54</time>
      </trkpt>
      <trkpt lat="40.67314" lon="0.73295">
        <ele>7.4</ele>
        <time>2022-05-24 21:46:55</time>
      </trkpt>
      <trkpt lat="40.67316" lon="0.73289">
        <ele>7.4</ele>
        <time>2022-05-24 21:46:56</time>
      </trkpt>
      <trkpt lat="40.67318" lon="0.73283">
        <ele>7.4</ele>
        <time>2022-05-24 21:46:57</time>
      </trkpt>
      <trkpt lat="40.67319" lon="0.73277">
        <ele>7.4</ele>
        <time>2022-05-24 21:46:58</time>
      </trkpt>
      <trkpt lat="40.67321" lon="0.73272">
        <ele>7.4</ele>
        <time>2022-05-24 21:46:59</time>
      </trkpt>
      <trkpt lat="40.67323" lon="0.73267">
        <ele>7.4</ele>
        <time>2022-05-24 21:47:00</time>
      </trkpt>
      <trkpt lat="40.67326" lon="0.73261">
        <ele>7.4</ele>
        <time>2022-05-24 21:47:01</time>
      </trkpt>
      <trkpt lat="40.67327" lon="0.73255">
        <ele>7.4</ele>
        <time>2022-05-24 21:47:02</time>
      </trkpt>
      <trkpt lat="40.67329" lon="0.7325">
        <ele>7.4</ele>
        <time>2022-05-24 21:47:03</time>
      </trkpt>
      <trkpt lat="40.67331" lon="0.73244">
        <ele>7.6</ele>
        <time>2022-05-24 21:47:04</time>
      </trkpt>
      <trkpt lat="40.67333" lon="0.73239">
        <ele>7.4</ele>
        <time>2022-05-24 21:47:05</time>
      </trkpt>
      <trkpt lat="40.67335" lon="0.73233">
        <ele>7.4</ele>
        <time>2022-05-24 21:47:06</time>
      </trkpt>
      <trkpt lat="40.67337" lon="0.73228">
        <ele>7.6</ele>
        <time>2022-05-24 21:47:07</time>
      </trkpt>
      <trkpt lat="40.67339" lon="0.73222">
        <ele>7.4</ele>
        <time>2022-05-24 21:47:08</time>
      </trkpt>
      <trkpt lat="40.67341" lon="0.73216">
        <ele>7.4</ele>
        <time>2022-05-24 21:47:09</time>
      </trkpt>
      <trkpt lat="40.67343" lon="0.7321">
        <ele>7.4</ele>
        <time>2022-05-24 21:47:10</time>
      </trkpt>
      <trkpt lat="40.67344" lon="0.73205">
        <ele>7.4</ele>
        <time>2022-05-24 21:47:11</time>
      </trkpt>
      <trkpt lat="40.67347" lon="0.73198">
        <ele>7.4</ele>
        <time>2022-05-24 21:47:12</time>
      </trkpt>
      <trkpt lat="40.67349" lon="0.73193">
        <ele>7.4</ele>
        <time>2022-05-24 21:47:13</time>
      </trkpt>
      <trkpt lat="40.67351" lon="0.73187">
        <ele>7.4</ele>
        <time>2022-05-24 21:47:14</time>
      </trkpt>
      <trkpt lat="40.67353" lon="0.73181">
        <ele>7.4</ele>
        <time>2022-05-24 21:47:15</time>
      </trkpt>
      <trkpt lat="40.67355" lon="0.73174">
        <ele>7.2</ele>
        <time>2022-05-24 21:47:16</time>
      </trkpt>
      <trkpt lat="40.67357" lon="0.73168">
        <ele>7.2</ele>
        <time>2022-05-24 21:47:17</time>
      </trkpt>
      <trkpt lat="40.6736" lon="0.73162">
        <ele>7.2</ele>
        <time>2022-05-24 21:47:18</time>
      </trkpt>
      <trkpt lat="40.67361" lon="0.73156">
        <ele>7.2</ele>
        <time>2022-05-24 21:47:19</time>
      </trkpt>
      <trkpt lat="40.67364" lon="0.7315">
        <ele>7.2</ele>
        <time>2022-05-24 21:47:20</time>
      </trkpt>
      <trkpt lat="40.67366" lon="0.73144">
        <ele>7.2</ele>
        <time>2022-05-24 21:47:21</time>
      </trkpt>
      <trkpt lat="40.67368" lon="0.73138">
        <ele>7.2</ele>
        <time>2022-05-24 21:47:22</time>
      </trkpt>
      <trkpt lat="40.67369" lon="0.73133">
        <ele>7</ele>
        <time>2022-05-24 21:47:23</time>
      </trkpt>
      <trkpt lat="40.67371" lon="0.73128">
        <ele>7</ele>
        <time>2022-05-24 21:47:24</time>
      </trkpt>
      <trkpt lat="40.67373" lon="0.73122">
        <ele>7</ele>
        <time>2022-05-24 21:47:25</time>
      </trkpt>
      <trkpt lat="40.67375" lon="0.73117">
        <ele>7</ele>
        <time>2022-05-24 21:47:26</time>
      </trkpt>
      <trkpt lat="40.67377" lon="0.73112">
        <ele>7</ele>
        <time>2022-05-24 21:47:27</time>
      </trkpt>
      <trkpt lat="40.67379" lon="0.73106">
        <ele>7</ele>
        <time>2022-05-24 21:47:28</time>
      </trkpt>
      <trkpt lat="40.6738" lon="0.73101">
        <ele>7</ele>
        <time>2022-05-24 21:47:29</time>
      </trkpt>
      <trkpt lat="40.67382" lon="0.73095">
        <ele>7</ele>
        <time>2022-05-24 21:47:30</time>
      </trkpt>
      <trkpt lat="40.67384" lon="0.7309">
        <ele>7</ele>
        <time>2022-05-24 21:47:31</time>
      </trkpt>
      <trkpt lat="40.67386" lon="0.73083">
        <ele>7</ele>
        <time>2022-05-24 21:47:32</time>
      </trkpt>
      <trkpt lat="40.67388" lon="0.73078">
        <ele>7</ele>
        <time>2022-05-24 21:47:33</time>
      </trkpt>
      <trkpt lat="40.6739" lon="0.73072">
        <ele>7</ele>
        <time>2022-05-24 21:47:34</time>
      </trkpt>
      <trkpt lat="40.67392" lon="0.73066">
        <ele>7.2</ele>
        <time>2022-05-24 21:47:35</time>
      </trkpt>
      <trkpt lat="40.67394" lon="0.7306">
        <ele>7.2</ele>
        <time>2022-05-24 21:47:36</time>
      </trkpt>
      <trkpt lat="40.67396" lon="0.73055">
        <ele>7.2</ele>
        <time>2022-05-24 21:47:37</time>
      </trkpt>
      <trkpt lat="40.67398" lon="0.73049">
        <ele>7.2</ele>
        <time>2022-05-24 21:47:38</time>
      </trkpt>
      <trkpt lat="40.674" lon="0.73043">
        <ele>7.2</ele>
        <time>2022-05-24 21:47:39</time>
      </trkpt>
      <trkpt lat="40.67402" lon="0.73037">
        <ele>7.2</ele>
        <time>2022-05-24 21:47:40</time>
      </trkpt>
      <trkpt lat="40.67403" lon="0.73031">
        <ele>7.2</ele>
        <time>2022-05-24 21:47:41</time>
      </trkpt>
      <trkpt lat="40.67405" lon="0.73025">
        <ele>7.2</ele>
        <time>2022-05-24 21:47:42</time>
      </trkpt>
      <trkpt lat="40.67408" lon="0.73019">
        <ele>7.2</ele>
        <time>2022-05-24 21:47:43</time>
      </trkpt>
      <trkpt lat="40.67409" lon="0.73014">
        <ele>7.2</ele>
        <time>2022-05-24 21:47:44</time>
      </trkpt>
      <trkpt lat="40.67411" lon="0.73007">
        <ele>7.2</ele>
        <time>2022-05-24 21:47:45</time>
      </trkpt>
      <trkpt lat="40.67413" lon="0.73001">
        <ele>7.4</ele>
        <time>2022-05-24 21:47:46</time>
      </trkpt>
      <trkpt lat="40.67415" lon="0.72996">
        <ele>7.4</ele>
        <time>2022-05-24 21:47:47</time>
      </trkpt>
      <trkpt lat="40.67418" lon="0.7299">
        <ele>7.4</ele>
        <time>2022-05-24 21:47:48</time>
      </trkpt>
      <trkpt lat="40.6742" lon="0.72984">
        <ele>7.4</ele>
        <time>2022-05-24 21:47:49</time>
      </trkpt>
      <trkpt lat="40.67421" lon="0.72978">
        <ele>7.4</ele>
        <time>2022-05-24 21:47:50</time>
      </trkpt>
      <trkpt lat="40.67424" lon="0.72972">
        <ele>7.4</ele>
        <time>2022-05-24 21:47:51</time>
      </trkpt>
      <trkpt lat="40.67426" lon="0.72966">
        <ele>7.4</ele>
        <time>2022-05-24 21:47:52</time>
      </trkpt>
      <trkpt lat="40.67428" lon="0.7296">
        <ele>7.4</ele>
        <time>2022-05-24 21:47:53</time>
      </trkpt>
      <trkpt lat="40.6743" lon="0.72954">
        <ele>7.4</ele>
        <time>2022-05-24 21:47:54</time>
      </trkpt>
      <trkpt lat="40.67431" lon="0.72949">
        <ele>7.6</ele>
        <time>2022-05-24 21:47:55</time>
      </trkpt>
      <trkpt lat="40.67434" lon="0.72943">
        <ele>7.6</ele>
        <time>2022-05-24 21:47:56</time>
      </trkpt>
      <trkpt lat="40.67436" lon="0.72937">
        <ele>7.6</ele>
        <time>2022-05-24 21:47:57</time>
      </trkpt>
      <trkpt lat="40.67438" lon="0.72931">
        <ele>7.8</ele>
        <time>2022-05-24 21:47:58</time>
      </trkpt>
      <trkpt lat="40.6744" lon="0.72925">
        <ele>7.6</ele>
        <time>2022-05-24 21:47:59</time>
      </trkpt>
      <trkpt lat="40.67442" lon="0.72919">
        <ele>7.8</ele>
        <time>2022-05-24 21:48:00</time>
      </trkpt>
      <trkpt lat="40.67444" lon="0.72913">
        <ele>7.8</ele>
        <time>2022-05-24 21:48:01</time>
      </trkpt>
      <trkpt lat="40.67446" lon="0.72907">
        <ele>7.8</ele>
        <time>2022-05-24 21:48:02</time>
      </trkpt>
      <trkpt lat="40.67448" lon="0.729">
        <ele>7.8</ele>
        <time>2022-05-24 21:48:03</time>
      </trkpt>
      <trkpt lat="40.6745" lon="0.72894">
        <ele>7.6</ele>
        <time>2022-05-24 21:48:04</time>
      </trkpt>
      <trkpt lat="40.67452" lon="0.72888">
        <ele>7.6</ele>
        <time>2022-05-24 21:48:05</time>
      </trkpt>
      <trkpt lat="40.67454" lon="0.72882">
        <ele>7.6</ele>
        <time>2022-05-24 21:48:06</time>
      </trkpt>
      <trkpt lat="40.67456" lon="0.72876">
        <ele>7.6</ele>
        <time>2022-05-24 21:48:07</time>
      </trkpt>
      <trkpt lat="40.67458" lon="0.7287">
        <ele>7.6</ele>
        <time>2022-05-24 21:48:08</time>
      </trkpt>
      <trkpt lat="40.67461" lon="0.72864">
        <ele>7.4</ele>
        <time>2022-05-24 21:48:09</time>
      </trkpt>
      <trkpt lat="40.67463" lon="0.72858">
        <ele>7.4</ele>
        <time>2022-05-24 21:48:10</time>
      </trkpt>
      <trkpt lat="40.67465" lon="0.72852">
        <ele>7.4</ele>
        <time>2022-05-24 21:48:11</time>
      </trkpt>
      <trkpt lat="40.67467" lon="0.72845">
        <ele>7.4</ele>
        <time>2022-05-24 21:48:12</time>
      </trkpt>
      <trkpt lat="40.67469" lon="0.7284">
        <ele>7.2</ele>
        <time>2022-05-24 21:48:13</time>
      </trkpt>
      <trkpt lat="40.67471" lon="0.72835">
        <ele>7.2</ele>
        <time>2022-05-24 21:48:14</time>
      </trkpt>
      <trkpt lat="40.67472" lon="0.7283">
        <ele>7</ele>
        <time>2022-05-24 21:48:15</time>
      </trkpt>
      <trkpt lat="40.67475" lon="0.72822">
        <ele>7</ele>
        <time>2022-05-24 21:48:16</time>
      </trkpt>
      <trkpt lat="40.67477" lon="0.72816">
        <ele>7</ele>
        <time>2022-05-24 21:48:17</time>
      </trkpt>
      <trkpt lat="40.67479" lon="0.7281">
        <ele>7</ele>
        <time>2022-05-24 21:48:18</time>
      </trkpt>
      <trkpt lat="40.67481" lon="0.72804">
        <ele>7</ele>
        <time>2022-05-24 21:48:19</time>
      </trkpt>
      <trkpt lat="40.67484" lon="0.72798">
        <ele>7</ele>
        <time>2022-05-24 21:48:20</time>
      </trkpt>
      <trkpt lat="40.67485" lon="0.72793">
        <ele>7</ele>
        <time>2022-05-24 21:48:21</time>
      </trkpt>
      <trkpt lat="40.67488" lon="0.72787">
        <ele>7</ele>
        <time>2022-05-24 21:48:22</time>
      </trkpt>
      <trkpt lat="40.6749" lon="0.72781">
        <ele>7</ele>
        <time>2022-05-24 21:48:23</time>
      </trkpt>
      <trkpt lat="40.67491" lon="0.72775">
        <ele>7.2</ele>
        <time>2022-05-24 21:48:24</time>
      </trkpt>
      <trkpt lat="40.67493" lon="0.7277">
        <ele>7.2</ele>
        <time>2022-05-24 21:48:25</time>
      </trkpt>
      <trkpt lat="40.67495" lon="0.72764">
        <ele>7.2</ele>
        <time>2022-05-24 21:48:26</time>
      </trkpt>
      <trkpt lat="40.67497" lon="0.72758">
        <ele>7</ele>
        <time>2022-05-24 21:48:27</time>
      </trkpt>
      <trkpt lat="40.67499" lon="0.72752">
        <ele>7</ele>
        <time>2022-05-24 21:48:28</time>
      </trkpt>
      <trkpt lat="40.67501" lon="0.72747">
        <ele>7</ele>
        <time>2022-05-24 21:48:29</time>
      </trkpt>
      <trkpt lat="40.67503" lon="0.72741">
        <ele>7</ele>
        <time>2022-05-24 21:48:30</time>
      </trkpt>
      <trkpt lat="40.67505" lon="0.72735">
        <ele>7</ele>
        <time>2022-05-24 21:48:31</time>
      </trkpt>
      <trkpt lat="40.67506" lon="0.72729">
        <ele>7</ele>
        <time>2022-05-24 21:48:32</time>
      </trkpt>
      <trkpt lat="40.67508" lon="0.72724">
        <ele>7</ele>
        <time>2022-05-24 21:48:33</time>
      </trkpt>
      <trkpt lat="40.67511" lon="0.72718">
        <ele>7</ele>
        <time>2022-05-24 21:48:34</time>
      </trkpt>
      <trkpt lat="40.67513" lon="0.72712">
        <ele>7</ele>
        <time>2022-05-24 21:48:35</time>
      </trkpt>
      <trkpt lat="40.67515" lon="0.72706">
        <ele>7</ele>
        <time>2022-05-24 21:48:36</time>
      </trkpt>
      <trkpt lat="40.67517" lon="0.727">
        <ele>7</ele>
        <time>2022-05-24 21:48:37</time>
      </trkpt>
      <trkpt lat="40.67519" lon="0.72695">
        <ele>7</ele>
        <time>2022-05-24 21:48:38</time>
      </trkpt>
      <trkpt lat="40.67522" lon="0.72689">
        <ele>7.2</ele>
        <time>2022-05-24 21:48:39</time>
      </trkpt>
      <trkpt lat="40.67524" lon="0.72683">
        <ele>7.2</ele>
        <time>2022-05-24 21:48:40</time>
      </trkpt>
      <trkpt lat="40.67525" lon="0.72677">
        <ele>7.2</ele>
        <time>2022-05-24 21:48:41</time>
      </trkpt>
      <trkpt lat="40.67527" lon="0.72671">
        <ele>7.2</ele>
        <time>2022-05-24 21:48:42</time>
      </trkpt>
      <trkpt lat="40.67529" lon="0.72665">
        <ele>7.2</ele>
        <time>2022-05-24 21:48:43</time>
      </trkpt>
      <trkpt lat="40.67531" lon="0.72659">
        <ele>7.2</ele>
        <time>2022-05-24 21:48:44</time>
      </trkpt>
      <trkpt lat="40.67533" lon="0.72654">
        <ele>7.2</ele>
        <time>2022-05-24 21:48:45</time>
      </trkpt>
      <trkpt lat="40.67536" lon="0.72647">
        <ele>7.2</ele>
        <time>2022-05-24 21:48:46</time>
      </trkpt>
      <trkpt lat="40.67537" lon="0.72642">
        <ele>7.2</ele>
        <time>2022-05-24 21:48:47</time>
      </trkpt>
      <trkpt lat="40.6754" lon="0.72636">
        <ele>7.2</ele>
        <time>2022-05-24 21:48:48</time>
      </trkpt>
      <trkpt lat="40.67542" lon="0.72629">
        <ele>7.2</ele>
        <time>2022-05-24 21:48:49</time>
      </trkpt>
      <trkpt lat="40.67544" lon="0.72623">
        <ele>7.2</ele>
        <time>2022-05-24 21:48:50</time>
      </trkpt>
      <trkpt lat="40.67546" lon="0.72617">
        <ele>7.2</ele>
        <time>2022-05-24 21:48:51</time>
      </trkpt>
      <trkpt lat="40.67548" lon="0.72611">
        <ele>7.2</ele>
        <time>2022-05-24 21:48:52</time>
      </trkpt>
      <trkpt lat="40.6755" lon="0.72605">
        <ele>7.2</ele>
        <time>2022-05-24 21:48:53</time>
      </trkpt>
      <trkpt lat="40.67552" lon="0.72599">
        <ele>7.2</ele>
        <time>2022-05-24 21:48:54</time>
      </trkpt>
      <trkpt lat="40.67554" lon="0.72594">
        <ele>7.4</ele>
        <time>2022-05-24 21:48:55</time>
      </trkpt>
      <trkpt lat="40.67556" lon="0.72588">
        <ele>7.4</ele>
        <time>2022-05-24 21:48:56</time>
      </trkpt>
      <trkpt lat="40.67558" lon="0.72582">
        <ele>7.4</ele>
        <time>2022-05-24 21:48:57</time>
      </trkpt>
      <trkpt lat="40.6756" lon="0.72576">
        <ele>7.6</ele>
        <time>2022-05-24 21:48:58</time>
      </trkpt>
      <trkpt lat="40.67562" lon="0.7257">
        <ele>7.6</ele>
        <time>2022-05-24 21:48:59</time>
      </trkpt>
      <trkpt lat="40.67564" lon="0.72564">
        <ele>7.6</ele>
        <time>2022-05-24 21:49:00</time>
      </trkpt>
      <trkpt lat="40.67566" lon="0.72558">
        <ele>7.4</ele>
        <time>2022-05-24 21:49:01</time>
      </trkpt>
      <trkpt lat="40.67568" lon="0.72552">
        <ele>7.4</ele>
        <time>2022-05-24 21:49:02</time>
      </trkpt>
      <trkpt lat="40.6757" lon="0.72546">
        <ele>7.4</ele>
        <time>2022-05-24 21:49:03</time>
      </trkpt>
      <trkpt lat="40.67572" lon="0.72541">
        <ele>7.6</ele>
        <time>2022-05-24 21:49:04</time>
      </trkpt>
      <trkpt lat="40.67574" lon="0.72535">
        <ele>7.4</ele>
        <time>2022-05-24 21:49:05</time>
      </trkpt>
      <trkpt lat="40.67576" lon="0.7253">
        <ele>7.4</ele>
        <time>2022-05-24 21:49:06</time>
      </trkpt>
      <trkpt lat="40.67578" lon="0.72524">
        <ele>7.4</ele>
        <time>2022-05-24 21:49:07</time>
      </trkpt>
      <trkpt lat="40.6758" lon="0.72519">
        <ele>7.4</ele>
        <time>2022-05-24 21:49:08</time>
      </trkpt>
      <trkpt lat="40.67582" lon="0.72513">
        <ele>7.4</ele>
        <time>2022-05-24 21:49:09</time>
      </trkpt>
      <trkpt lat="40.67584" lon="0.72507">
        <ele>7.2</ele>
        <time>2022-05-24 21:49:10</time>
      </trkpt>
      <trkpt lat="40.67586" lon="0.72501">
        <ele>7.2</ele>
        <time>2022-05-24 21:49:11</time>
      </trkpt>
      <trkpt lat="40.67588" lon="0.72496">
        <ele>7.2</ele>
        <time>2022-05-24 21:49:12</time>
      </trkpt>
      <trkpt lat="40.6759" lon="0.7249">
        <ele>7.2</ele>
        <time>2022-05-24 21:49:13</time>
      </trkpt>
      <trkpt lat="40.7051" lon="0.71726">
        <time>2022-05-24 22:51:45</time>
      </trkpt>
      <trkpt lat="40.7051" lon="0.71726">
        <time>2022-05-24 22:51:46</time>
      </trkpt>
      <trkpt lat="40.70509" lon="0.71726">
        <time>2022-05-24 22:51:47</time>
      </trkpt>
      <trkpt lat="40.70507" lon="0.71725">
        <time>2022-05-24 22:51:48</time>
      </trkpt>
      <trkpt lat="40.70505" lon="0.71725">
        <time>2022-05-24 22:51:49</time>
      </trkpt>
      <trkpt lat="40.70503" lon="0.71725">
        <time>2022-05-24 22:51:50</time>
      </trkpt>
      <trkpt lat="40.70501" lon="0.71725">
        <time>2022-05-24 22:51:51</time>
      </trkpt>
      <trkpt lat="40.70498" lon="0.71724">
        <time>2022-05-24 22:51:52</time>
      </trkpt>
      <trkpt lat="40.70496" lon="0.71724">
        <time>2022-05-24 22:51:53</time>
      </trkpt>
      <trkpt lat="40.70493" lon="0.71724">
        <time>2022-05-24 22:51:54</time>
      </trkpt>
      <trkpt lat="40.7049" lon="0.71723">
        <time>2022-05-24 22:51:55</time>
      </trkpt>
      <trkpt lat="40.70486" lon="0.71723">
        <time>2022-05-24 22:51:56</time>
      </trkpt>
      <trkpt lat="40.70483" lon="0.71723">
        <time>2022-05-24 22:51:57</time>
      </trkpt>
      <trkpt lat="40.7048" lon="0.71723">
        <time>2022-05-24 22:51:58</time>
      </trkpt>
      <trkpt lat="40.70477" lon="0.71723">
        <time>2022-05-24 22:51:59</time>
      </trkpt>
      <trkpt lat="40.70474" lon="0.71724">
        <time>2022-05-24 22:52:00</time>
      </trkpt>
      <trkpt lat="40.70472" lon="0.71724">
        <time>2022-05-24 22:52:01</time>
      </trkpt>
      <trkpt lat="40.70469" lon="0.71725">
        <time>2022-05-24 22:52:02</time>
      </trkpt>
      <trkpt lat="40.70465" lon="0.71726">
        <time>2022-05-24 22:52:03</time>
      </trkpt>
      <trkpt lat="40.70462" lon="0.71726">
        <time>2022-05-24 22:52:04</time>
      </trkpt>
      <trkpt lat="40.70459" lon="0.71726">
        <time>2022-05-24 22:52:05</time>
      </trkpt>
      <trkpt lat="40.70455" lon="0.71726">
        <time>2022-05-24 22:52:06</time>
      </trkpt>
      <trkpt lat="40.70451" lon="0.71727">
        <time>2022-05-24 22:52:07</time>
      </trkpt>
      <trkpt lat="40.70448" lon="0.71727">
        <ele>8</ele>
        <time>2022-05-24 22:52:08</time>
      </trkpt>
      <trkpt lat="40.70444" lon="0.71728">
        <ele>8</ele>
        <time>2022-05-24 22:52:09</time>
      </trkpt>
      <trkpt lat="40.70441" lon="0.71728">
        <ele>8</ele>
        <time>2022-05-24 22:52:10</time>
      </trkpt>
      <trkpt lat="40.70437" lon="0.71729">
        <ele>8</ele>
        <time>2022-05-24 22:52:11</time>
      </trkpt>
      <trkpt lat="40.70433" lon="0.7173">
        <ele>8</ele>
        <time>2022-05-24 22:52:12</time>
      </trkpt>
      <trkpt lat="40.7043" lon="0.7173">
        <ele>8</ele>
        <time>2022-05-24 22:52:13</time>
      </trkpt>
      <trkpt lat="40.70426" lon="0.7173">
        <ele>8</ele>
        <time>2022-05-24 22:52:14</time>
      </trkpt>
      <trkpt lat="40.70422" lon="0.7173">
        <ele>8</ele>
        <time>2022-05-24 22:52:15</time>
      </trkpt>
      <trkpt lat="40.70419" lon="0.7173">
        <ele>8</ele>
        <time>2022-05-24 22:52:16</time>
      </trkpt>
      <trkpt lat="40.70415" lon="0.71728">
        <ele>8</ele>
        <time>2022-05-24 22:52:17</time>
      </trkpt>
      <trkpt lat="40.70414" lon="0.71725">
        <ele>8</ele>
        <time>2022-05-24 22:52:18</time>
      </trkpt>
      <trkpt lat="40.70414" lon="0.71722">
        <ele>8</ele>
        <time>2022-05-24 22:52:19</time>
      </trkpt>
      <trkpt lat="40.70414" lon="0.71719">
        <ele>8.2</ele>
        <time>2022-05-24 22:52:20</time>
      </trkpt>
      <trkpt lat="40.70415" lon="0.71715">
        <ele>8.2</ele>
        <time>2022-05-24 22:52:21</time>
      </trkpt>
      <trkpt lat="40.70416" lon="0.71711">
        <ele>8.4</ele>
        <time>2022-05-24 22:52:22</time>
      </trkpt>
      <trkpt lat="40.70417" lon="0.71707">
        <ele>8.4</ele>
        <time>2022-05-24 22:52:23</time>
      </trkpt>
      <trkpt lat="40.70417" lon="0.71703">
        <ele>8.2</ele>
        <time>2022-05-24 22:52:24</time>
      </trkpt>
      <trkpt lat="40.70418" lon="0.717">
        <ele>8.2</ele>
        <time>2022-05-24 22:52:25</time>
      </trkpt>
      <trkpt lat="40.70418" lon="0.71695">
        <ele>8.2</ele>
        <time>2022-05-24 22:52:26</time>
      </trkpt>
      <trkpt lat="40.70418" lon="0.7169">
        <ele>8.2</ele>
        <time>2022-05-24 22:52:27</time>
      </trkpt>
      <trkpt lat="40.70418" lon="0.71685">
        <ele>8.2</ele>
        <time>2022-05-24 22:52:28</time>
      </trkpt>
      <trkpt lat="40.70419" lon="0.71679">
        <ele>8.2</ele>
        <time>2022-05-24 22:52:29</time>
      </trkpt>
      <trkpt lat="40.70419" lon="0.71674">
        <ele>8</ele>
        <time>2022-05-24 22:52:30</time>
      </trkpt>
      <trkpt lat="40.7042" lon="0.71669">
        <ele>8</ele>
        <time>2022-05-24 22:52:31</time>
      </trkpt>
      <trkpt lat="40.7042" lon="0.71663">
        <ele>8</ele>
        <time>2022-05-24 22:52:32</time>
      </trkpt>
      <trkpt lat="40.7042" lon="0.71657">
        <ele>8</ele>
        <time>2022-05-24 22:52:33</time>
      </trkpt>
      <trkpt lat="40.7042" lon="0.71651">
        <ele>7.6</ele>
        <time>2022-05-24 22:52:34</time>
      </trkpt>
      <trkpt lat="40.70421" lon="0.71646">
        <ele>7.4</ele>
        <time>2022-05-24 22:52:35</time>
      </trkpt>
      <trkpt lat="40.70422" lon="0.7164">
        <ele>7.6</ele>
        <time>2022-05-24 22:52:36</time>
      </trkpt>
      <trkpt lat="40.70423" lon="0.71635">
        <ele>7.6</ele>
        <time>2022-05-24 22:52:37</time>
      </trkpt>
      <trkpt lat="40.70424" lon="0.7163">
        <ele>7.6</ele>
        <time>2022-05-24 22:52:38</time>
      </trkpt>
      <trkpt lat="40.70424" lon="0.71624">
        <ele>7.6</ele>
        <time>2022-05-24 22:52:39</time>
      </trkpt>
      <trkpt lat="40.70425" lon="0.71619">
        <ele>7.4</ele>
        <time>2022-05-24 22:52:40</time>
      </trkpt>
      <trkpt lat="40.70426" lon="0.71614">
        <ele>7.2</ele>
        <time>2022-05-24 22:52:41</time>
      </trkpt>
      <trkpt lat="40.70427" lon="0.71609">
        <ele>7</ele>
        <time>2022-05-24 22:52:42</time>
      </trkpt>
      <trkpt lat="40.70428" lon="0.71603">
        <ele>6.8</ele>
        <time>2022-05-24 22:52:43</time>
      </trkpt>
      <trkpt lat="40.70429" lon="0.71597">
        <ele>6.6</ele>
        <time>2022-05-24 22:52:44</time>
      </trkpt>
      <trkpt lat="40.7043" lon="0.71591">
        <ele>6.4</ele>
        <time>2022-05-24 22:52:45</time>
      </trkpt>
      <trkpt lat="40.70431" lon="0.71585">
        <ele>6.2</ele>
        <time>2022-05-24 22:52:46</time>
      </trkpt>
      <trkpt lat="40.70432" lon="0.71578">
        <ele>6.4</ele>
        <time>2022-05-24 22:52:47</time>
      </trkpt>
      <trkpt lat="40.70434" lon="0.71572">
        <ele>6.2</ele>
        <time>2022-05-24 22:52:48</time>
      </trkpt>
      <trkpt lat="40.70435" lon="0.71565">
        <ele>6.4</ele>
        <time>2022-05-24 22:52:49</time>
      </trkpt>
      <trkpt lat="40.70436" lon="0.71558">
        <ele>6.6</ele>
        <time>2022-05-24 22:52:50</time>
      </trkpt>
      <trkpt lat="40.70437" lon="0.71551">
        <ele>6.6</ele>
        <time>2022-05-24 22:52:51</time>
      </trkpt>
      <trkpt lat="40.70439" lon="0.71544">
        <ele>6.8</ele>
        <time>2022-05-24 22:52:52</time>
      </trkpt>
      <trkpt lat="40.7044" lon="0.71537">
        <ele>6.8</ele>
        <time>2022-05-24 22:52:53</time>
      </trkpt>
      <trkpt lat="40.70441" lon="0.7153">
        <ele>6.8</ele>
        <time>2022-05-24 22:52:54</time>
      </trkpt>
      <trkpt lat="40.70443" lon="0.71523">
        <ele>6.8</ele>
        <time>2022-05-24 22:52:55</time>
      </trkpt>
      <trkpt lat="40.70444" lon="0.71515">
        <ele>7</ele>
        <time>2022-05-24 22:52:56</time>
      </trkpt>
      <trkpt lat="40.70446" lon="0.71508">
        <ele>7</ele>
        <time>2022-05-24 22:52:57</time>
      </trkpt>
      <trkpt lat="40.70447" lon="0.715">
        <ele>7.2</ele>
        <time>2022-05-24 22:52:58</time>
      </trkpt>
      <trkpt lat="40.70448" lon="0.71493">
        <ele>7.4</ele>
        <time>2022-05-24 22:52:59</time>
      </trkpt>
      <trkpt lat="40.70449" lon="0.71486">
        <ele>7.4</ele>
        <time>2022-05-24 22:53:00</time>
      </trkpt>
      <trkpt lat="40.70451" lon="0.71479">
        <ele>7.6</ele>
        <time>2022-05-24 22:53:01</time>
      </trkpt>
      <trkpt lat="40.70451" lon="0.71472">
        <ele>7.4</ele>
        <time>2022-05-24 22:53:02</time>
      </trkpt>
      <trkpt lat="40.70452" lon="0.71466">
        <ele>7.4</ele>
        <time>2022-05-24 22:53:03</time>
      </trkpt>
      <trkpt lat="40.70454" lon="0.71459">
        <ele>7.2</ele>
        <time>2022-05-24 22:53:04</time>
      </trkpt>
      <trkpt lat="40.70455" lon="0.71452">
        <ele>7.2</ele>
        <time>2022-05-24 22:53:05</time>
      </trkpt>
      <trkpt lat="40.70456" lon="0.71445">
        <ele>7.2</ele>
        <time>2022-05-24 22:53:06</time>
      </trkpt>
      <trkpt lat="40.70457" lon="0.71438">
        <ele>7.4</ele>
        <time>2022-05-24 22:53:07</time>
      </trkpt>
      <trkpt lat="40.70459" lon="0.71431">
        <ele>7.6</ele>
        <time>2022-05-24 22:53:08</time>
      </trkpt>
      <trkpt lat="40.7046" lon="0.71423">
        <ele>8</ele>
        <time>2022-05-24 22:53:09</time>
      </trkpt>
      <trkpt lat="40.70461" lon="0.71416">
        <ele>8.2</ele>
        <time>2022-05-24 22:53:10</time>
      </trkpt>
      <trkpt lat="40.70462" lon="0.71409">
        <ele>8.4</ele>
        <time>2022-05-24 22:53:11</time>
      </trkpt>
      <trkpt lat="40.70463" lon="0.71401">
        <ele>8.4</ele>
        <time>2022-05-24 22:53:12</time>
      </trkpt>
      <trkpt lat="40.70464" lon="0.71394">
        <ele>8.6</ele>
        <time>2022-05-24 22:53:13</time>
      </trkpt>
      <trkpt lat="40.70465" lon="0.71388">
        <ele>8.6</ele>
        <time>2022-05-24 22:53:14</time>
      </trkpt>
      <trkpt lat="40.70466" lon="0.71381">
        <ele>8.8</ele>
        <time>2022-05-24 22:53:15</time>
      </trkpt>
      <trkpt lat="40.70467" lon="0.71374">
        <ele>8.8</ele>
        <time>2022-05-24 22:53:16</time>
      </trkpt>
      <trkpt lat="40.70469" lon="0.71367">
        <ele>8.8</ele>
        <time>2022-05-24 22:53:17</time>
      </trkpt>
      <trkpt lat="40.7047" lon="0.71361">
        <ele>8.8</ele>
        <time>2022-05-24 22:53:18</time>
      </trkpt>
      <trkpt lat="40.70472" lon="0.71355">
        <ele>8.8</ele>
        <time>2022-05-24 22:53:19</time>
      </trkpt>
      <trkpt lat="40.70473" lon="0.71348">
        <ele>8.8</ele>
        <time>2022-05-24 22:53:20</time>
      </trkpt>
      <trkpt lat="40.70475" lon="0.71341">
        <ele>8.4</ele>
        <time>2022-05-24 22:53:21</time>
      </trkpt>
      <trkpt lat="40.70477" lon="0.71334">
        <ele>8</ele>
        <time>2022-05-24 22:53:22</time>
      </trkpt>
      <trkpt lat="40.70478" lon="0.71326">
        <ele>7.6</ele>
        <time>2022-05-24 22:53:23</time>
      </trkpt>
      <trkpt lat="40.7048" lon="0.71319">
        <ele>7.2</ele>
        <time>2022-05-24 22:53:24</time>
      </trkpt>
      <trkpt lat="40.70481" lon="0.71311">
        <ele>7</ele>
        <time>2022-05-24 22:53:25</time>
      </trkpt>
      <trkpt lat="40.70483" lon="0.71304">
        <ele>7</ele>
        <time>2022-05-24 22:53:26</time>
      </trkpt>
      <trkpt lat="40.70485" lon="0.71297">
        <ele>6.8</ele>
        <time>2022-05-24 22:53:27</time>
      </trkpt>
      <trkpt lat="40.70486" lon="0.7129">
        <ele>7</ele>
        <time>2022-05-24 22:53:28</time>
      </trkpt>
      <trkpt lat="40.70487" lon="0.71283">
        <ele>6.8</ele>
        <time>2022-05-24 22:53:29</time>
      </trkpt>
      <trkpt lat="40.70488" lon="0.71276">
        <ele>6.8</ele>
        <time>2022-05-24 22:53:30</time>
      </trkpt>
      <trkpt lat="40.70489" lon="0.7127">
        <ele>6.4</ele>
        <time>2022-05-24 22:53:31</time>
      </trkpt>
      <trkpt lat="40.7049" lon="0.71263">
        <ele>6.4</ele>
        <time>2022-05-24 22:53:32</time>
      </trkpt>
      <trkpt lat="40.70492" lon="0.71256">
        <ele>6.4</ele>
        <time>2022-05-24 22:53:33</time>
      </trkpt>
      <trkpt lat="40.70493" lon="0.71249">
        <ele>6.4</ele>
        <time>2022-05-24 22:53:34</time>
      </trkpt>
      <trkpt lat="40.70495" lon="0.71242">
        <ele>6.4</ele>
        <time>2022-05-24 22:53:35</time>
      </trkpt>
      <trkpt lat="40.70496" lon="0.71236">
        <ele>6.2</ele>
        <time>2022-05-24 22:53:36</time>
      </trkpt>
      <trkpt lat="40.70498" lon="0.71229">
        <ele>6.2</ele>
        <time>2022-05-24 22:53:37</time>
      </trkpt>
      <trkpt lat="40.705" lon="0.71221">
        <ele>6.2</ele>
        <time>2022-05-24 22:53:38</time>
      </trkpt>
      <trkpt lat="40.70502" lon="0.71215">
        <ele>6.4</ele>
        <time>2022-05-24 22:53:39</time>
      </trkpt>
      <trkpt lat="40.70504" lon="0.71208">
        <ele>6.6</ele>
        <time>2022-05-24 22:53:40</time>
      </trkpt>
      <trkpt lat="40.70507" lon="0.71201">
        <ele>6.2</ele>
        <time>2022-05-24 22:53:41</time>
      </trkpt>
      <trkpt lat="40.70509" lon="0.71195">
        <ele>6.2</ele>
        <time>2022-05-24 22:53:42</time>
      </trkpt>
      <trkpt lat="40.70512" lon="0.71189">
        <ele>6.2</ele>
        <time>2022-05-24 22:53:43</time>
      </trkpt>
      <trkpt lat="40.70515" lon="0.71183">
        <ele>6</ele>
        <time>2022-05-24 22:53:44</time>
      </trkpt>
      <trkpt lat="40.70518" lon="0.71177">
        <ele>6</ele>
        <time>2022-05-24 22:53:45</time>
      </trkpt>
      <trkpt lat="40.70521" lon="0.71171">
        <ele>6</ele>
        <time>2022-05-24 22:53:46</time>
      </trkpt>
      <trkpt lat="40.70524" lon="0.71166">
        <ele>5.8</ele>
        <time>2022-05-24 22:53:47</time>
      </trkpt>
      <trkpt lat="40.70527" lon="0.71161">
        <ele>5.8</ele>
        <time>2022-05-24 22:53:48</time>
      </trkpt>
      <trkpt lat="40.7053" lon="0.71156">
        <ele>5.8</ele>
        <time>2022-05-24 22:53:49</time>
      </trkpt>
      <trkpt lat="40.70533" lon="0.71151">
        <ele>5.6</ele>
        <time>2022-05-24 22:53:50</time>
      </trkpt>
      <trkpt lat="40.70537" lon="0.71147">
        <ele>5.6</ele>
        <time>2022-05-24 22:53:51</time>
      </trkpt>
      <trkpt lat="40.70541" lon="0.71143">
        <ele>5.4</ele>
        <time>2022-05-24 22:53:52</time>
      </trkpt>
      <trkpt lat="40.70545" lon="0.71139">
        <ele>5.4</ele>
        <time>2022-05-24 22:53:53</time>
      </trkpt>
      <trkpt lat="40.70549" lon="0.71137">
        <ele>5.6</ele>
        <time>2022-05-24 22:53:54</time>
      </trkpt>
      <trkpt lat="40.70555" lon="0.71136">
        <ele>6</ele>
        <time>2022-05-24 22:53:55</time>
      </trkpt>
      <trkpt lat="40.7056" lon="0.71135">
        <ele>6.2</ele>
        <time>2022-05-24 22:53:56</time>
      </trkpt>
      <trkpt lat="40.70565" lon="0.71135">
        <ele>6.6</ele>
        <time>2022-05-24 22:53:57</time>
      </trkpt>
      <trkpt lat="40.70571" lon="0.71136">
        <ele>6.6</ele>
        <time>2022-05-24 22:53:58</time>
      </trkpt>
      <trkpt lat="40.70576" lon="0.71139">
        <ele>6.8</ele>
        <time>2022-05-24 22:53:59</time>
      </trkpt>
      <trkpt lat="40.7058" lon="0.71142">
        <ele>7</ele>
        <time>2022-05-24 22:54:00</time>
      </trkpt>
      <trkpt lat="40.70584" lon="0.71147">
        <ele>7.4</ele>
        <time>2022-05-24 22:54:01</time>
      </trkpt>
      <trkpt lat="40.70589" lon="0.71151">
        <ele>7.6</ele>
        <time>2022-05-24 22:54:02</time>
      </trkpt>
      <trkpt lat="40.70593" lon="0.71156">
        <ele>7.6</ele>
        <time>2022-05-24 22:54:03</time>
      </trkpt>
      <trkpt lat="40.70597" lon="0.7116">
        <ele>7.8</ele>
        <time>2022-05-24 22:54:04</time>
      </trkpt>
      <trkpt lat="40.70602" lon="0.71165">
        <ele>8</ele>
        <time>2022-05-24 22:54:05</time>
      </trkpt>
      <trkpt lat="40.70607" lon="0.71169">
        <ele>8.2</ele>
        <time>2022-05-24 22:54:06</time>
      </trkpt>
      <trkpt lat="40.70611" lon="0.71174">
        <ele>8.4</ele>
        <time>2022-05-24 22:54:07</time>
      </trkpt>
      <trkpt lat="40.70616" lon="0.71178">
        <ele>8.4</ele>
        <time>2022-05-24 22:54:08</time>
      </trkpt>
      <trkpt lat="40.70621" lon="0.71181">
        <ele>8.4</ele>
        <time>2022-05-24 22:54:09</time>
      </trkpt>
      <trkpt lat="40.70626" lon="0.71185">
        <ele>8.4</ele>
        <time>2022-05-24 22:54:10</time>
      </trkpt>
      <trkpt lat="40.70631" lon="0.71189">
        <ele>8.4</ele>
        <time>2022-05-24 22:54:11</time>
      </trkpt>
      <trkpt lat="40.70636" lon="0.71193">
        <ele>8.4</ele>
        <time>2022-05-24 22:54:12</time>
      </trkpt>
      <trkpt lat="40.70641" lon="0.71196">
        <ele>8.4</ele>
        <time>2022-05-24 22:54:13</time>
      </trkpt>
      <trkpt lat="40.70647" lon="0.712">
        <ele>8.4</ele>
        <time>2022-05-24 22:54:14</time>
      </trkpt>
      <trkpt lat="40.70652" lon="0.71204">
        <ele>8.4</ele>
        <time>2022-05-24 22:54:15</time>
      </trkpt>
      <trkpt lat="40.70657" lon="0.71207">
        <ele>8.4</ele>
        <time>2022-05-24 22:54:16</time>
      </trkpt>
      <trkpt lat="40.70662" lon="0.7121">
        <ele>8.2</ele>
        <time>2022-05-24 22:54:17</time>
      </trkpt>
      <trkpt lat="40.70667" lon="0.71214">
        <ele>8.2</ele>
        <time>2022-05-24 22:54:18</time>
      </trkpt>
      <trkpt lat="40.70673" lon="0.71217">
        <ele>8.2</ele>
        <time>2022-05-24 22:54:19</time>
      </trkpt>
      <trkpt lat="40.70678" lon="0.71221">
        <ele>8.2</ele>
        <time>2022-05-24 22:54:20</time>
      </trkpt>
      <trkpt lat="40.70683" lon="0.71224">
        <ele>8</ele>
        <time>2022-05-24 22:54:21</time>
      </trkpt>
      <trkpt lat="40.70687" lon="0.71228">
        <ele>8</ele>
        <time>2022-05-24 22:54:22</time>
      </trkpt>
      <trkpt lat="40.70692" lon="0.71232">
        <ele>7.8</ele>
        <time>2022-05-24 22:54:23</time>
      </trkpt>
      <trkpt lat="40.70697" lon="0.71235">
        <ele>7.8</ele>
        <time>2022-05-24 22:54:24</time>
      </trkpt>
      <trkpt lat="40.70702" lon="0.71239">
        <ele>8</ele>
        <time>2022-05-24 22:54:25</time>
      </trkpt>
      <trkpt lat="40.70707" lon="0.71242">
        <ele>8</ele>
        <time>2022-05-24 22:54:26</time>
      </trkpt>
      <trkpt lat="40.70712" lon="0.71246">
        <ele>8</ele>
        <time>2022-05-24 22:54:27</time>
      </trkpt>
      <trkpt lat="40.70717" lon="0.7125">
        <ele>8</ele>
        <time>2022-05-24 22:54:28</time>
      </trkpt>
      <trkpt lat="40.70722" lon="0.71254">
        <ele>8</ele>
        <time>2022-05-24 22:54:29</time>
      </trkpt>
      <trkpt lat="40.70727" lon="0.71257">
        <ele>8</ele>
        <time>2022-05-24 22:54:30</time>
      </trkpt>
      <trkpt lat="40.70732" lon="0.71261">
        <ele>8</ele>
        <time>2022-05-24 22:54:31</time>
      </trkpt>
      <trkpt lat="40.70737" lon="0.71264">
        <ele>8</ele>
        <time>2022-05-24 22:54:32</time>
      </trkpt>
      <trkpt lat="40.70742" lon="0.71268">
        <ele>8</ele>
        <time>2022-05-24 22:54:33</time>
      </trkpt>
      <trkpt lat="40.70747" lon="0.71271">
        <ele>8</ele>
        <time>2022-05-24 22:54:34</time>
      </trkpt>
      <trkpt lat="40.70752" lon="0.71275">
        <ele>8</ele>
        <time>2022-05-24 22:54:35</time>
      </trkpt>
      <trkpt lat="40.70757" lon="0.71278">
        <ele>8.2</ele>
        <time>2022-05-24 22:54:36</time>
      </trkpt>
      <trkpt lat="40.70762" lon="0.71282">
        <ele>8.2</ele>
        <time>2022-05-24 22:54:37</time>
      </trkpt>
      <trkpt lat="40.70766" lon="0.71285">
        <ele>8.4</ele>
        <time>2022-05-24 22:54:38</time>
      </trkpt>
      <trkpt lat="40.70771" lon="0.71288">
        <ele>8.4</ele>
        <time>2022-05-24 22:54:39</time>
      </trkpt>
      <trkpt lat="40.70776" lon="0.71292">
        <ele>8.2</ele>
        <time>2022-05-24 22:54:40</time>
      </trkpt>
      <trkpt lat="40.7078" lon="0.71295">
        <ele>8.2</ele>
        <time>2022-05-24 22:54:41</time>
      </trkpt>
      <trkpt lat="40.70785" lon="0.71298">
        <ele>8.2</ele>
        <time>2022-05-24 22:54:42</time>
      </trkpt>
      <trkpt lat="40.70789" lon="0.71302">
        <ele>8</ele>
        <time>2022-05-24 22:54:43</time>
      </trkpt>
      <trkpt lat="40.70795" lon="0.71305">
        <ele>8</ele>
        <time>2022-05-24 22:54:44</time>
      </trkpt>
      <trkpt lat="40.708" lon="0.71309">
        <ele>7.8</ele>
        <time>2022-05-24 22:54:45</time>
      </trkpt>
      <trkpt lat="40.70805" lon="0.71312">
        <ele>7.8</ele>
        <time>2022-05-24 22:54:46</time>
      </trkpt>
      <trkpt lat="40.7081" lon="0.71316">
        <ele>7.6</ele>
        <time>2022-05-24 22:54:47</time>
      </trkpt>
      <trkpt lat="40.70815" lon="0.7132">
        <ele>7.6</ele>
        <time>2022-05-24 22:54:48</time>
      </trkpt>
      <trkpt lat="40.7082" lon="0.71323">
        <ele>7.6</ele>
        <time>2022-05-24 22:54:49</time>
      </trkpt>
      <trkpt lat="40.70825" lon="0.71327">
        <ele>7.6</ele>
        <time>2022-05-24 22:54:50</time>
      </trkpt>
      <trkpt lat="40.7083" lon="0.71331">
        <ele>7.6</ele>
        <time>2022-05-24 22:54:51</time>
      </trkpt>
      <trkpt lat="40.70835" lon="0.71334">
        <ele>7.4</ele>
        <time>2022-05-24 22:54:52</time>
      </trkpt>
      <trkpt lat="40.7084" lon="0.71337">
        <ele>7.4</ele>
        <time>2022-05-24 22:54:53</time>
      </trkpt>
      <trkpt lat="40.70845" lon="0.71341">
        <ele>7.6</ele>
        <time>2022-05-24 22:54:54</time>
      </trkpt>
      <trkpt lat="40.7085" lon="0.71344">
        <ele>7.6</ele>
        <time>2022-05-24 22:54:55</time>
      </trkpt>
      <trkpt lat="40.70856" lon="0.71348">
        <ele>7.8</ele>
        <time>2022-05-24 22:54:56</time>
      </trkpt>
      <trkpt lat="40.70861" lon="0.71352">
        <ele>7.8</ele>
        <time>2022-05-24 22:54:57</time>
      </trkpt>
      <trkpt lat="40.70866" lon="0.71355">
        <ele>7.8</ele>
        <time>2022-05-24 22:54:58</time>
      </trkpt>
      <trkpt lat="40.70871" lon="0.71359">
        <ele>7.8</ele>
        <time>2022-05-24 22:54:59</time>
      </trkpt>
      <trkpt lat="40.70876" lon="0.71363">
        <ele>7.6</ele>
        <time>2022-05-24 22:55:00</time>
      </trkpt>
      <trkpt lat="40.70881" lon="0.71367">
        <ele>7.8</ele>
        <time>2022-05-24 22:55:01</time>
      </trkpt>
      <trkpt lat="40.70885" lon="0.7137">
        <ele>7.8</ele>
        <time>2022-05-24 22:55:02</time>
      </trkpt>
      <trkpt lat="40.7089" lon="0.71374">
        <ele>7.8</ele>
        <time>2022-05-24 22:55:03</time>
      </trkpt>
      <trkpt lat="40.70895" lon="0.71377">
        <ele>7.8</ele>
        <time>2022-05-24 22:55:04</time>
      </trkpt>
      <trkpt lat="40.709" lon="0.71381">
        <ele>7.8</ele>
        <time>2022-05-24 22:55:05</time>
      </trkpt>
      <trkpt lat="40.70904" lon="0.71384">
        <ele>7.8</ele>
        <time>2022-05-24 22:55:06</time>
      </trkpt>
      <trkpt lat="40.70909" lon="0.71387">
        <ele>7.6</ele>
        <time>2022-05-24 22:55:07</time>
      </trkpt>
      <trkpt lat="40.70914" lon="0.71391">
        <ele>7.8</ele>
        <time>2022-05-24 22:55:08</time>
      </trkpt>
      <trkpt lat="40.70919" lon="0.71394">
        <ele>8</ele>
        <time>2022-05-24 22:55:09</time>
      </trkpt>
      <trkpt lat="40.70924" lon="0.71398">
        <ele>8</ele>
        <time>2022-05-24 22:55:10</time>
      </trkpt>
      <trkpt lat="40.70928" lon="0.714">
        <ele>8</ele>
        <time>2022-05-24 22:55:11</time>
      </trkpt>
      <trkpt lat="40.70932" lon="0.71403">
        <ele>8</ele>
        <time>2022-05-24 22:55:12</time>
      </trkpt>
      <trkpt lat="40.70938" lon="0.71407">
        <ele>8</ele>
        <time>2022-05-24 22:55:13</time>
      </trkpt>
      <trkpt lat="40.70943" lon="0.71411">
        <ele>8</ele>
        <time>2022-05-24 22:55:14</time>
      </trkpt>
      <trkpt lat="40.70948" lon="0.71414">
        <ele>8</ele>
        <time>2022-05-24 22:55:15</time>
      </trkpt>
      <trkpt lat="40.70952" lon="0.71417">
        <ele>8</ele>
        <time>2022-05-24 22:55:16</time>
      </trkpt>
      <trkpt lat="40.70957" lon="0.7142">
        <ele>8</ele>
        <time>2022-05-24 22:55:17</time>
      </trkpt>
      <trkpt lat="40.70961" lon="0.71424">
        <ele>8</ele>
        <time>2022-05-24 22:55:18</time>
      </trkpt>
      <trkpt lat="40.70966" lon="0.71427">
        <ele>7.8</ele>
        <time>2022-05-24 22:55:19</time>
      </trkpt>
      <trkpt lat="40.70971" lon="0.7143">
        <ele>7.8</ele>
        <time>2022-05-24 22:55:20</time>
      </trkpt>
      <trkpt lat="40.70975" lon="0.71434">
        <ele>7.8</ele>
        <time>2022-05-24 22:55:21</time>
      </trkpt>
      <trkpt lat="40.7098" lon="0.71437">
        <ele>7.6</ele>
        <time>2022-05-24 22:55:22</time>
      </trkpt>
      <trkpt lat="40.70985" lon="0.7144">
        <ele>7.6</ele>
        <time>2022-05-24 22:55:23</time>
      </trkpt>
      <trkpt lat="40.70989" lon="0.71443">
        <ele>7.8</ele>
        <time>2022-05-24 22:55:24</time>
      </trkpt>
      <trkpt lat="40.70994" lon="0.71447">
        <ele>7.8</ele>
        <time>2022-05-24 22:55:25</time>
      </trkpt>
      <trkpt lat="40.70998" lon="0.7145">
        <ele>7.8</ele>
        <time>2022-05-24 22:55:26</time>
      </trkpt>
      <trkpt lat="40.71003" lon="0.71453">
        <ele>7.8</ele>
        <time>2022-05-24 22:55:27</time>
      </trkpt>
      <trkpt lat="40.71008" lon="0.71456">
        <ele>7.8</ele>
        <time>2022-05-24 22:55:28</time>
      </trkpt>
      <trkpt lat="40.71012" lon="0.7146">
        <ele>7.8</ele>
        <time>2022-05-24 22:55:29</time>
      </trkpt>
      <trkpt lat="40.71017" lon="0.71463">
        <ele>7.6</ele>
        <time>2022-05-24 22:55:30</time>
      </trkpt>
      <trkpt lat="40.71022" lon="0.71467">
        <ele>7.6</ele>
        <time>2022-05-24 22:55:31</time>
      </trkpt>
      <trkpt lat="40.71026" lon="0.7147">
        <ele>7.6</ele>
        <time>2022-05-24 22:55:32</time>
      </trkpt>
      <trkpt lat="40.71031" lon="0.71473">
        <ele>7.4</ele>
        <time>2022-05-24 22:55:33</time>
      </trkpt>
      <trkpt lat="40.71036" lon="0.71477">
        <ele>7.4</ele>
        <time>2022-05-24 22:55:34</time>
      </trkpt>
      <trkpt lat="40.71041" lon="0.71481">
        <ele>7.4</ele>
        <time>2022-05-24 22:55:35</time>
      </trkpt>
      <trkpt lat="40.71045" lon="0.71485">
        <ele>7.4</ele>
        <time>2022-05-24 22:55:36</time>
      </trkpt>
      <trkpt lat="40.7105" lon="0.71489">
        <ele>7.4</ele>
        <time>2022-05-24 22:55:37</time>
      </trkpt>
      <trkpt lat="40.71054" lon="0.71494">
        <ele>7.2</ele>
        <time>2022-05-24 22:55:38</time>
      </trkpt>
      <trkpt lat="40.71059" lon="0.71498">
        <ele>7.2</ele>
        <time>2022-05-24 22:55:39</time>
      </trkpt>
      <trkpt lat="40.71062" lon="0.71503">
        <ele>7.2</ele>
        <time>2022-05-24 22:55:40</time>
      </trkpt>
      <trkpt lat="40.71067" lon="0.71508">
        <ele>7.2</ele>
        <time>2022-05-24 22:55:41</time>
      </trkpt>
      <trkpt lat="40.71071" lon="0.71513">
        <ele>7.2</ele>
        <time>2022-05-24 22:55:42</time>
      </trkpt>
      <trkpt lat="40.71074" lon="0.71519">
        <ele>7.2</ele>
        <time>2022-05-24 22:55:43</time>
      </trkpt>
      <trkpt lat="40.71078" lon="0.71524">
        <ele>7.4</ele>
        <time>2022-05-24 22:55:44</time>
      </trkpt>
      <trkpt lat="40.71082" lon="0.7153">
        <ele>7.4</ele>
        <time>2022-05-24 22:55:45</time>
      </trkpt>
      <trkpt lat="40.71085" lon="0.71536">
        <ele>7.4</ele>
        <time>2022-05-24 22:55:46</time>
      </trkpt>
      <trkpt lat="40.71087" lon="0.71542">
        <ele>7.4</ele>
        <time>2022-05-24 22:55:47</time>
      </trkpt>
      <trkpt lat="40.7109" lon="0.71549">
        <ele>7.6</ele>
        <time>2022-05-24 22:55:48</time>
      </trkpt>
      <trkpt lat="40.71093" lon="0.71555">
        <ele>7.6</ele>
        <time>2022-05-24 22:55:49</time>
      </trkpt>
      <trkpt lat="40.71096" lon="0.71562">
        <ele>7.6</ele>
        <time>2022-05-24 22:55:50</time>
      </trkpt>
      <trkpt lat="40.71098" lon="0.71569">
        <ele>7.8</ele>
        <time>2022-05-24 22:55:51</time>
      </trkpt>
      <trkpt lat="40.711" lon="0.71576">
        <ele>7.8</ele>
        <time>2022-05-24 22:55:52</time>
      </trkpt>
      <trkpt lat="40.71103" lon="0.71583">
        <ele>7.8</ele>
        <time>2022-05-24 22:55:53</time>
      </trkpt>
      <trkpt lat="40.71105" lon="0.7159">
        <ele>7.6</ele>
        <time>2022-05-24 22:55:54</time>
      </trkpt>
      <trkpt lat="40.71107" lon="0.71597">
        <ele>7.6</ele>
        <time>2022-05-24 22:55:55</time>
      </trkpt>
      <trkpt lat="40.7111" lon="0.71604">
        <ele>7.6</ele>
        <time>2022-05-24 22:55:56</time>
      </trkpt>
      <trkpt lat="40.71112" lon="0.71611">
        <ele>7.6</ele>
        <time>2022-05-24 22:55:57</time>
      </trkpt>
      <trkpt lat="40.71115" lon="0.71618">
        <ele>7.6</ele>
        <time>2022-05-24 22:55:58</time>
      </trkpt>
      <trkpt lat="40.71116" lon="0.71624">
        <ele>7.6</ele>
        <time>2022-05-24 22:55:59</time>
      </trkpt>
      <trkpt lat="40.71117" lon="0.7163">
        <ele>7.8</ele>
        <time>2022-05-24 22:56:00</time>
      </trkpt>
      <trkpt lat="40.71117" lon="0.71637">
        <ele>7.8</ele>
        <time>2022-05-24 22:56:01</time>
      </trkpt>
      <trkpt lat="40.71116" lon="0.71644">
        <ele>8</ele>
        <time>2022-05-24 22:56:02</time>
      </trkpt>
      <trkpt lat="40.71115" lon="0.71651">
        <ele>8</ele>
        <time>2022-05-24 22:56:03</time>
      </trkpt>
      <trkpt lat="40.71114" lon="0.71657">
        <ele>8</ele>
        <time>2022-05-24 22:56:04</time>
      </trkpt>
      <trkpt lat="40.71114" lon="0.71664">
        <ele>8</ele>
        <time>2022-05-24 22:56:05</time>
      </trkpt>
      <trkpt lat="40.71115" lon="0.71671">
        <ele>7.8</ele>
        <time>2022-05-24 22:56:06</time>
      </trkpt>
      <trkpt lat="40.71117" lon="0.71676">
        <ele>7.8</ele>
        <time>2022-05-24 22:56:07</time>
      </trkpt>
      <trkpt lat="40.71119" lon="0.71681">
        <ele>7.8</ele>
        <time>2022-05-24 22:56:08</time>
      </trkpt>
      <trkpt lat="40.71123" lon="0.71684">
        <ele>7.8</ele>
        <time>2022-05-24 22:56:09</time>
      </trkpt>
      <trkpt lat="40.71128" lon="0.71686">
        <ele>7.8</ele>
        <time>2022-05-24 22:56:10</time>
      </trkpt>
      <trkpt lat="40.71132" lon="0.71686">
        <ele>7.8</ele>
        <time>2022-05-24 22:56:11</time>
      </trkpt>
      <trkpt lat="40.71137" lon="0.71685">
        <ele>7.8</ele>
        <time>2022-05-24 22:56:12</time>
      </trkpt>
      <trkpt lat="40.71141" lon="0.71684">
        <ele>7.8</ele>
        <time>2022-05-24 22:56:13</time>
      </trkpt>
      <trkpt lat="40.71146" lon="0.71683">
        <ele>8</ele>
        <time>2022-05-24 22:56:14</time>
      </trkpt>
      <trkpt lat="40.71151" lon="0.71682">
        <ele>8</ele>
        <time>2022-05-24 22:56:15</time>
      </trkpt>
      <trkpt lat="40.71156" lon="0.71682">
        <ele>8.2</ele>
        <time>2022-05-24 22:56:16</time>
      </trkpt>
      <trkpt lat="40.71161" lon="0.71683">
        <ele>8.2</ele>
        <time>2022-05-24 22:56:17</time>
      </trkpt>
      <trkpt lat="40.71165" lon="0.71685">
        <ele>8.4</ele>
        <time>2022-05-24 22:56:18</time>
      </trkpt>
      <trkpt lat="40.71169" lon="0.71686">
        <ele>8.8</ele>
        <time>2022-05-24 22:56:19</time>
      </trkpt>
      <trkpt lat="40.71172" lon="0.71688">
        <ele>9.4</ele>
        <time>2022-05-24 22:56:20</time>
      </trkpt>
      <trkpt lat="40.71175" lon="0.71689">
        <ele>10</ele>
        <time>2022-05-24 22:56:21</time>
      </trkpt>
      <trkpt lat="40.71177" lon="0.7169">
        <ele>10.4</ele>
        <time>2022-05-24 22:56:22</time>
      </trkpt>
      <trkpt lat="40.7118" lon="0.71691">
        <ele>11</ele>
        <time>2022-05-24 22:56:23</time>
      </trkpt>
      <trkpt lat="40.71181" lon="0.71692">
        <ele>11.4</ele>
        <time>2022-05-24 22:56:24</time>
      </trkpt>
      <trkpt lat="40.71184" lon="0.71693">
        <ele>11.6</ele>
        <time>2022-05-24 22:56:25</time>
      </trkpt>
      <trkpt lat="40.71186" lon="0.71694">
        <ele>11.8</ele>
        <time>2022-05-24 22:56:26</time>
      </trkpt>
      <trkpt lat="40.71188" lon="0.71695">
        <ele>12</ele>
        <time>2022-05-24 22:56:27</time>
      </trkpt>
      <trkpt lat="40.7119" lon="0.71696">
        <ele>12.2</ele>
        <time>2022-05-24 22:56:28</time>
      </trkpt>
      <trkpt lat="40.71193" lon="0.71698">
        <ele>12.4</ele>
        <time>2022-05-24 22:56:29</time>
      </trkpt>
      <trkpt lat="40.71195" lon="0.71699">
        <ele>12.4</ele>
        <time>2022-05-24 22:56:30</time>
      </trkpt>
      <trkpt lat="40.71198" lon="0.717">
        <ele>12.4</ele>
        <time>2022-05-24 22:56:31</time>
      </trkpt>
      <trkpt lat="40.712" lon="0.71701">
        <ele>12.6</ele>
        <time>2022-05-24 22:56:32</time>
      </trkpt>
      <trkpt lat="40.71202" lon="0.71702">
        <ele>12.8</ele>
        <time>2022-05-24 22:56:33</time>
      </trkpt>
      <trkpt lat="40.71205" lon="0.71703">
        <ele>13</ele>
        <time>2022-05-24 22:56:34</time>
      </trkpt>
      <trkpt lat="40.71207" lon="0.71704">
        <ele>13.2</ele>
        <time>2022-05-24 22:56:35</time>
      </trkpt>
      <trkpt lat="40.7121" lon="0.71705">
        <ele>13.4</ele>
        <time>2022-05-24 22:56:36</time>
      </trkpt>
      <trkpt lat="40.71212" lon="0.71707">
        <ele>13.4</ele>
        <time>2022-05-24 22:56:37</time>
      </trkpt>
      <trkpt lat="40.71215" lon="0.71708">
        <ele>13.6</ele>
        <time>2022-05-24 22:56:38</time>
      </trkpt>
      <trkpt lat="40.71217" lon="0.71709">
        <ele>13.6</ele>
        <time>2022-05-24 22:56:39</time>
      </trkpt>
      <trkpt lat="40.7122" lon="0.7171">
        <ele>13.8</ele>
        <time>2022-05-24 22:56:40</time>
      </trkpt>
      <trkpt lat="40.71222" lon="0.71711">
        <ele>14</ele>
        <time>2022-05-24 22:56:41</time>
      </trkpt>
      <trkpt lat="40.71224" lon="0.71712">
        <ele>14.2</ele>
        <time>2022-05-24 22:56:42</time>
      </trkpt>
      <trkpt lat="40.71227" lon="0.71713">
        <ele>14.4</ele>
        <time>2022-05-24 22:56:43</time>
      </trkpt>
      <trkpt lat="40.71229" lon="0.71713">
        <ele>14.6</ele>
        <time>2022-05-24 22:56:44</time>
      </trkpt>
      <trkpt lat="40.71231" lon="0.71714">
        <ele>15</ele>
        <time>2022-05-24 22:56:45</time>
      </trkpt>
      <trkpt lat="40.71234" lon="0.71716">
        <ele>15.2</ele>
        <time>2022-05-24 22:56:46</time>
      </trkpt>
      <trkpt lat="40.71236" lon="0.71717">
        <ele>15.4</ele>
        <time>2022-05-24 22:56:47</time>
      </trkpt>
      <trkpt lat="40.71239" lon="0.71718">
        <ele>15.6</ele>
        <time>2022-05-24 22:56:48</time>
      </trkpt>
      <trkpt lat="40.71241" lon="0.71719">
        <ele>15.8</ele>
        <time>2022-05-24 22:56:49</time>
      </trkpt>
      <trkpt lat="40.71244" lon="0.7172">
        <ele>16.2</ele>
        <time>2022-05-24 22:56:50</time>
      </trkpt>
      <trkpt lat="40.71247" lon="0.71721">
        <ele>16.2</ele>
        <time>2022-05-24 22:56:51</time>
      </trkpt>
      <trkpt lat="40.71249" lon="0.71722">
        <ele>16.4</ele>
        <time>2022-05-24 22:56:52</time>
      </trkpt>
      <trkpt lat="40.71252" lon="0.71723">
        <ele>16.4</ele>
        <time>2022-05-24 22:56:53</time>
      </trkpt>
      <trkpt lat="40.71254" lon="0.71724">
        <ele>16.6</ele>
        <time>2022-05-24 22:56:54</time>
      </trkpt>
      <trkpt lat="40.71257" lon="0.71725">
        <ele>16.6</ele>
        <time>2022-05-24 22:56:55</time>
      </trkpt>
      <trkpt lat="40.71259" lon="0.71726">
        <ele>16.8</ele>
        <time>2022-05-24 22:56:56</time>
      </trkpt>
      <trkpt lat="40.71262" lon="0.71728">
        <ele>17</ele>
        <time>2022-05-24 22:56:57</time>
      </trkpt>
      <trkpt lat="40.71265" lon="0.71729">
        <ele>17</ele>
        <time>2022-05-24 22:56:58</time>
      </trkpt>
      <trkpt lat="40.71268" lon="0.71731">
        <ele>17.2</ele>
        <time>2022-05-24 22:56:59</time>
      </trkpt>
      <trkpt lat="40.71271" lon="0.71732">
        <ele>17.4</ele>
        <time>2022-05-24 22:57:00</time>
      </trkpt>
      <trkpt lat="40.71274" lon="0.71733">
        <ele>17.6</ele>
        <time>2022-05-24 22:57:01</time>
      </trkpt>
      <trkpt lat="40.71278" lon="0.71735">
        <ele>17.8</ele>
        <time>2022-05-24 22:57:02</time>
      </trkpt>
      <trkpt lat="40.71281" lon="0.71736">
        <ele>18</ele>
        <time>2022-05-24 22:57:03</time>
      </trkpt>
      <trkpt lat="40.71285" lon="0.71737">
        <ele>18</ele>
        <time>2022-05-24 22:57:04</time>
      </trkpt>
      <trkpt lat="40.71289" lon="0.71739">
        <ele>18</ele>
        <time>2022-05-24 22:57:05</time>
      </trkpt>
      <trkpt lat="40.71292" lon="0.7174">
        <ele>18</ele>
        <time>2022-05-24 22:57:06</time>
      </trkpt>
      <trkpt lat="40.71296" lon="0.71742">
        <ele>18.2</ele>
        <time>2022-05-24 22:57:07</time>
      </trkpt>
      <trkpt lat="40.713" lon="0.71743">
        <ele>18.2</ele>
        <time>2022-05-24 22:57:08</time>
      </trkpt>
      <trkpt lat="40.71304" lon="0.71745">
        <ele>18.2</ele>
        <time>2022-05-24 22:57:09</time>
      </trkpt>
      <trkpt lat="40.71308" lon="0.71747">
        <ele>18</ele>
        <time>2022-05-24 22:57:10</time>
      </trkpt>
      <trkpt lat="40.71312" lon="0.71748">
        <ele>18</ele>
        <time>2022-05-24 22:57:11</time>
      </trkpt>
      <trkpt lat="40.71316" lon="0.7175">
        <ele>18</ele>
        <time>2022-05-24 22:57:12</time>
      </trkpt>
      <trkpt lat="40.7132" lon="0.71752">
        <ele>17.8</ele>
        <time>2022-05-24 22:57:13</time>
      </trkpt>
      <trkpt lat="40.71325" lon="0.71754">
        <ele>17.8</ele>
        <time>2022-05-24 22:57:14</time>
      </trkpt>
      <trkpt lat="40.71329" lon="0.71757">
        <ele>17.6</ele>
        <time>2022-05-24 22:57:15</time>
      </trkpt>
      <trkpt lat="40.71334" lon="0.71759">
        <ele>17.6</ele>
        <time>2022-05-24 22:57:16</time>
      </trkpt>
      <trkpt lat="40.71339" lon="0.71761">
        <ele>17.4</ele>
        <time>2022-05-24 22:57:17</time>
      </trkpt>
      <trkpt lat="40.71344" lon="0.71763">
        <ele>17.2</ele>
        <time>2022-05-24 22:57:18</time>
      </trkpt>
      <trkpt lat="40.71349" lon="0.71765">
        <ele>17</ele>
        <time>2022-05-24 22:57:19</time>
      </trkpt>
      <trkpt lat="40.71354" lon="0.71767">
        <ele>16.6</ele>
        <time>2022-05-24 22:57:20</time>
      </trkpt>
      <trkpt lat="40.7136" lon="0.7177">
        <ele>16.2</ele>
        <time>2022-05-24 22:57:21</time>
      </trkpt>
      <trkpt lat="40.71366" lon="0.71773">
        <ele>15.6</ele>
        <time>2022-05-24 22:57:22</time>
      </trkpt>
      <trkpt lat="40.71373" lon="0.71775">
        <ele>15.4</ele>
        <time>2022-05-24 22:57:23</time>
      </trkpt>
      <trkpt lat="40.71379" lon="0.71778">
        <ele>15</ele>
        <time>2022-05-24 22:57:24</time>
      </trkpt>
      <trkpt lat="40.71386" lon="0.71781">
        <ele>14.6</ele>
        <time>2022-05-24 22:57:25</time>
      </trkpt>
      <trkpt lat="40.71393" lon="0.71784">
        <ele>14</ele>
        <time>2022-05-24 22:57:26</time>
      </trkpt>
      <trkpt lat="40.71401" lon="0.71787">
        <ele>13.4</ele>
        <time>2022-05-24 22:57:27</time>
      </trkpt>
      <trkpt lat="40.71409" lon="0.71791">
        <ele>12.6</ele>
        <time>2022-05-24 22:57:28</time>
      </trkpt>
      <trkpt lat="40.71418" lon="0.71794">
        <ele>12</ele>
        <time>2022-05-24 22:57:29</time>
      </trkpt>
      <trkpt lat="40.71426" lon="0.71797">
        <ele>11.2</ele>
        <time>2022-05-24 22:57:30</time>
      </trkpt>
      <trkpt lat="40.71435" lon="0.71801">
        <ele>10.4</ele>
        <time>2022-05-24 22:57:31</time>
      </trkpt>
      <trkpt lat="40.71444" lon="0.71805">
        <ele>9.6</ele>
        <time>2022-05-24 22:57:32</time>
      </trkpt>
      <trkpt lat="40.71453" lon="0.71808">
        <ele>8.8</ele>
        <time>2022-05-24 22:57:33</time>
      </trkpt>
      <trkpt lat="40.71462" lon="0.71812">
        <ele>8</ele>
        <time>2022-05-24 22:57:34</time>
      </trkpt>
      <trkpt lat="40.71471" lon="0.71816">
        <ele>7.4</ele>
        <time>2022-05-24 22:57:35</time>
      </trkpt>
      <trkpt lat="40.71479" lon="0.71821">
        <ele>7</ele>
        <time>2022-05-24 22:57:36</time>
      </trkpt>
      <trkpt lat="40.71488" lon="0.71827">
        <ele>6.8</ele>
        <time>2022-05-24 22:57:37</time>
      </trkpt>
      <trkpt lat="40.71496" lon="0.71832">
        <ele>6.6</ele>
        <time>2022-05-24 22:57:38</time>
      </trkpt>
      <trkpt lat="40.71503" lon="0.71837">
        <ele>6.4</ele>
        <time>2022-05-24 22:57:39</time>
      </trkpt>
      <trkpt lat="40.7151" lon="0.71843">
        <ele>6.2</ele>
        <time>2022-05-24 22:57:40</time>
      </trkpt>
      <trkpt lat="40.71516" lon="0.71848">
        <ele>6.2</ele>
        <time>2022-05-24 22:57:41</time>
      </trkpt>
      <trkpt lat="40.71523" lon="0.71854">
        <ele>6.2</ele>
        <time>2022-05-24 22:57:42</time>
      </trkpt>
      <trkpt lat="40.71529" lon="0.71859">
        <ele>6.2</ele>
        <time>2022-05-24 22:57:43</time>
      </trkpt>
      <trkpt lat="40.71534" lon="0.71864">
        <ele>6.4</ele>
        <time>2022-05-24 22:57:44</time>
      </trkpt>
      <trkpt lat="40.71538" lon="0.7187">
        <ele>6.6</ele>
        <time>2022-05-24 22:57:45</time>
      </trkpt>
      <trkpt lat="40.71542" lon="0.71876">
        <ele>6.6</ele>
        <time>2022-05-24 22:57:46</time>
      </trkpt>
      <trkpt lat="40.71547" lon="0.71883">
        <ele>6.6</ele>
        <time>2022-05-24 22:57:47</time>
      </trkpt>
      <trkpt lat="40.7155" lon="0.71889">
        <ele>6.8</ele>
        <time>2022-05-24 22:57:48</time>
      </trkpt>
      <trkpt lat="40.71554" lon="0.71894">
        <ele>6.8</ele>
        <time>2022-05-24 22:57:49</time>
      </trkpt>
      <trkpt lat="40.71558" lon="0.71899">
        <ele>6.8</ele>
        <time>2022-05-24 22:57:50</time>
      </trkpt>
      <trkpt lat="40.71564" lon="0.71901">
        <ele>6.8</ele>
        <time>2022-05-24 22:57:51</time>
      </trkpt>
      <trkpt lat="40.71569" lon="0.71904">
        <ele>6.8</ele>
        <time>2022-05-24 22:57:52</time>
      </trkpt>
      <trkpt lat="40.71575" lon="0.71906">
        <ele>6.8</ele>
        <time>2022-05-24 22:57:53</time>
      </trkpt>
      <trkpt lat="40.71581" lon="0.71909">
        <ele>7</ele>
        <time>2022-05-24 22:57:54</time>
      </trkpt>
      <trkpt lat="40.71586" lon="0.71912">
        <ele>7.2</ele>
        <time>2022-05-24 22:57:55</time>
      </trkpt>
      <trkpt lat="40.71591" lon="0.71916">
        <ele>7</ele>
        <time>2022-05-24 22:57:56</time>
      </trkpt>
      <trkpt lat="40.71596" lon="0.7192">
        <ele>7</ele>
        <time>2022-05-24 22:57:57</time>
      </trkpt>
      <trkpt lat="40.71601" lon="0.71925">
        <ele>6.8</ele>
        <time>2022-05-24 22:57:58</time>
      </trkpt>
      <trkpt lat="40.71605" lon="0.7193">
        <ele>6.8</ele>
        <time>2022-05-24 22:57:59</time>
      </trkpt>
      <trkpt lat="40.7161" lon="0.71935">
        <ele>6.8</ele>
        <time>2022-05-24 22:58:00</time>
      </trkpt>
      <trkpt lat="40.71615" lon="0.7194">
        <ele>6.8</ele>
        <time>2022-05-24 22:58:01</time>
      </trkpt>
      <trkpt lat="40.7162" lon="0.71945">
        <ele>6.8</ele>
        <time>2022-05-24 22:58:02</time>
      </trkpt>
      <trkpt lat="40.71625" lon="0.7195">
        <ele>6.8</ele>
        <time>2022-05-24 22:58:03</time>
      </trkpt>
      <trkpt lat="40.7163" lon="0.71955">
        <ele>6.8</ele>
        <time>2022-05-24 22:58:04</time>
      </trkpt>
      <trkpt lat="40.71634" lon="0.7196">
        <ele>6.8</ele>
        <time>2022-05-24 22:58:05</time>
      </trkpt>
      <trkpt lat="40.71639" lon="0.71966">
        <ele>6.6</ele>
        <time>2022-05-24 22:58:06</time>
      </trkpt>
      <trkpt lat="40.71644" lon="0.71971">
        <ele>6.6</ele>
        <time>2022-05-24 22:58:07</time>
      </trkpt>
      <trkpt lat="40.71648" lon="0.71976">
        <ele>6.6</ele>
        <time>2022-05-24 22:58:08</time>
      </trkpt>
      <trkpt lat="40.71653" lon="0.71982">
        <ele>6.6</ele>
        <time>2022-05-24 22:58:09</time>
      </trkpt>
      <trkpt lat="40.71658" lon="0.71987">
        <ele>6.6</ele>
        <time>2022-05-24 22:58:10</time>
      </trkpt>
      <trkpt lat="40.71662" lon="0.71993">
        <ele>6.6</ele>
        <time>2022-05-24 22:58:11</time>
      </trkpt>
      <trkpt lat="40.71667" lon="0.71998">
        <ele>6.6</ele>
        <time>2022-05-24 22:58:12</time>
      </trkpt>
      <trkpt lat="40.71671" lon="0.72003">
        <ele>6.6</ele>
        <time>2022-05-24 22:58:13</time>
      </trkpt>
      <trkpt lat="40.71676" lon="0.72008">
        <ele>6.6</ele>
        <time>2022-05-24 22:58:14</time>
      </trkpt>
      <trkpt lat="40.71681" lon="0.72014">
        <ele>6.6</ele>
        <time>2022-05-24 22:58:15</time>
      </trkpt>
      <trkpt lat="40.71686" lon="0.72019">
        <ele>6.8</ele>
        <time>2022-05-24 22:58:16</time>
      </trkpt>
      <trkpt lat="40.71691" lon="0.72024">
        <ele>6.6</ele>
        <time>2022-05-24 22:58:17</time>
      </trkpt>
      <trkpt lat="40.71696" lon="0.72029">
        <ele>6.6</ele>
        <time>2022-05-24 22:58:18</time>
      </trkpt>
      <trkpt lat="40.71702" lon="0.72034">
        <ele>6.6</ele>
        <time>2022-05-24 22:58:19</time>
      </trkpt>
      <trkpt lat="40.71707" lon="0.72039">
        <ele>6.6</ele>
        <time>2022-05-24 22:58:20</time>
      </trkpt>
      <trkpt lat="40.71712" lon="0.72044">
        <ele>6.8</ele>
        <time>2022-05-24 22:58:21</time>
      </trkpt>
      <trkpt lat="40.71718" lon="0.72049">
        <ele>6.6</ele>
        <time>2022-05-24 22:58:22</time>
      </trkpt>
      <trkpt lat="40.71723" lon="0.72053">
        <ele>6.6</ele>
        <time>2022-05-24 22:58:23</time>
      </trkpt>
      <trkpt lat="40.71728" lon="0.72057">
        <ele>6.6</ele>
        <time>2022-05-24 22:58:24</time>
      </trkpt>
      <trkpt lat="40.71733" lon="0.72061">
        <ele>6.6</ele>
        <time>2022-05-24 22:58:25</time>
      </trkpt>
      <trkpt lat="40.7174" lon="0.72065">
        <ele>6.6</ele>
        <time>2022-05-24 22:58:26</time>
      </trkpt>
      <trkpt lat="40.71745" lon="0.72069">
        <ele>6.4</ele>
        <time>2022-05-24 22:58:27</time>
      </trkpt>
      <trkpt lat="40.71751" lon="0.72072">
        <ele>6.4</ele>
        <time>2022-05-24 22:58:28</time>
      </trkpt>
      <trkpt lat="40.71757" lon="0.72075">
        <ele>6.4</ele>
        <time>2022-05-24 22:58:29</time>
      </trkpt>
      <trkpt lat="40.71763" lon="0.72078">
        <ele>6.4</ele>
        <time>2022-05-24 22:58:30</time>
      </trkpt>
      <trkpt lat="40.71769" lon="0.72081">
        <ele>6.4</ele>
        <time>2022-05-24 22:58:31</time>
      </trkpt>
      <trkpt lat="40.71775" lon="0.72084">
        <ele>6.2</ele>
        <time>2022-05-24 22:58:32</time>
      </trkpt>
      <trkpt lat="40.7178" lon="0.72086">
        <ele>6.2</ele>
        <time>2022-05-24 22:58:33</time>
      </trkpt>
      <trkpt lat="40.71786" lon="0.72088">
        <ele>6</ele>
        <time>2022-05-24 22:58:34</time>
      </trkpt>
      <trkpt lat="40.71792" lon="0.72091">
        <ele>6.2</ele>
        <time>2022-05-24 22:58:35</time>
      </trkpt>
      <trkpt lat="40.71798" lon="0.72093">
        <ele>6.2</ele>
        <time>2022-05-24 22:58:36</time>
      </trkpt>
      <trkpt lat="40.71803" lon="0.72095">
        <ele>6.4</ele>
        <time>2022-05-24 22:58:37</time>
      </trkpt>
      <trkpt lat="40.71808" lon="0.72096">
        <ele>6.4</ele>
        <time>2022-05-24 22:58:38</time>
      </trkpt>
      <trkpt lat="40.71814" lon="0.72098">
        <ele>6.4</ele>
        <time>2022-05-24 22:58:39</time>
      </trkpt>
      <trkpt lat="40.71819" lon="0.721">
        <ele>6.4</ele>
        <time>2022-05-24 22:58:40</time>
      </trkpt>
      <trkpt lat="40.71825" lon="0.72101">
        <ele>6.4</ele>
        <time>2022-05-24 22:58:41</time>
      </trkpt>
      <trkpt lat="40.7183" lon="0.72103">
        <ele>6.4</ele>
        <time>2022-05-24 22:58:42</time>
      </trkpt>
      <trkpt lat="40.71836" lon="0.72104">
        <ele>6.4</ele>
        <time>2022-05-24 22:58:43</time>
      </trkpt>
      <trkpt lat="40.71841" lon="0.72106">
        <ele>6.2</ele>
        <time>2022-05-24 22:58:44</time>
      </trkpt>
      <trkpt lat="40.71846" lon="0.72107">
        <ele>6.2</ele>
        <time>2022-05-24 22:58:45</time>
      </trkpt>
      <trkpt lat="40.71851" lon="0.72107">
        <ele>6.2</ele>
        <time>2022-05-24 22:58:46</time>
      </trkpt>
      <trkpt lat="40.71856" lon="0.72108">
        <ele>6</ele>
        <time>2022-05-24 22:58:47</time>
      </trkpt>
      <trkpt lat="40.71861" lon="0.72107">
        <ele>6.2</ele>
        <time>2022-05-24 22:58:48</time>
      </trkpt>
      <trkpt lat="40.71866" lon="0.72107">
        <ele>6</ele>
        <time>2022-05-24 22:58:49</time>
      </trkpt>
      <trkpt lat="40.71872" lon="0.72107">
        <ele>6</ele>
        <time>2022-05-24 22:58:50</time>
      </trkpt>
      <trkpt lat="40.71878" lon="0.72107">
        <ele>6</ele>
        <time>2022-05-24 22:58:51</time>
      </trkpt>
      <trkpt lat="40.71883" lon="0.72107">
        <ele>6</ele>
        <time>2022-05-24 22:58:52</time>
      </trkpt>
      <trkpt lat="40.71889" lon="0.72107">
        <ele>6.2</ele>
        <time>2022-05-24 22:58:53</time>
      </trkpt>
      <trkpt lat="40.71895" lon="0.72108">
        <ele>6.2</ele>
        <time>2022-05-24 22:58:54</time>
      </trkpt>
      <trkpt lat="40.71901" lon="0.72109">
        <ele>6.2</ele>
        <time>2022-05-24 22:58:55</time>
      </trkpt>
      <trkpt lat="40.71906" lon="0.7211">
        <ele>6.2</ele>
        <time>2022-05-24 22:58:56</time>
      </trkpt>
      <trkpt lat="40.71912" lon="0.72111">
        <ele>6.2</ele>
        <time>2022-05-24 22:58:57</time>
      </trkpt>
      <trkpt lat="40.71918" lon="0.72111">
        <ele>6.2</ele>
        <time>2022-05-24 22:58:58</time>
      </trkpt>
      <trkpt lat="40.71923" lon="0.72112">
        <ele>6</ele>
        <time>2022-05-24 22:58:59</time>
      </trkpt>
      <trkpt lat="40.71929" lon="0.72112">
        <ele>6</ele>
        <time>2022-05-24 22:59:00</time>
      </trkpt>
      <trkpt lat="40.71935" lon="0.72113">
        <ele>6</ele>
        <time>2022-05-24 22:59:01</time>
      </trkpt>
      <trkpt lat="40.7194" lon="0.72113">
        <ele>6</ele>
        <time>2022-05-24 22:59:02</time>
      </trkpt>
      <trkpt lat="40.71945" lon="0.72114">
        <ele>6</ele>
        <time>2022-05-24 22:59:03</time>
      </trkpt>
      <trkpt lat="40.7195" lon="0.72114">
        <ele>6</ele>
        <time>2022-05-24 22:59:04</time>
      </trkpt>
      <trkpt lat="40.71955" lon="0.72114">
        <ele>6</ele>
        <time>2022-05-24 22:59:05</time>
      </trkpt>
      <trkpt lat="40.71961" lon="0.72115">
        <ele>6</ele>
        <time>2022-05-24 22:59:06</time>
      </trkpt>
      <trkpt lat="40.71966" lon="0.72115">
        <ele>6</ele>
        <time>2022-05-24 22:59:07</time>
      </trkpt>
      <trkpt lat="40.71972" lon="0.72115">
        <ele>6</ele>
        <time>2022-05-24 22:59:08</time>
      </trkpt>
      <trkpt lat="40.71977" lon="0.72116">
        <ele>6</ele>
        <time>2022-05-24 22:59:09</time>
      </trkpt>
      <trkpt lat="40.71982" lon="0.72116">
        <ele>5.8</ele>
        <time>2022-05-24 22:59:10</time>
      </trkpt>
      <trkpt lat="40.71987" lon="0.72117">
        <ele>5.8</ele>
        <time>2022-05-24 22:59:11</time>
      </trkpt>
      <trkpt lat="40.71992" lon="0.72117">
        <ele>5.6</ele>
        <time>2022-05-24 22:59:12</time>
      </trkpt>
      <trkpt lat="40.71998" lon="0.72118">
        <ele>5.6</ele>
        <time>2022-05-24 22:59:13</time>
      </trkpt>
      <trkpt lat="40.72004" lon="0.72118">
        <ele>5.6</ele>
        <time>2022-05-24 22:59:14</time>
      </trkpt>
      <trkpt lat="40.72009" lon="0.72119">
        <ele>5.6</ele>
        <time>2022-05-24 22:59:15</time>
      </trkpt>
      <trkpt lat="40.72014" lon="0.72119">
        <ele>5.6</ele>
        <time>2022-05-24 22:59:16</time>
      </trkpt>
      <trkpt lat="40.7202" lon="0.72119">
        <ele>5.6</ele>
        <time>2022-05-24 22:59:17</time>
      </trkpt>
      <trkpt lat="40.72025" lon="0.7212">
        <ele>5.6</ele>
        <time>2022-05-24 22:59:18</time>
      </trkpt>
      <trkpt lat="40.72031" lon="0.7212">
        <ele>5.6</ele>
        <time>2022-05-24 22:59:19</time>
      </trkpt>
      <trkpt lat="40.72036" lon="0.7212">
        <ele>5.8</ele>
        <time>2022-05-24 22:59:20</time>
      </trkpt>
      <trkpt lat="40.72042" lon="0.7212">
        <ele>5.8</ele>
        <time>2022-05-24 22:59:21</time>
      </trkpt>
      <trkpt lat="40.72047" lon="0.72121">
        <ele>5.8</ele>
        <time>2022-05-24 22:59:22</time>
      </trkpt>
      <trkpt lat="40.72053" lon="0.72121">
        <ele>6</ele>
        <time>2022-05-24 22:59:23</time>
      </trkpt>
      <trkpt lat="40.72058" lon="0.72121">
        <ele>5.8</ele>
        <time>2022-05-24 22:59:24</time>
      </trkpt>
      <trkpt lat="40.72064" lon="0.72122">
        <ele>5.8</ele>
        <time>2022-05-24 22:59:25</time>
      </trkpt>
      <trkpt lat="40.7207" lon="0.72122">
        <ele>5.6</ele>
        <time>2022-05-24 22:59:26</time>
      </trkpt>
      <trkpt lat="40.72076" lon="0.72122">
        <ele>5.6</ele>
        <time>2022-05-24 22:59:27</time>
      </trkpt>
      <trkpt lat="40.72081" lon="0.72123">
        <ele>5.8</ele>
        <time>2022-05-24 22:59:28</time>
      </trkpt>
      <trkpt lat="40.72086" lon="0.72123">
        <ele>5.8</ele>
        <time>2022-05-24 22:59:29</time>
      </trkpt>
      <trkpt lat="40.72092" lon="0.72123">
        <ele>5.8</ele>
        <time>2022-05-24 22:59:30</time>
      </trkpt>
      <trkpt lat="40.72097" lon="0.72123">
        <ele>5.8</ele>
        <time>2022-05-24 22:59:31</time>
      </trkpt>
      <trkpt lat="40.72103" lon="0.72124">
        <ele>5.8</ele>
        <time>2022-05-24 22:59:32</time>
      </trkpt>
      <trkpt lat="40.72108" lon="0.72124">
        <ele>5.8</ele>
        <time>2022-05-24 22:59:33</time>
      </trkpt>
      <trkpt lat="40.72113" lon="0.72124">
        <ele>5.8</ele>
        <time>2022-05-24 22:59:34</time>
      </trkpt>
      <trkpt lat="40.7212" lon="0.72124">
        <ele>5.8</ele>
        <time>2022-05-24 22:59:35</time>
      </trkpt>
      <trkpt lat="40.72125" lon="0.72123">
        <ele>5.8</ele>
        <time>2022-05-24 22:59:36</time>
      </trkpt>
      <trkpt lat="40.72131" lon="0.72123">
        <ele>6</ele>
        <time>2022-05-24 22:59:37</time>
      </trkpt>
      <trkpt lat="40.72136" lon="0.72122">
        <ele>6</ele>
        <time>2022-05-24 22:59:38</time>
      </trkpt>
      <trkpt lat="40.72142" lon="0.72122">
        <ele>6</ele>
        <time>2022-05-24 22:59:39</time>
      </trkpt>
      <trkpt lat="40.72147" lon="0.7212">
        <ele>6</ele>
        <time>2022-05-24 22:59:40</time>
      </trkpt>
      <trkpt lat="40.72153" lon="0.72119">
        <ele>6</ele>
        <time>2022-05-24 22:59:41</time>
      </trkpt>
      <trkpt lat="40.72158" lon="0.72118">
        <ele>5.8</ele>
        <time>2022-05-24 22:59:42</time>
      </trkpt>
      <trkpt lat="40.72164" lon="0.72117">
        <ele>5.8</ele>
        <time>2022-05-24 22:59:43</time>
      </trkpt>
      <trkpt lat="40.72169" lon="0.72116">
        <ele>5.6</ele>
        <time>2022-05-24 22:59:44</time>
      </trkpt>
      <trkpt lat="40.72174" lon="0.72115">
        <ele>5.6</ele>
        <time>2022-05-24 22:59:45</time>
      </trkpt>
      <trkpt lat="40.72179" lon="0.72114">
        <ele>5.8</ele>
        <time>2022-05-24 22:59:46</time>
      </trkpt>
      <trkpt lat="40.72184" lon="0.72112">
        <ele>5.8</ele>
        <time>2022-05-24 22:59:47</time>
      </trkpt>
      <trkpt lat="40.7219" lon="0.7211">
        <ele>5.8</ele>
        <time>2022-05-24 22:59:48</time>
      </trkpt>
      <trkpt lat="40.72195" lon="0.72109">
        <ele>6</ele>
        <time>2022-05-24 22:59:49</time>
      </trkpt>
      <trkpt lat="40.722" lon="0.72107">
        <ele>6</ele>
        <time>2022-05-24 22:59:50</time>
      </trkpt>
      <trkpt lat="40.72206" lon="0.72106">
        <ele>6.2</ele>
        <time>2022-05-24 22:59:51</time>
      </trkpt>
      <trkpt lat="40.72211" lon="0.72106">
        <ele>6.2</ele>
        <time>2022-05-24 22:59:52</time>
      </trkpt>
      <trkpt lat="40.72216" lon="0.72105">
        <ele>6.2</ele>
        <time>2022-05-24 22:59:53</time>
      </trkpt>
      <trkpt lat="40.72221" lon="0.72104">
        <ele>6.2</ele>
        <time>2022-05-24 22:59:54</time>
      </trkpt>
      <trkpt lat="40.72227" lon="0.72103">
        <ele>6.2</ele>
        <time>2022-05-24 22:59:55</time>
      </trkpt>
      <trkpt lat="40.72232" lon="0.72102">
        <ele>6.2</ele>
        <time>2022-05-24 22:59:56</time>
      </trkpt>
      <trkpt lat="40.72237" lon="0.72101">
        <ele>6.2</ele>
        <time>2022-05-24 22:59:57</time>
      </trkpt>
      <trkpt lat="40.72242" lon="0.72099">
        <ele>6.2</ele>
        <time>2022-05-24 22:59:58</time>
      </trkpt>
      <trkpt lat="40.72247" lon="0.72098">
        <ele>6.2</ele>
        <time>2022-05-24 22:59:59</time>
      </trkpt>
      <trkpt lat="40.72253" lon="0.72097">
        <ele>6.2</ele>
        <time>2022-05-24 23:00:00</time>
      </trkpt>
      <trkpt lat="40.72258" lon="0.72096">
        <ele>6.2</ele>
        <time>2022-05-24 23:00:01</time>
      </trkpt>
      <trkpt lat="40.72263" lon="0.72095">
        <ele>6.2</ele>
        <time>2022-05-24 23:00:02</time>
      </trkpt>
      <trkpt lat="40.72269" lon="0.72093">
        <ele>6.4</ele>
        <time>2022-05-24 23:00:03</time>
      </trkpt>
      <trkpt lat="40.72274" lon="0.72092">
        <ele>6.4</ele>
        <time>2022-05-24 23:00:04</time>
      </trkpt>
      <trkpt lat="40.72279" lon="0.7209">
        <ele>6.4</ele>
        <time>2022-05-24 23:00:05</time>
      </trkpt>
      <trkpt lat="40.72285" lon="0.72089">
        <ele>6.4</ele>
        <time>2022-05-24 23:00:06</time>
      </trkpt>
      <trkpt lat="40.7229" lon="0.72087">
        <ele>6.4</ele>
        <time>2022-05-24 23:00:07</time>
      </trkpt>
      <trkpt lat="40.72295" lon="0.72086">
        <ele>6.4</ele>
        <time>2022-05-24 23:00:08</time>
      </trkpt>
      <trkpt lat="40.723" lon="0.72085">
        <ele>6.4</ele>
        <time>2022-05-24 23:00:09</time>
      </trkpt>
      <trkpt lat="40.72306" lon="0.72084">
        <ele>6.4</ele>
        <time>2022-05-24 23:00:10</time>
      </trkpt>
      <trkpt lat="40.72311" lon="0.72082">
        <ele>6.4</ele>
        <time>2022-05-24 23:00:11</time>
      </trkpt>
      <trkpt lat="40.72316" lon="0.72081">
        <ele>6.4</ele>
        <time>2022-05-24 23:00:12</time>
      </trkpt>
      <trkpt lat="40.72322" lon="0.7208">
        <ele>6.4</ele>
        <time>2022-05-24 23:00:13</time>
      </trkpt>
      <trkpt lat="40.72327" lon="0.72079">
        <ele>6.4</ele>
        <time>2022-05-24 23:00:14</time>
      </trkpt>
      <trkpt lat="40.72332" lon="0.72078">
        <ele>6.4</ele>
        <time>2022-05-24 23:00:15</time>
      </trkpt>
      <trkpt lat="40.72337" lon="0.72077">
        <ele>6.2</ele>
        <time>2022-05-24 23:00:16</time>
      </trkpt>
      <trkpt lat="40.72343" lon="0.72076">
        <ele>6.2</ele>
        <time>2022-05-24 23:00:17</time>
      </trkpt>
      <trkpt lat="40.72348" lon="0.72075">
        <ele>6.2</ele>
        <time>2022-05-24 23:00:18</time>
      </trkpt>
      <trkpt lat="40.72353" lon="0.72074">
        <ele>6.2</ele>
        <time>2022-05-24 23:00:19</time>
      </trkpt>
      <trkpt lat="40.72358" lon="0.72073">
        <ele>6.2</ele>
        <time>2022-05-24 23:00:20</time>
      </trkpt>
      <trkpt lat="40.72363" lon="0.72073">
        <ele>6.2</ele>
        <time>2022-05-24 23:00:21</time>
      </trkpt>
      <trkpt lat="40.72368" lon="0.72072">
        <ele>6.2</ele>
        <time>2022-05-24 23:00:22</time>
      </trkpt>
      <trkpt lat="40.72374" lon="0.72072">
        <ele>6.2</ele>
        <time>2022-05-24 23:00:23</time>
      </trkpt>
      <trkpt lat="40.72378" lon="0.72072">
        <ele>6.2</ele>
        <time>2022-05-24 23:00:24</time>
      </trkpt>
      <trkpt lat="40.72382" lon="0.72071">
        <ele>6.2</ele>
        <time>2022-05-24 23:00:25</time>
      </trkpt>
      <trkpt lat="40.72389" lon="0.72071">
        <ele>6.2</ele>
        <time>2022-05-24 23:00:26</time>
      </trkpt>
      <trkpt lat="40.72394" lon="0.72071">
        <ele>6.2</ele>
        <time>2022-05-24 23:00:27</time>
      </trkpt>
      <trkpt lat="40.72399" lon="0.72072">
        <ele>6.2</ele>
        <time>2022-05-24 23:00:28</time>
      </trkpt>
      <trkpt lat="40.72404" lon="0.72072">
        <ele>6.4</ele>
        <time>2022-05-24 23:00:29</time>
      </trkpt>
      <trkpt lat="40.72409" lon="0.72073">
        <ele>6.4</ele>
        <time>2022-05-24 23:00:30</time>
      </trkpt>
      <trkpt lat="40.72414" lon="0.72074">
        <ele>6.4</ele>
        <time>2022-05-24 23:00:31</time>
      </trkpt>
      <trkpt lat="40.72419" lon="0.72075">
        <ele>6.4</ele>
        <time>2022-05-24 23:00:32</time>
      </trkpt>
      <trkpt lat="40.72424" lon="0.72076">
        <ele>6.6</ele>
        <time>2022-05-24 23:00:33</time>
      </trkpt>
      <trkpt lat="40.72429" lon="0.72078">
        <ele>6.6</ele>
        <time>2022-05-24 23:00:34</time>
      </trkpt>
      <trkpt lat="40.72434" lon="0.7208">
        <ele>6.6</ele>
        <time>2022-05-24 23:00:35</time>
      </trkpt>
      <trkpt lat="40.72439" lon="0.72082">
        <ele>6.8</ele>
        <time>2022-05-24 23:00:36</time>
      </trkpt>
      <trkpt lat="40.72445" lon="0.72084">
        <ele>6.8</ele>
        <time>2022-05-24 23:00:37</time>
      </trkpt>
      <trkpt lat="40.72449" lon="0.72085">
        <ele>6.8</ele>
        <time>2022-05-24 23:00:38</time>
      </trkpt>
      <trkpt lat="40.72454" lon="0.72087">
        <ele>6.8</ele>
        <time>2022-05-24 23:00:39</time>
      </trkpt>
      <trkpt lat="40.72459" lon="0.72087">
        <ele>6.8</ele>
        <time>2022-05-24 23:00:40</time>
      </trkpt>
      <trkpt lat="40.72463" lon="0.72086">
        <ele>6.8</ele>
        <time>2022-05-24 23:00:41</time>
      </trkpt>
      <trkpt lat="40.72467" lon="0.72085">
        <ele>7</ele>
        <time>2022-05-24 23:00:42</time>
      </trkpt>
      <trkpt lat="40.72469" lon="0.72085">
        <ele>7.2</ele>
        <time>2022-05-24 23:00:43</time>
      </trkpt>
      <trkpt lat="40.72472" lon="0.72085">
        <ele>7.2</ele>
        <time>2022-05-24 23:00:44</time>
      </trkpt>
      <trkpt lat="40.72474" lon="0.72085">
        <ele>7.4</ele>
        <time>2022-05-24 23:00:45</time>
      </trkpt>
      <trkpt lat="40.72475" lon="0.72086">
        <ele>7.6</ele>
        <time>2022-05-24 23:00:46</time>
      </trkpt>
      <trkpt lat="40.72477" lon="0.72086">
        <ele>7.6</ele>
        <time>2022-05-24 23:00:47</time>
      </trkpt>
      <trkpt lat="40.7248" lon="0.72087">
        <ele>7.8</ele>
        <time>2022-05-24 23:00:48</time>
      </trkpt>
      <trkpt lat="40.72482" lon="0.72087">
        <ele>7.8</ele>
        <time>2022-05-24 23:00:49</time>
      </trkpt>
      <trkpt lat="40.72485" lon="0.72088">
        <ele>8</ele>
        <time>2022-05-24 23:00:50</time>
      </trkpt>
      <trkpt lat="40.72488" lon="0.72089">
        <ele>8</ele>
        <time>2022-05-24 23:00:51</time>
      </trkpt>
      <trkpt lat="40.72492" lon="0.7209">
        <ele>8</ele>
        <time>2022-05-24 23:00:52</time>
      </trkpt>
      <trkpt lat="40.72496" lon="0.72091">
        <ele>8</ele>
        <time>2022-05-24 23:00:53</time>
      </trkpt>
      <trkpt lat="40.725" lon="0.72091">
        <ele>7.8</ele>
        <time>2022-05-24 23:00:54</time>
      </trkpt>
      <trkpt lat="40.72504" lon="0.72093">
        <ele>7.6</ele>
        <time>2022-05-24 23:00:55</time>
      </trkpt>
      <trkpt lat="40.72508" lon="0.72094">
        <ele>7.6</ele>
        <time>2022-05-24 23:00:56</time>
      </trkpt>
      <trkpt lat="40.72512" lon="0.72096">
        <ele>7.4</ele>
        <time>2022-05-24 23:00:57</time>
      </trkpt>
      <trkpt lat="40.72517" lon="0.72097">
        <ele>7.2</ele>
        <time>2022-05-24 23:00:58</time>
      </trkpt>
      <trkpt lat="40.72521" lon="0.72098">
        <ele>7.2</ele>
        <time>2022-05-24 23:00:59</time>
      </trkpt>
      <trkpt lat="40.72525" lon="0.72099">
        <ele>7</ele>
        <time>2022-05-24 23:01:00</time>
      </trkpt>
      <trkpt lat="40.72529" lon="0.72101">
        <ele>7</ele>
        <time>2022-05-24 23:01:01</time>
      </trkpt>
      <trkpt lat="40.72533" lon="0.72103">
        <ele>7</ele>
        <time>2022-05-24 23:01:02</time>
      </trkpt>
      <trkpt lat="40.72537" lon="0.72104">
        <ele>7</ele>
        <time>2022-05-24 23:01:03</time>
      </trkpt>
      <trkpt lat="40.72541" lon="0.72105">
        <ele>7</ele>
        <time>2022-05-24 23:01:04</time>
      </trkpt>
      <trkpt lat="40.72544" lon="0.72106">
        <ele>7</ele>
        <time>2022-05-24 23:01:05</time>
      </trkpt>
      <trkpt lat="40.72548" lon="0.72107">
        <ele>7</ele>
        <time>2022-05-24 23:01:06</time>
      </trkpt>
      <trkpt lat="40.72551" lon="0.72108">
        <ele>7.2</ele>
        <time>2022-05-24 23:01:07</time>
      </trkpt>
      <trkpt lat="40.72554" lon="0.72109">
        <ele>7.2</ele>
        <time>2022-05-24 23:01:08</time>
      </trkpt>
      <trkpt lat="40.72556" lon="0.7211">
        <ele>7.2</ele>
        <time>2022-05-24 23:01:09</time>
      </trkpt>
      <trkpt lat="40.72557" lon="0.72109">
        <ele>7.2</ele>
        <time>2022-05-24 23:01:10</time>
      </trkpt>
      <trkpt lat="40.72558" lon="0.72109">
        <ele>7.4</ele>
        <time>2022-05-24 23:01:11</time>
      </trkpt>
      <trkpt lat="40.72559" lon="0.7211">
        <ele>7.4</ele>
        <time>2022-05-24 23:01:12</time>
      </trkpt>
      <trkpt lat="40.72559" lon="0.7211">
        <ele>7.4</ele>
        <time>2022-05-24 23:01:13</time>
      </trkpt>
      <trkpt lat="40.72559" lon="0.7211">
        <ele>7.4</ele>
        <time>2022-05-24 23:01:14</time>
      </trkpt>
      <trkpt lat="40.72559" lon="0.7211">
        <ele>7.4</ele>
        <time>2022-05-24 23:01:15</time>
      </trkpt>
      <trkpt lat="40.72558" lon="0.72111">
        <ele>7.2</ele>
        <time>2022-05-24 23:01:25</time>
      </trkpt>
      <trkpt lat="40.72556" lon="0.72112">
        <ele>7.2</ele>
        <time>2022-05-24 23:01:26</time>
      </trkpt>
      <trkpt lat="40.72553" lon="0.72112">
        <ele>7.2</ele>
        <time>2022-05-24 23:01:27</time>
      </trkpt>
      <trkpt lat="40.72551" lon="0.7211">
        <ele>7.4</ele>
        <time>2022-05-24 23:01:28</time>
      </trkpt>
      <trkpt lat="40.72549" lon="0.72109">
        <ele>7.4</ele>
        <time>2022-05-24 23:01:29</time>
      </trkpt>
      <trkpt lat="40.72548" lon="0.72108">
        <ele>7.4</ele>
        <time>2022-05-24 23:01:30</time>
      </trkpt>
      <trkpt lat="40.72546" lon="0.72107">
        <ele>7.4</ele>
        <time>2022-05-24 23:01:31</time>
      </trkpt>
      <trkpt lat="40.72545" lon="0.72106">
        <ele>7.6</ele>
        <time>2022-05-24 23:01:32</time>
      </trkpt>
      <trkpt lat="40.72543" lon="0.72106">
        <ele>7.6</ele>
        <time>2022-05-24 23:01:33</time>
      </trkpt>
      <trkpt lat="40.72541" lon="0.72107">
        <ele>7.6</ele>
        <time>2022-05-24 23:01:34</time>
      </trkpt>
      <trkpt lat="40.72539" lon="0.72107">
        <ele>7.6</ele>
        <time>2022-05-24 23:01:35</time>
      </trkpt>
      <trkpt lat="40.72536" lon="0.72106">
        <ele>7.6</ele>
        <time>2022-05-24 23:01:36</time>
      </trkpt>
      <trkpt lat="40.72533" lon="0.72106">
        <ele>7.4</ele>
        <time>2022-05-24 23:01:37</time>
      </trkpt>
      <trkpt lat="40.7253" lon="0.72104">
        <ele>7.4</ele>
        <time>2022-05-24 23:01:38</time>
      </trkpt>
      <trkpt lat="40.72527" lon="0.72103">
        <ele>7.4</ele>
        <time>2022-05-24 23:01:39</time>
      </trkpt>
      <trkpt lat="40.72524" lon="0.72101">
        <ele>7.4</ele>
        <time>2022-05-24 23:01:40</time>
      </trkpt>
      <trkpt lat="40.7252" lon="0.721">
        <ele>7.4</ele>
        <time>2022-05-24 23:01:41</time>
      </trkpt>
      <trkpt lat="40.72516" lon="0.72098">
        <ele>7.2</ele>
        <time>2022-05-24 23:01:42</time>
      </trkpt>
      <trkpt lat="40.72512" lon="0.72097">
        <ele>7.2</ele>
        <time>2022-05-24 23:01:43</time>
      </trkpt>
      <trkpt lat="40.72508" lon="0.72096">
        <ele>7.2</ele>
        <time>2022-05-24 23:01:44</time>
      </trkpt>
      <trkpt lat="40.72503" lon="0.72096">
        <ele>7.2</ele>
        <time>2022-05-24 23:01:45</time>
      </trkpt>
      <trkpt lat="40.72499" lon="0.72096">
        <ele>7.2</ele>
        <time>2022-05-24 23:01:46</time>
      </trkpt>
      <trkpt lat="40.72496" lon="0.72098">
        <ele>7.2</ele>
        <time>2022-05-24 23:01:47</time>
      </trkpt>
      <trkpt lat="40.72493" lon="0.721">
        <ele>7.4</ele>
        <time>2022-05-24 23:01:48</time>
      </trkpt>
      <trkpt lat="40.7249" lon="0.72103">
        <ele>7.4</ele>
        <time>2022-05-24 23:01:49</time>
      </trkpt>
      <trkpt lat="40.72487" lon="0.72106">
        <ele>7.4</ele>
        <time>2022-05-24 23:01:50</time>
      </trkpt>
      <trkpt lat="40.72485" lon="0.72109">
        <ele>7.4</ele>
        <time>2022-05-24 23:01:51</time>
      </trkpt>
      <trkpt lat="40.72483" lon="0.72114">
        <ele>7.4</ele>
        <time>2022-05-24 23:01:52</time>
      </trkpt>
      <trkpt lat="40.72483" lon="0.72119">
        <ele>7.4</ele>
        <time>2022-05-24 23:01:53</time>
      </trkpt>
      <trkpt lat="40.72482" lon="0.72125">
        <ele>7.4</ele>
        <time>2022-05-24 23:01:54</time>
      </trkpt>
      <trkpt lat="40.7248" lon="0.72131">
        <ele>7.4</ele>
        <time>2022-05-24 23:01:55</time>
      </trkpt>
      <trkpt lat="40.72479" lon="0.72137">
        <ele>7.4</ele>
        <time>2022-05-24 23:01:56</time>
      </trkpt>
      <trkpt lat="40.72478" lon="0.72144">
        <ele>7.2</ele>
        <time>2022-05-24 23:01:57</time>
      </trkpt>
      <trkpt lat="40.72477" lon="0.7215">
        <ele>7.2</ele>
        <time>2022-05-24 23:01:58</time>
      </trkpt>
      <trkpt lat="40.72476" lon="0.72157">
        <ele>7.2</ele>
        <time>2022-05-24 23:01:59</time>
      </trkpt>
      <trkpt lat="40.72475" lon="0.72164">
        <ele>7.2</ele>
        <time>2022-05-24 23:02:00</time>
      </trkpt>
      <trkpt lat="40.72475" lon="0.7217">
        <ele>7.4</ele>
        <time>2022-05-24 23:02:01</time>
      </trkpt>
      <trkpt lat="40.72474" lon="0.72177">
        <ele>7.4</ele>
        <time>2022-05-24 23:02:02</time>
      </trkpt>
      <trkpt lat="40.72474" lon="0.72184">
        <ele>7.4</ele>
        <time>2022-05-24 23:02:03</time>
      </trkpt>
      <trkpt lat="40.72473" lon="0.7219">
        <ele>7.4</ele>
        <time>2022-05-24 23:02:04</time>
      </trkpt>
      <trkpt lat="40.72472" lon="0.72196">
        <ele>7.4</ele>
        <time>2022-05-24 23:02:05</time>
      </trkpt>
      <trkpt lat="40.72472" lon="0.72202">
        <ele>7.4</ele>
        <time>2022-05-24 23:02:06</time>
      </trkpt>
      <trkpt lat="40.72472" lon="0.72206">
        <ele>7.4</ele>
        <time>2022-05-24 23:02:07</time>
      </trkpt>
      <trkpt lat="40.72471" lon="0.7221">
        <ele>7.4</ele>
        <time>2022-05-24 23:02:08</time>
      </trkpt>
      <trkpt lat="40.72469" lon="0.72218">
        <ele>7.4</ele>
        <time>2022-05-24 23:02:09</time>
      </trkpt>
      <trkpt lat="40.72468" lon="0.72224">
        <ele>7.4</ele>
        <time>2022-05-24 23:02:10</time>
      </trkpt>
      <trkpt lat="40.72467" lon="0.7223">
        <ele>7.4</ele>
        <time>2022-05-24 23:02:11</time>
      </trkpt>
      <trkpt lat="40.72466" lon="0.72236">
        <ele>7.4</ele>
        <time>2022-05-24 23:02:12</time>
      </trkpt>
      <trkpt lat="40.72466" lon="0.72243">
        <ele>7.4</ele>
        <time>2022-05-24 23:02:13</time>
      </trkpt>
      <trkpt lat="40.72464" lon="0.72249">
        <ele>7.4</ele>
        <time>2022-05-24 23:02:14</time>
      </trkpt>
      <trkpt lat="40.72464" lon="0.72255">
        <ele>7.4</ele>
        <time>2022-05-24 23:02:15</time>
      </trkpt>
      <trkpt lat="40.72462" lon="0.7226">
        <ele>7.4</ele>
        <time>2022-05-24 23:02:16</time>
      </trkpt>
      <trkpt lat="40.72462" lon="0.72265">
        <ele>7.4</ele>
        <time>2022-05-24 23:02:17</time>
      </trkpt>
      <trkpt lat="40.72461" lon="0.72271">
        <ele>7.4</ele>
        <time>2022-05-24 23:02:18</time>
      </trkpt>
      <trkpt lat="40.7246" lon="0.72278">
        <ele>7.4</ele>
        <time>2022-05-24 23:02:19</time>
      </trkpt>
      <trkpt lat="40.72459" lon="0.72283">
        <ele>7.4</ele>
        <time>2022-05-24 23:02:20</time>
      </trkpt>
      <trkpt lat="40.72458" lon="0.72289">
        <ele>7.4</ele>
        <time>2022-05-24 23:02:21</time>
      </trkpt>
      <trkpt lat="40.72457" lon="0.72294">
        <ele>7.4</ele>
        <time>2022-05-24 23:02:22</time>
      </trkpt>
      <trkpt lat="40.72456" lon="0.723">
        <ele>7.4</ele>
        <time>2022-05-24 23:02:23</time>
      </trkpt>
      <trkpt lat="40.72455" lon="0.72305">
        <ele>7.4</ele>
        <time>2022-05-24 23:02:24</time>
      </trkpt>
      <trkpt lat="40.72454" lon="0.7231">
        <ele>7.4</ele>
        <time>2022-05-24 23:02:25</time>
      </trkpt>
      <trkpt lat="40.72453" lon="0.72316">
        <ele>7.4</ele>
        <time>2022-05-24 23:02:26</time>
      </trkpt>
      <trkpt lat="40.72452" lon="0.7232">
        <ele>7.2</ele>
        <time>2022-05-24 23:02:27</time>
      </trkpt>
      <trkpt lat="40.72451" lon="0.72325">
        <ele>7.2</ele>
        <time>2022-05-24 23:02:28</time>
      </trkpt>
      <trkpt lat="40.7245" lon="0.72331">
        <ele>7.2</ele>
        <time>2022-05-24 23:02:29</time>
      </trkpt>
      <trkpt lat="40.72449" lon="0.72335">
        <ele>7.4</ele>
        <time>2022-05-24 23:02:30</time>
      </trkpt>
      <trkpt lat="40.72449" lon="0.72339">
        <ele>7.4</ele>
        <time>2022-05-24 23:02:31</time>
      </trkpt>
      <trkpt lat="40.72448" lon="0.72342">
        <ele>7.4</ele>
        <time>2022-05-24 23:02:32</time>
      </trkpt>
      <trkpt lat="40.72447" lon="0.72348">
        <ele>7.4</ele>
        <time>2022-05-24 23:02:33</time>
      </trkpt>
      <trkpt lat="40.72446" lon="0.72353">
        <ele>7.2</ele>
        <time>2022-05-24 23:02:34</time>
      </trkpt>
      <trkpt lat="40.72445" lon="0.72359">
        <ele>7.2</ele>
        <time>2022-05-24 23:02:35</time>
      </trkpt>
      <trkpt lat="40.72445" lon="0.72365">
        <ele>7.2</ele>
        <time>2022-05-24 23:02:36</time>
      </trkpt>
      <trkpt lat="40.72444" lon="0.7237">
        <ele>7.2</ele>
        <time>2022-05-24 23:02:37</time>
      </trkpt>
      <trkpt lat="40.72443" lon="0.72376">
        <ele>7.2</ele>
        <time>2022-05-24 23:02:38</time>
      </trkpt>
      <trkpt lat="40.72442" lon="0.72383">
        <ele>7.2</ele>
        <time>2022-05-24 23:02:39</time>
      </trkpt>
      <trkpt lat="40.72441" lon="0.72389">
        <ele>7.2</ele>
        <time>2022-05-24 23:02:40</time>
      </trkpt>
      <trkpt lat="40.7244" lon="0.72395">
        <ele>7.2</ele>
        <time>2022-05-24 23:02:41</time>
      </trkpt>
      <trkpt lat="40.72439" lon="0.72401">
        <ele>7.2</ele>
        <time>2022-05-24 23:02:42</time>
      </trkpt>
      <trkpt lat="40.72438" lon="0.72407">
        <ele>7.4</ele>
        <time>2022-05-24 23:02:43</time>
      </trkpt>
      <trkpt lat="40.72437" lon="0.72412">
        <ele>7.4</ele>
        <time>2022-05-24 23:02:44</time>
      </trkpt>
      <trkpt lat="40.72437" lon="0.72418">
        <ele>7.4</ele>
        <time>2022-05-24 23:02:45</time>
      </trkpt>
      <trkpt lat="40.72437" lon="0.72422">
        <ele>7.6</ele>
        <time>2022-05-24 23:02:46</time>
      </trkpt>
      <trkpt lat="40.72437" lon="0.72426">
        <ele>7.6</ele>
        <time>2022-05-24 23:02:47</time>
      </trkpt>
      <trkpt lat="40.72438" lon="0.72429">
        <ele>7.6</ele>
        <time>2022-05-24 23:02:48</time>
      </trkpt>
      <trkpt lat="40.72441" lon="0.7243">
        <ele>7.6</ele>
        <time>2022-05-24 23:02:49</time>
      </trkpt>
      <trkpt lat="40.72444" lon="0.7243">
        <ele>7.4</ele>
        <time>2022-05-24 23:02:50</time>
      </trkpt>
      <trkpt lat="40.72447" lon="0.72429">
        <ele>7.4</ele>
        <time>2022-05-24 23:02:51</time>
      </trkpt>
      <trkpt lat="40.7245" lon="0.72426">
        <ele>7.2</ele>
        <time>2022-05-24 23:02:52</time>
      </trkpt>
      <trkpt lat="40.72454" lon="0.72423">
        <ele>7</ele>
        <time>2022-05-24 23:02:53</time>
      </trkpt>
      <trkpt lat="40.72458" lon="0.7242">
        <ele>7</ele>
        <time>2022-05-24 23:02:54</time>
      </trkpt>
      <trkpt lat="40.72462" lon="0.72417">
        <ele>6.8</ele>
        <time>2022-05-24 23:02:55</time>
      </trkpt>
      <trkpt lat="40.72467" lon="0.72413">
        <ele>6.6</ele>
        <time>2022-05-24 23:02:56</time>
      </trkpt>
      <trkpt lat="40.72471" lon="0.72408">
        <ele>6.4</ele>
        <time>2022-05-24 23:02:57</time>
      </trkpt>
      <trkpt lat="40.72475" lon="0.72404">
        <ele>6</ele>
        <time>2022-05-24 23:02:58</time>
      </trkpt>
      <trkpt lat="40.72479" lon="0.72399">
        <ele>5.8</ele>
        <time>2022-05-24 23:02:59</time>
      </trkpt>
      <trkpt lat="40.72483" lon="0.72394">
        <ele>5.6</ele>
        <time>2022-05-24 23:03:00</time>
      </trkpt>
      <trkpt lat="40.72488" lon="0.7239">
        <ele>5.6</ele>
        <time>2022-05-24 23:03:01</time>
      </trkpt>
      <trkpt lat="40.72492" lon="0.72386">
        <ele>5.6</ele>
        <time>2022-05-24 23:03:02</time>
      </trkpt>
      <trkpt lat="40.72496" lon="0.72381">
        <ele>5.8</ele>
        <time>2022-05-24 23:03:03</time>
      </trkpt>
      <trkpt lat="40.72501" lon="0.72377">
        <ele>5.8</ele>
        <time>2022-05-24 23:03:04</time>
      </trkpt>
      <trkpt lat="40.72505" lon="0.72373">
        <ele>5.8</ele>
        <time>2022-05-24 23:03:05</time>
      </trkpt>
      <trkpt lat="40.72509" lon="0.72369">
        <ele>5.8</ele>
        <time>2022-05-24 23:03:06</time>
      </trkpt>
      <trkpt lat="40.72514" lon="0.72364">
        <ele>6</ele>
        <time>2022-05-24 23:03:07</time>
      </trkpt>
      <trkpt lat="40.72518" lon="0.7236">
        <ele>5.8</ele>
        <time>2022-05-24 23:03:08</time>
      </trkpt>
      <trkpt lat="40.72522" lon="0.72356">
        <ele>5.8</ele>
        <time>2022-05-24 23:03:09</time>
      </trkpt>
      <trkpt lat="40.72527" lon="0.72351">
        <ele>6</ele>
        <time>2022-05-24 23:03:10</time>
      </trkpt>
      <trkpt lat="40.7253" lon="0.72347">
        <ele>6.2</ele>
        <time>2022-05-24 23:03:11</time>
      </trkpt>
      <trkpt lat="40.72535" lon="0.72342">
        <ele>6.2</ele>
        <time>2022-05-24 23:03:12</time>
      </trkpt>
      <trkpt lat="40.72539" lon="0.72338">
        <ele>6.2</ele>
        <time>2022-05-24 23:03:13</time>
      </trkpt>
      <trkpt lat="40.72544" lon="0.72333">
        <ele>6.2</ele>
        <time>2022-05-24 23:03:14</time>
      </trkpt>
      <trkpt lat="40.72548" lon="0.72329">
        <ele>6.2</ele>
        <time>2022-05-24 23:03:15</time>
      </trkpt>
      <trkpt lat="40.72552" lon="0.72325">
        <ele>6.2</ele>
        <time>2022-05-24 23:03:16</time>
      </trkpt>
      <trkpt lat="40.72557" lon="0.72321">
        <ele>6</ele>
        <time>2022-05-24 23:03:17</time>
      </trkpt>
      <trkpt lat="40.72562" lon="0.72317">
        <ele>6</ele>
        <time>2022-05-24 23:03:18</time>
      </trkpt>
      <trkpt lat="40.72566" lon="0.72313">
        <ele>6</ele>
        <time>2022-05-24 23:03:19</time>
      </trkpt>
      <trkpt lat="40.72571" lon="0.72309">
        <ele>6</ele>
        <time>2022-05-24 23:03:20</time>
      </trkpt>
      <trkpt lat="40.72575" lon="0.72304">
        <ele>6</ele>
        <time>2022-05-24 23:03:21</time>
      </trkpt>
      <trkpt lat="40.72579" lon="0.72299">
        <ele>6.2</ele>
        <time>2022-05-24 23:03:22</time>
      </trkpt>
      <trkpt lat="40.72584" lon="0.72295">
        <ele>6.2</ele>
        <time>2022-05-24 23:03:23</time>
      </trkpt>
      <trkpt lat="40.72588" lon="0.7229">
        <ele>6.2</ele>
        <time>2022-05-24 23:03:24</time>
      </trkpt>
      <trkpt lat="40.72593" lon="0.72285">
        <ele>6.2</ele>
        <time>2022-05-24 23:03:25</time>
      </trkpt>
      <trkpt lat="40.72598" lon="0.72281">
        <ele>6.2</ele>
        <time>2022-05-24 23:03:26</time>
      </trkpt>
      <trkpt lat="40.72602" lon="0.72276">
        <ele>6.2</ele>
        <time>2022-05-24 23:03:27</time>
      </trkpt>
      <trkpt lat="40.72607" lon="0.72272">
        <ele>6.2</ele>
        <time>2022-05-24 23:03:28</time>
      </trkpt>
      <trkpt lat="40.72611" lon="0.72267">
        <ele>6.2</ele>
        <time>2022-05-24 23:03:29</time>
      </trkpt>
      <trkpt lat="40.72616" lon="0.72263">
        <ele>6.2</ele>
        <time>2022-05-24 23:03:30</time>
      </trkpt>
      <trkpt lat="40.72621" lon="0.72259">
        <ele>6.2</ele>
        <time>2022-05-24 23:03:31</time>
      </trkpt>
      <trkpt lat="40.72625" lon="0.72254">
        <ele>6.2</ele>
        <time>2022-05-24 23:03:32</time>
      </trkpt>
      <trkpt lat="40.7263" lon="0.7225">
        <ele>6.2</ele>
        <time>2022-05-24 23:03:33</time>
      </trkpt>
      <trkpt lat="40.72635" lon="0.72245">
        <ele>6</ele>
        <time>2022-05-24 23:03:34</time>
      </trkpt>
      <trkpt lat="40.72639" lon="0.7224">
        <ele>6</ele>
        <time>2022-05-24 23:03:35</time>
      </trkpt>
      <trkpt lat="40.72644" lon="0.72236">
        <ele>6</ele>
        <time>2022-05-24 23:03:36</time>
      </trkpt>
      <trkpt lat="40.72648" lon="0.72232">
        <ele>6</ele>
        <time>2022-05-24 23:03:37</time>
      </trkpt>
      <trkpt lat="40.72653" lon="0.72227">
        <ele>6</ele>
        <time>2022-05-24 23:03:38</time>
      </trkpt>
      <trkpt lat="40.72657" lon="0.72223">
        <ele>6</ele>
        <time>2022-05-24 23:03:39</time>
      </trkpt>
      <trkpt lat="40.72661" lon="0.72219">
        <ele>6</ele>
        <time>2022-05-24 23:03:40</time>
      </trkpt>
      <trkpt lat="40.72665" lon="0.72214">
        <ele>6</ele>
        <time>2022-05-24 23:03:41</time>
      </trkpt>
      <trkpt lat="40.72669" lon="0.7221">
        <ele>6</ele>
        <time>2022-05-24 23:03:42</time>
      </trkpt>
      <trkpt lat="40.72673" lon="0.72205">
        <ele>6</ele>
        <time>2022-05-24 23:03:43</time>
      </trkpt>
      <trkpt lat="40.72678" lon="0.72201">
        <ele>6</ele>
        <time>2022-05-24 23:03:44</time>
      </trkpt>
      <trkpt lat="40.72681" lon="0.72197">
        <ele>5.8</ele>
        <time>2022-05-24 23:03:45</time>
      </trkpt>
      <trkpt lat="40.72685" lon="0.72192">
        <ele>5.8</ele>
        <time>2022-05-24 23:03:46</time>
      </trkpt>
      <trkpt lat="40.7269" lon="0.72186">
        <ele>5.8</ele>
        <time>2022-05-24 23:03:47</time>
      </trkpt>
      <trkpt lat="40.72694" lon="0.72181">
        <ele>6</ele>
        <time>2022-05-24 23:03:48</time>
      </trkpt>
      <trkpt lat="40.72698" lon="0.72177">
        <ele>6</ele>
        <time>2022-05-24 23:03:49</time>
      </trkpt>
      <trkpt lat="40.72702" lon="0.72171">
        <ele>6</ele>
        <time>2022-05-24 23:03:50</time>
      </trkpt>
      <trkpt lat="40.72707" lon="0.72166">
        <ele>6</ele>
        <time>2022-05-24 23:03:51</time>
      </trkpt>
      <trkpt lat="40.7271" lon="0.72161">
        <ele>6</ele>
        <time>2022-05-24 23:03:52</time>
      </trkpt>
      <trkpt lat="40.72715" lon="0.72156">
        <ele>6</ele>
        <time>2022-05-24 23:03:53</time>
      </trkpt>
      <trkpt lat="40.72718" lon="0.72151">
        <ele>6</ele>
        <time>2022-05-24 23:03:54</time>
      </trkpt>
      <trkpt lat="40.72722" lon="0.72145">
        <ele>6</ele>
        <time>2022-05-24 23:03:55</time>
      </trkpt>
      <trkpt lat="40.72726" lon="0.7214">
        <ele>6.2</ele>
        <time>2022-05-24 23:03:56</time>
      </trkpt>
      <trkpt lat="40.72729" lon="0.72135">
        <ele>6.2</ele>
        <time>2022-05-24 23:03:57</time>
      </trkpt>
      <trkpt lat="40.72733" lon="0.7213">
        <ele>6.2</ele>
        <time>2022-05-24 23:03:58</time>
      </trkpt>
      <trkpt lat="40.72737" lon="0.72125">
        <ele>6.2</ele>
        <time>2022-05-24 23:03:59</time>
      </trkpt>
      <trkpt lat="40.72741" lon="0.72119">
        <ele>6.2</ele>
        <time>2022-05-24 23:04:00</time>
      </trkpt>
      <trkpt lat="40.72744" lon="0.72114">
        <ele>6.2</ele>
        <time>2022-05-24 23:04:01</time>
      </trkpt>
      <trkpt lat="40.72748" lon="0.72109">
        <ele>6.2</ele>
        <time>2022-05-24 23:04:02</time>
      </trkpt>
      <trkpt lat="40.72751" lon="0.72103">
        <ele>6.2</ele>
        <time>2022-05-24 23:04:03</time>
      </trkpt>
      <trkpt lat="40.72755" lon="0.72098">
        <ele>6.2</ele>
        <time>2022-05-24 23:04:04</time>
      </trkpt>
      <trkpt lat="40.72758" lon="0.72093">
        <ele>6.2</ele>
        <time>2022-05-24 23:04:05</time>
      </trkpt>
      <trkpt lat="40.72762" lon="0.72087">
        <ele>6.2</ele>
        <time>2022-05-24 23:04:06</time>
      </trkpt>
      <trkpt lat="40.72765" lon="0.72082">
        <ele>6.2</ele>
        <time>2022-05-24 23:04:07</time>
      </trkpt>
      <trkpt lat="40.72768" lon="0.72077">
        <ele>6.2</ele>
        <time>2022-05-24 23:04:08</time>
      </trkpt>
      <trkpt lat="40.72772" lon="0.72071">
        <ele>6.2</ele>
        <time>2022-05-24 23:04:09</time>
      </trkpt>
      <trkpt lat="40.72775" lon="0.72066">
        <ele>6.2</ele>
        <time>2022-05-24 23:04:10</time>
      </trkpt>
      <trkpt lat="40.72779" lon="0.72061">
        <ele>6.4</ele>
        <time>2022-05-24 23:04:11</time>
      </trkpt>
      <trkpt lat="40.72783" lon="0.72056">
        <ele>6.4</ele>
        <time>2022-05-24 23:04:12</time>
      </trkpt>
      <trkpt lat="40.72786" lon="0.72051">
        <ele>6.4</ele>
        <time>2022-05-24 23:04:13</time>
      </trkpt>
      <trkpt lat="40.72789" lon="0.72045">
        <ele>6.4</ele>
        <time>2022-05-24 23:04:14</time>
      </trkpt>
      <trkpt lat="40.72792" lon="0.7204">
        <ele>6.4</ele>
        <time>2022-05-24 23:04:15</time>
      </trkpt>
      <trkpt lat="40.72795" lon="0.72035">
        <ele>6.4</ele>
        <time>2022-05-24 23:04:16</time>
      </trkpt>
      <trkpt lat="40.72799" lon="0.7203">
        <ele>6.4</ele>
        <time>2022-05-24 23:04:17</time>
      </trkpt>
      <trkpt lat="40.72802" lon="0.72024">
        <ele>6.4</ele>
        <time>2022-05-24 23:04:18</time>
      </trkpt>
      <trkpt lat="40.72805" lon="0.72019">
        <ele>6.4</ele>
        <time>2022-05-24 23:04:19</time>
      </trkpt>
      <trkpt lat="40.72807" lon="0.72014">
        <ele>6.4</ele>
        <time>2022-05-24 23:04:20</time>
      </trkpt>
      <trkpt lat="40.7281" lon="0.72008">
        <ele>6.4</ele>
        <time>2022-05-24 23:04:21</time>
      </trkpt>
      <trkpt lat="40.72813" lon="0.72003">
        <ele>6.4</ele>
        <time>2022-05-24 23:04:22</time>
      </trkpt>
      <trkpt lat="40.72816" lon="0.71998">
        <ele>6.4</ele>
        <time>2022-05-24 23:04:23</time>
      </trkpt>
      <trkpt lat="40.7282" lon="0.71992">
        <ele>6.4</ele>
        <time>2022-05-24 23:04:24</time>
      </trkpt>
      <trkpt lat="40.72822" lon="0.71987">
        <ele>6.4</ele>
        <time>2022-05-24 23:04:25</time>
      </trkpt>
      <trkpt lat="40.72825" lon="0.71981">
        <ele>6.4</ele>
        <time>2022-05-24 23:04:26</time>
      </trkpt>
      <trkpt lat="40.72828" lon="0.71975">
        <ele>6.4</ele>
        <time>2022-05-24 23:04:27</time>
      </trkpt>
      <trkpt lat="40.7283" lon="0.71969">
        <ele>6.4</ele>
        <time>2022-05-24 23:04:28</time>
      </trkpt>
      <trkpt lat="40.72832" lon="0.71963">
        <ele>6.4</ele>
        <time>2022-05-24 23:04:29</time>
      </trkpt>
      <trkpt lat="40.72835" lon="0.71957">
        <ele>6.4</ele>
        <time>2022-05-24 23:04:30</time>
      </trkpt>
      <trkpt lat="40.72837" lon="0.71952">
        <ele>6.4</ele>
        <time>2022-05-24 23:04:31</time>
      </trkpt>
      <trkpt lat="40.7284" lon="0.71946">
        <ele>6.4</ele>
        <time>2022-05-24 23:04:32</time>
      </trkpt>
      <trkpt lat="40.72842" lon="0.7194">
        <ele>6.4</ele>
        <time>2022-05-24 23:04:33</time>
      </trkpt>
      <trkpt lat="40.72845" lon="0.71934">
        <ele>6.4</ele>
        <time>2022-05-24 23:04:34</time>
      </trkpt>
      <trkpt lat="40.72847" lon="0.71927">
        <ele>6.4</ele>
        <time>2022-05-24 23:04:35</time>
      </trkpt>
      <trkpt lat="40.72849" lon="0.71921">
        <ele>6.6</ele>
        <time>2022-05-24 23:04:36</time>
      </trkpt>
      <trkpt lat="40.72852" lon="0.71915">
        <ele>6.6</ele>
        <time>2022-05-24 23:04:37</time>
      </trkpt>
      <trkpt lat="40.72854" lon="0.71908">
        <ele>6.6</ele>
        <time>2022-05-24 23:04:38</time>
      </trkpt>
      <trkpt lat="40.72857" lon="0.71902">
        <ele>6.6</ele>
        <time>2022-05-24 23:04:39</time>
      </trkpt>
      <trkpt lat="40.72858" lon="0.71895">
        <ele>6.6</ele>
        <time>2022-05-24 23:04:40</time>
      </trkpt>
      <trkpt lat="40.72861" lon="0.71888">
        <ele>6.6</ele>
        <time>2022-05-24 23:04:41</time>
      </trkpt>
      <trkpt lat="40.72863" lon="0.71882">
        <ele>6.6</ele>
        <time>2022-05-24 23:04:42</time>
      </trkpt>
      <trkpt lat="40.72865" lon="0.71875">
        <ele>6.6</ele>
        <time>2022-05-24 23:04:43</time>
      </trkpt>
      <trkpt lat="40.72867" lon="0.71868">
        <ele>6.6</ele>
        <time>2022-05-24 23:04:44</time>
      </trkpt>
      <trkpt lat="40.72869" lon="0.71861">
        <ele>6.4</ele>
        <time>2022-05-24 23:04:45</time>
      </trkpt>
      <trkpt lat="40.72871" lon="0.71855">
        <ele>6.4</ele>
        <time>2022-05-24 23:04:46</time>
      </trkpt>
      <trkpt lat="40.72873" lon="0.71848">
        <ele>6.4</ele>
        <time>2022-05-24 23:04:47</time>
      </trkpt>
      <trkpt lat="40.72874" lon="0.71841">
        <ele>6.2</ele>
        <time>2022-05-24 23:04:48</time>
      </trkpt>
      <trkpt lat="40.72876" lon="0.71834">
        <ele>6.2</ele>
        <time>2022-05-24 23:04:49</time>
      </trkpt>
      <trkpt lat="40.72878" lon="0.71828">
        <ele>6.2</ele>
        <time>2022-05-24 23:04:50</time>
      </trkpt>
      <trkpt lat="40.72879" lon="0.71821">
        <ele>6.2</ele>
        <time>2022-05-24 23:04:51</time>
      </trkpt>
      <trkpt lat="40.72882" lon="0.71814">
        <ele>6</ele>
        <time>2022-05-24 23:04:52</time>
      </trkpt>
      <trkpt lat="40.72883" lon="0.71807">
        <ele>5.8</ele>
        <time>2022-05-24 23:04:53</time>
      </trkpt>
      <trkpt lat="40.72885" lon="0.718">
        <ele>5.8</ele>
        <time>2022-05-24 23:04:54</time>
      </trkpt>
      <trkpt lat="40.72887" lon="0.71794">
        <ele>6</ele>
        <time>2022-05-24 23:04:55</time>
      </trkpt>
      <trkpt lat="40.72889" lon="0.71787">
        <ele>6.2</ele>
        <time>2022-05-24 23:04:56</time>
      </trkpt>
      <trkpt lat="40.7289" lon="0.7178">
        <ele>6.2</ele>
        <time>2022-05-24 23:04:57</time>
      </trkpt>
      <trkpt lat="40.72892" lon="0.71774">
        <ele>6.2</ele>
        <time>2022-05-24 23:04:58</time>
      </trkpt>
      <trkpt lat="40.72894" lon="0.71767">
        <ele>6</ele>
        <time>2022-05-24 23:04:59</time>
      </trkpt>
      <trkpt lat="40.72896" lon="0.7176">
        <ele>6</ele>
        <time>2022-05-24 23:05:00</time>
      </trkpt>
      <trkpt lat="40.72897" lon="0.71754">
        <ele>6</ele>
        <time>2022-05-24 23:05:01</time>
      </trkpt>
      <trkpt lat="40.72899" lon="0.71747">
        <ele>6</ele>
        <time>2022-05-24 23:05:02</time>
      </trkpt>
      <trkpt lat="40.72901" lon="0.71741">
        <ele>6</ele>
        <time>2022-05-24 23:05:03</time>
      </trkpt>
      <trkpt lat="40.72903" lon="0.71734">
        <ele>5.8</ele>
        <time>2022-05-24 23:05:04</time>
      </trkpt>
      <trkpt lat="40.72905" lon="0.71727">
        <ele>5.8</ele>
        <time>2022-05-24 23:05:05</time>
      </trkpt>
      <trkpt lat="40.72906" lon="0.71721">
        <ele>5.8</ele>
        <time>2022-05-24 23:05:06</time>
      </trkpt>
      <trkpt lat="40.72908" lon="0.71715">
        <ele>5.8</ele>
        <time>2022-05-24 23:05:07</time>
      </trkpt>
      <trkpt lat="40.7291" lon="0.71708">
        <ele>5.8</ele>
        <time>2022-05-24 23:05:08</time>
      </trkpt>
      <trkpt lat="40.72912" lon="0.71702">
        <ele>6</ele>
        <time>2022-05-24 23:05:09</time>
      </trkpt>
      <trkpt lat="40.72914" lon="0.71696">
        <ele>6</ele>
        <time>2022-05-24 23:05:10</time>
      </trkpt>
      <trkpt lat="40.72915" lon="0.71689">
        <ele>6</ele>
        <time>2022-05-24 23:05:11</time>
      </trkpt>
      <trkpt lat="40.72917" lon="0.71683">
        <ele>6.2</ele>
        <time>2022-05-24 23:05:12</time>
      </trkpt>
      <trkpt lat="40.72919" lon="0.71677">
        <ele>6.2</ele>
        <time>2022-05-24 23:05:13</time>
      </trkpt>
      <trkpt lat="40.7292" lon="0.7167">
        <ele>6</ele>
        <time>2022-05-24 23:05:14</time>
      </trkpt>
      <trkpt lat="40.72922" lon="0.71664">
        <ele>6</ele>
        <time>2022-05-24 23:05:15</time>
      </trkpt>
      <trkpt lat="40.72923" lon="0.71658">
        <ele>6</ele>
        <time>2022-05-24 23:05:16</time>
      </trkpt>
      <trkpt lat="40.72925" lon="0.71652">
        <ele>6</ele>
        <time>2022-05-24 23:05:17</time>
      </trkpt>
      <trkpt lat="40.72927" lon="0.71645">
        <ele>6</ele>
        <time>2022-05-24 23:05:18</time>
      </trkpt>
      <trkpt lat="40.72929" lon="0.71639">
        <ele>6</ele>
        <time>2022-05-24 23:05:19</time>
      </trkpt>
      <trkpt lat="40.7293" lon="0.71632">
        <ele>6</ele>
        <time>2022-05-24 23:05:20</time>
      </trkpt>
      <trkpt lat="40.72932" lon="0.71626">
        <ele>6</ele>
        <time>2022-05-24 23:05:21</time>
      </trkpt>
      <trkpt lat="40.72934" lon="0.71619">
        <ele>6.2</ele>
        <time>2022-05-24 23:05:22</time>
      </trkpt>
      <trkpt lat="40.72936" lon="0.71613">
        <ele>6.2</ele>
        <time>2022-05-24 23:05:23</time>
      </trkpt>
      <trkpt lat="40.72938" lon="0.71606">
        <ele>6.2</ele>
        <time>2022-05-24 23:05:24</time>
      </trkpt>
      <trkpt lat="40.7294" lon="0.716">
        <ele>6.2</ele>
        <time>2022-05-24 23:05:25</time>
      </trkpt>
      <trkpt lat="40.72942" lon="0.71593">
        <ele>6</ele>
        <time>2022-05-24 23:05:26</time>
      </trkpt>
      <trkpt lat="40.72943" lon="0.71587">
        <ele>5.8</ele>
        <time>2022-05-24 23:05:27</time>
      </trkpt>
      <trkpt lat="40.72945" lon="0.71581">
        <ele>5.8</ele>
        <time>2022-05-24 23:05:28</time>
      </trkpt>
      <trkpt lat="40.72946" lon="0.71575">
        <ele>5.8</ele>
        <time>2022-05-24 23:05:29</time>
      </trkpt>
      <trkpt lat="40.72948" lon="0.71568">
        <ele>5.6</ele>
        <time>2022-05-24 23:05:30</time>
      </trkpt>
      <trkpt lat="40.7295" lon="0.71561">
        <ele>5.6</ele>
        <time>2022-05-24 23:05:31</time>
      </trkpt>
      <trkpt lat="40.72952" lon="0.71554">
        <ele>5.6</ele>
        <time>2022-05-24 23:05:32</time>
      </trkpt>
      <trkpt lat="40.72954" lon="0.71548">
        <ele>5.6</ele>
        <time>2022-05-24 23:05:33</time>
      </trkpt>
      <trkpt lat="40.72956" lon="0.71541">
        <ele>5.6</ele>
        <time>2022-05-24 23:05:34</time>
      </trkpt>
      <trkpt lat="40.72958" lon="0.71534">
        <ele>5.6</ele>
        <time>2022-05-24 23:05:35</time>
      </trkpt>
      <trkpt lat="40.72959" lon="0.71527">
        <ele>5.6</ele>
        <time>2022-05-24 23:05:36</time>
      </trkpt>
      <trkpt lat="40.72961" lon="0.71521">
        <ele>6</ele>
        <time>2022-05-24 23:05:37</time>
      </trkpt>
      <trkpt lat="40.72963" lon="0.71514">
        <ele>6.2</ele>
        <time>2022-05-24 23:05:38</time>
      </trkpt>
      <trkpt lat="40.72964" lon="0.71508">
        <ele>6.2</ele>
        <time>2022-05-24 23:05:39</time>
      </trkpt>
      <trkpt lat="40.72966" lon="0.71503">
        <ele>6.2</ele>
        <time>2022-05-24 23:05:40</time>
      </trkpt>
      <trkpt lat="40.72968" lon="0.71497">
        <ele>6.4</ele>
        <time>2022-05-24 23:05:41</time>
      </trkpt>
      <trkpt lat="40.72969" lon="0.71491">
        <ele>6.4</ele>
        <time>2022-05-24 23:05:42</time>
      </trkpt>
      <trkpt lat="40.72971" lon="0.71485">
        <ele>6.4</ele>
        <time>2022-05-24 23:05:43</time>
      </trkpt>
      <trkpt lat="40.72972" lon="0.71479">
        <ele>6.4</ele>
        <time>2022-05-24 23:05:44</time>
      </trkpt>
      <trkpt lat="40.72974" lon="0.71473">
        <ele>6.4</ele>
        <time>2022-05-24 23:05:45</time>
      </trkpt>
      <trkpt lat="40.72975" lon="0.71466">
        <ele>6.4</ele>
        <time>2022-05-24 23:05:46</time>
      </trkpt>
      <trkpt lat="40.72976" lon="0.7146">
        <ele>6.4</ele>
        <time>2022-05-24 23:05:47</time>
      </trkpt>
      <trkpt lat="40.72978" lon="0.71453">
        <ele>6.4</ele>
        <time>2022-05-24 23:05:48</time>
      </trkpt>
      <trkpt lat="40.72979" lon="0.71447">
        <ele>6.4</ele>
        <time>2022-05-24 23:05:49</time>
      </trkpt>
      <trkpt lat="40.72981" lon="0.7144">
        <ele>6.6</ele>
        <time>2022-05-24 23:05:50</time>
      </trkpt>
      <trkpt lat="40.72982" lon="0.71433">
        <ele>6.6</ele>
        <time>2022-05-24 23:05:51</time>
      </trkpt>
      <trkpt lat="40.72984" lon="0.71426">
        <ele>6.6</ele>
        <time>2022-05-24 23:05:52</time>
      </trkpt>
      <trkpt lat="40.72985" lon="0.7142">
        <ele>6.6</ele>
        <time>2022-05-24 23:05:53</time>
      </trkpt>
      <trkpt lat="40.72985" lon="0.71413">
        <ele>6.6</ele>
        <time>2022-05-24 23:05:54</time>
      </trkpt>
      <trkpt lat="40.72987" lon="0.71406">
        <ele>6.8</ele>
        <time>2022-05-24 23:05:55</time>
      </trkpt>
      <trkpt lat="40.72988" lon="0.71399">
        <ele>6.8</ele>
        <time>2022-05-24 23:05:56</time>
      </trkpt>
      <trkpt lat="40.72989" lon="0.71392">
        <ele>6.8</ele>
        <time>2022-05-24 23:05:57</time>
      </trkpt>
      <trkpt lat="40.7299" lon="0.71385">
        <ele>6.8</ele>
        <time>2022-05-24 23:05:58</time>
      </trkpt>
      <trkpt lat="40.72991" lon="0.71378">
        <ele>6.8</ele>
        <time>2022-05-24 23:05:59</time>
      </trkpt>
      <trkpt lat="40.72992" lon="0.71371">
        <ele>6.8</ele>
        <time>2022-05-24 23:06:00</time>
      </trkpt>
      <trkpt lat="40.72993" lon="0.71364">
        <ele>6.8</ele>
        <time>2022-05-24 23:06:01</time>
      </trkpt>
      <trkpt lat="40.72993" lon="0.71357">
        <ele>6.8</ele>
        <time>2022-05-24 23:06:02</time>
      </trkpt>
      <trkpt lat="40.72994" lon="0.7135">
        <ele>6.6</ele>
        <time>2022-05-24 23:06:03</time>
      </trkpt>
      <trkpt lat="40.72995" lon="0.71343">
        <ele>6.6</ele>
        <time>2022-05-24 23:06:04</time>
      </trkpt>
      <trkpt lat="40.72995" lon="0.71335">
        <ele>6.6</ele>
        <time>2022-05-24 23:06:05</time>
      </trkpt>
      <trkpt lat="40.72996" lon="0.71328">
        <ele>6.4</ele>
        <time>2022-05-24 23:06:06</time>
      </trkpt>
      <trkpt lat="40.72997" lon="0.71321">
        <ele>6.4</ele>
        <time>2022-05-24 23:06:07</time>
      </trkpt>
      <trkpt lat="40.72997" lon="0.71314">
        <ele>6.4</ele>
        <time>2022-05-24 23:06:08</time>
      </trkpt>
      <trkpt lat="40.72997" lon="0.71307">
        <ele>6.2</ele>
        <time>2022-05-24 23:06:09</time>
      </trkpt>
      <trkpt lat="40.72998" lon="0.713">
        <ele>6.2</ele>
        <time>2022-05-24 23:06:10</time>
      </trkpt>
      <trkpt lat="40.72999" lon="0.71292">
        <ele>6</ele>
        <time>2022-05-24 23:06:11</time>
      </trkpt>
      <trkpt lat="40.72999" lon="0.71285">
        <ele>6</ele>
        <time>2022-05-24 23:06:12</time>
      </trkpt>
      <trkpt lat="40.73" lon="0.71278">
        <ele>6</ele>
        <time>2022-05-24 23:06:13</time>
      </trkpt>
      <trkpt lat="40.73" lon="0.71271">
        <ele>6</ele>
        <time>2022-05-24 23:06:14</time>
      </trkpt>
      <trkpt lat="40.73" lon="0.71264">
        <ele>5.8</ele>
        <time>2022-05-24 23:06:15</time>
      </trkpt>
      <trkpt lat="40.73001" lon="0.71257">
        <ele>6</ele>
        <time>2022-05-24 23:06:16</time>
      </trkpt>
      <trkpt lat="40.73001" lon="0.7125">
        <ele>6</ele>
        <time>2022-05-24 23:06:17</time>
      </trkpt>
      <trkpt lat="40.73001" lon="0.71243">
        <ele>6</ele>
        <time>2022-05-24 23:06:18</time>
      </trkpt>
      <trkpt lat="40.73002" lon="0.71236">
        <ele>6.2</ele>
        <time>2022-05-24 23:06:19</time>
      </trkpt>
      <trkpt lat="40.73003" lon="0.71229">
        <ele>6.2</ele>
        <time>2022-05-24 23:06:20</time>
      </trkpt>
      <trkpt lat="40.73003" lon="0.71222">
        <ele>6</ele>
        <time>2022-05-24 23:06:21</time>
      </trkpt>
      <trkpt lat="40.73003" lon="0.71214">
        <ele>6.2</ele>
        <time>2022-05-24 23:06:22</time>
      </trkpt>
      <trkpt lat="40.73004" lon="0.71207">
        <ele>6.2</ele>
        <time>2022-05-24 23:06:23</time>
      </trkpt>
      <trkpt lat="40.73004" lon="0.712">
        <ele>6.2</ele>
        <time>2022-05-24 23:06:24</time>
      </trkpt>
      <trkpt lat="40.73004" lon="0.71193">
        <ele>6.2</ele>
        <time>2022-05-24 23:06:25</time>
      </trkpt>
      <trkpt lat="40.73005" lon="0.71186">
        <ele>6.2</ele>
        <time>2022-05-24 23:06:26</time>
      </trkpt>
      <trkpt lat="40.73005" lon="0.71179">
        <ele>6</ele>
        <time>2022-05-24 23:06:27</time>
      </trkpt>
      <trkpt lat="40.73005" lon="0.71173">
        <ele>6</ele>
        <time>2022-05-24 23:06:28</time>
      </trkpt>
      <trkpt lat="40.73006" lon="0.71166">
        <ele>6.2</ele>
        <time>2022-05-24 23:06:29</time>
      </trkpt>
      <trkpt lat="40.73006" lon="0.71159">
        <ele>6.4</ele>
        <time>2022-05-24 23:06:30</time>
      </trkpt>
      <trkpt lat="40.73005" lon="0.71151">
        <ele>6.4</ele>
        <time>2022-05-24 23:06:31</time>
      </trkpt>
      <trkpt lat="40.73005" lon="0.71144">
        <ele>6.4</ele>
        <time>2022-05-24 23:06:32</time>
      </trkpt>
      <trkpt lat="40.73005" lon="0.71137">
        <ele>6.2</ele>
        <time>2022-05-24 23:06:33</time>
      </trkpt>
      <trkpt lat="40.73005" lon="0.7113">
        <ele>6.2</ele>
        <time>2022-05-24 23:06:34</time>
      </trkpt>
      <trkpt lat="40.73005" lon="0.71123">
        <ele>6.2</ele>
        <time>2022-05-24 23:06:35</time>
      </trkpt>
      <trkpt lat="40.73005" lon="0.71116">
        <ele>6.4</ele>
        <time>2022-05-24 23:06:36</time>
      </trkpt>
      <trkpt lat="40.73005" lon="0.71109">
        <ele>6.2</ele>
        <time>2022-05-24 23:06:37</time>
      </trkpt>
      <trkpt lat="40.73005" lon="0.71101">
        <ele>6.2</ele>
        <time>2022-05-24 23:06:38</time>
      </trkpt>
      <trkpt lat="40.73005" lon="0.71094">
        <ele>6.4</ele>
        <time>2022-05-24 23:06:39</time>
      </trkpt>
      <trkpt lat="40.73006" lon="0.71087">
        <ele>6.2</ele>
        <time>2022-05-24 23:06:40</time>
      </trkpt>
      <trkpt lat="40.73008" lon="0.7108">
        <ele>6.2</ele>
        <time>2022-05-24 23:06:41</time>
      </trkpt>
      <trkpt lat="40.73009" lon="0.71072">
        <ele>6.2</ele>
        <time>2022-05-24 23:06:42</time>
      </trkpt>
      <trkpt lat="40.7301" lon="0.71065">
        <ele>6.4</ele>
        <time>2022-05-24 23:06:43</time>
      </trkpt>
      <trkpt lat="40.73011" lon="0.71057">
        <ele>6.4</ele>
        <time>2022-05-24 23:06:44</time>
      </trkpt>
      <trkpt lat="40.73013" lon="0.7105">
        <ele>6.4</ele>
        <time>2022-05-24 23:06:45</time>
      </trkpt>
      <trkpt lat="40.73014" lon="0.71043">
        <ele>6.4</ele>
        <time>2022-05-24 23:06:46</time>
      </trkpt>
      <trkpt lat="40.73017" lon="0.71036">
        <ele>6.2</ele>
        <time>2022-05-24 23:06:47</time>
      </trkpt>
      <trkpt lat="40.73019" lon="0.7103">
        <ele>6.2</ele>
        <time>2022-05-24 23:06:48</time>
      </trkpt>
      <trkpt lat="40.73023" lon="0.71024">
        <ele>6.2</ele>
        <time>2022-05-24 23:06:49</time>
      </trkpt>
      <trkpt lat="40.73027" lon="0.71019">
        <ele>6.2</ele>
        <time>2022-05-24 23:06:50</time>
      </trkpt>
      <trkpt lat="40.73031" lon="0.71014">
        <ele>6</ele>
        <time>2022-05-24 23:06:51</time>
      </trkpt>
      <trkpt lat="40.73036" lon="0.71009">
        <ele>6</ele>
        <time>2022-05-24 23:06:52</time>
      </trkpt>
      <trkpt lat="40.7304" lon="0.71004">
        <ele>6</ele>
        <time>2022-05-24 23:06:53</time>
      </trkpt>
      <trkpt lat="40.73045" lon="0.71">
        <ele>6</ele>
        <time>2022-05-24 23:06:54</time>
      </trkpt>
      <trkpt lat="40.7305" lon="0.70995">
        <ele>6</ele>
        <time>2022-05-24 23:06:55</time>
      </trkpt>
      <trkpt lat="40.73054" lon="0.7099">
        <ele>6</ele>
        <time>2022-05-24 23:06:56</time>
      </trkpt>
      <trkpt lat="40.73058" lon="0.70985">
        <ele>6</ele>
        <time>2022-05-24 23:06:57</time>
      </trkpt>
      <trkpt lat="40.73063" lon="0.70981">
        <ele>5.8</ele>
        <time>2022-05-24 23:06:58</time>
      </trkpt>
      <trkpt lat="40.73067" lon="0.70976">
        <ele>5.8</ele>
        <time>2022-05-24 23:06:59</time>
      </trkpt>
      <trkpt lat="40.73071" lon="0.70972">
        <ele>5.8</ele>
        <time>2022-05-24 23:07:00</time>
      </trkpt>
      <trkpt lat="40.73075" lon="0.70967">
        <ele>5.8</ele>
        <time>2022-05-24 23:07:01</time>
      </trkpt>
      <trkpt lat="40.73079" lon="0.70963">
        <ele>5.8</ele>
        <time>2022-05-24 23:07:02</time>
      </trkpt>
      <trkpt lat="40.73083" lon="0.70959">
        <ele>5.8</ele>
        <time>2022-05-24 23:07:03</time>
      </trkpt>
      <trkpt lat="40.73087" lon="0.70955">
        <ele>6</ele>
        <time>2022-05-24 23:07:04</time>
      </trkpt>
      <trkpt lat="40.73091" lon="0.70952">
        <ele>6</ele>
        <time>2022-05-24 23:07:05</time>
      </trkpt>
      <trkpt lat="40.73095" lon="0.7095">
        <ele>6</ele>
        <time>2022-05-24 23:07:06</time>
      </trkpt>
      <trkpt lat="40.731" lon="0.70949">
        <ele>6</ele>
        <time>2022-05-24 23:07:07</time>
      </trkpt>
      <trkpt lat="40.73106" lon="0.7095">
        <ele>6</ele>
        <time>2022-05-24 23:07:08</time>
      </trkpt>
      <trkpt lat="40.73112" lon="0.70951">
        <ele>6</ele>
        <time>2022-05-24 23:07:09</time>
      </trkpt>
      <trkpt lat="40.73117" lon="0.70953">
        <ele>6</ele>
        <time>2022-05-24 23:07:10</time>
      </trkpt>
      <trkpt lat="40.73124" lon="0.70955">
        <ele>6</ele>
        <time>2022-05-24 23:07:11</time>
      </trkpt>
      <trkpt lat="40.73129" lon="0.70958">
        <ele>5.8</ele>
        <time>2022-05-24 23:07:12</time>
      </trkpt>
      <trkpt lat="40.73134" lon="0.7096">
        <ele>5.8</ele>
        <time>2022-05-24 23:07:13</time>
      </trkpt>
      <trkpt lat="40.7314" lon="0.70963">
        <ele>6</ele>
        <time>2022-05-24 23:07:14</time>
      </trkpt>
      <trkpt lat="40.73145" lon="0.70967">
        <ele>6</ele>
        <time>2022-05-24 23:07:15</time>
      </trkpt>
      <trkpt lat="40.73149" lon="0.7097">
        <ele>6</ele>
        <time>2022-05-24 23:07:16</time>
      </trkpt>
      <trkpt lat="40.73154" lon="0.70974">
        <ele>6</ele>
        <time>2022-05-24 23:07:17</time>
      </trkpt>
      <trkpt lat="40.73159" lon="0.70978">
        <ele>6.2</ele>
        <time>2022-05-24 23:07:18</time>
      </trkpt>
      <trkpt lat="40.73163" lon="0.70981">
        <ele>6.2</ele>
        <time>2022-05-24 23:07:19</time>
      </trkpt>
      <trkpt lat="40.73167" lon="0.70984">
        <ele>6.2</ele>
        <time>2022-05-24 23:07:20</time>
      </trkpt>
      <trkpt lat="40.73171" lon="0.70987">
        <ele>6.2</ele>
        <time>2022-05-24 23:07:21</time>
      </trkpt>
      <trkpt lat="40.73175" lon="0.70991">
        <ele>6.2</ele>
        <time>2022-05-24 23:07:22</time>
      </trkpt>
      <trkpt lat="40.7318" lon="0.70995">
        <ele>6</ele>
        <time>2022-05-24 23:07:23</time>
      </trkpt>
      <trkpt lat="40.73185" lon="0.70999">
        <ele>6</ele>
        <time>2022-05-24 23:07:24</time>
      </trkpt>
      <trkpt lat="40.7319" lon="0.71003">
        <ele>6.2</ele>
        <time>2022-05-24 23:07:25</time>
      </trkpt>
      <trkpt lat="40.73195" lon="0.71007">
        <ele>6.2</ele>
        <time>2022-05-24 23:07:26</time>
      </trkpt>
      <trkpt lat="40.73199" lon="0.71011">
        <ele>6.2</ele>
        <time>2022-05-24 23:07:27</time>
      </trkpt>
      <trkpt lat="40.73204" lon="0.71015">
        <ele>6.2</ele>
        <time>2022-05-24 23:07:28</time>
      </trkpt>
      <trkpt lat="40.73209" lon="0.71019">
        <ele>6</ele>
        <time>2022-05-24 23:07:29</time>
      </trkpt>
      <trkpt lat="40.73214" lon="0.71022">
        <ele>6</ele>
        <time>2022-05-24 23:07:30</time>
      </trkpt>
      <trkpt lat="40.7322" lon="0.71026">
        <ele>6</ele>
        <time>2022-05-24 23:07:31</time>
      </trkpt>
      <trkpt lat="40.73225" lon="0.7103">
        <ele>6.2</ele>
        <time>2022-05-24 23:07:32</time>
      </trkpt>
      <trkpt lat="40.7323" lon="0.71034">
        <ele>6.2</ele>
        <time>2022-05-24 23:07:33</time>
      </trkpt>
      <trkpt lat="40.73235" lon="0.71038">
        <ele>6.2</ele>
        <time>2022-05-24 23:07:34</time>
      </trkpt>
      <trkpt lat="40.73241" lon="0.71042">
        <ele>6.2</ele>
        <time>2022-05-24 23:07:35</time>
      </trkpt>
      <trkpt lat="40.73246" lon="0.71046">
        <ele>6.2</ele>
        <time>2022-05-24 23:07:36</time>
      </trkpt>
      <trkpt lat="40.73251" lon="0.7105">
        <ele>6.2</ele>
        <time>2022-05-24 23:07:37</time>
      </trkpt>
      <trkpt lat="40.73256" lon="0.71054">
        <ele>6.2</ele>
        <time>2022-05-24 23:07:38</time>
      </trkpt>
      <trkpt lat="40.73261" lon="0.71058">
        <ele>6.2</ele>
        <time>2022-05-24 23:07:39</time>
      </trkpt>
      <trkpt lat="40.73267" lon="0.71062">
        <ele>6.2</ele>
        <time>2022-05-24 23:07:40</time>
      </trkpt>
      <trkpt lat="40.73272" lon="0.71066">
        <ele>6.2</ele>
        <time>2022-05-24 23:07:41</time>
      </trkpt>
      <trkpt lat="40.73277" lon="0.71071">
        <ele>6.2</ele>
        <time>2022-05-24 23:07:42</time>
      </trkpt>
      <trkpt lat="40.73282" lon="0.71075">
        <ele>6.2</ele>
        <time>2022-05-24 23:07:43</time>
      </trkpt>
      <trkpt lat="40.73288" lon="0.71079">
        <ele>6.4</ele>
        <time>2022-05-24 23:07:44</time>
      </trkpt>
      <trkpt lat="40.73293" lon="0.71083">
        <ele>6.4</ele>
        <time>2022-05-24 23:07:45</time>
      </trkpt>
      <trkpt lat="40.73298" lon="0.71086">
        <ele>6.4</ele>
        <time>2022-05-24 23:07:46</time>
      </trkpt>
      <trkpt lat="40.73303" lon="0.7109">
        <ele>6.4</ele>
        <time>2022-05-24 23:07:47</time>
      </trkpt>
      <trkpt lat="40.73308" lon="0.71094">
        <ele>6.4</ele>
        <time>2022-05-24 23:07:48</time>
      </trkpt>
      <trkpt lat="40.73312" lon="0.71098">
        <ele>6.4</ele>
        <time>2022-05-24 23:07:49</time>
      </trkpt>
      <trkpt lat="40.73317" lon="0.71102">
        <ele>6.2</ele>
        <time>2022-05-24 23:07:50</time>
      </trkpt>
      <trkpt lat="40.73322" lon="0.71105">
        <ele>6.2</ele>
        <time>2022-05-24 23:07:51</time>
      </trkpt>
      <trkpt lat="40.73327" lon="0.71109">
        <ele>6</ele>
        <time>2022-05-24 23:07:52</time>
      </trkpt>
      <trkpt lat="40.73333" lon="0.71113">
        <ele>5.8</ele>
        <time>2022-05-24 23:07:53</time>
      </trkpt>
      <trkpt lat="40.73338" lon="0.71116">
        <ele>5.8</ele>
        <time>2022-05-24 23:07:54</time>
      </trkpt>
      <trkpt lat="40.73343" lon="0.7112">
        <ele>5.8</ele>
        <time>2022-05-24 23:07:55</time>
      </trkpt>
      <trkpt lat="40.73349" lon="0.71125">
        <ele>5.8</ele>
        <time>2022-05-24 23:07:56</time>
      </trkpt>
      <trkpt lat="40.73354" lon="0.71129">
        <ele>5.6</ele>
        <time>2022-05-24 23:07:57</time>
      </trkpt>
      <trkpt lat="40.73359" lon="0.71133">
        <ele>5.6</ele>
        <time>2022-05-24 23:07:58</time>
      </trkpt>
      <trkpt lat="40.73364" lon="0.71137">
        <ele>5.4</ele>
        <time>2022-05-24 23:07:59</time>
      </trkpt>
      <trkpt lat="40.7337" lon="0.71141">
        <ele>5.6</ele>
        <time>2022-05-24 23:08:00</time>
      </trkpt>
      <trkpt lat="40.73375" lon="0.71145">
        <ele>5.6</ele>
        <time>2022-05-24 23:08:01</time>
      </trkpt>
      <trkpt lat="40.7338" lon="0.71149">
        <ele>5.6</ele>
        <time>2022-05-24 23:08:02</time>
      </trkpt>
      <trkpt lat="40.73384" lon="0.71153">
        <ele>5.8</ele>
        <time>2022-05-24 23:08:03</time>
      </trkpt>
      <trkpt lat="40.7339" lon="0.71157">
        <ele>5.8</ele>
        <time>2022-05-24 23:08:04</time>
      </trkpt>
      <trkpt lat="40.73395" lon="0.7116">
        <ele>5.8</ele>
        <time>2022-05-24 23:08:05</time>
      </trkpt>
      <trkpt lat="40.734" lon="0.71164">
        <ele>6</ele>
        <time>2022-05-24 23:08:06</time>
      </trkpt>
      <trkpt lat="40.73406" lon="0.71168">
        <ele>6</ele>
        <time>2022-05-24 23:08:07</time>
      </trkpt>
      <trkpt lat="40.73411" lon="0.71172">
        <ele>6</ele>
        <time>2022-05-24 23:08:08</time>
      </trkpt>
      <trkpt lat="40.73416" lon="0.71176">
        <ele>6</ele>
        <time>2022-05-24 23:08:09</time>
      </trkpt>
      <trkpt lat="40.73421" lon="0.7118">
        <ele>6</ele>
        <time>2022-05-24 23:08:10</time>
      </trkpt>
      <trkpt lat="40.73426" lon="0.71184">
        <ele>5.8</ele>
        <time>2022-05-24 23:08:11</time>
      </trkpt>
      <trkpt lat="40.73431" lon="0.71188">
        <ele>5.8</ele>
        <time>2022-05-24 23:08:12</time>
      </trkpt>
      <trkpt lat="40.73436" lon="0.71192">
        <ele>5.8</ele>
        <time>2022-05-24 23:08:13</time>
      </trkpt>
      <trkpt lat="40.73442" lon="0.71196">
        <ele>5.8</ele>
        <time>2022-05-24 23:08:14</time>
      </trkpt>
      <trkpt lat="40.73447" lon="0.712">
        <ele>5.8</ele>
        <time>2022-05-24 23:08:15</time>
      </trkpt>
      <trkpt lat="40.73452" lon="0.71204">
        <ele>5.6</ele>
        <time>2022-05-24 23:08:16</time>
      </trkpt>
      <trkpt lat="40.73457" lon="0.71208">
        <ele>5.4</ele>
        <time>2022-05-24 23:08:17</time>
      </trkpt>
      <trkpt lat="40.73462" lon="0.71211">
        <ele>5.4</ele>
        <time>2022-05-24 23:08:18</time>
      </trkpt>
      <trkpt lat="40.73468" lon="0.71215">
        <ele>5.4</ele>
        <time>2022-05-24 23:08:19</time>
      </trkpt>
      <trkpt lat="40.73473" lon="0.71219">
        <ele>5.2</ele>
        <time>2022-05-24 23:08:20</time>
      </trkpt>
      <trkpt lat="40.73478" lon="0.71223">
        <ele>5.2</ele>
        <time>2022-05-24 23:08:21</time>
      </trkpt>
      <trkpt lat="40.73483" lon="0.71227">
        <ele>5.2</ele>
        <time>2022-05-24 23:08:22</time>
      </trkpt>
      <trkpt lat="40.73488" lon="0.71231">
        <ele>5</ele>
        <time>2022-05-24 23:08:23</time>
      </trkpt>
      <trkpt lat="40.73494" lon="0.71235">
        <ele>5</ele>
        <time>2022-05-24 23:08:24</time>
      </trkpt>
      <trkpt lat="40.73499" lon="0.71239">
        <ele>5.2</ele>
        <time>2022-05-24 23:08:25</time>
      </trkpt>
      <trkpt lat="40.73504" lon="0.71243">
        <ele>5.2</ele>
        <time>2022-05-24 23:08:26</time>
      </trkpt>
      <trkpt lat="40.73509" lon="0.71247">
        <ele>5.4</ele>
        <time>2022-05-24 23:08:27</time>
      </trkpt>
      <trkpt lat="40.73515" lon="0.71251">
        <ele>5.4</ele>
        <time>2022-05-24 23:08:28</time>
      </trkpt>
      <trkpt lat="40.7352" lon="0.71255">
        <ele>5.4</ele>
        <time>2022-05-24 23:08:29</time>
      </trkpt>
      <trkpt lat="40.73525" lon="0.71259">
        <ele>5.4</ele>
        <time>2022-05-24 23:08:30</time>
      </trkpt>
      <trkpt lat="40.73531" lon="0.71263">
        <ele>5.4</ele>
        <time>2022-05-24 23:08:31</time>
      </trkpt>
      <trkpt lat="40.73536" lon="0.71267">
        <ele>5.6</ele>
        <time>2022-05-24 23:08:32</time>
      </trkpt>
      <trkpt lat="40.73541" lon="0.71271">
        <ele>5.6</ele>
        <time>2022-05-24 23:08:33</time>
      </trkpt>
      <trkpt lat="40.73547" lon="0.71275">
        <ele>5.6</ele>
        <time>2022-05-24 23:08:34</time>
      </trkpt>
      <trkpt lat="40.73552" lon="0.7128">
        <ele>5.6</ele>
        <time>2022-05-24 23:08:35</time>
      </trkpt>
      <trkpt lat="40.73558" lon="0.71284">
        <ele>5.6</ele>
        <time>2022-05-24 23:08:36</time>
      </trkpt>
      <trkpt lat="40.73563" lon="0.71288">
        <ele>5.8</ele>
        <time>2022-05-24 23:08:37</time>
      </trkpt>
      <trkpt lat="40.73569" lon="0.71293">
        <ele>5.6</ele>
        <time>2022-05-24 23:08:38</time>
      </trkpt>
      <trkpt lat="40.73575" lon="0.71297">
        <ele>5.8</ele>
        <time>2022-05-24 23:08:39</time>
      </trkpt>
      <trkpt lat="40.73581" lon="0.71301">
        <ele>5.8</ele>
        <time>2022-05-24 23:08:40</time>
      </trkpt>
      <trkpt lat="40.73587" lon="0.71306">
        <ele>5.6</ele>
        <time>2022-05-24 23:08:41</time>
      </trkpt>
      <trkpt lat="40.73592" lon="0.7131">
        <ele>5.6</ele>
        <time>2022-05-24 23:08:42</time>
      </trkpt>
      <trkpt lat="40.73598" lon="0.71315">
        <ele>5.4</ele>
        <time>2022-05-24 23:08:43</time>
      </trkpt>
      <trkpt lat="40.73604" lon="0.71319">
        <ele>5.4</ele>
        <time>2022-05-24 23:08:44</time>
      </trkpt>
      <trkpt lat="40.7361" lon="0.71323">
        <ele>5.2</ele>
        <time>2022-05-24 23:08:45</time>
      </trkpt>
      <trkpt lat="40.73616" lon="0.71328">
        <ele>5.2</ele>
        <time>2022-05-24 23:08:46</time>
      </trkpt>
      <trkpt lat="40.73621" lon="0.71332">
        <ele>5.2</ele>
        <time>2022-05-24 23:08:47</time>
      </trkpt>
      <trkpt lat="40.73627" lon="0.71336">
        <ele>5.2</ele>
        <time>2022-05-24 23:08:48</time>
      </trkpt>
      <trkpt lat="40.73633" lon="0.71341">
        <ele>5.2</ele>
        <time>2022-05-24 23:08:49</time>
      </trkpt>
      <trkpt lat="40.73639" lon="0.71345">
        <ele>5.2</ele>
        <time>2022-05-24 23:08:50</time>
      </trkpt>
      <trkpt lat="40.73645" lon="0.71349">
        <ele>5.2</ele>
        <time>2022-05-24 23:08:51</time>
      </trkpt>
      <trkpt lat="40.7365" lon="0.71353">
        <ele>5</ele>
        <time>2022-05-24 23:08:52</time>
      </trkpt>
      <trkpt lat="40.73656" lon="0.71358">
        <ele>5</ele>
        <time>2022-05-24 23:08:53</time>
      </trkpt>
      <trkpt lat="40.73661" lon="0.71362">
        <ele>5.2</ele>
        <time>2022-05-24 23:08:54</time>
      </trkpt>
      <trkpt lat="40.73666" lon="0.71366">
        <ele>5.2</ele>
        <time>2022-05-24 23:08:55</time>
      </trkpt>
      <trkpt lat="40.73672" lon="0.7137">
        <ele>5.2</ele>
        <time>2022-05-24 23:08:56</time>
      </trkpt>
      <trkpt lat="40.73677" lon="0.71374">
        <ele>5.2</ele>
        <time>2022-05-24 23:08:57</time>
      </trkpt>
      <trkpt lat="40.73683" lon="0.71378">
        <ele>5.2</ele>
        <time>2022-05-24 23:08:58</time>
      </trkpt>
      <trkpt lat="40.73688" lon="0.71381">
        <ele>5.2</ele>
        <time>2022-05-24 23:08:59</time>
      </trkpt>
      <trkpt lat="40.73694" lon="0.71385">
        <ele>5.4</ele>
        <time>2022-05-24 23:09:00</time>
      </trkpt>
      <trkpt lat="40.737" lon="0.71389">
        <ele>5.4</ele>
        <time>2022-05-24 23:09:01</time>
      </trkpt>
      <trkpt lat="40.73706" lon="0.71393">
        <ele>5.6</ele>
        <time>2022-05-24 23:09:02</time>
      </trkpt>
      <trkpt lat="40.73711" lon="0.71396">
        <ele>5.4</ele>
        <time>2022-05-24 23:09:03</time>
      </trkpt>
      <trkpt lat="40.73717" lon="0.714">
        <ele>5.4</ele>
        <time>2022-05-24 23:09:04</time>
      </trkpt>
      <trkpt lat="40.73722" lon="0.71403">
        <ele>5.6</ele>
        <time>2022-05-24 23:09:05</time>
      </trkpt>
      <trkpt lat="40.73728" lon="0.71405">
        <ele>5.6</ele>
        <time>2022-05-24 23:09:06</time>
      </trkpt>
      <trkpt lat="40.73734" lon="0.71408">
        <ele>5.4</ele>
        <time>2022-05-24 23:09:07</time>
      </trkpt>
      <trkpt lat="40.7374" lon="0.7141">
        <ele>5.4</ele>
        <time>2022-05-24 23:09:08</time>
      </trkpt>
      <trkpt lat="40.73746" lon="0.71411">
        <ele>5.4</ele>
        <time>2022-05-24 23:09:09</time>
      </trkpt>
      <trkpt lat="40.73752" lon="0.71413">
        <ele>5.4</ele>
        <time>2022-05-24 23:09:10</time>
      </trkpt>
      <trkpt lat="40.73758" lon="0.71414">
        <ele>5.6</ele>
        <time>2022-05-24 23:09:11</time>
      </trkpt>
      <trkpt lat="40.73764" lon="0.71415">
        <ele>5.6</ele>
        <time>2022-05-24 23:09:12</time>
      </trkpt>
      <trkpt lat="40.7377" lon="0.71416">
        <ele>5.6</ele>
        <time>2022-05-24 23:09:13</time>
      </trkpt>
      <trkpt lat="40.73776" lon="0.71416">
        <ele>5.6</ele>
        <time>2022-05-24 23:09:14</time>
      </trkpt>
      <trkpt lat="40.73782" lon="0.71417">
        <ele>5.6</ele>
        <time>2022-05-24 23:09:15</time>
      </trkpt>
      <trkpt lat="40.73788" lon="0.71417">
        <ele>5.6</ele>
        <time>2022-05-24 23:09:16</time>
      </trkpt>
      <trkpt lat="40.73794" lon="0.71416">
        <ele>5.4</ele>
        <time>2022-05-24 23:09:17</time>
      </trkpt>
      <trkpt lat="40.738" lon="0.71416">
        <ele>5.4</ele>
        <time>2022-05-24 23:09:18</time>
      </trkpt>
      <trkpt lat="40.73805" lon="0.71415">
        <ele>5.4</ele>
        <time>2022-05-24 23:09:19</time>
      </trkpt>
      <trkpt lat="40.73811" lon="0.71414">
        <ele>5.4</ele>
        <time>2022-05-24 23:09:20</time>
      </trkpt>
      <trkpt lat="40.73817" lon="0.71413">
        <ele>5.4</ele>
        <time>2022-05-24 23:09:21</time>
      </trkpt>
      <trkpt lat="40.73823" lon="0.71412">
        <ele>5.4</ele>
        <time>2022-05-24 23:09:22</time>
      </trkpt>
      <trkpt lat="40.73828" lon="0.7141">
        <ele>5.2</ele>
        <time>2022-05-24 23:09:23</time>
      </trkpt>
      <trkpt lat="40.73834" lon="0.71408">
        <ele>5.2</ele>
        <time>2022-05-24 23:09:24</time>
      </trkpt>
      <trkpt lat="40.73839" lon="0.71406">
        <ele>5.2</ele>
        <time>2022-05-24 23:09:25</time>
      </trkpt>
      <trkpt lat="40.73845" lon="0.71403">
        <ele>5.2</ele>
        <time>2022-05-24 23:09:26</time>
      </trkpt>
      <trkpt lat="40.7385" lon="0.71401">
        <ele>5.2</ele>
        <time>2022-05-24 23:09:27</time>
      </trkpt>
      <trkpt lat="40.73855" lon="0.71398">
        <ele>5</ele>
        <time>2022-05-24 23:09:28</time>
      </trkpt>
      <trkpt lat="40.73861" lon="0.71395">
        <ele>5</ele>
        <time>2022-05-24 23:09:29</time>
      </trkpt>
      <trkpt lat="40.73866" lon="0.71393">
        <ele>5</ele>
        <time>2022-05-24 23:09:30</time>
      </trkpt>
      <trkpt lat="40.73871" lon="0.7139">
        <ele>4.8</ele>
        <time>2022-05-24 23:09:31</time>
      </trkpt>
      <trkpt lat="40.73876" lon="0.71386">
        <ele>4.6</ele>
        <time>2022-05-24 23:09:32</time>
      </trkpt>
      <trkpt lat="40.73882" lon="0.71383">
        <ele>4.6</ele>
        <time>2022-05-24 23:09:33</time>
      </trkpt>
      <trkpt lat="40.73886" lon="0.7138">
        <ele>4.6</ele>
        <time>2022-05-24 23:09:34</time>
      </trkpt>
      <trkpt lat="40.73891" lon="0.71377">
        <ele>4.6</ele>
        <time>2022-05-24 23:09:35</time>
      </trkpt>
      <trkpt lat="40.73896" lon="0.71374">
        <ele>4.6</ele>
        <time>2022-05-24 23:09:36</time>
      </trkpt>
      <trkpt lat="40.73901" lon="0.71371">
        <ele>4.6</ele>
        <time>2022-05-24 23:09:37</time>
      </trkpt>
      <trkpt lat="40.73906" lon="0.71368">
        <ele>4.6</ele>
        <time>2022-05-24 23:09:38</time>
      </trkpt>
      <trkpt lat="40.73911" lon="0.71365">
        <ele>4.8</ele>
        <time>2022-05-24 23:09:39</time>
      </trkpt>
      <trkpt lat="40.73916" lon="0.71362">
        <ele>4.8</ele>
        <time>2022-05-24 23:09:40</time>
      </trkpt>
      <trkpt lat="40.73921" lon="0.71359">
        <ele>4.6</ele>
        <time>2022-05-24 23:09:41</time>
      </trkpt>
      <trkpt lat="40.73926" lon="0.71356">
        <ele>4.8</ele>
        <time>2022-05-24 23:09:42</time>
      </trkpt>
      <trkpt lat="40.73931" lon="0.71352">
        <ele>4.8</ele>
        <time>2022-05-24 23:09:43</time>
      </trkpt>
      <trkpt lat="40.73936" lon="0.71349">
        <ele>4.8</ele>
        <time>2022-05-24 23:09:44</time>
      </trkpt>
      <trkpt lat="40.73941" lon="0.71346">
        <ele>4.8</ele>
        <time>2022-05-24 23:09:45</time>
      </trkpt>
      <trkpt lat="40.73946" lon="0.71343">
        <ele>5</ele>
        <time>2022-05-24 23:09:46</time>
      </trkpt>
      <trkpt lat="40.73952" lon="0.71339">
        <ele>5</ele>
        <time>2022-05-24 23:09:47</time>
      </trkpt>
      <trkpt lat="40.73957" lon="0.71336">
        <ele>5</ele>
        <time>2022-05-24 23:09:48</time>
      </trkpt>
      <trkpt lat="40.73962" lon="0.71333">
        <ele>5</ele>
        <time>2022-05-24 23:09:49</time>
      </trkpt>
      <trkpt lat="40.73968" lon="0.7133">
        <ele>5</ele>
        <time>2022-05-24 23:09:50</time>
      </trkpt>
      <trkpt lat="40.73973" lon="0.71326">
        <ele>5</ele>
        <time>2022-05-24 23:09:51</time>
      </trkpt>
      <trkpt lat="40.73978" lon="0.71323">
        <ele>5</ele>
        <time>2022-05-24 23:09:52</time>
      </trkpt>
      <trkpt lat="40.73984" lon="0.71319">
        <ele>4.8</ele>
        <time>2022-05-24 23:09:53</time>
      </trkpt>
      <trkpt lat="40.73989" lon="0.71316">
        <ele>4.6</ele>
        <time>2022-05-24 23:09:54</time>
      </trkpt>
      <trkpt lat="40.73994" lon="0.71313">
        <ele>4.6</ele>
        <time>2022-05-24 23:09:55</time>
      </trkpt>
      <trkpt lat="40.73999" lon="0.71309">
        <ele>4.4</ele>
        <time>2022-05-24 23:09:56</time>
      </trkpt>
      <trkpt lat="40.74004" lon="0.71306">
        <ele>4.6</ele>
        <time>2022-05-24 23:09:57</time>
      </trkpt>
      <trkpt lat="40.7401" lon="0.71303">
        <ele>4.6</ele>
        <time>2022-05-24 23:09:58</time>
      </trkpt>
      <trkpt lat="40.74015" lon="0.713">
        <ele>4.4</ele>
        <time>2022-05-24 23:09:59</time>
      </trkpt>
      <trkpt lat="40.7402" lon="0.71296">
        <ele>4.4</ele>
        <time>2022-05-24 23:10:00</time>
      </trkpt>
      <trkpt lat="40.74025" lon="0.71293">
        <ele>4.4</ele>
        <time>2022-05-24 23:10:01</time>
      </trkpt>
      <trkpt lat="40.7403" lon="0.7129">
        <ele>4.4</ele>
        <time>2022-05-24 23:10:02</time>
      </trkpt>
      <trkpt lat="40.74035" lon="0.71287">
        <ele>4.4</ele>
        <time>2022-05-24 23:10:03</time>
      </trkpt>
      <trkpt lat="40.7404" lon="0.71284">
        <ele>4.4</ele>
        <time>2022-05-24 23:10:04</time>
      </trkpt>
      <trkpt lat="40.74045" lon="0.7128">
        <ele>4.4</ele>
        <time>2022-05-24 23:10:05</time>
      </trkpt>
      <trkpt lat="40.7405" lon="0.71277">
        <ele>4.4</ele>
        <time>2022-05-24 23:10:06</time>
      </trkpt>
      <trkpt lat="40.74055" lon="0.71274">
        <ele>4.4</ele>
        <time>2022-05-24 23:10:07</time>
      </trkpt>
      <trkpt lat="40.74059" lon="0.71271">
        <ele>4.4</ele>
        <time>2022-05-24 23:10:08</time>
      </trkpt>
      <trkpt lat="40.74064" lon="0.71268">
        <ele>4.4</ele>
        <time>2022-05-24 23:10:09</time>
      </trkpt>
      <trkpt lat="40.74069" lon="0.71265">
        <ele>4.4</ele>
        <time>2022-05-24 23:10:10</time>
      </trkpt>
      <trkpt lat="40.74074" lon="0.71262">
        <ele>4.6</ele>
        <time>2022-05-24 23:10:11</time>
      </trkpt>
      <trkpt lat="40.74079" lon="0.71259">
        <ele>4.6</ele>
        <time>2022-05-24 23:10:12</time>
      </trkpt>
      <trkpt lat="40.74084" lon="0.71256">
        <ele>4.4</ele>
        <time>2022-05-24 23:10:13</time>
      </trkpt>
      <trkpt lat="40.74089" lon="0.71253">
        <ele>4.4</ele>
        <time>2022-05-24 23:10:14</time>
      </trkpt>
      <trkpt lat="40.74094" lon="0.7125">
        <ele>4.4</ele>
        <time>2022-05-24 23:10:15</time>
      </trkpt>
      <trkpt lat="40.74099" lon="0.71247">
        <ele>4.4</ele>
        <time>2022-05-24 23:10:16</time>
      </trkpt>
      <trkpt lat="40.74104" lon="0.71245">
        <ele>4.4</ele>
        <time>2022-05-24 23:10:17</time>
      </trkpt>
      <trkpt lat="40.74109" lon="0.71243">
        <ele>4.6</ele>
        <time>2022-05-24 23:10:18</time>
      </trkpt>
      <trkpt lat="40.74115" lon="0.71241">
        <ele>4.6</ele>
        <time>2022-05-24 23:10:19</time>
      </trkpt>
      <trkpt lat="40.7412" lon="0.71239">
        <ele>4.4</ele>
        <time>2022-05-24 23:10:20</time>
      </trkpt>
      <trkpt lat="40.74125" lon="0.71237">
        <ele>4.4</ele>
        <time>2022-05-24 23:10:21</time>
      </trkpt>
      <trkpt lat="40.74131" lon="0.71235">
        <ele>4.4</ele>
        <time>2022-05-24 23:10:22</time>
      </trkpt>
      <trkpt lat="40.74136" lon="0.71234">
        <ele>4.4</ele>
        <time>2022-05-24 23:10:23</time>
      </trkpt>
      <trkpt lat="40.74141" lon="0.71233">
        <ele>4.4</ele>
        <time>2022-05-24 23:10:24</time>
      </trkpt>
      <trkpt lat="40.74146" lon="0.71232">
        <ele>4.4</ele>
        <time>2022-05-24 23:10:25</time>
      </trkpt>
      <trkpt lat="40.74152" lon="0.7123">
        <ele>4.6</ele>
        <time>2022-05-24 23:10:26</time>
      </trkpt>
      <trkpt lat="40.74157" lon="0.71229">
        <ele>4.6</ele>
        <time>2022-05-24 23:10:27</time>
      </trkpt>
      <trkpt lat="40.74163" lon="0.71228">
        <ele>4.8</ele>
        <time>2022-05-24 23:10:28</time>
      </trkpt>
      <trkpt lat="40.74168" lon="0.71227">
        <ele>4.6</ele>
        <time>2022-05-24 23:10:29</time>
      </trkpt>
      <trkpt lat="40.74173" lon="0.71225">
        <ele>4.6</ele>
        <time>2022-05-24 23:10:30</time>
      </trkpt>
      <trkpt lat="40.74179" lon="0.71224">
        <ele>4.6</ele>
        <time>2022-05-24 23:10:31</time>
      </trkpt>
      <trkpt lat="40.74184" lon="0.71223">
        <ele>4.6</ele>
        <time>2022-05-24 23:10:32</time>
      </trkpt>
      <trkpt lat="40.74189" lon="0.71222">
        <ele>4.6</ele>
        <time>2022-05-24 23:10:33</time>
      </trkpt>
      <trkpt lat="40.74195" lon="0.7122">
        <ele>4.6</ele>
        <time>2022-05-24 23:10:34</time>
      </trkpt>
      <trkpt lat="40.742" lon="0.71219">
        <ele>4.6</ele>
        <time>2022-05-24 23:10:35</time>
      </trkpt>
      <trkpt lat="40.74205" lon="0.71218">
        <ele>4.8</ele>
        <time>2022-05-24 23:10:36</time>
      </trkpt>
      <trkpt lat="40.7421" lon="0.71217">
        <ele>4.8</ele>
        <time>2022-05-24 23:10:37</time>
      </trkpt>
      <trkpt lat="40.74216" lon="0.71215">
        <ele>4.8</ele>
        <time>2022-05-24 23:10:38</time>
      </trkpt>
      <trkpt lat="40.74221" lon="0.71214">
        <ele>4.8</ele>
        <time>2022-05-24 23:10:39</time>
      </trkpt>
      <trkpt lat="40.74226" lon="0.71213">
        <ele>4.8</ele>
        <time>2022-05-24 23:10:40</time>
      </trkpt>
      <trkpt lat="40.74231" lon="0.71212">
        <ele>4.6</ele>
        <time>2022-05-24 23:10:41</time>
      </trkpt>
      <trkpt lat="40.74236" lon="0.71211">
        <ele>4.8</ele>
        <time>2022-05-24 23:10:42</time>
      </trkpt>
      <trkpt lat="40.74241" lon="0.7121">
        <ele>4.8</ele>
        <time>2022-05-24 23:10:43</time>
      </trkpt>
      <trkpt lat="40.74246" lon="0.71209">
        <ele>4.6</ele>
        <time>2022-05-24 23:10:44</time>
      </trkpt>
      <trkpt lat="40.74251" lon="0.71207">
        <ele>4.6</ele>
        <time>2022-05-24 23:10:45</time>
      </trkpt>
      <trkpt lat="40.74257" lon="0.71206">
        <ele>4.4</ele>
        <time>2022-05-24 23:10:46</time>
      </trkpt>
      <trkpt lat="40.74262" lon="0.71205">
        <ele>4.4</ele>
        <time>2022-05-24 23:10:47</time>
      </trkpt>
      <trkpt lat="40.74267" lon="0.71203">
        <ele>4.2</ele>
        <time>2022-05-24 23:10:48</time>
      </trkpt>
      <trkpt lat="40.74273" lon="0.71202">
        <ele>4.2</ele>
        <time>2022-05-24 23:10:49</time>
      </trkpt>
      <trkpt lat="40.74279" lon="0.71201">
        <ele>4</ele>
        <time>2022-05-24 23:10:50</time>
      </trkpt>
      <trkpt lat="40.74284" lon="0.71199">
        <ele>4</ele>
        <time>2022-05-24 23:10:51</time>
      </trkpt>
      <trkpt lat="40.7429" lon="0.71198">
        <ele>3.8</ele>
        <time>2022-05-24 23:10:52</time>
      </trkpt>
      <trkpt lat="40.74296" lon="0.71197">
        <ele>3.8</ele>
        <time>2022-05-24 23:10:53</time>
      </trkpt>
      <trkpt lat="40.74302" lon="0.71195">
        <ele>3.8</ele>
        <time>2022-05-24 23:10:54</time>
      </trkpt>
      <trkpt lat="40.74307" lon="0.71194">
        <ele>4</ele>
        <time>2022-05-24 23:10:55</time>
      </trkpt>
      <trkpt lat="40.74313" lon="0.71193">
        <ele>4</ele>
        <time>2022-05-24 23:10:56</time>
      </trkpt>
      <trkpt lat="40.74319" lon="0.71192">
        <ele>4</ele>
        <time>2022-05-24 23:10:57</time>
      </trkpt>
      <trkpt lat="40.74324" lon="0.7119">
        <ele>4.2</ele>
        <time>2022-05-24 23:10:58</time>
      </trkpt>
      <trkpt lat="40.7433" lon="0.71189">
        <ele>4.2</ele>
        <time>2022-05-24 23:10:59</time>
      </trkpt>
      <trkpt lat="40.74335" lon="0.71188">
        <ele>4.2</ele>
        <time>2022-05-24 23:11:00</time>
      </trkpt>
      <trkpt lat="40.74341" lon="0.71186">
        <ele>4.2</ele>
        <time>2022-05-24 23:11:01</time>
      </trkpt>
      <trkpt lat="40.74347" lon="0.71185">
        <ele>4.2</ele>
        <time>2022-05-24 23:11:02</time>
      </trkpt>
      <trkpt lat="40.74352" lon="0.71184">
        <ele>4.2</ele>
        <time>2022-05-24 23:11:03</time>
      </trkpt>
      <trkpt lat="40.74358" lon="0.71182">
        <ele>4.2</ele>
        <time>2022-05-24 23:11:04</time>
      </trkpt>
      <trkpt lat="40.74363" lon="0.71181">
        <ele>4.2</ele>
        <time>2022-05-24 23:11:05</time>
      </trkpt>
      <trkpt lat="40.74369" lon="0.7118">
        <ele>4.2</ele>
        <time>2022-05-24 23:11:06</time>
      </trkpt>
      <trkpt lat="40.74375" lon="0.71178">
        <ele>4</ele>
        <time>2022-05-24 23:11:07</time>
      </trkpt>
      <trkpt lat="40.7438" lon="0.71177">
        <ele>4</ele>
        <time>2022-05-24 23:11:08</time>
      </trkpt>
      <trkpt lat="40.74386" lon="0.71175">
        <ele>4</ele>
        <time>2022-05-24 23:11:09</time>
      </trkpt>
      <trkpt lat="40.74392" lon="0.71174">
        <ele>4.2</ele>
        <time>2022-05-24 23:11:10</time>
      </trkpt>
      <trkpt lat="40.74397" lon="0.71173">
        <ele>4</ele>
        <time>2022-05-24 23:11:11</time>
      </trkpt>
      <trkpt lat="40.74403" lon="0.71172">
        <ele>4.2</ele>
        <time>2022-05-24 23:11:12</time>
      </trkpt>
      <trkpt lat="40.74408" lon="0.7117">
        <ele>4</ele>
        <time>2022-05-24 23:11:13</time>
      </trkpt>
      <trkpt lat="40.74414" lon="0.71169">
        <ele>4</ele>
        <time>2022-05-24 23:11:14</time>
      </trkpt>
      <trkpt lat="40.74419" lon="0.71168">
        <ele>4</ele>
        <time>2022-05-24 23:11:15</time>
      </trkpt>
      <trkpt lat="40.74425" lon="0.71166">
        <ele>4</ele>
        <time>2022-05-24 23:11:16</time>
      </trkpt>
      <trkpt lat="40.7443" lon="0.71165">
        <ele>4</ele>
        <time>2022-05-24 23:11:17</time>
      </trkpt>
      <trkpt lat="40.74436" lon="0.71163">
        <ele>4</ele>
        <time>2022-05-24 23:11:18</time>
      </trkpt>
      <trkpt lat="40.74442" lon="0.71162">
        <ele>4</ele>
        <time>2022-05-24 23:11:19</time>
      </trkpt>
      <trkpt lat="40.74447" lon="0.7116">
        <ele>4</ele>
        <time>2022-05-24 23:11:20</time>
      </trkpt>
      <trkpt lat="40.74453" lon="0.71159">
        <ele>4.2</ele>
        <time>2022-05-24 23:11:21</time>
      </trkpt>
      <trkpt lat="40.74458" lon="0.71158">
        <ele>4.2</ele>
        <time>2022-05-24 23:11:22</time>
      </trkpt>
      <trkpt lat="40.74464" lon="0.71157">
        <ele>4.2</ele>
        <time>2022-05-24 23:11:23</time>
      </trkpt>
      <trkpt lat="40.74469" lon="0.71156">
        <ele>4.2</ele>
        <time>2022-05-24 23:11:24</time>
      </trkpt>
      <trkpt lat="40.74475" lon="0.71154">
        <ele>4.4</ele>
        <time>2022-05-24 23:11:25</time>
      </trkpt>
      <trkpt lat="40.7448" lon="0.71153">
        <ele>4.4</ele>
        <time>2022-05-24 23:11:26</time>
      </trkpt>
      <trkpt lat="40.74486" lon="0.71152">
        <ele>4.4</ele>
        <time>2022-05-24 23:11:27</time>
      </trkpt>
      <trkpt lat="40.74492" lon="0.7115">
        <ele>4.4</ele>
        <time>2022-05-24 23:11:28</time>
      </trkpt>
      <trkpt lat="40.74497" lon="0.71149">
        <ele>4.4</ele>
        <time>2022-05-24 23:11:29</time>
      </trkpt>
      <trkpt lat="40.74502" lon="0.71148">
        <ele>4.4</ele>
        <time>2022-05-24 23:11:30</time>
      </trkpt>
      <trkpt lat="40.74508" lon="0.71147">
        <ele>4.4</ele>
        <time>2022-05-24 23:11:31</time>
      </trkpt>
      <trkpt lat="40.74513" lon="0.71145">
        <ele>4.4</ele>
        <time>2022-05-24 23:11:32</time>
      </trkpt>
      <trkpt lat="40.74519" lon="0.71144">
        <ele>4.4</ele>
        <time>2022-05-24 23:11:33</time>
      </trkpt>
      <trkpt lat="40.74524" lon="0.71143">
        <ele>4.4</ele>
        <time>2022-05-24 23:11:34</time>
      </trkpt>
      <trkpt lat="40.7453" lon="0.71142">
        <ele>4.4</ele>
        <time>2022-05-24 23:11:35</time>
      </trkpt>
      <trkpt lat="40.74535" lon="0.71141">
        <ele>4.6</ele>
        <time>2022-05-24 23:11:36</time>
      </trkpt>
      <trkpt lat="40.74541" lon="0.71139">
        <ele>4.6</ele>
        <time>2022-05-24 23:11:37</time>
      </trkpt>
      <trkpt lat="40.74546" lon="0.71138">
        <ele>4.6</ele>
        <time>2022-05-24 23:11:38</time>
      </trkpt>
      <trkpt lat="40.74552" lon="0.71136">
        <ele>4.6</ele>
        <time>2022-05-24 23:11:39</time>
      </trkpt>
      <trkpt lat="40.74557" lon="0.71135">
        <ele>4.8</ele>
        <time>2022-05-24 23:11:40</time>
      </trkpt>
      <trkpt lat="40.74563" lon="0.71134">
        <ele>4.8</ele>
        <time>2022-05-24 23:11:41</time>
      </trkpt>
      <trkpt lat="40.74569" lon="0.71132">
        <ele>4.8</ele>
        <time>2022-05-24 23:11:42</time>
      </trkpt>
      <trkpt lat="40.74574" lon="0.71131">
        <ele>4.8</ele>
        <time>2022-05-24 23:11:43</time>
      </trkpt>
      <trkpt lat="40.7458" lon="0.7113">
        <ele>4.8</ele>
        <time>2022-05-24 23:11:44</time>
      </trkpt>
      <trkpt lat="40.74585" lon="0.71128">
        <ele>4.6</ele>
        <time>2022-05-24 23:11:45</time>
      </trkpt>
      <trkpt lat="40.74591" lon="0.71127">
        <ele>4.6</ele>
        <time>2022-05-24 23:11:46</time>
      </trkpt>
      <trkpt lat="40.74597" lon="0.71126">
        <ele>4.4</ele>
        <time>2022-05-24 23:11:47</time>
      </trkpt>
      <trkpt lat="40.74602" lon="0.71125">
        <ele>4.2</ele>
        <time>2022-05-24 23:11:48</time>
      </trkpt>
      <trkpt lat="40.74608" lon="0.71123">
        <ele>4.2</ele>
        <time>2022-05-24 23:11:49</time>
      </trkpt>
      <trkpt lat="40.74613" lon="0.71122">
        <ele>4.2</ele>
        <time>2022-05-24 23:11:50</time>
      </trkpt>
      <trkpt lat="40.74619" lon="0.71121">
        <ele>4.2</ele>
        <time>2022-05-24 23:11:51</time>
      </trkpt>
      <trkpt lat="40.74624" lon="0.71119">
        <ele>4.2</ele>
        <time>2022-05-24 23:11:52</time>
      </trkpt>
      <trkpt lat="40.7463" lon="0.71118">
        <ele>4.4</ele>
        <time>2022-05-24 23:11:53</time>
      </trkpt>
      <trkpt lat="40.74635" lon="0.71117">
        <ele>4.4</ele>
        <time>2022-05-24 23:11:54</time>
      </trkpt>
      <trkpt lat="40.74641" lon="0.71116">
        <ele>4.4</ele>
        <time>2022-05-24 23:11:55</time>
      </trkpt>
      <trkpt lat="40.74646" lon="0.71114">
        <ele>4.4</ele>
        <time>2022-05-24 23:11:56</time>
      </trkpt>
      <trkpt lat="40.74651" lon="0.71113">
        <ele>4.2</ele>
        <time>2022-05-24 23:11:57</time>
      </trkpt>
      <trkpt lat="40.74657" lon="0.71112">
        <ele>4.2</ele>
        <time>2022-05-24 23:11:58</time>
      </trkpt>
      <trkpt lat="40.74662" lon="0.71111">
        <ele>4.2</ele>
        <time>2022-05-24 23:11:59</time>
      </trkpt>
      <trkpt lat="40.74668" lon="0.71109">
        <ele>4.2</ele>
        <time>2022-05-24 23:12:00</time>
      </trkpt>
      <trkpt lat="40.74673" lon="0.71108">
        <ele>4.2</ele>
        <time>2022-05-24 23:12:01</time>
      </trkpt>
      <trkpt lat="40.74678" lon="0.71106">
        <ele>4.2</ele>
        <time>2022-05-24 23:12:02</time>
      </trkpt>
      <trkpt lat="40.74683" lon="0.71105">
        <ele>4.2</ele>
        <time>2022-05-24 23:12:03</time>
      </trkpt>
      <trkpt lat="40.74687" lon="0.71104">
        <ele>4.2</ele>
        <time>2022-05-24 23:12:04</time>
      </trkpt>
      <trkpt lat="40.74692" lon="0.71102">
        <ele>4.4</ele>
        <time>2022-05-24 23:12:05</time>
      </trkpt>
      <trkpt lat="40.74696" lon="0.711">
        <ele>4.4</ele>
        <time>2022-05-24 23:12:06</time>
      </trkpt>
      <trkpt lat="40.74702" lon="0.71099">
        <ele>4.2</ele>
        <time>2022-05-24 23:12:07</time>
      </trkpt>
      <trkpt lat="40.74707" lon="0.71097">
        <ele>4.2</ele>
        <time>2022-05-24 23:12:08</time>
      </trkpt>
      <trkpt lat="40.74713" lon="0.71096">
        <ele>4.2</ele>
        <time>2022-05-24 23:12:09</time>
      </trkpt>
      <trkpt lat="40.74718" lon="0.71094">
        <ele>4.2</ele>
        <time>2022-05-24 23:12:10</time>
      </trkpt>
      <trkpt lat="40.74723" lon="0.71093">
        <ele>4.4</ele>
        <time>2022-05-24 23:12:11</time>
      </trkpt>
      <trkpt lat="40.74729" lon="0.71091">
        <ele>4.4</ele>
        <time>2022-05-24 23:12:12</time>
      </trkpt>
      <trkpt lat="40.74734" lon="0.7109">
        <ele>4.6</ele>
        <time>2022-05-24 23:12:13</time>
      </trkpt>
      <trkpt lat="40.7474" lon="0.71088">
        <ele>4.6</ele>
        <time>2022-05-24 23:12:14</time>
      </trkpt>
      <trkpt lat="40.74745" lon="0.71086">
        <ele>4.6</ele>
        <time>2022-05-24 23:12:15</time>
      </trkpt>
      <trkpt lat="40.7475" lon="0.71083">
        <ele>4.4</ele>
        <time>2022-05-24 23:12:16</time>
      </trkpt>
      <trkpt lat="40.74755" lon="0.71081">
        <ele>4.4</ele>
        <time>2022-05-24 23:12:17</time>
      </trkpt>
      <trkpt lat="40.7476" lon="0.71078">
        <ele>4.2</ele>
        <time>2022-05-24 23:12:18</time>
      </trkpt>
      <trkpt lat="40.74765" lon="0.71075">
        <ele>4.2</ele>
        <time>2022-05-24 23:12:19</time>
      </trkpt>
      <trkpt lat="40.7477" lon="0.71071">
        <ele>4.2</ele>
        <time>2022-05-24 23:12:20</time>
      </trkpt>
      <trkpt lat="40.74775" lon="0.71068">
        <ele>4</ele>
        <time>2022-05-24 23:12:21</time>
      </trkpt>
      <trkpt lat="40.74779" lon="0.71064">
        <ele>4</ele>
        <time>2022-05-24 23:12:22</time>
      </trkpt>
      <trkpt lat="40.74784" lon="0.7106">
        <ele>4</ele>
        <time>2022-05-24 23:12:23</time>
      </trkpt>
      <trkpt lat="40.74788" lon="0.71056">
        <ele>4</ele>
        <time>2022-05-24 23:12:24</time>
      </trkpt>
      <trkpt lat="40.74793" lon="0.71052">
        <ele>3.8</ele>
        <time>2022-05-24 23:12:25</time>
      </trkpt>
      <trkpt lat="40.74797" lon="0.71048">
        <ele>3.8</ele>
        <time>2022-05-24 23:12:26</time>
      </trkpt>
      <trkpt lat="40.74802" lon="0.71044">
        <ele>3.8</ele>
        <time>2022-05-24 23:12:27</time>
      </trkpt>
      <trkpt lat="40.74807" lon="0.7104">
        <ele>3.8</ele>
        <time>2022-05-24 23:12:28</time>
      </trkpt>
      <trkpt lat="40.74811" lon="0.71036">
        <ele>3.8</ele>
        <time>2022-05-24 23:12:29</time>
      </trkpt>
      <trkpt lat="40.74815" lon="0.71031">
        <ele>3.6</ele>
        <time>2022-05-24 23:12:30</time>
      </trkpt>
      <trkpt lat="40.7482" lon="0.71027">
        <ele>3.6</ele>
        <time>2022-05-24 23:12:31</time>
      </trkpt>
      <trkpt lat="40.74824" lon="0.71023">
        <ele>3.6</ele>
        <time>2022-05-24 23:12:32</time>
      </trkpt>
      <trkpt lat="40.74829" lon="0.71019">
        <ele>3.6</ele>
        <time>2022-05-24 23:12:33</time>
      </trkpt>
      <trkpt lat="40.74833" lon="0.71015">
        <ele>3.6</ele>
        <time>2022-05-24 23:12:34</time>
      </trkpt>
      <trkpt lat="40.74838" lon="0.71011">
        <ele>3.6</ele>
        <time>2022-05-24 23:12:35</time>
      </trkpt>
      <trkpt lat="40.74842" lon="0.71007">
        <ele>3.8</ele>
        <time>2022-05-24 23:12:36</time>
      </trkpt>
      <trkpt lat="40.74846" lon="0.71003">
        <ele>3.8</ele>
        <time>2022-05-24 23:12:37</time>
      </trkpt>
      <trkpt lat="40.74851" lon="0.70999">
        <ele>3.8</ele>
        <time>2022-05-24 23:12:38</time>
      </trkpt>
      <trkpt lat="40.74855" lon="0.70996">
        <ele>3.6</ele>
        <time>2022-05-24 23:12:39</time>
      </trkpt>
      <trkpt lat="40.74859" lon="0.70992">
        <ele>3.4</ele>
        <time>2022-05-24 23:12:40</time>
      </trkpt>
      <trkpt lat="40.74863" lon="0.70988">
        <ele>3.4</ele>
        <time>2022-05-24 23:12:41</time>
      </trkpt>
      <trkpt lat="40.74868" lon="0.70984">
        <ele>3.4</ele>
        <time>2022-05-24 23:12:42</time>
      </trkpt>
      <trkpt lat="40.74872" lon="0.7098">
        <ele>3.4</ele>
        <time>2022-05-24 23:12:43</time>
      </trkpt>
      <trkpt lat="40.74876" lon="0.70976">
        <ele>3.2</ele>
        <time>2022-05-24 23:12:44</time>
      </trkpt>
      <trkpt lat="40.74881" lon="0.70972">
        <ele>3.2</ele>
        <time>2022-05-24 23:12:45</time>
      </trkpt>
      <trkpt lat="40.74886" lon="0.70968">
        <ele>3.2</ele>
        <time>2022-05-24 23:12:46</time>
      </trkpt>
      <trkpt lat="40.74891" lon="0.70963">
        <ele>3.2</ele>
        <time>2022-05-24 23:12:47</time>
      </trkpt>
      <trkpt lat="40.74895" lon="0.70959">
        <ele>3.4</ele>
        <time>2022-05-24 23:12:48</time>
      </trkpt>
      <trkpt lat="40.74899" lon="0.70955">
        <ele>3.4</ele>
        <time>2022-05-24 23:12:49</time>
      </trkpt>
      <trkpt lat="40.74903" lon="0.70951">
        <ele>3.6</ele>
        <time>2022-05-24 23:12:50</time>
      </trkpt>
      <trkpt lat="40.74908" lon="0.70947">
        <ele>3.6</ele>
        <time>2022-05-24 23:12:51</time>
      </trkpt>
      <trkpt lat="40.74913" lon="0.70943">
        <ele>3.6</ele>
        <time>2022-05-24 23:12:52</time>
      </trkpt>
      <trkpt lat="40.74916" lon="0.70939">
        <ele>3.6</ele>
        <time>2022-05-24 23:12:53</time>
      </trkpt>
      <trkpt lat="40.74921" lon="0.70935">
        <ele>3.6</ele>
        <time>2022-05-24 23:12:54</time>
      </trkpt>
      <trkpt lat="40.74924" lon="0.7093">
        <ele>3.8</ele>
        <time>2022-05-24 23:12:55</time>
      </trkpt>
      <trkpt lat="40.74928" lon="0.70926">
        <ele>3.8</ele>
        <time>2022-05-24 23:12:56</time>
      </trkpt>
      <trkpt lat="40.74932" lon="0.70922">
        <ele>3.8</ele>
        <time>2022-05-24 23:12:57</time>
      </trkpt>
      <trkpt lat="40.74936" lon="0.70918">
        <ele>3.8</ele>
        <time>2022-05-24 23:12:58</time>
      </trkpt>
      <trkpt lat="40.7494" lon="0.70913">
        <ele>3.8</ele>
        <time>2022-05-24 23:12:59</time>
      </trkpt>
      <trkpt lat="40.74944" lon="0.70909">
        <ele>3.8</ele>
        <time>2022-05-24 23:13:00</time>
      </trkpt>
      <trkpt lat="40.74947" lon="0.70904">
        <ele>3.8</ele>
        <time>2022-05-24 23:13:01</time>
      </trkpt>
      <trkpt lat="40.74951" lon="0.709">
        <ele>3.8</ele>
        <time>2022-05-24 23:13:02</time>
      </trkpt>
      <trkpt lat="40.74954" lon="0.70895">
        <ele>3.8</ele>
        <time>2022-05-24 23:13:03</time>
      </trkpt>
      <trkpt lat="40.74958" lon="0.70891">
        <ele>3.8</ele>
        <time>2022-05-24 23:13:04</time>
      </trkpt>
      <trkpt lat="40.74961" lon="0.70886">
        <ele>3.8</ele>
        <time>2022-05-24 23:13:05</time>
      </trkpt>
      <trkpt lat="40.74965" lon="0.70881">
        <ele>3.8</ele>
        <time>2022-05-24 23:13:06</time>
      </trkpt>
      <trkpt lat="40.74968" lon="0.70876">
        <ele>3.8</ele>
        <time>2022-05-24 23:13:07</time>
      </trkpt>
      <trkpt lat="40.74972" lon="0.70871">
        <ele>3.8</ele>
        <time>2022-05-24 23:13:08</time>
      </trkpt>
      <trkpt lat="40.74975" lon="0.70866">
        <ele>3.8</ele>
        <time>2022-05-24 23:13:09</time>
      </trkpt>
      <trkpt lat="40.74978" lon="0.70861">
        <ele>3.8</ele>
        <time>2022-05-24 23:13:10</time>
      </trkpt>
      <trkpt lat="40.74981" lon="0.70856">
        <ele>3.6</ele>
        <time>2022-05-24 23:13:11</time>
      </trkpt>
      <trkpt lat="40.74985" lon="0.70851">
        <ele>3.6</ele>
        <time>2022-05-24 23:13:12</time>
      </trkpt>
      <trkpt lat="40.74988" lon="0.70846">
        <ele>3.4</ele>
        <time>2022-05-24 23:13:13</time>
      </trkpt>
      <trkpt lat="40.74992" lon="0.70841">
        <ele>3.2</ele>
        <time>2022-05-24 23:13:14</time>
      </trkpt>
      <trkpt lat="40.74995" lon="0.70837">
        <ele>3</ele>
        <time>2022-05-24 23:13:15</time>
      </trkpt>
      <trkpt lat="40.74998" lon="0.70832">
        <ele>3</ele>
        <time>2022-05-24 23:13:16</time>
      </trkpt>
      <trkpt lat="40.75002" lon="0.70827">
        <ele>3.2</ele>
        <time>2022-05-24 23:13:17</time>
      </trkpt>
      <trkpt lat="40.75005" lon="0.70823">
        <ele>3.2</ele>
        <time>2022-05-24 23:13:18</time>
      </trkpt>
      <trkpt lat="40.75008" lon="0.70818">
        <ele>3</ele>
        <time>2022-05-24 23:13:19</time>
      </trkpt>
      <trkpt lat="40.75011" lon="0.70813">
        <ele>3</ele>
        <time>2022-05-24 23:13:20</time>
      </trkpt>
      <trkpt lat="40.75014" lon="0.70808">
        <ele>3</ele>
        <time>2022-05-24 23:13:21</time>
      </trkpt>
      <trkpt lat="40.75017" lon="0.70804">
        <ele>3</ele>
        <time>2022-05-24 23:13:22</time>
      </trkpt>
      <trkpt lat="40.7502" lon="0.70799">
        <ele>3.2</ele>
        <time>2022-05-24 23:13:23</time>
      </trkpt>
      <trkpt lat="40.75023" lon="0.70794">
        <ele>3.2</ele>
        <time>2022-05-24 23:13:24</time>
      </trkpt>
      <trkpt lat="40.75025" lon="0.70788">
        <ele>3.2</ele>
        <time>2022-05-24 23:13:25</time>
      </trkpt>
      <trkpt lat="40.75027" lon="0.70783">
        <ele>3.2</ele>
        <time>2022-05-24 23:13:26</time>
      </trkpt>
      <trkpt lat="40.7503" lon="0.70777">
        <ele>3.2</ele>
        <time>2022-05-24 23:13:27</time>
      </trkpt>
      <trkpt lat="40.75032" lon="0.70772">
        <ele>3.2</ele>
        <time>2022-05-24 23:13:28</time>
      </trkpt>
      <trkpt lat="40.75035" lon="0.70767">
        <ele>3.2</ele>
        <time>2022-05-24 23:13:29</time>
      </trkpt>
      <trkpt lat="40.75037" lon="0.70762">
        <ele>3</ele>
        <time>2022-05-24 23:13:30</time>
      </trkpt>
      <trkpt lat="40.7504" lon="0.70756">
        <ele>3.2</ele>
        <time>2022-05-24 23:13:31</time>
      </trkpt>
      <trkpt lat="40.75042" lon="0.70751">
        <ele>3.2</ele>
        <time>2022-05-24 23:13:32</time>
      </trkpt>
      <trkpt lat="40.75045" lon="0.70745">
        <ele>3.2</ele>
        <time>2022-05-24 23:13:33</time>
      </trkpt>
      <trkpt lat="40.75047" lon="0.7074">
        <ele>3.4</ele>
        <time>2022-05-24 23:13:34</time>
      </trkpt>
      <trkpt lat="40.7505" lon="0.70734">
        <ele>3.4</ele>
        <time>2022-05-24 23:13:35</time>
      </trkpt>
      <trkpt lat="40.75052" lon="0.70729">
        <ele>3.4</ele>
        <time>2022-05-24 23:13:36</time>
      </trkpt>
      <trkpt lat="40.75054" lon="0.70723">
        <ele>3.4</ele>
        <time>2022-05-24 23:13:37</time>
      </trkpt>
      <trkpt lat="40.75056" lon="0.70718">
        <ele>3.6</ele>
        <time>2022-05-24 23:13:38</time>
      </trkpt>
      <trkpt lat="40.75059" lon="0.70712">
        <ele>3.6</ele>
        <time>2022-05-24 23:13:39</time>
      </trkpt>
      <trkpt lat="40.75061" lon="0.70707">
        <ele>3.6</ele>
        <time>2022-05-24 23:13:40</time>
      </trkpt>
      <trkpt lat="40.75063" lon="0.70701">
        <ele>3.4</ele>
        <time>2022-05-24 23:13:41</time>
      </trkpt>
      <trkpt lat="40.75066" lon="0.70696">
        <ele>3.4</ele>
        <time>2022-05-24 23:13:42</time>
      </trkpt>
      <trkpt lat="40.75068" lon="0.70691">
        <ele>3.2</ele>
        <time>2022-05-24 23:13:43</time>
      </trkpt>
      <trkpt lat="40.7507" lon="0.70685">
        <ele>3.4</ele>
        <time>2022-05-24 23:13:44</time>
      </trkpt>
      <trkpt lat="40.75072" lon="0.7068">
        <ele>3.4</ele>
        <time>2022-05-24 23:13:45</time>
      </trkpt>
      <trkpt lat="40.75075" lon="0.70674">
        <ele>3.4</ele>
        <time>2022-05-24 23:13:46</time>
      </trkpt>
      <trkpt lat="40.75077" lon="0.70669">
        <ele>3.4</ele>
        <time>2022-05-24 23:13:47</time>
      </trkpt>
      <trkpt lat="40.75079" lon="0.70663">
        <ele>3.6</ele>
        <time>2022-05-24 23:13:48</time>
      </trkpt>
      <trkpt lat="40.75082" lon="0.70658">
        <ele>3.6</ele>
        <time>2022-05-24 23:13:49</time>
      </trkpt>
      <trkpt lat="40.75084" lon="0.70653">
        <ele>3.6</ele>
        <time>2022-05-24 23:13:50</time>
      </trkpt>
      <trkpt lat="40.75087" lon="0.70648">
        <ele>3.6</ele>
        <time>2022-05-24 23:13:51</time>
      </trkpt>
      <trkpt lat="40.75089" lon="0.70642">
        <ele>3.6</ele>
        <time>2022-05-24 23:13:52</time>
      </trkpt>
      <trkpt lat="40.75092" lon="0.70637">
        <ele>3.6</ele>
        <time>2022-05-24 23:13:53</time>
      </trkpt>
      <trkpt lat="40.75094" lon="0.70631">
        <ele>3.6</ele>
        <time>2022-05-24 23:13:54</time>
      </trkpt>
      <trkpt lat="40.75097" lon="0.70626">
        <ele>3.6</ele>
        <time>2022-05-24 23:13:55</time>
      </trkpt>
      <trkpt lat="40.75099" lon="0.70621">
        <ele>3.4</ele>
        <time>2022-05-24 23:13:56</time>
      </trkpt>
      <trkpt lat="40.75102" lon="0.70615">
        <ele>3.4</ele>
        <time>2022-05-24 23:13:57</time>
      </trkpt>
      <trkpt lat="40.75105" lon="0.7061">
        <ele>3.4</ele>
        <time>2022-05-24 23:13:58</time>
      </trkpt>
      <trkpt lat="40.75107" lon="0.70604">
        <ele>3.4</ele>
        <time>2022-05-24 23:13:59</time>
      </trkpt>
      <trkpt lat="40.7511" lon="0.70599">
        <ele>3.4</ele>
        <time>2022-05-24 23:14:00</time>
      </trkpt>
      <trkpt lat="40.75113" lon="0.70593">
        <ele>3.4</ele>
        <time>2022-05-24 23:14:01</time>
      </trkpt>
      <trkpt lat="40.75116" lon="0.70588">
        <ele>3.4</ele>
        <time>2022-05-24 23:14:02</time>
      </trkpt>
      <trkpt lat="40.75119" lon="0.70583">
        <ele>3.4</ele>
        <time>2022-05-24 23:14:03</time>
      </trkpt>
      <trkpt lat="40.75122" lon="0.70579">
        <ele>3.4</ele>
        <time>2022-05-24 23:14:04</time>
      </trkpt>
      <trkpt lat="40.75126" lon="0.70574">
        <ele>3.4</ele>
        <time>2022-05-24 23:14:05</time>
      </trkpt>
      <trkpt lat="40.75129" lon="0.7057">
        <ele>3.4</ele>
        <time>2022-05-24 23:14:06</time>
      </trkpt>
      <trkpt lat="40.75133" lon="0.70565">
        <ele>3.4</ele>
        <time>2022-05-24 23:14:07</time>
      </trkpt>
      <trkpt lat="40.75136" lon="0.70561">
        <ele>3.4</ele>
        <time>2022-05-24 23:14:08</time>
      </trkpt>
      <trkpt lat="40.7514" lon="0.70556">
        <ele>3.6</ele>
        <time>2022-05-24 23:14:09</time>
      </trkpt>
      <trkpt lat="40.75144" lon="0.70552">
        <ele>3.6</ele>
        <time>2022-05-24 23:14:10</time>
      </trkpt>
      <trkpt lat="40.75148" lon="0.70548">
        <ele>3.6</ele>
        <time>2022-05-24 23:14:11</time>
      </trkpt>
      <trkpt lat="40.75152" lon="0.70545">
        <ele>3.6</ele>
        <time>2022-05-24 23:14:12</time>
      </trkpt>
      <trkpt lat="40.75156" lon="0.70541">
        <ele>3.6</ele>
        <time>2022-05-24 23:14:13</time>
      </trkpt>
      <trkpt lat="40.7516" lon="0.70537">
        <ele>3.6</ele>
        <time>2022-05-24 23:14:14</time>
      </trkpt>
      <trkpt lat="40.75164" lon="0.70533">
        <ele>3.6</ele>
        <time>2022-05-24 23:14:15</time>
      </trkpt>
      <trkpt lat="40.75168" lon="0.7053">
        <ele>3.8</ele>
        <time>2022-05-24 23:14:16</time>
      </trkpt>
      <trkpt lat="40.75173" lon="0.70527">
        <ele>3.8</ele>
        <time>2022-05-24 23:14:17</time>
      </trkpt>
      <trkpt lat="40.75177" lon="0.70524">
        <ele>3.8</ele>
        <time>2022-05-24 23:14:18</time>
      </trkpt>
      <trkpt lat="40.75182" lon="0.70521">
        <ele>3.8</ele>
        <time>2022-05-24 23:14:19</time>
      </trkpt>
      <trkpt lat="40.75186" lon="0.70518">
        <ele>3.6</ele>
        <time>2022-05-24 23:14:20</time>
      </trkpt>
      <trkpt lat="40.75191" lon="0.70516">
        <ele>3.6</ele>
        <time>2022-05-24 23:14:21</time>
      </trkpt>
      <trkpt lat="40.75195" lon="0.70514">
        <ele>3.6</ele>
        <time>2022-05-24 23:14:22</time>
      </trkpt>
      <trkpt lat="40.752" lon="0.70511">
        <ele>3.6</ele>
        <time>2022-05-24 23:14:23</time>
      </trkpt>
      <trkpt lat="40.75204" lon="0.70509">
        <ele>3.6</ele>
        <time>2022-05-24 23:14:24</time>
      </trkpt>
      <trkpt lat="40.75209" lon="0.70507">
        <ele>3.6</ele>
        <time>2022-05-24 23:14:25</time>
      </trkpt>
      <trkpt lat="40.75213" lon="0.70504">
        <ele>3.6</ele>
        <time>2022-05-24 23:14:26</time>
      </trkpt>
      <trkpt lat="40.75217" lon="0.70502">
        <ele>3.8</ele>
        <time>2022-05-24 23:14:27</time>
      </trkpt>
      <trkpt lat="40.75222" lon="0.705">
        <ele>4</ele>
        <time>2022-05-24 23:14:28</time>
      </trkpt>
      <trkpt lat="40.75227" lon="0.70497">
        <ele>4.2</ele>
        <time>2022-05-24 23:14:29</time>
      </trkpt>
      <trkpt lat="40.75231" lon="0.70495">
        <ele>4.2</ele>
        <time>2022-05-24 23:14:30</time>
      </trkpt>
      <trkpt lat="40.75236" lon="0.70493">
        <ele>4.2</ele>
        <time>2022-05-24 23:14:31</time>
      </trkpt>
      <trkpt lat="40.7524" lon="0.7049">
        <ele>4.4</ele>
        <time>2022-05-24 23:14:32</time>
      </trkpt>
      <trkpt lat="40.75245" lon="0.70488">
        <ele>4.2</ele>
        <time>2022-05-24 23:14:33</time>
      </trkpt>
      <trkpt lat="40.7525" lon="0.70486">
        <ele>4.2</ele>
        <time>2022-05-24 23:14:34</time>
      </trkpt>
      <trkpt lat="40.75255" lon="0.70483">
        <ele>4.2</ele>
        <time>2022-05-24 23:14:35</time>
      </trkpt>
      <trkpt lat="40.75259" lon="0.70481">
        <ele>4.2</ele>
        <time>2022-05-24 23:14:36</time>
      </trkpt>
      <trkpt lat="40.75264" lon="0.70479">
        <ele>4</ele>
        <time>2022-05-24 23:14:37</time>
      </trkpt>
      <trkpt lat="40.75269" lon="0.70477">
        <ele>4</ele>
        <time>2022-05-24 23:14:38</time>
      </trkpt>
      <trkpt lat="40.75273" lon="0.70474">
        <ele>4.2</ele>
        <time>2022-05-24 23:14:39</time>
      </trkpt>
      <trkpt lat="40.75278" lon="0.70472">
        <ele>4.2</ele>
        <time>2022-05-24 23:14:40</time>
      </trkpt>
      <trkpt lat="40.75283" lon="0.7047">
        <ele>4.2</ele>
        <time>2022-05-24 23:14:41</time>
      </trkpt>
      <trkpt lat="40.75287" lon="0.70467">
        <ele>4.4</ele>
        <time>2022-05-24 23:14:42</time>
      </trkpt>
      <trkpt lat="40.75292" lon="0.70465">
        <ele>4.4</ele>
        <time>2022-05-24 23:14:43</time>
      </trkpt>
      <trkpt lat="40.75297" lon="0.70463">
        <ele>4.2</ele>
        <time>2022-05-24 23:14:44</time>
      </trkpt>
      <trkpt lat="40.75302" lon="0.70461">
        <ele>4.2</ele>
        <time>2022-05-24 23:14:45</time>
      </trkpt>
      <trkpt lat="40.75306" lon="0.70459">
        <ele>4.4</ele>
        <time>2022-05-24 23:14:46</time>
      </trkpt>
      <trkpt lat="40.75311" lon="0.70456">
        <ele>4.4</ele>
        <time>2022-05-24 23:14:47</time>
      </trkpt>
      <trkpt lat="40.75316" lon="0.70454">
        <ele>4.4</ele>
        <time>2022-05-24 23:14:48</time>
      </trkpt>
      <trkpt lat="40.7532" lon="0.70452">
        <ele>4.4</ele>
        <time>2022-05-24 23:14:49</time>
      </trkpt>
      <trkpt lat="40.75325" lon="0.70449">
        <ele>4.4</ele>
        <time>2022-05-24 23:14:50</time>
      </trkpt>
      <trkpt lat="40.7533" lon="0.70447">
        <ele>4.2</ele>
        <time>2022-05-24 23:14:51</time>
      </trkpt>
      <trkpt lat="40.75335" lon="0.70445">
        <ele>4.2</ele>
        <time>2022-05-24 23:14:52</time>
      </trkpt>
      <trkpt lat="40.75339" lon="0.70442">
        <ele>4.2</ele>
        <time>2022-05-24 23:14:53</time>
      </trkpt>
      <trkpt lat="40.75344" lon="0.7044">
        <ele>4.2</ele>
        <time>2022-05-24 23:14:54</time>
      </trkpt>
      <trkpt lat="40.75348" lon="0.70437">
        <ele>4.2</ele>
        <time>2022-05-24 23:14:55</time>
      </trkpt>
      <trkpt lat="40.75353" lon="0.70435">
        <ele>4.2</ele>
        <time>2022-05-24 23:14:56</time>
      </trkpt>
      <trkpt lat="40.75357" lon="0.70432">
        <ele>4.2</ele>
        <time>2022-05-24 23:14:57</time>
      </trkpt>
      <trkpt lat="40.75362" lon="0.70429">
        <ele>4</ele>
        <time>2022-05-24 23:14:58</time>
      </trkpt>
      <trkpt lat="40.75366" lon="0.70426">
        <ele>4</ele>
        <time>2022-05-24 23:14:59</time>
      </trkpt>
      <trkpt lat="40.7537" lon="0.70423">
        <ele>4</ele>
        <time>2022-05-24 23:15:00</time>
      </trkpt>
      <trkpt lat="40.75374" lon="0.70419">
        <ele>3.8</ele>
        <time>2022-05-24 23:15:01</time>
      </trkpt>
      <trkpt lat="40.75378" lon="0.70416">
        <ele>3.8</ele>
        <time>2022-05-24 23:15:02</time>
      </trkpt>
      <trkpt lat="40.75383" lon="0.70412">
        <ele>3.8</ele>
        <time>2022-05-24 23:15:03</time>
      </trkpt>
      <trkpt lat="40.75387" lon="0.70409">
        <ele>3.6</ele>
        <time>2022-05-24 23:15:04</time>
      </trkpt>
      <trkpt lat="40.75391" lon="0.70405">
        <ele>3.6</ele>
        <time>2022-05-24 23:15:05</time>
      </trkpt>
      <trkpt lat="40.75395" lon="0.70401">
        <ele>3.6</ele>
        <time>2022-05-24 23:15:06</time>
      </trkpt>
      <trkpt lat="40.75399" lon="0.70398">
        <ele>3.8</ele>
        <time>2022-05-24 23:15:07</time>
      </trkpt>
      <trkpt lat="40.75402" lon="0.70394">
        <ele>3.8</ele>
        <time>2022-05-24 23:15:08</time>
      </trkpt>
      <trkpt lat="40.75406" lon="0.70391">
        <ele>3.6</ele>
        <time>2022-05-24 23:15:09</time>
      </trkpt>
      <trkpt lat="40.7541" lon="0.70388">
        <ele>3.6</ele>
        <time>2022-05-24 23:15:10</time>
      </trkpt>
      <trkpt lat="40.75414" lon="0.70384">
        <ele>3.6</ele>
        <time>2022-05-24 23:15:11</time>
      </trkpt>
      <trkpt lat="40.75417" lon="0.70381">
        <ele>3.8</ele>
        <time>2022-05-24 23:15:12</time>
      </trkpt>
      <trkpt lat="40.75421" lon="0.70378">
        <ele>4</ele>
        <time>2022-05-24 23:15:13</time>
      </trkpt>
      <trkpt lat="40.75424" lon="0.70375">
        <ele>4.2</ele>
        <time>2022-05-24 23:15:14</time>
      </trkpt>
      <trkpt lat="40.75426" lon="0.70372">
        <ele>4.4</ele>
        <time>2022-05-24 23:15:15</time>
      </trkpt>
      <trkpt lat="40.75429" lon="0.70369">
        <ele>4.8</ele>
        <time>2022-05-24 23:15:16</time>
      </trkpt>
      <trkpt lat="40.7543" lon="0.70367">
        <ele>5.2</ele>
        <time>2022-05-24 23:15:17</time>
      </trkpt>
      <trkpt lat="40.75431" lon="0.70365">
        <ele>5.6</ele>
        <time>2022-05-24 23:15:18</time>
      </trkpt>
      <trkpt lat="40.7543" lon="0.70364">
        <ele>5.8</ele>
        <time>2022-05-24 23:15:19</time>
      </trkpt>
      <trkpt lat="40.75428" lon="0.70364">
        <ele>6</ele>
        <time>2022-05-24 23:15:20</time>
      </trkpt>
      <trkpt lat="40.75427" lon="0.70366">
        <ele>6.2</ele>
        <time>2022-05-24 23:15:21</time>
      </trkpt>
      <trkpt lat="40.75426" lon="0.70369">
        <ele>6.2</ele>
        <time>2022-05-24 23:15:22</time>
      </trkpt>
      <trkpt lat="40.75427" lon="0.70372">
        <ele>6.2</ele>
        <time>2022-05-24 23:15:23</time>
      </trkpt>
      <trkpt lat="40.75428" lon="0.70375">
        <ele>6.2</ele>
        <time>2022-05-24 23:15:24</time>
      </trkpt>
      <trkpt lat="40.75429" lon="0.70377">
        <ele>6.2</ele>
        <time>2022-05-24 23:15:25</time>
      </trkpt>
      <trkpt lat="40.75431" lon="0.7038">
        <ele>6.2</ele>
        <time>2022-05-24 23:15:26</time>
      </trkpt>
      <trkpt lat="40.75433" lon="0.70383">
        <ele>6</ele>
        <time>2022-05-24 23:15:27</time>
      </trkpt>
      <trkpt lat="40.75436" lon="0.70386">
        <ele>5.8</ele>
        <time>2022-05-24 23:15:28</time>
      </trkpt>
      <trkpt lat="40.75439" lon="0.7039">
        <ele>5.8</ele>
        <time>2022-05-24 23:15:29</time>
      </trkpt>
      <trkpt lat="40.75442" lon="0.70394">
        <ele>5.6</ele>
        <time>2022-05-24 23:15:30</time>
      </trkpt>
      <trkpt lat="40.75445" lon="0.704">
        <ele>5.6</ele>
        <time>2022-05-24 23:15:31</time>
      </trkpt>
      <trkpt lat="40.75448" lon="0.70405">
        <ele>5.4</ele>
        <time>2022-05-24 23:15:32</time>
      </trkpt>
      <trkpt lat="40.75451" lon="0.7041">
        <ele>5.4</ele>
        <time>2022-05-24 23:15:33</time>
      </trkpt>
      <trkpt lat="40.75454" lon="0.70416">
        <ele>5.4</ele>
        <time>2022-05-24 23:15:34</time>
      </trkpt>
      <trkpt lat="40.75457" lon="0.70422">
        <ele>5.4</ele>
        <time>2022-05-24 23:15:35</time>
      </trkpt>
      <trkpt lat="40.75459" lon="0.70427">
        <ele>5.4</ele>
        <time>2022-05-24 23:15:36</time>
      </trkpt>
      <trkpt lat="40.75462" lon="0.70433">
        <ele>5.4</ele>
        <time>2022-05-24 23:15:37</time>
      </trkpt>
      <trkpt lat="40.75465" lon="0.70439">
        <ele>5.4</ele>
        <time>2022-05-24 23:15:38</time>
      </trkpt>
      <trkpt lat="40.75468" lon="0.70445">
        <ele>5.4</ele>
        <time>2022-05-24 23:15:39</time>
      </trkpt>
      <trkpt lat="40.75471" lon="0.70451">
        <ele>5.4</ele>
        <time>2022-05-24 23:15:40</time>
      </trkpt>
      <trkpt lat="40.75474" lon="0.70458">
        <ele>5.4</ele>
        <time>2022-05-24 23:15:41</time>
      </trkpt>
      <trkpt lat="40.75477" lon="0.70464">
        <ele>5.4</ele>
        <time>2022-05-24 23:15:42</time>
      </trkpt>
      <trkpt lat="40.75481" lon="0.70471">
        <ele>5.2</ele>
        <time>2022-05-24 23:15:43</time>
      </trkpt>
      <trkpt lat="40.75484" lon="0.70477">
        <ele>5.2</ele>
        <time>2022-05-24 23:15:44</time>
      </trkpt>
      <trkpt lat="40.75488" lon="0.70483">
        <ele>5.2</ele>
        <time>2022-05-24 23:15:45</time>
      </trkpt>
      <trkpt lat="40.75491" lon="0.70489">
        <ele>5.2</ele>
        <time>2022-05-24 23:15:46</time>
      </trkpt>
      <trkpt lat="40.75494" lon="0.70496">
        <ele>5.2</ele>
        <time>2022-05-24 23:15:47</time>
      </trkpt>
      <trkpt lat="40.75498" lon="0.70502">
        <ele>5.2</ele>
        <time>2022-05-24 23:15:48</time>
      </trkpt>
      <trkpt lat="40.75501" lon="0.70508">
        <ele>5.4</ele>
        <time>2022-05-24 23:15:49</time>
      </trkpt>
      <trkpt lat="40.75504" lon="0.70515">
        <ele>5.4</ele>
        <time>2022-05-24 23:15:50</time>
      </trkpt>
      <trkpt lat="40.75507" lon="0.70521">
        <ele>5.4</ele>
        <time>2022-05-24 23:15:51</time>
      </trkpt>
      <trkpt lat="40.75511" lon="0.70528">
        <ele>5.2</ele>
        <time>2022-05-24 23:15:52</time>
      </trkpt>
      <trkpt lat="40.75514" lon="0.70535">
        <ele>5.2</ele>
        <time>2022-05-24 23:15:53</time>
      </trkpt>
      <trkpt lat="40.75517" lon="0.70542">
        <ele>5.2</ele>
        <time>2022-05-24 23:15:54</time>
      </trkpt>
      <trkpt lat="40.75521" lon="0.70548">
        <ele>5.2</ele>
        <time>2022-05-24 23:15:55</time>
      </trkpt>
      <trkpt lat="40.75525" lon="0.70555">
        <ele>5.2</ele>
        <time>2022-05-24 23:15:56</time>
      </trkpt>
      <trkpt lat="40.75528" lon="0.70561">
        <ele>5.2</ele>
        <time>2022-05-24 23:15:57</time>
      </trkpt>
      <trkpt lat="40.75531" lon="0.70568">
        <ele>5.2</ele>
        <time>2022-05-24 23:15:58</time>
      </trkpt>
      <trkpt lat="40.75535" lon="0.70575">
        <ele>5.2</ele>
        <time>2022-05-24 23:15:59</time>
      </trkpt>
      <trkpt lat="40.75539" lon="0.70581">
        <ele>5.2</ele>
        <time>2022-05-24 23:16:00</time>
      </trkpt>
      <trkpt lat="40.75542" lon="0.70587">
        <ele>5.2</ele>
        <time>2022-05-24 23:16:01</time>
      </trkpt>
      <trkpt lat="40.75545" lon="0.70594">
        <ele>5.2</ele>
        <time>2022-05-24 23:16:02</time>
      </trkpt>
      <trkpt lat="40.75548" lon="0.70599">
        <ele>5.2</ele>
        <time>2022-05-24 23:16:03</time>
      </trkpt>
      <trkpt lat="40.75551" lon="0.70605">
        <ele>5.2</ele>
        <time>2022-05-24 23:16:04</time>
      </trkpt>
      <trkpt lat="40.75554" lon="0.70611">
        <ele>5.2</ele>
        <time>2022-05-24 23:16:05</time>
      </trkpt>
      <trkpt lat="40.75557" lon="0.70617">
        <ele>5.2</ele>
        <time>2022-05-24 23:16:06</time>
      </trkpt>
      <trkpt lat="40.7556" lon="0.70623">
        <ele>5.2</ele>
        <time>2022-05-24 23:16:07</time>
      </trkpt>
      <trkpt lat="40.75563" lon="0.70628">
        <ele>5</ele>
        <time>2022-05-24 23:16:08</time>
      </trkpt>
      <trkpt lat="40.75567" lon="0.70634">
        <ele>5</ele>
        <time>2022-05-24 23:16:09</time>
      </trkpt>
      <trkpt lat="40.7557" lon="0.7064">
        <ele>5</ele>
        <time>2022-05-24 23:16:10</time>
      </trkpt>
      <trkpt lat="40.75574" lon="0.70647">
        <ele>5</ele>
        <time>2022-05-24 23:16:11</time>
      </trkpt>
      <trkpt lat="40.75578" lon="0.70654">
        <ele>5</ele>
        <time>2022-05-24 23:16:12</time>
      </trkpt>
      <trkpt lat="40.75581" lon="0.7066">
        <ele>5</ele>
        <time>2022-05-24 23:16:13</time>
      </trkpt>
      <trkpt lat="40.75584" lon="0.70667">
        <ele>4.8</ele>
        <time>2022-05-24 23:16:14</time>
      </trkpt>
      <trkpt lat="40.75587" lon="0.70673">
        <ele>4.8</ele>
        <time>2022-05-24 23:16:15</time>
      </trkpt>
      <trkpt lat="40.75591" lon="0.7068">
        <ele>4.8</ele>
        <time>2022-05-24 23:16:16</time>
      </trkpt>
      <trkpt lat="40.75594" lon="0.70686">
        <ele>4.8</ele>
        <time>2022-05-24 23:16:17</time>
      </trkpt>
      <trkpt lat="40.75598" lon="0.70693">
        <ele>4.8</ele>
        <time>2022-05-24 23:16:18</time>
      </trkpt>
      <trkpt lat="40.75601" lon="0.707">
        <ele>4.8</ele>
        <time>2022-05-24 23:16:19</time>
      </trkpt>
      <trkpt lat="40.75605" lon="0.70707">
        <ele>5</ele>
        <time>2022-05-24 23:16:20</time>
      </trkpt>
      <trkpt lat="40.75608" lon="0.70713">
        <ele>5</ele>
        <time>2022-05-24 23:16:21</time>
      </trkpt>
      <trkpt lat="40.75612" lon="0.7072">
        <ele>5</ele>
        <time>2022-05-24 23:16:22</time>
      </trkpt>
      <trkpt lat="40.75615" lon="0.70726">
        <ele>5.2</ele>
        <time>2022-05-24 23:16:23</time>
      </trkpt>
      <trkpt lat="40.75618" lon="0.70733">
        <ele>5</ele>
        <time>2022-05-24 23:16:24</time>
      </trkpt>
      <trkpt lat="40.75621" lon="0.70739">
        <ele>5</ele>
        <time>2022-05-24 23:16:25</time>
      </trkpt>
      <trkpt lat="40.75625" lon="0.70746">
        <ele>5.2</ele>
        <time>2022-05-24 23:16:26</time>
      </trkpt>
      <trkpt lat="40.75628" lon="0.70752">
        <ele>5.2</ele>
        <time>2022-05-24 23:16:27</time>
      </trkpt>
      <trkpt lat="40.75631" lon="0.70759">
        <ele>5.2</ele>
        <time>2022-05-24 23:16:28</time>
      </trkpt>
      <trkpt lat="40.75635" lon="0.70765">
        <ele>5.2</ele>
        <time>2022-05-24 23:16:29</time>
      </trkpt>
      <trkpt lat="40.75638" lon="0.70772">
        <ele>5.4</ele>
        <time>2022-05-24 23:16:30</time>
      </trkpt>
      <trkpt lat="40.75641" lon="0.70778">
        <ele>5.2</ele>
        <time>2022-05-24 23:16:31</time>
      </trkpt>
      <trkpt lat="40.75644" lon="0.70785">
        <ele>5.2</ele>
        <time>2022-05-24 23:16:32</time>
      </trkpt>
      <trkpt lat="40.75648" lon="0.70791">
        <ele>5.2</ele>
        <time>2022-05-24 23:16:33</time>
      </trkpt>
      <trkpt lat="40.75651" lon="0.70798">
        <ele>5.2</ele>
        <time>2022-05-24 23:16:34</time>
      </trkpt>
      <trkpt lat="40.75654" lon="0.70805">
        <ele>5.2</ele>
        <time>2022-05-24 23:16:35</time>
      </trkpt>
      <trkpt lat="40.75658" lon="0.70811">
        <ele>5.2</ele>
        <time>2022-05-24 23:16:36</time>
      </trkpt>
      <trkpt lat="40.75661" lon="0.70818">
        <ele>5.2</ele>
        <time>2022-05-24 23:16:37</time>
      </trkpt>
      <trkpt lat="40.75665" lon="0.70824">
        <ele>5</ele>
        <time>2022-05-24 23:16:38</time>
      </trkpt>
      <trkpt lat="40.75668" lon="0.70831">
        <ele>5</ele>
        <time>2022-05-24 23:16:39</time>
      </trkpt>
      <trkpt lat="40.75672" lon="0.70837">
        <ele>5.2</ele>
        <time>2022-05-24 23:16:40</time>
      </trkpt>
      <trkpt lat="40.75675" lon="0.70843">
        <ele>5.2</ele>
        <time>2022-05-24 23:16:41</time>
      </trkpt>
      <trkpt lat="40.75678" lon="0.7085">
        <ele>5.2</ele>
        <time>2022-05-24 23:16:42</time>
      </trkpt>
      <trkpt lat="40.75682" lon="0.70856">
        <ele>5.2</ele>
        <time>2022-05-24 23:16:43</time>
      </trkpt>
      <trkpt lat="40.75685" lon="0.70863">
        <ele>5.2</ele>
        <time>2022-05-24 23:16:44</time>
      </trkpt>
      <trkpt lat="40.75689" lon="0.70869">
        <ele>5.2</ele>
        <time>2022-05-24 23:16:45</time>
      </trkpt>
      <trkpt lat="40.75692" lon="0.70876">
        <ele>5.2</ele>
        <time>2022-05-24 23:16:46</time>
      </trkpt>
      <trkpt lat="40.75695" lon="0.70882">
        <ele>5.2</ele>
        <time>2022-05-24 23:16:47</time>
      </trkpt>
      <trkpt lat="40.75698" lon="0.70889">
        <ele>5.2</ele>
        <time>2022-05-24 23:16:48</time>
      </trkpt>
      <trkpt lat="40.75702" lon="0.70895">
        <ele>5.2</ele>
        <time>2022-05-24 23:16:49</time>
      </trkpt>
      <trkpt lat="40.75705" lon="0.70901">
        <ele>5.2</ele>
        <time>2022-05-24 23:16:50</time>
      </trkpt>
      <trkpt lat="40.75709" lon="0.70908">
        <ele>5.2</ele>
        <time>2022-05-24 23:16:51</time>
      </trkpt>
      <trkpt lat="40.75712" lon="0.70914">
        <ele>5.2</ele>
        <time>2022-05-24 23:16:52</time>
      </trkpt>
      <trkpt lat="40.75716" lon="0.7092">
        <ele>5.2</ele>
        <time>2022-05-24 23:16:53</time>
      </trkpt>
      <trkpt lat="40.75719" lon="0.70926">
        <ele>5.4</ele>
        <time>2022-05-24 23:16:54</time>
      </trkpt>
      <trkpt lat="40.75721" lon="0.70932">
        <ele>5.4</ele>
        <time>2022-05-24 23:16:55</time>
      </trkpt>
      <trkpt lat="40.75724" lon="0.70938">
        <ele>5.6</ele>
        <time>2022-05-24 23:16:56</time>
      </trkpt>
      <trkpt lat="40.75727" lon="0.70945">
        <ele>5.6</ele>
        <time>2022-05-24 23:16:57</time>
      </trkpt>
      <trkpt lat="40.75731" lon="0.70951">
        <ele>5.6</ele>
        <time>2022-05-24 23:16:58</time>
      </trkpt>
      <trkpt lat="40.75734" lon="0.70958">
        <ele>5.6</ele>
        <time>2022-05-24 23:16:59</time>
      </trkpt>
      <trkpt lat="40.75737" lon="0.70964">
        <ele>5.8</ele>
        <time>2022-05-24 23:17:00</time>
      </trkpt>
      <trkpt lat="40.7574" lon="0.70971">
        <ele>5.8</ele>
        <time>2022-05-24 23:17:01</time>
      </trkpt>
      <trkpt lat="40.75743" lon="0.70977">
        <ele>5.8</ele>
        <time>2022-05-24 23:17:02</time>
      </trkpt>
      <trkpt lat="40.75747" lon="0.70984">
        <ele>6</ele>
        <time>2022-05-24 23:17:03</time>
      </trkpt>
      <trkpt lat="40.7575" lon="0.70991">
        <ele>6</ele>
        <time>2022-05-24 23:17:04</time>
      </trkpt>
      <trkpt lat="40.75753" lon="0.70997">
        <ele>6</ele>
        <time>2022-05-24 23:17:05</time>
      </trkpt>
      <trkpt lat="40.75756" lon="0.71004">
        <ele>5.8</ele>
        <time>2022-05-24 23:17:06</time>
      </trkpt>
      <trkpt lat="40.7576" lon="0.7101">
        <ele>5.8</ele>
        <time>2022-05-24 23:17:07</time>
      </trkpt>
      <trkpt lat="40.75763" lon="0.71017">
        <ele>5.8</ele>
        <time>2022-05-24 23:17:08</time>
      </trkpt>
      <trkpt lat="40.75767" lon="0.71023">
        <ele>5.6</ele>
        <time>2022-05-24 23:17:09</time>
      </trkpt>
      <trkpt lat="40.7577" lon="0.71029">
        <ele>5.6</ele>
        <time>2022-05-24 23:17:10</time>
      </trkpt>
      <trkpt lat="40.75774" lon="0.71035">
        <ele>5.6</ele>
        <time>2022-05-24 23:17:11</time>
      </trkpt>
      <trkpt lat="40.75777" lon="0.71041">
        <ele>5.6</ele>
        <time>2022-05-24 23:17:12</time>
      </trkpt>
      <trkpt lat="40.75781" lon="0.71047">
        <ele>5.4</ele>
        <time>2022-05-24 23:17:13</time>
      </trkpt>
      <trkpt lat="40.75785" lon="0.71054">
        <ele>5.4</ele>
        <time>2022-05-24 23:17:14</time>
      </trkpt>
      <trkpt lat="40.75788" lon="0.7106">
        <ele>5.4</ele>
        <time>2022-05-24 23:17:15</time>
      </trkpt>
      <trkpt lat="40.7579" lon="0.71066">
        <ele>5.4</ele>
        <time>2022-05-24 23:17:16</time>
      </trkpt>
      <trkpt lat="40.75793" lon="0.71072">
        <ele>5.4</ele>
        <time>2022-05-24 23:17:17</time>
      </trkpt>
      <trkpt lat="40.75796" lon="0.71078">
        <ele>5.4</ele>
        <time>2022-05-24 23:17:18</time>
      </trkpt>
      <trkpt lat="40.75798" lon="0.71085">
        <ele>5.4</ele>
        <time>2022-05-24 23:17:19</time>
      </trkpt>
      <trkpt lat="40.758" lon="0.71091">
        <ele>5.4</ele>
        <time>2022-05-24 23:17:20</time>
      </trkpt>
      <trkpt lat="40.75802" lon="0.71097">
        <ele>5.4</ele>
        <time>2022-05-24 23:17:21</time>
      </trkpt>
      <trkpt lat="40.75803" lon="0.71104">
        <ele>5.4</ele>
        <time>2022-05-24 23:17:22</time>
      </trkpt>
      <trkpt lat="40.75803" lon="0.7111">
        <ele>5.4</ele>
        <time>2022-05-24 23:17:23</time>
      </trkpt>
      <trkpt lat="40.75802" lon="0.71116">
        <ele>5.4</ele>
        <time>2022-05-24 23:17:24</time>
      </trkpt>
      <trkpt lat="40.75802" lon="0.71122">
        <ele>5.4</ele>
        <time>2022-05-24 23:17:25</time>
      </trkpt>
      <trkpt lat="40.75802" lon="0.71127">
        <ele>5.4</ele>
        <time>2022-05-24 23:17:26</time>
      </trkpt>
      <trkpt lat="40.75802" lon="0.71131">
        <ele>5.6</ele>
        <time>2022-05-24 23:17:27</time>
      </trkpt>
      <trkpt lat="40.75804" lon="0.71134">
        <ele>5.6</ele>
        <time>2022-05-24 23:17:28</time>
      </trkpt>
      <trkpt lat="40.75806" lon="0.71134">
        <ele>5.6</ele>
        <time>2022-05-24 23:17:29</time>
      </trkpt>
      <trkpt lat="40.75808" lon="0.71134">
        <ele>5.6</ele>
        <time>2022-05-24 23:17:30</time>
      </trkpt>
      <trkpt lat="40.75811" lon="0.71132">
        <ele>5.4</ele>
        <time>2022-05-24 23:17:31</time>
      </trkpt>
      <trkpt lat="40.75813" lon="0.71131">
        <ele>5.2</ele>
        <time>2022-05-24 23:17:32</time>
      </trkpt>
      <trkpt lat="40.75816" lon="0.71128">
        <ele>5</ele>
        <time>2022-05-24 23:17:33</time>
      </trkpt>
      <trkpt lat="40.7582" lon="0.71126">
        <ele>5</ele>
        <time>2022-05-24 23:17:34</time>
      </trkpt>
      <trkpt lat="40.75823" lon="0.71123">
        <ele>5</ele>
        <time>2022-05-24 23:17:35</time>
      </trkpt>
      <trkpt lat="40.75826" lon="0.71121">
        <ele>5</ele>
        <time>2022-05-24 23:17:36</time>
      </trkpt>
      <trkpt lat="40.75829" lon="0.71119">
        <ele>4.8</ele>
        <time>2022-05-24 23:17:37</time>
      </trkpt>
      <trkpt lat="40.75831" lon="0.71116">
        <ele>4.8</ele>
        <time>2022-05-24 23:17:38</time>
      </trkpt>
      <trkpt lat="40.75834" lon="0.71113">
        <ele>4.6</ele>
        <time>2022-05-24 23:17:39</time>
      </trkpt>
      <trkpt lat="40.75837" lon="0.7111">
        <ele>4.6</ele>
        <time>2022-05-24 23:17:40</time>
      </trkpt>
      <trkpt lat="40.7584" lon="0.71107">
        <ele>4.4</ele>
        <time>2022-05-24 23:17:41</time>
      </trkpt>
      <trkpt lat="40.75843" lon="0.71104">
        <ele>4.4</ele>
        <time>2022-05-24 23:17:42</time>
      </trkpt>
      <trkpt lat="40.75846" lon="0.71102">
        <ele>4.2</ele>
        <time>2022-05-24 23:17:43</time>
      </trkpt>
      <trkpt lat="40.7585" lon="0.71099">
        <ele>4.2</ele>
        <time>2022-05-24 23:17:44</time>
      </trkpt>
      <trkpt lat="40.75854" lon="0.71095">
        <ele>4.4</ele>
        <time>2022-05-24 23:17:45</time>
      </trkpt>
      <trkpt lat="40.75857" lon="0.71092">
        <ele>4.4</ele>
        <time>2022-05-24 23:17:46</time>
      </trkpt>
      <trkpt lat="40.75861" lon="0.71088">
        <ele>4.4</ele>
        <time>2022-05-24 23:17:47</time>
      </trkpt>
      <trkpt lat="40.75865" lon="0.71085">
        <ele>4.2</ele>
        <time>2022-05-24 23:17:48</time>
      </trkpt>
      <trkpt lat="40.75869" lon="0.71081">
        <ele>4.2</ele>
        <time>2022-05-24 23:17:49</time>
      </trkpt>
      <trkpt lat="40.75872" lon="0.71078">
        <ele>4.2</ele>
        <time>2022-05-24 23:17:50</time>
      </trkpt>
      <trkpt lat="40.75877" lon="0.71075">
        <ele>4</ele>
        <time>2022-05-24 23:17:51</time>
      </trkpt>
      <trkpt lat="40.75881" lon="0.71072">
        <ele>3.8</ele>
        <time>2022-05-24 23:17:52</time>
      </trkpt>
      <trkpt lat="40.75885" lon="0.71069">
        <ele>3.8</ele>
        <time>2022-05-24 23:17:53</time>
      </trkpt>
      <trkpt lat="40.7589" lon="0.71065">
        <ele>3.6</ele>
        <time>2022-05-24 23:17:54</time>
      </trkpt>
      <trkpt lat="40.75895" lon="0.71061">
        <ele>3.4</ele>
        <time>2022-05-24 23:17:55</time>
      </trkpt>
      <trkpt lat="40.75899" lon="0.71057">
        <ele>3.4</ele>
        <time>2022-05-24 23:17:56</time>
      </trkpt>
      <trkpt lat="40.75904" lon="0.71053">
        <ele>3.2</ele>
        <time>2022-05-24 23:17:57</time>
      </trkpt>
      <trkpt lat="40.75908" lon="0.71049">
        <ele>3.2</ele>
        <time>2022-05-24 23:17:58</time>
      </trkpt>
      <trkpt lat="40.75913" lon="0.71046">
        <ele>3.2</ele>
        <time>2022-05-24 23:17:59</time>
      </trkpt>
      <trkpt lat="40.75917" lon="0.71042">
        <ele>3.2</ele>
        <time>2022-05-24 23:18:00</time>
      </trkpt>
      <trkpt lat="40.75922" lon="0.71038">
        <ele>3.2</ele>
        <time>2022-05-24 23:18:01</time>
      </trkpt>
      <trkpt lat="40.75927" lon="0.71035">
        <ele>3.4</ele>
        <time>2022-05-24 23:18:02</time>
      </trkpt>
      <trkpt lat="40.75932" lon="0.71031">
        <ele>3.6</ele>
        <time>2022-05-24 23:18:03</time>
      </trkpt>
      <trkpt lat="40.75936" lon="0.71028">
        <ele>3.6</ele>
        <time>2022-05-24 23:18:04</time>
      </trkpt>
      <trkpt lat="40.75941" lon="0.71025">
        <ele>3.8</ele>
        <time>2022-05-24 23:18:05</time>
      </trkpt>
      <trkpt lat="40.75945" lon="0.71021">
        <ele>3.8</ele>
        <time>2022-05-24 23:18:06</time>
      </trkpt>
      <trkpt lat="40.75951" lon="0.71018">
        <ele>3.8</ele>
        <time>2022-05-24 23:18:07</time>
      </trkpt>
      <trkpt lat="40.75955" lon="0.71015">
        <ele>4</ele>
        <time>2022-05-24 23:18:08</time>
      </trkpt>
      <trkpt lat="40.7596" lon="0.71012">
        <ele>4</ele>
        <time>2022-05-24 23:18:09</time>
      </trkpt>
      <trkpt lat="40.75964" lon="0.71009">
        <ele>4</ele>
        <time>2022-05-24 23:18:10</time>
      </trkpt>
      <trkpt lat="40.75969" lon="0.71006">
        <ele>4</ele>
        <time>2022-05-24 23:18:11</time>
      </trkpt>
      <trkpt lat="40.75974" lon="0.71003">
        <ele>4</ele>
        <time>2022-05-24 23:18:12</time>
      </trkpt>
      <trkpt lat="40.75979" lon="0.71">
        <ele>4</ele>
        <time>2022-05-24 23:18:13</time>
      </trkpt>
      <trkpt lat="40.75983" lon="0.70997">
        <ele>4</ele>
        <time>2022-05-24 23:18:14</time>
      </trkpt>
      <trkpt lat="40.75988" lon="0.70994">
        <ele>4</ele>
        <time>2022-05-24 23:18:15</time>
      </trkpt>
      <trkpt lat="40.75993" lon="0.70991">
        <ele>4</ele>
        <time>2022-05-24 23:18:16</time>
      </trkpt>
      <trkpt lat="40.75997" lon="0.70988">
        <ele>4.2</ele>
        <time>2022-05-24 23:18:17</time>
      </trkpt>
      <trkpt lat="40.76002" lon="0.70986">
        <ele>4.2</ele>
        <time>2022-05-24 23:18:18</time>
      </trkpt>
      <trkpt lat="40.76007" lon="0.70983">
        <ele>4.2</ele>
        <time>2022-05-24 23:18:19</time>
      </trkpt>
      <trkpt lat="40.76011" lon="0.7098">
        <ele>4.2</ele>
        <time>2022-05-24 23:18:20</time>
      </trkpt>
      <trkpt lat="40.76016" lon="0.70977">
        <ele>4.4</ele>
        <time>2022-05-24 23:18:21</time>
      </trkpt>
      <trkpt lat="40.7602" lon="0.70974">
        <ele>4.2</ele>
        <time>2022-05-24 23:18:22</time>
      </trkpt>
      <trkpt lat="40.76025" lon="0.70972">
        <ele>4.2</ele>
        <time>2022-05-24 23:18:23</time>
      </trkpt>
      <trkpt lat="40.7603" lon="0.70969">
        <ele>4.2</ele>
        <time>2022-05-24 23:18:24</time>
      </trkpt>
      <trkpt lat="40.76035" lon="0.70967">
        <ele>4.2</ele>
        <time>2022-05-24 23:18:25</time>
      </trkpt>
      <trkpt lat="40.76039" lon="0.70964">
        <ele>4</ele>
        <time>2022-05-24 23:18:26</time>
      </trkpt>
      <trkpt lat="40.76044" lon="0.70961">
        <ele>4</ele>
        <time>2022-05-24 23:18:27</time>
      </trkpt>
      <trkpt lat="40.76048" lon="0.70959">
        <ele>3.8</ele>
        <time>2022-05-24 23:18:28</time>
      </trkpt>
      <trkpt lat="40.76052" lon="0.70956">
        <ele>3.8</ele>
        <time>2022-05-24 23:18:29</time>
      </trkpt>
      <trkpt lat="40.76057" lon="0.70953">
        <ele>3.8</ele>
        <time>2022-05-24 23:18:30</time>
      </trkpt>
      <trkpt lat="40.76061" lon="0.7095">
        <ele>3.8</ele>
        <time>2022-05-24 23:18:31</time>
      </trkpt>
      <trkpt lat="40.76066" lon="0.70948">
        <ele>3.8</ele>
        <time>2022-05-24 23:18:32</time>
      </trkpt>
      <trkpt lat="40.7607" lon="0.70945">
        <ele>3.8</ele>
        <time>2022-05-24 23:18:33</time>
      </trkpt>
      <trkpt lat="40.76075" lon="0.70942">
        <ele>3.8</ele>
        <time>2022-05-24 23:18:34</time>
      </trkpt>
      <trkpt lat="40.7608" lon="0.70939">
        <ele>3.8</ele>
        <time>2022-05-24 23:18:35</time>
      </trkpt>
      <trkpt lat="40.76083" lon="0.70937">
        <ele>3.8</ele>
        <time>2022-05-24 23:18:36</time>
      </trkpt>
      <trkpt lat="40.76088" lon="0.70934">
        <ele>3.8</ele>
        <time>2022-05-24 23:18:37</time>
      </trkpt>
      <trkpt lat="40.76093" lon="0.70932">
        <ele>3.8</ele>
        <time>2022-05-24 23:18:38</time>
      </trkpt>
      <trkpt lat="40.76097" lon="0.70929">
        <ele>3.8</ele>
        <time>2022-05-24 23:18:39</time>
      </trkpt>
      <trkpt lat="40.76101" lon="0.70926">
        <ele>3.8</ele>
        <time>2022-05-24 23:18:40</time>
      </trkpt>
      <trkpt lat="40.76105" lon="0.70924">
        <ele>4</ele>
        <time>2022-05-24 23:18:41</time>
      </trkpt>
      <trkpt lat="40.7611" lon="0.70921">
        <ele>4</ele>
        <time>2022-05-24 23:18:42</time>
      </trkpt>
      <trkpt lat="40.76114" lon="0.70919">
        <ele>4</ele>
        <time>2022-05-24 23:18:43</time>
      </trkpt>
      <trkpt lat="40.76118" lon="0.70917">
        <ele>3.8</ele>
        <time>2022-05-24 23:18:44</time>
      </trkpt>
      <trkpt lat="40.76122" lon="0.70914">
        <ele>3.8</ele>
        <time>2022-05-24 23:18:45</time>
      </trkpt>
      <trkpt lat="40.76127" lon="0.70912">
        <ele>3.8</ele>
        <time>2022-05-24 23:18:46</time>
      </trkpt>
      <trkpt lat="40.76131" lon="0.7091">
        <ele>4</ele>
        <time>2022-05-24 23:18:47</time>
      </trkpt>
      <trkpt lat="40.76135" lon="0.70908">
        <ele>4</ele>
        <time>2022-05-24 23:18:48</time>
      </trkpt>
      <trkpt lat="40.76139" lon="0.70907">
        <ele>4</ele>
        <time>2022-05-24 23:18:49</time>
      </trkpt>
      <trkpt lat="40.76144" lon="0.70905">
        <ele>4</ele>
        <time>2022-05-24 23:18:50</time>
      </trkpt>
      <trkpt lat="40.76149" lon="0.70903">
        <ele>4</ele>
        <time>2022-05-24 23:18:51</time>
      </trkpt>
      <trkpt lat="40.76153" lon="0.70901">
        <ele>4.2</ele>
        <time>2022-05-24 23:18:52</time>
      </trkpt>
      <trkpt lat="40.76158" lon="0.70899">
        <ele>4.2</ele>
        <time>2022-05-24 23:18:53</time>
      </trkpt>
      <trkpt lat="40.76163" lon="0.70897">
        <ele>4</ele>
        <time>2022-05-24 23:18:54</time>
      </trkpt>
      <trkpt lat="40.76167" lon="0.70896">
        <ele>4</ele>
        <time>2022-05-24 23:18:55</time>
      </trkpt>
      <trkpt lat="40.76171" lon="0.70895">
        <ele>4</ele>
        <time>2022-05-24 23:18:56</time>
      </trkpt>
      <trkpt lat="40.76176" lon="0.70893">
        <ele>3.8</ele>
        <time>2022-05-24 23:18:57</time>
      </trkpt>
      <trkpt lat="40.76181" lon="0.70892">
        <ele>4</ele>
        <time>2022-05-24 23:18:58</time>
      </trkpt>
      <trkpt lat="40.76186" lon="0.7089">
        <ele>4</ele>
        <time>2022-05-24 23:18:59</time>
      </trkpt>
      <trkpt lat="40.76191" lon="0.70889">
        <ele>4</ele>
        <time>2022-05-24 23:19:00</time>
      </trkpt>
      <trkpt lat="40.76196" lon="0.70887">
        <ele>4</ele>
        <time>2022-05-24 23:19:01</time>
      </trkpt>
      <trkpt lat="40.76201" lon="0.70886">
        <ele>4</ele>
        <time>2022-05-24 23:19:02</time>
      </trkpt>
      <trkpt lat="40.76205" lon="0.70885">
        <ele>4</ele>
        <time>2022-05-24 23:19:03</time>
      </trkpt>
      <trkpt lat="40.7621" lon="0.70884">
        <ele>4.2</ele>
        <time>2022-05-24 23:19:04</time>
      </trkpt>
      <trkpt lat="40.76215" lon="0.70882">
        <ele>4.2</ele>
        <time>2022-05-24 23:19:05</time>
      </trkpt>
      <trkpt lat="40.76219" lon="0.70881">
        <ele>4.4</ele>
        <time>2022-05-24 23:19:06</time>
      </trkpt>
      <trkpt lat="40.76225" lon="0.7088">
        <ele>4.4</ele>
        <time>2022-05-24 23:19:07</time>
      </trkpt>
      <trkpt lat="40.76229" lon="0.70879">
        <ele>4.4</ele>
        <time>2022-05-24 23:19:08</time>
      </trkpt>
      <trkpt lat="40.76234" lon="0.70878">
        <ele>4.2</ele>
        <time>2022-05-24 23:19:09</time>
      </trkpt>
      <trkpt lat="40.76238" lon="0.70877">
        <ele>4.2</ele>
        <time>2022-05-24 23:19:10</time>
      </trkpt>
      <trkpt lat="40.76243" lon="0.70876">
        <ele>4.2</ele>
        <time>2022-05-24 23:19:11</time>
      </trkpt>
      <trkpt lat="40.76249" lon="0.70875">
        <ele>4.2</ele>
        <time>2022-05-24 23:19:12</time>
      </trkpt>
      <trkpt lat="40.76254" lon="0.70873">
        <ele>4.2</ele>
        <time>2022-05-24 23:19:13</time>
      </trkpt>
      <trkpt lat="40.76258" lon="0.70872">
        <ele>4.2</ele>
        <time>2022-05-24 23:19:14</time>
      </trkpt>
      <trkpt lat="40.76263" lon="0.7087">
        <ele>4.2</ele>
        <time>2022-05-24 23:19:15</time>
      </trkpt>
      <trkpt lat="40.76267" lon="0.70869">
        <ele>4.2</ele>
        <time>2022-05-24 23:19:16</time>
      </trkpt>
      <trkpt lat="40.76272" lon="0.70867">
        <ele>4.2</ele>
        <time>2022-05-24 23:19:17</time>
      </trkpt>
      <trkpt lat="40.76277" lon="0.70866">
        <ele>4.2</ele>
        <time>2022-05-24 23:19:18</time>
      </trkpt>
      <trkpt lat="40.76282" lon="0.70865">
        <ele>4</ele>
        <time>2022-05-24 23:19:19</time>
      </trkpt>
      <trkpt lat="40.76286" lon="0.70864">
        <ele>4</ele>
        <time>2022-05-24 23:19:20</time>
      </trkpt>
      <trkpt lat="40.76291" lon="0.70862">
        <ele>4</ele>
        <time>2022-05-24 23:19:21</time>
      </trkpt>
      <trkpt lat="40.76296" lon="0.70861">
        <ele>4</ele>
        <time>2022-05-24 23:19:22</time>
      </trkpt>
      <trkpt lat="40.763" lon="0.7086">
        <ele>4</ele>
        <time>2022-05-24 23:19:23</time>
      </trkpt>
      <trkpt lat="40.76306" lon="0.70859">
        <ele>4</ele>
        <time>2022-05-24 23:19:24</time>
      </trkpt>
      <trkpt lat="40.76311" lon="0.70859">
        <ele>4</ele>
        <time>2022-05-24 23:19:25</time>
      </trkpt>
      <trkpt lat="40.76316" lon="0.70858">
        <ele>4</ele>
        <time>2022-05-24 23:19:26</time>
      </trkpt>
      <trkpt lat="40.76321" lon="0.70858">
        <ele>4</ele>
        <time>2022-05-24 23:19:27</time>
      </trkpt>
      <trkpt lat="40.76326" lon="0.70858">
        <ele>4.4</ele>
        <time>2022-05-24 23:19:28</time>
      </trkpt>
      <trkpt lat="40.76331" lon="0.70858">
        <ele>4.6</ele>
        <time>2022-05-24 23:19:29</time>
      </trkpt>
      <trkpt lat="40.76336" lon="0.70858">
        <ele>4.6</ele>
        <time>2022-05-24 23:19:30</time>
      </trkpt>
      <trkpt lat="40.76341" lon="0.70859">
        <ele>4.6</ele>
        <time>2022-05-24 23:19:31</time>
      </trkpt>
      <trkpt lat="40.76346" lon="0.70859">
        <ele>4.6</ele>
        <time>2022-05-24 23:19:32</time>
      </trkpt>
      <trkpt lat="40.76351" lon="0.7086">
        <ele>4.6</ele>
        <time>2022-05-24 23:19:33</time>
      </trkpt>
      <trkpt lat="40.76357" lon="0.7086">
        <ele>4.6</ele>
        <time>2022-05-24 23:19:34</time>
      </trkpt>
      <trkpt lat="40.76362" lon="0.70861">
        <ele>4.6</ele>
        <time>2022-05-24 23:19:35</time>
      </trkpt>
      <trkpt lat="40.76367" lon="0.70862">
        <ele>4.8</ele>
        <time>2022-05-24 23:19:36</time>
      </trkpt>
      <trkpt lat="40.76371" lon="0.70863">
        <ele>4.8</ele>
        <time>2022-05-24 23:19:37</time>
      </trkpt>
      <trkpt lat="40.76376" lon="0.70864">
        <ele>4.8</ele>
        <time>2022-05-24 23:19:38</time>
      </trkpt>
      <trkpt lat="40.76381" lon="0.70865">
        <ele>5</ele>
        <time>2022-05-24 23:19:39</time>
      </trkpt>
      <trkpt lat="40.76386" lon="0.70866">
        <ele>5</ele>
        <time>2022-05-24 23:19:40</time>
      </trkpt>
      <trkpt lat="40.76392" lon="0.70867">
        <ele>5</ele>
        <time>2022-05-24 23:19:41</time>
      </trkpt>
      <trkpt lat="40.76397" lon="0.70868">
        <ele>5</ele>
        <time>2022-05-24 23:19:42</time>
      </trkpt>
      <trkpt lat="40.76402" lon="0.70869">
        <ele>5</ele>
        <time>2022-05-24 23:19:43</time>
      </trkpt>
      <trkpt lat="40.76407" lon="0.7087">
        <ele>5</ele>
        <time>2022-05-24 23:19:44</time>
      </trkpt>
      <trkpt lat="40.76412" lon="0.70871">
        <ele>5</ele>
        <time>2022-05-24 23:19:45</time>
      </trkpt>
      <trkpt lat="40.76417" lon="0.70872">
        <ele>5</ele>
        <time>2022-05-24 23:19:46</time>
      </trkpt>
      <trkpt lat="40.76421" lon="0.70873">
        <ele>5</ele>
        <time>2022-05-24 23:19:47</time>
      </trkpt>
      <trkpt lat="40.76426" lon="0.70874">
        <ele>5</ele>
        <time>2022-05-24 23:19:48</time>
      </trkpt>
      <trkpt lat="40.76432" lon="0.70875">
        <ele>5</ele>
        <time>2022-05-24 23:19:49</time>
      </trkpt>
      <trkpt lat="40.76437" lon="0.70876">
        <ele>5</ele>
        <time>2022-05-24 23:19:50</time>
      </trkpt>
      <trkpt lat="40.76442" lon="0.70876">
        <ele>5</ele>
        <time>2022-05-24 23:19:51</time>
      </trkpt>
      <trkpt lat="40.76446" lon="0.70877">
        <ele>5.2</ele>
        <time>2022-05-24 23:19:52</time>
      </trkpt>
      <trkpt lat="40.76451" lon="0.70878">
        <ele>5.2</ele>
        <time>2022-05-24 23:19:53</time>
      </trkpt>
      <trkpt lat="40.76455" lon="0.70878">
        <ele>5.2</ele>
        <time>2022-05-24 23:19:54</time>
      </trkpt>
      <trkpt lat="40.7646" lon="0.70879">
        <ele>5.2</ele>
        <time>2022-05-24 23:19:55</time>
      </trkpt>
      <trkpt lat="40.76465" lon="0.7088">
        <ele>5</ele>
        <time>2022-05-24 23:19:56</time>
      </trkpt>
      <trkpt lat="40.7647" lon="0.70881">
        <ele>5</ele>
        <time>2022-05-24 23:19:57</time>
      </trkpt>
      <trkpt lat="40.76475" lon="0.70882">
        <ele>5.2</ele>
        <time>2022-05-24 23:19:58</time>
      </trkpt>
      <trkpt lat="40.7648" lon="0.70883">
        <ele>5.4</ele>
        <time>2022-05-24 23:19:59</time>
      </trkpt>
      <trkpt lat="40.76485" lon="0.70883">
        <ele>5.6</ele>
        <time>2022-05-24 23:20:00</time>
      </trkpt>
      <trkpt lat="40.7649" lon="0.70884">
        <ele>5.8</ele>
        <time>2022-05-24 23:20:01</time>
      </trkpt>
      <trkpt lat="40.76495" lon="0.70886">
        <ele>5.6</ele>
        <time>2022-05-24 23:20:02</time>
      </trkpt>
      <trkpt lat="40.76499" lon="0.70887">
        <ele>5.6</ele>
        <time>2022-05-24 23:20:03</time>
      </trkpt>
      <trkpt lat="40.76504" lon="0.70888">
        <ele>5.6</ele>
        <time>2022-05-24 23:20:04</time>
      </trkpt>
      <trkpt lat="40.76509" lon="0.70889">
        <ele>5.4</ele>
        <time>2022-05-24 23:20:05</time>
      </trkpt>
      <trkpt lat="40.76514" lon="0.7089">
        <ele>5.4</ele>
        <time>2022-05-24 23:20:06</time>
      </trkpt>
      <trkpt lat="40.76519" lon="0.70891">
        <ele>5.4</ele>
        <time>2022-05-24 23:20:07</time>
      </trkpt>
      <trkpt lat="40.76524" lon="0.70892">
        <ele>5.4</ele>
        <time>2022-05-24 23:20:08</time>
      </trkpt>
      <trkpt lat="40.76529" lon="0.70892">
        <ele>5.4</ele>
        <time>2022-05-24 23:20:09</time>
      </trkpt>
      <trkpt lat="40.76534" lon="0.70893">
        <ele>5.4</ele>
        <time>2022-05-24 23:20:10</time>
      </trkpt>
      <trkpt lat="40.76538" lon="0.70894">
        <ele>5.4</ele>
        <time>2022-05-24 23:20:11</time>
      </trkpt>
      <trkpt lat="40.76543" lon="0.70895">
        <ele>5.4</ele>
        <time>2022-05-24 23:20:12</time>
      </trkpt>
      <trkpt lat="40.76548" lon="0.70896">
        <ele>5.6</ele>
        <time>2022-05-24 23:20:13</time>
      </trkpt>
      <trkpt lat="40.76553" lon="0.70897">
        <ele>5.6</ele>
        <time>2022-05-24 23:20:14</time>
      </trkpt>
      <trkpt lat="40.76558" lon="0.70898">
        <ele>5.4</ele>
        <time>2022-05-24 23:20:15</time>
      </trkpt>
      <trkpt lat="40.76563" lon="0.70899">
        <ele>5.4</ele>
        <time>2022-05-24 23:20:16</time>
      </trkpt>
      <trkpt lat="40.76568" lon="0.709">
        <ele>5.4</ele>
        <time>2022-05-24 23:20:17</time>
      </trkpt>
      <trkpt lat="40.76573" lon="0.709">
        <ele>5.4</ele>
        <time>2022-05-24 23:20:18</time>
      </trkpt>
      <trkpt lat="40.76578" lon="0.70901">
        <ele>5.6</ele>
        <time>2022-05-24 23:20:19</time>
      </trkpt>
      <trkpt lat="40.76583" lon="0.70902">
        <ele>5.6</ele>
        <time>2022-05-24 23:20:20</time>
      </trkpt>
      <trkpt lat="40.76588" lon="0.70902">
        <ele>5.6</ele>
        <time>2022-05-24 23:20:21</time>
      </trkpt>
      <trkpt lat="40.76593" lon="0.70903">
        <ele>5.6</ele>
        <time>2022-05-24 23:20:22</time>
      </trkpt>
      <trkpt lat="40.76598" lon="0.70904">
        <ele>5.6</ele>
        <time>2022-05-24 23:20:23</time>
      </trkpt>
      <trkpt lat="40.76603" lon="0.70905">
        <ele>5.6</ele>
        <time>2022-05-24 23:20:24</time>
      </trkpt>
      <trkpt lat="40.76608" lon="0.70906">
        <ele>5.8</ele>
        <time>2022-05-24 23:20:25</time>
      </trkpt>
      <trkpt lat="40.76613" lon="0.70907">
        <ele>5.8</ele>
        <time>2022-05-24 23:20:26</time>
      </trkpt>
      <trkpt lat="40.76618" lon="0.70909">
        <ele>5.6</ele>
        <time>2022-05-24 23:20:27</time>
      </trkpt>
      <trkpt lat="40.76623" lon="0.7091">
        <ele>5.6</ele>
        <time>2022-05-24 23:20:28</time>
      </trkpt>
      <trkpt lat="40.76628" lon="0.7091">
        <ele>5.6</ele>
        <time>2022-05-24 23:20:29</time>
      </trkpt>
      <trkpt lat="40.76633" lon="0.70911">
        <ele>5.6</ele>
        <time>2022-05-24 23:20:30</time>
      </trkpt>
      <trkpt lat="40.76638" lon="0.70912">
        <ele>5.6</ele>
        <time>2022-05-24 23:20:31</time>
      </trkpt>
      <trkpt lat="40.76643" lon="0.70913">
        <ele>5.8</ele>
        <time>2022-05-24 23:20:32</time>
      </trkpt>
      <trkpt lat="40.76648" lon="0.70914">
        <ele>5.8</ele>
        <time>2022-05-24 23:20:33</time>
      </trkpt>
      <trkpt lat="40.76653" lon="0.70915">
        <ele>5.8</ele>
        <time>2022-05-24 23:20:34</time>
      </trkpt>
      <trkpt lat="40.76657" lon="0.70916">
        <ele>5.8</ele>
        <time>2022-05-24 23:20:35</time>
      </trkpt>
      <trkpt lat="40.76662" lon="0.70917">
        <ele>5.6</ele>
        <time>2022-05-24 23:20:36</time>
      </trkpt>
      <trkpt lat="40.76667" lon="0.70918">
        <ele>5.6</ele>
        <time>2022-05-24 23:20:37</time>
      </trkpt>
      <trkpt lat="40.76672" lon="0.70918">
        <ele>5.6</ele>
        <time>2022-05-24 23:20:38</time>
      </trkpt>
      <trkpt lat="40.76677" lon="0.70919">
        <ele>5.8</ele>
        <time>2022-05-24 23:20:39</time>
      </trkpt>
      <trkpt lat="40.76682" lon="0.7092">
        <ele>6</ele>
        <time>2022-05-24 23:20:40</time>
      </trkpt>
      <trkpt lat="40.76687" lon="0.70921">
        <ele>6</ele>
        <time>2022-05-24 23:20:41</time>
      </trkpt>
      <trkpt lat="40.76692" lon="0.70922">
        <ele>5.8</ele>
        <time>2022-05-24 23:20:42</time>
      </trkpt>
      <trkpt lat="40.76697" lon="0.70924">
        <ele>5.8</ele>
        <time>2022-05-24 23:20:43</time>
      </trkpt>
      <trkpt lat="40.76702" lon="0.70924">
        <ele>5.8</ele>
        <time>2022-05-24 23:20:44</time>
      </trkpt>
      <trkpt lat="40.76707" lon="0.70925">
        <ele>6</ele>
        <time>2022-05-24 23:20:45</time>
      </trkpt>
      <trkpt lat="40.76712" lon="0.70926">
        <ele>6</ele>
        <time>2022-05-24 23:20:46</time>
      </trkpt>
      <trkpt lat="40.76717" lon="0.70927">
        <ele>6</ele>
        <time>2022-05-24 23:20:47</time>
      </trkpt>
      <trkpt lat="40.76722" lon="0.70928">
        <ele>5.8</ele>
        <time>2022-05-24 23:20:48</time>
      </trkpt>
      <trkpt lat="40.76728" lon="0.70929">
        <ele>5.8</ele>
        <time>2022-05-24 23:20:49</time>
      </trkpt>
      <trkpt lat="40.76732" lon="0.7093">
        <ele>5.8</ele>
        <time>2022-05-24 23:20:50</time>
      </trkpt>
      <trkpt lat="40.76737" lon="0.70931">
        <ele>5.6</ele>
        <time>2022-05-24 23:20:51</time>
      </trkpt>
      <trkpt lat="40.76742" lon="0.70932">
        <ele>5.6</ele>
        <time>2022-05-24 23:20:52</time>
      </trkpt>
      <trkpt lat="40.76747" lon="0.70932">
        <ele>5.4</ele>
        <time>2022-05-24 23:20:53</time>
      </trkpt>
      <trkpt lat="40.76752" lon="0.70933">
        <ele>5.2</ele>
        <time>2022-05-24 23:20:54</time>
      </trkpt>
      <trkpt lat="40.76757" lon="0.70933">
        <ele>5.2</ele>
        <time>2022-05-24 23:20:55</time>
      </trkpt>
      <trkpt lat="40.76762" lon="0.70934">
        <ele>5.2</ele>
        <time>2022-05-24 23:20:56</time>
      </trkpt>
      <trkpt lat="40.76767" lon="0.70935">
        <ele>5.2</ele>
        <time>2022-05-24 23:20:57</time>
      </trkpt>
      <trkpt lat="40.76773" lon="0.70936">
        <ele>5.2</ele>
        <time>2022-05-24 23:20:58</time>
      </trkpt>
      <trkpt lat="40.76778" lon="0.70937">
        <ele>5.2</ele>
        <time>2022-05-24 23:20:59</time>
      </trkpt>
      <trkpt lat="40.76783" lon="0.70938">
        <ele>5.2</ele>
        <time>2022-05-24 23:21:00</time>
      </trkpt>
      <trkpt lat="40.76788" lon="0.70939">
        <ele>5.2</ele>
        <time>2022-05-24 23:21:01</time>
      </trkpt>
      <trkpt lat="40.76793" lon="0.7094">
        <ele>5.2</ele>
        <time>2022-05-24 23:21:02</time>
      </trkpt>
      <trkpt lat="40.76797" lon="0.70941">
        <ele>5.4</ele>
        <time>2022-05-24 23:21:03</time>
      </trkpt>
      <trkpt lat="40.76802" lon="0.70942">
        <ele>5.2</ele>
        <time>2022-05-24 23:21:04</time>
      </trkpt>
      <trkpt lat="40.76807" lon="0.70943">
        <ele>5.2</ele>
        <time>2022-05-24 23:21:05</time>
      </trkpt>
      <trkpt lat="40.76811" lon="0.70943">
        <ele>5.2</ele>
        <time>2022-05-24 23:21:06</time>
      </trkpt>
      <trkpt lat="40.76816" lon="0.70944">
        <ele>5.2</ele>
        <time>2022-05-24 23:21:07</time>
      </trkpt>
      <trkpt lat="40.7682" lon="0.70945">
        <ele>5.4</ele>
        <time>2022-05-24 23:21:08</time>
      </trkpt>
      <trkpt lat="40.76824" lon="0.70946">
        <ele>5.4</ele>
        <time>2022-05-24 23:21:09</time>
      </trkpt>
      <trkpt lat="40.76828" lon="0.70946">
        <ele>5.4</ele>
        <time>2022-05-24 23:21:10</time>
      </trkpt>
      <trkpt lat="40.76833" lon="0.70947">
        <ele>5.4</ele>
        <time>2022-05-24 23:21:11</time>
      </trkpt>
      <trkpt lat="40.76837" lon="0.70947">
        <ele>5.2</ele>
        <time>2022-05-24 23:21:12</time>
      </trkpt>
      <trkpt lat="40.76841" lon="0.70947">
        <ele>5.2</ele>
        <time>2022-05-24 23:21:13</time>
      </trkpt>
      <trkpt lat="40.76845" lon="0.70948">
        <ele>5.2</ele>
        <time>2022-05-24 23:21:14</time>
      </trkpt>
      <trkpt lat="40.7685" lon="0.70948">
        <ele>5.2</ele>
        <time>2022-05-24 23:21:15</time>
      </trkpt>
      <trkpt lat="40.76854" lon="0.70949">
        <ele>5</ele>
        <time>2022-05-24 23:21:16</time>
      </trkpt>
      <trkpt lat="40.76859" lon="0.7095">
        <ele>5</ele>
        <time>2022-05-24 23:21:17</time>
      </trkpt>
      <trkpt lat="40.76863" lon="0.70952">
        <ele>5</ele>
        <time>2022-05-24 23:21:18</time>
      </trkpt>
      <trkpt lat="40.76867" lon="0.70953">
        <ele>5</ele>
        <time>2022-05-24 23:21:19</time>
      </trkpt>
      <trkpt lat="40.76872" lon="0.70954">
        <ele>5</ele>
        <time>2022-05-24 23:21:20</time>
      </trkpt>
      <trkpt lat="40.76876" lon="0.70955">
        <ele>5</ele>
        <time>2022-05-24 23:21:21</time>
      </trkpt>
      <trkpt lat="40.76881" lon="0.70955">
        <ele>5.2</ele>
        <time>2022-05-24 23:21:22</time>
      </trkpt>
      <trkpt lat="40.76886" lon="0.70956">
        <ele>5.2</ele>
        <time>2022-05-24 23:21:23</time>
      </trkpt>
      <trkpt lat="40.7689" lon="0.70957">
        <ele>5.2</ele>
        <time>2022-05-24 23:21:24</time>
      </trkpt>
      <trkpt lat="40.76895" lon="0.70958">
        <ele>5.2</ele>
        <time>2022-05-24 23:21:25</time>
      </trkpt>
      <trkpt lat="40.76899" lon="0.70959">
        <ele>5.2</ele>
        <time>2022-05-24 23:21:26</time>
      </trkpt>
      <trkpt lat="40.76904" lon="0.7096">
        <ele>5.4</ele>
        <time>2022-05-24 23:21:27</time>
      </trkpt>
      <trkpt lat="40.76908" lon="0.7096">
        <ele>5.4</ele>
        <time>2022-05-24 23:21:28</time>
      </trkpt>
      <trkpt lat="40.76913" lon="0.70961">
        <ele>5.4</ele>
        <time>2022-05-24 23:21:29</time>
      </trkpt>
      <trkpt lat="40.76918" lon="0.70962">
        <ele>5.6</ele>
        <time>2022-05-24 23:21:30</time>
      </trkpt>
      <trkpt lat="40.76923" lon="0.70963">
        <ele>5.6</ele>
        <time>2022-05-24 23:21:31</time>
      </trkpt>
      <trkpt lat="40.76927" lon="0.70964">
        <ele>5.6</ele>
        <time>2022-05-24 23:21:32</time>
      </trkpt>
      <trkpt lat="40.76932" lon="0.70965">
        <ele>5.6</ele>
        <time>2022-05-24 23:21:33</time>
      </trkpt>
      <trkpt lat="40.76937" lon="0.70965">
        <ele>5.6</ele>
        <time>2022-05-24 23:21:34</time>
      </trkpt>
      <trkpt lat="40.76941" lon="0.70966">
        <ele>5.8</ele>
        <time>2022-05-24 23:21:35</time>
      </trkpt>
      <trkpt lat="40.76945" lon="0.70966">
        <ele>5.8</ele>
        <time>2022-05-24 23:21:36</time>
      </trkpt>
      <trkpt lat="40.7695" lon="0.70967">
        <ele>6</ele>
        <time>2022-05-24 23:21:37</time>
      </trkpt>
      <trkpt lat="40.76955" lon="0.70968">
        <ele>6</ele>
        <time>2022-05-24 23:21:38</time>
      </trkpt>
      <trkpt lat="40.7696" lon="0.70969">
        <ele>6</ele>
        <time>2022-05-24 23:21:39</time>
      </trkpt>
      <trkpt lat="40.76964" lon="0.7097">
        <ele>5.8</ele>
        <time>2022-05-24 23:21:40</time>
      </trkpt>
      <trkpt lat="40.76969" lon="0.70971">
        <ele>5.8</ele>
        <time>2022-05-24 23:21:41</time>
      </trkpt>
      <trkpt lat="40.76973" lon="0.70972">
        <ele>5.6</ele>
        <time>2022-05-24 23:21:42</time>
      </trkpt>
      <trkpt lat="40.76978" lon="0.70972">
        <ele>5.6</ele>
        <time>2022-05-24 23:21:43</time>
      </trkpt>
      <trkpt lat="40.76983" lon="0.70972">
        <ele>5.6</ele>
        <time>2022-05-24 23:21:44</time>
      </trkpt>
      <trkpt lat="40.76988" lon="0.70972">
        <ele>5.6</ele>
        <time>2022-05-24 23:21:45</time>
      </trkpt>
      <trkpt lat="40.76994" lon="0.70973">
        <ele>5.8</ele>
        <time>2022-05-24 23:21:46</time>
      </trkpt>
      <trkpt lat="40.76998" lon="0.70973">
        <ele>6</ele>
        <time>2022-05-24 23:21:47</time>
      </trkpt>
      <trkpt lat="40.77003" lon="0.70974">
        <ele>6.4</ele>
        <time>2022-05-24 23:21:48</time>
      </trkpt>
      <trkpt lat="40.77008" lon="0.70975">
        <ele>6.2</ele>
        <time>2022-05-24 23:21:49</time>
      </trkpt>
      <trkpt lat="40.77012" lon="0.70977">
        <ele>6</ele>
        <time>2022-05-24 23:21:50</time>
      </trkpt>
      <trkpt lat="40.77016" lon="0.70978">
        <ele>6</ele>
        <time>2022-05-24 23:21:51</time>
      </trkpt>
      <trkpt lat="40.77021" lon="0.70979">
        <ele>6</ele>
        <time>2022-05-24 23:21:52</time>
      </trkpt>
      <trkpt lat="40.77026" lon="0.7098">
        <ele>6</ele>
        <time>2022-05-24 23:21:53</time>
      </trkpt>
      <trkpt lat="40.77031" lon="0.70981">
        <ele>6.2</ele>
        <time>2022-05-24 23:21:54</time>
      </trkpt>
      <trkpt lat="40.77036" lon="0.70982">
        <ele>6</ele>
        <time>2022-05-24 23:21:55</time>
      </trkpt>
      <trkpt lat="40.7704" lon="0.70983">
        <ele>6</ele>
        <time>2022-05-24 23:21:56</time>
      </trkpt>
      <trkpt lat="40.77045" lon="0.70984">
        <ele>5.8</ele>
        <time>2022-05-24 23:21:57</time>
      </trkpt>
      <trkpt lat="40.7705" lon="0.70985">
        <ele>5.8</ele>
        <time>2022-05-24 23:21:58</time>
      </trkpt>
      <trkpt lat="40.77055" lon="0.70985">
        <ele>5.8</ele>
        <time>2022-05-24 23:21:59</time>
      </trkpt>
      <trkpt lat="40.7706" lon="0.70986">
        <ele>5.6</ele>
        <time>2022-05-24 23:22:00</time>
      </trkpt>
      <trkpt lat="40.77065" lon="0.70987">
        <ele>5.6</ele>
        <time>2022-05-24 23:22:01</time>
      </trkpt>
      <trkpt lat="40.7707" lon="0.70987">
        <ele>5.6</ele>
        <time>2022-05-24 23:22:02</time>
      </trkpt>
      <trkpt lat="40.77074" lon="0.70988">
        <ele>5.8</ele>
        <time>2022-05-24 23:22:03</time>
      </trkpt>
      <trkpt lat="40.77079" lon="0.70989">
        <ele>5.8</ele>
        <time>2022-05-24 23:22:04</time>
      </trkpt>
      <trkpt lat="40.77083" lon="0.7099">
        <ele>5.6</ele>
        <time>2022-05-24 23:22:05</time>
      </trkpt>
      <trkpt lat="40.77087" lon="0.70991">
        <ele>5.8</ele>
        <time>2022-05-24 23:22:06</time>
      </trkpt>
      <trkpt lat="40.77092" lon="0.70992">
        <ele>5.8</ele>
        <time>2022-05-24 23:22:07</time>
      </trkpt>
      <trkpt lat="40.77097" lon="0.70994">
        <ele>5.8</ele>
        <time>2022-05-24 23:22:08</time>
      </trkpt>
      <trkpt lat="40.77101" lon="0.70995">
        <ele>5.8</ele>
        <time>2022-05-24 23:22:09</time>
      </trkpt>
      <trkpt lat="40.77105" lon="0.70996">
        <ele>5.8</ele>
        <time>2022-05-24 23:22:10</time>
      </trkpt>
      <trkpt lat="40.7711" lon="0.70998">
        <ele>5.8</ele>
        <time>2022-05-24 23:22:11</time>
      </trkpt>
      <trkpt lat="40.77114" lon="0.71">
        <ele>5.6</ele>
        <time>2022-05-24 23:22:12</time>
      </trkpt>
      <trkpt lat="40.77118" lon="0.71003">
        <ele>5.8</ele>
        <time>2022-05-24 23:22:13</time>
      </trkpt>
      <trkpt lat="40.77123" lon="0.71005">
        <ele>5.8</ele>
        <time>2022-05-24 23:22:14</time>
      </trkpt>
      <trkpt lat="40.77127" lon="0.71006">
        <ele>5.6</ele>
        <time>2022-05-24 23:22:15</time>
      </trkpt>
      <trkpt lat="40.77132" lon="0.71008">
        <ele>5.6</ele>
        <time>2022-05-24 23:22:16</time>
      </trkpt>
      <trkpt lat="40.77136" lon="0.7101">
        <ele>5.6</ele>
        <time>2022-05-24 23:22:17</time>
      </trkpt>
      <trkpt lat="40.7714" lon="0.71011">
        <ele>5.6</ele>
        <time>2022-05-24 23:22:18</time>
      </trkpt>
      <trkpt lat="40.77145" lon="0.71013">
        <ele>5.6</ele>
        <time>2022-05-24 23:22:19</time>
      </trkpt>
      <trkpt lat="40.7715" lon="0.71016">
        <ele>5.4</ele>
        <time>2022-05-24 23:22:20</time>
      </trkpt>
      <trkpt lat="40.77155" lon="0.71018">
        <ele>5.4</ele>
        <time>2022-05-24 23:22:21</time>
      </trkpt>
      <trkpt lat="40.77159" lon="0.7102">
        <ele>5.6</ele>
        <time>2022-05-24 23:22:22</time>
      </trkpt>
      <trkpt lat="40.77163" lon="0.71023">
        <ele>5.6</ele>
        <time>2022-05-24 23:22:23</time>
      </trkpt>
      <trkpt lat="40.77168" lon="0.71025">
        <ele>5.6</ele>
        <time>2022-05-24 23:22:24</time>
      </trkpt>
      <trkpt lat="40.77172" lon="0.71028">
        <ele>5.6</ele>
        <time>2022-05-24 23:22:25</time>
      </trkpt>
      <trkpt lat="40.77176" lon="0.71031">
        <ele>5.6</ele>
        <time>2022-05-24 23:22:26</time>
      </trkpt>
      <trkpt lat="40.77181" lon="0.71033">
        <ele>5.6</ele>
        <time>2022-05-24 23:22:27</time>
      </trkpt>
      <trkpt lat="40.77185" lon="0.71036">
        <ele>5.8</ele>
        <time>2022-05-24 23:22:28</time>
      </trkpt>
      <trkpt lat="40.7719" lon="0.71038">
        <ele>6</ele>
        <time>2022-05-24 23:22:29</time>
      </trkpt>
      <trkpt lat="40.77195" lon="0.7104">
        <ele>6</ele>
        <time>2022-05-24 23:22:30</time>
      </trkpt>
      <trkpt lat="40.77199" lon="0.71043">
        <ele>6</ele>
        <time>2022-05-24 23:22:31</time>
      </trkpt>
      <trkpt lat="40.77204" lon="0.71045">
        <ele>6</ele>
        <time>2022-05-24 23:22:32</time>
      </trkpt>
      <trkpt lat="40.77208" lon="0.71048">
        <ele>6.2</ele>
        <time>2022-05-24 23:22:33</time>
      </trkpt>
      <trkpt lat="40.77212" lon="0.71051">
        <ele>6.4</ele>
        <time>2022-05-24 23:22:34</time>
      </trkpt>
      <trkpt lat="40.77216" lon="0.71053">
        <ele>6.4</ele>
        <time>2022-05-24 23:22:35</time>
      </trkpt>
      <trkpt lat="40.77221" lon="0.71056">
        <ele>6.2</ele>
        <time>2022-05-24 23:22:36</time>
      </trkpt>
      <trkpt lat="40.77225" lon="0.71058">
        <ele>6</ele>
        <time>2022-05-24 23:22:37</time>
      </trkpt>
      <trkpt lat="40.77229" lon="0.7106">
        <ele>6.2</ele>
        <time>2022-05-24 23:22:38</time>
      </trkpt>
      <trkpt lat="40.77233" lon="0.71062">
        <ele>6.2</ele>
        <time>2022-05-24 23:22:39</time>
      </trkpt>
      <trkpt lat="40.77238" lon="0.71065">
        <ele>6.2</ele>
        <time>2022-05-24 23:22:40</time>
      </trkpt>
      <trkpt lat="40.77242" lon="0.71067">
        <ele>6.2</ele>
        <time>2022-05-24 23:22:41</time>
      </trkpt>
      <trkpt lat="40.77246" lon="0.7107">
        <ele>6.2</ele>
        <time>2022-05-24 23:22:42</time>
      </trkpt>
      <trkpt lat="40.7725" lon="0.71073">
        <ele>6.2</ele>
        <time>2022-05-24 23:22:43</time>
      </trkpt>
      <trkpt lat="40.77254" lon="0.71075">
        <ele>6.4</ele>
        <time>2022-05-24 23:22:44</time>
      </trkpt>
      <trkpt lat="40.77258" lon="0.71077">
        <ele>6.4</ele>
        <time>2022-05-24 23:22:45</time>
      </trkpt>
      <trkpt lat="40.77261" lon="0.7108">
        <ele>6.4</ele>
        <time>2022-05-24 23:22:46</time>
      </trkpt>
      <trkpt lat="40.77265" lon="0.71082">
        <ele>6.6</ele>
        <time>2022-05-24 23:22:47</time>
      </trkpt>
      <trkpt lat="40.77269" lon="0.71084">
        <ele>6.6</ele>
        <time>2022-05-24 23:22:48</time>
      </trkpt>
      <trkpt lat="40.77272" lon="0.71087">
        <ele>7</ele>
        <time>2022-05-24 23:22:49</time>
      </trkpt>
      <trkpt lat="40.77276" lon="0.71089">
        <ele>7.2</ele>
        <time>2022-05-24 23:22:50</time>
      </trkpt>
      <trkpt lat="40.7728" lon="0.71092">
        <ele>7</ele>
        <time>2022-05-24 23:22:51</time>
      </trkpt>
      <trkpt lat="40.77283" lon="0.71094">
        <ele>7</ele>
        <time>2022-05-24 23:22:52</time>
      </trkpt>
      <trkpt lat="40.77287" lon="0.71096">
        <ele>7</ele>
        <time>2022-05-24 23:22:53</time>
      </trkpt>
      <trkpt lat="40.77291" lon="0.71099">
        <ele>7</ele>
        <time>2022-05-24 23:22:54</time>
      </trkpt>
      <trkpt lat="40.77294" lon="0.71101">
        <ele>7</ele>
        <time>2022-05-24 23:22:55</time>
      </trkpt>
      <trkpt lat="40.77298" lon="0.71103">
        <ele>7</ele>
        <time>2022-05-24 23:22:56</time>
      </trkpt>
      <trkpt lat="40.77301" lon="0.71106">
        <ele>6.8</ele>
        <time>2022-05-24 23:22:57</time>
      </trkpt>
      <trkpt lat="40.77305" lon="0.71108">
        <ele>6.6</ele>
        <time>2022-05-24 23:22:58</time>
      </trkpt>
      <trkpt lat="40.77308" lon="0.7111">
        <ele>6.6</ele>
        <time>2022-05-24 23:22:59</time>
      </trkpt>
      <trkpt lat="40.77311" lon="0.71112">
        <ele>6.4</ele>
        <time>2022-05-24 23:23:00</time>
      </trkpt>
      <trkpt lat="40.77315" lon="0.71115">
        <ele>6.2</ele>
        <time>2022-05-24 23:23:01</time>
      </trkpt>
      <trkpt lat="40.77318" lon="0.71117">
        <ele>6</ele>
        <time>2022-05-24 23:23:02</time>
      </trkpt>
      <trkpt lat="40.77321" lon="0.71119">
        <ele>5.8</ele>
        <time>2022-05-24 23:23:03</time>
      </trkpt>
      <trkpt lat="40.77324" lon="0.71122">
        <ele>5.8</ele>
        <time>2022-05-24 23:23:04</time>
      </trkpt>
      <trkpt lat="40.77328" lon="0.71125">
        <ele>5.8</ele>
        <time>2022-05-24 23:23:05</time>
      </trkpt>
      <trkpt lat="40.77331" lon="0.71127">
        <ele>6</ele>
        <time>2022-05-24 23:23:06</time>
      </trkpt>
      <trkpt lat="40.77334" lon="0.71129">
        <ele>6.2</ele>
        <time>2022-05-24 23:23:07</time>
      </trkpt>
      <trkpt lat="40.77338" lon="0.71132">
        <ele>6.4</ele>
        <time>2022-05-24 23:23:08</time>
      </trkpt>
      <trkpt lat="40.7734" lon="0.71135">
        <ele>6.4</ele>
        <time>2022-05-24 23:23:09</time>
      </trkpt>
      <trkpt lat="40.77343" lon="0.71138">
        <ele>6</ele>
        <time>2022-05-24 23:23:10</time>
      </trkpt>
      <trkpt lat="40.77347" lon="0.71141">
        <ele>5.8</ele>
        <time>2022-05-24 23:23:11</time>
      </trkpt>
      <trkpt lat="40.7735" lon="0.71143">
        <ele>5.8</ele>
        <time>2022-05-24 23:23:12</time>
      </trkpt>
      <trkpt lat="40.77353" lon="0.71146">
        <ele>6</ele>
        <time>2022-05-24 23:23:13</time>
      </trkpt>
      <trkpt lat="40.77357" lon="0.71149">
        <ele>6.2</ele>
        <time>2022-05-24 23:23:14</time>
      </trkpt>
      <trkpt lat="40.7736" lon="0.71152">
        <ele>6.4</ele>
        <time>2022-05-24 23:23:15</time>
      </trkpt>
      <trkpt lat="40.77364" lon="0.71155">
        <ele>6.2</ele>
        <time>2022-05-24 23:23:16</time>
      </trkpt>
      <trkpt lat="40.77367" lon="0.71157">
        <ele>6.2</ele>
        <time>2022-05-24 23:23:17</time>
      </trkpt>
      <trkpt lat="40.7737" lon="0.7116">
        <ele>6.2</ele>
        <time>2022-05-24 23:23:18</time>
      </trkpt>
      <trkpt lat="40.77373" lon="0.71163">
        <ele>6.6</ele>
        <time>2022-05-24 23:23:19</time>
      </trkpt>
      <trkpt lat="40.77376" lon="0.71166">
        <ele>7</ele>
        <time>2022-05-24 23:23:20</time>
      </trkpt>
      <trkpt lat="40.7738" lon="0.71169">
        <ele>7</ele>
        <time>2022-05-24 23:23:21</time>
      </trkpt>
      <trkpt lat="40.77383" lon="0.71172">
        <ele>7</ele>
        <time>2022-05-24 23:23:22</time>
      </trkpt>
      <trkpt lat="40.77386" lon="0.71175">
        <ele>7</ele>
        <time>2022-05-24 23:23:23</time>
      </trkpt>
      <trkpt lat="40.7739" lon="0.71178">
        <ele>6.8</ele>
        <time>2022-05-24 23:23:24</time>
      </trkpt>
      <trkpt lat="40.77393" lon="0.71181">
        <ele>6.8</ele>
        <time>2022-05-24 23:23:25</time>
      </trkpt>
      <trkpt lat="40.77396" lon="0.71183">
        <ele>6.6</ele>
        <time>2022-05-24 23:23:26</time>
      </trkpt>
      <trkpt lat="40.77399" lon="0.71186">
        <ele>6.6</ele>
        <time>2022-05-24 23:23:27</time>
      </trkpt>
      <trkpt lat="40.77402" lon="0.71189">
        <ele>6.6</ele>
        <time>2022-05-24 23:23:28</time>
      </trkpt>
      <trkpt lat="40.77405" lon="0.71192">
        <ele>6.2</ele>
        <time>2022-05-24 23:23:29</time>
      </trkpt>
      <trkpt lat="40.77408" lon="0.71194">
        <ele>6.4</ele>
        <time>2022-05-24 23:23:30</time>
      </trkpt>
      <trkpt lat="40.77411" lon="0.71198">
        <ele>6.4</ele>
        <time>2022-05-24 23:23:31</time>
      </trkpt>
      <trkpt lat="40.77414" lon="0.712">
        <ele>6.4</ele>
        <time>2022-05-24 23:23:32</time>
      </trkpt>
      <trkpt lat="40.77417" lon="0.71203">
        <ele>6.6</ele>
        <time>2022-05-24 23:23:33</time>
      </trkpt>
      <trkpt lat="40.7742" lon="0.71206">
        <ele>7</ele>
        <time>2022-05-24 23:23:34</time>
      </trkpt>
      <trkpt lat="40.77424" lon="0.71209">
        <ele>7.2</ele>
        <time>2022-05-24 23:23:35</time>
      </trkpt>
      <trkpt lat="40.77427" lon="0.71212">
        <ele>7.2</ele>
        <time>2022-05-24 23:23:36</time>
      </trkpt>
      <trkpt lat="40.77431" lon="0.71216">
        <ele>7.8</ele>
        <time>2022-05-24 23:23:37</time>
      </trkpt>
      <trkpt lat="40.77434" lon="0.71219">
        <ele>8</ele>
        <time>2022-05-24 23:23:38</time>
      </trkpt>
      <trkpt lat="40.77437" lon="0.71222">
        <ele>8</ele>
        <time>2022-05-24 23:23:39</time>
      </trkpt>
      <trkpt lat="40.7744" lon="0.71225">
        <ele>7.8</ele>
        <time>2022-05-24 23:23:40</time>
      </trkpt>
      <trkpt lat="40.77443" lon="0.71228">
        <ele>7.6</ele>
        <time>2022-05-24 23:23:41</time>
      </trkpt>
      <trkpt lat="40.77446" lon="0.71231">
        <ele>7.4</ele>
        <time>2022-05-24 23:23:42</time>
      </trkpt>
      <trkpt lat="40.7745" lon="0.71234">
        <ele>7.2</ele>
        <time>2022-05-24 23:23:43</time>
      </trkpt>
      <trkpt lat="40.77453" lon="0.71237">
        <ele>7</ele>
        <time>2022-05-24 23:23:44</time>
      </trkpt>
      <trkpt lat="40.77456" lon="0.7124">
        <ele>7.2</ele>
        <time>2022-05-24 23:23:45</time>
      </trkpt>
      <trkpt lat="40.77459" lon="0.71243">
        <ele>7.2</ele>
        <time>2022-05-24 23:23:46</time>
      </trkpt>
      <trkpt lat="40.77462" lon="0.71246">
        <ele>7.2</ele>
        <time>2022-05-24 23:23:47</time>
      </trkpt>
      <trkpt lat="40.77465" lon="0.71248">
        <ele>7.2</ele>
        <time>2022-05-24 23:23:48</time>
      </trkpt>
      <trkpt lat="40.77468" lon="0.71251">
        <ele>7.4</ele>
        <time>2022-05-24 23:23:49</time>
      </trkpt>
      <trkpt lat="40.7747" lon="0.71254">
        <ele>7.4</ele>
        <time>2022-05-24 23:23:50</time>
      </trkpt>
      <trkpt lat="40.77473" lon="0.71257">
        <ele>7.4</ele>
        <time>2022-05-24 23:23:51</time>
      </trkpt>
      <trkpt lat="40.77476" lon="0.7126">
        <ele>7.2</ele>
        <time>2022-05-24 23:23:52</time>
      </trkpt>
      <trkpt lat="40.77479" lon="0.71263">
        <ele>7</ele>
        <time>2022-05-24 23:23:53</time>
      </trkpt>
      <trkpt lat="40.77482" lon="0.71266">
        <ele>7</ele>
        <time>2022-05-24 23:23:54</time>
      </trkpt>
      <trkpt lat="40.77485" lon="0.71269">
        <ele>7</ele>
        <time>2022-05-24 23:23:55</time>
      </trkpt>
      <trkpt lat="40.77488" lon="0.71272">
        <ele>6.8</ele>
        <time>2022-05-24 23:23:56</time>
      </trkpt>
      <trkpt lat="40.77491" lon="0.71275">
        <ele>6.6</ele>
        <time>2022-05-24 23:23:57</time>
      </trkpt>
      <trkpt lat="40.77494" lon="0.71278">
        <ele>6.6</ele>
        <time>2022-05-24 23:23:58</time>
      </trkpt>
      <trkpt lat="40.77497" lon="0.7128">
        <ele>6.6</ele>
        <time>2022-05-24 23:23:59</time>
      </trkpt>
      <trkpt lat="40.77501" lon="0.71283">
        <ele>7</ele>
        <time>2022-05-24 23:24:00</time>
      </trkpt>
      <trkpt lat="40.77503" lon="0.71286">
        <ele>7.2</ele>
        <time>2022-05-24 23:24:01</time>
      </trkpt>
      <trkpt lat="40.77506" lon="0.71289">
        <ele>7</ele>
        <time>2022-05-24 23:24:02</time>
      </trkpt>
      <trkpt lat="40.77509" lon="0.71292">
        <ele>7.2</ele>
        <time>2022-05-24 23:24:03</time>
      </trkpt>
      <trkpt lat="40.77512" lon="0.71295">
        <ele>7.2</ele>
        <time>2022-05-24 23:24:04</time>
      </trkpt>
      <trkpt lat="40.77515" lon="0.71298">
        <ele>7.2</ele>
        <time>2022-05-24 23:24:05</time>
      </trkpt>
      <trkpt lat="40.77518" lon="0.71302">
        <ele>7.2</ele>
        <time>2022-05-24 23:24:06</time>
      </trkpt>
      <trkpt lat="40.77521" lon="0.71305">
        <ele>7.2</ele>
        <time>2022-05-24 23:24:07</time>
      </trkpt>
      <trkpt lat="40.77524" lon="0.71309">
        <ele>7</ele>
        <time>2022-05-24 23:24:08</time>
      </trkpt>
      <trkpt lat="40.77528" lon="0.71313">
        <ele>6.8</ele>
        <time>2022-05-24 23:24:09</time>
      </trkpt>
      <trkpt lat="40.77531" lon="0.71316">
        <ele>6.6</ele>
        <time>2022-05-24 23:24:10</time>
      </trkpt>
      <trkpt lat="40.77534" lon="0.71319">
        <ele>6.4</ele>
        <time>2022-05-24 23:24:11</time>
      </trkpt>
      <trkpt lat="40.77537" lon="0.71323">
        <ele>6.4</ele>
        <time>2022-05-24 23:24:12</time>
      </trkpt>
      <trkpt lat="40.7754" lon="0.71326">
        <ele>6.4</ele>
        <time>2022-05-24 23:24:13</time>
      </trkpt>
      <trkpt lat="40.77543" lon="0.71329">
        <ele>6.2</ele>
        <time>2022-05-24 23:24:14</time>
      </trkpt>
      <trkpt lat="40.77546" lon="0.71333">
        <ele>6.2</ele>
        <time>2022-05-24 23:24:15</time>
      </trkpt>
      <trkpt lat="40.77549" lon="0.71336">
        <ele>6.2</ele>
        <time>2022-05-24 23:24:16</time>
      </trkpt>
      <trkpt lat="40.77552" lon="0.7134">
        <ele>6</ele>
        <time>2022-05-24 23:24:17</time>
      </trkpt>
      <trkpt lat="40.77555" lon="0.71344">
        <ele>5.8</ele>
        <time>2022-05-24 23:24:18</time>
      </trkpt>
      <trkpt lat="40.77559" lon="0.71348">
        <ele>5.6</ele>
        <time>2022-05-24 23:24:19</time>
      </trkpt>
      <trkpt lat="40.77562" lon="0.71351">
        <ele>5.4</ele>
        <time>2022-05-24 23:24:20</time>
      </trkpt>
      <trkpt lat="40.77565" lon="0.71355">
        <ele>5.2</ele>
        <time>2022-05-24 23:24:21</time>
      </trkpt>
      <trkpt lat="40.77567" lon="0.71359">
        <ele>5.4</ele>
        <time>2022-05-24 23:24:22</time>
      </trkpt>
      <trkpt lat="40.7757" lon="0.71363">
        <ele>5.4</ele>
        <time>2022-05-24 23:24:23</time>
      </trkpt>
      <trkpt lat="40.77572" lon="0.71366">
        <ele>5.4</ele>
        <time>2022-05-24 23:24:24</time>
      </trkpt>
      <trkpt lat="40.77575" lon="0.7137">
        <ele>5.6</ele>
        <time>2022-05-24 23:24:25</time>
      </trkpt>
      <trkpt lat="40.77578" lon="0.71373">
        <ele>5.8</ele>
        <time>2022-05-24 23:24:26</time>
      </trkpt>
      <trkpt lat="40.77581" lon="0.71377">
        <ele>6</ele>
        <time>2022-05-24 23:24:27</time>
      </trkpt>
      <trkpt lat="40.77583" lon="0.7138">
        <ele>6.2</ele>
        <time>2022-05-24 23:24:28</time>
      </trkpt>
      <trkpt lat="40.77586" lon="0.71384">
        <ele>6.4</ele>
        <time>2022-05-24 23:24:29</time>
      </trkpt>
      <trkpt lat="40.77589" lon="0.71387">
        <ele>6.4</ele>
        <time>2022-05-24 23:24:30</time>
      </trkpt>
      <trkpt lat="40.77591" lon="0.71391">
        <ele>6.4</ele>
        <time>2022-05-24 23:24:31</time>
      </trkpt>
      <trkpt lat="40.77594" lon="0.71394">
        <ele>6.4</ele>
        <time>2022-05-24 23:24:32</time>
      </trkpt>
      <trkpt lat="40.77597" lon="0.71397">
        <ele>6.4</ele>
        <time>2022-05-24 23:24:33</time>
      </trkpt>
      <trkpt lat="40.77599" lon="0.71401">
        <ele>6.4</ele>
        <time>2022-05-24 23:24:34</time>
      </trkpt>
      <trkpt lat="40.77602" lon="0.71404">
        <ele>6.4</ele>
        <time>2022-05-24 23:24:35</time>
      </trkpt>
      <trkpt lat="40.77605" lon="0.71408">
        <ele>6.4</ele>
        <time>2022-05-24 23:24:36</time>
      </trkpt>
      <trkpt lat="40.77608" lon="0.71412">
        <ele>6.6</ele>
        <time>2022-05-24 23:24:37</time>
      </trkpt>
      <trkpt lat="40.77611" lon="0.71416">
        <ele>6.6</ele>
        <time>2022-05-24 23:24:38</time>
      </trkpt>
      <trkpt lat="40.77614" lon="0.71419">
        <ele>6.4</ele>
        <time>2022-05-24 23:24:39</time>
      </trkpt>
      <trkpt lat="40.77617" lon="0.71423">
        <ele>6.2</ele>
        <time>2022-05-24 23:24:40</time>
      </trkpt>
      <trkpt lat="40.7762" lon="0.71427">
        <ele>6.2</ele>
        <time>2022-05-24 23:24:41</time>
      </trkpt>
      <trkpt lat="40.77623" lon="0.7143">
        <ele>6.2</ele>
        <time>2022-05-24 23:24:42</time>
      </trkpt>
      <trkpt lat="40.77625" lon="0.71434">
        <ele>6.2</ele>
        <time>2022-05-24 23:24:43</time>
      </trkpt>
      <trkpt lat="40.77628" lon="0.71438">
        <ele>6.2</ele>
        <time>2022-05-24 23:24:44</time>
      </trkpt>
      <trkpt lat="40.77631" lon="0.71441">
        <ele>6.2</ele>
        <time>2022-05-24 23:24:45</time>
      </trkpt>
      <trkpt lat="40.77634" lon="0.71445">
        <ele>6.2</ele>
        <time>2022-05-24 23:24:46</time>
      </trkpt>
      <trkpt lat="40.77637" lon="0.71448">
        <ele>6</ele>
        <time>2022-05-24 23:24:47</time>
      </trkpt>
      <trkpt lat="40.77639" lon="0.71452">
        <ele>6.2</ele>
        <time>2022-05-24 23:24:48</time>
      </trkpt>
      <trkpt lat="40.77642" lon="0.71456">
        <ele>6.2</ele>
        <time>2022-05-24 23:24:49</time>
      </trkpt>
      <trkpt lat="40.77645" lon="0.7146">
        <ele>6.2</ele>
        <time>2022-05-24 23:24:50</time>
      </trkpt>
      <trkpt lat="40.77648" lon="0.71464">
        <ele>6.2</ele>
        <time>2022-05-24 23:24:51</time>
      </trkpt>
      <trkpt lat="40.7765" lon="0.71467">
        <ele>6.2</ele>
        <time>2022-05-24 23:24:52</time>
      </trkpt>
      <trkpt lat="40.77653" lon="0.7147">
        <ele>6.4</ele>
        <time>2022-05-24 23:24:53</time>
      </trkpt>
      <trkpt lat="40.77657" lon="0.71474">
        <ele>6.6</ele>
        <time>2022-05-24 23:24:54</time>
      </trkpt>
      <trkpt lat="40.7766" lon="0.71478">
        <ele>6.6</ele>
        <time>2022-05-24 23:24:55</time>
      </trkpt>
      <trkpt lat="40.77663" lon="0.71481">
        <ele>6.8</ele>
        <time>2022-05-24 23:24:56</time>
      </trkpt>
      <trkpt lat="40.77665" lon="0.71484">
        <ele>6.6</ele>
        <time>2022-05-24 23:24:57</time>
      </trkpt>
      <trkpt lat="40.77668" lon="0.71489">
        <ele>6.4</ele>
        <time>2022-05-24 23:24:58</time>
      </trkpt>
      <trkpt lat="40.77671" lon="0.71492">
        <ele>6</ele>
        <time>2022-05-24 23:24:59</time>
      </trkpt>
      <trkpt lat="40.77674" lon="0.71496">
        <ele>5.8</ele>
        <time>2022-05-24 23:25:00</time>
      </trkpt>
      <trkpt lat="40.77678" lon="0.71499">
        <ele>5.8</ele>
        <time>2022-05-24 23:25:01</time>
      </trkpt>
      <trkpt lat="40.77681" lon="0.71502">
        <ele>5.6</ele>
        <time>2022-05-24 23:25:02</time>
      </trkpt>
      <trkpt lat="40.77684" lon="0.71505">
        <ele>5.4</ele>
        <time>2022-05-24 23:25:03</time>
      </trkpt>
      <trkpt lat="40.77687" lon="0.71508">
        <ele>5.2</ele>
        <time>2022-05-24 23:25:04</time>
      </trkpt>
      <trkpt lat="40.7769" lon="0.71511">
        <ele>5</ele>
        <time>2022-05-24 23:25:05</time>
      </trkpt>
      <trkpt lat="40.77693" lon="0.71514">
        <ele>5</ele>
        <time>2022-05-24 23:25:06</time>
      </trkpt>
      <trkpt lat="40.77696" lon="0.71517">
        <ele>5.2</ele>
        <time>2022-05-24 23:25:07</time>
      </trkpt>
      <trkpt lat="40.77699" lon="0.7152">
        <ele>5.6</ele>
        <time>2022-05-24 23:25:08</time>
      </trkpt>
      <trkpt lat="40.77702" lon="0.71523">
        <ele>5.6</ele>
        <time>2022-05-24 23:25:09</time>
      </trkpt>
      <trkpt lat="40.77705" lon="0.71526">
        <ele>5.6</ele>
        <time>2022-05-24 23:25:10</time>
      </trkpt>
      <trkpt lat="40.77708" lon="0.71529">
        <ele>5.6</ele>
        <time>2022-05-24 23:25:11</time>
      </trkpt>
      <trkpt lat="40.77711" lon="0.71532">
        <ele>5.4</ele>
        <time>2022-05-24 23:25:12</time>
      </trkpt>
      <trkpt lat="40.77713" lon="0.71535">
        <ele>5.4</ele>
        <time>2022-05-24 23:25:13</time>
      </trkpt>
      <trkpt lat="40.77715" lon="0.71539">
        <ele>5.4</ele>
        <time>2022-05-24 23:25:14</time>
      </trkpt>
      <trkpt lat="40.77718" lon="0.71542">
        <ele>5.4</ele>
        <time>2022-05-24 23:25:15</time>
      </trkpt>
      <trkpt lat="40.7772" lon="0.71546">
        <ele>5.2</ele>
        <time>2022-05-24 23:25:16</time>
      </trkpt>
      <trkpt lat="40.77722" lon="0.7155">
        <ele>5.2</ele>
        <time>2022-05-24 23:25:17</time>
      </trkpt>
      <trkpt lat="40.77724" lon="0.71554">
        <ele>5.2</ele>
        <time>2022-05-24 23:25:18</time>
      </trkpt>
      <trkpt lat="40.77727" lon="0.71558">
        <ele>5.2</ele>
        <time>2022-05-24 23:25:19</time>
      </trkpt>
      <trkpt lat="40.77729" lon="0.71562">
        <ele>5.2</ele>
        <time>2022-05-24 23:25:20</time>
      </trkpt>
      <trkpt lat="40.77732" lon="0.71565">
        <ele>5.2</ele>
        <time>2022-05-24 23:25:21</time>
      </trkpt>
      <trkpt lat="40.77734" lon="0.71569">
        <ele>5.2</ele>
        <time>2022-05-24 23:25:22</time>
      </trkpt>
      <trkpt lat="40.77736" lon="0.71573">
        <ele>5.2</ele>
        <time>2022-05-24 23:25:23</time>
      </trkpt>
      <trkpt lat="40.77738" lon="0.71578">
        <ele>5.2</ele>
        <time>2022-05-24 23:25:24</time>
      </trkpt>
      <trkpt lat="40.7774" lon="0.71582">
        <ele>5.2</ele>
        <time>2022-05-24 23:25:25</time>
      </trkpt>
      <trkpt lat="40.77742" lon="0.71586">
        <ele>5.2</ele>
        <time>2022-05-24 23:25:26</time>
      </trkpt>
      <trkpt lat="40.77745" lon="0.7159">
        <ele>5.4</ele>
        <time>2022-05-24 23:25:27</time>
      </trkpt>
      <trkpt lat="40.77747" lon="0.71595">
        <ele>5.4</ele>
        <time>2022-05-24 23:25:28</time>
      </trkpt>
      <trkpt lat="40.77749" lon="0.71599">
        <ele>5.6</ele>
        <time>2022-05-24 23:25:29</time>
      </trkpt>
      <trkpt lat="40.77751" lon="0.71604">
        <ele>5.6</ele>
        <time>2022-05-24 23:25:30</time>
      </trkpt>
      <trkpt lat="40.77753" lon="0.71608">
        <ele>5.6</ele>
        <time>2022-05-24 23:25:31</time>
      </trkpt>
      <trkpt lat="40.77755" lon="0.71613">
        <ele>5.6</ele>
        <time>2022-05-24 23:25:32</time>
      </trkpt>
      <trkpt lat="40.77757" lon="0.71617">
        <ele>5.6</ele>
        <time>2022-05-24 23:25:33</time>
      </trkpt>
      <trkpt lat="40.77759" lon="0.71622">
        <ele>5.8</ele>
        <time>2022-05-24 23:25:34</time>
      </trkpt>
      <trkpt lat="40.77761" lon="0.71626">
        <ele>5.8</ele>
        <time>2022-05-24 23:25:35</time>
      </trkpt>
      <trkpt lat="40.77763" lon="0.7163">
        <ele>5.8</ele>
        <time>2022-05-24 23:25:36</time>
      </trkpt>
      <trkpt lat="40.77765" lon="0.71634">
        <ele>5.8</ele>
        <time>2022-05-24 23:25:37</time>
      </trkpt>
      <trkpt lat="40.77766" lon="0.71639">
        <ele>5.8</ele>
        <time>2022-05-24 23:25:38</time>
      </trkpt>
      <trkpt lat="40.77768" lon="0.71642">
        <ele>5.8</ele>
        <time>2022-05-24 23:25:39</time>
      </trkpt>
      <trkpt lat="40.7777" lon="0.71646">
        <ele>6</ele>
        <time>2022-05-24 23:25:40</time>
      </trkpt>
      <trkpt lat="40.77771" lon="0.7165">
        <ele>5.8</ele>
        <time>2022-05-24 23:25:41</time>
      </trkpt>
      <trkpt lat="40.77773" lon="0.71654">
        <ele>5.4</ele>
        <time>2022-05-24 23:25:42</time>
      </trkpt>
      <trkpt lat="40.77775" lon="0.71658">
        <ele>5.2</ele>
        <time>2022-05-24 23:25:43</time>
      </trkpt>
      <trkpt lat="40.77776" lon="0.71662">
        <ele>5</ele>
        <time>2022-05-24 23:25:44</time>
      </trkpt>
      <trkpt lat="40.77777" lon="0.71665">
        <ele>4.8</ele>
        <time>2022-05-24 23:25:45</time>
      </trkpt>
      <trkpt lat="40.7778" lon="0.7167">
        <ele>4.8</ele>
        <time>2022-05-24 23:25:46</time>
      </trkpt>
      <trkpt lat="40.77781" lon="0.71674">
        <ele>4.6</ele>
        <time>2022-05-24 23:25:47</time>
      </trkpt>
      <trkpt lat="40.77783" lon="0.71678">
        <ele>4.4</ele>
        <time>2022-05-24 23:25:48</time>
      </trkpt>
      <trkpt lat="40.77785" lon="0.71682">
        <ele>4.4</ele>
        <time>2022-05-24 23:25:49</time>
      </trkpt>
      <trkpt lat="40.77787" lon="0.71685">
        <ele>4.4</ele>
        <time>2022-05-24 23:25:50</time>
      </trkpt>
      <trkpt lat="40.77789" lon="0.71687">
        <ele>4.4</ele>
        <time>2022-05-24 23:25:51</time>
      </trkpt>
      <trkpt lat="40.7779" lon="0.7169">
        <ele>4.4</ele>
        <time>2022-05-24 23:25:52</time>
      </trkpt>
      <trkpt lat="40.77791" lon="0.71692">
        <ele>4.6</ele>
        <time>2022-05-24 23:25:53</time>
      </trkpt>
      <trkpt lat="40.77792" lon="0.71694">
        <ele>4.6</ele>
        <time>2022-05-24 23:25:54</time>
      </trkpt>
      <trkpt lat="40.77793" lon="0.71696">
        <ele>4.6</ele>
        <time>2022-05-24 23:25:55</time>
      </trkpt>
      <trkpt lat="40.77794" lon="0.71698">
        <ele>4.8</ele>
        <time>2022-05-24 23:25:56</time>
      </trkpt>
      <trkpt lat="40.77795" lon="0.71701">
        <ele>4.8</ele>
        <time>2022-05-24 23:25:57</time>
      </trkpt>
      <trkpt lat="40.77795" lon="0.71704">
        <ele>5</ele>
        <time>2022-05-24 23:25:58</time>
      </trkpt>
      <trkpt lat="40.77796" lon="0.71708">
        <ele>4.8</ele>
        <time>2022-05-24 23:25:59</time>
      </trkpt>
      <trkpt lat="40.77797" lon="0.71712">
        <ele>4.8</ele>
        <time>2022-05-24 23:26:00</time>
      </trkpt>
      <trkpt lat="40.77798" lon="0.71716">
        <ele>4.8</ele>
        <time>2022-05-24 23:26:01</time>
      </trkpt>
      <trkpt lat="40.77799" lon="0.71719">
        <ele>4.8</ele>
        <time>2022-05-24 23:26:02</time>
      </trkpt>
      <trkpt lat="40.778" lon="0.71723">
        <ele>4.6</ele>
        <time>2022-05-24 23:26:03</time>
      </trkpt>
      <trkpt lat="40.77801" lon="0.71727">
        <ele>4.6</ele>
        <time>2022-05-24 23:26:04</time>
      </trkpt>
      <trkpt lat="40.77802" lon="0.7173">
        <ele>4.6</ele>
        <time>2022-05-24 23:26:05</time>
      </trkpt>
      <trkpt lat="40.77802" lon="0.71733">
        <ele>4.6</ele>
        <time>2022-05-24 23:26:06</time>
      </trkpt>
      <trkpt lat="40.77803" lon="0.71736">
        <ele>4.6</ele>
        <time>2022-05-24 23:26:07</time>
      </trkpt>
      <trkpt lat="40.77804" lon="0.71739">
        <ele>4.6</ele>
        <time>2022-05-24 23:26:08</time>
      </trkpt>
      <trkpt lat="40.77805" lon="0.71742">
        <ele>4.6</ele>
        <time>2022-05-24 23:26:09</time>
      </trkpt>
      <trkpt lat="40.77806" lon="0.71746">
        <ele>4.6</ele>
        <time>2022-05-24 23:26:10</time>
      </trkpt>
      <trkpt lat="40.77807" lon="0.71749">
        <ele>4.8</ele>
        <time>2022-05-24 23:26:11</time>
      </trkpt>
      <trkpt lat="40.77808" lon="0.71753">
        <ele>4.8</ele>
        <time>2022-05-24 23:26:12</time>
      </trkpt>
      <trkpt lat="40.77809" lon="0.71757">
        <ele>4.8</ele>
        <time>2022-05-24 23:26:13</time>
      </trkpt>
      <trkpt lat="40.7781" lon="0.71761">
        <ele>4.8</ele>
        <time>2022-05-24 23:26:14</time>
      </trkpt>
      <trkpt lat="40.77812" lon="0.71765">
        <ele>4.8</ele>
        <time>2022-05-24 23:26:15</time>
      </trkpt>
      <trkpt lat="40.77813" lon="0.71768">
        <ele>4.8</ele>
        <time>2022-05-24 23:26:16</time>
      </trkpt>
      <trkpt lat="40.77816" lon="0.71772">
        <ele>4.6</ele>
        <time>2022-05-24 23:26:17</time>
      </trkpt>
      <trkpt lat="40.77818" lon="0.71774">
        <ele>4.6</ele>
        <time>2022-05-24 23:26:18</time>
      </trkpt>
      <trkpt lat="40.77821" lon="0.71777">
        <ele>4.6</ele>
        <time>2022-05-24 23:26:19</time>
      </trkpt>
      <trkpt lat="40.77823" lon="0.7178">
        <ele>4.6</ele>
        <time>2022-05-24 23:26:20</time>
      </trkpt>
      <trkpt lat="40.77826" lon="0.71782">
        <ele>4.6</ele>
        <time>2022-05-24 23:26:21</time>
      </trkpt>
      <trkpt lat="40.77828" lon="0.71782">
        <ele>4.6</ele>
        <time>2022-05-24 23:26:22</time>
      </trkpt>
      <trkpt lat="40.77831" lon="0.71783">
        <ele>4.6</ele>
        <time>2022-05-24 23:26:23</time>
      </trkpt>
      <trkpt lat="40.77832" lon="0.71782">
        <ele>4.8</ele>
        <time>2022-05-24 23:26:24</time>
      </trkpt>
      <trkpt lat="40.77834" lon="0.71782">
        <ele>4.8</ele>
        <time>2022-05-24 23:26:25</time>
      </trkpt>
      <trkpt lat="40.77835" lon="0.71782">
        <ele>4.4</ele>
        <time>2022-05-24 23:26:26</time>
      </trkpt>
      <trkpt lat="40.77837" lon="0.71781">
        <ele>4.2</ele>
        <time>2022-05-24 23:26:27</time>
      </trkpt>
      <trkpt lat="40.7784" lon="0.71781">
        <ele>4.2</ele>
        <time>2022-05-24 23:26:28</time>
      </trkpt>
      <trkpt lat="40.77843" lon="0.7178">
        <ele>4</ele>
        <time>2022-05-24 23:26:29</time>
      </trkpt>
      <trkpt lat="40.77846" lon="0.7178">
        <ele>4</ele>
        <time>2022-05-24 23:26:30</time>
      </trkpt>
      <trkpt lat="40.77849" lon="0.71781">
        <ele>3.8</ele>
        <time>2022-05-24 23:26:31</time>
      </trkpt>
      <trkpt lat="40.77852" lon="0.71783">
        <ele>3.6</ele>
        <time>2022-05-24 23:26:32</time>
      </trkpt>
      <trkpt lat="40.77855" lon="0.71785">
        <ele>3.6</ele>
        <time>2022-05-24 23:26:33</time>
      </trkpt>
      <trkpt lat="40.77858" lon="0.71787">
        <ele>3.4</ele>
        <time>2022-05-24 23:26:34</time>
      </trkpt>
      <trkpt lat="40.77861" lon="0.71789">
        <ele>3.2</ele>
        <time>2022-05-24 23:26:35</time>
      </trkpt>
      <trkpt lat="40.77864" lon="0.71792">
        <ele>3</ele>
        <time>2022-05-24 23:26:36</time>
      </trkpt>
      <trkpt lat="40.77867" lon="0.71794">
        <ele>3</ele>
        <time>2022-05-24 23:26:37</time>
      </trkpt>
      <trkpt lat="40.7787" lon="0.71795">
        <ele>2.8</ele>
        <time>2022-05-24 23:26:38</time>
      </trkpt>
      <trkpt lat="40.77872" lon="0.71796">
        <ele>2.8</ele>
        <time>2022-05-24 23:26:39</time>
      </trkpt>
      <trkpt lat="40.77874" lon="0.71798">
        <ele>3</ele>
        <time>2022-05-24 23:26:40</time>
      </trkpt>
      <trkpt lat="40.77876" lon="0.71799">
        <ele>3</ele>
        <time>2022-05-24 23:26:41</time>
      </trkpt>
      <trkpt lat="40.77879" lon="0.718">
        <ele>2.8</ele>
        <time>2022-05-24 23:26:42</time>
      </trkpt>
      <trkpt lat="40.77882" lon="0.71801">
        <ele>2.8</ele>
        <time>2022-05-24 23:26:43</time>
      </trkpt>
      <trkpt lat="40.77885" lon="0.71801">
        <ele>2.8</ele>
        <time>2022-05-24 23:26:44</time>
      </trkpt>
      <trkpt lat="40.77888" lon="0.71801">
        <ele>2.6</ele>
        <time>2022-05-24 23:26:45</time>
      </trkpt>
      <trkpt lat="40.7789" lon="0.718">
        <ele>2.6</ele>
        <time>2022-05-24 23:26:46</time>
      </trkpt>
      <trkpt lat="40.77892" lon="0.71799">
        <ele>2.6</ele>
        <time>2022-05-24 23:26:47</time>
      </trkpt>
      <trkpt lat="40.77893" lon="0.71799">
        <ele>2.8</ele>
        <time>2022-05-24 23:26:48</time>
      </trkpt>
      <trkpt lat="40.77893" lon="0.71799">
        <ele>2.8</ele>
        <time>2022-05-24 23:26:49</time>
      </trkpt>
      <trkpt lat="40.77893" lon="0.71799">
        <ele>3</ele>
        <time>2022-05-24 23:26:50</time>
      </trkpt>
      <trkpt lat="40.77893" lon="0.71799">
        <ele>3</ele>
        <time>2022-05-24 23:26:51</time>
      </trkpt>
      <trkpt lat="40.77893" lon="0.71799">
        <ele>3</ele>
        <time>2022-05-24 23:26:52</time>
      </trkpt>
      <trkpt lat="40.77893" lon="0.71799">
        <ele>2.8</ele>
        <time>2022-05-24 23:26:53</time>
      </trkpt>
      <trkpt lat="40.77893" lon="0.71799">
        <ele>2.8</ele>
        <time>2022-05-24 23:26:54</time>
      </trkpt>
      <trkpt lat="40.77893" lon="0.71799">
        <ele>3</ele>
        <time>2022-05-24 23:26:55</time>
      </trkpt>
      <trkpt lat="40.77893" lon="0.71799">
        <ele>3</ele>
        <time>2022-05-24 23:26:56</time>
      </trkpt>
      <trkpt lat="40.77893" lon="0.71799">
        <ele>3</ele>
        <time>2022-05-24 23:26:57</time>
      </trkpt>
      <trkpt lat="40.77891" lon="0.71807">
        <ele>4</ele>
        <time>2022-05-24 23:28:25</time>
      </trkpt>
      <trkpt lat="40.77895" lon="0.71805">
        <ele>4</ele>
        <time>2022-05-24 23:28:26</time>
      </trkpt>
      <trkpt lat="40.77901" lon="0.71803">
        <ele>4</ele>
        <time>2022-05-24 23:28:27</time>
      </trkpt>
      <trkpt lat="40.77902" lon="0.71802">
        <ele>4.2</ele>
        <time>2022-05-24 23:28:28</time>
      </trkpt>
      <trkpt lat="40.77904" lon="0.71802">
        <ele>4.2</ele>
        <time>2022-05-24 23:28:29</time>
      </trkpt>
      <trkpt lat="40.77905" lon="0.71801">
        <ele>4.2</ele>
        <time>2022-05-24 23:28:30</time>
      </trkpt>
      <trkpt lat="40.77907" lon="0.718">
        <ele>4.4</ele>
        <time>2022-05-24 23:28:31</time>
      </trkpt>
      <trkpt lat="40.77909" lon="0.71799">
        <ele>4.2</ele>
        <time>2022-05-24 23:28:32</time>
      </trkpt>
      <trkpt lat="40.77911" lon="0.71798">
        <ele>4.2</ele>
        <time>2022-05-24 23:28:33</time>
      </trkpt>
      <trkpt lat="40.77913" lon="0.71796">
        <ele>4</ele>
        <time>2022-05-24 23:28:34</time>
      </trkpt>
      <trkpt lat="40.77914" lon="0.71795">
        <ele>4</ele>
        <time>2022-05-24 23:28:35</time>
      </trkpt>
      <trkpt lat="40.77916" lon="0.71793">
        <ele>3.8</ele>
        <time>2022-05-24 23:28:36</time>
      </trkpt>
      <trkpt lat="40.77918" lon="0.71791">
        <ele>3.8</ele>
        <time>2022-05-24 23:28:37</time>
      </trkpt>
      <trkpt lat="40.77919" lon="0.71789">
        <ele>3.8</ele>
        <time>2022-05-24 23:28:38</time>
      </trkpt>
      <trkpt lat="40.77921" lon="0.71786">
        <ele>3.8</ele>
        <time>2022-05-24 23:28:39</time>
      </trkpt>
      <trkpt lat="40.77923" lon="0.71784">
        <ele>4</ele>
        <time>2022-05-24 23:28:40</time>
      </trkpt>
      <trkpt lat="40.77924" lon="0.71781">
        <ele>4</ele>
        <time>2022-05-24 23:28:41</time>
      </trkpt>
      <trkpt lat="40.77925" lon="0.71779">
        <ele>4.2</ele>
        <time>2022-05-24 23:28:42</time>
      </trkpt>
      <trkpt lat="40.77926" lon="0.71776">
        <ele>4.2</ele>
        <time>2022-05-24 23:28:43</time>
      </trkpt>
      <trkpt lat="40.77927" lon="0.71774">
        <ele>4.2</ele>
        <time>2022-05-24 23:28:44</time>
      </trkpt>
      <trkpt lat="40.77927" lon="0.71771">
        <ele>4</ele>
        <time>2022-05-24 23:28:45</time>
      </trkpt>
      <trkpt lat="40.77927" lon="0.71768">
        <ele>4</ele>
        <time>2022-05-24 23:28:46</time>
      </trkpt>
      <trkpt lat="40.77927" lon="0.71765">
        <ele>4</ele>
        <time>2022-05-24 23:28:47</time>
      </trkpt>
      <trkpt lat="40.77927" lon="0.71762">
        <ele>4</ele>
        <time>2022-05-24 23:28:48</time>
      </trkpt>
      <trkpt lat="40.77927" lon="0.71759">
        <ele>4</ele>
        <time>2022-05-24 23:28:49</time>
      </trkpt>
      <trkpt lat="40.77927" lon="0.71755">
        <ele>4.2</ele>
        <time>2022-05-24 23:28:50</time>
      </trkpt>
      <trkpt lat="40.77927" lon="0.71752">
        <ele>4.4</ele>
        <time>2022-05-24 23:28:51</time>
      </trkpt>
      <trkpt lat="40.77926" lon="0.71748">
        <ele>4.8</ele>
        <time>2022-05-24 23:28:52</time>
      </trkpt>
      <trkpt lat="40.77925" lon="0.71744">
        <ele>4.8</ele>
        <time>2022-05-24 23:28:53</time>
      </trkpt>
      <trkpt lat="40.77924" lon="0.71741">
        <ele>5</ele>
        <time>2022-05-24 23:28:54</time>
      </trkpt>
      <trkpt lat="40.77924" lon="0.71737">
        <ele>5</ele>
        <time>2022-05-24 23:28:55</time>
      </trkpt>
      <trkpt lat="40.77924" lon="0.71733">
        <ele>5.2</ele>
        <time>2022-05-24 23:28:56</time>
      </trkpt>
      <trkpt lat="40.77924" lon="0.71729">
        <ele>5.2</ele>
        <time>2022-05-24 23:28:57</time>
      </trkpt>
      <trkpt lat="40.77925" lon="0.71726">
        <ele>5.2</ele>
        <time>2022-05-24 23:28:58</time>
      </trkpt>
      <trkpt lat="40.77926" lon="0.71723">
        <ele>5</ele>
        <time>2022-05-24 23:28:59</time>
      </trkpt>
      <trkpt lat="40.77928" lon="0.7172">
        <ele>4.8</ele>
        <time>2022-05-24 23:29:00</time>
      </trkpt>
      <trkpt lat="40.7793" lon="0.71718">
        <ele>4.8</ele>
        <time>2022-05-24 23:29:01</time>
      </trkpt>
      <trkpt lat="40.77932" lon="0.71715">
        <ele>4.6</ele>
        <time>2022-05-24 23:29:02</time>
      </trkpt>
      <trkpt lat="40.77934" lon="0.71712">
        <ele>4.6</ele>
        <time>2022-05-24 23:29:03</time>
      </trkpt>
      <trkpt lat="40.77936" lon="0.7171">
        <ele>4.6</ele>
        <time>2022-05-24 23:29:04</time>
      </trkpt>
      <trkpt lat="40.77938" lon="0.71707">
        <ele>4.6</ele>
        <time>2022-05-24 23:29:05</time>
      </trkpt>
      <trkpt lat="40.77941" lon="0.71704">
        <ele>4.6</ele>
        <time>2022-05-24 23:29:06</time>
      </trkpt>
      <trkpt lat="40.77943" lon="0.71702">
        <ele>4.8</ele>
        <time>2022-05-24 23:29:07</time>
      </trkpt>
      <trkpt lat="40.77946" lon="0.71699">
        <ele>4.8</ele>
        <time>2022-05-24 23:29:08</time>
      </trkpt>
      <trkpt lat="40.77948" lon="0.71696">
        <ele>4.8</ele>
        <time>2022-05-24 23:29:09</time>
      </trkpt>
      <trkpt lat="40.77951" lon="0.71694">
        <ele>4.8</ele>
        <time>2022-05-24 23:29:10</time>
      </trkpt>
      <trkpt lat="40.77953" lon="0.71692">
        <ele>4.8</ele>
        <time>2022-05-24 23:29:11</time>
      </trkpt>
      <trkpt lat="40.77956" lon="0.7169">
        <ele>5</ele>
        <time>2022-05-24 23:29:12</time>
      </trkpt>
      <trkpt lat="40.77958" lon="0.71687">
        <ele>5.2</ele>
        <time>2022-05-24 23:29:13</time>
      </trkpt>
      <trkpt lat="40.77961" lon="0.71685">
        <ele>5.2</ele>
        <time>2022-05-24 23:29:14</time>
      </trkpt>
      <trkpt lat="40.77963" lon="0.71682">
        <ele>5.4</ele>
        <time>2022-05-24 23:29:15</time>
      </trkpt>
      <trkpt lat="40.77966" lon="0.7168">
        <ele>5.4</ele>
        <time>2022-05-24 23:29:16</time>
      </trkpt>
      <trkpt lat="40.77968" lon="0.71677">
        <ele>5.6</ele>
        <time>2022-05-24 23:29:17</time>
      </trkpt>
      <trkpt lat="40.7797" lon="0.71674">
        <ele>5.6</ele>
        <time>2022-05-24 23:29:18</time>
      </trkpt>
      <trkpt lat="40.77973" lon="0.7167">
        <ele>5.6</ele>
        <time>2022-05-24 23:29:19</time>
      </trkpt>
      <trkpt lat="40.77975" lon="0.71667">
        <ele>5.6</ele>
        <time>2022-05-24 23:29:20</time>
      </trkpt>
      <trkpt lat="40.77977" lon="0.71663">
        <ele>5.4</ele>
        <time>2022-05-24 23:29:21</time>
      </trkpt>
      <trkpt lat="40.7798" lon="0.7166">
        <ele>5.4</ele>
        <time>2022-05-24 23:29:22</time>
      </trkpt>
      <trkpt lat="40.77982" lon="0.71657">
        <ele>5.4</ele>
        <time>2022-05-24 23:29:23</time>
      </trkpt>
      <trkpt lat="40.77984" lon="0.71654">
        <ele>5.2</ele>
        <time>2022-05-24 23:29:24</time>
      </trkpt>
      <trkpt lat="40.77987" lon="0.71651">
        <ele>5.2</ele>
        <time>2022-05-24 23:29:25</time>
      </trkpt>
      <trkpt lat="40.77989" lon="0.71648">
        <ele>5.2</ele>
        <time>2022-05-24 23:29:26</time>
      </trkpt>
      <trkpt lat="40.77991" lon="0.71645">
        <ele>5.2</ele>
        <time>2022-05-24 23:29:27</time>
      </trkpt>
      <trkpt lat="40.77993" lon="0.71642">
        <ele>5</ele>
        <time>2022-05-24 23:29:28</time>
      </trkpt>
      <trkpt lat="40.77996" lon="0.71639">
        <ele>5</ele>
        <time>2022-05-24 23:29:29</time>
      </trkpt>
      <trkpt lat="40.77998" lon="0.71636">
        <ele>5</ele>
        <time>2022-05-24 23:29:30</time>
      </trkpt>
      <trkpt lat="40.78" lon="0.71633">
        <ele>4.8</ele>
        <time>2022-05-24 23:29:31</time>
      </trkpt>
      <trkpt lat="40.78003" lon="0.7163">
        <ele>4.8</ele>
        <time>2022-05-24 23:29:32</time>
      </trkpt>
      <trkpt lat="40.78005" lon="0.71627">
        <ele>4.6</ele>
        <time>2022-05-24 23:29:33</time>
      </trkpt>
      <trkpt lat="40.78007" lon="0.71624">
        <ele>4.6</ele>
        <time>2022-05-24 23:29:34</time>
      </trkpt>
      <trkpt lat="40.78009" lon="0.71621">
        <ele>4.6</ele>
        <time>2022-05-24 23:29:35</time>
      </trkpt>
      <trkpt lat="40.78012" lon="0.71618">
        <ele>4.6</ele>
        <time>2022-05-24 23:29:36</time>
      </trkpt>
      <trkpt lat="40.78014" lon="0.71615">
        <ele>4.8</ele>
        <time>2022-05-24 23:29:37</time>
      </trkpt>
      <trkpt lat="40.78016" lon="0.71612">
        <ele>5</ele>
        <time>2022-05-24 23:29:38</time>
      </trkpt>
      <trkpt lat="40.78019" lon="0.71608">
        <ele>5.2</ele>
        <time>2022-05-24 23:29:39</time>
      </trkpt>
      <trkpt lat="40.78021" lon="0.71605">
        <ele>5.2</ele>
        <time>2022-05-24 23:29:40</time>
      </trkpt>
      <trkpt lat="40.78024" lon="0.71602">
        <ele>5.2</ele>
        <time>2022-05-24 23:29:41</time>
      </trkpt>
      <trkpt lat="40.78026" lon="0.71598">
        <ele>5.2</ele>
        <time>2022-05-24 23:29:42</time>
      </trkpt>
      <trkpt lat="40.78028" lon="0.71595">
        <ele>5.2</ele>
        <time>2022-05-24 23:29:43</time>
      </trkpt>
      <trkpt lat="40.7803" lon="0.71591">
        <ele>5</ele>
        <time>2022-05-24 23:29:44</time>
      </trkpt>
      <trkpt lat="40.78033" lon="0.71588">
        <ele>4.8</ele>
        <time>2022-05-24 23:29:45</time>
      </trkpt>
      <trkpt lat="40.78035" lon="0.71585">
        <ele>4.8</ele>
        <time>2022-05-24 23:29:46</time>
      </trkpt>
      <trkpt lat="40.78036" lon="0.71581">
        <ele>4.6</ele>
        <time>2022-05-24 23:29:47</time>
      </trkpt>
      <trkpt lat="40.78039" lon="0.71578">
        <ele>4.8</ele>
        <time>2022-05-24 23:29:48</time>
      </trkpt>
      <trkpt lat="40.78041" lon="0.71575">
        <ele>4.8</ele>
        <time>2022-05-24 23:29:49</time>
      </trkpt>
      <trkpt lat="40.78043" lon="0.71572">
        <ele>4.6</ele>
        <time>2022-05-24 23:29:50</time>
      </trkpt>
      <trkpt lat="40.78045" lon="0.71569">
        <ele>4.6</ele>
        <time>2022-05-24 23:29:51</time>
      </trkpt>
      <trkpt lat="40.78047" lon="0.71566">
        <ele>4.6</ele>
        <time>2022-05-24 23:29:52</time>
      </trkpt>
      <trkpt lat="40.78049" lon="0.71563">
        <ele>4.6</ele>
        <time>2022-05-24 23:29:53</time>
      </trkpt>
      <trkpt lat="40.78051" lon="0.7156">
        <ele>4.6</ele>
        <time>2022-05-24 23:29:54</time>
      </trkpt>
      <trkpt lat="40.78052" lon="0.71557">
        <ele>4.6</ele>
        <time>2022-05-24 23:29:55</time>
      </trkpt>
      <trkpt lat="40.78054" lon="0.71554">
        <ele>4.4</ele>
        <time>2022-05-24 23:29:56</time>
      </trkpt>
      <trkpt lat="40.78056" lon="0.71551">
        <ele>4.4</ele>
        <time>2022-05-24 23:29:57</time>
      </trkpt>
      <trkpt lat="40.78058" lon="0.71549">
        <ele>4.6</ele>
        <time>2022-05-24 23:29:58</time>
      </trkpt>
      <trkpt lat="40.7806" lon="0.71546">
        <ele>4.6</ele>
        <time>2022-05-24 23:29:59</time>
      </trkpt>
      <trkpt lat="40.78062" lon="0.71543">
        <ele>4.8</ele>
        <time>2022-05-24 23:30:00</time>
      </trkpt>
      <trkpt lat="40.78064" lon="0.7154">
        <ele>4.8</ele>
        <time>2022-05-24 23:30:01</time>
      </trkpt>
      <trkpt lat="40.78067" lon="0.71537">
        <ele>4.8</ele>
        <time>2022-05-24 23:30:02</time>
      </trkpt>
      <trkpt lat="40.78069" lon="0.71534">
        <ele>4.8</ele>
        <time>2022-05-24 23:30:03</time>
      </trkpt>
      <trkpt lat="40.7807" lon="0.71532">
        <ele>4.8</ele>
        <time>2022-05-24 23:30:04</time>
      </trkpt>
      <trkpt lat="40.78072" lon="0.71528">
        <ele>4.8</ele>
        <time>2022-05-24 23:30:05</time>
      </trkpt>
      <trkpt lat="40.78074" lon="0.71526">
        <ele>4.8</ele>
        <time>2022-05-24 23:30:06</time>
      </trkpt>
      <trkpt lat="40.78076" lon="0.71523">
        <ele>4.8</ele>
        <time>2022-05-24 23:30:07</time>
      </trkpt>
      <trkpt lat="40.78078" lon="0.7152">
        <ele>4.8</ele>
        <time>2022-05-24 23:30:08</time>
      </trkpt>
      <trkpt lat="40.7808" lon="0.71518">
        <ele>4.8</ele>
        <time>2022-05-24 23:30:09</time>
      </trkpt>
      <trkpt lat="40.78082" lon="0.71515">
        <ele>4.6</ele>
        <time>2022-05-24 23:30:10</time>
      </trkpt>
      <trkpt lat="40.78083" lon="0.71513">
        <ele>4.6</ele>
        <time>2022-05-24 23:30:11</time>
      </trkpt>
      <trkpt lat="40.78085" lon="0.71511">
        <ele>4.6</ele>
        <time>2022-05-24 23:30:12</time>
      </trkpt>
      <trkpt lat="40.78087" lon="0.71508">
        <ele>4.6</ele>
        <time>2022-05-24 23:30:13</time>
      </trkpt>
      <trkpt lat="40.7809" lon="0.71505">
        <ele>4.6</ele>
        <time>2022-05-24 23:30:14</time>
      </trkpt>
      <trkpt lat="40.78092" lon="0.71503">
        <ele>4.8</ele>
        <time>2022-05-24 23:30:15</time>
      </trkpt>
      <trkpt lat="40.78094" lon="0.715">
        <ele>4.8</ele>
        <time>2022-05-24 23:30:16</time>
      </trkpt>
      <trkpt lat="40.78097" lon="0.71497">
        <ele>4.8</ele>
        <time>2022-05-24 23:30:17</time>
      </trkpt>
      <trkpt lat="40.78099" lon="0.71494">
        <ele>4.8</ele>
        <time>2022-05-24 23:30:18</time>
      </trkpt>
      <trkpt lat="40.78102" lon="0.71491">
        <ele>4.8</ele>
        <time>2022-05-24 23:30:19</time>
      </trkpt>
      <trkpt lat="40.78104" lon="0.71488">
        <ele>4.6</ele>
        <time>2022-05-24 23:30:20</time>
      </trkpt>
      <trkpt lat="40.78106" lon="0.71484">
        <ele>4.6</ele>
        <time>2022-05-24 23:30:21</time>
      </trkpt>
      <trkpt lat="40.78109" lon="0.71482">
        <ele>4.6</ele>
        <time>2022-05-24 23:30:22</time>
      </trkpt>
      <trkpt lat="40.78111" lon="0.71479">
        <ele>4.8</ele>
        <time>2022-05-24 23:30:23</time>
      </trkpt>
      <trkpt lat="40.78112" lon="0.71476">
        <ele>4.8</ele>
        <time>2022-05-24 23:30:24</time>
      </trkpt>
      <trkpt lat="40.78114" lon="0.71474">
        <ele>5</ele>
        <time>2022-05-24 23:30:25</time>
      </trkpt>
      <trkpt lat="40.78116" lon="0.71471">
        <ele>5</ele>
        <time>2022-05-24 23:30:26</time>
      </trkpt>
      <trkpt lat="40.78118" lon="0.71468">
        <ele>4.8</ele>
        <time>2022-05-24 23:30:27</time>
      </trkpt>
      <trkpt lat="40.7812" lon="0.71465">
        <ele>4.8</ele>
        <time>2022-05-24 23:30:28</time>
      </trkpt>
      <trkpt lat="40.78122" lon="0.71462">
        <ele>4.8</ele>
        <time>2022-05-24 23:30:29</time>
      </trkpt>
      <trkpt lat="40.78124" lon="0.7146">
        <ele>5</ele>
        <time>2022-05-24 23:30:30</time>
      </trkpt>
      <trkpt lat="40.78126" lon="0.71457">
        <ele>4.8</ele>
        <time>2022-05-24 23:30:31</time>
      </trkpt>
      <trkpt lat="40.78127" lon="0.71454">
        <ele>5</ele>
        <time>2022-05-24 23:30:32</time>
      </trkpt>
      <trkpt lat="40.78129" lon="0.71452">
        <ele>5</ele>
        <time>2022-05-24 23:30:33</time>
      </trkpt>
      <trkpt lat="40.78131" lon="0.71449">
        <ele>5</ele>
        <time>2022-05-24 23:30:34</time>
      </trkpt>
      <trkpt lat="40.78134" lon="0.71446">
        <ele>5.2</ele>
        <time>2022-05-24 23:30:35</time>
      </trkpt>
      <trkpt lat="40.78136" lon="0.71443">
        <ele>5</ele>
        <time>2022-05-24 23:30:36</time>
      </trkpt>
      <trkpt lat="40.78138" lon="0.71441">
        <ele>5.2</ele>
        <time>2022-05-24 23:30:37</time>
      </trkpt>
      <trkpt lat="40.7814" lon="0.71438">
        <ele>5</ele>
        <time>2022-05-24 23:30:38</time>
      </trkpt>
      <trkpt lat="40.78142" lon="0.71435">
        <ele>5</ele>
        <time>2022-05-24 23:30:39</time>
      </trkpt>
      <trkpt lat="40.78144" lon="0.71432">
        <ele>4.8</ele>
        <time>2022-05-24 23:30:40</time>
      </trkpt>
      <trkpt lat="40.78146" lon="0.7143">
        <ele>4.6</ele>
        <time>2022-05-24 23:30:41</time>
      </trkpt>
      <trkpt lat="40.78148" lon="0.71427">
        <ele>4.6</ele>
        <time>2022-05-24 23:30:42</time>
      </trkpt>
      <trkpt lat="40.7815" lon="0.71424">
        <ele>4.8</ele>
        <time>2022-05-24 23:30:43</time>
      </trkpt>
      <trkpt lat="40.78152" lon="0.71421">
        <ele>4.6</ele>
        <time>2022-05-24 23:30:44</time>
      </trkpt>
      <trkpt lat="40.78154" lon="0.71418">
        <ele>4.6</ele>
        <time>2022-05-24 23:30:45</time>
      </trkpt>
      <trkpt lat="40.78157" lon="0.71415">
        <ele>4.6</ele>
        <time>2022-05-24 23:30:46</time>
      </trkpt>
      <trkpt lat="40.78159" lon="0.71412">
        <ele>4.6</ele>
        <time>2022-05-24 23:30:47</time>
      </trkpt>
      <trkpt lat="40.78161" lon="0.71409">
        <ele>4.4</ele>
        <time>2022-05-24 23:30:48</time>
      </trkpt>
      <trkpt lat="40.78163" lon="0.71407">
        <ele>4.4</ele>
        <time>2022-05-24 23:30:49</time>
      </trkpt>
      <trkpt lat="40.78165" lon="0.71404">
        <ele>4.6</ele>
        <time>2022-05-24 23:30:50</time>
      </trkpt>
      <trkpt lat="40.78167" lon="0.71401">
        <ele>4.6</ele>
        <time>2022-05-24 23:30:51</time>
      </trkpt>
      <trkpt lat="40.78169" lon="0.71398">
        <ele>4.6</ele>
        <time>2022-05-24 23:30:52</time>
      </trkpt>
      <trkpt lat="40.78172" lon="0.71395">
        <ele>4.6</ele>
        <time>2022-05-24 23:30:53</time>
      </trkpt>
      <trkpt lat="40.78173" lon="0.71392">
        <ele>4.4</ele>
        <time>2022-05-24 23:30:54</time>
      </trkpt>
      <trkpt lat="40.78175" lon="0.71389">
        <ele>4.4</ele>
        <time>2022-05-24 23:30:55</time>
      </trkpt>
      <trkpt lat="40.78178" lon="0.71386">
        <ele>4.2</ele>
        <time>2022-05-24 23:30:56</time>
      </trkpt>
      <trkpt lat="40.7818" lon="0.71384">
        <ele>4.2</ele>
        <time>2022-05-24 23:30:57</time>
      </trkpt>
      <trkpt lat="40.78182" lon="0.71381">
        <ele>4.2</ele>
        <time>2022-05-24 23:30:58</time>
      </trkpt>
      <trkpt lat="40.78184" lon="0.71379">
        <ele>4.4</ele>
        <time>2022-05-24 23:30:59</time>
      </trkpt>
      <trkpt lat="40.78186" lon="0.71377">
        <ele>4.4</ele>
        <time>2022-05-24 23:31:00</time>
      </trkpt>
      <trkpt lat="40.78188" lon="0.71375">
        <ele>4.6</ele>
        <time>2022-05-24 23:31:01</time>
      </trkpt>
      <trkpt lat="40.78189" lon="0.71373">
        <ele>4.8</ele>
        <time>2022-05-24 23:31:02</time>
      </trkpt>
      <trkpt lat="40.7819" lon="0.71371">
        <ele>4.8</ele>
        <time>2022-05-24 23:31:03</time>
      </trkpt>
      <trkpt lat="40.78191" lon="0.71368">
        <ele>5</ele>
        <time>2022-05-24 23:31:04</time>
      </trkpt>
      <trkpt lat="40.78193" lon="0.71366">
        <ele>5</ele>
        <time>2022-05-24 23:31:05</time>
      </trkpt>
      <trkpt lat="40.78194" lon="0.71364">
        <ele>5</ele>
        <time>2022-05-24 23:31:06</time>
      </trkpt>
      <trkpt lat="40.78196" lon="0.71361">
        <ele>5</ele>
        <time>2022-05-24 23:31:07</time>
      </trkpt>
      <trkpt lat="40.78197" lon="0.71359">
        <ele>5</ele>
        <time>2022-05-24 23:31:08</time>
      </trkpt>
      <trkpt lat="40.78199" lon="0.71356">
        <ele>5.2</ele>
        <time>2022-05-24 23:31:09</time>
      </trkpt>
      <trkpt lat="40.78201" lon="0.71354">
        <ele>5.2</ele>
        <time>2022-05-24 23:31:10</time>
      </trkpt>
      <trkpt lat="40.78203" lon="0.71351">
        <ele>5.2</ele>
        <time>2022-05-24 23:31:11</time>
      </trkpt>
      <trkpt lat="40.78205" lon="0.71348">
        <ele>5.2</ele>
        <time>2022-05-24 23:31:12</time>
      </trkpt>
      <trkpt lat="40.78207" lon="0.71345">
        <ele>5.2</ele>
        <time>2022-05-24 23:31:13</time>
      </trkpt>
      <trkpt lat="40.7821" lon="0.71342">
        <ele>4.8</ele>
        <time>2022-05-24 23:31:14</time>
      </trkpt>
      <trkpt lat="40.78212" lon="0.7134">
        <ele>4.6</ele>
        <time>2022-05-24 23:31:15</time>
      </trkpt>
      <trkpt lat="40.78214" lon="0.71337">
        <ele>4.4</ele>
        <time>2022-05-24 23:31:16</time>
      </trkpt>
      <trkpt lat="40.78215" lon="0.71336">
        <ele>4.4</ele>
        <time>2022-05-24 23:31:17</time>
      </trkpt>
      <trkpt lat="40.78217" lon="0.71334">
        <ele>4.6</ele>
        <time>2022-05-24 23:31:18</time>
      </trkpt>
      <trkpt lat="40.78218" lon="0.71334">
        <ele>5.2</ele>
        <time>2022-05-24 23:31:19</time>
      </trkpt>
      <trkpt lat="40.78218" lon="0.71336">
        <ele>5.6</ele>
        <time>2022-05-24 23:31:20</time>
      </trkpt>
      <trkpt lat="40.78218" lon="0.71338">
        <ele>6.2</ele>
        <time>2022-05-24 23:31:21</time>
      </trkpt>
      <trkpt lat="40.78219" lon="0.71341">
        <ele>6.2</ele>
        <time>2022-05-24 23:31:22</time>
      </trkpt>
      <trkpt lat="40.7822" lon="0.71343">
        <ele>6.6</ele>
        <time>2022-05-24 23:31:23</time>
      </trkpt>
      <trkpt lat="40.78221" lon="0.71346">
        <ele>6.6</ele>
        <time>2022-05-24 23:31:24</time>
      </trkpt>
      <trkpt lat="40.78222" lon="0.71349">
        <ele>6.8</ele>
        <time>2022-05-24 23:31:25</time>
      </trkpt>
      <trkpt lat="40.78225" lon="0.71351">
        <ele>7</ele>
        <time>2022-05-24 23:31:26</time>
      </trkpt>
      <trkpt lat="40.78226" lon="0.71352">
        <ele>7.2</ele>
        <time>2022-05-24 23:31:27</time>
      </trkpt>
      <trkpt lat="40.78228" lon="0.71353">
        <ele>7</ele>
        <time>2022-05-24 23:31:28</time>
      </trkpt>
      <trkpt lat="40.78231" lon="0.71352">
        <ele>6.8</ele>
        <time>2022-05-24 23:31:29</time>
      </trkpt>
      <trkpt lat="40.78233" lon="0.71351">
        <ele>6.2</ele>
        <time>2022-05-24 23:31:30</time>
      </trkpt>
      <trkpt lat="40.78235" lon="0.71351">
        <ele>6</ele>
        <time>2022-05-24 23:31:31</time>
      </trkpt>
      <trkpt lat="40.78238" lon="0.71349">
        <ele>5.8</ele>
        <time>2022-05-24 23:31:32</time>
      </trkpt>
      <trkpt lat="40.78241" lon="0.71348">
        <ele>5.6</ele>
        <time>2022-05-24 23:31:33</time>
      </trkpt>
      <trkpt lat="40.78244" lon="0.71346">
        <ele>5.4</ele>
        <time>2022-05-24 23:31:34</time>
      </trkpt>
      <trkpt lat="40.78246" lon="0.71344">
        <ele>5.2</ele>
        <time>2022-05-24 23:31:35</time>
      </trkpt>
      <trkpt lat="40.78249" lon="0.71341">
        <ele>5</ele>
        <time>2022-05-24 23:31:36</time>
      </trkpt>
      <trkpt lat="40.78252" lon="0.71338">
        <ele>5</ele>
        <time>2022-05-24 23:31:37</time>
      </trkpt>
      <trkpt lat="40.78255" lon="0.71335">
        <ele>5</ele>
        <time>2022-05-24 23:31:38</time>
      </trkpt>
      <trkpt lat="40.78257" lon="0.71333">
        <ele>5</ele>
        <time>2022-05-24 23:31:39</time>
      </trkpt>
      <trkpt lat="40.7826" lon="0.7133">
        <ele>5</ele>
        <time>2022-05-24 23:31:40</time>
      </trkpt>
      <trkpt lat="40.78262" lon="0.71327">
        <ele>4.8</ele>
        <time>2022-05-24 23:31:41</time>
      </trkpt>
      <trkpt lat="40.78264" lon="0.71324">
        <ele>4.6</ele>
        <time>2022-05-24 23:31:42</time>
      </trkpt>
      <trkpt lat="40.78267" lon="0.71321">
        <ele>4.6</ele>
        <time>2022-05-24 23:31:43</time>
      </trkpt>
      <trkpt lat="40.78269" lon="0.71318">
        <ele>4.6</ele>
        <time>2022-05-24 23:31:44</time>
      </trkpt>
      <trkpt lat="40.78271" lon="0.71315">
        <ele>4.8</ele>
        <time>2022-05-24 23:31:45</time>
      </trkpt>
      <trkpt lat="40.78273" lon="0.71312">
        <ele>4.6</ele>
        <time>2022-05-24 23:31:46</time>
      </trkpt>
      <trkpt lat="40.78276" lon="0.71309">
        <ele>4.4</ele>
        <time>2022-05-24 23:31:47</time>
      </trkpt>
      <trkpt lat="40.78278" lon="0.71306">
        <ele>4.6</ele>
        <time>2022-05-24 23:31:48</time>
      </trkpt>
      <trkpt lat="40.7828" lon="0.71304">
        <ele>4.6</ele>
        <time>2022-05-24 23:31:49</time>
      </trkpt>
      <trkpt lat="40.78283" lon="0.71301">
        <ele>4.8</ele>
        <time>2022-05-24 23:31:50</time>
      </trkpt>
      <trkpt lat="40.78285" lon="0.71298">
        <ele>4.8</ele>
        <time>2022-05-24 23:31:51</time>
      </trkpt>
      <trkpt lat="40.78287" lon="0.71295">
        <ele>4.8</ele>
        <time>2022-05-24 23:31:52</time>
      </trkpt>
      <trkpt lat="40.78289" lon="0.71292">
        <ele>4.8</ele>
        <time>2022-05-24 23:31:53</time>
      </trkpt>
      <trkpt lat="40.78291" lon="0.7129">
        <ele>4.8</ele>
        <time>2022-05-24 23:31:54</time>
      </trkpt>
      <trkpt lat="40.78294" lon="0.71287">
        <ele>4.8</ele>
        <time>2022-05-24 23:31:55</time>
      </trkpt>
      <trkpt lat="40.78296" lon="0.71284">
        <ele>4.6</ele>
        <time>2022-05-24 23:31:56</time>
      </trkpt>
      <trkpt lat="40.78298" lon="0.71281">
        <ele>4.6</ele>
        <time>2022-05-24 23:31:57</time>
      </trkpt>
      <trkpt lat="40.783" lon="0.71278">
        <ele>4.8</ele>
        <time>2022-05-24 23:31:58</time>
      </trkpt>
      <trkpt lat="40.78303" lon="0.71275">
        <ele>4.8</ele>
        <time>2022-05-24 23:31:59</time>
      </trkpt>
      <trkpt lat="40.78305" lon="0.71272">
        <ele>5</ele>
        <time>2022-05-24 23:32:00</time>
      </trkpt>
      <trkpt lat="40.78308" lon="0.71269">
        <ele>5.2</ele>
        <time>2022-05-24 23:32:01</time>
      </trkpt>
      <trkpt lat="40.78311" lon="0.71267">
        <ele>5.4</ele>
        <time>2022-05-24 23:32:02</time>
      </trkpt>
      <trkpt lat="40.78313" lon="0.71264">
        <ele>5.2</ele>
        <time>2022-05-24 23:32:03</time>
      </trkpt>
      <trkpt lat="40.78315" lon="0.71262">
        <ele>5.2</ele>
        <time>2022-05-24 23:32:04</time>
      </trkpt>
      <trkpt lat="40.78318" lon="0.71259">
        <ele>5</ele>
        <time>2022-05-24 23:32:05</time>
      </trkpt>
      <trkpt lat="40.7832" lon="0.71257">
        <ele>5</ele>
        <time>2022-05-24 23:32:06</time>
      </trkpt>
      <trkpt lat="40.78322" lon="0.71254">
        <ele>5.2</ele>
        <time>2022-05-24 23:32:07</time>
      </trkpt>
      <trkpt lat="40.78324" lon="0.71251">
        <ele>5</ele>
        <time>2022-05-24 23:32:08</time>
      </trkpt>
      <trkpt lat="40.78326" lon="0.71248">
        <ele>5.4</ele>
        <time>2022-05-24 23:32:09</time>
      </trkpt>
      <trkpt lat="40.78328" lon="0.71246">
        <ele>5.2</ele>
        <time>2022-05-24 23:32:10</time>
      </trkpt>
      <trkpt lat="40.7833" lon="0.71243">
        <ele>5.2</ele>
        <time>2022-05-24 23:32:11</time>
      </trkpt>
      <trkpt lat="40.78332" lon="0.7124">
        <ele>5</ele>
        <time>2022-05-24 23:32:12</time>
      </trkpt>
      <trkpt lat="40.78334" lon="0.71237">
        <ele>4.8</ele>
        <time>2022-05-24 23:32:13</time>
      </trkpt>
      <trkpt lat="40.78336" lon="0.71235">
        <ele>4.8</ele>
        <time>2022-05-24 23:32:14</time>
      </trkpt>
      <trkpt lat="40.78339" lon="0.71233">
        <ele>4.8</ele>
        <time>2022-05-24 23:32:15</time>
      </trkpt>
      <trkpt lat="40.78341" lon="0.71231">
        <ele>5</ele>
        <time>2022-05-24 23:32:16</time>
      </trkpt>
      <trkpt lat="40.78344" lon="0.71229">
        <ele>5.2</ele>
        <time>2022-05-24 23:32:17</time>
      </trkpt>
      <trkpt lat="40.78346" lon="0.71227">
        <ele>5.4</ele>
        <time>2022-05-24 23:32:18</time>
      </trkpt>
      <trkpt lat="40.78349" lon="0.71225">
        <ele>5.4</ele>
        <time>2022-05-24 23:32:19</time>
      </trkpt>
      <trkpt lat="40.78351" lon="0.71223">
        <ele>5.6</ele>
        <time>2022-05-24 23:32:20</time>
      </trkpt>
      <trkpt lat="40.78353" lon="0.71221">
        <ele>5.6</ele>
        <time>2022-05-24 23:32:21</time>
      </trkpt>
      <trkpt lat="40.78356" lon="0.71219">
        <ele>5.6</ele>
        <time>2022-05-24 23:32:22</time>
      </trkpt>
      <trkpt lat="40.78358" lon="0.71217">
        <ele>5.4</ele>
        <time>2022-05-24 23:32:23</time>
      </trkpt>
      <trkpt lat="40.78361" lon="0.71214">
        <ele>5.4</ele>
        <time>2022-05-24 23:32:24</time>
      </trkpt>
      <trkpt lat="40.78363" lon="0.71212">
        <ele>5.4</ele>
        <time>2022-05-24 23:32:25</time>
      </trkpt>
      <trkpt lat="40.78365" lon="0.7121">
        <ele>5.6</ele>
        <time>2022-05-24 23:32:26</time>
      </trkpt>
      <trkpt lat="40.78368" lon="0.71207">
        <ele>5.6</ele>
        <time>2022-05-24 23:32:27</time>
      </trkpt>
      <trkpt lat="40.7837" lon="0.71205">
        <ele>5.8</ele>
        <time>2022-05-24 23:32:28</time>
      </trkpt>
      <trkpt lat="40.78373" lon="0.71203">
        <ele>5.6</ele>
        <time>2022-05-24 23:32:29</time>
      </trkpt>
      <trkpt lat="40.78375" lon="0.712">
        <ele>5.6</ele>
        <time>2022-05-24 23:32:30</time>
      </trkpt>
      <trkpt lat="40.78377" lon="0.71198">
        <ele>5.8</ele>
        <time>2022-05-24 23:32:31</time>
      </trkpt>
      <trkpt lat="40.78379" lon="0.71195">
        <ele>5.8</ele>
        <time>2022-05-24 23:32:32</time>
      </trkpt>
      <trkpt lat="40.78381" lon="0.71192">
        <ele>5.8</ele>
        <time>2022-05-24 23:32:33</time>
      </trkpt>
      <trkpt lat="40.78383" lon="0.7119">
        <ele>5.8</ele>
        <time>2022-05-24 23:32:34</time>
      </trkpt>
      <trkpt lat="40.78385" lon="0.71187">
        <ele>5.8</ele>
        <time>2022-05-24 23:32:35</time>
      </trkpt>
      <trkpt lat="40.78387" lon="0.71184">
        <ele>5.8</ele>
        <time>2022-05-24 23:32:36</time>
      </trkpt>
      <trkpt lat="40.78389" lon="0.71181">
        <ele>5.8</ele>
        <time>2022-05-24 23:32:37</time>
      </trkpt>
      <trkpt lat="40.78392" lon="0.71178">
        <ele>5.8</ele>
        <time>2022-05-24 23:32:38</time>
      </trkpt>
      <trkpt lat="40.78394" lon="0.71175">
        <ele>5.8</ele>
        <time>2022-05-24 23:32:39</time>
      </trkpt>
      <trkpt lat="40.78396" lon="0.71171">
        <ele>5.8</ele>
        <time>2022-05-24 23:32:40</time>
      </trkpt>
      <trkpt lat="40.78398" lon="0.71168">
        <ele>5.8</ele>
        <time>2022-05-24 23:32:41</time>
      </trkpt>
      <trkpt lat="40.784" lon="0.71165">
        <ele>5.8</ele>
        <time>2022-05-24 23:32:42</time>
      </trkpt>
      <trkpt lat="40.78402" lon="0.71162">
        <ele>5.8</ele>
        <time>2022-05-24 23:32:43</time>
      </trkpt>
      <trkpt lat="40.78403" lon="0.71158">
        <ele>5.8</ele>
        <time>2022-05-24 23:32:44</time>
      </trkpt>
      <trkpt lat="40.78406" lon="0.71155">
        <ele>5.8</ele>
        <time>2022-05-24 23:32:45</time>
      </trkpt>
      <trkpt lat="40.78408" lon="0.71152">
        <ele>6</ele>
        <time>2022-05-24 23:32:46</time>
      </trkpt>
      <trkpt lat="40.7841" lon="0.71149">
        <ele>6</ele>
        <time>2022-05-24 23:32:47</time>
      </trkpt>
      <trkpt lat="40.78411" lon="0.71146">
        <ele>5.8</ele>
        <time>2022-05-24 23:32:48</time>
      </trkpt>
      <trkpt lat="40.78413" lon="0.71143">
        <ele>6</ele>
        <time>2022-05-24 23:32:49</time>
      </trkpt>
      <trkpt lat="40.78415" lon="0.7114">
        <ele>6</ele>
        <time>2022-05-24 23:32:50</time>
      </trkpt>
      <trkpt lat="40.78416" lon="0.71136">
        <ele>6</ele>
        <time>2022-05-24 23:32:51</time>
      </trkpt>
      <trkpt lat="40.78418" lon="0.71133">
        <ele>6.2</ele>
        <time>2022-05-24 23:32:52</time>
      </trkpt>
      <trkpt lat="40.78421" lon="0.7113">
        <ele>6.2</ele>
        <time>2022-05-24 23:32:53</time>
      </trkpt>
      <trkpt lat="40.78423" lon="0.71126">
        <ele>6.2</ele>
        <time>2022-05-24 23:32:54</time>
      </trkpt>
      <trkpt lat="40.78424" lon="0.71123">
        <ele>6.2</ele>
        <time>2022-05-24 23:32:55</time>
      </trkpt>
      <trkpt lat="40.78426" lon="0.7112">
        <ele>6.2</ele>
        <time>2022-05-24 23:32:56</time>
      </trkpt>
      <trkpt lat="40.78429" lon="0.71117">
        <ele>6.4</ele>
        <time>2022-05-24 23:32:57</time>
      </trkpt>
      <trkpt lat="40.78431" lon="0.71113">
        <ele>6.4</ele>
        <time>2022-05-24 23:32:58</time>
      </trkpt>
      <trkpt lat="40.78432" lon="0.71111">
        <ele>6.4</ele>
        <time>2022-05-24 23:32:59</time>
      </trkpt>
      <trkpt lat="40.78434" lon="0.71108">
        <ele>6.4</ele>
        <time>2022-05-24 23:33:00</time>
      </trkpt>
      <trkpt lat="40.78436" lon="0.71105">
        <ele>6.4</ele>
        <time>2022-05-24 23:33:01</time>
      </trkpt>
      <trkpt lat="40.78437" lon="0.71103">
        <ele>6</ele>
        <time>2022-05-24 23:33:02</time>
      </trkpt>
      <trkpt lat="40.7844" lon="0.71101">
        <ele>6</ele>
        <time>2022-05-24 23:33:03</time>
      </trkpt>
      <trkpt lat="40.78442" lon="0.71099">
        <ele>5.8</ele>
        <time>2022-05-24 23:33:04</time>
      </trkpt>
      <trkpt lat="40.78444" lon="0.71097">
        <ele>5.8</ele>
        <time>2022-05-24 23:33:05</time>
      </trkpt>
      <trkpt lat="40.78445" lon="0.71095">
        <ele>5.8</ele>
        <time>2022-05-24 23:33:06</time>
      </trkpt>
      <trkpt lat="40.78448" lon="0.71092">
        <ele>5.8</ele>
        <time>2022-05-24 23:33:07</time>
      </trkpt>
      <trkpt lat="40.7845" lon="0.7109">
        <ele>5.8</ele>
        <time>2022-05-24 23:33:08</time>
      </trkpt>
      <trkpt lat="40.78452" lon="0.71087">
        <ele>5.8</ele>
        <time>2022-05-24 23:33:09</time>
      </trkpt>
      <trkpt lat="40.78453" lon="0.71085">
        <ele>6</ele>
        <time>2022-05-24 23:33:10</time>
      </trkpt>
      <trkpt lat="40.78455" lon="0.71082">
        <ele>6</ele>
        <time>2022-05-24 23:33:11</time>
      </trkpt>
      <trkpt lat="40.78458" lon="0.7108">
        <ele>6.2</ele>
        <time>2022-05-24 23:33:12</time>
      </trkpt>
      <trkpt lat="40.7846" lon="0.71077">
        <ele>6.2</ele>
        <time>2022-05-24 23:33:13</time>
      </trkpt>
      <trkpt lat="40.78462" lon="0.71075">
        <ele>6.2</ele>
        <time>2022-05-24 23:33:14</time>
      </trkpt>
      <trkpt lat="40.78464" lon="0.71072">
        <ele>6.2</ele>
        <time>2022-05-24 23:33:15</time>
      </trkpt>
      <trkpt lat="40.78466" lon="0.7107">
        <ele>6</ele>
        <time>2022-05-24 23:33:16</time>
      </trkpt>
      <trkpt lat="40.78469" lon="0.71067">
        <ele>5.6</ele>
        <time>2022-05-24 23:33:17</time>
      </trkpt>
      <trkpt lat="40.78471" lon="0.71064">
        <ele>5.4</ele>
        <time>2022-05-24 23:33:18</time>
      </trkpt>
      <trkpt lat="40.78473" lon="0.71062">
        <ele>5.4</ele>
        <time>2022-05-24 23:33:19</time>
      </trkpt>
      <trkpt lat="40.78476" lon="0.71059">
        <ele>5.6</ele>
        <time>2022-05-24 23:33:20</time>
      </trkpt>
      <trkpt lat="40.78477" lon="0.71057">
        <ele>5.6</ele>
        <time>2022-05-24 23:33:21</time>
      </trkpt>
      <trkpt lat="40.7848" lon="0.71055">
        <ele>5.6</ele>
        <time>2022-05-24 23:33:22</time>
      </trkpt>
      <trkpt lat="40.78482" lon="0.71053">
        <ele>5.6</ele>
        <time>2022-05-24 23:33:23</time>
      </trkpt>
      <trkpt lat="40.78484" lon="0.71051">
        <ele>5.6</ele>
        <time>2022-05-24 23:33:24</time>
      </trkpt>
      <trkpt lat="40.78486" lon="0.71048">
        <ele>5.8</ele>
        <time>2022-05-24 23:33:25</time>
      </trkpt>
      <trkpt lat="40.78488" lon="0.71045">
        <ele>5.8</ele>
        <time>2022-05-24 23:33:26</time>
      </trkpt>
      <trkpt lat="40.7849" lon="0.71043">
        <ele>6</ele>
        <time>2022-05-24 23:33:27</time>
      </trkpt>
      <trkpt lat="40.78492" lon="0.7104">
        <ele>6.2</ele>
        <time>2022-05-24 23:33:28</time>
      </trkpt>
      <trkpt lat="40.78493" lon="0.71037">
        <ele>6.4</ele>
        <time>2022-05-24 23:33:29</time>
      </trkpt>
      <trkpt lat="40.78495" lon="0.71035">
        <ele>6.4</ele>
        <time>2022-05-24 23:33:30</time>
      </trkpt>
      <trkpt lat="40.78497" lon="0.71032">
        <ele>6.4</ele>
        <time>2022-05-24 23:33:31</time>
      </trkpt>
      <trkpt lat="40.78499" lon="0.7103">
        <ele>6.4</ele>
        <time>2022-05-24 23:33:32</time>
      </trkpt>
      <trkpt lat="40.78501" lon="0.71027">
        <ele>6.2</ele>
        <time>2022-05-24 23:33:33</time>
      </trkpt>
      <trkpt lat="40.78502" lon="0.71025">
        <ele>6.2</ele>
        <time>2022-05-24 23:33:34</time>
      </trkpt>
      <trkpt lat="40.78505" lon="0.71023">
        <ele>6</ele>
        <time>2022-05-24 23:33:35</time>
      </trkpt>
      <trkpt lat="40.78506" lon="0.71021">
        <ele>6</ele>
        <time>2022-05-24 23:33:36</time>
      </trkpt>
      <trkpt lat="40.78509" lon="0.71018">
        <ele>6</ele>
        <time>2022-05-24 23:33:37</time>
      </trkpt>
      <trkpt lat="40.78511" lon="0.71015">
        <ele>6</ele>
        <time>2022-05-24 23:33:38</time>
      </trkpt>
      <trkpt lat="40.78513" lon="0.71013">
        <ele>6</ele>
        <time>2022-05-24 23:33:39</time>
      </trkpt>
      <trkpt lat="40.78515" lon="0.7101">
        <ele>6</ele>
        <time>2022-05-24 23:33:40</time>
      </trkpt>
      <trkpt lat="40.78518" lon="0.71007">
        <ele>6</ele>
        <time>2022-05-24 23:33:41</time>
      </trkpt>
      <trkpt lat="40.7852" lon="0.71005">
        <ele>6</ele>
        <time>2022-05-24 23:33:42</time>
      </trkpt>
      <trkpt lat="40.78522" lon="0.71002">
        <ele>6</ele>
        <time>2022-05-24 23:33:43</time>
      </trkpt>
      <trkpt lat="40.78524" lon="0.70999">
        <ele>6</ele>
        <time>2022-05-24 23:33:44</time>
      </trkpt>
      <trkpt lat="40.78526" lon="0.70997">
        <ele>6</ele>
        <time>2022-05-24 23:33:45</time>
      </trkpt>
      <trkpt lat="40.78528" lon="0.70994">
        <ele>5.8</ele>
        <time>2022-05-24 23:33:46</time>
      </trkpt>
      <trkpt lat="40.7853" lon="0.70991">
        <ele>5.8</ele>
        <time>2022-05-24 23:33:47</time>
      </trkpt>
      <trkpt lat="40.78532" lon="0.70989">
        <ele>5.8</ele>
        <time>2022-05-24 23:33:48</time>
      </trkpt>
      <trkpt lat="40.78535" lon="0.70986">
        <ele>5.8</ele>
        <time>2022-05-24 23:33:49</time>
      </trkpt>
      <trkpt lat="40.78537" lon="0.70984">
        <ele>5.8</ele>
        <time>2022-05-24 23:33:50</time>
      </trkpt>
      <trkpt lat="40.78539" lon="0.70981">
        <ele>6</ele>
        <time>2022-05-24 23:33:51</time>
      </trkpt>
      <trkpt lat="40.78542" lon="0.70979">
        <ele>5.8</ele>
        <time>2022-05-24 23:33:52</time>
      </trkpt>
      <trkpt lat="40.78544" lon="0.70976">
        <ele>5.6</ele>
        <time>2022-05-24 23:33:53</time>
      </trkpt>
      <trkpt lat="40.78547" lon="0.70974">
        <ele>5.6</ele>
        <time>2022-05-24 23:33:54</time>
      </trkpt>
      <trkpt lat="40.78549" lon="0.70971">
        <ele>5.4</ele>
        <time>2022-05-24 23:33:55</time>
      </trkpt>
      <trkpt lat="40.78551" lon="0.70969">
        <ele>5.4</ele>
        <time>2022-05-24 23:33:56</time>
      </trkpt>
      <trkpt lat="40.78553" lon="0.70966">
        <ele>5.4</ele>
        <time>2022-05-24 23:33:57</time>
      </trkpt>
      <trkpt lat="40.78555" lon="0.70963">
        <ele>5.4</ele>
        <time>2022-05-24 23:33:58</time>
      </trkpt>
      <trkpt lat="40.78558" lon="0.7096">
        <ele>5.6</ele>
        <time>2022-05-24 23:33:59</time>
      </trkpt>
      <trkpt lat="40.7856" lon="0.70957">
        <ele>5.6</ele>
        <time>2022-05-24 23:34:00</time>
      </trkpt>
      <trkpt lat="40.78562" lon="0.70954">
        <ele>5.8</ele>
        <time>2022-05-24 23:34:01</time>
      </trkpt>
      <trkpt lat="40.78564" lon="0.70951">
        <ele>6</ele>
        <time>2022-05-24 23:34:02</time>
      </trkpt>
      <trkpt lat="40.78566" lon="0.70948">
        <ele>6</ele>
        <time>2022-05-24 23:34:03</time>
      </trkpt>
      <trkpt lat="40.78568" lon="0.70945">
        <ele>5.8</ele>
        <time>2022-05-24 23:34:04</time>
      </trkpt>
      <trkpt lat="40.78569" lon="0.70941">
        <ele>5.8</ele>
        <time>2022-05-24 23:34:05</time>
      </trkpt>
      <trkpt lat="40.7857" lon="0.70938">
        <ele>6</ele>
        <time>2022-05-24 23:34:06</time>
      </trkpt>
      <trkpt lat="40.78571" lon="0.70934">
        <ele>6.2</ele>
        <time>2022-05-24 23:34:07</time>
      </trkpt>
      <trkpt lat="40.7857" lon="0.7093">
        <ele>6.4</ele>
        <time>2022-05-24 23:34:08</time>
      </trkpt>
      <trkpt lat="40.78569" lon="0.70926">
        <ele>6.6</ele>
        <time>2022-05-24 23:34:09</time>
      </trkpt>
      <trkpt lat="40.78568" lon="0.70923">
        <ele>7</ele>
        <time>2022-05-24 23:34:10</time>
      </trkpt>
      <trkpt lat="40.78566" lon="0.7092">
        <ele>7.2</ele>
        <time>2022-05-24 23:34:11</time>
      </trkpt>
      <trkpt lat="40.78564" lon="0.70917">
        <ele>7.2</ele>
        <time>2022-05-24 23:34:12</time>
      </trkpt>
      <trkpt lat="40.78561" lon="0.70914">
        <ele>7.2</ele>
        <time>2022-05-24 23:34:13</time>
      </trkpt>
      <trkpt lat="40.78559" lon="0.70911">
        <ele>7.4</ele>
        <time>2022-05-24 23:34:14</time>
      </trkpt>
      <trkpt lat="40.78556" lon="0.70907">
        <ele>7.4</ele>
        <time>2022-05-24 23:34:15</time>
      </trkpt>
      <trkpt lat="40.78554" lon="0.70903">
        <ele>7.6</ele>
        <time>2022-05-24 23:34:16</time>
      </trkpt>
      <trkpt lat="40.78552" lon="0.709">
        <ele>7.8</ele>
        <time>2022-05-24 23:34:17</time>
      </trkpt>
      <trkpt lat="40.7855" lon="0.70896">
        <ele>7.8</ele>
        <time>2022-05-24 23:34:18</time>
      </trkpt>
      <trkpt lat="40.78548" lon="0.70892">
        <ele>7.8</ele>
        <time>2022-05-24 23:34:19</time>
      </trkpt>
      <trkpt lat="40.78546" lon="0.70889">
        <ele>8</ele>
        <time>2022-05-24 23:34:20</time>
      </trkpt>
      <trkpt lat="40.78544" lon="0.70886">
        <ele>8</ele>
        <time>2022-05-24 23:34:21</time>
      </trkpt>
      <trkpt lat="40.78542" lon="0.70881">
        <ele>8.2</ele>
        <time>2022-05-24 23:34:22</time>
      </trkpt>
      <trkpt lat="40.7854" lon="0.70877">
        <ele>8.2</ele>
        <time>2022-05-24 23:34:23</time>
      </trkpt>
      <trkpt lat="40.78538" lon="0.70874">
        <ele>8.4</ele>
        <time>2022-05-24 23:34:24</time>
      </trkpt>
      <trkpt lat="40.78535" lon="0.7087">
        <ele>8.4</ele>
        <time>2022-05-24 23:34:25</time>
      </trkpt>
      <trkpt lat="40.78534" lon="0.70866">
        <ele>8.4</ele>
        <time>2022-05-24 23:34:26</time>
      </trkpt>
      <trkpt lat="40.78532" lon="0.70862">
        <ele>8.4</ele>
        <time>2022-05-24 23:34:27</time>
      </trkpt>
      <trkpt lat="40.78529" lon="0.70857">
        <ele>8.4</ele>
        <time>2022-05-24 23:34:28</time>
      </trkpt>
      <trkpt lat="40.78527" lon="0.70853">
        <ele>8.4</ele>
        <time>2022-05-24 23:34:29</time>
      </trkpt>
      <trkpt lat="40.78524" lon="0.70849">
        <ele>8.4</ele>
        <time>2022-05-24 23:34:30</time>
      </trkpt>
      <trkpt lat="40.78521" lon="0.70845">
        <ele>8.4</ele>
        <time>2022-05-24 23:34:31</time>
      </trkpt>
      <trkpt lat="40.78518" lon="0.70841">
        <ele>8.4</ele>
        <time>2022-05-24 23:34:32</time>
      </trkpt>
      <trkpt lat="40.78514" lon="0.70837">
        <ele>8.4</ele>
        <time>2022-05-24 23:34:33</time>
      </trkpt>
      <trkpt lat="40.78511" lon="0.70834">
        <ele>8.4</ele>
        <time>2022-05-24 23:34:34</time>
      </trkpt>
      <trkpt lat="40.78508" lon="0.7083">
        <ele>8.4</ele>
        <time>2022-05-24 23:34:35</time>
      </trkpt>
      <trkpt lat="40.78505" lon="0.70827">
        <ele>8.4</ele>
        <time>2022-05-24 23:34:36</time>
      </trkpt>
      <trkpt lat="40.78502" lon="0.70823">
        <ele>8.4</ele>
        <time>2022-05-24 23:34:37</time>
      </trkpt>
      <trkpt lat="40.78499" lon="0.7082">
        <ele>8.4</ele>
        <time>2022-05-24 23:34:38</time>
      </trkpt>
      <trkpt lat="40.78496" lon="0.70816">
        <ele>8.4</ele>
        <time>2022-05-24 23:34:39</time>
      </trkpt>
      <trkpt lat="40.78493" lon="0.70813">
        <ele>8.4</ele>
        <time>2022-05-24 23:34:40</time>
      </trkpt>
      <trkpt lat="40.78489" lon="0.70809">
        <ele>8.4</ele>
        <time>2022-05-24 23:34:41</time>
      </trkpt>
      <trkpt lat="40.78486" lon="0.70806">
        <ele>8.4</ele>
        <time>2022-05-24 23:34:42</time>
      </trkpt>
      <trkpt lat="40.78482" lon="0.70802">
        <ele>8.4</ele>
        <time>2022-05-24 23:34:43</time>
      </trkpt>
      <trkpt lat="40.78479" lon="0.70799">
        <ele>8.6</ele>
        <time>2022-05-24 23:34:44</time>
      </trkpt>
      <trkpt lat="40.78475" lon="0.70795">
        <ele>8.6</ele>
        <time>2022-05-24 23:34:45</time>
      </trkpt>
      <trkpt lat="40.78472" lon="0.70791">
        <ele>8.4</ele>
        <time>2022-05-24 23:34:46</time>
      </trkpt>
      <trkpt lat="40.78469" lon="0.70787">
        <ele>8.4</ele>
        <time>2022-05-24 23:34:47</time>
      </trkpt>
      <trkpt lat="40.78468" lon="0.70784">
        <ele>8.4</ele>
        <time>2022-05-24 23:34:48</time>
      </trkpt>
      <trkpt lat="40.78467" lon="0.70781">
        <ele>8.4</ele>
        <time>2022-05-24 23:34:49</time>
      </trkpt>
      <trkpt lat="40.78467" lon="0.70779">
        <ele>8.2</ele>
        <time>2022-05-24 23:34:50</time>
      </trkpt>
      <trkpt lat="40.78467" lon="0.70777">
        <ele>8.2</ele>
        <time>2022-05-24 23:34:51</time>
      </trkpt>
      <trkpt lat="40.78468" lon="0.70776">
        <ele>8.2</ele>
        <time>2022-05-24 23:34:52</time>
      </trkpt>
      <trkpt lat="40.78469" lon="0.70774">
        <ele>8.2</ele>
        <time>2022-05-24 23:34:53</time>
      </trkpt>
      <trkpt lat="40.78469" lon="0.70773">
        <ele>8</ele>
        <time>2022-05-24 23:34:54</time>
      </trkpt>
      <trkpt lat="40.7847" lon="0.70772">
        <ele>8.2</ele>
        <time>2022-05-24 23:34:55</time>
      </trkpt>
      <trkpt lat="40.78471" lon="0.70771">
        <ele>8.2</ele>
        <time>2022-05-24 23:34:56</time>
      </trkpt>
      <trkpt lat="40.78471" lon="0.70769">
        <ele>8</ele>
        <time>2022-05-24 23:34:57</time>
      </trkpt>
      <trkpt lat="40.78472" lon="0.70767">
        <ele>8</ele>
        <time>2022-05-24 23:34:58</time>
      </trkpt>
      <trkpt lat="40.78473" lon="0.70765">
        <ele>8</ele>
        <time>2022-05-24 23:34:59</time>
      </trkpt>
      <trkpt lat="40.78473" lon="0.70762">
        <ele>8</ele>
        <time>2022-05-24 23:35:00</time>
      </trkpt>
      <trkpt lat="40.78472" lon="0.70759">
        <ele>8.2</ele>
        <time>2022-05-24 23:35:01</time>
      </trkpt>
      <trkpt lat="40.78471" lon="0.70756">
        <ele>8.2</ele>
        <time>2022-05-24 23:35:02</time>
      </trkpt>
      <trkpt lat="40.78468" lon="0.70752">
        <ele>8.2</ele>
        <time>2022-05-24 23:35:03</time>
      </trkpt>
      <trkpt lat="40.78466" lon="0.7075">
        <ele>8.2</ele>
        <time>2022-05-24 23:35:04</time>
      </trkpt>
      <trkpt lat="40.78463" lon="0.70747">
        <ele>8.2</ele>
        <time>2022-05-24 23:35:05</time>
      </trkpt>
      <trkpt lat="40.7846" lon="0.70745">
        <ele>8.2</ele>
        <time>2022-05-24 23:35:06</time>
      </trkpt>
      <trkpt lat="40.78458" lon="0.70743">
        <ele>8.2</ele>
        <time>2022-05-24 23:35:07</time>
      </trkpt>
      <trkpt lat="40.78455" lon="0.7074">
        <ele>8.2</ele>
        <time>2022-05-24 23:35:08</time>
      </trkpt>
      <trkpt lat="40.78452" lon="0.70737">
        <ele>8.2</ele>
        <time>2022-05-24 23:35:09</time>
      </trkpt>
      <trkpt lat="40.78449" lon="0.70734">
        <ele>8.2</ele>
        <time>2022-05-24 23:35:10</time>
      </trkpt>
      <trkpt lat="40.78447" lon="0.70731">
        <ele>8.2</ele>
        <time>2022-05-24 23:35:11</time>
      </trkpt>
      <trkpt lat="40.78444" lon="0.70728">
        <ele>8.2</ele>
        <time>2022-05-24 23:35:12</time>
      </trkpt>
      <trkpt lat="40.78442" lon="0.70725">
        <ele>8.2</ele>
        <time>2022-05-24 23:35:13</time>
      </trkpt>
      <trkpt lat="40.78439" lon="0.70722">
        <ele>8</ele>
        <time>2022-05-24 23:35:14</time>
      </trkpt>
      <trkpt lat="40.78437" lon="0.70719">
        <ele>8</ele>
        <time>2022-05-24 23:35:15</time>
      </trkpt>
      <trkpt lat="40.78435" lon="0.70716">
        <ele>8.2</ele>
        <time>2022-05-24 23:35:16</time>
      </trkpt>
      <trkpt lat="40.78432" lon="0.70713">
        <ele>8.2</ele>
        <time>2022-05-24 23:35:17</time>
      </trkpt>
      <trkpt lat="40.78429" lon="0.7071">
        <ele>8.2</ele>
        <time>2022-05-24 23:35:18</time>
      </trkpt>
      <trkpt lat="40.78426" lon="0.70707">
        <ele>8.2</ele>
        <time>2022-05-24 23:35:19</time>
      </trkpt>
      <trkpt lat="40.78423" lon="0.70703">
        <ele>8.2</ele>
        <time>2022-05-24 23:35:20</time>
      </trkpt>
      <trkpt lat="40.78419" lon="0.70699">
        <ele>8.2</ele>
        <time>2022-05-24 23:35:21</time>
      </trkpt>
      <trkpt lat="40.78416" lon="0.70696">
        <ele>8.2</ele>
        <time>2022-05-24 23:35:22</time>
      </trkpt>
      <trkpt lat="40.78413" lon="0.70692">
        <ele>8.2</ele>
        <time>2022-05-24 23:35:23</time>
      </trkpt>
      <trkpt lat="40.7841" lon="0.70688">
        <ele>8</ele>
        <time>2022-05-24 23:35:24</time>
      </trkpt>
      <trkpt lat="40.78406" lon="0.70685">
        <ele>8</ele>
        <time>2022-05-24 23:35:25</time>
      </trkpt>
      <trkpt lat="40.78403" lon="0.70681">
        <ele>8</ele>
        <time>2022-05-24 23:35:26</time>
      </trkpt>
      <trkpt lat="40.784" lon="0.70678">
        <ele>8</ele>
        <time>2022-05-24 23:35:27</time>
      </trkpt>
      <trkpt lat="40.78397" lon="0.70674">
        <ele>8</ele>
        <time>2022-05-24 23:35:28</time>
      </trkpt>
      <trkpt lat="40.78394" lon="0.7067">
        <ele>8</ele>
        <time>2022-05-24 23:35:29</time>
      </trkpt>
      <trkpt lat="40.7839" lon="0.70666">
        <ele>8</ele>
        <time>2022-05-24 23:35:30</time>
      </trkpt>
      <trkpt lat="40.78387" lon="0.70662">
        <ele>8</ele>
        <time>2022-05-24 23:35:31</time>
      </trkpt>
      <trkpt lat="40.78384" lon="0.70659">
        <ele>8.2</ele>
        <time>2022-05-24 23:35:32</time>
      </trkpt>
      <trkpt lat="40.78381" lon="0.70655">
        <ele>8.2</ele>
        <time>2022-05-24 23:35:33</time>
      </trkpt>
      <trkpt lat="40.78378" lon="0.70651">
        <ele>8.2</ele>
        <time>2022-05-24 23:35:34</time>
      </trkpt>
      <trkpt lat="40.78374" lon="0.70648">
        <ele>8.2</ele>
        <time>2022-05-24 23:35:35</time>
      </trkpt>
      <trkpt lat="40.78371" lon="0.70645">
        <ele>8.2</ele>
        <time>2022-05-24 23:35:36</time>
      </trkpt>
      <trkpt lat="40.78368" lon="0.70641">
        <ele>8.2</ele>
        <time>2022-05-24 23:35:37</time>
      </trkpt>
      <trkpt lat="40.78366" lon="0.70638">
        <ele>8.2</ele>
        <time>2022-05-24 23:35:38</time>
      </trkpt>
      <trkpt lat="40.78363" lon="0.70634">
        <ele>8.2</ele>
        <time>2022-05-24 23:35:39</time>
      </trkpt>
      <trkpt lat="40.7836" lon="0.70631">
        <ele>8.2</ele>
        <time>2022-05-24 23:35:40</time>
      </trkpt>
      <trkpt lat="40.78358" lon="0.70627">
        <ele>8.2</ele>
        <time>2022-05-24 23:35:41</time>
      </trkpt>
      <trkpt lat="40.78357" lon="0.70624">
        <ele>8.2</ele>
        <time>2022-05-24 23:35:42</time>
      </trkpt>
      <trkpt lat="40.78355" lon="0.70617">
        <ele>8.2</ele>
        <time>2022-05-24 23:35:43</time>
      </trkpt>
      <trkpt lat="40.78353" lon="0.70612">
        <ele>8.2</ele>
        <time>2022-05-24 23:35:44</time>
      </trkpt>
      <trkpt lat="40.78353" lon="0.70607">
        <ele>8.4</ele>
        <time>2022-05-24 23:35:45</time>
      </trkpt>
      <trkpt lat="40.78353" lon="0.70602">
        <ele>8.2</ele>
        <time>2022-05-24 23:35:46</time>
      </trkpt>
      <trkpt lat="40.78353" lon="0.70596">
        <ele>8.2</ele>
        <time>2022-05-24 23:35:47</time>
      </trkpt>
      <trkpt lat="40.78353" lon="0.70591">
        <ele>8.4</ele>
        <time>2022-05-24 23:35:48</time>
      </trkpt>
      <trkpt lat="40.78353" lon="0.70587">
        <ele>8.6</ele>
        <time>2022-05-24 23:35:49</time>
      </trkpt>
      <trkpt lat="40.78353" lon="0.70582">
        <ele>8.6</ele>
        <time>2022-05-24 23:35:50</time>
      </trkpt>
      <trkpt lat="40.78353" lon="0.70578">
        <ele>8.6</ele>
        <time>2022-05-24 23:35:51</time>
      </trkpt>
      <trkpt lat="40.78354" lon="0.70573">
        <ele>8.4</ele>
        <time>2022-05-24 23:35:52</time>
      </trkpt>
      <trkpt lat="40.78355" lon="0.70569">
        <ele>8.4</ele>
        <time>2022-05-24 23:35:53</time>
      </trkpt>
      <trkpt lat="40.78355" lon="0.70564">
        <ele>8.4</ele>
        <time>2022-05-24 23:35:54</time>
      </trkpt>
      <trkpt lat="40.78355" lon="0.7056">
        <ele>8.4</ele>
        <time>2022-05-24 23:35:55</time>
      </trkpt>
      <trkpt lat="40.78356" lon="0.70555">
        <ele>8.4</ele>
        <time>2022-05-24 23:35:56</time>
      </trkpt>
      <trkpt lat="40.78357" lon="0.7055">
        <ele>8.4</ele>
        <time>2022-05-24 23:35:57</time>
      </trkpt>
      <trkpt lat="40.78357" lon="0.70546">
        <ele>8.4</ele>
        <time>2022-05-24 23:35:58</time>
      </trkpt>
      <trkpt lat="40.78357" lon="0.70541">
        <ele>8.4</ele>
        <time>2022-05-24 23:35:59</time>
      </trkpt>
      <trkpt lat="40.78358" lon="0.70537">
        <ele>8.4</ele>
        <time>2022-05-24 23:36:00</time>
      </trkpt>
      <trkpt lat="40.78358" lon="0.70532">
        <ele>8.4</ele>
        <time>2022-05-24 23:36:01</time>
      </trkpt>
      <trkpt lat="40.78359" lon="0.70528">
        <ele>8.4</ele>
        <time>2022-05-24 23:36:02</time>
      </trkpt>
      <trkpt lat="40.7836" lon="0.70523">
        <ele>8.4</ele>
        <time>2022-05-24 23:36:03</time>
      </trkpt>
      <trkpt lat="40.78361" lon="0.70518">
        <ele>8.4</ele>
        <time>2022-05-24 23:36:04</time>
      </trkpt>
      <trkpt lat="40.78362" lon="0.70514">
        <ele>8.4</ele>
        <time>2022-05-24 23:36:05</time>
      </trkpt>
      <trkpt lat="40.78362" lon="0.70509">
        <ele>8.4</ele>
        <time>2022-05-24 23:36:06</time>
      </trkpt>
      <trkpt lat="40.78363" lon="0.70504">
        <ele>8.4</ele>
        <time>2022-05-24 23:36:07</time>
      </trkpt>
      <trkpt lat="40.78363" lon="0.705">
        <ele>8.4</ele>
        <time>2022-05-24 23:36:08</time>
      </trkpt>
      <trkpt lat="40.78364" lon="0.70495">
        <ele>8.4</ele>
        <time>2022-05-24 23:36:09</time>
      </trkpt>
      <trkpt lat="40.78364" lon="0.7049">
        <ele>8.4</ele>
        <time>2022-05-24 23:36:10</time>
      </trkpt>
      <trkpt lat="40.78365" lon="0.70486">
        <ele>8.6</ele>
        <time>2022-05-24 23:36:11</time>
      </trkpt>
      <trkpt lat="40.78365" lon="0.70481">
        <ele>8.4</ele>
        <time>2022-05-24 23:36:12</time>
      </trkpt>
      <trkpt lat="40.78366" lon="0.70476">
        <ele>8.2</ele>
        <time>2022-05-24 23:36:13</time>
      </trkpt>
      <trkpt lat="40.78366" lon="0.70471">
        <ele>8.2</ele>
        <time>2022-05-24 23:36:14</time>
      </trkpt>
      <trkpt lat="40.78367" lon="0.70467">
        <ele>8.2</ele>
        <time>2022-05-24 23:36:15</time>
      </trkpt>
      <trkpt lat="40.78368" lon="0.70462">
        <ele>8.2</ele>
        <time>2022-05-24 23:36:16</time>
      </trkpt>
      <trkpt lat="40.78369" lon="0.70458">
        <ele>8.2</ele>
        <time>2022-05-24 23:36:17</time>
      </trkpt>
      <trkpt lat="40.7837" lon="0.70453">
        <ele>8.4</ele>
        <time>2022-05-24 23:36:18</time>
      </trkpt>
      <trkpt lat="40.78371" lon="0.70449">
        <ele>8.4</ele>
        <time>2022-05-24 23:36:19</time>
      </trkpt>
      <trkpt lat="40.78372" lon="0.70445">
        <ele>8.2</ele>
        <time>2022-05-24 23:36:20</time>
      </trkpt>
      <trkpt lat="40.78373" lon="0.70441">
        <ele>8</ele>
        <time>2022-05-24 23:36:21</time>
      </trkpt>
      <trkpt lat="40.78374" lon="0.70437">
        <ele>7.8</ele>
        <time>2022-05-24 23:36:22</time>
      </trkpt>
      <trkpt lat="40.78376" lon="0.70434">
        <ele>7.8</ele>
        <time>2022-05-24 23:36:23</time>
      </trkpt>
      <trkpt lat="40.78378" lon="0.70431">
        <ele>7.8</ele>
        <time>2022-05-24 23:36:24</time>
      </trkpt>
      <trkpt lat="40.78379" lon="0.70428">
        <ele>7.6</ele>
        <time>2022-05-24 23:36:25</time>
      </trkpt>
      <trkpt lat="40.7838" lon="0.70425">
        <ele>7.6</ele>
        <time>2022-05-24 23:36:26</time>
      </trkpt>
      <trkpt lat="40.78381" lon="0.70423">
        <ele>7.6</ele>
        <time>2022-05-24 23:36:27</time>
      </trkpt>
      <trkpt lat="40.78384" lon="0.7042">
        <ele>7.4</ele>
        <time>2022-05-24 23:36:28</time>
      </trkpt>
      <trkpt lat="40.78386" lon="0.70416">
        <ele>7.2</ele>
        <time>2022-05-24 23:36:29</time>
      </trkpt>
      <trkpt lat="40.78388" lon="0.70413">
        <ele>7</ele>
        <time>2022-05-24 23:36:30</time>
      </trkpt>
      <trkpt lat="40.7839" lon="0.7041">
        <ele>7</ele>
        <time>2022-05-24 23:36:31</time>
      </trkpt>
      <trkpt lat="40.78393" lon="0.70406">
        <ele>7</ele>
        <time>2022-05-24 23:36:32</time>
      </trkpt>
      <trkpt lat="40.78395" lon="0.70403">
        <ele>7</ele>
        <time>2022-05-24 23:36:33</time>
      </trkpt>
      <trkpt lat="40.78397" lon="0.70399">
        <ele>6.8</ele>
        <time>2022-05-24 23:36:34</time>
      </trkpt>
      <trkpt lat="40.784" lon="0.70395">
        <ele>6.8</ele>
        <time>2022-05-24 23:36:35</time>
      </trkpt>
      <trkpt lat="40.78402" lon="0.70391">
        <ele>6.8</ele>
        <time>2022-05-24 23:36:36</time>
      </trkpt>
      <trkpt lat="40.78404" lon="0.70387">
        <ele>6.8</ele>
        <time>2022-05-24 23:36:37</time>
      </trkpt>
      <trkpt lat="40.78407" lon="0.70383">
        <ele>7</ele>
        <time>2022-05-24 23:36:38</time>
      </trkpt>
      <trkpt lat="40.78409" lon="0.70379">
        <ele>7</ele>
        <time>2022-05-24 23:36:39</time>
      </trkpt>
      <trkpt lat="40.78412" lon="0.70376">
        <ele>7.2</ele>
        <time>2022-05-24 23:36:40</time>
      </trkpt>
      <trkpt lat="40.78415" lon="0.70371">
        <ele>7</ele>
        <time>2022-05-24 23:36:41</time>
      </trkpt>
      <trkpt lat="40.78417" lon="0.70367">
        <ele>7</ele>
        <time>2022-05-24 23:36:42</time>
      </trkpt>
      <trkpt lat="40.7842" lon="0.70364">
        <ele>7.2</ele>
        <time>2022-05-24 23:36:43</time>
      </trkpt>
      <trkpt lat="40.78423" lon="0.7036">
        <ele>7.4</ele>
        <time>2022-05-24 23:36:44</time>
      </trkpt>
      <trkpt lat="40.78425" lon="0.70357">
        <ele>7.6</ele>
        <time>2022-05-24 23:36:45</time>
      </trkpt>
      <trkpt lat="40.78427" lon="0.70354">
        <ele>7.4</ele>
        <time>2022-05-24 23:36:46</time>
      </trkpt>
      <trkpt lat="40.78429" lon="0.70351">
        <ele>7.6</ele>
        <time>2022-05-24 23:36:47</time>
      </trkpt>
      <trkpt lat="40.7843" lon="0.70349">
        <ele>7.6</ele>
        <time>2022-05-24 23:36:48</time>
      </trkpt>
      <trkpt lat="40.78432" lon="0.70347">
        <ele>7.6</ele>
        <time>2022-05-24 23:36:49</time>
      </trkpt>
      <trkpt lat="40.78433" lon="0.70344">
        <ele>7.8</ele>
        <time>2022-05-24 23:36:50</time>
      </trkpt>
      <trkpt lat="40.78434" lon="0.70342">
        <ele>8</ele>
        <time>2022-05-24 23:36:51</time>
      </trkpt>
      <trkpt lat="40.78436" lon="0.70339">
        <ele>8</ele>
        <time>2022-05-24 23:36:52</time>
      </trkpt>
      <trkpt lat="40.78436" lon="0.70336">
        <ele>8</ele>
        <time>2022-05-24 23:36:53</time>
      </trkpt>
      <trkpt lat="40.78438" lon="0.70333">
        <ele>7.8</ele>
        <time>2022-05-24 23:36:54</time>
      </trkpt>
      <trkpt lat="40.78439" lon="0.70331">
        <ele>7.8</ele>
        <time>2022-05-24 23:36:55</time>
      </trkpt>
      <trkpt lat="40.78441" lon="0.70328">
        <ele>7.8</ele>
        <time>2022-05-24 23:36:56</time>
      </trkpt>
      <trkpt lat="40.78443" lon="0.70326">
        <ele>7.6</ele>
        <time>2022-05-24 23:36:57</time>
      </trkpt>
      <trkpt lat="40.78444" lon="0.70323">
        <ele>7.6</ele>
        <time>2022-05-24 23:36:58</time>
      </trkpt>
      <trkpt lat="40.78447" lon="0.70321">
        <ele>7.6</ele>
        <time>2022-05-24 23:36:59</time>
      </trkpt>
      <trkpt lat="40.78448" lon="0.70319">
        <ele>7.6</ele>
        <time>2022-05-24 23:37:00</time>
      </trkpt>
      <trkpt lat="40.7845" lon="0.70316">
        <ele>7.8</ele>
        <time>2022-05-24 23:37:01</time>
      </trkpt>
      <trkpt lat="40.78452" lon="0.70314">
        <ele>7.8</ele>
        <time>2022-05-24 23:37:02</time>
      </trkpt>
      <trkpt lat="40.78454" lon="0.70312">
        <ele>8</ele>
        <time>2022-05-24 23:37:03</time>
      </trkpt>
      <trkpt lat="40.78456" lon="0.70309">
        <ele>8</ele>
        <time>2022-05-24 23:37:04</time>
      </trkpt>
      <trkpt lat="40.78459" lon="0.70306">
        <ele>7.8</ele>
        <time>2022-05-24 23:37:05</time>
      </trkpt>
      <trkpt lat="40.78461" lon="0.70303">
        <ele>7.8</ele>
        <time>2022-05-24 23:37:06</time>
      </trkpt>
      <trkpt lat="40.78464" lon="0.70301">
        <ele>7.8</ele>
        <time>2022-05-24 23:37:07</time>
      </trkpt>
      <trkpt lat="40.78466" lon="0.70298">
        <ele>7.8</ele>
        <time>2022-05-24 23:37:08</time>
      </trkpt>
      <trkpt lat="40.78468" lon="0.70295">
        <ele>7.8</ele>
        <time>2022-05-24 23:37:09</time>
      </trkpt>
      <trkpt lat="40.78471" lon="0.70293">
        <ele>7.8</ele>
        <time>2022-05-24 23:37:10</time>
      </trkpt>
      <trkpt lat="40.78473" lon="0.7029">
        <ele>7.8</ele>
        <time>2022-05-24 23:37:11</time>
      </trkpt>
      <trkpt lat="40.78475" lon="0.70287">
        <ele>7.6</ele>
        <time>2022-05-24 23:37:12</time>
      </trkpt>
      <trkpt lat="40.78477" lon="0.70284">
        <ele>7.6</ele>
        <time>2022-05-24 23:37:13</time>
      </trkpt>
      <trkpt lat="40.78479" lon="0.70281">
        <ele>8</ele>
        <time>2022-05-24 23:37:14</time>
      </trkpt>
      <trkpt lat="40.78482" lon="0.70279">
        <ele>8.2</ele>
        <time>2022-05-24 23:37:15</time>
      </trkpt>
      <trkpt lat="40.78484" lon="0.70276">
        <ele>8.4</ele>
        <time>2022-05-24 23:37:16</time>
      </trkpt>
      <trkpt lat="40.78486" lon="0.70274">
        <ele>8.6</ele>
        <time>2022-05-24 23:37:17</time>
      </trkpt>
      <trkpt lat="40.78489" lon="0.70272">
        <ele>8.6</ele>
        <time>2022-05-24 23:37:18</time>
      </trkpt>
      <trkpt lat="40.78492" lon="0.70271">
        <ele>8.6</ele>
        <time>2022-05-24 23:37:19</time>
      </trkpt>
      <trkpt lat="40.78495" lon="0.7027">
        <ele>8.8</ele>
        <time>2022-05-24 23:37:20</time>
      </trkpt>
      <trkpt lat="40.78497" lon="0.7027">
        <ele>8.8</ele>
        <time>2022-05-24 23:37:21</time>
      </trkpt>
      <trkpt lat="40.78499" lon="0.7027">
        <ele>9</ele>
        <time>2022-05-24 23:37:22</time>
      </trkpt>
      <trkpt lat="40.78502" lon="0.70271">
        <ele>9.2</ele>
        <time>2022-05-24 23:37:23</time>
      </trkpt>
      <trkpt lat="40.78503" lon="0.70272">
        <ele>9.2</ele>
        <time>2022-05-24 23:37:24</time>
      </trkpt>
      <trkpt lat="40.78504" lon="0.70273">
        <ele>9.4</ele>
        <time>2022-05-24 23:37:25</time>
      </trkpt>
      <trkpt lat="40.78506" lon="0.70274">
        <ele>9.4</ele>
        <time>2022-05-24 23:37:26</time>
      </trkpt>
      <trkpt lat="40.78508" lon="0.70275">
        <ele>9.4</ele>
        <time>2022-05-24 23:37:27</time>
      </trkpt>
      <trkpt lat="40.78509" lon="0.70275">
        <ele>9.4</ele>
        <time>2022-05-24 23:37:28</time>
      </trkpt>
      <trkpt lat="40.78511" lon="0.70275">
        <ele>9.6</ele>
        <time>2022-05-24 23:37:29</time>
      </trkpt>
      <trkpt lat="40.78513" lon="0.70274">
        <ele>9.6</ele>
        <time>2022-05-24 23:37:30</time>
      </trkpt>
      <trkpt lat="40.78514" lon="0.70273">
        <ele>9.8</ele>
        <time>2022-05-24 23:37:31</time>
      </trkpt>
      <trkpt lat="40.78516" lon="0.70272">
        <ele>10</ele>
        <time>2022-05-24 23:37:32</time>
      </trkpt>
      <trkpt lat="40.78517" lon="0.7027">
        <ele>10.2</ele>
        <time>2022-05-24 23:37:33</time>
      </trkpt>
      <trkpt lat="40.78519" lon="0.70269">
        <ele>10.4</ele>
        <time>2022-05-24 23:37:34</time>
      </trkpt>
      <trkpt lat="40.7852" lon="0.70267">
        <ele>10.6</ele>
        <time>2022-05-24 23:37:35</time>
      </trkpt>
      <trkpt lat="40.78522" lon="0.70265">
        <ele>10.8</ele>
        <time>2022-05-24 23:37:36</time>
      </trkpt>
      <trkpt lat="40.78523" lon="0.70263">
        <ele>10.6</ele>
        <time>2022-05-24 23:37:37</time>
      </trkpt>
      <trkpt lat="40.78525" lon="0.70261">
        <ele>10.4</ele>
        <time>2022-05-24 23:37:38</time>
      </trkpt>
      <trkpt lat="40.78528" lon="0.70259">
        <ele>10</ele>
        <time>2022-05-24 23:37:39</time>
      </trkpt>
      <trkpt lat="40.7853" lon="0.70255">
        <ele>9.6</ele>
        <time>2022-05-24 23:37:40</time>
      </trkpt>
      <trkpt lat="40.78532" lon="0.70252">
        <ele>9.2</ele>
        <time>2022-05-24 23:37:41</time>
      </trkpt>
      <trkpt lat="40.78534" lon="0.70248">
        <ele>8.8</ele>
        <time>2022-05-24 23:37:42</time>
      </trkpt>
      <trkpt lat="40.78536" lon="0.70244">
        <ele>8.6</ele>
        <time>2022-05-24 23:37:43</time>
      </trkpt>
      <trkpt lat="40.78538" lon="0.70241">
        <ele>8.4</ele>
        <time>2022-05-24 23:37:44</time>
      </trkpt>
      <trkpt lat="40.78539" lon="0.70237">
        <ele>8.2</ele>
        <time>2022-05-24 23:37:45</time>
      </trkpt>
      <trkpt lat="40.7854" lon="0.70233">
        <ele>8.2</ele>
        <time>2022-05-24 23:37:46</time>
      </trkpt>
      <trkpt lat="40.78541" lon="0.70229">
        <ele>8.4</ele>
        <time>2022-05-24 23:37:47</time>
      </trkpt>
      <trkpt lat="40.78542" lon="0.70226">
        <ele>8.4</ele>
        <time>2022-05-24 23:37:48</time>
      </trkpt>
      <trkpt lat="40.78543" lon="0.70223">
        <ele>8.6</ele>
        <time>2022-05-24 23:37:49</time>
      </trkpt>
      <trkpt lat="40.78544" lon="0.7022">
        <ele>8.8</ele>
        <time>2022-05-24 23:37:50</time>
      </trkpt>
      <trkpt lat="40.78544" lon="0.70216">
        <ele>8.8</ele>
        <time>2022-05-24 23:37:51</time>
      </trkpt>
      <trkpt lat="40.78544" lon="0.70213">
        <ele>8.8</ele>
        <time>2022-05-24 23:37:52</time>
      </trkpt>
      <trkpt lat="40.78544" lon="0.70211">
        <ele>8.8</ele>
        <time>2022-05-24 23:37:53</time>
      </trkpt>
      <trkpt lat="40.78544" lon="0.70209">
        <ele>8.6</ele>
        <time>2022-05-24 23:37:54</time>
      </trkpt>
      <trkpt lat="40.78544" lon="0.70208">
        <ele>8.8</ele>
        <time>2022-05-24 23:37:55</time>
      </trkpt>
      <trkpt lat="40.78545" lon="0.70208">
        <ele>9</ele>
        <time>2022-05-24 23:37:56</time>
      </trkpt>
      <trkpt lat="40.78545" lon="0.70208">
        <ele>9.2</ele>
        <time>2022-05-24 23:37:57</time>
      </trkpt>
      <trkpt lat="40.78545" lon="0.70208">
        <ele>9.4</ele>
        <time>2022-05-24 23:37:58</time>
      </trkpt>
      <trkpt lat="40.78545" lon="0.70208">
        <ele>9.4</ele>
        <time>2022-05-24 23:37:59</time>
      </trkpt>
      <trkpt lat="40.78556" lon="0.7021">
        <ele>10.4</ele>
        <time>2022-05-24 23:38:21</time>
      </trkpt>
      <trkpt lat="40.78558" lon="0.70209">
        <ele>10.4</ele>
        <time>2022-05-24 23:38:22</time>
      </trkpt>
      <trkpt lat="40.78559" lon="0.70208">
        <ele>10</ele>
        <time>2022-05-24 23:38:23</time>
      </trkpt>
      <trkpt lat="40.78562" lon="0.70206">
        <ele>9.6</ele>
        <time>2022-05-24 23:38:24</time>
      </trkpt>
      <trkpt lat="40.78565" lon="0.70205">
        <ele>9.4</ele>
        <time>2022-05-24 23:38:25</time>
      </trkpt>
      <trkpt lat="40.78568" lon="0.70204">
        <ele>9.4</ele>
        <time>2022-05-24 23:38:26</time>
      </trkpt>
      <trkpt lat="40.78572" lon="0.70203">
        <ele>9.2</ele>
        <time>2022-05-24 23:38:27</time>
      </trkpt>
      <trkpt lat="40.78574" lon="0.70202">
        <ele>9.2</ele>
        <time>2022-05-24 23:38:28</time>
      </trkpt>
      <trkpt lat="40.78577" lon="0.70201">
        <ele>9</ele>
        <time>2022-05-24 23:38:29</time>
      </trkpt>
      <trkpt lat="40.7858" lon="0.702">
        <ele>8.8</ele>
        <time>2022-05-24 23:38:30</time>
      </trkpt>
      <trkpt lat="40.78584" lon="0.70199">
        <ele>8.8</ele>
        <time>2022-05-24 23:38:31</time>
      </trkpt>
      <trkpt lat="40.78587" lon="0.70198">
        <ele>8.8</ele>
        <time>2022-05-24 23:38:32</time>
      </trkpt>
      <trkpt lat="40.7859" lon="0.70196">
        <ele>8.8</ele>
        <time>2022-05-24 23:38:33</time>
      </trkpt>
      <trkpt lat="40.78593" lon="0.70195">
        <ele>8.6</ele>
        <time>2022-05-24 23:38:34</time>
      </trkpt>
      <trkpt lat="40.78596" lon="0.70193">
        <ele>8.6</ele>
        <time>2022-05-24 23:38:35</time>
      </trkpt>
      <trkpt lat="40.78598" lon="0.70192">
        <ele>8.6</ele>
        <time>2022-05-24 23:38:36</time>
      </trkpt>
      <trkpt lat="40.78602" lon="0.7019">
        <ele>8.6</ele>
        <time>2022-05-24 23:38:37</time>
      </trkpt>
      <trkpt lat="40.78605" lon="0.70189">
        <ele>8.6</ele>
        <time>2022-05-24 23:38:38</time>
      </trkpt>
      <trkpt lat="40.78608" lon="0.70187">
        <ele>8.6</ele>
        <time>2022-05-24 23:38:39</time>
      </trkpt>
      <trkpt lat="40.78612" lon="0.70185">
        <ele>8.8</ele>
        <time>2022-05-24 23:38:40</time>
      </trkpt>
      <trkpt lat="40.78615" lon="0.70184">
        <ele>8.8</ele>
        <time>2022-05-24 23:38:41</time>
      </trkpt>
      <trkpt lat="40.78618" lon="0.70183">
        <ele>8.8</ele>
        <time>2022-05-24 23:38:42</time>
      </trkpt>
      <trkpt lat="40.78622" lon="0.70182">
        <ele>8.8</ele>
        <time>2022-05-24 23:38:43</time>
      </trkpt>
      <trkpt lat="40.78625" lon="0.7018">
        <ele>9</ele>
        <time>2022-05-24 23:38:44</time>
      </trkpt>
      <trkpt lat="40.78628" lon="0.70179">
        <ele>9</ele>
        <time>2022-05-24 23:38:45</time>
      </trkpt>
      <trkpt lat="40.78631" lon="0.70177">
        <ele>9</ele>
        <time>2022-05-24 23:38:46</time>
      </trkpt>
      <trkpt lat="40.78635" lon="0.70176">
        <ele>9.2</ele>
        <time>2022-05-24 23:38:47</time>
      </trkpt>
      <trkpt lat="40.78638" lon="0.70174">
        <ele>9</ele>
        <time>2022-05-24 23:38:48</time>
      </trkpt>
      <trkpt lat="40.78641" lon="0.70173">
        <ele>9</ele>
        <time>2022-05-24 23:38:49</time>
      </trkpt>
      <trkpt lat="40.78644" lon="0.70172">
        <ele>9</ele>
        <time>2022-05-24 23:38:50</time>
      </trkpt>
      <trkpt lat="40.78648" lon="0.70171">
        <ele>9</ele>
        <time>2022-05-24 23:38:51</time>
      </trkpt>
      <trkpt lat="40.78651" lon="0.70171">
        <ele>9</ele>
        <time>2022-05-24 23:38:52</time>
      </trkpt>
      <trkpt lat="40.78654" lon="0.70171">
        <ele>9</ele>
        <time>2022-05-24 23:38:53</time>
      </trkpt>
      <trkpt lat="40.78656" lon="0.70171">
        <ele>9.2</ele>
        <time>2022-05-24 23:38:54</time>
      </trkpt>
      <trkpt lat="40.78659" lon="0.70172">
        <ele>9.4</ele>
        <time>2022-05-24 23:38:55</time>
      </trkpt>
      <trkpt lat="40.78662" lon="0.70174">
        <ele>9.4</ele>
        <time>2022-05-24 23:38:56</time>
      </trkpt>
      <trkpt lat="40.78665" lon="0.70175">
        <ele>9.4</ele>
        <time>2022-05-24 23:38:57</time>
      </trkpt>
      <trkpt lat="40.78668" lon="0.70176">
        <ele>9.4</ele>
        <time>2022-05-24 23:38:58</time>
      </trkpt>
      <trkpt lat="40.7867" lon="0.70178">
        <ele>9.4</ele>
        <time>2022-05-24 23:38:59</time>
      </trkpt>
      <trkpt lat="40.78672" lon="0.70179">
        <ele>9.6</ele>
        <time>2022-05-24 23:39:00</time>
      </trkpt>
      <trkpt lat="40.78675" lon="0.70181">
        <ele>9.6</ele>
        <time>2022-05-24 23:39:01</time>
      </trkpt>
      <trkpt lat="40.78677" lon="0.70182">
        <ele>9.4</ele>
        <time>2022-05-24 23:39:02</time>
      </trkpt>
      <trkpt lat="40.7868" lon="0.70184">
        <ele>9.6</ele>
        <time>2022-05-24 23:39:03</time>
      </trkpt>
      <trkpt lat="40.78682" lon="0.70185">
        <ele>9.6</ele>
        <time>2022-05-24 23:39:04</time>
      </trkpt>
      <trkpt lat="40.78685" lon="0.70186">
        <ele>9.6</ele>
        <time>2022-05-24 23:39:05</time>
      </trkpt>
      <trkpt lat="40.78687" lon="0.70187">
        <ele>9.8</ele>
        <time>2022-05-24 23:39:06</time>
      </trkpt>
      <trkpt lat="40.78689" lon="0.70188">
        <ele>9.8</ele>
        <time>2022-05-24 23:39:07</time>
      </trkpt>
      <trkpt lat="40.78691" lon="0.70189">
        <ele>9.6</ele>
        <time>2022-05-24 23:39:08</time>
      </trkpt>
      <trkpt lat="40.78693" lon="0.70191">
        <ele>9.6</ele>
        <time>2022-05-24 23:39:09</time>
      </trkpt>
      <trkpt lat="40.78696" lon="0.70192">
        <ele>9.6</ele>
        <time>2022-05-24 23:39:10</time>
      </trkpt>
      <trkpt lat="40.78698" lon="0.70193">
        <ele>9.6</ele>
        <time>2022-05-24 23:39:11</time>
      </trkpt>
      <trkpt lat="40.78701" lon="0.70195">
        <ele>9.6</ele>
        <time>2022-05-24 23:39:12</time>
      </trkpt>
      <trkpt lat="40.78704" lon="0.70196">
        <ele>9.6</ele>
        <time>2022-05-24 23:39:13</time>
      </trkpt>
      <trkpt lat="40.78706" lon="0.70197">
        <ele>9.6</ele>
        <time>2022-05-24 23:39:14</time>
      </trkpt>
      <trkpt lat="40.78709" lon="0.70198">
        <ele>9.6</ele>
        <time>2022-05-24 23:39:15</time>
      </trkpt>
      <trkpt lat="40.78711" lon="0.702">
        <ele>9.8</ele>
        <time>2022-05-24 23:39:16</time>
      </trkpt>
      <trkpt lat="40.78713" lon="0.70201">
        <ele>9.8</ele>
        <time>2022-05-24 23:39:17</time>
      </trkpt>
      <trkpt lat="40.78716" lon="0.70202">
        <ele>10</ele>
        <time>2022-05-24 23:39:18</time>
      </trkpt>
      <trkpt lat="40.78717" lon="0.70203">
        <ele>10</ele>
        <time>2022-05-24 23:39:19</time>
      </trkpt>
      <trkpt lat="40.7872" lon="0.70205">
        <ele>10.2</ele>
        <time>2022-05-24 23:39:20</time>
      </trkpt>
      <trkpt lat="40.78722" lon="0.70206">
        <ele>10.4</ele>
        <time>2022-05-24 23:39:21</time>
      </trkpt>
      <trkpt lat="40.78724" lon="0.70207">
        <ele>10.4</ele>
        <time>2022-05-24 23:39:22</time>
      </trkpt>
      <trkpt lat="40.78727" lon="0.70208">
        <ele>10.4</ele>
        <time>2022-05-24 23:39:23</time>
      </trkpt>
      <trkpt lat="40.78728" lon="0.70209">
        <ele>10.4</ele>
        <time>2022-05-24 23:39:24</time>
      </trkpt>
      <trkpt lat="40.78731" lon="0.70211">
        <ele>10.4</ele>
        <time>2022-05-24 23:39:25</time>
      </trkpt>
      <trkpt lat="40.78733" lon="0.70212">
        <ele>10.4</ele>
        <time>2022-05-24 23:39:26</time>
      </trkpt>
      <trkpt lat="40.78735" lon="0.70213">
        <ele>10.4</ele>
        <time>2022-05-24 23:39:27</time>
      </trkpt>
      <trkpt lat="40.78737" lon="0.70214">
        <ele>10.4</ele>
        <time>2022-05-24 23:39:28</time>
      </trkpt>
      <trkpt lat="40.78739" lon="0.70215">
        <ele>10.4</ele>
        <time>2022-05-24 23:39:29</time>
      </trkpt>
      <trkpt lat="40.78741" lon="0.70216">
        <ele>10.4</ele>
        <time>2022-05-24 23:39:30</time>
      </trkpt>
      <trkpt lat="40.78744" lon="0.70217">
        <ele>10.2</ele>
        <time>2022-05-24 23:39:31</time>
      </trkpt>
      <trkpt lat="40.78746" lon="0.70218">
        <ele>10.4</ele>
        <time>2022-05-24 23:39:32</time>
      </trkpt>
      <trkpt lat="40.78748" lon="0.70219">
        <ele>10.4</ele>
        <time>2022-05-24 23:39:33</time>
      </trkpt>
      <trkpt lat="40.78751" lon="0.7022">
        <ele>10.2</ele>
        <time>2022-05-24 23:39:34</time>
      </trkpt>
      <trkpt lat="40.78753" lon="0.70222">
        <ele>10.2</ele>
        <time>2022-05-24 23:39:35</time>
      </trkpt>
      <trkpt lat="40.78756" lon="0.70223">
        <ele>10.2</ele>
        <time>2022-05-24 23:39:36</time>
      </trkpt>
      <trkpt lat="40.78758" lon="0.70225">
        <ele>10.2</ele>
        <time>2022-05-24 23:39:37</time>
      </trkpt>
      <trkpt lat="40.78761" lon="0.70226">
        <ele>10.2</ele>
        <time>2022-05-24 23:39:38</time>
      </trkpt>
      <trkpt lat="40.78763" lon="0.70228">
        <ele>10.2</ele>
        <time>2022-05-24 23:39:39</time>
      </trkpt>
      <trkpt lat="40.78766" lon="0.7023">
        <ele>10.2</ele>
        <time>2022-05-24 23:39:40</time>
      </trkpt>
      <trkpt lat="40.78769" lon="0.70231">
        <ele>10</ele>
        <time>2022-05-24 23:39:41</time>
      </trkpt>
      <trkpt lat="40.78771" lon="0.70233">
        <ele>10</ele>
        <time>2022-05-24 23:39:42</time>
      </trkpt>
      <trkpt lat="40.78773" lon="0.70234">
        <ele>10</ele>
        <time>2022-05-24 23:39:43</time>
      </trkpt>
      <trkpt lat="40.78776" lon="0.70236">
        <ele>10</ele>
        <time>2022-05-24 23:39:44</time>
      </trkpt>
      <trkpt lat="40.78778" lon="0.70237">
        <ele>10.2</ele>
        <time>2022-05-24 23:39:45</time>
      </trkpt>
      <trkpt lat="40.78781" lon="0.70238">
        <ele>10.2</ele>
        <time>2022-05-24 23:39:46</time>
      </trkpt>
      <trkpt lat="40.78783" lon="0.70239">
        <ele>10.2</ele>
        <time>2022-05-24 23:39:47</time>
      </trkpt>
      <trkpt lat="40.78786" lon="0.7024">
        <ele>10.2</ele>
        <time>2022-05-24 23:39:48</time>
      </trkpt>
      <trkpt lat="40.78788" lon="0.70241">
        <ele>10.2</ele>
        <time>2022-05-24 23:39:49</time>
      </trkpt>
      <trkpt lat="40.78791" lon="0.70243">
        <ele>10.2</ele>
        <time>2022-05-24 23:39:50</time>
      </trkpt>
      <trkpt lat="40.78794" lon="0.70244">
        <ele>10.2</ele>
        <time>2022-05-24 23:39:51</time>
      </trkpt>
      <trkpt lat="40.78796" lon="0.70245">
        <ele>10.2</ele>
        <time>2022-05-24 23:39:52</time>
      </trkpt>
      <trkpt lat="40.78799" lon="0.70247">
        <ele>10.2</ele>
        <time>2022-05-24 23:39:53</time>
      </trkpt>
      <trkpt lat="40.78802" lon="0.70248">
        <ele>10.2</ele>
        <time>2022-05-24 23:39:54</time>
      </trkpt>
      <trkpt lat="40.78804" lon="0.7025">
        <ele>10.2</ele>
        <time>2022-05-24 23:39:55</time>
      </trkpt>
      <trkpt lat="40.78806" lon="0.70251">
        <ele>10.2</ele>
        <time>2022-05-24 23:39:56</time>
      </trkpt>
      <trkpt lat="40.78809" lon="0.70253">
        <ele>10.2</ele>
        <time>2022-05-24 23:39:57</time>
      </trkpt>
      <trkpt lat="40.78812" lon="0.70254">
        <ele>10.2</ele>
        <time>2022-05-24 23:39:58</time>
      </trkpt>
      <trkpt lat="40.78815" lon="0.70255">
        <ele>10.2</ele>
        <time>2022-05-24 23:39:59</time>
      </trkpt>
      <trkpt lat="40.78817" lon="0.70257">
        <ele>10.2</ele>
        <time>2022-05-24 23:40:00</time>
      </trkpt>
      <trkpt lat="40.7882" lon="0.70258">
        <ele>10.2</ele>
        <time>2022-05-24 23:40:01</time>
      </trkpt>
      <trkpt lat="40.78823" lon="0.70259">
        <ele>10.2</ele>
        <time>2022-05-24 23:40:02</time>
      </trkpt>
      <trkpt lat="40.78826" lon="0.70261">
        <ele>10.2</ele>
        <time>2022-05-24 23:40:03</time>
      </trkpt>
      <trkpt lat="40.78828" lon="0.70262">
        <ele>10.2</ele>
        <time>2022-05-24 23:40:04</time>
      </trkpt>
      <trkpt lat="40.78831" lon="0.70264">
        <ele>10.2</ele>
        <time>2022-05-24 23:40:05</time>
      </trkpt>
      <trkpt lat="40.78834" lon="0.70265">
        <ele>10.2</ele>
        <time>2022-05-24 23:40:06</time>
      </trkpt>
      <trkpt lat="40.78837" lon="0.70267">
        <ele>10.4</ele>
        <time>2022-05-24 23:40:07</time>
      </trkpt>
      <trkpt lat="40.78839" lon="0.70268">
        <ele>10.4</ele>
        <time>2022-05-24 23:40:08</time>
      </trkpt>
      <trkpt lat="40.78842" lon="0.7027">
        <ele>10.4</ele>
        <time>2022-05-24 23:40:09</time>
      </trkpt>
      <trkpt lat="40.78845" lon="0.70272">
        <ele>10.4</ele>
        <time>2022-05-24 23:40:10</time>
      </trkpt>
      <trkpt lat="40.78848" lon="0.70273">
        <ele>10.4</ele>
        <time>2022-05-24 23:40:11</time>
      </trkpt>
      <trkpt lat="40.7885" lon="0.70275">
        <ele>10.4</ele>
        <time>2022-05-24 23:40:12</time>
      </trkpt>
      <trkpt lat="40.78853" lon="0.70276">
        <ele>10.4</ele>
        <time>2022-05-24 23:40:13</time>
      </trkpt>
      <trkpt lat="40.78856" lon="0.70278">
        <ele>10.4</ele>
        <time>2022-05-24 23:40:14</time>
      </trkpt>
      <trkpt lat="40.78859" lon="0.70279">
        <ele>10.4</ele>
        <time>2022-05-24 23:40:15</time>
      </trkpt>
      <trkpt lat="40.78862" lon="0.70281">
        <ele>10.4</ele>
        <time>2022-05-24 23:40:16</time>
      </trkpt>
      <trkpt lat="40.78865" lon="0.70283">
        <ele>10.4</ele>
        <time>2022-05-24 23:40:17</time>
      </trkpt>
      <trkpt lat="40.78868" lon="0.70284">
        <ele>10.4</ele>
        <time>2022-05-24 23:40:18</time>
      </trkpt>
      <trkpt lat="40.78872" lon="0.70286">
        <ele>10.4</ele>
        <time>2022-05-24 23:40:19</time>
      </trkpt>
      <trkpt lat="40.78874" lon="0.70288">
        <ele>10.4</ele>
        <time>2022-05-24 23:40:20</time>
      </trkpt>
      <trkpt lat="40.78878" lon="0.70289">
        <ele>10.4</ele>
        <time>2022-05-24 23:40:21</time>
      </trkpt>
      <trkpt lat="40.78881" lon="0.70291">
        <ele>10.4</ele>
        <time>2022-05-24 23:40:22</time>
      </trkpt>
      <trkpt lat="40.78884" lon="0.70292">
        <ele>10.4</ele>
        <time>2022-05-24 23:40:23</time>
      </trkpt>
      <trkpt lat="40.78886" lon="0.70294">
        <ele>10.4</ele>
        <time>2022-05-24 23:40:24</time>
      </trkpt>
      <trkpt lat="40.78889" lon="0.70295">
        <ele>10.4</ele>
        <time>2022-05-24 23:40:25</time>
      </trkpt>
      <trkpt lat="40.78892" lon="0.70297">
        <ele>10.4</ele>
        <time>2022-05-24 23:40:26</time>
      </trkpt>
      <trkpt lat="40.78894" lon="0.70298">
        <ele>10.4</ele>
        <time>2022-05-24 23:40:27</time>
      </trkpt>
      <trkpt lat="40.78897" lon="0.70299">
        <ele>10.4</ele>
        <time>2022-05-24 23:40:28</time>
      </trkpt>
      <trkpt lat="40.789" lon="0.70301">
        <ele>10.4</ele>
        <time>2022-05-24 23:40:29</time>
      </trkpt>
      <trkpt lat="40.78903" lon="0.70302">
        <ele>10.4</ele>
        <time>2022-05-24 23:40:30</time>
      </trkpt>
      <trkpt lat="40.78905" lon="0.70303">
        <ele>10.4</ele>
        <time>2022-05-24 23:40:31</time>
      </trkpt>
      <trkpt lat="40.78908" lon="0.70304">
        <ele>10.4</ele>
        <time>2022-05-24 23:40:32</time>
      </trkpt>
      <trkpt lat="40.7891" lon="0.70305">
        <ele>10.4</ele>
        <time>2022-05-24 23:40:33</time>
      </trkpt>
      <trkpt lat="40.78912" lon="0.70306">
        <ele>10.4</ele>
        <time>2022-05-24 23:40:34</time>
      </trkpt>
      <trkpt lat="40.78915" lon="0.70307">
        <ele>10.4</ele>
        <time>2022-05-24 23:40:35</time>
      </trkpt>
      <trkpt lat="40.78917" lon="0.70308">
        <ele>10.4</ele>
        <time>2022-05-24 23:40:36</time>
      </trkpt>
      <trkpt lat="40.7892" lon="0.7031">
        <ele>10.4</ele>
        <time>2022-05-24 23:40:37</time>
      </trkpt>
      <trkpt lat="40.78922" lon="0.70311">
        <ele>10.4</ele>
        <time>2022-05-24 23:40:38</time>
      </trkpt>
      <trkpt lat="40.78925" lon="0.70312">
        <ele>10.4</ele>
        <time>2022-05-24 23:40:39</time>
      </trkpt>
      <trkpt lat="40.78927" lon="0.70314">
        <ele>10.4</ele>
        <time>2022-05-24 23:40:40</time>
      </trkpt>
      <trkpt lat="40.7893" lon="0.70315">
        <ele>10.4</ele>
        <time>2022-05-24 23:40:41</time>
      </trkpt>
      <trkpt lat="40.78932" lon="0.70317">
        <ele>10.4</ele>
        <time>2022-05-24 23:40:42</time>
      </trkpt>
      <trkpt lat="40.78935" lon="0.70318">
        <ele>10.4</ele>
        <time>2022-05-24 23:40:43</time>
      </trkpt>
      <trkpt lat="40.78938" lon="0.7032">
        <ele>10.4</ele>
        <time>2022-05-24 23:40:44</time>
      </trkpt>
      <trkpt lat="40.7894" lon="0.70323">
        <ele>10.4</ele>
        <time>2022-05-24 23:40:45</time>
      </trkpt>
      <trkpt lat="40.78942" lon="0.70325">
        <ele>10.4</ele>
        <time>2022-05-24 23:40:46</time>
      </trkpt>
      <trkpt lat="40.78945" lon="0.70328">
        <ele>10.4</ele>
        <time>2022-05-24 23:40:47</time>
      </trkpt>
      <trkpt lat="40.78947" lon="0.70331">
        <ele>10.2</ele>
        <time>2022-05-24 23:40:48</time>
      </trkpt>
      <trkpt lat="40.78949" lon="0.70334">
        <ele>10.2</ele>
        <time>2022-05-24 23:40:49</time>
      </trkpt>
      <trkpt lat="40.78951" lon="0.70336">
        <ele>10.2</ele>
        <time>2022-05-24 23:40:50</time>
      </trkpt>
      <trkpt lat="40.78953" lon="0.70339">
        <ele>10.2</ele>
        <time>2022-05-24 23:40:51</time>
      </trkpt>
      <trkpt lat="40.78955" lon="0.70341">
        <ele>10.2</ele>
        <time>2022-05-24 23:40:52</time>
      </trkpt>
      <trkpt lat="40.78957" lon="0.70344">
        <ele>10.2</ele>
        <time>2022-05-24 23:40:53</time>
      </trkpt>
      <trkpt lat="40.78959" lon="0.70346">
        <ele>10.2</ele>
        <time>2022-05-24 23:40:54</time>
      </trkpt>
      <trkpt lat="40.78961" lon="0.70349">
        <ele>10.2</ele>
        <time>2022-05-24 23:40:55</time>
      </trkpt>
      <trkpt lat="40.78963" lon="0.70352">
        <ele>10.2</ele>
        <time>2022-05-24 23:40:56</time>
      </trkpt>
      <trkpt lat="40.78965" lon="0.70354">
        <ele>10.2</ele>
        <time>2022-05-24 23:40:57</time>
      </trkpt>
      <trkpt lat="40.78967" lon="0.70357">
        <ele>10.2</ele>
        <time>2022-05-24 23:40:58</time>
      </trkpt>
      <trkpt lat="40.78969" lon="0.7036">
        <ele>10.2</ele>
        <time>2022-05-24 23:40:59</time>
      </trkpt>
      <trkpt lat="40.78971" lon="0.70362">
        <ele>10.2</ele>
        <time>2022-05-24 23:41:00</time>
      </trkpt>
      <trkpt lat="40.78973" lon="0.70364">
        <ele>10.2</ele>
        <time>2022-05-24 23:41:01</time>
      </trkpt>
      <trkpt lat="40.78975" lon="0.70367">
        <ele>10</ele>
        <time>2022-05-24 23:41:02</time>
      </trkpt>
      <trkpt lat="40.78976" lon="0.70369">
        <ele>9.6</ele>
        <time>2022-05-24 23:41:03</time>
      </trkpt>
      <trkpt lat="40.78978" lon="0.70371">
        <ele>9.2</ele>
        <time>2022-05-24 23:41:04</time>
      </trkpt>
      <trkpt lat="40.7898" lon="0.70373">
        <ele>9</ele>
        <time>2022-05-24 23:41:05</time>
      </trkpt>
      <trkpt lat="40.78981" lon="0.70375">
        <ele>8.6</ele>
        <time>2022-05-24 23:41:06</time>
      </trkpt>
      <trkpt lat="40.78983" lon="0.70377">
        <ele>8.4</ele>
        <time>2022-05-24 23:41:07</time>
      </trkpt>
      <trkpt lat="40.78985" lon="0.7038">
        <ele>8.6</ele>
        <time>2022-05-24 23:41:08</time>
      </trkpt>
      <trkpt lat="40.78987" lon="0.70382">
        <ele>8.8</ele>
        <time>2022-05-24 23:41:09</time>
      </trkpt>
      <trkpt lat="40.78989" lon="0.70385">
        <ele>8.6</ele>
        <time>2022-05-24 23:41:10</time>
      </trkpt>
      <trkpt lat="40.78991" lon="0.70387">
        <ele>8.6</ele>
        <time>2022-05-24 23:41:11</time>
      </trkpt>
      <trkpt lat="40.78993" lon="0.7039">
        <ele>8.4</ele>
        <time>2022-05-24 23:41:12</time>
      </trkpt>
      <trkpt lat="40.78995" lon="0.70393">
        <ele>8.6</ele>
        <time>2022-05-24 23:41:13</time>
      </trkpt>
      <trkpt lat="40.78997" lon="0.70395">
        <ele>9</ele>
        <time>2022-05-24 23:41:14</time>
      </trkpt>
      <trkpt lat="40.78999" lon="0.70398">
        <ele>9</ele>
        <time>2022-05-24 23:41:15</time>
      </trkpt>
      <trkpt lat="40.79001" lon="0.70401">
        <ele>8.8</ele>
        <time>2022-05-24 23:41:16</time>
      </trkpt>
      <trkpt lat="40.79003" lon="0.70403">
        <ele>8.8</ele>
        <time>2022-05-24 23:41:17</time>
      </trkpt>
      <trkpt lat="40.79005" lon="0.70405">
        <ele>8.8</ele>
        <time>2022-05-24 23:41:18</time>
      </trkpt>
      <trkpt lat="40.79007" lon="0.70408">
        <ele>8.6</ele>
        <time>2022-05-24 23:41:19</time>
      </trkpt>
      <trkpt lat="40.7901" lon="0.70411">
        <ele>8.4</ele>
        <time>2022-05-24 23:41:20</time>
      </trkpt>
      <trkpt lat="40.79012" lon="0.70413">
        <ele>8.2</ele>
        <time>2022-05-24 23:41:21</time>
      </trkpt>
      <trkpt lat="40.79014" lon="0.70417">
        <ele>8.2</ele>
        <time>2022-05-24 23:41:22</time>
      </trkpt>
      <trkpt lat="40.79016" lon="0.7042">
        <ele>8</ele>
        <time>2022-05-24 23:41:23</time>
      </trkpt>
      <trkpt lat="40.79018" lon="0.70422">
        <ele>8</ele>
        <time>2022-05-24 23:41:24</time>
      </trkpt>
      <trkpt lat="40.79021" lon="0.70426">
        <ele>8</ele>
        <time>2022-05-24 23:41:25</time>
      </trkpt>
      <trkpt lat="40.79023" lon="0.70429">
        <ele>7.8</ele>
        <time>2022-05-24 23:41:26</time>
      </trkpt>
      <trkpt lat="40.79026" lon="0.70432">
        <ele>7.8</ele>
        <time>2022-05-24 23:41:27</time>
      </trkpt>
      <trkpt lat="40.79028" lon="0.70435">
        <ele>7.8</ele>
        <time>2022-05-24 23:41:28</time>
      </trkpt>
      <trkpt lat="40.79031" lon="0.70438">
        <ele>7.8</ele>
        <time>2022-05-24 23:41:29</time>
      </trkpt>
      <trkpt lat="40.79033" lon="0.70441">
        <ele>7.8</ele>
        <time>2022-05-24 23:41:30</time>
      </trkpt>
      <trkpt lat="40.79036" lon="0.70444">
        <ele>7.8</ele>
        <time>2022-05-24 23:41:31</time>
      </trkpt>
      <trkpt lat="40.79038" lon="0.70447">
        <ele>8</ele>
        <time>2022-05-24 23:41:32</time>
      </trkpt>
      <trkpt lat="40.7904" lon="0.7045">
        <ele>8</ele>
        <time>2022-05-24 23:41:33</time>
      </trkpt>
      <trkpt lat="40.79042" lon="0.70453">
        <ele>8</ele>
        <time>2022-05-24 23:41:34</time>
      </trkpt>
      <trkpt lat="40.79044" lon="0.70456">
        <ele>8</ele>
        <time>2022-05-24 23:41:35</time>
      </trkpt>
      <trkpt lat="40.79045" lon="0.70458">
        <ele>8.2</ele>
        <time>2022-05-24 23:41:36</time>
      </trkpt>
      <trkpt lat="40.79047" lon="0.70459">
        <ele>8</ele>
        <time>2022-05-24 23:41:37</time>
      </trkpt>
      <trkpt lat="40.79049" lon="0.7046">
        <ele>7.8</ele>
        <time>2022-05-24 23:41:38</time>
      </trkpt>
      <trkpt lat="40.79051" lon="0.7046">
        <ele>7.6</ele>
        <time>2022-05-24 23:41:39</time>
      </trkpt>
      <trkpt lat="40.79053" lon="0.7046">
        <ele>7.4</ele>
        <time>2022-05-24 23:41:40</time>
      </trkpt>
      <trkpt lat="40.79056" lon="0.7046">
        <ele>7</ele>
        <time>2022-05-24 23:41:41</time>
      </trkpt>
      <trkpt lat="40.79058" lon="0.70459">
        <ele>6.8</ele>
        <time>2022-05-24 23:41:42</time>
      </trkpt>
      <trkpt lat="40.79062" lon="0.70457">
        <ele>6.8</ele>
        <time>2022-05-24 23:41:43</time>
      </trkpt>
      <trkpt lat="40.79065" lon="0.70456">
        <ele>7</ele>
        <time>2022-05-24 23:41:44</time>
      </trkpt>
      <trkpt lat="40.79067" lon="0.70454">
        <ele>7.2</ele>
        <time>2022-05-24 23:41:45</time>
      </trkpt>
      <trkpt lat="40.7907" lon="0.70452">
        <ele>6.8</ele>
        <time>2022-05-24 23:41:46</time>
      </trkpt>
      <trkpt lat="40.79072" lon="0.7045">
        <ele>6.8</ele>
        <time>2022-05-24 23:41:47</time>
      </trkpt>
      <trkpt lat="40.79075" lon="0.70448">
        <ele>6.8</ele>
        <time>2022-05-24 23:41:48</time>
      </trkpt>
      <trkpt lat="40.79078" lon="0.70446">
        <ele>6.8</ele>
        <time>2022-05-24 23:41:49</time>
      </trkpt>
      <trkpt lat="40.7908" lon="0.70444">
        <ele>6.8</ele>
        <time>2022-05-24 23:41:50</time>
      </trkpt>
      <trkpt lat="40.79082" lon="0.70443">
        <ele>6.8</ele>
        <time>2022-05-24 23:41:51</time>
      </trkpt>
      <trkpt lat="40.79084" lon="0.70441">
        <ele>6.8</ele>
        <time>2022-05-24 23:41:52</time>
      </trkpt>
      <trkpt lat="40.79086" lon="0.70439">
        <ele>6.8</ele>
        <time>2022-05-24 23:41:53</time>
      </trkpt>
      <trkpt lat="40.79088" lon="0.70437">
        <ele>6.8</ele>
        <time>2022-05-24 23:41:54</time>
      </trkpt>
      <trkpt lat="40.79091" lon="0.70435">
        <ele>6.6</ele>
        <time>2022-05-24 23:41:55</time>
      </trkpt>
      <trkpt lat="40.79094" lon="0.70434">
        <ele>6.6</ele>
        <time>2022-05-24 23:41:56</time>
      </trkpt>
      <trkpt lat="40.79098" lon="0.70433">
        <ele>6.4</ele>
        <time>2022-05-24 23:41:57</time>
      </trkpt>
      <trkpt lat="40.79103" lon="0.70432">
        <ele>6.4</ele>
        <time>2022-05-24 23:41:58</time>
      </trkpt>
      <trkpt lat="40.79106" lon="0.70431">
        <ele>6.4</ele>
        <time>2022-05-24 23:41:59</time>
      </trkpt>
      <trkpt lat="40.79108" lon="0.70428">
        <ele>6.4</ele>
        <time>2022-05-24 23:42:00</time>
      </trkpt>
      <trkpt lat="40.79111" lon="0.70425">
        <ele>6.8</ele>
        <time>2022-05-24 23:42:01</time>
      </trkpt>
      <trkpt lat="40.79113" lon="0.70423">
        <ele>6.8</ele>
        <time>2022-05-24 23:42:02</time>
      </trkpt>
      <trkpt lat="40.79116" lon="0.70422">
        <ele>7</ele>
        <time>2022-05-24 23:42:03</time>
      </trkpt>
      <trkpt lat="40.79118" lon="0.70421">
        <ele>7</ele>
        <time>2022-05-24 23:42:04</time>
      </trkpt>
      <trkpt lat="40.79119" lon="0.7042">
        <ele>7.2</ele>
        <time>2022-05-24 23:42:05</time>
      </trkpt>
      <trkpt lat="40.79121" lon="0.70419">
        <ele>7.2</ele>
        <time>2022-05-24 23:42:06</time>
      </trkpt>
      <trkpt lat="40.79122" lon="0.70417">
        <ele>7.4</ele>
        <time>2022-05-24 23:42:07</time>
      </trkpt>
      <trkpt lat="40.79124" lon="0.70415">
        <ele>7.6</ele>
        <time>2022-05-24 23:42:08</time>
      </trkpt>
      <trkpt lat="40.79126" lon="0.70413">
        <ele>7.6</ele>
        <time>2022-05-24 23:42:09</time>
      </trkpt>
      <trkpt lat="40.79128" lon="0.70411">
        <ele>7.6</ele>
        <time>2022-05-24 23:42:10</time>
      </trkpt>
      <trkpt lat="40.7913" lon="0.7041">
        <ele>7.2</ele>
        <time>2022-05-24 23:42:11</time>
      </trkpt>
      <trkpt lat="40.79132" lon="0.70408">
        <ele>7</ele>
        <time>2022-05-24 23:42:12</time>
      </trkpt>
      <trkpt lat="40.79134" lon="0.70406">
        <ele>7.2</ele>
        <time>2022-05-24 23:42:13</time>
      </trkpt>
      <trkpt lat="40.79136" lon="0.70405">
        <ele>7.2</ele>
        <time>2022-05-24 23:42:14</time>
      </trkpt>
      <trkpt lat="40.79139" lon="0.70403">
        <ele>7.2</ele>
        <time>2022-05-24 23:42:15</time>
      </trkpt>
      <trkpt lat="40.79141" lon="0.70401">
        <ele>7.4</ele>
        <time>2022-05-24 23:42:16</time>
      </trkpt>
      <trkpt lat="40.79144" lon="0.70399">
        <ele>7.6</ele>
        <time>2022-05-24 23:42:17</time>
      </trkpt>
      <trkpt lat="40.79146" lon="0.70397">
        <ele>7.4</ele>
        <time>2022-05-24 23:42:18</time>
      </trkpt>
      <trkpt lat="40.79149" lon="0.70396">
        <ele>7.4</ele>
        <time>2022-05-24 23:42:19</time>
      </trkpt>
      <trkpt lat="40.79152" lon="0.70394">
        <ele>7.2</ele>
        <time>2022-05-24 23:42:20</time>
      </trkpt>
      <trkpt lat="40.79154" lon="0.70392">
        <ele>7</ele>
        <time>2022-05-24 23:42:21</time>
      </trkpt>
      <trkpt lat="40.79156" lon="0.7039">
        <ele>7</ele>
        <time>2022-05-24 23:42:22</time>
      </trkpt>
      <trkpt lat="40.79159" lon="0.70389">
        <ele>7</ele>
        <time>2022-05-24 23:42:23</time>
      </trkpt>
      <trkpt lat="40.79161" lon="0.70388">
        <ele>7</ele>
        <time>2022-05-24 23:42:24</time>
      </trkpt>
      <trkpt lat="40.79164" lon="0.70386">
        <ele>7</ele>
        <time>2022-05-24 23:42:25</time>
      </trkpt>
      <trkpt lat="40.79167" lon="0.70385">
        <ele>7</ele>
        <time>2022-05-24 23:42:26</time>
      </trkpt>
      <trkpt lat="40.79169" lon="0.70383">
        <ele>7</ele>
        <time>2022-05-24 23:42:27</time>
      </trkpt>
      <trkpt lat="40.79171" lon="0.70381">
        <ele>7</ele>
        <time>2022-05-24 23:42:28</time>
      </trkpt>
      <trkpt lat="40.79174" lon="0.70379">
        <ele>6.8</ele>
        <time>2022-05-24 23:42:29</time>
      </trkpt>
      <trkpt lat="40.79176" lon="0.70377">
        <ele>6.8</ele>
        <time>2022-05-24 23:42:30</time>
      </trkpt>
      <trkpt lat="40.79178" lon="0.70375">
        <ele>6.8</ele>
        <time>2022-05-24 23:42:31</time>
      </trkpt>
      <trkpt lat="40.7918" lon="0.70373">
        <ele>7</ele>
        <time>2022-05-24 23:42:32</time>
      </trkpt>
      <trkpt lat="40.79182" lon="0.70371">
        <ele>7</ele>
        <time>2022-05-24 23:42:33</time>
      </trkpt>
      <trkpt lat="40.79184" lon="0.70369">
        <ele>6.8</ele>
        <time>2022-05-24 23:42:34</time>
      </trkpt>
      <trkpt lat="40.79185" lon="0.70367">
        <ele>6.8</ele>
        <time>2022-05-24 23:42:35</time>
      </trkpt>
      <trkpt lat="40.79187" lon="0.70366">
        <ele>7</ele>
        <time>2022-05-24 23:42:36</time>
      </trkpt>
      <trkpt lat="40.79189" lon="0.70365">
        <ele>7</ele>
        <time>2022-05-24 23:42:37</time>
      </trkpt>
      <trkpt lat="40.7919" lon="0.70363">
        <ele>7</ele>
        <time>2022-05-24 23:42:38</time>
      </trkpt>
      <trkpt lat="40.7919" lon="0.70362">
        <ele>7</ele>
        <time>2022-05-24 23:42:39</time>
      </trkpt>
      <trkpt lat="40.79191" lon="0.7036">
        <ele>7</ele>
        <time>2022-05-24 23:42:40</time>
      </trkpt>
      <trkpt lat="40.79191" lon="0.70358">
        <ele>7.4</ele>
        <time>2022-05-24 23:42:41</time>
      </trkpt>
      <trkpt lat="40.79192" lon="0.70357">
        <ele>7.8</ele>
        <time>2022-05-24 23:42:42</time>
      </trkpt>
      <trkpt lat="40.79193" lon="0.70357">
        <ele>8.4</ele>
        <time>2022-05-24 23:42:43</time>
      </trkpt>
      <trkpt lat="40.79193" lon="0.70357">
        <ele>8.8</ele>
        <time>2022-05-24 23:42:44</time>
      </trkpt>
      <trkpt lat="40.79194" lon="0.70358">
        <ele>9.6</ele>
        <time>2022-05-24 23:42:45</time>
      </trkpt>
      <trkpt lat="40.79193" lon="0.7036">
        <ele>10</ele>
        <time>2022-05-24 23:42:46</time>
      </trkpt>
      <trkpt lat="40.79193" lon="0.70361">
        <ele>10.4</ele>
        <time>2022-05-24 23:42:47</time>
      </trkpt>
      <trkpt lat="40.79192" lon="0.70363">
        <ele>10.4</ele>
        <time>2022-05-24 23:42:48</time>
      </trkpt>
      <trkpt lat="40.7919" lon="0.70365">
        <ele>10.2</ele>
        <time>2022-05-24 23:42:49</time>
      </trkpt>
      <trkpt lat="40.7919" lon="0.70367">
        <ele>10</ele>
        <time>2022-05-24 23:42:50</time>
      </trkpt>
      <trkpt lat="40.79189" lon="0.7037">
        <ele>9.6</ele>
        <time>2022-05-24 23:42:51</time>
      </trkpt>
      <trkpt lat="40.79189" lon="0.70373">
        <ele>9.2</ele>
        <time>2022-05-24 23:42:52</time>
      </trkpt>
      <trkpt lat="40.7919" lon="0.70375">
        <ele>8.8</ele>
        <time>2022-05-24 23:42:53</time>
      </trkpt>
      <trkpt lat="40.79191" lon="0.70378">
        <ele>8.6</ele>
        <time>2022-05-24 23:42:54</time>
      </trkpt>
      <trkpt lat="40.79192" lon="0.70381">
        <ele>8.4</ele>
        <time>2022-05-24 23:42:55</time>
      </trkpt>
      <trkpt lat="40.79193" lon="0.70383">
        <ele>8.4</ele>
        <time>2022-05-24 23:42:56</time>
      </trkpt>
      <trkpt lat="40.79195" lon="0.70386">
        <ele>8.2</ele>
        <time>2022-05-24 23:42:57</time>
      </trkpt>
      <trkpt lat="40.79196" lon="0.70389">
        <ele>8.2</ele>
        <time>2022-05-24 23:42:58</time>
      </trkpt>
      <trkpt lat="40.79198" lon="0.70392">
        <ele>8</ele>
        <time>2022-05-24 23:42:59</time>
      </trkpt>
      <trkpt lat="40.79201" lon="0.70394">
        <ele>7.8</ele>
        <time>2022-05-24 23:43:00</time>
      </trkpt>
      <trkpt lat="40.79204" lon="0.70395">
        <ele>7.6</ele>
        <time>2022-05-24 23:43:01</time>
      </trkpt>
      <trkpt lat="40.79207" lon="0.70395">
        <ele>7.2</ele>
        <time>2022-05-24 23:43:02</time>
      </trkpt>
      <trkpt lat="40.7921" lon="0.70394">
        <ele>7</ele>
        <time>2022-05-24 23:43:03</time>
      </trkpt>
      <trkpt lat="40.79213" lon="0.70392">
        <ele>7</ele>
        <time>2022-05-24 23:43:04</time>
      </trkpt>
      <trkpt lat="40.79216" lon="0.7039">
        <ele>7</ele>
        <time>2022-05-24 23:43:05</time>
      </trkpt>
      <trkpt lat="40.79219" lon="0.70388">
        <ele>7</ele>
        <time>2022-05-24 23:43:06</time>
      </trkpt>
      <trkpt lat="40.79222" lon="0.70387">
        <ele>7</ele>
        <time>2022-05-24 23:43:07</time>
      </trkpt>
      <trkpt lat="40.79225" lon="0.70385">
        <ele>6.8</ele>
        <time>2022-05-24 23:43:08</time>
      </trkpt>
      <trkpt lat="40.79228" lon="0.70383">
        <ele>6.8</ele>
        <time>2022-05-24 23:43:09</time>
      </trkpt>
      <trkpt lat="40.79231" lon="0.70382">
        <ele>6.6</ele>
        <time>2022-05-24 23:43:10</time>
      </trkpt>
      <trkpt lat="40.79234" lon="0.7038">
        <ele>6.6</ele>
        <time>2022-05-24 23:43:11</time>
      </trkpt>
      <trkpt lat="40.79237" lon="0.70379">
        <ele>6.4</ele>
        <time>2022-05-24 23:43:12</time>
      </trkpt>
      <trkpt lat="40.79241" lon="0.70377">
        <ele>6.6</ele>
        <time>2022-05-24 23:43:13</time>
      </trkpt>
      <trkpt lat="40.79244" lon="0.70375">
        <ele>6.6</ele>
        <time>2022-05-24 23:43:14</time>
      </trkpt>
      <trkpt lat="40.79247" lon="0.70374">
        <ele>6.6</ele>
        <time>2022-05-24 23:43:15</time>
      </trkpt>
      <trkpt lat="40.7925" lon="0.70372">
        <ele>6.8</ele>
        <time>2022-05-24 23:43:16</time>
      </trkpt>
      <trkpt lat="40.79253" lon="0.70371">
        <ele>6.6</ele>
        <time>2022-05-24 23:43:17</time>
      </trkpt>
      <trkpt lat="40.79257" lon="0.70369">
        <ele>6.4</ele>
        <time>2022-05-24 23:43:18</time>
      </trkpt>
      <trkpt lat="40.7926" lon="0.70367">
        <ele>6</ele>
        <time>2022-05-24 23:43:19</time>
      </trkpt>
      <trkpt lat="40.79263" lon="0.70366">
        <ele>5.8</ele>
        <time>2022-05-24 23:43:20</time>
      </trkpt>
      <trkpt lat="40.79266" lon="0.70364">
        <ele>5.8</ele>
        <time>2022-05-24 23:43:21</time>
      </trkpt>
      <trkpt lat="40.79269" lon="0.70363">
        <ele>5.8</ele>
        <time>2022-05-24 23:43:22</time>
      </trkpt>
      <trkpt lat="40.79272" lon="0.70361">
        <ele>5.8</ele>
        <time>2022-05-24 23:43:23</time>
      </trkpt>
      <trkpt lat="40.79275" lon="0.7036">
        <ele>5.8</ele>
        <time>2022-05-24 23:43:24</time>
      </trkpt>
      <trkpt lat="40.79277" lon="0.70359">
        <ele>5.8</ele>
        <time>2022-05-24 23:43:25</time>
      </trkpt>
      <trkpt lat="40.7928" lon="0.70357">
        <ele>5.8</ele>
        <time>2022-05-24 23:43:26</time>
      </trkpt>
      <trkpt lat="40.79282" lon="0.70355">
        <ele>5.6</ele>
        <time>2022-05-24 23:43:27</time>
      </trkpt>
      <trkpt lat="40.79285" lon="0.70353">
        <ele>5.6</ele>
        <time>2022-05-24 23:43:28</time>
      </trkpt>
      <trkpt lat="40.79288" lon="0.70352">
        <ele>5.6</ele>
        <time>2022-05-24 23:43:29</time>
      </trkpt>
      <trkpt lat="40.79291" lon="0.7035">
        <ele>5.8</ele>
        <time>2022-05-24 23:43:30</time>
      </trkpt>
      <trkpt lat="40.79294" lon="0.70348">
        <ele>5.6</ele>
        <time>2022-05-24 23:43:31</time>
      </trkpt>
      <trkpt lat="40.79297" lon="0.70347">
        <ele>5.6</ele>
        <time>2022-05-24 23:43:32</time>
      </trkpt>
      <trkpt lat="40.793" lon="0.70346">
        <ele>5.6</ele>
        <time>2022-05-24 23:43:33</time>
      </trkpt>
      <trkpt lat="40.79303" lon="0.70345">
        <ele>5.2</ele>
        <time>2022-05-24 23:43:34</time>
      </trkpt>
      <trkpt lat="40.79306" lon="0.70343">
        <ele>4.8</ele>
        <time>2022-05-24 23:43:35</time>
      </trkpt>
      <trkpt lat="40.79309" lon="0.70342">
        <ele>4.8</ele>
        <time>2022-05-24 23:43:36</time>
      </trkpt>
      <trkpt lat="40.79312" lon="0.7034">
        <ele>4.8</ele>
        <time>2022-05-24 23:43:37</time>
      </trkpt>
      <trkpt lat="40.79315" lon="0.70338">
        <ele>4.8</ele>
        <time>2022-05-24 23:43:38</time>
      </trkpt>
      <trkpt lat="40.79317" lon="0.70336">
        <ele>4.6</ele>
        <time>2022-05-24 23:43:39</time>
      </trkpt>
      <trkpt lat="40.79321" lon="0.70334">
        <ele>4.6</ele>
        <time>2022-05-24 23:43:40</time>
      </trkpt>
      <trkpt lat="40.79324" lon="0.70332">
        <ele>4.8</ele>
        <time>2022-05-24 23:43:41</time>
      </trkpt>
      <trkpt lat="40.79326" lon="0.7033">
        <ele>4.6</ele>
        <time>2022-05-24 23:43:42</time>
      </trkpt>
      <trkpt lat="40.79329" lon="0.70328">
        <ele>4.4</ele>
        <time>2022-05-24 23:43:43</time>
      </trkpt>
      <trkpt lat="40.79332" lon="0.70326">
        <ele>4.4</ele>
        <time>2022-05-24 23:43:44</time>
      </trkpt>
      <trkpt lat="40.79335" lon="0.70324">
        <ele>4.4</ele>
        <time>2022-05-24 23:43:45</time>
      </trkpt>
      <trkpt lat="40.79337" lon="0.70322">
        <ele>4.4</ele>
        <time>2022-05-24 23:43:46</time>
      </trkpt>
      <trkpt lat="40.79341" lon="0.70321">
        <ele>4.4</ele>
        <time>2022-05-24 23:43:47</time>
      </trkpt>
      <trkpt lat="40.79344" lon="0.70319">
        <ele>4.6</ele>
        <time>2022-05-24 23:43:48</time>
      </trkpt>
      <trkpt lat="40.79346" lon="0.70317">
        <ele>4.4</ele>
        <time>2022-05-24 23:43:49</time>
      </trkpt>
      <trkpt lat="40.7935" lon="0.70315">
        <ele>4</ele>
        <time>2022-05-24 23:43:50</time>
      </trkpt>
      <trkpt lat="40.79353" lon="0.70313">
        <ele>4.2</ele>
        <time>2022-05-24 23:43:51</time>
      </trkpt>
      <trkpt lat="40.79355" lon="0.70312">
        <ele>4.4</ele>
        <time>2022-05-24 23:43:52</time>
      </trkpt>
      <trkpt lat="40.79358" lon="0.7031">
        <ele>4.4</ele>
        <time>2022-05-24 23:43:53</time>
      </trkpt>
      <trkpt lat="40.79361" lon="0.70308">
        <ele>4.4</ele>
        <time>2022-05-24 23:43:54</time>
      </trkpt>
      <trkpt lat="40.79364" lon="0.70307">
        <ele>4.4</ele>
        <time>2022-05-24 23:43:55</time>
      </trkpt>
      <trkpt lat="40.79367" lon="0.70305">
        <ele>4.6</ele>
        <time>2022-05-24 23:43:56</time>
      </trkpt>
      <trkpt lat="40.7937" lon="0.70304">
        <ele>4.8</ele>
        <time>2022-05-24 23:43:57</time>
      </trkpt>
      <trkpt lat="40.79372" lon="0.70303">
        <ele>4.8</ele>
        <time>2022-05-24 23:43:58</time>
      </trkpt>
      <trkpt lat="40.79374" lon="0.70301">
        <ele>5</ele>
        <time>2022-05-24 23:43:59</time>
      </trkpt>
      <trkpt lat="40.79376" lon="0.703">
        <ele>5</ele>
        <time>2022-05-24 23:44:00</time>
      </trkpt>
      <trkpt lat="40.79378" lon="0.70299">
        <ele>5</ele>
        <time>2022-05-24 23:44:01</time>
      </trkpt>
      <trkpt lat="40.79381" lon="0.70297">
        <ele>5</ele>
        <time>2022-05-24 23:44:02</time>
      </trkpt>
      <trkpt lat="40.79383" lon="0.70296">
        <ele>4.8</ele>
        <time>2022-05-24 23:44:03</time>
      </trkpt>
      <trkpt lat="40.79385" lon="0.70294">
        <ele>4.8</ele>
        <time>2022-05-24 23:44:04</time>
      </trkpt>
      <trkpt lat="40.79388" lon="0.70292">
        <ele>4.8</ele>
        <time>2022-05-24 23:44:05</time>
      </trkpt>
      <trkpt lat="40.7939" lon="0.70291">
        <ele>4.8</ele>
        <time>2022-05-24 23:44:06</time>
      </trkpt>
      <trkpt lat="40.79393" lon="0.70289">
        <ele>4.8</ele>
        <time>2022-05-24 23:44:07</time>
      </trkpt>
      <trkpt lat="40.79396" lon="0.70288">
        <ele>5</ele>
        <time>2022-05-24 23:44:08</time>
      </trkpt>
      <trkpt lat="40.79398" lon="0.70286">
        <ele>5</ele>
        <time>2022-05-24 23:44:09</time>
      </trkpt>
      <trkpt lat="40.79401" lon="0.70286">
        <ele>4.8</ele>
        <time>2022-05-24 23:44:10</time>
      </trkpt>
      <trkpt lat="40.79404" lon="0.70285">
        <ele>5</ele>
        <time>2022-05-24 23:44:11</time>
      </trkpt>
      <trkpt lat="40.79407" lon="0.70284">
        <ele>5</ele>
        <time>2022-05-24 23:44:12</time>
      </trkpt>
      <trkpt lat="40.7941" lon="0.70283">
        <ele>5.2</ele>
        <time>2022-05-24 23:44:13</time>
      </trkpt>
      <trkpt lat="40.79413" lon="0.70281">
        <ele>5.4</ele>
        <time>2022-05-24 23:44:14</time>
      </trkpt>
      <trkpt lat="40.79416" lon="0.70279">
        <ele>5.6</ele>
        <time>2022-05-24 23:44:15</time>
      </trkpt>
      <trkpt lat="40.79419" lon="0.70277">
        <ele>5.8</ele>
        <time>2022-05-24 23:44:16</time>
      </trkpt>
      <trkpt lat="40.79422" lon="0.70275">
        <ele>6.2</ele>
        <time>2022-05-24 23:44:17</time>
      </trkpt>
      <trkpt lat="40.79425" lon="0.70273">
        <ele>6.6</ele>
        <time>2022-05-24 23:44:18</time>
      </trkpt>
      <trkpt lat="40.79428" lon="0.70271">
        <ele>7.2</ele>
        <time>2022-05-24 23:44:19</time>
      </trkpt>
      <trkpt lat="40.79431" lon="0.7027">
        <ele>7.4</ele>
        <time>2022-05-24 23:44:20</time>
      </trkpt>
      <trkpt lat="40.79434" lon="0.70268">
        <ele>7.6</ele>
        <time>2022-05-24 23:44:21</time>
      </trkpt>
      <trkpt lat="40.79436" lon="0.70266">
        <ele>7.8</ele>
        <time>2022-05-24 23:44:22</time>
      </trkpt>
      <trkpt lat="40.79439" lon="0.70264">
        <ele>7.8</ele>
        <time>2022-05-24 23:44:23</time>
      </trkpt>
      <trkpt lat="40.79442" lon="0.70262">
        <ele>7.8</ele>
        <time>2022-05-24 23:44:24</time>
      </trkpt>
      <trkpt lat="40.79445" lon="0.7026">
        <ele>7.6</ele>
        <time>2022-05-24 23:44:25</time>
      </trkpt>
      <trkpt lat="40.79447" lon="0.70258">
        <ele>7.8</ele>
        <time>2022-05-24 23:44:26</time>
      </trkpt>
      <trkpt lat="40.7945" lon="0.70256">
        <ele>7.8</ele>
        <time>2022-05-24 23:44:27</time>
      </trkpt>
      <trkpt lat="40.79453" lon="0.70254">
        <ele>8</ele>
        <time>2022-05-24 23:44:28</time>
      </trkpt>
      <trkpt lat="40.79456" lon="0.70252">
        <ele>8</ele>
        <time>2022-05-24 23:44:29</time>
      </trkpt>
      <trkpt lat="40.79459" lon="0.7025">
        <ele>8</ele>
        <time>2022-05-24 23:44:30</time>
      </trkpt>
      <trkpt lat="40.79462" lon="0.70248">
        <ele>8</ele>
        <time>2022-05-24 23:44:31</time>
      </trkpt>
      <trkpt lat="40.79465" lon="0.70246">
        <ele>7.8</ele>
        <time>2022-05-24 23:44:32</time>
      </trkpt>
      <trkpt lat="40.79468" lon="0.70244">
        <ele>7.6</ele>
        <time>2022-05-24 23:44:33</time>
      </trkpt>
      <trkpt lat="40.79471" lon="0.70243">
        <ele>7.6</ele>
        <time>2022-05-24 23:44:34</time>
      </trkpt>
      <trkpt lat="40.79474" lon="0.70241">
        <ele>7.6</ele>
        <time>2022-05-24 23:44:35</time>
      </trkpt>
      <trkpt lat="40.79477" lon="0.7024">
        <ele>7.4</ele>
        <time>2022-05-24 23:44:36</time>
      </trkpt>
      <trkpt lat="40.7948" lon="0.70238">
        <ele>7.2</ele>
        <time>2022-05-24 23:44:37</time>
      </trkpt>
      <trkpt lat="40.79482" lon="0.70236">
        <ele>7.2</ele>
        <time>2022-05-24 23:44:38</time>
      </trkpt>
      <trkpt lat="40.79485" lon="0.70234">
        <ele>7.4</ele>
        <time>2022-05-24 23:44:39</time>
      </trkpt>
      <trkpt lat="40.79488" lon="0.70233">
        <ele>7.4</ele>
        <time>2022-05-24 23:44:40</time>
      </trkpt>
      <trkpt lat="40.79491" lon="0.70231">
        <ele>7.4</ele>
        <time>2022-05-24 23:44:41</time>
      </trkpt>
      <trkpt lat="40.79493" lon="0.7023">
        <ele>7.4</ele>
        <time>2022-05-24 23:44:42</time>
      </trkpt>
      <trkpt lat="40.79497" lon="0.70228">
        <ele>7.4</ele>
        <time>2022-05-24 23:44:43</time>
      </trkpt>
      <trkpt lat="40.795" lon="0.70226">
        <ele>7.4</ele>
        <time>2022-05-24 23:44:44</time>
      </trkpt>
      <trkpt lat="40.79502" lon="0.70225">
        <ele>7.6</ele>
        <time>2022-05-24 23:44:45</time>
      </trkpt>
      <trkpt lat="40.79506" lon="0.70224">
        <ele>7.4</ele>
        <time>2022-05-24 23:44:46</time>
      </trkpt>
      <trkpt lat="40.79509" lon="0.70222">
        <ele>7.4</ele>
        <time>2022-05-24 23:44:47</time>
      </trkpt>
      <trkpt lat="40.79511" lon="0.7022">
        <ele>7.4</ele>
        <time>2022-05-24 23:44:48</time>
      </trkpt>
      <trkpt lat="40.79514" lon="0.70218">
        <ele>7.6</ele>
        <time>2022-05-24 23:44:49</time>
      </trkpt>
      <trkpt lat="40.79517" lon="0.70216">
        <ele>7.8</ele>
        <time>2022-05-24 23:44:50</time>
      </trkpt>
      <trkpt lat="40.7952" lon="0.70215">
        <ele>7.8</ele>
        <time>2022-05-24 23:44:51</time>
      </trkpt>
      <trkpt lat="40.79523" lon="0.70213">
        <ele>7.6</ele>
        <time>2022-05-24 23:44:52</time>
      </trkpt>
      <trkpt lat="40.79525" lon="0.70212">
        <ele>7.4</ele>
        <time>2022-05-24 23:44:53</time>
      </trkpt>
      <trkpt lat="40.79528" lon="0.7021">
        <ele>7.2</ele>
        <time>2022-05-24 23:44:54</time>
      </trkpt>
      <trkpt lat="40.79531" lon="0.70208">
        <ele>7.2</ele>
        <time>2022-05-24 23:44:55</time>
      </trkpt>
      <trkpt lat="40.79535" lon="0.70207">
        <ele>7.4</ele>
        <time>2022-05-24 23:44:56</time>
      </trkpt>
      <trkpt lat="40.79537" lon="0.70205">
        <ele>7.4</ele>
        <time>2022-05-24 23:44:57</time>
      </trkpt>
      <trkpt lat="40.7954" lon="0.70204">
        <ele>7.8</ele>
        <time>2022-05-24 23:44:58</time>
      </trkpt>
      <trkpt lat="40.79543" lon="0.70202">
        <ele>7.8</ele>
        <time>2022-05-24 23:44:59</time>
      </trkpt>
      <trkpt lat="40.79546" lon="0.702">
        <ele>8</ele>
        <time>2022-05-24 23:45:00</time>
      </trkpt>
      <trkpt lat="40.79549" lon="0.70198">
        <ele>7.8</ele>
        <time>2022-05-24 23:45:01</time>
      </trkpt>
      <trkpt lat="40.79551" lon="0.70197">
        <ele>7.6</ele>
        <time>2022-05-24 23:45:02</time>
      </trkpt>
      <trkpt lat="40.79554" lon="0.70194">
        <ele>7.6</ele>
        <time>2022-05-24 23:45:03</time>
      </trkpt>
      <trkpt lat="40.79557" lon="0.70193">
        <ele>7.8</ele>
        <time>2022-05-24 23:45:04</time>
      </trkpt>
      <trkpt lat="40.7956" lon="0.70191">
        <ele>7.8</ele>
        <time>2022-05-24 23:45:05</time>
      </trkpt>
      <trkpt lat="40.79563" lon="0.7019">
        <ele>7.6</ele>
        <time>2022-05-24 23:45:06</time>
      </trkpt>
      <trkpt lat="40.79565" lon="0.70188">
        <ele>7.6</ele>
        <time>2022-05-24 23:45:07</time>
      </trkpt>
      <trkpt lat="40.79568" lon="0.70186">
        <ele>7.6</ele>
        <time>2022-05-24 23:45:08</time>
      </trkpt>
      <trkpt lat="40.79572" lon="0.70184">
        <ele>7.6</ele>
        <time>2022-05-24 23:45:09</time>
      </trkpt>
      <trkpt lat="40.79574" lon="0.70182">
        <ele>7.6</ele>
        <time>2022-05-24 23:45:10</time>
      </trkpt>
      <trkpt lat="40.79577" lon="0.7018">
        <ele>7.6</ele>
        <time>2022-05-24 23:45:11</time>
      </trkpt>
      <trkpt lat="40.7958" lon="0.70179">
        <ele>7.4</ele>
        <time>2022-05-24 23:45:12</time>
      </trkpt>
      <trkpt lat="40.79583" lon="0.70177">
        <ele>7.4</ele>
        <time>2022-05-24 23:45:13</time>
      </trkpt>
      <trkpt lat="40.79585" lon="0.70174">
        <ele>7.4</ele>
        <time>2022-05-24 23:45:14</time>
      </trkpt>
      <trkpt lat="40.79587" lon="0.70172">
        <ele>7.4</ele>
        <time>2022-05-24 23:45:15</time>
      </trkpt>
      <trkpt lat="40.79589" lon="0.7017">
        <ele>7.2</ele>
        <time>2022-05-24 23:45:16</time>
      </trkpt>
      <trkpt lat="40.79592" lon="0.70168">
        <ele>7</ele>
        <time>2022-05-24 23:45:17</time>
      </trkpt>
      <trkpt lat="40.79595" lon="0.70166">
        <ele>7</ele>
        <time>2022-05-24 23:45:18</time>
      </trkpt>
      <trkpt lat="40.79597" lon="0.70165">
        <ele>6.8</ele>
        <time>2022-05-24 23:45:19</time>
      </trkpt>
      <trkpt lat="40.796" lon="0.70163">
        <ele>6.6</ele>
        <time>2022-05-24 23:45:20</time>
      </trkpt>
      <trkpt lat="40.79603" lon="0.70161">
        <ele>6.6</ele>
        <time>2022-05-24 23:45:21</time>
      </trkpt>
      <trkpt lat="40.79606" lon="0.70159">
        <ele>6.6</ele>
        <time>2022-05-24 23:45:22</time>
      </trkpt>
      <trkpt lat="40.79609" lon="0.70157">
        <ele>6.4</ele>
        <time>2022-05-24 23:45:23</time>
      </trkpt>
      <trkpt lat="40.79612" lon="0.70155">
        <ele>6.6</ele>
        <time>2022-05-24 23:45:24</time>
      </trkpt>
      <trkpt lat="40.79615" lon="0.70153">
        <ele>6.8</ele>
        <time>2022-05-24 23:45:25</time>
      </trkpt>
      <trkpt lat="40.79618" lon="0.70152">
        <ele>7.4</ele>
        <time>2022-05-24 23:45:26</time>
      </trkpt>
      <trkpt lat="40.7962" lon="0.7015">
        <ele>8</ele>
        <time>2022-05-24 23:45:27</time>
      </trkpt>
      <trkpt lat="40.79623" lon="0.70148">
        <ele>8.2</ele>
        <time>2022-05-24 23:45:28</time>
      </trkpt>
      <trkpt lat="40.79626" lon="0.70146">
        <ele>8</ele>
        <time>2022-05-24 23:45:29</time>
      </trkpt>
      <trkpt lat="40.79629" lon="0.70145">
        <ele>7.6</ele>
        <time>2022-05-24 23:45:30</time>
      </trkpt>
      <trkpt lat="40.79632" lon="0.70144">
        <ele>7.4</ele>
        <time>2022-05-24 23:45:31</time>
      </trkpt>
      <trkpt lat="40.79635" lon="0.70142">
        <ele>7.4</ele>
        <time>2022-05-24 23:45:32</time>
      </trkpt>
      <trkpt lat="40.79638" lon="0.70141">
        <ele>7.2</ele>
        <time>2022-05-24 23:45:33</time>
      </trkpt>
      <trkpt lat="40.79641" lon="0.70139">
        <ele>7</ele>
        <time>2022-05-24 23:45:34</time>
      </trkpt>
      <trkpt lat="40.79644" lon="0.70137">
        <ele>7</ele>
        <time>2022-05-24 23:45:35</time>
      </trkpt>
      <trkpt lat="40.79647" lon="0.70135">
        <ele>7.2</ele>
        <time>2022-05-24 23:45:36</time>
      </trkpt>
      <trkpt lat="40.79649" lon="0.70134">
        <ele>7.8</ele>
        <time>2022-05-24 23:45:37</time>
      </trkpt>
      <trkpt lat="40.79652" lon="0.70131">
        <ele>8.6</ele>
        <time>2022-05-24 23:45:38</time>
      </trkpt>
      <trkpt lat="40.79655" lon="0.70129">
        <ele>8.6</ele>
        <time>2022-05-24 23:45:39</time>
      </trkpt>
      <trkpt lat="40.79658" lon="0.70127">
        <ele>8.4</ele>
        <time>2022-05-24 23:45:40</time>
      </trkpt>
      <trkpt lat="40.79661" lon="0.70125">
        <ele>8.2</ele>
        <time>2022-05-24 23:45:41</time>
      </trkpt>
      <trkpt lat="40.79664" lon="0.70124">
        <ele>8.2</ele>
        <time>2022-05-24 23:45:42</time>
      </trkpt>
      <trkpt lat="40.79667" lon="0.70122">
        <ele>8</ele>
        <time>2022-05-24 23:45:43</time>
      </trkpt>
      <trkpt lat="40.7967" lon="0.7012">
        <ele>8</ele>
        <time>2022-05-24 23:45:44</time>
      </trkpt>
      <trkpt lat="40.79673" lon="0.70119">
        <ele>8</ele>
        <time>2022-05-24 23:45:45</time>
      </trkpt>
      <trkpt lat="40.79676" lon="0.70117">
        <ele>8</ele>
        <time>2022-05-24 23:45:46</time>
      </trkpt>
      <trkpt lat="40.79679" lon="0.70115">
        <ele>7.8</ele>
        <time>2022-05-24 23:45:47</time>
      </trkpt>
      <trkpt lat="40.79681" lon="0.70114">
        <ele>7.8</ele>
        <time>2022-05-24 23:45:48</time>
      </trkpt>
      <trkpt lat="40.79684" lon="0.70112">
        <ele>7.8</ele>
        <time>2022-05-24 23:45:49</time>
      </trkpt>
      <trkpt lat="40.79688" lon="0.70111">
        <ele>7.8</ele>
        <time>2022-05-24 23:45:50</time>
      </trkpt>
      <trkpt lat="40.79691" lon="0.70109">
        <ele>7.6</ele>
        <time>2022-05-24 23:45:51</time>
      </trkpt>
      <trkpt lat="40.79694" lon="0.70107">
        <ele>7.6</ele>
        <time>2022-05-24 23:45:52</time>
      </trkpt>
      <trkpt lat="40.79697" lon="0.70106">
        <ele>7.6</ele>
        <time>2022-05-24 23:45:53</time>
      </trkpt>
      <trkpt lat="40.797" lon="0.70104">
        <ele>7.6</ele>
        <time>2022-05-24 23:45:54</time>
      </trkpt>
      <trkpt lat="40.79704" lon="0.70102">
        <ele>7.6</ele>
        <time>2022-05-24 23:45:55</time>
      </trkpt>
      <trkpt lat="40.79707" lon="0.70101">
        <ele>7.6</ele>
        <time>2022-05-24 23:45:56</time>
      </trkpt>
      <trkpt lat="40.7971" lon="0.701">
        <ele>7.4</ele>
        <time>2022-05-24 23:45:57</time>
      </trkpt>
      <trkpt lat="40.79713" lon="0.70098">
        <ele>7.4</ele>
        <time>2022-05-24 23:45:58</time>
      </trkpt>
      <trkpt lat="40.79716" lon="0.70097">
        <ele>7.2</ele>
        <time>2022-05-24 23:45:59</time>
      </trkpt>
      <trkpt lat="40.7972" lon="0.70095">
        <ele>7.2</ele>
        <time>2022-05-24 23:46:00</time>
      </trkpt>
      <trkpt lat="40.79723" lon="0.70093">
        <ele>7.2</ele>
        <time>2022-05-24 23:46:01</time>
      </trkpt>
      <trkpt lat="40.79726" lon="0.70091">
        <ele>7.2</ele>
        <time>2022-05-24 23:46:02</time>
      </trkpt>
      <trkpt lat="40.79729" lon="0.7009">
        <ele>7.4</ele>
        <time>2022-05-24 23:46:03</time>
      </trkpt>
      <trkpt lat="40.79732" lon="0.70088">
        <ele>7.2</ele>
        <time>2022-05-24 23:46:04</time>
      </trkpt>
      <trkpt lat="40.79735" lon="0.70086">
        <ele>7.2</ele>
        <time>2022-05-24 23:46:05</time>
      </trkpt>
      <trkpt lat="40.79738" lon="0.70084">
        <ele>7.2</ele>
        <time>2022-05-24 23:46:06</time>
      </trkpt>
      <trkpt lat="40.79741" lon="0.70082">
        <ele>7.4</ele>
        <time>2022-05-24 23:46:07</time>
      </trkpt>
      <trkpt lat="40.79744" lon="0.70081">
        <ele>7.6</ele>
        <time>2022-05-24 23:46:08</time>
      </trkpt>
      <trkpt lat="40.79747" lon="0.70079">
        <ele>7.6</ele>
        <time>2022-05-24 23:46:09</time>
      </trkpt>
      <trkpt lat="40.79749" lon="0.70077">
        <ele>7.6</ele>
        <time>2022-05-24 23:46:10</time>
      </trkpt>
      <trkpt lat="40.79752" lon="0.70075">
        <ele>7.6</ele>
        <time>2022-05-24 23:46:11</time>
      </trkpt>
      <trkpt lat="40.79755" lon="0.70072">
        <ele>7.6</ele>
        <time>2022-05-24 23:46:12</time>
      </trkpt>
      <trkpt lat="40.79757" lon="0.70069">
        <ele>7.6</ele>
        <time>2022-05-24 23:46:13</time>
      </trkpt>
      <trkpt lat="40.79759" lon="0.70067">
        <ele>7.6</ele>
        <time>2022-05-24 23:46:14</time>
      </trkpt>
      <trkpt lat="40.79761" lon="0.70065">
        <ele>7.8</ele>
        <time>2022-05-24 23:46:15</time>
      </trkpt>
      <trkpt lat="40.79763" lon="0.70063">
        <ele>8</ele>
        <time>2022-05-24 23:46:16</time>
      </trkpt>
      <trkpt lat="40.79765" lon="0.70061">
        <ele>7.8</ele>
        <time>2022-05-24 23:46:17</time>
      </trkpt>
      <trkpt lat="40.79768" lon="0.70059">
        <ele>7.8</ele>
        <time>2022-05-24 23:46:18</time>
      </trkpt>
      <trkpt lat="40.7977" lon="0.70058">
        <ele>7.6</ele>
        <time>2022-05-24 23:46:19</time>
      </trkpt>
      <trkpt lat="40.79774" lon="0.70057">
        <ele>7.8</ele>
        <time>2022-05-24 23:46:20</time>
      </trkpt>
      <trkpt lat="40.79777" lon="0.70056">
        <ele>7.8</ele>
        <time>2022-05-24 23:46:21</time>
      </trkpt>
      <trkpt lat="40.79781" lon="0.70054">
        <ele>8</ele>
        <time>2022-05-24 23:46:22</time>
      </trkpt>
      <trkpt lat="40.79785" lon="0.70052">
        <ele>8.2</ele>
        <time>2022-05-24 23:46:23</time>
      </trkpt>
      <trkpt lat="40.79789" lon="0.70051">
        <ele>8.4</ele>
        <time>2022-05-24 23:46:24</time>
      </trkpt>
      <trkpt lat="40.79792" lon="0.70049">
        <ele>8.6</ele>
        <time>2022-05-24 23:46:25</time>
      </trkpt>
      <trkpt lat="40.79796" lon="0.70048">
        <ele>8.8</ele>
        <time>2022-05-24 23:46:26</time>
      </trkpt>
      <trkpt lat="40.798" lon="0.70046">
        <ele>9.4</ele>
        <time>2022-05-24 23:46:27</time>
      </trkpt>
      <trkpt lat="40.79805" lon="0.70045">
        <ele>9.4</ele>
        <time>2022-05-24 23:46:28</time>
      </trkpt>
      <trkpt lat="40.79808" lon="0.70044">
        <ele>9.4</ele>
        <time>2022-05-24 23:46:29</time>
      </trkpt>
      <trkpt lat="40.79812" lon="0.70042">
        <ele>9.4</ele>
        <time>2022-05-24 23:46:30</time>
      </trkpt>
      <trkpt lat="40.79816" lon="0.70041">
        <ele>9.2</ele>
        <time>2022-05-24 23:46:31</time>
      </trkpt>
      <trkpt lat="40.7982" lon="0.7004">
        <ele>9</ele>
        <time>2022-05-24 23:46:32</time>
      </trkpt>
      <trkpt lat="40.79824" lon="0.70038">
        <ele>8.8</ele>
        <time>2022-05-24 23:46:33</time>
      </trkpt>
      <trkpt lat="40.79828" lon="0.70037">
        <ele>8.8</ele>
        <time>2022-05-24 23:46:34</time>
      </trkpt>
      <trkpt lat="40.79832" lon="0.70036">
        <ele>8.8</ele>
        <time>2022-05-24 23:46:35</time>
      </trkpt>
      <trkpt lat="40.79836" lon="0.70035">
        <ele>8.8</ele>
        <time>2022-05-24 23:46:36</time>
      </trkpt>
      <trkpt lat="40.7984" lon="0.70033">
        <ele>8.8</ele>
        <time>2022-05-24 23:46:37</time>
      </trkpt>
      <trkpt lat="40.79844" lon="0.70032">
        <ele>9</ele>
        <time>2022-05-24 23:46:38</time>
      </trkpt>
      <trkpt lat="40.79847" lon="0.7003">
        <ele>9</ele>
        <time>2022-05-24 23:46:39</time>
      </trkpt>
      <trkpt lat="40.79851" lon="0.70028">
        <ele>9.2</ele>
        <time>2022-05-24 23:46:40</time>
      </trkpt>
      <trkpt lat="40.79854" lon="0.70027">
        <ele>9</ele>
        <time>2022-05-24 23:46:41</time>
      </trkpt>
      <trkpt lat="40.79858" lon="0.70025">
        <ele>9</ele>
        <time>2022-05-24 23:46:42</time>
      </trkpt>
      <trkpt lat="40.79861" lon="0.70024">
        <ele>8.8</ele>
        <time>2022-05-24 23:46:43</time>
      </trkpt>
      <trkpt lat="40.79865" lon="0.70022">
        <ele>8.6</ele>
        <time>2022-05-24 23:46:44</time>
      </trkpt>
      <trkpt lat="40.79868" lon="0.7002">
        <ele>8.8</ele>
        <time>2022-05-24 23:46:45</time>
      </trkpt>
      <trkpt lat="40.79872" lon="0.70019">
        <ele>8.8</ele>
        <time>2022-05-24 23:46:46</time>
      </trkpt>
      <trkpt lat="40.79876" lon="0.70017">
        <ele>8.6</ele>
        <time>2022-05-24 23:46:47</time>
      </trkpt>
      <trkpt lat="40.79879" lon="0.70015">
        <ele>8.8</ele>
        <time>2022-05-24 23:46:48</time>
      </trkpt>
      <trkpt lat="40.79883" lon="0.70014">
        <ele>8.8</ele>
        <time>2022-05-24 23:46:49</time>
      </trkpt>
      <trkpt lat="40.79886" lon="0.70012">
        <ele>8.6</ele>
        <time>2022-05-24 23:46:50</time>
      </trkpt>
      <trkpt lat="40.7989" lon="0.70011">
        <ele>8.8</ele>
        <time>2022-05-24 23:46:51</time>
      </trkpt>
      <trkpt lat="40.79894" lon="0.70008">
        <ele>9</ele>
        <time>2022-05-24 23:46:52</time>
      </trkpt>
      <trkpt lat="40.79898" lon="0.70006">
        <ele>9.2</ele>
        <time>2022-05-24 23:46:53</time>
      </trkpt>
      <trkpt lat="40.79902" lon="0.70004">
        <ele>9.2</ele>
        <time>2022-05-24 23:46:54</time>
      </trkpt>
      <trkpt lat="40.79906" lon="0.70003">
        <ele>9.2</ele>
        <time>2022-05-24 23:46:55</time>
      </trkpt>
      <trkpt lat="40.7991" lon="0.70001">
        <ele>9.2</ele>
        <time>2022-05-24 23:46:56</time>
      </trkpt>
      <trkpt lat="40.79913" lon="0.7">
        <ele>9.4</ele>
        <time>2022-05-24 23:46:57</time>
      </trkpt>
      <trkpt lat="40.79916" lon="0.69999">
        <ele>9.6</ele>
        <time>2022-05-24 23:46:58</time>
      </trkpt>
      <trkpt lat="40.79919" lon="0.69998">
        <ele>9.6</ele>
        <time>2022-05-24 23:46:59</time>
      </trkpt>
      <trkpt lat="40.79923" lon="0.69996">
        <ele>9.2</ele>
        <time>2022-05-24 23:47:00</time>
      </trkpt>
      <trkpt lat="40.79926" lon="0.69994">
        <ele>9.2</ele>
        <time>2022-05-24 23:47:01</time>
      </trkpt>
      <trkpt lat="40.7993" lon="0.69992">
        <ele>9</ele>
        <time>2022-05-24 23:47:02</time>
      </trkpt>
      <trkpt lat="40.79934" lon="0.6999">
        <ele>9.2</ele>
        <time>2022-05-24 23:47:03</time>
      </trkpt>
      <trkpt lat="40.79938" lon="0.69988">
        <ele>9.2</ele>
        <time>2022-05-24 23:47:04</time>
      </trkpt>
      <trkpt lat="40.79942" lon="0.69986">
        <ele>9.4</ele>
        <time>2022-05-24 23:47:05</time>
      </trkpt>
      <trkpt lat="40.79946" lon="0.69985">
        <ele>9.6</ele>
        <time>2022-05-24 23:47:06</time>
      </trkpt>
      <trkpt lat="40.7995" lon="0.69984">
        <ele>9.6</ele>
        <time>2022-05-24 23:47:07</time>
      </trkpt>
      <trkpt lat="40.79954" lon="0.69983">
        <ele>9.4</ele>
        <time>2022-05-24 23:47:08</time>
      </trkpt>
      <trkpt lat="40.79958" lon="0.69981">
        <ele>9.4</ele>
        <time>2022-05-24 23:47:09</time>
      </trkpt>
      <trkpt lat="40.79963" lon="0.69979">
        <ele>9.2</ele>
        <time>2022-05-24 23:47:10</time>
      </trkpt>
      <trkpt lat="40.79968" lon="0.69977">
        <ele>9</ele>
        <time>2022-05-24 23:47:11</time>
      </trkpt>
      <trkpt lat="40.79972" lon="0.69976">
        <ele>9.2</ele>
        <time>2022-05-24 23:47:12</time>
      </trkpt>
      <trkpt lat="40.79976" lon="0.69974">
        <ele>9.2</ele>
        <time>2022-05-24 23:47:13</time>
      </trkpt>
      <trkpt lat="40.7998" lon="0.69972">
        <ele>9</ele>
        <time>2022-05-24 23:47:14</time>
      </trkpt>
      <trkpt lat="40.79985" lon="0.6997">
        <ele>8.8</ele>
        <time>2022-05-24 23:47:15</time>
      </trkpt>
      <trkpt lat="40.79989" lon="0.69969">
        <ele>8.8</ele>
        <time>2022-05-24 23:47:16</time>
      </trkpt>
      <trkpt lat="40.79993" lon="0.69967">
        <ele>8.8</ele>
        <time>2022-05-24 23:47:17</time>
      </trkpt>
      <trkpt lat="40.79997" lon="0.69966">
        <ele>8.8</ele>
        <time>2022-05-24 23:47:18</time>
      </trkpt>
      <trkpt lat="40.80001" lon="0.69964">
        <ele>8.6</ele>
        <time>2022-05-24 23:47:19</time>
      </trkpt>
      <trkpt lat="40.80006" lon="0.69962">
        <ele>8.4</ele>
        <time>2022-05-24 23:47:20</time>
      </trkpt>
      <trkpt lat="40.8001" lon="0.69961">
        <ele>8</ele>
        <time>2022-05-24 23:47:21</time>
      </trkpt>
      <trkpt lat="40.80014" lon="0.69959">
        <ele>8.2</ele>
        <time>2022-05-24 23:47:22</time>
      </trkpt>
      <trkpt lat="40.80018" lon="0.69957">
        <ele>8.2</ele>
        <time>2022-05-24 23:47:23</time>
      </trkpt>
      <trkpt lat="40.80022" lon="0.69955">
        <ele>8.2</ele>
        <time>2022-05-24 23:47:24</time>
      </trkpt>
      <trkpt lat="40.80026" lon="0.69953">
        <ele>8.2</ele>
        <time>2022-05-24 23:47:25</time>
      </trkpt>
      <trkpt lat="40.8003" lon="0.69951">
        <ele>8.8</ele>
        <time>2022-05-24 23:47:26</time>
      </trkpt>
      <trkpt lat="40.80035" lon="0.6995">
        <ele>9.2</ele>
        <time>2022-05-24 23:47:27</time>
      </trkpt>
      <trkpt lat="40.80039" lon="0.69948">
        <ele>9.2</ele>
        <time>2022-05-24 23:47:28</time>
      </trkpt>
      <trkpt lat="40.80043" lon="0.69946">
        <ele>9</ele>
        <time>2022-05-24 23:47:29</time>
      </trkpt>
      <trkpt lat="40.80048" lon="0.69944">
        <ele>9</ele>
        <time>2022-05-24 23:47:30</time>
      </trkpt>
      <trkpt lat="40.80053" lon="0.69942">
        <ele>9</ele>
        <time>2022-05-24 23:47:31</time>
      </trkpt>
      <trkpt lat="40.80058" lon="0.6994">
        <ele>9.2</ele>
        <time>2022-05-24 23:47:32</time>
      </trkpt>
      <trkpt lat="40.80062" lon="0.69938">
        <ele>9.2</ele>
        <time>2022-05-24 23:47:33</time>
      </trkpt>
      <trkpt lat="40.80067" lon="0.69936">
        <ele>9.4</ele>
        <time>2022-05-24 23:47:34</time>
      </trkpt>
      <trkpt lat="40.80072" lon="0.69935">
        <ele>9.4</ele>
        <time>2022-05-24 23:47:35</time>
      </trkpt>
      <trkpt lat="40.80077" lon="0.69934">
        <ele>9.8</ele>
        <time>2022-05-24 23:47:36</time>
      </trkpt>
      <trkpt lat="40.80082" lon="0.69933">
        <ele>10</ele>
        <time>2022-05-24 23:47:37</time>
      </trkpt>
      <trkpt lat="40.80087" lon="0.69933">
        <ele>10</ele>
        <time>2022-05-24 23:47:38</time>
      </trkpt>
      <trkpt lat="40.80092" lon="0.69933">
        <ele>10</ele>
        <time>2022-05-24 23:47:39</time>
      </trkpt>
      <trkpt lat="40.80096" lon="0.69934">
        <ele>9.6</ele>
        <time>2022-05-24 23:47:40</time>
      </trkpt>
      <trkpt lat="40.80102" lon="0.69934">
        <ele>9.4</ele>
        <time>2022-05-24 23:47:41</time>
      </trkpt>
      <trkpt lat="40.80107" lon="0.69935">
        <ele>9.4</ele>
        <time>2022-05-24 23:47:42</time>
      </trkpt>
      <trkpt lat="40.80112" lon="0.69935">
        <ele>9</ele>
        <time>2022-05-24 23:47:43</time>
      </trkpt>
      <trkpt lat="40.80117" lon="0.69935">
        <ele>9</ele>
        <time>2022-05-24 23:47:44</time>
      </trkpt>
      <trkpt lat="40.80122" lon="0.69936">
        <ele>9</ele>
        <time>2022-05-24 23:47:45</time>
      </trkpt>
      <trkpt lat="40.80128" lon="0.69936">
        <ele>8.8</ele>
        <time>2022-05-24 23:47:46</time>
      </trkpt>
      <trkpt lat="40.80133" lon="0.69937">
        <ele>8.8</ele>
        <time>2022-05-24 23:47:47</time>
      </trkpt>
      <trkpt lat="40.80138" lon="0.69938">
        <ele>8.8</ele>
        <time>2022-05-24 23:47:48</time>
      </trkpt>
      <trkpt lat="40.80144" lon="0.69938">
        <ele>8.8</ele>
        <time>2022-05-24 23:47:49</time>
      </trkpt>
      <trkpt lat="40.80149" lon="0.6994">
        <ele>9.2</ele>
        <time>2022-05-24 23:47:50</time>
      </trkpt>
      <trkpt lat="40.80154" lon="0.69941">
        <ele>9.6</ele>
        <time>2022-05-24 23:47:51</time>
      </trkpt>
      <trkpt lat="40.80159" lon="0.69943">
        <ele>9.8</ele>
        <time>2022-05-24 23:47:52</time>
      </trkpt>
      <trkpt lat="40.80164" lon="0.69945">
        <ele>9.8</ele>
        <time>2022-05-24 23:47:53</time>
      </trkpt>
      <trkpt lat="40.8017" lon="0.69947">
        <ele>9.8</ele>
        <time>2022-05-24 23:47:54</time>
      </trkpt>
      <trkpt lat="40.80175" lon="0.69949">
        <ele>9.8</ele>
        <time>2022-05-24 23:47:55</time>
      </trkpt>
      <trkpt lat="40.8018" lon="0.69951">
        <ele>9.6</ele>
        <time>2022-05-24 23:47:56</time>
      </trkpt>
      <trkpt lat="40.80185" lon="0.69953">
        <ele>9.8</ele>
        <time>2022-05-24 23:47:57</time>
      </trkpt>
      <trkpt lat="40.8019" lon="0.69955">
        <ele>10</ele>
        <time>2022-05-24 23:47:58</time>
      </trkpt>
      <trkpt lat="40.80196" lon="0.69957">
        <ele>10.4</ele>
        <time>2022-05-24 23:47:59</time>
      </trkpt>
      <trkpt lat="40.80201" lon="0.69958">
        <ele>10</ele>
        <time>2022-05-24 23:48:00</time>
      </trkpt>
      <trkpt lat="40.80206" lon="0.69958">
        <ele>9.6</ele>
        <time>2022-05-24 23:48:01</time>
      </trkpt>
      <trkpt lat="40.80212" lon="0.69958">
        <ele>9.4</ele>
        <time>2022-05-24 23:48:02</time>
      </trkpt>
      <trkpt lat="40.80217" lon="0.69957">
        <ele>9.2</ele>
        <time>2022-05-24 23:48:03</time>
      </trkpt>
      <trkpt lat="40.80222" lon="0.69956">
        <ele>9</ele>
        <time>2022-05-24 23:48:04</time>
      </trkpt>
      <trkpt lat="40.80228" lon="0.69954">
        <ele>9</ele>
        <time>2022-05-24 23:48:05</time>
      </trkpt>
      <trkpt lat="40.80233" lon="0.69952">
        <ele>8.8</ele>
        <time>2022-05-24 23:48:06</time>
      </trkpt>
      <trkpt lat="40.80238" lon="0.69951">
        <ele>8.6</ele>
        <time>2022-05-24 23:48:07</time>
      </trkpt>
      <trkpt lat="40.80243" lon="0.69949">
        <ele>8.6</ele>
        <time>2022-05-24 23:48:08</time>
      </trkpt>
      <trkpt lat="40.80248" lon="0.69947">
        <ele>8.6</ele>
        <time>2022-05-24 23:48:09</time>
      </trkpt>
      <trkpt lat="40.80253" lon="0.69946">
        <ele>8.4</ele>
        <time>2022-05-24 23:48:10</time>
      </trkpt>
      <trkpt lat="40.80258" lon="0.69944">
        <ele>8.4</ele>
        <time>2022-05-24 23:48:11</time>
      </trkpt>
      <trkpt lat="40.80263" lon="0.69942">
        <ele>8.4</ele>
        <time>2022-05-24 23:48:12</time>
      </trkpt>
      <trkpt lat="40.80268" lon="0.6994">
        <ele>8.6</ele>
        <time>2022-05-24 23:48:13</time>
      </trkpt>
      <trkpt lat="40.80272" lon="0.69938">
        <ele>9</ele>
        <time>2022-05-24 23:48:14</time>
      </trkpt>
      <trkpt lat="40.80277" lon="0.69936">
        <ele>9</ele>
        <time>2022-05-24 23:48:15</time>
      </trkpt>
      <trkpt lat="40.80282" lon="0.69935">
        <ele>8.8</ele>
        <time>2022-05-24 23:48:16</time>
      </trkpt>
      <trkpt lat="40.80287" lon="0.69933">
        <ele>8.8</ele>
        <time>2022-05-24 23:48:17</time>
      </trkpt>
      <trkpt lat="40.80293" lon="0.69931">
        <ele>9</ele>
        <time>2022-05-24 23:48:18</time>
      </trkpt>
      <trkpt lat="40.80297" lon="0.69929">
        <ele>9</ele>
        <time>2022-05-24 23:48:19</time>
      </trkpt>
      <trkpt lat="40.80302" lon="0.69927">
        <ele>8.8</ele>
        <time>2022-05-24 23:48:20</time>
      </trkpt>
      <trkpt lat="40.80307" lon="0.69926">
        <ele>8.8</ele>
        <time>2022-05-24 23:48:21</time>
      </trkpt>
      <trkpt lat="40.80312" lon="0.69924">
        <ele>8.8</ele>
        <time>2022-05-24 23:48:22</time>
      </trkpt>
      <trkpt lat="40.80318" lon="0.69922">
        <ele>9</ele>
        <time>2022-05-24 23:48:23</time>
      </trkpt>
      <trkpt lat="40.80323" lon="0.69921">
        <ele>9.2</ele>
        <time>2022-05-24 23:48:24</time>
      </trkpt>
      <trkpt lat="40.80328" lon="0.6992">
        <ele>9.6</ele>
        <time>2022-05-24 23:48:25</time>
      </trkpt>
      <trkpt lat="40.80334" lon="0.69919">
        <ele>9.6</ele>
        <time>2022-05-24 23:48:26</time>
      </trkpt>
      <trkpt lat="40.80339" lon="0.69918">
        <ele>9.8</ele>
        <time>2022-05-24 23:48:27</time>
      </trkpt>
      <trkpt lat="40.80344" lon="0.69917">
        <ele>9.4</ele>
        <time>2022-05-24 23:48:28</time>
      </trkpt>
      <trkpt lat="40.8035" lon="0.69916">
        <ele>8.8</ele>
        <time>2022-05-24 23:48:29</time>
      </trkpt>
      <trkpt lat="40.80354" lon="0.69916">
        <ele>8.4</ele>
        <time>2022-05-24 23:48:30</time>
      </trkpt>
      <trkpt lat="40.8036" lon="0.69917">
        <ele>8.4</ele>
        <time>2022-05-24 23:48:31</time>
      </trkpt>
      <trkpt lat="40.80365" lon="0.69917">
        <ele>8.6</ele>
        <time>2022-05-24 23:48:32</time>
      </trkpt>
      <trkpt lat="40.8037" lon="0.69918">
        <ele>8.8</ele>
        <time>2022-05-24 23:48:33</time>
      </trkpt>
      <trkpt lat="40.80376" lon="0.69919">
        <ele>9.2</ele>
        <time>2022-05-24 23:48:34</time>
      </trkpt>
      <trkpt lat="40.80381" lon="0.6992">
        <ele>9.8</ele>
        <time>2022-05-24 23:48:35</time>
      </trkpt>
      <trkpt lat="40.80386" lon="0.69921">
        <ele>10.2</ele>
        <time>2022-05-24 23:48:36</time>
      </trkpt>
      <trkpt lat="40.80391" lon="0.69923">
        <ele>10.2</ele>
        <time>2022-05-24 23:48:37</time>
      </trkpt>
      <trkpt lat="40.80396" lon="0.69924">
        <ele>10</ele>
        <time>2022-05-24 23:48:38</time>
      </trkpt>
      <trkpt lat="40.804" lon="0.69926">
        <ele>9.6</ele>
        <time>2022-05-24 23:48:39</time>
      </trkpt>
      <trkpt lat="40.80404" lon="0.69929">
        <ele>9.8</ele>
        <time>2022-05-24 23:48:40</time>
      </trkpt>
      <trkpt lat="40.80409" lon="0.69931">
        <ele>9.8</ele>
        <time>2022-05-24 23:48:41</time>
      </trkpt>
      <trkpt lat="40.80413" lon="0.69934">
        <ele>9.8</ele>
        <time>2022-05-24 23:48:42</time>
      </trkpt>
      <trkpt lat="40.80418" lon="0.69937">
        <ele>10</ele>
        <time>2022-05-24 23:48:43</time>
      </trkpt>
      <trkpt lat="40.80423" lon="0.6994">
        <ele>10.2</ele>
        <time>2022-05-24 23:48:44</time>
      </trkpt>
      <trkpt lat="40.80427" lon="0.69944">
        <ele>10.2</ele>
        <time>2022-05-24 23:48:45</time>
      </trkpt>
      <trkpt lat="40.80432" lon="0.69947">
        <ele>10</ele>
        <time>2022-05-24 23:48:46</time>
      </trkpt>
      <trkpt lat="40.80436" lon="0.69951">
        <ele>10</ele>
        <time>2022-05-24 23:48:47</time>
      </trkpt>
      <trkpt lat="40.8044" lon="0.69956">
        <ele>10</ele>
        <time>2022-05-24 23:48:48</time>
      </trkpt>
      <trkpt lat="40.80444" lon="0.6996">
        <ele>10.2</ele>
        <time>2022-05-24 23:48:49</time>
      </trkpt>
      <trkpt lat="40.80448" lon="0.69965">
        <ele>10.2</ele>
        <time>2022-05-24 23:48:50</time>
      </trkpt>
      <trkpt lat="40.80452" lon="0.69971">
        <ele>10.4</ele>
        <time>2022-05-24 23:48:51</time>
      </trkpt>
      <trkpt lat="40.80455" lon="0.69976">
        <ele>10.4</ele>
        <time>2022-05-24 23:48:52</time>
      </trkpt>
      <trkpt lat="40.80459" lon="0.69981">
        <ele>10.6</ele>
        <time>2022-05-24 23:48:53</time>
      </trkpt>
      <trkpt lat="40.80462" lon="0.69987">
        <ele>10.6</ele>
        <time>2022-05-24 23:48:54</time>
      </trkpt>
      <trkpt lat="40.80466" lon="0.69992">
        <ele>10.8</ele>
        <time>2022-05-24 23:48:55</time>
      </trkpt>
      <trkpt lat="40.80469" lon="0.69998">
        <ele>10.8</ele>
        <time>2022-05-24 23:48:56</time>
      </trkpt>
      <trkpt lat="40.80473" lon="0.70004">
        <ele>11</ele>
        <time>2022-05-24 23:48:57</time>
      </trkpt>
      <trkpt lat="40.80476" lon="0.7001">
        <ele>11.2</ele>
        <time>2022-05-24 23:48:58</time>
      </trkpt>
      <trkpt lat="40.80479" lon="0.70016">
        <ele>11.2</ele>
        <time>2022-05-24 23:48:59</time>
      </trkpt>
      <trkpt lat="40.80481" lon="0.70022">
        <ele>11</ele>
        <time>2022-05-24 23:49:00</time>
      </trkpt>
      <trkpt lat="40.80484" lon="0.70027">
        <ele>10.8</ele>
        <time>2022-05-24 23:49:01</time>
      </trkpt>
      <trkpt lat="40.80486" lon="0.70033">
        <ele>10.6</ele>
        <time>2022-05-24 23:49:02</time>
      </trkpt>
      <trkpt lat="40.80488" lon="0.70039">
        <ele>10.4</ele>
        <time>2022-05-24 23:49:03</time>
      </trkpt>
      <trkpt lat="40.80491" lon="0.70045">
        <ele>10.2</ele>
        <time>2022-05-24 23:49:04</time>
      </trkpt>
      <trkpt lat="40.80494" lon="0.7005">
        <ele>10</ele>
        <time>2022-05-24 23:49:05</time>
      </trkpt>
      <trkpt lat="40.80497" lon="0.70056">
        <ele>9.8</ele>
        <time>2022-05-24 23:49:06</time>
      </trkpt>
      <trkpt lat="40.805" lon="0.70061">
        <ele>9.6</ele>
        <time>2022-05-24 23:49:07</time>
      </trkpt>
      <trkpt lat="40.80503" lon="0.70067">
        <ele>9.4</ele>
        <time>2022-05-24 23:49:08</time>
      </trkpt>
      <trkpt lat="40.80507" lon="0.70072">
        <ele>9.2</ele>
        <time>2022-05-24 23:49:09</time>
      </trkpt>
      <trkpt lat="40.80511" lon="0.70077">
        <ele>9.4</ele>
        <time>2022-05-24 23:49:10</time>
      </trkpt>
      <trkpt lat="40.80515" lon="0.70082">
        <ele>9.8</ele>
        <time>2022-05-24 23:49:11</time>
      </trkpt>
      <trkpt lat="40.80519" lon="0.70086">
        <ele>10</ele>
        <time>2022-05-24 23:49:12</time>
      </trkpt>
      <trkpt lat="40.80524" lon="0.70089">
        <ele>10.2</ele>
        <time>2022-05-24 23:49:13</time>
      </trkpt>
      <trkpt lat="40.80527" lon="0.70093">
        <ele>10.2</ele>
        <time>2022-05-24 23:49:14</time>
      </trkpt>
      <trkpt lat="40.80531" lon="0.70096">
        <ele>10.4</ele>
        <time>2022-05-24 23:49:15</time>
      </trkpt>
      <trkpt lat="40.80535" lon="0.70099">
        <ele>10.4</ele>
        <time>2022-05-24 23:49:16</time>
      </trkpt>
      <trkpt lat="40.80539" lon="0.70102">
        <ele>10.4</ele>
        <time>2022-05-24 23:49:17</time>
      </trkpt>
      <trkpt lat="40.80543" lon="0.70106">
        <ele>10.2</ele>
        <time>2022-05-24 23:49:18</time>
      </trkpt>
      <trkpt lat="40.80547" lon="0.7011">
        <ele>9.6</ele>
        <time>2022-05-24 23:49:19</time>
      </trkpt>
      <trkpt lat="40.80551" lon="0.70114">
        <ele>8.8</ele>
        <time>2022-05-24 23:49:20</time>
      </trkpt>
      <trkpt lat="40.80555" lon="0.70118">
        <ele>8.2</ele>
        <time>2022-05-24 23:49:21</time>
      </trkpt>
      <trkpt lat="40.80558" lon="0.70122">
        <ele>7.6</ele>
        <time>2022-05-24 23:49:22</time>
      </trkpt>
      <trkpt lat="40.80563" lon="0.70127">
        <ele>7.2</ele>
        <time>2022-05-24 23:49:23</time>
      </trkpt>
      <trkpt lat="40.80566" lon="0.70132">
        <ele>6.8</ele>
        <time>2022-05-24 23:49:24</time>
      </trkpt>
      <trkpt lat="40.8057" lon="0.70137">
        <ele>6.4</ele>
        <time>2022-05-24 23:49:25</time>
      </trkpt>
      <trkpt lat="40.80573" lon="0.70142">
        <ele>6.2</ele>
        <time>2022-05-24 23:49:26</time>
      </trkpt>
      <trkpt lat="40.80577" lon="0.70147">
        <ele>6.2</ele>
        <time>2022-05-24 23:49:27</time>
      </trkpt>
      <trkpt lat="40.80581" lon="0.70152">
        <ele>6</ele>
        <time>2022-05-24 23:49:28</time>
      </trkpt>
      <trkpt lat="40.80584" lon="0.70157">
        <ele>5.6</ele>
        <time>2022-05-24 23:49:29</time>
      </trkpt>
      <trkpt lat="40.80588" lon="0.70163">
        <ele>5.4</ele>
        <time>2022-05-24 23:49:30</time>
      </trkpt>
      <trkpt lat="40.80592" lon="0.70168">
        <ele>5.4</ele>
        <time>2022-05-24 23:49:31</time>
      </trkpt>
      <trkpt lat="40.80595" lon="0.70173">
        <ele>5.4</ele>
        <time>2022-05-24 23:49:32</time>
      </trkpt>
      <trkpt lat="40.80599" lon="0.70178">
        <ele>5.4</ele>
        <time>2022-05-24 23:49:33</time>
      </trkpt>
      <trkpt lat="40.80602" lon="0.70184">
        <ele>5.2</ele>
        <time>2022-05-24 23:49:34</time>
      </trkpt>
      <trkpt lat="40.80605" lon="0.70189">
        <ele>5.4</ele>
        <time>2022-05-24 23:49:35</time>
      </trkpt>
      <trkpt lat="40.80608" lon="0.70195">
        <ele>5.6</ele>
        <time>2022-05-24 23:49:36</time>
      </trkpt>
      <trkpt lat="40.80611" lon="0.702">
        <ele>5.8</ele>
        <time>2022-05-24 23:49:37</time>
      </trkpt>
      <trkpt lat="40.80614" lon="0.70206">
        <ele>5.8</ele>
        <time>2022-05-24 23:49:38</time>
      </trkpt>
      <trkpt lat="40.80616" lon="0.70211">
        <ele>5.8</ele>
        <time>2022-05-24 23:49:39</time>
      </trkpt>
      <trkpt lat="40.80619" lon="0.70217">
        <ele>5.8</ele>
        <time>2022-05-24 23:49:40</time>
      </trkpt>
      <trkpt lat="40.80622" lon="0.70222">
        <ele>5.8</ele>
        <time>2022-05-24 23:49:41</time>
      </trkpt>
      <trkpt lat="40.80625" lon="0.70228">
        <ele>5.8</ele>
        <time>2022-05-24 23:49:42</time>
      </trkpt>
      <trkpt lat="40.80628" lon="0.70233">
        <ele>6</ele>
        <time>2022-05-24 23:49:43</time>
      </trkpt>
      <trkpt lat="40.8063" lon="0.70239">
        <ele>5.8</ele>
        <time>2022-05-24 23:49:44</time>
      </trkpt>
      <trkpt lat="40.80633" lon="0.70244">
        <ele>5.8</ele>
        <time>2022-05-24 23:49:45</time>
      </trkpt>
      <trkpt lat="40.80636" lon="0.7025">
        <ele>6.2</ele>
        <time>2022-05-24 23:49:46</time>
      </trkpt>
      <trkpt lat="40.80639" lon="0.70256">
        <ele>6.4</ele>
        <time>2022-05-24 23:49:47</time>
      </trkpt>
      <trkpt lat="40.80642" lon="0.70261">
        <ele>6.4</ele>
        <time>2022-05-24 23:49:48</time>
      </trkpt>
      <trkpt lat="40.80644" lon="0.70267">
        <ele>6.4</ele>
        <time>2022-05-24 23:49:49</time>
      </trkpt>
      <trkpt lat="40.80647" lon="0.70272">
        <ele>6.6</ele>
        <time>2022-05-24 23:49:50</time>
      </trkpt>
      <trkpt lat="40.8065" lon="0.70278">
        <ele>6.6</ele>
        <time>2022-05-24 23:49:51</time>
      </trkpt>
      <trkpt lat="40.80653" lon="0.70283">
        <ele>6.6</ele>
        <time>2022-05-24 23:49:52</time>
      </trkpt>
      <trkpt lat="40.80656" lon="0.70288">
        <ele>6.6</ele>
        <time>2022-05-24 23:49:53</time>
      </trkpt>
      <trkpt lat="40.80659" lon="0.70293">
        <ele>6.8</ele>
        <time>2022-05-24 23:49:54</time>
      </trkpt>
      <trkpt lat="40.80662" lon="0.70298">
        <ele>6.4</ele>
        <time>2022-05-24 23:49:55</time>
      </trkpt>
      <trkpt lat="40.80665" lon="0.70304">
        <ele>6.4</ele>
        <time>2022-05-24 23:49:56</time>
      </trkpt>
      <trkpt lat="40.80667" lon="0.70309">
        <ele>6.4</ele>
        <time>2022-05-24 23:49:57</time>
      </trkpt>
      <trkpt lat="40.80669" lon="0.70314">
        <ele>6.4</ele>
        <time>2022-05-24 23:49:58</time>
      </trkpt>
      <trkpt lat="40.80672" lon="0.70318">
        <ele>6.6</ele>
        <time>2022-05-24 23:49:59</time>
      </trkpt>
      <trkpt lat="40.80674" lon="0.70322">
        <ele>6.4</ele>
        <time>2022-05-24 23:50:00</time>
      </trkpt>
      <trkpt lat="40.80677" lon="0.70327">
        <ele>6.4</ele>
        <time>2022-05-24 23:50:01</time>
      </trkpt>
      <trkpt lat="40.8068" lon="0.70331">
        <ele>6.6</ele>
        <time>2022-05-24 23:50:02</time>
      </trkpt>
      <trkpt lat="40.80682" lon="0.70335">
        <ele>6.8</ele>
        <time>2022-05-24 23:50:03</time>
      </trkpt>
      <trkpt lat="40.80685" lon="0.70339">
        <ele>7</ele>
        <time>2022-05-24 23:50:04</time>
      </trkpt>
      <trkpt lat="40.80687" lon="0.70343">
        <ele>7.4</ele>
        <time>2022-05-24 23:50:05</time>
      </trkpt>
      <trkpt lat="40.80689" lon="0.70347">
        <ele>7.6</ele>
        <time>2022-05-24 23:50:06</time>
      </trkpt>
      <trkpt lat="40.80691" lon="0.70352">
        <ele>7.8</ele>
        <time>2022-05-24 23:50:07</time>
      </trkpt>
      <trkpt lat="40.80693" lon="0.70356">
        <ele>8</ele>
        <time>2022-05-24 23:50:08</time>
      </trkpt>
      <trkpt lat="40.80696" lon="0.7036">
        <ele>8.2</ele>
        <time>2022-05-24 23:50:09</time>
      </trkpt>
      <trkpt lat="40.80698" lon="0.70364">
        <ele>9</ele>
        <time>2022-05-24 23:50:10</time>
      </trkpt>
      <trkpt lat="40.807" lon="0.70369">
        <ele>9</ele>
        <time>2022-05-24 23:50:11</time>
      </trkpt>
      <trkpt lat="40.80702" lon="0.70373">
        <ele>8.8</ele>
        <time>2022-05-24 23:50:12</time>
      </trkpt>
      <trkpt lat="40.80703" lon="0.70378">
        <ele>8.8</ele>
        <time>2022-05-24 23:50:13</time>
      </trkpt>
      <trkpt lat="40.80705" lon="0.70383">
        <ele>9</ele>
        <time>2022-05-24 23:50:14</time>
      </trkpt>
      <trkpt lat="40.80706" lon="0.70387">
        <ele>9.4</ele>
        <time>2022-05-24 23:50:15</time>
      </trkpt>
      <trkpt lat="40.80708" lon="0.70392">
        <ele>9.4</ele>
        <time>2022-05-24 23:50:16</time>
      </trkpt>
      <trkpt lat="40.80709" lon="0.70397">
        <ele>9.6</ele>
        <time>2022-05-24 23:50:17</time>
      </trkpt>
      <trkpt lat="40.80711" lon="0.70401">
        <ele>9.4</ele>
        <time>2022-05-24 23:50:18</time>
      </trkpt>
      <trkpt lat="40.80713" lon="0.70405">
        <ele>9.6</ele>
        <time>2022-05-24 23:50:19</time>
      </trkpt>
      <trkpt lat="40.80714" lon="0.70409">
        <ele>9.6</ele>
        <time>2022-05-24 23:50:20</time>
      </trkpt>
      <trkpt lat="40.80716" lon="0.70414">
        <ele>9.6</ele>
        <time>2022-05-24 23:50:21</time>
      </trkpt>
      <trkpt lat="40.80718" lon="0.70418">
        <ele>9.8</ele>
        <time>2022-05-24 23:50:22</time>
      </trkpt>
      <trkpt lat="40.80721" lon="0.70421">
        <ele>9.8</ele>
        <time>2022-05-24 23:50:23</time>
      </trkpt>
      <trkpt lat="40.80723" lon="0.70425">
        <ele>10</ele>
        <time>2022-05-24 23:50:24</time>
      </trkpt>
      <trkpt lat="40.80725" lon="0.70429">
        <ele>10.2</ele>
        <time>2022-05-24 23:50:25</time>
      </trkpt>
      <trkpt lat="40.80728" lon="0.70432">
        <ele>10.4</ele>
        <time>2022-05-24 23:50:26</time>
      </trkpt>
      <trkpt lat="40.8073" lon="0.70436">
        <ele>10.4</ele>
        <time>2022-05-24 23:50:27</time>
      </trkpt>
      <trkpt lat="40.80733" lon="0.70439">
        <ele>10.6</ele>
        <time>2022-05-24 23:50:28</time>
      </trkpt>
      <trkpt lat="40.80735" lon="0.70442">
        <ele>10.8</ele>
        <time>2022-05-24 23:50:29</time>
      </trkpt>
      <trkpt lat="40.80738" lon="0.70445">
        <ele>11</ele>
        <time>2022-05-24 23:50:30</time>
      </trkpt>
      <trkpt lat="40.8074" lon="0.70448">
        <ele>11</ele>
        <time>2022-05-24 23:50:31</time>
      </trkpt>
      <trkpt lat="40.80743" lon="0.70451">
        <ele>10.8</ele>
        <time>2022-05-24 23:50:32</time>
      </trkpt>
      <trkpt lat="40.80746" lon="0.70453">
        <ele>10.8</ele>
        <time>2022-05-24 23:50:33</time>
      </trkpt>
      <trkpt lat="40.80749" lon="0.70456">
        <ele>11</ele>
        <time>2022-05-24 23:50:34</time>
      </trkpt>
      <trkpt lat="40.80752" lon="0.7046">
        <ele>11.2</ele>
        <time>2022-05-24 23:50:35</time>
      </trkpt>
      <trkpt lat="40.80755" lon="0.70463">
        <ele>11.2</ele>
        <time>2022-05-24 23:50:36</time>
      </trkpt>
      <trkpt lat="40.80758" lon="0.70465">
        <ele>11</ele>
        <time>2022-05-24 23:50:37</time>
      </trkpt>
      <trkpt lat="40.80762" lon="0.70468">
        <ele>11</ele>
        <time>2022-05-24 23:50:38</time>
      </trkpt>
      <trkpt lat="40.80766" lon="0.7047">
        <ele>11</ele>
        <time>2022-05-24 23:50:39</time>
      </trkpt>
      <trkpt lat="40.8077" lon="0.70472">
        <ele>11.4</ele>
        <time>2022-05-24 23:50:40</time>
      </trkpt>
      <trkpt lat="40.80774" lon="0.70474">
        <ele>11.8</ele>
        <time>2022-05-24 23:50:41</time>
      </trkpt>
      <trkpt lat="40.80779" lon="0.70475">
        <ele>12</ele>
        <time>2022-05-24 23:50:42</time>
      </trkpt>
      <trkpt lat="40.80783" lon="0.70475">
        <ele>12.2</ele>
        <time>2022-05-24 23:50:43</time>
      </trkpt>
      <trkpt lat="40.80788" lon="0.70476">
        <ele>12.2</ele>
        <time>2022-05-24 23:50:44</time>
      </trkpt>
      <trkpt lat="40.80792" lon="0.70476">
        <ele>12.2</ele>
        <time>2022-05-24 23:50:45</time>
      </trkpt>
      <trkpt lat="40.80796" lon="0.70476">
        <ele>12.2</ele>
        <time>2022-05-24 23:50:46</time>
      </trkpt>
      <trkpt lat="40.80801" lon="0.70476">
        <ele>12</ele>
        <time>2022-05-24 23:50:47</time>
      </trkpt>
      <trkpt lat="40.80806" lon="0.70475">
        <ele>11.8</ele>
        <time>2022-05-24 23:50:48</time>
      </trkpt>
      <trkpt lat="40.80811" lon="0.70474">
        <ele>11.6</ele>
        <time>2022-05-24 23:50:49</time>
      </trkpt>
      <trkpt lat="40.80816" lon="0.70474">
        <ele>11.4</ele>
        <time>2022-05-24 23:50:50</time>
      </trkpt>
      <trkpt lat="40.80822" lon="0.70473">
        <ele>11.2</ele>
        <time>2022-05-24 23:50:51</time>
      </trkpt>
      <trkpt lat="40.80828" lon="0.70473">
        <ele>11.2</ele>
        <time>2022-05-24 23:50:52</time>
      </trkpt>
      <trkpt lat="40.80834" lon="0.70473">
        <ele>11.2</ele>
        <time>2022-05-24 23:50:53</time>
      </trkpt>
      <trkpt lat="40.8084" lon="0.70473">
        <ele>11.4</ele>
        <time>2022-05-24 23:50:54</time>
      </trkpt>
      <trkpt lat="40.80845" lon="0.70474">
        <ele>12</ele>
        <time>2022-05-24 23:50:55</time>
      </trkpt>
      <trkpt lat="40.8085" lon="0.70477">
        <ele>12.8</ele>
        <time>2022-05-24 23:50:56</time>
      </trkpt>
      <trkpt lat="40.80853" lon="0.70482">
        <ele>13.6</ele>
        <time>2022-05-24 23:50:57</time>
      </trkpt>
      <trkpt lat="40.80855" lon="0.70488">
        <ele>14.2</ele>
        <time>2022-05-24 23:50:58</time>
      </trkpt>
      <trkpt lat="40.80857" lon="0.70494">
        <ele>14.6</ele>
        <time>2022-05-24 23:50:59</time>
      </trkpt>
      <trkpt lat="40.80859" lon="0.705">
        <ele>14.8</ele>
        <time>2022-05-24 23:51:00</time>
      </trkpt>
      <trkpt lat="40.80862" lon="0.70506">
        <ele>15.2</ele>
        <time>2022-05-24 23:51:01</time>
      </trkpt>
      <trkpt lat="40.80864" lon="0.70512">
        <ele>15.4</ele>
        <time>2022-05-24 23:51:02</time>
      </trkpt>
      <trkpt lat="40.80866" lon="0.70517">
        <ele>15.6</ele>
        <time>2022-05-24 23:51:03</time>
      </trkpt>
      <trkpt lat="40.80869" lon="0.70523">
        <ele>15.6</ele>
        <time>2022-05-24 23:51:04</time>
      </trkpt>
      <trkpt lat="40.80872" lon="0.70528">
        <ele>16</ele>
        <time>2022-05-24 23:51:05</time>
      </trkpt>
      <trkpt lat="40.80875" lon="0.70532">
        <ele>16.2</ele>
        <time>2022-05-24 23:51:06</time>
      </trkpt>
      <trkpt lat="40.8088" lon="0.70536">
        <ele>16.2</ele>
        <time>2022-05-24 23:51:07</time>
      </trkpt>
      <trkpt lat="40.80884" lon="0.70541">
        <ele>16.4</ele>
        <time>2022-05-24 23:51:08</time>
      </trkpt>
      <trkpt lat="40.80888" lon="0.70544">
        <ele>16.6</ele>
        <time>2022-05-24 23:51:09</time>
      </trkpt>
      <trkpt lat="40.80893" lon="0.70548">
        <ele>16.8</ele>
        <time>2022-05-24 23:51:10</time>
      </trkpt>
      <trkpt lat="40.80898" lon="0.70551">
        <ele>16.8</ele>
        <time>2022-05-24 23:51:11</time>
      </trkpt>
      <trkpt lat="40.80903" lon="0.70554">
        <ele>17</ele>
        <time>2022-05-24 23:51:12</time>
      </trkpt>
      <trkpt lat="40.80908" lon="0.70557">
        <ele>16.8</ele>
        <time>2022-05-24 23:51:13</time>
      </trkpt>
      <trkpt lat="40.80913" lon="0.7056">
        <ele>16.6</ele>
        <time>2022-05-24 23:51:14</time>
      </trkpt>
      <trkpt lat="40.80917" lon="0.70563">
        <ele>16.8</ele>
        <time>2022-05-24 23:51:15</time>
      </trkpt>
      <trkpt lat="40.80922" lon="0.70566">
        <ele>16.8</ele>
        <time>2022-05-24 23:51:16</time>
      </trkpt>
      <trkpt lat="40.80926" lon="0.70569">
        <ele>17</ele>
        <time>2022-05-24 23:51:17</time>
      </trkpt>
      <trkpt lat="40.8093" lon="0.70571">
        <ele>17.2</ele>
        <time>2022-05-24 23:51:18</time>
      </trkpt>
      <trkpt lat="40.80934" lon="0.70573">
        <ele>17.6</ele>
        <time>2022-05-24 23:51:19</time>
      </trkpt>
      <trkpt lat="40.80938" lon="0.70575">
        <ele>17.6</ele>
        <time>2022-05-24 23:51:20</time>
      </trkpt>
      <trkpt lat="40.80942" lon="0.70578">
        <ele>17.6</ele>
        <time>2022-05-24 23:51:21</time>
      </trkpt>
      <trkpt lat="40.80946" lon="0.7058">
        <ele>17.8</ele>
        <time>2022-05-24 23:51:22</time>
      </trkpt>
      <trkpt lat="40.8095" lon="0.70583">
        <ele>18</ele>
        <time>2022-05-24 23:51:23</time>
      </trkpt>
      <trkpt lat="40.80954" lon="0.70585">
        <ele>18</ele>
        <time>2022-05-24 23:51:24</time>
      </trkpt>
      <trkpt lat="40.80958" lon="0.70587">
        <ele>18.2</ele>
        <time>2022-05-24 23:51:25</time>
      </trkpt>
      <trkpt lat="40.80962" lon="0.7059">
        <ele>18.2</ele>
        <time>2022-05-24 23:51:26</time>
      </trkpt>
      <trkpt lat="40.80965" lon="0.70592">
        <ele>18.2</ele>
        <time>2022-05-24 23:51:27</time>
      </trkpt>
      <trkpt lat="40.80969" lon="0.70594">
        <ele>18.4</ele>
        <time>2022-05-24 23:51:28</time>
      </trkpt>
      <trkpt lat="40.80972" lon="0.70597">
        <ele>18.6</ele>
        <time>2022-05-24 23:51:29</time>
      </trkpt>
      <trkpt lat="40.80975" lon="0.706">
        <ele>18.6</ele>
        <time>2022-05-24 23:51:30</time>
      </trkpt>
      <trkpt lat="40.80979" lon="0.70603">
        <ele>18.6</ele>
        <time>2022-05-24 23:51:31</time>
      </trkpt>
      <trkpt lat="40.80983" lon="0.70606">
        <ele>18.4</ele>
        <time>2022-05-24 23:51:32</time>
      </trkpt>
      <trkpt lat="40.80986" lon="0.7061">
        <ele>18</ele>
        <time>2022-05-24 23:51:33</time>
      </trkpt>
      <trkpt lat="40.80991" lon="0.70614">
        <ele>17.6</ele>
        <time>2022-05-24 23:51:34</time>
      </trkpt>
      <trkpt lat="40.80996" lon="0.70619">
        <ele>17.4</ele>
        <time>2022-05-24 23:51:35</time>
      </trkpt>
      <trkpt lat="40.81" lon="0.70623">
        <ele>17</ele>
        <time>2022-05-24 23:51:36</time>
      </trkpt>
      <trkpt lat="40.81004" lon="0.70627">
        <ele>16.6</ele>
        <time>2022-05-24 23:51:37</time>
      </trkpt>
      <trkpt lat="40.81009" lon="0.70633">
        <ele>16.4</ele>
        <time>2022-05-24 23:51:38</time>
      </trkpt>
      <trkpt lat="40.81013" lon="0.70638">
        <ele>16.4</ele>
        <time>2022-05-24 23:51:39</time>
      </trkpt>
      <trkpt lat="40.81017" lon="0.70643">
        <ele>16.2</ele>
        <time>2022-05-24 23:51:40</time>
      </trkpt>
      <trkpt lat="40.81021" lon="0.70647">
        <ele>16.2</ele>
        <time>2022-05-24 23:51:41</time>
      </trkpt>
      <trkpt lat="40.81025" lon="0.70652">
        <ele>16.4</ele>
        <time>2022-05-24 23:51:42</time>
      </trkpt>
      <trkpt lat="40.81028" lon="0.70657">
        <ele>16.2</ele>
        <time>2022-05-24 23:51:43</time>
      </trkpt>
      <trkpt lat="40.8103" lon="0.70662">
        <ele>16.2</ele>
        <time>2022-05-24 23:51:44</time>
      </trkpt>
      <trkpt lat="40.8103" lon="0.70669">
        <ele>16</ele>
        <time>2022-05-24 23:51:45</time>
      </trkpt>
      <trkpt lat="40.8103" lon="0.70674">
        <ele>16.4</ele>
        <time>2022-05-24 23:51:46</time>
      </trkpt>
      <trkpt lat="40.81031" lon="0.7068">
        <ele>16</ele>
        <time>2022-05-24 23:51:47</time>
      </trkpt>
      <trkpt lat="40.81031" lon="0.70685">
        <ele>15.8</ele>
        <time>2022-05-24 23:51:48</time>
      </trkpt>
      <trkpt lat="40.81032" lon="0.70689">
        <ele>15.8</ele>
        <time>2022-05-24 23:51:49</time>
      </trkpt>
      <trkpt lat="40.81033" lon="0.70694">
        <ele>15.6</ele>
        <time>2022-05-24 23:51:50</time>
      </trkpt>
      <trkpt lat="40.81035" lon="0.70699">
        <ele>15.4</ele>
        <time>2022-05-24 23:51:51</time>
      </trkpt>
      <trkpt lat="40.81036" lon="0.70704">
        <ele>15.2</ele>
        <time>2022-05-24 23:51:52</time>
      </trkpt>
      <trkpt lat="40.81038" lon="0.70709">
        <ele>15.2</ele>
        <time>2022-05-24 23:51:53</time>
      </trkpt>
      <trkpt lat="40.8104" lon="0.70713">
        <ele>15.2</ele>
        <time>2022-05-24 23:51:54</time>
      </trkpt>
      <trkpt lat="40.81043" lon="0.70719">
        <ele>15.2</ele>
        <time>2022-05-24 23:51:55</time>
      </trkpt>
      <trkpt lat="40.81046" lon="0.70724">
        <ele>15.2</ele>
        <time>2022-05-24 23:51:56</time>
      </trkpt>
      <trkpt lat="40.81049" lon="0.70729">
        <ele>15.2</ele>
        <time>2022-05-24 23:51:57</time>
      </trkpt>
      <trkpt lat="40.81051" lon="0.70734">
        <ele>15.4</ele>
        <time>2022-05-24 23:51:58</time>
      </trkpt>
      <trkpt lat="40.81053" lon="0.70739">
        <ele>15.4</ele>
        <time>2022-05-24 23:51:59</time>
      </trkpt>
      <trkpt lat="40.81056" lon="0.70743">
        <ele>15.4</ele>
        <time>2022-05-24 23:52:00</time>
      </trkpt>
      <trkpt lat="40.81058" lon="0.70748">
        <ele>15.2</ele>
        <time>2022-05-24 23:52:01</time>
      </trkpt>
      <trkpt lat="40.81061" lon="0.70753">
        <ele>15.2</ele>
        <time>2022-05-24 23:52:02</time>
      </trkpt>
      <trkpt lat="40.81064" lon="0.70758">
        <ele>15.2</ele>
        <time>2022-05-24 23:52:03</time>
      </trkpt>
      <trkpt lat="40.81066" lon="0.70763">
        <ele>15.2</ele>
        <time>2022-05-24 23:52:04</time>
      </trkpt>
      <trkpt lat="40.81069" lon="0.70769">
        <ele>15</ele>
        <time>2022-05-24 23:52:05</time>
      </trkpt>
      <trkpt lat="40.81072" lon="0.70775">
        <ele>14.8</ele>
        <time>2022-05-24 23:52:06</time>
      </trkpt>
      <trkpt lat="40.81075" lon="0.70781">
        <ele>14.6</ele>
        <time>2022-05-24 23:52:07</time>
      </trkpt>
      <trkpt lat="40.81078" lon="0.70787">
        <ele>14.4</ele>
        <time>2022-05-24 23:52:08</time>
      </trkpt>
      <trkpt lat="40.81081" lon="0.70793">
        <ele>14.2</ele>
        <time>2022-05-24 23:52:09</time>
      </trkpt>
      <trkpt lat="40.81083" lon="0.70799">
        <ele>13.8</ele>
        <time>2022-05-24 23:52:10</time>
      </trkpt>
      <trkpt lat="40.81086" lon="0.70805">
        <ele>13.4</ele>
        <time>2022-05-24 23:52:11</time>
      </trkpt>
      <trkpt lat="40.81088" lon="0.70811">
        <ele>13.2</ele>
        <time>2022-05-24 23:52:12</time>
      </trkpt>
      <trkpt lat="40.81091" lon="0.70817">
        <ele>13.2</ele>
        <time>2022-05-24 23:52:13</time>
      </trkpt>
      <trkpt lat="40.81094" lon="0.70822">
        <ele>13</ele>
        <time>2022-05-24 23:52:14</time>
      </trkpt>
      <trkpt lat="40.81098" lon="0.70826">
        <ele>12.6</ele>
        <time>2022-05-24 23:52:15</time>
      </trkpt>
      <trkpt lat="40.81102" lon="0.70828">
        <ele>12.4</ele>
        <time>2022-05-24 23:52:16</time>
      </trkpt>
      <trkpt lat="40.81106" lon="0.70828">
        <ele>12.4</ele>
        <time>2022-05-24 23:52:17</time>
      </trkpt>
      <trkpt lat="40.8111" lon="0.70827">
        <ele>12.4</ele>
        <time>2022-05-24 23:52:18</time>
      </trkpt>
      <trkpt lat="40.81113" lon="0.70827">
        <ele>12.4</ele>
        <time>2022-05-24 23:52:19</time>
      </trkpt>
      <trkpt lat="40.81117" lon="0.70826">
        <ele>12.6</ele>
        <time>2022-05-24 23:52:20</time>
      </trkpt>
      <trkpt lat="40.8112" lon="0.70826">
        <ele>12.8</ele>
        <time>2022-05-24 23:52:21</time>
      </trkpt>
      <trkpt lat="40.81122" lon="0.70826">
        <ele>12.4</ele>
        <time>2022-05-24 23:52:22</time>
      </trkpt>
      <trkpt lat="40.81125" lon="0.70826">
        <ele>12.2</ele>
        <time>2022-05-24 23:52:23</time>
      </trkpt>
      <trkpt lat="40.81128" lon="0.70825">
        <ele>12.2</ele>
        <time>2022-05-24 23:52:24</time>
      </trkpt>
      <trkpt lat="40.81131" lon="0.70824">
        <ele>12.4</ele>
        <time>2022-05-24 23:52:25</time>
      </trkpt>
      <trkpt lat="40.81134" lon="0.70822">
        <ele>12.2</ele>
        <time>2022-05-24 23:52:26</time>
      </trkpt>
      <trkpt lat="40.81136" lon="0.70818">
        <ele>12.2</ele>
        <time>2022-05-24 23:52:27</time>
      </trkpt>
      <trkpt lat="40.81139" lon="0.70815">
        <ele>12.2</ele>
        <time>2022-05-24 23:52:28</time>
      </trkpt>
      <trkpt lat="40.81141" lon="0.70812">
        <ele>12.2</ele>
        <time>2022-05-24 23:52:29</time>
      </trkpt>
      <trkpt lat="40.81144" lon="0.70809">
        <ele>12.4</ele>
        <time>2022-05-24 23:52:30</time>
      </trkpt>
      <trkpt lat="40.81147" lon="0.70806">
        <ele>12.4</ele>
        <time>2022-05-24 23:52:31</time>
      </trkpt>
      <trkpt lat="40.81149" lon="0.70803">
        <ele>12.6</ele>
        <time>2022-05-24 23:52:32</time>
      </trkpt>
      <trkpt lat="40.81152" lon="0.70801">
        <ele>12.8</ele>
        <time>2022-05-24 23:52:33</time>
      </trkpt>
      <trkpt lat="40.81154" lon="0.70798">
        <ele>12.8</ele>
        <time>2022-05-24 23:52:34</time>
      </trkpt>
      <trkpt lat="40.81157" lon="0.70796">
        <ele>12.8</ele>
        <time>2022-05-24 23:52:35</time>
      </trkpt>
      <trkpt lat="40.81159" lon="0.70793">
        <ele>12.8</ele>
        <time>2022-05-24 23:52:36</time>
      </trkpt>
      <trkpt lat="40.81161" lon="0.70791">
        <ele>13</ele>
        <time>2022-05-24 23:52:37</time>
      </trkpt>
      <trkpt lat="40.81163" lon="0.70788">
        <ele>13.4</ele>
        <time>2022-05-24 23:52:38</time>
      </trkpt>
      <trkpt lat="40.81164" lon="0.70783">
        <ele>13.4</ele>
        <time>2022-05-24 23:52:39</time>
      </trkpt>
      <trkpt lat="40.81165" lon="0.70778">
        <ele>13.4</ele>
        <time>2022-05-24 23:52:40</time>
      </trkpt>
      <trkpt lat="40.81166" lon="0.70774">
        <ele>13.4</ele>
        <time>2022-05-24 23:52:41</time>
      </trkpt>
      <trkpt lat="40.81168" lon="0.70771">
        <ele>13.8</ele>
        <time>2022-05-24 23:52:42</time>
      </trkpt>
      <trkpt lat="40.8117" lon="0.70767">
        <ele>14</ele>
        <time>2022-05-24 23:52:43</time>
      </trkpt>
      <trkpt lat="40.81171" lon="0.70764">
        <ele>14.2</ele>
        <time>2022-05-24 23:52:44</time>
      </trkpt>
      <trkpt lat="40.81173" lon="0.70761">
        <ele>14.4</ele>
        <time>2022-05-24 23:52:45</time>
      </trkpt>
      <trkpt lat="40.81174" lon="0.70758">
        <ele>14.8</ele>
        <time>2022-05-24 23:52:46</time>
      </trkpt>
      <trkpt lat="40.81176" lon="0.70756">
        <ele>15</ele>
        <time>2022-05-24 23:52:47</time>
      </trkpt>
      <trkpt lat="40.81178" lon="0.70753">
        <ele>15.2</ele>
        <time>2022-05-24 23:52:48</time>
      </trkpt>
      <trkpt lat="40.81179" lon="0.70751">
        <ele>15.4</ele>
        <time>2022-05-24 23:52:49</time>
      </trkpt>
      <trkpt lat="40.81181" lon="0.70749">
        <ele>15.6</ele>
        <time>2022-05-24 23:52:50</time>
      </trkpt>
      <trkpt lat="40.81182" lon="0.70746">
        <ele>16</ele>
        <time>2022-05-24 23:52:51</time>
      </trkpt>
      <trkpt lat="40.81183" lon="0.70744">
        <ele>16.4</ele>
        <time>2022-05-24 23:52:52</time>
      </trkpt>
      <trkpt lat="40.81184" lon="0.70741">
        <ele>16.8</ele>
        <time>2022-05-24 23:52:53</time>
      </trkpt>
      <trkpt lat="40.81185" lon="0.70738">
        <ele>17</ele>
        <time>2022-05-24 23:52:54</time>
      </trkpt>
      <trkpt lat="40.81186" lon="0.70736">
        <ele>17.2</ele>
        <time>2022-05-24 23:52:55</time>
      </trkpt>
      <trkpt lat="40.81186" lon="0.70733">
        <ele>17.4</ele>
        <time>2022-05-24 23:52:56</time>
      </trkpt>
      <trkpt lat="40.81186" lon="0.7073">
        <ele>17.6</ele>
        <time>2022-05-24 23:52:57</time>
      </trkpt>
      <trkpt lat="40.81186" lon="0.70727">
        <ele>17.8</ele>
        <time>2022-05-24 23:52:58</time>
      </trkpt>
      <trkpt lat="40.81186" lon="0.70725">
        <ele>17.8</ele>
        <time>2022-05-24 23:52:59</time>
      </trkpt>
      <trkpt lat="40.81186" lon="0.70721">
        <ele>17.6</ele>
        <time>2022-05-24 23:53:00</time>
      </trkpt>
      <trkpt lat="40.81187" lon="0.70718">
        <ele>17.6</ele>
        <time>2022-05-24 23:53:01</time>
      </trkpt>
      <trkpt lat="40.81187" lon="0.70715">
        <ele>17.6</ele>
        <time>2022-05-24 23:53:02</time>
      </trkpt>
      <trkpt lat="40.81188" lon="0.70712">
        <ele>17.8</ele>
        <time>2022-05-24 23:53:03</time>
      </trkpt>
      <trkpt lat="40.81189" lon="0.70709">
        <ele>17.8</ele>
        <time>2022-05-24 23:53:04</time>
      </trkpt>
      <trkpt lat="40.8119" lon="0.70707">
        <ele>18</ele>
        <time>2022-05-24 23:53:05</time>
      </trkpt>
      <trkpt lat="40.81191" lon="0.70704">
        <ele>18.2</ele>
        <time>2022-05-24 23:53:06</time>
      </trkpt>
      <trkpt lat="40.81192" lon="0.70702">
        <ele>18.2</ele>
        <time>2022-05-24 23:53:07</time>
      </trkpt>
      <trkpt lat="40.81194" lon="0.707">
        <ele>18.4</ele>
        <time>2022-05-24 23:53:08</time>
      </trkpt>
      <trkpt lat="40.81195" lon="0.70698">
        <ele>18.6</ele>
        <time>2022-05-24 23:53:09</time>
      </trkpt>
      <trkpt lat="40.81195" lon="0.70695">
        <ele>18.8</ele>
        <time>2022-05-24 23:53:10</time>
      </trkpt>
      <trkpt lat="40.81196" lon="0.70693">
        <ele>18.8</ele>
        <time>2022-05-24 23:53:11</time>
      </trkpt>
      <trkpt lat="40.81196" lon="0.70686">
        <ele>19</ele>
        <time>2022-05-24 23:53:12</time>
      </trkpt>
      <trkpt lat="40.81196" lon="0.70678">
        <ele>19.2</ele>
        <time>2022-05-24 23:53:13</time>
      </trkpt>
      <trkpt lat="40.81195" lon="0.70674">
        <ele>19.2</ele>
        <time>2022-05-24 23:53:14</time>
      </trkpt>
      <trkpt lat="40.81193" lon="0.70671">
        <ele>19.4</ele>
        <time>2022-05-24 23:53:15</time>
      </trkpt>
      <trkpt lat="40.81192" lon="0.70668">
        <ele>19.4</ele>
        <time>2022-05-24 23:53:16</time>
      </trkpt>
      <trkpt lat="40.8119" lon="0.70661">
        <ele>19.6</ele>
        <time>2022-05-24 23:53:17</time>
      </trkpt>
      <trkpt lat="40.8119" lon="0.70657">
        <ele>19.8</ele>
        <time>2022-05-24 23:53:18</time>
      </trkpt>
      <trkpt lat="40.8119" lon="0.70653">
        <ele>20</ele>
        <time>2022-05-24 23:53:19</time>
      </trkpt>
      <trkpt lat="40.8119" lon="0.70649">
        <ele>20</ele>
        <time>2022-05-24 23:53:20</time>
      </trkpt>
      <trkpt lat="40.81191" lon="0.70646">
        <ele>20.2</ele>
        <time>2022-05-24 23:53:21</time>
      </trkpt>
      <trkpt lat="40.81193" lon="0.70642">
        <ele>20.2</ele>
        <time>2022-05-24 23:53:22</time>
      </trkpt>
      <trkpt lat="40.81195" lon="0.70639">
        <ele>20.4</ele>
        <time>2022-05-24 23:53:23</time>
      </trkpt>
      <trkpt lat="40.81197" lon="0.70637">
        <ele>20.4</ele>
        <time>2022-05-24 23:53:24</time>
      </trkpt>
      <trkpt lat="40.81199" lon="0.70634">
        <ele>20.6</ele>
        <time>2022-05-24 23:53:25</time>
      </trkpt>
      <trkpt lat="40.81201" lon="0.70631">
        <ele>20.6</ele>
        <time>2022-05-24 23:53:26</time>
      </trkpt>
      <trkpt lat="40.81203" lon="0.70629">
        <ele>20.6</ele>
        <time>2022-05-24 23:53:27</time>
      </trkpt>
      <trkpt lat="40.81205" lon="0.70625">
        <ele>20.6</ele>
        <time>2022-05-24 23:53:28</time>
      </trkpt>
      <trkpt lat="40.81207" lon="0.70623">
        <ele>20.6</ele>
        <time>2022-05-24 23:53:29</time>
      </trkpt>
      <trkpt lat="40.81209" lon="0.70619">
        <ele>20.8</ele>
        <time>2022-05-24 23:53:30</time>
      </trkpt>
      <trkpt lat="40.81211" lon="0.70616">
        <ele>20.8</ele>
        <time>2022-05-24 23:53:31</time>
      </trkpt>
      <trkpt lat="40.81215" lon="0.70613">
        <ele>21</ele>
        <time>2022-05-24 23:53:32</time>
      </trkpt>
      <trkpt lat="40.81217" lon="0.7061">
        <ele>21</ele>
        <time>2022-05-24 23:53:33</time>
      </trkpt>
      <trkpt lat="40.81219" lon="0.70608">
        <ele>21.2</ele>
        <time>2022-05-24 23:53:34</time>
      </trkpt>
      <trkpt lat="40.81222" lon="0.70605">
        <ele>21.4</ele>
        <time>2022-05-24 23:53:35</time>
      </trkpt>
      <trkpt lat="40.81225" lon="0.70602">
        <ele>21.6</ele>
        <time>2022-05-24 23:53:36</time>
      </trkpt>
      <trkpt lat="40.81228" lon="0.706">
        <ele>21.8</ele>
        <time>2022-05-24 23:53:37</time>
      </trkpt>
      <trkpt lat="40.81231" lon="0.70597">
        <ele>21.8</ele>
        <time>2022-05-24 23:53:38</time>
      </trkpt>
      <trkpt lat="40.81234" lon="0.70594">
        <ele>22</ele>
        <time>2022-05-24 23:53:39</time>
      </trkpt>
      <trkpt lat="40.81236" lon="0.70591">
        <ele>22.2</ele>
        <time>2022-05-24 23:53:40</time>
      </trkpt>
      <trkpt lat="40.81239" lon="0.70588">
        <ele>22.2</ele>
        <time>2022-05-24 23:53:41</time>
      </trkpt>
      <trkpt lat="40.81241" lon="0.70585">
        <ele>22.4</ele>
        <time>2022-05-24 23:53:42</time>
      </trkpt>
      <trkpt lat="40.81244" lon="0.70583">
        <ele>22.4</ele>
        <time>2022-05-24 23:53:43</time>
      </trkpt>
      <trkpt lat="40.81246" lon="0.7058">
        <ele>22.4</ele>
        <time>2022-05-24 23:53:44</time>
      </trkpt>
      <trkpt lat="40.81248" lon="0.70577">
        <ele>22.6</ele>
        <time>2022-05-24 23:53:45</time>
      </trkpt>
      <trkpt lat="40.81252" lon="0.70574">
        <ele>22.6</ele>
        <time>2022-05-24 23:53:46</time>
      </trkpt>
      <trkpt lat="40.81254" lon="0.70571">
        <ele>22.6</ele>
        <time>2022-05-24 23:53:47</time>
      </trkpt>
      <trkpt lat="40.81256" lon="0.70568">
        <ele>22.8</ele>
        <time>2022-05-24 23:53:48</time>
      </trkpt>
      <trkpt lat="40.81259" lon="0.70565">
        <ele>22.8</ele>
        <time>2022-05-24 23:53:49</time>
      </trkpt>
      <trkpt lat="40.81261" lon="0.70563">
        <ele>23</ele>
        <time>2022-05-24 23:53:50</time>
      </trkpt>
      <trkpt lat="40.81264" lon="0.7056">
        <ele>23</ele>
        <time>2022-05-24 23:53:51</time>
      </trkpt>
      <trkpt lat="40.81267" lon="0.70558">
        <ele>23.2</ele>
        <time>2022-05-24 23:53:52</time>
      </trkpt>
      <trkpt lat="40.81269" lon="0.70556">
        <ele>23.4</ele>
        <time>2022-05-24 23:53:53</time>
      </trkpt>
      <trkpt lat="40.81272" lon="0.70554">
        <ele>23.4</ele>
        <time>2022-05-24 23:53:54</time>
      </trkpt>
      <trkpt lat="40.81275" lon="0.70552">
        <ele>23.4</ele>
        <time>2022-05-24 23:53:55</time>
      </trkpt>
      <trkpt lat="40.81278" lon="0.7055">
        <ele>23.6</ele>
        <time>2022-05-24 23:53:56</time>
      </trkpt>
      <trkpt lat="40.8128" lon="0.70547">
        <ele>23.6</ele>
        <time>2022-05-24 23:53:57</time>
      </trkpt>
      <trkpt lat="40.81282" lon="0.70543">
        <ele>23.8</ele>
        <time>2022-05-24 23:53:58</time>
      </trkpt>
      <trkpt lat="40.81283" lon="0.7054">
        <ele>23.8</ele>
        <time>2022-05-24 23:53:59</time>
      </trkpt>
      <trkpt lat="40.81283" lon="0.70535">
        <ele>23.8</ele>
        <time>2022-05-24 23:54:00</time>
      </trkpt>
      <trkpt lat="40.81282" lon="0.70532">
        <ele>24</ele>
        <time>2022-05-24 23:54:01</time>
      </trkpt>
      <trkpt lat="40.81279" lon="0.70529">
        <ele>24</ele>
        <time>2022-05-24 23:54:02</time>
      </trkpt>
      <trkpt lat="40.81276" lon="0.70527">
        <ele>24</ele>
        <time>2022-05-24 23:54:03</time>
      </trkpt>
      <trkpt lat="40.81273" lon="0.70526">
        <ele>24</ele>
        <time>2022-05-24 23:54:04</time>
      </trkpt>
      <trkpt lat="40.81269" lon="0.70525">
        <ele>24.2</ele>
        <time>2022-05-24 23:54:05</time>
      </trkpt>
      <trkpt lat="40.81265" lon="0.70525">
        <ele>24.2</ele>
        <time>2022-05-24 23:54:06</time>
      </trkpt>
      <trkpt lat="40.81261" lon="0.70524">
        <ele>24.4</ele>
        <time>2022-05-24 23:54:07</time>
      </trkpt>
      <trkpt lat="40.81258" lon="0.70523">
        <ele>24.4</ele>
        <time>2022-05-24 23:54:08</time>
      </trkpt>
      <trkpt lat="40.81254" lon="0.70522">
        <ele>24.6</ele>
        <time>2022-05-24 23:54:09</time>
      </trkpt>
      <trkpt lat="40.81251" lon="0.70521">
        <ele>24.6</ele>
        <time>2022-05-24 23:54:10</time>
      </trkpt>
      <trkpt lat="40.81247" lon="0.7052">
        <ele>24.6</ele>
        <time>2022-05-24 23:54:11</time>
      </trkpt>
      <trkpt lat="40.81243" lon="0.70518">
        <ele>24.6</ele>
        <time>2022-05-24 23:54:12</time>
      </trkpt>
      <trkpt lat="40.8124" lon="0.70516">
        <ele>24.6</ele>
        <time>2022-05-24 23:54:13</time>
      </trkpt>
      <trkpt lat="40.81237" lon="0.70514">
        <ele>24.6</ele>
        <time>2022-05-24 23:54:14</time>
      </trkpt>
      <trkpt lat="40.81233" lon="0.70513">
        <ele>24.8</ele>
        <time>2022-05-24 23:54:15</time>
      </trkpt>
      <trkpt lat="40.8123" lon="0.70511">
        <ele>24.8</ele>
        <time>2022-05-24 23:54:16</time>
      </trkpt>
      <trkpt lat="40.81226" lon="0.7051">
        <ele>25</ele>
        <time>2022-05-24 23:54:17</time>
      </trkpt>
      <trkpt lat="40.81223" lon="0.70509">
        <ele>25</ele>
        <time>2022-05-24 23:54:18</time>
      </trkpt>
      <trkpt lat="40.81219" lon="0.70508">
        <ele>25.2</ele>
        <time>2022-05-24 23:54:19</time>
      </trkpt>
      <trkpt lat="40.81215" lon="0.70507">
        <ele>25.2</ele>
        <time>2022-05-24 23:54:20</time>
      </trkpt>
      <trkpt lat="40.81211" lon="0.70507">
        <ele>25.4</ele>
        <time>2022-05-24 23:54:21</time>
      </trkpt>
      <trkpt lat="40.81208" lon="0.70507">
        <ele>25.4</ele>
        <time>2022-05-24 23:54:22</time>
      </trkpt>
      <trkpt lat="40.81204" lon="0.70507">
        <ele>25.6</ele>
        <time>2022-05-24 23:54:23</time>
      </trkpt>
      <trkpt lat="40.81201" lon="0.70507">
        <ele>25.6</ele>
        <time>2022-05-24 23:54:24</time>
      </trkpt>
      <trkpt lat="40.81197" lon="0.70507">
        <ele>25.6</ele>
        <time>2022-05-24 23:54:25</time>
      </trkpt>
      <trkpt lat="40.81194" lon="0.70507">
        <ele>25.8</ele>
        <time>2022-05-24 23:54:26</time>
      </trkpt>
      <trkpt lat="40.8119" lon="0.70508">
        <ele>25.8</ele>
        <time>2022-05-24 23:54:27</time>
      </trkpt>
      <trkpt lat="40.81186" lon="0.70509">
        <ele>25.8</ele>
        <time>2022-05-24 23:54:28</time>
      </trkpt>
      <trkpt lat="40.81182" lon="0.7051">
        <ele>25.8</ele>
        <time>2022-05-24 23:54:29</time>
      </trkpt>
      <trkpt lat="40.81178" lon="0.70511">
        <ele>25.8</ele>
        <time>2022-05-24 23:54:30</time>
      </trkpt>
      <trkpt lat="40.81174" lon="0.70512">
        <ele>25.8</ele>
        <time>2022-05-24 23:54:31</time>
      </trkpt>
      <trkpt lat="40.8117" lon="0.70513">
        <ele>25.8</ele>
        <time>2022-05-24 23:54:32</time>
      </trkpt>
      <trkpt lat="40.81165" lon="0.70514">
        <ele>26</ele>
        <time>2022-05-24 23:54:33</time>
      </trkpt>
      <trkpt lat="40.81161" lon="0.70516">
        <ele>26</ele>
        <time>2022-05-24 23:54:34</time>
      </trkpt>
      <trkpt lat="40.81157" lon="0.70518">
        <ele>26</ele>
        <time>2022-05-24 23:54:35</time>
      </trkpt>
      <trkpt lat="40.81152" lon="0.70519">
        <ele>25.8</ele>
        <time>2022-05-24 23:54:36</time>
      </trkpt>
      <trkpt lat="40.81147" lon="0.70521">
        <ele>25.8</ele>
        <time>2022-05-24 23:54:37</time>
      </trkpt>
      <trkpt lat="40.81142" lon="0.70522">
        <ele>25.8</ele>
        <time>2022-05-24 23:54:38</time>
      </trkpt>
      <trkpt lat="40.81137" lon="0.70523">
        <ele>25.6</ele>
        <time>2022-05-24 23:54:39</time>
      </trkpt>
      <trkpt lat="40.81132" lon="0.70525">
        <ele>25.6</ele>
        <time>2022-05-24 23:54:40</time>
      </trkpt>
      <trkpt lat="40.81126" lon="0.70527">
        <ele>25.4</ele>
        <time>2022-05-24 23:54:41</time>
      </trkpt>
      <trkpt lat="40.81121" lon="0.70529">
        <ele>25.2</ele>
        <time>2022-05-24 23:54:42</time>
      </trkpt>
      <trkpt lat="40.81115" lon="0.70531">
        <ele>25</ele>
        <time>2022-05-24 23:54:43</time>
      </trkpt>
      <trkpt lat="40.81108" lon="0.70533">
        <ele>24.8</ele>
        <time>2022-05-24 23:54:44</time>
      </trkpt>
      <trkpt lat="40.81102" lon="0.70535">
        <ele>24.6</ele>
        <time>2022-05-24 23:54:45</time>
      </trkpt>
      <trkpt lat="40.81095" lon="0.70536">
        <ele>24.2</ele>
        <time>2022-05-24 23:54:46</time>
      </trkpt>
      <trkpt lat="40.81087" lon="0.70537">
        <ele>23.8</ele>
        <time>2022-05-24 23:54:47</time>
      </trkpt>
      <trkpt lat="40.8108" lon="0.70536">
        <ele>23.4</ele>
        <time>2022-05-24 23:54:48</time>
      </trkpt>
      <trkpt lat="40.81073" lon="0.70534">
        <ele>23.2</ele>
        <time>2022-05-24 23:54:49</time>
      </trkpt>
      <trkpt lat="40.81067" lon="0.7053">
        <ele>22.6</ele>
        <time>2022-05-24 23:54:50</time>
      </trkpt>
      <trkpt lat="40.81061" lon="0.70525">
        <ele>22.4</ele>
        <time>2022-05-24 23:54:51</time>
      </trkpt>
      <trkpt lat="40.81057" lon="0.70518">
        <ele>22</ele>
        <time>2022-05-24 23:54:52</time>
      </trkpt>
      <trkpt lat="40.81055" lon="0.70511">
        <ele>21.6</ele>
        <time>2022-05-24 23:54:53</time>
      </trkpt>
      <trkpt lat="40.81057" lon="0.70504">
        <ele>21.2</ele>
        <time>2022-05-24 23:54:54</time>
      </trkpt>
      <trkpt lat="40.8106" lon="0.70497">
        <ele>21</ele>
        <time>2022-05-24 23:54:55</time>
      </trkpt>
      <trkpt lat="40.81064" lon="0.70494">
        <ele>20.8</ele>
        <time>2022-05-24 23:54:56</time>
      </trkpt>
      <trkpt lat="40.81069" lon="0.70492">
        <ele>20.6</ele>
        <time>2022-05-24 23:54:57</time>
      </trkpt>
      <trkpt lat="40.81075" lon="0.70492">
        <ele>20.4</ele>
        <time>2022-05-24 23:54:58</time>
      </trkpt>
      <trkpt lat="40.81079" lon="0.70494">
        <ele>20.2</ele>
        <time>2022-05-24 23:54:59</time>
      </trkpt>
      <trkpt lat="40.81084" lon="0.70495">
        <ele>20.2</ele>
        <time>2022-05-24 23:55:00</time>
      </trkpt>
      <trkpt lat="40.81089" lon="0.70497">
        <ele>20.2</ele>
        <time>2022-05-24 23:55:01</time>
      </trkpt>
      <trkpt lat="40.81094" lon="0.70499">
        <ele>20</ele>
        <time>2022-05-24 23:55:02</time>
      </trkpt>
      <trkpt lat="40.81099" lon="0.705">
        <ele>20</ele>
        <time>2022-05-24 23:55:03</time>
      </trkpt>
      <trkpt lat="40.81104" lon="0.70501">
        <ele>20</ele>
        <time>2022-05-24 23:55:04</time>
      </trkpt>
      <trkpt lat="40.81108" lon="0.70502">
        <ele>20.2</ele>
        <time>2022-05-24 23:55:05</time>
      </trkpt>
      <trkpt lat="40.81113" lon="0.70503">
        <ele>20.2</ele>
        <time>2022-05-24 23:55:06</time>
      </trkpt>
      <trkpt lat="40.81117" lon="0.70504">
        <ele>20.4</ele>
        <time>2022-05-24 23:55:07</time>
      </trkpt>
      <trkpt lat="40.81121" lon="0.70504">
        <ele>20.8</ele>
        <time>2022-05-24 23:55:08</time>
      </trkpt>
      <trkpt lat="40.81125" lon="0.70504">
        <ele>21.2</ele>
        <time>2022-05-24 23:55:09</time>
      </trkpt>
      <trkpt lat="40.81129" lon="0.70504">
        <ele>21.6</ele>
        <time>2022-05-24 23:55:10</time>
      </trkpt>
      <trkpt lat="40.81133" lon="0.70504">
        <ele>21.8</ele>
        <time>2022-05-24 23:55:11</time>
      </trkpt>
      <trkpt lat="40.81137" lon="0.70503">
        <ele>22</ele>
        <time>2022-05-24 23:55:12</time>
      </trkpt>
      <trkpt lat="40.81141" lon="0.70503">
        <ele>22</ele>
        <time>2022-05-24 23:55:13</time>
      </trkpt>
      <trkpt lat="40.81144" lon="0.70502">
        <ele>22.2</ele>
        <time>2022-05-24 23:55:14</time>
      </trkpt>
      <trkpt lat="40.81148" lon="0.70501">
        <ele>22.6</ele>
        <time>2022-05-24 23:55:15</time>
      </trkpt>
      <trkpt lat="40.81152" lon="0.705">
        <ele>23</ele>
        <time>2022-05-24 23:55:16</time>
      </trkpt>
      <trkpt lat="40.81155" lon="0.705">
        <ele>23.2</ele>
        <time>2022-05-24 23:55:17</time>
      </trkpt>
      <trkpt lat="40.81159" lon="0.705">
        <ele>23.4</ele>
        <time>2022-05-24 23:55:18</time>
      </trkpt>
      <trkpt lat="40.81163" lon="0.70499">
        <ele>23.6</ele>
        <time>2022-05-24 23:55:19</time>
      </trkpt>
      <trkpt lat="40.81166" lon="0.70498">
        <ele>23.8</ele>
        <time>2022-05-24 23:55:20</time>
      </trkpt>
      <trkpt lat="40.8117" lon="0.70497">
        <ele>24.2</ele>
        <time>2022-05-24 23:55:21</time>
      </trkpt>
      <trkpt lat="40.81174" lon="0.70496">
        <ele>24.4</ele>
        <time>2022-05-24 23:55:22</time>
      </trkpt>
      <trkpt lat="40.81178" lon="0.70495">
        <ele>24.4</ele>
        <time>2022-05-24 23:55:23</time>
      </trkpt>
      <trkpt lat="40.81182" lon="0.70494">
        <ele>24.6</ele>
        <time>2022-05-24 23:55:24</time>
      </trkpt>
      <trkpt lat="40.81186" lon="0.70493">
        <ele>24.6</ele>
        <time>2022-05-24 23:55:25</time>
      </trkpt>
      <trkpt lat="40.81191" lon="0.70491">
        <ele>24.8</ele>
        <time>2022-05-24 23:55:26</time>
      </trkpt>
      <trkpt lat="40.81195" lon="0.70488">
        <ele>24.8</ele>
        <time>2022-05-24 23:55:27</time>
      </trkpt>
      <trkpt lat="40.812" lon="0.70486">
        <ele>25</ele>
        <time>2022-05-24 23:55:28</time>
      </trkpt>
      <trkpt lat="40.81204" lon="0.70484">
        <ele>25.2</ele>
        <time>2022-05-24 23:55:29</time>
      </trkpt>
      <trkpt lat="40.81209" lon="0.70482">
        <ele>25.2</ele>
        <time>2022-05-24 23:55:30</time>
      </trkpt>
      <trkpt lat="40.81214" lon="0.7048">
        <ele>25.2</ele>
        <time>2022-05-24 23:55:31</time>
      </trkpt>
      <trkpt lat="40.81218" lon="0.70477">
        <ele>24.8</ele>
        <time>2022-05-24 23:55:32</time>
      </trkpt>
      <trkpt lat="40.81224" lon="0.70475">
        <ele>24.4</ele>
        <time>2022-05-24 23:55:33</time>
      </trkpt>
      <trkpt lat="40.81229" lon="0.70472">
        <ele>24</ele>
        <time>2022-05-24 23:55:34</time>
      </trkpt>
      <trkpt lat="40.81234" lon="0.7047">
        <ele>23.6</ele>
        <time>2022-05-24 23:55:35</time>
      </trkpt>
      <trkpt lat="40.8124" lon="0.70467">
        <ele>23.4</ele>
        <time>2022-05-24 23:55:36</time>
      </trkpt>
      <trkpt lat="40.81246" lon="0.70464">
        <ele>23</ele>
        <time>2022-05-24 23:55:37</time>
      </trkpt>
      <trkpt lat="40.81252" lon="0.70462">
        <ele>22.6</ele>
        <time>2022-05-24 23:55:38</time>
      </trkpt>
      <trkpt lat="40.81258" lon="0.70459">
        <ele>22.4</ele>
        <time>2022-05-24 23:55:39</time>
      </trkpt>
      <trkpt lat="40.81264" lon="0.70457">
        <ele>22.2</ele>
        <time>2022-05-24 23:55:40</time>
      </trkpt>
      <trkpt lat="40.8127" lon="0.70454">
        <ele>22</ele>
        <time>2022-05-24 23:55:41</time>
      </trkpt>
      <trkpt lat="40.81276" lon="0.70451">
        <ele>22</ele>
        <time>2022-05-24 23:55:42</time>
      </trkpt>
      <trkpt lat="40.81283" lon="0.70449">
        <ele>21.6</ele>
        <time>2022-05-24 23:55:43</time>
      </trkpt>
      <trkpt lat="40.81289" lon="0.70447">
        <ele>21.4</ele>
        <time>2022-05-24 23:55:44</time>
      </trkpt>
      <trkpt lat="40.81295" lon="0.70444">
        <ele>21.2</ele>
        <time>2022-05-24 23:55:45</time>
      </trkpt>
      <trkpt lat="40.81301" lon="0.70442">
        <ele>21.2</ele>
        <time>2022-05-24 23:55:46</time>
      </trkpt>
      <trkpt lat="40.81307" lon="0.70439">
        <ele>21.4</ele>
        <time>2022-05-24 23:55:47</time>
      </trkpt>
      <trkpt lat="40.81313" lon="0.70436">
        <ele>21.4</ele>
        <time>2022-05-24 23:55:48</time>
      </trkpt>
      <trkpt lat="40.81318" lon="0.70433">
        <ele>21.4</ele>
        <time>2022-05-24 23:55:49</time>
      </trkpt>
      <trkpt lat="40.81324" lon="0.7043">
        <ele>21.2</ele>
        <time>2022-05-24 23:55:50</time>
      </trkpt>
      <trkpt lat="40.81329" lon="0.70427">
        <ele>21.2</ele>
        <time>2022-05-24 23:55:51</time>
      </trkpt>
      <trkpt lat="40.81335" lon="0.70425">
        <ele>21.4</ele>
        <time>2022-05-24 23:55:52</time>
      </trkpt>
      <trkpt lat="40.81341" lon="0.70422">
        <ele>21.4</ele>
        <time>2022-05-24 23:55:53</time>
      </trkpt>
      <trkpt lat="40.81347" lon="0.70421">
        <ele>21.6</ele>
        <time>2022-05-24 23:55:54</time>
      </trkpt>
      <trkpt lat="40.81352" lon="0.70419">
        <ele>22</ele>
        <time>2022-05-24 23:55:55</time>
      </trkpt>
      <trkpt lat="40.81357" lon="0.70417">
        <ele>22</ele>
        <time>2022-05-24 23:55:56</time>
      </trkpt>
      <trkpt lat="40.81363" lon="0.70415">
        <ele>22</ele>
        <time>2022-05-24 23:55:57</time>
      </trkpt>
      <trkpt lat="40.81368" lon="0.70413">
        <ele>21.8</ele>
        <time>2022-05-24 23:55:58</time>
      </trkpt>
      <trkpt lat="40.81374" lon="0.70411">
        <ele>21.8</ele>
        <time>2022-05-24 23:55:59</time>
      </trkpt>
      <trkpt lat="40.81379" lon="0.70409">
        <ele>21.6</ele>
        <time>2022-05-24 23:56:00</time>
      </trkpt>
      <trkpt lat="40.81384" lon="0.70407">
        <ele>21.8</ele>
        <time>2022-05-24 23:56:01</time>
      </trkpt>
      <trkpt lat="40.81389" lon="0.70406">
        <ele>22</ele>
        <time>2022-05-24 23:56:02</time>
      </trkpt>
      <trkpt lat="40.81394" lon="0.70404">
        <ele>22.2</ele>
        <time>2022-05-24 23:56:03</time>
      </trkpt>
      <trkpt lat="40.814" lon="0.70402">
        <ele>22</ele>
        <time>2022-05-24 23:56:04</time>
      </trkpt>
      <trkpt lat="40.81404" lon="0.70401">
        <ele>22</ele>
        <time>2022-05-24 23:56:05</time>
      </trkpt>
      <trkpt lat="40.8141" lon="0.70399">
        <ele>22.2</ele>
        <time>2022-05-24 23:56:06</time>
      </trkpt>
      <trkpt lat="40.81415" lon="0.70397">
        <ele>22.4</ele>
        <time>2022-05-24 23:56:07</time>
      </trkpt>
      <trkpt lat="40.81419" lon="0.70395">
        <ele>22.4</ele>
        <time>2022-05-24 23:56:08</time>
      </trkpt>
      <trkpt lat="40.81424" lon="0.70393">
        <ele>22.6</ele>
        <time>2022-05-24 23:56:09</time>
      </trkpt>
      <trkpt lat="40.81429" lon="0.7039">
        <ele>22.8</ele>
        <time>2022-05-24 23:56:10</time>
      </trkpt>
      <trkpt lat="40.81433" lon="0.70388">
        <ele>22.8</ele>
        <time>2022-05-24 23:56:11</time>
      </trkpt>
      <trkpt lat="40.81438" lon="0.70387">
        <ele>22.8</ele>
        <time>2022-05-24 23:56:12</time>
      </trkpt>
      <trkpt lat="40.81442" lon="0.70385">
        <ele>23</ele>
        <time>2022-05-24 23:56:13</time>
      </trkpt>
      <trkpt lat="40.81447" lon="0.70382">
        <ele>23</ele>
        <time>2022-05-24 23:56:14</time>
      </trkpt>
      <trkpt lat="40.81451" lon="0.70381">
        <ele>23.2</ele>
        <time>2022-05-24 23:56:15</time>
      </trkpt>
      <trkpt lat="40.81456" lon="0.70379">
        <ele>23.2</ele>
        <time>2022-05-24 23:56:16</time>
      </trkpt>
      <trkpt lat="40.8146" lon="0.70377">
        <ele>23.6</ele>
        <time>2022-05-24 23:56:17</time>
      </trkpt>
      <trkpt lat="40.81464" lon="0.70376">
        <ele>23.8</ele>
        <time>2022-05-24 23:56:18</time>
      </trkpt>
      <trkpt lat="40.81469" lon="0.70374">
        <ele>24</ele>
        <time>2022-05-24 23:56:19</time>
      </trkpt>
      <trkpt lat="40.81473" lon="0.70373">
        <ele>24.2</ele>
        <time>2022-05-24 23:56:20</time>
      </trkpt>
      <trkpt lat="40.81477" lon="0.70372">
        <ele>24.2</ele>
        <time>2022-05-24 23:56:21</time>
      </trkpt>
      <trkpt lat="40.81481" lon="0.70371">
        <ele>24.2</ele>
        <time>2022-05-24 23:56:22</time>
      </trkpt>
      <trkpt lat="40.81485" lon="0.7037">
        <ele>24.6</ele>
        <time>2022-05-24 23:56:23</time>
      </trkpt>
      <trkpt lat="40.8149" lon="0.70369">
        <ele>24.6</ele>
        <time>2022-05-24 23:56:24</time>
      </trkpt>
      <trkpt lat="40.81494" lon="0.70368">
        <ele>24.6</ele>
        <time>2022-05-24 23:56:25</time>
      </trkpt>
      <trkpt lat="40.81498" lon="0.70367">
        <ele>24.6</ele>
        <time>2022-05-24 23:56:26</time>
      </trkpt>
      <trkpt lat="40.81502" lon="0.70366">
        <ele>24.6</ele>
        <time>2022-05-24 23:56:27</time>
      </trkpt>
      <trkpt lat="40.81507" lon="0.70365">
        <ele>24.4</ele>
        <time>2022-05-24 23:56:28</time>
      </trkpt>
      <trkpt lat="40.81511" lon="0.70364">
        <ele>24.6</ele>
        <time>2022-05-24 23:56:29</time>
      </trkpt>
      <trkpt lat="40.81515" lon="0.70363">
        <ele>24.8</ele>
        <time>2022-05-24 23:56:30</time>
      </trkpt>
      <trkpt lat="40.81519" lon="0.70363">
        <ele>24.8</ele>
        <time>2022-05-24 23:56:31</time>
      </trkpt>
      <trkpt lat="40.81523" lon="0.70362">
        <ele>25</ele>
        <time>2022-05-24 23:56:32</time>
      </trkpt>
      <trkpt lat="40.81527" lon="0.70361">
        <ele>25</ele>
        <time>2022-05-24 23:56:33</time>
      </trkpt>
      <trkpt lat="40.81532" lon="0.70361">
        <ele>25.2</ele>
        <time>2022-05-24 23:56:34</time>
      </trkpt>
      <trkpt lat="40.81535" lon="0.7036">
        <ele>25.2</ele>
        <time>2022-05-24 23:56:35</time>
      </trkpt>
      <trkpt lat="40.8154" lon="0.7036">
        <ele>25.4</ele>
        <time>2022-05-24 23:56:36</time>
      </trkpt>
      <trkpt lat="40.81544" lon="0.7036">
        <ele>25.4</ele>
        <time>2022-05-24 23:56:37</time>
      </trkpt>
      <trkpt lat="40.81548" lon="0.7036">
        <ele>25.4</ele>
        <time>2022-05-24 23:56:38</time>
      </trkpt>
      <trkpt lat="40.81552" lon="0.7036">
        <ele>25.4</ele>
        <time>2022-05-24 23:56:39</time>
      </trkpt>
      <trkpt lat="40.81556" lon="0.7036">
        <ele>25.4</ele>
        <time>2022-05-24 23:56:40</time>
      </trkpt>
      <trkpt lat="40.81559" lon="0.7036">
        <ele>25.4</ele>
        <time>2022-05-24 23:56:41</time>
      </trkpt>
      <trkpt lat="40.81563" lon="0.7036">
        <ele>25.6</ele>
        <time>2022-05-24 23:56:42</time>
      </trkpt>
      <trkpt lat="40.81567" lon="0.70361">
        <ele>25.6</ele>
        <time>2022-05-24 23:56:43</time>
      </trkpt>
      <trkpt lat="40.8157" lon="0.70361">
        <ele>25.8</ele>
        <time>2022-05-24 23:56:44</time>
      </trkpt>
      <trkpt lat="40.81574" lon="0.70361">
        <ele>25.8</ele>
        <time>2022-05-24 23:56:45</time>
      </trkpt>
      <trkpt lat="40.81578" lon="0.70361">
        <ele>25.8</ele>
        <time>2022-05-24 23:56:46</time>
      </trkpt>
      <trkpt lat="40.81582" lon="0.70361">
        <ele>26.2</ele>
        <time>2022-05-24 23:56:47</time>
      </trkpt>
      <trkpt lat="40.81586" lon="0.70362">
        <ele>26.2</ele>
        <time>2022-05-24 23:56:48</time>
      </trkpt>
      <trkpt lat="40.8159" lon="0.70362">
        <ele>26.6</ele>
        <time>2022-05-24 23:56:49</time>
      </trkpt>
      <trkpt lat="40.81593" lon="0.70363">
        <ele>26.8</ele>
        <time>2022-05-24 23:56:50</time>
      </trkpt>
      <trkpt lat="40.81597" lon="0.70363">
        <ele>26.6</ele>
        <time>2022-05-24 23:56:51</time>
      </trkpt>
      <trkpt lat="40.816" lon="0.70364">
        <ele>26.4</ele>
        <time>2022-05-24 23:56:52</time>
      </trkpt>
      <trkpt lat="40.81603" lon="0.70365">
        <ele>26.4</ele>
        <time>2022-05-24 23:56:53</time>
      </trkpt>
      <trkpt lat="40.81607" lon="0.70366">
        <ele>26.6</ele>
        <time>2022-05-24 23:56:54</time>
      </trkpt>
      <trkpt lat="40.81611" lon="0.70367">
        <ele>26.4</ele>
        <time>2022-05-24 23:56:55</time>
      </trkpt>
      <trkpt lat="40.81615" lon="0.70368">
        <ele>26.6</ele>
        <time>2022-05-24 23:56:56</time>
      </trkpt>
      <trkpt lat="40.81618" lon="0.70369">
        <ele>26.6</ele>
        <time>2022-05-24 23:56:57</time>
      </trkpt>
      <trkpt lat="40.81622" lon="0.7037">
        <ele>26.8</ele>
        <time>2022-05-24 23:56:58</time>
      </trkpt>
      <trkpt lat="40.81626" lon="0.70371">
        <ele>27</ele>
        <time>2022-05-24 23:56:59</time>
      </trkpt>
      <trkpt lat="40.8163" lon="0.70372">
        <ele>27.2</ele>
        <time>2022-05-24 23:57:00</time>
      </trkpt>
      <trkpt lat="40.81633" lon="0.70373">
        <ele>27.2</ele>
        <time>2022-05-24 23:57:01</time>
      </trkpt>
      <trkpt lat="40.81637" lon="0.70375">
        <ele>27.6</ele>
        <time>2022-05-24 23:57:02</time>
      </trkpt>
      <trkpt lat="40.81641" lon="0.70376">
        <ele>27.6</ele>
        <time>2022-05-24 23:57:03</time>
      </trkpt>
      <trkpt lat="40.81645" lon="0.70378">
        <ele>27.8</ele>
        <time>2022-05-24 23:57:04</time>
      </trkpt>
      <trkpt lat="40.81648" lon="0.70379">
        <ele>28.2</ele>
        <time>2022-05-24 23:57:05</time>
      </trkpt>
      <trkpt lat="40.81652" lon="0.7038">
        <ele>28.4</ele>
        <time>2022-05-24 23:57:06</time>
      </trkpt>
      <trkpt lat="40.81656" lon="0.70382">
        <ele>28.8</ele>
        <time>2022-05-24 23:57:07</time>
      </trkpt>
      <trkpt lat="40.81659" lon="0.70384">
        <ele>29</ele>
        <time>2022-05-24 23:57:08</time>
      </trkpt>
      <trkpt lat="40.81663" lon="0.70386">
        <ele>29.2</ele>
        <time>2022-05-24 23:57:09</time>
      </trkpt>
      <trkpt lat="40.81667" lon="0.70389">
        <ele>29.2</ele>
        <time>2022-05-24 23:57:10</time>
      </trkpt>
      <trkpt lat="40.8167" lon="0.7039">
        <ele>29.2</ele>
        <time>2022-05-24 23:57:11</time>
      </trkpt>
      <trkpt lat="40.81674" lon="0.70392">
        <ele>29.2</ele>
        <time>2022-05-24 23:57:12</time>
      </trkpt>
      <trkpt lat="40.81678" lon="0.70395">
        <ele>29.4</ele>
        <time>2022-05-24 23:57:13</time>
      </trkpt>
      <trkpt lat="40.81681" lon="0.70397">
        <ele>29.4</ele>
        <time>2022-05-24 23:57:14</time>
      </trkpt>
      <trkpt lat="40.81685" lon="0.70399">
        <ele>29.4</ele>
        <time>2022-05-24 23:57:15</time>
      </trkpt>
      <trkpt lat="40.81689" lon="0.70402">
        <ele>29.6</ele>
        <time>2022-05-24 23:57:16</time>
      </trkpt>
      <trkpt lat="40.81692" lon="0.70404">
        <ele>29.8</ele>
        <time>2022-05-24 23:57:17</time>
      </trkpt>
      <trkpt lat="40.81696" lon="0.70407">
        <ele>29.8</ele>
        <time>2022-05-24 23:57:18</time>
      </trkpt>
      <trkpt lat="40.817" lon="0.70409">
        <ele>30</ele>
        <time>2022-05-24 23:57:19</time>
      </trkpt>
      <trkpt lat="40.81703" lon="0.70412">
        <ele>30.2</ele>
        <time>2022-05-24 23:57:20</time>
      </trkpt>
      <trkpt lat="40.81706" lon="0.70414">
        <ele>30.4</ele>
        <time>2022-05-24 23:57:21</time>
      </trkpt>
      <trkpt lat="40.8171" lon="0.70417">
        <ele>30.6</ele>
        <time>2022-05-24 23:57:22</time>
      </trkpt>
      <trkpt lat="40.81713" lon="0.7042">
        <ele>30.6</ele>
        <time>2022-05-24 23:57:23</time>
      </trkpt>
      <trkpt lat="40.81717" lon="0.70422">
        <ele>30.4</ele>
        <time>2022-05-24 23:57:24</time>
      </trkpt>
      <trkpt lat="40.8172" lon="0.70425">
        <ele>30.8</ele>
        <time>2022-05-24 23:57:25</time>
      </trkpt>
      <trkpt lat="40.81724" lon="0.70428">
        <ele>30.8</ele>
        <time>2022-05-24 23:57:26</time>
      </trkpt>
      <trkpt lat="40.81727" lon="0.70431">
        <ele>31</ele>
        <time>2022-05-24 23:57:27</time>
      </trkpt>
      <trkpt lat="40.8173" lon="0.70434">
        <ele>31.2</ele>
        <time>2022-05-24 23:57:28</time>
      </trkpt>
      <trkpt lat="40.81733" lon="0.70437">
        <ele>31.4</ele>
        <time>2022-05-24 23:57:29</time>
      </trkpt>
      <trkpt lat="40.81736" lon="0.7044">
        <ele>31.4</ele>
        <time>2022-05-24 23:57:30</time>
      </trkpt>
      <trkpt lat="40.8174" lon="0.70443">
        <ele>31.6</ele>
        <time>2022-05-24 23:57:31</time>
      </trkpt>
      <trkpt lat="40.81743" lon="0.70447">
        <ele>31.8</ele>
        <time>2022-05-24 23:57:32</time>
      </trkpt>
      <trkpt lat="40.81746" lon="0.7045">
        <ele>31.8</ele>
        <time>2022-05-24 23:57:33</time>
      </trkpt>
      <trkpt lat="40.81749" lon="0.70453">
        <ele>31.8</ele>
        <time>2022-05-24 23:57:34</time>
      </trkpt>
      <trkpt lat="40.81752" lon="0.70456">
        <ele>32</ele>
        <time>2022-05-24 23:57:35</time>
      </trkpt>
      <trkpt lat="40.81756" lon="0.7046">
        <ele>32.4</ele>
        <time>2022-05-24 23:57:36</time>
      </trkpt>
      <trkpt lat="40.81759" lon="0.70463">
        <ele>32.4</ele>
        <time>2022-05-24 23:57:37</time>
      </trkpt>
      <trkpt lat="40.81762" lon="0.70466">
        <ele>32.4</ele>
        <time>2022-05-24 23:57:38</time>
      </trkpt>
      <trkpt lat="40.81765" lon="0.70469">
        <ele>32.4</ele>
        <time>2022-05-24 23:57:39</time>
      </trkpt>
      <trkpt lat="40.81768" lon="0.70473">
        <ele>32.4</ele>
        <time>2022-05-24 23:57:40</time>
      </trkpt>
      <trkpt lat="40.81772" lon="0.70476">
        <ele>32.6</ele>
        <time>2022-05-24 23:57:41</time>
      </trkpt>
      <trkpt lat="40.81775" lon="0.70479">
        <ele>32.8</ele>
        <time>2022-05-24 23:57:42</time>
      </trkpt>
      <trkpt lat="40.81778" lon="0.70482">
        <ele>32.8</ele>
        <time>2022-05-24 23:57:43</time>
      </trkpt>
      <trkpt lat="40.81781" lon="0.70485">
        <ele>32.8</ele>
        <time>2022-05-24 23:57:44</time>
      </trkpt>
      <trkpt lat="40.81784" lon="0.70489">
        <ele>32.6</ele>
        <time>2022-05-24 23:57:45</time>
      </trkpt>
      <trkpt lat="40.81787" lon="0.70492">
        <ele>33</ele>
        <time>2022-05-24 23:57:46</time>
      </trkpt>
      <trkpt lat="40.81791" lon="0.70495">
        <ele>33.6</ele>
        <time>2022-05-24 23:57:47</time>
      </trkpt>
      <trkpt lat="40.81794" lon="0.70499">
        <ele>34</ele>
        <time>2022-05-24 23:57:48</time>
      </trkpt>
      <trkpt lat="40.81797" lon="0.70502">
        <ele>33.8</ele>
        <time>2022-05-24 23:57:49</time>
      </trkpt>
      <trkpt lat="40.818" lon="0.70505">
        <ele>33.8</ele>
        <time>2022-05-24 23:57:50</time>
      </trkpt>
      <trkpt lat="40.81803" lon="0.70509">
        <ele>33.8</ele>
        <time>2022-05-24 23:57:51</time>
      </trkpt>
      <trkpt lat="40.81807" lon="0.70513">
        <ele>33.6</ele>
        <time>2022-05-24 23:57:52</time>
      </trkpt>
      <trkpt lat="40.8181" lon="0.70516">
        <ele>33.8</ele>
        <time>2022-05-24 23:57:53</time>
      </trkpt>
      <trkpt lat="40.81813" lon="0.70519">
        <ele>34</ele>
        <time>2022-05-24 23:57:54</time>
      </trkpt>
      <trkpt lat="40.81816" lon="0.70522">
        <ele>34.2</ele>
        <time>2022-05-24 23:57:55</time>
      </trkpt>
      <trkpt lat="40.81819" lon="0.70525">
        <ele>34.4</ele>
        <time>2022-05-24 23:57:56</time>
      </trkpt>
      <trkpt lat="40.81822" lon="0.70529">
        <ele>34.2</ele>
        <time>2022-05-24 23:57:57</time>
      </trkpt>
      <trkpt lat="40.81826" lon="0.70532">
        <ele>34.4</ele>
        <time>2022-05-24 23:57:58</time>
      </trkpt>
      <trkpt lat="40.81829" lon="0.70535">
        <ele>34.4</ele>
        <time>2022-05-24 23:57:59</time>
      </trkpt>
      <trkpt lat="40.81832" lon="0.70538">
        <ele>34.6</ele>
        <time>2022-05-24 23:58:00</time>
      </trkpt>
      <trkpt lat="40.81835" lon="0.70541">
        <ele>34.4</ele>
        <time>2022-05-24 23:58:01</time>
      </trkpt>
      <trkpt lat="40.81839" lon="0.70545">
        <ele>34.4</ele>
        <time>2022-05-24 23:58:02</time>
      </trkpt>
      <trkpt lat="40.81842" lon="0.70547">
        <ele>34.4</ele>
        <time>2022-05-24 23:58:03</time>
      </trkpt>
      <trkpt lat="40.81845" lon="0.7055">
        <ele>34.4</ele>
        <time>2022-05-24 23:58:04</time>
      </trkpt>
      <trkpt lat="40.81849" lon="0.70553">
        <ele>34.6</ele>
        <time>2022-05-24 23:58:05</time>
      </trkpt>
      <trkpt lat="40.81852" lon="0.70556">
        <ele>34.8</ele>
        <time>2022-05-24 23:58:06</time>
      </trkpt>
      <trkpt lat="40.81855" lon="0.70559">
        <ele>34.8</ele>
        <time>2022-05-24 23:58:07</time>
      </trkpt>
      <trkpt lat="40.81858" lon="0.70562">
        <ele>34.8</ele>
        <time>2022-05-24 23:58:08</time>
      </trkpt>
      <trkpt lat="40.81862" lon="0.70565">
        <ele>34.8</ele>
        <time>2022-05-24 23:58:09</time>
      </trkpt>
      <trkpt lat="40.81865" lon="0.70568">
        <ele>34.8</ele>
        <time>2022-05-24 23:58:10</time>
      </trkpt>
      <trkpt lat="40.81869" lon="0.7057">
        <ele>34.6</ele>
        <time>2022-05-24 23:58:11</time>
      </trkpt>
      <trkpt lat="40.81872" lon="0.70573">
        <ele>34.6</ele>
        <time>2022-05-24 23:58:12</time>
      </trkpt>
      <trkpt lat="40.81876" lon="0.70576">
        <ele>34.6</ele>
        <time>2022-05-24 23:58:13</time>
      </trkpt>
      <trkpt lat="40.81879" lon="0.70579">
        <ele>34.8</ele>
        <time>2022-05-24 23:58:14</time>
      </trkpt>
      <trkpt lat="40.81883" lon="0.70582">
        <ele>35</ele>
        <time>2022-05-24 23:58:15</time>
      </trkpt>
      <trkpt lat="40.81886" lon="0.70584">
        <ele>35.2</ele>
        <time>2022-05-24 23:58:16</time>
      </trkpt>
      <trkpt lat="40.8189" lon="0.70587">
        <ele>35.2</ele>
        <time>2022-05-24 23:58:17</time>
      </trkpt>
      <trkpt lat="40.81893" lon="0.70589">
        <ele>35.2</ele>
        <time>2022-05-24 23:58:18</time>
      </trkpt>
      <trkpt lat="40.81897" lon="0.70592">
        <ele>35</ele>
        <time>2022-05-24 23:58:19</time>
      </trkpt>
      <trkpt lat="40.819" lon="0.70594">
        <ele>35</ele>
        <time>2022-05-24 23:58:20</time>
      </trkpt>
      <trkpt lat="40.81903" lon="0.70597">
        <ele>35.2</ele>
        <time>2022-05-24 23:58:21</time>
      </trkpt>
      <trkpt lat="40.81907" lon="0.70599">
        <ele>35.2</ele>
        <time>2022-05-24 23:58:22</time>
      </trkpt>
      <trkpt lat="40.8191" lon="0.70601">
        <ele>35.2</ele>
        <time>2022-05-24 23:58:23</time>
      </trkpt>
      <trkpt lat="40.81914" lon="0.70603">
        <ele>35.6</ele>
        <time>2022-05-24 23:58:24</time>
      </trkpt>
      <trkpt lat="40.81918" lon="0.70606">
        <ele>35.6</ele>
        <time>2022-05-24 23:58:25</time>
      </trkpt>
      <trkpt lat="40.81921" lon="0.70608">
        <ele>35.8</ele>
        <time>2022-05-24 23:58:26</time>
      </trkpt>
      <trkpt lat="40.81924" lon="0.7061">
        <ele>35.8</ele>
        <time>2022-05-24 23:58:27</time>
      </trkpt>
      <trkpt lat="40.81928" lon="0.70612">
        <ele>35.8</ele>
        <time>2022-05-24 23:58:28</time>
      </trkpt>
      <trkpt lat="40.81931" lon="0.70614">
        <ele>36</ele>
        <time>2022-05-24 23:58:29</time>
      </trkpt>
      <trkpt lat="40.81935" lon="0.70616">
        <ele>36</ele>
        <time>2022-05-24 23:58:30</time>
      </trkpt>
      <trkpt lat="40.81939" lon="0.70618">
        <ele>36</ele>
        <time>2022-05-24 23:58:31</time>
      </trkpt>
      <trkpt lat="40.81942" lon="0.7062">
        <ele>36.2</ele>
        <time>2022-05-24 23:58:32</time>
      </trkpt>
      <trkpt lat="40.81945" lon="0.70622">
        <ele>36.4</ele>
        <time>2022-05-24 23:58:33</time>
      </trkpt>
      <trkpt lat="40.81949" lon="0.70624">
        <ele>36.6</ele>
        <time>2022-05-24 23:58:34</time>
      </trkpt>
      <trkpt lat="40.81953" lon="0.70626">
        <ele>37.2</ele>
        <time>2022-05-24 23:58:35</time>
      </trkpt>
      <trkpt lat="40.81956" lon="0.70628">
        <ele>37.6</ele>
        <time>2022-05-24 23:58:36</time>
      </trkpt>
      <trkpt lat="40.8196" lon="0.70629">
        <ele>38</ele>
        <time>2022-05-24 23:58:37</time>
      </trkpt>
      <trkpt lat="40.81963" lon="0.70631">
        <ele>38</ele>
        <time>2022-05-24 23:58:38</time>
      </trkpt>
      <trkpt lat="40.81967" lon="0.70633">
        <ele>38</ele>
        <time>2022-05-24 23:58:39</time>
      </trkpt>
      <trkpt lat="40.8197" lon="0.70634">
        <ele>38</ele>
        <time>2022-05-24 23:58:40</time>
      </trkpt>
      <trkpt lat="40.81974" lon="0.70636">
        <ele>38.2</ele>
        <time>2022-05-24 23:58:41</time>
      </trkpt>
      <trkpt lat="40.81977" lon="0.70637">
        <ele>38.2</ele>
        <time>2022-05-24 23:58:42</time>
      </trkpt>
      <trkpt lat="40.81981" lon="0.70639">
        <ele>38.2</ele>
        <time>2022-05-24 23:58:43</time>
      </trkpt>
      <trkpt lat="40.81984" lon="0.7064">
        <ele>38</ele>
        <time>2022-05-24 23:58:44</time>
      </trkpt>
      <trkpt lat="40.81987" lon="0.70642">
        <ele>38</ele>
        <time>2022-05-24 23:58:45</time>
      </trkpt>
      <trkpt lat="40.81991" lon="0.70644">
        <ele>38.2</ele>
        <time>2022-05-24 23:58:46</time>
      </trkpt>
      <trkpt lat="40.81994" lon="0.70645">
        <ele>38</ele>
        <time>2022-05-24 23:58:47</time>
      </trkpt>
      <trkpt lat="40.81998" lon="0.70646">
        <ele>38</ele>
        <time>2022-05-24 23:58:48</time>
      </trkpt>
      <trkpt lat="40.82002" lon="0.70648">
        <ele>38.2</ele>
        <time>2022-05-24 23:58:49</time>
      </trkpt>
      <trkpt lat="40.82005" lon="0.70649">
        <ele>38</ele>
        <time>2022-05-24 23:58:50</time>
      </trkpt>
      <trkpt lat="40.82009" lon="0.7065">
        <ele>38</ele>
        <time>2022-05-24 23:58:51</time>
      </trkpt>
      <trkpt lat="40.82013" lon="0.70651">
        <ele>38</ele>
        <time>2022-05-24 23:58:52</time>
      </trkpt>
      <trkpt lat="40.82016" lon="0.70653">
        <ele>38</ele>
        <time>2022-05-24 23:58:53</time>
      </trkpt>
      <trkpt lat="40.8202" lon="0.70654">
        <ele>38.2</ele>
        <time>2022-05-24 23:58:54</time>
      </trkpt>
      <trkpt lat="40.82023" lon="0.70656">
        <ele>38.2</ele>
        <time>2022-05-24 23:58:55</time>
      </trkpt>
      <trkpt lat="40.82027" lon="0.70657">
        <ele>38.2</ele>
        <time>2022-05-24 23:58:56</time>
      </trkpt>
      <trkpt lat="40.82031" lon="0.70658">
        <ele>38.4</ele>
        <time>2022-05-24 23:58:57</time>
      </trkpt>
      <trkpt lat="40.82034" lon="0.70659">
        <ele>38.6</ele>
        <time>2022-05-24 23:58:58</time>
      </trkpt>
      <trkpt lat="40.82038" lon="0.7066">
        <ele>38.6</ele>
        <time>2022-05-24 23:58:59</time>
      </trkpt>
      <trkpt lat="40.82042" lon="0.70661">
        <ele>38.6</ele>
        <time>2022-05-24 23:59:00</time>
      </trkpt>
      <trkpt lat="40.82045" lon="0.70662">
        <ele>38.6</ele>
        <time>2022-05-24 23:59:01</time>
      </trkpt>
      <trkpt lat="40.82049" lon="0.70663">
        <ele>38.8</ele>
        <time>2022-05-24 23:59:02</time>
      </trkpt>
      <trkpt lat="40.82052" lon="0.70664">
        <ele>38.8</ele>
        <time>2022-05-24 23:59:03</time>
      </trkpt>
      <trkpt lat="40.82056" lon="0.70665">
        <ele>39</ele>
        <time>2022-05-24 23:59:04</time>
      </trkpt>
      <trkpt lat="40.82059" lon="0.70666">
        <ele>39.6</ele>
        <time>2022-05-24 23:59:05</time>
      </trkpt>
      <trkpt lat="40.82063" lon="0.70666">
        <ele>39.8</ele>
        <time>2022-05-24 23:59:06</time>
      </trkpt>
      <trkpt lat="40.82067" lon="0.70668">
        <ele>40</ele>
        <time>2022-05-24 23:59:07</time>
      </trkpt>
      <trkpt lat="40.82071" lon="0.70669">
        <ele>40</ele>
        <time>2022-05-24 23:59:08</time>
      </trkpt>
      <trkpt lat="40.82075" lon="0.7067">
        <ele>40</ele>
        <time>2022-05-24 23:59:09</time>
      </trkpt>
      <trkpt lat="40.82078" lon="0.70671">
        <ele>40</ele>
        <time>2022-05-24 23:59:10</time>
      </trkpt>
      <trkpt lat="40.82082" lon="0.70672">
        <ele>39.8</ele>
        <time>2022-05-24 23:59:11</time>
      </trkpt>
      <trkpt lat="40.82086" lon="0.70673">
        <ele>39.8</ele>
        <time>2022-05-24 23:59:12</time>
      </trkpt>
      <trkpt lat="40.8209" lon="0.70674">
        <ele>39.8</ele>
        <time>2022-05-24 23:59:13</time>
      </trkpt>
      <trkpt lat="40.82094" lon="0.70675">
        <ele>40</ele>
        <time>2022-05-24 23:59:14</time>
      </trkpt>
      <trkpt lat="40.82098" lon="0.70676">
        <ele>40.2</ele>
        <time>2022-05-24 23:59:15</time>
      </trkpt>
      <trkpt lat="40.82102" lon="0.70677">
        <ele>40.2</ele>
        <time>2022-05-24 23:59:16</time>
      </trkpt>
      <trkpt lat="40.82106" lon="0.70678">
        <ele>40.4</ele>
        <time>2022-05-24 23:59:17</time>
      </trkpt>
      <trkpt lat="40.8211" lon="0.70679">
        <ele>40.6</ele>
        <time>2022-05-24 23:59:18</time>
      </trkpt>
      <trkpt lat="40.82114" lon="0.7068">
        <ele>40.8</ele>
        <time>2022-05-24 23:59:19</time>
      </trkpt>
      <trkpt lat="40.82117" lon="0.70681">
        <ele>41</ele>
        <time>2022-05-24 23:59:20</time>
      </trkpt>
      <trkpt lat="40.82121" lon="0.70682">
        <ele>41.4</ele>
        <time>2022-05-24 23:59:21</time>
      </trkpt>
      <trkpt lat="40.82125" lon="0.70683">
        <ele>41.6</ele>
        <time>2022-05-24 23:59:22</time>
      </trkpt>
      <trkpt lat="40.82129" lon="0.70683">
        <ele>41.8</ele>
        <time>2022-05-24 23:59:23</time>
      </trkpt>
      <trkpt lat="40.82132" lon="0.70684">
        <ele>42.2</ele>
        <time>2022-05-24 23:59:24</time>
      </trkpt>
      <trkpt lat="40.82135" lon="0.70685">
        <ele>42.2</ele>
        <time>2022-05-24 23:59:25</time>
      </trkpt>
      <trkpt lat="40.8214" lon="0.70686">
        <ele>42.2</ele>
        <time>2022-05-24 23:59:26</time>
      </trkpt>
      <trkpt lat="40.82143" lon="0.70687">
        <ele>42.2</ele>
        <time>2022-05-24 23:59:27</time>
      </trkpt>
      <trkpt lat="40.82147" lon="0.70688">
        <ele>42</ele>
        <time>2022-05-24 23:59:28</time>
      </trkpt>
      <trkpt lat="40.8215" lon="0.70689">
        <ele>41.8</ele>
        <time>2022-05-24 23:59:29</time>
      </trkpt>
      <trkpt lat="40.82154" lon="0.7069">
        <ele>42</ele>
        <time>2022-05-24 23:59:30</time>
      </trkpt>
      <trkpt lat="40.82158" lon="0.70691">
        <ele>42</ele>
        <time>2022-05-24 23:59:31</time>
      </trkpt>
      <trkpt lat="40.82161" lon="0.70692">
        <ele>41.8</ele>
        <time>2022-05-24 23:59:32</time>
      </trkpt>
      <trkpt lat="40.82164" lon="0.70692">
        <ele>41.8</ele>
        <time>2022-05-24 23:59:33</time>
      </trkpt>
      <trkpt lat="40.82168" lon="0.70693">
        <ele>42</ele>
        <time>2022-05-24 23:59:34</time>
      </trkpt>
      <trkpt lat="40.82171" lon="0.70694">
        <ele>42</ele>
        <time>2022-05-24 23:59:35</time>
      </trkpt>
      <trkpt lat="40.82175" lon="0.70695">
        <ele>42</ele>
        <time>2022-05-24 23:59:36</time>
      </trkpt>
      <trkpt lat="40.82178" lon="0.70696">
        <ele>42</ele>
        <time>2022-05-24 23:59:37</time>
      </trkpt>
      <trkpt lat="40.82182" lon="0.70697">
        <ele>42.2</ele>
        <time>2022-05-24 23:59:38</time>
      </trkpt>
      <trkpt lat="40.82186" lon="0.70698">
        <ele>42.2</ele>
        <time>2022-05-24 23:59:39</time>
      </trkpt>
      <trkpt lat="40.82189" lon="0.70699">
        <ele>42.2</ele>
        <time>2022-05-24 23:59:40</time>
      </trkpt>
      <trkpt lat="40.82193" lon="0.707">
        <ele>42.2</ele>
        <time>2022-05-24 23:59:41</time>
      </trkpt>
      <trkpt lat="40.82196" lon="0.70701">
        <ele>42.2</ele>
        <time>2022-05-24 23:59:42</time>
      </trkpt>
      <trkpt lat="40.82199" lon="0.70701">
        <ele>42.4</ele>
        <time>2022-05-24 23:59:43</time>
      </trkpt>
      <trkpt lat="40.82203" lon="0.70702">
        <ele>42.4</ele>
        <time>2022-05-24 23:59:44</time>
      </trkpt>
      <trkpt lat="40.82207" lon="0.70703">
        <ele>42.4</ele>
        <time>2022-05-24 23:59:45</time>
      </trkpt>
      <trkpt lat="40.8221" lon="0.70704">
        <ele>42.6</ele>
        <time>2022-05-24 23:59:46</time>
      </trkpt>
      <trkpt lat="40.82214" lon="0.70705">
        <ele>42.6</ele>
        <time>2022-05-24 23:59:47</time>
      </trkpt>
      <trkpt lat="40.82217" lon="0.70706">
        <ele>42.8</ele>
        <time>2022-05-24 23:59:48</time>
      </trkpt>
      <trkpt lat="40.8222" lon="0.70707">
        <ele>42.8</ele>
        <time>2022-05-24 23:59:49</time>
      </trkpt>
      <trkpt lat="40.82225" lon="0.70708">
        <ele>43</ele>
        <time>2022-05-24 23:59:50</time>
      </trkpt>
      <trkpt lat="40.82228" lon="0.70709">
        <ele>43</ele>
        <time>2022-05-24 23:59:51</time>
      </trkpt>
      <trkpt lat="40.82232" lon="0.7071">
        <ele>43</ele>
        <time>2022-05-24 23:59:52</time>
      </trkpt>
      <trkpt lat="40.82235" lon="0.7071">
        <ele>43</ele>
        <time>2022-05-24 23:59:53</time>
      </trkpt>
      <trkpt lat="40.82239" lon="0.70711">
        <ele>43</ele>
        <time>2022-05-24 23:59:54</time>
      </trkpt>
      <trkpt lat="40.82243" lon="0.70712">
        <ele>43</ele>
        <time>2022-05-24 23:59:55</time>
      </trkpt>
      <trkpt lat="40.82246" lon="0.70713">
        <ele>43</ele>
        <time>2022-05-24 23:59:56</time>
      </trkpt>
      <trkpt lat="40.82249" lon="0.70714">
        <ele>43</ele>
        <time>2022-05-24 23:59:57</time>
      </trkpt>
      <trkpt lat="40.82253" lon="0.70715">
        <ele>43</ele>
        <time>2022-05-24 23:59:58</time>
      </trkpt>
      <trkpt lat="40.82256" lon="0.70716">
        <ele>42.8</ele>
        <time>2022-05-24 23:59:59</time>
      </trkpt>
      <trkpt lat="40.8226" lon="0.70717">
        <ele>42.8</ele>
        <time>2022-05-25 00:00:00</time>
      </trkpt>
      <trkpt lat="40.82264" lon="0.70717">
        <ele>43.2</ele>
        <time>2022-05-25 00:00:01</time>
      </trkpt>
      <trkpt lat="40.82267" lon="0.70718">
        <ele>43.6</ele>
        <time>2022-05-25 00:00:02</time>
      </trkpt>
      <trkpt lat="40.82271" lon="0.70719">
        <ele>43.8</ele>
        <time>2022-05-25 00:00:03</time>
      </trkpt>
      <trkpt lat="40.82274" lon="0.7072">
        <ele>44.2</ele>
        <time>2022-05-25 00:00:04</time>
      </trkpt>
      <trkpt lat="40.82278" lon="0.7072">
        <ele>44.6</ele>
        <time>2022-05-25 00:00:05</time>
      </trkpt>
      <trkpt lat="40.82281" lon="0.70721">
        <ele>44.8</ele>
        <time>2022-05-25 00:00:06</time>
      </trkpt>
      <trkpt lat="40.82285" lon="0.70723">
        <ele>44.8</ele>
        <time>2022-05-25 00:00:07</time>
      </trkpt>
      <trkpt lat="40.82289" lon="0.70724">
        <ele>44.8</ele>
        <time>2022-05-25 00:00:08</time>
      </trkpt>
      <trkpt lat="40.82292" lon="0.70725">
        <ele>44.8</ele>
        <time>2022-05-25 00:00:09</time>
      </trkpt>
      <trkpt lat="40.82296" lon="0.70726">
        <ele>44.8</ele>
        <time>2022-05-25 00:00:10</time>
      </trkpt>
      <trkpt lat="40.82299" lon="0.70727">
        <ele>44.8</ele>
        <time>2022-05-25 00:00:11</time>
      </trkpt>
      <trkpt lat="40.82303" lon="0.70727">
        <ele>44.6</ele>
        <time>2022-05-25 00:00:12</time>
      </trkpt>
      <trkpt lat="40.82306" lon="0.70728">
        <ele>44.8</ele>
        <time>2022-05-25 00:00:13</time>
      </trkpt>
      <trkpt lat="40.82309" lon="0.70729">
        <ele>45</ele>
        <time>2022-05-25 00:00:14</time>
      </trkpt>
      <trkpt lat="40.82313" lon="0.7073">
        <ele>45.2</ele>
        <time>2022-05-25 00:00:15</time>
      </trkpt>
      <trkpt lat="40.82317" lon="0.70731">
        <ele>45.2</ele>
        <time>2022-05-25 00:00:16</time>
      </trkpt>
      <trkpt lat="40.8232" lon="0.70732">
        <ele>45.4</ele>
        <time>2022-05-25 00:00:17</time>
      </trkpt>
      <trkpt lat="40.82323" lon="0.70733">
        <ele>45.4</ele>
        <time>2022-05-25 00:00:18</time>
      </trkpt>
      <trkpt lat="40.82327" lon="0.70733">
        <ele>45.4</ele>
        <time>2022-05-25 00:00:19</time>
      </trkpt>
      <trkpt lat="40.8233" lon="0.70735">
        <ele>45.4</ele>
        <time>2022-05-25 00:00:20</time>
      </trkpt>
      <trkpt lat="40.82334" lon="0.70736">
        <ele>45.4</ele>
        <time>2022-05-25 00:00:21</time>
      </trkpt>
      <trkpt lat="40.82337" lon="0.70737">
        <ele>45.4</ele>
        <time>2022-05-25 00:00:22</time>
      </trkpt>
      <trkpt lat="40.82341" lon="0.70738">
        <ele>45.6</ele>
        <time>2022-05-25 00:00:23</time>
      </trkpt>
      <trkpt lat="40.82344" lon="0.70739">
        <ele>45.6</ele>
        <time>2022-05-25 00:00:24</time>
      </trkpt>
      <trkpt lat="40.82348" lon="0.70739">
        <ele>45.8</ele>
        <time>2022-05-25 00:00:25</time>
      </trkpt>
      <trkpt lat="40.82351" lon="0.7074">
        <ele>45.8</ele>
        <time>2022-05-25 00:00:26</time>
      </trkpt>
      <trkpt lat="40.82355" lon="0.70741">
        <ele>46</ele>
        <time>2022-05-25 00:00:27</time>
      </trkpt>
      <trkpt lat="40.82359" lon="0.70742">
        <ele>46</ele>
        <time>2022-05-25 00:00:28</time>
      </trkpt>
      <trkpt lat="40.82362" lon="0.70742">
        <ele>46.2</ele>
        <time>2022-05-25 00:00:29</time>
      </trkpt>
      <trkpt lat="40.82365" lon="0.70743">
        <ele>46.2</ele>
        <time>2022-05-25 00:00:30</time>
      </trkpt>
      <trkpt lat="40.82369" lon="0.70744">
        <ele>46.2</ele>
        <time>2022-05-25 00:00:31</time>
      </trkpt>
      <trkpt lat="40.82372" lon="0.70745">
        <ele>46.4</ele>
        <time>2022-05-25 00:00:32</time>
      </trkpt>
      <trkpt lat="40.82375" lon="0.70746">
        <ele>46.6</ele>
        <time>2022-05-25 00:00:33</time>
      </trkpt>
      <trkpt lat="40.8238" lon="0.70747">
        <ele>46.8</ele>
        <time>2022-05-25 00:00:34</time>
      </trkpt>
      <trkpt lat="40.82383" lon="0.70748">
        <ele>47</ele>
        <time>2022-05-25 00:00:35</time>
      </trkpt>
      <trkpt lat="40.82386" lon="0.70749">
        <ele>46.8</ele>
        <time>2022-05-25 00:00:36</time>
      </trkpt>
      <trkpt lat="40.8239" lon="0.7075">
        <ele>47</ele>
        <time>2022-05-25 00:00:37</time>
      </trkpt>
      <trkpt lat="40.82394" lon="0.7075">
        <ele>47.2</ele>
        <time>2022-05-25 00:00:38</time>
      </trkpt>
      <trkpt lat="40.82397" lon="0.70751">
        <ele>47</ele>
        <time>2022-05-25 00:00:39</time>
      </trkpt>
      <trkpt lat="40.82401" lon="0.70752">
        <ele>47</ele>
        <time>2022-05-25 00:00:40</time>
      </trkpt>
      <trkpt lat="40.82405" lon="0.70753">
        <ele>47.2</ele>
        <time>2022-05-25 00:00:41</time>
      </trkpt>
      <trkpt lat="40.82409" lon="0.70754">
        <ele>47.4</ele>
        <time>2022-05-25 00:00:42</time>
      </trkpt>
      <trkpt lat="40.82412" lon="0.70755">
        <ele>47.8</ele>
        <time>2022-05-25 00:00:43</time>
      </trkpt>
      <trkpt lat="40.82416" lon="0.70757">
        <ele>48</ele>
        <time>2022-05-25 00:00:44</time>
      </trkpt>
      <trkpt lat="40.82419" lon="0.70757">
        <ele>48</ele>
        <time>2022-05-25 00:00:45</time>
      </trkpt>
      <trkpt lat="40.82423" lon="0.70758">
        <ele>48</ele>
        <time>2022-05-25 00:00:46</time>
      </trkpt>
      <trkpt lat="40.82426" lon="0.7076">
        <ele>48.2</ele>
        <time>2022-05-25 00:00:47</time>
      </trkpt>
      <trkpt lat="40.8243" lon="0.70761">
        <ele>48.4</ele>
        <time>2022-05-25 00:00:48</time>
      </trkpt>
      <trkpt lat="40.82434" lon="0.70762">
        <ele>48.4</ele>
        <time>2022-05-25 00:00:49</time>
      </trkpt>
      <trkpt lat="40.82438" lon="0.70763">
        <ele>48.4</ele>
        <time>2022-05-25 00:00:50</time>
      </trkpt>
      <trkpt lat="40.82441" lon="0.70763">
        <ele>48.4</ele>
        <time>2022-05-25 00:00:51</time>
      </trkpt>
      <trkpt lat="40.82445" lon="0.70764">
        <ele>48.6</ele>
        <time>2022-05-25 00:00:52</time>
      </trkpt>
      <trkpt lat="40.82448" lon="0.70765">
        <ele>48.6</ele>
        <time>2022-05-25 00:00:53</time>
      </trkpt>
      <trkpt lat="40.82452" lon="0.70766">
        <ele>48.6</ele>
        <time>2022-05-25 00:00:54</time>
      </trkpt>
      <trkpt lat="40.82455" lon="0.70766">
        <ele>48.8</ele>
        <time>2022-05-25 00:00:55</time>
      </trkpt>
      <trkpt lat="40.82459" lon="0.70767">
        <ele>48.8</ele>
        <time>2022-05-25 00:00:56</time>
      </trkpt>
      <trkpt lat="40.82463" lon="0.70768">
        <ele>49</ele>
        <time>2022-05-25 00:00:57</time>
      </trkpt>
      <trkpt lat="40.82467" lon="0.70769">
        <ele>49</ele>
        <time>2022-05-25 00:00:58</time>
      </trkpt>
      <trkpt lat="40.8247" lon="0.7077">
        <ele>49</ele>
        <time>2022-05-25 00:00:59</time>
      </trkpt>
      <trkpt lat="40.82473" lon="0.70771">
        <ele>49</ele>
        <time>2022-05-25 00:01:00</time>
      </trkpt>
      <trkpt lat="40.82476" lon="0.70772">
        <ele>49</ele>
        <time>2022-05-25 00:01:01</time>
      </trkpt>
      <trkpt lat="40.82481" lon="0.70773">
        <ele>49.2</ele>
        <time>2022-05-25 00:01:02</time>
      </trkpt>
      <trkpt lat="40.82484" lon="0.70774">
        <ele>49.2</ele>
        <time>2022-05-25 00:01:03</time>
      </trkpt>
      <trkpt lat="40.82487" lon="0.70775">
        <ele>49</ele>
        <time>2022-05-25 00:01:04</time>
      </trkpt>
      <trkpt lat="40.82491" lon="0.70775">
        <ele>49</ele>
        <time>2022-05-25 00:01:05</time>
      </trkpt>
      <trkpt lat="40.82494" lon="0.70776">
        <ele>49.4</ele>
        <time>2022-05-25 00:01:06</time>
      </trkpt>
      <trkpt lat="40.82497" lon="0.70777">
        <ele>49.4</ele>
        <time>2022-05-25 00:01:07</time>
      </trkpt>
      <trkpt lat="40.825" lon="0.70778">
        <ele>49.8</ele>
        <time>2022-05-25 00:01:08</time>
      </trkpt>
      <trkpt lat="40.82504" lon="0.70779">
        <ele>50</ele>
        <time>2022-05-25 00:01:09</time>
      </trkpt>
      <trkpt lat="40.82508" lon="0.7078">
        <ele>50</ele>
        <time>2022-05-25 00:01:10</time>
      </trkpt>
      <trkpt lat="40.82512" lon="0.70781">
        <ele>50</ele>
        <time>2022-05-25 00:01:11</time>
      </trkpt>
      <trkpt lat="40.82516" lon="0.70782">
        <ele>50.2</ele>
        <time>2022-05-25 00:01:12</time>
      </trkpt>
      <trkpt lat="40.8252" lon="0.70783">
        <ele>50.2</ele>
        <time>2022-05-25 00:01:13</time>
      </trkpt>
      <trkpt lat="40.82523" lon="0.70784">
        <ele>50.4</ele>
        <time>2022-05-25 00:01:14</time>
      </trkpt>
      <trkpt lat="40.82527" lon="0.70785">
        <ele>50.4</ele>
        <time>2022-05-25 00:01:15</time>
      </trkpt>
      <trkpt lat="40.82531" lon="0.70786">
        <ele>50.6</ele>
        <time>2022-05-25 00:01:16</time>
      </trkpt>
      <trkpt lat="40.82534" lon="0.70787">
        <ele>50.6</ele>
        <time>2022-05-25 00:01:17</time>
      </trkpt>
      <trkpt lat="40.82537" lon="0.70788">
        <ele>50.6</ele>
        <time>2022-05-25 00:01:18</time>
      </trkpt>
      <trkpt lat="40.82541" lon="0.70789">
        <ele>50.6</ele>
        <time>2022-05-25 00:01:19</time>
      </trkpt>
      <trkpt lat="40.82544" lon="0.70789">
        <ele>50.6</ele>
        <time>2022-05-25 00:01:20</time>
      </trkpt>
      <trkpt lat="40.82547" lon="0.7079">
        <ele>50.4</ele>
        <time>2022-05-25 00:01:21</time>
      </trkpt>
      <trkpt lat="40.82551" lon="0.70791">
        <ele>50.4</ele>
        <time>2022-05-25 00:01:22</time>
      </trkpt>
      <trkpt lat="40.82554" lon="0.70792">
        <ele>50.4</ele>
        <time>2022-05-25 00:01:23</time>
      </trkpt>
      <trkpt lat="40.82557" lon="0.70793">
        <ele>50.4</ele>
        <time>2022-05-25 00:01:24</time>
      </trkpt>
      <trkpt lat="40.82561" lon="0.70794">
        <ele>50.6</ele>
        <time>2022-05-25 00:01:25</time>
      </trkpt>
      <trkpt lat="40.82564" lon="0.70795">
        <ele>50.6</ele>
        <time>2022-05-25 00:01:26</time>
      </trkpt>
      <trkpt lat="40.82568" lon="0.70796">
        <ele>50.8</ele>
        <time>2022-05-25 00:01:27</time>
      </trkpt>
      <trkpt lat="40.82571" lon="0.70797">
        <ele>51</ele>
        <time>2022-05-25 00:01:28</time>
      </trkpt>
      <trkpt lat="40.82574" lon="0.70798">
        <ele>51.2</ele>
        <time>2022-05-25 00:01:29</time>
      </trkpt>
      <trkpt lat="40.82578" lon="0.70798">
        <ele>51.2</ele>
        <time>2022-05-25 00:01:30</time>
      </trkpt>
      <trkpt lat="40.82581" lon="0.70799">
        <ele>51.2</ele>
        <time>2022-05-25 00:01:31</time>
      </trkpt>
      <trkpt lat="40.82585" lon="0.70799">
        <ele>51</ele>
        <time>2022-05-25 00:01:32</time>
      </trkpt>
      <trkpt lat="40.82588" lon="0.708">
        <ele>51.2</ele>
        <time>2022-05-25 00:01:33</time>
      </trkpt>
      <trkpt lat="40.82591" lon="0.70801">
        <ele>51.2</ele>
        <time>2022-05-25 00:01:34</time>
      </trkpt>
      <trkpt lat="40.82594" lon="0.70802">
        <ele>51.2</ele>
        <time>2022-05-25 00:01:35</time>
      </trkpt>
      <trkpt lat="40.82598" lon="0.70803">
        <ele>51.2</ele>
        <time>2022-05-25 00:01:36</time>
      </trkpt>
      <trkpt lat="40.82601" lon="0.70804">
        <ele>51.2</ele>
        <time>2022-05-25 00:01:37</time>
      </trkpt>
      <trkpt lat="40.82605" lon="0.70805">
        <ele>51.4</ele>
        <time>2022-05-25 00:01:38</time>
      </trkpt>
      <trkpt lat="40.82608" lon="0.70806">
        <ele>51.4</ele>
        <time>2022-05-25 00:01:39</time>
      </trkpt>
      <trkpt lat="40.82611" lon="0.70806">
        <ele>51.6</ele>
        <time>2022-05-25 00:01:40</time>
      </trkpt>
      <trkpt lat="40.82615" lon="0.70807">
        <ele>51.4</ele>
        <time>2022-05-25 00:01:41</time>
      </trkpt>
      <trkpt lat="40.82618" lon="0.70808">
        <ele>51.6</ele>
        <time>2022-05-25 00:01:42</time>
      </trkpt>
      <trkpt lat="40.82621" lon="0.70809">
        <ele>51.6</ele>
        <time>2022-05-25 00:01:43</time>
      </trkpt>
      <trkpt lat="40.82625" lon="0.7081">
        <ele>51.6</ele>
        <time>2022-05-25 00:01:44</time>
      </trkpt>
      <trkpt lat="40.82628" lon="0.70811">
        <ele>51.6</ele>
        <time>2022-05-25 00:01:45</time>
      </trkpt>
      <trkpt lat="40.82631" lon="0.70812">
        <ele>51.8</ele>
        <time>2022-05-25 00:01:46</time>
      </trkpt>
      <trkpt lat="40.82635" lon="0.70813">
        <ele>51.8</ele>
        <time>2022-05-25 00:01:47</time>
      </trkpt>
      <trkpt lat="40.82638" lon="0.70814">
        <ele>52</ele>
        <time>2022-05-25 00:01:48</time>
      </trkpt>
      <trkpt lat="40.82642" lon="0.70814">
        <ele>52.2</ele>
        <time>2022-05-25 00:01:49</time>
      </trkpt>
      <trkpt lat="40.82645" lon="0.70815">
        <ele>52.4</ele>
        <time>2022-05-25 00:01:50</time>
      </trkpt>
      <trkpt lat="40.82648" lon="0.70816">
        <ele>52.4</ele>
        <time>2022-05-25 00:01:51</time>
      </trkpt>
      <trkpt lat="40.82652" lon="0.70817">
        <ele>52.6</ele>
        <time>2022-05-25 00:01:52</time>
      </trkpt>
      <trkpt lat="40.82656" lon="0.70817">
        <ele>52.8</ele>
        <time>2022-05-25 00:01:53</time>
      </trkpt>
      <trkpt lat="40.8266" lon="0.70818">
        <ele>52.8</ele>
        <time>2022-05-25 00:01:54</time>
      </trkpt>
      <trkpt lat="40.82663" lon="0.70819">
        <ele>52.8</ele>
        <time>2022-05-25 00:01:55</time>
      </trkpt>
      <trkpt lat="40.82666" lon="0.7082">
        <ele>53</ele>
        <time>2022-05-25 00:01:56</time>
      </trkpt>
      <trkpt lat="40.8267" lon="0.70821">
        <ele>53</ele>
        <time>2022-05-25 00:01:57</time>
      </trkpt>
      <trkpt lat="40.82673" lon="0.70822">
        <ele>53</ele>
        <time>2022-05-25 00:01:58</time>
      </trkpt>
      <trkpt lat="40.82677" lon="0.70822">
        <ele>53</ele>
        <time>2022-05-25 00:01:59</time>
      </trkpt>
      <trkpt lat="40.8268" lon="0.70823">
        <ele>53</ele>
        <time>2022-05-25 00:02:00</time>
      </trkpt>
      <trkpt lat="40.82683" lon="0.70823">
        <ele>53.2</ele>
        <time>2022-05-25 00:02:01</time>
      </trkpt>
      <trkpt lat="40.82686" lon="0.70824">
        <ele>53.4</ele>
        <time>2022-05-25 00:02:02</time>
      </trkpt>
      <trkpt lat="40.82689" lon="0.70825">
        <ele>53.4</ele>
        <time>2022-05-25 00:02:03</time>
      </trkpt>
      <trkpt lat="40.82693" lon="0.70826">
        <ele>53.4</ele>
        <time>2022-05-25 00:02:04</time>
      </trkpt>
      <trkpt lat="40.82697" lon="0.70826">
        <ele>53.6</ele>
        <time>2022-05-25 00:02:05</time>
      </trkpt>
      <trkpt lat="40.827" lon="0.70827">
        <ele>53.6</ele>
        <time>2022-05-25 00:02:06</time>
      </trkpt>
      <trkpt lat="40.82703" lon="0.70828">
        <ele>53.6</ele>
        <time>2022-05-25 00:02:07</time>
      </trkpt>
      <trkpt lat="40.82708" lon="0.7083">
        <ele>53.6</ele>
        <time>2022-05-25 00:02:08</time>
      </trkpt>
      <trkpt lat="40.82711" lon="0.70831">
        <ele>53.6</ele>
        <time>2022-05-25 00:02:09</time>
      </trkpt>
      <trkpt lat="40.82715" lon="0.70832">
        <ele>53.6</ele>
        <time>2022-05-25 00:02:10</time>
      </trkpt>
      <trkpt lat="40.82719" lon="0.70833">
        <ele>53.6</ele>
        <time>2022-05-25 00:02:11</time>
      </trkpt>
      <trkpt lat="40.82723" lon="0.70835">
        <ele>53.6</ele>
        <time>2022-05-25 00:02:12</time>
      </trkpt>
      <trkpt lat="40.82727" lon="0.70836">
        <ele>53.8</ele>
        <time>2022-05-25 00:02:13</time>
      </trkpt>
      <trkpt lat="40.8273" lon="0.70837">
        <ele>54</ele>
        <time>2022-05-25 00:02:14</time>
      </trkpt>
      <trkpt lat="40.82734" lon="0.70838">
        <ele>54</ele>
        <time>2022-05-25 00:02:15</time>
      </trkpt>
      <trkpt lat="40.82737" lon="0.70839">
        <ele>54.2</ele>
        <time>2022-05-25 00:02:16</time>
      </trkpt>
      <trkpt lat="40.82742" lon="0.7084">
        <ele>54.4</ele>
        <time>2022-05-25 00:02:17</time>
      </trkpt>
      <trkpt lat="40.82746" lon="0.70841">
        <ele>54.4</ele>
        <time>2022-05-25 00:02:18</time>
      </trkpt>
      <trkpt lat="40.8275" lon="0.70842">
        <ele>54.4</ele>
        <time>2022-05-25 00:02:19</time>
      </trkpt>
      <trkpt lat="40.82753" lon="0.70843">
        <ele>54.4</ele>
        <time>2022-05-25 00:02:20</time>
      </trkpt>
      <trkpt lat="40.82757" lon="0.70844">
        <ele>54.6</ele>
        <time>2022-05-25 00:02:21</time>
      </trkpt>
      <trkpt lat="40.82761" lon="0.70845">
        <ele>54.6</ele>
        <time>2022-05-25 00:02:22</time>
      </trkpt>
      <trkpt lat="40.82765" lon="0.70845">
        <ele>54.8</ele>
        <time>2022-05-25 00:02:23</time>
      </trkpt>
      <trkpt lat="40.82769" lon="0.70846">
        <ele>54.8</ele>
        <time>2022-05-25 00:02:24</time>
      </trkpt>
      <trkpt lat="40.82772" lon="0.70847">
        <ele>55</ele>
        <time>2022-05-25 00:02:25</time>
      </trkpt>
      <trkpt lat="40.82776" lon="0.70848">
        <ele>55.2</ele>
        <time>2022-05-25 00:02:26</time>
      </trkpt>
      <trkpt lat="40.82779" lon="0.70849">
        <ele>55.4</ele>
        <time>2022-05-25 00:02:27</time>
      </trkpt>
      <trkpt lat="40.82782" lon="0.7085">
        <ele>55.4</ele>
        <time>2022-05-25 00:02:28</time>
      </trkpt>
      <trkpt lat="40.82785" lon="0.70851">
        <ele>55.4</ele>
        <time>2022-05-25 00:02:29</time>
      </trkpt>
      <trkpt lat="40.82789" lon="0.70852">
        <ele>55.4</ele>
        <time>2022-05-25 00:02:30</time>
      </trkpt>
      <trkpt lat="40.82793" lon="0.70853">
        <ele>55.4</ele>
        <time>2022-05-25 00:02:31</time>
      </trkpt>
      <trkpt lat="40.82797" lon="0.70854">
        <ele>55.6</ele>
        <time>2022-05-25 00:02:32</time>
      </trkpt>
      <trkpt lat="40.82801" lon="0.70855">
        <ele>55.6</ele>
        <time>2022-05-25 00:02:33</time>
      </trkpt>
      <trkpt lat="40.82805" lon="0.70856">
        <ele>55.6</ele>
        <time>2022-05-25 00:02:34</time>
      </trkpt>
      <trkpt lat="40.82808" lon="0.70858">
        <ele>55.6</ele>
        <time>2022-05-25 00:02:35</time>
      </trkpt>
      <trkpt lat="40.82812" lon="0.70859">
        <ele>55.8</ele>
        <time>2022-05-25 00:02:36</time>
      </trkpt>
      <trkpt lat="40.82816" lon="0.7086">
        <ele>55.8</ele>
        <time>2022-05-25 00:02:37</time>
      </trkpt>
      <trkpt lat="40.8282" lon="0.70861">
        <ele>55.6</ele>
        <time>2022-05-25 00:02:38</time>
      </trkpt>
      <trkpt lat="40.82824" lon="0.70861">
        <ele>55.6</ele>
        <time>2022-05-25 00:02:39</time>
      </trkpt>
      <trkpt lat="40.82827" lon="0.70862">
        <ele>55.6</ele>
        <time>2022-05-25 00:02:40</time>
      </trkpt>
      <trkpt lat="40.82831" lon="0.70863">
        <ele>55.8</ele>
        <time>2022-05-25 00:02:41</time>
      </trkpt>
      <trkpt lat="40.82834" lon="0.70864">
        <ele>55.8</ele>
        <time>2022-05-25 00:02:42</time>
      </trkpt>
      <trkpt lat="40.82838" lon="0.70865">
        <ele>56</ele>
        <time>2022-05-25 00:02:43</time>
      </trkpt>
      <trkpt lat="40.82841" lon="0.70866">
        <ele>56</ele>
        <time>2022-05-25 00:02:44</time>
      </trkpt>
      <trkpt lat="40.82845" lon="0.70867">
        <ele>56</ele>
        <time>2022-05-25 00:02:45</time>
      </trkpt>
      <trkpt lat="40.82849" lon="0.70868">
        <ele>56.2</ele>
        <time>2022-05-25 00:02:46</time>
      </trkpt>
      <trkpt lat="40.82852" lon="0.70869">
        <ele>56.2</ele>
        <time>2022-05-25 00:02:47</time>
      </trkpt>
      <trkpt lat="40.82856" lon="0.7087">
        <ele>56.2</ele>
        <time>2022-05-25 00:02:48</time>
      </trkpt>
      <trkpt lat="40.82859" lon="0.70871">
        <ele>56.4</ele>
        <time>2022-05-25 00:02:49</time>
      </trkpt>
      <trkpt lat="40.82862" lon="0.70872">
        <ele>56.6</ele>
        <time>2022-05-25 00:02:50</time>
      </trkpt>
      <trkpt lat="40.82866" lon="0.70872">
        <ele>56.8</ele>
        <time>2022-05-25 00:02:51</time>
      </trkpt>
      <trkpt lat="40.82869" lon="0.70873">
        <ele>56.8</ele>
        <time>2022-05-25 00:02:52</time>
      </trkpt>
      <trkpt lat="40.82872" lon="0.70874">
        <ele>56.8</ele>
        <time>2022-05-25 00:02:53</time>
      </trkpt>
      <trkpt lat="40.82876" lon="0.70875">
        <ele>56.8</ele>
        <time>2022-05-25 00:02:54</time>
      </trkpt>
      <trkpt lat="40.82878" lon="0.70876">
        <ele>57</ele>
        <time>2022-05-25 00:02:55</time>
      </trkpt>
      <trkpt lat="40.82883" lon="0.70877">
        <ele>57</ele>
        <time>2022-05-25 00:02:56</time>
      </trkpt>
      <trkpt lat="40.82887" lon="0.70878">
        <ele>57.2</ele>
        <time>2022-05-25 00:02:57</time>
      </trkpt>
      <trkpt lat="40.8289" lon="0.70879">
        <ele>57.2</ele>
        <time>2022-05-25 00:02:58</time>
      </trkpt>
      <trkpt lat="40.82894" lon="0.7088">
        <ele>57.2</ele>
        <time>2022-05-25 00:02:59</time>
      </trkpt>
      <trkpt lat="40.82897" lon="0.70881">
        <ele>57.2</ele>
        <time>2022-05-25 00:03:00</time>
      </trkpt>
      <trkpt lat="40.82901" lon="0.70882">
        <ele>57.4</ele>
        <time>2022-05-25 00:03:01</time>
      </trkpt>
      <trkpt lat="40.82904" lon="0.70883">
        <ele>57.6</ele>
        <time>2022-05-25 00:03:02</time>
      </trkpt>
      <trkpt lat="40.82908" lon="0.70884">
        <ele>57.6</ele>
        <time>2022-05-25 00:03:03</time>
      </trkpt>
      <trkpt lat="40.82911" lon="0.70884">
        <ele>57.6</ele>
        <time>2022-05-25 00:03:04</time>
      </trkpt>
      <trkpt lat="40.82915" lon="0.70885">
        <ele>57.6</ele>
        <time>2022-05-25 00:03:05</time>
      </trkpt>
      <trkpt lat="40.82918" lon="0.70886">
        <ele>57.8</ele>
        <time>2022-05-25 00:03:06</time>
      </trkpt>
      <trkpt lat="40.82922" lon="0.70887">
        <ele>57.6</ele>
        <time>2022-05-25 00:03:07</time>
      </trkpt>
      <trkpt lat="40.82925" lon="0.70888">
        <ele>57.6</ele>
        <time>2022-05-25 00:03:08</time>
      </trkpt>
      <trkpt lat="40.82929" lon="0.70889">
        <ele>57.6</ele>
        <time>2022-05-25 00:03:09</time>
      </trkpt>
      <trkpt lat="40.82932" lon="0.7089">
        <ele>57.6</ele>
        <time>2022-05-25 00:03:10</time>
      </trkpt>
      <trkpt lat="40.82936" lon="0.70891">
        <ele>57.4</ele>
        <time>2022-05-25 00:03:11</time>
      </trkpt>
      <trkpt lat="40.82939" lon="0.70891">
        <ele>57.4</ele>
        <time>2022-05-25 00:03:12</time>
      </trkpt>
      <trkpt lat="40.82943" lon="0.70892">
        <ele>57.4</ele>
        <time>2022-05-25 00:03:13</time>
      </trkpt>
      <trkpt lat="40.82946" lon="0.70893">
        <ele>57.4</ele>
        <time>2022-05-25 00:03:14</time>
      </trkpt>
      <trkpt lat="40.82949" lon="0.70894">
        <ele>57.8</ele>
        <time>2022-05-25 00:03:15</time>
      </trkpt>
      <trkpt lat="40.82953" lon="0.70895">
        <ele>57.8</ele>
        <time>2022-05-25 00:03:16</time>
      </trkpt>
      <trkpt lat="40.82956" lon="0.70896">
        <ele>58</ele>
        <time>2022-05-25 00:03:17</time>
      </trkpt>
      <trkpt lat="40.8296" lon="0.70897">
        <ele>58.2</ele>
        <time>2022-05-25 00:03:18</time>
      </trkpt>
      <trkpt lat="40.82963" lon="0.70898">
        <ele>58.4</ele>
        <time>2022-05-25 00:03:19</time>
      </trkpt>
      <trkpt lat="40.82967" lon="0.70899">
        <ele>58.4</ele>
        <time>2022-05-25 00:03:20</time>
      </trkpt>
      <trkpt lat="40.8297" lon="0.709">
        <ele>58.4</ele>
        <time>2022-05-25 00:03:21</time>
      </trkpt>
      <trkpt lat="40.82974" lon="0.70901">
        <ele>58.6</ele>
        <time>2022-05-25 00:03:22</time>
      </trkpt>
      <trkpt lat="40.82977" lon="0.70902">
        <ele>58.6</ele>
        <time>2022-05-25 00:03:23</time>
      </trkpt>
      <trkpt lat="40.8298" lon="0.70903">
        <ele>58.6</ele>
        <time>2022-05-25 00:03:24</time>
      </trkpt>
      <trkpt lat="40.82984" lon="0.70903">
        <ele>58.6</ele>
        <time>2022-05-25 00:03:25</time>
      </trkpt>
      <trkpt lat="40.82987" lon="0.70904">
        <ele>58.8</ele>
        <time>2022-05-25 00:03:26</time>
      </trkpt>
      <trkpt lat="40.82991" lon="0.70905">
        <ele>58.8</ele>
        <time>2022-05-25 00:03:27</time>
      </trkpt>
      <trkpt lat="40.82994" lon="0.70906">
        <ele>58.8</ele>
        <time>2022-05-25 00:03:28</time>
      </trkpt>
      <trkpt lat="40.82998" lon="0.70907">
        <ele>58.8</ele>
        <time>2022-05-25 00:03:29</time>
      </trkpt>
      <trkpt lat="40.83001" lon="0.70908">
        <ele>58.8</ele>
        <time>2022-05-25 00:03:30</time>
      </trkpt>
      <trkpt lat="40.83004" lon="0.70909">
        <ele>59.2</ele>
        <time>2022-05-25 00:03:31</time>
      </trkpt>
      <trkpt lat="40.83008" lon="0.7091">
        <ele>59.2</ele>
        <time>2022-05-25 00:03:32</time>
      </trkpt>
      <trkpt lat="40.83011" lon="0.70911">
        <ele>59.2</ele>
        <time>2022-05-25 00:03:33</time>
      </trkpt>
      <trkpt lat="40.83015" lon="0.70912">
        <ele>59.2</ele>
        <time>2022-05-25 00:03:34</time>
      </trkpt>
      <trkpt lat="40.83018" lon="0.70912">
        <ele>59.2</ele>
        <time>2022-05-25 00:03:35</time>
      </trkpt>
      <trkpt lat="40.83022" lon="0.70913">
        <ele>59.4</ele>
        <time>2022-05-25 00:03:36</time>
      </trkpt>
      <trkpt lat="40.83025" lon="0.70914">
        <ele>59.4</ele>
        <time>2022-05-25 00:03:37</time>
      </trkpt>
      <trkpt lat="40.83028" lon="0.70915">
        <ele>59.6</ele>
        <time>2022-05-25 00:03:38</time>
      </trkpt>
      <trkpt lat="40.83031" lon="0.70916">
        <ele>59.6</ele>
        <time>2022-05-25 00:03:39</time>
      </trkpt>
      <trkpt lat="40.83035" lon="0.70916">
        <ele>59.6</ele>
        <time>2022-05-25 00:03:40</time>
      </trkpt>
      <trkpt lat="40.83038" lon="0.70917">
        <ele>59.6</ele>
        <time>2022-05-25 00:03:41</time>
      </trkpt>
      <trkpt lat="40.83041" lon="0.70918">
        <ele>59.6</ele>
        <time>2022-05-25 00:03:42</time>
      </trkpt>
      <trkpt lat="40.83044" lon="0.70919">
        <ele>59.8</ele>
        <time>2022-05-25 00:03:43</time>
      </trkpt>
      <trkpt lat="40.83048" lon="0.7092">
        <ele>59.8</ele>
        <time>2022-05-25 00:03:44</time>
      </trkpt>
      <trkpt lat="40.83051" lon="0.70921">
        <ele>59.8</ele>
        <time>2022-05-25 00:03:45</time>
      </trkpt>
      <trkpt lat="40.83054" lon="0.70921">
        <ele>60</ele>
        <time>2022-05-25 00:03:46</time>
      </trkpt>
      <trkpt lat="40.83058" lon="0.70922">
        <ele>60.2</ele>
        <time>2022-05-25 00:03:47</time>
      </trkpt>
      <trkpt lat="40.83062" lon="0.70923">
        <ele>60.4</ele>
        <time>2022-05-25 00:03:48</time>
      </trkpt>
      <trkpt lat="40.83065" lon="0.70924">
        <ele>60.4</ele>
        <time>2022-05-25 00:03:49</time>
      </trkpt>
      <trkpt lat="40.83069" lon="0.70925">
        <ele>60.4</ele>
        <time>2022-05-25 00:03:50</time>
      </trkpt>
      <trkpt lat="40.83073" lon="0.70926">
        <ele>60.4</ele>
        <time>2022-05-25 00:03:51</time>
      </trkpt>
      <trkpt lat="40.83076" lon="0.70927">
        <ele>60.6</ele>
        <time>2022-05-25 00:03:52</time>
      </trkpt>
      <trkpt lat="40.8308" lon="0.70928">
        <ele>60.6</ele>
        <time>2022-05-25 00:03:53</time>
      </trkpt>
      <trkpt lat="40.83084" lon="0.70928">
        <ele>60.8</ele>
        <time>2022-05-25 00:03:54</time>
      </trkpt>
      <trkpt lat="40.83087" lon="0.70929">
        <ele>60.6</ele>
        <time>2022-05-25 00:03:55</time>
      </trkpt>
      <trkpt lat="40.83091" lon="0.70931">
        <ele>60.4</ele>
        <time>2022-05-25 00:03:56</time>
      </trkpt>
      <trkpt lat="40.83094" lon="0.70932">
        <ele>60.6</ele>
        <time>2022-05-25 00:03:57</time>
      </trkpt>
      <trkpt lat="40.83098" lon="0.70933">
        <ele>60.6</ele>
        <time>2022-05-25 00:03:58</time>
      </trkpt>
      <trkpt lat="40.83102" lon="0.70934">
        <ele>61</ele>
        <time>2022-05-25 00:03:59</time>
      </trkpt>
      <trkpt lat="40.83105" lon="0.70934">
        <ele>61.4</ele>
        <time>2022-05-25 00:04:00</time>
      </trkpt>
      <trkpt lat="40.83108" lon="0.70935">
        <ele>61.2</ele>
        <time>2022-05-25 00:04:01</time>
      </trkpt>
      <trkpt lat="40.83113" lon="0.70936">
        <ele>61.2</ele>
        <time>2022-05-25 00:04:02</time>
      </trkpt>
      <trkpt lat="40.83116" lon="0.70937">
        <ele>61.4</ele>
        <time>2022-05-25 00:04:03</time>
      </trkpt>
      <trkpt lat="40.8312" lon="0.70938">
        <ele>61.6</ele>
        <time>2022-05-25 00:04:04</time>
      </trkpt>
      <trkpt lat="40.83123" lon="0.70939">
        <ele>61.8</ele>
        <time>2022-05-25 00:04:05</time>
      </trkpt>
      <trkpt lat="40.83127" lon="0.7094">
        <ele>61.8</ele>
        <time>2022-05-25 00:04:06</time>
      </trkpt>
      <trkpt lat="40.8313" lon="0.70941">
        <ele>61.8</ele>
        <time>2022-05-25 00:04:07</time>
      </trkpt>
      <trkpt lat="40.83134" lon="0.70942">
        <ele>61.8</ele>
        <time>2022-05-25 00:04:08</time>
      </trkpt>
      <trkpt lat="40.83137" lon="0.70943">
        <ele>61.6</ele>
        <time>2022-05-25 00:04:09</time>
      </trkpt>
      <trkpt lat="40.83141" lon="0.70944">
        <ele>61.6</ele>
        <time>2022-05-25 00:04:10</time>
      </trkpt>
      <trkpt lat="40.83144" lon="0.70944">
        <ele>61.6</ele>
        <time>2022-05-25 00:04:11</time>
      </trkpt>
      <trkpt lat="40.83147" lon="0.70945">
        <ele>61.6</ele>
        <time>2022-05-25 00:04:12</time>
      </trkpt>
      <trkpt lat="40.83151" lon="0.70946">
        <ele>61.6</ele>
        <time>2022-05-25 00:04:13</time>
      </trkpt>
      <trkpt lat="40.83155" lon="0.70947">
        <ele>61.8</ele>
        <time>2022-05-25 00:04:14</time>
      </trkpt>
      <trkpt lat="40.83158" lon="0.70948">
        <ele>61.8</ele>
        <time>2022-05-25 00:04:15</time>
      </trkpt>
      <trkpt lat="40.83162" lon="0.70949">
        <ele>62</ele>
        <time>2022-05-25 00:04:16</time>
      </trkpt>
      <trkpt lat="40.83166" lon="0.7095">
        <ele>62</ele>
        <time>2022-05-25 00:04:17</time>
      </trkpt>
      <trkpt lat="40.83169" lon="0.70951">
        <ele>62</ele>
        <time>2022-05-25 00:04:18</time>
      </trkpt>
      <trkpt lat="40.83173" lon="0.70952">
        <ele>62.2</ele>
        <time>2022-05-25 00:04:19</time>
      </trkpt>
      <trkpt lat="40.83176" lon="0.70953">
        <ele>62.2</ele>
        <time>2022-05-25 00:04:20</time>
      </trkpt>
      <trkpt lat="40.8318" lon="0.70954">
        <ele>62.6</ele>
        <time>2022-05-25 00:04:21</time>
      </trkpt>
      <trkpt lat="40.83183" lon="0.70954">
        <ele>62.6</ele>
        <time>2022-05-25 00:04:22</time>
      </trkpt>
      <trkpt lat="40.83187" lon="0.70955">
        <ele>62.6</ele>
        <time>2022-05-25 00:04:23</time>
      </trkpt>
      <trkpt lat="40.8319" lon="0.70956">
        <ele>62.8</ele>
        <time>2022-05-25 00:04:24</time>
      </trkpt>
      <trkpt lat="40.83194" lon="0.70957">
        <ele>62.8</ele>
        <time>2022-05-25 00:04:25</time>
      </trkpt>
      <trkpt lat="40.83197" lon="0.70958">
        <ele>62.8</ele>
        <time>2022-05-25 00:04:26</time>
      </trkpt>
      <trkpt lat="40.83201" lon="0.70959">
        <ele>62.8</ele>
        <time>2022-05-25 00:04:27</time>
      </trkpt>
      <trkpt lat="40.83204" lon="0.7096">
        <ele>62.8</ele>
        <time>2022-05-25 00:04:28</time>
      </trkpt>
      <trkpt lat="40.83208" lon="0.70961">
        <ele>62.8</ele>
        <time>2022-05-25 00:04:29</time>
      </trkpt>
      <trkpt lat="40.83212" lon="0.70962">
        <ele>62.8</ele>
        <time>2022-05-25 00:04:30</time>
      </trkpt>
      <trkpt lat="40.83215" lon="0.70963">
        <ele>63</ele>
        <time>2022-05-25 00:04:31</time>
      </trkpt>
      <trkpt lat="40.83219" lon="0.70964">
        <ele>63.2</ele>
        <time>2022-05-25 00:04:32</time>
      </trkpt>
      <trkpt lat="40.83222" lon="0.70965">
        <ele>63.2</ele>
        <time>2022-05-25 00:04:33</time>
      </trkpt>
      <trkpt lat="40.83226" lon="0.70966">
        <ele>63.4</ele>
        <time>2022-05-25 00:04:34</time>
      </trkpt>
      <trkpt lat="40.83229" lon="0.70966">
        <ele>63.4</ele>
        <time>2022-05-25 00:04:35</time>
      </trkpt>
      <trkpt lat="40.83232" lon="0.70967">
        <ele>63.6</ele>
        <time>2022-05-25 00:04:36</time>
      </trkpt>
      <trkpt lat="40.83236" lon="0.70968">
        <ele>63.8</ele>
        <time>2022-05-25 00:04:37</time>
      </trkpt>
      <trkpt lat="40.8324" lon="0.70969">
        <ele>63.8</ele>
        <time>2022-05-25 00:04:38</time>
      </trkpt>
      <trkpt lat="40.83243" lon="0.7097">
        <ele>64</ele>
        <time>2022-05-25 00:04:39</time>
      </trkpt>
      <trkpt lat="40.83247" lon="0.70971">
        <ele>64.2</ele>
        <time>2022-05-25 00:04:40</time>
      </trkpt>
      <trkpt lat="40.8325" lon="0.70972">
        <ele>64.2</ele>
        <time>2022-05-25 00:04:41</time>
      </trkpt>
      <trkpt lat="40.83254" lon="0.70973">
        <ele>64.4</ele>
        <time>2022-05-25 00:04:42</time>
      </trkpt>
      <trkpt lat="40.83258" lon="0.70974">
        <ele>64.6</ele>
        <time>2022-05-25 00:04:43</time>
      </trkpt>
      <trkpt lat="40.83262" lon="0.70975">
        <ele>64.8</ele>
        <time>2022-05-25 00:04:44</time>
      </trkpt>
      <trkpt lat="40.83265" lon="0.70976">
        <ele>64.8</ele>
        <time>2022-05-25 00:04:45</time>
      </trkpt>
      <trkpt lat="40.8327" lon="0.70977">
        <ele>64.8</ele>
        <time>2022-05-25 00:04:46</time>
      </trkpt>
      <trkpt lat="40.83273" lon="0.70979">
        <ele>64.8</ele>
        <time>2022-05-25 00:04:47</time>
      </trkpt>
      <trkpt lat="40.83277" lon="0.7098">
        <ele>65</ele>
        <time>2022-05-25 00:04:48</time>
      </trkpt>
      <trkpt lat="40.83281" lon="0.70981">
        <ele>65.4</ele>
        <time>2022-05-25 00:04:49</time>
      </trkpt>
      <trkpt lat="40.83285" lon="0.70982">
        <ele>65.2</ele>
        <time>2022-05-25 00:04:50</time>
      </trkpt>
      <trkpt lat="40.83289" lon="0.70983">
        <ele>65.4</ele>
        <time>2022-05-25 00:04:51</time>
      </trkpt>
      <trkpt lat="40.83292" lon="0.70983">
        <ele>65.4</ele>
        <time>2022-05-25 00:04:52</time>
      </trkpt>
      <trkpt lat="40.83296" lon="0.70984">
        <ele>65.4</ele>
        <time>2022-05-25 00:04:53</time>
      </trkpt>
      <trkpt lat="40.833" lon="0.70985">
        <ele>65.6</ele>
        <time>2022-05-25 00:04:54</time>
      </trkpt>
      <trkpt lat="40.83303" lon="0.70986">
        <ele>65.6</ele>
        <time>2022-05-25 00:04:55</time>
      </trkpt>
      <trkpt lat="40.83307" lon="0.70987">
        <ele>65.6</ele>
        <time>2022-05-25 00:04:56</time>
      </trkpt>
      <trkpt lat="40.83311" lon="0.70988">
        <ele>65.4</ele>
        <time>2022-05-25 00:04:57</time>
      </trkpt>
      <trkpt lat="40.83315" lon="0.70989">
        <ele>65.6</ele>
        <time>2022-05-25 00:04:58</time>
      </trkpt>
      <trkpt lat="40.83318" lon="0.7099">
        <ele>65.6</ele>
        <time>2022-05-25 00:04:59</time>
      </trkpt>
      <trkpt lat="40.83322" lon="0.70991">
        <ele>65.8</ele>
        <time>2022-05-25 00:05:00</time>
      </trkpt>
      <trkpt lat="40.83326" lon="0.70992">
        <ele>66</ele>
        <time>2022-05-25 00:05:01</time>
      </trkpt>
      <trkpt lat="40.8333" lon="0.70992">
        <ele>66.2</ele>
        <time>2022-05-25 00:05:02</time>
      </trkpt>
      <trkpt lat="40.83334" lon="0.70993">
        <ele>66.4</ele>
        <time>2022-05-25 00:05:03</time>
      </trkpt>
      <trkpt lat="40.83337" lon="0.70994">
        <ele>66.6</ele>
        <time>2022-05-25 00:05:04</time>
      </trkpt>
      <trkpt lat="40.83341" lon="0.70995">
        <ele>66.6</ele>
        <time>2022-05-25 00:05:05</time>
      </trkpt>
      <trkpt lat="40.83345" lon="0.70996">
        <ele>66.8</ele>
        <time>2022-05-25 00:05:06</time>
      </trkpt>
      <trkpt lat="40.83349" lon="0.70997">
        <ele>66.8</ele>
        <time>2022-05-25 00:05:07</time>
      </trkpt>
      <trkpt lat="40.83353" lon="0.70998">
        <ele>66.8</ele>
        <time>2022-05-25 00:05:08</time>
      </trkpt>
      <trkpt lat="40.83356" lon="0.70999">
        <ele>66.6</ele>
        <time>2022-05-25 00:05:09</time>
      </trkpt>
      <trkpt lat="40.8336" lon="0.71">
        <ele>66.6</ele>
        <time>2022-05-25 00:05:10</time>
      </trkpt>
      <trkpt lat="40.83364" lon="0.71001">
        <ele>66.6</ele>
        <time>2022-05-25 00:05:11</time>
      </trkpt>
      <trkpt lat="40.83368" lon="0.71002">
        <ele>66.6</ele>
        <time>2022-05-25 00:05:12</time>
      </trkpt>
      <trkpt lat="40.83372" lon="0.71003">
        <ele>66.6</ele>
        <time>2022-05-25 00:05:13</time>
      </trkpt>
      <trkpt lat="40.83376" lon="0.71004">
        <ele>66.6</ele>
        <time>2022-05-25 00:05:14</time>
      </trkpt>
      <trkpt lat="40.8338" lon="0.71005">
        <ele>66.6</ele>
        <time>2022-05-25 00:05:15</time>
      </trkpt>
      <trkpt lat="40.83384" lon="0.71006">
        <ele>66.8</ele>
        <time>2022-05-25 00:05:16</time>
      </trkpt>
      <trkpt lat="40.83387" lon="0.71007">
        <ele>66.8</ele>
        <time>2022-05-25 00:05:17</time>
      </trkpt>
      <trkpt lat="40.83391" lon="0.71008">
        <ele>66.8</ele>
        <time>2022-05-25 00:05:18</time>
      </trkpt>
      <trkpt lat="40.83394" lon="0.71009">
        <ele>66.8</ele>
        <time>2022-05-25 00:05:19</time>
      </trkpt>
      <trkpt lat="40.83399" lon="0.7101">
        <ele>67</ele>
        <time>2022-05-25 00:05:20</time>
      </trkpt>
      <trkpt lat="40.83403" lon="0.71011">
        <ele>66.8</ele>
        <time>2022-05-25 00:05:21</time>
      </trkpt>
      <trkpt lat="40.83406" lon="0.71012">
        <ele>66.8</ele>
        <time>2022-05-25 00:05:22</time>
      </trkpt>
      <trkpt lat="40.8341" lon="0.71013">
        <ele>67</ele>
        <time>2022-05-25 00:05:23</time>
      </trkpt>
      <trkpt lat="40.83414" lon="0.71014">
        <ele>67.2</ele>
        <time>2022-05-25 00:05:24</time>
      </trkpt>
      <trkpt lat="40.83418" lon="0.71015">
        <ele>67.4</ele>
        <time>2022-05-25 00:05:25</time>
      </trkpt>
      <trkpt lat="40.83422" lon="0.71015">
        <ele>67.4</ele>
        <time>2022-05-25 00:05:26</time>
      </trkpt>
      <trkpt lat="40.83425" lon="0.71016">
        <ele>67.4</ele>
        <time>2022-05-25 00:05:27</time>
      </trkpt>
      <trkpt lat="40.83428" lon="0.71017">
        <ele>67.6</ele>
        <time>2022-05-25 00:05:28</time>
      </trkpt>
      <trkpt lat="40.83431" lon="0.71018">
        <ele>67.8</ele>
        <time>2022-05-25 00:05:29</time>
      </trkpt>
      <trkpt lat="40.83434" lon="0.71019">
        <ele>68</ele>
        <time>2022-05-25 00:05:30</time>
      </trkpt>
      <trkpt lat="40.83436" lon="0.71019">
        <ele>68.2</ele>
        <time>2022-05-25 00:05:31</time>
      </trkpt>
      <trkpt lat="40.83439" lon="0.7102">
        <ele>68.2</ele>
        <time>2022-05-25 00:05:32</time>
      </trkpt>
      <trkpt lat="40.83441" lon="0.7102">
        <ele>68.6</ele>
        <time>2022-05-25 00:05:33</time>
      </trkpt>
      <trkpt lat="40.83443" lon="0.71021">
        <ele>68.6</ele>
        <time>2022-05-25 00:05:34</time>
      </trkpt>
      <trkpt lat="40.83446" lon="0.71022">
        <ele>68.8</ele>
        <time>2022-05-25 00:05:35</time>
      </trkpt>
      <trkpt lat="40.83448" lon="0.71023">
        <ele>68.6</ele>
        <time>2022-05-25 00:05:36</time>
      </trkpt>
      <trkpt lat="40.8345" lon="0.71023">
        <ele>68.6</ele>
        <time>2022-05-25 00:05:37</time>
      </trkpt>
      <trkpt lat="40.83453" lon="0.71024">
        <ele>68.6</ele>
        <time>2022-05-25 00:05:38</time>
      </trkpt>
      <trkpt lat="40.83455" lon="0.71025">
        <ele>68.6</ele>
        <time>2022-05-25 00:05:39</time>
      </trkpt>
      <trkpt lat="40.83458" lon="0.71026">
        <ele>68.8</ele>
        <time>2022-05-25 00:05:40</time>
      </trkpt>
      <trkpt lat="40.8346" lon="0.71026">
        <ele>69</ele>
        <time>2022-05-25 00:05:41</time>
      </trkpt>
      <trkpt lat="40.83462" lon="0.71027">
        <ele>69.2</ele>
        <time>2022-05-25 00:05:42</time>
      </trkpt>
      <trkpt lat="40.83464" lon="0.71027">
        <ele>69.4</ele>
        <time>2022-05-25 00:05:43</time>
      </trkpt>
      <trkpt lat="40.83467" lon="0.71028">
        <ele>69.6</ele>
        <time>2022-05-25 00:05:44</time>
      </trkpt>
      <trkpt lat="40.83471" lon="0.7103">
        <ele>69.6</ele>
        <time>2022-05-25 00:05:45</time>
      </trkpt>
      <trkpt lat="40.83474" lon="0.71031">
        <ele>69.6</ele>
        <time>2022-05-25 00:05:46</time>
      </trkpt>
      <trkpt lat="40.83477" lon="0.71031">
        <ele>69.6</ele>
        <time>2022-05-25 00:05:47</time>
      </trkpt>
      <trkpt lat="40.83481" lon="0.71032">
        <ele>69.8</ele>
        <time>2022-05-25 00:05:48</time>
      </trkpt>
      <trkpt lat="40.83485" lon="0.71033">
        <ele>69.8</ele>
        <time>2022-05-25 00:05:49</time>
      </trkpt>
      <trkpt lat="40.83489" lon="0.71034">
        <ele>70</ele>
        <time>2022-05-25 00:05:50</time>
      </trkpt>
      <trkpt lat="40.83493" lon="0.71036">
        <ele>70</ele>
        <time>2022-05-25 00:05:51</time>
      </trkpt>
      <trkpt lat="40.83497" lon="0.71037">
        <ele>70.2</ele>
        <time>2022-05-25 00:05:52</time>
      </trkpt>
      <trkpt lat="40.83501" lon="0.71038">
        <ele>69.8</ele>
        <time>2022-05-25 00:05:53</time>
      </trkpt>
      <trkpt lat="40.83505" lon="0.71039">
        <ele>70.2</ele>
        <time>2022-05-25 00:05:54</time>
      </trkpt>
      <trkpt lat="40.83509" lon="0.7104">
        <ele>70.6</ele>
        <time>2022-05-25 00:05:55</time>
      </trkpt>
      <trkpt lat="40.83513" lon="0.71041">
        <ele>71.2</ele>
        <time>2022-05-25 00:05:56</time>
      </trkpt>
      <trkpt lat="40.83517" lon="0.71043">
        <ele>71.4</ele>
        <time>2022-05-25 00:05:57</time>
      </trkpt>
      <trkpt lat="40.83522" lon="0.71044">
        <ele>71.6</ele>
        <time>2022-05-25 00:05:58</time>
      </trkpt>
      <trkpt lat="40.83525" lon="0.71045">
        <ele>71.6</ele>
        <time>2022-05-25 00:05:59</time>
      </trkpt>
      <trkpt lat="40.8353" lon="0.71046">
        <ele>71.8</ele>
        <time>2022-05-25 00:06:00</time>
      </trkpt>
      <trkpt lat="40.83534" lon="0.71048">
        <ele>72</ele>
        <time>2022-05-25 00:06:01</time>
      </trkpt>
      <trkpt lat="40.83538" lon="0.71049">
        <ele>72.2</ele>
        <time>2022-05-25 00:06:02</time>
      </trkpt>
      <trkpt lat="40.83542" lon="0.7105">
        <ele>72.4</ele>
        <time>2022-05-25 00:06:03</time>
      </trkpt>
      <trkpt lat="40.83546" lon="0.71051">
        <ele>72.8</ele>
        <time>2022-05-25 00:06:04</time>
      </trkpt>
      <trkpt lat="40.83551" lon="0.71052">
        <ele>72.8</ele>
        <time>2022-05-25 00:06:05</time>
      </trkpt>
      <trkpt lat="40.83555" lon="0.71053">
        <ele>73</ele>
        <time>2022-05-25 00:06:06</time>
      </trkpt>
      <trkpt lat="40.83559" lon="0.71054">
        <ele>73</ele>
        <time>2022-05-25 00:06:07</time>
      </trkpt>
      <trkpt lat="40.83563" lon="0.71055">
        <ele>73</ele>
        <time>2022-05-25 00:06:08</time>
      </trkpt>
      <trkpt lat="40.83568" lon="0.71056">
        <ele>73</ele>
        <time>2022-05-25 00:06:09</time>
      </trkpt>
      <trkpt lat="40.83572" lon="0.71057">
        <ele>73.2</ele>
        <time>2022-05-25 00:06:10</time>
      </trkpt>
      <trkpt lat="40.83576" lon="0.71058">
        <ele>73.4</ele>
        <time>2022-05-25 00:06:11</time>
      </trkpt>
      <trkpt lat="40.8358" lon="0.71059">
        <ele>73.4</ele>
        <time>2022-05-25 00:06:12</time>
      </trkpt>
      <trkpt lat="40.83585" lon="0.7106">
        <ele>73.4</ele>
        <time>2022-05-25 00:06:13</time>
      </trkpt>
      <trkpt lat="40.83589" lon="0.71061">
        <ele>73.4</ele>
        <time>2022-05-25 00:06:14</time>
      </trkpt>
      <trkpt lat="40.83593" lon="0.71062">
        <ele>73.6</ele>
        <time>2022-05-25 00:06:15</time>
      </trkpt>
      <trkpt lat="40.83597" lon="0.71064">
        <ele>73.8</ele>
        <time>2022-05-25 00:06:16</time>
      </trkpt>
      <trkpt lat="40.83601" lon="0.71065">
        <ele>74</ele>
        <time>2022-05-25 00:06:17</time>
      </trkpt>
      <trkpt lat="40.83606" lon="0.71066">
        <ele>74.2</ele>
        <time>2022-05-25 00:06:18</time>
      </trkpt>
      <trkpt lat="40.8361" lon="0.71067">
        <ele>74.2</ele>
        <time>2022-05-25 00:06:19</time>
      </trkpt>
      <trkpt lat="40.83614" lon="0.71068">
        <ele>74.2</ele>
        <time>2022-05-25 00:06:20</time>
      </trkpt>
      <trkpt lat="40.83619" lon="0.71069">
        <ele>74.2</ele>
        <time>2022-05-25 00:06:21</time>
      </trkpt>
      <trkpt lat="40.83622" lon="0.71069">
        <ele>74.2</ele>
        <time>2022-05-25 00:06:22</time>
      </trkpt>
      <trkpt lat="40.83627" lon="0.7107">
        <ele>74.6</ele>
        <time>2022-05-25 00:06:23</time>
      </trkpt>
      <trkpt lat="40.83631" lon="0.71072">
        <ele>75</ele>
        <time>2022-05-25 00:06:24</time>
      </trkpt>
      <trkpt lat="40.83635" lon="0.71073">
        <ele>75.2</ele>
        <time>2022-05-25 00:06:25</time>
      </trkpt>
      <trkpt lat="40.83639" lon="0.71075">
        <ele>75.2</ele>
        <time>2022-05-25 00:06:26</time>
      </trkpt>
      <trkpt lat="40.83643" lon="0.71076">
        <ele>75.2</ele>
        <time>2022-05-25 00:06:27</time>
      </trkpt>
      <trkpt lat="40.83647" lon="0.71077">
        <ele>75.2</ele>
        <time>2022-05-25 00:06:28</time>
      </trkpt>
      <trkpt lat="40.83651" lon="0.71078">
        <ele>75.2</ele>
        <time>2022-05-25 00:06:29</time>
      </trkpt>
      <trkpt lat="40.83656" lon="0.71079">
        <ele>75.4</ele>
        <time>2022-05-25 00:06:30</time>
      </trkpt>
      <trkpt lat="40.8366" lon="0.7108">
        <ele>75.2</ele>
        <time>2022-05-25 00:06:31</time>
      </trkpt>
      <trkpt lat="40.83664" lon="0.71081">
        <ele>75.2</ele>
        <time>2022-05-25 00:06:32</time>
      </trkpt>
      <trkpt lat="40.83668" lon="0.71081">
        <ele>75.2</ele>
        <time>2022-05-25 00:06:33</time>
      </trkpt>
      <trkpt lat="40.83672" lon="0.71082">
        <ele>75.6</ele>
        <time>2022-05-25 00:06:34</time>
      </trkpt>
      <trkpt lat="40.83676" lon="0.71083">
        <ele>76</ele>
        <time>2022-05-25 00:06:35</time>
      </trkpt>
      <trkpt lat="40.8368" lon="0.71084">
        <ele>76</ele>
        <time>2022-05-25 00:06:36</time>
      </trkpt>
      <trkpt lat="40.83684" lon="0.71084">
        <ele>76.2</ele>
        <time>2022-05-25 00:06:37</time>
      </trkpt>
      <trkpt lat="40.83688" lon="0.71084">
        <ele>76.2</ele>
        <time>2022-05-25 00:06:38</time>
      </trkpt>
      <trkpt lat="40.83692" lon="0.71085">
        <ele>76.2</ele>
        <time>2022-05-25 00:06:39</time>
      </trkpt>
      <trkpt lat="40.83696" lon="0.71085">
        <ele>76.2</ele>
        <time>2022-05-25 00:06:40</time>
      </trkpt>
      <trkpt lat="40.83701" lon="0.71086">
        <ele>76.2</ele>
        <time>2022-05-25 00:06:41</time>
      </trkpt>
      <trkpt lat="40.83705" lon="0.71087">
        <ele>76.6</ele>
        <time>2022-05-25 00:06:42</time>
      </trkpt>
      <trkpt lat="40.83708" lon="0.71088">
        <ele>76.8</ele>
        <time>2022-05-25 00:06:43</time>
      </trkpt>
      <trkpt lat="40.83713" lon="0.71089">
        <ele>77</ele>
        <time>2022-05-25 00:06:44</time>
      </trkpt>
      <trkpt lat="40.83717" lon="0.71091">
        <ele>77.2</ele>
        <time>2022-05-25 00:06:45</time>
      </trkpt>
      <trkpt lat="40.83721" lon="0.71092">
        <ele>77.2</ele>
        <time>2022-05-25 00:06:46</time>
      </trkpt>
      <trkpt lat="40.83725" lon="0.71093">
        <ele>77.2</ele>
        <time>2022-05-25 00:06:47</time>
      </trkpt>
      <trkpt lat="40.83729" lon="0.71094">
        <ele>77.2</ele>
        <time>2022-05-25 00:06:48</time>
      </trkpt>
      <trkpt lat="40.83733" lon="0.71095">
        <ele>77.2</ele>
        <time>2022-05-25 00:06:49</time>
      </trkpt>
      <trkpt lat="40.83738" lon="0.71097">
        <ele>77.2</ele>
        <time>2022-05-25 00:06:50</time>
      </trkpt>
      <trkpt lat="40.83742" lon="0.71099">
        <ele>77.2</ele>
        <time>2022-05-25 00:06:51</time>
      </trkpt>
      <trkpt lat="40.83746" lon="0.71101">
        <ele>77.2</ele>
        <time>2022-05-25 00:06:52</time>
      </trkpt>
      <trkpt lat="40.8375" lon="0.71102">
        <ele>77.4</ele>
        <time>2022-05-25 00:06:53</time>
      </trkpt>
      <trkpt lat="40.83755" lon="0.71104">
        <ele>77.4</ele>
        <time>2022-05-25 00:06:54</time>
      </trkpt>
      <trkpt lat="40.83759" lon="0.71105">
        <ele>77.4</ele>
        <time>2022-05-25 00:06:55</time>
      </trkpt>
      <trkpt lat="40.83763" lon="0.71106">
        <ele>77.2</ele>
        <time>2022-05-25 00:06:56</time>
      </trkpt>
      <trkpt lat="40.83768" lon="0.71107">
        <ele>77.2</ele>
        <time>2022-05-25 00:06:57</time>
      </trkpt>
      <trkpt lat="40.83772" lon="0.71108">
        <ele>77.4</ele>
        <time>2022-05-25 00:06:58</time>
      </trkpt>
      <trkpt lat="40.83776" lon="0.71109">
        <ele>77.6</ele>
        <time>2022-05-25 00:06:59</time>
      </trkpt>
      <trkpt lat="40.8378" lon="0.7111">
        <ele>78</ele>
        <time>2022-05-25 00:07:00</time>
      </trkpt>
      <trkpt lat="40.83784" lon="0.71111">
        <ele>78</ele>
        <time>2022-05-25 00:07:01</time>
      </trkpt>
      <trkpt lat="40.83788" lon="0.71112">
        <ele>78.2</ele>
        <time>2022-05-25 00:07:02</time>
      </trkpt>
      <trkpt lat="40.83792" lon="0.71112">
        <ele>78.2</ele>
        <time>2022-05-25 00:07:03</time>
      </trkpt>
      <trkpt lat="40.83796" lon="0.71113">
        <ele>78.2</ele>
        <time>2022-05-25 00:07:04</time>
      </trkpt>
      <trkpt lat="40.83801" lon="0.71115">
        <ele>78.4</ele>
        <time>2022-05-25 00:07:05</time>
      </trkpt>
      <trkpt lat="40.83805" lon="0.71116">
        <ele>78.6</ele>
        <time>2022-05-25 00:07:06</time>
      </trkpt>
      <trkpt lat="40.83809" lon="0.71117">
        <ele>78.8</ele>
        <time>2022-05-25 00:07:07</time>
      </trkpt>
      <trkpt lat="40.83814" lon="0.71118">
        <ele>78.8</ele>
        <time>2022-05-25 00:07:08</time>
      </trkpt>
      <trkpt lat="40.83818" lon="0.71118">
        <ele>78.8</ele>
        <time>2022-05-25 00:07:09</time>
      </trkpt>
      <trkpt lat="40.83822" lon="0.71119">
        <ele>78.6</ele>
        <time>2022-05-25 00:07:10</time>
      </trkpt>
      <trkpt lat="40.83826" lon="0.7112">
        <ele>78.4</ele>
        <time>2022-05-25 00:07:11</time>
      </trkpt>
      <trkpt lat="40.8383" lon="0.71121">
        <ele>78.4</ele>
        <time>2022-05-25 00:07:12</time>
      </trkpt>
      <trkpt lat="40.83834" lon="0.71122">
        <ele>78.6</ele>
        <time>2022-05-25 00:07:13</time>
      </trkpt>
      <trkpt lat="40.83839" lon="0.71123">
        <ele>79</ele>
        <time>2022-05-25 00:07:14</time>
      </trkpt>
      <trkpt lat="40.83842" lon="0.71124">
        <ele>79.2</ele>
        <time>2022-05-25 00:07:15</time>
      </trkpt>
      <trkpt lat="40.83847" lon="0.71125">
        <ele>79.2</ele>
        <time>2022-05-25 00:07:16</time>
      </trkpt>
      <trkpt lat="40.83851" lon="0.71126">
        <ele>79.4</ele>
        <time>2022-05-25 00:07:17</time>
      </trkpt>
      <trkpt lat="40.83855" lon="0.71126">
        <ele>79.6</ele>
        <time>2022-05-25 00:07:18</time>
      </trkpt>
      <trkpt lat="40.83859" lon="0.71127">
        <ele>79.8</ele>
        <time>2022-05-25 00:07:19</time>
      </trkpt>
      <trkpt lat="40.83863" lon="0.71128">
        <ele>79.8</ele>
        <time>2022-05-25 00:07:20</time>
      </trkpt>
      <trkpt lat="40.83868" lon="0.71129">
        <ele>79.8</ele>
        <time>2022-05-25 00:07:21</time>
      </trkpt>
      <trkpt lat="40.83872" lon="0.7113">
        <ele>79.8</ele>
        <time>2022-05-25 00:07:22</time>
      </trkpt>
      <trkpt lat="40.83876" lon="0.71131">
        <ele>79.6</ele>
        <time>2022-05-25 00:07:23</time>
      </trkpt>
      <trkpt lat="40.8388" lon="0.71131">
        <ele>79.6</ele>
        <time>2022-05-25 00:07:24</time>
      </trkpt>
      <trkpt lat="40.83884" lon="0.71131">
        <ele>79.8</ele>
        <time>2022-05-25 00:07:25</time>
      </trkpt>
      <trkpt lat="40.83888" lon="0.71132">
        <ele>79.8</ele>
        <time>2022-05-25 00:07:26</time>
      </trkpt>
      <trkpt lat="40.83892" lon="0.71132">
        <ele>80</ele>
        <time>2022-05-25 00:07:27</time>
      </trkpt>
      <trkpt lat="40.83896" lon="0.71133">
        <ele>80</ele>
        <time>2022-05-25 00:07:28</time>
      </trkpt>
      <trkpt lat="40.839" lon="0.71133">
        <ele>80.2</ele>
        <time>2022-05-25 00:07:29</time>
      </trkpt>
      <trkpt lat="40.83905" lon="0.71134">
        <ele>80.4</ele>
        <time>2022-05-25 00:07:30</time>
      </trkpt>
      <trkpt lat="40.83909" lon="0.71134">
        <ele>80.4</ele>
        <time>2022-05-25 00:07:31</time>
      </trkpt>
      <trkpt lat="40.83913" lon="0.71135">
        <ele>80.4</ele>
        <time>2022-05-25 00:07:32</time>
      </trkpt>
      <trkpt lat="40.83917" lon="0.71135">
        <ele>80.2</ele>
        <time>2022-05-25 00:07:33</time>
      </trkpt>
      <trkpt lat="40.83921" lon="0.71135">
        <ele>80.4</ele>
        <time>2022-05-25 00:07:34</time>
      </trkpt>
      <trkpt lat="40.83926" lon="0.71135">
        <ele>80.4</ele>
        <time>2022-05-25 00:07:35</time>
      </trkpt>
      <trkpt lat="40.83929" lon="0.71135">
        <ele>80.6</ele>
        <time>2022-05-25 00:07:36</time>
      </trkpt>
      <trkpt lat="40.83934" lon="0.71135">
        <ele>81</ele>
        <time>2022-05-25 00:07:37</time>
      </trkpt>
      <trkpt lat="40.83938" lon="0.71135">
        <ele>80.8</ele>
        <time>2022-05-25 00:07:38</time>
      </trkpt>
      <trkpt lat="40.83942" lon="0.71135">
        <ele>80.6</ele>
        <time>2022-05-25 00:07:39</time>
      </trkpt>
      <trkpt lat="40.83946" lon="0.71135">
        <ele>80.6</ele>
        <time>2022-05-25 00:07:40</time>
      </trkpt>
      <trkpt lat="40.8395" lon="0.71135">
        <ele>80.8</ele>
        <time>2022-05-25 00:07:41</time>
      </trkpt>
      <trkpt lat="40.83954" lon="0.71135">
        <ele>80.8</ele>
        <time>2022-05-25 00:07:42</time>
      </trkpt>
      <trkpt lat="40.83958" lon="0.71135">
        <ele>80.8</ele>
        <time>2022-05-25 00:07:43</time>
      </trkpt>
      <trkpt lat="40.83962" lon="0.71135">
        <ele>80.4</ele>
        <time>2022-05-25 00:07:44</time>
      </trkpt>
      <trkpt lat="40.83966" lon="0.71135">
        <ele>79.6</ele>
        <time>2022-05-25 00:07:45</time>
      </trkpt>
      <trkpt lat="40.8397" lon="0.71134">
        <ele>79</ele>
        <time>2022-05-25 00:07:46</time>
      </trkpt>
      <trkpt lat="40.83974" lon="0.71134">
        <ele>78.6</ele>
        <time>2022-05-25 00:07:47</time>
      </trkpt>
      <trkpt lat="40.83978" lon="0.71134">
        <ele>78.2</ele>
        <time>2022-05-25 00:07:48</time>
      </trkpt>
      <trkpt lat="40.83982" lon="0.71133">
        <ele>78</ele>
        <time>2022-05-25 00:07:49</time>
      </trkpt>
      <trkpt lat="40.83986" lon="0.71133">
        <ele>77.8</ele>
        <time>2022-05-25 00:07:50</time>
      </trkpt>
      <trkpt lat="40.8399" lon="0.71132">
        <ele>77.8</ele>
        <time>2022-05-25 00:07:51</time>
      </trkpt>
      <trkpt lat="40.83994" lon="0.71132">
        <ele>77.6</ele>
        <time>2022-05-25 00:07:52</time>
      </trkpt>
      <trkpt lat="40.83998" lon="0.71131">
        <ele>77.6</ele>
        <time>2022-05-25 00:07:53</time>
      </trkpt>
      <trkpt lat="40.84002" lon="0.71131">
        <ele>77.6</ele>
        <time>2022-05-25 00:07:54</time>
      </trkpt>
      <trkpt lat="40.84005" lon="0.71131">
        <ele>77.6</ele>
        <time>2022-05-25 00:07:55</time>
      </trkpt>
      <trkpt lat="40.8401" lon="0.71131">
        <ele>77.6</ele>
        <time>2022-05-25 00:07:56</time>
      </trkpt>
      <trkpt lat="40.84015" lon="0.7113">
        <ele>77.4</ele>
        <time>2022-05-25 00:07:57</time>
      </trkpt>
      <trkpt lat="40.84019" lon="0.7113">
        <ele>77.4</ele>
        <time>2022-05-25 00:07:58</time>
      </trkpt>
      <trkpt lat="40.84023" lon="0.71129">
        <ele>77.4</ele>
        <time>2022-05-25 00:07:59</time>
      </trkpt>
      <trkpt lat="40.84026" lon="0.71129">
        <ele>77.4</ele>
        <time>2022-05-25 00:08:00</time>
      </trkpt>
      <trkpt lat="40.8403" lon="0.71128">
        <ele>77.6</ele>
        <time>2022-05-25 00:08:01</time>
      </trkpt>
      <trkpt lat="40.84034" lon="0.71127">
        <ele>77.6</ele>
        <time>2022-05-25 00:08:02</time>
      </trkpt>
      <trkpt lat="40.84038" lon="0.71126">
        <ele>77.8</ele>
        <time>2022-05-25 00:08:03</time>
      </trkpt>
      <trkpt lat="40.84042" lon="0.71125">
        <ele>78</ele>
        <time>2022-05-25 00:08:04</time>
      </trkpt>
      <trkpt lat="40.84046" lon="0.71124">
        <ele>78.2</ele>
        <time>2022-05-25 00:08:05</time>
      </trkpt>
      <trkpt lat="40.8405" lon="0.71124">
        <ele>78.2</ele>
        <time>2022-05-25 00:08:06</time>
      </trkpt>
      <trkpt lat="40.84053" lon="0.71123">
        <ele>78.2</ele>
        <time>2022-05-25 00:08:07</time>
      </trkpt>
      <trkpt lat="40.84057" lon="0.71122">
        <ele>78.2</ele>
        <time>2022-05-25 00:08:08</time>
      </trkpt>
      <trkpt lat="40.84061" lon="0.71122">
        <ele>78.2</ele>
        <time>2022-05-25 00:08:09</time>
      </trkpt>
      <trkpt lat="40.84064" lon="0.71121">
        <ele>78.2</ele>
        <time>2022-05-25 00:08:10</time>
      </trkpt>
      <trkpt lat="40.84068" lon="0.7112">
        <ele>78.4</ele>
        <time>2022-05-25 00:08:11</time>
      </trkpt>
      <trkpt lat="40.84072" lon="0.71119">
        <ele>78.4</ele>
        <time>2022-05-25 00:08:12</time>
      </trkpt>
      <trkpt lat="40.84076" lon="0.71119">
        <ele>78.6</ele>
        <time>2022-05-25 00:08:13</time>
      </trkpt>
      <trkpt lat="40.84079" lon="0.71118">
        <ele>78.6</ele>
        <time>2022-05-25 00:08:14</time>
      </trkpt>
      <trkpt lat="40.84083" lon="0.71117">
        <ele>78.6</ele>
        <time>2022-05-25 00:08:15</time>
      </trkpt>
      <trkpt lat="40.84086" lon="0.71117">
        <ele>78.4</ele>
        <time>2022-05-25 00:08:16</time>
      </trkpt>
      <trkpt lat="40.8409" lon="0.71115">
        <ele>78.4</ele>
        <time>2022-05-25 00:08:17</time>
      </trkpt>
      <trkpt lat="40.84093" lon="0.71114">
        <ele>78.6</ele>
        <time>2022-05-25 00:08:18</time>
      </trkpt>
      <trkpt lat="40.84097" lon="0.71113">
        <ele>78.8</ele>
        <time>2022-05-25 00:08:19</time>
      </trkpt>
      <trkpt lat="40.841" lon="0.71112">
        <ele>79.2</ele>
        <time>2022-05-25 00:08:20</time>
      </trkpt>
      <trkpt lat="40.84103" lon="0.71111">
        <ele>79</ele>
        <time>2022-05-25 00:08:21</time>
      </trkpt>
      <trkpt lat="40.84106" lon="0.71111">
        <ele>78.8</ele>
        <time>2022-05-25 00:08:22</time>
      </trkpt>
      <trkpt lat="40.84109" lon="0.7111">
        <ele>79</ele>
        <time>2022-05-25 00:08:23</time>
      </trkpt>
      <trkpt lat="40.84113" lon="0.71109">
        <ele>79.4</ele>
        <time>2022-05-25 00:08:24</time>
      </trkpt>
      <trkpt lat="40.84116" lon="0.71108">
        <ele>79.6</ele>
        <time>2022-05-25 00:08:25</time>
      </trkpt>
      <trkpt lat="40.8412" lon="0.71108">
        <ele>79.8</ele>
        <time>2022-05-25 00:08:26</time>
      </trkpt>
      <trkpt lat="40.84124" lon="0.71107">
        <ele>79.8</ele>
        <time>2022-05-25 00:08:27</time>
      </trkpt>
      <trkpt lat="40.84128" lon="0.71108">
        <ele>79.8</ele>
        <time>2022-05-25 00:08:28</time>
      </trkpt>
      <trkpt lat="40.84132" lon="0.71108">
        <ele>79.6</ele>
        <time>2022-05-25 00:08:29</time>
      </trkpt>
      <trkpt lat="40.84135" lon="0.71109">
        <ele>79.6</ele>
        <time>2022-05-25 00:08:30</time>
      </trkpt>
      <trkpt lat="40.8414" lon="0.71109">
        <ele>79.8</ele>
        <time>2022-05-25 00:08:31</time>
      </trkpt>
      <trkpt lat="40.84143" lon="0.7111">
        <ele>79.8</ele>
        <time>2022-05-25 00:08:32</time>
      </trkpt>
      <trkpt lat="40.84147" lon="0.71111">
        <ele>79.8</ele>
        <time>2022-05-25 00:08:33</time>
      </trkpt>
      <trkpt lat="40.84151" lon="0.71112">
        <ele>79.4</ele>
        <time>2022-05-25 00:08:34</time>
      </trkpt>
      <trkpt lat="40.84156" lon="0.71113">
        <ele>79</ele>
        <time>2022-05-25 00:08:35</time>
      </trkpt>
      <trkpt lat="40.8416" lon="0.71114">
        <ele>79</ele>
        <time>2022-05-25 00:08:36</time>
      </trkpt>
      <trkpt lat="40.84165" lon="0.71115">
        <ele>79</ele>
        <time>2022-05-25 00:08:37</time>
      </trkpt>
      <trkpt lat="40.84171" lon="0.71116">
        <ele>78.6</ele>
        <time>2022-05-25 00:08:38</time>
      </trkpt>
      <trkpt lat="40.84177" lon="0.71117">
        <ele>78.4</ele>
        <time>2022-05-25 00:08:39</time>
      </trkpt>
      <trkpt lat="40.84183" lon="0.71118">
        <ele>78.4</ele>
        <time>2022-05-25 00:08:40</time>
      </trkpt>
      <trkpt lat="40.84189" lon="0.71119">
        <ele>78.2</ele>
        <time>2022-05-25 00:08:41</time>
      </trkpt>
      <trkpt lat="40.84196" lon="0.7112">
        <ele>77.8</ele>
        <time>2022-05-25 00:08:42</time>
      </trkpt>
      <trkpt lat="40.84203" lon="0.71122">
        <ele>77.2</ele>
        <time>2022-05-25 00:08:43</time>
      </trkpt>
      <trkpt lat="40.84211" lon="0.71123">
        <ele>77</ele>
        <time>2022-05-25 00:08:44</time>
      </trkpt>
      <trkpt lat="40.84218" lon="0.71125">
        <ele>76.6</ele>
        <time>2022-05-25 00:08:45</time>
      </trkpt>
      <trkpt lat="40.84225" lon="0.71127">
        <ele>76.2</ele>
        <time>2022-05-25 00:08:46</time>
      </trkpt>
      <trkpt lat="40.84232" lon="0.7113">
        <ele>75.8</ele>
        <time>2022-05-25 00:08:47</time>
      </trkpt>
      <trkpt lat="40.84238" lon="0.71133">
        <ele>75.4</ele>
        <time>2022-05-25 00:08:48</time>
      </trkpt>
      <trkpt lat="40.84244" lon="0.71137">
        <ele>75.2</ele>
        <time>2022-05-25 00:08:49</time>
      </trkpt>
      <trkpt lat="40.84249" lon="0.71142">
        <ele>75.2</ele>
        <time>2022-05-25 00:08:50</time>
      </trkpt>
      <trkpt lat="40.84254" lon="0.71146">
        <ele>75</ele>
        <time>2022-05-25 00:08:51</time>
      </trkpt>
      <trkpt lat="40.84259" lon="0.7115">
        <ele>75</ele>
        <time>2022-05-25 00:08:52</time>
      </trkpt>
      <trkpt lat="40.84264" lon="0.71153">
        <ele>74.8</ele>
        <time>2022-05-25 00:08:53</time>
      </trkpt>
      <trkpt lat="40.84269" lon="0.71156">
        <ele>75</ele>
        <time>2022-05-25 00:08:54</time>
      </trkpt>
      <trkpt lat="40.84273" lon="0.71158">
        <ele>74.8</ele>
        <time>2022-05-25 00:08:55</time>
      </trkpt>
      <trkpt lat="40.84277" lon="0.71159">
        <ele>74.8</ele>
        <time>2022-05-25 00:08:56</time>
      </trkpt>
      <trkpt lat="40.84282" lon="0.7116">
        <ele>75</ele>
        <time>2022-05-25 00:08:57</time>
      </trkpt>
      <trkpt lat="40.84286" lon="0.71161">
        <ele>75</ele>
        <time>2022-05-25 00:08:58</time>
      </trkpt>
      <trkpt lat="40.8429" lon="0.71162">
        <ele>75.4</ele>
        <time>2022-05-25 00:08:59</time>
      </trkpt>
      <trkpt lat="40.84293" lon="0.71162">
        <ele>75.6</ele>
        <time>2022-05-25 00:09:00</time>
      </trkpt>
      <trkpt lat="40.84296" lon="0.71162">
        <ele>75.8</ele>
        <time>2022-05-25 00:09:01</time>
      </trkpt>
      <trkpt lat="40.843" lon="0.71163">
        <ele>76</ele>
        <time>2022-05-25 00:09:02</time>
      </trkpt>
      <trkpt lat="40.84303" lon="0.71163">
        <ele>76</ele>
        <time>2022-05-25 00:09:03</time>
      </trkpt>
      <trkpt lat="40.84306" lon="0.71163">
        <ele>76</ele>
        <time>2022-05-25 00:09:04</time>
      </trkpt>
      <trkpt lat="40.84309" lon="0.71164">
        <ele>76</ele>
        <time>2022-05-25 00:09:05</time>
      </trkpt>
      <trkpt lat="40.84313" lon="0.71164">
        <ele>76</ele>
        <time>2022-05-25 00:09:06</time>
      </trkpt>
      <trkpt lat="40.84315" lon="0.71164">
        <ele>76.2</ele>
        <time>2022-05-25 00:09:07</time>
      </trkpt>
      <trkpt lat="40.84318" lon="0.71164">
        <ele>76.4</ele>
        <time>2022-05-25 00:09:08</time>
      </trkpt>
      <trkpt lat="40.84321" lon="0.71164">
        <ele>76.8</ele>
        <time>2022-05-25 00:09:09</time>
      </trkpt>
      <trkpt lat="40.84324" lon="0.71164">
        <ele>76.8</ele>
        <time>2022-05-25 00:09:10</time>
      </trkpt>
      <trkpt lat="40.84327" lon="0.71165">
        <ele>76.6</ele>
        <time>2022-05-25 00:09:11</time>
      </trkpt>
      <trkpt lat="40.84329" lon="0.71165">
        <ele>76.4</ele>
        <time>2022-05-25 00:09:12</time>
      </trkpt>
      <trkpt lat="40.84332" lon="0.71166">
        <ele>76.4</ele>
        <time>2022-05-25 00:09:13</time>
      </trkpt>
      <trkpt lat="40.84335" lon="0.71167">
        <ele>76.2</ele>
        <time>2022-05-25 00:09:14</time>
      </trkpt>
      <trkpt lat="40.84338" lon="0.71168">
        <ele>76.2</ele>
        <time>2022-05-25 00:09:15</time>
      </trkpt>
      <trkpt lat="40.84341" lon="0.71168">
        <ele>76</ele>
        <time>2022-05-25 00:09:16</time>
      </trkpt>
      <trkpt lat="40.84343" lon="0.71168">
        <ele>76</ele>
        <time>2022-05-25 00:09:17</time>
      </trkpt>
      <trkpt lat="40.84346" lon="0.71169">
        <ele>76.4</ele>
        <time>2022-05-25 00:09:18</time>
      </trkpt>
      <trkpt lat="40.84349" lon="0.71169">
        <ele>76.6</ele>
        <time>2022-05-25 00:09:19</time>
      </trkpt>
      <trkpt lat="40.84351" lon="0.7117">
        <ele>77</ele>
        <time>2022-05-25 00:09:20</time>
      </trkpt>
      <trkpt lat="40.84354" lon="0.7117">
        <ele>77.2</ele>
        <time>2022-05-25 00:09:21</time>
      </trkpt>
      <trkpt lat="40.84357" lon="0.71171">
        <ele>77.4</ele>
        <time>2022-05-25 00:09:22</time>
      </trkpt>
      <trkpt lat="40.84359" lon="0.71172">
        <ele>77.4</ele>
        <time>2022-05-25 00:09:23</time>
      </trkpt>
      <trkpt lat="40.84361" lon="0.71172">
        <ele>77.8</ele>
        <time>2022-05-25 00:09:24</time>
      </trkpt>
      <trkpt lat="40.84364" lon="0.71172">
        <ele>77.8</ele>
        <time>2022-05-25 00:09:25</time>
      </trkpt>
      <trkpt lat="40.84365" lon="0.71173">
        <ele>78</ele>
        <time>2022-05-25 00:09:26</time>
      </trkpt>
      <trkpt lat="40.84367" lon="0.71173">
        <ele>78.6</ele>
        <time>2022-05-25 00:09:27</time>
      </trkpt>
      <trkpt lat="40.8437" lon="0.71174">
        <ele>78.6</ele>
        <time>2022-05-25 00:09:28</time>
      </trkpt>
      <trkpt lat="40.84372" lon="0.71174">
        <ele>78.6</ele>
        <time>2022-05-25 00:09:29</time>
      </trkpt>
      <trkpt lat="40.84373" lon="0.71174">
        <ele>78.8</ele>
        <time>2022-05-25 00:09:30</time>
      </trkpt>
      <trkpt lat="40.84375" lon="0.71174">
        <ele>79</ele>
        <time>2022-05-25 00:09:31</time>
      </trkpt>
      <trkpt lat="40.84377" lon="0.71175">
        <ele>79.4</ele>
        <time>2022-05-25 00:09:32</time>
      </trkpt>
      <trkpt lat="40.84378" lon="0.71175">
        <ele>79.8</ele>
        <time>2022-05-25 00:09:33</time>
      </trkpt>
      <trkpt lat="40.84381" lon="0.71176">
        <ele>79.8</ele>
        <time>2022-05-25 00:09:34</time>
      </trkpt>
      <trkpt lat="40.84383" lon="0.71176">
        <ele>80</ele>
        <time>2022-05-25 00:09:35</time>
      </trkpt>
      <trkpt lat="40.84385" lon="0.71177">
        <ele>79.6</ele>
        <time>2022-05-25 00:09:36</time>
      </trkpt>
      <trkpt lat="40.84387" lon="0.71178">
        <ele>79.6</ele>
        <time>2022-05-25 00:09:37</time>
      </trkpt>
      <trkpt lat="40.84389" lon="0.71178">
        <ele>79.4</ele>
        <time>2022-05-25 00:09:38</time>
      </trkpt>
      <trkpt lat="40.84391" lon="0.71178">
        <ele>79.4</ele>
        <time>2022-05-25 00:09:39</time>
      </trkpt>
      <trkpt lat="40.84394" lon="0.71178">
        <ele>79.6</ele>
        <time>2022-05-25 00:09:40</time>
      </trkpt>
      <trkpt lat="40.84396" lon="0.71178">
        <ele>79.6</ele>
        <time>2022-05-25 00:09:41</time>
      </trkpt>
      <trkpt lat="40.84398" lon="0.71178">
        <ele>79.8</ele>
        <time>2022-05-25 00:09:42</time>
      </trkpt>
      <trkpt lat="40.844" lon="0.71179">
        <ele>80</ele>
        <time>2022-05-25 00:09:43</time>
      </trkpt>
      <trkpt lat="40.84402" lon="0.71179">
        <ele>80</ele>
        <time>2022-05-25 00:09:44</time>
      </trkpt>
      <trkpt lat="40.84405" lon="0.7118">
        <ele>80.2</ele>
        <time>2022-05-25 00:09:45</time>
      </trkpt>
      <trkpt lat="40.84407" lon="0.7118">
        <ele>80.2</ele>
        <time>2022-05-25 00:09:46</time>
      </trkpt>
      <trkpt lat="40.84409" lon="0.71181">
        <ele>80.4</ele>
        <time>2022-05-25 00:09:47</time>
      </trkpt>
      <trkpt lat="40.84411" lon="0.71181">
        <ele>80.8</ele>
        <time>2022-05-25 00:09:48</time>
      </trkpt>
      <trkpt lat="40.84414" lon="0.71182">
        <ele>81</ele>
        <time>2022-05-25 00:09:49</time>
      </trkpt>
      <trkpt lat="40.84417" lon="0.71183">
        <ele>81</ele>
        <time>2022-05-25 00:09:50</time>
      </trkpt>
      <trkpt lat="40.84419" lon="0.71183">
        <ele>81</ele>
        <time>2022-05-25 00:09:51</time>
      </trkpt>
      <trkpt lat="40.84421" lon="0.71184">
        <ele>81.2</ele>
        <time>2022-05-25 00:09:52</time>
      </trkpt>
      <trkpt lat="40.84423" lon="0.71185">
        <ele>81.2</ele>
        <time>2022-05-25 00:09:53</time>
      </trkpt>
      <trkpt lat="40.84426" lon="0.71185">
        <ele>81.4</ele>
        <time>2022-05-25 00:09:54</time>
      </trkpt>
      <trkpt lat="40.84428" lon="0.71186">
        <ele>81.8</ele>
        <time>2022-05-25 00:09:55</time>
      </trkpt>
      <trkpt lat="40.8443" lon="0.71186">
        <ele>81.8</ele>
        <time>2022-05-25 00:09:56</time>
      </trkpt>
      <trkpt lat="40.84432" lon="0.71187">
        <ele>82</ele>
        <time>2022-05-25 00:09:57</time>
      </trkpt>
      <trkpt lat="40.84435" lon="0.71187">
        <ele>82</ele>
        <time>2022-05-25 00:09:58</time>
      </trkpt>
      <trkpt lat="40.84437" lon="0.71188">
        <ele>82</ele>
        <time>2022-05-25 00:09:59</time>
      </trkpt>
      <trkpt lat="40.84439" lon="0.71188">
        <ele>82</ele>
        <time>2022-05-25 00:10:00</time>
      </trkpt>
      <trkpt lat="40.84441" lon="0.71189">
        <ele>82</ele>
        <time>2022-05-25 00:10:01</time>
      </trkpt>
      <trkpt lat="40.84444" lon="0.71189">
        <ele>82</ele>
        <time>2022-05-25 00:10:02</time>
      </trkpt>
      <trkpt lat="40.84446" lon="0.71189">
        <ele>81.8</ele>
        <time>2022-05-25 00:10:03</time>
      </trkpt>
      <trkpt lat="40.84448" lon="0.71189">
        <ele>82</ele>
        <time>2022-05-25 00:10:04</time>
      </trkpt>
      <trkpt lat="40.8445" lon="0.71189">
        <ele>82.2</ele>
        <time>2022-05-25 00:10:05</time>
      </trkpt>
      <trkpt lat="40.84452" lon="0.71189">
        <ele>82.6</ele>
        <time>2022-05-25 00:10:06</time>
      </trkpt>
      <trkpt lat="40.84454" lon="0.71189">
        <ele>82.8</ele>
        <time>2022-05-25 00:10:07</time>
      </trkpt>
      <trkpt lat="40.84456" lon="0.71189">
        <ele>83.2</ele>
        <time>2022-05-25 00:10:08</time>
      </trkpt>
      <trkpt lat="40.84458" lon="0.71189">
        <ele>83.2</ele>
        <time>2022-05-25 00:10:09</time>
      </trkpt>
      <trkpt lat="40.8446" lon="0.71189">
        <ele>83.4</ele>
        <time>2022-05-25 00:10:10</time>
      </trkpt>
      <trkpt lat="40.84462" lon="0.71189">
        <ele>83.4</ele>
        <time>2022-05-25 00:10:11</time>
      </trkpt>
      <trkpt lat="40.84464" lon="0.71189">
        <ele>84</ele>
        <time>2022-05-25 00:10:12</time>
      </trkpt>
      <trkpt lat="40.84466" lon="0.71189">
        <ele>84.4</ele>
        <time>2022-05-25 00:10:13</time>
      </trkpt>
      <trkpt lat="40.84469" lon="0.71189">
        <ele>84.4</ele>
        <time>2022-05-25 00:10:14</time>
      </trkpt>
      <trkpt lat="40.84471" lon="0.7119">
        <ele>84.4</ele>
        <time>2022-05-25 00:10:15</time>
      </trkpt>
      <trkpt lat="40.84473" lon="0.7119">
        <ele>84.8</ele>
        <time>2022-05-25 00:10:16</time>
      </trkpt>
      <trkpt lat="40.84475" lon="0.7119">
        <ele>85</ele>
        <time>2022-05-25 00:10:17</time>
      </trkpt>
      <trkpt lat="40.84477" lon="0.71191">
        <ele>85</ele>
        <time>2022-05-25 00:10:18</time>
      </trkpt>
      <trkpt lat="40.8448" lon="0.71191">
        <ele>84.8</ele>
        <time>2022-05-25 00:10:19</time>
      </trkpt>
      <trkpt lat="40.84481" lon="0.7119">
        <ele>84.8</ele>
        <time>2022-05-25 00:10:20</time>
      </trkpt>
      <trkpt lat="40.84484" lon="0.7119">
        <ele>85</ele>
        <time>2022-05-25 00:10:21</time>
      </trkpt>
      <trkpt lat="40.84486" lon="0.7119">
        <ele>85.2</ele>
        <time>2022-05-25 00:10:22</time>
      </trkpt>
      <trkpt lat="40.84488" lon="0.7119">
        <ele>85.2</ele>
        <time>2022-05-25 00:10:23</time>
      </trkpt>
      <trkpt lat="40.8449" lon="0.7119">
        <ele>85.2</ele>
        <time>2022-05-25 00:10:24</time>
      </trkpt>
      <trkpt lat="40.84492" lon="0.71191">
        <ele>85.4</ele>
        <time>2022-05-25 00:10:25</time>
      </trkpt>
      <trkpt lat="40.84495" lon="0.71191">
        <ele>85.6</ele>
        <time>2022-05-25 00:10:26</time>
      </trkpt>
      <trkpt lat="40.84497" lon="0.71192">
        <ele>85.8</ele>
        <time>2022-05-25 00:10:27</time>
      </trkpt>
      <trkpt lat="40.84499" lon="0.71192">
        <ele>85.8</ele>
        <time>2022-05-25 00:10:28</time>
      </trkpt>
      <trkpt lat="40.84501" lon="0.71192">
        <ele>85.8</ele>
        <time>2022-05-25 00:10:29</time>
      </trkpt>
      <trkpt lat="40.84504" lon="0.71192">
        <ele>86</ele>
        <time>2022-05-25 00:10:30</time>
      </trkpt>
      <trkpt lat="40.84506" lon="0.71193">
        <ele>86.2</ele>
        <time>2022-05-25 00:10:31</time>
      </trkpt>
      <trkpt lat="40.84508" lon="0.71193">
        <ele>86.2</ele>
        <time>2022-05-25 00:10:32</time>
      </trkpt>
      <trkpt lat="40.8451" lon="0.71193">
        <ele>86.4</ele>
        <time>2022-05-25 00:10:33</time>
      </trkpt>
      <trkpt lat="40.84512" lon="0.71193">
        <ele>86.4</ele>
        <time>2022-05-25 00:10:34</time>
      </trkpt>
      <trkpt lat="40.84515" lon="0.71193">
        <ele>86.6</ele>
        <time>2022-05-25 00:10:35</time>
      </trkpt>
      <trkpt lat="40.84517" lon="0.71193">
        <ele>86.4</ele>
        <time>2022-05-25 00:10:36</time>
      </trkpt>
      <trkpt lat="40.84519" lon="0.71193">
        <ele>86.4</ele>
        <time>2022-05-25 00:10:37</time>
      </trkpt>
      <trkpt lat="40.84521" lon="0.71192">
        <ele>86.6</ele>
        <time>2022-05-25 00:10:38</time>
      </trkpt>
      <trkpt lat="40.84523" lon="0.71193">
        <ele>86.8</ele>
        <time>2022-05-25 00:10:39</time>
      </trkpt>
      <trkpt lat="40.84525" lon="0.71193">
        <ele>87</ele>
        <time>2022-05-25 00:10:40</time>
      </trkpt>
      <trkpt lat="40.84527" lon="0.71193">
        <ele>87</ele>
        <time>2022-05-25 00:10:41</time>
      </trkpt>
      <trkpt lat="40.84529" lon="0.71194">
        <ele>87.2</ele>
        <time>2022-05-25 00:10:42</time>
      </trkpt>
      <trkpt lat="40.84532" lon="0.71194">
        <ele>87.6</ele>
        <time>2022-05-25 00:10:43</time>
      </trkpt>
      <trkpt lat="40.84534" lon="0.71194">
        <ele>87.4</ele>
        <time>2022-05-25 00:10:44</time>
      </trkpt>
      <trkpt lat="40.84536" lon="0.71194">
        <ele>87.6</ele>
        <time>2022-05-25 00:10:45</time>
      </trkpt>
      <trkpt lat="40.84538" lon="0.71194">
        <ele>87.8</ele>
        <time>2022-05-25 00:10:46</time>
      </trkpt>
      <trkpt lat="40.8454" lon="0.71194">
        <ele>88.2</ele>
        <time>2022-05-25 00:10:47</time>
      </trkpt>
      <trkpt lat="40.84542" lon="0.71194">
        <ele>88.4</ele>
        <time>2022-05-25 00:10:48</time>
      </trkpt>
      <trkpt lat="40.84544" lon="0.71194">
        <ele>88.6</ele>
        <time>2022-05-25 00:10:49</time>
      </trkpt>
      <trkpt lat="40.84546" lon="0.71194">
        <ele>88.8</ele>
        <time>2022-05-25 00:10:50</time>
      </trkpt>
      <trkpt lat="40.84548" lon="0.71194">
        <ele>89</ele>
        <time>2022-05-25 00:10:51</time>
      </trkpt>
      <trkpt lat="40.8455" lon="0.71195">
        <ele>89.2</ele>
        <time>2022-05-25 00:10:52</time>
      </trkpt>
      <trkpt lat="40.84552" lon="0.71195">
        <ele>89.2</ele>
        <time>2022-05-25 00:10:53</time>
      </trkpt>
      <trkpt lat="40.84554" lon="0.71195">
        <ele>89.6</ele>
        <time>2022-05-25 00:10:54</time>
      </trkpt>
      <trkpt lat="40.84556" lon="0.71195">
        <ele>89.6</ele>
        <time>2022-05-25 00:10:55</time>
      </trkpt>
      <trkpt lat="40.84559" lon="0.71196">
        <ele>89.8</ele>
        <time>2022-05-25 00:10:56</time>
      </trkpt>
      <trkpt lat="40.84561" lon="0.71196">
        <ele>90</ele>
        <time>2022-05-25 00:10:57</time>
      </trkpt>
      <trkpt lat="40.84563" lon="0.71196">
        <ele>90</ele>
        <time>2022-05-25 00:10:58</time>
      </trkpt>
      <trkpt lat="40.84565" lon="0.71196">
        <ele>89.8</ele>
        <time>2022-05-25 00:10:59</time>
      </trkpt>
      <trkpt lat="40.84568" lon="0.71196">
        <ele>89.8</ele>
        <time>2022-05-25 00:11:00</time>
      </trkpt>
      <trkpt lat="40.8457" lon="0.71196">
        <ele>90</ele>
        <time>2022-05-25 00:11:01</time>
      </trkpt>
      <trkpt lat="40.84572" lon="0.71197">
        <ele>90.2</ele>
        <time>2022-05-25 00:11:02</time>
      </trkpt>
      <trkpt lat="40.84575" lon="0.71198">
        <ele>90.4</ele>
        <time>2022-05-25 00:11:03</time>
      </trkpt>
      <trkpt lat="40.84577" lon="0.71198">
        <ele>90.6</ele>
        <time>2022-05-25 00:11:04</time>
      </trkpt>
      <trkpt lat="40.84579" lon="0.71199">
        <ele>90.8</ele>
        <time>2022-05-25 00:11:05</time>
      </trkpt>
      <trkpt lat="40.84581" lon="0.712">
        <ele>91.4</ele>
        <time>2022-05-25 00:11:06</time>
      </trkpt>
      <trkpt lat="40.84584" lon="0.71201">
        <ele>91.2</ele>
        <time>2022-05-25 00:11:07</time>
      </trkpt>
      <trkpt lat="40.84586" lon="0.71202">
        <ele>91.2</ele>
        <time>2022-05-25 00:11:08</time>
      </trkpt>
      <trkpt lat="40.84589" lon="0.71203">
        <ele>91.4</ele>
        <time>2022-05-25 00:11:09</time>
      </trkpt>
      <trkpt lat="40.84591" lon="0.71204">
        <ele>91.4</ele>
        <time>2022-05-25 00:11:10</time>
      </trkpt>
      <trkpt lat="40.84593" lon="0.71205">
        <ele>91.4</ele>
        <time>2022-05-25 00:11:11</time>
      </trkpt>
      <trkpt lat="40.84595" lon="0.71206">
        <ele>91.6</ele>
        <time>2022-05-25 00:11:12</time>
      </trkpt>
      <trkpt lat="40.84598" lon="0.71207">
        <ele>91.6</ele>
        <time>2022-05-25 00:11:13</time>
      </trkpt>
      <trkpt lat="40.84601" lon="0.71208">
        <ele>91.6</ele>
        <time>2022-05-25 00:11:14</time>
      </trkpt>
      <trkpt lat="40.84604" lon="0.71209">
        <ele>91.2</ele>
        <time>2022-05-25 00:11:15</time>
      </trkpt>
      <trkpt lat="40.84606" lon="0.7121">
        <ele>91</ele>
        <time>2022-05-25 00:11:16</time>
      </trkpt>
      <trkpt lat="40.84609" lon="0.71212">
        <ele>91</ele>
        <time>2022-05-25 00:11:17</time>
      </trkpt>
      <trkpt lat="40.84612" lon="0.71213">
        <ele>91</ele>
        <time>2022-05-25 00:11:18</time>
      </trkpt>
      <trkpt lat="40.84615" lon="0.71215">
        <ele>91</ele>
        <time>2022-05-25 00:11:19</time>
      </trkpt>
      <trkpt lat="40.84618" lon="0.71216">
        <ele>91</ele>
        <time>2022-05-25 00:11:20</time>
      </trkpt>
      <trkpt lat="40.84621" lon="0.71218">
        <ele>91</ele>
        <time>2022-05-25 00:11:21</time>
      </trkpt>
      <trkpt lat="40.84624" lon="0.71219">
        <ele>91.2</ele>
        <time>2022-05-25 00:11:22</time>
      </trkpt>
      <trkpt lat="40.84628" lon="0.7122">
        <ele>91.4</ele>
        <time>2022-05-25 00:11:23</time>
      </trkpt>
      <trkpt lat="40.84631" lon="0.71221">
        <ele>91.4</ele>
        <time>2022-05-25 00:11:24</time>
      </trkpt>
      <trkpt lat="40.84634" lon="0.71223">
        <ele>91.4</ele>
        <time>2022-05-25 00:11:25</time>
      </trkpt>
      <trkpt lat="40.84637" lon="0.71224">
        <ele>91.4</ele>
        <time>2022-05-25 00:11:26</time>
      </trkpt>
      <trkpt lat="40.84641" lon="0.71225">
        <ele>91.4</ele>
        <time>2022-05-25 00:11:27</time>
      </trkpt>
      <trkpt lat="40.84644" lon="0.71226">
        <ele>91.4</ele>
        <time>2022-05-25 00:11:28</time>
      </trkpt>
      <trkpt lat="40.84647" lon="0.71227">
        <ele>91.6</ele>
        <time>2022-05-25 00:11:29</time>
      </trkpt>
      <trkpt lat="40.8465" lon="0.71228">
        <ele>91.4</ele>
        <time>2022-05-25 00:11:30</time>
      </trkpt>
      <trkpt lat="40.84653" lon="0.71228">
        <ele>91.6</ele>
        <time>2022-05-25 00:11:31</time>
      </trkpt>
      <trkpt lat="40.84656" lon="0.71229">
        <ele>91.6</ele>
        <time>2022-05-25 00:11:32</time>
      </trkpt>
      <trkpt lat="40.8466" lon="0.71229">
        <ele>91.6</ele>
        <time>2022-05-25 00:11:33</time>
      </trkpt>
      <trkpt lat="40.84663" lon="0.7123">
        <ele>91.6</ele>
        <time>2022-05-25 00:11:34</time>
      </trkpt>
      <trkpt lat="40.84666" lon="0.7123">
        <ele>91.6</ele>
        <time>2022-05-25 00:11:35</time>
      </trkpt>
      <trkpt lat="40.84669" lon="0.71229">
        <ele>91.8</ele>
        <time>2022-05-25 00:11:36</time>
      </trkpt>
      <trkpt lat="40.84673" lon="0.7123">
        <ele>91.8</ele>
        <time>2022-05-25 00:11:37</time>
      </trkpt>
      <trkpt lat="40.84676" lon="0.7123">
        <ele>92.2</ele>
        <time>2022-05-25 00:11:38</time>
      </trkpt>
      <trkpt lat="40.84679" lon="0.7123">
        <ele>92.4</ele>
        <time>2022-05-25 00:11:39</time>
      </trkpt>
      <trkpt lat="40.84682" lon="0.71229">
        <ele>92.4</ele>
        <time>2022-05-25 00:11:40</time>
      </trkpt>
      <trkpt lat="40.84686" lon="0.71229">
        <ele>92.8</ele>
        <time>2022-05-25 00:11:41</time>
      </trkpt>
      <trkpt lat="40.84689" lon="0.71229">
        <ele>92.6</ele>
        <time>2022-05-25 00:11:42</time>
      </trkpt>
      <trkpt lat="40.84692" lon="0.71229">
        <ele>92.4</ele>
        <time>2022-05-25 00:11:43</time>
      </trkpt>
      <trkpt lat="40.84695" lon="0.71229">
        <ele>92.4</ele>
        <time>2022-05-25 00:11:44</time>
      </trkpt>
      <trkpt lat="40.84698" lon="0.71229">
        <ele>93.2</ele>
        <time>2022-05-25 00:11:45</time>
      </trkpt>
      <trkpt lat="40.84702" lon="0.7123">
        <ele>94.2</ele>
        <time>2022-05-25 00:11:46</time>
      </trkpt>
      <trkpt lat="40.84705" lon="0.71231">
        <ele>94.4</ele>
        <time>2022-05-25 00:11:47</time>
      </trkpt>
      <trkpt lat="40.84707" lon="0.71232">
        <ele>95.4</ele>
        <time>2022-05-25 00:11:48</time>
      </trkpt>
      <trkpt lat="40.8471" lon="0.71233">
        <ele>95.6</ele>
        <time>2022-05-25 00:11:49</time>
      </trkpt>
      <trkpt lat="40.84713" lon="0.71235">
        <ele>95.6</ele>
        <time>2022-05-25 00:11:50</time>
      </trkpt>
      <trkpt lat="40.84715" lon="0.71236">
        <ele>95.6</ele>
        <time>2022-05-25 00:11:51</time>
      </trkpt>
      <trkpt lat="40.84717" lon="0.71237">
        <ele>95.6</ele>
        <time>2022-05-25 00:11:52</time>
      </trkpt>
      <trkpt lat="40.8472" lon="0.71238">
        <ele>95.6</ele>
        <time>2022-05-25 00:11:53</time>
      </trkpt>
      <trkpt lat="40.84724" lon="0.71239">
        <ele>95.4</ele>
        <time>2022-05-25 00:11:54</time>
      </trkpt>
      <trkpt lat="40.84727" lon="0.71241">
        <ele>95.6</ele>
        <time>2022-05-25 00:11:55</time>
      </trkpt>
      <trkpt lat="40.8473" lon="0.71242">
        <ele>95.4</ele>
        <time>2022-05-25 00:11:56</time>
      </trkpt>
      <trkpt lat="40.84734" lon="0.71244">
        <ele>95.8</ele>
        <time>2022-05-25 00:11:57</time>
      </trkpt>
      <trkpt lat="40.84737" lon="0.71245">
        <ele>95.8</ele>
        <time>2022-05-25 00:11:58</time>
      </trkpt>
      <trkpt lat="40.84739" lon="0.71245">
        <ele>96</ele>
        <time>2022-05-25 00:11:59</time>
      </trkpt>
      <trkpt lat="40.84742" lon="0.71246">
        <ele>96</ele>
        <time>2022-05-25 00:12:00</time>
      </trkpt>
      <trkpt lat="40.84745" lon="0.71248">
        <ele>96</ele>
        <time>2022-05-25 00:12:01</time>
      </trkpt>
      <trkpt lat="40.84748" lon="0.71249">
        <ele>96.2</ele>
        <time>2022-05-25 00:12:02</time>
      </trkpt>
      <trkpt lat="40.84751" lon="0.71251">
        <ele>96.2</ele>
        <time>2022-05-25 00:12:03</time>
      </trkpt>
      <trkpt lat="40.84754" lon="0.71252">
        <ele>96.2</ele>
        <time>2022-05-25 00:12:04</time>
      </trkpt>
      <trkpt lat="40.84757" lon="0.71253">
        <ele>96.4</ele>
        <time>2022-05-25 00:12:05</time>
      </trkpt>
      <trkpt lat="40.8476" lon="0.71254">
        <ele>96.8</ele>
        <time>2022-05-25 00:12:06</time>
      </trkpt>
      <trkpt lat="40.84763" lon="0.71256">
        <ele>96.8</ele>
        <time>2022-05-25 00:12:07</time>
      </trkpt>
      <trkpt lat="40.84766" lon="0.71257">
        <ele>97</ele>
        <time>2022-05-25 00:12:08</time>
      </trkpt>
      <trkpt lat="40.84769" lon="0.71259">
        <ele>97</ele>
        <time>2022-05-25 00:12:09</time>
      </trkpt>
      <trkpt lat="40.84772" lon="0.7126">
        <ele>97</ele>
        <time>2022-05-25 00:12:10</time>
      </trkpt>
      <trkpt lat="40.84776" lon="0.71262">
        <ele>97</ele>
        <time>2022-05-25 00:12:11</time>
      </trkpt>
      <trkpt lat="40.84779" lon="0.71263">
        <ele>97</ele>
        <time>2022-05-25 00:12:12</time>
      </trkpt>
      <trkpt lat="40.84782" lon="0.71265">
        <ele>97.2</ele>
        <time>2022-05-25 00:12:13</time>
      </trkpt>
      <trkpt lat="40.84785" lon="0.71266">
        <ele>97.4</ele>
        <time>2022-05-25 00:12:14</time>
      </trkpt>
      <trkpt lat="40.84789" lon="0.71268">
        <ele>97.2</ele>
        <time>2022-05-25 00:12:15</time>
      </trkpt>
      <trkpt lat="40.84792" lon="0.71269">
        <ele>97.2</ele>
        <time>2022-05-25 00:12:16</time>
      </trkpt>
      <trkpt lat="40.84795" lon="0.71271">
        <ele>97</ele>
        <time>2022-05-25 00:12:17</time>
      </trkpt>
      <trkpt lat="40.84798" lon="0.71272">
        <ele>97</ele>
        <time>2022-05-25 00:12:18</time>
      </trkpt>
      <trkpt lat="40.84801" lon="0.71274">
        <ele>97</ele>
        <time>2022-05-25 00:12:19</time>
      </trkpt>
      <trkpt lat="40.84804" lon="0.71276">
        <ele>97.2</ele>
        <time>2022-05-25 00:12:20</time>
      </trkpt>
      <trkpt lat="40.84807" lon="0.71278">
        <ele>97.2</ele>
        <time>2022-05-25 00:12:21</time>
      </trkpt>
      <trkpt lat="40.84809" lon="0.7128">
        <ele>97.6</ele>
        <time>2022-05-25 00:12:22</time>
      </trkpt>
      <trkpt lat="40.84813" lon="0.71282">
        <ele>97.8</ele>
        <time>2022-05-25 00:12:23</time>
      </trkpt>
      <trkpt lat="40.84816" lon="0.71284">
        <ele>97.8</ele>
        <time>2022-05-25 00:12:24</time>
      </trkpt>
      <trkpt lat="40.84818" lon="0.71286">
        <ele>97.8</ele>
        <time>2022-05-25 00:12:25</time>
      </trkpt>
      <trkpt lat="40.84821" lon="0.71288">
        <ele>97.8</ele>
        <time>2022-05-25 00:12:26</time>
      </trkpt>
      <trkpt lat="40.84824" lon="0.7129">
        <ele>97.8</ele>
        <time>2022-05-25 00:12:27</time>
      </trkpt>
      <trkpt lat="40.84827" lon="0.71292">
        <ele>98</ele>
        <time>2022-05-25 00:12:28</time>
      </trkpt>
      <trkpt lat="40.8483" lon="0.71293">
        <ele>98.2</ele>
        <time>2022-05-25 00:12:29</time>
      </trkpt>
      <trkpt lat="40.84833" lon="0.71295">
        <ele>98.2</ele>
        <time>2022-05-25 00:12:30</time>
      </trkpt>
      <trkpt lat="40.84836" lon="0.71297">
        <ele>98</ele>
        <time>2022-05-25 00:12:31</time>
      </trkpt>
      <trkpt lat="40.84838" lon="0.71298">
        <ele>98.4</ele>
        <time>2022-05-25 00:12:32</time>
      </trkpt>
      <trkpt lat="40.84842" lon="0.713">
        <ele>98.4</ele>
        <time>2022-05-25 00:12:33</time>
      </trkpt>
      <trkpt lat="40.84845" lon="0.71302">
        <ele>98.4</ele>
        <time>2022-05-25 00:12:34</time>
      </trkpt>
      <trkpt lat="40.84848" lon="0.71304">
        <ele>98.4</ele>
        <time>2022-05-25 00:12:35</time>
      </trkpt>
      <trkpt lat="40.84851" lon="0.71306">
        <ele>98.6</ele>
        <time>2022-05-25 00:12:36</time>
      </trkpt>
      <trkpt lat="40.84854" lon="0.71308">
        <ele>98.8</ele>
        <time>2022-05-25 00:12:37</time>
      </trkpt>
      <trkpt lat="40.84857" lon="0.7131">
        <ele>99</ele>
        <time>2022-05-25 00:12:38</time>
      </trkpt>
      <trkpt lat="40.8486" lon="0.71311">
        <ele>99</ele>
        <time>2022-05-25 00:12:39</time>
      </trkpt>
      <trkpt lat="40.84863" lon="0.71312">
        <ele>99.2</ele>
        <time>2022-05-25 00:12:40</time>
      </trkpt>
      <trkpt lat="40.84866" lon="0.71313">
        <ele>99.2</ele>
        <time>2022-05-25 00:12:41</time>
      </trkpt>
      <trkpt lat="40.84869" lon="0.71314">
        <ele>99.6</ele>
        <time>2022-05-25 00:12:42</time>
      </trkpt>
      <trkpt lat="40.84873" lon="0.71315">
        <ele>99.6</ele>
        <time>2022-05-25 00:12:43</time>
      </trkpt>
      <trkpt lat="40.84876" lon="0.71316">
        <ele>99.8</ele>
        <time>2022-05-25 00:12:44</time>
      </trkpt>
      <trkpt lat="40.84879" lon="0.71316">
        <ele>99.8</ele>
        <time>2022-05-25 00:12:45</time>
      </trkpt>
      <trkpt lat="40.84883" lon="0.71317">
        <ele>99.8</ele>
        <time>2022-05-25 00:12:46</time>
      </trkpt>
      <trkpt lat="40.84886" lon="0.71316">
        <ele>99.8</ele>
        <time>2022-05-25 00:12:47</time>
      </trkpt>
      <trkpt lat="40.84889" lon="0.71316">
        <ele>99.8</ele>
        <time>2022-05-25 00:12:48</time>
      </trkpt>
      <trkpt lat="40.84893" lon="0.71316">
        <ele>100</ele>
        <time>2022-05-25 00:12:49</time>
      </trkpt>
      <trkpt lat="40.84896" lon="0.71316">
        <ele>100</ele>
        <time>2022-05-25 00:12:50</time>
      </trkpt>
      <trkpt lat="40.84899" lon="0.71316">
        <ele>100</ele>
        <time>2022-05-25 00:12:51</time>
      </trkpt>
      <trkpt lat="40.84903" lon="0.71317">
        <ele>99.8</ele>
        <time>2022-05-25 00:12:52</time>
      </trkpt>
      <trkpt lat="40.84906" lon="0.71317">
        <ele>99.8</ele>
        <time>2022-05-25 00:12:53</time>
      </trkpt>
      <trkpt lat="40.84909" lon="0.71317">
        <ele>100</ele>
        <time>2022-05-25 00:12:54</time>
      </trkpt>
      <trkpt lat="40.84912" lon="0.71317">
        <ele>100.2</ele>
        <time>2022-05-25 00:12:55</time>
      </trkpt>
      <trkpt lat="40.84916" lon="0.71317">
        <ele>100.4</ele>
        <time>2022-05-25 00:12:56</time>
      </trkpt>
      <trkpt lat="40.84919" lon="0.71316">
        <ele>100.2</ele>
        <time>2022-05-25 00:12:57</time>
      </trkpt>
      <trkpt lat="40.84922" lon="0.71316">
        <ele>100.4</ele>
        <time>2022-05-25 00:12:58</time>
      </trkpt>
      <trkpt lat="40.84926" lon="0.71315">
        <ele>100.8</ele>
        <time>2022-05-25 00:12:59</time>
      </trkpt>
      <trkpt lat="40.84929" lon="0.71315">
        <ele>100.8</ele>
        <time>2022-05-25 00:13:00</time>
      </trkpt>
      <trkpt lat="40.84933" lon="0.71315">
        <ele>100.8</ele>
        <time>2022-05-25 00:13:01</time>
      </trkpt>
      <trkpt lat="40.84937" lon="0.71314">
        <ele>100.8</ele>
        <time>2022-05-25 00:13:02</time>
      </trkpt>
      <trkpt lat="40.8494" lon="0.71314">
        <ele>100.6</ele>
        <time>2022-05-25 00:13:03</time>
      </trkpt>
      <trkpt lat="40.84943" lon="0.71313">
        <ele>101</ele>
        <time>2022-05-25 00:13:04</time>
      </trkpt>
      <trkpt lat="40.84947" lon="0.71312">
        <ele>101</ele>
        <time>2022-05-25 00:13:05</time>
      </trkpt>
      <trkpt lat="40.8495" lon="0.71311">
        <ele>101.4</ele>
        <time>2022-05-25 00:13:06</time>
      </trkpt>
      <trkpt lat="40.84953" lon="0.7131">
        <ele>101.4</ele>
        <time>2022-05-25 00:13:07</time>
      </trkpt>
      <trkpt lat="40.84957" lon="0.7131">
        <ele>101.4</ele>
        <time>2022-05-25 00:13:08</time>
      </trkpt>
      <trkpt lat="40.8496" lon="0.7131">
        <ele>101.4</ele>
        <time>2022-05-25 00:13:09</time>
      </trkpt>
      <trkpt lat="40.84963" lon="0.7131">
        <ele>101.2</ele>
        <time>2022-05-25 00:13:10</time>
      </trkpt>
      <trkpt lat="40.84966" lon="0.71309">
        <ele>101.2</ele>
        <time>2022-05-25 00:13:11</time>
      </trkpt>
      <trkpt lat="40.84969" lon="0.71309">
        <ele>101.4</ele>
        <time>2022-05-25 00:13:12</time>
      </trkpt>
      <trkpt lat="40.84972" lon="0.71308">
        <ele>101.4</ele>
        <time>2022-05-25 00:13:13</time>
      </trkpt>
      <trkpt lat="40.84975" lon="0.71308">
        <ele>101.4</ele>
        <time>2022-05-25 00:13:14</time>
      </trkpt>
      <trkpt lat="40.84978" lon="0.71307">
        <ele>101.6</ele>
        <time>2022-05-25 00:13:15</time>
      </trkpt>
      <trkpt lat="40.84981" lon="0.71307">
        <ele>102</ele>
        <time>2022-05-25 00:13:16</time>
      </trkpt>
      <trkpt lat="40.84984" lon="0.71307">
        <ele>102.2</ele>
        <time>2022-05-25 00:13:17</time>
      </trkpt>
      <trkpt lat="40.84987" lon="0.71307">
        <ele>102.4</ele>
        <time>2022-05-25 00:13:18</time>
      </trkpt>
      <trkpt lat="40.8499" lon="0.71306">
        <ele>102.4</ele>
        <time>2022-05-25 00:13:19</time>
      </trkpt>
      <trkpt lat="40.84993" lon="0.71306">
        <ele>102.4</ele>
        <time>2022-05-25 00:13:20</time>
      </trkpt>
      <trkpt lat="40.84996" lon="0.71306">
        <ele>102.6</ele>
        <time>2022-05-25 00:13:21</time>
      </trkpt>
      <trkpt lat="40.84999" lon="0.71306">
        <ele>102.6</ele>
        <time>2022-05-25 00:13:22</time>
      </trkpt>
      <trkpt lat="40.85002" lon="0.71307">
        <ele>102.8</ele>
        <time>2022-05-25 00:13:23</time>
      </trkpt>
      <trkpt lat="40.85005" lon="0.71309">
        <ele>102.8</ele>
        <time>2022-05-25 00:13:24</time>
      </trkpt>
      <trkpt lat="40.85008" lon="0.71311">
        <ele>103</ele>
        <time>2022-05-25 00:13:25</time>
      </trkpt>
      <trkpt lat="40.85011" lon="0.71313">
        <ele>103.2</ele>
        <time>2022-05-25 00:13:26</time>
      </trkpt>
      <trkpt lat="40.85013" lon="0.71316">
        <ele>103.4</ele>
        <time>2022-05-25 00:13:27</time>
      </trkpt>
      <trkpt lat="40.85015" lon="0.7132">
        <ele>103.4</ele>
        <time>2022-05-25 00:13:28</time>
      </trkpt>
      <trkpt lat="40.85017" lon="0.71322">
        <ele>103.4</ele>
        <time>2022-05-25 00:13:29</time>
      </trkpt>
      <trkpt lat="40.85019" lon="0.71325">
        <ele>103.4</ele>
        <time>2022-05-25 00:13:30</time>
      </trkpt>
      <trkpt lat="40.85021" lon="0.71328">
        <ele>103.4</ele>
        <time>2022-05-25 00:13:31</time>
      </trkpt>
      <trkpt lat="40.85024" lon="0.71331">
        <ele>103.6</ele>
        <time>2022-05-25 00:13:32</time>
      </trkpt>
      <trkpt lat="40.85027" lon="0.71333">
        <ele>103.8</ele>
        <time>2022-05-25 00:13:33</time>
      </trkpt>
      <trkpt lat="40.85029" lon="0.71335">
        <ele>103.8</ele>
        <time>2022-05-25 00:13:34</time>
      </trkpt>
      <trkpt lat="40.85032" lon="0.71336">
        <ele>104</ele>
        <time>2022-05-25 00:13:35</time>
      </trkpt>
      <trkpt lat="40.85035" lon="0.71337">
        <ele>104.2</ele>
        <time>2022-05-25 00:13:36</time>
      </trkpt>
      <trkpt lat="40.85038" lon="0.71338">
        <ele>104</ele>
        <time>2022-05-25 00:13:37</time>
      </trkpt>
      <trkpt lat="40.8504" lon="0.71338">
        <ele>104</ele>
        <time>2022-05-25 00:13:38</time>
      </trkpt>
      <trkpt lat="40.85043" lon="0.71339">
        <ele>103.8</ele>
        <time>2022-05-25 00:13:39</time>
      </trkpt>
      <trkpt lat="40.85046" lon="0.71339">
        <ele>103.6</ele>
        <time>2022-05-25 00:13:40</time>
      </trkpt>
      <trkpt lat="40.85049" lon="0.71339">
        <ele>103.6</ele>
        <time>2022-05-25 00:13:41</time>
      </trkpt>
      <trkpt lat="40.85051" lon="0.71338">
        <ele>103.6</ele>
        <time>2022-05-25 00:13:42</time>
      </trkpt>
      <trkpt lat="40.85054" lon="0.71337">
        <ele>103.6</ele>
        <time>2022-05-25 00:13:43</time>
      </trkpt>
      <trkpt lat="40.85057" lon="0.71336">
        <ele>103.6</ele>
        <time>2022-05-25 00:13:44</time>
      </trkpt>
      <trkpt lat="40.8506" lon="0.71335">
        <ele>103.8</ele>
        <time>2022-05-25 00:13:45</time>
      </trkpt>
      <trkpt lat="40.85063" lon="0.71334">
        <ele>104</ele>
        <time>2022-05-25 00:13:46</time>
      </trkpt>
      <trkpt lat="40.85065" lon="0.71333">
        <ele>104.2</ele>
        <time>2022-05-25 00:13:47</time>
      </trkpt>
      <trkpt lat="40.85068" lon="0.71331">
        <ele>104.4</ele>
        <time>2022-05-25 00:13:48</time>
      </trkpt>
      <trkpt lat="40.85071" lon="0.7133">
        <ele>104.4</ele>
        <time>2022-05-25 00:13:49</time>
      </trkpt>
      <trkpt lat="40.85074" lon="0.7133">
        <ele>104.8</ele>
        <time>2022-05-25 00:13:50</time>
      </trkpt>
      <trkpt lat="40.85077" lon="0.71329">
        <ele>105</ele>
        <time>2022-05-25 00:13:51</time>
      </trkpt>
      <trkpt lat="40.85079" lon="0.71329">
        <ele>105</ele>
        <time>2022-05-25 00:13:52</time>
      </trkpt>
      <trkpt lat="40.85082" lon="0.71328">
        <ele>105</ele>
        <time>2022-05-25 00:13:53</time>
      </trkpt>
      <trkpt lat="40.85085" lon="0.71328">
        <ele>105</ele>
        <time>2022-05-25 00:13:54</time>
      </trkpt>
      <trkpt lat="40.85087" lon="0.71327">
        <ele>105.2</ele>
        <time>2022-05-25 00:13:55</time>
      </trkpt>
      <trkpt lat="40.8509" lon="0.71327">
        <ele>105.4</ele>
        <time>2022-05-25 00:13:56</time>
      </trkpt>
      <trkpt lat="40.85093" lon="0.71326">
        <ele>105.8</ele>
        <time>2022-05-25 00:13:57</time>
      </trkpt>
      <trkpt lat="40.85096" lon="0.71325">
        <ele>106.2</ele>
        <time>2022-05-25 00:13:58</time>
      </trkpt>
      <trkpt lat="40.85099" lon="0.71325">
        <ele>106.4</ele>
        <time>2022-05-25 00:13:59</time>
      </trkpt>
      <trkpt lat="40.85101" lon="0.71325">
        <ele>106.8</ele>
        <time>2022-05-25 00:14:00</time>
      </trkpt>
      <trkpt lat="40.85103" lon="0.71324">
        <ele>106.8</ele>
        <time>2022-05-25 00:14:01</time>
      </trkpt>
      <trkpt lat="40.85106" lon="0.71324">
        <ele>107.4</ele>
        <time>2022-05-25 00:14:02</time>
      </trkpt>
      <trkpt lat="40.85108" lon="0.71324">
        <ele>107.6</ele>
        <time>2022-05-25 00:14:03</time>
      </trkpt>
      <trkpt lat="40.8511" lon="0.71324">
        <ele>107.6</ele>
        <time>2022-05-25 00:14:04</time>
      </trkpt>
      <trkpt lat="40.85113" lon="0.71324">
        <ele>107.6</ele>
        <time>2022-05-25 00:14:05</time>
      </trkpt>
      <trkpt lat="40.85115" lon="0.71324">
        <ele>107.8</ele>
        <time>2022-05-25 00:14:06</time>
      </trkpt>
      <trkpt lat="40.85118" lon="0.71324">
        <ele>108</ele>
        <time>2022-05-25 00:14:07</time>
      </trkpt>
      <trkpt lat="40.85121" lon="0.71324">
        <ele>108.2</ele>
        <time>2022-05-25 00:14:08</time>
      </trkpt>
      <trkpt lat="40.85123" lon="0.71323">
        <ele>108.4</ele>
        <time>2022-05-25 00:14:09</time>
      </trkpt>
      <trkpt lat="40.85125" lon="0.71323">
        <ele>108.6</ele>
        <time>2022-05-25 00:14:10</time>
      </trkpt>
      <trkpt lat="40.85128" lon="0.71322">
        <ele>108.8</ele>
        <time>2022-05-25 00:14:11</time>
      </trkpt>
      <trkpt lat="40.8513" lon="0.71322">
        <ele>109.2</ele>
        <time>2022-05-25 00:14:12</time>
      </trkpt>
      <trkpt lat="40.85133" lon="0.71322">
        <ele>109.4</ele>
        <time>2022-05-25 00:14:13</time>
      </trkpt>
      <trkpt lat="40.85135" lon="0.71321">
        <ele>109.8</ele>
        <time>2022-05-25 00:14:14</time>
      </trkpt>
      <trkpt lat="40.85138" lon="0.71321">
        <ele>110.2</ele>
        <time>2022-05-25 00:14:15</time>
      </trkpt>
      <trkpt lat="40.8514" lon="0.71321">
        <ele>110.4</ele>
        <time>2022-05-25 00:14:16</time>
      </trkpt>
      <trkpt lat="40.85143" lon="0.71321">
        <ele>110.6</ele>
        <time>2022-05-25 00:14:17</time>
      </trkpt>
      <trkpt lat="40.85145" lon="0.71321">
        <ele>111</ele>
        <time>2022-05-25 00:14:18</time>
      </trkpt>
      <trkpt lat="40.85147" lon="0.71321">
        <ele>111.4</ele>
        <time>2022-05-25 00:14:19</time>
      </trkpt>
      <trkpt lat="40.8515" lon="0.71321">
        <ele>111.4</ele>
        <time>2022-05-25 00:14:20</time>
      </trkpt>
      <trkpt lat="40.85152" lon="0.71321">
        <ele>111.6</ele>
        <time>2022-05-25 00:14:21</time>
      </trkpt>
      <trkpt lat="40.85155" lon="0.71321">
        <ele>111.8</ele>
        <time>2022-05-25 00:14:22</time>
      </trkpt>
      <trkpt lat="40.85157" lon="0.71321">
        <ele>112.2</ele>
        <time>2022-05-25 00:14:23</time>
      </trkpt>
      <trkpt lat="40.8516" lon="0.7132">
        <ele>112.2</ele>
        <time>2022-05-25 00:14:24</time>
      </trkpt>
      <trkpt lat="40.85162" lon="0.7132">
        <ele>112.4</ele>
        <time>2022-05-25 00:14:25</time>
      </trkpt>
      <trkpt lat="40.85165" lon="0.71319">
        <ele>112.6</ele>
        <time>2022-05-25 00:14:26</time>
      </trkpt>
      <trkpt lat="40.85167" lon="0.71319">
        <ele>112.8</ele>
        <time>2022-05-25 00:14:27</time>
      </trkpt>
      <trkpt lat="40.8517" lon="0.71319">
        <ele>113</ele>
        <time>2022-05-25 00:14:28</time>
      </trkpt>
      <trkpt lat="40.85172" lon="0.71319">
        <ele>113.2</ele>
        <time>2022-05-25 00:14:29</time>
      </trkpt>
      <trkpt lat="40.85174" lon="0.7132">
        <ele>113.2</ele>
        <time>2022-05-25 00:14:30</time>
      </trkpt>
      <trkpt lat="40.85176" lon="0.7132">
        <ele>113.4</ele>
        <time>2022-05-25 00:14:31</time>
      </trkpt>
      <trkpt lat="40.85179" lon="0.71319">
        <ele>113.6</ele>
        <time>2022-05-25 00:14:32</time>
      </trkpt>
      <trkpt lat="40.85181" lon="0.71319">
        <ele>113.6</ele>
        <time>2022-05-25 00:14:33</time>
      </trkpt>
      <trkpt lat="40.85184" lon="0.71319">
        <ele>113.6</ele>
        <time>2022-05-25 00:14:34</time>
      </trkpt>
      <trkpt lat="40.85186" lon="0.7132">
        <ele>113.8</ele>
        <time>2022-05-25 00:14:35</time>
      </trkpt>
      <trkpt lat="40.85188" lon="0.7132">
        <ele>113.8</ele>
        <time>2022-05-25 00:14:36</time>
      </trkpt>
      <trkpt lat="40.85191" lon="0.71321">
        <ele>114</ele>
        <time>2022-05-25 00:14:37</time>
      </trkpt>
      <trkpt lat="40.85193" lon="0.71321">
        <ele>114</ele>
        <time>2022-05-25 00:14:38</time>
      </trkpt>
      <trkpt lat="40.85195" lon="0.71322">
        <ele>114</ele>
        <time>2022-05-25 00:14:39</time>
      </trkpt>
      <trkpt lat="40.85198" lon="0.71322">
        <ele>114.2</ele>
        <time>2022-05-25 00:14:40</time>
      </trkpt>
      <trkpt lat="40.852" lon="0.71323">
        <ele>114.2</ele>
        <time>2022-05-25 00:14:41</time>
      </trkpt>
      <trkpt lat="40.85203" lon="0.71323">
        <ele>114.4</ele>
        <time>2022-05-25 00:14:42</time>
      </trkpt>
      <trkpt lat="40.85205" lon="0.71324">
        <ele>114.6</ele>
        <time>2022-05-25 00:14:43</time>
      </trkpt>
      <trkpt lat="40.85207" lon="0.71324">
        <ele>114.8</ele>
        <time>2022-05-25 00:14:44</time>
      </trkpt>
      <trkpt lat="40.8521" lon="0.71324">
        <ele>115</ele>
        <time>2022-05-25 00:14:45</time>
      </trkpt>
      <trkpt lat="40.85212" lon="0.71325">
        <ele>115.4</ele>
        <time>2022-05-25 00:14:46</time>
      </trkpt>
      <trkpt lat="40.85215" lon="0.71325">
        <ele>115.6</ele>
        <time>2022-05-25 00:14:47</time>
      </trkpt>
      <trkpt lat="40.85218" lon="0.71326">
        <ele>115.6</ele>
        <time>2022-05-25 00:14:48</time>
      </trkpt>
      <trkpt lat="40.8522" lon="0.71326">
        <ele>115.6</ele>
        <time>2022-05-25 00:14:49</time>
      </trkpt>
      <trkpt lat="40.85223" lon="0.71326">
        <ele>115.8</ele>
        <time>2022-05-25 00:14:50</time>
      </trkpt>
      <trkpt lat="40.85225" lon="0.71327">
        <ele>115.8</ele>
        <time>2022-05-25 00:14:51</time>
      </trkpt>
      <trkpt lat="40.85227" lon="0.71327">
        <ele>116</ele>
        <time>2022-05-25 00:14:52</time>
      </trkpt>
      <trkpt lat="40.8523" lon="0.71327">
        <ele>116.2</ele>
        <time>2022-05-25 00:14:53</time>
      </trkpt>
      <trkpt lat="40.85232" lon="0.71327">
        <ele>116.4</ele>
        <time>2022-05-25 00:14:54</time>
      </trkpt>
      <trkpt lat="40.85235" lon="0.71327">
        <ele>116.6</ele>
        <time>2022-05-25 00:14:55</time>
      </trkpt>
      <trkpt lat="40.85237" lon="0.71327">
        <ele>116.6</ele>
        <time>2022-05-25 00:14:56</time>
      </trkpt>
      <trkpt lat="40.85239" lon="0.71327">
        <ele>116.8</ele>
        <time>2022-05-25 00:14:57</time>
      </trkpt>
      <trkpt lat="40.85242" lon="0.71327">
        <ele>116.8</ele>
        <time>2022-05-25 00:14:58</time>
      </trkpt>
      <trkpt lat="40.85244" lon="0.71328">
        <ele>117</ele>
        <time>2022-05-25 00:14:59</time>
      </trkpt>
      <trkpt lat="40.85247" lon="0.71328">
        <ele>117.2</ele>
        <time>2022-05-25 00:15:00</time>
      </trkpt>
      <trkpt lat="40.85249" lon="0.71328">
        <ele>117.4</ele>
        <time>2022-05-25 00:15:01</time>
      </trkpt>
      <trkpt lat="40.85252" lon="0.71328">
        <ele>117.6</ele>
        <time>2022-05-25 00:15:02</time>
      </trkpt>
      <trkpt lat="40.85254" lon="0.71329">
        <ele>117.8</ele>
        <time>2022-05-25 00:15:03</time>
      </trkpt>
      <trkpt lat="40.85257" lon="0.71329">
        <ele>118</ele>
        <time>2022-05-25 00:15:04</time>
      </trkpt>
      <trkpt lat="40.8526" lon="0.71329">
        <ele>118</ele>
        <time>2022-05-25 00:15:05</time>
      </trkpt>
      <trkpt lat="40.85262" lon="0.7133">
        <ele>118.4</ele>
        <time>2022-05-25 00:15:06</time>
      </trkpt>
      <trkpt lat="40.85265" lon="0.71331">
        <ele>118.6</ele>
        <time>2022-05-25 00:15:07</time>
      </trkpt>
      <trkpt lat="40.85267" lon="0.71332">
        <ele>118.8</ele>
        <time>2022-05-25 00:15:08</time>
      </trkpt>
      <trkpt lat="40.8527" lon="0.71332">
        <ele>118.8</ele>
        <time>2022-05-25 00:15:09</time>
      </trkpt>
      <trkpt lat="40.85272" lon="0.71333">
        <ele>119</ele>
        <time>2022-05-25 00:15:10</time>
      </trkpt>
      <trkpt lat="40.85275" lon="0.71334">
        <ele>119.2</ele>
        <time>2022-05-25 00:15:11</time>
      </trkpt>
      <trkpt lat="40.85277" lon="0.71334">
        <ele>119.4</ele>
        <time>2022-05-25 00:15:12</time>
      </trkpt>
      <trkpt lat="40.85279" lon="0.71335">
        <ele>119.6</ele>
        <time>2022-05-25 00:15:13</time>
      </trkpt>
      <trkpt lat="40.85282" lon="0.71335">
        <ele>119.6</ele>
        <time>2022-05-25 00:15:14</time>
      </trkpt>
      <trkpt lat="40.85284" lon="0.71336">
        <ele>119.8</ele>
        <time>2022-05-25 00:15:15</time>
      </trkpt>
      <trkpt lat="40.85286" lon="0.71337">
        <ele>119.8</ele>
        <time>2022-05-25 00:15:16</time>
      </trkpt>
      <trkpt lat="40.85289" lon="0.71338">
        <ele>119.8</ele>
        <time>2022-05-25 00:15:17</time>
      </trkpt>
      <trkpt lat="40.8529" lon="0.71338">
        <ele>120</ele>
        <time>2022-05-25 00:15:18</time>
      </trkpt>
      <trkpt lat="40.85292" lon="0.71339">
        <ele>120.2</ele>
        <time>2022-05-25 00:15:19</time>
      </trkpt>
      <trkpt lat="40.85294" lon="0.7134">
        <ele>120.4</ele>
        <time>2022-05-25 00:15:20</time>
      </trkpt>
      <trkpt lat="40.85296" lon="0.71341">
        <ele>120.4</ele>
        <time>2022-05-25 00:15:21</time>
      </trkpt>
      <trkpt lat="40.85299" lon="0.71342">
        <ele>120.6</ele>
        <time>2022-05-25 00:15:22</time>
      </trkpt>
      <trkpt lat="40.85301" lon="0.71342">
        <ele>120.8</ele>
        <time>2022-05-25 00:15:23</time>
      </trkpt>
      <trkpt lat="40.85303" lon="0.71343">
        <ele>120.8</ele>
        <time>2022-05-25 00:15:24</time>
      </trkpt>
      <trkpt lat="40.85305" lon="0.71344">
        <ele>120.8</ele>
        <time>2022-05-25 00:15:25</time>
      </trkpt>
      <trkpt lat="40.85307" lon="0.71345">
        <ele>121</ele>
        <time>2022-05-25 00:15:26</time>
      </trkpt>
      <trkpt lat="40.85309" lon="0.71346">
        <ele>121</ele>
        <time>2022-05-25 00:15:27</time>
      </trkpt>
      <trkpt lat="40.85311" lon="0.71347">
        <ele>121.2</ele>
        <time>2022-05-25 00:15:28</time>
      </trkpt>
      <trkpt lat="40.85313" lon="0.71347">
        <ele>121.4</ele>
        <time>2022-05-25 00:15:29</time>
      </trkpt>
      <trkpt lat="40.85315" lon="0.71348">
        <ele>121.4</ele>
        <time>2022-05-25 00:15:30</time>
      </trkpt>
      <trkpt lat="40.85317" lon="0.71349">
        <ele>121.4</ele>
        <time>2022-05-25 00:15:31</time>
      </trkpt>
      <trkpt lat="40.85319" lon="0.7135">
        <ele>121.6</ele>
        <time>2022-05-25 00:15:32</time>
      </trkpt>
      <trkpt lat="40.85321" lon="0.71351">
        <ele>121.6</ele>
        <time>2022-05-25 00:15:33</time>
      </trkpt>
      <trkpt lat="40.85323" lon="0.71351">
        <ele>121.8</ele>
        <time>2022-05-25 00:15:34</time>
      </trkpt>
      <trkpt lat="40.85325" lon="0.71352">
        <ele>122</ele>
        <time>2022-05-25 00:15:35</time>
      </trkpt>
      <trkpt lat="40.85326" lon="0.71352">
        <ele>122</ele>
        <time>2022-05-25 00:15:36</time>
      </trkpt>
      <trkpt lat="40.85328" lon="0.71353">
        <ele>122.2</ele>
        <time>2022-05-25 00:15:37</time>
      </trkpt>
      <trkpt lat="40.85329" lon="0.71353">
        <ele>122.4</ele>
        <time>2022-05-25 00:15:38</time>
      </trkpt>
      <trkpt lat="40.85331" lon="0.71354">
        <ele>122.6</ele>
        <time>2022-05-25 00:15:39</time>
      </trkpt>
      <trkpt lat="40.85333" lon="0.71355">
        <ele>122.6</ele>
        <time>2022-05-25 00:15:40</time>
      </trkpt>
      <trkpt lat="40.85335" lon="0.71355">
        <ele>122.8</ele>
        <time>2022-05-25 00:15:41</time>
      </trkpt>
      <trkpt lat="40.85337" lon="0.71355">
        <ele>122.8</ele>
        <time>2022-05-25 00:15:42</time>
      </trkpt>
      <trkpt lat="40.85339" lon="0.71356">
        <ele>122.8</ele>
        <time>2022-05-25 00:15:43</time>
      </trkpt>
      <trkpt lat="40.85341" lon="0.71357">
        <ele>123</ele>
        <time>2022-05-25 00:15:44</time>
      </trkpt>
      <trkpt lat="40.85342" lon="0.71358">
        <ele>123.2</ele>
        <time>2022-05-25 00:15:45</time>
      </trkpt>
      <trkpt lat="40.85344" lon="0.71359">
        <ele>123.4</ele>
        <time>2022-05-25 00:15:46</time>
      </trkpt>
      <trkpt lat="40.85346" lon="0.7136">
        <ele>123.4</ele>
        <time>2022-05-25 00:15:47</time>
      </trkpt>
      <trkpt lat="40.85348" lon="0.71361">
        <ele>123.6</ele>
        <time>2022-05-25 00:15:48</time>
      </trkpt>
      <trkpt lat="40.8535" lon="0.71362">
        <ele>123.8</ele>
        <time>2022-05-25 00:15:49</time>
      </trkpt>
      <trkpt lat="40.85352" lon="0.71363">
        <ele>124</ele>
        <time>2022-05-25 00:15:50</time>
      </trkpt>
      <trkpt lat="40.85353" lon="0.71364">
        <ele>124</ele>
        <time>2022-05-25 00:15:51</time>
      </trkpt>
      <trkpt lat="40.85355" lon="0.71365">
        <ele>124.2</ele>
        <time>2022-05-25 00:15:52</time>
      </trkpt>
      <trkpt lat="40.85357" lon="0.71367">
        <ele>124.4</ele>
        <time>2022-05-25 00:15:53</time>
      </trkpt>
      <trkpt lat="40.85358" lon="0.71369">
        <ele>124.4</ele>
        <time>2022-05-25 00:15:54</time>
      </trkpt>
      <trkpt lat="40.8536" lon="0.7137">
        <ele>124.6</ele>
        <time>2022-05-25 00:15:55</time>
      </trkpt>
      <trkpt lat="40.85361" lon="0.71372">
        <ele>124.6</ele>
        <time>2022-05-25 00:15:56</time>
      </trkpt>
      <trkpt lat="40.85363" lon="0.71374">
        <ele>124.8</ele>
        <time>2022-05-25 00:15:57</time>
      </trkpt>
      <trkpt lat="40.85365" lon="0.71375">
        <ele>125</ele>
        <time>2022-05-25 00:15:58</time>
      </trkpt>
      <trkpt lat="40.85366" lon="0.71377">
        <ele>125.2</ele>
        <time>2022-05-25 00:15:59</time>
      </trkpt>
      <trkpt lat="40.85368" lon="0.71379">
        <ele>125.4</ele>
        <time>2022-05-25 00:16:00</time>
      </trkpt>
      <trkpt lat="40.8537" lon="0.7138">
        <ele>125.4</ele>
        <time>2022-05-25 00:16:01</time>
      </trkpt>
      <trkpt lat="40.85372" lon="0.71382">
        <ele>125.6</ele>
        <time>2022-05-25 00:16:02</time>
      </trkpt>
      <trkpt lat="40.85374" lon="0.71383">
        <ele>125.8</ele>
        <time>2022-05-25 00:16:03</time>
      </trkpt>
      <trkpt lat="40.85376" lon="0.71385">
        <ele>125.8</ele>
        <time>2022-05-25 00:16:04</time>
      </trkpt>
      <trkpt lat="40.85378" lon="0.71387">
        <ele>125.8</ele>
        <time>2022-05-25 00:16:05</time>
      </trkpt>
      <trkpt lat="40.85379" lon="0.71389">
        <ele>125.6</ele>
        <time>2022-05-25 00:16:06</time>
      </trkpt>
      <trkpt lat="40.85381" lon="0.71391">
        <ele>125.8</ele>
        <time>2022-05-25 00:16:07</time>
      </trkpt>
      <trkpt lat="40.85382" lon="0.71394">
        <ele>125.8</ele>
        <time>2022-05-25 00:16:08</time>
      </trkpt>
      <trkpt lat="40.85384" lon="0.71396">
        <ele>125.8</ele>
        <time>2022-05-25 00:16:09</time>
      </trkpt>
      <trkpt lat="40.85385" lon="0.71398">
        <ele>126</ele>
        <time>2022-05-25 00:16:10</time>
      </trkpt>
      <trkpt lat="40.85387" lon="0.714">
        <ele>126.2</ele>
        <time>2022-05-25 00:16:11</time>
      </trkpt>
      <trkpt lat="40.85389" lon="0.71402">
        <ele>126.2</ele>
        <time>2022-05-25 00:16:12</time>
      </trkpt>
      <trkpt lat="40.85391" lon="0.71404">
        <ele>126.4</ele>
        <time>2022-05-25 00:16:13</time>
      </trkpt>
      <trkpt lat="40.85394" lon="0.71406">
        <ele>126.4</ele>
        <time>2022-05-25 00:16:14</time>
      </trkpt>
      <trkpt lat="40.85395" lon="0.71408">
        <ele>126.6</ele>
        <time>2022-05-25 00:16:15</time>
      </trkpt>
      <trkpt lat="40.85397" lon="0.71411">
        <ele>126.8</ele>
        <time>2022-05-25 00:16:16</time>
      </trkpt>
      <trkpt lat="40.85399" lon="0.71413">
        <ele>127</ele>
        <time>2022-05-25 00:16:17</time>
      </trkpt>
      <trkpt lat="40.85401" lon="0.71416">
        <ele>127</ele>
        <time>2022-05-25 00:16:18</time>
      </trkpt>
      <trkpt lat="40.85403" lon="0.71418">
        <ele>126.8</ele>
        <time>2022-05-25 00:16:19</time>
      </trkpt>
      <trkpt lat="40.85405" lon="0.71421">
        <ele>127</ele>
        <time>2022-05-25 00:16:20</time>
      </trkpt>
      <trkpt lat="40.85407" lon="0.71423">
        <ele>127</ele>
        <time>2022-05-25 00:16:21</time>
      </trkpt>
      <trkpt lat="40.8541" lon="0.71426">
        <ele>127.2</ele>
        <time>2022-05-25 00:16:22</time>
      </trkpt>
      <trkpt lat="40.85411" lon="0.71428">
        <ele>127.2</ele>
        <time>2022-05-25 00:16:23</time>
      </trkpt>
      <trkpt lat="40.85414" lon="0.7143">
        <ele>127.4</ele>
        <time>2022-05-25 00:16:24</time>
      </trkpt>
      <trkpt lat="40.85416" lon="0.71432">
        <ele>127.6</ele>
        <time>2022-05-25 00:16:25</time>
      </trkpt>
      <trkpt lat="40.85418" lon="0.71434">
        <ele>127.6</ele>
        <time>2022-05-25 00:16:26</time>
      </trkpt>
      <trkpt lat="40.85421" lon="0.71436">
        <ele>127.8</ele>
        <time>2022-05-25 00:16:27</time>
      </trkpt>
      <trkpt lat="40.85423" lon="0.71438">
        <ele>127.6</ele>
        <time>2022-05-25 00:16:28</time>
      </trkpt>
      <trkpt lat="40.85425" lon="0.7144">
        <ele>127.8</ele>
        <time>2022-05-25 00:16:29</time>
      </trkpt>
      <trkpt lat="40.85427" lon="0.71442">
        <ele>128</ele>
        <time>2022-05-25 00:16:30</time>
      </trkpt>
      <trkpt lat="40.8543" lon="0.71444">
        <ele>128</ele>
        <time>2022-05-25 00:16:31</time>
      </trkpt>
      <trkpt lat="40.85432" lon="0.71445">
        <ele>128</ele>
        <time>2022-05-25 00:16:32</time>
      </trkpt>
      <trkpt lat="40.85435" lon="0.71447">
        <ele>128</ele>
        <time>2022-05-25 00:16:33</time>
      </trkpt>
      <trkpt lat="40.85437" lon="0.71449">
        <ele>128.2</ele>
        <time>2022-05-25 00:16:34</time>
      </trkpt>
      <trkpt lat="40.8544" lon="0.71451">
        <ele>128.2</ele>
        <time>2022-05-25 00:16:35</time>
      </trkpt>
      <trkpt lat="40.85442" lon="0.71452">
        <ele>128.4</ele>
        <time>2022-05-25 00:16:36</time>
      </trkpt>
      <trkpt lat="40.85445" lon="0.71453">
        <ele>128.4</ele>
        <time>2022-05-25 00:16:37</time>
      </trkpt>
      <trkpt lat="40.85448" lon="0.71455">
        <ele>128.4</ele>
        <time>2022-05-25 00:16:38</time>
      </trkpt>
      <trkpt lat="40.8545" lon="0.71456">
        <ele>128.6</ele>
        <time>2022-05-25 00:16:39</time>
      </trkpt>
      <trkpt lat="40.85453" lon="0.71457">
        <ele>128.6</ele>
        <time>2022-05-25 00:16:40</time>
      </trkpt>
      <trkpt lat="40.85456" lon="0.71459">
        <ele>128.8</ele>
        <time>2022-05-25 00:16:41</time>
      </trkpt>
      <trkpt lat="40.85458" lon="0.7146">
        <ele>129</ele>
        <time>2022-05-25 00:16:42</time>
      </trkpt>
      <trkpt lat="40.8546" lon="0.71462">
        <ele>129</ele>
        <time>2022-05-25 00:16:43</time>
      </trkpt>
      <trkpt lat="40.85463" lon="0.71463">
        <ele>129</ele>
        <time>2022-05-25 00:16:44</time>
      </trkpt>
      <trkpt lat="40.85465" lon="0.71465">
        <ele>129.2</ele>
        <time>2022-05-25 00:16:45</time>
      </trkpt>
      <trkpt lat="40.85467" lon="0.71466">
        <ele>129.6</ele>
        <time>2022-05-25 00:16:46</time>
      </trkpt>
      <trkpt lat="40.8547" lon="0.71466">
        <ele>129.6</ele>
        <time>2022-05-25 00:16:47</time>
      </trkpt>
      <trkpt lat="40.85472" lon="0.71467">
        <ele>129.6</ele>
        <time>2022-05-25 00:16:48</time>
      </trkpt>
      <trkpt lat="40.85474" lon="0.71468">
        <ele>129.6</ele>
        <time>2022-05-25 00:16:49</time>
      </trkpt>
      <trkpt lat="40.85476" lon="0.7147">
        <ele>129.6</ele>
        <time>2022-05-25 00:16:50</time>
      </trkpt>
      <trkpt lat="40.85478" lon="0.71471">
        <ele>129.6</ele>
        <time>2022-05-25 00:16:51</time>
      </trkpt>
      <trkpt lat="40.8548" lon="0.71472">
        <ele>129.6</ele>
        <time>2022-05-25 00:16:52</time>
      </trkpt>
      <trkpt lat="40.85482" lon="0.71474">
        <ele>129.6</ele>
        <time>2022-05-25 00:16:53</time>
      </trkpt>
      <trkpt lat="40.85485" lon="0.71475">
        <ele>129.8</ele>
        <time>2022-05-25 00:16:54</time>
      </trkpt>
      <trkpt lat="40.85487" lon="0.71477">
        <ele>129.8</ele>
        <time>2022-05-25 00:16:55</time>
      </trkpt>
      <trkpt lat="40.85489" lon="0.71478">
        <ele>129.8</ele>
        <time>2022-05-25 00:16:56</time>
      </trkpt>
      <trkpt lat="40.85491" lon="0.7148">
        <ele>129.8</ele>
        <time>2022-05-25 00:16:57</time>
      </trkpt>
      <trkpt lat="40.85493" lon="0.71482">
        <ele>130</ele>
        <time>2022-05-25 00:16:58</time>
      </trkpt>
      <trkpt lat="40.85495" lon="0.71483">
        <ele>130.2</ele>
        <time>2022-05-25 00:16:59</time>
      </trkpt>
      <trkpt lat="40.85497" lon="0.71484">
        <ele>130.4</ele>
        <time>2022-05-25 00:17:00</time>
      </trkpt>
      <trkpt lat="40.85499" lon="0.71486">
        <ele>130.6</ele>
        <time>2022-05-25 00:17:01</time>
      </trkpt>
      <trkpt lat="40.85501" lon="0.71487">
        <ele>130.8</ele>
        <time>2022-05-25 00:17:02</time>
      </trkpt>
      <trkpt lat="40.85503" lon="0.71488">
        <ele>131</ele>
        <time>2022-05-25 00:17:03</time>
      </trkpt>
      <trkpt lat="40.85505" lon="0.71489">
        <ele>131.2</ele>
        <time>2022-05-25 00:17:04</time>
      </trkpt>
      <trkpt lat="40.85508" lon="0.71491">
        <ele>131.4</ele>
        <time>2022-05-25 00:17:05</time>
      </trkpt>
      <trkpt lat="40.8551" lon="0.71492">
        <ele>131.6</ele>
        <time>2022-05-25 00:17:06</time>
      </trkpt>
      <trkpt lat="40.85512" lon="0.71493">
        <ele>131.8</ele>
        <time>2022-05-25 00:17:07</time>
      </trkpt>
      <trkpt lat="40.85514" lon="0.71494">
        <ele>132</ele>
        <time>2022-05-25 00:17:08</time>
      </trkpt>
      <trkpt lat="40.85516" lon="0.71495">
        <ele>132.2</ele>
        <time>2022-05-25 00:17:09</time>
      </trkpt>
      <trkpt lat="40.85518" lon="0.71496">
        <ele>132</ele>
        <time>2022-05-25 00:17:10</time>
      </trkpt>
      <trkpt lat="40.8552" lon="0.71497">
        <ele>132.2</ele>
        <time>2022-05-25 00:17:11</time>
      </trkpt>
      <trkpt lat="40.85522" lon="0.71498">
        <ele>132.4</ele>
        <time>2022-05-25 00:17:12</time>
      </trkpt>
      <trkpt lat="40.85524" lon="0.71499">
        <ele>132.6</ele>
        <time>2022-05-25 00:17:13</time>
      </trkpt>
      <trkpt lat="40.85526" lon="0.715">
        <ele>132.6</ele>
        <time>2022-05-25 00:17:14</time>
      </trkpt>
      <trkpt lat="40.85528" lon="0.71501">
        <ele>133</ele>
        <time>2022-05-25 00:17:15</time>
      </trkpt>
      <trkpt lat="40.8553" lon="0.71502">
        <ele>133.2</ele>
        <time>2022-05-25 00:17:16</time>
      </trkpt>
      <trkpt lat="40.85532" lon="0.71504">
        <ele>133.2</ele>
        <time>2022-05-25 00:17:17</time>
      </trkpt>
      <trkpt lat="40.85534" lon="0.71505">
        <ele>133.4</ele>
        <time>2022-05-25 00:17:18</time>
      </trkpt>
      <trkpt lat="40.85536" lon="0.71507">
        <ele>133.2</ele>
        <time>2022-05-25 00:17:19</time>
      </trkpt>
      <trkpt lat="40.85538" lon="0.71508">
        <ele>133.2</ele>
        <time>2022-05-25 00:17:20</time>
      </trkpt>
      <trkpt lat="40.8554" lon="0.7151">
        <ele>133</ele>
        <time>2022-05-25 00:17:21</time>
      </trkpt>
      <trkpt lat="40.85542" lon="0.71511">
        <ele>133</ele>
        <time>2022-05-25 00:17:22</time>
      </trkpt>
      <trkpt lat="40.85544" lon="0.71513">
        <ele>133.2</ele>
        <time>2022-05-25 00:17:23</time>
      </trkpt>
      <trkpt lat="40.85546" lon="0.71514">
        <ele>133.4</ele>
        <time>2022-05-25 00:17:24</time>
      </trkpt>
      <trkpt lat="40.85548" lon="0.71516">
        <ele>133.6</ele>
        <time>2022-05-25 00:17:25</time>
      </trkpt>
      <trkpt lat="40.8555" lon="0.71517">
        <ele>133.8</ele>
        <time>2022-05-25 00:17:26</time>
      </trkpt>
      <trkpt lat="40.85552" lon="0.71519">
        <ele>134</ele>
        <time>2022-05-25 00:17:27</time>
      </trkpt>
      <trkpt lat="40.85554" lon="0.7152">
        <ele>134.2</ele>
        <time>2022-05-25 00:17:28</time>
      </trkpt>
      <trkpt lat="40.85556" lon="0.71522">
        <ele>134.2</ele>
        <time>2022-05-25 00:17:29</time>
      </trkpt>
      <trkpt lat="40.85559" lon="0.71523">
        <ele>134</ele>
        <time>2022-05-25 00:17:30</time>
      </trkpt>
      <trkpt lat="40.85561" lon="0.71524">
        <ele>134</ele>
        <time>2022-05-25 00:17:31</time>
      </trkpt>
      <trkpt lat="40.85563" lon="0.71525">
        <ele>134.2</ele>
        <time>2022-05-25 00:17:32</time>
      </trkpt>
      <trkpt lat="40.85564" lon="0.71527">
        <ele>134.2</ele>
        <time>2022-05-25 00:17:33</time>
      </trkpt>
      <trkpt lat="40.85566" lon="0.71529">
        <ele>134.6</ele>
        <time>2022-05-25 00:17:34</time>
      </trkpt>
      <trkpt lat="40.85568" lon="0.7153">
        <ele>134.8</ele>
        <time>2022-05-25 00:17:35</time>
      </trkpt>
      <trkpt lat="40.8557" lon="0.71532">
        <ele>135</ele>
        <time>2022-05-25 00:17:36</time>
      </trkpt>
      <trkpt lat="40.85572" lon="0.71533">
        <ele>135</ele>
        <time>2022-05-25 00:17:37</time>
      </trkpt>
      <trkpt lat="40.85574" lon="0.71535">
        <ele>135.2</ele>
        <time>2022-05-25 00:17:38</time>
      </trkpt>
      <trkpt lat="40.85575" lon="0.71537">
        <ele>135.4</ele>
        <time>2022-05-25 00:17:39</time>
      </trkpt>
      <trkpt lat="40.85577" lon="0.71538">
        <ele>135.4</ele>
        <time>2022-05-25 00:17:40</time>
      </trkpt>
      <trkpt lat="40.85579" lon="0.7154">
        <ele>135.2</ele>
        <time>2022-05-25 00:17:41</time>
      </trkpt>
      <trkpt lat="40.8558" lon="0.71541">
        <ele>135.4</ele>
        <time>2022-05-25 00:17:42</time>
      </trkpt>
      <trkpt lat="40.85582" lon="0.71543">
        <ele>135.6</ele>
        <time>2022-05-25 00:17:43</time>
      </trkpt>
      <trkpt lat="40.85584" lon="0.71544">
        <ele>135.6</ele>
        <time>2022-05-25 00:17:44</time>
      </trkpt>
      <trkpt lat="40.85587" lon="0.71546">
        <ele>136</ele>
        <time>2022-05-25 00:17:45</time>
      </trkpt>
      <trkpt lat="40.85588" lon="0.71547">
        <ele>136.4</ele>
        <time>2022-05-25 00:17:46</time>
      </trkpt>
      <trkpt lat="40.8559" lon="0.71548">
        <ele>137</ele>
        <time>2022-05-25 00:17:47</time>
      </trkpt>
      <trkpt lat="40.85592" lon="0.71549">
        <ele>137</ele>
        <time>2022-05-25 00:17:48</time>
      </trkpt>
      <trkpt lat="40.85594" lon="0.71551">
        <ele>136.8</ele>
        <time>2022-05-25 00:17:49</time>
      </trkpt>
      <trkpt lat="40.85596" lon="0.71553">
        <ele>136.8</ele>
        <time>2022-05-25 00:17:50</time>
      </trkpt>
      <trkpt lat="40.85598" lon="0.71554">
        <ele>136.4</ele>
        <time>2022-05-25 00:17:51</time>
      </trkpt>
      <trkpt lat="40.856" lon="0.71556">
        <ele>136</ele>
        <time>2022-05-25 00:17:52</time>
      </trkpt>
      <trkpt lat="40.85601" lon="0.71557">
        <ele>135.8</ele>
        <time>2022-05-25 00:17:53</time>
      </trkpt>
      <trkpt lat="40.85603" lon="0.71559">
        <ele>136.2</ele>
        <time>2022-05-25 00:17:54</time>
      </trkpt>
      <trkpt lat="40.85605" lon="0.7156">
        <ele>136.4</ele>
        <time>2022-05-25 00:17:55</time>
      </trkpt>
      <trkpt lat="40.85607" lon="0.71562">
        <ele>136.6</ele>
        <time>2022-05-25 00:17:56</time>
      </trkpt>
      <trkpt lat="40.85609" lon="0.71564">
        <ele>136.6</ele>
        <time>2022-05-25 00:17:57</time>
      </trkpt>
      <trkpt lat="40.85611" lon="0.71566">
        <ele>136.6</ele>
        <time>2022-05-25 00:17:58</time>
      </trkpt>
      <trkpt lat="40.85613" lon="0.71568">
        <ele>136.6</ele>
        <time>2022-05-25 00:17:59</time>
      </trkpt>
      <trkpt lat="40.85615" lon="0.71569">
        <ele>136.6</ele>
        <time>2022-05-25 00:18:00</time>
      </trkpt>
      <trkpt lat="40.85616" lon="0.7157">
        <ele>136.6</ele>
        <time>2022-05-25 00:18:01</time>
      </trkpt>
      <trkpt lat="40.85618" lon="0.71572">
        <ele>136.6</ele>
        <time>2022-05-25 00:18:02</time>
      </trkpt>
      <trkpt lat="40.8562" lon="0.71573">
        <ele>136.8</ele>
        <time>2022-05-25 00:18:03</time>
      </trkpt>
      <trkpt lat="40.85622" lon="0.71575">
        <ele>136.8</ele>
        <time>2022-05-25 00:18:04</time>
      </trkpt>
      <trkpt lat="40.85624" lon="0.71576">
        <ele>137</ele>
        <time>2022-05-25 00:18:05</time>
      </trkpt>
      <trkpt lat="40.85626" lon="0.71577">
        <ele>137</ele>
        <time>2022-05-25 00:18:06</time>
      </trkpt>
      <trkpt lat="40.85627" lon="0.71578">
        <ele>137.2</ele>
        <time>2022-05-25 00:18:07</time>
      </trkpt>
      <trkpt lat="40.85629" lon="0.7158">
        <ele>137.2</ele>
        <time>2022-05-25 00:18:08</time>
      </trkpt>
      <trkpt lat="40.85631" lon="0.71581">
        <ele>137.4</ele>
        <time>2022-05-25 00:18:09</time>
      </trkpt>
      <trkpt lat="40.85633" lon="0.71583">
        <ele>137.4</ele>
        <time>2022-05-25 00:18:10</time>
      </trkpt>
      <trkpt lat="40.85636" lon="0.71584">
        <ele>137.4</ele>
        <time>2022-05-25 00:18:11</time>
      </trkpt>
      <trkpt lat="40.85638" lon="0.71585">
        <ele>137.2</ele>
        <time>2022-05-25 00:18:12</time>
      </trkpt>
      <trkpt lat="40.8564" lon="0.71586">
        <ele>137</ele>
        <time>2022-05-25 00:18:13</time>
      </trkpt>
      <trkpt lat="40.85642" lon="0.71587">
        <ele>137</ele>
        <time>2022-05-25 00:18:14</time>
      </trkpt>
      <trkpt lat="40.85643" lon="0.71588">
        <ele>137</ele>
        <time>2022-05-25 00:18:15</time>
      </trkpt>
      <trkpt lat="40.85645" lon="0.71591">
        <ele>137.2</ele>
        <time>2022-05-25 00:18:16</time>
      </trkpt>
      <trkpt lat="40.85648" lon="0.71593">
        <ele>137.4</ele>
        <time>2022-05-25 00:18:17</time>
      </trkpt>
      <trkpt lat="40.85649" lon="0.71595">
        <ele>136.8</ele>
        <time>2022-05-25 00:18:18</time>
      </trkpt>
      <trkpt lat="40.85651" lon="0.71597">
        <ele>136.4</ele>
        <time>2022-05-25 00:18:19</time>
      </trkpt>
      <trkpt lat="40.85653" lon="0.71598">
        <ele>136</ele>
        <time>2022-05-25 00:18:20</time>
      </trkpt>
      <trkpt lat="40.85654" lon="0.716">
        <ele>135.6</ele>
        <time>2022-05-25 00:18:21</time>
      </trkpt>
      <trkpt lat="40.85656" lon="0.71602">
        <ele>135.6</ele>
        <time>2022-05-25 00:18:22</time>
      </trkpt>
      <trkpt lat="40.85658" lon="0.71603">
        <ele>135.6</ele>
        <time>2022-05-25 00:18:23</time>
      </trkpt>
      <trkpt lat="40.8566" lon="0.71604">
        <ele>135.8</ele>
        <time>2022-05-25 00:18:24</time>
      </trkpt>
      <trkpt lat="40.85662" lon="0.71605">
        <ele>135.6</ele>
        <time>2022-05-25 00:18:25</time>
      </trkpt>
      <trkpt lat="40.85664" lon="0.71606">
        <ele>136</ele>
        <time>2022-05-25 00:18:26</time>
      </trkpt>
      <trkpt lat="40.85666" lon="0.71607">
        <ele>136.6</ele>
        <time>2022-05-25 00:18:27</time>
      </trkpt>
      <trkpt lat="40.85668" lon="0.71609">
        <ele>137.2</ele>
        <time>2022-05-25 00:18:28</time>
      </trkpt>
      <trkpt lat="40.8567" lon="0.7161">
        <ele>137.6</ele>
        <time>2022-05-25 00:18:29</time>
      </trkpt>
      <trkpt lat="40.85672" lon="0.71611">
        <ele>138</ele>
        <time>2022-05-25 00:18:30</time>
      </trkpt>
      <trkpt lat="40.85674" lon="0.71613">
        <ele>138.4</ele>
        <time>2022-05-25 00:18:31</time>
      </trkpt>
      <trkpt lat="40.85676" lon="0.71614">
        <ele>138.8</ele>
        <time>2022-05-25 00:18:32</time>
      </trkpt>
      <trkpt lat="40.85677" lon="0.71616">
        <ele>139</ele>
        <time>2022-05-25 00:18:33</time>
      </trkpt>
      <trkpt lat="40.8568" lon="0.71617">
        <ele>139.2</ele>
        <time>2022-05-25 00:18:34</time>
      </trkpt>
      <trkpt lat="40.85682" lon="0.71619">
        <ele>139.4</ele>
        <time>2022-05-25 00:18:35</time>
      </trkpt>
      <trkpt lat="40.85684" lon="0.7162">
        <ele>139.6</ele>
        <time>2022-05-25 00:18:36</time>
      </trkpt>
      <trkpt lat="40.85686" lon="0.71622">
        <ele>139.8</ele>
        <time>2022-05-25 00:18:37</time>
      </trkpt>
      <trkpt lat="40.85688" lon="0.71622">
        <ele>140</ele>
        <time>2022-05-25 00:18:38</time>
      </trkpt>
      <trkpt lat="40.8569" lon="0.71623">
        <ele>140.4</ele>
        <time>2022-05-25 00:18:39</time>
      </trkpt>
      <trkpt lat="40.85692" lon="0.71624">
        <ele>140.4</ele>
        <time>2022-05-25 00:18:40</time>
      </trkpt>
      <trkpt lat="40.85694" lon="0.71626">
        <ele>140.4</ele>
        <time>2022-05-25 00:18:41</time>
      </trkpt>
      <trkpt lat="40.85696" lon="0.71628">
        <ele>140.6</ele>
        <time>2022-05-25 00:18:42</time>
      </trkpt>
      <trkpt lat="40.85698" lon="0.71629">
        <ele>140.6</ele>
        <time>2022-05-25 00:18:43</time>
      </trkpt>
      <trkpt lat="40.857" lon="0.71631">
        <ele>140.8</ele>
        <time>2022-05-25 00:18:44</time>
      </trkpt>
      <trkpt lat="40.85703" lon="0.71632">
        <ele>140.8</ele>
        <time>2022-05-25 00:18:45</time>
      </trkpt>
      <trkpt lat="40.85705" lon="0.71634">
        <ele>140.8</ele>
        <time>2022-05-25 00:18:46</time>
      </trkpt>
      <trkpt lat="40.85707" lon="0.71635">
        <ele>141</ele>
        <time>2022-05-25 00:18:47</time>
      </trkpt>
      <trkpt lat="40.85709" lon="0.71636">
        <ele>141.2</ele>
        <time>2022-05-25 00:18:48</time>
      </trkpt>
      <trkpt lat="40.85712" lon="0.71638">
        <ele>141.4</ele>
        <time>2022-05-25 00:18:49</time>
      </trkpt>
      <trkpt lat="40.85714" lon="0.7164">
        <ele>141.6</ele>
        <time>2022-05-25 00:18:50</time>
      </trkpt>
      <trkpt lat="40.85717" lon="0.71641">
        <ele>141.6</ele>
        <time>2022-05-25 00:18:51</time>
      </trkpt>
      <trkpt lat="40.8572" lon="0.71643">
        <ele>141.6</ele>
        <time>2022-05-25 00:18:52</time>
      </trkpt>
      <trkpt lat="40.85722" lon="0.71644">
        <ele>141.6</ele>
        <time>2022-05-25 00:18:53</time>
      </trkpt>
      <trkpt lat="40.85725" lon="0.71646">
        <ele>141.4</ele>
        <time>2022-05-25 00:18:54</time>
      </trkpt>
      <trkpt lat="40.85727" lon="0.71647">
        <ele>141.4</ele>
        <time>2022-05-25 00:18:55</time>
      </trkpt>
      <trkpt lat="40.85729" lon="0.71649">
        <ele>141.2</ele>
        <time>2022-05-25 00:18:56</time>
      </trkpt>
      <trkpt lat="40.85732" lon="0.7165">
        <ele>141</ele>
        <time>2022-05-25 00:18:57</time>
      </trkpt>
      <trkpt lat="40.85734" lon="0.71651">
        <ele>140.8</ele>
        <time>2022-05-25 00:18:58</time>
      </trkpt>
      <trkpt lat="40.85736" lon="0.71652">
        <ele>140.8</ele>
        <time>2022-05-25 00:18:59</time>
      </trkpt>
      <trkpt lat="40.85739" lon="0.71652">
        <ele>140.8</ele>
        <time>2022-05-25 00:19:00</time>
      </trkpt>
      <trkpt lat="40.85741" lon="0.71653">
        <ele>141.2</ele>
        <time>2022-05-25 00:19:01</time>
      </trkpt>
      <trkpt lat="40.85743" lon="0.71654">
        <ele>141.6</ele>
        <time>2022-05-25 00:19:02</time>
      </trkpt>
      <trkpt lat="40.85745" lon="0.71655">
        <ele>141.8</ele>
        <time>2022-05-25 00:19:03</time>
      </trkpt>
      <trkpt lat="40.85748" lon="0.71656">
        <ele>141.8</ele>
        <time>2022-05-25 00:19:04</time>
      </trkpt>
      <trkpt lat="40.85749" lon="0.71657">
        <ele>141.8</ele>
        <time>2022-05-25 00:19:05</time>
      </trkpt>
      <trkpt lat="40.85751" lon="0.71658">
        <ele>141.8</ele>
        <time>2022-05-25 00:19:06</time>
      </trkpt>
      <trkpt lat="40.85754" lon="0.71658">
        <ele>141.8</ele>
        <time>2022-05-25 00:19:07</time>
      </trkpt>
      <trkpt lat="40.85756" lon="0.71659">
        <ele>141.8</ele>
        <time>2022-05-25 00:19:08</time>
      </trkpt>
      <trkpt lat="40.85758" lon="0.7166">
        <ele>141.8</ele>
        <time>2022-05-25 00:19:09</time>
      </trkpt>
      <trkpt lat="40.8576" lon="0.71661">
        <ele>141.8</ele>
        <time>2022-05-25 00:19:10</time>
      </trkpt>
      <trkpt lat="40.85763" lon="0.71663">
        <ele>142</ele>
        <time>2022-05-25 00:19:11</time>
      </trkpt>
      <trkpt lat="40.85765" lon="0.71664">
        <ele>142</ele>
        <time>2022-05-25 00:19:12</time>
      </trkpt>
      <trkpt lat="40.85767" lon="0.71666">
        <ele>142.2</ele>
        <time>2022-05-25 00:19:13</time>
      </trkpt>
      <trkpt lat="40.85769" lon="0.71667">
        <ele>142.2</ele>
        <time>2022-05-25 00:19:14</time>
      </trkpt>
      <trkpt lat="40.85772" lon="0.71669">
        <ele>142.4</ele>
        <time>2022-05-25 00:19:15</time>
      </trkpt>
      <trkpt lat="40.85774" lon="0.7167">
        <ele>142.4</ele>
        <time>2022-05-25 00:19:16</time>
      </trkpt>
      <trkpt lat="40.85776" lon="0.7167">
        <ele>142.4</ele>
        <time>2022-05-25 00:19:17</time>
      </trkpt>
      <trkpt lat="40.85778" lon="0.71671">
        <ele>142.6</ele>
        <time>2022-05-25 00:19:18</time>
      </trkpt>
      <trkpt lat="40.8578" lon="0.71672">
        <ele>142.8</ele>
        <time>2022-05-25 00:19:19</time>
      </trkpt>
      <trkpt lat="40.85783" lon="0.71673">
        <ele>143</ele>
        <time>2022-05-25 00:19:20</time>
      </trkpt>
      <trkpt lat="40.85785" lon="0.71674">
        <ele>143.2</ele>
        <time>2022-05-25 00:19:21</time>
      </trkpt>
      <trkpt lat="40.85787" lon="0.71676">
        <ele>143.2</ele>
        <time>2022-05-25 00:19:22</time>
      </trkpt>
      <trkpt lat="40.85789" lon="0.71677">
        <ele>143.2</ele>
        <time>2022-05-25 00:19:23</time>
      </trkpt>
      <trkpt lat="40.85791" lon="0.71678">
        <ele>143.4</ele>
        <time>2022-05-25 00:19:24</time>
      </trkpt>
      <trkpt lat="40.85793" lon="0.71679">
        <ele>143.4</ele>
        <time>2022-05-25 00:19:25</time>
      </trkpt>
      <trkpt lat="40.85795" lon="0.7168">
        <ele>143.6</ele>
        <time>2022-05-25 00:19:26</time>
      </trkpt>
      <trkpt lat="40.85797" lon="0.71681">
        <ele>143.6</ele>
        <time>2022-05-25 00:19:27</time>
      </trkpt>
      <trkpt lat="40.85799" lon="0.71682">
        <ele>143.6</ele>
        <time>2022-05-25 00:19:28</time>
      </trkpt>
      <trkpt lat="40.85801" lon="0.71683">
        <ele>143.6</ele>
        <time>2022-05-25 00:19:29</time>
      </trkpt>
      <trkpt lat="40.85804" lon="0.71684">
        <ele>143.6</ele>
        <time>2022-05-25 00:19:30</time>
      </trkpt>
      <trkpt lat="40.85806" lon="0.71685">
        <ele>143.8</ele>
        <time>2022-05-25 00:19:31</time>
      </trkpt>
      <trkpt lat="40.85808" lon="0.71686">
        <ele>144</ele>
        <time>2022-05-25 00:19:32</time>
      </trkpt>
      <trkpt lat="40.8581" lon="0.71687">
        <ele>144.2</ele>
        <time>2022-05-25 00:19:33</time>
      </trkpt>
      <trkpt lat="40.85813" lon="0.71688">
        <ele>144.2</ele>
        <time>2022-05-25 00:19:34</time>
      </trkpt>
      <trkpt lat="40.85815" lon="0.7169">
        <ele>144.4</ele>
        <time>2022-05-25 00:19:35</time>
      </trkpt>
      <trkpt lat="40.85817" lon="0.71691">
        <ele>144.4</ele>
        <time>2022-05-25 00:19:36</time>
      </trkpt>
      <trkpt lat="40.8582" lon="0.71692">
        <ele>144.6</ele>
        <time>2022-05-25 00:19:37</time>
      </trkpt>
      <trkpt lat="40.85822" lon="0.71693">
        <ele>144.6</ele>
        <time>2022-05-25 00:19:38</time>
      </trkpt>
      <trkpt lat="40.85824" lon="0.71695">
        <ele>144.8</ele>
        <time>2022-05-25 00:19:39</time>
      </trkpt>
      <trkpt lat="40.85827" lon="0.71696">
        <ele>145</ele>
        <time>2022-05-25 00:19:40</time>
      </trkpt>
      <trkpt lat="40.8583" lon="0.71697">
        <ele>145.2</ele>
        <time>2022-05-25 00:19:41</time>
      </trkpt>
      <trkpt lat="40.85832" lon="0.71699">
        <ele>145.4</ele>
        <time>2022-05-25 00:19:42</time>
      </trkpt>
      <trkpt lat="40.85835" lon="0.717">
        <ele>145.4</ele>
        <time>2022-05-25 00:19:43</time>
      </trkpt>
      <trkpt lat="40.85837" lon="0.717">
        <ele>145.4</ele>
        <time>2022-05-25 00:19:44</time>
      </trkpt>
      <trkpt lat="40.8584" lon="0.71701">
        <ele>145.2</ele>
        <time>2022-05-25 00:19:45</time>
      </trkpt>
      <trkpt lat="40.85843" lon="0.71702">
        <ele>145.4</ele>
        <time>2022-05-25 00:19:46</time>
      </trkpt>
      <trkpt lat="40.85845" lon="0.71703">
        <ele>145.6</ele>
        <time>2022-05-25 00:19:47</time>
      </trkpt>
      <trkpt lat="40.85847" lon="0.71704">
        <ele>145.6</ele>
        <time>2022-05-25 00:19:48</time>
      </trkpt>
      <trkpt lat="40.85849" lon="0.71706">
        <ele>145.6</ele>
        <time>2022-05-25 00:19:49</time>
      </trkpt>
      <trkpt lat="40.85851" lon="0.71707">
        <ele>145.8</ele>
        <time>2022-05-25 00:19:50</time>
      </trkpt>
      <trkpt lat="40.85853" lon="0.71707">
        <ele>145.8</ele>
        <time>2022-05-25 00:19:51</time>
      </trkpt>
      <trkpt lat="40.85855" lon="0.71708">
        <ele>145.8</ele>
        <time>2022-05-25 00:19:52</time>
      </trkpt>
      <trkpt lat="40.85858" lon="0.71708">
        <ele>146</ele>
        <time>2022-05-25 00:19:53</time>
      </trkpt>
      <trkpt lat="40.8586" lon="0.71709">
        <ele>146.4</ele>
        <time>2022-05-25 00:19:54</time>
      </trkpt>
      <trkpt lat="40.85863" lon="0.7171">
        <ele>146.6</ele>
        <time>2022-05-25 00:19:55</time>
      </trkpt>
      <trkpt lat="40.85865" lon="0.7171">
        <ele>146.8</ele>
        <time>2022-05-25 00:19:56</time>
      </trkpt>
      <trkpt lat="40.85867" lon="0.7171">
        <ele>147</ele>
        <time>2022-05-25 00:19:57</time>
      </trkpt>
      <trkpt lat="40.8587" lon="0.71711">
        <ele>147</ele>
        <time>2022-05-25 00:19:58</time>
      </trkpt>
      <trkpt lat="40.85872" lon="0.71712">
        <ele>147.2</ele>
        <time>2022-05-25 00:19:59</time>
      </trkpt>
      <trkpt lat="40.85875" lon="0.71713">
        <ele>147.2</ele>
        <time>2022-05-25 00:20:00</time>
      </trkpt>
      <trkpt lat="40.85876" lon="0.71714">
        <ele>147.4</ele>
        <time>2022-05-25 00:20:01</time>
      </trkpt>
      <trkpt lat="40.85879" lon="0.71715">
        <ele>147.4</ele>
        <time>2022-05-25 00:20:02</time>
      </trkpt>
      <trkpt lat="40.85881" lon="0.71717">
        <ele>147.4</ele>
        <time>2022-05-25 00:20:03</time>
      </trkpt>
      <trkpt lat="40.85883" lon="0.71718">
        <ele>147.4</ele>
        <time>2022-05-25 00:20:04</time>
      </trkpt>
      <trkpt lat="40.85886" lon="0.71719">
        <ele>147.4</ele>
        <time>2022-05-25 00:20:05</time>
      </trkpt>
      <trkpt lat="40.85888" lon="0.7172">
        <ele>147.4</ele>
        <time>2022-05-25 00:20:06</time>
      </trkpt>
      <trkpt lat="40.85891" lon="0.71721">
        <ele>147.2</ele>
        <time>2022-05-25 00:20:07</time>
      </trkpt>
      <trkpt lat="40.85894" lon="0.71722">
        <ele>147.2</ele>
        <time>2022-05-25 00:20:08</time>
      </trkpt>
      <trkpt lat="40.85896" lon="0.71722">
        <ele>147.2</ele>
        <time>2022-05-25 00:20:09</time>
      </trkpt>
      <trkpt lat="40.85898" lon="0.71723">
        <ele>147</ele>
        <time>2022-05-25 00:20:10</time>
      </trkpt>
      <trkpt lat="40.85901" lon="0.71724">
        <ele>147</ele>
        <time>2022-05-25 00:20:11</time>
      </trkpt>
      <trkpt lat="40.85903" lon="0.71725">
        <ele>147</ele>
        <time>2022-05-25 00:20:12</time>
      </trkpt>
      <trkpt lat="40.85905" lon="0.71726">
        <ele>147</ele>
        <time>2022-05-25 00:20:13</time>
      </trkpt>
      <trkpt lat="40.85908" lon="0.71727">
        <ele>147</ele>
        <time>2022-05-25 00:20:14</time>
      </trkpt>
      <trkpt lat="40.8591" lon="0.71727">
        <ele>147</ele>
        <time>2022-05-25 00:20:15</time>
      </trkpt>
      <trkpt lat="40.85912" lon="0.71728">
        <ele>147.2</ele>
        <time>2022-05-25 00:20:16</time>
      </trkpt>
      <trkpt lat="40.85915" lon="0.71729">
        <ele>147.2</ele>
        <time>2022-05-25 00:20:17</time>
      </trkpt>
      <trkpt lat="40.85917" lon="0.7173">
        <ele>147.2</ele>
        <time>2022-05-25 00:20:18</time>
      </trkpt>
      <trkpt lat="40.8592" lon="0.71731">
        <ele>147.2</ele>
        <time>2022-05-25 00:20:19</time>
      </trkpt>
      <trkpt lat="40.85923" lon="0.71732">
        <ele>147.4</ele>
        <time>2022-05-25 00:20:20</time>
      </trkpt>
      <trkpt lat="40.85925" lon="0.71733">
        <ele>147.6</ele>
        <time>2022-05-25 00:20:21</time>
      </trkpt>
      <trkpt lat="40.85928" lon="0.71734">
        <ele>147.8</ele>
        <time>2022-05-25 00:20:22</time>
      </trkpt>
      <trkpt lat="40.85931" lon="0.71735">
        <ele>148</ele>
        <time>2022-05-25 00:20:23</time>
      </trkpt>
      <trkpt lat="40.85934" lon="0.71737">
        <ele>148.4</ele>
        <time>2022-05-25 00:20:24</time>
      </trkpt>
      <trkpt lat="40.85937" lon="0.71738">
        <ele>148.6</ele>
        <time>2022-05-25 00:20:25</time>
      </trkpt>
      <trkpt lat="40.8594" lon="0.71739">
        <ele>148.4</ele>
        <time>2022-05-25 00:20:26</time>
      </trkpt>
      <trkpt lat="40.85942" lon="0.7174">
        <ele>148.4</ele>
        <time>2022-05-25 00:20:27</time>
      </trkpt>
      <trkpt lat="40.85945" lon="0.71741">
        <ele>148.4</ele>
        <time>2022-05-25 00:20:28</time>
      </trkpt>
      <trkpt lat="40.85948" lon="0.71743">
        <ele>148.2</ele>
        <time>2022-05-25 00:20:29</time>
      </trkpt>
      <trkpt lat="40.8595" lon="0.71744">
        <ele>148.4</ele>
        <time>2022-05-25 00:20:30</time>
      </trkpt>
      <trkpt lat="40.85953" lon="0.71745">
        <ele>148.4</ele>
        <time>2022-05-25 00:20:31</time>
      </trkpt>
      <trkpt lat="40.85955" lon="0.71746">
        <ele>148.4</ele>
        <time>2022-05-25 00:20:32</time>
      </trkpt>
      <trkpt lat="40.85958" lon="0.71748">
        <ele>148.4</ele>
        <time>2022-05-25 00:20:33</time>
      </trkpt>
      <trkpt lat="40.85961" lon="0.71749">
        <ele>148.4</ele>
        <time>2022-05-25 00:20:34</time>
      </trkpt>
      <trkpt lat="40.85964" lon="0.7175">
        <ele>148.4</ele>
        <time>2022-05-25 00:20:35</time>
      </trkpt>
      <trkpt lat="40.85967" lon="0.71752">
        <ele>148.4</ele>
        <time>2022-05-25 00:20:36</time>
      </trkpt>
      <trkpt lat="40.8597" lon="0.71753">
        <ele>148.4</ele>
        <time>2022-05-25 00:20:37</time>
      </trkpt>
      <trkpt lat="40.85973" lon="0.71754">
        <ele>148.2</ele>
        <time>2022-05-25 00:20:38</time>
      </trkpt>
      <trkpt lat="40.85977" lon="0.71755">
        <ele>148.2</ele>
        <time>2022-05-25 00:20:39</time>
      </trkpt>
      <trkpt lat="40.8598" lon="0.71757">
        <ele>148.2</ele>
        <time>2022-05-25 00:20:40</time>
      </trkpt>
      <trkpt lat="40.85984" lon="0.7176">
        <ele>148.2</ele>
        <time>2022-05-25 00:20:41</time>
      </trkpt>
      <trkpt lat="40.85987" lon="0.71762">
        <ele>147.8</ele>
        <time>2022-05-25 00:20:42</time>
      </trkpt>
      <trkpt lat="40.85991" lon="0.71765">
        <ele>147.6</ele>
        <time>2022-05-25 00:20:43</time>
      </trkpt>
      <trkpt lat="40.85994" lon="0.71767">
        <ele>147.6</ele>
        <time>2022-05-25 00:20:44</time>
      </trkpt>
      <trkpt lat="40.85998" lon="0.71769">
        <ele>147.6</ele>
        <time>2022-05-25 00:20:45</time>
      </trkpt>
      <trkpt lat="40.86" lon="0.71772">
        <ele>147.6</ele>
        <time>2022-05-25 00:20:46</time>
      </trkpt>
      <trkpt lat="40.86003" lon="0.71775">
        <ele>147.4</ele>
        <time>2022-05-25 00:20:47</time>
      </trkpt>
      <trkpt lat="40.86006" lon="0.71778">
        <ele>147.2</ele>
        <time>2022-05-25 00:20:48</time>
      </trkpt>
      <trkpt lat="40.86008" lon="0.71782">
        <ele>147.2</ele>
        <time>2022-05-25 00:20:49</time>
      </trkpt>
      <trkpt lat="40.8601" lon="0.71787">
        <ele>146.8</ele>
        <time>2022-05-25 00:20:50</time>
      </trkpt>
      <trkpt lat="40.86013" lon="0.71791">
        <ele>146.4</ele>
        <time>2022-05-25 00:20:51</time>
      </trkpt>
      <trkpt lat="40.86015" lon="0.71797">
        <ele>146</ele>
        <time>2022-05-25 00:20:52</time>
      </trkpt>
      <trkpt lat="40.86016" lon="0.71803">
        <ele>145.8</ele>
        <time>2022-05-25 00:20:53</time>
      </trkpt>
      <trkpt lat="40.86019" lon="0.71809">
        <ele>145.4</ele>
        <time>2022-05-25 00:20:54</time>
      </trkpt>
      <trkpt lat="40.86021" lon="0.71816">
        <ele>145</ele>
        <time>2022-05-25 00:20:55</time>
      </trkpt>
      <trkpt lat="40.86024" lon="0.71823">
        <ele>144.4</ele>
        <time>2022-05-25 00:20:56</time>
      </trkpt>
      <trkpt lat="40.86027" lon="0.71831">
        <ele>143.8</ele>
        <time>2022-05-25 00:20:57</time>
      </trkpt>
      <trkpt lat="40.8603" lon="0.71839">
        <ele>143</ele>
        <time>2022-05-25 00:20:58</time>
      </trkpt>
      <trkpt lat="40.86034" lon="0.71846">
        <ele>142.4</ele>
        <time>2022-05-25 00:20:59</time>
      </trkpt>
      <trkpt lat="40.86037" lon="0.71853">
        <ele>142</ele>
        <time>2022-05-25 00:21:00</time>
      </trkpt>
      <trkpt lat="40.86041" lon="0.7186">
        <ele>141.4</ele>
        <time>2022-05-25 00:21:01</time>
      </trkpt>
      <trkpt lat="40.86044" lon="0.71866">
        <ele>141</ele>
        <time>2022-05-25 00:21:02</time>
      </trkpt>
      <trkpt lat="40.86046" lon="0.71871">
        <ele>141</ele>
        <time>2022-05-25 00:21:03</time>
      </trkpt>
      <trkpt lat="40.86048" lon="0.71875">
        <ele>140.8</ele>
        <time>2022-05-25 00:21:04</time>
      </trkpt>
      <trkpt lat="40.86051" lon="0.7188">
        <ele>140.8</ele>
        <time>2022-05-25 00:21:05</time>
      </trkpt>
      <trkpt lat="40.86053" lon="0.71884">
        <ele>141</ele>
        <time>2022-05-25 00:21:06</time>
      </trkpt>
      <trkpt lat="40.86056" lon="0.71887">
        <ele>141.2</ele>
        <time>2022-05-25 00:21:07</time>
      </trkpt>
      <trkpt lat="40.86059" lon="0.7189">
        <ele>141.4</ele>
        <time>2022-05-25 00:21:08</time>
      </trkpt>
      <trkpt lat="40.86061" lon="0.71893">
        <ele>141.4</ele>
        <time>2022-05-25 00:21:09</time>
      </trkpt>
      <trkpt lat="40.86064" lon="0.71896">
        <ele>141.6</ele>
        <time>2022-05-25 00:21:10</time>
      </trkpt>
      <trkpt lat="40.86066" lon="0.71899">
        <ele>141.8</ele>
        <time>2022-05-25 00:21:11</time>
      </trkpt>
      <trkpt lat="40.86068" lon="0.71901">
        <ele>141.8</ele>
        <time>2022-05-25 00:21:12</time>
      </trkpt>
      <trkpt lat="40.86069" lon="0.71904">
        <ele>142</ele>
        <time>2022-05-25 00:21:13</time>
      </trkpt>
      <trkpt lat="40.86071" lon="0.71907">
        <ele>142.2</ele>
        <time>2022-05-25 00:21:14</time>
      </trkpt>
      <trkpt lat="40.86073" lon="0.71909">
        <ele>142.4</ele>
        <time>2022-05-25 00:21:15</time>
      </trkpt>
      <trkpt lat="40.86074" lon="0.71911">
        <ele>142.6</ele>
        <time>2022-05-25 00:21:16</time>
      </trkpt>
      <trkpt lat="40.86076" lon="0.71913">
        <ele>142.8</ele>
        <time>2022-05-25 00:21:17</time>
      </trkpt>
      <trkpt lat="40.86077" lon="0.71915">
        <ele>142.8</ele>
        <time>2022-05-25 00:21:18</time>
      </trkpt>
      <trkpt lat="40.86079" lon="0.71918">
        <ele>143</ele>
        <time>2022-05-25 00:21:19</time>
      </trkpt>
      <trkpt lat="40.8608" lon="0.71921">
        <ele>143.2</ele>
        <time>2022-05-25 00:21:20</time>
      </trkpt>
      <trkpt lat="40.86082" lon="0.71923">
        <ele>143.4</ele>
        <time>2022-05-25 00:21:21</time>
      </trkpt>
      <trkpt lat="40.86084" lon="0.71925">
        <ele>143.6</ele>
        <time>2022-05-25 00:21:22</time>
      </trkpt>
      <trkpt lat="40.86086" lon="0.71928">
        <ele>143.8</ele>
        <time>2022-05-25 00:21:23</time>
      </trkpt>
      <trkpt lat="40.86087" lon="0.7193">
        <ele>144</ele>
        <time>2022-05-25 00:21:24</time>
      </trkpt>
      <trkpt lat="40.86089" lon="0.71933">
        <ele>144.2</ele>
        <time>2022-05-25 00:21:25</time>
      </trkpt>
      <trkpt lat="40.8609" lon="0.71935">
        <ele>144.4</ele>
        <time>2022-05-25 00:21:26</time>
      </trkpt>
      <trkpt lat="40.86092" lon="0.71937">
        <ele>144.6</ele>
        <time>2022-05-25 00:21:27</time>
      </trkpt>
      <trkpt lat="40.86094" lon="0.7194">
        <ele>144.8</ele>
        <time>2022-05-25 00:21:28</time>
      </trkpt>
      <trkpt lat="40.86095" lon="0.71943">
        <ele>145</ele>
        <time>2022-05-25 00:21:29</time>
      </trkpt>
      <trkpt lat="40.86097" lon="0.71946">
        <ele>145.2</ele>
        <time>2022-05-25 00:21:30</time>
      </trkpt>
      <trkpt lat="40.86098" lon="0.71949">
        <ele>145.4</ele>
        <time>2022-05-25 00:21:31</time>
      </trkpt>
      <trkpt lat="40.861" lon="0.71951">
        <ele>145.6</ele>
        <time>2022-05-25 00:21:32</time>
      </trkpt>
      <trkpt lat="40.86102" lon="0.71954">
        <ele>145.6</ele>
        <time>2022-05-25 00:21:33</time>
      </trkpt>
      <trkpt lat="40.86104" lon="0.71957">
        <ele>145.6</ele>
        <time>2022-05-25 00:21:34</time>
      </trkpt>
      <trkpt lat="40.86106" lon="0.7196">
        <ele>145.4</ele>
        <time>2022-05-25 00:21:35</time>
      </trkpt>
      <trkpt lat="40.86108" lon="0.71964">
        <ele>145</ele>
        <time>2022-05-25 00:21:36</time>
      </trkpt>
      <trkpt lat="40.86111" lon="0.71967">
        <ele>144.8</ele>
        <time>2022-05-25 00:21:37</time>
      </trkpt>
      <trkpt lat="40.86113" lon="0.71972">
        <ele>144.4</ele>
        <time>2022-05-25 00:21:38</time>
      </trkpt>
      <trkpt lat="40.86116" lon="0.71976">
        <ele>144</ele>
        <time>2022-05-25 00:21:39</time>
      </trkpt>
      <trkpt lat="40.8612" lon="0.71981">
        <ele>143.6</ele>
        <time>2022-05-25 00:21:40</time>
      </trkpt>
      <trkpt lat="40.86124" lon="0.71986">
        <ele>143.2</ele>
        <time>2022-05-25 00:21:41</time>
      </trkpt>
      <trkpt lat="40.86128" lon="0.71991">
        <ele>143</ele>
        <time>2022-05-25 00:21:42</time>
      </trkpt>
      <trkpt lat="40.86133" lon="0.71996">
        <ele>142.8</ele>
        <time>2022-05-25 00:21:43</time>
      </trkpt>
      <trkpt lat="40.86137" lon="0.72001">
        <ele>142.6</ele>
        <time>2022-05-25 00:21:44</time>
      </trkpt>
      <trkpt lat="40.86142" lon="0.72006">
        <ele>142.8</ele>
        <time>2022-05-25 00:21:45</time>
      </trkpt>
      <trkpt lat="40.86146" lon="0.72012">
        <ele>142.6</ele>
        <time>2022-05-25 00:21:46</time>
      </trkpt>
      <trkpt lat="40.8615" lon="0.72018">
        <ele>142.4</ele>
        <time>2022-05-25 00:21:47</time>
      </trkpt>
      <trkpt lat="40.86154" lon="0.72024">
        <ele>142.4</ele>
        <time>2022-05-25 00:21:48</time>
      </trkpt>
      <trkpt lat="40.86158" lon="0.7203">
        <ele>142.2</ele>
        <time>2022-05-25 00:21:49</time>
      </trkpt>
      <trkpt lat="40.86161" lon="0.72036">
        <ele>141.8</ele>
        <time>2022-05-25 00:21:50</time>
      </trkpt>
      <trkpt lat="40.86165" lon="0.72044">
        <ele>141.4</ele>
        <time>2022-05-25 00:21:51</time>
      </trkpt>
      <trkpt lat="40.86169" lon="0.72052">
        <ele>141.2</ele>
        <time>2022-05-25 00:21:52</time>
      </trkpt>
      <trkpt lat="40.86173" lon="0.72059">
        <ele>140.8</ele>
        <time>2022-05-25 00:21:53</time>
      </trkpt>
      <trkpt lat="40.86177" lon="0.72064">
        <ele>140.6</ele>
        <time>2022-05-25 00:21:54</time>
      </trkpt>
      <trkpt lat="40.86183" lon="0.72068">
        <ele>140.6</ele>
        <time>2022-05-25 00:21:55</time>
      </trkpt>
      <trkpt lat="40.86189" lon="0.72071">
        <ele>140.6</ele>
        <time>2022-05-25 00:21:56</time>
      </trkpt>
      <trkpt lat="40.86195" lon="0.72073">
        <ele>140.4</ele>
        <time>2022-05-25 00:21:57</time>
      </trkpt>
      <trkpt lat="40.862" lon="0.72076">
        <ele>140.4</ele>
        <time>2022-05-25 00:21:58</time>
      </trkpt>
      <trkpt lat="40.86204" lon="0.7208">
        <ele>140.4</ele>
        <time>2022-05-25 00:21:59</time>
      </trkpt>
      <trkpt lat="40.86208" lon="0.72084">
        <ele>140.4</ele>
        <time>2022-05-25 00:22:00</time>
      </trkpt>
      <trkpt lat="40.86212" lon="0.72087">
        <ele>140.4</ele>
        <time>2022-05-25 00:22:01</time>
      </trkpt>
      <trkpt lat="40.86216" lon="0.72091">
        <ele>140.6</ele>
        <time>2022-05-25 00:22:02</time>
      </trkpt>
      <trkpt lat="40.86219" lon="0.72093">
        <ele>140.8</ele>
        <time>2022-05-25 00:22:03</time>
      </trkpt>
      <trkpt lat="40.86222" lon="0.72095">
        <ele>141</ele>
        <time>2022-05-25 00:22:04</time>
      </trkpt>
      <trkpt lat="40.86225" lon="0.72097">
        <ele>141.2</ele>
        <time>2022-05-25 00:22:05</time>
      </trkpt>
      <trkpt lat="40.86227" lon="0.72099">
        <ele>141.4</ele>
        <time>2022-05-25 00:22:06</time>
      </trkpt>
      <trkpt lat="40.8623" lon="0.721">
        <ele>141.6</ele>
        <time>2022-05-25 00:22:07</time>
      </trkpt>
      <trkpt lat="40.86232" lon="0.72101">
        <ele>141.8</ele>
        <time>2022-05-25 00:22:08</time>
      </trkpt>
      <trkpt lat="40.86234" lon="0.72103">
        <ele>142</ele>
        <time>2022-05-25 00:22:09</time>
      </trkpt>
      <trkpt lat="40.86237" lon="0.72105">
        <ele>142</ele>
        <time>2022-05-25 00:22:10</time>
      </trkpt>
      <trkpt lat="40.86239" lon="0.72107">
        <ele>142.2</ele>
        <time>2022-05-25 00:22:11</time>
      </trkpt>
      <trkpt lat="40.86241" lon="0.72109">
        <ele>142.2</ele>
        <time>2022-05-25 00:22:12</time>
      </trkpt>
      <trkpt lat="40.86243" lon="0.72111">
        <ele>142.4</ele>
        <time>2022-05-25 00:22:13</time>
      </trkpt>
      <trkpt lat="40.86246" lon="0.72113">
        <ele>142.6</ele>
        <time>2022-05-25 00:22:14</time>
      </trkpt>
      <trkpt lat="40.86249" lon="0.72114">
        <ele>142.8</ele>
        <time>2022-05-25 00:22:15</time>
      </trkpt>
      <trkpt lat="40.86251" lon="0.72116">
        <ele>142.8</ele>
        <time>2022-05-25 00:22:16</time>
      </trkpt>
      <trkpt lat="40.86253" lon="0.72119">
        <ele>142.8</ele>
        <time>2022-05-25 00:22:17</time>
      </trkpt>
      <trkpt lat="40.86255" lon="0.72123">
        <ele>142.6</ele>
        <time>2022-05-25 00:22:18</time>
      </trkpt>
      <trkpt lat="40.86257" lon="0.72128">
        <ele>142.4</ele>
        <time>2022-05-25 00:22:19</time>
      </trkpt>
      <trkpt lat="40.86258" lon="0.72133">
        <ele>142</ele>
        <time>2022-05-25 00:22:20</time>
      </trkpt>
      <trkpt lat="40.86259" lon="0.72139">
        <ele>141.8</ele>
        <time>2022-05-25 00:22:21</time>
      </trkpt>
      <trkpt lat="40.86259" lon="0.72145">
        <ele>141.2</ele>
        <time>2022-05-25 00:22:22</time>
      </trkpt>
      <trkpt lat="40.86258" lon="0.72152">
        <ele>140.6</ele>
        <time>2022-05-25 00:22:23</time>
      </trkpt>
      <trkpt lat="40.86256" lon="0.72159">
        <ele>140</ele>
        <time>2022-05-25 00:22:24</time>
      </trkpt>
      <trkpt lat="40.86254" lon="0.72167">
        <ele>139.2</ele>
        <time>2022-05-25 00:22:25</time>
      </trkpt>
      <trkpt lat="40.86251" lon="0.72175">
        <ele>138.4</ele>
        <time>2022-05-25 00:22:26</time>
      </trkpt>
      <trkpt lat="40.86249" lon="0.72184">
        <ele>137.8</ele>
        <time>2022-05-25 00:22:27</time>
      </trkpt>
      <trkpt lat="40.86247" lon="0.72193">
        <ele>137.2</ele>
        <time>2022-05-25 00:22:28</time>
      </trkpt>
      <trkpt lat="40.86246" lon="0.72203">
        <ele>136.6</ele>
        <time>2022-05-25 00:22:29</time>
      </trkpt>
      <trkpt lat="40.86244" lon="0.72213">
        <ele>136</ele>
        <time>2022-05-25 00:22:30</time>
      </trkpt>
      <trkpt lat="40.86242" lon="0.72222">
        <ele>135.8</ele>
        <time>2022-05-25 00:22:31</time>
      </trkpt>
      <trkpt lat="40.8624" lon="0.72231">
        <ele>136</ele>
        <time>2022-05-25 00:22:32</time>
      </trkpt>
      <trkpt lat="40.8624" lon="0.72238">
        <ele>136.4</ele>
        <time>2022-05-25 00:22:33</time>
      </trkpt>
      <trkpt lat="40.8624" lon="0.72244">
        <ele>136.8</ele>
        <time>2022-05-25 00:22:34</time>
      </trkpt>
      <trkpt lat="40.86241" lon="0.72248">
        <ele>137.2</ele>
        <time>2022-05-25 00:22:35</time>
      </trkpt>
      <trkpt lat="40.86242" lon="0.7225">
        <ele>137.6</ele>
        <time>2022-05-25 00:22:36</time>
      </trkpt>
      <trkpt lat="40.86243" lon="0.72251">
        <ele>137.8</ele>
        <time>2022-05-25 00:22:37</time>
      </trkpt>
      <trkpt lat="40.86245" lon="0.72252">
        <ele>138</ele>
        <time>2022-05-25 00:22:38</time>
      </trkpt>
      <trkpt lat="40.86248" lon="0.72253">
        <ele>138.2</ele>
        <time>2022-05-25 00:22:39</time>
      </trkpt>
      <trkpt lat="40.86251" lon="0.72254">
        <ele>138.4</ele>
        <time>2022-05-25 00:22:40</time>
      </trkpt>
      <trkpt lat="40.86254" lon="0.72254">
        <ele>138.4</ele>
        <time>2022-05-25 00:22:41</time>
      </trkpt>
      <trkpt lat="40.86257" lon="0.72254">
        <ele>138.4</ele>
        <time>2022-05-25 00:22:42</time>
      </trkpt>
      <trkpt lat="40.86261" lon="0.72253">
        <ele>138.4</ele>
        <time>2022-05-25 00:22:43</time>
      </trkpt>
      <trkpt lat="40.86265" lon="0.72251">
        <ele>138.4</ele>
        <time>2022-05-25 00:22:44</time>
      </trkpt>
      <trkpt lat="40.86269" lon="0.72249">
        <ele>138.2</ele>
        <time>2022-05-25 00:22:45</time>
      </trkpt>
      <trkpt lat="40.86272" lon="0.72248">
        <ele>138.2</ele>
        <time>2022-05-25 00:22:46</time>
      </trkpt>
      <trkpt lat="40.86276" lon="0.72247">
        <ele>138</ele>
        <time>2022-05-25 00:22:47</time>
      </trkpt>
      <trkpt lat="40.8628" lon="0.72245">
        <ele>138</ele>
        <time>2022-05-25 00:22:48</time>
      </trkpt>
      <trkpt lat="40.86284" lon="0.72243">
        <ele>138</ele>
        <time>2022-05-25 00:22:49</time>
      </trkpt>
      <trkpt lat="40.86288" lon="0.72242">
        <ele>138</ele>
        <time>2022-05-25 00:22:50</time>
      </trkpt>
      <trkpt lat="40.86292" lon="0.72241">
        <ele>138</ele>
        <time>2022-05-25 00:22:51</time>
      </trkpt>
      <trkpt lat="40.86296" lon="0.7224">
        <ele>138</ele>
        <time>2022-05-25 00:22:52</time>
      </trkpt>
      <trkpt lat="40.86299" lon="0.72239">
        <ele>138.4</ele>
        <time>2022-05-25 00:22:53</time>
      </trkpt>
      <trkpt lat="40.86303" lon="0.72238">
        <ele>138.6</ele>
        <time>2022-05-25 00:22:54</time>
      </trkpt>
      <trkpt lat="40.86306" lon="0.72236">
        <ele>139</ele>
        <time>2022-05-25 00:22:55</time>
      </trkpt>
      <trkpt lat="40.86309" lon="0.72235">
        <ele>139.4</ele>
        <time>2022-05-25 00:22:56</time>
      </trkpt>
      <trkpt lat="40.86313" lon="0.72233">
        <ele>139.6</ele>
        <time>2022-05-25 00:22:57</time>
      </trkpt>
      <trkpt lat="40.86316" lon="0.72232">
        <ele>139.8</ele>
        <time>2022-05-25 00:22:58</time>
      </trkpt>
      <trkpt lat="40.86319" lon="0.72231">
        <ele>140</ele>
        <time>2022-05-25 00:22:59</time>
      </trkpt>
      <trkpt lat="40.86322" lon="0.7223">
        <ele>140.2</ele>
        <time>2022-05-25 00:23:00</time>
      </trkpt>
      <trkpt lat="40.86325" lon="0.72229">
        <ele>140.4</ele>
        <time>2022-05-25 00:23:01</time>
      </trkpt>
      <trkpt lat="40.86328" lon="0.72227">
        <ele>140.4</ele>
        <time>2022-05-25 00:23:02</time>
      </trkpt>
      <trkpt lat="40.86331" lon="0.72226">
        <ele>140.8</ele>
        <time>2022-05-25 00:23:03</time>
      </trkpt>
      <trkpt lat="40.86333" lon="0.72225">
        <ele>141</ele>
        <time>2022-05-25 00:23:04</time>
      </trkpt>
      <trkpt lat="40.86337" lon="0.72224">
        <ele>141.2</ele>
        <time>2022-05-25 00:23:05</time>
      </trkpt>
      <trkpt lat="40.86339" lon="0.72223">
        <ele>141.6</ele>
        <time>2022-05-25 00:23:06</time>
      </trkpt>
      <trkpt lat="40.86342" lon="0.72223">
        <ele>141.8</ele>
        <time>2022-05-25 00:23:07</time>
      </trkpt>
      <trkpt lat="40.86345" lon="0.72222">
        <ele>142</ele>
        <time>2022-05-25 00:23:08</time>
      </trkpt>
      <trkpt lat="40.86348" lon="0.72221">
        <ele>142.2</ele>
        <time>2022-05-25 00:23:09</time>
      </trkpt>
      <trkpt lat="40.86351" lon="0.7222">
        <ele>142.4</ele>
        <time>2022-05-25 00:23:10</time>
      </trkpt>
      <trkpt lat="40.86354" lon="0.72219">
        <ele>142.6</ele>
        <time>2022-05-25 00:23:11</time>
      </trkpt>
      <trkpt lat="40.86356" lon="0.72218">
        <ele>142.6</ele>
        <time>2022-05-25 00:23:12</time>
      </trkpt>
      <trkpt lat="40.86359" lon="0.72217">
        <ele>142.8</ele>
        <time>2022-05-25 00:23:13</time>
      </trkpt>
      <trkpt lat="40.86362" lon="0.72216">
        <ele>142.8</ele>
        <time>2022-05-25 00:23:14</time>
      </trkpt>
      <trkpt lat="40.86365" lon="0.72215">
        <ele>143</ele>
        <time>2022-05-25 00:23:15</time>
      </trkpt>
      <trkpt lat="40.86367" lon="0.72214">
        <ele>143.4</ele>
        <time>2022-05-25 00:23:16</time>
      </trkpt>
      <trkpt lat="40.8637" lon="0.72213">
        <ele>143.6</ele>
        <time>2022-05-25 00:23:17</time>
      </trkpt>
      <trkpt lat="40.86372" lon="0.72212">
        <ele>144</ele>
        <time>2022-05-25 00:23:18</time>
      </trkpt>
      <trkpt lat="40.86375" lon="0.72211">
        <ele>144.2</ele>
        <time>2022-05-25 00:23:19</time>
      </trkpt>
      <trkpt lat="40.86378" lon="0.72211">
        <ele>144.4</ele>
        <time>2022-05-25 00:23:20</time>
      </trkpt>
      <trkpt lat="40.8638" lon="0.72211">
        <ele>144.6</ele>
        <time>2022-05-25 00:23:21</time>
      </trkpt>
      <trkpt lat="40.86383" lon="0.72211">
        <ele>144.8</ele>
        <time>2022-05-25 00:23:22</time>
      </trkpt>
      <trkpt lat="40.86385" lon="0.72212">
        <ele>145</ele>
        <time>2022-05-25 00:23:23</time>
      </trkpt>
      <trkpt lat="40.86388" lon="0.72212">
        <ele>145.2</ele>
        <time>2022-05-25 00:23:24</time>
      </trkpt>
      <trkpt lat="40.8639" lon="0.72212">
        <ele>145.2</ele>
        <time>2022-05-25 00:23:25</time>
      </trkpt>
      <trkpt lat="40.86393" lon="0.72211">
        <ele>145.4</ele>
        <time>2022-05-25 00:23:26</time>
      </trkpt>
      <trkpt lat="40.86396" lon="0.7221">
        <ele>145.4</ele>
        <time>2022-05-25 00:23:27</time>
      </trkpt>
      <trkpt lat="40.86398" lon="0.7221">
        <ele>145.4</ele>
        <time>2022-05-25 00:23:28</time>
      </trkpt>
      <trkpt lat="40.86401" lon="0.72209">
        <ele>145.4</ele>
        <time>2022-05-25 00:23:29</time>
      </trkpt>
      <trkpt lat="40.86403" lon="0.72209">
        <ele>145.6</ele>
        <time>2022-05-25 00:23:30</time>
      </trkpt>
      <trkpt lat="40.86405" lon="0.72208">
        <ele>145.6</ele>
        <time>2022-05-25 00:23:31</time>
      </trkpt>
      <trkpt lat="40.86408" lon="0.72208">
        <ele>145.8</ele>
        <time>2022-05-25 00:23:32</time>
      </trkpt>
      <trkpt lat="40.86411" lon="0.72207">
        <ele>146</ele>
        <time>2022-05-25 00:23:33</time>
      </trkpt>
      <trkpt lat="40.86414" lon="0.72206">
        <ele>146.2</ele>
        <time>2022-05-25 00:23:34</time>
      </trkpt>
      <trkpt lat="40.86416" lon="0.72206">
        <ele>146.4</ele>
        <time>2022-05-25 00:23:35</time>
      </trkpt>
      <trkpt lat="40.86419" lon="0.72205">
        <ele>146.6</ele>
        <time>2022-05-25 00:23:36</time>
      </trkpt>
      <trkpt lat="40.86421" lon="0.72205">
        <ele>146.8</ele>
        <time>2022-05-25 00:23:37</time>
      </trkpt>
      <trkpt lat="40.86423" lon="0.72205">
        <ele>146.8</ele>
        <time>2022-05-25 00:23:38</time>
      </trkpt>
      <trkpt lat="40.86426" lon="0.72204">
        <ele>147</ele>
        <time>2022-05-25 00:23:39</time>
      </trkpt>
      <trkpt lat="40.86429" lon="0.72204">
        <ele>147.2</ele>
        <time>2022-05-25 00:23:40</time>
      </trkpt>
      <trkpt lat="40.86432" lon="0.72203">
        <ele>147.2</ele>
        <time>2022-05-25 00:23:41</time>
      </trkpt>
      <trkpt lat="40.86435" lon="0.72203">
        <ele>147.4</ele>
        <time>2022-05-25 00:23:42</time>
      </trkpt>
      <trkpt lat="40.86437" lon="0.72202">
        <ele>147.4</ele>
        <time>2022-05-25 00:23:43</time>
      </trkpt>
      <trkpt lat="40.8644" lon="0.72202">
        <ele>147.6</ele>
        <time>2022-05-25 00:23:44</time>
      </trkpt>
      <trkpt lat="40.86443" lon="0.72201">
        <ele>147.6</ele>
        <time>2022-05-25 00:23:45</time>
      </trkpt>
      <trkpt lat="40.86445" lon="0.72201">
        <ele>147.6</ele>
        <time>2022-05-25 00:23:46</time>
      </trkpt>
      <trkpt lat="40.86448" lon="0.722">
        <ele>147.8</ele>
        <time>2022-05-25 00:23:47</time>
      </trkpt>
      <trkpt lat="40.86451" lon="0.72199">
        <ele>148</ele>
        <time>2022-05-25 00:23:48</time>
      </trkpt>
      <trkpt lat="40.86454" lon="0.72199">
        <ele>148</ele>
        <time>2022-05-25 00:23:49</time>
      </trkpt>
      <trkpt lat="40.86456" lon="0.72198">
        <ele>148.2</ele>
        <time>2022-05-25 00:23:50</time>
      </trkpt>
      <trkpt lat="40.86459" lon="0.72198">
        <ele>148</ele>
        <time>2022-05-25 00:23:51</time>
      </trkpt>
      <trkpt lat="40.86462" lon="0.72197">
        <ele>148.2</ele>
        <time>2022-05-25 00:23:52</time>
      </trkpt>
      <trkpt lat="40.86465" lon="0.72197">
        <ele>148</ele>
        <time>2022-05-25 00:23:53</time>
      </trkpt>
      <trkpt lat="40.86468" lon="0.72197">
        <ele>148.2</ele>
        <time>2022-05-25 00:23:54</time>
      </trkpt>
      <trkpt lat="40.86471" lon="0.72197">
        <ele>148.2</ele>
        <time>2022-05-25 00:23:55</time>
      </trkpt>
      <trkpt lat="40.86473" lon="0.72197">
        <ele>148.4</ele>
        <time>2022-05-25 00:23:56</time>
      </trkpt>
      <trkpt lat="40.86477" lon="0.72196">
        <ele>148.4</ele>
        <time>2022-05-25 00:23:57</time>
      </trkpt>
      <trkpt lat="40.86479" lon="0.72195">
        <ele>148.4</ele>
        <time>2022-05-25 00:23:58</time>
      </trkpt>
      <trkpt lat="40.86482" lon="0.72195">
        <ele>148.6</ele>
        <time>2022-05-25 00:23:59</time>
      </trkpt>
      <trkpt lat="40.86485" lon="0.72194">
        <ele>148.4</ele>
        <time>2022-05-25 00:24:00</time>
      </trkpt>
      <trkpt lat="40.86488" lon="0.72193">
        <ele>148.4</ele>
        <time>2022-05-25 00:24:01</time>
      </trkpt>
      <trkpt lat="40.86491" lon="0.72192">
        <ele>148.4</ele>
        <time>2022-05-25 00:24:02</time>
      </trkpt>
      <trkpt lat="40.86494" lon="0.72192">
        <ele>148.6</ele>
        <time>2022-05-25 00:24:03</time>
      </trkpt>
      <trkpt lat="40.86497" lon="0.72192">
        <ele>148.8</ele>
        <time>2022-05-25 00:24:04</time>
      </trkpt>
      <trkpt lat="40.865" lon="0.72191">
        <ele>148.8</ele>
        <time>2022-05-25 00:24:05</time>
      </trkpt>
      <trkpt lat="40.86503" lon="0.72191">
        <ele>149</ele>
        <time>2022-05-25 00:24:06</time>
      </trkpt>
      <trkpt lat="40.86506" lon="0.7219">
        <ele>149</ele>
        <time>2022-05-25 00:24:07</time>
      </trkpt>
      <trkpt lat="40.86509" lon="0.7219">
        <ele>149</ele>
        <time>2022-05-25 00:24:08</time>
      </trkpt>
      <trkpt lat="40.86512" lon="0.72189">
        <ele>149</ele>
        <time>2022-05-25 00:24:09</time>
      </trkpt>
      <trkpt lat="40.86515" lon="0.72189">
        <ele>149</ele>
        <time>2022-05-25 00:24:10</time>
      </trkpt>
      <trkpt lat="40.86518" lon="0.72188">
        <ele>149</ele>
        <time>2022-05-25 00:24:11</time>
      </trkpt>
      <trkpt lat="40.86522" lon="0.72188">
        <ele>149</ele>
        <time>2022-05-25 00:24:12</time>
      </trkpt>
      <trkpt lat="40.86525" lon="0.72187">
        <ele>149</ele>
        <time>2022-05-25 00:24:13</time>
      </trkpt>
      <trkpt lat="40.86528" lon="0.72187">
        <ele>149</ele>
        <time>2022-05-25 00:24:14</time>
      </trkpt>
      <trkpt lat="40.86531" lon="0.72186">
        <ele>149</ele>
        <time>2022-05-25 00:24:15</time>
      </trkpt>
      <trkpt lat="40.86534" lon="0.72185">
        <ele>149</ele>
        <time>2022-05-25 00:24:16</time>
      </trkpt>
      <trkpt lat="40.86538" lon="0.72185">
        <ele>149</ele>
        <time>2022-05-25 00:24:17</time>
      </trkpt>
      <trkpt lat="40.86541" lon="0.72184">
        <ele>149</ele>
        <time>2022-05-25 00:24:18</time>
      </trkpt>
      <trkpt lat="40.86544" lon="0.72184">
        <ele>149</ele>
        <time>2022-05-25 00:24:19</time>
      </trkpt>
      <trkpt lat="40.86548" lon="0.72183">
        <ele>149.2</ele>
        <time>2022-05-25 00:24:20</time>
      </trkpt>
      <trkpt lat="40.86551" lon="0.72182">
        <ele>149.4</ele>
        <time>2022-05-25 00:24:21</time>
      </trkpt>
      <trkpt lat="40.86554" lon="0.72182">
        <ele>149.4</ele>
        <time>2022-05-25 00:24:22</time>
      </trkpt>
      <trkpt lat="40.86557" lon="0.72181">
        <ele>149.6</ele>
        <time>2022-05-25 00:24:23</time>
      </trkpt>
      <trkpt lat="40.8656" lon="0.7218">
        <ele>149.8</ele>
        <time>2022-05-25 00:24:24</time>
      </trkpt>
      <trkpt lat="40.86564" lon="0.72179">
        <ele>149.8</ele>
        <time>2022-05-25 00:24:25</time>
      </trkpt>
      <trkpt lat="40.86567" lon="0.72178">
        <ele>149.8</ele>
        <time>2022-05-25 00:24:26</time>
      </trkpt>
      <trkpt lat="40.8657" lon="0.72177">
        <ele>150</ele>
        <time>2022-05-25 00:24:27</time>
      </trkpt>
      <trkpt lat="40.86574" lon="0.72177">
        <ele>150</ele>
        <time>2022-05-25 00:24:28</time>
      </trkpt>
      <trkpt lat="40.86578" lon="0.72176">
        <ele>150</ele>
        <time>2022-05-25 00:24:29</time>
      </trkpt>
      <trkpt lat="40.86581" lon="0.72174">
        <ele>150.2</ele>
        <time>2022-05-25 00:24:30</time>
      </trkpt>
      <trkpt lat="40.86584" lon="0.72173">
        <ele>150.2</ele>
        <time>2022-05-25 00:24:31</time>
      </trkpt>
      <trkpt lat="40.86587" lon="0.72172">
        <ele>150.2</ele>
        <time>2022-05-25 00:24:32</time>
      </trkpt>
      <trkpt lat="40.8659" lon="0.72171">
        <ele>150.2</ele>
        <time>2022-05-25 00:24:33</time>
      </trkpt>
      <trkpt lat="40.86593" lon="0.7217">
        <ele>150.4</ele>
        <time>2022-05-25 00:24:34</time>
      </trkpt>
      <trkpt lat="40.86597" lon="0.72169">
        <ele>150.4</ele>
        <time>2022-05-25 00:24:35</time>
      </trkpt>
      <trkpt lat="40.866" lon="0.72168">
        <ele>150.6</ele>
        <time>2022-05-25 00:24:36</time>
      </trkpt>
      <trkpt lat="40.86604" lon="0.72166">
        <ele>150.6</ele>
        <time>2022-05-25 00:24:37</time>
      </trkpt>
      <trkpt lat="40.86607" lon="0.72165">
        <ele>150.8</ele>
        <time>2022-05-25 00:24:38</time>
      </trkpt>
      <trkpt lat="40.8661" lon="0.72163">
        <ele>150.8</ele>
        <time>2022-05-25 00:24:39</time>
      </trkpt>
      <trkpt lat="40.86613" lon="0.72162">
        <ele>151</ele>
        <time>2022-05-25 00:24:40</time>
      </trkpt>
      <trkpt lat="40.86617" lon="0.7216">
        <ele>151</ele>
        <time>2022-05-25 00:24:41</time>
      </trkpt>
      <trkpt lat="40.8662" lon="0.72158">
        <ele>151</ele>
        <time>2022-05-25 00:24:42</time>
      </trkpt>
      <trkpt lat="40.86623" lon="0.72157">
        <ele>151.2</ele>
        <time>2022-05-25 00:24:43</time>
      </trkpt>
      <trkpt lat="40.86626" lon="0.72155">
        <ele>151.2</ele>
        <time>2022-05-25 00:24:44</time>
      </trkpt>
      <trkpt lat="40.86629" lon="0.72153">
        <ele>151</ele>
        <time>2022-05-25 00:24:45</time>
      </trkpt>
      <trkpt lat="40.86632" lon="0.72151">
        <ele>151</ele>
        <time>2022-05-25 00:24:46</time>
      </trkpt>
      <trkpt lat="40.86635" lon="0.72149">
        <ele>151.2</ele>
        <time>2022-05-25 00:24:47</time>
      </trkpt>
      <trkpt lat="40.86638" lon="0.72148">
        <ele>151.4</ele>
        <time>2022-05-25 00:24:48</time>
      </trkpt>
      <trkpt lat="40.86642" lon="0.72146">
        <ele>151.4</ele>
        <time>2022-05-25 00:24:49</time>
      </trkpt>
      <trkpt lat="40.86645" lon="0.72144">
        <ele>151.4</ele>
        <time>2022-05-25 00:24:50</time>
      </trkpt>
      <trkpt lat="40.86647" lon="0.72143">
        <ele>151.6</ele>
        <time>2022-05-25 00:24:51</time>
      </trkpt>
      <trkpt lat="40.8665" lon="0.72141">
        <ele>151.8</ele>
        <time>2022-05-25 00:24:52</time>
      </trkpt>
      <trkpt lat="40.86653" lon="0.7214">
        <ele>152</ele>
        <time>2022-05-25 00:24:53</time>
      </trkpt>
      <trkpt lat="40.86656" lon="0.7214">
        <ele>152.2</ele>
        <time>2022-05-25 00:24:54</time>
      </trkpt>
      <trkpt lat="40.86659" lon="0.72141">
        <ele>152.6</ele>
        <time>2022-05-25 00:24:55</time>
      </trkpt>
      <trkpt lat="40.86662" lon="0.72141">
        <ele>152.8</ele>
        <time>2022-05-25 00:24:56</time>
      </trkpt>
      <trkpt lat="40.86665" lon="0.72141">
        <ele>152.8</ele>
        <time>2022-05-25 00:24:57</time>
      </trkpt>
      <trkpt lat="40.86667" lon="0.7214">
        <ele>153</ele>
        <time>2022-05-25 00:24:58</time>
      </trkpt>
      <trkpt lat="40.8667" lon="0.7214">
        <ele>153.2</ele>
        <time>2022-05-25 00:24:59</time>
      </trkpt>
      <trkpt lat="40.86672" lon="0.72139">
        <ele>153.4</ele>
        <time>2022-05-25 00:25:00</time>
      </trkpt>
      <trkpt lat="40.86674" lon="0.72138">
        <ele>153.2</ele>
        <time>2022-05-25 00:25:01</time>
      </trkpt>
      <trkpt lat="40.86677" lon="0.72136">
        <ele>153</ele>
        <time>2022-05-25 00:25:02</time>
      </trkpt>
      <trkpt lat="40.86679" lon="0.72134">
        <ele>153</ele>
        <time>2022-05-25 00:25:03</time>
      </trkpt>
      <trkpt lat="40.8668" lon="0.72132">
        <ele>153</ele>
        <time>2022-05-25 00:25:04</time>
      </trkpt>
      <trkpt lat="40.86681" lon="0.72129">
        <ele>153</ele>
        <time>2022-05-25 00:25:05</time>
      </trkpt>
      <trkpt lat="40.86682" lon="0.72126">
        <ele>153.2</ele>
        <time>2022-05-25 00:25:06</time>
      </trkpt>
      <trkpt lat="40.86683" lon="0.72123">
        <ele>153.4</ele>
        <time>2022-05-25 00:25:07</time>
      </trkpt>
      <trkpt lat="40.86684" lon="0.7212">
        <ele>153.6</ele>
        <time>2022-05-25 00:25:08</time>
      </trkpt>
      <trkpt lat="40.86685" lon="0.72118">
        <ele>154</ele>
        <time>2022-05-25 00:25:09</time>
      </trkpt>
      <trkpt lat="40.86687" lon="0.72116">
        <ele>154.2</ele>
        <time>2022-05-25 00:25:10</time>
      </trkpt>
      <trkpt lat="40.86689" lon="0.72114">
        <ele>154.2</ele>
        <time>2022-05-25 00:25:11</time>
      </trkpt>
      <trkpt lat="40.86691" lon="0.72113">
        <ele>154.4</ele>
        <time>2022-05-25 00:25:12</time>
      </trkpt>
      <trkpt lat="40.86692" lon="0.72111">
        <ele>154.6</ele>
        <time>2022-05-25 00:25:13</time>
      </trkpt>
      <trkpt lat="40.86694" lon="0.72109">
        <ele>154.8</ele>
        <time>2022-05-25 00:25:14</time>
      </trkpt>
      <trkpt lat="40.86697" lon="0.72107">
        <ele>155</ele>
        <time>2022-05-25 00:25:15</time>
      </trkpt>
      <trkpt lat="40.86699" lon="0.72105">
        <ele>155.2</ele>
        <time>2022-05-25 00:25:16</time>
      </trkpt>
      <trkpt lat="40.86701" lon="0.72103">
        <ele>155.4</ele>
        <time>2022-05-25 00:25:17</time>
      </trkpt>
      <trkpt lat="40.86703" lon="0.72102">
        <ele>155.4</ele>
        <time>2022-05-25 00:25:18</time>
      </trkpt>
      <trkpt lat="40.86705" lon="0.721">
        <ele>155.6</ele>
        <time>2022-05-25 00:25:19</time>
      </trkpt>
      <trkpt lat="40.86708" lon="0.72099">
        <ele>155.8</ele>
        <time>2022-05-25 00:25:20</time>
      </trkpt>
      <trkpt lat="40.8671" lon="0.72097">
        <ele>155.8</ele>
        <time>2022-05-25 00:25:21</time>
      </trkpt>
      <trkpt lat="40.86712" lon="0.72095">
        <ele>155.8</ele>
        <time>2022-05-25 00:25:22</time>
      </trkpt>
      <trkpt lat="40.86714" lon="0.72093">
        <ele>155.8</ele>
        <time>2022-05-25 00:25:23</time>
      </trkpt>
      <trkpt lat="40.86716" lon="0.72091">
        <ele>155.8</ele>
        <time>2022-05-25 00:25:24</time>
      </trkpt>
      <trkpt lat="40.86718" lon="0.72089">
        <ele>156</ele>
        <time>2022-05-25 00:25:25</time>
      </trkpt>
      <trkpt lat="40.8672" lon="0.72088">
        <ele>156.2</ele>
        <time>2022-05-25 00:25:26</time>
      </trkpt>
      <trkpt lat="40.86722" lon="0.72087">
        <ele>156.4</ele>
        <time>2022-05-25 00:25:27</time>
      </trkpt>
      <trkpt lat="40.86724" lon="0.72085">
        <ele>156.4</ele>
        <time>2022-05-25 00:25:28</time>
      </trkpt>
      <trkpt lat="40.86726" lon="0.72083">
        <ele>156.2</ele>
        <time>2022-05-25 00:25:29</time>
      </trkpt>
      <trkpt lat="40.86728" lon="0.72081">
        <ele>156</ele>
        <time>2022-05-25 00:25:30</time>
      </trkpt>
      <trkpt lat="40.86729" lon="0.7208">
        <ele>156.4</ele>
        <time>2022-05-25 00:25:31</time>
      </trkpt>
      <trkpt lat="40.86731" lon="0.72076">
        <ele>156.8</ele>
        <time>2022-05-25 00:25:32</time>
      </trkpt>
      <trkpt lat="40.86733" lon="0.72074">
        <ele>157</ele>
        <time>2022-05-25 00:25:33</time>
      </trkpt>
      <trkpt lat="40.86735" lon="0.72072">
        <ele>157.4</ele>
        <time>2022-05-25 00:25:34</time>
      </trkpt>
      <trkpt lat="40.86736" lon="0.7207">
        <ele>157.6</ele>
        <time>2022-05-25 00:25:35</time>
      </trkpt>
      <trkpt lat="40.86737" lon="0.72067">
        <ele>157.8</ele>
        <time>2022-05-25 00:25:36</time>
      </trkpt>
      <trkpt lat="40.86739" lon="0.72064">
        <ele>158.2</ele>
        <time>2022-05-25 00:25:37</time>
      </trkpt>
      <trkpt lat="40.8674" lon="0.72062">
        <ele>158.4</ele>
        <time>2022-05-25 00:25:38</time>
      </trkpt>
      <trkpt lat="40.86742" lon="0.72059">
        <ele>158.6</ele>
        <time>2022-05-25 00:25:39</time>
      </trkpt>
      <trkpt lat="40.86744" lon="0.72057">
        <ele>158.8</ele>
        <time>2022-05-25 00:25:40</time>
      </trkpt>
      <trkpt lat="40.86745" lon="0.72054">
        <ele>159</ele>
        <time>2022-05-25 00:25:41</time>
      </trkpt>
      <trkpt lat="40.86747" lon="0.72052">
        <ele>159.2</ele>
        <time>2022-05-25 00:25:42</time>
      </trkpt>
      <trkpt lat="40.86748" lon="0.7205">
        <ele>159.4</ele>
        <time>2022-05-25 00:25:43</time>
      </trkpt>
      <trkpt lat="40.86749" lon="0.72047">
        <ele>159.4</ele>
        <time>2022-05-25 00:25:44</time>
      </trkpt>
      <trkpt lat="40.8675" lon="0.72045">
        <ele>159.4</ele>
        <time>2022-05-25 00:25:45</time>
      </trkpt>
      <trkpt lat="40.86751" lon="0.72042">
        <ele>159.4</ele>
        <time>2022-05-25 00:25:46</time>
      </trkpt>
      <trkpt lat="40.86752" lon="0.72039">
        <ele>159.6</ele>
        <time>2022-05-25 00:25:47</time>
      </trkpt>
      <trkpt lat="40.86753" lon="0.72036">
        <ele>159.8</ele>
        <time>2022-05-25 00:25:48</time>
      </trkpt>
      <trkpt lat="40.86755" lon="0.72033">
        <ele>160</ele>
        <time>2022-05-25 00:25:49</time>
      </trkpt>
      <trkpt lat="40.86756" lon="0.72031">
        <ele>160.2</ele>
        <time>2022-05-25 00:25:50</time>
      </trkpt>
      <trkpt lat="40.86757" lon="0.72028">
        <ele>160.4</ele>
        <time>2022-05-25 00:25:51</time>
      </trkpt>
      <trkpt lat="40.86758" lon="0.72025">
        <ele>160.2</ele>
        <time>2022-05-25 00:25:52</time>
      </trkpt>
      <trkpt lat="40.86759" lon="0.72022">
        <ele>160.4</ele>
        <time>2022-05-25 00:25:53</time>
      </trkpt>
      <trkpt lat="40.8676" lon="0.72019">
        <ele>160.4</ele>
        <time>2022-05-25 00:25:54</time>
      </trkpt>
      <trkpt lat="40.86761" lon="0.72017">
        <ele>160.6</ele>
        <time>2022-05-25 00:25:55</time>
      </trkpt>
      <trkpt lat="40.86763" lon="0.72014">
        <ele>160.6</ele>
        <time>2022-05-25 00:25:56</time>
      </trkpt>
      <trkpt lat="40.86764" lon="0.72012">
        <ele>160.8</ele>
        <time>2022-05-25 00:25:57</time>
      </trkpt>
      <trkpt lat="40.86765" lon="0.72009">
        <ele>161</ele>
        <time>2022-05-25 00:25:58</time>
      </trkpt>
      <trkpt lat="40.86766" lon="0.72007">
        <ele>161.2</ele>
        <time>2022-05-25 00:25:59</time>
      </trkpt>
      <trkpt lat="40.86767" lon="0.72004">
        <ele>161.2</ele>
        <time>2022-05-25 00:26:00</time>
      </trkpt>
      <trkpt lat="40.86768" lon="0.72001">
        <ele>161.2</ele>
        <time>2022-05-25 00:26:01</time>
      </trkpt>
      <trkpt lat="40.86769" lon="0.71998">
        <ele>161.4</ele>
        <time>2022-05-25 00:26:02</time>
      </trkpt>
      <trkpt lat="40.8677" lon="0.71996">
        <ele>161.8</ele>
        <time>2022-05-25 00:26:03</time>
      </trkpt>
      <trkpt lat="40.86771" lon="0.71993">
        <ele>162</ele>
        <time>2022-05-25 00:26:04</time>
      </trkpt>
      <trkpt lat="40.86773" lon="0.7199">
        <ele>162.2</ele>
        <time>2022-05-25 00:26:05</time>
      </trkpt>
      <trkpt lat="40.86773" lon="0.71988">
        <ele>162.2</ele>
        <time>2022-05-25 00:26:06</time>
      </trkpt>
      <trkpt lat="40.86774" lon="0.71985">
        <ele>162.4</ele>
        <time>2022-05-25 00:26:07</time>
      </trkpt>
      <trkpt lat="40.86776" lon="0.71982">
        <ele>162.4</ele>
        <time>2022-05-25 00:26:08</time>
      </trkpt>
      <trkpt lat="40.86777" lon="0.7198">
        <ele>162.6</ele>
        <time>2022-05-25 00:26:09</time>
      </trkpt>
      <trkpt lat="40.86778" lon="0.71977">
        <ele>163</ele>
        <time>2022-05-25 00:26:10</time>
      </trkpt>
      <trkpt lat="40.86779" lon="0.71975">
        <ele>163.4</ele>
        <time>2022-05-25 00:26:11</time>
      </trkpt>
      <trkpt lat="40.8678" lon="0.71972">
        <ele>163.6</ele>
        <time>2022-05-25 00:26:12</time>
      </trkpt>
      <trkpt lat="40.86781" lon="0.71969">
        <ele>163.8</ele>
        <time>2022-05-25 00:26:13</time>
      </trkpt>
      <trkpt lat="40.86782" lon="0.71966">
        <ele>163.8</ele>
        <time>2022-05-25 00:26:14</time>
      </trkpt>
      <trkpt lat="40.86783" lon="0.71963">
        <ele>164</ele>
        <time>2022-05-25 00:26:15</time>
      </trkpt>
      <trkpt lat="40.86784" lon="0.7196">
        <ele>164.2</ele>
        <time>2022-05-25 00:26:16</time>
      </trkpt>
      <trkpt lat="40.86784" lon="0.71958">
        <ele>164.2</ele>
        <time>2022-05-25 00:26:17</time>
      </trkpt>
      <trkpt lat="40.86786" lon="0.71955">
        <ele>164.4</ele>
        <time>2022-05-25 00:26:18</time>
      </trkpt>
      <trkpt lat="40.86787" lon="0.71953">
        <ele>164.4</ele>
        <time>2022-05-25 00:26:19</time>
      </trkpt>
      <trkpt lat="40.86788" lon="0.7195">
        <ele>164.4</ele>
        <time>2022-05-25 00:26:20</time>
      </trkpt>
      <trkpt lat="40.86789" lon="0.71948">
        <ele>164.4</ele>
        <time>2022-05-25 00:26:21</time>
      </trkpt>
      <trkpt lat="40.86789" lon="0.71944">
        <ele>164.6</ele>
        <time>2022-05-25 00:26:22</time>
      </trkpt>
      <trkpt lat="40.86789" lon="0.71941">
        <ele>164.6</ele>
        <time>2022-05-25 00:26:23</time>
      </trkpt>
      <trkpt lat="40.86789" lon="0.71938">
        <ele>164.6</ele>
        <time>2022-05-25 00:26:24</time>
      </trkpt>
      <trkpt lat="40.86789" lon="0.71935">
        <ele>164.8</ele>
        <time>2022-05-25 00:26:25</time>
      </trkpt>
      <trkpt lat="40.86789" lon="0.71932">
        <ele>164.8</ele>
        <time>2022-05-25 00:26:26</time>
      </trkpt>
      <trkpt lat="40.86789" lon="0.71929">
        <ele>165</ele>
        <time>2022-05-25 00:26:27</time>
      </trkpt>
      <trkpt lat="40.86789" lon="0.71925">
        <ele>165.2</ele>
        <time>2022-05-25 00:26:28</time>
      </trkpt>
      <trkpt lat="40.86789" lon="0.71922">
        <ele>165.4</ele>
        <time>2022-05-25 00:26:29</time>
      </trkpt>
      <trkpt lat="40.86788" lon="0.71919">
        <ele>165.4</ele>
        <time>2022-05-25 00:26:30</time>
      </trkpt>
      <trkpt lat="40.86787" lon="0.71915">
        <ele>165.4</ele>
        <time>2022-05-25 00:26:31</time>
      </trkpt>
      <trkpt lat="40.86786" lon="0.71912">
        <ele>165.6</ele>
        <time>2022-05-25 00:26:32</time>
      </trkpt>
      <trkpt lat="40.86784" lon="0.71908">
        <ele>165.2</ele>
        <time>2022-05-25 00:26:33</time>
      </trkpt>
      <trkpt lat="40.86783" lon="0.71904">
        <ele>165.2</ele>
        <time>2022-05-25 00:26:34</time>
      </trkpt>
      <trkpt lat="40.86781" lon="0.719">
        <ele>165</ele>
        <time>2022-05-25 00:26:35</time>
      </trkpt>
      <trkpt lat="40.86779" lon="0.71895">
        <ele>165</ele>
        <time>2022-05-25 00:26:36</time>
      </trkpt>
      <trkpt lat="40.86776" lon="0.71891">
        <ele>165</ele>
        <time>2022-05-25 00:26:37</time>
      </trkpt>
      <trkpt lat="40.86774" lon="0.71887">
        <ele>165</ele>
        <time>2022-05-25 00:26:38</time>
      </trkpt>
      <trkpt lat="40.86771" lon="0.71883">
        <ele>165.2</ele>
        <time>2022-05-25 00:26:39</time>
      </trkpt>
      <trkpt lat="40.86769" lon="0.71878">
        <ele>165.2</ele>
        <time>2022-05-25 00:26:40</time>
      </trkpt>
      <trkpt lat="40.86766" lon="0.71874">
        <ele>165.2</ele>
        <time>2022-05-25 00:26:41</time>
      </trkpt>
      <trkpt lat="40.86764" lon="0.71869">
        <ele>165.2</ele>
        <time>2022-05-25 00:26:42</time>
      </trkpt>
      <trkpt lat="40.86761" lon="0.71864">
        <ele>165.2</ele>
        <time>2022-05-25 00:26:43</time>
      </trkpt>
      <trkpt lat="40.86758" lon="0.7186">
        <ele>165.2</ele>
        <time>2022-05-25 00:26:44</time>
      </trkpt>
      <trkpt lat="40.86755" lon="0.71855">
        <ele>165.4</ele>
        <time>2022-05-25 00:26:45</time>
      </trkpt>
      <trkpt lat="40.86752" lon="0.7185">
        <ele>165.8</ele>
        <time>2022-05-25 00:26:46</time>
      </trkpt>
      <trkpt lat="40.86749" lon="0.71846">
        <ele>165.8</ele>
        <time>2022-05-25 00:26:47</time>
      </trkpt>
      <trkpt lat="40.86746" lon="0.71841">
        <ele>165.6</ele>
        <time>2022-05-25 00:26:48</time>
      </trkpt>
      <trkpt lat="40.86743" lon="0.71836">
        <ele>165.4</ele>
        <time>2022-05-25 00:26:49</time>
      </trkpt>
      <trkpt lat="40.8674" lon="0.7183">
        <ele>165</ele>
        <time>2022-05-25 00:26:50</time>
      </trkpt>
      <trkpt lat="40.86736" lon="0.71825">
        <ele>164.6</ele>
        <time>2022-05-25 00:26:51</time>
      </trkpt>
      <trkpt lat="40.86732" lon="0.71819">
        <ele>164.2</ele>
        <time>2022-05-25 00:26:52</time>
      </trkpt>
      <trkpt lat="40.86728" lon="0.71813">
        <ele>163.6</ele>
        <time>2022-05-25 00:26:53</time>
      </trkpt>
      <trkpt lat="40.86724" lon="0.71806">
        <ele>163.4</ele>
        <time>2022-05-25 00:26:54</time>
      </trkpt>
      <trkpt lat="40.86721" lon="0.71798">
        <ele>163</ele>
        <time>2022-05-25 00:26:55</time>
      </trkpt>
      <trkpt lat="40.86718" lon="0.71789">
        <ele>162.2</ele>
        <time>2022-05-25 00:26:56</time>
      </trkpt>
      <trkpt lat="40.86716" lon="0.71779">
        <ele>161.6</ele>
        <time>2022-05-25 00:26:57</time>
      </trkpt>
      <trkpt lat="40.86715" lon="0.71769">
        <ele>161.2</ele>
        <time>2022-05-25 00:26:58</time>
      </trkpt>
      <trkpt lat="40.86716" lon="0.71759">
        <ele>161</ele>
        <time>2022-05-25 00:26:59</time>
      </trkpt>
      <trkpt lat="40.86719" lon="0.71749">
        <ele>160.6</ele>
        <time>2022-05-25 00:27:00</time>
      </trkpt>
      <trkpt lat="40.86722" lon="0.71741">
        <ele>160.4</ele>
        <time>2022-05-25 00:27:01</time>
      </trkpt>
      <trkpt lat="40.86726" lon="0.71735">
        <ele>160.2</ele>
        <time>2022-05-25 00:27:02</time>
      </trkpt>
      <trkpt lat="40.86731" lon="0.71726">
        <ele>160</ele>
        <time>2022-05-25 00:27:03</time>
      </trkpt>
      <trkpt lat="40.86735" lon="0.71721">
        <ele>160</ele>
        <time>2022-05-25 00:27:04</time>
      </trkpt>
      <trkpt lat="40.86739" lon="0.71716">
        <ele>160</ele>
        <time>2022-05-25 00:27:05</time>
      </trkpt>
      <trkpt lat="40.86743" lon="0.7171">
        <ele>160.2</ele>
        <time>2022-05-25 00:27:06</time>
      </trkpt>
      <trkpt lat="40.86747" lon="0.71706">
        <ele>160.4</ele>
        <time>2022-05-25 00:27:07</time>
      </trkpt>
      <trkpt lat="40.86751" lon="0.71702">
        <ele>160.6</ele>
        <time>2022-05-25 00:27:08</time>
      </trkpt>
      <trkpt lat="40.86755" lon="0.71698">
        <ele>160.8</ele>
        <time>2022-05-25 00:27:09</time>
      </trkpt>
      <trkpt lat="40.86758" lon="0.71694">
        <ele>161</ele>
        <time>2022-05-25 00:27:10</time>
      </trkpt>
      <trkpt lat="40.86761" lon="0.71691">
        <ele>161</ele>
        <time>2022-05-25 00:27:11</time>
      </trkpt>
      <trkpt lat="40.86763" lon="0.71688">
        <ele>161.2</ele>
        <time>2022-05-25 00:27:12</time>
      </trkpt>
      <trkpt lat="40.86766" lon="0.71685">
        <ele>161.4</ele>
        <time>2022-05-25 00:27:13</time>
      </trkpt>
      <trkpt lat="40.86768" lon="0.71682">
        <ele>161.4</ele>
        <time>2022-05-25 00:27:14</time>
      </trkpt>
      <trkpt lat="40.86771" lon="0.71679">
        <ele>161.6</ele>
        <time>2022-05-25 00:27:15</time>
      </trkpt>
      <trkpt lat="40.86774" lon="0.71676">
        <ele>161.6</ele>
        <time>2022-05-25 00:27:16</time>
      </trkpt>
      <trkpt lat="40.86776" lon="0.71673">
        <ele>161.6</ele>
        <time>2022-05-25 00:27:17</time>
      </trkpt>
      <trkpt lat="40.86779" lon="0.71669">
        <ele>161.8</ele>
        <time>2022-05-25 00:27:18</time>
      </trkpt>
      <trkpt lat="40.86782" lon="0.71666">
        <ele>162</ele>
        <time>2022-05-25 00:27:19</time>
      </trkpt>
      <trkpt lat="40.86784" lon="0.71663">
        <ele>161.8</ele>
        <time>2022-05-25 00:27:20</time>
      </trkpt>
      <trkpt lat="40.86787" lon="0.7166">
        <ele>161.6</ele>
        <time>2022-05-25 00:27:21</time>
      </trkpt>
      <trkpt lat="40.8679" lon="0.71657">
        <ele>161.6</ele>
        <time>2022-05-25 00:27:22</time>
      </trkpt>
      <trkpt lat="40.86794" lon="0.71654">
        <ele>162</ele>
        <time>2022-05-25 00:27:23</time>
      </trkpt>
      <trkpt lat="40.86796" lon="0.71651">
        <ele>162</ele>
        <time>2022-05-25 00:27:24</time>
      </trkpt>
      <trkpt lat="40.86798" lon="0.71648">
        <ele>162</ele>
        <time>2022-05-25 00:27:25</time>
      </trkpt>
      <trkpt lat="40.86801" lon="0.71646">
        <ele>162.2</ele>
        <time>2022-05-25 00:27:26</time>
      </trkpt>
      <trkpt lat="40.86804" lon="0.71643">
        <ele>162.2</ele>
        <time>2022-05-25 00:27:27</time>
      </trkpt>
      <trkpt lat="40.86807" lon="0.7164">
        <ele>162.2</ele>
        <time>2022-05-25 00:27:28</time>
      </trkpt>
      <trkpt lat="40.8681" lon="0.71637">
        <ele>162.2</ele>
        <time>2022-05-25 00:27:29</time>
      </trkpt>
      <trkpt lat="40.86812" lon="0.71635">
        <ele>162.2</ele>
        <time>2022-05-25 00:27:30</time>
      </trkpt>
      <trkpt lat="40.86814" lon="0.71633">
        <ele>162.2</ele>
        <time>2022-05-25 00:27:31</time>
      </trkpt>
      <trkpt lat="40.86817" lon="0.71629">
        <ele>162</ele>
        <time>2022-05-25 00:27:32</time>
      </trkpt>
      <trkpt lat="40.86819" lon="0.71626">
        <ele>162</ele>
        <time>2022-05-25 00:27:33</time>
      </trkpt>
      <trkpt lat="40.86822" lon="0.71624">
        <ele>162.4</ele>
        <time>2022-05-25 00:27:34</time>
      </trkpt>
      <trkpt lat="40.86825" lon="0.71621">
        <ele>162.8</ele>
        <time>2022-05-25 00:27:35</time>
      </trkpt>
      <trkpt lat="40.86827" lon="0.71619">
        <ele>163.2</ele>
        <time>2022-05-25 00:27:36</time>
      </trkpt>
      <trkpt lat="40.8683" lon="0.71616">
        <ele>163.8</ele>
        <time>2022-05-25 00:27:37</time>
      </trkpt>
      <trkpt lat="40.86833" lon="0.71613">
        <ele>164</ele>
        <time>2022-05-25 00:27:38</time>
      </trkpt>
      <trkpt lat="40.86836" lon="0.71611">
        <ele>164.4</ele>
        <time>2022-05-25 00:27:39</time>
      </trkpt>
      <trkpt lat="40.86839" lon="0.71608">
        <ele>164.4</ele>
        <time>2022-05-25 00:27:40</time>
      </trkpt>
      <trkpt lat="40.86842" lon="0.71605">
        <ele>164.4</ele>
        <time>2022-05-25 00:27:41</time>
      </trkpt>
      <trkpt lat="40.86845" lon="0.71602">
        <ele>164.4</ele>
        <time>2022-05-25 00:27:42</time>
      </trkpt>
      <trkpt lat="40.86847" lon="0.71599">
        <ele>164.4</ele>
        <time>2022-05-25 00:27:43</time>
      </trkpt>
      <trkpt lat="40.8685" lon="0.71596">
        <ele>164.2</ele>
        <time>2022-05-25 00:27:44</time>
      </trkpt>
      <trkpt lat="40.86853" lon="0.71593">
        <ele>164.4</ele>
        <time>2022-05-25 00:27:45</time>
      </trkpt>
      <trkpt lat="40.86856" lon="0.7159">
        <ele>164.4</ele>
        <time>2022-05-25 00:27:46</time>
      </trkpt>
      <trkpt lat="40.8686" lon="0.71587">
        <ele>164.6</ele>
        <time>2022-05-25 00:27:47</time>
      </trkpt>
      <trkpt lat="40.86863" lon="0.71583">
        <ele>164.8</ele>
        <time>2022-05-25 00:27:48</time>
      </trkpt>
      <trkpt lat="40.86866" lon="0.7158">
        <ele>164.8</ele>
        <time>2022-05-25 00:27:49</time>
      </trkpt>
      <trkpt lat="40.8687" lon="0.71577">
        <ele>165</ele>
        <time>2022-05-25 00:27:50</time>
      </trkpt>
      <trkpt lat="40.86873" lon="0.71574">
        <ele>165.2</ele>
        <time>2022-05-25 00:27:51</time>
      </trkpt>
      <trkpt lat="40.86877" lon="0.7157">
        <ele>165.2</ele>
        <time>2022-05-25 00:27:52</time>
      </trkpt>
      <trkpt lat="40.86881" lon="0.71567">
        <ele>165</ele>
        <time>2022-05-25 00:27:53</time>
      </trkpt>
      <trkpt lat="40.86885" lon="0.71564">
        <ele>164.6</ele>
        <time>2022-05-25 00:27:54</time>
      </trkpt>
      <trkpt lat="40.86888" lon="0.71561">
        <ele>164.6</ele>
        <time>2022-05-25 00:27:55</time>
      </trkpt>
      <trkpt lat="40.86892" lon="0.71558">
        <ele>165</ele>
        <time>2022-05-25 00:27:56</time>
      </trkpt>
      <trkpt lat="40.86896" lon="0.71555">
        <ele>165.2</ele>
        <time>2022-05-25 00:27:57</time>
      </trkpt>
      <trkpt lat="40.869" lon="0.71553">
        <ele>165.6</ele>
        <time>2022-05-25 00:27:58</time>
      </trkpt>
      <trkpt lat="40.86904" lon="0.7155">
        <ele>165.8</ele>
        <time>2022-05-25 00:27:59</time>
      </trkpt>
      <trkpt lat="40.86908" lon="0.71547">
        <ele>166</ele>
        <time>2022-05-25 00:28:00</time>
      </trkpt>
      <trkpt lat="40.86913" lon="0.71544">
        <ele>165.8</ele>
        <time>2022-05-25 00:28:01</time>
      </trkpt>
      <trkpt lat="40.86917" lon="0.7154">
        <ele>165.8</ele>
        <time>2022-05-25 00:28:02</time>
      </trkpt>
      <trkpt lat="40.86922" lon="0.71537">
        <ele>165.8</ele>
        <time>2022-05-25 00:28:03</time>
      </trkpt>
      <trkpt lat="40.86926" lon="0.71534">
        <ele>165.6</ele>
        <time>2022-05-25 00:28:04</time>
      </trkpt>
      <trkpt lat="40.8693" lon="0.71531">
        <ele>165.6</ele>
        <time>2022-05-25 00:28:05</time>
      </trkpt>
      <trkpt lat="40.86935" lon="0.71527">
        <ele>165.4</ele>
        <time>2022-05-25 00:28:06</time>
      </trkpt>
      <trkpt lat="40.86939" lon="0.71524">
        <ele>165.4</ele>
        <time>2022-05-25 00:28:07</time>
      </trkpt>
      <trkpt lat="40.86943" lon="0.7152">
        <ele>165.2</ele>
        <time>2022-05-25 00:28:08</time>
      </trkpt>
      <trkpt lat="40.86947" lon="0.71516">
        <ele>165.2</ele>
        <time>2022-05-25 00:28:09</time>
      </trkpt>
      <trkpt lat="40.86952" lon="0.71512">
        <ele>165.6</ele>
        <time>2022-05-25 00:28:10</time>
      </trkpt>
      <trkpt lat="40.86956" lon="0.71509">
        <ele>165.4</ele>
        <time>2022-05-25 00:28:11</time>
      </trkpt>
      <trkpt lat="40.86961" lon="0.71505">
        <ele>165.4</ele>
        <time>2022-05-25 00:28:12</time>
      </trkpt>
      <trkpt lat="40.86965" lon="0.71502">
        <ele>164.8</ele>
        <time>2022-05-25 00:28:13</time>
      </trkpt>
      <trkpt lat="40.8697" lon="0.71499">
        <ele>164.4</ele>
        <time>2022-05-25 00:28:14</time>
      </trkpt>
      <trkpt lat="40.86974" lon="0.71496">
        <ele>164.2</ele>
        <time>2022-05-25 00:28:15</time>
      </trkpt>
      <trkpt lat="40.86978" lon="0.71493">
        <ele>164</ele>
        <time>2022-05-25 00:28:16</time>
      </trkpt>
      <trkpt lat="40.86982" lon="0.71489">
        <ele>164</ele>
        <time>2022-05-25 00:28:17</time>
      </trkpt>
      <trkpt lat="40.86986" lon="0.71486">
        <ele>164</ele>
        <time>2022-05-25 00:28:18</time>
      </trkpt>
      <trkpt lat="40.8699" lon="0.71482">
        <ele>164.4</ele>
        <time>2022-05-25 00:28:19</time>
      </trkpt>
      <trkpt lat="40.86994" lon="0.71479">
        <ele>164.2</ele>
        <time>2022-05-25 00:28:20</time>
      </trkpt>
      <trkpt lat="40.86998" lon="0.71476">
        <ele>164</ele>
        <time>2022-05-25 00:28:21</time>
      </trkpt>
      <trkpt lat="40.87003" lon="0.71473">
        <ele>163.6</ele>
        <time>2022-05-25 00:28:22</time>
      </trkpt>
      <trkpt lat="40.87007" lon="0.71469">
        <ele>163.2</ele>
        <time>2022-05-25 00:28:23</time>
      </trkpt>
      <trkpt lat="40.87012" lon="0.71466">
        <ele>163</ele>
        <time>2022-05-25 00:28:24</time>
      </trkpt>
      <trkpt lat="40.87016" lon="0.71462">
        <ele>162.8</ele>
        <time>2022-05-25 00:28:25</time>
      </trkpt>
      <trkpt lat="40.87021" lon="0.71459">
        <ele>162.8</ele>
        <time>2022-05-25 00:28:26</time>
      </trkpt>
      <trkpt lat="40.87026" lon="0.71455">
        <ele>163</ele>
        <time>2022-05-25 00:28:27</time>
      </trkpt>
      <trkpt lat="40.8703" lon="0.71452">
        <ele>163.2</ele>
        <time>2022-05-25 00:28:28</time>
      </trkpt>
      <trkpt lat="40.87035" lon="0.71449">
        <ele>163.2</ele>
        <time>2022-05-25 00:28:29</time>
      </trkpt>
      <trkpt lat="40.87039" lon="0.71446">
        <ele>163.2</ele>
        <time>2022-05-25 00:28:30</time>
      </trkpt>
      <trkpt lat="40.87043" lon="0.71442">
        <ele>163.4</ele>
        <time>2022-05-25 00:28:31</time>
      </trkpt>
      <trkpt lat="40.87048" lon="0.71439">
        <ele>163.2</ele>
        <time>2022-05-25 00:28:32</time>
      </trkpt>
      <trkpt lat="40.87052" lon="0.71436">
        <ele>163.4</ele>
        <time>2022-05-25 00:28:33</time>
      </trkpt>
      <trkpt lat="40.87056" lon="0.71434">
        <ele>163.2</ele>
        <time>2022-05-25 00:28:34</time>
      </trkpt>
      <trkpt lat="40.87061" lon="0.71431">
        <ele>163.2</ele>
        <time>2022-05-25 00:28:35</time>
      </trkpt>
      <trkpt lat="40.87065" lon="0.71428">
        <ele>163.2</ele>
        <time>2022-05-25 00:28:36</time>
      </trkpt>
      <trkpt lat="40.87069" lon="0.71425">
        <ele>163</ele>
        <time>2022-05-25 00:28:37</time>
      </trkpt>
      <trkpt lat="40.87073" lon="0.71421">
        <ele>163</ele>
        <time>2022-05-25 00:28:38</time>
      </trkpt>
      <trkpt lat="40.87078" lon="0.71417">
        <ele>162.8</ele>
        <time>2022-05-25 00:28:39</time>
      </trkpt>
      <trkpt lat="40.87082" lon="0.71414">
        <ele>162.6</ele>
        <time>2022-05-25 00:28:40</time>
      </trkpt>
      <trkpt lat="40.87087" lon="0.7141">
        <ele>162.4</ele>
        <time>2022-05-25 00:28:41</time>
      </trkpt>
      <trkpt lat="40.87091" lon="0.71407">
        <ele>162.2</ele>
        <time>2022-05-25 00:28:42</time>
      </trkpt>
      <trkpt lat="40.87095" lon="0.71403">
        <ele>162</ele>
        <time>2022-05-25 00:28:43</time>
      </trkpt>
      <trkpt lat="40.871" lon="0.714">
        <ele>162.2</ele>
        <time>2022-05-25 00:28:44</time>
      </trkpt>
      <trkpt lat="40.87104" lon="0.71398">
        <ele>162.2</ele>
        <time>2022-05-25 00:28:45</time>
      </trkpt>
      <trkpt lat="40.87108" lon="0.71395">
        <ele>162.2</ele>
        <time>2022-05-25 00:28:46</time>
      </trkpt>
      <trkpt lat="40.87112" lon="0.71392">
        <ele>162.2</ele>
        <time>2022-05-25 00:28:47</time>
      </trkpt>
      <trkpt lat="40.87116" lon="0.71389">
        <ele>162</ele>
        <time>2022-05-25 00:28:48</time>
      </trkpt>
      <trkpt lat="40.8712" lon="0.71386">
        <ele>161.6</ele>
        <time>2022-05-25 00:28:49</time>
      </trkpt>
      <trkpt lat="40.87123" lon="0.71384">
        <ele>160.8</ele>
        <time>2022-05-25 00:28:50</time>
      </trkpt>
      <trkpt lat="40.87127" lon="0.71381">
        <ele>160.2</ele>
        <time>2022-05-25 00:28:51</time>
      </trkpt>
      <trkpt lat="40.8713" lon="0.71378">
        <ele>159.8</ele>
        <time>2022-05-25 00:28:52</time>
      </trkpt>
      <trkpt lat="40.87135" lon="0.71375">
        <ele>159.8</ele>
        <time>2022-05-25 00:28:53</time>
      </trkpt>
      <trkpt lat="40.87138" lon="0.71373">
        <ele>159.8</ele>
        <time>2022-05-25 00:28:54</time>
      </trkpt>
      <trkpt lat="40.87143" lon="0.71369">
        <ele>159.6</ele>
        <time>2022-05-25 00:28:55</time>
      </trkpt>
      <trkpt lat="40.87146" lon="0.71366">
        <ele>159.4</ele>
        <time>2022-05-25 00:28:56</time>
      </trkpt>
      <trkpt lat="40.87151" lon="0.71363">
        <ele>159.4</ele>
        <time>2022-05-25 00:28:57</time>
      </trkpt>
      <trkpt lat="40.87154" lon="0.7136">
        <ele>159.4</ele>
        <time>2022-05-25 00:28:58</time>
      </trkpt>
      <trkpt lat="40.87159" lon="0.71357">
        <ele>159.4</ele>
        <time>2022-05-25 00:28:59</time>
      </trkpt>
      <trkpt lat="40.87162" lon="0.71355">
        <ele>159</ele>
        <time>2022-05-25 00:29:00</time>
      </trkpt>
      <trkpt lat="40.87165" lon="0.71352">
        <ele>158</ele>
        <time>2022-05-25 00:29:01</time>
      </trkpt>
      <trkpt lat="40.87169" lon="0.71349">
        <ele>157.6</ele>
        <time>2022-05-25 00:29:02</time>
      </trkpt>
      <trkpt lat="40.87173" lon="0.71346">
        <ele>157.2</ele>
        <time>2022-05-25 00:29:03</time>
      </trkpt>
      <trkpt lat="40.87178" lon="0.71343">
        <ele>157</ele>
        <time>2022-05-25 00:29:04</time>
      </trkpt>
      <trkpt lat="40.87182" lon="0.71339">
        <ele>156.8</ele>
        <time>2022-05-25 00:29:05</time>
      </trkpt>
      <trkpt lat="40.87186" lon="0.71335">
        <ele>156.6</ele>
        <time>2022-05-25 00:29:06</time>
      </trkpt>
      <trkpt lat="40.87191" lon="0.7133">
        <ele>156.4</ele>
        <time>2022-05-25 00:29:07</time>
      </trkpt>
      <trkpt lat="40.87196" lon="0.71326">
        <ele>155.8</ele>
        <time>2022-05-25 00:29:08</time>
      </trkpt>
      <trkpt lat="40.872" lon="0.71322">
        <ele>155.6</ele>
        <time>2022-05-25 00:29:09</time>
      </trkpt>
      <trkpt lat="40.87204" lon="0.71318">
        <ele>155.2</ele>
        <time>2022-05-25 00:29:10</time>
      </trkpt>
      <trkpt lat="40.87208" lon="0.71314">
        <ele>155.2</ele>
        <time>2022-05-25 00:29:11</time>
      </trkpt>
      <trkpt lat="40.87213" lon="0.7131">
        <ele>155</ele>
        <time>2022-05-25 00:29:12</time>
      </trkpt>
      <trkpt lat="40.87217" lon="0.71306">
        <ele>154.4</ele>
        <time>2022-05-25 00:29:13</time>
      </trkpt>
      <trkpt lat="40.87222" lon="0.71303">
        <ele>154</ele>
        <time>2022-05-25 00:29:14</time>
      </trkpt>
      <trkpt lat="40.87226" lon="0.71299">
        <ele>153.8</ele>
        <time>2022-05-25 00:29:15</time>
      </trkpt>
      <trkpt lat="40.87231" lon="0.71296">
        <ele>153.8</ele>
        <time>2022-05-25 00:29:16</time>
      </trkpt>
      <trkpt lat="40.87235" lon="0.71292">
        <ele>154.2</ele>
        <time>2022-05-25 00:29:17</time>
      </trkpt>
      <trkpt lat="40.8724" lon="0.71288">
        <ele>154</ele>
        <time>2022-05-25 00:29:18</time>
      </trkpt>
      <trkpt lat="40.87244" lon="0.71285">
        <ele>153.8</ele>
        <time>2022-05-25 00:29:19</time>
      </trkpt>
      <trkpt lat="40.87248" lon="0.71283">
        <ele>153.8</ele>
        <time>2022-05-25 00:29:20</time>
      </trkpt>
      <trkpt lat="40.87252" lon="0.71281">
        <ele>153.8</ele>
        <time>2022-05-25 00:29:21</time>
      </trkpt>
      <trkpt lat="40.87256" lon="0.71279">
        <ele>153.8</ele>
        <time>2022-05-25 00:29:22</time>
      </trkpt>
      <trkpt lat="40.8726" lon="0.71277">
        <ele>154</ele>
        <time>2022-05-25 00:29:23</time>
      </trkpt>
      <trkpt lat="40.87265" lon="0.71275">
        <ele>154</ele>
        <time>2022-05-25 00:29:24</time>
      </trkpt>
      <trkpt lat="40.87269" lon="0.71274">
        <ele>154.2</ele>
        <time>2022-05-25 00:29:25</time>
      </trkpt>
      <trkpt lat="40.87273" lon="0.71272">
        <ele>154.6</ele>
        <time>2022-05-25 00:29:26</time>
      </trkpt>
      <trkpt lat="40.87278" lon="0.71271">
        <ele>154.4</ele>
        <time>2022-05-25 00:29:27</time>
      </trkpt>
      <trkpt lat="40.87282" lon="0.7127">
        <ele>154</ele>
        <time>2022-05-25 00:29:28</time>
      </trkpt>
      <trkpt lat="40.87286" lon="0.71268">
        <ele>153.8</ele>
        <time>2022-05-25 00:29:29</time>
      </trkpt>
      <trkpt lat="40.87291" lon="0.71267">
        <ele>153.4</ele>
        <time>2022-05-25 00:29:30</time>
      </trkpt>
      <trkpt lat="40.87295" lon="0.71266">
        <ele>153.2</ele>
        <time>2022-05-25 00:29:31</time>
      </trkpt>
      <trkpt lat="40.873" lon="0.71264">
        <ele>153</ele>
        <time>2022-05-25 00:29:32</time>
      </trkpt>
      <trkpt lat="40.87304" lon="0.71263">
        <ele>153</ele>
        <time>2022-05-25 00:29:33</time>
      </trkpt>
      <trkpt lat="40.87308" lon="0.71261">
        <ele>153</ele>
        <time>2022-05-25 00:29:34</time>
      </trkpt>
      <trkpt lat="40.87312" lon="0.71259">
        <ele>152.8</ele>
        <time>2022-05-25 00:29:35</time>
      </trkpt>
      <trkpt lat="40.87317" lon="0.71258">
        <ele>153</ele>
        <time>2022-05-25 00:29:36</time>
      </trkpt>
      <trkpt lat="40.87321" lon="0.71256">
        <ele>153</ele>
        <time>2022-05-25 00:29:37</time>
      </trkpt>
      <trkpt lat="40.87326" lon="0.71254">
        <ele>153</ele>
        <time>2022-05-25 00:29:38</time>
      </trkpt>
      <trkpt lat="40.8733" lon="0.71252">
        <ele>153.2</ele>
        <time>2022-05-25 00:29:39</time>
      </trkpt>
      <trkpt lat="40.87334" lon="0.71251">
        <ele>153.4</ele>
        <time>2022-05-25 00:29:40</time>
      </trkpt>
      <trkpt lat="40.87337" lon="0.7125">
        <ele>153.6</ele>
        <time>2022-05-25 00:29:41</time>
      </trkpt>
      <trkpt lat="40.87342" lon="0.71247">
        <ele>153.6</ele>
        <time>2022-05-25 00:29:42</time>
      </trkpt>
      <trkpt lat="40.87347" lon="0.71245">
        <ele>153.4</ele>
        <time>2022-05-25 00:29:43</time>
      </trkpt>
      <trkpt lat="40.8735" lon="0.71244">
        <ele>153.4</ele>
        <time>2022-05-25 00:29:44</time>
      </trkpt>
      <trkpt lat="40.87355" lon="0.71243">
        <ele>153.6</ele>
        <time>2022-05-25 00:29:45</time>
      </trkpt>
      <trkpt lat="40.87359" lon="0.71241">
        <ele>153.8</ele>
        <time>2022-05-25 00:29:46</time>
      </trkpt>
      <trkpt lat="40.87364" lon="0.71241">
        <ele>154</ele>
        <time>2022-05-25 00:29:47</time>
      </trkpt>
      <trkpt lat="40.87369" lon="0.7124">
        <ele>154</ele>
        <time>2022-05-25 00:29:48</time>
      </trkpt>
      <trkpt lat="40.87373" lon="0.71239">
        <ele>154</ele>
        <time>2022-05-25 00:29:49</time>
      </trkpt>
      <trkpt lat="40.87378" lon="0.71238">
        <ele>154</ele>
        <time>2022-05-25 00:29:50</time>
      </trkpt>
      <trkpt lat="40.87383" lon="0.71237">
        <ele>154.2</ele>
        <time>2022-05-25 00:29:51</time>
      </trkpt>
      <trkpt lat="40.87387" lon="0.71237">
        <ele>154.4</ele>
        <time>2022-05-25 00:29:52</time>
      </trkpt>
      <trkpt lat="40.87392" lon="0.71237">
        <ele>154.6</ele>
        <time>2022-05-25 00:29:53</time>
      </trkpt>
      <trkpt lat="40.87397" lon="0.71237">
        <ele>154.8</ele>
        <time>2022-05-25 00:29:54</time>
      </trkpt>
      <trkpt lat="40.87401" lon="0.71237">
        <ele>154.8</ele>
        <time>2022-05-25 00:29:55</time>
      </trkpt>
      <trkpt lat="40.87406" lon="0.71238">
        <ele>154.6</ele>
        <time>2022-05-25 00:29:56</time>
      </trkpt>
      <trkpt lat="40.8741" lon="0.71238">
        <ele>154.6</ele>
        <time>2022-05-25 00:29:57</time>
      </trkpt>
      <trkpt lat="40.87415" lon="0.71238">
        <ele>154.6</ele>
        <time>2022-05-25 00:29:58</time>
      </trkpt>
      <trkpt lat="40.87419" lon="0.71238">
        <ele>154.6</ele>
        <time>2022-05-25 00:29:59</time>
      </trkpt>
      <trkpt lat="40.87423" lon="0.71237">
        <ele>154.6</ele>
        <time>2022-05-25 00:30:00</time>
      </trkpt>
      <trkpt lat="40.87427" lon="0.71237">
        <ele>154.2</ele>
        <time>2022-05-25 00:30:01</time>
      </trkpt>
      <trkpt lat="40.87433" lon="0.71237">
        <ele>154</ele>
        <time>2022-05-25 00:30:02</time>
      </trkpt>
      <trkpt lat="40.87438" lon="0.71237">
        <ele>153.8</ele>
        <time>2022-05-25 00:30:03</time>
      </trkpt>
      <trkpt lat="40.87443" lon="0.71237">
        <ele>153.6</ele>
        <time>2022-05-25 00:30:04</time>
      </trkpt>
      <trkpt lat="40.87449" lon="0.71238">
        <ele>153.6</ele>
        <time>2022-05-25 00:30:05</time>
      </trkpt>
      <trkpt lat="40.87453" lon="0.71238">
        <ele>153.4</ele>
        <time>2022-05-25 00:30:06</time>
      </trkpt>
      <trkpt lat="40.87458" lon="0.71238">
        <ele>153</ele>
        <time>2022-05-25 00:30:07</time>
      </trkpt>
      <trkpt lat="40.87463" lon="0.71237">
        <ele>153</ele>
        <time>2022-05-25 00:30:08</time>
      </trkpt>
      <trkpt lat="40.87468" lon="0.71237">
        <ele>153.2</ele>
        <time>2022-05-25 00:30:09</time>
      </trkpt>
      <trkpt lat="40.87474" lon="0.71237">
        <ele>153</ele>
        <time>2022-05-25 00:30:10</time>
      </trkpt>
      <trkpt lat="40.87479" lon="0.71237">
        <ele>152.8</ele>
        <time>2022-05-25 00:30:11</time>
      </trkpt>
      <trkpt lat="40.87485" lon="0.71237">
        <ele>152.6</ele>
        <time>2022-05-25 00:30:12</time>
      </trkpt>
      <trkpt lat="40.87491" lon="0.71237">
        <ele>152.2</ele>
        <time>2022-05-25 00:30:13</time>
      </trkpt>
      <trkpt lat="40.87497" lon="0.71238">
        <ele>152</ele>
        <time>2022-05-25 00:30:14</time>
      </trkpt>
      <trkpt lat="40.87503" lon="0.71239">
        <ele>151.8</ele>
        <time>2022-05-25 00:30:15</time>
      </trkpt>
      <trkpt lat="40.87509" lon="0.7124">
        <ele>151.4</ele>
        <time>2022-05-25 00:30:16</time>
      </trkpt>
      <trkpt lat="40.87514" lon="0.71242">
        <ele>151.2</ele>
        <time>2022-05-25 00:30:17</time>
      </trkpt>
      <trkpt lat="40.87521" lon="0.71242">
        <ele>151</ele>
        <time>2022-05-25 00:30:18</time>
      </trkpt>
      <trkpt lat="40.87527" lon="0.71242">
        <ele>150.8</ele>
        <time>2022-05-25 00:30:19</time>
      </trkpt>
      <trkpt lat="40.87533" lon="0.71241">
        <ele>150.8</ele>
        <time>2022-05-25 00:30:20</time>
      </trkpt>
      <trkpt lat="40.87539" lon="0.71242">
        <ele>151</ele>
        <time>2022-05-25 00:30:21</time>
      </trkpt>
      <trkpt lat="40.87544" lon="0.71242">
        <ele>150.8</ele>
        <time>2022-05-25 00:30:22</time>
      </trkpt>
      <trkpt lat="40.87549" lon="0.71243">
        <ele>151</ele>
        <time>2022-05-25 00:30:23</time>
      </trkpt>
      <trkpt lat="40.87554" lon="0.71244">
        <ele>151</ele>
        <time>2022-05-25 00:30:24</time>
      </trkpt>
      <trkpt lat="40.87559" lon="0.71246">
        <ele>151.2</ele>
        <time>2022-05-25 00:30:25</time>
      </trkpt>
      <trkpt lat="40.87564" lon="0.71247">
        <ele>151.2</ele>
        <time>2022-05-25 00:30:26</time>
      </trkpt>
      <trkpt lat="40.87569" lon="0.7125">
        <ele>151.2</ele>
        <time>2022-05-25 00:30:27</time>
      </trkpt>
      <trkpt lat="40.87573" lon="0.71252">
        <ele>151.2</ele>
        <time>2022-05-25 00:30:28</time>
      </trkpt>
      <trkpt lat="40.87578" lon="0.71254">
        <ele>151.2</ele>
        <time>2022-05-25 00:30:29</time>
      </trkpt>
      <trkpt lat="40.87582" lon="0.71256">
        <ele>151.4</ele>
        <time>2022-05-25 00:30:30</time>
      </trkpt>
      <trkpt lat="40.87586" lon="0.71259">
        <ele>151.6</ele>
        <time>2022-05-25 00:30:31</time>
      </trkpt>
      <trkpt lat="40.8759" lon="0.71263">
        <ele>151.4</ele>
        <time>2022-05-25 00:30:32</time>
      </trkpt>
      <trkpt lat="40.87594" lon="0.71266">
        <ele>151.2</ele>
        <time>2022-05-25 00:30:33</time>
      </trkpt>
      <trkpt lat="40.87598" lon="0.71269">
        <ele>151</ele>
        <time>2022-05-25 00:30:34</time>
      </trkpt>
      <trkpt lat="40.87602" lon="0.71273">
        <ele>151</ele>
        <time>2022-05-25 00:30:35</time>
      </trkpt>
      <trkpt lat="40.87606" lon="0.71277">
        <ele>150.8</ele>
        <time>2022-05-25 00:30:36</time>
      </trkpt>
      <trkpt lat="40.8761" lon="0.71282">
        <ele>150.8</ele>
        <time>2022-05-25 00:30:37</time>
      </trkpt>
      <trkpt lat="40.87614" lon="0.71287">
        <ele>150.6</ele>
        <time>2022-05-25 00:30:38</time>
      </trkpt>
      <trkpt lat="40.87619" lon="0.71291">
        <ele>150.6</ele>
        <time>2022-05-25 00:30:39</time>
      </trkpt>
      <trkpt lat="40.87624" lon="0.71295">
        <ele>150.4</ele>
        <time>2022-05-25 00:30:40</time>
      </trkpt>
      <trkpt lat="40.87629" lon="0.713">
        <ele>150.4</ele>
        <time>2022-05-25 00:30:41</time>
      </trkpt>
      <trkpt lat="40.87633" lon="0.71306">
        <ele>150.8</ele>
        <time>2022-05-25 00:30:42</time>
      </trkpt>
      <trkpt lat="40.87636" lon="0.71312">
        <ele>150.2</ele>
        <time>2022-05-25 00:30:43</time>
      </trkpt>
      <trkpt lat="40.87639" lon="0.71319">
        <ele>149.8</ele>
        <time>2022-05-25 00:30:44</time>
      </trkpt>
      <trkpt lat="40.87642" lon="0.71325">
        <ele>149.4</ele>
        <time>2022-05-25 00:30:45</time>
      </trkpt>
      <trkpt lat="40.87646" lon="0.71332">
        <ele>149.6</ele>
        <time>2022-05-25 00:30:46</time>
      </trkpt>
      <trkpt lat="40.8765" lon="0.71338">
        <ele>149.4</ele>
        <time>2022-05-25 00:30:47</time>
      </trkpt>
      <trkpt lat="40.87653" lon="0.71344">
        <ele>149.4</ele>
        <time>2022-05-25 00:30:48</time>
      </trkpt>
      <trkpt lat="40.87656" lon="0.7135">
        <ele>149.6</ele>
        <time>2022-05-25 00:30:49</time>
      </trkpt>
      <trkpt lat="40.87659" lon="0.71355">
        <ele>149.4</ele>
        <time>2022-05-25 00:30:50</time>
      </trkpt>
      <trkpt lat="40.87661" lon="0.71361">
        <ele>149.4</ele>
        <time>2022-05-25 00:30:51</time>
      </trkpt>
      <trkpt lat="40.87664" lon="0.71367">
        <ele>149.4</ele>
        <time>2022-05-25 00:30:52</time>
      </trkpt>
      <trkpt lat="40.87668" lon="0.71374">
        <ele>149.2</ele>
        <time>2022-05-25 00:30:53</time>
      </trkpt>
      <trkpt lat="40.87672" lon="0.71382">
        <ele>149</ele>
        <time>2022-05-25 00:30:54</time>
      </trkpt>
      <trkpt lat="40.87675" lon="0.71389">
        <ele>149.2</ele>
        <time>2022-05-25 00:30:55</time>
      </trkpt>
      <trkpt lat="40.87678" lon="0.71397">
        <ele>149.2</ele>
        <time>2022-05-25 00:30:56</time>
      </trkpt>
      <trkpt lat="40.87681" lon="0.71405">
        <ele>149</ele>
        <time>2022-05-25 00:30:57</time>
      </trkpt>
      <trkpt lat="40.87684" lon="0.71413">
        <ele>148.6</ele>
        <time>2022-05-25 00:30:58</time>
      </trkpt>
      <trkpt lat="40.87688" lon="0.7142">
        <ele>148.2</ele>
        <time>2022-05-25 00:30:59</time>
      </trkpt>
      <trkpt lat="40.87691" lon="0.71426">
        <ele>148.4</ele>
        <time>2022-05-25 00:31:00</time>
      </trkpt>
      <trkpt lat="40.87693" lon="0.71432">
        <ele>148.6</ele>
        <time>2022-05-25 00:31:01</time>
      </trkpt>
      <trkpt lat="40.87697" lon="0.7144">
        <ele>148.8</ele>
        <time>2022-05-25 00:31:02</time>
      </trkpt>
      <trkpt lat="40.87699" lon="0.71447">
        <ele>149</ele>
        <time>2022-05-25 00:31:03</time>
      </trkpt>
      <trkpt lat="40.87701" lon="0.71454">
        <ele>149</ele>
        <time>2022-05-25 00:31:04</time>
      </trkpt>
      <trkpt lat="40.87704" lon="0.71462">
        <ele>149.2</ele>
        <time>2022-05-25 00:31:05</time>
      </trkpt>
      <trkpt lat="40.87707" lon="0.71469">
        <ele>148.6</ele>
        <time>2022-05-25 00:31:06</time>
      </trkpt>
      <trkpt lat="40.87709" lon="0.71476">
        <ele>148</ele>
        <time>2022-05-25 00:31:07</time>
      </trkpt>
      <trkpt lat="40.8771" lon="0.71483">
        <ele>147.8</ele>
        <time>2022-05-25 00:31:08</time>
      </trkpt>
      <trkpt lat="40.87712" lon="0.7149">
        <ele>147.6</ele>
        <time>2022-05-25 00:31:09</time>
      </trkpt>
      <trkpt lat="40.87713" lon="0.71497">
        <ele>147.4</ele>
        <time>2022-05-25 00:31:10</time>
      </trkpt>
      <trkpt lat="40.87715" lon="0.71504">
        <ele>147.4</ele>
        <time>2022-05-25 00:31:11</time>
      </trkpt>
      <trkpt lat="40.87717" lon="0.71511">
        <ele>147.2</ele>
        <time>2022-05-25 00:31:12</time>
      </trkpt>
      <trkpt lat="40.87719" lon="0.71518">
        <ele>147</ele>
        <time>2022-05-25 00:31:13</time>
      </trkpt>
      <trkpt lat="40.87722" lon="0.71525">
        <ele>146.6</ele>
        <time>2022-05-25 00:31:14</time>
      </trkpt>
      <trkpt lat="40.87725" lon="0.71532">
        <ele>146.2</ele>
        <time>2022-05-25 00:31:15</time>
      </trkpt>
      <trkpt lat="40.87729" lon="0.71539">
        <ele>145.8</ele>
        <time>2022-05-25 00:31:16</time>
      </trkpt>
      <trkpt lat="40.87733" lon="0.71546">
        <ele>145.6</ele>
        <time>2022-05-25 00:31:17</time>
      </trkpt>
      <trkpt lat="40.87736" lon="0.71552">
        <ele>145.2</ele>
        <time>2022-05-25 00:31:18</time>
      </trkpt>
      <trkpt lat="40.8774" lon="0.71559">
        <ele>144.6</ele>
        <time>2022-05-25 00:31:19</time>
      </trkpt>
      <trkpt lat="40.87744" lon="0.71565">
        <ele>144</ele>
        <time>2022-05-25 00:31:20</time>
      </trkpt>
      <trkpt lat="40.87749" lon="0.7157">
        <ele>143.4</ele>
        <time>2022-05-25 00:31:21</time>
      </trkpt>
      <trkpt lat="40.87754" lon="0.71574">
        <ele>143</ele>
        <time>2022-05-25 00:31:22</time>
      </trkpt>
      <trkpt lat="40.87759" lon="0.71576">
        <ele>142.8</ele>
        <time>2022-05-25 00:31:23</time>
      </trkpt>
      <trkpt lat="40.87764" lon="0.71578">
        <ele>142.8</ele>
        <time>2022-05-25 00:31:24</time>
      </trkpt>
      <trkpt lat="40.87769" lon="0.7158">
        <ele>142.8</ele>
        <time>2022-05-25 00:31:25</time>
      </trkpt>
      <trkpt lat="40.87774" lon="0.71581">
        <ele>143</ele>
        <time>2022-05-25 00:31:26</time>
      </trkpt>
      <trkpt lat="40.87778" lon="0.71583">
        <ele>142.8</ele>
        <time>2022-05-25 00:31:27</time>
      </trkpt>
      <trkpt lat="40.87782" lon="0.71586">
        <ele>142.8</ele>
        <time>2022-05-25 00:31:28</time>
      </trkpt>
      <trkpt lat="40.87785" lon="0.71589">
        <ele>142.6</ele>
        <time>2022-05-25 00:31:29</time>
      </trkpt>
      <trkpt lat="40.87788" lon="0.71592">
        <ele>142.4</ele>
        <time>2022-05-25 00:31:30</time>
      </trkpt>
      <trkpt lat="40.8779" lon="0.71595">
        <ele>142.2</ele>
        <time>2022-05-25 00:31:31</time>
      </trkpt>
      <trkpt lat="40.87792" lon="0.71599">
        <ele>141.8</ele>
        <time>2022-05-25 00:31:32</time>
      </trkpt>
      <trkpt lat="40.87794" lon="0.71602">
        <ele>141.4</ele>
        <time>2022-05-25 00:31:33</time>
      </trkpt>
      <trkpt lat="40.87796" lon="0.71606">
        <ele>141.4</ele>
        <time>2022-05-25 00:31:34</time>
      </trkpt>
      <trkpt lat="40.87797" lon="0.71609">
        <ele>141.4</ele>
        <time>2022-05-25 00:31:35</time>
      </trkpt>
      <trkpt lat="40.87799" lon="0.71613">
        <ele>141.2</ele>
        <time>2022-05-25 00:31:36</time>
      </trkpt>
      <trkpt lat="40.87801" lon="0.71616">
        <ele>141</ele>
        <time>2022-05-25 00:31:37</time>
      </trkpt>
      <trkpt lat="40.87803" lon="0.71618">
        <ele>141</ele>
        <time>2022-05-25 00:31:38</time>
      </trkpt>
      <trkpt lat="40.87805" lon="0.7162">
        <ele>141</ele>
        <time>2022-05-25 00:31:39</time>
      </trkpt>
      <trkpt lat="40.87807" lon="0.71621">
        <ele>141</ele>
        <time>2022-05-25 00:31:40</time>
      </trkpt>
      <trkpt lat="40.87809" lon="0.71622">
        <ele>141</ele>
        <time>2022-05-25 00:31:41</time>
      </trkpt>
      <trkpt lat="40.8781" lon="0.71622">
        <ele>141.2</ele>
        <time>2022-05-25 00:31:42</time>
      </trkpt>
      <trkpt lat="40.87812" lon="0.71623">
        <ele>141.4</ele>
        <time>2022-05-25 00:31:43</time>
      </trkpt>
      <trkpt lat="40.87812" lon="0.71623">
        <ele>141.6</ele>
        <time>2022-05-25 00:31:44</time>
      </trkpt>
      <trkpt lat="40.87813" lon="0.71624">
        <ele>141.6</ele>
        <time>2022-05-25 00:31:45</time>
      </trkpt>
      <trkpt lat="40.87814" lon="0.71625">
        <ele>141.6</ele>
        <time>2022-05-25 00:31:46</time>
      </trkpt>
      <trkpt lat="40.87815" lon="0.71625">
        <ele>141.4</ele>
        <time>2022-05-25 00:31:47</time>
      </trkpt>
      <trkpt lat="40.87817" lon="0.71626">
        <ele>141.6</ele>
        <time>2022-05-25 00:31:48</time>
      </trkpt>
      <trkpt lat="40.87819" lon="0.71627">
        <ele>142</ele>
        <time>2022-05-25 00:31:49</time>
      </trkpt>
      <trkpt lat="40.87821" lon="0.71629">
        <ele>142</ele>
        <time>2022-05-25 00:31:50</time>
      </trkpt>
      <trkpt lat="40.87822" lon="0.71631">
        <ele>142.4</ele>
        <time>2022-05-25 00:31:51</time>
      </trkpt>
      <trkpt lat="40.87822" lon="0.71634">
        <ele>142.6</ele>
        <time>2022-05-25 00:31:52</time>
      </trkpt>
      <trkpt lat="40.87822" lon="0.71636">
        <ele>142.8</ele>
        <time>2022-05-25 00:31:53</time>
      </trkpt>
      <trkpt lat="40.87822" lon="0.71638">
        <ele>142.8</ele>
        <time>2022-05-25 00:31:54</time>
      </trkpt>
      <trkpt lat="40.8782" lon="0.71639">
        <ele>143</ele>
        <time>2022-05-25 00:31:55</time>
      </trkpt>
      <trkpt lat="40.87818" lon="0.71639">
        <ele>143</ele>
        <time>2022-05-25 00:31:56</time>
      </trkpt>
      <trkpt lat="40.87816" lon="0.71639">
        <ele>143</ele>
        <time>2022-05-25 00:31:57</time>
      </trkpt>
      <trkpt lat="40.87814" lon="0.71639">
        <ele>142.8</ele>
        <time>2022-05-25 00:31:58</time>
      </trkpt>
      <trkpt lat="40.87812" lon="0.71638">
        <ele>142.8</ele>
        <time>2022-05-25 00:31:59</time>
      </trkpt>
      <trkpt lat="40.87811" lon="0.71638">
        <ele>142.8</ele>
        <time>2022-05-25 00:32:00</time>
      </trkpt>
      <trkpt lat="40.87809" lon="0.71637">
        <ele>142.8</ele>
        <time>2022-05-25 00:32:01</time>
      </trkpt>
      <trkpt lat="40.87806" lon="0.71636">
        <ele>142.6</ele>
        <time>2022-05-25 00:32:02</time>
      </trkpt>
      <trkpt lat="40.87803" lon="0.71635">
        <ele>142.4</ele>
        <time>2022-05-25 00:32:03</time>
      </trkpt>
      <trkpt lat="40.87802" lon="0.71633">
        <ele>142.4</ele>
        <time>2022-05-25 00:32:04</time>
      </trkpt>
      <trkpt lat="40.87801" lon="0.7163">
        <ele>142.4</ele>
        <time>2022-05-25 00:32:05</time>
      </trkpt>
      <trkpt lat="40.87803" lon="0.71627">
        <ele>142.4</ele>
        <time>2022-05-25 00:32:06</time>
      </trkpt>
      <trkpt lat="40.87804" lon="0.71625">
        <ele>142.2</ele>
        <time>2022-05-25 00:32:07</time>
      </trkpt>
      <trkpt lat="40.87806" lon="0.71623">
        <ele>142</ele>
        <time>2022-05-25 00:32:08</time>
      </trkpt>
      <trkpt lat="40.87807" lon="0.71623">
        <ele>141.8</ele>
        <time>2022-05-25 00:32:09</time>
      </trkpt>
      <trkpt lat="40.87809" lon="0.71623">
        <ele>141.6</ele>
        <time>2022-05-25 00:32:10</time>
      </trkpt>
      <trkpt lat="40.87811" lon="0.71623">
        <ele>141.4</ele>
        <time>2022-05-25 00:32:11</time>
      </trkpt>
      <trkpt lat="40.87813" lon="0.71623">
        <ele>141.4</ele>
        <time>2022-05-25 00:32:12</time>
      </trkpt>
      <trkpt lat="40.87815" lon="0.71623">
        <ele>141.4</ele>
        <time>2022-05-25 00:32:13</time>
      </trkpt>
      <trkpt lat="40.87817" lon="0.71624">
        <ele>141.2</ele>
        <time>2022-05-25 00:32:14</time>
      </trkpt>
      <trkpt lat="40.87819" lon="0.71625">
        <ele>141.4</ele>
        <time>2022-05-25 00:32:15</time>
      </trkpt>
      <trkpt lat="40.8782" lon="0.71627">
        <ele>141.8</ele>
        <time>2022-05-25 00:32:16</time>
      </trkpt>
      <trkpt lat="40.87821" lon="0.7163">
        <ele>142</ele>
        <time>2022-05-25 00:32:17</time>
      </trkpt>
      <trkpt lat="40.87821" lon="0.71633">
        <ele>142</ele>
        <time>2022-05-25 00:32:18</time>
      </trkpt>
      <trkpt lat="40.8782" lon="0.71635">
        <ele>142.2</ele>
        <time>2022-05-25 00:32:19</time>
      </trkpt>
      <trkpt lat="40.87819" lon="0.71637">
        <ele>142.2</ele>
        <time>2022-05-25 00:32:20</time>
      </trkpt>
      <trkpt lat="40.87818" lon="0.71637">
        <ele>142.4</ele>
        <time>2022-05-25 00:32:21</time>
      </trkpt>
      <trkpt lat="40.87818" lon="0.71637">
        <ele>142.6</ele>
        <time>2022-05-25 00:32:22</time>
      </trkpt>
      <trkpt lat="40.87818" lon="0.71636">
        <ele>142.6</ele>
        <time>2022-05-25 00:32:23</time>
      </trkpt>
      <trkpt lat="40.87818" lon="0.71636">
        <ele>142.6</ele>
        <time>2022-05-25 00:32:24</time>
      </trkpt>
      <trkpt lat="40.87818" lon="0.71636">
        <ele>142.8</ele>
        <time>2022-05-25 00:32:25</time>
      </trkpt>
      <trkpt lat="40.87818" lon="0.71636">
        <ele>142.8</ele>
        <time>2022-05-25 00:32:26</time>
      </trkpt>
      <trkpt lat="40.87818" lon="0.71636">
        <ele>142.8</ele>
        <time>2022-05-25 00:32:27</time>
      </trkpt>
      <trkpt lat="40.87818" lon="0.71636">
        <ele>142.8</ele>
        <time>2022-05-25 00:32:28</time>
      </trkpt>
      <trkpt lat="40.87818" lon="0.71636">
        <ele>142.8</ele>
        <time>2022-05-25 00:32:29</time>
      </trkpt>
      <trkpt lat="40.87818" lon="0.71636">
        <ele>142.8</ele>
        <time>2022-05-25 00:32:30</time>
      </trkpt>
      <trkpt lat="40.87818" lon="0.71636">
        <ele>142.6</ele>
        <time>2022-05-25 00:32:31</time>
      </trkpt>
      <trkpt lat="40.87818" lon="0.71634">
        <ele>142.4</ele>
        <time>2022-05-25 00:37:57</time>
      </trkpt>
      <trkpt lat="40.87817" lon="0.7163">
        <ele>142.4</ele>
        <time>2022-05-25 00:37:58</time>
      </trkpt>
      <trkpt lat="40.87815" lon="0.7163">
        <ele>142.4</ele>
        <time>2022-05-25 00:37:59</time>
      </trkpt>
      <trkpt lat="40.87814" lon="0.7163">
        <ele>142.4</ele>
        <time>2022-05-25 00:38:00</time>
      </trkpt>
      <trkpt lat="40.87814" lon="0.71629">
        <ele>142.4</ele>
        <time>2022-05-25 00:38:01</time>
      </trkpt>
      <trkpt lat="40.87812" lon="0.71629">
        <ele>142.6</ele>
        <time>2022-05-25 00:38:02</time>
      </trkpt>
      <trkpt lat="40.87811" lon="0.71628">
        <ele>142.6</ele>
        <time>2022-05-25 00:38:03</time>
      </trkpt>
      <trkpt lat="40.87811" lon="0.71628">
        <ele>142.8</ele>
        <time>2022-05-25 00:38:04</time>
      </trkpt>
      <trkpt lat="40.8781" lon="0.71627">
        <ele>143</ele>
        <time>2022-05-25 00:38:05</time>
      </trkpt>
      <trkpt lat="40.87809" lon="0.71627">
        <ele>143.2</ele>
        <time>2022-05-25 00:38:06</time>
      </trkpt>
      <trkpt lat="40.87808" lon="0.71627">
        <ele>143.2</ele>
        <time>2022-05-25 00:38:07</time>
      </trkpt>
      <trkpt lat="40.87807" lon="0.71628">
        <ele>143.2</ele>
        <time>2022-05-25 00:38:08</time>
      </trkpt>
      <trkpt lat="40.87807" lon="0.71628">
        <ele>143.2</ele>
        <time>2022-05-25 00:38:09</time>
      </trkpt>
      <trkpt lat="40.87807" lon="0.71628">
        <ele>143.2</ele>
        <time>2022-05-25 00:38:10</time>
      </trkpt>
      <trkpt lat="40.87807" lon="0.71628">
        <ele>143</ele>
        <time>2022-05-25 00:38:11</time>
      </trkpt>
      <trkpt lat="40.87807" lon="0.71628">
        <ele>143</ele>
        <time>2022-05-25 00:38:12</time>
      </trkpt>
      <trkpt lat="40.87807" lon="0.71628">
        <ele>142.8</ele>
        <time>2022-05-25 00:38:13</time>
      </trkpt>
      <trkpt lat="40.87807" lon="0.71628">
        <ele>142.8</ele>
        <time>2022-05-25 00:38:14</time>
      </trkpt>
      <trkpt lat="40.87807" lon="0.71628">
        <ele>142.8</ele>
        <time>2022-05-25 00:38:15</time>
      </trkpt>
      <trkpt lat="40.87807" lon="0.71628">
        <ele>142.6</ele>
        <time>2022-05-25 00:38:16</time>
      </trkpt>
      <trkpt lat="40.87805" lon="0.7163">
        <ele>142.2</ele>
        <time>2022-05-25 00:40:06</time>
      </trkpt>
      <trkpt lat="40.87802" lon="0.71634">
        <ele>142.2</ele>
        <time>2022-05-25 00:40:07</time>
      </trkpt>
      <trkpt lat="40.87801" lon="0.71635">
        <ele>142.2</ele>
        <time>2022-05-25 00:40:08</time>
      </trkpt>
      <trkpt lat="40.87801" lon="0.71637">
        <ele>142</ele>
        <time>2022-05-25 00:40:09</time>
      </trkpt>
      <trkpt lat="40.87801" lon="0.7164">
        <ele>142</ele>
        <time>2022-05-25 00:40:10</time>
      </trkpt>
      <trkpt lat="40.87801" lon="0.71643">
        <ele>141.8</ele>
        <time>2022-05-25 00:40:11</time>
      </trkpt>
      <trkpt lat="40.87802" lon="0.71645">
        <ele>141.8</ele>
        <time>2022-05-25 00:40:12</time>
      </trkpt>
      <trkpt lat="40.87803" lon="0.71648">
        <ele>141.8</ele>
        <time>2022-05-25 00:40:13</time>
      </trkpt>
      <trkpt lat="40.87803" lon="0.7165">
        <ele>142</ele>
        <time>2022-05-25 00:40:14</time>
      </trkpt>
      <trkpt lat="40.87804" lon="0.71653">
        <ele>142</ele>
        <time>2022-05-25 00:40:15</time>
      </trkpt>
      <trkpt lat="40.87804" lon="0.71655">
        <ele>142.2</ele>
        <time>2022-05-25 00:40:16</time>
      </trkpt>
      <trkpt lat="40.87805" lon="0.71657">
        <ele>142.2</ele>
        <time>2022-05-25 00:40:17</time>
      </trkpt>
      <trkpt lat="40.87805" lon="0.7166">
        <ele>142.2</ele>
        <time>2022-05-25 00:40:18</time>
      </trkpt>
      <trkpt lat="40.87806" lon="0.71662">
        <ele>142.2</ele>
        <time>2022-05-25 00:40:19</time>
      </trkpt>
      <trkpt lat="40.87807" lon="0.71665">
        <ele>142.2</ele>
        <time>2022-05-25 00:40:20</time>
      </trkpt>
      <trkpt lat="40.87807" lon="0.71667">
        <ele>142.2</ele>
        <time>2022-05-25 00:40:21</time>
      </trkpt>
      <trkpt lat="40.87808" lon="0.71669">
        <ele>142.2</ele>
        <time>2022-05-25 00:40:22</time>
      </trkpt>
      <trkpt lat="40.87809" lon="0.71672">
        <ele>142</ele>
        <time>2022-05-25 00:40:23</time>
      </trkpt>
      <trkpt lat="40.87809" lon="0.71674">
        <ele>142</ele>
        <time>2022-05-25 00:40:24</time>
      </trkpt>
      <trkpt lat="40.87811" lon="0.71675">
        <ele>141.8</ele>
        <time>2022-05-25 00:40:25</time>
      </trkpt>
      <trkpt lat="40.87812" lon="0.71676">
        <ele>141.8</ele>
        <time>2022-05-25 00:40:26</time>
      </trkpt>
      <trkpt lat="40.87813" lon="0.71675">
        <ele>141.8</ele>
        <time>2022-05-25 00:40:27</time>
      </trkpt>
      <trkpt lat="40.87814" lon="0.71673">
        <ele>142</ele>
        <time>2022-05-25 00:40:28</time>
      </trkpt>
      <trkpt lat="40.87814" lon="0.71671">
        <ele>142</ele>
        <time>2022-05-25 00:40:29</time>
      </trkpt>
      <trkpt lat="40.87813" lon="0.71669">
        <ele>142</ele>
        <time>2022-05-25 00:40:30</time>
      </trkpt>
      <trkpt lat="40.87812" lon="0.71667">
        <ele>142.2</ele>
        <time>2022-05-25 00:40:31</time>
      </trkpt>
      <trkpt lat="40.8781" lon="0.71663">
        <ele>142.2</ele>
        <time>2022-05-25 00:40:32</time>
      </trkpt>
      <trkpt lat="40.87809" lon="0.7166">
        <ele>142.2</ele>
        <time>2022-05-25 00:40:33</time>
      </trkpt>
      <trkpt lat="40.87807" lon="0.71656">
        <ele>142.2</ele>
        <time>2022-05-25 00:40:34</time>
      </trkpt>
      <trkpt lat="40.87806" lon="0.71653">
        <ele>142.4</ele>
        <time>2022-05-25 00:40:35</time>
      </trkpt>
      <trkpt lat="40.87805" lon="0.7165">
        <ele>142.4</ele>
        <time>2022-05-25 00:40:36</time>
      </trkpt>
      <trkpt lat="40.87804" lon="0.71646">
        <ele>142.4</ele>
        <time>2022-05-25 00:40:37</time>
      </trkpt>
      <trkpt lat="40.87803" lon="0.71643">
        <ele>142.4</ele>
        <time>2022-05-25 00:40:38</time>
      </trkpt>
      <trkpt lat="40.87802" lon="0.7164">
        <ele>142.4</ele>
        <time>2022-05-25 00:40:39</time>
      </trkpt>
      <trkpt lat="40.87801" lon="0.71636">
        <ele>142.4</ele>
        <time>2022-05-25 00:40:40</time>
      </trkpt>
      <trkpt lat="40.878" lon="0.71634">
        <ele>142.4</ele>
        <time>2022-05-25 00:40:41</time>
      </trkpt>
      <trkpt lat="40.87799" lon="0.71631">
        <ele>142.4</ele>
        <time>2022-05-25 00:40:42</time>
      </trkpt>
      <trkpt lat="40.87799" lon="0.71628">
        <ele>142.4</ele>
        <time>2022-05-25 00:40:43</time>
      </trkpt>
      <trkpt lat="40.87799" lon="0.71625">
        <ele>142.6</ele>
        <time>2022-05-25 00:40:44</time>
      </trkpt>
      <trkpt lat="40.878" lon="0.71623">
        <ele>142.4</ele>
        <time>2022-05-25 00:40:45</time>
      </trkpt>
      <trkpt lat="40.87802" lon="0.71621">
        <ele>142.6</ele>
        <time>2022-05-25 00:40:46</time>
      </trkpt>
      <trkpt lat="40.87804" lon="0.71619">
        <ele>142.6</ele>
        <time>2022-05-25 00:40:47</time>
      </trkpt>
      <trkpt lat="40.87806" lon="0.71617">
        <ele>142.6</ele>
        <time>2022-05-25 00:40:48</time>
      </trkpt>
      <trkpt lat="40.87809" lon="0.71616">
        <ele>142.6</ele>
        <time>2022-05-25 00:40:49</time>
      </trkpt>
      <trkpt lat="40.87811" lon="0.71615">
        <ele>142.2</ele>
        <time>2022-05-25 00:40:50</time>
      </trkpt>
      <trkpt lat="40.87814" lon="0.71615">
        <ele>142.2</ele>
        <time>2022-05-25 00:40:51</time>
      </trkpt>
      <trkpt lat="40.87817" lon="0.71614">
        <ele>142</ele>
        <time>2022-05-25 00:40:52</time>
      </trkpt>
      <trkpt lat="40.8782" lon="0.71613">
        <ele>142</ele>
        <time>2022-05-25 00:40:53</time>
      </trkpt>
      <trkpt lat="40.87823" lon="0.71612">
        <ele>141.8</ele>
        <time>2022-05-25 00:40:54</time>
      </trkpt>
      <trkpt lat="40.87825" lon="0.71612">
        <ele>142</ele>
        <time>2022-05-25 00:40:55</time>
      </trkpt>
      <trkpt lat="40.87828" lon="0.71611">
        <ele>142.2</ele>
        <time>2022-05-25 00:40:56</time>
      </trkpt>
      <trkpt lat="40.8783" lon="0.7161">
        <ele>142.4</ele>
        <time>2022-05-25 00:40:57</time>
      </trkpt>
      <trkpt lat="40.87832" lon="0.71608">
        <ele>142.4</ele>
        <time>2022-05-25 00:40:58</time>
      </trkpt>
      <trkpt lat="40.87835" lon="0.71607">
        <ele>142.4</ele>
        <time>2022-05-25 00:40:59</time>
      </trkpt>
      <trkpt lat="40.87837" lon="0.71607">
        <ele>142.4</ele>
        <time>2022-05-25 00:41:00</time>
      </trkpt>
      <trkpt lat="40.8784" lon="0.71606">
        <ele>142.4</ele>
        <time>2022-05-25 00:41:01</time>
      </trkpt>
      <trkpt lat="40.87843" lon="0.71606">
        <ele>142.2</ele>
        <time>2022-05-25 00:41:02</time>
      </trkpt>
      <trkpt lat="40.87846" lon="0.71606">
        <ele>142</ele>
        <time>2022-05-25 00:41:03</time>
      </trkpt>
      <trkpt lat="40.87849" lon="0.71606">
        <ele>142</ele>
        <time>2022-05-25 00:41:04</time>
      </trkpt>
      <trkpt lat="40.87852" lon="0.71606">
        <ele>142.2</ele>
        <time>2022-05-25 00:41:05</time>
      </trkpt>
      <trkpt lat="40.87855" lon="0.71607">
        <ele>142.2</ele>
        <time>2022-05-25 00:41:06</time>
      </trkpt>
      <trkpt lat="40.87858" lon="0.71607">
        <ele>142.2</ele>
        <time>2022-05-25 00:41:07</time>
      </trkpt>
      <trkpt lat="40.87861" lon="0.71607">
        <ele>142.4</ele>
        <time>2022-05-25 00:41:08</time>
      </trkpt>
      <trkpt lat="40.87864" lon="0.71608">
        <ele>142.4</ele>
        <time>2022-05-25 00:41:09</time>
      </trkpt>
      <trkpt lat="40.87867" lon="0.71608">
        <ele>142.6</ele>
        <time>2022-05-25 00:41:10</time>
      </trkpt>
      <trkpt lat="40.8787" lon="0.71608">
        <ele>142.6</ele>
        <time>2022-05-25 00:41:11</time>
      </trkpt>
      <trkpt lat="40.87873" lon="0.71609">
        <ele>142.6</ele>
        <time>2022-05-25 00:41:12</time>
      </trkpt>
      <trkpt lat="40.87877" lon="0.71609">
        <ele>142.8</ele>
        <time>2022-05-25 00:41:13</time>
      </trkpt>
      <trkpt lat="40.8788" lon="0.71609">
        <ele>143</ele>
        <time>2022-05-25 00:41:14</time>
      </trkpt>
      <trkpt lat="40.87883" lon="0.71609">
        <ele>143.2</ele>
        <time>2022-05-25 00:41:15</time>
      </trkpt>
      <trkpt lat="40.87886" lon="0.7161">
        <ele>143.4</ele>
        <time>2022-05-25 00:41:16</time>
      </trkpt>
      <trkpt lat="40.87889" lon="0.7161">
        <ele>143.4</ele>
        <time>2022-05-25 00:41:17</time>
      </trkpt>
      <trkpt lat="40.87892" lon="0.7161">
        <ele>143.4</ele>
        <time>2022-05-25 00:41:18</time>
      </trkpt>
      <trkpt lat="40.87895" lon="0.71611">
        <ele>143.4</ele>
        <time>2022-05-25 00:41:19</time>
      </trkpt>
      <trkpt lat="40.87898" lon="0.71611">
        <ele>143.6</ele>
        <time>2022-05-25 00:41:20</time>
      </trkpt>
      <trkpt lat="40.87901" lon="0.71611">
        <ele>143.6</ele>
        <time>2022-05-25 00:41:21</time>
      </trkpt>
      <trkpt lat="40.87904" lon="0.71611">
        <ele>143.6</ele>
        <time>2022-05-25 00:41:22</time>
      </trkpt>
      <trkpt lat="40.87907" lon="0.71611">
        <ele>143.8</ele>
        <time>2022-05-25 00:41:23</time>
      </trkpt>
      <trkpt lat="40.8791" lon="0.71611">
        <ele>144</ele>
        <time>2022-05-25 00:41:24</time>
      </trkpt>
      <trkpt lat="40.87912" lon="0.71611">
        <ele>144.2</ele>
        <time>2022-05-25 00:41:25</time>
      </trkpt>
      <trkpt lat="40.87915" lon="0.71611">
        <ele>144.2</ele>
        <time>2022-05-25 00:41:26</time>
      </trkpt>
      <trkpt lat="40.87918" lon="0.71611">
        <ele>144.2</ele>
        <time>2022-05-25 00:41:27</time>
      </trkpt>
      <trkpt lat="40.87922" lon="0.71611">
        <ele>144.4</ele>
        <time>2022-05-25 00:41:28</time>
      </trkpt>
      <trkpt lat="40.87924" lon="0.71611">
        <ele>144.4</ele>
        <time>2022-05-25 00:41:29</time>
      </trkpt>
      <trkpt lat="40.87927" lon="0.71611">
        <ele>144.4</ele>
        <time>2022-05-25 00:41:30</time>
      </trkpt>
      <trkpt lat="40.8793" lon="0.71611">
        <ele>144.4</ele>
        <time>2022-05-25 00:41:31</time>
      </trkpt>
      <trkpt lat="40.87932" lon="0.7161">
        <ele>144.4</ele>
        <time>2022-05-25 00:41:32</time>
      </trkpt>
      <trkpt lat="40.87934" lon="0.7161">
        <ele>144.6</ele>
        <time>2022-05-25 00:41:33</time>
      </trkpt>
      <trkpt lat="40.87937" lon="0.7161">
        <ele>144.8</ele>
        <time>2022-05-25 00:41:34</time>
      </trkpt>
      <trkpt lat="40.8794" lon="0.71611">
        <ele>145</ele>
        <time>2022-05-25 00:41:35</time>
      </trkpt>
      <trkpt lat="40.87943" lon="0.71611">
        <ele>145.4</ele>
        <time>2022-05-25 00:41:36</time>
      </trkpt>
      <trkpt lat="40.87946" lon="0.71612">
        <ele>145.6</ele>
        <time>2022-05-25 00:41:37</time>
      </trkpt>
      <trkpt lat="40.87949" lon="0.71612">
        <ele>146</ele>
        <time>2022-05-25 00:41:38</time>
      </trkpt>
      <trkpt lat="40.87952" lon="0.71613">
        <ele>146.2</ele>
        <time>2022-05-25 00:41:39</time>
      </trkpt>
      <trkpt lat="40.87955" lon="0.71614">
        <ele>146.2</ele>
        <time>2022-05-25 00:41:40</time>
      </trkpt>
      <trkpt lat="40.87958" lon="0.71615">
        <ele>146.2</ele>
        <time>2022-05-25 00:41:41</time>
      </trkpt>
      <trkpt lat="40.87961" lon="0.71615">
        <ele>146.4</ele>
        <time>2022-05-25 00:41:42</time>
      </trkpt>
      <trkpt lat="40.87964" lon="0.71616">
        <ele>146.6</ele>
        <time>2022-05-25 00:41:43</time>
      </trkpt>
      <trkpt lat="40.87966" lon="0.71616">
        <ele>146.6</ele>
        <time>2022-05-25 00:41:44</time>
      </trkpt>
      <trkpt lat="40.87969" lon="0.71616">
        <ele>146.8</ele>
        <time>2022-05-25 00:41:45</time>
      </trkpt>
      <trkpt lat="40.87972" lon="0.71617">
        <ele>146.8</ele>
        <time>2022-05-25 00:41:46</time>
      </trkpt>
      <trkpt lat="40.87975" lon="0.71617">
        <ele>146.8</ele>
        <time>2022-05-25 00:41:47</time>
      </trkpt>
      <trkpt lat="40.87977" lon="0.71617">
        <ele>146.8</ele>
        <time>2022-05-25 00:41:48</time>
      </trkpt>
      <trkpt lat="40.8798" lon="0.71617">
        <ele>146.8</ele>
        <time>2022-05-25 00:41:49</time>
      </trkpt>
      <trkpt lat="40.87982" lon="0.71617">
        <ele>147</ele>
        <time>2022-05-25 00:41:50</time>
      </trkpt>
      <trkpt lat="40.87984" lon="0.71617">
        <ele>147.2</ele>
        <time>2022-05-25 00:41:51</time>
      </trkpt>
      <trkpt lat="40.87987" lon="0.71617">
        <ele>147.4</ele>
        <time>2022-05-25 00:41:52</time>
      </trkpt>
      <trkpt lat="40.87989" lon="0.71617">
        <ele>147.4</ele>
        <time>2022-05-25 00:41:53</time>
      </trkpt>
      <trkpt lat="40.87992" lon="0.71617">
        <ele>147.4</ele>
        <time>2022-05-25 00:41:54</time>
      </trkpt>
      <trkpt lat="40.87994" lon="0.71617">
        <ele>147.4</ele>
        <time>2022-05-25 00:41:55</time>
      </trkpt>
      <trkpt lat="40.87997" lon="0.71616">
        <ele>147.6</ele>
        <time>2022-05-25 00:41:56</time>
      </trkpt>
      <trkpt lat="40.87999" lon="0.71616">
        <ele>147.8</ele>
        <time>2022-05-25 00:41:57</time>
      </trkpt>
      <trkpt lat="40.88002" lon="0.71616">
        <ele>148</ele>
        <time>2022-05-25 00:41:58</time>
      </trkpt>
      <trkpt lat="40.88005" lon="0.71616">
        <ele>148.2</ele>
        <time>2022-05-25 00:41:59</time>
      </trkpt>
      <trkpt lat="40.8801" lon="0.71616">
        <ele>148.4</ele>
        <time>2022-05-25 00:42:00</time>
      </trkpt>
      <trkpt lat="40.88014" lon="0.71616">
        <ele>148.6</ele>
        <time>2022-05-25 00:42:01</time>
      </trkpt>
      <trkpt lat="40.88017" lon="0.71616">
        <ele>148.6</ele>
        <time>2022-05-25 00:42:02</time>
      </trkpt>
      <trkpt lat="40.88017" lon="0.71618">
        <ele>148.8</ele>
        <time>2022-05-25 00:42:03</time>
      </trkpt>
      <trkpt lat="40.8802" lon="0.71618">
        <ele>148.8</ele>
        <time>2022-05-25 00:42:04</time>
      </trkpt>
      <trkpt lat="40.88022" lon="0.71618">
        <ele>149</ele>
        <time>2022-05-25 00:42:05</time>
      </trkpt>
      <trkpt lat="40.88025" lon="0.71619">
        <ele>149</ele>
        <time>2022-05-25 00:42:06</time>
      </trkpt>
      <trkpt lat="40.88027" lon="0.71619">
        <ele>149</ele>
        <time>2022-05-25 00:42:07</time>
      </trkpt>
      <trkpt lat="40.88029" lon="0.7162">
        <ele>149</ele>
        <time>2022-05-25 00:42:08</time>
      </trkpt>
      <trkpt lat="40.88031" lon="0.7162">
        <ele>149.2</ele>
        <time>2022-05-25 00:42:09</time>
      </trkpt>
      <trkpt lat="40.88034" lon="0.7162">
        <ele>149.2</ele>
        <time>2022-05-25 00:42:10</time>
      </trkpt>
      <trkpt lat="40.88036" lon="0.7162">
        <ele>149.4</ele>
        <time>2022-05-25 00:42:11</time>
      </trkpt>
      <trkpt lat="40.88039" lon="0.71619">
        <ele>149.6</ele>
        <time>2022-05-25 00:42:12</time>
      </trkpt>
      <trkpt lat="40.88041" lon="0.7162">
        <ele>149.6</ele>
        <time>2022-05-25 00:42:13</time>
      </trkpt>
      <trkpt lat="40.88044" lon="0.7162">
        <ele>149.8</ele>
        <time>2022-05-25 00:42:14</time>
      </trkpt>
      <trkpt lat="40.88047" lon="0.71621">
        <ele>149.8</ele>
        <time>2022-05-25 00:42:15</time>
      </trkpt>
      <trkpt lat="40.88049" lon="0.71621">
        <ele>150</ele>
        <time>2022-05-25 00:42:16</time>
      </trkpt>
      <trkpt lat="40.88052" lon="0.71622">
        <ele>150</ele>
        <time>2022-05-25 00:42:17</time>
      </trkpt>
      <trkpt lat="40.88055" lon="0.71622">
        <ele>150</ele>
        <time>2022-05-25 00:42:18</time>
      </trkpt>
      <trkpt lat="40.88057" lon="0.71621">
        <ele>150</ele>
        <time>2022-05-25 00:42:19</time>
      </trkpt>
      <trkpt lat="40.8806" lon="0.71621">
        <ele>150</ele>
        <time>2022-05-25 00:42:20</time>
      </trkpt>
      <trkpt lat="40.88062" lon="0.71621">
        <ele>150.2</ele>
        <time>2022-05-25 00:42:21</time>
      </trkpt>
      <trkpt lat="40.88065" lon="0.71621">
        <ele>150.4</ele>
        <time>2022-05-25 00:42:22</time>
      </trkpt>
      <trkpt lat="40.88068" lon="0.71621">
        <ele>150.6</ele>
        <time>2022-05-25 00:42:23</time>
      </trkpt>
      <trkpt lat="40.8807" lon="0.71621">
        <ele>150.6</ele>
        <time>2022-05-25 00:42:24</time>
      </trkpt>
      <trkpt lat="40.88073" lon="0.71621">
        <ele>150.8</ele>
        <time>2022-05-25 00:42:25</time>
      </trkpt>
      <trkpt lat="40.88075" lon="0.71621">
        <ele>150.8</ele>
        <time>2022-05-25 00:42:26</time>
      </trkpt>
      <trkpt lat="40.88078" lon="0.71622">
        <ele>150.8</ele>
        <time>2022-05-25 00:42:27</time>
      </trkpt>
      <trkpt lat="40.88081" lon="0.71622">
        <ele>151</ele>
        <time>2022-05-25 00:42:28</time>
      </trkpt>
      <trkpt lat="40.88083" lon="0.71622">
        <ele>151</ele>
        <time>2022-05-25 00:42:29</time>
      </trkpt>
      <trkpt lat="40.88086" lon="0.71622">
        <ele>151.2</ele>
        <time>2022-05-25 00:42:30</time>
      </trkpt>
      <trkpt lat="40.88089" lon="0.71623">
        <ele>151.2</ele>
        <time>2022-05-25 00:42:31</time>
      </trkpt>
      <trkpt lat="40.88092" lon="0.71623">
        <ele>151.4</ele>
        <time>2022-05-25 00:42:32</time>
      </trkpt>
      <trkpt lat="40.88094" lon="0.71623">
        <ele>151.6</ele>
        <time>2022-05-25 00:42:33</time>
      </trkpt>
      <trkpt lat="40.88097" lon="0.71623">
        <ele>151.6</ele>
        <time>2022-05-25 00:42:34</time>
      </trkpt>
      <trkpt lat="40.881" lon="0.71623">
        <ele>151.8</ele>
        <time>2022-05-25 00:42:35</time>
      </trkpt>
      <trkpt lat="40.88103" lon="0.71623">
        <ele>151.8</ele>
        <time>2022-05-25 00:42:36</time>
      </trkpt>
      <trkpt lat="40.88107" lon="0.71623">
        <ele>152</ele>
        <time>2022-05-25 00:42:37</time>
      </trkpt>
      <trkpt lat="40.8811" lon="0.71623">
        <ele>152</ele>
        <time>2022-05-25 00:42:38</time>
      </trkpt>
      <trkpt lat="40.88113" lon="0.71624">
        <ele>152</ele>
        <time>2022-05-25 00:42:39</time>
      </trkpt>
      <trkpt lat="40.88116" lon="0.71624">
        <ele>152</ele>
        <time>2022-05-25 00:42:40</time>
      </trkpt>
      <trkpt lat="40.8812" lon="0.71625">
        <ele>151.8</ele>
        <time>2022-05-25 00:42:41</time>
      </trkpt>
      <trkpt lat="40.88124" lon="0.71626">
        <ele>151.8</ele>
        <time>2022-05-25 00:42:42</time>
      </trkpt>
      <trkpt lat="40.88128" lon="0.71627">
        <ele>151.6</ele>
        <time>2022-05-25 00:42:43</time>
      </trkpt>
      <trkpt lat="40.88132" lon="0.71628">
        <ele>151.4</ele>
        <time>2022-05-25 00:42:44</time>
      </trkpt>
      <trkpt lat="40.88136" lon="0.71629">
        <ele>151.2</ele>
        <time>2022-05-25 00:42:45</time>
      </trkpt>
      <trkpt lat="40.88139" lon="0.71631">
        <ele>151</ele>
        <time>2022-05-25 00:42:46</time>
      </trkpt>
      <trkpt lat="40.88143" lon="0.71633">
        <ele>150.8</ele>
        <time>2022-05-25 00:42:47</time>
      </trkpt>
      <trkpt lat="40.88147" lon="0.71635">
        <ele>150.6</ele>
        <time>2022-05-25 00:42:48</time>
      </trkpt>
      <trkpt lat="40.88151" lon="0.71638">
        <ele>150.6</ele>
        <time>2022-05-25 00:42:49</time>
      </trkpt>
      <trkpt lat="40.88155" lon="0.71641">
        <ele>150.8</ele>
        <time>2022-05-25 00:42:50</time>
      </trkpt>
      <trkpt lat="40.88159" lon="0.71645">
        <ele>150.8</ele>
        <time>2022-05-25 00:42:51</time>
      </trkpt>
      <trkpt lat="40.88163" lon="0.71649">
        <ele>150.6</ele>
        <time>2022-05-25 00:42:52</time>
      </trkpt>
      <trkpt lat="40.88167" lon="0.71654">
        <ele>150.4</ele>
        <time>2022-05-25 00:42:53</time>
      </trkpt>
      <trkpt lat="40.88171" lon="0.7166">
        <ele>150</ele>
        <time>2022-05-25 00:42:54</time>
      </trkpt>
      <trkpt lat="40.88174" lon="0.71667">
        <ele>149.6</ele>
        <time>2022-05-25 00:42:55</time>
      </trkpt>
      <trkpt lat="40.88176" lon="0.71674">
        <ele>149.2</ele>
        <time>2022-05-25 00:42:56</time>
      </trkpt>
      <trkpt lat="40.88179" lon="0.71683">
        <ele>148.8</ele>
        <time>2022-05-25 00:42:57</time>
      </trkpt>
      <trkpt lat="40.88181" lon="0.71692">
        <ele>148.6</ele>
        <time>2022-05-25 00:42:58</time>
      </trkpt>
      <trkpt lat="40.88182" lon="0.71701">
        <ele>148.2</ele>
        <time>2022-05-25 00:42:59</time>
      </trkpt>
      <trkpt lat="40.88183" lon="0.7171">
        <ele>148</ele>
        <time>2022-05-25 00:43:00</time>
      </trkpt>
      <trkpt lat="40.88183" lon="0.7172">
        <ele>147.4</ele>
        <time>2022-05-25 00:43:01</time>
      </trkpt>
      <trkpt lat="40.88183" lon="0.71729">
        <ele>147.2</ele>
        <time>2022-05-25 00:43:02</time>
      </trkpt>
      <trkpt lat="40.88182" lon="0.7174">
        <ele>146.8</ele>
        <time>2022-05-25 00:43:03</time>
      </trkpt>
      <trkpt lat="40.88181" lon="0.7175">
        <ele>146.2</ele>
        <time>2022-05-25 00:43:04</time>
      </trkpt>
      <trkpt lat="40.88181" lon="0.7176">
        <ele>145.8</ele>
        <time>2022-05-25 00:43:05</time>
      </trkpt>
      <trkpt lat="40.88179" lon="0.71769">
        <ele>145.2</ele>
        <time>2022-05-25 00:43:06</time>
      </trkpt>
      <trkpt lat="40.88176" lon="0.71778">
        <ele>144.8</ele>
        <time>2022-05-25 00:43:07</time>
      </trkpt>
      <trkpt lat="40.88173" lon="0.71787">
        <ele>144.4</ele>
        <time>2022-05-25 00:43:08</time>
      </trkpt>
      <trkpt lat="40.88169" lon="0.71795">
        <ele>144</ele>
        <time>2022-05-25 00:43:09</time>
      </trkpt>
      <trkpt lat="40.88166" lon="0.71803">
        <ele>143.6</ele>
        <time>2022-05-25 00:43:10</time>
      </trkpt>
      <trkpt lat="40.88163" lon="0.7181">
        <ele>143.4</ele>
        <time>2022-05-25 00:43:11</time>
      </trkpt>
      <trkpt lat="40.88161" lon="0.71818">
        <ele>143</ele>
        <time>2022-05-25 00:43:12</time>
      </trkpt>
      <trkpt lat="40.88161" lon="0.71825">
        <ele>142.8</ele>
        <time>2022-05-25 00:43:13</time>
      </trkpt>
      <trkpt lat="40.88163" lon="0.71832">
        <ele>142.6</ele>
        <time>2022-05-25 00:43:14</time>
      </trkpt>
      <trkpt lat="40.88166" lon="0.71838">
        <ele>142.2</ele>
        <time>2022-05-25 00:43:15</time>
      </trkpt>
      <trkpt lat="40.88171" lon="0.71842">
        <ele>141.8</ele>
        <time>2022-05-25 00:43:16</time>
      </trkpt>
      <trkpt lat="40.88177" lon="0.71845">
        <ele>141.4</ele>
        <time>2022-05-25 00:43:17</time>
      </trkpt>
      <trkpt lat="40.88182" lon="0.71845">
        <ele>141</ele>
        <time>2022-05-25 00:43:18</time>
      </trkpt>
      <trkpt lat="40.88188" lon="0.71844">
        <ele>140.8</ele>
        <time>2022-05-25 00:43:19</time>
      </trkpt>
      <trkpt lat="40.88194" lon="0.71843">
        <ele>140.6</ele>
        <time>2022-05-25 00:43:20</time>
      </trkpt>
      <trkpt lat="40.88199" lon="0.71842">
        <ele>140.4</ele>
        <time>2022-05-25 00:43:21</time>
      </trkpt>
      <trkpt lat="40.88205" lon="0.71841">
        <ele>140.2</ele>
        <time>2022-05-25 00:43:22</time>
      </trkpt>
      <trkpt lat="40.8821" lon="0.71841">
        <ele>140.2</ele>
        <time>2022-05-25 00:43:23</time>
      </trkpt>
      <trkpt lat="40.88216" lon="0.71841">
        <ele>140.2</ele>
        <time>2022-05-25 00:43:24</time>
      </trkpt>
      <trkpt lat="40.88222" lon="0.71842">
        <ele>140.2</ele>
        <time>2022-05-25 00:43:25</time>
      </trkpt>
      <trkpt lat="40.88228" lon="0.71843">
        <ele>140.2</ele>
        <time>2022-05-25 00:43:26</time>
      </trkpt>
      <trkpt lat="40.88234" lon="0.71843">
        <ele>140</ele>
        <time>2022-05-25 00:43:27</time>
      </trkpt>
      <trkpt lat="40.8824" lon="0.71845">
        <ele>140</ele>
        <time>2022-05-25 00:43:28</time>
      </trkpt>
      <trkpt lat="40.88245" lon="0.71846">
        <ele>139.8</ele>
        <time>2022-05-25 00:43:29</time>
      </trkpt>
      <trkpt lat="40.88251" lon="0.71848">
        <ele>139.6</ele>
        <time>2022-05-25 00:43:30</time>
      </trkpt>
      <trkpt lat="40.88258" lon="0.7185">
        <ele>139.4</ele>
        <time>2022-05-25 00:43:31</time>
      </trkpt>
      <trkpt lat="40.88264" lon="0.71851">
        <ele>139.2</ele>
        <time>2022-05-25 00:43:32</time>
      </trkpt>
      <trkpt lat="40.8827" lon="0.71852">
        <ele>139.2</ele>
        <time>2022-05-25 00:43:33</time>
      </trkpt>
      <trkpt lat="40.88277" lon="0.71853">
        <ele>139.2</ele>
        <time>2022-05-25 00:43:34</time>
      </trkpt>
      <trkpt lat="40.88284" lon="0.71854">
        <ele>139</ele>
        <time>2022-05-25 00:43:35</time>
      </trkpt>
      <trkpt lat="40.8829" lon="0.71856">
        <ele>138.8</ele>
        <time>2022-05-25 00:43:36</time>
      </trkpt>
      <trkpt lat="40.88297" lon="0.71857">
        <ele>138.8</ele>
        <time>2022-05-25 00:43:37</time>
      </trkpt>
      <trkpt lat="40.88303" lon="0.71858">
        <ele>138.4</ele>
        <time>2022-05-25 00:43:38</time>
      </trkpt>
      <trkpt lat="40.88309" lon="0.71859">
        <ele>138.4</ele>
        <time>2022-05-25 00:43:39</time>
      </trkpt>
      <trkpt lat="40.88316" lon="0.7186">
        <ele>138.2</ele>
        <time>2022-05-25 00:43:40</time>
      </trkpt>
      <trkpt lat="40.88322" lon="0.7186">
        <ele>138</ele>
        <time>2022-05-25 00:43:41</time>
      </trkpt>
      <trkpt lat="40.88329" lon="0.71861">
        <ele>137.6</ele>
        <time>2022-05-25 00:43:42</time>
      </trkpt>
      <trkpt lat="40.88336" lon="0.71863">
        <ele>137.4</ele>
        <time>2022-05-25 00:43:43</time>
      </trkpt>
      <trkpt lat="40.88342" lon="0.71864">
        <ele>137.2</ele>
        <time>2022-05-25 00:43:44</time>
      </trkpt>
      <trkpt lat="40.88348" lon="0.71866">
        <ele>137</ele>
        <time>2022-05-25 00:43:45</time>
      </trkpt>
      <trkpt lat="40.88355" lon="0.71867">
        <ele>136.6</ele>
        <time>2022-05-25 00:43:46</time>
      </trkpt>
      <trkpt lat="40.88361" lon="0.71868">
        <ele>136.4</ele>
        <time>2022-05-25 00:43:47</time>
      </trkpt>
      <trkpt lat="40.88368" lon="0.71869">
        <ele>136.2</ele>
        <time>2022-05-25 00:43:48</time>
      </trkpt>
      <trkpt lat="40.88374" lon="0.7187">
        <ele>136</ele>
        <time>2022-05-25 00:43:49</time>
      </trkpt>
      <trkpt lat="40.8838" lon="0.71871">
        <ele>135.8</ele>
        <time>2022-05-25 00:43:50</time>
      </trkpt>
      <trkpt lat="40.88387" lon="0.71872">
        <ele>135.8</ele>
        <time>2022-05-25 00:43:51</time>
      </trkpt>
      <trkpt lat="40.88393" lon="0.71873">
        <ele>135.6</ele>
        <time>2022-05-25 00:43:52</time>
      </trkpt>
      <trkpt lat="40.88399" lon="0.71873">
        <ele>135.6</ele>
        <time>2022-05-25 00:43:53</time>
      </trkpt>
      <trkpt lat="40.88406" lon="0.71874">
        <ele>135.6</ele>
        <time>2022-05-25 00:43:54</time>
      </trkpt>
      <trkpt lat="40.88412" lon="0.71875">
        <ele>135.4</ele>
        <time>2022-05-25 00:43:55</time>
      </trkpt>
      <trkpt lat="40.88418" lon="0.71876">
        <ele>135.2</ele>
        <time>2022-05-25 00:43:56</time>
      </trkpt>
      <trkpt lat="40.88424" lon="0.71878">
        <ele>135</ele>
        <time>2022-05-25 00:43:57</time>
      </trkpt>
      <trkpt lat="40.8843" lon="0.71879">
        <ele>134.8</ele>
        <time>2022-05-25 00:43:58</time>
      </trkpt>
      <trkpt lat="40.88436" lon="0.7188">
        <ele>134.6</ele>
        <time>2022-05-25 00:43:59</time>
      </trkpt>
      <trkpt lat="40.88442" lon="0.7188">
        <ele>134.6</ele>
        <time>2022-05-25 00:44:00</time>
      </trkpt>
      <trkpt lat="40.88448" lon="0.71881">
        <ele>134.6</ele>
        <time>2022-05-25 00:44:01</time>
      </trkpt>
      <trkpt lat="40.88454" lon="0.71882">
        <ele>134.4</ele>
        <time>2022-05-25 00:44:02</time>
      </trkpt>
      <trkpt lat="40.88461" lon="0.71883">
        <ele>134.4</ele>
        <time>2022-05-25 00:44:03</time>
      </trkpt>
      <trkpt lat="40.88467" lon="0.71885">
        <ele>134.2</ele>
        <time>2022-05-25 00:44:04</time>
      </trkpt>
      <trkpt lat="40.88472" lon="0.71886">
        <ele>134.2</ele>
        <time>2022-05-25 00:44:05</time>
      </trkpt>
      <trkpt lat="40.88478" lon="0.71887">
        <ele>134</ele>
        <time>2022-05-25 00:44:06</time>
      </trkpt>
      <trkpt lat="40.88484" lon="0.71889">
        <ele>134</ele>
        <time>2022-05-25 00:44:07</time>
      </trkpt>
      <trkpt lat="40.8849" lon="0.7189">
        <ele>133.8</ele>
        <time>2022-05-25 00:44:08</time>
      </trkpt>
      <trkpt lat="40.88496" lon="0.71891">
        <ele>133.6</ele>
        <time>2022-05-25 00:44:09</time>
      </trkpt>
      <trkpt lat="40.88501" lon="0.71892">
        <ele>133.6</ele>
        <time>2022-05-25 00:44:10</time>
      </trkpt>
      <trkpt lat="40.88507" lon="0.71893">
        <ele>133.6</ele>
        <time>2022-05-25 00:44:11</time>
      </trkpt>
      <trkpt lat="40.88513" lon="0.71894">
        <ele>133.4</ele>
        <time>2022-05-25 00:44:12</time>
      </trkpt>
      <trkpt lat="40.88519" lon="0.71895">
        <ele>133.4</ele>
        <time>2022-05-25 00:44:13</time>
      </trkpt>
      <trkpt lat="40.88524" lon="0.71896">
        <ele>133.2</ele>
        <time>2022-05-25 00:44:14</time>
      </trkpt>
      <trkpt lat="40.8853" lon="0.71897">
        <ele>133</ele>
        <time>2022-05-25 00:44:15</time>
      </trkpt>
      <trkpt lat="40.88536" lon="0.71898">
        <ele>132.8</ele>
        <time>2022-05-25 00:44:16</time>
      </trkpt>
      <trkpt lat="40.88543" lon="0.71899">
        <ele>132.8</ele>
        <time>2022-05-25 00:44:17</time>
      </trkpt>
      <trkpt lat="40.88548" lon="0.719">
        <ele>132.8</ele>
        <time>2022-05-25 00:44:18</time>
      </trkpt>
      <trkpt lat="40.88554" lon="0.71901">
        <ele>132.6</ele>
        <time>2022-05-25 00:44:19</time>
      </trkpt>
      <trkpt lat="40.8856" lon="0.71902">
        <ele>132.4</ele>
        <time>2022-05-25 00:44:20</time>
      </trkpt>
      <trkpt lat="40.88567" lon="0.71903">
        <ele>132.4</ele>
        <time>2022-05-25 00:44:21</time>
      </trkpt>
      <trkpt lat="40.88572" lon="0.71904">
        <ele>132.2</ele>
        <time>2022-05-25 00:44:22</time>
      </trkpt>
      <trkpt lat="40.88578" lon="0.71905">
        <ele>132.2</ele>
        <time>2022-05-25 00:44:23</time>
      </trkpt>
      <trkpt lat="40.88584" lon="0.71906">
        <ele>132</ele>
        <time>2022-05-25 00:44:24</time>
      </trkpt>
      <trkpt lat="40.88589" lon="0.71907">
        <ele>131.8</ele>
        <time>2022-05-25 00:44:25</time>
      </trkpt>
      <trkpt lat="40.88595" lon="0.71908">
        <ele>131.8</ele>
        <time>2022-05-25 00:44:26</time>
      </trkpt>
      <trkpt lat="40.88602" lon="0.71909">
        <ele>131.6</ele>
        <time>2022-05-25 00:44:27</time>
      </trkpt>
      <trkpt lat="40.88607" lon="0.7191">
        <ele>131.4</ele>
        <time>2022-05-25 00:44:28</time>
      </trkpt>
      <trkpt lat="40.88613" lon="0.71911">
        <ele>131.4</ele>
        <time>2022-05-25 00:44:29</time>
      </trkpt>
      <trkpt lat="40.88619" lon="0.71912">
        <ele>131.2</ele>
        <time>2022-05-25 00:44:30</time>
      </trkpt>
      <trkpt lat="40.88624" lon="0.71914">
        <ele>131.2</ele>
        <time>2022-05-25 00:44:31</time>
      </trkpt>
      <trkpt lat="40.88629" lon="0.71915">
        <ele>131</ele>
        <time>2022-05-25 00:44:32</time>
      </trkpt>
      <trkpt lat="40.88634" lon="0.71917">
        <ele>131</ele>
        <time>2022-05-25 00:44:33</time>
      </trkpt>
      <trkpt lat="40.8864" lon="0.71918">
        <ele>130.8</ele>
        <time>2022-05-25 00:44:34</time>
      </trkpt>
      <trkpt lat="40.88644" lon="0.71919">
        <ele>130.8</ele>
        <time>2022-05-25 00:44:35</time>
      </trkpt>
      <trkpt lat="40.88649" lon="0.71921">
        <ele>130.8</ele>
        <time>2022-05-25 00:44:36</time>
      </trkpt>
      <trkpt lat="40.88654" lon="0.71923">
        <ele>130.8</ele>
        <time>2022-05-25 00:44:37</time>
      </trkpt>
      <trkpt lat="40.8866" lon="0.71925">
        <ele>130.8</ele>
        <time>2022-05-25 00:44:38</time>
      </trkpt>
      <trkpt lat="40.88665" lon="0.71926">
        <ele>130.8</ele>
        <time>2022-05-25 00:44:39</time>
      </trkpt>
      <trkpt lat="40.88669" lon="0.71928">
        <ele>131</ele>
        <time>2022-05-25 00:44:40</time>
      </trkpt>
      <trkpt lat="40.88675" lon="0.7193">
        <ele>131</ele>
        <time>2022-05-25 00:44:41</time>
      </trkpt>
      <trkpt lat="40.8868" lon="0.71933">
        <ele>131</ele>
        <time>2022-05-25 00:44:42</time>
      </trkpt>
      <trkpt lat="40.88685" lon="0.71936">
        <ele>131</ele>
        <time>2022-05-25 00:44:43</time>
      </trkpt>
      <trkpt lat="40.8869" lon="0.71938">
        <ele>131</ele>
        <time>2022-05-25 00:44:44</time>
      </trkpt>
      <trkpt lat="40.88695" lon="0.71941">
        <ele>131</ele>
        <time>2022-05-25 00:44:45</time>
      </trkpt>
      <trkpt lat="40.887" lon="0.71943">
        <ele>131</ele>
        <time>2022-05-25 00:44:46</time>
      </trkpt>
      <trkpt lat="40.88705" lon="0.71946">
        <ele>131</ele>
        <time>2022-05-25 00:44:47</time>
      </trkpt>
      <trkpt lat="40.8871" lon="0.71949">
        <ele>130.8</ele>
        <time>2022-05-25 00:44:48</time>
      </trkpt>
      <trkpt lat="40.88716" lon="0.71952">
        <ele>130.8</ele>
        <time>2022-05-25 00:44:49</time>
      </trkpt>
      <trkpt lat="40.88721" lon="0.71955">
        <ele>130.8</ele>
        <time>2022-05-25 00:44:50</time>
      </trkpt>
      <trkpt lat="40.88726" lon="0.71958">
        <ele>130.8</ele>
        <time>2022-05-25 00:44:51</time>
      </trkpt>
      <trkpt lat="40.88731" lon="0.71962">
        <ele>130.8</ele>
        <time>2022-05-25 00:44:52</time>
      </trkpt>
      <trkpt lat="40.88737" lon="0.71965">
        <ele>130.8</ele>
        <time>2022-05-25 00:44:53</time>
      </trkpt>
      <trkpt lat="40.88742" lon="0.71969">
        <ele>130.8</ele>
        <time>2022-05-25 00:44:54</time>
      </trkpt>
      <trkpt lat="40.88747" lon="0.71973">
        <ele>130.6</ele>
        <time>2022-05-25 00:44:55</time>
      </trkpt>
      <trkpt lat="40.88752" lon="0.71977">
        <ele>130.6</ele>
        <time>2022-05-25 00:44:56</time>
      </trkpt>
      <trkpt lat="40.88757" lon="0.71981">
        <ele>130.6</ele>
        <time>2022-05-25 00:44:57</time>
      </trkpt>
      <trkpt lat="40.88762" lon="0.71984">
        <ele>130.4</ele>
        <time>2022-05-25 00:44:58</time>
      </trkpt>
      <trkpt lat="40.88767" lon="0.71988">
        <ele>130.4</ele>
        <time>2022-05-25 00:44:59</time>
      </trkpt>
      <trkpt lat="40.88771" lon="0.71992">
        <ele>130.4</ele>
        <time>2022-05-25 00:45:00</time>
      </trkpt>
      <trkpt lat="40.88776" lon="0.71997">
        <ele>130.2</ele>
        <time>2022-05-25 00:45:01</time>
      </trkpt>
      <trkpt lat="40.88781" lon="0.72001">
        <ele>130.2</ele>
        <time>2022-05-25 00:45:02</time>
      </trkpt>
      <trkpt lat="40.88786" lon="0.72005">
        <ele>130</ele>
        <time>2022-05-25 00:45:03</time>
      </trkpt>
      <trkpt lat="40.8879" lon="0.72009">
        <ele>130</ele>
        <time>2022-05-25 00:45:04</time>
      </trkpt>
      <trkpt lat="40.88794" lon="0.72013">
        <ele>130</ele>
        <time>2022-05-25 00:45:05</time>
      </trkpt>
      <trkpt lat="40.88799" lon="0.72018">
        <ele>129.8</ele>
        <time>2022-05-25 00:45:06</time>
      </trkpt>
      <trkpt lat="40.88803" lon="0.72023">
        <ele>129.8</ele>
        <time>2022-05-25 00:45:07</time>
      </trkpt>
      <trkpt lat="40.88808" lon="0.72027">
        <ele>129.8</ele>
        <time>2022-05-25 00:45:08</time>
      </trkpt>
      <trkpt lat="40.88812" lon="0.72032">
        <ele>129.8</ele>
        <time>2022-05-25 00:45:09</time>
      </trkpt>
      <trkpt lat="40.88816" lon="0.72037">
        <ele>129.6</ele>
        <time>2022-05-25 00:45:10</time>
      </trkpt>
      <trkpt lat="40.8882" lon="0.72042">
        <ele>129.6</ele>
        <time>2022-05-25 00:45:11</time>
      </trkpt>
      <trkpt lat="40.88825" lon="0.72047">
        <ele>129.4</ele>
        <time>2022-05-25 00:45:12</time>
      </trkpt>
      <trkpt lat="40.88829" lon="0.72052">
        <ele>129.4</ele>
        <time>2022-05-25 00:45:13</time>
      </trkpt>
      <trkpt lat="40.88833" lon="0.72057">
        <ele>129.4</ele>
        <time>2022-05-25 00:45:14</time>
      </trkpt>
      <trkpt lat="40.88837" lon="0.72062">
        <ele>129.2</ele>
        <time>2022-05-25 00:45:15</time>
      </trkpt>
      <trkpt lat="40.88841" lon="0.72067">
        <ele>129.2</ele>
        <time>2022-05-25 00:45:16</time>
      </trkpt>
      <trkpt lat="40.88845" lon="0.72072">
        <ele>129.2</ele>
        <time>2022-05-25 00:45:17</time>
      </trkpt>
      <trkpt lat="40.88849" lon="0.72078">
        <ele>129.2</ele>
        <time>2022-05-25 00:45:18</time>
      </trkpt>
      <trkpt lat="40.88853" lon="0.72083">
        <ele>129.2</ele>
        <time>2022-05-25 00:45:19</time>
      </trkpt>
      <trkpt lat="40.88857" lon="0.72088">
        <ele>129.2</ele>
        <time>2022-05-25 00:45:20</time>
      </trkpt>
      <trkpt lat="40.88861" lon="0.72094">
        <ele>129</ele>
        <time>2022-05-25 00:45:21</time>
      </trkpt>
      <trkpt lat="40.88865" lon="0.72099">
        <ele>129</ele>
        <time>2022-05-25 00:45:22</time>
      </trkpt>
      <trkpt lat="40.88869" lon="0.72104">
        <ele>129</ele>
        <time>2022-05-25 00:45:23</time>
      </trkpt>
      <trkpt lat="40.88873" lon="0.7211">
        <ele>129</ele>
        <time>2022-05-25 00:45:24</time>
      </trkpt>
      <trkpt lat="40.88877" lon="0.72115">
        <ele>128.8</ele>
        <time>2022-05-25 00:45:25</time>
      </trkpt>
      <trkpt lat="40.88881" lon="0.72121">
        <ele>128.8</ele>
        <time>2022-05-25 00:45:26</time>
      </trkpt>
      <trkpt lat="40.88884" lon="0.72126">
        <ele>128.6</ele>
        <time>2022-05-25 00:45:27</time>
      </trkpt>
      <trkpt lat="40.88888" lon="0.72131">
        <ele>128.6</ele>
        <time>2022-05-25 00:45:28</time>
      </trkpt>
      <trkpt lat="40.88892" lon="0.72136">
        <ele>128.4</ele>
        <time>2022-05-25 00:45:29</time>
      </trkpt>
      <trkpt lat="40.88896" lon="0.72142">
        <ele>128.4</ele>
        <time>2022-05-25 00:45:30</time>
      </trkpt>
      <trkpt lat="40.889" lon="0.72147">
        <ele>128.4</ele>
        <time>2022-05-25 00:45:31</time>
      </trkpt>
      <trkpt lat="40.88903" lon="0.72153">
        <ele>128.2</ele>
        <time>2022-05-25 00:45:32</time>
      </trkpt>
      <trkpt lat="40.88907" lon="0.72158">
        <ele>128.2</ele>
        <time>2022-05-25 00:45:33</time>
      </trkpt>
      <trkpt lat="40.88911" lon="0.72163">
        <ele>128.2</ele>
        <time>2022-05-25 00:45:34</time>
      </trkpt>
      <trkpt lat="40.88915" lon="0.72169">
        <ele>128.2</ele>
        <time>2022-05-25 00:45:35</time>
      </trkpt>
      <trkpt lat="40.88919" lon="0.72174">
        <ele>128</ele>
        <time>2022-05-25 00:45:36</time>
      </trkpt>
      <trkpt lat="40.88923" lon="0.7218">
        <ele>128</ele>
        <time>2022-05-25 00:45:37</time>
      </trkpt>
      <trkpt lat="40.88927" lon="0.72185">
        <ele>127.8</ele>
        <time>2022-05-25 00:45:38</time>
      </trkpt>
      <trkpt lat="40.88931" lon="0.72191">
        <ele>127.8</ele>
        <time>2022-05-25 00:45:39</time>
      </trkpt>
      <trkpt lat="40.88935" lon="0.72197">
        <ele>127.6</ele>
        <time>2022-05-25 00:45:40</time>
      </trkpt>
      <trkpt lat="40.8894" lon="0.72203">
        <ele>127.4</ele>
        <time>2022-05-25 00:45:41</time>
      </trkpt>
      <trkpt lat="40.88944" lon="0.72208">
        <ele>127.4</ele>
        <time>2022-05-25 00:45:42</time>
      </trkpt>
      <trkpt lat="40.88948" lon="0.72214">
        <ele>127.2</ele>
        <time>2022-05-25 00:45:43</time>
      </trkpt>
      <trkpt lat="40.88953" lon="0.7222">
        <ele>127.2</ele>
        <time>2022-05-25 00:45:44</time>
      </trkpt>
      <trkpt lat="40.88956" lon="0.72226">
        <ele>127.2</ele>
        <time>2022-05-25 00:45:45</time>
      </trkpt>
      <trkpt lat="40.88961" lon="0.72232">
        <ele>127</ele>
        <time>2022-05-25 00:45:46</time>
      </trkpt>
      <trkpt lat="40.88965" lon="0.72238">
        <ele>126.8</ele>
        <time>2022-05-25 00:45:47</time>
      </trkpt>
      <trkpt lat="40.8897" lon="0.72244">
        <ele>126.8</ele>
        <time>2022-05-25 00:45:48</time>
      </trkpt>
      <trkpt lat="40.88974" lon="0.7225">
        <ele>126.8</ele>
        <time>2022-05-25 00:45:49</time>
      </trkpt>
      <trkpt lat="40.88979" lon="0.72256">
        <ele>126.6</ele>
        <time>2022-05-25 00:45:50</time>
      </trkpt>
      <trkpt lat="40.88984" lon="0.72262">
        <ele>126.6</ele>
        <time>2022-05-25 00:45:51</time>
      </trkpt>
      <trkpt lat="40.88988" lon="0.72268">
        <ele>126.4</ele>
        <time>2022-05-25 00:45:52</time>
      </trkpt>
      <trkpt lat="40.88992" lon="0.72275">
        <ele>126.2</ele>
        <time>2022-05-25 00:45:53</time>
      </trkpt>
      <trkpt lat="40.88997" lon="0.72281">
        <ele>126.2</ele>
        <time>2022-05-25 00:45:54</time>
      </trkpt>
      <trkpt lat="40.89001" lon="0.72287">
        <ele>126</ele>
        <time>2022-05-25 00:45:55</time>
      </trkpt>
      <trkpt lat="40.89005" lon="0.72293">
        <ele>125.6</ele>
        <time>2022-05-25 00:45:56</time>
      </trkpt>
      <trkpt lat="40.8901" lon="0.723">
        <ele>125.4</ele>
        <time>2022-05-25 00:45:57</time>
      </trkpt>
      <trkpt lat="40.89015" lon="0.72306">
        <ele>125.2</ele>
        <time>2022-05-25 00:45:58</time>
      </trkpt>
      <trkpt lat="40.89019" lon="0.72312">
        <ele>125.2</ele>
        <time>2022-05-25 00:45:59</time>
      </trkpt>
      <trkpt lat="40.89024" lon="0.72318">
        <ele>125</ele>
        <time>2022-05-25 00:46:00</time>
      </trkpt>
      <trkpt lat="40.89029" lon="0.72325">
        <ele>124.8</ele>
        <time>2022-05-25 00:46:01</time>
      </trkpt>
      <trkpt lat="40.89033" lon="0.72331">
        <ele>124.6</ele>
        <time>2022-05-25 00:46:02</time>
      </trkpt>
      <trkpt lat="40.89038" lon="0.72338">
        <ele>124.2</ele>
        <time>2022-05-25 00:46:03</time>
      </trkpt>
      <trkpt lat="40.89042" lon="0.72344">
        <ele>123.8</ele>
        <time>2022-05-25 00:46:04</time>
      </trkpt>
      <trkpt lat="40.89047" lon="0.72351">
        <ele>123.4</ele>
        <time>2022-05-25 00:46:05</time>
      </trkpt>
      <trkpt lat="40.89052" lon="0.72358">
        <ele>123.4</ele>
        <time>2022-05-25 00:46:06</time>
      </trkpt>
      <trkpt lat="40.89057" lon="0.72364">
        <ele>123.2</ele>
        <time>2022-05-25 00:46:07</time>
      </trkpt>
      <trkpt lat="40.89062" lon="0.72371">
        <ele>123</ele>
        <time>2022-05-25 00:46:08</time>
      </trkpt>
      <trkpt lat="40.89066" lon="0.72378">
        <ele>122.8</ele>
        <time>2022-05-25 00:46:09</time>
      </trkpt>
      <trkpt lat="40.89072" lon="0.72385">
        <ele>122.6</ele>
        <time>2022-05-25 00:46:10</time>
      </trkpt>
      <trkpt lat="40.89077" lon="0.72392">
        <ele>122.4</ele>
        <time>2022-05-25 00:46:11</time>
      </trkpt>
      <trkpt lat="40.89082" lon="0.72398">
        <ele>122.4</ele>
        <time>2022-05-25 00:46:12</time>
      </trkpt>
      <trkpt lat="40.89087" lon="0.72405">
        <ele>122.2</ele>
        <time>2022-05-25 00:46:13</time>
      </trkpt>
      <trkpt lat="40.89091" lon="0.72412">
        <ele>122</ele>
        <time>2022-05-25 00:46:14</time>
      </trkpt>
      <trkpt lat="40.89096" lon="0.72419">
        <ele>121.8</ele>
        <time>2022-05-25 00:46:15</time>
      </trkpt>
      <trkpt lat="40.89101" lon="0.72426">
        <ele>121.6</ele>
        <time>2022-05-25 00:46:16</time>
      </trkpt>
      <trkpt lat="40.89106" lon="0.72433">
        <ele>121.4</ele>
        <time>2022-05-25 00:46:17</time>
      </trkpt>
      <trkpt lat="40.89111" lon="0.7244">
        <ele>121</ele>
        <time>2022-05-25 00:46:18</time>
      </trkpt>
      <trkpt lat="40.89117" lon="0.72447">
        <ele>120.8</ele>
        <time>2022-05-25 00:46:19</time>
      </trkpt>
      <trkpt lat="40.89122" lon="0.72454">
        <ele>120.6</ele>
        <time>2022-05-25 00:46:20</time>
      </trkpt>
      <trkpt lat="40.89127" lon="0.72461">
        <ele>120.2</ele>
        <time>2022-05-25 00:46:21</time>
      </trkpt>
      <trkpt lat="40.89132" lon="0.72468">
        <ele>120</ele>
        <time>2022-05-25 00:46:22</time>
      </trkpt>
      <trkpt lat="40.89138" lon="0.72475">
        <ele>119.8</ele>
        <time>2022-05-25 00:46:23</time>
      </trkpt>
      <trkpt lat="40.89142" lon="0.72482">
        <ele>119.4</ele>
        <time>2022-05-25 00:46:24</time>
      </trkpt>
      <trkpt lat="40.89147" lon="0.7249">
        <ele>119</ele>
        <time>2022-05-25 00:46:25</time>
      </trkpt>
      <trkpt lat="40.89153" lon="0.72497">
        <ele>118.8</ele>
        <time>2022-05-25 00:46:26</time>
      </trkpt>
      <trkpt lat="40.89158" lon="0.72504">
        <ele>118.4</ele>
        <time>2022-05-25 00:46:27</time>
      </trkpt>
      <trkpt lat="40.89163" lon="0.72512">
        <ele>118.2</ele>
        <time>2022-05-25 00:46:28</time>
      </trkpt>
      <trkpt lat="40.89169" lon="0.72519">
        <ele>118</ele>
        <time>2022-05-25 00:46:29</time>
      </trkpt>
      <trkpt lat="40.89174" lon="0.72526">
        <ele>117.8</ele>
        <time>2022-05-25 00:46:30</time>
      </trkpt>
      <trkpt lat="40.89179" lon="0.72533">
        <ele>117.4</ele>
        <time>2022-05-25 00:46:31</time>
      </trkpt>
      <trkpt lat="40.89184" lon="0.7254">
        <ele>117.2</ele>
        <time>2022-05-25 00:46:32</time>
      </trkpt>
      <trkpt lat="40.89189" lon="0.72548">
        <ele>117</ele>
        <time>2022-05-25 00:46:33</time>
      </trkpt>
      <trkpt lat="40.89194" lon="0.72555">
        <ele>116.8</ele>
        <time>2022-05-25 00:46:34</time>
      </trkpt>
      <trkpt lat="40.892" lon="0.72562">
        <ele>116.6</ele>
        <time>2022-05-25 00:46:35</time>
      </trkpt>
      <trkpt lat="40.89206" lon="0.7257">
        <ele>116.4</ele>
        <time>2022-05-25 00:46:36</time>
      </trkpt>
      <trkpt lat="40.89211" lon="0.72577">
        <ele>116.2</ele>
        <time>2022-05-25 00:46:37</time>
      </trkpt>
      <trkpt lat="40.89216" lon="0.72585">
        <ele>116</ele>
        <time>2022-05-25 00:46:38</time>
      </trkpt>
      <trkpt lat="40.89222" lon="0.72593">
        <ele>115.8</ele>
        <time>2022-05-25 00:46:39</time>
      </trkpt>
      <trkpt lat="40.89227" lon="0.726">
        <ele>115.4</ele>
        <time>2022-05-25 00:46:40</time>
      </trkpt>
      <trkpt lat="40.89233" lon="0.72607">
        <ele>115.2</ele>
        <time>2022-05-25 00:46:41</time>
      </trkpt>
      <trkpt lat="40.89239" lon="0.72615">
        <ele>114.8</ele>
        <time>2022-05-25 00:46:42</time>
      </trkpt>
      <trkpt lat="40.89245" lon="0.72622">
        <ele>114.6</ele>
        <time>2022-05-25 00:46:43</time>
      </trkpt>
      <trkpt lat="40.89251" lon="0.72629">
        <ele>114.4</ele>
        <time>2022-05-25 00:46:44</time>
      </trkpt>
      <trkpt lat="40.89256" lon="0.72636">
        <ele>114.4</ele>
        <time>2022-05-25 00:46:45</time>
      </trkpt>
      <trkpt lat="40.89262" lon="0.72643">
        <ele>114.2</ele>
        <time>2022-05-25 00:46:46</time>
      </trkpt>
      <trkpt lat="40.89268" lon="0.7265">
        <ele>114</ele>
        <time>2022-05-25 00:46:47</time>
      </trkpt>
      <trkpt lat="40.89274" lon="0.72657">
        <ele>114</ele>
        <time>2022-05-25 00:46:48</time>
      </trkpt>
      <trkpt lat="40.89279" lon="0.72663">
        <ele>114</ele>
        <time>2022-05-25 00:46:49</time>
      </trkpt>
      <trkpt lat="40.89285" lon="0.7267">
        <ele>114</ele>
        <time>2022-05-25 00:46:50</time>
      </trkpt>
      <trkpt lat="40.89291" lon="0.72677">
        <ele>113.8</ele>
        <time>2022-05-25 00:46:51</time>
      </trkpt>
      <trkpt lat="40.89297" lon="0.72683">
        <ele>113.6</ele>
        <time>2022-05-25 00:46:52</time>
      </trkpt>
      <trkpt lat="40.89303" lon="0.72689">
        <ele>113.6</ele>
        <time>2022-05-25 00:46:53</time>
      </trkpt>
      <trkpt lat="40.89309" lon="0.72696">
        <ele>113.4</ele>
        <time>2022-05-25 00:46:54</time>
      </trkpt>
      <trkpt lat="40.89315" lon="0.72702">
        <ele>113.4</ele>
        <time>2022-05-25 00:46:55</time>
      </trkpt>
      <trkpt lat="40.8932" lon="0.72708">
        <ele>113.4</ele>
        <time>2022-05-25 00:46:56</time>
      </trkpt>
      <trkpt lat="40.89326" lon="0.72714">
        <ele>113.4</ele>
        <time>2022-05-25 00:46:57</time>
      </trkpt>
      <trkpt lat="40.89332" lon="0.72721">
        <ele>113.4</ele>
        <time>2022-05-25 00:46:58</time>
      </trkpt>
      <trkpt lat="40.89337" lon="0.72726">
        <ele>113.4</ele>
        <time>2022-05-25 00:46:59</time>
      </trkpt>
      <trkpt lat="40.89343" lon="0.72732">
        <ele>113.2</ele>
        <time>2022-05-25 00:47:00</time>
      </trkpt>
      <trkpt lat="40.89349" lon="0.72738">
        <ele>113.2</ele>
        <time>2022-05-25 00:47:01</time>
      </trkpt>
      <trkpt lat="40.89354" lon="0.72743">
        <ele>113.4</ele>
        <time>2022-05-25 00:47:02</time>
      </trkpt>
      <trkpt lat="40.8936" lon="0.72749">
        <ele>113.4</ele>
        <time>2022-05-25 00:47:03</time>
      </trkpt>
      <trkpt lat="40.89366" lon="0.72754">
        <ele>113.4</ele>
        <time>2022-05-25 00:47:04</time>
      </trkpt>
      <trkpt lat="40.89371" lon="0.7276">
        <ele>113.2</ele>
        <time>2022-05-25 00:47:05</time>
      </trkpt>
      <trkpt lat="40.89377" lon="0.72765">
        <ele>113.2</ele>
        <time>2022-05-25 00:47:06</time>
      </trkpt>
      <trkpt lat="40.89382" lon="0.7277">
        <ele>113.2</ele>
        <time>2022-05-25 00:47:07</time>
      </trkpt>
      <trkpt lat="40.89388" lon="0.72776">
        <ele>113.2</ele>
        <time>2022-05-25 00:47:08</time>
      </trkpt>
      <trkpt lat="40.89393" lon="0.72781">
        <ele>113.2</ele>
        <time>2022-05-25 00:47:09</time>
      </trkpt>
      <trkpt lat="40.89399" lon="0.72786">
        <ele>113.2</ele>
        <time>2022-05-25 00:47:10</time>
      </trkpt>
      <trkpt lat="40.89405" lon="0.72792">
        <ele>113.2</ele>
        <time>2022-05-25 00:47:11</time>
      </trkpt>
      <trkpt lat="40.8941" lon="0.72797">
        <ele>113.2</ele>
        <time>2022-05-25 00:47:12</time>
      </trkpt>
      <trkpt lat="40.89416" lon="0.72802">
        <ele>113.2</ele>
        <time>2022-05-25 00:47:13</time>
      </trkpt>
      <trkpt lat="40.89421" lon="0.72808">
        <ele>113</ele>
        <time>2022-05-25 00:47:14</time>
      </trkpt>
      <trkpt lat="40.89427" lon="0.72813">
        <ele>113</ele>
        <time>2022-05-25 00:47:15</time>
      </trkpt>
      <trkpt lat="40.89432" lon="0.72818">
        <ele>112.8</ele>
        <time>2022-05-25 00:47:16</time>
      </trkpt>
      <trkpt lat="40.89437" lon="0.72823">
        <ele>112.8</ele>
        <time>2022-05-25 00:47:17</time>
      </trkpt>
      <trkpt lat="40.89443" lon="0.72828">
        <ele>112.8</ele>
        <time>2022-05-25 00:47:18</time>
      </trkpt>
      <trkpt lat="40.89448" lon="0.72833">
        <ele>112.8</ele>
        <time>2022-05-25 00:47:19</time>
      </trkpt>
      <trkpt lat="40.89453" lon="0.72838">
        <ele>113</ele>
        <time>2022-05-25 00:47:20</time>
      </trkpt>
      <trkpt lat="40.89458" lon="0.72843">
        <ele>112.8</ele>
        <time>2022-05-25 00:47:21</time>
      </trkpt>
      <trkpt lat="40.89463" lon="0.72848">
        <ele>112.8</ele>
        <time>2022-05-25 00:47:22</time>
      </trkpt>
      <trkpt lat="40.89468" lon="0.72853">
        <ele>113</ele>
        <time>2022-05-25 00:47:23</time>
      </trkpt>
      <trkpt lat="40.89473" lon="0.72858">
        <ele>113</ele>
        <time>2022-05-25 00:47:24</time>
      </trkpt>
      <trkpt lat="40.89478" lon="0.72862">
        <ele>113</ele>
        <time>2022-05-25 00:47:25</time>
      </trkpt>
      <trkpt lat="40.89483" lon="0.72867">
        <ele>113</ele>
        <time>2022-05-25 00:47:26</time>
      </trkpt>
      <trkpt lat="40.89489" lon="0.72872">
        <ele>113</ele>
        <time>2022-05-25 00:47:27</time>
      </trkpt>
      <trkpt lat="40.89494" lon="0.72876">
        <ele>113</ele>
        <time>2022-05-25 00:47:28</time>
      </trkpt>
      <trkpt lat="40.89499" lon="0.72881">
        <ele>112.8</ele>
        <time>2022-05-25 00:47:29</time>
      </trkpt>
      <trkpt lat="40.89504" lon="0.72886">
        <ele>112.8</ele>
        <time>2022-05-25 00:47:30</time>
      </trkpt>
      <trkpt lat="40.89509" lon="0.72891">
        <ele>112.8</ele>
        <time>2022-05-25 00:47:31</time>
      </trkpt>
      <trkpt lat="40.89513" lon="0.72896">
        <ele>112.8</ele>
        <time>2022-05-25 00:47:32</time>
      </trkpt>
      <trkpt lat="40.89519" lon="0.72901">
        <ele>112.8</ele>
        <time>2022-05-25 00:47:33</time>
      </trkpt>
      <trkpt lat="40.89524" lon="0.72906">
        <ele>112.8</ele>
        <time>2022-05-25 00:47:34</time>
      </trkpt>
      <trkpt lat="40.89529" lon="0.7291">
        <ele>112.8</ele>
        <time>2022-05-25 00:47:35</time>
      </trkpt>
      <trkpt lat="40.89534" lon="0.72915">
        <ele>112.8</ele>
        <time>2022-05-25 00:47:36</time>
      </trkpt>
      <trkpt lat="40.89539" lon="0.7292">
        <ele>112.6</ele>
        <time>2022-05-25 00:47:37</time>
      </trkpt>
      <trkpt lat="40.89544" lon="0.72925">
        <ele>112.6</ele>
        <time>2022-05-25 00:47:38</time>
      </trkpt>
      <trkpt lat="40.89549" lon="0.7293">
        <ele>112.6</ele>
        <time>2022-05-25 00:47:39</time>
      </trkpt>
      <trkpt lat="40.89554" lon="0.72935">
        <ele>112.6</ele>
        <time>2022-05-25 00:47:40</time>
      </trkpt>
      <trkpt lat="40.89559" lon="0.72941">
        <ele>112.6</ele>
        <time>2022-05-25 00:47:41</time>
      </trkpt>
      <trkpt lat="40.89565" lon="0.72946">
        <ele>112.6</ele>
        <time>2022-05-25 00:47:42</time>
      </trkpt>
      <trkpt lat="40.89569" lon="0.72951">
        <ele>112.4</ele>
        <time>2022-05-25 00:47:43</time>
      </trkpt>
      <trkpt lat="40.89574" lon="0.72957">
        <ele>112.4</ele>
        <time>2022-05-25 00:47:44</time>
      </trkpt>
      <trkpt lat="40.89579" lon="0.72962">
        <ele>112.4</ele>
        <time>2022-05-25 00:47:45</time>
      </trkpt>
      <trkpt lat="40.89584" lon="0.72968">
        <ele>112.4</ele>
        <time>2022-05-25 00:47:46</time>
      </trkpt>
      <trkpt lat="40.89589" lon="0.72973">
        <ele>112.4</ele>
        <time>2022-05-25 00:47:47</time>
      </trkpt>
      <trkpt lat="40.89594" lon="0.72979">
        <ele>112.4</ele>
        <time>2022-05-25 00:47:48</time>
      </trkpt>
      <trkpt lat="40.89598" lon="0.72984">
        <ele>112.4</ele>
        <time>2022-05-25 00:47:49</time>
      </trkpt>
      <trkpt lat="40.89603" lon="0.7299">
        <ele>112.4</ele>
        <time>2022-05-25 00:47:50</time>
      </trkpt>
      <trkpt lat="40.89608" lon="0.72996">
        <ele>112.4</ele>
        <time>2022-05-25 00:47:51</time>
      </trkpt>
      <trkpt lat="40.89612" lon="0.73001">
        <ele>112.4</ele>
        <time>2022-05-25 00:47:52</time>
      </trkpt>
      <trkpt lat="40.89617" lon="0.73007">
        <ele>112.2</ele>
        <time>2022-05-25 00:47:53</time>
      </trkpt>
      <trkpt lat="40.89621" lon="0.73013">
        <ele>112.2</ele>
        <time>2022-05-25 00:47:54</time>
      </trkpt>
      <trkpt lat="40.89626" lon="0.73019">
        <ele>112.4</ele>
        <time>2022-05-25 00:47:55</time>
      </trkpt>
      <trkpt lat="40.89631" lon="0.73025">
        <ele>112.4</ele>
        <time>2022-05-25 00:47:56</time>
      </trkpt>
      <trkpt lat="40.89635" lon="0.73031">
        <ele>112.4</ele>
        <time>2022-05-25 00:47:57</time>
      </trkpt>
      <trkpt lat="40.89639" lon="0.73037">
        <ele>112.2</ele>
        <time>2022-05-25 00:47:58</time>
      </trkpt>
      <trkpt lat="40.89643" lon="0.73044">
        <ele>112.2</ele>
        <time>2022-05-25 00:47:59</time>
      </trkpt>
      <trkpt lat="40.89648" lon="0.7305">
        <ele>112.2</ele>
        <time>2022-05-25 00:48:00</time>
      </trkpt>
      <trkpt lat="40.89652" lon="0.73056">
        <ele>112</ele>
        <time>2022-05-25 00:48:01</time>
      </trkpt>
      <trkpt lat="40.89656" lon="0.73063">
        <ele>111.8</ele>
        <time>2022-05-25 00:48:02</time>
      </trkpt>
      <trkpt lat="40.8966" lon="0.7307">
        <ele>111.8</ele>
        <time>2022-05-25 00:48:03</time>
      </trkpt>
      <trkpt lat="40.89664" lon="0.73078">
        <ele>111.8</ele>
        <time>2022-05-25 00:48:04</time>
      </trkpt>
      <trkpt lat="40.89669" lon="0.73085">
        <ele>111.8</ele>
        <time>2022-05-25 00:48:05</time>
      </trkpt>
      <trkpt lat="40.89673" lon="0.73092">
        <ele>111.8</ele>
        <time>2022-05-25 00:48:06</time>
      </trkpt>
      <trkpt lat="40.89677" lon="0.73098">
        <ele>111.6</ele>
        <time>2022-05-25 00:48:07</time>
      </trkpt>
      <trkpt lat="40.8968" lon="0.73105">
        <ele>111.6</ele>
        <time>2022-05-25 00:48:08</time>
      </trkpt>
      <trkpt lat="40.89684" lon="0.73112">
        <ele>111.4</ele>
        <time>2022-05-25 00:48:09</time>
      </trkpt>
      <trkpt lat="40.89687" lon="0.73119">
        <ele>111.2</ele>
        <time>2022-05-25 00:48:10</time>
      </trkpt>
      <trkpt lat="40.89691" lon="0.73126">
        <ele>111.2</ele>
        <time>2022-05-25 00:48:11</time>
      </trkpt>
      <trkpt lat="40.89694" lon="0.73133">
        <ele>111</ele>
        <time>2022-05-25 00:48:12</time>
      </trkpt>
      <trkpt lat="40.89697" lon="0.73139">
        <ele>111</ele>
        <time>2022-05-25 00:48:13</time>
      </trkpt>
      <trkpt lat="40.897" lon="0.73146">
        <ele>110.8</ele>
        <time>2022-05-25 00:48:14</time>
      </trkpt>
      <trkpt lat="40.89704" lon="0.73153">
        <ele>110.6</ele>
        <time>2022-05-25 00:48:15</time>
      </trkpt>
      <trkpt lat="40.89707" lon="0.73161">
        <ele>110.6</ele>
        <time>2022-05-25 00:48:16</time>
      </trkpt>
      <trkpt lat="40.8971" lon="0.73169">
        <ele>110.6</ele>
        <time>2022-05-25 00:48:17</time>
      </trkpt>
      <trkpt lat="40.89713" lon="0.73177">
        <ele>110.6</ele>
        <time>2022-05-25 00:48:18</time>
      </trkpt>
      <trkpt lat="40.89716" lon="0.73184">
        <ele>110.6</ele>
        <time>2022-05-25 00:48:19</time>
      </trkpt>
      <trkpt lat="40.89719" lon="0.73192">
        <ele>110.4</ele>
        <time>2022-05-25 00:48:20</time>
      </trkpt>
      <trkpt lat="40.89722" lon="0.73199">
        <ele>110.4</ele>
        <time>2022-05-25 00:48:21</time>
      </trkpt>
      <trkpt lat="40.89725" lon="0.73207">
        <ele>110.2</ele>
        <time>2022-05-25 00:48:22</time>
      </trkpt>
      <trkpt lat="40.89727" lon="0.73214">
        <ele>110.2</ele>
        <time>2022-05-25 00:48:23</time>
      </trkpt>
      <trkpt lat="40.8973" lon="0.73222">
        <ele>110</ele>
        <time>2022-05-25 00:48:24</time>
      </trkpt>
      <trkpt lat="40.89733" lon="0.7323">
        <ele>109.8</ele>
        <time>2022-05-25 00:48:25</time>
      </trkpt>
      <trkpt lat="40.89735" lon="0.73239">
        <ele>109.6</ele>
        <time>2022-05-25 00:48:26</time>
      </trkpt>
      <trkpt lat="40.89738" lon="0.73247">
        <ele>109.6</ele>
        <time>2022-05-25 00:48:27</time>
      </trkpt>
      <trkpt lat="40.8974" lon="0.73255">
        <ele>109.6</ele>
        <time>2022-05-25 00:48:28</time>
      </trkpt>
      <trkpt lat="40.89743" lon="0.73264">
        <ele>109.4</ele>
        <time>2022-05-25 00:48:29</time>
      </trkpt>
      <trkpt lat="40.89745" lon="0.73273">
        <ele>109.4</ele>
        <time>2022-05-25 00:48:30</time>
      </trkpt>
      <trkpt lat="40.89748" lon="0.73282">
        <ele>109.4</ele>
        <time>2022-05-25 00:48:31</time>
      </trkpt>
      <trkpt lat="40.8975" lon="0.73291">
        <ele>109.2</ele>
        <time>2022-05-25 00:48:32</time>
      </trkpt>
      <trkpt lat="40.89753" lon="0.733">
        <ele>109</ele>
        <time>2022-05-25 00:48:33</time>
      </trkpt>
      <trkpt lat="40.89755" lon="0.73309">
        <ele>108.8</ele>
        <time>2022-05-25 00:48:34</time>
      </trkpt>
      <trkpt lat="40.89757" lon="0.73319">
        <ele>108.8</ele>
        <time>2022-05-25 00:48:35</time>
      </trkpt>
      <trkpt lat="40.89759" lon="0.73328">
        <ele>108.6</ele>
        <time>2022-05-25 00:48:36</time>
      </trkpt>
      <trkpt lat="40.89761" lon="0.73338">
        <ele>108.6</ele>
        <time>2022-05-25 00:48:37</time>
      </trkpt>
      <trkpt lat="40.89762" lon="0.73348">
        <ele>108.6</ele>
        <time>2022-05-25 00:48:38</time>
      </trkpt>
      <trkpt lat="40.89764" lon="0.73358">
        <ele>108.4</ele>
        <time>2022-05-25 00:48:39</time>
      </trkpt>
      <trkpt lat="40.89766" lon="0.73368">
        <ele>108.4</ele>
        <time>2022-05-25 00:48:40</time>
      </trkpt>
      <trkpt lat="40.89767" lon="0.73378">
        <ele>108.2</ele>
        <time>2022-05-25 00:48:41</time>
      </trkpt>
      <trkpt lat="40.89769" lon="0.73388">
        <ele>108</ele>
        <time>2022-05-25 00:48:42</time>
      </trkpt>
      <trkpt lat="40.8977" lon="0.73398">
        <ele>107.8</ele>
        <time>2022-05-25 00:48:43</time>
      </trkpt>
      <trkpt lat="40.89772" lon="0.73409">
        <ele>107.8</ele>
        <time>2022-05-25 00:48:44</time>
      </trkpt>
      <trkpt lat="40.89772" lon="0.73419">
        <ele>107.6</ele>
        <time>2022-05-25 00:48:45</time>
      </trkpt>
      <trkpt lat="40.89774" lon="0.73429">
        <ele>107.6</ele>
        <time>2022-05-25 00:48:46</time>
      </trkpt>
      <trkpt lat="40.89774" lon="0.7344">
        <ele>107.6</ele>
        <time>2022-05-25 00:48:47</time>
      </trkpt>
      <trkpt lat="40.89775" lon="0.7345">
        <ele>107.4</ele>
        <time>2022-05-25 00:48:48</time>
      </trkpt>
      <trkpt lat="40.89776" lon="0.73461">
        <ele>107.4</ele>
        <time>2022-05-25 00:48:49</time>
      </trkpt>
      <trkpt lat="40.89777" lon="0.73471">
        <ele>107.2</ele>
        <time>2022-05-25 00:48:50</time>
      </trkpt>
      <trkpt lat="40.89777" lon="0.73482">
        <ele>107.2</ele>
        <time>2022-05-25 00:48:51</time>
      </trkpt>
      <trkpt lat="40.89777" lon="0.73492">
        <ele>107</ele>
        <time>2022-05-25 00:48:52</time>
      </trkpt>
      <trkpt lat="40.89777" lon="0.73503">
        <ele>106.8</ele>
        <time>2022-05-25 00:48:53</time>
      </trkpt>
      <trkpt lat="40.89777" lon="0.73514">
        <ele>106.8</ele>
        <time>2022-05-25 00:48:54</time>
      </trkpt>
      <trkpt lat="40.89777" lon="0.73525">
        <ele>106.6</ele>
        <time>2022-05-25 00:48:55</time>
      </trkpt>
      <trkpt lat="40.89777" lon="0.73536">
        <ele>106.4</ele>
        <time>2022-05-25 00:48:56</time>
      </trkpt>
      <trkpt lat="40.89777" lon="0.73547">
        <ele>106.2</ele>
        <time>2022-05-25 00:48:57</time>
      </trkpt>
      <trkpt lat="40.89776" lon="0.73558">
        <ele>106.2</ele>
        <time>2022-05-25 00:48:58</time>
      </trkpt>
      <trkpt lat="40.89775" lon="0.73569">
        <ele>106</ele>
        <time>2022-05-25 00:48:59</time>
      </trkpt>
      <trkpt lat="40.89775" lon="0.7358">
        <ele>105.8</ele>
        <time>2022-05-25 00:49:00</time>
      </trkpt>
      <trkpt lat="40.89774" lon="0.73591">
        <ele>105.8</ele>
        <time>2022-05-25 00:49:01</time>
      </trkpt>
      <trkpt lat="40.89773" lon="0.73601">
        <ele>105.6</ele>
        <time>2022-05-25 00:49:02</time>
      </trkpt>
      <trkpt lat="40.89772" lon="0.73612">
        <ele>105.6</ele>
        <time>2022-05-25 00:49:03</time>
      </trkpt>
      <trkpt lat="40.89771" lon="0.73622">
        <ele>105.4</ele>
        <time>2022-05-25 00:49:04</time>
      </trkpt>
      <trkpt lat="40.89769" lon="0.73632">
        <ele>105.4</ele>
        <time>2022-05-25 00:49:05</time>
      </trkpt>
      <trkpt lat="40.89769" lon="0.73641">
        <ele>105.4</ele>
        <time>2022-05-25 00:49:06</time>
      </trkpt>
      <trkpt lat="40.89767" lon="0.73651">
        <ele>105.2</ele>
        <time>2022-05-25 00:49:07</time>
      </trkpt>
      <trkpt lat="40.89766" lon="0.73661">
        <ele>105.2</ele>
        <time>2022-05-25 00:49:08</time>
      </trkpt>
      <trkpt lat="40.89764" lon="0.7367">
        <ele>105.2</ele>
        <time>2022-05-25 00:49:09</time>
      </trkpt>
      <trkpt lat="40.89763" lon="0.7368">
        <ele>105</ele>
        <time>2022-05-25 00:49:10</time>
      </trkpt>
      <trkpt lat="40.89761" lon="0.7369">
        <ele>105</ele>
        <time>2022-05-25 00:49:11</time>
      </trkpt>
      <trkpt lat="40.89759" lon="0.737">
        <ele>104.8</ele>
        <time>2022-05-25 00:49:12</time>
      </trkpt>
      <trkpt lat="40.89758" lon="0.7371">
        <ele>104.8</ele>
        <time>2022-05-25 00:49:13</time>
      </trkpt>
      <trkpt lat="40.89757" lon="0.73719">
        <ele>104.6</ele>
        <time>2022-05-25 00:49:14</time>
      </trkpt>
      <trkpt lat="40.89755" lon="0.73729">
        <ele>104.4</ele>
        <time>2022-05-25 00:49:15</time>
      </trkpt>
      <trkpt lat="40.89754" lon="0.73738">
        <ele>104.4</ele>
        <time>2022-05-25 00:49:16</time>
      </trkpt>
      <trkpt lat="40.89752" lon="0.73748">
        <ele>104.2</ele>
        <time>2022-05-25 00:49:17</time>
      </trkpt>
      <trkpt lat="40.8975" lon="0.73758">
        <ele>104</ele>
        <time>2022-05-25 00:49:18</time>
      </trkpt>
      <trkpt lat="40.89748" lon="0.73769">
        <ele>104</ele>
        <time>2022-05-25 00:49:19</time>
      </trkpt>
      <trkpt lat="40.89745" lon="0.73779">
        <ele>104</ele>
        <time>2022-05-25 00:49:20</time>
      </trkpt>
      <trkpt lat="40.89743" lon="0.7379">
        <ele>103.8</ele>
        <time>2022-05-25 00:49:21</time>
      </trkpt>
      <trkpt lat="40.89742" lon="0.738">
        <ele>103.8</ele>
        <time>2022-05-25 00:49:22</time>
      </trkpt>
      <trkpt lat="40.8974" lon="0.7381">
        <ele>103.6</ele>
        <time>2022-05-25 00:49:23</time>
      </trkpt>
      <trkpt lat="40.89738" lon="0.73821">
        <ele>103.6</ele>
        <time>2022-05-25 00:49:24</time>
      </trkpt>
      <trkpt lat="40.89737" lon="0.73831">
        <ele>103.4</ele>
        <time>2022-05-25 00:49:25</time>
      </trkpt>
      <trkpt lat="40.89735" lon="0.73841">
        <ele>103.4</ele>
        <time>2022-05-25 00:49:26</time>
      </trkpt>
      <trkpt lat="40.89734" lon="0.73852">
        <ele>103.2</ele>
        <time>2022-05-25 00:49:27</time>
      </trkpt>
      <trkpt lat="40.89732" lon="0.73862">
        <ele>103.2</ele>
        <time>2022-05-25 00:49:28</time>
      </trkpt>
      <trkpt lat="40.8973" lon="0.73872">
        <ele>103</ele>
        <time>2022-05-25 00:49:29</time>
      </trkpt>
      <trkpt lat="40.89729" lon="0.73883">
        <ele>102.8</ele>
        <time>2022-05-25 00:49:30</time>
      </trkpt>
      <trkpt lat="40.89727" lon="0.73892">
        <ele>102.8</ele>
        <time>2022-05-25 00:49:31</time>
      </trkpt>
      <trkpt lat="40.89725" lon="0.73902">
        <ele>102.6</ele>
        <time>2022-05-25 00:49:32</time>
      </trkpt>
      <trkpt lat="40.89723" lon="0.73912">
        <ele>102.6</ele>
        <time>2022-05-25 00:49:33</time>
      </trkpt>
      <trkpt lat="40.89721" lon="0.73922">
        <ele>102.4</ele>
        <time>2022-05-25 00:49:34</time>
      </trkpt>
      <trkpt lat="40.8972" lon="0.73931">
        <ele>102.4</ele>
        <time>2022-05-25 00:49:35</time>
      </trkpt>
      <trkpt lat="40.89718" lon="0.73941">
        <ele>102.4</ele>
        <time>2022-05-25 00:49:36</time>
      </trkpt>
      <trkpt lat="40.89717" lon="0.73951">
        <ele>102.2</ele>
        <time>2022-05-25 00:49:37</time>
      </trkpt>
      <trkpt lat="40.89715" lon="0.73961">
        <ele>102.2</ele>
        <time>2022-05-25 00:49:38</time>
      </trkpt>
      <trkpt lat="40.89714" lon="0.73971">
        <ele>102.4</ele>
        <time>2022-05-25 00:49:39</time>
      </trkpt>
      <trkpt lat="40.89712" lon="0.73982">
        <ele>102.2</ele>
        <time>2022-05-25 00:49:40</time>
      </trkpt>
      <trkpt lat="40.8971" lon="0.73992">
        <ele>102.2</ele>
        <time>2022-05-25 00:49:41</time>
      </trkpt>
      <trkpt lat="40.89709" lon="0.74002">
        <ele>102.2</ele>
        <time>2022-05-25 00:49:42</time>
      </trkpt>
      <trkpt lat="40.89706" lon="0.74013">
        <ele>102</ele>
        <time>2022-05-25 00:49:43</time>
      </trkpt>
      <trkpt lat="40.89704" lon="0.74024">
        <ele>102</ele>
        <time>2022-05-25 00:49:44</time>
      </trkpt>
      <trkpt lat="40.89702" lon="0.74033">
        <ele>101.8</ele>
        <time>2022-05-25 00:49:45</time>
      </trkpt>
      <trkpt lat="40.897" lon="0.74044">
        <ele>101.8</ele>
        <time>2022-05-25 00:49:46</time>
      </trkpt>
      <trkpt lat="40.89698" lon="0.74056">
        <ele>101.6</ele>
        <time>2022-05-25 00:49:47</time>
      </trkpt>
      <trkpt lat="40.89697" lon="0.74067">
        <ele>101.6</ele>
        <time>2022-05-25 00:49:48</time>
      </trkpt>
      <trkpt lat="40.89695" lon="0.74077">
        <ele>101.4</ele>
        <time>2022-05-25 00:49:49</time>
      </trkpt>
      <trkpt lat="40.89693" lon="0.74088">
        <ele>101.2</ele>
        <time>2022-05-25 00:49:50</time>
      </trkpt>
      <trkpt lat="40.89692" lon="0.74099">
        <ele>101</ele>
        <time>2022-05-25 00:49:51</time>
      </trkpt>
      <trkpt lat="40.8969" lon="0.7411">
        <ele>101</ele>
        <time>2022-05-25 00:49:52</time>
      </trkpt>
      <trkpt lat="40.89689" lon="0.7412">
        <ele>100.8</ele>
        <time>2022-05-25 00:49:53</time>
      </trkpt>
      <trkpt lat="40.89687" lon="0.74131">
        <ele>100.8</ele>
        <time>2022-05-25 00:49:54</time>
      </trkpt>
      <trkpt lat="40.89686" lon="0.74142">
        <ele>100.6</ele>
        <time>2022-05-25 00:49:55</time>
      </trkpt>
      <trkpt lat="40.89684" lon="0.74152">
        <ele>100.6</ele>
        <time>2022-05-25 00:49:56</time>
      </trkpt>
      <trkpt lat="40.89683" lon="0.74164">
        <ele>100.4</ele>
        <time>2022-05-25 00:49:57</time>
      </trkpt>
      <trkpt lat="40.89682" lon="0.74175">
        <ele>100.2</ele>
        <time>2022-05-25 00:49:58</time>
      </trkpt>
      <trkpt lat="40.8968" lon="0.74186">
        <ele>100</ele>
        <time>2022-05-25 00:49:59</time>
      </trkpt>
      <trkpt lat="40.89679" lon="0.74197">
        <ele>99.8</ele>
        <time>2022-05-25 00:50:00</time>
      </trkpt>
      <trkpt lat="40.89678" lon="0.74208">
        <ele>99.6</ele>
        <time>2022-05-25 00:50:01</time>
      </trkpt>
      <trkpt lat="40.89677" lon="0.74219">
        <ele>99.4</ele>
        <time>2022-05-25 00:50:02</time>
      </trkpt>
      <trkpt lat="40.89676" lon="0.74229">
        <ele>99.4</ele>
        <time>2022-05-25 00:50:03</time>
      </trkpt>
      <trkpt lat="40.89675" lon="0.7424">
        <ele>99.4</ele>
        <time>2022-05-25 00:50:04</time>
      </trkpt>
      <trkpt lat="40.89674" lon="0.74251">
        <ele>99.2</ele>
        <time>2022-05-25 00:50:05</time>
      </trkpt>
      <trkpt lat="40.89673" lon="0.74262">
        <ele>99.2</ele>
        <time>2022-05-25 00:50:06</time>
      </trkpt>
      <trkpt lat="40.89672" lon="0.74273">
        <ele>99</ele>
        <time>2022-05-25 00:50:07</time>
      </trkpt>
      <trkpt lat="40.89671" lon="0.74284">
        <ele>99</ele>
        <time>2022-05-25 00:50:08</time>
      </trkpt>
      <trkpt lat="40.8967" lon="0.74296">
        <ele>98.8</ele>
        <time>2022-05-25 00:50:09</time>
      </trkpt>
      <trkpt lat="40.89669" lon="0.74307">
        <ele>98.8</ele>
        <time>2022-05-25 00:50:10</time>
      </trkpt>
      <trkpt lat="40.89669" lon="0.74318">
        <ele>98.6</ele>
        <time>2022-05-25 00:50:11</time>
      </trkpt>
      <trkpt lat="40.89668" lon="0.7433">
        <ele>98.4</ele>
        <time>2022-05-25 00:50:12</time>
      </trkpt>
      <trkpt lat="40.89667" lon="0.74341">
        <ele>98.2</ele>
        <time>2022-05-25 00:50:13</time>
      </trkpt>
      <trkpt lat="40.89666" lon="0.74352">
        <ele>98</ele>
        <time>2022-05-25 00:50:14</time>
      </trkpt>
      <trkpt lat="40.89666" lon="0.74364">
        <ele>98</ele>
        <time>2022-05-25 00:50:15</time>
      </trkpt>
      <trkpt lat="40.89666" lon="0.74376">
        <ele>97.6</ele>
        <time>2022-05-25 00:50:16</time>
      </trkpt>
      <trkpt lat="40.89665" lon="0.74387">
        <ele>97.4</ele>
        <time>2022-05-25 00:50:17</time>
      </trkpt>
      <trkpt lat="40.89665" lon="0.74399">
        <ele>97.2</ele>
        <time>2022-05-25 00:50:18</time>
      </trkpt>
      <trkpt lat="40.89665" lon="0.7441">
        <ele>97.2</ele>
        <time>2022-05-25 00:50:19</time>
      </trkpt>
      <trkpt lat="40.89664" lon="0.74422">
        <ele>97</ele>
        <time>2022-05-25 00:50:20</time>
      </trkpt>
      <trkpt lat="40.89664" lon="0.74433">
        <ele>96.8</ele>
        <time>2022-05-25 00:50:21</time>
      </trkpt>
      <trkpt lat="40.89664" lon="0.74445">
        <ele>96.6</ele>
        <time>2022-05-25 00:50:22</time>
      </trkpt>
      <trkpt lat="40.89664" lon="0.74456">
        <ele>96.6</ele>
        <time>2022-05-25 00:50:23</time>
      </trkpt>
      <trkpt lat="40.89664" lon="0.74467">
        <ele>96.4</ele>
        <time>2022-05-25 00:50:24</time>
      </trkpt>
      <trkpt lat="40.89664" lon="0.74479">
        <ele>96</ele>
        <time>2022-05-25 00:50:25</time>
      </trkpt>
      <trkpt lat="40.89664" lon="0.74491">
        <ele>95.8</ele>
        <time>2022-05-25 00:50:26</time>
      </trkpt>
      <trkpt lat="40.89665" lon="0.74502">
        <ele>95.6</ele>
        <time>2022-05-25 00:50:27</time>
      </trkpt>
      <trkpt lat="40.89665" lon="0.74513">
        <ele>95.6</ele>
        <time>2022-05-25 00:50:28</time>
      </trkpt>
      <trkpt lat="40.89666" lon="0.74525">
        <ele>95.4</ele>
        <time>2022-05-25 00:50:29</time>
      </trkpt>
      <trkpt lat="40.89666" lon="0.74536">
        <ele>95.2</ele>
        <time>2022-05-25 00:50:30</time>
      </trkpt>
      <trkpt lat="40.89666" lon="0.74547">
        <ele>95</ele>
        <time>2022-05-25 00:50:31</time>
      </trkpt>
      <trkpt lat="40.89667" lon="0.74559">
        <ele>94.8</ele>
        <time>2022-05-25 00:50:32</time>
      </trkpt>
      <trkpt lat="40.89668" lon="0.7457">
        <ele>94.8</ele>
        <time>2022-05-25 00:50:33</time>
      </trkpt>
      <trkpt lat="40.89668" lon="0.74581">
        <ele>94.6</ele>
        <time>2022-05-25 00:50:34</time>
      </trkpt>
      <trkpt lat="40.89669" lon="0.74592">
        <ele>94.4</ele>
        <time>2022-05-25 00:50:35</time>
      </trkpt>
      <trkpt lat="40.89669" lon="0.74603">
        <ele>94.2</ele>
        <time>2022-05-25 00:50:36</time>
      </trkpt>
      <trkpt lat="40.8967" lon="0.74615">
        <ele>94</ele>
        <time>2022-05-25 00:50:37</time>
      </trkpt>
      <trkpt lat="40.8967" lon="0.74626">
        <ele>94</ele>
        <time>2022-05-25 00:50:38</time>
      </trkpt>
      <trkpt lat="40.89671" lon="0.74637">
        <ele>94</ele>
        <time>2022-05-25 00:50:39</time>
      </trkpt>
      <trkpt lat="40.89672" lon="0.74648">
        <ele>93.8</ele>
        <time>2022-05-25 00:50:40</time>
      </trkpt>
      <trkpt lat="40.89673" lon="0.7466">
        <ele>93.8</ele>
        <time>2022-05-25 00:50:41</time>
      </trkpt>
      <trkpt lat="40.89674" lon="0.74671">
        <ele>93.6</ele>
        <time>2022-05-25 00:50:42</time>
      </trkpt>
      <trkpt lat="40.89674" lon="0.74682">
        <ele>93.4</ele>
        <time>2022-05-25 00:50:43</time>
      </trkpt>
      <trkpt lat="40.89675" lon="0.74693">
        <ele>93.2</ele>
        <time>2022-05-25 00:50:44</time>
      </trkpt>
      <trkpt lat="40.89676" lon="0.74704">
        <ele>93</ele>
        <time>2022-05-25 00:50:45</time>
      </trkpt>
      <trkpt lat="40.89677" lon="0.74715">
        <ele>93</ele>
        <time>2022-05-25 00:50:46</time>
      </trkpt>
      <trkpt lat="40.89677" lon="0.74726">
        <ele>92.8</ele>
        <time>2022-05-25 00:50:47</time>
      </trkpt>
      <trkpt lat="40.89677" lon="0.74737">
        <ele>92.6</ele>
        <time>2022-05-25 00:50:48</time>
      </trkpt>
      <trkpt lat="40.89678" lon="0.74748">
        <ele>92.4</ele>
        <time>2022-05-25 00:50:49</time>
      </trkpt>
      <trkpt lat="40.89679" lon="0.7476">
        <ele>92.2</ele>
        <time>2022-05-25 00:50:50</time>
      </trkpt>
      <trkpt lat="40.89679" lon="0.7477">
        <ele>92.2</ele>
        <time>2022-05-25 00:50:51</time>
      </trkpt>
      <trkpt lat="40.89679" lon="0.74781">
        <ele>92</ele>
        <time>2022-05-25 00:50:52</time>
      </trkpt>
      <trkpt lat="40.89679" lon="0.74792">
        <ele>91.6</ele>
        <time>2022-05-25 00:50:53</time>
      </trkpt>
      <trkpt lat="40.89679" lon="0.74802">
        <ele>91.6</ele>
        <time>2022-05-25 00:50:54</time>
      </trkpt>
      <trkpt lat="40.8968" lon="0.74813">
        <ele>91.4</ele>
        <time>2022-05-25 00:50:55</time>
      </trkpt>
      <trkpt lat="40.8968" lon="0.74823">
        <ele>91.4</ele>
        <time>2022-05-25 00:50:56</time>
      </trkpt>
      <trkpt lat="40.8968" lon="0.74834">
        <ele>91.2</ele>
        <time>2022-05-25 00:50:57</time>
      </trkpt>
      <trkpt lat="40.8968" lon="0.74845">
        <ele>91</ele>
        <time>2022-05-25 00:50:58</time>
      </trkpt>
      <trkpt lat="40.8968" lon="0.74855">
        <ele>91</ele>
        <time>2022-05-25 00:50:59</time>
      </trkpt>
      <trkpt lat="40.8968" lon="0.74865">
        <ele>90.8</ele>
        <time>2022-05-25 00:51:00</time>
      </trkpt>
      <trkpt lat="40.8968" lon="0.74875">
        <ele>90.8</ele>
        <time>2022-05-25 00:51:01</time>
      </trkpt>
      <trkpt lat="40.89679" lon="0.74886">
        <ele>90.6</ele>
        <time>2022-05-25 00:51:02</time>
      </trkpt>
      <trkpt lat="40.89679" lon="0.74896">
        <ele>90.6</ele>
        <time>2022-05-25 00:51:03</time>
      </trkpt>
      <trkpt lat="40.89679" lon="0.74906">
        <ele>90.4</ele>
        <time>2022-05-25 00:51:04</time>
      </trkpt>
      <trkpt lat="40.89679" lon="0.74916">
        <ele>90.4</ele>
        <time>2022-05-25 00:51:05</time>
      </trkpt>
      <trkpt lat="40.89678" lon="0.74926">
        <ele>90.2</ele>
        <time>2022-05-25 00:51:06</time>
      </trkpt>
      <trkpt lat="40.89678" lon="0.74936">
        <ele>90.2</ele>
        <time>2022-05-25 00:51:07</time>
      </trkpt>
      <trkpt lat="40.89678" lon="0.74946">
        <ele>90.2</ele>
        <time>2022-05-25 00:51:08</time>
      </trkpt>
      <trkpt lat="40.89677" lon="0.74956">
        <ele>90.2</ele>
        <time>2022-05-25 00:51:09</time>
      </trkpt>
      <trkpt lat="40.89677" lon="0.74966">
        <ele>90</ele>
        <time>2022-05-25 00:51:10</time>
      </trkpt>
      <trkpt lat="40.89676" lon="0.74975">
        <ele>90</ele>
        <time>2022-05-25 00:51:11</time>
      </trkpt>
      <trkpt lat="40.89675" lon="0.74985">
        <ele>89.8</ele>
        <time>2022-05-25 00:51:12</time>
      </trkpt>
      <trkpt lat="40.89674" lon="0.74995">
        <ele>89.8</ele>
        <time>2022-05-25 00:51:13</time>
      </trkpt>
      <trkpt lat="40.89672" lon="0.75004">
        <ele>89.8</ele>
        <time>2022-05-25 00:51:14</time>
      </trkpt>
      <trkpt lat="40.89671" lon="0.75013">
        <ele>89.6</ele>
        <time>2022-05-25 00:51:15</time>
      </trkpt>
      <trkpt lat="40.89668" lon="0.75022">
        <ele>89.6</ele>
        <time>2022-05-25 00:51:16</time>
      </trkpt>
      <trkpt lat="40.89665" lon="0.75029">
        <ele>89.4</ele>
        <time>2022-05-25 00:51:17</time>
      </trkpt>
      <trkpt lat="40.89661" lon="0.75036">
        <ele>89.2</ele>
        <time>2022-05-25 00:51:18</time>
      </trkpt>
      <trkpt lat="40.89657" lon="0.75044">
        <ele>89</ele>
        <time>2022-05-25 00:51:19</time>
      </trkpt>
      <trkpt lat="40.89653" lon="0.75051">
        <ele>89</ele>
        <time>2022-05-25 00:51:20</time>
      </trkpt>
      <trkpt lat="40.89651" lon="0.7506">
        <ele>88.8</ele>
        <time>2022-05-25 00:51:21</time>
      </trkpt>
      <trkpt lat="40.8965" lon="0.75069">
        <ele>88.6</ele>
        <time>2022-05-25 00:51:22</time>
      </trkpt>
      <trkpt lat="40.89651" lon="0.75077">
        <ele>88.8</ele>
        <time>2022-05-25 00:51:23</time>
      </trkpt>
      <trkpt lat="40.89654" lon="0.75086">
        <ele>88.8</ele>
        <time>2022-05-25 00:51:24</time>
      </trkpt>
      <trkpt lat="40.89656" lon="0.75094">
        <ele>89</ele>
        <time>2022-05-25 00:51:25</time>
      </trkpt>
      <trkpt lat="40.89659" lon="0.75102">
        <ele>89</ele>
        <time>2022-05-25 00:51:26</time>
      </trkpt>
      <trkpt lat="40.89661" lon="0.7511">
        <ele>88.8</ele>
        <time>2022-05-25 00:51:27</time>
      </trkpt>
      <trkpt lat="40.89661" lon="0.75119">
        <ele>88.8</ele>
        <time>2022-05-25 00:51:28</time>
      </trkpt>
      <trkpt lat="40.89661" lon="0.75129">
        <ele>88.8</ele>
        <time>2022-05-25 00:51:29</time>
      </trkpt>
      <trkpt lat="40.89661" lon="0.75138">
        <ele>88.8</ele>
        <time>2022-05-25 00:51:30</time>
      </trkpt>
      <trkpt lat="40.8966" lon="0.75147">
        <ele>88.8</ele>
        <time>2022-05-25 00:51:31</time>
      </trkpt>
      <trkpt lat="40.89659" lon="0.75156">
        <ele>88.6</ele>
        <time>2022-05-25 00:51:32</time>
      </trkpt>
      <trkpt lat="40.89658" lon="0.75165">
        <ele>88.4</ele>
        <time>2022-05-25 00:51:33</time>
      </trkpt>
      <trkpt lat="40.89657" lon="0.75174">
        <ele>88.4</ele>
        <time>2022-05-25 00:51:34</time>
      </trkpt>
      <trkpt lat="40.89655" lon="0.75184">
        <ele>88.2</ele>
        <time>2022-05-25 00:51:35</time>
      </trkpt>
      <trkpt lat="40.89654" lon="0.75193">
        <ele>88.2</ele>
        <time>2022-05-25 00:51:36</time>
      </trkpt>
      <trkpt lat="40.89653" lon="0.75203">
        <ele>88.2</ele>
        <time>2022-05-25 00:51:37</time>
      </trkpt>
      <trkpt lat="40.89651" lon="0.75212">
        <ele>88</ele>
        <time>2022-05-25 00:51:38</time>
      </trkpt>
      <trkpt lat="40.8965" lon="0.75222">
        <ele>88</ele>
        <time>2022-05-25 00:51:39</time>
      </trkpt>
      <trkpt lat="40.89648" lon="0.75231">
        <ele>87.8</ele>
        <time>2022-05-25 00:51:40</time>
      </trkpt>
      <trkpt lat="40.89647" lon="0.7524">
        <ele>87.8</ele>
        <time>2022-05-25 00:51:41</time>
      </trkpt>
      <trkpt lat="40.89645" lon="0.7525">
        <ele>87.8</ele>
        <time>2022-05-25 00:51:42</time>
      </trkpt>
      <trkpt lat="40.89643" lon="0.75259">
        <ele>87.6</ele>
        <time>2022-05-25 00:51:43</time>
      </trkpt>
      <trkpt lat="40.89641" lon="0.75268">
        <ele>87.4</ele>
        <time>2022-05-25 00:51:44</time>
      </trkpt>
      <trkpt lat="40.89639" lon="0.75277">
        <ele>87.2</ele>
        <time>2022-05-25 00:51:45</time>
      </trkpt>
      <trkpt lat="40.89637" lon="0.75287">
        <ele>87</ele>
        <time>2022-05-25 00:51:46</time>
      </trkpt>
      <trkpt lat="40.89635" lon="0.75296">
        <ele>86.8</ele>
        <time>2022-05-25 00:51:47</time>
      </trkpt>
      <trkpt lat="40.89633" lon="0.75306">
        <ele>86.6</ele>
        <time>2022-05-25 00:51:48</time>
      </trkpt>
      <trkpt lat="40.89631" lon="0.75316">
        <ele>86.4</ele>
        <time>2022-05-25 00:51:49</time>
      </trkpt>
      <trkpt lat="40.89629" lon="0.75326">
        <ele>86.4</ele>
        <time>2022-05-25 00:51:50</time>
      </trkpt>
      <trkpt lat="40.89627" lon="0.75336">
        <ele>86</ele>
        <time>2022-05-25 00:51:51</time>
      </trkpt>
      <trkpt lat="40.89624" lon="0.75346">
        <ele>85.8</ele>
        <time>2022-05-25 00:51:52</time>
      </trkpt>
      <trkpt lat="40.89622" lon="0.75356">
        <ele>85.6</ele>
        <time>2022-05-25 00:51:53</time>
      </trkpt>
      <trkpt lat="40.8962" lon="0.75366">
        <ele>85.4</ele>
        <time>2022-05-25 00:51:54</time>
      </trkpt>
      <trkpt lat="40.89618" lon="0.75376">
        <ele>85.2</ele>
        <time>2022-05-25 00:51:55</time>
      </trkpt>
      <trkpt lat="40.89616" lon="0.75386">
        <ele>85</ele>
        <time>2022-05-25 00:51:56</time>
      </trkpt>
      <trkpt lat="40.89613" lon="0.75396">
        <ele>85</ele>
        <time>2022-05-25 00:51:57</time>
      </trkpt>
      <trkpt lat="40.8961" lon="0.75406">
        <ele>84.8</ele>
        <time>2022-05-25 00:51:58</time>
      </trkpt>
      <trkpt lat="40.89607" lon="0.75416">
        <ele>84.6</ele>
        <time>2022-05-25 00:51:59</time>
      </trkpt>
      <trkpt lat="40.89604" lon="0.75427">
        <ele>84.4</ele>
        <time>2022-05-25 00:52:00</time>
      </trkpt>
      <trkpt lat="40.89601" lon="0.75437">
        <ele>84.2</ele>
        <time>2022-05-25 00:52:01</time>
      </trkpt>
      <trkpt lat="40.89599" lon="0.75448">
        <ele>84</ele>
        <time>2022-05-25 00:52:02</time>
      </trkpt>
      <trkpt lat="40.89596" lon="0.75458">
        <ele>83.8</ele>
        <time>2022-05-25 00:52:03</time>
      </trkpt>
      <trkpt lat="40.89594" lon="0.75469">
        <ele>83.8</ele>
        <time>2022-05-25 00:52:04</time>
      </trkpt>
      <trkpt lat="40.89591" lon="0.7548">
        <ele>83.6</ele>
        <time>2022-05-25 00:52:05</time>
      </trkpt>
      <trkpt lat="40.89588" lon="0.75491">
        <ele>83.4</ele>
        <time>2022-05-25 00:52:06</time>
      </trkpt>
      <trkpt lat="40.89586" lon="0.75502">
        <ele>83</ele>
        <time>2022-05-25 00:52:07</time>
      </trkpt>
      <trkpt lat="40.89583" lon="0.75514">
        <ele>82.8</ele>
        <time>2022-05-25 00:52:08</time>
      </trkpt>
      <trkpt lat="40.89581" lon="0.75525">
        <ele>82.6</ele>
        <time>2022-05-25 00:52:09</time>
      </trkpt>
      <trkpt lat="40.89578" lon="0.75536">
        <ele>82.4</ele>
        <time>2022-05-25 00:52:10</time>
      </trkpt>
      <trkpt lat="40.89575" lon="0.75547">
        <ele>82</ele>
        <time>2022-05-25 00:52:11</time>
      </trkpt>
      <trkpt lat="40.89572" lon="0.75559">
        <ele>81.8</ele>
        <time>2022-05-25 00:52:12</time>
      </trkpt>
      <trkpt lat="40.89569" lon="0.75571">
        <ele>81.6</ele>
        <time>2022-05-25 00:52:13</time>
      </trkpt>
      <trkpt lat="40.89567" lon="0.75584">
        <ele>81.4</ele>
        <time>2022-05-25 00:52:14</time>
      </trkpt>
      <trkpt lat="40.89565" lon="0.75595">
        <ele>81</ele>
        <time>2022-05-25 00:52:15</time>
      </trkpt>
      <trkpt lat="40.89562" lon="0.75607">
        <ele>80.6</ele>
        <time>2022-05-25 00:52:16</time>
      </trkpt>
      <trkpt lat="40.8956" lon="0.75619">
        <ele>80.4</ele>
        <time>2022-05-25 00:52:17</time>
      </trkpt>
      <trkpt lat="40.89557" lon="0.7563">
        <ele>80</ele>
        <time>2022-05-25 00:52:18</time>
      </trkpt>
      <trkpt lat="40.89554" lon="0.75642">
        <ele>79.8</ele>
        <time>2022-05-25 00:52:19</time>
      </trkpt>
      <trkpt lat="40.89552" lon="0.75654">
        <ele>79.4</ele>
        <time>2022-05-25 00:52:20</time>
      </trkpt>
      <trkpt lat="40.89549" lon="0.75665">
        <ele>79</ele>
        <time>2022-05-25 00:52:21</time>
      </trkpt>
      <trkpt lat="40.89546" lon="0.75677">
        <ele>78.8</ele>
        <time>2022-05-25 00:52:22</time>
      </trkpt>
      <trkpt lat="40.89544" lon="0.75689">
        <ele>78.4</ele>
        <time>2022-05-25 00:52:23</time>
      </trkpt>
      <trkpt lat="40.89542" lon="0.757">
        <ele>78.2</ele>
        <time>2022-05-25 00:52:24</time>
      </trkpt>
      <trkpt lat="40.89539" lon="0.75712">
        <ele>77.8</ele>
        <time>2022-05-25 00:52:25</time>
      </trkpt>
      <trkpt lat="40.89537" lon="0.75725">
        <ele>77.6</ele>
        <time>2022-05-25 00:52:26</time>
      </trkpt>
      <trkpt lat="40.89535" lon="0.75737">
        <ele>77.4</ele>
        <time>2022-05-25 00:52:27</time>
      </trkpt>
      <trkpt lat="40.89533" lon="0.75749">
        <ele>77</ele>
        <time>2022-05-25 00:52:28</time>
      </trkpt>
      <trkpt lat="40.89531" lon="0.75762">
        <ele>76.8</ele>
        <time>2022-05-25 00:52:29</time>
      </trkpt>
      <trkpt lat="40.8953" lon="0.75775">
        <ele>76.4</ele>
        <time>2022-05-25 00:52:30</time>
      </trkpt>
      <trkpt lat="40.89529" lon="0.75787">
        <ele>76.2</ele>
        <time>2022-05-25 00:52:31</time>
      </trkpt>
      <trkpt lat="40.89526" lon="0.758">
        <ele>75.8</ele>
        <time>2022-05-25 00:52:32</time>
      </trkpt>
      <trkpt lat="40.89524" lon="0.75813">
        <ele>75.4</ele>
        <time>2022-05-25 00:52:33</time>
      </trkpt>
      <trkpt lat="40.89522" lon="0.75826">
        <ele>74.8</ele>
        <time>2022-05-25 00:52:34</time>
      </trkpt>
      <trkpt lat="40.8952" lon="0.75839">
        <ele>74.6</ele>
        <time>2022-05-25 00:52:35</time>
      </trkpt>
      <trkpt lat="40.89518" lon="0.75852">
        <ele>74.6</ele>
        <time>2022-05-25 00:52:36</time>
      </trkpt>
      <trkpt lat="40.89516" lon="0.75864">
        <ele>74.4</ele>
        <time>2022-05-25 00:52:37</time>
      </trkpt>
      <trkpt lat="40.89515" lon="0.75876">
        <ele>74</ele>
        <time>2022-05-25 00:52:38</time>
      </trkpt>
      <trkpt lat="40.89513" lon="0.75889">
        <ele>73.8</ele>
        <time>2022-05-25 00:52:39</time>
      </trkpt>
      <trkpt lat="40.89511" lon="0.75903">
        <ele>73.4</ele>
        <time>2022-05-25 00:52:40</time>
      </trkpt>
      <trkpt lat="40.8951" lon="0.75915">
        <ele>73.2</ele>
        <time>2022-05-25 00:52:41</time>
      </trkpt>
      <trkpt lat="40.89508" lon="0.75928">
        <ele>73</ele>
        <time>2022-05-25 00:52:42</time>
      </trkpt>
      <trkpt lat="40.89506" lon="0.75941">
        <ele>72.8</ele>
        <time>2022-05-25 00:52:43</time>
      </trkpt>
      <trkpt lat="40.89505" lon="0.75954">
        <ele>72.4</ele>
        <time>2022-05-25 00:52:44</time>
      </trkpt>
      <trkpt lat="40.89503" lon="0.75967">
        <ele>72.2</ele>
        <time>2022-05-25 00:52:45</time>
      </trkpt>
      <trkpt lat="40.89502" lon="0.75979">
        <ele>71.8</ele>
        <time>2022-05-25 00:52:46</time>
      </trkpt>
      <trkpt lat="40.89501" lon="0.75992">
        <ele>71.6</ele>
        <time>2022-05-25 00:52:47</time>
      </trkpt>
      <trkpt lat="40.89499" lon="0.76005">
        <ele>71.2</ele>
        <time>2022-05-25 00:52:48</time>
      </trkpt>
      <trkpt lat="40.89498" lon="0.76019">
        <ele>71</ele>
        <time>2022-05-25 00:52:49</time>
      </trkpt>
      <trkpt lat="40.89497" lon="0.76032">
        <ele>70.6</ele>
        <time>2022-05-25 00:52:50</time>
      </trkpt>
      <trkpt lat="40.89496" lon="0.76046">
        <ele>70.4</ele>
        <time>2022-05-25 00:52:51</time>
      </trkpt>
      <trkpt lat="40.89495" lon="0.76059">
        <ele>70</ele>
        <time>2022-05-25 00:52:52</time>
      </trkpt>
      <trkpt lat="40.89494" lon="0.76071">
        <ele>69.8</ele>
        <time>2022-05-25 00:52:53</time>
      </trkpt>
      <trkpt lat="40.89493" lon="0.76083">
        <ele>69.6</ele>
        <time>2022-05-25 00:52:54</time>
      </trkpt>
      <trkpt lat="40.89492" lon="0.76095">
        <ele>69.4</ele>
        <time>2022-05-25 00:52:55</time>
      </trkpt>
      <trkpt lat="40.89492" lon="0.76107">
        <ele>69.4</ele>
        <time>2022-05-25 00:52:56</time>
      </trkpt>
      <trkpt lat="40.89491" lon="0.76119">
        <ele>69.2</ele>
        <time>2022-05-25 00:52:57</time>
      </trkpt>
      <trkpt lat="40.8949" lon="0.76131">
        <ele>69</ele>
        <time>2022-05-25 00:52:58</time>
      </trkpt>
      <trkpt lat="40.89489" lon="0.76142">
        <ele>68.8</ele>
        <time>2022-05-25 00:52:59</time>
      </trkpt>
      <trkpt lat="40.89489" lon="0.76153">
        <ele>68.8</ele>
        <time>2022-05-25 00:53:00</time>
      </trkpt>
      <trkpt lat="40.89488" lon="0.76164">
        <ele>68.6</ele>
        <time>2022-05-25 00:53:01</time>
      </trkpt>
      <trkpt lat="40.89487" lon="0.76175">
        <ele>68.4</ele>
        <time>2022-05-25 00:53:02</time>
      </trkpt>
      <trkpt lat="40.89487" lon="0.76186">
        <ele>68.2</ele>
        <time>2022-05-25 00:53:03</time>
      </trkpt>
      <trkpt lat="40.89487" lon="0.76196">
        <ele>68.2</ele>
        <time>2022-05-25 00:53:04</time>
      </trkpt>
      <trkpt lat="40.89486" lon="0.76206">
        <ele>68</ele>
        <time>2022-05-25 00:53:05</time>
      </trkpt>
      <trkpt lat="40.89485" lon="0.76217">
        <ele>67.8</ele>
        <time>2022-05-25 00:53:06</time>
      </trkpt>
      <trkpt lat="40.89485" lon="0.76227">
        <ele>67.8</ele>
        <time>2022-05-25 00:53:07</time>
      </trkpt>
      <trkpt lat="40.89484" lon="0.76237">
        <ele>67.8</ele>
        <time>2022-05-25 00:53:08</time>
      </trkpt>
      <trkpt lat="40.89484" lon="0.76247">
        <ele>67.6</ele>
        <time>2022-05-25 00:53:09</time>
      </trkpt>
      <trkpt lat="40.89484" lon="0.76258">
        <ele>67.6</ele>
        <time>2022-05-25 00:53:10</time>
      </trkpt>
      <trkpt lat="40.89483" lon="0.76268">
        <ele>67.6</ele>
        <time>2022-05-25 00:53:11</time>
      </trkpt>
      <trkpt lat="40.89483" lon="0.76277">
        <ele>67.6</ele>
        <time>2022-05-25 00:53:12</time>
      </trkpt>
      <trkpt lat="40.89483" lon="0.76287">
        <ele>67.8</ele>
        <time>2022-05-25 00:53:13</time>
      </trkpt>
      <trkpt lat="40.89482" lon="0.76297">
        <ele>68</ele>
        <time>2022-05-25 00:53:14</time>
      </trkpt>
      <trkpt lat="40.89482" lon="0.76306">
        <ele>68</ele>
        <time>2022-05-25 00:53:15</time>
      </trkpt>
      <trkpt lat="40.89481" lon="0.76315">
        <ele>68</ele>
        <time>2022-05-25 00:53:16</time>
      </trkpt>
      <trkpt lat="40.89481" lon="0.76324">
        <ele>68.2</ele>
        <time>2022-05-25 00:53:17</time>
      </trkpt>
      <trkpt lat="40.89482" lon="0.76333">
        <ele>68.4</ele>
        <time>2022-05-25 00:53:18</time>
      </trkpt>
      <trkpt lat="40.89481" lon="0.76343">
        <ele>68.4</ele>
        <time>2022-05-25 00:53:19</time>
      </trkpt>
      <trkpt lat="40.89481" lon="0.76351">
        <ele>68.4</ele>
        <time>2022-05-25 00:53:20</time>
      </trkpt>
      <trkpt lat="40.89481" lon="0.76361">
        <ele>68.6</ele>
        <time>2022-05-25 00:53:21</time>
      </trkpt>
      <trkpt lat="40.89481" lon="0.76371">
        <ele>68.6</ele>
        <time>2022-05-25 00:53:22</time>
      </trkpt>
      <trkpt lat="40.89481" lon="0.7638">
        <ele>68.6</ele>
        <time>2022-05-25 00:53:23</time>
      </trkpt>
      <trkpt lat="40.89481" lon="0.76389">
        <ele>68.6</ele>
        <time>2022-05-25 00:53:24</time>
      </trkpt>
      <trkpt lat="40.8948" lon="0.76398">
        <ele>68.6</ele>
        <time>2022-05-25 00:53:25</time>
      </trkpt>
      <trkpt lat="40.8948" lon="0.76407">
        <ele>68.8</ele>
        <time>2022-05-25 00:53:26</time>
      </trkpt>
      <trkpt lat="40.8948" lon="0.76416">
        <ele>68.8</ele>
        <time>2022-05-25 00:53:27</time>
      </trkpt>
      <trkpt lat="40.8948" lon="0.76424">
        <ele>68.8</ele>
        <time>2022-05-25 00:53:28</time>
      </trkpt>
      <trkpt lat="40.89481" lon="0.76433">
        <ele>69</ele>
        <time>2022-05-25 00:53:29</time>
      </trkpt>
      <trkpt lat="40.89481" lon="0.76441">
        <ele>69</ele>
        <time>2022-05-25 00:53:30</time>
      </trkpt>
      <trkpt lat="40.89481" lon="0.7645">
        <ele>69</ele>
        <time>2022-05-25 00:53:31</time>
      </trkpt>
      <trkpt lat="40.89481" lon="0.76458">
        <ele>69</ele>
        <time>2022-05-25 00:53:32</time>
      </trkpt>
      <trkpt lat="40.89481" lon="0.76466">
        <ele>69.2</ele>
        <time>2022-05-25 00:53:33</time>
      </trkpt>
      <trkpt lat="40.89481" lon="0.76474">
        <ele>69.2</ele>
        <time>2022-05-25 00:53:34</time>
      </trkpt>
      <trkpt lat="40.89481" lon="0.76482">
        <ele>69.4</ele>
        <time>2022-05-25 00:53:35</time>
      </trkpt>
      <trkpt lat="40.89481" lon="0.7649">
        <ele>69.4</ele>
        <time>2022-05-25 00:53:36</time>
      </trkpt>
      <trkpt lat="40.89481" lon="0.76499">
        <ele>69.4</ele>
        <time>2022-05-25 00:53:37</time>
      </trkpt>
      <trkpt lat="40.89481" lon="0.76507">
        <ele>69.4</ele>
        <time>2022-05-25 00:53:38</time>
      </trkpt>
      <trkpt lat="40.89481" lon="0.76515">
        <ele>69.6</ele>
        <time>2022-05-25 00:53:39</time>
      </trkpt>
      <trkpt lat="40.89481" lon="0.76523">
        <ele>69.6</ele>
        <time>2022-05-25 00:53:40</time>
      </trkpt>
      <trkpt lat="40.89482" lon="0.76531">
        <ele>69.8</ele>
        <time>2022-05-25 00:53:41</time>
      </trkpt>
      <trkpt lat="40.89482" lon="0.76539">
        <ele>69.8</ele>
        <time>2022-05-25 00:53:42</time>
      </trkpt>
      <trkpt lat="40.89482" lon="0.76547">
        <ele>70</ele>
        <time>2022-05-25 00:53:43</time>
      </trkpt>
      <trkpt lat="40.89482" lon="0.76555">
        <ele>70</ele>
        <time>2022-05-25 00:53:44</time>
      </trkpt>
      <trkpt lat="40.89482" lon="0.76562">
        <ele>70.2</ele>
        <time>2022-05-25 00:53:45</time>
      </trkpt>
      <trkpt lat="40.89482" lon="0.7657">
        <ele>70.4</ele>
        <time>2022-05-25 00:53:46</time>
      </trkpt>
      <trkpt lat="40.89482" lon="0.76578">
        <ele>70.4</ele>
        <time>2022-05-25 00:53:47</time>
      </trkpt>
      <trkpt lat="40.89482" lon="0.76585">
        <ele>70.6</ele>
        <time>2022-05-25 00:53:48</time>
      </trkpt>
      <trkpt lat="40.89483" lon="0.76592">
        <ele>70.8</ele>
        <time>2022-05-25 00:53:49</time>
      </trkpt>
      <trkpt lat="40.89483" lon="0.76599">
        <ele>70.8</ele>
        <time>2022-05-25 00:53:50</time>
      </trkpt>
      <trkpt lat="40.89482" lon="0.76607">
        <ele>71</ele>
        <time>2022-05-25 00:53:51</time>
      </trkpt>
      <trkpt lat="40.89482" lon="0.76614">
        <ele>71.2</ele>
        <time>2022-05-25 00:53:52</time>
      </trkpt>
      <trkpt lat="40.89482" lon="0.76621">
        <ele>71.4</ele>
        <time>2022-05-25 00:53:53</time>
      </trkpt>
      <trkpt lat="40.89482" lon="0.76628">
        <ele>71.4</ele>
        <time>2022-05-25 00:53:54</time>
      </trkpt>
      <trkpt lat="40.89482" lon="0.76635">
        <ele>71.6</ele>
        <time>2022-05-25 00:53:55</time>
      </trkpt>
      <trkpt lat="40.89482" lon="0.76642">
        <ele>71.6</ele>
        <time>2022-05-25 00:53:56</time>
      </trkpt>
      <trkpt lat="40.89482" lon="0.76648">
        <ele>71.8</ele>
        <time>2022-05-25 00:53:57</time>
      </trkpt>
      <trkpt lat="40.89482" lon="0.76655">
        <ele>72</ele>
        <time>2022-05-25 00:53:58</time>
      </trkpt>
      <trkpt lat="40.89482" lon="0.76662">
        <ele>72.2</ele>
        <time>2022-05-25 00:53:59</time>
      </trkpt>
      <trkpt lat="40.89482" lon="0.76669">
        <ele>72.2</ele>
        <time>2022-05-25 00:54:00</time>
      </trkpt>
      <trkpt lat="40.89482" lon="0.76676">
        <ele>72.4</ele>
        <time>2022-05-25 00:54:01</time>
      </trkpt>
      <trkpt lat="40.89482" lon="0.76683">
        <ele>72.4</ele>
        <time>2022-05-25 00:54:02</time>
      </trkpt>
      <trkpt lat="40.89482" lon="0.7669">
        <ele>72.4</ele>
        <time>2022-05-25 00:54:03</time>
      </trkpt>
      <trkpt lat="40.89482" lon="0.76697">
        <ele>72.4</ele>
        <time>2022-05-25 00:54:04</time>
      </trkpt>
      <trkpt lat="40.89481" lon="0.76704">
        <ele>72.4</ele>
        <time>2022-05-25 00:54:05</time>
      </trkpt>
      <trkpt lat="40.89481" lon="0.7671">
        <ele>72.4</ele>
        <time>2022-05-25 00:54:06</time>
      </trkpt>
      <trkpt lat="40.89481" lon="0.76717">
        <ele>72.4</ele>
        <time>2022-05-25 00:54:07</time>
      </trkpt>
      <trkpt lat="40.89481" lon="0.76724">
        <ele>72.6</ele>
        <time>2022-05-25 00:54:08</time>
      </trkpt>
      <trkpt lat="40.89481" lon="0.76731">
        <ele>72.6</ele>
        <time>2022-05-25 00:54:09</time>
      </trkpt>
      <trkpt lat="40.89481" lon="0.76737">
        <ele>72.8</ele>
        <time>2022-05-25 00:54:10</time>
      </trkpt>
      <trkpt lat="40.89481" lon="0.76744">
        <ele>72.8</ele>
        <time>2022-05-25 00:54:11</time>
      </trkpt>
      <trkpt lat="40.89481" lon="0.7675">
        <ele>72.8</ele>
        <time>2022-05-25 00:54:12</time>
      </trkpt>
      <trkpt lat="40.89481" lon="0.76757">
        <ele>73</ele>
        <time>2022-05-25 00:54:13</time>
      </trkpt>
      <trkpt lat="40.89481" lon="0.76763">
        <ele>73</ele>
        <time>2022-05-25 00:54:14</time>
      </trkpt>
      <trkpt lat="40.8948" lon="0.7677">
        <ele>73</ele>
        <time>2022-05-25 00:54:15</time>
      </trkpt>
      <trkpt lat="40.8948" lon="0.76776">
        <ele>73</ele>
        <time>2022-05-25 00:54:16</time>
      </trkpt>
      <trkpt lat="40.8948" lon="0.76782">
        <ele>73.2</ele>
        <time>2022-05-25 00:54:17</time>
      </trkpt>
      <trkpt lat="40.8948" lon="0.76789">
        <ele>73.2</ele>
        <time>2022-05-25 00:54:18</time>
      </trkpt>
      <trkpt lat="40.89479" lon="0.76795">
        <ele>73.4</ele>
        <time>2022-05-25 00:54:19</time>
      </trkpt>
      <trkpt lat="40.89479" lon="0.76802">
        <ele>73.4</ele>
        <time>2022-05-25 00:54:20</time>
      </trkpt>
      <trkpt lat="40.89479" lon="0.76808">
        <ele>73.4</ele>
        <time>2022-05-25 00:54:21</time>
      </trkpt>
      <trkpt lat="40.89478" lon="0.76814">
        <ele>73.6</ele>
        <time>2022-05-25 00:54:22</time>
      </trkpt>
      <trkpt lat="40.89478" lon="0.76821">
        <ele>73.6</ele>
        <time>2022-05-25 00:54:23</time>
      </trkpt>
      <trkpt lat="40.89478" lon="0.76827">
        <ele>73.8</ele>
        <time>2022-05-25 00:54:24</time>
      </trkpt>
      <trkpt lat="40.89478" lon="0.76834">
        <ele>74</ele>
        <time>2022-05-25 00:54:25</time>
      </trkpt>
      <trkpt lat="40.89477" lon="0.76841">
        <ele>74</ele>
        <time>2022-05-25 00:54:26</time>
      </trkpt>
      <trkpt lat="40.89477" lon="0.76847">
        <ele>74.2</ele>
        <time>2022-05-25 00:54:27</time>
      </trkpt>
      <trkpt lat="40.89477" lon="0.76854">
        <ele>74.4</ele>
        <time>2022-05-25 00:54:28</time>
      </trkpt>
      <trkpt lat="40.89476" lon="0.76861">
        <ele>74.4</ele>
        <time>2022-05-25 00:54:29</time>
      </trkpt>
      <trkpt lat="40.89476" lon="0.76867">
        <ele>74.4</ele>
        <time>2022-05-25 00:54:30</time>
      </trkpt>
      <trkpt lat="40.89475" lon="0.76874">
        <ele>74.6</ele>
        <time>2022-05-25 00:54:31</time>
      </trkpt>
      <trkpt lat="40.89475" lon="0.76881">
        <ele>74.6</ele>
        <time>2022-05-25 00:54:32</time>
      </trkpt>
      <trkpt lat="40.89474" lon="0.76887">
        <ele>74.8</ele>
        <time>2022-05-25 00:54:33</time>
      </trkpt>
      <trkpt lat="40.89474" lon="0.76894">
        <ele>74.8</ele>
        <time>2022-05-25 00:54:34</time>
      </trkpt>
      <trkpt lat="40.89474" lon="0.769">
        <ele>74.8</ele>
        <time>2022-05-25 00:54:35</time>
      </trkpt>
      <trkpt lat="40.89474" lon="0.76907">
        <ele>75</ele>
        <time>2022-05-25 00:54:36</time>
      </trkpt>
      <trkpt lat="40.89473" lon="0.76913">
        <ele>75</ele>
        <time>2022-05-25 00:54:37</time>
      </trkpt>
      <trkpt lat="40.89473" lon="0.7692">
        <ele>75</ele>
        <time>2022-05-25 00:54:38</time>
      </trkpt>
      <trkpt lat="40.89473" lon="0.76926">
        <ele>75.2</ele>
        <time>2022-05-25 00:54:39</time>
      </trkpt>
      <trkpt lat="40.89473" lon="0.76933">
        <ele>75.4</ele>
        <time>2022-05-25 00:54:40</time>
      </trkpt>
      <trkpt lat="40.89472" lon="0.76939">
        <ele>75.6</ele>
        <time>2022-05-25 00:54:41</time>
      </trkpt>
      <trkpt lat="40.89472" lon="0.76945">
        <ele>75.6</ele>
        <time>2022-05-25 00:54:42</time>
      </trkpt>
      <trkpt lat="40.89471" lon="0.76952">
        <ele>75.6</ele>
        <time>2022-05-25 00:54:43</time>
      </trkpt>
      <trkpt lat="40.89471" lon="0.76959">
        <ele>75.8</ele>
        <time>2022-05-25 00:54:44</time>
      </trkpt>
      <trkpt lat="40.89471" lon="0.76965">
        <ele>75.8</ele>
        <time>2022-05-25 00:54:45</time>
      </trkpt>
      <trkpt lat="40.8947" lon="0.76972">
        <ele>75.8</ele>
        <time>2022-05-25 00:54:46</time>
      </trkpt>
      <trkpt lat="40.8947" lon="0.76979">
        <ele>76</ele>
        <time>2022-05-25 00:54:47</time>
      </trkpt>
      <trkpt lat="40.89469" lon="0.76986">
        <ele>76</ele>
        <time>2022-05-25 00:54:48</time>
      </trkpt>
      <trkpt lat="40.89469" lon="0.76993">
        <ele>76</ele>
        <time>2022-05-25 00:54:49</time>
      </trkpt>
      <trkpt lat="40.89468" lon="0.76999">
        <ele>76</ele>
        <time>2022-05-25 00:54:50</time>
      </trkpt>
      <trkpt lat="40.89468" lon="0.77006">
        <ele>76</ele>
        <time>2022-05-25 00:54:51</time>
      </trkpt>
      <trkpt lat="40.89467" lon="0.77013">
        <ele>76</ele>
        <time>2022-05-25 00:54:52</time>
      </trkpt>
      <trkpt lat="40.89467" lon="0.7702">
        <ele>76.2</ele>
        <time>2022-05-25 00:54:53</time>
      </trkpt>
      <trkpt lat="40.89466" lon="0.77027">
        <ele>76.2</ele>
        <time>2022-05-25 00:54:54</time>
      </trkpt>
      <trkpt lat="40.89466" lon="0.77033">
        <ele>76.2</ele>
        <time>2022-05-25 00:54:55</time>
      </trkpt>
      <trkpt lat="40.89465" lon="0.7704">
        <ele>76.2</ele>
        <time>2022-05-25 00:54:56</time>
      </trkpt>
      <trkpt lat="40.89464" lon="0.77047">
        <ele>76.2</ele>
        <time>2022-05-25 00:54:57</time>
      </trkpt>
      <trkpt lat="40.89463" lon="0.77054">
        <ele>76.2</ele>
        <time>2022-05-25 00:54:58</time>
      </trkpt>
      <trkpt lat="40.89463" lon="0.77061">
        <ele>76.2</ele>
        <time>2022-05-25 00:54:59</time>
      </trkpt>
      <trkpt lat="40.89463" lon="0.77067">
        <ele>76.2</ele>
        <time>2022-05-25 00:55:00</time>
      </trkpt>
      <trkpt lat="40.89462" lon="0.77074">
        <ele>76.4</ele>
        <time>2022-05-25 00:55:01</time>
      </trkpt>
      <trkpt lat="40.89462" lon="0.77081">
        <ele>76.4</ele>
        <time>2022-05-25 00:55:02</time>
      </trkpt>
      <trkpt lat="40.89461" lon="0.77087">
        <ele>76.4</ele>
        <time>2022-05-25 00:55:03</time>
      </trkpt>
      <trkpt lat="40.8946" lon="0.77093">
        <ele>76.4</ele>
        <time>2022-05-25 00:55:04</time>
      </trkpt>
      <trkpt lat="40.8946" lon="0.771">
        <ele>76.4</ele>
        <time>2022-05-25 00:55:05</time>
      </trkpt>
      <trkpt lat="40.89459" lon="0.77106">
        <ele>76.4</ele>
        <time>2022-05-25 00:55:06</time>
      </trkpt>
      <trkpt lat="40.89458" lon="0.77113">
        <ele>76.4</ele>
        <time>2022-05-25 00:55:07</time>
      </trkpt>
      <trkpt lat="40.89458" lon="0.7712">
        <ele>76.4</ele>
        <time>2022-05-25 00:55:08</time>
      </trkpt>
      <trkpt lat="40.89458" lon="0.77127">
        <ele>76.4</ele>
        <time>2022-05-25 00:55:09</time>
      </trkpt>
      <trkpt lat="40.89457" lon="0.77134">
        <ele>76.4</ele>
        <time>2022-05-25 00:55:10</time>
      </trkpt>
      <trkpt lat="40.89456" lon="0.77141">
        <ele>76.6</ele>
        <time>2022-05-25 00:55:11</time>
      </trkpt>
      <trkpt lat="40.89455" lon="0.77148">
        <ele>76.6</ele>
        <time>2022-05-25 00:55:12</time>
      </trkpt>
      <trkpt lat="40.89454" lon="0.77155">
        <ele>76.6</ele>
        <time>2022-05-25 00:55:13</time>
      </trkpt>
      <trkpt lat="40.89454" lon="0.77163">
        <ele>76.6</ele>
        <time>2022-05-25 00:55:14</time>
      </trkpt>
      <trkpt lat="40.89452" lon="0.7717">
        <ele>76.6</ele>
        <time>2022-05-25 00:55:15</time>
      </trkpt>
      <trkpt lat="40.89451" lon="0.77178">
        <ele>76.6</ele>
        <time>2022-05-25 00:55:16</time>
      </trkpt>
      <trkpt lat="40.8945" lon="0.77186">
        <ele>76.6</ele>
        <time>2022-05-25 00:55:17</time>
      </trkpt>
      <trkpt lat="40.89449" lon="0.77195">
        <ele>76.6</ele>
        <time>2022-05-25 00:55:18</time>
      </trkpt>
      <trkpt lat="40.89449" lon="0.77203">
        <ele>76.6</ele>
        <time>2022-05-25 00:55:19</time>
      </trkpt>
      <trkpt lat="40.89448" lon="0.77211">
        <ele>76.6</ele>
        <time>2022-05-25 00:55:20</time>
      </trkpt>
      <trkpt lat="40.89447" lon="0.77219">
        <ele>76.6</ele>
        <time>2022-05-25 00:55:21</time>
      </trkpt>
      <trkpt lat="40.89445" lon="0.77228">
        <ele>76.4</ele>
        <time>2022-05-25 00:55:22</time>
      </trkpt>
      <trkpt lat="40.89444" lon="0.77237">
        <ele>76.4</ele>
        <time>2022-05-25 00:55:23</time>
      </trkpt>
      <trkpt lat="40.89443" lon="0.77245">
        <ele>76.2</ele>
        <time>2022-05-25 00:55:24</time>
      </trkpt>
      <trkpt lat="40.89442" lon="0.77254">
        <ele>76.2</ele>
        <time>2022-05-25 00:55:25</time>
      </trkpt>
      <trkpt lat="40.89441" lon="0.77263">
        <ele>76</ele>
        <time>2022-05-25 00:55:26</time>
      </trkpt>
      <trkpt lat="40.8944" lon="0.77272">
        <ele>76</ele>
        <time>2022-05-25 00:55:27</time>
      </trkpt>
      <trkpt lat="40.89439" lon="0.77281">
        <ele>75.8</ele>
        <time>2022-05-25 00:55:28</time>
      </trkpt>
      <trkpt lat="40.89438" lon="0.77291">
        <ele>75.8</ele>
        <time>2022-05-25 00:55:29</time>
      </trkpt>
      <trkpt lat="40.89437" lon="0.773">
        <ele>75.6</ele>
        <time>2022-05-25 00:55:30</time>
      </trkpt>
      <trkpt lat="40.89436" lon="0.77309">
        <ele>75.6</ele>
        <time>2022-05-25 00:55:31</time>
      </trkpt>
      <trkpt lat="40.89434" lon="0.77318">
        <ele>75.4</ele>
        <time>2022-05-25 00:55:32</time>
      </trkpt>
      <trkpt lat="40.89433" lon="0.77328">
        <ele>75.2</ele>
        <time>2022-05-25 00:55:33</time>
      </trkpt>
      <trkpt lat="40.89432" lon="0.77337">
        <ele>75</ele>
        <time>2022-05-25 00:55:34</time>
      </trkpt>
      <trkpt lat="40.89431" lon="0.77347">
        <ele>74.8</ele>
        <time>2022-05-25 00:55:35</time>
      </trkpt>
      <trkpt lat="40.89429" lon="0.77357">
        <ele>74.8</ele>
        <time>2022-05-25 00:55:36</time>
      </trkpt>
      <trkpt lat="40.89428" lon="0.77367">
        <ele>74.8</ele>
        <time>2022-05-25 00:55:37</time>
      </trkpt>
      <trkpt lat="40.89426" lon="0.77378">
        <ele>74.6</ele>
        <time>2022-05-25 00:55:38</time>
      </trkpt>
      <trkpt lat="40.89425" lon="0.77388">
        <ele>74.4</ele>
        <time>2022-05-25 00:55:39</time>
      </trkpt>
      <trkpt lat="40.89423" lon="0.77398">
        <ele>74.2</ele>
        <time>2022-05-25 00:55:40</time>
      </trkpt>
      <trkpt lat="40.89421" lon="0.77408">
        <ele>74</ele>
        <time>2022-05-25 00:55:41</time>
      </trkpt>
      <trkpt lat="40.8942" lon="0.77419">
        <ele>73.8</ele>
        <time>2022-05-25 00:55:42</time>
      </trkpt>
      <trkpt lat="40.89418" lon="0.77429">
        <ele>73.6</ele>
        <time>2022-05-25 00:55:43</time>
      </trkpt>
      <trkpt lat="40.89417" lon="0.7744">
        <ele>73.2</ele>
        <time>2022-05-25 00:55:44</time>
      </trkpt>
      <trkpt lat="40.89415" lon="0.7745">
        <ele>72.8</ele>
        <time>2022-05-25 00:55:45</time>
      </trkpt>
      <trkpt lat="40.89413" lon="0.77461">
        <ele>72.6</ele>
        <time>2022-05-25 00:55:46</time>
      </trkpt>
      <trkpt lat="40.89412" lon="0.77471">
        <ele>72.2</ele>
        <time>2022-05-25 00:55:47</time>
      </trkpt>
      <trkpt lat="40.8941" lon="0.77482">
        <ele>72</ele>
        <time>2022-05-25 00:55:48</time>
      </trkpt>
      <trkpt lat="40.89408" lon="0.77493">
        <ele>71.8</ele>
        <time>2022-05-25 00:55:49</time>
      </trkpt>
      <trkpt lat="40.89406" lon="0.77504">
        <ele>71.4</ele>
        <time>2022-05-25 00:55:50</time>
      </trkpt>
      <trkpt lat="40.89404" lon="0.77515">
        <ele>71.2</ele>
        <time>2022-05-25 00:55:51</time>
      </trkpt>
      <trkpt lat="40.89402" lon="0.77525">
        <ele>71</ele>
        <time>2022-05-25 00:55:52</time>
      </trkpt>
      <trkpt lat="40.894" lon="0.77536">
        <ele>70.8</ele>
        <time>2022-05-25 00:55:53</time>
      </trkpt>
      <trkpt lat="40.89399" lon="0.77546">
        <ele>70.8</ele>
        <time>2022-05-25 00:55:54</time>
      </trkpt>
      <trkpt lat="40.89397" lon="0.77558">
        <ele>70.4</ele>
        <time>2022-05-25 00:55:55</time>
      </trkpt>
      <trkpt lat="40.89395" lon="0.77569">
        <ele>70.2</ele>
        <time>2022-05-25 00:55:56</time>
      </trkpt>
      <trkpt lat="40.89393" lon="0.7758">
        <ele>70</ele>
        <time>2022-05-25 00:55:57</time>
      </trkpt>
      <trkpt lat="40.89391" lon="0.77592">
        <ele>69.8</ele>
        <time>2022-05-25 00:55:58</time>
      </trkpt>
      <trkpt lat="40.89388" lon="0.77603">
        <ele>69.6</ele>
        <time>2022-05-25 00:55:59</time>
      </trkpt>
      <trkpt lat="40.89386" lon="0.77614">
        <ele>69.4</ele>
        <time>2022-05-25 00:56:00</time>
      </trkpt>
      <trkpt lat="40.89384" lon="0.77626">
        <ele>69</ele>
        <time>2022-05-25 00:56:01</time>
      </trkpt>
      <trkpt lat="40.89382" lon="0.77638">
        <ele>68.8</ele>
        <time>2022-05-25 00:56:02</time>
      </trkpt>
      <trkpt lat="40.8938" lon="0.77649">
        <ele>68.6</ele>
        <time>2022-05-25 00:56:03</time>
      </trkpt>
      <trkpt lat="40.89378" lon="0.7766">
        <ele>68.4</ele>
        <time>2022-05-25 00:56:04</time>
      </trkpt>
      <trkpt lat="40.89376" lon="0.77672">
        <ele>68.2</ele>
        <time>2022-05-25 00:56:05</time>
      </trkpt>
      <trkpt lat="40.89373" lon="0.77683">
        <ele>67.8</ele>
        <time>2022-05-25 00:56:06</time>
      </trkpt>
      <trkpt lat="40.89371" lon="0.77695">
        <ele>67.6</ele>
        <time>2022-05-25 00:56:07</time>
      </trkpt>
      <trkpt lat="40.89369" lon="0.77706">
        <ele>67.4</ele>
        <time>2022-05-25 00:56:08</time>
      </trkpt>
      <trkpt lat="40.89367" lon="0.77717">
        <ele>67.2</ele>
        <time>2022-05-25 00:56:09</time>
      </trkpt>
      <trkpt lat="40.89365" lon="0.77728">
        <ele>67</ele>
        <time>2022-05-25 00:56:10</time>
      </trkpt>
      <trkpt lat="40.89362" lon="0.7774">
        <ele>66.8</ele>
        <time>2022-05-25 00:56:11</time>
      </trkpt>
      <trkpt lat="40.8936" lon="0.77752">
        <ele>66.6</ele>
        <time>2022-05-25 00:56:12</time>
      </trkpt>
      <trkpt lat="40.89357" lon="0.77764">
        <ele>66.4</ele>
        <time>2022-05-25 00:56:13</time>
      </trkpt>
      <trkpt lat="40.89355" lon="0.77776">
        <ele>66</ele>
        <time>2022-05-25 00:56:14</time>
      </trkpt>
      <trkpt lat="40.89352" lon="0.77788">
        <ele>65.8</ele>
        <time>2022-05-25 00:56:15</time>
      </trkpt>
      <trkpt lat="40.89351" lon="0.77799">
        <ele>65.6</ele>
        <time>2022-05-25 00:56:16</time>
      </trkpt>
      <trkpt lat="40.8935" lon="0.77811">
        <ele>65.6</ele>
        <time>2022-05-25 00:56:17</time>
      </trkpt>
      <trkpt lat="40.89348" lon="0.77823">
        <ele>65.2</ele>
        <time>2022-05-25 00:56:18</time>
      </trkpt>
      <trkpt lat="40.89346" lon="0.77834">
        <ele>65</ele>
        <time>2022-05-25 00:56:19</time>
      </trkpt>
      <trkpt lat="40.89344" lon="0.77845">
        <ele>64.6</ele>
        <time>2022-05-25 00:56:20</time>
      </trkpt>
      <trkpt lat="40.89343" lon="0.77856">
        <ele>64.4</ele>
        <time>2022-05-25 00:56:21</time>
      </trkpt>
      <trkpt lat="40.89341" lon="0.77867">
        <ele>64.2</ele>
        <time>2022-05-25 00:56:22</time>
      </trkpt>
      <trkpt lat="40.89339" lon="0.77879">
        <ele>64</ele>
        <time>2022-05-25 00:56:23</time>
      </trkpt>
      <trkpt lat="40.89338" lon="0.7789">
        <ele>63.8</ele>
        <time>2022-05-25 00:56:24</time>
      </trkpt>
      <trkpt lat="40.89337" lon="0.77902">
        <ele>63.6</ele>
        <time>2022-05-25 00:56:25</time>
      </trkpt>
      <trkpt lat="40.89336" lon="0.77913">
        <ele>63.4</ele>
        <time>2022-05-25 00:56:26</time>
      </trkpt>
      <trkpt lat="40.89335" lon="0.77923">
        <ele>63.2</ele>
        <time>2022-05-25 00:56:27</time>
      </trkpt>
      <trkpt lat="40.89334" lon="0.77934">
        <ele>63.2</ele>
        <time>2022-05-25 00:56:28</time>
      </trkpt>
      <trkpt lat="40.89333" lon="0.77945">
        <ele>63.2</ele>
        <time>2022-05-25 00:56:29</time>
      </trkpt>
      <trkpt lat="40.89331" lon="0.77956">
        <ele>63.2</ele>
        <time>2022-05-25 00:56:30</time>
      </trkpt>
      <trkpt lat="40.8933" lon="0.77967">
        <ele>63</ele>
        <time>2022-05-25 00:56:31</time>
      </trkpt>
      <trkpt lat="40.8933" lon="0.77977">
        <ele>62.8</ele>
        <time>2022-05-25 00:56:32</time>
      </trkpt>
      <trkpt lat="40.89329" lon="0.77988">
        <ele>62.8</ele>
        <time>2022-05-25 00:56:33</time>
      </trkpt>
      <trkpt lat="40.89328" lon="0.77999">
        <ele>62.6</ele>
        <time>2022-05-25 00:56:34</time>
      </trkpt>
      <trkpt lat="40.89327" lon="0.7801">
        <ele>62.6</ele>
        <time>2022-05-25 00:56:35</time>
      </trkpt>
      <trkpt lat="40.89326" lon="0.78021">
        <ele>62.4</ele>
        <time>2022-05-25 00:56:36</time>
      </trkpt>
      <trkpt lat="40.89326" lon="0.78032">
        <ele>62.2</ele>
        <time>2022-05-25 00:56:37</time>
      </trkpt>
      <trkpt lat="40.89325" lon="0.78043">
        <ele>62.2</ele>
        <time>2022-05-25 00:56:38</time>
      </trkpt>
      <trkpt lat="40.89325" lon="0.78055">
        <ele>62</ele>
        <time>2022-05-25 00:56:39</time>
      </trkpt>
      <trkpt lat="40.89324" lon="0.78067">
        <ele>61.8</ele>
        <time>2022-05-25 00:56:40</time>
      </trkpt>
      <trkpt lat="40.89323" lon="0.78078">
        <ele>61.8</ele>
        <time>2022-05-25 00:56:41</time>
      </trkpt>
      <trkpt lat="40.89322" lon="0.78089">
        <ele>61.8</ele>
        <time>2022-05-25 00:56:42</time>
      </trkpt>
      <trkpt lat="40.89322" lon="0.781">
        <ele>61.8</ele>
        <time>2022-05-25 00:56:43</time>
      </trkpt>
      <trkpt lat="40.89321" lon="0.78112">
        <ele>61.6</ele>
        <time>2022-05-25 00:56:44</time>
      </trkpt>
      <trkpt lat="40.8932" lon="0.78123">
        <ele>61.6</ele>
        <time>2022-05-25 00:56:45</time>
      </trkpt>
      <trkpt lat="40.8932" lon="0.78134">
        <ele>61.6</ele>
        <time>2022-05-25 00:56:46</time>
      </trkpt>
      <trkpt lat="40.8932" lon="0.78146">
        <ele>61.4</ele>
        <time>2022-05-25 00:56:47</time>
      </trkpt>
      <trkpt lat="40.8932" lon="0.78156">
        <ele>61.4</ele>
        <time>2022-05-25 00:56:48</time>
      </trkpt>
      <trkpt lat="40.89319" lon="0.78167">
        <ele>61.2</ele>
        <time>2022-05-25 00:56:49</time>
      </trkpt>
      <trkpt lat="40.89318" lon="0.78179">
        <ele>61.2</ele>
        <time>2022-05-25 00:56:50</time>
      </trkpt>
      <trkpt lat="40.89318" lon="0.78191">
        <ele>61.2</ele>
        <time>2022-05-25 00:56:51</time>
      </trkpt>
      <trkpt lat="40.89318" lon="0.78202">
        <ele>61.2</ele>
        <time>2022-05-25 00:56:52</time>
      </trkpt>
      <trkpt lat="40.89318" lon="0.78212">
        <ele>61.2</ele>
        <time>2022-05-25 00:56:53</time>
      </trkpt>
      <trkpt lat="40.89318" lon="0.78223">
        <ele>61.2</ele>
        <time>2022-05-25 00:56:54</time>
      </trkpt>
      <trkpt lat="40.89318" lon="0.78234">
        <ele>61.2</ele>
        <time>2022-05-25 00:56:55</time>
      </trkpt>
      <trkpt lat="40.89318" lon="0.78245">
        <ele>61.4</ele>
        <time>2022-05-25 00:56:56</time>
      </trkpt>
      <trkpt lat="40.89319" lon="0.78256">
        <ele>61.4</ele>
        <time>2022-05-25 00:56:57</time>
      </trkpt>
      <trkpt lat="40.89319" lon="0.78266">
        <ele>61.4</ele>
        <time>2022-05-25 00:56:58</time>
      </trkpt>
      <trkpt lat="40.89319" lon="0.78276">
        <ele>61.2</ele>
        <time>2022-05-25 00:56:59</time>
      </trkpt>
      <trkpt lat="40.8932" lon="0.78286">
        <ele>61.2</ele>
        <time>2022-05-25 00:57:00</time>
      </trkpt>
      <trkpt lat="40.8932" lon="0.78295">
        <ele>61</ele>
        <time>2022-05-25 00:57:01</time>
      </trkpt>
      <trkpt lat="40.8932" lon="0.78305">
        <ele>61</ele>
        <time>2022-05-25 00:57:02</time>
      </trkpt>
      <trkpt lat="40.89321" lon="0.78315">
        <ele>61.2</ele>
        <time>2022-05-25 00:57:03</time>
      </trkpt>
      <trkpt lat="40.89322" lon="0.78326">
        <ele>61.2</ele>
        <time>2022-05-25 00:57:04</time>
      </trkpt>
      <trkpt lat="40.89323" lon="0.78335">
        <ele>61.2</ele>
        <time>2022-05-25 00:57:05</time>
      </trkpt>
      <trkpt lat="40.89324" lon="0.78345">
        <ele>61.2</ele>
        <time>2022-05-25 00:57:06</time>
      </trkpt>
      <trkpt lat="40.89325" lon="0.78355">
        <ele>61</ele>
        <time>2022-05-25 00:57:07</time>
      </trkpt>
      <trkpt lat="40.89325" lon="0.78365">
        <ele>61</ele>
        <time>2022-05-25 00:57:08</time>
      </trkpt>
      <trkpt lat="40.89326" lon="0.78375">
        <ele>61</ele>
        <time>2022-05-25 00:57:09</time>
      </trkpt>
      <trkpt lat="40.89326" lon="0.78385">
        <ele>61</ele>
        <time>2022-05-25 00:57:10</time>
      </trkpt>
      <trkpt lat="40.89328" lon="0.78395">
        <ele>61</ele>
        <time>2022-05-25 00:57:11</time>
      </trkpt>
      <trkpt lat="40.89328" lon="0.78405">
        <ele>60.8</ele>
        <time>2022-05-25 00:57:12</time>
      </trkpt>
      <trkpt lat="40.8933" lon="0.78414">
        <ele>60.8</ele>
        <time>2022-05-25 00:57:13</time>
      </trkpt>
      <trkpt lat="40.89331" lon="0.78423">
        <ele>60.8</ele>
        <time>2022-05-25 00:57:14</time>
      </trkpt>
      <trkpt lat="40.89332" lon="0.78435">
        <ele>60.8</ele>
        <time>2022-05-25 00:57:15</time>
      </trkpt>
      <trkpt lat="40.89333" lon="0.78445">
        <ele>60.6</ele>
        <time>2022-05-25 00:57:16</time>
      </trkpt>
      <trkpt lat="40.89334" lon="0.78455">
        <ele>60.4</ele>
        <time>2022-05-25 00:57:17</time>
      </trkpt>
      <trkpt lat="40.89335" lon="0.78465">
        <ele>60.4</ele>
        <time>2022-05-25 00:57:18</time>
      </trkpt>
      <trkpt lat="40.89336" lon="0.78475">
        <ele>60.4</ele>
        <time>2022-05-25 00:57:19</time>
      </trkpt>
      <trkpt lat="40.89338" lon="0.78485">
        <ele>60.4</ele>
        <time>2022-05-25 00:57:20</time>
      </trkpt>
      <trkpt lat="40.89339" lon="0.78495">
        <ele>60.4</ele>
        <time>2022-05-25 00:57:21</time>
      </trkpt>
      <trkpt lat="40.89341" lon="0.78505">
        <ele>60.4</ele>
        <time>2022-05-25 00:57:22</time>
      </trkpt>
      <trkpt lat="40.89342" lon="0.78515">
        <ele>60.4</ele>
        <time>2022-05-25 00:57:23</time>
      </trkpt>
      <trkpt lat="40.89343" lon="0.78525">
        <ele>60.2</ele>
        <time>2022-05-25 00:57:24</time>
      </trkpt>
      <trkpt lat="40.89344" lon="0.78535">
        <ele>60.2</ele>
        <time>2022-05-25 00:57:25</time>
      </trkpt>
      <trkpt lat="40.89346" lon="0.78545">
        <ele>60</ele>
        <time>2022-05-25 00:57:26</time>
      </trkpt>
      <trkpt lat="40.89347" lon="0.78555">
        <ele>60</ele>
        <time>2022-05-25 00:57:27</time>
      </trkpt>
      <trkpt lat="40.89349" lon="0.78564">
        <ele>60</ele>
        <time>2022-05-25 00:57:28</time>
      </trkpt>
      <trkpt lat="40.89351" lon="0.78574">
        <ele>59.8</ele>
        <time>2022-05-25 00:57:29</time>
      </trkpt>
      <trkpt lat="40.89352" lon="0.78583">
        <ele>59.8</ele>
        <time>2022-05-25 00:57:30</time>
      </trkpt>
      <trkpt lat="40.89354" lon="0.78593">
        <ele>59.8</ele>
        <time>2022-05-25 00:57:31</time>
      </trkpt>
      <trkpt lat="40.89356" lon="0.78603">
        <ele>59.8</ele>
        <time>2022-05-25 00:57:32</time>
      </trkpt>
      <trkpt lat="40.89358" lon="0.78612">
        <ele>59.6</ele>
        <time>2022-05-25 00:57:33</time>
      </trkpt>
      <trkpt lat="40.8936" lon="0.78621">
        <ele>59.8</ele>
        <time>2022-05-25 00:57:34</time>
      </trkpt>
      <trkpt lat="40.89362" lon="0.7863">
        <ele>59.8</ele>
        <time>2022-05-25 00:57:35</time>
      </trkpt>
      <trkpt lat="40.89363" lon="0.78639">
        <ele>59.6</ele>
        <time>2022-05-25 00:57:36</time>
      </trkpt>
      <trkpt lat="40.89365" lon="0.78649">
        <ele>59.6</ele>
        <time>2022-05-25 00:57:37</time>
      </trkpt>
      <trkpt lat="40.89367" lon="0.78658">
        <ele>59.4</ele>
        <time>2022-05-25 00:57:38</time>
      </trkpt>
      <trkpt lat="40.89368" lon="0.78667">
        <ele>59.4</ele>
        <time>2022-05-25 00:57:39</time>
      </trkpt>
      <trkpt lat="40.8937" lon="0.78676">
        <ele>59.4</ele>
        <time>2022-05-25 00:57:40</time>
      </trkpt>
      <trkpt lat="40.89373" lon="0.78687">
        <ele>59.4</ele>
        <time>2022-05-25 00:57:41</time>
      </trkpt>
      <trkpt lat="40.89375" lon="0.78697">
        <ele>59.4</ele>
        <time>2022-05-25 00:57:42</time>
      </trkpt>
      <trkpt lat="40.89377" lon="0.78706">
        <ele>59.4</ele>
        <time>2022-05-25 00:57:43</time>
      </trkpt>
      <trkpt lat="40.89379" lon="0.78715">
        <ele>59.4</ele>
        <time>2022-05-25 00:57:44</time>
      </trkpt>
      <trkpt lat="40.89381" lon="0.78723">
        <ele>59.6</ele>
        <time>2022-05-25 00:57:45</time>
      </trkpt>
      <trkpt lat="40.89384" lon="0.78732">
        <ele>59.6</ele>
        <time>2022-05-25 00:57:46</time>
      </trkpt>
      <trkpt lat="40.89386" lon="0.78741">
        <ele>59.4</ele>
        <time>2022-05-25 00:57:47</time>
      </trkpt>
      <trkpt lat="40.89388" lon="0.78749">
        <ele>59.2</ele>
        <time>2022-05-25 00:57:48</time>
      </trkpt>
      <trkpt lat="40.8939" lon="0.78758">
        <ele>59.2</ele>
        <time>2022-05-25 00:57:49</time>
      </trkpt>
      <trkpt lat="40.89392" lon="0.78766">
        <ele>59.2</ele>
        <time>2022-05-25 00:57:50</time>
      </trkpt>
      <trkpt lat="40.89394" lon="0.78775">
        <ele>59</ele>
        <time>2022-05-25 00:57:51</time>
      </trkpt>
      <trkpt lat="40.89397" lon="0.78784">
        <ele>59</ele>
        <time>2022-05-25 00:57:52</time>
      </trkpt>
      <trkpt lat="40.89399" lon="0.78792">
        <ele>58.8</ele>
        <time>2022-05-25 00:57:53</time>
      </trkpt>
      <trkpt lat="40.89401" lon="0.788">
        <ele>58.8</ele>
        <time>2022-05-25 00:57:54</time>
      </trkpt>
      <trkpt lat="40.89403" lon="0.78808">
        <ele>59</ele>
        <time>2022-05-25 00:57:55</time>
      </trkpt>
      <trkpt lat="40.89406" lon="0.78816">
        <ele>59</ele>
        <time>2022-05-25 00:57:56</time>
      </trkpt>
      <trkpt lat="40.89408" lon="0.78823">
        <ele>59</ele>
        <time>2022-05-25 00:57:57</time>
      </trkpt>
      <trkpt lat="40.8941" lon="0.78831">
        <ele>59</ele>
        <time>2022-05-25 00:57:58</time>
      </trkpt>
      <trkpt lat="40.89412" lon="0.78838">
        <ele>59</ele>
        <time>2022-05-25 00:57:59</time>
      </trkpt>
      <trkpt lat="40.89415" lon="0.78845">
        <ele>59</ele>
        <time>2022-05-25 00:58:00</time>
      </trkpt>
      <trkpt lat="40.89417" lon="0.78853">
        <ele>59</ele>
        <time>2022-05-25 00:58:01</time>
      </trkpt>
      <trkpt lat="40.89419" lon="0.7886">
        <ele>59</ele>
        <time>2022-05-25 00:58:02</time>
      </trkpt>
      <trkpt lat="40.89421" lon="0.78867">
        <ele>59</ele>
        <time>2022-05-25 00:58:03</time>
      </trkpt>
      <trkpt lat="40.89423" lon="0.78873">
        <ele>59</ele>
        <time>2022-05-25 00:58:04</time>
      </trkpt>
      <trkpt lat="40.89425" lon="0.7888">
        <ele>59</ele>
        <time>2022-05-25 00:58:05</time>
      </trkpt>
      <trkpt lat="40.89427" lon="0.78886">
        <ele>59</ele>
        <time>2022-05-25 00:58:06</time>
      </trkpt>
      <trkpt lat="40.89429" lon="0.78893">
        <ele>58.8</ele>
        <time>2022-05-25 00:58:07</time>
      </trkpt>
      <trkpt lat="40.89432" lon="0.78899">
        <ele>58.8</ele>
        <time>2022-05-25 00:58:08</time>
      </trkpt>
      <trkpt lat="40.89434" lon="0.78906">
        <ele>58.8</ele>
        <time>2022-05-25 00:58:09</time>
      </trkpt>
      <trkpt lat="40.89436" lon="0.78913">
        <ele>58.8</ele>
        <time>2022-05-25 00:58:10</time>
      </trkpt>
      <trkpt lat="40.89439" lon="0.7892">
        <ele>58.8</ele>
        <time>2022-05-25 00:58:11</time>
      </trkpt>
      <trkpt lat="40.89441" lon="0.78927">
        <ele>59</ele>
        <time>2022-05-25 00:58:12</time>
      </trkpt>
      <trkpt lat="40.89443" lon="0.78934">
        <ele>59</ele>
        <time>2022-05-25 00:58:13</time>
      </trkpt>
      <trkpt lat="40.89445" lon="0.78941">
        <ele>59</ele>
        <time>2022-05-25 00:58:14</time>
      </trkpt>
      <trkpt lat="40.89448" lon="0.78947">
        <ele>59</ele>
        <time>2022-05-25 00:58:15</time>
      </trkpt>
      <trkpt lat="40.8945" lon="0.78955">
        <ele>59</ele>
        <time>2022-05-25 00:58:16</time>
      </trkpt>
      <trkpt lat="40.89453" lon="0.78962">
        <ele>59</ele>
        <time>2022-05-25 00:58:17</time>
      </trkpt>
      <trkpt lat="40.89455" lon="0.78969">
        <ele>59</ele>
        <time>2022-05-25 00:58:18</time>
      </trkpt>
      <trkpt lat="40.89458" lon="0.78976">
        <ele>58.8</ele>
        <time>2022-05-25 00:58:19</time>
      </trkpt>
      <trkpt lat="40.8946" lon="0.78983">
        <ele>58.8</ele>
        <time>2022-05-25 00:58:20</time>
      </trkpt>
      <trkpt lat="40.89463" lon="0.78991">
        <ele>58.8</ele>
        <time>2022-05-25 00:58:21</time>
      </trkpt>
      <trkpt lat="40.89466" lon="0.78998">
        <ele>58.6</ele>
        <time>2022-05-25 00:58:22</time>
      </trkpt>
      <trkpt lat="40.89469" lon="0.79006">
        <ele>58.6</ele>
        <time>2022-05-25 00:58:23</time>
      </trkpt>
      <trkpt lat="40.89471" lon="0.79013">
        <ele>58.4</ele>
        <time>2022-05-25 00:58:24</time>
      </trkpt>
      <trkpt lat="40.89474" lon="0.79021">
        <ele>58.2</ele>
        <time>2022-05-25 00:58:25</time>
      </trkpt>
      <trkpt lat="40.89477" lon="0.79028">
        <ele>58.2</ele>
        <time>2022-05-25 00:58:26</time>
      </trkpt>
      <trkpt lat="40.8948" lon="0.79036">
        <ele>58</ele>
        <time>2022-05-25 00:58:27</time>
      </trkpt>
      <trkpt lat="40.89482" lon="0.79043">
        <ele>58</ele>
        <time>2022-05-25 00:58:28</time>
      </trkpt>
      <trkpt lat="40.89485" lon="0.7905">
        <ele>58</ele>
        <time>2022-05-25 00:58:29</time>
      </trkpt>
      <trkpt lat="40.89487" lon="0.79057">
        <ele>58</ele>
        <time>2022-05-25 00:58:30</time>
      </trkpt>
      <trkpt lat="40.89491" lon="0.79065">
        <ele>58</ele>
        <time>2022-05-25 00:58:31</time>
      </trkpt>
      <trkpt lat="40.89494" lon="0.79073">
        <ele>58</ele>
        <time>2022-05-25 00:58:32</time>
      </trkpt>
      <trkpt lat="40.89497" lon="0.7908">
        <ele>58</ele>
        <time>2022-05-25 00:58:33</time>
      </trkpt>
      <trkpt lat="40.895" lon="0.79087">
        <ele>58</ele>
        <time>2022-05-25 00:58:34</time>
      </trkpt>
      <trkpt lat="40.89503" lon="0.79095">
        <ele>58</ele>
        <time>2022-05-25 00:58:35</time>
      </trkpt>
      <trkpt lat="40.89506" lon="0.79103">
        <ele>58</ele>
        <time>2022-05-25 00:58:36</time>
      </trkpt>
      <trkpt lat="40.89509" lon="0.79111">
        <ele>58.2</ele>
        <time>2022-05-25 00:58:37</time>
      </trkpt>
      <trkpt lat="40.89512" lon="0.79119">
        <ele>58.2</ele>
        <time>2022-05-25 00:58:38</time>
      </trkpt>
      <trkpt lat="40.89515" lon="0.79127">
        <ele>58.2</ele>
        <time>2022-05-25 00:58:39</time>
      </trkpt>
      <trkpt lat="40.89518" lon="0.79134">
        <ele>58.2</ele>
        <time>2022-05-25 00:58:40</time>
      </trkpt>
      <trkpt lat="40.89521" lon="0.79142">
        <ele>58.4</ele>
        <time>2022-05-25 00:58:41</time>
      </trkpt>
      <trkpt lat="40.89524" lon="0.7915">
        <ele>58.2</ele>
        <time>2022-05-25 00:58:42</time>
      </trkpt>
      <trkpt lat="40.89527" lon="0.79158">
        <ele>58.4</ele>
        <time>2022-05-25 00:58:43</time>
      </trkpt>
      <trkpt lat="40.8953" lon="0.79166">
        <ele>58.2</ele>
        <time>2022-05-25 00:58:44</time>
      </trkpt>
      <trkpt lat="40.89533" lon="0.79174">
        <ele>58.2</ele>
        <time>2022-05-25 00:58:45</time>
      </trkpt>
      <trkpt lat="40.89536" lon="0.79181">
        <ele>58.2</ele>
        <time>2022-05-25 00:58:46</time>
      </trkpt>
      <trkpt lat="40.89539" lon="0.79188">
        <ele>58.2</ele>
        <time>2022-05-25 00:58:47</time>
      </trkpt>
      <trkpt lat="40.89542" lon="0.79195">
        <ele>58.2</ele>
        <time>2022-05-25 00:58:48</time>
      </trkpt>
      <trkpt lat="40.89545" lon="0.79204">
        <ele>58.2</ele>
        <time>2022-05-25 00:58:49</time>
      </trkpt>
      <trkpt lat="40.89548" lon="0.79212">
        <ele>58</ele>
        <time>2022-05-25 00:58:50</time>
      </trkpt>
      <trkpt lat="40.89552" lon="0.7922">
        <ele>58</ele>
        <time>2022-05-25 00:58:51</time>
      </trkpt>
      <trkpt lat="40.89555" lon="0.79228">
        <ele>57.8</ele>
        <time>2022-05-25 00:58:52</time>
      </trkpt>
      <trkpt lat="40.89558" lon="0.79235">
        <ele>58</ele>
        <time>2022-05-25 00:58:53</time>
      </trkpt>
      <trkpt lat="40.89561" lon="0.79243">
        <ele>58</ele>
        <time>2022-05-25 00:58:54</time>
      </trkpt>
      <trkpt lat="40.89564" lon="0.7925">
        <ele>58</ele>
        <time>2022-05-25 00:58:55</time>
      </trkpt>
      <trkpt lat="40.89568" lon="0.79258">
        <ele>57.8</ele>
        <time>2022-05-25 00:58:56</time>
      </trkpt>
      <trkpt lat="40.89571" lon="0.79265">
        <ele>57.6</ele>
        <time>2022-05-25 00:58:57</time>
      </trkpt>
      <trkpt lat="40.89574" lon="0.79273">
        <ele>57.6</ele>
        <time>2022-05-25 00:58:58</time>
      </trkpt>
      <trkpt lat="40.89577" lon="0.7928">
        <ele>57.6</ele>
        <time>2022-05-25 00:58:59</time>
      </trkpt>
      <trkpt lat="40.8958" lon="0.79288">
        <ele>57.4</ele>
        <time>2022-05-25 00:59:00</time>
      </trkpt>
      <trkpt lat="40.89583" lon="0.79295">
        <ele>57.4</ele>
        <time>2022-05-25 00:59:01</time>
      </trkpt>
      <trkpt lat="40.89586" lon="0.79303">
        <ele>57.4</ele>
        <time>2022-05-25 00:59:02</time>
      </trkpt>
      <trkpt lat="40.89589" lon="0.7931">
        <ele>57.4</ele>
        <time>2022-05-25 00:59:03</time>
      </trkpt>
      <trkpt lat="40.89593" lon="0.79317">
        <ele>57.4</ele>
        <time>2022-05-25 00:59:04</time>
      </trkpt>
      <trkpt lat="40.89596" lon="0.79325">
        <ele>57.4</ele>
        <time>2022-05-25 00:59:05</time>
      </trkpt>
      <trkpt lat="40.89599" lon="0.79332">
        <ele>57.6</ele>
        <time>2022-05-25 00:59:06</time>
      </trkpt>
      <trkpt lat="40.89603" lon="0.79339">
        <ele>57.6</ele>
        <time>2022-05-25 00:59:07</time>
      </trkpt>
      <trkpt lat="40.89606" lon="0.79346">
        <ele>57.6</ele>
        <time>2022-05-25 00:59:08</time>
      </trkpt>
      <trkpt lat="40.89609" lon="0.79353">
        <ele>57.4</ele>
        <time>2022-05-25 00:59:09</time>
      </trkpt>
      <trkpt lat="40.89612" lon="0.7936">
        <ele>57.4</ele>
        <time>2022-05-25 00:59:10</time>
      </trkpt>
      <trkpt lat="40.89615" lon="0.79367">
        <ele>57.4</ele>
        <time>2022-05-25 00:59:11</time>
      </trkpt>
      <trkpt lat="40.89619" lon="0.79374">
        <ele>57.2</ele>
        <time>2022-05-25 00:59:12</time>
      </trkpt>
      <trkpt lat="40.89622" lon="0.79381">
        <ele>57</ele>
        <time>2022-05-25 00:59:13</time>
      </trkpt>
      <trkpt lat="40.89625" lon="0.79388">
        <ele>57</ele>
        <time>2022-05-25 00:59:14</time>
      </trkpt>
      <trkpt lat="40.89628" lon="0.79395">
        <ele>57</ele>
        <time>2022-05-25 00:59:15</time>
      </trkpt>
      <trkpt lat="40.89631" lon="0.79402">
        <ele>56.8</ele>
        <time>2022-05-25 00:59:16</time>
      </trkpt>
      <trkpt lat="40.89634" lon="0.7941">
        <ele>56.8</ele>
        <time>2022-05-25 00:59:17</time>
      </trkpt>
      <trkpt lat="40.89638" lon="0.79417">
        <ele>57</ele>
        <time>2022-05-25 00:59:18</time>
      </trkpt>
      <trkpt lat="40.89642" lon="0.79425">
        <ele>57</ele>
        <time>2022-05-25 00:59:19</time>
      </trkpt>
      <trkpt lat="40.89645" lon="0.79433">
        <ele>57</ele>
        <time>2022-05-25 00:59:20</time>
      </trkpt>
      <trkpt lat="40.89649" lon="0.7944">
        <ele>57.2</ele>
        <time>2022-05-25 00:59:21</time>
      </trkpt>
      <trkpt lat="40.89652" lon="0.79448">
        <ele>57.4</ele>
        <time>2022-05-25 00:59:22</time>
      </trkpt>
      <trkpt lat="40.89656" lon="0.79455">
        <ele>57.6</ele>
        <time>2022-05-25 00:59:23</time>
      </trkpt>
      <trkpt lat="40.89659" lon="0.79462">
        <ele>57.6</ele>
        <time>2022-05-25 00:59:24</time>
      </trkpt>
      <trkpt lat="40.89662" lon="0.79469">
        <ele>57.6</ele>
        <time>2022-05-25 00:59:25</time>
      </trkpt>
      <trkpt lat="40.89665" lon="0.79476">
        <ele>57.4</ele>
        <time>2022-05-25 00:59:26</time>
      </trkpt>
      <trkpt lat="40.89669" lon="0.79483">
        <ele>57.4</ele>
        <time>2022-05-25 00:59:27</time>
      </trkpt>
      <trkpt lat="40.89672" lon="0.7949">
        <ele>57.4</ele>
        <time>2022-05-25 00:59:28</time>
      </trkpt>
      <trkpt lat="40.89676" lon="0.79497">
        <ele>57.2</ele>
        <time>2022-05-25 00:59:29</time>
      </trkpt>
      <trkpt lat="40.89679" lon="0.79505">
        <ele>57</ele>
        <time>2022-05-25 00:59:30</time>
      </trkpt>
      <trkpt lat="40.89683" lon="0.79512">
        <ele>56.8</ele>
        <time>2022-05-25 00:59:31</time>
      </trkpt>
      <trkpt lat="40.89686" lon="0.7952">
        <ele>56.8</ele>
        <time>2022-05-25 00:59:32</time>
      </trkpt>
      <trkpt lat="40.8969" lon="0.79527">
        <ele>56.8</ele>
        <time>2022-05-25 00:59:33</time>
      </trkpt>
      <trkpt lat="40.89693" lon="0.79534">
        <ele>56.6</ele>
        <time>2022-05-25 00:59:34</time>
      </trkpt>
      <trkpt lat="40.89697" lon="0.79542">
        <ele>56.4</ele>
        <time>2022-05-25 00:59:35</time>
      </trkpt>
      <trkpt lat="40.89701" lon="0.79549">
        <ele>56.4</ele>
        <time>2022-05-25 00:59:36</time>
      </trkpt>
      <trkpt lat="40.89704" lon="0.79557">
        <ele>56.4</ele>
        <time>2022-05-25 00:59:37</time>
      </trkpt>
      <trkpt lat="40.89708" lon="0.79564">
        <ele>56.2</ele>
        <time>2022-05-25 00:59:38</time>
      </trkpt>
      <trkpt lat="40.89712" lon="0.79571">
        <ele>56.2</ele>
        <time>2022-05-25 00:59:39</time>
      </trkpt>
      <trkpt lat="40.89715" lon="0.79578">
        <ele>56</ele>
        <time>2022-05-25 00:59:40</time>
      </trkpt>
      <trkpt lat="40.89719" lon="0.79585">
        <ele>56</ele>
        <time>2022-05-25 00:59:41</time>
      </trkpt>
      <trkpt lat="40.89722" lon="0.79593">
        <ele>56.2</ele>
        <time>2022-05-25 00:59:42</time>
      </trkpt>
      <trkpt lat="40.89726" lon="0.796">
        <ele>56.2</ele>
        <time>2022-05-25 00:59:43</time>
      </trkpt>
      <trkpt lat="40.8973" lon="0.79607">
        <ele>56.2</ele>
        <time>2022-05-25 00:59:44</time>
      </trkpt>
      <trkpt lat="40.89734" lon="0.79615">
        <ele>56</ele>
        <time>2022-05-25 00:59:45</time>
      </trkpt>
      <trkpt lat="40.89738" lon="0.79622">
        <ele>56.2</ele>
        <time>2022-05-25 00:59:46</time>
      </trkpt>
      <trkpt lat="40.89742" lon="0.79629">
        <ele>56.2</ele>
        <time>2022-05-25 00:59:47</time>
      </trkpt>
      <trkpt lat="40.89745" lon="0.79636">
        <ele>56</ele>
        <time>2022-05-25 00:59:48</time>
      </trkpt>
      <trkpt lat="40.89749" lon="0.79644">
        <ele>56</ele>
        <time>2022-05-25 00:59:49</time>
      </trkpt>
      <trkpt lat="40.89752" lon="0.79651">
        <ele>55.8</ele>
        <time>2022-05-25 00:59:50</time>
      </trkpt>
      <trkpt lat="40.89756" lon="0.79658">
        <ele>55.8</ele>
        <time>2022-05-25 00:59:51</time>
      </trkpt>
      <trkpt lat="40.89761" lon="0.79666">
        <ele>55.8</ele>
        <time>2022-05-25 00:59:52</time>
      </trkpt>
      <trkpt lat="40.89764" lon="0.79673">
        <ele>55.8</ele>
        <time>2022-05-25 00:59:53</time>
      </trkpt>
      <trkpt lat="40.89768" lon="0.79681">
        <ele>55.8</ele>
        <time>2022-05-25 00:59:54</time>
      </trkpt>
      <trkpt lat="40.89772" lon="0.79688">
        <ele>55.8</ele>
        <time>2022-05-25 00:59:55</time>
      </trkpt>
      <trkpt lat="40.89776" lon="0.79695">
        <ele>55.8</ele>
        <time>2022-05-25 00:59:56</time>
      </trkpt>
      <trkpt lat="40.8978" lon="0.79702">
        <ele>55.8</ele>
        <time>2022-05-25 00:59:57</time>
      </trkpt>
      <trkpt lat="40.89783" lon="0.79709">
        <ele>56</ele>
        <time>2022-05-25 00:59:58</time>
      </trkpt>
      <trkpt lat="40.89787" lon="0.79716">
        <ele>56</ele>
        <time>2022-05-25 00:59:59</time>
      </trkpt>
      <trkpt lat="40.89791" lon="0.79722">
        <ele>56</ele>
        <time>2022-05-25 01:00:00</time>
      </trkpt>
      <trkpt lat="40.89795" lon="0.79728">
        <ele>56</ele>
        <time>2022-05-25 01:00:01</time>
      </trkpt>
      <trkpt lat="40.89798" lon="0.79735">
        <ele>56</ele>
        <time>2022-05-25 01:00:02</time>
      </trkpt>
      <trkpt lat="40.89801" lon="0.79741">
        <ele>56</ele>
        <time>2022-05-25 01:00:03</time>
      </trkpt>
      <trkpt lat="40.89805" lon="0.79747">
        <ele>56.2</ele>
        <time>2022-05-25 01:00:04</time>
      </trkpt>
      <trkpt lat="40.89809" lon="0.79753">
        <ele>56.2</ele>
        <time>2022-05-25 01:00:05</time>
      </trkpt>
      <trkpt lat="40.89812" lon="0.7976">
        <ele>56.2</ele>
        <time>2022-05-25 01:00:06</time>
      </trkpt>
      <trkpt lat="40.89816" lon="0.79766">
        <ele>56.2</ele>
        <time>2022-05-25 01:00:07</time>
      </trkpt>
      <trkpt lat="40.89819" lon="0.79773">
        <ele>56.2</ele>
        <time>2022-05-25 01:00:08</time>
      </trkpt>
      <trkpt lat="40.89823" lon="0.7978">
        <ele>56.2</ele>
        <time>2022-05-25 01:00:09</time>
      </trkpt>
      <trkpt lat="40.89826" lon="0.79786">
        <ele>56.2</ele>
        <time>2022-05-25 01:00:10</time>
      </trkpt>
      <trkpt lat="40.8983" lon="0.79793">
        <ele>56.2</ele>
        <time>2022-05-25 01:00:11</time>
      </trkpt>
      <trkpt lat="40.89833" lon="0.79799">
        <ele>56.2</ele>
        <time>2022-05-25 01:00:12</time>
      </trkpt>
      <trkpt lat="40.89837" lon="0.79806">
        <ele>56.2</ele>
        <time>2022-05-25 01:00:13</time>
      </trkpt>
      <trkpt lat="40.89841" lon="0.79812">
        <ele>56</ele>
        <time>2022-05-25 01:00:14</time>
      </trkpt>
      <trkpt lat="40.89844" lon="0.79818">
        <ele>56</ele>
        <time>2022-05-25 01:00:15</time>
      </trkpt>
      <trkpt lat="40.89849" lon="0.79826">
        <ele>56.2</ele>
        <time>2022-05-25 01:00:16</time>
      </trkpt>
      <trkpt lat="40.89853" lon="0.79832">
        <ele>56</ele>
        <time>2022-05-25 01:00:17</time>
      </trkpt>
      <trkpt lat="40.89856" lon="0.79839">
        <ele>56</ele>
        <time>2022-05-25 01:00:18</time>
      </trkpt>
      <trkpt lat="40.8986" lon="0.79845">
        <ele>55.8</ele>
        <time>2022-05-25 01:00:19</time>
      </trkpt>
      <trkpt lat="40.89864" lon="0.79852">
        <ele>55.8</ele>
        <time>2022-05-25 01:00:20</time>
      </trkpt>
      <trkpt lat="40.89867" lon="0.79858">
        <ele>55.6</ele>
        <time>2022-05-25 01:00:21</time>
      </trkpt>
      <trkpt lat="40.89872" lon="0.79865">
        <ele>55.6</ele>
        <time>2022-05-25 01:00:22</time>
      </trkpt>
      <trkpt lat="40.89876" lon="0.79871">
        <ele>55.4</ele>
        <time>2022-05-25 01:00:23</time>
      </trkpt>
      <trkpt lat="40.8988" lon="0.79878">
        <ele>55.4</ele>
        <time>2022-05-25 01:00:24</time>
      </trkpt>
      <trkpt lat="40.89883" lon="0.79885">
        <ele>55.4</ele>
        <time>2022-05-25 01:00:25</time>
      </trkpt>
      <trkpt lat="40.89887" lon="0.79891">
        <ele>55.4</ele>
        <time>2022-05-25 01:00:26</time>
      </trkpt>
      <trkpt lat="40.89891" lon="0.79898">
        <ele>55.4</ele>
        <time>2022-05-25 01:00:27</time>
      </trkpt>
      <trkpt lat="40.89895" lon="0.79905">
        <ele>55.4</ele>
        <time>2022-05-25 01:00:28</time>
      </trkpt>
      <trkpt lat="40.89899" lon="0.79912">
        <ele>55.4</ele>
        <time>2022-05-25 01:00:29</time>
      </trkpt>
      <trkpt lat="40.89903" lon="0.79919">
        <ele>55.2</ele>
        <time>2022-05-25 01:00:30</time>
      </trkpt>
      <trkpt lat="40.89908" lon="0.79925">
        <ele>55</ele>
        <time>2022-05-25 01:00:31</time>
      </trkpt>
      <trkpt lat="40.89912" lon="0.79932">
        <ele>54.8</ele>
        <time>2022-05-25 01:00:32</time>
      </trkpt>
      <trkpt lat="40.89917" lon="0.79939">
        <ele>54.6</ele>
        <time>2022-05-25 01:00:33</time>
      </trkpt>
      <trkpt lat="40.8992" lon="0.79946">
        <ele>54.6</ele>
        <time>2022-05-25 01:00:34</time>
      </trkpt>
      <trkpt lat="40.89925" lon="0.79953">
        <ele>54.6</ele>
        <time>2022-05-25 01:00:35</time>
      </trkpt>
      <trkpt lat="40.89929" lon="0.7996">
        <ele>54.4</ele>
        <time>2022-05-25 01:00:36</time>
      </trkpt>
      <trkpt lat="40.89933" lon="0.79967">
        <ele>54.4</ele>
        <time>2022-05-25 01:00:37</time>
      </trkpt>
      <trkpt lat="40.89938" lon="0.79974">
        <ele>54.2</ele>
        <time>2022-05-25 01:00:38</time>
      </trkpt>
      <trkpt lat="40.89943" lon="0.79982">
        <ele>54.2</ele>
        <time>2022-05-25 01:00:39</time>
      </trkpt>
      <trkpt lat="40.89947" lon="0.79989">
        <ele>54</ele>
        <time>2022-05-25 01:00:40</time>
      </trkpt>
      <trkpt lat="40.89952" lon="0.79997">
        <ele>53.8</ele>
        <time>2022-05-25 01:00:41</time>
      </trkpt>
      <trkpt lat="40.89956" lon="0.80004">
        <ele>53.6</ele>
        <time>2022-05-25 01:00:42</time>
      </trkpt>
      <trkpt lat="40.89961" lon="0.80011">
        <ele>53.6</ele>
        <time>2022-05-25 01:00:43</time>
      </trkpt>
      <trkpt lat="40.89965" lon="0.80018">
        <ele>53.4</ele>
        <time>2022-05-25 01:00:44</time>
      </trkpt>
      <trkpt lat="40.8997" lon="0.80025">
        <ele>53.2</ele>
        <time>2022-05-25 01:00:45</time>
      </trkpt>
      <trkpt lat="40.89975" lon="0.80032">
        <ele>53.2</ele>
        <time>2022-05-25 01:00:46</time>
      </trkpt>
      <trkpt lat="40.8998" lon="0.80039">
        <ele>53</ele>
        <time>2022-05-25 01:00:47</time>
      </trkpt>
      <trkpt lat="40.89985" lon="0.80046">
        <ele>53</ele>
        <time>2022-05-25 01:00:48</time>
      </trkpt>
      <trkpt lat="40.89989" lon="0.80053">
        <ele>52.8</ele>
        <time>2022-05-25 01:00:49</time>
      </trkpt>
      <trkpt lat="40.89993" lon="0.8006">
        <ele>52.8</ele>
        <time>2022-05-25 01:00:50</time>
      </trkpt>
      <trkpt lat="40.89999" lon="0.80068">
        <ele>52.6</ele>
        <time>2022-05-25 01:00:51</time>
      </trkpt>
      <trkpt lat="40.90003" lon="0.80075">
        <ele>52.2</ele>
        <time>2022-05-25 01:00:52</time>
      </trkpt>
      <trkpt lat="40.90008" lon="0.80082">
        <ele>52.2</ele>
        <time>2022-05-25 01:00:53</time>
      </trkpt>
      <trkpt lat="40.90013" lon="0.8009">
        <ele>52</ele>
        <time>2022-05-25 01:00:54</time>
      </trkpt>
      <trkpt lat="40.90017" lon="0.80097">
        <ele>51.8</ele>
        <time>2022-05-25 01:00:55</time>
      </trkpt>
      <trkpt lat="40.90022" lon="0.80104">
        <ele>51.8</ele>
        <time>2022-05-25 01:00:56</time>
      </trkpt>
      <trkpt lat="40.90027" lon="0.80111">
        <ele>51.6</ele>
        <time>2022-05-25 01:00:57</time>
      </trkpt>
      <trkpt lat="40.90031" lon="0.80118">
        <ele>51.6</ele>
        <time>2022-05-25 01:00:58</time>
      </trkpt>
      <trkpt lat="40.90036" lon="0.80125">
        <ele>51.6</ele>
        <time>2022-05-25 01:00:59</time>
      </trkpt>
      <trkpt lat="40.90041" lon="0.80132">
        <ele>51.2</ele>
        <time>2022-05-25 01:01:00</time>
      </trkpt>
      <trkpt lat="40.90046" lon="0.80139">
        <ele>51</ele>
        <time>2022-05-25 01:01:01</time>
      </trkpt>
      <trkpt lat="40.90052" lon="0.80146">
        <ele>50.8</ele>
        <time>2022-05-25 01:01:02</time>
      </trkpt>
      <trkpt lat="40.90057" lon="0.80153">
        <ele>50.4</ele>
        <time>2022-05-25 01:01:03</time>
      </trkpt>
      <trkpt lat="40.90062" lon="0.8016">
        <ele>50.2</ele>
        <time>2022-05-25 01:01:04</time>
      </trkpt>
      <trkpt lat="40.90067" lon="0.80167">
        <ele>50</ele>
        <time>2022-05-25 01:01:05</time>
      </trkpt>
      <trkpt lat="40.90072" lon="0.80174">
        <ele>49.8</ele>
        <time>2022-05-25 01:01:06</time>
      </trkpt>
      <trkpt lat="40.90078" lon="0.80183">
        <ele>49.8</ele>
        <time>2022-05-25 01:01:07</time>
      </trkpt>
      <trkpt lat="40.90083" lon="0.8019">
        <ele>49.8</ele>
        <time>2022-05-25 01:01:08</time>
      </trkpt>
      <trkpt lat="40.90088" lon="0.80197">
        <ele>49.8</ele>
        <time>2022-05-25 01:01:09</time>
      </trkpt>
      <trkpt lat="40.90093" lon="0.80204">
        <ele>49.8</ele>
        <time>2022-05-25 01:01:10</time>
      </trkpt>
      <trkpt lat="40.90098" lon="0.8021">
        <ele>49.8</ele>
        <time>2022-05-25 01:01:11</time>
      </trkpt>
      <trkpt lat="40.90103" lon="0.80216">
        <ele>49.8</ele>
        <time>2022-05-25 01:01:12</time>
      </trkpt>
      <trkpt lat="40.90108" lon="0.80223">
        <ele>49.8</ele>
        <time>2022-05-25 01:01:13</time>
      </trkpt>
      <trkpt lat="40.90112" lon="0.8023">
        <ele>49.8</ele>
        <time>2022-05-25 01:01:14</time>
      </trkpt>
      <trkpt lat="40.90117" lon="0.80237">
        <ele>49.8</ele>
        <time>2022-05-25 01:01:15</time>
      </trkpt>
      <trkpt lat="40.90122" lon="0.80244">
        <ele>49.8</ele>
        <time>2022-05-25 01:01:16</time>
      </trkpt>
      <trkpt lat="40.90127" lon="0.80251">
        <ele>49.8</ele>
        <time>2022-05-25 01:01:17</time>
      </trkpt>
      <trkpt lat="40.90132" lon="0.80258">
        <ele>49.8</ele>
        <time>2022-05-25 01:01:18</time>
      </trkpt>
      <trkpt lat="40.90136" lon="0.80265">
        <ele>49.8</ele>
        <time>2022-05-25 01:01:19</time>
      </trkpt>
      <trkpt lat="40.90141" lon="0.80271">
        <ele>49.8</ele>
        <time>2022-05-25 01:01:20</time>
      </trkpt>
      <trkpt lat="40.90146" lon="0.80277">
        <ele>49.8</ele>
        <time>2022-05-25 01:01:21</time>
      </trkpt>
      <trkpt lat="40.90151" lon="0.80283">
        <ele>49.8</ele>
        <time>2022-05-25 01:01:22</time>
      </trkpt>
      <trkpt lat="40.90155" lon="0.80288">
        <ele>49.6</ele>
        <time>2022-05-25 01:01:23</time>
      </trkpt>
      <trkpt lat="40.90159" lon="0.80294">
        <ele>49.8</ele>
        <time>2022-05-25 01:01:24</time>
      </trkpt>
      <trkpt lat="40.90163" lon="0.803">
        <ele>49.8</ele>
        <time>2022-05-25 01:01:25</time>
      </trkpt>
      <trkpt lat="40.90168" lon="0.80306">
        <ele>49.4</ele>
        <time>2022-05-25 01:01:26</time>
      </trkpt>
      <trkpt lat="40.90172" lon="0.80311">
        <ele>49.2</ele>
        <time>2022-05-25 01:01:27</time>
      </trkpt>
      <trkpt lat="40.90177" lon="0.80318">
        <ele>49.2</ele>
        <time>2022-05-25 01:01:28</time>
      </trkpt>
      <trkpt lat="40.90182" lon="0.80324">
        <ele>49.2</ele>
        <time>2022-05-25 01:01:29</time>
      </trkpt>
      <trkpt lat="40.90186" lon="0.8033">
        <ele>49</ele>
        <time>2022-05-25 01:01:30</time>
      </trkpt>
      <trkpt lat="40.90191" lon="0.80335">
        <ele>49</ele>
        <time>2022-05-25 01:01:31</time>
      </trkpt>
      <trkpt lat="40.90195" lon="0.80341">
        <ele>48.8</ele>
        <time>2022-05-25 01:01:32</time>
      </trkpt>
      <trkpt lat="40.902" lon="0.80348">
        <ele>48.8</ele>
        <time>2022-05-25 01:01:33</time>
      </trkpt>
      <trkpt lat="40.90205" lon="0.80354">
        <ele>49</ele>
        <time>2022-05-25 01:01:34</time>
      </trkpt>
      <trkpt lat="40.90209" lon="0.8036">
        <ele>48.8</ele>
        <time>2022-05-25 01:01:35</time>
      </trkpt>
      <trkpt lat="40.90213" lon="0.80365">
        <ele>48.8</ele>
        <time>2022-05-25 01:01:36</time>
      </trkpt>
      <trkpt lat="40.90218" lon="0.8037">
        <ele>48.8</ele>
        <time>2022-05-25 01:01:37</time>
      </trkpt>
      <trkpt lat="40.90221" lon="0.80376">
        <ele>48.8</ele>
        <time>2022-05-25 01:01:38</time>
      </trkpt>
      <trkpt lat="40.90226" lon="0.80381">
        <ele>48.6</ele>
        <time>2022-05-25 01:01:39</time>
      </trkpt>
      <trkpt lat="40.9023" lon="0.80386">
        <ele>48.4</ele>
        <time>2022-05-25 01:01:40</time>
      </trkpt>
      <trkpt lat="40.90234" lon="0.80391">
        <ele>48.4</ele>
        <time>2022-05-25 01:01:41</time>
      </trkpt>
      <trkpt lat="40.90239" lon="0.80397">
        <ele>48.2</ele>
        <time>2022-05-25 01:01:42</time>
      </trkpt>
      <trkpt lat="40.90243" lon="0.80403">
        <ele>48.2</ele>
        <time>2022-05-25 01:01:43</time>
      </trkpt>
      <trkpt lat="40.90248" lon="0.80409">
        <ele>48.2</ele>
        <time>2022-05-25 01:01:44</time>
      </trkpt>
      <trkpt lat="40.90252" lon="0.80414">
        <ele>48.2</ele>
        <time>2022-05-25 01:01:45</time>
      </trkpt>
      <trkpt lat="40.90257" lon="0.8042">
        <ele>48.4</ele>
        <time>2022-05-25 01:01:46</time>
      </trkpt>
      <trkpt lat="40.90261" lon="0.80425">
        <ele>48.6</ele>
        <time>2022-05-25 01:01:47</time>
      </trkpt>
      <trkpt lat="40.90266" lon="0.80431">
        <ele>48.6</ele>
        <time>2022-05-25 01:01:48</time>
      </trkpt>
      <trkpt lat="40.9027" lon="0.80436">
        <ele>48.6</ele>
        <time>2022-05-25 01:01:49</time>
      </trkpt>
      <trkpt lat="40.90274" lon="0.80441">
        <ele>48.6</ele>
        <time>2022-05-25 01:01:50</time>
      </trkpt>
      <trkpt lat="40.90279" lon="0.80446">
        <ele>48.4</ele>
        <time>2022-05-25 01:01:51</time>
      </trkpt>
      <trkpt lat="40.90283" lon="0.80452">
        <ele>48.4</ele>
        <time>2022-05-25 01:01:52</time>
      </trkpt>
      <trkpt lat="40.90287" lon="0.80457">
        <ele>48.4</ele>
        <time>2022-05-25 01:01:53</time>
      </trkpt>
      <trkpt lat="40.90292" lon="0.80463">
        <ele>48.4</ele>
        <time>2022-05-25 01:01:54</time>
      </trkpt>
      <trkpt lat="40.90296" lon="0.80468">
        <ele>48.4</ele>
        <time>2022-05-25 01:01:55</time>
      </trkpt>
      <trkpt lat="40.90301" lon="0.80474">
        <ele>48.2</ele>
        <time>2022-05-25 01:01:56</time>
      </trkpt>
      <trkpt lat="40.90306" lon="0.80479">
        <ele>48.4</ele>
        <time>2022-05-25 01:01:57</time>
      </trkpt>
      <trkpt lat="40.9031" lon="0.80484">
        <ele>48.4</ele>
        <time>2022-05-25 01:01:58</time>
      </trkpt>
      <trkpt lat="40.90315" lon="0.80489">
        <ele>48.4</ele>
        <time>2022-05-25 01:01:59</time>
      </trkpt>
      <trkpt lat="40.90319" lon="0.80494">
        <ele>48.4</ele>
        <time>2022-05-25 01:02:00</time>
      </trkpt>
      <trkpt lat="40.90324" lon="0.80501">
        <ele>48.4</ele>
        <time>2022-05-25 01:02:01</time>
      </trkpt>
      <trkpt lat="40.90329" lon="0.80507">
        <ele>48.4</ele>
        <time>2022-05-25 01:02:02</time>
      </trkpt>
      <trkpt lat="40.90334" lon="0.80512">
        <ele>48.2</ele>
        <time>2022-05-25 01:02:03</time>
      </trkpt>
      <trkpt lat="40.90339" lon="0.80518">
        <ele>48.2</ele>
        <time>2022-05-25 01:02:04</time>
      </trkpt>
      <trkpt lat="40.90343" lon="0.80523">
        <ele>48.2</ele>
        <time>2022-05-25 01:02:05</time>
      </trkpt>
      <trkpt lat="40.90348" lon="0.80529">
        <ele>48</ele>
        <time>2022-05-25 01:02:06</time>
      </trkpt>
      <trkpt lat="40.90353" lon="0.80535">
        <ele>48</ele>
        <time>2022-05-25 01:02:07</time>
      </trkpt>
      <trkpt lat="40.90357" lon="0.8054">
        <ele>48</ele>
        <time>2022-05-25 01:02:08</time>
      </trkpt>
      <trkpt lat="40.90362" lon="0.80546">
        <ele>48</ele>
        <time>2022-05-25 01:02:09</time>
      </trkpt>
      <trkpt lat="40.90367" lon="0.80552">
        <ele>48</ele>
        <time>2022-05-25 01:02:10</time>
      </trkpt>
      <trkpt lat="40.90372" lon="0.80557">
        <ele>48</ele>
        <time>2022-05-25 01:02:11</time>
      </trkpt>
      <trkpt lat="40.90377" lon="0.80563">
        <ele>48</ele>
        <time>2022-05-25 01:02:12</time>
      </trkpt>
      <trkpt lat="40.90382" lon="0.80568">
        <ele>47.8</ele>
        <time>2022-05-25 01:02:13</time>
      </trkpt>
      <trkpt lat="40.90387" lon="0.80574">
        <ele>47.8</ele>
        <time>2022-05-25 01:02:14</time>
      </trkpt>
      <trkpt lat="40.90392" lon="0.80579">
        <ele>47.8</ele>
        <time>2022-05-25 01:02:15</time>
      </trkpt>
      <trkpt lat="40.90398" lon="0.80585">
        <ele>47.8</ele>
        <time>2022-05-25 01:02:16</time>
      </trkpt>
      <trkpt lat="40.90402" lon="0.8059">
        <ele>48</ele>
        <time>2022-05-25 01:02:17</time>
      </trkpt>
      <trkpt lat="40.90407" lon="0.80595">
        <ele>48</ele>
        <time>2022-05-25 01:02:18</time>
      </trkpt>
      <trkpt lat="40.90413" lon="0.80601">
        <ele>48</ele>
        <time>2022-05-25 01:02:19</time>
      </trkpt>
      <trkpt lat="40.90418" lon="0.80606">
        <ele>48</ele>
        <time>2022-05-25 01:02:20</time>
      </trkpt>
      <trkpt lat="40.90423" lon="0.80612">
        <ele>48</ele>
        <time>2022-05-25 01:02:21</time>
      </trkpt>
      <trkpt lat="40.90428" lon="0.80618">
        <ele>48</ele>
        <time>2022-05-25 01:02:22</time>
      </trkpt>
      <trkpt lat="40.90433" lon="0.80623">
        <ele>47.8</ele>
        <time>2022-05-25 01:02:23</time>
      </trkpt>
      <trkpt lat="40.90438" lon="0.80629">
        <ele>47.6</ele>
        <time>2022-05-25 01:02:24</time>
      </trkpt>
      <trkpt lat="40.90443" lon="0.80634">
        <ele>47.2</ele>
        <time>2022-05-25 01:02:25</time>
      </trkpt>
      <trkpt lat="40.90448" lon="0.8064">
        <ele>47</ele>
        <time>2022-05-25 01:02:26</time>
      </trkpt>
      <trkpt lat="40.90454" lon="0.80645">
        <ele>47.2</ele>
        <time>2022-05-25 01:02:27</time>
      </trkpt>
      <trkpt lat="40.90459" lon="0.8065">
        <ele>47.4</ele>
        <time>2022-05-25 01:02:28</time>
      </trkpt>
      <trkpt lat="40.90464" lon="0.80656">
        <ele>47.4</ele>
        <time>2022-05-25 01:02:29</time>
      </trkpt>
      <trkpt lat="40.90469" lon="0.80661">
        <ele>47.6</ele>
        <time>2022-05-25 01:02:30</time>
      </trkpt>
      <trkpt lat="40.90474" lon="0.80667">
        <ele>47.8</ele>
        <time>2022-05-25 01:02:31</time>
      </trkpt>
      <trkpt lat="40.90479" lon="0.80673">
        <ele>47.6</ele>
        <time>2022-05-25 01:02:32</time>
      </trkpt>
      <trkpt lat="40.90485" lon="0.80678">
        <ele>47.6</ele>
        <time>2022-05-25 01:02:33</time>
      </trkpt>
      <trkpt lat="40.9049" lon="0.80684">
        <ele>47.8</ele>
        <time>2022-05-25 01:02:34</time>
      </trkpt>
      <trkpt lat="40.90495" lon="0.8069">
        <ele>48</ele>
        <time>2022-05-25 01:02:35</time>
      </trkpt>
      <trkpt lat="40.905" lon="0.80695">
        <ele>48</ele>
        <time>2022-05-25 01:02:36</time>
      </trkpt>
      <trkpt lat="40.90505" lon="0.807">
        <ele>48</ele>
        <time>2022-05-25 01:02:37</time>
      </trkpt>
      <trkpt lat="40.9051" lon="0.80706">
        <ele>48</ele>
        <time>2022-05-25 01:02:38</time>
      </trkpt>
      <trkpt lat="40.90516" lon="0.80712">
        <ele>48.2</ele>
        <time>2022-05-25 01:02:39</time>
      </trkpt>
      <trkpt lat="40.9052" lon="0.80717">
        <ele>48</ele>
        <time>2022-05-25 01:02:40</time>
      </trkpt>
      <trkpt lat="40.90525" lon="0.80723">
        <ele>48</ele>
        <time>2022-05-25 01:02:41</time>
      </trkpt>
      <trkpt lat="40.9053" lon="0.80728">
        <ele>48</ele>
        <time>2022-05-25 01:02:42</time>
      </trkpt>
      <trkpt lat="40.90535" lon="0.80733">
        <ele>48</ele>
        <time>2022-05-25 01:02:43</time>
      </trkpt>
      <trkpt lat="40.9054" lon="0.80738">
        <ele>48</ele>
        <time>2022-05-25 01:02:44</time>
      </trkpt>
      <trkpt lat="40.90545" lon="0.80743">
        <ele>48</ele>
        <time>2022-05-25 01:02:45</time>
      </trkpt>
      <trkpt lat="40.9055" lon="0.80748">
        <ele>48.2</ele>
        <time>2022-05-25 01:02:46</time>
      </trkpt>
      <trkpt lat="40.90555" lon="0.80753">
        <ele>48.4</ele>
        <time>2022-05-25 01:02:47</time>
      </trkpt>
      <trkpt lat="40.9056" lon="0.80758">
        <ele>48.4</ele>
        <time>2022-05-25 01:02:48</time>
      </trkpt>
      <trkpt lat="40.90565" lon="0.80763">
        <ele>48.4</ele>
        <time>2022-05-25 01:02:49</time>
      </trkpt>
      <trkpt lat="40.9057" lon="0.80767">
        <ele>48.6</ele>
        <time>2022-05-25 01:02:50</time>
      </trkpt>
      <trkpt lat="40.90574" lon="0.80772">
        <ele>48.8</ele>
        <time>2022-05-25 01:02:51</time>
      </trkpt>
      <trkpt lat="40.90579" lon="0.80777">
        <ele>48.8</ele>
        <time>2022-05-25 01:02:52</time>
      </trkpt>
      <trkpt lat="40.90583" lon="0.80781">
        <ele>48.8</ele>
        <time>2022-05-25 01:02:53</time>
      </trkpt>
      <trkpt lat="40.90588" lon="0.80786">
        <ele>48.8</ele>
        <time>2022-05-25 01:02:54</time>
      </trkpt>
      <trkpt lat="40.90593" lon="0.8079">
        <ele>48.8</ele>
        <time>2022-05-25 01:02:55</time>
      </trkpt>
      <trkpt lat="40.90598" lon="0.80794">
        <ele>49</ele>
        <time>2022-05-25 01:02:56</time>
      </trkpt>
      <trkpt lat="40.90602" lon="0.80799">
        <ele>49</ele>
        <time>2022-05-25 01:02:57</time>
      </trkpt>
      <trkpt lat="40.90607" lon="0.80803">
        <ele>48.8</ele>
        <time>2022-05-25 01:02:58</time>
      </trkpt>
      <trkpt lat="40.90611" lon="0.80807">
        <ele>48.8</ele>
        <time>2022-05-25 01:02:59</time>
      </trkpt>
      <trkpt lat="40.90615" lon="0.80811">
        <ele>48.8</ele>
        <time>2022-05-25 01:03:00</time>
      </trkpt>
      <trkpt lat="40.9062" lon="0.80816">
        <ele>48.8</ele>
        <time>2022-05-25 01:03:01</time>
      </trkpt>
      <trkpt lat="40.90625" lon="0.8082">
        <ele>48.8</ele>
        <time>2022-05-25 01:03:02</time>
      </trkpt>
      <trkpt lat="40.90629" lon="0.80824">
        <ele>48.6</ele>
        <time>2022-05-25 01:03:03</time>
      </trkpt>
      <trkpt lat="40.90634" lon="0.80828">
        <ele>48.6</ele>
        <time>2022-05-25 01:03:04</time>
      </trkpt>
      <trkpt lat="40.90639" lon="0.80832">
        <ele>48.6</ele>
        <time>2022-05-25 01:03:05</time>
      </trkpt>
      <trkpt lat="40.90643" lon="0.80837">
        <ele>48.6</ele>
        <time>2022-05-25 01:03:06</time>
      </trkpt>
      <trkpt lat="40.90648" lon="0.80841">
        <ele>48.6</ele>
        <time>2022-05-25 01:03:07</time>
      </trkpt>
      <trkpt lat="40.90652" lon="0.80846">
        <ele>48.4</ele>
        <time>2022-05-25 01:03:08</time>
      </trkpt>
      <trkpt lat="40.90657" lon="0.8085">
        <ele>48.4</ele>
        <time>2022-05-25 01:03:09</time>
      </trkpt>
      <trkpt lat="40.90661" lon="0.80855">
        <ele>48.2</ele>
        <time>2022-05-25 01:03:10</time>
      </trkpt>
      <trkpt lat="40.90666" lon="0.80859">
        <ele>48</ele>
        <time>2022-05-25 01:03:11</time>
      </trkpt>
      <trkpt lat="40.9067" lon="0.80863">
        <ele>48</ele>
        <time>2022-05-25 01:03:12</time>
      </trkpt>
      <trkpt lat="40.90675" lon="0.80867">
        <ele>48</ele>
        <time>2022-05-25 01:03:13</time>
      </trkpt>
      <trkpt lat="40.90679" lon="0.8087">
        <ele>48</ele>
        <time>2022-05-25 01:03:14</time>
      </trkpt>
      <trkpt lat="40.90683" lon="0.80874">
        <ele>48</ele>
        <time>2022-05-25 01:03:15</time>
      </trkpt>
      <trkpt lat="40.90687" lon="0.80877">
        <ele>48.2</ele>
        <time>2022-05-25 01:03:16</time>
      </trkpt>
      <trkpt lat="40.90691" lon="0.8088">
        <ele>48.2</ele>
        <time>2022-05-25 01:03:17</time>
      </trkpt>
      <trkpt lat="40.90695" lon="0.80884">
        <ele>48.2</ele>
        <time>2022-05-25 01:03:18</time>
      </trkpt>
      <trkpt lat="40.90699" lon="0.80887">
        <ele>48.2</ele>
        <time>2022-05-25 01:03:19</time>
      </trkpt>
      <trkpt lat="40.90703" lon="0.80891">
        <ele>48.4</ele>
        <time>2022-05-25 01:03:20</time>
      </trkpt>
      <trkpt lat="40.90707" lon="0.80895">
        <ele>48.4</ele>
        <time>2022-05-25 01:03:21</time>
      </trkpt>
      <trkpt lat="40.90712" lon="0.80899">
        <ele>48.6</ele>
        <time>2022-05-25 01:03:22</time>
      </trkpt>
      <trkpt lat="40.90716" lon="0.80902">
        <ele>48.6</ele>
        <time>2022-05-25 01:03:23</time>
      </trkpt>
      <trkpt lat="40.9072" lon="0.80906">
        <ele>48.8</ele>
        <time>2022-05-25 01:03:24</time>
      </trkpt>
      <trkpt lat="40.90725" lon="0.8091">
        <ele>48.8</ele>
        <time>2022-05-25 01:03:25</time>
      </trkpt>
      <trkpt lat="40.9073" lon="0.80913">
        <ele>49</ele>
        <time>2022-05-25 01:03:26</time>
      </trkpt>
      <trkpt lat="40.90734" lon="0.80917">
        <ele>49</ele>
        <time>2022-05-25 01:03:27</time>
      </trkpt>
      <trkpt lat="40.90739" lon="0.80921">
        <ele>49.2</ele>
        <time>2022-05-25 01:03:28</time>
      </trkpt>
      <trkpt lat="40.90743" lon="0.80924">
        <ele>49.4</ele>
        <time>2022-05-25 01:03:29</time>
      </trkpt>
      <trkpt lat="40.90748" lon="0.80928">
        <ele>49.4</ele>
        <time>2022-05-25 01:03:30</time>
      </trkpt>
      <trkpt lat="40.90752" lon="0.80932">
        <ele>49.4</ele>
        <time>2022-05-25 01:03:31</time>
      </trkpt>
      <trkpt lat="40.90756" lon="0.80936">
        <ele>49.6</ele>
        <time>2022-05-25 01:03:32</time>
      </trkpt>
      <trkpt lat="40.9076" lon="0.80939">
        <ele>49.6</ele>
        <time>2022-05-25 01:03:33</time>
      </trkpt>
      <trkpt lat="40.90765" lon="0.80943">
        <ele>49.6</ele>
        <time>2022-05-25 01:03:34</time>
      </trkpt>
      <trkpt lat="40.90769" lon="0.80947">
        <ele>49.6</ele>
        <time>2022-05-25 01:03:35</time>
      </trkpt>
      <trkpt lat="40.90773" lon="0.8095">
        <ele>49.6</ele>
        <time>2022-05-25 01:03:36</time>
      </trkpt>
      <trkpt lat="40.90778" lon="0.80954">
        <ele>49.8</ele>
        <time>2022-05-25 01:03:37</time>
      </trkpt>
      <trkpt lat="40.90783" lon="0.80957">
        <ele>50</ele>
        <time>2022-05-25 01:03:38</time>
      </trkpt>
      <trkpt lat="40.90787" lon="0.80961">
        <ele>50</ele>
        <time>2022-05-25 01:03:39</time>
      </trkpt>
      <trkpt lat="40.90791" lon="0.80964">
        <ele>50.2</ele>
        <time>2022-05-25 01:03:40</time>
      </trkpt>
      <trkpt lat="40.90796" lon="0.80967">
        <ele>50.2</ele>
        <time>2022-05-25 01:03:41</time>
      </trkpt>
      <trkpt lat="40.908" lon="0.80971">
        <ele>50.2</ele>
        <time>2022-05-25 01:03:42</time>
      </trkpt>
      <trkpt lat="40.90804" lon="0.80974">
        <ele>50.4</ele>
        <time>2022-05-25 01:03:43</time>
      </trkpt>
      <trkpt lat="40.90808" lon="0.80978">
        <ele>50.4</ele>
        <time>2022-05-25 01:03:44</time>
      </trkpt>
      <trkpt lat="40.90812" lon="0.80981">
        <ele>50.6</ele>
        <time>2022-05-25 01:03:45</time>
      </trkpt>
      <trkpt lat="40.90817" lon="0.80984">
        <ele>50.6</ele>
        <time>2022-05-25 01:03:46</time>
      </trkpt>
      <trkpt lat="40.90821" lon="0.80988">
        <ele>50.8</ele>
        <time>2022-05-25 01:03:47</time>
      </trkpt>
      <trkpt lat="40.90825" lon="0.80991">
        <ele>50.8</ele>
        <time>2022-05-25 01:03:48</time>
      </trkpt>
      <trkpt lat="40.90829" lon="0.80994">
        <ele>51</ele>
        <time>2022-05-25 01:03:49</time>
      </trkpt>
      <trkpt lat="40.90834" lon="0.80997">
        <ele>51</ele>
        <time>2022-05-25 01:03:50</time>
      </trkpt>
      <trkpt lat="40.90838" lon="0.81001">
        <ele>51.2</ele>
        <time>2022-05-25 01:03:51</time>
      </trkpt>
      <trkpt lat="40.90842" lon="0.81004">
        <ele>51.2</ele>
        <time>2022-05-25 01:03:52</time>
      </trkpt>
      <trkpt lat="40.90846" lon="0.81007">
        <ele>51.2</ele>
        <time>2022-05-25 01:03:53</time>
      </trkpt>
      <trkpt lat="40.9085" lon="0.8101">
        <ele>51.2</ele>
        <time>2022-05-25 01:03:54</time>
      </trkpt>
      <trkpt lat="40.90854" lon="0.81014">
        <ele>51.2</ele>
        <time>2022-05-25 01:03:55</time>
      </trkpt>
      <trkpt lat="40.90858" lon="0.81017">
        <ele>51.4</ele>
        <time>2022-05-25 01:03:56</time>
      </trkpt>
      <trkpt lat="40.90862" lon="0.8102">
        <ele>51.4</ele>
        <time>2022-05-25 01:03:57</time>
      </trkpt>
      <trkpt lat="40.90866" lon="0.81024">
        <ele>51.4</ele>
        <time>2022-05-25 01:03:58</time>
      </trkpt>
      <trkpt lat="40.9087" lon="0.81027">
        <ele>51.4</ele>
        <time>2022-05-25 01:03:59</time>
      </trkpt>
      <trkpt lat="40.90874" lon="0.8103">
        <ele>51.4</ele>
        <time>2022-05-25 01:04:00</time>
      </trkpt>
      <trkpt lat="40.90878" lon="0.81033">
        <ele>51.4</ele>
        <time>2022-05-25 01:04:01</time>
      </trkpt>
      <trkpt lat="40.90882" lon="0.81036">
        <ele>51.4</ele>
        <time>2022-05-25 01:04:02</time>
      </trkpt>
      <trkpt lat="40.90886" lon="0.8104">
        <ele>51.4</ele>
        <time>2022-05-25 01:04:03</time>
      </trkpt>
      <trkpt lat="40.9089" lon="0.81043">
        <ele>51.6</ele>
        <time>2022-05-25 01:04:04</time>
      </trkpt>
      <trkpt lat="40.90893" lon="0.81047">
        <ele>51.8</ele>
        <time>2022-05-25 01:04:05</time>
      </trkpt>
      <trkpt lat="40.90897" lon="0.8105">
        <ele>52</ele>
        <time>2022-05-25 01:04:06</time>
      </trkpt>
      <trkpt lat="40.909" lon="0.81053">
        <ele>52</ele>
        <time>2022-05-25 01:04:07</time>
      </trkpt>
      <trkpt lat="40.90904" lon="0.81056">
        <ele>52</ele>
        <time>2022-05-25 01:04:08</time>
      </trkpt>
      <trkpt lat="40.90908" lon="0.81058">
        <ele>52</ele>
        <time>2022-05-25 01:04:09</time>
      </trkpt>
      <trkpt lat="40.90912" lon="0.81061">
        <ele>52.2</ele>
        <time>2022-05-25 01:04:10</time>
      </trkpt>
      <trkpt lat="40.90916" lon="0.81064">
        <ele>52.2</ele>
        <time>2022-05-25 01:04:11</time>
      </trkpt>
      <trkpt lat="40.90919" lon="0.81067">
        <ele>52.2</ele>
        <time>2022-05-25 01:04:12</time>
      </trkpt>
      <trkpt lat="40.90923" lon="0.8107">
        <ele>52.4</ele>
        <time>2022-05-25 01:04:13</time>
      </trkpt>
      <trkpt lat="40.90927" lon="0.81074">
        <ele>52.4</ele>
        <time>2022-05-25 01:04:14</time>
      </trkpt>
      <trkpt lat="40.90931" lon="0.81076">
        <ele>52.4</ele>
        <time>2022-05-25 01:04:15</time>
      </trkpt>
      <trkpt lat="40.90935" lon="0.81079">
        <ele>52.4</ele>
        <time>2022-05-25 01:04:16</time>
      </trkpt>
      <trkpt lat="40.90938" lon="0.81082">
        <ele>52.6</ele>
        <time>2022-05-25 01:04:17</time>
      </trkpt>
      <trkpt lat="40.90942" lon="0.81084">
        <ele>52.6</ele>
        <time>2022-05-25 01:04:18</time>
      </trkpt>
      <trkpt lat="40.90946" lon="0.81088">
        <ele>52.6</ele>
        <time>2022-05-25 01:04:19</time>
      </trkpt>
      <trkpt lat="40.9095" lon="0.8109">
        <ele>52.6</ele>
        <time>2022-05-25 01:04:20</time>
      </trkpt>
      <trkpt lat="40.90954" lon="0.81093">
        <ele>52.8</ele>
        <time>2022-05-25 01:04:21</time>
      </trkpt>
      <trkpt lat="40.90958" lon="0.81095">
        <ele>52.8</ele>
        <time>2022-05-25 01:04:22</time>
      </trkpt>
      <trkpt lat="40.90961" lon="0.81098">
        <ele>52.8</ele>
        <time>2022-05-25 01:04:23</time>
      </trkpt>
      <trkpt lat="40.90965" lon="0.811">
        <ele>53</ele>
        <time>2022-05-25 01:04:24</time>
      </trkpt>
      <trkpt lat="40.90969" lon="0.81103">
        <ele>53.2</ele>
        <time>2022-05-25 01:04:25</time>
      </trkpt>
      <trkpt lat="40.90973" lon="0.81106">
        <ele>53.4</ele>
        <time>2022-05-25 01:04:26</time>
      </trkpt>
      <trkpt lat="40.90976" lon="0.81109">
        <ele>53.6</ele>
        <time>2022-05-25 01:04:27</time>
      </trkpt>
      <trkpt lat="40.9098" lon="0.81112">
        <ele>53.6</ele>
        <time>2022-05-25 01:04:28</time>
      </trkpt>
      <trkpt lat="40.90984" lon="0.81115">
        <ele>53.6</ele>
        <time>2022-05-25 01:04:29</time>
      </trkpt>
      <trkpt lat="40.90987" lon="0.81118">
        <ele>53.4</ele>
        <time>2022-05-25 01:04:30</time>
      </trkpt>
      <trkpt lat="40.90992" lon="0.81121">
        <ele>53.6</ele>
        <time>2022-05-25 01:04:31</time>
      </trkpt>
      <trkpt lat="40.90995" lon="0.81124">
        <ele>53.6</ele>
        <time>2022-05-25 01:04:32</time>
      </trkpt>
      <trkpt lat="40.90999" lon="0.81127">
        <ele>53.4</ele>
        <time>2022-05-25 01:04:33</time>
      </trkpt>
      <trkpt lat="40.91003" lon="0.8113">
        <ele>53.4</ele>
        <time>2022-05-25 01:04:34</time>
      </trkpt>
      <trkpt lat="40.91007" lon="0.81133">
        <ele>53.8</ele>
        <time>2022-05-25 01:04:35</time>
      </trkpt>
      <trkpt lat="40.9101" lon="0.81136">
        <ele>53.8</ele>
        <time>2022-05-25 01:04:36</time>
      </trkpt>
      <trkpt lat="40.91014" lon="0.81139">
        <ele>53.8</ele>
        <time>2022-05-25 01:04:37</time>
      </trkpt>
      <trkpt lat="40.91018" lon="0.81142">
        <ele>53.8</ele>
        <time>2022-05-25 01:04:38</time>
      </trkpt>
      <trkpt lat="40.91021" lon="0.81145">
        <ele>53.8</ele>
        <time>2022-05-25 01:04:39</time>
      </trkpt>
      <trkpt lat="40.91026" lon="0.81148">
        <ele>53.8</ele>
        <time>2022-05-25 01:04:40</time>
      </trkpt>
      <trkpt lat="40.9103" lon="0.81151">
        <ele>53.8</ele>
        <time>2022-05-25 01:04:41</time>
      </trkpt>
      <trkpt lat="40.91033" lon="0.81154">
        <ele>53.8</ele>
        <time>2022-05-25 01:04:42</time>
      </trkpt>
      <trkpt lat="40.91037" lon="0.81158">
        <ele>53.6</ele>
        <time>2022-05-25 01:04:43</time>
      </trkpt>
      <trkpt lat="40.91042" lon="0.81161">
        <ele>53.6</ele>
        <time>2022-05-25 01:04:44</time>
      </trkpt>
      <trkpt lat="40.91045" lon="0.81165">
        <ele>53.6</ele>
        <time>2022-05-25 01:04:45</time>
      </trkpt>
      <trkpt lat="40.9105" lon="0.81168">
        <ele>53.4</ele>
        <time>2022-05-25 01:04:46</time>
      </trkpt>
      <trkpt lat="40.91054" lon="0.81171">
        <ele>53.2</ele>
        <time>2022-05-25 01:04:47</time>
      </trkpt>
      <trkpt lat="40.91058" lon="0.81175">
        <ele>53.2</ele>
        <time>2022-05-25 01:04:48</time>
      </trkpt>
      <trkpt lat="40.91063" lon="0.81179">
        <ele>53.4</ele>
        <time>2022-05-25 01:04:49</time>
      </trkpt>
      <trkpt lat="40.91067" lon="0.81182">
        <ele>53.4</ele>
        <time>2022-05-25 01:04:50</time>
      </trkpt>
      <trkpt lat="40.91071" lon="0.81186">
        <ele>53.4</ele>
        <time>2022-05-25 01:04:51</time>
      </trkpt>
      <trkpt lat="40.91076" lon="0.8119">
        <ele>53.4</ele>
        <time>2022-05-25 01:04:52</time>
      </trkpt>
      <trkpt lat="40.9108" lon="0.81194">
        <ele>53.4</ele>
        <time>2022-05-25 01:04:53</time>
      </trkpt>
      <trkpt lat="40.91085" lon="0.81199">
        <ele>53.2</ele>
        <time>2022-05-25 01:04:54</time>
      </trkpt>
      <trkpt lat="40.9109" lon="0.81203">
        <ele>53.2</ele>
        <time>2022-05-25 01:04:55</time>
      </trkpt>
      <trkpt lat="40.91094" lon="0.81208">
        <ele>53.2</ele>
        <time>2022-05-25 01:04:56</time>
      </trkpt>
      <trkpt lat="40.91099" lon="0.81212">
        <ele>52.8</ele>
        <time>2022-05-25 01:04:57</time>
      </trkpt>
      <trkpt lat="40.91104" lon="0.81216">
        <ele>52.8</ele>
        <time>2022-05-25 01:04:58</time>
      </trkpt>
      <trkpt lat="40.91109" lon="0.8122">
        <ele>52.8</ele>
        <time>2022-05-25 01:04:59</time>
      </trkpt>
      <trkpt lat="40.91114" lon="0.81224">
        <ele>52.8</ele>
        <time>2022-05-25 01:05:00</time>
      </trkpt>
      <trkpt lat="40.91119" lon="0.81229">
        <ele>52.8</ele>
        <time>2022-05-25 01:05:01</time>
      </trkpt>
      <trkpt lat="40.91124" lon="0.81233">
        <ele>53</ele>
        <time>2022-05-25 01:05:02</time>
      </trkpt>
      <trkpt lat="40.91129" lon="0.81237">
        <ele>53</ele>
        <time>2022-05-25 01:05:03</time>
      </trkpt>
      <trkpt lat="40.91135" lon="0.81242">
        <ele>53</ele>
        <time>2022-05-25 01:05:04</time>
      </trkpt>
      <trkpt lat="40.91141" lon="0.81247">
        <ele>53</ele>
        <time>2022-05-25 01:05:05</time>
      </trkpt>
      <trkpt lat="40.91146" lon="0.81251">
        <ele>52.8</ele>
        <time>2022-05-25 01:05:06</time>
      </trkpt>
      <trkpt lat="40.91151" lon="0.81256">
        <ele>52.8</ele>
        <time>2022-05-25 01:05:07</time>
      </trkpt>
      <trkpt lat="40.91157" lon="0.81261">
        <ele>52.8</ele>
        <time>2022-05-25 01:05:08</time>
      </trkpt>
      <trkpt lat="40.91162" lon="0.81265">
        <ele>52.6</ele>
        <time>2022-05-25 01:05:09</time>
      </trkpt>
      <trkpt lat="40.91167" lon="0.8127">
        <ele>52.4</ele>
        <time>2022-05-25 01:05:10</time>
      </trkpt>
      <trkpt lat="40.91173" lon="0.81275">
        <ele>52.2</ele>
        <time>2022-05-25 01:05:11</time>
      </trkpt>
      <trkpt lat="40.91178" lon="0.81279">
        <ele>52</ele>
        <time>2022-05-25 01:05:12</time>
      </trkpt>
      <trkpt lat="40.91183" lon="0.81283">
        <ele>51.8</ele>
        <time>2022-05-25 01:05:13</time>
      </trkpt>
      <trkpt lat="40.91188" lon="0.81288">
        <ele>51.6</ele>
        <time>2022-05-25 01:05:14</time>
      </trkpt>
      <trkpt lat="40.91192" lon="0.81292">
        <ele>51.6</ele>
        <time>2022-05-25 01:05:15</time>
      </trkpt>
      <trkpt lat="40.91197" lon="0.81296">
        <ele>51.4</ele>
        <time>2022-05-25 01:05:16</time>
      </trkpt>
      <trkpt lat="40.91202" lon="0.81301">
        <ele>51.4</ele>
        <time>2022-05-25 01:05:17</time>
      </trkpt>
      <trkpt lat="40.91206" lon="0.81305">
        <ele>51.2</ele>
        <time>2022-05-25 01:05:18</time>
      </trkpt>
      <trkpt lat="40.91211" lon="0.81309">
        <ele>51</ele>
        <time>2022-05-25 01:05:19</time>
      </trkpt>
      <trkpt lat="40.91216" lon="0.81313">
        <ele>50.8</ele>
        <time>2022-05-25 01:05:20</time>
      </trkpt>
      <trkpt lat="40.9122" lon="0.81317">
        <ele>50.6</ele>
        <time>2022-05-25 01:05:21</time>
      </trkpt>
      <trkpt lat="40.91226" lon="0.81322">
        <ele>50.6</ele>
        <time>2022-05-25 01:05:22</time>
      </trkpt>
      <trkpt lat="40.91231" lon="0.81327">
        <ele>50.4</ele>
        <time>2022-05-25 01:05:23</time>
      </trkpt>
      <trkpt lat="40.91236" lon="0.81332">
        <ele>50.2</ele>
        <time>2022-05-25 01:05:24</time>
      </trkpt>
      <trkpt lat="40.91241" lon="0.81336">
        <ele>50.2</ele>
        <time>2022-05-25 01:05:25</time>
      </trkpt>
      <trkpt lat="40.91246" lon="0.81341">
        <ele>50</ele>
        <time>2022-05-25 01:05:26</time>
      </trkpt>
      <trkpt lat="40.91251" lon="0.81345">
        <ele>50.2</ele>
        <time>2022-05-25 01:05:27</time>
      </trkpt>
      <trkpt lat="40.91256" lon="0.8135">
        <ele>50.2</ele>
        <time>2022-05-25 01:05:28</time>
      </trkpt>
      <trkpt lat="40.9126" lon="0.81354">
        <ele>50</ele>
        <time>2022-05-25 01:05:29</time>
      </trkpt>
      <trkpt lat="40.91265" lon="0.81358">
        <ele>50</ele>
        <time>2022-05-25 01:05:30</time>
      </trkpt>
      <trkpt lat="40.9127" lon="0.81362">
        <ele>49.8</ele>
        <time>2022-05-25 01:05:31</time>
      </trkpt>
      <trkpt lat="40.91275" lon="0.81367">
        <ele>49.6</ele>
        <time>2022-05-25 01:05:32</time>
      </trkpt>
      <trkpt lat="40.9128" lon="0.81371">
        <ele>49.4</ele>
        <time>2022-05-25 01:05:33</time>
      </trkpt>
      <trkpt lat="40.91285" lon="0.81376">
        <ele>49.4</ele>
        <time>2022-05-25 01:05:34</time>
      </trkpt>
      <trkpt lat="40.9129" lon="0.8138">
        <ele>49.4</ele>
        <time>2022-05-25 01:05:35</time>
      </trkpt>
      <trkpt lat="40.91294" lon="0.81385">
        <ele>49.2</ele>
        <time>2022-05-25 01:05:36</time>
      </trkpt>
      <trkpt lat="40.91299" lon="0.81389">
        <ele>49.4</ele>
        <time>2022-05-25 01:05:37</time>
      </trkpt>
      <trkpt lat="40.91304" lon="0.81394">
        <ele>49.4</ele>
        <time>2022-05-25 01:05:38</time>
      </trkpt>
      <trkpt lat="40.91308" lon="0.81398">
        <ele>49.4</ele>
        <time>2022-05-25 01:05:39</time>
      </trkpt>
      <trkpt lat="40.91313" lon="0.81403">
        <ele>49.2</ele>
        <time>2022-05-25 01:05:40</time>
      </trkpt>
      <trkpt lat="40.91318" lon="0.81407">
        <ele>49.2</ele>
        <time>2022-05-25 01:05:41</time>
      </trkpt>
      <trkpt lat="40.91322" lon="0.81411">
        <ele>49</ele>
        <time>2022-05-25 01:05:42</time>
      </trkpt>
      <trkpt lat="40.91327" lon="0.81415">
        <ele>48.8</ele>
        <time>2022-05-25 01:05:43</time>
      </trkpt>
      <trkpt lat="40.91331" lon="0.81419">
        <ele>48.8</ele>
        <time>2022-05-25 01:05:44</time>
      </trkpt>
      <trkpt lat="40.91336" lon="0.81423">
        <ele>48.6</ele>
        <time>2022-05-25 01:05:45</time>
      </trkpt>
      <trkpt lat="40.9134" lon="0.81428">
        <ele>48.4</ele>
        <time>2022-05-25 01:05:46</time>
      </trkpt>
      <trkpt lat="40.91344" lon="0.81432">
        <ele>48.2</ele>
        <time>2022-05-25 01:05:47</time>
      </trkpt>
      <trkpt lat="40.91349" lon="0.81437">
        <ele>48</ele>
        <time>2022-05-25 01:05:48</time>
      </trkpt>
      <trkpt lat="40.91354" lon="0.81442">
        <ele>48</ele>
        <time>2022-05-25 01:05:49</time>
      </trkpt>
      <trkpt lat="40.91359" lon="0.81447">
        <ele>48</ele>
        <time>2022-05-25 01:05:50</time>
      </trkpt>
      <trkpt lat="40.91365" lon="0.81452">
        <ele>48</ele>
        <time>2022-05-25 01:05:51</time>
      </trkpt>
      <trkpt lat="40.91369" lon="0.81456">
        <ele>47.8</ele>
        <time>2022-05-25 01:05:52</time>
      </trkpt>
      <trkpt lat="40.91374" lon="0.81461">
        <ele>47.6</ele>
        <time>2022-05-25 01:05:53</time>
      </trkpt>
      <trkpt lat="40.9138" lon="0.81466">
        <ele>47.4</ele>
        <time>2022-05-25 01:05:54</time>
      </trkpt>
      <trkpt lat="40.91385" lon="0.81471">
        <ele>47.2</ele>
        <time>2022-05-25 01:05:55</time>
      </trkpt>
      <trkpt lat="40.9139" lon="0.81476">
        <ele>47</ele>
        <time>2022-05-25 01:05:56</time>
      </trkpt>
      <trkpt lat="40.91395" lon="0.81481">
        <ele>46.6</ele>
        <time>2022-05-25 01:05:57</time>
      </trkpt>
      <trkpt lat="40.91401" lon="0.81486">
        <ele>46.6</ele>
        <time>2022-05-25 01:05:58</time>
      </trkpt>
      <trkpt lat="40.91405" lon="0.81492">
        <ele>46.4</ele>
        <time>2022-05-25 01:05:59</time>
      </trkpt>
      <trkpt lat="40.91411" lon="0.81497">
        <ele>46.4</ele>
        <time>2022-05-25 01:06:00</time>
      </trkpt>
      <trkpt lat="40.91416" lon="0.81502">
        <ele>46.2</ele>
        <time>2022-05-25 01:06:01</time>
      </trkpt>
      <trkpt lat="40.91422" lon="0.81508">
        <ele>46</ele>
        <time>2022-05-25 01:06:02</time>
      </trkpt>
      <trkpt lat="40.91427" lon="0.81513">
        <ele>46</ele>
        <time>2022-05-25 01:06:03</time>
      </trkpt>
      <trkpt lat="40.91433" lon="0.81518">
        <ele>46</ele>
        <time>2022-05-25 01:06:04</time>
      </trkpt>
      <trkpt lat="40.91438" lon="0.81523">
        <ele>45.6</ele>
        <time>2022-05-25 01:06:05</time>
      </trkpt>
      <trkpt lat="40.91442" lon="0.81528">
        <ele>45.4</ele>
        <time>2022-05-25 01:06:06</time>
      </trkpt>
      <trkpt lat="40.91448" lon="0.81533">
        <ele>45.4</ele>
        <time>2022-05-25 01:06:07</time>
      </trkpt>
      <trkpt lat="40.91453" lon="0.81538">
        <ele>45.2</ele>
        <time>2022-05-25 01:06:08</time>
      </trkpt>
      <trkpt lat="40.91458" lon="0.81543">
        <ele>45</ele>
        <time>2022-05-25 01:06:09</time>
      </trkpt>
      <trkpt lat="40.91462" lon="0.81548">
        <ele>44.8</ele>
        <time>2022-05-25 01:06:10</time>
      </trkpt>
      <trkpt lat="40.91467" lon="0.81554">
        <ele>44.8</ele>
        <time>2022-05-25 01:06:11</time>
      </trkpt>
      <trkpt lat="40.91472" lon="0.8156">
        <ele>44.4</ele>
        <time>2022-05-25 01:06:12</time>
      </trkpt>
      <trkpt lat="40.91478" lon="0.81565">
        <ele>44.2</ele>
        <time>2022-05-25 01:06:13</time>
      </trkpt>
      <trkpt lat="40.91483" lon="0.8157">
        <ele>44.2</ele>
        <time>2022-05-25 01:06:14</time>
      </trkpt>
      <trkpt lat="40.91488" lon="0.81576">
        <ele>44.2</ele>
        <time>2022-05-25 01:06:15</time>
      </trkpt>
      <trkpt lat="40.91493" lon="0.81581">
        <ele>44</ele>
        <time>2022-05-25 01:06:16</time>
      </trkpt>
      <trkpt lat="40.91498" lon="0.81587">
        <ele>43.8</ele>
        <time>2022-05-25 01:06:17</time>
      </trkpt>
      <trkpt lat="40.91504" lon="0.81593">
        <ele>43.4</ele>
        <time>2022-05-25 01:06:18</time>
      </trkpt>
      <trkpt lat="40.91509" lon="0.81598">
        <ele>43.2</ele>
        <time>2022-05-25 01:06:19</time>
      </trkpt>
      <trkpt lat="40.91515" lon="0.81604">
        <ele>42.8</ele>
        <time>2022-05-25 01:06:20</time>
      </trkpt>
      <trkpt lat="40.9152" lon="0.8161">
        <ele>42.8</ele>
        <time>2022-05-25 01:06:21</time>
      </trkpt>
      <trkpt lat="40.91526" lon="0.81615">
        <ele>43.2</ele>
        <time>2022-05-25 01:06:22</time>
      </trkpt>
      <trkpt lat="40.91532" lon="0.8162">
        <ele>43.2</ele>
        <time>2022-05-25 01:06:23</time>
      </trkpt>
      <trkpt lat="40.91537" lon="0.81626">
        <ele>43.2</ele>
        <time>2022-05-25 01:06:24</time>
      </trkpt>
      <trkpt lat="40.91543" lon="0.81631">
        <ele>43.2</ele>
        <time>2022-05-25 01:06:25</time>
      </trkpt>
      <trkpt lat="40.91548" lon="0.81637">
        <ele>43.2</ele>
        <time>2022-05-25 01:06:26</time>
      </trkpt>
      <trkpt lat="40.91553" lon="0.81643">
        <ele>43.2</ele>
        <time>2022-05-25 01:06:27</time>
      </trkpt>
      <trkpt lat="40.91558" lon="0.81648">
        <ele>43</ele>
        <time>2022-05-25 01:06:28</time>
      </trkpt>
      <trkpt lat="40.91562" lon="0.81654">
        <ele>42.8</ele>
        <time>2022-05-25 01:06:29</time>
      </trkpt>
      <trkpt lat="40.91566" lon="0.81659">
        <ele>42.8</ele>
        <time>2022-05-25 01:06:30</time>
      </trkpt>
      <trkpt lat="40.91571" lon="0.81664">
        <ele>42.6</ele>
        <time>2022-05-25 01:06:31</time>
      </trkpt>
      <trkpt lat="40.91576" lon="0.8167">
        <ele>42.4</ele>
        <time>2022-05-25 01:06:32</time>
      </trkpt>
      <trkpt lat="40.91581" lon="0.81675">
        <ele>42.4</ele>
        <time>2022-05-25 01:06:33</time>
      </trkpt>
      <trkpt lat="40.91586" lon="0.81681">
        <ele>42.2</ele>
        <time>2022-05-25 01:06:34</time>
      </trkpt>
      <trkpt lat="40.91591" lon="0.81687">
        <ele>42.2</ele>
        <time>2022-05-25 01:06:35</time>
      </trkpt>
      <trkpt lat="40.91597" lon="0.81692">
        <ele>42.2</ele>
        <time>2022-05-25 01:06:36</time>
      </trkpt>
      <trkpt lat="40.91602" lon="0.81698">
        <ele>42</ele>
        <time>2022-05-25 01:06:37</time>
      </trkpt>
      <trkpt lat="40.91607" lon="0.81704">
        <ele>42</ele>
        <time>2022-05-25 01:06:38</time>
      </trkpt>
      <trkpt lat="40.91612" lon="0.81709">
        <ele>41.8</ele>
        <time>2022-05-25 01:06:39</time>
      </trkpt>
      <trkpt lat="40.91618" lon="0.81715">
        <ele>41.8</ele>
        <time>2022-05-25 01:06:40</time>
      </trkpt>
      <trkpt lat="40.91623" lon="0.81721">
        <ele>41.6</ele>
        <time>2022-05-25 01:06:41</time>
      </trkpt>
      <trkpt lat="40.91628" lon="0.81727">
        <ele>41.6</ele>
        <time>2022-05-25 01:06:42</time>
      </trkpt>
      <trkpt lat="40.91633" lon="0.81733">
        <ele>41.6</ele>
        <time>2022-05-25 01:06:43</time>
      </trkpt>
      <trkpt lat="40.91638" lon="0.81739">
        <ele>41.6</ele>
        <time>2022-05-25 01:06:44</time>
      </trkpt>
      <trkpt lat="40.91643" lon="0.81744">
        <ele>41.6</ele>
        <time>2022-05-25 01:06:45</time>
      </trkpt>
      <trkpt lat="40.91648" lon="0.81749">
        <ele>41.6</ele>
        <time>2022-05-25 01:06:46</time>
      </trkpt>
      <trkpt lat="40.91653" lon="0.81755">
        <ele>41.8</ele>
        <time>2022-05-25 01:06:47</time>
      </trkpt>
      <trkpt lat="40.91658" lon="0.81761">
        <ele>41.8</ele>
        <time>2022-05-25 01:06:48</time>
      </trkpt>
      <trkpt lat="40.91663" lon="0.81767">
        <ele>41.6</ele>
        <time>2022-05-25 01:06:49</time>
      </trkpt>
      <trkpt lat="40.91668" lon="0.81772">
        <ele>41.4</ele>
        <time>2022-05-25 01:06:50</time>
      </trkpt>
      <trkpt lat="40.91672" lon="0.81778">
        <ele>41.2</ele>
        <time>2022-05-25 01:06:51</time>
      </trkpt>
      <trkpt lat="40.91677" lon="0.81783">
        <ele>41</ele>
        <time>2022-05-25 01:06:52</time>
      </trkpt>
      <trkpt lat="40.91681" lon="0.81789">
        <ele>41</ele>
        <time>2022-05-25 01:06:53</time>
      </trkpt>
      <trkpt lat="40.91686" lon="0.81794">
        <ele>40.8</ele>
        <time>2022-05-25 01:06:54</time>
      </trkpt>
      <trkpt lat="40.91691" lon="0.818">
        <ele>40.8</ele>
        <time>2022-05-25 01:06:55</time>
      </trkpt>
      <trkpt lat="40.91696" lon="0.81805">
        <ele>40.8</ele>
        <time>2022-05-25 01:06:56</time>
      </trkpt>
      <trkpt lat="40.917" lon="0.8181">
        <ele>40.8</ele>
        <time>2022-05-25 01:06:57</time>
      </trkpt>
      <trkpt lat="40.91705" lon="0.81816">
        <ele>41</ele>
        <time>2022-05-25 01:06:58</time>
      </trkpt>
      <trkpt lat="40.9171" lon="0.81822">
        <ele>41</ele>
        <time>2022-05-25 01:06:59</time>
      </trkpt>
      <trkpt lat="40.91715" lon="0.81828">
        <ele>41</ele>
        <time>2022-05-25 01:07:00</time>
      </trkpt>
      <trkpt lat="40.91719" lon="0.81834">
        <ele>41</ele>
        <time>2022-05-25 01:07:01</time>
      </trkpt>
      <trkpt lat="40.91724" lon="0.8184">
        <ele>41</ele>
        <time>2022-05-25 01:07:02</time>
      </trkpt>
      <trkpt lat="40.91729" lon="0.81846">
        <ele>41</ele>
        <time>2022-05-25 01:07:03</time>
      </trkpt>
      <trkpt lat="40.91734" lon="0.81851">
        <ele>41.2</ele>
        <time>2022-05-25 01:07:04</time>
      </trkpt>
      <trkpt lat="40.91739" lon="0.81857">
        <ele>41.2</ele>
        <time>2022-05-25 01:07:05</time>
      </trkpt>
      <trkpt lat="40.91743" lon="0.81862">
        <ele>41</ele>
        <time>2022-05-25 01:07:06</time>
      </trkpt>
      <trkpt lat="40.91747" lon="0.81867">
        <ele>40.8</ele>
        <time>2022-05-25 01:07:07</time>
      </trkpt>
      <trkpt lat="40.91751" lon="0.81873">
        <ele>41</ele>
        <time>2022-05-25 01:07:08</time>
      </trkpt>
      <trkpt lat="40.91756" lon="0.81878">
        <ele>41</ele>
        <time>2022-05-25 01:07:09</time>
      </trkpt>
      <trkpt lat="40.9176" lon="0.81884">
        <ele>40.8</ele>
        <time>2022-05-25 01:07:10</time>
      </trkpt>
      <trkpt lat="40.91764" lon="0.81889">
        <ele>40.6</ele>
        <time>2022-05-25 01:07:11</time>
      </trkpt>
      <trkpt lat="40.91769" lon="0.81895">
        <ele>40.6</ele>
        <time>2022-05-25 01:07:12</time>
      </trkpt>
      <trkpt lat="40.91774" lon="0.81901">
        <ele>40.6</ele>
        <time>2022-05-25 01:07:13</time>
      </trkpt>
      <trkpt lat="40.91777" lon="0.81906">
        <ele>40.8</ele>
        <time>2022-05-25 01:07:14</time>
      </trkpt>
      <trkpt lat="40.91781" lon="0.81912">
        <ele>40.8</ele>
        <time>2022-05-25 01:07:15</time>
      </trkpt>
      <trkpt lat="40.91784" lon="0.81918">
        <ele>40.8</ele>
        <time>2022-05-25 01:07:16</time>
      </trkpt>
      <trkpt lat="40.91786" lon="0.81926">
        <ele>40.8</ele>
        <time>2022-05-25 01:07:17</time>
      </trkpt>
      <trkpt lat="40.91788" lon="0.81933">
        <ele>40.6</ele>
        <time>2022-05-25 01:07:18</time>
      </trkpt>
      <trkpt lat="40.91789" lon="0.8194">
        <ele>40.6</ele>
        <time>2022-05-25 01:07:19</time>
      </trkpt>
      <trkpt lat="40.91792" lon="0.81947">
        <ele>40.6</ele>
        <time>2022-05-25 01:07:20</time>
      </trkpt>
      <trkpt lat="40.91795" lon="0.81953">
        <ele>40.4</ele>
        <time>2022-05-25 01:07:21</time>
      </trkpt>
      <trkpt lat="40.91798" lon="0.81958">
        <ele>40.4</ele>
        <time>2022-05-25 01:07:22</time>
      </trkpt>
      <trkpt lat="40.91802" lon="0.81962">
        <ele>40.2</ele>
        <time>2022-05-25 01:07:23</time>
      </trkpt>
      <trkpt lat="40.91807" lon="0.81965">
        <ele>40</ele>
        <time>2022-05-25 01:07:24</time>
      </trkpt>
      <trkpt lat="40.91812" lon="0.81968">
        <ele>39.6</ele>
        <time>2022-05-25 01:07:25</time>
      </trkpt>
      <trkpt lat="40.91817" lon="0.81971">
        <ele>39.6</ele>
        <time>2022-05-25 01:07:26</time>
      </trkpt>
      <trkpt lat="40.91821" lon="0.81974">
        <ele>39.6</ele>
        <time>2022-05-25 01:07:27</time>
      </trkpt>
      <trkpt lat="40.91826" lon="0.81977">
        <ele>39.4</ele>
        <time>2022-05-25 01:07:28</time>
      </trkpt>
      <trkpt lat="40.9183" lon="0.81981">
        <ele>39.4</ele>
        <time>2022-05-25 01:07:29</time>
      </trkpt>
      <trkpt lat="40.91835" lon="0.81984">
        <ele>39.6</ele>
        <time>2022-05-25 01:07:30</time>
      </trkpt>
      <trkpt lat="40.91839" lon="0.81989">
        <ele>39.6</ele>
        <time>2022-05-25 01:07:31</time>
      </trkpt>
      <trkpt lat="40.91843" lon="0.81993">
        <ele>40</ele>
        <time>2022-05-25 01:07:32</time>
      </trkpt>
      <trkpt lat="40.91847" lon="0.81998">
        <ele>40.2</ele>
        <time>2022-05-25 01:07:33</time>
      </trkpt>
      <trkpt lat="40.91851" lon="0.82004">
        <ele>40.4</ele>
        <time>2022-05-25 01:07:34</time>
      </trkpt>
      <trkpt lat="40.91856" lon="0.82009">
        <ele>40.4</ele>
        <time>2022-05-25 01:07:35</time>
      </trkpt>
      <trkpt lat="40.9186" lon="0.82015">
        <ele>40.6</ele>
        <time>2022-05-25 01:07:36</time>
      </trkpt>
      <trkpt lat="40.91864" lon="0.8202">
        <ele>40.8</ele>
        <time>2022-05-25 01:07:37</time>
      </trkpt>
      <trkpt lat="40.91869" lon="0.82026">
        <ele>40.8</ele>
        <time>2022-05-25 01:07:38</time>
      </trkpt>
      <trkpt lat="40.91873" lon="0.82031">
        <ele>41</ele>
        <time>2022-05-25 01:07:39</time>
      </trkpt>
      <trkpt lat="40.91877" lon="0.82037">
        <ele>41</ele>
        <time>2022-05-25 01:07:40</time>
      </trkpt>
      <trkpt lat="40.91881" lon="0.82043">
        <ele>41.2</ele>
        <time>2022-05-25 01:07:41</time>
      </trkpt>
      <trkpt lat="40.91885" lon="0.82048">
        <ele>41.2</ele>
        <time>2022-05-25 01:07:42</time>
      </trkpt>
      <trkpt lat="40.9189" lon="0.82054">
        <ele>41.2</ele>
        <time>2022-05-25 01:07:43</time>
      </trkpt>
      <trkpt lat="40.91895" lon="0.82059">
        <ele>41.2</ele>
        <time>2022-05-25 01:07:44</time>
      </trkpt>
      <trkpt lat="40.91899" lon="0.82065">
        <ele>41.2</ele>
        <time>2022-05-25 01:07:45</time>
      </trkpt>
      <trkpt lat="40.91903" lon="0.8207">
        <ele>41.2</ele>
        <time>2022-05-25 01:07:46</time>
      </trkpt>
      <trkpt lat="40.91907" lon="0.82076">
        <ele>41.2</ele>
        <time>2022-05-25 01:07:47</time>
      </trkpt>
      <trkpt lat="40.91911" lon="0.82081">
        <ele>41.4</ele>
        <time>2022-05-25 01:07:48</time>
      </trkpt>
      <trkpt lat="40.91916" lon="0.82087">
        <ele>41.4</ele>
        <time>2022-05-25 01:07:49</time>
      </trkpt>
      <trkpt lat="40.9192" lon="0.82093">
        <ele>41.4</ele>
        <time>2022-05-25 01:07:50</time>
      </trkpt>
      <trkpt lat="40.91924" lon="0.82098">
        <ele>41.4</ele>
        <time>2022-05-25 01:07:51</time>
      </trkpt>
      <trkpt lat="40.91928" lon="0.82104">
        <ele>41.4</ele>
        <time>2022-05-25 01:07:52</time>
      </trkpt>
      <trkpt lat="40.91933" lon="0.8211">
        <ele>41.4</ele>
        <time>2022-05-25 01:07:53</time>
      </trkpt>
      <trkpt lat="40.91936" lon="0.82115">
        <ele>41.4</ele>
        <time>2022-05-25 01:07:54</time>
      </trkpt>
      <trkpt lat="40.9194" lon="0.82121">
        <ele>41.4</ele>
        <time>2022-05-25 01:07:55</time>
      </trkpt>
      <trkpt lat="40.91945" lon="0.82126">
        <ele>41.4</ele>
        <time>2022-05-25 01:07:56</time>
      </trkpt>
      <trkpt lat="40.91949" lon="0.82132">
        <ele>41.6</ele>
        <time>2022-05-25 01:07:57</time>
      </trkpt>
      <trkpt lat="40.91953" lon="0.82137">
        <ele>41.6</ele>
        <time>2022-05-25 01:07:58</time>
      </trkpt>
      <trkpt lat="40.91957" lon="0.82143">
        <ele>41.6</ele>
        <time>2022-05-25 01:07:59</time>
      </trkpt>
      <trkpt lat="40.91961" lon="0.82148">
        <ele>41.6</ele>
        <time>2022-05-25 01:08:00</time>
      </trkpt>
      <trkpt lat="40.91964" lon="0.82153">
        <ele>41.6</ele>
        <time>2022-05-25 01:08:01</time>
      </trkpt>
      <trkpt lat="40.91968" lon="0.82158">
        <ele>41.6</ele>
        <time>2022-05-25 01:08:02</time>
      </trkpt>
      <trkpt lat="40.91972" lon="0.82164">
        <ele>41.6</ele>
        <time>2022-05-25 01:08:03</time>
      </trkpt>
      <trkpt lat="40.91975" lon="0.82169">
        <ele>41.6</ele>
        <time>2022-05-25 01:08:04</time>
      </trkpt>
      <trkpt lat="40.91979" lon="0.82174">
        <ele>41.6</ele>
        <time>2022-05-25 01:08:05</time>
      </trkpt>
      <trkpt lat="40.91983" lon="0.82179">
        <ele>41.6</ele>
        <time>2022-05-25 01:08:06</time>
      </trkpt>
      <trkpt lat="40.91987" lon="0.82184">
        <ele>41.8</ele>
        <time>2022-05-25 01:08:07</time>
      </trkpt>
      <trkpt lat="40.91991" lon="0.8219">
        <ele>42</ele>
        <time>2022-05-25 01:08:08</time>
      </trkpt>
      <trkpt lat="40.91994" lon="0.82195">
        <ele>42</ele>
        <time>2022-05-25 01:08:09</time>
      </trkpt>
      <trkpt lat="40.91998" lon="0.822">
        <ele>42</ele>
        <time>2022-05-25 01:08:10</time>
      </trkpt>
      <trkpt lat="40.92002" lon="0.82205">
        <ele>42</ele>
        <time>2022-05-25 01:08:11</time>
      </trkpt>
      <trkpt lat="40.92005" lon="0.82211">
        <ele>41.8</ele>
        <time>2022-05-25 01:08:12</time>
      </trkpt>
      <trkpt lat="40.92009" lon="0.82216">
        <ele>41.8</ele>
        <time>2022-05-25 01:08:13</time>
      </trkpt>
      <trkpt lat="40.92013" lon="0.82221">
        <ele>42</ele>
        <time>2022-05-25 01:08:14</time>
      </trkpt>
      <trkpt lat="40.92016" lon="0.82227">
        <ele>42</ele>
        <time>2022-05-25 01:08:15</time>
      </trkpt>
      <trkpt lat="40.9202" lon="0.82232">
        <ele>42</ele>
        <time>2022-05-25 01:08:16</time>
      </trkpt>
      <trkpt lat="40.92023" lon="0.82237">
        <ele>42</ele>
        <time>2022-05-25 01:08:17</time>
      </trkpt>
      <trkpt lat="40.92027" lon="0.82242">
        <ele>42</ele>
        <time>2022-05-25 01:08:18</time>
      </trkpt>
      <trkpt lat="40.92031" lon="0.82248">
        <ele>42</ele>
        <time>2022-05-25 01:08:19</time>
      </trkpt>
      <trkpt lat="40.92034" lon="0.82253">
        <ele>42</ele>
        <time>2022-05-25 01:08:20</time>
      </trkpt>
      <trkpt lat="40.92038" lon="0.82258">
        <ele>42</ele>
        <time>2022-05-25 01:08:21</time>
      </trkpt>
      <trkpt lat="40.92041" lon="0.82264">
        <ele>41.8</ele>
        <time>2022-05-25 01:08:22</time>
      </trkpt>
      <trkpt lat="40.92045" lon="0.82269">
        <ele>41.8</ele>
        <time>2022-05-25 01:08:23</time>
      </trkpt>
      <trkpt lat="40.92048" lon="0.82274">
        <ele>42</ele>
        <time>2022-05-25 01:08:24</time>
      </trkpt>
      <trkpt lat="40.92052" lon="0.82279">
        <ele>42</ele>
        <time>2022-05-25 01:08:25</time>
      </trkpt>
      <trkpt lat="40.92055" lon="0.82285">
        <ele>42.2</ele>
        <time>2022-05-25 01:08:26</time>
      </trkpt>
      <trkpt lat="40.92059" lon="0.8229">
        <ele>42.2</ele>
        <time>2022-05-25 01:08:27</time>
      </trkpt>
      <trkpt lat="40.92062" lon="0.82295">
        <ele>42.2</ele>
        <time>2022-05-25 01:08:28</time>
      </trkpt>
      <trkpt lat="40.92066" lon="0.823">
        <ele>42.4</ele>
        <time>2022-05-25 01:08:29</time>
      </trkpt>
      <trkpt lat="40.9207" lon="0.82305">
        <ele>42.2</ele>
        <time>2022-05-25 01:08:30</time>
      </trkpt>
      <trkpt lat="40.92073" lon="0.8231">
        <ele>42.2</ele>
        <time>2022-05-25 01:08:31</time>
      </trkpt>
      <trkpt lat="40.92076" lon="0.82315">
        <ele>42.2</ele>
        <time>2022-05-25 01:08:32</time>
      </trkpt>
      <trkpt lat="40.9208" lon="0.8232">
        <ele>42.2</ele>
        <time>2022-05-25 01:08:33</time>
      </trkpt>
      <trkpt lat="40.92083" lon="0.82325">
        <ele>42.2</ele>
        <time>2022-05-25 01:08:34</time>
      </trkpt>
      <trkpt lat="40.92086" lon="0.8233">
        <ele>42.4</ele>
        <time>2022-05-25 01:08:35</time>
      </trkpt>
      <trkpt lat="40.92089" lon="0.82335">
        <ele>42.4</ele>
        <time>2022-05-25 01:08:36</time>
      </trkpt>
      <trkpt lat="40.92093" lon="0.8234">
        <ele>42.4</ele>
        <time>2022-05-25 01:08:37</time>
      </trkpt>
      <trkpt lat="40.92096" lon="0.82345">
        <ele>42.4</ele>
        <time>2022-05-25 01:08:38</time>
      </trkpt>
      <trkpt lat="40.92099" lon="0.8235">
        <ele>42.4</ele>
        <time>2022-05-25 01:08:39</time>
      </trkpt>
      <trkpt lat="40.92103" lon="0.82355">
        <ele>42.6</ele>
        <time>2022-05-25 01:08:40</time>
      </trkpt>
      <trkpt lat="40.92106" lon="0.8236">
        <ele>42.4</ele>
        <time>2022-05-25 01:08:41</time>
      </trkpt>
      <trkpt lat="40.92109" lon="0.82365">
        <ele>42.4</ele>
        <time>2022-05-25 01:08:42</time>
      </trkpt>
      <trkpt lat="40.92113" lon="0.8237">
        <ele>42.6</ele>
        <time>2022-05-25 01:08:43</time>
      </trkpt>
      <trkpt lat="40.92117" lon="0.82375">
        <ele>42.6</ele>
        <time>2022-05-25 01:08:44</time>
      </trkpt>
      <trkpt lat="40.9212" lon="0.8238">
        <ele>42.6</ele>
        <time>2022-05-25 01:08:45</time>
      </trkpt>
      <trkpt lat="40.92123" lon="0.82385">
        <ele>42.6</ele>
        <time>2022-05-25 01:08:46</time>
      </trkpt>
      <trkpt lat="40.92127" lon="0.8239">
        <ele>42.6</ele>
        <time>2022-05-25 01:08:47</time>
      </trkpt>
      <trkpt lat="40.92131" lon="0.82395">
        <ele>42.6</ele>
        <time>2022-05-25 01:08:48</time>
      </trkpt>
      <trkpt lat="40.92134" lon="0.824">
        <ele>42.8</ele>
        <time>2022-05-25 01:08:49</time>
      </trkpt>
      <trkpt lat="40.92138" lon="0.82404">
        <ele>42.8</ele>
        <time>2022-05-25 01:08:50</time>
      </trkpt>
      <trkpt lat="40.92141" lon="0.82409">
        <ele>42.8</ele>
        <time>2022-05-25 01:08:51</time>
      </trkpt>
      <trkpt lat="40.92145" lon="0.82414">
        <ele>42.8</ele>
        <time>2022-05-25 01:08:52</time>
      </trkpt>
      <trkpt lat="40.92149" lon="0.82419">
        <ele>43</ele>
        <time>2022-05-25 01:08:53</time>
      </trkpt>
      <trkpt lat="40.92152" lon="0.82424">
        <ele>43</ele>
        <time>2022-05-25 01:08:54</time>
      </trkpt>
      <trkpt lat="40.92156" lon="0.82429">
        <ele>43</ele>
        <time>2022-05-25 01:08:55</time>
      </trkpt>
      <trkpt lat="40.9216" lon="0.82434">
        <ele>43</ele>
        <time>2022-05-25 01:08:56</time>
      </trkpt>
      <trkpt lat="40.92163" lon="0.82438">
        <ele>43</ele>
        <time>2022-05-25 01:08:57</time>
      </trkpt>
      <trkpt lat="40.92167" lon="0.82443">
        <ele>43.2</ele>
        <time>2022-05-25 01:08:58</time>
      </trkpt>
      <trkpt lat="40.92171" lon="0.82448">
        <ele>43.2</ele>
        <time>2022-05-25 01:08:59</time>
      </trkpt>
      <trkpt lat="40.92175" lon="0.82453">
        <ele>43.4</ele>
        <time>2022-05-25 01:09:00</time>
      </trkpt>
      <trkpt lat="40.92179" lon="0.82457">
        <ele>43.6</ele>
        <time>2022-05-25 01:09:01</time>
      </trkpt>
      <trkpt lat="40.92183" lon="0.82462">
        <ele>43.6</ele>
        <time>2022-05-25 01:09:02</time>
      </trkpt>
      <trkpt lat="40.92187" lon="0.82467">
        <ele>43.6</ele>
        <time>2022-05-25 01:09:03</time>
      </trkpt>
      <trkpt lat="40.92191" lon="0.82471">
        <ele>43.6</ele>
        <time>2022-05-25 01:09:04</time>
      </trkpt>
      <trkpt lat="40.92195" lon="0.82477">
        <ele>43.8</ele>
        <time>2022-05-25 01:09:05</time>
      </trkpt>
      <trkpt lat="40.92198" lon="0.82482">
        <ele>44</ele>
        <time>2022-05-25 01:09:06</time>
      </trkpt>
      <trkpt lat="40.92202" lon="0.82487">
        <ele>44</ele>
        <time>2022-05-25 01:09:07</time>
      </trkpt>
      <trkpt lat="40.92206" lon="0.82491">
        <ele>44</ele>
        <time>2022-05-25 01:09:08</time>
      </trkpt>
      <trkpt lat="40.9221" lon="0.82496">
        <ele>44.2</ele>
        <time>2022-05-25 01:09:09</time>
      </trkpt>
      <trkpt lat="40.92215" lon="0.825">
        <ele>44.4</ele>
        <time>2022-05-25 01:09:10</time>
      </trkpt>
      <trkpt lat="40.92218" lon="0.82505">
        <ele>44.4</ele>
        <time>2022-05-25 01:09:11</time>
      </trkpt>
      <trkpt lat="40.92222" lon="0.8251">
        <ele>44.6</ele>
        <time>2022-05-25 01:09:12</time>
      </trkpt>
      <trkpt lat="40.92226" lon="0.82515">
        <ele>44.6</ele>
        <time>2022-05-25 01:09:13</time>
      </trkpt>
      <trkpt lat="40.9223" lon="0.82519">
        <ele>44.6</ele>
        <time>2022-05-25 01:09:14</time>
      </trkpt>
      <trkpt lat="40.92234" lon="0.82523">
        <ele>44.6</ele>
        <time>2022-05-25 01:09:15</time>
      </trkpt>
      <trkpt lat="40.92238" lon="0.82528">
        <ele>44.8</ele>
        <time>2022-05-25 01:09:16</time>
      </trkpt>
      <trkpt lat="40.92242" lon="0.82532">
        <ele>44.8</ele>
        <time>2022-05-25 01:09:17</time>
      </trkpt>
      <trkpt lat="40.92246" lon="0.82536">
        <ele>45</ele>
        <time>2022-05-25 01:09:18</time>
      </trkpt>
      <trkpt lat="40.9225" lon="0.82541">
        <ele>45.2</ele>
        <time>2022-05-25 01:09:19</time>
      </trkpt>
      <trkpt lat="40.92254" lon="0.82545">
        <ele>45.2</ele>
        <time>2022-05-25 01:09:20</time>
      </trkpt>
      <trkpt lat="40.92258" lon="0.82549">
        <ele>45.2</ele>
        <time>2022-05-25 01:09:21</time>
      </trkpt>
      <trkpt lat="40.92261" lon="0.82553">
        <ele>45.4</ele>
        <time>2022-05-25 01:09:22</time>
      </trkpt>
      <trkpt lat="40.92265" lon="0.82557">
        <ele>45.4</ele>
        <time>2022-05-25 01:09:23</time>
      </trkpt>
      <trkpt lat="40.9227" lon="0.82561">
        <ele>45.2</ele>
        <time>2022-05-25 01:09:24</time>
      </trkpt>
      <trkpt lat="40.92273" lon="0.82565">
        <ele>45.2</ele>
        <time>2022-05-25 01:09:25</time>
      </trkpt>
      <trkpt lat="40.92277" lon="0.82569">
        <ele>45.4</ele>
        <time>2022-05-25 01:09:26</time>
      </trkpt>
      <trkpt lat="40.92281" lon="0.82573">
        <ele>45.6</ele>
        <time>2022-05-25 01:09:27</time>
      </trkpt>
      <trkpt lat="40.92285" lon="0.82577">
        <ele>45.6</ele>
        <time>2022-05-25 01:09:28</time>
      </trkpt>
      <trkpt lat="40.92289" lon="0.82581">
        <ele>45.6</ele>
        <time>2022-05-25 01:09:29</time>
      </trkpt>
      <trkpt lat="40.92292" lon="0.82584">
        <ele>45.6</ele>
        <time>2022-05-25 01:09:30</time>
      </trkpt>
      <trkpt lat="40.92296" lon="0.82588">
        <ele>45.6</ele>
        <time>2022-05-25 01:09:31</time>
      </trkpt>
      <trkpt lat="40.923" lon="0.82591">
        <ele>45.6</ele>
        <time>2022-05-25 01:09:32</time>
      </trkpt>
      <trkpt lat="40.92303" lon="0.82594">
        <ele>45.4</ele>
        <time>2022-05-25 01:09:33</time>
      </trkpt>
      <trkpt lat="40.92306" lon="0.82597">
        <ele>45.6</ele>
        <time>2022-05-25 01:09:34</time>
      </trkpt>
      <trkpt lat="40.92309" lon="0.826">
        <ele>45.6</ele>
        <time>2022-05-25 01:09:35</time>
      </trkpt>
      <trkpt lat="40.92312" lon="0.82603">
        <ele>45.8</ele>
        <time>2022-05-25 01:09:36</time>
      </trkpt>
      <trkpt lat="40.92316" lon="0.82606">
        <ele>45.8</ele>
        <time>2022-05-25 01:09:37</time>
      </trkpt>
      <trkpt lat="40.92319" lon="0.82609">
        <ele>45.8</ele>
        <time>2022-05-25 01:09:38</time>
      </trkpt>
      <trkpt lat="40.92323" lon="0.82613">
        <ele>46</ele>
        <time>2022-05-25 01:09:39</time>
      </trkpt>
      <trkpt lat="40.92326" lon="0.82616">
        <ele>46</ele>
        <time>2022-05-25 01:09:40</time>
      </trkpt>
      <trkpt lat="40.9233" lon="0.8262">
        <ele>46.2</ele>
        <time>2022-05-25 01:09:41</time>
      </trkpt>
      <trkpt lat="40.92333" lon="0.82623">
        <ele>46.4</ele>
        <time>2022-05-25 01:09:42</time>
      </trkpt>
      <trkpt lat="40.92337" lon="0.82627">
        <ele>46.4</ele>
        <time>2022-05-25 01:09:43</time>
      </trkpt>
      <trkpt lat="40.9234" lon="0.8263">
        <ele>46.6</ele>
        <time>2022-05-25 01:09:44</time>
      </trkpt>
      <trkpt lat="40.92344" lon="0.82633">
        <ele>46.6</ele>
        <time>2022-05-25 01:09:45</time>
      </trkpt>
      <trkpt lat="40.92348" lon="0.82637">
        <ele>46.6</ele>
        <time>2022-05-25 01:09:46</time>
      </trkpt>
      <trkpt lat="40.92352" lon="0.82639">
        <ele>46.8</ele>
        <time>2022-05-25 01:09:47</time>
      </trkpt>
      <trkpt lat="40.92355" lon="0.82643">
        <ele>46.8</ele>
        <time>2022-05-25 01:09:48</time>
      </trkpt>
      <trkpt lat="40.9236" lon="0.82646">
        <ele>46.8</ele>
        <time>2022-05-25 01:09:49</time>
      </trkpt>
      <trkpt lat="40.92363" lon="0.82649">
        <ele>46.8</ele>
        <time>2022-05-25 01:09:50</time>
      </trkpt>
      <trkpt lat="40.92367" lon="0.82652">
        <ele>46.8</ele>
        <time>2022-05-25 01:09:51</time>
      </trkpt>
      <trkpt lat="40.9237" lon="0.82655">
        <ele>46.8</ele>
        <time>2022-05-25 01:09:52</time>
      </trkpt>
      <trkpt lat="40.92374" lon="0.82658">
        <ele>46.8</ele>
        <time>2022-05-25 01:09:53</time>
      </trkpt>
      <trkpt lat="40.92377" lon="0.82661">
        <ele>47</ele>
        <time>2022-05-25 01:09:54</time>
      </trkpt>
      <trkpt lat="40.92381" lon="0.82664">
        <ele>47</ele>
        <time>2022-05-25 01:09:55</time>
      </trkpt>
      <trkpt lat="40.92384" lon="0.82667">
        <ele>47.2</ele>
        <time>2022-05-25 01:09:56</time>
      </trkpt>
      <trkpt lat="40.92387" lon="0.82669">
        <ele>47.4</ele>
        <time>2022-05-25 01:09:57</time>
      </trkpt>
      <trkpt lat="40.92391" lon="0.82672">
        <ele>47.4</ele>
        <time>2022-05-25 01:09:58</time>
      </trkpt>
      <trkpt lat="40.92394" lon="0.82675">
        <ele>47.4</ele>
        <time>2022-05-25 01:09:59</time>
      </trkpt>
      <trkpt lat="40.92397" lon="0.82678">
        <ele>47.6</ele>
        <time>2022-05-25 01:10:00</time>
      </trkpt>
      <trkpt lat="40.924" lon="0.82681">
        <ele>47.8</ele>
        <time>2022-05-25 01:10:01</time>
      </trkpt>
      <trkpt lat="40.92403" lon="0.82684">
        <ele>48</ele>
        <time>2022-05-25 01:10:02</time>
      </trkpt>
      <trkpt lat="40.92407" lon="0.82687">
        <ele>48</ele>
        <time>2022-05-25 01:10:03</time>
      </trkpt>
      <trkpt lat="40.9241" lon="0.82689">
        <ele>48</ele>
        <time>2022-05-25 01:10:04</time>
      </trkpt>
      <trkpt lat="40.92413" lon="0.82692">
        <ele>48</ele>
        <time>2022-05-25 01:10:05</time>
      </trkpt>
      <trkpt lat="40.92417" lon="0.82695">
        <ele>48.2</ele>
        <time>2022-05-25 01:10:06</time>
      </trkpt>
      <trkpt lat="40.9242" lon="0.82697">
        <ele>48.2</ele>
        <time>2022-05-25 01:10:07</time>
      </trkpt>
      <trkpt lat="40.92424" lon="0.827">
        <ele>48.2</ele>
        <time>2022-05-25 01:10:08</time>
      </trkpt>
      <trkpt lat="40.92427" lon="0.82703">
        <ele>48.2</ele>
        <time>2022-05-25 01:10:09</time>
      </trkpt>
      <trkpt lat="40.9243" lon="0.82706">
        <ele>48.2</ele>
        <time>2022-05-25 01:10:10</time>
      </trkpt>
      <trkpt lat="40.92433" lon="0.82708">
        <ele>48.4</ele>
        <time>2022-05-25 01:10:11</time>
      </trkpt>
      <trkpt lat="40.92436" lon="0.82711">
        <ele>48.4</ele>
        <time>2022-05-25 01:10:12</time>
      </trkpt>
      <trkpt lat="40.92439" lon="0.82714">
        <ele>48.6</ele>
        <time>2022-05-25 01:10:13</time>
      </trkpt>
      <trkpt lat="40.92442" lon="0.82717">
        <ele>48.8</ele>
        <time>2022-05-25 01:10:14</time>
      </trkpt>
      <trkpt lat="40.92446" lon="0.8272">
        <ele>49</ele>
        <time>2022-05-25 01:10:15</time>
      </trkpt>
      <trkpt lat="40.92449" lon="0.82722">
        <ele>49</ele>
        <time>2022-05-25 01:10:16</time>
      </trkpt>
      <trkpt lat="40.92451" lon="0.82725">
        <ele>49</ele>
        <time>2022-05-25 01:10:17</time>
      </trkpt>
      <trkpt lat="40.92453" lon="0.82727">
        <ele>49.2</ele>
        <time>2022-05-25 01:10:18</time>
      </trkpt>
      <trkpt lat="40.92457" lon="0.82731">
        <ele>49.2</ele>
        <time>2022-05-25 01:10:19</time>
      </trkpt>
      <trkpt lat="40.9246" lon="0.82733">
        <ele>49.4</ele>
        <time>2022-05-25 01:10:20</time>
      </trkpt>
      <trkpt lat="40.92463" lon="0.82736">
        <ele>49.4</ele>
        <time>2022-05-25 01:10:21</time>
      </trkpt>
      <trkpt lat="40.92466" lon="0.82738">
        <ele>49.4</ele>
        <time>2022-05-25 01:10:22</time>
      </trkpt>
      <trkpt lat="40.92469" lon="0.82741">
        <ele>49.4</ele>
        <time>2022-05-25 01:10:23</time>
      </trkpt>
      <trkpt lat="40.92472" lon="0.82743">
        <ele>49.6</ele>
        <time>2022-05-25 01:10:24</time>
      </trkpt>
      <trkpt lat="40.92475" lon="0.82745">
        <ele>49.8</ele>
        <time>2022-05-25 01:10:25</time>
      </trkpt>
      <trkpt lat="40.92478" lon="0.82748">
        <ele>49.8</ele>
        <time>2022-05-25 01:10:26</time>
      </trkpt>
      <trkpt lat="40.92481" lon="0.82751">
        <ele>49.6</ele>
        <time>2022-05-25 01:10:27</time>
      </trkpt>
      <trkpt lat="40.92484" lon="0.82753">
        <ele>49.4</ele>
        <time>2022-05-25 01:10:28</time>
      </trkpt>
      <trkpt lat="40.92487" lon="0.82756">
        <ele>49.4</ele>
        <time>2022-05-25 01:10:29</time>
      </trkpt>
      <trkpt lat="40.9249" lon="0.82759">
        <ele>49.4</ele>
        <time>2022-05-25 01:10:30</time>
      </trkpt>
      <trkpt lat="40.92492" lon="0.82761">
        <ele>49.6</ele>
        <time>2022-05-25 01:10:31</time>
      </trkpt>
      <trkpt lat="40.92495" lon="0.82764">
        <ele>49.8</ele>
        <time>2022-05-25 01:10:32</time>
      </trkpt>
      <trkpt lat="40.92498" lon="0.82767">
        <ele>50</ele>
        <time>2022-05-25 01:10:33</time>
      </trkpt>
      <trkpt lat="40.92501" lon="0.8277">
        <ele>50.2</ele>
        <time>2022-05-25 01:10:34</time>
      </trkpt>
      <trkpt lat="40.92504" lon="0.82772">
        <ele>50.2</ele>
        <time>2022-05-25 01:10:35</time>
      </trkpt>
      <trkpt lat="40.92508" lon="0.82775">
        <ele>50.4</ele>
        <time>2022-05-25 01:10:36</time>
      </trkpt>
      <trkpt lat="40.92511" lon="0.82777">
        <ele>50.4</ele>
        <time>2022-05-25 01:10:37</time>
      </trkpt>
      <trkpt lat="40.92514" lon="0.8278">
        <ele>50.4</ele>
        <time>2022-05-25 01:10:38</time>
      </trkpt>
      <trkpt lat="40.92516" lon="0.82782">
        <ele>50.6</ele>
        <time>2022-05-25 01:10:39</time>
      </trkpt>
      <trkpt lat="40.92519" lon="0.82785">
        <ele>50.6</ele>
        <time>2022-05-25 01:10:40</time>
      </trkpt>
      <trkpt lat="40.92522" lon="0.82788">
        <ele>50.8</ele>
        <time>2022-05-25 01:10:41</time>
      </trkpt>
      <trkpt lat="40.92525" lon="0.82791">
        <ele>51</ele>
        <time>2022-05-25 01:10:42</time>
      </trkpt>
      <trkpt lat="40.92528" lon="0.82794">
        <ele>51.2</ele>
        <time>2022-05-25 01:10:43</time>
      </trkpt>
      <trkpt lat="40.92531" lon="0.82797">
        <ele>51.4</ele>
        <time>2022-05-25 01:10:44</time>
      </trkpt>
      <trkpt lat="40.92534" lon="0.82799">
        <ele>51.6</ele>
        <time>2022-05-25 01:10:45</time>
      </trkpt>
      <trkpt lat="40.92537" lon="0.82802">
        <ele>51.8</ele>
        <time>2022-05-25 01:10:46</time>
      </trkpt>
      <trkpt lat="40.9254" lon="0.82805">
        <ele>51.8</ele>
        <time>2022-05-25 01:10:47</time>
      </trkpt>
      <trkpt lat="40.92543" lon="0.82809">
        <ele>51.8</ele>
        <time>2022-05-25 01:10:48</time>
      </trkpt>
      <trkpt lat="40.92546" lon="0.82812">
        <ele>51.8</ele>
        <time>2022-05-25 01:10:49</time>
      </trkpt>
      <trkpt lat="40.92548" lon="0.82816">
        <ele>52</ele>
        <time>2022-05-25 01:10:50</time>
      </trkpt>
      <trkpt lat="40.92551" lon="0.82819">
        <ele>52</ele>
        <time>2022-05-25 01:10:51</time>
      </trkpt>
      <trkpt lat="40.92554" lon="0.82821">
        <ele>52</ele>
        <time>2022-05-25 01:10:52</time>
      </trkpt>
      <trkpt lat="40.92557" lon="0.82824">
        <ele>52.2</ele>
        <time>2022-05-25 01:10:53</time>
      </trkpt>
      <trkpt lat="40.9256" lon="0.82827">
        <ele>52.4</ele>
        <time>2022-05-25 01:10:54</time>
      </trkpt>
      <trkpt lat="40.92562" lon="0.8283">
        <ele>52.4</ele>
        <time>2022-05-25 01:10:55</time>
      </trkpt>
      <trkpt lat="40.92566" lon="0.82833">
        <ele>52.6</ele>
        <time>2022-05-25 01:10:56</time>
      </trkpt>
      <trkpt lat="40.92568" lon="0.82836">
        <ele>52.6</ele>
        <time>2022-05-25 01:10:57</time>
      </trkpt>
      <trkpt lat="40.92571" lon="0.82839">
        <ele>52.6</ele>
        <time>2022-05-25 01:10:58</time>
      </trkpt>
      <trkpt lat="40.92574" lon="0.82842">
        <ele>52.6</ele>
        <time>2022-05-25 01:10:59</time>
      </trkpt>
      <trkpt lat="40.92577" lon="0.82845">
        <ele>52.6</ele>
        <time>2022-05-25 01:11:00</time>
      </trkpt>
      <trkpt lat="40.9258" lon="0.82848">
        <ele>52.6</ele>
        <time>2022-05-25 01:11:01</time>
      </trkpt>
      <trkpt lat="40.92582" lon="0.82851">
        <ele>52.8</ele>
        <time>2022-05-25 01:11:02</time>
      </trkpt>
      <trkpt lat="40.92585" lon="0.82854">
        <ele>53</ele>
        <time>2022-05-25 01:11:03</time>
      </trkpt>
      <trkpt lat="40.92588" lon="0.82857">
        <ele>53</ele>
        <time>2022-05-25 01:11:04</time>
      </trkpt>
      <trkpt lat="40.92591" lon="0.8286">
        <ele>53.2</ele>
        <time>2022-05-25 01:11:05</time>
      </trkpt>
      <trkpt lat="40.92594" lon="0.82864">
        <ele>53.4</ele>
        <time>2022-05-25 01:11:06</time>
      </trkpt>
      <trkpt lat="40.92597" lon="0.82867">
        <ele>53.4</ele>
        <time>2022-05-25 01:11:07</time>
      </trkpt>
      <trkpt lat="40.926" lon="0.82869">
        <ele>53.4</ele>
        <time>2022-05-25 01:11:08</time>
      </trkpt>
      <trkpt lat="40.92603" lon="0.82872">
        <ele>53.6</ele>
        <time>2022-05-25 01:11:09</time>
      </trkpt>
      <trkpt lat="40.92606" lon="0.82875">
        <ele>53.8</ele>
        <time>2022-05-25 01:11:10</time>
      </trkpt>
      <trkpt lat="40.92609" lon="0.82878">
        <ele>53.8</ele>
        <time>2022-05-25 01:11:11</time>
      </trkpt>
      <trkpt lat="40.92612" lon="0.82881">
        <ele>53.8</ele>
        <time>2022-05-25 01:11:12</time>
      </trkpt>
      <trkpt lat="40.92615" lon="0.82884">
        <ele>53.8</ele>
        <time>2022-05-25 01:11:13</time>
      </trkpt>
      <trkpt lat="40.92618" lon="0.82887">
        <ele>54.2</ele>
        <time>2022-05-25 01:11:14</time>
      </trkpt>
      <trkpt lat="40.9262" lon="0.82891">
        <ele>54.4</ele>
        <time>2022-05-25 01:11:15</time>
      </trkpt>
      <trkpt lat="40.92624" lon="0.82894">
        <ele>54.6</ele>
        <time>2022-05-25 01:11:16</time>
      </trkpt>
      <trkpt lat="40.92627" lon="0.82897">
        <ele>55</ele>
        <time>2022-05-25 01:11:17</time>
      </trkpt>
      <trkpt lat="40.9263" lon="0.829">
        <ele>55</ele>
        <time>2022-05-25 01:11:18</time>
      </trkpt>
      <trkpt lat="40.92633" lon="0.82904">
        <ele>55</ele>
        <time>2022-05-25 01:11:19</time>
      </trkpt>
      <trkpt lat="40.92635" lon="0.82907">
        <ele>55.2</ele>
        <time>2022-05-25 01:11:20</time>
      </trkpt>
      <trkpt lat="40.92638" lon="0.8291">
        <ele>55.2</ele>
        <time>2022-05-25 01:11:21</time>
      </trkpt>
      <trkpt lat="40.92641" lon="0.82913">
        <ele>55.2</ele>
        <time>2022-05-25 01:11:22</time>
      </trkpt>
      <trkpt lat="40.92644" lon="0.82917">
        <ele>55.2</ele>
        <time>2022-05-25 01:11:23</time>
      </trkpt>
      <trkpt lat="40.92647" lon="0.8292">
        <ele>55.2</ele>
        <time>2022-05-25 01:11:24</time>
      </trkpt>
      <trkpt lat="40.9265" lon="0.82923">
        <ele>54.8</ele>
        <time>2022-05-25 01:11:25</time>
      </trkpt>
      <trkpt lat="40.92653" lon="0.82927">
        <ele>54.8</ele>
        <time>2022-05-25 01:11:26</time>
      </trkpt>
      <trkpt lat="40.92657" lon="0.8293">
        <ele>54.8</ele>
        <time>2022-05-25 01:11:27</time>
      </trkpt>
      <trkpt lat="40.9266" lon="0.82933">
        <ele>55</ele>
        <time>2022-05-25 01:11:28</time>
      </trkpt>
      <trkpt lat="40.92663" lon="0.82937">
        <ele>54.8</ele>
        <time>2022-05-25 01:11:29</time>
      </trkpt>
      <trkpt lat="40.92666" lon="0.8294">
        <ele>55</ele>
        <time>2022-05-25 01:11:30</time>
      </trkpt>
      <trkpt lat="40.92669" lon="0.82944">
        <ele>55</ele>
        <time>2022-05-25 01:11:31</time>
      </trkpt>
      <trkpt lat="40.92673" lon="0.82948">
        <ele>55.2</ele>
        <time>2022-05-25 01:11:32</time>
      </trkpt>
      <trkpt lat="40.92676" lon="0.82952">
        <ele>55.4</ele>
        <time>2022-05-25 01:11:33</time>
      </trkpt>
      <trkpt lat="40.92679" lon="0.82955">
        <ele>55.4</ele>
        <time>2022-05-25 01:11:34</time>
      </trkpt>
      <trkpt lat="40.92682" lon="0.82959">
        <ele>55.6</ele>
        <time>2022-05-25 01:11:35</time>
      </trkpt>
      <trkpt lat="40.92686" lon="0.82962">
        <ele>55.6</ele>
        <time>2022-05-25 01:11:36</time>
      </trkpt>
      <trkpt lat="40.9269" lon="0.82966">
        <ele>55.6</ele>
        <time>2022-05-25 01:11:37</time>
      </trkpt>
      <trkpt lat="40.92693" lon="0.8297">
        <ele>55.8</ele>
        <time>2022-05-25 01:11:38</time>
      </trkpt>
      <trkpt lat="40.92696" lon="0.82973">
        <ele>55.8</ele>
        <time>2022-05-25 01:11:39</time>
      </trkpt>
      <trkpt lat="40.92699" lon="0.82977">
        <ele>56</ele>
        <time>2022-05-25 01:11:40</time>
      </trkpt>
      <trkpt lat="40.92702" lon="0.8298">
        <ele>56.2</ele>
        <time>2022-05-25 01:11:41</time>
      </trkpt>
      <trkpt lat="40.92705" lon="0.82984">
        <ele>56.2</ele>
        <time>2022-05-25 01:11:42</time>
      </trkpt>
      <trkpt lat="40.92708" lon="0.82988">
        <ele>56.2</ele>
        <time>2022-05-25 01:11:43</time>
      </trkpt>
      <trkpt lat="40.92711" lon="0.82991">
        <ele>56</ele>
        <time>2022-05-25 01:11:44</time>
      </trkpt>
      <trkpt lat="40.92714" lon="0.82995">
        <ele>55.8</ele>
        <time>2022-05-25 01:11:45</time>
      </trkpt>
      <trkpt lat="40.92717" lon="0.82999">
        <ele>55.8</ele>
        <time>2022-05-25 01:11:46</time>
      </trkpt>
      <trkpt lat="40.9272" lon="0.83003">
        <ele>55.8</ele>
        <time>2022-05-25 01:11:47</time>
      </trkpt>
      <trkpt lat="40.92723" lon="0.83007">
        <ele>55.6</ele>
        <time>2022-05-25 01:11:48</time>
      </trkpt>
      <trkpt lat="40.92727" lon="0.83011">
        <ele>55.6</ele>
        <time>2022-05-25 01:11:49</time>
      </trkpt>
      <trkpt lat="40.9273" lon="0.83015">
        <ele>55.6</ele>
        <time>2022-05-25 01:11:50</time>
      </trkpt>
      <trkpt lat="40.92733" lon="0.83018">
        <ele>55.6</ele>
        <time>2022-05-25 01:11:51</time>
      </trkpt>
      <trkpt lat="40.92736" lon="0.83021">
        <ele>55.6</ele>
        <time>2022-05-25 01:11:52</time>
      </trkpt>
      <trkpt lat="40.92739" lon="0.83025">
        <ele>55.6</ele>
        <time>2022-05-25 01:11:53</time>
      </trkpt>
      <trkpt lat="40.92741" lon="0.83028">
        <ele>55.6</ele>
        <time>2022-05-25 01:11:54</time>
      </trkpt>
      <trkpt lat="40.92744" lon="0.83031">
        <ele>55.6</ele>
        <time>2022-05-25 01:11:55</time>
      </trkpt>
      <trkpt lat="40.92747" lon="0.83035">
        <ele>55.6</ele>
        <time>2022-05-25 01:11:56</time>
      </trkpt>
      <trkpt lat="40.92751" lon="0.83039">
        <ele>55.6</ele>
        <time>2022-05-25 01:11:57</time>
      </trkpt>
      <trkpt lat="40.92754" lon="0.83043">
        <ele>55.4</ele>
        <time>2022-05-25 01:11:58</time>
      </trkpt>
      <trkpt lat="40.92757" lon="0.83047">
        <ele>55.4</ele>
        <time>2022-05-25 01:11:59</time>
      </trkpt>
      <trkpt lat="40.9276" lon="0.83051">
        <ele>55.4</ele>
        <time>2022-05-25 01:12:00</time>
      </trkpt>
      <trkpt lat="40.92764" lon="0.83056">
        <ele>55.4</ele>
        <time>2022-05-25 01:12:01</time>
      </trkpt>
      <trkpt lat="40.92767" lon="0.8306">
        <ele>55.4</ele>
        <time>2022-05-25 01:12:02</time>
      </trkpt>
      <trkpt lat="40.9277" lon="0.83064">
        <ele>55.4</ele>
        <time>2022-05-25 01:12:03</time>
      </trkpt>
      <trkpt lat="40.92774" lon="0.83068">
        <ele>55.4</ele>
        <time>2022-05-25 01:12:04</time>
      </trkpt>
      <trkpt lat="40.92777" lon="0.83072">
        <ele>55.4</ele>
        <time>2022-05-25 01:12:05</time>
      </trkpt>
      <trkpt lat="40.9278" lon="0.83077">
        <ele>55.6</ele>
        <time>2022-05-25 01:12:06</time>
      </trkpt>
      <trkpt lat="40.92784" lon="0.83082">
        <ele>55.6</ele>
        <time>2022-05-25 01:12:07</time>
      </trkpt>
      <trkpt lat="40.92787" lon="0.83086">
        <ele>55.8</ele>
        <time>2022-05-25 01:12:08</time>
      </trkpt>
      <trkpt lat="40.92791" lon="0.83091">
        <ele>55.8</ele>
        <time>2022-05-25 01:12:09</time>
      </trkpt>
      <trkpt lat="40.92795" lon="0.83096">
        <ele>56</ele>
        <time>2022-05-25 01:12:10</time>
      </trkpt>
      <trkpt lat="40.92799" lon="0.83101">
        <ele>56.2</ele>
        <time>2022-05-25 01:12:11</time>
      </trkpt>
      <trkpt lat="40.92802" lon="0.83106">
        <ele>56.6</ele>
        <time>2022-05-25 01:12:12</time>
      </trkpt>
      <trkpt lat="40.92806" lon="0.83111">
        <ele>56.6</ele>
        <time>2022-05-25 01:12:13</time>
      </trkpt>
      <trkpt lat="40.9281" lon="0.83116">
        <ele>56.4</ele>
        <time>2022-05-25 01:12:14</time>
      </trkpt>
      <trkpt lat="40.92813" lon="0.8312">
        <ele>56.6</ele>
        <time>2022-05-25 01:12:15</time>
      </trkpt>
      <trkpt lat="40.92817" lon="0.83124">
        <ele>56.8</ele>
        <time>2022-05-25 01:12:16</time>
      </trkpt>
      <trkpt lat="40.9282" lon="0.83128">
        <ele>56.8</ele>
        <time>2022-05-25 01:12:17</time>
      </trkpt>
      <trkpt lat="40.92822" lon="0.83133">
        <ele>56.6</ele>
        <time>2022-05-25 01:12:18</time>
      </trkpt>
      <trkpt lat="40.92825" lon="0.83137">
        <ele>56.4</ele>
        <time>2022-05-25 01:12:19</time>
      </trkpt>
      <trkpt lat="40.92828" lon="0.83142">
        <ele>56.4</ele>
        <time>2022-05-25 01:12:20</time>
      </trkpt>
      <trkpt lat="40.92832" lon="0.83146">
        <ele>56.4</ele>
        <time>2022-05-25 01:12:21</time>
      </trkpt>
      <trkpt lat="40.92836" lon="0.8315">
        <ele>56.2</ele>
        <time>2022-05-25 01:12:22</time>
      </trkpt>
      <trkpt lat="40.92839" lon="0.83155">
        <ele>55.8</ele>
        <time>2022-05-25 01:12:23</time>
      </trkpt>
      <trkpt lat="40.92843" lon="0.8316">
        <ele>55.6</ele>
        <time>2022-05-25 01:12:24</time>
      </trkpt>
      <trkpt lat="40.92847" lon="0.83165">
        <ele>55.6</ele>
        <time>2022-05-25 01:12:25</time>
      </trkpt>
      <trkpt lat="40.9285" lon="0.8317">
        <ele>55.6</ele>
        <time>2022-05-25 01:12:26</time>
      </trkpt>
      <trkpt lat="40.92854" lon="0.83175">
        <ele>55.4</ele>
        <time>2022-05-25 01:12:27</time>
      </trkpt>
      <trkpt lat="40.92858" lon="0.8318">
        <ele>55.2</ele>
        <time>2022-05-25 01:12:28</time>
      </trkpt>
      <trkpt lat="40.92862" lon="0.83185">
        <ele>55.2</ele>
        <time>2022-05-25 01:12:29</time>
      </trkpt>
      <trkpt lat="40.92865" lon="0.8319">
        <ele>55.2</ele>
        <time>2022-05-25 01:12:30</time>
      </trkpt>
      <trkpt lat="40.92869" lon="0.83195">
        <ele>55.4</ele>
        <time>2022-05-25 01:12:31</time>
      </trkpt>
      <trkpt lat="40.92873" lon="0.832">
        <ele>55.6</ele>
        <time>2022-05-25 01:12:32</time>
      </trkpt>
      <trkpt lat="40.92876" lon="0.83206">
        <ele>55.6</ele>
        <time>2022-05-25 01:12:33</time>
      </trkpt>
      <trkpt lat="40.92879" lon="0.83211">
        <ele>55.8</ele>
        <time>2022-05-25 01:12:34</time>
      </trkpt>
      <trkpt lat="40.92883" lon="0.83217">
        <ele>55.6</ele>
        <time>2022-05-25 01:12:35</time>
      </trkpt>
      <trkpt lat="40.92887" lon="0.83222">
        <ele>55.4</ele>
        <time>2022-05-25 01:12:36</time>
      </trkpt>
      <trkpt lat="40.92891" lon="0.83228">
        <ele>55.4</ele>
        <time>2022-05-25 01:12:37</time>
      </trkpt>
      <trkpt lat="40.92895" lon="0.83235">
        <ele>55.4</ele>
        <time>2022-05-25 01:12:38</time>
      </trkpt>
      <trkpt lat="40.92898" lon="0.83241">
        <ele>55.4</ele>
        <time>2022-05-25 01:12:39</time>
      </trkpt>
      <trkpt lat="40.92902" lon="0.83247">
        <ele>55.4</ele>
        <time>2022-05-25 01:12:40</time>
      </trkpt>
      <trkpt lat="40.92906" lon="0.83253">
        <ele>55.4</ele>
        <time>2022-05-25 01:12:41</time>
      </trkpt>
      <trkpt lat="40.9291" lon="0.83259">
        <ele>55.2</ele>
        <time>2022-05-25 01:12:42</time>
      </trkpt>
      <trkpt lat="40.92913" lon="0.83265">
        <ele>55.2</ele>
        <time>2022-05-25 01:12:43</time>
      </trkpt>
      <trkpt lat="40.92917" lon="0.83271">
        <ele>55.2</ele>
        <time>2022-05-25 01:12:44</time>
      </trkpt>
      <trkpt lat="40.92921" lon="0.83277">
        <ele>55.2</ele>
        <time>2022-05-25 01:12:45</time>
      </trkpt>
      <trkpt lat="40.92925" lon="0.83283">
        <ele>55</ele>
        <time>2022-05-25 01:12:46</time>
      </trkpt>
      <trkpt lat="40.92929" lon="0.83289">
        <ele>55</ele>
        <time>2022-05-25 01:12:47</time>
      </trkpt>
      <trkpt lat="40.92933" lon="0.83296">
        <ele>55.2</ele>
        <time>2022-05-25 01:12:48</time>
      </trkpt>
      <trkpt lat="40.92938" lon="0.83302">
        <ele>55.4</ele>
        <time>2022-05-25 01:12:49</time>
      </trkpt>
      <trkpt lat="40.92942" lon="0.83309">
        <ele>55.4</ele>
        <time>2022-05-25 01:12:50</time>
      </trkpt>
      <trkpt lat="40.92946" lon="0.83316">
        <ele>55.4</ele>
        <time>2022-05-25 01:12:51</time>
      </trkpt>
      <trkpt lat="40.9295" lon="0.83323">
        <ele>55.4</ele>
        <time>2022-05-25 01:12:52</time>
      </trkpt>
      <trkpt lat="40.92955" lon="0.8333">
        <ele>55.2</ele>
        <time>2022-05-25 01:12:53</time>
      </trkpt>
      <trkpt lat="40.92959" lon="0.83337">
        <ele>55.4</ele>
        <time>2022-05-25 01:12:54</time>
      </trkpt>
      <trkpt lat="40.92963" lon="0.83344">
        <ele>55.4</ele>
        <time>2022-05-25 01:12:55</time>
      </trkpt>
      <trkpt lat="40.92967" lon="0.83351">
        <ele>55.2</ele>
        <time>2022-05-25 01:12:56</time>
      </trkpt>
      <trkpt lat="40.92971" lon="0.83358">
        <ele>55.4</ele>
        <time>2022-05-25 01:12:57</time>
      </trkpt>
      <trkpt lat="40.92975" lon="0.83365">
        <ele>55.4</ele>
        <time>2022-05-25 01:12:58</time>
      </trkpt>
      <trkpt lat="40.92979" lon="0.83372">
        <ele>55.2</ele>
        <time>2022-05-25 01:12:59</time>
      </trkpt>
      <trkpt lat="40.92984" lon="0.83379">
        <ele>55.2</ele>
        <time>2022-05-25 01:13:00</time>
      </trkpt>
      <trkpt lat="40.92987" lon="0.83386">
        <ele>55.2</ele>
        <time>2022-05-25 01:13:01</time>
      </trkpt>
      <trkpt lat="40.92992" lon="0.83393">
        <ele>55.2</ele>
        <time>2022-05-25 01:13:02</time>
      </trkpt>
      <trkpt lat="40.92996" lon="0.834">
        <ele>55.4</ele>
        <time>2022-05-25 01:13:03</time>
      </trkpt>
      <trkpt lat="40.93" lon="0.83407">
        <ele>55.4</ele>
        <time>2022-05-25 01:13:04</time>
      </trkpt>
      <trkpt lat="40.93003" lon="0.83414">
        <ele>55.2</ele>
        <time>2022-05-25 01:13:05</time>
      </trkpt>
      <trkpt lat="40.93007" lon="0.8342">
        <ele>55</ele>
        <time>2022-05-25 01:13:06</time>
      </trkpt>
      <trkpt lat="40.93011" lon="0.83427">
        <ele>54.8</ele>
        <time>2022-05-25 01:13:07</time>
      </trkpt>
      <trkpt lat="40.93015" lon="0.83434">
        <ele>54.8</ele>
        <time>2022-05-25 01:13:08</time>
      </trkpt>
      <trkpt lat="40.93018" lon="0.8344">
        <ele>54.8</ele>
        <time>2022-05-25 01:13:09</time>
      </trkpt>
      <trkpt lat="40.93021" lon="0.83446">
        <ele>54.6</ele>
        <time>2022-05-25 01:13:10</time>
      </trkpt>
      <trkpt lat="40.93024" lon="0.83452">
        <ele>54.6</ele>
        <time>2022-05-25 01:13:11</time>
      </trkpt>
      <trkpt lat="40.93028" lon="0.83458">
        <ele>54.6</ele>
        <time>2022-05-25 01:13:12</time>
      </trkpt>
      <trkpt lat="40.93031" lon="0.83464">
        <ele>54.4</ele>
        <time>2022-05-25 01:13:13</time>
      </trkpt>
      <trkpt lat="40.93034" lon="0.83471">
        <ele>54.4</ele>
        <time>2022-05-25 01:13:14</time>
      </trkpt>
      <trkpt lat="40.93038" lon="0.83477">
        <ele>54.2</ele>
        <time>2022-05-25 01:13:15</time>
      </trkpt>
      <trkpt lat="40.93041" lon="0.83484">
        <ele>54</ele>
        <time>2022-05-25 01:13:16</time>
      </trkpt>
      <trkpt lat="40.93045" lon="0.8349">
        <ele>53.8</ele>
        <time>2022-05-25 01:13:17</time>
      </trkpt>
      <trkpt lat="40.93048" lon="0.83496">
        <ele>54</ele>
        <time>2022-05-25 01:13:18</time>
      </trkpt>
      <trkpt lat="40.93052" lon="0.83503">
        <ele>53.8</ele>
        <time>2022-05-25 01:13:19</time>
      </trkpt>
      <trkpt lat="40.93055" lon="0.83509">
        <ele>53.8</ele>
        <time>2022-05-25 01:13:20</time>
      </trkpt>
      <trkpt lat="40.93058" lon="0.83515">
        <ele>53.8</ele>
        <time>2022-05-25 01:13:21</time>
      </trkpt>
      <trkpt lat="40.9306" lon="0.83521">
        <ele>53.6</ele>
        <time>2022-05-25 01:13:22</time>
      </trkpt>
      <trkpt lat="40.93063" lon="0.83526">
        <ele>53.6</ele>
        <time>2022-05-25 01:13:23</time>
      </trkpt>
      <trkpt lat="40.93067" lon="0.83532">
        <ele>53.6</ele>
        <time>2022-05-25 01:13:24</time>
      </trkpt>
      <trkpt lat="40.9307" lon="0.83538">
        <ele>53.6</ele>
        <time>2022-05-25 01:13:25</time>
      </trkpt>
      <trkpt lat="40.93073" lon="0.83544">
        <ele>53.6</ele>
        <time>2022-05-25 01:13:26</time>
      </trkpt>
      <trkpt lat="40.93076" lon="0.8355">
        <ele>53.6</ele>
        <time>2022-05-25 01:13:27</time>
      </trkpt>
      <trkpt lat="40.93079" lon="0.83556">
        <ele>54</ele>
        <time>2022-05-25 01:13:28</time>
      </trkpt>
      <trkpt lat="40.93083" lon="0.83563">
        <ele>54.2</ele>
        <time>2022-05-25 01:13:29</time>
      </trkpt>
      <trkpt lat="40.93086" lon="0.83569">
        <ele>54</ele>
        <time>2022-05-25 01:13:30</time>
      </trkpt>
      <trkpt lat="40.9309" lon="0.83576">
        <ele>53.8</ele>
        <time>2022-05-25 01:13:31</time>
      </trkpt>
      <trkpt lat="40.93093" lon="0.83582">
        <ele>53.8</ele>
        <time>2022-05-25 01:13:32</time>
      </trkpt>
      <trkpt lat="40.93097" lon="0.83588">
        <ele>53.8</ele>
        <time>2022-05-25 01:13:33</time>
      </trkpt>
      <trkpt lat="40.931" lon="0.83595">
        <ele>53.8</ele>
        <time>2022-05-25 01:13:34</time>
      </trkpt>
      <trkpt lat="40.93103" lon="0.83601">
        <ele>53.6</ele>
        <time>2022-05-25 01:13:35</time>
      </trkpt>
      <trkpt lat="40.93106" lon="0.83607">
        <ele>53.8</ele>
        <time>2022-05-25 01:13:36</time>
      </trkpt>
      <trkpt lat="40.93109" lon="0.83614">
        <ele>53.6</ele>
        <time>2022-05-25 01:13:37</time>
      </trkpt>
      <trkpt lat="40.93113" lon="0.8362">
        <ele>53.6</ele>
        <time>2022-05-25 01:13:38</time>
      </trkpt>
      <trkpt lat="40.93116" lon="0.83627">
        <ele>53.8</ele>
        <time>2022-05-25 01:13:39</time>
      </trkpt>
      <trkpt lat="40.93119" lon="0.83634">
        <ele>53.6</ele>
        <time>2022-05-25 01:13:40</time>
      </trkpt>
      <trkpt lat="40.93123" lon="0.83641">
        <ele>53.8</ele>
        <time>2022-05-25 01:13:41</time>
      </trkpt>
      <trkpt lat="40.93126" lon="0.83648">
        <ele>54.2</ele>
        <time>2022-05-25 01:13:42</time>
      </trkpt>
      <trkpt lat="40.9313" lon="0.83655">
        <ele>54.4</ele>
        <time>2022-05-25 01:13:43</time>
      </trkpt>
      <trkpt lat="40.93134" lon="0.83662">
        <ele>54.4</ele>
        <time>2022-05-25 01:13:44</time>
      </trkpt>
      <trkpt lat="40.93137" lon="0.83669">
        <ele>54.2</ele>
        <time>2022-05-25 01:13:45</time>
      </trkpt>
      <trkpt lat="40.9314" lon="0.83676">
        <ele>54</ele>
        <time>2022-05-25 01:13:46</time>
      </trkpt>
      <trkpt lat="40.93144" lon="0.83682">
        <ele>53.8</ele>
        <time>2022-05-25 01:13:47</time>
      </trkpt>
      <trkpt lat="40.93147" lon="0.83688">
        <ele>53.8</ele>
        <time>2022-05-25 01:13:48</time>
      </trkpt>
      <trkpt lat="40.93151" lon="0.83695">
        <ele>53.6</ele>
        <time>2022-05-25 01:13:49</time>
      </trkpt>
      <trkpt lat="40.93154" lon="0.83702">
        <ele>53.4</ele>
        <time>2022-05-25 01:13:50</time>
      </trkpt>
      <trkpt lat="40.93158" lon="0.83709">
        <ele>53.4</ele>
        <time>2022-05-25 01:13:51</time>
      </trkpt>
      <trkpt lat="40.93161" lon="0.83716">
        <ele>53.4</ele>
        <time>2022-05-25 01:13:52</time>
      </trkpt>
      <trkpt lat="40.93165" lon="0.83723">
        <ele>53.2</ele>
        <time>2022-05-25 01:13:53</time>
      </trkpt>
      <trkpt lat="40.93168" lon="0.83729">
        <ele>53</ele>
        <time>2022-05-25 01:13:54</time>
      </trkpt>
      <trkpt lat="40.93172" lon="0.83735">
        <ele>52.8</ele>
        <time>2022-05-25 01:13:55</time>
      </trkpt>
      <trkpt lat="40.93175" lon="0.83741">
        <ele>52.8</ele>
        <time>2022-05-25 01:13:56</time>
      </trkpt>
      <trkpt lat="40.93178" lon="0.83747">
        <ele>52.6</ele>
        <time>2022-05-25 01:13:57</time>
      </trkpt>
      <trkpt lat="40.93182" lon="0.83753">
        <ele>52.6</ele>
        <time>2022-05-25 01:13:58</time>
      </trkpt>
      <trkpt lat="40.93185" lon="0.83759">
        <ele>52.4</ele>
        <time>2022-05-25 01:13:59</time>
      </trkpt>
      <trkpt lat="40.93188" lon="0.83766">
        <ele>52.2</ele>
        <time>2022-05-25 01:14:00</time>
      </trkpt>
      <trkpt lat="40.93192" lon="0.83772">
        <ele>52.2</ele>
        <time>2022-05-25 01:14:01</time>
      </trkpt>
      <trkpt lat="40.93195" lon="0.83779">
        <ele>52.2</ele>
        <time>2022-05-25 01:14:02</time>
      </trkpt>
      <trkpt lat="40.93199" lon="0.83785">
        <ele>52.2</ele>
        <time>2022-05-25 01:14:03</time>
      </trkpt>
      <trkpt lat="40.93203" lon="0.83792">
        <ele>52</ele>
        <time>2022-05-25 01:14:04</time>
      </trkpt>
      <trkpt lat="40.93207" lon="0.83798">
        <ele>52.2</ele>
        <time>2022-05-25 01:14:05</time>
      </trkpt>
      <trkpt lat="40.93211" lon="0.83805">
        <ele>52.4</ele>
        <time>2022-05-25 01:14:06</time>
      </trkpt>
      <trkpt lat="40.93214" lon="0.83811">
        <ele>52.4</ele>
        <time>2022-05-25 01:14:07</time>
      </trkpt>
      <trkpt lat="40.93218" lon="0.83817">
        <ele>52.2</ele>
        <time>2022-05-25 01:14:08</time>
      </trkpt>
      <trkpt lat="40.93222" lon="0.83824">
        <ele>52.2</ele>
        <time>2022-05-25 01:14:09</time>
      </trkpt>
      <trkpt lat="40.93226" lon="0.8383">
        <ele>52.2</ele>
        <time>2022-05-25 01:14:10</time>
      </trkpt>
      <trkpt lat="40.9323" lon="0.83836">
        <ele>52.2</ele>
        <time>2022-05-25 01:14:11</time>
      </trkpt>
      <trkpt lat="40.93234" lon="0.83842">
        <ele>52.4</ele>
        <time>2022-05-25 01:14:12</time>
      </trkpt>
      <trkpt lat="40.93238" lon="0.83848">
        <ele>52.4</ele>
        <time>2022-05-25 01:14:13</time>
      </trkpt>
      <trkpt lat="40.93242" lon="0.83854">
        <ele>52.6</ele>
        <time>2022-05-25 01:14:14</time>
      </trkpt>
      <trkpt lat="40.93246" lon="0.8386">
        <ele>52.6</ele>
        <time>2022-05-25 01:14:15</time>
      </trkpt>
      <trkpt lat="40.9325" lon="0.83866">
        <ele>52.8</ele>
        <time>2022-05-25 01:14:16</time>
      </trkpt>
      <trkpt lat="40.93254" lon="0.83871">
        <ele>52.8</ele>
        <time>2022-05-25 01:14:17</time>
      </trkpt>
      <trkpt lat="40.93258" lon="0.83877">
        <ele>53</ele>
        <time>2022-05-25 01:14:18</time>
      </trkpt>
      <trkpt lat="40.93262" lon="0.83883">
        <ele>53.2</ele>
        <time>2022-05-25 01:14:19</time>
      </trkpt>
      <trkpt lat="40.93266" lon="0.83889">
        <ele>53.4</ele>
        <time>2022-05-25 01:14:20</time>
      </trkpt>
      <trkpt lat="40.9327" lon="0.83894">
        <ele>53.4</ele>
        <time>2022-05-25 01:14:21</time>
      </trkpt>
      <trkpt lat="40.93274" lon="0.839">
        <ele>53.4</ele>
        <time>2022-05-25 01:14:22</time>
      </trkpt>
      <trkpt lat="40.93279" lon="0.83906">
        <ele>53.2</ele>
        <time>2022-05-25 01:14:23</time>
      </trkpt>
      <trkpt lat="40.93283" lon="0.83911">
        <ele>53</ele>
        <time>2022-05-25 01:14:24</time>
      </trkpt>
      <trkpt lat="40.93287" lon="0.83917">
        <ele>52.8</ele>
        <time>2022-05-25 01:14:25</time>
      </trkpt>
      <trkpt lat="40.93291" lon="0.83922">
        <ele>52.8</ele>
        <time>2022-05-25 01:14:26</time>
      </trkpt>
      <trkpt lat="40.93295" lon="0.83927">
        <ele>52.8</ele>
        <time>2022-05-25 01:14:27</time>
      </trkpt>
      <trkpt lat="40.93299" lon="0.83933">
        <ele>52.8</ele>
        <time>2022-05-25 01:14:28</time>
      </trkpt>
      <trkpt lat="40.93304" lon="0.83938">
        <ele>52.8</ele>
        <time>2022-05-25 01:14:29</time>
      </trkpt>
      <trkpt lat="40.93308" lon="0.83943">
        <ele>52.6</ele>
        <time>2022-05-25 01:14:30</time>
      </trkpt>
      <trkpt lat="40.93312" lon="0.83948">
        <ele>52.4</ele>
        <time>2022-05-25 01:14:31</time>
      </trkpt>
      <trkpt lat="40.93317" lon="0.83953">
        <ele>52.2</ele>
        <time>2022-05-25 01:14:32</time>
      </trkpt>
      <trkpt lat="40.93321" lon="0.83958">
        <ele>52.2</ele>
        <time>2022-05-25 01:14:33</time>
      </trkpt>
      <trkpt lat="40.93326" lon="0.83963">
        <ele>52.4</ele>
        <time>2022-05-25 01:14:34</time>
      </trkpt>
      <trkpt lat="40.9333" lon="0.83967">
        <ele>52.4</ele>
        <time>2022-05-25 01:14:35</time>
      </trkpt>
      <trkpt lat="40.93334" lon="0.83972">
        <ele>52.4</ele>
        <time>2022-05-25 01:14:36</time>
      </trkpt>
      <trkpt lat="40.93339" lon="0.83977">
        <ele>52.4</ele>
        <time>2022-05-25 01:14:37</time>
      </trkpt>
      <trkpt lat="40.93343" lon="0.83982">
        <ele>52.2</ele>
        <time>2022-05-25 01:14:38</time>
      </trkpt>
      <trkpt lat="40.93348" lon="0.83988">
        <ele>52.2</ele>
        <time>2022-05-25 01:14:39</time>
      </trkpt>
      <trkpt lat="40.93352" lon="0.83992">
        <ele>52.2</ele>
        <time>2022-05-25 01:14:40</time>
      </trkpt>
      <trkpt lat="40.93357" lon="0.83997">
        <ele>52</ele>
        <time>2022-05-25 01:14:41</time>
      </trkpt>
      <trkpt lat="40.93362" lon="0.84002">
        <ele>52</ele>
        <time>2022-05-25 01:14:42</time>
      </trkpt>
      <trkpt lat="40.93366" lon="0.84006">
        <ele>51.8</ele>
        <time>2022-05-25 01:14:43</time>
      </trkpt>
      <trkpt lat="40.93371" lon="0.84011">
        <ele>51.8</ele>
        <time>2022-05-25 01:14:44</time>
      </trkpt>
      <trkpt lat="40.93376" lon="0.84016">
        <ele>51.8</ele>
        <time>2022-05-25 01:14:45</time>
      </trkpt>
      <trkpt lat="40.93381" lon="0.8402">
        <ele>51.6</ele>
        <time>2022-05-25 01:14:46</time>
      </trkpt>
      <trkpt lat="40.93386" lon="0.84025">
        <ele>51.4</ele>
        <time>2022-05-25 01:14:47</time>
      </trkpt>
      <trkpt lat="40.93391" lon="0.8403">
        <ele>51.2</ele>
        <time>2022-05-25 01:14:48</time>
      </trkpt>
      <trkpt lat="40.93396" lon="0.84034">
        <ele>51.4</ele>
        <time>2022-05-25 01:14:49</time>
      </trkpt>
      <trkpt lat="40.934" lon="0.84038">
        <ele>51.4</ele>
        <time>2022-05-25 01:14:50</time>
      </trkpt>
      <trkpt lat="40.93405" lon="0.84043">
        <ele>51.4</ele>
        <time>2022-05-25 01:14:51</time>
      </trkpt>
      <trkpt lat="40.9341" lon="0.84048">
        <ele>51.4</ele>
        <time>2022-05-25 01:14:52</time>
      </trkpt>
      <trkpt lat="40.93415" lon="0.84053">
        <ele>51.2</ele>
        <time>2022-05-25 01:14:53</time>
      </trkpt>
      <trkpt lat="40.9342" lon="0.84058">
        <ele>51.2</ele>
        <time>2022-05-25 01:14:54</time>
      </trkpt>
      <trkpt lat="40.93426" lon="0.84062">
        <ele>51.4</ele>
        <time>2022-05-25 01:14:55</time>
      </trkpt>
      <trkpt lat="40.93431" lon="0.84065">
        <ele>51.6</ele>
        <time>2022-05-25 01:14:56</time>
      </trkpt>
      <trkpt lat="40.93437" lon="0.84069">
        <ele>51.6</ele>
        <time>2022-05-25 01:14:57</time>
      </trkpt>
      <trkpt lat="40.93442" lon="0.84073">
        <ele>51.6</ele>
        <time>2022-05-25 01:14:58</time>
      </trkpt>
      <trkpt lat="40.93447" lon="0.84077">
        <ele>51.6</ele>
        <time>2022-05-25 01:14:59</time>
      </trkpt>
      <trkpt lat="40.93453" lon="0.84081">
        <ele>51.8</ele>
        <time>2022-05-25 01:15:00</time>
      </trkpt>
      <trkpt lat="40.93458" lon="0.84085">
        <ele>52</ele>
        <time>2022-05-25 01:15:01</time>
      </trkpt>
      <trkpt lat="40.93463" lon="0.84089">
        <ele>51.8</ele>
        <time>2022-05-25 01:15:02</time>
      </trkpt>
      <trkpt lat="40.93468" lon="0.84092">
        <ele>51.8</ele>
        <time>2022-05-25 01:15:03</time>
      </trkpt>
      <trkpt lat="40.93474" lon="0.84096">
        <ele>51.6</ele>
        <time>2022-05-25 01:15:04</time>
      </trkpt>
      <trkpt lat="40.93479" lon="0.841">
        <ele>51.4</ele>
        <time>2022-05-25 01:15:05</time>
      </trkpt>
      <trkpt lat="40.93484" lon="0.84104">
        <ele>51.4</ele>
        <time>2022-05-25 01:15:06</time>
      </trkpt>
      <trkpt lat="40.93489" lon="0.84108">
        <ele>51.4</ele>
        <time>2022-05-25 01:15:07</time>
      </trkpt>
      <trkpt lat="40.93494" lon="0.84112">
        <ele>51.4</ele>
        <time>2022-05-25 01:15:08</time>
      </trkpt>
      <trkpt lat="40.93499" lon="0.84115">
        <ele>51.6</ele>
        <time>2022-05-25 01:15:09</time>
      </trkpt>
      <trkpt lat="40.93504" lon="0.84119">
        <ele>51.4</ele>
        <time>2022-05-25 01:15:10</time>
      </trkpt>
      <trkpt lat="40.93509" lon="0.84123">
        <ele>51.4</ele>
        <time>2022-05-25 01:15:11</time>
      </trkpt>
      <trkpt lat="40.93515" lon="0.84127">
        <ele>51.6</ele>
        <time>2022-05-25 01:15:12</time>
      </trkpt>
      <trkpt lat="40.9352" lon="0.84131">
        <ele>51.6</ele>
        <time>2022-05-25 01:15:13</time>
      </trkpt>
      <trkpt lat="40.93525" lon="0.84135">
        <ele>51.6</ele>
        <time>2022-05-25 01:15:14</time>
      </trkpt>
      <trkpt lat="40.9353" lon="0.84139">
        <ele>51.4</ele>
        <time>2022-05-25 01:15:15</time>
      </trkpt>
      <trkpt lat="40.93536" lon="0.84143">
        <ele>51.2</ele>
        <time>2022-05-25 01:15:16</time>
      </trkpt>
      <trkpt lat="40.93541" lon="0.84146">
        <ele>51</ele>
        <time>2022-05-25 01:15:17</time>
      </trkpt>
      <trkpt lat="40.93546" lon="0.84149">
        <ele>51</ele>
        <time>2022-05-25 01:15:18</time>
      </trkpt>
      <trkpt lat="40.93551" lon="0.84153">
        <ele>51.2</ele>
        <time>2022-05-25 01:15:19</time>
      </trkpt>
      <trkpt lat="40.93556" lon="0.84156">
        <ele>51.4</ele>
        <time>2022-05-25 01:15:20</time>
      </trkpt>
      <trkpt lat="40.93561" lon="0.8416">
        <ele>51.6</ele>
        <time>2022-05-25 01:15:21</time>
      </trkpt>
      <trkpt lat="40.93567" lon="0.84163">
        <ele>51.6</ele>
        <time>2022-05-25 01:15:22</time>
      </trkpt>
      <trkpt lat="40.93572" lon="0.84167">
        <ele>51.8</ele>
        <time>2022-05-25 01:15:23</time>
      </trkpt>
      <trkpt lat="40.93577" lon="0.8417">
        <ele>51.8</ele>
        <time>2022-05-25 01:15:24</time>
      </trkpt>
      <trkpt lat="40.93582" lon="0.84173">
        <ele>51.8</ele>
        <time>2022-05-25 01:15:25</time>
      </trkpt>
      <trkpt lat="40.93587" lon="0.84177">
        <ele>51.8</ele>
        <time>2022-05-25 01:15:26</time>
      </trkpt>
      <trkpt lat="40.93592" lon="0.8418">
        <ele>51.8</ele>
        <time>2022-05-25 01:15:27</time>
      </trkpt>
      <trkpt lat="40.93597" lon="0.84184">
        <ele>51.8</ele>
        <time>2022-05-25 01:15:28</time>
      </trkpt>
      <trkpt lat="40.93602" lon="0.84188">
        <ele>51.8</ele>
        <time>2022-05-25 01:15:29</time>
      </trkpt>
      <trkpt lat="40.93607" lon="0.84192">
        <ele>51.8</ele>
        <time>2022-05-25 01:15:30</time>
      </trkpt>
      <trkpt lat="40.93612" lon="0.84195">
        <ele>51.6</ele>
        <time>2022-05-25 01:15:31</time>
      </trkpt>
      <trkpt lat="40.93618" lon="0.84199">
        <ele>51.6</ele>
        <time>2022-05-25 01:15:32</time>
      </trkpt>
      <trkpt lat="40.93623" lon="0.84202">
        <ele>51.6</ele>
        <time>2022-05-25 01:15:33</time>
      </trkpt>
      <trkpt lat="40.93628" lon="0.84206">
        <ele>51.4</ele>
        <time>2022-05-25 01:15:34</time>
      </trkpt>
      <trkpt lat="40.93632" lon="0.8421">
        <ele>51.2</ele>
        <time>2022-05-25 01:15:35</time>
      </trkpt>
      <trkpt lat="40.93637" lon="0.84214">
        <ele>51.2</ele>
        <time>2022-05-25 01:15:36</time>
      </trkpt>
      <trkpt lat="40.93642" lon="0.84218">
        <ele>51</ele>
        <time>2022-05-25 01:15:37</time>
      </trkpt>
      <trkpt lat="40.93646" lon="0.84222">
        <ele>51.2</ele>
        <time>2022-05-25 01:15:38</time>
      </trkpt>
      <trkpt lat="40.93651" lon="0.84226">
        <ele>51.4</ele>
        <time>2022-05-25 01:15:39</time>
      </trkpt>
      <trkpt lat="40.93656" lon="0.8423">
        <ele>51.6</ele>
        <time>2022-05-25 01:15:40</time>
      </trkpt>
      <trkpt lat="40.9366" lon="0.84233">
        <ele>51.8</ele>
        <time>2022-05-25 01:15:41</time>
      </trkpt>
      <trkpt lat="40.93665" lon="0.84237">
        <ele>51.8</ele>
        <time>2022-05-25 01:15:42</time>
      </trkpt>
      <trkpt lat="40.9367" lon="0.84241">
        <ele>52</ele>
        <time>2022-05-25 01:15:43</time>
      </trkpt>
      <trkpt lat="40.93674" lon="0.84245">
        <ele>52.2</ele>
        <time>2022-05-25 01:15:44</time>
      </trkpt>
      <trkpt lat="40.93679" lon="0.84249">
        <ele>52.2</ele>
        <time>2022-05-25 01:15:45</time>
      </trkpt>
      <trkpt lat="40.93684" lon="0.84254">
        <ele>52.4</ele>
        <time>2022-05-25 01:15:46</time>
      </trkpt>
      <trkpt lat="40.93688" lon="0.84258">
        <ele>52.4</ele>
        <time>2022-05-25 01:15:47</time>
      </trkpt>
      <trkpt lat="40.93693" lon="0.84262">
        <ele>52.4</ele>
        <time>2022-05-25 01:15:48</time>
      </trkpt>
      <trkpt lat="40.93697" lon="0.84267">
        <ele>52.4</ele>
        <time>2022-05-25 01:15:49</time>
      </trkpt>
      <trkpt lat="40.93702" lon="0.84271">
        <ele>52.4</ele>
        <time>2022-05-25 01:15:50</time>
      </trkpt>
      <trkpt lat="40.93706" lon="0.84276">
        <ele>52.6</ele>
        <time>2022-05-25 01:15:51</time>
      </trkpt>
      <trkpt lat="40.9371" lon="0.8428">
        <ele>52.8</ele>
        <time>2022-05-25 01:15:52</time>
      </trkpt>
      <trkpt lat="40.93715" lon="0.84284">
        <ele>52.8</ele>
        <time>2022-05-25 01:15:53</time>
      </trkpt>
      <trkpt lat="40.93719" lon="0.84289">
        <ele>52.8</ele>
        <time>2022-05-25 01:15:54</time>
      </trkpt>
      <trkpt lat="40.93723" lon="0.84294">
        <ele>53</ele>
        <time>2022-05-25 01:15:55</time>
      </trkpt>
      <trkpt lat="40.93727" lon="0.84299">
        <ele>53</ele>
        <time>2022-05-25 01:15:56</time>
      </trkpt>
      <trkpt lat="40.93732" lon="0.84304">
        <ele>53.2</ele>
        <time>2022-05-25 01:15:57</time>
      </trkpt>
      <trkpt lat="40.93736" lon="0.84308">
        <ele>53.2</ele>
        <time>2022-05-25 01:15:58</time>
      </trkpt>
      <trkpt lat="40.9374" lon="0.84313">
        <ele>53.4</ele>
        <time>2022-05-25 01:15:59</time>
      </trkpt>
      <trkpt lat="40.93744" lon="0.84317">
        <ele>53.4</ele>
        <time>2022-05-25 01:16:00</time>
      </trkpt>
      <trkpt lat="40.93748" lon="0.84322">
        <ele>53.6</ele>
        <time>2022-05-25 01:16:01</time>
      </trkpt>
      <trkpt lat="40.93753" lon="0.84327">
        <ele>53.6</ele>
        <time>2022-05-25 01:16:02</time>
      </trkpt>
      <trkpt lat="40.93756" lon="0.84332">
        <ele>53.6</ele>
        <time>2022-05-25 01:16:03</time>
      </trkpt>
      <trkpt lat="40.93761" lon="0.84338">
        <ele>53.6</ele>
        <time>2022-05-25 01:16:04</time>
      </trkpt>
      <trkpt lat="40.93765" lon="0.84343">
        <ele>53.6</ele>
        <time>2022-05-25 01:16:05</time>
      </trkpt>
      <trkpt lat="40.93769" lon="0.84349">
        <ele>53.6</ele>
        <time>2022-05-25 01:16:06</time>
      </trkpt>
      <trkpt lat="40.93774" lon="0.84354">
        <ele>53.6</ele>
        <time>2022-05-25 01:16:07</time>
      </trkpt>
      <trkpt lat="40.93777" lon="0.84359">
        <ele>53.4</ele>
        <time>2022-05-25 01:16:08</time>
      </trkpt>
      <trkpt lat="40.93782" lon="0.84365">
        <ele>53.4</ele>
        <time>2022-05-25 01:16:09</time>
      </trkpt>
      <trkpt lat="40.93786" lon="0.8437">
        <ele>53.6</ele>
        <time>2022-05-25 01:16:10</time>
      </trkpt>
      <trkpt lat="40.9379" lon="0.84375">
        <ele>53.4</ele>
        <time>2022-05-25 01:16:11</time>
      </trkpt>
      <trkpt lat="40.93793" lon="0.84381">
        <ele>53.4</ele>
        <time>2022-05-25 01:16:12</time>
      </trkpt>
      <trkpt lat="40.93797" lon="0.84387">
        <ele>53.6</ele>
        <time>2022-05-25 01:16:13</time>
      </trkpt>
      <trkpt lat="40.93801" lon="0.84392">
        <ele>53.6</ele>
        <time>2022-05-25 01:16:14</time>
      </trkpt>
      <trkpt lat="40.93805" lon="0.84398">
        <ele>53.6</ele>
        <time>2022-05-25 01:16:15</time>
      </trkpt>
      <trkpt lat="40.93809" lon="0.84404">
        <ele>53.8</ele>
        <time>2022-05-25 01:16:16</time>
      </trkpt>
      <trkpt lat="40.93813" lon="0.84409">
        <ele>53.8</ele>
        <time>2022-05-25 01:16:17</time>
      </trkpt>
      <trkpt lat="40.93816" lon="0.84414">
        <ele>53.8</ele>
        <time>2022-05-25 01:16:18</time>
      </trkpt>
      <trkpt lat="40.93819" lon="0.84419">
        <ele>53.8</ele>
        <time>2022-05-25 01:16:19</time>
      </trkpt>
      <trkpt lat="40.93823" lon="0.84424">
        <ele>53.8</ele>
        <time>2022-05-25 01:16:20</time>
      </trkpt>
      <trkpt lat="40.93827" lon="0.8443">
        <ele>53.8</ele>
        <time>2022-05-25 01:16:21</time>
      </trkpt>
      <trkpt lat="40.9383" lon="0.84435">
        <ele>53.6</ele>
        <time>2022-05-25 01:16:22</time>
      </trkpt>
      <trkpt lat="40.93834" lon="0.84441">
        <ele>53.6</ele>
        <time>2022-05-25 01:16:23</time>
      </trkpt>
      <trkpt lat="40.93837" lon="0.84446">
        <ele>53.6</ele>
        <time>2022-05-25 01:16:24</time>
      </trkpt>
      <trkpt lat="40.93841" lon="0.84452">
        <ele>53.6</ele>
        <time>2022-05-25 01:16:25</time>
      </trkpt>
      <trkpt lat="40.93844" lon="0.84458">
        <ele>53.6</ele>
        <time>2022-05-25 01:16:26</time>
      </trkpt>
      <trkpt lat="40.93848" lon="0.84464">
        <ele>53.8</ele>
        <time>2022-05-25 01:16:27</time>
      </trkpt>
      <trkpt lat="40.93851" lon="0.84469">
        <ele>53.8</ele>
        <time>2022-05-25 01:16:28</time>
      </trkpt>
      <trkpt lat="40.93855" lon="0.84475">
        <ele>53.8</ele>
        <time>2022-05-25 01:16:29</time>
      </trkpt>
      <trkpt lat="40.93858" lon="0.8448">
        <ele>53.8</ele>
        <time>2022-05-25 01:16:30</time>
      </trkpt>
      <trkpt lat="40.93861" lon="0.84486">
        <ele>53.6</ele>
        <time>2022-05-25 01:16:31</time>
      </trkpt>
      <trkpt lat="40.93864" lon="0.84491">
        <ele>53.6</ele>
        <time>2022-05-25 01:16:32</time>
      </trkpt>
      <trkpt lat="40.93867" lon="0.84497">
        <ele>53.4</ele>
        <time>2022-05-25 01:16:33</time>
      </trkpt>
      <trkpt lat="40.93871" lon="0.84502">
        <ele>53.4</ele>
        <time>2022-05-25 01:16:34</time>
      </trkpt>
      <trkpt lat="40.93875" lon="0.84508">
        <ele>53.4</ele>
        <time>2022-05-25 01:16:35</time>
      </trkpt>
      <trkpt lat="40.93879" lon="0.84514">
        <ele>53.4</ele>
        <time>2022-05-25 01:16:36</time>
      </trkpt>
      <trkpt lat="40.93882" lon="0.84519">
        <ele>53.2</ele>
        <time>2022-05-25 01:16:37</time>
      </trkpt>
      <trkpt lat="40.93885" lon="0.84524">
        <ele>53.2</ele>
        <time>2022-05-25 01:16:38</time>
      </trkpt>
      <trkpt lat="40.93889" lon="0.84529">
        <ele>53</ele>
        <time>2022-05-25 01:16:39</time>
      </trkpt>
      <trkpt lat="40.93892" lon="0.84534">
        <ele>53.2</ele>
        <time>2022-05-25 01:16:40</time>
      </trkpt>
      <trkpt lat="40.93896" lon="0.8454">
        <ele>53.2</ele>
        <time>2022-05-25 01:16:41</time>
      </trkpt>
      <trkpt lat="40.939" lon="0.84545">
        <ele>53.2</ele>
        <time>2022-05-25 01:16:42</time>
      </trkpt>
      <trkpt lat="40.93904" lon="0.8455">
        <ele>53</ele>
        <time>2022-05-25 01:16:43</time>
      </trkpt>
      <trkpt lat="40.93908" lon="0.84555">
        <ele>53</ele>
        <time>2022-05-25 01:16:44</time>
      </trkpt>
      <trkpt lat="40.93911" lon="0.8456">
        <ele>53.2</ele>
        <time>2022-05-25 01:16:45</time>
      </trkpt>
      <trkpt lat="40.93916" lon="0.84565">
        <ele>53.2</ele>
        <time>2022-05-25 01:16:46</time>
      </trkpt>
      <trkpt lat="40.9392" lon="0.8457">
        <ele>53.2</ele>
        <time>2022-05-25 01:16:47</time>
      </trkpt>
      <trkpt lat="40.93924" lon="0.84575">
        <ele>53.4</ele>
        <time>2022-05-25 01:16:48</time>
      </trkpt>
      <trkpt lat="40.93928" lon="0.84581">
        <ele>53.6</ele>
        <time>2022-05-25 01:16:49</time>
      </trkpt>
      <trkpt lat="40.93932" lon="0.84586">
        <ele>53.6</ele>
        <time>2022-05-25 01:16:50</time>
      </trkpt>
      <trkpt lat="40.93937" lon="0.84591">
        <ele>53.6</ele>
        <time>2022-05-25 01:16:51</time>
      </trkpt>
      <trkpt lat="40.93941" lon="0.84596">
        <ele>53.8</ele>
        <time>2022-05-25 01:16:52</time>
      </trkpt>
      <trkpt lat="40.93945" lon="0.846">
        <ele>53.8</ele>
        <time>2022-05-25 01:16:53</time>
      </trkpt>
      <trkpt lat="40.93949" lon="0.84604">
        <ele>53.8</ele>
        <time>2022-05-25 01:16:54</time>
      </trkpt>
      <trkpt lat="40.93953" lon="0.84608">
        <ele>53.8</ele>
        <time>2022-05-25 01:16:55</time>
      </trkpt>
      <trkpt lat="40.93956" lon="0.84612">
        <ele>53.8</ele>
        <time>2022-05-25 01:16:56</time>
      </trkpt>
      <trkpt lat="40.93961" lon="0.84616">
        <ele>53.8</ele>
        <time>2022-05-25 01:16:57</time>
      </trkpt>
      <trkpt lat="40.93965" lon="0.8462">
        <ele>53.6</ele>
        <time>2022-05-25 01:16:58</time>
      </trkpt>
      <trkpt lat="40.93969" lon="0.84624">
        <ele>53.6</ele>
        <time>2022-05-25 01:16:59</time>
      </trkpt>
      <trkpt lat="40.93974" lon="0.84628">
        <ele>53.6</ele>
        <time>2022-05-25 01:17:00</time>
      </trkpt>
      <trkpt lat="40.93978" lon="0.84632">
        <ele>53.8</ele>
        <time>2022-05-25 01:17:01</time>
      </trkpt>
      <trkpt lat="40.93983" lon="0.84636">
        <ele>53.8</ele>
        <time>2022-05-25 01:17:02</time>
      </trkpt>
      <trkpt lat="40.93987" lon="0.8464">
        <ele>53.8</ele>
        <time>2022-05-25 01:17:03</time>
      </trkpt>
      <trkpt lat="40.93993" lon="0.84644">
        <ele>54</ele>
        <time>2022-05-25 01:17:04</time>
      </trkpt>
      <trkpt lat="40.93998" lon="0.84647">
        <ele>54</ele>
        <time>2022-05-25 01:17:05</time>
      </trkpt>
      <trkpt lat="40.94003" lon="0.84651">
        <ele>54</ele>
        <time>2022-05-25 01:17:06</time>
      </trkpt>
      <trkpt lat="40.94007" lon="0.84654">
        <ele>53.8</ele>
        <time>2022-05-25 01:17:07</time>
      </trkpt>
      <trkpt lat="40.94012" lon="0.84657">
        <ele>53.8</ele>
        <time>2022-05-25 01:17:08</time>
      </trkpt>
      <trkpt lat="40.94017" lon="0.8466">
        <ele>53.8</ele>
        <time>2022-05-25 01:17:09</time>
      </trkpt>
      <trkpt lat="40.94023" lon="0.84663">
        <ele>53.8</ele>
        <time>2022-05-25 01:17:10</time>
      </trkpt>
      <trkpt lat="40.94028" lon="0.84667">
        <ele>53.8</ele>
        <time>2022-05-25 01:17:11</time>
      </trkpt>
      <trkpt lat="40.94033" lon="0.8467">
        <ele>53.8</ele>
        <time>2022-05-25 01:17:12</time>
      </trkpt>
      <trkpt lat="40.94038" lon="0.84673">
        <ele>53.8</ele>
        <time>2022-05-25 01:17:13</time>
      </trkpt>
      <trkpt lat="40.94043" lon="0.84676">
        <ele>53.8</ele>
        <time>2022-05-25 01:17:14</time>
      </trkpt>
      <trkpt lat="40.94048" lon="0.8468">
        <ele>53.8</ele>
        <time>2022-05-25 01:17:15</time>
      </trkpt>
      <trkpt lat="40.94053" lon="0.84683">
        <ele>53.8</ele>
        <time>2022-05-25 01:17:16</time>
      </trkpt>
      <trkpt lat="40.94057" lon="0.84686">
        <ele>53.6</ele>
        <time>2022-05-25 01:17:17</time>
      </trkpt>
      <trkpt lat="40.94062" lon="0.84688">
        <ele>53.4</ele>
        <time>2022-05-25 01:17:18</time>
      </trkpt>
      <trkpt lat="40.94067" lon="0.84691">
        <ele>53.4</ele>
        <time>2022-05-25 01:17:19</time>
      </trkpt>
      <trkpt lat="40.94072" lon="0.84693">
        <ele>53.4</ele>
        <time>2022-05-25 01:17:20</time>
      </trkpt>
      <trkpt lat="40.94077" lon="0.84695">
        <ele>53.4</ele>
        <time>2022-05-25 01:17:21</time>
      </trkpt>
      <trkpt lat="40.94082" lon="0.84698">
        <ele>53.4</ele>
        <time>2022-05-25 01:17:22</time>
      </trkpt>
      <trkpt lat="40.94087" lon="0.847">
        <ele>53.4</ele>
        <time>2022-05-25 01:17:23</time>
      </trkpt>
      <trkpt lat="40.94091" lon="0.84702">
        <ele>53.6</ele>
        <time>2022-05-25 01:17:24</time>
      </trkpt>
      <trkpt lat="40.94096" lon="0.84705">
        <ele>53.8</ele>
        <time>2022-05-25 01:17:25</time>
      </trkpt>
      <trkpt lat="40.94101" lon="0.84707">
        <ele>53.8</ele>
        <time>2022-05-25 01:17:26</time>
      </trkpt>
      <trkpt lat="40.94106" lon="0.84709">
        <ele>53.8</ele>
        <time>2022-05-25 01:17:27</time>
      </trkpt>
      <trkpt lat="40.94111" lon="0.84712">
        <ele>53.6</ele>
        <time>2022-05-25 01:17:28</time>
      </trkpt>
      <trkpt lat="40.94115" lon="0.84715">
        <ele>53.6</ele>
        <time>2022-05-25 01:17:29</time>
      </trkpt>
      <trkpt lat="40.9412" lon="0.84717">
        <ele>53.6</ele>
        <time>2022-05-25 01:17:30</time>
      </trkpt>
      <trkpt lat="40.94125" lon="0.84719">
        <ele>53.6</ele>
        <time>2022-05-25 01:17:31</time>
      </trkpt>
      <trkpt lat="40.9413" lon="0.84721">
        <ele>53.4</ele>
        <time>2022-05-25 01:17:32</time>
      </trkpt>
      <trkpt lat="40.94135" lon="0.84723">
        <ele>53.4</ele>
        <time>2022-05-25 01:17:33</time>
      </trkpt>
      <trkpt lat="40.9414" lon="0.84725">
        <ele>53.4</ele>
        <time>2022-05-25 01:17:34</time>
      </trkpt>
      <trkpt lat="40.94145" lon="0.84727">
        <ele>53.4</ele>
        <time>2022-05-25 01:17:35</time>
      </trkpt>
      <trkpt lat="40.9415" lon="0.84729">
        <ele>53.6</ele>
        <time>2022-05-25 01:17:36</time>
      </trkpt>
      <trkpt lat="40.94155" lon="0.84731">
        <ele>53.4</ele>
        <time>2022-05-25 01:17:37</time>
      </trkpt>
      <trkpt lat="40.9416" lon="0.84733">
        <ele>53</ele>
        <time>2022-05-25 01:17:38</time>
      </trkpt>
      <trkpt lat="40.94164" lon="0.84735">
        <ele>53</ele>
        <time>2022-05-25 01:17:39</time>
      </trkpt>
      <trkpt lat="40.94169" lon="0.84737">
        <ele>53</ele>
        <time>2022-05-25 01:17:40</time>
      </trkpt>
      <trkpt lat="40.94173" lon="0.84739">
        <ele>53</ele>
        <time>2022-05-25 01:17:41</time>
      </trkpt>
      <trkpt lat="40.94178" lon="0.84741">
        <ele>52.8</ele>
        <time>2022-05-25 01:17:42</time>
      </trkpt>
      <trkpt lat="40.94183" lon="0.84743">
        <ele>52.6</ele>
        <time>2022-05-25 01:17:43</time>
      </trkpt>
      <trkpt lat="40.94187" lon="0.84745">
        <ele>52.8</ele>
        <time>2022-05-25 01:17:44</time>
      </trkpt>
      <trkpt lat="40.94192" lon="0.84747">
        <ele>53</ele>
        <time>2022-05-25 01:17:45</time>
      </trkpt>
      <trkpt lat="40.94196" lon="0.84749">
        <ele>53.2</ele>
        <time>2022-05-25 01:17:46</time>
      </trkpt>
      <trkpt lat="40.94201" lon="0.84751">
        <ele>53.4</ele>
        <time>2022-05-25 01:17:47</time>
      </trkpt>
      <trkpt lat="40.94206" lon="0.84753">
        <ele>53.4</ele>
        <time>2022-05-25 01:17:48</time>
      </trkpt>
      <trkpt lat="40.9421" lon="0.84755">
        <ele>53.2</ele>
        <time>2022-05-25 01:17:49</time>
      </trkpt>
      <trkpt lat="40.94215" lon="0.84757">
        <ele>53.4</ele>
        <time>2022-05-25 01:17:50</time>
      </trkpt>
      <trkpt lat="40.9422" lon="0.84759">
        <ele>53.4</ele>
        <time>2022-05-25 01:17:51</time>
      </trkpt>
      <trkpt lat="40.94224" lon="0.84761">
        <ele>53.6</ele>
        <time>2022-05-25 01:17:52</time>
      </trkpt>
      <trkpt lat="40.94228" lon="0.84764">
        <ele>53.8</ele>
        <time>2022-05-25 01:17:53</time>
      </trkpt>
      <trkpt lat="40.94232" lon="0.84767">
        <ele>54</ele>
        <time>2022-05-25 01:17:54</time>
      </trkpt>
      <trkpt lat="40.94236" lon="0.8477">
        <ele>54</ele>
        <time>2022-05-25 01:17:55</time>
      </trkpt>
      <trkpt lat="40.94241" lon="0.84773">
        <ele>54</ele>
        <time>2022-05-25 01:17:56</time>
      </trkpt>
      <trkpt lat="40.94244" lon="0.84777">
        <ele>54</ele>
        <time>2022-05-25 01:17:57</time>
      </trkpt>
      <trkpt lat="40.94248" lon="0.84781">
        <ele>54</ele>
        <time>2022-05-25 01:17:58</time>
      </trkpt>
      <trkpt lat="40.94252" lon="0.84785">
        <ele>54</ele>
        <time>2022-05-25 01:17:59</time>
      </trkpt>
      <trkpt lat="40.94256" lon="0.84789">
        <ele>53.8</ele>
        <time>2022-05-25 01:18:00</time>
      </trkpt>
      <trkpt lat="40.94261" lon="0.84793">
        <ele>53.8</ele>
        <time>2022-05-25 01:18:01</time>
      </trkpt>
      <trkpt lat="40.94266" lon="0.84795">
        <ele>53.8</ele>
        <time>2022-05-25 01:18:02</time>
      </trkpt>
      <trkpt lat="40.94271" lon="0.84797">
        <ele>53.8</ele>
        <time>2022-05-25 01:18:03</time>
      </trkpt>
      <trkpt lat="40.94275" lon="0.84799">
        <ele>54</ele>
        <time>2022-05-25 01:18:04</time>
      </trkpt>
      <trkpt lat="40.9428" lon="0.84802">
        <ele>54</ele>
        <time>2022-05-25 01:18:05</time>
      </trkpt>
      <trkpt lat="40.94284" lon="0.84804">
        <ele>53.8</ele>
        <time>2022-05-25 01:18:06</time>
      </trkpt>
      <trkpt lat="40.94289" lon="0.84807">
        <ele>53.8</ele>
        <time>2022-05-25 01:18:07</time>
      </trkpt>
      <trkpt lat="40.94293" lon="0.8481">
        <ele>53.6</ele>
        <time>2022-05-25 01:18:08</time>
      </trkpt>
      <trkpt lat="40.94297" lon="0.84814">
        <ele>53.6</ele>
        <time>2022-05-25 01:18:09</time>
      </trkpt>
      <trkpt lat="40.94302" lon="0.84818">
        <ele>53.6</ele>
        <time>2022-05-25 01:18:10</time>
      </trkpt>
      <trkpt lat="40.94306" lon="0.84822">
        <ele>53.4</ele>
        <time>2022-05-25 01:18:11</time>
      </trkpt>
      <trkpt lat="40.9431" lon="0.84826">
        <ele>53.4</ele>
        <time>2022-05-25 01:18:12</time>
      </trkpt>
      <trkpt lat="40.94314" lon="0.8483">
        <ele>53.4</ele>
        <time>2022-05-25 01:18:13</time>
      </trkpt>
      <trkpt lat="40.94318" lon="0.84833">
        <ele>53.6</ele>
        <time>2022-05-25 01:18:14</time>
      </trkpt>
      <trkpt lat="40.94322" lon="0.84837">
        <ele>53.6</ele>
        <time>2022-05-25 01:18:15</time>
      </trkpt>
      <trkpt lat="40.94326" lon="0.84841">
        <ele>53.6</ele>
        <time>2022-05-25 01:18:16</time>
      </trkpt>
      <trkpt lat="40.94329" lon="0.84845">
        <ele>53.8</ele>
        <time>2022-05-25 01:18:17</time>
      </trkpt>
      <trkpt lat="40.94333" lon="0.84849">
        <ele>53.8</ele>
        <time>2022-05-25 01:18:18</time>
      </trkpt>
      <trkpt lat="40.94337" lon="0.84853">
        <ele>53.8</ele>
        <time>2022-05-25 01:18:19</time>
      </trkpt>
      <trkpt lat="40.94341" lon="0.84858">
        <ele>54</ele>
        <time>2022-05-25 01:18:20</time>
      </trkpt>
      <trkpt lat="40.94344" lon="0.84862">
        <ele>54</ele>
        <time>2022-05-25 01:18:21</time>
      </trkpt>
      <trkpt lat="40.94348" lon="0.84866">
        <ele>54.2</ele>
        <time>2022-05-25 01:18:22</time>
      </trkpt>
      <trkpt lat="40.94352" lon="0.8487">
        <ele>54.2</ele>
        <time>2022-05-25 01:18:23</time>
      </trkpt>
      <trkpt lat="40.94355" lon="0.84875">
        <ele>54.4</ele>
        <time>2022-05-25 01:18:24</time>
      </trkpt>
      <trkpt lat="40.94359" lon="0.84879">
        <ele>54.2</ele>
        <time>2022-05-25 01:18:25</time>
      </trkpt>
      <trkpt lat="40.94363" lon="0.84883">
        <ele>54.2</ele>
        <time>2022-05-25 01:18:26</time>
      </trkpt>
      <trkpt lat="40.94366" lon="0.84887">
        <ele>54.2</ele>
        <time>2022-05-25 01:18:27</time>
      </trkpt>
      <trkpt lat="40.94369" lon="0.8489">
        <ele>54.2</ele>
        <time>2022-05-25 01:18:28</time>
      </trkpt>
      <trkpt lat="40.94371" lon="0.84894">
        <ele>54.2</ele>
        <time>2022-05-25 01:18:29</time>
      </trkpt>
      <trkpt lat="40.94374" lon="0.84898">
        <ele>54.6</ele>
        <time>2022-05-25 01:18:30</time>
      </trkpt>
      <trkpt lat="40.94376" lon="0.84902">
        <ele>54.6</ele>
        <time>2022-05-25 01:18:31</time>
      </trkpt>
      <trkpt lat="40.94379" lon="0.84906">
        <ele>54.6</ele>
        <time>2022-05-25 01:18:32</time>
      </trkpt>
      <trkpt lat="40.94382" lon="0.84909">
        <ele>54.6</ele>
        <time>2022-05-25 01:18:33</time>
      </trkpt>
      <trkpt lat="40.94385" lon="0.84913">
        <ele>54.4</ele>
        <time>2022-05-25 01:18:34</time>
      </trkpt>
      <trkpt lat="40.94387" lon="0.84917">
        <ele>54.4</ele>
        <time>2022-05-25 01:18:35</time>
      </trkpt>
      <trkpt lat="40.9439" lon="0.84922">
        <ele>54.6</ele>
        <time>2022-05-25 01:18:36</time>
      </trkpt>
      <trkpt lat="40.94393" lon="0.84926">
        <ele>54.6</ele>
        <time>2022-05-25 01:18:37</time>
      </trkpt>
      <trkpt lat="40.94395" lon="0.8493">
        <ele>54.6</ele>
        <time>2022-05-25 01:18:38</time>
      </trkpt>
      <trkpt lat="40.94398" lon="0.84934">
        <ele>54.6</ele>
        <time>2022-05-25 01:18:39</time>
      </trkpt>
      <trkpt lat="40.944" lon="0.84939">
        <ele>54.6</ele>
        <time>2022-05-25 01:18:40</time>
      </trkpt>
      <trkpt lat="40.94403" lon="0.84943">
        <ele>54.4</ele>
        <time>2022-05-25 01:18:41</time>
      </trkpt>
      <trkpt lat="40.94405" lon="0.84948">
        <ele>54.4</ele>
        <time>2022-05-25 01:18:42</time>
      </trkpt>
      <trkpt lat="40.94408" lon="0.84953">
        <ele>54.2</ele>
        <time>2022-05-25 01:18:43</time>
      </trkpt>
      <trkpt lat="40.94411" lon="0.84958">
        <ele>54.2</ele>
        <time>2022-05-25 01:18:44</time>
      </trkpt>
      <trkpt lat="40.94414" lon="0.84963">
        <ele>54.4</ele>
        <time>2022-05-25 01:18:45</time>
      </trkpt>
      <trkpt lat="40.94417" lon="0.84969">
        <ele>54.4</ele>
        <time>2022-05-25 01:18:46</time>
      </trkpt>
      <trkpt lat="40.9442" lon="0.84974">
        <ele>54.2</ele>
        <time>2022-05-25 01:18:47</time>
      </trkpt>
      <trkpt lat="40.94423" lon="0.84979">
        <ele>54</ele>
        <time>2022-05-25 01:18:48</time>
      </trkpt>
      <trkpt lat="40.94425" lon="0.84984">
        <ele>54</ele>
        <time>2022-05-25 01:18:49</time>
      </trkpt>
      <trkpt lat="40.94428" lon="0.84989">
        <ele>54</ele>
        <time>2022-05-25 01:18:50</time>
      </trkpt>
      <trkpt lat="40.9443" lon="0.84994">
        <ele>54.2</ele>
        <time>2022-05-25 01:18:51</time>
      </trkpt>
      <trkpt lat="40.94433" lon="0.84998">
        <ele>54.2</ele>
        <time>2022-05-25 01:18:52</time>
      </trkpt>
      <trkpt lat="40.94435" lon="0.85003">
        <ele>54.4</ele>
        <time>2022-05-25 01:18:53</time>
      </trkpt>
      <trkpt lat="40.94437" lon="0.85008">
        <ele>54.4</ele>
        <time>2022-05-25 01:18:54</time>
      </trkpt>
      <trkpt lat="40.9444" lon="0.85013">
        <ele>54.4</ele>
        <time>2022-05-25 01:18:55</time>
      </trkpt>
      <trkpt lat="40.94443" lon="0.85017">
        <ele>54.6</ele>
        <time>2022-05-25 01:18:56</time>
      </trkpt>
      <trkpt lat="40.94446" lon="0.85022">
        <ele>54.6</ele>
        <time>2022-05-25 01:18:57</time>
      </trkpt>
      <trkpt lat="40.94448" lon="0.85027">
        <ele>54.6</ele>
        <time>2022-05-25 01:18:58</time>
      </trkpt>
      <trkpt lat="40.94451" lon="0.85033">
        <ele>54.6</ele>
        <time>2022-05-25 01:18:59</time>
      </trkpt>
      <trkpt lat="40.94453" lon="0.85038">
        <ele>54.6</ele>
        <time>2022-05-25 01:19:00</time>
      </trkpt>
      <trkpt lat="40.94456" lon="0.85042">
        <ele>54.6</ele>
        <time>2022-05-25 01:19:01</time>
      </trkpt>
      <trkpt lat="40.94459" lon="0.85047">
        <ele>54.6</ele>
        <time>2022-05-25 01:19:02</time>
      </trkpt>
      <trkpt lat="40.94462" lon="0.85052">
        <ele>54.8</ele>
        <time>2022-05-25 01:19:03</time>
      </trkpt>
      <trkpt lat="40.94464" lon="0.85058">
        <ele>54.8</ele>
        <time>2022-05-25 01:19:04</time>
      </trkpt>
      <trkpt lat="40.94467" lon="0.85064">
        <ele>55</ele>
        <time>2022-05-25 01:19:05</time>
      </trkpt>
      <trkpt lat="40.9447" lon="0.85069">
        <ele>55.4</ele>
        <time>2022-05-25 01:19:06</time>
      </trkpt>
      <trkpt lat="40.94474" lon="0.85074">
        <ele>55.4</ele>
        <time>2022-05-25 01:19:07</time>
      </trkpt>
    </trkseg>
  </trk>
</gpx>
